<?xml version="1.0" encoding="UTF-8"?>
<gpx
  version="1.0"
  creator="pymavlink"
  xmlns:xsi="http://www.w3.org/2001/XMLSchema-instance"
  xmlns="http://www.topografix.com/GPX/1/0"
  xsi:schemaLocation="http://www.topografix.com/GPX/1/0 http://www.topografix.com/GPX/1/0/gpx.xsd">
<trk>
<trkseg>
<trkpt lat="33.4368002" lon="-117.0859339">
  <ele>-0.11</ele>
  <time>2026-09-01T01:12:07Z</time>
  <course>0.0</course>
  <speed>0.0</speed>
  <fix>3d</fix>
</trkpt>
<trkpt lat="33.4368002" lon="-117.0859339">
  <ele>-0.11</ele>
  <time>2026-09-01T01:12:07Z</time>
  <course>0.0</course>
  <speed>0.0</speed>
  <fix>3d</fix>
</trkpt>
<trkpt lat="33.810313" lon="-118.393867">
  <ele>0.0</ele>
  <time>2026-09-01T01:12:07Z</time>
  <course>173.5</course>
  <speed>0.0</speed>
  <fix>3d</fix>
</trkpt>
<trkpt lat="33.810313" lon="-118.393867">
  <ele>-0.11</ele>
  <time>2026-09-01T01:12:07Z</time>
  <course>0.0</course>
  <speed>0.0</speed>
  <fix>3d</fix>
</trkpt>
<trkpt lat="33.810313" lon="-118.393867">
  <ele>0.0</ele>
  <time>2026-09-01T01:12:07Z</time>
  <course>173.64</course>
  <speed>0.0</speed>
  <fix>3d</fix>
</trkpt>
<trkpt lat="33.810313" lon="-118.393867">
  <ele>-0.11</ele>
  <time>2026-09-01T01:12:07Z</time>
  <course>0.0</course>
  <speed>0.0</speed>
  <fix>3d</fix>
</trkpt>
<trkpt lat="33.810313" lon="-118.393867">
  <ele>0.0</ele>
  <time>2026-09-01T01:12:07Z</time>
  <course>174.03</course>
  <speed>0.0</speed>
  <fix>3d</fix>
</trkpt>
<trkpt lat="33.810313" lon="-118.393867">
  <ele>-0.11</ele>
  <time>2026-09-01T01:12:07Z</time>
  <course>0.0</course>
  <speed>0.0</speed>
  <fix>3d</fix>
</trkpt>
<trkpt lat="33.810313" lon="-118.393867">
  <ele>0.0</ele>
  <time>2026-09-01T01:12:07Z</time>
  <course>174.57</course>
  <speed>0.0</speed>
  <fix>3d</fix>
</trkpt>
<trkpt lat="33.810313" lon="-118.393867">
  <ele>-0.11</ele>
  <time>2026-09-01T01:12:07Z</time>
  <course>0.0</course>
  <speed>0.0</speed>
  <fix>3d</fix>
</trkpt>
<trkpt lat="33.810313" lon="-118.393867">
  <ele>0.0</ele>
  <time>2026-09-01T01:12:07Z</time>
  <course>175.13</course>
  <speed>0.0</speed>
  <fix>3d</fix>
</trkpt>
<trkpt lat="33.810313" lon="-118.393867">
  <ele>-0.12</ele>
  <time>2026-09-01T01:12:07Z</time>
  <course>0.0</course>
  <speed>0.0</speed>
  <fix>3d</fix>
</trkpt>
<trkpt lat="33.810313" lon="-118.393867">
  <ele>0.0</ele>
  <time>2026-09-01T01:12:07Z</time>
  <course>175.67</course>
  <speed>0.0</speed>
  <fix>3d</fix>
</trkpt>
<trkpt lat="33.810313" lon="-118.393867">
  <ele>-0.12</ele>
  <time>2026-09-01T01:12:07Z</time>
  <course>0.0</course>
  <speed>0.0</speed>
  <fix>3d</fix>
</trkpt>
<trkpt lat="33.810313" lon="-118.393867">
  <ele>0.0</ele>
  <time>2026-09-01T01:12:07Z</time>
  <course>176.17</course>
  <speed>0.0</speed>
  <fix>3d</fix>
</trkpt>
<trkpt lat="33.810313" lon="-118.393867">
  <ele>-0.13</ele>
  <time>2026-09-01T01:12:07Z</time>
  <course>0.0</course>
  <speed>0.0</speed>
  <fix>3d</fix>
</trkpt>
<trkpt lat="33.810313" lon="-118.393867">
  <ele>0.0</ele>
  <time>2026-09-01T01:12:07Z</time>
  <course>176.65</course>
  <speed>0.0</speed>
  <fix>3d</fix>
</trkpt>
<trkpt lat="33.810313" lon="-118.393867">
  <ele>-0.13</ele>
  <time>2026-09-01T01:12:07Z</time>
  <course>0.0</course>
  <speed>0.0</speed>
  <fix>3d</fix>
</trkpt>
<trkpt lat="33.810313" lon="-118.393867">
  <ele>0.0</ele>
  <time>2026-09-01T01:12:07Z</time>
  <course>177.12</course>
  <speed>0.0</speed>
  <fix>3d</fix>
</trkpt>
<trkpt lat="33.810313" lon="-118.393867">
  <ele>-0.13</ele>
  <time>2026-09-01T01:12:07Z</time>
  <course>0.0</course>
  <speed>0.0</speed>
  <fix>3d</fix>
</trkpt>
<trkpt lat="33.810313" lon="-118.393867">
  <ele>0.0</ele>
  <time>2026-09-01T01:12:07Z</time>
  <course>177.57</course>
  <speed>0.0</speed>
  <fix>3d</fix>
</trkpt>
<trkpt lat="33.810313" lon="-118.393867">
  <ele>-0.13</ele>
  <time>2026-09-01T01:12:07Z</time>
  <course>0.0</course>
  <speed>0.0</speed>
  <fix>3d</fix>
</trkpt>
<trkpt lat="33.810313" lon="-118.393867">
  <ele>0.0</ele>
  <time>2026-09-01T01:12:07Z</time>
  <course>178.02</course>
  <speed>0.0</speed>
  <fix>3d</fix>
</trkpt>
<trkpt lat="33.810313" lon="-118.393867">
  <ele>-0.14</ele>
  <time>2026-09-01T01:12:07Z</time>
  <course>0.0</course>
  <speed>0.0</speed>
  <fix>3d</fix>
</trkpt>
<trkpt lat="33.810313" lon="-118.393867">
  <ele>0.0</ele>
  <time>2026-09-01T01:12:07Z</time>
  <course>178.45</course>
  <speed>0.0</speed>
  <fix>3d</fix>
</trkpt>
<trkpt lat="33.810313" lon="-118.393867">
  <ele>-0.14</ele>
  <time>2026-09-01T01:12:07Z</time>
  <course>0.0</course>
  <speed>0.0</speed>
  <fix>3d</fix>
</trkpt>
<trkpt lat="33.810313" lon="-118.393867">
  <ele>0.0</ele>
  <time>2026-09-01T01:12:07Z</time>
  <course>178.87</course>
  <speed>0.0</speed>
  <fix>3d</fix>
</trkpt>
<trkpt lat="33.810313" lon="-118.393867">
  <ele>-0.14</ele>
  <time>2026-09-01T01:12:07Z</time>
  <course>0.0</course>
  <speed>0.0</speed>
  <fix>3d</fix>
</trkpt>
<trkpt lat="33.810313" lon="-118.393867">
  <ele>0.0</ele>
  <time>2026-09-01T01:12:07Z</time>
  <course>179.27</course>
  <speed>0.0</speed>
  <fix>3d</fix>
</trkpt>
<trkpt lat="33.810313" lon="-118.393867">
  <ele>-0.14</ele>
  <time>2026-09-01T01:12:07Z</time>
  <course>0.0</course>
  <speed>0.0</speed>
  <fix>3d</fix>
</trkpt>
<trkpt lat="33.810313" lon="-118.393867">
  <ele>0.0</ele>
  <time>2026-09-01T01:12:07Z</time>
  <course>179.66</course>
  <speed>0.0</speed>
  <fix>3d</fix>
</trkpt>
<trkpt lat="33.810313" lon="-118.393867">
  <ele>-0.14</ele>
  <time>2026-09-01T01:12:07Z</time>
  <course>0.0</course>
  <speed>0.0</speed>
  <fix>3d</fix>
</trkpt>
<trkpt lat="33.810313" lon="-118.393867">
  <ele>0.0</ele>
  <time>2026-09-01T01:12:07Z</time>
  <course>180.05</course>
  <speed>0.0</speed>
  <fix>3d</fix>
</trkpt>
<trkpt lat="33.810313" lon="-118.393867">
  <ele>-0.14</ele>
  <time>2026-09-01T01:12:07Z</time>
  <course>0.0</course>
  <speed>0.0</speed>
  <fix>3d</fix>
</trkpt>
<trkpt lat="33.810313" lon="-118.393867">
  <ele>0.0</ele>
  <time>2026-09-01T01:12:07Z</time>
  <course>180.41</course>
  <speed>0.0</speed>
  <fix>3d</fix>
</trkpt>
<trkpt lat="33.810313" lon="-118.393867">
  <ele>-0.14</ele>
  <time>2026-09-01T01:12:07Z</time>
  <course>0.0</course>
  <speed>0.0</speed>
  <fix>3d</fix>
</trkpt>
<trkpt lat="33.810313" lon="-118.393867">
  <ele>0.0</ele>
  <time>2026-09-01T01:12:07Z</time>
  <course>180.76</course>
  <speed>0.0</speed>
  <fix>3d</fix>
</trkpt>
<trkpt lat="33.810313" lon="-118.393867">
  <ele>-0.14</ele>
  <time>2026-09-01T01:12:07Z</time>
  <course>0.0</course>
  <speed>0.0</speed>
  <fix>3d</fix>
</trkpt>
<trkpt lat="33.810313" lon="-118.393867">
  <ele>0.0</ele>
  <time>2026-09-01T01:12:07Z</time>
  <course>181.1</course>
  <speed>0.0</speed>
  <fix>3d</fix>
</trkpt>
<trkpt lat="33.810313" lon="-118.393867">
  <ele>-0.13</ele>
  <time>2026-09-01T01:12:07Z</time>
  <course>0.0</course>
  <speed>0.0</speed>
  <fix>3d</fix>
</trkpt>
<trkpt lat="33.810313" lon="-118.393867">
  <ele>0.0</ele>
  <time>2026-09-01T01:12:07Z</time>
  <course>181.43</course>
  <speed>0.0</speed>
  <fix>3d</fix>
</trkpt>
<trkpt lat="33.810313" lon="-118.393867">
  <ele>-0.13</ele>
  <time>2026-09-01T01:12:07Z</time>
  <course>0.0</course>
  <speed>0.0</speed>
  <fix>3d</fix>
</trkpt>
<trkpt lat="33.810313" lon="-118.393867">
  <ele>0.0</ele>
  <time>2026-09-01T01:12:07Z</time>
  <course>181.75</course>
  <speed>0.0</speed>
  <fix>3d</fix>
</trkpt>
<trkpt lat="33.810313" lon="-118.393867">
  <ele>-0.12</ele>
  <time>2026-09-01T01:12:07Z</time>
  <course>0.0</course>
  <speed>0.0</speed>
  <fix>3d</fix>
</trkpt>
<trkpt lat="33.810313" lon="-118.393867">
  <ele>0.0</ele>
  <time>2026-09-01T01:12:07Z</time>
  <course>182.05</course>
  <speed>0.0</speed>
  <fix>3d</fix>
</trkpt>
<trkpt lat="33.810313" lon="-118.393867">
  <ele>-0.12</ele>
  <time>2026-09-01T01:12:07Z</time>
  <course>0.0</course>
  <speed>0.0</speed>
  <fix>3d</fix>
</trkpt>
<trkpt lat="33.810313" lon="-118.393867">
  <ele>0.0</ele>
  <time>2026-09-01T01:12:07Z</time>
  <course>182.35</course>
  <speed>0.0</speed>
  <fix>3d</fix>
</trkpt>
<trkpt lat="33.810313" lon="-118.393867">
  <ele>-0.12</ele>
  <time>2026-09-01T01:12:07Z</time>
  <course>0.0</course>
  <speed>0.0</speed>
  <fix>3d</fix>
</trkpt>
<trkpt lat="33.810313" lon="-118.393867">
  <ele>0.0</ele>
  <time>2026-09-01T01:12:07Z</time>
  <course>182.63</course>
  <speed>0.0</speed>
  <fix>3d</fix>
</trkpt>
<trkpt lat="33.810313" lon="-118.393867">
  <ele>-0.12</ele>
  <time>2026-09-01T01:12:07Z</time>
  <course>0.0</course>
  <speed>0.0</speed>
  <fix>3d</fix>
</trkpt>
<trkpt lat="33.810313" lon="-118.393867">
  <ele>0.0</ele>
  <time>2026-09-01T01:12:07Z</time>
  <course>182.9</course>
  <speed>0.0</speed>
  <fix>3d</fix>
</trkpt>
<trkpt lat="33.810313" lon="-118.393867">
  <ele>-0.11</ele>
  <time>2026-09-01T01:12:07Z</time>
  <course>0.0</course>
  <speed>0.0</speed>
  <fix>3d</fix>
</trkpt>
<trkpt lat="33.810313" lon="-118.393867">
  <ele>0.0</ele>
  <time>2026-09-01T01:12:07Z</time>
  <course>183.16</course>
  <speed>0.0</speed>
  <fix>3d</fix>
</trkpt>
<trkpt lat="33.810313" lon="-118.393867">
  <ele>-0.11</ele>
  <time>2026-09-01T01:12:07Z</time>
  <course>0.0</course>
  <speed>0.0</speed>
  <fix>3d</fix>
</trkpt>
<trkpt lat="33.810313" lon="-118.393867">
  <ele>0.0</ele>
  <time>2026-09-01T01:12:07Z</time>
  <course>183.41</course>
  <speed>0.0</speed>
  <fix>3d</fix>
</trkpt>
<trkpt lat="33.810313" lon="-118.393867">
  <ele>-0.11</ele>
  <time>2026-09-01T01:12:07Z</time>
  <course>0.0</course>
  <speed>0.0</speed>
  <fix>3d</fix>
</trkpt>
<trkpt lat="33.810313" lon="-118.393867">
  <ele>0.0</ele>
  <time>2026-09-01T01:12:07Z</time>
  <course>183.65</course>
  <speed>0.0</speed>
  <fix>3d</fix>
</trkpt>
<trkpt lat="33.810313" lon="-118.393867">
  <ele>-0.11</ele>
  <time>2026-09-01T01:12:07Z</time>
  <course>0.0</course>
  <speed>0.0</speed>
  <fix>3d</fix>
</trkpt>
<trkpt lat="33.810313" lon="-118.393867">
  <ele>0.0</ele>
  <time>2026-09-01T01:12:07Z</time>
  <course>183.88</course>
  <speed>0.0</speed>
  <fix>3d</fix>
</trkpt>
<trkpt lat="33.810313" lon="-118.393867">
  <ele>-0.12</ele>
  <time>2026-09-01T01:12:07Z</time>
  <course>0.0</course>
  <speed>0.0</speed>
  <fix>3d</fix>
</trkpt>
<trkpt lat="33.810313" lon="-118.393867">
  <ele>0.0</ele>
  <time>2026-09-01T01:12:07Z</time>
  <course>184.11</course>
  <speed>0.0</speed>
  <fix>3d</fix>
</trkpt>
<trkpt lat="33.810313" lon="-118.393867">
  <ele>-0.12</ele>
  <time>2026-09-01T01:12:07Z</time>
  <course>0.0</course>
  <speed>0.0</speed>
  <fix>3d</fix>
</trkpt>
<trkpt lat="33.810313" lon="-118.393867">
  <ele>0.0</ele>
  <time>2026-09-01T01:12:07Z</time>
  <course>184.32</course>
  <speed>0.0</speed>
  <fix>3d</fix>
</trkpt>
<trkpt lat="33.810313" lon="-118.393867">
  <ele>-0.13</ele>
  <time>2026-09-01T01:12:07Z</time>
  <course>0.0</course>
  <speed>0.0</speed>
  <fix>3d</fix>
</trkpt>
<trkpt lat="33.810313" lon="-118.393867">
  <ele>0.0</ele>
  <time>2026-09-01T01:12:07Z</time>
  <course>184.52</course>
  <speed>0.0</speed>
  <fix>3d</fix>
</trkpt>
<trkpt lat="33.810313" lon="-118.393867">
  <ele>-0.13</ele>
  <time>2026-09-01T01:12:07Z</time>
  <course>0.0</course>
  <speed>0.0</speed>
  <fix>3d</fix>
</trkpt>
<trkpt lat="33.810313" lon="-118.393867">
  <ele>0.0</ele>
  <time>2026-09-01T01:12:07Z</time>
  <course>184.72</course>
  <speed>0.0</speed>
  <fix>3d</fix>
</trkpt>
<trkpt lat="33.810313" lon="-118.393867">
  <ele>-0.13</ele>
  <time>2026-09-01T01:12:07Z</time>
  <course>0.0</course>
  <speed>0.0</speed>
  <fix>3d</fix>
</trkpt>
<trkpt lat="33.810313" lon="-118.393867">
  <ele>0.0</ele>
  <time>2026-09-01T01:12:07Z</time>
  <course>184.91</course>
  <speed>0.0</speed>
  <fix>3d</fix>
</trkpt>
<trkpt lat="33.810313" lon="-118.393867">
  <ele>-0.13</ele>
  <time>2026-09-01T01:12:07Z</time>
  <course>0.0</course>
  <speed>0.0</speed>
  <fix>3d</fix>
</trkpt>
<trkpt lat="33.810313" lon="-118.393867">
  <ele>0.0</ele>
  <time>2026-09-01T01:12:07Z</time>
  <course>185.09</course>
  <speed>0.0</speed>
  <fix>3d</fix>
</trkpt>
<trkpt lat="33.810313" lon="-118.393867">
  <ele>-0.14</ele>
  <time>2026-09-01T01:12:07Z</time>
  <course>0.0</course>
  <speed>0.0</speed>
  <fix>3d</fix>
</trkpt>
<trkpt lat="33.810313" lon="-118.393867">
  <ele>0.0</ele>
  <time>2026-09-01T01:12:07Z</time>
  <course>185.26</course>
  <speed>0.0</speed>
  <fix>3d</fix>
</trkpt>
<trkpt lat="33.810313" lon="-118.393867">
  <ele>-0.14</ele>
  <time>2026-09-01T01:12:07Z</time>
  <course>0.0</course>
  <speed>0.0</speed>
  <fix>3d</fix>
</trkpt>
<trkpt lat="33.810313" lon="-118.393867">
  <ele>0.0</ele>
  <time>2026-09-01T01:12:07Z</time>
  <course>185.42</course>
  <speed>0.0</speed>
  <fix>3d</fix>
</trkpt>
<trkpt lat="33.810313" lon="-118.393867">
  <ele>-0.13</ele>
  <time>2026-09-01T01:12:07Z</time>
  <course>0.0</course>
  <speed>0.0</speed>
  <fix>3d</fix>
</trkpt>
<trkpt lat="33.810313" lon="-118.393867">
  <ele>0.0</ele>
  <time>2026-09-01T01:12:07Z</time>
  <course>185.58</course>
  <speed>0.0</speed>
  <fix>3d</fix>
</trkpt>
<trkpt lat="33.810313" lon="-118.393867">
  <ele>-0.13</ele>
  <time>2026-09-01T01:12:07Z</time>
  <course>0.0</course>
  <speed>0.0</speed>
  <fix>3d</fix>
</trkpt>
<trkpt lat="33.810313" lon="-118.393867">
  <ele>0.0</ele>
  <time>2026-09-01T01:12:07Z</time>
  <course>185.73</course>
  <speed>0.0</speed>
  <fix>3d</fix>
</trkpt>
<trkpt lat="33.810313" lon="-118.393867">
  <ele>-0.13</ele>
  <time>2026-09-01T01:12:07Z</time>
  <course>0.0</course>
  <speed>0.0</speed>
  <fix>3d</fix>
</trkpt>
<trkpt lat="33.810313" lon="-118.393867">
  <ele>0.0</ele>
  <time>2026-09-01T01:12:07Z</time>
  <course>185.87</course>
  <speed>0.0</speed>
  <fix>3d</fix>
</trkpt>
<trkpt lat="33.810313" lon="-118.393867">
  <ele>-0.13</ele>
  <time>2026-09-01T01:12:07Z</time>
  <course>0.0</course>
  <speed>0.0</speed>
  <fix>3d</fix>
</trkpt>
<trkpt lat="33.810313" lon="-118.393867">
  <ele>0.0</ele>
  <time>2026-09-01T01:12:07Z</time>
  <course>186.01</course>
  <speed>0.0</speed>
  <fix>3d</fix>
</trkpt>
<trkpt lat="33.810313" lon="-118.393867">
  <ele>-0.12</ele>
  <time>2026-09-01T01:12:07Z</time>
  <course>0.0</course>
  <speed>0.0</speed>
  <fix>3d</fix>
</trkpt>
<trkpt lat="33.810313" lon="-118.393867">
  <ele>0.0</ele>
  <time>2026-09-01T01:12:07Z</time>
  <course>186.14</course>
  <speed>0.0</speed>
  <fix>3d</fix>
</trkpt>
<trkpt lat="33.810313" lon="-118.393867">
  <ele>-0.12</ele>
  <time>2026-09-01T01:12:07Z</time>
  <course>0.0</course>
  <speed>0.0</speed>
  <fix>3d</fix>
</trkpt>
<trkpt lat="33.810313" lon="-118.393867">
  <ele>0.0</ele>
  <time>2026-09-01T01:12:07Z</time>
  <course>186.27</course>
  <speed>0.0</speed>
  <fix>3d</fix>
</trkpt>
<trkpt lat="33.810313" lon="-118.393867">
  <ele>-0.12</ele>
  <time>2026-09-01T01:12:07Z</time>
  <course>0.0</course>
  <speed>0.0</speed>
  <fix>3d</fix>
</trkpt>
<trkpt lat="33.810313" lon="-118.393867">
  <ele>0.0</ele>
  <time>2026-09-01T01:12:07Z</time>
  <course>186.39</course>
  <speed>0.0</speed>
  <fix>3d</fix>
</trkpt>
<trkpt lat="33.810313" lon="-118.393867">
  <ele>-0.12</ele>
  <time>2026-09-01T01:12:07Z</time>
  <course>0.0</course>
  <speed>0.0</speed>
  <fix>3d</fix>
</trkpt>
<trkpt lat="33.810313" lon="-118.393867">
  <ele>0.0</ele>
  <time>2026-09-01T01:12:07Z</time>
  <course>186.5</course>
  <speed>0.0</speed>
  <fix>3d</fix>
</trkpt>
<trkpt lat="33.810313" lon="-118.393867">
  <ele>-0.12</ele>
  <time>2026-09-01T01:12:07Z</time>
  <course>0.0</course>
  <speed>0.0</speed>
  <fix>3d</fix>
</trkpt>
<trkpt lat="33.810313" lon="-118.393867">
  <ele>0.0</ele>
  <time>2026-09-01T01:12:07Z</time>
  <course>186.61</course>
  <speed>0.0</speed>
  <fix>3d</fix>
</trkpt>
<trkpt lat="33.810313" lon="-118.393867">
  <ele>-0.12</ele>
  <time>2026-09-01T01:12:08Z</time>
  <course>0.0</course>
  <speed>0.0</speed>
  <fix>3d</fix>
</trkpt>
<trkpt lat="33.810313" lon="-118.393867">
  <ele>0.0</ele>
  <time>2026-09-01T01:12:08Z</time>
  <course>186.72</course>
  <speed>0.0</speed>
  <fix>3d</fix>
</trkpt>
<trkpt lat="33.810313" lon="-118.393867">
  <ele>-0.12</ele>
  <time>2026-09-01T01:12:08Z</time>
  <course>0.0</course>
  <speed>0.0</speed>
  <fix>3d</fix>
</trkpt>
<trkpt lat="33.810313" lon="-118.393867">
  <ele>0.0</ele>
  <time>2026-09-01T01:12:08Z</time>
  <course>186.82</course>
  <speed>0.0</speed>
  <fix>3d</fix>
</trkpt>
<trkpt lat="33.810313" lon="-118.393867">
  <ele>-0.12</ele>
  <time>2026-09-01T01:12:08Z</time>
  <course>0.0</course>
  <speed>0.0</speed>
  <fix>3d</fix>
</trkpt>
<trkpt lat="33.810313" lon="-118.393867">
  <ele>0.0</ele>
  <time>2026-09-01T01:12:08Z</time>
  <course>186.91</course>
  <speed>0.0</speed>
  <fix>3d</fix>
</trkpt>
<trkpt lat="33.810313" lon="-118.393867">
  <ele>-0.12</ele>
  <time>2026-09-01T01:12:08Z</time>
  <course>0.0</course>
  <speed>0.0</speed>
  <fix>3d</fix>
</trkpt>
<trkpt lat="33.810313" lon="-118.393867">
  <ele>0.0</ele>
  <time>2026-09-01T01:12:08Z</time>
  <course>187.0</course>
  <speed>0.0</speed>
  <fix>3d</fix>
</trkpt>
<trkpt lat="33.810313" lon="-118.393867">
  <ele>-0.12</ele>
  <time>2026-09-01T01:12:08Z</time>
  <course>0.0</course>
  <speed>0.0</speed>
  <fix>3d</fix>
</trkpt>
<trkpt lat="33.810313" lon="-118.393867">
  <ele>0.0</ele>
  <time>2026-09-01T01:12:08Z</time>
  <course>187.09</course>
  <speed>0.0</speed>
  <fix>3d</fix>
</trkpt>
<trkpt lat="33.810313" lon="-118.393867">
  <ele>-0.13</ele>
  <time>2026-09-01T01:12:08Z</time>
  <course>0.0</course>
  <speed>0.0</speed>
  <fix>3d</fix>
</trkpt>
<trkpt lat="33.810313" lon="-118.393867">
  <ele>0.0</ele>
  <time>2026-09-01T01:12:08Z</time>
  <course>187.17</course>
  <speed>0.0</speed>
  <fix>3d</fix>
</trkpt>
<trkpt lat="33.810313" lon="-118.393867">
  <ele>-0.13</ele>
  <time>2026-09-01T01:12:08Z</time>
  <course>0.0</course>
  <speed>0.0</speed>
  <fix>3d</fix>
</trkpt>
<trkpt lat="33.810313" lon="-118.393867">
  <ele>0.0</ele>
  <time>2026-09-01T01:12:08Z</time>
  <course>187.25</course>
  <speed>0.0</speed>
  <fix>3d</fix>
</trkpt>
<trkpt lat="33.810313" lon="-118.393867">
  <ele>-0.13</ele>
  <time>2026-09-01T01:12:08Z</time>
  <course>0.0</course>
  <speed>0.0</speed>
  <fix>3d</fix>
</trkpt>
<trkpt lat="33.810313" lon="-118.393867">
  <ele>0.0</ele>
  <time>2026-09-01T01:12:08Z</time>
  <course>187.33</course>
  <speed>0.0</speed>
  <fix>3d</fix>
</trkpt>
<trkpt lat="33.810313" lon="-118.393867">
  <ele>-0.13</ele>
  <time>2026-09-01T01:12:08Z</time>
  <course>0.0</course>
  <speed>0.0</speed>
  <fix>3d</fix>
</trkpt>
<trkpt lat="33.810313" lon="-118.393867">
  <ele>0.0</ele>
  <time>2026-09-01T01:12:08Z</time>
  <course>187.4</course>
  <speed>0.0</speed>
  <fix>3d</fix>
</trkpt>
<trkpt lat="33.810313" lon="-118.393867">
  <ele>-0.13</ele>
  <time>2026-09-01T01:12:08Z</time>
  <course>0.0</course>
  <speed>0.0</speed>
  <fix>3d</fix>
</trkpt>
<trkpt lat="33.810313" lon="-118.393867">
  <ele>0.0</ele>
  <time>2026-09-01T01:12:08Z</time>
  <course>187.47</course>
  <speed>0.0</speed>
  <fix>3d</fix>
</trkpt>
<trkpt lat="33.810313" lon="-118.393867">
  <ele>-0.13</ele>
  <time>2026-09-01T01:12:08Z</time>
  <course>0.0</course>
  <speed>0.0</speed>
  <fix>3d</fix>
</trkpt>
<trkpt lat="33.810313" lon="-118.393867">
  <ele>0.0</ele>
  <time>2026-09-01T01:12:08Z</time>
  <course>187.53</course>
  <speed>0.0</speed>
  <fix>3d</fix>
</trkpt>
<trkpt lat="33.810313" lon="-118.393867">
  <ele>-0.13</ele>
  <time>2026-09-01T01:12:08Z</time>
  <course>0.0</course>
  <speed>0.0</speed>
  <fix>3d</fix>
</trkpt>
<trkpt lat="33.810313" lon="-118.393867">
  <ele>0.0</ele>
  <time>2026-09-01T01:12:08Z</time>
  <course>187.59</course>
  <speed>0.0</speed>
  <fix>3d</fix>
</trkpt>
<trkpt lat="33.810313" lon="-118.393867">
  <ele>-0.13</ele>
  <time>2026-09-01T01:12:08Z</time>
  <course>0.0</course>
  <speed>0.0</speed>
  <fix>3d</fix>
</trkpt>
<trkpt lat="33.810313" lon="-118.393867">
  <ele>0.0</ele>
  <time>2026-09-01T01:12:08Z</time>
  <course>187.65</course>
  <speed>0.0</speed>
  <fix>3d</fix>
</trkpt>
<trkpt lat="33.810313" lon="-118.393867">
  <ele>-0.12</ele>
  <time>2026-09-01T01:12:08Z</time>
  <course>0.0</course>
  <speed>0.0</speed>
  <fix>3d</fix>
</trkpt>
<trkpt lat="33.810313" lon="-118.393867">
  <ele>0.0</ele>
  <time>2026-09-01T01:12:08Z</time>
  <course>187.71</course>
  <speed>0.0</speed>
  <fix>3d</fix>
</trkpt>
<trkpt lat="33.810313" lon="-118.393867">
  <ele>-0.12</ele>
  <time>2026-09-01T01:12:08Z</time>
  <course>0.0</course>
  <speed>0.0</speed>
  <fix>3d</fix>
</trkpt>
<trkpt lat="33.810313" lon="-118.393867">
  <ele>0.0</ele>
  <time>2026-09-01T01:12:08Z</time>
  <course>187.76</course>
  <speed>0.0</speed>
  <fix>3d</fix>
</trkpt>
<trkpt lat="33.810313" lon="-118.393867">
  <ele>-0.12</ele>
  <time>2026-09-01T01:12:08Z</time>
  <course>0.0</course>
  <speed>0.0</speed>
  <fix>3d</fix>
</trkpt>
<trkpt lat="33.810313" lon="-118.393867">
  <ele>0.0</ele>
  <time>2026-09-01T01:12:08Z</time>
  <course>187.81</course>
  <speed>0.0</speed>
  <fix>3d</fix>
</trkpt>
<trkpt lat="33.810313" lon="-118.393867">
  <ele>-0.12</ele>
  <time>2026-09-01T01:12:08Z</time>
  <course>0.0</course>
  <speed>0.0</speed>
  <fix>3d</fix>
</trkpt>
<trkpt lat="33.810313" lon="-118.393867">
  <ele>0.0</ele>
  <time>2026-09-01T01:12:08Z</time>
  <course>187.86</course>
  <speed>0.0</speed>
  <fix>3d</fix>
</trkpt>
<trkpt lat="33.810313" lon="-118.393867">
  <ele>-0.12</ele>
  <time>2026-09-01T01:12:08Z</time>
  <course>0.0</course>
  <speed>0.0</speed>
  <fix>3d</fix>
</trkpt>
<trkpt lat="33.810313" lon="-118.393867">
  <ele>0.0</ele>
  <time>2026-09-01T01:12:08Z</time>
  <course>187.91</course>
  <speed>0.0</speed>
  <fix>3d</fix>
</trkpt>
<trkpt lat="33.810313" lon="-118.393867">
  <ele>-0.12</ele>
  <time>2026-09-01T01:12:08Z</time>
  <course>0.0</course>
  <speed>0.0</speed>
  <fix>3d</fix>
</trkpt>
<trkpt lat="33.810313" lon="-118.393867">
  <ele>0.0</ele>
  <time>2026-09-01T01:12:08Z</time>
  <course>187.95</course>
  <speed>0.0</speed>
  <fix>3d</fix>
</trkpt>
<trkpt lat="33.810313" lon="-118.393867">
  <ele>-0.12</ele>
  <time>2026-09-01T01:12:08Z</time>
  <course>0.0</course>
  <speed>0.0</speed>
  <fix>3d</fix>
</trkpt>
<trkpt lat="33.810313" lon="-118.393867">
  <ele>0.0</ele>
  <time>2026-09-01T01:12:08Z</time>
  <course>187.99</course>
  <speed>0.0</speed>
  <fix>3d</fix>
</trkpt>
<trkpt lat="33.810313" lon="-118.393867">
  <ele>-0.12</ele>
  <time>2026-09-01T01:12:08Z</time>
  <course>0.0</course>
  <speed>0.0</speed>
  <fix>3d</fix>
</trkpt>
<trkpt lat="33.810313" lon="-118.393867">
  <ele>0.0</ele>
  <time>2026-09-01T01:12:08Z</time>
  <course>188.03</course>
  <speed>0.0</speed>
  <fix>3d</fix>
</trkpt>
<trkpt lat="33.810313" lon="-118.393867">
  <ele>-0.12</ele>
  <time>2026-09-01T01:12:08Z</time>
  <course>0.0</course>
  <speed>0.0</speed>
  <fix>3d</fix>
</trkpt>
<trkpt lat="33.810313" lon="-118.393867">
  <ele>0.0</ele>
  <time>2026-09-01T01:12:08Z</time>
  <course>188.07</course>
  <speed>0.0</speed>
  <fix>3d</fix>
</trkpt>
<trkpt lat="33.810313" lon="-118.393867">
  <ele>-0.12</ele>
  <time>2026-09-01T01:12:08Z</time>
  <course>0.0</course>
  <speed>0.0</speed>
  <fix>3d</fix>
</trkpt>
<trkpt lat="33.810313" lon="-118.393867">
  <ele>0.0</ele>
  <time>2026-09-01T01:12:08Z</time>
  <course>188.1</course>
  <speed>0.0</speed>
  <fix>3d</fix>
</trkpt>
<trkpt lat="33.810313" lon="-118.393867">
  <ele>-0.13</ele>
  <time>2026-09-01T01:12:08Z</time>
  <course>0.0</course>
  <speed>0.0</speed>
  <fix>3d</fix>
</trkpt>
<trkpt lat="33.810313" lon="-118.393867">
  <ele>0.0</ele>
  <time>2026-09-01T01:12:08Z</time>
  <course>188.13</course>
  <speed>0.0</speed>
  <fix>3d</fix>
</trkpt>
<trkpt lat="33.810313" lon="-118.393867">
  <ele>-0.13</ele>
  <time>2026-09-01T01:12:08Z</time>
  <course>0.0</course>
  <speed>0.0</speed>
  <fix>3d</fix>
</trkpt>
<trkpt lat="33.810313" lon="-118.393867">
  <ele>0.0</ele>
  <time>2026-09-01T01:12:08Z</time>
  <course>188.17</course>
  <speed>0.0</speed>
  <fix>3d</fix>
</trkpt>
<trkpt lat="33.810313" lon="-118.393867">
  <ele>-0.13</ele>
  <time>2026-09-01T01:12:08Z</time>
  <course>0.0</course>
  <speed>0.0</speed>
  <fix>3d</fix>
</trkpt>
<trkpt lat="33.810313" lon="-118.393867">
  <ele>0.0</ele>
  <time>2026-09-01T01:12:08Z</time>
  <course>188.19</course>
  <speed>0.0</speed>
  <fix>3d</fix>
</trkpt>
<trkpt lat="33.810313" lon="-118.393867">
  <ele>-0.13</ele>
  <time>2026-09-01T01:12:08Z</time>
  <course>0.0</course>
  <speed>0.0</speed>
  <fix>3d</fix>
</trkpt>
<trkpt lat="33.810313" lon="-118.393867">
  <ele>0.0</ele>
  <time>2026-09-01T01:12:08Z</time>
  <course>188.22</course>
  <speed>0.0</speed>
  <fix>3d</fix>
</trkpt>
<trkpt lat="33.810313" lon="-118.393867">
  <ele>-0.13</ele>
  <time>2026-09-01T01:12:08Z</time>
  <course>0.0</course>
  <speed>0.0</speed>
  <fix>3d</fix>
</trkpt>
<trkpt lat="33.810313" lon="-118.393867">
  <ele>0.0</ele>
  <time>2026-09-01T01:12:08Z</time>
  <course>188.25</course>
  <speed>0.0</speed>
  <fix>3d</fix>
</trkpt>
<trkpt lat="33.810313" lon="-118.393867">
  <ele>-0.13</ele>
  <time>2026-09-01T01:12:08Z</time>
  <course>0.0</course>
  <speed>0.0</speed>
  <fix>3d</fix>
</trkpt>
<trkpt lat="33.810313" lon="-118.393867">
  <ele>0.0</ele>
  <time>2026-09-01T01:12:08Z</time>
  <course>188.27</course>
  <speed>0.0</speed>
  <fix>3d</fix>
</trkpt>
<trkpt lat="33.810313" lon="-118.393867">
  <ele>-0.12</ele>
  <time>2026-09-01T01:12:08Z</time>
  <course>0.0</course>
  <speed>0.0</speed>
  <fix>3d</fix>
</trkpt>
<trkpt lat="33.810313" lon="-118.393867">
  <ele>0.0</ele>
  <time>2026-09-01T01:12:08Z</time>
  <course>188.3</course>
  <speed>0.0</speed>
  <fix>3d</fix>
</trkpt>
<trkpt lat="33.810313" lon="-118.393867">
  <ele>-0.12</ele>
  <time>2026-09-01T01:12:08Z</time>
  <course>0.0</course>
  <speed>0.0</speed>
  <fix>3d</fix>
</trkpt>
<trkpt lat="33.810313" lon="-118.393867">
  <ele>0.0</ele>
  <time>2026-09-01T01:12:08Z</time>
  <course>188.32</course>
  <speed>0.0</speed>
  <fix>3d</fix>
</trkpt>
<trkpt lat="33.810313" lon="-118.393867">
  <ele>-0.12</ele>
  <time>2026-09-01T01:12:08Z</time>
  <course>0.0</course>
  <speed>0.0</speed>
  <fix>3d</fix>
</trkpt>
<trkpt lat="33.810313" lon="-118.393867">
  <ele>0.0</ele>
  <time>2026-09-01T01:12:08Z</time>
  <course>188.34</course>
  <speed>0.0</speed>
  <fix>3d</fix>
</trkpt>
<trkpt lat="33.810313" lon="-118.393867">
  <ele>-0.12</ele>
  <time>2026-09-01T01:12:08Z</time>
  <course>0.0</course>
  <speed>0.0</speed>
  <fix>3d</fix>
</trkpt>
<trkpt lat="33.810313" lon="-118.393867">
  <ele>0.0</ele>
  <time>2026-09-01T01:12:08Z</time>
  <course>188.36</course>
  <speed>0.0</speed>
  <fix>3d</fix>
</trkpt>
<trkpt lat="33.810313" lon="-118.393867">
  <ele>-0.12</ele>
  <time>2026-09-01T01:12:08Z</time>
  <course>0.0</course>
  <speed>0.0</speed>
  <fix>3d</fix>
</trkpt>
<trkpt lat="33.810313" lon="-118.393867">
  <ele>0.0</ele>
  <time>2026-09-01T01:12:08Z</time>
  <course>188.38</course>
  <speed>0.0</speed>
  <fix>3d</fix>
</trkpt>
<trkpt lat="33.810313" lon="-118.393867">
  <ele>-0.12</ele>
  <time>2026-09-01T01:12:08Z</time>
  <course>0.0</course>
  <speed>0.0</speed>
  <fix>3d</fix>
</trkpt>
<trkpt lat="33.810313" lon="-118.393867">
  <ele>0.0</ele>
  <time>2026-09-01T01:12:08Z</time>
  <course>188.39</course>
  <speed>0.0</speed>
  <fix>3d</fix>
</trkpt>
<trkpt lat="33.810313" lon="-118.393867">
  <ele>-0.12</ele>
  <time>2026-09-01T01:12:08Z</time>
  <course>0.0</course>
  <speed>0.0</speed>
  <fix>3d</fix>
</trkpt>
<trkpt lat="33.810313" lon="-118.393867">
  <ele>0.0</ele>
  <time>2026-09-01T01:12:08Z</time>
  <course>188.41</course>
  <speed>0.0</speed>
  <fix>3d</fix>
</trkpt>
<trkpt lat="33.810313" lon="-118.393867">
  <ele>-0.12</ele>
  <time>2026-09-01T01:12:08Z</time>
  <course>0.0</course>
  <speed>0.0</speed>
  <fix>3d</fix>
</trkpt>
<trkpt lat="33.810313" lon="-118.393867">
  <ele>0.0</ele>
  <time>2026-09-01T01:12:08Z</time>
  <course>188.43</course>
  <speed>0.0</speed>
  <fix>3d</fix>
</trkpt>
<trkpt lat="33.810313" lon="-118.393867">
  <ele>-0.12</ele>
  <time>2026-09-01T01:12:08Z</time>
  <course>0.0</course>
  <speed>0.0</speed>
  <fix>3d</fix>
</trkpt>
<trkpt lat="33.810313" lon="-118.393867">
  <ele>0.0</ele>
  <time>2026-09-01T01:12:08Z</time>
  <course>188.44</course>
  <speed>0.0</speed>
  <fix>3d</fix>
</trkpt>
<trkpt lat="33.810313" lon="-118.393867">
  <ele>-0.12</ele>
  <time>2026-09-01T01:12:08Z</time>
  <course>0.0</course>
  <speed>0.0</speed>
  <fix>3d</fix>
</trkpt>
<trkpt lat="33.810313" lon="-118.393867">
  <ele>0.0</ele>
  <time>2026-09-01T01:12:08Z</time>
  <course>188.45</course>
  <speed>0.0</speed>
  <fix>3d</fix>
</trkpt>
<trkpt lat="33.810313" lon="-118.393867">
  <ele>-0.13</ele>
  <time>2026-09-01T01:12:08Z</time>
  <course>0.0</course>
  <speed>0.0</speed>
  <fix>3d</fix>
</trkpt>
<trkpt lat="33.810313" lon="-118.393867">
  <ele>0.0</ele>
  <time>2026-09-01T01:12:08Z</time>
  <course>188.46</course>
  <speed>0.0</speed>
  <fix>3d</fix>
</trkpt>
<trkpt lat="33.810313" lon="-118.393867">
  <ele>-0.13</ele>
  <time>2026-09-01T01:12:08Z</time>
  <course>0.0</course>
  <speed>0.0</speed>
  <fix>3d</fix>
</trkpt>
<trkpt lat="33.810313" lon="-118.393867">
  <ele>0.0</ele>
  <time>2026-09-01T01:12:08Z</time>
  <course>188.48</course>
  <speed>0.0</speed>
  <fix>3d</fix>
</trkpt>
<trkpt lat="33.810313" lon="-118.393867">
  <ele>-0.13</ele>
  <time>2026-09-01T01:12:08Z</time>
  <course>0.0</course>
  <speed>0.0</speed>
  <fix>3d</fix>
</trkpt>
<trkpt lat="33.810313" lon="-118.393867">
  <ele>0.0</ele>
  <time>2026-09-01T01:12:08Z</time>
  <course>188.49</course>
  <speed>0.0</speed>
  <fix>3d</fix>
</trkpt>
<trkpt lat="33.810313" lon="-118.393867">
  <ele>-0.13</ele>
  <time>2026-09-01T01:12:08Z</time>
  <course>0.0</course>
  <speed>0.0</speed>
  <fix>3d</fix>
</trkpt>
<trkpt lat="33.810313" lon="-118.393867">
  <ele>0.0</ele>
  <time>2026-09-01T01:12:08Z</time>
  <course>188.49</course>
  <speed>0.0</speed>
  <fix>3d</fix>
</trkpt>
<trkpt lat="33.810313" lon="-118.393867">
  <ele>-0.13</ele>
  <time>2026-09-01T01:12:08Z</time>
  <course>0.0</course>
  <speed>0.0</speed>
  <fix>3d</fix>
</trkpt>
<trkpt lat="33.810313" lon="-118.393867">
  <ele>0.0</ele>
  <time>2026-09-01T01:12:08Z</time>
  <course>188.5</course>
  <speed>0.0</speed>
  <fix>3d</fix>
</trkpt>
<trkpt lat="33.810313" lon="-118.393867">
  <ele>-0.13</ele>
  <time>2026-09-01T01:12:08Z</time>
  <course>0.0</course>
  <speed>0.0</speed>
  <fix>3d</fix>
</trkpt>
<trkpt lat="33.810313" lon="-118.393867">
  <ele>0.0</ele>
  <time>2026-09-01T01:12:08Z</time>
  <course>188.51</course>
  <speed>0.0</speed>
  <fix>3d</fix>
</trkpt>
<trkpt lat="33.810313" lon="-118.393867">
  <ele>-0.12</ele>
  <time>2026-09-01T01:12:08Z</time>
  <course>0.0</course>
  <speed>0.0</speed>
  <fix>3d</fix>
</trkpt>
<trkpt lat="33.810313" lon="-118.393867">
  <ele>0.0</ele>
  <time>2026-09-01T01:12:08Z</time>
  <course>188.52</course>
  <speed>0.0</speed>
  <fix>3d</fix>
</trkpt>
<trkpt lat="33.810313" lon="-118.393867">
  <ele>-0.12</ele>
  <time>2026-09-01T01:12:08Z</time>
  <course>0.0</course>
  <speed>0.0</speed>
  <fix>3d</fix>
</trkpt>
<trkpt lat="33.810313" lon="-118.393867">
  <ele>0.0</ele>
  <time>2026-09-01T01:12:08Z</time>
  <course>188.53</course>
  <speed>0.0</speed>
  <fix>3d</fix>
</trkpt>
<trkpt lat="33.810313" lon="-118.393867">
  <ele>-0.12</ele>
  <time>2026-09-01T01:12:08Z</time>
  <course>0.0</course>
  <speed>0.0</speed>
  <fix>3d</fix>
</trkpt>
<trkpt lat="33.810313" lon="-118.393867">
  <ele>0.0</ele>
  <time>2026-09-01T01:12:08Z</time>
  <course>188.53</course>
  <speed>0.0</speed>
  <fix>3d</fix>
</trkpt>
<trkpt lat="33.810313" lon="-118.393867">
  <ele>-0.12</ele>
  <time>2026-09-01T01:12:08Z</time>
  <course>0.0</course>
  <speed>0.0</speed>
  <fix>3d</fix>
</trkpt>
<trkpt lat="33.810313" lon="-118.393867">
  <ele>0.0</ele>
  <time>2026-09-01T01:12:08Z</time>
  <course>188.54</course>
  <speed>0.0</speed>
  <fix>3d</fix>
</trkpt>
<trkpt lat="33.810313" lon="-118.393867">
  <ele>-0.12</ele>
  <time>2026-09-01T01:12:08Z</time>
  <course>0.0</course>
  <speed>0.0</speed>
  <fix>3d</fix>
</trkpt>
<trkpt lat="33.810313" lon="-118.393867">
  <ele>0.0</ele>
  <time>2026-09-01T01:12:08Z</time>
  <course>188.54</course>
  <speed>0.0</speed>
  <fix>3d</fix>
</trkpt>
<trkpt lat="33.810313" lon="-118.393867">
  <ele>-0.12</ele>
  <time>2026-09-01T01:12:08Z</time>
  <course>0.0</course>
  <speed>0.0</speed>
  <fix>3d</fix>
</trkpt>
<trkpt lat="33.810313" lon="-118.393867">
  <ele>0.0</ele>
  <time>2026-09-01T01:12:08Z</time>
  <course>188.54</course>
  <speed>0.0</speed>
  <fix>3d</fix>
</trkpt>
<trkpt lat="33.810313" lon="-118.393867">
  <ele>-0.12</ele>
  <time>2026-09-01T01:12:08Z</time>
  <course>0.0</course>
  <speed>0.0</speed>
  <fix>3d</fix>
</trkpt>
<trkpt lat="33.810313" lon="-118.393867">
  <ele>0.0</ele>
  <time>2026-09-01T01:12:08Z</time>
  <course>188.55</course>
  <speed>0.0</speed>
  <fix>3d</fix>
</trkpt>
<trkpt lat="33.810313" lon="-118.393867">
  <ele>-0.12</ele>
  <time>2026-09-01T01:12:08Z</time>
  <course>0.0</course>
  <speed>0.0</speed>
  <fix>3d</fix>
</trkpt>
<trkpt lat="33.810313" lon="-118.393867">
  <ele>0.0</ele>
  <time>2026-09-01T01:12:08Z</time>
  <course>188.55</course>
  <speed>0.0</speed>
  <fix>3d</fix>
</trkpt>
<trkpt lat="33.810313" lon="-118.393867">
  <ele>-0.12</ele>
  <time>2026-09-01T01:12:08Z</time>
  <course>0.0</course>
  <speed>0.0</speed>
  <fix>3d</fix>
</trkpt>
<trkpt lat="33.810313" lon="-118.393867">
  <ele>0.0</ele>
  <time>2026-09-01T01:12:08Z</time>
  <course>188.55</course>
  <speed>0.0</speed>
  <fix>3d</fix>
</trkpt>
<trkpt lat="33.810313" lon="-118.393867">
  <ele>-0.12</ele>
  <time>2026-09-01T01:12:08Z</time>
  <course>0.0</course>
  <speed>0.0</speed>
  <fix>3d</fix>
</trkpt>
<trkpt lat="33.810313" lon="-118.393867">
  <ele>-0.126</ele>
  <time>2026-09-01T01:12:08Z</time>
  <course>188.55</course>
  <speed>0.0</speed>
  <fix>3d</fix>
</trkpt>
<trkpt lat="33.810313" lon="-118.393867">
  <ele>-0.13</ele>
  <time>2026-09-01T01:12:08Z</time>
  <course>0.0</course>
  <speed>0.0</speed>
  <fix>3d</fix>
</trkpt>
<trkpt lat="33.810313" lon="-118.393867">
  <ele>-0.126</ele>
  <time>2026-09-01T01:12:08Z</time>
  <course>188.56</course>
  <speed>0.0</speed>
  <fix>3d</fix>
</trkpt>
<trkpt lat="33.810313" lon="-118.393867">
  <ele>-0.13</ele>
  <time>2026-09-01T01:12:08Z</time>
  <course>0.0</course>
  <speed>0.0</speed>
  <fix>3d</fix>
</trkpt>
<trkpt lat="33.810313" lon="-118.393867">
  <ele>-0.124</ele>
  <time>2026-09-01T01:12:08Z</time>
  <course>188.56</course>
  <speed>0.0</speed>
  <fix>3d</fix>
</trkpt>
<trkpt lat="33.810313" lon="-118.393867">
  <ele>-0.13</ele>
  <time>2026-09-01T01:12:08Z</time>
  <course>0.0</course>
  <speed>0.0</speed>
  <fix>3d</fix>
</trkpt>
<trkpt lat="33.810313" lon="-118.393867">
  <ele>-0.123</ele>
  <time>2026-09-01T01:12:08Z</time>
  <course>188.56</course>
  <speed>0.0</speed>
  <fix>3d</fix>
</trkpt>
<trkpt lat="33.810313" lon="-118.393867">
  <ele>-0.13</ele>
  <time>2026-09-01T01:12:08Z</time>
  <course>0.0</course>
  <speed>0.0</speed>
  <fix>3d</fix>
</trkpt>
<trkpt lat="33.810313" lon="-118.393867">
  <ele>-0.121</ele>
  <time>2026-09-01T01:12:08Z</time>
  <course>188.56</course>
  <speed>0.0</speed>
  <fix>3d</fix>
</trkpt>
<trkpt lat="33.810313" lon="-118.393867">
  <ele>-0.12</ele>
  <time>2026-09-01T01:12:08Z</time>
  <course>0.0</course>
  <speed>0.0</speed>
  <fix>3d</fix>
</trkpt>
<trkpt lat="33.810313" lon="-118.393867">
  <ele>-0.12</ele>
  <time>2026-09-01T01:12:08Z</time>
  <course>188.56</course>
  <speed>0.0</speed>
  <fix>3d</fix>
</trkpt>
<trkpt lat="33.810313" lon="-118.393867">
  <ele>-0.12</ele>
  <time>2026-09-01T01:12:08Z</time>
  <course>0.0</course>
  <speed>0.0</speed>
  <fix>3d</fix>
</trkpt>
<trkpt lat="33.810313" lon="-118.393867">
  <ele>-0.119</ele>
  <time>2026-09-01T01:12:08Z</time>
  <course>188.56</course>
  <speed>0.0</speed>
  <fix>3d</fix>
</trkpt>
<trkpt lat="33.810313" lon="-118.393867">
  <ele>-0.12</ele>
  <time>2026-09-01T01:12:08Z</time>
  <course>0.0</course>
  <speed>0.0</speed>
  <fix>3d</fix>
</trkpt>
<trkpt lat="33.810313" lon="-118.393867">
  <ele>-0.12</ele>
  <time>2026-09-01T01:12:08Z</time>
  <course>188.56</course>
  <speed>0.0</speed>
  <fix>3d</fix>
</trkpt>
<trkpt lat="33.810313" lon="-118.393867">
  <ele>-0.12</ele>
  <time>2026-09-01T01:12:08Z</time>
  <course>0.0</course>
  <speed>0.0</speed>
  <fix>3d</fix>
</trkpt>
<trkpt lat="33.810313" lon="-118.393867">
  <ele>-0.124</ele>
  <time>2026-09-01T01:12:08Z</time>
  <course>188.55</course>
  <speed>0.0</speed>
  <fix>3d</fix>
</trkpt>
<trkpt lat="33.810313" lon="-118.393867">
  <ele>-0.12</ele>
  <time>2026-09-01T01:12:08Z</time>
  <course>0.0</course>
  <speed>0.0</speed>
  <fix>3d</fix>
</trkpt>
<trkpt lat="33.810313" lon="-118.393867">
  <ele>-0.127</ele>
  <time>2026-09-01T01:12:08Z</time>
  <course>188.55</course>
  <speed>0.0</speed>
  <fix>3d</fix>
</trkpt>
<trkpt lat="33.810313" lon="-118.393867">
  <ele>-0.12</ele>
  <time>2026-09-01T01:12:08Z</time>
  <course>0.0</course>
  <speed>0.0</speed>
  <fix>3d</fix>
</trkpt>
<trkpt lat="33.810313" lon="-118.393867">
  <ele>-0.13</ele>
  <time>2026-09-01T01:12:08Z</time>
  <course>188.55</course>
  <speed>0.0</speed>
  <fix>3d</fix>
</trkpt>
<trkpt lat="33.810313" lon="-118.393867">
  <ele>-0.12</ele>
  <time>2026-09-01T01:12:08Z</time>
  <course>0.0</course>
  <speed>0.0</speed>
  <fix>3d</fix>
</trkpt>
<trkpt lat="33.810313" lon="-118.393867">
  <ele>-0.132</ele>
  <time>2026-09-01T01:12:08Z</time>
  <course>188.55</course>
  <speed>0.0</speed>
  <fix>3d</fix>
</trkpt>
<trkpt lat="33.810313" lon="-118.393867">
  <ele>-0.12</ele>
  <time>2026-09-01T01:12:08Z</time>
  <course>0.0</course>
  <speed>0.0</speed>
  <fix>3d</fix>
</trkpt>
<trkpt lat="33.810313" lon="-118.393867">
  <ele>-0.132</ele>
  <time>2026-09-01T01:12:08Z</time>
  <course>188.55</course>
  <speed>0.0</speed>
  <fix>3d</fix>
</trkpt>
<trkpt lat="33.810313" lon="-118.393867">
  <ele>-0.12</ele>
  <time>2026-09-01T01:12:08Z</time>
  <course>0.0</course>
  <speed>0.0</speed>
  <fix>3d</fix>
</trkpt>
<trkpt lat="33.810313" lon="-118.393867">
  <ele>-0.132</ele>
  <time>2026-09-01T01:12:08Z</time>
  <course>188.55</course>
  <speed>0.0</speed>
  <fix>3d</fix>
</trkpt>
<trkpt lat="33.810313" lon="-118.393867">
  <ele>-0.12</ele>
  <time>2026-09-01T01:12:08Z</time>
  <course>0.0</course>
  <speed>0.0</speed>
  <fix>3d</fix>
</trkpt>
<trkpt lat="33.810313" lon="-118.393867">
  <ele>-0.132</ele>
  <time>2026-09-01T01:12:08Z</time>
  <course>188.55</course>
  <speed>0.0</speed>
  <fix>3d</fix>
</trkpt>
<trkpt lat="33.810313" lon="-118.393867">
  <ele>-0.12</ele>
  <time>2026-09-01T01:12:08Z</time>
  <course>0.0</course>
  <speed>0.0</speed>
  <fix>3d</fix>
</trkpt>
<trkpt lat="33.810313" lon="-118.393867">
  <ele>-0.131</ele>
  <time>2026-09-01T01:12:08Z</time>
  <course>188.55</course>
  <speed>0.0</speed>
  <fix>3d</fix>
</trkpt>
<trkpt lat="33.810313" lon="-118.393867">
  <ele>-0.12</ele>
  <time>2026-09-01T01:12:08Z</time>
  <course>0.0</course>
  <speed>0.0</speed>
  <fix>3d</fix>
</trkpt>
<trkpt lat="33.810313" lon="-118.393867">
  <ele>-0.129</ele>
  <time>2026-09-01T01:12:08Z</time>
  <course>188.54</course>
  <speed>0.0</speed>
  <fix>3d</fix>
</trkpt>
<trkpt lat="33.810313" lon="-118.393867">
  <ele>-0.13</ele>
  <time>2026-09-01T01:12:08Z</time>
  <course>0.0</course>
  <speed>0.0</speed>
  <fix>3d</fix>
</trkpt>
<trkpt lat="33.810313" lon="-118.393867">
  <ele>-0.128</ele>
  <time>2026-09-01T01:12:08Z</time>
  <course>188.54</course>
  <speed>0.0</speed>
  <fix>3d</fix>
</trkpt>
<trkpt lat="33.810313" lon="-118.393867">
  <ele>-0.13</ele>
  <time>2026-09-01T01:12:08Z</time>
  <course>0.0</course>
  <speed>0.0</speed>
  <fix>3d</fix>
</trkpt>
<trkpt lat="33.810313" lon="-118.393867">
  <ele>-0.125</ele>
  <time>2026-09-01T01:12:08Z</time>
  <course>188.53</course>
  <speed>0.0</speed>
  <fix>3d</fix>
</trkpt>
<trkpt lat="33.810313" lon="-118.393867">
  <ele>-0.12</ele>
  <time>2026-09-01T01:12:08Z</time>
  <course>0.0</course>
  <speed>0.0</speed>
  <fix>3d</fix>
</trkpt>
<trkpt lat="33.810313" lon="-118.393867">
  <ele>-0.123</ele>
  <time>2026-09-01T01:12:08Z</time>
  <course>188.53</course>
  <speed>0.0</speed>
  <fix>3d</fix>
</trkpt>
<trkpt lat="33.810313" lon="-118.393867">
  <ele>-0.12</ele>
  <time>2026-09-01T01:12:08Z</time>
  <course>0.0</course>
  <speed>0.0</speed>
  <fix>3d</fix>
</trkpt>
<trkpt lat="33.810313" lon="-118.393867">
  <ele>-0.121</ele>
  <time>2026-09-01T01:12:08Z</time>
  <course>188.52</course>
  <speed>0.0</speed>
  <fix>3d</fix>
</trkpt>
<trkpt lat="33.810313" lon="-118.393867">
  <ele>-0.12</ele>
  <time>2026-09-01T01:12:08Z</time>
  <course>0.0</course>
  <speed>0.0</speed>
  <fix>3d</fix>
</trkpt>
<trkpt lat="33.810313" lon="-118.393867">
  <ele>-0.121</ele>
  <time>2026-09-01T01:12:08Z</time>
  <course>188.52</course>
  <speed>0.0</speed>
  <fix>3d</fix>
</trkpt>
<trkpt lat="33.810313" lon="-118.393867">
  <ele>-0.12</ele>
  <time>2026-09-01T01:12:08Z</time>
  <course>0.0</course>
  <speed>0.0</speed>
  <fix>3d</fix>
</trkpt>
<trkpt lat="33.810313" lon="-118.393867">
  <ele>-0.122</ele>
  <time>2026-09-01T01:12:08Z</time>
  <course>188.51</course>
  <speed>0.0</speed>
  <fix>3d</fix>
</trkpt>
<trkpt lat="33.810313" lon="-118.393867">
  <ele>-0.12</ele>
  <time>2026-09-01T01:12:08Z</time>
  <course>0.0</course>
  <speed>0.0</speed>
  <fix>3d</fix>
</trkpt>
<trkpt lat="33.810313" lon="-118.393867">
  <ele>-0.123</ele>
  <time>2026-09-01T01:12:08Z</time>
  <course>188.51</course>
  <speed>0.0</speed>
  <fix>3d</fix>
</trkpt>
<trkpt lat="33.810313" lon="-118.393867">
  <ele>-0.12</ele>
  <time>2026-09-01T01:12:08Z</time>
  <course>0.0</course>
  <speed>0.0</speed>
  <fix>3d</fix>
</trkpt>
<trkpt lat="33.810313" lon="-118.393867">
  <ele>-0.126</ele>
  <time>2026-09-01T01:12:08Z</time>
  <course>188.5</course>
  <speed>0.0</speed>
  <fix>3d</fix>
</trkpt>
<trkpt lat="33.810313" lon="-118.393867">
  <ele>-0.12</ele>
  <time>2026-09-01T01:12:08Z</time>
  <course>0.0</course>
  <speed>0.0</speed>
  <fix>3d</fix>
</trkpt>
<trkpt lat="33.810313" lon="-118.393867">
  <ele>-0.127</ele>
  <time>2026-09-01T01:12:08Z</time>
  <course>188.5</course>
  <speed>0.0</speed>
  <fix>3d</fix>
</trkpt>
<trkpt lat="33.810313" lon="-118.393867">
  <ele>-0.12</ele>
  <time>2026-09-01T01:12:08Z</time>
  <course>0.0</course>
  <speed>0.0</speed>
  <fix>3d</fix>
</trkpt>
<trkpt lat="33.810313" lon="-118.393867">
  <ele>-0.128</ele>
  <time>2026-09-01T01:12:08Z</time>
  <course>188.49</course>
  <speed>0.0</speed>
  <fix>3d</fix>
</trkpt>
<trkpt lat="33.810313" lon="-118.393867">
  <ele>-0.12</ele>
  <time>2026-09-01T01:12:08Z</time>
  <course>0.0</course>
  <speed>0.0</speed>
  <fix>3d</fix>
</trkpt>
<trkpt lat="33.810313" lon="-118.393867">
  <ele>-0.127</ele>
  <time>2026-09-01T01:12:08Z</time>
  <course>188.48</course>
  <speed>0.0</speed>
  <fix>3d</fix>
</trkpt>
<trkpt lat="33.810313" lon="-118.393867">
  <ele>-0.12</ele>
  <time>2026-09-01T01:12:08Z</time>
  <course>0.0</course>
  <speed>0.0</speed>
  <fix>3d</fix>
</trkpt>
<trkpt lat="33.810313" lon="-118.393867">
  <ele>-0.127</ele>
  <time>2026-09-01T01:12:08Z</time>
  <course>188.48</course>
  <speed>0.0</speed>
  <fix>3d</fix>
</trkpt>
<trkpt lat="33.810313" lon="-118.393867">
  <ele>-0.12</ele>
  <time>2026-09-01T01:12:08Z</time>
  <course>0.0</course>
  <speed>0.0</speed>
  <fix>3d</fix>
</trkpt>
<trkpt lat="33.810313" lon="-118.393867">
  <ele>-0.127</ele>
  <time>2026-09-01T01:12:08Z</time>
  <course>188.47</course>
  <speed>0.01</speed>
  <fix>3d</fix>
</trkpt>
<trkpt lat="33.810313" lon="-118.393867">
  <ele>-0.12</ele>
  <time>2026-09-01T01:12:08Z</time>
  <course>0.0</course>
  <speed>0.0</speed>
  <fix>3d</fix>
</trkpt>
<trkpt lat="33.810313" lon="-118.393867">
  <ele>-0.127</ele>
  <time>2026-09-01T01:12:08Z</time>
  <course>188.47</course>
  <speed>0.01</speed>
  <fix>3d</fix>
</trkpt>
<trkpt lat="33.810313" lon="-118.393867">
  <ele>-0.12</ele>
  <time>2026-09-01T01:12:08Z</time>
  <course>0.0</course>
  <speed>0.0</speed>
  <fix>3d</fix>
</trkpt>
<trkpt lat="33.810313" lon="-118.393867">
  <ele>-0.126</ele>
  <time>2026-09-01T01:12:08Z</time>
  <course>188.46</course>
  <speed>0.01</speed>
  <fix>3d</fix>
</trkpt>
<trkpt lat="33.810313" lon="-118.393867">
  <ele>-0.12</ele>
  <time>2026-09-01T01:12:08Z</time>
  <course>0.0</course>
  <speed>0.0</speed>
  <fix>3d</fix>
</trkpt>
<trkpt lat="33.810313" lon="-118.393867">
  <ele>-0.126</ele>
  <time>2026-09-01T01:12:08Z</time>
  <course>188.45</course>
  <speed>0.01</speed>
  <fix>3d</fix>
</trkpt>
<trkpt lat="33.810313" lon="-118.393867">
  <ele>-0.12</ele>
  <time>2026-09-01T01:12:08Z</time>
  <course>0.0</course>
  <speed>0.0</speed>
  <fix>3d</fix>
</trkpt>
<trkpt lat="33.810313" lon="-118.393867">
  <ele>-0.126</ele>
  <time>2026-09-01T01:12:08Z</time>
  <course>188.45</course>
  <speed>0.01</speed>
  <fix>3d</fix>
</trkpt>
<trkpt lat="33.810313" lon="-118.393867">
  <ele>-0.12</ele>
  <time>2026-09-01T01:12:08Z</time>
  <course>0.0</course>
  <speed>0.0</speed>
  <fix>3d</fix>
</trkpt>
<trkpt lat="33.810313" lon="-118.393867">
  <ele>-0.125</ele>
  <time>2026-09-01T01:12:08Z</time>
  <course>188.44</course>
  <speed>0.01</speed>
  <fix>3d</fix>
</trkpt>
<trkpt lat="33.810313" lon="-118.393867">
  <ele>-0.12</ele>
  <time>2026-09-01T01:12:08Z</time>
  <course>0.0</course>
  <speed>0.0</speed>
  <fix>3d</fix>
</trkpt>
<trkpt lat="33.810313" lon="-118.393867">
  <ele>-0.126</ele>
  <time>2026-09-01T01:12:08Z</time>
  <course>188.43</course>
  <speed>0.01</speed>
  <fix>3d</fix>
</trkpt>
<trkpt lat="33.810313" lon="-118.393867">
  <ele>-0.12</ele>
  <time>2026-09-01T01:12:08Z</time>
  <course>0.0</course>
  <speed>0.0</speed>
  <fix>3d</fix>
</trkpt>
<trkpt lat="33.810313" lon="-118.393867">
  <ele>-0.127</ele>
  <time>2026-09-01T01:12:08Z</time>
  <course>188.42</course>
  <speed>0.01</speed>
  <fix>3d</fix>
</trkpt>
<trkpt lat="33.810313" lon="-118.393867">
  <ele>-0.12</ele>
  <time>2026-09-01T01:12:08Z</time>
  <course>0.0</course>
  <speed>0.0</speed>
  <fix>3d</fix>
</trkpt>
<trkpt lat="33.810313" lon="-118.393867">
  <ele>-0.128</ele>
  <time>2026-09-01T01:12:08Z</time>
  <course>188.42</course>
  <speed>0.01</speed>
  <fix>3d</fix>
</trkpt>
<trkpt lat="33.810313" lon="-118.393867">
  <ele>-0.12</ele>
  <time>2026-09-01T01:12:08Z</time>
  <course>0.0</course>
  <speed>0.0</speed>
  <fix>3d</fix>
</trkpt>
<trkpt lat="33.810313" lon="-118.393867">
  <ele>-0.129</ele>
  <time>2026-09-01T01:12:08Z</time>
  <course>188.41</course>
  <speed>0.01</speed>
  <fix>3d</fix>
</trkpt>
<trkpt lat="33.810313" lon="-118.393867">
  <ele>-0.12</ele>
  <time>2026-09-01T01:12:08Z</time>
  <course>0.0</course>
  <speed>0.0</speed>
  <fix>3d</fix>
</trkpt>
<trkpt lat="33.810313" lon="-118.393867">
  <ele>-0.129</ele>
  <time>2026-09-01T01:12:08Z</time>
  <course>188.4</course>
  <speed>0.01</speed>
  <fix>3d</fix>
</trkpt>
<trkpt lat="33.810313" lon="-118.393867">
  <ele>-0.12</ele>
  <time>2026-09-01T01:12:08Z</time>
  <course>0.0</course>
  <speed>0.0</speed>
  <fix>3d</fix>
</trkpt>
<trkpt lat="33.810313" lon="-118.393867">
  <ele>-0.13</ele>
  <time>2026-09-01T01:12:08Z</time>
  <course>188.4</course>
  <speed>0.01414213562373095</speed>
  <fix>3d</fix>
</trkpt>
<trkpt lat="33.810313" lon="-118.393867">
  <ele>-0.12</ele>
  <time>2026-09-01T01:12:08Z</time>
  <course>0.0</course>
  <speed>0.0</speed>
  <fix>3d</fix>
</trkpt>
<trkpt lat="33.810313" lon="-118.393867">
  <ele>-0.13</ele>
  <time>2026-09-01T01:12:08Z</time>
  <course>188.39</course>
  <speed>0.01414213562373095</speed>
  <fix>3d</fix>
</trkpt>
<trkpt lat="33.810313" lon="-118.393867">
  <ele>-0.12</ele>
  <time>2026-09-01T01:12:08Z</time>
  <course>0.0</course>
  <speed>0.0</speed>
  <fix>3d</fix>
</trkpt>
<trkpt lat="33.810313" lon="-118.393867">
  <ele>-0.13</ele>
  <time>2026-09-01T01:12:08Z</time>
  <course>188.38</course>
  <speed>0.01414213562373095</speed>
  <fix>3d</fix>
</trkpt>
<trkpt lat="33.810313" lon="-118.393867">
  <ele>-0.12</ele>
  <time>2026-09-01T01:12:08Z</time>
  <course>0.0</course>
  <speed>0.0</speed>
  <fix>3d</fix>
</trkpt>
<trkpt lat="33.810313" lon="-118.393867">
  <ele>-0.129</ele>
  <time>2026-09-01T01:12:08Z</time>
  <course>188.37</course>
  <speed>0.01414213562373095</speed>
  <fix>3d</fix>
</trkpt>
<trkpt lat="33.810313" lon="-118.393867">
  <ele>-0.12</ele>
  <time>2026-09-01T01:12:08Z</time>
  <course>0.0</course>
  <speed>0.0</speed>
  <fix>3d</fix>
</trkpt>
<trkpt lat="33.810313" lon="-118.393867">
  <ele>-0.128</ele>
  <time>2026-09-01T01:12:08Z</time>
  <course>188.37</course>
  <speed>0.01414213562373095</speed>
  <fix>3d</fix>
</trkpt>
<trkpt lat="33.810313" lon="-118.393867">
  <ele>-0.12</ele>
  <time>2026-09-01T01:12:08Z</time>
  <course>0.0</course>
  <speed>0.0</speed>
  <fix>3d</fix>
</trkpt>
<trkpt lat="33.810313" lon="-118.393867">
  <ele>-0.126</ele>
  <time>2026-09-01T01:12:08Z</time>
  <course>188.36</course>
  <speed>0.01414213562373095</speed>
  <fix>3d</fix>
</trkpt>
<trkpt lat="33.810313" lon="-118.393867">
  <ele>-0.12</ele>
  <time>2026-09-01T01:12:08Z</time>
  <course>0.0</course>
  <speed>0.0</speed>
  <fix>3d</fix>
</trkpt>
<trkpt lat="33.810313" lon="-118.393867">
  <ele>-0.124</ele>
  <time>2026-09-01T01:12:08Z</time>
  <course>188.35</course>
  <speed>0.01414213562373095</speed>
  <fix>3d</fix>
</trkpt>
<trkpt lat="33.810313" lon="-118.393867">
  <ele>-0.12</ele>
  <time>2026-09-01T01:12:08Z</time>
  <course>0.0</course>
  <speed>0.0</speed>
  <fix>3d</fix>
</trkpt>
<trkpt lat="33.810313" lon="-118.393867">
  <ele>-0.122</ele>
  <time>2026-09-01T01:12:08Z</time>
  <course>188.34</course>
  <speed>0.01414213562373095</speed>
  <fix>3d</fix>
</trkpt>
<trkpt lat="33.810313" lon="-118.393867">
  <ele>-0.12</ele>
  <time>2026-09-01T01:12:08Z</time>
  <course>0.0</course>
  <speed>0.0</speed>
  <fix>3d</fix>
</trkpt>
<trkpt lat="33.810313" lon="-118.393867">
  <ele>-0.123</ele>
  <time>2026-09-01T01:12:08Z</time>
  <course>188.33</course>
  <speed>0.01414213562373095</speed>
  <fix>3d</fix>
</trkpt>
<trkpt lat="33.810313" lon="-118.393867">
  <ele>-0.12</ele>
  <time>2026-09-01T01:12:08Z</time>
  <course>0.0</course>
  <speed>0.0</speed>
  <fix>3d</fix>
</trkpt>
<trkpt lat="33.810313" lon="-118.393867">
  <ele>-0.125</ele>
  <time>2026-09-01T01:12:08Z</time>
  <course>188.33</course>
  <speed>0.01414213562373095</speed>
  <fix>3d</fix>
</trkpt>
<trkpt lat="33.810313" lon="-118.393867">
  <ele>-0.12</ele>
  <time>2026-09-01T01:12:08Z</time>
  <course>0.0</course>
  <speed>0.0</speed>
  <fix>3d</fix>
</trkpt>
<trkpt lat="33.810313" lon="-118.393867">
  <ele>-0.128</ele>
  <time>2026-09-01T01:12:08Z</time>
  <course>188.32</course>
  <speed>0.01414213562373095</speed>
  <fix>3d</fix>
</trkpt>
<trkpt lat="33.810313" lon="-118.393867">
  <ele>-0.12</ele>
  <time>2026-09-01T01:12:08Z</time>
  <course>0.0</course>
  <speed>0.0</speed>
  <fix>3d</fix>
</trkpt>
<trkpt lat="33.810313" lon="-118.393867">
  <ele>-0.132</ele>
  <time>2026-09-01T01:12:08Z</time>
  <course>188.31</course>
  <speed>0.01414213562373095</speed>
  <fix>3d</fix>
</trkpt>
<trkpt lat="33.810313" lon="-118.393867">
  <ele>-0.12</ele>
  <time>2026-09-01T01:12:08Z</time>
  <course>0.0</course>
  <speed>0.0</speed>
  <fix>3d</fix>
</trkpt>
<trkpt lat="33.810313" lon="-118.393867">
  <ele>-0.135</ele>
  <time>2026-09-01T01:12:08Z</time>
  <course>188.3</course>
  <speed>0.01414213562373095</speed>
  <fix>3d</fix>
</trkpt>
<trkpt lat="33.810313" lon="-118.393867">
  <ele>-0.12</ele>
  <time>2026-09-01T01:12:08Z</time>
  <course>0.0</course>
  <speed>0.0</speed>
  <fix>3d</fix>
</trkpt>
<trkpt lat="33.810313" lon="-118.393867">
  <ele>-0.135</ele>
  <time>2026-09-01T01:12:08Z</time>
  <course>188.3</course>
  <speed>0.01414213562373095</speed>
  <fix>3d</fix>
</trkpt>
<trkpt lat="33.810313" lon="-118.393867">
  <ele>-0.12</ele>
  <time>2026-09-01T01:12:08Z</time>
  <course>0.0</course>
  <speed>0.0</speed>
  <fix>3d</fix>
</trkpt>
<trkpt lat="33.810313" lon="-118.393867">
  <ele>-0.134</ele>
  <time>2026-09-01T01:12:08Z</time>
  <course>188.29</course>
  <speed>0.01414213562373095</speed>
  <fix>3d</fix>
</trkpt>
<trkpt lat="33.810313" lon="-118.393867">
  <ele>-0.12</ele>
  <time>2026-09-01T01:12:08Z</time>
  <course>0.0</course>
  <speed>0.0</speed>
  <fix>3d</fix>
</trkpt>
<trkpt lat="33.810313" lon="-118.393867">
  <ele>-0.132</ele>
  <time>2026-09-01T01:12:08Z</time>
  <course>188.28</course>
  <speed>0.01414213562373095</speed>
  <fix>3d</fix>
</trkpt>
<trkpt lat="33.810313" lon="-118.393867">
  <ele>-0.12</ele>
  <time>2026-09-01T01:12:08Z</time>
  <course>0.0</course>
  <speed>0.0</speed>
  <fix>3d</fix>
</trkpt>
<trkpt lat="33.810313" lon="-118.393867">
  <ele>-0.129</ele>
  <time>2026-09-01T01:12:08Z</time>
  <course>188.27</course>
  <speed>0.01414213562373095</speed>
  <fix>3d</fix>
</trkpt>
<trkpt lat="33.810313" lon="-118.393867">
  <ele>-0.12</ele>
  <time>2026-09-01T01:12:08Z</time>
  <course>0.0</course>
  <speed>0.0</speed>
  <fix>3d</fix>
</trkpt>
<trkpt lat="33.810313" lon="-118.393867">
  <ele>-0.127</ele>
  <time>2026-09-01T01:12:08Z</time>
  <course>188.26</course>
  <speed>0.01414213562373095</speed>
  <fix>3d</fix>
</trkpt>
<trkpt lat="33.810313" lon="-118.393867">
  <ele>-0.12</ele>
  <time>2026-09-01T01:12:08Z</time>
  <course>0.0</course>
  <speed>0.0</speed>
  <fix>3d</fix>
</trkpt>
<trkpt lat="33.810313" lon="-118.393867">
  <ele>-0.124</ele>
  <time>2026-09-01T01:12:08Z</time>
  <course>188.25</course>
  <speed>0.01414213562373095</speed>
  <fix>3d</fix>
</trkpt>
<trkpt lat="33.810313" lon="-118.393867">
  <ele>-0.12</ele>
  <time>2026-09-01T01:12:08Z</time>
  <course>0.0</course>
  <speed>0.0</speed>
  <fix>3d</fix>
</trkpt>
<trkpt lat="33.810313" lon="-118.393867">
  <ele>-0.123</ele>
  <time>2026-09-01T01:12:08Z</time>
  <course>188.25</course>
  <speed>0.01414213562373095</speed>
  <fix>3d</fix>
</trkpt>
<trkpt lat="33.810313" lon="-118.393867">
  <ele>-0.12</ele>
  <time>2026-09-01T01:12:08Z</time>
  <course>0.0</course>
  <speed>0.0</speed>
  <fix>3d</fix>
</trkpt>
<trkpt lat="33.810313" lon="-118.393867">
  <ele>-0.124</ele>
  <time>2026-09-01T01:12:08Z</time>
  <course>188.24</course>
  <speed>0.01414213562373095</speed>
  <fix>3d</fix>
</trkpt>
<trkpt lat="33.810313" lon="-118.393867">
  <ele>-0.12</ele>
  <time>2026-09-01T01:12:08Z</time>
  <course>0.0</course>
  <speed>0.0</speed>
  <fix>3d</fix>
</trkpt>
<trkpt lat="33.810313" lon="-118.393867">
  <ele>-0.126</ele>
  <time>2026-09-01T01:12:08Z</time>
  <course>188.23</course>
  <speed>0.01414213562373095</speed>
  <fix>3d</fix>
</trkpt>
<trkpt lat="33.810313" lon="-118.393867">
  <ele>-0.12</ele>
  <time>2026-09-01T01:12:08Z</time>
  <course>0.0</course>
  <speed>0.0</speed>
  <fix>3d</fix>
</trkpt>
<trkpt lat="33.810313" lon="-118.393867">
  <ele>-0.127</ele>
  <time>2026-09-01T01:12:08Z</time>
  <course>188.22</course>
  <speed>0.01414213562373095</speed>
  <fix>3d</fix>
</trkpt>
<trkpt lat="33.810313" lon="-118.393867">
  <ele>-0.12</ele>
  <time>2026-09-01T01:12:08Z</time>
  <course>0.0</course>
  <speed>0.0</speed>
  <fix>3d</fix>
</trkpt>
<trkpt lat="33.810313" lon="-118.393867">
  <ele>-0.129</ele>
  <time>2026-09-01T01:12:08Z</time>
  <course>188.21</course>
  <speed>0.01414213562373095</speed>
  <fix>3d</fix>
</trkpt>
<trkpt lat="33.810313" lon="-118.393867">
  <ele>-0.12</ele>
  <time>2026-09-01T01:12:08Z</time>
  <course>0.0</course>
  <speed>0.0</speed>
  <fix>3d</fix>
</trkpt>
<trkpt lat="33.810313" lon="-118.393867">
  <ele>-0.129</ele>
  <time>2026-09-01T01:12:08Z</time>
  <course>188.21</course>
  <speed>0.01414213562373095</speed>
  <fix>3d</fix>
</trkpt>
<trkpt lat="33.810313" lon="-118.393867">
  <ele>-0.12</ele>
  <time>2026-09-01T01:12:08Z</time>
  <course>0.0</course>
  <speed>0.0</speed>
  <fix>3d</fix>
</trkpt>
<trkpt lat="33.810313" lon="-118.393867">
  <ele>-0.129</ele>
  <time>2026-09-01T01:12:08Z</time>
  <course>188.2</course>
  <speed>0.01414213562373095</speed>
  <fix>3d</fix>
</trkpt>
<trkpt lat="33.810313" lon="-118.393867">
  <ele>-0.12</ele>
  <time>2026-09-01T01:12:08Z</time>
  <course>0.0</course>
  <speed>0.0</speed>
  <fix>3d</fix>
</trkpt>
<trkpt lat="33.810313" lon="-118.393867">
  <ele>-0.128</ele>
  <time>2026-09-01T01:12:08Z</time>
  <course>188.19</course>
  <speed>0.01414213562373095</speed>
  <fix>3d</fix>
</trkpt>
<trkpt lat="33.810313" lon="-118.393867">
  <ele>-0.12</ele>
  <time>2026-09-01T01:12:08Z</time>
  <course>0.0</course>
  <speed>0.0</speed>
  <fix>3d</fix>
</trkpt>
<trkpt lat="33.810313" lon="-118.393867">
  <ele>-0.128</ele>
  <time>2026-09-01T01:12:08Z</time>
  <course>188.18</course>
  <speed>0.01414213562373095</speed>
  <fix>3d</fix>
</trkpt>
<trkpt lat="33.810313" lon="-118.393867">
  <ele>-0.12</ele>
  <time>2026-09-01T01:12:08Z</time>
  <course>0.0</course>
  <speed>0.0</speed>
  <fix>3d</fix>
</trkpt>
<trkpt lat="33.810313" lon="-118.393867">
  <ele>-0.127</ele>
  <time>2026-09-01T01:12:08Z</time>
  <course>188.17</course>
  <speed>0.01414213562373095</speed>
  <fix>3d</fix>
</trkpt>
<trkpt lat="33.810313" lon="-118.393867">
  <ele>-0.12</ele>
  <time>2026-09-01T01:12:08Z</time>
  <course>0.0</course>
  <speed>0.0</speed>
  <fix>3d</fix>
</trkpt>
<trkpt lat="33.810313" lon="-118.393867">
  <ele>-0.127</ele>
  <time>2026-09-01T01:12:08Z</time>
  <course>188.16</course>
  <speed>0.01414213562373095</speed>
  <fix>3d</fix>
</trkpt>
<trkpt lat="33.810313" lon="-118.393867">
  <ele>-0.12</ele>
  <time>2026-09-01T01:12:08Z</time>
  <course>0.0</course>
  <speed>0.0</speed>
  <fix>3d</fix>
</trkpt>
<trkpt lat="33.810313" lon="-118.393867">
  <ele>-0.128</ele>
  <time>2026-09-01T01:12:08Z</time>
  <course>188.16</course>
  <speed>0.01414213562373095</speed>
  <fix>3d</fix>
</trkpt>
<trkpt lat="33.810313" lon="-118.393867">
  <ele>-0.12</ele>
  <time>2026-09-01T01:12:08Z</time>
  <course>0.0</course>
  <speed>0.0</speed>
  <fix>3d</fix>
</trkpt>
<trkpt lat="33.810313" lon="-118.393867">
  <ele>-0.129</ele>
  <time>2026-09-01T01:12:08Z</time>
  <course>188.15</course>
  <speed>0.01414213562373095</speed>
  <fix>3d</fix>
</trkpt>
<trkpt lat="33.810313" lon="-118.393867">
  <ele>-0.12</ele>
  <time>2026-09-01T01:12:08Z</time>
  <course>0.0</course>
  <speed>0.0</speed>
  <fix>3d</fix>
</trkpt>
<trkpt lat="33.810313" lon="-118.393867">
  <ele>-0.131</ele>
  <time>2026-09-01T01:12:08Z</time>
  <course>188.14</course>
  <speed>0.01414213562373095</speed>
  <fix>3d</fix>
</trkpt>
<trkpt lat="33.810313" lon="-118.393867">
  <ele>-0.12</ele>
  <time>2026-09-01T01:12:08Z</time>
  <course>0.0</course>
  <speed>0.0</speed>
  <fix>3d</fix>
</trkpt>
<trkpt lat="33.810313" lon="-118.393867">
  <ele>-0.133</ele>
  <time>2026-09-01T01:12:08Z</time>
  <course>188.13</course>
  <speed>0.01414213562373095</speed>
  <fix>3d</fix>
</trkpt>
<trkpt lat="33.810313" lon="-118.393867">
  <ele>-0.12</ele>
  <time>2026-09-01T01:12:08Z</time>
  <course>0.0</course>
  <speed>0.0</speed>
  <fix>3d</fix>
</trkpt>
<trkpt lat="33.810313" lon="-118.393867">
  <ele>-0.135</ele>
  <time>2026-09-01T01:12:08Z</time>
  <course>188.12</course>
  <speed>0.01414213562373095</speed>
  <fix>3d</fix>
</trkpt>
<trkpt lat="33.810313" lon="-118.393867">
  <ele>-0.12</ele>
  <time>2026-09-01T01:12:08Z</time>
  <course>0.0</course>
  <speed>0.0</speed>
  <fix>3d</fix>
</trkpt>
<trkpt lat="33.810313" lon="-118.393867">
  <ele>-0.136</ele>
  <time>2026-09-01T01:12:08Z</time>
  <course>188.12</course>
  <speed>0.01414213562373095</speed>
  <fix>3d</fix>
</trkpt>
<trkpt lat="33.810313" lon="-118.393867">
  <ele>-0.12</ele>
  <time>2026-09-01T01:12:08Z</time>
  <course>0.0</course>
  <speed>0.0</speed>
  <fix>3d</fix>
</trkpt>
<trkpt lat="33.810313" lon="-118.393867">
  <ele>-0.136</ele>
  <time>2026-09-01T01:12:08Z</time>
  <course>188.11</course>
  <speed>0.01414213562373095</speed>
  <fix>3d</fix>
</trkpt>
<trkpt lat="33.810313" lon="-118.393867">
  <ele>-0.12</ele>
  <time>2026-09-01T01:12:08Z</time>
  <course>0.0</course>
  <speed>0.0</speed>
  <fix>3d</fix>
</trkpt>
<trkpt lat="33.810313" lon="-118.393867">
  <ele>-0.136</ele>
  <time>2026-09-01T01:12:08Z</time>
  <course>188.1</course>
  <speed>0.01414213562373095</speed>
  <fix>3d</fix>
</trkpt>
<trkpt lat="33.810313" lon="-118.393867">
  <ele>-0.12</ele>
  <time>2026-09-01T01:12:08Z</time>
  <course>0.0</course>
  <speed>0.0</speed>
  <fix>3d</fix>
</trkpt>
<trkpt lat="33.810313" lon="-118.393867">
  <ele>-0.135</ele>
  <time>2026-09-01T01:12:08Z</time>
  <course>188.09</course>
  <speed>0.01414213562373095</speed>
  <fix>3d</fix>
</trkpt>
<trkpt lat="33.810313" lon="-118.393867">
  <ele>-0.12</ele>
  <time>2026-09-01T01:12:08Z</time>
  <course>0.0</course>
  <speed>0.0</speed>
  <fix>3d</fix>
</trkpt>
<trkpt lat="33.810313" lon="-118.393867">
  <ele>-0.134</ele>
  <time>2026-09-01T01:12:08Z</time>
  <course>188.08</course>
  <speed>0.01414213562373095</speed>
  <fix>3d</fix>
</trkpt>
<trkpt lat="33.810313" lon="-118.393867">
  <ele>-0.12</ele>
  <time>2026-09-01T01:12:08Z</time>
  <course>0.0</course>
  <speed>0.0</speed>
  <fix>3d</fix>
</trkpt>
<trkpt lat="33.810313" lon="-118.393867">
  <ele>-0.131</ele>
  <time>2026-09-01T01:12:08Z</time>
  <course>188.07</course>
  <speed>0.022360679774997897</speed>
  <fix>3d</fix>
</trkpt>
<trkpt lat="33.810313" lon="-118.393867">
  <ele>-0.12</ele>
  <time>2026-09-01T01:12:08Z</time>
  <course>0.0</course>
  <speed>0.0</speed>
  <fix>3d</fix>
</trkpt>
<trkpt lat="33.810313" lon="-118.393867">
  <ele>-0.128</ele>
  <time>2026-09-01T01:12:08Z</time>
  <course>188.07</course>
  <speed>0.022360679774997897</speed>
  <fix>3d</fix>
</trkpt>
<trkpt lat="33.810313" lon="-118.393867">
  <ele>-0.12</ele>
  <time>2026-09-01T01:12:08Z</time>
  <course>0.0</course>
  <speed>0.0</speed>
  <fix>3d</fix>
</trkpt>
<trkpt lat="33.810313" lon="-118.393867">
  <ele>-0.126</ele>
  <time>2026-09-01T01:12:08Z</time>
  <course>188.06</course>
  <speed>0.022360679774997897</speed>
  <fix>3d</fix>
</trkpt>
<trkpt lat="33.810313" lon="-118.393867">
  <ele>-0.12</ele>
  <time>2026-09-01T01:12:08Z</time>
  <course>0.0</course>
  <speed>0.0</speed>
  <fix>3d</fix>
</trkpt>
<trkpt lat="33.810313" lon="-118.393867">
  <ele>-0.126</ele>
  <time>2026-09-01T01:12:08Z</time>
  <course>188.05</course>
  <speed>0.022360679774997897</speed>
  <fix>3d</fix>
</trkpt>
<trkpt lat="33.810313" lon="-118.393867">
  <ele>-0.12</ele>
  <time>2026-09-01T01:12:08Z</time>
  <course>0.0</course>
  <speed>0.0</speed>
  <fix>3d</fix>
</trkpt>
<trkpt lat="33.810313" lon="-118.393867">
  <ele>-0.126</ele>
  <time>2026-09-01T01:12:08Z</time>
  <course>188.04</course>
  <speed>0.022360679774997897</speed>
  <fix>3d</fix>
</trkpt>
<trkpt lat="33.810313" lon="-118.393867">
  <ele>-0.12</ele>
  <time>2026-09-01T01:12:08Z</time>
  <course>0.0</course>
  <speed>0.0</speed>
  <fix>3d</fix>
</trkpt>
<trkpt lat="33.810313" lon="-118.393867">
  <ele>-0.127</ele>
  <time>2026-09-01T01:12:08Z</time>
  <course>188.03</course>
  <speed>0.022360679774997897</speed>
  <fix>3d</fix>
</trkpt>
<trkpt lat="33.810313" lon="-118.393867">
  <ele>-0.12</ele>
  <time>2026-09-01T01:12:08Z</time>
  <course>0.0</course>
  <speed>0.0</speed>
  <fix>3d</fix>
</trkpt>
<trkpt lat="33.810313" lon="-118.393867">
  <ele>-0.127</ele>
  <time>2026-09-01T01:12:08Z</time>
  <course>188.03</course>
  <speed>0.022360679774997897</speed>
  <fix>3d</fix>
</trkpt>
<trkpt lat="33.810313" lon="-118.393867">
  <ele>-0.12</ele>
  <time>2026-09-01T01:12:08Z</time>
  <course>0.0</course>
  <speed>0.0</speed>
  <fix>3d</fix>
</trkpt>
<trkpt lat="33.810313" lon="-118.393867">
  <ele>-0.127</ele>
  <time>2026-09-01T01:12:08Z</time>
  <course>188.02</course>
  <speed>0.022360679774997897</speed>
  <fix>3d</fix>
</trkpt>
<trkpt lat="33.810313" lon="-118.393867">
  <ele>-0.12</ele>
  <time>2026-09-01T01:12:08Z</time>
  <course>0.0</course>
  <speed>0.0</speed>
  <fix>3d</fix>
</trkpt>
<trkpt lat="33.810313" lon="-118.393867">
  <ele>-0.128</ele>
  <time>2026-09-01T01:12:08Z</time>
  <course>188.01</course>
  <speed>0.022360679774997897</speed>
  <fix>3d</fix>
</trkpt>
<trkpt lat="33.810313" lon="-118.393867">
  <ele>-0.12</ele>
  <time>2026-09-01T01:12:08Z</time>
  <course>0.0</course>
  <speed>0.0</speed>
  <fix>3d</fix>
</trkpt>
<trkpt lat="33.810313" lon="-118.393867">
  <ele>-0.128</ele>
  <time>2026-09-01T01:12:08Z</time>
  <course>188.0</course>
  <speed>0.022360679774997897</speed>
  <fix>3d</fix>
</trkpt>
<trkpt lat="33.810313" lon="-118.393867">
  <ele>-0.12</ele>
  <time>2026-09-01T01:12:08Z</time>
  <course>0.0</course>
  <speed>0.0</speed>
  <fix>3d</fix>
</trkpt>
<trkpt lat="33.810313" lon="-118.393867">
  <ele>-0.127</ele>
  <time>2026-09-01T01:12:08Z</time>
  <course>187.99</course>
  <speed>0.022360679774997897</speed>
  <fix>3d</fix>
</trkpt>
<trkpt lat="33.810313" lon="-118.393867">
  <ele>-0.12</ele>
  <time>2026-09-01T01:12:08Z</time>
  <course>0.0</course>
  <speed>0.0</speed>
  <fix>3d</fix>
</trkpt>
<trkpt lat="33.810313" lon="-118.393867">
  <ele>-0.126</ele>
  <time>2026-09-01T01:12:08Z</time>
  <course>187.98</course>
  <speed>0.022360679774997897</speed>
  <fix>3d</fix>
</trkpt>
<trkpt lat="33.810313" lon="-118.393867">
  <ele>-0.12</ele>
  <time>2026-09-01T01:12:08Z</time>
  <course>0.0</course>
  <speed>0.0</speed>
  <fix>3d</fix>
</trkpt>
<trkpt lat="33.810313" lon="-118.393867">
  <ele>-0.123</ele>
  <time>2026-09-01T01:12:08Z</time>
  <course>187.98</course>
  <speed>0.022360679774997897</speed>
  <fix>3d</fix>
</trkpt>
<trkpt lat="33.810313" lon="-118.393867">
  <ele>-0.12</ele>
  <time>2026-09-01T01:12:08Z</time>
  <course>0.0</course>
  <speed>0.0</speed>
  <fix>3d</fix>
</trkpt>
<trkpt lat="33.810313" lon="-118.393867">
  <ele>-0.121</ele>
  <time>2026-09-01T01:12:08Z</time>
  <course>187.97</course>
  <speed>0.022360679774997897</speed>
  <fix>3d</fix>
</trkpt>
<trkpt lat="33.810313" lon="-118.393867">
  <ele>-0.12</ele>
  <time>2026-09-01T01:12:08Z</time>
  <course>0.0</course>
  <speed>0.0</speed>
  <fix>3d</fix>
</trkpt>
<trkpt lat="33.810313" lon="-118.393867">
  <ele>-0.12</ele>
  <time>2026-09-01T01:12:08Z</time>
  <course>187.96</course>
  <speed>0.022360679774997897</speed>
  <fix>3d</fix>
</trkpt>
<trkpt lat="33.810313" lon="-118.393867">
  <ele>-0.12</ele>
  <time>2026-09-01T01:12:08Z</time>
  <course>0.0</course>
  <speed>0.0</speed>
  <fix>3d</fix>
</trkpt>
<trkpt lat="33.810313" lon="-118.393867">
  <ele>-0.12</ele>
  <time>2026-09-01T01:12:08Z</time>
  <course>187.95</course>
  <speed>0.022360679774997897</speed>
  <fix>3d</fix>
</trkpt>
<trkpt lat="33.810313" lon="-118.393867">
  <ele>-0.12</ele>
  <time>2026-09-01T01:12:08Z</time>
  <course>0.0</course>
  <speed>0.0</speed>
  <fix>3d</fix>
</trkpt>
<trkpt lat="33.810313" lon="-118.393867">
  <ele>-0.122</ele>
  <time>2026-09-01T01:12:08Z</time>
  <course>187.94</course>
  <speed>0.022360679774997897</speed>
  <fix>3d</fix>
</trkpt>
<trkpt lat="33.810313" lon="-118.393867">
  <ele>-0.12</ele>
  <time>2026-09-01T01:12:08Z</time>
  <course>0.0</course>
  <speed>0.0</speed>
  <fix>3d</fix>
</trkpt>
<trkpt lat="33.810313" lon="-118.393867">
  <ele>-0.125</ele>
  <time>2026-09-01T01:12:08Z</time>
  <course>187.94</course>
  <speed>0.022360679774997897</speed>
  <fix>3d</fix>
</trkpt>
<trkpt lat="33.810313" lon="-118.393867">
  <ele>-0.12</ele>
  <time>2026-09-01T01:12:08Z</time>
  <course>0.0</course>
  <speed>0.0</speed>
  <fix>3d</fix>
</trkpt>
<trkpt lat="33.810313" lon="-118.393867">
  <ele>-0.129</ele>
  <time>2026-09-01T01:12:08Z</time>
  <course>187.93</course>
  <speed>0.022360679774997897</speed>
  <fix>3d</fix>
</trkpt>
<trkpt lat="33.810313" lon="-118.393867">
  <ele>-0.12</ele>
  <time>2026-09-01T01:12:08Z</time>
  <course>0.0</course>
  <speed>0.0</speed>
  <fix>3d</fix>
</trkpt>
<trkpt lat="33.810313" lon="-118.393867">
  <ele>-0.131</ele>
  <time>2026-09-01T01:12:08Z</time>
  <course>187.92</course>
  <speed>0.022360679774997897</speed>
  <fix>3d</fix>
</trkpt>
<trkpt lat="33.810313" lon="-118.393867">
  <ele>-0.12</ele>
  <time>2026-09-01T01:12:08Z</time>
  <course>0.0</course>
  <speed>0.0</speed>
  <fix>3d</fix>
</trkpt>
<trkpt lat="33.810313" lon="-118.393867">
  <ele>-0.132</ele>
  <time>2026-09-01T01:12:08Z</time>
  <course>187.91</course>
  <speed>0.022360679774997897</speed>
  <fix>3d</fix>
</trkpt>
<trkpt lat="33.810313" lon="-118.393867">
  <ele>-0.12</ele>
  <time>2026-09-01T01:12:08Z</time>
  <course>0.0</course>
  <speed>0.0</speed>
  <fix>3d</fix>
</trkpt>
<trkpt lat="33.810313" lon="-118.393867">
  <ele>-0.132</ele>
  <time>2026-09-01T01:12:08Z</time>
  <course>187.9</course>
  <speed>0.022360679774997897</speed>
  <fix>3d</fix>
</trkpt>
<trkpt lat="33.810313" lon="-118.393867">
  <ele>-0.12</ele>
  <time>2026-09-01T01:12:08Z</time>
  <course>0.0</course>
  <speed>0.0</speed>
  <fix>3d</fix>
</trkpt>
<trkpt lat="33.810313" lon="-118.393867">
  <ele>-0.132</ele>
  <time>2026-09-01T01:12:08Z</time>
  <course>187.9</course>
  <speed>0.022360679774997897</speed>
  <fix>3d</fix>
</trkpt>
<trkpt lat="33.810313" lon="-118.393867">
  <ele>-0.12</ele>
  <time>2026-09-01T01:12:08Z</time>
  <course>0.0</course>
  <speed>0.0</speed>
  <fix>3d</fix>
</trkpt>
<trkpt lat="33.810313" lon="-118.393867">
  <ele>-0.13</ele>
  <time>2026-09-01T01:12:08Z</time>
  <course>187.89</course>
  <speed>0.022360679774997897</speed>
  <fix>3d</fix>
</trkpt>
<trkpt lat="33.810313" lon="-118.393867">
  <ele>-0.12</ele>
  <time>2026-09-01T01:12:08Z</time>
  <course>0.0</course>
  <speed>0.0</speed>
  <fix>3d</fix>
</trkpt>
<trkpt lat="33.810313" lon="-118.393867">
  <ele>-0.127</ele>
  <time>2026-09-01T01:12:08Z</time>
  <course>187.88</course>
  <speed>0.022360679774997897</speed>
  <fix>3d</fix>
</trkpt>
<trkpt lat="33.810313" lon="-118.393867">
  <ele>-0.12</ele>
  <time>2026-09-01T01:12:08Z</time>
  <course>0.0</course>
  <speed>0.0</speed>
  <fix>3d</fix>
</trkpt>
<trkpt lat="33.810313" lon="-118.393867">
  <ele>-0.123</ele>
  <time>2026-09-01T01:12:08Z</time>
  <course>187.87</course>
  <speed>0.022360679774997897</speed>
  <fix>3d</fix>
</trkpt>
<trkpt lat="33.810313" lon="-118.393867">
  <ele>-0.12</ele>
  <time>2026-09-01T01:12:08Z</time>
  <course>0.0</course>
  <speed>0.0</speed>
  <fix>3d</fix>
</trkpt>
<trkpt lat="33.810313" lon="-118.393867">
  <ele>-0.121</ele>
  <time>2026-09-01T01:12:08Z</time>
  <course>187.87</course>
  <speed>0.022360679774997897</speed>
  <fix>3d</fix>
</trkpt>
<trkpt lat="33.810313" lon="-118.393867">
  <ele>-0.12</ele>
  <time>2026-09-01T01:12:08Z</time>
  <course>0.0</course>
  <speed>0.0</speed>
  <fix>3d</fix>
</trkpt>
<trkpt lat="33.810313" lon="-118.393867">
  <ele>-0.121</ele>
  <time>2026-09-01T01:12:08Z</time>
  <course>187.86</course>
  <speed>0.022360679774997897</speed>
  <fix>3d</fix>
</trkpt>
<trkpt lat="33.810313" lon="-118.393867">
  <ele>-0.12</ele>
  <time>2026-09-01T01:12:08Z</time>
  <course>0.0</course>
  <speed>0.0</speed>
  <fix>3d</fix>
</trkpt>
<trkpt lat="33.810313" lon="-118.393867">
  <ele>-0.123</ele>
  <time>2026-09-01T01:12:08Z</time>
  <course>187.85</course>
  <speed>0.022360679774997897</speed>
  <fix>3d</fix>
</trkpt>
<trkpt lat="33.810313" lon="-118.393867">
  <ele>-0.12</ele>
  <time>2026-09-01T01:12:08Z</time>
  <course>0.0</course>
  <speed>0.0</speed>
  <fix>3d</fix>
</trkpt>
<trkpt lat="33.810313" lon="-118.393867">
  <ele>-0.124</ele>
  <time>2026-09-01T01:12:08Z</time>
  <course>187.84</course>
  <speed>0.022360679774997897</speed>
  <fix>3d</fix>
</trkpt>
<trkpt lat="33.810313" lon="-118.393867">
  <ele>-0.12</ele>
  <time>2026-09-01T01:12:08Z</time>
  <course>0.0</course>
  <speed>0.0</speed>
  <fix>3d</fix>
</trkpt>
<trkpt lat="33.810313" lon="-118.393867">
  <ele>-0.126</ele>
  <time>2026-09-01T01:12:08Z</time>
  <course>187.83</course>
  <speed>0.022360679774997897</speed>
  <fix>3d</fix>
</trkpt>
<trkpt lat="33.810313" lon="-118.393867">
  <ele>-0.12</ele>
  <time>2026-09-01T01:12:08Z</time>
  <course>0.0</course>
  <speed>0.0</speed>
  <fix>3d</fix>
</trkpt>
<trkpt lat="33.810313" lon="-118.393867">
  <ele>-0.127</ele>
  <time>2026-09-01T01:12:08Z</time>
  <course>187.83</course>
  <speed>0.022360679774997897</speed>
  <fix>3d</fix>
</trkpt>
<trkpt lat="33.810313" lon="-118.393867">
  <ele>-0.12</ele>
  <time>2026-09-01T01:12:08Z</time>
  <course>0.0</course>
  <speed>0.0</speed>
  <fix>3d</fix>
</trkpt>
<trkpt lat="33.810313" lon="-118.393867">
  <ele>-0.127</ele>
  <time>2026-09-01T01:12:08Z</time>
  <course>187.82</course>
  <speed>0.022360679774997897</speed>
  <fix>3d</fix>
</trkpt>
<trkpt lat="33.810313" lon="-118.393867">
  <ele>-0.12</ele>
  <time>2026-09-01T01:12:08Z</time>
  <course>0.0</course>
  <speed>0.0</speed>
  <fix>3d</fix>
</trkpt>
<trkpt lat="33.810313" lon="-118.393867">
  <ele>-0.127</ele>
  <time>2026-09-01T01:12:08Z</time>
  <course>187.81</course>
  <speed>0.022360679774997897</speed>
  <fix>3d</fix>
</trkpt>
<trkpt lat="33.810313" lon="-118.393867">
  <ele>-0.12</ele>
  <time>2026-09-01T01:12:08Z</time>
  <course>0.0</course>
  <speed>0.0</speed>
  <fix>3d</fix>
</trkpt>
<trkpt lat="33.810313" lon="-118.393867">
  <ele>-0.126</ele>
  <time>2026-09-01T01:12:08Z</time>
  <course>187.8</course>
  <speed>0.022360679774997897</speed>
  <fix>3d</fix>
</trkpt>
<trkpt lat="33.810313" lon="-118.393867">
  <ele>-0.12</ele>
  <time>2026-09-01T01:12:08Z</time>
  <course>0.0</course>
  <speed>0.0</speed>
  <fix>3d</fix>
</trkpt>
<trkpt lat="33.810313" lon="-118.393867">
  <ele>-0.124</ele>
  <time>2026-09-01T01:12:08Z</time>
  <course>187.8</course>
  <speed>0.022360679774997897</speed>
  <fix>3d</fix>
</trkpt>
<trkpt lat="33.810313" lon="-118.393867">
  <ele>-0.12</ele>
  <time>2026-09-01T01:12:08Z</time>
  <course>0.0</course>
  <speed>0.0</speed>
  <fix>3d</fix>
</trkpt>
<trkpt lat="33.810313" lon="-118.393867">
  <ele>-0.121</ele>
  <time>2026-09-01T01:12:08Z</time>
  <course>187.79</course>
  <speed>0.022360679774997897</speed>
  <fix>3d</fix>
</trkpt>
<trkpt lat="33.810313" lon="-118.393867">
  <ele>-0.12</ele>
  <time>2026-09-01T01:12:08Z</time>
  <course>0.0</course>
  <speed>0.0</speed>
  <fix>3d</fix>
</trkpt>
<trkpt lat="33.810313" lon="-118.393867">
  <ele>-0.119</ele>
  <time>2026-09-01T01:12:08Z</time>
  <course>187.78</course>
  <speed>0.022360679774997897</speed>
  <fix>3d</fix>
</trkpt>
<trkpt lat="33.810313" lon="-118.393867">
  <ele>-0.12</ele>
  <time>2026-09-01T01:12:08Z</time>
  <course>0.0</course>
  <speed>0.0</speed>
  <fix>3d</fix>
</trkpt>
<trkpt lat="33.810313" lon="-118.393867">
  <ele>-0.118</ele>
  <time>2026-09-01T01:12:08Z</time>
  <course>187.77</course>
  <speed>0.022360679774997897</speed>
  <fix>3d</fix>
</trkpt>
<trkpt lat="33.810313" lon="-118.393867">
  <ele>-0.12</ele>
  <time>2026-09-01T01:12:08Z</time>
  <course>0.0</course>
  <speed>0.0</speed>
  <fix>3d</fix>
</trkpt>
<trkpt lat="33.810313" lon="-118.393867">
  <ele>-0.118</ele>
  <time>2026-09-01T01:12:08Z</time>
  <course>187.76</course>
  <speed>0.022360679774997897</speed>
  <fix>3d</fix>
</trkpt>
<trkpt lat="33.810313" lon="-118.393867">
  <ele>-0.12</ele>
  <time>2026-09-01T01:12:08Z</time>
  <course>0.0</course>
  <speed>0.0</speed>
  <fix>3d</fix>
</trkpt>
<trkpt lat="33.810313" lon="-118.393867">
  <ele>-0.119</ele>
  <time>2026-09-01T01:12:08Z</time>
  <course>187.76</course>
  <speed>0.022360679774997897</speed>
  <fix>3d</fix>
</trkpt>
<trkpt lat="33.810313" lon="-118.393867">
  <ele>-0.12</ele>
  <time>2026-09-01T01:12:08Z</time>
  <course>0.0</course>
  <speed>0.0</speed>
  <fix>3d</fix>
</trkpt>
<trkpt lat="33.810313" lon="-118.393867">
  <ele>-0.12</ele>
  <time>2026-09-01T01:12:08Z</time>
  <course>187.75</course>
  <speed>0.022360679774997897</speed>
  <fix>3d</fix>
</trkpt>
<trkpt lat="33.810313" lon="-118.393867">
  <ele>-0.12</ele>
  <time>2026-09-01T01:12:08Z</time>
  <course>0.0</course>
  <speed>0.0</speed>
  <fix>3d</fix>
</trkpt>
<trkpt lat="33.810313" lon="-118.393867">
  <ele>-0.12</ele>
  <time>2026-09-01T01:12:08Z</time>
  <course>187.74</course>
  <speed>0.0282842712474619</speed>
  <fix>3d</fix>
</trkpt>
<trkpt lat="33.810313" lon="-118.393867">
  <ele>-0.12</ele>
  <time>2026-09-01T01:12:08Z</time>
  <course>0.0</course>
  <speed>0.0</speed>
  <fix>3d</fix>
</trkpt>
<trkpt lat="33.810313" lon="-118.393867">
  <ele>-0.12</ele>
  <time>2026-09-01T01:12:08Z</time>
  <course>187.74</course>
  <speed>0.0282842712474619</speed>
  <fix>3d</fix>
</trkpt>
<trkpt lat="33.810313" lon="-118.393867">
  <ele>-0.12</ele>
  <time>2026-09-01T01:12:08Z</time>
  <course>0.0</course>
  <speed>0.0</speed>
  <fix>3d</fix>
</trkpt>
<trkpt lat="33.810313" lon="-118.393867">
  <ele>-0.119</ele>
  <time>2026-09-01T01:12:08Z</time>
  <course>187.73</course>
  <speed>0.0282842712474619</speed>
  <fix>3d</fix>
</trkpt>
<trkpt lat="33.810313" lon="-118.393867">
  <ele>-0.12</ele>
  <time>2026-09-01T01:12:08Z</time>
  <course>0.0</course>
  <speed>0.0</speed>
  <fix>3d</fix>
</trkpt>
<trkpt lat="33.810313" lon="-118.393867">
  <ele>-0.118</ele>
  <time>2026-09-01T01:12:08Z</time>
  <course>187.72</course>
  <speed>0.0282842712474619</speed>
  <fix>3d</fix>
</trkpt>
<trkpt lat="33.810313" lon="-118.393867">
  <ele>-0.12</ele>
  <time>2026-09-01T01:12:08Z</time>
  <course>0.0</course>
  <speed>0.0</speed>
  <fix>3d</fix>
</trkpt>
<trkpt lat="33.810313" lon="-118.393867">
  <ele>-0.116</ele>
  <time>2026-09-01T01:12:08Z</time>
  <course>187.71</course>
  <speed>0.0282842712474619</speed>
  <fix>3d</fix>
</trkpt>
<trkpt lat="33.810313" lon="-118.393867">
  <ele>-0.12</ele>
  <time>2026-09-01T01:12:08Z</time>
  <course>0.0</course>
  <speed>0.0</speed>
  <fix>3d</fix>
</trkpt>
<trkpt lat="33.810313" lon="-118.393867">
  <ele>-0.113</ele>
  <time>2026-09-01T01:12:08Z</time>
  <course>187.71</course>
  <speed>0.0282842712474619</speed>
  <fix>3d</fix>
</trkpt>
<trkpt lat="33.810313" lon="-118.393867">
  <ele>-0.12</ele>
  <time>2026-09-01T01:12:08Z</time>
  <course>0.0</course>
  <speed>0.0</speed>
  <fix>3d</fix>
</trkpt>
<trkpt lat="33.810313" lon="-118.393867">
  <ele>-0.112</ele>
  <time>2026-09-01T01:12:08Z</time>
  <course>187.7</course>
  <speed>0.0282842712474619</speed>
  <fix>3d</fix>
</trkpt>
<trkpt lat="33.810313" lon="-118.393867">
  <ele>-0.12</ele>
  <time>2026-09-01T01:12:08Z</time>
  <course>0.0</course>
  <speed>0.0</speed>
  <fix>3d</fix>
</trkpt>
<trkpt lat="33.810313" lon="-118.393867">
  <ele>-0.113</ele>
  <time>2026-09-01T01:12:08Z</time>
  <course>187.69</course>
  <speed>0.0282842712474619</speed>
  <fix>3d</fix>
</trkpt>
<trkpt lat="33.810313" lon="-118.393867">
  <ele>-0.12</ele>
  <time>2026-09-01T01:12:08Z</time>
  <course>0.0</course>
  <speed>0.0</speed>
  <fix>3d</fix>
</trkpt>
<trkpt lat="33.810313" lon="-118.393867">
  <ele>-0.115</ele>
  <time>2026-09-01T01:12:08Z</time>
  <course>187.68</course>
  <speed>0.0282842712474619</speed>
  <fix>3d</fix>
</trkpt>
<trkpt lat="33.810313" lon="-118.393867">
  <ele>-0.12</ele>
  <time>2026-09-01T01:12:08Z</time>
  <course>0.0</course>
  <speed>0.0</speed>
  <fix>3d</fix>
</trkpt>
<trkpt lat="33.810313" lon="-118.393867">
  <ele>-0.119</ele>
  <time>2026-09-01T01:12:08Z</time>
  <course>187.68</course>
  <speed>0.0282842712474619</speed>
  <fix>3d</fix>
</trkpt>
<trkpt lat="33.810313" lon="-118.393867">
  <ele>-0.12</ele>
  <time>2026-09-01T01:12:08Z</time>
  <course>0.0</course>
  <speed>0.0</speed>
  <fix>3d</fix>
</trkpt>
<trkpt lat="33.810313" lon="-118.393867">
  <ele>-0.124</ele>
  <time>2026-09-01T01:12:08Z</time>
  <course>187.67</course>
  <speed>0.0282842712474619</speed>
  <fix>3d</fix>
</trkpt>
<trkpt lat="33.810313" lon="-118.393867">
  <ele>-0.12</ele>
  <time>2026-09-01T01:12:08Z</time>
  <course>0.0</course>
  <speed>0.0</speed>
  <fix>3d</fix>
</trkpt>
<trkpt lat="33.810313" lon="-118.393867">
  <ele>-0.129</ele>
  <time>2026-09-01T01:12:08Z</time>
  <course>187.66</course>
  <speed>0.0282842712474619</speed>
  <fix>3d</fix>
</trkpt>
<trkpt lat="33.810313" lon="-118.393867">
  <ele>-0.12</ele>
  <time>2026-09-01T01:12:08Z</time>
  <course>0.0</course>
  <speed>0.0</speed>
  <fix>3d</fix>
</trkpt>
<trkpt lat="33.810313" lon="-118.393867">
  <ele>-0.133</ele>
  <time>2026-09-01T01:12:08Z</time>
  <course>187.66</course>
  <speed>0.0282842712474619</speed>
  <fix>3d</fix>
</trkpt>
<trkpt lat="33.810313" lon="-118.393867">
  <ele>-0.12</ele>
  <time>2026-09-01T01:12:08Z</time>
  <course>0.0</course>
  <speed>0.0</speed>
  <fix>3d</fix>
</trkpt>
<trkpt lat="33.810313" lon="-118.393867">
  <ele>-0.135</ele>
  <time>2026-09-01T01:12:08Z</time>
  <course>187.65</course>
  <speed>0.0282842712474619</speed>
  <fix>3d</fix>
</trkpt>
<trkpt lat="33.810313" lon="-118.393867">
  <ele>-0.12</ele>
  <time>2026-09-01T01:12:08Z</time>
  <course>0.0</course>
  <speed>0.0</speed>
  <fix>3d</fix>
</trkpt>
<trkpt lat="33.810313" lon="-118.393867">
  <ele>-0.135</ele>
  <time>2026-09-01T01:12:08Z</time>
  <course>187.64</course>
  <speed>0.0282842712474619</speed>
  <fix>3d</fix>
</trkpt>
<trkpt lat="33.810313" lon="-118.393867">
  <ele>-0.12</ele>
  <time>2026-09-01T01:12:08Z</time>
  <course>0.0</course>
  <speed>0.0</speed>
  <fix>3d</fix>
</trkpt>
<trkpt lat="33.810313" lon="-118.393867">
  <ele>-0.135</ele>
  <time>2026-09-01T01:12:08Z</time>
  <course>187.64</course>
  <speed>0.0282842712474619</speed>
  <fix>3d</fix>
</trkpt>
<trkpt lat="33.810313" lon="-118.393867">
  <ele>-0.12</ele>
  <time>2026-09-01T01:12:08Z</time>
  <course>0.0</course>
  <speed>0.0</speed>
  <fix>3d</fix>
</trkpt>
<trkpt lat="33.810313" lon="-118.393867">
  <ele>-0.133</ele>
  <time>2026-09-01T01:12:08Z</time>
  <course>187.63</course>
  <speed>0.0282842712474619</speed>
  <fix>3d</fix>
</trkpt>
<trkpt lat="33.810313" lon="-118.393867">
  <ele>-0.12</ele>
  <time>2026-09-01T01:12:08Z</time>
  <course>0.0</course>
  <speed>0.0</speed>
  <fix>3d</fix>
</trkpt>
<trkpt lat="33.810313" lon="-118.393867">
  <ele>-0.132</ele>
  <time>2026-09-01T01:12:08Z</time>
  <course>187.63</course>
  <speed>0.03605551275463989</speed>
  <fix>3d</fix>
</trkpt>
<trkpt lat="33.810313" lon="-118.393867">
  <ele>-0.12</ele>
  <time>2026-09-01T01:12:08Z</time>
  <course>0.0</course>
  <speed>0.0</speed>
  <fix>3d</fix>
</trkpt>
<trkpt lat="33.810313" lon="-118.393867">
  <ele>-0.132</ele>
  <time>2026-09-01T01:12:08Z</time>
  <course>187.62</course>
  <speed>0.03605551275463989</speed>
  <fix>3d</fix>
</trkpt>
<trkpt lat="33.810313" lon="-118.393867">
  <ele>-0.12</ele>
  <time>2026-09-01T01:12:08Z</time>
  <course>0.0</course>
  <speed>0.0</speed>
  <fix>3d</fix>
</trkpt>
<trkpt lat="33.810313" lon="-118.393867">
  <ele>-0.133</ele>
  <time>2026-09-01T01:12:08Z</time>
  <course>187.61</course>
  <speed>0.03605551275463989</speed>
  <fix>3d</fix>
</trkpt>
<trkpt lat="33.810313" lon="-118.393867">
  <ele>-0.12</ele>
  <time>2026-09-01T01:12:08Z</time>
  <course>0.0</course>
  <speed>0.0</speed>
  <fix>3d</fix>
</trkpt>
<trkpt lat="33.810313" lon="-118.393867">
  <ele>-0.134</ele>
  <time>2026-09-01T01:12:08Z</time>
  <course>187.6</course>
  <speed>0.03605551275463989</speed>
  <fix>3d</fix>
</trkpt>
<trkpt lat="33.810313" lon="-118.393867">
  <ele>-0.12</ele>
  <time>2026-09-01T01:12:08Z</time>
  <course>0.0</course>
  <speed>0.0</speed>
  <fix>3d</fix>
</trkpt>
<trkpt lat="33.810313" lon="-118.393867">
  <ele>-0.134</ele>
  <time>2026-09-01T01:12:08Z</time>
  <course>187.6</course>
  <speed>0.03605551275463989</speed>
  <fix>3d</fix>
</trkpt>
<trkpt lat="33.810313" lon="-118.393867">
  <ele>-0.12</ele>
  <time>2026-09-01T01:12:08Z</time>
  <course>0.0</course>
  <speed>0.0</speed>
  <fix>3d</fix>
</trkpt>
<trkpt lat="33.810313" lon="-118.393867">
  <ele>-0.134</ele>
  <time>2026-09-01T01:12:08Z</time>
  <course>187.59</course>
  <speed>0.03605551275463989</speed>
  <fix>3d</fix>
</trkpt>
<trkpt lat="33.810313" lon="-118.393867">
  <ele>-0.12</ele>
  <time>2026-09-01T01:12:08Z</time>
  <course>0.0</course>
  <speed>0.0</speed>
  <fix>3d</fix>
</trkpt>
<trkpt lat="33.810313" lon="-118.393867">
  <ele>-0.132</ele>
  <time>2026-09-01T01:12:08Z</time>
  <course>187.58</course>
  <speed>0.03605551275463989</speed>
  <fix>3d</fix>
</trkpt>
<trkpt lat="33.810313" lon="-118.393867">
  <ele>-0.12</ele>
  <time>2026-09-01T01:12:08Z</time>
  <course>0.0</course>
  <speed>0.0</speed>
  <fix>3d</fix>
</trkpt>
<trkpt lat="33.810313" lon="-118.393867">
  <ele>-0.129</ele>
  <time>2026-09-01T01:12:08Z</time>
  <course>187.58</course>
  <speed>0.03605551275463989</speed>
  <fix>3d</fix>
</trkpt>
<trkpt lat="33.810313" lon="-118.393867">
  <ele>-0.12</ele>
  <time>2026-09-01T01:12:08Z</time>
  <course>0.0</course>
  <speed>0.0</speed>
  <fix>3d</fix>
</trkpt>
<trkpt lat="33.810313" lon="-118.393867">
  <ele>-0.127</ele>
  <time>2026-09-01T01:12:08Z</time>
  <course>187.57</course>
  <speed>0.03605551275463989</speed>
  <fix>3d</fix>
</trkpt>
<trkpt lat="33.810313" lon="-118.393867">
  <ele>-0.12</ele>
  <time>2026-09-01T01:12:08Z</time>
  <course>0.0</course>
  <speed>0.0</speed>
  <fix>3d</fix>
</trkpt>
<trkpt lat="33.810313" lon="-118.393867">
  <ele>-0.125</ele>
  <time>2026-09-01T01:12:08Z</time>
  <course>187.56</course>
  <speed>0.03605551275463989</speed>
  <fix>3d</fix>
</trkpt>
<trkpt lat="33.810313" lon="-118.393867">
  <ele>-0.12</ele>
  <time>2026-09-01T01:12:08Z</time>
  <course>0.0</course>
  <speed>0.0</speed>
  <fix>3d</fix>
</trkpt>
<trkpt lat="33.810313" lon="-118.393867">
  <ele>-0.122</ele>
  <time>2026-09-01T01:12:08Z</time>
  <course>187.56</course>
  <speed>0.03605551275463989</speed>
  <fix>3d</fix>
</trkpt>
<trkpt lat="33.810313" lon="-118.393867">
  <ele>-0.12</ele>
  <time>2026-09-01T01:12:08Z</time>
  <course>0.0</course>
  <speed>0.0</speed>
  <fix>3d</fix>
</trkpt>
<trkpt lat="33.810313" lon="-118.393867">
  <ele>-0.119</ele>
  <time>2026-09-01T01:12:08Z</time>
  <course>187.55</course>
  <speed>0.03605551275463989</speed>
  <fix>3d</fix>
</trkpt>
<trkpt lat="33.810313" lon="-118.393867">
  <ele>-0.12</ele>
  <time>2026-09-01T01:12:08Z</time>
  <course>0.0</course>
  <speed>0.0</speed>
  <fix>3d</fix>
</trkpt>
<trkpt lat="33.810313" lon="-118.393867">
  <ele>-0.117</ele>
  <time>2026-09-01T01:12:09Z</time>
  <course>187.54</course>
  <speed>0.03605551275463989</speed>
  <fix>3d</fix>
</trkpt>
<trkpt lat="33.810313" lon="-118.393867">
  <ele>-0.12</ele>
  <time>2026-09-01T01:12:09Z</time>
  <course>0.0</course>
  <speed>0.0</speed>
  <fix>3d</fix>
</trkpt>
<trkpt lat="33.810313" lon="-118.393867">
  <ele>-0.117</ele>
  <time>2026-09-01T01:12:09Z</time>
  <course>187.54</course>
  <speed>0.03605551275463989</speed>
  <fix>3d</fix>
</trkpt>
<trkpt lat="33.810313" lon="-118.393867">
  <ele>-0.12</ele>
  <time>2026-09-01T01:12:09Z</time>
  <course>0.0</course>
  <speed>0.0</speed>
  <fix>3d</fix>
</trkpt>
<trkpt lat="33.810313" lon="-118.393867">
  <ele>-0.118</ele>
  <time>2026-09-01T01:12:09Z</time>
  <course>187.53</course>
  <speed>0.03605551275463989</speed>
  <fix>3d</fix>
</trkpt>
<trkpt lat="33.810313" lon="-118.393867">
  <ele>-0.12</ele>
  <time>2026-09-01T01:12:09Z</time>
  <course>0.0</course>
  <speed>0.0</speed>
  <fix>3d</fix>
</trkpt>
<trkpt lat="33.810313" lon="-118.393867">
  <ele>-0.119</ele>
  <time>2026-09-01T01:12:09Z</time>
  <course>187.52</course>
  <speed>0.03605551275463989</speed>
  <fix>3d</fix>
</trkpt>
<trkpt lat="33.810313" lon="-118.393867">
  <ele>-0.12</ele>
  <time>2026-09-01T01:12:09Z</time>
  <course>0.0</course>
  <speed>0.0</speed>
  <fix>3d</fix>
</trkpt>
<trkpt lat="33.810313" lon="-118.393867">
  <ele>-0.12</ele>
  <time>2026-09-01T01:12:09Z</time>
  <course>187.52</course>
  <speed>0.03605551275463989</speed>
  <fix>3d</fix>
</trkpt>
<trkpt lat="33.810313" lon="-118.393867">
  <ele>-0.12</ele>
  <time>2026-09-01T01:12:09Z</time>
  <course>0.0</course>
  <speed>0.0</speed>
  <fix>3d</fix>
</trkpt>
<trkpt lat="33.810313" lon="-118.393867">
  <ele>-0.121</ele>
  <time>2026-09-01T01:12:09Z</time>
  <course>187.51</course>
  <speed>0.03605551275463989</speed>
  <fix>3d</fix>
</trkpt>
<trkpt lat="33.810313" lon="-118.393867">
  <ele>-0.12</ele>
  <time>2026-09-01T01:12:09Z</time>
  <course>0.0</course>
  <speed>0.0</speed>
  <fix>3d</fix>
</trkpt>
<trkpt lat="33.810313" lon="-118.393867">
  <ele>-0.121</ele>
  <time>2026-09-01T01:12:09Z</time>
  <course>187.51</course>
  <speed>0.03605551275463989</speed>
  <fix>3d</fix>
</trkpt>
<trkpt lat="33.810313" lon="-118.393867">
  <ele>-0.12</ele>
  <time>2026-09-01T01:12:09Z</time>
  <course>0.0</course>
  <speed>0.0</speed>
  <fix>3d</fix>
</trkpt>
<trkpt lat="33.810313" lon="-118.393867">
  <ele>-0.121</ele>
  <time>2026-09-01T01:12:09Z</time>
  <course>187.5</course>
  <speed>0.03605551275463989</speed>
  <fix>3d</fix>
</trkpt>
<trkpt lat="33.810313" lon="-118.393867">
  <ele>-0.12</ele>
  <time>2026-09-01T01:12:09Z</time>
  <course>0.0</course>
  <speed>0.0</speed>
  <fix>3d</fix>
</trkpt>
<trkpt lat="33.810313" lon="-118.393867">
  <ele>-0.121</ele>
  <time>2026-09-01T01:12:09Z</time>
  <course>187.49</course>
  <speed>0.03605551275463989</speed>
  <fix>3d</fix>
</trkpt>
<trkpt lat="33.810313" lon="-118.393867">
  <ele>-0.12</ele>
  <time>2026-09-01T01:12:09Z</time>
  <course>0.0</course>
  <speed>0.0</speed>
  <fix>3d</fix>
</trkpt>
<trkpt lat="33.810313" lon="-118.393867">
  <ele>-0.121</ele>
  <time>2026-09-01T01:12:09Z</time>
  <course>187.49</course>
  <speed>0.03605551275463989</speed>
  <fix>3d</fix>
</trkpt>
<trkpt lat="33.810313" lon="-118.393867">
  <ele>-0.12</ele>
  <time>2026-09-01T01:12:09Z</time>
  <course>0.0</course>
  <speed>0.0</speed>
  <fix>3d</fix>
</trkpt>
<trkpt lat="33.810313" lon="-118.393867">
  <ele>-0.121</ele>
  <time>2026-09-01T01:12:09Z</time>
  <course>187.48</course>
  <speed>0.03605551275463989</speed>
  <fix>3d</fix>
</trkpt>
<trkpt lat="33.810313" lon="-118.393867">
  <ele>-0.12</ele>
  <time>2026-09-01T01:12:09Z</time>
  <course>0.0</course>
  <speed>0.0</speed>
  <fix>3d</fix>
</trkpt>
<trkpt lat="33.810313" lon="-118.393867">
  <ele>-0.122</ele>
  <time>2026-09-01T01:12:09Z</time>
  <course>187.47</course>
  <speed>0.03605551275463989</speed>
  <fix>3d</fix>
</trkpt>
<trkpt lat="33.810313" lon="-118.393867">
  <ele>-0.12</ele>
  <time>2026-09-01T01:12:09Z</time>
  <course>0.0</course>
  <speed>0.0</speed>
  <fix>3d</fix>
</trkpt>
<trkpt lat="33.810313" lon="-118.393867">
  <ele>-0.124</ele>
  <time>2026-09-01T01:12:09Z</time>
  <course>187.47</course>
  <speed>0.03605551275463989</speed>
  <fix>3d</fix>
</trkpt>
<trkpt lat="33.810313" lon="-118.393867">
  <ele>-0.12</ele>
  <time>2026-09-01T01:12:09Z</time>
  <course>0.0</course>
  <speed>0.0</speed>
  <fix>3d</fix>
</trkpt>
<trkpt lat="33.810313" lon="-118.393867">
  <ele>-0.127</ele>
  <time>2026-09-01T01:12:09Z</time>
  <course>187.46</course>
  <speed>0.03605551275463989</speed>
  <fix>3d</fix>
</trkpt>
<trkpt lat="33.810313" lon="-118.393867">
  <ele>-0.12</ele>
  <time>2026-09-01T01:12:09Z</time>
  <course>0.0</course>
  <speed>0.0</speed>
  <fix>3d</fix>
</trkpt>
<trkpt lat="33.810313" lon="-118.393867">
  <ele>-0.129</ele>
  <time>2026-09-01T01:12:09Z</time>
  <course>187.45</course>
  <speed>0.03605551275463989</speed>
  <fix>3d</fix>
</trkpt>
<trkpt lat="33.810313" lon="-118.393867">
  <ele>-0.12</ele>
  <time>2026-09-01T01:12:09Z</time>
  <course>0.0</course>
  <speed>0.0</speed>
  <fix>3d</fix>
</trkpt>
<trkpt lat="33.810313" lon="-118.393867">
  <ele>-0.131</ele>
  <time>2026-09-01T01:12:09Z</time>
  <course>187.45</course>
  <speed>0.03605551275463989</speed>
  <fix>3d</fix>
</trkpt>
<trkpt lat="33.810313" lon="-118.393867">
  <ele>-0.12</ele>
  <time>2026-09-01T01:12:09Z</time>
  <course>0.0</course>
  <speed>0.0</speed>
  <fix>3d</fix>
</trkpt>
<trkpt lat="33.810313" lon="-118.393867">
  <ele>-0.132</ele>
  <time>2026-09-01T01:12:09Z</time>
  <course>187.44</course>
  <speed>0.03605551275463989</speed>
  <fix>3d</fix>
</trkpt>
<trkpt lat="33.810313" lon="-118.393867">
  <ele>-0.12</ele>
  <time>2026-09-01T01:12:09Z</time>
  <course>0.0</course>
  <speed>0.0</speed>
  <fix>3d</fix>
</trkpt>
<trkpt lat="33.810313" lon="-118.393867">
  <ele>-0.132</ele>
  <time>2026-09-01T01:12:09Z</time>
  <course>187.44</course>
  <speed>0.03605551275463989</speed>
  <fix>3d</fix>
</trkpt>
<trkpt lat="33.810313" lon="-118.393867">
  <ele>-0.12</ele>
  <time>2026-09-01T01:12:09Z</time>
  <course>0.0</course>
  <speed>0.0</speed>
  <fix>3d</fix>
</trkpt>
<trkpt lat="33.810313" lon="-118.393867">
  <ele>-0.132</ele>
  <time>2026-09-01T01:12:09Z</time>
  <course>187.43</course>
  <speed>0.03605551275463989</speed>
  <fix>3d</fix>
</trkpt>
<trkpt lat="33.810313" lon="-118.393867">
  <ele>-0.12</ele>
  <time>2026-09-01T01:12:09Z</time>
  <course>0.0</course>
  <speed>0.0</speed>
  <fix>3d</fix>
</trkpt>
<trkpt lat="33.810313" lon="-118.393867">
  <ele>-0.132</ele>
  <time>2026-09-01T01:12:09Z</time>
  <course>187.42</course>
  <speed>0.03605551275463989</speed>
  <fix>3d</fix>
</trkpt>
<trkpt lat="33.810313" lon="-118.393867">
  <ele>-0.12</ele>
  <time>2026-09-01T01:12:09Z</time>
  <course>0.0</course>
  <speed>0.0</speed>
  <fix>3d</fix>
</trkpt>
<trkpt lat="33.810313" lon="-118.393867">
  <ele>-0.131</ele>
  <time>2026-09-01T01:12:09Z</time>
  <course>187.42</course>
  <speed>0.03605551275463989</speed>
  <fix>3d</fix>
</trkpt>
<trkpt lat="33.810313" lon="-118.393867">
  <ele>-0.12</ele>
  <time>2026-09-01T01:12:09Z</time>
  <course>0.0</course>
  <speed>0.0</speed>
  <fix>3d</fix>
</trkpt>
<trkpt lat="33.810313" lon="-118.393867">
  <ele>-0.131</ele>
  <time>2026-09-01T01:12:09Z</time>
  <course>187.41</course>
  <speed>0.03605551275463989</speed>
  <fix>3d</fix>
</trkpt>
<trkpt lat="33.810313" lon="-118.393867">
  <ele>-0.12</ele>
  <time>2026-09-01T01:12:09Z</time>
  <course>0.0</course>
  <speed>0.0</speed>
  <fix>3d</fix>
</trkpt>
<trkpt lat="33.810313" lon="-118.393867">
  <ele>-0.132</ele>
  <time>2026-09-01T01:12:09Z</time>
  <course>187.41</course>
  <speed>0.03605551275463989</speed>
  <fix>3d</fix>
</trkpt>
<trkpt lat="33.810313" lon="-118.393867">
  <ele>-0.12</ele>
  <time>2026-09-01T01:12:09Z</time>
  <course>0.0</course>
  <speed>0.0</speed>
  <fix>3d</fix>
</trkpt>
<trkpt lat="33.810313" lon="-118.393867">
  <ele>-0.134</ele>
  <time>2026-09-01T01:12:09Z</time>
  <course>187.4</course>
  <speed>0.03605551275463989</speed>
  <fix>3d</fix>
</trkpt>
<trkpt lat="33.810313" lon="-118.393867">
  <ele>-0.12</ele>
  <time>2026-09-01T01:12:09Z</time>
  <course>0.0</course>
  <speed>0.0</speed>
  <fix>3d</fix>
</trkpt>
<trkpt lat="33.810313" lon="-118.393867">
  <ele>-0.137</ele>
  <time>2026-09-01T01:12:09Z</time>
  <course>187.39</course>
  <speed>0.03605551275463989</speed>
  <fix>3d</fix>
</trkpt>
<trkpt lat="33.810313" lon="-118.393867">
  <ele>-0.12</ele>
  <time>2026-09-01T01:12:09Z</time>
  <course>0.0</course>
  <speed>0.0</speed>
  <fix>3d</fix>
</trkpt>
<trkpt lat="33.810313" lon="-118.393867">
  <ele>-0.139</ele>
  <time>2026-09-01T01:12:09Z</time>
  <course>187.39</course>
  <speed>0.03605551275463989</speed>
  <fix>3d</fix>
</trkpt>
<trkpt lat="33.810313" lon="-118.393867">
  <ele>-0.12</ele>
  <time>2026-09-01T01:12:09Z</time>
  <course>0.0</course>
  <speed>0.0</speed>
  <fix>3d</fix>
</trkpt>
<trkpt lat="33.810313" lon="-118.393867">
  <ele>-0.141</ele>
  <time>2026-09-01T01:12:09Z</time>
  <course>187.38</course>
  <speed>0.03605551275463989</speed>
  <fix>3d</fix>
</trkpt>
<trkpt lat="33.810313" lon="-118.393867">
  <ele>-0.12</ele>
  <time>2026-09-01T01:12:09Z</time>
  <course>0.0</course>
  <speed>0.0</speed>
  <fix>3d</fix>
</trkpt>
<trkpt lat="33.810313" lon="-118.393867">
  <ele>-0.141</ele>
  <time>2026-09-01T01:12:09Z</time>
  <course>187.38</course>
  <speed>0.03605551275463989</speed>
  <fix>3d</fix>
</trkpt>
<trkpt lat="33.810313" lon="-118.393867">
  <ele>-0.12</ele>
  <time>2026-09-01T01:12:09Z</time>
  <course>0.0</course>
  <speed>0.0</speed>
  <fix>3d</fix>
</trkpt>
<trkpt lat="33.810313" lon="-118.393867">
  <ele>-0.139</ele>
  <time>2026-09-01T01:12:09Z</time>
  <course>187.37</course>
  <speed>0.03605551275463989</speed>
  <fix>3d</fix>
</trkpt>
<trkpt lat="33.810313" lon="-118.393867">
  <ele>-0.12</ele>
  <time>2026-09-01T01:12:09Z</time>
  <course>0.0</course>
  <speed>0.0</speed>
  <fix>3d</fix>
</trkpt>
<trkpt lat="33.810313" lon="-118.393867">
  <ele>-0.136</ele>
  <time>2026-09-01T01:12:09Z</time>
  <course>187.36</course>
  <speed>0.03605551275463989</speed>
  <fix>3d</fix>
</trkpt>
<trkpt lat="33.810313" lon="-118.393867">
  <ele>-0.12</ele>
  <time>2026-09-01T01:12:09Z</time>
  <course>0.0</course>
  <speed>0.0</speed>
  <fix>3d</fix>
</trkpt>
<trkpt lat="33.810313" lon="-118.393867">
  <ele>-0.132</ele>
  <time>2026-09-01T01:12:09Z</time>
  <course>187.36</course>
  <speed>0.03605551275463989</speed>
  <fix>3d</fix>
</trkpt>
<trkpt lat="33.810313" lon="-118.393867">
  <ele>-0.12</ele>
  <time>2026-09-01T01:12:09Z</time>
  <course>0.0</course>
  <speed>0.0</speed>
  <fix>3d</fix>
</trkpt>
<trkpt lat="33.810313" lon="-118.393867">
  <ele>-0.129</ele>
  <time>2026-09-01T01:12:09Z</time>
  <course>187.35</course>
  <speed>0.03605551275463989</speed>
  <fix>3d</fix>
</trkpt>
<trkpt lat="33.810313" lon="-118.393867">
  <ele>-0.12</ele>
  <time>2026-09-01T01:12:09Z</time>
  <course>0.0</course>
  <speed>0.0</speed>
  <fix>3d</fix>
</trkpt>
<trkpt lat="33.810313" lon="-118.393867">
  <ele>-0.127</ele>
  <time>2026-09-01T01:12:09Z</time>
  <course>187.35</course>
  <speed>0.03605551275463989</speed>
  <fix>3d</fix>
</trkpt>
<trkpt lat="33.810313" lon="-118.393867">
  <ele>-0.12</ele>
  <time>2026-09-01T01:12:09Z</time>
  <course>0.0</course>
  <speed>0.0</speed>
  <fix>3d</fix>
</trkpt>
<trkpt lat="33.810313" lon="-118.393867">
  <ele>-0.126</ele>
  <time>2026-09-01T01:12:09Z</time>
  <course>187.34</course>
  <speed>0.03605551275463989</speed>
  <fix>3d</fix>
</trkpt>
<trkpt lat="33.810313" lon="-118.393867">
  <ele>-0.12</ele>
  <time>2026-09-01T01:12:09Z</time>
  <course>0.0</course>
  <speed>0.0</speed>
  <fix>3d</fix>
</trkpt>
<trkpt lat="33.810313" lon="-118.393867">
  <ele>-0.126</ele>
  <time>2026-09-01T01:12:09Z</time>
  <course>187.33</course>
  <speed>0.03605551275463989</speed>
  <fix>3d</fix>
</trkpt>
<trkpt lat="33.810313" lon="-118.393867">
  <ele>-0.12</ele>
  <time>2026-09-01T01:12:09Z</time>
  <course>0.0</course>
  <speed>0.0</speed>
  <fix>3d</fix>
</trkpt>
<trkpt lat="33.810313" lon="-118.393867">
  <ele>-0.127</ele>
  <time>2026-09-01T01:12:09Z</time>
  <course>187.33</course>
  <speed>0.03605551275463989</speed>
  <fix>3d</fix>
</trkpt>
<trkpt lat="33.810313" lon="-118.393867">
  <ele>-0.12</ele>
  <time>2026-09-01T01:12:09Z</time>
  <course>0.0</course>
  <speed>0.0</speed>
  <fix>3d</fix>
</trkpt>
<trkpt lat="33.810313" lon="-118.393867">
  <ele>-0.126</ele>
  <time>2026-09-01T01:12:09Z</time>
  <course>187.32</course>
  <speed>0.03605551275463989</speed>
  <fix>3d</fix>
</trkpt>
<trkpt lat="33.810313" lon="-118.393867">
  <ele>-0.12</ele>
  <time>2026-09-01T01:12:09Z</time>
  <course>0.0</course>
  <speed>0.0</speed>
  <fix>3d</fix>
</trkpt>
<trkpt lat="33.810313" lon="-118.393867">
  <ele>-0.126</ele>
  <time>2026-09-01T01:12:09Z</time>
  <course>187.32</course>
  <speed>0.03605551275463989</speed>
  <fix>3d</fix>
</trkpt>
<trkpt lat="33.810313" lon="-118.393867">
  <ele>-0.12</ele>
  <time>2026-09-01T01:12:09Z</time>
  <course>0.0</course>
  <speed>0.0</speed>
  <fix>3d</fix>
</trkpt>
<trkpt lat="33.810313" lon="-118.393867">
  <ele>-0.125</ele>
  <time>2026-09-01T01:12:09Z</time>
  <course>187.31</course>
  <speed>0.03605551275463989</speed>
  <fix>3d</fix>
</trkpt>
<trkpt lat="33.810313" lon="-118.393867">
  <ele>-0.12</ele>
  <time>2026-09-01T01:12:09Z</time>
  <course>0.0</course>
  <speed>0.0</speed>
  <fix>3d</fix>
</trkpt>
<trkpt lat="33.810313" lon="-118.393867">
  <ele>-0.124</ele>
  <time>2026-09-01T01:12:09Z</time>
  <course>187.31</course>
  <speed>0.03605551275463989</speed>
  <fix>3d</fix>
</trkpt>
<trkpt lat="33.810313" lon="-118.393867">
  <ele>-0.12</ele>
  <time>2026-09-01T01:12:09Z</time>
  <course>0.0</course>
  <speed>0.0</speed>
  <fix>3d</fix>
</trkpt>
<trkpt lat="33.810313" lon="-118.393867">
  <ele>-0.122</ele>
  <time>2026-09-01T01:12:09Z</time>
  <course>187.3</course>
  <speed>0.03605551275463989</speed>
  <fix>3d</fix>
</trkpt>
<trkpt lat="33.810313" lon="-118.393867">
  <ele>-0.12</ele>
  <time>2026-09-01T01:12:09Z</time>
  <course>0.0</course>
  <speed>0.0</speed>
  <fix>3d</fix>
</trkpt>
<trkpt lat="33.810313" lon="-118.393867">
  <ele>-0.121</ele>
  <time>2026-09-01T01:12:09Z</time>
  <course>187.29</course>
  <speed>0.03605551275463989</speed>
  <fix>3d</fix>
</trkpt>
<trkpt lat="33.810313" lon="-118.393867">
  <ele>-0.12</ele>
  <time>2026-09-01T01:12:09Z</time>
  <course>0.0</course>
  <speed>0.0</speed>
  <fix>3d</fix>
</trkpt>
<trkpt lat="33.810313" lon="-118.393867">
  <ele>-0.122</ele>
  <time>2026-09-01T01:12:09Z</time>
  <course>187.29</course>
  <speed>0.03605551275463989</speed>
  <fix>3d</fix>
</trkpt>
<trkpt lat="33.810313" lon="-118.393867">
  <ele>-0.12</ele>
  <time>2026-09-01T01:12:09Z</time>
  <course>0.0</course>
  <speed>0.0</speed>
  <fix>3d</fix>
</trkpt>
<trkpt lat="33.810313" lon="-118.393867">
  <ele>-0.124</ele>
  <time>2026-09-01T01:12:09Z</time>
  <course>187.28</course>
  <speed>0.03605551275463989</speed>
  <fix>3d</fix>
</trkpt>
<trkpt lat="33.810313" lon="-118.393867">
  <ele>-0.12</ele>
  <time>2026-09-01T01:12:09Z</time>
  <course>0.0</course>
  <speed>0.0</speed>
  <fix>3d</fix>
</trkpt>
<trkpt lat="33.810313" lon="-118.393867">
  <ele>-0.128</ele>
  <time>2026-09-01T01:12:09Z</time>
  <course>187.28</course>
  <speed>0.03605551275463989</speed>
  <fix>3d</fix>
</trkpt>
<trkpt lat="33.810313" lon="-118.393867">
  <ele>-0.12</ele>
  <time>2026-09-01T01:12:09Z</time>
  <course>0.0</course>
  <speed>0.0</speed>
  <fix>3d</fix>
</trkpt>
<trkpt lat="33.810313" lon="-118.393867">
  <ele>-0.13</ele>
  <time>2026-09-01T01:12:09Z</time>
  <course>187.27</course>
  <speed>0.03605551275463989</speed>
  <fix>3d</fix>
</trkpt>
<trkpt lat="33.810313" lon="-118.393867">
  <ele>-0.12</ele>
  <time>2026-09-01T01:12:09Z</time>
  <course>0.0</course>
  <speed>0.0</speed>
  <fix>3d</fix>
</trkpt>
<trkpt lat="33.810313" lon="-118.393867">
  <ele>-0.133</ele>
  <time>2026-09-01T01:12:09Z</time>
  <course>187.27</course>
  <speed>0.03605551275463989</speed>
  <fix>3d</fix>
</trkpt>
<trkpt lat="33.810313" lon="-118.393867">
  <ele>-0.12</ele>
  <time>2026-09-01T01:12:09Z</time>
  <course>0.0</course>
  <speed>0.0</speed>
  <fix>3d</fix>
</trkpt>
<trkpt lat="33.810313" lon="-118.393867">
  <ele>-0.135</ele>
  <time>2026-09-01T01:12:09Z</time>
  <course>187.26</course>
  <speed>0.03605551275463989</speed>
  <fix>3d</fix>
</trkpt>
<trkpt lat="33.810313" lon="-118.393867">
  <ele>-0.12</ele>
  <time>2026-09-01T01:12:09Z</time>
  <course>0.0</course>
  <speed>0.0</speed>
  <fix>3d</fix>
</trkpt>
<trkpt lat="33.810313" lon="-118.393867">
  <ele>-0.136</ele>
  <time>2026-09-01T01:12:09Z</time>
  <course>187.26</course>
  <speed>0.03605551275463989</speed>
  <fix>3d</fix>
</trkpt>
<trkpt lat="33.810313" lon="-118.393867">
  <ele>-0.12</ele>
  <time>2026-09-01T01:12:09Z</time>
  <course>0.0</course>
  <speed>0.0</speed>
  <fix>3d</fix>
</trkpt>
<trkpt lat="33.810313" lon="-118.393867">
  <ele>-0.136</ele>
  <time>2026-09-01T01:12:09Z</time>
  <course>187.25</course>
  <speed>0.03605551275463989</speed>
  <fix>3d</fix>
</trkpt>
<trkpt lat="33.810313" lon="-118.393867">
  <ele>-0.12</ele>
  <time>2026-09-01T01:12:09Z</time>
  <course>0.0</course>
  <speed>0.0</speed>
  <fix>3d</fix>
</trkpt>
<trkpt lat="33.810313" lon="-118.393867">
  <ele>-0.135</ele>
  <time>2026-09-01T01:12:09Z</time>
  <course>187.25</course>
  <speed>0.03605551275463989</speed>
  <fix>3d</fix>
</trkpt>
<trkpt lat="33.810313" lon="-118.393867">
  <ele>-0.12</ele>
  <time>2026-09-01T01:12:09Z</time>
  <course>0.0</course>
  <speed>0.0</speed>
  <fix>3d</fix>
</trkpt>
<trkpt lat="33.810313" lon="-118.393867">
  <ele>-0.134</ele>
  <time>2026-09-01T01:12:09Z</time>
  <course>187.24</course>
  <speed>0.03605551275463989</speed>
  <fix>3d</fix>
</trkpt>
<trkpt lat="33.810313" lon="-118.393867">
  <ele>-0.12</ele>
  <time>2026-09-01T01:12:09Z</time>
  <course>0.0</course>
  <speed>0.0</speed>
  <fix>3d</fix>
</trkpt>
<trkpt lat="33.810313" lon="-118.393867">
  <ele>-0.132</ele>
  <time>2026-09-01T01:12:09Z</time>
  <course>187.24</course>
  <speed>0.03605551275463989</speed>
  <fix>3d</fix>
</trkpt>
<trkpt lat="33.810313" lon="-118.393867">
  <ele>-0.12</ele>
  <time>2026-09-01T01:12:09Z</time>
  <course>0.0</course>
  <speed>0.0</speed>
  <fix>3d</fix>
</trkpt>
<trkpt lat="33.810313" lon="-118.393867">
  <ele>-0.131</ele>
  <time>2026-09-01T01:12:09Z</time>
  <course>187.23</course>
  <speed>0.03605551275463989</speed>
  <fix>3d</fix>
</trkpt>
<trkpt lat="33.810313" lon="-118.393867">
  <ele>-0.12</ele>
  <time>2026-09-01T01:12:09Z</time>
  <course>0.0</course>
  <speed>0.0</speed>
  <fix>3d</fix>
</trkpt>
<trkpt lat="33.810313" lon="-118.393867">
  <ele>-0.131</ele>
  <time>2026-09-01T01:12:09Z</time>
  <course>187.22</course>
  <speed>0.03605551275463989</speed>
  <fix>3d</fix>
</trkpt>
<trkpt lat="33.810313" lon="-118.393867">
  <ele>-0.12</ele>
  <time>2026-09-01T01:12:09Z</time>
  <course>0.0</course>
  <speed>0.0</speed>
  <fix>3d</fix>
</trkpt>
<trkpt lat="33.810313" lon="-118.393867">
  <ele>-0.132</ele>
  <time>2026-09-01T01:12:09Z</time>
  <course>187.22</course>
  <speed>0.03605551275463989</speed>
  <fix>3d</fix>
</trkpt>
<trkpt lat="33.810313" lon="-118.393867">
  <ele>-0.12</ele>
  <time>2026-09-01T01:12:09Z</time>
  <course>0.0</course>
  <speed>0.0</speed>
  <fix>3d</fix>
</trkpt>
<trkpt lat="33.810313" lon="-118.393867">
  <ele>-0.132</ele>
  <time>2026-09-01T01:12:09Z</time>
  <course>187.21</course>
  <speed>0.03605551275463989</speed>
  <fix>3d</fix>
</trkpt>
<trkpt lat="33.810313" lon="-118.393867">
  <ele>-0.12</ele>
  <time>2026-09-01T01:12:09Z</time>
  <course>0.0</course>
  <speed>0.0</speed>
  <fix>3d</fix>
</trkpt>
<trkpt lat="33.810313" lon="-118.393867">
  <ele>-0.133</ele>
  <time>2026-09-01T01:12:09Z</time>
  <course>187.21</course>
  <speed>0.03605551275463989</speed>
  <fix>3d</fix>
</trkpt>
<trkpt lat="33.810313" lon="-118.393867">
  <ele>-0.12</ele>
  <time>2026-09-01T01:12:09Z</time>
  <course>0.0</course>
  <speed>0.0</speed>
  <fix>3d</fix>
</trkpt>
<trkpt lat="33.810313" lon="-118.393867">
  <ele>-0.132</ele>
  <time>2026-09-01T01:12:09Z</time>
  <course>187.2</course>
  <speed>0.03605551275463989</speed>
  <fix>3d</fix>
</trkpt>
<trkpt lat="33.810313" lon="-118.393867">
  <ele>-0.12</ele>
  <time>2026-09-01T01:12:09Z</time>
  <course>0.0</course>
  <speed>0.0</speed>
  <fix>3d</fix>
</trkpt>
<trkpt lat="33.810313" lon="-118.393867">
  <ele>-0.131</ele>
  <time>2026-09-01T01:12:09Z</time>
  <course>187.2</course>
  <speed>0.03605551275463989</speed>
  <fix>3d</fix>
</trkpt>
<trkpt lat="33.810313" lon="-118.393867">
  <ele>-0.12</ele>
  <time>2026-09-01T01:12:09Z</time>
  <course>0.0</course>
  <speed>0.0</speed>
  <fix>3d</fix>
</trkpt>
<trkpt lat="33.810313" lon="-118.393867">
  <ele>-0.129</ele>
  <time>2026-09-01T01:12:09Z</time>
  <course>187.19</course>
  <speed>0.03605551275463989</speed>
  <fix>3d</fix>
</trkpt>
<trkpt lat="33.810313" lon="-118.393867">
  <ele>-0.12</ele>
  <time>2026-09-01T01:12:09Z</time>
  <course>0.0</course>
  <speed>0.0</speed>
  <fix>3d</fix>
</trkpt>
<trkpt lat="33.810313" lon="-118.393867">
  <ele>-0.126</ele>
  <time>2026-09-01T01:12:09Z</time>
  <course>187.19</course>
  <speed>0.03605551275463989</speed>
  <fix>3d</fix>
</trkpt>
<trkpt lat="33.810313" lon="-118.393867">
  <ele>-0.12</ele>
  <time>2026-09-01T01:12:09Z</time>
  <course>0.0</course>
  <speed>0.0</speed>
  <fix>3d</fix>
</trkpt>
<trkpt lat="33.810313" lon="-118.393867">
  <ele>-0.124</ele>
  <time>2026-09-01T01:12:09Z</time>
  <course>187.18</course>
  <speed>0.03605551275463989</speed>
  <fix>3d</fix>
</trkpt>
<trkpt lat="33.810313" lon="-118.393867">
  <ele>-0.12</ele>
  <time>2026-09-01T01:12:09Z</time>
  <course>0.0</course>
  <speed>0.0</speed>
  <fix>3d</fix>
</trkpt>
<trkpt lat="33.810313" lon="-118.393867">
  <ele>-0.123</ele>
  <time>2026-09-01T01:12:09Z</time>
  <course>187.18</course>
  <speed>0.03605551275463989</speed>
  <fix>3d</fix>
</trkpt>
<trkpt lat="33.810313" lon="-118.393867">
  <ele>-0.12</ele>
  <time>2026-09-01T01:12:09Z</time>
  <course>0.0</course>
  <speed>0.0</speed>
  <fix>3d</fix>
</trkpt>
<trkpt lat="33.810313" lon="-118.393867">
  <ele>-0.123</ele>
  <time>2026-09-01T01:12:09Z</time>
  <course>187.17</course>
  <speed>0.03605551275463989</speed>
  <fix>3d</fix>
</trkpt>
<trkpt lat="33.810313" lon="-118.393867">
  <ele>-0.12</ele>
  <time>2026-09-01T01:12:09Z</time>
  <course>0.0</course>
  <speed>0.0</speed>
  <fix>3d</fix>
</trkpt>
<trkpt lat="33.810313" lon="-118.393867">
  <ele>-0.122</ele>
  <time>2026-09-01T01:12:09Z</time>
  <course>187.17</course>
  <speed>0.0</speed>
  <fix>3d</fix>
</trkpt>
<trkpt lat="33.810313" lon="-118.393867">
  <ele>-0.12</ele>
  <time>2026-09-01T01:12:09Z</time>
  <course>0.0</course>
  <speed>0.0</speed>
  <fix>3d</fix>
</trkpt>
<trkpt lat="33.810313" lon="-118.393867">
  <ele>-0.121</ele>
  <time>2026-09-01T01:12:09Z</time>
  <course>187.16</course>
  <speed>0.0</speed>
  <fix>3d</fix>
</trkpt>
<trkpt lat="33.810313" lon="-118.393867">
  <ele>-0.12</ele>
  <time>2026-09-01T01:12:09Z</time>
  <course>0.0</course>
  <speed>0.0</speed>
  <fix>3d</fix>
</trkpt>
<trkpt lat="33.810313" lon="-118.393867">
  <ele>-0.12</ele>
  <time>2026-09-01T01:12:09Z</time>
  <course>187.16</course>
  <speed>0.0</speed>
  <fix>3d</fix>
</trkpt>
<trkpt lat="33.810313" lon="-118.393867">
  <ele>-0.12</ele>
  <time>2026-09-01T01:12:09Z</time>
  <course>0.0</course>
  <speed>0.0</speed>
  <fix>3d</fix>
</trkpt>
<trkpt lat="33.810313" lon="-118.393867">
  <ele>-0.119</ele>
  <time>2026-09-01T01:12:09Z</time>
  <course>187.15</course>
  <speed>0.0</speed>
  <fix>3d</fix>
</trkpt>
<trkpt lat="33.810313" lon="-118.393867">
  <ele>-0.12</ele>
  <time>2026-09-01T01:12:09Z</time>
  <course>0.0</course>
  <speed>0.0</speed>
  <fix>3d</fix>
</trkpt>
<trkpt lat="33.810313" lon="-118.393867">
  <ele>-0.116</ele>
  <time>2026-09-01T01:12:09Z</time>
  <course>187.15</course>
  <speed>0.0</speed>
  <fix>3d</fix>
</trkpt>
<trkpt lat="33.810313" lon="-118.393867">
  <ele>-0.12</ele>
  <time>2026-09-01T01:12:09Z</time>
  <course>0.0</course>
  <speed>0.0</speed>
  <fix>3d</fix>
</trkpt>
<trkpt lat="33.810313" lon="-118.393867">
  <ele>-0.114</ele>
  <time>2026-09-01T01:12:09Z</time>
  <course>187.14</course>
  <speed>0.0</speed>
  <fix>3d</fix>
</trkpt>
<trkpt lat="33.810313" lon="-118.393867">
  <ele>-0.12</ele>
  <time>2026-09-01T01:12:09Z</time>
  <course>0.0</course>
  <speed>0.0</speed>
  <fix>3d</fix>
</trkpt>
<trkpt lat="33.810313" lon="-118.393867">
  <ele>-0.113</ele>
  <time>2026-09-01T01:12:09Z</time>
  <course>187.14</course>
  <speed>0.0</speed>
  <fix>3d</fix>
</trkpt>
<trkpt lat="33.810313" lon="-118.393867">
  <ele>-0.12</ele>
  <time>2026-09-01T01:12:09Z</time>
  <course>0.0</course>
  <speed>0.0</speed>
  <fix>3d</fix>
</trkpt>
<trkpt lat="33.810313" lon="-118.393867">
  <ele>-0.112</ele>
  <time>2026-09-01T01:12:09Z</time>
  <course>187.13</course>
  <speed>0.0</speed>
  <fix>3d</fix>
</trkpt>
<trkpt lat="33.810313" lon="-118.393867">
  <ele>-0.12</ele>
  <time>2026-09-01T01:12:09Z</time>
  <course>0.0</course>
  <speed>0.0</speed>
  <fix>3d</fix>
</trkpt>
<trkpt lat="33.810313" lon="-118.393867">
  <ele>-0.113</ele>
  <time>2026-09-01T01:12:09Z</time>
  <course>187.13</course>
  <speed>0.0</speed>
  <fix>3d</fix>
</trkpt>
<trkpt lat="33.810313" lon="-118.393867">
  <ele>-0.12</ele>
  <time>2026-09-01T01:12:09Z</time>
  <course>0.0</course>
  <speed>0.0</speed>
  <fix>3d</fix>
</trkpt>
<trkpt lat="33.810313" lon="-118.393867">
  <ele>-0.114</ele>
  <time>2026-09-01T01:12:09Z</time>
  <course>187.12</course>
  <speed>0.0</speed>
  <fix>3d</fix>
</trkpt>
<trkpt lat="33.810313" lon="-118.393867">
  <ele>-0.12</ele>
  <time>2026-09-01T01:12:09Z</time>
  <course>0.0</course>
  <speed>0.0</speed>
  <fix>3d</fix>
</trkpt>
<trkpt lat="33.810313" lon="-118.393867">
  <ele>-0.117</ele>
  <time>2026-09-01T01:12:09Z</time>
  <course>187.12</course>
  <speed>0.0</speed>
  <fix>3d</fix>
</trkpt>
<trkpt lat="33.810313" lon="-118.393867">
  <ele>-0.12</ele>
  <time>2026-09-01T01:12:09Z</time>
  <course>0.0</course>
  <speed>0.0</speed>
  <fix>3d</fix>
</trkpt>
<trkpt lat="33.810313" lon="-118.393867">
  <ele>-0.119</ele>
  <time>2026-09-01T01:12:09Z</time>
  <course>187.11</course>
  <speed>0.01</speed>
  <fix>3d</fix>
</trkpt>
<trkpt lat="33.810313" lon="-118.393867">
  <ele>-0.12</ele>
  <time>2026-09-01T01:12:09Z</time>
  <course>0.0</course>
  <speed>0.0</speed>
  <fix>3d</fix>
</trkpt>
<trkpt lat="33.810313" lon="-118.393867">
  <ele>-0.12</ele>
  <time>2026-09-01T01:12:09Z</time>
  <course>187.11</course>
  <speed>0.01</speed>
  <fix>3d</fix>
</trkpt>
<trkpt lat="33.810313" lon="-118.393867">
  <ele>-0.12</ele>
  <time>2026-09-01T01:12:09Z</time>
  <course>0.0</course>
  <speed>0.0</speed>
  <fix>3d</fix>
</trkpt>
<trkpt lat="33.810313" lon="-118.393867">
  <ele>-0.121</ele>
  <time>2026-09-01T01:12:09Z</time>
  <course>187.1</course>
  <speed>0.01</speed>
  <fix>3d</fix>
</trkpt>
<trkpt lat="33.810313" lon="-118.393867">
  <ele>-0.12</ele>
  <time>2026-09-01T01:12:09Z</time>
  <course>0.0</course>
  <speed>0.0</speed>
  <fix>3d</fix>
</trkpt>
<trkpt lat="33.810313" lon="-118.393867">
  <ele>-0.122</ele>
  <time>2026-09-01T01:12:09Z</time>
  <course>187.1</course>
  <speed>0.01414213562373095</speed>
  <fix>3d</fix>
</trkpt>
<trkpt lat="33.810313" lon="-118.393867">
  <ele>-0.12</ele>
  <time>2026-09-01T01:12:09Z</time>
  <course>0.0</course>
  <speed>0.0</speed>
  <fix>3d</fix>
</trkpt>
<trkpt lat="33.810313" lon="-118.393867">
  <ele>-0.122</ele>
  <time>2026-09-01T01:12:09Z</time>
  <course>187.09</course>
  <speed>0.01414213562373095</speed>
  <fix>3d</fix>
</trkpt>
<trkpt lat="33.810313" lon="-118.393867">
  <ele>-0.12</ele>
  <time>2026-09-01T01:12:09Z</time>
  <course>0.0</course>
  <speed>0.0</speed>
  <fix>3d</fix>
</trkpt>
<trkpt lat="33.810313" lon="-118.393867">
  <ele>-0.123</ele>
  <time>2026-09-01T01:12:09Z</time>
  <course>187.09</course>
  <speed>0.01414213562373095</speed>
  <fix>3d</fix>
</trkpt>
<trkpt lat="33.810313" lon="-118.393867">
  <ele>-0.12</ele>
  <time>2026-09-01T01:12:09Z</time>
  <course>0.0</course>
  <speed>0.0</speed>
  <fix>3d</fix>
</trkpt>
<trkpt lat="33.810313" lon="-118.393867">
  <ele>-0.124</ele>
  <time>2026-09-01T01:12:09Z</time>
  <course>187.08</course>
  <speed>0.01414213562373095</speed>
  <fix>3d</fix>
</trkpt>
<trkpt lat="33.810313" lon="-118.393867">
  <ele>-0.12</ele>
  <time>2026-09-01T01:12:09Z</time>
  <course>0.0</course>
  <speed>0.0</speed>
  <fix>3d</fix>
</trkpt>
<trkpt lat="33.810313" lon="-118.393867">
  <ele>-0.126</ele>
  <time>2026-09-01T01:12:09Z</time>
  <course>187.08</course>
  <speed>0.01414213562373095</speed>
  <fix>3d</fix>
</trkpt>
<trkpt lat="33.810313" lon="-118.393867">
  <ele>-0.12</ele>
  <time>2026-09-01T01:12:09Z</time>
  <course>0.0</course>
  <speed>0.0</speed>
  <fix>3d</fix>
</trkpt>
<trkpt lat="33.810313" lon="-118.393867">
  <ele>-0.128</ele>
  <time>2026-09-01T01:12:09Z</time>
  <course>187.07</course>
  <speed>0.01414213562373095</speed>
  <fix>3d</fix>
</trkpt>
<trkpt lat="33.810313" lon="-118.393867">
  <ele>-0.12</ele>
  <time>2026-09-01T01:12:09Z</time>
  <course>0.0</course>
  <speed>0.0</speed>
  <fix>3d</fix>
</trkpt>
<trkpt lat="33.810313" lon="-118.393867">
  <ele>-0.131</ele>
  <time>2026-09-01T01:12:09Z</time>
  <course>187.07</course>
  <speed>0.01414213562373095</speed>
  <fix>3d</fix>
</trkpt>
<trkpt lat="33.810313" lon="-118.393867">
  <ele>-0.12</ele>
  <time>2026-09-01T01:12:09Z</time>
  <course>0.0</course>
  <speed>0.0</speed>
  <fix>3d</fix>
</trkpt>
<trkpt lat="33.810313" lon="-118.393867">
  <ele>-0.134</ele>
  <time>2026-09-01T01:12:09Z</time>
  <course>187.06</course>
  <speed>0.022360679774997897</speed>
  <fix>3d</fix>
</trkpt>
<trkpt lat="33.810313" lon="-118.393867">
  <ele>-0.12</ele>
  <time>2026-09-01T01:12:09Z</time>
  <course>0.0</course>
  <speed>0.0</speed>
  <fix>3d</fix>
</trkpt>
<trkpt lat="33.810313" lon="-118.393867">
  <ele>-0.136</ele>
  <time>2026-09-01T01:12:09Z</time>
  <course>187.06</course>
  <speed>0.022360679774997897</speed>
  <fix>3d</fix>
</trkpt>
<trkpt lat="33.810313" lon="-118.393867">
  <ele>-0.12</ele>
  <time>2026-09-01T01:12:09Z</time>
  <course>0.0</course>
  <speed>0.0</speed>
  <fix>3d</fix>
</trkpt>
<trkpt lat="33.810313" lon="-118.393867">
  <ele>-0.137</ele>
  <time>2026-09-01T01:12:09Z</time>
  <course>187.06</course>
  <speed>0.022360679774997897</speed>
  <fix>3d</fix>
</trkpt>
<trkpt lat="33.810313" lon="-118.393867">
  <ele>-0.12</ele>
  <time>2026-09-01T01:12:09Z</time>
  <course>0.0</course>
  <speed>0.0</speed>
  <fix>3d</fix>
</trkpt>
<trkpt lat="33.810313" lon="-118.393867">
  <ele>-0.137</ele>
  <time>2026-09-01T01:12:09Z</time>
  <course>187.05</course>
  <speed>0.022360679774997897</speed>
  <fix>3d</fix>
</trkpt>
<trkpt lat="33.810313" lon="-118.393867">
  <ele>-0.12</ele>
  <time>2026-09-01T01:12:09Z</time>
  <course>0.0</course>
  <speed>0.0</speed>
  <fix>3d</fix>
</trkpt>
<trkpt lat="33.810313" lon="-118.393867">
  <ele>-0.135</ele>
  <time>2026-09-01T01:12:09Z</time>
  <course>187.05</course>
  <speed>0.022360679774997897</speed>
  <fix>3d</fix>
</trkpt>
<trkpt lat="33.810313" lon="-118.393867">
  <ele>-0.12</ele>
  <time>2026-09-01T01:12:09Z</time>
  <course>0.0</course>
  <speed>0.0</speed>
  <fix>3d</fix>
</trkpt>
<trkpt lat="33.810313" lon="-118.393867">
  <ele>-0.133</ele>
  <time>2026-09-01T01:12:09Z</time>
  <course>187.04</course>
  <speed>0.022360679774997897</speed>
  <fix>3d</fix>
</trkpt>
<trkpt lat="33.810313" lon="-118.393867">
  <ele>-0.12</ele>
  <time>2026-09-01T01:12:09Z</time>
  <course>0.0</course>
  <speed>0.0</speed>
  <fix>3d</fix>
</trkpt>
<trkpt lat="33.8103131" lon="-118.3938671">
  <ele>-0.131</ele>
  <time>2026-09-01T01:12:09Z</time>
  <course>187.04</course>
  <speed>0.022360679774997897</speed>
  <fix>3d</fix>
</trkpt>
<trkpt lat="33.810313" lon="-118.393867">
  <ele>-0.12</ele>
  <time>2026-09-01T01:12:09Z</time>
  <course>0.0</course>
  <speed>0.0</speed>
  <fix>3d</fix>
</trkpt>
<trkpt lat="33.8103131" lon="-118.3938671">
  <ele>-0.129</ele>
  <time>2026-09-01T01:12:09Z</time>
  <course>187.03</course>
  <speed>0.0282842712474619</speed>
  <fix>3d</fix>
</trkpt>
<trkpt lat="33.810313" lon="-118.393867">
  <ele>-0.12</ele>
  <time>2026-09-01T01:12:09Z</time>
  <course>0.0</course>
  <speed>0.0</speed>
  <fix>3d</fix>
</trkpt>
<trkpt lat="33.8103131" lon="-118.3938671">
  <ele>-0.129</ele>
  <time>2026-09-01T01:12:09Z</time>
  <course>187.03</course>
  <speed>0.0282842712474619</speed>
  <fix>3d</fix>
</trkpt>
<trkpt lat="33.810313" lon="-118.393867">
  <ele>-0.12</ele>
  <time>2026-09-01T01:12:09Z</time>
  <course>0.0</course>
  <speed>0.0</speed>
  <fix>3d</fix>
</trkpt>
<trkpt lat="33.8103131" lon="-118.3938671">
  <ele>-0.128</ele>
  <time>2026-09-01T01:12:09Z</time>
  <course>187.02</course>
  <speed>0.0282842712474619</speed>
  <fix>3d</fix>
</trkpt>
<trkpt lat="33.810313" lon="-118.393867">
  <ele>-0.12</ele>
  <time>2026-09-01T01:12:09Z</time>
  <course>0.0</course>
  <speed>0.0</speed>
  <fix>3d</fix>
</trkpt>
<trkpt lat="33.8103131" lon="-118.3938671">
  <ele>-0.129</ele>
  <time>2026-09-01T01:12:09Z</time>
  <course>187.02</course>
  <speed>0.0282842712474619</speed>
  <fix>3d</fix>
</trkpt>
<trkpt lat="33.810313" lon="-118.393867">
  <ele>-0.12</ele>
  <time>2026-09-01T01:12:09Z</time>
  <course>0.0</course>
  <speed>0.0</speed>
  <fix>3d</fix>
</trkpt>
<trkpt lat="33.8103131" lon="-118.3938671">
  <ele>-0.13</ele>
  <time>2026-09-01T01:12:09Z</time>
  <course>187.01</course>
  <speed>0.0282842712474619</speed>
  <fix>3d</fix>
</trkpt>
<trkpt lat="33.810313" lon="-118.393867">
  <ele>-0.12</ele>
  <time>2026-09-01T01:12:09Z</time>
  <course>0.0</course>
  <speed>0.0</speed>
  <fix>3d</fix>
</trkpt>
<trkpt lat="33.8103131" lon="-118.3938671">
  <ele>-0.131</ele>
  <time>2026-09-01T01:12:09Z</time>
  <course>187.01</course>
  <speed>0.0282842712474619</speed>
  <fix>3d</fix>
</trkpt>
<trkpt lat="33.810313" lon="-118.393867">
  <ele>-0.12</ele>
  <time>2026-09-01T01:12:09Z</time>
  <course>0.0</course>
  <speed>0.0</speed>
  <fix>3d</fix>
</trkpt>
<trkpt lat="33.8103131" lon="-118.3938671">
  <ele>-0.13</ele>
  <time>2026-09-01T01:12:09Z</time>
  <course>187.0</course>
  <speed>0.0282842712474619</speed>
  <fix>3d</fix>
</trkpt>
<trkpt lat="33.810313" lon="-118.393867">
  <ele>-0.12</ele>
  <time>2026-09-01T01:12:09Z</time>
  <course>0.0</course>
  <speed>0.0</speed>
  <fix>3d</fix>
</trkpt>
<trkpt lat="33.8103131" lon="-118.3938671">
  <ele>-0.13</ele>
  <time>2026-09-01T01:12:09Z</time>
  <course>187.0</course>
  <speed>0.0282842712474619</speed>
  <fix>3d</fix>
</trkpt>
<trkpt lat="33.810313" lon="-118.393867">
  <ele>-0.12</ele>
  <time>2026-09-01T01:12:09Z</time>
  <course>0.0</course>
  <speed>0.0</speed>
  <fix>3d</fix>
</trkpt>
<trkpt lat="33.8103131" lon="-118.3938671">
  <ele>-0.129</ele>
  <time>2026-09-01T01:12:09Z</time>
  <course>186.99</course>
  <speed>0.0282842712474619</speed>
  <fix>3d</fix>
</trkpt>
<trkpt lat="33.810313" lon="-118.393867">
  <ele>-0.12</ele>
  <time>2026-09-01T01:12:09Z</time>
  <course>0.0</course>
  <speed>0.0</speed>
  <fix>3d</fix>
</trkpt>
<trkpt lat="33.8103131" lon="-118.3938671">
  <ele>-0.128</ele>
  <time>2026-09-01T01:12:09Z</time>
  <course>186.99</course>
  <speed>0.03605551275463989</speed>
  <fix>3d</fix>
</trkpt>
<trkpt lat="33.810313" lon="-118.393867">
  <ele>-0.12</ele>
  <time>2026-09-01T01:12:09Z</time>
  <course>0.0</course>
  <speed>0.0</speed>
  <fix>3d</fix>
</trkpt>
<trkpt lat="33.8103131" lon="-118.3938671">
  <ele>-0.128</ele>
  <time>2026-09-01T01:12:09Z</time>
  <course>186.99</course>
  <speed>0.03605551275463989</speed>
  <fix>3d</fix>
</trkpt>
<trkpt lat="33.810313" lon="-118.393867">
  <ele>-0.12</ele>
  <time>2026-09-01T01:12:09Z</time>
  <course>0.0</course>
  <speed>0.0</speed>
  <fix>3d</fix>
</trkpt>
<trkpt lat="33.8103131" lon="-118.3938671">
  <ele>-0.128</ele>
  <time>2026-09-01T01:12:09Z</time>
  <course>186.98</course>
  <speed>0.03605551275463989</speed>
  <fix>3d</fix>
</trkpt>
<trkpt lat="33.810313" lon="-118.393867">
  <ele>-0.12</ele>
  <time>2026-09-01T01:12:09Z</time>
  <course>0.0</course>
  <speed>0.0</speed>
  <fix>3d</fix>
</trkpt>
<trkpt lat="33.8103131" lon="-118.3938671">
  <ele>-0.129</ele>
  <time>2026-09-01T01:12:09Z</time>
  <course>186.98</course>
  <speed>0.03605551275463989</speed>
  <fix>3d</fix>
</trkpt>
<trkpt lat="33.810313" lon="-118.393867">
  <ele>-0.12</ele>
  <time>2026-09-01T01:12:09Z</time>
  <course>0.0</course>
  <speed>0.0</speed>
  <fix>3d</fix>
</trkpt>
<trkpt lat="33.8103131" lon="-118.3938671">
  <ele>-0.132</ele>
  <time>2026-09-01T01:12:09Z</time>
  <course>186.97</course>
  <speed>0.03605551275463989</speed>
  <fix>3d</fix>
</trkpt>
<trkpt lat="33.810313" lon="-118.393867">
  <ele>-0.12</ele>
  <time>2026-09-01T01:12:09Z</time>
  <course>0.0</course>
  <speed>0.0</speed>
  <fix>3d</fix>
</trkpt>
<trkpt lat="33.8103131" lon="-118.3938671">
  <ele>-0.133</ele>
  <time>2026-09-01T01:12:09Z</time>
  <course>186.97</course>
  <speed>0.03605551275463989</speed>
  <fix>3d</fix>
</trkpt>
<trkpt lat="33.810313" lon="-118.393867">
  <ele>-0.12</ele>
  <time>2026-09-01T01:12:09Z</time>
  <course>0.0</course>
  <speed>0.0</speed>
  <fix>3d</fix>
</trkpt>
<trkpt lat="33.8103132" lon="-118.3938671">
  <ele>-0.134</ele>
  <time>2026-09-01T01:12:09Z</time>
  <course>186.96</course>
  <speed>0.03605551275463989</speed>
  <fix>3d</fix>
</trkpt>
<trkpt lat="33.810313" lon="-118.393867">
  <ele>-0.12</ele>
  <time>2026-09-01T01:12:09Z</time>
  <course>0.0</course>
  <speed>0.0</speed>
  <fix>3d</fix>
</trkpt>
<trkpt lat="33.8103132" lon="-118.3938671">
  <ele>-0.132</ele>
  <time>2026-09-01T01:12:09Z</time>
  <course>186.96</course>
  <speed>0.03605551275463989</speed>
  <fix>3d</fix>
</trkpt>
<trkpt lat="33.810313" lon="-118.393867">
  <ele>-0.12</ele>
  <time>2026-09-01T01:12:09Z</time>
  <course>0.0</course>
  <speed>0.0</speed>
  <fix>3d</fix>
</trkpt>
<trkpt lat="33.8103132" lon="-118.3938671">
  <ele>-0.131</ele>
  <time>2026-09-01T01:12:09Z</time>
  <course>186.96</course>
  <speed>0.03605551275463989</speed>
  <fix>3d</fix>
</trkpt>
<trkpt lat="33.810313" lon="-118.393867">
  <ele>-0.12</ele>
  <time>2026-09-01T01:12:09Z</time>
  <course>0.0</course>
  <speed>0.0</speed>
  <fix>3d</fix>
</trkpt>
<trkpt lat="33.8103132" lon="-118.3938671">
  <ele>-0.13</ele>
  <time>2026-09-01T01:12:09Z</time>
  <course>186.95</course>
  <speed>0.03605551275463989</speed>
  <fix>3d</fix>
</trkpt>
<trkpt lat="33.810313" lon="-118.393867">
  <ele>-0.12</ele>
  <time>2026-09-01T01:12:09Z</time>
  <course>0.0</course>
  <speed>0.0</speed>
  <fix>3d</fix>
</trkpt>
<trkpt lat="33.8103132" lon="-118.3938672">
  <ele>-0.129</ele>
  <time>2026-09-01T01:12:09Z</time>
  <course>186.95</course>
  <speed>0.03605551275463989</speed>
  <fix>3d</fix>
</trkpt>
<trkpt lat="33.810313" lon="-118.393867">
  <ele>-0.12</ele>
  <time>2026-09-01T01:12:09Z</time>
  <course>0.0</course>
  <speed>0.0</speed>
  <fix>3d</fix>
</trkpt>
<trkpt lat="33.8103132" lon="-118.3938672">
  <ele>-0.128</ele>
  <time>2026-09-01T01:12:09Z</time>
  <course>186.94</course>
  <speed>0.0282842712474619</speed>
  <fix>3d</fix>
</trkpt>
<trkpt lat="33.810313" lon="-118.393867">
  <ele>-0.12</ele>
  <time>2026-09-01T01:12:09Z</time>
  <course>0.0</course>
  <speed>0.0</speed>
  <fix>3d</fix>
</trkpt>
<trkpt lat="33.8103132" lon="-118.3938672">
  <ele>-0.128</ele>
  <time>2026-09-01T01:12:09Z</time>
  <course>186.94</course>
  <speed>0.0282842712474619</speed>
  <fix>3d</fix>
</trkpt>
<trkpt lat="33.810313" lon="-118.393867">
  <ele>-0.12</ele>
  <time>2026-09-01T01:12:09Z</time>
  <course>0.0</course>
  <speed>0.0</speed>
  <fix>3d</fix>
</trkpt>
<trkpt lat="33.8103132" lon="-118.3938672">
  <ele>-0.127</ele>
  <time>2026-09-01T01:12:09Z</time>
  <course>186.94</course>
  <speed>0.0282842712474619</speed>
  <fix>3d</fix>
</trkpt>
<trkpt lat="33.810313" lon="-118.393867">
  <ele>-0.12</ele>
  <time>2026-09-01T01:12:09Z</time>
  <course>0.0</course>
  <speed>0.0</speed>
  <fix>3d</fix>
</trkpt>
<trkpt lat="33.8103132" lon="-118.3938672">
  <ele>-0.128</ele>
  <time>2026-09-01T01:12:09Z</time>
  <course>186.93</course>
  <speed>0.0282842712474619</speed>
  <fix>3d</fix>
</trkpt>
<trkpt lat="33.810313" lon="-118.393867">
  <ele>-0.12</ele>
  <time>2026-09-01T01:12:09Z</time>
  <course>0.0</course>
  <speed>0.0</speed>
  <fix>3d</fix>
</trkpt>
<trkpt lat="33.8103132" lon="-118.3938672">
  <ele>-0.128</ele>
  <time>2026-09-01T01:12:09Z</time>
  <course>186.93</course>
  <speed>0.0282842712474619</speed>
  <fix>3d</fix>
</trkpt>
<trkpt lat="33.810313" lon="-118.393867">
  <ele>-0.12</ele>
  <time>2026-09-01T01:12:09Z</time>
  <course>0.0</course>
  <speed>0.0</speed>
  <fix>3d</fix>
</trkpt>
<trkpt lat="33.8103132" lon="-118.3938672">
  <ele>-0.127</ele>
  <time>2026-09-01T01:12:09Z</time>
  <course>186.92</course>
  <speed>0.0282842712474619</speed>
  <fix>3d</fix>
</trkpt>
<trkpt lat="33.810313" lon="-118.393867">
  <ele>-0.12</ele>
  <time>2026-09-01T01:12:09Z</time>
  <course>0.0</course>
  <speed>0.0</speed>
  <fix>3d</fix>
</trkpt>
<trkpt lat="33.8103132" lon="-118.3938671">
  <ele>-0.126</ele>
  <time>2026-09-01T01:12:09Z</time>
  <course>186.92</course>
  <speed>0.0282842712474619</speed>
  <fix>3d</fix>
</trkpt>
<trkpt lat="33.810313" lon="-118.393867">
  <ele>-0.12</ele>
  <time>2026-09-01T01:12:09Z</time>
  <course>0.0</course>
  <speed>0.0</speed>
  <fix>3d</fix>
</trkpt>
<trkpt lat="33.8103132" lon="-118.3938671">
  <ele>-0.125</ele>
  <time>2026-09-01T01:12:09Z</time>
  <course>186.92</course>
  <speed>0.0282842712474619</speed>
  <fix>3d</fix>
</trkpt>
<trkpt lat="33.810313" lon="-118.393867">
  <ele>-0.12</ele>
  <time>2026-09-01T01:12:09Z</time>
  <course>0.0</course>
  <speed>0.0</speed>
  <fix>3d</fix>
</trkpt>
<trkpt lat="33.8103132" lon="-118.3938671">
  <ele>-0.124</ele>
  <time>2026-09-01T01:12:09Z</time>
  <course>186.91</course>
  <speed>0.0282842712474619</speed>
  <fix>3d</fix>
</trkpt>
<trkpt lat="33.810313" lon="-118.393867">
  <ele>-0.12</ele>
  <time>2026-09-01T01:12:09Z</time>
  <course>0.0</course>
  <speed>0.0</speed>
  <fix>3d</fix>
</trkpt>
<trkpt lat="33.8103132" lon="-118.3938671">
  <ele>-0.122</ele>
  <time>2026-09-01T01:12:09Z</time>
  <course>186.91</course>
  <speed>0.0282842712474619</speed>
  <fix>3d</fix>
</trkpt>
<trkpt lat="33.810313" lon="-118.393867">
  <ele>-0.12</ele>
  <time>2026-09-01T01:12:09Z</time>
  <course>0.0</course>
  <speed>0.0</speed>
  <fix>3d</fix>
</trkpt>
<trkpt lat="33.8103132" lon="-118.3938671">
  <ele>-0.121</ele>
  <time>2026-09-01T01:12:09Z</time>
  <course>186.91</course>
  <speed>0.0282842712474619</speed>
  <fix>3d</fix>
</trkpt>
<trkpt lat="33.810313" lon="-118.393867">
  <ele>-0.12</ele>
  <time>2026-09-01T01:12:09Z</time>
  <course>0.0</course>
  <speed>0.0</speed>
  <fix>3d</fix>
</trkpt>
<trkpt lat="33.8103132" lon="-118.3938671">
  <ele>-0.12</ele>
  <time>2026-09-01T01:12:09Z</time>
  <course>186.9</course>
  <speed>0.0282842712474619</speed>
  <fix>3d</fix>
</trkpt>
<trkpt lat="33.810313" lon="-118.393867">
  <ele>-0.12</ele>
  <time>2026-09-01T01:12:09Z</time>
  <course>0.0</course>
  <speed>0.0</speed>
  <fix>3d</fix>
</trkpt>
<trkpt lat="33.8103132" lon="-118.3938671">
  <ele>-0.119</ele>
  <time>2026-09-01T01:12:09Z</time>
  <course>186.9</course>
  <speed>0.022360679774997897</speed>
  <fix>3d</fix>
</trkpt>
<trkpt lat="33.810313" lon="-118.393867">
  <ele>-0.12</ele>
  <time>2026-09-01T01:12:09Z</time>
  <course>0.0</course>
  <speed>0.0</speed>
  <fix>3d</fix>
</trkpt>
<trkpt lat="33.8103131" lon="-118.3938671">
  <ele>-0.118</ele>
  <time>2026-09-01T01:12:09Z</time>
  <course>186.89</course>
  <speed>0.022360679774997897</speed>
  <fix>3d</fix>
</trkpt>
<trkpt lat="33.810313" lon="-118.393867">
  <ele>-0.12</ele>
  <time>2026-09-01T01:12:09Z</time>
  <course>0.0</course>
  <speed>0.0</speed>
  <fix>3d</fix>
</trkpt>
<trkpt lat="33.8103131" lon="-118.3938671">
  <ele>-0.119</ele>
  <time>2026-09-01T01:12:09Z</time>
  <course>186.89</course>
  <speed>0.022360679774997897</speed>
  <fix>3d</fix>
</trkpt>
<trkpt lat="33.810313" lon="-118.393867">
  <ele>-0.12</ele>
  <time>2026-09-01T01:12:09Z</time>
  <course>0.0</course>
  <speed>0.0</speed>
  <fix>3d</fix>
</trkpt>
<trkpt lat="33.8103131" lon="-118.3938671">
  <ele>-0.119</ele>
  <time>2026-09-01T01:12:09Z</time>
  <course>186.89</course>
  <speed>0.022360679774997897</speed>
  <fix>3d</fix>
</trkpt>
<trkpt lat="33.810313" lon="-118.393867">
  <ele>-0.12</ele>
  <time>2026-09-01T01:12:09Z</time>
  <course>0.0</course>
  <speed>0.0</speed>
  <fix>3d</fix>
</trkpt>
<trkpt lat="33.8103131" lon="-118.3938671">
  <ele>-0.119</ele>
  <time>2026-09-01T01:12:09Z</time>
  <course>186.88</course>
  <speed>0.022360679774997897</speed>
  <fix>3d</fix>
</trkpt>
<trkpt lat="33.810313" lon="-118.393867">
  <ele>-0.12</ele>
  <time>2026-09-01T01:12:09Z</time>
  <course>0.0</course>
  <speed>0.0</speed>
  <fix>3d</fix>
</trkpt>
<trkpt lat="33.8103131" lon="-118.3938671">
  <ele>-0.119</ele>
  <time>2026-09-01T01:12:09Z</time>
  <course>186.88</course>
  <speed>0.022360679774997897</speed>
  <fix>3d</fix>
</trkpt>
<trkpt lat="33.810313" lon="-118.393867">
  <ele>-0.12</ele>
  <time>2026-09-01T01:12:09Z</time>
  <course>0.0</course>
  <speed>0.0</speed>
  <fix>3d</fix>
</trkpt>
<trkpt lat="33.8103131" lon="-118.3938671">
  <ele>-0.119</ele>
  <time>2026-09-01T01:12:09Z</time>
  <course>186.88</course>
  <speed>0.022360679774997897</speed>
  <fix>3d</fix>
</trkpt>
<trkpt lat="33.810313" lon="-118.393867">
  <ele>-0.12</ele>
  <time>2026-09-01T01:12:09Z</time>
  <course>0.0</course>
  <speed>0.0</speed>
  <fix>3d</fix>
</trkpt>
<trkpt lat="33.8103131" lon="-118.3938671">
  <ele>-0.119</ele>
  <time>2026-09-01T01:12:09Z</time>
  <course>186.87</course>
  <speed>0.022360679774997897</speed>
  <fix>3d</fix>
</trkpt>
<trkpt lat="33.810313" lon="-118.393867">
  <ele>-0.12</ele>
  <time>2026-09-01T01:12:09Z</time>
  <course>0.0</course>
  <speed>0.0</speed>
  <fix>3d</fix>
</trkpt>
<trkpt lat="33.8103131" lon="-118.3938671">
  <ele>-0.121</ele>
  <time>2026-09-01T01:12:09Z</time>
  <course>186.87</course>
  <speed>0.022360679774997897</speed>
  <fix>3d</fix>
</trkpt>
<trkpt lat="33.810313" lon="-118.393867">
  <ele>-0.12</ele>
  <time>2026-09-01T01:12:09Z</time>
  <course>0.0</course>
  <speed>0.0</speed>
  <fix>3d</fix>
</trkpt>
<trkpt lat="33.8103131" lon="-118.3938671">
  <ele>-0.124</ele>
  <time>2026-09-01T01:12:09Z</time>
  <course>186.87</course>
  <speed>0.022360679774997897</speed>
  <fix>3d</fix>
</trkpt>
<trkpt lat="33.810313" lon="-118.393867">
  <ele>-0.12</ele>
  <time>2026-09-01T01:12:09Z</time>
  <course>0.0</course>
  <speed>0.0</speed>
  <fix>3d</fix>
</trkpt>
<trkpt lat="33.8103131" lon="-118.3938671">
  <ele>-0.126</ele>
  <time>2026-09-01T01:12:09Z</time>
  <course>186.87</course>
  <speed>0.022360679774997897</speed>
  <fix>3d</fix>
</trkpt>
<trkpt lat="33.810313" lon="-118.393867">
  <ele>-0.12</ele>
  <time>2026-09-01T01:12:09Z</time>
  <course>0.0</course>
  <speed>0.0</speed>
  <fix>3d</fix>
</trkpt>
<trkpt lat="33.8103131" lon="-118.3938671">
  <ele>-0.128</ele>
  <time>2026-09-01T01:12:09Z</time>
  <course>186.86</course>
  <speed>0.022360679774997897</speed>
  <fix>3d</fix>
</trkpt>
<trkpt lat="33.810313" lon="-118.393867">
  <ele>-0.12</ele>
  <time>2026-09-01T01:12:09Z</time>
  <course>0.0</course>
  <speed>0.0</speed>
  <fix>3d</fix>
</trkpt>
<trkpt lat="33.8103131" lon="-118.3938671">
  <ele>-0.131</ele>
  <time>2026-09-01T01:12:09Z</time>
  <course>186.86</course>
  <speed>0.022360679774997897</speed>
  <fix>3d</fix>
</trkpt>
<trkpt lat="33.810313" lon="-118.393867">
  <ele>-0.12</ele>
  <time>2026-09-01T01:12:09Z</time>
  <course>0.0</course>
  <speed>0.0</speed>
  <fix>3d</fix>
</trkpt>
<trkpt lat="33.8103131" lon="-118.3938671">
  <ele>-0.133</ele>
  <time>2026-09-01T01:12:09Z</time>
  <course>186.86</course>
  <speed>0.022360679774997897</speed>
  <fix>3d</fix>
</trkpt>
<trkpt lat="33.810313" lon="-118.393867">
  <ele>-0.12</ele>
  <time>2026-09-01T01:12:09Z</time>
  <course>0.0</course>
  <speed>0.0</speed>
  <fix>3d</fix>
</trkpt>
<trkpt lat="33.8103131" lon="-118.3938671">
  <ele>-0.133</ele>
  <time>2026-09-01T01:12:09Z</time>
  <course>186.85</course>
  <speed>0.022360679774997897</speed>
  <fix>3d</fix>
</trkpt>
<trkpt lat="33.810313" lon="-118.393867">
  <ele>-0.12</ele>
  <time>2026-09-01T01:12:09Z</time>
  <course>0.0</course>
  <speed>0.0</speed>
  <fix>3d</fix>
</trkpt>
<trkpt lat="33.8103131" lon="-118.3938671">
  <ele>-0.132</ele>
  <time>2026-09-01T01:12:09Z</time>
  <course>186.85</course>
  <speed>0.022360679774997897</speed>
  <fix>3d</fix>
</trkpt>
<trkpt lat="33.810313" lon="-118.393867">
  <ele>-0.12</ele>
  <time>2026-09-01T01:12:09Z</time>
  <course>0.0</course>
  <speed>0.0</speed>
  <fix>3d</fix>
</trkpt>
<trkpt lat="33.8103131" lon="-118.3938671">
  <ele>-0.131</ele>
  <time>2026-09-01T01:12:09Z</time>
  <course>186.85</course>
  <speed>0.022360679774997897</speed>
  <fix>3d</fix>
</trkpt>
<trkpt lat="33.810313" lon="-118.393867">
  <ele>-0.12</ele>
  <time>2026-09-01T01:12:09Z</time>
  <course>0.0</course>
  <speed>0.0</speed>
  <fix>3d</fix>
</trkpt>
<trkpt lat="33.8103131" lon="-118.3938671">
  <ele>-0.129</ele>
  <time>2026-09-01T01:12:09Z</time>
  <course>186.84</course>
  <speed>0.022360679774997897</speed>
  <fix>3d</fix>
</trkpt>
<trkpt lat="33.810313" lon="-118.393867">
  <ele>-0.12</ele>
  <time>2026-09-01T01:12:09Z</time>
  <course>0.0</course>
  <speed>0.0</speed>
  <fix>3d</fix>
</trkpt>
<trkpt lat="33.8103131" lon="-118.3938671">
  <ele>-0.128</ele>
  <time>2026-09-01T01:12:09Z</time>
  <course>186.84</course>
  <speed>0.022360679774997897</speed>
  <fix>3d</fix>
</trkpt>
<trkpt lat="33.810313" lon="-118.393867">
  <ele>-0.12</ele>
  <time>2026-09-01T01:12:09Z</time>
  <course>0.0</course>
  <speed>0.0</speed>
  <fix>3d</fix>
</trkpt>
<trkpt lat="33.8103131" lon="-118.3938671">
  <ele>-0.128</ele>
  <time>2026-09-01T01:12:09Z</time>
  <course>186.84</course>
  <speed>0.022360679774997897</speed>
  <fix>3d</fix>
</trkpt>
<trkpt lat="33.810313" lon="-118.393867">
  <ele>-0.12</ele>
  <time>2026-09-01T01:12:09Z</time>
  <course>0.0</course>
  <speed>0.0</speed>
  <fix>3d</fix>
</trkpt>
<trkpt lat="33.8103131" lon="-118.3938671">
  <ele>-0.128</ele>
  <time>2026-09-01T01:12:09Z</time>
  <course>186.83</course>
  <speed>0.022360679774997897</speed>
  <fix>3d</fix>
</trkpt>
<trkpt lat="33.810313" lon="-118.393867">
  <ele>-0.12</ele>
  <time>2026-09-01T01:12:09Z</time>
  <course>0.0</course>
  <speed>0.0</speed>
  <fix>3d</fix>
</trkpt>
<trkpt lat="33.8103131" lon="-118.3938671">
  <ele>-0.128</ele>
  <time>2026-09-01T01:12:09Z</time>
  <course>186.83</course>
  <speed>0.022360679774997897</speed>
  <fix>3d</fix>
</trkpt>
<trkpt lat="33.810313" lon="-118.393867">
  <ele>-0.12</ele>
  <time>2026-09-01T01:12:09Z</time>
  <course>0.0</course>
  <speed>0.0</speed>
  <fix>3d</fix>
</trkpt>
<trkpt lat="33.8103131" lon="-118.3938671">
  <ele>-0.127</ele>
  <time>2026-09-01T01:12:09Z</time>
  <course>186.83</course>
  <speed>0.022360679774997897</speed>
  <fix>3d</fix>
</trkpt>
<trkpt lat="33.810313" lon="-118.393867">
  <ele>-0.12</ele>
  <time>2026-09-01T01:12:09Z</time>
  <course>0.0</course>
  <speed>0.0</speed>
  <fix>3d</fix>
</trkpt>
<trkpt lat="33.8103131" lon="-118.3938671">
  <ele>-0.126</ele>
  <time>2026-09-01T01:12:09Z</time>
  <course>186.82</course>
  <speed>0.022360679774997897</speed>
  <fix>3d</fix>
</trkpt>
<trkpt lat="33.810313" lon="-118.393867">
  <ele>-0.12</ele>
  <time>2026-09-01T01:12:09Z</time>
  <course>0.0</course>
  <speed>0.0</speed>
  <fix>3d</fix>
</trkpt>
<trkpt lat="33.8103131" lon="-118.3938671">
  <ele>-0.125</ele>
  <time>2026-09-01T01:12:09Z</time>
  <course>186.82</course>
  <speed>0.022360679774997897</speed>
  <fix>3d</fix>
</trkpt>
<trkpt lat="33.810313" lon="-118.393867">
  <ele>-0.12</ele>
  <time>2026-09-01T01:12:09Z</time>
  <course>0.0</course>
  <speed>0.0</speed>
  <fix>3d</fix>
</trkpt>
<trkpt lat="33.8103131" lon="-118.3938671">
  <ele>-0.124</ele>
  <time>2026-09-01T01:12:09Z</time>
  <course>186.82</course>
  <speed>0.022360679774997897</speed>
  <fix>3d</fix>
</trkpt>
<trkpt lat="33.810313" lon="-118.393867">
  <ele>-0.12</ele>
  <time>2026-09-01T01:12:09Z</time>
  <course>0.0</course>
  <speed>0.0</speed>
  <fix>3d</fix>
</trkpt>
<trkpt lat="33.8103131" lon="-118.3938671">
  <ele>-0.123</ele>
  <time>2026-09-01T01:12:09Z</time>
  <course>186.81</course>
  <speed>0.022360679774997897</speed>
  <fix>3d</fix>
</trkpt>
<trkpt lat="33.810313" lon="-118.393867">
  <ele>-0.12</ele>
  <time>2026-09-01T01:12:09Z</time>
  <course>0.0</course>
  <speed>0.0</speed>
  <fix>3d</fix>
</trkpt>
<trkpt lat="33.8103131" lon="-118.3938671">
  <ele>-0.122</ele>
  <time>2026-09-01T01:12:09Z</time>
  <course>186.81</course>
  <speed>0.022360679774997897</speed>
  <fix>3d</fix>
</trkpt>
<trkpt lat="33.810313" lon="-118.393867">
  <ele>-0.12</ele>
  <time>2026-09-01T01:12:09Z</time>
  <course>0.0</course>
  <speed>0.0</speed>
  <fix>3d</fix>
</trkpt>
<trkpt lat="33.8103131" lon="-118.3938671">
  <ele>-0.122</ele>
  <time>2026-09-01T01:12:09Z</time>
  <course>186.81</course>
  <speed>0.022360679774997897</speed>
  <fix>3d</fix>
</trkpt>
<trkpt lat="33.810313" lon="-118.393867">
  <ele>-0.12</ele>
  <time>2026-09-01T01:12:09Z</time>
  <course>0.0</course>
  <speed>0.0</speed>
  <fix>3d</fix>
</trkpt>
<trkpt lat="33.8103131" lon="-118.3938671">
  <ele>-0.122</ele>
  <time>2026-09-01T01:12:09Z</time>
  <course>186.81</course>
  <speed>0.022360679774997897</speed>
  <fix>3d</fix>
</trkpt>
<trkpt lat="33.810313" lon="-118.393867">
  <ele>-0.12</ele>
  <time>2026-09-01T01:12:09Z</time>
  <course>0.0</course>
  <speed>0.0</speed>
  <fix>3d</fix>
</trkpt>
<trkpt lat="33.8103131" lon="-118.3938671">
  <ele>-0.121</ele>
  <time>2026-09-01T01:12:09Z</time>
  <course>186.8</course>
  <speed>0.022360679774997897</speed>
  <fix>3d</fix>
</trkpt>
<trkpt lat="33.810313" lon="-118.393867">
  <ele>-0.12</ele>
  <time>2026-09-01T01:12:09Z</time>
  <course>0.0</course>
  <speed>0.0</speed>
  <fix>3d</fix>
</trkpt>
<trkpt lat="33.8103131" lon="-118.3938671">
  <ele>-0.122</ele>
  <time>2026-09-01T01:12:09Z</time>
  <course>186.8</course>
  <speed>0.022360679774997897</speed>
  <fix>3d</fix>
</trkpt>
<trkpt lat="33.810313" lon="-118.393867">
  <ele>-0.12</ele>
  <time>2026-09-01T01:12:09Z</time>
  <course>0.0</course>
  <speed>0.0</speed>
  <fix>3d</fix>
</trkpt>
<trkpt lat="33.8103131" lon="-118.3938671">
  <ele>-0.122</ele>
  <time>2026-09-01T01:12:09Z</time>
  <course>186.8</course>
  <speed>0.022360679774997897</speed>
  <fix>3d</fix>
</trkpt>
<trkpt lat="33.810313" lon="-118.393867">
  <ele>-0.12</ele>
  <time>2026-09-01T01:12:09Z</time>
  <course>0.0</course>
  <speed>0.0</speed>
  <fix>3d</fix>
</trkpt>
<trkpt lat="33.8103131" lon="-118.3938671">
  <ele>-0.122</ele>
  <time>2026-09-01T01:12:09Z</time>
  <course>186.79</course>
  <speed>0.022360679774997897</speed>
  <fix>3d</fix>
</trkpt>
<trkpt lat="33.810313" lon="-118.393867">
  <ele>-0.12</ele>
  <time>2026-09-01T01:12:09Z</time>
  <course>0.0</course>
  <speed>0.0</speed>
  <fix>3d</fix>
</trkpt>
<trkpt lat="33.8103131" lon="-118.3938671">
  <ele>-0.122</ele>
  <time>2026-09-01T01:12:09Z</time>
  <course>186.79</course>
  <speed>0.022360679774997897</speed>
  <fix>3d</fix>
</trkpt>
<trkpt lat="33.810313" lon="-118.393867">
  <ele>-0.12</ele>
  <time>2026-09-01T01:12:09Z</time>
  <course>0.0</course>
  <speed>0.0</speed>
  <fix>3d</fix>
</trkpt>
<trkpt lat="33.8103131" lon="-118.3938671">
  <ele>-0.122</ele>
  <time>2026-09-01T01:12:09Z</time>
  <course>186.79</course>
  <speed>0.022360679774997897</speed>
  <fix>3d</fix>
</trkpt>
<trkpt lat="33.810313" lon="-118.393867">
  <ele>-0.12</ele>
  <time>2026-09-01T01:12:09Z</time>
  <course>0.0</course>
  <speed>0.0</speed>
  <fix>3d</fix>
</trkpt>
<trkpt lat="33.8103131" lon="-118.3938671">
  <ele>-0.121</ele>
  <time>2026-09-01T01:12:09Z</time>
  <course>186.79</course>
  <speed>0.022360679774997897</speed>
  <fix>3d</fix>
</trkpt>
<trkpt lat="33.810313" lon="-118.393867">
  <ele>-0.12</ele>
  <time>2026-09-01T01:12:09Z</time>
  <course>0.0</course>
  <speed>0.0</speed>
  <fix>3d</fix>
</trkpt>
<trkpt lat="33.8103131" lon="-118.3938671">
  <ele>-0.12</ele>
  <time>2026-09-01T01:12:09Z</time>
  <course>186.78</course>
  <speed>0.022360679774997897</speed>
  <fix>3d</fix>
</trkpt>
<trkpt lat="33.810313" lon="-118.393867">
  <ele>-0.12</ele>
  <time>2026-09-01T01:12:09Z</time>
  <course>0.0</course>
  <speed>0.0</speed>
  <fix>3d</fix>
</trkpt>
<trkpt lat="33.8103131" lon="-118.3938671">
  <ele>-0.12</ele>
  <time>2026-09-01T01:12:09Z</time>
  <course>186.78</course>
  <speed>0.022360679774997897</speed>
  <fix>3d</fix>
</trkpt>
<trkpt lat="33.810313" lon="-118.393867">
  <ele>-0.12</ele>
  <time>2026-09-01T01:12:09Z</time>
  <course>0.0</course>
  <speed>0.0</speed>
  <fix>3d</fix>
</trkpt>
<trkpt lat="33.8103131" lon="-118.3938671">
  <ele>-0.12</ele>
  <time>2026-09-01T01:12:09Z</time>
  <course>186.78</course>
  <speed>0.022360679774997897</speed>
  <fix>3d</fix>
</trkpt>
<trkpt lat="33.810313" lon="-118.393867">
  <ele>-0.12</ele>
  <time>2026-09-01T01:12:09Z</time>
  <course>0.0</course>
  <speed>0.0</speed>
  <fix>3d</fix>
</trkpt>
<trkpt lat="33.8103131" lon="-118.3938671">
  <ele>-0.122</ele>
  <time>2026-09-01T01:12:09Z</time>
  <course>186.77</course>
  <speed>0.022360679774997897</speed>
  <fix>3d</fix>
</trkpt>
<trkpt lat="33.810313" lon="-118.393867">
  <ele>-0.12</ele>
  <time>2026-09-01T01:12:09Z</time>
  <course>0.0</course>
  <speed>0.0</speed>
  <fix>3d</fix>
</trkpt>
<trkpt lat="33.8103131" lon="-118.3938671">
  <ele>-0.125</ele>
  <time>2026-09-01T01:12:09Z</time>
  <course>186.77</course>
  <speed>0.022360679774997897</speed>
  <fix>3d</fix>
</trkpt>
<trkpt lat="33.810313" lon="-118.393867">
  <ele>-0.12</ele>
  <time>2026-09-01T01:12:09Z</time>
  <course>0.0</course>
  <speed>0.0</speed>
  <fix>3d</fix>
</trkpt>
<trkpt lat="33.8103131" lon="-118.3938671">
  <ele>-0.128</ele>
  <time>2026-09-01T01:12:09Z</time>
  <course>186.77</course>
  <speed>0.022360679774997897</speed>
  <fix>3d</fix>
</trkpt>
<trkpt lat="33.810313" lon="-118.393867">
  <ele>-0.12</ele>
  <time>2026-09-01T01:12:09Z</time>
  <course>0.0</course>
  <speed>0.0</speed>
  <fix>3d</fix>
</trkpt>
<trkpt lat="33.8103131" lon="-118.3938671">
  <ele>-0.13</ele>
  <time>2026-09-01T01:12:09Z</time>
  <course>186.77</course>
  <speed>0.022360679774997897</speed>
  <fix>3d</fix>
</trkpt>
<trkpt lat="33.810313" lon="-118.393867">
  <ele>-0.12</ele>
  <time>2026-09-01T01:12:09Z</time>
  <course>0.0</course>
  <speed>0.0</speed>
  <fix>3d</fix>
</trkpt>
<trkpt lat="33.8103131" lon="-118.3938671">
  <ele>-0.13</ele>
  <time>2026-09-01T01:12:09Z</time>
  <course>186.76</course>
  <speed>0.022360679774997897</speed>
  <fix>3d</fix>
</trkpt>
<trkpt lat="33.810313" lon="-118.393867">
  <ele>-0.12</ele>
  <time>2026-09-01T01:12:09Z</time>
  <course>0.0</course>
  <speed>0.0</speed>
  <fix>3d</fix>
</trkpt>
<trkpt lat="33.8103131" lon="-118.3938671">
  <ele>-0.129</ele>
  <time>2026-09-01T01:12:09Z</time>
  <course>186.76</course>
  <speed>0.022360679774997897</speed>
  <fix>3d</fix>
</trkpt>
<trkpt lat="33.810313" lon="-118.393867">
  <ele>-0.12</ele>
  <time>2026-09-01T01:12:09Z</time>
  <course>0.0</course>
  <speed>0.0</speed>
  <fix>3d</fix>
</trkpt>
<trkpt lat="33.8103131" lon="-118.3938671">
  <ele>-0.127</ele>
  <time>2026-09-01T01:12:09Z</time>
  <course>186.76</course>
  <speed>0.022360679774997897</speed>
  <fix>3d</fix>
</trkpt>
<trkpt lat="33.810313" lon="-118.393867">
  <ele>-0.12</ele>
  <time>2026-09-01T01:12:09Z</time>
  <course>0.0</course>
  <speed>0.0</speed>
  <fix>3d</fix>
</trkpt>
<trkpt lat="33.8103131" lon="-118.3938671">
  <ele>-0.125</ele>
  <time>2026-09-01T01:12:09Z</time>
  <course>186.75</course>
  <speed>0.022360679774997897</speed>
  <fix>3d</fix>
</trkpt>
<trkpt lat="33.810313" lon="-118.393867">
  <ele>-0.12</ele>
  <time>2026-09-01T01:12:09Z</time>
  <course>0.0</course>
  <speed>0.0</speed>
  <fix>3d</fix>
</trkpt>
<trkpt lat="33.8103131" lon="-118.3938671">
  <ele>-0.124</ele>
  <time>2026-09-01T01:12:09Z</time>
  <course>186.75</course>
  <speed>0.022360679774997897</speed>
  <fix>3d</fix>
</trkpt>
<trkpt lat="33.810313" lon="-118.393867">
  <ele>-0.12</ele>
  <time>2026-09-01T01:12:09Z</time>
  <course>0.0</course>
  <speed>0.0</speed>
  <fix>3d</fix>
</trkpt>
<trkpt lat="33.8103131" lon="-118.3938671">
  <ele>-0.124</ele>
  <time>2026-09-01T01:12:09Z</time>
  <course>186.75</course>
  <speed>0.022360679774997897</speed>
  <fix>3d</fix>
</trkpt>
<trkpt lat="33.810313" lon="-118.393867">
  <ele>-0.12</ele>
  <time>2026-09-01T01:12:09Z</time>
  <course>0.0</course>
  <speed>0.0</speed>
  <fix>3d</fix>
</trkpt>
<trkpt lat="33.8103131" lon="-118.3938671">
  <ele>-0.123</ele>
  <time>2026-09-01T01:12:09Z</time>
  <course>186.75</course>
  <speed>0.022360679774997897</speed>
  <fix>3d</fix>
</trkpt>
<trkpt lat="33.810313" lon="-118.393867">
  <ele>-0.12</ele>
  <time>2026-09-01T01:12:09Z</time>
  <course>0.0</course>
  <speed>0.0</speed>
  <fix>3d</fix>
</trkpt>
<trkpt lat="33.8103131" lon="-118.3938671">
  <ele>-0.122</ele>
  <time>2026-09-01T01:12:09Z</time>
  <course>186.74</course>
  <speed>0.022360679774997897</speed>
  <fix>3d</fix>
</trkpt>
<trkpt lat="33.810313" lon="-118.393867">
  <ele>-0.12</ele>
  <time>2026-09-01T01:12:09Z</time>
  <course>0.0</course>
  <speed>0.0</speed>
  <fix>3d</fix>
</trkpt>
<trkpt lat="33.8103131" lon="-118.3938671">
  <ele>-0.122</ele>
  <time>2026-09-01T01:12:09Z</time>
  <course>186.74</course>
  <speed>0.022360679774997897</speed>
  <fix>3d</fix>
</trkpt>
<trkpt lat="33.810313" lon="-118.393867">
  <ele>-0.12</ele>
  <time>2026-09-01T01:12:09Z</time>
  <course>0.0</course>
  <speed>0.0</speed>
  <fix>3d</fix>
</trkpt>
<trkpt lat="33.8103131" lon="-118.3938671">
  <ele>-0.122</ele>
  <time>2026-09-01T01:12:09Z</time>
  <course>186.74</course>
  <speed>0.022360679774997897</speed>
  <fix>3d</fix>
</trkpt>
<trkpt lat="33.810313" lon="-118.393867">
  <ele>-0.12</ele>
  <time>2026-09-01T01:12:09Z</time>
  <course>0.0</course>
  <speed>0.0</speed>
  <fix>3d</fix>
</trkpt>
<trkpt lat="33.8103131" lon="-118.3938671">
  <ele>-0.122</ele>
  <time>2026-09-01T01:12:09Z</time>
  <course>186.74</course>
  <speed>0.022360679774997897</speed>
  <fix>3d</fix>
</trkpt>
<trkpt lat="33.810313" lon="-118.393867">
  <ele>-0.12</ele>
  <time>2026-09-01T01:12:09Z</time>
  <course>0.0</course>
  <speed>0.0</speed>
  <fix>3d</fix>
</trkpt>
<trkpt lat="33.8103131" lon="-118.3938671">
  <ele>-0.121</ele>
  <time>2026-09-01T01:12:09Z</time>
  <course>186.73</course>
  <speed>0.022360679774997897</speed>
  <fix>3d</fix>
</trkpt>
<trkpt lat="33.810313" lon="-118.393867">
  <ele>-0.12</ele>
  <time>2026-09-01T01:12:09Z</time>
  <course>0.0</course>
  <speed>0.0</speed>
  <fix>3d</fix>
</trkpt>
<trkpt lat="33.8103131" lon="-118.3938671">
  <ele>-0.12</ele>
  <time>2026-09-01T01:12:09Z</time>
  <course>186.73</course>
  <speed>0.022360679774997897</speed>
  <fix>3d</fix>
</trkpt>
<trkpt lat="33.810313" lon="-118.393867">
  <ele>-0.12</ele>
  <time>2026-09-01T01:12:09Z</time>
  <course>0.0</course>
  <speed>0.0</speed>
  <fix>3d</fix>
</trkpt>
<trkpt lat="33.8103131" lon="-118.3938671">
  <ele>-0.12</ele>
  <time>2026-09-01T01:12:09Z</time>
  <course>186.73</course>
  <speed>0.022360679774997897</speed>
  <fix>3d</fix>
</trkpt>
<trkpt lat="33.810313" lon="-118.393867">
  <ele>-0.12</ele>
  <time>2026-09-01T01:12:09Z</time>
  <course>0.0</course>
  <speed>0.0</speed>
  <fix>3d</fix>
</trkpt>
<trkpt lat="33.8103131" lon="-118.3938671">
  <ele>-0.12</ele>
  <time>2026-09-01T01:12:09Z</time>
  <course>186.72</course>
  <speed>0.022360679774997897</speed>
  <fix>3d</fix>
</trkpt>
<trkpt lat="33.810313" lon="-118.393867">
  <ele>-0.12</ele>
  <time>2026-09-01T01:12:09Z</time>
  <course>0.0</course>
  <speed>0.0</speed>
  <fix>3d</fix>
</trkpt>
<trkpt lat="33.8103131" lon="-118.3938671">
  <ele>-0.121</ele>
  <time>2026-09-01T01:12:09Z</time>
  <course>186.72</course>
  <speed>0.022360679774997897</speed>
  <fix>3d</fix>
</trkpt>
<trkpt lat="33.810313" lon="-118.393867">
  <ele>-0.12</ele>
  <time>2026-09-01T01:12:09Z</time>
  <course>0.0</course>
  <speed>0.0</speed>
  <fix>3d</fix>
</trkpt>
<trkpt lat="33.8103131" lon="-118.3938671">
  <ele>-0.123</ele>
  <time>2026-09-01T01:12:09Z</time>
  <course>186.72</course>
  <speed>0.022360679774997897</speed>
  <fix>3d</fix>
</trkpt>
<trkpt lat="33.810313" lon="-118.393867">
  <ele>-0.12</ele>
  <time>2026-09-01T01:12:09Z</time>
  <course>0.0</course>
  <speed>0.0</speed>
  <fix>3d</fix>
</trkpt>
<trkpt lat="33.8103131" lon="-118.3938671">
  <ele>-0.125</ele>
  <time>2026-09-01T01:12:09Z</time>
  <course>186.72</course>
  <speed>0.022360679774997897</speed>
  <fix>3d</fix>
</trkpt>
<trkpt lat="33.810313" lon="-118.393867">
  <ele>-0.12</ele>
  <time>2026-09-01T01:12:09Z</time>
  <course>0.0</course>
  <speed>0.0</speed>
  <fix>3d</fix>
</trkpt>
<trkpt lat="33.8103131" lon="-118.3938671">
  <ele>-0.127</ele>
  <time>2026-09-01T01:12:09Z</time>
  <course>186.71</course>
  <speed>0.022360679774997897</speed>
  <fix>3d</fix>
</trkpt>
<trkpt lat="33.810313" lon="-118.393867">
  <ele>-0.12</ele>
  <time>2026-09-01T01:12:09Z</time>
  <course>0.0</course>
  <speed>0.0</speed>
  <fix>3d</fix>
</trkpt>
<trkpt lat="33.8103131" lon="-118.3938671">
  <ele>-0.127</ele>
  <time>2026-09-01T01:12:09Z</time>
  <course>186.71</course>
  <speed>0.022360679774997897</speed>
  <fix>3d</fix>
</trkpt>
<trkpt lat="33.810313" lon="-118.393867">
  <ele>-0.12</ele>
  <time>2026-09-01T01:12:09Z</time>
  <course>0.0</course>
  <speed>0.0</speed>
  <fix>3d</fix>
</trkpt>
<trkpt lat="33.8103131" lon="-118.3938671">
  <ele>-0.128</ele>
  <time>2026-09-01T01:12:09Z</time>
  <course>186.71</course>
  <speed>0.022360679774997897</speed>
  <fix>3d</fix>
</trkpt>
<trkpt lat="33.810313" lon="-118.393867">
  <ele>-0.12</ele>
  <time>2026-09-01T01:12:09Z</time>
  <course>0.0</course>
  <speed>0.0</speed>
  <fix>3d</fix>
</trkpt>
<trkpt lat="33.8103131" lon="-118.3938671">
  <ele>-0.127</ele>
  <time>2026-09-01T01:12:09Z</time>
  <course>186.71</course>
  <speed>0.022360679774997897</speed>
  <fix>3d</fix>
</trkpt>
<trkpt lat="33.810313" lon="-118.393867">
  <ele>-0.12</ele>
  <time>2026-09-01T01:12:09Z</time>
  <course>0.0</course>
  <speed>0.0</speed>
  <fix>3d</fix>
</trkpt>
<trkpt lat="33.8103131" lon="-118.3938671">
  <ele>-0.125</ele>
  <time>2026-09-01T01:12:09Z</time>
  <course>186.7</course>
  <speed>0.022360679774997897</speed>
  <fix>3d</fix>
</trkpt>
<trkpt lat="33.810313" lon="-118.393867">
  <ele>-0.12</ele>
  <time>2026-09-01T01:12:09Z</time>
  <course>0.0</course>
  <speed>0.0</speed>
  <fix>3d</fix>
</trkpt>
<trkpt lat="33.8103131" lon="-118.3938671">
  <ele>-0.125</ele>
  <time>2026-09-01T01:12:09Z</time>
  <course>186.7</course>
  <speed>0.022360679774997897</speed>
  <fix>3d</fix>
</trkpt>
<trkpt lat="33.810313" lon="-118.393867">
  <ele>-0.12</ele>
  <time>2026-09-01T01:12:09Z</time>
  <course>0.0</course>
  <speed>0.0</speed>
  <fix>3d</fix>
</trkpt>
<trkpt lat="33.8103131" lon="-118.3938671">
  <ele>-0.125</ele>
  <time>2026-09-01T01:12:09Z</time>
  <course>186.7</course>
  <speed>0.022360679774997897</speed>
  <fix>3d</fix>
</trkpt>
<trkpt lat="33.810313" lon="-118.393867">
  <ele>-0.12</ele>
  <time>2026-09-01T01:12:09Z</time>
  <course>0.0</course>
  <speed>0.0</speed>
  <fix>3d</fix>
</trkpt>
<trkpt lat="33.8103131" lon="-118.3938671">
  <ele>-0.126</ele>
  <time>2026-09-01T01:12:09Z</time>
  <course>186.7</course>
  <speed>0.022360679774997897</speed>
  <fix>3d</fix>
</trkpt>
<trkpt lat="33.810313" lon="-118.393867">
  <ele>-0.12</ele>
  <time>2026-09-01T01:12:09Z</time>
  <course>0.0</course>
  <speed>0.0</speed>
  <fix>3d</fix>
</trkpt>
<trkpt lat="33.8103131" lon="-118.3938671">
  <ele>-0.128</ele>
  <time>2026-09-01T01:12:09Z</time>
  <course>186.69</course>
  <speed>0.022360679774997897</speed>
  <fix>3d</fix>
</trkpt>
<trkpt lat="33.810313" lon="-118.393867">
  <ele>-0.12</ele>
  <time>2026-09-01T01:12:09Z</time>
  <course>0.0</course>
  <speed>0.0</speed>
  <fix>3d</fix>
</trkpt>
<trkpt lat="33.8103131" lon="-118.3938671">
  <ele>-0.131</ele>
  <time>2026-09-01T01:12:09Z</time>
  <course>186.69</course>
  <speed>0.022360679774997897</speed>
  <fix>3d</fix>
</trkpt>
<trkpt lat="33.810313" lon="-118.393867">
  <ele>-0.12</ele>
  <time>2026-09-01T01:12:09Z</time>
  <course>0.0</course>
  <speed>0.0</speed>
  <fix>3d</fix>
</trkpt>
<trkpt lat="33.8103131" lon="-118.3938671">
  <ele>-0.133</ele>
  <time>2026-09-01T01:12:09Z</time>
  <course>186.69</course>
  <speed>0.022360679774997897</speed>
  <fix>3d</fix>
</trkpt>
<trkpt lat="33.810313" lon="-118.393867">
  <ele>-0.12</ele>
  <time>2026-09-01T01:12:09Z</time>
  <course>0.0</course>
  <speed>0.0</speed>
  <fix>3d</fix>
</trkpt>
<trkpt lat="33.8103131" lon="-118.3938671">
  <ele>-0.133</ele>
  <time>2026-09-01T01:12:09Z</time>
  <course>186.69</course>
  <speed>0.022360679774997897</speed>
  <fix>3d</fix>
</trkpt>
<trkpt lat="33.810313" lon="-118.393867">
  <ele>-0.12</ele>
  <time>2026-09-01T01:12:09Z</time>
  <course>0.0</course>
  <speed>0.0</speed>
  <fix>3d</fix>
</trkpt>
<trkpt lat="33.8103131" lon="-118.3938671">
  <ele>-0.132</ele>
  <time>2026-09-01T01:12:09Z</time>
  <course>186.68</course>
  <speed>0.022360679774997897</speed>
  <fix>3d</fix>
</trkpt>
<trkpt lat="33.810313" lon="-118.393867">
  <ele>-0.12</ele>
  <time>2026-09-01T01:12:09Z</time>
  <course>0.0</course>
  <speed>0.0</speed>
  <fix>3d</fix>
</trkpt>
<trkpt lat="33.8103131" lon="-118.3938671">
  <ele>-0.132</ele>
  <time>2026-09-01T01:12:09Z</time>
  <course>186.68</course>
  <speed>0.022360679774997897</speed>
  <fix>3d</fix>
</trkpt>
<trkpt lat="33.810313" lon="-118.393867">
  <ele>-0.12</ele>
  <time>2026-09-01T01:12:09Z</time>
  <course>0.0</course>
  <speed>0.0</speed>
  <fix>3d</fix>
</trkpt>
<trkpt lat="33.8103131" lon="-118.3938671">
  <ele>-0.131</ele>
  <time>2026-09-01T01:12:09Z</time>
  <course>186.68</course>
  <speed>0.022360679774997897</speed>
  <fix>3d</fix>
</trkpt>
<trkpt lat="33.810313" lon="-118.393867">
  <ele>-0.12</ele>
  <time>2026-09-01T01:12:09Z</time>
  <course>0.0</course>
  <speed>0.0</speed>
  <fix>3d</fix>
</trkpt>
<trkpt lat="33.8103131" lon="-118.3938671">
  <ele>-0.13</ele>
  <time>2026-09-01T01:12:09Z</time>
  <course>186.68</course>
  <speed>0.022360679774997897</speed>
  <fix>3d</fix>
</trkpt>
<trkpt lat="33.810313" lon="-118.393867">
  <ele>-0.12</ele>
  <time>2026-09-01T01:12:09Z</time>
  <course>0.0</course>
  <speed>0.0</speed>
  <fix>3d</fix>
</trkpt>
<trkpt lat="33.8103131" lon="-118.3938671">
  <ele>-0.13</ele>
  <time>2026-09-01T01:12:09Z</time>
  <course>186.67</course>
  <speed>0.022360679774997897</speed>
  <fix>3d</fix>
</trkpt>
<trkpt lat="33.810313" lon="-118.393867">
  <ele>-0.12</ele>
  <time>2026-09-01T01:12:09Z</time>
  <course>0.0</course>
  <speed>0.0</speed>
  <fix>3d</fix>
</trkpt>
<trkpt lat="33.8103131" lon="-118.3938671">
  <ele>-0.13</ele>
  <time>2026-09-01T01:12:09Z</time>
  <course>186.67</course>
  <speed>0.022360679774997897</speed>
  <fix>3d</fix>
</trkpt>
<trkpt lat="33.810313" lon="-118.393867">
  <ele>-0.12</ele>
  <time>2026-09-01T01:12:09Z</time>
  <course>0.0</course>
  <speed>0.0</speed>
  <fix>3d</fix>
</trkpt>
<trkpt lat="33.8103131" lon="-118.3938671">
  <ele>-0.129</ele>
  <time>2026-09-01T01:12:09Z</time>
  <course>186.67</course>
  <speed>0.022360679774997897</speed>
  <fix>3d</fix>
</trkpt>
<trkpt lat="33.810313" lon="-118.393867">
  <ele>-0.12</ele>
  <time>2026-09-01T01:12:09Z</time>
  <course>0.0</course>
  <speed>0.0</speed>
  <fix>3d</fix>
</trkpt>
<trkpt lat="33.8103131" lon="-118.3938671">
  <ele>-0.13</ele>
  <time>2026-09-01T01:12:09Z</time>
  <course>186.67</course>
  <speed>0.022360679774997897</speed>
  <fix>3d</fix>
</trkpt>
<trkpt lat="33.810313" lon="-118.393867">
  <ele>-0.12</ele>
  <time>2026-09-01T01:12:09Z</time>
  <course>0.0</course>
  <speed>0.0</speed>
  <fix>3d</fix>
</trkpt>
<trkpt lat="33.8103131" lon="-118.3938671">
  <ele>-0.13</ele>
  <time>2026-09-01T01:12:09Z</time>
  <course>186.67</course>
  <speed>0.022360679774997897</speed>
  <fix>3d</fix>
</trkpt>
<trkpt lat="33.810313" lon="-118.393867">
  <ele>-0.12</ele>
  <time>2026-09-01T01:12:09Z</time>
  <course>0.0</course>
  <speed>0.0</speed>
  <fix>3d</fix>
</trkpt>
<trkpt lat="33.8103131" lon="-118.3938671">
  <ele>-0.129</ele>
  <time>2026-09-01T01:12:09Z</time>
  <course>186.66</course>
  <speed>0.022360679774997897</speed>
  <fix>3d</fix>
</trkpt>
<trkpt lat="33.810313" lon="-118.393867">
  <ele>-0.12</ele>
  <time>2026-09-01T01:12:09Z</time>
  <course>0.0</course>
  <speed>0.0</speed>
  <fix>3d</fix>
</trkpt>
<trkpt lat="33.8103131" lon="-118.3938671">
  <ele>-0.128</ele>
  <time>2026-09-01T01:12:09Z</time>
  <course>186.66</course>
  <speed>0.022360679774997897</speed>
  <fix>3d</fix>
</trkpt>
<trkpt lat="33.810313" lon="-118.393867">
  <ele>-0.12</ele>
  <time>2026-09-01T01:12:09Z</time>
  <course>0.0</course>
  <speed>0.0</speed>
  <fix>3d</fix>
</trkpt>
<trkpt lat="33.8103131" lon="-118.3938671">
  <ele>-0.126</ele>
  <time>2026-09-01T01:12:09Z</time>
  <course>186.66</course>
  <speed>0.022360679774997897</speed>
  <fix>3d</fix>
</trkpt>
<trkpt lat="33.810313" lon="-118.393867">
  <ele>-0.12</ele>
  <time>2026-09-01T01:12:09Z</time>
  <course>0.0</course>
  <speed>0.0</speed>
  <fix>3d</fix>
</trkpt>
<trkpt lat="33.8103131" lon="-118.3938671">
  <ele>-0.124</ele>
  <time>2026-09-01T01:12:09Z</time>
  <course>186.66</course>
  <speed>0.022360679774997897</speed>
  <fix>3d</fix>
</trkpt>
<trkpt lat="33.810313" lon="-118.393867">
  <ele>-0.12</ele>
  <time>2026-09-01T01:12:09Z</time>
  <course>0.0</course>
  <speed>0.0</speed>
  <fix>3d</fix>
</trkpt>
<trkpt lat="33.8103131" lon="-118.3938671">
  <ele>-0.122</ele>
  <time>2026-09-01T01:12:09Z</time>
  <course>186.65</course>
  <speed>0.022360679774997897</speed>
  <fix>3d</fix>
</trkpt>
<trkpt lat="33.810313" lon="-118.393867">
  <ele>-0.12</ele>
  <time>2026-09-01T01:12:09Z</time>
  <course>0.0</course>
  <speed>0.0</speed>
  <fix>3d</fix>
</trkpt>
<trkpt lat="33.8103131" lon="-118.3938671">
  <ele>-0.121</ele>
  <time>2026-09-01T01:12:09Z</time>
  <course>186.65</course>
  <speed>0.022360679774997897</speed>
  <fix>3d</fix>
</trkpt>
<trkpt lat="33.810313" lon="-118.393867">
  <ele>-0.12</ele>
  <time>2026-09-01T01:12:09Z</time>
  <course>0.0</course>
  <speed>0.0</speed>
  <fix>3d</fix>
</trkpt>
<trkpt lat="33.8103131" lon="-118.3938671">
  <ele>-0.122</ele>
  <time>2026-09-01T01:12:09Z</time>
  <course>186.65</course>
  <speed>0.022360679774997897</speed>
  <fix>3d</fix>
</trkpt>
<trkpt lat="33.810313" lon="-118.393867">
  <ele>-0.12</ele>
  <time>2026-09-01T01:12:09Z</time>
  <course>0.0</course>
  <speed>0.0</speed>
  <fix>3d</fix>
</trkpt>
<trkpt lat="33.8103131" lon="-118.3938671">
  <ele>-0.124</ele>
  <time>2026-09-01T01:12:10Z</time>
  <course>186.65</course>
  <speed>0.022360679774997897</speed>
  <fix>3d</fix>
</trkpt>
<trkpt lat="33.810313" lon="-118.393867">
  <ele>-0.12</ele>
  <time>2026-09-01T01:12:10Z</time>
  <course>0.0</course>
  <speed>0.0</speed>
  <fix>3d</fix>
</trkpt>
<trkpt lat="33.8103131" lon="-118.3938671">
  <ele>-0.127</ele>
  <time>2026-09-01T01:12:10Z</time>
  <course>186.64</course>
  <speed>0.022360679774997897</speed>
  <fix>3d</fix>
</trkpt>
<trkpt lat="33.810313" lon="-118.393867">
  <ele>-0.12</ele>
  <time>2026-09-01T01:12:10Z</time>
  <course>0.0</course>
  <speed>0.0</speed>
  <fix>3d</fix>
</trkpt>
<trkpt lat="33.8103131" lon="-118.3938671">
  <ele>-0.128</ele>
  <time>2026-09-01T01:12:10Z</time>
  <course>186.64</course>
  <speed>0.022360679774997897</speed>
  <fix>3d</fix>
</trkpt>
<trkpt lat="33.810313" lon="-118.393867">
  <ele>-0.12</ele>
  <time>2026-09-01T01:12:10Z</time>
  <course>0.0</course>
  <speed>0.0</speed>
  <fix>3d</fix>
</trkpt>
<trkpt lat="33.8103131" lon="-118.3938671">
  <ele>-0.129</ele>
  <time>2026-09-01T01:12:10Z</time>
  <course>186.64</course>
  <speed>0.022360679774997897</speed>
  <fix>3d</fix>
</trkpt>
<trkpt lat="33.810313" lon="-118.393867">
  <ele>-0.12</ele>
  <time>2026-09-01T01:12:10Z</time>
  <course>0.0</course>
  <speed>0.0</speed>
  <fix>3d</fix>
</trkpt>
<trkpt lat="33.8103131" lon="-118.3938671">
  <ele>-0.13</ele>
  <time>2026-09-01T01:12:10Z</time>
  <course>186.64</course>
  <speed>0.022360679774997897</speed>
  <fix>3d</fix>
</trkpt>
<trkpt lat="33.810313" lon="-118.393867">
  <ele>-0.12</ele>
  <time>2026-09-01T01:12:10Z</time>
  <course>0.0</course>
  <speed>0.0</speed>
  <fix>3d</fix>
</trkpt>
<trkpt lat="33.8103131" lon="-118.3938671">
  <ele>-0.129</ele>
  <time>2026-09-01T01:12:10Z</time>
  <course>186.64</course>
  <speed>0.022360679774997897</speed>
  <fix>3d</fix>
</trkpt>
<trkpt lat="33.810313" lon="-118.393867">
  <ele>-0.12</ele>
  <time>2026-09-01T01:12:10Z</time>
  <course>0.0</course>
  <speed>0.0</speed>
  <fix>3d</fix>
</trkpt>
<trkpt lat="33.8103131" lon="-118.3938671">
  <ele>-0.128</ele>
  <time>2026-09-01T01:12:10Z</time>
  <course>186.63</course>
  <speed>0.022360679774997897</speed>
  <fix>3d</fix>
</trkpt>
<trkpt lat="33.810313" lon="-118.393867">
  <ele>-0.12</ele>
  <time>2026-09-01T01:12:10Z</time>
  <course>0.0</course>
  <speed>0.0</speed>
  <fix>3d</fix>
</trkpt>
<trkpt lat="33.8103131" lon="-118.3938671">
  <ele>-0.127</ele>
  <time>2026-09-01T01:12:10Z</time>
  <course>186.63</course>
  <speed>0.022360679774997897</speed>
  <fix>3d</fix>
</trkpt>
<trkpt lat="33.810313" lon="-118.393867">
  <ele>-0.12</ele>
  <time>2026-09-01T01:12:10Z</time>
  <course>0.0</course>
  <speed>0.0</speed>
  <fix>3d</fix>
</trkpt>
<trkpt lat="33.8103131" lon="-118.3938671">
  <ele>-0.126</ele>
  <time>2026-09-01T01:12:10Z</time>
  <course>186.63</course>
  <speed>0.022360679774997897</speed>
  <fix>3d</fix>
</trkpt>
<trkpt lat="33.810313" lon="-118.393867">
  <ele>-0.12</ele>
  <time>2026-09-01T01:12:10Z</time>
  <course>0.0</course>
  <speed>0.0</speed>
  <fix>3d</fix>
</trkpt>
<trkpt lat="33.8103131" lon="-118.3938671">
  <ele>-0.126</ele>
  <time>2026-09-01T01:12:10Z</time>
  <course>186.63</course>
  <speed>0.022360679774997897</speed>
  <fix>3d</fix>
</trkpt>
<trkpt lat="33.810313" lon="-118.393867">
  <ele>-0.12</ele>
  <time>2026-09-01T01:12:10Z</time>
  <course>0.0</course>
  <speed>0.0</speed>
  <fix>3d</fix>
</trkpt>
<trkpt lat="33.8103131" lon="-118.3938671">
  <ele>-0.126</ele>
  <time>2026-09-01T01:12:10Z</time>
  <course>186.62</course>
  <speed>0.022360679774997897</speed>
  <fix>3d</fix>
</trkpt>
<trkpt lat="33.810313" lon="-118.393867">
  <ele>-0.12</ele>
  <time>2026-09-01T01:12:10Z</time>
  <course>0.0</course>
  <speed>0.0</speed>
  <fix>3d</fix>
</trkpt>
<trkpt lat="33.8103131" lon="-118.3938671">
  <ele>-0.127</ele>
  <time>2026-09-01T01:12:10Z</time>
  <course>186.62</course>
  <speed>0.022360679774997897</speed>
  <fix>3d</fix>
</trkpt>
<trkpt lat="33.810313" lon="-118.393867">
  <ele>-0.12</ele>
  <time>2026-09-01T01:12:10Z</time>
  <course>0.0</course>
  <speed>0.0</speed>
  <fix>3d</fix>
</trkpt>
<trkpt lat="33.8103131" lon="-118.3938671">
  <ele>-0.127</ele>
  <time>2026-09-01T01:12:10Z</time>
  <course>186.62</course>
  <speed>0.022360679774997897</speed>
  <fix>3d</fix>
</trkpt>
<trkpt lat="33.810313" lon="-118.393867">
  <ele>-0.12</ele>
  <time>2026-09-01T01:12:10Z</time>
  <course>0.0</course>
  <speed>0.0</speed>
  <fix>3d</fix>
</trkpt>
<trkpt lat="33.8103131" lon="-118.3938671">
  <ele>-0.127</ele>
  <time>2026-09-01T01:12:10Z</time>
  <course>186.62</course>
  <speed>0.022360679774997897</speed>
  <fix>3d</fix>
</trkpt>
<trkpt lat="33.810313" lon="-118.393867">
  <ele>-0.12</ele>
  <time>2026-09-01T01:12:10Z</time>
  <course>0.0</course>
  <speed>0.0</speed>
  <fix>3d</fix>
</trkpt>
<trkpt lat="33.8103131" lon="-118.3938671">
  <ele>-0.127</ele>
  <time>2026-09-01T01:12:10Z</time>
  <course>186.62</course>
  <speed>0.022360679774997897</speed>
  <fix>3d</fix>
</trkpt>
<trkpt lat="33.810313" lon="-118.393867">
  <ele>-0.12</ele>
  <time>2026-09-01T01:12:10Z</time>
  <course>0.0</course>
  <speed>0.0</speed>
  <fix>3d</fix>
</trkpt>
<trkpt lat="33.8103131" lon="-118.3938671">
  <ele>-0.127</ele>
  <time>2026-09-01T01:12:10Z</time>
  <course>186.61</course>
  <speed>0.022360679774997897</speed>
  <fix>3d</fix>
</trkpt>
<trkpt lat="33.810313" lon="-118.393867">
  <ele>-0.12</ele>
  <time>2026-09-01T01:12:10Z</time>
  <course>0.0</course>
  <speed>0.0</speed>
  <fix>3d</fix>
</trkpt>
<trkpt lat="33.8103131" lon="-118.3938671">
  <ele>-0.126</ele>
  <time>2026-09-01T01:12:10Z</time>
  <course>186.61</course>
  <speed>0.022360679774997897</speed>
  <fix>3d</fix>
</trkpt>
<trkpt lat="33.810313" lon="-118.393867">
  <ele>-0.12</ele>
  <time>2026-09-01T01:12:10Z</time>
  <course>0.0</course>
  <speed>0.0</speed>
  <fix>3d</fix>
</trkpt>
<trkpt lat="33.8103131" lon="-118.3938671">
  <ele>-0.125</ele>
  <time>2026-09-01T01:12:10Z</time>
  <course>186.61</course>
  <speed>0.022360679774997897</speed>
  <fix>3d</fix>
</trkpt>
<trkpt lat="33.810313" lon="-118.393867">
  <ele>-0.12</ele>
  <time>2026-09-01T01:12:10Z</time>
  <course>0.0</course>
  <speed>0.0</speed>
  <fix>3d</fix>
</trkpt>
<trkpt lat="33.8103131" lon="-118.3938671">
  <ele>-0.125</ele>
  <time>2026-09-01T01:12:10Z</time>
  <course>186.61</course>
  <speed>0.022360679774997897</speed>
  <fix>3d</fix>
</trkpt>
<trkpt lat="33.810313" lon="-118.393867">
  <ele>-0.12</ele>
  <time>2026-09-01T01:12:10Z</time>
  <course>0.0</course>
  <speed>0.0</speed>
  <fix>3d</fix>
</trkpt>
<trkpt lat="33.8103131" lon="-118.3938671">
  <ele>-0.125</ele>
  <time>2026-09-01T01:12:10Z</time>
  <course>186.6</course>
  <speed>0.022360679774997897</speed>
  <fix>3d</fix>
</trkpt>
<trkpt lat="33.810313" lon="-118.393867">
  <ele>-0.12</ele>
  <time>2026-09-01T01:12:10Z</time>
  <course>0.0</course>
  <speed>0.0</speed>
  <fix>3d</fix>
</trkpt>
<trkpt lat="33.8103131" lon="-118.3938671">
  <ele>-0.126</ele>
  <time>2026-09-01T01:12:10Z</time>
  <course>186.6</course>
  <speed>0.022360679774997897</speed>
  <fix>3d</fix>
</trkpt>
<trkpt lat="33.810313" lon="-118.393867">
  <ele>-0.12</ele>
  <time>2026-09-01T01:12:10Z</time>
  <course>0.0</course>
  <speed>0.0</speed>
  <fix>3d</fix>
</trkpt>
<trkpt lat="33.8103131" lon="-118.3938671">
  <ele>-0.126</ele>
  <time>2026-09-01T01:12:10Z</time>
  <course>186.6</course>
  <speed>0.022360679774997897</speed>
  <fix>3d</fix>
</trkpt>
<trkpt lat="33.810313" lon="-118.393867">
  <ele>-0.12</ele>
  <time>2026-09-01T01:12:10Z</time>
  <course>0.0</course>
  <speed>0.0</speed>
  <fix>3d</fix>
</trkpt>
<trkpt lat="33.8103131" lon="-118.3938671">
  <ele>-0.128</ele>
  <time>2026-09-01T01:12:10Z</time>
  <course>186.6</course>
  <speed>0.022360679774997897</speed>
  <fix>3d</fix>
</trkpt>
<trkpt lat="33.810313" lon="-118.393867">
  <ele>-0.12</ele>
  <time>2026-09-01T01:12:10Z</time>
  <course>0.0</course>
  <speed>0.0</speed>
  <fix>3d</fix>
</trkpt>
<trkpt lat="33.8103131" lon="-118.3938671">
  <ele>-0.13</ele>
  <time>2026-09-01T01:12:10Z</time>
  <course>186.6</course>
  <speed>0.022360679774997897</speed>
  <fix>3d</fix>
</trkpt>
<trkpt lat="33.810313" lon="-118.393867">
  <ele>-0.12</ele>
  <time>2026-09-01T01:12:10Z</time>
  <course>0.0</course>
  <speed>0.0</speed>
  <fix>3d</fix>
</trkpt>
<trkpt lat="33.8103131" lon="-118.3938671">
  <ele>-0.132</ele>
  <time>2026-09-01T01:12:10Z</time>
  <course>186.59</course>
  <speed>0.022360679774997897</speed>
  <fix>3d</fix>
</trkpt>
<trkpt lat="33.810313" lon="-118.393867">
  <ele>-0.12</ele>
  <time>2026-09-01T01:12:10Z</time>
  <course>0.0</course>
  <speed>0.0</speed>
  <fix>3d</fix>
</trkpt>
<trkpt lat="33.8103131" lon="-118.3938671">
  <ele>-0.132</ele>
  <time>2026-09-01T01:12:10Z</time>
  <course>186.59</course>
  <speed>0.022360679774997897</speed>
  <fix>3d</fix>
</trkpt>
<trkpt lat="33.810313" lon="-118.393867">
  <ele>-0.12</ele>
  <time>2026-09-01T01:12:10Z</time>
  <course>0.0</course>
  <speed>0.0</speed>
  <fix>3d</fix>
</trkpt>
<trkpt lat="33.8103131" lon="-118.3938671">
  <ele>-0.132</ele>
  <time>2026-09-01T01:12:10Z</time>
  <course>186.59</course>
  <speed>0.022360679774997897</speed>
  <fix>3d</fix>
</trkpt>
<trkpt lat="33.810313" lon="-118.393867">
  <ele>-0.12</ele>
  <time>2026-09-01T01:12:10Z</time>
  <course>0.0</course>
  <speed>0.0</speed>
  <fix>3d</fix>
</trkpt>
<trkpt lat="33.8103131" lon="-118.3938671">
  <ele>-0.13</ele>
  <time>2026-09-01T01:12:10Z</time>
  <course>186.59</course>
  <speed>0.022360679774997897</speed>
  <fix>3d</fix>
</trkpt>
<trkpt lat="33.810313" lon="-118.393867">
  <ele>-0.12</ele>
  <time>2026-09-01T01:12:10Z</time>
  <course>0.0</course>
  <speed>0.0</speed>
  <fix>3d</fix>
</trkpt>
<trkpt lat="33.8103131" lon="-118.3938671">
  <ele>-0.129</ele>
  <time>2026-09-01T01:12:10Z</time>
  <course>186.59</course>
  <speed>0.022360679774997897</speed>
  <fix>3d</fix>
</trkpt>
<trkpt lat="33.810313" lon="-118.393867">
  <ele>-0.12</ele>
  <time>2026-09-01T01:12:10Z</time>
  <course>0.0</course>
  <speed>0.0</speed>
  <fix>3d</fix>
</trkpt>
<trkpt lat="33.8103131" lon="-118.3938671">
  <ele>-0.129</ele>
  <time>2026-09-01T01:12:10Z</time>
  <course>186.58</course>
  <speed>0.022360679774997897</speed>
  <fix>3d</fix>
</trkpt>
<trkpt lat="33.810313" lon="-118.393867">
  <ele>-0.12</ele>
  <time>2026-09-01T01:12:10Z</time>
  <course>0.0</course>
  <speed>0.0</speed>
  <fix>3d</fix>
</trkpt>
<trkpt lat="33.8103131" lon="-118.3938671">
  <ele>-0.13</ele>
  <time>2026-09-01T01:12:10Z</time>
  <course>186.58</course>
  <speed>0.022360679774997897</speed>
  <fix>3d</fix>
</trkpt>
<trkpt lat="33.810313" lon="-118.393867">
  <ele>-0.12</ele>
  <time>2026-09-01T01:12:10Z</time>
  <course>0.0</course>
  <speed>0.0</speed>
  <fix>3d</fix>
</trkpt>
<trkpt lat="33.8103131" lon="-118.3938671">
  <ele>-0.132</ele>
  <time>2026-09-01T01:12:10Z</time>
  <course>186.58</course>
  <speed>0.022360679774997897</speed>
  <fix>3d</fix>
</trkpt>
<trkpt lat="33.810313" lon="-118.393867">
  <ele>-0.12</ele>
  <time>2026-09-01T01:12:10Z</time>
  <course>0.0</course>
  <speed>0.0</speed>
  <fix>3d</fix>
</trkpt>
<trkpt lat="33.8103131" lon="-118.3938671">
  <ele>-0.133</ele>
  <time>2026-09-01T01:12:10Z</time>
  <course>186.58</course>
  <speed>0.022360679774997897</speed>
  <fix>3d</fix>
</trkpt>
<trkpt lat="33.810313" lon="-118.393867">
  <ele>-0.12</ele>
  <time>2026-09-01T01:12:10Z</time>
  <course>0.0</course>
  <speed>0.0</speed>
  <fix>3d</fix>
</trkpt>
<trkpt lat="33.8103131" lon="-118.3938671">
  <ele>-0.133</ele>
  <time>2026-09-01T01:12:10Z</time>
  <course>186.58</course>
  <speed>0.022360679774997897</speed>
  <fix>3d</fix>
</trkpt>
<trkpt lat="33.810313" lon="-118.393867">
  <ele>-0.12</ele>
  <time>2026-09-01T01:12:10Z</time>
  <course>0.0</course>
  <speed>0.0</speed>
  <fix>3d</fix>
</trkpt>
<trkpt lat="33.8103131" lon="-118.3938671">
  <ele>-0.132</ele>
  <time>2026-09-01T01:12:10Z</time>
  <course>186.57</course>
  <speed>0.022360679774997897</speed>
  <fix>3d</fix>
</trkpt>
<trkpt lat="33.810313" lon="-118.393867">
  <ele>-0.12</ele>
  <time>2026-09-01T01:12:10Z</time>
  <course>0.0</course>
  <speed>0.0</speed>
  <fix>3d</fix>
</trkpt>
<trkpt lat="33.8103131" lon="-118.3938671">
  <ele>-0.13</ele>
  <time>2026-09-01T01:12:10Z</time>
  <course>186.57</course>
  <speed>0.022360679774997897</speed>
  <fix>3d</fix>
</trkpt>
<trkpt lat="33.810313" lon="-118.393867">
  <ele>-0.12</ele>
  <time>2026-09-01T01:12:10Z</time>
  <course>0.0</course>
  <speed>0.0</speed>
  <fix>3d</fix>
</trkpt>
<trkpt lat="33.8103131" lon="-118.3938671">
  <ele>-0.128</ele>
  <time>2026-09-01T01:12:10Z</time>
  <course>186.57</course>
  <speed>0.022360679774997897</speed>
  <fix>3d</fix>
</trkpt>
<trkpt lat="33.810313" lon="-118.393867">
  <ele>-0.12</ele>
  <time>2026-09-01T01:12:10Z</time>
  <course>0.0</course>
  <speed>0.0</speed>
  <fix>3d</fix>
</trkpt>
<trkpt lat="33.8103131" lon="-118.3938671">
  <ele>-0.125</ele>
  <time>2026-09-01T01:12:10Z</time>
  <course>186.57</course>
  <speed>0.022360679774997897</speed>
  <fix>3d</fix>
</trkpt>
<trkpt lat="33.810313" lon="-118.393867">
  <ele>-0.12</ele>
  <time>2026-09-01T01:12:10Z</time>
  <course>0.0</course>
  <speed>0.0</speed>
  <fix>3d</fix>
</trkpt>
<trkpt lat="33.8103131" lon="-118.3938671">
  <ele>-0.124</ele>
  <time>2026-09-01T01:12:10Z</time>
  <course>186.57</course>
  <speed>0.022360679774997897</speed>
  <fix>3d</fix>
</trkpt>
<trkpt lat="33.810313" lon="-118.393867">
  <ele>-0.12</ele>
  <time>2026-09-01T01:12:10Z</time>
  <course>0.0</course>
  <speed>0.0</speed>
  <fix>3d</fix>
</trkpt>
<trkpt lat="33.8103131" lon="-118.3938671">
  <ele>-0.125</ele>
  <time>2026-09-01T01:12:10Z</time>
  <course>186.56</course>
  <speed>0.022360679774997897</speed>
  <fix>3d</fix>
</trkpt>
<trkpt lat="33.810313" lon="-118.393867">
  <ele>-0.12</ele>
  <time>2026-09-01T01:12:10Z</time>
  <course>0.0</course>
  <speed>0.0</speed>
  <fix>3d</fix>
</trkpt>
<trkpt lat="33.8103131" lon="-118.3938671">
  <ele>-0.126</ele>
  <time>2026-09-01T01:12:10Z</time>
  <course>186.56</course>
  <speed>0.022360679774997897</speed>
  <fix>3d</fix>
</trkpt>
<trkpt lat="33.810313" lon="-118.393867">
  <ele>-0.12</ele>
  <time>2026-09-01T01:12:10Z</time>
  <course>0.0</course>
  <speed>0.0</speed>
  <fix>3d</fix>
</trkpt>
<trkpt lat="33.8103131" lon="-118.3938671">
  <ele>-0.126</ele>
  <time>2026-09-01T01:12:10Z</time>
  <course>186.56</course>
  <speed>0.022360679774997897</speed>
  <fix>3d</fix>
</trkpt>
<trkpt lat="33.810313" lon="-118.393867">
  <ele>-0.12</ele>
  <time>2026-09-01T01:12:10Z</time>
  <course>0.0</course>
  <speed>0.0</speed>
  <fix>3d</fix>
</trkpt>
<trkpt lat="33.8103131" lon="-118.3938671">
  <ele>-0.127</ele>
  <time>2026-09-01T01:12:10Z</time>
  <course>186.56</course>
  <speed>0.022360679774997897</speed>
  <fix>3d</fix>
</trkpt>
<trkpt lat="33.810313" lon="-118.393867">
  <ele>-0.12</ele>
  <time>2026-09-01T01:12:10Z</time>
  <course>0.0</course>
  <speed>0.0</speed>
  <fix>3d</fix>
</trkpt>
<trkpt lat="33.8103131" lon="-118.3938671">
  <ele>-0.127</ele>
  <time>2026-09-01T01:12:10Z</time>
  <course>186.56</course>
  <speed>0.022360679774997897</speed>
  <fix>3d</fix>
</trkpt>
<trkpt lat="33.810313" lon="-118.393867">
  <ele>-0.12</ele>
  <time>2026-09-01T01:12:10Z</time>
  <course>0.0</course>
  <speed>0.0</speed>
  <fix>3d</fix>
</trkpt>
<trkpt lat="33.8103131" lon="-118.3938671">
  <ele>-0.126</ele>
  <time>2026-09-01T01:12:10Z</time>
  <course>186.55</course>
  <speed>0.022360679774997897</speed>
  <fix>3d</fix>
</trkpt>
<trkpt lat="33.810313" lon="-118.393867">
  <ele>-0.12</ele>
  <time>2026-09-01T01:12:10Z</time>
  <course>0.0</course>
  <speed>0.0</speed>
  <fix>3d</fix>
</trkpt>
<trkpt lat="33.8103131" lon="-118.3938671">
  <ele>-0.125</ele>
  <time>2026-09-01T01:12:10Z</time>
  <course>186.55</course>
  <speed>0.022360679774997897</speed>
  <fix>3d</fix>
</trkpt>
<trkpt lat="33.810313" lon="-118.393867">
  <ele>-0.12</ele>
  <time>2026-09-01T01:12:10Z</time>
  <course>0.0</course>
  <speed>0.0</speed>
  <fix>3d</fix>
</trkpt>
<trkpt lat="33.8103131" lon="-118.3938671">
  <ele>-0.125</ele>
  <time>2026-09-01T01:12:10Z</time>
  <course>186.55</course>
  <speed>0.022360679774997897</speed>
  <fix>3d</fix>
</trkpt>
<trkpt lat="33.810313" lon="-118.393867">
  <ele>-0.12</ele>
  <time>2026-09-01T01:12:10Z</time>
  <course>0.0</course>
  <speed>0.0</speed>
  <fix>3d</fix>
</trkpt>
<trkpt lat="33.8103131" lon="-118.3938671">
  <ele>-0.125</ele>
  <time>2026-09-01T01:12:10Z</time>
  <course>186.55</course>
  <speed>0.022360679774997897</speed>
  <fix>3d</fix>
</trkpt>
<trkpt lat="33.810313" lon="-118.393867">
  <ele>-0.12</ele>
  <time>2026-09-01T01:12:10Z</time>
  <course>0.0</course>
  <speed>0.0</speed>
  <fix>3d</fix>
</trkpt>
<trkpt lat="33.8103131" lon="-118.3938671">
  <ele>-0.125</ele>
  <time>2026-09-01T01:12:10Z</time>
  <course>186.55</course>
  <speed>0.022360679774997897</speed>
  <fix>3d</fix>
</trkpt>
<trkpt lat="33.810313" lon="-118.393867">
  <ele>-0.12</ele>
  <time>2026-09-01T01:12:10Z</time>
  <course>0.0</course>
  <speed>0.0</speed>
  <fix>3d</fix>
</trkpt>
<trkpt lat="33.8103131" lon="-118.3938671">
  <ele>-0.125</ele>
  <time>2026-09-01T01:12:10Z</time>
  <course>186.55</course>
  <speed>0.022360679774997897</speed>
  <fix>3d</fix>
</trkpt>
<trkpt lat="33.810313" lon="-118.393867">
  <ele>-0.12</ele>
  <time>2026-09-01T01:12:10Z</time>
  <course>0.0</course>
  <speed>0.0</speed>
  <fix>3d</fix>
</trkpt>
<trkpt lat="33.8103131" lon="-118.3938671">
  <ele>-0.124</ele>
  <time>2026-09-01T01:12:10Z</time>
  <course>186.54</course>
  <speed>0.022360679774997897</speed>
  <fix>3d</fix>
</trkpt>
<trkpt lat="33.810313" lon="-118.393867">
  <ele>-0.12</ele>
  <time>2026-09-01T01:12:10Z</time>
  <course>0.0</course>
  <speed>0.0</speed>
  <fix>3d</fix>
</trkpt>
<trkpt lat="33.8103131" lon="-118.3938671">
  <ele>-0.125</ele>
  <time>2026-09-01T01:12:10Z</time>
  <course>186.54</course>
  <speed>0.022360679774997897</speed>
  <fix>3d</fix>
</trkpt>
<trkpt lat="33.810313" lon="-118.393867">
  <ele>-0.12</ele>
  <time>2026-09-01T01:12:10Z</time>
  <course>0.0</course>
  <speed>0.0</speed>
  <fix>3d</fix>
</trkpt>
<trkpt lat="33.8103131" lon="-118.3938671">
  <ele>-0.126</ele>
  <time>2026-09-01T01:12:10Z</time>
  <course>186.54</course>
  <speed>0.022360679774997897</speed>
  <fix>3d</fix>
</trkpt>
<trkpt lat="33.810313" lon="-118.393867">
  <ele>-0.12</ele>
  <time>2026-09-01T01:12:10Z</time>
  <course>0.0</course>
  <speed>0.0</speed>
  <fix>3d</fix>
</trkpt>
<trkpt lat="33.8103131" lon="-118.3938671">
  <ele>-0.126</ele>
  <time>2026-09-01T01:12:10Z</time>
  <course>186.54</course>
  <speed>0.022360679774997897</speed>
  <fix>3d</fix>
</trkpt>
<trkpt lat="33.810313" lon="-118.393867">
  <ele>-0.12</ele>
  <time>2026-09-01T01:12:10Z</time>
  <course>0.0</course>
  <speed>0.0</speed>
  <fix>3d</fix>
</trkpt>
<trkpt lat="33.8103131" lon="-118.3938671">
  <ele>-0.126</ele>
  <time>2026-09-01T01:12:10Z</time>
  <course>186.54</course>
  <speed>0.022360679774997897</speed>
  <fix>3d</fix>
</trkpt>
<trkpt lat="33.810313" lon="-118.393867">
  <ele>-0.12</ele>
  <time>2026-09-01T01:12:10Z</time>
  <course>0.0</course>
  <speed>0.0</speed>
  <fix>3d</fix>
</trkpt>
<trkpt lat="33.8103131" lon="-118.3938671">
  <ele>-0.125</ele>
  <time>2026-09-01T01:12:10Z</time>
  <course>186.53</course>
  <speed>0.022360679774997897</speed>
  <fix>3d</fix>
</trkpt>
<trkpt lat="33.810313" lon="-118.393867">
  <ele>-0.12</ele>
  <time>2026-09-01T01:12:10Z</time>
  <course>0.0</course>
  <speed>0.0</speed>
  <fix>3d</fix>
</trkpt>
<trkpt lat="33.8103131" lon="-118.3938671">
  <ele>-0.124</ele>
  <time>2026-09-01T01:12:10Z</time>
  <course>186.53</course>
  <speed>0.022360679774997897</speed>
  <fix>3d</fix>
</trkpt>
<trkpt lat="33.810313" lon="-118.393867">
  <ele>-0.12</ele>
  <time>2026-09-01T01:12:10Z</time>
  <course>0.0</course>
  <speed>0.0</speed>
  <fix>3d</fix>
</trkpt>
<trkpt lat="33.8103131" lon="-118.3938671">
  <ele>-0.122</ele>
  <time>2026-09-01T01:12:10Z</time>
  <course>186.53</course>
  <speed>0.022360679774997897</speed>
  <fix>3d</fix>
</trkpt>
<trkpt lat="33.810313" lon="-118.393867">
  <ele>-0.12</ele>
  <time>2026-09-01T01:12:10Z</time>
  <course>0.0</course>
  <speed>0.0</speed>
  <fix>3d</fix>
</trkpt>
<trkpt lat="33.8103131" lon="-118.3938671">
  <ele>-0.121</ele>
  <time>2026-09-01T01:12:10Z</time>
  <course>186.53</course>
  <speed>0.022360679774997897</speed>
  <fix>3d</fix>
</trkpt>
<trkpt lat="33.810313" lon="-118.393867">
  <ele>-0.12</ele>
  <time>2026-09-01T01:12:10Z</time>
  <course>0.0</course>
  <speed>0.0</speed>
  <fix>3d</fix>
</trkpt>
<trkpt lat="33.8103131" lon="-118.3938671">
  <ele>-0.12</ele>
  <time>2026-09-01T01:12:10Z</time>
  <course>186.53</course>
  <speed>0.022360679774997897</speed>
  <fix>3d</fix>
</trkpt>
<trkpt lat="33.810313" lon="-118.393867">
  <ele>-0.12</ele>
  <time>2026-09-01T01:12:10Z</time>
  <course>0.0</course>
  <speed>0.0</speed>
  <fix>3d</fix>
</trkpt>
<trkpt lat="33.8103131" lon="-118.3938671">
  <ele>-0.12</ele>
  <time>2026-09-01T01:12:10Z</time>
  <course>186.53</course>
  <speed>0.022360679774997897</speed>
  <fix>3d</fix>
</trkpt>
<trkpt lat="33.810313" lon="-118.393867">
  <ele>-0.12</ele>
  <time>2026-09-01T01:12:10Z</time>
  <course>0.0</course>
  <speed>0.0</speed>
  <fix>3d</fix>
</trkpt>
<trkpt lat="33.8103131" lon="-118.3938671">
  <ele>-0.12</ele>
  <time>2026-09-01T01:12:10Z</time>
  <course>186.52</course>
  <speed>0.022360679774997897</speed>
  <fix>3d</fix>
</trkpt>
<trkpt lat="33.810313" lon="-118.393867">
  <ele>-0.12</ele>
  <time>2026-09-01T01:12:10Z</time>
  <course>0.0</course>
  <speed>0.0</speed>
  <fix>3d</fix>
</trkpt>
<trkpt lat="33.8103131" lon="-118.3938671">
  <ele>-0.12</ele>
  <time>2026-09-01T01:12:10Z</time>
  <course>186.52</course>
  <speed>0.022360679774997897</speed>
  <fix>3d</fix>
</trkpt>
<trkpt lat="33.810313" lon="-118.393867">
  <ele>-0.12</ele>
  <time>2026-09-01T01:12:10Z</time>
  <course>0.0</course>
  <speed>0.0</speed>
  <fix>3d</fix>
</trkpt>
<trkpt lat="33.8103131" lon="-118.3938671">
  <ele>-0.121</ele>
  <time>2026-09-01T01:12:10Z</time>
  <course>186.52</course>
  <speed>0.022360679774997897</speed>
  <fix>3d</fix>
</trkpt>
<trkpt lat="33.810313" lon="-118.393867">
  <ele>-0.12</ele>
  <time>2026-09-01T01:12:10Z</time>
  <course>0.0</course>
  <speed>0.0</speed>
  <fix>3d</fix>
</trkpt>
<trkpt lat="33.8103131" lon="-118.3938671">
  <ele>-0.122</ele>
  <time>2026-09-01T01:12:10Z</time>
  <course>186.52</course>
  <speed>0.022360679774997897</speed>
  <fix>3d</fix>
</trkpt>
<trkpt lat="33.810313" lon="-118.393867">
  <ele>-0.12</ele>
  <time>2026-09-01T01:12:10Z</time>
  <course>0.0</course>
  <speed>0.0</speed>
  <fix>3d</fix>
</trkpt>
<trkpt lat="33.8103131" lon="-118.3938671">
  <ele>-0.122</ele>
  <time>2026-09-01T01:12:10Z</time>
  <course>186.52</course>
  <speed>0.022360679774997897</speed>
  <fix>3d</fix>
</trkpt>
<trkpt lat="33.810313" lon="-118.393867">
  <ele>-0.12</ele>
  <time>2026-09-01T01:12:10Z</time>
  <course>0.0</course>
  <speed>0.0</speed>
  <fix>3d</fix>
</trkpt>
<trkpt lat="33.8103131" lon="-118.3938671">
  <ele>-0.122</ele>
  <time>2026-09-01T01:12:10Z</time>
  <course>186.52</course>
  <speed>0.022360679774997897</speed>
  <fix>3d</fix>
</trkpt>
<trkpt lat="33.810313" lon="-118.393867">
  <ele>-0.12</ele>
  <time>2026-09-01T01:12:10Z</time>
  <course>0.0</course>
  <speed>0.0</speed>
  <fix>3d</fix>
</trkpt>
<trkpt lat="33.8103131" lon="-118.3938671">
  <ele>-0.122</ele>
  <time>2026-09-01T01:12:10Z</time>
  <course>186.52</course>
  <speed>0.022360679774997897</speed>
  <fix>3d</fix>
</trkpt>
<trkpt lat="33.810313" lon="-118.393867">
  <ele>-0.12</ele>
  <time>2026-09-01T01:12:10Z</time>
  <course>0.0</course>
  <speed>0.0</speed>
  <fix>3d</fix>
</trkpt>
<trkpt lat="33.8103131" lon="-118.3938671">
  <ele>-0.121</ele>
  <time>2026-09-01T01:12:10Z</time>
  <course>186.51</course>
  <speed>0.022360679774997897</speed>
  <fix>3d</fix>
</trkpt>
<trkpt lat="33.810313" lon="-118.393867">
  <ele>-0.12</ele>
  <time>2026-09-01T01:12:10Z</time>
  <course>0.0</course>
  <speed>0.0</speed>
  <fix>3d</fix>
</trkpt>
<trkpt lat="33.8103131" lon="-118.3938671">
  <ele>-0.121</ele>
  <time>2026-09-01T01:12:10Z</time>
  <course>186.51</course>
  <speed>0.022360679774997897</speed>
  <fix>3d</fix>
</trkpt>
<trkpt lat="33.810313" lon="-118.393867">
  <ele>-0.12</ele>
  <time>2026-09-01T01:12:10Z</time>
  <course>0.0</course>
  <speed>0.0</speed>
  <fix>3d</fix>
</trkpt>
<trkpt lat="33.8103131" lon="-118.3938671">
  <ele>-0.122</ele>
  <time>2026-09-01T01:12:10Z</time>
  <course>186.51</course>
  <speed>0.022360679774997897</speed>
  <fix>3d</fix>
</trkpt>
<trkpt lat="33.810313" lon="-118.393867">
  <ele>-0.12</ele>
  <time>2026-09-01T01:12:10Z</time>
  <course>0.0</course>
  <speed>0.0</speed>
  <fix>3d</fix>
</trkpt>
<trkpt lat="33.8103131" lon="-118.3938671">
  <ele>-0.125</ele>
  <time>2026-09-01T01:12:10Z</time>
  <course>186.51</course>
  <speed>0.022360679774997897</speed>
  <fix>3d</fix>
</trkpt>
<trkpt lat="33.810313" lon="-118.393867">
  <ele>-0.12</ele>
  <time>2026-09-01T01:12:10Z</time>
  <course>0.0</course>
  <speed>0.0</speed>
  <fix>3d</fix>
</trkpt>
<trkpt lat="33.8103131" lon="-118.3938671">
  <ele>-0.127</ele>
  <time>2026-09-01T01:12:10Z</time>
  <course>186.51</course>
  <speed>0.022360679774997897</speed>
  <fix>3d</fix>
</trkpt>
<trkpt lat="33.810313" lon="-118.393867">
  <ele>-0.12</ele>
  <time>2026-09-01T01:12:10Z</time>
  <course>0.0</course>
  <speed>0.0</speed>
  <fix>3d</fix>
</trkpt>
<trkpt lat="33.8103131" lon="-118.3938671">
  <ele>-0.13</ele>
  <time>2026-09-01T01:12:10Z</time>
  <course>186.51</course>
  <speed>0.022360679774997897</speed>
  <fix>3d</fix>
</trkpt>
<trkpt lat="33.810313" lon="-118.393867">
  <ele>-0.12</ele>
  <time>2026-09-01T01:12:10Z</time>
  <course>0.0</course>
  <speed>0.0</speed>
  <fix>3d</fix>
</trkpt>
<trkpt lat="33.8103131" lon="-118.3938671">
  <ele>-0.132</ele>
  <time>2026-09-01T01:12:10Z</time>
  <course>186.5</course>
  <speed>0.022360679774997897</speed>
  <fix>3d</fix>
</trkpt>
<trkpt lat="33.810313" lon="-118.393867">
  <ele>-0.12</ele>
  <time>2026-09-01T01:12:10Z</time>
  <course>0.0</course>
  <speed>0.0</speed>
  <fix>3d</fix>
</trkpt>
<trkpt lat="33.8103131" lon="-118.3938671">
  <ele>-0.133</ele>
  <time>2026-09-01T01:12:10Z</time>
  <course>186.5</course>
  <speed>0.022360679774997897</speed>
  <fix>3d</fix>
</trkpt>
<trkpt lat="33.810313" lon="-118.393867">
  <ele>-0.12</ele>
  <time>2026-09-01T01:12:10Z</time>
  <course>0.0</course>
  <speed>0.0</speed>
  <fix>3d</fix>
</trkpt>
<trkpt lat="33.8103131" lon="-118.3938671">
  <ele>-0.133</ele>
  <time>2026-09-01T01:12:10Z</time>
  <course>186.5</course>
  <speed>0.022360679774997897</speed>
  <fix>3d</fix>
</trkpt>
<trkpt lat="33.810313" lon="-118.393867">
  <ele>-0.12</ele>
  <time>2026-09-01T01:12:10Z</time>
  <course>0.0</course>
  <speed>0.0</speed>
  <fix>3d</fix>
</trkpt>
<trkpt lat="33.8103131" lon="-118.3938671">
  <ele>-0.133</ele>
  <time>2026-09-01T01:12:10Z</time>
  <course>186.5</course>
  <speed>0.022360679774997897</speed>
  <fix>3d</fix>
</trkpt>
<trkpt lat="33.810313" lon="-118.393867">
  <ele>-0.12</ele>
  <time>2026-09-01T01:12:10Z</time>
  <course>0.0</course>
  <speed>0.0</speed>
  <fix>3d</fix>
</trkpt>
<trkpt lat="33.8103131" lon="-118.3938671">
  <ele>-0.133</ele>
  <time>2026-09-01T01:12:10Z</time>
  <course>186.5</course>
  <speed>0.022360679774997897</speed>
  <fix>3d</fix>
</trkpt>
<trkpt lat="33.810313" lon="-118.393867">
  <ele>-0.12</ele>
  <time>2026-09-01T01:12:10Z</time>
  <course>0.0</course>
  <speed>0.0</speed>
  <fix>3d</fix>
</trkpt>
<trkpt lat="33.8103131" lon="-118.3938671">
  <ele>-0.133</ele>
  <time>2026-09-01T01:12:10Z</time>
  <course>186.5</course>
  <speed>0.022360679774997897</speed>
  <fix>3d</fix>
</trkpt>
<trkpt lat="33.810313" lon="-118.393867">
  <ele>-0.12</ele>
  <time>2026-09-01T01:12:10Z</time>
  <course>0.0</course>
  <speed>0.0</speed>
  <fix>3d</fix>
</trkpt>
<trkpt lat="33.8103131" lon="-118.3938671">
  <ele>-0.134</ele>
  <time>2026-09-01T01:12:10Z</time>
  <course>186.49</course>
  <speed>0.022360679774997897</speed>
  <fix>3d</fix>
</trkpt>
<trkpt lat="33.810313" lon="-118.393867">
  <ele>-0.12</ele>
  <time>2026-09-01T01:12:10Z</time>
  <course>0.0</course>
  <speed>0.0</speed>
  <fix>3d</fix>
</trkpt>
<trkpt lat="33.8103131" lon="-118.3938671">
  <ele>-0.134</ele>
  <time>2026-09-01T01:12:10Z</time>
  <course>186.49</course>
  <speed>0.022360679774997897</speed>
  <fix>3d</fix>
</trkpt>
<trkpt lat="33.810313" lon="-118.393867">
  <ele>-0.12</ele>
  <time>2026-09-01T01:12:10Z</time>
  <course>0.0</course>
  <speed>0.0</speed>
  <fix>3d</fix>
</trkpt>
<trkpt lat="33.8103131" lon="-118.3938671">
  <ele>-0.134</ele>
  <time>2026-09-01T01:12:10Z</time>
  <course>186.49</course>
  <speed>0.022360679774997897</speed>
  <fix>3d</fix>
</trkpt>
<trkpt lat="33.810313" lon="-118.393867">
  <ele>-0.12</ele>
  <time>2026-09-01T01:12:10Z</time>
  <course>0.0</course>
  <speed>0.0</speed>
  <fix>3d</fix>
</trkpt>
<trkpt lat="33.8103131" lon="-118.3938671">
  <ele>-0.134</ele>
  <time>2026-09-01T01:12:10Z</time>
  <course>186.49</course>
  <speed>0.022360679774997897</speed>
  <fix>3d</fix>
</trkpt>
<trkpt lat="33.810313" lon="-118.393867">
  <ele>-0.12</ele>
  <time>2026-09-01T01:12:10Z</time>
  <course>0.0</course>
  <speed>0.0</speed>
  <fix>3d</fix>
</trkpt>
<trkpt lat="33.8103131" lon="-118.3938671">
  <ele>-0.133</ele>
  <time>2026-09-01T01:12:10Z</time>
  <course>186.49</course>
  <speed>0.022360679774997897</speed>
  <fix>3d</fix>
</trkpt>
<trkpt lat="33.810313" lon="-118.393867">
  <ele>-0.12</ele>
  <time>2026-09-01T01:12:10Z</time>
  <course>0.0</course>
  <speed>0.0</speed>
  <fix>3d</fix>
</trkpt>
<trkpt lat="33.8103131" lon="-118.3938671">
  <ele>-0.132</ele>
  <time>2026-09-01T01:12:10Z</time>
  <course>186.49</course>
  <speed>0.022360679774997897</speed>
  <fix>3d</fix>
</trkpt>
<trkpt lat="33.810313" lon="-118.393867">
  <ele>-0.12</ele>
  <time>2026-09-01T01:12:10Z</time>
  <course>0.0</course>
  <speed>0.0</speed>
  <fix>3d</fix>
</trkpt>
<trkpt lat="33.8103131" lon="-118.3938671">
  <ele>-0.129</ele>
  <time>2026-09-01T01:12:10Z</time>
  <course>186.48</course>
  <speed>0.022360679774997897</speed>
  <fix>3d</fix>
</trkpt>
<trkpt lat="33.810313" lon="-118.393867">
  <ele>-0.12</ele>
  <time>2026-09-01T01:12:10Z</time>
  <course>0.0</course>
  <speed>0.0</speed>
  <fix>3d</fix>
</trkpt>
<trkpt lat="33.8103131" lon="-118.3938671">
  <ele>-0.126</ele>
  <time>2026-09-01T01:12:10Z</time>
  <course>186.48</course>
  <speed>0.022360679774997897</speed>
  <fix>3d</fix>
</trkpt>
<trkpt lat="33.810313" lon="-118.393867">
  <ele>-0.12</ele>
  <time>2026-09-01T01:12:10Z</time>
  <course>0.0</course>
  <speed>0.0</speed>
  <fix>3d</fix>
</trkpt>
<trkpt lat="33.8103131" lon="-118.3938671">
  <ele>-0.122</ele>
  <time>2026-09-01T01:12:10Z</time>
  <course>186.48</course>
  <speed>0.022360679774997897</speed>
  <fix>3d</fix>
</trkpt>
<trkpt lat="33.810313" lon="-118.393867">
  <ele>-0.12</ele>
  <time>2026-09-01T01:12:10Z</time>
  <course>0.0</course>
  <speed>0.0</speed>
  <fix>3d</fix>
</trkpt>
<trkpt lat="33.8103131" lon="-118.3938671">
  <ele>-0.12</ele>
  <time>2026-09-01T01:12:10Z</time>
  <course>186.48</course>
  <speed>0.022360679774997897</speed>
  <fix>3d</fix>
</trkpt>
<trkpt lat="33.810313" lon="-118.393867">
  <ele>-0.12</ele>
  <time>2026-09-01T01:12:10Z</time>
  <course>0.0</course>
  <speed>0.0</speed>
  <fix>3d</fix>
</trkpt>
<trkpt lat="33.8103131" lon="-118.3938671">
  <ele>-0.12</ele>
  <time>2026-09-01T01:12:10Z</time>
  <course>186.48</course>
  <speed>0.022360679774997897</speed>
  <fix>3d</fix>
</trkpt>
<trkpt lat="33.810313" lon="-118.393867">
  <ele>-0.12</ele>
  <time>2026-09-01T01:12:10Z</time>
  <course>0.0</course>
  <speed>0.0</speed>
  <fix>3d</fix>
</trkpt>
<trkpt lat="33.8103131" lon="-118.3938671">
  <ele>-0.119</ele>
  <time>2026-09-01T01:12:10Z</time>
  <course>186.48</course>
  <speed>0.022360679774997897</speed>
  <fix>3d</fix>
</trkpt>
<trkpt lat="33.810313" lon="-118.393867">
  <ele>-0.12</ele>
  <time>2026-09-01T01:12:10Z</time>
  <course>0.0</course>
  <speed>0.0</speed>
  <fix>3d</fix>
</trkpt>
<trkpt lat="33.8103131" lon="-118.3938671">
  <ele>-0.12</ele>
  <time>2026-09-01T01:12:10Z</time>
  <course>186.47</course>
  <speed>0.022360679774997897</speed>
  <fix>3d</fix>
</trkpt>
<trkpt lat="33.810313" lon="-118.393867">
  <ele>-0.12</ele>
  <time>2026-09-01T01:12:10Z</time>
  <course>0.0</course>
  <speed>0.0</speed>
  <fix>3d</fix>
</trkpt>
<trkpt lat="33.8103131" lon="-118.3938671">
  <ele>-0.12</ele>
  <time>2026-09-01T01:12:10Z</time>
  <course>186.47</course>
  <speed>0.022360679774997897</speed>
  <fix>3d</fix>
</trkpt>
<trkpt lat="33.810313" lon="-118.393867">
  <ele>-0.12</ele>
  <time>2026-09-01T01:12:10Z</time>
  <course>0.0</course>
  <speed>0.0</speed>
  <fix>3d</fix>
</trkpt>
<trkpt lat="33.8103131" lon="-118.3938671">
  <ele>-0.119</ele>
  <time>2026-09-01T01:12:10Z</time>
  <course>186.47</course>
  <speed>0.022360679774997897</speed>
  <fix>3d</fix>
</trkpt>
<trkpt lat="33.810313" lon="-118.393867">
  <ele>-0.12</ele>
  <time>2026-09-01T01:12:10Z</time>
  <course>0.0</course>
  <speed>0.0</speed>
  <fix>3d</fix>
</trkpt>
<trkpt lat="33.8103131" lon="-118.3938671">
  <ele>-0.119</ele>
  <time>2026-09-01T01:12:10Z</time>
  <course>186.47</course>
  <speed>0.022360679774997897</speed>
  <fix>3d</fix>
</trkpt>
<trkpt lat="33.810313" lon="-118.393867">
  <ele>-0.12</ele>
  <time>2026-09-01T01:12:10Z</time>
  <course>0.0</course>
  <speed>0.0</speed>
  <fix>3d</fix>
</trkpt>
<trkpt lat="33.8103131" lon="-118.3938671">
  <ele>-0.119</ele>
  <time>2026-09-01T01:12:10Z</time>
  <course>186.47</course>
  <speed>0.022360679774997897</speed>
  <fix>3d</fix>
</trkpt>
<trkpt lat="33.810313" lon="-118.393867">
  <ele>-0.12</ele>
  <time>2026-09-01T01:12:10Z</time>
  <course>0.0</course>
  <speed>0.0</speed>
  <fix>3d</fix>
</trkpt>
<trkpt lat="33.8103131" lon="-118.3938671">
  <ele>-0.118</ele>
  <time>2026-09-01T01:12:10Z</time>
  <course>186.47</course>
  <speed>0.022360679774997897</speed>
  <fix>3d</fix>
</trkpt>
<trkpt lat="33.810313" lon="-118.393867">
  <ele>-0.12</ele>
  <time>2026-09-01T01:12:10Z</time>
  <course>0.0</course>
  <speed>0.0</speed>
  <fix>3d</fix>
</trkpt>
<trkpt lat="33.8103131" lon="-118.3938671">
  <ele>-0.117</ele>
  <time>2026-09-01T01:12:10Z</time>
  <course>186.47</course>
  <speed>0.022360679774997897</speed>
  <fix>3d</fix>
</trkpt>
<trkpt lat="33.810313" lon="-118.393867">
  <ele>-0.12</ele>
  <time>2026-09-01T01:12:10Z</time>
  <course>0.0</course>
  <speed>0.0</speed>
  <fix>3d</fix>
</trkpt>
<trkpt lat="33.8103131" lon="-118.3938671">
  <ele>-0.116</ele>
  <time>2026-09-01T01:12:10Z</time>
  <course>186.46</course>
  <speed>0.022360679774997897</speed>
  <fix>3d</fix>
</trkpt>
<trkpt lat="33.810313" lon="-118.393867">
  <ele>-0.12</ele>
  <time>2026-09-01T01:12:10Z</time>
  <course>0.0</course>
  <speed>0.0</speed>
  <fix>3d</fix>
</trkpt>
<trkpt lat="33.8103131" lon="-118.3938671">
  <ele>-0.116</ele>
  <time>2026-09-01T01:12:10Z</time>
  <course>186.46</course>
  <speed>0.022360679774997897</speed>
  <fix>3d</fix>
</trkpt>
<trkpt lat="33.810313" lon="-118.393867">
  <ele>-0.12</ele>
  <time>2026-09-01T01:12:10Z</time>
  <course>0.0</course>
  <speed>0.0</speed>
  <fix>3d</fix>
</trkpt>
<trkpt lat="33.8103131" lon="-118.3938671">
  <ele>-0.117</ele>
  <time>2026-09-01T01:12:10Z</time>
  <course>186.46</course>
  <speed>0.022360679774997897</speed>
  <fix>3d</fix>
</trkpt>
<trkpt lat="33.810313" lon="-118.393867">
  <ele>-0.12</ele>
  <time>2026-09-01T01:12:10Z</time>
  <course>0.0</course>
  <speed>0.0</speed>
  <fix>3d</fix>
</trkpt>
<trkpt lat="33.8103131" lon="-118.3938671">
  <ele>-0.118</ele>
  <time>2026-09-01T01:12:10Z</time>
  <course>186.46</course>
  <speed>0.022360679774997897</speed>
  <fix>3d</fix>
</trkpt>
<trkpt lat="33.810313" lon="-118.393867">
  <ele>-0.12</ele>
  <time>2026-09-01T01:12:10Z</time>
  <course>0.0</course>
  <speed>0.0</speed>
  <fix>3d</fix>
</trkpt>
<trkpt lat="33.8103131" lon="-118.3938671">
  <ele>-0.12</ele>
  <time>2026-09-01T01:12:10Z</time>
  <course>186.46</course>
  <speed>0.022360679774997897</speed>
  <fix>3d</fix>
</trkpt>
<trkpt lat="33.810313" lon="-118.393867">
  <ele>-0.12</ele>
  <time>2026-09-01T01:12:10Z</time>
  <course>0.0</course>
  <speed>0.0</speed>
  <fix>3d</fix>
</trkpt>
<trkpt lat="33.8103131" lon="-118.3938671">
  <ele>-0.121</ele>
  <time>2026-09-01T01:12:10Z</time>
  <course>186.46</course>
  <speed>0.022360679774997897</speed>
  <fix>3d</fix>
</trkpt>
<trkpt lat="33.810313" lon="-118.393867">
  <ele>-0.12</ele>
  <time>2026-09-01T01:12:10Z</time>
  <course>0.0</course>
  <speed>0.0</speed>
  <fix>3d</fix>
</trkpt>
<trkpt lat="33.8103131" lon="-118.3938671">
  <ele>-0.121</ele>
  <time>2026-09-01T01:12:10Z</time>
  <course>186.46</course>
  <speed>0.022360679774997897</speed>
  <fix>3d</fix>
</trkpt>
<trkpt lat="33.810313" lon="-118.393867">
  <ele>-0.12</ele>
  <time>2026-09-01T01:12:10Z</time>
  <course>0.0</course>
  <speed>0.0</speed>
  <fix>3d</fix>
</trkpt>
<trkpt lat="33.8103131" lon="-118.3938671">
  <ele>-0.12</ele>
  <time>2026-09-01T01:12:10Z</time>
  <course>186.45</course>
  <speed>0.022360679774997897</speed>
  <fix>3d</fix>
</trkpt>
<trkpt lat="33.810313" lon="-118.393867">
  <ele>-0.12</ele>
  <time>2026-09-01T01:12:10Z</time>
  <course>0.0</course>
  <speed>0.0</speed>
  <fix>3d</fix>
</trkpt>
<trkpt lat="33.8103131" lon="-118.3938671">
  <ele>-0.119</ele>
  <time>2026-09-01T01:12:10Z</time>
  <course>186.45</course>
  <speed>0.022360679774997897</speed>
  <fix>3d</fix>
</trkpt>
<trkpt lat="33.810313" lon="-118.393867">
  <ele>-0.12</ele>
  <time>2026-09-01T01:12:10Z</time>
  <course>0.0</course>
  <speed>0.0</speed>
  <fix>3d</fix>
</trkpt>
<trkpt lat="33.8103131" lon="-118.3938671">
  <ele>-0.118</ele>
  <time>2026-09-01T01:12:10Z</time>
  <course>186.45</course>
  <speed>0.022360679774997897</speed>
  <fix>3d</fix>
</trkpt>
<trkpt lat="33.810313" lon="-118.393867">
  <ele>-0.12</ele>
  <time>2026-09-01T01:12:10Z</time>
  <course>0.0</course>
  <speed>0.0</speed>
  <fix>3d</fix>
</trkpt>
<trkpt lat="33.8103131" lon="-118.3938671">
  <ele>-0.118</ele>
  <time>2026-09-01T01:12:10Z</time>
  <course>186.45</course>
  <speed>0.022360679774997897</speed>
  <fix>3d</fix>
</trkpt>
<trkpt lat="33.810313" lon="-118.393867">
  <ele>-0.12</ele>
  <time>2026-09-01T01:12:10Z</time>
  <course>0.0</course>
  <speed>0.0</speed>
  <fix>3d</fix>
</trkpt>
<trkpt lat="33.8103131" lon="-118.3938671">
  <ele>-0.119</ele>
  <time>2026-09-01T01:12:10Z</time>
  <course>186.45</course>
  <speed>0.022360679774997897</speed>
  <fix>3d</fix>
</trkpt>
<trkpt lat="33.810313" lon="-118.393867">
  <ele>-0.12</ele>
  <time>2026-09-01T01:12:10Z</time>
  <course>0.0</course>
  <speed>0.0</speed>
  <fix>3d</fix>
</trkpt>
<trkpt lat="33.8103132" lon="-118.3938671">
  <ele>-0.12</ele>
  <time>2026-09-01T01:12:10Z</time>
  <course>186.45</course>
  <speed>0.022360679774997897</speed>
  <fix>3d</fix>
</trkpt>
<trkpt lat="33.810313" lon="-118.393867">
  <ele>-0.12</ele>
  <time>2026-09-01T01:12:10Z</time>
  <course>0.0</course>
  <speed>0.0</speed>
  <fix>3d</fix>
</trkpt>
<trkpt lat="33.8103131" lon="-118.3938671">
  <ele>-0.121</ele>
  <time>2026-09-01T01:12:10Z</time>
  <course>186.45</course>
  <speed>0.022360679774997897</speed>
  <fix>3d</fix>
</trkpt>
<trkpt lat="33.810313" lon="-118.393867">
  <ele>-0.12</ele>
  <time>2026-09-01T01:12:10Z</time>
  <course>0.0</course>
  <speed>0.0</speed>
  <fix>3d</fix>
</trkpt>
<trkpt lat="33.8103132" lon="-118.3938671">
  <ele>-0.123</ele>
  <time>2026-09-01T01:12:10Z</time>
  <course>186.44</course>
  <speed>0.022360679774997897</speed>
  <fix>3d</fix>
</trkpt>
<trkpt lat="33.810313" lon="-118.393867">
  <ele>-0.12</ele>
  <time>2026-09-01T01:12:10Z</time>
  <course>0.0</course>
  <speed>0.0</speed>
  <fix>3d</fix>
</trkpt>
<trkpt lat="33.8103131" lon="-118.3938671">
  <ele>-0.125</ele>
  <time>2026-09-01T01:12:10Z</time>
  <course>186.44</course>
  <speed>0.022360679774997897</speed>
  <fix>3d</fix>
</trkpt>
<trkpt lat="33.810313" lon="-118.393867">
  <ele>-0.12</ele>
  <time>2026-09-01T01:12:10Z</time>
  <course>0.0</course>
  <speed>0.0</speed>
  <fix>3d</fix>
</trkpt>
<trkpt lat="33.8103132" lon="-118.3938671">
  <ele>-0.126</ele>
  <time>2026-09-01T01:12:10Z</time>
  <course>186.44</course>
  <speed>0.022360679774997897</speed>
  <fix>3d</fix>
</trkpt>
<trkpt lat="33.810313" lon="-118.393867">
  <ele>-0.12</ele>
  <time>2026-09-01T01:12:10Z</time>
  <course>0.0</course>
  <speed>0.0</speed>
  <fix>3d</fix>
</trkpt>
<trkpt lat="33.8103131" lon="-118.3938671">
  <ele>-0.127</ele>
  <time>2026-09-01T01:12:10Z</time>
  <course>186.44</course>
  <speed>0.022360679774997897</speed>
  <fix>3d</fix>
</trkpt>
<trkpt lat="33.810313" lon="-118.393867">
  <ele>-0.12</ele>
  <time>2026-09-01T01:12:10Z</time>
  <course>0.0</course>
  <speed>0.0</speed>
  <fix>3d</fix>
</trkpt>
<trkpt lat="33.8103132" lon="-118.3938671">
  <ele>-0.128</ele>
  <time>2026-09-01T01:12:10Z</time>
  <course>186.44</course>
  <speed>0.022360679774997897</speed>
  <fix>3d</fix>
</trkpt>
<trkpt lat="33.810313" lon="-118.393867">
  <ele>-0.12</ele>
  <time>2026-09-01T01:12:10Z</time>
  <course>0.0</course>
  <speed>0.0</speed>
  <fix>3d</fix>
</trkpt>
<trkpt lat="33.8103131" lon="-118.3938671">
  <ele>-0.13</ele>
  <time>2026-09-01T01:12:10Z</time>
  <course>186.44</course>
  <speed>0.022360679774997897</speed>
  <fix>3d</fix>
</trkpt>
<trkpt lat="33.810313" lon="-118.393867">
  <ele>-0.12</ele>
  <time>2026-09-01T01:12:10Z</time>
  <course>0.0</course>
  <speed>0.0</speed>
  <fix>3d</fix>
</trkpt>
<trkpt lat="33.8103132" lon="-118.3938671">
  <ele>-0.131</ele>
  <time>2026-09-01T01:12:10Z</time>
  <course>186.44</course>
  <speed>0.022360679774997897</speed>
  <fix>3d</fix>
</trkpt>
<trkpt lat="33.810313" lon="-118.393867">
  <ele>-0.12</ele>
  <time>2026-09-01T01:12:10Z</time>
  <course>0.0</course>
  <speed>0.0</speed>
  <fix>3d</fix>
</trkpt>
<trkpt lat="33.8103131" lon="-118.3938671">
  <ele>-0.133</ele>
  <time>2026-09-01T01:12:10Z</time>
  <course>186.43</course>
  <speed>0.022360679774997897</speed>
  <fix>3d</fix>
</trkpt>
<trkpt lat="33.810313" lon="-118.393867">
  <ele>-0.12</ele>
  <time>2026-09-01T01:12:10Z</time>
  <course>0.0</course>
  <speed>0.0</speed>
  <fix>3d</fix>
</trkpt>
<trkpt lat="33.8103132" lon="-118.3938671">
  <ele>-0.135</ele>
  <time>2026-09-01T01:12:10Z</time>
  <course>186.43</course>
  <speed>0.022360679774997897</speed>
  <fix>3d</fix>
</trkpt>
<trkpt lat="33.810313" lon="-118.393867">
  <ele>-0.12</ele>
  <time>2026-09-01T01:12:10Z</time>
  <course>0.0</course>
  <speed>0.0</speed>
  <fix>3d</fix>
</trkpt>
<trkpt lat="33.8103131" lon="-118.3938671">
  <ele>-0.136</ele>
  <time>2026-09-01T01:12:10Z</time>
  <course>186.43</course>
  <speed>0.022360679774997897</speed>
  <fix>3d</fix>
</trkpt>
<trkpt lat="33.810313" lon="-118.393867">
  <ele>-0.12</ele>
  <time>2026-09-01T01:12:10Z</time>
  <course>0.0</course>
  <speed>0.0</speed>
  <fix>3d</fix>
</trkpt>
<trkpt lat="33.8103132" lon="-118.3938671">
  <ele>-0.137</ele>
  <time>2026-09-01T01:12:10Z</time>
  <course>186.43</course>
  <speed>0.022360679774997897</speed>
  <fix>3d</fix>
</trkpt>
<trkpt lat="33.810313" lon="-118.393867">
  <ele>-0.12</ele>
  <time>2026-09-01T01:12:10Z</time>
  <course>0.0</course>
  <speed>0.0</speed>
  <fix>3d</fix>
</trkpt>
<trkpt lat="33.8103132" lon="-118.3938671">
  <ele>-0.138</ele>
  <time>2026-09-01T01:12:10Z</time>
  <course>186.43</course>
  <speed>0.022360679774997897</speed>
  <fix>3d</fix>
</trkpt>
<trkpt lat="33.810313" lon="-118.393867">
  <ele>-0.12</ele>
  <time>2026-09-01T01:12:10Z</time>
  <course>0.0</course>
  <speed>0.0</speed>
  <fix>3d</fix>
</trkpt>
<trkpt lat="33.8103132" lon="-118.3938671">
  <ele>-0.138</ele>
  <time>2026-09-01T01:12:10Z</time>
  <course>186.43</course>
  <speed>0.022360679774997897</speed>
  <fix>3d</fix>
</trkpt>
<trkpt lat="33.810313" lon="-118.393867">
  <ele>-0.12</ele>
  <time>2026-09-01T01:12:10Z</time>
  <course>0.0</course>
  <speed>0.0</speed>
  <fix>3d</fix>
</trkpt>
<trkpt lat="33.8103132" lon="-118.3938671">
  <ele>-0.136</ele>
  <time>2026-09-01T01:12:10Z</time>
  <course>186.43</course>
  <speed>0.022360679774997897</speed>
  <fix>3d</fix>
</trkpt>
<trkpt lat="33.810313" lon="-118.393867">
  <ele>-0.12</ele>
  <time>2026-09-01T01:12:10Z</time>
  <course>0.0</course>
  <speed>0.0</speed>
  <fix>3d</fix>
</trkpt>
<trkpt lat="33.8103132" lon="-118.3938671">
  <ele>-0.134</ele>
  <time>2026-09-01T01:12:10Z</time>
  <course>186.43</course>
  <speed>0.022360679774997897</speed>
  <fix>3d</fix>
</trkpt>
<trkpt lat="33.810313" lon="-118.393867">
  <ele>-0.12</ele>
  <time>2026-09-01T01:12:10Z</time>
  <course>0.0</course>
  <speed>0.0</speed>
  <fix>3d</fix>
</trkpt>
<trkpt lat="33.8103132" lon="-118.3938671">
  <ele>-0.133</ele>
  <time>2026-09-01T01:12:10Z</time>
  <course>186.42</course>
  <speed>0.022360679774997897</speed>
  <fix>3d</fix>
</trkpt>
<trkpt lat="33.810313" lon="-118.393867">
  <ele>-0.12</ele>
  <time>2026-09-01T01:12:10Z</time>
  <course>0.0</course>
  <speed>0.0</speed>
  <fix>3d</fix>
</trkpt>
<trkpt lat="33.8103132" lon="-118.3938671">
  <ele>-0.133</ele>
  <time>2026-09-01T01:12:10Z</time>
  <course>186.42</course>
  <speed>0.022360679774997897</speed>
  <fix>3d</fix>
</trkpt>
<trkpt lat="33.810313" lon="-118.393867">
  <ele>-0.12</ele>
  <time>2026-09-01T01:12:10Z</time>
  <course>0.0</course>
  <speed>0.0</speed>
  <fix>3d</fix>
</trkpt>
<trkpt lat="33.8103132" lon="-118.3938671">
  <ele>-0.132</ele>
  <time>2026-09-01T01:12:10Z</time>
  <course>186.42</course>
  <speed>0.022360679774997897</speed>
  <fix>3d</fix>
</trkpt>
<trkpt lat="33.810313" lon="-118.393867">
  <ele>-0.12</ele>
  <time>2026-09-01T01:12:10Z</time>
  <course>0.0</course>
  <speed>0.0</speed>
  <fix>3d</fix>
</trkpt>
<trkpt lat="33.8103132" lon="-118.3938671">
  <ele>-0.132</ele>
  <time>2026-09-01T01:12:10Z</time>
  <course>186.42</course>
  <speed>0.022360679774997897</speed>
  <fix>3d</fix>
</trkpt>
<trkpt lat="33.810313" lon="-118.393867">
  <ele>-0.12</ele>
  <time>2026-09-01T01:12:10Z</time>
  <course>0.0</course>
  <speed>0.0</speed>
  <fix>3d</fix>
</trkpt>
<trkpt lat="33.8103132" lon="-118.3938671">
  <ele>-0.132</ele>
  <time>2026-09-01T01:12:10Z</time>
  <course>186.42</course>
  <speed>0.022360679774997897</speed>
  <fix>3d</fix>
</trkpt>
<trkpt lat="33.810313" lon="-118.393867">
  <ele>-0.12</ele>
  <time>2026-09-01T01:12:10Z</time>
  <course>0.0</course>
  <speed>0.0</speed>
  <fix>3d</fix>
</trkpt>
<trkpt lat="33.8103132" lon="-118.3938671">
  <ele>-0.132</ele>
  <time>2026-09-01T01:12:10Z</time>
  <course>186.42</course>
  <speed>0.022360679774997897</speed>
  <fix>3d</fix>
</trkpt>
<trkpt lat="33.810313" lon="-118.393867">
  <ele>-0.12</ele>
  <time>2026-09-01T01:12:10Z</time>
  <course>0.0</course>
  <speed>0.0</speed>
  <fix>3d</fix>
</trkpt>
<trkpt lat="33.8103132" lon="-118.3938671">
  <ele>-0.132</ele>
  <time>2026-09-01T01:12:10Z</time>
  <course>186.42</course>
  <speed>0.022360679774997897</speed>
  <fix>3d</fix>
</trkpt>
<trkpt lat="33.810313" lon="-118.393867">
  <ele>-0.12</ele>
  <time>2026-09-01T01:12:10Z</time>
  <course>0.0</course>
  <speed>0.0</speed>
  <fix>3d</fix>
</trkpt>
<trkpt lat="33.8103132" lon="-118.3938671">
  <ele>-0.132</ele>
  <time>2026-09-01T01:12:10Z</time>
  <course>186.41</course>
  <speed>0.022360679774997897</speed>
  <fix>3d</fix>
</trkpt>
<trkpt lat="33.810313" lon="-118.393867">
  <ele>-0.12</ele>
  <time>2026-09-01T01:12:10Z</time>
  <course>0.0</course>
  <speed>0.0</speed>
  <fix>3d</fix>
</trkpt>
<trkpt lat="33.8103132" lon="-118.3938671">
  <ele>-0.131</ele>
  <time>2026-09-01T01:12:10Z</time>
  <course>186.41</course>
  <speed>0.022360679774997897</speed>
  <fix>3d</fix>
</trkpt>
<trkpt lat="33.810313" lon="-118.393867">
  <ele>-0.12</ele>
  <time>2026-09-01T01:12:10Z</time>
  <course>0.0</course>
  <speed>0.0</speed>
  <fix>3d</fix>
</trkpt>
<trkpt lat="33.8103132" lon="-118.3938671">
  <ele>-0.13</ele>
  <time>2026-09-01T01:12:10Z</time>
  <course>186.41</course>
  <speed>0.022360679774997897</speed>
  <fix>3d</fix>
</trkpt>
<trkpt lat="33.810313" lon="-118.393867">
  <ele>-0.12</ele>
  <time>2026-09-01T01:12:10Z</time>
  <course>0.0</course>
  <speed>0.0</speed>
  <fix>3d</fix>
</trkpt>
<trkpt lat="33.8103132" lon="-118.3938671">
  <ele>-0.129</ele>
  <time>2026-09-01T01:12:10Z</time>
  <course>186.41</course>
  <speed>0.022360679774997897</speed>
  <fix>3d</fix>
</trkpt>
<trkpt lat="33.810313" lon="-118.393867">
  <ele>-0.12</ele>
  <time>2026-09-01T01:12:10Z</time>
  <course>0.0</course>
  <speed>0.0</speed>
  <fix>3d</fix>
</trkpt>
<trkpt lat="33.8103132" lon="-118.3938671">
  <ele>-0.127</ele>
  <time>2026-09-01T01:12:10Z</time>
  <course>186.41</course>
  <speed>0.022360679774997897</speed>
  <fix>3d</fix>
</trkpt>
<trkpt lat="33.810313" lon="-118.393867">
  <ele>-0.12</ele>
  <time>2026-09-01T01:12:10Z</time>
  <course>0.0</course>
  <speed>0.0</speed>
  <fix>3d</fix>
</trkpt>
<trkpt lat="33.8103132" lon="-118.3938671">
  <ele>-0.125</ele>
  <time>2026-09-01T01:12:10Z</time>
  <course>186.41</course>
  <speed>0.022360679774997897</speed>
  <fix>3d</fix>
</trkpt>
<trkpt lat="33.810313" lon="-118.393867">
  <ele>-0.12</ele>
  <time>2026-09-01T01:12:10Z</time>
  <course>0.0</course>
  <speed>0.0</speed>
  <fix>3d</fix>
</trkpt>
<trkpt lat="33.8103132" lon="-118.3938671">
  <ele>-0.123</ele>
  <time>2026-09-01T01:12:10Z</time>
  <course>186.41</course>
  <speed>0.022360679774997897</speed>
  <fix>3d</fix>
</trkpt>
<trkpt lat="33.810313" lon="-118.393867">
  <ele>-0.12</ele>
  <time>2026-09-01T01:12:10Z</time>
  <course>0.0</course>
  <speed>0.0</speed>
  <fix>3d</fix>
</trkpt>
<trkpt lat="33.8103132" lon="-118.3938671">
  <ele>-0.123</ele>
  <time>2026-09-01T01:12:10Z</time>
  <course>186.41</course>
  <speed>0.022360679774997897</speed>
  <fix>3d</fix>
</trkpt>
<trkpt lat="33.810313" lon="-118.393867">
  <ele>-0.12</ele>
  <time>2026-09-01T01:12:10Z</time>
  <course>0.0</course>
  <speed>0.0</speed>
  <fix>3d</fix>
</trkpt>
<trkpt lat="33.8103132" lon="-118.3938671">
  <ele>-0.124</ele>
  <time>2026-09-01T01:12:10Z</time>
  <course>186.41</course>
  <speed>0.022360679774997897</speed>
  <fix>3d</fix>
</trkpt>
<trkpt lat="33.810313" lon="-118.393867">
  <ele>-0.12</ele>
  <time>2026-09-01T01:12:10Z</time>
  <course>0.0</course>
  <speed>0.0</speed>
  <fix>3d</fix>
</trkpt>
<trkpt lat="33.8103132" lon="-118.3938671">
  <ele>-0.125</ele>
  <time>2026-09-01T01:12:10Z</time>
  <course>186.4</course>
  <speed>0.022360679774997897</speed>
  <fix>3d</fix>
</trkpt>
<trkpt lat="33.810313" lon="-118.393867">
  <ele>-0.12</ele>
  <time>2026-09-01T01:12:10Z</time>
  <course>0.0</course>
  <speed>0.0</speed>
  <fix>3d</fix>
</trkpt>
<trkpt lat="33.8103132" lon="-118.3938671">
  <ele>-0.125</ele>
  <time>2026-09-01T01:12:10Z</time>
  <course>186.4</course>
  <speed>0.022360679774997897</speed>
  <fix>3d</fix>
</trkpt>
<trkpt lat="33.810313" lon="-118.393867">
  <ele>-0.12</ele>
  <time>2026-09-01T01:12:10Z</time>
  <course>0.0</course>
  <speed>0.0</speed>
  <fix>3d</fix>
</trkpt>
<trkpt lat="33.8103132" lon="-118.3938671">
  <ele>-0.125</ele>
  <time>2026-09-01T01:12:10Z</time>
  <course>186.4</course>
  <speed>0.022360679774997897</speed>
  <fix>3d</fix>
</trkpt>
<trkpt lat="33.810313" lon="-118.393867">
  <ele>-0.12</ele>
  <time>2026-09-01T01:12:10Z</time>
  <course>0.0</course>
  <speed>0.0</speed>
  <fix>3d</fix>
</trkpt>
<trkpt lat="33.8103132" lon="-118.3938671">
  <ele>-0.125</ele>
  <time>2026-09-01T01:12:10Z</time>
  <course>186.4</course>
  <speed>0.022360679774997897</speed>
  <fix>3d</fix>
</trkpt>
<trkpt lat="33.810313" lon="-118.393867">
  <ele>-0.12</ele>
  <time>2026-09-01T01:12:10Z</time>
  <course>0.0</course>
  <speed>0.0</speed>
  <fix>3d</fix>
</trkpt>
<trkpt lat="33.8103132" lon="-118.3938671">
  <ele>-0.126</ele>
  <time>2026-09-01T01:12:10Z</time>
  <course>186.4</course>
  <speed>0.022360679774997897</speed>
  <fix>3d</fix>
</trkpt>
<trkpt lat="33.810313" lon="-118.393867">
  <ele>-0.12</ele>
  <time>2026-09-01T01:12:10Z</time>
  <course>0.0</course>
  <speed>0.0</speed>
  <fix>3d</fix>
</trkpt>
<trkpt lat="33.8103132" lon="-118.3938671">
  <ele>-0.127</ele>
  <time>2026-09-01T01:12:10Z</time>
  <course>186.4</course>
  <speed>0.022360679774997897</speed>
  <fix>3d</fix>
</trkpt>
<trkpt lat="33.810313" lon="-118.393867">
  <ele>-0.12</ele>
  <time>2026-09-01T01:12:10Z</time>
  <course>0.0</course>
  <speed>0.0</speed>
  <fix>3d</fix>
</trkpt>
<trkpt lat="33.8103132" lon="-118.3938671">
  <ele>-0.129</ele>
  <time>2026-09-01T01:12:10Z</time>
  <course>186.4</course>
  <speed>0.022360679774997897</speed>
  <fix>3d</fix>
</trkpt>
<trkpt lat="33.810313" lon="-118.393867">
  <ele>-0.12</ele>
  <time>2026-09-01T01:12:10Z</time>
  <course>0.0</course>
  <speed>0.0</speed>
  <fix>3d</fix>
</trkpt>
<trkpt lat="33.8103132" lon="-118.3938671">
  <ele>-0.131</ele>
  <time>2026-09-01T01:12:10Z</time>
  <course>186.4</course>
  <speed>0.022360679774997897</speed>
  <fix>3d</fix>
</trkpt>
<trkpt lat="33.810313" lon="-118.393867">
  <ele>-0.12</ele>
  <time>2026-09-01T01:12:10Z</time>
  <course>0.0</course>
  <speed>0.0</speed>
  <fix>3d</fix>
</trkpt>
<trkpt lat="33.8103132" lon="-118.3938671">
  <ele>-0.133</ele>
  <time>2026-09-01T01:12:10Z</time>
  <course>186.39</course>
  <speed>0.022360679774997897</speed>
  <fix>3d</fix>
</trkpt>
<trkpt lat="33.810313" lon="-118.393867">
  <ele>-0.12</ele>
  <time>2026-09-01T01:12:10Z</time>
  <course>0.0</course>
  <speed>0.0</speed>
  <fix>3d</fix>
</trkpt>
<trkpt lat="33.8103132" lon="-118.3938671">
  <ele>-0.135</ele>
  <time>2026-09-01T01:12:10Z</time>
  <course>186.39</course>
  <speed>0.022360679774997897</speed>
  <fix>3d</fix>
</trkpt>
<trkpt lat="33.810313" lon="-118.393867">
  <ele>-0.12</ele>
  <time>2026-09-01T01:12:10Z</time>
  <course>0.0</course>
  <speed>0.0</speed>
  <fix>3d</fix>
</trkpt>
<trkpt lat="33.8103132" lon="-118.3938671">
  <ele>-0.136</ele>
  <time>2026-09-01T01:12:10Z</time>
  <course>186.39</course>
  <speed>0.022360679774997897</speed>
  <fix>3d</fix>
</trkpt>
<trkpt lat="33.810313" lon="-118.393867">
  <ele>-0.12</ele>
  <time>2026-09-01T01:12:10Z</time>
  <course>0.0</course>
  <speed>0.0</speed>
  <fix>3d</fix>
</trkpt>
<trkpt lat="33.8103132" lon="-118.3938671">
  <ele>-0.135</ele>
  <time>2026-09-01T01:12:10Z</time>
  <course>186.39</course>
  <speed>0.022360679774997897</speed>
  <fix>3d</fix>
</trkpt>
<trkpt lat="33.810313" lon="-118.393867">
  <ele>-0.12</ele>
  <time>2026-09-01T01:12:10Z</time>
  <course>0.0</course>
  <speed>0.0</speed>
  <fix>3d</fix>
</trkpt>
<trkpt lat="33.8103132" lon="-118.3938671">
  <ele>-0.134</ele>
  <time>2026-09-01T01:12:10Z</time>
  <course>186.39</course>
  <speed>0.022360679774997897</speed>
  <fix>3d</fix>
</trkpt>
<trkpt lat="33.810313" lon="-118.393867">
  <ele>-0.12</ele>
  <time>2026-09-01T01:12:10Z</time>
  <course>0.0</course>
  <speed>0.0</speed>
  <fix>3d</fix>
</trkpt>
<trkpt lat="33.8103132" lon="-118.3938671">
  <ele>-0.132</ele>
  <time>2026-09-01T01:12:10Z</time>
  <course>186.39</course>
  <speed>0.022360679774997897</speed>
  <fix>3d</fix>
</trkpt>
<trkpt lat="33.810313" lon="-118.393867">
  <ele>-0.12</ele>
  <time>2026-09-01T01:12:10Z</time>
  <course>0.0</course>
  <speed>0.0</speed>
  <fix>3d</fix>
</trkpt>
<trkpt lat="33.8103132" lon="-118.3938671">
  <ele>-0.131</ele>
  <time>2026-09-01T01:12:10Z</time>
  <course>186.39</course>
  <speed>0.022360679774997897</speed>
  <fix>3d</fix>
</trkpt>
<trkpt lat="33.810313" lon="-118.393867">
  <ele>-0.12</ele>
  <time>2026-09-01T01:12:10Z</time>
  <course>0.0</course>
  <speed>0.0</speed>
  <fix>3d</fix>
</trkpt>
<trkpt lat="33.8103132" lon="-118.3938671">
  <ele>-0.13</ele>
  <time>2026-09-01T01:12:10Z</time>
  <course>186.39</course>
  <speed>0.022360679774997897</speed>
  <fix>3d</fix>
</trkpt>
<trkpt lat="33.810313" lon="-118.393867">
  <ele>-0.12</ele>
  <time>2026-09-01T01:12:10Z</time>
  <course>0.0</course>
  <speed>0.0</speed>
  <fix>3d</fix>
</trkpt>
<trkpt lat="33.8103132" lon="-118.3938671">
  <ele>-0.13</ele>
  <time>2026-09-01T01:12:10Z</time>
  <course>186.39</course>
  <speed>0.022360679774997897</speed>
  <fix>3d</fix>
</trkpt>
<trkpt lat="33.810313" lon="-118.393867">
  <ele>-0.12</ele>
  <time>2026-09-01T01:12:10Z</time>
  <course>0.0</course>
  <speed>0.0</speed>
  <fix>3d</fix>
</trkpt>
<trkpt lat="33.8103132" lon="-118.3938671">
  <ele>-0.131</ele>
  <time>2026-09-01T01:12:10Z</time>
  <course>186.38</course>
  <speed>0.022360679774997897</speed>
  <fix>3d</fix>
</trkpt>
<trkpt lat="33.810313" lon="-118.393867">
  <ele>-0.12</ele>
  <time>2026-09-01T01:12:10Z</time>
  <course>0.0</course>
  <speed>0.0</speed>
  <fix>3d</fix>
</trkpt>
<trkpt lat="33.8103132" lon="-118.3938671">
  <ele>-0.131</ele>
  <time>2026-09-01T01:12:10Z</time>
  <course>186.38</course>
  <speed>0.022360679774997897</speed>
  <fix>3d</fix>
</trkpt>
<trkpt lat="33.810313" lon="-118.393867">
  <ele>-0.12</ele>
  <time>2026-09-01T01:12:10Z</time>
  <course>0.0</course>
  <speed>0.0</speed>
  <fix>3d</fix>
</trkpt>
<trkpt lat="33.8103132" lon="-118.3938671">
  <ele>-0.131</ele>
  <time>2026-09-01T01:12:10Z</time>
  <course>186.38</course>
  <speed>0.022360679774997897</speed>
  <fix>3d</fix>
</trkpt>
<trkpt lat="33.810313" lon="-118.393867">
  <ele>-0.12</ele>
  <time>2026-09-01T01:12:10Z</time>
  <course>0.0</course>
  <speed>0.0</speed>
  <fix>3d</fix>
</trkpt>
<trkpt lat="33.8103132" lon="-118.3938671">
  <ele>-0.131</ele>
  <time>2026-09-01T01:12:10Z</time>
  <course>186.38</course>
  <speed>0.022360679774997897</speed>
  <fix>3d</fix>
</trkpt>
<trkpt lat="33.810313" lon="-118.393867">
  <ele>-0.12</ele>
  <time>2026-09-01T01:12:10Z</time>
  <course>0.0</course>
  <speed>0.0</speed>
  <fix>3d</fix>
</trkpt>
<trkpt lat="33.8103132" lon="-118.3938671">
  <ele>-0.131</ele>
  <time>2026-09-01T01:12:10Z</time>
  <course>186.38</course>
  <speed>0.022360679774997897</speed>
  <fix>3d</fix>
</trkpt>
<trkpt lat="33.810313" lon="-118.393867">
  <ele>-0.12</ele>
  <time>2026-09-01T01:12:10Z</time>
  <course>0.0</course>
  <speed>0.0</speed>
  <fix>3d</fix>
</trkpt>
<trkpt lat="33.8103132" lon="-118.3938671">
  <ele>-0.13</ele>
  <time>2026-09-01T01:12:10Z</time>
  <course>186.38</course>
  <speed>0.022360679774997897</speed>
  <fix>3d</fix>
</trkpt>
<trkpt lat="33.810313" lon="-118.393867">
  <ele>-0.12</ele>
  <time>2026-09-01T01:12:10Z</time>
  <course>0.0</course>
  <speed>0.0</speed>
  <fix>3d</fix>
</trkpt>
<trkpt lat="33.8103132" lon="-118.3938671">
  <ele>-0.13</ele>
  <time>2026-09-01T01:12:10Z</time>
  <course>186.38</course>
  <speed>0.022360679774997897</speed>
  <fix>3d</fix>
</trkpt>
<trkpt lat="33.810313" lon="-118.393867">
  <ele>-0.12</ele>
  <time>2026-09-01T01:12:10Z</time>
  <course>0.0</course>
  <speed>0.0</speed>
  <fix>3d</fix>
</trkpt>
<trkpt lat="33.8103132" lon="-118.3938671">
  <ele>-0.13</ele>
  <time>2026-09-01T01:12:10Z</time>
  <course>186.38</course>
  <speed>0.022360679774997897</speed>
  <fix>3d</fix>
</trkpt>
<trkpt lat="33.810313" lon="-118.393867">
  <ele>-0.12</ele>
  <time>2026-09-01T01:12:10Z</time>
  <course>0.0</course>
  <speed>0.0</speed>
  <fix>3d</fix>
</trkpt>
<trkpt lat="33.8103132" lon="-118.3938671">
  <ele>-0.129</ele>
  <time>2026-09-01T01:12:10Z</time>
  <course>186.38</course>
  <speed>0.022360679774997897</speed>
  <fix>3d</fix>
</trkpt>
<trkpt lat="33.810313" lon="-118.393867">
  <ele>-0.12</ele>
  <time>2026-09-01T01:12:10Z</time>
  <course>0.0</course>
  <speed>0.0</speed>
  <fix>3d</fix>
</trkpt>
<trkpt lat="33.8103132" lon="-118.3938671">
  <ele>-0.128</ele>
  <time>2026-09-01T01:12:10Z</time>
  <course>186.37</course>
  <speed>0.022360679774997897</speed>
  <fix>3d</fix>
</trkpt>
<trkpt lat="33.810313" lon="-118.393867">
  <ele>-0.12</ele>
  <time>2026-09-01T01:12:10Z</time>
  <course>0.0</course>
  <speed>0.0</speed>
  <fix>3d</fix>
</trkpt>
<trkpt lat="33.8103132" lon="-118.3938671">
  <ele>-0.127</ele>
  <time>2026-09-01T01:12:10Z</time>
  <course>186.37</course>
  <speed>0.022360679774997897</speed>
  <fix>3d</fix>
</trkpt>
<trkpt lat="33.810313" lon="-118.393867">
  <ele>-0.12</ele>
  <time>2026-09-01T01:12:10Z</time>
  <course>0.0</course>
  <speed>0.0</speed>
  <fix>3d</fix>
</trkpt>
<trkpt lat="33.8103132" lon="-118.3938671">
  <ele>-0.127</ele>
  <time>2026-09-01T01:12:10Z</time>
  <course>186.37</course>
  <speed>0.022360679774997897</speed>
  <fix>3d</fix>
</trkpt>
<trkpt lat="33.810313" lon="-118.393867">
  <ele>-0.12</ele>
  <time>2026-09-01T01:12:10Z</time>
  <course>0.0</course>
  <speed>0.0</speed>
  <fix>3d</fix>
</trkpt>
<trkpt lat="33.8103132" lon="-118.3938671">
  <ele>-0.128</ele>
  <time>2026-09-01T01:12:10Z</time>
  <course>186.37</course>
  <speed>0.022360679774997897</speed>
  <fix>3d</fix>
</trkpt>
<trkpt lat="33.810313" lon="-118.393867">
  <ele>-0.12</ele>
  <time>2026-09-01T01:12:10Z</time>
  <course>0.0</course>
  <speed>0.0</speed>
  <fix>3d</fix>
</trkpt>
<trkpt lat="33.8103132" lon="-118.3938671">
  <ele>-0.129</ele>
  <time>2026-09-01T01:12:10Z</time>
  <course>186.37</course>
  <speed>0.022360679774997897</speed>
  <fix>3d</fix>
</trkpt>
<trkpt lat="33.810313" lon="-118.393867">
  <ele>-0.12</ele>
  <time>2026-09-01T01:12:10Z</time>
  <course>0.0</course>
  <speed>0.0</speed>
  <fix>3d</fix>
</trkpt>
<trkpt lat="33.8103132" lon="-118.3938671">
  <ele>-0.129</ele>
  <time>2026-09-01T01:12:10Z</time>
  <course>186.37</course>
  <speed>0.022360679774997897</speed>
  <fix>3d</fix>
</trkpt>
<trkpt lat="33.810313" lon="-118.393867">
  <ele>-0.12</ele>
  <time>2026-09-01T01:12:10Z</time>
  <course>0.0</course>
  <speed>0.0</speed>
  <fix>3d</fix>
</trkpt>
<trkpt lat="33.8103132" lon="-118.3938671">
  <ele>-0.128</ele>
  <time>2026-09-01T01:12:10Z</time>
  <course>186.37</course>
  <speed>0.022360679774997897</speed>
  <fix>3d</fix>
</trkpt>
<trkpt lat="33.810313" lon="-118.393867">
  <ele>-0.12</ele>
  <time>2026-09-01T01:12:10Z</time>
  <course>0.0</course>
  <speed>0.0</speed>
  <fix>3d</fix>
</trkpt>
<trkpt lat="33.8103132" lon="-118.3938671">
  <ele>-0.128</ele>
  <time>2026-09-01T01:12:10Z</time>
  <course>186.37</course>
  <speed>0.022360679774997897</speed>
  <fix>3d</fix>
</trkpt>
<trkpt lat="33.810313" lon="-118.393867">
  <ele>-0.12</ele>
  <time>2026-09-01T01:12:10Z</time>
  <course>0.0</course>
  <speed>0.0</speed>
  <fix>3d</fix>
</trkpt>
<trkpt lat="33.8103132" lon="-118.3938671">
  <ele>-0.127</ele>
  <time>2026-09-01T01:12:10Z</time>
  <course>186.37</course>
  <speed>0.022360679774997897</speed>
  <fix>3d</fix>
</trkpt>
<trkpt lat="33.810313" lon="-118.393867">
  <ele>-0.12</ele>
  <time>2026-09-01T01:12:10Z</time>
  <course>0.0</course>
  <speed>0.0</speed>
  <fix>3d</fix>
</trkpt>
<trkpt lat="33.8103132" lon="-118.3938671">
  <ele>-0.126</ele>
  <time>2026-09-01T01:12:10Z</time>
  <course>186.36</course>
  <speed>0.022360679774997897</speed>
  <fix>3d</fix>
</trkpt>
<trkpt lat="33.810313" lon="-118.393867">
  <ele>-0.12</ele>
  <time>2026-09-01T01:12:10Z</time>
  <course>0.0</course>
  <speed>0.0</speed>
  <fix>3d</fix>
</trkpt>
<trkpt lat="33.8103132" lon="-118.3938671">
  <ele>-0.124</ele>
  <time>2026-09-01T01:12:10Z</time>
  <course>186.36</course>
  <speed>0.022360679774997897</speed>
  <fix>3d</fix>
</trkpt>
<trkpt lat="33.810313" lon="-118.393867">
  <ele>-0.12</ele>
  <time>2026-09-01T01:12:10Z</time>
  <course>0.0</course>
  <speed>0.0</speed>
  <fix>3d</fix>
</trkpt>
<trkpt lat="33.8103132" lon="-118.3938671">
  <ele>-0.122</ele>
  <time>2026-09-01T01:12:10Z</time>
  <course>186.36</course>
  <speed>0.022360679774997897</speed>
  <fix>3d</fix>
</trkpt>
<trkpt lat="33.810313" lon="-118.393867">
  <ele>-0.12</ele>
  <time>2026-09-01T01:12:10Z</time>
  <course>0.0</course>
  <speed>0.0</speed>
  <fix>3d</fix>
</trkpt>
<trkpt lat="33.8103132" lon="-118.3938671">
  <ele>-0.12</ele>
  <time>2026-09-01T01:12:10Z</time>
  <course>186.36</course>
  <speed>0.022360679774997897</speed>
  <fix>3d</fix>
</trkpt>
<trkpt lat="33.810313" lon="-118.393867">
  <ele>-0.12</ele>
  <time>2026-09-01T01:12:10Z</time>
  <course>0.0</course>
  <speed>0.0</speed>
  <fix>3d</fix>
</trkpt>
<trkpt lat="33.8103132" lon="-118.3938671">
  <ele>-0.119</ele>
  <time>2026-09-01T01:12:10Z</time>
  <course>186.36</course>
  <speed>0.022360679774997897</speed>
  <fix>3d</fix>
</trkpt>
<trkpt lat="33.810313" lon="-118.393867">
  <ele>-0.12</ele>
  <time>2026-09-01T01:12:10Z</time>
  <course>0.0</course>
  <speed>0.0</speed>
  <fix>3d</fix>
</trkpt>
<trkpt lat="33.8103132" lon="-118.3938671">
  <ele>-0.119</ele>
  <time>2026-09-01T01:12:10Z</time>
  <course>186.36</course>
  <speed>0.022360679774997897</speed>
  <fix>3d</fix>
</trkpt>
<trkpt lat="33.810313" lon="-118.393867">
  <ele>-0.12</ele>
  <time>2026-09-01T01:12:10Z</time>
  <course>0.0</course>
  <speed>0.0</speed>
  <fix>3d</fix>
</trkpt>
<trkpt lat="33.8103132" lon="-118.3938671">
  <ele>-0.119</ele>
  <time>2026-09-01T01:12:10Z</time>
  <course>186.36</course>
  <speed>0.022360679774997897</speed>
  <fix>3d</fix>
</trkpt>
<trkpt lat="33.810313" lon="-118.393867">
  <ele>-0.12</ele>
  <time>2026-09-01T01:12:10Z</time>
  <course>0.0</course>
  <speed>0.0</speed>
  <fix>3d</fix>
</trkpt>
<trkpt lat="33.8103132" lon="-118.3938671">
  <ele>-0.119</ele>
  <time>2026-09-01T01:12:10Z</time>
  <course>186.36</course>
  <speed>0.022360679774997897</speed>
  <fix>3d</fix>
</trkpt>
<trkpt lat="33.810313" lon="-118.393867">
  <ele>-0.12</ele>
  <time>2026-09-01T01:12:10Z</time>
  <course>0.0</course>
  <speed>0.0</speed>
  <fix>3d</fix>
</trkpt>
<trkpt lat="33.8103132" lon="-118.3938671">
  <ele>-0.118</ele>
  <time>2026-09-01T01:12:10Z</time>
  <course>186.36</course>
  <speed>0.022360679774997897</speed>
  <fix>3d</fix>
</trkpt>
<trkpt lat="33.810313" lon="-118.393867">
  <ele>-0.12</ele>
  <time>2026-09-01T01:12:10Z</time>
  <course>0.0</course>
  <speed>0.0</speed>
  <fix>3d</fix>
</trkpt>
<trkpt lat="33.8103132" lon="-118.3938671">
  <ele>-0.117</ele>
  <time>2026-09-01T01:12:10Z</time>
  <course>186.36</course>
  <speed>0.022360679774997897</speed>
  <fix>3d</fix>
</trkpt>
<trkpt lat="33.810313" lon="-118.393867">
  <ele>-0.12</ele>
  <time>2026-09-01T01:12:10Z</time>
  <course>0.0</course>
  <speed>0.0</speed>
  <fix>3d</fix>
</trkpt>
<trkpt lat="33.8103132" lon="-118.3938671">
  <ele>-0.118</ele>
  <time>2026-09-01T01:12:10Z</time>
  <course>186.36</course>
  <speed>0.022360679774997897</speed>
  <fix>3d</fix>
</trkpt>
<trkpt lat="33.810313" lon="-118.393867">
  <ele>-0.12</ele>
  <time>2026-09-01T01:12:10Z</time>
  <course>0.0</course>
  <speed>0.0</speed>
  <fix>3d</fix>
</trkpt>
<trkpt lat="33.8103132" lon="-118.3938671">
  <ele>-0.119</ele>
  <time>2026-09-01T01:12:10Z</time>
  <course>186.36</course>
  <speed>0.022360679774997897</speed>
  <fix>3d</fix>
</trkpt>
<trkpt lat="33.810313" lon="-118.393867">
  <ele>-0.12</ele>
  <time>2026-09-01T01:12:10Z</time>
  <course>0.0</course>
  <speed>0.0</speed>
  <fix>3d</fix>
</trkpt>
<trkpt lat="33.8103132" lon="-118.3938671">
  <ele>-0.121</ele>
  <time>2026-09-01T01:12:10Z</time>
  <course>186.35</course>
  <speed>0.022360679774997897</speed>
  <fix>3d</fix>
</trkpt>
<trkpt lat="33.810313" lon="-118.393867">
  <ele>-0.12</ele>
  <time>2026-09-01T01:12:10Z</time>
  <course>0.0</course>
  <speed>0.0</speed>
  <fix>3d</fix>
</trkpt>
<trkpt lat="33.8103132" lon="-118.3938671">
  <ele>-0.123</ele>
  <time>2026-09-01T01:12:10Z</time>
  <course>186.35</course>
  <speed>0.022360679774997897</speed>
  <fix>3d</fix>
</trkpt>
<trkpt lat="33.810313" lon="-118.393867">
  <ele>-0.12</ele>
  <time>2026-09-01T01:12:10Z</time>
  <course>0.0</course>
  <speed>0.0</speed>
  <fix>3d</fix>
</trkpt>
<trkpt lat="33.8103132" lon="-118.3938671">
  <ele>-0.125</ele>
  <time>2026-09-01T01:12:10Z</time>
  <course>186.35</course>
  <speed>0.022360679774997897</speed>
  <fix>3d</fix>
</trkpt>
<trkpt lat="33.810313" lon="-118.393867">
  <ele>-0.12</ele>
  <time>2026-09-01T01:12:10Z</time>
  <course>0.0</course>
  <speed>0.0</speed>
  <fix>3d</fix>
</trkpt>
<trkpt lat="33.8103132" lon="-118.3938671">
  <ele>-0.127</ele>
  <time>2026-09-01T01:12:10Z</time>
  <course>186.35</course>
  <speed>0.022360679774997897</speed>
  <fix>3d</fix>
</trkpt>
<trkpt lat="33.810313" lon="-118.393867">
  <ele>-0.12</ele>
  <time>2026-09-01T01:12:10Z</time>
  <course>0.0</course>
  <speed>0.0</speed>
  <fix>3d</fix>
</trkpt>
<trkpt lat="33.8103132" lon="-118.3938671">
  <ele>-0.128</ele>
  <time>2026-09-01T01:12:10Z</time>
  <course>186.35</course>
  <speed>0.022360679774997897</speed>
  <fix>3d</fix>
</trkpt>
<trkpt lat="33.810313" lon="-118.393867">
  <ele>-0.12</ele>
  <time>2026-09-01T01:12:10Z</time>
  <course>0.0</course>
  <speed>0.0</speed>
  <fix>3d</fix>
</trkpt>
<trkpt lat="33.8103132" lon="-118.3938671">
  <ele>-0.129</ele>
  <time>2026-09-01T01:12:10Z</time>
  <course>186.35</course>
  <speed>0.022360679774997897</speed>
  <fix>3d</fix>
</trkpt>
<trkpt lat="33.810313" lon="-118.393867">
  <ele>-0.12</ele>
  <time>2026-09-01T01:12:10Z</time>
  <course>0.0</course>
  <speed>0.0</speed>
  <fix>3d</fix>
</trkpt>
<trkpt lat="33.8103132" lon="-118.3938671">
  <ele>-0.13</ele>
  <time>2026-09-01T01:12:10Z</time>
  <course>186.35</course>
  <speed>0.022360679774997897</speed>
  <fix>3d</fix>
</trkpt>
<trkpt lat="33.810313" lon="-118.393867">
  <ele>-0.12</ele>
  <time>2026-09-01T01:12:10Z</time>
  <course>0.0</course>
  <speed>0.0</speed>
  <fix>3d</fix>
</trkpt>
<trkpt lat="33.8103132" lon="-118.3938671">
  <ele>-0.132</ele>
  <time>2026-09-01T01:12:10Z</time>
  <course>186.35</course>
  <speed>0.022360679774997897</speed>
  <fix>3d</fix>
</trkpt>
<trkpt lat="33.810313" lon="-118.393867">
  <ele>-0.12</ele>
  <time>2026-09-01T01:12:10Z</time>
  <course>0.0</course>
  <speed>0.0</speed>
  <fix>3d</fix>
</trkpt>
<trkpt lat="33.8103132" lon="-118.3938671">
  <ele>-0.132</ele>
  <time>2026-09-01T01:12:10Z</time>
  <course>186.35</course>
  <speed>0.022360679774997897</speed>
  <fix>3d</fix>
</trkpt>
<trkpt lat="33.810313" lon="-118.393867">
  <ele>-0.12</ele>
  <time>2026-09-01T01:12:10Z</time>
  <course>0.0</course>
  <speed>0.0</speed>
  <fix>3d</fix>
</trkpt>
<trkpt lat="33.8103132" lon="-118.3938671">
  <ele>-0.132</ele>
  <time>2026-09-01T01:12:10Z</time>
  <course>186.35</course>
  <speed>0.022360679774997897</speed>
  <fix>3d</fix>
</trkpt>
<trkpt lat="33.810313" lon="-118.393867">
  <ele>-0.12</ele>
  <time>2026-09-01T01:12:10Z</time>
  <course>0.0</course>
  <speed>0.0</speed>
  <fix>3d</fix>
</trkpt>
<trkpt lat="33.8103132" lon="-118.3938671">
  <ele>-0.132</ele>
  <time>2026-09-01T01:12:10Z</time>
  <course>186.35</course>
  <speed>0.022360679774997897</speed>
  <fix>3d</fix>
</trkpt>
<trkpt lat="33.810313" lon="-118.393867">
  <ele>-0.12</ele>
  <time>2026-09-01T01:12:10Z</time>
  <course>0.0</course>
  <speed>0.0</speed>
  <fix>3d</fix>
</trkpt>
<trkpt lat="33.8103132" lon="-118.3938671">
  <ele>-0.132</ele>
  <time>2026-09-01T01:12:10Z</time>
  <course>186.34</course>
  <speed>0.022360679774997897</speed>
  <fix>3d</fix>
</trkpt>
<trkpt lat="33.810313" lon="-118.393867">
  <ele>-0.12</ele>
  <time>2026-09-01T01:12:10Z</time>
  <course>0.0</course>
  <speed>0.0</speed>
  <fix>3d</fix>
</trkpt>
<trkpt lat="33.8103132" lon="-118.3938671">
  <ele>-0.132</ele>
  <time>2026-09-01T01:12:10Z</time>
  <course>186.34</course>
  <speed>0.022360679774997897</speed>
  <fix>3d</fix>
</trkpt>
<trkpt lat="33.810313" lon="-118.393867">
  <ele>-0.12</ele>
  <time>2026-09-01T01:12:10Z</time>
  <course>0.0</course>
  <speed>0.0</speed>
  <fix>3d</fix>
</trkpt>
<trkpt lat="33.8103132" lon="-118.3938671">
  <ele>-0.132</ele>
  <time>2026-09-01T01:12:10Z</time>
  <course>186.34</course>
  <speed>0.022360679774997897</speed>
  <fix>3d</fix>
</trkpt>
<trkpt lat="33.810313" lon="-118.393867">
  <ele>-0.12</ele>
  <time>2026-09-01T01:12:10Z</time>
  <course>0.0</course>
  <speed>0.0</speed>
  <fix>3d</fix>
</trkpt>
<trkpt lat="33.8103132" lon="-118.3938671">
  <ele>-0.131</ele>
  <time>2026-09-01T01:12:10Z</time>
  <course>186.34</course>
  <speed>0.022360679774997897</speed>
  <fix>3d</fix>
</trkpt>
<trkpt lat="33.810313" lon="-118.393867">
  <ele>-0.12</ele>
  <time>2026-09-01T01:12:10Z</time>
  <course>0.0</course>
  <speed>0.0</speed>
  <fix>3d</fix>
</trkpt>
<trkpt lat="33.8103132" lon="-118.3938671">
  <ele>-0.13</ele>
  <time>2026-09-01T01:12:10Z</time>
  <course>186.34</course>
  <speed>0.022360679774997897</speed>
  <fix>3d</fix>
</trkpt>
<trkpt lat="33.810313" lon="-118.393867">
  <ele>-0.12</ele>
  <time>2026-09-01T01:12:10Z</time>
  <course>0.0</course>
  <speed>0.0</speed>
  <fix>3d</fix>
</trkpt>
<trkpt lat="33.8103132" lon="-118.3938671">
  <ele>-0.13</ele>
  <time>2026-09-01T01:12:10Z</time>
  <course>186.34</course>
  <speed>0.022360679774997897</speed>
  <fix>3d</fix>
</trkpt>
<trkpt lat="33.810313" lon="-118.393867">
  <ele>-0.12</ele>
  <time>2026-09-01T01:12:10Z</time>
  <course>0.0</course>
  <speed>0.0</speed>
  <fix>3d</fix>
</trkpt>
<trkpt lat="33.8103132" lon="-118.3938671">
  <ele>-0.129</ele>
  <time>2026-09-01T01:12:10Z</time>
  <course>186.34</course>
  <speed>0.022360679774997897</speed>
  <fix>3d</fix>
</trkpt>
<trkpt lat="33.810313" lon="-118.393867">
  <ele>-0.12</ele>
  <time>2026-09-01T01:12:10Z</time>
  <course>0.0</course>
  <speed>0.0</speed>
  <fix>3d</fix>
</trkpt>
<trkpt lat="33.8103132" lon="-118.3938671">
  <ele>-0.128</ele>
  <time>2026-09-01T01:12:10Z</time>
  <course>186.34</course>
  <speed>0.022360679774997897</speed>
  <fix>3d</fix>
</trkpt>
<trkpt lat="33.810313" lon="-118.393867">
  <ele>-0.12</ele>
  <time>2026-09-01T01:12:10Z</time>
  <course>0.0</course>
  <speed>0.0</speed>
  <fix>3d</fix>
</trkpt>
<trkpt lat="33.8103132" lon="-118.3938671">
  <ele>-0.127</ele>
  <time>2026-09-01T01:12:10Z</time>
  <course>186.34</course>
  <speed>0.022360679774997897</speed>
  <fix>3d</fix>
</trkpt>
<trkpt lat="33.810313" lon="-118.393867">
  <ele>-0.12</ele>
  <time>2026-09-01T01:12:10Z</time>
  <course>0.0</course>
  <speed>0.0</speed>
  <fix>3d</fix>
</trkpt>
<trkpt lat="33.8103132" lon="-118.3938671">
  <ele>-0.126</ele>
  <time>2026-09-01T01:12:10Z</time>
  <course>186.34</course>
  <speed>0.022360679774997897</speed>
  <fix>3d</fix>
</trkpt>
<trkpt lat="33.810313" lon="-118.393867">
  <ele>-0.12</ele>
  <time>2026-09-01T01:12:10Z</time>
  <course>0.0</course>
  <speed>0.0</speed>
  <fix>3d</fix>
</trkpt>
<trkpt lat="33.8103132" lon="-118.3938671">
  <ele>-0.126</ele>
  <time>2026-09-01T01:12:10Z</time>
  <course>186.34</course>
  <speed>0.022360679774997897</speed>
  <fix>3d</fix>
</trkpt>
<trkpt lat="33.810313" lon="-118.393867">
  <ele>-0.12</ele>
  <time>2026-09-01T01:12:10Z</time>
  <course>0.0</course>
  <speed>0.0</speed>
  <fix>3d</fix>
</trkpt>
<trkpt lat="33.8103132" lon="-118.3938671">
  <ele>-0.127</ele>
  <time>2026-09-01T01:12:10Z</time>
  <course>186.34</course>
  <speed>0.022360679774997897</speed>
  <fix>3d</fix>
</trkpt>
<trkpt lat="33.810313" lon="-118.393867">
  <ele>-0.12</ele>
  <time>2026-09-01T01:12:10Z</time>
  <course>0.0</course>
  <speed>0.0</speed>
  <fix>3d</fix>
</trkpt>
<trkpt lat="33.8103132" lon="-118.3938671">
  <ele>-0.128</ele>
  <time>2026-09-01T01:12:10Z</time>
  <course>186.33</course>
  <speed>0.022360679774997897</speed>
  <fix>3d</fix>
</trkpt>
<trkpt lat="33.810313" lon="-118.393867">
  <ele>-0.12</ele>
  <time>2026-09-01T01:12:10Z</time>
  <course>0.0</course>
  <speed>0.0</speed>
  <fix>3d</fix>
</trkpt>
<trkpt lat="33.8103132" lon="-118.3938671">
  <ele>-0.129</ele>
  <time>2026-09-01T01:12:10Z</time>
  <course>186.33</course>
  <speed>0.022360679774997897</speed>
  <fix>3d</fix>
</trkpt>
<trkpt lat="33.810313" lon="-118.393867">
  <ele>-0.12</ele>
  <time>2026-09-01T01:12:10Z</time>
  <course>0.0</course>
  <speed>0.0</speed>
  <fix>3d</fix>
</trkpt>
<trkpt lat="33.8103132" lon="-118.3938671">
  <ele>-0.129</ele>
  <time>2026-09-01T01:12:10Z</time>
  <course>186.33</course>
  <speed>0.022360679774997897</speed>
  <fix>3d</fix>
</trkpt>
<trkpt lat="33.810313" lon="-118.393867">
  <ele>-0.12</ele>
  <time>2026-09-01T01:12:10Z</time>
  <course>0.0</course>
  <speed>0.0</speed>
  <fix>3d</fix>
</trkpt>
<trkpt lat="33.8103132" lon="-118.3938671">
  <ele>-0.128</ele>
  <time>2026-09-01T01:12:10Z</time>
  <course>186.33</course>
  <speed>0.022360679774997897</speed>
  <fix>3d</fix>
</trkpt>
<trkpt lat="33.810313" lon="-118.393867">
  <ele>-0.12</ele>
  <time>2026-09-01T01:12:10Z</time>
  <course>0.0</course>
  <speed>0.0</speed>
  <fix>3d</fix>
</trkpt>
<trkpt lat="33.8103132" lon="-118.3938671">
  <ele>-0.127</ele>
  <time>2026-09-01T01:12:10Z</time>
  <course>186.33</course>
  <speed>0.022360679774997897</speed>
  <fix>3d</fix>
</trkpt>
<trkpt lat="33.810313" lon="-118.393867">
  <ele>-0.12</ele>
  <time>2026-09-01T01:12:10Z</time>
  <course>0.0</course>
  <speed>0.0</speed>
  <fix>3d</fix>
</trkpt>
<trkpt lat="33.8103132" lon="-118.3938671">
  <ele>-0.126</ele>
  <time>2026-09-01T01:12:10Z</time>
  <course>186.33</course>
  <speed>0.022360679774997897</speed>
  <fix>3d</fix>
</trkpt>
<trkpt lat="33.810313" lon="-118.393867">
  <ele>-0.12</ele>
  <time>2026-09-01T01:12:10Z</time>
  <course>0.0</course>
  <speed>0.0</speed>
  <fix>3d</fix>
</trkpt>
<trkpt lat="33.8103132" lon="-118.3938671">
  <ele>-0.125</ele>
  <time>2026-09-01T01:12:10Z</time>
  <course>186.33</course>
  <speed>0.022360679774997897</speed>
  <fix>3d</fix>
</trkpt>
<trkpt lat="33.810313" lon="-118.393867">
  <ele>-0.12</ele>
  <time>2026-09-01T01:12:10Z</time>
  <course>0.0</course>
  <speed>0.0</speed>
  <fix>3d</fix>
</trkpt>
<trkpt lat="33.8103132" lon="-118.3938671">
  <ele>-0.126</ele>
  <time>2026-09-01T01:12:10Z</time>
  <course>186.33</course>
  <speed>0.022360679774997897</speed>
  <fix>3d</fix>
</trkpt>
<trkpt lat="33.810313" lon="-118.393867">
  <ele>-0.12</ele>
  <time>2026-09-01T01:12:10Z</time>
  <course>0.0</course>
  <speed>0.0</speed>
  <fix>3d</fix>
</trkpt>
<trkpt lat="33.8103132" lon="-118.3938671">
  <ele>-0.127</ele>
  <time>2026-09-01T01:12:10Z</time>
  <course>186.33</course>
  <speed>0.022360679774997897</speed>
  <fix>3d</fix>
</trkpt>
<trkpt lat="33.810313" lon="-118.393867">
  <ele>-0.12</ele>
  <time>2026-09-01T01:12:10Z</time>
  <course>0.0</course>
  <speed>0.0</speed>
  <fix>3d</fix>
</trkpt>
<trkpt lat="33.8103132" lon="-118.3938671">
  <ele>-0.129</ele>
  <time>2026-09-01T01:12:10Z</time>
  <course>186.33</course>
  <speed>0.022360679774997897</speed>
  <fix>3d</fix>
</trkpt>
<trkpt lat="33.810313" lon="-118.393867">
  <ele>-0.12</ele>
  <time>2026-09-01T01:12:10Z</time>
  <course>0.0</course>
  <speed>0.0</speed>
  <fix>3d</fix>
</trkpt>
<trkpt lat="33.8103132" lon="-118.3938671">
  <ele>-0.129</ele>
  <time>2026-09-01T01:12:10Z</time>
  <course>186.33</course>
  <speed>0.022360679774997897</speed>
  <fix>3d</fix>
</trkpt>
<trkpt lat="33.810313" lon="-118.393867">
  <ele>-0.12</ele>
  <time>2026-09-01T01:12:10Z</time>
  <course>0.0</course>
  <speed>0.0</speed>
  <fix>3d</fix>
</trkpt>
<trkpt lat="33.8103132" lon="-118.3938672">
  <ele>-0.13</ele>
  <time>2026-09-01T01:12:10Z</time>
  <course>186.32</course>
  <speed>0.022360679774997897</speed>
  <fix>3d</fix>
</trkpt>
<trkpt lat="33.810313" lon="-118.393867">
  <ele>-0.12</ele>
  <time>2026-09-01T01:12:10Z</time>
  <course>0.0</course>
  <speed>0.0</speed>
  <fix>3d</fix>
</trkpt>
<trkpt lat="33.8103132" lon="-118.3938672">
  <ele>-0.13</ele>
  <time>2026-09-01T01:12:10Z</time>
  <course>186.32</course>
  <speed>0.022360679774997897</speed>
  <fix>3d</fix>
</trkpt>
<trkpt lat="33.810313" lon="-118.393867">
  <ele>-0.12</ele>
  <time>2026-09-01T01:12:10Z</time>
  <course>0.0</course>
  <speed>0.0</speed>
  <fix>3d</fix>
</trkpt>
<trkpt lat="33.8103132" lon="-118.3938672">
  <ele>-0.128</ele>
  <time>2026-09-01T01:12:10Z</time>
  <course>186.32</course>
  <speed>0.022360679774997897</speed>
  <fix>3d</fix>
</trkpt>
<trkpt lat="33.810313" lon="-118.393867">
  <ele>-0.12</ele>
  <time>2026-09-01T01:12:10Z</time>
  <course>0.0</course>
  <speed>0.0</speed>
  <fix>3d</fix>
</trkpt>
<trkpt lat="33.8103132" lon="-118.3938672">
  <ele>-0.127</ele>
  <time>2026-09-01T01:12:10Z</time>
  <course>186.32</course>
  <speed>0.022360679774997897</speed>
  <fix>3d</fix>
</trkpt>
<trkpt lat="33.810313" lon="-118.393867">
  <ele>-0.12</ele>
  <time>2026-09-01T01:12:10Z</time>
  <course>0.0</course>
  <speed>0.0</speed>
  <fix>3d</fix>
</trkpt>
<trkpt lat="33.8103132" lon="-118.3938671">
  <ele>-0.125</ele>
  <time>2026-09-01T01:12:10Z</time>
  <course>186.32</course>
  <speed>0.022360679774997897</speed>
  <fix>3d</fix>
</trkpt>
<trkpt lat="33.810313" lon="-118.393867">
  <ele>-0.12</ele>
  <time>2026-09-01T01:12:10Z</time>
  <course>0.0</course>
  <speed>0.0</speed>
  <fix>3d</fix>
</trkpt>
<trkpt lat="33.8103132" lon="-118.3938671">
  <ele>-0.124</ele>
  <time>2026-09-01T01:12:10Z</time>
  <course>186.32</course>
  <speed>0.022360679774997897</speed>
  <fix>3d</fix>
</trkpt>
<trkpt lat="33.810313" lon="-118.393867">
  <ele>-0.12</ele>
  <time>2026-09-01T01:12:10Z</time>
  <course>0.0</course>
  <speed>0.0</speed>
  <fix>3d</fix>
</trkpt>
<trkpt lat="33.8103132" lon="-118.3938671">
  <ele>-0.123</ele>
  <time>2026-09-01T01:12:11Z</time>
  <course>186.32</course>
  <speed>0.022360679774997897</speed>
  <fix>3d</fix>
</trkpt>
<trkpt lat="33.810313" lon="-118.393867">
  <ele>-0.12</ele>
  <time>2026-09-01T01:12:11Z</time>
  <course>0.0</course>
  <speed>0.0</speed>
  <fix>3d</fix>
</trkpt>
<trkpt lat="33.8103132" lon="-118.3938671">
  <ele>-0.123</ele>
  <time>2026-09-01T01:12:11Z</time>
  <course>186.32</course>
  <speed>0.022360679774997897</speed>
  <fix>3d</fix>
</trkpt>
<trkpt lat="33.810313" lon="-118.393867">
  <ele>-0.12</ele>
  <time>2026-09-01T01:12:11Z</time>
  <course>0.0</course>
  <speed>0.0</speed>
  <fix>3d</fix>
</trkpt>
<trkpt lat="33.8103132" lon="-118.3938672">
  <ele>-0.122</ele>
  <time>2026-09-01T01:12:11Z</time>
  <course>186.32</course>
  <speed>0.022360679774997897</speed>
  <fix>3d</fix>
</trkpt>
<trkpt lat="33.810313" lon="-118.393867">
  <ele>-0.12</ele>
  <time>2026-09-01T01:12:11Z</time>
  <course>0.0</course>
  <speed>0.0</speed>
  <fix>3d</fix>
</trkpt>
<trkpt lat="33.8103132" lon="-118.3938671">
  <ele>-0.121</ele>
  <time>2026-09-01T01:12:11Z</time>
  <course>186.32</course>
  <speed>0.022360679774997897</speed>
  <fix>3d</fix>
</trkpt>
<trkpt lat="33.810313" lon="-118.393867">
  <ele>-0.12</ele>
  <time>2026-09-01T01:12:11Z</time>
  <course>0.0</course>
  <speed>0.0</speed>
  <fix>3d</fix>
</trkpt>
<trkpt lat="33.8103132" lon="-118.3938672">
  <ele>-0.119</ele>
  <time>2026-09-01T01:12:11Z</time>
  <course>186.32</course>
  <speed>0.022360679774997897</speed>
  <fix>3d</fix>
</trkpt>
<trkpt lat="33.810313" lon="-118.393867">
  <ele>-0.12</ele>
  <time>2026-09-01T01:12:11Z</time>
  <course>0.0</course>
  <speed>0.0</speed>
  <fix>3d</fix>
</trkpt>
<trkpt lat="33.8103132" lon="-118.3938671">
  <ele>-0.118</ele>
  <time>2026-09-01T01:12:11Z</time>
  <course>186.32</course>
  <speed>0.022360679774997897</speed>
  <fix>3d</fix>
</trkpt>
<trkpt lat="33.810313" lon="-118.393867">
  <ele>-0.12</ele>
  <time>2026-09-01T01:12:11Z</time>
  <course>0.0</course>
  <speed>0.0</speed>
  <fix>3d</fix>
</trkpt>
<trkpt lat="33.8103132" lon="-118.3938672">
  <ele>-0.115</ele>
  <time>2026-09-01T01:12:11Z</time>
  <course>186.31</course>
  <speed>0.022360679774997897</speed>
  <fix>3d</fix>
</trkpt>
<trkpt lat="33.810313" lon="-118.393867">
  <ele>-0.12</ele>
  <time>2026-09-01T01:12:11Z</time>
  <course>0.0</course>
  <speed>0.0</speed>
  <fix>3d</fix>
</trkpt>
<trkpt lat="33.8103132" lon="-118.3938671">
  <ele>-0.114</ele>
  <time>2026-09-01T01:12:11Z</time>
  <course>186.31</course>
  <speed>0.022360679774997897</speed>
  <fix>3d</fix>
</trkpt>
<trkpt lat="33.810313" lon="-118.393867">
  <ele>-0.12</ele>
  <time>2026-09-01T01:12:11Z</time>
  <course>0.0</course>
  <speed>0.0</speed>
  <fix>3d</fix>
</trkpt>
<trkpt lat="33.8103132" lon="-118.3938672">
  <ele>-0.112</ele>
  <time>2026-09-01T01:12:11Z</time>
  <course>186.31</course>
  <speed>0.022360679774997897</speed>
  <fix>3d</fix>
</trkpt>
<trkpt lat="33.810313" lon="-118.393867">
  <ele>-0.12</ele>
  <time>2026-09-01T01:12:11Z</time>
  <course>0.0</course>
  <speed>0.0</speed>
  <fix>3d</fix>
</trkpt>
<trkpt lat="33.8103132" lon="-118.3938672">
  <ele>-0.11</ele>
  <time>2026-09-01T01:12:11Z</time>
  <course>186.31</course>
  <speed>0.022360679774997897</speed>
  <fix>3d</fix>
</trkpt>
<trkpt lat="33.810313" lon="-118.393867">
  <ele>-0.12</ele>
  <time>2026-09-01T01:12:11Z</time>
  <course>0.0</course>
  <speed>0.0</speed>
  <fix>3d</fix>
</trkpt>
<trkpt lat="33.8103132" lon="-118.3938672">
  <ele>-0.11</ele>
  <time>2026-09-01T01:12:11Z</time>
  <course>186.31</course>
  <speed>0.022360679774997897</speed>
  <fix>3d</fix>
</trkpt>
<trkpt lat="33.810313" lon="-118.393867">
  <ele>-0.12</ele>
  <time>2026-09-01T01:12:11Z</time>
  <course>0.0</course>
  <speed>0.0</speed>
  <fix>3d</fix>
</trkpt>
<trkpt lat="33.8103132" lon="-118.3938672">
  <ele>-0.11</ele>
  <time>2026-09-01T01:12:11Z</time>
  <course>186.31</course>
  <speed>0.022360679774997897</speed>
  <fix>3d</fix>
</trkpt>
<trkpt lat="33.810313" lon="-118.393867">
  <ele>-0.12</ele>
  <time>2026-09-01T01:12:11Z</time>
  <course>0.0</course>
  <speed>0.0</speed>
  <fix>3d</fix>
</trkpt>
<trkpt lat="33.8103132" lon="-118.3938672">
  <ele>-0.11</ele>
  <time>2026-09-01T01:12:11Z</time>
  <course>186.31</course>
  <speed>0.022360679774997897</speed>
  <fix>3d</fix>
</trkpt>
<trkpt lat="33.810313" lon="-118.393867">
  <ele>-0.12</ele>
  <time>2026-09-01T01:12:11Z</time>
  <course>0.0</course>
  <speed>0.0</speed>
  <fix>3d</fix>
</trkpt>
<trkpt lat="33.8103132" lon="-118.3938672">
  <ele>-0.112</ele>
  <time>2026-09-01T01:12:11Z</time>
  <course>186.31</course>
  <speed>0.022360679774997897</speed>
  <fix>3d</fix>
</trkpt>
<trkpt lat="33.810313" lon="-118.393867">
  <ele>-0.12</ele>
  <time>2026-09-01T01:12:11Z</time>
  <course>0.0</course>
  <speed>0.0</speed>
  <fix>3d</fix>
</trkpt>
<trkpt lat="33.8103132" lon="-118.3938672">
  <ele>-0.115</ele>
  <time>2026-09-01T01:12:11Z</time>
  <course>186.31</course>
  <speed>0.022360679774997897</speed>
  <fix>3d</fix>
</trkpt>
<trkpt lat="33.810313" lon="-118.393867">
  <ele>-0.12</ele>
  <time>2026-09-01T01:12:11Z</time>
  <course>0.0</course>
  <speed>0.0</speed>
  <fix>3d</fix>
</trkpt>
<trkpt lat="33.8103132" lon="-118.3938672">
  <ele>-0.116</ele>
  <time>2026-09-01T01:12:11Z</time>
  <course>186.31</course>
  <speed>0.022360679774997897</speed>
  <fix>3d</fix>
</trkpt>
<trkpt lat="33.810313" lon="-118.393867">
  <ele>-0.12</ele>
  <time>2026-09-01T01:12:11Z</time>
  <course>0.0</course>
  <speed>0.0</speed>
  <fix>3d</fix>
</trkpt>
<trkpt lat="33.8103132" lon="-118.3938672">
  <ele>-0.118</ele>
  <time>2026-09-01T01:12:11Z</time>
  <course>186.31</course>
  <speed>0.022360679774997897</speed>
  <fix>3d</fix>
</trkpt>
<trkpt lat="33.810313" lon="-118.393867">
  <ele>-0.12</ele>
  <time>2026-09-01T01:12:11Z</time>
  <course>0.0</course>
  <speed>0.0</speed>
  <fix>3d</fix>
</trkpt>
<trkpt lat="33.8103132" lon="-118.3938672">
  <ele>-0.118</ele>
  <time>2026-09-01T01:12:11Z</time>
  <course>186.31</course>
  <speed>0.022360679774997897</speed>
  <fix>3d</fix>
</trkpt>
<trkpt lat="33.810313" lon="-118.393867">
  <ele>-0.12</ele>
  <time>2026-09-01T01:12:11Z</time>
  <course>0.0</course>
  <speed>0.0</speed>
  <fix>3d</fix>
</trkpt>
<trkpt lat="33.8103132" lon="-118.3938672">
  <ele>-0.117</ele>
  <time>2026-09-01T01:12:11Z</time>
  <course>186.31</course>
  <speed>0.022360679774997897</speed>
  <fix>3d</fix>
</trkpt>
<trkpt lat="33.810313" lon="-118.393867">
  <ele>-0.12</ele>
  <time>2026-09-01T01:12:11Z</time>
  <course>0.0</course>
  <speed>0.0</speed>
  <fix>3d</fix>
</trkpt>
<trkpt lat="33.8103132" lon="-118.3938672">
  <ele>-0.118</ele>
  <time>2026-09-01T01:12:11Z</time>
  <course>186.3</course>
  <speed>0.022360679774997897</speed>
  <fix>3d</fix>
</trkpt>
<trkpt lat="33.810313" lon="-118.393867">
  <ele>-0.12</ele>
  <time>2026-09-01T01:12:11Z</time>
  <course>0.0</course>
  <speed>0.0</speed>
  <fix>3d</fix>
</trkpt>
<trkpt lat="33.8103132" lon="-118.3938672">
  <ele>-0.119</ele>
  <time>2026-09-01T01:12:11Z</time>
  <course>186.3</course>
  <speed>0.022360679774997897</speed>
  <fix>3d</fix>
</trkpt>
<trkpt lat="33.810313" lon="-118.393867">
  <ele>-0.12</ele>
  <time>2026-09-01T01:12:11Z</time>
  <course>0.0</course>
  <speed>0.0</speed>
  <fix>3d</fix>
</trkpt>
<trkpt lat="33.8103132" lon="-118.3938672">
  <ele>-0.12</ele>
  <time>2026-09-01T01:12:11Z</time>
  <course>186.3</course>
  <speed>0.022360679774997897</speed>
  <fix>3d</fix>
</trkpt>
<trkpt lat="33.810313" lon="-118.393867">
  <ele>-0.12</ele>
  <time>2026-09-01T01:12:11Z</time>
  <course>0.0</course>
  <speed>0.0</speed>
  <fix>3d</fix>
</trkpt>
<trkpt lat="33.8103132" lon="-118.3938672">
  <ele>-0.123</ele>
  <time>2026-09-01T01:12:11Z</time>
  <course>186.3</course>
  <speed>0.022360679774997897</speed>
  <fix>3d</fix>
</trkpt>
<trkpt lat="33.810313" lon="-118.393867">
  <ele>-0.12</ele>
  <time>2026-09-01T01:12:11Z</time>
  <course>0.0</course>
  <speed>0.0</speed>
  <fix>3d</fix>
</trkpt>
<trkpt lat="33.8103132" lon="-118.3938672">
  <ele>-0.125</ele>
  <time>2026-09-01T01:12:11Z</time>
  <course>186.3</course>
  <speed>0.022360679774997897</speed>
  <fix>3d</fix>
</trkpt>
<trkpt lat="33.810313" lon="-118.393867">
  <ele>-0.12</ele>
  <time>2026-09-01T01:12:11Z</time>
  <course>0.0</course>
  <speed>0.0</speed>
  <fix>3d</fix>
</trkpt>
<trkpt lat="33.8103132" lon="-118.3938672">
  <ele>-0.126</ele>
  <time>2026-09-01T01:12:11Z</time>
  <course>186.3</course>
  <speed>0.022360679774997897</speed>
  <fix>3d</fix>
</trkpt>
<trkpt lat="33.810313" lon="-118.393867">
  <ele>-0.12</ele>
  <time>2026-09-01T01:12:11Z</time>
  <course>0.0</course>
  <speed>0.0</speed>
  <fix>3d</fix>
</trkpt>
<trkpt lat="33.8103132" lon="-118.3938672">
  <ele>-0.126</ele>
  <time>2026-09-01T01:12:11Z</time>
  <course>186.3</course>
  <speed>0.022360679774997897</speed>
  <fix>3d</fix>
</trkpt>
<trkpt lat="33.810313" lon="-118.393867">
  <ele>-0.12</ele>
  <time>2026-09-01T01:12:11Z</time>
  <course>0.0</course>
  <speed>0.0</speed>
  <fix>3d</fix>
</trkpt>
<trkpt lat="33.8103132" lon="-118.3938672">
  <ele>-0.125</ele>
  <time>2026-09-01T01:12:11Z</time>
  <course>186.3</course>
  <speed>0.022360679774997897</speed>
  <fix>3d</fix>
</trkpt>
<trkpt lat="33.810313" lon="-118.393867">
  <ele>-0.12</ele>
  <time>2026-09-01T01:12:11Z</time>
  <course>0.0</course>
  <speed>0.0</speed>
  <fix>3d</fix>
</trkpt>
<trkpt lat="33.8103132" lon="-118.3938672">
  <ele>-0.125</ele>
  <time>2026-09-01T01:12:11Z</time>
  <course>186.3</course>
  <speed>0.022360679774997897</speed>
  <fix>3d</fix>
</trkpt>
<trkpt lat="33.810313" lon="-118.393867">
  <ele>-0.12</ele>
  <time>2026-09-01T01:12:11Z</time>
  <course>0.0</course>
  <speed>0.0</speed>
  <fix>3d</fix>
</trkpt>
<trkpt lat="33.8103132" lon="-118.3938672">
  <ele>-0.124</ele>
  <time>2026-09-01T01:12:11Z</time>
  <course>186.3</course>
  <speed>0.022360679774997897</speed>
  <fix>3d</fix>
</trkpt>
<trkpt lat="33.810313" lon="-118.393867">
  <ele>-0.12</ele>
  <time>2026-09-01T01:12:11Z</time>
  <course>0.0</course>
  <speed>0.0</speed>
  <fix>3d</fix>
</trkpt>
<trkpt lat="33.8103132" lon="-118.3938672">
  <ele>-0.123</ele>
  <time>2026-09-01T01:12:11Z</time>
  <course>186.3</course>
  <speed>0.022360679774997897</speed>
  <fix>3d</fix>
</trkpt>
<trkpt lat="33.810313" lon="-118.393867">
  <ele>-0.12</ele>
  <time>2026-09-01T01:12:11Z</time>
  <course>0.0</course>
  <speed>0.0</speed>
  <fix>3d</fix>
</trkpt>
<trkpt lat="33.8103132" lon="-118.3938672">
  <ele>-0.123</ele>
  <time>2026-09-01T01:12:11Z</time>
  <course>186.3</course>
  <speed>0.022360679774997897</speed>
  <fix>3d</fix>
</trkpt>
<trkpt lat="33.810313" lon="-118.393867">
  <ele>-0.12</ele>
  <time>2026-09-01T01:12:11Z</time>
  <course>0.0</course>
  <speed>0.0</speed>
  <fix>3d</fix>
</trkpt>
<trkpt lat="33.8103132" lon="-118.3938672">
  <ele>-0.123</ele>
  <time>2026-09-01T01:12:11Z</time>
  <course>186.3</course>
  <speed>0.022360679774997897</speed>
  <fix>3d</fix>
</trkpt>
<trkpt lat="33.810313" lon="-118.393867">
  <ele>-0.12</ele>
  <time>2026-09-01T01:12:11Z</time>
  <course>0.0</course>
  <speed>0.0</speed>
  <fix>3d</fix>
</trkpt>
<trkpt lat="33.8103132" lon="-118.3938672">
  <ele>-0.124</ele>
  <time>2026-09-01T01:12:11Z</time>
  <course>186.3</course>
  <speed>0.022360679774997897</speed>
  <fix>3d</fix>
</trkpt>
<trkpt lat="33.810313" lon="-118.393867">
  <ele>-0.12</ele>
  <time>2026-09-01T01:12:11Z</time>
  <course>0.0</course>
  <speed>0.0</speed>
  <fix>3d</fix>
</trkpt>
<trkpt lat="33.8103132" lon="-118.3938672">
  <ele>-0.125</ele>
  <time>2026-09-01T01:12:11Z</time>
  <course>186.29</course>
  <speed>0.022360679774997897</speed>
  <fix>3d</fix>
</trkpt>
<trkpt lat="33.810313" lon="-118.393867">
  <ele>-0.12</ele>
  <time>2026-09-01T01:12:11Z</time>
  <course>0.0</course>
  <speed>0.0</speed>
  <fix>3d</fix>
</trkpt>
<trkpt lat="33.8103132" lon="-118.3938672">
  <ele>-0.125</ele>
  <time>2026-09-01T01:12:11Z</time>
  <course>186.29</course>
  <speed>0.022360679774997897</speed>
  <fix>3d</fix>
</trkpt>
<trkpt lat="33.810313" lon="-118.393867">
  <ele>-0.12</ele>
  <time>2026-09-01T01:12:11Z</time>
  <course>0.0</course>
  <speed>0.0</speed>
  <fix>3d</fix>
</trkpt>
<trkpt lat="33.8103132" lon="-118.3938672">
  <ele>-0.125</ele>
  <time>2026-09-01T01:12:11Z</time>
  <course>186.29</course>
  <speed>0.022360679774997897</speed>
  <fix>3d</fix>
</trkpt>
<trkpt lat="33.810313" lon="-118.393867">
  <ele>-0.12</ele>
  <time>2026-09-01T01:12:11Z</time>
  <course>0.0</course>
  <speed>0.0</speed>
  <fix>3d</fix>
</trkpt>
<trkpt lat="33.8103132" lon="-118.3938672">
  <ele>-0.125</ele>
  <time>2026-09-01T01:12:11Z</time>
  <course>186.29</course>
  <speed>0.022360679774997897</speed>
  <fix>3d</fix>
</trkpt>
<trkpt lat="33.810313" lon="-118.393867">
  <ele>-0.12</ele>
  <time>2026-09-01T01:12:11Z</time>
  <course>0.0</course>
  <speed>0.0</speed>
  <fix>3d</fix>
</trkpt>
<trkpt lat="33.8103132" lon="-118.3938672">
  <ele>-0.125</ele>
  <time>2026-09-01T01:12:11Z</time>
  <course>186.29</course>
  <speed>0.022360679774997897</speed>
  <fix>3d</fix>
</trkpt>
<trkpt lat="33.810313" lon="-118.393867">
  <ele>-0.12</ele>
  <time>2026-09-01T01:12:11Z</time>
  <course>0.0</course>
  <speed>0.0</speed>
  <fix>3d</fix>
</trkpt>
<trkpt lat="33.8103132" lon="-118.3938672">
  <ele>-0.126</ele>
  <time>2026-09-01T01:12:11Z</time>
  <course>186.29</course>
  <speed>0.022360679774997897</speed>
  <fix>3d</fix>
</trkpt>
<trkpt lat="33.810313" lon="-118.393867">
  <ele>-0.12</ele>
  <time>2026-09-01T01:12:11Z</time>
  <course>0.0</course>
  <speed>0.0</speed>
  <fix>3d</fix>
</trkpt>
<trkpt lat="33.8103132" lon="-118.3938672">
  <ele>-0.126</ele>
  <time>2026-09-01T01:12:11Z</time>
  <course>186.29</course>
  <speed>0.022360679774997897</speed>
  <fix>3d</fix>
</trkpt>
<trkpt lat="33.810313" lon="-118.393867">
  <ele>-0.12</ele>
  <time>2026-09-01T01:12:11Z</time>
  <course>0.0</course>
  <speed>0.0</speed>
  <fix>3d</fix>
</trkpt>
<trkpt lat="33.8103132" lon="-118.3938672">
  <ele>-0.126</ele>
  <time>2026-09-01T01:12:11Z</time>
  <course>186.29</course>
  <speed>0.022360679774997897</speed>
  <fix>3d</fix>
</trkpt>
<trkpt lat="33.810313" lon="-118.393867">
  <ele>-0.12</ele>
  <time>2026-09-01T01:12:11Z</time>
  <course>0.0</course>
  <speed>0.0</speed>
  <fix>3d</fix>
</trkpt>
<trkpt lat="33.8103132" lon="-118.3938672">
  <ele>-0.128</ele>
  <time>2026-09-01T01:12:11Z</time>
  <course>186.29</course>
  <speed>0.022360679774997897</speed>
  <fix>3d</fix>
</trkpt>
<trkpt lat="33.810313" lon="-118.393867">
  <ele>-0.12</ele>
  <time>2026-09-01T01:12:11Z</time>
  <course>0.0</course>
  <speed>0.0</speed>
  <fix>3d</fix>
</trkpt>
<trkpt lat="33.8103132" lon="-118.3938672">
  <ele>-0.129</ele>
  <time>2026-09-01T01:12:11Z</time>
  <course>186.29</course>
  <speed>0.022360679774997897</speed>
  <fix>3d</fix>
</trkpt>
<trkpt lat="33.810313" lon="-118.393867">
  <ele>-0.12</ele>
  <time>2026-09-01T01:12:11Z</time>
  <course>0.0</course>
  <speed>0.0</speed>
  <fix>3d</fix>
</trkpt>
<trkpt lat="33.8103132" lon="-118.3938672">
  <ele>-0.13</ele>
  <time>2026-09-01T01:12:11Z</time>
  <course>186.29</course>
  <speed>0.022360679774997897</speed>
  <fix>3d</fix>
</trkpt>
<trkpt lat="33.810313" lon="-118.393867">
  <ele>-0.12</ele>
  <time>2026-09-01T01:12:11Z</time>
  <course>0.0</course>
  <speed>0.0</speed>
  <fix>3d</fix>
</trkpt>
<trkpt lat="33.8103132" lon="-118.3938672">
  <ele>-0.13</ele>
  <time>2026-09-01T01:12:11Z</time>
  <course>186.29</course>
  <speed>0.022360679774997897</speed>
  <fix>3d</fix>
</trkpt>
<trkpt lat="33.810313" lon="-118.393867">
  <ele>-0.12</ele>
  <time>2026-09-01T01:12:11Z</time>
  <course>0.0</course>
  <speed>0.0</speed>
  <fix>3d</fix>
</trkpt>
<trkpt lat="33.8103132" lon="-118.3938671">
  <ele>-0.13</ele>
  <time>2026-09-01T01:12:11Z</time>
  <course>186.29</course>
  <speed>0.022360679774997897</speed>
  <fix>3d</fix>
</trkpt>
<trkpt lat="33.810313" lon="-118.393867">
  <ele>-0.12</ele>
  <time>2026-09-01T01:12:11Z</time>
  <course>0.0</course>
  <speed>0.0</speed>
  <fix>3d</fix>
</trkpt>
<trkpt lat="33.8103132" lon="-118.3938672">
  <ele>-0.13</ele>
  <time>2026-09-01T01:12:11Z</time>
  <course>186.29</course>
  <speed>0.022360679774997897</speed>
  <fix>3d</fix>
</trkpt>
<trkpt lat="33.810313" lon="-118.393867">
  <ele>-0.12</ele>
  <time>2026-09-01T01:12:11Z</time>
  <course>0.0</course>
  <speed>0.0</speed>
  <fix>3d</fix>
</trkpt>
<trkpt lat="33.8103132" lon="-118.3938671">
  <ele>-0.129</ele>
  <time>2026-09-01T01:12:11Z</time>
  <course>186.29</course>
  <speed>0.022360679774997897</speed>
  <fix>3d</fix>
</trkpt>
<trkpt lat="33.810313" lon="-118.393867">
  <ele>-0.12</ele>
  <time>2026-09-01T01:12:11Z</time>
  <course>0.0</course>
  <speed>0.0</speed>
  <fix>3d</fix>
</trkpt>
<trkpt lat="33.8103132" lon="-118.3938672">
  <ele>-0.129</ele>
  <time>2026-09-01T01:12:11Z</time>
  <course>186.29</course>
  <speed>0.022360679774997897</speed>
  <fix>3d</fix>
</trkpt>
<trkpt lat="33.810313" lon="-118.393867">
  <ele>-0.12</ele>
  <time>2026-09-01T01:12:11Z</time>
  <course>0.0</course>
  <speed>0.0</speed>
  <fix>3d</fix>
</trkpt>
<trkpt lat="33.8103132" lon="-118.3938671">
  <ele>-0.129</ele>
  <time>2026-09-01T01:12:11Z</time>
  <course>186.28</course>
  <speed>0.022360679774997897</speed>
  <fix>3d</fix>
</trkpt>
<trkpt lat="33.810313" lon="-118.393867">
  <ele>-0.12</ele>
  <time>2026-09-01T01:12:11Z</time>
  <course>0.0</course>
  <speed>0.0</speed>
  <fix>3d</fix>
</trkpt>
<trkpt lat="33.8103132" lon="-118.3938672">
  <ele>-0.128</ele>
  <time>2026-09-01T01:12:11Z</time>
  <course>186.28</course>
  <speed>0.022360679774997897</speed>
  <fix>3d</fix>
</trkpt>
<trkpt lat="33.810313" lon="-118.393867">
  <ele>-0.12</ele>
  <time>2026-09-01T01:12:11Z</time>
  <course>0.0</course>
  <speed>0.0</speed>
  <fix>3d</fix>
</trkpt>
<trkpt lat="33.8103132" lon="-118.3938671">
  <ele>-0.127</ele>
  <time>2026-09-01T01:12:11Z</time>
  <course>186.28</course>
  <speed>0.022360679774997897</speed>
  <fix>3d</fix>
</trkpt>
<trkpt lat="33.810313" lon="-118.393867">
  <ele>-0.12</ele>
  <time>2026-09-01T01:12:11Z</time>
  <course>0.0</course>
  <speed>0.0</speed>
  <fix>3d</fix>
</trkpt>
<trkpt lat="33.8103132" lon="-118.3938672">
  <ele>-0.127</ele>
  <time>2026-09-01T01:12:11Z</time>
  <course>186.28</course>
  <speed>0.022360679774997897</speed>
  <fix>3d</fix>
</trkpt>
<trkpt lat="33.810313" lon="-118.393867">
  <ele>-0.12</ele>
  <time>2026-09-01T01:12:11Z</time>
  <course>0.0</course>
  <speed>0.0</speed>
  <fix>3d</fix>
</trkpt>
<trkpt lat="33.8103132" lon="-118.3938671">
  <ele>-0.126</ele>
  <time>2026-09-01T01:12:11Z</time>
  <course>186.28</course>
  <speed>0.022360679774997897</speed>
  <fix>3d</fix>
</trkpt>
<trkpt lat="33.810313" lon="-118.393867">
  <ele>-0.12</ele>
  <time>2026-09-01T01:12:11Z</time>
  <course>0.0</course>
  <speed>0.0</speed>
  <fix>3d</fix>
</trkpt>
<trkpt lat="33.8103132" lon="-118.3938672">
  <ele>-0.126</ele>
  <time>2026-09-01T01:12:11Z</time>
  <course>186.28</course>
  <speed>0.022360679774997897</speed>
  <fix>3d</fix>
</trkpt>
<trkpt lat="33.810313" lon="-118.393867">
  <ele>-0.12</ele>
  <time>2026-09-01T01:12:11Z</time>
  <course>0.0</course>
  <speed>0.0</speed>
  <fix>3d</fix>
</trkpt>
<trkpt lat="33.8103132" lon="-118.3938671">
  <ele>-0.126</ele>
  <time>2026-09-01T01:12:11Z</time>
  <course>186.28</course>
  <speed>0.022360679774997897</speed>
  <fix>3d</fix>
</trkpt>
<trkpt lat="33.810313" lon="-118.393867">
  <ele>-0.12</ele>
  <time>2026-09-01T01:12:11Z</time>
  <course>0.0</course>
  <speed>0.0</speed>
  <fix>3d</fix>
</trkpt>
<trkpt lat="33.8103132" lon="-118.3938672">
  <ele>-0.125</ele>
  <time>2026-09-01T01:12:11Z</time>
  <course>186.28</course>
  <speed>0.022360679774997897</speed>
  <fix>3d</fix>
</trkpt>
<trkpt lat="33.810313" lon="-118.393867">
  <ele>-0.12</ele>
  <time>2026-09-01T01:12:11Z</time>
  <course>0.0</course>
  <speed>0.0</speed>
  <fix>3d</fix>
</trkpt>
<trkpt lat="33.8103132" lon="-118.3938671">
  <ele>-0.123</ele>
  <time>2026-09-01T01:12:11Z</time>
  <course>186.28</course>
  <speed>0.022360679774997897</speed>
  <fix>3d</fix>
</trkpt>
<trkpt lat="33.810313" lon="-118.393867">
  <ele>-0.12</ele>
  <time>2026-09-01T01:12:11Z</time>
  <course>0.0</course>
  <speed>0.0</speed>
  <fix>3d</fix>
</trkpt>
<trkpt lat="33.8103132" lon="-118.3938672">
  <ele>-0.122</ele>
  <time>2026-09-01T01:12:11Z</time>
  <course>186.28</course>
  <speed>0.022360679774997897</speed>
  <fix>3d</fix>
</trkpt>
<trkpt lat="33.810313" lon="-118.393867">
  <ele>-0.12</ele>
  <time>2026-09-01T01:12:11Z</time>
  <course>0.0</course>
  <speed>0.0</speed>
  <fix>3d</fix>
</trkpt>
<trkpt lat="33.8103132" lon="-118.3938671">
  <ele>-0.121</ele>
  <time>2026-09-01T01:12:11Z</time>
  <course>186.28</course>
  <speed>0.022360679774997897</speed>
  <fix>3d</fix>
</trkpt>
<trkpt lat="33.810313" lon="-118.393867">
  <ele>-0.12</ele>
  <time>2026-09-01T01:12:11Z</time>
  <course>0.0</course>
  <speed>0.0</speed>
  <fix>3d</fix>
</trkpt>
<trkpt lat="33.8103132" lon="-118.3938672">
  <ele>-0.12</ele>
  <time>2026-09-01T01:12:11Z</time>
  <course>186.28</course>
  <speed>0.022360679774997897</speed>
  <fix>3d</fix>
</trkpt>
<trkpt lat="33.810313" lon="-118.393867">
  <ele>-0.12</ele>
  <time>2026-09-01T01:12:11Z</time>
  <course>0.0</course>
  <speed>0.0</speed>
  <fix>3d</fix>
</trkpt>
<trkpt lat="33.8103132" lon="-118.3938671">
  <ele>-0.12</ele>
  <time>2026-09-01T01:12:11Z</time>
  <course>186.28</course>
  <speed>0.022360679774997897</speed>
  <fix>3d</fix>
</trkpt>
<trkpt lat="33.810313" lon="-118.393867">
  <ele>-0.12</ele>
  <time>2026-09-01T01:12:11Z</time>
  <course>0.0</course>
  <speed>0.0</speed>
  <fix>3d</fix>
</trkpt>
<trkpt lat="33.8103132" lon="-118.3938672">
  <ele>-0.12</ele>
  <time>2026-09-01T01:12:11Z</time>
  <course>186.28</course>
  <speed>0.022360679774997897</speed>
  <fix>3d</fix>
</trkpt>
<trkpt lat="33.810313" lon="-118.393867">
  <ele>-0.12</ele>
  <time>2026-09-01T01:12:11Z</time>
  <course>0.0</course>
  <speed>0.0</speed>
  <fix>3d</fix>
</trkpt>
<trkpt lat="33.8103132" lon="-118.3938671">
  <ele>-0.121</ele>
  <time>2026-09-01T01:12:11Z</time>
  <course>186.28</course>
  <speed>0.022360679774997897</speed>
  <fix>3d</fix>
</trkpt>
<trkpt lat="33.810313" lon="-118.393867">
  <ele>-0.12</ele>
  <time>2026-09-01T01:12:11Z</time>
  <course>0.0</course>
  <speed>0.0</speed>
  <fix>3d</fix>
</trkpt>
<trkpt lat="33.8103132" lon="-118.3938672">
  <ele>-0.123</ele>
  <time>2026-09-01T01:12:11Z</time>
  <course>186.27</course>
  <speed>0.022360679774997897</speed>
  <fix>3d</fix>
</trkpt>
<trkpt lat="33.810313" lon="-118.393867">
  <ele>-0.12</ele>
  <time>2026-09-01T01:12:11Z</time>
  <course>0.0</course>
  <speed>0.0</speed>
  <fix>3d</fix>
</trkpt>
<trkpt lat="33.8103132" lon="-118.3938671">
  <ele>-0.125</ele>
  <time>2026-09-01T01:12:11Z</time>
  <course>186.27</course>
  <speed>0.022360679774997897</speed>
  <fix>3d</fix>
</trkpt>
<trkpt lat="33.810313" lon="-118.393867">
  <ele>-0.12</ele>
  <time>2026-09-01T01:12:11Z</time>
  <course>0.0</course>
  <speed>0.0</speed>
  <fix>3d</fix>
</trkpt>
<trkpt lat="33.8103132" lon="-118.3938672">
  <ele>-0.127</ele>
  <time>2026-09-01T01:12:11Z</time>
  <course>186.27</course>
  <speed>0.022360679774997897</speed>
  <fix>3d</fix>
</trkpt>
<trkpt lat="33.810313" lon="-118.393867">
  <ele>-0.12</ele>
  <time>2026-09-01T01:12:11Z</time>
  <course>0.0</course>
  <speed>0.0</speed>
  <fix>3d</fix>
</trkpt>
<trkpt lat="33.8103132" lon="-118.3938671">
  <ele>-0.128</ele>
  <time>2026-09-01T01:12:11Z</time>
  <course>186.27</course>
  <speed>0.022360679774997897</speed>
  <fix>3d</fix>
</trkpt>
<trkpt lat="33.810313" lon="-118.393867">
  <ele>-0.12</ele>
  <time>2026-09-01T01:12:11Z</time>
  <course>0.0</course>
  <speed>0.0</speed>
  <fix>3d</fix>
</trkpt>
<trkpt lat="33.8103132" lon="-118.3938672">
  <ele>-0.129</ele>
  <time>2026-09-01T01:12:11Z</time>
  <course>186.27</course>
  <speed>0.022360679774997897</speed>
  <fix>3d</fix>
</trkpt>
<trkpt lat="33.810313" lon="-118.393867">
  <ele>-0.12</ele>
  <time>2026-09-01T01:12:11Z</time>
  <course>0.0</course>
  <speed>0.0</speed>
  <fix>3d</fix>
</trkpt>
<trkpt lat="33.8103132" lon="-118.3938671">
  <ele>-0.13</ele>
  <time>2026-09-01T01:12:11Z</time>
  <course>186.27</course>
  <speed>0.022360679774997897</speed>
  <fix>3d</fix>
</trkpt>
<trkpt lat="33.810313" lon="-118.393867">
  <ele>-0.12</ele>
  <time>2026-09-01T01:12:11Z</time>
  <course>0.0</course>
  <speed>0.0</speed>
  <fix>3d</fix>
</trkpt>
<trkpt lat="33.8103132" lon="-118.3938672">
  <ele>-0.132</ele>
  <time>2026-09-01T01:12:11Z</time>
  <course>186.27</course>
  <speed>0.022360679774997897</speed>
  <fix>3d</fix>
</trkpt>
<trkpt lat="33.810313" lon="-118.393867">
  <ele>-0.12</ele>
  <time>2026-09-01T01:12:11Z</time>
  <course>0.0</course>
  <speed>0.0</speed>
  <fix>3d</fix>
</trkpt>
<trkpt lat="33.8103132" lon="-118.3938671">
  <ele>-0.134</ele>
  <time>2026-09-01T01:12:11Z</time>
  <course>186.27</course>
  <speed>0.022360679774997897</speed>
  <fix>3d</fix>
</trkpt>
<trkpt lat="33.810313" lon="-118.393867">
  <ele>-0.12</ele>
  <time>2026-09-01T01:12:11Z</time>
  <course>0.0</course>
  <speed>0.0</speed>
  <fix>3d</fix>
</trkpt>
<trkpt lat="33.8103132" lon="-118.3938672">
  <ele>-0.134</ele>
  <time>2026-09-01T01:12:11Z</time>
  <course>186.27</course>
  <speed>0.022360679774997897</speed>
  <fix>3d</fix>
</trkpt>
<trkpt lat="33.810313" lon="-118.393867">
  <ele>-0.12</ele>
  <time>2026-09-01T01:12:11Z</time>
  <course>0.0</course>
  <speed>0.0</speed>
  <fix>3d</fix>
</trkpt>
<trkpt lat="33.8103132" lon="-118.3938671">
  <ele>-0.135</ele>
  <time>2026-09-01T01:12:11Z</time>
  <course>186.27</course>
  <speed>0.022360679774997897</speed>
  <fix>3d</fix>
</trkpt>
<trkpt lat="33.810313" lon="-118.393867">
  <ele>-0.12</ele>
  <time>2026-09-01T01:12:11Z</time>
  <course>0.0</course>
  <speed>0.0</speed>
  <fix>3d</fix>
</trkpt>
<trkpt lat="33.8103132" lon="-118.3938672">
  <ele>-0.136</ele>
  <time>2026-09-01T01:12:11Z</time>
  <course>186.27</course>
  <speed>0.022360679774997897</speed>
  <fix>3d</fix>
</trkpt>
<trkpt lat="33.810313" lon="-118.393867">
  <ele>-0.12</ele>
  <time>2026-09-01T01:12:11Z</time>
  <course>0.0</course>
  <speed>0.0</speed>
  <fix>3d</fix>
</trkpt>
<trkpt lat="33.8103132" lon="-118.3938671">
  <ele>-0.137</ele>
  <time>2026-09-01T01:12:11Z</time>
  <course>186.27</course>
  <speed>0.022360679774997897</speed>
  <fix>3d</fix>
</trkpt>
<trkpt lat="33.810313" lon="-118.393867">
  <ele>-0.12</ele>
  <time>2026-09-01T01:12:11Z</time>
  <course>0.0</course>
  <speed>0.0</speed>
  <fix>3d</fix>
</trkpt>
<trkpt lat="33.8103132" lon="-118.3938671">
  <ele>-0.137</ele>
  <time>2026-09-01T01:12:11Z</time>
  <course>186.27</course>
  <speed>0.022360679774997897</speed>
  <fix>3d</fix>
</trkpt>
<trkpt lat="33.810313" lon="-118.393867">
  <ele>-0.12</ele>
  <time>2026-09-01T01:12:11Z</time>
  <course>0.0</course>
  <speed>0.0</speed>
  <fix>3d</fix>
</trkpt>
<trkpt lat="33.8103132" lon="-118.3938671">
  <ele>-0.137</ele>
  <time>2026-09-01T01:12:11Z</time>
  <course>186.27</course>
  <speed>0.022360679774997897</speed>
  <fix>3d</fix>
</trkpt>
<trkpt lat="33.810313" lon="-118.393867">
  <ele>-0.12</ele>
  <time>2026-09-01T01:12:11Z</time>
  <course>0.0</course>
  <speed>0.0</speed>
  <fix>3d</fix>
</trkpt>
<trkpt lat="33.8103132" lon="-118.3938671">
  <ele>-0.136</ele>
  <time>2026-09-01T01:12:11Z</time>
  <course>186.27</course>
  <speed>0.022360679774997897</speed>
  <fix>3d</fix>
</trkpt>
<trkpt lat="33.810313" lon="-118.393867">
  <ele>-0.12</ele>
  <time>2026-09-01T01:12:11Z</time>
  <course>0.0</course>
  <speed>0.0</speed>
  <fix>3d</fix>
</trkpt>
<trkpt lat="33.8103132" lon="-118.3938671">
  <ele>-0.135</ele>
  <time>2026-09-01T01:12:11Z</time>
  <course>186.27</course>
  <speed>0.022360679774997897</speed>
  <fix>3d</fix>
</trkpt>
<trkpt lat="33.810313" lon="-118.393867">
  <ele>-0.12</ele>
  <time>2026-09-01T01:12:11Z</time>
  <course>0.0</course>
  <speed>0.0</speed>
  <fix>3d</fix>
</trkpt>
<trkpt lat="33.8103132" lon="-118.3938671">
  <ele>-0.134</ele>
  <time>2026-09-01T01:12:11Z</time>
  <course>186.27</course>
  <speed>0.022360679774997897</speed>
  <fix>3d</fix>
</trkpt>
<trkpt lat="33.810313" lon="-118.393867">
  <ele>-0.12</ele>
  <time>2026-09-01T01:12:11Z</time>
  <course>0.0</course>
  <speed>0.0</speed>
  <fix>3d</fix>
</trkpt>
<trkpt lat="33.8103132" lon="-118.3938671">
  <ele>-0.133</ele>
  <time>2026-09-01T01:12:11Z</time>
  <course>186.27</course>
  <speed>0.022360679774997897</speed>
  <fix>3d</fix>
</trkpt>
<trkpt lat="33.810313" lon="-118.393867">
  <ele>-0.12</ele>
  <time>2026-09-01T01:12:11Z</time>
  <course>0.0</course>
  <speed>0.0</speed>
  <fix>3d</fix>
</trkpt>
<trkpt lat="33.8103132" lon="-118.3938671">
  <ele>-0.132</ele>
  <time>2026-09-01T01:12:11Z</time>
  <course>186.27</course>
  <speed>0.022360679774997897</speed>
  <fix>3d</fix>
</trkpt>
<trkpt lat="33.810313" lon="-118.393867">
  <ele>-0.12</ele>
  <time>2026-09-01T01:12:11Z</time>
  <course>0.0</course>
  <speed>0.0</speed>
  <fix>3d</fix>
</trkpt>
<trkpt lat="33.8103132" lon="-118.3938671">
  <ele>-0.132</ele>
  <time>2026-09-01T01:12:11Z</time>
  <course>186.27</course>
  <speed>0.022360679774997897</speed>
  <fix>3d</fix>
</trkpt>
<trkpt lat="33.810313" lon="-118.393867">
  <ele>-0.12</ele>
  <time>2026-09-01T01:12:11Z</time>
  <course>0.0</course>
  <speed>0.0</speed>
  <fix>3d</fix>
</trkpt>
<trkpt lat="33.8103132" lon="-118.3938672">
  <ele>-0.133</ele>
  <time>2026-09-01T01:12:11Z</time>
  <course>186.27</course>
  <speed>0.022360679774997897</speed>
  <fix>3d</fix>
</trkpt>
<trkpt lat="33.810313" lon="-118.393867">
  <ele>-0.12</ele>
  <time>2026-09-01T01:12:11Z</time>
  <course>0.0</course>
  <speed>0.0</speed>
  <fix>3d</fix>
</trkpt>
<trkpt lat="33.8103132" lon="-118.3938672">
  <ele>-0.133</ele>
  <time>2026-09-01T01:12:11Z</time>
  <course>186.26</course>
  <speed>0.022360679774997897</speed>
  <fix>3d</fix>
</trkpt>
<trkpt lat="33.810313" lon="-118.393867">
  <ele>-0.12</ele>
  <time>2026-09-01T01:12:11Z</time>
  <course>0.0</course>
  <speed>0.0</speed>
  <fix>3d</fix>
</trkpt>
<trkpt lat="33.8103132" lon="-118.3938672">
  <ele>-0.132</ele>
  <time>2026-09-01T01:12:11Z</time>
  <course>186.26</course>
  <speed>0.022360679774997897</speed>
  <fix>3d</fix>
</trkpt>
<trkpt lat="33.810313" lon="-118.393867">
  <ele>-0.12</ele>
  <time>2026-09-01T01:12:11Z</time>
  <course>0.0</course>
  <speed>0.0</speed>
  <fix>3d</fix>
</trkpt>
<trkpt lat="33.8103132" lon="-118.3938672">
  <ele>-0.131</ele>
  <time>2026-09-01T01:12:11Z</time>
  <course>186.26</course>
  <speed>0.022360679774997897</speed>
  <fix>3d</fix>
</trkpt>
<trkpt lat="33.810313" lon="-118.393867">
  <ele>-0.12</ele>
  <time>2026-09-01T01:12:11Z</time>
  <course>0.0</course>
  <speed>0.0</speed>
  <fix>3d</fix>
</trkpt>
<trkpt lat="33.8103132" lon="-118.3938672">
  <ele>-0.13</ele>
  <time>2026-09-01T01:12:11Z</time>
  <course>186.26</course>
  <speed>0.022360679774997897</speed>
  <fix>3d</fix>
</trkpt>
<trkpt lat="33.810313" lon="-118.393867">
  <ele>-0.12</ele>
  <time>2026-09-01T01:12:11Z</time>
  <course>0.0</course>
  <speed>0.0</speed>
  <fix>3d</fix>
</trkpt>
<trkpt lat="33.8103132" lon="-118.3938672">
  <ele>-0.13</ele>
  <time>2026-09-01T01:12:11Z</time>
  <course>186.26</course>
  <speed>0.022360679774997897</speed>
  <fix>3d</fix>
</trkpt>
<trkpt lat="33.810313" lon="-118.393867">
  <ele>-0.12</ele>
  <time>2026-09-01T01:12:11Z</time>
  <course>0.0</course>
  <speed>0.0</speed>
  <fix>3d</fix>
</trkpt>
<trkpt lat="33.8103132" lon="-118.3938672">
  <ele>-0.13</ele>
  <time>2026-09-01T01:12:11Z</time>
  <course>186.26</course>
  <speed>0.022360679774997897</speed>
  <fix>3d</fix>
</trkpt>
<trkpt lat="33.810313" lon="-118.393867">
  <ele>-0.12</ele>
  <time>2026-09-01T01:12:11Z</time>
  <course>0.0</course>
  <speed>0.0</speed>
  <fix>3d</fix>
</trkpt>
<trkpt lat="33.8103132" lon="-118.3938672">
  <ele>-0.13</ele>
  <time>2026-09-01T01:12:11Z</time>
  <course>186.26</course>
  <speed>0.022360679774997897</speed>
  <fix>3d</fix>
</trkpt>
<trkpt lat="33.810313" lon="-118.393867">
  <ele>-0.12</ele>
  <time>2026-09-01T01:12:11Z</time>
  <course>0.0</course>
  <speed>0.0</speed>
  <fix>3d</fix>
</trkpt>
<trkpt lat="33.8103132" lon="-118.3938672">
  <ele>-0.129</ele>
  <time>2026-09-01T01:12:11Z</time>
  <course>186.26</course>
  <speed>0.022360679774997897</speed>
  <fix>3d</fix>
</trkpt>
<trkpt lat="33.810313" lon="-118.393867">
  <ele>-0.12</ele>
  <time>2026-09-01T01:12:11Z</time>
  <course>0.0</course>
  <speed>0.0</speed>
  <fix>3d</fix>
</trkpt>
<trkpt lat="33.8103132" lon="-118.3938672">
  <ele>-0.129</ele>
  <time>2026-09-01T01:12:11Z</time>
  <course>186.26</course>
  <speed>0.022360679774997897</speed>
  <fix>3d</fix>
</trkpt>
<trkpt lat="33.810313" lon="-118.393867">
  <ele>-0.12</ele>
  <time>2026-09-01T01:12:11Z</time>
  <course>0.0</course>
  <speed>0.0</speed>
  <fix>3d</fix>
</trkpt>
<trkpt lat="33.8103132" lon="-118.3938672">
  <ele>-0.129</ele>
  <time>2026-09-01T01:12:11Z</time>
  <course>186.26</course>
  <speed>0.022360679774997897</speed>
  <fix>3d</fix>
</trkpt>
<trkpt lat="33.810313" lon="-118.393867">
  <ele>-0.12</ele>
  <time>2026-09-01T01:12:11Z</time>
  <course>0.0</course>
  <speed>0.0</speed>
  <fix>3d</fix>
</trkpt>
<trkpt lat="33.8103132" lon="-118.3938671">
  <ele>-0.128</ele>
  <time>2026-09-01T01:12:11Z</time>
  <course>186.26</course>
  <speed>0.022360679774997897</speed>
  <fix>3d</fix>
</trkpt>
<trkpt lat="33.810313" lon="-118.393867">
  <ele>-0.12</ele>
  <time>2026-09-01T01:12:11Z</time>
  <course>0.0</course>
  <speed>0.0</speed>
  <fix>3d</fix>
</trkpt>
<trkpt lat="33.8103132" lon="-118.3938671">
  <ele>-0.126</ele>
  <time>2026-09-01T01:12:11Z</time>
  <course>186.26</course>
  <speed>0.022360679774997897</speed>
  <fix>3d</fix>
</trkpt>
<trkpt lat="33.810313" lon="-118.393867">
  <ele>-0.12</ele>
  <time>2026-09-01T01:12:11Z</time>
  <course>0.0</course>
  <speed>0.0</speed>
  <fix>3d</fix>
</trkpt>
<trkpt lat="33.8103132" lon="-118.3938671">
  <ele>-0.123</ele>
  <time>2026-09-01T01:12:11Z</time>
  <course>186.26</course>
  <speed>0.022360679774997897</speed>
  <fix>3d</fix>
</trkpt>
<trkpt lat="33.810313" lon="-118.393867">
  <ele>-0.12</ele>
  <time>2026-09-01T01:12:11Z</time>
  <course>0.0</course>
  <speed>0.0</speed>
  <fix>3d</fix>
</trkpt>
<trkpt lat="33.8103132" lon="-118.3938671">
  <ele>-0.121</ele>
  <time>2026-09-01T01:12:11Z</time>
  <course>186.26</course>
  <speed>0.022360679774997897</speed>
  <fix>3d</fix>
</trkpt>
<trkpt lat="33.810313" lon="-118.393867">
  <ele>-0.12</ele>
  <time>2026-09-01T01:12:11Z</time>
  <course>0.0</course>
  <speed>0.0</speed>
  <fix>3d</fix>
</trkpt>
<trkpt lat="33.8103132" lon="-118.3938671">
  <ele>-0.118</ele>
  <time>2026-09-01T01:12:11Z</time>
  <course>186.26</course>
  <speed>0.022360679774997897</speed>
  <fix>3d</fix>
</trkpt>
<trkpt lat="33.810313" lon="-118.393867">
  <ele>-0.12</ele>
  <time>2026-09-01T01:12:11Z</time>
  <course>0.0</course>
  <speed>0.0</speed>
  <fix>3d</fix>
</trkpt>
<trkpt lat="33.8103132" lon="-118.3938671">
  <ele>-0.115</ele>
  <time>2026-09-01T01:12:11Z</time>
  <course>186.26</course>
  <speed>0.022360679774997897</speed>
  <fix>3d</fix>
</trkpt>
<trkpt lat="33.810313" lon="-118.393867">
  <ele>-0.12</ele>
  <time>2026-09-01T01:12:11Z</time>
  <course>0.0</course>
  <speed>0.0</speed>
  <fix>3d</fix>
</trkpt>
<trkpt lat="33.8103132" lon="-118.3938671">
  <ele>-0.115</ele>
  <time>2026-09-01T01:12:11Z</time>
  <course>186.26</course>
  <speed>0.022360679774997897</speed>
  <fix>3d</fix>
</trkpt>
<trkpt lat="33.810313" lon="-118.393867">
  <ele>-0.12</ele>
  <time>2026-09-01T01:12:11Z</time>
  <course>0.0</course>
  <speed>0.0</speed>
  <fix>3d</fix>
</trkpt>
<trkpt lat="33.8103132" lon="-118.3938671">
  <ele>-0.116</ele>
  <time>2026-09-01T01:12:11Z</time>
  <course>186.26</course>
  <speed>0.022360679774997897</speed>
  <fix>3d</fix>
</trkpt>
<trkpt lat="33.810313" lon="-118.393867">
  <ele>-0.12</ele>
  <time>2026-09-01T01:12:11Z</time>
  <course>0.0</course>
  <speed>0.0</speed>
  <fix>3d</fix>
</trkpt>
<trkpt lat="33.8103132" lon="-118.3938671">
  <ele>-0.118</ele>
  <time>2026-09-01T01:12:11Z</time>
  <course>186.26</course>
  <speed>0.022360679774997897</speed>
  <fix>3d</fix>
</trkpt>
<trkpt lat="33.810313" lon="-118.393867">
  <ele>-0.12</ele>
  <time>2026-09-01T01:12:11Z</time>
  <course>0.0</course>
  <speed>0.0</speed>
  <fix>3d</fix>
</trkpt>
<trkpt lat="33.8103132" lon="-118.3938671">
  <ele>-0.12</ele>
  <time>2026-09-01T01:12:11Z</time>
  <course>186.26</course>
  <speed>0.022360679774997897</speed>
  <fix>3d</fix>
</trkpt>
<trkpt lat="33.810313" lon="-118.393867">
  <ele>-0.12</ele>
  <time>2026-09-01T01:12:11Z</time>
  <course>0.0</course>
  <speed>0.0</speed>
  <fix>3d</fix>
</trkpt>
<trkpt lat="33.8103132" lon="-118.3938671">
  <ele>-0.121</ele>
  <time>2026-09-01T01:12:11Z</time>
  <course>186.26</course>
  <speed>0.022360679774997897</speed>
  <fix>3d</fix>
</trkpt>
<trkpt lat="33.810313" lon="-118.393867">
  <ele>-0.12</ele>
  <time>2026-09-01T01:12:11Z</time>
  <course>0.0</course>
  <speed>0.0</speed>
  <fix>3d</fix>
</trkpt>
<trkpt lat="33.8103132" lon="-118.3938671">
  <ele>-0.121</ele>
  <time>2026-09-01T01:12:11Z</time>
  <course>186.26</course>
  <speed>0.022360679774997897</speed>
  <fix>3d</fix>
</trkpt>
<trkpt lat="33.810313" lon="-118.393867">
  <ele>-0.12</ele>
  <time>2026-09-01T01:12:11Z</time>
  <course>0.0</course>
  <speed>0.0</speed>
  <fix>3d</fix>
</trkpt>
<trkpt lat="33.8103132" lon="-118.3938671">
  <ele>-0.122</ele>
  <time>2026-09-01T01:12:11Z</time>
  <course>186.26</course>
  <speed>0.022360679774997897</speed>
  <fix>3d</fix>
</trkpt>
<trkpt lat="33.810313" lon="-118.393867">
  <ele>-0.12</ele>
  <time>2026-09-01T01:12:11Z</time>
  <course>0.0</course>
  <speed>0.0</speed>
  <fix>3d</fix>
</trkpt>
<trkpt lat="33.8103132" lon="-118.3938671">
  <ele>-0.122</ele>
  <time>2026-09-01T01:12:11Z</time>
  <course>186.25</course>
  <speed>0.022360679774997897</speed>
  <fix>3d</fix>
</trkpt>
<trkpt lat="33.810313" lon="-118.393867">
  <ele>-0.12</ele>
  <time>2026-09-01T01:12:11Z</time>
  <course>0.0</course>
  <speed>0.0</speed>
  <fix>3d</fix>
</trkpt>
<trkpt lat="33.8103132" lon="-118.3938671">
  <ele>-0.122</ele>
  <time>2026-09-01T01:12:11Z</time>
  <course>186.25</course>
  <speed>0.022360679774997897</speed>
  <fix>3d</fix>
</trkpt>
<trkpt lat="33.810313" lon="-118.393867">
  <ele>-0.12</ele>
  <time>2026-09-01T01:12:11Z</time>
  <course>0.0</course>
  <speed>0.0</speed>
  <fix>3d</fix>
</trkpt>
<trkpt lat="33.8103132" lon="-118.3938671">
  <ele>-0.121</ele>
  <time>2026-09-01T01:12:11Z</time>
  <course>186.25</course>
  <speed>0.022360679774997897</speed>
  <fix>3d</fix>
</trkpt>
<trkpt lat="33.810313" lon="-118.393867">
  <ele>-0.12</ele>
  <time>2026-09-01T01:12:11Z</time>
  <course>0.0</course>
  <speed>0.0</speed>
  <fix>3d</fix>
</trkpt>
<trkpt lat="33.8103132" lon="-118.3938671">
  <ele>-0.12</ele>
  <time>2026-09-01T01:12:11Z</time>
  <course>186.25</course>
  <speed>0.022360679774997897</speed>
  <fix>3d</fix>
</trkpt>
<trkpt lat="33.810313" lon="-118.393867">
  <ele>-0.12</ele>
  <time>2026-09-01T01:12:11Z</time>
  <course>0.0</course>
  <speed>0.0</speed>
  <fix>3d</fix>
</trkpt>
<trkpt lat="33.8103132" lon="-118.3938671">
  <ele>-0.12</ele>
  <time>2026-09-01T01:12:11Z</time>
  <course>186.25</course>
  <speed>0.022360679774997897</speed>
  <fix>3d</fix>
</trkpt>
<trkpt lat="33.810313" lon="-118.393867">
  <ele>-0.12</ele>
  <time>2026-09-01T01:12:11Z</time>
  <course>0.0</course>
  <speed>0.0</speed>
  <fix>3d</fix>
</trkpt>
<trkpt lat="33.8103132" lon="-118.3938671">
  <ele>-0.121</ele>
  <time>2026-09-01T01:12:11Z</time>
  <course>186.25</course>
  <speed>0.022360679774997897</speed>
  <fix>3d</fix>
</trkpt>
<trkpt lat="33.810313" lon="-118.393867">
  <ele>-0.12</ele>
  <time>2026-09-01T01:12:11Z</time>
  <course>0.0</course>
  <speed>0.0</speed>
  <fix>3d</fix>
</trkpt>
<trkpt lat="33.8103132" lon="-118.3938671">
  <ele>-0.122</ele>
  <time>2026-09-01T01:12:11Z</time>
  <course>186.25</course>
  <speed>0.022360679774997897</speed>
  <fix>3d</fix>
</trkpt>
<trkpt lat="33.810313" lon="-118.393867">
  <ele>-0.12</ele>
  <time>2026-09-01T01:12:11Z</time>
  <course>0.0</course>
  <speed>0.0</speed>
  <fix>3d</fix>
</trkpt>
<trkpt lat="33.8103132" lon="-118.3938671">
  <ele>-0.122</ele>
  <time>2026-09-01T01:12:11Z</time>
  <course>186.25</course>
  <speed>0.022360679774997897</speed>
  <fix>3d</fix>
</trkpt>
<trkpt lat="33.810313" lon="-118.393867">
  <ele>-0.12</ele>
  <time>2026-09-01T01:12:11Z</time>
  <course>0.0</course>
  <speed>0.0</speed>
  <fix>3d</fix>
</trkpt>
<trkpt lat="33.8103132" lon="-118.3938671">
  <ele>-0.122</ele>
  <time>2026-09-01T01:12:11Z</time>
  <course>186.25</course>
  <speed>0.022360679774997897</speed>
  <fix>3d</fix>
</trkpt>
<trkpt lat="33.810313" lon="-118.393867">
  <ele>-0.12</ele>
  <time>2026-09-01T01:12:11Z</time>
  <course>0.0</course>
  <speed>0.0</speed>
  <fix>3d</fix>
</trkpt>
<trkpt lat="33.8103132" lon="-118.3938671">
  <ele>-0.123</ele>
  <time>2026-09-01T01:12:11Z</time>
  <course>186.25</course>
  <speed>0.022360679774997897</speed>
  <fix>3d</fix>
</trkpt>
<trkpt lat="33.810313" lon="-118.393867">
  <ele>-0.12</ele>
  <time>2026-09-01T01:12:11Z</time>
  <course>0.0</course>
  <speed>0.0</speed>
  <fix>3d</fix>
</trkpt>
<trkpt lat="33.8103132" lon="-118.3938671">
  <ele>-0.123</ele>
  <time>2026-09-01T01:12:11Z</time>
  <course>186.25</course>
  <speed>0.022360679774997897</speed>
  <fix>3d</fix>
</trkpt>
<trkpt lat="33.810313" lon="-118.393867">
  <ele>-0.12</ele>
  <time>2026-09-01T01:12:11Z</time>
  <course>0.0</course>
  <speed>0.0</speed>
  <fix>3d</fix>
</trkpt>
<trkpt lat="33.8103132" lon="-118.3938671">
  <ele>-0.122</ele>
  <time>2026-09-01T01:12:11Z</time>
  <course>186.25</course>
  <speed>0.022360679774997897</speed>
  <fix>3d</fix>
</trkpt>
<trkpt lat="33.810313" lon="-118.393867">
  <ele>-0.12</ele>
  <time>2026-09-01T01:12:11Z</time>
  <course>0.0</course>
  <speed>0.0</speed>
  <fix>3d</fix>
</trkpt>
<trkpt lat="33.8103132" lon="-118.3938671">
  <ele>-0.121</ele>
  <time>2026-09-01T01:12:11Z</time>
  <course>186.25</course>
  <speed>0.022360679774997897</speed>
  <fix>3d</fix>
</trkpt>
<trkpt lat="33.810313" lon="-118.393867">
  <ele>-0.12</ele>
  <time>2026-09-01T01:12:11Z</time>
  <course>0.0</course>
  <speed>0.0</speed>
  <fix>3d</fix>
</trkpt>
<trkpt lat="33.8103132" lon="-118.3938671">
  <ele>-0.121</ele>
  <time>2026-09-01T01:12:11Z</time>
  <course>186.25</course>
  <speed>0.022360679774997897</speed>
  <fix>3d</fix>
</trkpt>
<trkpt lat="33.810313" lon="-118.393867">
  <ele>-0.12</ele>
  <time>2026-09-01T01:12:11Z</time>
  <course>0.0</course>
  <speed>0.0</speed>
  <fix>3d</fix>
</trkpt>
<trkpt lat="33.8103132" lon="-118.3938671">
  <ele>-0.121</ele>
  <time>2026-09-01T01:12:11Z</time>
  <course>186.25</course>
  <speed>0.022360679774997897</speed>
  <fix>3d</fix>
</trkpt>
<trkpt lat="33.810313" lon="-118.393867">
  <ele>-0.12</ele>
  <time>2026-09-01T01:12:11Z</time>
  <course>0.0</course>
  <speed>0.0</speed>
  <fix>3d</fix>
</trkpt>
<trkpt lat="33.8103132" lon="-118.3938671">
  <ele>-0.12</ele>
  <time>2026-09-01T01:12:11Z</time>
  <course>186.25</course>
  <speed>0.022360679774997897</speed>
  <fix>3d</fix>
</trkpt>
<trkpt lat="33.810313" lon="-118.393867">
  <ele>-0.12</ele>
  <time>2026-09-01T01:12:11Z</time>
  <course>0.0</course>
  <speed>0.0</speed>
  <fix>3d</fix>
</trkpt>
<trkpt lat="33.8103132" lon="-118.3938671">
  <ele>-0.12</ele>
  <time>2026-09-01T01:12:11Z</time>
  <course>186.25</course>
  <speed>0.022360679774997897</speed>
  <fix>3d</fix>
</trkpt>
<trkpt lat="33.810313" lon="-118.393867">
  <ele>-0.12</ele>
  <time>2026-09-01T01:12:11Z</time>
  <course>0.0</course>
  <speed>0.0</speed>
  <fix>3d</fix>
</trkpt>
<trkpt lat="33.8103132" lon="-118.3938671">
  <ele>-0.121</ele>
  <time>2026-09-01T01:12:11Z</time>
  <course>186.25</course>
  <speed>0.022360679774997897</speed>
  <fix>3d</fix>
</trkpt>
<trkpt lat="33.810313" lon="-118.393867">
  <ele>-0.12</ele>
  <time>2026-09-01T01:12:11Z</time>
  <course>0.0</course>
  <speed>0.0</speed>
  <fix>3d</fix>
</trkpt>
<trkpt lat="33.8103132" lon="-118.3938671">
  <ele>-0.122</ele>
  <time>2026-09-01T01:12:11Z</time>
  <course>186.25</course>
  <speed>0.022360679774997897</speed>
  <fix>3d</fix>
</trkpt>
<trkpt lat="33.810313" lon="-118.393867">
  <ele>-0.12</ele>
  <time>2026-09-01T01:12:11Z</time>
  <course>0.0</course>
  <speed>0.0</speed>
  <fix>3d</fix>
</trkpt>
<trkpt lat="33.8103132" lon="-118.3938671">
  <ele>-0.125</ele>
  <time>2026-09-01T01:12:11Z</time>
  <course>186.25</course>
  <speed>0.022360679774997897</speed>
  <fix>3d</fix>
</trkpt>
<trkpt lat="33.810313" lon="-118.393867">
  <ele>-0.12</ele>
  <time>2026-09-01T01:12:11Z</time>
  <course>0.0</course>
  <speed>0.0</speed>
  <fix>3d</fix>
</trkpt>
<trkpt lat="33.8103132" lon="-118.3938671">
  <ele>-0.126</ele>
  <time>2026-09-01T01:12:11Z</time>
  <course>186.25</course>
  <speed>0.022360679774997897</speed>
  <fix>3d</fix>
</trkpt>
<trkpt lat="33.810313" lon="-118.393867">
  <ele>-0.12</ele>
  <time>2026-09-01T01:12:11Z</time>
  <course>0.0</course>
  <speed>0.0</speed>
  <fix>3d</fix>
</trkpt>
<trkpt lat="33.8103132" lon="-118.3938671">
  <ele>-0.126</ele>
  <time>2026-09-01T01:12:11Z</time>
  <course>186.25</course>
  <speed>0.022360679774997897</speed>
  <fix>3d</fix>
</trkpt>
<trkpt lat="33.810313" lon="-118.393867">
  <ele>-0.12</ele>
  <time>2026-09-01T01:12:11Z</time>
  <course>0.0</course>
  <speed>0.0</speed>
  <fix>3d</fix>
</trkpt>
<trkpt lat="33.8103132" lon="-118.3938671">
  <ele>-0.126</ele>
  <time>2026-09-01T01:12:11Z</time>
  <course>186.25</course>
  <speed>0.022360679774997897</speed>
  <fix>3d</fix>
</trkpt>
<trkpt lat="33.810313" lon="-118.393867">
  <ele>-0.12</ele>
  <time>2026-09-01T01:12:11Z</time>
  <course>0.0</course>
  <speed>0.0</speed>
  <fix>3d</fix>
</trkpt>
<trkpt lat="33.8103132" lon="-118.3938671">
  <ele>-0.126</ele>
  <time>2026-09-01T01:12:11Z</time>
  <course>186.24</course>
  <speed>0.022360679774997897</speed>
  <fix>3d</fix>
</trkpt>
<trkpt lat="33.810313" lon="-118.393867">
  <ele>-0.12</ele>
  <time>2026-09-01T01:12:11Z</time>
  <course>0.0</course>
  <speed>0.0</speed>
  <fix>3d</fix>
</trkpt>
<trkpt lat="33.8103132" lon="-118.3938671">
  <ele>-0.126</ele>
  <time>2026-09-01T01:12:11Z</time>
  <course>186.24</course>
  <speed>0.022360679774997897</speed>
  <fix>3d</fix>
</trkpt>
<trkpt lat="33.810313" lon="-118.393867">
  <ele>-0.12</ele>
  <time>2026-09-01T01:12:11Z</time>
  <course>0.0</course>
  <speed>0.0</speed>
  <fix>3d</fix>
</trkpt>
<trkpt lat="33.8103132" lon="-118.3938671">
  <ele>-0.127</ele>
  <time>2026-09-01T01:12:11Z</time>
  <course>186.24</course>
  <speed>0.022360679774997897</speed>
  <fix>3d</fix>
</trkpt>
<trkpt lat="33.810313" lon="-118.393867">
  <ele>-0.12</ele>
  <time>2026-09-01T01:12:11Z</time>
  <course>0.0</course>
  <speed>0.0</speed>
  <fix>3d</fix>
</trkpt>
<trkpt lat="33.8103132" lon="-118.3938671">
  <ele>-0.127</ele>
  <time>2026-09-01T01:12:11Z</time>
  <course>186.24</course>
  <speed>0.022360679774997897</speed>
  <fix>3d</fix>
</trkpt>
<trkpt lat="33.810313" lon="-118.393867">
  <ele>-0.12</ele>
  <time>2026-09-01T01:12:11Z</time>
  <course>0.0</course>
  <speed>0.0</speed>
  <fix>3d</fix>
</trkpt>
<trkpt lat="33.8103132" lon="-118.3938671">
  <ele>-0.127</ele>
  <time>2026-09-01T01:12:11Z</time>
  <course>186.24</course>
  <speed>0.022360679774997897</speed>
  <fix>3d</fix>
</trkpt>
<trkpt lat="33.810313" lon="-118.393867">
  <ele>-0.12</ele>
  <time>2026-09-01T01:12:11Z</time>
  <course>0.0</course>
  <speed>0.0</speed>
  <fix>3d</fix>
</trkpt>
<trkpt lat="33.8103132" lon="-118.3938671">
  <ele>-0.128</ele>
  <time>2026-09-01T01:12:11Z</time>
  <course>186.24</course>
  <speed>0.022360679774997897</speed>
  <fix>3d</fix>
</trkpt>
<trkpt lat="33.810313" lon="-118.393867">
  <ele>-0.12</ele>
  <time>2026-09-01T01:12:11Z</time>
  <course>0.0</course>
  <speed>0.0</speed>
  <fix>3d</fix>
</trkpt>
<trkpt lat="33.8103132" lon="-118.3938671">
  <ele>-0.128</ele>
  <time>2026-09-01T01:12:11Z</time>
  <course>186.24</course>
  <speed>0.022360679774997897</speed>
  <fix>3d</fix>
</trkpt>
<trkpt lat="33.810313" lon="-118.393867">
  <ele>-0.12</ele>
  <time>2026-09-01T01:12:11Z</time>
  <course>0.0</course>
  <speed>0.0</speed>
  <fix>3d</fix>
</trkpt>
<trkpt lat="33.8103132" lon="-118.3938671">
  <ele>-0.129</ele>
  <time>2026-09-01T01:12:11Z</time>
  <course>186.24</course>
  <speed>0.022360679774997897</speed>
  <fix>3d</fix>
</trkpt>
<trkpt lat="33.810313" lon="-118.393867">
  <ele>-0.12</ele>
  <time>2026-09-01T01:12:11Z</time>
  <course>0.0</course>
  <speed>0.0</speed>
  <fix>3d</fix>
</trkpt>
<trkpt lat="33.8103132" lon="-118.3938671">
  <ele>-0.129</ele>
  <time>2026-09-01T01:12:11Z</time>
  <course>186.24</course>
  <speed>0.022360679774997897</speed>
  <fix>3d</fix>
</trkpt>
<trkpt lat="33.810313" lon="-118.393867">
  <ele>-0.12</ele>
  <time>2026-09-01T01:12:11Z</time>
  <course>0.0</course>
  <speed>0.0</speed>
  <fix>3d</fix>
</trkpt>
<trkpt lat="33.8103132" lon="-118.3938671">
  <ele>-0.129</ele>
  <time>2026-09-01T01:12:11Z</time>
  <course>186.24</course>
  <speed>0.022360679774997897</speed>
  <fix>3d</fix>
</trkpt>
<trkpt lat="33.810313" lon="-118.393867">
  <ele>-0.12</ele>
  <time>2026-09-01T01:12:11Z</time>
  <course>0.0</course>
  <speed>0.0</speed>
  <fix>3d</fix>
</trkpt>
<trkpt lat="33.8103132" lon="-118.3938671">
  <ele>-0.13</ele>
  <time>2026-09-01T01:12:11Z</time>
  <course>186.24</course>
  <speed>0.022360679774997897</speed>
  <fix>3d</fix>
</trkpt>
<trkpt lat="33.810313" lon="-118.393867">
  <ele>-0.12</ele>
  <time>2026-09-01T01:12:11Z</time>
  <course>0.0</course>
  <speed>0.0</speed>
  <fix>3d</fix>
</trkpt>
<trkpt lat="33.8103132" lon="-118.3938672">
  <ele>-0.131</ele>
  <time>2026-09-01T01:12:11Z</time>
  <course>186.24</course>
  <speed>0.022360679774997897</speed>
  <fix>3d</fix>
</trkpt>
<trkpt lat="33.810313" lon="-118.393867">
  <ele>-0.12</ele>
  <time>2026-09-01T01:12:11Z</time>
  <course>0.0</course>
  <speed>0.0</speed>
  <fix>3d</fix>
</trkpt>
<trkpt lat="33.8103132" lon="-118.3938671">
  <ele>-0.132</ele>
  <time>2026-09-01T01:12:11Z</time>
  <course>186.24</course>
  <speed>0.022360679774997897</speed>
  <fix>3d</fix>
</trkpt>
<trkpt lat="33.810313" lon="-118.393867">
  <ele>-0.12</ele>
  <time>2026-09-01T01:12:11Z</time>
  <course>0.0</course>
  <speed>0.0</speed>
  <fix>3d</fix>
</trkpt>
<trkpt lat="33.8103132" lon="-118.3938672">
  <ele>-0.133</ele>
  <time>2026-09-01T01:12:11Z</time>
  <course>186.24</course>
  <speed>0.022360679774997897</speed>
  <fix>3d</fix>
</trkpt>
<trkpt lat="33.810313" lon="-118.393867">
  <ele>-0.12</ele>
  <time>2026-09-01T01:12:11Z</time>
  <course>0.0</course>
  <speed>0.0</speed>
  <fix>3d</fix>
</trkpt>
<trkpt lat="33.8103132" lon="-118.3938671">
  <ele>-0.133</ele>
  <time>2026-09-01T01:12:11Z</time>
  <course>186.24</course>
  <speed>0.022360679774997897</speed>
  <fix>3d</fix>
</trkpt>
<trkpt lat="33.810313" lon="-118.393867">
  <ele>-0.12</ele>
  <time>2026-09-01T01:12:11Z</time>
  <course>0.0</course>
  <speed>0.0</speed>
  <fix>3d</fix>
</trkpt>
<trkpt lat="33.8103132" lon="-118.3938672">
  <ele>-0.132</ele>
  <time>2026-09-01T01:12:11Z</time>
  <course>186.24</course>
  <speed>0.022360679774997897</speed>
  <fix>3d</fix>
</trkpt>
<trkpt lat="33.810313" lon="-118.393867">
  <ele>-0.12</ele>
  <time>2026-09-01T01:12:11Z</time>
  <course>0.0</course>
  <speed>0.0</speed>
  <fix>3d</fix>
</trkpt>
<trkpt lat="33.8103132" lon="-118.3938671">
  <ele>-0.131</ele>
  <time>2026-09-01T01:12:11Z</time>
  <course>186.24</course>
  <speed>0.022360679774997897</speed>
  <fix>3d</fix>
</trkpt>
<trkpt lat="33.810313" lon="-118.393867">
  <ele>-0.12</ele>
  <time>2026-09-01T01:12:11Z</time>
  <course>0.0</course>
  <speed>0.0</speed>
  <fix>3d</fix>
</trkpt>
<trkpt lat="33.8103132" lon="-118.3938672">
  <ele>-0.13</ele>
  <time>2026-09-01T01:12:11Z</time>
  <course>186.24</course>
  <speed>0.022360679774997897</speed>
  <fix>3d</fix>
</trkpt>
<trkpt lat="33.810313" lon="-118.393867">
  <ele>-0.12</ele>
  <time>2026-09-01T01:12:11Z</time>
  <course>0.0</course>
  <speed>0.0</speed>
  <fix>3d</fix>
</trkpt>
<trkpt lat="33.8103132" lon="-118.3938671">
  <ele>-0.128</ele>
  <time>2026-09-01T01:12:11Z</time>
  <course>186.24</course>
  <speed>0.022360679774997897</speed>
  <fix>3d</fix>
</trkpt>
<trkpt lat="33.810313" lon="-118.393867">
  <ele>-0.12</ele>
  <time>2026-09-01T01:12:11Z</time>
  <course>0.0</course>
  <speed>0.0</speed>
  <fix>3d</fix>
</trkpt>
<trkpt lat="33.8103132" lon="-118.3938672">
  <ele>-0.127</ele>
  <time>2026-09-01T01:12:11Z</time>
  <course>186.24</course>
  <speed>0.022360679774997897</speed>
  <fix>3d</fix>
</trkpt>
<trkpt lat="33.810313" lon="-118.393867">
  <ele>-0.12</ele>
  <time>2026-09-01T01:12:11Z</time>
  <course>0.0</course>
  <speed>0.0</speed>
  <fix>3d</fix>
</trkpt>
<trkpt lat="33.8103132" lon="-118.3938671">
  <ele>-0.127</ele>
  <time>2026-09-01T01:12:11Z</time>
  <course>186.24</course>
  <speed>0.022360679774997897</speed>
  <fix>3d</fix>
</trkpt>
<trkpt lat="33.810313" lon="-118.393867">
  <ele>-0.12</ele>
  <time>2026-09-01T01:12:11Z</time>
  <course>0.0</course>
  <speed>0.0</speed>
  <fix>3d</fix>
</trkpt>
<trkpt lat="33.8103132" lon="-118.3938672">
  <ele>-0.129</ele>
  <time>2026-09-01T01:12:11Z</time>
  <course>186.24</course>
  <speed>0.022360679774997897</speed>
  <fix>3d</fix>
</trkpt>
<trkpt lat="33.810313" lon="-118.393867">
  <ele>-0.12</ele>
  <time>2026-09-01T01:12:11Z</time>
  <course>0.0</course>
  <speed>0.0</speed>
  <fix>3d</fix>
</trkpt>
<trkpt lat="33.8103132" lon="-118.3938671">
  <ele>-0.13</ele>
  <time>2026-09-01T01:12:11Z</time>
  <course>186.24</course>
  <speed>0.022360679774997897</speed>
  <fix>3d</fix>
</trkpt>
<trkpt lat="33.810313" lon="-118.393867">
  <ele>-0.12</ele>
  <time>2026-09-01T01:12:11Z</time>
  <course>0.0</course>
  <speed>0.0</speed>
  <fix>3d</fix>
</trkpt>
<trkpt lat="33.8103132" lon="-118.3938672">
  <ele>-0.131</ele>
  <time>2026-09-01T01:12:11Z</time>
  <course>186.24</course>
  <speed>0.022360679774997897</speed>
  <fix>3d</fix>
</trkpt>
<trkpt lat="33.810313" lon="-118.393867">
  <ele>-0.12</ele>
  <time>2026-09-01T01:12:11Z</time>
  <course>0.0</course>
  <speed>0.0</speed>
  <fix>3d</fix>
</trkpt>
<trkpt lat="33.8103132" lon="-118.3938672">
  <ele>-0.131</ele>
  <time>2026-09-01T01:12:11Z</time>
  <course>186.24</course>
  <speed>0.022360679774997897</speed>
  <fix>3d</fix>
</trkpt>
<trkpt lat="33.810313" lon="-118.393867">
  <ele>-0.12</ele>
  <time>2026-09-01T01:12:11Z</time>
  <course>0.0</course>
  <speed>0.0</speed>
  <fix>3d</fix>
</trkpt>
<trkpt lat="33.8103132" lon="-118.3938672">
  <ele>-0.133</ele>
  <time>2026-09-01T01:12:11Z</time>
  <course>186.24</course>
  <speed>0.022360679774997897</speed>
  <fix>3d</fix>
</trkpt>
<trkpt lat="33.810313" lon="-118.393867">
  <ele>-0.12</ele>
  <time>2026-09-01T01:12:11Z</time>
  <course>0.0</course>
  <speed>0.0</speed>
  <fix>3d</fix>
</trkpt>
<trkpt lat="33.8103132" lon="-118.3938672">
  <ele>-0.132</ele>
  <time>2026-09-01T01:12:11Z</time>
  <course>186.24</course>
  <speed>0.022360679774997897</speed>
  <fix>3d</fix>
</trkpt>
<trkpt lat="33.810313" lon="-118.393867">
  <ele>-0.12</ele>
  <time>2026-09-01T01:12:11Z</time>
  <course>0.0</course>
  <speed>0.0</speed>
  <fix>3d</fix>
</trkpt>
<trkpt lat="33.8103132" lon="-118.3938672">
  <ele>-0.131</ele>
  <time>2026-09-01T01:12:11Z</time>
  <course>186.24</course>
  <speed>0.022360679774997897</speed>
  <fix>3d</fix>
</trkpt>
<trkpt lat="33.810313" lon="-118.393867">
  <ele>-0.12</ele>
  <time>2026-09-01T01:12:11Z</time>
  <course>0.0</course>
  <speed>0.0</speed>
  <fix>3d</fix>
</trkpt>
<trkpt lat="33.8103132" lon="-118.3938672">
  <ele>-0.13</ele>
  <time>2026-09-01T01:12:11Z</time>
  <course>186.24</course>
  <speed>0.022360679774997897</speed>
  <fix>3d</fix>
</trkpt>
<trkpt lat="33.810313" lon="-118.393867">
  <ele>-0.12</ele>
  <time>2026-09-01T01:12:11Z</time>
  <course>0.0</course>
  <speed>0.0</speed>
  <fix>3d</fix>
</trkpt>
<trkpt lat="33.8103132" lon="-118.3938672">
  <ele>-0.129</ele>
  <time>2026-09-01T01:12:11Z</time>
  <course>186.23</course>
  <speed>0.022360679774997897</speed>
  <fix>3d</fix>
</trkpt>
<trkpt lat="33.810313" lon="-118.393867">
  <ele>-0.12</ele>
  <time>2026-09-01T01:12:11Z</time>
  <course>0.0</course>
  <speed>0.0</speed>
  <fix>3d</fix>
</trkpt>
<trkpt lat="33.8103132" lon="-118.3938672">
  <ele>-0.127</ele>
  <time>2026-09-01T01:12:11Z</time>
  <course>186.23</course>
  <speed>0.022360679774997897</speed>
  <fix>3d</fix>
</trkpt>
<trkpt lat="33.810313" lon="-118.393867">
  <ele>-0.12</ele>
  <time>2026-09-01T01:12:11Z</time>
  <course>0.0</course>
  <speed>0.0</speed>
  <fix>3d</fix>
</trkpt>
<trkpt lat="33.8103132" lon="-118.3938672">
  <ele>-0.126</ele>
  <time>2026-09-01T01:12:11Z</time>
  <course>186.23</course>
  <speed>0.022360679774997897</speed>
  <fix>3d</fix>
</trkpt>
<trkpt lat="33.810313" lon="-118.393867">
  <ele>-0.12</ele>
  <time>2026-09-01T01:12:11Z</time>
  <course>0.0</course>
  <speed>0.0</speed>
  <fix>3d</fix>
</trkpt>
<trkpt lat="33.8103132" lon="-118.3938672">
  <ele>-0.126</ele>
  <time>2026-09-01T01:12:11Z</time>
  <course>186.23</course>
  <speed>0.022360679774997897</speed>
  <fix>3d</fix>
</trkpt>
<trkpt lat="33.810313" lon="-118.393867">
  <ele>-0.12</ele>
  <time>2026-09-01T01:12:11Z</time>
  <course>0.0</course>
  <speed>0.0</speed>
  <fix>3d</fix>
</trkpt>
<trkpt lat="33.8103132" lon="-118.3938672">
  <ele>-0.127</ele>
  <time>2026-09-01T01:12:11Z</time>
  <course>186.23</course>
  <speed>0.022360679774997897</speed>
  <fix>3d</fix>
</trkpt>
<trkpt lat="33.810313" lon="-118.393867">
  <ele>-0.12</ele>
  <time>2026-09-01T01:12:11Z</time>
  <course>0.0</course>
  <speed>0.0</speed>
  <fix>3d</fix>
</trkpt>
<trkpt lat="33.8103132" lon="-118.3938672">
  <ele>-0.129</ele>
  <time>2026-09-01T01:12:11Z</time>
  <course>186.23</course>
  <speed>0.022360679774997897</speed>
  <fix>3d</fix>
</trkpt>
<trkpt lat="33.810313" lon="-118.393867">
  <ele>-0.12</ele>
  <time>2026-09-01T01:12:11Z</time>
  <course>0.0</course>
  <speed>0.0</speed>
  <fix>3d</fix>
</trkpt>
<trkpt lat="33.8103132" lon="-118.3938672">
  <ele>-0.13</ele>
  <time>2026-09-01T01:12:11Z</time>
  <course>186.23</course>
  <speed>0.022360679774997897</speed>
  <fix>3d</fix>
</trkpt>
<trkpt lat="33.810313" lon="-118.393867">
  <ele>-0.12</ele>
  <time>2026-09-01T01:12:11Z</time>
  <course>0.0</course>
  <speed>0.0</speed>
  <fix>3d</fix>
</trkpt>
<trkpt lat="33.8103132" lon="-118.3938672">
  <ele>-0.131</ele>
  <time>2026-09-01T01:12:11Z</time>
  <course>186.23</course>
  <speed>0.022360679774997897</speed>
  <fix>3d</fix>
</trkpt>
<trkpt lat="33.810313" lon="-118.393867">
  <ele>-0.12</ele>
  <time>2026-09-01T01:12:11Z</time>
  <course>0.0</course>
  <speed>0.0</speed>
  <fix>3d</fix>
</trkpt>
<trkpt lat="33.8103132" lon="-118.3938672">
  <ele>-0.131</ele>
  <time>2026-09-01T01:12:11Z</time>
  <course>186.23</course>
  <speed>0.022360679774997897</speed>
  <fix>3d</fix>
</trkpt>
<trkpt lat="33.810313" lon="-118.393867">
  <ele>-0.12</ele>
  <time>2026-09-01T01:12:11Z</time>
  <course>0.0</course>
  <speed>0.0</speed>
  <fix>3d</fix>
</trkpt>
<trkpt lat="33.8103132" lon="-118.3938672">
  <ele>-0.131</ele>
  <time>2026-09-01T01:12:11Z</time>
  <course>186.23</course>
  <speed>0.022360679774997897</speed>
  <fix>3d</fix>
</trkpt>
<trkpt lat="33.810313" lon="-118.393867">
  <ele>-0.12</ele>
  <time>2026-09-01T01:12:11Z</time>
  <course>0.0</course>
  <speed>0.0</speed>
  <fix>3d</fix>
</trkpt>
<trkpt lat="33.8103132" lon="-118.3938672">
  <ele>-0.131</ele>
  <time>2026-09-01T01:12:11Z</time>
  <course>186.23</course>
  <speed>0.022360679774997897</speed>
  <fix>3d</fix>
</trkpt>
<trkpt lat="33.810313" lon="-118.393867">
  <ele>-0.12</ele>
  <time>2026-09-01T01:12:11Z</time>
  <course>0.0</course>
  <speed>0.0</speed>
  <fix>3d</fix>
</trkpt>
<trkpt lat="33.8103132" lon="-118.3938672">
  <ele>-0.13</ele>
  <time>2026-09-01T01:12:11Z</time>
  <course>186.23</course>
  <speed>0.022360679774997897</speed>
  <fix>3d</fix>
</trkpt>
<trkpt lat="33.810313" lon="-118.393867">
  <ele>-0.12</ele>
  <time>2026-09-01T01:12:11Z</time>
  <course>0.0</course>
  <speed>0.0</speed>
  <fix>3d</fix>
</trkpt>
<trkpt lat="33.8103132" lon="-118.3938672">
  <ele>-0.129</ele>
  <time>2026-09-01T01:12:11Z</time>
  <course>186.23</course>
  <speed>0.022360679774997897</speed>
  <fix>3d</fix>
</trkpt>
<trkpt lat="33.810313" lon="-118.393867">
  <ele>-0.12</ele>
  <time>2026-09-01T01:12:11Z</time>
  <course>0.0</course>
  <speed>0.0</speed>
  <fix>3d</fix>
</trkpt>
<trkpt lat="33.8103132" lon="-118.3938672">
  <ele>-0.128</ele>
  <time>2026-09-01T01:12:11Z</time>
  <course>186.23</course>
  <speed>0.022360679774997897</speed>
  <fix>3d</fix>
</trkpt>
<trkpt lat="33.810313" lon="-118.393867">
  <ele>-0.12</ele>
  <time>2026-09-01T01:12:11Z</time>
  <course>0.0</course>
  <speed>0.0</speed>
  <fix>3d</fix>
</trkpt>
<trkpt lat="33.8103132" lon="-118.3938672">
  <ele>-0.129</ele>
  <time>2026-09-01T01:12:11Z</time>
  <course>186.23</course>
  <speed>0.022360679774997897</speed>
  <fix>3d</fix>
</trkpt>
<trkpt lat="33.810313" lon="-118.393867">
  <ele>-0.12</ele>
  <time>2026-09-01T01:12:11Z</time>
  <course>0.0</course>
  <speed>0.0</speed>
  <fix>3d</fix>
</trkpt>
<trkpt lat="33.8103132" lon="-118.3938671">
  <ele>-0.128</ele>
  <time>2026-09-01T01:12:11Z</time>
  <course>186.23</course>
  <speed>0.022360679774997897</speed>
  <fix>3d</fix>
</trkpt>
<trkpt lat="33.810313" lon="-118.393867">
  <ele>-0.12</ele>
  <time>2026-09-01T01:12:11Z</time>
  <course>0.0</course>
  <speed>0.0</speed>
  <fix>3d</fix>
</trkpt>
<trkpt lat="33.8103132" lon="-118.3938672">
  <ele>-0.128</ele>
  <time>2026-09-01T01:12:11Z</time>
  <course>186.23</course>
  <speed>0.022360679774997897</speed>
  <fix>3d</fix>
</trkpt>
<trkpt lat="33.810313" lon="-118.393867">
  <ele>-0.12</ele>
  <time>2026-09-01T01:12:11Z</time>
  <course>0.0</course>
  <speed>0.0</speed>
  <fix>3d</fix>
</trkpt>
<trkpt lat="33.8103132" lon="-118.3938671">
  <ele>-0.128</ele>
  <time>2026-09-01T01:12:11Z</time>
  <course>186.23</course>
  <speed>0.022360679774997897</speed>
  <fix>3d</fix>
</trkpt>
<trkpt lat="33.810313" lon="-118.393867">
  <ele>-0.12</ele>
  <time>2026-09-01T01:12:11Z</time>
  <course>0.0</course>
  <speed>0.0</speed>
  <fix>3d</fix>
</trkpt>
<trkpt lat="33.8103132" lon="-118.3938672">
  <ele>-0.128</ele>
  <time>2026-09-01T01:12:11Z</time>
  <course>186.23</course>
  <speed>0.022360679774997897</speed>
  <fix>3d</fix>
</trkpt>
<trkpt lat="33.810313" lon="-118.393867">
  <ele>-0.12</ele>
  <time>2026-09-01T01:12:11Z</time>
  <course>0.0</course>
  <speed>0.0</speed>
  <fix>3d</fix>
</trkpt>
<trkpt lat="33.8103132" lon="-118.3938671">
  <ele>-0.128</ele>
  <time>2026-09-01T01:12:11Z</time>
  <course>186.23</course>
  <speed>0.022360679774997897</speed>
  <fix>3d</fix>
</trkpt>
<trkpt lat="33.810313" lon="-118.393867">
  <ele>-0.12</ele>
  <time>2026-09-01T01:12:11Z</time>
  <course>0.0</course>
  <speed>0.0</speed>
  <fix>3d</fix>
</trkpt>
<trkpt lat="33.8103132" lon="-118.3938672">
  <ele>-0.129</ele>
  <time>2026-09-01T01:12:11Z</time>
  <course>186.23</course>
  <speed>0.022360679774997897</speed>
  <fix>3d</fix>
</trkpt>
<trkpt lat="33.810313" lon="-118.393867">
  <ele>-0.12</ele>
  <time>2026-09-01T01:12:11Z</time>
  <course>0.0</course>
  <speed>0.0</speed>
  <fix>3d</fix>
</trkpt>
<trkpt lat="33.8103132" lon="-118.3938671">
  <ele>-0.13</ele>
  <time>2026-09-01T01:12:11Z</time>
  <course>186.23</course>
  <speed>0.022360679774997897</speed>
  <fix>3d</fix>
</trkpt>
<trkpt lat="33.810313" lon="-118.393867">
  <ele>-0.12</ele>
  <time>2026-09-01T01:12:11Z</time>
  <course>0.0</course>
  <speed>0.0</speed>
  <fix>3d</fix>
</trkpt>
<trkpt lat="33.8103132" lon="-118.3938672">
  <ele>-0.13</ele>
  <time>2026-09-01T01:12:11Z</time>
  <course>186.23</course>
  <speed>0.022360679774997897</speed>
  <fix>3d</fix>
</trkpt>
<trkpt lat="33.810313" lon="-118.393867">
  <ele>-0.12</ele>
  <time>2026-09-01T01:12:11Z</time>
  <course>0.0</course>
  <speed>0.0</speed>
  <fix>3d</fix>
</trkpt>
<trkpt lat="33.8103132" lon="-118.3938671">
  <ele>-0.13</ele>
  <time>2026-09-01T01:12:11Z</time>
  <course>186.23</course>
  <speed>0.022360679774997897</speed>
  <fix>3d</fix>
</trkpt>
<trkpt lat="33.810313" lon="-118.393867">
  <ele>-0.12</ele>
  <time>2026-09-01T01:12:11Z</time>
  <course>0.0</course>
  <speed>0.0</speed>
  <fix>3d</fix>
</trkpt>
<trkpt lat="33.8103132" lon="-118.3938672">
  <ele>-0.131</ele>
  <time>2026-09-01T01:12:11Z</time>
  <course>186.23</course>
  <speed>0.022360679774997897</speed>
  <fix>3d</fix>
</trkpt>
<trkpt lat="33.810313" lon="-118.393867">
  <ele>-0.12</ele>
  <time>2026-09-01T01:12:11Z</time>
  <course>0.0</course>
  <speed>0.0</speed>
  <fix>3d</fix>
</trkpt>
<trkpt lat="33.8103132" lon="-118.3938671">
  <ele>-0.132</ele>
  <time>2026-09-01T01:12:11Z</time>
  <course>186.23</course>
  <speed>0.022360679774997897</speed>
  <fix>3d</fix>
</trkpt>
<trkpt lat="33.810313" lon="-118.393867">
  <ele>-0.12</ele>
  <time>2026-09-01T01:12:11Z</time>
  <course>0.0</course>
  <speed>0.0</speed>
  <fix>3d</fix>
</trkpt>
<trkpt lat="33.8103132" lon="-118.3938671">
  <ele>-0.133</ele>
  <time>2026-09-01T01:12:11Z</time>
  <course>186.23</course>
  <speed>0.022360679774997897</speed>
  <fix>3d</fix>
</trkpt>
<trkpt lat="33.810313" lon="-118.393867">
  <ele>-0.12</ele>
  <time>2026-09-01T01:12:11Z</time>
  <course>0.0</course>
  <speed>0.0</speed>
  <fix>3d</fix>
</trkpt>
<trkpt lat="33.8103132" lon="-118.3938671">
  <ele>-0.133</ele>
  <time>2026-09-01T01:12:11Z</time>
  <course>186.23</course>
  <speed>0.022360679774997897</speed>
  <fix>3d</fix>
</trkpt>
<trkpt lat="33.810313" lon="-118.393867">
  <ele>-0.12</ele>
  <time>2026-09-01T01:12:11Z</time>
  <course>0.0</course>
  <speed>0.0</speed>
  <fix>3d</fix>
</trkpt>
<trkpt lat="33.8103132" lon="-118.3938671">
  <ele>-0.132</ele>
  <time>2026-09-01T01:12:11Z</time>
  <course>186.23</course>
  <speed>0.022360679774997897</speed>
  <fix>3d</fix>
</trkpt>
<trkpt lat="33.810313" lon="-118.393867">
  <ele>-0.12</ele>
  <time>2026-09-01T01:12:11Z</time>
  <course>0.0</course>
  <speed>0.0</speed>
  <fix>3d</fix>
</trkpt>
<trkpt lat="33.8103132" lon="-118.3938671">
  <ele>-0.131</ele>
  <time>2026-09-01T01:12:11Z</time>
  <course>186.23</course>
  <speed>0.022360679774997897</speed>
  <fix>3d</fix>
</trkpt>
<trkpt lat="33.810313" lon="-118.393867">
  <ele>-0.12</ele>
  <time>2026-09-01T01:12:11Z</time>
  <course>0.0</course>
  <speed>0.0</speed>
  <fix>3d</fix>
</trkpt>
<trkpt lat="33.8103132" lon="-118.3938671">
  <ele>-0.13</ele>
  <time>2026-09-01T01:12:11Z</time>
  <course>186.23</course>
  <speed>0.022360679774997897</speed>
  <fix>3d</fix>
</trkpt>
<trkpt lat="33.810313" lon="-118.393867">
  <ele>-0.12</ele>
  <time>2026-09-01T01:12:11Z</time>
  <course>0.0</course>
  <speed>0.0</speed>
  <fix>3d</fix>
</trkpt>
<trkpt lat="33.8103132" lon="-118.3938671">
  <ele>-0.129</ele>
  <time>2026-09-01T01:12:11Z</time>
  <course>186.23</course>
  <speed>0.022360679774997897</speed>
  <fix>3d</fix>
</trkpt>
<trkpt lat="33.810313" lon="-118.393867">
  <ele>-0.12</ele>
  <time>2026-09-01T01:12:11Z</time>
  <course>0.0</course>
  <speed>0.0</speed>
  <fix>3d</fix>
</trkpt>
<trkpt lat="33.8103132" lon="-118.3938671">
  <ele>-0.13</ele>
  <time>2026-09-01T01:12:11Z</time>
  <course>186.23</course>
  <speed>0.022360679774997897</speed>
  <fix>3d</fix>
</trkpt>
<trkpt lat="33.810313" lon="-118.393867">
  <ele>-0.12</ele>
  <time>2026-09-01T01:12:11Z</time>
  <course>0.0</course>
  <speed>0.0</speed>
  <fix>3d</fix>
</trkpt>
<trkpt lat="33.8103132" lon="-118.3938671">
  <ele>-0.13</ele>
  <time>2026-09-01T01:12:11Z</time>
  <course>186.23</course>
  <speed>0.022360679774997897</speed>
  <fix>3d</fix>
</trkpt>
<trkpt lat="33.810313" lon="-118.393867">
  <ele>-0.12</ele>
  <time>2026-09-01T01:12:11Z</time>
  <course>0.0</course>
  <speed>0.0</speed>
  <fix>3d</fix>
</trkpt>
<trkpt lat="33.8103132" lon="-118.3938671">
  <ele>-0.13</ele>
  <time>2026-09-01T01:12:11Z</time>
  <course>186.23</course>
  <speed>0.022360679774997897</speed>
  <fix>3d</fix>
</trkpt>
<trkpt lat="33.810313" lon="-118.393867">
  <ele>-0.12</ele>
  <time>2026-09-01T01:12:11Z</time>
  <course>0.0</course>
  <speed>0.0</speed>
  <fix>3d</fix>
</trkpt>
<trkpt lat="33.8103132" lon="-118.3938671">
  <ele>-0.128</ele>
  <time>2026-09-01T01:12:11Z</time>
  <course>186.23</course>
  <speed>0.022360679774997897</speed>
  <fix>3d</fix>
</trkpt>
<trkpt lat="33.810313" lon="-118.393867">
  <ele>-0.12</ele>
  <time>2026-09-01T01:12:11Z</time>
  <course>0.0</course>
  <speed>0.0</speed>
  <fix>3d</fix>
</trkpt>
<trkpt lat="33.8103132" lon="-118.3938671">
  <ele>-0.127</ele>
  <time>2026-09-01T01:12:11Z</time>
  <course>186.22</course>
  <speed>0.022360679774997897</speed>
  <fix>3d</fix>
</trkpt>
<trkpt lat="33.810313" lon="-118.393867">
  <ele>-0.12</ele>
  <time>2026-09-01T01:12:11Z</time>
  <course>0.0</course>
  <speed>0.0</speed>
  <fix>3d</fix>
</trkpt>
<trkpt lat="33.8103132" lon="-118.3938671">
  <ele>-0.126</ele>
  <time>2026-09-01T01:12:11Z</time>
  <course>186.22</course>
  <speed>0.022360679774997897</speed>
  <fix>3d</fix>
</trkpt>
<trkpt lat="33.810313" lon="-118.393867">
  <ele>-0.12</ele>
  <time>2026-09-01T01:12:11Z</time>
  <course>0.0</course>
  <speed>0.0</speed>
  <fix>3d</fix>
</trkpt>
<trkpt lat="33.8103132" lon="-118.3938671">
  <ele>-0.125</ele>
  <time>2026-09-01T01:12:11Z</time>
  <course>186.22</course>
  <speed>0.022360679774997897</speed>
  <fix>3d</fix>
</trkpt>
<trkpt lat="33.810313" lon="-118.393867">
  <ele>-0.12</ele>
  <time>2026-09-01T01:12:11Z</time>
  <course>0.0</course>
  <speed>0.0</speed>
  <fix>3d</fix>
</trkpt>
<trkpt lat="33.8103132" lon="-118.3938671">
  <ele>-0.124</ele>
  <time>2026-09-01T01:12:11Z</time>
  <course>186.22</course>
  <speed>0.022360679774997897</speed>
  <fix>3d</fix>
</trkpt>
<trkpt lat="33.810313" lon="-118.393867">
  <ele>-0.12</ele>
  <time>2026-09-01T01:12:11Z</time>
  <course>0.0</course>
  <speed>0.0</speed>
  <fix>3d</fix>
</trkpt>
<trkpt lat="33.8103132" lon="-118.3938671">
  <ele>-0.123</ele>
  <time>2026-09-01T01:12:11Z</time>
  <course>186.22</course>
  <speed>0.022360679774997897</speed>
  <fix>3d</fix>
</trkpt>
<trkpt lat="33.810313" lon="-118.393867">
  <ele>-0.12</ele>
  <time>2026-09-01T01:12:11Z</time>
  <course>0.0</course>
  <speed>0.0</speed>
  <fix>3d</fix>
</trkpt>
<trkpt lat="33.8103132" lon="-118.3938671">
  <ele>-0.121</ele>
  <time>2026-09-01T01:12:11Z</time>
  <course>186.22</course>
  <speed>0.022360679774997897</speed>
  <fix>3d</fix>
</trkpt>
<trkpt lat="33.810313" lon="-118.393867">
  <ele>-0.12</ele>
  <time>2026-09-01T01:12:11Z</time>
  <course>0.0</course>
  <speed>0.0</speed>
  <fix>3d</fix>
</trkpt>
<trkpt lat="33.8103132" lon="-118.3938671">
  <ele>-0.119</ele>
  <time>2026-09-01T01:12:11Z</time>
  <course>186.22</course>
  <speed>0.022360679774997897</speed>
  <fix>3d</fix>
</trkpt>
<trkpt lat="33.810313" lon="-118.393867">
  <ele>-0.12</ele>
  <time>2026-09-01T01:12:11Z</time>
  <course>0.0</course>
  <speed>0.0</speed>
  <fix>3d</fix>
</trkpt>
<trkpt lat="33.8103132" lon="-118.3938671">
  <ele>-0.118</ele>
  <time>2026-09-01T01:12:11Z</time>
  <course>186.22</course>
  <speed>0.022360679774997897</speed>
  <fix>3d</fix>
</trkpt>
<trkpt lat="33.810313" lon="-118.393867">
  <ele>-0.12</ele>
  <time>2026-09-01T01:12:11Z</time>
  <course>0.0</course>
  <speed>0.0</speed>
  <fix>3d</fix>
</trkpt>
<trkpt lat="33.8103132" lon="-118.3938671">
  <ele>-0.119</ele>
  <time>2026-09-01T01:12:11Z</time>
  <course>186.22</course>
  <speed>0.022360679774997897</speed>
  <fix>3d</fix>
</trkpt>
<trkpt lat="33.810313" lon="-118.393867">
  <ele>-0.12</ele>
  <time>2026-09-01T01:12:11Z</time>
  <course>0.0</course>
  <speed>0.0</speed>
  <fix>3d</fix>
</trkpt>
<trkpt lat="33.8103132" lon="-118.3938671">
  <ele>-0.119</ele>
  <time>2026-09-01T01:12:11Z</time>
  <course>186.22</course>
  <speed>0.022360679774997897</speed>
  <fix>3d</fix>
</trkpt>
<trkpt lat="33.810313" lon="-118.393867">
  <ele>-0.12</ele>
  <time>2026-09-01T01:12:11Z</time>
  <course>0.0</course>
  <speed>0.0</speed>
  <fix>3d</fix>
</trkpt>
<trkpt lat="33.8103132" lon="-118.3938672">
  <ele>-0.12</ele>
  <time>2026-09-01T01:12:11Z</time>
  <course>186.22</course>
  <speed>0.022360679774997897</speed>
  <fix>3d</fix>
</trkpt>
<trkpt lat="33.810313" lon="-118.393867">
  <ele>-0.12</ele>
  <time>2026-09-01T01:12:11Z</time>
  <course>0.0</course>
  <speed>0.0</speed>
  <fix>3d</fix>
</trkpt>
<trkpt lat="33.8103132" lon="-118.3938672">
  <ele>-0.12</ele>
  <time>2026-09-01T01:12:11Z</time>
  <course>186.22</course>
  <speed>0.022360679774997897</speed>
  <fix>3d</fix>
</trkpt>
<trkpt lat="33.810313" lon="-118.393867">
  <ele>-0.12</ele>
  <time>2026-09-01T01:12:11Z</time>
  <course>0.0</course>
  <speed>0.0</speed>
  <fix>3d</fix>
</trkpt>
<trkpt lat="33.8103132" lon="-118.3938672">
  <ele>-0.12</ele>
  <time>2026-09-01T01:12:11Z</time>
  <course>186.22</course>
  <speed>0.022360679774997897</speed>
  <fix>3d</fix>
</trkpt>
<trkpt lat="33.810313" lon="-118.393867">
  <ele>-0.12</ele>
  <time>2026-09-01T01:12:11Z</time>
  <course>0.0</course>
  <speed>0.0</speed>
  <fix>3d</fix>
</trkpt>
<trkpt lat="33.8103132" lon="-118.3938672">
  <ele>-0.121</ele>
  <time>2026-09-01T01:12:11Z</time>
  <course>186.22</course>
  <speed>0.022360679774997897</speed>
  <fix>3d</fix>
</trkpt>
<trkpt lat="33.810313" lon="-118.393867">
  <ele>-0.12</ele>
  <time>2026-09-01T01:12:11Z</time>
  <course>0.0</course>
  <speed>0.0</speed>
  <fix>3d</fix>
</trkpt>
<trkpt lat="33.8103132" lon="-118.3938672">
  <ele>-0.121</ele>
  <time>2026-09-01T01:12:11Z</time>
  <course>186.22</course>
  <speed>0.022360679774997897</speed>
  <fix>3d</fix>
</trkpt>
<trkpt lat="33.810313" lon="-118.393867">
  <ele>-0.12</ele>
  <time>2026-09-01T01:12:11Z</time>
  <course>0.0</course>
  <speed>0.0</speed>
  <fix>3d</fix>
</trkpt>
<trkpt lat="33.8103132" lon="-118.3938672">
  <ele>-0.121</ele>
  <time>2026-09-01T01:12:11Z</time>
  <course>186.22</course>
  <speed>0.022360679774997897</speed>
  <fix>3d</fix>
</trkpt>
<trkpt lat="33.810313" lon="-118.393867">
  <ele>-0.12</ele>
  <time>2026-09-01T01:12:11Z</time>
  <course>0.0</course>
  <speed>0.0</speed>
  <fix>3d</fix>
</trkpt>
<trkpt lat="33.8103132" lon="-118.3938672">
  <ele>-0.122</ele>
  <time>2026-09-01T01:12:11Z</time>
  <course>186.22</course>
  <speed>0.022360679774997897</speed>
  <fix>3d</fix>
</trkpt>
<trkpt lat="33.810313" lon="-118.393867">
  <ele>-0.12</ele>
  <time>2026-09-01T01:12:11Z</time>
  <course>0.0</course>
  <speed>0.0</speed>
  <fix>3d</fix>
</trkpt>
<trkpt lat="33.8103132" lon="-118.3938672">
  <ele>-0.123</ele>
  <time>2026-09-01T01:12:11Z</time>
  <course>186.22</course>
  <speed>0.022360679774997897</speed>
  <fix>3d</fix>
</trkpt>
<trkpt lat="33.810313" lon="-118.393867">
  <ele>-0.12</ele>
  <time>2026-09-01T01:12:11Z</time>
  <course>0.0</course>
  <speed>0.0</speed>
  <fix>3d</fix>
</trkpt>
<trkpt lat="33.8103132" lon="-118.3938672">
  <ele>-0.123</ele>
  <time>2026-09-01T01:12:11Z</time>
  <course>186.22</course>
  <speed>0.022360679774997897</speed>
  <fix>3d</fix>
</trkpt>
<trkpt lat="33.810313" lon="-118.393867">
  <ele>-0.12</ele>
  <time>2026-09-01T01:12:11Z</time>
  <course>0.0</course>
  <speed>0.0</speed>
  <fix>3d</fix>
</trkpt>
<trkpt lat="33.8103132" lon="-118.3938672">
  <ele>-0.123</ele>
  <time>2026-09-01T01:12:11Z</time>
  <course>186.22</course>
  <speed>0.022360679774997897</speed>
  <fix>3d</fix>
</trkpt>
<trkpt lat="33.810313" lon="-118.393867">
  <ele>-0.12</ele>
  <time>2026-09-01T01:12:11Z</time>
  <course>0.0</course>
  <speed>0.0</speed>
  <fix>3d</fix>
</trkpt>
<trkpt lat="33.8103132" lon="-118.3938672">
  <ele>-0.122</ele>
  <time>2026-09-01T01:12:11Z</time>
  <course>186.22</course>
  <speed>0.022360679774997897</speed>
  <fix>3d</fix>
</trkpt>
<trkpt lat="33.810313" lon="-118.393867">
  <ele>-0.12</ele>
  <time>2026-09-01T01:12:11Z</time>
  <course>0.0</course>
  <speed>0.0</speed>
  <fix>3d</fix>
</trkpt>
<trkpt lat="33.8103132" lon="-118.3938672">
  <ele>-0.121</ele>
  <time>2026-09-01T01:12:11Z</time>
  <course>186.22</course>
  <speed>0.022360679774997897</speed>
  <fix>3d</fix>
</trkpt>
<trkpt lat="33.810313" lon="-118.393867">
  <ele>-0.12</ele>
  <time>2026-09-01T01:12:11Z</time>
  <course>0.0</course>
  <speed>0.0</speed>
  <fix>3d</fix>
</trkpt>
<trkpt lat="33.8103132" lon="-118.3938672">
  <ele>-0.12</ele>
  <time>2026-09-01T01:12:11Z</time>
  <course>186.22</course>
  <speed>0.022360679774997897</speed>
  <fix>3d</fix>
</trkpt>
<trkpt lat="33.810313" lon="-118.393867">
  <ele>-0.12</ele>
  <time>2026-09-01T01:12:11Z</time>
  <course>0.0</course>
  <speed>0.0</speed>
  <fix>3d</fix>
</trkpt>
<trkpt lat="33.8103132" lon="-118.3938672">
  <ele>-0.119</ele>
  <time>2026-09-01T01:12:11Z</time>
  <course>186.22</course>
  <speed>0.022360679774997897</speed>
  <fix>3d</fix>
</trkpt>
<trkpt lat="33.810313" lon="-118.393867">
  <ele>-0.12</ele>
  <time>2026-09-01T01:12:11Z</time>
  <course>0.0</course>
  <speed>0.0</speed>
  <fix>3d</fix>
</trkpt>
<trkpt lat="33.8103132" lon="-118.3938672">
  <ele>-0.118</ele>
  <time>2026-09-01T01:12:11Z</time>
  <course>186.22</course>
  <speed>0.022360679774997897</speed>
  <fix>3d</fix>
</trkpt>
<trkpt lat="33.810313" lon="-118.393867">
  <ele>-0.12</ele>
  <time>2026-09-01T01:12:11Z</time>
  <course>0.0</course>
  <speed>0.0</speed>
  <fix>3d</fix>
</trkpt>
<trkpt lat="33.8103132" lon="-118.3938672">
  <ele>-0.118</ele>
  <time>2026-09-01T01:12:11Z</time>
  <course>186.22</course>
  <speed>0.022360679774997897</speed>
  <fix>3d</fix>
</trkpt>
<trkpt lat="33.810313" lon="-118.393867">
  <ele>-0.12</ele>
  <time>2026-09-01T01:12:11Z</time>
  <course>0.0</course>
  <speed>0.0</speed>
  <fix>3d</fix>
</trkpt>
<trkpt lat="33.8103132" lon="-118.3938672">
  <ele>-0.118</ele>
  <time>2026-09-01T01:12:11Z</time>
  <course>186.22</course>
  <speed>0.022360679774997897</speed>
  <fix>3d</fix>
</trkpt>
<trkpt lat="33.810313" lon="-118.393867">
  <ele>-0.12</ele>
  <time>2026-09-01T01:12:11Z</time>
  <course>0.0</course>
  <speed>0.0</speed>
  <fix>3d</fix>
</trkpt>
<trkpt lat="33.8103132" lon="-118.3938672">
  <ele>-0.118</ele>
  <time>2026-09-01T01:12:11Z</time>
  <course>186.22</course>
  <speed>0.022360679774997897</speed>
  <fix>3d</fix>
</trkpt>
<trkpt lat="33.810313" lon="-118.393867">
  <ele>-0.12</ele>
  <time>2026-09-01T01:12:11Z</time>
  <course>0.0</course>
  <speed>0.0</speed>
  <fix>3d</fix>
</trkpt>
<trkpt lat="33.8103132" lon="-118.3938672">
  <ele>-0.12</ele>
  <time>2026-09-01T01:12:11Z</time>
  <course>186.22</course>
  <speed>0.022360679774997897</speed>
  <fix>3d</fix>
</trkpt>
<trkpt lat="33.810313" lon="-118.393867">
  <ele>-0.12</ele>
  <time>2026-09-01T01:12:11Z</time>
  <course>0.0</course>
  <speed>0.0</speed>
  <fix>3d</fix>
</trkpt>
<trkpt lat="33.8103132" lon="-118.3938672">
  <ele>-0.12</ele>
  <time>2026-09-01T01:12:11Z</time>
  <course>186.22</course>
  <speed>0.022360679774997897</speed>
  <fix>3d</fix>
</trkpt>
<trkpt lat="33.810313" lon="-118.393867">
  <ele>-0.12</ele>
  <time>2026-09-01T01:12:11Z</time>
  <course>0.0</course>
  <speed>0.0</speed>
  <fix>3d</fix>
</trkpt>
<trkpt lat="33.8103132" lon="-118.3938672">
  <ele>-0.122</ele>
  <time>2026-09-01T01:12:11Z</time>
  <course>186.22</course>
  <speed>0.022360679774997897</speed>
  <fix>3d</fix>
</trkpt>
<trkpt lat="33.810313" lon="-118.393867">
  <ele>-0.12</ele>
  <time>2026-09-01T01:12:11Z</time>
  <course>0.0</course>
  <speed>0.0</speed>
  <fix>3d</fix>
</trkpt>
<trkpt lat="33.8103132" lon="-118.3938672">
  <ele>-0.123</ele>
  <time>2026-09-01T01:12:11Z</time>
  <course>186.22</course>
  <speed>0.022360679774997897</speed>
  <fix>3d</fix>
</trkpt>
<trkpt lat="33.810313" lon="-118.393867">
  <ele>-0.12</ele>
  <time>2026-09-01T01:12:11Z</time>
  <course>0.0</course>
  <speed>0.0</speed>
  <fix>3d</fix>
</trkpt>
<trkpt lat="33.8103132" lon="-118.3938672">
  <ele>-0.125</ele>
  <time>2026-09-01T01:12:11Z</time>
  <course>186.22</course>
  <speed>0.022360679774997897</speed>
  <fix>3d</fix>
</trkpt>
<trkpt lat="33.810313" lon="-118.393867">
  <ele>-0.12</ele>
  <time>2026-09-01T01:12:11Z</time>
  <course>0.0</course>
  <speed>0.0</speed>
  <fix>3d</fix>
</trkpt>
<trkpt lat="33.8103132" lon="-118.3938672">
  <ele>-0.127</ele>
  <time>2026-09-01T01:12:11Z</time>
  <course>186.22</course>
  <speed>0.022360679774997897</speed>
  <fix>3d</fix>
</trkpt>
<trkpt lat="33.810313" lon="-118.393867">
  <ele>-0.12</ele>
  <time>2026-09-01T01:12:11Z</time>
  <course>0.0</course>
  <speed>0.0</speed>
  <fix>3d</fix>
</trkpt>
<trkpt lat="33.8103132" lon="-118.3938672">
  <ele>-0.129</ele>
  <time>2026-09-01T01:12:11Z</time>
  <course>186.22</course>
  <speed>0.022360679774997897</speed>
  <fix>3d</fix>
</trkpt>
<trkpt lat="33.810313" lon="-118.393867">
  <ele>-0.12</ele>
  <time>2026-09-01T01:12:11Z</time>
  <course>0.0</course>
  <speed>0.0</speed>
  <fix>3d</fix>
</trkpt>
<trkpt lat="33.8103132" lon="-118.3938672">
  <ele>-0.13</ele>
  <time>2026-09-01T01:12:11Z</time>
  <course>186.22</course>
  <speed>0.022360679774997897</speed>
  <fix>3d</fix>
</trkpt>
<trkpt lat="33.810313" lon="-118.393867">
  <ele>-0.12</ele>
  <time>2026-09-01T01:12:11Z</time>
  <course>0.0</course>
  <speed>0.0</speed>
  <fix>3d</fix>
</trkpt>
<trkpt lat="33.8103132" lon="-118.3938672">
  <ele>-0.13</ele>
  <time>2026-09-01T01:12:12Z</time>
  <course>186.22</course>
  <speed>0.022360679774997897</speed>
  <fix>3d</fix>
</trkpt>
<trkpt lat="33.810313" lon="-118.393867">
  <ele>-0.12</ele>
  <time>2026-09-01T01:12:12Z</time>
  <course>0.0</course>
  <speed>0.0</speed>
  <fix>3d</fix>
</trkpt>
<trkpt lat="33.8103132" lon="-118.3938672">
  <ele>-0.131</ele>
  <time>2026-09-01T01:12:12Z</time>
  <course>186.22</course>
  <speed>0.022360679774997897</speed>
  <fix>3d</fix>
</trkpt>
<trkpt lat="33.810313" lon="-118.393867">
  <ele>-0.12</ele>
  <time>2026-09-01T01:12:12Z</time>
  <course>0.0</course>
  <speed>0.0</speed>
  <fix>3d</fix>
</trkpt>
<trkpt lat="33.8103132" lon="-118.3938672">
  <ele>-0.13</ele>
  <time>2026-09-01T01:12:12Z</time>
  <course>186.22</course>
  <speed>0.022360679774997897</speed>
  <fix>3d</fix>
</trkpt>
<trkpt lat="33.810313" lon="-118.393867">
  <ele>-0.12</ele>
  <time>2026-09-01T01:12:12Z</time>
  <course>0.0</course>
  <speed>0.0</speed>
  <fix>3d</fix>
</trkpt>
<trkpt lat="33.8103132" lon="-118.3938672">
  <ele>-0.129</ele>
  <time>2026-09-01T01:12:12Z</time>
  <course>186.22</course>
  <speed>0.022360679774997897</speed>
  <fix>3d</fix>
</trkpt>
<trkpt lat="33.810313" lon="-118.393867">
  <ele>-0.12</ele>
  <time>2026-09-01T01:12:12Z</time>
  <course>0.0</course>
  <speed>0.0</speed>
  <fix>3d</fix>
</trkpt>
<trkpt lat="33.8103132" lon="-118.3938672">
  <ele>-0.127</ele>
  <time>2026-09-01T01:12:12Z</time>
  <course>186.22</course>
  <speed>0.022360679774997897</speed>
  <fix>3d</fix>
</trkpt>
<trkpt lat="33.810313" lon="-118.393867">
  <ele>-0.12</ele>
  <time>2026-09-01T01:12:12Z</time>
  <course>0.0</course>
  <speed>0.0</speed>
  <fix>3d</fix>
</trkpt>
<trkpt lat="33.8103132" lon="-118.3938672">
  <ele>-0.125</ele>
  <time>2026-09-01T01:12:12Z</time>
  <course>186.22</course>
  <speed>0.022360679774997897</speed>
  <fix>3d</fix>
</trkpt>
<trkpt lat="33.810313" lon="-118.393867">
  <ele>-0.12</ele>
  <time>2026-09-01T01:12:12Z</time>
  <course>0.0</course>
  <speed>0.0</speed>
  <fix>3d</fix>
</trkpt>
<trkpt lat="33.8103132" lon="-118.3938672">
  <ele>-0.124</ele>
  <time>2026-09-01T01:12:12Z</time>
  <course>186.22</course>
  <speed>0.022360679774997897</speed>
  <fix>3d</fix>
</trkpt>
<trkpt lat="33.810313" lon="-118.393867">
  <ele>-0.12</ele>
  <time>2026-09-01T01:12:12Z</time>
  <course>0.0</course>
  <speed>0.0</speed>
  <fix>3d</fix>
</trkpt>
<trkpt lat="33.8103132" lon="-118.3938672">
  <ele>-0.123</ele>
  <time>2026-09-01T01:12:12Z</time>
  <course>186.22</course>
  <speed>0.022360679774997897</speed>
  <fix>3d</fix>
</trkpt>
<trkpt lat="33.810313" lon="-118.393867">
  <ele>-0.12</ele>
  <time>2026-09-01T01:12:12Z</time>
  <course>0.0</course>
  <speed>0.0</speed>
  <fix>3d</fix>
</trkpt>
<trkpt lat="33.8103132" lon="-118.3938672">
  <ele>-0.122</ele>
  <time>2026-09-01T01:12:12Z</time>
  <course>186.22</course>
  <speed>0.022360679774997897</speed>
  <fix>3d</fix>
</trkpt>
<trkpt lat="33.810313" lon="-118.393867">
  <ele>-0.12</ele>
  <time>2026-09-01T01:12:12Z</time>
  <course>0.0</course>
  <speed>0.0</speed>
  <fix>3d</fix>
</trkpt>
<trkpt lat="33.8103132" lon="-118.3938672">
  <ele>-0.12</ele>
  <time>2026-09-01T01:12:12Z</time>
  <course>186.22</course>
  <speed>0.022360679774997897</speed>
  <fix>3d</fix>
</trkpt>
<trkpt lat="33.810313" lon="-118.393867">
  <ele>-0.12</ele>
  <time>2026-09-01T01:12:12Z</time>
  <course>0.0</course>
  <speed>0.0</speed>
  <fix>3d</fix>
</trkpt>
<trkpt lat="33.8103132" lon="-118.3938672">
  <ele>-0.118</ele>
  <time>2026-09-01T01:12:12Z</time>
  <course>186.22</course>
  <speed>0.022360679774997897</speed>
  <fix>3d</fix>
</trkpt>
<trkpt lat="33.810313" lon="-118.393867">
  <ele>-0.12</ele>
  <time>2026-09-01T01:12:12Z</time>
  <course>0.0</course>
  <speed>0.0</speed>
  <fix>3d</fix>
</trkpt>
<trkpt lat="33.8103132" lon="-118.3938672">
  <ele>-0.117</ele>
  <time>2026-09-01T01:12:12Z</time>
  <course>186.22</course>
  <speed>0.022360679774997897</speed>
  <fix>3d</fix>
</trkpt>
<trkpt lat="33.810313" lon="-118.393867">
  <ele>-0.12</ele>
  <time>2026-09-01T01:12:12Z</time>
  <course>0.0</course>
  <speed>0.0</speed>
  <fix>3d</fix>
</trkpt>
<trkpt lat="33.8103132" lon="-118.3938672">
  <ele>-0.117</ele>
  <time>2026-09-01T01:12:12Z</time>
  <course>186.22</course>
  <speed>0.022360679774997897</speed>
  <fix>3d</fix>
</trkpt>
<trkpt lat="33.810313" lon="-118.393867">
  <ele>-0.12</ele>
  <time>2026-09-01T01:12:12Z</time>
  <course>0.0</course>
  <speed>0.0</speed>
  <fix>3d</fix>
</trkpt>
<trkpt lat="33.8103132" lon="-118.3938672">
  <ele>-0.117</ele>
  <time>2026-09-01T01:12:12Z</time>
  <course>186.22</course>
  <speed>0.022360679774997897</speed>
  <fix>3d</fix>
</trkpt>
<trkpt lat="33.810313" lon="-118.393867">
  <ele>-0.12</ele>
  <time>2026-09-01T01:12:12Z</time>
  <course>0.0</course>
  <speed>0.0</speed>
  <fix>3d</fix>
</trkpt>
<trkpt lat="33.8103132" lon="-118.3938672">
  <ele>-0.116</ele>
  <time>2026-09-01T01:12:12Z</time>
  <course>186.22</course>
  <speed>0.022360679774997897</speed>
  <fix>3d</fix>
</trkpt>
<trkpt lat="33.810313" lon="-118.393867">
  <ele>-0.12</ele>
  <time>2026-09-01T01:12:12Z</time>
  <course>0.0</course>
  <speed>0.0</speed>
  <fix>3d</fix>
</trkpt>
<trkpt lat="33.8103132" lon="-118.3938672">
  <ele>-0.116</ele>
  <time>2026-09-01T01:12:12Z</time>
  <course>186.22</course>
  <speed>0.022360679774997897</speed>
  <fix>3d</fix>
</trkpt>
<trkpt lat="33.810313" lon="-118.393867">
  <ele>-0.12</ele>
  <time>2026-09-01T01:12:12Z</time>
  <course>0.0</course>
  <speed>0.0</speed>
  <fix>3d</fix>
</trkpt>
<trkpt lat="33.8103132" lon="-118.3938672">
  <ele>-0.115</ele>
  <time>2026-09-01T01:12:12Z</time>
  <course>186.22</course>
  <speed>0.022360679774997897</speed>
  <fix>3d</fix>
</trkpt>
<trkpt lat="33.810313" lon="-118.393867">
  <ele>-0.12</ele>
  <time>2026-09-01T01:12:12Z</time>
  <course>0.0</course>
  <speed>0.0</speed>
  <fix>3d</fix>
</trkpt>
<trkpt lat="33.8103132" lon="-118.3938672">
  <ele>-0.115</ele>
  <time>2026-09-01T01:12:12Z</time>
  <course>186.22</course>
  <speed>0.022360679774997897</speed>
  <fix>3d</fix>
</trkpt>
<trkpt lat="33.810313" lon="-118.393867">
  <ele>-0.12</ele>
  <time>2026-09-01T01:12:12Z</time>
  <course>0.0</course>
  <speed>0.0</speed>
  <fix>3d</fix>
</trkpt>
<trkpt lat="33.8103132" lon="-118.3938672">
  <ele>-0.115</ele>
  <time>2026-09-01T01:12:12Z</time>
  <course>186.22</course>
  <speed>0.022360679774997897</speed>
  <fix>3d</fix>
</trkpt>
<trkpt lat="33.810313" lon="-118.393867">
  <ele>-0.12</ele>
  <time>2026-09-01T01:12:12Z</time>
  <course>0.0</course>
  <speed>0.0</speed>
  <fix>3d</fix>
</trkpt>
<trkpt lat="33.8103132" lon="-118.3938672">
  <ele>-0.116</ele>
  <time>2026-09-01T01:12:12Z</time>
  <course>186.22</course>
  <speed>0.022360679774997897</speed>
  <fix>3d</fix>
</trkpt>
<trkpt lat="33.810313" lon="-118.393867">
  <ele>-0.12</ele>
  <time>2026-09-01T01:12:12Z</time>
  <course>0.0</course>
  <speed>0.0</speed>
  <fix>3d</fix>
</trkpt>
<trkpt lat="33.8103132" lon="-118.3938672">
  <ele>-0.118</ele>
  <time>2026-09-01T01:12:12Z</time>
  <course>186.22</course>
  <speed>0.022360679774997897</speed>
  <fix>3d</fix>
</trkpt>
<trkpt lat="33.810313" lon="-118.393867">
  <ele>-0.12</ele>
  <time>2026-09-01T01:12:12Z</time>
  <course>0.0</course>
  <speed>0.0</speed>
  <fix>3d</fix>
</trkpt>
<trkpt lat="33.8103132" lon="-118.3938672">
  <ele>-0.119</ele>
  <time>2026-09-01T01:12:12Z</time>
  <course>186.21</course>
  <speed>0.022360679774997897</speed>
  <fix>3d</fix>
</trkpt>
<trkpt lat="33.810313" lon="-118.393867">
  <ele>-0.12</ele>
  <time>2026-09-01T01:12:12Z</time>
  <course>0.0</course>
  <speed>0.0</speed>
  <fix>3d</fix>
</trkpt>
<trkpt lat="33.8103132" lon="-118.3938672">
  <ele>-0.12</ele>
  <time>2026-09-01T01:12:12Z</time>
  <course>186.21</course>
  <speed>0.022360679774997897</speed>
  <fix>3d</fix>
</trkpt>
<trkpt lat="33.810313" lon="-118.393867">
  <ele>-0.12</ele>
  <time>2026-09-01T01:12:12Z</time>
  <course>0.0</course>
  <speed>0.0</speed>
  <fix>3d</fix>
</trkpt>
<trkpt lat="33.8103132" lon="-118.3938672">
  <ele>-0.121</ele>
  <time>2026-09-01T01:12:12Z</time>
  <course>186.21</course>
  <speed>0.022360679774997897</speed>
  <fix>3d</fix>
</trkpt>
<trkpt lat="33.810313" lon="-118.393867">
  <ele>-0.12</ele>
  <time>2026-09-01T01:12:12Z</time>
  <course>0.0</course>
  <speed>0.0</speed>
  <fix>3d</fix>
</trkpt>
<trkpt lat="33.8103132" lon="-118.3938672">
  <ele>-0.122</ele>
  <time>2026-09-01T01:12:12Z</time>
  <course>186.21</course>
  <speed>0.022360679774997897</speed>
  <fix>3d</fix>
</trkpt>
<trkpt lat="33.810313" lon="-118.393867">
  <ele>-0.12</ele>
  <time>2026-09-01T01:12:12Z</time>
  <course>0.0</course>
  <speed>0.0</speed>
  <fix>3d</fix>
</trkpt>
<trkpt lat="33.8103132" lon="-118.3938672">
  <ele>-0.123</ele>
  <time>2026-09-01T01:12:12Z</time>
  <course>186.21</course>
  <speed>0.022360679774997897</speed>
  <fix>3d</fix>
</trkpt>
<trkpt lat="33.810313" lon="-118.393867">
  <ele>-0.12</ele>
  <time>2026-09-01T01:12:12Z</time>
  <course>0.0</course>
  <speed>0.0</speed>
  <fix>3d</fix>
</trkpt>
<trkpt lat="33.8103132" lon="-118.3938672">
  <ele>-0.125</ele>
  <time>2026-09-01T01:12:12Z</time>
  <course>186.21</course>
  <speed>0.022360679774997897</speed>
  <fix>3d</fix>
</trkpt>
<trkpt lat="33.810313" lon="-118.393867">
  <ele>-0.12</ele>
  <time>2026-09-01T01:12:12Z</time>
  <course>0.0</course>
  <speed>0.0</speed>
  <fix>3d</fix>
</trkpt>
<trkpt lat="33.8103132" lon="-118.3938672">
  <ele>-0.127</ele>
  <time>2026-09-01T01:12:12Z</time>
  <course>186.21</course>
  <speed>0.022360679774997897</speed>
  <fix>3d</fix>
</trkpt>
<trkpt lat="33.810313" lon="-118.393867">
  <ele>-0.12</ele>
  <time>2026-09-01T01:12:12Z</time>
  <course>0.0</course>
  <speed>0.0</speed>
  <fix>3d</fix>
</trkpt>
<trkpt lat="33.8103132" lon="-118.3938672">
  <ele>-0.128</ele>
  <time>2026-09-01T01:12:12Z</time>
  <course>186.21</course>
  <speed>0.022360679774997897</speed>
  <fix>3d</fix>
</trkpt>
<trkpt lat="33.810313" lon="-118.393867">
  <ele>-0.12</ele>
  <time>2026-09-01T01:12:12Z</time>
  <course>0.0</course>
  <speed>0.0</speed>
  <fix>3d</fix>
</trkpt>
<trkpt lat="33.8103132" lon="-118.3938672">
  <ele>-0.13</ele>
  <time>2026-09-01T01:12:12Z</time>
  <course>186.21</course>
  <speed>0.022360679774997897</speed>
  <fix>3d</fix>
</trkpt>
<trkpt lat="33.810313" lon="-118.393867">
  <ele>-0.12</ele>
  <time>2026-09-01T01:12:12Z</time>
  <course>0.0</course>
  <speed>0.0</speed>
  <fix>3d</fix>
</trkpt>
<trkpt lat="33.8103132" lon="-118.3938672">
  <ele>-0.133</ele>
  <time>2026-09-01T01:12:12Z</time>
  <course>186.21</course>
  <speed>0.022360679774997897</speed>
  <fix>3d</fix>
</trkpt>
<trkpt lat="33.810313" lon="-118.393867">
  <ele>-0.12</ele>
  <time>2026-09-01T01:12:12Z</time>
  <course>0.0</course>
  <speed>0.0</speed>
  <fix>3d</fix>
</trkpt>
<trkpt lat="33.8103132" lon="-118.3938672">
  <ele>-0.135</ele>
  <time>2026-09-01T01:12:12Z</time>
  <course>186.21</course>
  <speed>0.022360679774997897</speed>
  <fix>3d</fix>
</trkpt>
<trkpt lat="33.810313" lon="-118.393867">
  <ele>-0.12</ele>
  <time>2026-09-01T01:12:12Z</time>
  <course>0.0</course>
  <speed>0.0</speed>
  <fix>3d</fix>
</trkpt>
<trkpt lat="33.8103132" lon="-118.3938672">
  <ele>-0.138</ele>
  <time>2026-09-01T01:12:12Z</time>
  <course>186.21</course>
  <speed>0.022360679774997897</speed>
  <fix>3d</fix>
</trkpt>
<trkpt lat="33.810313" lon="-118.393867">
  <ele>-0.12</ele>
  <time>2026-09-01T01:12:12Z</time>
  <course>0.0</course>
  <speed>0.0</speed>
  <fix>3d</fix>
</trkpt>
<trkpt lat="33.8103132" lon="-118.3938672">
  <ele>-0.14</ele>
  <time>2026-09-01T01:12:12Z</time>
  <course>186.21</course>
  <speed>0.022360679774997897</speed>
  <fix>3d</fix>
</trkpt>
<trkpt lat="33.810313" lon="-118.393867">
  <ele>-0.12</ele>
  <time>2026-09-01T01:12:12Z</time>
  <course>0.0</course>
  <speed>0.0</speed>
  <fix>3d</fix>
</trkpt>
<trkpt lat="33.8103132" lon="-118.3938672">
  <ele>-0.141</ele>
  <time>2026-09-01T01:12:12Z</time>
  <course>186.21</course>
  <speed>0.022360679774997897</speed>
  <fix>3d</fix>
</trkpt>
<trkpt lat="33.810313" lon="-118.393867">
  <ele>-0.12</ele>
  <time>2026-09-01T01:12:12Z</time>
  <course>0.0</course>
  <speed>0.0</speed>
  <fix>3d</fix>
</trkpt>
<trkpt lat="33.8103132" lon="-118.3938672">
  <ele>-0.141</ele>
  <time>2026-09-01T01:12:12Z</time>
  <course>186.21</course>
  <speed>0.022360679774997897</speed>
  <fix>3d</fix>
</trkpt>
<trkpt lat="33.810313" lon="-118.393867">
  <ele>-0.12</ele>
  <time>2026-09-01T01:12:12Z</time>
  <course>0.0</course>
  <speed>0.0</speed>
  <fix>3d</fix>
</trkpt>
<trkpt lat="33.8103132" lon="-118.3938672">
  <ele>-0.141</ele>
  <time>2026-09-01T01:12:12Z</time>
  <course>186.21</course>
  <speed>0.022360679774997897</speed>
  <fix>3d</fix>
</trkpt>
<trkpt lat="33.810313" lon="-118.393867">
  <ele>-0.12</ele>
  <time>2026-09-01T01:12:12Z</time>
  <course>0.0</course>
  <speed>0.0</speed>
  <fix>3d</fix>
</trkpt>
<trkpt lat="33.8103132" lon="-118.3938672">
  <ele>-0.141</ele>
  <time>2026-09-01T01:12:12Z</time>
  <course>186.21</course>
  <speed>0.022360679774997897</speed>
  <fix>3d</fix>
</trkpt>
<trkpt lat="33.810313" lon="-118.393867">
  <ele>-0.12</ele>
  <time>2026-09-01T01:12:12Z</time>
  <course>0.0</course>
  <speed>0.0</speed>
  <fix>3d</fix>
</trkpt>
<trkpt lat="33.8103132" lon="-118.3938672">
  <ele>-0.139</ele>
  <time>2026-09-01T01:12:12Z</time>
  <course>186.21</course>
  <speed>0.022360679774997897</speed>
  <fix>3d</fix>
</trkpt>
<trkpt lat="33.810313" lon="-118.393867">
  <ele>-0.12</ele>
  <time>2026-09-01T01:12:12Z</time>
  <course>0.0</course>
  <speed>0.0</speed>
  <fix>3d</fix>
</trkpt>
<trkpt lat="33.8103132" lon="-118.3938672">
  <ele>-0.138</ele>
  <time>2026-09-01T01:12:12Z</time>
  <course>186.21</course>
  <speed>0.022360679774997897</speed>
  <fix>3d</fix>
</trkpt>
<trkpt lat="33.810313" lon="-118.393867">
  <ele>-0.12</ele>
  <time>2026-09-01T01:12:12Z</time>
  <course>0.0</course>
  <speed>0.0</speed>
  <fix>3d</fix>
</trkpt>
<trkpt lat="33.8103132" lon="-118.3938672">
  <ele>-0.137</ele>
  <time>2026-09-01T01:12:12Z</time>
  <course>186.21</course>
  <speed>0.022360679774997897</speed>
  <fix>3d</fix>
</trkpt>
<trkpt lat="33.810313" lon="-118.393867">
  <ele>-0.12</ele>
  <time>2026-09-01T01:12:12Z</time>
  <course>0.0</course>
  <speed>0.0</speed>
  <fix>3d</fix>
</trkpt>
<trkpt lat="33.8103132" lon="-118.3938672">
  <ele>-0.136</ele>
  <time>2026-09-01T01:12:12Z</time>
  <course>186.21</course>
  <speed>0.022360679774997897</speed>
  <fix>3d</fix>
</trkpt>
<trkpt lat="33.810313" lon="-118.393867">
  <ele>-0.12</ele>
  <time>2026-09-01T01:12:12Z</time>
  <course>0.0</course>
  <speed>0.0</speed>
  <fix>3d</fix>
</trkpt>
<trkpt lat="33.8103132" lon="-118.3938672">
  <ele>-0.137</ele>
  <time>2026-09-01T01:12:12Z</time>
  <course>186.21</course>
  <speed>0.022360679774997897</speed>
  <fix>3d</fix>
</trkpt>
<trkpt lat="33.810313" lon="-118.393867">
  <ele>-0.12</ele>
  <time>2026-09-01T01:12:12Z</time>
  <course>0.0</course>
  <speed>0.0</speed>
  <fix>3d</fix>
</trkpt>
<trkpt lat="33.8103132" lon="-118.3938672">
  <ele>-0.137</ele>
  <time>2026-09-01T01:12:12Z</time>
  <course>186.21</course>
  <speed>0.022360679774997897</speed>
  <fix>3d</fix>
</trkpt>
<trkpt lat="33.810313" lon="-118.393867">
  <ele>-0.12</ele>
  <time>2026-09-01T01:12:12Z</time>
  <course>0.0</course>
  <speed>0.0</speed>
  <fix>3d</fix>
</trkpt>
<trkpt lat="33.8103132" lon="-118.3938672">
  <ele>-0.137</ele>
  <time>2026-09-01T01:12:12Z</time>
  <course>186.21</course>
  <speed>0.022360679774997897</speed>
  <fix>3d</fix>
</trkpt>
<trkpt lat="33.810313" lon="-118.393867">
  <ele>-0.12</ele>
  <time>2026-09-01T01:12:12Z</time>
  <course>0.0</course>
  <speed>0.0</speed>
  <fix>3d</fix>
</trkpt>
<trkpt lat="33.8103132" lon="-118.3938672">
  <ele>-0.138</ele>
  <time>2026-09-01T01:12:12Z</time>
  <course>186.21</course>
  <speed>0.022360679774997897</speed>
  <fix>3d</fix>
</trkpt>
<trkpt lat="33.810313" lon="-118.393867">
  <ele>-0.12</ele>
  <time>2026-09-01T01:12:12Z</time>
  <course>0.0</course>
  <speed>0.0</speed>
  <fix>3d</fix>
</trkpt>
<trkpt lat="33.8103132" lon="-118.3938672">
  <ele>-0.137</ele>
  <time>2026-09-01T01:12:12Z</time>
  <course>186.21</course>
  <speed>0.022360679774997897</speed>
  <fix>3d</fix>
</trkpt>
<trkpt lat="33.810313" lon="-118.393867">
  <ele>-0.12</ele>
  <time>2026-09-01T01:12:12Z</time>
  <course>0.0</course>
  <speed>0.0</speed>
  <fix>3d</fix>
</trkpt>
<trkpt lat="33.8103132" lon="-118.3938672">
  <ele>-0.135</ele>
  <time>2026-09-01T01:12:12Z</time>
  <course>186.21</course>
  <speed>0.022360679774997897</speed>
  <fix>3d</fix>
</trkpt>
<trkpt lat="33.810313" lon="-118.393867">
  <ele>-0.12</ele>
  <time>2026-09-01T01:12:12Z</time>
  <course>0.0</course>
  <speed>0.0</speed>
  <fix>3d</fix>
</trkpt>
<trkpt lat="33.8103132" lon="-118.3938672">
  <ele>-0.132</ele>
  <time>2026-09-01T01:12:12Z</time>
  <course>186.21</course>
  <speed>0.0282842712474619</speed>
  <fix>3d</fix>
</trkpt>
<trkpt lat="33.810313" lon="-118.393867">
  <ele>-0.12</ele>
  <time>2026-09-01T01:12:12Z</time>
  <course>0.0</course>
  <speed>0.0</speed>
  <fix>3d</fix>
</trkpt>
<trkpt lat="33.8103132" lon="-118.3938672">
  <ele>-0.131</ele>
  <time>2026-09-01T01:12:12Z</time>
  <course>186.21</course>
  <speed>0.022360679774997897</speed>
  <fix>3d</fix>
</trkpt>
<trkpt lat="33.810313" lon="-118.393867">
  <ele>-0.12</ele>
  <time>2026-09-01T01:12:12Z</time>
  <course>0.0</course>
  <speed>0.0</speed>
  <fix>3d</fix>
</trkpt>
<trkpt lat="33.8103132" lon="-118.3938672">
  <ele>-0.13</ele>
  <time>2026-09-01T01:12:12Z</time>
  <course>186.21</course>
  <speed>0.022360679774997897</speed>
  <fix>3d</fix>
</trkpt>
<trkpt lat="33.810313" lon="-118.393867">
  <ele>-0.12</ele>
  <time>2026-09-01T01:12:12Z</time>
  <course>0.0</course>
  <speed>0.0</speed>
  <fix>3d</fix>
</trkpt>
<trkpt lat="33.8103132" lon="-118.3938672">
  <ele>-0.128</ele>
  <time>2026-09-01T01:12:12Z</time>
  <course>186.21</course>
  <speed>0.022360679774997897</speed>
  <fix>3d</fix>
</trkpt>
<trkpt lat="33.810313" lon="-118.393867">
  <ele>-0.12</ele>
  <time>2026-09-01T01:12:12Z</time>
  <course>0.0</course>
  <speed>0.0</speed>
  <fix>3d</fix>
</trkpt>
<trkpt lat="33.8103132" lon="-118.3938672">
  <ele>-0.127</ele>
  <time>2026-09-01T01:12:12Z</time>
  <course>186.21</course>
  <speed>0.022360679774997897</speed>
  <fix>3d</fix>
</trkpt>
<trkpt lat="33.810313" lon="-118.393867">
  <ele>-0.12</ele>
  <time>2026-09-01T01:12:12Z</time>
  <course>0.0</course>
  <speed>0.0</speed>
  <fix>3d</fix>
</trkpt>
<trkpt lat="33.8103132" lon="-118.3938672">
  <ele>-0.127</ele>
  <time>2026-09-01T01:12:12Z</time>
  <course>186.21</course>
  <speed>0.022360679774997897</speed>
  <fix>3d</fix>
</trkpt>
<trkpt lat="33.810313" lon="-118.393867">
  <ele>-0.12</ele>
  <time>2026-09-01T01:12:12Z</time>
  <course>0.0</course>
  <speed>0.0</speed>
  <fix>3d</fix>
</trkpt>
<trkpt lat="33.8103132" lon="-118.3938672">
  <ele>-0.126</ele>
  <time>2026-09-01T01:12:12Z</time>
  <course>186.21</course>
  <speed>0.022360679774997897</speed>
  <fix>3d</fix>
</trkpt>
<trkpt lat="33.810313" lon="-118.393867">
  <ele>-0.12</ele>
  <time>2026-09-01T01:12:12Z</time>
  <course>0.0</course>
  <speed>0.0</speed>
  <fix>3d</fix>
</trkpt>
<trkpt lat="33.8103132" lon="-118.3938672">
  <ele>-0.127</ele>
  <time>2026-09-01T01:12:12Z</time>
  <course>186.21</course>
  <speed>0.022360679774997897</speed>
  <fix>3d</fix>
</trkpt>
<trkpt lat="33.810313" lon="-118.393867">
  <ele>-0.12</ele>
  <time>2026-09-01T01:12:12Z</time>
  <course>0.0</course>
  <speed>0.0</speed>
  <fix>3d</fix>
</trkpt>
<trkpt lat="33.8103132" lon="-118.3938672">
  <ele>-0.126</ele>
  <time>2026-09-01T01:12:12Z</time>
  <course>186.21</course>
  <speed>0.022360679774997897</speed>
  <fix>3d</fix>
</trkpt>
<trkpt lat="33.810313" lon="-118.393867">
  <ele>-0.12</ele>
  <time>2026-09-01T01:12:12Z</time>
  <course>0.0</course>
  <speed>0.0</speed>
  <fix>3d</fix>
</trkpt>
<trkpt lat="33.8103132" lon="-118.3938672">
  <ele>-0.126</ele>
  <time>2026-09-01T01:12:12Z</time>
  <course>186.21</course>
  <speed>0.022360679774997897</speed>
  <fix>3d</fix>
</trkpt>
<trkpt lat="33.810313" lon="-118.393867">
  <ele>-0.12</ele>
  <time>2026-09-01T01:12:12Z</time>
  <course>0.0</course>
  <speed>0.0</speed>
  <fix>3d</fix>
</trkpt>
<trkpt lat="33.8103132" lon="-118.3938672">
  <ele>-0.125</ele>
  <time>2026-09-01T01:12:12Z</time>
  <course>186.21</course>
  <speed>0.0282842712474619</speed>
  <fix>3d</fix>
</trkpt>
<trkpt lat="33.810313" lon="-118.393867">
  <ele>-0.12</ele>
  <time>2026-09-01T01:12:12Z</time>
  <course>0.0</course>
  <speed>0.0</speed>
  <fix>3d</fix>
</trkpt>
<trkpt lat="33.8103132" lon="-118.3938672">
  <ele>-0.125</ele>
  <time>2026-09-01T01:12:12Z</time>
  <course>186.21</course>
  <speed>0.0282842712474619</speed>
  <fix>3d</fix>
</trkpt>
<trkpt lat="33.810313" lon="-118.393867">
  <ele>-0.12</ele>
  <time>2026-09-01T01:12:12Z</time>
  <course>0.0</course>
  <speed>0.0</speed>
  <fix>3d</fix>
</trkpt>
<trkpt lat="33.8103132" lon="-118.3938672">
  <ele>-0.124</ele>
  <time>2026-09-01T01:12:12Z</time>
  <course>186.21</course>
  <speed>0.0282842712474619</speed>
  <fix>3d</fix>
</trkpt>
<trkpt lat="33.810313" lon="-118.393867">
  <ele>-0.12</ele>
  <time>2026-09-01T01:12:12Z</time>
  <course>0.0</course>
  <speed>0.0</speed>
  <fix>3d</fix>
</trkpt>
<trkpt lat="33.8103132" lon="-118.3938672">
  <ele>-0.123</ele>
  <time>2026-09-01T01:12:12Z</time>
  <course>186.21</course>
  <speed>0.0282842712474619</speed>
  <fix>3d</fix>
</trkpt>
<trkpt lat="33.810313" lon="-118.393867">
  <ele>-0.12</ele>
  <time>2026-09-01T01:12:12Z</time>
  <course>0.0</course>
  <speed>0.0</speed>
  <fix>3d</fix>
</trkpt>
<trkpt lat="33.8103132" lon="-118.3938672">
  <ele>-0.123</ele>
  <time>2026-09-01T01:12:12Z</time>
  <course>186.21</course>
  <speed>0.0282842712474619</speed>
  <fix>3d</fix>
</trkpt>
<trkpt lat="33.810313" lon="-118.393867">
  <ele>-0.12</ele>
  <time>2026-09-01T01:12:12Z</time>
  <course>0.0</course>
  <speed>0.0</speed>
  <fix>3d</fix>
</trkpt>
<trkpt lat="33.8103132" lon="-118.3938672">
  <ele>-0.125</ele>
  <time>2026-09-01T01:12:12Z</time>
  <course>186.21</course>
  <speed>0.0282842712474619</speed>
  <fix>3d</fix>
</trkpt>
<trkpt lat="33.810313" lon="-118.393867">
  <ele>-0.12</ele>
  <time>2026-09-01T01:12:12Z</time>
  <course>0.0</course>
  <speed>0.0</speed>
  <fix>3d</fix>
</trkpt>
<trkpt lat="33.8103132" lon="-118.3938672">
  <ele>-0.126</ele>
  <time>2026-09-01T01:12:12Z</time>
  <course>186.21</course>
  <speed>0.0282842712474619</speed>
  <fix>3d</fix>
</trkpt>
<trkpt lat="33.810313" lon="-118.393867">
  <ele>-0.12</ele>
  <time>2026-09-01T01:12:12Z</time>
  <course>0.0</course>
  <speed>0.0</speed>
  <fix>3d</fix>
</trkpt>
<trkpt lat="33.8103132" lon="-118.3938672">
  <ele>-0.128</ele>
  <time>2026-09-01T01:12:12Z</time>
  <course>186.21</course>
  <speed>0.0282842712474619</speed>
  <fix>3d</fix>
</trkpt>
<trkpt lat="33.810313" lon="-118.393867">
  <ele>-0.12</ele>
  <time>2026-09-01T01:12:12Z</time>
  <course>0.0</course>
  <speed>0.0</speed>
  <fix>3d</fix>
</trkpt>
<trkpt lat="33.8103132" lon="-118.3938672">
  <ele>-0.128</ele>
  <time>2026-09-01T01:12:12Z</time>
  <course>186.21</course>
  <speed>0.0282842712474619</speed>
  <fix>3d</fix>
</trkpt>
<trkpt lat="33.810313" lon="-118.393867">
  <ele>-0.12</ele>
  <time>2026-09-01T01:12:12Z</time>
  <course>0.0</course>
  <speed>0.0</speed>
  <fix>3d</fix>
</trkpt>
<trkpt lat="33.8103132" lon="-118.3938672">
  <ele>-0.127</ele>
  <time>2026-09-01T01:12:12Z</time>
  <course>186.21</course>
  <speed>0.0282842712474619</speed>
  <fix>3d</fix>
</trkpt>
<trkpt lat="33.810313" lon="-118.393867">
  <ele>-0.12</ele>
  <time>2026-09-01T01:12:12Z</time>
  <course>0.0</course>
  <speed>0.0</speed>
  <fix>3d</fix>
</trkpt>
<trkpt lat="33.8103132" lon="-118.3938672">
  <ele>-0.125</ele>
  <time>2026-09-01T01:12:12Z</time>
  <course>186.21</course>
  <speed>0.0282842712474619</speed>
  <fix>3d</fix>
</trkpt>
<trkpt lat="33.810313" lon="-118.393867">
  <ele>-0.12</ele>
  <time>2026-09-01T01:12:12Z</time>
  <course>0.0</course>
  <speed>0.0</speed>
  <fix>3d</fix>
</trkpt>
<trkpt lat="33.8103132" lon="-118.3938672">
  <ele>-0.123</ele>
  <time>2026-09-01T01:12:12Z</time>
  <course>186.21</course>
  <speed>0.0282842712474619</speed>
  <fix>3d</fix>
</trkpt>
<trkpt lat="33.810313" lon="-118.393867">
  <ele>-0.12</ele>
  <time>2026-09-01T01:12:12Z</time>
  <course>0.0</course>
  <speed>0.0</speed>
  <fix>3d</fix>
</trkpt>
<trkpt lat="33.8103132" lon="-118.3938672">
  <ele>-0.122</ele>
  <time>2026-09-01T01:12:12Z</time>
  <course>186.21</course>
  <speed>0.0282842712474619</speed>
  <fix>3d</fix>
</trkpt>
<trkpt lat="33.810313" lon="-118.393867">
  <ele>-0.12</ele>
  <time>2026-09-01T01:12:12Z</time>
  <course>0.0</course>
  <speed>0.0</speed>
  <fix>3d</fix>
</trkpt>
<trkpt lat="33.8103132" lon="-118.3938672">
  <ele>-0.121</ele>
  <time>2026-09-01T01:12:12Z</time>
  <course>186.21</course>
  <speed>0.0282842712474619</speed>
  <fix>3d</fix>
</trkpt>
<trkpt lat="33.810313" lon="-118.393867">
  <ele>-0.12</ele>
  <time>2026-09-01T01:12:12Z</time>
  <course>0.0</course>
  <speed>0.0</speed>
  <fix>3d</fix>
</trkpt>
<trkpt lat="33.8103132" lon="-118.3938672">
  <ele>-0.12</ele>
  <time>2026-09-01T01:12:12Z</time>
  <course>186.21</course>
  <speed>0.0282842712474619</speed>
  <fix>3d</fix>
</trkpt>
<trkpt lat="33.810313" lon="-118.393867">
  <ele>-0.12</ele>
  <time>2026-09-01T01:12:12Z</time>
  <course>0.0</course>
  <speed>0.0</speed>
  <fix>3d</fix>
</trkpt>
<trkpt lat="33.8103132" lon="-118.3938672">
  <ele>-0.121</ele>
  <time>2026-09-01T01:12:12Z</time>
  <course>186.21</course>
  <speed>0.0282842712474619</speed>
  <fix>3d</fix>
</trkpt>
<trkpt lat="33.810313" lon="-118.393867">
  <ele>-0.12</ele>
  <time>2026-09-01T01:12:12Z</time>
  <course>0.0</course>
  <speed>0.0</speed>
  <fix>3d</fix>
</trkpt>
<trkpt lat="33.8103132" lon="-118.3938672">
  <ele>-0.122</ele>
  <time>2026-09-01T01:12:12Z</time>
  <course>186.21</course>
  <speed>0.0282842712474619</speed>
  <fix>3d</fix>
</trkpt>
<trkpt lat="33.810313" lon="-118.393867">
  <ele>-0.12</ele>
  <time>2026-09-01T01:12:12Z</time>
  <course>0.0</course>
  <speed>0.0</speed>
  <fix>3d</fix>
</trkpt>
<trkpt lat="33.8103132" lon="-118.3938672">
  <ele>-0.123</ele>
  <time>2026-09-01T01:12:12Z</time>
  <course>186.21</course>
  <speed>0.0282842712474619</speed>
  <fix>3d</fix>
</trkpt>
<trkpt lat="33.810313" lon="-118.393867">
  <ele>-0.12</ele>
  <time>2026-09-01T01:12:12Z</time>
  <course>0.0</course>
  <speed>0.0</speed>
  <fix>3d</fix>
</trkpt>
<trkpt lat="33.8103132" lon="-118.3938672">
  <ele>-0.125</ele>
  <time>2026-09-01T01:12:12Z</time>
  <course>186.21</course>
  <speed>0.0282842712474619</speed>
  <fix>3d</fix>
</trkpt>
<trkpt lat="33.810313" lon="-118.393867">
  <ele>-0.12</ele>
  <time>2026-09-01T01:12:12Z</time>
  <course>0.0</course>
  <speed>0.0</speed>
  <fix>3d</fix>
</trkpt>
<trkpt lat="33.8103132" lon="-118.3938672">
  <ele>-0.126</ele>
  <time>2026-09-01T01:12:12Z</time>
  <course>186.21</course>
  <speed>0.0282842712474619</speed>
  <fix>3d</fix>
</trkpt>
<trkpt lat="33.810313" lon="-118.393867">
  <ele>-0.12</ele>
  <time>2026-09-01T01:12:12Z</time>
  <course>0.0</course>
  <speed>0.0</speed>
  <fix>3d</fix>
</trkpt>
<trkpt lat="33.8103132" lon="-118.3938672">
  <ele>-0.127</ele>
  <time>2026-09-01T01:12:12Z</time>
  <course>186.21</course>
  <speed>0.0282842712474619</speed>
  <fix>3d</fix>
</trkpt>
<trkpt lat="33.810313" lon="-118.393867">
  <ele>-0.12</ele>
  <time>2026-09-01T01:12:12Z</time>
  <course>0.0</course>
  <speed>0.0</speed>
  <fix>3d</fix>
</trkpt>
<trkpt lat="33.8103132" lon="-118.3938672">
  <ele>-0.127</ele>
  <time>2026-09-01T01:12:12Z</time>
  <course>186.21</course>
  <speed>0.0282842712474619</speed>
  <fix>3d</fix>
</trkpt>
<trkpt lat="33.810313" lon="-118.393867">
  <ele>-0.12</ele>
  <time>2026-09-01T01:12:12Z</time>
  <course>0.0</course>
  <speed>0.0</speed>
  <fix>3d</fix>
</trkpt>
<trkpt lat="33.8103132" lon="-118.3938672">
  <ele>-0.128</ele>
  <time>2026-09-01T01:12:12Z</time>
  <course>186.21</course>
  <speed>0.0282842712474619</speed>
  <fix>3d</fix>
</trkpt>
<trkpt lat="33.810313" lon="-118.393867">
  <ele>-0.12</ele>
  <time>2026-09-01T01:12:12Z</time>
  <course>0.0</course>
  <speed>0.0</speed>
  <fix>3d</fix>
</trkpt>
<trkpt lat="33.8103132" lon="-118.3938672">
  <ele>-0.13</ele>
  <time>2026-09-01T01:12:12Z</time>
  <course>186.21</course>
  <speed>0.0282842712474619</speed>
  <fix>3d</fix>
</trkpt>
<trkpt lat="33.810313" lon="-118.393867">
  <ele>-0.12</ele>
  <time>2026-09-01T01:12:12Z</time>
  <course>0.0</course>
  <speed>0.0</speed>
  <fix>3d</fix>
</trkpt>
<trkpt lat="33.8103132" lon="-118.3938672">
  <ele>-0.132</ele>
  <time>2026-09-01T01:12:12Z</time>
  <course>186.21</course>
  <speed>0.0282842712474619</speed>
  <fix>3d</fix>
</trkpt>
<trkpt lat="33.810313" lon="-118.393867">
  <ele>-0.12</ele>
  <time>2026-09-01T01:12:12Z</time>
  <course>0.0</course>
  <speed>0.0</speed>
  <fix>3d</fix>
</trkpt>
<trkpt lat="33.8103132" lon="-118.3938672">
  <ele>-0.134</ele>
  <time>2026-09-01T01:12:12Z</time>
  <course>186.21</course>
  <speed>0.0282842712474619</speed>
  <fix>3d</fix>
</trkpt>
<trkpt lat="33.810313" lon="-118.393867">
  <ele>-0.12</ele>
  <time>2026-09-01T01:12:12Z</time>
  <course>0.0</course>
  <speed>0.0</speed>
  <fix>3d</fix>
</trkpt>
<trkpt lat="33.8103132" lon="-118.3938672">
  <ele>-0.135</ele>
  <time>2026-09-01T01:12:12Z</time>
  <course>186.21</course>
  <speed>0.0282842712474619</speed>
  <fix>3d</fix>
</trkpt>
<trkpt lat="33.810313" lon="-118.393867">
  <ele>-0.12</ele>
  <time>2026-09-01T01:12:12Z</time>
  <course>0.0</course>
  <speed>0.0</speed>
  <fix>3d</fix>
</trkpt>
<trkpt lat="33.8103132" lon="-118.3938672">
  <ele>-0.136</ele>
  <time>2026-09-01T01:12:12Z</time>
  <course>186.21</course>
  <speed>0.0282842712474619</speed>
  <fix>3d</fix>
</trkpt>
<trkpt lat="33.810313" lon="-118.393867">
  <ele>-0.12</ele>
  <time>2026-09-01T01:12:12Z</time>
  <course>0.0</course>
  <speed>0.0</speed>
  <fix>3d</fix>
</trkpt>
<trkpt lat="33.8103132" lon="-118.3938672">
  <ele>-0.136</ele>
  <time>2026-09-01T01:12:12Z</time>
  <course>186.21</course>
  <speed>0.0282842712474619</speed>
  <fix>3d</fix>
</trkpt>
<trkpt lat="33.810313" lon="-118.393867">
  <ele>-0.12</ele>
  <time>2026-09-01T01:12:12Z</time>
  <course>0.0</course>
  <speed>0.0</speed>
  <fix>3d</fix>
</trkpt>
<trkpt lat="33.8103132" lon="-118.3938672">
  <ele>-0.136</ele>
  <time>2026-09-01T01:12:12Z</time>
  <course>186.21</course>
  <speed>0.0282842712474619</speed>
  <fix>3d</fix>
</trkpt>
<trkpt lat="33.810313" lon="-118.393867">
  <ele>-0.12</ele>
  <time>2026-09-01T01:12:12Z</time>
  <course>0.0</course>
  <speed>0.0</speed>
  <fix>3d</fix>
</trkpt>
<trkpt lat="33.8103132" lon="-118.3938672">
  <ele>-0.135</ele>
  <time>2026-09-01T01:12:12Z</time>
  <course>186.21</course>
  <speed>0.0282842712474619</speed>
  <fix>3d</fix>
</trkpt>
<trkpt lat="33.810313" lon="-118.393867">
  <ele>-0.12</ele>
  <time>2026-09-01T01:12:12Z</time>
  <course>0.0</course>
  <speed>0.0</speed>
  <fix>3d</fix>
</trkpt>
<trkpt lat="33.8103132" lon="-118.3938672">
  <ele>-0.135</ele>
  <time>2026-09-01T01:12:12Z</time>
  <course>186.21</course>
  <speed>0.0282842712474619</speed>
  <fix>3d</fix>
</trkpt>
<trkpt lat="33.810313" lon="-118.393867">
  <ele>-0.12</ele>
  <time>2026-09-01T01:12:12Z</time>
  <course>0.0</course>
  <speed>0.0</speed>
  <fix>3d</fix>
</trkpt>
<trkpt lat="33.8103132" lon="-118.3938672">
  <ele>-0.134</ele>
  <time>2026-09-01T01:12:12Z</time>
  <course>186.21</course>
  <speed>0.0282842712474619</speed>
  <fix>3d</fix>
</trkpt>
<trkpt lat="33.810313" lon="-118.393867">
  <ele>-0.12</ele>
  <time>2026-09-01T01:12:12Z</time>
  <course>0.0</course>
  <speed>0.0</speed>
  <fix>3d</fix>
</trkpt>
<trkpt lat="33.8103132" lon="-118.3938672">
  <ele>-0.132</ele>
  <time>2026-09-01T01:12:12Z</time>
  <course>186.21</course>
  <speed>0.0282842712474619</speed>
  <fix>3d</fix>
</trkpt>
<trkpt lat="33.810313" lon="-118.393867">
  <ele>-0.12</ele>
  <time>2026-09-01T01:12:12Z</time>
  <course>0.0</course>
  <speed>0.0</speed>
  <fix>3d</fix>
</trkpt>
<trkpt lat="33.8103132" lon="-118.3938672">
  <ele>-0.13</ele>
  <time>2026-09-01T01:12:12Z</time>
  <course>186.21</course>
  <speed>0.0282842712474619</speed>
  <fix>3d</fix>
</trkpt>
<trkpt lat="33.810313" lon="-118.393867">
  <ele>-0.12</ele>
  <time>2026-09-01T01:12:12Z</time>
  <course>0.0</course>
  <speed>0.0</speed>
  <fix>3d</fix>
</trkpt>
<trkpt lat="33.8103132" lon="-118.3938672">
  <ele>-0.13</ele>
  <time>2026-09-01T01:12:12Z</time>
  <course>186.21</course>
  <speed>0.0282842712474619</speed>
  <fix>3d</fix>
</trkpt>
<trkpt lat="33.810313" lon="-118.393867">
  <ele>-0.12</ele>
  <time>2026-09-01T01:12:12Z</time>
  <course>0.0</course>
  <speed>0.0</speed>
  <fix>3d</fix>
</trkpt>
<trkpt lat="33.8103132" lon="-118.3938672">
  <ele>-0.13</ele>
  <time>2026-09-01T01:12:12Z</time>
  <course>186.21</course>
  <speed>0.0282842712474619</speed>
  <fix>3d</fix>
</trkpt>
<trkpt lat="33.810313" lon="-118.393867">
  <ele>-0.12</ele>
  <time>2026-09-01T01:12:12Z</time>
  <course>0.0</course>
  <speed>0.0</speed>
  <fix>3d</fix>
</trkpt>
<trkpt lat="33.8103132" lon="-118.3938672">
  <ele>-0.13</ele>
  <time>2026-09-01T01:12:12Z</time>
  <course>186.21</course>
  <speed>0.0282842712474619</speed>
  <fix>3d</fix>
</trkpt>
<trkpt lat="33.810313" lon="-118.393867">
  <ele>-0.12</ele>
  <time>2026-09-01T01:12:12Z</time>
  <course>0.0</course>
  <speed>0.0</speed>
  <fix>3d</fix>
</trkpt>
<trkpt lat="33.8103132" lon="-118.3938672">
  <ele>-0.129</ele>
  <time>2026-09-01T01:12:12Z</time>
  <course>186.21</course>
  <speed>0.0282842712474619</speed>
  <fix>3d</fix>
</trkpt>
<trkpt lat="33.810313" lon="-118.393867">
  <ele>-0.12</ele>
  <time>2026-09-01T01:12:12Z</time>
  <course>0.0</course>
  <speed>0.0</speed>
  <fix>3d</fix>
</trkpt>
<trkpt lat="33.8103132" lon="-118.3938672">
  <ele>-0.129</ele>
  <time>2026-09-01T01:12:12Z</time>
  <course>186.21</course>
  <speed>0.0282842712474619</speed>
  <fix>3d</fix>
</trkpt>
<trkpt lat="33.810313" lon="-118.393867">
  <ele>-0.12</ele>
  <time>2026-09-01T01:12:12Z</time>
  <course>0.0</course>
  <speed>0.0</speed>
  <fix>3d</fix>
</trkpt>
<trkpt lat="33.8103132" lon="-118.3938672">
  <ele>-0.128</ele>
  <time>2026-09-01T01:12:12Z</time>
  <course>186.21</course>
  <speed>0.0282842712474619</speed>
  <fix>3d</fix>
</trkpt>
<trkpt lat="33.810313" lon="-118.393867">
  <ele>-0.12</ele>
  <time>2026-09-01T01:12:12Z</time>
  <course>0.0</course>
  <speed>0.0</speed>
  <fix>3d</fix>
</trkpt>
<trkpt lat="33.8103132" lon="-118.3938672">
  <ele>-0.126</ele>
  <time>2026-09-01T01:12:12Z</time>
  <course>186.21</course>
  <speed>0.022360679774997897</speed>
  <fix>3d</fix>
</trkpt>
<trkpt lat="33.810313" lon="-118.393867">
  <ele>-0.12</ele>
  <time>2026-09-01T01:12:12Z</time>
  <course>0.0</course>
  <speed>0.0</speed>
  <fix>3d</fix>
</trkpt>
<trkpt lat="33.8103132" lon="-118.3938672">
  <ele>-0.126</ele>
  <time>2026-09-01T01:12:12Z</time>
  <course>186.21</course>
  <speed>0.0282842712474619</speed>
  <fix>3d</fix>
</trkpt>
<trkpt lat="33.810313" lon="-118.393867">
  <ele>-0.12</ele>
  <time>2026-09-01T01:12:12Z</time>
  <course>0.0</course>
  <speed>0.0</speed>
  <fix>3d</fix>
</trkpt>
<trkpt lat="33.8103132" lon="-118.3938672">
  <ele>-0.124</ele>
  <time>2026-09-01T01:12:12Z</time>
  <course>186.2</course>
  <speed>0.022360679774997897</speed>
  <fix>3d</fix>
</trkpt>
<trkpt lat="33.810313" lon="-118.393867">
  <ele>-0.12</ele>
  <time>2026-09-01T01:12:12Z</time>
  <course>0.0</course>
  <speed>0.0</speed>
  <fix>3d</fix>
</trkpt>
<trkpt lat="33.8103132" lon="-118.3938672">
  <ele>-0.124</ele>
  <time>2026-09-01T01:12:12Z</time>
  <course>186.2</course>
  <speed>0.0282842712474619</speed>
  <fix>3d</fix>
</trkpt>
<trkpt lat="33.810313" lon="-118.393867">
  <ele>-0.12</ele>
  <time>2026-09-01T01:12:12Z</time>
  <course>0.0</course>
  <speed>0.0</speed>
  <fix>3d</fix>
</trkpt>
<trkpt lat="33.8103132" lon="-118.3938672">
  <ele>-0.124</ele>
  <time>2026-09-01T01:12:12Z</time>
  <course>186.2</course>
  <speed>0.022360679774997897</speed>
  <fix>3d</fix>
</trkpt>
<trkpt lat="33.810313" lon="-118.393867">
  <ele>-0.12</ele>
  <time>2026-09-01T01:12:12Z</time>
  <course>0.0</course>
  <speed>0.0</speed>
  <fix>3d</fix>
</trkpt>
<trkpt lat="33.8103132" lon="-118.3938672">
  <ele>-0.125</ele>
  <time>2026-09-01T01:12:12Z</time>
  <course>186.2</course>
  <speed>0.0282842712474619</speed>
  <fix>3d</fix>
</trkpt>
<trkpt lat="33.810313" lon="-118.393867">
  <ele>-0.12</ele>
  <time>2026-09-01T01:12:12Z</time>
  <course>0.0</course>
  <speed>0.0</speed>
  <fix>3d</fix>
</trkpt>
<trkpt lat="33.8103132" lon="-118.3938672">
  <ele>-0.126</ele>
  <time>2026-09-01T01:12:12Z</time>
  <course>186.2</course>
  <speed>0.022360679774997897</speed>
  <fix>3d</fix>
</trkpt>
<trkpt lat="33.810313" lon="-118.393867">
  <ele>-0.12</ele>
  <time>2026-09-01T01:12:12Z</time>
  <course>0.0</course>
  <speed>0.0</speed>
  <fix>3d</fix>
</trkpt>
<trkpt lat="33.8103132" lon="-118.3938672">
  <ele>-0.126</ele>
  <time>2026-09-01T01:12:12Z</time>
  <course>186.2</course>
  <speed>0.0282842712474619</speed>
  <fix>3d</fix>
</trkpt>
<trkpt lat="33.810313" lon="-118.393867">
  <ele>-0.12</ele>
  <time>2026-09-01T01:12:12Z</time>
  <course>0.0</course>
  <speed>0.0</speed>
  <fix>3d</fix>
</trkpt>
<trkpt lat="33.8103132" lon="-118.3938672">
  <ele>-0.126</ele>
  <time>2026-09-01T01:12:12Z</time>
  <course>186.2</course>
  <speed>0.022360679774997897</speed>
  <fix>3d</fix>
</trkpt>
<trkpt lat="33.810313" lon="-118.393867">
  <ele>-0.12</ele>
  <time>2026-09-01T01:12:12Z</time>
  <course>0.0</course>
  <speed>0.0</speed>
  <fix>3d</fix>
</trkpt>
<trkpt lat="33.8103132" lon="-118.3938672">
  <ele>-0.125</ele>
  <time>2026-09-01T01:12:12Z</time>
  <course>186.2</course>
  <speed>0.022360679774997897</speed>
  <fix>3d</fix>
</trkpt>
<trkpt lat="33.810313" lon="-118.393867">
  <ele>-0.12</ele>
  <time>2026-09-01T01:12:12Z</time>
  <course>0.0</course>
  <speed>0.0</speed>
  <fix>3d</fix>
</trkpt>
<trkpt lat="33.8103132" lon="-118.3938672">
  <ele>-0.124</ele>
  <time>2026-09-01T01:12:12Z</time>
  <course>186.2</course>
  <speed>0.022360679774997897</speed>
  <fix>3d</fix>
</trkpt>
<trkpt lat="33.810313" lon="-118.393867">
  <ele>-0.12</ele>
  <time>2026-09-01T01:12:12Z</time>
  <course>0.0</course>
  <speed>0.0</speed>
  <fix>3d</fix>
</trkpt>
<trkpt lat="33.8103132" lon="-118.3938672">
  <ele>-0.123</ele>
  <time>2026-09-01T01:12:12Z</time>
  <course>186.2</course>
  <speed>0.022360679774997897</speed>
  <fix>3d</fix>
</trkpt>
<trkpt lat="33.810313" lon="-118.393867">
  <ele>-0.12</ele>
  <time>2026-09-01T01:12:12Z</time>
  <course>0.0</course>
  <speed>0.0</speed>
  <fix>3d</fix>
</trkpt>
<trkpt lat="33.8103132" lon="-118.3938672">
  <ele>-0.123</ele>
  <time>2026-09-01T01:12:12Z</time>
  <course>186.2</course>
  <speed>0.022360679774997897</speed>
  <fix>3d</fix>
</trkpt>
<trkpt lat="33.810313" lon="-118.393867">
  <ele>-0.12</ele>
  <time>2026-09-01T01:12:12Z</time>
  <course>0.0</course>
  <speed>0.0</speed>
  <fix>3d</fix>
</trkpt>
<trkpt lat="33.8103132" lon="-118.3938672">
  <ele>-0.123</ele>
  <time>2026-09-01T01:12:12Z</time>
  <course>186.2</course>
  <speed>0.022360679774997897</speed>
  <fix>3d</fix>
</trkpt>
<trkpt lat="33.810313" lon="-118.393867">
  <ele>-0.12</ele>
  <time>2026-09-01T01:12:12Z</time>
  <course>0.0</course>
  <speed>0.0</speed>
  <fix>3d</fix>
</trkpt>
<trkpt lat="33.8103132" lon="-118.3938672">
  <ele>-0.123</ele>
  <time>2026-09-01T01:12:12Z</time>
  <course>186.2</course>
  <speed>0.022360679774997897</speed>
  <fix>3d</fix>
</trkpt>
<trkpt lat="33.810313" lon="-118.393867">
  <ele>-0.12</ele>
  <time>2026-09-01T01:12:12Z</time>
  <course>0.0</course>
  <speed>0.0</speed>
  <fix>3d</fix>
</trkpt>
<trkpt lat="33.8103132" lon="-118.3938672">
  <ele>-0.123</ele>
  <time>2026-09-01T01:12:12Z</time>
  <course>186.2</course>
  <speed>0.022360679774997897</speed>
  <fix>3d</fix>
</trkpt>
<trkpt lat="33.810313" lon="-118.393867">
  <ele>-0.12</ele>
  <time>2026-09-01T01:12:12Z</time>
  <course>0.0</course>
  <speed>0.0</speed>
  <fix>3d</fix>
</trkpt>
<trkpt lat="33.8103132" lon="-118.3938672">
  <ele>-0.123</ele>
  <time>2026-09-01T01:12:12Z</time>
  <course>186.2</course>
  <speed>0.022360679774997897</speed>
  <fix>3d</fix>
</trkpt>
<trkpt lat="33.810313" lon="-118.393867">
  <ele>-0.12</ele>
  <time>2026-09-01T01:12:12Z</time>
  <course>0.0</course>
  <speed>0.0</speed>
  <fix>3d</fix>
</trkpt>
<trkpt lat="33.8103132" lon="-118.3938672">
  <ele>-0.124</ele>
  <time>2026-09-01T01:12:12Z</time>
  <course>186.2</course>
  <speed>0.022360679774997897</speed>
  <fix>3d</fix>
</trkpt>
<trkpt lat="33.810313" lon="-118.393867">
  <ele>-0.12</ele>
  <time>2026-09-01T01:12:12Z</time>
  <course>0.0</course>
  <speed>0.0</speed>
  <fix>3d</fix>
</trkpt>
<trkpt lat="33.8103132" lon="-118.3938672">
  <ele>-0.124</ele>
  <time>2026-09-01T01:12:12Z</time>
  <course>186.2</course>
  <speed>0.022360679774997897</speed>
  <fix>3d</fix>
</trkpt>
<trkpt lat="33.810313" lon="-118.393867">
  <ele>-0.12</ele>
  <time>2026-09-01T01:12:12Z</time>
  <course>0.0</course>
  <speed>0.0</speed>
  <fix>3d</fix>
</trkpt>
<trkpt lat="33.8103132" lon="-118.3938672">
  <ele>-0.124</ele>
  <time>2026-09-01T01:12:12Z</time>
  <course>186.2</course>
  <speed>0.022360679774997897</speed>
  <fix>3d</fix>
</trkpt>
<trkpt lat="33.810313" lon="-118.393867">
  <ele>-0.12</ele>
  <time>2026-09-01T01:12:12Z</time>
  <course>0.0</course>
  <speed>0.0</speed>
  <fix>3d</fix>
</trkpt>
<trkpt lat="33.8103132" lon="-118.3938672">
  <ele>-0.126</ele>
  <time>2026-09-01T01:12:12Z</time>
  <course>186.2</course>
  <speed>0.022360679774997897</speed>
  <fix>3d</fix>
</trkpt>
<trkpt lat="33.810313" lon="-118.393867">
  <ele>-0.12</ele>
  <time>2026-09-01T01:12:12Z</time>
  <course>0.0</course>
  <speed>0.0</speed>
  <fix>3d</fix>
</trkpt>
<trkpt lat="33.8103132" lon="-118.3938672">
  <ele>-0.127</ele>
  <time>2026-09-01T01:12:12Z</time>
  <course>186.2</course>
  <speed>0.022360679774997897</speed>
  <fix>3d</fix>
</trkpt>
<trkpt lat="33.810313" lon="-118.393867">
  <ele>-0.12</ele>
  <time>2026-09-01T01:12:12Z</time>
  <course>0.0</course>
  <speed>0.0</speed>
  <fix>3d</fix>
</trkpt>
<trkpt lat="33.8103132" lon="-118.3938672">
  <ele>-0.128</ele>
  <time>2026-09-01T01:12:12Z</time>
  <course>186.2</course>
  <speed>0.022360679774997897</speed>
  <fix>3d</fix>
</trkpt>
<trkpt lat="33.810313" lon="-118.393867">
  <ele>-0.12</ele>
  <time>2026-09-01T01:12:12Z</time>
  <course>0.0</course>
  <speed>0.0</speed>
  <fix>3d</fix>
</trkpt>
<trkpt lat="33.8103132" lon="-118.3938672">
  <ele>-0.129</ele>
  <time>2026-09-01T01:12:12Z</time>
  <course>186.2</course>
  <speed>0.022360679774997897</speed>
  <fix>3d</fix>
</trkpt>
<trkpt lat="33.810313" lon="-118.393867">
  <ele>-0.12</ele>
  <time>2026-09-01T01:12:12Z</time>
  <course>0.0</course>
  <speed>0.0</speed>
  <fix>3d</fix>
</trkpt>
<trkpt lat="33.8103132" lon="-118.3938672">
  <ele>-0.128</ele>
  <time>2026-09-01T01:12:12Z</time>
  <course>186.2</course>
  <speed>0.022360679774997897</speed>
  <fix>3d</fix>
</trkpt>
<trkpt lat="33.810313" lon="-118.393867">
  <ele>-0.12</ele>
  <time>2026-09-01T01:12:12Z</time>
  <course>0.0</course>
  <speed>0.0</speed>
  <fix>3d</fix>
</trkpt>
<trkpt lat="33.8103132" lon="-118.3938672">
  <ele>-0.127</ele>
  <time>2026-09-01T01:12:12Z</time>
  <course>186.2</course>
  <speed>0.022360679774997897</speed>
  <fix>3d</fix>
</trkpt>
<trkpt lat="33.810313" lon="-118.393867">
  <ele>-0.12</ele>
  <time>2026-09-01T01:12:12Z</time>
  <course>0.0</course>
  <speed>0.0</speed>
  <fix>3d</fix>
</trkpt>
<trkpt lat="33.8103132" lon="-118.3938672">
  <ele>-0.125</ele>
  <time>2026-09-01T01:12:12Z</time>
  <course>186.2</course>
  <speed>0.022360679774997897</speed>
  <fix>3d</fix>
</trkpt>
<trkpt lat="33.810313" lon="-118.393867">
  <ele>-0.12</ele>
  <time>2026-09-01T01:12:12Z</time>
  <course>0.0</course>
  <speed>0.0</speed>
  <fix>3d</fix>
</trkpt>
<trkpt lat="33.8103132" lon="-118.3938672">
  <ele>-0.124</ele>
  <time>2026-09-01T01:12:12Z</time>
  <course>186.2</course>
  <speed>0.022360679774997897</speed>
  <fix>3d</fix>
</trkpt>
<trkpt lat="33.810313" lon="-118.393867">
  <ele>-0.12</ele>
  <time>2026-09-01T01:12:12Z</time>
  <course>0.0</course>
  <speed>0.0</speed>
  <fix>3d</fix>
</trkpt>
<trkpt lat="33.8103132" lon="-118.3938672">
  <ele>-0.122</ele>
  <time>2026-09-01T01:12:12Z</time>
  <course>186.2</course>
  <speed>0.022360679774997897</speed>
  <fix>3d</fix>
</trkpt>
<trkpt lat="33.810313" lon="-118.393867">
  <ele>-0.12</ele>
  <time>2026-09-01T01:12:12Z</time>
  <course>0.0</course>
  <speed>0.0</speed>
  <fix>3d</fix>
</trkpt>
<trkpt lat="33.8103132" lon="-118.3938672">
  <ele>-0.121</ele>
  <time>2026-09-01T01:12:12Z</time>
  <course>186.2</course>
  <speed>0.022360679774997897</speed>
  <fix>3d</fix>
</trkpt>
<trkpt lat="33.810313" lon="-118.393867">
  <ele>-0.12</ele>
  <time>2026-09-01T01:12:12Z</time>
  <course>0.0</course>
  <speed>0.0</speed>
  <fix>3d</fix>
</trkpt>
<trkpt lat="33.8103132" lon="-118.3938672">
  <ele>-0.12</ele>
  <time>2026-09-01T01:12:12Z</time>
  <course>186.2</course>
  <speed>0.022360679774997897</speed>
  <fix>3d</fix>
</trkpt>
<trkpt lat="33.810313" lon="-118.393867">
  <ele>-0.12</ele>
  <time>2026-09-01T01:12:12Z</time>
  <course>0.0</course>
  <speed>0.0</speed>
  <fix>3d</fix>
</trkpt>
<trkpt lat="33.8103132" lon="-118.3938672">
  <ele>-0.119</ele>
  <time>2026-09-01T01:12:12Z</time>
  <course>186.2</course>
  <speed>0.022360679774997897</speed>
  <fix>3d</fix>
</trkpt>
<trkpt lat="33.810313" lon="-118.393867">
  <ele>-0.12</ele>
  <time>2026-09-01T01:12:12Z</time>
  <course>0.0</course>
  <speed>0.0</speed>
  <fix>3d</fix>
</trkpt>
<trkpt lat="33.8103132" lon="-118.3938672">
  <ele>-0.12</ele>
  <time>2026-09-01T01:12:12Z</time>
  <course>186.2</course>
  <speed>0.022360679774997897</speed>
  <fix>3d</fix>
</trkpt>
<trkpt lat="33.810313" lon="-118.393867">
  <ele>-0.12</ele>
  <time>2026-09-01T01:12:12Z</time>
  <course>0.0</course>
  <speed>0.0</speed>
  <fix>3d</fix>
</trkpt>
<trkpt lat="33.8103132" lon="-118.3938672">
  <ele>-0.12</ele>
  <time>2026-09-01T01:12:12Z</time>
  <course>186.2</course>
  <speed>0.022360679774997897</speed>
  <fix>3d</fix>
</trkpt>
<trkpt lat="33.810313" lon="-118.393867">
  <ele>-0.12</ele>
  <time>2026-09-01T01:12:12Z</time>
  <course>0.0</course>
  <speed>0.0</speed>
  <fix>3d</fix>
</trkpt>
<trkpt lat="33.8103132" lon="-118.3938672">
  <ele>-0.121</ele>
  <time>2026-09-01T01:12:12Z</time>
  <course>186.2</course>
  <speed>0.022360679774997897</speed>
  <fix>3d</fix>
</trkpt>
<trkpt lat="33.810313" lon="-118.393867">
  <ele>-0.12</ele>
  <time>2026-09-01T01:12:12Z</time>
  <course>0.0</course>
  <speed>0.0</speed>
  <fix>3d</fix>
</trkpt>
<trkpt lat="33.8103132" lon="-118.3938672">
  <ele>-0.122</ele>
  <time>2026-09-01T01:12:12Z</time>
  <course>186.2</course>
  <speed>0.022360679774997897</speed>
  <fix>3d</fix>
</trkpt>
<trkpt lat="33.810313" lon="-118.393867">
  <ele>-0.12</ele>
  <time>2026-09-01T01:12:12Z</time>
  <course>0.0</course>
  <speed>0.0</speed>
  <fix>3d</fix>
</trkpt>
<trkpt lat="33.8103132" lon="-118.3938672">
  <ele>-0.122</ele>
  <time>2026-09-01T01:12:12Z</time>
  <course>186.2</course>
  <speed>0.022360679774997897</speed>
  <fix>3d</fix>
</trkpt>
<trkpt lat="33.810313" lon="-118.393867">
  <ele>-0.12</ele>
  <time>2026-09-01T01:12:12Z</time>
  <course>0.0</course>
  <speed>0.0</speed>
  <fix>3d</fix>
</trkpt>
<trkpt lat="33.8103132" lon="-118.3938672">
  <ele>-0.123</ele>
  <time>2026-09-01T01:12:12Z</time>
  <course>186.2</course>
  <speed>0.022360679774997897</speed>
  <fix>3d</fix>
</trkpt>
<trkpt lat="33.810313" lon="-118.393867">
  <ele>-0.12</ele>
  <time>2026-09-01T01:12:12Z</time>
  <course>0.0</course>
  <speed>0.0</speed>
  <fix>3d</fix>
</trkpt>
<trkpt lat="33.8103132" lon="-118.3938672">
  <ele>-0.123</ele>
  <time>2026-09-01T01:12:12Z</time>
  <course>186.2</course>
  <speed>0.022360679774997897</speed>
  <fix>3d</fix>
</trkpt>
<trkpt lat="33.810313" lon="-118.393867">
  <ele>-0.12</ele>
  <time>2026-09-01T01:12:12Z</time>
  <course>0.0</course>
  <speed>0.0</speed>
  <fix>3d</fix>
</trkpt>
<trkpt lat="33.8103132" lon="-118.3938672">
  <ele>-0.123</ele>
  <time>2026-09-01T01:12:12Z</time>
  <course>186.2</course>
  <speed>0.022360679774997897</speed>
  <fix>3d</fix>
</trkpt>
<trkpt lat="33.810313" lon="-118.393867">
  <ele>-0.12</ele>
  <time>2026-09-01T01:12:12Z</time>
  <course>0.0</course>
  <speed>0.0</speed>
  <fix>3d</fix>
</trkpt>
<trkpt lat="33.8103132" lon="-118.3938672">
  <ele>-0.124</ele>
  <time>2026-09-01T01:12:12Z</time>
  <course>186.2</course>
  <speed>0.022360679774997897</speed>
  <fix>3d</fix>
</trkpt>
<trkpt lat="33.810313" lon="-118.393867">
  <ele>-0.12</ele>
  <time>2026-09-01T01:12:12Z</time>
  <course>0.0</course>
  <speed>0.0</speed>
  <fix>3d</fix>
</trkpt>
<trkpt lat="33.8103132" lon="-118.3938672">
  <ele>-0.124</ele>
  <time>2026-09-01T01:12:12Z</time>
  <course>186.2</course>
  <speed>0.022360679774997897</speed>
  <fix>3d</fix>
</trkpt>
<trkpt lat="33.810313" lon="-118.393867">
  <ele>-0.12</ele>
  <time>2026-09-01T01:12:12Z</time>
  <course>0.0</course>
  <speed>0.0</speed>
  <fix>3d</fix>
</trkpt>
<trkpt lat="33.8103132" lon="-118.3938672">
  <ele>-0.124</ele>
  <time>2026-09-01T01:12:12Z</time>
  <course>186.2</course>
  <speed>0.022360679774997897</speed>
  <fix>3d</fix>
</trkpt>
<trkpt lat="33.810313" lon="-118.393867">
  <ele>-0.12</ele>
  <time>2026-09-01T01:12:12Z</time>
  <course>0.0</course>
  <speed>0.0</speed>
  <fix>3d</fix>
</trkpt>
<trkpt lat="33.8103132" lon="-118.3938672">
  <ele>-0.124</ele>
  <time>2026-09-01T01:12:12Z</time>
  <course>186.2</course>
  <speed>0.022360679774997897</speed>
  <fix>3d</fix>
</trkpt>
<trkpt lat="33.810313" lon="-118.393867">
  <ele>-0.12</ele>
  <time>2026-09-01T01:12:12Z</time>
  <course>0.0</course>
  <speed>0.0</speed>
  <fix>3d</fix>
</trkpt>
<trkpt lat="33.8103132" lon="-118.3938672">
  <ele>-0.125</ele>
  <time>2026-09-01T01:12:12Z</time>
  <course>186.2</course>
  <speed>0.022360679774997897</speed>
  <fix>3d</fix>
</trkpt>
<trkpt lat="33.810313" lon="-118.393867">
  <ele>-0.12</ele>
  <time>2026-09-01T01:12:12Z</time>
  <course>0.0</course>
  <speed>0.0</speed>
  <fix>3d</fix>
</trkpt>
<trkpt lat="33.8103132" lon="-118.3938672">
  <ele>-0.125</ele>
  <time>2026-09-01T01:12:12Z</time>
  <course>186.2</course>
  <speed>0.022360679774997897</speed>
  <fix>3d</fix>
</trkpt>
<trkpt lat="33.810313" lon="-118.393867">
  <ele>-0.12</ele>
  <time>2026-09-01T01:12:12Z</time>
  <course>0.0</course>
  <speed>0.0</speed>
  <fix>3d</fix>
</trkpt>
<trkpt lat="33.8103132" lon="-118.3938672">
  <ele>-0.125</ele>
  <time>2026-09-01T01:12:12Z</time>
  <course>186.2</course>
  <speed>0.022360679774997897</speed>
  <fix>3d</fix>
</trkpt>
<trkpt lat="33.810313" lon="-118.393867">
  <ele>-0.12</ele>
  <time>2026-09-01T01:12:12Z</time>
  <course>0.0</course>
  <speed>0.0</speed>
  <fix>3d</fix>
</trkpt>
<trkpt lat="33.8103132" lon="-118.3938672">
  <ele>-0.126</ele>
  <time>2026-09-01T01:12:12Z</time>
  <course>186.2</course>
  <speed>0.022360679774997897</speed>
  <fix>3d</fix>
</trkpt>
<trkpt lat="33.810313" lon="-118.393867">
  <ele>-0.12</ele>
  <time>2026-09-01T01:12:12Z</time>
  <course>0.0</course>
  <speed>0.0</speed>
  <fix>3d</fix>
</trkpt>
<trkpt lat="33.8103132" lon="-118.3938672">
  <ele>-0.127</ele>
  <time>2026-09-01T01:12:12Z</time>
  <course>186.2</course>
  <speed>0.022360679774997897</speed>
  <fix>3d</fix>
</trkpt>
<trkpt lat="33.810313" lon="-118.393867">
  <ele>-0.12</ele>
  <time>2026-09-01T01:12:12Z</time>
  <course>0.0</course>
  <speed>0.0</speed>
  <fix>3d</fix>
</trkpt>
<trkpt lat="33.8103132" lon="-118.3938672">
  <ele>-0.128</ele>
  <time>2026-09-01T01:12:12Z</time>
  <course>186.2</course>
  <speed>0.022360679774997897</speed>
  <fix>3d</fix>
</trkpt>
<trkpt lat="33.810313" lon="-118.393867">
  <ele>-0.12</ele>
  <time>2026-09-01T01:12:12Z</time>
  <course>0.0</course>
  <speed>0.0</speed>
  <fix>3d</fix>
</trkpt>
<trkpt lat="33.8103132" lon="-118.3938672">
  <ele>-0.129</ele>
  <time>2026-09-01T01:12:12Z</time>
  <course>186.2</course>
  <speed>0.022360679774997897</speed>
  <fix>3d</fix>
</trkpt>
<trkpt lat="33.810313" lon="-118.393867">
  <ele>-0.12</ele>
  <time>2026-09-01T01:12:12Z</time>
  <course>0.0</course>
  <speed>0.0</speed>
  <fix>3d</fix>
</trkpt>
<trkpt lat="33.8103132" lon="-118.3938672">
  <ele>-0.131</ele>
  <time>2026-09-01T01:12:12Z</time>
  <course>186.2</course>
  <speed>0.022360679774997897</speed>
  <fix>3d</fix>
</trkpt>
<trkpt lat="33.810313" lon="-118.393867">
  <ele>-0.12</ele>
  <time>2026-09-01T01:12:12Z</time>
  <course>0.0</course>
  <speed>0.0</speed>
  <fix>3d</fix>
</trkpt>
<trkpt lat="33.8103132" lon="-118.3938672">
  <ele>-0.133</ele>
  <time>2026-09-01T01:12:12Z</time>
  <course>186.2</course>
  <speed>0.022360679774997897</speed>
  <fix>3d</fix>
</trkpt>
<trkpt lat="33.810313" lon="-118.393867">
  <ele>-0.12</ele>
  <time>2026-09-01T01:12:12Z</time>
  <course>0.0</course>
  <speed>0.0</speed>
  <fix>3d</fix>
</trkpt>
<trkpt lat="33.8103132" lon="-118.3938672">
  <ele>-0.134</ele>
  <time>2026-09-01T01:12:12Z</time>
  <course>186.2</course>
  <speed>0.022360679774997897</speed>
  <fix>3d</fix>
</trkpt>
<trkpt lat="33.810313" lon="-118.393867">
  <ele>-0.12</ele>
  <time>2026-09-01T01:12:12Z</time>
  <course>0.0</course>
  <speed>0.0</speed>
  <fix>3d</fix>
</trkpt>
<trkpt lat="33.8103132" lon="-118.3938672">
  <ele>-0.134</ele>
  <time>2026-09-01T01:12:12Z</time>
  <course>186.2</course>
  <speed>0.022360679774997897</speed>
  <fix>3d</fix>
</trkpt>
<trkpt lat="33.810313" lon="-118.393867">
  <ele>-0.12</ele>
  <time>2026-09-01T01:12:12Z</time>
  <course>0.0</course>
  <speed>0.0</speed>
  <fix>3d</fix>
</trkpt>
<trkpt lat="33.8103132" lon="-118.3938672">
  <ele>-0.135</ele>
  <time>2026-09-01T01:12:12Z</time>
  <course>186.2</course>
  <speed>0.022360679774997897</speed>
  <fix>3d</fix>
</trkpt>
<trkpt lat="33.810313" lon="-118.393867">
  <ele>-0.12</ele>
  <time>2026-09-01T01:12:12Z</time>
  <course>0.0</course>
  <speed>0.0</speed>
  <fix>3d</fix>
</trkpt>
<trkpt lat="33.8103132" lon="-118.3938672">
  <ele>-0.136</ele>
  <time>2026-09-01T01:12:12Z</time>
  <course>186.2</course>
  <speed>0.022360679774997897</speed>
  <fix>3d</fix>
</trkpt>
<trkpt lat="33.810313" lon="-118.393867">
  <ele>-0.12</ele>
  <time>2026-09-01T01:12:12Z</time>
  <course>0.0</course>
  <speed>0.0</speed>
  <fix>3d</fix>
</trkpt>
<trkpt lat="33.8103132" lon="-118.3938672">
  <ele>-0.135</ele>
  <time>2026-09-01T01:12:12Z</time>
  <course>186.2</course>
  <speed>0.022360679774997897</speed>
  <fix>3d</fix>
</trkpt>
<trkpt lat="33.810313" lon="-118.393867">
  <ele>-0.12</ele>
  <time>2026-09-01T01:12:12Z</time>
  <course>0.0</course>
  <speed>0.0</speed>
  <fix>3d</fix>
</trkpt>
<trkpt lat="33.8103132" lon="-118.3938672">
  <ele>-0.133</ele>
  <time>2026-09-01T01:12:12Z</time>
  <course>186.2</course>
  <speed>0.022360679774997897</speed>
  <fix>3d</fix>
</trkpt>
<trkpt lat="33.810313" lon="-118.393867">
  <ele>-0.12</ele>
  <time>2026-09-01T01:12:12Z</time>
  <course>0.0</course>
  <speed>0.0</speed>
  <fix>3d</fix>
</trkpt>
<trkpt lat="33.8103132" lon="-118.3938672">
  <ele>-0.132</ele>
  <time>2026-09-01T01:12:12Z</time>
  <course>186.2</course>
  <speed>0.022360679774997897</speed>
  <fix>3d</fix>
</trkpt>
<trkpt lat="33.810313" lon="-118.393867">
  <ele>-0.12</ele>
  <time>2026-09-01T01:12:12Z</time>
  <course>0.0</course>
  <speed>0.0</speed>
  <fix>3d</fix>
</trkpt>
<trkpt lat="33.8103132" lon="-118.3938672">
  <ele>-0.131</ele>
  <time>2026-09-01T01:12:12Z</time>
  <course>186.2</course>
  <speed>0.022360679774997897</speed>
  <fix>3d</fix>
</trkpt>
<trkpt lat="33.810313" lon="-118.393867">
  <ele>-0.12</ele>
  <time>2026-09-01T01:12:12Z</time>
  <course>0.0</course>
  <speed>0.0</speed>
  <fix>3d</fix>
</trkpt>
<trkpt lat="33.8103132" lon="-118.3938672">
  <ele>-0.131</ele>
  <time>2026-09-01T01:12:12Z</time>
  <course>186.2</course>
  <speed>0.022360679774997897</speed>
  <fix>3d</fix>
</trkpt>
<trkpt lat="33.810313" lon="-118.393867">
  <ele>-0.12</ele>
  <time>2026-09-01T01:12:12Z</time>
  <course>0.0</course>
  <speed>0.0</speed>
  <fix>3d</fix>
</trkpt>
<trkpt lat="33.8103132" lon="-118.3938672">
  <ele>-0.132</ele>
  <time>2026-09-01T01:12:12Z</time>
  <course>186.2</course>
  <speed>0.022360679774997897</speed>
  <fix>3d</fix>
</trkpt>
<trkpt lat="33.810313" lon="-118.393867">
  <ele>-0.12</ele>
  <time>2026-09-01T01:12:12Z</time>
  <course>0.0</course>
  <speed>0.0</speed>
  <fix>3d</fix>
</trkpt>
<trkpt lat="33.8103132" lon="-118.3938672">
  <ele>-0.132</ele>
  <time>2026-09-01T01:12:12Z</time>
  <course>186.2</course>
  <speed>0.022360679774997897</speed>
  <fix>3d</fix>
</trkpt>
<trkpt lat="33.810313" lon="-118.393867">
  <ele>-0.12</ele>
  <time>2026-09-01T01:12:12Z</time>
  <course>0.0</course>
  <speed>0.0</speed>
  <fix>3d</fix>
</trkpt>
<trkpt lat="33.8103132" lon="-118.3938672">
  <ele>-0.129</ele>
  <time>2026-09-01T01:12:12Z</time>
  <course>186.2</course>
  <speed>0.022360679774997897</speed>
  <fix>3d</fix>
</trkpt>
<trkpt lat="33.810313" lon="-118.393867">
  <ele>-0.12</ele>
  <time>2026-09-01T01:12:12Z</time>
  <course>0.0</course>
  <speed>0.0</speed>
  <fix>3d</fix>
</trkpt>
<trkpt lat="33.8103132" lon="-118.3938672">
  <ele>-0.128</ele>
  <time>2026-09-01T01:12:12Z</time>
  <course>186.2</course>
  <speed>0.022360679774997897</speed>
  <fix>3d</fix>
</trkpt>
<trkpt lat="33.810313" lon="-118.393867">
  <ele>-0.12</ele>
  <time>2026-09-01T01:12:12Z</time>
  <course>0.0</course>
  <speed>0.0</speed>
  <fix>3d</fix>
</trkpt>
<trkpt lat="33.8103132" lon="-118.3938672">
  <ele>-0.128</ele>
  <time>2026-09-01T01:12:12Z</time>
  <course>186.2</course>
  <speed>0.022360679774997897</speed>
  <fix>3d</fix>
</trkpt>
<trkpt lat="33.810313" lon="-118.393867">
  <ele>-0.12</ele>
  <time>2026-09-01T01:12:12Z</time>
  <course>0.0</course>
  <speed>0.0</speed>
  <fix>3d</fix>
</trkpt>
<trkpt lat="33.8103132" lon="-118.3938672">
  <ele>-0.128</ele>
  <time>2026-09-01T01:12:12Z</time>
  <course>186.2</course>
  <speed>0.022360679774997897</speed>
  <fix>3d</fix>
</trkpt>
<trkpt lat="33.810313" lon="-118.393867">
  <ele>-0.12</ele>
  <time>2026-09-01T01:12:12Z</time>
  <course>0.0</course>
  <speed>0.0</speed>
  <fix>3d</fix>
</trkpt>
<trkpt lat="33.8103132" lon="-118.3938672">
  <ele>-0.128</ele>
  <time>2026-09-01T01:12:12Z</time>
  <course>186.2</course>
  <speed>0.022360679774997897</speed>
  <fix>3d</fix>
</trkpt>
<trkpt lat="33.810313" lon="-118.393867">
  <ele>-0.12</ele>
  <time>2026-09-01T01:12:12Z</time>
  <course>0.0</course>
  <speed>0.0</speed>
  <fix>3d</fix>
</trkpt>
<trkpt lat="33.8103132" lon="-118.3938672">
  <ele>-0.128</ele>
  <time>2026-09-01T01:12:12Z</time>
  <course>186.2</course>
  <speed>0.022360679774997897</speed>
  <fix>3d</fix>
</trkpt>
<trkpt lat="33.810313" lon="-118.393867">
  <ele>-0.12</ele>
  <time>2026-09-01T01:12:12Z</time>
  <course>0.0</course>
  <speed>0.0</speed>
  <fix>3d</fix>
</trkpt>
<trkpt lat="33.8103132" lon="-118.3938672">
  <ele>-0.128</ele>
  <time>2026-09-01T01:12:12Z</time>
  <course>186.2</course>
  <speed>0.022360679774997897</speed>
  <fix>3d</fix>
</trkpt>
<trkpt lat="33.810313" lon="-118.393867">
  <ele>-0.12</ele>
  <time>2026-09-01T01:12:12Z</time>
  <course>0.0</course>
  <speed>0.0</speed>
  <fix>3d</fix>
</trkpt>
<trkpt lat="33.8103132" lon="-118.3938672">
  <ele>-0.129</ele>
  <time>2026-09-01T01:12:12Z</time>
  <course>186.2</course>
  <speed>0.022360679774997897</speed>
  <fix>3d</fix>
</trkpt>
<trkpt lat="33.810313" lon="-118.393867">
  <ele>-0.12</ele>
  <time>2026-09-01T01:12:12Z</time>
  <course>0.0</course>
  <speed>0.0</speed>
  <fix>3d</fix>
</trkpt>
<trkpt lat="33.8103132" lon="-118.3938672">
  <ele>-0.13</ele>
  <time>2026-09-01T01:12:12Z</time>
  <course>186.2</course>
  <speed>0.022360679774997897</speed>
  <fix>3d</fix>
</trkpt>
<trkpt lat="33.810313" lon="-118.393867">
  <ele>-0.12</ele>
  <time>2026-09-01T01:12:12Z</time>
  <course>0.0</course>
  <speed>0.0</speed>
  <fix>3d</fix>
</trkpt>
<trkpt lat="33.8103132" lon="-118.3938672">
  <ele>-0.13</ele>
  <time>2026-09-01T01:12:12Z</time>
  <course>186.2</course>
  <speed>0.022360679774997897</speed>
  <fix>3d</fix>
</trkpt>
<trkpt lat="33.810313" lon="-118.393867">
  <ele>-0.12</ele>
  <time>2026-09-01T01:12:12Z</time>
  <course>0.0</course>
  <speed>0.0</speed>
  <fix>3d</fix>
</trkpt>
<trkpt lat="33.8103132" lon="-118.3938672">
  <ele>-0.131</ele>
  <time>2026-09-01T01:12:12Z</time>
  <course>186.2</course>
  <speed>0.022360679774997897</speed>
  <fix>3d</fix>
</trkpt>
<trkpt lat="33.810313" lon="-118.393867">
  <ele>-0.12</ele>
  <time>2026-09-01T01:12:12Z</time>
  <course>0.0</course>
  <speed>0.0</speed>
  <fix>3d</fix>
</trkpt>
<trkpt lat="33.8103132" lon="-118.3938672">
  <ele>-0.132</ele>
  <time>2026-09-01T01:12:12Z</time>
  <course>186.2</course>
  <speed>0.022360679774997897</speed>
  <fix>3d</fix>
</trkpt>
<trkpt lat="33.810313" lon="-118.393867">
  <ele>-0.12</ele>
  <time>2026-09-01T01:12:12Z</time>
  <course>0.0</course>
  <speed>0.0</speed>
  <fix>3d</fix>
</trkpt>
<trkpt lat="33.8103132" lon="-118.3938672">
  <ele>-0.133</ele>
  <time>2026-09-01T01:12:12Z</time>
  <course>186.2</course>
  <speed>0.022360679774997897</speed>
  <fix>3d</fix>
</trkpt>
<trkpt lat="33.810313" lon="-118.393867">
  <ele>-0.12</ele>
  <time>2026-09-01T01:12:12Z</time>
  <course>0.0</course>
  <speed>0.0</speed>
  <fix>3d</fix>
</trkpt>
<trkpt lat="33.8103132" lon="-118.3938672">
  <ele>-0.134</ele>
  <time>2026-09-01T01:12:12Z</time>
  <course>186.2</course>
  <speed>0.022360679774997897</speed>
  <fix>3d</fix>
</trkpt>
<trkpt lat="33.810313" lon="-118.393867">
  <ele>-0.12</ele>
  <time>2026-09-01T01:12:12Z</time>
  <course>0.0</course>
  <speed>0.0</speed>
  <fix>3d</fix>
</trkpt>
<trkpt lat="33.8103132" lon="-118.3938672">
  <ele>-0.135</ele>
  <time>2026-09-01T01:12:12Z</time>
  <course>186.2</course>
  <speed>0.022360679774997897</speed>
  <fix>3d</fix>
</trkpt>
<trkpt lat="33.810313" lon="-118.393867">
  <ele>-0.12</ele>
  <time>2026-09-01T01:12:12Z</time>
  <course>0.0</course>
  <speed>0.0</speed>
  <fix>3d</fix>
</trkpt>
<trkpt lat="33.8103132" lon="-118.3938672">
  <ele>-0.136</ele>
  <time>2026-09-01T01:12:12Z</time>
  <course>186.2</course>
  <speed>0.022360679774997897</speed>
  <fix>3d</fix>
</trkpt>
<trkpt lat="33.810313" lon="-118.393867">
  <ele>-0.12</ele>
  <time>2026-09-01T01:12:12Z</time>
  <course>0.0</course>
  <speed>0.0</speed>
  <fix>3d</fix>
</trkpt>
<trkpt lat="33.8103132" lon="-118.3938672">
  <ele>-0.136</ele>
  <time>2026-09-01T01:12:13Z</time>
  <course>186.2</course>
  <speed>0.022360679774997897</speed>
  <fix>3d</fix>
</trkpt>
<trkpt lat="33.810313" lon="-118.393867">
  <ele>-0.12</ele>
  <time>2026-09-01T01:12:13Z</time>
  <course>0.0</course>
  <speed>0.0</speed>
  <fix>3d</fix>
</trkpt>
<trkpt lat="33.8103132" lon="-118.3938672">
  <ele>-0.134</ele>
  <time>2026-09-01T01:12:13Z</time>
  <course>186.2</course>
  <speed>0.022360679774997897</speed>
  <fix>3d</fix>
</trkpt>
<trkpt lat="33.810313" lon="-118.393867">
  <ele>-0.12</ele>
  <time>2026-09-01T01:12:13Z</time>
  <course>0.0</course>
  <speed>0.0</speed>
  <fix>3d</fix>
</trkpt>
<trkpt lat="33.8103132" lon="-118.3938672">
  <ele>-0.133</ele>
  <time>2026-09-01T01:12:13Z</time>
  <course>186.2</course>
  <speed>0.022360679774997897</speed>
  <fix>3d</fix>
</trkpt>
<trkpt lat="33.810313" lon="-118.393867">
  <ele>-0.12</ele>
  <time>2026-09-01T01:12:13Z</time>
  <course>0.0</course>
  <speed>0.0</speed>
  <fix>3d</fix>
</trkpt>
<trkpt lat="33.8103132" lon="-118.3938672">
  <ele>-0.131</ele>
  <time>2026-09-01T01:12:13Z</time>
  <course>186.2</course>
  <speed>0.022360679774997897</speed>
  <fix>3d</fix>
</trkpt>
<trkpt lat="33.810313" lon="-118.393867">
  <ele>-0.12</ele>
  <time>2026-09-01T01:12:13Z</time>
  <course>0.0</course>
  <speed>0.0</speed>
  <fix>3d</fix>
</trkpt>
<trkpt lat="33.8103132" lon="-118.3938672">
  <ele>-0.13</ele>
  <time>2026-09-01T01:12:13Z</time>
  <course>186.2</course>
  <speed>0.022360679774997897</speed>
  <fix>3d</fix>
</trkpt>
<trkpt lat="33.810313" lon="-118.393867">
  <ele>-0.12</ele>
  <time>2026-09-01T01:12:13Z</time>
  <course>0.0</course>
  <speed>0.0</speed>
  <fix>3d</fix>
</trkpt>
<trkpt lat="33.8103132" lon="-118.3938672">
  <ele>-0.13</ele>
  <time>2026-09-01T01:12:13Z</time>
  <course>186.2</course>
  <speed>0.022360679774997897</speed>
  <fix>3d</fix>
</trkpt>
<trkpt lat="33.810313" lon="-118.393867">
  <ele>-0.12</ele>
  <time>2026-09-01T01:12:13Z</time>
  <course>0.0</course>
  <speed>0.0</speed>
  <fix>3d</fix>
</trkpt>
<trkpt lat="33.8103132" lon="-118.3938672">
  <ele>-0.131</ele>
  <time>2026-09-01T01:12:13Z</time>
  <course>186.2</course>
  <speed>0.022360679774997897</speed>
  <fix>3d</fix>
</trkpt>
<trkpt lat="33.810313" lon="-118.393867">
  <ele>-0.12</ele>
  <time>2026-09-01T01:12:13Z</time>
  <course>0.0</course>
  <speed>0.0</speed>
  <fix>3d</fix>
</trkpt>
<trkpt lat="33.8103132" lon="-118.3938672">
  <ele>-0.13</ele>
  <time>2026-09-01T01:12:13Z</time>
  <course>186.2</course>
  <speed>0.022360679774997897</speed>
  <fix>3d</fix>
</trkpt>
<trkpt lat="33.810313" lon="-118.393867">
  <ele>-0.12</ele>
  <time>2026-09-01T01:12:13Z</time>
  <course>0.0</course>
  <speed>0.0</speed>
  <fix>3d</fix>
</trkpt>
<trkpt lat="33.8103132" lon="-118.3938672">
  <ele>-0.13</ele>
  <time>2026-09-01T01:12:13Z</time>
  <course>186.2</course>
  <speed>0.022360679774997897</speed>
  <fix>3d</fix>
</trkpt>
<trkpt lat="33.810313" lon="-118.393867">
  <ele>-0.12</ele>
  <time>2026-09-01T01:12:13Z</time>
  <course>0.0</course>
  <speed>0.0</speed>
  <fix>3d</fix>
</trkpt>
<trkpt lat="33.8103132" lon="-118.3938672">
  <ele>-0.131</ele>
  <time>2026-09-01T01:12:13Z</time>
  <course>186.2</course>
  <speed>0.022360679774997897</speed>
  <fix>3d</fix>
</trkpt>
<trkpt lat="33.810313" lon="-118.393867">
  <ele>-0.12</ele>
  <time>2026-09-01T01:12:13Z</time>
  <course>0.0</course>
  <speed>0.0</speed>
  <fix>3d</fix>
</trkpt>
<trkpt lat="33.8103132" lon="-118.3938672">
  <ele>-0.131</ele>
  <time>2026-09-01T01:12:13Z</time>
  <course>186.2</course>
  <speed>0.022360679774997897</speed>
  <fix>3d</fix>
</trkpt>
<trkpt lat="33.810313" lon="-118.393867">
  <ele>-0.12</ele>
  <time>2026-09-01T01:12:13Z</time>
  <course>0.0</course>
  <speed>0.0</speed>
  <fix>3d</fix>
</trkpt>
<trkpt lat="33.8103132" lon="-118.3938672">
  <ele>-0.13</ele>
  <time>2026-09-01T01:12:13Z</time>
  <course>186.2</course>
  <speed>0.022360679774997897</speed>
  <fix>3d</fix>
</trkpt>
<trkpt lat="33.810313" lon="-118.393867">
  <ele>-0.12</ele>
  <time>2026-09-01T01:12:13Z</time>
  <course>0.0</course>
  <speed>0.0</speed>
  <fix>3d</fix>
</trkpt>
<trkpt lat="33.8103132" lon="-118.3938672">
  <ele>-0.128</ele>
  <time>2026-09-01T01:12:13Z</time>
  <course>186.2</course>
  <speed>0.022360679774997897</speed>
  <fix>3d</fix>
</trkpt>
<trkpt lat="33.810313" lon="-118.393867">
  <ele>-0.12</ele>
  <time>2026-09-01T01:12:13Z</time>
  <course>0.0</course>
  <speed>0.0</speed>
  <fix>3d</fix>
</trkpt>
<trkpt lat="33.8103132" lon="-118.3938672">
  <ele>-0.127</ele>
  <time>2026-09-01T01:12:13Z</time>
  <course>186.2</course>
  <speed>0.022360679774997897</speed>
  <fix>3d</fix>
</trkpt>
<trkpt lat="33.810313" lon="-118.393867">
  <ele>-0.12</ele>
  <time>2026-09-01T01:12:13Z</time>
  <course>0.0</course>
  <speed>0.0</speed>
  <fix>3d</fix>
</trkpt>
<trkpt lat="33.8103132" lon="-118.3938672">
  <ele>-0.126</ele>
  <time>2026-09-01T01:12:13Z</time>
  <course>186.2</course>
  <speed>0.022360679774997897</speed>
  <fix>3d</fix>
</trkpt>
<trkpt lat="33.810313" lon="-118.393867">
  <ele>-0.12</ele>
  <time>2026-09-01T01:12:13Z</time>
  <course>0.0</course>
  <speed>0.0</speed>
  <fix>3d</fix>
</trkpt>
<trkpt lat="33.8103132" lon="-118.3938672">
  <ele>-0.125</ele>
  <time>2026-09-01T01:12:13Z</time>
  <course>186.2</course>
  <speed>0.022360679774997897</speed>
  <fix>3d</fix>
</trkpt>
<trkpt lat="33.810313" lon="-118.393867">
  <ele>-0.12</ele>
  <time>2026-09-01T01:12:13Z</time>
  <course>0.0</course>
  <speed>0.0</speed>
  <fix>3d</fix>
</trkpt>
<trkpt lat="33.8103132" lon="-118.3938672">
  <ele>-0.126</ele>
  <time>2026-09-01T01:12:13Z</time>
  <course>186.2</course>
  <speed>0.022360679774997897</speed>
  <fix>3d</fix>
</trkpt>
<trkpt lat="33.810313" lon="-118.393867">
  <ele>-0.12</ele>
  <time>2026-09-01T01:12:13Z</time>
  <course>0.0</course>
  <speed>0.0</speed>
  <fix>3d</fix>
</trkpt>
<trkpt lat="33.8103132" lon="-118.3938672">
  <ele>-0.126</ele>
  <time>2026-09-01T01:12:13Z</time>
  <course>186.2</course>
  <speed>0.022360679774997897</speed>
  <fix>3d</fix>
</trkpt>
<trkpt lat="33.810313" lon="-118.393867">
  <ele>-0.12</ele>
  <time>2026-09-01T01:12:13Z</time>
  <course>0.0</course>
  <speed>0.0</speed>
  <fix>3d</fix>
</trkpt>
<trkpt lat="33.8103132" lon="-118.3938672">
  <ele>-0.126</ele>
  <time>2026-09-01T01:12:13Z</time>
  <course>186.2</course>
  <speed>0.022360679774997897</speed>
  <fix>3d</fix>
</trkpt>
<trkpt lat="33.810313" lon="-118.393867">
  <ele>-0.12</ele>
  <time>2026-09-01T01:12:13Z</time>
  <course>0.0</course>
  <speed>0.0</speed>
  <fix>3d</fix>
</trkpt>
<trkpt lat="33.8103132" lon="-118.3938672">
  <ele>-0.126</ele>
  <time>2026-09-01T01:12:13Z</time>
  <course>186.2</course>
  <speed>0.022360679774997897</speed>
  <fix>3d</fix>
</trkpt>
<trkpt lat="33.810313" lon="-118.393867">
  <ele>-0.12</ele>
  <time>2026-09-01T01:12:13Z</time>
  <course>0.0</course>
  <speed>0.0</speed>
  <fix>3d</fix>
</trkpt>
<trkpt lat="33.8103132" lon="-118.3938672">
  <ele>-0.126</ele>
  <time>2026-09-01T01:12:13Z</time>
  <course>186.2</course>
  <speed>0.022360679774997897</speed>
  <fix>3d</fix>
</trkpt>
<trkpt lat="33.810313" lon="-118.393867">
  <ele>-0.12</ele>
  <time>2026-09-01T01:12:13Z</time>
  <course>0.0</course>
  <speed>0.0</speed>
  <fix>3d</fix>
</trkpt>
<trkpt lat="33.8103132" lon="-118.3938672">
  <ele>-0.126</ele>
  <time>2026-09-01T01:12:13Z</time>
  <course>186.2</course>
  <speed>0.022360679774997897</speed>
  <fix>3d</fix>
</trkpt>
<trkpt lat="33.810313" lon="-118.393867">
  <ele>-0.12</ele>
  <time>2026-09-01T01:12:13Z</time>
  <course>0.0</course>
  <speed>0.0</speed>
  <fix>3d</fix>
</trkpt>
<trkpt lat="33.8103132" lon="-118.3938672">
  <ele>-0.125</ele>
  <time>2026-09-01T01:12:13Z</time>
  <course>186.2</course>
  <speed>0.022360679774997897</speed>
  <fix>3d</fix>
</trkpt>
<trkpt lat="33.810313" lon="-118.393867">
  <ele>-0.12</ele>
  <time>2026-09-01T01:12:13Z</time>
  <course>0.0</course>
  <speed>0.0</speed>
  <fix>3d</fix>
</trkpt>
<trkpt lat="33.8103132" lon="-118.3938672">
  <ele>-0.124</ele>
  <time>2026-09-01T01:12:13Z</time>
  <course>186.2</course>
  <speed>0.022360679774997897</speed>
  <fix>3d</fix>
</trkpt>
<trkpt lat="33.810313" lon="-118.393867">
  <ele>-0.12</ele>
  <time>2026-09-01T01:12:13Z</time>
  <course>0.0</course>
  <speed>0.0</speed>
  <fix>3d</fix>
</trkpt>
<trkpt lat="33.8103132" lon="-118.3938672">
  <ele>-0.124</ele>
  <time>2026-09-01T01:12:13Z</time>
  <course>186.2</course>
  <speed>0.022360679774997897</speed>
  <fix>3d</fix>
</trkpt>
<trkpt lat="33.810313" lon="-118.393867">
  <ele>-0.12</ele>
  <time>2026-09-01T01:12:13Z</time>
  <course>0.0</course>
  <speed>0.0</speed>
  <fix>3d</fix>
</trkpt>
<trkpt lat="33.8103132" lon="-118.3938672">
  <ele>-0.123</ele>
  <time>2026-09-01T01:12:13Z</time>
  <course>186.2</course>
  <speed>0.022360679774997897</speed>
  <fix>3d</fix>
</trkpt>
<trkpt lat="33.810313" lon="-118.393867">
  <ele>-0.12</ele>
  <time>2026-09-01T01:12:13Z</time>
  <course>0.0</course>
  <speed>0.0</speed>
  <fix>3d</fix>
</trkpt>
<trkpt lat="33.8103132" lon="-118.3938672">
  <ele>-0.123</ele>
  <time>2026-09-01T01:12:13Z</time>
  <course>186.2</course>
  <speed>0.022360679774997897</speed>
  <fix>3d</fix>
</trkpt>
<trkpt lat="33.810313" lon="-118.393867">
  <ele>-0.12</ele>
  <time>2026-09-01T01:12:13Z</time>
  <course>0.0</course>
  <speed>0.0</speed>
  <fix>3d</fix>
</trkpt>
<trkpt lat="33.8103132" lon="-118.3938672">
  <ele>-0.123</ele>
  <time>2026-09-01T01:12:13Z</time>
  <course>186.2</course>
  <speed>0.022360679774997897</speed>
  <fix>3d</fix>
</trkpt>
<trkpt lat="33.810313" lon="-118.393867">
  <ele>-0.12</ele>
  <time>2026-09-01T01:12:13Z</time>
  <course>0.0</course>
  <speed>0.0</speed>
  <fix>3d</fix>
</trkpt>
<trkpt lat="33.8103132" lon="-118.3938672">
  <ele>-0.123</ele>
  <time>2026-09-01T01:12:13Z</time>
  <course>186.2</course>
  <speed>0.022360679774997897</speed>
  <fix>3d</fix>
</trkpt>
<trkpt lat="33.810313" lon="-118.393867">
  <ele>-0.12</ele>
  <time>2026-09-01T01:12:13Z</time>
  <course>0.0</course>
  <speed>0.0</speed>
  <fix>3d</fix>
</trkpt>
<trkpt lat="33.8103132" lon="-118.3938672">
  <ele>-0.124</ele>
  <time>2026-09-01T01:12:13Z</time>
  <course>186.2</course>
  <speed>0.022360679774997897</speed>
  <fix>3d</fix>
</trkpt>
<trkpt lat="33.810313" lon="-118.393867">
  <ele>-0.12</ele>
  <time>2026-09-01T01:12:13Z</time>
  <course>0.0</course>
  <speed>0.0</speed>
  <fix>3d</fix>
</trkpt>
<trkpt lat="33.8103132" lon="-118.3938672">
  <ele>-0.123</ele>
  <time>2026-09-01T01:12:13Z</time>
  <course>186.2</course>
  <speed>0.022360679774997897</speed>
  <fix>3d</fix>
</trkpt>
<trkpt lat="33.810313" lon="-118.393867">
  <ele>-0.12</ele>
  <time>2026-09-01T01:12:13Z</time>
  <course>0.0</course>
  <speed>0.0</speed>
  <fix>3d</fix>
</trkpt>
<trkpt lat="33.8103132" lon="-118.3938672">
  <ele>-0.123</ele>
  <time>2026-09-01T01:12:13Z</time>
  <course>186.2</course>
  <speed>0.022360679774997897</speed>
  <fix>3d</fix>
</trkpt>
<trkpt lat="33.810313" lon="-118.393867">
  <ele>-0.12</ele>
  <time>2026-09-01T01:12:13Z</time>
  <course>0.0</course>
  <speed>0.0</speed>
  <fix>3d</fix>
</trkpt>
<trkpt lat="33.8103132" lon="-118.3938672">
  <ele>-0.122</ele>
  <time>2026-09-01T01:12:13Z</time>
  <course>186.2</course>
  <speed>0.022360679774997897</speed>
  <fix>3d</fix>
</trkpt>
<trkpt lat="33.810313" lon="-118.393867">
  <ele>-0.12</ele>
  <time>2026-09-01T01:12:13Z</time>
  <course>0.0</course>
  <speed>0.0</speed>
  <fix>3d</fix>
</trkpt>
<trkpt lat="33.8103132" lon="-118.3938672">
  <ele>-0.122</ele>
  <time>2026-09-01T01:12:13Z</time>
  <course>186.2</course>
  <speed>0.022360679774997897</speed>
  <fix>3d</fix>
</trkpt>
<trkpt lat="33.810313" lon="-118.393867">
  <ele>-0.12</ele>
  <time>2026-09-01T01:12:13Z</time>
  <course>0.0</course>
  <speed>0.0</speed>
  <fix>3d</fix>
</trkpt>
<trkpt lat="33.8103132" lon="-118.3938672">
  <ele>-0.122</ele>
  <time>2026-09-01T01:12:13Z</time>
  <course>186.2</course>
  <speed>0.022360679774997897</speed>
  <fix>3d</fix>
</trkpt>
<trkpt lat="33.810313" lon="-118.393867">
  <ele>-0.12</ele>
  <time>2026-09-01T01:12:13Z</time>
  <course>0.0</course>
  <speed>0.0</speed>
  <fix>3d</fix>
</trkpt>
<trkpt lat="33.8103132" lon="-118.3938672">
  <ele>-0.123</ele>
  <time>2026-09-01T01:12:13Z</time>
  <course>186.2</course>
  <speed>0.022360679774997897</speed>
  <fix>3d</fix>
</trkpt>
<trkpt lat="33.810313" lon="-118.393867">
  <ele>-0.12</ele>
  <time>2026-09-01T01:12:13Z</time>
  <course>0.0</course>
  <speed>0.0</speed>
  <fix>3d</fix>
</trkpt>
<trkpt lat="33.8103132" lon="-118.3938672">
  <ele>-0.124</ele>
  <time>2026-09-01T01:12:13Z</time>
  <course>186.2</course>
  <speed>0.022360679774997897</speed>
  <fix>3d</fix>
</trkpt>
<trkpt lat="33.810313" lon="-118.393867">
  <ele>-0.12</ele>
  <time>2026-09-01T01:12:13Z</time>
  <course>0.0</course>
  <speed>0.0</speed>
  <fix>3d</fix>
</trkpt>
<trkpt lat="33.8103132" lon="-118.3938672">
  <ele>-0.126</ele>
  <time>2026-09-01T01:12:13Z</time>
  <course>186.2</course>
  <speed>0.022360679774997897</speed>
  <fix>3d</fix>
</trkpt>
<trkpt lat="33.810313" lon="-118.393867">
  <ele>-0.12</ele>
  <time>2026-09-01T01:12:13Z</time>
  <course>0.0</course>
  <speed>0.0</speed>
  <fix>3d</fix>
</trkpt>
<trkpt lat="33.8103132" lon="-118.3938672">
  <ele>-0.129</ele>
  <time>2026-09-01T01:12:13Z</time>
  <course>186.2</course>
  <speed>0.022360679774997897</speed>
  <fix>3d</fix>
</trkpt>
<trkpt lat="33.810313" lon="-118.393867">
  <ele>-0.12</ele>
  <time>2026-09-01T01:12:13Z</time>
  <course>0.0</course>
  <speed>0.0</speed>
  <fix>3d</fix>
</trkpt>
<trkpt lat="33.8103132" lon="-118.3938672">
  <ele>-0.13</ele>
  <time>2026-09-01T01:12:13Z</time>
  <course>186.2</course>
  <speed>0.022360679774997897</speed>
  <fix>3d</fix>
</trkpt>
<trkpt lat="33.810313" lon="-118.393867">
  <ele>-0.12</ele>
  <time>2026-09-01T01:12:13Z</time>
  <course>0.0</course>
  <speed>0.0</speed>
  <fix>3d</fix>
</trkpt>
<trkpt lat="33.8103132" lon="-118.3938672">
  <ele>-0.131</ele>
  <time>2026-09-01T01:12:13Z</time>
  <course>186.2</course>
  <speed>0.022360679774997897</speed>
  <fix>3d</fix>
</trkpt>
<trkpt lat="33.810313" lon="-118.393867">
  <ele>-0.12</ele>
  <time>2026-09-01T01:12:13Z</time>
  <course>0.0</course>
  <speed>0.0</speed>
  <fix>3d</fix>
</trkpt>
<trkpt lat="33.8103132" lon="-118.3938672">
  <ele>-0.131</ele>
  <time>2026-09-01T01:12:13Z</time>
  <course>186.2</course>
  <speed>0.022360679774997897</speed>
  <fix>3d</fix>
</trkpt>
<trkpt lat="33.810313" lon="-118.393867">
  <ele>-0.12</ele>
  <time>2026-09-01T01:12:13Z</time>
  <course>0.0</course>
  <speed>0.0</speed>
  <fix>3d</fix>
</trkpt>
<trkpt lat="33.8103132" lon="-118.3938672">
  <ele>-0.131</ele>
  <time>2026-09-01T01:12:13Z</time>
  <course>186.2</course>
  <speed>0.022360679774997897</speed>
  <fix>3d</fix>
</trkpt>
<trkpt lat="33.810313" lon="-118.393867">
  <ele>-0.12</ele>
  <time>2026-09-01T01:12:13Z</time>
  <course>0.0</course>
  <speed>0.0</speed>
  <fix>3d</fix>
</trkpt>
<trkpt lat="33.8103132" lon="-118.3938672">
  <ele>-0.131</ele>
  <time>2026-09-01T01:12:13Z</time>
  <course>186.2</course>
  <speed>0.022360679774997897</speed>
  <fix>3d</fix>
</trkpt>
<trkpt lat="33.810313" lon="-118.393867">
  <ele>-0.12</ele>
  <time>2026-09-01T01:12:13Z</time>
  <course>0.0</course>
  <speed>0.0</speed>
  <fix>3d</fix>
</trkpt>
<trkpt lat="33.8103132" lon="-118.3938672">
  <ele>-0.132</ele>
  <time>2026-09-01T01:12:13Z</time>
  <course>186.2</course>
  <speed>0.022360679774997897</speed>
  <fix>3d</fix>
</trkpt>
<trkpt lat="33.810313" lon="-118.393867">
  <ele>-0.12</ele>
  <time>2026-09-01T01:12:13Z</time>
  <course>0.0</course>
  <speed>0.0</speed>
  <fix>3d</fix>
</trkpt>
<trkpt lat="33.8103132" lon="-118.3938672">
  <ele>-0.132</ele>
  <time>2026-09-01T01:12:13Z</time>
  <course>186.2</course>
  <speed>0.022360679774997897</speed>
  <fix>3d</fix>
</trkpt>
<trkpt lat="33.810313" lon="-118.393867">
  <ele>-0.12</ele>
  <time>2026-09-01T01:12:13Z</time>
  <course>0.0</course>
  <speed>0.0</speed>
  <fix>3d</fix>
</trkpt>
<trkpt lat="33.8103132" lon="-118.3938672">
  <ele>-0.133</ele>
  <time>2026-09-01T01:12:13Z</time>
  <course>186.2</course>
  <speed>0.022360679774997897</speed>
  <fix>3d</fix>
</trkpt>
<trkpt lat="33.810313" lon="-118.393867">
  <ele>-0.12</ele>
  <time>2026-09-01T01:12:13Z</time>
  <course>0.0</course>
  <speed>0.0</speed>
  <fix>3d</fix>
</trkpt>
<trkpt lat="33.8103132" lon="-118.3938672">
  <ele>-0.134</ele>
  <time>2026-09-01T01:12:13Z</time>
  <course>186.2</course>
  <speed>0.022360679774997897</speed>
  <fix>3d</fix>
</trkpt>
<trkpt lat="33.810313" lon="-118.393867">
  <ele>-0.12</ele>
  <time>2026-09-01T01:12:13Z</time>
  <course>0.0</course>
  <speed>0.0</speed>
  <fix>3d</fix>
</trkpt>
<trkpt lat="33.8103132" lon="-118.3938672">
  <ele>-0.133</ele>
  <time>2026-09-01T01:12:13Z</time>
  <course>186.2</course>
  <speed>0.022360679774997897</speed>
  <fix>3d</fix>
</trkpt>
<trkpt lat="33.810313" lon="-118.393867">
  <ele>-0.12</ele>
  <time>2026-09-01T01:12:13Z</time>
  <course>0.0</course>
  <speed>0.0</speed>
  <fix>3d</fix>
</trkpt>
<trkpt lat="33.8103132" lon="-118.3938672">
  <ele>-0.132</ele>
  <time>2026-09-01T01:12:13Z</time>
  <course>186.2</course>
  <speed>0.022360679774997897</speed>
  <fix>3d</fix>
</trkpt>
<trkpt lat="33.810313" lon="-118.393867">
  <ele>-0.12</ele>
  <time>2026-09-01T01:12:13Z</time>
  <course>0.0</course>
  <speed>0.0</speed>
  <fix>3d</fix>
</trkpt>
<trkpt lat="33.8103132" lon="-118.3938672">
  <ele>-0.13</ele>
  <time>2026-09-01T01:12:13Z</time>
  <course>186.2</course>
  <speed>0.022360679774997897</speed>
  <fix>3d</fix>
</trkpt>
<trkpt lat="33.810313" lon="-118.393867">
  <ele>-0.12</ele>
  <time>2026-09-01T01:12:13Z</time>
  <course>0.0</course>
  <speed>0.0</speed>
  <fix>3d</fix>
</trkpt>
<trkpt lat="33.8103132" lon="-118.3938672">
  <ele>-0.128</ele>
  <time>2026-09-01T01:12:13Z</time>
  <course>186.2</course>
  <speed>0.022360679774997897</speed>
  <fix>3d</fix>
</trkpt>
<trkpt lat="33.810313" lon="-118.393867">
  <ele>-0.12</ele>
  <time>2026-09-01T01:12:13Z</time>
  <course>0.0</course>
  <speed>0.0</speed>
  <fix>3d</fix>
</trkpt>
<trkpt lat="33.8103132" lon="-118.3938672">
  <ele>-0.127</ele>
  <time>2026-09-01T01:12:13Z</time>
  <course>186.2</course>
  <speed>0.022360679774997897</speed>
  <fix>3d</fix>
</trkpt>
<trkpt lat="33.810313" lon="-118.393867">
  <ele>-0.12</ele>
  <time>2026-09-01T01:12:13Z</time>
  <course>0.0</course>
  <speed>0.0</speed>
  <fix>3d</fix>
</trkpt>
<trkpt lat="33.8103132" lon="-118.3938672">
  <ele>-0.126</ele>
  <time>2026-09-01T01:12:13Z</time>
  <course>186.2</course>
  <speed>0.022360679774997897</speed>
  <fix>3d</fix>
</trkpt>
<trkpt lat="33.810313" lon="-118.393867">
  <ele>-0.12</ele>
  <time>2026-09-01T01:12:13Z</time>
  <course>0.0</course>
  <speed>0.0</speed>
  <fix>3d</fix>
</trkpt>
<trkpt lat="33.8103132" lon="-118.3938672">
  <ele>-0.126</ele>
  <time>2026-09-01T01:12:13Z</time>
  <course>186.2</course>
  <speed>0.022360679774997897</speed>
  <fix>3d</fix>
</trkpt>
<trkpt lat="33.810313" lon="-118.393867">
  <ele>-0.12</ele>
  <time>2026-09-01T01:12:13Z</time>
  <course>0.0</course>
  <speed>0.0</speed>
  <fix>3d</fix>
</trkpt>
<trkpt lat="33.8103132" lon="-118.3938672">
  <ele>-0.125</ele>
  <time>2026-09-01T01:12:13Z</time>
  <course>186.2</course>
  <speed>0.022360679774997897</speed>
  <fix>3d</fix>
</trkpt>
<trkpt lat="33.810313" lon="-118.393867">
  <ele>-0.12</ele>
  <time>2026-09-01T01:12:13Z</time>
  <course>0.0</course>
  <speed>0.0</speed>
  <fix>3d</fix>
</trkpt>
<trkpt lat="33.8103132" lon="-118.3938672">
  <ele>-0.125</ele>
  <time>2026-09-01T01:12:13Z</time>
  <course>186.2</course>
  <speed>0.022360679774997897</speed>
  <fix>3d</fix>
</trkpt>
<trkpt lat="33.810313" lon="-118.393867">
  <ele>-0.12</ele>
  <time>2026-09-01T01:12:13Z</time>
  <course>0.0</course>
  <speed>0.0</speed>
  <fix>3d</fix>
</trkpt>
<trkpt lat="33.8103132" lon="-118.3938672">
  <ele>-0.125</ele>
  <time>2026-09-01T01:12:13Z</time>
  <course>186.2</course>
  <speed>0.022360679774997897</speed>
  <fix>3d</fix>
</trkpt>
<trkpt lat="33.810313" lon="-118.393867">
  <ele>-0.12</ele>
  <time>2026-09-01T01:12:13Z</time>
  <course>0.0</course>
  <speed>0.0</speed>
  <fix>3d</fix>
</trkpt>
<trkpt lat="33.8103132" lon="-118.3938672">
  <ele>-0.124</ele>
  <time>2026-09-01T01:12:13Z</time>
  <course>186.2</course>
  <speed>0.022360679774997897</speed>
  <fix>3d</fix>
</trkpt>
<trkpt lat="33.810313" lon="-118.393867">
  <ele>-0.12</ele>
  <time>2026-09-01T01:12:13Z</time>
  <course>0.0</course>
  <speed>0.0</speed>
  <fix>3d</fix>
</trkpt>
<trkpt lat="33.8103132" lon="-118.3938672">
  <ele>-0.123</ele>
  <time>2026-09-01T01:12:13Z</time>
  <course>186.2</course>
  <speed>0.022360679774997897</speed>
  <fix>3d</fix>
</trkpt>
<trkpt lat="33.810313" lon="-118.393867">
  <ele>-0.12</ele>
  <time>2026-09-01T01:12:13Z</time>
  <course>0.0</course>
  <speed>0.0</speed>
  <fix>3d</fix>
</trkpt>
<trkpt lat="33.8103132" lon="-118.3938672">
  <ele>-0.124</ele>
  <time>2026-09-01T01:12:13Z</time>
  <course>186.2</course>
  <speed>0.022360679774997897</speed>
  <fix>3d</fix>
</trkpt>
<trkpt lat="33.810313" lon="-118.393867">
  <ele>-0.12</ele>
  <time>2026-09-01T01:12:13Z</time>
  <course>0.0</course>
  <speed>0.0</speed>
  <fix>3d</fix>
</trkpt>
<trkpt lat="33.8103132" lon="-118.3938672">
  <ele>-0.126</ele>
  <time>2026-09-01T01:12:13Z</time>
  <course>186.2</course>
  <speed>0.022360679774997897</speed>
  <fix>3d</fix>
</trkpt>
<trkpt lat="33.810313" lon="-118.393867">
  <ele>-0.12</ele>
  <time>2026-09-01T01:12:13Z</time>
  <course>0.0</course>
  <speed>0.0</speed>
  <fix>3d</fix>
</trkpt>
<trkpt lat="33.8103132" lon="-118.3938672">
  <ele>-0.128</ele>
  <time>2026-09-01T01:12:13Z</time>
  <course>186.2</course>
  <speed>0.022360679774997897</speed>
  <fix>3d</fix>
</trkpt>
<trkpt lat="33.810313" lon="-118.393867">
  <ele>-0.12</ele>
  <time>2026-09-01T01:12:13Z</time>
  <course>0.0</course>
  <speed>0.0</speed>
  <fix>3d</fix>
</trkpt>
<trkpt lat="33.8103132" lon="-118.3938672">
  <ele>-0.13</ele>
  <time>2026-09-01T01:12:13Z</time>
  <course>186.2</course>
  <speed>0.022360679774997897</speed>
  <fix>3d</fix>
</trkpt>
<trkpt lat="33.810313" lon="-118.393867">
  <ele>-0.12</ele>
  <time>2026-09-01T01:12:13Z</time>
  <course>0.0</course>
  <speed>0.0</speed>
  <fix>3d</fix>
</trkpt>
<trkpt lat="33.8103132" lon="-118.3938672">
  <ele>-0.132</ele>
  <time>2026-09-01T01:12:13Z</time>
  <course>186.2</course>
  <speed>0.022360679774997897</speed>
  <fix>3d</fix>
</trkpt>
<trkpt lat="33.810313" lon="-118.393867">
  <ele>-0.12</ele>
  <time>2026-09-01T01:12:13Z</time>
  <course>0.0</course>
  <speed>0.0</speed>
  <fix>3d</fix>
</trkpt>
<trkpt lat="33.8103132" lon="-118.3938672">
  <ele>-0.133</ele>
  <time>2026-09-01T01:12:13Z</time>
  <course>186.2</course>
  <speed>0.022360679774997897</speed>
  <fix>3d</fix>
</trkpt>
<trkpt lat="33.810313" lon="-118.393867">
  <ele>-0.12</ele>
  <time>2026-09-01T01:12:13Z</time>
  <course>0.0</course>
  <speed>0.0</speed>
  <fix>3d</fix>
</trkpt>
<trkpt lat="33.8103132" lon="-118.3938672">
  <ele>-0.135</ele>
  <time>2026-09-01T01:12:13Z</time>
  <course>186.2</course>
  <speed>0.022360679774997897</speed>
  <fix>3d</fix>
</trkpt>
<trkpt lat="33.810313" lon="-118.393867">
  <ele>-0.12</ele>
  <time>2026-09-01T01:12:13Z</time>
  <course>0.0</course>
  <speed>0.0</speed>
  <fix>3d</fix>
</trkpt>
<trkpt lat="33.8103132" lon="-118.3938672">
  <ele>-0.135</ele>
  <time>2026-09-01T01:12:13Z</time>
  <course>186.2</course>
  <speed>0.0282842712474619</speed>
  <fix>3d</fix>
</trkpt>
<trkpt lat="33.810313" lon="-118.393867">
  <ele>-0.12</ele>
  <time>2026-09-01T01:12:13Z</time>
  <course>0.0</course>
  <speed>0.0</speed>
  <fix>3d</fix>
</trkpt>
<trkpt lat="33.8103132" lon="-118.3938672">
  <ele>-0.134</ele>
  <time>2026-09-01T01:12:13Z</time>
  <course>186.2</course>
  <speed>0.0282842712474619</speed>
  <fix>3d</fix>
</trkpt>
<trkpt lat="33.810313" lon="-118.393867">
  <ele>-0.12</ele>
  <time>2026-09-01T01:12:13Z</time>
  <course>0.0</course>
  <speed>0.0</speed>
  <fix>3d</fix>
</trkpt>
<trkpt lat="33.8103132" lon="-118.3938672">
  <ele>-0.133</ele>
  <time>2026-09-01T01:12:13Z</time>
  <course>186.2</course>
  <speed>0.0282842712474619</speed>
  <fix>3d</fix>
</trkpt>
<trkpt lat="33.810313" lon="-118.393867">
  <ele>-0.12</ele>
  <time>2026-09-01T01:12:13Z</time>
  <course>0.0</course>
  <speed>0.0</speed>
  <fix>3d</fix>
</trkpt>
<trkpt lat="33.8103132" lon="-118.3938672">
  <ele>-0.131</ele>
  <time>2026-09-01T01:12:13Z</time>
  <course>186.2</course>
  <speed>0.0282842712474619</speed>
  <fix>3d</fix>
</trkpt>
<trkpt lat="33.810313" lon="-118.393867">
  <ele>-0.12</ele>
  <time>2026-09-01T01:12:13Z</time>
  <course>0.0</course>
  <speed>0.0</speed>
  <fix>3d</fix>
</trkpt>
<trkpt lat="33.8103132" lon="-118.3938672">
  <ele>-0.128</ele>
  <time>2026-09-01T01:12:13Z</time>
  <course>186.2</course>
  <speed>0.0282842712474619</speed>
  <fix>3d</fix>
</trkpt>
<trkpt lat="33.810313" lon="-118.393867">
  <ele>-0.12</ele>
  <time>2026-09-01T01:12:13Z</time>
  <course>0.0</course>
  <speed>0.0</speed>
  <fix>3d</fix>
</trkpt>
<trkpt lat="33.8103132" lon="-118.3938672">
  <ele>-0.126</ele>
  <time>2026-09-01T01:12:13Z</time>
  <course>186.2</course>
  <speed>0.0282842712474619</speed>
  <fix>3d</fix>
</trkpt>
<trkpt lat="33.810313" lon="-118.393867">
  <ele>-0.12</ele>
  <time>2026-09-01T01:12:13Z</time>
  <course>0.0</course>
  <speed>0.0</speed>
  <fix>3d</fix>
</trkpt>
<trkpt lat="33.8103132" lon="-118.3938672">
  <ele>-0.125</ele>
  <time>2026-09-01T01:12:13Z</time>
  <course>186.2</course>
  <speed>0.0282842712474619</speed>
  <fix>3d</fix>
</trkpt>
<trkpt lat="33.810313" lon="-118.393867">
  <ele>-0.12</ele>
  <time>2026-09-01T01:12:13Z</time>
  <course>0.0</course>
  <speed>0.0</speed>
  <fix>3d</fix>
</trkpt>
<trkpt lat="33.8103132" lon="-118.3938672">
  <ele>-0.124</ele>
  <time>2026-09-01T01:12:13Z</time>
  <course>186.2</course>
  <speed>0.0282842712474619</speed>
  <fix>3d</fix>
</trkpt>
<trkpt lat="33.810313" lon="-118.393867">
  <ele>-0.12</ele>
  <time>2026-09-01T01:12:13Z</time>
  <course>0.0</course>
  <speed>0.0</speed>
  <fix>3d</fix>
</trkpt>
<trkpt lat="33.8103132" lon="-118.3938672">
  <ele>-0.123</ele>
  <time>2026-09-01T01:12:13Z</time>
  <course>186.2</course>
  <speed>0.0282842712474619</speed>
  <fix>3d</fix>
</trkpt>
<trkpt lat="33.810313" lon="-118.393867">
  <ele>-0.12</ele>
  <time>2026-09-01T01:12:13Z</time>
  <course>0.0</course>
  <speed>0.0</speed>
  <fix>3d</fix>
</trkpt>
<trkpt lat="33.8103132" lon="-118.3938672">
  <ele>-0.123</ele>
  <time>2026-09-01T01:12:13Z</time>
  <course>186.2</course>
  <speed>0.0282842712474619</speed>
  <fix>3d</fix>
</trkpt>
<trkpt lat="33.810313" lon="-118.393867">
  <ele>-0.12</ele>
  <time>2026-09-01T01:12:13Z</time>
  <course>0.0</course>
  <speed>0.0</speed>
  <fix>3d</fix>
</trkpt>
<trkpt lat="33.8103132" lon="-118.3938672">
  <ele>-0.124</ele>
  <time>2026-09-01T01:12:13Z</time>
  <course>186.2</course>
  <speed>0.0282842712474619</speed>
  <fix>3d</fix>
</trkpt>
<trkpt lat="33.810313" lon="-118.393867">
  <ele>-0.12</ele>
  <time>2026-09-01T01:12:13Z</time>
  <course>0.0</course>
  <speed>0.0</speed>
  <fix>3d</fix>
</trkpt>
<trkpt lat="33.8103132" lon="-118.3938672">
  <ele>-0.124</ele>
  <time>2026-09-01T01:12:13Z</time>
  <course>186.2</course>
  <speed>0.0282842712474619</speed>
  <fix>3d</fix>
</trkpt>
<trkpt lat="33.810313" lon="-118.393867">
  <ele>-0.12</ele>
  <time>2026-09-01T01:12:13Z</time>
  <course>0.0</course>
  <speed>0.0</speed>
  <fix>3d</fix>
</trkpt>
<trkpt lat="33.8103132" lon="-118.3938672">
  <ele>-0.124</ele>
  <time>2026-09-01T01:12:13Z</time>
  <course>186.2</course>
  <speed>0.0282842712474619</speed>
  <fix>3d</fix>
</trkpt>
<trkpt lat="33.810313" lon="-118.393867">
  <ele>-0.12</ele>
  <time>2026-09-01T01:12:13Z</time>
  <course>0.0</course>
  <speed>0.0</speed>
  <fix>3d</fix>
</trkpt>
<trkpt lat="33.8103132" lon="-118.3938672">
  <ele>-0.125</ele>
  <time>2026-09-01T01:12:13Z</time>
  <course>186.2</course>
  <speed>0.0282842712474619</speed>
  <fix>3d</fix>
</trkpt>
<trkpt lat="33.810313" lon="-118.393867">
  <ele>-0.12</ele>
  <time>2026-09-01T01:12:13Z</time>
  <course>0.0</course>
  <speed>0.0</speed>
  <fix>3d</fix>
</trkpt>
<trkpt lat="33.8103132" lon="-118.3938672">
  <ele>-0.126</ele>
  <time>2026-09-01T01:12:13Z</time>
  <course>186.2</course>
  <speed>0.0282842712474619</speed>
  <fix>3d</fix>
</trkpt>
<trkpt lat="33.810313" lon="-118.393867">
  <ele>-0.12</ele>
  <time>2026-09-01T01:12:13Z</time>
  <course>0.0</course>
  <speed>0.0</speed>
  <fix>3d</fix>
</trkpt>
<trkpt lat="33.8103132" lon="-118.3938672">
  <ele>-0.126</ele>
  <time>2026-09-01T01:12:13Z</time>
  <course>186.2</course>
  <speed>0.0282842712474619</speed>
  <fix>3d</fix>
</trkpt>
<trkpt lat="33.810313" lon="-118.393867">
  <ele>-0.12</ele>
  <time>2026-09-01T01:12:13Z</time>
  <course>0.0</course>
  <speed>0.0</speed>
  <fix>3d</fix>
</trkpt>
<trkpt lat="33.8103132" lon="-118.3938672">
  <ele>-0.126</ele>
  <time>2026-09-01T01:12:13Z</time>
  <course>186.2</course>
  <speed>0.0282842712474619</speed>
  <fix>3d</fix>
</trkpt>
<trkpt lat="33.810313" lon="-118.393867">
  <ele>-0.12</ele>
  <time>2026-09-01T01:12:13Z</time>
  <course>0.0</course>
  <speed>0.0</speed>
  <fix>3d</fix>
</trkpt>
<trkpt lat="33.8103132" lon="-118.3938672">
  <ele>-0.127</ele>
  <time>2026-09-01T01:12:13Z</time>
  <course>186.2</course>
  <speed>0.0282842712474619</speed>
  <fix>3d</fix>
</trkpt>
<trkpt lat="33.810313" lon="-118.393867">
  <ele>-0.12</ele>
  <time>2026-09-01T01:12:13Z</time>
  <course>0.0</course>
  <speed>0.0</speed>
  <fix>3d</fix>
</trkpt>
<trkpt lat="33.8103132" lon="-118.3938672">
  <ele>-0.129</ele>
  <time>2026-09-01T01:12:13Z</time>
  <course>186.2</course>
  <speed>0.0282842712474619</speed>
  <fix>3d</fix>
</trkpt>
<trkpt lat="33.810313" lon="-118.393867">
  <ele>-0.12</ele>
  <time>2026-09-01T01:12:13Z</time>
  <course>0.0</course>
  <speed>0.0</speed>
  <fix>3d</fix>
</trkpt>
<trkpt lat="33.8103132" lon="-118.3938672">
  <ele>-0.13</ele>
  <time>2026-09-01T01:12:13Z</time>
  <course>186.2</course>
  <speed>0.0282842712474619</speed>
  <fix>3d</fix>
</trkpt>
<trkpt lat="33.810313" lon="-118.393867">
  <ele>-0.12</ele>
  <time>2026-09-01T01:12:13Z</time>
  <course>0.0</course>
  <speed>0.0</speed>
  <fix>3d</fix>
</trkpt>
<trkpt lat="33.8103132" lon="-118.3938672">
  <ele>-0.131</ele>
  <time>2026-09-01T01:12:13Z</time>
  <course>186.2</course>
  <speed>0.0282842712474619</speed>
  <fix>3d</fix>
</trkpt>
<trkpt lat="33.810313" lon="-118.393867">
  <ele>-0.12</ele>
  <time>2026-09-01T01:12:13Z</time>
  <course>0.0</course>
  <speed>0.0</speed>
  <fix>3d</fix>
</trkpt>
<trkpt lat="33.8103132" lon="-118.3938672">
  <ele>-0.132</ele>
  <time>2026-09-01T01:12:13Z</time>
  <course>186.2</course>
  <speed>0.0282842712474619</speed>
  <fix>3d</fix>
</trkpt>
<trkpt lat="33.810313" lon="-118.393867">
  <ele>-0.12</ele>
  <time>2026-09-01T01:12:13Z</time>
  <course>0.0</course>
  <speed>0.0</speed>
  <fix>3d</fix>
</trkpt>
<trkpt lat="33.8103132" lon="-118.3938672">
  <ele>-0.132</ele>
  <time>2026-09-01T01:12:13Z</time>
  <course>186.2</course>
  <speed>0.0282842712474619</speed>
  <fix>3d</fix>
</trkpt>
<trkpt lat="33.810313" lon="-118.393867">
  <ele>-0.12</ele>
  <time>2026-09-01T01:12:13Z</time>
  <course>0.0</course>
  <speed>0.0</speed>
  <fix>3d</fix>
</trkpt>
<trkpt lat="33.8103132" lon="-118.3938672">
  <ele>-0.133</ele>
  <time>2026-09-01T01:12:13Z</time>
  <course>186.2</course>
  <speed>0.0282842712474619</speed>
  <fix>3d</fix>
</trkpt>
<trkpt lat="33.810313" lon="-118.393867">
  <ele>-0.12</ele>
  <time>2026-09-01T01:12:13Z</time>
  <course>0.0</course>
  <speed>0.0</speed>
  <fix>3d</fix>
</trkpt>
<trkpt lat="33.8103132" lon="-118.3938672">
  <ele>-0.132</ele>
  <time>2026-09-01T01:12:13Z</time>
  <course>186.2</course>
  <speed>0.0282842712474619</speed>
  <fix>3d</fix>
</trkpt>
<trkpt lat="33.810313" lon="-118.393867">
  <ele>-0.12</ele>
  <time>2026-09-01T01:12:13Z</time>
  <course>0.0</course>
  <speed>0.0</speed>
  <fix>3d</fix>
</trkpt>
<trkpt lat="33.8103132" lon="-118.3938672">
  <ele>-0.132</ele>
  <time>2026-09-01T01:12:13Z</time>
  <course>186.2</course>
  <speed>0.0282842712474619</speed>
  <fix>3d</fix>
</trkpt>
<trkpt lat="33.810313" lon="-118.393867">
  <ele>-0.12</ele>
  <time>2026-09-01T01:12:13Z</time>
  <course>0.0</course>
  <speed>0.0</speed>
  <fix>3d</fix>
</trkpt>
<trkpt lat="33.8103132" lon="-118.3938672">
  <ele>-0.133</ele>
  <time>2026-09-01T01:12:13Z</time>
  <course>186.2</course>
  <speed>0.0282842712474619</speed>
  <fix>3d</fix>
</trkpt>
<trkpt lat="33.810313" lon="-118.393867">
  <ele>-0.12</ele>
  <time>2026-09-01T01:12:13Z</time>
  <course>0.0</course>
  <speed>0.0</speed>
  <fix>3d</fix>
</trkpt>
<trkpt lat="33.8103132" lon="-118.3938672">
  <ele>-0.133</ele>
  <time>2026-09-01T01:12:13Z</time>
  <course>186.2</course>
  <speed>0.0282842712474619</speed>
  <fix>3d</fix>
</trkpt>
<trkpt lat="33.810313" lon="-118.393867">
  <ele>-0.12</ele>
  <time>2026-09-01T01:12:13Z</time>
  <course>0.0</course>
  <speed>0.0</speed>
  <fix>3d</fix>
</trkpt>
<trkpt lat="33.8103132" lon="-118.3938672">
  <ele>-0.133</ele>
  <time>2026-09-01T01:12:13Z</time>
  <course>186.2</course>
  <speed>0.0282842712474619</speed>
  <fix>3d</fix>
</trkpt>
<trkpt lat="33.810313" lon="-118.393867">
  <ele>-0.12</ele>
  <time>2026-09-01T01:12:13Z</time>
  <course>0.0</course>
  <speed>0.0</speed>
  <fix>3d</fix>
</trkpt>
<trkpt lat="33.8103132" lon="-118.3938672">
  <ele>-0.133</ele>
  <time>2026-09-01T01:12:13Z</time>
  <course>186.2</course>
  <speed>0.022360679774997897</speed>
  <fix>3d</fix>
</trkpt>
<trkpt lat="33.810313" lon="-118.393867">
  <ele>-0.12</ele>
  <time>2026-09-01T01:12:13Z</time>
  <course>0.0</course>
  <speed>0.0</speed>
  <fix>3d</fix>
</trkpt>
<trkpt lat="33.8103132" lon="-118.3938672">
  <ele>-0.133</ele>
  <time>2026-09-01T01:12:13Z</time>
  <course>186.2</course>
  <speed>0.022360679774997897</speed>
  <fix>3d</fix>
</trkpt>
<trkpt lat="33.810313" lon="-118.393867">
  <ele>-0.12</ele>
  <time>2026-09-01T01:12:13Z</time>
  <course>0.0</course>
  <speed>0.0</speed>
  <fix>3d</fix>
</trkpt>
<trkpt lat="33.8103132" lon="-118.3938672">
  <ele>-0.133</ele>
  <time>2026-09-01T01:12:13Z</time>
  <course>186.2</course>
  <speed>0.022360679774997897</speed>
  <fix>3d</fix>
</trkpt>
<trkpt lat="33.810313" lon="-118.393867">
  <ele>-0.12</ele>
  <time>2026-09-01T01:12:13Z</time>
  <course>0.0</course>
  <speed>0.0</speed>
  <fix>3d</fix>
</trkpt>
<trkpt lat="33.8103132" lon="-118.3938672">
  <ele>-0.132</ele>
  <time>2026-09-01T01:12:13Z</time>
  <course>186.2</course>
  <speed>0.022360679774997897</speed>
  <fix>3d</fix>
</trkpt>
<trkpt lat="33.810313" lon="-118.393867">
  <ele>-0.12</ele>
  <time>2026-09-01T01:12:13Z</time>
  <course>0.0</course>
  <speed>0.0</speed>
  <fix>3d</fix>
</trkpt>
<trkpt lat="33.8103132" lon="-118.3938672">
  <ele>-0.133</ele>
  <time>2026-09-01T01:12:13Z</time>
  <course>186.2</course>
  <speed>0.022360679774997897</speed>
  <fix>3d</fix>
</trkpt>
<trkpt lat="33.810313" lon="-118.393867">
  <ele>-0.12</ele>
  <time>2026-09-01T01:12:13Z</time>
  <course>0.0</course>
  <speed>0.0</speed>
  <fix>3d</fix>
</trkpt>
<trkpt lat="33.8103132" lon="-118.3938672">
  <ele>-0.133</ele>
  <time>2026-09-01T01:12:13Z</time>
  <course>186.2</course>
  <speed>0.022360679774997897</speed>
  <fix>3d</fix>
</trkpt>
<trkpt lat="33.810313" lon="-118.393867">
  <ele>-0.12</ele>
  <time>2026-09-01T01:12:13Z</time>
  <course>0.0</course>
  <speed>0.0</speed>
  <fix>3d</fix>
</trkpt>
<trkpt lat="33.8103132" lon="-118.3938672">
  <ele>-0.133</ele>
  <time>2026-09-01T01:12:13Z</time>
  <course>186.2</course>
  <speed>0.022360679774997897</speed>
  <fix>3d</fix>
</trkpt>
<trkpt lat="33.810313" lon="-118.393867">
  <ele>-0.12</ele>
  <time>2026-09-01T01:12:13Z</time>
  <course>0.0</course>
  <speed>0.0</speed>
  <fix>3d</fix>
</trkpt>
<trkpt lat="33.8103132" lon="-118.3938672">
  <ele>-0.132</ele>
  <time>2026-09-01T01:12:13Z</time>
  <course>186.2</course>
  <speed>0.022360679774997897</speed>
  <fix>3d</fix>
</trkpt>
<trkpt lat="33.810313" lon="-118.393867">
  <ele>-0.12</ele>
  <time>2026-09-01T01:12:13Z</time>
  <course>0.0</course>
  <speed>0.0</speed>
  <fix>3d</fix>
</trkpt>
<trkpt lat="33.8103132" lon="-118.3938672">
  <ele>-0.132</ele>
  <time>2026-09-01T01:12:13Z</time>
  <course>186.2</course>
  <speed>0.022360679774997897</speed>
  <fix>3d</fix>
</trkpt>
<trkpt lat="33.810313" lon="-118.393867">
  <ele>-0.12</ele>
  <time>2026-09-01T01:12:13Z</time>
  <course>0.0</course>
  <speed>0.0</speed>
  <fix>3d</fix>
</trkpt>
<trkpt lat="33.8103132" lon="-118.3938672">
  <ele>-0.131</ele>
  <time>2026-09-01T01:12:13Z</time>
  <course>186.2</course>
  <speed>0.022360679774997897</speed>
  <fix>3d</fix>
</trkpt>
<trkpt lat="33.810313" lon="-118.393867">
  <ele>-0.12</ele>
  <time>2026-09-01T01:12:13Z</time>
  <course>0.0</course>
  <speed>0.0</speed>
  <fix>3d</fix>
</trkpt>
<trkpt lat="33.8103132" lon="-118.3938672">
  <ele>-0.13</ele>
  <time>2026-09-01T01:12:13Z</time>
  <course>186.2</course>
  <speed>0.022360679774997897</speed>
  <fix>3d</fix>
</trkpt>
<trkpt lat="33.810313" lon="-118.393867">
  <ele>-0.12</ele>
  <time>2026-09-01T01:12:13Z</time>
  <course>0.0</course>
  <speed>0.0</speed>
  <fix>3d</fix>
</trkpt>
<trkpt lat="33.8103132" lon="-118.3938672">
  <ele>-0.129</ele>
  <time>2026-09-01T01:12:13Z</time>
  <course>186.2</course>
  <speed>0.022360679774997897</speed>
  <fix>3d</fix>
</trkpt>
<trkpt lat="33.810313" lon="-118.393867">
  <ele>-0.12</ele>
  <time>2026-09-01T01:12:13Z</time>
  <course>0.0</course>
  <speed>0.0</speed>
  <fix>3d</fix>
</trkpt>
<trkpt lat="33.8103132" lon="-118.3938672">
  <ele>-0.129</ele>
  <time>2026-09-01T01:12:13Z</time>
  <course>186.2</course>
  <speed>0.022360679774997897</speed>
  <fix>3d</fix>
</trkpt>
<trkpt lat="33.810313" lon="-118.393867">
  <ele>-0.12</ele>
  <time>2026-09-01T01:12:13Z</time>
  <course>0.0</course>
  <speed>0.0</speed>
  <fix>3d</fix>
</trkpt>
<trkpt lat="33.8103132" lon="-118.3938672">
  <ele>-0.129</ele>
  <time>2026-09-01T01:12:13Z</time>
  <course>186.2</course>
  <speed>0.022360679774997897</speed>
  <fix>3d</fix>
</trkpt>
<trkpt lat="33.810313" lon="-118.393867">
  <ele>-0.12</ele>
  <time>2026-09-01T01:12:13Z</time>
  <course>0.0</course>
  <speed>0.0</speed>
  <fix>3d</fix>
</trkpt>
<trkpt lat="33.8103132" lon="-118.3938672">
  <ele>-0.129</ele>
  <time>2026-09-01T01:12:13Z</time>
  <course>186.2</course>
  <speed>0.022360679774997897</speed>
  <fix>3d</fix>
</trkpt>
<trkpt lat="33.810313" lon="-118.393867">
  <ele>-0.12</ele>
  <time>2026-09-01T01:12:13Z</time>
  <course>0.0</course>
  <speed>0.0</speed>
  <fix>3d</fix>
</trkpt>
<trkpt lat="33.8103132" lon="-118.3938672">
  <ele>-0.13</ele>
  <time>2026-09-01T01:12:13Z</time>
  <course>186.2</course>
  <speed>0.022360679774997897</speed>
  <fix>3d</fix>
</trkpt>
<trkpt lat="33.810313" lon="-118.393867">
  <ele>-0.12</ele>
  <time>2026-09-01T01:12:13Z</time>
  <course>0.0</course>
  <speed>0.0</speed>
  <fix>3d</fix>
</trkpt>
<trkpt lat="33.8103132" lon="-118.3938672">
  <ele>-0.131</ele>
  <time>2026-09-01T01:12:13Z</time>
  <course>186.2</course>
  <speed>0.022360679774997897</speed>
  <fix>3d</fix>
</trkpt>
<trkpt lat="33.810313" lon="-118.393867">
  <ele>-0.12</ele>
  <time>2026-09-01T01:12:13Z</time>
  <course>0.0</course>
  <speed>0.0</speed>
  <fix>3d</fix>
</trkpt>
<trkpt lat="33.8103132" lon="-118.3938672">
  <ele>-0.131</ele>
  <time>2026-09-01T01:12:13Z</time>
  <course>186.2</course>
  <speed>0.0282842712474619</speed>
  <fix>3d</fix>
</trkpt>
<trkpt lat="33.810313" lon="-118.393867">
  <ele>-0.12</ele>
  <time>2026-09-01T01:12:13Z</time>
  <course>0.0</course>
  <speed>0.0</speed>
  <fix>3d</fix>
</trkpt>
<trkpt lat="33.8103132" lon="-118.3938672">
  <ele>-0.13</ele>
  <time>2026-09-01T01:12:13Z</time>
  <course>186.2</course>
  <speed>0.0282842712474619</speed>
  <fix>3d</fix>
</trkpt>
<trkpt lat="33.810313" lon="-118.393867">
  <ele>-0.12</ele>
  <time>2026-09-01T01:12:13Z</time>
  <course>0.0</course>
  <speed>0.0</speed>
  <fix>3d</fix>
</trkpt>
<trkpt lat="33.8103132" lon="-118.3938672">
  <ele>-0.129</ele>
  <time>2026-09-01T01:12:13Z</time>
  <course>186.2</course>
  <speed>0.0282842712474619</speed>
  <fix>3d</fix>
</trkpt>
<trkpt lat="33.810313" lon="-118.393867">
  <ele>-0.12</ele>
  <time>2026-09-01T01:12:13Z</time>
  <course>0.0</course>
  <speed>0.0</speed>
  <fix>3d</fix>
</trkpt>
<trkpt lat="33.8103132" lon="-118.3938672">
  <ele>-0.129</ele>
  <time>2026-09-01T01:12:13Z</time>
  <course>186.2</course>
  <speed>0.0282842712474619</speed>
  <fix>3d</fix>
</trkpt>
<trkpt lat="33.810313" lon="-118.393867">
  <ele>-0.12</ele>
  <time>2026-09-01T01:12:13Z</time>
  <course>0.0</course>
  <speed>0.0</speed>
  <fix>3d</fix>
</trkpt>
<trkpt lat="33.8103132" lon="-118.3938672">
  <ele>-0.129</ele>
  <time>2026-09-01T01:12:13Z</time>
  <course>186.2</course>
  <speed>0.0282842712474619</speed>
  <fix>3d</fix>
</trkpt>
<trkpt lat="33.810313" lon="-118.393867">
  <ele>-0.12</ele>
  <time>2026-09-01T01:12:13Z</time>
  <course>0.0</course>
  <speed>0.0</speed>
  <fix>3d</fix>
</trkpt>
<trkpt lat="33.8103132" lon="-118.3938672">
  <ele>-0.129</ele>
  <time>2026-09-01T01:12:13Z</time>
  <course>186.2</course>
  <speed>0.0282842712474619</speed>
  <fix>3d</fix>
</trkpt>
<trkpt lat="33.810313" lon="-118.393867">
  <ele>-0.12</ele>
  <time>2026-09-01T01:12:13Z</time>
  <course>0.0</course>
  <speed>0.0</speed>
  <fix>3d</fix>
</trkpt>
<trkpt lat="33.8103132" lon="-118.3938672">
  <ele>-0.13</ele>
  <time>2026-09-01T01:12:13Z</time>
  <course>186.2</course>
  <speed>0.0282842712474619</speed>
  <fix>3d</fix>
</trkpt>
<trkpt lat="33.810313" lon="-118.393867">
  <ele>-0.12</ele>
  <time>2026-09-01T01:12:13Z</time>
  <course>0.0</course>
  <speed>0.0</speed>
  <fix>3d</fix>
</trkpt>
<trkpt lat="33.8103132" lon="-118.3938672">
  <ele>-0.131</ele>
  <time>2026-09-01T01:12:13Z</time>
  <course>186.2</course>
  <speed>0.0282842712474619</speed>
  <fix>3d</fix>
</trkpt>
<trkpt lat="33.810313" lon="-118.393867">
  <ele>-0.12</ele>
  <time>2026-09-01T01:12:13Z</time>
  <course>0.0</course>
  <speed>0.0</speed>
  <fix>3d</fix>
</trkpt>
<trkpt lat="33.8103132" lon="-118.3938672">
  <ele>-0.131</ele>
  <time>2026-09-01T01:12:13Z</time>
  <course>186.2</course>
  <speed>0.0282842712474619</speed>
  <fix>3d</fix>
</trkpt>
<trkpt lat="33.810313" lon="-118.393867">
  <ele>-0.12</ele>
  <time>2026-09-01T01:12:13Z</time>
  <course>0.0</course>
  <speed>0.0</speed>
  <fix>3d</fix>
</trkpt>
<trkpt lat="33.8103132" lon="-118.3938672">
  <ele>-0.13</ele>
  <time>2026-09-01T01:12:13Z</time>
  <course>186.2</course>
  <speed>0.0282842712474619</speed>
  <fix>3d</fix>
</trkpt>
<trkpt lat="33.810313" lon="-118.393867">
  <ele>-0.12</ele>
  <time>2026-09-01T01:12:13Z</time>
  <course>0.0</course>
  <speed>0.0</speed>
  <fix>3d</fix>
</trkpt>
<trkpt lat="33.8103132" lon="-118.3938672">
  <ele>-0.129</ele>
  <time>2026-09-01T01:12:13Z</time>
  <course>186.2</course>
  <speed>0.0282842712474619</speed>
  <fix>3d</fix>
</trkpt>
<trkpt lat="33.810313" lon="-118.393867">
  <ele>-0.12</ele>
  <time>2026-09-01T01:12:13Z</time>
  <course>0.0</course>
  <speed>0.0</speed>
  <fix>3d</fix>
</trkpt>
<trkpt lat="33.8103132" lon="-118.3938672">
  <ele>-0.13</ele>
  <time>2026-09-01T01:12:13Z</time>
  <course>186.2</course>
  <speed>0.0282842712474619</speed>
  <fix>3d</fix>
</trkpt>
<trkpt lat="33.810313" lon="-118.393867">
  <ele>-0.12</ele>
  <time>2026-09-01T01:12:13Z</time>
  <course>0.0</course>
  <speed>0.0</speed>
  <fix>3d</fix>
</trkpt>
<trkpt lat="33.8103132" lon="-118.3938672">
  <ele>-0.13</ele>
  <time>2026-09-01T01:12:13Z</time>
  <course>186.2</course>
  <speed>0.0282842712474619</speed>
  <fix>3d</fix>
</trkpt>
<trkpt lat="33.810313" lon="-118.393867">
  <ele>-0.12</ele>
  <time>2026-09-01T01:12:13Z</time>
  <course>0.0</course>
  <speed>0.0</speed>
  <fix>3d</fix>
</trkpt>
<trkpt lat="33.8103132" lon="-118.3938672">
  <ele>-0.13</ele>
  <time>2026-09-01T01:12:13Z</time>
  <course>186.2</course>
  <speed>0.0282842712474619</speed>
  <fix>3d</fix>
</trkpt>
<trkpt lat="33.810313" lon="-118.393867">
  <ele>-0.12</ele>
  <time>2026-09-01T01:12:13Z</time>
  <course>0.0</course>
  <speed>0.0</speed>
  <fix>3d</fix>
</trkpt>
<trkpt lat="33.8103132" lon="-118.3938672">
  <ele>-0.13</ele>
  <time>2026-09-01T01:12:13Z</time>
  <course>186.2</course>
  <speed>0.0282842712474619</speed>
  <fix>3d</fix>
</trkpt>
<trkpt lat="33.810313" lon="-118.393867">
  <ele>-0.12</ele>
  <time>2026-09-01T01:12:13Z</time>
  <course>0.0</course>
  <speed>0.0</speed>
  <fix>3d</fix>
</trkpt>
<trkpt lat="33.8103132" lon="-118.3938672">
  <ele>-0.129</ele>
  <time>2026-09-01T01:12:13Z</time>
  <course>186.2</course>
  <speed>0.0282842712474619</speed>
  <fix>3d</fix>
</trkpt>
<trkpt lat="33.810313" lon="-118.393867">
  <ele>-0.12</ele>
  <time>2026-09-01T01:12:13Z</time>
  <course>0.0</course>
  <speed>0.0</speed>
  <fix>3d</fix>
</trkpt>
<trkpt lat="33.8103132" lon="-118.3938672">
  <ele>-0.128</ele>
  <time>2026-09-01T01:12:13Z</time>
  <course>186.2</course>
  <speed>0.0282842712474619</speed>
  <fix>3d</fix>
</trkpt>
<trkpt lat="33.810313" lon="-118.393867">
  <ele>-0.12</ele>
  <time>2026-09-01T01:12:13Z</time>
  <course>0.0</course>
  <speed>0.0</speed>
  <fix>3d</fix>
</trkpt>
<trkpt lat="33.8103132" lon="-118.3938672">
  <ele>-0.128</ele>
  <time>2026-09-01T01:12:13Z</time>
  <course>186.2</course>
  <speed>0.0282842712474619</speed>
  <fix>3d</fix>
</trkpt>
<trkpt lat="33.810313" lon="-118.393867">
  <ele>-0.12</ele>
  <time>2026-09-01T01:12:13Z</time>
  <course>0.0</course>
  <speed>0.0</speed>
  <fix>3d</fix>
</trkpt>
<trkpt lat="33.8103132" lon="-118.3938672">
  <ele>-0.128</ele>
  <time>2026-09-01T01:12:13Z</time>
  <course>186.2</course>
  <speed>0.0282842712474619</speed>
  <fix>3d</fix>
</trkpt>
<trkpt lat="33.810313" lon="-118.393867">
  <ele>-0.12</ele>
  <time>2026-09-01T01:12:13Z</time>
  <course>0.0</course>
  <speed>0.0</speed>
  <fix>3d</fix>
</trkpt>
<trkpt lat="33.8103132" lon="-118.3938672">
  <ele>-0.128</ele>
  <time>2026-09-01T01:12:13Z</time>
  <course>186.2</course>
  <speed>0.0282842712474619</speed>
  <fix>3d</fix>
</trkpt>
<trkpt lat="33.810313" lon="-118.393867">
  <ele>-0.12</ele>
  <time>2026-09-01T01:12:13Z</time>
  <course>0.0</course>
  <speed>0.0</speed>
  <fix>3d</fix>
</trkpt>
<trkpt lat="33.8103132" lon="-118.3938672">
  <ele>-0.128</ele>
  <time>2026-09-01T01:12:13Z</time>
  <course>186.2</course>
  <speed>0.0282842712474619</speed>
  <fix>3d</fix>
</trkpt>
<trkpt lat="33.810313" lon="-118.393867">
  <ele>-0.12</ele>
  <time>2026-09-01T01:12:13Z</time>
  <course>0.0</course>
  <speed>0.0</speed>
  <fix>3d</fix>
</trkpt>
<trkpt lat="33.8103132" lon="-118.3938672">
  <ele>-0.128</ele>
  <time>2026-09-01T01:12:13Z</time>
  <course>186.2</course>
  <speed>0.0282842712474619</speed>
  <fix>3d</fix>
</trkpt>
<trkpt lat="33.810313" lon="-118.393867">
  <ele>-0.12</ele>
  <time>2026-09-01T01:12:13Z</time>
  <course>0.0</course>
  <speed>0.0</speed>
  <fix>3d</fix>
</trkpt>
<trkpt lat="33.8103132" lon="-118.3938672">
  <ele>-0.128</ele>
  <time>2026-09-01T01:12:13Z</time>
  <course>186.2</course>
  <speed>0.022360679774997897</speed>
  <fix>3d</fix>
</trkpt>
<trkpt lat="33.810313" lon="-118.393867">
  <ele>-0.12</ele>
  <time>2026-09-01T01:12:13Z</time>
  <course>0.0</course>
  <speed>0.0</speed>
  <fix>3d</fix>
</trkpt>
<trkpt lat="33.8103132" lon="-118.3938672">
  <ele>-0.127</ele>
  <time>2026-09-01T01:12:13Z</time>
  <course>186.2</course>
  <speed>0.022360679774997897</speed>
  <fix>3d</fix>
</trkpt>
<trkpt lat="33.810313" lon="-118.393867">
  <ele>-0.12</ele>
  <time>2026-09-01T01:12:13Z</time>
  <course>0.0</course>
  <speed>0.0</speed>
  <fix>3d</fix>
</trkpt>
<trkpt lat="33.8103132" lon="-118.3938672">
  <ele>-0.127</ele>
  <time>2026-09-01T01:12:13Z</time>
  <course>186.2</course>
  <speed>0.022360679774997897</speed>
  <fix>3d</fix>
</trkpt>
<trkpt lat="33.810313" lon="-118.393867">
  <ele>-0.12</ele>
  <time>2026-09-01T01:12:13Z</time>
  <course>0.0</course>
  <speed>0.0</speed>
  <fix>3d</fix>
</trkpt>
<trkpt lat="33.8103132" lon="-118.3938672">
  <ele>-0.128</ele>
  <time>2026-09-01T01:12:13Z</time>
  <course>186.2</course>
  <speed>0.022360679774997897</speed>
  <fix>3d</fix>
</trkpt>
<trkpt lat="33.810313" lon="-118.393867">
  <ele>-0.12</ele>
  <time>2026-09-01T01:12:13Z</time>
  <course>0.0</course>
  <speed>0.0</speed>
  <fix>3d</fix>
</trkpt>
<trkpt lat="33.8103132" lon="-118.3938672">
  <ele>-0.128</ele>
  <time>2026-09-01T01:12:13Z</time>
  <course>186.2</course>
  <speed>0.022360679774997897</speed>
  <fix>3d</fix>
</trkpt>
<trkpt lat="33.810313" lon="-118.393867">
  <ele>-0.12</ele>
  <time>2026-09-01T01:12:13Z</time>
  <course>0.0</course>
  <speed>0.0</speed>
  <fix>3d</fix>
</trkpt>
<trkpt lat="33.8103132" lon="-118.3938672">
  <ele>-0.128</ele>
  <time>2026-09-01T01:12:13Z</time>
  <course>186.2</course>
  <speed>0.022360679774997897</speed>
  <fix>3d</fix>
</trkpt>
<trkpt lat="33.810313" lon="-118.393867">
  <ele>-0.12</ele>
  <time>2026-09-01T01:12:13Z</time>
  <course>0.0</course>
  <speed>0.0</speed>
  <fix>3d</fix>
</trkpt>
<trkpt lat="33.8103132" lon="-118.3938672">
  <ele>-0.126</ele>
  <time>2026-09-01T01:12:13Z</time>
  <course>186.2</course>
  <speed>0.022360679774997897</speed>
  <fix>3d</fix>
</trkpt>
<trkpt lat="33.810313" lon="-118.393867">
  <ele>-0.12</ele>
  <time>2026-09-01T01:12:13Z</time>
  <course>0.0</course>
  <speed>0.0</speed>
  <fix>3d</fix>
</trkpt>
<trkpt lat="33.8103132" lon="-118.3938672">
  <ele>-0.125</ele>
  <time>2026-09-01T01:12:13Z</time>
  <course>186.2</course>
  <speed>0.022360679774997897</speed>
  <fix>3d</fix>
</trkpt>
<trkpt lat="33.810313" lon="-118.393867">
  <ele>-0.12</ele>
  <time>2026-09-01T01:12:13Z</time>
  <course>0.0</course>
  <speed>0.0</speed>
  <fix>3d</fix>
</trkpt>
<trkpt lat="33.8103132" lon="-118.3938672">
  <ele>-0.123</ele>
  <time>2026-09-01T01:12:13Z</time>
  <course>186.2</course>
  <speed>0.022360679774997897</speed>
  <fix>3d</fix>
</trkpt>
<trkpt lat="33.810313" lon="-118.393867">
  <ele>-0.12</ele>
  <time>2026-09-01T01:12:13Z</time>
  <course>0.0</course>
  <speed>0.0</speed>
  <fix>3d</fix>
</trkpt>
<trkpt lat="33.8103132" lon="-118.3938672">
  <ele>-0.121</ele>
  <time>2026-09-01T01:12:13Z</time>
  <course>186.2</course>
  <speed>0.022360679774997897</speed>
  <fix>3d</fix>
</trkpt>
<trkpt lat="33.810313" lon="-118.393867">
  <ele>-0.12</ele>
  <time>2026-09-01T01:12:13Z</time>
  <course>0.0</course>
  <speed>0.0</speed>
  <fix>3d</fix>
</trkpt>
<trkpt lat="33.8103132" lon="-118.3938672">
  <ele>-0.121</ele>
  <time>2026-09-01T01:12:13Z</time>
  <course>186.2</course>
  <speed>0.022360679774997897</speed>
  <fix>3d</fix>
</trkpt>
<trkpt lat="33.810313" lon="-118.393867">
  <ele>-0.12</ele>
  <time>2026-09-01T01:12:13Z</time>
  <course>0.0</course>
  <speed>0.0</speed>
  <fix>3d</fix>
</trkpt>
<trkpt lat="33.8103132" lon="-118.3938672">
  <ele>-0.12</ele>
  <time>2026-09-01T01:12:13Z</time>
  <course>186.2</course>
  <speed>0.022360679774997897</speed>
  <fix>3d</fix>
</trkpt>
<trkpt lat="33.810313" lon="-118.393867">
  <ele>-0.12</ele>
  <time>2026-09-01T01:12:13Z</time>
  <course>0.0</course>
  <speed>0.0</speed>
  <fix>3d</fix>
</trkpt>
<trkpt lat="33.8103132" lon="-118.3938672">
  <ele>-0.121</ele>
  <time>2026-09-01T01:12:13Z</time>
  <course>186.2</course>
  <speed>0.022360679774997897</speed>
  <fix>3d</fix>
</trkpt>
<trkpt lat="33.810313" lon="-118.393867">
  <ele>-0.12</ele>
  <time>2026-09-01T01:12:13Z</time>
  <course>0.0</course>
  <speed>0.0</speed>
  <fix>3d</fix>
</trkpt>
<trkpt lat="33.8103132" lon="-118.3938672">
  <ele>-0.122</ele>
  <time>2026-09-01T01:12:13Z</time>
  <course>186.2</course>
  <speed>0.022360679774997897</speed>
  <fix>3d</fix>
</trkpt>
<trkpt lat="33.810313" lon="-118.393867">
  <ele>-0.12</ele>
  <time>2026-09-01T01:12:13Z</time>
  <course>0.0</course>
  <speed>0.0</speed>
  <fix>3d</fix>
</trkpt>
<trkpt lat="33.8103132" lon="-118.3938672">
  <ele>-0.123</ele>
  <time>2026-09-01T01:12:13Z</time>
  <course>186.2</course>
  <speed>0.022360679774997897</speed>
  <fix>3d</fix>
</trkpt>
<trkpt lat="33.810313" lon="-118.393867">
  <ele>-0.12</ele>
  <time>2026-09-01T01:12:13Z</time>
  <course>0.0</course>
  <speed>0.0</speed>
  <fix>3d</fix>
</trkpt>
<trkpt lat="33.8103132" lon="-118.3938672">
  <ele>-0.125</ele>
  <time>2026-09-01T01:12:13Z</time>
  <course>186.2</course>
  <speed>0.022360679774997897</speed>
  <fix>3d</fix>
</trkpt>
<trkpt lat="33.810313" lon="-118.393867">
  <ele>-0.12</ele>
  <time>2026-09-01T01:12:13Z</time>
  <course>0.0</course>
  <speed>0.0</speed>
  <fix>3d</fix>
</trkpt>
<trkpt lat="33.8103132" lon="-118.3938672">
  <ele>-0.127</ele>
  <time>2026-09-01T01:12:13Z</time>
  <course>186.2</course>
  <speed>0.022360679774997897</speed>
  <fix>3d</fix>
</trkpt>
<trkpt lat="33.810313" lon="-118.393867">
  <ele>-0.12</ele>
  <time>2026-09-01T01:12:14Z</time>
  <course>0.0</course>
  <speed>0.0</speed>
  <fix>3d</fix>
</trkpt>
<trkpt lat="33.8103132" lon="-118.3938672">
  <ele>-0.129</ele>
  <time>2026-09-01T01:12:14Z</time>
  <course>186.2</course>
  <speed>0.022360679774997897</speed>
  <fix>3d</fix>
</trkpt>
<trkpt lat="33.810313" lon="-118.393867">
  <ele>-0.12</ele>
  <time>2026-09-01T01:12:14Z</time>
  <course>0.0</course>
  <speed>0.0</speed>
  <fix>3d</fix>
</trkpt>
<trkpt lat="33.8103132" lon="-118.3938672">
  <ele>-0.131</ele>
  <time>2026-09-01T01:12:14Z</time>
  <course>186.2</course>
  <speed>0.022360679774997897</speed>
  <fix>3d</fix>
</trkpt>
<trkpt lat="33.810313" lon="-118.393867">
  <ele>-0.12</ele>
  <time>2026-09-01T01:12:14Z</time>
  <course>0.0</course>
  <speed>0.0</speed>
  <fix>3d</fix>
</trkpt>
<trkpt lat="33.8103132" lon="-118.3938672">
  <ele>-0.132</ele>
  <time>2026-09-01T01:12:14Z</time>
  <course>186.2</course>
  <speed>0.022360679774997897</speed>
  <fix>3d</fix>
</trkpt>
<trkpt lat="33.810313" lon="-118.393867">
  <ele>-0.12</ele>
  <time>2026-09-01T01:12:14Z</time>
  <course>0.0</course>
  <speed>0.0</speed>
  <fix>3d</fix>
</trkpt>
<trkpt lat="33.8103132" lon="-118.3938672">
  <ele>-0.133</ele>
  <time>2026-09-01T01:12:14Z</time>
  <course>186.2</course>
  <speed>0.022360679774997897</speed>
  <fix>3d</fix>
</trkpt>
<trkpt lat="33.810313" lon="-118.393867">
  <ele>-0.12</ele>
  <time>2026-09-01T01:12:14Z</time>
  <course>0.0</course>
  <speed>0.0</speed>
  <fix>3d</fix>
</trkpt>
<trkpt lat="33.8103132" lon="-118.3938672">
  <ele>-0.134</ele>
  <time>2026-09-01T01:12:14Z</time>
  <course>186.2</course>
  <speed>0.022360679774997897</speed>
  <fix>3d</fix>
</trkpt>
<trkpt lat="33.810313" lon="-118.393867">
  <ele>-0.12</ele>
  <time>2026-09-01T01:12:14Z</time>
  <course>0.0</course>
  <speed>0.0</speed>
  <fix>3d</fix>
</trkpt>
<trkpt lat="33.8103132" lon="-118.3938672">
  <ele>-0.134</ele>
  <time>2026-09-01T01:12:14Z</time>
  <course>186.2</course>
  <speed>0.022360679774997897</speed>
  <fix>3d</fix>
</trkpt>
<trkpt lat="33.810313" lon="-118.393867">
  <ele>-0.12</ele>
  <time>2026-09-01T01:12:14Z</time>
  <course>0.0</course>
  <speed>0.0</speed>
  <fix>3d</fix>
</trkpt>
<trkpt lat="33.8103132" lon="-118.3938672">
  <ele>-0.133</ele>
  <time>2026-09-01T01:12:14Z</time>
  <course>186.2</course>
  <speed>0.022360679774997897</speed>
  <fix>3d</fix>
</trkpt>
<trkpt lat="33.810313" lon="-118.393867">
  <ele>-0.12</ele>
  <time>2026-09-01T01:12:14Z</time>
  <course>0.0</course>
  <speed>0.0</speed>
  <fix>3d</fix>
</trkpt>
<trkpt lat="33.8103132" lon="-118.3938672">
  <ele>-0.132</ele>
  <time>2026-09-01T01:12:14Z</time>
  <course>186.2</course>
  <speed>0.022360679774997897</speed>
  <fix>3d</fix>
</trkpt>
<trkpt lat="33.810313" lon="-118.393867">
  <ele>-0.12</ele>
  <time>2026-09-01T01:12:14Z</time>
  <course>0.0</course>
  <speed>0.0</speed>
  <fix>3d</fix>
</trkpt>
<trkpt lat="33.8103132" lon="-118.3938672">
  <ele>-0.131</ele>
  <time>2026-09-01T01:12:14Z</time>
  <course>186.2</course>
  <speed>0.022360679774997897</speed>
  <fix>3d</fix>
</trkpt>
<trkpt lat="33.810313" lon="-118.393867">
  <ele>-0.12</ele>
  <time>2026-09-01T01:12:14Z</time>
  <course>0.0</course>
  <speed>0.0</speed>
  <fix>3d</fix>
</trkpt>
<trkpt lat="33.8103132" lon="-118.3938672">
  <ele>-0.129</ele>
  <time>2026-09-01T01:12:14Z</time>
  <course>186.2</course>
  <speed>0.022360679774997897</speed>
  <fix>3d</fix>
</trkpt>
<trkpt lat="33.810313" lon="-118.393867">
  <ele>-0.12</ele>
  <time>2026-09-01T01:12:14Z</time>
  <course>0.0</course>
  <speed>0.0</speed>
  <fix>3d</fix>
</trkpt>
<trkpt lat="33.8103132" lon="-118.3938672">
  <ele>-0.127</ele>
  <time>2026-09-01T01:12:14Z</time>
  <course>186.2</course>
  <speed>0.022360679774997897</speed>
  <fix>3d</fix>
</trkpt>
<trkpt lat="33.810313" lon="-118.393867">
  <ele>-0.12</ele>
  <time>2026-09-01T01:12:14Z</time>
  <course>0.0</course>
  <speed>0.0</speed>
  <fix>3d</fix>
</trkpt>
<trkpt lat="33.8103132" lon="-118.3938672">
  <ele>-0.125</ele>
  <time>2026-09-01T01:12:14Z</time>
  <course>186.2</course>
  <speed>0.022360679774997897</speed>
  <fix>3d</fix>
</trkpt>
<trkpt lat="33.810313" lon="-118.393867">
  <ele>-0.12</ele>
  <time>2026-09-01T01:12:14Z</time>
  <course>0.0</course>
  <speed>0.0</speed>
  <fix>3d</fix>
</trkpt>
<trkpt lat="33.8103132" lon="-118.3938672">
  <ele>-0.123</ele>
  <time>2026-09-01T01:12:14Z</time>
  <course>186.2</course>
  <speed>0.022360679774997897</speed>
  <fix>3d</fix>
</trkpt>
<trkpt lat="33.810313" lon="-118.393867">
  <ele>-0.12</ele>
  <time>2026-09-01T01:12:14Z</time>
  <course>0.0</course>
  <speed>0.0</speed>
  <fix>3d</fix>
</trkpt>
<trkpt lat="33.8103132" lon="-118.3938672">
  <ele>-0.123</ele>
  <time>2026-09-01T01:12:14Z</time>
  <course>186.2</course>
  <speed>0.022360679774997897</speed>
  <fix>3d</fix>
</trkpt>
<trkpt lat="33.810313" lon="-118.393867">
  <ele>-0.12</ele>
  <time>2026-09-01T01:12:14Z</time>
  <course>0.0</course>
  <speed>0.0</speed>
  <fix>3d</fix>
</trkpt>
<trkpt lat="33.8103132" lon="-118.3938672">
  <ele>-0.123</ele>
  <time>2026-09-01T01:12:14Z</time>
  <course>186.2</course>
  <speed>0.022360679774997897</speed>
  <fix>3d</fix>
</trkpt>
<trkpt lat="33.810313" lon="-118.393867">
  <ele>-0.12</ele>
  <time>2026-09-01T01:12:14Z</time>
  <course>0.0</course>
  <speed>0.0</speed>
  <fix>3d</fix>
</trkpt>
<trkpt lat="33.8103132" lon="-118.3938672">
  <ele>-0.122</ele>
  <time>2026-09-01T01:12:14Z</time>
  <course>186.2</course>
  <speed>0.022360679774997897</speed>
  <fix>3d</fix>
</trkpt>
<trkpt lat="33.810313" lon="-118.393867">
  <ele>-0.12</ele>
  <time>2026-09-01T01:12:14Z</time>
  <course>0.0</course>
  <speed>0.0</speed>
  <fix>3d</fix>
</trkpt>
<trkpt lat="33.8103132" lon="-118.3938672">
  <ele>-0.121</ele>
  <time>2026-09-01T01:12:14Z</time>
  <course>186.2</course>
  <speed>0.022360679774997897</speed>
  <fix>3d</fix>
</trkpt>
<trkpt lat="33.810313" lon="-118.393867">
  <ele>-0.12</ele>
  <time>2026-09-01T01:12:14Z</time>
  <course>0.0</course>
  <speed>0.0</speed>
  <fix>3d</fix>
</trkpt>
<trkpt lat="33.8103132" lon="-118.3938672">
  <ele>-0.121</ele>
  <time>2026-09-01T01:12:14Z</time>
  <course>186.2</course>
  <speed>0.022360679774997897</speed>
  <fix>3d</fix>
</trkpt>
<trkpt lat="33.810313" lon="-118.393867">
  <ele>-0.12</ele>
  <time>2026-09-01T01:12:14Z</time>
  <course>0.0</course>
  <speed>0.0</speed>
  <fix>3d</fix>
</trkpt>
<trkpt lat="33.8103132" lon="-118.3938672">
  <ele>-0.121</ele>
  <time>2026-09-01T01:12:14Z</time>
  <course>186.2</course>
  <speed>0.022360679774997897</speed>
  <fix>3d</fix>
</trkpt>
<trkpt lat="33.810313" lon="-118.393867">
  <ele>-0.12</ele>
  <time>2026-09-01T01:12:14Z</time>
  <course>0.0</course>
  <speed>0.0</speed>
  <fix>3d</fix>
</trkpt>
<trkpt lat="33.8103132" lon="-118.3938672">
  <ele>-0.121</ele>
  <time>2026-09-01T01:12:14Z</time>
  <course>186.2</course>
  <speed>0.022360679774997897</speed>
  <fix>3d</fix>
</trkpt>
<trkpt lat="33.810313" lon="-118.393867">
  <ele>-0.12</ele>
  <time>2026-09-01T01:12:14Z</time>
  <course>0.0</course>
  <speed>0.0</speed>
  <fix>3d</fix>
</trkpt>
<trkpt lat="33.8103132" lon="-118.3938672">
  <ele>-0.148</ele>
  <time>2026-09-01T01:12:14Z</time>
  <course>186.2</course>
  <speed>0.022360679774997897</speed>
  <fix>3d</fix>
</trkpt>
<trkpt lat="33.810313" lon="-118.393867">
  <ele>-0.12</ele>
  <time>2026-09-01T01:12:14Z</time>
  <course>0.0</course>
  <speed>0.0</speed>
  <fix>3d</fix>
</trkpt>
<trkpt lat="33.8103132" lon="-118.3938672">
  <ele>-0.241</ele>
  <time>2026-09-01T01:12:14Z</time>
  <course>186.2</course>
  <speed>0.022360679774997897</speed>
  <fix>3d</fix>
</trkpt>
<trkpt lat="33.810313" lon="-118.393867">
  <ele>-0.12</ele>
  <time>2026-09-01T01:12:14Z</time>
  <course>0.0</course>
  <speed>0.0</speed>
  <fix>3d</fix>
</trkpt>
<trkpt lat="33.8103132" lon="-118.3938672">
  <ele>-0.359</ele>
  <time>2026-09-01T01:12:14Z</time>
  <course>186.2</course>
  <speed>0.01414213562373095</speed>
  <fix>3d</fix>
</trkpt>
<trkpt lat="33.810313" lon="-118.393867">
  <ele>-0.19</ele>
  <time>2026-09-01T01:12:14Z</time>
  <course>0.0</course>
  <speed>0.0</speed>
  <fix>3d</fix>
</trkpt>
<trkpt lat="33.8103132" lon="-118.3938672">
  <ele>-0.485</ele>
  <time>2026-09-01T01:12:14Z</time>
  <course>186.2</course>
  <speed>0.01414213562373095</speed>
  <fix>3d</fix>
</trkpt>
<trkpt lat="33.810313" lon="-118.393867">
  <ele>-0.19</ele>
  <time>2026-09-01T01:12:14Z</time>
  <course>0.0</course>
  <speed>0.0</speed>
  <fix>3d</fix>
</trkpt>
<trkpt lat="33.8103132" lon="-118.3938672">
  <ele>-0.584</ele>
  <time>2026-09-01T01:12:14Z</time>
  <course>186.2</course>
  <speed>0.01414213562373095</speed>
  <fix>3d</fix>
</trkpt>
<trkpt lat="33.810313" lon="-118.393867">
  <ele>-0.38</ele>
  <time>2026-09-01T01:12:14Z</time>
  <course>0.0</course>
  <speed>0.0</speed>
  <fix>3d</fix>
</trkpt>
<trkpt lat="33.8103132" lon="-118.3938672">
  <ele>-0.647</ele>
  <time>2026-09-01T01:12:14Z</time>
  <course>186.2</course>
  <speed>0.01414213562373095</speed>
  <fix>3d</fix>
</trkpt>
<trkpt lat="33.810313" lon="-118.393867">
  <ele>-0.38</ele>
  <time>2026-09-01T01:12:14Z</time>
  <course>0.0</course>
  <speed>0.0</speed>
  <fix>3d</fix>
</trkpt>
<trkpt lat="33.8103132" lon="-118.3938672">
  <ele>-0.694</ele>
  <time>2026-09-01T01:12:14Z</time>
  <course>186.2</course>
  <speed>0.01414213562373095</speed>
  <fix>3d</fix>
</trkpt>
<trkpt lat="33.810313" lon="-118.393867">
  <ele>-0.56</ele>
  <time>2026-09-01T01:12:14Z</time>
  <course>0.0</course>
  <speed>0.0</speed>
  <fix>3d</fix>
</trkpt>
<trkpt lat="33.8103132" lon="-118.3938672">
  <ele>-0.73</ele>
  <time>2026-09-01T01:12:14Z</time>
  <course>186.2</course>
  <speed>0.01414213562373095</speed>
  <fix>3d</fix>
</trkpt>
<trkpt lat="33.810313" lon="-118.393867">
  <ele>-0.56</ele>
  <time>2026-09-01T01:12:14Z</time>
  <course>0.0</course>
  <speed>0.0</speed>
  <fix>3d</fix>
</trkpt>
<trkpt lat="33.8103132" lon="-118.3938672">
  <ele>-0.759</ele>
  <time>2026-09-01T01:12:14Z</time>
  <course>186.2</course>
  <speed>0.01414213562373095</speed>
  <fix>3d</fix>
</trkpt>
<trkpt lat="33.810313" lon="-118.393867">
  <ele>-0.66</ele>
  <time>2026-09-01T01:12:14Z</time>
  <course>0.0</course>
  <speed>0.0</speed>
  <fix>3d</fix>
</trkpt>
<trkpt lat="33.8103132" lon="-118.3938672">
  <ele>-0.782</ele>
  <time>2026-09-01T01:12:14Z</time>
  <course>186.2</course>
  <speed>0.01414213562373095</speed>
  <fix>3d</fix>
</trkpt>
<trkpt lat="33.810313" lon="-118.393867">
  <ele>-0.66</ele>
  <time>2026-09-01T01:12:14Z</time>
  <course>0.0</course>
  <speed>0.0</speed>
  <fix>3d</fix>
</trkpt>
<trkpt lat="33.8103132" lon="-118.3938672">
  <ele>-0.802</ele>
  <time>2026-09-01T01:12:14Z</time>
  <course>186.2</course>
  <speed>0.01414213562373095</speed>
  <fix>3d</fix>
</trkpt>
<trkpt lat="33.810313" lon="-118.393867">
  <ele>-0.72</ele>
  <time>2026-09-01T01:12:14Z</time>
  <course>0.0</course>
  <speed>0.0</speed>
  <fix>3d</fix>
</trkpt>
<trkpt lat="33.8103132" lon="-118.3938672">
  <ele>-0.819</ele>
  <time>2026-09-01T01:12:15Z</time>
  <course>186.2</course>
  <speed>0.01414213562373095</speed>
  <fix>3d</fix>
</trkpt>
<trkpt lat="33.810313" lon="-118.393867">
  <ele>-0.72</ele>
  <time>2026-09-01T01:12:15Z</time>
  <course>0.0</course>
  <speed>0.0</speed>
  <fix>3d</fix>
</trkpt>
<trkpt lat="33.8103132" lon="-118.3938672">
  <ele>-0.833</ele>
  <time>2026-09-01T01:12:15Z</time>
  <course>186.2</course>
  <speed>0.01414213562373095</speed>
  <fix>3d</fix>
</trkpt>
<trkpt lat="33.810313" lon="-118.393867">
  <ele>-0.76</ele>
  <time>2026-09-01T01:12:15Z</time>
  <course>0.0</course>
  <speed>0.0</speed>
  <fix>3d</fix>
</trkpt>
<trkpt lat="33.8103132" lon="-118.3938672">
  <ele>-0.845</ele>
  <time>2026-09-01T01:12:15Z</time>
  <course>186.2</course>
  <speed>0.01414213562373095</speed>
  <fix>3d</fix>
</trkpt>
<trkpt lat="33.810313" lon="-118.393867">
  <ele>-0.76</ele>
  <time>2026-09-01T01:12:15Z</time>
  <course>0.0</course>
  <speed>0.0</speed>
  <fix>3d</fix>
</trkpt>
<trkpt lat="33.8103132" lon="-118.3938672">
  <ele>-0.855</ele>
  <time>2026-09-01T01:12:15Z</time>
  <course>186.2</course>
  <speed>0.01414213562373095</speed>
  <fix>3d</fix>
</trkpt>
<trkpt lat="33.810313" lon="-118.393867">
  <ele>-0.78</ele>
  <time>2026-09-01T01:12:15Z</time>
  <course>0.0</course>
  <speed>0.0</speed>
  <fix>3d</fix>
</trkpt>
<trkpt lat="33.8103132" lon="-118.3938672">
  <ele>-0.863</ele>
  <time>2026-09-01T01:12:15Z</time>
  <course>186.2</course>
  <speed>0.01414213562373095</speed>
  <fix>3d</fix>
</trkpt>
<trkpt lat="33.810313" lon="-118.393867">
  <ele>-0.78</ele>
  <time>2026-09-01T01:12:15Z</time>
  <course>0.0</course>
  <speed>0.0</speed>
  <fix>3d</fix>
</trkpt>
<trkpt lat="33.8103132" lon="-118.3938672">
  <ele>-0.872</ele>
  <time>2026-09-01T01:12:15Z</time>
  <course>186.2</course>
  <speed>0.01414213562373095</speed>
  <fix>3d</fix>
</trkpt>
<trkpt lat="33.810313" lon="-118.393867">
  <ele>-0.81</ele>
  <time>2026-09-01T01:12:15Z</time>
  <course>0.0</course>
  <speed>0.0</speed>
  <fix>3d</fix>
</trkpt>
<trkpt lat="33.8103132" lon="-118.3938672">
  <ele>-0.879</ele>
  <time>2026-09-01T01:12:15Z</time>
  <course>186.2</course>
  <speed>0.01414213562373095</speed>
  <fix>3d</fix>
</trkpt>
<trkpt lat="33.810313" lon="-118.393867">
  <ele>-0.81</ele>
  <time>2026-09-01T01:12:15Z</time>
  <course>0.0</course>
  <speed>0.0</speed>
  <fix>3d</fix>
</trkpt>
<trkpt lat="33.8103132" lon="-118.3938672">
  <ele>-0.884</ele>
  <time>2026-09-01T01:12:15Z</time>
  <course>186.2</course>
  <speed>0.01414213562373095</speed>
  <fix>3d</fix>
</trkpt>
<trkpt lat="33.810313" lon="-118.393867">
  <ele>-0.83</ele>
  <time>2026-09-01T01:12:15Z</time>
  <course>0.0</course>
  <speed>0.0</speed>
  <fix>3d</fix>
</trkpt>
<trkpt lat="33.8103132" lon="-118.3938672">
  <ele>-0.888</ele>
  <time>2026-09-01T01:12:15Z</time>
  <course>186.2</course>
  <speed>0.01414213562373095</speed>
  <fix>3d</fix>
</trkpt>
<trkpt lat="33.810313" lon="-118.393867">
  <ele>-0.83</ele>
  <time>2026-09-01T01:12:15Z</time>
  <course>0.0</course>
  <speed>0.0</speed>
  <fix>3d</fix>
</trkpt>
<trkpt lat="33.8103132" lon="-118.3938672">
  <ele>-0.891</ele>
  <time>2026-09-01T01:12:15Z</time>
  <course>186.2</course>
  <speed>0.01414213562373095</speed>
  <fix>3d</fix>
</trkpt>
<trkpt lat="33.810313" lon="-118.393867">
  <ele>-0.84</ele>
  <time>2026-09-01T01:12:15Z</time>
  <course>0.0</course>
  <speed>0.0</speed>
  <fix>3d</fix>
</trkpt>
<trkpt lat="33.8103132" lon="-118.3938672">
  <ele>-0.893</ele>
  <time>2026-09-01T01:12:15Z</time>
  <course>186.2</course>
  <speed>0.01414213562373095</speed>
  <fix>3d</fix>
</trkpt>
<trkpt lat="33.810313" lon="-118.393867">
  <ele>-0.84</ele>
  <time>2026-09-01T01:12:15Z</time>
  <course>0.0</course>
  <speed>0.0</speed>
  <fix>3d</fix>
</trkpt>
<trkpt lat="33.8103132" lon="-118.3938671">
  <ele>-0.896</ele>
  <time>2026-09-01T01:12:15Z</time>
  <course>186.2</course>
  <speed>0.01414213562373095</speed>
  <fix>3d</fix>
</trkpt>
<trkpt lat="33.810313" lon="-118.393867">
  <ele>-0.85</ele>
  <time>2026-09-01T01:12:15Z</time>
  <course>0.0</course>
  <speed>0.0</speed>
  <fix>3d</fix>
</trkpt>
<trkpt lat="33.8103132" lon="-118.3938672">
  <ele>-0.897</ele>
  <time>2026-09-01T01:12:15Z</time>
  <course>186.2</course>
  <speed>0.01414213562373095</speed>
  <fix>3d</fix>
</trkpt>
<trkpt lat="33.810313" lon="-118.393867">
  <ele>-0.85</ele>
  <time>2026-09-01T01:12:15Z</time>
  <course>0.0</course>
  <speed>0.0</speed>
  <fix>3d</fix>
</trkpt>
<trkpt lat="33.8103132" lon="-118.3938672">
  <ele>-0.897</ele>
  <time>2026-09-01T01:12:15Z</time>
  <course>186.2</course>
  <speed>0.01414213562373095</speed>
  <fix>3d</fix>
</trkpt>
<trkpt lat="33.810313" lon="-118.393867">
  <ele>-0.86</ele>
  <time>2026-09-01T01:12:15Z</time>
  <course>0.0</course>
  <speed>0.0</speed>
  <fix>3d</fix>
</trkpt>
<trkpt lat="33.8103132" lon="-118.3938672">
  <ele>-0.896</ele>
  <time>2026-09-01T01:12:15Z</time>
  <course>186.2</course>
  <speed>0.01414213562373095</speed>
  <fix>3d</fix>
</trkpt>
<trkpt lat="33.810313" lon="-118.393867">
  <ele>-0.86</ele>
  <time>2026-09-01T01:12:15Z</time>
  <course>0.0</course>
  <speed>0.0</speed>
  <fix>3d</fix>
</trkpt>
<trkpt lat="33.8103132" lon="-118.3938672">
  <ele>-0.895</ele>
  <time>2026-09-01T01:12:15Z</time>
  <course>186.2</course>
  <speed>0.01414213562373095</speed>
  <fix>3d</fix>
</trkpt>
<trkpt lat="33.810313" lon="-118.393867">
  <ele>-0.86</ele>
  <time>2026-09-01T01:12:15Z</time>
  <course>0.0</course>
  <speed>0.0</speed>
  <fix>3d</fix>
</trkpt>
<trkpt lat="33.8103132" lon="-118.3938672">
  <ele>-0.893</ele>
  <time>2026-09-01T01:12:15Z</time>
  <course>186.2</course>
  <speed>0.01414213562373095</speed>
  <fix>3d</fix>
</trkpt>
<trkpt lat="33.810313" lon="-118.393867">
  <ele>-0.86</ele>
  <time>2026-09-01T01:12:15Z</time>
  <course>0.0</course>
  <speed>0.0</speed>
  <fix>3d</fix>
</trkpt>
<trkpt lat="33.8103132" lon="-118.3938672">
  <ele>-0.892</ele>
  <time>2026-09-01T01:12:15Z</time>
  <course>186.2</course>
  <speed>0.01414213562373095</speed>
  <fix>3d</fix>
</trkpt>
<trkpt lat="33.810313" lon="-118.393867">
  <ele>-0.86</ele>
  <time>2026-09-01T01:12:15Z</time>
  <course>0.0</course>
  <speed>0.0</speed>
  <fix>3d</fix>
</trkpt>
<trkpt lat="33.8103132" lon="-118.3938672">
  <ele>-0.891</ele>
  <time>2026-09-01T01:12:15Z</time>
  <course>186.2</course>
  <speed>0.01414213562373095</speed>
  <fix>3d</fix>
</trkpt>
<trkpt lat="33.810313" lon="-118.393867">
  <ele>-0.86</ele>
  <time>2026-09-01T01:12:15Z</time>
  <course>0.0</course>
  <speed>0.0</speed>
  <fix>3d</fix>
</trkpt>
<trkpt lat="33.8103132" lon="-118.3938672">
  <ele>-0.889</ele>
  <time>2026-09-01T01:12:15Z</time>
  <course>186.19</course>
  <speed>0.01414213562373095</speed>
  <fix>3d</fix>
</trkpt>
<trkpt lat="33.810313" lon="-118.393867">
  <ele>-0.86</ele>
  <time>2026-09-01T01:12:15Z</time>
  <course>0.0</course>
  <speed>0.0</speed>
  <fix>3d</fix>
</trkpt>
<trkpt lat="33.8103132" lon="-118.3938672">
  <ele>-0.888</ele>
  <time>2026-09-01T01:12:15Z</time>
  <course>186.19</course>
  <speed>0.01414213562373095</speed>
  <fix>3d</fix>
</trkpt>
<trkpt lat="33.810313" lon="-118.393867">
  <ele>-0.86</ele>
  <time>2026-09-01T01:12:15Z</time>
  <course>0.0</course>
  <speed>0.0</speed>
  <fix>3d</fix>
</trkpt>
<trkpt lat="33.8103132" lon="-118.3938672">
  <ele>-0.886</ele>
  <time>2026-09-01T01:12:15Z</time>
  <course>186.19</course>
  <speed>0.01414213562373095</speed>
  <fix>3d</fix>
</trkpt>
<trkpt lat="33.810313" lon="-118.393867">
  <ele>-0.86</ele>
  <time>2026-09-01T01:12:15Z</time>
  <course>0.0</course>
  <speed>0.0</speed>
  <fix>3d</fix>
</trkpt>
<trkpt lat="33.8103132" lon="-118.3938672">
  <ele>-0.883</ele>
  <time>2026-09-01T01:12:15Z</time>
  <course>186.19</course>
  <speed>0.01414213562373095</speed>
  <fix>3d</fix>
</trkpt>
<trkpt lat="33.810313" lon="-118.393867">
  <ele>-0.86</ele>
  <time>2026-09-01T01:12:15Z</time>
  <course>0.0</course>
  <speed>0.0</speed>
  <fix>3d</fix>
</trkpt>
<trkpt lat="33.8103132" lon="-118.3938672">
  <ele>-0.88</ele>
  <time>2026-09-01T01:12:15Z</time>
  <course>186.19</course>
  <speed>0.01414213562373095</speed>
  <fix>3d</fix>
</trkpt>
<trkpt lat="33.810313" lon="-118.393867">
  <ele>-0.85</ele>
  <time>2026-09-01T01:12:15Z</time>
  <course>0.0</course>
  <speed>0.0</speed>
  <fix>3d</fix>
</trkpt>
<trkpt lat="33.8103132" lon="-118.3938672">
  <ele>-0.876</ele>
  <time>2026-09-01T01:12:15Z</time>
  <course>186.19</course>
  <speed>0.022360679774997897</speed>
  <fix>3d</fix>
</trkpt>
<trkpt lat="33.810313" lon="-118.393867">
  <ele>-0.85</ele>
  <time>2026-09-01T01:12:15Z</time>
  <course>0.0</course>
  <speed>0.0</speed>
  <fix>3d</fix>
</trkpt>
<trkpt lat="33.8103132" lon="-118.3938672">
  <ele>-0.871</ele>
  <time>2026-09-01T01:12:15Z</time>
  <course>186.19</course>
  <speed>0.022360679774997897</speed>
  <fix>3d</fix>
</trkpt>
<trkpt lat="33.810313" lon="-118.393867">
  <ele>-0.85</ele>
  <time>2026-09-01T01:12:15Z</time>
  <course>0.0</course>
  <speed>0.0</speed>
  <fix>3d</fix>
</trkpt>
<trkpt lat="33.8103132" lon="-118.3938672">
  <ele>-0.865</ele>
  <time>2026-09-01T01:12:15Z</time>
  <course>186.19</course>
  <speed>0.022360679774997897</speed>
  <fix>3d</fix>
</trkpt>
<trkpt lat="33.810313" lon="-118.393867">
  <ele>-0.85</ele>
  <time>2026-09-01T01:12:15Z</time>
  <course>0.0</course>
  <speed>0.0</speed>
  <fix>3d</fix>
</trkpt>
<trkpt lat="33.8103132" lon="-118.3938672">
  <ele>-0.86</ele>
  <time>2026-09-01T01:12:15Z</time>
  <course>186.19</course>
  <speed>0.022360679774997897</speed>
  <fix>3d</fix>
</trkpt>
<trkpt lat="33.810313" lon="-118.393867">
  <ele>-0.84</ele>
  <time>2026-09-01T01:12:15Z</time>
  <course>0.0</course>
  <speed>0.0</speed>
  <fix>3d</fix>
</trkpt>
<trkpt lat="33.8103132" lon="-118.3938672">
  <ele>-0.854</ele>
  <time>2026-09-01T01:12:15Z</time>
  <course>186.19</course>
  <speed>0.022360679774997897</speed>
  <fix>3d</fix>
</trkpt>
<trkpt lat="33.810313" lon="-118.393867">
  <ele>-0.84</ele>
  <time>2026-09-01T01:12:15Z</time>
  <course>0.0</course>
  <speed>0.0</speed>
  <fix>3d</fix>
</trkpt>
<trkpt lat="33.8103132" lon="-118.3938672">
  <ele>-0.848</ele>
  <time>2026-09-01T01:12:15Z</time>
  <course>186.19</course>
  <speed>0.022360679774997897</speed>
  <fix>3d</fix>
</trkpt>
<trkpt lat="33.810313" lon="-118.393867">
  <ele>-0.83</ele>
  <time>2026-09-01T01:12:15Z</time>
  <course>0.0</course>
  <speed>0.0</speed>
  <fix>3d</fix>
</trkpt>
<trkpt lat="33.8103132" lon="-118.3938672">
  <ele>-0.842</ele>
  <time>2026-09-01T01:12:15Z</time>
  <course>186.19</course>
  <speed>0.022360679774997897</speed>
  <fix>3d</fix>
</trkpt>
<trkpt lat="33.810313" lon="-118.393867">
  <ele>-0.83</ele>
  <time>2026-09-01T01:12:15Z</time>
  <course>0.0</course>
  <speed>0.0</speed>
  <fix>3d</fix>
</trkpt>
<trkpt lat="33.8103132" lon="-118.3938672">
  <ele>-0.836</ele>
  <time>2026-09-01T01:12:15Z</time>
  <course>186.19</course>
  <speed>0.022360679774997897</speed>
  <fix>3d</fix>
</trkpt>
<trkpt lat="33.810313" lon="-118.393867">
  <ele>-0.81</ele>
  <time>2026-09-01T01:12:15Z</time>
  <course>0.0</course>
  <speed>0.0</speed>
  <fix>3d</fix>
</trkpt>
<trkpt lat="33.8103132" lon="-118.3938672">
  <ele>-0.83</ele>
  <time>2026-09-01T01:12:15Z</time>
  <course>186.19</course>
  <speed>0.022360679774997897</speed>
  <fix>3d</fix>
</trkpt>
<trkpt lat="33.810313" lon="-118.393867">
  <ele>-0.81</ele>
  <time>2026-09-01T01:12:15Z</time>
  <course>0.0</course>
  <speed>0.0</speed>
  <fix>3d</fix>
</trkpt>
<trkpt lat="33.8103132" lon="-118.3938672">
  <ele>-0.822</ele>
  <time>2026-09-01T01:12:15Z</time>
  <course>186.19</course>
  <speed>0.022360679774997897</speed>
  <fix>3d</fix>
</trkpt>
<trkpt lat="33.810313" lon="-118.393867">
  <ele>-0.8</ele>
  <time>2026-09-01T01:12:15Z</time>
  <course>0.0</course>
  <speed>0.0</speed>
  <fix>3d</fix>
</trkpt>
<trkpt lat="33.8103132" lon="-118.3938672">
  <ele>-0.814</ele>
  <time>2026-09-01T01:12:15Z</time>
  <course>186.19</course>
  <speed>0.022360679774997897</speed>
  <fix>3d</fix>
</trkpt>
<trkpt lat="33.810313" lon="-118.393867">
  <ele>-0.8</ele>
  <time>2026-09-01T01:12:15Z</time>
  <course>0.0</course>
  <speed>0.0</speed>
  <fix>3d</fix>
</trkpt>
<trkpt lat="33.8103132" lon="-118.3938672">
  <ele>-0.805</ele>
  <time>2026-09-01T01:12:15Z</time>
  <course>186.19</course>
  <speed>0.022360679774997897</speed>
  <fix>3d</fix>
</trkpt>
<trkpt lat="33.810313" lon="-118.393867">
  <ele>-0.78</ele>
  <time>2026-09-01T01:12:15Z</time>
  <course>0.0</course>
  <speed>0.0</speed>
  <fix>3d</fix>
</trkpt>
<trkpt lat="33.8103132" lon="-118.3938672">
  <ele>-0.796</ele>
  <time>2026-09-01T01:12:15Z</time>
  <course>186.19</course>
  <speed>0.022360679774997897</speed>
  <fix>3d</fix>
</trkpt>
<trkpt lat="33.810313" lon="-118.393867">
  <ele>-0.78</ele>
  <time>2026-09-01T01:12:15Z</time>
  <course>0.0</course>
  <speed>0.0</speed>
  <fix>3d</fix>
</trkpt>
<trkpt lat="33.8103132" lon="-118.3938672">
  <ele>-0.787</ele>
  <time>2026-09-01T01:12:15Z</time>
  <course>186.19</course>
  <speed>0.022360679774997897</speed>
  <fix>3d</fix>
</trkpt>
<trkpt lat="33.810313" lon="-118.393867">
  <ele>-0.77</ele>
  <time>2026-09-01T01:12:15Z</time>
  <course>0.0</course>
  <speed>0.0</speed>
  <fix>3d</fix>
</trkpt>
<trkpt lat="33.8103132" lon="-118.3938672">
  <ele>-0.777</ele>
  <time>2026-09-01T01:12:15Z</time>
  <course>186.19</course>
  <speed>0.022360679774997897</speed>
  <fix>3d</fix>
</trkpt>
<trkpt lat="33.810313" lon="-118.393867">
  <ele>-0.77</ele>
  <time>2026-09-01T01:12:15Z</time>
  <course>0.0</course>
  <speed>0.0</speed>
  <fix>3d</fix>
</trkpt>
<trkpt lat="33.8103132" lon="-118.3938672">
  <ele>-0.767</ele>
  <time>2026-09-01T01:12:15Z</time>
  <course>186.19</course>
  <speed>0.022360679774997897</speed>
  <fix>3d</fix>
</trkpt>
<trkpt lat="33.810313" lon="-118.393867">
  <ele>-0.76</ele>
  <time>2026-09-01T01:12:15Z</time>
  <course>0.0</course>
  <speed>0.0</speed>
  <fix>3d</fix>
</trkpt>
<trkpt lat="33.8103132" lon="-118.3938672">
  <ele>-0.755</ele>
  <time>2026-09-01T01:12:15Z</time>
  <course>186.19</course>
  <speed>0.022360679774997897</speed>
  <fix>3d</fix>
</trkpt>
<trkpt lat="33.810313" lon="-118.393867">
  <ele>-0.76</ele>
  <time>2026-09-01T01:12:15Z</time>
  <course>0.0</course>
  <speed>0.0</speed>
  <fix>3d</fix>
</trkpt>
<trkpt lat="33.8103132" lon="-118.3938672">
  <ele>-0.744</ele>
  <time>2026-09-01T01:12:15Z</time>
  <course>186.19</course>
  <speed>0.022360679774997897</speed>
  <fix>3d</fix>
</trkpt>
<trkpt lat="33.810313" lon="-118.393867">
  <ele>-0.74</ele>
  <time>2026-09-01T01:12:15Z</time>
  <course>0.0</course>
  <speed>0.0</speed>
  <fix>3d</fix>
</trkpt>
<trkpt lat="33.8103132" lon="-118.3938672">
  <ele>-0.733</ele>
  <time>2026-09-01T01:12:15Z</time>
  <course>186.19</course>
  <speed>0.022360679774997897</speed>
  <fix>3d</fix>
</trkpt>
<trkpt lat="33.810313" lon="-118.393867">
  <ele>-0.74</ele>
  <time>2026-09-01T01:12:15Z</time>
  <course>0.0</course>
  <speed>0.0</speed>
  <fix>3d</fix>
</trkpt>
<trkpt lat="33.8103132" lon="-118.3938672">
  <ele>-0.722</ele>
  <time>2026-09-01T01:12:15Z</time>
  <course>186.19</course>
  <speed>0.022360679774997897</speed>
  <fix>3d</fix>
</trkpt>
<trkpt lat="33.810313" lon="-118.393867">
  <ele>-0.72</ele>
  <time>2026-09-01T01:12:15Z</time>
  <course>0.0</course>
  <speed>0.0</speed>
  <fix>3d</fix>
</trkpt>
<trkpt lat="33.8103132" lon="-118.3938672">
  <ele>-0.712</ele>
  <time>2026-09-01T01:12:15Z</time>
  <course>186.19</course>
  <speed>0.022360679774997897</speed>
  <fix>3d</fix>
</trkpt>
<trkpt lat="33.810313" lon="-118.393867">
  <ele>-0.72</ele>
  <time>2026-09-01T01:12:15Z</time>
  <course>0.0</course>
  <speed>0.0</speed>
  <fix>3d</fix>
</trkpt>
<trkpt lat="33.8103132" lon="-118.3938672">
  <ele>-0.703</ele>
  <time>2026-09-01T01:12:15Z</time>
  <course>186.19</course>
  <speed>0.022360679774997897</speed>
  <fix>3d</fix>
</trkpt>
<trkpt lat="33.810313" lon="-118.393867">
  <ele>-0.7</ele>
  <time>2026-09-01T01:12:15Z</time>
  <course>0.0</course>
  <speed>0.0</speed>
  <fix>3d</fix>
</trkpt>
<trkpt lat="33.8103132" lon="-118.3938672">
  <ele>-0.695</ele>
  <time>2026-09-01T01:12:15Z</time>
  <course>186.19</course>
  <speed>0.0282842712474619</speed>
  <fix>3d</fix>
</trkpt>
<trkpt lat="33.810313" lon="-118.393867">
  <ele>-0.7</ele>
  <time>2026-09-01T01:12:15Z</time>
  <course>0.0</course>
  <speed>0.0</speed>
  <fix>3d</fix>
</trkpt>
<trkpt lat="33.8103132" lon="-118.3938672">
  <ele>-0.686</ele>
  <time>2026-09-01T01:12:15Z</time>
  <course>186.19</course>
  <speed>0.0282842712474619</speed>
  <fix>3d</fix>
</trkpt>
<trkpt lat="33.810313" lon="-118.393867">
  <ele>-0.69</ele>
  <time>2026-09-01T01:12:15Z</time>
  <course>0.0</course>
  <speed>0.0</speed>
  <fix>3d</fix>
</trkpt>
<trkpt lat="33.8103132" lon="-118.3938672">
  <ele>-0.677</ele>
  <time>2026-09-01T01:12:15Z</time>
  <course>186.19</course>
  <speed>0.0282842712474619</speed>
  <fix>3d</fix>
</trkpt>
<trkpt lat="33.810313" lon="-118.393867">
  <ele>-0.69</ele>
  <time>2026-09-01T01:12:15Z</time>
  <course>0.0</course>
  <speed>0.0</speed>
  <fix>3d</fix>
</trkpt>
<trkpt lat="33.8103132" lon="-118.3938672">
  <ele>-0.669</ele>
  <time>2026-09-01T01:12:15Z</time>
  <course>186.19</course>
  <speed>0.0282842712474619</speed>
  <fix>3d</fix>
</trkpt>
<trkpt lat="33.810313" lon="-118.393867">
  <ele>-0.67</ele>
  <time>2026-09-01T01:12:15Z</time>
  <course>0.0</course>
  <speed>0.0</speed>
  <fix>3d</fix>
</trkpt>
<trkpt lat="33.8103132" lon="-118.3938672">
  <ele>-0.66</ele>
  <time>2026-09-01T01:12:15Z</time>
  <course>186.19</course>
  <speed>0.0282842712474619</speed>
  <fix>3d</fix>
</trkpt>
<trkpt lat="33.810313" lon="-118.393867">
  <ele>-0.67</ele>
  <time>2026-09-01T01:12:15Z</time>
  <course>0.0</course>
  <speed>0.0</speed>
  <fix>3d</fix>
</trkpt>
<trkpt lat="33.8103132" lon="-118.3938672">
  <ele>-0.65</ele>
  <time>2026-09-01T01:12:15Z</time>
  <course>186.19</course>
  <speed>0.0282842712474619</speed>
  <fix>3d</fix>
</trkpt>
<trkpt lat="33.810313" lon="-118.393867">
  <ele>-0.65</ele>
  <time>2026-09-01T01:12:15Z</time>
  <course>0.0</course>
  <speed>0.0</speed>
  <fix>3d</fix>
</trkpt>
<trkpt lat="33.8103132" lon="-118.3938672">
  <ele>-0.641</ele>
  <time>2026-09-01T01:12:15Z</time>
  <course>186.19</course>
  <speed>0.0282842712474619</speed>
  <fix>3d</fix>
</trkpt>
<trkpt lat="33.810313" lon="-118.393867">
  <ele>-0.65</ele>
  <time>2026-09-01T01:12:15Z</time>
  <course>0.0</course>
  <speed>0.0</speed>
  <fix>3d</fix>
</trkpt>
<trkpt lat="33.8103132" lon="-118.3938672">
  <ele>-0.631</ele>
  <time>2026-09-01T01:12:15Z</time>
  <course>186.19</course>
  <speed>0.0282842712474619</speed>
  <fix>3d</fix>
</trkpt>
<trkpt lat="33.810313" lon="-118.393867">
  <ele>-0.63</ele>
  <time>2026-09-01T01:12:15Z</time>
  <course>0.0</course>
  <speed>0.0</speed>
  <fix>3d</fix>
</trkpt>
<trkpt lat="33.8103132" lon="-118.3938672">
  <ele>-0.622</ele>
  <time>2026-09-01T01:12:15Z</time>
  <course>186.19</course>
  <speed>0.0282842712474619</speed>
  <fix>3d</fix>
</trkpt>
<trkpt lat="33.810313" lon="-118.393867">
  <ele>-0.63</ele>
  <time>2026-09-01T01:12:15Z</time>
  <course>0.0</course>
  <speed>0.0</speed>
  <fix>3d</fix>
</trkpt>
<trkpt lat="33.8103132" lon="-118.3938672">
  <ele>-0.614</ele>
  <time>2026-09-01T01:12:15Z</time>
  <course>186.19</course>
  <speed>0.0282842712474619</speed>
  <fix>3d</fix>
</trkpt>
<trkpt lat="33.810313" lon="-118.393867">
  <ele>-0.61</ele>
  <time>2026-09-01T01:12:15Z</time>
  <course>0.0</course>
  <speed>0.0</speed>
  <fix>3d</fix>
</trkpt>
<trkpt lat="33.8103132" lon="-118.3938672">
  <ele>-0.605</ele>
  <time>2026-09-01T01:12:15Z</time>
  <course>186.19</course>
  <speed>0.0282842712474619</speed>
  <fix>3d</fix>
</trkpt>
<trkpt lat="33.810313" lon="-118.393867">
  <ele>-0.61</ele>
  <time>2026-09-01T01:12:15Z</time>
  <course>0.0</course>
  <speed>0.0</speed>
  <fix>3d</fix>
</trkpt>
<trkpt lat="33.8103132" lon="-118.3938672">
  <ele>-0.595</ele>
  <time>2026-09-01T01:12:15Z</time>
  <course>186.19</course>
  <speed>0.0282842712474619</speed>
  <fix>3d</fix>
</trkpt>
<trkpt lat="33.810313" lon="-118.393867">
  <ele>-0.59</ele>
  <time>2026-09-01T01:12:15Z</time>
  <course>0.0</course>
  <speed>0.0</speed>
  <fix>3d</fix>
</trkpt>
<trkpt lat="33.8103132" lon="-118.3938672">
  <ele>-0.586</ele>
  <time>2026-09-01T01:12:15Z</time>
  <course>186.19</course>
  <speed>0.0282842712474619</speed>
  <fix>3d</fix>
</trkpt>
<trkpt lat="33.810313" lon="-118.393867">
  <ele>-0.59</ele>
  <time>2026-09-01T01:12:15Z</time>
  <course>0.0</course>
  <speed>0.0</speed>
  <fix>3d</fix>
</trkpt>
<trkpt lat="33.8103132" lon="-118.3938672">
  <ele>-0.575</ele>
  <time>2026-09-01T01:12:15Z</time>
  <course>186.19</course>
  <speed>0.0282842712474619</speed>
  <fix>3d</fix>
</trkpt>
<trkpt lat="33.810313" lon="-118.393867">
  <ele>-0.58</ele>
  <time>2026-09-01T01:12:15Z</time>
  <course>0.0</course>
  <speed>0.0</speed>
  <fix>3d</fix>
</trkpt>
<trkpt lat="33.8103132" lon="-118.3938672">
  <ele>-0.565</ele>
  <time>2026-09-01T01:12:15Z</time>
  <course>186.18</course>
  <speed>0.0282842712474619</speed>
  <fix>3d</fix>
</trkpt>
<trkpt lat="33.810313" lon="-118.393867">
  <ele>-0.58</ele>
  <time>2026-09-01T01:12:15Z</time>
  <course>0.0</course>
  <speed>0.0</speed>
  <fix>3d</fix>
</trkpt>
<trkpt lat="33.8103132" lon="-118.3938672">
  <ele>-0.554</ele>
  <time>2026-09-01T01:12:15Z</time>
  <course>186.18</course>
  <speed>0.0282842712474619</speed>
  <fix>3d</fix>
</trkpt>
<trkpt lat="33.810313" lon="-118.393867">
  <ele>-0.56</ele>
  <time>2026-09-01T01:12:15Z</time>
  <course>0.0</course>
  <speed>0.0</speed>
  <fix>3d</fix>
</trkpt>
<trkpt lat="33.8103132" lon="-118.3938672">
  <ele>-0.544</ele>
  <time>2026-09-01T01:12:15Z</time>
  <course>186.18</course>
  <speed>0.0282842712474619</speed>
  <fix>3d</fix>
</trkpt>
<trkpt lat="33.810313" lon="-118.393867">
  <ele>-0.56</ele>
  <time>2026-09-01T01:12:15Z</time>
  <course>0.0</course>
  <speed>0.0</speed>
  <fix>3d</fix>
</trkpt>
<trkpt lat="33.8103132" lon="-118.3938672">
  <ele>-0.534</ele>
  <time>2026-09-01T01:12:15Z</time>
  <course>186.18</course>
  <speed>0.0282842712474619</speed>
  <fix>3d</fix>
</trkpt>
<trkpt lat="33.810313" lon="-118.393867">
  <ele>-0.53</ele>
  <time>2026-09-01T01:12:15Z</time>
  <course>0.0</course>
  <speed>0.0</speed>
  <fix>3d</fix>
</trkpt>
<trkpt lat="33.8103132" lon="-118.3938672">
  <ele>-0.524</ele>
  <time>2026-09-01T01:12:15Z</time>
  <course>186.18</course>
  <speed>0.0282842712474619</speed>
  <fix>3d</fix>
</trkpt>
<trkpt lat="33.810313" lon="-118.393867">
  <ele>-0.53</ele>
  <time>2026-09-01T01:12:15Z</time>
  <course>0.0</course>
  <speed>0.0</speed>
  <fix>3d</fix>
</trkpt>
<trkpt lat="33.8103132" lon="-118.3938672">
  <ele>-0.513</ele>
  <time>2026-09-01T01:12:15Z</time>
  <course>186.18</course>
  <speed>0.0282842712474619</speed>
  <fix>3d</fix>
</trkpt>
<trkpt lat="33.810313" lon="-118.393867">
  <ele>-0.52</ele>
  <time>2026-09-01T01:12:15Z</time>
  <course>0.0</course>
  <speed>0.0</speed>
  <fix>3d</fix>
</trkpt>
<trkpt lat="33.8103132" lon="-118.3938672">
  <ele>-0.501</ele>
  <time>2026-09-01T01:12:15Z</time>
  <course>186.18</course>
  <speed>0.0282842712474619</speed>
  <fix>3d</fix>
</trkpt>
<trkpt lat="33.810313" lon="-118.393867">
  <ele>-0.52</ele>
  <time>2026-09-01T01:12:15Z</time>
  <course>0.0</course>
  <speed>0.0</speed>
  <fix>3d</fix>
</trkpt>
<trkpt lat="33.8103132" lon="-118.3938672">
  <ele>-0.49</ele>
  <time>2026-09-01T01:12:15Z</time>
  <course>186.18</course>
  <speed>0.0282842712474619</speed>
  <fix>3d</fix>
</trkpt>
<trkpt lat="33.810313" lon="-118.393867">
  <ele>-0.5</ele>
  <time>2026-09-01T01:12:15Z</time>
  <course>0.0</course>
  <speed>0.0</speed>
  <fix>3d</fix>
</trkpt>
<trkpt lat="33.8103132" lon="-118.3938672">
  <ele>-0.479</ele>
  <time>2026-09-01T01:12:15Z</time>
  <course>186.18</course>
  <speed>0.0282842712474619</speed>
  <fix>3d</fix>
</trkpt>
<trkpt lat="33.810313" lon="-118.393867">
  <ele>-0.5</ele>
  <time>2026-09-01T01:12:15Z</time>
  <course>0.0</course>
  <speed>0.0</speed>
  <fix>3d</fix>
</trkpt>
<trkpt lat="33.8103132" lon="-118.3938672">
  <ele>-0.469</ele>
  <time>2026-09-01T01:12:15Z</time>
  <course>186.18</course>
  <speed>0.0282842712474619</speed>
  <fix>3d</fix>
</trkpt>
<trkpt lat="33.810313" lon="-118.393867">
  <ele>-0.48</ele>
  <time>2026-09-01T01:12:15Z</time>
  <course>0.0</course>
  <speed>0.0</speed>
  <fix>3d</fix>
</trkpt>
<trkpt lat="33.8103132" lon="-118.3938672">
  <ele>-0.461</ele>
  <time>2026-09-01T01:12:15Z</time>
  <course>186.18</course>
  <speed>0.0282842712474619</speed>
  <fix>3d</fix>
</trkpt>
<trkpt lat="33.810313" lon="-118.393867">
  <ele>-0.48</ele>
  <time>2026-09-01T01:12:15Z</time>
  <course>0.0</course>
  <speed>0.0</speed>
  <fix>3d</fix>
</trkpt>
<trkpt lat="33.8103132" lon="-118.3938672">
  <ele>-0.486</ele>
  <time>2026-09-01T01:12:15Z</time>
  <course>186.18</course>
  <speed>0.022360679774997897</speed>
  <fix>3d</fix>
</trkpt>
<trkpt lat="33.810313" lon="-118.393867">
  <ele>-0.45</ele>
  <time>2026-09-01T01:12:15Z</time>
  <course>275.0</course>
  <speed>0.0</speed>
  <fix>3d</fix>
</trkpt>
<trkpt lat="33.8103132" lon="-118.3938672">
  <ele>-0.547</ele>
  <time>2026-09-01T01:12:15Z</time>
  <course>186.18</course>
  <speed>0.022360679774997897</speed>
  <fix>3d</fix>
</trkpt>
<trkpt lat="33.810313" lon="-118.393867">
  <ele>-0.45</ele>
  <time>2026-09-01T01:12:15Z</time>
  <course>275.0</course>
  <speed>0.0</speed>
  <fix>3d</fix>
</trkpt>
<trkpt lat="33.8103132" lon="-118.3938672">
  <ele>-0.593</ele>
  <time>2026-09-01T01:12:15Z</time>
  <course>186.18</course>
  <speed>0.022360679774997897</speed>
  <fix>3d</fix>
</trkpt>
<trkpt lat="33.810313" lon="-118.393867">
  <ele>-0.5</ele>
  <time>2026-09-01T01:12:15Z</time>
  <course>95.0</course>
  <speed>0.0</speed>
  <fix>3d</fix>
</trkpt>
<trkpt lat="33.8103132" lon="-118.3938672">
  <ele>-0.631</ele>
  <time>2026-09-01T01:12:15Z</time>
  <course>186.18</course>
  <speed>0.022360679774997897</speed>
  <fix>3d</fix>
</trkpt>
<trkpt lat="33.810313" lon="-118.393867">
  <ele>-0.5</ele>
  <time>2026-09-01T01:12:15Z</time>
  <course>95.0</course>
  <speed>0.0</speed>
  <fix>3d</fix>
</trkpt>
<trkpt lat="33.8103132" lon="-118.3938672">
  <ele>-0.661</ele>
  <time>2026-09-01T01:12:15Z</time>
  <course>186.18</course>
  <speed>0.022360679774997897</speed>
  <fix>3d</fix>
</trkpt>
<trkpt lat="33.810313" lon="-118.393867">
  <ele>-0.58</ele>
  <time>2026-09-01T01:12:15Z</time>
  <course>95.0</course>
  <speed>0.0</speed>
  <fix>3d</fix>
</trkpt>
<trkpt lat="33.8103132" lon="-118.3938672">
  <ele>-0.687</ele>
  <time>2026-09-01T01:12:15Z</time>
  <course>186.18</course>
  <speed>0.022360679774997897</speed>
  <fix>3d</fix>
</trkpt>
<trkpt lat="33.810313" lon="-118.393867">
  <ele>-0.58</ele>
  <time>2026-09-01T01:12:15Z</time>
  <course>95.0</course>
  <speed>0.0</speed>
  <fix>3d</fix>
</trkpt>
<trkpt lat="33.8103132" lon="-118.3938672">
  <ele>-0.709</ele>
  <time>2026-09-01T01:12:15Z</time>
  <course>186.18</course>
  <speed>0.022360679774997897</speed>
  <fix>3d</fix>
</trkpt>
<trkpt lat="33.810313" lon="-118.393867">
  <ele>-0.64</ele>
  <time>2026-09-01T01:12:15Z</time>
  <course>95.0</course>
  <speed>0.0</speed>
  <fix>3d</fix>
</trkpt>
<trkpt lat="33.8103132" lon="-118.3938672">
  <ele>-0.726</ele>
  <time>2026-09-01T01:12:15Z</time>
  <course>186.18</course>
  <speed>0.022360679774997897</speed>
  <fix>3d</fix>
</trkpt>
<trkpt lat="33.810313" lon="-118.393867">
  <ele>-0.64</ele>
  <time>2026-09-01T01:12:15Z</time>
  <course>95.0</course>
  <speed>0.0</speed>
  <fix>3d</fix>
</trkpt>
<trkpt lat="33.8103132" lon="-118.3938672">
  <ele>-0.741</ele>
  <time>2026-09-01T01:12:15Z</time>
  <course>186.18</course>
  <speed>0.022360679774997897</speed>
  <fix>3d</fix>
</trkpt>
<trkpt lat="33.810313" lon="-118.393867">
  <ele>-0.68</ele>
  <time>2026-09-01T01:12:15Z</time>
  <course>95.0</course>
  <speed>0.0</speed>
  <fix>3d</fix>
</trkpt>
<trkpt lat="33.8103132" lon="-118.3938672">
  <ele>-0.753</ele>
  <time>2026-09-01T01:12:15Z</time>
  <course>186.18</course>
  <speed>0.01414213562373095</speed>
  <fix>3d</fix>
</trkpt>
<trkpt lat="33.810313" lon="-118.393867">
  <ele>-0.68</ele>
  <time>2026-09-01T01:12:15Z</time>
  <course>95.0</course>
  <speed>0.0</speed>
  <fix>3d</fix>
</trkpt>
<trkpt lat="33.8103132" lon="-118.3938672">
  <ele>-0.763</ele>
  <time>2026-09-01T01:12:15Z</time>
  <course>186.18</course>
  <speed>0.01414213562373095</speed>
  <fix>3d</fix>
</trkpt>
<trkpt lat="33.810313" lon="-118.393867">
  <ele>-0.71</ele>
  <time>2026-09-01T01:12:15Z</time>
  <course>95.0</course>
  <speed>0.0</speed>
  <fix>3d</fix>
</trkpt>
<trkpt lat="33.8103132" lon="-118.3938672">
  <ele>-0.772</ele>
  <time>2026-09-01T01:12:15Z</time>
  <course>186.18</course>
  <speed>0.01414213562373095</speed>
  <fix>3d</fix>
</trkpt>
<trkpt lat="33.810313" lon="-118.393867">
  <ele>-0.71</ele>
  <time>2026-09-01T01:12:15Z</time>
  <course>95.0</course>
  <speed>0.0</speed>
  <fix>3d</fix>
</trkpt>
<trkpt lat="33.8103132" lon="-118.3938672">
  <ele>-0.78</ele>
  <time>2026-09-01T01:12:15Z</time>
  <course>186.18</course>
  <speed>0.01414213562373095</speed>
  <fix>3d</fix>
</trkpt>
<trkpt lat="33.810313" lon="-118.393867">
  <ele>-0.73</ele>
  <time>2026-09-01T01:12:15Z</time>
  <course>95.0</course>
  <speed>0.0</speed>
  <fix>3d</fix>
</trkpt>
<trkpt lat="33.8103132" lon="-118.3938672">
  <ele>-0.787</ele>
  <time>2026-09-01T01:12:15Z</time>
  <course>186.18</course>
  <speed>0.01414213562373095</speed>
  <fix>3d</fix>
</trkpt>
<trkpt lat="33.810313" lon="-118.393867">
  <ele>-0.73</ele>
  <time>2026-09-01T01:12:15Z</time>
  <course>95.0</course>
  <speed>0.0</speed>
  <fix>3d</fix>
</trkpt>
<trkpt lat="33.8103132" lon="-118.3938672">
  <ele>-0.793</ele>
  <time>2026-09-01T01:12:15Z</time>
  <course>186.18</course>
  <speed>0.01414213562373095</speed>
  <fix>3d</fix>
</trkpt>
<trkpt lat="33.810313" lon="-118.393867">
  <ele>-0.75</ele>
  <time>2026-09-01T01:12:15Z</time>
  <course>95.0</course>
  <speed>0.0</speed>
  <fix>3d</fix>
</trkpt>
<trkpt lat="33.8103132" lon="-118.3938672">
  <ele>-0.797</ele>
  <time>2026-09-01T01:12:15Z</time>
  <course>186.18</course>
  <speed>0.01414213562373095</speed>
  <fix>3d</fix>
</trkpt>
<trkpt lat="33.810313" lon="-118.393867">
  <ele>-0.75</ele>
  <time>2026-09-01T01:12:15Z</time>
  <course>95.0</course>
  <speed>0.0</speed>
  <fix>3d</fix>
</trkpt>
<trkpt lat="33.8103132" lon="-118.3938672">
  <ele>-0.801</ele>
  <time>2026-09-01T01:12:15Z</time>
  <course>186.18</course>
  <speed>0.01414213562373095</speed>
  <fix>3d</fix>
</trkpt>
<trkpt lat="33.810313" lon="-118.393867">
  <ele>-0.76</ele>
  <time>2026-09-01T01:12:15Z</time>
  <course>95.0</course>
  <speed>0.0</speed>
  <fix>3d</fix>
</trkpt>
<trkpt lat="33.8103132" lon="-118.3938672">
  <ele>-0.804</ele>
  <time>2026-09-01T01:12:15Z</time>
  <course>186.18</course>
  <speed>0.01414213562373095</speed>
  <fix>3d</fix>
</trkpt>
<trkpt lat="33.810313" lon="-118.393867">
  <ele>-0.76</ele>
  <time>2026-09-01T01:12:15Z</time>
  <course>95.0</course>
  <speed>0.0</speed>
  <fix>3d</fix>
</trkpt>
<trkpt lat="33.8103132" lon="-118.3938672">
  <ele>-0.806</ele>
  <time>2026-09-01T01:12:15Z</time>
  <course>186.18</course>
  <speed>0.01414213562373095</speed>
  <fix>3d</fix>
</trkpt>
<trkpt lat="33.810313" lon="-118.393867">
  <ele>-0.77</ele>
  <time>2026-09-01T01:12:15Z</time>
  <course>95.0</course>
  <speed>0.0</speed>
  <fix>3d</fix>
</trkpt>
<trkpt lat="33.8103132" lon="-118.3938672">
  <ele>-0.809</ele>
  <time>2026-09-01T01:12:15Z</time>
  <course>186.18</course>
  <speed>0.01414213562373095</speed>
  <fix>3d</fix>
</trkpt>
<trkpt lat="33.810313" lon="-118.393867">
  <ele>-0.77</ele>
  <time>2026-09-01T01:12:15Z</time>
  <course>95.0</course>
  <speed>0.0</speed>
  <fix>3d</fix>
</trkpt>
<trkpt lat="33.8103132" lon="-118.3938672">
  <ele>-0.811</ele>
  <time>2026-09-01T01:12:15Z</time>
  <course>186.18</course>
  <speed>0.022360679774997897</speed>
  <fix>3d</fix>
</trkpt>
<trkpt lat="33.810313" lon="-118.393867">
  <ele>-0.78</ele>
  <time>2026-09-01T01:12:15Z</time>
  <course>95.0</course>
  <speed>0.0</speed>
  <fix>3d</fix>
</trkpt>
<trkpt lat="33.8103132" lon="-118.3938672">
  <ele>-0.812</ele>
  <time>2026-09-01T01:12:15Z</time>
  <course>186.18</course>
  <speed>0.022360679774997897</speed>
  <fix>3d</fix>
</trkpt>
<trkpt lat="33.810313" lon="-118.393867">
  <ele>-0.78</ele>
  <time>2026-09-01T01:12:15Z</time>
  <course>95.0</course>
  <speed>0.0</speed>
  <fix>3d</fix>
</trkpt>
<trkpt lat="33.8103132" lon="-118.3938672">
  <ele>-0.812</ele>
  <time>2026-09-01T01:12:15Z</time>
  <course>186.18</course>
  <speed>0.022360679774997897</speed>
  <fix>3d</fix>
</trkpt>
<trkpt lat="33.810313" lon="-118.393867">
  <ele>-0.79</ele>
  <time>2026-09-01T01:12:15Z</time>
  <course>95.0</course>
  <speed>0.0</speed>
  <fix>3d</fix>
</trkpt>
<trkpt lat="33.8103132" lon="-118.3938672">
  <ele>-0.812</ele>
  <time>2026-09-01T01:12:15Z</time>
  <course>186.17</course>
  <speed>0.022360679774997897</speed>
  <fix>3d</fix>
</trkpt>
<trkpt lat="33.810313" lon="-118.393867">
  <ele>-0.79</ele>
  <time>2026-09-01T01:12:15Z</time>
  <course>95.0</course>
  <speed>0.0</speed>
  <fix>3d</fix>
</trkpt>
<trkpt lat="33.8103132" lon="-118.3938672">
  <ele>-0.811</ele>
  <time>2026-09-01T01:12:15Z</time>
  <course>186.17</course>
  <speed>0.022360679774997897</speed>
  <fix>3d</fix>
</trkpt>
<trkpt lat="33.810313" lon="-118.393867">
  <ele>-0.79</ele>
  <time>2026-09-01T01:12:15Z</time>
  <course>95.0</course>
  <speed>0.0</speed>
  <fix>3d</fix>
</trkpt>
<trkpt lat="33.8103132" lon="-118.3938672">
  <ele>-0.812</ele>
  <time>2026-09-01T01:12:15Z</time>
  <course>186.17</course>
  <speed>0.022360679774997897</speed>
  <fix>3d</fix>
</trkpt>
<trkpt lat="33.810313" lon="-118.393867">
  <ele>-0.79</ele>
  <time>2026-09-01T01:12:15Z</time>
  <course>95.0</course>
  <speed>0.0</speed>
  <fix>3d</fix>
</trkpt>
<trkpt lat="33.8103132" lon="-118.3938672">
  <ele>-0.845</ele>
  <time>2026-09-01T01:12:15Z</time>
  <course>186.17</course>
  <speed>0.01414213562373095</speed>
  <fix>3d</fix>
</trkpt>
<trkpt lat="33.810313" lon="-118.393867">
  <ele>-0.79</ele>
  <time>2026-09-01T01:12:15Z</time>
  <course>95.0</course>
  <speed>0.0</speed>
  <fix>3d</fix>
</trkpt>
<trkpt lat="33.8103132" lon="-118.3938672">
  <ele>-0.942</ele>
  <time>2026-09-01T01:12:15Z</time>
  <course>186.17</course>
  <speed>0.01414213562373095</speed>
  <fix>3d</fix>
</trkpt>
<trkpt lat="33.810313" lon="-118.393867">
  <ele>-0.79</ele>
  <time>2026-09-01T01:12:15Z</time>
  <course>95.0</course>
  <speed>0.0</speed>
  <fix>3d</fix>
</trkpt>
<trkpt lat="33.8103132" lon="-118.3938672">
  <ele>-1.064</ele>
  <time>2026-09-01T01:12:15Z</time>
  <course>186.17</course>
  <speed>0.01414213562373095</speed>
  <fix>3d</fix>
</trkpt>
<trkpt lat="33.810313" lon="-118.393867">
  <ele>-0.86</ele>
  <time>2026-09-01T01:12:15Z</time>
  <course>94.99</course>
  <speed>0.0</speed>
  <fix>3d</fix>
</trkpt>
<trkpt lat="33.8103132" lon="-118.3938672">
  <ele>-1.193</ele>
  <time>2026-09-01T01:12:15Z</time>
  <course>186.17</course>
  <speed>0.01414213562373095</speed>
  <fix>3d</fix>
</trkpt>
<trkpt lat="33.810313" lon="-118.393867">
  <ele>-0.86</ele>
  <time>2026-09-01T01:12:15Z</time>
  <course>94.99</course>
  <speed>0.0</speed>
  <fix>3d</fix>
</trkpt>
<trkpt lat="33.8103132" lon="-118.3938672">
  <ele>-1.327</ele>
  <time>2026-09-01T01:12:15Z</time>
  <course>186.17</course>
  <speed>0.01414213562373095</speed>
  <fix>3d</fix>
</trkpt>
<trkpt lat="33.810313" lon="-118.393867">
  <ele>-1.06</ele>
  <time>2026-09-01T01:12:15Z</time>
  <course>94.99</course>
  <speed>0.0</speed>
  <fix>3d</fix>
</trkpt>
<trkpt lat="33.8103132" lon="-118.3938672">
  <ele>-1.431</ele>
  <time>2026-09-01T01:12:15Z</time>
  <course>186.17</course>
  <speed>0.01414213562373095</speed>
  <fix>3d</fix>
</trkpt>
<trkpt lat="33.810313" lon="-118.393867">
  <ele>-1.06</ele>
  <time>2026-09-01T01:12:15Z</time>
  <course>94.99</course>
  <speed>0.0</speed>
  <fix>3d</fix>
</trkpt>
<trkpt lat="33.8103132" lon="-118.3938672">
  <ele>-1.498</ele>
  <time>2026-09-01T01:12:15Z</time>
  <course>186.17</course>
  <speed>0.01414213562373095</speed>
  <fix>3d</fix>
</trkpt>
<trkpt lat="33.810313" lon="-118.393867">
  <ele>-1.28</ele>
  <time>2026-09-01T01:12:15Z</time>
  <course>94.99</course>
  <speed>0.0</speed>
  <fix>3d</fix>
</trkpt>
<trkpt lat="33.8103132" lon="-118.3938672">
  <ele>-1.547</ele>
  <time>2026-09-01T01:12:15Z</time>
  <course>186.17</course>
  <speed>0.01414213562373095</speed>
  <fix>3d</fix>
</trkpt>
<trkpt lat="33.810313" lon="-118.393867">
  <ele>-1.28</ele>
  <time>2026-09-01T01:12:15Z</time>
  <course>94.99</course>
  <speed>0.0</speed>
  <fix>3d</fix>
</trkpt>
<trkpt lat="33.8103132" lon="-118.3938672">
  <ele>-1.585</ele>
  <time>2026-09-01T01:12:15Z</time>
  <course>186.17</course>
  <speed>0.01414213562373095</speed>
  <fix>3d</fix>
</trkpt>
<trkpt lat="33.810313" lon="-118.393867">
  <ele>-1.42</ele>
  <time>2026-09-01T01:12:15Z</time>
  <course>94.99</course>
  <speed>0.0</speed>
  <fix>3d</fix>
</trkpt>
<trkpt lat="33.8103132" lon="-118.3938672">
  <ele>-1.614</ele>
  <time>2026-09-01T01:12:15Z</time>
  <course>186.17</course>
  <speed>0.01414213562373095</speed>
  <fix>3d</fix>
</trkpt>
<trkpt lat="33.810313" lon="-118.393867">
  <ele>-1.42</ele>
  <time>2026-09-01T01:12:15Z</time>
  <course>94.99</course>
  <speed>0.0</speed>
  <fix>3d</fix>
</trkpt>
<trkpt lat="33.8103132" lon="-118.3938672">
  <ele>-1.636</ele>
  <time>2026-09-01T01:12:15Z</time>
  <course>186.17</course>
  <speed>0.01414213562373095</speed>
  <fix>3d</fix>
</trkpt>
<trkpt lat="33.810313" lon="-118.393867">
  <ele>-1.49</ele>
  <time>2026-09-01T01:12:15Z</time>
  <course>94.99</course>
  <speed>0.0</speed>
  <fix>3d</fix>
</trkpt>
<trkpt lat="33.8103132" lon="-118.3938672">
  <ele>-1.654</ele>
  <time>2026-09-01T01:12:15Z</time>
  <course>186.17</course>
  <speed>0.01414213562373095</speed>
  <fix>3d</fix>
</trkpt>
<trkpt lat="33.810313" lon="-118.393867">
  <ele>-1.49</ele>
  <time>2026-09-01T01:12:15Z</time>
  <course>94.99</course>
  <speed>0.0</speed>
  <fix>3d</fix>
</trkpt>
<trkpt lat="33.8103132" lon="-118.3938672">
  <ele>-1.669</ele>
  <time>2026-09-01T01:12:15Z</time>
  <course>186.17</course>
  <speed>0.01414213562373095</speed>
  <fix>3d</fix>
</trkpt>
<trkpt lat="33.810313" lon="-118.393867">
  <ele>-1.54</ele>
  <time>2026-09-01T01:12:15Z</time>
  <course>94.99</course>
  <speed>0.0</speed>
  <fix>3d</fix>
</trkpt>
<trkpt lat="33.8103132" lon="-118.3938672">
  <ele>-1.68</ele>
  <time>2026-09-01T01:12:15Z</time>
  <course>186.17</course>
  <speed>0.01414213562373095</speed>
  <fix>3d</fix>
</trkpt>
<trkpt lat="33.810313" lon="-118.393867">
  <ele>-1.54</ele>
  <time>2026-09-01T01:12:15Z</time>
  <course>94.99</course>
  <speed>0.0</speed>
  <fix>3d</fix>
</trkpt>
<trkpt lat="33.8103132" lon="-118.3938672">
  <ele>-1.688</ele>
  <time>2026-09-01T01:12:15Z</time>
  <course>186.17</course>
  <speed>0.01414213562373095</speed>
  <fix>3d</fix>
</trkpt>
<trkpt lat="33.810313" lon="-118.393867">
  <ele>-1.57</ele>
  <time>2026-09-01T01:12:15Z</time>
  <course>94.99</course>
  <speed>0.0</speed>
  <fix>3d</fix>
</trkpt>
<trkpt lat="33.8103132" lon="-118.3938672">
  <ele>-1.696</ele>
  <time>2026-09-01T01:12:15Z</time>
  <course>186.17</course>
  <speed>0.01414213562373095</speed>
  <fix>3d</fix>
</trkpt>
<trkpt lat="33.810313" lon="-118.393867">
  <ele>-1.57</ele>
  <time>2026-09-01T01:12:15Z</time>
  <course>94.99</course>
  <speed>0.0</speed>
  <fix>3d</fix>
</trkpt>
<trkpt lat="33.8103132" lon="-118.3938671">
  <ele>-1.702</ele>
  <time>2026-09-01T01:12:15Z</time>
  <course>186.17</course>
  <speed>0.01414213562373095</speed>
  <fix>3d</fix>
</trkpt>
<trkpt lat="33.810313" lon="-118.393867">
  <ele>-1.6</ele>
  <time>2026-09-01T01:12:15Z</time>
  <course>94.99</course>
  <speed>0.0</speed>
  <fix>3d</fix>
</trkpt>
<trkpt lat="33.8103132" lon="-118.3938671">
  <ele>-1.706</ele>
  <time>2026-09-01T01:12:15Z</time>
  <course>186.17</course>
  <speed>0.01414213562373095</speed>
  <fix>3d</fix>
</trkpt>
<trkpt lat="33.810313" lon="-118.393867">
  <ele>-1.6</ele>
  <time>2026-09-01T01:12:15Z</time>
  <course>94.99</course>
  <speed>0.0</speed>
  <fix>3d</fix>
</trkpt>
<trkpt lat="33.8103132" lon="-118.3938671">
  <ele>-1.71</ele>
  <time>2026-09-01T01:12:15Z</time>
  <course>186.17</course>
  <speed>0.01414213562373095</speed>
  <fix>3d</fix>
</trkpt>
<trkpt lat="33.810313" lon="-118.393867">
  <ele>-1.62</ele>
  <time>2026-09-01T01:12:15Z</time>
  <course>94.99</course>
  <speed>0.0</speed>
  <fix>3d</fix>
</trkpt>
<trkpt lat="33.8103132" lon="-118.3938671">
  <ele>-1.713</ele>
  <time>2026-09-01T01:12:15Z</time>
  <course>186.17</course>
  <speed>0.01414213562373095</speed>
  <fix>3d</fix>
</trkpt>
<trkpt lat="33.810313" lon="-118.393867">
  <ele>-1.62</ele>
  <time>2026-09-01T01:12:15Z</time>
  <course>94.99</course>
  <speed>0.0</speed>
  <fix>3d</fix>
</trkpt>
<trkpt lat="33.8103132" lon="-118.3938671">
  <ele>-1.716</ele>
  <time>2026-09-01T01:12:15Z</time>
  <course>186.17</course>
  <speed>0.01414213562373095</speed>
  <fix>3d</fix>
</trkpt>
<trkpt lat="33.810313" lon="-118.393867">
  <ele>-1.63</ele>
  <time>2026-09-01T01:12:15Z</time>
  <course>94.99</course>
  <speed>0.0</speed>
  <fix>3d</fix>
</trkpt>
<trkpt lat="33.8103132" lon="-118.3938671">
  <ele>-1.719</ele>
  <time>2026-09-01T01:12:15Z</time>
  <course>186.16</course>
  <speed>0.01414213562373095</speed>
  <fix>3d</fix>
</trkpt>
<trkpt lat="33.810313" lon="-118.393867">
  <ele>-1.63</ele>
  <time>2026-09-01T01:12:15Z</time>
  <course>94.99</course>
  <speed>0.0</speed>
  <fix>3d</fix>
</trkpt>
<trkpt lat="33.8103132" lon="-118.3938671">
  <ele>-1.721</ele>
  <time>2026-09-01T01:12:15Z</time>
  <course>186.16</course>
  <speed>0.01414213562373095</speed>
  <fix>3d</fix>
</trkpt>
<trkpt lat="33.810313" lon="-118.393867">
  <ele>-1.64</ele>
  <time>2026-09-01T01:12:15Z</time>
  <course>94.99</course>
  <speed>0.0</speed>
  <fix>3d</fix>
</trkpt>
<trkpt lat="33.8103132" lon="-118.3938671">
  <ele>-1.721</ele>
  <time>2026-09-01T01:12:15Z</time>
  <course>186.16</course>
  <speed>0.01414213562373095</speed>
  <fix>3d</fix>
</trkpt>
<trkpt lat="33.810313" lon="-118.393867">
  <ele>-1.64</ele>
  <time>2026-09-01T01:12:15Z</time>
  <course>94.99</course>
  <speed>0.0</speed>
  <fix>3d</fix>
</trkpt>
<trkpt lat="33.8103132" lon="-118.3938671">
  <ele>-1.721</ele>
  <time>2026-09-01T01:12:15Z</time>
  <course>186.16</course>
  <speed>0.01414213562373095</speed>
  <fix>3d</fix>
</trkpt>
<trkpt lat="33.810313" lon="-118.393867">
  <ele>-1.65</ele>
  <time>2026-09-01T01:12:15Z</time>
  <course>94.99</course>
  <speed>0.0</speed>
  <fix>3d</fix>
</trkpt>
<trkpt lat="33.8103132" lon="-118.3938672">
  <ele>-1.72</ele>
  <time>2026-09-01T01:12:15Z</time>
  <course>186.16</course>
  <speed>0.01414213562373095</speed>
  <fix>3d</fix>
</trkpt>
<trkpt lat="33.810313" lon="-118.393867">
  <ele>-1.65</ele>
  <time>2026-09-01T01:12:15Z</time>
  <course>94.99</course>
  <speed>0.0</speed>
  <fix>3d</fix>
</trkpt>
<trkpt lat="33.8103132" lon="-118.3938672">
  <ele>-1.719</ele>
  <time>2026-09-01T01:12:15Z</time>
  <course>186.16</course>
  <speed>0.01414213562373095</speed>
  <fix>3d</fix>
</trkpt>
<trkpt lat="33.810313" lon="-118.393867">
  <ele>-1.66</ele>
  <time>2026-09-01T01:12:15Z</time>
  <course>94.99</course>
  <speed>0.0</speed>
  <fix>3d</fix>
</trkpt>
<trkpt lat="33.8103132" lon="-118.3938672">
  <ele>-1.718</ele>
  <time>2026-09-01T01:12:15Z</time>
  <course>186.16</course>
  <speed>0.01414213562373095</speed>
  <fix>3d</fix>
</trkpt>
<trkpt lat="33.810313" lon="-118.393867">
  <ele>-1.66</ele>
  <time>2026-09-01T01:12:15Z</time>
  <course>94.99</course>
  <speed>0.0</speed>
  <fix>3d</fix>
</trkpt>
<trkpt lat="33.8103132" lon="-118.3938672">
  <ele>-1.716</ele>
  <time>2026-09-01T01:12:15Z</time>
  <course>186.16</course>
  <speed>0.01414213562373095</speed>
  <fix>3d</fix>
</trkpt>
<trkpt lat="33.810313" lon="-118.393867">
  <ele>-1.66</ele>
  <time>2026-09-01T01:12:15Z</time>
  <course>94.99</course>
  <speed>0.0</speed>
  <fix>3d</fix>
</trkpt>
<trkpt lat="33.8103132" lon="-118.3938672">
  <ele>-1.714</ele>
  <time>2026-09-01T01:12:15Z</time>
  <course>186.16</course>
  <speed>0.01414213562373095</speed>
  <fix>3d</fix>
</trkpt>
<trkpt lat="33.810313" lon="-118.393867">
  <ele>-1.66</ele>
  <time>2026-09-01T01:12:15Z</time>
  <course>94.99</course>
  <speed>0.0</speed>
  <fix>3d</fix>
</trkpt>
<trkpt lat="33.8103132" lon="-118.3938672">
  <ele>-1.744</ele>
  <time>2026-09-01T01:12:15Z</time>
  <course>186.16</course>
  <speed>0.01414213562373095</speed>
  <fix>3d</fix>
</trkpt>
<trkpt lat="33.810313" lon="-118.393867">
  <ele>-1.66</ele>
  <time>2026-09-01T01:12:15Z</time>
  <course>94.99</course>
  <speed>0.0</speed>
  <fix>3d</fix>
</trkpt>
<trkpt lat="33.8103132" lon="-118.3938672">
  <ele>-1.837</ele>
  <time>2026-09-01T01:12:15Z</time>
  <course>186.16</course>
  <speed>0.01414213562373095</speed>
  <fix>3d</fix>
</trkpt>
<trkpt lat="33.810313" lon="-118.393867">
  <ele>-1.66</ele>
  <time>2026-09-01T01:12:15Z</time>
  <course>94.99</course>
  <speed>0.0</speed>
  <fix>3d</fix>
</trkpt>
<trkpt lat="33.8103132" lon="-118.3938672">
  <ele>-1.952</ele>
  <time>2026-09-01T01:12:15Z</time>
  <course>186.16</course>
  <speed>0.01414213562373095</speed>
  <fix>3d</fix>
</trkpt>
<trkpt lat="33.810313" lon="-118.393867">
  <ele>-1.74</ele>
  <time>2026-09-01T01:12:15Z</time>
  <course>94.99</course>
  <speed>0.0</speed>
  <fix>3d</fix>
</trkpt>
<trkpt lat="33.8103132" lon="-118.3938672">
  <ele>-2.074</ele>
  <time>2026-09-01T01:12:15Z</time>
  <course>186.16</course>
  <speed>0.01414213562373095</speed>
  <fix>3d</fix>
</trkpt>
<trkpt lat="33.810313" lon="-118.393867">
  <ele>-1.74</ele>
  <time>2026-09-01T01:12:15Z</time>
  <course>94.99</course>
  <speed>0.0</speed>
  <fix>3d</fix>
</trkpt>
<trkpt lat="33.8103132" lon="-118.3938672">
  <ele>-2.202</ele>
  <time>2026-09-01T01:12:15Z</time>
  <course>186.16</course>
  <speed>0.01414213562373095</speed>
  <fix>3d</fix>
</trkpt>
<trkpt lat="33.810313" lon="-118.393867">
  <ele>-1.93</ele>
  <time>2026-09-01T01:12:15Z</time>
  <course>275.0</course>
  <speed>0.0</speed>
  <fix>3d</fix>
</trkpt>
<trkpt lat="33.8103132" lon="-118.3938672">
  <ele>-2.303</ele>
  <time>2026-09-01T01:12:15Z</time>
  <course>186.16</course>
  <speed>0.01414213562373095</speed>
  <fix>3d</fix>
</trkpt>
<trkpt lat="33.810313" lon="-118.393867">
  <ele>-1.93</ele>
  <time>2026-09-01T01:12:15Z</time>
  <course>275.0</course>
  <speed>0.0</speed>
  <fix>3d</fix>
</trkpt>
<trkpt lat="33.8103132" lon="-118.3938672">
  <ele>-2.37</ele>
  <time>2026-09-01T01:12:15Z</time>
  <course>186.16</course>
  <speed>0.01414213562373095</speed>
  <fix>3d</fix>
</trkpt>
<trkpt lat="33.810313" lon="-118.393867">
  <ele>-2.15</ele>
  <time>2026-09-01T01:12:15Z</time>
  <course>275.0</course>
  <speed>0.0</speed>
  <fix>3d</fix>
</trkpt>
<trkpt lat="33.8103132" lon="-118.3938672">
  <ele>-2.42</ele>
  <time>2026-09-01T01:12:15Z</time>
  <course>186.16</course>
  <speed>0.01414213562373095</speed>
  <fix>3d</fix>
</trkpt>
<trkpt lat="33.810313" lon="-118.393867">
  <ele>-2.15</ele>
  <time>2026-09-01T01:12:15Z</time>
  <course>275.0</course>
  <speed>0.0</speed>
  <fix>3d</fix>
</trkpt>
<trkpt lat="33.8103132" lon="-118.3938672">
  <ele>-2.458</ele>
  <time>2026-09-01T01:12:15Z</time>
  <course>186.15</course>
  <speed>0.01414213562373095</speed>
  <fix>3d</fix>
</trkpt>
<trkpt lat="33.810313" lon="-118.393867">
  <ele>-2.29</ele>
  <time>2026-09-01T01:12:15Z</time>
  <course>94.99</course>
  <speed>0.0</speed>
  <fix>3d</fix>
</trkpt>
<trkpt lat="33.8103132" lon="-118.3938672">
  <ele>-2.489</ele>
  <time>2026-09-01T01:12:15Z</time>
  <course>186.15</course>
  <speed>0.01414213562373095</speed>
  <fix>3d</fix>
</trkpt>
<trkpt lat="33.810313" lon="-118.393867">
  <ele>-2.29</ele>
  <time>2026-09-01T01:12:15Z</time>
  <course>94.99</course>
  <speed>0.0</speed>
  <fix>3d</fix>
</trkpt>
<trkpt lat="33.8103132" lon="-118.3938672">
  <ele>-2.514</ele>
  <time>2026-09-01T01:12:15Z</time>
  <course>186.15</course>
  <speed>0.01414213562373095</speed>
  <fix>3d</fix>
</trkpt>
<trkpt lat="33.810313" lon="-118.393867">
  <ele>-2.37</ele>
  <time>2026-09-01T01:12:15Z</time>
  <course>94.99</course>
  <speed>0.0</speed>
  <fix>3d</fix>
</trkpt>
<trkpt lat="33.8103132" lon="-118.3938672">
  <ele>-2.534</ele>
  <time>2026-09-01T01:12:15Z</time>
  <course>186.15</course>
  <speed>0.01414213562373095</speed>
  <fix>3d</fix>
</trkpt>
<trkpt lat="33.810313" lon="-118.393867">
  <ele>-2.37</ele>
  <time>2026-09-01T01:12:15Z</time>
  <course>94.99</course>
  <speed>0.0</speed>
  <fix>3d</fix>
</trkpt>
<trkpt lat="33.8103132" lon="-118.3938672">
  <ele>-2.551</ele>
  <time>2026-09-01T01:12:15Z</time>
  <course>186.15</course>
  <speed>0.01414213562373095</speed>
  <fix>3d</fix>
</trkpt>
<trkpt lat="33.810313" lon="-118.393867">
  <ele>-2.41</ele>
  <time>2026-09-01T01:12:15Z</time>
  <course>94.99</course>
  <speed>0.0</speed>
  <fix>3d</fix>
</trkpt>
<trkpt lat="33.8103132" lon="-118.3938672">
  <ele>-2.566</ele>
  <time>2026-09-01T01:12:15Z</time>
  <course>186.15</course>
  <speed>0.01414213562373095</speed>
  <fix>3d</fix>
</trkpt>
<trkpt lat="33.810313" lon="-118.393867">
  <ele>-2.41</ele>
  <time>2026-09-01T01:12:15Z</time>
  <course>94.99</course>
  <speed>0.0</speed>
  <fix>3d</fix>
</trkpt>
<trkpt lat="33.8103132" lon="-118.3938672">
  <ele>-2.578</ele>
  <time>2026-09-01T01:12:15Z</time>
  <course>186.15</course>
  <speed>0.01414213562373095</speed>
  <fix>3d</fix>
</trkpt>
<trkpt lat="33.810313" lon="-118.393867">
  <ele>-2.44</ele>
  <time>2026-09-01T01:12:15Z</time>
  <course>94.99</course>
  <speed>0.0</speed>
  <fix>3d</fix>
</trkpt>
<trkpt lat="33.8103132" lon="-118.3938672">
  <ele>-2.588</ele>
  <time>2026-09-01T01:12:15Z</time>
  <course>186.15</course>
  <speed>0.01414213562373095</speed>
  <fix>3d</fix>
</trkpt>
<trkpt lat="33.810313" lon="-118.393867">
  <ele>-2.44</ele>
  <time>2026-09-01T01:12:15Z</time>
  <course>94.99</course>
  <speed>0.0</speed>
  <fix>3d</fix>
</trkpt>
<trkpt lat="33.8103132" lon="-118.3938672">
  <ele>-2.595</ele>
  <time>2026-09-01T01:12:15Z</time>
  <course>186.15</course>
  <speed>0.01414213562373095</speed>
  <fix>3d</fix>
</trkpt>
<trkpt lat="33.810313" lon="-118.393867">
  <ele>-2.47</ele>
  <time>2026-09-01T01:12:15Z</time>
  <course>94.99</course>
  <speed>0.0</speed>
  <fix>3d</fix>
</trkpt>
<trkpt lat="33.8103132" lon="-118.3938672">
  <ele>-2.602</ele>
  <time>2026-09-01T01:12:15Z</time>
  <course>186.15</course>
  <speed>0.01414213562373095</speed>
  <fix>3d</fix>
</trkpt>
<trkpt lat="33.810313" lon="-118.393867">
  <ele>-2.47</ele>
  <time>2026-09-01T01:12:15Z</time>
  <course>94.99</course>
  <speed>0.0</speed>
  <fix>3d</fix>
</trkpt>
<trkpt lat="33.8103132" lon="-118.3938672">
  <ele>-2.608</ele>
  <time>2026-09-01T01:12:15Z</time>
  <course>186.15</course>
  <speed>0.01414213562373095</speed>
  <fix>3d</fix>
</trkpt>
<trkpt lat="33.810313" lon="-118.393867">
  <ele>-2.49</ele>
  <time>2026-09-01T01:12:15Z</time>
  <course>94.99</course>
  <speed>0.0</speed>
  <fix>3d</fix>
</trkpt>
<trkpt lat="33.8103132" lon="-118.3938672">
  <ele>-2.613</ele>
  <time>2026-09-01T01:12:15Z</time>
  <course>186.15</course>
  <speed>0.01414213562373095</speed>
  <fix>3d</fix>
</trkpt>
<trkpt lat="33.810313" lon="-118.393867">
  <ele>-2.49</ele>
  <time>2026-09-01T01:12:15Z</time>
  <course>94.99</course>
  <speed>0.0</speed>
  <fix>3d</fix>
</trkpt>
<trkpt lat="33.8103132" lon="-118.3938672">
  <ele>-2.616</ele>
  <time>2026-09-01T01:12:15Z</time>
  <course>186.15</course>
  <speed>0.01414213562373095</speed>
  <fix>3d</fix>
</trkpt>
<trkpt lat="33.810313" lon="-118.393867">
  <ele>-2.5</ele>
  <time>2026-09-01T01:12:15Z</time>
  <course>94.99</course>
  <speed>0.0</speed>
  <fix>3d</fix>
</trkpt>
<trkpt lat="33.8103132" lon="-118.3938672">
  <ele>-2.618</ele>
  <time>2026-09-01T01:12:15Z</time>
  <course>186.15</course>
  <speed>0.022360679774997897</speed>
  <fix>3d</fix>
</trkpt>
<trkpt lat="33.810313" lon="-118.393867">
  <ele>-2.5</ele>
  <time>2026-09-01T01:12:15Z</time>
  <course>94.99</course>
  <speed>0.0</speed>
  <fix>3d</fix>
</trkpt>
<trkpt lat="33.8103132" lon="-118.3938672">
  <ele>-2.62</ele>
  <time>2026-09-01T01:12:15Z</time>
  <course>186.15</course>
  <speed>0.022360679774997897</speed>
  <fix>3d</fix>
</trkpt>
<trkpt lat="33.810313" lon="-118.393867">
  <ele>-2.51</ele>
  <time>2026-09-01T01:12:15Z</time>
  <course>94.99</course>
  <speed>0.0</speed>
  <fix>3d</fix>
</trkpt>
<trkpt lat="33.8103132" lon="-118.3938672">
  <ele>-2.621</ele>
  <time>2026-09-01T01:12:15Z</time>
  <course>186.15</course>
  <speed>0.022360679774997897</speed>
  <fix>3d</fix>
</trkpt>
<trkpt lat="33.810313" lon="-118.393867">
  <ele>-2.51</ele>
  <time>2026-09-01T01:12:15Z</time>
  <course>94.99</course>
  <speed>0.0</speed>
  <fix>3d</fix>
</trkpt>
<trkpt lat="33.8103132" lon="-118.3938672">
  <ele>-2.621</ele>
  <time>2026-09-01T01:12:15Z</time>
  <course>186.14</course>
  <speed>0.022360679774997897</speed>
  <fix>3d</fix>
</trkpt>
<trkpt lat="33.810313" lon="-118.393867">
  <ele>-2.52</ele>
  <time>2026-09-01T01:12:15Z</time>
  <course>94.99</course>
  <speed>0.0</speed>
  <fix>3d</fix>
</trkpt>
<trkpt lat="33.8103132" lon="-118.3938672">
  <ele>-2.62</ele>
  <time>2026-09-01T01:12:15Z</time>
  <course>186.14</course>
  <speed>0.0282842712474619</speed>
  <fix>3d</fix>
</trkpt>
<trkpt lat="33.810313" lon="-118.393867">
  <ele>-2.52</ele>
  <time>2026-09-01T01:12:15Z</time>
  <course>94.99</course>
  <speed>0.0</speed>
  <fix>3d</fix>
</trkpt>
<trkpt lat="33.8103132" lon="-118.3938672">
  <ele>-2.619</ele>
  <time>2026-09-01T01:12:15Z</time>
  <course>186.14</course>
  <speed>0.0282842712474619</speed>
  <fix>3d</fix>
</trkpt>
<trkpt lat="33.810313" lon="-118.393867">
  <ele>-2.53</ele>
  <time>2026-09-01T01:12:15Z</time>
  <course>94.99</course>
  <speed>0.0</speed>
  <fix>3d</fix>
</trkpt>
<trkpt lat="33.8103132" lon="-118.3938672">
  <ele>-2.618</ele>
  <time>2026-09-01T01:12:15Z</time>
  <course>186.14</course>
  <speed>0.0282842712474619</speed>
  <fix>3d</fix>
</trkpt>
<trkpt lat="33.810313" lon="-118.393867">
  <ele>-2.53</ele>
  <time>2026-09-01T01:12:15Z</time>
  <course>94.99</course>
  <speed>0.0</speed>
  <fix>3d</fix>
</trkpt>
<trkpt lat="33.8103133" lon="-118.3938672">
  <ele>-2.615</ele>
  <time>2026-09-01T01:12:15Z</time>
  <course>186.14</course>
  <speed>0.03605551275463989</speed>
  <fix>3d</fix>
</trkpt>
<trkpt lat="33.810313" lon="-118.393867">
  <ele>-2.54</ele>
  <time>2026-09-01T01:12:15Z</time>
  <course>94.99</course>
  <speed>0.0</speed>
  <fix>3d</fix>
</trkpt>
<trkpt lat="33.8103133" lon="-118.3938673">
  <ele>-2.611</ele>
  <time>2026-09-01T01:12:15Z</time>
  <course>186.14</course>
  <speed>0.03605551275463989</speed>
  <fix>3d</fix>
</trkpt>
<trkpt lat="33.810313" lon="-118.393867">
  <ele>-2.54</ele>
  <time>2026-09-01T01:12:15Z</time>
  <course>94.99</course>
  <speed>0.0</speed>
  <fix>3d</fix>
</trkpt>
<trkpt lat="33.8103133" lon="-118.3938673">
  <ele>-2.606</ele>
  <time>2026-09-01T01:12:15Z</time>
  <course>186.14</course>
  <speed>0.03605551275463989</speed>
  <fix>3d</fix>
</trkpt>
<trkpt lat="33.810313" lon="-118.393867">
  <ele>-2.54</ele>
  <time>2026-09-01T01:12:15Z</time>
  <course>94.99</course>
  <speed>0.0</speed>
  <fix>3d</fix>
</trkpt>
<trkpt lat="33.8103133" lon="-118.3938673">
  <ele>-2.602</ele>
  <time>2026-09-01T01:12:15Z</time>
  <course>186.14</course>
  <speed>0.03605551275463989</speed>
  <fix>3d</fix>
</trkpt>
<trkpt lat="33.810313" lon="-118.393867">
  <ele>-2.54</ele>
  <time>2026-09-01T01:12:15Z</time>
  <course>94.99</course>
  <speed>0.0</speed>
  <fix>3d</fix>
</trkpt>
<trkpt lat="33.8103134" lon="-118.3938674">
  <ele>-2.598</ele>
  <time>2026-09-01T01:12:15Z</time>
  <course>186.14</course>
  <speed>0.04242640687119285</speed>
  <fix>3d</fix>
</trkpt>
<trkpt lat="33.810313" lon="-118.393867">
  <ele>-2.53</ele>
  <time>2026-09-01T01:12:15Z</time>
  <course>94.99</course>
  <speed>0.0</speed>
  <fix>3d</fix>
</trkpt>
<trkpt lat="33.8103134" lon="-118.3938674">
  <ele>-2.593</ele>
  <time>2026-09-01T01:12:15Z</time>
  <course>186.14</course>
  <speed>0.04242640687119285</speed>
  <fix>3d</fix>
</trkpt>
<trkpt lat="33.810313" lon="-118.393867">
  <ele>-2.53</ele>
  <time>2026-09-01T01:12:15Z</time>
  <course>94.99</course>
  <speed>0.0</speed>
  <fix>3d</fix>
</trkpt>
<trkpt lat="33.8103135" lon="-118.3938674">
  <ele>-2.589</ele>
  <time>2026-09-01T01:12:15Z</time>
  <course>186.14</course>
  <speed>0.05</speed>
  <fix>3d</fix>
</trkpt>
<trkpt lat="33.810313" lon="-118.393867">
  <ele>-2.53</ele>
  <time>2026-09-01T01:12:15Z</time>
  <course>94.99</course>
  <speed>0.0</speed>
  <fix>3d</fix>
</trkpt>
<trkpt lat="33.8103135" lon="-118.3938675">
  <ele>-2.585</ele>
  <time>2026-09-01T01:12:15Z</time>
  <course>186.13</course>
  <speed>0.05</speed>
  <fix>3d</fix>
</trkpt>
<trkpt lat="33.810313" lon="-118.393867">
  <ele>-2.53</ele>
  <time>2026-09-01T01:12:15Z</time>
  <course>94.99</course>
  <speed>0.0</speed>
  <fix>3d</fix>
</trkpt>
<trkpt lat="33.8103135" lon="-118.3938675">
  <ele>-2.581</ele>
  <time>2026-09-01T01:12:15Z</time>
  <course>186.13</course>
  <speed>0.05</speed>
  <fix>3d</fix>
</trkpt>
<trkpt lat="33.810313" lon="-118.393867">
  <ele>-2.52</ele>
  <time>2026-09-01T01:12:15Z</time>
  <course>94.99</course>
  <speed>0.0</speed>
  <fix>3d</fix>
</trkpt>
<trkpt lat="33.8103136" lon="-118.3938675">
  <ele>-2.576</ele>
  <time>2026-09-01T01:12:15Z</time>
  <course>186.13</course>
  <speed>0.05</speed>
  <fix>3d</fix>
</trkpt>
<trkpt lat="33.810313" lon="-118.393867">
  <ele>-2.52</ele>
  <time>2026-09-01T01:12:15Z</time>
  <course>94.99</course>
  <speed>0.0</speed>
  <fix>3d</fix>
</trkpt>
<trkpt lat="33.8103136" lon="-118.3938676">
  <ele>-2.571</ele>
  <time>2026-09-01T01:12:15Z</time>
  <course>186.13</course>
  <speed>0.06403124237432849</speed>
  <fix>3d</fix>
</trkpt>
<trkpt lat="33.810313" lon="-118.393867">
  <ele>-2.51</ele>
  <time>2026-09-01T01:12:15Z</time>
  <course>94.99</course>
  <speed>0.0</speed>
  <fix>3d</fix>
</trkpt>
<trkpt lat="33.8103137" lon="-118.3938676">
  <ele>-2.566</ele>
  <time>2026-09-01T01:12:15Z</time>
  <course>186.13</course>
  <speed>0.06403124237432849</speed>
  <fix>3d</fix>
</trkpt>
<trkpt lat="33.810313" lon="-118.393867">
  <ele>-2.51</ele>
  <time>2026-09-01T01:12:15Z</time>
  <course>94.99</course>
  <speed>0.0</speed>
  <fix>3d</fix>
</trkpt>
<trkpt lat="33.8103137" lon="-118.3938677">
  <ele>-2.56</ele>
  <time>2026-09-01T01:12:15Z</time>
  <course>186.13</course>
  <speed>0.06403124237432849</speed>
  <fix>3d</fix>
</trkpt>
<trkpt lat="33.810313" lon="-118.393867">
  <ele>-2.5</ele>
  <time>2026-09-01T01:12:15Z</time>
  <course>94.99</course>
  <speed>0.0</speed>
  <fix>3d</fix>
</trkpt>
<trkpt lat="33.8103137" lon="-118.3938677">
  <ele>-2.553</ele>
  <time>2026-09-01T01:12:15Z</time>
  <course>186.13</course>
  <speed>0.06403124237432849</speed>
  <fix>3d</fix>
</trkpt>
<trkpt lat="33.810313" lon="-118.393867">
  <ele>-2.5</ele>
  <time>2026-09-01T01:12:15Z</time>
  <course>94.99</course>
  <speed>0.0</speed>
  <fix>3d</fix>
</trkpt>
<trkpt lat="33.8103138" lon="-118.3938678">
  <ele>-2.546</ele>
  <time>2026-09-01T01:12:15Z</time>
  <course>186.13</course>
  <speed>0.06403124237432849</speed>
  <fix>3d</fix>
</trkpt>
<trkpt lat="33.810313" lon="-118.393867">
  <ele>-2.49</ele>
  <time>2026-09-01T01:12:15Z</time>
  <course>94.99</course>
  <speed>0.0</speed>
  <fix>3d</fix>
</trkpt>
<trkpt lat="33.8103138" lon="-118.3938678">
  <ele>-2.537</ele>
  <time>2026-09-01T01:12:15Z</time>
  <course>186.13</course>
  <speed>0.06403124237432849</speed>
  <fix>3d</fix>
</trkpt>
<trkpt lat="33.810313" lon="-118.393867">
  <ele>-2.49</ele>
  <time>2026-09-01T01:12:15Z</time>
  <course>94.99</course>
  <speed>0.0</speed>
  <fix>3d</fix>
</trkpt>
<trkpt lat="33.8103139" lon="-118.3938679">
  <ele>-2.528</ele>
  <time>2026-09-01T01:12:15Z</time>
  <course>186.13</course>
  <speed>0.07211102550927978</speed>
  <fix>3d</fix>
</trkpt>
<trkpt lat="33.810313" lon="-118.393867">
  <ele>-2.48</ele>
  <time>2026-09-01T01:12:15Z</time>
  <course>94.99</course>
  <speed>0.0</speed>
  <fix>3d</fix>
</trkpt>
<trkpt lat="33.810314" lon="-118.3938679">
  <ele>-2.519</ele>
  <time>2026-09-01T01:12:15Z</time>
  <course>186.12</course>
  <speed>0.07810249675906654</speed>
  <fix>3d</fix>
</trkpt>
<trkpt lat="33.810313" lon="-118.393867">
  <ele>-2.48</ele>
  <time>2026-09-01T01:12:15Z</time>
  <course>94.99</course>
  <speed>0.0</speed>
  <fix>3d</fix>
</trkpt>
<trkpt lat="33.810314" lon="-118.393868">
  <ele>-2.51</ele>
  <time>2026-09-01T01:12:15Z</time>
  <course>186.12</course>
  <speed>0.07810249675906654</speed>
  <fix>3d</fix>
</trkpt>
<trkpt lat="33.810313" lon="-118.393867">
  <ele>-2.47</ele>
  <time>2026-09-01T01:12:15Z</time>
  <course>94.99</course>
  <speed>0.0</speed>
  <fix>3d</fix>
</trkpt>
<trkpt lat="33.8103141" lon="-118.393868">
  <ele>-2.501</ele>
  <time>2026-09-01T01:12:15Z</time>
  <course>186.12</course>
  <speed>0.07810249675906654</speed>
  <fix>3d</fix>
</trkpt>
<trkpt lat="33.810313" lon="-118.393867">
  <ele>-2.47</ele>
  <time>2026-09-01T01:12:15Z</time>
  <course>94.99</course>
  <speed>0.0</speed>
  <fix>3d</fix>
</trkpt>
<trkpt lat="33.8103141" lon="-118.3938681">
  <ele>-2.492</ele>
  <time>2026-09-01T01:12:15Z</time>
  <course>186.12</course>
  <speed>0.08602325267042626</speed>
  <fix>3d</fix>
</trkpt>
<trkpt lat="33.810313" lon="-118.393867">
  <ele>-2.45</ele>
  <time>2026-09-01T01:12:15Z</time>
  <course>94.99</course>
  <speed>0.0</speed>
  <fix>3d</fix>
</trkpt>
<trkpt lat="33.8103142" lon="-118.3938681">
  <ele>-2.483</ele>
  <time>2026-09-01T01:12:15Z</time>
  <course>186.12</course>
  <speed>0.08602325267042626</speed>
  <fix>3d</fix>
</trkpt>
<trkpt lat="33.810313" lon="-118.393867">
  <ele>-2.45</ele>
  <time>2026-09-01T01:12:15Z</time>
  <course>94.99</course>
  <speed>0.0</speed>
  <fix>3d</fix>
</trkpt>
<trkpt lat="33.8103142" lon="-118.3938682">
  <ele>-2.473</ele>
  <time>2026-09-01T01:12:15Z</time>
  <course>186.12</course>
  <speed>0.09219544457292887</speed>
  <fix>3d</fix>
</trkpt>
<trkpt lat="33.810313" lon="-118.3938669">
  <ele>-2.44</ele>
  <time>2026-09-01T01:12:15Z</time>
  <course>94.99</course>
  <speed>0.0</speed>
  <fix>3d</fix>
</trkpt>
<trkpt lat="33.8103143" lon="-118.3938682">
  <ele>-2.462</ele>
  <time>2026-09-01T01:12:15Z</time>
  <course>186.12</course>
  <speed>0.09219544457292887</speed>
  <fix>3d</fix>
</trkpt>
<trkpt lat="33.810313" lon="-118.3938669">
  <ele>-2.44</ele>
  <time>2026-09-01T01:12:15Z</time>
  <course>94.99</course>
  <speed>0.0</speed>
  <fix>3d</fix>
</trkpt>
<trkpt lat="33.8103143" lon="-118.3938683">
  <ele>-2.452</ele>
  <time>2026-09-01T01:12:15Z</time>
  <course>186.12</course>
  <speed>0.09219544457292887</speed>
  <fix>3d</fix>
</trkpt>
<trkpt lat="33.810313" lon="-118.3938669">
  <ele>-2.42</ele>
  <time>2026-09-01T01:12:15Z</time>
  <course>94.99</course>
  <speed>0.0</speed>
  <fix>3d</fix>
</trkpt>
<trkpt lat="33.8103144" lon="-118.3938683">
  <ele>-2.443</ele>
  <time>2026-09-01T01:12:15Z</time>
  <course>186.12</course>
  <speed>0.09219544457292887</speed>
  <fix>3d</fix>
</trkpt>
<trkpt lat="33.810313" lon="-118.3938669">
  <ele>-2.42</ele>
  <time>2026-09-01T01:12:15Z</time>
  <course>94.99</course>
  <speed>0.0</speed>
  <fix>3d</fix>
</trkpt>
<trkpt lat="33.8103144" lon="-118.3938684">
  <ele>-2.435</ele>
  <time>2026-09-01T01:12:15Z</time>
  <course>186.12</course>
  <speed>0.1</speed>
  <fix>3d</fix>
</trkpt>
<trkpt lat="33.810313" lon="-118.3938669">
  <ele>-2.4</ele>
  <time>2026-09-01T01:12:15Z</time>
  <course>94.99</course>
  <speed>0.0</speed>
  <fix>3d</fix>
</trkpt>
<trkpt lat="33.8103145" lon="-118.3938684">
  <ele>-2.426</ele>
  <time>2026-09-01T01:12:15Z</time>
  <course>186.11</course>
  <speed>0.1</speed>
  <fix>3d</fix>
</trkpt>
<trkpt lat="33.810313" lon="-118.3938669">
  <ele>-2.4</ele>
  <time>2026-09-01T01:12:15Z</time>
  <course>94.99</course>
  <speed>0.0</speed>
  <fix>3d</fix>
</trkpt>
<trkpt lat="33.8103146" lon="-118.3938685">
  <ele>-2.417</ele>
  <time>2026-09-01T01:12:15Z</time>
  <course>186.11</course>
  <speed>0.1</speed>
  <fix>3d</fix>
</trkpt>
<trkpt lat="33.810313" lon="-118.3938669">
  <ele>-2.38</ele>
  <time>2026-09-01T01:12:15Z</time>
  <course>94.99</course>
  <speed>0.0</speed>
  <fix>3d</fix>
</trkpt>
<trkpt lat="33.8103147" lon="-118.3938686">
  <ele>-2.409</ele>
  <time>2026-09-01T01:12:15Z</time>
  <course>186.11</course>
  <speed>0.1063014581273465</speed>
  <fix>3d</fix>
</trkpt>
<trkpt lat="33.810313" lon="-118.3938669">
  <ele>-2.38</ele>
  <time>2026-09-01T01:12:15Z</time>
  <course>94.99</course>
  <speed>0.0</speed>
  <fix>3d</fix>
</trkpt>
<trkpt lat="33.8103147" lon="-118.3938687">
  <ele>-2.401</ele>
  <time>2026-09-01T01:12:15Z</time>
  <course>186.11</course>
  <speed>0.11401754250991379</speed>
  <fix>3d</fix>
</trkpt>
<trkpt lat="33.810313" lon="-118.3938669">
  <ele>-2.37</ele>
  <time>2026-09-01T01:12:15Z</time>
  <course>94.99</course>
  <speed>0.0</speed>
  <fix>3d</fix>
</trkpt>
<trkpt lat="33.8103148" lon="-118.3938687">
  <ele>-2.393</ele>
  <time>2026-09-01T01:12:15Z</time>
  <course>186.11</course>
  <speed>0.11401754250991379</speed>
  <fix>3d</fix>
</trkpt>
<trkpt lat="33.810313" lon="-118.3938669">
  <ele>-2.37</ele>
  <time>2026-09-01T01:12:15Z</time>
  <course>94.99</course>
  <speed>0.0</speed>
  <fix>3d</fix>
</trkpt>
<trkpt lat="33.8103149" lon="-118.3938688">
  <ele>-2.386</ele>
  <time>2026-09-01T01:12:15Z</time>
  <course>186.11</course>
  <speed>0.11401754250991379</speed>
  <fix>3d</fix>
</trkpt>
<trkpt lat="33.810313" lon="-118.3938669">
  <ele>-2.35</ele>
  <time>2026-09-01T01:12:15Z</time>
  <course>94.99</course>
  <speed>0.0</speed>
  <fix>3d</fix>
</trkpt>
<trkpt lat="33.8103149" lon="-118.3938689">
  <ele>-2.378</ele>
  <time>2026-09-01T01:12:15Z</time>
  <course>186.11</course>
  <speed>0.11401754250991379</speed>
  <fix>3d</fix>
</trkpt>
<trkpt lat="33.810313" lon="-118.3938669">
  <ele>-2.35</ele>
  <time>2026-09-01T01:12:15Z</time>
  <course>94.99</course>
  <speed>0.0</speed>
  <fix>3d</fix>
</trkpt>
<trkpt lat="33.810315" lon="-118.3938689">
  <ele>-2.37</ele>
  <time>2026-09-01T01:12:15Z</time>
  <course>186.11</course>
  <speed>0.11401754250991379</speed>
  <fix>3d</fix>
</trkpt>
<trkpt lat="33.810313" lon="-118.3938669">
  <ele>-2.33</ele>
  <time>2026-09-01T01:12:15Z</time>
  <course>94.99</course>
  <speed>0.0</speed>
  <fix>3d</fix>
</trkpt>
<trkpt lat="33.810315" lon="-118.3938689">
  <ele>-2.362</ele>
  <time>2026-09-01T01:12:15Z</time>
  <course>186.11</course>
  <speed>0.11401754250991379</speed>
  <fix>3d</fix>
</trkpt>
<trkpt lat="33.810313" lon="-118.3938669">
  <ele>-2.33</ele>
  <time>2026-09-01T01:12:15Z</time>
  <course>94.99</course>
  <speed>0.0</speed>
  <fix>3d</fix>
</trkpt>
<trkpt lat="33.810315" lon="-118.393869">
  <ele>-2.354</ele>
  <time>2026-09-01T01:12:15Z</time>
  <course>186.1</course>
  <speed>0.12806248474865697</speed>
  <fix>3d</fix>
</trkpt>
<trkpt lat="33.810313" lon="-118.3938669">
  <ele>-2.31</ele>
  <time>2026-09-01T01:12:15Z</time>
  <course>94.99</course>
  <speed>0.0</speed>
  <fix>3d</fix>
</trkpt>
<trkpt lat="33.8103151" lon="-118.393869">
  <ele>-2.346</ele>
  <time>2026-09-01T01:12:15Z</time>
  <course>186.1</course>
  <speed>0.12806248474865697</speed>
  <fix>3d</fix>
</trkpt>
<trkpt lat="33.810313" lon="-118.3938669">
  <ele>-2.31</ele>
  <time>2026-09-01T01:12:15Z</time>
  <course>94.99</course>
  <speed>0.0</speed>
  <fix>3d</fix>
</trkpt>
<trkpt lat="33.8103152" lon="-118.3938691">
  <ele>-2.338</ele>
  <time>2026-09-01T01:12:15Z</time>
  <course>186.1</course>
  <speed>0.12806248474865697</speed>
  <fix>3d</fix>
</trkpt>
<trkpt lat="33.810313" lon="-118.3938669">
  <ele>-2.29</ele>
  <time>2026-09-01T01:12:15Z</time>
  <course>94.99</course>
  <speed>0.0</speed>
  <fix>3d</fix>
</trkpt>
<trkpt lat="33.8103153" lon="-118.3938692">
  <ele>-2.33</ele>
  <time>2026-09-01T01:12:16Z</time>
  <course>186.1</course>
  <speed>0.12806248474865697</speed>
  <fix>3d</fix>
</trkpt>
<trkpt lat="33.810313" lon="-118.3938669">
  <ele>-2.29</ele>
  <time>2026-09-01T01:12:16Z</time>
  <course>94.99</course>
  <speed>0.0</speed>
  <fix>3d</fix>
</trkpt>
<trkpt lat="33.8103154" lon="-118.3938693">
  <ele>-2.321</ele>
  <time>2026-09-01T01:12:16Z</time>
  <course>186.1</course>
  <speed>0.13601470508735444</speed>
  <fix>3d</fix>
</trkpt>
<trkpt lat="33.810313" lon="-118.3938669">
  <ele>-2.28</ele>
  <time>2026-09-01T01:12:16Z</time>
  <course>94.99</course>
  <speed>0.0</speed>
  <fix>3d</fix>
</trkpt>
<trkpt lat="33.8103155" lon="-118.3938694">
  <ele>-2.31</ele>
  <time>2026-09-01T01:12:16Z</time>
  <course>186.1</course>
  <speed>0.14212670403551894</speed>
  <fix>3d</fix>
</trkpt>
<trkpt lat="33.810313" lon="-118.3938669">
  <ele>-2.28</ele>
  <time>2026-09-01T01:12:16Z</time>
  <course>94.99</course>
  <speed>0.0</speed>
  <fix>3d</fix>
</trkpt>
<trkpt lat="33.8103156" lon="-118.3938695">
  <ele>-2.3</ele>
  <time>2026-09-01T01:12:16Z</time>
  <course>186.1</course>
  <speed>0.14212670403551894</speed>
  <fix>3d</fix>
</trkpt>
<trkpt lat="33.810313" lon="-118.3938669">
  <ele>-2.26</ele>
  <time>2026-09-01T01:12:16Z</time>
  <course>94.99</course>
  <speed>0.0</speed>
  <fix>3d</fix>
</trkpt>
<trkpt lat="33.8103157" lon="-118.3938696">
  <ele>-2.288</ele>
  <time>2026-09-01T01:12:16Z</time>
  <course>186.1</course>
  <speed>0.14212670403551894</speed>
  <fix>3d</fix>
</trkpt>
<trkpt lat="33.810313" lon="-118.3938669">
  <ele>-2.26</ele>
  <time>2026-09-01T01:12:16Z</time>
  <course>94.99</course>
  <speed>0.0</speed>
  <fix>3d</fix>
</trkpt>
<trkpt lat="33.8103157" lon="-118.3938696">
  <ele>-2.277</ele>
  <time>2026-09-01T01:12:16Z</time>
  <course>186.09</course>
  <speed>0.14212670403551894</speed>
  <fix>3d</fix>
</trkpt>
<trkpt lat="33.810313" lon="-118.3938669">
  <ele>-2.24</ele>
  <time>2026-09-01T01:12:16Z</time>
  <course>94.99</course>
  <speed>0.0</speed>
  <fix>3d</fix>
</trkpt>
<trkpt lat="33.8103156" lon="-118.3938695">
  <ele>-2.266</ele>
  <time>2026-09-01T01:12:16Z</time>
  <course>186.09</course>
  <speed>0.14212670403551894</speed>
  <fix>3d</fix>
</trkpt>
<trkpt lat="33.810313" lon="-118.3938669">
  <ele>-2.24</ele>
  <time>2026-09-01T01:12:16Z</time>
  <course>94.99</course>
  <speed>0.0</speed>
  <fix>3d</fix>
</trkpt>
<trkpt lat="33.8103156" lon="-118.3938695">
  <ele>-2.256</ele>
  <time>2026-09-01T01:12:16Z</time>
  <course>186.09</course>
  <speed>0.14212670403551894</speed>
  <fix>3d</fix>
</trkpt>
<trkpt lat="33.810313" lon="-118.3938669">
  <ele>-2.22</ele>
  <time>2026-09-01T01:12:16Z</time>
  <course>94.99</course>
  <speed>0.0</speed>
  <fix>3d</fix>
</trkpt>
<trkpt lat="33.8103157" lon="-118.3938696">
  <ele>-2.246</ele>
  <time>2026-09-01T01:12:16Z</time>
  <course>186.09</course>
  <speed>0.14212670403551894</speed>
  <fix>3d</fix>
</trkpt>
<trkpt lat="33.810313" lon="-118.3938669">
  <ele>-2.22</ele>
  <time>2026-09-01T01:12:16Z</time>
  <course>94.99</course>
  <speed>0.0</speed>
  <fix>3d</fix>
</trkpt>
<trkpt lat="33.8103157" lon="-118.3938696">
  <ele>-2.236</ele>
  <time>2026-09-01T01:12:16Z</time>
  <course>186.09</course>
  <speed>0.14212670403551894</speed>
  <fix>3d</fix>
</trkpt>
<trkpt lat="33.810313" lon="-118.3938669">
  <ele>-2.2</ele>
  <time>2026-09-01T01:12:16Z</time>
  <course>94.99</course>
  <speed>0.0</speed>
  <fix>3d</fix>
</trkpt>
<trkpt lat="33.8103158" lon="-118.3938697">
  <ele>-2.226</ele>
  <time>2026-09-01T01:12:16Z</time>
  <course>186.09</course>
  <speed>0.15</speed>
  <fix>3d</fix>
</trkpt>
<trkpt lat="33.810313" lon="-118.3938669">
  <ele>-2.2</ele>
  <time>2026-09-01T01:12:16Z</time>
  <course>94.99</course>
  <speed>0.0</speed>
  <fix>3d</fix>
</trkpt>
<trkpt lat="33.8103159" lon="-118.3938698">
  <ele>-2.216</ele>
  <time>2026-09-01T01:12:16Z</time>
  <course>186.09</course>
  <speed>0.15</speed>
  <fix>3d</fix>
</trkpt>
<trkpt lat="33.810313" lon="-118.3938669">
  <ele>-2.18</ele>
  <time>2026-09-01T01:12:16Z</time>
  <course>94.99</course>
  <speed>0.0</speed>
  <fix>3d</fix>
</trkpt>
<trkpt lat="33.810316" lon="-118.3938699">
  <ele>-2.205</ele>
  <time>2026-09-01T01:12:16Z</time>
  <course>186.09</course>
  <speed>0.15620499351813308</speed>
  <fix>3d</fix>
</trkpt>
<trkpt lat="33.810313" lon="-118.3938669">
  <ele>-2.18</ele>
  <time>2026-09-01T01:12:16Z</time>
  <course>94.99</course>
  <speed>0.0</speed>
  <fix>3d</fix>
</trkpt>
<trkpt lat="33.8103161" lon="-118.39387">
  <ele>-2.195</ele>
  <time>2026-09-01T01:12:16Z</time>
  <course>186.08</course>
  <speed>0.16401219466856726</speed>
  <fix>3d</fix>
</trkpt>
<trkpt lat="33.810313" lon="-118.3938669">
  <ele>-2.16</ele>
  <time>2026-09-01T01:12:16Z</time>
  <course>94.99</course>
  <speed>0.0</speed>
  <fix>3d</fix>
</trkpt>
<trkpt lat="33.8103162" lon="-118.3938701">
  <ele>-2.185</ele>
  <time>2026-09-01T01:12:16Z</time>
  <course>186.08</course>
  <speed>0.16401219466856726</speed>
  <fix>3d</fix>
</trkpt>
<trkpt lat="33.810313" lon="-118.3938669">
  <ele>-2.16</ele>
  <time>2026-09-01T01:12:16Z</time>
  <course>94.99</course>
  <speed>0.0</speed>
  <fix>3d</fix>
</trkpt>
<trkpt lat="33.8103162" lon="-118.3938701">
  <ele>-2.176</ele>
  <time>2026-09-01T01:12:16Z</time>
  <course>186.08</course>
  <speed>0.16401219466856726</speed>
  <fix>3d</fix>
</trkpt>
<trkpt lat="33.810313" lon="-118.3938669">
  <ele>-2.14</ele>
  <time>2026-09-01T01:12:16Z</time>
  <course>94.99</course>
  <speed>0.0</speed>
  <fix>3d</fix>
</trkpt>
<trkpt lat="33.8103161" lon="-118.39387">
  <ele>-2.166</ele>
  <time>2026-09-01T01:12:16Z</time>
  <course>186.08</course>
  <speed>0.15620499351813308</speed>
  <fix>3d</fix>
</trkpt>
<trkpt lat="33.810313" lon="-118.3938669">
  <ele>-2.14</ele>
  <time>2026-09-01T01:12:16Z</time>
  <course>94.99</course>
  <speed>0.0</speed>
  <fix>3d</fix>
</trkpt>
<trkpt lat="33.8103161" lon="-118.39387">
  <ele>-2.157</ele>
  <time>2026-09-01T01:12:16Z</time>
  <course>186.08</course>
  <speed>0.15620499351813308</speed>
  <fix>3d</fix>
</trkpt>
<trkpt lat="33.810313" lon="-118.3938669">
  <ele>-2.12</ele>
  <time>2026-09-01T01:12:16Z</time>
  <course>94.99</course>
  <speed>0.0</speed>
  <fix>3d</fix>
</trkpt>
<trkpt lat="33.8103161" lon="-118.39387">
  <ele>-2.148</ele>
  <time>2026-09-01T01:12:16Z</time>
  <course>186.08</course>
  <speed>0.15620499351813308</speed>
  <fix>3d</fix>
</trkpt>
<trkpt lat="33.810313" lon="-118.3938669">
  <ele>-2.12</ele>
  <time>2026-09-01T01:12:16Z</time>
  <course>94.99</course>
  <speed>0.0</speed>
  <fix>3d</fix>
</trkpt>
<trkpt lat="33.8103162" lon="-118.3938701">
  <ele>-2.14</ele>
  <time>2026-09-01T01:12:16Z</time>
  <course>186.08</course>
  <speed>0.15620499351813308</speed>
  <fix>3d</fix>
</trkpt>
<trkpt lat="33.810313" lon="-118.3938669">
  <ele>-2.1</ele>
  <time>2026-09-01T01:12:16Z</time>
  <course>94.99</course>
  <speed>0.0</speed>
  <fix>3d</fix>
</trkpt>
<trkpt lat="33.8103162" lon="-118.3938701">
  <ele>-2.132</ele>
  <time>2026-09-01T01:12:16Z</time>
  <course>186.08</course>
  <speed>0.16401219466856726</speed>
  <fix>3d</fix>
</trkpt>
<trkpt lat="33.810313" lon="-118.3938669">
  <ele>-2.1</ele>
  <time>2026-09-01T01:12:16Z</time>
  <course>94.99</course>
  <speed>0.0</speed>
  <fix>3d</fix>
</trkpt>
<trkpt lat="33.8103163" lon="-118.3938702">
  <ele>-2.124</ele>
  <time>2026-09-01T01:12:16Z</time>
  <course>186.07</course>
  <speed>0.16401219466856726</speed>
  <fix>3d</fix>
</trkpt>
<trkpt lat="33.810313" lon="-118.3938669">
  <ele>-2.09</ele>
  <time>2026-09-01T01:12:16Z</time>
  <course>94.99</course>
  <speed>0.0</speed>
  <fix>3d</fix>
</trkpt>
<trkpt lat="33.8103164" lon="-118.3938703">
  <ele>-2.115</ele>
  <time>2026-09-01T01:12:16Z</time>
  <course>186.07</course>
  <speed>0.17029386365926402</speed>
  <fix>3d</fix>
</trkpt>
<trkpt lat="33.810313" lon="-118.3938669">
  <ele>-2.09</ele>
  <time>2026-09-01T01:12:16Z</time>
  <course>94.99</course>
  <speed>0.0</speed>
  <fix>3d</fix>
</trkpt>
<trkpt lat="33.8103166" lon="-118.3938704">
  <ele>-2.104</ele>
  <time>2026-09-01T01:12:16Z</time>
  <course>186.07</course>
  <speed>0.17804493814764857</speed>
  <fix>3d</fix>
</trkpt>
<trkpt lat="33.810313" lon="-118.3938669">
  <ele>-2.07</ele>
  <time>2026-09-01T01:12:16Z</time>
  <course>94.99</course>
  <speed>0.0</speed>
  <fix>3d</fix>
</trkpt>
<trkpt lat="33.8103167" lon="-118.3938705">
  <ele>-2.093</ele>
  <time>2026-09-01T01:12:16Z</time>
  <course>186.07</course>
  <speed>0.17804493814764857</speed>
  <fix>3d</fix>
</trkpt>
<trkpt lat="33.810313" lon="-118.3938669">
  <ele>-2.07</ele>
  <time>2026-09-01T01:12:16Z</time>
  <course>94.99</course>
  <speed>0.0</speed>
  <fix>3d</fix>
</trkpt>
<trkpt lat="33.8103166" lon="-118.3938705">
  <ele>-2.083</ele>
  <time>2026-09-01T01:12:16Z</time>
  <course>186.07</course>
  <speed>0.17804493814764857</speed>
  <fix>3d</fix>
</trkpt>
<trkpt lat="33.810313" lon="-118.3938669">
  <ele>-2.05</ele>
  <time>2026-09-01T01:12:16Z</time>
  <course>94.99</course>
  <speed>0.0</speed>
  <fix>3d</fix>
</trkpt>
<trkpt lat="33.8103165" lon="-118.3938703">
  <ele>-2.073</ele>
  <time>2026-09-01T01:12:16Z</time>
  <course>186.07</course>
  <speed>0.17029386365926402</speed>
  <fix>3d</fix>
</trkpt>
<trkpt lat="33.810313" lon="-118.3938669">
  <ele>-2.05</ele>
  <time>2026-09-01T01:12:16Z</time>
  <course>94.99</course>
  <speed>0.0</speed>
  <fix>3d</fix>
</trkpt>
<trkpt lat="33.8103164" lon="-118.3938703">
  <ele>-2.062</ele>
  <time>2026-09-01T01:12:16Z</time>
  <course>186.07</course>
  <speed>0.16401219466856726</speed>
  <fix>3d</fix>
</trkpt>
<trkpt lat="33.810313" lon="-118.3938669">
  <ele>-2.03</ele>
  <time>2026-09-01T01:12:16Z</time>
  <course>94.99</course>
  <speed>0.0</speed>
  <fix>3d</fix>
</trkpt>
<trkpt lat="33.8103164" lon="-118.3938703">
  <ele>-2.052</ele>
  <time>2026-09-01T01:12:16Z</time>
  <course>186.07</course>
  <speed>0.16401219466856726</speed>
  <fix>3d</fix>
</trkpt>
<trkpt lat="33.810313" lon="-118.3938669">
  <ele>-2.03</ele>
  <time>2026-09-01T01:12:16Z</time>
  <course>94.99</course>
  <speed>0.0</speed>
  <fix>3d</fix>
</trkpt>
<trkpt lat="33.8103164" lon="-118.3938703">
  <ele>-2.042</ele>
  <time>2026-09-01T01:12:16Z</time>
  <course>186.06</course>
  <speed>0.16401219466856726</speed>
  <fix>3d</fix>
</trkpt>
<trkpt lat="33.810313" lon="-118.3938669">
  <ele>-2.01</ele>
  <time>2026-09-01T01:12:16Z</time>
  <course>94.99</course>
  <speed>0.0</speed>
  <fix>3d</fix>
</trkpt>
<trkpt lat="33.8103165" lon="-118.3938704">
  <ele>-2.032</ele>
  <time>2026-09-01T01:12:16Z</time>
  <course>186.06</course>
  <speed>0.17029386365926402</speed>
  <fix>3d</fix>
</trkpt>
<trkpt lat="33.810313" lon="-118.3938669">
  <ele>-2.01</ele>
  <time>2026-09-01T01:12:16Z</time>
  <course>94.99</course>
  <speed>0.0</speed>
  <fix>3d</fix>
</trkpt>
<trkpt lat="33.8103166" lon="-118.3938705">
  <ele>-2.022</ele>
  <time>2026-09-01T01:12:16Z</time>
  <course>186.06</course>
  <speed>0.17804493814764857</speed>
  <fix>3d</fix>
</trkpt>
<trkpt lat="33.810313" lon="-118.3938669">
  <ele>-1.99</ele>
  <time>2026-09-01T01:12:16Z</time>
  <course>94.99</course>
  <speed>0.0</speed>
  <fix>3d</fix>
</trkpt>
<trkpt lat="33.8103167" lon="-118.3938706">
  <ele>-2.013</ele>
  <time>2026-09-01T01:12:16Z</time>
  <course>186.06</course>
  <speed>0.17804493814764857</speed>
  <fix>3d</fix>
</trkpt>
<trkpt lat="33.810313" lon="-118.3938669">
  <ele>-1.99</ele>
  <time>2026-09-01T01:12:16Z</time>
  <course>94.99</course>
  <speed>0.0</speed>
  <fix>3d</fix>
</trkpt>
<trkpt lat="33.8103168" lon="-118.3938707">
  <ele>-2.004</ele>
  <time>2026-09-01T01:12:16Z</time>
  <course>186.06</course>
  <speed>0.17804493814764857</speed>
  <fix>3d</fix>
</trkpt>
<trkpt lat="33.810313" lon="-118.3938669">
  <ele>-1.97</ele>
  <time>2026-09-01T01:12:16Z</time>
  <course>94.99</course>
  <speed>0.0</speed>
  <fix>3d</fix>
</trkpt>
<trkpt lat="33.8103169" lon="-118.3938708">
  <ele>-1.994</ele>
  <time>2026-09-01T01:12:16Z</time>
  <course>186.06</course>
  <speed>0.18439088914585774</speed>
  <fix>3d</fix>
</trkpt>
<trkpt lat="33.810313" lon="-118.3938669">
  <ele>-1.97</ele>
  <time>2026-09-01T01:12:16Z</time>
  <course>94.99</course>
  <speed>0.0</speed>
  <fix>3d</fix>
</trkpt>
<trkpt lat="33.8103168" lon="-118.3938707">
  <ele>-1.985</ele>
  <time>2026-09-01T01:12:16Z</time>
  <course>186.06</course>
  <speed>0.17804493814764857</speed>
  <fix>3d</fix>
</trkpt>
<trkpt lat="33.810313" lon="-118.3938669">
  <ele>-1.95</ele>
  <time>2026-09-01T01:12:16Z</time>
  <course>94.99</course>
  <speed>0.0</speed>
  <fix>3d</fix>
</trkpt>
<trkpt lat="33.8103166" lon="-118.3938705">
  <ele>-1.975</ele>
  <time>2026-09-01T01:12:16Z</time>
  <course>186.05</course>
  <speed>0.17804493814764857</speed>
  <fix>3d</fix>
</trkpt>
<trkpt lat="33.810313" lon="-118.3938669">
  <ele>-1.95</ele>
  <time>2026-09-01T01:12:16Z</time>
  <course>94.99</course>
  <speed>0.0</speed>
  <fix>3d</fix>
</trkpt>
<trkpt lat="33.8103165" lon="-118.3938704">
  <ele>-1.966</ele>
  <time>2026-09-01T01:12:16Z</time>
  <course>186.05</course>
  <speed>0.17029386365926402</speed>
  <fix>3d</fix>
</trkpt>
<trkpt lat="33.810313" lon="-118.3938669">
  <ele>-1.93</ele>
  <time>2026-09-01T01:12:16Z</time>
  <course>94.99</course>
  <speed>0.0</speed>
  <fix>3d</fix>
</trkpt>
<trkpt lat="33.8103165" lon="-118.3938704">
  <ele>-1.956</ele>
  <time>2026-09-01T01:12:16Z</time>
  <course>186.05</course>
  <speed>0.17029386365926402</speed>
  <fix>3d</fix>
</trkpt>
<trkpt lat="33.810313" lon="-118.3938669">
  <ele>-1.93</ele>
  <time>2026-09-01T01:12:16Z</time>
  <course>94.99</course>
  <speed>0.0</speed>
  <fix>3d</fix>
</trkpt>
<trkpt lat="33.8103165" lon="-118.3938704">
  <ele>-1.946</ele>
  <time>2026-09-01T01:12:16Z</time>
  <course>186.05</course>
  <speed>0.17029386365926402</speed>
  <fix>3d</fix>
</trkpt>
<trkpt lat="33.810313" lon="-118.3938669">
  <ele>-1.91</ele>
  <time>2026-09-01T01:12:16Z</time>
  <course>94.99</course>
  <speed>0.0</speed>
  <fix>3d</fix>
</trkpt>
<trkpt lat="33.8103166" lon="-118.3938705">
  <ele>-1.938</ele>
  <time>2026-09-01T01:12:16Z</time>
  <course>186.05</course>
  <speed>0.17804493814764857</speed>
  <fix>3d</fix>
</trkpt>
<trkpt lat="33.810313" lon="-118.3938669">
  <ele>-1.91</ele>
  <time>2026-09-01T01:12:16Z</time>
  <course>94.99</course>
  <speed>0.0</speed>
  <fix>3d</fix>
</trkpt>
<trkpt lat="33.8103167" lon="-118.3938706">
  <ele>-1.93</ele>
  <time>2026-09-01T01:12:16Z</time>
  <course>186.05</course>
  <speed>0.17804493814764857</speed>
  <fix>3d</fix>
</trkpt>
<trkpt lat="33.810313" lon="-118.3938669">
  <ele>-1.9</ele>
  <time>2026-09-01T01:12:16Z</time>
  <course>94.99</course>
  <speed>0.0</speed>
  <fix>3d</fix>
</trkpt>
<trkpt lat="33.8103168" lon="-118.3938707">
  <ele>-1.921</ele>
  <time>2026-09-01T01:12:16Z</time>
  <course>186.05</course>
  <speed>0.17804493814764857</speed>
  <fix>3d</fix>
</trkpt>
<trkpt lat="33.810313" lon="-118.3938669">
  <ele>-1.9</ele>
  <time>2026-09-01T01:12:16Z</time>
  <course>94.99</course>
  <speed>0.0</speed>
  <fix>3d</fix>
</trkpt>
<trkpt lat="33.8103169" lon="-118.3938708">
  <ele>-1.911</ele>
  <time>2026-09-01T01:12:16Z</time>
  <course>186.05</course>
  <speed>0.18439088914585774</speed>
  <fix>3d</fix>
</trkpt>
<trkpt lat="33.810313" lon="-118.3938669">
  <ele>-1.88</ele>
  <time>2026-09-01T01:12:16Z</time>
  <course>94.99</course>
  <speed>0.0</speed>
  <fix>3d</fix>
</trkpt>
<trkpt lat="33.810317" lon="-118.3938709">
  <ele>-1.901</ele>
  <time>2026-09-01T01:12:16Z</time>
  <course>186.04</course>
  <speed>0.19209372712298545</speed>
  <fix>3d</fix>
</trkpt>
<trkpt lat="33.810313" lon="-118.3938669">
  <ele>-1.88</ele>
  <time>2026-09-01T01:12:16Z</time>
  <course>94.99</course>
  <speed>0.0</speed>
  <fix>3d</fix>
</trkpt>
<trkpt lat="33.8103172" lon="-118.393871">
  <ele>-1.891</ele>
  <time>2026-09-01T01:12:16Z</time>
  <course>186.04</course>
  <speed>0.19209372712298545</speed>
  <fix>3d</fix>
</trkpt>
<trkpt lat="33.810313" lon="-118.3938669">
  <ele>-1.86</ele>
  <time>2026-09-01T01:12:16Z</time>
  <course>94.99</course>
  <speed>0.0</speed>
  <fix>3d</fix>
</trkpt>
<trkpt lat="33.810317" lon="-118.3938708">
  <ele>-1.881</ele>
  <time>2026-09-01T01:12:16Z</time>
  <course>186.04</course>
  <speed>0.19209372712298545</speed>
  <fix>3d</fix>
</trkpt>
<trkpt lat="33.810313" lon="-118.3938669">
  <ele>-1.86</ele>
  <time>2026-09-01T01:12:16Z</time>
  <course>94.99</course>
  <speed>0.0</speed>
  <fix>3d</fix>
</trkpt>
<trkpt lat="33.8103167" lon="-118.3938706">
  <ele>-1.871</ele>
  <time>2026-09-01T01:12:16Z</time>
  <course>186.04</course>
  <speed>0.17804493814764857</speed>
  <fix>3d</fix>
</trkpt>
<trkpt lat="33.810313" lon="-118.3938669">
  <ele>-1.84</ele>
  <time>2026-09-01T01:12:16Z</time>
  <course>94.99</course>
  <speed>0.0</speed>
  <fix>3d</fix>
</trkpt>
<trkpt lat="33.8103166" lon="-118.3938705">
  <ele>-1.862</ele>
  <time>2026-09-01T01:12:16Z</time>
  <course>186.04</course>
  <speed>0.17804493814764857</speed>
  <fix>3d</fix>
</trkpt>
<trkpt lat="33.810313" lon="-118.3938669">
  <ele>-1.84</ele>
  <time>2026-09-01T01:12:16Z</time>
  <course>94.99</course>
  <speed>0.0</speed>
  <fix>3d</fix>
</trkpt>
<trkpt lat="33.8103166" lon="-118.3938705">
  <ele>-1.852</ele>
  <time>2026-09-01T01:12:16Z</time>
  <course>186.04</course>
  <speed>0.17804493814764857</speed>
  <fix>3d</fix>
</trkpt>
<trkpt lat="33.810313" lon="-118.3938669">
  <ele>-1.81</ele>
  <time>2026-09-01T01:12:16Z</time>
  <course>94.99</course>
  <speed>0.0</speed>
  <fix>3d</fix>
</trkpt>
<trkpt lat="33.8103166" lon="-118.3938705">
  <ele>-1.842</ele>
  <time>2026-09-01T01:12:16Z</time>
  <course>186.04</course>
  <speed>0.17804493814764857</speed>
  <fix>3d</fix>
</trkpt>
<trkpt lat="33.810313" lon="-118.3938669">
  <ele>-1.81</ele>
  <time>2026-09-01T01:12:16Z</time>
  <course>94.99</course>
  <speed>0.0</speed>
  <fix>3d</fix>
</trkpt>
<trkpt lat="33.8103167" lon="-118.3938705">
  <ele>-1.831</ele>
  <time>2026-09-01T01:12:16Z</time>
  <course>186.04</course>
  <speed>0.17804493814764857</speed>
  <fix>3d</fix>
</trkpt>
<trkpt lat="33.810313" lon="-118.3938669">
  <ele>-1.8</ele>
  <time>2026-09-01T01:12:16Z</time>
  <course>94.99</course>
  <speed>0.0</speed>
  <fix>3d</fix>
</trkpt>
<trkpt lat="33.8103167" lon="-118.3938706">
  <ele>-1.821</ele>
  <time>2026-09-01T01:12:16Z</time>
  <course>186.03</course>
  <speed>0.18439088914585774</speed>
  <fix>3d</fix>
</trkpt>
<trkpt lat="33.810313" lon="-118.3938669">
  <ele>-1.8</ele>
  <time>2026-09-01T01:12:16Z</time>
  <course>94.99</course>
  <speed>0.0</speed>
  <fix>3d</fix>
</trkpt>
<trkpt lat="33.8103168" lon="-118.3938707">
  <ele>-1.811</ele>
  <time>2026-09-01T01:12:16Z</time>
  <course>186.03</course>
  <speed>0.19209372712298545</speed>
  <fix>3d</fix>
</trkpt>
<trkpt lat="33.810313" lon="-118.3938669">
  <ele>-1.78</ele>
  <time>2026-09-01T01:12:16Z</time>
  <course>94.99</course>
  <speed>0.0</speed>
  <fix>3d</fix>
</trkpt>
<trkpt lat="33.810317" lon="-118.3938708">
  <ele>-1.801</ele>
  <time>2026-09-01T01:12:16Z</time>
  <course>186.03</course>
  <speed>0.19209372712298545</speed>
  <fix>3d</fix>
</trkpt>
<trkpt lat="33.810313" lon="-118.3938669">
  <ele>-1.78</ele>
  <time>2026-09-01T01:12:16Z</time>
  <course>94.99</course>
  <speed>0.0</speed>
  <fix>3d</fix>
</trkpt>
<trkpt lat="33.8103171" lon="-118.393871">
  <ele>-1.792</ele>
  <time>2026-09-01T01:12:16Z</time>
  <course>186.03</course>
  <speed>0.19209372712298545</speed>
  <fix>3d</fix>
</trkpt>
<trkpt lat="33.810313" lon="-118.3938669">
  <ele>-1.76</ele>
  <time>2026-09-01T01:12:16Z</time>
  <course>94.99</course>
  <speed>0.0</speed>
  <fix>3d</fix>
</trkpt>
<trkpt lat="33.8103172" lon="-118.3938711">
  <ele>-1.783</ele>
  <time>2026-09-01T01:12:16Z</time>
  <course>186.03</course>
  <speed>0.20615528128088303</speed>
  <fix>3d</fix>
</trkpt>
<trkpt lat="33.810313" lon="-118.3938669">
  <ele>-1.76</ele>
  <time>2026-09-01T01:12:16Z</time>
  <course>94.99</course>
  <speed>0.0</speed>
  <fix>3d</fix>
</trkpt>
<trkpt lat="33.810317" lon="-118.3938708">
  <ele>-1.774</ele>
  <time>2026-09-01T01:12:16Z</time>
  <course>186.03</course>
  <speed>0.19209372712298545</speed>
  <fix>3d</fix>
</trkpt>
<trkpt lat="33.810313" lon="-118.3938669">
  <ele>-1.74</ele>
  <time>2026-09-01T01:12:16Z</time>
  <course>94.99</course>
  <speed>0.0</speed>
  <fix>3d</fix>
</trkpt>
<trkpt lat="33.8103167" lon="-118.3938706">
  <ele>-1.764</ele>
  <time>2026-09-01T01:12:16Z</time>
  <course>186.03</course>
  <speed>0.18439088914585774</speed>
  <fix>3d</fix>
</trkpt>
<trkpt lat="33.810313" lon="-118.3938669">
  <ele>-1.74</ele>
  <time>2026-09-01T01:12:16Z</time>
  <course>94.99</course>
  <speed>0.0</speed>
  <fix>3d</fix>
</trkpt>
<trkpt lat="33.8103166" lon="-118.3938704">
  <ele>-1.755</ele>
  <time>2026-09-01T01:12:16Z</time>
  <course>186.02</course>
  <speed>0.17804493814764857</speed>
  <fix>3d</fix>
</trkpt>
<trkpt lat="33.810313" lon="-118.3938669">
  <ele>-1.72</ele>
  <time>2026-09-01T01:12:16Z</time>
  <course>94.99</course>
  <speed>0.0</speed>
  <fix>3d</fix>
</trkpt>
<trkpt lat="33.8103165" lon="-118.3938704">
  <ele>-1.744</ele>
  <time>2026-09-01T01:12:16Z</time>
  <course>186.02</course>
  <speed>0.17804493814764857</speed>
  <fix>3d</fix>
</trkpt>
<trkpt lat="33.810313" lon="-118.3938669">
  <ele>-1.72</ele>
  <time>2026-09-01T01:12:16Z</time>
  <course>94.99</course>
  <speed>0.0</speed>
  <fix>3d</fix>
</trkpt>
<trkpt lat="33.8103165" lon="-118.3938704">
  <ele>-1.734</ele>
  <time>2026-09-01T01:12:16Z</time>
  <course>186.02</course>
  <speed>0.17804493814764857</speed>
  <fix>3d</fix>
</trkpt>
<trkpt lat="33.810313" lon="-118.3938669">
  <ele>-1.7</ele>
  <time>2026-09-01T01:12:16Z</time>
  <course>94.99</course>
  <speed>0.0</speed>
  <fix>3d</fix>
</trkpt>
<trkpt lat="33.8103165" lon="-118.3938704">
  <ele>-1.725</ele>
  <time>2026-09-01T01:12:16Z</time>
  <course>186.02</course>
  <speed>0.18439088914585774</speed>
  <fix>3d</fix>
</trkpt>
<trkpt lat="33.810313" lon="-118.3938669">
  <ele>-1.7</ele>
  <time>2026-09-01T01:12:16Z</time>
  <course>94.99</course>
  <speed>0.0</speed>
  <fix>3d</fix>
</trkpt>
<trkpt lat="33.8103166" lon="-118.3938705">
  <ele>-1.716</ele>
  <time>2026-09-01T01:12:16Z</time>
  <course>186.02</course>
  <speed>0.18439088914585774</speed>
  <fix>3d</fix>
</trkpt>
<trkpt lat="33.810313" lon="-118.3938669">
  <ele>-1.69</ele>
  <time>2026-09-01T01:12:16Z</time>
  <course>94.99</course>
  <speed>0.0</speed>
  <fix>3d</fix>
</trkpt>
<trkpt lat="33.8103167" lon="-118.3938706">
  <ele>-1.705</ele>
  <time>2026-09-01T01:12:16Z</time>
  <course>186.02</course>
  <speed>0.19209372712298545</speed>
  <fix>3d</fix>
</trkpt>
<trkpt lat="33.810313" lon="-118.3938669">
  <ele>-1.69</ele>
  <time>2026-09-01T01:12:16Z</time>
  <course>94.99</course>
  <speed>0.0</speed>
  <fix>3d</fix>
</trkpt>
<trkpt lat="33.8103168" lon="-118.3938707">
  <ele>-1.695</ele>
  <time>2026-09-01T01:12:16Z</time>
  <course>186.02</course>
  <speed>0.19209372712298545</speed>
  <fix>3d</fix>
</trkpt>
<trkpt lat="33.810313" lon="-118.3938669">
  <ele>-1.67</ele>
  <time>2026-09-01T01:12:16Z</time>
  <course>94.99</course>
  <speed>0.0</speed>
  <fix>3d</fix>
</trkpt>
<trkpt lat="33.810317" lon="-118.3938708">
  <ele>-1.686</ele>
  <time>2026-09-01T01:12:16Z</time>
  <course>186.02</course>
  <speed>0.19849433241279207</speed>
  <fix>3d</fix>
</trkpt>
<trkpt lat="33.810313" lon="-118.3938669">
  <ele>-1.67</ele>
  <time>2026-09-01T01:12:16Z</time>
  <course>94.99</course>
  <speed>0.0</speed>
  <fix>3d</fix>
</trkpt>
<trkpt lat="33.8103167" lon="-118.3938706">
  <ele>-1.676</ele>
  <time>2026-09-01T01:12:16Z</time>
  <course>186.01</course>
  <speed>0.19209372712298545</speed>
  <fix>3d</fix>
</trkpt>
<trkpt lat="33.810313" lon="-118.3938669">
  <ele>-1.65</ele>
  <time>2026-09-01T01:12:16Z</time>
  <course>94.99</course>
  <speed>0.0</speed>
  <fix>3d</fix>
</trkpt>
<trkpt lat="33.8103164" lon="-118.3938703">
  <ele>-1.666</ele>
  <time>2026-09-01T01:12:16Z</time>
  <course>186.01</course>
  <speed>0.18439088914585774</speed>
  <fix>3d</fix>
</trkpt>
<trkpt lat="33.810313" lon="-118.3938669">
  <ele>-1.65</ele>
  <time>2026-09-01T01:12:16Z</time>
  <course>94.99</course>
  <speed>0.0</speed>
  <fix>3d</fix>
</trkpt>
<trkpt lat="33.8103163" lon="-118.3938701">
  <ele>-1.656</ele>
  <time>2026-09-01T01:12:16Z</time>
  <course>186.01</course>
  <speed>0.17804493814764857</speed>
  <fix>3d</fix>
</trkpt>
<trkpt lat="33.810313" lon="-118.3938669">
  <ele>-1.63</ele>
  <time>2026-09-01T01:12:16Z</time>
  <course>94.99</course>
  <speed>0.0</speed>
  <fix>3d</fix>
</trkpt>
<trkpt lat="33.8103162" lon="-118.3938701">
  <ele>-1.646</ele>
  <time>2026-09-01T01:12:16Z</time>
  <course>186.01</course>
  <speed>0.17804493814764857</speed>
  <fix>3d</fix>
</trkpt>
<trkpt lat="33.810313" lon="-118.3938669">
  <ele>-1.63</ele>
  <time>2026-09-01T01:12:16Z</time>
  <course>94.99</course>
  <speed>0.0</speed>
  <fix>3d</fix>
</trkpt>
<trkpt lat="33.8103162" lon="-118.39387">
  <ele>-1.634</ele>
  <time>2026-09-01T01:12:16Z</time>
  <course>186.01</course>
  <speed>0.17804493814764857</speed>
  <fix>3d</fix>
</trkpt>
<trkpt lat="33.810313" lon="-118.3938669">
  <ele>-1.61</ele>
  <time>2026-09-01T01:12:16Z</time>
  <course>94.99</course>
  <speed>0.0</speed>
  <fix>3d</fix>
</trkpt>
<trkpt lat="33.8103162" lon="-118.3938701">
  <ele>-1.622</ele>
  <time>2026-09-01T01:12:16Z</time>
  <course>186.01</course>
  <speed>0.17804493814764857</speed>
  <fix>3d</fix>
</trkpt>
<trkpt lat="33.810313" lon="-118.3938669">
  <ele>-1.61</ele>
  <time>2026-09-01T01:12:16Z</time>
  <course>94.99</course>
  <speed>0.0</speed>
  <fix>3d</fix>
</trkpt>
<trkpt lat="33.8103163" lon="-118.3938702">
  <ele>-1.611</ele>
  <time>2026-09-01T01:12:16Z</time>
  <course>186.01</course>
  <speed>0.18439088914585774</speed>
  <fix>3d</fix>
</trkpt>
<trkpt lat="33.810313" lon="-118.3938669">
  <ele>-1.59</ele>
  <time>2026-09-01T01:12:16Z</time>
  <course>94.99</course>
  <speed>0.0</speed>
  <fix>3d</fix>
</trkpt>
<trkpt lat="33.8103164" lon="-118.3938702">
  <ele>-1.599</ele>
  <time>2026-09-01T01:12:16Z</time>
  <course>186.01</course>
  <speed>0.19209372712298545</speed>
  <fix>3d</fix>
</trkpt>
<trkpt lat="33.810313" lon="-118.3938669">
  <ele>-1.59</ele>
  <time>2026-09-01T01:12:16Z</time>
  <course>94.99</course>
  <speed>0.0</speed>
  <fix>3d</fix>
</trkpt>
<trkpt lat="33.8103165" lon="-118.3938704">
  <ele>-1.588</ele>
  <time>2026-09-01T01:12:16Z</time>
  <course>186.0</course>
  <speed>0.19209372712298545</speed>
  <fix>3d</fix>
</trkpt>
<trkpt lat="33.810313" lon="-118.3938668">
  <ele>-1.56</ele>
  <time>2026-09-01T01:12:16Z</time>
  <course>94.99</course>
  <speed>0.0</speed>
  <fix>3d</fix>
</trkpt>
<trkpt lat="33.8103166" lon="-118.3938705">
  <ele>-1.577</ele>
  <time>2026-09-01T01:12:16Z</time>
  <course>186.0</course>
  <speed>0.19209372712298545</speed>
  <fix>3d</fix>
</trkpt>
<trkpt lat="33.810313" lon="-118.3938668">
  <ele>-1.56</ele>
  <time>2026-09-01T01:12:16Z</time>
  <course>94.99</course>
  <speed>0.0</speed>
  <fix>3d</fix>
</trkpt>
<trkpt lat="33.8103168" lon="-118.3938706">
  <ele>-1.566</ele>
  <time>2026-09-01T01:12:16Z</time>
  <course>186.0</course>
  <speed>0.20615528128088303</speed>
  <fix>3d</fix>
</trkpt>
<trkpt lat="33.810313" lon="-118.3938668">
  <ele>-1.55</ele>
  <time>2026-09-01T01:12:16Z</time>
  <course>94.99</course>
  <speed>0.0</speed>
  <fix>3d</fix>
</trkpt>
<trkpt lat="33.8103165" lon="-118.3938704">
  <ele>-1.556</ele>
  <time>2026-09-01T01:12:16Z</time>
  <course>186.0</course>
  <speed>0.19209372712298545</speed>
  <fix>3d</fix>
</trkpt>
<trkpt lat="33.810313" lon="-118.3938668">
  <ele>-1.55</ele>
  <time>2026-09-01T01:12:16Z</time>
  <course>94.99</course>
  <speed>0.0</speed>
  <fix>3d</fix>
</trkpt>
<trkpt lat="33.8103162" lon="-118.3938701">
  <ele>-1.545</ele>
  <time>2026-09-01T01:12:16Z</time>
  <course>186.0</course>
  <speed>0.19209372712298545</speed>
  <fix>3d</fix>
</trkpt>
<trkpt lat="33.810313" lon="-118.3938668">
  <ele>-1.53</ele>
  <time>2026-09-01T01:12:16Z</time>
  <course>94.99</course>
  <speed>0.0</speed>
  <fix>3d</fix>
</trkpt>
<trkpt lat="33.810316" lon="-118.3938699">
  <ele>-1.534</ele>
  <time>2026-09-01T01:12:16Z</time>
  <course>186.0</course>
  <speed>0.18439088914585774</speed>
  <fix>3d</fix>
</trkpt>
<trkpt lat="33.810313" lon="-118.3938668">
  <ele>-1.53</ele>
  <time>2026-09-01T01:12:16Z</time>
  <course>94.99</course>
  <speed>0.0</speed>
  <fix>3d</fix>
</trkpt>
<trkpt lat="33.8103159" lon="-118.3938698">
  <ele>-1.523</ele>
  <time>2026-09-01T01:12:16Z</time>
  <course>186.0</course>
  <speed>0.18439088914585774</speed>
  <fix>3d</fix>
</trkpt>
<trkpt lat="33.810313" lon="-118.3938668">
  <ele>-1.51</ele>
  <time>2026-09-01T01:12:16Z</time>
  <course>94.99</course>
  <speed>0.0</speed>
  <fix>3d</fix>
</trkpt>
<trkpt lat="33.8103159" lon="-118.3938698">
  <ele>-1.514</ele>
  <time>2026-09-01T01:12:16Z</time>
  <course>186.0</course>
  <speed>0.18439088914585774</speed>
  <fix>3d</fix>
</trkpt>
<trkpt lat="33.810313" lon="-118.3938668">
  <ele>-1.51</ele>
  <time>2026-09-01T01:12:16Z</time>
  <course>94.99</course>
  <speed>0.0</speed>
  <fix>3d</fix>
</trkpt>
<trkpt lat="33.8103159" lon="-118.3938698">
  <ele>-1.505</ele>
  <time>2026-09-01T01:12:16Z</time>
  <course>185.99</course>
  <speed>0.18439088914585774</speed>
  <fix>3d</fix>
</trkpt>
<trkpt lat="33.810313" lon="-118.3938668">
  <ele>-1.5</ele>
  <time>2026-09-01T01:12:16Z</time>
  <course>94.99</course>
  <speed>0.0</speed>
  <fix>3d</fix>
</trkpt>
<trkpt lat="33.810316" lon="-118.3938699">
  <ele>-1.497</ele>
  <time>2026-09-01T01:12:16Z</time>
  <course>185.99</course>
  <speed>0.19209372712298545</speed>
  <fix>3d</fix>
</trkpt>
<trkpt lat="33.810313" lon="-118.3938668">
  <ele>-1.5</ele>
  <time>2026-09-01T01:12:16Z</time>
  <course>94.99</course>
  <speed>0.0</speed>
  <fix>3d</fix>
</trkpt>
<trkpt lat="33.8103161" lon="-118.39387">
  <ele>-1.489</ele>
  <time>2026-09-01T01:12:16Z</time>
  <course>185.99</course>
  <speed>0.19209372712298545</speed>
  <fix>3d</fix>
</trkpt>
<trkpt lat="33.810313" lon="-118.3938668">
  <ele>-1.48</ele>
  <time>2026-09-01T01:12:16Z</time>
  <course>94.99</course>
  <speed>0.0</speed>
  <fix>3d</fix>
</trkpt>
<trkpt lat="33.8103162" lon="-118.3938701">
  <ele>-1.481</ele>
  <time>2026-09-01T01:12:16Z</time>
  <course>185.99</course>
  <speed>0.19209372712298545</speed>
  <fix>3d</fix>
</trkpt>
<trkpt lat="33.810313" lon="-118.3938668">
  <ele>-1.48</ele>
  <time>2026-09-01T01:12:16Z</time>
  <course>94.99</course>
  <speed>0.0</speed>
  <fix>3d</fix>
</trkpt>
<trkpt lat="33.8103163" lon="-118.3938702">
  <ele>-1.473</ele>
  <time>2026-09-01T01:12:16Z</time>
  <course>185.99</course>
  <speed>0.20615528128088303</speed>
  <fix>3d</fix>
</trkpt>
<trkpt lat="33.810313" lon="-118.3938668">
  <ele>-1.46</ele>
  <time>2026-09-01T01:12:16Z</time>
  <course>94.99</course>
  <speed>0.0</speed>
  <fix>3d</fix>
</trkpt>
<trkpt lat="33.8103165" lon="-118.3938704">
  <ele>-1.465</ele>
  <time>2026-09-01T01:12:16Z</time>
  <course>185.99</course>
  <speed>0.20615528128088303</speed>
  <fix>3d</fix>
</trkpt>
<trkpt lat="33.810313" lon="-118.3938668">
  <ele>-1.46</ele>
  <time>2026-09-01T01:12:16Z</time>
  <course>94.99</course>
  <speed>0.0</speed>
  <fix>3d</fix>
</trkpt>
<trkpt lat="33.8103162" lon="-118.3938701">
  <ele>-1.457</ele>
  <time>2026-09-01T01:12:16Z</time>
  <course>185.99</course>
  <speed>0.19849433241279207</speed>
  <fix>3d</fix>
</trkpt>
<trkpt lat="33.810313" lon="-118.3938668">
  <ele>-1.44</ele>
  <time>2026-09-01T01:12:16Z</time>
  <course>94.99</course>
  <speed>0.0</speed>
  <fix>3d</fix>
</trkpt>
<trkpt lat="33.8103158" lon="-118.3938697">
  <ele>-1.447</ele>
  <time>2026-09-01T01:12:16Z</time>
  <course>185.99</course>
  <speed>0.19209372712298545</speed>
  <fix>3d</fix>
</trkpt>
<trkpt lat="33.810313" lon="-118.3938668">
  <ele>-1.44</ele>
  <time>2026-09-01T01:12:16Z</time>
  <course>94.99</course>
  <speed>0.0</speed>
  <fix>3d</fix>
</trkpt>
<trkpt lat="33.8103156" lon="-118.3938695">
  <ele>-1.438</ele>
  <time>2026-09-01T01:12:16Z</time>
  <course>185.98</course>
  <speed>0.18439088914585774</speed>
  <fix>3d</fix>
</trkpt>
<trkpt lat="33.810313" lon="-118.3938668">
  <ele>-1.42</ele>
  <time>2026-09-01T01:12:16Z</time>
  <course>94.99</course>
  <speed>0.0</speed>
  <fix>3d</fix>
</trkpt>
<trkpt lat="33.8103155" lon="-118.3938694">
  <ele>-1.43</ele>
  <time>2026-09-01T01:12:16Z</time>
  <course>185.98</course>
  <speed>0.18439088914585774</speed>
  <fix>3d</fix>
</trkpt>
<trkpt lat="33.810313" lon="-118.3938668">
  <ele>-1.42</ele>
  <time>2026-09-01T01:12:16Z</time>
  <course>94.99</course>
  <speed>0.0</speed>
  <fix>3d</fix>
</trkpt>
<trkpt lat="33.8103155" lon="-118.3938694">
  <ele>-1.42</ele>
  <time>2026-09-01T01:12:16Z</time>
  <course>185.98</course>
  <speed>0.18439088914585774</speed>
  <fix>3d</fix>
</trkpt>
<trkpt lat="33.810313" lon="-118.3938668">
  <ele>-1.4</ele>
  <time>2026-09-01T01:12:16Z</time>
  <course>94.99</course>
  <speed>0.0</speed>
  <fix>3d</fix>
</trkpt>
<trkpt lat="33.8103155" lon="-118.3938694">
  <ele>-1.41</ele>
  <time>2026-09-01T01:12:16Z</time>
  <course>185.98</course>
  <speed>0.18439088914585774</speed>
  <fix>3d</fix>
</trkpt>
<trkpt lat="33.810313" lon="-118.3938668">
  <ele>-1.4</ele>
  <time>2026-09-01T01:12:16Z</time>
  <course>94.99</course>
  <speed>0.0</speed>
  <fix>3d</fix>
</trkpt>
<trkpt lat="33.8103156" lon="-118.3938695">
  <ele>-1.4</ele>
  <time>2026-09-01T01:12:16Z</time>
  <course>185.98</course>
  <speed>0.19209372712298545</speed>
  <fix>3d</fix>
</trkpt>
<trkpt lat="33.810313" lon="-118.3938668">
  <ele>-1.38</ele>
  <time>2026-09-01T01:12:16Z</time>
  <course>94.99</course>
  <speed>0.0</speed>
  <fix>3d</fix>
</trkpt>
<trkpt lat="33.8103157" lon="-118.3938696">
  <ele>-1.39</ele>
  <time>2026-09-01T01:12:16Z</time>
  <course>185.98</course>
  <speed>0.19209372712298545</speed>
  <fix>3d</fix>
</trkpt>
<trkpt lat="33.810313" lon="-118.3938668">
  <ele>-1.38</ele>
  <time>2026-09-01T01:12:16Z</time>
  <course>94.99</course>
  <speed>0.0</speed>
  <fix>3d</fix>
</trkpt>
<trkpt lat="33.8103158" lon="-118.3938697">
  <ele>-1.379</ele>
  <time>2026-09-01T01:12:16Z</time>
  <course>185.98</course>
  <speed>0.19849433241279207</speed>
  <fix>3d</fix>
</trkpt>
<trkpt lat="33.810313" lon="-118.3938668">
  <ele>-1.36</ele>
  <time>2026-09-01T01:12:16Z</time>
  <course>94.99</course>
  <speed>0.0</speed>
  <fix>3d</fix>
</trkpt>
<trkpt lat="33.8103159" lon="-118.3938698">
  <ele>-1.368</ele>
  <time>2026-09-01T01:12:16Z</time>
  <course>185.98</course>
  <speed>0.20615528128088303</speed>
  <fix>3d</fix>
</trkpt>
<trkpt lat="33.810313" lon="-118.3938668">
  <ele>-1.36</ele>
  <time>2026-09-01T01:12:16Z</time>
  <course>94.99</course>
  <speed>0.0</speed>
  <fix>3d</fix>
</trkpt>
<trkpt lat="33.8103156" lon="-118.3938695">
  <ele>-1.359</ele>
  <time>2026-09-01T01:12:16Z</time>
  <course>185.97</course>
  <speed>0.19849433241279207</speed>
  <fix>3d</fix>
</trkpt>
<trkpt lat="33.810313" lon="-118.3938668">
  <ele>-1.34</ele>
  <time>2026-09-01T01:12:16Z</time>
  <course>94.99</course>
  <speed>0.0</speed>
  <fix>3d</fix>
</trkpt>
<trkpt lat="33.8103153" lon="-118.3938692">
  <ele>-1.35</ele>
  <time>2026-09-01T01:12:16Z</time>
  <course>185.97</course>
  <speed>0.19209372712298545</speed>
  <fix>3d</fix>
</trkpt>
<trkpt lat="33.810313" lon="-118.3938668">
  <ele>-1.34</ele>
  <time>2026-09-01T01:12:16Z</time>
  <course>94.99</course>
  <speed>0.0</speed>
  <fix>3d</fix>
</trkpt>
<trkpt lat="33.8103151" lon="-118.393869">
  <ele>-1.341</ele>
  <time>2026-09-01T01:12:16Z</time>
  <course>185.97</course>
  <speed>0.18439088914585774</speed>
  <fix>3d</fix>
</trkpt>
<trkpt lat="33.810313" lon="-118.3938668">
  <ele>-1.31</ele>
  <time>2026-09-01T01:12:16Z</time>
  <course>94.99</course>
  <speed>0.0</speed>
  <fix>3d</fix>
</trkpt>
<trkpt lat="33.8103149" lon="-118.3938689">
  <ele>-1.332</ele>
  <time>2026-09-01T01:12:16Z</time>
  <course>185.97</course>
  <speed>0.18439088914585774</speed>
  <fix>3d</fix>
</trkpt>
<trkpt lat="33.810313" lon="-118.3938668">
  <ele>-1.31</ele>
  <time>2026-09-01T01:12:16Z</time>
  <course>94.99</course>
  <speed>0.0</speed>
  <fix>3d</fix>
</trkpt>
<trkpt lat="33.8103149" lon="-118.3938688">
  <ele>-1.323</ele>
  <time>2026-09-01T01:12:16Z</time>
  <course>185.97</course>
  <speed>0.18439088914585774</speed>
  <fix>3d</fix>
</trkpt>
<trkpt lat="33.810313" lon="-118.3938668">
  <ele>-1.3</ele>
  <time>2026-09-01T01:12:16Z</time>
  <course>94.99</course>
  <speed>0.0</speed>
  <fix>3d</fix>
</trkpt>
<trkpt lat="33.8103149" lon="-118.3938689">
  <ele>-1.313</ele>
  <time>2026-09-01T01:12:16Z</time>
  <course>185.97</course>
  <speed>0.18439088914585774</speed>
  <fix>3d</fix>
</trkpt>
<trkpt lat="33.810313" lon="-118.3938668">
  <ele>-1.3</ele>
  <time>2026-09-01T01:12:16Z</time>
  <course>94.99</course>
  <speed>0.0</speed>
  <fix>3d</fix>
</trkpt>
<trkpt lat="33.810315" lon="-118.3938689">
  <ele>-1.304</ele>
  <time>2026-09-01T01:12:16Z</time>
  <course>185.97</course>
  <speed>0.19209372712298545</speed>
  <fix>3d</fix>
</trkpt>
<trkpt lat="33.810313" lon="-118.3938668">
  <ele>-1.29</ele>
  <time>2026-09-01T01:12:16Z</time>
  <course>94.99</course>
  <speed>0.0</speed>
  <fix>3d</fix>
</trkpt>
<trkpt lat="33.8103151" lon="-118.393869">
  <ele>-1.295</ele>
  <time>2026-09-01T01:12:16Z</time>
  <course>185.97</course>
  <speed>0.19209372712298545</speed>
  <fix>3d</fix>
</trkpt>
<trkpt lat="33.810313" lon="-118.3938668">
  <ele>-1.29</ele>
  <time>2026-09-01T01:12:16Z</time>
  <course>94.99</course>
  <speed>0.0</speed>
  <fix>3d</fix>
</trkpt>
<trkpt lat="33.8103152" lon="-118.3938691">
  <ele>-1.287</ele>
  <time>2026-09-01T01:12:16Z</time>
  <course>185.96</course>
  <speed>0.19849433241279207</speed>
  <fix>3d</fix>
</trkpt>
<trkpt lat="33.810313" lon="-118.3938668">
  <ele>-1.27</ele>
  <time>2026-09-01T01:12:16Z</time>
  <course>94.99</course>
  <speed>0.0</speed>
  <fix>3d</fix>
</trkpt>
<trkpt lat="33.8103154" lon="-118.3938693">
  <ele>-1.278</ele>
  <time>2026-09-01T01:12:16Z</time>
  <course>185.96</course>
  <speed>0.20615528128088303</speed>
  <fix>3d</fix>
</trkpt>
<trkpt lat="33.810313" lon="-118.3938668">
  <ele>-1.27</ele>
  <time>2026-09-01T01:12:16Z</time>
  <course>94.99</course>
  <speed>0.0</speed>
  <fix>3d</fix>
</trkpt>
<trkpt lat="33.8103151" lon="-118.393869">
  <ele>-1.268</ele>
  <time>2026-09-01T01:12:16Z</time>
  <course>185.96</course>
  <speed>0.19849433241279207</speed>
  <fix>3d</fix>
</trkpt>
<trkpt lat="33.810313" lon="-118.3938668">
  <ele>-1.25</ele>
  <time>2026-09-01T01:12:16Z</time>
  <course>94.99</course>
  <speed>0.0</speed>
  <fix>3d</fix>
</trkpt>
<trkpt lat="33.8103147" lon="-118.3938686">
  <ele>-1.258</ele>
  <time>2026-09-01T01:12:16Z</time>
  <course>185.96</course>
  <speed>0.19209372712298545</speed>
  <fix>3d</fix>
</trkpt>
<trkpt lat="33.810313" lon="-118.3938668">
  <ele>-1.25</ele>
  <time>2026-09-01T01:12:16Z</time>
  <course>94.99</course>
  <speed>0.0</speed>
  <fix>3d</fix>
</trkpt>
<trkpt lat="33.8103146" lon="-118.3938685">
  <ele>-1.247</ele>
  <time>2026-09-01T01:12:16Z</time>
  <course>185.96</course>
  <speed>0.18439088914585774</speed>
  <fix>3d</fix>
</trkpt>
<trkpt lat="33.810313" lon="-118.3938668">
  <ele>-1.23</ele>
  <time>2026-09-01T01:12:16Z</time>
  <course>94.99</course>
  <speed>0.0</speed>
  <fix>3d</fix>
</trkpt>
<trkpt lat="33.8103145" lon="-118.3938684">
  <ele>-1.237</ele>
  <time>2026-09-01T01:12:16Z</time>
  <course>185.96</course>
  <speed>0.18439088914585774</speed>
  <fix>3d</fix>
</trkpt>
<trkpt lat="33.810313" lon="-118.3938668">
  <ele>-1.23</ele>
  <time>2026-09-01T01:12:16Z</time>
  <course>94.99</course>
  <speed>0.0</speed>
  <fix>3d</fix>
</trkpt>
<trkpt lat="33.8103145" lon="-118.3938684">
  <ele>-1.226</ele>
  <time>2026-09-01T01:12:16Z</time>
  <course>185.96</course>
  <speed>0.18439088914585774</speed>
  <fix>3d</fix>
</trkpt>
<trkpt lat="33.810313" lon="-118.3938668">
  <ele>-1.21</ele>
  <time>2026-09-01T01:12:16Z</time>
  <course>94.99</course>
  <speed>0.0</speed>
  <fix>3d</fix>
</trkpt>
<trkpt lat="33.8103145" lon="-118.3938684">
  <ele>-1.215</ele>
  <time>2026-09-01T01:12:16Z</time>
  <course>185.95</course>
  <speed>0.18439088914585774</speed>
  <fix>3d</fix>
</trkpt>
<trkpt lat="33.810313" lon="-118.3938668">
  <ele>-1.21</ele>
  <time>2026-09-01T01:12:16Z</time>
  <course>94.99</course>
  <speed>0.0</speed>
  <fix>3d</fix>
</trkpt>
<trkpt lat="33.8103146" lon="-118.3938685">
  <ele>-1.204</ele>
  <time>2026-09-01T01:12:16Z</time>
  <course>185.95</course>
  <speed>0.19209372712298545</speed>
  <fix>3d</fix>
</trkpt>
<trkpt lat="33.810313" lon="-118.3938668">
  <ele>-1.19</ele>
  <time>2026-09-01T01:12:16Z</time>
  <course>94.99</course>
  <speed>0.0</speed>
  <fix>3d</fix>
</trkpt>
<trkpt lat="33.8103146" lon="-118.3938685">
  <ele>-1.193</ele>
  <time>2026-09-01T01:12:16Z</time>
  <course>185.95</course>
  <speed>0.19209372712298545</speed>
  <fix>3d</fix>
</trkpt>
<trkpt lat="33.810313" lon="-118.3938668">
  <ele>-1.19</ele>
  <time>2026-09-01T01:12:16Z</time>
  <course>94.99</course>
  <speed>0.0</speed>
  <fix>3d</fix>
</trkpt>
<trkpt lat="33.8103147" lon="-118.3938686">
  <ele>-1.182</ele>
  <time>2026-09-01T01:12:16Z</time>
  <course>185.95</course>
  <speed>0.19849433241279207</speed>
  <fix>3d</fix>
</trkpt>
<trkpt lat="33.810313" lon="-118.3938668">
  <ele>-1.17</ele>
  <time>2026-09-01T01:12:16Z</time>
  <course>94.99</course>
  <speed>0.0</speed>
  <fix>3d</fix>
</trkpt>
<trkpt lat="33.8103148" lon="-118.3938688">
  <ele>-1.171</ele>
  <time>2026-09-01T01:12:16Z</time>
  <course>185.95</course>
  <speed>0.20615528128088303</speed>
  <fix>3d</fix>
</trkpt>
<trkpt lat="33.810313" lon="-118.3938668">
  <ele>-1.17</ele>
  <time>2026-09-01T01:12:16Z</time>
  <course>94.99</course>
  <speed>0.0</speed>
  <fix>3d</fix>
</trkpt>
<trkpt lat="33.8103146" lon="-118.3938685">
  <ele>-1.162</ele>
  <time>2026-09-01T01:12:16Z</time>
  <course>185.95</course>
  <speed>0.19849433241279207</speed>
  <fix>3d</fix>
</trkpt>
<trkpt lat="33.810313" lon="-118.3938668">
  <ele>-1.15</ele>
  <time>2026-09-01T01:12:16Z</time>
  <course>94.99</course>
  <speed>0.0</speed>
  <fix>3d</fix>
</trkpt>
<trkpt lat="33.8103143" lon="-118.3938682">
  <ele>-1.152</ele>
  <time>2026-09-01T01:12:16Z</time>
  <course>185.95</course>
  <speed>0.19209372712298545</speed>
  <fix>3d</fix>
</trkpt>
<trkpt lat="33.810313" lon="-118.3938668">
  <ele>-1.15</ele>
  <time>2026-09-01T01:12:16Z</time>
  <course>94.99</course>
  <speed>0.0</speed>
  <fix>3d</fix>
</trkpt>
<trkpt lat="33.8103141" lon="-118.393868">
  <ele>-1.142</ele>
  <time>2026-09-01T01:12:16Z</time>
  <course>185.95</course>
  <speed>0.18439088914585774</speed>
  <fix>3d</fix>
</trkpt>
<trkpt lat="33.810313" lon="-118.3938668">
  <ele>-1.13</ele>
  <time>2026-09-01T01:12:16Z</time>
  <course>94.99</course>
  <speed>0.0</speed>
  <fix>3d</fix>
</trkpt>
<trkpt lat="33.810314" lon="-118.3938679">
  <ele>-1.132</ele>
  <time>2026-09-01T01:12:16Z</time>
  <course>185.94</course>
  <speed>0.18439088914585774</speed>
  <fix>3d</fix>
</trkpt>
<trkpt lat="33.810313" lon="-118.3938668">
  <ele>-1.13</ele>
  <time>2026-09-01T01:12:16Z</time>
  <course>94.99</course>
  <speed>0.0</speed>
  <fix>3d</fix>
</trkpt>
<trkpt lat="33.8103139" lon="-118.3938679">
  <ele>-1.122</ele>
  <time>2026-09-01T01:12:16Z</time>
  <course>185.94</course>
  <speed>0.18439088914585774</speed>
  <fix>3d</fix>
</trkpt>
<trkpt lat="33.810313" lon="-118.3938668">
  <ele>-1.11</ele>
  <time>2026-09-01T01:12:16Z</time>
  <course>94.99</course>
  <speed>0.0</speed>
  <fix>3d</fix>
</trkpt>
<trkpt lat="33.810314" lon="-118.3938679">
  <ele>-1.112</ele>
  <time>2026-09-01T01:12:16Z</time>
  <course>185.94</course>
  <speed>0.19209372712298545</speed>
  <fix>3d</fix>
</trkpt>
<trkpt lat="33.810313" lon="-118.3938668">
  <ele>-1.11</ele>
  <time>2026-09-01T01:12:16Z</time>
  <course>94.99</course>
  <speed>0.0</speed>
  <fix>3d</fix>
</trkpt>
<trkpt lat="33.8103141" lon="-118.393868">
  <ele>-1.103</ele>
  <time>2026-09-01T01:12:16Z</time>
  <course>185.94</course>
  <speed>0.19209372712298545</speed>
  <fix>3d</fix>
</trkpt>
<trkpt lat="33.810313" lon="-118.3938668">
  <ele>-1.09</ele>
  <time>2026-09-01T01:12:16Z</time>
  <course>94.99</course>
  <speed>0.0</speed>
  <fix>3d</fix>
</trkpt>
<trkpt lat="33.8103142" lon="-118.3938681">
  <ele>-1.093</ele>
  <time>2026-09-01T01:12:16Z</time>
  <course>185.94</course>
  <speed>0.19209372712298545</speed>
  <fix>3d</fix>
</trkpt>
<trkpt lat="33.810313" lon="-118.3938668">
  <ele>-1.09</ele>
  <time>2026-09-01T01:12:16Z</time>
  <course>94.99</course>
  <speed>0.0</speed>
  <fix>3d</fix>
</trkpt>
<trkpt lat="33.8103143" lon="-118.3938682">
  <ele>-1.083</ele>
  <time>2026-09-01T01:12:16Z</time>
  <course>185.94</course>
  <speed>0.19849433241279207</speed>
  <fix>3d</fix>
</trkpt>
<trkpt lat="33.810313" lon="-118.3938668">
  <ele>-1.08</ele>
  <time>2026-09-01T01:12:16Z</time>
  <course>94.99</course>
  <speed>0.0</speed>
  <fix>3d</fix>
</trkpt>
<trkpt lat="33.8103144" lon="-118.3938683">
  <ele>-1.073</ele>
  <time>2026-09-01T01:12:16Z</time>
  <course>185.94</course>
  <speed>0.20615528128088303</speed>
  <fix>3d</fix>
</trkpt>
<trkpt lat="33.810313" lon="-118.3938668">
  <ele>-1.08</ele>
  <time>2026-09-01T01:12:16Z</time>
  <course>94.99</course>
  <speed>0.0</speed>
  <fix>3d</fix>
</trkpt>
<trkpt lat="33.8103146" lon="-118.3938685">
  <ele>-1.064</ele>
  <time>2026-09-01T01:12:16Z</time>
  <course>185.94</course>
  <speed>0.20615528128088303</speed>
  <fix>3d</fix>
</trkpt>
<trkpt lat="33.810313" lon="-118.3938668">
  <ele>-1.06</ele>
  <time>2026-09-01T01:12:16Z</time>
  <course>94.99</course>
  <speed>0.0</speed>
  <fix>3d</fix>
</trkpt>
<trkpt lat="33.8103143" lon="-118.3938682">
  <ele>-1.054</ele>
  <time>2026-09-01T01:12:16Z</time>
  <course>185.94</course>
  <speed>0.20615528128088303</speed>
  <fix>3d</fix>
</trkpt>
<trkpt lat="33.810313" lon="-118.3938668">
  <ele>-1.06</ele>
  <time>2026-09-01T01:12:16Z</time>
  <course>94.99</course>
  <speed>0.0</speed>
  <fix>3d</fix>
</trkpt>
<trkpt lat="33.8103139" lon="-118.3938678">
  <ele>-1.044</ele>
  <time>2026-09-01T01:12:16Z</time>
  <course>185.93</course>
  <speed>0.19209372712298545</speed>
  <fix>3d</fix>
</trkpt>
<trkpt lat="33.810313" lon="-118.3938668">
  <ele>-1.04</ele>
  <time>2026-09-01T01:12:16Z</time>
  <course>94.99</course>
  <speed>0.0</speed>
  <fix>3d</fix>
</trkpt>
<trkpt lat="33.8103137" lon="-118.3938676">
  <ele>-1.033</ele>
  <time>2026-09-01T01:12:16Z</time>
  <course>185.93</course>
  <speed>0.19209372712298545</speed>
  <fix>3d</fix>
</trkpt>
<trkpt lat="33.810313" lon="-118.3938668">
  <ele>-1.04</ele>
  <time>2026-09-01T01:12:16Z</time>
  <course>94.99</course>
  <speed>0.0</speed>
  <fix>3d</fix>
</trkpt>
<trkpt lat="33.8103136" lon="-118.3938675">
  <ele>-1.021</ele>
  <time>2026-09-01T01:12:16Z</time>
  <course>185.93</course>
  <speed>0.19209372712298545</speed>
  <fix>3d</fix>
</trkpt>
<trkpt lat="33.810313" lon="-118.3938668">
  <ele>-1.02</ele>
  <time>2026-09-01T01:12:16Z</time>
  <course>94.99</course>
  <speed>0.0</speed>
  <fix>3d</fix>
</trkpt>
<trkpt lat="33.8103135" lon="-118.3938675">
  <ele>-1.01</ele>
  <time>2026-09-01T01:12:16Z</time>
  <course>185.93</course>
  <speed>0.19209372712298545</speed>
  <fix>3d</fix>
</trkpt>
<trkpt lat="33.810313" lon="-118.3938668">
  <ele>-1.02</ele>
  <time>2026-09-01T01:12:16Z</time>
  <course>94.99</course>
  <speed>0.0</speed>
  <fix>3d</fix>
</trkpt>
<trkpt lat="33.8103136" lon="-118.3938675">
  <ele>-1.0</ele>
  <time>2026-09-01T01:12:16Z</time>
  <course>185.93</course>
  <speed>0.19209372712298545</speed>
  <fix>3d</fix>
</trkpt>
<trkpt lat="33.810313" lon="-118.3938668">
  <ele>-1.0</ele>
  <time>2026-09-01T01:12:16Z</time>
  <course>94.99</course>
  <speed>0.0</speed>
  <fix>3d</fix>
</trkpt>
<trkpt lat="33.8103136" lon="-118.3938676">
  <ele>-0.99</ele>
  <time>2026-09-01T01:12:16Z</time>
  <course>185.93</course>
  <speed>0.19209372712298545</speed>
  <fix>3d</fix>
</trkpt>
<trkpt lat="33.810313" lon="-118.3938668">
  <ele>-1.0</ele>
  <time>2026-09-01T01:12:16Z</time>
  <course>94.99</course>
  <speed>0.0</speed>
  <fix>3d</fix>
</trkpt>
<trkpt lat="33.8103138" lon="-118.3938677">
  <ele>-0.981</ele>
  <time>2026-09-01T01:12:16Z</time>
  <course>185.93</course>
  <speed>0.20615528128088303</speed>
  <fix>3d</fix>
</trkpt>
<trkpt lat="33.810313" lon="-118.3938668">
  <ele>-0.98</ele>
  <time>2026-09-01T01:12:16Z</time>
  <course>94.99</course>
  <speed>0.0</speed>
  <fix>3d</fix>
</trkpt>
<trkpt lat="33.8103139" lon="-118.3938678">
  <ele>-0.971</ele>
  <time>2026-09-01T01:12:16Z</time>
  <course>185.93</course>
  <speed>0.20615528128088303</speed>
  <fix>3d</fix>
</trkpt>
<trkpt lat="33.810313" lon="-118.3938668">
  <ele>-0.98</ele>
  <time>2026-09-01T01:12:16Z</time>
  <course>94.99</course>
  <speed>0.0</speed>
  <fix>3d</fix>
</trkpt>
<trkpt lat="33.810314" lon="-118.3938679">
  <ele>-0.961</ele>
  <time>2026-09-01T01:12:16Z</time>
  <course>185.92</course>
  <speed>0.20615528128088303</speed>
  <fix>3d</fix>
</trkpt>
<trkpt lat="33.810313" lon="-118.3938668">
  <ele>-0.96</ele>
  <time>2026-09-01T01:12:16Z</time>
  <course>94.99</course>
  <speed>0.0</speed>
  <fix>3d</fix>
</trkpt>
<trkpt lat="33.8103142" lon="-118.3938681">
  <ele>-0.951</ele>
  <time>2026-09-01T01:12:16Z</time>
  <course>185.92</course>
  <speed>0.22022715545545238</speed>
  <fix>3d</fix>
</trkpt>
<trkpt lat="33.810313" lon="-118.3938668">
  <ele>-0.96</ele>
  <time>2026-09-01T01:12:16Z</time>
  <course>94.99</course>
  <speed>0.0</speed>
  <fix>3d</fix>
</trkpt>
<trkpt lat="33.8103139" lon="-118.3938678">
  <ele>-0.942</ele>
  <time>2026-09-01T01:12:16Z</time>
  <course>185.92</course>
  <speed>0.20615528128088303</speed>
  <fix>3d</fix>
</trkpt>
<trkpt lat="33.810313" lon="-118.3938668">
  <ele>-0.94</ele>
  <time>2026-09-01T01:12:16Z</time>
  <course>94.99</course>
  <speed>0.0</speed>
  <fix>3d</fix>
</trkpt>
<trkpt lat="33.8103135" lon="-118.3938674">
  <ele>-0.934</ele>
  <time>2026-09-01T01:12:16Z</time>
  <course>185.92</course>
  <speed>0.20615528128088303</speed>
  <fix>3d</fix>
</trkpt>
<trkpt lat="33.810313" lon="-118.3938668">
  <ele>-0.94</ele>
  <time>2026-09-01T01:12:16Z</time>
  <course>94.99</course>
  <speed>0.0</speed>
  <fix>3d</fix>
</trkpt>
<trkpt lat="33.8103133" lon="-118.3938672">
  <ele>-0.925</ele>
  <time>2026-09-01T01:12:16Z</time>
  <course>185.92</course>
  <speed>0.19209372712298545</speed>
  <fix>3d</fix>
</trkpt>
<trkpt lat="33.810313" lon="-118.3938668">
  <ele>-0.92</ele>
  <time>2026-09-01T01:12:16Z</time>
  <course>94.99</course>
  <speed>0.0</speed>
  <fix>3d</fix>
</trkpt>
<trkpt lat="33.8103131" lon="-118.3938671">
  <ele>-0.916</ele>
  <time>2026-09-01T01:12:16Z</time>
  <course>185.92</course>
  <speed>0.19209372712298545</speed>
  <fix>3d</fix>
</trkpt>
<trkpt lat="33.810313" lon="-118.3938668">
  <ele>-0.92</ele>
  <time>2026-09-01T01:12:16Z</time>
  <course>94.99</course>
  <speed>0.0</speed>
  <fix>3d</fix>
</trkpt>
<trkpt lat="33.8103131" lon="-118.393867">
  <ele>-0.908</ele>
  <time>2026-09-01T01:12:16Z</time>
  <course>185.92</course>
  <speed>0.19209372712298545</speed>
  <fix>3d</fix>
</trkpt>
<trkpt lat="33.810313" lon="-118.3938668">
  <ele>-0.9</ele>
  <time>2026-09-01T01:12:16Z</time>
  <course>94.99</course>
  <speed>0.0</speed>
  <fix>3d</fix>
</trkpt>
<trkpt lat="33.8103131" lon="-118.3938671">
  <ele>-0.898</ele>
  <time>2026-09-01T01:12:16Z</time>
  <course>185.92</course>
  <speed>0.19849433241279207</speed>
  <fix>3d</fix>
</trkpt>
<trkpt lat="33.810313" lon="-118.3938668">
  <ele>-0.9</ele>
  <time>2026-09-01T01:12:16Z</time>
  <course>94.99</course>
  <speed>0.0</speed>
  <fix>3d</fix>
</trkpt>
<trkpt lat="33.8103132" lon="-118.3938671">
  <ele>-0.888</ele>
  <time>2026-09-01T01:12:16Z</time>
  <course>185.91</course>
  <speed>0.20615528128088303</speed>
  <fix>3d</fix>
</trkpt>
<trkpt lat="33.810313" lon="-118.3938668">
  <ele>-0.89</ele>
  <time>2026-09-01T01:12:16Z</time>
  <course>94.99</course>
  <speed>0.0</speed>
  <fix>3d</fix>
</trkpt>
<trkpt lat="33.8103133" lon="-118.3938673">
  <ele>-0.878</ele>
  <time>2026-09-01T01:12:16Z</time>
  <course>185.91</course>
  <speed>0.20615528128088303</speed>
  <fix>3d</fix>
</trkpt>
<trkpt lat="33.810313" lon="-118.3938668">
  <ele>-0.89</ele>
  <time>2026-09-01T01:12:16Z</time>
  <course>94.99</course>
  <speed>0.0</speed>
  <fix>3d</fix>
</trkpt>
<trkpt lat="33.8103135" lon="-118.3938674">
  <ele>-0.868</ele>
  <time>2026-09-01T01:12:16Z</time>
  <course>185.91</course>
  <speed>0.20615528128088303</speed>
  <fix>3d</fix>
</trkpt>
<trkpt lat="33.810313" lon="-118.3938668">
  <ele>-0.87</ele>
  <time>2026-09-01T01:12:16Z</time>
  <course>94.99</course>
  <speed>0.0</speed>
  <fix>3d</fix>
</trkpt>
<trkpt lat="33.8103136" lon="-118.3938675">
  <ele>-0.859</ele>
  <time>2026-09-01T01:12:16Z</time>
  <course>185.91</course>
  <speed>0.22022715545545238</speed>
  <fix>3d</fix>
</trkpt>
<trkpt lat="33.810313" lon="-118.3938668">
  <ele>-0.87</ele>
  <time>2026-09-01T01:12:16Z</time>
  <course>94.99</course>
  <speed>0.0</speed>
  <fix>3d</fix>
</trkpt>
<trkpt lat="33.8103138" lon="-118.3938677">
  <ele>-0.851</ele>
  <time>2026-09-01T01:12:16Z</time>
  <course>185.91</course>
  <speed>0.22022715545545238</speed>
  <fix>3d</fix>
</trkpt>
<trkpt lat="33.810313" lon="-118.3938668">
  <ele>-0.85</ele>
  <time>2026-09-01T01:12:16Z</time>
  <course>94.99</course>
  <speed>0.0</speed>
  <fix>3d</fix>
</trkpt>
<trkpt lat="33.8103135" lon="-118.3938674">
  <ele>-0.842</ele>
  <time>2026-09-01T01:12:16Z</time>
  <course>185.91</course>
  <speed>0.22022715545545238</speed>
  <fix>3d</fix>
</trkpt>
<trkpt lat="33.810313" lon="-118.3938668">
  <ele>-0.85</ele>
  <time>2026-09-01T01:12:16Z</time>
  <course>94.99</course>
  <speed>0.0</speed>
  <fix>3d</fix>
</trkpt>
<trkpt lat="33.8103131" lon="-118.393867">
  <ele>-0.833</ele>
  <time>2026-09-01T01:12:16Z</time>
  <course>185.91</course>
  <speed>0.20615528128088303</speed>
  <fix>3d</fix>
</trkpt>
<trkpt lat="33.810313" lon="-118.3938668">
  <ele>-0.83</ele>
  <time>2026-09-01T01:12:16Z</time>
  <course>94.99</course>
  <speed>0.0</speed>
  <fix>3d</fix>
</trkpt>
<trkpt lat="33.8103128" lon="-118.3938668">
  <ele>-0.823</ele>
  <time>2026-09-01T01:12:16Z</time>
  <course>185.91</course>
  <speed>0.20615528128088303</speed>
  <fix>3d</fix>
</trkpt>
<trkpt lat="33.810313" lon="-118.3938668">
  <ele>-0.83</ele>
  <time>2026-09-01T01:12:16Z</time>
  <course>94.99</course>
  <speed>0.0</speed>
  <fix>3d</fix>
</trkpt>
<trkpt lat="33.8103127" lon="-118.3938666">
  <ele>-0.814</ele>
  <time>2026-09-01T01:12:16Z</time>
  <course>185.9</course>
  <speed>0.19849433241279207</speed>
  <fix>3d</fix>
</trkpt>
<trkpt lat="33.810313" lon="-118.3938668">
  <ele>-0.81</ele>
  <time>2026-09-01T01:12:16Z</time>
  <course>94.99</course>
  <speed>0.0</speed>
  <fix>3d</fix>
</trkpt>
<trkpt lat="33.8103127" lon="-118.3938666">
  <ele>-0.804</ele>
  <time>2026-09-01T01:12:16Z</time>
  <course>185.9</course>
  <speed>0.20615528128088303</speed>
  <fix>3d</fix>
</trkpt>
<trkpt lat="33.810313" lon="-118.3938668">
  <ele>-0.81</ele>
  <time>2026-09-01T01:12:16Z</time>
  <course>94.99</course>
  <speed>0.0</speed>
  <fix>3d</fix>
</trkpt>
<trkpt lat="33.8103127" lon="-118.3938666">
  <ele>-0.793</ele>
  <time>2026-09-01T01:12:16Z</time>
  <course>185.9</course>
  <speed>0.20615528128088303</speed>
  <fix>3d</fix>
</trkpt>
<trkpt lat="33.810313" lon="-118.3938668">
  <ele>-0.78</ele>
  <time>2026-09-01T01:12:16Z</time>
  <course>94.99</course>
  <speed>0.0</speed>
  <fix>3d</fix>
</trkpt>
<trkpt lat="33.8103128" lon="-118.3938667">
  <ele>-0.783</ele>
  <time>2026-09-01T01:12:16Z</time>
  <course>185.9</course>
  <speed>0.20615528128088303</speed>
  <fix>3d</fix>
</trkpt>
<trkpt lat="33.810313" lon="-118.3938668">
  <ele>-0.78</ele>
  <time>2026-09-01T01:12:16Z</time>
  <course>94.99</course>
  <speed>0.0</speed>
  <fix>3d</fix>
</trkpt>
<trkpt lat="33.8103129" lon="-118.3938668">
  <ele>-0.773</ele>
  <time>2026-09-01T01:12:16Z</time>
  <course>185.9</course>
  <speed>0.20615528128088303</speed>
  <fix>3d</fix>
</trkpt>
<trkpt lat="33.810313" lon="-118.3938668">
  <ele>-0.77</ele>
  <time>2026-09-01T01:12:16Z</time>
  <course>94.99</course>
  <speed>0.0</speed>
  <fix>3d</fix>
</trkpt>
<trkpt lat="33.810313" lon="-118.3938669">
  <ele>-0.762</ele>
  <time>2026-09-01T01:12:16Z</time>
  <course>185.9</course>
  <speed>0.22022715545545238</speed>
  <fix>3d</fix>
</trkpt>
<trkpt lat="33.810313" lon="-118.3938668">
  <ele>-0.77</ele>
  <time>2026-09-01T01:12:16Z</time>
  <course>94.99</course>
  <speed>0.0</speed>
  <fix>3d</fix>
</trkpt>
<trkpt lat="33.8103132" lon="-118.3938671">
  <ele>-0.752</ele>
  <time>2026-09-01T01:12:16Z</time>
  <course>185.9</course>
  <speed>0.22022715545545238</speed>
  <fix>3d</fix>
</trkpt>
<trkpt lat="33.810313" lon="-118.3938668">
  <ele>-0.75</ele>
  <time>2026-09-01T01:12:16Z</time>
  <course>94.99</course>
  <speed>0.0</speed>
  <fix>3d</fix>
</trkpt>
<trkpt lat="33.8103128" lon="-118.3938667">
  <ele>-0.742</ele>
  <time>2026-09-01T01:12:16Z</time>
  <course>185.9</course>
  <speed>0.20615528128088303</speed>
  <fix>3d</fix>
</trkpt>
<trkpt lat="33.810313" lon="-118.3938668">
  <ele>-0.75</ele>
  <time>2026-09-01T01:12:16Z</time>
  <course>94.99</course>
  <speed>0.0</speed>
  <fix>3d</fix>
</trkpt>
<trkpt lat="33.8103124" lon="-118.3938664">
  <ele>-0.733</ele>
  <time>2026-09-01T01:12:16Z</time>
  <course>185.89</course>
  <speed>0.20615528128088303</speed>
  <fix>3d</fix>
</trkpt>
<trkpt lat="33.810313" lon="-118.3938668">
  <ele>-0.73</ele>
  <time>2026-09-01T01:12:16Z</time>
  <course>94.99</course>
  <speed>0.0</speed>
  <fix>3d</fix>
</trkpt>
<trkpt lat="33.8103122" lon="-118.3938661">
  <ele>-0.723</ele>
  <time>2026-09-01T01:12:16Z</time>
  <course>185.89</course>
  <speed>0.19849433241279207</speed>
  <fix>3d</fix>
</trkpt>
<trkpt lat="33.810313" lon="-118.3938668">
  <ele>-0.73</ele>
  <time>2026-09-01T01:12:16Z</time>
  <course>94.99</course>
  <speed>0.0</speed>
  <fix>3d</fix>
</trkpt>
<trkpt lat="33.8103121" lon="-118.393866">
  <ele>-0.713</ele>
  <time>2026-09-01T01:12:16Z</time>
  <course>185.89</course>
  <speed>0.19849433241279207</speed>
  <fix>3d</fix>
</trkpt>
<trkpt lat="33.810313" lon="-118.3938668">
  <ele>-0.71</ele>
  <time>2026-09-01T01:12:16Z</time>
  <course>94.99</course>
  <speed>0.0</speed>
  <fix>3d</fix>
</trkpt>
<trkpt lat="33.8103121" lon="-118.393866">
  <ele>-0.704</ele>
  <time>2026-09-01T01:12:16Z</time>
  <course>185.89</course>
  <speed>0.19849433241279207</speed>
  <fix>3d</fix>
</trkpt>
<trkpt lat="33.810313" lon="-118.3938668">
  <ele>-0.71</ele>
  <time>2026-09-01T01:12:16Z</time>
  <course>94.99</course>
  <speed>0.0</speed>
  <fix>3d</fix>
</trkpt>
<trkpt lat="33.8103121" lon="-118.3938661">
  <ele>-0.694</ele>
  <time>2026-09-01T01:12:16Z</time>
  <course>185.89</course>
  <speed>0.20615528128088303</speed>
  <fix>3d</fix>
</trkpt>
<trkpt lat="33.810313" lon="-118.3938668">
  <ele>-0.69</ele>
  <time>2026-09-01T01:12:16Z</time>
  <course>94.99</course>
  <speed>0.0</speed>
  <fix>3d</fix>
</trkpt>
<trkpt lat="33.8103122" lon="-118.3938661">
  <ele>-0.685</ele>
  <time>2026-09-01T01:12:16Z</time>
  <course>185.89</course>
  <speed>0.20615528128088303</speed>
  <fix>3d</fix>
</trkpt>
<trkpt lat="33.810313" lon="-118.3938668">
  <ele>-0.69</ele>
  <time>2026-09-01T01:12:16Z</time>
  <course>94.99</course>
  <speed>0.0</speed>
  <fix>3d</fix>
</trkpt>
<trkpt lat="33.8103123" lon="-118.3938663">
  <ele>-0.676</ele>
  <time>2026-09-01T01:12:16Z</time>
  <course>185.89</course>
  <speed>0.20615528128088303</speed>
  <fix>3d</fix>
</trkpt>
<trkpt lat="33.810313" lon="-118.3938668">
  <ele>-0.68</ele>
  <time>2026-09-01T01:12:16Z</time>
  <course>94.99</course>
  <speed>0.0</speed>
  <fix>3d</fix>
</trkpt>
<trkpt lat="33.8103125" lon="-118.3938664">
  <ele>-0.667</ele>
  <time>2026-09-01T01:12:16Z</time>
  <course>185.89</course>
  <speed>0.22022715545545238</speed>
  <fix>3d</fix>
</trkpt>
<trkpt lat="33.810313" lon="-118.3938668">
  <ele>-0.68</ele>
  <time>2026-09-01T01:12:16Z</time>
  <course>94.99</course>
  <speed>0.0</speed>
  <fix>3d</fix>
</trkpt>
<trkpt lat="33.8103126" lon="-118.3938665">
  <ele>-0.657</ele>
  <time>2026-09-01T01:12:16Z</time>
  <course>185.89</course>
  <speed>0.22022715545545238</speed>
  <fix>3d</fix>
</trkpt>
<trkpt lat="33.810313" lon="-118.3938668">
  <ele>-0.65</ele>
  <time>2026-09-01T01:12:16Z</time>
  <course>94.99</course>
  <speed>0.0</speed>
  <fix>3d</fix>
</trkpt>
<trkpt lat="33.8103128" lon="-118.3938667">
  <ele>-0.648</ele>
  <time>2026-09-01T01:12:16Z</time>
  <course>185.89</course>
  <speed>0.22022715545545238</speed>
  <fix>3d</fix>
</trkpt>
<trkpt lat="33.810313" lon="-118.3938668">
  <ele>-0.65</ele>
  <time>2026-09-01T01:12:16Z</time>
  <course>94.99</course>
  <speed>0.0</speed>
  <fix>3d</fix>
</trkpt>
<trkpt lat="33.8103124" lon="-118.3938663">
  <ele>-0.639</ele>
  <time>2026-09-01T01:12:16Z</time>
  <course>185.88</course>
  <speed>0.22022715545545238</speed>
  <fix>3d</fix>
</trkpt>
<trkpt lat="33.810313" lon="-118.3938667">
  <ele>-0.64</ele>
  <time>2026-09-01T01:12:16Z</time>
  <course>94.99</course>
  <speed>0.0</speed>
  <fix>3d</fix>
</trkpt>
<trkpt lat="33.810312" lon="-118.393866">
  <ele>-0.63</ele>
  <time>2026-09-01T01:12:16Z</time>
  <course>185.88</course>
  <speed>0.20615528128088303</speed>
  <fix>3d</fix>
</trkpt>
<trkpt lat="33.810313" lon="-118.3938667">
  <ele>-0.64</ele>
  <time>2026-09-01T01:12:16Z</time>
  <course>94.99</course>
  <speed>0.0</speed>
  <fix>3d</fix>
</trkpt>
<trkpt lat="33.8103118" lon="-118.3938658">
  <ele>-0.62</ele>
  <time>2026-09-01T01:12:16Z</time>
  <course>185.88</course>
  <speed>0.20615528128088303</speed>
  <fix>3d</fix>
</trkpt>
<trkpt lat="33.810313" lon="-118.3938667">
  <ele>-0.62</ele>
  <time>2026-09-01T01:12:16Z</time>
  <course>94.99</course>
  <speed>0.0</speed>
  <fix>3d</fix>
</trkpt>
<trkpt lat="33.8103117" lon="-118.3938657">
  <ele>-0.611</ele>
  <time>2026-09-01T01:12:16Z</time>
  <course>185.88</course>
  <speed>0.20615528128088303</speed>
  <fix>3d</fix>
</trkpt>
<trkpt lat="33.810313" lon="-118.3938667">
  <ele>-0.62</ele>
  <time>2026-09-01T01:12:16Z</time>
  <course>94.99</course>
  <speed>0.0</speed>
  <fix>3d</fix>
</trkpt>
<trkpt lat="33.8103117" lon="-118.3938657">
  <ele>-0.602</ele>
  <time>2026-09-01T01:12:16Z</time>
  <course>185.88</course>
  <speed>0.20615528128088303</speed>
  <fix>3d</fix>
</trkpt>
<trkpt lat="33.810313" lon="-118.3938667">
  <ele>-0.6</ele>
  <time>2026-09-01T01:12:16Z</time>
  <course>94.99</course>
  <speed>0.0</speed>
  <fix>3d</fix>
</trkpt>
<trkpt lat="33.8103117" lon="-118.3938657">
  <ele>-0.592</ele>
  <time>2026-09-01T01:12:16Z</time>
  <course>185.88</course>
  <speed>0.20615528128088303</speed>
  <fix>3d</fix>
</trkpt>
<trkpt lat="33.810313" lon="-118.3938667">
  <ele>-0.6</ele>
  <time>2026-09-01T01:12:16Z</time>
  <course>94.99</course>
  <speed>0.0</speed>
  <fix>3d</fix>
</trkpt>
<trkpt lat="33.8103118" lon="-118.3938658">
  <ele>-0.581</ele>
  <time>2026-09-01T01:12:16Z</time>
  <course>185.88</course>
  <speed>0.20615528128088303</speed>
  <fix>3d</fix>
</trkpt>
<trkpt lat="33.810313" lon="-118.3938667">
  <ele>-0.58</ele>
  <time>2026-09-01T01:12:16Z</time>
  <course>94.99</course>
  <speed>0.0</speed>
  <fix>3d</fix>
</trkpt>
<trkpt lat="33.8103119" lon="-118.3938659">
  <ele>-0.571</ele>
  <time>2026-09-01T01:12:16Z</time>
  <course>185.88</course>
  <speed>0.21400934559032694</speed>
  <fix>3d</fix>
</trkpt>
<trkpt lat="33.810313" lon="-118.3938667">
  <ele>-0.58</ele>
  <time>2026-09-01T01:12:16Z</time>
  <course>94.99</course>
  <speed>0.0</speed>
  <fix>3d</fix>
</trkpt>
<trkpt lat="33.8103121" lon="-118.393866">
  <ele>-0.561</ele>
  <time>2026-09-01T01:12:16Z</time>
  <course>185.87</course>
  <speed>0.22022715545545238</speed>
  <fix>3d</fix>
</trkpt>
<trkpt lat="33.810313" lon="-118.3938667">
  <ele>-0.56</ele>
  <time>2026-09-01T01:12:16Z</time>
  <course>94.99</course>
  <speed>0.0</speed>
  <fix>3d</fix>
</trkpt>
<trkpt lat="33.8103122" lon="-118.3938662">
  <ele>-0.551</ele>
  <time>2026-09-01T01:12:16Z</time>
  <course>185.87</course>
  <speed>0.22022715545545238</speed>
  <fix>3d</fix>
</trkpt>
<trkpt lat="33.810313" lon="-118.3938667">
  <ele>-0.56</ele>
  <time>2026-09-01T01:12:16Z</time>
  <course>94.99</course>
  <speed>0.0</speed>
  <fix>3d</fix>
</trkpt>
<trkpt lat="33.8103119" lon="-118.3938658">
  <ele>-0.542</ele>
  <time>2026-09-01T01:12:16Z</time>
  <course>185.87</course>
  <speed>0.22022715545545238</speed>
  <fix>3d</fix>
</trkpt>
<trkpt lat="33.810313" lon="-118.3938667">
  <ele>-0.53</ele>
  <time>2026-09-01T01:12:16Z</time>
  <course>94.99</course>
  <speed>0.0</speed>
  <fix>3d</fix>
</trkpt>
<trkpt lat="33.8103115" lon="-118.3938655">
  <ele>-0.534</ele>
  <time>2026-09-01T01:12:16Z</time>
  <course>185.87</course>
  <speed>0.20615528128088303</speed>
  <fix>3d</fix>
</trkpt>
<trkpt lat="33.810313" lon="-118.3938667">
  <ele>-0.53</ele>
  <time>2026-09-01T01:12:16Z</time>
  <course>94.99</course>
  <speed>0.0</speed>
  <fix>3d</fix>
</trkpt>
<trkpt lat="33.8103113" lon="-118.3938653">
  <ele>-0.525</ele>
  <time>2026-09-01T01:12:16Z</time>
  <course>185.87</course>
  <speed>0.20615528128088303</speed>
  <fix>3d</fix>
</trkpt>
<trkpt lat="33.810313" lon="-118.3938667">
  <ele>-0.52</ele>
  <time>2026-09-01T01:12:16Z</time>
  <course>94.99</course>
  <speed>0.0</speed>
  <fix>3d</fix>
</trkpt>
<trkpt lat="33.8103112" lon="-118.3938652">
  <ele>-0.517</ele>
  <time>2026-09-01T01:12:16Z</time>
  <course>185.87</course>
  <speed>0.20615528128088303</speed>
  <fix>3d</fix>
</trkpt>
<trkpt lat="33.810313" lon="-118.3938667">
  <ele>-0.52</ele>
  <time>2026-09-01T01:12:16Z</time>
  <course>94.99</course>
  <speed>0.0</speed>
  <fix>3d</fix>
</trkpt>
<trkpt lat="33.8103112" lon="-118.3938652">
  <ele>-0.508</ele>
  <time>2026-09-01T01:12:16Z</time>
  <course>185.87</course>
  <speed>0.20615528128088303</speed>
  <fix>3d</fix>
</trkpt>
<trkpt lat="33.810313" lon="-118.3938667">
  <ele>-0.5</ele>
  <time>2026-09-01T01:12:16Z</time>
  <course>94.99</course>
  <speed>0.0</speed>
  <fix>3d</fix>
</trkpt>
<trkpt lat="33.8103113" lon="-118.3938652">
  <ele>-0.498</ele>
  <time>2026-09-01T01:12:16Z</time>
  <course>185.87</course>
  <speed>0.20615528128088303</speed>
  <fix>3d</fix>
</trkpt>
<trkpt lat="33.810313" lon="-118.3938667">
  <ele>-0.5</ele>
  <time>2026-09-01T01:12:16Z</time>
  <course>94.99</course>
  <speed>0.0</speed>
  <fix>3d</fix>
</trkpt>
<trkpt lat="33.8103113" lon="-118.3938653">
  <ele>-0.488</ele>
  <time>2026-09-01T01:12:16Z</time>
  <course>185.87</course>
  <speed>0.20615528128088303</speed>
  <fix>3d</fix>
</trkpt>
<trkpt lat="33.810313" lon="-118.3938667">
  <ele>-0.48</ele>
  <time>2026-09-01T01:12:16Z</time>
  <course>94.99</course>
  <speed>0.0</speed>
  <fix>3d</fix>
</trkpt>
<trkpt lat="33.8103115" lon="-118.3938654">
  <ele>-0.477</ele>
  <time>2026-09-01T01:12:16Z</time>
  <course>185.86</course>
  <speed>0.21400934559032694</speed>
  <fix>3d</fix>
</trkpt>
<trkpt lat="33.810313" lon="-118.3938667">
  <ele>-0.48</ele>
  <time>2026-09-01T01:12:16Z</time>
  <course>94.99</course>
  <speed>0.0</speed>
  <fix>3d</fix>
</trkpt>
<trkpt lat="33.8103116" lon="-118.3938656">
  <ele>-0.465</ele>
  <time>2026-09-01T01:12:16Z</time>
  <course>185.86</course>
  <speed>0.22022715545545238</speed>
  <fix>3d</fix>
</trkpt>
<trkpt lat="33.810313" lon="-118.3938667">
  <ele>-0.47</ele>
  <time>2026-09-01T01:12:16Z</time>
  <course>94.99</course>
  <speed>0.0</speed>
  <fix>3d</fix>
</trkpt>
<trkpt lat="33.8103118" lon="-118.3938657">
  <ele>-0.454</ele>
  <time>2026-09-01T01:12:16Z</time>
  <course>185.86</course>
  <speed>0.22022715545545238</speed>
  <fix>3d</fix>
</trkpt>
<trkpt lat="33.810313" lon="-118.3938667">
  <ele>-0.47</ele>
  <time>2026-09-01T01:12:16Z</time>
  <course>94.99</course>
  <speed>0.0</speed>
  <fix>3d</fix>
</trkpt>
<trkpt lat="33.8103114" lon="-118.3938654">
  <ele>-0.443</ele>
  <time>2026-09-01T01:12:16Z</time>
  <course>185.86</course>
  <speed>0.22022715545545238</speed>
  <fix>3d</fix>
</trkpt>
<trkpt lat="33.810313" lon="-118.3938667">
  <ele>-0.45</ele>
  <time>2026-09-01T01:12:16Z</time>
  <course>94.99</course>
  <speed>0.0</speed>
  <fix>3d</fix>
</trkpt>
<trkpt lat="33.8103111" lon="-118.393865">
  <ele>-0.433</ele>
  <time>2026-09-01T01:12:16Z</time>
  <course>185.86</course>
  <speed>0.20615528128088303</speed>
  <fix>3d</fix>
</trkpt>
<trkpt lat="33.810313" lon="-118.3938667">
  <ele>-0.45</ele>
  <time>2026-09-01T01:12:16Z</time>
  <course>94.99</course>
  <speed>0.0</speed>
  <fix>3d</fix>
</trkpt>
<trkpt lat="33.8103109" lon="-118.3938648">
  <ele>-0.423</ele>
  <time>2026-09-01T01:12:16Z</time>
  <course>185.86</course>
  <speed>0.20615528128088303</speed>
  <fix>3d</fix>
</trkpt>
<trkpt lat="33.810313" lon="-118.3938667">
  <ele>-0.43</ele>
  <time>2026-09-01T01:12:16Z</time>
  <course>94.99</course>
  <speed>0.0</speed>
  <fix>3d</fix>
</trkpt>
<trkpt lat="33.8103108" lon="-118.3938648">
  <ele>-0.414</ele>
  <time>2026-09-01T01:12:16Z</time>
  <course>185.86</course>
  <speed>0.20615528128088303</speed>
  <fix>3d</fix>
</trkpt>
<trkpt lat="33.810313" lon="-118.3938667">
  <ele>-0.43</ele>
  <time>2026-09-01T01:12:16Z</time>
  <course>94.99</course>
  <speed>0.0</speed>
  <fix>3d</fix>
</trkpt>
<trkpt lat="33.8103108" lon="-118.3938648">
  <ele>-0.404</ele>
  <time>2026-09-01T01:12:16Z</time>
  <course>185.86</course>
  <speed>0.20615528128088303</speed>
  <fix>3d</fix>
</trkpt>
<trkpt lat="33.810313" lon="-118.3938667">
  <ele>-0.41</ele>
  <time>2026-09-01T01:12:16Z</time>
  <course>94.99</course>
  <speed>0.0</speed>
  <fix>3d</fix>
</trkpt>
<trkpt lat="33.8103108" lon="-118.3938648">
  <ele>-0.393</ele>
  <time>2026-09-01T01:12:16Z</time>
  <course>185.86</course>
  <speed>0.20615528128088303</speed>
  <fix>3d</fix>
</trkpt>
<trkpt lat="33.810313" lon="-118.3938667">
  <ele>-0.41</ele>
  <time>2026-09-01T01:12:16Z</time>
  <course>94.99</course>
  <speed>0.0</speed>
  <fix>3d</fix>
</trkpt>
<trkpt lat="33.8103109" lon="-118.3938649">
  <ele>-0.382</ele>
  <time>2026-09-01T01:12:16Z</time>
  <course>185.85</course>
  <speed>0.20615528128088303</speed>
  <fix>3d</fix>
</trkpt>
<trkpt lat="33.810313" lon="-118.3938667">
  <ele>-0.39</ele>
  <time>2026-09-01T01:12:16Z</time>
  <course>94.99</course>
  <speed>0.0</speed>
  <fix>3d</fix>
</trkpt>
<trkpt lat="33.810311" lon="-118.393865">
  <ele>-0.371</ele>
  <time>2026-09-01T01:12:16Z</time>
  <course>185.85</course>
  <speed>0.21400934559032694</speed>
  <fix>3d</fix>
</trkpt>
<trkpt lat="33.810313" lon="-118.3938667">
  <ele>-0.39</ele>
  <time>2026-09-01T01:12:16Z</time>
  <course>94.99</course>
  <speed>0.0</speed>
  <fix>3d</fix>
</trkpt>
<trkpt lat="33.8103112" lon="-118.3938651">
  <ele>-0.361</ele>
  <time>2026-09-01T01:12:16Z</time>
  <course>185.85</course>
  <speed>0.22022715545545238</speed>
  <fix>3d</fix>
</trkpt>
<trkpt lat="33.810313" lon="-118.3938667">
  <ele>-0.37</ele>
  <time>2026-09-01T01:12:16Z</time>
  <course>94.99</course>
  <speed>0.0</speed>
  <fix>3d</fix>
</trkpt>
<trkpt lat="33.8103113" lon="-118.3938653">
  <ele>-0.35</ele>
  <time>2026-09-01T01:12:16Z</time>
  <course>185.85</course>
  <speed>0.22022715545545238</speed>
  <fix>3d</fix>
</trkpt>
<trkpt lat="33.810313" lon="-118.3938667">
  <ele>-0.37</ele>
  <time>2026-09-01T01:12:16Z</time>
  <course>94.99</course>
  <speed>0.0</speed>
  <fix>3d</fix>
</trkpt>
<trkpt lat="33.8103115" lon="-118.3938655">
  <ele>-0.34</ele>
  <time>2026-09-01T01:12:16Z</time>
  <course>185.85</course>
  <speed>0.22803508501982758</speed>
  <fix>3d</fix>
</trkpt>
<trkpt lat="33.810313" lon="-118.3938667">
  <ele>-0.35</ele>
  <time>2026-09-01T01:12:16Z</time>
  <course>94.99</course>
  <speed>0.0</speed>
  <fix>3d</fix>
</trkpt>
<trkpt lat="33.8103112" lon="-118.3938651">
  <ele>-0.33</ele>
  <time>2026-09-01T01:12:16Z</time>
  <course>185.85</course>
  <speed>0.22022715545545238</speed>
  <fix>3d</fix>
</trkpt>
<trkpt lat="33.810313" lon="-118.3938667">
  <ele>-0.35</ele>
  <time>2026-09-01T01:12:16Z</time>
  <course>94.99</course>
  <speed>0.0</speed>
  <fix>3d</fix>
</trkpt>
<trkpt lat="33.8103108" lon="-118.3938648">
  <ele>-0.319</ele>
  <time>2026-09-01T01:12:16Z</time>
  <course>185.85</course>
  <speed>0.20615528128088303</speed>
  <fix>3d</fix>
</trkpt>
<trkpt lat="33.810313" lon="-118.3938667">
  <ele>-0.32</ele>
  <time>2026-09-01T01:12:16Z</time>
  <course>94.99</course>
  <speed>0.0</speed>
  <fix>3d</fix>
</trkpt>
<trkpt lat="33.8103106" lon="-118.3938646">
  <ele>-0.309</ele>
  <time>2026-09-01T01:12:16Z</time>
  <course>185.85</course>
  <speed>0.20615528128088303</speed>
  <fix>3d</fix>
</trkpt>
<trkpt lat="33.810313" lon="-118.3938667">
  <ele>-0.32</ele>
  <time>2026-09-01T01:12:16Z</time>
  <course>94.99</course>
  <speed>0.0</speed>
  <fix>3d</fix>
</trkpt>
<trkpt lat="33.8103106" lon="-118.3938645">
  <ele>-0.299</ele>
  <time>2026-09-01T01:12:16Z</time>
  <course>185.85</course>
  <speed>0.20615528128088303</speed>
  <fix>3d</fix>
</trkpt>
<trkpt lat="33.810313" lon="-118.3938667">
  <ele>-0.31</ele>
  <time>2026-09-01T01:12:16Z</time>
  <course>94.99</course>
  <speed>0.0</speed>
  <fix>3d</fix>
</trkpt>
<trkpt lat="33.8103105" lon="-118.3938645">
  <ele>-0.29</ele>
  <time>2026-09-01T01:12:16Z</time>
  <course>185.84</course>
  <speed>0.20615528128088303</speed>
  <fix>3d</fix>
</trkpt>
<trkpt lat="33.810313" lon="-118.3938667">
  <ele>-0.31</ele>
  <time>2026-09-01T01:12:16Z</time>
  <course>94.99</course>
  <speed>0.0</speed>
  <fix>3d</fix>
</trkpt>
<trkpt lat="33.8103106" lon="-118.3938646">
  <ele>-0.282</ele>
  <time>2026-09-01T01:12:16Z</time>
  <course>185.84</course>
  <speed>0.20615528128088303</speed>
  <fix>3d</fix>
</trkpt>
<trkpt lat="33.810313" lon="-118.3938667">
  <ele>-0.29</ele>
  <time>2026-09-01T01:12:16Z</time>
  <course>94.99</course>
  <speed>0.0</speed>
  <fix>3d</fix>
</trkpt>
<trkpt lat="33.8103107" lon="-118.3938647">
  <ele>-0.273</ele>
  <time>2026-09-01T01:12:16Z</time>
  <course>185.84</course>
  <speed>0.21400934559032694</speed>
  <fix>3d</fix>
</trkpt>
<trkpt lat="33.810313" lon="-118.3938667">
  <ele>-0.29</ele>
  <time>2026-09-01T01:12:16Z</time>
  <course>94.99</course>
  <speed>0.0</speed>
  <fix>3d</fix>
</trkpt>
<trkpt lat="33.810313" lon="-118.3938667">
  <ele>-0.263</ele>
  <time>2026-09-01T01:12:16Z</time>
  <course>185.84</course>
  <speed>0.19209372712298545</speed>
  <fix>3d</fix>
</trkpt>
<trkpt lat="33.810313" lon="-118.3938667">
  <ele>-0.28</ele>
  <time>2026-09-01T01:12:16Z</time>
  <course>94.99</course>
  <speed>0.0</speed>
  <fix>3d</fix>
</trkpt>
<trkpt lat="33.8103131" lon="-118.3938668">
  <ele>-0.253</ele>
  <time>2026-09-01T01:12:16Z</time>
  <course>185.84</course>
  <speed>0.16401219466856726</speed>
  <fix>3d</fix>
</trkpt>
<trkpt lat="33.810313" lon="-118.3938667">
  <ele>-0.28</ele>
  <time>2026-09-01T01:12:16Z</time>
  <course>94.99</course>
  <speed>0.0</speed>
  <fix>3d</fix>
</trkpt>
<trkpt lat="33.810313" lon="-118.3938667">
  <ele>-0.242</ele>
  <time>2026-09-01T01:12:16Z</time>
  <course>185.84</course>
  <speed>0.13601470508735444</speed>
  <fix>3d</fix>
</trkpt>
<trkpt lat="33.810313" lon="-118.3938667">
  <ele>-0.26</ele>
  <time>2026-09-01T01:12:16Z</time>
  <course>94.99</course>
  <speed>0.0</speed>
  <fix>3d</fix>
</trkpt>
<trkpt lat="33.810313" lon="-118.3938667">
  <ele>-0.231</ele>
  <time>2026-09-01T01:12:16Z</time>
  <course>185.84</course>
  <speed>0.11401754250991379</speed>
  <fix>3d</fix>
</trkpt>
<trkpt lat="33.810313" lon="-118.3938667">
  <ele>-0.26</ele>
  <time>2026-09-01T01:12:16Z</time>
  <course>94.99</course>
  <speed>0.0</speed>
  <fix>3d</fix>
</trkpt>
<trkpt lat="33.810313" lon="-118.3938667">
  <ele>-0.22</ele>
  <time>2026-09-01T01:12:16Z</time>
  <course>185.84</course>
  <speed>0.09219544457292887</speed>
  <fix>3d</fix>
</trkpt>
<trkpt lat="33.810313" lon="-118.3938667">
  <ele>-0.24</ele>
  <time>2026-09-01T01:12:16Z</time>
  <course>94.99</course>
  <speed>0.0</speed>
  <fix>3d</fix>
</trkpt>
<trkpt lat="33.810313" lon="-118.3938667">
  <ele>-0.21</ele>
  <time>2026-09-01T01:12:16Z</time>
  <course>185.84</course>
  <speed>0.07810249675906654</speed>
  <fix>3d</fix>
</trkpt>
<trkpt lat="33.810313" lon="-118.3938667">
  <ele>-0.24</ele>
  <time>2026-09-01T01:12:16Z</time>
  <course>94.99</course>
  <speed>0.0</speed>
  <fix>3d</fix>
</trkpt>
<trkpt lat="33.810313" lon="-118.3938667">
  <ele>-0.201</ele>
  <time>2026-09-01T01:12:16Z</time>
  <course>185.84</course>
  <speed>0.06403124237432849</speed>
  <fix>3d</fix>
</trkpt>
<trkpt lat="33.810313" lon="-118.3938667">
  <ele>-0.22</ele>
  <time>2026-09-01T01:12:16Z</time>
  <course>94.99</course>
  <speed>0.0</speed>
  <fix>3d</fix>
</trkpt>
<trkpt lat="33.810313" lon="-118.3938667">
  <ele>-0.192</ele>
  <time>2026-09-01T01:12:16Z</time>
  <course>185.84</course>
  <speed>0.06403124237432849</speed>
  <fix>3d</fix>
</trkpt>
<trkpt lat="33.810313" lon="-118.3938667">
  <ele>-0.22</ele>
  <time>2026-09-01T01:12:16Z</time>
  <course>94.99</course>
  <speed>0.0</speed>
  <fix>3d</fix>
</trkpt>
<trkpt lat="33.810313" lon="-118.3938667">
  <ele>-0.182</ele>
  <time>2026-09-01T01:12:16Z</time>
  <course>185.84</course>
  <speed>0.06403124237432849</speed>
  <fix>3d</fix>
</trkpt>
<trkpt lat="33.810313" lon="-118.3938667">
  <ele>-0.19</ele>
  <time>2026-09-01T01:12:16Z</time>
  <course>94.99</course>
  <speed>0.0</speed>
  <fix>3d</fix>
</trkpt>
<trkpt lat="33.810313" lon="-118.3938667">
  <ele>-0.173</ele>
  <time>2026-09-01T01:12:16Z</time>
  <course>185.83</course>
  <speed>0.06403124237432849</speed>
  <fix>3d</fix>
</trkpt>
<trkpt lat="33.810313" lon="-118.3938667">
  <ele>-0.19</ele>
  <time>2026-09-01T01:12:16Z</time>
  <course>94.99</course>
  <speed>0.0</speed>
  <fix>3d</fix>
</trkpt>
<trkpt lat="33.8103131" lon="-118.3938668">
  <ele>-0.163</ele>
  <time>2026-09-01T01:12:16Z</time>
  <course>185.83</course>
  <speed>0.06403124237432849</speed>
  <fix>3d</fix>
</trkpt>
<trkpt lat="33.810313" lon="-118.3938667">
  <ele>-0.18</ele>
  <time>2026-09-01T01:12:16Z</time>
  <course>94.99</course>
  <speed>0.0</speed>
  <fix>3d</fix>
</trkpt>
<trkpt lat="33.8103132" lon="-118.3938668">
  <ele>-0.155</ele>
  <time>2026-09-01T01:12:17Z</time>
  <course>185.83</course>
  <speed>0.06403124237432849</speed>
  <fix>3d</fix>
</trkpt>
<trkpt lat="33.810313" lon="-118.3938667">
  <ele>-0.18</ele>
  <time>2026-09-01T01:12:17Z</time>
  <course>94.99</course>
  <speed>0.0</speed>
  <fix>3d</fix>
</trkpt>
<trkpt lat="33.8103132" lon="-118.3938669">
  <ele>-0.146</ele>
  <time>2026-09-01T01:12:17Z</time>
  <course>185.83</course>
  <speed>0.06403124237432849</speed>
  <fix>3d</fix>
</trkpt>
<trkpt lat="33.810313" lon="-118.3938667">
  <ele>-0.16</ele>
  <time>2026-09-01T01:12:17Z</time>
  <course>94.99</course>
  <speed>0.0</speed>
  <fix>3d</fix>
</trkpt>
<trkpt lat="33.8103133" lon="-118.393867">
  <ele>-0.137</ele>
  <time>2026-09-01T01:12:17Z</time>
  <course>185.83</course>
  <speed>0.07211102550927978</speed>
  <fix>3d</fix>
</trkpt>
<trkpt lat="33.810313" lon="-118.3938667">
  <ele>-0.16</ele>
  <time>2026-09-01T01:12:17Z</time>
  <course>94.99</course>
  <speed>0.0</speed>
  <fix>3d</fix>
</trkpt>
<trkpt lat="33.8103133" lon="-118.393867">
  <ele>-0.127</ele>
  <time>2026-09-01T01:12:17Z</time>
  <course>185.83</course>
  <speed>0.07810249675906654</speed>
  <fix>3d</fix>
</trkpt>
<trkpt lat="33.810313" lon="-118.3938667">
  <ele>-0.14</ele>
  <time>2026-09-01T01:12:17Z</time>
  <course>94.99</course>
  <speed>0.0</speed>
  <fix>3d</fix>
</trkpt>
<trkpt lat="33.8103134" lon="-118.393867">
  <ele>-0.119</ele>
  <time>2026-09-01T01:12:17Z</time>
  <course>185.83</course>
  <speed>0.07810249675906654</speed>
  <fix>3d</fix>
</trkpt>
<trkpt lat="33.810313" lon="-118.3938667">
  <ele>-0.14</ele>
  <time>2026-09-01T01:12:17Z</time>
  <course>94.99</course>
  <speed>0.0</speed>
  <fix>3d</fix>
</trkpt>
<trkpt lat="33.8103134" lon="-118.3938671">
  <ele>-0.112</ele>
  <time>2026-09-01T01:12:17Z</time>
  <course>185.83</course>
  <speed>0.07810249675906654</speed>
  <fix>3d</fix>
</trkpt>
<trkpt lat="33.810313" lon="-118.3938667">
  <ele>-0.12</ele>
  <time>2026-09-01T01:12:17Z</time>
  <course>94.99</course>
  <speed>0.0</speed>
  <fix>3d</fix>
</trkpt>
<trkpt lat="33.8103135" lon="-118.3938672">
  <ele>-0.109</ele>
  <time>2026-09-01T01:12:17Z</time>
  <course>185.83</course>
  <speed>0.08602325267042626</speed>
  <fix>3d</fix>
</trkpt>
<trkpt lat="33.810313" lon="-118.3938667">
  <ele>-0.12</ele>
  <time>2026-09-01T01:12:17Z</time>
  <course>94.99</course>
  <speed>0.0</speed>
  <fix>3d</fix>
</trkpt>
<trkpt lat="33.8103136" lon="-118.3938672">
  <ele>-0.112</ele>
  <time>2026-09-01T01:12:17Z</time>
  <course>185.83</course>
  <speed>0.08602325267042626</speed>
  <fix>3d</fix>
</trkpt>
<trkpt lat="33.810313" lon="-118.3938667">
  <ele>-0.11</ele>
  <time>2026-09-01T01:12:17Z</time>
  <course>94.99</course>
  <speed>0.0</speed>
  <fix>3d</fix>
</trkpt>
<trkpt lat="33.8103137" lon="-118.3938673">
  <ele>-0.12</ele>
  <time>2026-09-01T01:12:17Z</time>
  <course>185.83</course>
  <speed>0.09219544457292887</speed>
  <fix>3d</fix>
</trkpt>
<trkpt lat="33.810313" lon="-118.3938667">
  <ele>-0.11</ele>
  <time>2026-09-01T01:12:17Z</time>
  <course>94.99</course>
  <speed>0.0</speed>
  <fix>3d</fix>
</trkpt>
<trkpt lat="33.8103138" lon="-118.3938674">
  <ele>-0.13</ele>
  <time>2026-09-01T01:12:17Z</time>
  <course>185.83</course>
  <speed>0.1</speed>
  <fix>3d</fix>
</trkpt>
<trkpt lat="33.810313" lon="-118.3938667">
  <ele>-0.11</ele>
  <time>2026-09-01T01:12:17Z</time>
  <course>94.99</course>
  <speed>0.0</speed>
  <fix>3d</fix>
</trkpt>
<trkpt lat="33.8103139" lon="-118.3938676">
  <ele>-0.14</ele>
  <time>2026-09-01T01:12:17Z</time>
  <course>185.83</course>
  <speed>0.1</speed>
  <fix>3d</fix>
</trkpt>
<trkpt lat="33.810313" lon="-118.3938667">
  <ele>-0.11</ele>
  <time>2026-09-01T01:12:17Z</time>
  <course>94.99</course>
  <speed>0.0</speed>
  <fix>3d</fix>
</trkpt>
<trkpt lat="33.810314" lon="-118.3938676">
  <ele>-0.148</ele>
  <time>2026-09-01T01:12:17Z</time>
  <course>185.82</course>
  <speed>0.1</speed>
  <fix>3d</fix>
</trkpt>
<trkpt lat="33.810313" lon="-118.3938667">
  <ele>-0.12</ele>
  <time>2026-09-01T01:12:17Z</time>
  <course>94.99</course>
  <speed>0.0</speed>
  <fix>3d</fix>
</trkpt>
<trkpt lat="33.810314" lon="-118.3938677">
  <ele>-0.156</ele>
  <time>2026-09-01T01:12:17Z</time>
  <course>185.82</course>
  <speed>0.11401754250991379</speed>
  <fix>3d</fix>
</trkpt>
<trkpt lat="33.810313" lon="-118.3938667">
  <ele>-0.12</ele>
  <time>2026-09-01T01:12:17Z</time>
  <course>94.99</course>
  <speed>0.0</speed>
  <fix>3d</fix>
</trkpt>
<trkpt lat="33.8103141" lon="-118.3938678">
  <ele>-0.162</ele>
  <time>2026-09-01T01:12:17Z</time>
  <course>185.82</course>
  <speed>0.11401754250991379</speed>
  <fix>3d</fix>
</trkpt>
<trkpt lat="33.810313" lon="-118.3938667">
  <ele>-0.14</ele>
  <time>2026-09-01T01:12:17Z</time>
  <course>94.99</course>
  <speed>0.0</speed>
  <fix>3d</fix>
</trkpt>
<trkpt lat="33.8103143" lon="-118.3938679">
  <ele>-0.167</ele>
  <time>2026-09-01T01:12:17Z</time>
  <course>185.82</course>
  <speed>0.11401754250991379</speed>
  <fix>3d</fix>
</trkpt>
<trkpt lat="33.810313" lon="-118.3938667">
  <ele>-0.14</ele>
  <time>2026-09-01T01:12:17Z</time>
  <course>94.99</course>
  <speed>0.0</speed>
  <fix>3d</fix>
</trkpt>
<trkpt lat="33.8103143" lon="-118.393868">
  <ele>-0.171</ele>
  <time>2026-09-01T01:12:17Z</time>
  <course>185.82</course>
  <speed>0.12206555615733702</speed>
  <fix>3d</fix>
</trkpt>
<trkpt lat="33.810313" lon="-118.3938667">
  <ele>-0.15</ele>
  <time>2026-09-01T01:12:17Z</time>
  <course>94.99</course>
  <speed>0.0</speed>
  <fix>3d</fix>
</trkpt>
<trkpt lat="33.8103144" lon="-118.393868">
  <ele>-0.174</ele>
  <time>2026-09-01T01:12:17Z</time>
  <course>185.82</course>
  <speed>0.12806248474865697</speed>
  <fix>3d</fix>
</trkpt>
<trkpt lat="33.810313" lon="-118.3938667">
  <ele>-0.15</ele>
  <time>2026-09-01T01:12:17Z</time>
  <course>94.99</course>
  <speed>0.0</speed>
  <fix>3d</fix>
</trkpt>
<trkpt lat="33.8103144" lon="-118.3938681">
  <ele>-0.177</ele>
  <time>2026-09-01T01:12:17Z</time>
  <course>185.82</course>
  <speed>0.12806248474865697</speed>
  <fix>3d</fix>
</trkpt>
<trkpt lat="33.810313" lon="-118.3938667">
  <ele>-0.15</ele>
  <time>2026-09-01T01:12:17Z</time>
  <course>94.99</course>
  <speed>0.0</speed>
  <fix>3d</fix>
</trkpt>
<trkpt lat="33.8103145" lon="-118.3938682">
  <ele>-0.18</ele>
  <time>2026-09-01T01:12:17Z</time>
  <course>185.82</course>
  <speed>0.12806248474865697</speed>
  <fix>3d</fix>
</trkpt>
<trkpt lat="33.810313" lon="-118.3938667">
  <ele>-0.15</ele>
  <time>2026-09-01T01:12:17Z</time>
  <course>94.99</course>
  <speed>0.0</speed>
  <fix>3d</fix>
</trkpt>
<trkpt lat="33.8103146" lon="-118.3938682">
  <ele>-0.182</ele>
  <time>2026-09-01T01:12:17Z</time>
  <course>185.82</course>
  <speed>0.12806248474865697</speed>
  <fix>3d</fix>
</trkpt>
<trkpt lat="33.810313" lon="-118.3938667">
  <ele>-0.16</ele>
  <time>2026-09-01T01:12:17Z</time>
  <course>94.99</course>
  <speed>0.0</speed>
  <fix>3d</fix>
</trkpt>
<trkpt lat="33.8103147" lon="-118.3938683">
  <ele>-0.184</ele>
  <time>2026-09-01T01:12:17Z</time>
  <course>185.82</course>
  <speed>0.13601470508735444</speed>
  <fix>3d</fix>
</trkpt>
<trkpt lat="33.810313" lon="-118.3938667">
  <ele>-0.16</ele>
  <time>2026-09-01T01:12:17Z</time>
  <course>94.99</course>
  <speed>0.0</speed>
  <fix>3d</fix>
</trkpt>
<trkpt lat="33.8103148" lon="-118.3938684">
  <ele>-0.184</ele>
  <time>2026-09-01T01:12:17Z</time>
  <course>185.82</course>
  <speed>0.14212670403551894</speed>
  <fix>3d</fix>
</trkpt>
<trkpt lat="33.810313" lon="-118.3938667">
  <ele>-0.16</ele>
  <time>2026-09-01T01:12:17Z</time>
  <course>94.99</course>
  <speed>0.0</speed>
  <fix>3d</fix>
</trkpt>
<trkpt lat="33.8103149" lon="-118.3938686">
  <ele>-0.182</ele>
  <time>2026-09-01T01:12:17Z</time>
  <course>185.82</course>
  <speed>0.14212670403551894</speed>
  <fix>3d</fix>
</trkpt>
<trkpt lat="33.810313" lon="-118.3938667">
  <ele>-0.16</ele>
  <time>2026-09-01T01:12:17Z</time>
  <course>94.99</course>
  <speed>0.0</speed>
  <fix>3d</fix>
</trkpt>
<trkpt lat="33.8103151" lon="-118.3938687">
  <ele>-0.18</ele>
  <time>2026-09-01T01:12:17Z</time>
  <course>185.82</course>
  <speed>0.15</speed>
  <fix>3d</fix>
</trkpt>
<trkpt lat="33.810313" lon="-118.3938667">
  <ele>-0.16</ele>
  <time>2026-09-01T01:12:17Z</time>
  <course>94.99</course>
  <speed>0.0</speed>
  <fix>3d</fix>
</trkpt>
<trkpt lat="33.8103152" lon="-118.3938688">
  <ele>-0.176</ele>
  <time>2026-09-01T01:12:17Z</time>
  <course>185.82</course>
  <speed>0.15</speed>
  <fix>3d</fix>
</trkpt>
<trkpt lat="33.810313" lon="-118.3938667">
  <ele>-0.16</ele>
  <time>2026-09-01T01:12:17Z</time>
  <course>94.99</course>
  <speed>0.0</speed>
  <fix>3d</fix>
</trkpt>
<trkpt lat="33.8103153" lon="-118.3938689">
  <ele>-0.171</ele>
  <time>2026-09-01T01:12:17Z</time>
  <course>185.81</course>
  <speed>0.16401219466856726</speed>
  <fix>3d</fix>
</trkpt>
<trkpt lat="33.810313" lon="-118.3938667">
  <ele>-0.16</ele>
  <time>2026-09-01T01:12:17Z</time>
  <course>94.99</course>
  <speed>0.0</speed>
  <fix>3d</fix>
</trkpt>
<trkpt lat="33.8103153" lon="-118.3938689">
  <ele>-0.165</ele>
  <time>2026-09-01T01:12:17Z</time>
  <course>185.81</course>
  <speed>0.16401219466856726</speed>
  <fix>3d</fix>
</trkpt>
<trkpt lat="33.810313" lon="-118.3938667">
  <ele>-0.16</ele>
  <time>2026-09-01T01:12:17Z</time>
  <course>94.99</course>
  <speed>0.0</speed>
  <fix>3d</fix>
</trkpt>
<trkpt lat="33.8103154" lon="-118.393869">
  <ele>-0.159</ele>
  <time>2026-09-01T01:12:17Z</time>
  <course>185.81</course>
  <speed>0.15620499351813308</speed>
  <fix>3d</fix>
</trkpt>
<trkpt lat="33.810313" lon="-118.3938667">
  <ele>-0.15</ele>
  <time>2026-09-01T01:12:17Z</time>
  <course>94.99</course>
  <speed>0.0</speed>
  <fix>3d</fix>
</trkpt>
<trkpt lat="33.8103154" lon="-118.393869">
  <ele>-0.154</ele>
  <time>2026-09-01T01:12:17Z</time>
  <course>185.81</course>
  <speed>0.16401219466856726</speed>
  <fix>3d</fix>
</trkpt>
<trkpt lat="33.810313" lon="-118.3938667">
  <ele>-0.15</ele>
  <time>2026-09-01T01:12:17Z</time>
  <course>94.99</course>
  <speed>0.0</speed>
  <fix>3d</fix>
</trkpt>
<trkpt lat="33.8103155" lon="-118.3938691">
  <ele>-0.149</ele>
  <time>2026-09-01T01:12:17Z</time>
  <course>185.81</course>
  <speed>0.16401219466856726</speed>
  <fix>3d</fix>
</trkpt>
<trkpt lat="33.810313" lon="-118.3938667">
  <ele>-0.15</ele>
  <time>2026-09-01T01:12:17Z</time>
  <course>94.99</course>
  <speed>0.0</speed>
  <fix>3d</fix>
</trkpt>
<trkpt lat="33.8103156" lon="-118.3938692">
  <ele>-0.144</ele>
  <time>2026-09-01T01:12:17Z</time>
  <course>185.81</course>
  <speed>0.16401219466856726</speed>
  <fix>3d</fix>
</trkpt>
<trkpt lat="33.810313" lon="-118.3938667">
  <ele>-0.15</ele>
  <time>2026-09-01T01:12:17Z</time>
  <course>94.99</course>
  <speed>0.0</speed>
  <fix>3d</fix>
</trkpt>
<trkpt lat="33.8103157" lon="-118.3938693">
  <ele>-0.138</ele>
  <time>2026-09-01T01:12:17Z</time>
  <course>185.81</course>
  <speed>0.16401219466856726</speed>
  <fix>3d</fix>
</trkpt>
<trkpt lat="33.810313" lon="-118.3938667">
  <ele>-0.14</ele>
  <time>2026-09-01T01:12:17Z</time>
  <course>94.99</course>
  <speed>0.0</speed>
  <fix>3d</fix>
</trkpt>
<trkpt lat="33.8103158" lon="-118.3938694">
  <ele>-0.132</ele>
  <time>2026-09-01T01:12:17Z</time>
  <course>185.81</course>
  <speed>0.17804493814764857</speed>
  <fix>3d</fix>
</trkpt>
<trkpt lat="33.810313" lon="-118.3938667">
  <ele>-0.14</ele>
  <time>2026-09-01T01:12:17Z</time>
  <course>94.99</course>
  <speed>0.0</speed>
  <fix>3d</fix>
</trkpt>
<trkpt lat="33.8103159" lon="-118.3938695">
  <ele>-0.126</ele>
  <time>2026-09-01T01:12:17Z</time>
  <course>185.81</course>
  <speed>0.17804493814764857</speed>
  <fix>3d</fix>
</trkpt>
<trkpt lat="33.810313" lon="-118.3938667">
  <ele>-0.13</ele>
  <time>2026-09-01T01:12:17Z</time>
  <course>94.99</course>
  <speed>0.0</speed>
  <fix>3d</fix>
</trkpt>
<trkpt lat="33.810316" lon="-118.3938696">
  <ele>-0.12</ele>
  <time>2026-09-01T01:12:17Z</time>
  <course>185.81</course>
  <speed>0.17804493814764857</speed>
  <fix>3d</fix>
</trkpt>
<trkpt lat="33.810313" lon="-118.3938667">
  <ele>-0.13</ele>
  <time>2026-09-01T01:12:17Z</time>
  <course>94.99</course>
  <speed>0.0</speed>
  <fix>3d</fix>
</trkpt>
<trkpt lat="33.8103162" lon="-118.3938697">
  <ele>-0.116</ele>
  <time>2026-09-01T01:12:17Z</time>
  <course>185.81</course>
  <speed>0.18601075237738274</speed>
  <fix>3d</fix>
</trkpt>
<trkpt lat="33.810313" lon="-118.3938667">
  <ele>-0.11</ele>
  <time>2026-09-01T01:12:17Z</time>
  <course>94.99</course>
  <speed>0.0</speed>
  <fix>3d</fix>
</trkpt>
<trkpt lat="33.8103162" lon="-118.3938697">
  <ele>-0.115</ele>
  <time>2026-09-01T01:12:17Z</time>
  <course>185.8</course>
  <speed>0.18601075237738274</speed>
  <fix>3d</fix>
</trkpt>
<trkpt lat="33.810313" lon="-118.3938667">
  <ele>-0.11</ele>
  <time>2026-09-01T01:12:17Z</time>
  <course>94.99</course>
  <speed>0.0</speed>
  <fix>3d</fix>
</trkpt>
<trkpt lat="33.8103161" lon="-118.3938697">
  <ele>-0.117</ele>
  <time>2026-09-01T01:12:17Z</time>
  <course>185.8</course>
  <speed>0.17804493814764857</speed>
  <fix>3d</fix>
</trkpt>
<trkpt lat="33.810313" lon="-118.3938667">
  <ele>-0.11</ele>
  <time>2026-09-01T01:12:17Z</time>
  <course>94.99</course>
  <speed>0.0</speed>
  <fix>3d</fix>
</trkpt>
<trkpt lat="33.8103162" lon="-118.3938697">
  <ele>-0.121</ele>
  <time>2026-09-01T01:12:17Z</time>
  <course>185.8</course>
  <speed>0.17804493814764857</speed>
  <fix>3d</fix>
</trkpt>
<trkpt lat="33.810313" lon="-118.3938667">
  <ele>-0.11</ele>
  <time>2026-09-01T01:12:17Z</time>
  <course>94.99</course>
  <speed>0.0</speed>
  <fix>3d</fix>
</trkpt>
<trkpt lat="33.8103162" lon="-118.3938698">
  <ele>-0.125</ele>
  <time>2026-09-01T01:12:17Z</time>
  <course>185.8</course>
  <speed>0.17804493814764857</speed>
  <fix>3d</fix>
</trkpt>
<trkpt lat="33.810313" lon="-118.3938667">
  <ele>-0.11</ele>
  <time>2026-09-01T01:12:17Z</time>
  <course>94.99</course>
  <speed>0.0</speed>
  <fix>3d</fix>
</trkpt>
<trkpt lat="33.8103163" lon="-118.3938698">
  <ele>-0.13</ele>
  <time>2026-09-01T01:12:17Z</time>
  <course>185.8</course>
  <speed>0.18601075237738274</speed>
  <fix>3d</fix>
</trkpt>
<trkpt lat="33.810313" lon="-118.3938667">
  <ele>-0.11</ele>
  <time>2026-09-01T01:12:17Z</time>
  <course>94.99</course>
  <speed>0.0</speed>
  <fix>3d</fix>
</trkpt>
<trkpt lat="33.8103164" lon="-118.3938699">
  <ele>-0.134</ele>
  <time>2026-09-01T01:12:17Z</time>
  <course>185.8</course>
  <speed>0.19209372712298545</speed>
  <fix>3d</fix>
</trkpt>
<trkpt lat="33.810313" lon="-118.3938667">
  <ele>-0.12</ele>
  <time>2026-09-01T01:12:17Z</time>
  <course>94.99</course>
  <speed>0.0</speed>
  <fix>3d</fix>
</trkpt>
<trkpt lat="33.8103165" lon="-118.39387">
  <ele>-0.137</ele>
  <time>2026-09-01T01:12:17Z</time>
  <course>185.8</course>
  <speed>0.19209372712298545</speed>
  <fix>3d</fix>
</trkpt>
<trkpt lat="33.810313" lon="-118.3938667">
  <ele>-0.12</ele>
  <time>2026-09-01T01:12:17Z</time>
  <course>94.99</course>
  <speed>0.0</speed>
  <fix>3d</fix>
</trkpt>
<trkpt lat="33.8103166" lon="-118.3938702">
  <ele>-0.141</ele>
  <time>2026-09-01T01:12:17Z</time>
  <course>185.8</course>
  <speed>0.19209372712298545</speed>
  <fix>3d</fix>
</trkpt>
<trkpt lat="33.810313" lon="-118.3938667">
  <ele>-0.13</ele>
  <time>2026-09-01T01:12:17Z</time>
  <course>94.99</course>
  <speed>0.0</speed>
  <fix>3d</fix>
</trkpt>
<trkpt lat="33.8103168" lon="-118.3938703">
  <ele>-0.145</ele>
  <time>2026-09-01T01:12:17Z</time>
  <course>185.8</course>
  <speed>0.2</speed>
  <fix>3d</fix>
</trkpt>
<trkpt lat="33.810313" lon="-118.3938667">
  <ele>-0.13</ele>
  <time>2026-09-01T01:12:17Z</time>
  <course>94.99</course>
  <speed>0.0</speed>
  <fix>3d</fix>
</trkpt>
<trkpt lat="33.8103169" lon="-118.3938704">
  <ele>-0.149</ele>
  <time>2026-09-01T01:12:17Z</time>
  <course>185.8</course>
  <speed>0.20615528128088303</speed>
  <fix>3d</fix>
</trkpt>
<trkpt lat="33.810313" lon="-118.3938667">
  <ele>-0.14</ele>
  <time>2026-09-01T01:12:17Z</time>
  <course>94.99</course>
  <speed>0.0</speed>
  <fix>3d</fix>
</trkpt>
<trkpt lat="33.8103169" lon="-118.3938704">
  <ele>-0.15</ele>
  <time>2026-09-01T01:12:17Z</time>
  <course>185.8</course>
  <speed>0.20615528128088303</speed>
  <fix>3d</fix>
</trkpt>
<trkpt lat="33.810313" lon="-118.3938667">
  <ele>-0.14</ele>
  <time>2026-09-01T01:12:17Z</time>
  <course>94.99</course>
  <speed>0.0</speed>
  <fix>3d</fix>
</trkpt>
<trkpt lat="33.8103168" lon="-118.3938703">
  <ele>-0.151</ele>
  <time>2026-09-01T01:12:17Z</time>
  <course>185.79</course>
  <speed>0.2</speed>
  <fix>3d</fix>
</trkpt>
<trkpt lat="33.810313" lon="-118.3938667">
  <ele>-0.14</ele>
  <time>2026-09-01T01:12:17Z</time>
  <course>94.99</course>
  <speed>0.0</speed>
  <fix>3d</fix>
</trkpt>
<trkpt lat="33.8103168" lon="-118.3938703">
  <ele>-0.15</ele>
  <time>2026-09-01T01:12:17Z</time>
  <course>185.79</course>
  <speed>0.2</speed>
  <fix>3d</fix>
</trkpt>
<trkpt lat="33.810313" lon="-118.3938667">
  <ele>-0.14</ele>
  <time>2026-09-01T01:12:17Z</time>
  <course>94.99</course>
  <speed>0.0</speed>
  <fix>3d</fix>
</trkpt>
<trkpt lat="33.8103168" lon="-118.3938703">
  <ele>-0.148</ele>
  <time>2026-09-01T01:12:17Z</time>
  <course>185.79</course>
  <speed>0.2</speed>
  <fix>3d</fix>
</trkpt>
<trkpt lat="33.810313" lon="-118.3938667">
  <ele>-0.14</ele>
  <time>2026-09-01T01:12:17Z</time>
  <course>94.99</course>
  <speed>0.0</speed>
  <fix>3d</fix>
</trkpt>
<trkpt lat="33.8103168" lon="-118.3938704">
  <ele>-0.144</ele>
  <time>2026-09-01T01:12:17Z</time>
  <course>185.79</course>
  <speed>0.2</speed>
  <fix>3d</fix>
</trkpt>
<trkpt lat="33.810313" lon="-118.3938667">
  <ele>-0.14</ele>
  <time>2026-09-01T01:12:17Z</time>
  <course>94.99</course>
  <speed>0.0</speed>
  <fix>3d</fix>
</trkpt>
<trkpt lat="33.8103169" lon="-118.3938705">
  <ele>-0.14</ele>
  <time>2026-09-01T01:12:17Z</time>
  <course>185.79</course>
  <speed>0.2</speed>
  <fix>3d</fix>
</trkpt>
<trkpt lat="33.810313" lon="-118.3938667">
  <ele>-0.14</ele>
  <time>2026-09-01T01:12:17Z</time>
  <course>94.99</course>
  <speed>0.0</speed>
  <fix>3d</fix>
</trkpt>
<trkpt lat="33.8103171" lon="-118.3938706">
  <ele>-0.137</ele>
  <time>2026-09-01T01:12:17Z</time>
  <course>185.79</course>
  <speed>0.20615528128088303</speed>
  <fix>3d</fix>
</trkpt>
<trkpt lat="33.810313" lon="-118.3938667">
  <ele>-0.14</ele>
  <time>2026-09-01T01:12:17Z</time>
  <course>94.99</course>
  <speed>0.0</speed>
  <fix>3d</fix>
</trkpt>
<trkpt lat="33.8103172" lon="-118.3938707">
  <ele>-0.134</ele>
  <time>2026-09-01T01:12:17Z</time>
  <course>185.79</course>
  <speed>0.21400934559032694</speed>
  <fix>3d</fix>
</trkpt>
<trkpt lat="33.810313" lon="-118.3938666">
  <ele>-0.14</ele>
  <time>2026-09-01T01:12:17Z</time>
  <course>94.99</course>
  <speed>0.0</speed>
  <fix>3d</fix>
</trkpt>
<trkpt lat="33.8103173" lon="-118.3938708">
  <ele>-0.131</ele>
  <time>2026-09-01T01:12:17Z</time>
  <course>185.79</course>
  <speed>0.21400934559032694</speed>
  <fix>3d</fix>
</trkpt>
<trkpt lat="33.810313" lon="-118.3938666">
  <ele>-0.14</ele>
  <time>2026-09-01T01:12:17Z</time>
  <course>94.99</course>
  <speed>0.0</speed>
  <fix>3d</fix>
</trkpt>
<trkpt lat="33.8103175" lon="-118.393871">
  <ele>-0.127</ele>
  <time>2026-09-01T01:12:17Z</time>
  <course>185.79</course>
  <speed>0.22022715545545238</speed>
  <fix>3d</fix>
</trkpt>
<trkpt lat="33.810313" lon="-118.3938666">
  <ele>-0.13</ele>
  <time>2026-09-01T01:12:17Z</time>
  <course>94.99</course>
  <speed>0.0</speed>
  <fix>3d</fix>
</trkpt>
<trkpt lat="33.8103174" lon="-118.3938709">
  <ele>-0.123</ele>
  <time>2026-09-01T01:12:17Z</time>
  <course>185.79</course>
  <speed>0.21400934559032694</speed>
  <fix>3d</fix>
</trkpt>
<trkpt lat="33.810313" lon="-118.3938666">
  <ele>-0.13</ele>
  <time>2026-09-01T01:12:17Z</time>
  <course>94.99</course>
  <speed>0.0</speed>
  <fix>3d</fix>
</trkpt>
<trkpt lat="33.8103172" lon="-118.3938707">
  <ele>-0.12</ele>
  <time>2026-09-01T01:12:17Z</time>
  <course>185.79</course>
  <speed>0.21400934559032694</speed>
  <fix>3d</fix>
</trkpt>
<trkpt lat="33.810313" lon="-118.3938666">
  <ele>-0.12</ele>
  <time>2026-09-01T01:12:17Z</time>
  <course>94.99</course>
  <speed>0.0</speed>
  <fix>3d</fix>
</trkpt>
<trkpt lat="33.8103172" lon="-118.3938707">
  <ele>-0.119</ele>
  <time>2026-09-01T01:12:17Z</time>
  <course>185.79</course>
  <speed>0.20615528128088303</speed>
  <fix>3d</fix>
</trkpt>
<trkpt lat="33.810313" lon="-118.3938666">
  <ele>-0.12</ele>
  <time>2026-09-01T01:12:17Z</time>
  <course>94.99</course>
  <speed>0.0</speed>
  <fix>3d</fix>
</trkpt>
<trkpt lat="33.8103172" lon="-118.3938707">
  <ele>-0.121</ele>
  <time>2026-09-01T01:12:17Z</time>
  <course>185.78</course>
  <speed>0.20615528128088303</speed>
  <fix>3d</fix>
</trkpt>
<trkpt lat="33.810313" lon="-118.3938666">
  <ele>-0.11</ele>
  <time>2026-09-01T01:12:17Z</time>
  <course>94.99</course>
  <speed>0.0</speed>
  <fix>3d</fix>
</trkpt>
<trkpt lat="33.8103172" lon="-118.3938707">
  <ele>-0.125</ele>
  <time>2026-09-01T01:12:17Z</time>
  <course>185.78</course>
  <speed>0.20615528128088303</speed>
  <fix>3d</fix>
</trkpt>
<trkpt lat="33.810313" lon="-118.3938666">
  <ele>-0.11</ele>
  <time>2026-09-01T01:12:17Z</time>
  <course>94.99</course>
  <speed>0.0</speed>
  <fix>3d</fix>
</trkpt>
<trkpt lat="33.8103173" lon="-118.3938708">
  <ele>-0.131</ele>
  <time>2026-09-01T01:12:17Z</time>
  <course>185.78</course>
  <speed>0.20615528128088303</speed>
  <fix>3d</fix>
</trkpt>
<trkpt lat="33.810313" lon="-118.3938666">
  <ele>-0.11</ele>
  <time>2026-09-01T01:12:17Z</time>
  <course>94.99</course>
  <speed>0.0</speed>
  <fix>3d</fix>
</trkpt>
<trkpt lat="33.8103174" lon="-118.3938709">
  <ele>-0.136</ele>
  <time>2026-09-01T01:12:17Z</time>
  <course>185.78</course>
  <speed>0.21400934559032694</speed>
  <fix>3d</fix>
</trkpt>
<trkpt lat="33.810313" lon="-118.3938666">
  <ele>-0.11</ele>
  <time>2026-09-01T01:12:17Z</time>
  <course>94.99</course>
  <speed>0.0</speed>
  <fix>3d</fix>
</trkpt>
<trkpt lat="33.8103175" lon="-118.393871">
  <ele>-0.14</ele>
  <time>2026-09-01T01:12:17Z</time>
  <course>185.78</course>
  <speed>0.21400934559032694</speed>
  <fix>3d</fix>
</trkpt>
<trkpt lat="33.810313" lon="-118.3938666">
  <ele>-0.12</ele>
  <time>2026-09-01T01:12:17Z</time>
  <course>94.99</course>
  <speed>0.0</speed>
  <fix>3d</fix>
</trkpt>
<trkpt lat="33.8103177" lon="-118.3938712">
  <ele>-0.143</ele>
  <time>2026-09-01T01:12:17Z</time>
  <course>185.78</course>
  <speed>0.22022715545545238</speed>
  <fix>3d</fix>
</trkpt>
<trkpt lat="33.810313" lon="-118.3938666">
  <ele>-0.12</ele>
  <time>2026-09-01T01:12:17Z</time>
  <course>94.99</course>
  <speed>0.0</speed>
  <fix>3d</fix>
</trkpt>
<trkpt lat="33.8103178" lon="-118.3938713">
  <ele>-0.146</ele>
  <time>2026-09-01T01:12:17Z</time>
  <course>185.78</course>
  <speed>0.22803508501982758</speed>
  <fix>3d</fix>
</trkpt>
<trkpt lat="33.810313" lon="-118.3938666">
  <ele>-0.13</ele>
  <time>2026-09-01T01:12:17Z</time>
  <course>94.99</course>
  <speed>0.0</speed>
  <fix>3d</fix>
</trkpt>
<trkpt lat="33.810318" lon="-118.3938715">
  <ele>-0.148</ele>
  <time>2026-09-01T01:12:17Z</time>
  <course>185.78</course>
  <speed>0.22803508501982758</speed>
  <fix>3d</fix>
</trkpt>
<trkpt lat="33.810313" lon="-118.3938666">
  <ele>-0.13</ele>
  <time>2026-09-01T01:12:17Z</time>
  <course>94.99</course>
  <speed>0.0</speed>
  <fix>3d</fix>
</trkpt>
<trkpt lat="33.8103179" lon="-118.3938713">
  <ele>-0.15</ele>
  <time>2026-09-01T01:12:17Z</time>
  <course>185.78</course>
  <speed>0.22803508501982758</speed>
  <fix>3d</fix>
</trkpt>
<trkpt lat="33.810313" lon="-118.3938666">
  <ele>-0.13</ele>
  <time>2026-09-01T01:12:17Z</time>
  <course>94.99</course>
  <speed>0.0</speed>
  <fix>3d</fix>
</trkpt>
<trkpt lat="33.8103176" lon="-118.3938711">
  <ele>-0.151</ele>
  <time>2026-09-01T01:12:17Z</time>
  <course>185.78</course>
  <speed>0.21400934559032694</speed>
  <fix>3d</fix>
</trkpt>
<trkpt lat="33.810313" lon="-118.3938666">
  <ele>-0.13</ele>
  <time>2026-09-01T01:12:17Z</time>
  <course>94.99</course>
  <speed>0.0</speed>
  <fix>3d</fix>
</trkpt>
<trkpt lat="33.8103175" lon="-118.393871">
  <ele>-0.152</ele>
  <time>2026-09-01T01:12:17Z</time>
  <course>185.78</course>
  <speed>0.21400934559032694</speed>
  <fix>3d</fix>
</trkpt>
<trkpt lat="33.810313" lon="-118.3938666">
  <ele>-0.14</ele>
  <time>2026-09-01T01:12:17Z</time>
  <course>94.99</course>
  <speed>0.0</speed>
  <fix>3d</fix>
</trkpt>
<trkpt lat="33.8103175" lon="-118.393871">
  <ele>-0.151</ele>
  <time>2026-09-01T01:12:17Z</time>
  <course>185.78</course>
  <speed>0.21400934559032694</speed>
  <fix>3d</fix>
</trkpt>
<trkpt lat="33.810313" lon="-118.3938666">
  <ele>-0.14</ele>
  <time>2026-09-01T01:12:17Z</time>
  <course>94.99</course>
  <speed>0.0</speed>
  <fix>3d</fix>
</trkpt>
<trkpt lat="33.8103175" lon="-118.393871">
  <ele>-0.149</ele>
  <time>2026-09-01T01:12:17Z</time>
  <course>185.78</course>
  <speed>0.21400934559032694</speed>
  <fix>3d</fix>
</trkpt>
<trkpt lat="33.810313" lon="-118.3938666">
  <ele>-0.14</ele>
  <time>2026-09-01T01:12:17Z</time>
  <course>94.99</course>
  <speed>0.0</speed>
  <fix>3d</fix>
</trkpt>
<trkpt lat="33.8103176" lon="-118.3938711">
  <ele>-0.145</ele>
  <time>2026-09-01T01:12:17Z</time>
  <course>185.77</course>
  <speed>0.21400934559032694</speed>
  <fix>3d</fix>
</trkpt>
<trkpt lat="33.810313" lon="-118.3938666">
  <ele>-0.14</ele>
  <time>2026-09-01T01:12:17Z</time>
  <course>94.99</course>
  <speed>0.0</speed>
  <fix>3d</fix>
</trkpt>
<trkpt lat="33.8103177" lon="-118.3938712">
  <ele>-0.141</ele>
  <time>2026-09-01T01:12:17Z</time>
  <course>185.77</course>
  <speed>0.22022715545545238</speed>
  <fix>3d</fix>
</trkpt>
<trkpt lat="33.810313" lon="-118.3938666">
  <ele>-0.13</ele>
  <time>2026-09-01T01:12:17Z</time>
  <course>94.99</course>
  <speed>0.0</speed>
  <fix>3d</fix>
</trkpt>
<trkpt lat="33.8103178" lon="-118.3938713">
  <ele>-0.137</ele>
  <time>2026-09-01T01:12:17Z</time>
  <course>185.77</course>
  <speed>0.22803508501982758</speed>
  <fix>3d</fix>
</trkpt>
<trkpt lat="33.810313" lon="-118.3938666">
  <ele>-0.13</ele>
  <time>2026-09-01T01:12:17Z</time>
  <course>94.99</course>
  <speed>0.0</speed>
  <fix>3d</fix>
</trkpt>
<trkpt lat="33.810318" lon="-118.3938714">
  <ele>-0.133</ele>
  <time>2026-09-01T01:12:17Z</time>
  <course>185.77</course>
  <speed>0.22803508501982758</speed>
  <fix>3d</fix>
</trkpt>
<trkpt lat="33.810313" lon="-118.3938666">
  <ele>-0.13</ele>
  <time>2026-09-01T01:12:17Z</time>
  <course>94.99</course>
  <speed>0.0</speed>
  <fix>3d</fix>
</trkpt>
<trkpt lat="33.8103181" lon="-118.3938716">
  <ele>-0.13</ele>
  <time>2026-09-01T01:12:17Z</time>
  <course>185.77</course>
  <speed>0.22803508501982758</speed>
  <fix>3d</fix>
</trkpt>
<trkpt lat="33.810313" lon="-118.3938666">
  <ele>-0.13</ele>
  <time>2026-09-01T01:12:17Z</time>
  <course>94.99</course>
  <speed>0.0</speed>
  <fix>3d</fix>
</trkpt>
<trkpt lat="33.8103183" lon="-118.3938717">
  <ele>-0.126</ele>
  <time>2026-09-01T01:12:17Z</time>
  <course>185.77</course>
  <speed>0.2420743687382041</speed>
  <fix>3d</fix>
</trkpt>
<trkpt lat="33.810313" lon="-118.3938666">
  <ele>-0.12</ele>
  <time>2026-09-01T01:12:17Z</time>
  <course>94.99</course>
  <speed>0.0</speed>
  <fix>3d</fix>
</trkpt>
<trkpt lat="33.8103181" lon="-118.3938716">
  <ele>-0.124</ele>
  <time>2026-09-01T01:12:17Z</time>
  <course>185.77</course>
  <speed>0.22803508501982758</speed>
  <fix>3d</fix>
</trkpt>
<trkpt lat="33.810313" lon="-118.3938666">
  <ele>-0.12</ele>
  <time>2026-09-01T01:12:17Z</time>
  <course>94.99</course>
  <speed>0.0</speed>
  <fix>3d</fix>
</trkpt>
<trkpt lat="33.8103178" lon="-118.3938713">
  <ele>-0.124</ele>
  <time>2026-09-01T01:12:17Z</time>
  <course>185.77</course>
  <speed>0.22022715545545238</speed>
  <fix>3d</fix>
</trkpt>
<trkpt lat="33.810313" lon="-118.3938666">
  <ele>-0.11</ele>
  <time>2026-09-01T01:12:17Z</time>
  <course>94.99</course>
  <speed>0.0</speed>
  <fix>3d</fix>
</trkpt>
<trkpt lat="33.8103176" lon="-118.3938711">
  <ele>-0.126</ele>
  <time>2026-09-01T01:12:17Z</time>
  <course>185.77</course>
  <speed>0.21400934559032694</speed>
  <fix>3d</fix>
</trkpt>
<trkpt lat="33.810313" lon="-118.3938666">
  <ele>-0.11</ele>
  <time>2026-09-01T01:12:17Z</time>
  <course>94.99</course>
  <speed>0.0</speed>
  <fix>3d</fix>
</trkpt>
<trkpt lat="33.8103176" lon="-118.3938711">
  <ele>-0.129</ele>
  <time>2026-09-01T01:12:17Z</time>
  <course>185.77</course>
  <speed>0.21400934559032694</speed>
  <fix>3d</fix>
</trkpt>
<trkpt lat="33.810313" lon="-118.3938666">
  <ele>-0.11</ele>
  <time>2026-09-01T01:12:17Z</time>
  <course>94.99</course>
  <speed>0.0</speed>
  <fix>3d</fix>
</trkpt>
<trkpt lat="33.8103176" lon="-118.3938711">
  <ele>-0.131</ele>
  <time>2026-09-01T01:12:17Z</time>
  <course>185.77</course>
  <speed>0.21400934559032694</speed>
  <fix>3d</fix>
</trkpt>
<trkpt lat="33.810313" lon="-118.3938666">
  <ele>-0.11</ele>
  <time>2026-09-01T01:12:17Z</time>
  <course>94.99</course>
  <speed>0.0</speed>
  <fix>3d</fix>
</trkpt>
<trkpt lat="33.8103177" lon="-118.3938711">
  <ele>-0.135</ele>
  <time>2026-09-01T01:12:17Z</time>
  <course>185.77</course>
  <speed>0.21400934559032694</speed>
  <fix>3d</fix>
</trkpt>
<trkpt lat="33.810313" lon="-118.3938666">
  <ele>-0.12</ele>
  <time>2026-09-01T01:12:17Z</time>
  <course>94.99</course>
  <speed>0.0</speed>
  <fix>3d</fix>
</trkpt>
<trkpt lat="33.8103177" lon="-118.3938712">
  <ele>-0.137</ele>
  <time>2026-09-01T01:12:17Z</time>
  <course>185.77</course>
  <speed>0.22022715545545238</speed>
  <fix>3d</fix>
</trkpt>
<trkpt lat="33.810313" lon="-118.3938666">
  <ele>-0.12</ele>
  <time>2026-09-01T01:12:17Z</time>
  <course>94.99</course>
  <speed>0.0</speed>
  <fix>3d</fix>
</trkpt>
<trkpt lat="33.8103179" lon="-118.3938713">
  <ele>-0.14</ele>
  <time>2026-09-01T01:12:17Z</time>
  <course>185.76</course>
  <speed>0.22803508501982758</speed>
  <fix>3d</fix>
</trkpt>
<trkpt lat="33.810313" lon="-118.3938666">
  <ele>-0.13</ele>
  <time>2026-09-01T01:12:17Z</time>
  <course>94.99</course>
  <speed>0.0</speed>
  <fix>3d</fix>
</trkpt>
<trkpt lat="33.810318" lon="-118.3938715">
  <ele>-0.142</ele>
  <time>2026-09-01T01:12:17Z</time>
  <course>185.76</course>
  <speed>0.22803508501982758</speed>
  <fix>3d</fix>
</trkpt>
<trkpt lat="33.810313" lon="-118.3938666">
  <ele>-0.13</ele>
  <time>2026-09-01T01:12:17Z</time>
  <course>94.99</course>
  <speed>0.0</speed>
  <fix>3d</fix>
</trkpt>
<trkpt lat="33.8103182" lon="-118.3938716">
  <ele>-0.144</ele>
  <time>2026-09-01T01:12:17Z</time>
  <course>185.76</course>
  <speed>0.22803508501982758</speed>
  <fix>3d</fix>
</trkpt>
<trkpt lat="33.810313" lon="-118.3938666">
  <ele>-0.13</ele>
  <time>2026-09-01T01:12:17Z</time>
  <course>94.99</course>
  <speed>0.0</speed>
  <fix>3d</fix>
</trkpt>
<trkpt lat="33.8103183" lon="-118.3938718">
  <ele>-0.145</ele>
  <time>2026-09-01T01:12:17Z</time>
  <course>185.76</course>
  <speed>0.2420743687382041</speed>
  <fix>3d</fix>
</trkpt>
<trkpt lat="33.810313" lon="-118.3938666">
  <ele>-0.13</ele>
  <time>2026-09-01T01:12:17Z</time>
  <course>94.99</course>
  <speed>0.0</speed>
  <fix>3d</fix>
</trkpt>
<trkpt lat="33.810318" lon="-118.3938715">
  <ele>-0.145</ele>
  <time>2026-09-01T01:12:17Z</time>
  <course>185.76</course>
  <speed>0.22803508501982758</speed>
  <fix>3d</fix>
</trkpt>
<trkpt lat="33.810313" lon="-118.3938666">
  <ele>-0.13</ele>
  <time>2026-09-01T01:12:17Z</time>
  <course>94.99</course>
  <speed>0.0</speed>
  <fix>3d</fix>
</trkpt>
<trkpt lat="33.8103177" lon="-118.3938712">
  <ele>-0.144</ele>
  <time>2026-09-01T01:12:17Z</time>
  <course>185.76</course>
  <speed>0.22022715545545238</speed>
  <fix>3d</fix>
</trkpt>
<trkpt lat="33.810313" lon="-118.3938666">
  <ele>-0.13</ele>
  <time>2026-09-01T01:12:17Z</time>
  <course>94.99</course>
  <speed>0.0</speed>
  <fix>3d</fix>
</trkpt>
<trkpt lat="33.8103176" lon="-118.393871">
  <ele>-0.141</ele>
  <time>2026-09-01T01:12:17Z</time>
  <course>185.76</course>
  <speed>0.21400934559032694</speed>
  <fix>3d</fix>
</trkpt>
<trkpt lat="33.810313" lon="-118.3938666">
  <ele>-0.13</ele>
  <time>2026-09-01T01:12:17Z</time>
  <course>94.99</course>
  <speed>0.0</speed>
  <fix>3d</fix>
</trkpt>
<trkpt lat="33.8103175" lon="-118.393871">
  <ele>-0.136</ele>
  <time>2026-09-01T01:12:17Z</time>
  <course>185.76</course>
  <speed>0.21400934559032694</speed>
  <fix>3d</fix>
</trkpt>
<trkpt lat="33.810313" lon="-118.3938666">
  <ele>-0.13</ele>
  <time>2026-09-01T01:12:17Z</time>
  <course>94.99</course>
  <speed>0.0</speed>
  <fix>3d</fix>
</trkpt>
<trkpt lat="33.8103175" lon="-118.393871">
  <ele>-0.132</ele>
  <time>2026-09-01T01:12:17Z</time>
  <course>185.76</course>
  <speed>0.21400934559032694</speed>
  <fix>3d</fix>
</trkpt>
<trkpt lat="33.810313" lon="-118.3938666">
  <ele>-0.12</ele>
  <time>2026-09-01T01:12:17Z</time>
  <course>94.99</course>
  <speed>0.0</speed>
  <fix>3d</fix>
</trkpt>
<trkpt lat="33.8103175" lon="-118.393871">
  <ele>-0.128</ele>
  <time>2026-09-01T01:12:17Z</time>
  <course>185.76</course>
  <speed>0.21400934559032694</speed>
  <fix>3d</fix>
</trkpt>
<trkpt lat="33.810313" lon="-118.3938666">
  <ele>-0.12</ele>
  <time>2026-09-01T01:12:17Z</time>
  <course>94.99</course>
  <speed>0.0</speed>
  <fix>3d</fix>
</trkpt>
<trkpt lat="33.8103176" lon="-118.3938711">
  <ele>-0.124</ele>
  <time>2026-09-01T01:12:17Z</time>
  <course>185.76</course>
  <speed>0.21400934559032694</speed>
  <fix>3d</fix>
</trkpt>
<trkpt lat="33.810313" lon="-118.3938666">
  <ele>-0.12</ele>
  <time>2026-09-01T01:12:17Z</time>
  <course>94.99</course>
  <speed>0.0</speed>
  <fix>3d</fix>
</trkpt>
<trkpt lat="33.8103177" lon="-118.3938712">
  <ele>-0.124</ele>
  <time>2026-09-01T01:12:17Z</time>
  <course>185.76</course>
  <speed>0.22022715545545238</speed>
  <fix>3d</fix>
</trkpt>
<trkpt lat="33.810313" lon="-118.3938666">
  <ele>-0.12</ele>
  <time>2026-09-01T01:12:17Z</time>
  <course>94.99</course>
  <speed>0.0</speed>
  <fix>3d</fix>
</trkpt>
<trkpt lat="33.8103179" lon="-118.3938714">
  <ele>-0.125</ele>
  <time>2026-09-01T01:12:17Z</time>
  <course>185.76</course>
  <speed>0.22803508501982758</speed>
  <fix>3d</fix>
</trkpt>
<trkpt lat="33.810313" lon="-118.3938666">
  <ele>-0.11</ele>
  <time>2026-09-01T01:12:17Z</time>
  <course>94.99</course>
  <speed>0.0</speed>
  <fix>3d</fix>
</trkpt>
<trkpt lat="33.810318" lon="-118.3938715">
  <ele>-0.128</ele>
  <time>2026-09-01T01:12:17Z</time>
  <course>185.75</course>
  <speed>0.22803508501982758</speed>
  <fix>3d</fix>
</trkpt>
<trkpt lat="33.810313" lon="-118.3938666">
  <ele>-0.11</ele>
  <time>2026-09-01T01:12:17Z</time>
  <course>94.99</course>
  <speed>0.0</speed>
  <fix>3d</fix>
</trkpt>
<trkpt lat="33.8103177" lon="-118.3938712">
  <ele>-0.131</ele>
  <time>2026-09-01T01:12:17Z</time>
  <course>185.75</course>
  <speed>0.22022715545545238</speed>
  <fix>3d</fix>
</trkpt>
<trkpt lat="33.810313" lon="-118.3938666">
  <ele>-0.11</ele>
  <time>2026-09-01T01:12:17Z</time>
  <course>94.99</course>
  <speed>0.0</speed>
  <fix>3d</fix>
</trkpt>
<trkpt lat="33.8103174" lon="-118.3938709">
  <ele>-0.133</ele>
  <time>2026-09-01T01:12:17Z</time>
  <course>185.75</course>
  <speed>0.21400934559032694</speed>
  <fix>3d</fix>
</trkpt>
<trkpt lat="33.810313" lon="-118.3938666">
  <ele>-0.11</ele>
  <time>2026-09-01T01:12:17Z</time>
  <course>94.99</course>
  <speed>0.0</speed>
  <fix>3d</fix>
</trkpt>
<trkpt lat="33.8103172" lon="-118.3938707">
  <ele>-0.134</ele>
  <time>2026-09-01T01:12:17Z</time>
  <course>185.75</course>
  <speed>0.20615528128088303</speed>
  <fix>3d</fix>
</trkpt>
<trkpt lat="33.810313" lon="-118.3938666">
  <ele>-0.12</ele>
  <time>2026-09-01T01:12:17Z</time>
  <course>94.99</course>
  <speed>0.0</speed>
  <fix>3d</fix>
</trkpt>
<trkpt lat="33.8103171" lon="-118.3938706">
  <ele>-0.133</ele>
  <time>2026-09-01T01:12:17Z</time>
  <course>185.75</course>
  <speed>0.20615528128088303</speed>
  <fix>3d</fix>
</trkpt>
<trkpt lat="33.810313" lon="-118.3938666">
  <ele>-0.12</ele>
  <time>2026-09-01T01:12:17Z</time>
  <course>94.99</course>
  <speed>0.0</speed>
  <fix>3d</fix>
</trkpt>
<trkpt lat="33.8103171" lon="-118.3938706">
  <ele>-0.133</ele>
  <time>2026-09-01T01:12:17Z</time>
  <course>185.75</course>
  <speed>0.20615528128088303</speed>
  <fix>3d</fix>
</trkpt>
<trkpt lat="33.810313" lon="-118.3938666">
  <ele>-0.13</ele>
  <time>2026-09-01T01:12:17Z</time>
  <course>94.99</course>
  <speed>0.0</speed>
  <fix>3d</fix>
</trkpt>
<trkpt lat="33.8103172" lon="-118.3938707">
  <ele>-0.133</ele>
  <time>2026-09-01T01:12:17Z</time>
  <course>185.75</course>
  <speed>0.20615528128088303</speed>
  <fix>3d</fix>
</trkpt>
<trkpt lat="33.810313" lon="-118.3938666">
  <ele>-0.13</ele>
  <time>2026-09-01T01:12:17Z</time>
  <course>94.99</course>
  <speed>0.0</speed>
  <fix>3d</fix>
</trkpt>
<trkpt lat="33.8103172" lon="-118.3938708">
  <ele>-0.133</ele>
  <time>2026-09-01T01:12:17Z</time>
  <course>185.75</course>
  <speed>0.20615528128088303</speed>
  <fix>3d</fix>
</trkpt>
<trkpt lat="33.810313" lon="-118.3938666">
  <ele>-0.13</ele>
  <time>2026-09-01T01:12:17Z</time>
  <course>94.99</course>
  <speed>0.0</speed>
  <fix>3d</fix>
</trkpt>
<trkpt lat="33.8103174" lon="-118.3938709">
  <ele>-0.132</ele>
  <time>2026-09-01T01:12:17Z</time>
  <course>185.75</course>
  <speed>0.21400934559032694</speed>
  <fix>3d</fix>
</trkpt>
<trkpt lat="33.810313" lon="-118.3938666">
  <ele>-0.13</ele>
  <time>2026-09-01T01:12:17Z</time>
  <course>94.99</course>
  <speed>0.0</speed>
  <fix>3d</fix>
</trkpt>
<trkpt lat="33.8103175" lon="-118.393871">
  <ele>-0.13</ele>
  <time>2026-09-01T01:12:17Z</time>
  <course>185.75</course>
  <speed>0.22022715545545238</speed>
  <fix>3d</fix>
</trkpt>
<trkpt lat="33.810313" lon="-118.3938666">
  <ele>-0.13</ele>
  <time>2026-09-01T01:12:17Z</time>
  <course>94.99</course>
  <speed>0.0</speed>
  <fix>3d</fix>
</trkpt>
<trkpt lat="33.8103177" lon="-118.3938712">
  <ele>-0.128</ele>
  <time>2026-09-01T01:12:17Z</time>
  <course>185.75</course>
  <speed>0.22022715545545238</speed>
  <fix>3d</fix>
</trkpt>
<trkpt lat="33.810313" lon="-118.3938666">
  <ele>-0.13</ele>
  <time>2026-09-01T01:12:17Z</time>
  <course>94.99</course>
  <speed>0.0</speed>
  <fix>3d</fix>
</trkpt>
<trkpt lat="33.8103174" lon="-118.3938709">
  <ele>-0.126</ele>
  <time>2026-09-01T01:12:17Z</time>
  <course>185.75</course>
  <speed>0.21400934559032694</speed>
  <fix>3d</fix>
</trkpt>
<trkpt lat="33.810313" lon="-118.3938666">
  <ele>-0.13</ele>
  <time>2026-09-01T01:12:17Z</time>
  <course>94.99</course>
  <speed>0.0</speed>
  <fix>3d</fix>
</trkpt>
<trkpt lat="33.810317" lon="-118.3938706">
  <ele>-0.122</ele>
  <time>2026-09-01T01:12:17Z</time>
  <course>185.75</course>
  <speed>0.20615528128088303</speed>
  <fix>3d</fix>
</trkpt>
<trkpt lat="33.810313" lon="-118.3938666">
  <ele>-0.13</ele>
  <time>2026-09-01T01:12:17Z</time>
  <course>94.99</course>
  <speed>0.0</speed>
  <fix>3d</fix>
</trkpt>
<trkpt lat="33.8103168" lon="-118.3938704">
  <ele>-0.118</ele>
  <time>2026-09-01T01:12:17Z</time>
  <course>185.75</course>
  <speed>0.2</speed>
  <fix>3d</fix>
</trkpt>
<trkpt lat="33.810313" lon="-118.3938666">
  <ele>-0.12</ele>
  <time>2026-09-01T01:12:17Z</time>
  <course>94.99</course>
  <speed>0.0</speed>
  <fix>3d</fix>
</trkpt>
<trkpt lat="33.8103167" lon="-118.3938703">
  <ele>-0.115</ele>
  <time>2026-09-01T01:12:17Z</time>
  <course>185.75</course>
  <speed>0.2</speed>
  <fix>3d</fix>
</trkpt>
<trkpt lat="33.810313" lon="-118.3938666">
  <ele>-0.12</ele>
  <time>2026-09-01T01:12:17Z</time>
  <course>94.99</course>
  <speed>0.0</speed>
  <fix>3d</fix>
</trkpt>
<trkpt lat="33.8103167" lon="-118.3938703">
  <ele>-0.115</ele>
  <time>2026-09-01T01:12:17Z</time>
  <course>185.74</course>
  <speed>0.2</speed>
  <fix>3d</fix>
</trkpt>
<trkpt lat="33.810313" lon="-118.3938666">
  <ele>-0.12</ele>
  <time>2026-09-01T01:12:17Z</time>
  <course>94.99</course>
  <speed>0.0</speed>
  <fix>3d</fix>
</trkpt>
<trkpt lat="33.8103168" lon="-118.3938703">
  <ele>-0.116</ele>
  <time>2026-09-01T01:12:17Z</time>
  <course>185.74</course>
  <speed>0.2</speed>
  <fix>3d</fix>
</trkpt>
<trkpt lat="33.810313" lon="-118.3938666">
  <ele>-0.12</ele>
  <time>2026-09-01T01:12:17Z</time>
  <course>94.99</course>
  <speed>0.0</speed>
  <fix>3d</fix>
</trkpt>
<trkpt lat="33.8103168" lon="-118.3938704">
  <ele>-0.119</ele>
  <time>2026-09-01T01:12:17Z</time>
  <course>185.74</course>
  <speed>0.20615528128088303</speed>
  <fix>3d</fix>
</trkpt>
<trkpt lat="33.810313" lon="-118.3938666">
  <ele>-0.12</ele>
  <time>2026-09-01T01:12:17Z</time>
  <course>94.99</course>
  <speed>0.0</speed>
  <fix>3d</fix>
</trkpt>
<trkpt lat="33.8103169" lon="-118.3938705">
  <ele>-0.123</ele>
  <time>2026-09-01T01:12:17Z</time>
  <course>185.74</course>
  <speed>0.20615528128088303</speed>
  <fix>3d</fix>
</trkpt>
<trkpt lat="33.810313" lon="-118.3938666">
  <ele>-0.12</ele>
  <time>2026-09-01T01:12:17Z</time>
  <course>94.99</course>
  <speed>0.0</speed>
  <fix>3d</fix>
</trkpt>
<trkpt lat="33.8103171" lon="-118.3938706">
  <ele>-0.126</ele>
  <time>2026-09-01T01:12:17Z</time>
  <course>185.74</course>
  <speed>0.20615528128088303</speed>
  <fix>3d</fix>
</trkpt>
<trkpt lat="33.810313" lon="-118.3938666">
  <ele>-0.12</ele>
  <time>2026-09-01T01:12:17Z</time>
  <course>94.99</course>
  <speed>0.0</speed>
  <fix>3d</fix>
</trkpt>
<trkpt lat="33.8103172" lon="-118.3938708">
  <ele>-0.128</ele>
  <time>2026-09-01T01:12:17Z</time>
  <course>185.74</course>
  <speed>0.21400934559032694</speed>
  <fix>3d</fix>
</trkpt>
<trkpt lat="33.810313" lon="-118.3938666">
  <ele>-0.12</ele>
  <time>2026-09-01T01:12:17Z</time>
  <course>94.99</course>
  <speed>0.0</speed>
  <fix>3d</fix>
</trkpt>
<trkpt lat="33.810317" lon="-118.3938705">
  <ele>-0.13</ele>
  <time>2026-09-01T01:12:17Z</time>
  <course>185.74</course>
  <speed>0.20615528128088303</speed>
  <fix>3d</fix>
</trkpt>
<trkpt lat="33.810313" lon="-118.3938666">
  <ele>-0.12</ele>
  <time>2026-09-01T01:12:17Z</time>
  <course>94.99</course>
  <speed>0.0</speed>
  <fix>3d</fix>
</trkpt>
<trkpt lat="33.8103166" lon="-118.3938702">
  <ele>-0.131</ele>
  <time>2026-09-01T01:12:17Z</time>
  <course>185.74</course>
  <speed>0.2</speed>
  <fix>3d</fix>
</trkpt>
<trkpt lat="33.810313" lon="-118.3938666">
  <ele>-0.12</ele>
  <time>2026-09-01T01:12:17Z</time>
  <course>94.99</course>
  <speed>0.0</speed>
  <fix>3d</fix>
</trkpt>
<trkpt lat="33.8103164" lon="-118.39387">
  <ele>-0.132</ele>
  <time>2026-09-01T01:12:17Z</time>
  <course>185.74</course>
  <speed>0.19209372712298545</speed>
  <fix>3d</fix>
</trkpt>
<trkpt lat="33.810313" lon="-118.3938666">
  <ele>-0.13</ele>
  <time>2026-09-01T01:12:17Z</time>
  <course>94.99</course>
  <speed>0.0</speed>
  <fix>3d</fix>
</trkpt>
<trkpt lat="33.8103163" lon="-118.3938699">
  <ele>-0.131</ele>
  <time>2026-09-01T01:12:17Z</time>
  <course>185.74</course>
  <speed>0.19209372712298545</speed>
  <fix>3d</fix>
</trkpt>
<trkpt lat="33.810313" lon="-118.3938666">
  <ele>-0.13</ele>
  <time>2026-09-01T01:12:17Z</time>
  <course>94.99</course>
  <speed>0.0</speed>
  <fix>3d</fix>
</trkpt>
<trkpt lat="33.8103163" lon="-118.3938699">
  <ele>-0.131</ele>
  <time>2026-09-01T01:12:17Z</time>
  <course>185.74</course>
  <speed>0.19209372712298545</speed>
  <fix>3d</fix>
</trkpt>
<trkpt lat="33.810313" lon="-118.3938666">
  <ele>-0.13</ele>
  <time>2026-09-01T01:12:17Z</time>
  <course>94.99</course>
  <speed>0.0</speed>
  <fix>3d</fix>
</trkpt>
<trkpt lat="33.8103163" lon="-118.3938699">
  <ele>-0.13</ele>
  <time>2026-09-01T01:12:17Z</time>
  <course>185.74</course>
  <speed>0.19209372712298545</speed>
  <fix>3d</fix>
</trkpt>
<trkpt lat="33.810313" lon="-118.3938666">
  <ele>-0.13</ele>
  <time>2026-09-01T01:12:17Z</time>
  <course>94.99</course>
  <speed>0.0</speed>
  <fix>3d</fix>
</trkpt>
<trkpt lat="33.8103164" lon="-118.39387">
  <ele>-0.128</ele>
  <time>2026-09-01T01:12:17Z</time>
  <course>185.74</course>
  <speed>0.19209372712298545</speed>
  <fix>3d</fix>
</trkpt>
<trkpt lat="33.810313" lon="-118.3938666">
  <ele>-0.12</ele>
  <time>2026-09-01T01:12:17Z</time>
  <course>94.99</course>
  <speed>0.0</speed>
  <fix>3d</fix>
</trkpt>
<trkpt lat="33.8103165" lon="-118.3938701">
  <ele>-0.125</ele>
  <time>2026-09-01T01:12:17Z</time>
  <course>185.74</course>
  <speed>0.20615528128088303</speed>
  <fix>3d</fix>
</trkpt>
<trkpt lat="33.810313" lon="-118.3938666">
  <ele>-0.12</ele>
  <time>2026-09-01T01:12:17Z</time>
  <course>94.99</course>
  <speed>0.0</speed>
  <fix>3d</fix>
</trkpt>
<trkpt lat="33.8103166" lon="-118.3938702">
  <ele>-0.123</ele>
  <time>2026-09-01T01:12:17Z</time>
  <course>185.74</course>
  <speed>0.20615528128088303</speed>
  <fix>3d</fix>
</trkpt>
<trkpt lat="33.810313" lon="-118.3938666">
  <ele>-0.12</ele>
  <time>2026-09-01T01:12:17Z</time>
  <course>94.99</course>
  <speed>0.0</speed>
  <fix>3d</fix>
</trkpt>
<trkpt lat="33.8103168" lon="-118.3938703">
  <ele>-0.123</ele>
  <time>2026-09-01T01:12:17Z</time>
  <course>185.74</course>
  <speed>0.20615528128088303</speed>
  <fix>3d</fix>
</trkpt>
<trkpt lat="33.810313" lon="-118.3938666">
  <ele>-0.12</ele>
  <time>2026-09-01T01:12:17Z</time>
  <course>94.99</course>
  <speed>0.0</speed>
  <fix>3d</fix>
</trkpt>
<trkpt lat="33.8103165" lon="-118.3938701">
  <ele>-0.124</ele>
  <time>2026-09-01T01:12:17Z</time>
  <course>185.74</course>
  <speed>0.20615528128088303</speed>
  <fix>3d</fix>
</trkpt>
<trkpt lat="33.810313" lon="-118.3938666">
  <ele>-0.12</ele>
  <time>2026-09-01T01:12:17Z</time>
  <course>94.99</course>
  <speed>0.0</speed>
  <fix>3d</fix>
</trkpt>
<trkpt lat="33.8103162" lon="-118.3938697">
  <ele>-0.128</ele>
  <time>2026-09-01T01:12:17Z</time>
  <course>185.73</course>
  <speed>0.19209372712298545</speed>
  <fix>3d</fix>
</trkpt>
<trkpt lat="33.810313" lon="-118.3938666">
  <ele>-0.12</ele>
  <time>2026-09-01T01:12:17Z</time>
  <course>94.99</course>
  <speed>0.0</speed>
  <fix>3d</fix>
</trkpt>
<trkpt lat="33.810316" lon="-118.3938695">
  <ele>-0.132</ele>
  <time>2026-09-01T01:12:17Z</time>
  <course>185.73</course>
  <speed>0.19209372712298545</speed>
  <fix>3d</fix>
</trkpt>
<trkpt lat="33.810313" lon="-118.3938666">
  <ele>-0.12</ele>
  <time>2026-09-01T01:12:17Z</time>
  <course>94.99</course>
  <speed>0.0</speed>
  <fix>3d</fix>
</trkpt>
<trkpt lat="33.8103159" lon="-118.3938695">
  <ele>-0.135</ele>
  <time>2026-09-01T01:12:17Z</time>
  <course>185.73</course>
  <speed>0.19209372712298545</speed>
  <fix>3d</fix>
</trkpt>
<trkpt lat="33.810313" lon="-118.3938666">
  <ele>-0.12</ele>
  <time>2026-09-01T01:12:17Z</time>
  <course>94.99</course>
  <speed>0.0</speed>
  <fix>3d</fix>
</trkpt>
<trkpt lat="33.8103159" lon="-118.3938694">
  <ele>-0.137</ele>
  <time>2026-09-01T01:12:17Z</time>
  <course>185.73</course>
  <speed>0.19209372712298545</speed>
  <fix>3d</fix>
</trkpt>
<trkpt lat="33.810313" lon="-118.3938666">
  <ele>-0.12</ele>
  <time>2026-09-01T01:12:17Z</time>
  <course>94.99</course>
  <speed>0.0</speed>
  <fix>3d</fix>
</trkpt>
<trkpt lat="33.8103159" lon="-118.3938695">
  <ele>-0.138</ele>
  <time>2026-09-01T01:12:17Z</time>
  <course>185.73</course>
  <speed>0.19209372712298545</speed>
  <fix>3d</fix>
</trkpt>
<trkpt lat="33.810313" lon="-118.3938666">
  <ele>-0.12</ele>
  <time>2026-09-01T01:12:17Z</time>
  <course>94.99</course>
  <speed>0.0</speed>
  <fix>3d</fix>
</trkpt>
<trkpt lat="33.810316" lon="-118.3938695">
  <ele>-0.139</ele>
  <time>2026-09-01T01:12:17Z</time>
  <course>185.73</course>
  <speed>0.19209372712298545</speed>
  <fix>3d</fix>
</trkpt>
<trkpt lat="33.810313" lon="-118.3938666">
  <ele>-0.12</ele>
  <time>2026-09-01T01:12:17Z</time>
  <course>94.99</course>
  <speed>0.0</speed>
  <fix>3d</fix>
</trkpt>
<trkpt lat="33.8103161" lon="-118.3938696">
  <ele>-0.139</ele>
  <time>2026-09-01T01:12:17Z</time>
  <course>185.73</course>
  <speed>0.19209372712298545</speed>
  <fix>3d</fix>
</trkpt>
<trkpt lat="33.810313" lon="-118.3938666">
  <ele>-0.12</ele>
  <time>2026-09-01T01:12:17Z</time>
  <course>94.99</course>
  <speed>0.0</speed>
  <fix>3d</fix>
</trkpt>
<trkpt lat="33.8103162" lon="-118.3938698">
  <ele>-0.138</ele>
  <time>2026-09-01T01:12:17Z</time>
  <course>185.73</course>
  <speed>0.20615528128088303</speed>
  <fix>3d</fix>
</trkpt>
<trkpt lat="33.810313" lon="-118.3938666">
  <ele>-0.13</ele>
  <time>2026-09-01T01:12:17Z</time>
  <course>94.99</course>
  <speed>0.0</speed>
  <fix>3d</fix>
</trkpt>
<trkpt lat="33.8103163" lon="-118.3938699">
  <ele>-0.136</ele>
  <time>2026-09-01T01:12:17Z</time>
  <course>185.73</course>
  <speed>0.20615528128088303</speed>
  <fix>3d</fix>
</trkpt>
<trkpt lat="33.810313" lon="-118.3938666">
  <ele>-0.13</ele>
  <time>2026-09-01T01:12:17Z</time>
  <course>94.99</course>
  <speed>0.0</speed>
  <fix>3d</fix>
</trkpt>
<trkpt lat="33.8103161" lon="-118.3938697">
  <ele>-0.134</ele>
  <time>2026-09-01T01:12:17Z</time>
  <course>185.73</course>
  <speed>0.2</speed>
  <fix>3d</fix>
</trkpt>
<trkpt lat="33.810313" lon="-118.3938666">
  <ele>-0.12</ele>
  <time>2026-09-01T01:12:17Z</time>
  <course>94.99</course>
  <speed>0.0</speed>
  <fix>3d</fix>
</trkpt>
<trkpt lat="33.8103157" lon="-118.3938693">
  <ele>-0.13</ele>
  <time>2026-09-01T01:12:17Z</time>
  <course>185.73</course>
  <speed>0.19209372712298545</speed>
  <fix>3d</fix>
</trkpt>
<trkpt lat="33.810313" lon="-118.3938666">
  <ele>-0.12</ele>
  <time>2026-09-01T01:12:17Z</time>
  <course>94.99</course>
  <speed>0.0</speed>
  <fix>3d</fix>
</trkpt>
<trkpt lat="33.8103155" lon="-118.3938691">
  <ele>-0.127</ele>
  <time>2026-09-01T01:12:17Z</time>
  <course>185.73</course>
  <speed>0.19209372712298545</speed>
  <fix>3d</fix>
</trkpt>
<trkpt lat="33.810313" lon="-118.3938666">
  <ele>-0.12</ele>
  <time>2026-09-01T01:12:17Z</time>
  <course>94.99</course>
  <speed>0.0</speed>
  <fix>3d</fix>
</trkpt>
<trkpt lat="33.8103154" lon="-118.393869">
  <ele>-0.124</ele>
  <time>2026-09-01T01:12:17Z</time>
  <course>185.73</course>
  <speed>0.17804493814764857</speed>
  <fix>3d</fix>
</trkpt>
<trkpt lat="33.810313" lon="-118.3938666">
  <ele>-0.12</ele>
  <time>2026-09-01T01:12:17Z</time>
  <course>94.99</course>
  <speed>0.0</speed>
  <fix>3d</fix>
</trkpt>
<trkpt lat="33.8103154" lon="-118.393869">
  <ele>-0.123</ele>
  <time>2026-09-01T01:12:17Z</time>
  <course>185.73</course>
  <speed>0.17804493814764857</speed>
  <fix>3d</fix>
</trkpt>
<trkpt lat="33.810313" lon="-118.3938666">
  <ele>-0.12</ele>
  <time>2026-09-01T01:12:17Z</time>
  <course>94.99</course>
  <speed>0.0</speed>
  <fix>3d</fix>
</trkpt>
<trkpt lat="33.8103155" lon="-118.3938691">
  <ele>-0.126</ele>
  <time>2026-09-01T01:12:17Z</time>
  <course>185.73</course>
  <speed>0.19209372712298545</speed>
  <fix>3d</fix>
</trkpt>
<trkpt lat="33.810313" lon="-118.3938666">
  <ele>-0.12</ele>
  <time>2026-09-01T01:12:17Z</time>
  <course>94.99</course>
  <speed>0.0</speed>
  <fix>3d</fix>
</trkpt>
<trkpt lat="33.8103155" lon="-118.3938691">
  <ele>-0.128</ele>
  <time>2026-09-01T01:12:17Z</time>
  <course>185.73</course>
  <speed>0.19209372712298545</speed>
  <fix>3d</fix>
</trkpt>
<trkpt lat="33.810313" lon="-118.3938666">
  <ele>-0.12</ele>
  <time>2026-09-01T01:12:17Z</time>
  <course>94.99</course>
  <speed>0.0</speed>
  <fix>3d</fix>
</trkpt>
<trkpt lat="33.8103156" lon="-118.3938692">
  <ele>-0.131</ele>
  <time>2026-09-01T01:12:17Z</time>
  <course>185.73</course>
  <speed>0.19209372712298545</speed>
  <fix>3d</fix>
</trkpt>
<trkpt lat="33.810313" lon="-118.3938666">
  <ele>-0.12</ele>
  <time>2026-09-01T01:12:17Z</time>
  <course>94.99</course>
  <speed>0.0</speed>
  <fix>3d</fix>
</trkpt>
<trkpt lat="33.8103158" lon="-118.3938693">
  <ele>-0.133</ele>
  <time>2026-09-01T01:12:17Z</time>
  <course>185.73</course>
  <speed>0.19209372712298545</speed>
  <fix>3d</fix>
</trkpt>
<trkpt lat="33.810313" lon="-118.3938666">
  <ele>-0.12</ele>
  <time>2026-09-01T01:12:17Z</time>
  <course>94.99</course>
  <speed>0.0</speed>
  <fix>3d</fix>
</trkpt>
<trkpt lat="33.8103159" lon="-118.3938695">
  <ele>-0.133</ele>
  <time>2026-09-01T01:12:17Z</time>
  <course>185.73</course>
  <speed>0.20615528128088303</speed>
  <fix>3d</fix>
</trkpt>
<trkpt lat="33.810313" lon="-118.3938666">
  <ele>-0.12</ele>
  <time>2026-09-01T01:12:17Z</time>
  <course>94.99</course>
  <speed>0.0</speed>
  <fix>3d</fix>
</trkpt>
<trkpt lat="33.8103161" lon="-118.3938696">
  <ele>-0.132</ele>
  <time>2026-09-01T01:12:17Z</time>
  <course>185.72</course>
  <speed>0.20615528128088303</speed>
  <fix>3d</fix>
</trkpt>
<trkpt lat="33.810313" lon="-118.3938666">
  <ele>-0.12</ele>
  <time>2026-09-01T01:12:17Z</time>
  <course>94.99</course>
  <speed>0.0</speed>
  <fix>3d</fix>
</trkpt>
<trkpt lat="33.8103158" lon="-118.3938694">
  <ele>-0.131</ele>
  <time>2026-09-01T01:12:17Z</time>
  <course>185.72</course>
  <speed>0.2</speed>
  <fix>3d</fix>
</trkpt>
<trkpt lat="33.810313" lon="-118.3938666">
  <ele>-0.12</ele>
  <time>2026-09-01T01:12:17Z</time>
  <course>94.99</course>
  <speed>0.0</speed>
  <fix>3d</fix>
</trkpt>
<trkpt lat="33.8103154" lon="-118.393869">
  <ele>-0.131</ele>
  <time>2026-09-01T01:12:17Z</time>
  <course>185.72</course>
  <speed>0.19209372712298545</speed>
  <fix>3d</fix>
</trkpt>
<trkpt lat="33.810313" lon="-118.3938666">
  <ele>-0.13</ele>
  <time>2026-09-01T01:12:17Z</time>
  <course>94.99</course>
  <speed>0.0</speed>
  <fix>3d</fix>
</trkpt>
<trkpt lat="33.8103153" lon="-118.3938689">
  <ele>-0.13</ele>
  <time>2026-09-01T01:12:17Z</time>
  <course>185.72</course>
  <speed>0.19209372712298545</speed>
  <fix>3d</fix>
</trkpt>
<trkpt lat="33.810313" lon="-118.3938666">
  <ele>-0.13</ele>
  <time>2026-09-01T01:12:17Z</time>
  <course>94.99</course>
  <speed>0.0</speed>
  <fix>3d</fix>
</trkpt>
<trkpt lat="33.8103152" lon="-118.3938688">
  <ele>-0.128</ele>
  <time>2026-09-01T01:12:17Z</time>
  <course>185.72</course>
  <speed>0.18439088914585774</speed>
  <fix>3d</fix>
</trkpt>
<trkpt lat="33.810313" lon="-118.3938666">
  <ele>-0.12</ele>
  <time>2026-09-01T01:12:17Z</time>
  <course>94.99</course>
  <speed>0.0</speed>
  <fix>3d</fix>
</trkpt>
<trkpt lat="33.8103152" lon="-118.3938688">
  <ele>-0.125</ele>
  <time>2026-09-01T01:12:17Z</time>
  <course>185.72</course>
  <speed>0.19209372712298545</speed>
  <fix>3d</fix>
</trkpt>
<trkpt lat="33.810313" lon="-118.3938666">
  <ele>-0.12</ele>
  <time>2026-09-01T01:12:17Z</time>
  <course>94.99</course>
  <speed>0.0</speed>
  <fix>3d</fix>
</trkpt>
<trkpt lat="33.8103152" lon="-118.3938689">
  <ele>-0.122</ele>
  <time>2026-09-01T01:12:17Z</time>
  <course>185.72</course>
  <speed>0.19209372712298545</speed>
  <fix>3d</fix>
</trkpt>
<trkpt lat="33.810313" lon="-118.3938666">
  <ele>-0.12</ele>
  <time>2026-09-01T01:12:17Z</time>
  <course>94.99</course>
  <speed>0.0</speed>
  <fix>3d</fix>
</trkpt>
<trkpt lat="33.8103153" lon="-118.3938689">
  <ele>-0.121</ele>
  <time>2026-09-01T01:12:17Z</time>
  <course>185.72</course>
  <speed>0.19209372712298545</speed>
  <fix>3d</fix>
</trkpt>
<trkpt lat="33.810313" lon="-118.3938666">
  <ele>-0.12</ele>
  <time>2026-09-01T01:12:17Z</time>
  <course>94.99</course>
  <speed>0.0</speed>
  <fix>3d</fix>
</trkpt>
<trkpt lat="33.8103154" lon="-118.393869">
  <ele>-0.122</ele>
  <time>2026-09-01T01:12:17Z</time>
  <course>185.72</course>
  <speed>0.19209372712298545</speed>
  <fix>3d</fix>
</trkpt>
<trkpt lat="33.810313" lon="-118.3938666">
  <ele>-0.12</ele>
  <time>2026-09-01T01:12:17Z</time>
  <course>94.99</course>
  <speed>0.0</speed>
  <fix>3d</fix>
</trkpt>
<trkpt lat="33.8103154" lon="-118.393869">
  <ele>-0.125</ele>
  <time>2026-09-01T01:12:17Z</time>
  <course>185.72</course>
  <speed>0.19209372712298545</speed>
  <fix>3d</fix>
</trkpt>
<trkpt lat="33.810313" lon="-118.3938666">
  <ele>-0.12</ele>
  <time>2026-09-01T01:12:17Z</time>
  <course>94.99</course>
  <speed>0.0</speed>
  <fix>3d</fix>
</trkpt>
<trkpt lat="33.8103156" lon="-118.3938692">
  <ele>-0.128</ele>
  <time>2026-09-01T01:12:17Z</time>
  <course>185.72</course>
  <speed>0.20615528128088303</speed>
  <fix>3d</fix>
</trkpt>
<trkpt lat="33.810313" lon="-118.3938665">
  <ele>-0.12</ele>
  <time>2026-09-01T01:12:17Z</time>
  <course>94.99</course>
  <speed>0.0</speed>
  <fix>3d</fix>
</trkpt>
<trkpt lat="33.8103157" lon="-118.3938693">
  <ele>-0.131</ele>
  <time>2026-09-01T01:12:17Z</time>
  <course>185.72</course>
  <speed>0.20615528128088303</speed>
  <fix>3d</fix>
</trkpt>
<trkpt lat="33.810313" lon="-118.3938665">
  <ele>-0.12</ele>
  <time>2026-09-01T01:12:17Z</time>
  <course>94.99</course>
  <speed>0.0</speed>
  <fix>3d</fix>
</trkpt>
<trkpt lat="33.8103155" lon="-118.3938691">
  <ele>-0.132</ele>
  <time>2026-09-01T01:12:17Z</time>
  <course>185.72</course>
  <speed>0.20615528128088303</speed>
  <fix>3d</fix>
</trkpt>
<trkpt lat="33.810313" lon="-118.3938665">
  <ele>-0.12</ele>
  <time>2026-09-01T01:12:17Z</time>
  <course>94.99</course>
  <speed>0.0</speed>
  <fix>3d</fix>
</trkpt>
<trkpt lat="33.8103152" lon="-118.3938688">
  <ele>-0.133</ele>
  <time>2026-09-01T01:12:17Z</time>
  <course>185.72</course>
  <speed>0.19209372712298545</speed>
  <fix>3d</fix>
</trkpt>
<trkpt lat="33.810313" lon="-118.3938665">
  <ele>-0.12</ele>
  <time>2026-09-01T01:12:17Z</time>
  <course>94.99</course>
  <speed>0.0</speed>
  <fix>3d</fix>
</trkpt>
<trkpt lat="33.810315" lon="-118.3938686">
  <ele>-0.133</ele>
  <time>2026-09-01T01:12:17Z</time>
  <course>185.72</course>
  <speed>0.19209372712298545</speed>
  <fix>3d</fix>
</trkpt>
<trkpt lat="33.810313" lon="-118.3938665">
  <ele>-0.12</ele>
  <time>2026-09-01T01:12:17Z</time>
  <course>94.99</course>
  <speed>0.0</speed>
  <fix>3d</fix>
</trkpt>
<trkpt lat="33.8103149" lon="-118.3938685">
  <ele>-0.132</ele>
  <time>2026-09-01T01:12:17Z</time>
  <course>185.72</course>
  <speed>0.19209372712298545</speed>
  <fix>3d</fix>
</trkpt>
<trkpt lat="33.810313" lon="-118.3938665">
  <ele>-0.12</ele>
  <time>2026-09-01T01:12:17Z</time>
  <course>94.99</course>
  <speed>0.0</speed>
  <fix>3d</fix>
</trkpt>
<trkpt lat="33.8103149" lon="-118.3938685">
  <ele>-0.131</ele>
  <time>2026-09-01T01:12:17Z</time>
  <course>185.72</course>
  <speed>0.19209372712298545</speed>
  <fix>3d</fix>
</trkpt>
<trkpt lat="33.810313" lon="-118.3938665">
  <ele>-0.13</ele>
  <time>2026-09-01T01:12:17Z</time>
  <course>94.99</course>
  <speed>0.0</speed>
  <fix>3d</fix>
</trkpt>
<trkpt lat="33.8103149" lon="-118.3938685">
  <ele>-0.129</ele>
  <time>2026-09-01T01:12:17Z</time>
  <course>185.71</course>
  <speed>0.19209372712298545</speed>
  <fix>3d</fix>
</trkpt>
<trkpt lat="33.810313" lon="-118.3938665">
  <ele>-0.13</ele>
  <time>2026-09-01T01:12:17Z</time>
  <course>94.99</course>
  <speed>0.0</speed>
  <fix>3d</fix>
</trkpt>
<trkpt lat="33.810315" lon="-118.3938686">
  <ele>-0.126</ele>
  <time>2026-09-01T01:12:17Z</time>
  <course>185.71</course>
  <speed>0.19209372712298545</speed>
  <fix>3d</fix>
</trkpt>
<trkpt lat="33.810313" lon="-118.3938665">
  <ele>-0.12</ele>
  <time>2026-09-01T01:12:17Z</time>
  <course>94.99</course>
  <speed>0.0</speed>
  <fix>3d</fix>
</trkpt>
<trkpt lat="33.8103151" lon="-118.3938687">
  <ele>-0.123</ele>
  <time>2026-09-01T01:12:17Z</time>
  <course>185.71</course>
  <speed>0.19209372712298545</speed>
  <fix>3d</fix>
</trkpt>
<trkpt lat="33.810313" lon="-118.3938665">
  <ele>-0.12</ele>
  <time>2026-09-01T01:12:17Z</time>
  <course>94.99</course>
  <speed>0.0</speed>
  <fix>3d</fix>
</trkpt>
<trkpt lat="33.8103152" lon="-118.3938688">
  <ele>-0.121</ele>
  <time>2026-09-01T01:12:17Z</time>
  <course>185.71</course>
  <speed>0.19209372712298545</speed>
  <fix>3d</fix>
</trkpt>
<trkpt lat="33.810313" lon="-118.3938665">
  <ele>-0.12</ele>
  <time>2026-09-01T01:12:17Z</time>
  <course>94.99</course>
  <speed>0.0</speed>
  <fix>3d</fix>
</trkpt>
<trkpt lat="33.8103153" lon="-118.393869">
  <ele>-0.12</ele>
  <time>2026-09-01T01:12:17Z</time>
  <course>185.71</course>
  <speed>0.20615528128088303</speed>
  <fix>3d</fix>
</trkpt>
<trkpt lat="33.810313" lon="-118.3938665">
  <ele>-0.12</ele>
  <time>2026-09-01T01:12:17Z</time>
  <course>94.99</course>
  <speed>0.0</speed>
  <fix>3d</fix>
</trkpt>
<trkpt lat="33.8103154" lon="-118.393869">
  <ele>-0.12</ele>
  <time>2026-09-01T01:12:17Z</time>
  <course>185.71</course>
  <speed>0.20615528128088303</speed>
  <fix>3d</fix>
</trkpt>
<trkpt lat="33.810313" lon="-118.3938665">
  <ele>-0.12</ele>
  <time>2026-09-01T01:12:17Z</time>
  <course>94.99</course>
  <speed>0.0</speed>
  <fix>3d</fix>
</trkpt>
<trkpt lat="33.8103152" lon="-118.3938688">
  <ele>-0.121</ele>
  <time>2026-09-01T01:12:17Z</time>
  <course>185.71</course>
  <speed>0.20615528128088303</speed>
  <fix>3d</fix>
</trkpt>
<trkpt lat="33.810313" lon="-118.3938665">
  <ele>-0.12</ele>
  <time>2026-09-01T01:12:17Z</time>
  <course>94.99</course>
  <speed>0.0</speed>
  <fix>3d</fix>
</trkpt>
<trkpt lat="33.8103149" lon="-118.3938685">
  <ele>-0.123</ele>
  <time>2026-09-01T01:12:17Z</time>
  <course>185.71</course>
  <speed>0.19209372712298545</speed>
  <fix>3d</fix>
</trkpt>
<trkpt lat="33.810313" lon="-118.3938665">
  <ele>-0.12</ele>
  <time>2026-09-01T01:12:17Z</time>
  <course>94.99</course>
  <speed>0.0</speed>
  <fix>3d</fix>
</trkpt>
<trkpt lat="33.8103146" lon="-118.3938683">
  <ele>-0.126</ele>
  <time>2026-09-01T01:12:17Z</time>
  <course>185.71</course>
  <speed>0.19209372712298545</speed>
  <fix>3d</fix>
</trkpt>
<trkpt lat="33.810313" lon="-118.3938665">
  <ele>-0.12</ele>
  <time>2026-09-01T01:12:17Z</time>
  <course>94.99</course>
  <speed>0.0</speed>
  <fix>3d</fix>
</trkpt>
<trkpt lat="33.8103145" lon="-118.3938682">
  <ele>-0.127</ele>
  <time>2026-09-01T01:12:17Z</time>
  <course>185.71</course>
  <speed>0.18439088914585774</speed>
  <fix>3d</fix>
</trkpt>
<trkpt lat="33.810313" lon="-118.3938665">
  <ele>-0.12</ele>
  <time>2026-09-01T01:12:17Z</time>
  <course>94.99</course>
  <speed>0.0</speed>
  <fix>3d</fix>
</trkpt>
<trkpt lat="33.8103145" lon="-118.3938681">
  <ele>-0.126</ele>
  <time>2026-09-01T01:12:17Z</time>
  <course>185.71</course>
  <speed>0.19209372712298545</speed>
  <fix>3d</fix>
</trkpt>
<trkpt lat="33.810313" lon="-118.3938665">
  <ele>-0.12</ele>
  <time>2026-09-01T01:12:17Z</time>
  <course>94.99</course>
  <speed>0.0</speed>
  <fix>3d</fix>
</trkpt>
<trkpt lat="33.8103145" lon="-118.3938682">
  <ele>-0.125</ele>
  <time>2026-09-01T01:12:17Z</time>
  <course>185.71</course>
  <speed>0.19209372712298545</speed>
  <fix>3d</fix>
</trkpt>
<trkpt lat="33.810313" lon="-118.3938665">
  <ele>-0.12</ele>
  <time>2026-09-01T01:12:17Z</time>
  <course>94.99</course>
  <speed>0.0</speed>
  <fix>3d</fix>
</trkpt>
<trkpt lat="33.8103146" lon="-118.3938682">
  <ele>-0.123</ele>
  <time>2026-09-01T01:12:17Z</time>
  <course>185.71</course>
  <speed>0.19209372712298545</speed>
  <fix>3d</fix>
</trkpt>
<trkpt lat="33.810313" lon="-118.3938665">
  <ele>-0.12</ele>
  <time>2026-09-01T01:12:17Z</time>
  <course>94.99</course>
  <speed>0.0</speed>
  <fix>3d</fix>
</trkpt>
<trkpt lat="33.8103147" lon="-118.3938683">
  <ele>-0.121</ele>
  <time>2026-09-01T01:12:17Z</time>
  <course>185.71</course>
  <speed>0.19209372712298545</speed>
  <fix>3d</fix>
</trkpt>
<trkpt lat="33.810313" lon="-118.3938665">
  <ele>-0.12</ele>
  <time>2026-09-01T01:12:17Z</time>
  <course>94.99</course>
  <speed>0.0</speed>
  <fix>3d</fix>
</trkpt>
<trkpt lat="33.8103148" lon="-118.3938685">
  <ele>-0.12</ele>
  <time>2026-09-01T01:12:17Z</time>
  <course>185.71</course>
  <speed>0.19209372712298545</speed>
  <fix>3d</fix>
</trkpt>
<trkpt lat="33.810313" lon="-118.3938665">
  <ele>-0.12</ele>
  <time>2026-09-01T01:12:17Z</time>
  <course>94.99</course>
  <speed>0.0</speed>
  <fix>3d</fix>
</trkpt>
<trkpt lat="33.810315" lon="-118.3938686">
  <ele>-0.119</ele>
  <time>2026-09-01T01:12:17Z</time>
  <course>185.71</course>
  <speed>0.20615528128088303</speed>
  <fix>3d</fix>
</trkpt>
<trkpt lat="33.810313" lon="-118.3938665">
  <ele>-0.12</ele>
  <time>2026-09-01T01:12:17Z</time>
  <course>94.99</course>
  <speed>0.0</speed>
  <fix>3d</fix>
</trkpt>
<trkpt lat="33.8103147" lon="-118.3938683">
  <ele>-0.119</ele>
  <time>2026-09-01T01:12:17Z</time>
  <course>185.71</course>
  <speed>0.19209372712298545</speed>
  <fix>3d</fix>
</trkpt>
<trkpt lat="33.810313" lon="-118.3938665">
  <ele>-0.12</ele>
  <time>2026-09-01T01:12:17Z</time>
  <course>94.99</course>
  <speed>0.0</speed>
  <fix>3d</fix>
</trkpt>
<trkpt lat="33.8103144" lon="-118.393868">
  <ele>-0.12</ele>
  <time>2026-09-01T01:12:17Z</time>
  <course>185.71</course>
  <speed>0.19209372712298545</speed>
  <fix>3d</fix>
</trkpt>
<trkpt lat="33.810313" lon="-118.3938665">
  <ele>-0.12</ele>
  <time>2026-09-01T01:12:17Z</time>
  <course>94.99</course>
  <speed>0.0</speed>
  <fix>3d</fix>
</trkpt>
<trkpt lat="33.8103142" lon="-118.3938678">
  <ele>-0.122</ele>
  <time>2026-09-01T01:12:17Z</time>
  <course>185.71</course>
  <speed>0.17804493814764857</speed>
  <fix>3d</fix>
</trkpt>
<trkpt lat="33.810313" lon="-118.3938665">
  <ele>-0.12</ele>
  <time>2026-09-01T01:12:17Z</time>
  <course>94.99</course>
  <speed>0.0</speed>
  <fix>3d</fix>
</trkpt>
<trkpt lat="33.8103141" lon="-118.3938677">
  <ele>-0.125</ele>
  <time>2026-09-01T01:12:17Z</time>
  <course>185.7</course>
  <speed>0.17804493814764857</speed>
  <fix>3d</fix>
</trkpt>
<trkpt lat="33.810313" lon="-118.3938665">
  <ele>-0.12</ele>
  <time>2026-09-01T01:12:17Z</time>
  <course>94.99</course>
  <speed>0.0</speed>
  <fix>3d</fix>
</trkpt>
<trkpt lat="33.810314" lon="-118.3938677">
  <ele>-0.128</ele>
  <time>2026-09-01T01:12:17Z</time>
  <course>185.7</course>
  <speed>0.17804493814764857</speed>
  <fix>3d</fix>
</trkpt>
<trkpt lat="33.810313" lon="-118.3938665">
  <ele>-0.12</ele>
  <time>2026-09-01T01:12:17Z</time>
  <course>94.99</course>
  <speed>0.0</speed>
  <fix>3d</fix>
</trkpt>
<trkpt lat="33.8103141" lon="-118.3938677">
  <ele>-0.131</ele>
  <time>2026-09-01T01:12:17Z</time>
  <course>185.7</course>
  <speed>0.17804493814764857</speed>
  <fix>3d</fix>
</trkpt>
<trkpt lat="33.810313" lon="-118.3938665">
  <ele>-0.12</ele>
  <time>2026-09-01T01:12:17Z</time>
  <course>94.99</course>
  <speed>0.0</speed>
  <fix>3d</fix>
</trkpt>
<trkpt lat="33.8103141" lon="-118.3938678">
  <ele>-0.133</ele>
  <time>2026-09-01T01:12:17Z</time>
  <course>185.7</course>
  <speed>0.19209372712298545</speed>
  <fix>3d</fix>
</trkpt>
<trkpt lat="33.810313" lon="-118.3938665">
  <ele>-0.12</ele>
  <time>2026-09-01T01:12:17Z</time>
  <course>94.99</course>
  <speed>0.0</speed>
  <fix>3d</fix>
</trkpt>
<trkpt lat="33.8103142" lon="-118.3938679">
  <ele>-0.133</ele>
  <time>2026-09-01T01:12:17Z</time>
  <course>185.7</course>
  <speed>0.19209372712298545</speed>
  <fix>3d</fix>
</trkpt>
<trkpt lat="33.810313" lon="-118.3938665">
  <ele>-0.12</ele>
  <time>2026-09-01T01:12:17Z</time>
  <course>94.99</course>
  <speed>0.0</speed>
  <fix>3d</fix>
</trkpt>
<trkpt lat="33.8103144" lon="-118.393868">
  <ele>-0.133</ele>
  <time>2026-09-01T01:12:17Z</time>
  <course>185.7</course>
  <speed>0.19209372712298545</speed>
  <fix>3d</fix>
</trkpt>
<trkpt lat="33.810313" lon="-118.3938665">
  <ele>-0.12</ele>
  <time>2026-09-01T01:12:17Z</time>
  <course>94.99</course>
  <speed>0.0</speed>
  <fix>3d</fix>
</trkpt>
<trkpt lat="33.8103145" lon="-118.3938681">
  <ele>-0.131</ele>
  <time>2026-09-01T01:12:17Z</time>
  <course>185.7</course>
  <speed>0.2</speed>
  <fix>3d</fix>
</trkpt>
<trkpt lat="33.810313" lon="-118.3938665">
  <ele>-0.12</ele>
  <time>2026-09-01T01:12:17Z</time>
  <course>94.99</course>
  <speed>0.0</speed>
  <fix>3d</fix>
</trkpt>
<trkpt lat="33.8103147" lon="-118.3938683">
  <ele>-0.128</ele>
  <time>2026-09-01T01:12:17Z</time>
  <course>185.7</course>
  <speed>0.20615528128088303</speed>
  <fix>3d</fix>
</trkpt>
<trkpt lat="33.810313" lon="-118.3938665">
  <ele>-0.12</ele>
  <time>2026-09-01T01:12:17Z</time>
  <course>94.99</course>
  <speed>0.0</speed>
  <fix>3d</fix>
</trkpt>
<trkpt lat="33.8103144" lon="-118.393868">
  <ele>-0.126</ele>
  <time>2026-09-01T01:12:17Z</time>
  <course>185.7</course>
  <speed>0.19209372712298545</speed>
  <fix>3d</fix>
</trkpt>
<trkpt lat="33.810313" lon="-118.3938665">
  <ele>-0.12</ele>
  <time>2026-09-01T01:12:17Z</time>
  <course>94.99</course>
  <speed>0.0</speed>
  <fix>3d</fix>
</trkpt>
<trkpt lat="33.8103141" lon="-118.3938677">
  <ele>-0.124</ele>
  <time>2026-09-01T01:12:17Z</time>
  <course>185.7</course>
  <speed>0.19209372712298545</speed>
  <fix>3d</fix>
</trkpt>
<trkpt lat="33.810313" lon="-118.3938665">
  <ele>-0.12</ele>
  <time>2026-09-01T01:12:17Z</time>
  <course>94.99</course>
  <speed>0.0</speed>
  <fix>3d</fix>
</trkpt>
<trkpt lat="33.8103139" lon="-118.3938675">
  <ele>-0.124</ele>
  <time>2026-09-01T01:12:17Z</time>
  <course>185.7</course>
  <speed>0.18439088914585774</speed>
  <fix>3d</fix>
</trkpt>
<trkpt lat="33.810313" lon="-118.3938665">
  <ele>-0.12</ele>
  <time>2026-09-01T01:12:17Z</time>
  <course>94.99</course>
  <speed>0.0</speed>
  <fix>3d</fix>
</trkpt>
<trkpt lat="33.8103138" lon="-118.3938674">
  <ele>-0.126</ele>
  <time>2026-09-01T01:12:17Z</time>
  <course>185.7</course>
  <speed>0.17804493814764857</speed>
  <fix>3d</fix>
</trkpt>
<trkpt lat="33.810313" lon="-118.3938665">
  <ele>-0.12</ele>
  <time>2026-09-01T01:12:17Z</time>
  <course>94.99</course>
  <speed>0.0</speed>
  <fix>3d</fix>
</trkpt>
<trkpt lat="33.8103137" lon="-118.3938674">
  <ele>-0.129</ele>
  <time>2026-09-01T01:12:17Z</time>
  <course>185.7</course>
  <speed>0.17804493814764857</speed>
  <fix>3d</fix>
</trkpt>
<trkpt lat="33.810313" lon="-118.3938665">
  <ele>-0.12</ele>
  <time>2026-09-01T01:12:17Z</time>
  <course>94.99</course>
  <speed>0.0</speed>
  <fix>3d</fix>
</trkpt>
<trkpt lat="33.8103138" lon="-118.3938674">
  <ele>-0.132</ele>
  <time>2026-09-01T01:12:17Z</time>
  <course>185.7</course>
  <speed>0.18439088914585774</speed>
  <fix>3d</fix>
</trkpt>
<trkpt lat="33.810313" lon="-118.3938665">
  <ele>-0.12</ele>
  <time>2026-09-01T01:12:17Z</time>
  <course>94.99</course>
  <speed>0.0</speed>
  <fix>3d</fix>
</trkpt>
<trkpt lat="33.8103138" lon="-118.3938675">
  <ele>-0.136</ele>
  <time>2026-09-01T01:12:17Z</time>
  <course>185.7</course>
  <speed>0.19209372712298545</speed>
  <fix>3d</fix>
</trkpt>
<trkpt lat="33.810313" lon="-118.3938665">
  <ele>-0.12</ele>
  <time>2026-09-01T01:12:17Z</time>
  <course>94.99</course>
  <speed>0.0</speed>
  <fix>3d</fix>
</trkpt>
<trkpt lat="33.8103139" lon="-118.3938676">
  <ele>-0.138</ele>
  <time>2026-09-01T01:12:17Z</time>
  <course>185.7</course>
  <speed>0.19209372712298545</speed>
  <fix>3d</fix>
</trkpt>
<trkpt lat="33.810313" lon="-118.3938665">
  <ele>-0.12</ele>
  <time>2026-09-01T01:12:17Z</time>
  <course>94.99</course>
  <speed>0.0</speed>
  <fix>3d</fix>
</trkpt>
<trkpt lat="33.8103141" lon="-118.3938677">
  <ele>-0.138</ele>
  <time>2026-09-01T01:12:17Z</time>
  <course>185.7</course>
  <speed>0.19209372712298545</speed>
  <fix>3d</fix>
</trkpt>
<trkpt lat="33.810313" lon="-118.3938665">
  <ele>-0.12</ele>
  <time>2026-09-01T01:12:17Z</time>
  <course>94.99</course>
  <speed>0.0</speed>
  <fix>3d</fix>
</trkpt>
<trkpt lat="33.8103142" lon="-118.3938679">
  <ele>-0.138</ele>
  <time>2026-09-01T01:12:17Z</time>
  <course>185.7</course>
  <speed>0.20615528128088303</speed>
  <fix>3d</fix>
</trkpt>
<trkpt lat="33.810313" lon="-118.3938665">
  <ele>-0.12</ele>
  <time>2026-09-01T01:12:17Z</time>
  <course>94.99</course>
  <speed>0.0</speed>
  <fix>3d</fix>
</trkpt>
<trkpt lat="33.8103144" lon="-118.393868">
  <ele>-0.137</ele>
  <time>2026-09-01T01:12:17Z</time>
  <course>185.7</course>
  <speed>0.20615528128088303</speed>
  <fix>3d</fix>
</trkpt>
<trkpt lat="33.810313" lon="-118.3938665">
  <ele>-0.12</ele>
  <time>2026-09-01T01:12:17Z</time>
  <course>94.99</course>
  <speed>0.0</speed>
  <fix>3d</fix>
</trkpt>
<trkpt lat="33.8103141" lon="-118.3938678">
  <ele>-0.134</ele>
  <time>2026-09-01T01:12:17Z</time>
  <course>185.7</course>
  <speed>0.2</speed>
  <fix>3d</fix>
</trkpt>
<trkpt lat="33.810313" lon="-118.3938665">
  <ele>-0.12</ele>
  <time>2026-09-01T01:12:17Z</time>
  <course>94.99</course>
  <speed>0.0</speed>
  <fix>3d</fix>
</trkpt>
<trkpt lat="33.8103138" lon="-118.3938674">
  <ele>-0.131</ele>
  <time>2026-09-01T01:12:17Z</time>
  <course>185.7</course>
  <speed>0.19209372712298545</speed>
  <fix>3d</fix>
</trkpt>
<trkpt lat="33.810313" lon="-118.3938665">
  <ele>-0.12</ele>
  <time>2026-09-01T01:12:17Z</time>
  <course>94.99</course>
  <speed>0.0</speed>
  <fix>3d</fix>
</trkpt>
<trkpt lat="33.8103136" lon="-118.3938672">
  <ele>-0.129</ele>
  <time>2026-09-01T01:12:17Z</time>
  <course>185.7</course>
  <speed>0.18439088914585774</speed>
  <fix>3d</fix>
</trkpt>
<trkpt lat="33.810313" lon="-118.3938665">
  <ele>-0.12</ele>
  <time>2026-09-01T01:12:17Z</time>
  <course>94.99</course>
  <speed>0.0</speed>
  <fix>3d</fix>
</trkpt>
<trkpt lat="33.8103135" lon="-118.3938671">
  <ele>-0.128</ele>
  <time>2026-09-01T01:12:17Z</time>
  <course>185.69</course>
  <speed>0.17804493814764857</speed>
  <fix>3d</fix>
</trkpt>
<trkpt lat="33.810313" lon="-118.3938665">
  <ele>-0.12</ele>
  <time>2026-09-01T01:12:17Z</time>
  <course>94.99</course>
  <speed>0.0</speed>
  <fix>3d</fix>
</trkpt>
<trkpt lat="33.8103134" lon="-118.3938671">
  <ele>-0.128</ele>
  <time>2026-09-01T01:12:17Z</time>
  <course>185.69</course>
  <speed>0.17804493814764857</speed>
  <fix>3d</fix>
</trkpt>
<trkpt lat="33.810313" lon="-118.3938665">
  <ele>-0.12</ele>
  <time>2026-09-01T01:12:17Z</time>
  <course>94.99</course>
  <speed>0.0</speed>
  <fix>3d</fix>
</trkpt>
<trkpt lat="33.8103135" lon="-118.3938671">
  <ele>-0.13</ele>
  <time>2026-09-01T01:12:17Z</time>
  <course>185.69</course>
  <speed>0.18439088914585774</speed>
  <fix>3d</fix>
</trkpt>
<trkpt lat="33.810313" lon="-118.3938665">
  <ele>-0.12</ele>
  <time>2026-09-01T01:12:17Z</time>
  <course>94.99</course>
  <speed>0.0</speed>
  <fix>3d</fix>
</trkpt>
<trkpt lat="33.8103135" lon="-118.3938672">
  <ele>-0.132</ele>
  <time>2026-09-01T01:12:17Z</time>
  <course>185.69</course>
  <speed>0.19209372712298545</speed>
  <fix>3d</fix>
</trkpt>
<trkpt lat="33.810313" lon="-118.3938665">
  <ele>-0.12</ele>
  <time>2026-09-01T01:12:17Z</time>
  <course>94.99</course>
  <speed>0.0</speed>
  <fix>3d</fix>
</trkpt>
<trkpt lat="33.8103136" lon="-118.3938673">
  <ele>-0.134</ele>
  <time>2026-09-01T01:12:17Z</time>
  <course>185.69</course>
  <speed>0.19209372712298545</speed>
  <fix>3d</fix>
</trkpt>
<trkpt lat="33.810313" lon="-118.3938665">
  <ele>-0.12</ele>
  <time>2026-09-01T01:12:17Z</time>
  <course>94.99</course>
  <speed>0.0</speed>
  <fix>3d</fix>
</trkpt>
<trkpt lat="33.8103138" lon="-118.3938674">
  <ele>-0.136</ele>
  <time>2026-09-01T01:12:17Z</time>
  <course>185.69</course>
  <speed>0.19209372712298545</speed>
  <fix>3d</fix>
</trkpt>
<trkpt lat="33.810313" lon="-118.3938665">
  <ele>-0.12</ele>
  <time>2026-09-01T01:12:17Z</time>
  <course>94.99</course>
  <speed>0.0</speed>
  <fix>3d</fix>
</trkpt>
<trkpt lat="33.8103139" lon="-118.3938676">
  <ele>-0.137</ele>
  <time>2026-09-01T01:12:17Z</time>
  <course>185.69</course>
  <speed>0.20615528128088303</speed>
  <fix>3d</fix>
</trkpt>
<trkpt lat="33.810313" lon="-118.3938665">
  <ele>-0.12</ele>
  <time>2026-09-01T01:12:17Z</time>
  <course>94.99</course>
  <speed>0.0</speed>
  <fix>3d</fix>
</trkpt>
<trkpt lat="33.8103137" lon="-118.3938673">
  <ele>-0.136</ele>
  <time>2026-09-01T01:12:18Z</time>
  <course>185.69</course>
  <speed>0.19209372712298545</speed>
  <fix>3d</fix>
</trkpt>
<trkpt lat="33.810313" lon="-118.3938665">
  <ele>-0.12</ele>
  <time>2026-09-01T01:12:18Z</time>
  <course>94.99</course>
  <speed>0.0</speed>
  <fix>3d</fix>
</trkpt>
<trkpt lat="33.8103133" lon="-118.393867">
  <ele>-0.134</ele>
  <time>2026-09-01T01:12:18Z</time>
  <course>185.69</course>
  <speed>0.19209372712298545</speed>
  <fix>3d</fix>
</trkpt>
<trkpt lat="33.810313" lon="-118.3938665">
  <ele>-0.12</ele>
  <time>2026-09-01T01:12:18Z</time>
  <course>94.99</course>
  <speed>0.0</speed>
  <fix>3d</fix>
</trkpt>
<trkpt lat="33.8103131" lon="-118.3938668">
  <ele>-0.132</ele>
  <time>2026-09-01T01:12:18Z</time>
  <course>185.69</course>
  <speed>0.17804493814764857</speed>
  <fix>3d</fix>
</trkpt>
<trkpt lat="33.810313" lon="-118.3938665">
  <ele>-0.12</ele>
  <time>2026-09-01T01:12:18Z</time>
  <course>94.99</course>
  <speed>0.0</speed>
  <fix>3d</fix>
</trkpt>
<trkpt lat="33.810313" lon="-118.3938667">
  <ele>-0.129</ele>
  <time>2026-09-01T01:12:18Z</time>
  <course>185.69</course>
  <speed>0.17804493814764857</speed>
  <fix>3d</fix>
</trkpt>
<trkpt lat="33.810313" lon="-118.3938665">
  <ele>-0.12</ele>
  <time>2026-09-01T01:12:18Z</time>
  <course>94.99</course>
  <speed>0.0</speed>
  <fix>3d</fix>
</trkpt>
<trkpt lat="33.810313" lon="-118.3938667">
  <ele>-0.127</ele>
  <time>2026-09-01T01:12:18Z</time>
  <course>185.69</course>
  <speed>0.17804493814764857</speed>
  <fix>3d</fix>
</trkpt>
<trkpt lat="33.810313" lon="-118.3938665">
  <ele>-0.12</ele>
  <time>2026-09-01T01:12:18Z</time>
  <course>94.99</course>
  <speed>0.0</speed>
  <fix>3d</fix>
</trkpt>
<trkpt lat="33.8103131" lon="-118.3938668">
  <ele>-0.126</ele>
  <time>2026-09-01T01:12:18Z</time>
  <course>185.69</course>
  <speed>0.17804493814764857</speed>
  <fix>3d</fix>
</trkpt>
<trkpt lat="33.810313" lon="-118.3938665">
  <ele>-0.12</ele>
  <time>2026-09-01T01:12:18Z</time>
  <course>94.99</course>
  <speed>0.0</speed>
  <fix>3d</fix>
</trkpt>
<trkpt lat="33.8103131" lon="-118.3938668">
  <ele>-0.127</ele>
  <time>2026-09-01T01:12:18Z</time>
  <course>185.69</course>
  <speed>0.19209372712298545</speed>
  <fix>3d</fix>
</trkpt>
<trkpt lat="33.810313" lon="-118.3938665">
  <ele>-0.12</ele>
  <time>2026-09-01T01:12:18Z</time>
  <course>94.99</course>
  <speed>0.0</speed>
  <fix>3d</fix>
</trkpt>
<trkpt lat="33.8103132" lon="-118.3938669">
  <ele>-0.127</ele>
  <time>2026-09-01T01:12:18Z</time>
  <course>185.69</course>
  <speed>0.19209372712298545</speed>
  <fix>3d</fix>
</trkpt>
<trkpt lat="33.810313" lon="-118.3938665">
  <ele>-0.12</ele>
  <time>2026-09-01T01:12:18Z</time>
  <course>94.99</course>
  <speed>0.0</speed>
  <fix>3d</fix>
</trkpt>
<trkpt lat="33.8103134" lon="-118.393867">
  <ele>-0.128</ele>
  <time>2026-09-01T01:12:18Z</time>
  <course>185.69</course>
  <speed>0.19209372712298545</speed>
  <fix>3d</fix>
</trkpt>
<trkpt lat="33.810313" lon="-118.3938665">
  <ele>-0.12</ele>
  <time>2026-09-01T01:12:18Z</time>
  <course>94.99</course>
  <speed>0.0</speed>
  <fix>3d</fix>
</trkpt>
<trkpt lat="33.8103135" lon="-118.3938672">
  <ele>-0.129</ele>
  <time>2026-09-01T01:12:18Z</time>
  <course>185.69</course>
  <speed>0.19209372712298545</speed>
  <fix>3d</fix>
</trkpt>
<trkpt lat="33.810313" lon="-118.3938665">
  <ele>-0.12</ele>
  <time>2026-09-01T01:12:18Z</time>
  <course>94.99</course>
  <speed>0.0</speed>
  <fix>3d</fix>
</trkpt>
<trkpt lat="33.8103137" lon="-118.3938673">
  <ele>-0.129</ele>
  <time>2026-09-01T01:12:18Z</time>
  <course>185.69</course>
  <speed>0.20615528128088303</speed>
  <fix>3d</fix>
</trkpt>
<trkpt lat="33.810313" lon="-118.3938665">
  <ele>-0.12</ele>
  <time>2026-09-01T01:12:18Z</time>
  <course>94.99</course>
  <speed>0.0</speed>
  <fix>3d</fix>
</trkpt>
<trkpt lat="33.8103134" lon="-118.3938671">
  <ele>-0.129</ele>
  <time>2026-09-01T01:12:18Z</time>
  <course>185.69</course>
  <speed>0.19209372712298545</speed>
  <fix>3d</fix>
</trkpt>
<trkpt lat="33.810313" lon="-118.3938665">
  <ele>-0.12</ele>
  <time>2026-09-01T01:12:18Z</time>
  <course>94.99</course>
  <speed>0.0</speed>
  <fix>3d</fix>
</trkpt>
<trkpt lat="33.8103131" lon="-118.3938668">
  <ele>-0.128</ele>
  <time>2026-09-01T01:12:18Z</time>
  <course>185.69</course>
  <speed>0.19209372712298545</speed>
  <fix>3d</fix>
</trkpt>
<trkpt lat="33.810313" lon="-118.3938665">
  <ele>-0.12</ele>
  <time>2026-09-01T01:12:18Z</time>
  <course>94.99</course>
  <speed>0.0</speed>
  <fix>3d</fix>
</trkpt>
<trkpt lat="33.8103129" lon="-118.3938666">
  <ele>-0.126</ele>
  <time>2026-09-01T01:12:18Z</time>
  <course>185.69</course>
  <speed>0.18439088914585774</speed>
  <fix>3d</fix>
</trkpt>
<trkpt lat="33.810313" lon="-118.3938665">
  <ele>-0.12</ele>
  <time>2026-09-01T01:12:18Z</time>
  <course>94.99</course>
  <speed>0.0</speed>
  <fix>3d</fix>
</trkpt>
<trkpt lat="33.8103128" lon="-118.3938665">
  <ele>-0.124</ele>
  <time>2026-09-01T01:12:18Z</time>
  <course>185.68</course>
  <speed>0.17804493814764857</speed>
  <fix>3d</fix>
</trkpt>
<trkpt lat="33.810313" lon="-118.3938665">
  <ele>-0.12</ele>
  <time>2026-09-01T01:12:18Z</time>
  <course>94.99</course>
  <speed>0.0</speed>
  <fix>3d</fix>
</trkpt>
<trkpt lat="33.8103128" lon="-118.3938665">
  <ele>-0.122</ele>
  <time>2026-09-01T01:12:18Z</time>
  <course>185.68</course>
  <speed>0.17804493814764857</speed>
  <fix>3d</fix>
</trkpt>
<trkpt lat="33.810313" lon="-118.3938665">
  <ele>-0.12</ele>
  <time>2026-09-01T01:12:18Z</time>
  <course>94.99</course>
  <speed>0.0</speed>
  <fix>3d</fix>
</trkpt>
<trkpt lat="33.8103128" lon="-118.3938665">
  <ele>-0.119</ele>
  <time>2026-09-01T01:12:18Z</time>
  <course>185.68</course>
  <speed>0.18439088914585774</speed>
  <fix>3d</fix>
</trkpt>
<trkpt lat="33.810313" lon="-118.3938665">
  <ele>-0.12</ele>
  <time>2026-09-01T01:12:18Z</time>
  <course>94.99</course>
  <speed>0.0</speed>
  <fix>3d</fix>
</trkpt>
<trkpt lat="33.8103129" lon="-118.3938666">
  <ele>-0.119</ele>
  <time>2026-09-01T01:12:18Z</time>
  <course>185.68</course>
  <speed>0.19209372712298545</speed>
  <fix>3d</fix>
</trkpt>
<trkpt lat="33.810313" lon="-118.3938665">
  <ele>-0.12</ele>
  <time>2026-09-01T01:12:18Z</time>
  <course>94.99</course>
  <speed>0.0</speed>
  <fix>3d</fix>
</trkpt>
<trkpt lat="33.810313" lon="-118.3938667">
  <ele>-0.12</ele>
  <time>2026-09-01T01:12:18Z</time>
  <course>185.68</course>
  <speed>0.19209372712298545</speed>
  <fix>3d</fix>
</trkpt>
<trkpt lat="33.810313" lon="-118.3938665">
  <ele>-0.12</ele>
  <time>2026-09-01T01:12:18Z</time>
  <course>94.99</course>
  <speed>0.0</speed>
  <fix>3d</fix>
</trkpt>
<trkpt lat="33.8103132" lon="-118.3938668">
  <ele>-0.122</ele>
  <time>2026-09-01T01:12:18Z</time>
  <course>185.68</course>
  <speed>0.19209372712298545</speed>
  <fix>3d</fix>
</trkpt>
<trkpt lat="33.810313" lon="-118.3938665">
  <ele>-0.12</ele>
  <time>2026-09-01T01:12:18Z</time>
  <course>94.99</course>
  <speed>0.0</speed>
  <fix>3d</fix>
</trkpt>
<trkpt lat="33.8103133" lon="-118.393867">
  <ele>-0.124</ele>
  <time>2026-09-01T01:12:18Z</time>
  <course>185.68</course>
  <speed>0.20615528128088303</speed>
  <fix>3d</fix>
</trkpt>
<trkpt lat="33.810313" lon="-118.3938665">
  <ele>-0.12</ele>
  <time>2026-09-01T01:12:18Z</time>
  <course>94.99</course>
  <speed>0.0</speed>
  <fix>3d</fix>
</trkpt>
<trkpt lat="33.8103134" lon="-118.3938671">
  <ele>-0.126</ele>
  <time>2026-09-01T01:12:18Z</time>
  <course>185.68</course>
  <speed>0.20615528128088303</speed>
  <fix>3d</fix>
</trkpt>
<trkpt lat="33.810313" lon="-118.3938665">
  <ele>-0.12</ele>
  <time>2026-09-01T01:12:18Z</time>
  <course>94.99</course>
  <speed>0.0</speed>
  <fix>3d</fix>
</trkpt>
<trkpt lat="33.8103131" lon="-118.3938668">
  <ele>-0.128</ele>
  <time>2026-09-01T01:12:18Z</time>
  <course>185.68</course>
  <speed>0.19209372712298545</speed>
  <fix>3d</fix>
</trkpt>
<trkpt lat="33.810313" lon="-118.3938665">
  <ele>-0.12</ele>
  <time>2026-09-01T01:12:18Z</time>
  <course>94.99</course>
  <speed>0.0</speed>
  <fix>3d</fix>
</trkpt>
<trkpt lat="33.8103128" lon="-118.3938665">
  <ele>-0.129</ele>
  <time>2026-09-01T01:12:18Z</time>
  <course>185.68</course>
  <speed>0.19209372712298545</speed>
  <fix>3d</fix>
</trkpt>
<trkpt lat="33.810313" lon="-118.3938665">
  <ele>-0.12</ele>
  <time>2026-09-01T01:12:18Z</time>
  <course>94.99</course>
  <speed>0.0</speed>
  <fix>3d</fix>
</trkpt>
<trkpt lat="33.8103127" lon="-118.3938664">
  <ele>-0.13</ele>
  <time>2026-09-01T01:12:18Z</time>
  <course>185.68</course>
  <speed>0.18439088914585774</speed>
  <fix>3d</fix>
</trkpt>
<trkpt lat="33.810313" lon="-118.3938665">
  <ele>-0.12</ele>
  <time>2026-09-01T01:12:18Z</time>
  <course>94.99</course>
  <speed>0.0</speed>
  <fix>3d</fix>
</trkpt>
<trkpt lat="33.8103126" lon="-118.3938663">
  <ele>-0.13</ele>
  <time>2026-09-01T01:12:18Z</time>
  <course>185.68</course>
  <speed>0.17804493814764857</speed>
  <fix>3d</fix>
</trkpt>
<trkpt lat="33.810313" lon="-118.3938665">
  <ele>-0.12</ele>
  <time>2026-09-01T01:12:18Z</time>
  <course>94.99</course>
  <speed>0.0</speed>
  <fix>3d</fix>
</trkpt>
<trkpt lat="33.8103126" lon="-118.3938663">
  <ele>-0.129</ele>
  <time>2026-09-01T01:12:18Z</time>
  <course>185.68</course>
  <speed>0.17804493814764857</speed>
  <fix>3d</fix>
</trkpt>
<trkpt lat="33.810313" lon="-118.3938665">
  <ele>-0.12</ele>
  <time>2026-09-01T01:12:18Z</time>
  <course>94.99</course>
  <speed>0.0</speed>
  <fix>3d</fix>
</trkpt>
<trkpt lat="33.8103126" lon="-118.3938663">
  <ele>-0.128</ele>
  <time>2026-09-01T01:12:18Z</time>
  <course>185.68</course>
  <speed>0.18439088914585774</speed>
  <fix>3d</fix>
</trkpt>
<trkpt lat="33.810313" lon="-118.3938665">
  <ele>-0.12</ele>
  <time>2026-09-01T01:12:18Z</time>
  <course>94.99</course>
  <speed>0.0</speed>
  <fix>3d</fix>
</trkpt>
<trkpt lat="33.8103127" lon="-118.3938664">
  <ele>-0.127</ele>
  <time>2026-09-01T01:12:18Z</time>
  <course>185.68</course>
  <speed>0.19209372712298545</speed>
  <fix>3d</fix>
</trkpt>
<trkpt lat="33.810313" lon="-118.3938665">
  <ele>-0.12</ele>
  <time>2026-09-01T01:12:18Z</time>
  <course>94.99</course>
  <speed>0.0</speed>
  <fix>3d</fix>
</trkpt>
<trkpt lat="33.8103128" lon="-118.3938665">
  <ele>-0.127</ele>
  <time>2026-09-01T01:12:18Z</time>
  <course>185.68</course>
  <speed>0.19209372712298545</speed>
  <fix>3d</fix>
</trkpt>
<trkpt lat="33.810313" lon="-118.3938665">
  <ele>-0.12</ele>
  <time>2026-09-01T01:12:18Z</time>
  <course>94.99</course>
  <speed>0.0</speed>
  <fix>3d</fix>
</trkpt>
<trkpt lat="33.8103129" lon="-118.3938666">
  <ele>-0.128</ele>
  <time>2026-09-01T01:12:18Z</time>
  <course>185.68</course>
  <speed>0.19209372712298545</speed>
  <fix>3d</fix>
</trkpt>
<trkpt lat="33.810313" lon="-118.3938665">
  <ele>-0.12</ele>
  <time>2026-09-01T01:12:18Z</time>
  <course>94.99</course>
  <speed>0.0</speed>
  <fix>3d</fix>
</trkpt>
<trkpt lat="33.8103131" lon="-118.3938668">
  <ele>-0.128</ele>
  <time>2026-09-01T01:12:18Z</time>
  <course>185.68</course>
  <speed>0.20615528128088303</speed>
  <fix>3d</fix>
</trkpt>
<trkpt lat="33.810313" lon="-118.3938665">
  <ele>-0.12</ele>
  <time>2026-09-01T01:12:18Z</time>
  <course>94.99</course>
  <speed>0.0</speed>
  <fix>3d</fix>
</trkpt>
<trkpt lat="33.8103128" lon="-118.3938665">
  <ele>-0.129</ele>
  <time>2026-09-01T01:12:18Z</time>
  <course>185.68</course>
  <speed>0.19209372712298545</speed>
  <fix>3d</fix>
</trkpt>
<trkpt lat="33.810313" lon="-118.3938665">
  <ele>-0.12</ele>
  <time>2026-09-01T01:12:18Z</time>
  <course>94.99</course>
  <speed>0.0</speed>
  <fix>3d</fix>
</trkpt>
<trkpt lat="33.8103125" lon="-118.3938662">
  <ele>-0.129</ele>
  <time>2026-09-01T01:12:18Z</time>
  <course>185.68</course>
  <speed>0.18439088914585774</speed>
  <fix>3d</fix>
</trkpt>
<trkpt lat="33.810313" lon="-118.3938665">
  <ele>-0.12</ele>
  <time>2026-09-01T01:12:18Z</time>
  <course>94.99</course>
  <speed>0.0</speed>
  <fix>3d</fix>
</trkpt>
<trkpt lat="33.8103123" lon="-118.3938661">
  <ele>-0.129</ele>
  <time>2026-09-01T01:12:18Z</time>
  <course>185.68</course>
  <speed>0.17804493814764857</speed>
  <fix>3d</fix>
</trkpt>
<trkpt lat="33.810313" lon="-118.3938665">
  <ele>-0.12</ele>
  <time>2026-09-01T01:12:18Z</time>
  <course>94.99</course>
  <speed>0.0</speed>
  <fix>3d</fix>
</trkpt>
<trkpt lat="33.8103123" lon="-118.393866">
  <ele>-0.129</ele>
  <time>2026-09-01T01:12:18Z</time>
  <course>185.68</course>
  <speed>0.17804493814764857</speed>
  <fix>3d</fix>
</trkpt>
<trkpt lat="33.810313" lon="-118.3938665">
  <ele>-0.12</ele>
  <time>2026-09-01T01:12:18Z</time>
  <course>94.99</course>
  <speed>0.0</speed>
  <fix>3d</fix>
</trkpt>
<trkpt lat="33.8103123" lon="-118.393866">
  <ele>-0.129</ele>
  <time>2026-09-01T01:12:18Z</time>
  <course>185.67</course>
  <speed>0.17804493814764857</speed>
  <fix>3d</fix>
</trkpt>
<trkpt lat="33.810313" lon="-118.3938665">
  <ele>-0.12</ele>
  <time>2026-09-01T01:12:18Z</time>
  <course>94.99</course>
  <speed>0.0</speed>
  <fix>3d</fix>
</trkpt>
<trkpt lat="33.8103123" lon="-118.393866">
  <ele>-0.128</ele>
  <time>2026-09-01T01:12:18Z</time>
  <course>185.67</course>
  <speed>0.17804493814764857</speed>
  <fix>3d</fix>
</trkpt>
<trkpt lat="33.810313" lon="-118.3938665">
  <ele>-0.12</ele>
  <time>2026-09-01T01:12:18Z</time>
  <course>94.99</course>
  <speed>0.0</speed>
  <fix>3d</fix>
</trkpt>
<trkpt lat="33.8103124" lon="-118.3938661">
  <ele>-0.127</ele>
  <time>2026-09-01T01:12:18Z</time>
  <course>185.67</course>
  <speed>0.18439088914585774</speed>
  <fix>3d</fix>
</trkpt>
<trkpt lat="33.810313" lon="-118.3938665">
  <ele>-0.12</ele>
  <time>2026-09-01T01:12:18Z</time>
  <course>94.99</course>
  <speed>0.0</speed>
  <fix>3d</fix>
</trkpt>
<trkpt lat="33.8103125" lon="-118.3938662">
  <ele>-0.126</ele>
  <time>2026-09-01T01:12:18Z</time>
  <course>185.67</course>
  <speed>0.19209372712298545</speed>
  <fix>3d</fix>
</trkpt>
<trkpt lat="33.810313" lon="-118.3938665">
  <ele>-0.12</ele>
  <time>2026-09-01T01:12:18Z</time>
  <course>94.99</course>
  <speed>0.0</speed>
  <fix>3d</fix>
</trkpt>
<trkpt lat="33.8103126" lon="-118.3938663">
  <ele>-0.127</ele>
  <time>2026-09-01T01:12:18Z</time>
  <course>185.67</course>
  <speed>0.19209372712298545</speed>
  <fix>3d</fix>
</trkpt>
<trkpt lat="33.810313" lon="-118.3938665">
  <ele>-0.12</ele>
  <time>2026-09-01T01:12:18Z</time>
  <course>94.99</course>
  <speed>0.0</speed>
  <fix>3d</fix>
</trkpt>
<trkpt lat="33.8103128" lon="-118.3938665">
  <ele>-0.127</ele>
  <time>2026-09-01T01:12:18Z</time>
  <course>185.67</course>
  <speed>0.19209372712298545</speed>
  <fix>3d</fix>
</trkpt>
<trkpt lat="33.810313" lon="-118.3938665">
  <ele>-0.12</ele>
  <time>2026-09-01T01:12:18Z</time>
  <course>94.99</course>
  <speed>0.0</speed>
  <fix>3d</fix>
</trkpt>
<trkpt lat="33.8103126" lon="-118.3938663">
  <ele>-0.127</ele>
  <time>2026-09-01T01:12:18Z</time>
  <course>185.67</course>
  <speed>0.19209372712298545</speed>
  <fix>3d</fix>
</trkpt>
<trkpt lat="33.810313" lon="-118.3938665">
  <ele>-0.12</ele>
  <time>2026-09-01T01:12:18Z</time>
  <course>94.99</course>
  <speed>0.0</speed>
  <fix>3d</fix>
</trkpt>
<trkpt lat="33.8103123" lon="-118.393866">
  <ele>-0.128</ele>
  <time>2026-09-01T01:12:18Z</time>
  <course>185.67</course>
  <speed>0.18439088914585774</speed>
  <fix>3d</fix>
</trkpt>
<trkpt lat="33.810313" lon="-118.3938665">
  <ele>-0.12</ele>
  <time>2026-09-01T01:12:18Z</time>
  <course>94.99</course>
  <speed>0.0</speed>
  <fix>3d</fix>
</trkpt>
<trkpt lat="33.8103121" lon="-118.3938658">
  <ele>-0.129</ele>
  <time>2026-09-01T01:12:18Z</time>
  <course>185.67</course>
  <speed>0.17804493814764857</speed>
  <fix>3d</fix>
</trkpt>
<trkpt lat="33.810313" lon="-118.3938665">
  <ele>-0.12</ele>
  <time>2026-09-01T01:12:18Z</time>
  <course>94.99</course>
  <speed>0.0</speed>
  <fix>3d</fix>
</trkpt>
<trkpt lat="33.810313" lon="-118.3938665">
  <ele>-0.129</ele>
  <time>2026-09-01T01:12:18Z</time>
  <course>185.67</course>
  <speed>0.15620499351813308</speed>
  <fix>3d</fix>
</trkpt>
<trkpt lat="33.810313" lon="-118.3938665">
  <ele>-0.12</ele>
  <time>2026-09-01T01:12:18Z</time>
  <course>94.99</course>
  <speed>0.0</speed>
  <fix>3d</fix>
</trkpt>
<trkpt lat="33.810313" lon="-118.3938665">
  <ele>-0.129</ele>
  <time>2026-09-01T01:12:18Z</time>
  <course>185.67</course>
  <speed>0.12806248474865697</speed>
  <fix>3d</fix>
</trkpt>
<trkpt lat="33.810313" lon="-118.3938665">
  <ele>-0.12</ele>
  <time>2026-09-01T01:12:18Z</time>
  <course>94.99</course>
  <speed>0.0</speed>
  <fix>3d</fix>
</trkpt>
<trkpt lat="33.810313" lon="-118.3938665">
  <ele>-0.128</ele>
  <time>2026-09-01T01:12:18Z</time>
  <course>185.67</course>
  <speed>0.11401754250991379</speed>
  <fix>3d</fix>
</trkpt>
<trkpt lat="33.810313" lon="-118.3938665">
  <ele>-0.12</ele>
  <time>2026-09-01T01:12:18Z</time>
  <course>94.99</course>
  <speed>0.0</speed>
  <fix>3d</fix>
</trkpt>
<trkpt lat="33.810313" lon="-118.3938665">
  <ele>-0.126</ele>
  <time>2026-09-01T01:12:18Z</time>
  <course>185.67</course>
  <speed>0.09219544457292887</speed>
  <fix>3d</fix>
</trkpt>
<trkpt lat="33.810313" lon="-118.3938665">
  <ele>-0.12</ele>
  <time>2026-09-01T01:12:18Z</time>
  <course>94.99</course>
  <speed>0.0</speed>
  <fix>3d</fix>
</trkpt>
<trkpt lat="33.810313" lon="-118.3938665">
  <ele>-0.125</ele>
  <time>2026-09-01T01:12:18Z</time>
  <course>185.67</course>
  <speed>0.07810249675906654</speed>
  <fix>3d</fix>
</trkpt>
<trkpt lat="33.810313" lon="-118.3938665">
  <ele>-0.12</ele>
  <time>2026-09-01T01:12:18Z</time>
  <course>94.99</course>
  <speed>0.0</speed>
  <fix>3d</fix>
</trkpt>
<trkpt lat="33.810313" lon="-118.3938665">
  <ele>-0.124</ele>
  <time>2026-09-01T01:12:18Z</time>
  <course>185.67</course>
  <speed>0.06403124237432849</speed>
  <fix>3d</fix>
</trkpt>
<trkpt lat="33.810313" lon="-118.3938665">
  <ele>-0.12</ele>
  <time>2026-09-01T01:12:18Z</time>
  <course>94.99</course>
  <speed>0.0</speed>
  <fix>3d</fix>
</trkpt>
<trkpt lat="33.8103129" lon="-118.3938664">
  <ele>-0.123</ele>
  <time>2026-09-01T01:12:18Z</time>
  <course>185.67</course>
  <speed>0.05</speed>
  <fix>3d</fix>
</trkpt>
<trkpt lat="33.810313" lon="-118.3938665">
  <ele>-0.12</ele>
  <time>2026-09-01T01:12:18Z</time>
  <course>94.99</course>
  <speed>0.0</speed>
  <fix>3d</fix>
</trkpt>
<trkpt lat="33.810313" lon="-118.3938665">
  <ele>-0.123</ele>
  <time>2026-09-01T01:12:18Z</time>
  <course>185.67</course>
  <speed>0.05</speed>
  <fix>3d</fix>
</trkpt>
<trkpt lat="33.810313" lon="-118.3938665">
  <ele>-0.12</ele>
  <time>2026-09-01T01:12:18Z</time>
  <course>94.99</course>
  <speed>0.0</speed>
  <fix>3d</fix>
</trkpt>
<trkpt lat="33.810313" lon="-118.3938665">
  <ele>-0.123</ele>
  <time>2026-09-01T01:12:18Z</time>
  <course>185.67</course>
  <speed>0.05</speed>
  <fix>3d</fix>
</trkpt>
<trkpt lat="33.810313" lon="-118.3938665">
  <ele>-0.12</ele>
  <time>2026-09-01T01:12:18Z</time>
  <course>94.99</course>
  <speed>0.0</speed>
  <fix>3d</fix>
</trkpt>
<trkpt lat="33.810313" lon="-118.3938665">
  <ele>-0.123</ele>
  <time>2026-09-01T01:12:18Z</time>
  <course>185.67</course>
  <speed>0.05</speed>
  <fix>3d</fix>
</trkpt>
<trkpt lat="33.810313" lon="-118.3938665">
  <ele>-0.12</ele>
  <time>2026-09-01T01:12:18Z</time>
  <course>94.99</course>
  <speed>0.0</speed>
  <fix>3d</fix>
</trkpt>
<trkpt lat="33.8103131" lon="-118.3938666">
  <ele>-0.124</ele>
  <time>2026-09-01T01:12:18Z</time>
  <course>185.67</course>
  <speed>0.05</speed>
  <fix>3d</fix>
</trkpt>
<trkpt lat="33.810313" lon="-118.3938665">
  <ele>-0.12</ele>
  <time>2026-09-01T01:12:18Z</time>
  <course>94.99</course>
  <speed>0.0</speed>
  <fix>3d</fix>
</trkpt>
<trkpt lat="33.8103131" lon="-118.3938666">
  <ele>-0.124</ele>
  <time>2026-09-01T01:12:18Z</time>
  <course>185.67</course>
  <speed>0.05</speed>
  <fix>3d</fix>
</trkpt>
<trkpt lat="33.810313" lon="-118.3938665">
  <ele>-0.12</ele>
  <time>2026-09-01T01:12:18Z</time>
  <course>94.99</course>
  <speed>0.0</speed>
  <fix>3d</fix>
</trkpt>
<trkpt lat="33.8103132" lon="-118.3938667">
  <ele>-0.124</ele>
  <time>2026-09-01T01:12:18Z</time>
  <course>185.67</course>
  <speed>0.06403124237432849</speed>
  <fix>3d</fix>
</trkpt>
<trkpt lat="33.810313" lon="-118.3938665">
  <ele>-0.12</ele>
  <time>2026-09-01T01:12:18Z</time>
  <course>94.99</course>
  <speed>0.0</speed>
  <fix>3d</fix>
</trkpt>
<trkpt lat="33.8103132" lon="-118.3938667">
  <ele>-0.123</ele>
  <time>2026-09-01T01:12:18Z</time>
  <course>185.67</course>
  <speed>0.06403124237432849</speed>
  <fix>3d</fix>
</trkpt>
<trkpt lat="33.810313" lon="-118.3938665">
  <ele>-0.12</ele>
  <time>2026-09-01T01:12:18Z</time>
  <course>94.99</course>
  <speed>0.0</speed>
  <fix>3d</fix>
</trkpt>
<trkpt lat="33.8103133" lon="-118.3938668">
  <ele>-0.122</ele>
  <time>2026-09-01T01:12:18Z</time>
  <course>185.67</course>
  <speed>0.06403124237432849</speed>
  <fix>3d</fix>
</trkpt>
<trkpt lat="33.810313" lon="-118.3938664">
  <ele>-0.12</ele>
  <time>2026-09-01T01:12:18Z</time>
  <course>94.99</course>
  <speed>0.0</speed>
  <fix>3d</fix>
</trkpt>
<trkpt lat="33.8103133" lon="-118.3938668">
  <ele>-0.122</ele>
  <time>2026-09-01T01:12:18Z</time>
  <course>185.67</course>
  <speed>0.06403124237432849</speed>
  <fix>3d</fix>
</trkpt>
<trkpt lat="33.810313" lon="-118.3938664">
  <ele>-0.12</ele>
  <time>2026-09-01T01:12:18Z</time>
  <course>94.99</course>
  <speed>0.0</speed>
  <fix>3d</fix>
</trkpt>
<trkpt lat="33.8103133" lon="-118.3938668">
  <ele>-0.123</ele>
  <time>2026-09-01T01:12:18Z</time>
  <course>185.67</course>
  <speed>0.06403124237432849</speed>
  <fix>3d</fix>
</trkpt>
<trkpt lat="33.810313" lon="-118.3938664">
  <ele>-0.12</ele>
  <time>2026-09-01T01:12:18Z</time>
  <course>94.99</course>
  <speed>0.0</speed>
  <fix>3d</fix>
</trkpt>
<trkpt lat="33.8103134" lon="-118.3938669">
  <ele>-0.124</ele>
  <time>2026-09-01T01:12:18Z</time>
  <course>185.67</course>
  <speed>0.07810249675906654</speed>
  <fix>3d</fix>
</trkpt>
<trkpt lat="33.810313" lon="-118.3938664">
  <ele>-0.12</ele>
  <time>2026-09-01T01:12:18Z</time>
  <course>94.99</course>
  <speed>0.0</speed>
  <fix>3d</fix>
</trkpt>
<trkpt lat="33.8103135" lon="-118.393867">
  <ele>-0.126</ele>
  <time>2026-09-01T01:12:18Z</time>
  <course>185.67</course>
  <speed>0.07810249675906654</speed>
  <fix>3d</fix>
</trkpt>
<trkpt lat="33.810313" lon="-118.3938664">
  <ele>-0.12</ele>
  <time>2026-09-01T01:12:18Z</time>
  <course>94.99</course>
  <speed>0.0</speed>
  <fix>3d</fix>
</trkpt>
<trkpt lat="33.8103135" lon="-118.393867">
  <ele>-0.128</ele>
  <time>2026-09-01T01:12:18Z</time>
  <course>185.67</course>
  <speed>0.07810249675906654</speed>
  <fix>3d</fix>
</trkpt>
<trkpt lat="33.810313" lon="-118.3938664">
  <ele>-0.12</ele>
  <time>2026-09-01T01:12:18Z</time>
  <course>94.99</course>
  <speed>0.0</speed>
  <fix>3d</fix>
</trkpt>
<trkpt lat="33.8103136" lon="-118.3938671">
  <ele>-0.13</ele>
  <time>2026-09-01T01:12:18Z</time>
  <course>185.67</course>
  <speed>0.07810249675906654</speed>
  <fix>3d</fix>
</trkpt>
<trkpt lat="33.810313" lon="-118.3938664">
  <ele>-0.12</ele>
  <time>2026-09-01T01:12:18Z</time>
  <course>94.99</course>
  <speed>0.0</speed>
  <fix>3d</fix>
</trkpt>
<trkpt lat="33.8103137" lon="-118.3938672">
  <ele>-0.131</ele>
  <time>2026-09-01T01:12:18Z</time>
  <course>185.67</course>
  <speed>0.08602325267042626</speed>
  <fix>3d</fix>
</trkpt>
<trkpt lat="33.810313" lon="-118.3938664">
  <ele>-0.12</ele>
  <time>2026-09-01T01:12:18Z</time>
  <course>94.99</course>
  <speed>0.0</speed>
  <fix>3d</fix>
</trkpt>
<trkpt lat="33.8103139" lon="-118.3938674">
  <ele>-0.132</ele>
  <time>2026-09-01T01:12:18Z</time>
  <course>185.67</course>
  <speed>0.09219544457292887</speed>
  <fix>3d</fix>
</trkpt>
<trkpt lat="33.810313" lon="-118.3938664">
  <ele>-0.12</ele>
  <time>2026-09-01T01:12:18Z</time>
  <course>94.99</course>
  <speed>0.0</speed>
  <fix>3d</fix>
</trkpt>
<trkpt lat="33.8103139" lon="-118.3938674">
  <ele>-0.132</ele>
  <time>2026-09-01T01:12:18Z</time>
  <course>185.67</course>
  <speed>0.09219544457292887</speed>
  <fix>3d</fix>
</trkpt>
<trkpt lat="33.810313" lon="-118.3938664">
  <ele>-0.12</ele>
  <time>2026-09-01T01:12:18Z</time>
  <course>94.99</course>
  <speed>0.0</speed>
  <fix>3d</fix>
</trkpt>
<trkpt lat="33.810314" lon="-118.3938675">
  <ele>-0.13</ele>
  <time>2026-09-01T01:12:18Z</time>
  <course>185.67</course>
  <speed>0.1</speed>
  <fix>3d</fix>
</trkpt>
<trkpt lat="33.810313" lon="-118.3938664">
  <ele>-0.12</ele>
  <time>2026-09-01T01:12:18Z</time>
  <course>94.99</course>
  <speed>0.0</speed>
  <fix>3d</fix>
</trkpt>
<trkpt lat="33.8103141" lon="-118.3938675">
  <ele>-0.129</ele>
  <time>2026-09-01T01:12:18Z</time>
  <course>185.67</course>
  <speed>0.1063014581273465</speed>
  <fix>3d</fix>
</trkpt>
<trkpt lat="33.810313" lon="-118.3938664">
  <ele>-0.12</ele>
  <time>2026-09-01T01:12:18Z</time>
  <course>94.99</course>
  <speed>0.0</speed>
  <fix>3d</fix>
</trkpt>
<trkpt lat="33.8103141" lon="-118.3938676">
  <ele>-0.128</ele>
  <time>2026-09-01T01:12:18Z</time>
  <course>185.67</course>
  <speed>0.1063014581273465</speed>
  <fix>3d</fix>
</trkpt>
<trkpt lat="33.810313" lon="-118.3938664">
  <ele>-0.12</ele>
  <time>2026-09-01T01:12:18Z</time>
  <course>94.99</course>
  <speed>0.0</speed>
  <fix>3d</fix>
</trkpt>
<trkpt lat="33.8103142" lon="-118.3938677">
  <ele>-0.127</ele>
  <time>2026-09-01T01:12:18Z</time>
  <course>185.67</course>
  <speed>0.1063014581273465</speed>
  <fix>3d</fix>
</trkpt>
<trkpt lat="33.810313" lon="-118.3938664">
  <ele>-0.12</ele>
  <time>2026-09-01T01:12:18Z</time>
  <course>94.99</course>
  <speed>0.0</speed>
  <fix>3d</fix>
</trkpt>
<trkpt lat="33.8103142" lon="-118.3938677">
  <ele>-0.128</ele>
  <time>2026-09-01T01:12:18Z</time>
  <course>185.67</course>
  <speed>0.1063014581273465</speed>
  <fix>3d</fix>
</trkpt>
<trkpt lat="33.810313" lon="-118.3938664">
  <ele>-0.12</ele>
  <time>2026-09-01T01:12:18Z</time>
  <course>94.99</course>
  <speed>0.0</speed>
  <fix>3d</fix>
</trkpt>
<trkpt lat="33.8103143" lon="-118.3938678">
  <ele>-0.13</ele>
  <time>2026-09-01T01:12:18Z</time>
  <course>185.67</course>
  <speed>0.11401754250991379</speed>
  <fix>3d</fix>
</trkpt>
<trkpt lat="33.810313" lon="-118.3938664">
  <ele>-0.12</ele>
  <time>2026-09-01T01:12:18Z</time>
  <course>94.99</course>
  <speed>0.0</speed>
  <fix>3d</fix>
</trkpt>
<trkpt lat="33.8103144" lon="-118.3938679">
  <ele>-0.134</ele>
  <time>2026-09-01T01:12:18Z</time>
  <course>185.67</course>
  <speed>0.11401754250991379</speed>
  <fix>3d</fix>
</trkpt>
<trkpt lat="33.810313" lon="-118.3938664">
  <ele>-0.12</ele>
  <time>2026-09-01T01:12:18Z</time>
  <course>94.99</course>
  <speed>0.0</speed>
  <fix>3d</fix>
</trkpt>
<trkpt lat="33.8103145" lon="-118.393868">
  <ele>-0.137</ele>
  <time>2026-09-01T01:12:18Z</time>
  <course>185.67</course>
  <speed>0.11401754250991379</speed>
  <fix>3d</fix>
</trkpt>
<trkpt lat="33.810313" lon="-118.3938664">
  <ele>-0.12</ele>
  <time>2026-09-01T01:12:18Z</time>
  <course>94.99</course>
  <speed>0.0</speed>
  <fix>3d</fix>
</trkpt>
<trkpt lat="33.8103146" lon="-118.393868">
  <ele>-0.14</ele>
  <time>2026-09-01T01:12:18Z</time>
  <course>185.67</course>
  <speed>0.12041594578792296</speed>
  <fix>3d</fix>
</trkpt>
<trkpt lat="33.810313" lon="-118.3938664">
  <ele>-0.12</ele>
  <time>2026-09-01T01:12:18Z</time>
  <course>94.99</course>
  <speed>0.0</speed>
  <fix>3d</fix>
</trkpt>
<trkpt lat="33.8103147" lon="-118.3938681">
  <ele>-0.14</ele>
  <time>2026-09-01T01:12:18Z</time>
  <course>185.67</course>
  <speed>0.12806248474865697</speed>
  <fix>3d</fix>
</trkpt>
<trkpt lat="33.810313" lon="-118.3938664">
  <ele>-0.12</ele>
  <time>2026-09-01T01:12:18Z</time>
  <course>94.99</course>
  <speed>0.0</speed>
  <fix>3d</fix>
</trkpt>
<trkpt lat="33.8103148" lon="-118.3938682">
  <ele>-0.14</ele>
  <time>2026-09-01T01:12:18Z</time>
  <course>185.67</course>
  <speed>0.12806248474865697</speed>
  <fix>3d</fix>
</trkpt>
<trkpt lat="33.810313" lon="-118.3938664">
  <ele>-0.12</ele>
  <time>2026-09-01T01:12:18Z</time>
  <course>94.99</course>
  <speed>0.0</speed>
  <fix>3d</fix>
</trkpt>
<trkpt lat="33.8103149" lon="-118.3938683">
  <ele>-0.14</ele>
  <time>2026-09-01T01:12:18Z</time>
  <course>185.67</course>
  <speed>0.1345362404707371</speed>
  <fix>3d</fix>
</trkpt>
<trkpt lat="33.810313" lon="-118.3938664">
  <ele>-0.12</ele>
  <time>2026-09-01T01:12:18Z</time>
  <course>94.99</course>
  <speed>0.0</speed>
  <fix>3d</fix>
</trkpt>
<trkpt lat="33.8103149" lon="-118.3938684">
  <ele>-0.139</ele>
  <time>2026-09-01T01:12:18Z</time>
  <course>185.67</course>
  <speed>0.14212670403551894</speed>
  <fix>3d</fix>
</trkpt>
<trkpt lat="33.810313" lon="-118.3938664">
  <ele>-0.12</ele>
  <time>2026-09-01T01:12:18Z</time>
  <course>94.99</course>
  <speed>0.0</speed>
  <fix>3d</fix>
</trkpt>
<trkpt lat="33.8103149" lon="-118.3938684">
  <ele>-0.137</ele>
  <time>2026-09-01T01:12:18Z</time>
  <course>185.67</course>
  <speed>0.12806248474865697</speed>
  <fix>3d</fix>
</trkpt>
<trkpt lat="33.810313" lon="-118.3938664">
  <ele>-0.12</ele>
  <time>2026-09-01T01:12:18Z</time>
  <course>94.99</course>
  <speed>0.0</speed>
  <fix>3d</fix>
</trkpt>
<trkpt lat="33.810315" lon="-118.3938684">
  <ele>-0.135</ele>
  <time>2026-09-01T01:12:18Z</time>
  <course>185.67</course>
  <speed>0.14212670403551894</speed>
  <fix>3d</fix>
</trkpt>
<trkpt lat="33.810313" lon="-118.3938664">
  <ele>-0.12</ele>
  <time>2026-09-01T01:12:18Z</time>
  <course>94.99</course>
  <speed>0.0</speed>
  <fix>3d</fix>
</trkpt>
<trkpt lat="33.810315" lon="-118.3938685">
  <ele>-0.134</ele>
  <time>2026-09-01T01:12:18Z</time>
  <course>185.67</course>
  <speed>0.14212670403551894</speed>
  <fix>3d</fix>
</trkpt>
<trkpt lat="33.810313" lon="-118.3938664">
  <ele>-0.12</ele>
  <time>2026-09-01T01:12:18Z</time>
  <course>94.99</course>
  <speed>0.0</speed>
  <fix>3d</fix>
</trkpt>
<trkpt lat="33.8103151" lon="-118.3938686">
  <ele>-0.135</ele>
  <time>2026-09-01T01:12:18Z</time>
  <course>185.67</course>
  <speed>0.14212670403551894</speed>
  <fix>3d</fix>
</trkpt>
<trkpt lat="33.810313" lon="-118.3938664">
  <ele>-0.12</ele>
  <time>2026-09-01T01:12:18Z</time>
  <course>94.99</course>
  <speed>0.0</speed>
  <fix>3d</fix>
</trkpt>
<trkpt lat="33.8103152" lon="-118.3938687">
  <ele>-0.136</ele>
  <time>2026-09-01T01:12:18Z</time>
  <course>185.67</course>
  <speed>0.14212670403551894</speed>
  <fix>3d</fix>
</trkpt>
<trkpt lat="33.810313" lon="-118.3938664">
  <ele>-0.12</ele>
  <time>2026-09-01T01:12:18Z</time>
  <course>94.99</course>
  <speed>0.0</speed>
  <fix>3d</fix>
</trkpt>
<trkpt lat="33.8103153" lon="-118.3938688">
  <ele>-0.136</ele>
  <time>2026-09-01T01:12:18Z</time>
  <course>185.66</course>
  <speed>0.14212670403551894</speed>
  <fix>3d</fix>
</trkpt>
<trkpt lat="33.810313" lon="-118.3938664">
  <ele>-0.12</ele>
  <time>2026-09-01T01:12:18Z</time>
  <course>94.99</course>
  <speed>0.0</speed>
  <fix>3d</fix>
</trkpt>
<trkpt lat="33.8103154" lon="-118.3938689">
  <ele>-0.136</ele>
  <time>2026-09-01T01:12:18Z</time>
  <course>185.66</course>
  <speed>0.15620499351813308</speed>
  <fix>3d</fix>
</trkpt>
<trkpt lat="33.810313" lon="-118.3938664">
  <ele>-0.12</ele>
  <time>2026-09-01T01:12:18Z</time>
  <course>94.99</course>
  <speed>0.0</speed>
  <fix>3d</fix>
</trkpt>
<trkpt lat="33.8103155" lon="-118.393869">
  <ele>-0.135</ele>
  <time>2026-09-01T01:12:18Z</time>
  <course>185.66</course>
  <speed>0.15620499351813308</speed>
  <fix>3d</fix>
</trkpt>
<trkpt lat="33.810313" lon="-118.3938664">
  <ele>-0.12</ele>
  <time>2026-09-01T01:12:18Z</time>
  <course>94.99</course>
  <speed>0.0</speed>
  <fix>3d</fix>
</trkpt>
<trkpt lat="33.8103156" lon="-118.3938691">
  <ele>-0.132</ele>
  <time>2026-09-01T01:12:18Z</time>
  <course>185.66</course>
  <speed>0.15620499351813308</speed>
  <fix>3d</fix>
</trkpt>
<trkpt lat="33.810313" lon="-118.3938664">
  <ele>-0.12</ele>
  <time>2026-09-01T01:12:18Z</time>
  <course>94.99</course>
  <speed>0.0</speed>
  <fix>3d</fix>
</trkpt>
<trkpt lat="33.8103158" lon="-118.3938692">
  <ele>-0.13</ele>
  <time>2026-09-01T01:12:18Z</time>
  <course>185.66</course>
  <speed>0.16401219466856726</speed>
  <fix>3d</fix>
</trkpt>
<trkpt lat="33.810313" lon="-118.3938664">
  <ele>-0.12</ele>
  <time>2026-09-01T01:12:18Z</time>
  <course>94.99</course>
  <speed>0.0</speed>
  <fix>3d</fix>
</trkpt>
<trkpt lat="33.8103158" lon="-118.3938692">
  <ele>-0.128</ele>
  <time>2026-09-01T01:12:18Z</time>
  <course>185.66</course>
  <speed>0.16401219466856726</speed>
  <fix>3d</fix>
</trkpt>
<trkpt lat="33.810313" lon="-118.3938664">
  <ele>-0.12</ele>
  <time>2026-09-01T01:12:18Z</time>
  <course>94.99</course>
  <speed>0.0</speed>
  <fix>3d</fix>
</trkpt>
<trkpt lat="33.8103157" lon="-118.3938692">
  <ele>-0.126</ele>
  <time>2026-09-01T01:12:18Z</time>
  <course>185.66</course>
  <speed>0.16401219466856726</speed>
  <fix>3d</fix>
</trkpt>
<trkpt lat="33.810313" lon="-118.3938664">
  <ele>-0.12</ele>
  <time>2026-09-01T01:12:18Z</time>
  <course>94.99</course>
  <speed>0.0</speed>
  <fix>3d</fix>
</trkpt>
<trkpt lat="33.8103158" lon="-118.3938692">
  <ele>-0.126</ele>
  <time>2026-09-01T01:12:18Z</time>
  <course>185.66</course>
  <speed>0.16401219466856726</speed>
  <fix>3d</fix>
</trkpt>
<trkpt lat="33.810313" lon="-118.3938664">
  <ele>-0.12</ele>
  <time>2026-09-01T01:12:18Z</time>
  <course>94.99</course>
  <speed>0.0</speed>
  <fix>3d</fix>
</trkpt>
<trkpt lat="33.8103158" lon="-118.3938693">
  <ele>-0.127</ele>
  <time>2026-09-01T01:12:18Z</time>
  <course>185.66</course>
  <speed>0.16401219466856726</speed>
  <fix>3d</fix>
</trkpt>
<trkpt lat="33.810313" lon="-118.3938664">
  <ele>-0.12</ele>
  <time>2026-09-01T01:12:18Z</time>
  <course>94.99</course>
  <speed>0.0</speed>
  <fix>3d</fix>
</trkpt>
<trkpt lat="33.8103159" lon="-118.3938693">
  <ele>-0.128</ele>
  <time>2026-09-01T01:12:18Z</time>
  <course>185.66</course>
  <speed>0.16401219466856726</speed>
  <fix>3d</fix>
</trkpt>
<trkpt lat="33.810313" lon="-118.3938664">
  <ele>-0.12</ele>
  <time>2026-09-01T01:12:18Z</time>
  <course>94.99</course>
  <speed>0.0</speed>
  <fix>3d</fix>
</trkpt>
<trkpt lat="33.810316" lon="-118.3938694">
  <ele>-0.13</ele>
  <time>2026-09-01T01:12:18Z</time>
  <course>185.66</course>
  <speed>0.17029386365926402</speed>
  <fix>3d</fix>
</trkpt>
<trkpt lat="33.810313" lon="-118.3938664">
  <ele>-0.12</ele>
  <time>2026-09-01T01:12:18Z</time>
  <course>94.99</course>
  <speed>0.0</speed>
  <fix>3d</fix>
</trkpt>
<trkpt lat="33.8103161" lon="-118.3938695">
  <ele>-0.131</ele>
  <time>2026-09-01T01:12:18Z</time>
  <course>185.66</course>
  <speed>0.17029386365926402</speed>
  <fix>3d</fix>
</trkpt>
<trkpt lat="33.810313" lon="-118.3938664">
  <ele>-0.12</ele>
  <time>2026-09-01T01:12:18Z</time>
  <course>94.99</course>
  <speed>0.0</speed>
  <fix>3d</fix>
</trkpt>
<trkpt lat="33.8103162" lon="-118.3938696">
  <ele>-0.131</ele>
  <time>2026-09-01T01:12:18Z</time>
  <course>185.66</course>
  <speed>0.17804493814764857</speed>
  <fix>3d</fix>
</trkpt>
<trkpt lat="33.810313" lon="-118.3938664">
  <ele>-0.12</ele>
  <time>2026-09-01T01:12:18Z</time>
  <course>94.99</course>
  <speed>0.0</speed>
  <fix>3d</fix>
</trkpt>
<trkpt lat="33.8103163" lon="-118.3938698">
  <ele>-0.13</ele>
  <time>2026-09-01T01:12:18Z</time>
  <course>185.66</course>
  <speed>0.17804493814764857</speed>
  <fix>3d</fix>
</trkpt>
<trkpt lat="33.810313" lon="-118.3938664">
  <ele>-0.12</ele>
  <time>2026-09-01T01:12:18Z</time>
  <course>94.99</course>
  <speed>0.0</speed>
  <fix>3d</fix>
</trkpt>
<trkpt lat="33.8103164" lon="-118.3938699">
  <ele>-0.128</ele>
  <time>2026-09-01T01:12:18Z</time>
  <course>185.66</course>
  <speed>0.18439088914585774</speed>
  <fix>3d</fix>
</trkpt>
<trkpt lat="33.810313" lon="-118.3938664">
  <ele>-0.12</ele>
  <time>2026-09-01T01:12:18Z</time>
  <course>94.99</course>
  <speed>0.0</speed>
  <fix>3d</fix>
</trkpt>
<trkpt lat="33.8103166" lon="-118.39387">
  <ele>-0.125</ele>
  <time>2026-09-01T01:12:18Z</time>
  <course>185.66</course>
  <speed>0.19209372712298545</speed>
  <fix>3d</fix>
</trkpt>
<trkpt lat="33.810313" lon="-118.3938664">
  <ele>-0.12</ele>
  <time>2026-09-01T01:12:18Z</time>
  <course>94.99</course>
  <speed>0.0</speed>
  <fix>3d</fix>
</trkpt>
<trkpt lat="33.8103165" lon="-118.39387">
  <ele>-0.124</ele>
  <time>2026-09-01T01:12:18Z</time>
  <course>185.66</course>
  <speed>0.18439088914585774</speed>
  <fix>3d</fix>
</trkpt>
<trkpt lat="33.810313" lon="-118.3938664">
  <ele>-0.12</ele>
  <time>2026-09-01T01:12:18Z</time>
  <course>94.99</course>
  <speed>0.0</speed>
  <fix>3d</fix>
</trkpt>
<trkpt lat="33.8103164" lon="-118.3938699">
  <ele>-0.124</ele>
  <time>2026-09-01T01:12:18Z</time>
  <course>185.66</course>
  <speed>0.17804493814764857</speed>
  <fix>3d</fix>
</trkpt>
<trkpt lat="33.810313" lon="-118.3938664">
  <ele>-0.12</ele>
  <time>2026-09-01T01:12:18Z</time>
  <course>94.99</course>
  <speed>0.0</speed>
  <fix>3d</fix>
</trkpt>
<trkpt lat="33.8103164" lon="-118.3938699">
  <ele>-0.124</ele>
  <time>2026-09-01T01:12:18Z</time>
  <course>185.66</course>
  <speed>0.17804493814764857</speed>
  <fix>3d</fix>
</trkpt>
<trkpt lat="33.810313" lon="-118.3938664">
  <ele>-0.12</ele>
  <time>2026-09-01T01:12:18Z</time>
  <course>94.99</course>
  <speed>0.0</speed>
  <fix>3d</fix>
</trkpt>
<trkpt lat="33.8103164" lon="-118.3938699">
  <ele>-0.126</ele>
  <time>2026-09-01T01:12:18Z</time>
  <course>185.66</course>
  <speed>0.17804493814764857</speed>
  <fix>3d</fix>
</trkpt>
<trkpt lat="33.810313" lon="-118.3938664">
  <ele>-0.12</ele>
  <time>2026-09-01T01:12:18Z</time>
  <course>94.99</course>
  <speed>0.0</speed>
  <fix>3d</fix>
</trkpt>
<trkpt lat="33.8103165" lon="-118.3938699">
  <ele>-0.127</ele>
  <time>2026-09-01T01:12:18Z</time>
  <course>185.66</course>
  <speed>0.17804493814764857</speed>
  <fix>3d</fix>
</trkpt>
<trkpt lat="33.810313" lon="-118.3938664">
  <ele>-0.12</ele>
  <time>2026-09-01T01:12:18Z</time>
  <course>94.99</course>
  <speed>0.0</speed>
  <fix>3d</fix>
</trkpt>
<trkpt lat="33.8103166" lon="-118.39387">
  <ele>-0.128</ele>
  <time>2026-09-01T01:12:18Z</time>
  <course>185.66</course>
  <speed>0.18439088914585774</speed>
  <fix>3d</fix>
</trkpt>
<trkpt lat="33.810313" lon="-118.3938664">
  <ele>-0.12</ele>
  <time>2026-09-01T01:12:18Z</time>
  <course>94.99</course>
  <speed>0.0</speed>
  <fix>3d</fix>
</trkpt>
<trkpt lat="33.8103167" lon="-118.3938701">
  <ele>-0.127</ele>
  <time>2026-09-01T01:12:18Z</time>
  <course>185.66</course>
  <speed>0.19209372712298545</speed>
  <fix>3d</fix>
</trkpt>
<trkpt lat="33.810313" lon="-118.3938664">
  <ele>-0.12</ele>
  <time>2026-09-01T01:12:18Z</time>
  <course>94.99</course>
  <speed>0.0</speed>
  <fix>3d</fix>
</trkpt>
<trkpt lat="33.8103168" lon="-118.3938702">
  <ele>-0.127</ele>
  <time>2026-09-01T01:12:18Z</time>
  <course>185.66</course>
  <speed>0.19209372712298545</speed>
  <fix>3d</fix>
</trkpt>
<trkpt lat="33.810313" lon="-118.3938664">
  <ele>-0.12</ele>
  <time>2026-09-01T01:12:18Z</time>
  <course>94.99</course>
  <speed>0.0</speed>
  <fix>3d</fix>
</trkpt>
<trkpt lat="33.8103169" lon="-118.3938704">
  <ele>-0.126</ele>
  <time>2026-09-01T01:12:18Z</time>
  <course>185.66</course>
  <speed>0.19209372712298545</speed>
  <fix>3d</fix>
</trkpt>
<trkpt lat="33.810313" lon="-118.3938664">
  <ele>-0.12</ele>
  <time>2026-09-01T01:12:18Z</time>
  <course>94.99</course>
  <speed>0.0</speed>
  <fix>3d</fix>
</trkpt>
<trkpt lat="33.810317" lon="-118.3938705">
  <ele>-0.125</ele>
  <time>2026-09-01T01:12:18Z</time>
  <course>185.66</course>
  <speed>0.20615528128088303</speed>
  <fix>3d</fix>
</trkpt>
<trkpt lat="33.810313" lon="-118.3938664">
  <ele>-0.12</ele>
  <time>2026-09-01T01:12:18Z</time>
  <course>94.99</course>
  <speed>0.0</speed>
  <fix>3d</fix>
</trkpt>
<trkpt lat="33.810317" lon="-118.3938704">
  <ele>-0.123</ele>
  <time>2026-09-01T01:12:18Z</time>
  <course>185.66</course>
  <speed>0.19209372712298545</speed>
  <fix>3d</fix>
</trkpt>
<trkpt lat="33.810313" lon="-118.3938664">
  <ele>-0.12</ele>
  <time>2026-09-01T01:12:18Z</time>
  <course>94.99</course>
  <speed>0.0</speed>
  <fix>3d</fix>
</trkpt>
<trkpt lat="33.8103168" lon="-118.3938703">
  <ele>-0.121</ele>
  <time>2026-09-01T01:12:18Z</time>
  <course>185.65</course>
  <speed>0.19209372712298545</speed>
  <fix>3d</fix>
</trkpt>
<trkpt lat="33.810313" lon="-118.3938664">
  <ele>-0.12</ele>
  <time>2026-09-01T01:12:18Z</time>
  <course>94.99</course>
  <speed>0.0</speed>
  <fix>3d</fix>
</trkpt>
<trkpt lat="33.8103167" lon="-118.3938702">
  <ele>-0.12</ele>
  <time>2026-09-01T01:12:18Z</time>
  <course>185.65</course>
  <speed>0.19209372712298545</speed>
  <fix>3d</fix>
</trkpt>
<trkpt lat="33.810313" lon="-118.3938664">
  <ele>-0.12</ele>
  <time>2026-09-01T01:12:18Z</time>
  <course>94.99</course>
  <speed>0.0</speed>
  <fix>3d</fix>
</trkpt>
<trkpt lat="33.8103167" lon="-118.3938702">
  <ele>-0.119</ele>
  <time>2026-09-01T01:12:18Z</time>
  <course>185.65</course>
  <speed>0.19209372712298545</speed>
  <fix>3d</fix>
</trkpt>
<trkpt lat="33.810313" lon="-118.3938664">
  <ele>-0.12</ele>
  <time>2026-09-01T01:12:18Z</time>
  <course>94.99</course>
  <speed>0.0</speed>
  <fix>3d</fix>
</trkpt>
<trkpt lat="33.8103168" lon="-118.3938702">
  <ele>-0.12</ele>
  <time>2026-09-01T01:12:18Z</time>
  <course>185.65</course>
  <speed>0.19209372712298545</speed>
  <fix>3d</fix>
</trkpt>
<trkpt lat="33.810313" lon="-118.3938664">
  <ele>-0.12</ele>
  <time>2026-09-01T01:12:18Z</time>
  <course>94.99</course>
  <speed>0.0</speed>
  <fix>3d</fix>
</trkpt>
<trkpt lat="33.8103168" lon="-118.3938703">
  <ele>-0.12</ele>
  <time>2026-09-01T01:12:18Z</time>
  <course>185.65</course>
  <speed>0.19209372712298545</speed>
  <fix>3d</fix>
</trkpt>
<trkpt lat="33.810313" lon="-118.3938664">
  <ele>-0.12</ele>
  <time>2026-09-01T01:12:18Z</time>
  <course>94.99</course>
  <speed>0.0</speed>
  <fix>3d</fix>
</trkpt>
<trkpt lat="33.8103169" lon="-118.3938704">
  <ele>-0.12</ele>
  <time>2026-09-01T01:12:18Z</time>
  <course>185.65</course>
  <speed>0.19209372712298545</speed>
  <fix>3d</fix>
</trkpt>
<trkpt lat="33.810313" lon="-118.3938664">
  <ele>-0.12</ele>
  <time>2026-09-01T01:12:18Z</time>
  <course>94.99</course>
  <speed>0.0</speed>
  <fix>3d</fix>
</trkpt>
<trkpt lat="33.8103171" lon="-118.3938705">
  <ele>-0.12</ele>
  <time>2026-09-01T01:12:18Z</time>
  <course>185.65</course>
  <speed>0.19209372712298545</speed>
  <fix>3d</fix>
</trkpt>
<trkpt lat="33.810313" lon="-118.3938664">
  <ele>-0.12</ele>
  <time>2026-09-01T01:12:18Z</time>
  <course>94.99</course>
  <speed>0.0</speed>
  <fix>3d</fix>
</trkpt>
<trkpt lat="33.8103172" lon="-118.3938706">
  <ele>-0.12</ele>
  <time>2026-09-01T01:12:18Z</time>
  <course>185.65</course>
  <speed>0.20615528128088303</speed>
  <fix>3d</fix>
</trkpt>
<trkpt lat="33.810313" lon="-118.3938664">
  <ele>-0.12</ele>
  <time>2026-09-01T01:12:18Z</time>
  <course>94.99</course>
  <speed>0.0</speed>
  <fix>3d</fix>
</trkpt>
<trkpt lat="33.8103173" lon="-118.3938708">
  <ele>-0.12</ele>
  <time>2026-09-01T01:12:18Z</time>
  <course>185.65</course>
  <speed>0.20615528128088303</speed>
  <fix>3d</fix>
</trkpt>
<trkpt lat="33.810313" lon="-118.3938664">
  <ele>-0.12</ele>
  <time>2026-09-01T01:12:18Z</time>
  <course>94.99</course>
  <speed>0.0</speed>
  <fix>3d</fix>
</trkpt>
<trkpt lat="33.8103175" lon="-118.3938709">
  <ele>-0.121</ele>
  <time>2026-09-01T01:12:18Z</time>
  <course>185.65</course>
  <speed>0.20615528128088303</speed>
  <fix>3d</fix>
</trkpt>
<trkpt lat="33.810313" lon="-118.3938664">
  <ele>-0.12</ele>
  <time>2026-09-01T01:12:18Z</time>
  <course>94.99</course>
  <speed>0.0</speed>
  <fix>3d</fix>
</trkpt>
<trkpt lat="33.8103173" lon="-118.3938708">
  <ele>-0.121</ele>
  <time>2026-09-01T01:12:18Z</time>
  <course>185.65</course>
  <speed>0.20615528128088303</speed>
  <fix>3d</fix>
</trkpt>
<trkpt lat="33.810313" lon="-118.3938664">
  <ele>-0.12</ele>
  <time>2026-09-01T01:12:18Z</time>
  <course>94.99</course>
  <speed>0.0</speed>
  <fix>3d</fix>
</trkpt>
<trkpt lat="33.8103171" lon="-118.3938706">
  <ele>-0.121</ele>
  <time>2026-09-01T01:12:18Z</time>
  <course>185.65</course>
  <speed>0.19209372712298545</speed>
  <fix>3d</fix>
</trkpt>
<trkpt lat="33.810313" lon="-118.3938664">
  <ele>-0.12</ele>
  <time>2026-09-01T01:12:18Z</time>
  <course>94.99</course>
  <speed>0.0</speed>
  <fix>3d</fix>
</trkpt>
<trkpt lat="33.810317" lon="-118.3938705">
  <ele>-0.122</ele>
  <time>2026-09-01T01:12:18Z</time>
  <course>185.65</course>
  <speed>0.19209372712298545</speed>
  <fix>3d</fix>
</trkpt>
<trkpt lat="33.810313" lon="-118.3938664">
  <ele>-0.12</ele>
  <time>2026-09-01T01:12:18Z</time>
  <course>94.99</course>
  <speed>0.0</speed>
  <fix>3d</fix>
</trkpt>
<trkpt lat="33.810317" lon="-118.3938704">
  <ele>-0.122</ele>
  <time>2026-09-01T01:12:18Z</time>
  <course>185.65</course>
  <speed>0.19209372712298545</speed>
  <fix>3d</fix>
</trkpt>
<trkpt lat="33.810313" lon="-118.3938664">
  <ele>-0.12</ele>
  <time>2026-09-01T01:12:18Z</time>
  <course>94.99</course>
  <speed>0.0</speed>
  <fix>3d</fix>
</trkpt>
<trkpt lat="33.810317" lon="-118.3938705">
  <ele>-0.122</ele>
  <time>2026-09-01T01:12:18Z</time>
  <course>185.65</course>
  <speed>0.19209372712298545</speed>
  <fix>3d</fix>
</trkpt>
<trkpt lat="33.810313" lon="-118.3938664">
  <ele>-0.12</ele>
  <time>2026-09-01T01:12:18Z</time>
  <course>94.99</course>
  <speed>0.0</speed>
  <fix>3d</fix>
</trkpt>
<trkpt lat="33.8103171" lon="-118.3938705">
  <ele>-0.123</ele>
  <time>2026-09-01T01:12:18Z</time>
  <course>185.65</course>
  <speed>0.19209372712298545</speed>
  <fix>3d</fix>
</trkpt>
<trkpt lat="33.810313" lon="-118.3938664">
  <ele>-0.12</ele>
  <time>2026-09-01T01:12:18Z</time>
  <course>94.99</course>
  <speed>0.0</speed>
  <fix>3d</fix>
</trkpt>
<trkpt lat="33.8103172" lon="-118.3938706">
  <ele>-0.122</ele>
  <time>2026-09-01T01:12:18Z</time>
  <course>185.65</course>
  <speed>0.19209372712298545</speed>
  <fix>3d</fix>
</trkpt>
<trkpt lat="33.810313" lon="-118.3938664">
  <ele>-0.12</ele>
  <time>2026-09-01T01:12:18Z</time>
  <course>94.99</course>
  <speed>0.0</speed>
  <fix>3d</fix>
</trkpt>
<trkpt lat="33.8103173" lon="-118.3938707">
  <ele>-0.123</ele>
  <time>2026-09-01T01:12:18Z</time>
  <course>185.65</course>
  <speed>0.20615528128088303</speed>
  <fix>3d</fix>
</trkpt>
<trkpt lat="33.810313" lon="-118.3938664">
  <ele>-0.12</ele>
  <time>2026-09-01T01:12:18Z</time>
  <course>94.99</course>
  <speed>0.0</speed>
  <fix>3d</fix>
</trkpt>
<trkpt lat="33.8103174" lon="-118.3938708">
  <ele>-0.122</ele>
  <time>2026-09-01T01:12:18Z</time>
  <course>185.65</course>
  <speed>0.20615528128088303</speed>
  <fix>3d</fix>
</trkpt>
<trkpt lat="33.810313" lon="-118.3938664">
  <ele>-0.12</ele>
  <time>2026-09-01T01:12:18Z</time>
  <course>94.99</course>
  <speed>0.0</speed>
  <fix>3d</fix>
</trkpt>
<trkpt lat="33.8103176" lon="-118.393871">
  <ele>-0.122</ele>
  <time>2026-09-01T01:12:18Z</time>
  <course>185.65</course>
  <speed>0.20615528128088303</speed>
  <fix>3d</fix>
</trkpt>
<trkpt lat="33.810313" lon="-118.3938664">
  <ele>-0.12</ele>
  <time>2026-09-01T01:12:18Z</time>
  <course>94.99</course>
  <speed>0.0</speed>
  <fix>3d</fix>
</trkpt>
<trkpt lat="33.8103177" lon="-118.3938711">
  <ele>-0.121</ele>
  <time>2026-09-01T01:12:18Z</time>
  <course>185.65</course>
  <speed>0.22022715545545238</speed>
  <fix>3d</fix>
</trkpt>
<trkpt lat="33.810313" lon="-118.3938664">
  <ele>-0.12</ele>
  <time>2026-09-01T01:12:18Z</time>
  <course>94.99</course>
  <speed>0.0</speed>
  <fix>3d</fix>
</trkpt>
<trkpt lat="33.8103175" lon="-118.393871">
  <ele>-0.121</ele>
  <time>2026-09-01T01:12:18Z</time>
  <course>185.65</course>
  <speed>0.20615528128088303</speed>
  <fix>3d</fix>
</trkpt>
<trkpt lat="33.810313" lon="-118.3938664">
  <ele>-0.12</ele>
  <time>2026-09-01T01:12:18Z</time>
  <course>94.99</course>
  <speed>0.0</speed>
  <fix>3d</fix>
</trkpt>
<trkpt lat="33.8103173" lon="-118.3938707">
  <ele>-0.122</ele>
  <time>2026-09-01T01:12:18Z</time>
  <course>185.65</course>
  <speed>0.20615528128088303</speed>
  <fix>3d</fix>
</trkpt>
<trkpt lat="33.810313" lon="-118.3938664">
  <ele>-0.12</ele>
  <time>2026-09-01T01:12:18Z</time>
  <course>94.99</course>
  <speed>0.0</speed>
  <fix>3d</fix>
</trkpt>
<trkpt lat="33.8103171" lon="-118.3938706">
  <ele>-0.123</ele>
  <time>2026-09-01T01:12:18Z</time>
  <course>185.65</course>
  <speed>0.19209372712298545</speed>
  <fix>3d</fix>
</trkpt>
<trkpt lat="33.810313" lon="-118.3938664">
  <ele>-0.12</ele>
  <time>2026-09-01T01:12:18Z</time>
  <course>94.99</course>
  <speed>0.0</speed>
  <fix>3d</fix>
</trkpt>
<trkpt lat="33.8103171" lon="-118.3938705">
  <ele>-0.124</ele>
  <time>2026-09-01T01:12:18Z</time>
  <course>185.65</course>
  <speed>0.19209372712298545</speed>
  <fix>3d</fix>
</trkpt>
<trkpt lat="33.810313" lon="-118.3938664">
  <ele>-0.12</ele>
  <time>2026-09-01T01:12:18Z</time>
  <course>94.99</course>
  <speed>0.0</speed>
  <fix>3d</fix>
</trkpt>
<trkpt lat="33.8103171" lon="-118.3938705">
  <ele>-0.124</ele>
  <time>2026-09-01T01:12:18Z</time>
  <course>185.65</course>
  <speed>0.19209372712298545</speed>
  <fix>3d</fix>
</trkpt>
<trkpt lat="33.810313" lon="-118.3938664">
  <ele>-0.12</ele>
  <time>2026-09-01T01:12:18Z</time>
  <course>94.99</course>
  <speed>0.0</speed>
  <fix>3d</fix>
</trkpt>
<trkpt lat="33.8103171" lon="-118.3938706">
  <ele>-0.124</ele>
  <time>2026-09-01T01:12:18Z</time>
  <course>185.65</course>
  <speed>0.19209372712298545</speed>
  <fix>3d</fix>
</trkpt>
<trkpt lat="33.810313" lon="-118.3938664">
  <ele>-0.12</ele>
  <time>2026-09-01T01:12:18Z</time>
  <course>94.99</course>
  <speed>0.0</speed>
  <fix>3d</fix>
</trkpt>
<trkpt lat="33.8103172" lon="-118.3938706">
  <ele>-0.125</ele>
  <time>2026-09-01T01:12:18Z</time>
  <course>185.65</course>
  <speed>0.20615528128088303</speed>
  <fix>3d</fix>
</trkpt>
<trkpt lat="33.810313" lon="-118.3938664">
  <ele>-0.12</ele>
  <time>2026-09-01T01:12:18Z</time>
  <course>94.99</course>
  <speed>0.0</speed>
  <fix>3d</fix>
</trkpt>
<trkpt lat="33.8103173" lon="-118.3938707">
  <ele>-0.125</ele>
  <time>2026-09-01T01:12:18Z</time>
  <course>185.65</course>
  <speed>0.20615528128088303</speed>
  <fix>3d</fix>
</trkpt>
<trkpt lat="33.810313" lon="-118.3938664">
  <ele>-0.12</ele>
  <time>2026-09-01T01:12:18Z</time>
  <course>94.99</course>
  <speed>0.0</speed>
  <fix>3d</fix>
</trkpt>
<trkpt lat="33.8103174" lon="-118.3938709">
  <ele>-0.126</ele>
  <time>2026-09-01T01:12:18Z</time>
  <course>185.65</course>
  <speed>0.20615528128088303</speed>
  <fix>3d</fix>
</trkpt>
<trkpt lat="33.810313" lon="-118.3938664">
  <ele>-0.12</ele>
  <time>2026-09-01T01:12:18Z</time>
  <course>94.99</course>
  <speed>0.0</speed>
  <fix>3d</fix>
</trkpt>
<trkpt lat="33.8103176" lon="-118.393871">
  <ele>-0.125</ele>
  <time>2026-09-01T01:12:18Z</time>
  <course>185.65</course>
  <speed>0.20615528128088303</speed>
  <fix>3d</fix>
</trkpt>
<trkpt lat="33.810313" lon="-118.3938664">
  <ele>-0.12</ele>
  <time>2026-09-01T01:12:18Z</time>
  <course>94.99</course>
  <speed>0.0</speed>
  <fix>3d</fix>
</trkpt>
<trkpt lat="33.8103177" lon="-118.3938712">
  <ele>-0.125</ele>
  <time>2026-09-01T01:12:18Z</time>
  <course>185.65</course>
  <speed>0.22022715545545238</speed>
  <fix>3d</fix>
</trkpt>
<trkpt lat="33.810313" lon="-118.3938664">
  <ele>-0.12</ele>
  <time>2026-09-01T01:12:18Z</time>
  <course>94.99</course>
  <speed>0.0</speed>
  <fix>3d</fix>
</trkpt>
<trkpt lat="33.8103174" lon="-118.3938709">
  <ele>-0.125</ele>
  <time>2026-09-01T01:12:18Z</time>
  <course>185.65</course>
  <speed>0.20615528128088303</speed>
  <fix>3d</fix>
</trkpt>
<trkpt lat="33.810313" lon="-118.3938664">
  <ele>-0.12</ele>
  <time>2026-09-01T01:12:18Z</time>
  <course>94.99</course>
  <speed>0.0</speed>
  <fix>3d</fix>
</trkpt>
<trkpt lat="33.8103172" lon="-118.3938706">
  <ele>-0.127</ele>
  <time>2026-09-01T01:12:18Z</time>
  <course>185.65</course>
  <speed>0.19849433241279207</speed>
  <fix>3d</fix>
</trkpt>
<trkpt lat="33.810313" lon="-118.3938664">
  <ele>-0.12</ele>
  <time>2026-09-01T01:12:18Z</time>
  <course>94.99</course>
  <speed>0.0</speed>
  <fix>3d</fix>
</trkpt>
<trkpt lat="33.810317" lon="-118.3938705">
  <ele>-0.129</ele>
  <time>2026-09-01T01:12:18Z</time>
  <course>185.65</course>
  <speed>0.19209372712298545</speed>
  <fix>3d</fix>
</trkpt>
<trkpt lat="33.810313" lon="-118.3938664">
  <ele>-0.12</ele>
  <time>2026-09-01T01:12:18Z</time>
  <course>94.99</course>
  <speed>0.0</speed>
  <fix>3d</fix>
</trkpt>
<trkpt lat="33.8103169" lon="-118.3938704">
  <ele>-0.132</ele>
  <time>2026-09-01T01:12:18Z</time>
  <course>185.65</course>
  <speed>0.19209372712298545</speed>
  <fix>3d</fix>
</trkpt>
<trkpt lat="33.810313" lon="-118.3938664">
  <ele>-0.12</ele>
  <time>2026-09-01T01:12:18Z</time>
  <course>94.99</course>
  <speed>0.0</speed>
  <fix>3d</fix>
</trkpt>
<trkpt lat="33.8103169" lon="-118.3938704">
  <ele>-0.134</ele>
  <time>2026-09-01T01:12:18Z</time>
  <course>185.65</course>
  <speed>0.19209372712298545</speed>
  <fix>3d</fix>
</trkpt>
<trkpt lat="33.810313" lon="-118.3938664">
  <ele>-0.12</ele>
  <time>2026-09-01T01:12:18Z</time>
  <course>94.99</course>
  <speed>0.0</speed>
  <fix>3d</fix>
</trkpt>
<trkpt lat="33.810317" lon="-118.3938704">
  <ele>-0.134</ele>
  <time>2026-09-01T01:12:18Z</time>
  <course>185.65</course>
  <speed>0.19209372712298545</speed>
  <fix>3d</fix>
</trkpt>
<trkpt lat="33.810313" lon="-118.3938664">
  <ele>-0.12</ele>
  <time>2026-09-01T01:12:18Z</time>
  <course>94.99</course>
  <speed>0.0</speed>
  <fix>3d</fix>
</trkpt>
<trkpt lat="33.8103171" lon="-118.3938705">
  <ele>-0.133</ele>
  <time>2026-09-01T01:12:18Z</time>
  <course>185.64</course>
  <speed>0.19209372712298545</speed>
  <fix>3d</fix>
</trkpt>
<trkpt lat="33.810313" lon="-118.3938664">
  <ele>-0.12</ele>
  <time>2026-09-01T01:12:18Z</time>
  <course>94.99</course>
  <speed>0.0</speed>
  <fix>3d</fix>
</trkpt>
<trkpt lat="33.8103172" lon="-118.3938706">
  <ele>-0.131</ele>
  <time>2026-09-01T01:12:18Z</time>
  <course>185.64</course>
  <speed>0.20615528128088303</speed>
  <fix>3d</fix>
</trkpt>
<trkpt lat="33.810313" lon="-118.3938664">
  <ele>-0.12</ele>
  <time>2026-09-01T01:12:18Z</time>
  <course>94.99</course>
  <speed>0.0</speed>
  <fix>3d</fix>
</trkpt>
<trkpt lat="33.8103173" lon="-118.3938707">
  <ele>-0.13</ele>
  <time>2026-09-01T01:12:18Z</time>
  <course>185.64</course>
  <speed>0.20615528128088303</speed>
  <fix>3d</fix>
</trkpt>
<trkpt lat="33.810313" lon="-118.3938664">
  <ele>-0.12</ele>
  <time>2026-09-01T01:12:18Z</time>
  <course>94.99</course>
  <speed>0.0</speed>
  <fix>3d</fix>
</trkpt>
<trkpt lat="33.8103174" lon="-118.3938709">
  <ele>-0.13</ele>
  <time>2026-09-01T01:12:18Z</time>
  <course>185.64</course>
  <speed>0.20615528128088303</speed>
  <fix>3d</fix>
</trkpt>
<trkpt lat="33.810313" lon="-118.3938664">
  <ele>-0.12</ele>
  <time>2026-09-01T01:12:18Z</time>
  <course>94.99</course>
  <speed>0.0</speed>
  <fix>3d</fix>
</trkpt>
<trkpt lat="33.8103171" lon="-118.3938706">
  <ele>-0.131</ele>
  <time>2026-09-01T01:12:18Z</time>
  <course>185.64</course>
  <speed>0.20615528128088303</speed>
  <fix>3d</fix>
</trkpt>
<trkpt lat="33.810313" lon="-118.3938664">
  <ele>-0.12</ele>
  <time>2026-09-01T01:12:18Z</time>
  <course>94.99</course>
  <speed>0.0</speed>
  <fix>3d</fix>
</trkpt>
<trkpt lat="33.8103168" lon="-118.3938703">
  <ele>-0.133</ele>
  <time>2026-09-01T01:12:18Z</time>
  <course>185.64</course>
  <speed>0.19209372712298545</speed>
  <fix>3d</fix>
</trkpt>
<trkpt lat="33.810313" lon="-118.3938664">
  <ele>-0.12</ele>
  <time>2026-09-01T01:12:18Z</time>
  <course>94.99</course>
  <speed>0.0</speed>
  <fix>3d</fix>
</trkpt>
<trkpt lat="33.8103167" lon="-118.3938701">
  <ele>-0.135</ele>
  <time>2026-09-01T01:12:18Z</time>
  <course>185.64</course>
  <speed>0.19209372712298545</speed>
  <fix>3d</fix>
</trkpt>
<trkpt lat="33.810313" lon="-118.3938664">
  <ele>-0.12</ele>
  <time>2026-09-01T01:12:18Z</time>
  <course>94.99</course>
  <speed>0.0</speed>
  <fix>3d</fix>
</trkpt>
<trkpt lat="33.8103166" lon="-118.3938701">
  <ele>-0.137</ele>
  <time>2026-09-01T01:12:18Z</time>
  <course>185.64</course>
  <speed>0.19209372712298545</speed>
  <fix>3d</fix>
</trkpt>
<trkpt lat="33.810313" lon="-118.3938664">
  <ele>-0.12</ele>
  <time>2026-09-01T01:12:18Z</time>
  <course>94.99</course>
  <speed>0.0</speed>
  <fix>3d</fix>
</trkpt>
<trkpt lat="33.8103166" lon="-118.39387">
  <ele>-0.138</ele>
  <time>2026-09-01T01:12:18Z</time>
  <course>185.64</course>
  <speed>0.19209372712298545</speed>
  <fix>3d</fix>
</trkpt>
<trkpt lat="33.810313" lon="-118.3938664">
  <ele>-0.12</ele>
  <time>2026-09-01T01:12:18Z</time>
  <course>94.99</course>
  <speed>0.0</speed>
  <fix>3d</fix>
</trkpt>
<trkpt lat="33.8103166" lon="-118.3938701">
  <ele>-0.138</ele>
  <time>2026-09-01T01:12:18Z</time>
  <course>185.64</course>
  <speed>0.19209372712298545</speed>
  <fix>3d</fix>
</trkpt>
<trkpt lat="33.810313" lon="-118.3938664">
  <ele>-0.12</ele>
  <time>2026-09-01T01:12:18Z</time>
  <course>94.99</course>
  <speed>0.0</speed>
  <fix>3d</fix>
</trkpt>
<trkpt lat="33.8103167" lon="-118.3938702">
  <ele>-0.136</ele>
  <time>2026-09-01T01:12:18Z</time>
  <course>185.64</course>
  <speed>0.19209372712298545</speed>
  <fix>3d</fix>
</trkpt>
<trkpt lat="33.810313" lon="-118.3938664">
  <ele>-0.12</ele>
  <time>2026-09-01T01:12:18Z</time>
  <course>94.99</course>
  <speed>0.0</speed>
  <fix>3d</fix>
</trkpt>
<trkpt lat="33.8103168" lon="-118.3938703">
  <ele>-0.134</ele>
  <time>2026-09-01T01:12:18Z</time>
  <course>185.64</course>
  <speed>0.19209372712298545</speed>
  <fix>3d</fix>
</trkpt>
<trkpt lat="33.810313" lon="-118.3938664">
  <ele>-0.12</ele>
  <time>2026-09-01T01:12:18Z</time>
  <course>94.99</course>
  <speed>0.0</speed>
  <fix>3d</fix>
</trkpt>
<trkpt lat="33.8103169" lon="-118.3938704">
  <ele>-0.132</ele>
  <time>2026-09-01T01:12:18Z</time>
  <course>185.64</course>
  <speed>0.20615528128088303</speed>
  <fix>3d</fix>
</trkpt>
<trkpt lat="33.810313" lon="-118.3938664">
  <ele>-0.12</ele>
  <time>2026-09-01T01:12:18Z</time>
  <course>94.99</course>
  <speed>0.0</speed>
  <fix>3d</fix>
</trkpt>
<trkpt lat="33.8103171" lon="-118.3938705">
  <ele>-0.131</ele>
  <time>2026-09-01T01:12:18Z</time>
  <course>185.64</course>
  <speed>0.20615528128088303</speed>
  <fix>3d</fix>
</trkpt>
<trkpt lat="33.810313" lon="-118.3938664">
  <ele>-0.12</ele>
  <time>2026-09-01T01:12:18Z</time>
  <course>94.99</course>
  <speed>0.0</speed>
  <fix>3d</fix>
</trkpt>
<trkpt lat="33.8103168" lon="-118.3938702">
  <ele>-0.131</ele>
  <time>2026-09-01T01:12:18Z</time>
  <course>185.64</course>
  <speed>0.19209372712298545</speed>
  <fix>3d</fix>
</trkpt>
<trkpt lat="33.810313" lon="-118.3938664">
  <ele>-0.12</ele>
  <time>2026-09-01T01:12:18Z</time>
  <course>94.99</course>
  <speed>0.0</speed>
  <fix>3d</fix>
</trkpt>
<trkpt lat="33.8103165" lon="-118.3938699">
  <ele>-0.131</ele>
  <time>2026-09-01T01:12:18Z</time>
  <course>185.64</course>
  <speed>0.19209372712298545</speed>
  <fix>3d</fix>
</trkpt>
<trkpt lat="33.810313" lon="-118.3938664">
  <ele>-0.12</ele>
  <time>2026-09-01T01:12:18Z</time>
  <course>94.99</course>
  <speed>0.0</speed>
  <fix>3d</fix>
</trkpt>
<trkpt lat="33.8103163" lon="-118.3938698">
  <ele>-0.131</ele>
  <time>2026-09-01T01:12:18Z</time>
  <course>185.64</course>
  <speed>0.17804493814764857</speed>
  <fix>3d</fix>
</trkpt>
<trkpt lat="33.810313" lon="-118.3938664">
  <ele>-0.12</ele>
  <time>2026-09-01T01:12:18Z</time>
  <course>94.99</course>
  <speed>0.0</speed>
  <fix>3d</fix>
</trkpt>
<trkpt lat="33.8103162" lon="-118.3938697">
  <ele>-0.131</ele>
  <time>2026-09-01T01:12:18Z</time>
  <course>185.64</course>
  <speed>0.17804493814764857</speed>
  <fix>3d</fix>
</trkpt>
<trkpt lat="33.810313" lon="-118.3938664">
  <ele>-0.12</ele>
  <time>2026-09-01T01:12:18Z</time>
  <course>94.99</course>
  <speed>0.0</speed>
  <fix>3d</fix>
</trkpt>
<trkpt lat="33.8103162" lon="-118.3938697">
  <ele>-0.131</ele>
  <time>2026-09-01T01:12:18Z</time>
  <course>185.64</course>
  <speed>0.17804493814764857</speed>
  <fix>3d</fix>
</trkpt>
<trkpt lat="33.810313" lon="-118.3938664">
  <ele>-0.12</ele>
  <time>2026-09-01T01:12:18Z</time>
  <course>94.99</course>
  <speed>0.0</speed>
  <fix>3d</fix>
</trkpt>
<trkpt lat="33.8103162" lon="-118.3938697">
  <ele>-0.13</ele>
  <time>2026-09-01T01:12:18Z</time>
  <course>185.64</course>
  <speed>0.17804493814764857</speed>
  <fix>3d</fix>
</trkpt>
<trkpt lat="33.810313" lon="-118.3938664">
  <ele>-0.12</ele>
  <time>2026-09-01T01:12:18Z</time>
  <course>94.99</course>
  <speed>0.0</speed>
  <fix>3d</fix>
</trkpt>
<trkpt lat="33.8103163" lon="-118.3938698">
  <ele>-0.128</ele>
  <time>2026-09-01T01:12:18Z</time>
  <course>185.64</course>
  <speed>0.19209372712298545</speed>
  <fix>3d</fix>
</trkpt>
<trkpt lat="33.810313" lon="-118.3938664">
  <ele>-0.12</ele>
  <time>2026-09-01T01:12:18Z</time>
  <course>94.99</course>
  <speed>0.0</speed>
  <fix>3d</fix>
</trkpt>
<trkpt lat="33.8103164" lon="-118.3938699">
  <ele>-0.125</ele>
  <time>2026-09-01T01:12:18Z</time>
  <course>185.64</course>
  <speed>0.19209372712298545</speed>
  <fix>3d</fix>
</trkpt>
<trkpt lat="33.810313" lon="-118.3938664">
  <ele>-0.12</ele>
  <time>2026-09-01T01:12:18Z</time>
  <course>94.99</course>
  <speed>0.0</speed>
  <fix>3d</fix>
</trkpt>
<trkpt lat="33.8103165" lon="-118.39387">
  <ele>-0.122</ele>
  <time>2026-09-01T01:12:18Z</time>
  <course>185.64</course>
  <speed>0.19209372712298545</speed>
  <fix>3d</fix>
</trkpt>
<trkpt lat="33.810313" lon="-118.3938664">
  <ele>-0.12</ele>
  <time>2026-09-01T01:12:18Z</time>
  <course>94.99</course>
  <speed>0.0</speed>
  <fix>3d</fix>
</trkpt>
<trkpt lat="33.8103167" lon="-118.3938701">
  <ele>-0.119</ele>
  <time>2026-09-01T01:12:18Z</time>
  <course>185.64</course>
  <speed>0.19209372712298545</speed>
  <fix>3d</fix>
</trkpt>
<trkpt lat="33.810313" lon="-118.3938664">
  <ele>-0.12</ele>
  <time>2026-09-01T01:12:18Z</time>
  <course>94.99</course>
  <speed>0.0</speed>
  <fix>3d</fix>
</trkpt>
<trkpt lat="33.8103164" lon="-118.3938698">
  <ele>-0.12</ele>
  <time>2026-09-01T01:12:18Z</time>
  <course>185.64</course>
  <speed>0.19209372712298545</speed>
  <fix>3d</fix>
</trkpt>
<trkpt lat="33.810313" lon="-118.3938664">
  <ele>-0.12</ele>
  <time>2026-09-01T01:12:18Z</time>
  <course>94.99</course>
  <speed>0.0</speed>
  <fix>3d</fix>
</trkpt>
<trkpt lat="33.8103161" lon="-118.3938695">
  <ele>-0.121</ele>
  <time>2026-09-01T01:12:18Z</time>
  <course>185.64</course>
  <speed>0.17804493814764857</speed>
  <fix>3d</fix>
</trkpt>
<trkpt lat="33.810313" lon="-118.3938664">
  <ele>-0.12</ele>
  <time>2026-09-01T01:12:18Z</time>
  <course>94.99</course>
  <speed>0.0</speed>
  <fix>3d</fix>
</trkpt>
<trkpt lat="33.8103159" lon="-118.3938694">
  <ele>-0.124</ele>
  <time>2026-09-01T01:12:18Z</time>
  <course>185.64</course>
  <speed>0.17804493814764857</speed>
  <fix>3d</fix>
</trkpt>
<trkpt lat="33.810313" lon="-118.3938664">
  <ele>-0.12</ele>
  <time>2026-09-01T01:12:18Z</time>
  <course>94.99</course>
  <speed>0.0</speed>
  <fix>3d</fix>
</trkpt>
<trkpt lat="33.8103158" lon="-118.3938693">
  <ele>-0.127</ele>
  <time>2026-09-01T01:12:18Z</time>
  <course>185.64</course>
  <speed>0.17804493814764857</speed>
  <fix>3d</fix>
</trkpt>
<trkpt lat="33.810313" lon="-118.3938663">
  <ele>-0.12</ele>
  <time>2026-09-01T01:12:18Z</time>
  <course>94.99</course>
  <speed>0.0</speed>
  <fix>3d</fix>
</trkpt>
<trkpt lat="33.8103158" lon="-118.3938693">
  <ele>-0.129</ele>
  <time>2026-09-01T01:12:18Z</time>
  <course>185.64</course>
  <speed>0.17804493814764857</speed>
  <fix>3d</fix>
</trkpt>
<trkpt lat="33.810313" lon="-118.3938663">
  <ele>-0.12</ele>
  <time>2026-09-01T01:12:18Z</time>
  <course>94.99</course>
  <speed>0.0</speed>
  <fix>3d</fix>
</trkpt>
<trkpt lat="33.8103158" lon="-118.3938693">
  <ele>-0.131</ele>
  <time>2026-09-01T01:12:18Z</time>
  <course>185.64</course>
  <speed>0.17804493814764857</speed>
  <fix>3d</fix>
</trkpt>
<trkpt lat="33.810313" lon="-118.3938663">
  <ele>-0.12</ele>
  <time>2026-09-01T01:12:18Z</time>
  <course>94.99</course>
  <speed>0.0</speed>
  <fix>3d</fix>
</trkpt>
<trkpt lat="33.8103159" lon="-118.3938694">
  <ele>-0.132</ele>
  <time>2026-09-01T01:12:18Z</time>
  <course>185.64</course>
  <speed>0.17804493814764857</speed>
  <fix>3d</fix>
</trkpt>
<trkpt lat="33.810313" lon="-118.3938663">
  <ele>-0.12</ele>
  <time>2026-09-01T01:12:18Z</time>
  <course>94.99</course>
  <speed>0.0</speed>
  <fix>3d</fix>
</trkpt>
<trkpt lat="33.810316" lon="-118.3938695">
  <ele>-0.132</ele>
  <time>2026-09-01T01:12:18Z</time>
  <course>185.64</course>
  <speed>0.19209372712298545</speed>
  <fix>3d</fix>
</trkpt>
<trkpt lat="33.810313" lon="-118.3938663">
  <ele>-0.12</ele>
  <time>2026-09-01T01:12:18Z</time>
  <course>94.99</course>
  <speed>0.0</speed>
  <fix>3d</fix>
</trkpt>
<trkpt lat="33.8103161" lon="-118.3938696">
  <ele>-0.131</ele>
  <time>2026-09-01T01:12:18Z</time>
  <course>185.64</course>
  <speed>0.19209372712298545</speed>
  <fix>3d</fix>
</trkpt>
<trkpt lat="33.810313" lon="-118.3938663">
  <ele>-0.12</ele>
  <time>2026-09-01T01:12:18Z</time>
  <course>94.99</course>
  <speed>0.0</speed>
  <fix>3d</fix>
</trkpt>
<trkpt lat="33.8103163" lon="-118.3938698">
  <ele>-0.13</ele>
  <time>2026-09-01T01:12:18Z</time>
  <course>185.64</course>
  <speed>0.19209372712298545</speed>
  <fix>3d</fix>
</trkpt>
<trkpt lat="33.810313" lon="-118.3938663">
  <ele>-0.12</ele>
  <time>2026-09-01T01:12:18Z</time>
  <course>94.99</course>
  <speed>0.0</speed>
  <fix>3d</fix>
</trkpt>
<trkpt lat="33.810316" lon="-118.3938695">
  <ele>-0.13</ele>
  <time>2026-09-01T01:12:18Z</time>
  <course>185.64</course>
  <speed>0.19209372712298545</speed>
  <fix>3d</fix>
</trkpt>
<trkpt lat="33.810313" lon="-118.3938663">
  <ele>-0.12</ele>
  <time>2026-09-01T01:12:18Z</time>
  <course>94.99</course>
  <speed>0.0</speed>
  <fix>3d</fix>
</trkpt>
<trkpt lat="33.8103157" lon="-118.3938692">
  <ele>-0.129</ele>
  <time>2026-09-01T01:12:18Z</time>
  <course>185.64</course>
  <speed>0.17804493814764857</speed>
  <fix>3d</fix>
</trkpt>
<trkpt lat="33.810313" lon="-118.3938663">
  <ele>-0.12</ele>
  <time>2026-09-01T01:12:18Z</time>
  <course>94.99</course>
  <speed>0.0</speed>
  <fix>3d</fix>
</trkpt>
<trkpt lat="33.8103155" lon="-118.393869">
  <ele>-0.129</ele>
  <time>2026-09-01T01:12:18Z</time>
  <course>185.64</course>
  <speed>0.17804493814764857</speed>
  <fix>3d</fix>
</trkpt>
<trkpt lat="33.810313" lon="-118.3938663">
  <ele>-0.12</ele>
  <time>2026-09-01T01:12:18Z</time>
  <course>94.99</course>
  <speed>0.0</speed>
  <fix>3d</fix>
</trkpt>
<trkpt lat="33.8103154" lon="-118.3938689">
  <ele>-0.13</ele>
  <time>2026-09-01T01:12:18Z</time>
  <course>185.64</course>
  <speed>0.17804493814764857</speed>
  <fix>3d</fix>
</trkpt>
<trkpt lat="33.810313" lon="-118.3938663">
  <ele>-0.12</ele>
  <time>2026-09-01T01:12:18Z</time>
  <course>94.99</course>
  <speed>0.0</speed>
  <fix>3d</fix>
</trkpt>
<trkpt lat="33.8103154" lon="-118.3938689">
  <ele>-0.132</ele>
  <time>2026-09-01T01:12:18Z</time>
  <course>185.64</course>
  <speed>0.17804493814764857</speed>
  <fix>3d</fix>
</trkpt>
<trkpt lat="33.810313" lon="-118.3938663">
  <ele>-0.12</ele>
  <time>2026-09-01T01:12:18Z</time>
  <course>94.99</course>
  <speed>0.0</speed>
  <fix>3d</fix>
</trkpt>
<trkpt lat="33.8103154" lon="-118.3938689">
  <ele>-0.134</ele>
  <time>2026-09-01T01:12:18Z</time>
  <course>185.64</course>
  <speed>0.17804493814764857</speed>
  <fix>3d</fix>
</trkpt>
<trkpt lat="33.810313" lon="-118.3938663">
  <ele>-0.12</ele>
  <time>2026-09-01T01:12:18Z</time>
  <course>94.99</course>
  <speed>0.0</speed>
  <fix>3d</fix>
</trkpt>
<trkpt lat="33.8103155" lon="-118.393869">
  <ele>-0.135</ele>
  <time>2026-09-01T01:12:18Z</time>
  <course>185.64</course>
  <speed>0.17804493814764857</speed>
  <fix>3d</fix>
</trkpt>
<trkpt lat="33.810313" lon="-118.3938663">
  <ele>-0.12</ele>
  <time>2026-09-01T01:12:18Z</time>
  <course>94.99</course>
  <speed>0.0</speed>
  <fix>3d</fix>
</trkpt>
<trkpt lat="33.8103156" lon="-118.3938691">
  <ele>-0.135</ele>
  <time>2026-09-01T01:12:18Z</time>
  <course>185.64</course>
  <speed>0.17804493814764857</speed>
  <fix>3d</fix>
</trkpt>
<trkpt lat="33.810313" lon="-118.3938663">
  <ele>-0.12</ele>
  <time>2026-09-01T01:12:18Z</time>
  <course>94.99</course>
  <speed>0.0</speed>
  <fix>3d</fix>
</trkpt>
<trkpt lat="33.8103157" lon="-118.3938692">
  <ele>-0.135</ele>
  <time>2026-09-01T01:12:18Z</time>
  <course>185.64</course>
  <speed>0.19209372712298545</speed>
  <fix>3d</fix>
</trkpt>
<trkpt lat="33.810313" lon="-118.3938663">
  <ele>-0.12</ele>
  <time>2026-09-01T01:12:18Z</time>
  <course>94.99</course>
  <speed>0.0</speed>
  <fix>3d</fix>
</trkpt>
<trkpt lat="33.8103159" lon="-118.3938693">
  <ele>-0.136</ele>
  <time>2026-09-01T01:12:18Z</time>
  <course>185.64</course>
  <speed>0.19209372712298545</speed>
  <fix>3d</fix>
</trkpt>
<trkpt lat="33.810313" lon="-118.3938663">
  <ele>-0.12</ele>
  <time>2026-09-01T01:12:18Z</time>
  <course>94.99</course>
  <speed>0.0</speed>
  <fix>3d</fix>
</trkpt>
<trkpt lat="33.8103156" lon="-118.3938691">
  <ele>-0.135</ele>
  <time>2026-09-01T01:12:18Z</time>
  <course>185.64</course>
  <speed>0.18439088914585774</speed>
  <fix>3d</fix>
</trkpt>
<trkpt lat="33.810313" lon="-118.3938663">
  <ele>-0.12</ele>
  <time>2026-09-01T01:12:18Z</time>
  <course>94.99</course>
  <speed>0.0</speed>
  <fix>3d</fix>
</trkpt>
<trkpt lat="33.8103153" lon="-118.3938688">
  <ele>-0.134</ele>
  <time>2026-09-01T01:12:18Z</time>
  <course>185.64</course>
  <speed>0.17804493814764857</speed>
  <fix>3d</fix>
</trkpt>
<trkpt lat="33.810313" lon="-118.3938663">
  <ele>-0.12</ele>
  <time>2026-09-01T01:12:18Z</time>
  <course>94.99</course>
  <speed>0.0</speed>
  <fix>3d</fix>
</trkpt>
<trkpt lat="33.8103152" lon="-118.3938687">
  <ele>-0.134</ele>
  <time>2026-09-01T01:12:18Z</time>
  <course>185.64</course>
  <speed>0.17804493814764857</speed>
  <fix>3d</fix>
</trkpt>
<trkpt lat="33.810313" lon="-118.3938663">
  <ele>-0.12</ele>
  <time>2026-09-01T01:12:18Z</time>
  <course>94.99</course>
  <speed>0.0</speed>
  <fix>3d</fix>
</trkpt>
<trkpt lat="33.8103151" lon="-118.3938686">
  <ele>-0.135</ele>
  <time>2026-09-01T01:12:18Z</time>
  <course>185.64</course>
  <speed>0.17029386365926402</speed>
  <fix>3d</fix>
</trkpt>
<trkpt lat="33.810313" lon="-118.3938663">
  <ele>-0.12</ele>
  <time>2026-09-01T01:12:18Z</time>
  <course>94.99</course>
  <speed>0.0</speed>
  <fix>3d</fix>
</trkpt>
<trkpt lat="33.8103151" lon="-118.3938686">
  <ele>-0.136</ele>
  <time>2026-09-01T01:12:18Z</time>
  <course>185.64</course>
  <speed>0.17029386365926402</speed>
  <fix>3d</fix>
</trkpt>
<trkpt lat="33.810313" lon="-118.3938663">
  <ele>-0.12</ele>
  <time>2026-09-01T01:12:18Z</time>
  <course>94.99</course>
  <speed>0.0</speed>
  <fix>3d</fix>
</trkpt>
<trkpt lat="33.8103151" lon="-118.3938686">
  <ele>-0.136</ele>
  <time>2026-09-01T01:12:18Z</time>
  <course>185.64</course>
  <speed>0.17804493814764857</speed>
  <fix>3d</fix>
</trkpt>
<trkpt lat="33.810313" lon="-118.3938663">
  <ele>-0.12</ele>
  <time>2026-09-01T01:12:18Z</time>
  <course>94.99</course>
  <speed>0.0</speed>
  <fix>3d</fix>
</trkpt>
<trkpt lat="33.8103152" lon="-118.3938687">
  <ele>-0.136</ele>
  <time>2026-09-01T01:12:18Z</time>
  <course>185.64</course>
  <speed>0.17804493814764857</speed>
  <fix>3d</fix>
</trkpt>
<trkpt lat="33.810313" lon="-118.3938663">
  <ele>-0.12</ele>
  <time>2026-09-01T01:12:18Z</time>
  <course>94.99</course>
  <speed>0.0</speed>
  <fix>3d</fix>
</trkpt>
<trkpt lat="33.8103152" lon="-118.3938687">
  <ele>-0.135</ele>
  <time>2026-09-01T01:12:18Z</time>
  <course>185.64</course>
  <speed>0.17804493814764857</speed>
  <fix>3d</fix>
</trkpt>
<trkpt lat="33.810313" lon="-118.3938663">
  <ele>-0.12</ele>
  <time>2026-09-01T01:12:18Z</time>
  <course>94.99</course>
  <speed>0.0</speed>
  <fix>3d</fix>
</trkpt>
<trkpt lat="33.8103153" lon="-118.3938688">
  <ele>-0.133</ele>
  <time>2026-09-01T01:12:18Z</time>
  <course>185.64</course>
  <speed>0.18439088914585774</speed>
  <fix>3d</fix>
</trkpt>
<trkpt lat="33.810313" lon="-118.3938663">
  <ele>-0.12</ele>
  <time>2026-09-01T01:12:18Z</time>
  <course>94.99</course>
  <speed>0.0</speed>
  <fix>3d</fix>
</trkpt>
<trkpt lat="33.8103155" lon="-118.3938689">
  <ele>-0.131</ele>
  <time>2026-09-01T01:12:18Z</time>
  <course>185.64</course>
  <speed>0.19209372712298545</speed>
  <fix>3d</fix>
</trkpt>
<trkpt lat="33.810313" lon="-118.3938663">
  <ele>-0.12</ele>
  <time>2026-09-01T01:12:18Z</time>
  <course>94.99</course>
  <speed>0.0</speed>
  <fix>3d</fix>
</trkpt>
<trkpt lat="33.8103156" lon="-118.3938691">
  <ele>-0.129</ele>
  <time>2026-09-01T01:12:18Z</time>
  <course>185.64</course>
  <speed>0.19209372712298545</speed>
  <fix>3d</fix>
</trkpt>
<trkpt lat="33.810313" lon="-118.3938663">
  <ele>-0.12</ele>
  <time>2026-09-01T01:12:18Z</time>
  <course>94.99</course>
  <speed>0.0</speed>
  <fix>3d</fix>
</trkpt>
<trkpt lat="33.8103153" lon="-118.3938688">
  <ele>-0.128</ele>
  <time>2026-09-01T01:12:18Z</time>
  <course>185.64</course>
  <speed>0.19209372712298545</speed>
  <fix>3d</fix>
</trkpt>
<trkpt lat="33.810313" lon="-118.3938663">
  <ele>-0.12</ele>
  <time>2026-09-01T01:12:18Z</time>
  <course>94.99</course>
  <speed>0.0</speed>
  <fix>3d</fix>
</trkpt>
<trkpt lat="33.8103151" lon="-118.3938686">
  <ele>-0.128</ele>
  <time>2026-09-01T01:12:18Z</time>
  <course>185.64</course>
  <speed>0.17804493814764857</speed>
  <fix>3d</fix>
</trkpt>
<trkpt lat="33.810313" lon="-118.3938663">
  <ele>-0.12</ele>
  <time>2026-09-01T01:12:18Z</time>
  <course>94.99</course>
  <speed>0.0</speed>
  <fix>3d</fix>
</trkpt>
<trkpt lat="33.8103149" lon="-118.3938684">
  <ele>-0.128</ele>
  <time>2026-09-01T01:12:18Z</time>
  <course>185.64</course>
  <speed>0.17804493814764857</speed>
  <fix>3d</fix>
</trkpt>
<trkpt lat="33.810313" lon="-118.3938663">
  <ele>-0.12</ele>
  <time>2026-09-01T01:12:18Z</time>
  <course>94.99</course>
  <speed>0.0</speed>
  <fix>3d</fix>
</trkpt>
<trkpt lat="33.8103148" lon="-118.3938683">
  <ele>-0.129</ele>
  <time>2026-09-01T01:12:18Z</time>
  <course>185.64</course>
  <speed>0.17804493814764857</speed>
  <fix>3d</fix>
</trkpt>
<trkpt lat="33.810313" lon="-118.3938663">
  <ele>-0.12</ele>
  <time>2026-09-01T01:12:18Z</time>
  <course>94.99</course>
  <speed>0.0</speed>
  <fix>3d</fix>
</trkpt>
<trkpt lat="33.8103148" lon="-118.3938683">
  <ele>-0.129</ele>
  <time>2026-09-01T01:12:18Z</time>
  <course>185.64</course>
  <speed>0.17804493814764857</speed>
  <fix>3d</fix>
</trkpt>
<trkpt lat="33.810313" lon="-118.3938663">
  <ele>-0.12</ele>
  <time>2026-09-01T01:12:18Z</time>
  <course>94.99</course>
  <speed>0.0</speed>
  <fix>3d</fix>
</trkpt>
<trkpt lat="33.8103148" lon="-118.3938684">
  <ele>-0.129</ele>
  <time>2026-09-01T01:12:19Z</time>
  <course>185.64</course>
  <speed>0.17804493814764857</speed>
  <fix>3d</fix>
</trkpt>
<trkpt lat="33.810313" lon="-118.3938663">
  <ele>-0.12</ele>
  <time>2026-09-01T01:12:19Z</time>
  <course>94.99</course>
  <speed>0.0</speed>
  <fix>3d</fix>
</trkpt>
<trkpt lat="33.8103149" lon="-118.3938684">
  <ele>-0.128</ele>
  <time>2026-09-01T01:12:19Z</time>
  <course>185.64</course>
  <speed>0.17804493814764857</speed>
  <fix>3d</fix>
</trkpt>
<trkpt lat="33.810313" lon="-118.3938663">
  <ele>-0.12</ele>
  <time>2026-09-01T01:12:19Z</time>
  <course>94.99</course>
  <speed>0.0</speed>
  <fix>3d</fix>
</trkpt>
<trkpt lat="33.810315" lon="-118.3938685">
  <ele>-0.129</ele>
  <time>2026-09-01T01:12:19Z</time>
  <course>185.64</course>
  <speed>0.17804493814764857</speed>
  <fix>3d</fix>
</trkpt>
<trkpt lat="33.810313" lon="-118.3938663">
  <ele>-0.12</ele>
  <time>2026-09-01T01:12:19Z</time>
  <course>94.99</course>
  <speed>0.0</speed>
  <fix>3d</fix>
</trkpt>
<trkpt lat="33.8103151" lon="-118.3938686">
  <ele>-0.128</ele>
  <time>2026-09-01T01:12:19Z</time>
  <course>185.63</course>
  <speed>0.19209372712298545</speed>
  <fix>3d</fix>
</trkpt>
<trkpt lat="33.810313" lon="-118.3938663">
  <ele>-0.12</ele>
  <time>2026-09-01T01:12:19Z</time>
  <course>94.99</course>
  <speed>0.0</speed>
  <fix>3d</fix>
</trkpt>
<trkpt lat="33.8103152" lon="-118.3938687">
  <ele>-0.127</ele>
  <time>2026-09-01T01:12:19Z</time>
  <course>185.63</course>
  <speed>0.19209372712298545</speed>
  <fix>3d</fix>
</trkpt>
<trkpt lat="33.810313" lon="-118.3938663">
  <ele>-0.12</ele>
  <time>2026-09-01T01:12:19Z</time>
  <course>94.99</course>
  <speed>0.0</speed>
  <fix>3d</fix>
</trkpt>
<trkpt lat="33.8103153" lon="-118.3938688">
  <ele>-0.126</ele>
  <time>2026-09-01T01:12:19Z</time>
  <course>185.63</course>
  <speed>0.19209372712298545</speed>
  <fix>3d</fix>
</trkpt>
<trkpt lat="33.810313" lon="-118.3938663">
  <ele>-0.12</ele>
  <time>2026-09-01T01:12:19Z</time>
  <course>94.99</course>
  <speed>0.0</speed>
  <fix>3d</fix>
</trkpt>
<trkpt lat="33.8103151" lon="-118.3938687">
  <ele>-0.125</ele>
  <time>2026-09-01T01:12:19Z</time>
  <course>185.63</course>
  <speed>0.19209372712298545</speed>
  <fix>3d</fix>
</trkpt>
<trkpt lat="33.810313" lon="-118.3938663">
  <ele>-0.12</ele>
  <time>2026-09-01T01:12:19Z</time>
  <course>94.99</course>
  <speed>0.0</speed>
  <fix>3d</fix>
</trkpt>
<trkpt lat="33.8103148" lon="-118.3938683">
  <ele>-0.125</ele>
  <time>2026-09-01T01:12:19Z</time>
  <course>185.63</course>
  <speed>0.17804493814764857</speed>
  <fix>3d</fix>
</trkpt>
<trkpt lat="33.810313" lon="-118.3938663">
  <ele>-0.12</ele>
  <time>2026-09-01T01:12:19Z</time>
  <course>94.99</course>
  <speed>0.0</speed>
  <fix>3d</fix>
</trkpt>
<trkpt lat="33.8103146" lon="-118.3938681">
  <ele>-0.124</ele>
  <time>2026-09-01T01:12:19Z</time>
  <course>185.63</course>
  <speed>0.17804493814764857</speed>
  <fix>3d</fix>
</trkpt>
<trkpt lat="33.810313" lon="-118.3938663">
  <ele>-0.12</ele>
  <time>2026-09-01T01:12:19Z</time>
  <course>94.99</course>
  <speed>0.0</speed>
  <fix>3d</fix>
</trkpt>
<trkpt lat="33.8103145" lon="-118.393868">
  <ele>-0.123</ele>
  <time>2026-09-01T01:12:19Z</time>
  <course>185.63</course>
  <speed>0.17804493814764857</speed>
  <fix>3d</fix>
</trkpt>
<trkpt lat="33.810313" lon="-118.3938663">
  <ele>-0.12</ele>
  <time>2026-09-01T01:12:19Z</time>
  <course>94.99</course>
  <speed>0.0</speed>
  <fix>3d</fix>
</trkpt>
<trkpt lat="33.8103145" lon="-118.393868">
  <ele>-0.124</ele>
  <time>2026-09-01T01:12:19Z</time>
  <course>185.63</course>
  <speed>0.17804493814764857</speed>
  <fix>3d</fix>
</trkpt>
<trkpt lat="33.810313" lon="-118.3938663">
  <ele>-0.12</ele>
  <time>2026-09-01T01:12:19Z</time>
  <course>94.99</course>
  <speed>0.0</speed>
  <fix>3d</fix>
</trkpt>
<trkpt lat="33.8103145" lon="-118.393868">
  <ele>-0.124</ele>
  <time>2026-09-01T01:12:19Z</time>
  <course>185.63</course>
  <speed>0.17804493814764857</speed>
  <fix>3d</fix>
</trkpt>
<trkpt lat="33.810313" lon="-118.3938663">
  <ele>-0.12</ele>
  <time>2026-09-01T01:12:19Z</time>
  <course>94.99</course>
  <speed>0.0</speed>
  <fix>3d</fix>
</trkpt>
<trkpt lat="33.8103146" lon="-118.3938681">
  <ele>-0.124</ele>
  <time>2026-09-01T01:12:19Z</time>
  <course>185.63</course>
  <speed>0.17804493814764857</speed>
  <fix>3d</fix>
</trkpt>
<trkpt lat="33.810313" lon="-118.3938663">
  <ele>-0.12</ele>
  <time>2026-09-01T01:12:19Z</time>
  <course>94.99</course>
  <speed>0.0</speed>
  <fix>3d</fix>
</trkpt>
<trkpt lat="33.8103147" lon="-118.3938682">
  <ele>-0.123</ele>
  <time>2026-09-01T01:12:19Z</time>
  <course>185.63</course>
  <speed>0.17804493814764857</speed>
  <fix>3d</fix>
</trkpt>
<trkpt lat="33.810313" lon="-118.3938663">
  <ele>-0.12</ele>
  <time>2026-09-01T01:12:19Z</time>
  <course>94.99</course>
  <speed>0.0</speed>
  <fix>3d</fix>
</trkpt>
<trkpt lat="33.8103148" lon="-118.3938683">
  <ele>-0.124</ele>
  <time>2026-09-01T01:12:19Z</time>
  <course>185.63</course>
  <speed>0.19209372712298545</speed>
  <fix>3d</fix>
</trkpt>
<trkpt lat="33.810313" lon="-118.3938663">
  <ele>-0.12</ele>
  <time>2026-09-01T01:12:19Z</time>
  <course>94.99</course>
  <speed>0.0</speed>
  <fix>3d</fix>
</trkpt>
<trkpt lat="33.8103149" lon="-118.3938684">
  <ele>-0.124</ele>
  <time>2026-09-01T01:12:19Z</time>
  <course>185.63</course>
  <speed>0.19209372712298545</speed>
  <fix>3d</fix>
</trkpt>
<trkpt lat="33.810313" lon="-118.3938663">
  <ele>-0.12</ele>
  <time>2026-09-01T01:12:19Z</time>
  <course>94.99</course>
  <speed>0.0</speed>
  <fix>3d</fix>
</trkpt>
<trkpt lat="33.8103151" lon="-118.3938686">
  <ele>-0.127</ele>
  <time>2026-09-01T01:12:19Z</time>
  <course>185.63</course>
  <speed>0.19209372712298545</speed>
  <fix>3d</fix>
</trkpt>
<trkpt lat="33.810313" lon="-118.3938663">
  <ele>-0.12</ele>
  <time>2026-09-01T01:12:19Z</time>
  <course>94.99</course>
  <speed>0.0</speed>
  <fix>3d</fix>
</trkpt>
<trkpt lat="33.8103148" lon="-118.3938683">
  <ele>-0.129</ele>
  <time>2026-09-01T01:12:19Z</time>
  <course>185.63</course>
  <speed>0.19209372712298545</speed>
  <fix>3d</fix>
</trkpt>
<trkpt lat="33.810313" lon="-118.3938663">
  <ele>-0.12</ele>
  <time>2026-09-01T01:12:19Z</time>
  <course>94.99</course>
  <speed>0.0</speed>
  <fix>3d</fix>
</trkpt>
<trkpt lat="33.8103145" lon="-118.393868">
  <ele>-0.131</ele>
  <time>2026-09-01T01:12:19Z</time>
  <course>185.63</course>
  <speed>0.17804493814764857</speed>
  <fix>3d</fix>
</trkpt>
<trkpt lat="33.810313" lon="-118.3938663">
  <ele>-0.12</ele>
  <time>2026-09-01T01:12:19Z</time>
  <course>94.99</course>
  <speed>0.0</speed>
  <fix>3d</fix>
</trkpt>
<trkpt lat="33.8103143" lon="-118.3938678">
  <ele>-0.133</ele>
  <time>2026-09-01T01:12:19Z</time>
  <course>185.63</course>
  <speed>0.17804493814764857</speed>
  <fix>3d</fix>
</trkpt>
<trkpt lat="33.810313" lon="-118.3938663">
  <ele>-0.12</ele>
  <time>2026-09-01T01:12:19Z</time>
  <course>94.99</course>
  <speed>0.0</speed>
  <fix>3d</fix>
</trkpt>
<trkpt lat="33.8103142" lon="-118.3938677">
  <ele>-0.134</ele>
  <time>2026-09-01T01:12:19Z</time>
  <course>185.63</course>
  <speed>0.17804493814764857</speed>
  <fix>3d</fix>
</trkpt>
<trkpt lat="33.810313" lon="-118.3938663">
  <ele>-0.12</ele>
  <time>2026-09-01T01:12:19Z</time>
  <course>94.99</course>
  <speed>0.0</speed>
  <fix>3d</fix>
</trkpt>
<trkpt lat="33.8103141" lon="-118.3938677">
  <ele>-0.134</ele>
  <time>2026-09-01T01:12:19Z</time>
  <course>185.63</course>
  <speed>0.17804493814764857</speed>
  <fix>3d</fix>
</trkpt>
<trkpt lat="33.810313" lon="-118.3938663">
  <ele>-0.12</ele>
  <time>2026-09-01T01:12:19Z</time>
  <course>94.99</course>
  <speed>0.0</speed>
  <fix>3d</fix>
</trkpt>
<trkpt lat="33.8103142" lon="-118.3938677">
  <ele>-0.133</ele>
  <time>2026-09-01T01:12:19Z</time>
  <course>185.63</course>
  <speed>0.17804493814764857</speed>
  <fix>3d</fix>
</trkpt>
<trkpt lat="33.810313" lon="-118.3938663">
  <ele>-0.12</ele>
  <time>2026-09-01T01:12:19Z</time>
  <course>94.99</course>
  <speed>0.0</speed>
  <fix>3d</fix>
</trkpt>
<trkpt lat="33.8103142" lon="-118.3938678">
  <ele>-0.13</ele>
  <time>2026-09-01T01:12:19Z</time>
  <course>185.63</course>
  <speed>0.17804493814764857</speed>
  <fix>3d</fix>
</trkpt>
<trkpt lat="33.810313" lon="-118.3938663">
  <ele>-0.12</ele>
  <time>2026-09-01T01:12:19Z</time>
  <course>94.99</course>
  <speed>0.0</speed>
  <fix>3d</fix>
</trkpt>
<trkpt lat="33.8103143" lon="-118.3938679">
  <ele>-0.129</ele>
  <time>2026-09-01T01:12:19Z</time>
  <course>185.63</course>
  <speed>0.18439088914585774</speed>
  <fix>3d</fix>
</trkpt>
<trkpt lat="33.810313" lon="-118.3938663">
  <ele>-0.12</ele>
  <time>2026-09-01T01:12:19Z</time>
  <course>94.99</course>
  <speed>0.0</speed>
  <fix>3d</fix>
</trkpt>
<trkpt lat="33.8103145" lon="-118.393868">
  <ele>-0.128</ele>
  <time>2026-09-01T01:12:19Z</time>
  <course>185.63</course>
  <speed>0.19209372712298545</speed>
  <fix>3d</fix>
</trkpt>
<trkpt lat="33.810313" lon="-118.3938663">
  <ele>-0.12</ele>
  <time>2026-09-01T01:12:19Z</time>
  <course>94.99</course>
  <speed>0.0</speed>
  <fix>3d</fix>
</trkpt>
<trkpt lat="33.8103146" lon="-118.3938681">
  <ele>-0.128</ele>
  <time>2026-09-01T01:12:19Z</time>
  <course>185.63</course>
  <speed>0.19209372712298545</speed>
  <fix>3d</fix>
</trkpt>
<trkpt lat="33.810313" lon="-118.3938663">
  <ele>-0.12</ele>
  <time>2026-09-01T01:12:19Z</time>
  <course>94.99</course>
  <speed>0.0</speed>
  <fix>3d</fix>
</trkpt>
<trkpt lat="33.8103143" lon="-118.3938679">
  <ele>-0.128</ele>
  <time>2026-09-01T01:12:19Z</time>
  <course>185.63</course>
  <speed>0.19209372712298545</speed>
  <fix>3d</fix>
</trkpt>
<trkpt lat="33.810313" lon="-118.3938663">
  <ele>-0.12</ele>
  <time>2026-09-01T01:12:19Z</time>
  <course>94.99</course>
  <speed>0.0</speed>
  <fix>3d</fix>
</trkpt>
<trkpt lat="33.810314" lon="-118.3938675">
  <ele>-0.128</ele>
  <time>2026-09-01T01:12:19Z</time>
  <course>185.63</course>
  <speed>0.17804493814764857</speed>
  <fix>3d</fix>
</trkpt>
<trkpt lat="33.810313" lon="-118.3938663">
  <ele>-0.12</ele>
  <time>2026-09-01T01:12:19Z</time>
  <course>94.99</course>
  <speed>0.0</speed>
  <fix>3d</fix>
</trkpt>
<trkpt lat="33.8103138" lon="-118.3938674">
  <ele>-0.128</ele>
  <time>2026-09-01T01:12:19Z</time>
  <course>185.63</course>
  <speed>0.17804493814764857</speed>
  <fix>3d</fix>
</trkpt>
<trkpt lat="33.810313" lon="-118.3938663">
  <ele>-0.12</ele>
  <time>2026-09-01T01:12:19Z</time>
  <course>94.99</course>
  <speed>0.0</speed>
  <fix>3d</fix>
</trkpt>
<trkpt lat="33.8103137" lon="-118.3938673">
  <ele>-0.127</ele>
  <time>2026-09-01T01:12:19Z</time>
  <course>185.63</course>
  <speed>0.17804493814764857</speed>
  <fix>3d</fix>
</trkpt>
<trkpt lat="33.810313" lon="-118.3938663">
  <ele>-0.12</ele>
  <time>2026-09-01T01:12:19Z</time>
  <course>94.99</course>
  <speed>0.0</speed>
  <fix>3d</fix>
</trkpt>
<trkpt lat="33.8103137" lon="-118.3938672">
  <ele>-0.127</ele>
  <time>2026-09-01T01:12:19Z</time>
  <course>185.63</course>
  <speed>0.17804493814764857</speed>
  <fix>3d</fix>
</trkpt>
<trkpt lat="33.810313" lon="-118.3938663">
  <ele>-0.12</ele>
  <time>2026-09-01T01:12:19Z</time>
  <course>94.99</course>
  <speed>0.0</speed>
  <fix>3d</fix>
</trkpt>
<trkpt lat="33.8103137" lon="-118.3938673">
  <ele>-0.126</ele>
  <time>2026-09-01T01:12:19Z</time>
  <course>185.63</course>
  <speed>0.17804493814764857</speed>
  <fix>3d</fix>
</trkpt>
<trkpt lat="33.810313" lon="-118.3938663">
  <ele>-0.12</ele>
  <time>2026-09-01T01:12:19Z</time>
  <course>94.99</course>
  <speed>0.0</speed>
  <fix>3d</fix>
</trkpt>
<trkpt lat="33.8103138" lon="-118.3938673">
  <ele>-0.124</ele>
  <time>2026-09-01T01:12:19Z</time>
  <course>185.63</course>
  <speed>0.17804493814764857</speed>
  <fix>3d</fix>
</trkpt>
<trkpt lat="33.810313" lon="-118.3938663">
  <ele>-0.12</ele>
  <time>2026-09-01T01:12:19Z</time>
  <course>94.99</course>
  <speed>0.0</speed>
  <fix>3d</fix>
</trkpt>
<trkpt lat="33.8103139" lon="-118.3938674">
  <ele>-0.122</ele>
  <time>2026-09-01T01:12:19Z</time>
  <course>185.63</course>
  <speed>0.17804493814764857</speed>
  <fix>3d</fix>
</trkpt>
<trkpt lat="33.810313" lon="-118.3938663">
  <ele>-0.12</ele>
  <time>2026-09-01T01:12:19Z</time>
  <course>94.99</course>
  <speed>0.0</speed>
  <fix>3d</fix>
</trkpt>
<trkpt lat="33.810314" lon="-118.3938675">
  <ele>-0.121</ele>
  <time>2026-09-01T01:12:19Z</time>
  <course>185.63</course>
  <speed>0.19209372712298545</speed>
  <fix>3d</fix>
</trkpt>
<trkpt lat="33.810313" lon="-118.3938663">
  <ele>-0.12</ele>
  <time>2026-09-01T01:12:19Z</time>
  <course>94.99</course>
  <speed>0.0</speed>
  <fix>3d</fix>
</trkpt>
<trkpt lat="33.8103141" lon="-118.3938677">
  <ele>-0.121</ele>
  <time>2026-09-01T01:12:19Z</time>
  <course>185.63</course>
  <speed>0.19209372712298545</speed>
  <fix>3d</fix>
</trkpt>
<trkpt lat="33.810313" lon="-118.3938663">
  <ele>-0.12</ele>
  <time>2026-09-01T01:12:19Z</time>
  <course>94.99</course>
  <speed>0.0</speed>
  <fix>3d</fix>
</trkpt>
<trkpt lat="33.8103139" lon="-118.3938674">
  <ele>-0.122</ele>
  <time>2026-09-01T01:12:19Z</time>
  <course>185.63</course>
  <speed>0.18439088914585774</speed>
  <fix>3d</fix>
</trkpt>
<trkpt lat="33.810313" lon="-118.3938663">
  <ele>-0.12</ele>
  <time>2026-09-01T01:12:19Z</time>
  <course>94.99</course>
  <speed>0.0</speed>
  <fix>3d</fix>
</trkpt>
<trkpt lat="33.8103136" lon="-118.3938671">
  <ele>-0.124</ele>
  <time>2026-09-01T01:12:19Z</time>
  <course>185.63</course>
  <speed>0.17804493814764857</speed>
  <fix>3d</fix>
</trkpt>
<trkpt lat="33.810313" lon="-118.3938663">
  <ele>-0.12</ele>
  <time>2026-09-01T01:12:19Z</time>
  <course>94.99</course>
  <speed>0.0</speed>
  <fix>3d</fix>
</trkpt>
<trkpt lat="33.8103134" lon="-118.393867">
  <ele>-0.125</ele>
  <time>2026-09-01T01:12:19Z</time>
  <course>185.63</course>
  <speed>0.17804493814764857</speed>
  <fix>3d</fix>
</trkpt>
<trkpt lat="33.810313" lon="-118.3938663">
  <ele>-0.12</ele>
  <time>2026-09-01T01:12:19Z</time>
  <course>94.99</course>
  <speed>0.0</speed>
  <fix>3d</fix>
</trkpt>
<trkpt lat="33.8103133" lon="-118.3938669">
  <ele>-0.127</ele>
  <time>2026-09-01T01:12:19Z</time>
  <course>185.63</course>
  <speed>0.17029386365926402</speed>
  <fix>3d</fix>
</trkpt>
<trkpt lat="33.810313" lon="-118.3938663">
  <ele>-0.12</ele>
  <time>2026-09-01T01:12:19Z</time>
  <course>94.99</course>
  <speed>0.0</speed>
  <fix>3d</fix>
</trkpt>
<trkpt lat="33.8103133" lon="-118.3938669">
  <ele>-0.127</ele>
  <time>2026-09-01T01:12:19Z</time>
  <course>185.63</course>
  <speed>0.17029386365926402</speed>
  <fix>3d</fix>
</trkpt>
<trkpt lat="33.810313" lon="-118.3938663">
  <ele>-0.12</ele>
  <time>2026-09-01T01:12:19Z</time>
  <course>94.99</course>
  <speed>0.0</speed>
  <fix>3d</fix>
</trkpt>
<trkpt lat="33.8103133" lon="-118.3938669">
  <ele>-0.127</ele>
  <time>2026-09-01T01:12:19Z</time>
  <course>185.63</course>
  <speed>0.17804493814764857</speed>
  <fix>3d</fix>
</trkpt>
<trkpt lat="33.810313" lon="-118.3938663">
  <ele>-0.12</ele>
  <time>2026-09-01T01:12:19Z</time>
  <course>94.99</course>
  <speed>0.0</speed>
  <fix>3d</fix>
</trkpt>
<trkpt lat="33.8103134" lon="-118.393867">
  <ele>-0.127</ele>
  <time>2026-09-01T01:12:19Z</time>
  <course>185.63</course>
  <speed>0.17804493814764857</speed>
  <fix>3d</fix>
</trkpt>
<trkpt lat="33.810313" lon="-118.3938663">
  <ele>-0.12</ele>
  <time>2026-09-01T01:12:19Z</time>
  <course>94.99</course>
  <speed>0.0</speed>
  <fix>3d</fix>
</trkpt>
<trkpt lat="33.8103135" lon="-118.3938671">
  <ele>-0.128</ele>
  <time>2026-09-01T01:12:19Z</time>
  <course>185.63</course>
  <speed>0.17804493814764857</speed>
  <fix>3d</fix>
</trkpt>
<trkpt lat="33.810313" lon="-118.3938663">
  <ele>-0.12</ele>
  <time>2026-09-01T01:12:19Z</time>
  <course>94.99</course>
  <speed>0.0</speed>
  <fix>3d</fix>
</trkpt>
<trkpt lat="33.8103136" lon="-118.3938672">
  <ele>-0.13</ele>
  <time>2026-09-01T01:12:19Z</time>
  <course>185.63</course>
  <speed>0.18439088914585774</speed>
  <fix>3d</fix>
</trkpt>
<trkpt lat="33.810313" lon="-118.3938663">
  <ele>-0.12</ele>
  <time>2026-09-01T01:12:19Z</time>
  <course>94.99</course>
  <speed>0.0</speed>
  <fix>3d</fix>
</trkpt>
<trkpt lat="33.8103137" lon="-118.3938673">
  <ele>-0.132</ele>
  <time>2026-09-01T01:12:19Z</time>
  <course>185.63</course>
  <speed>0.19209372712298545</speed>
  <fix>3d</fix>
</trkpt>
<trkpt lat="33.810313" lon="-118.3938663">
  <ele>-0.12</ele>
  <time>2026-09-01T01:12:19Z</time>
  <course>94.99</course>
  <speed>0.0</speed>
  <fix>3d</fix>
</trkpt>
<trkpt lat="33.8103135" lon="-118.3938671">
  <ele>-0.134</ele>
  <time>2026-09-01T01:12:19Z</time>
  <course>185.63</course>
  <speed>0.18439088914585774</speed>
  <fix>3d</fix>
</trkpt>
<trkpt lat="33.810313" lon="-118.3938663">
  <ele>-0.12</ele>
  <time>2026-09-01T01:12:19Z</time>
  <course>94.99</course>
  <speed>0.0</speed>
  <fix>3d</fix>
</trkpt>
<trkpt lat="33.8103132" lon="-118.3938668">
  <ele>-0.134</ele>
  <time>2026-09-01T01:12:19Z</time>
  <course>185.63</course>
  <speed>0.17804493814764857</speed>
  <fix>3d</fix>
</trkpt>
<trkpt lat="33.810313" lon="-118.3938663">
  <ele>-0.12</ele>
  <time>2026-09-01T01:12:19Z</time>
  <course>94.99</course>
  <speed>0.0</speed>
  <fix>3d</fix>
</trkpt>
<trkpt lat="33.810313" lon="-118.3938666">
  <ele>-0.134</ele>
  <time>2026-09-01T01:12:19Z</time>
  <course>185.63</course>
  <speed>0.17029386365926402</speed>
  <fix>3d</fix>
</trkpt>
<trkpt lat="33.810313" lon="-118.3938663">
  <ele>-0.12</ele>
  <time>2026-09-01T01:12:19Z</time>
  <course>94.99</course>
  <speed>0.0</speed>
  <fix>3d</fix>
</trkpt>
<trkpt lat="33.8103129" lon="-118.3938665">
  <ele>-0.134</ele>
  <time>2026-09-01T01:12:19Z</time>
  <course>185.63</course>
  <speed>0.17029386365926402</speed>
  <fix>3d</fix>
</trkpt>
<trkpt lat="33.810313" lon="-118.3938663">
  <ele>-0.12</ele>
  <time>2026-09-01T01:12:19Z</time>
  <course>94.99</course>
  <speed>0.0</speed>
  <fix>3d</fix>
</trkpt>
<trkpt lat="33.8103129" lon="-118.3938665">
  <ele>-0.133</ele>
  <time>2026-09-01T01:12:19Z</time>
  <course>185.63</course>
  <speed>0.17029386365926402</speed>
  <fix>3d</fix>
</trkpt>
<trkpt lat="33.810313" lon="-118.3938663">
  <ele>-0.12</ele>
  <time>2026-09-01T01:12:19Z</time>
  <course>94.99</course>
  <speed>0.0</speed>
  <fix>3d</fix>
</trkpt>
<trkpt lat="33.810313" lon="-118.3938665">
  <ele>-0.132</ele>
  <time>2026-09-01T01:12:19Z</time>
  <course>185.63</course>
  <speed>0.17804493814764857</speed>
  <fix>3d</fix>
</trkpt>
<trkpt lat="33.810313" lon="-118.3938663">
  <ele>-0.12</ele>
  <time>2026-09-01T01:12:19Z</time>
  <course>94.99</course>
  <speed>0.0</speed>
  <fix>3d</fix>
</trkpt>
<trkpt lat="33.810313" lon="-118.3938666">
  <ele>-0.13</ele>
  <time>2026-09-01T01:12:19Z</time>
  <course>185.63</course>
  <speed>0.17804493814764857</speed>
  <fix>3d</fix>
</trkpt>
<trkpt lat="33.810313" lon="-118.3938663">
  <ele>-0.12</ele>
  <time>2026-09-01T01:12:19Z</time>
  <course>94.99</course>
  <speed>0.0</speed>
  <fix>3d</fix>
</trkpt>
<trkpt lat="33.8103131" lon="-118.3938667">
  <ele>-0.127</ele>
  <time>2026-09-01T01:12:19Z</time>
  <course>185.63</course>
  <speed>0.17804493814764857</speed>
  <fix>3d</fix>
</trkpt>
<trkpt lat="33.810313" lon="-118.3938663">
  <ele>-0.12</ele>
  <time>2026-09-01T01:12:19Z</time>
  <course>94.99</course>
  <speed>0.0</speed>
  <fix>3d</fix>
</trkpt>
<trkpt lat="33.8103133" lon="-118.3938668">
  <ele>-0.125</ele>
  <time>2026-09-01T01:12:19Z</time>
  <course>185.63</course>
  <speed>0.18439088914585774</speed>
  <fix>3d</fix>
</trkpt>
<trkpt lat="33.810313" lon="-118.3938663">
  <ele>-0.12</ele>
  <time>2026-09-01T01:12:19Z</time>
  <course>94.99</course>
  <speed>0.0</speed>
  <fix>3d</fix>
</trkpt>
<trkpt lat="33.8103134" lon="-118.393867">
  <ele>-0.123</ele>
  <time>2026-09-01T01:12:19Z</time>
  <course>185.63</course>
  <speed>0.19209372712298545</speed>
  <fix>3d</fix>
</trkpt>
<trkpt lat="33.810313" lon="-118.3938663">
  <ele>-0.12</ele>
  <time>2026-09-01T01:12:19Z</time>
  <course>94.99</course>
  <speed>0.0</speed>
  <fix>3d</fix>
</trkpt>
<trkpt lat="33.8103135" lon="-118.3938671">
  <ele>-0.123</ele>
  <time>2026-09-01T01:12:19Z</time>
  <course>185.63</course>
  <speed>0.19209372712298545</speed>
  <fix>3d</fix>
</trkpt>
<trkpt lat="33.810313" lon="-118.3938663">
  <ele>-0.12</ele>
  <time>2026-09-01T01:12:19Z</time>
  <course>94.99</course>
  <speed>0.0</speed>
  <fix>3d</fix>
</trkpt>
<trkpt lat="33.8103133" lon="-118.3938669">
  <ele>-0.123</ele>
  <time>2026-09-01T01:12:19Z</time>
  <course>185.63</course>
  <speed>0.19209372712298545</speed>
  <fix>3d</fix>
</trkpt>
<trkpt lat="33.810313" lon="-118.3938663">
  <ele>-0.12</ele>
  <time>2026-09-01T01:12:19Z</time>
  <course>94.99</course>
  <speed>0.0</speed>
  <fix>3d</fix>
</trkpt>
<trkpt lat="33.810313" lon="-118.3938666">
  <ele>-0.123</ele>
  <time>2026-09-01T01:12:19Z</time>
  <course>185.63</course>
  <speed>0.17804493814764857</speed>
  <fix>3d</fix>
</trkpt>
<trkpt lat="33.810313" lon="-118.3938663">
  <ele>-0.12</ele>
  <time>2026-09-01T01:12:19Z</time>
  <course>94.99</course>
  <speed>0.0</speed>
  <fix>3d</fix>
</trkpt>
<trkpt lat="33.8103128" lon="-118.3938664">
  <ele>-0.122</ele>
  <time>2026-09-01T01:12:19Z</time>
  <course>185.63</course>
  <speed>0.17804493814764857</speed>
  <fix>3d</fix>
</trkpt>
<trkpt lat="33.810313" lon="-118.3938663">
  <ele>-0.12</ele>
  <time>2026-09-01T01:12:19Z</time>
  <course>94.99</course>
  <speed>0.0</speed>
  <fix>3d</fix>
</trkpt>
<trkpt lat="33.8103127" lon="-118.3938663">
  <ele>-0.121</ele>
  <time>2026-09-01T01:12:19Z</time>
  <course>185.63</course>
  <speed>0.17804493814764857</speed>
  <fix>3d</fix>
</trkpt>
<trkpt lat="33.810313" lon="-118.3938663">
  <ele>-0.12</ele>
  <time>2026-09-01T01:12:19Z</time>
  <course>94.99</course>
  <speed>0.0</speed>
  <fix>3d</fix>
</trkpt>
<trkpt lat="33.8103127" lon="-118.3938663">
  <ele>-0.121</ele>
  <time>2026-09-01T01:12:19Z</time>
  <course>185.63</course>
  <speed>0.17804493814764857</speed>
  <fix>3d</fix>
</trkpt>
<trkpt lat="33.810313" lon="-118.3938663">
  <ele>-0.12</ele>
  <time>2026-09-01T01:12:19Z</time>
  <course>94.99</course>
  <speed>0.0</speed>
  <fix>3d</fix>
</trkpt>
<trkpt lat="33.8103128" lon="-118.3938664">
  <ele>-0.122</ele>
  <time>2026-09-01T01:12:19Z</time>
  <course>185.63</course>
  <speed>0.17804493814764857</speed>
  <fix>3d</fix>
</trkpt>
<trkpt lat="33.810313" lon="-118.3938663">
  <ele>-0.12</ele>
  <time>2026-09-01T01:12:19Z</time>
  <course>94.99</course>
  <speed>0.0</speed>
  <fix>3d</fix>
</trkpt>
<trkpt lat="33.8103128" lon="-118.3938664">
  <ele>-0.122</ele>
  <time>2026-09-01T01:12:19Z</time>
  <course>185.63</course>
  <speed>0.17804493814764857</speed>
  <fix>3d</fix>
</trkpt>
<trkpt lat="33.810313" lon="-118.3938663">
  <ele>-0.12</ele>
  <time>2026-09-01T01:12:19Z</time>
  <course>94.99</course>
  <speed>0.0</speed>
  <fix>3d</fix>
</trkpt>
<trkpt lat="33.8103129" lon="-118.3938665">
  <ele>-0.124</ele>
  <time>2026-09-01T01:12:19Z</time>
  <course>185.63</course>
  <speed>0.18439088914585774</speed>
  <fix>3d</fix>
</trkpt>
<trkpt lat="33.810313" lon="-118.3938663">
  <ele>-0.12</ele>
  <time>2026-09-01T01:12:19Z</time>
  <course>94.99</course>
  <speed>0.0</speed>
  <fix>3d</fix>
</trkpt>
<trkpt lat="33.8103131" lon="-118.3938666">
  <ele>-0.125</ele>
  <time>2026-09-01T01:12:19Z</time>
  <course>185.63</course>
  <speed>0.19209372712298545</speed>
  <fix>3d</fix>
</trkpt>
<trkpt lat="33.810313" lon="-118.3938663">
  <ele>-0.12</ele>
  <time>2026-09-01T01:12:19Z</time>
  <course>94.99</course>
  <speed>0.0</speed>
  <fix>3d</fix>
</trkpt>
<trkpt lat="33.8103132" lon="-118.3938668">
  <ele>-0.126</ele>
  <time>2026-09-01T01:12:19Z</time>
  <course>185.63</course>
  <speed>0.19209372712298545</speed>
  <fix>3d</fix>
</trkpt>
<trkpt lat="33.810313" lon="-118.3938663">
  <ele>-0.12</ele>
  <time>2026-09-01T01:12:19Z</time>
  <course>94.99</course>
  <speed>0.0</speed>
  <fix>3d</fix>
</trkpt>
<trkpt lat="33.8103133" lon="-118.3938669">
  <ele>-0.126</ele>
  <time>2026-09-01T01:12:19Z</time>
  <course>185.63</course>
  <speed>0.19209372712298545</speed>
  <fix>3d</fix>
</trkpt>
<trkpt lat="33.810313" lon="-118.3938663">
  <ele>-0.12</ele>
  <time>2026-09-01T01:12:19Z</time>
  <course>94.99</course>
  <speed>0.0</speed>
  <fix>3d</fix>
</trkpt>
<trkpt lat="33.8103131" lon="-118.3938667">
  <ele>-0.127</ele>
  <time>2026-09-01T01:12:19Z</time>
  <course>185.63</course>
  <speed>0.19209372712298545</speed>
  <fix>3d</fix>
</trkpt>
<trkpt lat="33.810313" lon="-118.3938663">
  <ele>-0.12</ele>
  <time>2026-09-01T01:12:19Z</time>
  <course>94.99</course>
  <speed>0.0</speed>
  <fix>3d</fix>
</trkpt>
<trkpt lat="33.8103128" lon="-118.3938664">
  <ele>-0.127</ele>
  <time>2026-09-01T01:12:19Z</time>
  <course>185.63</course>
  <speed>0.18439088914585774</speed>
  <fix>3d</fix>
</trkpt>
<trkpt lat="33.810313" lon="-118.3938663">
  <ele>-0.12</ele>
  <time>2026-09-01T01:12:19Z</time>
  <course>94.99</course>
  <speed>0.0</speed>
  <fix>3d</fix>
</trkpt>
<trkpt lat="33.8103126" lon="-118.3938662">
  <ele>-0.126</ele>
  <time>2026-09-01T01:12:19Z</time>
  <course>185.63</course>
  <speed>0.17804493814764857</speed>
  <fix>3d</fix>
</trkpt>
<trkpt lat="33.810313" lon="-118.3938663">
  <ele>-0.12</ele>
  <time>2026-09-01T01:12:19Z</time>
  <course>94.99</course>
  <speed>0.0</speed>
  <fix>3d</fix>
</trkpt>
<trkpt lat="33.8103125" lon="-118.3938661">
  <ele>-0.124</ele>
  <time>2026-09-01T01:12:19Z</time>
  <course>185.63</course>
  <speed>0.17804493814764857</speed>
  <fix>3d</fix>
</trkpt>
<trkpt lat="33.810313" lon="-118.3938663">
  <ele>-0.12</ele>
  <time>2026-09-01T01:12:19Z</time>
  <course>94.99</course>
  <speed>0.0</speed>
  <fix>3d</fix>
</trkpt>
<trkpt lat="33.8103125" lon="-118.3938661">
  <ele>-0.122</ele>
  <time>2026-09-01T01:12:19Z</time>
  <course>185.62</course>
  <speed>0.17804493814764857</speed>
  <fix>3d</fix>
</trkpt>
<trkpt lat="33.810313" lon="-118.3938663">
  <ele>-0.12</ele>
  <time>2026-09-01T01:12:19Z</time>
  <course>94.99</course>
  <speed>0.0</speed>
  <fix>3d</fix>
</trkpt>
<trkpt lat="33.8103126" lon="-118.3938662">
  <ele>-0.122</ele>
  <time>2026-09-01T01:12:19Z</time>
  <course>185.62</course>
  <speed>0.17804493814764857</speed>
  <fix>3d</fix>
</trkpt>
<trkpt lat="33.810313" lon="-118.3938663">
  <ele>-0.12</ele>
  <time>2026-09-01T01:12:19Z</time>
  <course>94.99</course>
  <speed>0.0</speed>
  <fix>3d</fix>
</trkpt>
<trkpt lat="33.8103126" lon="-118.3938662">
  <ele>-0.122</ele>
  <time>2026-09-01T01:12:19Z</time>
  <course>185.62</course>
  <speed>0.17804493814764857</speed>
  <fix>3d</fix>
</trkpt>
<trkpt lat="33.810313" lon="-118.3938663">
  <ele>-0.12</ele>
  <time>2026-09-01T01:12:19Z</time>
  <course>94.99</course>
  <speed>0.0</speed>
  <fix>3d</fix>
</trkpt>
<trkpt lat="33.8103127" lon="-118.3938663">
  <ele>-0.123</ele>
  <time>2026-09-01T01:12:19Z</time>
  <course>185.62</course>
  <speed>0.19209372712298545</speed>
  <fix>3d</fix>
</trkpt>
<trkpt lat="33.810313" lon="-118.3938663">
  <ele>-0.12</ele>
  <time>2026-09-01T01:12:19Z</time>
  <course>94.99</course>
  <speed>0.0</speed>
  <fix>3d</fix>
</trkpt>
<trkpt lat="33.8103129" lon="-118.3938664">
  <ele>-0.124</ele>
  <time>2026-09-01T01:12:19Z</time>
  <course>185.62</course>
  <speed>0.19209372712298545</speed>
  <fix>3d</fix>
</trkpt>
<trkpt lat="33.810313" lon="-118.3938663">
  <ele>-0.12</ele>
  <time>2026-09-01T01:12:19Z</time>
  <course>94.99</course>
  <speed>0.0</speed>
  <fix>3d</fix>
</trkpt>
<trkpt lat="33.810313" lon="-118.3938666">
  <ele>-0.126</ele>
  <time>2026-09-01T01:12:19Z</time>
  <course>185.62</course>
  <speed>0.19209372712298545</speed>
  <fix>3d</fix>
</trkpt>
<trkpt lat="33.810313" lon="-118.3938663">
  <ele>-0.12</ele>
  <time>2026-09-01T01:12:19Z</time>
  <course>94.99</course>
  <speed>0.0</speed>
  <fix>3d</fix>
</trkpt>
<trkpt lat="33.8103132" lon="-118.3938667">
  <ele>-0.128</ele>
  <time>2026-09-01T01:12:19Z</time>
  <course>185.62</course>
  <speed>0.20615528128088303</speed>
  <fix>3d</fix>
</trkpt>
<trkpt lat="33.810313" lon="-118.3938663">
  <ele>-0.12</ele>
  <time>2026-09-01T01:12:19Z</time>
  <course>94.99</course>
  <speed>0.0</speed>
  <fix>3d</fix>
</trkpt>
<trkpt lat="33.8103129" lon="-118.3938664">
  <ele>-0.131</ele>
  <time>2026-09-01T01:12:19Z</time>
  <course>185.62</course>
  <speed>0.19209372712298545</speed>
  <fix>3d</fix>
</trkpt>
<trkpt lat="33.810313" lon="-118.3938663">
  <ele>-0.12</ele>
  <time>2026-09-01T01:12:19Z</time>
  <course>94.99</course>
  <speed>0.0</speed>
  <fix>3d</fix>
</trkpt>
<trkpt lat="33.8103126" lon="-118.3938662">
  <ele>-0.132</ele>
  <time>2026-09-01T01:12:19Z</time>
  <course>185.62</course>
  <speed>0.18439088914585774</speed>
  <fix>3d</fix>
</trkpt>
<trkpt lat="33.810313" lon="-118.3938663">
  <ele>-0.12</ele>
  <time>2026-09-01T01:12:19Z</time>
  <course>94.99</course>
  <speed>0.0</speed>
  <fix>3d</fix>
</trkpt>
<trkpt lat="33.8103124" lon="-118.393866">
  <ele>-0.133</ele>
  <time>2026-09-01T01:12:19Z</time>
  <course>185.62</course>
  <speed>0.17804493814764857</speed>
  <fix>3d</fix>
</trkpt>
<trkpt lat="33.810313" lon="-118.3938663">
  <ele>-0.12</ele>
  <time>2026-09-01T01:12:19Z</time>
  <course>94.99</course>
  <speed>0.0</speed>
  <fix>3d</fix>
</trkpt>
<trkpt lat="33.8103123" lon="-118.3938659">
  <ele>-0.134</ele>
  <time>2026-09-01T01:12:19Z</time>
  <course>185.62</course>
  <speed>0.17804493814764857</speed>
  <fix>3d</fix>
</trkpt>
<trkpt lat="33.810313" lon="-118.3938663">
  <ele>-0.12</ele>
  <time>2026-09-01T01:12:19Z</time>
  <course>94.99</course>
  <speed>0.0</speed>
  <fix>3d</fix>
</trkpt>
<trkpt lat="33.8103123" lon="-118.3938659">
  <ele>-0.135</ele>
  <time>2026-09-01T01:12:19Z</time>
  <course>185.62</course>
  <speed>0.17804493814764857</speed>
  <fix>3d</fix>
</trkpt>
<trkpt lat="33.810313" lon="-118.3938663">
  <ele>-0.12</ele>
  <time>2026-09-01T01:12:19Z</time>
  <course>94.99</course>
  <speed>0.0</speed>
  <fix>3d</fix>
</trkpt>
<trkpt lat="33.8103124" lon="-118.393866">
  <ele>-0.136</ele>
  <time>2026-09-01T01:12:19Z</time>
  <course>185.62</course>
  <speed>0.17804493814764857</speed>
  <fix>3d</fix>
</trkpt>
<trkpt lat="33.810313" lon="-118.3938663">
  <ele>-0.12</ele>
  <time>2026-09-01T01:12:19Z</time>
  <course>94.99</course>
  <speed>0.0</speed>
  <fix>3d</fix>
</trkpt>
<trkpt lat="33.8103124" lon="-118.393866">
  <ele>-0.138</ele>
  <time>2026-09-01T01:12:19Z</time>
  <course>185.62</course>
  <speed>0.18439088914585774</speed>
  <fix>3d</fix>
</trkpt>
<trkpt lat="33.810313" lon="-118.3938663">
  <ele>-0.12</ele>
  <time>2026-09-01T01:12:19Z</time>
  <course>94.99</course>
  <speed>0.0</speed>
  <fix>3d</fix>
</trkpt>
<trkpt lat="33.8103125" lon="-118.3938661">
  <ele>-0.139</ele>
  <time>2026-09-01T01:12:19Z</time>
  <course>185.62</course>
  <speed>0.19209372712298545</speed>
  <fix>3d</fix>
</trkpt>
<trkpt lat="33.810313" lon="-118.3938663">
  <ele>-0.12</ele>
  <time>2026-09-01T01:12:19Z</time>
  <course>94.99</course>
  <speed>0.0</speed>
  <fix>3d</fix>
</trkpt>
<trkpt lat="33.8103127" lon="-118.3938663">
  <ele>-0.141</ele>
  <time>2026-09-01T01:12:19Z</time>
  <course>185.62</course>
  <speed>0.19209372712298545</speed>
  <fix>3d</fix>
</trkpt>
<trkpt lat="33.810313" lon="-118.3938663">
  <ele>-0.12</ele>
  <time>2026-09-01T01:12:19Z</time>
  <course>94.99</course>
  <speed>0.0</speed>
  <fix>3d</fix>
</trkpt>
<trkpt lat="33.8103128" lon="-118.3938664">
  <ele>-0.141</ele>
  <time>2026-09-01T01:12:19Z</time>
  <course>185.62</course>
  <speed>0.19209372712298545</speed>
  <fix>3d</fix>
</trkpt>
<trkpt lat="33.810313" lon="-118.3938663">
  <ele>-0.12</ele>
  <time>2026-09-01T01:12:19Z</time>
  <course>94.99</course>
  <speed>0.0</speed>
  <fix>3d</fix>
</trkpt>
<trkpt lat="33.8103125" lon="-118.3938661">
  <ele>-0.14</ele>
  <time>2026-09-01T01:12:19Z</time>
  <course>185.62</course>
  <speed>0.19209372712298545</speed>
  <fix>3d</fix>
</trkpt>
<trkpt lat="33.810313" lon="-118.3938663">
  <ele>-0.12</ele>
  <time>2026-09-01T01:12:19Z</time>
  <course>94.99</course>
  <speed>0.0</speed>
  <fix>3d</fix>
</trkpt>
<trkpt lat="33.8103123" lon="-118.3938658">
  <ele>-0.139</ele>
  <time>2026-09-01T01:12:19Z</time>
  <course>185.62</course>
  <speed>0.17804493814764857</speed>
  <fix>3d</fix>
</trkpt>
<trkpt lat="33.810313" lon="-118.3938663">
  <ele>-0.12</ele>
  <time>2026-09-01T01:12:19Z</time>
  <course>94.99</course>
  <speed>0.0</speed>
  <fix>3d</fix>
</trkpt>
<trkpt lat="33.8103121" lon="-118.3938657">
  <ele>-0.137</ele>
  <time>2026-09-01T01:12:19Z</time>
  <course>185.62</course>
  <speed>0.17804493814764857</speed>
  <fix>3d</fix>
</trkpt>
<trkpt lat="33.810313" lon="-118.3938663">
  <ele>-0.12</ele>
  <time>2026-09-01T01:12:19Z</time>
  <course>94.99</course>
  <speed>0.0</speed>
  <fix>3d</fix>
</trkpt>
<trkpt lat="33.810312" lon="-118.3938656">
  <ele>-0.135</ele>
  <time>2026-09-01T01:12:19Z</time>
  <course>185.62</course>
  <speed>0.17804493814764857</speed>
  <fix>3d</fix>
</trkpt>
<trkpt lat="33.810313" lon="-118.3938662">
  <ele>-0.12</ele>
  <time>2026-09-01T01:12:19Z</time>
  <course>94.99</course>
  <speed>0.0</speed>
  <fix>3d</fix>
</trkpt>
<trkpt lat="33.810312" lon="-118.3938656">
  <ele>-0.132</ele>
  <time>2026-09-01T01:12:19Z</time>
  <course>185.62</course>
  <speed>0.17804493814764857</speed>
  <fix>3d</fix>
</trkpt>
<trkpt lat="33.810313" lon="-118.3938662">
  <ele>-0.12</ele>
  <time>2026-09-01T01:12:19Z</time>
  <course>94.99</course>
  <speed>0.0</speed>
  <fix>3d</fix>
</trkpt>
<trkpt lat="33.8103121" lon="-118.3938657">
  <ele>-0.129</ele>
  <time>2026-09-01T01:12:19Z</time>
  <course>185.62</course>
  <speed>0.17804493814764857</speed>
  <fix>3d</fix>
</trkpt>
<trkpt lat="33.810313" lon="-118.3938662">
  <ele>-0.12</ele>
  <time>2026-09-01T01:12:19Z</time>
  <course>94.99</course>
  <speed>0.0</speed>
  <fix>3d</fix>
</trkpt>
<trkpt lat="33.8103122" lon="-118.3938658">
  <ele>-0.126</ele>
  <time>2026-09-01T01:12:19Z</time>
  <course>185.62</course>
  <speed>0.18439088914585774</speed>
  <fix>3d</fix>
</trkpt>
<trkpt lat="33.810313" lon="-118.3938662">
  <ele>-0.12</ele>
  <time>2026-09-01T01:12:19Z</time>
  <course>94.99</course>
  <speed>0.0</speed>
  <fix>3d</fix>
</trkpt>
<trkpt lat="33.8103123" lon="-118.3938659">
  <ele>-0.124</ele>
  <time>2026-09-01T01:12:19Z</time>
  <course>185.62</course>
  <speed>0.18439088914585774</speed>
  <fix>3d</fix>
</trkpt>
<trkpt lat="33.810313" lon="-118.3938662">
  <ele>-0.12</ele>
  <time>2026-09-01T01:12:19Z</time>
  <course>94.99</course>
  <speed>0.0</speed>
  <fix>3d</fix>
</trkpt>
<trkpt lat="33.8103124" lon="-118.393866">
  <ele>-0.122</ele>
  <time>2026-09-01T01:12:19Z</time>
  <course>185.62</course>
  <speed>0.19209372712298545</speed>
  <fix>3d</fix>
</trkpt>
<trkpt lat="33.810313" lon="-118.3938662">
  <ele>-0.12</ele>
  <time>2026-09-01T01:12:19Z</time>
  <course>94.99</course>
  <speed>0.0</speed>
  <fix>3d</fix>
</trkpt>
<trkpt lat="33.8103125" lon="-118.3938661">
  <ele>-0.121</ele>
  <time>2026-09-01T01:12:19Z</time>
  <course>185.62</course>
  <speed>0.19209372712298545</speed>
  <fix>3d</fix>
</trkpt>
<trkpt lat="33.810313" lon="-118.3938662">
  <ele>-0.12</ele>
  <time>2026-09-01T01:12:19Z</time>
  <course>94.99</course>
  <speed>0.0</speed>
  <fix>3d</fix>
</trkpt>
<trkpt lat="33.8103123" lon="-118.3938659">
  <ele>-0.12</ele>
  <time>2026-09-01T01:12:19Z</time>
  <course>185.62</course>
  <speed>0.19209372712298545</speed>
  <fix>3d</fix>
</trkpt>
<trkpt lat="33.810313" lon="-118.3938662">
  <ele>-0.12</ele>
  <time>2026-09-01T01:12:19Z</time>
  <course>94.99</course>
  <speed>0.0</speed>
  <fix>3d</fix>
</trkpt>
<trkpt lat="33.810312" lon="-118.3938656">
  <ele>-0.121</ele>
  <time>2026-09-01T01:12:19Z</time>
  <course>185.62</course>
  <speed>0.17804493814764857</speed>
  <fix>3d</fix>
</trkpt>
<trkpt lat="33.810313" lon="-118.3938662">
  <ele>-0.12</ele>
  <time>2026-09-01T01:12:19Z</time>
  <course>94.99</course>
  <speed>0.0</speed>
  <fix>3d</fix>
</trkpt>
<trkpt lat="33.8103119" lon="-118.3938655">
  <ele>-0.12</ele>
  <time>2026-09-01T01:12:19Z</time>
  <course>185.62</course>
  <speed>0.17804493814764857</speed>
  <fix>3d</fix>
</trkpt>
<trkpt lat="33.810313" lon="-118.3938662">
  <ele>-0.12</ele>
  <time>2026-09-01T01:12:19Z</time>
  <course>94.99</course>
  <speed>0.0</speed>
  <fix>3d</fix>
</trkpt>
<trkpt lat="33.810313" lon="-118.3938662">
  <ele>-0.119</ele>
  <time>2026-09-01T01:12:19Z</time>
  <course>185.62</course>
  <speed>0.15620499351813308</speed>
  <fix>3d</fix>
</trkpt>
<trkpt lat="33.810313" lon="-118.3938662">
  <ele>-0.12</ele>
  <time>2026-09-01T01:12:19Z</time>
  <course>94.99</course>
  <speed>0.0</speed>
  <fix>3d</fix>
</trkpt>
<trkpt lat="33.810313" lon="-118.3938662">
  <ele>-0.117</ele>
  <time>2026-09-01T01:12:19Z</time>
  <course>185.62</course>
  <speed>0.12806248474865697</speed>
  <fix>3d</fix>
</trkpt>
<trkpt lat="33.810313" lon="-118.3938662">
  <ele>-0.12</ele>
  <time>2026-09-01T01:12:19Z</time>
  <course>94.99</course>
  <speed>0.0</speed>
  <fix>3d</fix>
</trkpt>
<trkpt lat="33.810313" lon="-118.3938662">
  <ele>-0.117</ele>
  <time>2026-09-01T01:12:19Z</time>
  <course>185.62</course>
  <speed>0.11401754250991379</speed>
  <fix>3d</fix>
</trkpt>
<trkpt lat="33.810313" lon="-118.3938662">
  <ele>-0.12</ele>
  <time>2026-09-01T01:12:19Z</time>
  <course>94.99</course>
  <speed>0.0</speed>
  <fix>3d</fix>
</trkpt>
<trkpt lat="33.810313" lon="-118.3938662">
  <ele>-0.117</ele>
  <time>2026-09-01T01:12:19Z</time>
  <course>185.62</course>
  <speed>0.09219544457292887</speed>
  <fix>3d</fix>
</trkpt>
<trkpt lat="33.810313" lon="-118.3938662">
  <ele>-0.12</ele>
  <time>2026-09-01T01:12:19Z</time>
  <course>94.99</course>
  <speed>0.0</speed>
  <fix>3d</fix>
</trkpt>
<trkpt lat="33.810313" lon="-118.3938662">
  <ele>-0.117</ele>
  <time>2026-09-01T01:12:19Z</time>
  <course>185.62</course>
  <speed>0.07810249675906654</speed>
  <fix>3d</fix>
</trkpt>
<trkpt lat="33.810313" lon="-118.3938662">
  <ele>-0.12</ele>
  <time>2026-09-01T01:12:19Z</time>
  <course>94.99</course>
  <speed>0.0</speed>
  <fix>3d</fix>
</trkpt>
<trkpt lat="33.810313" lon="-118.3938662">
  <ele>-0.117</ele>
  <time>2026-09-01T01:12:19Z</time>
  <course>185.62</course>
  <speed>0.06403124237432849</speed>
  <fix>3d</fix>
</trkpt>
<trkpt lat="33.810313" lon="-118.3938662">
  <ele>-0.12</ele>
  <time>2026-09-01T01:12:19Z</time>
  <course>94.99</course>
  <speed>0.0</speed>
  <fix>3d</fix>
</trkpt>
<trkpt lat="33.8103129" lon="-118.3938661">
  <ele>-0.118</ele>
  <time>2026-09-01T01:12:19Z</time>
  <course>185.62</course>
  <speed>0.05</speed>
  <fix>3d</fix>
</trkpt>
<trkpt lat="33.810313" lon="-118.3938662">
  <ele>-0.12</ele>
  <time>2026-09-01T01:12:19Z</time>
  <course>94.99</course>
  <speed>0.0</speed>
  <fix>3d</fix>
</trkpt>
<trkpt lat="33.8103129" lon="-118.3938661">
  <ele>-0.118</ele>
  <time>2026-09-01T01:12:19Z</time>
  <course>185.62</course>
  <speed>0.04242640687119285</speed>
  <fix>3d</fix>
</trkpt>
<trkpt lat="33.810313" lon="-118.3938662">
  <ele>-0.12</ele>
  <time>2026-09-01T01:12:19Z</time>
  <course>94.99</course>
  <speed>0.0</speed>
  <fix>3d</fix>
</trkpt>
<trkpt lat="33.8103129" lon="-118.3938661">
  <ele>-0.12</ele>
  <time>2026-09-01T01:12:19Z</time>
  <course>185.62</course>
  <speed>0.03605551275463989</speed>
  <fix>3d</fix>
</trkpt>
<trkpt lat="33.810313" lon="-118.3938662">
  <ele>-0.12</ele>
  <time>2026-09-01T01:12:19Z</time>
  <course>94.99</course>
  <speed>0.0</speed>
  <fix>3d</fix>
</trkpt>
<trkpt lat="33.8103129" lon="-118.3938661">
  <ele>-0.12</ele>
  <time>2026-09-01T01:12:19Z</time>
  <course>185.62</course>
  <speed>0.03605551275463989</speed>
  <fix>3d</fix>
</trkpt>
<trkpt lat="33.810313" lon="-118.3938662">
  <ele>-0.12</ele>
  <time>2026-09-01T01:12:19Z</time>
  <course>94.99</course>
  <speed>0.0</speed>
  <fix>3d</fix>
</trkpt>
<trkpt lat="33.8103129" lon="-118.3938661">
  <ele>-0.121</ele>
  <time>2026-09-01T01:12:19Z</time>
  <course>185.62</course>
  <speed>0.0282842712474619</speed>
  <fix>3d</fix>
</trkpt>
<trkpt lat="33.810313" lon="-118.3938662">
  <ele>-0.12</ele>
  <time>2026-09-01T01:12:19Z</time>
  <course>94.99</course>
  <speed>0.0</speed>
  <fix>3d</fix>
</trkpt>
<trkpt lat="33.8103129" lon="-118.3938661">
  <ele>-0.122</ele>
  <time>2026-09-01T01:12:19Z</time>
  <course>185.62</course>
  <speed>0.0282842712474619</speed>
  <fix>3d</fix>
</trkpt>
<trkpt lat="33.810313" lon="-118.3938662">
  <ele>-0.12</ele>
  <time>2026-09-01T01:12:19Z</time>
  <course>94.99</course>
  <speed>0.0</speed>
  <fix>3d</fix>
</trkpt>
<trkpt lat="33.8103129" lon="-118.3938661">
  <ele>-0.123</ele>
  <time>2026-09-01T01:12:19Z</time>
  <course>185.62</course>
  <speed>0.0282842712474619</speed>
  <fix>3d</fix>
</trkpt>
<trkpt lat="33.810313" lon="-118.3938662">
  <ele>-0.12</ele>
  <time>2026-09-01T01:12:19Z</time>
  <course>94.99</course>
  <speed>0.0</speed>
  <fix>3d</fix>
</trkpt>
<trkpt lat="33.8103129" lon="-118.3938661">
  <ele>-0.125</ele>
  <time>2026-09-01T01:12:19Z</time>
  <course>185.62</course>
  <speed>0.022360679774997897</speed>
  <fix>3d</fix>
</trkpt>
<trkpt lat="33.810313" lon="-118.3938662">
  <ele>-0.12</ele>
  <time>2026-09-01T01:12:19Z</time>
  <course>94.99</course>
  <speed>0.0</speed>
  <fix>3d</fix>
</trkpt>
<trkpt lat="33.8103129" lon="-118.3938661">
  <ele>-0.127</ele>
  <time>2026-09-01T01:12:19Z</time>
  <course>185.62</course>
  <speed>0.022360679774997897</speed>
  <fix>3d</fix>
</trkpt>
<trkpt lat="33.810313" lon="-118.3938662">
  <ele>-0.12</ele>
  <time>2026-09-01T01:12:19Z</time>
  <course>94.99</course>
  <speed>0.0</speed>
  <fix>3d</fix>
</trkpt>
<trkpt lat="33.8103129" lon="-118.3938661">
  <ele>-0.13</ele>
  <time>2026-09-01T01:12:19Z</time>
  <course>185.62</course>
  <speed>0.022360679774997897</speed>
  <fix>3d</fix>
</trkpt>
<trkpt lat="33.810313" lon="-118.3938662">
  <ele>-0.12</ele>
  <time>2026-09-01T01:12:19Z</time>
  <course>94.99</course>
  <speed>0.0</speed>
  <fix>3d</fix>
</trkpt>
<trkpt lat="33.810313" lon="-118.3938662">
  <ele>-0.132</ele>
  <time>2026-09-01T01:12:19Z</time>
  <course>185.62</course>
  <speed>0.022360679774997897</speed>
  <fix>3d</fix>
</trkpt>
<trkpt lat="33.810313" lon="-118.3938662">
  <ele>-0.12</ele>
  <time>2026-09-01T01:12:19Z</time>
  <course>94.99</course>
  <speed>0.0</speed>
  <fix>3d</fix>
</trkpt>
<trkpt lat="33.810313" lon="-118.3938662">
  <ele>-0.134</ele>
  <time>2026-09-01T01:12:19Z</time>
  <course>185.62</course>
  <speed>0.022360679774997897</speed>
  <fix>3d</fix>
</trkpt>
<trkpt lat="33.810313" lon="-118.3938662">
  <ele>-0.12</ele>
  <time>2026-09-01T01:12:19Z</time>
  <course>94.99</course>
  <speed>0.0</speed>
  <fix>3d</fix>
</trkpt>
<trkpt lat="33.810313" lon="-118.3938662">
  <ele>-0.135</ele>
  <time>2026-09-01T01:12:19Z</time>
  <course>185.62</course>
  <speed>0.022360679774997897</speed>
  <fix>3d</fix>
</trkpt>
<trkpt lat="33.810313" lon="-118.3938662">
  <ele>-0.12</ele>
  <time>2026-09-01T01:12:19Z</time>
  <course>94.99</course>
  <speed>0.0</speed>
  <fix>3d</fix>
</trkpt>
<trkpt lat="33.810313" lon="-118.3938662">
  <ele>-0.135</ele>
  <time>2026-09-01T01:12:19Z</time>
  <course>185.62</course>
  <speed>0.022360679774997897</speed>
  <fix>3d</fix>
</trkpt>
<trkpt lat="33.810313" lon="-118.3938662">
  <ele>-0.12</ele>
  <time>2026-09-01T01:12:19Z</time>
  <course>94.99</course>
  <speed>0.0</speed>
  <fix>3d</fix>
</trkpt>
<trkpt lat="33.810313" lon="-118.3938662">
  <ele>-0.135</ele>
  <time>2026-09-01T01:12:19Z</time>
  <course>185.62</course>
  <speed>0.022360679774997897</speed>
  <fix>3d</fix>
</trkpt>
<trkpt lat="33.810313" lon="-118.3938662">
  <ele>-0.12</ele>
  <time>2026-09-01T01:12:19Z</time>
  <course>94.99</course>
  <speed>0.0</speed>
  <fix>3d</fix>
</trkpt>
<trkpt lat="33.810313" lon="-118.3938662">
  <ele>-0.133</ele>
  <time>2026-09-01T01:12:19Z</time>
  <course>185.63</course>
  <speed>0.022360679774997897</speed>
  <fix>3d</fix>
</trkpt>
<trkpt lat="33.810313" lon="-118.3938662">
  <ele>-0.12</ele>
  <time>2026-09-01T01:12:19Z</time>
  <course>94.99</course>
  <speed>0.0</speed>
  <fix>3d</fix>
</trkpt>
<trkpt lat="33.810313" lon="-118.3938662">
  <ele>-0.132</ele>
  <time>2026-09-01T01:12:19Z</time>
  <course>185.63</course>
  <speed>0.022360679774997897</speed>
  <fix>3d</fix>
</trkpt>
<trkpt lat="33.810313" lon="-118.3938662">
  <ele>-0.12</ele>
  <time>2026-09-01T01:12:19Z</time>
  <course>94.99</course>
  <speed>0.0</speed>
  <fix>3d</fix>
</trkpt>
<trkpt lat="33.8103131" lon="-118.3938663">
  <ele>-0.132</ele>
  <time>2026-09-01T01:12:19Z</time>
  <course>185.63</course>
  <speed>0.0282842712474619</speed>
  <fix>3d</fix>
</trkpt>
<trkpt lat="33.810313" lon="-118.3938662">
  <ele>-0.12</ele>
  <time>2026-09-01T01:12:19Z</time>
  <course>94.99</course>
  <speed>0.0</speed>
  <fix>3d</fix>
</trkpt>
<trkpt lat="33.8103131" lon="-118.3938663">
  <ele>-0.132</ele>
  <time>2026-09-01T01:12:19Z</time>
  <course>185.63</course>
  <speed>0.0282842712474619</speed>
  <fix>3d</fix>
</trkpt>
<trkpt lat="33.810313" lon="-118.3938662">
  <ele>-0.12</ele>
  <time>2026-09-01T01:12:19Z</time>
  <course>94.99</course>
  <speed>0.0</speed>
  <fix>3d</fix>
</trkpt>
<trkpt lat="33.8103131" lon="-118.3938663">
  <ele>-0.133</ele>
  <time>2026-09-01T01:12:19Z</time>
  <course>185.63</course>
  <speed>0.0282842712474619</speed>
  <fix>3d</fix>
</trkpt>
<trkpt lat="33.810313" lon="-118.3938662">
  <ele>-0.12</ele>
  <time>2026-09-01T01:12:19Z</time>
  <course>94.99</course>
  <speed>0.0</speed>
  <fix>3d</fix>
</trkpt>
<trkpt lat="33.8103132" lon="-118.3938664">
  <ele>-0.132</ele>
  <time>2026-09-01T01:12:19Z</time>
  <course>185.63</course>
  <speed>0.03605551275463989</speed>
  <fix>3d</fix>
</trkpt>
<trkpt lat="33.810313" lon="-118.3938662">
  <ele>-0.12</ele>
  <time>2026-09-01T01:12:19Z</time>
  <course>94.99</course>
  <speed>0.0</speed>
  <fix>3d</fix>
</trkpt>
<trkpt lat="33.8103132" lon="-118.3938664">
  <ele>-0.131</ele>
  <time>2026-09-01T01:12:19Z</time>
  <course>185.63</course>
  <speed>0.03605551275463989</speed>
  <fix>3d</fix>
</trkpt>
<trkpt lat="33.810313" lon="-118.3938662">
  <ele>-0.12</ele>
  <time>2026-09-01T01:12:19Z</time>
  <course>94.99</course>
  <speed>0.0</speed>
  <fix>3d</fix>
</trkpt>
<trkpt lat="33.8103132" lon="-118.3938664">
  <ele>-0.129</ele>
  <time>2026-09-01T01:12:19Z</time>
  <course>185.63</course>
  <speed>0.04242640687119285</speed>
  <fix>3d</fix>
</trkpt>
<trkpt lat="33.810313" lon="-118.3938662">
  <ele>-0.12</ele>
  <time>2026-09-01T01:12:19Z</time>
  <course>94.99</course>
  <speed>0.0</speed>
  <fix>3d</fix>
</trkpt>
<trkpt lat="33.8103132" lon="-118.3938664">
  <ele>-0.128</ele>
  <time>2026-09-01T01:12:19Z</time>
  <course>185.63</course>
  <speed>0.05</speed>
  <fix>3d</fix>
</trkpt>
<trkpt lat="33.810313" lon="-118.3938662">
  <ele>-0.12</ele>
  <time>2026-09-01T01:12:19Z</time>
  <course>94.99</course>
  <speed>0.0</speed>
  <fix>3d</fix>
</trkpt>
<trkpt lat="33.8103133" lon="-118.3938665">
  <ele>-0.126</ele>
  <time>2026-09-01T01:12:19Z</time>
  <course>185.63</course>
  <speed>0.05</speed>
  <fix>3d</fix>
</trkpt>
<trkpt lat="33.810313" lon="-118.3938662">
  <ele>-0.12</ele>
  <time>2026-09-01T01:12:19Z</time>
  <course>94.99</course>
  <speed>0.0</speed>
  <fix>3d</fix>
</trkpt>
<trkpt lat="33.8103133" lon="-118.3938665">
  <ele>-0.126</ele>
  <time>2026-09-01T01:12:19Z</time>
  <course>185.63</course>
  <speed>0.05</speed>
  <fix>3d</fix>
</trkpt>
<trkpt lat="33.810313" lon="-118.3938662">
  <ele>-0.12</ele>
  <time>2026-09-01T01:12:19Z</time>
  <course>94.99</course>
  <speed>0.0</speed>
  <fix>3d</fix>
</trkpt>
<trkpt lat="33.8103134" lon="-118.3938666">
  <ele>-0.125</ele>
  <time>2026-09-01T01:12:19Z</time>
  <course>185.63</course>
  <speed>0.05</speed>
  <fix>3d</fix>
</trkpt>
<trkpt lat="33.810313" lon="-118.3938662">
  <ele>-0.12</ele>
  <time>2026-09-01T01:12:19Z</time>
  <course>94.99</course>
  <speed>0.0</speed>
  <fix>3d</fix>
</trkpt>
<trkpt lat="33.8103135" lon="-118.3938667">
  <ele>-0.125</ele>
  <time>2026-09-01T01:12:19Z</time>
  <course>185.63</course>
  <speed>0.06403124237432849</speed>
  <fix>3d</fix>
</trkpt>
<trkpt lat="33.810313" lon="-118.3938662">
  <ele>-0.12</ele>
  <time>2026-09-01T01:12:19Z</time>
  <course>94.99</course>
  <speed>0.0</speed>
  <fix>3d</fix>
</trkpt>
<trkpt lat="33.8103135" lon="-118.3938667">
  <ele>-0.125</ele>
  <time>2026-09-01T01:12:19Z</time>
  <course>185.63</course>
  <speed>0.06403124237432849</speed>
  <fix>3d</fix>
</trkpt>
<trkpt lat="33.810313" lon="-118.3938662">
  <ele>-0.12</ele>
  <time>2026-09-01T01:12:19Z</time>
  <course>94.99</course>
  <speed>0.0</speed>
  <fix>3d</fix>
</trkpt>
<trkpt lat="33.8103136" lon="-118.3938668">
  <ele>-0.125</ele>
  <time>2026-09-01T01:12:19Z</time>
  <course>185.63</course>
  <speed>0.06403124237432849</speed>
  <fix>3d</fix>
</trkpt>
<trkpt lat="33.810313" lon="-118.3938662">
  <ele>-0.12</ele>
  <time>2026-09-01T01:12:19Z</time>
  <course>94.99</course>
  <speed>0.0</speed>
  <fix>3d</fix>
</trkpt>
<trkpt lat="33.8103136" lon="-118.3938668">
  <ele>-0.125</ele>
  <time>2026-09-01T01:12:19Z</time>
  <course>185.63</course>
  <speed>0.06403124237432849</speed>
  <fix>3d</fix>
</trkpt>
<trkpt lat="33.810313" lon="-118.3938662">
  <ele>-0.12</ele>
  <time>2026-09-01T01:12:19Z</time>
  <course>94.99</course>
  <speed>0.0</speed>
  <fix>3d</fix>
</trkpt>
<trkpt lat="33.8103137" lon="-118.3938669">
  <ele>-0.126</ele>
  <time>2026-09-01T01:12:19Z</time>
  <course>185.63</course>
  <speed>0.07810249675906654</speed>
  <fix>3d</fix>
</trkpt>
<trkpt lat="33.810313" lon="-118.3938662">
  <ele>-0.12</ele>
  <time>2026-09-01T01:12:19Z</time>
  <course>94.99</course>
  <speed>0.0</speed>
  <fix>3d</fix>
</trkpt>
<trkpt lat="33.8103138" lon="-118.393867">
  <ele>-0.125</ele>
  <time>2026-09-01T01:12:19Z</time>
  <course>185.63</course>
  <speed>0.07810249675906654</speed>
  <fix>3d</fix>
</trkpt>
<trkpt lat="33.810313" lon="-118.3938662">
  <ele>-0.12</ele>
  <time>2026-09-01T01:12:19Z</time>
  <course>94.99</course>
  <speed>0.0</speed>
  <fix>3d</fix>
</trkpt>
<trkpt lat="33.8103138" lon="-118.393867">
  <ele>-0.124</ele>
  <time>2026-09-01T01:12:19Z</time>
  <course>185.63</course>
  <speed>0.07810249675906654</speed>
  <fix>3d</fix>
</trkpt>
<trkpt lat="33.810313" lon="-118.3938662">
  <ele>-0.12</ele>
  <time>2026-09-01T01:12:19Z</time>
  <course>94.99</course>
  <speed>0.0</speed>
  <fix>3d</fix>
</trkpt>
<trkpt lat="33.8103139" lon="-118.3938671">
  <ele>-0.124</ele>
  <time>2026-09-01T01:12:19Z</time>
  <course>185.63</course>
  <speed>0.08602325267042626</speed>
  <fix>3d</fix>
</trkpt>
<trkpt lat="33.810313" lon="-118.3938662">
  <ele>-0.12</ele>
  <time>2026-09-01T01:12:19Z</time>
  <course>94.99</course>
  <speed>0.0</speed>
  <fix>3d</fix>
</trkpt>
<trkpt lat="33.810314" lon="-118.3938672">
  <ele>-0.123</ele>
  <time>2026-09-01T01:12:19Z</time>
  <course>185.63</course>
  <speed>0.09219544457292887</speed>
  <fix>3d</fix>
</trkpt>
<trkpt lat="33.810313" lon="-118.3938662">
  <ele>-0.12</ele>
  <time>2026-09-01T01:12:19Z</time>
  <course>94.99</course>
  <speed>0.0</speed>
  <fix>3d</fix>
</trkpt>
<trkpt lat="33.810314" lon="-118.3938672">
  <ele>-0.123</ele>
  <time>2026-09-01T01:12:19Z</time>
  <course>185.63</course>
  <speed>0.09219544457292887</speed>
  <fix>3d</fix>
</trkpt>
<trkpt lat="33.810313" lon="-118.3938662">
  <ele>-0.12</ele>
  <time>2026-09-01T01:12:19Z</time>
  <course>94.99</course>
  <speed>0.0</speed>
  <fix>3d</fix>
</trkpt>
<trkpt lat="33.8103141" lon="-118.3938673">
  <ele>-0.123</ele>
  <time>2026-09-01T01:12:19Z</time>
  <course>185.63</course>
  <speed>0.09219544457292887</speed>
  <fix>3d</fix>
</trkpt>
<trkpt lat="33.810313" lon="-118.3938662">
  <ele>-0.12</ele>
  <time>2026-09-01T01:12:19Z</time>
  <course>94.99</course>
  <speed>0.0</speed>
  <fix>3d</fix>
</trkpt>
<trkpt lat="33.8103142" lon="-118.3938673">
  <ele>-0.124</ele>
  <time>2026-09-01T01:12:19Z</time>
  <course>185.63</course>
  <speed>0.1</speed>
  <fix>3d</fix>
</trkpt>
<trkpt lat="33.810313" lon="-118.3938662">
  <ele>-0.12</ele>
  <time>2026-09-01T01:12:19Z</time>
  <course>94.99</course>
  <speed>0.0</speed>
  <fix>3d</fix>
</trkpt>
<trkpt lat="33.8103142" lon="-118.3938674">
  <ele>-0.126</ele>
  <time>2026-09-01T01:12:19Z</time>
  <course>185.63</course>
  <speed>0.1</speed>
  <fix>3d</fix>
</trkpt>
<trkpt lat="33.810313" lon="-118.3938662">
  <ele>-0.12</ele>
  <time>2026-09-01T01:12:19Z</time>
  <course>94.99</course>
  <speed>0.0</speed>
  <fix>3d</fix>
</trkpt>
<trkpt lat="33.8103143" lon="-118.3938675">
  <ele>-0.127</ele>
  <time>2026-09-01T01:12:19Z</time>
  <course>185.63</course>
  <speed>0.1063014581273465</speed>
  <fix>3d</fix>
</trkpt>
<trkpt lat="33.810313" lon="-118.3938662">
  <ele>-0.12</ele>
  <time>2026-09-01T01:12:19Z</time>
  <course>94.99</course>
  <speed>0.0</speed>
  <fix>3d</fix>
</trkpt>
<trkpt lat="33.8103144" lon="-118.3938676">
  <ele>-0.128</ele>
  <time>2026-09-01T01:12:19Z</time>
  <course>185.63</course>
  <speed>0.1063014581273465</speed>
  <fix>3d</fix>
</trkpt>
<trkpt lat="33.810313" lon="-118.3938662">
  <ele>-0.12</ele>
  <time>2026-09-01T01:12:19Z</time>
  <course>94.99</course>
  <speed>0.0</speed>
  <fix>3d</fix>
</trkpt>
<trkpt lat="33.8103145" lon="-118.3938677">
  <ele>-0.129</ele>
  <time>2026-09-01T01:12:19Z</time>
  <course>185.63</course>
  <speed>0.11401754250991379</speed>
  <fix>3d</fix>
</trkpt>
<trkpt lat="33.810313" lon="-118.3938662">
  <ele>-0.12</ele>
  <time>2026-09-01T01:12:19Z</time>
  <course>94.99</course>
  <speed>0.0</speed>
  <fix>3d</fix>
</trkpt>
<trkpt lat="33.8103146" lon="-118.3938678">
  <ele>-0.129</ele>
  <time>2026-09-01T01:12:19Z</time>
  <course>185.63</course>
  <speed>0.11401754250991379</speed>
  <fix>3d</fix>
</trkpt>
<trkpt lat="33.810313" lon="-118.3938662">
  <ele>-0.12</ele>
  <time>2026-09-01T01:12:19Z</time>
  <course>94.99</course>
  <speed>0.0</speed>
  <fix>3d</fix>
</trkpt>
<trkpt lat="33.8103147" lon="-118.3938678">
  <ele>-0.129</ele>
  <time>2026-09-01T01:12:19Z</time>
  <course>185.63</course>
  <speed>0.12041594578792296</speed>
  <fix>3d</fix>
</trkpt>
<trkpt lat="33.810313" lon="-118.3938662">
  <ele>-0.12</ele>
  <time>2026-09-01T01:12:19Z</time>
  <course>94.99</course>
  <speed>0.0</speed>
  <fix>3d</fix>
</trkpt>
<trkpt lat="33.8103147" lon="-118.3938679">
  <ele>-0.129</ele>
  <time>2026-09-01T01:12:19Z</time>
  <course>185.63</course>
  <speed>0.12806248474865697</speed>
  <fix>3d</fix>
</trkpt>
<trkpt lat="33.810313" lon="-118.3938662">
  <ele>-0.12</ele>
  <time>2026-09-01T01:12:19Z</time>
  <course>94.99</course>
  <speed>0.0</speed>
  <fix>3d</fix>
</trkpt>
<trkpt lat="33.8103148" lon="-118.3938679">
  <ele>-0.13</ele>
  <time>2026-09-01T01:12:19Z</time>
  <course>185.63</course>
  <speed>0.12806248474865697</speed>
  <fix>3d</fix>
</trkpt>
<trkpt lat="33.810313" lon="-118.3938662">
  <ele>-0.12</ele>
  <time>2026-09-01T01:12:19Z</time>
  <course>94.99</course>
  <speed>0.0</speed>
  <fix>3d</fix>
</trkpt>
<trkpt lat="33.8103148" lon="-118.393868">
  <ele>-0.131</ele>
  <time>2026-09-01T01:12:19Z</time>
  <course>185.63</course>
  <speed>0.12806248474865697</speed>
  <fix>3d</fix>
</trkpt>
<trkpt lat="33.810313" lon="-118.3938662">
  <ele>-0.12</ele>
  <time>2026-09-01T01:12:19Z</time>
  <course>94.99</course>
  <speed>0.0</speed>
  <fix>3d</fix>
</trkpt>
<trkpt lat="33.8103149" lon="-118.3938681">
  <ele>-0.133</ele>
  <time>2026-09-01T01:12:19Z</time>
  <course>185.63</course>
  <speed>0.12806248474865697</speed>
  <fix>3d</fix>
</trkpt>
<trkpt lat="33.810313" lon="-118.3938662">
  <ele>-0.12</ele>
  <time>2026-09-01T01:12:19Z</time>
  <course>94.99</course>
  <speed>0.0</speed>
  <fix>3d</fix>
</trkpt>
<trkpt lat="33.810315" lon="-118.3938682">
  <ele>-0.135</ele>
  <time>2026-09-01T01:12:19Z</time>
  <course>185.63</course>
  <speed>0.12806248474865697</speed>
  <fix>3d</fix>
</trkpt>
<trkpt lat="33.810313" lon="-118.3938662">
  <ele>-0.12</ele>
  <time>2026-09-01T01:12:19Z</time>
  <course>94.99</course>
  <speed>0.0</speed>
  <fix>3d</fix>
</trkpt>
<trkpt lat="33.8103151" lon="-118.3938682">
  <ele>-0.137</ele>
  <time>2026-09-01T01:12:19Z</time>
  <course>185.63</course>
  <speed>0.14212670403551894</speed>
  <fix>3d</fix>
</trkpt>
<trkpt lat="33.810313" lon="-118.3938662">
  <ele>-0.12</ele>
  <time>2026-09-01T01:12:19Z</time>
  <course>94.99</course>
  <speed>0.0</speed>
  <fix>3d</fix>
</trkpt>
<trkpt lat="33.8103152" lon="-118.3938683">
  <ele>-0.138</ele>
  <time>2026-09-01T01:12:19Z</time>
  <course>185.63</course>
  <speed>0.14212670403551894</speed>
  <fix>3d</fix>
</trkpt>
<trkpt lat="33.810313" lon="-118.3938662">
  <ele>-0.12</ele>
  <time>2026-09-01T01:12:19Z</time>
  <course>94.99</course>
  <speed>0.0</speed>
  <fix>3d</fix>
</trkpt>
<trkpt lat="33.8103153" lon="-118.3938684">
  <ele>-0.138</ele>
  <time>2026-09-01T01:12:19Z</time>
  <course>185.63</course>
  <speed>0.14212670403551894</speed>
  <fix>3d</fix>
</trkpt>
<trkpt lat="33.810313" lon="-118.3938662">
  <ele>-0.12</ele>
  <time>2026-09-01T01:12:19Z</time>
  <course>94.99</course>
  <speed>0.0</speed>
  <fix>3d</fix>
</trkpt>
<trkpt lat="33.8103154" lon="-118.3938686">
  <ele>-0.136</ele>
  <time>2026-09-01T01:12:19Z</time>
  <course>185.63</course>
  <speed>0.14212670403551894</speed>
  <fix>3d</fix>
</trkpt>
<trkpt lat="33.810313" lon="-118.3938662">
  <ele>-0.12</ele>
  <time>2026-09-01T01:12:19Z</time>
  <course>94.99</course>
  <speed>0.0</speed>
  <fix>3d</fix>
</trkpt>
<trkpt lat="33.8103155" lon="-118.3938687">
  <ele>-0.134</ele>
  <time>2026-09-01T01:12:19Z</time>
  <course>185.63</course>
  <speed>0.15620499351813308</speed>
  <fix>3d</fix>
</trkpt>
<trkpt lat="33.810313" lon="-118.3938662">
  <ele>-0.12</ele>
  <time>2026-09-01T01:12:19Z</time>
  <course>94.99</course>
  <speed>0.0</speed>
  <fix>3d</fix>
</trkpt>
<trkpt lat="33.8103156" lon="-118.3938688">
  <ele>-0.132</ele>
  <time>2026-09-01T01:12:19Z</time>
  <course>185.63</course>
  <speed>0.15620499351813308</speed>
  <fix>3d</fix>
</trkpt>
<trkpt lat="33.810313" lon="-118.3938662">
  <ele>-0.12</ele>
  <time>2026-09-01T01:12:19Z</time>
  <course>94.99</course>
  <speed>0.0</speed>
  <fix>3d</fix>
</trkpt>
<trkpt lat="33.8103156" lon="-118.3938688">
  <ele>-0.13</ele>
  <time>2026-09-01T01:12:19Z</time>
  <course>185.63</course>
  <speed>0.15620499351813308</speed>
  <fix>3d</fix>
</trkpt>
<trkpt lat="33.810313" lon="-118.3938662">
  <ele>-0.12</ele>
  <time>2026-09-01T01:12:19Z</time>
  <course>94.99</course>
  <speed>0.0</speed>
  <fix>3d</fix>
</trkpt>
<trkpt lat="33.8103157" lon="-118.3938688">
  <ele>-0.129</ele>
  <time>2026-09-01T01:12:19Z</time>
  <course>185.63</course>
  <speed>0.15620499351813308</speed>
  <fix>3d</fix>
</trkpt>
<trkpt lat="33.810313" lon="-118.3938662">
  <ele>-0.12</ele>
  <time>2026-09-01T01:12:19Z</time>
  <course>94.99</course>
  <speed>0.0</speed>
  <fix>3d</fix>
</trkpt>
<trkpt lat="33.8103157" lon="-118.3938689">
  <ele>-0.128</ele>
  <time>2026-09-01T01:12:19Z</time>
  <course>185.63</course>
  <speed>0.15620499351813308</speed>
  <fix>3d</fix>
</trkpt>
<trkpt lat="33.810313" lon="-118.3938662">
  <ele>-0.12</ele>
  <time>2026-09-01T01:12:19Z</time>
  <course>94.99</course>
  <speed>0.0</speed>
  <fix>3d</fix>
</trkpt>
<trkpt lat="33.8103158" lon="-118.3938689">
  <ele>-0.128</ele>
  <time>2026-09-01T01:12:19Z</time>
  <course>185.63</course>
  <speed>0.15620499351813308</speed>
  <fix>3d</fix>
</trkpt>
<trkpt lat="33.810313" lon="-118.3938662">
  <ele>-0.12</ele>
  <time>2026-09-01T01:12:19Z</time>
  <course>94.99</course>
  <speed>0.0</speed>
  <fix>3d</fix>
</trkpt>
<trkpt lat="33.8103158" lon="-118.393869">
  <ele>-0.128</ele>
  <time>2026-09-01T01:12:19Z</time>
  <course>185.63</course>
  <speed>0.16401219466856726</speed>
  <fix>3d</fix>
</trkpt>
<trkpt lat="33.810313" lon="-118.3938662">
  <ele>-0.12</ele>
  <time>2026-09-01T01:12:19Z</time>
  <course>94.99</course>
  <speed>0.0</speed>
  <fix>3d</fix>
</trkpt>
<trkpt lat="33.8103159" lon="-118.3938691">
  <ele>-0.128</ele>
  <time>2026-09-01T01:12:19Z</time>
  <course>185.63</course>
  <speed>0.16401219466856726</speed>
  <fix>3d</fix>
</trkpt>
<trkpt lat="33.810313" lon="-118.3938662">
  <ele>-0.12</ele>
  <time>2026-09-01T01:12:19Z</time>
  <course>94.99</course>
  <speed>0.0</speed>
  <fix>3d</fix>
</trkpt>
<trkpt lat="33.8103161" lon="-118.3938692">
  <ele>-0.128</ele>
  <time>2026-09-01T01:12:19Z</time>
  <course>185.63</course>
  <speed>0.17029386365926402</speed>
  <fix>3d</fix>
</trkpt>
<trkpt lat="33.810313" lon="-118.3938662">
  <ele>-0.12</ele>
  <time>2026-09-01T01:12:19Z</time>
  <course>94.99</course>
  <speed>0.0</speed>
  <fix>3d</fix>
</trkpt>
<trkpt lat="33.8103162" lon="-118.3938693">
  <ele>-0.127</ele>
  <time>2026-09-01T01:12:19Z</time>
  <course>185.63</course>
  <speed>0.17029386365926402</speed>
  <fix>3d</fix>
</trkpt>
<trkpt lat="33.810313" lon="-118.3938662">
  <ele>-0.12</ele>
  <time>2026-09-01T01:12:19Z</time>
  <course>94.99</course>
  <speed>0.0</speed>
  <fix>3d</fix>
</trkpt>
<trkpt lat="33.8103163" lon="-118.3938694">
  <ele>-0.125</ele>
  <time>2026-09-01T01:12:19Z</time>
  <course>185.63</course>
  <speed>0.17804493814764857</speed>
  <fix>3d</fix>
</trkpt>
<trkpt lat="33.810313" lon="-118.3938662">
  <ele>-0.12</ele>
  <time>2026-09-01T01:12:19Z</time>
  <course>94.99</course>
  <speed>0.0</speed>
  <fix>3d</fix>
</trkpt>
<trkpt lat="33.8103164" lon="-118.3938696">
  <ele>-0.125</ele>
  <time>2026-09-01T01:12:19Z</time>
  <course>185.63</course>
  <speed>0.17804493814764857</speed>
  <fix>3d</fix>
</trkpt>
<trkpt lat="33.810313" lon="-118.3938662">
  <ele>-0.12</ele>
  <time>2026-09-01T01:12:19Z</time>
  <course>94.99</course>
  <speed>0.0</speed>
  <fix>3d</fix>
</trkpt>
<trkpt lat="33.8103164" lon="-118.3938696">
  <ele>-0.124</ele>
  <time>2026-09-01T01:12:19Z</time>
  <course>185.63</course>
  <speed>0.17804493814764857</speed>
  <fix>3d</fix>
</trkpt>
<trkpt lat="33.810313" lon="-118.3938662">
  <ele>-0.12</ele>
  <time>2026-09-01T01:12:19Z</time>
  <course>94.99</course>
  <speed>0.0</speed>
  <fix>3d</fix>
</trkpt>
<trkpt lat="33.8103164" lon="-118.3938695">
  <ele>-0.125</ele>
  <time>2026-09-01T01:12:19Z</time>
  <course>185.63</course>
  <speed>0.17804493814764857</speed>
  <fix>3d</fix>
</trkpt>
<trkpt lat="33.810313" lon="-118.3938662">
  <ele>-0.12</ele>
  <time>2026-09-01T01:12:19Z</time>
  <course>94.99</course>
  <speed>0.0</speed>
  <fix>3d</fix>
</trkpt>
<trkpt lat="33.8103164" lon="-118.3938696">
  <ele>-0.125</ele>
  <time>2026-09-01T01:12:19Z</time>
  <course>185.63</course>
  <speed>0.17804493814764857</speed>
  <fix>3d</fix>
</trkpt>
<trkpt lat="33.810313" lon="-118.3938662">
  <ele>-0.12</ele>
  <time>2026-09-01T01:12:19Z</time>
  <course>94.99</course>
  <speed>0.0</speed>
  <fix>3d</fix>
</trkpt>
<trkpt lat="33.8103164" lon="-118.3938696">
  <ele>-0.126</ele>
  <time>2026-09-01T01:12:19Z</time>
  <course>185.63</course>
  <speed>0.17804493814764857</speed>
  <fix>3d</fix>
</trkpt>
<trkpt lat="33.810313" lon="-118.3938662">
  <ele>-0.12</ele>
  <time>2026-09-01T01:12:19Z</time>
  <course>94.99</course>
  <speed>0.0</speed>
  <fix>3d</fix>
</trkpt>
<trkpt lat="33.8103165" lon="-118.3938697">
  <ele>-0.126</ele>
  <time>2026-09-01T01:12:19Z</time>
  <course>185.63</course>
  <speed>0.17804493814764857</speed>
  <fix>3d</fix>
</trkpt>
<trkpt lat="33.810313" lon="-118.3938662">
  <ele>-0.12</ele>
  <time>2026-09-01T01:12:19Z</time>
  <course>94.99</course>
  <speed>0.0</speed>
  <fix>3d</fix>
</trkpt>
<trkpt lat="33.8103166" lon="-118.3938698">
  <ele>-0.126</ele>
  <time>2026-09-01T01:12:19Z</time>
  <course>185.63</course>
  <speed>0.18439088914585774</speed>
  <fix>3d</fix>
</trkpt>
<trkpt lat="33.810313" lon="-118.3938662">
  <ele>-0.12</ele>
  <time>2026-09-01T01:12:19Z</time>
  <course>94.99</course>
  <speed>0.0</speed>
  <fix>3d</fix>
</trkpt>
<trkpt lat="33.8103167" lon="-118.3938699">
  <ele>-0.125</ele>
  <time>2026-09-01T01:12:19Z</time>
  <course>185.63</course>
  <speed>0.18439088914585774</speed>
  <fix>3d</fix>
</trkpt>
<trkpt lat="33.810313" lon="-118.3938662">
  <ele>-0.12</ele>
  <time>2026-09-01T01:12:19Z</time>
  <course>94.99</course>
  <speed>0.0</speed>
  <fix>3d</fix>
</trkpt>
<trkpt lat="33.8103168" lon="-118.39387">
  <ele>-0.124</ele>
  <time>2026-09-01T01:12:19Z</time>
  <course>185.63</course>
  <speed>0.19209372712298545</speed>
  <fix>3d</fix>
</trkpt>
<trkpt lat="33.810313" lon="-118.3938662">
  <ele>-0.12</ele>
  <time>2026-09-01T01:12:19Z</time>
  <course>94.99</course>
  <speed>0.0</speed>
  <fix>3d</fix>
</trkpt>
<trkpt lat="33.810317" lon="-118.3938701">
  <ele>-0.121</ele>
  <time>2026-09-01T01:12:19Z</time>
  <course>185.63</course>
  <speed>0.19209372712298545</speed>
  <fix>3d</fix>
</trkpt>
<trkpt lat="33.810313" lon="-118.3938662">
  <ele>-0.12</ele>
  <time>2026-09-01T01:12:19Z</time>
  <course>94.99</course>
  <speed>0.0</speed>
  <fix>3d</fix>
</trkpt>
<trkpt lat="33.8103171" lon="-118.3938703">
  <ele>-0.119</ele>
  <time>2026-09-01T01:12:19Z</time>
  <course>185.63</course>
  <speed>0.19849433241279207</speed>
  <fix>3d</fix>
</trkpt>
<trkpt lat="33.810313" lon="-118.3938662">
  <ele>-0.12</ele>
  <time>2026-09-01T01:12:19Z</time>
  <course>94.99</course>
  <speed>0.0</speed>
  <fix>3d</fix>
</trkpt>
<trkpt lat="33.8103173" lon="-118.3938704">
  <ele>-0.118</ele>
  <time>2026-09-01T01:12:19Z</time>
  <course>185.63</course>
  <speed>0.20615528128088303</speed>
  <fix>3d</fix>
</trkpt>
<trkpt lat="33.810313" lon="-118.3938662">
  <ele>-0.12</ele>
  <time>2026-09-01T01:12:19Z</time>
  <course>94.99</course>
  <speed>0.0</speed>
  <fix>3d</fix>
</trkpt>
<trkpt lat="33.8103172" lon="-118.3938704">
  <ele>-0.118</ele>
  <time>2026-09-01T01:12:19Z</time>
  <course>185.63</course>
  <speed>0.20615528128088303</speed>
  <fix>3d</fix>
</trkpt>
<trkpt lat="33.810313" lon="-118.3938662">
  <ele>-0.12</ele>
  <time>2026-09-01T01:12:19Z</time>
  <course>94.99</course>
  <speed>0.0</speed>
  <fix>3d</fix>
</trkpt>
<trkpt lat="33.8103171" lon="-118.3938703">
  <ele>-0.12</ele>
  <time>2026-09-01T01:12:19Z</time>
  <course>185.63</course>
  <speed>0.19209372712298545</speed>
  <fix>3d</fix>
</trkpt>
<trkpt lat="33.810313" lon="-118.3938662">
  <ele>-0.12</ele>
  <time>2026-09-01T01:12:19Z</time>
  <course>94.99</course>
  <speed>0.0</speed>
  <fix>3d</fix>
</trkpt>
<trkpt lat="33.8103171" lon="-118.3938702">
  <ele>-0.121</ele>
  <time>2026-09-01T01:12:19Z</time>
  <course>185.63</course>
  <speed>0.19209372712298545</speed>
  <fix>3d</fix>
</trkpt>
<trkpt lat="33.810313" lon="-118.3938662">
  <ele>-0.12</ele>
  <time>2026-09-01T01:12:19Z</time>
  <course>94.99</course>
  <speed>0.0</speed>
  <fix>3d</fix>
</trkpt>
<trkpt lat="33.8103171" lon="-118.3938702">
  <ele>-0.123</ele>
  <time>2026-09-01T01:12:19Z</time>
  <course>185.63</course>
  <speed>0.19209372712298545</speed>
  <fix>3d</fix>
</trkpt>
<trkpt lat="33.810313" lon="-118.3938662">
  <ele>-0.12</ele>
  <time>2026-09-01T01:12:19Z</time>
  <course>94.99</course>
  <speed>0.0</speed>
  <fix>3d</fix>
</trkpt>
<trkpt lat="33.8103171" lon="-118.3938703">
  <ele>-0.123</ele>
  <time>2026-09-01T01:12:19Z</time>
  <course>185.63</course>
  <speed>0.19209372712298545</speed>
  <fix>3d</fix>
</trkpt>
<trkpt lat="33.810313" lon="-118.3938662">
  <ele>-0.12</ele>
  <time>2026-09-01T01:12:19Z</time>
  <course>94.99</course>
  <speed>0.0</speed>
  <fix>3d</fix>
</trkpt>
<trkpt lat="33.8103172" lon="-118.3938704">
  <ele>-0.123</ele>
  <time>2026-09-01T01:12:19Z</time>
  <course>185.63</course>
  <speed>0.19209372712298545</speed>
  <fix>3d</fix>
</trkpt>
<trkpt lat="33.810313" lon="-118.3938662">
  <ele>-0.12</ele>
  <time>2026-09-01T01:12:19Z</time>
  <course>94.99</course>
  <speed>0.0</speed>
  <fix>3d</fix>
</trkpt>
<trkpt lat="33.8103173" lon="-118.3938705">
  <ele>-0.123</ele>
  <time>2026-09-01T01:12:19Z</time>
  <course>185.63</course>
  <speed>0.19849433241279207</speed>
  <fix>3d</fix>
</trkpt>
<trkpt lat="33.810313" lon="-118.3938662">
  <ele>-0.12</ele>
  <time>2026-09-01T01:12:19Z</time>
  <course>94.99</course>
  <speed>0.0</speed>
  <fix>3d</fix>
</trkpt>
<trkpt lat="33.8103175" lon="-118.3938706">
  <ele>-0.123</ele>
  <time>2026-09-01T01:12:19Z</time>
  <course>185.63</course>
  <speed>0.20615528128088303</speed>
  <fix>3d</fix>
</trkpt>
<trkpt lat="33.810313" lon="-118.3938662">
  <ele>-0.12</ele>
  <time>2026-09-01T01:12:19Z</time>
  <course>94.99</course>
  <speed>0.0</speed>
  <fix>3d</fix>
</trkpt>
<trkpt lat="33.8103176" lon="-118.3938707">
  <ele>-0.122</ele>
  <time>2026-09-01T01:12:19Z</time>
  <course>185.63</course>
  <speed>0.20615528128088303</speed>
  <fix>3d</fix>
</trkpt>
<trkpt lat="33.810313" lon="-118.3938662">
  <ele>-0.12</ele>
  <time>2026-09-01T01:12:19Z</time>
  <course>94.99</course>
  <speed>0.0</speed>
  <fix>3d</fix>
</trkpt>
<trkpt lat="33.8103177" lon="-118.3938709">
  <ele>-0.121</ele>
  <time>2026-09-01T01:12:19Z</time>
  <course>185.63</course>
  <speed>0.20615528128088303</speed>
  <fix>3d</fix>
</trkpt>
<trkpt lat="33.810313" lon="-118.3938662">
  <ele>-0.12</ele>
  <time>2026-09-01T01:12:19Z</time>
  <course>94.99</course>
  <speed>0.0</speed>
  <fix>3d</fix>
</trkpt>
<trkpt lat="33.8103176" lon="-118.3938708">
  <ele>-0.12</ele>
  <time>2026-09-01T01:12:19Z</time>
  <course>185.63</course>
  <speed>0.20615528128088303</speed>
  <fix>3d</fix>
</trkpt>
<trkpt lat="33.810313" lon="-118.3938662">
  <ele>-0.12</ele>
  <time>2026-09-01T01:12:19Z</time>
  <course>94.99</course>
  <speed>0.0</speed>
  <fix>3d</fix>
</trkpt>
<trkpt lat="33.8103175" lon="-118.3938706">
  <ele>-0.12</ele>
  <time>2026-09-01T01:12:19Z</time>
  <course>185.63</course>
  <speed>0.20615528128088303</speed>
  <fix>3d</fix>
</trkpt>
<trkpt lat="33.810313" lon="-118.3938662">
  <ele>-0.12</ele>
  <time>2026-09-01T01:12:19Z</time>
  <course>94.99</course>
  <speed>0.0</speed>
  <fix>3d</fix>
</trkpt>
<trkpt lat="33.8103174" lon="-118.3938705">
  <ele>-0.121</ele>
  <time>2026-09-01T01:12:19Z</time>
  <course>185.63</course>
  <speed>0.19209372712298545</speed>
  <fix>3d</fix>
</trkpt>
<trkpt lat="33.810313" lon="-118.3938662">
  <ele>-0.12</ele>
  <time>2026-09-01T01:12:19Z</time>
  <course>94.99</course>
  <speed>0.0</speed>
  <fix>3d</fix>
</trkpt>
<trkpt lat="33.8103174" lon="-118.3938705">
  <ele>-0.123</ele>
  <time>2026-09-01T01:12:19Z</time>
  <course>185.63</course>
  <speed>0.19209372712298545</speed>
  <fix>3d</fix>
</trkpt>
<trkpt lat="33.810313" lon="-118.3938662">
  <ele>-0.12</ele>
  <time>2026-09-01T01:12:19Z</time>
  <course>94.99</course>
  <speed>0.0</speed>
  <fix>3d</fix>
</trkpt>
<trkpt lat="33.8103174" lon="-118.3938706">
  <ele>-0.124</ele>
  <time>2026-09-01T01:12:19Z</time>
  <course>185.63</course>
  <speed>0.19209372712298545</speed>
  <fix>3d</fix>
</trkpt>
<trkpt lat="33.810313" lon="-118.3938662">
  <ele>-0.12</ele>
  <time>2026-09-01T01:12:19Z</time>
  <course>94.99</course>
  <speed>0.0</speed>
  <fix>3d</fix>
</trkpt>
<trkpt lat="33.8103175" lon="-118.3938707">
  <ele>-0.125</ele>
  <time>2026-09-01T01:12:19Z</time>
  <course>185.63</course>
  <speed>0.19849433241279207</speed>
  <fix>3d</fix>
</trkpt>
<trkpt lat="33.810313" lon="-118.3938662">
  <ele>-0.12</ele>
  <time>2026-09-01T01:12:19Z</time>
  <course>94.99</course>
  <speed>0.0</speed>
  <fix>3d</fix>
</trkpt>
<trkpt lat="33.8103176" lon="-118.3938707">
  <ele>-0.125</ele>
  <time>2026-09-01T01:12:19Z</time>
  <course>185.63</course>
  <speed>0.20615528128088303</speed>
  <fix>3d</fix>
</trkpt>
<trkpt lat="33.810313" lon="-118.3938662">
  <ele>-0.12</ele>
  <time>2026-09-01T01:12:19Z</time>
  <course>94.99</course>
  <speed>0.0</speed>
  <fix>3d</fix>
</trkpt>
<trkpt lat="33.8103177" lon="-118.3938709">
  <ele>-0.126</ele>
  <time>2026-09-01T01:12:19Z</time>
  <course>185.63</course>
  <speed>0.20615528128088303</speed>
  <fix>3d</fix>
</trkpt>
<trkpt lat="33.810313" lon="-118.3938662">
  <ele>-0.12</ele>
  <time>2026-09-01T01:12:19Z</time>
  <course>94.99</course>
  <speed>0.0</speed>
  <fix>3d</fix>
</trkpt>
<trkpt lat="33.8103179" lon="-118.393871">
  <ele>-0.126</ele>
  <time>2026-09-01T01:12:19Z</time>
  <course>185.63</course>
  <speed>0.20615528128088303</speed>
  <fix>3d</fix>
</trkpt>
<trkpt lat="33.810313" lon="-118.3938662">
  <ele>-0.12</ele>
  <time>2026-09-01T01:12:19Z</time>
  <course>94.99</course>
  <speed>0.0</speed>
  <fix>3d</fix>
</trkpt>
<trkpt lat="33.810318" lon="-118.3938711">
  <ele>-0.128</ele>
  <time>2026-09-01T01:12:19Z</time>
  <course>185.63</course>
  <speed>0.22022715545545238</speed>
  <fix>3d</fix>
</trkpt>
<trkpt lat="33.810313" lon="-118.3938662">
  <ele>-0.12</ele>
  <time>2026-09-01T01:12:19Z</time>
  <course>94.99</course>
  <speed>0.0</speed>
  <fix>3d</fix>
</trkpt>
<trkpt lat="33.8103179" lon="-118.393871">
  <ele>-0.13</ele>
  <time>2026-09-01T01:12:19Z</time>
  <course>185.63</course>
  <speed>0.20615528128088303</speed>
  <fix>3d</fix>
</trkpt>
<trkpt lat="33.810313" lon="-118.3938662">
  <ele>-0.12</ele>
  <time>2026-09-01T01:12:19Z</time>
  <course>94.99</course>
  <speed>0.0</speed>
  <fix>3d</fix>
</trkpt>
<trkpt lat="33.8103176" lon="-118.3938708">
  <ele>-0.131</ele>
  <time>2026-09-01T01:12:19Z</time>
  <course>185.63</course>
  <speed>0.20615528128088303</speed>
  <fix>3d</fix>
</trkpt>
<trkpt lat="33.810313" lon="-118.3938662">
  <ele>-0.12</ele>
  <time>2026-09-01T01:12:19Z</time>
  <course>94.99</course>
  <speed>0.0</speed>
  <fix>3d</fix>
</trkpt>
<trkpt lat="33.8103175" lon="-118.3938707">
  <ele>-0.132</ele>
  <time>2026-09-01T01:12:19Z</time>
  <course>185.63</course>
  <speed>0.19209372712298545</speed>
  <fix>3d</fix>
</trkpt>
<trkpt lat="33.810313" lon="-118.3938662">
  <ele>-0.12</ele>
  <time>2026-09-01T01:12:19Z</time>
  <course>94.99</course>
  <speed>0.0</speed>
  <fix>3d</fix>
</trkpt>
<trkpt lat="33.8103175" lon="-118.3938706">
  <ele>-0.132</ele>
  <time>2026-09-01T01:12:19Z</time>
  <course>185.63</course>
  <speed>0.19209372712298545</speed>
  <fix>3d</fix>
</trkpt>
<trkpt lat="33.810313" lon="-118.3938662">
  <ele>-0.12</ele>
  <time>2026-09-01T01:12:19Z</time>
  <course>94.99</course>
  <speed>0.0</speed>
  <fix>3d</fix>
</trkpt>
<trkpt lat="33.8103175" lon="-118.3938707">
  <ele>-0.131</ele>
  <time>2026-09-01T01:12:19Z</time>
  <course>185.63</course>
  <speed>0.19209372712298545</speed>
  <fix>3d</fix>
</trkpt>
<trkpt lat="33.810313" lon="-118.3938662">
  <ele>-0.12</ele>
  <time>2026-09-01T01:12:19Z</time>
  <course>94.99</course>
  <speed>0.0</speed>
  <fix>3d</fix>
</trkpt>
<trkpt lat="33.8103176" lon="-118.3938707">
  <ele>-0.13</ele>
  <time>2026-09-01T01:12:19Z</time>
  <course>185.63</course>
  <speed>0.19209372712298545</speed>
  <fix>3d</fix>
</trkpt>
<trkpt lat="33.810313" lon="-118.3938662">
  <ele>-0.12</ele>
  <time>2026-09-01T01:12:20Z</time>
  <course>94.99</course>
  <speed>0.0</speed>
  <fix>3d</fix>
</trkpt>
<trkpt lat="33.8103177" lon="-118.3938708">
  <ele>-0.129</ele>
  <time>2026-09-01T01:12:20Z</time>
  <course>185.63</course>
  <speed>0.19849433241279207</speed>
  <fix>3d</fix>
</trkpt>
<trkpt lat="33.810313" lon="-118.3938662">
  <ele>-0.12</ele>
  <time>2026-09-01T01:12:20Z</time>
  <course>94.99</course>
  <speed>0.0</speed>
  <fix>3d</fix>
</trkpt>
<trkpt lat="33.8103178" lon="-118.3938709">
  <ele>-0.128</ele>
  <time>2026-09-01T01:12:20Z</time>
  <course>185.63</course>
  <speed>0.20615528128088303</speed>
  <fix>3d</fix>
</trkpt>
<trkpt lat="33.810313" lon="-118.3938662">
  <ele>-0.12</ele>
  <time>2026-09-01T01:12:20Z</time>
  <course>94.99</course>
  <speed>0.0</speed>
  <fix>3d</fix>
</trkpt>
<trkpt lat="33.8103179" lon="-118.3938711">
  <ele>-0.126</ele>
  <time>2026-09-01T01:12:20Z</time>
  <course>185.63</course>
  <speed>0.20615528128088303</speed>
  <fix>3d</fix>
</trkpt>
<trkpt lat="33.810313" lon="-118.3938662">
  <ele>-0.12</ele>
  <time>2026-09-01T01:12:20Z</time>
  <course>94.99</course>
  <speed>0.0</speed>
  <fix>3d</fix>
</trkpt>
<trkpt lat="33.8103181" lon="-118.3938712">
  <ele>-0.125</ele>
  <time>2026-09-01T01:12:20Z</time>
  <course>185.63</course>
  <speed>0.20615528128088303</speed>
  <fix>3d</fix>
</trkpt>
<trkpt lat="33.810313" lon="-118.3938662">
  <ele>-0.12</ele>
  <time>2026-09-01T01:12:20Z</time>
  <course>94.99</course>
  <speed>0.0</speed>
  <fix>3d</fix>
</trkpt>
<trkpt lat="33.8103179" lon="-118.393871">
  <ele>-0.124</ele>
  <time>2026-09-01T01:12:20Z</time>
  <course>185.63</course>
  <speed>0.20615528128088303</speed>
  <fix>3d</fix>
</trkpt>
<trkpt lat="33.810313" lon="-118.3938662">
  <ele>-0.12</ele>
  <time>2026-09-01T01:12:20Z</time>
  <course>94.99</course>
  <speed>0.0</speed>
  <fix>3d</fix>
</trkpt>
<trkpt lat="33.8103176" lon="-118.3938708">
  <ele>-0.125</ele>
  <time>2026-09-01T01:12:20Z</time>
  <course>185.63</course>
  <speed>0.19209372712298545</speed>
  <fix>3d</fix>
</trkpt>
<trkpt lat="33.810313" lon="-118.3938662">
  <ele>-0.12</ele>
  <time>2026-09-01T01:12:20Z</time>
  <course>94.99</course>
  <speed>0.0</speed>
  <fix>3d</fix>
</trkpt>
<trkpt lat="33.8103175" lon="-118.3938706">
  <ele>-0.126</ele>
  <time>2026-09-01T01:12:20Z</time>
  <course>185.63</course>
  <speed>0.19209372712298545</speed>
  <fix>3d</fix>
</trkpt>
<trkpt lat="33.810313" lon="-118.3938662">
  <ele>-0.12</ele>
  <time>2026-09-01T01:12:20Z</time>
  <course>94.99</course>
  <speed>0.0</speed>
  <fix>3d</fix>
</trkpt>
<trkpt lat="33.8103174" lon="-118.3938706">
  <ele>-0.127</ele>
  <time>2026-09-01T01:12:20Z</time>
  <course>185.63</course>
  <speed>0.19209372712298545</speed>
  <fix>3d</fix>
</trkpt>
<trkpt lat="33.810313" lon="-118.3938662">
  <ele>-0.12</ele>
  <time>2026-09-01T01:12:20Z</time>
  <course>94.99</course>
  <speed>0.0</speed>
  <fix>3d</fix>
</trkpt>
<trkpt lat="33.8103174" lon="-118.3938706">
  <ele>-0.128</ele>
  <time>2026-09-01T01:12:20Z</time>
  <course>185.63</course>
  <speed>0.19209372712298545</speed>
  <fix>3d</fix>
</trkpt>
<trkpt lat="33.810313" lon="-118.3938662">
  <ele>-0.12</ele>
  <time>2026-09-01T01:12:20Z</time>
  <course>94.99</course>
  <speed>0.0</speed>
  <fix>3d</fix>
</trkpt>
<trkpt lat="33.8103175" lon="-118.3938706">
  <ele>-0.128</ele>
  <time>2026-09-01T01:12:20Z</time>
  <course>185.63</course>
  <speed>0.19209372712298545</speed>
  <fix>3d</fix>
</trkpt>
<trkpt lat="33.810313" lon="-118.3938662">
  <ele>-0.12</ele>
  <time>2026-09-01T01:12:20Z</time>
  <course>94.99</course>
  <speed>0.0</speed>
  <fix>3d</fix>
</trkpt>
<trkpt lat="33.8103176" lon="-118.3938707">
  <ele>-0.127</ele>
  <time>2026-09-01T01:12:20Z</time>
  <course>185.63</course>
  <speed>0.19209372712298545</speed>
  <fix>3d</fix>
</trkpt>
<trkpt lat="33.810313" lon="-118.3938662">
  <ele>-0.12</ele>
  <time>2026-09-01T01:12:20Z</time>
  <course>94.99</course>
  <speed>0.0</speed>
  <fix>3d</fix>
</trkpt>
<trkpt lat="33.8103177" lon="-118.3938708">
  <ele>-0.126</ele>
  <time>2026-09-01T01:12:20Z</time>
  <course>185.63</course>
  <speed>0.19849433241279207</speed>
  <fix>3d</fix>
</trkpt>
<trkpt lat="33.810313" lon="-118.3938662">
  <ele>-0.12</ele>
  <time>2026-09-01T01:12:20Z</time>
  <course>94.99</course>
  <speed>0.0</speed>
  <fix>3d</fix>
</trkpt>
<trkpt lat="33.8103178" lon="-118.393871">
  <ele>-0.124</ele>
  <time>2026-09-01T01:12:20Z</time>
  <course>185.63</course>
  <speed>0.20615528128088303</speed>
  <fix>3d</fix>
</trkpt>
<trkpt lat="33.810313" lon="-118.3938662">
  <ele>-0.12</ele>
  <time>2026-09-01T01:12:20Z</time>
  <course>94.99</course>
  <speed>0.0</speed>
  <fix>3d</fix>
</trkpt>
<trkpt lat="33.810318" lon="-118.3938711">
  <ele>-0.123</ele>
  <time>2026-09-01T01:12:20Z</time>
  <course>185.62</course>
  <speed>0.20615528128088303</speed>
  <fix>3d</fix>
</trkpt>
<trkpt lat="33.810313" lon="-118.3938662">
  <ele>-0.12</ele>
  <time>2026-09-01T01:12:20Z</time>
  <course>94.99</course>
  <speed>0.0</speed>
  <fix>3d</fix>
</trkpt>
<trkpt lat="33.8103181" lon="-118.3938713">
  <ele>-0.123</ele>
  <time>2026-09-01T01:12:20Z</time>
  <course>185.62</course>
  <speed>0.20615528128088303</speed>
  <fix>3d</fix>
</trkpt>
<trkpt lat="33.810313" lon="-118.3938662">
  <ele>-0.12</ele>
  <time>2026-09-01T01:12:20Z</time>
  <course>94.99</course>
  <speed>0.0</speed>
  <fix>3d</fix>
</trkpt>
<trkpt lat="33.8103178" lon="-118.393871">
  <ele>-0.125</ele>
  <time>2026-09-01T01:12:20Z</time>
  <course>185.62</course>
  <speed>0.20615528128088303</speed>
  <fix>3d</fix>
</trkpt>
<trkpt lat="33.810313" lon="-118.3938661">
  <ele>-0.12</ele>
  <time>2026-09-01T01:12:20Z</time>
  <course>94.99</course>
  <speed>0.0</speed>
  <fix>3d</fix>
</trkpt>
<trkpt lat="33.8103176" lon="-118.3938707">
  <ele>-0.127</ele>
  <time>2026-09-01T01:12:20Z</time>
  <course>185.62</course>
  <speed>0.19209372712298545</speed>
  <fix>3d</fix>
</trkpt>
<trkpt lat="33.810313" lon="-118.3938661">
  <ele>-0.12</ele>
  <time>2026-09-01T01:12:20Z</time>
  <course>94.99</course>
  <speed>0.0</speed>
  <fix>3d</fix>
</trkpt>
<trkpt lat="33.8103174" lon="-118.3938706">
  <ele>-0.129</ele>
  <time>2026-09-01T01:12:20Z</time>
  <course>185.62</course>
  <speed>0.19209372712298545</speed>
  <fix>3d</fix>
</trkpt>
<trkpt lat="33.810313" lon="-118.3938661">
  <ele>-0.12</ele>
  <time>2026-09-01T01:12:20Z</time>
  <course>94.99</course>
  <speed>0.0</speed>
  <fix>3d</fix>
</trkpt>
<trkpt lat="33.8103173" lon="-118.3938705">
  <ele>-0.131</ele>
  <time>2026-09-01T01:12:20Z</time>
  <course>185.62</course>
  <speed>0.19209372712298545</speed>
  <fix>3d</fix>
</trkpt>
<trkpt lat="33.810313" lon="-118.3938661">
  <ele>-0.12</ele>
  <time>2026-09-01T01:12:20Z</time>
  <course>94.99</course>
  <speed>0.0</speed>
  <fix>3d</fix>
</trkpt>
<trkpt lat="33.8103173" lon="-118.3938705">
  <ele>-0.132</ele>
  <time>2026-09-01T01:12:20Z</time>
  <course>185.62</course>
  <speed>0.19209372712298545</speed>
  <fix>3d</fix>
</trkpt>
<trkpt lat="33.810313" lon="-118.3938661">
  <ele>-0.12</ele>
  <time>2026-09-01T01:12:20Z</time>
  <course>94.99</course>
  <speed>0.0</speed>
  <fix>3d</fix>
</trkpt>
<trkpt lat="33.8103174" lon="-118.3938705">
  <ele>-0.132</ele>
  <time>2026-09-01T01:12:20Z</time>
  <course>185.62</course>
  <speed>0.19209372712298545</speed>
  <fix>3d</fix>
</trkpt>
<trkpt lat="33.810313" lon="-118.3938661">
  <ele>-0.12</ele>
  <time>2026-09-01T01:12:20Z</time>
  <course>94.99</course>
  <speed>0.0</speed>
  <fix>3d</fix>
</trkpt>
<trkpt lat="33.8103175" lon="-118.3938706">
  <ele>-0.131</ele>
  <time>2026-09-01T01:12:20Z</time>
  <course>185.63</course>
  <speed>0.19209372712298545</speed>
  <fix>3d</fix>
</trkpt>
<trkpt lat="33.810313" lon="-118.3938661">
  <ele>-0.12</ele>
  <time>2026-09-01T01:12:20Z</time>
  <course>94.99</course>
  <speed>0.0</speed>
  <fix>3d</fix>
</trkpt>
<trkpt lat="33.8103176" lon="-118.3938707">
  <ele>-0.13</ele>
  <time>2026-09-01T01:12:20Z</time>
  <course>185.63</course>
  <speed>0.19209372712298545</speed>
  <fix>3d</fix>
</trkpt>
<trkpt lat="33.810313" lon="-118.3938661">
  <ele>-0.12</ele>
  <time>2026-09-01T01:12:20Z</time>
  <course>94.99</course>
  <speed>0.0</speed>
  <fix>3d</fix>
</trkpt>
<trkpt lat="33.8103177" lon="-118.3938709">
  <ele>-0.13</ele>
  <time>2026-09-01T01:12:20Z</time>
  <course>185.63</course>
  <speed>0.19849433241279207</speed>
  <fix>3d</fix>
</trkpt>
<trkpt lat="33.810313" lon="-118.3938661">
  <ele>-0.12</ele>
  <time>2026-09-01T01:12:20Z</time>
  <course>94.99</course>
  <speed>0.0</speed>
  <fix>3d</fix>
</trkpt>
<trkpt lat="33.8103178" lon="-118.393871">
  <ele>-0.13</ele>
  <time>2026-09-01T01:12:20Z</time>
  <course>185.62</course>
  <speed>0.20615528128088303</speed>
  <fix>3d</fix>
</trkpt>
<trkpt lat="33.810313" lon="-118.3938661">
  <ele>-0.12</ele>
  <time>2026-09-01T01:12:20Z</time>
  <course>94.99</course>
  <speed>0.0</speed>
  <fix>3d</fix>
</trkpt>
<trkpt lat="33.8103175" lon="-118.3938707">
  <ele>-0.131</ele>
  <time>2026-09-01T01:12:20Z</time>
  <course>185.62</course>
  <speed>0.19209372712298545</speed>
  <fix>3d</fix>
</trkpt>
<trkpt lat="33.810313" lon="-118.3938661">
  <ele>-0.12</ele>
  <time>2026-09-01T01:12:20Z</time>
  <course>94.99</course>
  <speed>0.0</speed>
  <fix>3d</fix>
</trkpt>
<trkpt lat="33.8103173" lon="-118.3938704">
  <ele>-0.133</ele>
  <time>2026-09-01T01:12:20Z</time>
  <course>185.62</course>
  <speed>0.18439088914585774</speed>
  <fix>3d</fix>
</trkpt>
<trkpt lat="33.810313" lon="-118.3938661">
  <ele>-0.12</ele>
  <time>2026-09-01T01:12:20Z</time>
  <course>94.99</course>
  <speed>0.0</speed>
  <fix>3d</fix>
</trkpt>
<trkpt lat="33.8103171" lon="-118.3938703">
  <ele>-0.134</ele>
  <time>2026-09-01T01:12:20Z</time>
  <course>185.62</course>
  <speed>0.18439088914585774</speed>
  <fix>3d</fix>
</trkpt>
<trkpt lat="33.810313" lon="-118.3938661">
  <ele>-0.12</ele>
  <time>2026-09-01T01:12:20Z</time>
  <course>94.99</course>
  <speed>0.0</speed>
  <fix>3d</fix>
</trkpt>
<trkpt lat="33.810317" lon="-118.3938702">
  <ele>-0.135</ele>
  <time>2026-09-01T01:12:20Z</time>
  <course>185.62</course>
  <speed>0.17804493814764857</speed>
  <fix>3d</fix>
</trkpt>
<trkpt lat="33.810313" lon="-118.3938661">
  <ele>-0.12</ele>
  <time>2026-09-01T01:12:20Z</time>
  <course>94.99</course>
  <speed>0.0</speed>
  <fix>3d</fix>
</trkpt>
<trkpt lat="33.810317" lon="-118.3938702">
  <ele>-0.134</ele>
  <time>2026-09-01T01:12:20Z</time>
  <course>185.62</course>
  <speed>0.17804493814764857</speed>
  <fix>3d</fix>
</trkpt>
<trkpt lat="33.810313" lon="-118.3938661">
  <ele>-0.12</ele>
  <time>2026-09-01T01:12:20Z</time>
  <course>94.99</course>
  <speed>0.0</speed>
  <fix>3d</fix>
</trkpt>
<trkpt lat="33.8103171" lon="-118.3938702">
  <ele>-0.131</ele>
  <time>2026-09-01T01:12:20Z</time>
  <course>185.62</course>
  <speed>0.18439088914585774</speed>
  <fix>3d</fix>
</trkpt>
<trkpt lat="33.810313" lon="-118.3938661">
  <ele>-0.12</ele>
  <time>2026-09-01T01:12:20Z</time>
  <course>94.99</course>
  <speed>0.0</speed>
  <fix>3d</fix>
</trkpt>
<trkpt lat="33.8103171" lon="-118.3938703">
  <ele>-0.128</ele>
  <time>2026-09-01T01:12:20Z</time>
  <course>185.62</course>
  <speed>0.18439088914585774</speed>
  <fix>3d</fix>
</trkpt>
<trkpt lat="33.810313" lon="-118.3938661">
  <ele>-0.12</ele>
  <time>2026-09-01T01:12:20Z</time>
  <course>94.99</course>
  <speed>0.0</speed>
  <fix>3d</fix>
</trkpt>
<trkpt lat="33.8103172" lon="-118.3938704">
  <ele>-0.126</ele>
  <time>2026-09-01T01:12:20Z</time>
  <course>185.62</course>
  <speed>0.19209372712298545</speed>
  <fix>3d</fix>
</trkpt>
<trkpt lat="33.810313" lon="-118.3938661">
  <ele>-0.12</ele>
  <time>2026-09-01T01:12:20Z</time>
  <course>94.99</course>
  <speed>0.0</speed>
  <fix>3d</fix>
</trkpt>
<trkpt lat="33.8103174" lon="-118.3938705">
  <ele>-0.125</ele>
  <time>2026-09-01T01:12:20Z</time>
  <course>185.62</course>
  <speed>0.19209372712298545</speed>
  <fix>3d</fix>
</trkpt>
<trkpt lat="33.810313" lon="-118.3938661">
  <ele>-0.12</ele>
  <time>2026-09-01T01:12:20Z</time>
  <course>94.99</course>
  <speed>0.0</speed>
  <fix>3d</fix>
</trkpt>
<trkpt lat="33.8103175" lon="-118.3938706">
  <ele>-0.124</ele>
  <time>2026-09-01T01:12:20Z</time>
  <course>185.62</course>
  <speed>0.19209372712298545</speed>
  <fix>3d</fix>
</trkpt>
<trkpt lat="33.810313" lon="-118.3938661">
  <ele>-0.12</ele>
  <time>2026-09-01T01:12:20Z</time>
  <course>94.99</course>
  <speed>0.0</speed>
  <fix>3d</fix>
</trkpt>
<trkpt lat="33.8103173" lon="-118.3938704">
  <ele>-0.125</ele>
  <time>2026-09-01T01:12:20Z</time>
  <course>185.63</course>
  <speed>0.19209372712298545</speed>
  <fix>3d</fix>
</trkpt>
<trkpt lat="33.810313" lon="-118.3938661">
  <ele>-0.12</ele>
  <time>2026-09-01T01:12:20Z</time>
  <course>94.99</course>
  <speed>0.0</speed>
  <fix>3d</fix>
</trkpt>
<trkpt lat="33.8103169" lon="-118.3938701">
  <ele>-0.125</ele>
  <time>2026-09-01T01:12:20Z</time>
  <course>185.62</course>
  <speed>0.18439088914585774</speed>
  <fix>3d</fix>
</trkpt>
<trkpt lat="33.810313" lon="-118.3938661">
  <ele>-0.12</ele>
  <time>2026-09-01T01:12:20Z</time>
  <course>94.99</course>
  <speed>0.0</speed>
  <fix>3d</fix>
</trkpt>
<trkpt lat="33.8103168" lon="-118.3938699">
  <ele>-0.126</ele>
  <time>2026-09-01T01:12:20Z</time>
  <course>185.62</course>
  <speed>0.17804493814764857</speed>
  <fix>3d</fix>
</trkpt>
<trkpt lat="33.810313" lon="-118.3938661">
  <ele>-0.12</ele>
  <time>2026-09-01T01:12:20Z</time>
  <course>94.99</course>
  <speed>0.0</speed>
  <fix>3d</fix>
</trkpt>
<trkpt lat="33.8103167" lon="-118.3938698">
  <ele>-0.127</ele>
  <time>2026-09-01T01:12:20Z</time>
  <course>185.62</course>
  <speed>0.17804493814764857</speed>
  <fix>3d</fix>
</trkpt>
<trkpt lat="33.810313" lon="-118.3938661">
  <ele>-0.12</ele>
  <time>2026-09-01T01:12:20Z</time>
  <course>94.99</course>
  <speed>0.0</speed>
  <fix>3d</fix>
</trkpt>
<trkpt lat="33.8103166" lon="-118.3938698">
  <ele>-0.129</ele>
  <time>2026-09-01T01:12:20Z</time>
  <course>185.62</course>
  <speed>0.17804493814764857</speed>
  <fix>3d</fix>
</trkpt>
<trkpt lat="33.810313" lon="-118.3938661">
  <ele>-0.12</ele>
  <time>2026-09-01T01:12:20Z</time>
  <course>94.99</course>
  <speed>0.0</speed>
  <fix>3d</fix>
</trkpt>
<trkpt lat="33.8103167" lon="-118.3938698">
  <ele>-0.13</ele>
  <time>2026-09-01T01:12:20Z</time>
  <course>185.63</course>
  <speed>0.17804493814764857</speed>
  <fix>3d</fix>
</trkpt>
<trkpt lat="33.810313" lon="-118.3938661">
  <ele>-0.12</ele>
  <time>2026-09-01T01:12:20Z</time>
  <course>94.99</course>
  <speed>0.0</speed>
  <fix>3d</fix>
</trkpt>
<trkpt lat="33.8103167" lon="-118.3938699">
  <ele>-0.13</ele>
  <time>2026-09-01T01:12:20Z</time>
  <course>185.63</course>
  <speed>0.17804493814764857</speed>
  <fix>3d</fix>
</trkpt>
<trkpt lat="33.810313" lon="-118.3938661">
  <ele>-0.12</ele>
  <time>2026-09-01T01:12:20Z</time>
  <course>94.99</course>
  <speed>0.0</speed>
  <fix>3d</fix>
</trkpt>
<trkpt lat="33.8103168" lon="-118.39387">
  <ele>-0.13</ele>
  <time>2026-09-01T01:12:20Z</time>
  <course>185.62</course>
  <speed>0.18439088914585774</speed>
  <fix>3d</fix>
</trkpt>
<trkpt lat="33.810313" lon="-118.3938661">
  <ele>-0.12</ele>
  <time>2026-09-01T01:12:20Z</time>
  <course>94.99</course>
  <speed>0.0</speed>
  <fix>3d</fix>
</trkpt>
<trkpt lat="33.810317" lon="-118.3938701">
  <ele>-0.13</ele>
  <time>2026-09-01T01:12:20Z</time>
  <course>185.62</course>
  <speed>0.18439088914585774</speed>
  <fix>3d</fix>
</trkpt>
<trkpt lat="33.810313" lon="-118.3938661">
  <ele>-0.12</ele>
  <time>2026-09-01T01:12:20Z</time>
  <course>94.99</course>
  <speed>0.0</speed>
  <fix>3d</fix>
</trkpt>
<trkpt lat="33.8103171" lon="-118.3938703">
  <ele>-0.13</ele>
  <time>2026-09-01T01:12:20Z</time>
  <course>185.62</course>
  <speed>0.19209372712298545</speed>
  <fix>3d</fix>
</trkpt>
<trkpt lat="33.810313" lon="-118.3938661">
  <ele>-0.12</ele>
  <time>2026-09-01T01:12:20Z</time>
  <course>94.99</course>
  <speed>0.0</speed>
  <fix>3d</fix>
</trkpt>
<trkpt lat="33.8103169" lon="-118.39387">
  <ele>-0.13</ele>
  <time>2026-09-01T01:12:20Z</time>
  <course>185.62</course>
  <speed>0.18439088914585774</speed>
  <fix>3d</fix>
</trkpt>
<trkpt lat="33.810313" lon="-118.3938661">
  <ele>-0.12</ele>
  <time>2026-09-01T01:12:20Z</time>
  <course>94.99</course>
  <speed>0.0</speed>
  <fix>3d</fix>
</trkpt>
<trkpt lat="33.8103165" lon="-118.3938697">
  <ele>-0.131</ele>
  <time>2026-09-01T01:12:20Z</time>
  <course>185.62</course>
  <speed>0.17804493814764857</speed>
  <fix>3d</fix>
</trkpt>
<trkpt lat="33.810313" lon="-118.3938661">
  <ele>-0.12</ele>
  <time>2026-09-01T01:12:20Z</time>
  <course>94.99</course>
  <speed>0.0</speed>
  <fix>3d</fix>
</trkpt>
<trkpt lat="33.8103163" lon="-118.3938695">
  <ele>-0.132</ele>
  <time>2026-09-01T01:12:20Z</time>
  <course>185.62</course>
  <speed>0.17029386365926402</speed>
  <fix>3d</fix>
</trkpt>
<trkpt lat="33.810313" lon="-118.3938661">
  <ele>-0.12</ele>
  <time>2026-09-01T01:12:20Z</time>
  <course>94.99</course>
  <speed>0.0</speed>
  <fix>3d</fix>
</trkpt>
<trkpt lat="33.8103163" lon="-118.3938694">
  <ele>-0.134</ele>
  <time>2026-09-01T01:12:20Z</time>
  <course>185.63</course>
  <speed>0.17029386365926402</speed>
  <fix>3d</fix>
</trkpt>
<trkpt lat="33.810313" lon="-118.3938661">
  <ele>-0.12</ele>
  <time>2026-09-01T01:12:20Z</time>
  <course>94.99</course>
  <speed>0.0</speed>
  <fix>3d</fix>
</trkpt>
<trkpt lat="33.8103162" lon="-118.3938694">
  <ele>-0.134</ele>
  <time>2026-09-01T01:12:20Z</time>
  <course>185.63</course>
  <speed>0.17029386365926402</speed>
  <fix>3d</fix>
</trkpt>
<trkpt lat="33.810313" lon="-118.3938661">
  <ele>-0.12</ele>
  <time>2026-09-01T01:12:20Z</time>
  <course>94.99</course>
  <speed>0.0</speed>
  <fix>3d</fix>
</trkpt>
<trkpt lat="33.8103163" lon="-118.3938694">
  <ele>-0.134</ele>
  <time>2026-09-01T01:12:20Z</time>
  <course>185.63</course>
  <speed>0.17029386365926402</speed>
  <fix>3d</fix>
</trkpt>
<trkpt lat="33.810313" lon="-118.3938661">
  <ele>-0.12</ele>
  <time>2026-09-01T01:12:20Z</time>
  <course>94.99</course>
  <speed>0.0</speed>
  <fix>3d</fix>
</trkpt>
<trkpt lat="33.8103163" lon="-118.3938695">
  <ele>-0.133</ele>
  <time>2026-09-01T01:12:20Z</time>
  <course>185.63</course>
  <speed>0.17804493814764857</speed>
  <fix>3d</fix>
</trkpt>
<trkpt lat="33.810313" lon="-118.3938661">
  <ele>-0.12</ele>
  <time>2026-09-01T01:12:20Z</time>
  <course>94.99</course>
  <speed>0.0</speed>
  <fix>3d</fix>
</trkpt>
<trkpt lat="33.8103164" lon="-118.3938696">
  <ele>-0.133</ele>
  <time>2026-09-01T01:12:20Z</time>
  <course>185.62</course>
  <speed>0.17804493814764857</speed>
  <fix>3d</fix>
</trkpt>
<trkpt lat="33.810313" lon="-118.3938661">
  <ele>-0.12</ele>
  <time>2026-09-01T01:12:20Z</time>
  <course>94.99</course>
  <speed>0.0</speed>
  <fix>3d</fix>
</trkpt>
<trkpt lat="33.8103165" lon="-118.3938697">
  <ele>-0.132</ele>
  <time>2026-09-01T01:12:20Z</time>
  <course>185.63</course>
  <speed>0.18439088914585774</speed>
  <fix>3d</fix>
</trkpt>
<trkpt lat="33.810313" lon="-118.3938661">
  <ele>-0.12</ele>
  <time>2026-09-01T01:12:20Z</time>
  <course>94.99</course>
  <speed>0.0</speed>
  <fix>3d</fix>
</trkpt>
<trkpt lat="33.8103167" lon="-118.3938698">
  <ele>-0.13</ele>
  <time>2026-09-01T01:12:20Z</time>
  <course>185.63</course>
  <speed>0.18439088914585774</speed>
  <fix>3d</fix>
</trkpt>
<trkpt lat="33.810313" lon="-118.3938661">
  <ele>-0.12</ele>
  <time>2026-09-01T01:12:20Z</time>
  <course>94.99</course>
  <speed>0.0</speed>
  <fix>3d</fix>
</trkpt>
<trkpt lat="33.8103168" lon="-118.39387">
  <ele>-0.128</ele>
  <time>2026-09-01T01:12:20Z</time>
  <course>185.62</course>
  <speed>0.19209372712298545</speed>
  <fix>3d</fix>
</trkpt>
<trkpt lat="33.810313" lon="-118.3938661">
  <ele>-0.12</ele>
  <time>2026-09-01T01:12:20Z</time>
  <course>94.99</course>
  <speed>0.0</speed>
  <fix>3d</fix>
</trkpt>
<trkpt lat="33.8103166" lon="-118.3938697">
  <ele>-0.127</ele>
  <time>2026-09-01T01:12:20Z</time>
  <course>185.62</course>
  <speed>0.18439088914585774</speed>
  <fix>3d</fix>
</trkpt>
<trkpt lat="33.810313" lon="-118.3938661">
  <ele>-0.12</ele>
  <time>2026-09-01T01:12:20Z</time>
  <course>94.99</course>
  <speed>0.0</speed>
  <fix>3d</fix>
</trkpt>
<trkpt lat="33.8103162" lon="-118.3938694">
  <ele>-0.126</ele>
  <time>2026-09-01T01:12:20Z</time>
  <course>185.62</course>
  <speed>0.17804493814764857</speed>
  <fix>3d</fix>
</trkpt>
<trkpt lat="33.810313" lon="-118.3938661">
  <ele>-0.12</ele>
  <time>2026-09-01T01:12:20Z</time>
  <course>94.99</course>
  <speed>0.0</speed>
  <fix>3d</fix>
</trkpt>
<trkpt lat="33.810316" lon="-118.3938692">
  <ele>-0.126</ele>
  <time>2026-09-01T01:12:20Z</time>
  <course>185.62</course>
  <speed>0.17029386365926402</speed>
  <fix>3d</fix>
</trkpt>
<trkpt lat="33.810313" lon="-118.3938661">
  <ele>-0.12</ele>
  <time>2026-09-01T01:12:20Z</time>
  <course>94.99</course>
  <speed>0.0</speed>
  <fix>3d</fix>
</trkpt>
<trkpt lat="33.8103159" lon="-118.3938691">
  <ele>-0.126</ele>
  <time>2026-09-01T01:12:20Z</time>
  <course>185.62</course>
  <speed>0.17029386365926402</speed>
  <fix>3d</fix>
</trkpt>
<trkpt lat="33.810313" lon="-118.3938661">
  <ele>-0.12</ele>
  <time>2026-09-01T01:12:20Z</time>
  <course>94.99</course>
  <speed>0.0</speed>
  <fix>3d</fix>
</trkpt>
<trkpt lat="33.8103159" lon="-118.3938691">
  <ele>-0.126</ele>
  <time>2026-09-01T01:12:20Z</time>
  <course>185.62</course>
  <speed>0.17029386365926402</speed>
  <fix>3d</fix>
</trkpt>
<trkpt lat="33.810313" lon="-118.3938661">
  <ele>-0.12</ele>
  <time>2026-09-01T01:12:20Z</time>
  <course>94.99</course>
  <speed>0.0</speed>
  <fix>3d</fix>
</trkpt>
<trkpt lat="33.8103159" lon="-118.3938691">
  <ele>-0.126</ele>
  <time>2026-09-01T01:12:20Z</time>
  <course>185.62</course>
  <speed>0.17029386365926402</speed>
  <fix>3d</fix>
</trkpt>
<trkpt lat="33.810313" lon="-118.3938661">
  <ele>-0.12</ele>
  <time>2026-09-01T01:12:20Z</time>
  <course>94.99</course>
  <speed>0.0</speed>
  <fix>3d</fix>
</trkpt>
<trkpt lat="33.810316" lon="-118.3938692">
  <ele>-0.124</ele>
  <time>2026-09-01T01:12:20Z</time>
  <course>185.62</course>
  <speed>0.17804493814764857</speed>
  <fix>3d</fix>
</trkpt>
<trkpt lat="33.810313" lon="-118.3938661">
  <ele>-0.12</ele>
  <time>2026-09-01T01:12:20Z</time>
  <course>94.99</course>
  <speed>0.0</speed>
  <fix>3d</fix>
</trkpt>
<trkpt lat="33.8103161" lon="-118.3938693">
  <ele>-0.123</ele>
  <time>2026-09-01T01:12:20Z</time>
  <course>185.62</course>
  <speed>0.17804493814764857</speed>
  <fix>3d</fix>
</trkpt>
<trkpt lat="33.810313" lon="-118.3938661">
  <ele>-0.12</ele>
  <time>2026-09-01T01:12:20Z</time>
  <course>94.99</course>
  <speed>0.0</speed>
  <fix>3d</fix>
</trkpt>
<trkpt lat="33.8103162" lon="-118.3938694">
  <ele>-0.121</ele>
  <time>2026-09-01T01:12:20Z</time>
  <course>185.62</course>
  <speed>0.18439088914585774</speed>
  <fix>3d</fix>
</trkpt>
<trkpt lat="33.810313" lon="-118.3938661">
  <ele>-0.12</ele>
  <time>2026-09-01T01:12:20Z</time>
  <course>94.99</course>
  <speed>0.0</speed>
  <fix>3d</fix>
</trkpt>
<trkpt lat="33.8103163" lon="-118.3938695">
  <ele>-0.12</ele>
  <time>2026-09-01T01:12:20Z</time>
  <course>185.62</course>
  <speed>0.19209372712298545</speed>
  <fix>3d</fix>
</trkpt>
<trkpt lat="33.810313" lon="-118.3938661">
  <ele>-0.12</ele>
  <time>2026-09-01T01:12:20Z</time>
  <course>94.99</course>
  <speed>0.0</speed>
  <fix>3d</fix>
</trkpt>
<trkpt lat="33.8103161" lon="-118.3938693">
  <ele>-0.12</ele>
  <time>2026-09-01T01:12:20Z</time>
  <course>185.62</course>
  <speed>0.17804493814764857</speed>
  <fix>3d</fix>
</trkpt>
<trkpt lat="33.810313" lon="-118.3938661">
  <ele>-0.12</ele>
  <time>2026-09-01T01:12:20Z</time>
  <course>94.99</course>
  <speed>0.0</speed>
  <fix>3d</fix>
</trkpt>
<trkpt lat="33.8103158" lon="-118.3938689">
  <ele>-0.12</ele>
  <time>2026-09-01T01:12:20Z</time>
  <course>185.62</course>
  <speed>0.17029386365926402</speed>
  <fix>3d</fix>
</trkpt>
<trkpt lat="33.810313" lon="-118.3938661">
  <ele>-0.12</ele>
  <time>2026-09-01T01:12:20Z</time>
  <course>94.99</course>
  <speed>0.0</speed>
  <fix>3d</fix>
</trkpt>
<trkpt lat="33.8103156" lon="-118.3938687">
  <ele>-0.121</ele>
  <time>2026-09-01T01:12:20Z</time>
  <course>185.63</course>
  <speed>0.17029386365926402</speed>
  <fix>3d</fix>
</trkpt>
<trkpt lat="33.810313" lon="-118.3938661">
  <ele>-0.12</ele>
  <time>2026-09-01T01:12:20Z</time>
  <course>94.99</course>
  <speed>0.0</speed>
  <fix>3d</fix>
</trkpt>
<trkpt lat="33.8103155" lon="-118.3938686">
  <ele>-0.122</ele>
  <time>2026-09-01T01:12:20Z</time>
  <course>185.63</course>
  <speed>0.17029386365926402</speed>
  <fix>3d</fix>
</trkpt>
<trkpt lat="33.810313" lon="-118.3938661">
  <ele>-0.12</ele>
  <time>2026-09-01T01:12:20Z</time>
  <course>94.99</course>
  <speed>0.0</speed>
  <fix>3d</fix>
</trkpt>
<trkpt lat="33.8103154" lon="-118.3938686">
  <ele>-0.123</ele>
  <time>2026-09-01T01:12:20Z</time>
  <course>185.63</course>
  <speed>0.17029386365926402</speed>
  <fix>3d</fix>
</trkpt>
<trkpt lat="33.810313" lon="-118.3938661">
  <ele>-0.12</ele>
  <time>2026-09-01T01:12:20Z</time>
  <course>94.99</course>
  <speed>0.0</speed>
  <fix>3d</fix>
</trkpt>
<trkpt lat="33.8103155" lon="-118.3938687">
  <ele>-0.124</ele>
  <time>2026-09-01T01:12:20Z</time>
  <course>185.63</course>
  <speed>0.17029386365926402</speed>
  <fix>3d</fix>
</trkpt>
<trkpt lat="33.810313" lon="-118.3938661">
  <ele>-0.12</ele>
  <time>2026-09-01T01:12:20Z</time>
  <course>94.99</course>
  <speed>0.0</speed>
  <fix>3d</fix>
</trkpt>
<trkpt lat="33.8103155" lon="-118.3938687">
  <ele>-0.125</ele>
  <time>2026-09-01T01:12:20Z</time>
  <course>185.63</course>
  <speed>0.17029386365926402</speed>
  <fix>3d</fix>
</trkpt>
<trkpt lat="33.810313" lon="-118.3938661">
  <ele>-0.12</ele>
  <time>2026-09-01T01:12:20Z</time>
  <course>94.99</course>
  <speed>0.0</speed>
  <fix>3d</fix>
</trkpt>
<trkpt lat="33.8103156" lon="-118.3938688">
  <ele>-0.126</ele>
  <time>2026-09-01T01:12:20Z</time>
  <course>185.63</course>
  <speed>0.17804493814764857</speed>
  <fix>3d</fix>
</trkpt>
<trkpt lat="33.810313" lon="-118.3938661">
  <ele>-0.12</ele>
  <time>2026-09-01T01:12:20Z</time>
  <course>94.99</course>
  <speed>0.0</speed>
  <fix>3d</fix>
</trkpt>
<trkpt lat="33.8103157" lon="-118.3938689">
  <ele>-0.127</ele>
  <time>2026-09-01T01:12:20Z</time>
  <course>185.63</course>
  <speed>0.17804493814764857</speed>
  <fix>3d</fix>
</trkpt>
<trkpt lat="33.810313" lon="-118.3938661">
  <ele>-0.12</ele>
  <time>2026-09-01T01:12:20Z</time>
  <course>94.99</course>
  <speed>0.0</speed>
  <fix>3d</fix>
</trkpt>
<trkpt lat="33.8103159" lon="-118.393869">
  <ele>-0.127</ele>
  <time>2026-09-01T01:12:20Z</time>
  <course>185.63</course>
  <speed>0.18439088914585774</speed>
  <fix>3d</fix>
</trkpt>
<trkpt lat="33.810313" lon="-118.3938661">
  <ele>-0.12</ele>
  <time>2026-09-01T01:12:20Z</time>
  <course>94.99</course>
  <speed>0.0</speed>
  <fix>3d</fix>
</trkpt>
<trkpt lat="33.8103156" lon="-118.3938688">
  <ele>-0.128</ele>
  <time>2026-09-01T01:12:20Z</time>
  <course>185.63</course>
  <speed>0.17804493814764857</speed>
  <fix>3d</fix>
</trkpt>
<trkpt lat="33.810313" lon="-118.3938661">
  <ele>-0.12</ele>
  <time>2026-09-01T01:12:20Z</time>
  <course>94.99</course>
  <speed>0.0</speed>
  <fix>3d</fix>
</trkpt>
<trkpt lat="33.8103153" lon="-118.3938685">
  <ele>-0.129</ele>
  <time>2026-09-01T01:12:20Z</time>
  <course>185.63</course>
  <speed>0.17029386365926402</speed>
  <fix>3d</fix>
</trkpt>
<trkpt lat="33.810313" lon="-118.3938661">
  <ele>-0.12</ele>
  <time>2026-09-01T01:12:20Z</time>
  <course>94.99</course>
  <speed>0.0</speed>
  <fix>3d</fix>
</trkpt>
<trkpt lat="33.8103151" lon="-118.3938683">
  <ele>-0.129</ele>
  <time>2026-09-01T01:12:20Z</time>
  <course>185.63</course>
  <speed>0.17029386365926402</speed>
  <fix>3d</fix>
</trkpt>
<trkpt lat="33.810313" lon="-118.3938661">
  <ele>-0.12</ele>
  <time>2026-09-01T01:12:20Z</time>
  <course>94.99</course>
  <speed>0.0</speed>
  <fix>3d</fix>
</trkpt>
<trkpt lat="33.810315" lon="-118.3938682">
  <ele>-0.129</ele>
  <time>2026-09-01T01:12:20Z</time>
  <course>185.63</course>
  <speed>0.16401219466856726</speed>
  <fix>3d</fix>
</trkpt>
<trkpt lat="33.810313" lon="-118.3938661">
  <ele>-0.12</ele>
  <time>2026-09-01T01:12:20Z</time>
  <course>94.99</course>
  <speed>0.0</speed>
  <fix>3d</fix>
</trkpt>
<trkpt lat="33.810315" lon="-118.3938682">
  <ele>-0.129</ele>
  <time>2026-09-01T01:12:20Z</time>
  <course>185.63</course>
  <speed>0.17029386365926402</speed>
  <fix>3d</fix>
</trkpt>
<trkpt lat="33.810313" lon="-118.3938661">
  <ele>-0.12</ele>
  <time>2026-09-01T01:12:20Z</time>
  <course>94.99</course>
  <speed>0.0</speed>
  <fix>3d</fix>
</trkpt>
<trkpt lat="33.810315" lon="-118.3938682">
  <ele>-0.129</ele>
  <time>2026-09-01T01:12:20Z</time>
  <course>185.63</course>
  <speed>0.17029386365926402</speed>
  <fix>3d</fix>
</trkpt>
<trkpt lat="33.810313" lon="-118.3938661">
  <ele>-0.12</ele>
  <time>2026-09-01T01:12:20Z</time>
  <course>94.99</course>
  <speed>0.0</speed>
  <fix>3d</fix>
</trkpt>
<trkpt lat="33.8103151" lon="-118.3938683">
  <ele>-0.129</ele>
  <time>2026-09-01T01:12:20Z</time>
  <course>185.63</course>
  <speed>0.17029386365926402</speed>
  <fix>3d</fix>
</trkpt>
<trkpt lat="33.810313" lon="-118.3938661">
  <ele>-0.12</ele>
  <time>2026-09-01T01:12:20Z</time>
  <course>94.99</course>
  <speed>0.0</speed>
  <fix>3d</fix>
</trkpt>
<trkpt lat="33.8103152" lon="-118.3938684">
  <ele>-0.129</ele>
  <time>2026-09-01T01:12:20Z</time>
  <course>185.63</course>
  <speed>0.17804493814764857</speed>
  <fix>3d</fix>
</trkpt>
<trkpt lat="33.810313" lon="-118.3938661">
  <ele>-0.12</ele>
  <time>2026-09-01T01:12:20Z</time>
  <course>94.99</course>
  <speed>0.0</speed>
  <fix>3d</fix>
</trkpt>
<trkpt lat="33.8103153" lon="-118.3938685">
  <ele>-0.13</ele>
  <time>2026-09-01T01:12:20Z</time>
  <course>185.63</course>
  <speed>0.17804493814764857</speed>
  <fix>3d</fix>
</trkpt>
<trkpt lat="33.810313" lon="-118.3938661">
  <ele>-0.12</ele>
  <time>2026-09-01T01:12:20Z</time>
  <course>94.99</course>
  <speed>0.0</speed>
  <fix>3d</fix>
</trkpt>
<trkpt lat="33.8103154" lon="-118.3938686">
  <ele>-0.129</ele>
  <time>2026-09-01T01:12:20Z</time>
  <course>185.63</course>
  <speed>0.18439088914585774</speed>
  <fix>3d</fix>
</trkpt>
<trkpt lat="33.810313" lon="-118.3938661">
  <ele>-0.12</ele>
  <time>2026-09-01T01:12:20Z</time>
  <course>94.99</course>
  <speed>0.0</speed>
  <fix>3d</fix>
</trkpt>
<trkpt lat="33.8103155" lon="-118.3938687">
  <ele>-0.129</ele>
  <time>2026-09-01T01:12:20Z</time>
  <course>185.63</course>
  <speed>0.19209372712298545</speed>
  <fix>3d</fix>
</trkpt>
<trkpt lat="33.810313" lon="-118.3938661">
  <ele>-0.12</ele>
  <time>2026-09-01T01:12:20Z</time>
  <course>94.99</course>
  <speed>0.0</speed>
  <fix>3d</fix>
</trkpt>
<trkpt lat="33.8103153" lon="-118.3938685">
  <ele>-0.129</ele>
  <time>2026-09-01T01:12:20Z</time>
  <course>185.63</course>
  <speed>0.17804493814764857</speed>
  <fix>3d</fix>
</trkpt>
<trkpt lat="33.810313" lon="-118.3938661">
  <ele>-0.12</ele>
  <time>2026-09-01T01:12:20Z</time>
  <course>94.99</course>
  <speed>0.0</speed>
  <fix>3d</fix>
</trkpt>
<trkpt lat="33.810315" lon="-118.3938682">
  <ele>-0.128</ele>
  <time>2026-09-01T01:12:20Z</time>
  <course>185.63</course>
  <speed>0.17804493814764857</speed>
  <fix>3d</fix>
</trkpt>
<trkpt lat="33.810313" lon="-118.3938661">
  <ele>-0.12</ele>
  <time>2026-09-01T01:12:20Z</time>
  <course>94.99</course>
  <speed>0.0</speed>
  <fix>3d</fix>
</trkpt>
<trkpt lat="33.8103148" lon="-118.393868">
  <ele>-0.128</ele>
  <time>2026-09-01T01:12:20Z</time>
  <course>185.63</course>
  <speed>0.17029386365926402</speed>
  <fix>3d</fix>
</trkpt>
<trkpt lat="33.810313" lon="-118.3938661">
  <ele>-0.12</ele>
  <time>2026-09-01T01:12:20Z</time>
  <course>94.99</course>
  <speed>0.0</speed>
  <fix>3d</fix>
</trkpt>
<trkpt lat="33.8103147" lon="-118.3938679">
  <ele>-0.128</ele>
  <time>2026-09-01T01:12:20Z</time>
  <course>185.63</course>
  <speed>0.17029386365926402</speed>
  <fix>3d</fix>
</trkpt>
<trkpt lat="33.810313" lon="-118.3938661">
  <ele>-0.12</ele>
  <time>2026-09-01T01:12:20Z</time>
  <course>94.99</course>
  <speed>0.0</speed>
  <fix>3d</fix>
</trkpt>
<trkpt lat="33.8103147" lon="-118.3938679">
  <ele>-0.127</ele>
  <time>2026-09-01T01:12:20Z</time>
  <course>185.63</course>
  <speed>0.17029386365926402</speed>
  <fix>3d</fix>
</trkpt>
<trkpt lat="33.810313" lon="-118.3938661">
  <ele>-0.12</ele>
  <time>2026-09-01T01:12:20Z</time>
  <course>94.99</course>
  <speed>0.0</speed>
  <fix>3d</fix>
</trkpt>
<trkpt lat="33.8103147" lon="-118.3938679">
  <ele>-0.127</ele>
  <time>2026-09-01T01:12:20Z</time>
  <course>185.63</course>
  <speed>0.17029386365926402</speed>
  <fix>3d</fix>
</trkpt>
<trkpt lat="33.810313" lon="-118.3938661">
  <ele>-0.12</ele>
  <time>2026-09-01T01:12:20Z</time>
  <course>94.99</course>
  <speed>0.0</speed>
  <fix>3d</fix>
</trkpt>
<trkpt lat="33.8103147" lon="-118.3938679">
  <ele>-0.127</ele>
  <time>2026-09-01T01:12:20Z</time>
  <course>185.63</course>
  <speed>0.17804493814764857</speed>
  <fix>3d</fix>
</trkpt>
<trkpt lat="33.810313" lon="-118.3938661">
  <ele>-0.12</ele>
  <time>2026-09-01T01:12:20Z</time>
  <course>94.99</course>
  <speed>0.0</speed>
  <fix>3d</fix>
</trkpt>
<trkpt lat="33.8103148" lon="-118.393868">
  <ele>-0.126</ele>
  <time>2026-09-01T01:12:20Z</time>
  <course>185.63</course>
  <speed>0.17804493814764857</speed>
  <fix>3d</fix>
</trkpt>
<trkpt lat="33.810313" lon="-118.3938661">
  <ele>-0.12</ele>
  <time>2026-09-01T01:12:20Z</time>
  <course>94.99</course>
  <speed>0.0</speed>
  <fix>3d</fix>
</trkpt>
<trkpt lat="33.8103149" lon="-118.3938681">
  <ele>-0.125</ele>
  <time>2026-09-01T01:12:20Z</time>
  <course>185.63</course>
  <speed>0.17804493814764857</speed>
  <fix>3d</fix>
</trkpt>
<trkpt lat="33.810313" lon="-118.3938661">
  <ele>-0.12</ele>
  <time>2026-09-01T01:12:20Z</time>
  <course>94.99</course>
  <speed>0.0</speed>
  <fix>3d</fix>
</trkpt>
<trkpt lat="33.8103151" lon="-118.3938683">
  <ele>-0.126</ele>
  <time>2026-09-01T01:12:20Z</time>
  <course>185.63</course>
  <speed>0.18439088914585774</speed>
  <fix>3d</fix>
</trkpt>
<trkpt lat="33.810313" lon="-118.3938661">
  <ele>-0.12</ele>
  <time>2026-09-01T01:12:20Z</time>
  <course>94.99</course>
  <speed>0.0</speed>
  <fix>3d</fix>
</trkpt>
<trkpt lat="33.8103152" lon="-118.3938684">
  <ele>-0.127</ele>
  <time>2026-09-01T01:12:20Z</time>
  <course>185.63</course>
  <speed>0.19209372712298545</speed>
  <fix>3d</fix>
</trkpt>
<trkpt lat="33.810313" lon="-118.3938661">
  <ele>-0.12</ele>
  <time>2026-09-01T01:12:20Z</time>
  <course>94.99</course>
  <speed>0.0</speed>
  <fix>3d</fix>
</trkpt>
<trkpt lat="33.810315" lon="-118.3938682">
  <ele>-0.127</ele>
  <time>2026-09-01T01:12:20Z</time>
  <course>185.63</course>
  <speed>0.18439088914585774</speed>
  <fix>3d</fix>
</trkpt>
<trkpt lat="33.810313" lon="-118.3938661">
  <ele>-0.12</ele>
  <time>2026-09-01T01:12:20Z</time>
  <course>94.99</course>
  <speed>0.0</speed>
  <fix>3d</fix>
</trkpt>
<trkpt lat="33.8103147" lon="-118.3938679">
  <ele>-0.127</ele>
  <time>2026-09-01T01:12:20Z</time>
  <course>185.63</course>
  <speed>0.17804493814764857</speed>
  <fix>3d</fix>
</trkpt>
<trkpt lat="33.810313" lon="-118.3938661">
  <ele>-0.12</ele>
  <time>2026-09-01T01:12:20Z</time>
  <course>94.99</course>
  <speed>0.0</speed>
  <fix>3d</fix>
</trkpt>
<trkpt lat="33.8103145" lon="-118.3938677">
  <ele>-0.126</ele>
  <time>2026-09-01T01:12:20Z</time>
  <course>185.63</course>
  <speed>0.17029386365926402</speed>
  <fix>3d</fix>
</trkpt>
<trkpt lat="33.810313" lon="-118.3938661">
  <ele>-0.12</ele>
  <time>2026-09-01T01:12:20Z</time>
  <course>94.99</course>
  <speed>0.0</speed>
  <fix>3d</fix>
</trkpt>
<trkpt lat="33.8103144" lon="-118.3938676">
  <ele>-0.126</ele>
  <time>2026-09-01T01:12:20Z</time>
  <course>185.63</course>
  <speed>0.17029386365926402</speed>
  <fix>3d</fix>
</trkpt>
<trkpt lat="33.810313" lon="-118.3938661">
  <ele>-0.12</ele>
  <time>2026-09-01T01:12:20Z</time>
  <course>94.99</course>
  <speed>0.0</speed>
  <fix>3d</fix>
</trkpt>
<trkpt lat="33.8103144" lon="-118.3938676">
  <ele>-0.125</ele>
  <time>2026-09-01T01:12:20Z</time>
  <course>185.63</course>
  <speed>0.17029386365926402</speed>
  <fix>3d</fix>
</trkpt>
<trkpt lat="33.810313" lon="-118.3938661">
  <ele>-0.12</ele>
  <time>2026-09-01T01:12:20Z</time>
  <course>94.99</course>
  <speed>0.0</speed>
  <fix>3d</fix>
</trkpt>
<trkpt lat="33.8103144" lon="-118.3938676">
  <ele>-0.124</ele>
  <time>2026-09-01T01:12:20Z</time>
  <course>185.63</course>
  <speed>0.17029386365926402</speed>
  <fix>3d</fix>
</trkpt>
<trkpt lat="33.810313" lon="-118.3938661">
  <ele>-0.12</ele>
  <time>2026-09-01T01:12:20Z</time>
  <course>94.99</course>
  <speed>0.0</speed>
  <fix>3d</fix>
</trkpt>
<trkpt lat="33.8103145" lon="-118.3938677">
  <ele>-0.123</ele>
  <time>2026-09-01T01:12:20Z</time>
  <course>185.63</course>
  <speed>0.17804493814764857</speed>
  <fix>3d</fix>
</trkpt>
<trkpt lat="33.810313" lon="-118.3938661">
  <ele>-0.12</ele>
  <time>2026-09-01T01:12:20Z</time>
  <course>94.99</course>
  <speed>0.0</speed>
  <fix>3d</fix>
</trkpt>
<trkpt lat="33.8103146" lon="-118.3938678">
  <ele>-0.122</ele>
  <time>2026-09-01T01:12:20Z</time>
  <course>185.63</course>
  <speed>0.17804493814764857</speed>
  <fix>3d</fix>
</trkpt>
<trkpt lat="33.810313" lon="-118.3938661">
  <ele>-0.12</ele>
  <time>2026-09-01T01:12:20Z</time>
  <course>94.99</course>
  <speed>0.0</speed>
  <fix>3d</fix>
</trkpt>
<trkpt lat="33.8103147" lon="-118.3938679">
  <ele>-0.122</ele>
  <time>2026-09-01T01:12:20Z</time>
  <course>185.63</course>
  <speed>0.18439088914585774</speed>
  <fix>3d</fix>
</trkpt>
<trkpt lat="33.810313" lon="-118.3938661">
  <ele>-0.12</ele>
  <time>2026-09-01T01:12:20Z</time>
  <course>94.99</course>
  <speed>0.0</speed>
  <fix>3d</fix>
</trkpt>
<trkpt lat="33.8103147" lon="-118.3938679">
  <ele>-0.123</ele>
  <time>2026-09-01T01:12:20Z</time>
  <course>185.63</course>
  <speed>0.19209372712298545</speed>
  <fix>3d</fix>
</trkpt>
<trkpt lat="33.810313" lon="-118.3938661">
  <ele>-0.12</ele>
  <time>2026-09-01T01:12:20Z</time>
  <course>94.99</course>
  <speed>0.0</speed>
  <fix>3d</fix>
</trkpt>
<trkpt lat="33.8103145" lon="-118.3938678">
  <ele>-0.124</ele>
  <time>2026-09-01T01:12:20Z</time>
  <course>185.63</course>
  <speed>0.17804493814764857</speed>
  <fix>3d</fix>
</trkpt>
<trkpt lat="33.810313" lon="-118.3938661">
  <ele>-0.12</ele>
  <time>2026-09-01T01:12:20Z</time>
  <course>94.99</course>
  <speed>0.0</speed>
  <fix>3d</fix>
</trkpt>
<trkpt lat="33.8103142" lon="-118.3938674">
  <ele>-0.125</ele>
  <time>2026-09-01T01:12:20Z</time>
  <course>185.63</course>
  <speed>0.17804493814764857</speed>
  <fix>3d</fix>
</trkpt>
<trkpt lat="33.810313" lon="-118.3938661">
  <ele>-0.12</ele>
  <time>2026-09-01T01:12:20Z</time>
  <course>94.99</course>
  <speed>0.0</speed>
  <fix>3d</fix>
</trkpt>
<trkpt lat="33.810314" lon="-118.3938672">
  <ele>-0.124</ele>
  <time>2026-09-01T01:12:20Z</time>
  <course>185.63</course>
  <speed>0.17029386365926402</speed>
  <fix>3d</fix>
</trkpt>
<trkpt lat="33.810313" lon="-118.3938661">
  <ele>-0.12</ele>
  <time>2026-09-01T01:12:20Z</time>
  <course>94.99</course>
  <speed>0.0</speed>
  <fix>3d</fix>
</trkpt>
<trkpt lat="33.8103139" lon="-118.3938671">
  <ele>-0.123</ele>
  <time>2026-09-01T01:12:20Z</time>
  <course>185.63</course>
  <speed>0.17029386365926402</speed>
  <fix>3d</fix>
</trkpt>
<trkpt lat="33.810313" lon="-118.3938661">
  <ele>-0.12</ele>
  <time>2026-09-01T01:12:20Z</time>
  <course>94.99</course>
  <speed>0.0</speed>
  <fix>3d</fix>
</trkpt>
<trkpt lat="33.8103139" lon="-118.3938671">
  <ele>-0.123</ele>
  <time>2026-09-01T01:12:20Z</time>
  <course>185.63</course>
  <speed>0.17029386365926402</speed>
  <fix>3d</fix>
</trkpt>
<trkpt lat="33.810313" lon="-118.3938661">
  <ele>-0.12</ele>
  <time>2026-09-01T01:12:20Z</time>
  <course>94.99</course>
  <speed>0.0</speed>
  <fix>3d</fix>
</trkpt>
<trkpt lat="33.8103139" lon="-118.3938671">
  <ele>-0.122</ele>
  <time>2026-09-01T01:12:20Z</time>
  <course>185.63</course>
  <speed>0.17029386365926402</speed>
  <fix>3d</fix>
</trkpt>
<trkpt lat="33.810313" lon="-118.3938661">
  <ele>-0.12</ele>
  <time>2026-09-01T01:12:20Z</time>
  <course>94.99</course>
  <speed>0.0</speed>
  <fix>3d</fix>
</trkpt>
<trkpt lat="33.810314" lon="-118.3938672">
  <ele>-0.121</ele>
  <time>2026-09-01T01:12:20Z</time>
  <course>185.63</course>
  <speed>0.17804493814764857</speed>
  <fix>3d</fix>
</trkpt>
<trkpt lat="33.810313" lon="-118.3938661">
  <ele>-0.12</ele>
  <time>2026-09-01T01:12:20Z</time>
  <course>94.99</course>
  <speed>0.0</speed>
  <fix>3d</fix>
</trkpt>
<trkpt lat="33.8103141" lon="-118.3938673">
  <ele>-0.122</ele>
  <time>2026-09-01T01:12:20Z</time>
  <course>185.63</course>
  <speed>0.17804493814764857</speed>
  <fix>3d</fix>
</trkpt>
<trkpt lat="33.810313" lon="-118.3938661">
  <ele>-0.12</ele>
  <time>2026-09-01T01:12:20Z</time>
  <course>94.99</course>
  <speed>0.0</speed>
  <fix>3d</fix>
</trkpt>
<trkpt lat="33.8103142" lon="-118.3938674">
  <ele>-0.122</ele>
  <time>2026-09-01T01:12:20Z</time>
  <course>185.63</course>
  <speed>0.18439088914585774</speed>
  <fix>3d</fix>
</trkpt>
<trkpt lat="33.810313" lon="-118.3938661">
  <ele>-0.12</ele>
  <time>2026-09-01T01:12:20Z</time>
  <course>94.99</course>
  <speed>0.0</speed>
  <fix>3d</fix>
</trkpt>
<trkpt lat="33.8103143" lon="-118.3938675">
  <ele>-0.123</ele>
  <time>2026-09-01T01:12:20Z</time>
  <course>185.63</course>
  <speed>0.19209372712298545</speed>
  <fix>3d</fix>
</trkpt>
<trkpt lat="33.810313" lon="-118.3938661">
  <ele>-0.12</ele>
  <time>2026-09-01T01:12:20Z</time>
  <course>94.99</course>
  <speed>0.0</speed>
  <fix>3d</fix>
</trkpt>
<trkpt lat="33.8103145" lon="-118.3938677">
  <ele>-0.124</ele>
  <time>2026-09-01T01:12:20Z</time>
  <course>185.63</course>
  <speed>0.19209372712298545</speed>
  <fix>3d</fix>
</trkpt>
<trkpt lat="33.810313" lon="-118.3938661">
  <ele>-0.12</ele>
  <time>2026-09-01T01:12:20Z</time>
  <course>94.99</course>
  <speed>0.0</speed>
  <fix>3d</fix>
</trkpt>
<trkpt lat="33.8103142" lon="-118.3938674">
  <ele>-0.125</ele>
  <time>2026-09-01T01:12:20Z</time>
  <course>185.63</course>
  <speed>0.18439088914585774</speed>
  <fix>3d</fix>
</trkpt>
<trkpt lat="33.810313" lon="-118.3938661">
  <ele>-0.12</ele>
  <time>2026-09-01T01:12:20Z</time>
  <course>94.99</course>
  <speed>0.0</speed>
  <fix>3d</fix>
</trkpt>
<trkpt lat="33.8103139" lon="-118.3938671">
  <ele>-0.126</ele>
  <time>2026-09-01T01:12:20Z</time>
  <course>185.63</course>
  <speed>0.17804493814764857</speed>
  <fix>3d</fix>
</trkpt>
<trkpt lat="33.810313" lon="-118.3938661">
  <ele>-0.12</ele>
  <time>2026-09-01T01:12:20Z</time>
  <course>94.99</course>
  <speed>0.0</speed>
  <fix>3d</fix>
</trkpt>
<trkpt lat="33.8103137" lon="-118.3938669">
  <ele>-0.126</ele>
  <time>2026-09-01T01:12:20Z</time>
  <course>185.63</course>
  <speed>0.17804493814764857</speed>
  <fix>3d</fix>
</trkpt>
<trkpt lat="33.810313" lon="-118.3938661">
  <ele>-0.12</ele>
  <time>2026-09-01T01:12:20Z</time>
  <course>94.99</course>
  <speed>0.0</speed>
  <fix>3d</fix>
</trkpt>
<trkpt lat="33.8103136" lon="-118.3938668">
  <ele>-0.126</ele>
  <time>2026-09-01T01:12:20Z</time>
  <course>185.63</course>
  <speed>0.17029386365926402</speed>
  <fix>3d</fix>
</trkpt>
<trkpt lat="33.810313" lon="-118.3938661">
  <ele>-0.12</ele>
  <time>2026-09-01T01:12:20Z</time>
  <course>94.99</course>
  <speed>0.0</speed>
  <fix>3d</fix>
</trkpt>
<trkpt lat="33.8103136" lon="-118.3938668">
  <ele>-0.124</ele>
  <time>2026-09-01T01:12:20Z</time>
  <course>185.63</course>
  <speed>0.17029386365926402</speed>
  <fix>3d</fix>
</trkpt>
<trkpt lat="33.810313" lon="-118.3938661">
  <ele>-0.12</ele>
  <time>2026-09-01T01:12:20Z</time>
  <course>94.99</course>
  <speed>0.0</speed>
  <fix>3d</fix>
</trkpt>
<trkpt lat="33.8103136" lon="-118.3938668">
  <ele>-0.123</ele>
  <time>2026-09-01T01:12:20Z</time>
  <course>185.63</course>
  <speed>0.17804493814764857</speed>
  <fix>3d</fix>
</trkpt>
<trkpt lat="33.810313" lon="-118.3938661">
  <ele>-0.12</ele>
  <time>2026-09-01T01:12:20Z</time>
  <course>94.99</course>
  <speed>0.0</speed>
  <fix>3d</fix>
</trkpt>
<trkpt lat="33.8103137" lon="-118.3938669">
  <ele>-0.122</ele>
  <time>2026-09-01T01:12:20Z</time>
  <course>185.63</course>
  <speed>0.17804493814764857</speed>
  <fix>3d</fix>
</trkpt>
<trkpt lat="33.810313" lon="-118.3938661">
  <ele>-0.12</ele>
  <time>2026-09-01T01:12:20Z</time>
  <course>94.99</course>
  <speed>0.0</speed>
  <fix>3d</fix>
</trkpt>
<trkpt lat="33.8103138" lon="-118.393867">
  <ele>-0.123</ele>
  <time>2026-09-01T01:12:20Z</time>
  <course>185.63</course>
  <speed>0.17804493814764857</speed>
  <fix>3d</fix>
</trkpt>
<trkpt lat="33.810313" lon="-118.3938661">
  <ele>-0.12</ele>
  <time>2026-09-01T01:12:20Z</time>
  <course>94.99</course>
  <speed>0.0</speed>
  <fix>3d</fix>
</trkpt>
<trkpt lat="33.8103139" lon="-118.3938671">
  <ele>-0.125</ele>
  <time>2026-09-01T01:12:20Z</time>
  <course>185.63</course>
  <speed>0.18439088914585774</speed>
  <fix>3d</fix>
</trkpt>
<trkpt lat="33.810313" lon="-118.3938661">
  <ele>-0.12</ele>
  <time>2026-09-01T01:12:20Z</time>
  <course>94.99</course>
  <speed>0.0</speed>
  <fix>3d</fix>
</trkpt>
<trkpt lat="33.810314" lon="-118.3938672">
  <ele>-0.127</ele>
  <time>2026-09-01T01:12:20Z</time>
  <course>185.63</course>
  <speed>0.19209372712298545</speed>
  <fix>3d</fix>
</trkpt>
<trkpt lat="33.810313" lon="-118.3938661">
  <ele>-0.12</ele>
  <time>2026-09-01T01:12:20Z</time>
  <course>94.99</course>
  <speed>0.0</speed>
  <fix>3d</fix>
</trkpt>
<trkpt lat="33.8103138" lon="-118.393867">
  <ele>-0.128</ele>
  <time>2026-09-01T01:12:20Z</time>
  <course>185.63</course>
  <speed>0.18439088914585774</speed>
  <fix>3d</fix>
</trkpt>
<trkpt lat="33.810313" lon="-118.3938661">
  <ele>-0.12</ele>
  <time>2026-09-01T01:12:20Z</time>
  <course>94.99</course>
  <speed>0.0</speed>
  <fix>3d</fix>
</trkpt>
<trkpt lat="33.8103134" lon="-118.3938667">
  <ele>-0.128</ele>
  <time>2026-09-01T01:12:20Z</time>
  <course>185.63</course>
  <speed>0.17804493814764857</speed>
  <fix>3d</fix>
</trkpt>
<trkpt lat="33.810313" lon="-118.3938661">
  <ele>-0.12</ele>
  <time>2026-09-01T01:12:20Z</time>
  <course>94.99</course>
  <speed>0.0</speed>
  <fix>3d</fix>
</trkpt>
<trkpt lat="33.8103132" lon="-118.3938665">
  <ele>-0.128</ele>
  <time>2026-09-01T01:12:20Z</time>
  <course>185.63</course>
  <speed>0.17029386365926402</speed>
  <fix>3d</fix>
</trkpt>
<trkpt lat="33.810313" lon="-118.3938661">
  <ele>-0.12</ele>
  <time>2026-09-01T01:12:20Z</time>
  <course>94.99</course>
  <speed>0.0</speed>
  <fix>3d</fix>
</trkpt>
<trkpt lat="33.8103132" lon="-118.3938664">
  <ele>-0.128</ele>
  <time>2026-09-01T01:12:20Z</time>
  <course>185.63</course>
  <speed>0.17029386365926402</speed>
  <fix>3d</fix>
</trkpt>
<trkpt lat="33.810313" lon="-118.3938661">
  <ele>-0.12</ele>
  <time>2026-09-01T01:12:20Z</time>
  <course>94.99</course>
  <speed>0.0</speed>
  <fix>3d</fix>
</trkpt>
<trkpt lat="33.8103131" lon="-118.3938664">
  <ele>-0.127</ele>
  <time>2026-09-01T01:12:20Z</time>
  <course>185.63</course>
  <speed>0.17029386365926402</speed>
  <fix>3d</fix>
</trkpt>
<trkpt lat="33.810313" lon="-118.3938661">
  <ele>-0.12</ele>
  <time>2026-09-01T01:12:20Z</time>
  <course>94.99</course>
  <speed>0.0</speed>
  <fix>3d</fix>
</trkpt>
<trkpt lat="33.8103132" lon="-118.3938664">
  <ele>-0.127</ele>
  <time>2026-09-01T01:12:20Z</time>
  <course>185.63</course>
  <speed>0.17804493814764857</speed>
  <fix>3d</fix>
</trkpt>
<trkpt lat="33.810313" lon="-118.3938661">
  <ele>-0.12</ele>
  <time>2026-09-01T01:12:20Z</time>
  <course>94.99</course>
  <speed>0.0</speed>
  <fix>3d</fix>
</trkpt>
<trkpt lat="33.8103132" lon="-118.3938665">
  <ele>-0.127</ele>
  <time>2026-09-01T01:12:20Z</time>
  <course>185.63</course>
  <speed>0.17804493814764857</speed>
  <fix>3d</fix>
</trkpt>
<trkpt lat="33.810313" lon="-118.3938661">
  <ele>-0.12</ele>
  <time>2026-09-01T01:12:20Z</time>
  <course>94.99</course>
  <speed>0.0</speed>
  <fix>3d</fix>
</trkpt>
<trkpt lat="33.8103133" lon="-118.3938666">
  <ele>-0.127</ele>
  <time>2026-09-01T01:12:20Z</time>
  <course>185.63</course>
  <speed>0.17804493814764857</speed>
  <fix>3d</fix>
</trkpt>
<trkpt lat="33.810313" lon="-118.3938661">
  <ele>-0.12</ele>
  <time>2026-09-01T01:12:20Z</time>
  <course>94.99</course>
  <speed>0.0</speed>
  <fix>3d</fix>
</trkpt>
<trkpt lat="33.8103134" lon="-118.3938667">
  <ele>-0.126</ele>
  <time>2026-09-01T01:12:20Z</time>
  <course>185.63</course>
  <speed>0.18439088914585774</speed>
  <fix>3d</fix>
</trkpt>
<trkpt lat="33.810313" lon="-118.3938661">
  <ele>-0.12</ele>
  <time>2026-09-01T01:12:20Z</time>
  <course>94.99</course>
  <speed>0.0</speed>
  <fix>3d</fix>
</trkpt>
<trkpt lat="33.8103136" lon="-118.3938668">
  <ele>-0.125</ele>
  <time>2026-09-01T01:12:20Z</time>
  <course>185.63</course>
  <speed>0.19209372712298545</speed>
  <fix>3d</fix>
</trkpt>
<trkpt lat="33.810313" lon="-118.3938661">
  <ele>-0.12</ele>
  <time>2026-09-01T01:12:20Z</time>
  <course>94.99</course>
  <speed>0.0</speed>
  <fix>3d</fix>
</trkpt>
<trkpt lat="33.8103137" lon="-118.393867">
  <ele>-0.125</ele>
  <time>2026-09-01T01:12:20Z</time>
  <course>185.62</course>
  <speed>0.19209372712298545</speed>
  <fix>3d</fix>
</trkpt>
<trkpt lat="33.810313" lon="-118.3938661">
  <ele>-0.12</ele>
  <time>2026-09-01T01:12:20Z</time>
  <course>94.99</course>
  <speed>0.0</speed>
  <fix>3d</fix>
</trkpt>
<trkpt lat="33.8103134" lon="-118.3938666">
  <ele>-0.126</ele>
  <time>2026-09-01T01:12:20Z</time>
  <course>185.62</course>
  <speed>0.18439088914585774</speed>
  <fix>3d</fix>
</trkpt>
<trkpt lat="33.810313" lon="-118.3938661">
  <ele>-0.12</ele>
  <time>2026-09-01T01:12:20Z</time>
  <course>94.99</course>
  <speed>0.0</speed>
  <fix>3d</fix>
</trkpt>
<trkpt lat="33.8103131" lon="-118.3938663">
  <ele>-0.126</ele>
  <time>2026-09-01T01:12:20Z</time>
  <course>185.62</course>
  <speed>0.17804493814764857</speed>
  <fix>3d</fix>
</trkpt>
<trkpt lat="33.810313" lon="-118.3938661">
  <ele>-0.12</ele>
  <time>2026-09-01T01:12:20Z</time>
  <course>94.99</course>
  <speed>0.0</speed>
  <fix>3d</fix>
</trkpt>
<trkpt lat="33.8103129" lon="-118.3938662">
  <ele>-0.126</ele>
  <time>2026-09-01T01:12:20Z</time>
  <course>185.62</course>
  <speed>0.17804493814764857</speed>
  <fix>3d</fix>
</trkpt>
<trkpt lat="33.810313" lon="-118.3938661">
  <ele>-0.12</ele>
  <time>2026-09-01T01:12:20Z</time>
  <course>94.99</course>
  <speed>0.0</speed>
  <fix>3d</fix>
</trkpt>
<trkpt lat="33.8103129" lon="-118.3938661">
  <ele>-0.127</ele>
  <time>2026-09-01T01:12:20Z</time>
  <course>185.63</course>
  <speed>0.17804493814764857</speed>
  <fix>3d</fix>
</trkpt>
<trkpt lat="33.810313" lon="-118.3938661">
  <ele>-0.12</ele>
  <time>2026-09-01T01:12:20Z</time>
  <course>94.99</course>
  <speed>0.0</speed>
  <fix>3d</fix>
</trkpt>
<trkpt lat="33.8103128" lon="-118.3938661">
  <ele>-0.126</ele>
  <time>2026-09-01T01:12:20Z</time>
  <course>185.63</course>
  <speed>0.17804493814764857</speed>
  <fix>3d</fix>
</trkpt>
<trkpt lat="33.810313" lon="-118.3938661">
  <ele>-0.12</ele>
  <time>2026-09-01T01:12:20Z</time>
  <course>94.99</course>
  <speed>0.0</speed>
  <fix>3d</fix>
</trkpt>
<trkpt lat="33.8103129" lon="-118.3938661">
  <ele>-0.126</ele>
  <time>2026-09-01T01:12:20Z</time>
  <course>185.63</course>
  <speed>0.17804493814764857</speed>
  <fix>3d</fix>
</trkpt>
<trkpt lat="33.810313" lon="-118.3938661">
  <ele>-0.12</ele>
  <time>2026-09-01T01:12:20Z</time>
  <course>94.99</course>
  <speed>0.0</speed>
  <fix>3d</fix>
</trkpt>
<trkpt lat="33.810313" lon="-118.3938662">
  <ele>-0.125</ele>
  <time>2026-09-01T01:12:20Z</time>
  <course>185.63</course>
  <speed>0.17804493814764857</speed>
  <fix>3d</fix>
</trkpt>
<trkpt lat="33.810313" lon="-118.3938661">
  <ele>-0.12</ele>
  <time>2026-09-01T01:12:20Z</time>
  <course>94.99</course>
  <speed>0.0</speed>
  <fix>3d</fix>
</trkpt>
<trkpt lat="33.8103131" lon="-118.3938663">
  <ele>-0.124</ele>
  <time>2026-09-01T01:12:20Z</time>
  <course>185.63</course>
  <speed>0.18439088914585774</speed>
  <fix>3d</fix>
</trkpt>
<trkpt lat="33.810313" lon="-118.3938661">
  <ele>-0.12</ele>
  <time>2026-09-01T01:12:20Z</time>
  <course>94.99</course>
  <speed>0.0</speed>
  <fix>3d</fix>
</trkpt>
<trkpt lat="33.8103132" lon="-118.3938664">
  <ele>-0.123</ele>
  <time>2026-09-01T01:12:20Z</time>
  <course>185.63</course>
  <speed>0.19209372712298545</speed>
  <fix>3d</fix>
</trkpt>
<trkpt lat="33.810313" lon="-118.3938661">
  <ele>-0.12</ele>
  <time>2026-09-01T01:12:20Z</time>
  <course>94.99</course>
  <speed>0.0</speed>
  <fix>3d</fix>
</trkpt>
<trkpt lat="33.8103133" lon="-118.3938665">
  <ele>-0.123</ele>
  <time>2026-09-01T01:12:20Z</time>
  <course>185.63</course>
  <speed>0.19209372712298545</speed>
  <fix>3d</fix>
</trkpt>
<trkpt lat="33.810313" lon="-118.3938661">
  <ele>-0.12</ele>
  <time>2026-09-01T01:12:20Z</time>
  <course>94.99</course>
  <speed>0.0</speed>
  <fix>3d</fix>
</trkpt>
<trkpt lat="33.810313" lon="-118.3938663">
  <ele>-0.123</ele>
  <time>2026-09-01T01:12:20Z</time>
  <course>185.63</course>
  <speed>0.18439088914585774</speed>
  <fix>3d</fix>
</trkpt>
<trkpt lat="33.810313" lon="-118.3938661">
  <ele>-0.12</ele>
  <time>2026-09-01T01:12:20Z</time>
  <course>94.99</course>
  <speed>0.0</speed>
  <fix>3d</fix>
</trkpt>
<trkpt lat="33.8103127" lon="-118.393866">
  <ele>-0.122</ele>
  <time>2026-09-01T01:12:20Z</time>
  <course>185.62</course>
  <speed>0.17804493814764857</speed>
  <fix>3d</fix>
</trkpt>
<trkpt lat="33.810313" lon="-118.3938661">
  <ele>-0.12</ele>
  <time>2026-09-01T01:12:20Z</time>
  <course>94.99</course>
  <speed>0.0</speed>
  <fix>3d</fix>
</trkpt>
<trkpt lat="33.8103125" lon="-118.3938658">
  <ele>-0.12</ele>
  <time>2026-09-01T01:12:20Z</time>
  <course>185.62</course>
  <speed>0.17804493814764857</speed>
  <fix>3d</fix>
</trkpt>
<trkpt lat="33.810313" lon="-118.3938661">
  <ele>-0.12</ele>
  <time>2026-09-01T01:12:20Z</time>
  <course>94.99</course>
  <speed>0.0</speed>
  <fix>3d</fix>
</trkpt>
<trkpt lat="33.8103125" lon="-118.3938657">
  <ele>-0.12</ele>
  <time>2026-09-01T01:12:20Z</time>
  <course>185.62</course>
  <speed>0.17029386365926402</speed>
  <fix>3d</fix>
</trkpt>
<trkpt lat="33.810313" lon="-118.3938661">
  <ele>-0.12</ele>
  <time>2026-09-01T01:12:20Z</time>
  <course>94.99</course>
  <speed>0.0</speed>
  <fix>3d</fix>
</trkpt>
<trkpt lat="33.8103125" lon="-118.3938657">
  <ele>-0.121</ele>
  <time>2026-09-01T01:12:20Z</time>
  <course>185.62</course>
  <speed>0.17804493814764857</speed>
  <fix>3d</fix>
</trkpt>
<trkpt lat="33.810313" lon="-118.3938661">
  <ele>-0.12</ele>
  <time>2026-09-01T01:12:20Z</time>
  <course>94.99</course>
  <speed>0.0</speed>
  <fix>3d</fix>
</trkpt>
<trkpt lat="33.8103125" lon="-118.3938658">
  <ele>-0.121</ele>
  <time>2026-09-01T01:12:20Z</time>
  <course>185.62</course>
  <speed>0.17804493814764857</speed>
  <fix>3d</fix>
</trkpt>
<trkpt lat="33.810313" lon="-118.393866">
  <ele>-0.12</ele>
  <time>2026-09-01T01:12:20Z</time>
  <course>94.99</course>
  <speed>0.0</speed>
  <fix>3d</fix>
</trkpt>
<trkpt lat="33.8103126" lon="-118.3938658">
  <ele>-0.122</ele>
  <time>2026-09-01T01:12:20Z</time>
  <course>185.62</course>
  <speed>0.17804493814764857</speed>
  <fix>3d</fix>
</trkpt>
<trkpt lat="33.810313" lon="-118.393866">
  <ele>-0.12</ele>
  <time>2026-09-01T01:12:20Z</time>
  <course>94.99</course>
  <speed>0.0</speed>
  <fix>3d</fix>
</trkpt>
<trkpt lat="33.8103127" lon="-118.3938659">
  <ele>-0.124</ele>
  <time>2026-09-01T01:12:20Z</time>
  <course>185.62</course>
  <speed>0.18439088914585774</speed>
  <fix>3d</fix>
</trkpt>
<trkpt lat="33.810313" lon="-118.393866">
  <ele>-0.12</ele>
  <time>2026-09-01T01:12:20Z</time>
  <course>94.99</course>
  <speed>0.0</speed>
  <fix>3d</fix>
</trkpt>
<trkpt lat="33.8103128" lon="-118.3938661">
  <ele>-0.125</ele>
  <time>2026-09-01T01:12:20Z</time>
  <course>185.62</course>
  <speed>0.19209372712298545</speed>
  <fix>3d</fix>
</trkpt>
<trkpt lat="33.810313" lon="-118.393866">
  <ele>-0.12</ele>
  <time>2026-09-01T01:12:20Z</time>
  <course>94.99</course>
  <speed>0.0</speed>
  <fix>3d</fix>
</trkpt>
<trkpt lat="33.8103129" lon="-118.3938662">
  <ele>-0.126</ele>
  <time>2026-09-01T01:12:20Z</time>
  <course>185.62</course>
  <speed>0.19209372712298545</speed>
  <fix>3d</fix>
</trkpt>
<trkpt lat="33.810313" lon="-118.393866">
  <ele>-0.12</ele>
  <time>2026-09-01T01:12:20Z</time>
  <course>94.99</course>
  <speed>0.0</speed>
  <fix>3d</fix>
</trkpt>
<trkpt lat="33.8103127" lon="-118.3938659">
  <ele>-0.129</ele>
  <time>2026-09-01T01:12:20Z</time>
  <course>185.62</course>
  <speed>0.18439088914585774</speed>
  <fix>3d</fix>
</trkpt>
<trkpt lat="33.810313" lon="-118.393866">
  <ele>-0.12</ele>
  <time>2026-09-01T01:12:20Z</time>
  <course>94.99</course>
  <speed>0.0</speed>
  <fix>3d</fix>
</trkpt>
<trkpt lat="33.8103124" lon="-118.3938656">
  <ele>-0.131</ele>
  <time>2026-09-01T01:12:20Z</time>
  <course>185.62</course>
  <speed>0.17804493814764857</speed>
  <fix>3d</fix>
</trkpt>
<trkpt lat="33.810313" lon="-118.393866">
  <ele>-0.12</ele>
  <time>2026-09-01T01:12:20Z</time>
  <course>94.99</course>
  <speed>0.0</speed>
  <fix>3d</fix>
</trkpt>
<trkpt lat="33.8103122" lon="-118.3938655">
  <ele>-0.132</ele>
  <time>2026-09-01T01:12:20Z</time>
  <course>185.62</course>
  <speed>0.17804493814764857</speed>
  <fix>3d</fix>
</trkpt>
<trkpt lat="33.810313" lon="-118.393866">
  <ele>-0.12</ele>
  <time>2026-09-01T01:12:20Z</time>
  <course>94.99</course>
  <speed>0.0</speed>
  <fix>3d</fix>
</trkpt>
<trkpt lat="33.8103121" lon="-118.3938654">
  <ele>-0.133</ele>
  <time>2026-09-01T01:12:20Z</time>
  <course>185.62</course>
  <speed>0.17029386365926402</speed>
  <fix>3d</fix>
</trkpt>
<trkpt lat="33.810313" lon="-118.393866">
  <ele>-0.12</ele>
  <time>2026-09-01T01:12:20Z</time>
  <course>94.99</course>
  <speed>0.0</speed>
  <fix>3d</fix>
</trkpt>
<trkpt lat="33.8103121" lon="-118.3938654">
  <ele>-0.134</ele>
  <time>2026-09-01T01:12:20Z</time>
  <course>185.62</course>
  <speed>0.17804493814764857</speed>
  <fix>3d</fix>
</trkpt>
<trkpt lat="33.810313" lon="-118.393866">
  <ele>-0.12</ele>
  <time>2026-09-01T01:12:20Z</time>
  <course>94.99</course>
  <speed>0.0</speed>
  <fix>3d</fix>
</trkpt>
<trkpt lat="33.8103122" lon="-118.3938654">
  <ele>-0.135</ele>
  <time>2026-09-01T01:12:20Z</time>
  <course>185.62</course>
  <speed>0.17804493814764857</speed>
  <fix>3d</fix>
</trkpt>
<trkpt lat="33.810313" lon="-118.393866">
  <ele>-0.12</ele>
  <time>2026-09-01T01:12:20Z</time>
  <course>94.99</course>
  <speed>0.0</speed>
  <fix>3d</fix>
</trkpt>
<trkpt lat="33.8103123" lon="-118.3938655">
  <ele>-0.134</ele>
  <time>2026-09-01T01:12:20Z</time>
  <course>185.62</course>
  <speed>0.17804493814764857</speed>
  <fix>3d</fix>
</trkpt>
<trkpt lat="33.810313" lon="-118.393866">
  <ele>-0.12</ele>
  <time>2026-09-01T01:12:20Z</time>
  <course>94.99</course>
  <speed>0.0</speed>
  <fix>3d</fix>
</trkpt>
<trkpt lat="33.8103124" lon="-118.3938656">
  <ele>-0.133</ele>
  <time>2026-09-01T01:12:20Z</time>
  <course>185.62</course>
  <speed>0.18439088914585774</speed>
  <fix>3d</fix>
</trkpt>
<trkpt lat="33.810313" lon="-118.393866">
  <ele>-0.12</ele>
  <time>2026-09-01T01:12:20Z</time>
  <course>94.99</course>
  <speed>0.0</speed>
  <fix>3d</fix>
</trkpt>
<trkpt lat="33.8103125" lon="-118.3938657">
  <ele>-0.131</ele>
  <time>2026-09-01T01:12:20Z</time>
  <course>185.62</course>
  <speed>0.19209372712298545</speed>
  <fix>3d</fix>
</trkpt>
<trkpt lat="33.810313" lon="-118.393866">
  <ele>-0.12</ele>
  <time>2026-09-01T01:12:20Z</time>
  <course>94.99</course>
  <speed>0.0</speed>
  <fix>3d</fix>
</trkpt>
<trkpt lat="33.8103126" lon="-118.3938659">
  <ele>-0.129</ele>
  <time>2026-09-01T01:12:20Z</time>
  <course>185.62</course>
  <speed>0.19209372712298545</speed>
  <fix>3d</fix>
</trkpt>
<trkpt lat="33.810313" lon="-118.393866">
  <ele>-0.12</ele>
  <time>2026-09-01T01:12:20Z</time>
  <course>94.99</course>
  <speed>0.0</speed>
  <fix>3d</fix>
</trkpt>
<trkpt lat="33.8103124" lon="-118.3938656">
  <ele>-0.128</ele>
  <time>2026-09-01T01:12:20Z</time>
  <course>185.62</course>
  <speed>0.18439088914585774</speed>
  <fix>3d</fix>
</trkpt>
<trkpt lat="33.810313" lon="-118.393866">
  <ele>-0.12</ele>
  <time>2026-09-01T01:12:20Z</time>
  <course>94.99</course>
  <speed>0.0</speed>
  <fix>3d</fix>
</trkpt>
<trkpt lat="33.810313" lon="-118.393866">
  <ele>-0.128</ele>
  <time>2026-09-01T01:12:20Z</time>
  <course>185.62</course>
  <speed>0.15620499351813308</speed>
  <fix>3d</fix>
</trkpt>
<trkpt lat="33.810313" lon="-118.393866">
  <ele>-0.12</ele>
  <time>2026-09-01T01:12:20Z</time>
  <course>94.99</course>
  <speed>0.0</speed>
  <fix>3d</fix>
</trkpt>
<trkpt lat="33.810313" lon="-118.393866">
  <ele>-0.128</ele>
  <time>2026-09-01T01:12:20Z</time>
  <course>185.62</course>
  <speed>0.12806248474865697</speed>
  <fix>3d</fix>
</trkpt>
<trkpt lat="33.810313" lon="-118.393866">
  <ele>-0.12</ele>
  <time>2026-09-01T01:12:20Z</time>
  <course>94.99</course>
  <speed>0.0</speed>
  <fix>3d</fix>
</trkpt>
<trkpt lat="33.810313" lon="-118.393866">
  <ele>-0.127</ele>
  <time>2026-09-01T01:12:20Z</time>
  <course>185.62</course>
  <speed>0.11401754250991379</speed>
  <fix>3d</fix>
</trkpt>
<trkpt lat="33.810313" lon="-118.393866">
  <ele>-0.12</ele>
  <time>2026-09-01T01:12:20Z</time>
  <course>94.99</course>
  <speed>0.0</speed>
  <fix>3d</fix>
</trkpt>
<trkpt lat="33.810313" lon="-118.393866">
  <ele>-0.126</ele>
  <time>2026-09-01T01:12:20Z</time>
  <course>185.62</course>
  <speed>0.09219544457292887</speed>
  <fix>3d</fix>
</trkpt>
<trkpt lat="33.810313" lon="-118.393866">
  <ele>-0.12</ele>
  <time>2026-09-01T01:12:20Z</time>
  <course>94.99</course>
  <speed>0.0</speed>
  <fix>3d</fix>
</trkpt>
<trkpt lat="33.810313" lon="-118.393866">
  <ele>-0.124</ele>
  <time>2026-09-01T01:12:20Z</time>
  <course>185.62</course>
  <speed>0.07810249675906654</speed>
  <fix>3d</fix>
</trkpt>
<trkpt lat="33.810313" lon="-118.393866">
  <ele>-0.12</ele>
  <time>2026-09-01T01:12:20Z</time>
  <course>94.99</course>
  <speed>0.0</speed>
  <fix>3d</fix>
</trkpt>
<trkpt lat="33.810313" lon="-118.393866">
  <ele>-0.157</ele>
  <time>2026-09-01T01:12:20Z</time>
  <course>185.63</course>
  <speed>0.0565685424949238</speed>
  <fix>3d</fix>
</trkpt>
<trkpt lat="33.810313" lon="-118.393866">
  <ele>-0.12</ele>
  <time>2026-09-01T01:12:20Z</time>
  <course>94.99</course>
  <speed>0.0</speed>
  <fix>3d</fix>
</trkpt>
<trkpt lat="33.8103129" lon="-118.3938659">
  <ele>-0.255</ele>
  <time>2026-09-01T01:12:20Z</time>
  <course>185.63</course>
  <speed>0.04242640687119285</speed>
  <fix>3d</fix>
</trkpt>
<trkpt lat="33.810313" lon="-118.393866">
  <ele>-0.14</ele>
  <time>2026-09-01T01:12:20Z</time>
  <course>94.99</course>
  <speed>0.0</speed>
  <fix>3d</fix>
</trkpt>
<trkpt lat="33.8103129" lon="-118.3938659">
  <ele>-0.345</ele>
  <time>2026-09-01T01:12:20Z</time>
  <course>185.63</course>
  <speed>0.03605551275463989</speed>
  <fix>3d</fix>
</trkpt>
<trkpt lat="33.810313" lon="-118.393866">
  <ele>-0.14</ele>
  <time>2026-09-01T01:12:20Z</time>
  <course>94.99</course>
  <speed>0.0</speed>
  <fix>3d</fix>
</trkpt>
<trkpt lat="33.8103129" lon="-118.3938659">
  <ele>-0.406</ele>
  <time>2026-09-01T01:12:20Z</time>
  <course>185.63</course>
  <speed>0.03605551275463989</speed>
  <fix>3d</fix>
</trkpt>
<trkpt lat="33.810313" lon="-118.393866">
  <ele>-0.26</ele>
  <time>2026-09-01T01:12:20Z</time>
  <course>94.99</course>
  <speed>0.0</speed>
  <fix>3d</fix>
</trkpt>
<trkpt lat="33.8103129" lon="-118.3938659">
  <ele>-0.453</ele>
  <time>2026-09-01T01:12:20Z</time>
  <course>185.63</course>
  <speed>0.0282842712474619</speed>
  <fix>3d</fix>
</trkpt>
<trkpt lat="33.810313" lon="-118.393866">
  <ele>-0.26</ele>
  <time>2026-09-01T01:12:20Z</time>
  <course>94.99</course>
  <speed>0.0</speed>
  <fix>3d</fix>
</trkpt>
<trkpt lat="33.8103129" lon="-118.3938659">
  <ele>-0.49</ele>
  <time>2026-09-01T01:12:20Z</time>
  <course>185.63</course>
  <speed>0.0282842712474619</speed>
  <fix>3d</fix>
</trkpt>
<trkpt lat="33.810313" lon="-118.393866">
  <ele>-0.39</ele>
  <time>2026-09-01T01:12:20Z</time>
  <course>95.0</course>
  <speed>0.0</speed>
  <fix>3d</fix>
</trkpt>
<trkpt lat="33.8103129" lon="-118.3938659">
  <ele>-0.519</ele>
  <time>2026-09-01T01:12:20Z</time>
  <course>185.63</course>
  <speed>0.022360679774997897</speed>
  <fix>3d</fix>
</trkpt>
<trkpt lat="33.810313" lon="-118.393866">
  <ele>-0.39</ele>
  <time>2026-09-01T01:12:20Z</time>
  <course>95.0</course>
  <speed>0.0</speed>
  <fix>3d</fix>
</trkpt>
<trkpt lat="33.8103129" lon="-118.3938659">
  <ele>-0.544</ele>
  <time>2026-09-01T01:12:20Z</time>
  <course>185.63</course>
  <speed>0.022360679774997897</speed>
  <fix>3d</fix>
</trkpt>
<trkpt lat="33.810313" lon="-118.393866">
  <ele>-0.46</ele>
  <time>2026-09-01T01:12:20Z</time>
  <course>95.0</course>
  <speed>0.0</speed>
  <fix>3d</fix>
</trkpt>
<trkpt lat="33.8103129" lon="-118.3938659">
  <ele>-0.564</ele>
  <time>2026-09-01T01:12:20Z</time>
  <course>185.63</course>
  <speed>0.022360679774997897</speed>
  <fix>3d</fix>
</trkpt>
<trkpt lat="33.810313" lon="-118.393866">
  <ele>-0.46</ele>
  <time>2026-09-01T01:12:20Z</time>
  <course>95.0</course>
  <speed>0.0</speed>
  <fix>3d</fix>
</trkpt>
<trkpt lat="33.8103129" lon="-118.3938659">
  <ele>-0.581</ele>
  <time>2026-09-01T01:12:20Z</time>
  <course>185.63</course>
  <speed>0.01414213562373095</speed>
  <fix>3d</fix>
</trkpt>
<trkpt lat="33.810313" lon="-118.393866">
  <ele>-0.51</ele>
  <time>2026-09-01T01:12:20Z</time>
  <course>95.0</course>
  <speed>0.0</speed>
  <fix>3d</fix>
</trkpt>
<trkpt lat="33.8103129" lon="-118.3938659">
  <ele>-0.595</ele>
  <time>2026-09-01T01:12:20Z</time>
  <course>185.63</course>
  <speed>0.01414213562373095</speed>
  <fix>3d</fix>
</trkpt>
<trkpt lat="33.810313" lon="-118.393866">
  <ele>-0.51</ele>
  <time>2026-09-01T01:12:20Z</time>
  <course>95.0</course>
  <speed>0.0</speed>
  <fix>3d</fix>
</trkpt>
<trkpt lat="33.8103129" lon="-118.3938659">
  <ele>-0.607</ele>
  <time>2026-09-01T01:12:20Z</time>
  <course>185.63</course>
  <speed>0.01414213562373095</speed>
  <fix>3d</fix>
</trkpt>
<trkpt lat="33.810313" lon="-118.393866">
  <ele>-0.53</ele>
  <time>2026-09-01T01:12:20Z</time>
  <course>95.0</course>
  <speed>0.0</speed>
  <fix>3d</fix>
</trkpt>
<trkpt lat="33.810313" lon="-118.393866">
  <ele>-0.617</ele>
  <time>2026-09-01T01:12:20Z</time>
  <course>185.63</course>
  <speed>0.01414213562373095</speed>
  <fix>3d</fix>
</trkpt>
<trkpt lat="33.810313" lon="-118.393866">
  <ele>-0.53</ele>
  <time>2026-09-01T01:12:20Z</time>
  <course>95.0</course>
  <speed>0.0</speed>
  <fix>3d</fix>
</trkpt>
<trkpt lat="33.810313" lon="-118.393866">
  <ele>-0.625</ele>
  <time>2026-09-01T01:12:20Z</time>
  <course>185.63</course>
  <speed>0.01414213562373095</speed>
  <fix>3d</fix>
</trkpt>
<trkpt lat="33.810313" lon="-118.393866">
  <ele>-0.56</ele>
  <time>2026-09-01T01:12:20Z</time>
  <course>95.0</course>
  <speed>0.0</speed>
  <fix>3d</fix>
</trkpt>
<trkpt lat="33.810313" lon="-118.393866">
  <ele>-0.632</ele>
  <time>2026-09-01T01:12:20Z</time>
  <course>185.63</course>
  <speed>0.01414213562373095</speed>
  <fix>3d</fix>
</trkpt>
<trkpt lat="33.810313" lon="-118.393866">
  <ele>-0.56</ele>
  <time>2026-09-01T01:12:20Z</time>
  <course>95.0</course>
  <speed>0.0</speed>
  <fix>3d</fix>
</trkpt>
<trkpt lat="33.810313" lon="-118.393866">
  <ele>-0.638</ele>
  <time>2026-09-01T01:12:20Z</time>
  <course>185.63</course>
  <speed>0.01414213562373095</speed>
  <fix>3d</fix>
</trkpt>
<trkpt lat="33.810313" lon="-118.393866">
  <ele>-0.58</ele>
  <time>2026-09-01T01:12:20Z</time>
  <course>95.0</course>
  <speed>0.0</speed>
  <fix>3d</fix>
</trkpt>
<trkpt lat="33.810313" lon="-118.393866">
  <ele>-0.643</ele>
  <time>2026-09-01T01:12:20Z</time>
  <course>185.63</course>
  <speed>0.01414213562373095</speed>
  <fix>3d</fix>
</trkpt>
<trkpt lat="33.810313" lon="-118.393866">
  <ele>-0.58</ele>
  <time>2026-09-01T01:12:20Z</time>
  <course>95.0</course>
  <speed>0.0</speed>
  <fix>3d</fix>
</trkpt>
<trkpt lat="33.810313" lon="-118.393866">
  <ele>-0.648</ele>
  <time>2026-09-01T01:12:20Z</time>
  <course>185.63</course>
  <speed>0.01414213562373095</speed>
  <fix>3d</fix>
</trkpt>
<trkpt lat="33.810313" lon="-118.393866">
  <ele>-0.59</ele>
  <time>2026-09-01T01:12:20Z</time>
  <course>95.0</course>
  <speed>0.0</speed>
  <fix>3d</fix>
</trkpt>
<trkpt lat="33.810313" lon="-118.393866">
  <ele>-0.651</ele>
  <time>2026-09-01T01:12:20Z</time>
  <course>185.63</course>
  <speed>0.022360679774997897</speed>
  <fix>3d</fix>
</trkpt>
<trkpt lat="33.810313" lon="-118.393866">
  <ele>-0.59</ele>
  <time>2026-09-01T01:12:20Z</time>
  <course>95.0</course>
  <speed>0.0</speed>
  <fix>3d</fix>
</trkpt>
<trkpt lat="33.810313" lon="-118.393866">
  <ele>-0.652</ele>
  <time>2026-09-01T01:12:20Z</time>
  <course>185.63</course>
  <speed>0.022360679774997897</speed>
  <fix>3d</fix>
</trkpt>
<trkpt lat="33.810313" lon="-118.393866">
  <ele>-0.6</ele>
  <time>2026-09-01T01:12:20Z</time>
  <course>95.0</course>
  <speed>0.0</speed>
  <fix>3d</fix>
</trkpt>
<trkpt lat="33.810313" lon="-118.393866">
  <ele>-0.653</ele>
  <time>2026-09-01T01:12:20Z</time>
  <course>185.63</course>
  <speed>0.022360679774997897</speed>
  <fix>3d</fix>
</trkpt>
<trkpt lat="33.810313" lon="-118.393866">
  <ele>-0.6</ele>
  <time>2026-09-01T01:12:20Z</time>
  <course>95.0</course>
  <speed>0.0</speed>
  <fix>3d</fix>
</trkpt>
<trkpt lat="33.810313" lon="-118.393866">
  <ele>-0.652</ele>
  <time>2026-09-01T01:12:20Z</time>
  <course>185.63</course>
  <speed>0.022360679774997897</speed>
  <fix>3d</fix>
</trkpt>
<trkpt lat="33.810313" lon="-118.393866">
  <ele>-0.61</ele>
  <time>2026-09-01T01:12:20Z</time>
  <course>95.0</course>
  <speed>0.0</speed>
  <fix>3d</fix>
</trkpt>
<trkpt lat="33.8103131" lon="-118.3938661">
  <ele>-0.65</ele>
  <time>2026-09-01T01:12:20Z</time>
  <course>185.63</course>
  <speed>0.022360679774997897</speed>
  <fix>3d</fix>
</trkpt>
<trkpt lat="33.810313" lon="-118.393866">
  <ele>-0.61</ele>
  <time>2026-09-01T01:12:20Z</time>
  <course>95.0</course>
  <speed>0.0</speed>
  <fix>3d</fix>
</trkpt>
<trkpt lat="33.8103131" lon="-118.3938661">
  <ele>-0.648</ele>
  <time>2026-09-01T01:12:20Z</time>
  <course>185.63</course>
  <speed>0.022360679774997897</speed>
  <fix>3d</fix>
</trkpt>
<trkpt lat="33.810313" lon="-118.393866">
  <ele>-0.62</ele>
  <time>2026-09-01T01:12:20Z</time>
  <course>95.0</course>
  <speed>0.0</speed>
  <fix>3d</fix>
</trkpt>
<trkpt lat="33.8103131" lon="-118.3938661">
  <ele>-0.646</ele>
  <time>2026-09-01T01:12:20Z</time>
  <course>185.63</course>
  <speed>0.022360679774997897</speed>
  <fix>3d</fix>
</trkpt>
<trkpt lat="33.810313" lon="-118.393866">
  <ele>-0.62</ele>
  <time>2026-09-01T01:12:20Z</time>
  <course>95.0</course>
  <speed>0.0</speed>
  <fix>3d</fix>
</trkpt>
<trkpt lat="33.8103131" lon="-118.3938661">
  <ele>-0.645</ele>
  <time>2026-09-01T01:12:20Z</time>
  <course>185.63</course>
  <speed>0.022360679774997897</speed>
  <fix>3d</fix>
</trkpt>
<trkpt lat="33.810313" lon="-118.393866">
  <ele>-0.63</ele>
  <time>2026-09-01T01:12:20Z</time>
  <course>95.0</course>
  <speed>0.0</speed>
  <fix>3d</fix>
</trkpt>
<trkpt lat="33.8103131" lon="-118.3938661">
  <ele>-0.643</ele>
  <time>2026-09-01T01:12:20Z</time>
  <course>185.63</course>
  <speed>0.022360679774997897</speed>
  <fix>3d</fix>
</trkpt>
<trkpt lat="33.810313" lon="-118.393866">
  <ele>-0.63</ele>
  <time>2026-09-01T01:12:20Z</time>
  <course>95.0</course>
  <speed>0.0</speed>
  <fix>3d</fix>
</trkpt>
<trkpt lat="33.8103131" lon="-118.3938661">
  <ele>-0.641</ele>
  <time>2026-09-01T01:12:20Z</time>
  <course>185.63</course>
  <speed>0.022360679774997897</speed>
  <fix>3d</fix>
</trkpt>
<trkpt lat="33.810313" lon="-118.393866">
  <ele>-0.63</ele>
  <time>2026-09-01T01:12:20Z</time>
  <course>95.0</course>
  <speed>0.0</speed>
  <fix>3d</fix>
</trkpt>
<trkpt lat="33.8103131" lon="-118.3938661">
  <ele>-0.639</ele>
  <time>2026-09-01T01:12:20Z</time>
  <course>185.63</course>
  <speed>0.022360679774997897</speed>
  <fix>3d</fix>
</trkpt>
<trkpt lat="33.810313" lon="-118.393866">
  <ele>-0.63</ele>
  <time>2026-09-01T01:12:20Z</time>
  <course>95.0</course>
  <speed>0.0</speed>
  <fix>3d</fix>
</trkpt>
<trkpt lat="33.8103131" lon="-118.3938661">
  <ele>-0.637</ele>
  <time>2026-09-01T01:12:20Z</time>
  <course>185.63</course>
  <speed>0.0282842712474619</speed>
  <fix>3d</fix>
</trkpt>
<trkpt lat="33.810313" lon="-118.393866">
  <ele>-0.62</ele>
  <time>2026-09-01T01:12:20Z</time>
  <course>95.0</course>
  <speed>0.0</speed>
  <fix>3d</fix>
</trkpt>
<trkpt lat="33.8103131" lon="-118.3938661">
  <ele>-0.634</ele>
  <time>2026-09-01T01:12:21Z</time>
  <course>185.63</course>
  <speed>0.0282842712474619</speed>
  <fix>3d</fix>
</trkpt>
<trkpt lat="33.810313" lon="-118.393866">
  <ele>-0.62</ele>
  <time>2026-09-01T01:12:21Z</time>
  <course>95.0</course>
  <speed>0.0</speed>
  <fix>3d</fix>
</trkpt>
<trkpt lat="33.8103131" lon="-118.3938661">
  <ele>-0.63</ele>
  <time>2026-09-01T01:12:21Z</time>
  <course>185.64</course>
  <speed>0.0282842712474619</speed>
  <fix>3d</fix>
</trkpt>
<trkpt lat="33.810313" lon="-118.393866">
  <ele>-0.62</ele>
  <time>2026-09-01T01:12:21Z</time>
  <course>95.0</course>
  <speed>0.0</speed>
  <fix>3d</fix>
</trkpt>
<trkpt lat="33.8103131" lon="-118.3938661">
  <ele>-0.626</ele>
  <time>2026-09-01T01:12:21Z</time>
  <course>185.64</course>
  <speed>0.0282842712474619</speed>
  <fix>3d</fix>
</trkpt>
<trkpt lat="33.810313" lon="-118.393866">
  <ele>-0.62</ele>
  <time>2026-09-01T01:12:21Z</time>
  <course>95.0</course>
  <speed>0.0</speed>
  <fix>3d</fix>
</trkpt>
<trkpt lat="33.8103131" lon="-118.3938661">
  <ele>-0.622</ele>
  <time>2026-09-01T01:12:21Z</time>
  <course>185.64</course>
  <speed>0.0282842712474619</speed>
  <fix>3d</fix>
</trkpt>
<trkpt lat="33.810313" lon="-118.393866">
  <ele>-0.61</ele>
  <time>2026-09-01T01:12:21Z</time>
  <course>95.0</course>
  <speed>0.0</speed>
  <fix>3d</fix>
</trkpt>
<trkpt lat="33.8103131" lon="-118.3938661">
  <ele>-0.618</ele>
  <time>2026-09-01T01:12:21Z</time>
  <course>185.64</course>
  <speed>0.0282842712474619</speed>
  <fix>3d</fix>
</trkpt>
<trkpt lat="33.810313" lon="-118.393866">
  <ele>-0.61</ele>
  <time>2026-09-01T01:12:21Z</time>
  <course>95.0</course>
  <speed>0.0</speed>
  <fix>3d</fix>
</trkpt>
<trkpt lat="33.8103131" lon="-118.3938661">
  <ele>-0.612</ele>
  <time>2026-09-01T01:12:21Z</time>
  <course>185.64</course>
  <speed>0.0282842712474619</speed>
  <fix>3d</fix>
</trkpt>
<trkpt lat="33.810313" lon="-118.393866">
  <ele>-0.6</ele>
  <time>2026-09-01T01:12:21Z</time>
  <course>95.0</course>
  <speed>0.0</speed>
  <fix>3d</fix>
</trkpt>
<trkpt lat="33.8103131" lon="-118.3938661">
  <ele>-0.606</ele>
  <time>2026-09-01T01:12:21Z</time>
  <course>185.64</course>
  <speed>0.0282842712474619</speed>
  <fix>3d</fix>
</trkpt>
<trkpt lat="33.810313" lon="-118.393866">
  <ele>-0.6</ele>
  <time>2026-09-01T01:12:21Z</time>
  <course>95.0</course>
  <speed>0.0</speed>
  <fix>3d</fix>
</trkpt>
<trkpt lat="33.8103131" lon="-118.3938661">
  <ele>-0.6</ele>
  <time>2026-09-01T01:12:21Z</time>
  <course>185.64</course>
  <speed>0.0282842712474619</speed>
  <fix>3d</fix>
</trkpt>
<trkpt lat="33.810313" lon="-118.393866">
  <ele>-0.59</ele>
  <time>2026-09-01T01:12:21Z</time>
  <course>95.0</course>
  <speed>0.0</speed>
  <fix>3d</fix>
</trkpt>
<trkpt lat="33.8103131" lon="-118.3938661">
  <ele>-0.595</ele>
  <time>2026-09-01T01:12:21Z</time>
  <course>185.64</course>
  <speed>0.0282842712474619</speed>
  <fix>3d</fix>
</trkpt>
<trkpt lat="33.810313" lon="-118.393866">
  <ele>-0.59</ele>
  <time>2026-09-01T01:12:21Z</time>
  <course>95.0</course>
  <speed>0.0</speed>
  <fix>3d</fix>
</trkpt>
<trkpt lat="33.8103131" lon="-118.3938661">
  <ele>-0.588</ele>
  <time>2026-09-01T01:12:21Z</time>
  <course>185.64</course>
  <speed>0.0282842712474619</speed>
  <fix>3d</fix>
</trkpt>
<trkpt lat="33.810313" lon="-118.393866">
  <ele>-0.58</ele>
  <time>2026-09-01T01:12:21Z</time>
  <course>95.0</course>
  <speed>0.0</speed>
  <fix>3d</fix>
</trkpt>
<trkpt lat="33.8103131" lon="-118.3938661">
  <ele>-0.581</ele>
  <time>2026-09-01T01:12:21Z</time>
  <course>185.64</course>
  <speed>0.0282842712474619</speed>
  <fix>3d</fix>
</trkpt>
<trkpt lat="33.810313" lon="-118.393866">
  <ele>-0.58</ele>
  <time>2026-09-01T01:12:21Z</time>
  <course>95.0</course>
  <speed>0.0</speed>
  <fix>3d</fix>
</trkpt>
<trkpt lat="33.8103131" lon="-118.3938661">
  <ele>-0.575</ele>
  <time>2026-09-01T01:12:21Z</time>
  <course>185.64</course>
  <speed>0.0282842712474619</speed>
  <fix>3d</fix>
</trkpt>
<trkpt lat="33.810313" lon="-118.393866">
  <ele>-0.57</ele>
  <time>2026-09-01T01:12:21Z</time>
  <course>95.0</course>
  <speed>0.0</speed>
  <fix>3d</fix>
</trkpt>
<trkpt lat="33.8103131" lon="-118.3938661">
  <ele>-0.568</ele>
  <time>2026-09-01T01:12:21Z</time>
  <course>185.64</course>
  <speed>0.0282842712474619</speed>
  <fix>3d</fix>
</trkpt>
<trkpt lat="33.810313" lon="-118.393866">
  <ele>-0.57</ele>
  <time>2026-09-01T01:12:21Z</time>
  <course>95.0</course>
  <speed>0.0</speed>
  <fix>3d</fix>
</trkpt>
<trkpt lat="33.8103131" lon="-118.3938661">
  <ele>-0.561</ele>
  <time>2026-09-01T01:12:21Z</time>
  <course>185.64</course>
  <speed>0.0282842712474619</speed>
  <fix>3d</fix>
</trkpt>
<trkpt lat="33.810313" lon="-118.393866">
  <ele>-0.55</ele>
  <time>2026-09-01T01:12:21Z</time>
  <course>95.0</course>
  <speed>0.0</speed>
  <fix>3d</fix>
</trkpt>
<trkpt lat="33.8103131" lon="-118.3938661">
  <ele>-0.554</ele>
  <time>2026-09-01T01:12:21Z</time>
  <course>185.64</course>
  <speed>0.0282842712474619</speed>
  <fix>3d</fix>
</trkpt>
<trkpt lat="33.810313" lon="-118.393866">
  <ele>-0.55</ele>
  <time>2026-09-01T01:12:21Z</time>
  <course>95.0</course>
  <speed>0.0</speed>
  <fix>3d</fix>
</trkpt>
<trkpt lat="33.8103131" lon="-118.3938661">
  <ele>-0.545</ele>
  <time>2026-09-01T01:12:21Z</time>
  <course>185.64</course>
  <speed>0.0282842712474619</speed>
  <fix>3d</fix>
</trkpt>
<trkpt lat="33.810313" lon="-118.393866">
  <ele>-0.53</ele>
  <time>2026-09-01T01:12:21Z</time>
  <course>95.0</course>
  <speed>0.0</speed>
  <fix>3d</fix>
</trkpt>
<trkpt lat="33.8103131" lon="-118.3938661">
  <ele>-0.536</ele>
  <time>2026-09-01T01:12:21Z</time>
  <course>185.64</course>
  <speed>0.0282842712474619</speed>
  <fix>3d</fix>
</trkpt>
<trkpt lat="33.810313" lon="-118.393866">
  <ele>-0.53</ele>
  <time>2026-09-01T01:12:21Z</time>
  <course>95.0</course>
  <speed>0.0</speed>
  <fix>3d</fix>
</trkpt>
<trkpt lat="33.8103131" lon="-118.3938661">
  <ele>-0.527</ele>
  <time>2026-09-01T01:12:21Z</time>
  <course>185.64</course>
  <speed>0.0282842712474619</speed>
  <fix>3d</fix>
</trkpt>
<trkpt lat="33.810313" lon="-118.393866">
  <ele>-0.52</ele>
  <time>2026-09-01T01:12:21Z</time>
  <course>95.0</course>
  <speed>0.0</speed>
  <fix>3d</fix>
</trkpt>
<trkpt lat="33.8103131" lon="-118.3938661">
  <ele>-0.518</ele>
  <time>2026-09-01T01:12:21Z</time>
  <course>185.64</course>
  <speed>0.0282842712474619</speed>
  <fix>3d</fix>
</trkpt>
<trkpt lat="33.810313" lon="-118.393866">
  <ele>-0.52</ele>
  <time>2026-09-01T01:12:21Z</time>
  <course>95.0</course>
  <speed>0.0</speed>
  <fix>3d</fix>
</trkpt>
<trkpt lat="33.8103131" lon="-118.3938661">
  <ele>-0.51</ele>
  <time>2026-09-01T01:12:21Z</time>
  <course>185.64</course>
  <speed>0.0282842712474619</speed>
  <fix>3d</fix>
</trkpt>
<trkpt lat="33.810313" lon="-118.393866">
  <ele>-0.51</ele>
  <time>2026-09-01T01:12:21Z</time>
  <course>95.0</course>
  <speed>0.0</speed>
  <fix>3d</fix>
</trkpt>
<trkpt lat="33.8103131" lon="-118.3938661">
  <ele>-0.5</ele>
  <time>2026-09-01T01:12:21Z</time>
  <course>185.64</course>
  <speed>0.0282842712474619</speed>
  <fix>3d</fix>
</trkpt>
<trkpt lat="33.810313" lon="-118.393866">
  <ele>-0.51</ele>
  <time>2026-09-01T01:12:21Z</time>
  <course>95.0</course>
  <speed>0.0</speed>
  <fix>3d</fix>
</trkpt>
<trkpt lat="33.8103131" lon="-118.3938661">
  <ele>-0.49</ele>
  <time>2026-09-01T01:12:21Z</time>
  <course>185.64</course>
  <speed>0.0282842712474619</speed>
  <fix>3d</fix>
</trkpt>
<trkpt lat="33.810313" lon="-118.393866">
  <ele>-0.49</ele>
  <time>2026-09-01T01:12:21Z</time>
  <course>95.0</course>
  <speed>0.0</speed>
  <fix>3d</fix>
</trkpt>
<trkpt lat="33.8103131" lon="-118.3938661">
  <ele>-0.48</ele>
  <time>2026-09-01T01:12:21Z</time>
  <course>185.64</course>
  <speed>0.0282842712474619</speed>
  <fix>3d</fix>
</trkpt>
<trkpt lat="33.810313" lon="-118.393866">
  <ele>-0.49</ele>
  <time>2026-09-01T01:12:21Z</time>
  <course>95.0</course>
  <speed>0.0</speed>
  <fix>3d</fix>
</trkpt>
<trkpt lat="33.8103131" lon="-118.3938661">
  <ele>-0.471</ele>
  <time>2026-09-01T01:12:21Z</time>
  <course>185.65</course>
  <speed>0.0282842712474619</speed>
  <fix>3d</fix>
</trkpt>
<trkpt lat="33.810313" lon="-118.393866">
  <ele>-0.47</ele>
  <time>2026-09-01T01:12:21Z</time>
  <course>95.0</course>
  <speed>0.0</speed>
  <fix>3d</fix>
</trkpt>
<trkpt lat="33.8103131" lon="-118.3938661">
  <ele>-0.461</ele>
  <time>2026-09-01T01:12:21Z</time>
  <course>185.65</course>
  <speed>0.0282842712474619</speed>
  <fix>3d</fix>
</trkpt>
<trkpt lat="33.810313" lon="-118.393866">
  <ele>-0.47</ele>
  <time>2026-09-01T01:12:21Z</time>
  <course>95.0</course>
  <speed>0.0</speed>
  <fix>3d</fix>
</trkpt>
<trkpt lat="33.8103131" lon="-118.3938661">
  <ele>-0.452</ele>
  <time>2026-09-01T01:12:21Z</time>
  <course>185.65</course>
  <speed>0.0282842712474619</speed>
  <fix>3d</fix>
</trkpt>
<trkpt lat="33.810313" lon="-118.393866">
  <ele>-0.45</ele>
  <time>2026-09-01T01:12:21Z</time>
  <course>95.0</course>
  <speed>0.0</speed>
  <fix>3d</fix>
</trkpt>
<trkpt lat="33.8103132" lon="-118.3938661">
  <ele>-0.443</ele>
  <time>2026-09-01T01:12:21Z</time>
  <course>185.65</course>
  <speed>0.0282842712474619</speed>
  <fix>3d</fix>
</trkpt>
<trkpt lat="33.810313" lon="-118.393866">
  <ele>-0.45</ele>
  <time>2026-09-01T01:12:21Z</time>
  <course>95.0</course>
  <speed>0.0</speed>
  <fix>3d</fix>
</trkpt>
<trkpt lat="33.8103132" lon="-118.3938661">
  <ele>-0.434</ele>
  <time>2026-09-01T01:12:21Z</time>
  <course>185.65</course>
  <speed>0.0282842712474619</speed>
  <fix>3d</fix>
</trkpt>
<trkpt lat="33.810313" lon="-118.393866">
  <ele>-0.44</ele>
  <time>2026-09-01T01:12:21Z</time>
  <course>95.0</course>
  <speed>0.0</speed>
  <fix>3d</fix>
</trkpt>
<trkpt lat="33.8103132" lon="-118.3938661">
  <ele>-0.424</ele>
  <time>2026-09-01T01:12:21Z</time>
  <course>185.65</course>
  <speed>0.0282842712474619</speed>
  <fix>3d</fix>
</trkpt>
<trkpt lat="33.810313" lon="-118.393866">
  <ele>-0.44</ele>
  <time>2026-09-01T01:12:21Z</time>
  <course>95.0</course>
  <speed>0.0</speed>
  <fix>3d</fix>
</trkpt>
<trkpt lat="33.8103132" lon="-118.3938661">
  <ele>-0.415</ele>
  <time>2026-09-01T01:12:21Z</time>
  <course>185.65</course>
  <speed>0.0282842712474619</speed>
  <fix>3d</fix>
</trkpt>
<trkpt lat="33.810313" lon="-118.393866">
  <ele>-0.42</ele>
  <time>2026-09-01T01:12:21Z</time>
  <course>95.0</course>
  <speed>0.0</speed>
  <fix>3d</fix>
</trkpt>
<trkpt lat="33.8103132" lon="-118.3938662">
  <ele>-0.405</ele>
  <time>2026-09-01T01:12:21Z</time>
  <course>185.65</course>
  <speed>0.0282842712474619</speed>
  <fix>3d</fix>
</trkpt>
<trkpt lat="33.810313" lon="-118.393866">
  <ele>-0.42</ele>
  <time>2026-09-01T01:12:21Z</time>
  <course>95.0</course>
  <speed>0.0</speed>
  <fix>3d</fix>
</trkpt>
<trkpt lat="33.8103132" lon="-118.3938662">
  <ele>-0.395</ele>
  <time>2026-09-01T01:12:21Z</time>
  <course>185.65</course>
  <speed>0.0282842712474619</speed>
  <fix>3d</fix>
</trkpt>
<trkpt lat="33.810313" lon="-118.393866">
  <ele>-0.39</ele>
  <time>2026-09-01T01:12:21Z</time>
  <course>95.0</course>
  <speed>0.0</speed>
  <fix>3d</fix>
</trkpt>
<trkpt lat="33.8103132" lon="-118.3938662">
  <ele>-0.386</ele>
  <time>2026-09-01T01:12:21Z</time>
  <course>185.65</course>
  <speed>0.0282842712474619</speed>
  <fix>3d</fix>
</trkpt>
<trkpt lat="33.810313" lon="-118.393866">
  <ele>-0.39</ele>
  <time>2026-09-01T01:12:21Z</time>
  <course>95.0</course>
  <speed>0.0</speed>
  <fix>3d</fix>
</trkpt>
<trkpt lat="33.8103132" lon="-118.3938662">
  <ele>-0.376</ele>
  <time>2026-09-01T01:12:21Z</time>
  <course>185.65</course>
  <speed>0.0282842712474619</speed>
  <fix>3d</fix>
</trkpt>
<trkpt lat="33.810313" lon="-118.393866">
  <ele>-0.38</ele>
  <time>2026-09-01T01:12:21Z</time>
  <course>95.0</course>
  <speed>0.0</speed>
  <fix>3d</fix>
</trkpt>
<trkpt lat="33.8103132" lon="-118.3938662">
  <ele>-0.366</ele>
  <time>2026-09-01T01:12:21Z</time>
  <course>185.65</course>
  <speed>0.0282842712474619</speed>
  <fix>3d</fix>
</trkpt>
<trkpt lat="33.810313" lon="-118.393866">
  <ele>-0.38</ele>
  <time>2026-09-01T01:12:21Z</time>
  <course>95.0</course>
  <speed>0.0</speed>
  <fix>3d</fix>
</trkpt>
<trkpt lat="33.8103132" lon="-118.3938662">
  <ele>-0.355</ele>
  <time>2026-09-01T01:12:21Z</time>
  <course>185.65</course>
  <speed>0.0282842712474619</speed>
  <fix>3d</fix>
</trkpt>
<trkpt lat="33.810313" lon="-118.393866">
  <ele>-0.36</ele>
  <time>2026-09-01T01:12:21Z</time>
  <course>95.0</course>
  <speed>0.0</speed>
  <fix>3d</fix>
</trkpt>
<trkpt lat="33.8103132" lon="-118.3938662">
  <ele>-0.345</ele>
  <time>2026-09-01T01:12:21Z</time>
  <course>185.65</course>
  <speed>0.0282842712474619</speed>
  <fix>3d</fix>
</trkpt>
<trkpt lat="33.810313" lon="-118.393866">
  <ele>-0.36</ele>
  <time>2026-09-01T01:12:21Z</time>
  <course>95.0</course>
  <speed>0.0</speed>
  <fix>3d</fix>
</trkpt>
<trkpt lat="33.8103132" lon="-118.3938662">
  <ele>-0.335</ele>
  <time>2026-09-01T01:12:21Z</time>
  <course>185.65</course>
  <speed>0.0282842712474619</speed>
  <fix>3d</fix>
</trkpt>
<trkpt lat="33.810313" lon="-118.393866">
  <ele>-0.35</ele>
  <time>2026-09-01T01:12:21Z</time>
  <course>95.0</course>
  <speed>0.0</speed>
  <fix>3d</fix>
</trkpt>
<trkpt lat="33.8103132" lon="-118.3938662">
  <ele>-0.325</ele>
  <time>2026-09-01T01:12:21Z</time>
  <course>185.65</course>
  <speed>0.0282842712474619</speed>
  <fix>3d</fix>
</trkpt>
<trkpt lat="33.810313" lon="-118.393866">
  <ele>-0.35</ele>
  <time>2026-09-01T01:12:21Z</time>
  <course>95.0</course>
  <speed>0.0</speed>
  <fix>3d</fix>
</trkpt>
<trkpt lat="33.8103132" lon="-118.3938662">
  <ele>-0.316</ele>
  <time>2026-09-01T01:12:21Z</time>
  <course>185.65</course>
  <speed>0.0282842712474619</speed>
  <fix>3d</fix>
</trkpt>
<trkpt lat="33.810313" lon="-118.393866">
  <ele>-0.32</ele>
  <time>2026-09-01T01:12:21Z</time>
  <course>95.0</course>
  <speed>0.0</speed>
  <fix>3d</fix>
</trkpt>
<trkpt lat="33.8103132" lon="-118.3938662">
  <ele>-0.306</ele>
  <time>2026-09-01T01:12:21Z</time>
  <course>185.65</course>
  <speed>0.0282842712474619</speed>
  <fix>3d</fix>
</trkpt>
<trkpt lat="33.810313" lon="-118.393866">
  <ele>-0.32</ele>
  <time>2026-09-01T01:12:21Z</time>
  <course>95.0</course>
  <speed>0.0</speed>
  <fix>3d</fix>
</trkpt>
<trkpt lat="33.8103132" lon="-118.3938662">
  <ele>-0.263</ele>
  <time>2026-09-01T01:12:21Z</time>
  <course>185.66</course>
  <speed>0.0282842712474619</speed>
  <fix>3d</fix>
</trkpt>
<trkpt lat="33.810313" lon="-118.393866">
  <ele>-0.29</ele>
  <time>2026-09-01T01:12:21Z</time>
  <course>95.0</course>
  <speed>0.0</speed>
  <fix>3d</fix>
</trkpt>
<trkpt lat="33.8103132" lon="-118.3938661">
  <ele>-0.229</ele>
  <time>2026-09-01T01:12:21Z</time>
  <course>185.66</course>
  <speed>0.0282842712474619</speed>
  <fix>3d</fix>
</trkpt>
<trkpt lat="33.810313" lon="-118.393866">
  <ele>-0.25</ele>
  <time>2026-09-01T01:12:21Z</time>
  <course>95.0</course>
  <speed>0.0</speed>
  <fix>3d</fix>
</trkpt>
<trkpt lat="33.8103132" lon="-118.3938661">
  <ele>-0.219</ele>
  <time>2026-09-01T01:12:21Z</time>
  <course>185.66</course>
  <speed>0.0282842712474619</speed>
  <fix>3d</fix>
</trkpt>
<trkpt lat="33.810313" lon="-118.393866">
  <ele>-0.25</ele>
  <time>2026-09-01T01:12:21Z</time>
  <course>95.0</course>
  <speed>0.0</speed>
  <fix>3d</fix>
</trkpt>
<trkpt lat="33.8103131" lon="-118.3938661">
  <ele>-0.209</ele>
  <time>2026-09-01T01:12:21Z</time>
  <course>185.66</course>
  <speed>0.0282842712474619</speed>
  <fix>3d</fix>
</trkpt>
<trkpt lat="33.810313" lon="-118.393866">
  <ele>-0.22</ele>
  <time>2026-09-01T01:12:21Z</time>
  <course>95.0</course>
  <speed>0.0</speed>
  <fix>3d</fix>
</trkpt>
<trkpt lat="33.8103132" lon="-118.3938661">
  <ele>-0.2</ele>
  <time>2026-09-01T01:12:21Z</time>
  <course>185.66</course>
  <speed>0.0282842712474619</speed>
  <fix>3d</fix>
</trkpt>
<trkpt lat="33.810313" lon="-118.393866">
  <ele>-0.22</ele>
  <time>2026-09-01T01:12:21Z</time>
  <course>95.0</course>
  <speed>0.0</speed>
  <fix>3d</fix>
</trkpt>
<trkpt lat="33.8103131" lon="-118.3938661">
  <ele>-0.191</ele>
  <time>2026-09-01T01:12:21Z</time>
  <course>185.66</course>
  <speed>0.0282842712474619</speed>
  <fix>3d</fix>
</trkpt>
<trkpt lat="33.810313" lon="-118.393866">
  <ele>-0.21</ele>
  <time>2026-09-01T01:12:21Z</time>
  <course>95.0</course>
  <speed>0.0</speed>
  <fix>3d</fix>
</trkpt>
<trkpt lat="33.8103132" lon="-118.3938661">
  <ele>-0.183</ele>
  <time>2026-09-01T01:12:21Z</time>
  <course>185.66</course>
  <speed>0.0282842712474619</speed>
  <fix>3d</fix>
</trkpt>
<trkpt lat="33.810313" lon="-118.393866">
  <ele>-0.21</ele>
  <time>2026-09-01T01:12:21Z</time>
  <course>95.0</course>
  <speed>0.0</speed>
  <fix>3d</fix>
</trkpt>
<trkpt lat="33.8103132" lon="-118.3938661">
  <ele>-0.174</ele>
  <time>2026-09-01T01:12:21Z</time>
  <course>185.66</course>
  <speed>0.0282842712474619</speed>
  <fix>3d</fix>
</trkpt>
<trkpt lat="33.810313" lon="-118.393866">
  <ele>-0.19</ele>
  <time>2026-09-01T01:12:21Z</time>
  <course>95.0</course>
  <speed>0.0</speed>
  <fix>3d</fix>
</trkpt>
<trkpt lat="33.8103132" lon="-118.3938661">
  <ele>-0.165</ele>
  <time>2026-09-01T01:12:21Z</time>
  <course>185.66</course>
  <speed>0.0282842712474619</speed>
  <fix>3d</fix>
</trkpt>
<trkpt lat="33.810313" lon="-118.393866">
  <ele>-0.19</ele>
  <time>2026-09-01T01:12:21Z</time>
  <course>95.0</course>
  <speed>0.0</speed>
  <fix>3d</fix>
</trkpt>
<trkpt lat="33.8103132" lon="-118.3938661">
  <ele>-0.156</ele>
  <time>2026-09-01T01:12:21Z</time>
  <course>185.66</course>
  <speed>0.0282842712474619</speed>
  <fix>3d</fix>
</trkpt>
<trkpt lat="33.810313" lon="-118.393866">
  <ele>-0.17</ele>
  <time>2026-09-01T01:12:21Z</time>
  <course>95.0</course>
  <speed>0.0</speed>
  <fix>3d</fix>
</trkpt>
<trkpt lat="33.8103132" lon="-118.3938661">
  <ele>-0.149</ele>
  <time>2026-09-01T01:12:21Z</time>
  <course>185.66</course>
  <speed>0.0282842712474619</speed>
  <fix>3d</fix>
</trkpt>
<trkpt lat="33.810313" lon="-118.393866">
  <ele>-0.17</ele>
  <time>2026-09-01T01:12:21Z</time>
  <course>95.0</course>
  <speed>0.0</speed>
  <fix>3d</fix>
</trkpt>
<trkpt lat="33.8103132" lon="-118.3938661">
  <ele>-0.141</ele>
  <time>2026-09-01T01:12:21Z</time>
  <course>185.66</course>
  <speed>0.0282842712474619</speed>
  <fix>3d</fix>
</trkpt>
<trkpt lat="33.810313" lon="-118.393866">
  <ele>-0.16</ele>
  <time>2026-09-01T01:12:21Z</time>
  <course>95.0</course>
  <speed>0.0</speed>
  <fix>3d</fix>
</trkpt>
<trkpt lat="33.8103132" lon="-118.3938661">
  <ele>-0.133</ele>
  <time>2026-09-01T01:12:21Z</time>
  <course>185.66</course>
  <speed>0.0282842712474619</speed>
  <fix>3d</fix>
</trkpt>
<trkpt lat="33.810313" lon="-118.393866">
  <ele>-0.16</ele>
  <time>2026-09-01T01:12:21Z</time>
  <course>95.0</course>
  <speed>0.0</speed>
  <fix>3d</fix>
</trkpt>
<trkpt lat="33.8103132" lon="-118.3938661">
  <ele>-0.125</ele>
  <time>2026-09-01T01:12:21Z</time>
  <course>185.66</course>
  <speed>0.0282842712474619</speed>
  <fix>3d</fix>
</trkpt>
<trkpt lat="33.810313" lon="-118.393866">
  <ele>-0.14</ele>
  <time>2026-09-01T01:12:21Z</time>
  <course>95.0</course>
  <speed>0.0</speed>
  <fix>3d</fix>
</trkpt>
<trkpt lat="33.8103132" lon="-118.3938661">
  <ele>-0.116</ele>
  <time>2026-09-01T01:12:21Z</time>
  <course>185.66</course>
  <speed>0.0282842712474619</speed>
  <fix>3d</fix>
</trkpt>
<trkpt lat="33.810313" lon="-118.393866">
  <ele>-0.14</ele>
  <time>2026-09-01T01:12:21Z</time>
  <course>95.0</course>
  <speed>0.0</speed>
  <fix>3d</fix>
</trkpt>
<trkpt lat="33.8103132" lon="-118.3938661">
  <ele>-0.111</ele>
  <time>2026-09-01T01:12:21Z</time>
  <course>185.67</course>
  <speed>0.0282842712474619</speed>
  <fix>3d</fix>
</trkpt>
<trkpt lat="33.810313" lon="-118.393866">
  <ele>-0.12</ele>
  <time>2026-09-01T01:12:21Z</time>
  <course>95.0</course>
  <speed>0.0</speed>
  <fix>3d</fix>
</trkpt>
<trkpt lat="33.8103132" lon="-118.3938661">
  <ele>-0.112</ele>
  <time>2026-09-01T01:12:21Z</time>
  <course>185.67</course>
  <speed>0.022360679774997897</speed>
  <fix>3d</fix>
</trkpt>
<trkpt lat="33.810313" lon="-118.393866">
  <ele>-0.12</ele>
  <time>2026-09-01T01:12:21Z</time>
  <course>95.0</course>
  <speed>0.0</speed>
  <fix>3d</fix>
</trkpt>
<trkpt lat="33.8103132" lon="-118.3938661">
  <ele>-0.118</ele>
  <time>2026-09-01T01:12:21Z</time>
  <course>185.67</course>
  <speed>0.022360679774997897</speed>
  <fix>3d</fix>
</trkpt>
<trkpt lat="33.810313" lon="-118.393866">
  <ele>-0.11</ele>
  <time>2026-09-01T01:12:21Z</time>
  <course>95.0</course>
  <speed>0.0</speed>
  <fix>3d</fix>
</trkpt>
<trkpt lat="33.8103132" lon="-118.3938661">
  <ele>-0.127</ele>
  <time>2026-09-01T01:12:21Z</time>
  <course>185.67</course>
  <speed>0.022360679774997897</speed>
  <fix>3d</fix>
</trkpt>
<trkpt lat="33.810313" lon="-118.393866">
  <ele>-0.11</ele>
  <time>2026-09-01T01:12:21Z</time>
  <course>95.0</course>
  <speed>0.0</speed>
  <fix>3d</fix>
</trkpt>
<trkpt lat="33.8103132" lon="-118.3938661">
  <ele>-0.136</ele>
  <time>2026-09-01T01:12:21Z</time>
  <course>185.67</course>
  <speed>0.022360679774997897</speed>
  <fix>3d</fix>
</trkpt>
<trkpt lat="33.810313" lon="-118.393866">
  <ele>-0.11</ele>
  <time>2026-09-01T01:12:21Z</time>
  <course>95.0</course>
  <speed>0.0</speed>
  <fix>3d</fix>
</trkpt>
<trkpt lat="33.8103132" lon="-118.3938661">
  <ele>-0.144</ele>
  <time>2026-09-01T01:12:21Z</time>
  <course>185.67</course>
  <speed>0.022360679774997897</speed>
  <fix>3d</fix>
</trkpt>
<trkpt lat="33.810313" lon="-118.393866">
  <ele>-0.11</ele>
  <time>2026-09-01T01:12:21Z</time>
  <course>95.0</course>
  <speed>0.0</speed>
  <fix>3d</fix>
</trkpt>
<trkpt lat="33.8103132" lon="-118.3938661">
  <ele>-0.15</ele>
  <time>2026-09-01T01:12:21Z</time>
  <course>185.67</course>
  <speed>0.022360679774997897</speed>
  <fix>3d</fix>
</trkpt>
<trkpt lat="33.810313" lon="-118.393866">
  <ele>-0.13</ele>
  <time>2026-09-01T01:12:21Z</time>
  <course>95.0</course>
  <speed>0.0</speed>
  <fix>3d</fix>
</trkpt>
<trkpt lat="33.8103132" lon="-118.3938661">
  <ele>-0.157</ele>
  <time>2026-09-01T01:12:21Z</time>
  <course>185.67</course>
  <speed>0.0282842712474619</speed>
  <fix>3d</fix>
</trkpt>
<trkpt lat="33.810313" lon="-118.393866">
  <ele>-0.13</ele>
  <time>2026-09-01T01:12:21Z</time>
  <course>95.0</course>
  <speed>0.0</speed>
  <fix>3d</fix>
</trkpt>
<trkpt lat="33.8103132" lon="-118.3938661">
  <ele>-0.163</ele>
  <time>2026-09-01T01:12:21Z</time>
  <course>185.67</course>
  <speed>0.0282842712474619</speed>
  <fix>3d</fix>
</trkpt>
<trkpt lat="33.810313" lon="-118.393866">
  <ele>-0.14</ele>
  <time>2026-09-01T01:12:21Z</time>
  <course>95.0</course>
  <speed>0.0</speed>
  <fix>3d</fix>
</trkpt>
<trkpt lat="33.8103132" lon="-118.3938662">
  <ele>-0.169</ele>
  <time>2026-09-01T01:12:21Z</time>
  <course>185.67</course>
  <speed>0.0282842712474619</speed>
  <fix>3d</fix>
</trkpt>
<trkpt lat="33.810313" lon="-118.393866">
  <ele>-0.14</ele>
  <time>2026-09-01T01:12:21Z</time>
  <course>95.0</course>
  <speed>0.0</speed>
  <fix>3d</fix>
</trkpt>
<trkpt lat="33.8103132" lon="-118.3938662">
  <ele>-0.172</ele>
  <time>2026-09-01T01:12:21Z</time>
  <course>185.67</course>
  <speed>0.0282842712474619</speed>
  <fix>3d</fix>
</trkpt>
<trkpt lat="33.810313" lon="-118.393866">
  <ele>-0.15</ele>
  <time>2026-09-01T01:12:21Z</time>
  <course>95.0</course>
  <speed>0.0</speed>
  <fix>3d</fix>
</trkpt>
<trkpt lat="33.8103132" lon="-118.3938662">
  <ele>-0.175</ele>
  <time>2026-09-01T01:12:21Z</time>
  <course>185.67</course>
  <speed>0.0282842712474619</speed>
  <fix>3d</fix>
</trkpt>
<trkpt lat="33.810313" lon="-118.393866">
  <ele>-0.15</ele>
  <time>2026-09-01T01:12:21Z</time>
  <course>95.0</course>
  <speed>0.0</speed>
  <fix>3d</fix>
</trkpt>
<trkpt lat="33.8103132" lon="-118.3938662">
  <ele>-0.178</ele>
  <time>2026-09-01T01:12:21Z</time>
  <course>185.67</course>
  <speed>0.0282842712474619</speed>
  <fix>3d</fix>
</trkpt>
<trkpt lat="33.810313" lon="-118.393866">
  <ele>-0.16</ele>
  <time>2026-09-01T01:12:21Z</time>
  <course>95.0</course>
  <speed>0.0</speed>
  <fix>3d</fix>
</trkpt>
<trkpt lat="33.4368002" lon="-117.0859339">
  <ele>-0.11</ele>
  <time>2026-09-01T01:12:21Z</time>
  <course>0.0</course>
  <speed>0.0</speed>
  <fix>3d</fix>
</trkpt>
<trkpt lat="33.4368002" lon="-117.0859339">
  <ele>-0.11</ele>
  <time>2026-09-01T01:12:21Z</time>
  <course>0.0</course>
  <speed>0.0</speed>
  <fix>3d</fix>
</trkpt>
<trkpt lat="33.810313" lon="-118.393867">
  <ele>0.0</ele>
  <time>2026-09-01T01:12:21Z</time>
  <course>173.5</course>
  <speed>0.0</speed>
  <fix>3d</fix>
</trkpt>
<trkpt lat="33.810313" lon="-118.393867">
  <ele>-0.11</ele>
  <time>2026-09-01T01:12:21Z</time>
  <course>0.0</course>
  <speed>0.0</speed>
  <fix>3d</fix>
</trkpt>
<trkpt lat="33.810313" lon="-118.393867">
  <ele>0.0</ele>
  <time>2026-09-01T01:12:21Z</time>
  <course>173.61</course>
  <speed>0.0</speed>
  <fix>3d</fix>
</trkpt>
<trkpt lat="33.810313" lon="-118.393867">
  <ele>-0.11</ele>
  <time>2026-09-01T01:12:21Z</time>
  <course>0.0</course>
  <speed>0.0</speed>
  <fix>3d</fix>
</trkpt>
<trkpt lat="33.810313" lon="-118.393867">
  <ele>0.0</ele>
  <time>2026-09-01T01:12:21Z</time>
  <course>173.98</course>
  <speed>0.0</speed>
  <fix>3d</fix>
</trkpt>
<trkpt lat="33.810313" lon="-118.393867">
  <ele>-0.11</ele>
  <time>2026-09-01T01:12:21Z</time>
  <course>0.0</course>
  <speed>0.0</speed>
  <fix>3d</fix>
</trkpt>
<trkpt lat="33.810313" lon="-118.393867">
  <ele>0.0</ele>
  <time>2026-09-01T01:12:21Z</time>
  <course>174.51</course>
  <speed>0.0</speed>
  <fix>3d</fix>
</trkpt>
<trkpt lat="33.810313" lon="-118.393867">
  <ele>-0.11</ele>
  <time>2026-09-01T01:12:21Z</time>
  <course>0.0</course>
  <speed>0.0</speed>
  <fix>3d</fix>
</trkpt>
<trkpt lat="33.810313" lon="-118.393867">
  <ele>0.0</ele>
  <time>2026-09-01T01:12:21Z</time>
  <course>175.07</course>
  <speed>0.0</speed>
  <fix>3d</fix>
</trkpt>
<trkpt lat="33.810313" lon="-118.393867">
  <ele>-0.12</ele>
  <time>2026-09-01T01:12:21Z</time>
  <course>0.0</course>
  <speed>0.0</speed>
  <fix>3d</fix>
</trkpt>
<trkpt lat="33.810313" lon="-118.393867">
  <ele>0.0</ele>
  <time>2026-09-01T01:12:21Z</time>
  <course>175.61</course>
  <speed>0.0</speed>
  <fix>3d</fix>
</trkpt>
<trkpt lat="33.810313" lon="-118.393867">
  <ele>-0.12</ele>
  <time>2026-09-01T01:12:21Z</time>
  <course>0.0</course>
  <speed>0.0</speed>
  <fix>3d</fix>
</trkpt>
<trkpt lat="33.810313" lon="-118.393867">
  <ele>0.0</ele>
  <time>2026-09-01T01:12:21Z</time>
  <course>176.12</course>
  <speed>0.0</speed>
  <fix>3d</fix>
</trkpt>
<trkpt lat="33.810313" lon="-118.393867">
  <ele>-0.13</ele>
  <time>2026-09-01T01:12:21Z</time>
  <course>0.0</course>
  <speed>0.0</speed>
  <fix>3d</fix>
</trkpt>
<trkpt lat="33.810313" lon="-118.393867">
  <ele>0.0</ele>
  <time>2026-09-01T01:12:21Z</time>
  <course>176.6</course>
  <speed>0.0</speed>
  <fix>3d</fix>
</trkpt>
<trkpt lat="33.810313" lon="-118.393867">
  <ele>-0.13</ele>
  <time>2026-09-01T01:12:21Z</time>
  <course>0.0</course>
  <speed>0.0</speed>
  <fix>3d</fix>
</trkpt>
<trkpt lat="33.810313" lon="-118.393867">
  <ele>0.0</ele>
  <time>2026-09-01T01:12:21Z</time>
  <course>177.07</course>
  <speed>0.0</speed>
  <fix>3d</fix>
</trkpt>
<trkpt lat="33.810313" lon="-118.393867">
  <ele>-0.13</ele>
  <time>2026-09-01T01:12:21Z</time>
  <course>0.0</course>
  <speed>0.0</speed>
  <fix>3d</fix>
</trkpt>
<trkpt lat="33.810313" lon="-118.393867">
  <ele>0.0</ele>
  <time>2026-09-01T01:12:21Z</time>
  <course>177.53</course>
  <speed>0.0</speed>
  <fix>3d</fix>
</trkpt>
<trkpt lat="33.810313" lon="-118.393867">
  <ele>-0.13</ele>
  <time>2026-09-01T01:12:21Z</time>
  <course>0.0</course>
  <speed>0.0</speed>
  <fix>3d</fix>
</trkpt>
<trkpt lat="33.810313" lon="-118.393867">
  <ele>0.0</ele>
  <time>2026-09-01T01:12:21Z</time>
  <course>177.97</course>
  <speed>0.0</speed>
  <fix>3d</fix>
</trkpt>
<trkpt lat="33.810313" lon="-118.393867">
  <ele>-0.14</ele>
  <time>2026-09-01T01:12:21Z</time>
  <course>0.0</course>
  <speed>0.0</speed>
  <fix>3d</fix>
</trkpt>
<trkpt lat="33.810313" lon="-118.393867">
  <ele>0.0</ele>
  <time>2026-09-01T01:12:21Z</time>
  <course>178.4</course>
  <speed>0.0</speed>
  <fix>3d</fix>
</trkpt>
<trkpt lat="33.810313" lon="-118.393867">
  <ele>-0.14</ele>
  <time>2026-09-01T01:12:21Z</time>
  <course>0.0</course>
  <speed>0.0</speed>
  <fix>3d</fix>
</trkpt>
<trkpt lat="33.810313" lon="-118.393867">
  <ele>0.0</ele>
  <time>2026-09-01T01:12:21Z</time>
  <course>178.83</course>
  <speed>0.0</speed>
  <fix>3d</fix>
</trkpt>
<trkpt lat="33.810313" lon="-118.393867">
  <ele>-0.14</ele>
  <time>2026-09-01T01:12:21Z</time>
  <course>0.0</course>
  <speed>0.0</speed>
  <fix>3d</fix>
</trkpt>
<trkpt lat="33.810313" lon="-118.393867">
  <ele>0.0</ele>
  <time>2026-09-01T01:12:21Z</time>
  <course>179.23</course>
  <speed>0.0</speed>
  <fix>3d</fix>
</trkpt>
<trkpt lat="33.810313" lon="-118.393867">
  <ele>-0.14</ele>
  <time>2026-09-01T01:12:21Z</time>
  <course>0.0</course>
  <speed>0.0</speed>
  <fix>3d</fix>
</trkpt>
<trkpt lat="33.810313" lon="-118.393867">
  <ele>0.0</ele>
  <time>2026-09-01T01:12:21Z</time>
  <course>179.62</course>
  <speed>0.0</speed>
  <fix>3d</fix>
</trkpt>
<trkpt lat="33.810313" lon="-118.393867">
  <ele>-0.14</ele>
  <time>2026-09-01T01:12:21Z</time>
  <course>0.0</course>
  <speed>0.0</speed>
  <fix>3d</fix>
</trkpt>
<trkpt lat="33.810313" lon="-118.393867">
  <ele>0.0</ele>
  <time>2026-09-01T01:12:21Z</time>
  <course>180.01</course>
  <speed>0.0</speed>
  <fix>3d</fix>
</trkpt>
<trkpt lat="33.810313" lon="-118.393867">
  <ele>-0.14</ele>
  <time>2026-09-01T01:12:21Z</time>
  <course>0.0</course>
  <speed>0.0</speed>
  <fix>3d</fix>
</trkpt>
<trkpt lat="33.810313" lon="-118.393867">
  <ele>0.0</ele>
  <time>2026-09-01T01:12:21Z</time>
  <course>180.37</course>
  <speed>0.0</speed>
  <fix>3d</fix>
</trkpt>
<trkpt lat="33.810313" lon="-118.393867">
  <ele>-0.14</ele>
  <time>2026-09-01T01:12:21Z</time>
  <course>0.0</course>
  <speed>0.0</speed>
  <fix>3d</fix>
</trkpt>
<trkpt lat="33.810313" lon="-118.393867">
  <ele>0.0</ele>
  <time>2026-09-01T01:12:21Z</time>
  <course>180.73</course>
  <speed>0.0</speed>
  <fix>3d</fix>
</trkpt>
<trkpt lat="33.810313" lon="-118.393867">
  <ele>-0.14</ele>
  <time>2026-09-01T01:12:21Z</time>
  <course>0.0</course>
  <speed>0.0</speed>
  <fix>3d</fix>
</trkpt>
<trkpt lat="33.810313" lon="-118.393867">
  <ele>0.0</ele>
  <time>2026-09-01T01:12:21Z</time>
  <course>181.07</course>
  <speed>0.0</speed>
  <fix>3d</fix>
</trkpt>
<trkpt lat="33.810313" lon="-118.393867">
  <ele>-0.13</ele>
  <time>2026-09-01T01:12:21Z</time>
  <course>0.0</course>
  <speed>0.0</speed>
  <fix>3d</fix>
</trkpt>
<trkpt lat="33.810313" lon="-118.393867">
  <ele>0.0</ele>
  <time>2026-09-01T01:12:21Z</time>
  <course>181.4</course>
  <speed>0.0</speed>
  <fix>3d</fix>
</trkpt>
<trkpt lat="33.810313" lon="-118.393867">
  <ele>-0.13</ele>
  <time>2026-09-01T01:12:21Z</time>
  <course>0.0</course>
  <speed>0.0</speed>
  <fix>3d</fix>
</trkpt>
<trkpt lat="33.810313" lon="-118.393867">
  <ele>0.0</ele>
  <time>2026-09-01T01:12:21Z</time>
  <course>181.72</course>
  <speed>0.0</speed>
  <fix>3d</fix>
</trkpt>
<trkpt lat="33.810313" lon="-118.393867">
  <ele>-0.12</ele>
  <time>2026-09-01T01:12:21Z</time>
  <course>0.0</course>
  <speed>0.0</speed>
  <fix>3d</fix>
</trkpt>
<trkpt lat="33.810313" lon="-118.393867">
  <ele>0.0</ele>
  <time>2026-09-01T01:12:21Z</time>
  <course>182.02</course>
  <speed>0.0</speed>
  <fix>3d</fix>
</trkpt>
<trkpt lat="33.810313" lon="-118.393867">
  <ele>-0.12</ele>
  <time>2026-09-01T01:12:21Z</time>
  <course>0.0</course>
  <speed>0.0</speed>
  <fix>3d</fix>
</trkpt>
<trkpt lat="33.810313" lon="-118.393867">
  <ele>0.0</ele>
  <time>2026-09-01T01:12:21Z</time>
  <course>182.32</course>
  <speed>0.0</speed>
  <fix>3d</fix>
</trkpt>
<trkpt lat="33.810313" lon="-118.393867">
  <ele>-0.12</ele>
  <time>2026-09-01T01:12:21Z</time>
  <course>0.0</course>
  <speed>0.0</speed>
  <fix>3d</fix>
</trkpt>
<trkpt lat="33.810313" lon="-118.393867">
  <ele>0.0</ele>
  <time>2026-09-01T01:12:21Z</time>
  <course>182.6</course>
  <speed>0.0</speed>
  <fix>3d</fix>
</trkpt>
<trkpt lat="33.810313" lon="-118.393867">
  <ele>-0.12</ele>
  <time>2026-09-01T01:12:21Z</time>
  <course>0.0</course>
  <speed>0.0</speed>
  <fix>3d</fix>
</trkpt>
<trkpt lat="33.810313" lon="-118.393867">
  <ele>0.0</ele>
  <time>2026-09-01T01:12:21Z</time>
  <course>182.87</course>
  <speed>0.0</speed>
  <fix>3d</fix>
</trkpt>
<trkpt lat="33.810313" lon="-118.393867">
  <ele>-0.11</ele>
  <time>2026-09-01T01:12:21Z</time>
  <course>0.0</course>
  <speed>0.0</speed>
  <fix>3d</fix>
</trkpt>
<trkpt lat="33.810313" lon="-118.393867">
  <ele>0.0</ele>
  <time>2026-09-01T01:12:21Z</time>
  <course>183.14</course>
  <speed>0.0</speed>
  <fix>3d</fix>
</trkpt>
<trkpt lat="33.810313" lon="-118.393867">
  <ele>-0.11</ele>
  <time>2026-09-01T01:12:21Z</time>
  <course>0.0</course>
  <speed>0.0</speed>
  <fix>3d</fix>
</trkpt>
<trkpt lat="33.810313" lon="-118.393867">
  <ele>0.0</ele>
  <time>2026-09-01T01:12:21Z</time>
  <course>183.39</course>
  <speed>0.0</speed>
  <fix>3d</fix>
</trkpt>
<trkpt lat="33.810313" lon="-118.393867">
  <ele>-0.11</ele>
  <time>2026-09-01T01:12:21Z</time>
  <course>0.0</course>
  <speed>0.0</speed>
  <fix>3d</fix>
</trkpt>
<trkpt lat="33.810313" lon="-118.393867">
  <ele>0.0</ele>
  <time>2026-09-01T01:12:21Z</time>
  <course>183.63</course>
  <speed>0.0</speed>
  <fix>3d</fix>
</trkpt>
<trkpt lat="33.810313" lon="-118.393867">
  <ele>-0.11</ele>
  <time>2026-09-01T01:12:21Z</time>
  <course>0.0</course>
  <speed>0.0</speed>
  <fix>3d</fix>
</trkpt>
<trkpt lat="33.810313" lon="-118.393867">
  <ele>0.0</ele>
  <time>2026-09-01T01:12:21Z</time>
  <course>183.86</course>
  <speed>0.0</speed>
  <fix>3d</fix>
</trkpt>
<trkpt lat="33.810313" lon="-118.393867">
  <ele>-0.12</ele>
  <time>2026-09-01T01:12:21Z</time>
  <course>0.0</course>
  <speed>0.0</speed>
  <fix>3d</fix>
</trkpt>
<trkpt lat="33.810313" lon="-118.393867">
  <ele>0.0</ele>
  <time>2026-09-01T01:12:21Z</time>
  <course>184.08</course>
  <speed>0.0</speed>
  <fix>3d</fix>
</trkpt>
<trkpt lat="33.810313" lon="-118.393867">
  <ele>-0.12</ele>
  <time>2026-09-01T01:12:21Z</time>
  <course>0.0</course>
  <speed>0.0</speed>
  <fix>3d</fix>
</trkpt>
<trkpt lat="33.810313" lon="-118.393867">
  <ele>0.0</ele>
  <time>2026-09-01T01:12:21Z</time>
  <course>184.3</course>
  <speed>0.0</speed>
  <fix>3d</fix>
</trkpt>
<trkpt lat="33.810313" lon="-118.393867">
  <ele>-0.13</ele>
  <time>2026-09-01T01:12:21Z</time>
  <course>0.0</course>
  <speed>0.0</speed>
  <fix>3d</fix>
</trkpt>
<trkpt lat="33.810313" lon="-118.393867">
  <ele>0.0</ele>
  <time>2026-09-01T01:12:21Z</time>
  <course>184.5</course>
  <speed>0.0</speed>
  <fix>3d</fix>
</trkpt>
<trkpt lat="33.810313" lon="-118.393867">
  <ele>-0.13</ele>
  <time>2026-09-01T01:12:21Z</time>
  <course>0.0</course>
  <speed>0.0</speed>
  <fix>3d</fix>
</trkpt>
<trkpt lat="33.810313" lon="-118.393867">
  <ele>0.0</ele>
  <time>2026-09-01T01:12:21Z</time>
  <course>184.7</course>
  <speed>0.0</speed>
  <fix>3d</fix>
</trkpt>
<trkpt lat="33.810313" lon="-118.393867">
  <ele>-0.13</ele>
  <time>2026-09-01T01:12:21Z</time>
  <course>0.0</course>
  <speed>0.0</speed>
  <fix>3d</fix>
</trkpt>
<trkpt lat="33.810313" lon="-118.393867">
  <ele>0.0</ele>
  <time>2026-09-01T01:12:21Z</time>
  <course>184.89</course>
  <speed>0.0</speed>
  <fix>3d</fix>
</trkpt>
<trkpt lat="33.810313" lon="-118.393867">
  <ele>-0.13</ele>
  <time>2026-09-01T01:12:21Z</time>
  <course>0.0</course>
  <speed>0.0</speed>
  <fix>3d</fix>
</trkpt>
<trkpt lat="33.810313" lon="-118.393867">
  <ele>0.0</ele>
  <time>2026-09-01T01:12:21Z</time>
  <course>185.07</course>
  <speed>0.0</speed>
  <fix>3d</fix>
</trkpt>
<trkpt lat="33.810313" lon="-118.393867">
  <ele>-0.14</ele>
  <time>2026-09-01T01:12:21Z</time>
  <course>0.0</course>
  <speed>0.0</speed>
  <fix>3d</fix>
</trkpt>
<trkpt lat="33.810313" lon="-118.393867">
  <ele>0.0</ele>
  <time>2026-09-01T01:12:21Z</time>
  <course>185.24</course>
  <speed>0.0</speed>
  <fix>3d</fix>
</trkpt>
<trkpt lat="33.810313" lon="-118.393867">
  <ele>-0.14</ele>
  <time>2026-09-01T01:12:21Z</time>
  <course>0.0</course>
  <speed>0.0</speed>
  <fix>3d</fix>
</trkpt>
<trkpt lat="33.810313" lon="-118.393867">
  <ele>0.0</ele>
  <time>2026-09-01T01:12:21Z</time>
  <course>185.41</course>
  <speed>0.0</speed>
  <fix>3d</fix>
</trkpt>
<trkpt lat="33.810313" lon="-118.393867">
  <ele>-0.13</ele>
  <time>2026-09-01T01:12:21Z</time>
  <course>0.0</course>
  <speed>0.0</speed>
  <fix>3d</fix>
</trkpt>
<trkpt lat="33.810313" lon="-118.393867">
  <ele>0.0</ele>
  <time>2026-09-01T01:12:21Z</time>
  <course>185.56</course>
  <speed>0.0</speed>
  <fix>3d</fix>
</trkpt>
<trkpt lat="33.810313" lon="-118.393867">
  <ele>-0.13</ele>
  <time>2026-09-01T01:12:21Z</time>
  <course>0.0</course>
  <speed>0.0</speed>
  <fix>3d</fix>
</trkpt>
<trkpt lat="33.810313" lon="-118.393867">
  <ele>0.0</ele>
  <time>2026-09-01T01:12:21Z</time>
  <course>185.72</course>
  <speed>0.0</speed>
  <fix>3d</fix>
</trkpt>
<trkpt lat="33.810313" lon="-118.393867">
  <ele>-0.13</ele>
  <time>2026-09-01T01:12:21Z</time>
  <course>0.0</course>
  <speed>0.0</speed>
  <fix>3d</fix>
</trkpt>
<trkpt lat="33.810313" lon="-118.393867">
  <ele>0.0</ele>
  <time>2026-09-01T01:12:21Z</time>
  <course>185.86</course>
  <speed>0.0</speed>
  <fix>3d</fix>
</trkpt>
<trkpt lat="33.810313" lon="-118.393867">
  <ele>-0.13</ele>
  <time>2026-09-01T01:12:21Z</time>
  <course>0.0</course>
  <speed>0.0</speed>
  <fix>3d</fix>
</trkpt>
<trkpt lat="33.810313" lon="-118.393867">
  <ele>0.0</ele>
  <time>2026-09-01T01:12:21Z</time>
  <course>186.0</course>
  <speed>0.0</speed>
  <fix>3d</fix>
</trkpt>
<trkpt lat="33.810313" lon="-118.393867">
  <ele>-0.12</ele>
  <time>2026-09-01T01:12:21Z</time>
  <course>0.0</course>
  <speed>0.0</speed>
  <fix>3d</fix>
</trkpt>
<trkpt lat="33.810313" lon="-118.393867">
  <ele>0.0</ele>
  <time>2026-09-01T01:12:22Z</time>
  <course>186.13</course>
  <speed>0.0</speed>
  <fix>3d</fix>
</trkpt>
<trkpt lat="33.810313" lon="-118.393867">
  <ele>-0.12</ele>
  <time>2026-09-01T01:12:22Z</time>
  <course>0.0</course>
  <speed>0.0</speed>
  <fix>3d</fix>
</trkpt>
<trkpt lat="33.810313" lon="-118.393867">
  <ele>0.0</ele>
  <time>2026-09-01T01:12:22Z</time>
  <course>186.26</course>
  <speed>0.0</speed>
  <fix>3d</fix>
</trkpt>
<trkpt lat="33.810313" lon="-118.393867">
  <ele>-0.12</ele>
  <time>2026-09-01T01:12:22Z</time>
  <course>0.0</course>
  <speed>0.0</speed>
  <fix>3d</fix>
</trkpt>
<trkpt lat="33.810313" lon="-118.393867">
  <ele>0.0</ele>
  <time>2026-09-01T01:12:22Z</time>
  <course>186.38</course>
  <speed>0.0</speed>
  <fix>3d</fix>
</trkpt>
<trkpt lat="33.810313" lon="-118.393867">
  <ele>-0.12</ele>
  <time>2026-09-01T01:12:22Z</time>
  <course>0.0</course>
  <speed>0.0</speed>
  <fix>3d</fix>
</trkpt>
<trkpt lat="33.810313" lon="-118.393867">
  <ele>0.0</ele>
  <time>2026-09-01T01:12:22Z</time>
  <course>186.49</course>
  <speed>0.0</speed>
  <fix>3d</fix>
</trkpt>
<trkpt lat="33.810313" lon="-118.393867">
  <ele>-0.12</ele>
  <time>2026-09-01T01:12:22Z</time>
  <course>0.0</course>
  <speed>0.0</speed>
  <fix>3d</fix>
</trkpt>
<trkpt lat="33.810313" lon="-118.393867">
  <ele>0.0</ele>
  <time>2026-09-01T01:12:22Z</time>
  <course>186.6</course>
  <speed>0.0</speed>
  <fix>3d</fix>
</trkpt>
<trkpt lat="33.810313" lon="-118.393867">
  <ele>-0.12</ele>
  <time>2026-09-01T01:12:22Z</time>
  <course>0.0</course>
  <speed>0.0</speed>
  <fix>3d</fix>
</trkpt>
<trkpt lat="33.810313" lon="-118.393867">
  <ele>0.0</ele>
  <time>2026-09-01T01:12:22Z</time>
  <course>186.71</course>
  <speed>0.0</speed>
  <fix>3d</fix>
</trkpt>
<trkpt lat="33.810313" lon="-118.393867">
  <ele>-0.12</ele>
  <time>2026-09-01T01:12:22Z</time>
  <course>0.0</course>
  <speed>0.0</speed>
  <fix>3d</fix>
</trkpt>
<trkpt lat="33.810313" lon="-118.393867">
  <ele>0.0</ele>
  <time>2026-09-01T01:12:22Z</time>
  <course>186.81</course>
  <speed>0.0</speed>
  <fix>3d</fix>
</trkpt>
<trkpt lat="33.810313" lon="-118.393867">
  <ele>-0.12</ele>
  <time>2026-09-01T01:12:22Z</time>
  <course>0.0</course>
  <speed>0.0</speed>
  <fix>3d</fix>
</trkpt>
<trkpt lat="33.810313" lon="-118.393867">
  <ele>0.0</ele>
  <time>2026-09-01T01:12:22Z</time>
  <course>186.9</course>
  <speed>0.0</speed>
  <fix>3d</fix>
</trkpt>
<trkpt lat="33.810313" lon="-118.393867">
  <ele>-0.12</ele>
  <time>2026-09-01T01:12:22Z</time>
  <course>0.0</course>
  <speed>0.0</speed>
  <fix>3d</fix>
</trkpt>
<trkpt lat="33.810313" lon="-118.393867">
  <ele>0.0</ele>
  <time>2026-09-01T01:12:22Z</time>
  <course>187.0</course>
  <speed>0.0</speed>
  <fix>3d</fix>
</trkpt>
<trkpt lat="33.810313" lon="-118.393867">
  <ele>-0.12</ele>
  <time>2026-09-01T01:12:22Z</time>
  <course>0.0</course>
  <speed>0.0</speed>
  <fix>3d</fix>
</trkpt>
<trkpt lat="33.810313" lon="-118.393867">
  <ele>0.0</ele>
  <time>2026-09-01T01:12:22Z</time>
  <course>187.08</course>
  <speed>0.0</speed>
  <fix>3d</fix>
</trkpt>
<trkpt lat="33.810313" lon="-118.393867">
  <ele>-0.13</ele>
  <time>2026-09-01T01:12:22Z</time>
  <course>0.0</course>
  <speed>0.0</speed>
  <fix>3d</fix>
</trkpt>
<trkpt lat="33.810313" lon="-118.393867">
  <ele>0.0</ele>
  <time>2026-09-01T01:12:22Z</time>
  <course>187.17</course>
  <speed>0.0</speed>
  <fix>3d</fix>
</trkpt>
<trkpt lat="33.810313" lon="-118.393867">
  <ele>-0.13</ele>
  <time>2026-09-01T01:12:22Z</time>
  <course>0.0</course>
  <speed>0.0</speed>
  <fix>3d</fix>
</trkpt>
<trkpt lat="33.810313" lon="-118.393867">
  <ele>0.0</ele>
  <time>2026-09-01T01:12:22Z</time>
  <course>187.24</course>
  <speed>0.0</speed>
  <fix>3d</fix>
</trkpt>
<trkpt lat="33.810313" lon="-118.393867">
  <ele>-0.13</ele>
  <time>2026-09-01T01:12:22Z</time>
  <course>0.0</course>
  <speed>0.0</speed>
  <fix>3d</fix>
</trkpt>
<trkpt lat="33.810313" lon="-118.393867">
  <ele>0.0</ele>
  <time>2026-09-01T01:12:22Z</time>
  <course>187.32</course>
  <speed>0.0</speed>
  <fix>3d</fix>
</trkpt>
<trkpt lat="33.810313" lon="-118.393867">
  <ele>-0.13</ele>
  <time>2026-09-01T01:12:22Z</time>
  <course>0.0</course>
  <speed>0.0</speed>
  <fix>3d</fix>
</trkpt>
<trkpt lat="33.810313" lon="-118.393867">
  <ele>0.0</ele>
  <time>2026-09-01T01:12:22Z</time>
  <course>187.39</course>
  <speed>0.0</speed>
  <fix>3d</fix>
</trkpt>
<trkpt lat="33.810313" lon="-118.393867">
  <ele>-0.13</ele>
  <time>2026-09-01T01:12:22Z</time>
  <course>0.0</course>
  <speed>0.0</speed>
  <fix>3d</fix>
</trkpt>
<trkpt lat="33.810313" lon="-118.393867">
  <ele>0.0</ele>
  <time>2026-09-01T01:12:22Z</time>
  <course>187.46</course>
  <speed>0.0</speed>
  <fix>3d</fix>
</trkpt>
<trkpt lat="33.810313" lon="-118.393867">
  <ele>-0.13</ele>
  <time>2026-09-01T01:12:22Z</time>
  <course>0.0</course>
  <speed>0.0</speed>
  <fix>3d</fix>
</trkpt>
<trkpt lat="33.810313" lon="-118.393867">
  <ele>0.0</ele>
  <time>2026-09-01T01:12:22Z</time>
  <course>187.53</course>
  <speed>0.0</speed>
  <fix>3d</fix>
</trkpt>
<trkpt lat="33.810313" lon="-118.393867">
  <ele>-0.13</ele>
  <time>2026-09-01T01:12:22Z</time>
  <course>0.0</course>
  <speed>0.0</speed>
  <fix>3d</fix>
</trkpt>
<trkpt lat="33.810313" lon="-118.393867">
  <ele>0.0</ele>
  <time>2026-09-01T01:12:22Z</time>
  <course>187.59</course>
  <speed>0.0</speed>
  <fix>3d</fix>
</trkpt>
<trkpt lat="33.810313" lon="-118.393867">
  <ele>-0.13</ele>
  <time>2026-09-01T01:12:22Z</time>
  <course>0.0</course>
  <speed>0.0</speed>
  <fix>3d</fix>
</trkpt>
<trkpt lat="33.810313" lon="-118.393867">
  <ele>0.0</ele>
  <time>2026-09-01T01:12:22Z</time>
  <course>187.65</course>
  <speed>0.0</speed>
  <fix>3d</fix>
</trkpt>
<trkpt lat="33.810313" lon="-118.393867">
  <ele>-0.12</ele>
  <time>2026-09-01T01:12:22Z</time>
  <course>0.0</course>
  <speed>0.0</speed>
  <fix>3d</fix>
</trkpt>
<trkpt lat="33.810313" lon="-118.393867">
  <ele>0.0</ele>
  <time>2026-09-01T01:12:22Z</time>
  <course>187.7</course>
  <speed>0.0</speed>
  <fix>3d</fix>
</trkpt>
<trkpt lat="33.810313" lon="-118.393867">
  <ele>-0.12</ele>
  <time>2026-09-01T01:12:22Z</time>
  <course>0.0</course>
  <speed>0.0</speed>
  <fix>3d</fix>
</trkpt>
<trkpt lat="33.810313" lon="-118.393867">
  <ele>0.0</ele>
  <time>2026-09-01T01:12:22Z</time>
  <course>187.76</course>
  <speed>0.0</speed>
  <fix>3d</fix>
</trkpt>
<trkpt lat="33.810313" lon="-118.393867">
  <ele>-0.12</ele>
  <time>2026-09-01T01:12:22Z</time>
  <course>0.0</course>
  <speed>0.0</speed>
  <fix>3d</fix>
</trkpt>
<trkpt lat="33.810313" lon="-118.393867">
  <ele>0.0</ele>
  <time>2026-09-01T01:12:22Z</time>
  <course>187.81</course>
  <speed>0.0</speed>
  <fix>3d</fix>
</trkpt>
<trkpt lat="33.810313" lon="-118.393867">
  <ele>-0.12</ele>
  <time>2026-09-01T01:12:22Z</time>
  <course>0.0</course>
  <speed>0.0</speed>
  <fix>3d</fix>
</trkpt>
<trkpt lat="33.810313" lon="-118.393867">
  <ele>0.0</ele>
  <time>2026-09-01T01:12:22Z</time>
  <course>187.86</course>
  <speed>0.0</speed>
  <fix>3d</fix>
</trkpt>
<trkpt lat="33.810313" lon="-118.393867">
  <ele>-0.12</ele>
  <time>2026-09-01T01:12:22Z</time>
  <course>0.0</course>
  <speed>0.0</speed>
  <fix>3d</fix>
</trkpt>
<trkpt lat="33.810313" lon="-118.393867">
  <ele>0.0</ele>
  <time>2026-09-01T01:12:22Z</time>
  <course>187.9</course>
  <speed>0.0</speed>
  <fix>3d</fix>
</trkpt>
<trkpt lat="33.810313" lon="-118.393867">
  <ele>-0.12</ele>
  <time>2026-09-01T01:12:22Z</time>
  <course>0.0</course>
  <speed>0.0</speed>
  <fix>3d</fix>
</trkpt>
<trkpt lat="33.810313" lon="-118.393867">
  <ele>0.0</ele>
  <time>2026-09-01T01:12:22Z</time>
  <course>187.94</course>
  <speed>0.0</speed>
  <fix>3d</fix>
</trkpt>
<trkpt lat="33.810313" lon="-118.393867">
  <ele>-0.12</ele>
  <time>2026-09-01T01:12:22Z</time>
  <course>0.0</course>
  <speed>0.0</speed>
  <fix>3d</fix>
</trkpt>
<trkpt lat="33.810313" lon="-118.393867">
  <ele>0.0</ele>
  <time>2026-09-01T01:12:22Z</time>
  <course>187.99</course>
  <speed>0.0</speed>
  <fix>3d</fix>
</trkpt>
<trkpt lat="33.810313" lon="-118.393867">
  <ele>-0.12</ele>
  <time>2026-09-01T01:12:22Z</time>
  <course>0.0</course>
  <speed>0.0</speed>
  <fix>3d</fix>
</trkpt>
<trkpt lat="33.810313" lon="-118.393867">
  <ele>0.0</ele>
  <time>2026-09-01T01:12:22Z</time>
  <course>188.02</course>
  <speed>0.0</speed>
  <fix>3d</fix>
</trkpt>
<trkpt lat="33.810313" lon="-118.393867">
  <ele>-0.12</ele>
  <time>2026-09-01T01:12:22Z</time>
  <course>0.0</course>
  <speed>0.0</speed>
  <fix>3d</fix>
</trkpt>
<trkpt lat="33.810313" lon="-118.393867">
  <ele>0.0</ele>
  <time>2026-09-01T01:12:22Z</time>
  <course>188.06</course>
  <speed>0.0</speed>
  <fix>3d</fix>
</trkpt>
<trkpt lat="33.810313" lon="-118.393867">
  <ele>-0.12</ele>
  <time>2026-09-01T01:12:22Z</time>
  <course>0.0</course>
  <speed>0.0</speed>
  <fix>3d</fix>
</trkpt>
<trkpt lat="33.810313" lon="-118.393867">
  <ele>0.0</ele>
  <time>2026-09-01T01:12:22Z</time>
  <course>188.1</course>
  <speed>0.0</speed>
  <fix>3d</fix>
</trkpt>
<trkpt lat="33.810313" lon="-118.393867">
  <ele>-0.13</ele>
  <time>2026-09-01T01:12:22Z</time>
  <course>0.0</course>
  <speed>0.0</speed>
  <fix>3d</fix>
</trkpt>
<trkpt lat="33.810313" lon="-118.393867">
  <ele>0.0</ele>
  <time>2026-09-01T01:12:22Z</time>
  <course>188.13</course>
  <speed>0.0</speed>
  <fix>3d</fix>
</trkpt>
<trkpt lat="33.810313" lon="-118.393867">
  <ele>-0.13</ele>
  <time>2026-09-01T01:12:22Z</time>
  <course>0.0</course>
  <speed>0.0</speed>
  <fix>3d</fix>
</trkpt>
<trkpt lat="33.810313" lon="-118.393867">
  <ele>0.0</ele>
  <time>2026-09-01T01:12:22Z</time>
  <course>188.16</course>
  <speed>0.0</speed>
  <fix>3d</fix>
</trkpt>
<trkpt lat="33.810313" lon="-118.393867">
  <ele>-0.13</ele>
  <time>2026-09-01T01:12:22Z</time>
  <course>0.0</course>
  <speed>0.0</speed>
  <fix>3d</fix>
</trkpt>
<trkpt lat="33.810313" lon="-118.393867">
  <ele>0.0</ele>
  <time>2026-09-01T01:12:22Z</time>
  <course>188.19</course>
  <speed>0.0</speed>
  <fix>3d</fix>
</trkpt>
<trkpt lat="33.810313" lon="-118.393867">
  <ele>-0.13</ele>
  <time>2026-09-01T01:12:22Z</time>
  <course>0.0</course>
  <speed>0.0</speed>
  <fix>3d</fix>
</trkpt>
<trkpt lat="33.810313" lon="-118.393867">
  <ele>0.0</ele>
  <time>2026-09-01T01:12:22Z</time>
  <course>188.22</course>
  <speed>0.0</speed>
  <fix>3d</fix>
</trkpt>
<trkpt lat="33.810313" lon="-118.393867">
  <ele>-0.13</ele>
  <time>2026-09-01T01:12:22Z</time>
  <course>0.0</course>
  <speed>0.0</speed>
  <fix>3d</fix>
</trkpt>
<trkpt lat="33.810313" lon="-118.393867">
  <ele>0.0</ele>
  <time>2026-09-01T01:12:22Z</time>
  <course>188.24</course>
  <speed>0.0</speed>
  <fix>3d</fix>
</trkpt>
<trkpt lat="33.810313" lon="-118.393867">
  <ele>-0.13</ele>
  <time>2026-09-01T01:12:22Z</time>
  <course>0.0</course>
  <speed>0.0</speed>
  <fix>3d</fix>
</trkpt>
<trkpt lat="33.810313" lon="-118.393867">
  <ele>0.0</ele>
  <time>2026-09-01T01:12:22Z</time>
  <course>188.27</course>
  <speed>0.0</speed>
  <fix>3d</fix>
</trkpt>
<trkpt lat="33.810313" lon="-118.393867">
  <ele>-0.12</ele>
  <time>2026-09-01T01:12:22Z</time>
  <course>0.0</course>
  <speed>0.0</speed>
  <fix>3d</fix>
</trkpt>
<trkpt lat="33.810313" lon="-118.393867">
  <ele>0.0</ele>
  <time>2026-09-01T01:12:22Z</time>
  <course>188.29</course>
  <speed>0.0</speed>
  <fix>3d</fix>
</trkpt>
<trkpt lat="33.810313" lon="-118.393867">
  <ele>-0.12</ele>
  <time>2026-09-01T01:12:22Z</time>
  <course>0.0</course>
  <speed>0.0</speed>
  <fix>3d</fix>
</trkpt>
<trkpt lat="33.810313" lon="-118.393867">
  <ele>0.0</ele>
  <time>2026-09-01T01:12:22Z</time>
  <course>188.32</course>
  <speed>0.0</speed>
  <fix>3d</fix>
</trkpt>
<trkpt lat="33.810313" lon="-118.393867">
  <ele>-0.12</ele>
  <time>2026-09-01T01:12:22Z</time>
  <course>0.0</course>
  <speed>0.0</speed>
  <fix>3d</fix>
</trkpt>
<trkpt lat="33.810313" lon="-118.393867">
  <ele>0.0</ele>
  <time>2026-09-01T01:12:22Z</time>
  <course>188.34</course>
  <speed>0.0</speed>
  <fix>3d</fix>
</trkpt>
<trkpt lat="33.810313" lon="-118.393867">
  <ele>-0.12</ele>
  <time>2026-09-01T01:12:22Z</time>
  <course>0.0</course>
  <speed>0.0</speed>
  <fix>3d</fix>
</trkpt>
<trkpt lat="33.810313" lon="-118.393867">
  <ele>0.0</ele>
  <time>2026-09-01T01:12:22Z</time>
  <course>188.36</course>
  <speed>0.0</speed>
  <fix>3d</fix>
</trkpt>
<trkpt lat="33.810313" lon="-118.393867">
  <ele>-0.12</ele>
  <time>2026-09-01T01:12:22Z</time>
  <course>0.0</course>
  <speed>0.0</speed>
  <fix>3d</fix>
</trkpt>
<trkpt lat="33.810313" lon="-118.393867">
  <ele>0.0</ele>
  <time>2026-09-01T01:12:22Z</time>
  <course>188.38</course>
  <speed>0.0</speed>
  <fix>3d</fix>
</trkpt>
<trkpt lat="33.810313" lon="-118.393867">
  <ele>-0.12</ele>
  <time>2026-09-01T01:12:22Z</time>
  <course>0.0</course>
  <speed>0.0</speed>
  <fix>3d</fix>
</trkpt>
<trkpt lat="33.810313" lon="-118.393867">
  <ele>0.0</ele>
  <time>2026-09-01T01:12:22Z</time>
  <course>188.39</course>
  <speed>0.0</speed>
  <fix>3d</fix>
</trkpt>
<trkpt lat="33.810313" lon="-118.393867">
  <ele>-0.12</ele>
  <time>2026-09-01T01:12:22Z</time>
  <course>0.0</course>
  <speed>0.0</speed>
  <fix>3d</fix>
</trkpt>
<trkpt lat="33.810313" lon="-118.393867">
  <ele>0.0</ele>
  <time>2026-09-01T01:12:22Z</time>
  <course>188.41</course>
  <speed>0.0</speed>
  <fix>3d</fix>
</trkpt>
<trkpt lat="33.810313" lon="-118.393867">
  <ele>-0.12</ele>
  <time>2026-09-01T01:12:22Z</time>
  <course>0.0</course>
  <speed>0.0</speed>
  <fix>3d</fix>
</trkpt>
<trkpt lat="33.810313" lon="-118.393867">
  <ele>0.0</ele>
  <time>2026-09-01T01:12:22Z</time>
  <course>188.42</course>
  <speed>0.0</speed>
  <fix>3d</fix>
</trkpt>
<trkpt lat="33.810313" lon="-118.393867">
  <ele>-0.12</ele>
  <time>2026-09-01T01:12:22Z</time>
  <course>0.0</course>
  <speed>0.0</speed>
  <fix>3d</fix>
</trkpt>
<trkpt lat="33.810313" lon="-118.393867">
  <ele>0.0</ele>
  <time>2026-09-01T01:12:22Z</time>
  <course>188.44</course>
  <speed>0.0</speed>
  <fix>3d</fix>
</trkpt>
<trkpt lat="33.810313" lon="-118.393867">
  <ele>-0.12</ele>
  <time>2026-09-01T01:12:22Z</time>
  <course>0.0</course>
  <speed>0.0</speed>
  <fix>3d</fix>
</trkpt>
<trkpt lat="33.810313" lon="-118.393867">
  <ele>0.0</ele>
  <time>2026-09-01T01:12:22Z</time>
  <course>188.45</course>
  <speed>0.0</speed>
  <fix>3d</fix>
</trkpt>
<trkpt lat="33.810313" lon="-118.393867">
  <ele>-0.13</ele>
  <time>2026-09-01T01:12:22Z</time>
  <course>0.0</course>
  <speed>0.0</speed>
  <fix>3d</fix>
</trkpt>
<trkpt lat="33.810313" lon="-118.393867">
  <ele>0.0</ele>
  <time>2026-09-01T01:12:22Z</time>
  <course>188.46</course>
  <speed>0.0</speed>
  <fix>3d</fix>
</trkpt>
<trkpt lat="33.810313" lon="-118.393867">
  <ele>-0.13</ele>
  <time>2026-09-01T01:12:22Z</time>
  <course>0.0</course>
  <speed>0.0</speed>
  <fix>3d</fix>
</trkpt>
<trkpt lat="33.810313" lon="-118.393867">
  <ele>0.0</ele>
  <time>2026-09-01T01:12:22Z</time>
  <course>188.47</course>
  <speed>0.0</speed>
  <fix>3d</fix>
</trkpt>
<trkpt lat="33.810313" lon="-118.393867">
  <ele>-0.13</ele>
  <time>2026-09-01T01:12:22Z</time>
  <course>0.0</course>
  <speed>0.0</speed>
  <fix>3d</fix>
</trkpt>
<trkpt lat="33.810313" lon="-118.393867">
  <ele>0.0</ele>
  <time>2026-09-01T01:12:22Z</time>
  <course>188.48</course>
  <speed>0.0</speed>
  <fix>3d</fix>
</trkpt>
<trkpt lat="33.810313" lon="-118.393867">
  <ele>-0.13</ele>
  <time>2026-09-01T01:12:22Z</time>
  <course>0.0</course>
  <speed>0.0</speed>
  <fix>3d</fix>
</trkpt>
<trkpt lat="33.810313" lon="-118.393867">
  <ele>0.0</ele>
  <time>2026-09-01T01:12:22Z</time>
  <course>188.49</course>
  <speed>0.0</speed>
  <fix>3d</fix>
</trkpt>
<trkpt lat="33.810313" lon="-118.393867">
  <ele>-0.13</ele>
  <time>2026-09-01T01:12:22Z</time>
  <course>0.0</course>
  <speed>0.0</speed>
  <fix>3d</fix>
</trkpt>
<trkpt lat="33.810313" lon="-118.393867">
  <ele>0.0</ele>
  <time>2026-09-01T01:12:22Z</time>
  <course>188.5</course>
  <speed>0.0</speed>
  <fix>3d</fix>
</trkpt>
<trkpt lat="33.810313" lon="-118.393867">
  <ele>-0.13</ele>
  <time>2026-09-01T01:12:22Z</time>
  <course>0.0</course>
  <speed>0.0</speed>
  <fix>3d</fix>
</trkpt>
<trkpt lat="33.810313" lon="-118.393867">
  <ele>0.0</ele>
  <time>2026-09-01T01:12:22Z</time>
  <course>188.51</course>
  <speed>0.0</speed>
  <fix>3d</fix>
</trkpt>
<trkpt lat="33.810313" lon="-118.393867">
  <ele>-0.12</ele>
  <time>2026-09-01T01:12:22Z</time>
  <course>0.0</course>
  <speed>0.0</speed>
  <fix>3d</fix>
</trkpt>
<trkpt lat="33.810313" lon="-118.393867">
  <ele>0.0</ele>
  <time>2026-09-01T01:12:22Z</time>
  <course>188.52</course>
  <speed>0.0</speed>
  <fix>3d</fix>
</trkpt>
<trkpt lat="33.810313" lon="-118.393867">
  <ele>-0.12</ele>
  <time>2026-09-01T01:12:22Z</time>
  <course>0.0</course>
  <speed>0.0</speed>
  <fix>3d</fix>
</trkpt>
<trkpt lat="33.810313" lon="-118.393867">
  <ele>0.0</ele>
  <time>2026-09-01T01:12:22Z</time>
  <course>188.53</course>
  <speed>0.0</speed>
  <fix>3d</fix>
</trkpt>
<trkpt lat="33.810313" lon="-118.393867">
  <ele>-0.12</ele>
  <time>2026-09-01T01:12:22Z</time>
  <course>0.0</course>
  <speed>0.0</speed>
  <fix>3d</fix>
</trkpt>
<trkpt lat="33.810313" lon="-118.393867">
  <ele>0.0</ele>
  <time>2026-09-01T01:12:22Z</time>
  <course>188.53</course>
  <speed>0.0</speed>
  <fix>3d</fix>
</trkpt>
<trkpt lat="33.810313" lon="-118.393867">
  <ele>-0.12</ele>
  <time>2026-09-01T01:12:22Z</time>
  <course>0.0</course>
  <speed>0.0</speed>
  <fix>3d</fix>
</trkpt>
<trkpt lat="33.810313" lon="-118.393867">
  <ele>0.0</ele>
  <time>2026-09-01T01:12:22Z</time>
  <course>188.54</course>
  <speed>0.0</speed>
  <fix>3d</fix>
</trkpt>
<trkpt lat="33.810313" lon="-118.393867">
  <ele>-0.12</ele>
  <time>2026-09-01T01:12:22Z</time>
  <course>0.0</course>
  <speed>0.0</speed>
  <fix>3d</fix>
</trkpt>
<trkpt lat="33.810313" lon="-118.393867">
  <ele>0.0</ele>
  <time>2026-09-01T01:12:22Z</time>
  <course>188.54</course>
  <speed>0.0</speed>
  <fix>3d</fix>
</trkpt>
<trkpt lat="33.810313" lon="-118.393867">
  <ele>-0.12</ele>
  <time>2026-09-01T01:12:22Z</time>
  <course>0.0</course>
  <speed>0.0</speed>
  <fix>3d</fix>
</trkpt>
<trkpt lat="33.810313" lon="-118.393867">
  <ele>0.0</ele>
  <time>2026-09-01T01:12:22Z</time>
  <course>188.54</course>
  <speed>0.0</speed>
  <fix>3d</fix>
</trkpt>
<trkpt lat="33.810313" lon="-118.393867">
  <ele>-0.12</ele>
  <time>2026-09-01T01:12:22Z</time>
  <course>0.0</course>
  <speed>0.0</speed>
  <fix>3d</fix>
</trkpt>
<trkpt lat="33.810313" lon="-118.393867">
  <ele>0.0</ele>
  <time>2026-09-01T01:12:22Z</time>
  <course>188.55</course>
  <speed>0.0</speed>
  <fix>3d</fix>
</trkpt>
<trkpt lat="33.810313" lon="-118.393867">
  <ele>-0.12</ele>
  <time>2026-09-01T01:12:22Z</time>
  <course>0.0</course>
  <speed>0.0</speed>
  <fix>3d</fix>
</trkpt>
<trkpt lat="33.810313" lon="-118.393867">
  <ele>0.0</ele>
  <time>2026-09-01T01:12:22Z</time>
  <course>188.55</course>
  <speed>0.0</speed>
  <fix>3d</fix>
</trkpt>
<trkpt lat="33.810313" lon="-118.393867">
  <ele>-0.12</ele>
  <time>2026-09-01T01:12:22Z</time>
  <course>0.0</course>
  <speed>0.0</speed>
  <fix>3d</fix>
</trkpt>
<trkpt lat="33.810313" lon="-118.393867">
  <ele>0.0</ele>
  <time>2026-09-01T01:12:22Z</time>
  <course>188.55</course>
  <speed>0.0</speed>
  <fix>3d</fix>
</trkpt>
<trkpt lat="33.810313" lon="-118.393867">
  <ele>-0.12</ele>
  <time>2026-09-01T01:12:22Z</time>
  <course>0.0</course>
  <speed>0.0</speed>
  <fix>3d</fix>
</trkpt>
<trkpt lat="33.810313" lon="-118.393867">
  <ele>-0.126</ele>
  <time>2026-09-01T01:12:22Z</time>
  <course>188.55</course>
  <speed>0.0</speed>
  <fix>3d</fix>
</trkpt>
<trkpt lat="33.810313" lon="-118.393867">
  <ele>-0.13</ele>
  <time>2026-09-01T01:12:22Z</time>
  <course>0.0</course>
  <speed>0.0</speed>
  <fix>3d</fix>
</trkpt>
<trkpt lat="33.810313" lon="-118.393867">
  <ele>-0.126</ele>
  <time>2026-09-01T01:12:22Z</time>
  <course>188.56</course>
  <speed>0.0</speed>
  <fix>3d</fix>
</trkpt>
<trkpt lat="33.810313" lon="-118.393867">
  <ele>-0.13</ele>
  <time>2026-09-01T01:12:22Z</time>
  <course>0.0</course>
  <speed>0.0</speed>
  <fix>3d</fix>
</trkpt>
<trkpt lat="33.810313" lon="-118.393867">
  <ele>-0.125</ele>
  <time>2026-09-01T01:12:22Z</time>
  <course>188.56</course>
  <speed>0.0</speed>
  <fix>3d</fix>
</trkpt>
<trkpt lat="33.810313" lon="-118.393867">
  <ele>-0.13</ele>
  <time>2026-09-01T01:12:22Z</time>
  <course>0.0</course>
  <speed>0.0</speed>
  <fix>3d</fix>
</trkpt>
<trkpt lat="33.810313" lon="-118.393867">
  <ele>-0.123</ele>
  <time>2026-09-01T01:12:22Z</time>
  <course>188.56</course>
  <speed>0.0</speed>
  <fix>3d</fix>
</trkpt>
<trkpt lat="33.810313" lon="-118.393867">
  <ele>-0.13</ele>
  <time>2026-09-01T01:12:22Z</time>
  <course>0.0</course>
  <speed>0.0</speed>
  <fix>3d</fix>
</trkpt>
<trkpt lat="33.810313" lon="-118.393867">
  <ele>-0.121</ele>
  <time>2026-09-01T01:12:22Z</time>
  <course>188.56</course>
  <speed>0.0</speed>
  <fix>3d</fix>
</trkpt>
<trkpt lat="33.810313" lon="-118.393867">
  <ele>-0.12</ele>
  <time>2026-09-01T01:12:22Z</time>
  <course>0.0</course>
  <speed>0.0</speed>
  <fix>3d</fix>
</trkpt>
<trkpt lat="33.810313" lon="-118.393867">
  <ele>-0.12</ele>
  <time>2026-09-01T01:12:22Z</time>
  <course>188.56</course>
  <speed>0.0</speed>
  <fix>3d</fix>
</trkpt>
<trkpt lat="33.810313" lon="-118.393867">
  <ele>-0.12</ele>
  <time>2026-09-01T01:12:22Z</time>
  <course>0.0</course>
  <speed>0.0</speed>
  <fix>3d</fix>
</trkpt>
<trkpt lat="33.810313" lon="-118.393867">
  <ele>-0.119</ele>
  <time>2026-09-01T01:12:22Z</time>
  <course>188.56</course>
  <speed>0.0</speed>
  <fix>3d</fix>
</trkpt>
<trkpt lat="33.810313" lon="-118.393867">
  <ele>-0.12</ele>
  <time>2026-09-01T01:12:22Z</time>
  <course>0.0</course>
  <speed>0.0</speed>
  <fix>3d</fix>
</trkpt>
<trkpt lat="33.810313" lon="-118.393867">
  <ele>-0.12</ele>
  <time>2026-09-01T01:12:22Z</time>
  <course>188.56</course>
  <speed>0.0</speed>
  <fix>3d</fix>
</trkpt>
<trkpt lat="33.810313" lon="-118.393867">
  <ele>-0.12</ele>
  <time>2026-09-01T01:12:22Z</time>
  <course>0.0</course>
  <speed>0.0</speed>
  <fix>3d</fix>
</trkpt>
<trkpt lat="33.810313" lon="-118.393867">
  <ele>-0.123</ele>
  <time>2026-09-01T01:12:22Z</time>
  <course>188.55</course>
  <speed>0.0</speed>
  <fix>3d</fix>
</trkpt>
<trkpt lat="33.810313" lon="-118.393867">
  <ele>-0.12</ele>
  <time>2026-09-01T01:12:22Z</time>
  <course>0.0</course>
  <speed>0.0</speed>
  <fix>3d</fix>
</trkpt>
<trkpt lat="33.810313" lon="-118.393867">
  <ele>-0.127</ele>
  <time>2026-09-01T01:12:22Z</time>
  <course>188.55</course>
  <speed>0.0</speed>
  <fix>3d</fix>
</trkpt>
<trkpt lat="33.810313" lon="-118.393867">
  <ele>-0.12</ele>
  <time>2026-09-01T01:12:22Z</time>
  <course>0.0</course>
  <speed>0.0</speed>
  <fix>3d</fix>
</trkpt>
<trkpt lat="33.810313" lon="-118.393867">
  <ele>-0.13</ele>
  <time>2026-09-01T01:12:22Z</time>
  <course>188.55</course>
  <speed>0.0</speed>
  <fix>3d</fix>
</trkpt>
<trkpt lat="33.810313" lon="-118.393867">
  <ele>-0.12</ele>
  <time>2026-09-01T01:12:22Z</time>
  <course>0.0</course>
  <speed>0.0</speed>
  <fix>3d</fix>
</trkpt>
<trkpt lat="33.810313" lon="-118.393867">
  <ele>-0.132</ele>
  <time>2026-09-01T01:12:22Z</time>
  <course>188.55</course>
  <speed>0.0</speed>
  <fix>3d</fix>
</trkpt>
<trkpt lat="33.810313" lon="-118.393867">
  <ele>-0.12</ele>
  <time>2026-09-01T01:12:22Z</time>
  <course>0.0</course>
  <speed>0.0</speed>
  <fix>3d</fix>
</trkpt>
<trkpt lat="33.810313" lon="-118.393867">
  <ele>-0.132</ele>
  <time>2026-09-01T01:12:22Z</time>
  <course>188.55</course>
  <speed>0.0</speed>
  <fix>3d</fix>
</trkpt>
<trkpt lat="33.810313" lon="-118.393867">
  <ele>-0.12</ele>
  <time>2026-09-01T01:12:22Z</time>
  <course>0.0</course>
  <speed>0.0</speed>
  <fix>3d</fix>
</trkpt>
<trkpt lat="33.810313" lon="-118.393867">
  <ele>-0.132</ele>
  <time>2026-09-01T01:12:22Z</time>
  <course>188.55</course>
  <speed>0.0</speed>
  <fix>3d</fix>
</trkpt>
<trkpt lat="33.810313" lon="-118.393867">
  <ele>-0.12</ele>
  <time>2026-09-01T01:12:22Z</time>
  <course>0.0</course>
  <speed>0.0</speed>
  <fix>3d</fix>
</trkpt>
<trkpt lat="33.810313" lon="-118.393867">
  <ele>-0.132</ele>
  <time>2026-09-01T01:12:22Z</time>
  <course>188.55</course>
  <speed>0.0</speed>
  <fix>3d</fix>
</trkpt>
<trkpt lat="33.810313" lon="-118.393867">
  <ele>-0.12</ele>
  <time>2026-09-01T01:12:22Z</time>
  <course>0.0</course>
  <speed>0.0</speed>
  <fix>3d</fix>
</trkpt>
<trkpt lat="33.810313" lon="-118.393867">
  <ele>-0.131</ele>
  <time>2026-09-01T01:12:22Z</time>
  <course>188.55</course>
  <speed>0.0</speed>
  <fix>3d</fix>
</trkpt>
<trkpt lat="33.810313" lon="-118.393867">
  <ele>-0.12</ele>
  <time>2026-09-01T01:12:22Z</time>
  <course>0.0</course>
  <speed>0.0</speed>
  <fix>3d</fix>
</trkpt>
<trkpt lat="33.810313" lon="-118.393867">
  <ele>-0.129</ele>
  <time>2026-09-01T01:12:22Z</time>
  <course>188.54</course>
  <speed>0.0</speed>
  <fix>3d</fix>
</trkpt>
<trkpt lat="33.810313" lon="-118.393867">
  <ele>-0.13</ele>
  <time>2026-09-01T01:12:22Z</time>
  <course>0.0</course>
  <speed>0.0</speed>
  <fix>3d</fix>
</trkpt>
<trkpt lat="33.810313" lon="-118.393867">
  <ele>-0.128</ele>
  <time>2026-09-01T01:12:22Z</time>
  <course>188.54</course>
  <speed>0.0</speed>
  <fix>3d</fix>
</trkpt>
<trkpt lat="33.810313" lon="-118.393867">
  <ele>-0.13</ele>
  <time>2026-09-01T01:12:22Z</time>
  <course>0.0</course>
  <speed>0.0</speed>
  <fix>3d</fix>
</trkpt>
<trkpt lat="33.810313" lon="-118.393867">
  <ele>-0.125</ele>
  <time>2026-09-01T01:12:22Z</time>
  <course>188.53</course>
  <speed>0.0</speed>
  <fix>3d</fix>
</trkpt>
<trkpt lat="33.810313" lon="-118.393867">
  <ele>-0.12</ele>
  <time>2026-09-01T01:12:22Z</time>
  <course>0.0</course>
  <speed>0.0</speed>
  <fix>3d</fix>
</trkpt>
<trkpt lat="33.810313" lon="-118.393867">
  <ele>-0.123</ele>
  <time>2026-09-01T01:12:22Z</time>
  <course>188.53</course>
  <speed>0.0</speed>
  <fix>3d</fix>
</trkpt>
<trkpt lat="33.810313" lon="-118.393867">
  <ele>-0.12</ele>
  <time>2026-09-01T01:12:22Z</time>
  <course>0.0</course>
  <speed>0.0</speed>
  <fix>3d</fix>
</trkpt>
<trkpt lat="33.810313" lon="-118.393867">
  <ele>-0.121</ele>
  <time>2026-09-01T01:12:22Z</time>
  <course>188.52</course>
  <speed>0.0</speed>
  <fix>3d</fix>
</trkpt>
<trkpt lat="33.810313" lon="-118.393867">
  <ele>-0.12</ele>
  <time>2026-09-01T01:12:22Z</time>
  <course>0.0</course>
  <speed>0.0</speed>
  <fix>3d</fix>
</trkpt>
<trkpt lat="33.810313" lon="-118.393867">
  <ele>-0.121</ele>
  <time>2026-09-01T01:12:22Z</time>
  <course>188.52</course>
  <speed>0.0</speed>
  <fix>3d</fix>
</trkpt>
<trkpt lat="33.810313" lon="-118.393867">
  <ele>-0.12</ele>
  <time>2026-09-01T01:12:22Z</time>
  <course>0.0</course>
  <speed>0.0</speed>
  <fix>3d</fix>
</trkpt>
<trkpt lat="33.810313" lon="-118.393867">
  <ele>-0.121</ele>
  <time>2026-09-01T01:12:22Z</time>
  <course>188.51</course>
  <speed>0.0</speed>
  <fix>3d</fix>
</trkpt>
<trkpt lat="33.810313" lon="-118.393867">
  <ele>-0.12</ele>
  <time>2026-09-01T01:12:22Z</time>
  <course>0.0</course>
  <speed>0.0</speed>
  <fix>3d</fix>
</trkpt>
<trkpt lat="33.810313" lon="-118.393867">
  <ele>-0.123</ele>
  <time>2026-09-01T01:12:22Z</time>
  <course>188.51</course>
  <speed>0.0</speed>
  <fix>3d</fix>
</trkpt>
<trkpt lat="33.810313" lon="-118.393867">
  <ele>-0.12</ele>
  <time>2026-09-01T01:12:22Z</time>
  <course>0.0</course>
  <speed>0.0</speed>
  <fix>3d</fix>
</trkpt>
<trkpt lat="33.810313" lon="-118.393867">
  <ele>-0.126</ele>
  <time>2026-09-01T01:12:22Z</time>
  <course>188.5</course>
  <speed>0.0</speed>
  <fix>3d</fix>
</trkpt>
<trkpt lat="33.810313" lon="-118.393867">
  <ele>-0.12</ele>
  <time>2026-09-01T01:12:22Z</time>
  <course>0.0</course>
  <speed>0.0</speed>
  <fix>3d</fix>
</trkpt>
<trkpt lat="33.810313" lon="-118.393867">
  <ele>-0.127</ele>
  <time>2026-09-01T01:12:22Z</time>
  <course>188.5</course>
  <speed>0.0</speed>
  <fix>3d</fix>
</trkpt>
<trkpt lat="33.810313" lon="-118.393867">
  <ele>-0.12</ele>
  <time>2026-09-01T01:12:22Z</time>
  <course>0.0</course>
  <speed>0.0</speed>
  <fix>3d</fix>
</trkpt>
<trkpt lat="33.810313" lon="-118.393867">
  <ele>-0.128</ele>
  <time>2026-09-01T01:12:22Z</time>
  <course>188.49</course>
  <speed>0.0</speed>
  <fix>3d</fix>
</trkpt>
<trkpt lat="33.810313" lon="-118.393867">
  <ele>-0.12</ele>
  <time>2026-09-01T01:12:22Z</time>
  <course>0.0</course>
  <speed>0.0</speed>
  <fix>3d</fix>
</trkpt>
<trkpt lat="33.810313" lon="-118.393867">
  <ele>-0.127</ele>
  <time>2026-09-01T01:12:22Z</time>
  <course>188.49</course>
  <speed>0.0</speed>
  <fix>3d</fix>
</trkpt>
<trkpt lat="33.810313" lon="-118.393867">
  <ele>-0.12</ele>
  <time>2026-09-01T01:12:22Z</time>
  <course>0.0</course>
  <speed>0.0</speed>
  <fix>3d</fix>
</trkpt>
<trkpt lat="33.810313" lon="-118.393867">
  <ele>-0.127</ele>
  <time>2026-09-01T01:12:22Z</time>
  <course>188.48</course>
  <speed>0.0</speed>
  <fix>3d</fix>
</trkpt>
<trkpt lat="33.810313" lon="-118.393867">
  <ele>-0.12</ele>
  <time>2026-09-01T01:12:22Z</time>
  <course>0.0</course>
  <speed>0.0</speed>
  <fix>3d</fix>
</trkpt>
<trkpt lat="33.810313" lon="-118.393867">
  <ele>-0.127</ele>
  <time>2026-09-01T01:12:22Z</time>
  <course>188.47</course>
  <speed>0.01</speed>
  <fix>3d</fix>
</trkpt>
<trkpt lat="33.810313" lon="-118.393867">
  <ele>-0.12</ele>
  <time>2026-09-01T01:12:22Z</time>
  <course>0.0</course>
  <speed>0.0</speed>
  <fix>3d</fix>
</trkpt>
<trkpt lat="33.810313" lon="-118.393867">
  <ele>-0.127</ele>
  <time>2026-09-01T01:12:22Z</time>
  <course>188.47</course>
  <speed>0.01</speed>
  <fix>3d</fix>
</trkpt>
<trkpt lat="33.810313" lon="-118.393867">
  <ele>-0.12</ele>
  <time>2026-09-01T01:12:22Z</time>
  <course>0.0</course>
  <speed>0.0</speed>
  <fix>3d</fix>
</trkpt>
<trkpt lat="33.810313" lon="-118.393867">
  <ele>-0.127</ele>
  <time>2026-09-01T01:12:22Z</time>
  <course>188.46</course>
  <speed>0.01</speed>
  <fix>3d</fix>
</trkpt>
<trkpt lat="33.810313" lon="-118.393867">
  <ele>-0.12</ele>
  <time>2026-09-01T01:12:22Z</time>
  <course>0.0</course>
  <speed>0.0</speed>
  <fix>3d</fix>
</trkpt>
<trkpt lat="33.810313" lon="-118.393867">
  <ele>-0.126</ele>
  <time>2026-09-01T01:12:22Z</time>
  <course>188.45</course>
  <speed>0.01</speed>
  <fix>3d</fix>
</trkpt>
<trkpt lat="33.810313" lon="-118.393867">
  <ele>-0.12</ele>
  <time>2026-09-01T01:12:22Z</time>
  <course>0.0</course>
  <speed>0.0</speed>
  <fix>3d</fix>
</trkpt>
<trkpt lat="33.810313" lon="-118.393867">
  <ele>-0.126</ele>
  <time>2026-09-01T01:12:22Z</time>
  <course>188.45</course>
  <speed>0.01</speed>
  <fix>3d</fix>
</trkpt>
<trkpt lat="33.810313" lon="-118.393867">
  <ele>-0.12</ele>
  <time>2026-09-01T01:12:22Z</time>
  <course>0.0</course>
  <speed>0.0</speed>
  <fix>3d</fix>
</trkpt>
<trkpt lat="33.810313" lon="-118.393867">
  <ele>-0.125</ele>
  <time>2026-09-01T01:12:22Z</time>
  <course>188.44</course>
  <speed>0.01</speed>
  <fix>3d</fix>
</trkpt>
<trkpt lat="33.810313" lon="-118.393867">
  <ele>-0.12</ele>
  <time>2026-09-01T01:12:22Z</time>
  <course>0.0</course>
  <speed>0.0</speed>
  <fix>3d</fix>
</trkpt>
<trkpt lat="33.810313" lon="-118.393867">
  <ele>-0.126</ele>
  <time>2026-09-01T01:12:22Z</time>
  <course>188.43</course>
  <speed>0.01</speed>
  <fix>3d</fix>
</trkpt>
<trkpt lat="33.810313" lon="-118.393867">
  <ele>-0.12</ele>
  <time>2026-09-01T01:12:22Z</time>
  <course>0.0</course>
  <speed>0.0</speed>
  <fix>3d</fix>
</trkpt>
<trkpt lat="33.810313" lon="-118.393867">
  <ele>-0.127</ele>
  <time>2026-09-01T01:12:22Z</time>
  <course>188.42</course>
  <speed>0.01</speed>
  <fix>3d</fix>
</trkpt>
<trkpt lat="33.810313" lon="-118.393867">
  <ele>-0.12</ele>
  <time>2026-09-01T01:12:22Z</time>
  <course>0.0</course>
  <speed>0.0</speed>
  <fix>3d</fix>
</trkpt>
<trkpt lat="33.810313" lon="-118.393867">
  <ele>-0.128</ele>
  <time>2026-09-01T01:12:22Z</time>
  <course>188.42</course>
  <speed>0.01</speed>
  <fix>3d</fix>
</trkpt>
<trkpt lat="33.810313" lon="-118.393867">
  <ele>-0.12</ele>
  <time>2026-09-01T01:12:22Z</time>
  <course>0.0</course>
  <speed>0.0</speed>
  <fix>3d</fix>
</trkpt>
<trkpt lat="33.810313" lon="-118.393867">
  <ele>-0.129</ele>
  <time>2026-09-01T01:12:22Z</time>
  <course>188.41</course>
  <speed>0.01</speed>
  <fix>3d</fix>
</trkpt>
<trkpt lat="33.810313" lon="-118.393867">
  <ele>-0.12</ele>
  <time>2026-09-01T01:12:22Z</time>
  <course>0.0</course>
  <speed>0.0</speed>
  <fix>3d</fix>
</trkpt>
<trkpt lat="33.810313" lon="-118.393867">
  <ele>-0.129</ele>
  <time>2026-09-01T01:12:22Z</time>
  <course>188.4</course>
  <speed>0.01</speed>
  <fix>3d</fix>
</trkpt>
<trkpt lat="33.810313" lon="-118.393867">
  <ele>-0.12</ele>
  <time>2026-09-01T01:12:22Z</time>
  <course>0.0</course>
  <speed>0.0</speed>
  <fix>3d</fix>
</trkpt>
<trkpt lat="33.810313" lon="-118.393867">
  <ele>-0.13</ele>
  <time>2026-09-01T01:12:22Z</time>
  <course>188.4</course>
  <speed>0.01414213562373095</speed>
  <fix>3d</fix>
</trkpt>
<trkpt lat="33.810313" lon="-118.393867">
  <ele>-0.12</ele>
  <time>2026-09-01T01:12:22Z</time>
  <course>0.0</course>
  <speed>0.0</speed>
  <fix>3d</fix>
</trkpt>
<trkpt lat="33.810313" lon="-118.393867">
  <ele>-0.13</ele>
  <time>2026-09-01T01:12:22Z</time>
  <course>188.39</course>
  <speed>0.01414213562373095</speed>
  <fix>3d</fix>
</trkpt>
<trkpt lat="33.810313" lon="-118.393867">
  <ele>-0.12</ele>
  <time>2026-09-01T01:12:22Z</time>
  <course>0.0</course>
  <speed>0.0</speed>
  <fix>3d</fix>
</trkpt>
<trkpt lat="33.810313" lon="-118.393867">
  <ele>-0.13</ele>
  <time>2026-09-01T01:12:22Z</time>
  <course>188.38</course>
  <speed>0.01414213562373095</speed>
  <fix>3d</fix>
</trkpt>
<trkpt lat="33.810313" lon="-118.393867">
  <ele>-0.12</ele>
  <time>2026-09-01T01:12:22Z</time>
  <course>0.0</course>
  <speed>0.0</speed>
  <fix>3d</fix>
</trkpt>
<trkpt lat="33.810313" lon="-118.393867">
  <ele>-0.129</ele>
  <time>2026-09-01T01:12:22Z</time>
  <course>188.37</course>
  <speed>0.01414213562373095</speed>
  <fix>3d</fix>
</trkpt>
<trkpt lat="33.810313" lon="-118.393867">
  <ele>-0.12</ele>
  <time>2026-09-01T01:12:22Z</time>
  <course>0.0</course>
  <speed>0.0</speed>
  <fix>3d</fix>
</trkpt>
<trkpt lat="33.810313" lon="-118.393867">
  <ele>-0.128</ele>
  <time>2026-09-01T01:12:22Z</time>
  <course>188.37</course>
  <speed>0.01414213562373095</speed>
  <fix>3d</fix>
</trkpt>
<trkpt lat="33.810313" lon="-118.393867">
  <ele>-0.12</ele>
  <time>2026-09-01T01:12:22Z</time>
  <course>0.0</course>
  <speed>0.0</speed>
  <fix>3d</fix>
</trkpt>
<trkpt lat="33.810313" lon="-118.393867">
  <ele>-0.126</ele>
  <time>2026-09-01T01:12:22Z</time>
  <course>188.36</course>
  <speed>0.01414213562373095</speed>
  <fix>3d</fix>
</trkpt>
<trkpt lat="33.810313" lon="-118.393867">
  <ele>-0.12</ele>
  <time>2026-09-01T01:12:22Z</time>
  <course>0.0</course>
  <speed>0.0</speed>
  <fix>3d</fix>
</trkpt>
<trkpt lat="33.810313" lon="-118.393867">
  <ele>-0.124</ele>
  <time>2026-09-01T01:12:22Z</time>
  <course>188.35</course>
  <speed>0.01414213562373095</speed>
  <fix>3d</fix>
</trkpt>
<trkpt lat="33.810313" lon="-118.393867">
  <ele>-0.12</ele>
  <time>2026-09-01T01:12:22Z</time>
  <course>0.0</course>
  <speed>0.0</speed>
  <fix>3d</fix>
</trkpt>
<trkpt lat="33.810313" lon="-118.393867">
  <ele>-0.122</ele>
  <time>2026-09-01T01:12:22Z</time>
  <course>188.34</course>
  <speed>0.01414213562373095</speed>
  <fix>3d</fix>
</trkpt>
<trkpt lat="33.810313" lon="-118.393867">
  <ele>-0.12</ele>
  <time>2026-09-01T01:12:22Z</time>
  <course>0.0</course>
  <speed>0.0</speed>
  <fix>3d</fix>
</trkpt>
<trkpt lat="33.810313" lon="-118.393867">
  <ele>-0.123</ele>
  <time>2026-09-01T01:12:22Z</time>
  <course>188.34</course>
  <speed>0.01414213562373095</speed>
  <fix>3d</fix>
</trkpt>
<trkpt lat="33.810313" lon="-118.393867">
  <ele>-0.12</ele>
  <time>2026-09-01T01:12:22Z</time>
  <course>0.0</course>
  <speed>0.0</speed>
  <fix>3d</fix>
</trkpt>
<trkpt lat="33.810313" lon="-118.393867">
  <ele>-0.125</ele>
  <time>2026-09-01T01:12:22Z</time>
  <course>188.33</course>
  <speed>0.01414213562373095</speed>
  <fix>3d</fix>
</trkpt>
<trkpt lat="33.810313" lon="-118.393867">
  <ele>-0.12</ele>
  <time>2026-09-01T01:12:22Z</time>
  <course>0.0</course>
  <speed>0.0</speed>
  <fix>3d</fix>
</trkpt>
<trkpt lat="33.810313" lon="-118.393867">
  <ele>-0.128</ele>
  <time>2026-09-01T01:12:22Z</time>
  <course>188.32</course>
  <speed>0.01414213562373095</speed>
  <fix>3d</fix>
</trkpt>
<trkpt lat="33.810313" lon="-118.393867">
  <ele>-0.12</ele>
  <time>2026-09-01T01:12:22Z</time>
  <course>0.0</course>
  <speed>0.0</speed>
  <fix>3d</fix>
</trkpt>
<trkpt lat="33.810313" lon="-118.393867">
  <ele>-0.131</ele>
  <time>2026-09-01T01:12:22Z</time>
  <course>188.31</course>
  <speed>0.01414213562373095</speed>
  <fix>3d</fix>
</trkpt>
<trkpt lat="33.810313" lon="-118.393867">
  <ele>-0.12</ele>
  <time>2026-09-01T01:12:22Z</time>
  <course>0.0</course>
  <speed>0.0</speed>
  <fix>3d</fix>
</trkpt>
<trkpt lat="33.810313" lon="-118.393867">
  <ele>-0.134</ele>
  <time>2026-09-01T01:12:22Z</time>
  <course>188.3</course>
  <speed>0.01414213562373095</speed>
  <fix>3d</fix>
</trkpt>
<trkpt lat="33.810313" lon="-118.393867">
  <ele>-0.12</ele>
  <time>2026-09-01T01:12:22Z</time>
  <course>0.0</course>
  <speed>0.0</speed>
  <fix>3d</fix>
</trkpt>
<trkpt lat="33.810313" lon="-118.393867">
  <ele>-0.135</ele>
  <time>2026-09-01T01:12:22Z</time>
  <course>188.3</course>
  <speed>0.01414213562373095</speed>
  <fix>3d</fix>
</trkpt>
<trkpt lat="33.810313" lon="-118.393867">
  <ele>-0.12</ele>
  <time>2026-09-01T01:12:22Z</time>
  <course>0.0</course>
  <speed>0.0</speed>
  <fix>3d</fix>
</trkpt>
<trkpt lat="33.810313" lon="-118.393867">
  <ele>-0.134</ele>
  <time>2026-09-01T01:12:22Z</time>
  <course>188.29</course>
  <speed>0.01414213562373095</speed>
  <fix>3d</fix>
</trkpt>
<trkpt lat="33.810313" lon="-118.393867">
  <ele>-0.12</ele>
  <time>2026-09-01T01:12:22Z</time>
  <course>0.0</course>
  <speed>0.0</speed>
  <fix>3d</fix>
</trkpt>
<trkpt lat="33.810313" lon="-118.393867">
  <ele>-0.132</ele>
  <time>2026-09-01T01:12:22Z</time>
  <course>188.28</course>
  <speed>0.01414213562373095</speed>
  <fix>3d</fix>
</trkpt>
<trkpt lat="33.810313" lon="-118.393867">
  <ele>-0.12</ele>
  <time>2026-09-01T01:12:22Z</time>
  <course>0.0</course>
  <speed>0.0</speed>
  <fix>3d</fix>
</trkpt>
<trkpt lat="33.810313" lon="-118.393867">
  <ele>-0.13</ele>
  <time>2026-09-01T01:12:22Z</time>
  <course>188.27</course>
  <speed>0.01414213562373095</speed>
  <fix>3d</fix>
</trkpt>
<trkpt lat="33.810313" lon="-118.393867">
  <ele>-0.12</ele>
  <time>2026-09-01T01:12:22Z</time>
  <course>0.0</course>
  <speed>0.0</speed>
  <fix>3d</fix>
</trkpt>
<trkpt lat="33.810313" lon="-118.393867">
  <ele>-0.127</ele>
  <time>2026-09-01T01:12:22Z</time>
  <course>188.26</course>
  <speed>0.01414213562373095</speed>
  <fix>3d</fix>
</trkpt>
<trkpt lat="33.810313" lon="-118.393867">
  <ele>-0.12</ele>
  <time>2026-09-01T01:12:22Z</time>
  <course>0.0</course>
  <speed>0.0</speed>
  <fix>3d</fix>
</trkpt>
<trkpt lat="33.810313" lon="-118.393867">
  <ele>-0.125</ele>
  <time>2026-09-01T01:12:22Z</time>
  <course>188.25</course>
  <speed>0.01414213562373095</speed>
  <fix>3d</fix>
</trkpt>
<trkpt lat="33.810313" lon="-118.393867">
  <ele>-0.12</ele>
  <time>2026-09-01T01:12:22Z</time>
  <course>0.0</course>
  <speed>0.0</speed>
  <fix>3d</fix>
</trkpt>
<trkpt lat="33.810313" lon="-118.393867">
  <ele>-0.123</ele>
  <time>2026-09-01T01:12:22Z</time>
  <course>188.25</course>
  <speed>0.01414213562373095</speed>
  <fix>3d</fix>
</trkpt>
<trkpt lat="33.810313" lon="-118.393867">
  <ele>-0.12</ele>
  <time>2026-09-01T01:12:22Z</time>
  <course>0.0</course>
  <speed>0.0</speed>
  <fix>3d</fix>
</trkpt>
<trkpt lat="33.810313" lon="-118.393867">
  <ele>-0.124</ele>
  <time>2026-09-01T01:12:22Z</time>
  <course>188.24</course>
  <speed>0.01414213562373095</speed>
  <fix>3d</fix>
</trkpt>
<trkpt lat="33.810313" lon="-118.393867">
  <ele>-0.12</ele>
  <time>2026-09-01T01:12:22Z</time>
  <course>0.0</course>
  <speed>0.0</speed>
  <fix>3d</fix>
</trkpt>
<trkpt lat="33.810313" lon="-118.393867">
  <ele>-0.125</ele>
  <time>2026-09-01T01:12:22Z</time>
  <course>188.23</course>
  <speed>0.01414213562373095</speed>
  <fix>3d</fix>
</trkpt>
<trkpt lat="33.810313" lon="-118.393867">
  <ele>-0.12</ele>
  <time>2026-09-01T01:12:22Z</time>
  <course>0.0</course>
  <speed>0.0</speed>
  <fix>3d</fix>
</trkpt>
<trkpt lat="33.810313" lon="-118.393867">
  <ele>-0.127</ele>
  <time>2026-09-01T01:12:22Z</time>
  <course>188.22</course>
  <speed>0.01414213562373095</speed>
  <fix>3d</fix>
</trkpt>
<trkpt lat="33.810313" lon="-118.393867">
  <ele>-0.12</ele>
  <time>2026-09-01T01:12:22Z</time>
  <course>0.0</course>
  <speed>0.0</speed>
  <fix>3d</fix>
</trkpt>
<trkpt lat="33.810313" lon="-118.393867">
  <ele>-0.128</ele>
  <time>2026-09-01T01:12:22Z</time>
  <course>188.21</course>
  <speed>0.01414213562373095</speed>
  <fix>3d</fix>
</trkpt>
<trkpt lat="33.810313" lon="-118.393867">
  <ele>-0.12</ele>
  <time>2026-09-01T01:12:22Z</time>
  <course>0.0</course>
  <speed>0.0</speed>
  <fix>3d</fix>
</trkpt>
<trkpt lat="33.810313" lon="-118.393867">
  <ele>-0.129</ele>
  <time>2026-09-01T01:12:22Z</time>
  <course>188.21</course>
  <speed>0.01414213562373095</speed>
  <fix>3d</fix>
</trkpt>
<trkpt lat="33.810313" lon="-118.393867">
  <ele>-0.12</ele>
  <time>2026-09-01T01:12:22Z</time>
  <course>0.0</course>
  <speed>0.0</speed>
  <fix>3d</fix>
</trkpt>
<trkpt lat="33.810313" lon="-118.393867">
  <ele>-0.129</ele>
  <time>2026-09-01T01:12:22Z</time>
  <course>188.2</course>
  <speed>0.01414213562373095</speed>
  <fix>3d</fix>
</trkpt>
<trkpt lat="33.810313" lon="-118.393867">
  <ele>-0.12</ele>
  <time>2026-09-01T01:12:22Z</time>
  <course>0.0</course>
  <speed>0.0</speed>
  <fix>3d</fix>
</trkpt>
<trkpt lat="33.810313" lon="-118.393867">
  <ele>-0.128</ele>
  <time>2026-09-01T01:12:22Z</time>
  <course>188.19</course>
  <speed>0.01414213562373095</speed>
  <fix>3d</fix>
</trkpt>
<trkpt lat="33.810313" lon="-118.393867">
  <ele>-0.12</ele>
  <time>2026-09-01T01:12:22Z</time>
  <course>0.0</course>
  <speed>0.0</speed>
  <fix>3d</fix>
</trkpt>
<trkpt lat="33.810313" lon="-118.393867">
  <ele>-0.128</ele>
  <time>2026-09-01T01:12:22Z</time>
  <course>188.18</course>
  <speed>0.01414213562373095</speed>
  <fix>3d</fix>
</trkpt>
<trkpt lat="33.810313" lon="-118.393867">
  <ele>-0.12</ele>
  <time>2026-09-01T01:12:22Z</time>
  <course>0.0</course>
  <speed>0.0</speed>
  <fix>3d</fix>
</trkpt>
<trkpt lat="33.810313" lon="-118.393867">
  <ele>-0.127</ele>
  <time>2026-09-01T01:12:22Z</time>
  <course>188.17</course>
  <speed>0.01414213562373095</speed>
  <fix>3d</fix>
</trkpt>
<trkpt lat="33.810313" lon="-118.393867">
  <ele>-0.12</ele>
  <time>2026-09-01T01:12:22Z</time>
  <course>0.0</course>
  <speed>0.0</speed>
  <fix>3d</fix>
</trkpt>
<trkpt lat="33.810313" lon="-118.393867">
  <ele>-0.127</ele>
  <time>2026-09-01T01:12:22Z</time>
  <course>188.16</course>
  <speed>0.01414213562373095</speed>
  <fix>3d</fix>
</trkpt>
<trkpt lat="33.810313" lon="-118.393867">
  <ele>-0.12</ele>
  <time>2026-09-01T01:12:22Z</time>
  <course>0.0</course>
  <speed>0.0</speed>
  <fix>3d</fix>
</trkpt>
<trkpt lat="33.810313" lon="-118.393867">
  <ele>-0.128</ele>
  <time>2026-09-01T01:12:22Z</time>
  <course>188.16</course>
  <speed>0.01414213562373095</speed>
  <fix>3d</fix>
</trkpt>
<trkpt lat="33.810313" lon="-118.393867">
  <ele>-0.12</ele>
  <time>2026-09-01T01:12:22Z</time>
  <course>0.0</course>
  <speed>0.0</speed>
  <fix>3d</fix>
</trkpt>
<trkpt lat="33.810313" lon="-118.393867">
  <ele>-0.129</ele>
  <time>2026-09-01T01:12:22Z</time>
  <course>188.15</course>
  <speed>0.01414213562373095</speed>
  <fix>3d</fix>
</trkpt>
<trkpt lat="33.810313" lon="-118.393867">
  <ele>-0.12</ele>
  <time>2026-09-01T01:12:22Z</time>
  <course>0.0</course>
  <speed>0.0</speed>
  <fix>3d</fix>
</trkpt>
<trkpt lat="33.810313" lon="-118.393867">
  <ele>-0.131</ele>
  <time>2026-09-01T01:12:22Z</time>
  <course>188.14</course>
  <speed>0.01414213562373095</speed>
  <fix>3d</fix>
</trkpt>
<trkpt lat="33.810313" lon="-118.393867">
  <ele>-0.12</ele>
  <time>2026-09-01T01:12:22Z</time>
  <course>0.0</course>
  <speed>0.0</speed>
  <fix>3d</fix>
</trkpt>
<trkpt lat="33.810313" lon="-118.393867">
  <ele>-0.133</ele>
  <time>2026-09-01T01:12:22Z</time>
  <course>188.13</course>
  <speed>0.01414213562373095</speed>
  <fix>3d</fix>
</trkpt>
<trkpt lat="33.810313" lon="-118.393867">
  <ele>-0.12</ele>
  <time>2026-09-01T01:12:22Z</time>
  <course>0.0</course>
  <speed>0.0</speed>
  <fix>3d</fix>
</trkpt>
<trkpt lat="33.810313" lon="-118.393867">
  <ele>-0.135</ele>
  <time>2026-09-01T01:12:22Z</time>
  <course>188.12</course>
  <speed>0.01414213562373095</speed>
  <fix>3d</fix>
</trkpt>
<trkpt lat="33.810313" lon="-118.393867">
  <ele>-0.12</ele>
  <time>2026-09-01T01:12:22Z</time>
  <course>0.0</course>
  <speed>0.0</speed>
  <fix>3d</fix>
</trkpt>
<trkpt lat="33.810313" lon="-118.393867">
  <ele>-0.136</ele>
  <time>2026-09-01T01:12:22Z</time>
  <course>188.12</course>
  <speed>0.01414213562373095</speed>
  <fix>3d</fix>
</trkpt>
<trkpt lat="33.810313" lon="-118.393867">
  <ele>-0.12</ele>
  <time>2026-09-01T01:12:22Z</time>
  <course>0.0</course>
  <speed>0.0</speed>
  <fix>3d</fix>
</trkpt>
<trkpt lat="33.810313" lon="-118.393867">
  <ele>-0.136</ele>
  <time>2026-09-01T01:12:22Z</time>
  <course>188.11</course>
  <speed>0.01414213562373095</speed>
  <fix>3d</fix>
</trkpt>
<trkpt lat="33.810313" lon="-118.393867">
  <ele>-0.12</ele>
  <time>2026-09-01T01:12:22Z</time>
  <course>0.0</course>
  <speed>0.0</speed>
  <fix>3d</fix>
</trkpt>
<trkpt lat="33.810313" lon="-118.393867">
  <ele>-0.136</ele>
  <time>2026-09-01T01:12:22Z</time>
  <course>188.1</course>
  <speed>0.01414213562373095</speed>
  <fix>3d</fix>
</trkpt>
<trkpt lat="33.810313" lon="-118.393867">
  <ele>-0.12</ele>
  <time>2026-09-01T01:12:22Z</time>
  <course>0.0</course>
  <speed>0.0</speed>
  <fix>3d</fix>
</trkpt>
<trkpt lat="33.810313" lon="-118.393867">
  <ele>-0.135</ele>
  <time>2026-09-01T01:12:22Z</time>
  <course>188.09</course>
  <speed>0.01414213562373095</speed>
  <fix>3d</fix>
</trkpt>
<trkpt lat="33.810313" lon="-118.393867">
  <ele>-0.12</ele>
  <time>2026-09-01T01:12:22Z</time>
  <course>0.0</course>
  <speed>0.0</speed>
  <fix>3d</fix>
</trkpt>
<trkpt lat="33.810313" lon="-118.393867">
  <ele>-0.134</ele>
  <time>2026-09-01T01:12:22Z</time>
  <course>188.08</course>
  <speed>0.01414213562373095</speed>
  <fix>3d</fix>
</trkpt>
<trkpt lat="33.810313" lon="-118.393867">
  <ele>-0.12</ele>
  <time>2026-09-01T01:12:22Z</time>
  <course>0.0</course>
  <speed>0.0</speed>
  <fix>3d</fix>
</trkpt>
<trkpt lat="33.810313" lon="-118.393867">
  <ele>-0.131</ele>
  <time>2026-09-01T01:12:22Z</time>
  <course>188.07</course>
  <speed>0.022360679774997897</speed>
  <fix>3d</fix>
</trkpt>
<trkpt lat="33.810313" lon="-118.393867">
  <ele>-0.12</ele>
  <time>2026-09-01T01:12:22Z</time>
  <course>0.0</course>
  <speed>0.0</speed>
  <fix>3d</fix>
</trkpt>
<trkpt lat="33.810313" lon="-118.393867">
  <ele>-0.128</ele>
  <time>2026-09-01T01:12:22Z</time>
  <course>188.07</course>
  <speed>0.022360679774997897</speed>
  <fix>3d</fix>
</trkpt>
<trkpt lat="33.810313" lon="-118.393867">
  <ele>-0.12</ele>
  <time>2026-09-01T01:12:22Z</time>
  <course>0.0</course>
  <speed>0.0</speed>
  <fix>3d</fix>
</trkpt>
<trkpt lat="33.810313" lon="-118.393867">
  <ele>-0.127</ele>
  <time>2026-09-01T01:12:22Z</time>
  <course>188.06</course>
  <speed>0.022360679774997897</speed>
  <fix>3d</fix>
</trkpt>
<trkpt lat="33.810313" lon="-118.393867">
  <ele>-0.12</ele>
  <time>2026-09-01T01:12:22Z</time>
  <course>0.0</course>
  <speed>0.0</speed>
  <fix>3d</fix>
</trkpt>
<trkpt lat="33.810313" lon="-118.393867">
  <ele>-0.126</ele>
  <time>2026-09-01T01:12:22Z</time>
  <course>188.05</course>
  <speed>0.022360679774997897</speed>
  <fix>3d</fix>
</trkpt>
<trkpt lat="33.810313" lon="-118.393867">
  <ele>-0.12</ele>
  <time>2026-09-01T01:12:22Z</time>
  <course>0.0</course>
  <speed>0.0</speed>
  <fix>3d</fix>
</trkpt>
<trkpt lat="33.810313" lon="-118.393867">
  <ele>-0.126</ele>
  <time>2026-09-01T01:12:22Z</time>
  <course>188.04</course>
  <speed>0.022360679774997897</speed>
  <fix>3d</fix>
</trkpt>
<trkpt lat="33.810313" lon="-118.393867">
  <ele>-0.12</ele>
  <time>2026-09-01T01:12:22Z</time>
  <course>0.0</course>
  <speed>0.0</speed>
  <fix>3d</fix>
</trkpt>
<trkpt lat="33.810313" lon="-118.393867">
  <ele>-0.127</ele>
  <time>2026-09-01T01:12:22Z</time>
  <course>188.03</course>
  <speed>0.022360679774997897</speed>
  <fix>3d</fix>
</trkpt>
<trkpt lat="33.810313" lon="-118.393867">
  <ele>-0.12</ele>
  <time>2026-09-01T01:12:22Z</time>
  <course>0.0</course>
  <speed>0.0</speed>
  <fix>3d</fix>
</trkpt>
<trkpt lat="33.810313" lon="-118.393867">
  <ele>-0.127</ele>
  <time>2026-09-01T01:12:22Z</time>
  <course>188.03</course>
  <speed>0.022360679774997897</speed>
  <fix>3d</fix>
</trkpt>
<trkpt lat="33.810313" lon="-118.393867">
  <ele>-0.12</ele>
  <time>2026-09-01T01:12:22Z</time>
  <course>0.0</course>
  <speed>0.0</speed>
  <fix>3d</fix>
</trkpt>
<trkpt lat="33.810313" lon="-118.393867">
  <ele>-0.127</ele>
  <time>2026-09-01T01:12:22Z</time>
  <course>188.02</course>
  <speed>0.022360679774997897</speed>
  <fix>3d</fix>
</trkpt>
<trkpt lat="33.810313" lon="-118.393867">
  <ele>-0.12</ele>
  <time>2026-09-01T01:12:22Z</time>
  <course>0.0</course>
  <speed>0.0</speed>
  <fix>3d</fix>
</trkpt>
<trkpt lat="33.810313" lon="-118.393867">
  <ele>-0.128</ele>
  <time>2026-09-01T01:12:22Z</time>
  <course>188.01</course>
  <speed>0.022360679774997897</speed>
  <fix>3d</fix>
</trkpt>
<trkpt lat="33.810313" lon="-118.393867">
  <ele>-0.12</ele>
  <time>2026-09-01T01:12:22Z</time>
  <course>0.0</course>
  <speed>0.0</speed>
  <fix>3d</fix>
</trkpt>
<trkpt lat="33.810313" lon="-118.393867">
  <ele>-0.128</ele>
  <time>2026-09-01T01:12:22Z</time>
  <course>188.0</course>
  <speed>0.022360679774997897</speed>
  <fix>3d</fix>
</trkpt>
<trkpt lat="33.810313" lon="-118.393867">
  <ele>-0.12</ele>
  <time>2026-09-01T01:12:22Z</time>
  <course>0.0</course>
  <speed>0.0</speed>
  <fix>3d</fix>
</trkpt>
<trkpt lat="33.810313" lon="-118.393867">
  <ele>-0.128</ele>
  <time>2026-09-01T01:12:22Z</time>
  <course>187.99</course>
  <speed>0.022360679774997897</speed>
  <fix>3d</fix>
</trkpt>
<trkpt lat="33.810313" lon="-118.393867">
  <ele>-0.12</ele>
  <time>2026-09-01T01:12:22Z</time>
  <course>0.0</course>
  <speed>0.0</speed>
  <fix>3d</fix>
</trkpt>
<trkpt lat="33.810313" lon="-118.393867">
  <ele>-0.126</ele>
  <time>2026-09-01T01:12:22Z</time>
  <course>187.99</course>
  <speed>0.022360679774997897</speed>
  <fix>3d</fix>
</trkpt>
<trkpt lat="33.810313" lon="-118.393867">
  <ele>-0.12</ele>
  <time>2026-09-01T01:12:22Z</time>
  <course>0.0</course>
  <speed>0.0</speed>
  <fix>3d</fix>
</trkpt>
<trkpt lat="33.810313" lon="-118.393867">
  <ele>-0.124</ele>
  <time>2026-09-01T01:12:22Z</time>
  <course>187.98</course>
  <speed>0.022360679774997897</speed>
  <fix>3d</fix>
</trkpt>
<trkpt lat="33.810313" lon="-118.393867">
  <ele>-0.12</ele>
  <time>2026-09-01T01:12:22Z</time>
  <course>0.0</course>
  <speed>0.0</speed>
  <fix>3d</fix>
</trkpt>
<trkpt lat="33.810313" lon="-118.393867">
  <ele>-0.122</ele>
  <time>2026-09-01T01:12:22Z</time>
  <course>187.97</course>
  <speed>0.022360679774997897</speed>
  <fix>3d</fix>
</trkpt>
<trkpt lat="33.810313" lon="-118.393867">
  <ele>-0.12</ele>
  <time>2026-09-01T01:12:22Z</time>
  <course>0.0</course>
  <speed>0.0</speed>
  <fix>3d</fix>
</trkpt>
<trkpt lat="33.810313" lon="-118.393867">
  <ele>-0.12</ele>
  <time>2026-09-01T01:12:22Z</time>
  <course>187.96</course>
  <speed>0.022360679774997897</speed>
  <fix>3d</fix>
</trkpt>
<trkpt lat="33.810313" lon="-118.393867">
  <ele>-0.12</ele>
  <time>2026-09-01T01:12:22Z</time>
  <course>0.0</course>
  <speed>0.0</speed>
  <fix>3d</fix>
</trkpt>
<trkpt lat="33.810313" lon="-118.393867">
  <ele>-0.12</ele>
  <time>2026-09-01T01:12:22Z</time>
  <course>187.95</course>
  <speed>0.022360679774997897</speed>
  <fix>3d</fix>
</trkpt>
<trkpt lat="33.810313" lon="-118.393867">
  <ele>-0.12</ele>
  <time>2026-09-01T01:12:22Z</time>
  <course>0.0</course>
  <speed>0.0</speed>
  <fix>3d</fix>
</trkpt>
<trkpt lat="33.810313" lon="-118.393867">
  <ele>-0.122</ele>
  <time>2026-09-01T01:12:22Z</time>
  <course>187.94</course>
  <speed>0.022360679774997897</speed>
  <fix>3d</fix>
</trkpt>
<trkpt lat="33.810313" lon="-118.393867">
  <ele>-0.12</ele>
  <time>2026-09-01T01:12:22Z</time>
  <course>0.0</course>
  <speed>0.0</speed>
  <fix>3d</fix>
</trkpt>
<trkpt lat="33.810313" lon="-118.393867">
  <ele>-0.125</ele>
  <time>2026-09-01T01:12:22Z</time>
  <course>187.94</course>
  <speed>0.022360679774997897</speed>
  <fix>3d</fix>
</trkpt>
<trkpt lat="33.810313" lon="-118.393867">
  <ele>-0.12</ele>
  <time>2026-09-01T01:12:22Z</time>
  <course>0.0</course>
  <speed>0.0</speed>
  <fix>3d</fix>
</trkpt>
<trkpt lat="33.810313" lon="-118.393867">
  <ele>-0.128</ele>
  <time>2026-09-01T01:12:22Z</time>
  <course>187.93</course>
  <speed>0.022360679774997897</speed>
  <fix>3d</fix>
</trkpt>
<trkpt lat="33.810313" lon="-118.393867">
  <ele>-0.12</ele>
  <time>2026-09-01T01:12:22Z</time>
  <course>0.0</course>
  <speed>0.0</speed>
  <fix>3d</fix>
</trkpt>
<trkpt lat="33.810313" lon="-118.393867">
  <ele>-0.131</ele>
  <time>2026-09-01T01:12:22Z</time>
  <course>187.92</course>
  <speed>0.022360679774997897</speed>
  <fix>3d</fix>
</trkpt>
<trkpt lat="33.810313" lon="-118.393867">
  <ele>-0.12</ele>
  <time>2026-09-01T01:12:22Z</time>
  <course>0.0</course>
  <speed>0.0</speed>
  <fix>3d</fix>
</trkpt>
<trkpt lat="33.810313" lon="-118.393867">
  <ele>-0.132</ele>
  <time>2026-09-01T01:12:22Z</time>
  <course>187.91</course>
  <speed>0.022360679774997897</speed>
  <fix>3d</fix>
</trkpt>
<trkpt lat="33.810313" lon="-118.393867">
  <ele>-0.12</ele>
  <time>2026-09-01T01:12:22Z</time>
  <course>0.0</course>
  <speed>0.0</speed>
  <fix>3d</fix>
</trkpt>
<trkpt lat="33.810313" lon="-118.393867">
  <ele>-0.132</ele>
  <time>2026-09-01T01:12:22Z</time>
  <course>187.91</course>
  <speed>0.022360679774997897</speed>
  <fix>3d</fix>
</trkpt>
<trkpt lat="33.810313" lon="-118.393867">
  <ele>-0.12</ele>
  <time>2026-09-01T01:12:22Z</time>
  <course>0.0</course>
  <speed>0.0</speed>
  <fix>3d</fix>
</trkpt>
<trkpt lat="33.810313" lon="-118.393867">
  <ele>-0.132</ele>
  <time>2026-09-01T01:12:22Z</time>
  <course>187.9</course>
  <speed>0.022360679774997897</speed>
  <fix>3d</fix>
</trkpt>
<trkpt lat="33.810313" lon="-118.393867">
  <ele>-0.12</ele>
  <time>2026-09-01T01:12:22Z</time>
  <course>0.0</course>
  <speed>0.0</speed>
  <fix>3d</fix>
</trkpt>
<trkpt lat="33.810313" lon="-118.393867">
  <ele>-0.13</ele>
  <time>2026-09-01T01:12:22Z</time>
  <course>187.89</course>
  <speed>0.022360679774997897</speed>
  <fix>3d</fix>
</trkpt>
<trkpt lat="33.810313" lon="-118.393867">
  <ele>-0.12</ele>
  <time>2026-09-01T01:12:22Z</time>
  <course>0.0</course>
  <speed>0.0</speed>
  <fix>3d</fix>
</trkpt>
<trkpt lat="33.810313" lon="-118.393867">
  <ele>-0.127</ele>
  <time>2026-09-01T01:12:22Z</time>
  <course>187.88</course>
  <speed>0.022360679774997897</speed>
  <fix>3d</fix>
</trkpt>
<trkpt lat="33.810313" lon="-118.393867">
  <ele>-0.12</ele>
  <time>2026-09-01T01:12:22Z</time>
  <course>0.0</course>
  <speed>0.0</speed>
  <fix>3d</fix>
</trkpt>
<trkpt lat="33.810313" lon="-118.393867">
  <ele>-0.123</ele>
  <time>2026-09-01T01:12:22Z</time>
  <course>187.87</course>
  <speed>0.022360679774997897</speed>
  <fix>3d</fix>
</trkpt>
<trkpt lat="33.810313" lon="-118.393867">
  <ele>-0.12</ele>
  <time>2026-09-01T01:12:22Z</time>
  <course>0.0</course>
  <speed>0.0</speed>
  <fix>3d</fix>
</trkpt>
<trkpt lat="33.810313" lon="-118.393867">
  <ele>-0.121</ele>
  <time>2026-09-01T01:12:22Z</time>
  <course>187.87</course>
  <speed>0.022360679774997897</speed>
  <fix>3d</fix>
</trkpt>
<trkpt lat="33.810313" lon="-118.393867">
  <ele>-0.12</ele>
  <time>2026-09-01T01:12:22Z</time>
  <course>0.0</course>
  <speed>0.0</speed>
  <fix>3d</fix>
</trkpt>
<trkpt lat="33.810313" lon="-118.393867">
  <ele>-0.121</ele>
  <time>2026-09-01T01:12:22Z</time>
  <course>187.86</course>
  <speed>0.022360679774997897</speed>
  <fix>3d</fix>
</trkpt>
<trkpt lat="33.810313" lon="-118.393867">
  <ele>-0.12</ele>
  <time>2026-09-01T01:12:22Z</time>
  <course>0.0</course>
  <speed>0.0</speed>
  <fix>3d</fix>
</trkpt>
<trkpt lat="33.810313" lon="-118.393867">
  <ele>-0.123</ele>
  <time>2026-09-01T01:12:22Z</time>
  <course>187.85</course>
  <speed>0.022360679774997897</speed>
  <fix>3d</fix>
</trkpt>
<trkpt lat="33.810313" lon="-118.393867">
  <ele>-0.12</ele>
  <time>2026-09-01T01:12:22Z</time>
  <course>0.0</course>
  <speed>0.0</speed>
  <fix>3d</fix>
</trkpt>
<trkpt lat="33.810313" lon="-118.393867">
  <ele>-0.124</ele>
  <time>2026-09-01T01:12:22Z</time>
  <course>187.84</course>
  <speed>0.022360679774997897</speed>
  <fix>3d</fix>
</trkpt>
<trkpt lat="33.810313" lon="-118.393867">
  <ele>-0.12</ele>
  <time>2026-09-01T01:12:22Z</time>
  <course>0.0</course>
  <speed>0.0</speed>
  <fix>3d</fix>
</trkpt>
<trkpt lat="33.810313" lon="-118.393867">
  <ele>-0.126</ele>
  <time>2026-09-01T01:12:22Z</time>
  <course>187.83</course>
  <speed>0.022360679774997897</speed>
  <fix>3d</fix>
</trkpt>
<trkpt lat="33.810313" lon="-118.393867">
  <ele>-0.12</ele>
  <time>2026-09-01T01:12:22Z</time>
  <course>0.0</course>
  <speed>0.0</speed>
  <fix>3d</fix>
</trkpt>
<trkpt lat="33.810313" lon="-118.393867">
  <ele>-0.127</ele>
  <time>2026-09-01T01:12:22Z</time>
  <course>187.83</course>
  <speed>0.022360679774997897</speed>
  <fix>3d</fix>
</trkpt>
<trkpt lat="33.810313" lon="-118.393867">
  <ele>-0.12</ele>
  <time>2026-09-01T01:12:22Z</time>
  <course>0.0</course>
  <speed>0.0</speed>
  <fix>3d</fix>
</trkpt>
<trkpt lat="33.810313" lon="-118.393867">
  <ele>-0.127</ele>
  <time>2026-09-01T01:12:22Z</time>
  <course>187.82</course>
  <speed>0.022360679774997897</speed>
  <fix>3d</fix>
</trkpt>
<trkpt lat="33.810313" lon="-118.393867">
  <ele>-0.12</ele>
  <time>2026-09-01T01:12:22Z</time>
  <course>0.0</course>
  <speed>0.0</speed>
  <fix>3d</fix>
</trkpt>
<trkpt lat="33.810313" lon="-118.393867">
  <ele>-0.127</ele>
  <time>2026-09-01T01:12:22Z</time>
  <course>187.81</course>
  <speed>0.022360679774997897</speed>
  <fix>3d</fix>
</trkpt>
<trkpt lat="33.810313" lon="-118.393867">
  <ele>-0.12</ele>
  <time>2026-09-01T01:12:22Z</time>
  <course>0.0</course>
  <speed>0.0</speed>
  <fix>3d</fix>
</trkpt>
<trkpt lat="33.810313" lon="-118.393867">
  <ele>-0.126</ele>
  <time>2026-09-01T01:12:22Z</time>
  <course>187.8</course>
  <speed>0.022360679774997897</speed>
  <fix>3d</fix>
</trkpt>
<trkpt lat="33.810313" lon="-118.393867">
  <ele>-0.12</ele>
  <time>2026-09-01T01:12:22Z</time>
  <course>0.0</course>
  <speed>0.0</speed>
  <fix>3d</fix>
</trkpt>
<trkpt lat="33.810313" lon="-118.393867">
  <ele>-0.124</ele>
  <time>2026-09-01T01:12:22Z</time>
  <course>187.8</course>
  <speed>0.022360679774997897</speed>
  <fix>3d</fix>
</trkpt>
<trkpt lat="33.810313" lon="-118.393867">
  <ele>-0.12</ele>
  <time>2026-09-01T01:12:22Z</time>
  <course>0.0</course>
  <speed>0.0</speed>
  <fix>3d</fix>
</trkpt>
<trkpt lat="33.810313" lon="-118.393867">
  <ele>-0.121</ele>
  <time>2026-09-01T01:12:22Z</time>
  <course>187.79</course>
  <speed>0.022360679774997897</speed>
  <fix>3d</fix>
</trkpt>
<trkpt lat="33.810313" lon="-118.393867">
  <ele>-0.12</ele>
  <time>2026-09-01T01:12:22Z</time>
  <course>0.0</course>
  <speed>0.0</speed>
  <fix>3d</fix>
</trkpt>
<trkpt lat="33.810313" lon="-118.393867">
  <ele>-0.119</ele>
  <time>2026-09-01T01:12:22Z</time>
  <course>187.78</course>
  <speed>0.022360679774997897</speed>
  <fix>3d</fix>
</trkpt>
<trkpt lat="33.810313" lon="-118.393867">
  <ele>-0.12</ele>
  <time>2026-09-01T01:12:22Z</time>
  <course>0.0</course>
  <speed>0.0</speed>
  <fix>3d</fix>
</trkpt>
<trkpt lat="33.810313" lon="-118.393867">
  <ele>-0.118</ele>
  <time>2026-09-01T01:12:22Z</time>
  <course>187.77</course>
  <speed>0.022360679774997897</speed>
  <fix>3d</fix>
</trkpt>
<trkpt lat="33.810313" lon="-118.393867">
  <ele>-0.12</ele>
  <time>2026-09-01T01:12:22Z</time>
  <course>0.0</course>
  <speed>0.0</speed>
  <fix>3d</fix>
</trkpt>
<trkpt lat="33.810313" lon="-118.393867">
  <ele>-0.118</ele>
  <time>2026-09-01T01:12:22Z</time>
  <course>187.77</course>
  <speed>0.022360679774997897</speed>
  <fix>3d</fix>
</trkpt>
<trkpt lat="33.810313" lon="-118.393867">
  <ele>-0.12</ele>
  <time>2026-09-01T01:12:22Z</time>
  <course>0.0</course>
  <speed>0.0</speed>
  <fix>3d</fix>
</trkpt>
<trkpt lat="33.810313" lon="-118.393867">
  <ele>-0.119</ele>
  <time>2026-09-01T01:12:22Z</time>
  <course>187.76</course>
  <speed>0.022360679774997897</speed>
  <fix>3d</fix>
</trkpt>
<trkpt lat="33.810313" lon="-118.393867">
  <ele>-0.12</ele>
  <time>2026-09-01T01:12:22Z</time>
  <course>0.0</course>
  <speed>0.0</speed>
  <fix>3d</fix>
</trkpt>
<trkpt lat="33.810313" lon="-118.393867">
  <ele>-0.12</ele>
  <time>2026-09-01T01:12:22Z</time>
  <course>187.75</course>
  <speed>0.022360679774997897</speed>
  <fix>3d</fix>
</trkpt>
<trkpt lat="33.810313" lon="-118.393867">
  <ele>-0.12</ele>
  <time>2026-09-01T01:12:22Z</time>
  <course>0.0</course>
  <speed>0.0</speed>
  <fix>3d</fix>
</trkpt>
<trkpt lat="33.810313" lon="-118.393867">
  <ele>-0.12</ele>
  <time>2026-09-01T01:12:22Z</time>
  <course>187.74</course>
  <speed>0.0282842712474619</speed>
  <fix>3d</fix>
</trkpt>
<trkpt lat="33.810313" lon="-118.393867">
  <ele>-0.12</ele>
  <time>2026-09-01T01:12:22Z</time>
  <course>0.0</course>
  <speed>0.0</speed>
  <fix>3d</fix>
</trkpt>
<trkpt lat="33.810313" lon="-118.393867">
  <ele>-0.12</ele>
  <time>2026-09-01T01:12:22Z</time>
  <course>187.74</course>
  <speed>0.0282842712474619</speed>
  <fix>3d</fix>
</trkpt>
<trkpt lat="33.810313" lon="-118.393867">
  <ele>-0.12</ele>
  <time>2026-09-01T01:12:22Z</time>
  <course>0.0</course>
  <speed>0.0</speed>
  <fix>3d</fix>
</trkpt>
<trkpt lat="33.810313" lon="-118.393867">
  <ele>-0.119</ele>
  <time>2026-09-01T01:12:22Z</time>
  <course>187.73</course>
  <speed>0.0282842712474619</speed>
  <fix>3d</fix>
</trkpt>
<trkpt lat="33.810313" lon="-118.393867">
  <ele>-0.12</ele>
  <time>2026-09-01T01:12:22Z</time>
  <course>0.0</course>
  <speed>0.0</speed>
  <fix>3d</fix>
</trkpt>
<trkpt lat="33.810313" lon="-118.393867">
  <ele>-0.118</ele>
  <time>2026-09-01T01:12:22Z</time>
  <course>187.72</course>
  <speed>0.0282842712474619</speed>
  <fix>3d</fix>
</trkpt>
<trkpt lat="33.810313" lon="-118.393867">
  <ele>-0.12</ele>
  <time>2026-09-01T01:12:22Z</time>
  <course>0.0</course>
  <speed>0.0</speed>
  <fix>3d</fix>
</trkpt>
<trkpt lat="33.810313" lon="-118.393867">
  <ele>-0.116</ele>
  <time>2026-09-01T01:12:22Z</time>
  <course>187.71</course>
  <speed>0.0282842712474619</speed>
  <fix>3d</fix>
</trkpt>
<trkpt lat="33.810313" lon="-118.393867">
  <ele>-0.12</ele>
  <time>2026-09-01T01:12:22Z</time>
  <course>0.0</course>
  <speed>0.0</speed>
  <fix>3d</fix>
</trkpt>
<trkpt lat="33.810313" lon="-118.393867">
  <ele>-0.114</ele>
  <time>2026-09-01T01:12:22Z</time>
  <course>187.71</course>
  <speed>0.0282842712474619</speed>
  <fix>3d</fix>
</trkpt>
<trkpt lat="33.810313" lon="-118.393867">
  <ele>-0.12</ele>
  <time>2026-09-01T01:12:22Z</time>
  <course>0.0</course>
  <speed>0.0</speed>
  <fix>3d</fix>
</trkpt>
<trkpt lat="33.810313" lon="-118.393867">
  <ele>-0.112</ele>
  <time>2026-09-01T01:12:22Z</time>
  <course>187.7</course>
  <speed>0.0282842712474619</speed>
  <fix>3d</fix>
</trkpt>
<trkpt lat="33.810313" lon="-118.393867">
  <ele>-0.12</ele>
  <time>2026-09-01T01:12:22Z</time>
  <course>0.0</course>
  <speed>0.0</speed>
  <fix>3d</fix>
</trkpt>
<trkpt lat="33.810313" lon="-118.393867">
  <ele>-0.113</ele>
  <time>2026-09-01T01:12:22Z</time>
  <course>187.69</course>
  <speed>0.0282842712474619</speed>
  <fix>3d</fix>
</trkpt>
<trkpt lat="33.810313" lon="-118.393867">
  <ele>-0.12</ele>
  <time>2026-09-01T01:12:22Z</time>
  <course>0.0</course>
  <speed>0.0</speed>
  <fix>3d</fix>
</trkpt>
<trkpt lat="33.810313" lon="-118.393867">
  <ele>-0.115</ele>
  <time>2026-09-01T01:12:22Z</time>
  <course>187.69</course>
  <speed>0.0282842712474619</speed>
  <fix>3d</fix>
</trkpt>
<trkpt lat="33.810313" lon="-118.393867">
  <ele>-0.12</ele>
  <time>2026-09-01T01:12:22Z</time>
  <course>0.0</course>
  <speed>0.0</speed>
  <fix>3d</fix>
</trkpt>
<trkpt lat="33.810313" lon="-118.393867">
  <ele>-0.119</ele>
  <time>2026-09-01T01:12:22Z</time>
  <course>187.68</course>
  <speed>0.0282842712474619</speed>
  <fix>3d</fix>
</trkpt>
<trkpt lat="33.810313" lon="-118.393867">
  <ele>-0.12</ele>
  <time>2026-09-01T01:12:22Z</time>
  <course>0.0</course>
  <speed>0.0</speed>
  <fix>3d</fix>
</trkpt>
<trkpt lat="33.810313" lon="-118.393867">
  <ele>-0.123</ele>
  <time>2026-09-01T01:12:22Z</time>
  <course>187.67</course>
  <speed>0.0282842712474619</speed>
  <fix>3d</fix>
</trkpt>
<trkpt lat="33.810313" lon="-118.393867">
  <ele>-0.12</ele>
  <time>2026-09-01T01:12:22Z</time>
  <course>0.0</course>
  <speed>0.0</speed>
  <fix>3d</fix>
</trkpt>
<trkpt lat="33.810313" lon="-118.393867">
  <ele>-0.128</ele>
  <time>2026-09-01T01:12:22Z</time>
  <course>187.66</course>
  <speed>0.0282842712474619</speed>
  <fix>3d</fix>
</trkpt>
<trkpt lat="33.810313" lon="-118.393867">
  <ele>-0.12</ele>
  <time>2026-09-01T01:12:22Z</time>
  <course>0.0</course>
  <speed>0.0</speed>
  <fix>3d</fix>
</trkpt>
<trkpt lat="33.810313" lon="-118.393867">
  <ele>-0.132</ele>
  <time>2026-09-01T01:12:22Z</time>
  <course>187.66</course>
  <speed>0.0282842712474619</speed>
  <fix>3d</fix>
</trkpt>
<trkpt lat="33.810313" lon="-118.393867">
  <ele>-0.12</ele>
  <time>2026-09-01T01:12:22Z</time>
  <course>0.0</course>
  <speed>0.0</speed>
  <fix>3d</fix>
</trkpt>
<trkpt lat="33.810313" lon="-118.393867">
  <ele>-0.134</ele>
  <time>2026-09-01T01:12:22Z</time>
  <course>187.65</course>
  <speed>0.0282842712474619</speed>
  <fix>3d</fix>
</trkpt>
<trkpt lat="33.810313" lon="-118.393867">
  <ele>-0.12</ele>
  <time>2026-09-01T01:12:22Z</time>
  <course>0.0</course>
  <speed>0.0</speed>
  <fix>3d</fix>
</trkpt>
<trkpt lat="33.810313" lon="-118.393867">
  <ele>-0.135</ele>
  <time>2026-09-01T01:12:22Z</time>
  <course>187.64</course>
  <speed>0.0282842712474619</speed>
  <fix>3d</fix>
</trkpt>
<trkpt lat="33.810313" lon="-118.393867">
  <ele>-0.12</ele>
  <time>2026-09-01T01:12:22Z</time>
  <course>0.0</course>
  <speed>0.0</speed>
  <fix>3d</fix>
</trkpt>
<trkpt lat="33.810313" lon="-118.393867">
  <ele>-0.135</ele>
  <time>2026-09-01T01:12:22Z</time>
  <course>187.64</course>
  <speed>0.0282842712474619</speed>
  <fix>3d</fix>
</trkpt>
<trkpt lat="33.810313" lon="-118.393867">
  <ele>-0.12</ele>
  <time>2026-09-01T01:12:22Z</time>
  <course>0.0</course>
  <speed>0.0</speed>
  <fix>3d</fix>
</trkpt>
<trkpt lat="33.810313" lon="-118.393867">
  <ele>-0.133</ele>
  <time>2026-09-01T01:12:22Z</time>
  <course>187.63</course>
  <speed>0.0282842712474619</speed>
  <fix>3d</fix>
</trkpt>
<trkpt lat="33.810313" lon="-118.393867">
  <ele>-0.12</ele>
  <time>2026-09-01T01:12:22Z</time>
  <course>0.0</course>
  <speed>0.0</speed>
  <fix>3d</fix>
</trkpt>
<trkpt lat="33.810313" lon="-118.393867">
  <ele>-0.132</ele>
  <time>2026-09-01T01:12:22Z</time>
  <course>187.63</course>
  <speed>0.0282842712474619</speed>
  <fix>3d</fix>
</trkpt>
<trkpt lat="33.810313" lon="-118.393867">
  <ele>-0.12</ele>
  <time>2026-09-01T01:12:22Z</time>
  <course>0.0</course>
  <speed>0.0</speed>
  <fix>3d</fix>
</trkpt>
<trkpt lat="33.810313" lon="-118.393867">
  <ele>-0.132</ele>
  <time>2026-09-01T01:12:22Z</time>
  <course>187.62</course>
  <speed>0.03605551275463989</speed>
  <fix>3d</fix>
</trkpt>
<trkpt lat="33.810313" lon="-118.393867">
  <ele>-0.12</ele>
  <time>2026-09-01T01:12:22Z</time>
  <course>0.0</course>
  <speed>0.0</speed>
  <fix>3d</fix>
</trkpt>
<trkpt lat="33.810313" lon="-118.393867">
  <ele>-0.132</ele>
  <time>2026-09-01T01:12:22Z</time>
  <course>187.61</course>
  <speed>0.03605551275463989</speed>
  <fix>3d</fix>
</trkpt>
<trkpt lat="33.810313" lon="-118.393867">
  <ele>-0.12</ele>
  <time>2026-09-01T01:12:22Z</time>
  <course>0.0</course>
  <speed>0.0</speed>
  <fix>3d</fix>
</trkpt>
<trkpt lat="33.810313" lon="-118.393867">
  <ele>-0.133</ele>
  <time>2026-09-01T01:12:22Z</time>
  <course>187.61</course>
  <speed>0.03605551275463989</speed>
  <fix>3d</fix>
</trkpt>
<trkpt lat="33.810313" lon="-118.393867">
  <ele>-0.12</ele>
  <time>2026-09-01T01:12:22Z</time>
  <course>0.0</course>
  <speed>0.0</speed>
  <fix>3d</fix>
</trkpt>
<trkpt lat="33.810313" lon="-118.393867">
  <ele>-0.134</ele>
  <time>2026-09-01T01:12:22Z</time>
  <course>187.6</course>
  <speed>0.03605551275463989</speed>
  <fix>3d</fix>
</trkpt>
<trkpt lat="33.810313" lon="-118.393867">
  <ele>-0.12</ele>
  <time>2026-09-01T01:12:22Z</time>
  <course>0.0</course>
  <speed>0.0</speed>
  <fix>3d</fix>
</trkpt>
<trkpt lat="33.810313" lon="-118.393867">
  <ele>-0.133</ele>
  <time>2026-09-01T01:12:22Z</time>
  <course>187.59</course>
  <speed>0.03605551275463989</speed>
  <fix>3d</fix>
</trkpt>
<trkpt lat="33.810313" lon="-118.393867">
  <ele>-0.12</ele>
  <time>2026-09-01T01:12:22Z</time>
  <course>0.0</course>
  <speed>0.0</speed>
  <fix>3d</fix>
</trkpt>
<trkpt lat="33.810313" lon="-118.393867">
  <ele>-0.132</ele>
  <time>2026-09-01T01:12:22Z</time>
  <course>187.59</course>
  <speed>0.03605551275463989</speed>
  <fix>3d</fix>
</trkpt>
<trkpt lat="33.810313" lon="-118.393867">
  <ele>-0.12</ele>
  <time>2026-09-01T01:12:22Z</time>
  <course>0.0</course>
  <speed>0.0</speed>
  <fix>3d</fix>
</trkpt>
<trkpt lat="33.810313" lon="-118.393867">
  <ele>-0.13</ele>
  <time>2026-09-01T01:12:22Z</time>
  <course>187.58</course>
  <speed>0.03605551275463989</speed>
  <fix>3d</fix>
</trkpt>
<trkpt lat="33.810313" lon="-118.393867">
  <ele>-0.12</ele>
  <time>2026-09-01T01:12:22Z</time>
  <course>0.0</course>
  <speed>0.0</speed>
  <fix>3d</fix>
</trkpt>
<trkpt lat="33.810313" lon="-118.393867">
  <ele>-0.127</ele>
  <time>2026-09-01T01:12:22Z</time>
  <course>187.57</course>
  <speed>0.03605551275463989</speed>
  <fix>3d</fix>
</trkpt>
<trkpt lat="33.810313" lon="-118.393867">
  <ele>-0.12</ele>
  <time>2026-09-01T01:12:22Z</time>
  <course>0.0</course>
  <speed>0.0</speed>
  <fix>3d</fix>
</trkpt>
<trkpt lat="33.810313" lon="-118.393867">
  <ele>-0.125</ele>
  <time>2026-09-01T01:12:22Z</time>
  <course>187.57</course>
  <speed>0.03605551275463989</speed>
  <fix>3d</fix>
</trkpt>
<trkpt lat="33.810313" lon="-118.393867">
  <ele>-0.12</ele>
  <time>2026-09-01T01:12:22Z</time>
  <course>0.0</course>
  <speed>0.0</speed>
  <fix>3d</fix>
</trkpt>
<trkpt lat="33.810313" lon="-118.393867">
  <ele>-0.122</ele>
  <time>2026-09-01T01:12:22Z</time>
  <course>187.56</course>
  <speed>0.03605551275463989</speed>
  <fix>3d</fix>
</trkpt>
<trkpt lat="33.810313" lon="-118.393867">
  <ele>-0.12</ele>
  <time>2026-09-01T01:12:22Z</time>
  <course>0.0</course>
  <speed>0.0</speed>
  <fix>3d</fix>
</trkpt>
<trkpt lat="33.810313" lon="-118.393867">
  <ele>-0.119</ele>
  <time>2026-09-01T01:12:22Z</time>
  <course>187.55</course>
  <speed>0.03605551275463989</speed>
  <fix>3d</fix>
</trkpt>
<trkpt lat="33.810313" lon="-118.393867">
  <ele>-0.12</ele>
  <time>2026-09-01T01:12:22Z</time>
  <course>0.0</course>
  <speed>0.0</speed>
  <fix>3d</fix>
</trkpt>
<trkpt lat="33.810313" lon="-118.393867">
  <ele>-0.117</ele>
  <time>2026-09-01T01:12:22Z</time>
  <course>187.55</course>
  <speed>0.03605551275463989</speed>
  <fix>3d</fix>
</trkpt>
<trkpt lat="33.810313" lon="-118.393867">
  <ele>-0.12</ele>
  <time>2026-09-01T01:12:22Z</time>
  <course>0.0</course>
  <speed>0.0</speed>
  <fix>3d</fix>
</trkpt>
<trkpt lat="33.810313" lon="-118.393867">
  <ele>-0.117</ele>
  <time>2026-09-01T01:12:22Z</time>
  <course>187.54</course>
  <speed>0.03605551275463989</speed>
  <fix>3d</fix>
</trkpt>
<trkpt lat="33.810313" lon="-118.393867">
  <ele>-0.12</ele>
  <time>2026-09-01T01:12:22Z</time>
  <course>0.0</course>
  <speed>0.0</speed>
  <fix>3d</fix>
</trkpt>
<trkpt lat="33.810313" lon="-118.393867">
  <ele>-0.118</ele>
  <time>2026-09-01T01:12:22Z</time>
  <course>187.53</course>
  <speed>0.03605551275463989</speed>
  <fix>3d</fix>
</trkpt>
<trkpt lat="33.810313" lon="-118.393867">
  <ele>-0.12</ele>
  <time>2026-09-01T01:12:22Z</time>
  <course>0.0</course>
  <speed>0.0</speed>
  <fix>3d</fix>
</trkpt>
<trkpt lat="33.810313" lon="-118.393867">
  <ele>-0.119</ele>
  <time>2026-09-01T01:12:22Z</time>
  <course>187.53</course>
  <speed>0.03605551275463989</speed>
  <fix>3d</fix>
</trkpt>
<trkpt lat="33.810313" lon="-118.393867">
  <ele>-0.12</ele>
  <time>2026-09-01T01:12:22Z</time>
  <course>0.0</course>
  <speed>0.0</speed>
  <fix>3d</fix>
</trkpt>
<trkpt lat="33.810313" lon="-118.393867">
  <ele>-0.12</ele>
  <time>2026-09-01T01:12:22Z</time>
  <course>187.52</course>
  <speed>0.03605551275463989</speed>
  <fix>3d</fix>
</trkpt>
<trkpt lat="33.810313" lon="-118.393867">
  <ele>-0.12</ele>
  <time>2026-09-01T01:12:22Z</time>
  <course>0.0</course>
  <speed>0.0</speed>
  <fix>3d</fix>
</trkpt>
<trkpt lat="33.810313" lon="-118.393867">
  <ele>-0.121</ele>
  <time>2026-09-01T01:12:22Z</time>
  <course>187.51</course>
  <speed>0.03605551275463989</speed>
  <fix>3d</fix>
</trkpt>
<trkpt lat="33.810313" lon="-118.393867">
  <ele>-0.12</ele>
  <time>2026-09-01T01:12:22Z</time>
  <course>0.0</course>
  <speed>0.0</speed>
  <fix>3d</fix>
</trkpt>
<trkpt lat="33.810313" lon="-118.393867">
  <ele>-0.121</ele>
  <time>2026-09-01T01:12:22Z</time>
  <course>187.51</course>
  <speed>0.03605551275463989</speed>
  <fix>3d</fix>
</trkpt>
<trkpt lat="33.810313" lon="-118.393867">
  <ele>-0.12</ele>
  <time>2026-09-01T01:12:22Z</time>
  <course>0.0</course>
  <speed>0.0</speed>
  <fix>3d</fix>
</trkpt>
<trkpt lat="33.810313" lon="-118.393867">
  <ele>-0.121</ele>
  <time>2026-09-01T01:12:22Z</time>
  <course>187.5</course>
  <speed>0.03605551275463989</speed>
  <fix>3d</fix>
</trkpt>
<trkpt lat="33.810313" lon="-118.393867">
  <ele>-0.12</ele>
  <time>2026-09-01T01:12:22Z</time>
  <course>0.0</course>
  <speed>0.0</speed>
  <fix>3d</fix>
</trkpt>
<trkpt lat="33.810313" lon="-118.393867">
  <ele>-0.121</ele>
  <time>2026-09-01T01:12:22Z</time>
  <course>187.49</course>
  <speed>0.03605551275463989</speed>
  <fix>3d</fix>
</trkpt>
<trkpt lat="33.810313" lon="-118.393867">
  <ele>-0.12</ele>
  <time>2026-09-01T01:12:22Z</time>
  <course>0.0</course>
  <speed>0.0</speed>
  <fix>3d</fix>
</trkpt>
<trkpt lat="33.810313" lon="-118.393867">
  <ele>-0.121</ele>
  <time>2026-09-01T01:12:22Z</time>
  <course>187.49</course>
  <speed>0.03605551275463989</speed>
  <fix>3d</fix>
</trkpt>
<trkpt lat="33.810313" lon="-118.393867">
  <ele>-0.12</ele>
  <time>2026-09-01T01:12:22Z</time>
  <course>0.0</course>
  <speed>0.0</speed>
  <fix>3d</fix>
</trkpt>
<trkpt lat="33.810313" lon="-118.393867">
  <ele>-0.121</ele>
  <time>2026-09-01T01:12:22Z</time>
  <course>187.48</course>
  <speed>0.03605551275463989</speed>
  <fix>3d</fix>
</trkpt>
<trkpt lat="33.810313" lon="-118.393867">
  <ele>-0.12</ele>
  <time>2026-09-01T01:12:22Z</time>
  <course>0.0</course>
  <speed>0.0</speed>
  <fix>3d</fix>
</trkpt>
<trkpt lat="33.810313" lon="-118.393867">
  <ele>-0.122</ele>
  <time>2026-09-01T01:12:22Z</time>
  <course>187.47</course>
  <speed>0.03605551275463989</speed>
  <fix>3d</fix>
</trkpt>
<trkpt lat="33.810313" lon="-118.393867">
  <ele>-0.12</ele>
  <time>2026-09-01T01:12:22Z</time>
  <course>0.0</course>
  <speed>0.0</speed>
  <fix>3d</fix>
</trkpt>
<trkpt lat="33.810313" lon="-118.393867">
  <ele>-0.124</ele>
  <time>2026-09-01T01:12:22Z</time>
  <course>187.47</course>
  <speed>0.03605551275463989</speed>
  <fix>3d</fix>
</trkpt>
<trkpt lat="33.810313" lon="-118.393867">
  <ele>-0.12</ele>
  <time>2026-09-01T01:12:22Z</time>
  <course>0.0</course>
  <speed>0.0</speed>
  <fix>3d</fix>
</trkpt>
<trkpt lat="33.810313" lon="-118.393867">
  <ele>-0.127</ele>
  <time>2026-09-01T01:12:22Z</time>
  <course>187.46</course>
  <speed>0.03605551275463989</speed>
  <fix>3d</fix>
</trkpt>
<trkpt lat="33.810313" lon="-118.393867">
  <ele>-0.12</ele>
  <time>2026-09-01T01:12:22Z</time>
  <course>0.0</course>
  <speed>0.0</speed>
  <fix>3d</fix>
</trkpt>
<trkpt lat="33.810313" lon="-118.393867">
  <ele>-0.129</ele>
  <time>2026-09-01T01:12:22Z</time>
  <course>187.46</course>
  <speed>0.03605551275463989</speed>
  <fix>3d</fix>
</trkpt>
<trkpt lat="33.810313" lon="-118.393867">
  <ele>-0.12</ele>
  <time>2026-09-01T01:12:22Z</time>
  <course>0.0</course>
  <speed>0.0</speed>
  <fix>3d</fix>
</trkpt>
<trkpt lat="33.810313" lon="-118.393867">
  <ele>-0.131</ele>
  <time>2026-09-01T01:12:22Z</time>
  <course>187.45</course>
  <speed>0.03605551275463989</speed>
  <fix>3d</fix>
</trkpt>
<trkpt lat="33.810313" lon="-118.393867">
  <ele>-0.12</ele>
  <time>2026-09-01T01:12:22Z</time>
  <course>0.0</course>
  <speed>0.0</speed>
  <fix>3d</fix>
</trkpt>
<trkpt lat="33.810313" lon="-118.393867">
  <ele>-0.132</ele>
  <time>2026-09-01T01:12:22Z</time>
  <course>187.44</course>
  <speed>0.03605551275463989</speed>
  <fix>3d</fix>
</trkpt>
<trkpt lat="33.810313" lon="-118.393867">
  <ele>-0.12</ele>
  <time>2026-09-01T01:12:22Z</time>
  <course>0.0</course>
  <speed>0.0</speed>
  <fix>3d</fix>
</trkpt>
<trkpt lat="33.810313" lon="-118.393867">
  <ele>-0.132</ele>
  <time>2026-09-01T01:12:22Z</time>
  <course>187.44</course>
  <speed>0.03605551275463989</speed>
  <fix>3d</fix>
</trkpt>
<trkpt lat="33.810313" lon="-118.393867">
  <ele>-0.12</ele>
  <time>2026-09-01T01:12:22Z</time>
  <course>0.0</course>
  <speed>0.0</speed>
  <fix>3d</fix>
</trkpt>
<trkpt lat="33.810313" lon="-118.393867">
  <ele>-0.132</ele>
  <time>2026-09-01T01:12:22Z</time>
  <course>187.43</course>
  <speed>0.03605551275463989</speed>
  <fix>3d</fix>
</trkpt>
<trkpt lat="33.810313" lon="-118.393867">
  <ele>-0.12</ele>
  <time>2026-09-01T01:12:22Z</time>
  <course>0.0</course>
  <speed>0.0</speed>
  <fix>3d</fix>
</trkpt>
<trkpt lat="33.810313" lon="-118.393867">
  <ele>-0.132</ele>
  <time>2026-09-01T01:12:22Z</time>
  <course>187.42</course>
  <speed>0.03605551275463989</speed>
  <fix>3d</fix>
</trkpt>
<trkpt lat="33.810313" lon="-118.393867">
  <ele>-0.12</ele>
  <time>2026-09-01T01:12:22Z</time>
  <course>0.0</course>
  <speed>0.0</speed>
  <fix>3d</fix>
</trkpt>
<trkpt lat="33.810313" lon="-118.393867">
  <ele>-0.131</ele>
  <time>2026-09-01T01:12:22Z</time>
  <course>187.42</course>
  <speed>0.03605551275463989</speed>
  <fix>3d</fix>
</trkpt>
<trkpt lat="33.810313" lon="-118.393867">
  <ele>-0.12</ele>
  <time>2026-09-01T01:12:22Z</time>
  <course>0.0</course>
  <speed>0.0</speed>
  <fix>3d</fix>
</trkpt>
<trkpt lat="33.810313" lon="-118.393867">
  <ele>-0.131</ele>
  <time>2026-09-01T01:12:22Z</time>
  <course>187.41</course>
  <speed>0.03605551275463989</speed>
  <fix>3d</fix>
</trkpt>
<trkpt lat="33.810313" lon="-118.393867">
  <ele>-0.12</ele>
  <time>2026-09-01T01:12:23Z</time>
  <course>0.0</course>
  <speed>0.0</speed>
  <fix>3d</fix>
</trkpt>
<trkpt lat="33.810313" lon="-118.393867">
  <ele>-0.132</ele>
  <time>2026-09-01T01:12:23Z</time>
  <course>187.41</course>
  <speed>0.03605551275463989</speed>
  <fix>3d</fix>
</trkpt>
<trkpt lat="33.810313" lon="-118.393867">
  <ele>-0.12</ele>
  <time>2026-09-01T01:12:23Z</time>
  <course>0.0</course>
  <speed>0.0</speed>
  <fix>3d</fix>
</trkpt>
<trkpt lat="33.810313" lon="-118.393867">
  <ele>-0.134</ele>
  <time>2026-09-01T01:12:23Z</time>
  <course>187.4</course>
  <speed>0.03605551275463989</speed>
  <fix>3d</fix>
</trkpt>
<trkpt lat="33.810313" lon="-118.393867">
  <ele>-0.12</ele>
  <time>2026-09-01T01:12:23Z</time>
  <course>0.0</course>
  <speed>0.0</speed>
  <fix>3d</fix>
</trkpt>
<trkpt lat="33.810313" lon="-118.393867">
  <ele>-0.137</ele>
  <time>2026-09-01T01:12:23Z</time>
  <course>187.39</course>
  <speed>0.03605551275463989</speed>
  <fix>3d</fix>
</trkpt>
<trkpt lat="33.810313" lon="-118.393867">
  <ele>-0.12</ele>
  <time>2026-09-01T01:12:23Z</time>
  <course>0.0</course>
  <speed>0.0</speed>
  <fix>3d</fix>
</trkpt>
<trkpt lat="33.810313" lon="-118.393867">
  <ele>-0.139</ele>
  <time>2026-09-01T01:12:23Z</time>
  <course>187.39</course>
  <speed>0.03605551275463989</speed>
  <fix>3d</fix>
</trkpt>
<trkpt lat="33.810313" lon="-118.393867">
  <ele>-0.12</ele>
  <time>2026-09-01T01:12:23Z</time>
  <course>0.0</course>
  <speed>0.0</speed>
  <fix>3d</fix>
</trkpt>
<trkpt lat="33.810313" lon="-118.393867">
  <ele>-0.141</ele>
  <time>2026-09-01T01:12:23Z</time>
  <course>187.38</course>
  <speed>0.03605551275463989</speed>
  <fix>3d</fix>
</trkpt>
<trkpt lat="33.810313" lon="-118.393867">
  <ele>-0.12</ele>
  <time>2026-09-01T01:12:23Z</time>
  <course>0.0</course>
  <speed>0.0</speed>
  <fix>3d</fix>
</trkpt>
<trkpt lat="33.810313" lon="-118.393867">
  <ele>-0.141</ele>
  <time>2026-09-01T01:12:23Z</time>
  <course>187.38</course>
  <speed>0.03605551275463989</speed>
  <fix>3d</fix>
</trkpt>
<trkpt lat="33.810313" lon="-118.393867">
  <ele>-0.12</ele>
  <time>2026-09-01T01:12:23Z</time>
  <course>0.0</course>
  <speed>0.0</speed>
  <fix>3d</fix>
</trkpt>
<trkpt lat="33.810313" lon="-118.393867">
  <ele>-0.139</ele>
  <time>2026-09-01T01:12:23Z</time>
  <course>187.37</course>
  <speed>0.03605551275463989</speed>
  <fix>3d</fix>
</trkpt>
<trkpt lat="33.810313" lon="-118.393867">
  <ele>-0.12</ele>
  <time>2026-09-01T01:12:23Z</time>
  <course>0.0</course>
  <speed>0.0</speed>
  <fix>3d</fix>
</trkpt>
<trkpt lat="33.810313" lon="-118.393867">
  <ele>-0.136</ele>
  <time>2026-09-01T01:12:23Z</time>
  <course>187.36</course>
  <speed>0.03605551275463989</speed>
  <fix>3d</fix>
</trkpt>
<trkpt lat="33.810313" lon="-118.393867">
  <ele>-0.12</ele>
  <time>2026-09-01T01:12:23Z</time>
  <course>0.0</course>
  <speed>0.0</speed>
  <fix>3d</fix>
</trkpt>
<trkpt lat="33.810313" lon="-118.393867">
  <ele>-0.133</ele>
  <time>2026-09-01T01:12:23Z</time>
  <course>187.36</course>
  <speed>0.03605551275463989</speed>
  <fix>3d</fix>
</trkpt>
<trkpt lat="33.810313" lon="-118.393867">
  <ele>-0.12</ele>
  <time>2026-09-01T01:12:23Z</time>
  <course>0.0</course>
  <speed>0.0</speed>
  <fix>3d</fix>
</trkpt>
<trkpt lat="33.810313" lon="-118.393867">
  <ele>-0.129</ele>
  <time>2026-09-01T01:12:23Z</time>
  <course>187.35</course>
  <speed>0.03605551275463989</speed>
  <fix>3d</fix>
</trkpt>
<trkpt lat="33.810313" lon="-118.393867">
  <ele>-0.12</ele>
  <time>2026-09-01T01:12:23Z</time>
  <course>0.0</course>
  <speed>0.0</speed>
  <fix>3d</fix>
</trkpt>
<trkpt lat="33.810313" lon="-118.393867">
  <ele>-0.127</ele>
  <time>2026-09-01T01:12:23Z</time>
  <course>187.35</course>
  <speed>0.03605551275463989</speed>
  <fix>3d</fix>
</trkpt>
<trkpt lat="33.810313" lon="-118.393867">
  <ele>-0.12</ele>
  <time>2026-09-01T01:12:23Z</time>
  <course>0.0</course>
  <speed>0.0</speed>
  <fix>3d</fix>
</trkpt>
<trkpt lat="33.810313" lon="-118.393867">
  <ele>-0.127</ele>
  <time>2026-09-01T01:12:23Z</time>
  <course>187.34</course>
  <speed>0.03605551275463989</speed>
  <fix>3d</fix>
</trkpt>
<trkpt lat="33.810313" lon="-118.393867">
  <ele>-0.12</ele>
  <time>2026-09-01T01:12:23Z</time>
  <course>0.0</course>
  <speed>0.0</speed>
  <fix>3d</fix>
</trkpt>
<trkpt lat="33.810313" lon="-118.393867">
  <ele>-0.126</ele>
  <time>2026-09-01T01:12:23Z</time>
  <course>187.34</course>
  <speed>0.03605551275463989</speed>
  <fix>3d</fix>
</trkpt>
<trkpt lat="33.810313" lon="-118.393867">
  <ele>-0.12</ele>
  <time>2026-09-01T01:12:23Z</time>
  <course>0.0</course>
  <speed>0.0</speed>
  <fix>3d</fix>
</trkpt>
<trkpt lat="33.810313" lon="-118.393867">
  <ele>-0.126</ele>
  <time>2026-09-01T01:12:23Z</time>
  <course>187.33</course>
  <speed>0.03605551275463989</speed>
  <fix>3d</fix>
</trkpt>
<trkpt lat="33.810313" lon="-118.393867">
  <ele>-0.12</ele>
  <time>2026-09-01T01:12:23Z</time>
  <course>0.0</course>
  <speed>0.0</speed>
  <fix>3d</fix>
</trkpt>
<trkpt lat="33.810313" lon="-118.393867">
  <ele>-0.126</ele>
  <time>2026-09-01T01:12:23Z</time>
  <course>187.32</course>
  <speed>0.03605551275463989</speed>
  <fix>3d</fix>
</trkpt>
<trkpt lat="33.810313" lon="-118.393867">
  <ele>-0.12</ele>
  <time>2026-09-01T01:12:23Z</time>
  <course>0.0</course>
  <speed>0.0</speed>
  <fix>3d</fix>
</trkpt>
<trkpt lat="33.810313" lon="-118.393867">
  <ele>-0.126</ele>
  <time>2026-09-01T01:12:23Z</time>
  <course>187.32</course>
  <speed>0.03605551275463989</speed>
  <fix>3d</fix>
</trkpt>
<trkpt lat="33.810313" lon="-118.393867">
  <ele>-0.12</ele>
  <time>2026-09-01T01:12:23Z</time>
  <course>0.0</course>
  <speed>0.0</speed>
  <fix>3d</fix>
</trkpt>
<trkpt lat="33.810313" lon="-118.393867">
  <ele>-0.125</ele>
  <time>2026-09-01T01:12:23Z</time>
  <course>187.31</course>
  <speed>0.03605551275463989</speed>
  <fix>3d</fix>
</trkpt>
<trkpt lat="33.810313" lon="-118.393867">
  <ele>-0.12</ele>
  <time>2026-09-01T01:12:23Z</time>
  <course>0.0</course>
  <speed>0.0</speed>
  <fix>3d</fix>
</trkpt>
<trkpt lat="33.810313" lon="-118.393867">
  <ele>-0.124</ele>
  <time>2026-09-01T01:12:23Z</time>
  <course>187.31</course>
  <speed>0.03605551275463989</speed>
  <fix>3d</fix>
</trkpt>
<trkpt lat="33.810313" lon="-118.393867">
  <ele>-0.12</ele>
  <time>2026-09-01T01:12:23Z</time>
  <course>0.0</course>
  <speed>0.0</speed>
  <fix>3d</fix>
</trkpt>
<trkpt lat="33.810313" lon="-118.393867">
  <ele>-0.122</ele>
  <time>2026-09-01T01:12:23Z</time>
  <course>187.3</course>
  <speed>0.03605551275463989</speed>
  <fix>3d</fix>
</trkpt>
<trkpt lat="33.810313" lon="-118.393867">
  <ele>-0.12</ele>
  <time>2026-09-01T01:12:23Z</time>
  <course>0.0</course>
  <speed>0.0</speed>
  <fix>3d</fix>
</trkpt>
<trkpt lat="33.810313" lon="-118.393867">
  <ele>-0.121</ele>
  <time>2026-09-01T01:12:23Z</time>
  <course>187.3</course>
  <speed>0.03605551275463989</speed>
  <fix>3d</fix>
</trkpt>
<trkpt lat="33.810313" lon="-118.393867">
  <ele>-0.12</ele>
  <time>2026-09-01T01:12:23Z</time>
  <course>0.0</course>
  <speed>0.0</speed>
  <fix>3d</fix>
</trkpt>
<trkpt lat="33.810313" lon="-118.393867">
  <ele>-0.122</ele>
  <time>2026-09-01T01:12:23Z</time>
  <course>187.29</course>
  <speed>0.03605551275463989</speed>
  <fix>3d</fix>
</trkpt>
<trkpt lat="33.810313" lon="-118.393867">
  <ele>-0.12</ele>
  <time>2026-09-01T01:12:23Z</time>
  <course>0.0</course>
  <speed>0.0</speed>
  <fix>3d</fix>
</trkpt>
<trkpt lat="33.810313" lon="-118.393867">
  <ele>-0.124</ele>
  <time>2026-09-01T01:12:23Z</time>
  <course>187.28</course>
  <speed>0.03605551275463989</speed>
  <fix>3d</fix>
</trkpt>
<trkpt lat="33.810313" lon="-118.393867">
  <ele>-0.12</ele>
  <time>2026-09-01T01:12:23Z</time>
  <course>0.0</course>
  <speed>0.0</speed>
  <fix>3d</fix>
</trkpt>
<trkpt lat="33.810313" lon="-118.393867">
  <ele>-0.127</ele>
  <time>2026-09-01T01:12:23Z</time>
  <course>187.28</course>
  <speed>0.03605551275463989</speed>
  <fix>3d</fix>
</trkpt>
<trkpt lat="33.810313" lon="-118.393867">
  <ele>-0.12</ele>
  <time>2026-09-01T01:12:23Z</time>
  <course>0.0</course>
  <speed>0.0</speed>
  <fix>3d</fix>
</trkpt>
<trkpt lat="33.810313" lon="-118.393867">
  <ele>-0.13</ele>
  <time>2026-09-01T01:12:23Z</time>
  <course>187.27</course>
  <speed>0.03605551275463989</speed>
  <fix>3d</fix>
</trkpt>
<trkpt lat="33.810313" lon="-118.393867">
  <ele>-0.12</ele>
  <time>2026-09-01T01:12:23Z</time>
  <course>0.0</course>
  <speed>0.0</speed>
  <fix>3d</fix>
</trkpt>
<trkpt lat="33.810313" lon="-118.393867">
  <ele>-0.132</ele>
  <time>2026-09-01T01:12:23Z</time>
  <course>187.27</course>
  <speed>0.03605551275463989</speed>
  <fix>3d</fix>
</trkpt>
<trkpt lat="33.810313" lon="-118.393867">
  <ele>-0.12</ele>
  <time>2026-09-01T01:12:23Z</time>
  <course>0.0</course>
  <speed>0.0</speed>
  <fix>3d</fix>
</trkpt>
<trkpt lat="33.810313" lon="-118.393867">
  <ele>-0.134</ele>
  <time>2026-09-01T01:12:23Z</time>
  <course>187.26</course>
  <speed>0.03605551275463989</speed>
  <fix>3d</fix>
</trkpt>
<trkpt lat="33.810313" lon="-118.393867">
  <ele>-0.12</ele>
  <time>2026-09-01T01:12:23Z</time>
  <course>0.0</course>
  <speed>0.0</speed>
  <fix>3d</fix>
</trkpt>
<trkpt lat="33.810313" lon="-118.393867">
  <ele>-0.136</ele>
  <time>2026-09-01T01:12:23Z</time>
  <course>187.26</course>
  <speed>0.03605551275463989</speed>
  <fix>3d</fix>
</trkpt>
<trkpt lat="33.810313" lon="-118.393867">
  <ele>-0.12</ele>
  <time>2026-09-01T01:12:23Z</time>
  <course>0.0</course>
  <speed>0.0</speed>
  <fix>3d</fix>
</trkpt>
<trkpt lat="33.810313" lon="-118.393867">
  <ele>-0.136</ele>
  <time>2026-09-01T01:12:23Z</time>
  <course>187.25</course>
  <speed>0.03605551275463989</speed>
  <fix>3d</fix>
</trkpt>
<trkpt lat="33.810313" lon="-118.393867">
  <ele>-0.12</ele>
  <time>2026-09-01T01:12:23Z</time>
  <course>0.0</course>
  <speed>0.0</speed>
  <fix>3d</fix>
</trkpt>
<trkpt lat="33.810313" lon="-118.393867">
  <ele>-0.135</ele>
  <time>2026-09-01T01:12:23Z</time>
  <course>187.25</course>
  <speed>0.03605551275463989</speed>
  <fix>3d</fix>
</trkpt>
<trkpt lat="33.810313" lon="-118.393867">
  <ele>-0.12</ele>
  <time>2026-09-01T01:12:23Z</time>
  <course>0.0</course>
  <speed>0.0</speed>
  <fix>3d</fix>
</trkpt>
<trkpt lat="33.810313" lon="-118.393867">
  <ele>-0.134</ele>
  <time>2026-09-01T01:12:23Z</time>
  <course>187.24</course>
  <speed>0.03605551275463989</speed>
  <fix>3d</fix>
</trkpt>
<trkpt lat="33.810313" lon="-118.393867">
  <ele>-0.12</ele>
  <time>2026-09-01T01:12:23Z</time>
  <course>0.0</course>
  <speed>0.0</speed>
  <fix>3d</fix>
</trkpt>
<trkpt lat="33.810313" lon="-118.393867">
  <ele>-0.132</ele>
  <time>2026-09-01T01:12:23Z</time>
  <course>187.24</course>
  <speed>0.03605551275463989</speed>
  <fix>3d</fix>
</trkpt>
<trkpt lat="33.810313" lon="-118.393867">
  <ele>-0.12</ele>
  <time>2026-09-01T01:12:23Z</time>
  <course>0.0</course>
  <speed>0.0</speed>
  <fix>3d</fix>
</trkpt>
<trkpt lat="33.810313" lon="-118.393867">
  <ele>-0.131</ele>
  <time>2026-09-01T01:12:23Z</time>
  <course>187.23</course>
  <speed>0.03605551275463989</speed>
  <fix>3d</fix>
</trkpt>
<trkpt lat="33.810313" lon="-118.393867">
  <ele>-0.12</ele>
  <time>2026-09-01T01:12:23Z</time>
  <course>0.0</course>
  <speed>0.0</speed>
  <fix>3d</fix>
</trkpt>
<trkpt lat="33.810313" lon="-118.393867">
  <ele>-0.131</ele>
  <time>2026-09-01T01:12:23Z</time>
  <course>187.23</course>
  <speed>0.03605551275463989</speed>
  <fix>3d</fix>
</trkpt>
<trkpt lat="33.810313" lon="-118.393867">
  <ele>-0.12</ele>
  <time>2026-09-01T01:12:23Z</time>
  <course>0.0</course>
  <speed>0.0</speed>
  <fix>3d</fix>
</trkpt>
<trkpt lat="33.810313" lon="-118.393867">
  <ele>-0.132</ele>
  <time>2026-09-01T01:12:23Z</time>
  <course>187.22</course>
  <speed>0.03605551275463989</speed>
  <fix>3d</fix>
</trkpt>
<trkpt lat="33.810313" lon="-118.393867">
  <ele>-0.12</ele>
  <time>2026-09-01T01:12:23Z</time>
  <course>0.0</course>
  <speed>0.0</speed>
  <fix>3d</fix>
</trkpt>
<trkpt lat="33.810313" lon="-118.393867">
  <ele>-0.132</ele>
  <time>2026-09-01T01:12:23Z</time>
  <course>187.21</course>
  <speed>0.03605551275463989</speed>
  <fix>3d</fix>
</trkpt>
<trkpt lat="33.810313" lon="-118.393867">
  <ele>-0.12</ele>
  <time>2026-09-01T01:12:23Z</time>
  <course>0.0</course>
  <speed>0.0</speed>
  <fix>3d</fix>
</trkpt>
<trkpt lat="33.810313" lon="-118.393867">
  <ele>-0.133</ele>
  <time>2026-09-01T01:12:23Z</time>
  <course>187.21</course>
  <speed>0.03605551275463989</speed>
  <fix>3d</fix>
</trkpt>
<trkpt lat="33.810313" lon="-118.393867">
  <ele>-0.12</ele>
  <time>2026-09-01T01:12:23Z</time>
  <course>0.0</course>
  <speed>0.0</speed>
  <fix>3d</fix>
</trkpt>
<trkpt lat="33.810313" lon="-118.393867">
  <ele>-0.132</ele>
  <time>2026-09-01T01:12:23Z</time>
  <course>187.2</course>
  <speed>0.03605551275463989</speed>
  <fix>3d</fix>
</trkpt>
<trkpt lat="33.810313" lon="-118.393867">
  <ele>-0.12</ele>
  <time>2026-09-01T01:12:23Z</time>
  <course>0.0</course>
  <speed>0.0</speed>
  <fix>3d</fix>
</trkpt>
<trkpt lat="33.810313" lon="-118.393867">
  <ele>-0.131</ele>
  <time>2026-09-01T01:12:23Z</time>
  <course>187.2</course>
  <speed>0.03605551275463989</speed>
  <fix>3d</fix>
</trkpt>
<trkpt lat="33.810313" lon="-118.393867">
  <ele>-0.12</ele>
  <time>2026-09-01T01:12:23Z</time>
  <course>0.0</course>
  <speed>0.0</speed>
  <fix>3d</fix>
</trkpt>
<trkpt lat="33.810313" lon="-118.393867">
  <ele>-0.129</ele>
  <time>2026-09-01T01:12:23Z</time>
  <course>187.19</course>
  <speed>0.03605551275463989</speed>
  <fix>3d</fix>
</trkpt>
<trkpt lat="33.810313" lon="-118.393867">
  <ele>-0.12</ele>
  <time>2026-09-01T01:12:23Z</time>
  <course>0.0</course>
  <speed>0.0</speed>
  <fix>3d</fix>
</trkpt>
<trkpt lat="33.810313" lon="-118.393867">
  <ele>-0.126</ele>
  <time>2026-09-01T01:12:23Z</time>
  <course>187.19</course>
  <speed>0.03605551275463989</speed>
  <fix>3d</fix>
</trkpt>
<trkpt lat="33.810313" lon="-118.393867">
  <ele>-0.12</ele>
  <time>2026-09-01T01:12:23Z</time>
  <course>0.0</course>
  <speed>0.0</speed>
  <fix>3d</fix>
</trkpt>
<trkpt lat="33.810313" lon="-118.393867">
  <ele>-0.124</ele>
  <time>2026-09-01T01:12:23Z</time>
  <course>187.18</course>
  <speed>0.03605551275463989</speed>
  <fix>3d</fix>
</trkpt>
<trkpt lat="33.810313" lon="-118.393867">
  <ele>-0.12</ele>
  <time>2026-09-01T01:12:23Z</time>
  <course>0.0</course>
  <speed>0.0</speed>
  <fix>3d</fix>
</trkpt>
<trkpt lat="33.810313" lon="-118.393867">
  <ele>-0.123</ele>
  <time>2026-09-01T01:12:23Z</time>
  <course>187.18</course>
  <speed>0.03605551275463989</speed>
  <fix>3d</fix>
</trkpt>
<trkpt lat="33.810313" lon="-118.393867">
  <ele>-0.12</ele>
  <time>2026-09-01T01:12:23Z</time>
  <course>0.0</course>
  <speed>0.0</speed>
  <fix>3d</fix>
</trkpt>
<trkpt lat="33.810313" lon="-118.393867">
  <ele>-0.123</ele>
  <time>2026-09-01T01:12:23Z</time>
  <course>187.17</course>
  <speed>0.03605551275463989</speed>
  <fix>3d</fix>
</trkpt>
<trkpt lat="33.810313" lon="-118.393867">
  <ele>-0.12</ele>
  <time>2026-09-01T01:12:23Z</time>
  <course>0.0</course>
  <speed>0.0</speed>
  <fix>3d</fix>
</trkpt>
<trkpt lat="33.810313" lon="-118.393867">
  <ele>-0.122</ele>
  <time>2026-09-01T01:12:23Z</time>
  <course>187.17</course>
  <speed>0.0</speed>
  <fix>3d</fix>
</trkpt>
<trkpt lat="33.810313" lon="-118.393867">
  <ele>-0.12</ele>
  <time>2026-09-01T01:12:23Z</time>
  <course>0.0</course>
  <speed>0.0</speed>
  <fix>3d</fix>
</trkpt>
<trkpt lat="33.810313" lon="-118.393867">
  <ele>-0.121</ele>
  <time>2026-09-01T01:12:23Z</time>
  <course>187.16</course>
  <speed>0.0</speed>
  <fix>3d</fix>
</trkpt>
<trkpt lat="33.810313" lon="-118.393867">
  <ele>-0.12</ele>
  <time>2026-09-01T01:12:23Z</time>
  <course>0.0</course>
  <speed>0.0</speed>
  <fix>3d</fix>
</trkpt>
<trkpt lat="33.810313" lon="-118.393867">
  <ele>-0.121</ele>
  <time>2026-09-01T01:12:23Z</time>
  <course>187.16</course>
  <speed>0.0</speed>
  <fix>3d</fix>
</trkpt>
<trkpt lat="33.810313" lon="-118.393867">
  <ele>-0.12</ele>
  <time>2026-09-01T01:12:23Z</time>
  <course>0.0</course>
  <speed>0.0</speed>
  <fix>3d</fix>
</trkpt>
<trkpt lat="33.810313" lon="-118.393867">
  <ele>-0.119</ele>
  <time>2026-09-01T01:12:23Z</time>
  <course>187.15</course>
  <speed>0.0</speed>
  <fix>3d</fix>
</trkpt>
<trkpt lat="33.810313" lon="-118.393867">
  <ele>-0.12</ele>
  <time>2026-09-01T01:12:23Z</time>
  <course>0.0</course>
  <speed>0.0</speed>
  <fix>3d</fix>
</trkpt>
<trkpt lat="33.810313" lon="-118.393867">
  <ele>-0.116</ele>
  <time>2026-09-01T01:12:23Z</time>
  <course>187.15</course>
  <speed>0.0</speed>
  <fix>3d</fix>
</trkpt>
<trkpt lat="33.810313" lon="-118.393867">
  <ele>-0.12</ele>
  <time>2026-09-01T01:12:23Z</time>
  <course>0.0</course>
  <speed>0.0</speed>
  <fix>3d</fix>
</trkpt>
<trkpt lat="33.810313" lon="-118.393867">
  <ele>-0.114</ele>
  <time>2026-09-01T01:12:23Z</time>
  <course>187.14</course>
  <speed>0.0</speed>
  <fix>3d</fix>
</trkpt>
<trkpt lat="33.810313" lon="-118.393867">
  <ele>-0.12</ele>
  <time>2026-09-01T01:12:23Z</time>
  <course>0.0</course>
  <speed>0.0</speed>
  <fix>3d</fix>
</trkpt>
<trkpt lat="33.810313" lon="-118.393867">
  <ele>-0.113</ele>
  <time>2026-09-01T01:12:23Z</time>
  <course>187.14</course>
  <speed>0.0</speed>
  <fix>3d</fix>
</trkpt>
<trkpt lat="33.810313" lon="-118.393867">
  <ele>-0.12</ele>
  <time>2026-09-01T01:12:23Z</time>
  <course>0.0</course>
  <speed>0.0</speed>
  <fix>3d</fix>
</trkpt>
<trkpt lat="33.810313" lon="-118.393867">
  <ele>-0.112</ele>
  <time>2026-09-01T01:12:23Z</time>
  <course>187.13</course>
  <speed>0.0</speed>
  <fix>3d</fix>
</trkpt>
<trkpt lat="33.810313" lon="-118.393867">
  <ele>-0.12</ele>
  <time>2026-09-01T01:12:23Z</time>
  <course>0.0</course>
  <speed>0.0</speed>
  <fix>3d</fix>
</trkpt>
<trkpt lat="33.810313" lon="-118.393867">
  <ele>-0.113</ele>
  <time>2026-09-01T01:12:23Z</time>
  <course>187.13</course>
  <speed>0.0</speed>
  <fix>3d</fix>
</trkpt>
<trkpt lat="33.810313" lon="-118.393867">
  <ele>-0.12</ele>
  <time>2026-09-01T01:12:23Z</time>
  <course>0.0</course>
  <speed>0.0</speed>
  <fix>3d</fix>
</trkpt>
<trkpt lat="33.810313" lon="-118.393867">
  <ele>-0.114</ele>
  <time>2026-09-01T01:12:23Z</time>
  <course>187.12</course>
  <speed>0.0</speed>
  <fix>3d</fix>
</trkpt>
<trkpt lat="33.810313" lon="-118.393867">
  <ele>-0.12</ele>
  <time>2026-09-01T01:12:23Z</time>
  <course>0.0</course>
  <speed>0.0</speed>
  <fix>3d</fix>
</trkpt>
<trkpt lat="33.810313" lon="-118.393867">
  <ele>-0.116</ele>
  <time>2026-09-01T01:12:23Z</time>
  <course>187.12</course>
  <speed>0.0</speed>
  <fix>3d</fix>
</trkpt>
<trkpt lat="33.810313" lon="-118.393867">
  <ele>-0.12</ele>
  <time>2026-09-01T01:12:23Z</time>
  <course>0.0</course>
  <speed>0.0</speed>
  <fix>3d</fix>
</trkpt>
<trkpt lat="33.810313" lon="-118.393867">
  <ele>-0.119</ele>
  <time>2026-09-01T01:12:23Z</time>
  <course>187.11</course>
  <speed>0.01</speed>
  <fix>3d</fix>
</trkpt>
<trkpt lat="33.810313" lon="-118.393867">
  <ele>-0.12</ele>
  <time>2026-09-01T01:12:23Z</time>
  <course>0.0</course>
  <speed>0.0</speed>
  <fix>3d</fix>
</trkpt>
<trkpt lat="33.810313" lon="-118.393867">
  <ele>-0.12</ele>
  <time>2026-09-01T01:12:23Z</time>
  <course>187.11</course>
  <speed>0.01</speed>
  <fix>3d</fix>
</trkpt>
<trkpt lat="33.810313" lon="-118.393867">
  <ele>-0.12</ele>
  <time>2026-09-01T01:12:23Z</time>
  <course>0.0</course>
  <speed>0.0</speed>
  <fix>3d</fix>
</trkpt>
<trkpt lat="33.810313" lon="-118.393867">
  <ele>-0.121</ele>
  <time>2026-09-01T01:12:23Z</time>
  <course>187.1</course>
  <speed>0.01</speed>
  <fix>3d</fix>
</trkpt>
<trkpt lat="33.810313" lon="-118.393867">
  <ele>-0.12</ele>
  <time>2026-09-01T01:12:23Z</time>
  <course>0.0</course>
  <speed>0.0</speed>
  <fix>3d</fix>
</trkpt>
<trkpt lat="33.810313" lon="-118.393867">
  <ele>-0.122</ele>
  <time>2026-09-01T01:12:23Z</time>
  <course>187.1</course>
  <speed>0.01414213562373095</speed>
  <fix>3d</fix>
</trkpt>
<trkpt lat="33.810313" lon="-118.393867">
  <ele>-0.12</ele>
  <time>2026-09-01T01:12:23Z</time>
  <course>0.0</course>
  <speed>0.0</speed>
  <fix>3d</fix>
</trkpt>
<trkpt lat="33.810313" lon="-118.393867">
  <ele>-0.122</ele>
  <time>2026-09-01T01:12:23Z</time>
  <course>187.1</course>
  <speed>0.01414213562373095</speed>
  <fix>3d</fix>
</trkpt>
<trkpt lat="33.810313" lon="-118.393867">
  <ele>-0.12</ele>
  <time>2026-09-01T01:12:23Z</time>
  <course>0.0</course>
  <speed>0.0</speed>
  <fix>3d</fix>
</trkpt>
<trkpt lat="33.810313" lon="-118.393867">
  <ele>-0.123</ele>
  <time>2026-09-01T01:12:23Z</time>
  <course>187.09</course>
  <speed>0.01414213562373095</speed>
  <fix>3d</fix>
</trkpt>
<trkpt lat="33.810313" lon="-118.393867">
  <ele>-0.12</ele>
  <time>2026-09-01T01:12:23Z</time>
  <course>0.0</course>
  <speed>0.0</speed>
  <fix>3d</fix>
</trkpt>
<trkpt lat="33.810313" lon="-118.393867">
  <ele>-0.124</ele>
  <time>2026-09-01T01:12:23Z</time>
  <course>187.09</course>
  <speed>0.01414213562373095</speed>
  <fix>3d</fix>
</trkpt>
<trkpt lat="33.810313" lon="-118.393867">
  <ele>-0.12</ele>
  <time>2026-09-01T01:12:23Z</time>
  <course>0.0</course>
  <speed>0.0</speed>
  <fix>3d</fix>
</trkpt>
<trkpt lat="33.810313" lon="-118.393867">
  <ele>-0.126</ele>
  <time>2026-09-01T01:12:23Z</time>
  <course>187.08</course>
  <speed>0.01414213562373095</speed>
  <fix>3d</fix>
</trkpt>
<trkpt lat="33.810313" lon="-118.393867">
  <ele>-0.12</ele>
  <time>2026-09-01T01:12:23Z</time>
  <course>0.0</course>
  <speed>0.0</speed>
  <fix>3d</fix>
</trkpt>
<trkpt lat="33.810313" lon="-118.393867">
  <ele>-0.128</ele>
  <time>2026-09-01T01:12:23Z</time>
  <course>187.08</course>
  <speed>0.01414213562373095</speed>
  <fix>3d</fix>
</trkpt>
<trkpt lat="33.810313" lon="-118.393867">
  <ele>-0.12</ele>
  <time>2026-09-01T01:12:23Z</time>
  <course>0.0</course>
  <speed>0.0</speed>
  <fix>3d</fix>
</trkpt>
<trkpt lat="33.810313" lon="-118.393867">
  <ele>-0.13</ele>
  <time>2026-09-01T01:12:23Z</time>
  <course>187.07</course>
  <speed>0.01414213562373095</speed>
  <fix>3d</fix>
</trkpt>
<trkpt lat="33.810313" lon="-118.393867">
  <ele>-0.12</ele>
  <time>2026-09-01T01:12:23Z</time>
  <course>0.0</course>
  <speed>0.0</speed>
  <fix>3d</fix>
</trkpt>
<trkpt lat="33.810313" lon="-118.393867">
  <ele>-0.134</ele>
  <time>2026-09-01T01:12:23Z</time>
  <course>187.07</course>
  <speed>0.022360679774997897</speed>
  <fix>3d</fix>
</trkpt>
<trkpt lat="33.810313" lon="-118.393867">
  <ele>-0.12</ele>
  <time>2026-09-01T01:12:23Z</time>
  <course>0.0</course>
  <speed>0.0</speed>
  <fix>3d</fix>
</trkpt>
<trkpt lat="33.810313" lon="-118.393867">
  <ele>-0.136</ele>
  <time>2026-09-01T01:12:23Z</time>
  <course>187.06</course>
  <speed>0.022360679774997897</speed>
  <fix>3d</fix>
</trkpt>
<trkpt lat="33.810313" lon="-118.393867">
  <ele>-0.12</ele>
  <time>2026-09-01T01:12:23Z</time>
  <course>0.0</course>
  <speed>0.0</speed>
  <fix>3d</fix>
</trkpt>
<trkpt lat="33.810313" lon="-118.393867">
  <ele>-0.137</ele>
  <time>2026-09-01T01:12:23Z</time>
  <course>187.06</course>
  <speed>0.022360679774997897</speed>
  <fix>3d</fix>
</trkpt>
<trkpt lat="33.810313" lon="-118.393867">
  <ele>-0.12</ele>
  <time>2026-09-01T01:12:23Z</time>
  <course>0.0</course>
  <speed>0.0</speed>
  <fix>3d</fix>
</trkpt>
<trkpt lat="33.810313" lon="-118.393867">
  <ele>-0.137</ele>
  <time>2026-09-01T01:12:23Z</time>
  <course>187.05</course>
  <speed>0.022360679774997897</speed>
  <fix>3d</fix>
</trkpt>
<trkpt lat="33.810313" lon="-118.393867">
  <ele>-0.12</ele>
  <time>2026-09-01T01:12:23Z</time>
  <course>0.0</course>
  <speed>0.0</speed>
  <fix>3d</fix>
</trkpt>
<trkpt lat="33.810313" lon="-118.393867">
  <ele>-0.136</ele>
  <time>2026-09-01T01:12:23Z</time>
  <course>187.05</course>
  <speed>0.022360679774997897</speed>
  <fix>3d</fix>
</trkpt>
<trkpt lat="33.810313" lon="-118.393867">
  <ele>-0.12</ele>
  <time>2026-09-01T01:12:23Z</time>
  <course>0.0</course>
  <speed>0.0</speed>
  <fix>3d</fix>
</trkpt>
<trkpt lat="33.810313" lon="-118.393867">
  <ele>-0.133</ele>
  <time>2026-09-01T01:12:23Z</time>
  <course>187.04</course>
  <speed>0.022360679774997897</speed>
  <fix>3d</fix>
</trkpt>
<trkpt lat="33.810313" lon="-118.393867">
  <ele>-0.12</ele>
  <time>2026-09-01T01:12:23Z</time>
  <course>0.0</course>
  <speed>0.0</speed>
  <fix>3d</fix>
</trkpt>
<trkpt lat="33.8103131" lon="-118.3938671">
  <ele>-0.131</ele>
  <time>2026-09-01T01:12:23Z</time>
  <course>187.04</course>
  <speed>0.022360679774997897</speed>
  <fix>3d</fix>
</trkpt>
<trkpt lat="33.810313" lon="-118.393867">
  <ele>-0.12</ele>
  <time>2026-09-01T01:12:23Z</time>
  <course>0.0</course>
  <speed>0.0</speed>
  <fix>3d</fix>
</trkpt>
<trkpt lat="33.8103131" lon="-118.3938671">
  <ele>-0.129</ele>
  <time>2026-09-01T01:12:23Z</time>
  <course>187.03</course>
  <speed>0.0282842712474619</speed>
  <fix>3d</fix>
</trkpt>
<trkpt lat="33.810313" lon="-118.393867">
  <ele>-0.12</ele>
  <time>2026-09-01T01:12:23Z</time>
  <course>0.0</course>
  <speed>0.0</speed>
  <fix>3d</fix>
</trkpt>
<trkpt lat="33.8103131" lon="-118.3938671">
  <ele>-0.129</ele>
  <time>2026-09-01T01:12:23Z</time>
  <course>187.03</course>
  <speed>0.0282842712474619</speed>
  <fix>3d</fix>
</trkpt>
<trkpt lat="33.810313" lon="-118.393867">
  <ele>-0.12</ele>
  <time>2026-09-01T01:12:23Z</time>
  <course>0.0</course>
  <speed>0.0</speed>
  <fix>3d</fix>
</trkpt>
<trkpt lat="33.8103131" lon="-118.3938671">
  <ele>-0.128</ele>
  <time>2026-09-01T01:12:23Z</time>
  <course>187.02</course>
  <speed>0.0282842712474619</speed>
  <fix>3d</fix>
</trkpt>
<trkpt lat="33.810313" lon="-118.393867">
  <ele>-0.12</ele>
  <time>2026-09-01T01:12:23Z</time>
  <course>0.0</course>
  <speed>0.0</speed>
  <fix>3d</fix>
</trkpt>
<trkpt lat="33.8103131" lon="-118.3938671">
  <ele>-0.129</ele>
  <time>2026-09-01T01:12:23Z</time>
  <course>187.02</course>
  <speed>0.0282842712474619</speed>
  <fix>3d</fix>
</trkpt>
<trkpt lat="33.810313" lon="-118.393867">
  <ele>-0.12</ele>
  <time>2026-09-01T01:12:23Z</time>
  <course>0.0</course>
  <speed>0.0</speed>
  <fix>3d</fix>
</trkpt>
<trkpt lat="33.8103131" lon="-118.3938671">
  <ele>-0.13</ele>
  <time>2026-09-01T01:12:23Z</time>
  <course>187.01</course>
  <speed>0.0282842712474619</speed>
  <fix>3d</fix>
</trkpt>
<trkpt lat="33.810313" lon="-118.393867">
  <ele>-0.12</ele>
  <time>2026-09-01T01:12:23Z</time>
  <course>0.0</course>
  <speed>0.0</speed>
  <fix>3d</fix>
</trkpt>
<trkpt lat="33.8103131" lon="-118.3938671">
  <ele>-0.131</ele>
  <time>2026-09-01T01:12:23Z</time>
  <course>187.01</course>
  <speed>0.0282842712474619</speed>
  <fix>3d</fix>
</trkpt>
<trkpt lat="33.810313" lon="-118.393867">
  <ele>-0.12</ele>
  <time>2026-09-01T01:12:23Z</time>
  <course>0.0</course>
  <speed>0.0</speed>
  <fix>3d</fix>
</trkpt>
<trkpt lat="33.8103131" lon="-118.3938671">
  <ele>-0.13</ele>
  <time>2026-09-01T01:12:23Z</time>
  <course>187.0</course>
  <speed>0.0282842712474619</speed>
  <fix>3d</fix>
</trkpt>
<trkpt lat="33.810313" lon="-118.393867">
  <ele>-0.12</ele>
  <time>2026-09-01T01:12:23Z</time>
  <course>0.0</course>
  <speed>0.0</speed>
  <fix>3d</fix>
</trkpt>
<trkpt lat="33.8103131" lon="-118.3938671">
  <ele>-0.13</ele>
  <time>2026-09-01T01:12:23Z</time>
  <course>187.0</course>
  <speed>0.0282842712474619</speed>
  <fix>3d</fix>
</trkpt>
<trkpt lat="33.810313" lon="-118.393867">
  <ele>-0.12</ele>
  <time>2026-09-01T01:12:23Z</time>
  <course>0.0</course>
  <speed>0.0</speed>
  <fix>3d</fix>
</trkpt>
<trkpt lat="33.8103131" lon="-118.3938671">
  <ele>-0.129</ele>
  <time>2026-09-01T01:12:23Z</time>
  <course>187.0</course>
  <speed>0.0282842712474619</speed>
  <fix>3d</fix>
</trkpt>
<trkpt lat="33.810313" lon="-118.393867">
  <ele>-0.12</ele>
  <time>2026-09-01T01:12:23Z</time>
  <course>0.0</course>
  <speed>0.0</speed>
  <fix>3d</fix>
</trkpt>
<trkpt lat="33.8103131" lon="-118.3938671">
  <ele>-0.128</ele>
  <time>2026-09-01T01:12:23Z</time>
  <course>186.99</course>
  <speed>0.03605551275463989</speed>
  <fix>3d</fix>
</trkpt>
<trkpt lat="33.810313" lon="-118.393867">
  <ele>-0.12</ele>
  <time>2026-09-01T01:12:23Z</time>
  <course>0.0</course>
  <speed>0.0</speed>
  <fix>3d</fix>
</trkpt>
<trkpt lat="33.8103131" lon="-118.3938671">
  <ele>-0.128</ele>
  <time>2026-09-01T01:12:23Z</time>
  <course>186.99</course>
  <speed>0.03605551275463989</speed>
  <fix>3d</fix>
</trkpt>
<trkpt lat="33.810313" lon="-118.393867">
  <ele>-0.12</ele>
  <time>2026-09-01T01:12:23Z</time>
  <course>0.0</course>
  <speed>0.0</speed>
  <fix>3d</fix>
</trkpt>
<trkpt lat="33.8103131" lon="-118.3938671">
  <ele>-0.128</ele>
  <time>2026-09-01T01:12:23Z</time>
  <course>186.98</course>
  <speed>0.03605551275463989</speed>
  <fix>3d</fix>
</trkpt>
<trkpt lat="33.810313" lon="-118.393867">
  <ele>-0.12</ele>
  <time>2026-09-01T01:12:23Z</time>
  <course>0.0</course>
  <speed>0.0</speed>
  <fix>3d</fix>
</trkpt>
<trkpt lat="33.8103131" lon="-118.3938671">
  <ele>-0.129</ele>
  <time>2026-09-01T01:12:23Z</time>
  <course>186.98</course>
  <speed>0.03605551275463989</speed>
  <fix>3d</fix>
</trkpt>
<trkpt lat="33.810313" lon="-118.393867">
  <ele>-0.12</ele>
  <time>2026-09-01T01:12:23Z</time>
  <course>0.0</course>
  <speed>0.0</speed>
  <fix>3d</fix>
</trkpt>
<trkpt lat="33.8103131" lon="-118.3938671">
  <ele>-0.131</ele>
  <time>2026-09-01T01:12:23Z</time>
  <course>186.97</course>
  <speed>0.03605551275463989</speed>
  <fix>3d</fix>
</trkpt>
<trkpt lat="33.810313" lon="-118.393867">
  <ele>-0.12</ele>
  <time>2026-09-01T01:12:23Z</time>
  <course>0.0</course>
  <speed>0.0</speed>
  <fix>3d</fix>
</trkpt>
<trkpt lat="33.8103131" lon="-118.3938671">
  <ele>-0.133</ele>
  <time>2026-09-01T01:12:23Z</time>
  <course>186.97</course>
  <speed>0.03605551275463989</speed>
  <fix>3d</fix>
</trkpt>
<trkpt lat="33.810313" lon="-118.393867">
  <ele>-0.12</ele>
  <time>2026-09-01T01:12:23Z</time>
  <course>0.0</course>
  <speed>0.0</speed>
  <fix>3d</fix>
</trkpt>
<trkpt lat="33.8103132" lon="-118.3938671">
  <ele>-0.134</ele>
  <time>2026-09-01T01:12:23Z</time>
  <course>186.96</course>
  <speed>0.03605551275463989</speed>
  <fix>3d</fix>
</trkpt>
<trkpt lat="33.810313" lon="-118.393867">
  <ele>-0.12</ele>
  <time>2026-09-01T01:12:23Z</time>
  <course>0.0</course>
  <speed>0.0</speed>
  <fix>3d</fix>
</trkpt>
<trkpt lat="33.8103132" lon="-118.3938671">
  <ele>-0.133</ele>
  <time>2026-09-01T01:12:23Z</time>
  <course>186.96</course>
  <speed>0.03605551275463989</speed>
  <fix>3d</fix>
</trkpt>
<trkpt lat="33.810313" lon="-118.393867">
  <ele>-0.12</ele>
  <time>2026-09-01T01:12:23Z</time>
  <course>0.0</course>
  <speed>0.0</speed>
  <fix>3d</fix>
</trkpt>
<trkpt lat="33.8103132" lon="-118.3938671">
  <ele>-0.131</ele>
  <time>2026-09-01T01:12:23Z</time>
  <course>186.96</course>
  <speed>0.03605551275463989</speed>
  <fix>3d</fix>
</trkpt>
<trkpt lat="33.810313" lon="-118.393867">
  <ele>-0.12</ele>
  <time>2026-09-01T01:12:23Z</time>
  <course>0.0</course>
  <speed>0.0</speed>
  <fix>3d</fix>
</trkpt>
<trkpt lat="33.8103132" lon="-118.3938671">
  <ele>-0.13</ele>
  <time>2026-09-01T01:12:23Z</time>
  <course>186.95</course>
  <speed>0.03605551275463989</speed>
  <fix>3d</fix>
</trkpt>
<trkpt lat="33.810313" lon="-118.393867">
  <ele>-0.12</ele>
  <time>2026-09-01T01:12:23Z</time>
  <course>0.0</course>
  <speed>0.0</speed>
  <fix>3d</fix>
</trkpt>
<trkpt lat="33.8103132" lon="-118.3938672">
  <ele>-0.129</ele>
  <time>2026-09-01T01:12:23Z</time>
  <course>186.95</course>
  <speed>0.03605551275463989</speed>
  <fix>3d</fix>
</trkpt>
<trkpt lat="33.810313" lon="-118.393867">
  <ele>-0.12</ele>
  <time>2026-09-01T01:12:23Z</time>
  <course>0.0</course>
  <speed>0.0</speed>
  <fix>3d</fix>
</trkpt>
<trkpt lat="33.8103132" lon="-118.3938672">
  <ele>-0.128</ele>
  <time>2026-09-01T01:12:23Z</time>
  <course>186.94</course>
  <speed>0.03605551275463989</speed>
  <fix>3d</fix>
</trkpt>
<trkpt lat="33.810313" lon="-118.393867">
  <ele>-0.12</ele>
  <time>2026-09-01T01:12:23Z</time>
  <course>0.0</course>
  <speed>0.0</speed>
  <fix>3d</fix>
</trkpt>
<trkpt lat="33.8103132" lon="-118.3938672">
  <ele>-0.128</ele>
  <time>2026-09-01T01:12:23Z</time>
  <course>186.94</course>
  <speed>0.0282842712474619</speed>
  <fix>3d</fix>
</trkpt>
<trkpt lat="33.810313" lon="-118.393867">
  <ele>-0.12</ele>
  <time>2026-09-01T01:12:23Z</time>
  <course>0.0</course>
  <speed>0.0</speed>
  <fix>3d</fix>
</trkpt>
<trkpt lat="33.8103132" lon="-118.3938672">
  <ele>-0.127</ele>
  <time>2026-09-01T01:12:23Z</time>
  <course>186.94</course>
  <speed>0.0282842712474619</speed>
  <fix>3d</fix>
</trkpt>
<trkpt lat="33.810313" lon="-118.393867">
  <ele>-0.12</ele>
  <time>2026-09-01T01:12:23Z</time>
  <course>0.0</course>
  <speed>0.0</speed>
  <fix>3d</fix>
</trkpt>
<trkpt lat="33.8103132" lon="-118.3938672">
  <ele>-0.128</ele>
  <time>2026-09-01T01:12:23Z</time>
  <course>186.93</course>
  <speed>0.0282842712474619</speed>
  <fix>3d</fix>
</trkpt>
<trkpt lat="33.810313" lon="-118.393867">
  <ele>-0.12</ele>
  <time>2026-09-01T01:12:23Z</time>
  <course>0.0</course>
  <speed>0.0</speed>
  <fix>3d</fix>
</trkpt>
<trkpt lat="33.8103132" lon="-118.3938672">
  <ele>-0.128</ele>
  <time>2026-09-01T01:12:23Z</time>
  <course>186.93</course>
  <speed>0.0282842712474619</speed>
  <fix>3d</fix>
</trkpt>
<trkpt lat="33.810313" lon="-118.393867">
  <ele>-0.12</ele>
  <time>2026-09-01T01:12:23Z</time>
  <course>0.0</course>
  <speed>0.0</speed>
  <fix>3d</fix>
</trkpt>
<trkpt lat="33.8103132" lon="-118.3938672">
  <ele>-0.127</ele>
  <time>2026-09-01T01:12:23Z</time>
  <course>186.92</course>
  <speed>0.0282842712474619</speed>
  <fix>3d</fix>
</trkpt>
<trkpt lat="33.810313" lon="-118.393867">
  <ele>-0.12</ele>
  <time>2026-09-01T01:12:23Z</time>
  <course>0.0</course>
  <speed>0.0</speed>
  <fix>3d</fix>
</trkpt>
<trkpt lat="33.8103132" lon="-118.3938672">
  <ele>-0.126</ele>
  <time>2026-09-01T01:12:23Z</time>
  <course>186.92</course>
  <speed>0.0282842712474619</speed>
  <fix>3d</fix>
</trkpt>
<trkpt lat="33.810313" lon="-118.393867">
  <ele>-0.12</ele>
  <time>2026-09-01T01:12:23Z</time>
  <course>0.0</course>
  <speed>0.0</speed>
  <fix>3d</fix>
</trkpt>
<trkpt lat="33.8103132" lon="-118.3938671">
  <ele>-0.125</ele>
  <time>2026-09-01T01:12:23Z</time>
  <course>186.92</course>
  <speed>0.0282842712474619</speed>
  <fix>3d</fix>
</trkpt>
<trkpt lat="33.810313" lon="-118.393867">
  <ele>-0.12</ele>
  <time>2026-09-01T01:12:23Z</time>
  <course>0.0</course>
  <speed>0.0</speed>
  <fix>3d</fix>
</trkpt>
<trkpt lat="33.8103132" lon="-118.3938671">
  <ele>-0.124</ele>
  <time>2026-09-01T01:12:23Z</time>
  <course>186.91</course>
  <speed>0.0282842712474619</speed>
  <fix>3d</fix>
</trkpt>
<trkpt lat="33.810313" lon="-118.393867">
  <ele>-0.12</ele>
  <time>2026-09-01T01:12:23Z</time>
  <course>0.0</course>
  <speed>0.0</speed>
  <fix>3d</fix>
</trkpt>
<trkpt lat="33.8103132" lon="-118.3938671">
  <ele>-0.122</ele>
  <time>2026-09-01T01:12:23Z</time>
  <course>186.91</course>
  <speed>0.0282842712474619</speed>
  <fix>3d</fix>
</trkpt>
<trkpt lat="33.810313" lon="-118.393867">
  <ele>-0.12</ele>
  <time>2026-09-01T01:12:23Z</time>
  <course>0.0</course>
  <speed>0.0</speed>
  <fix>3d</fix>
</trkpt>
<trkpt lat="33.8103132" lon="-118.3938671">
  <ele>-0.121</ele>
  <time>2026-09-01T01:12:23Z</time>
  <course>186.91</course>
  <speed>0.0282842712474619</speed>
  <fix>3d</fix>
</trkpt>
<trkpt lat="33.810313" lon="-118.393867">
  <ele>-0.12</ele>
  <time>2026-09-01T01:12:23Z</time>
  <course>0.0</course>
  <speed>0.0</speed>
  <fix>3d</fix>
</trkpt>
<trkpt lat="33.8103132" lon="-118.3938671">
  <ele>-0.12</ele>
  <time>2026-09-01T01:12:23Z</time>
  <course>186.9</course>
  <speed>0.0282842712474619</speed>
  <fix>3d</fix>
</trkpt>
<trkpt lat="33.810313" lon="-118.393867">
  <ele>-0.12</ele>
  <time>2026-09-01T01:12:23Z</time>
  <course>0.0</course>
  <speed>0.0</speed>
  <fix>3d</fix>
</trkpt>
<trkpt lat="33.8103132" lon="-118.3938671">
  <ele>-0.119</ele>
  <time>2026-09-01T01:12:23Z</time>
  <course>186.9</course>
  <speed>0.022360679774997897</speed>
  <fix>3d</fix>
</trkpt>
<trkpt lat="33.810313" lon="-118.393867">
  <ele>-0.12</ele>
  <time>2026-09-01T01:12:23Z</time>
  <course>0.0</course>
  <speed>0.0</speed>
  <fix>3d</fix>
</trkpt>
<trkpt lat="33.8103131" lon="-118.3938671">
  <ele>-0.119</ele>
  <time>2026-09-01T01:12:23Z</time>
  <course>186.89</course>
  <speed>0.022360679774997897</speed>
  <fix>3d</fix>
</trkpt>
<trkpt lat="33.810313" lon="-118.393867">
  <ele>-0.12</ele>
  <time>2026-09-01T01:12:23Z</time>
  <course>0.0</course>
  <speed>0.0</speed>
  <fix>3d</fix>
</trkpt>
<trkpt lat="33.8103131" lon="-118.3938671">
  <ele>-0.119</ele>
  <time>2026-09-01T01:12:23Z</time>
  <course>186.89</course>
  <speed>0.022360679774997897</speed>
  <fix>3d</fix>
</trkpt>
<trkpt lat="33.810313" lon="-118.393867">
  <ele>-0.12</ele>
  <time>2026-09-01T01:12:23Z</time>
  <course>0.0</course>
  <speed>0.0</speed>
  <fix>3d</fix>
</trkpt>
<trkpt lat="33.8103131" lon="-118.3938671">
  <ele>-0.119</ele>
  <time>2026-09-01T01:12:23Z</time>
  <course>186.89</course>
  <speed>0.022360679774997897</speed>
  <fix>3d</fix>
</trkpt>
<trkpt lat="33.810313" lon="-118.393867">
  <ele>-0.12</ele>
  <time>2026-09-01T01:12:23Z</time>
  <course>0.0</course>
  <speed>0.0</speed>
  <fix>3d</fix>
</trkpt>
<trkpt lat="33.8103131" lon="-118.3938671">
  <ele>-0.119</ele>
  <time>2026-09-01T01:12:23Z</time>
  <course>186.88</course>
  <speed>0.022360679774997897</speed>
  <fix>3d</fix>
</trkpt>
<trkpt lat="33.810313" lon="-118.393867">
  <ele>-0.12</ele>
  <time>2026-09-01T01:12:23Z</time>
  <course>0.0</course>
  <speed>0.0</speed>
  <fix>3d</fix>
</trkpt>
<trkpt lat="33.8103131" lon="-118.3938671">
  <ele>-0.119</ele>
  <time>2026-09-01T01:12:23Z</time>
  <course>186.88</course>
  <speed>0.022360679774997897</speed>
  <fix>3d</fix>
</trkpt>
<trkpt lat="33.810313" lon="-118.393867">
  <ele>-0.12</ele>
  <time>2026-09-01T01:12:23Z</time>
  <course>0.0</course>
  <speed>0.0</speed>
  <fix>3d</fix>
</trkpt>
<trkpt lat="33.8103131" lon="-118.3938671">
  <ele>-0.119</ele>
  <time>2026-09-01T01:12:23Z</time>
  <course>186.88</course>
  <speed>0.022360679774997897</speed>
  <fix>3d</fix>
</trkpt>
<trkpt lat="33.810313" lon="-118.393867">
  <ele>-0.12</ele>
  <time>2026-09-01T01:12:23Z</time>
  <course>0.0</course>
  <speed>0.0</speed>
  <fix>3d</fix>
</trkpt>
<trkpt lat="33.8103131" lon="-118.3938671">
  <ele>-0.12</ele>
  <time>2026-09-01T01:12:23Z</time>
  <course>186.87</course>
  <speed>0.022360679774997897</speed>
  <fix>3d</fix>
</trkpt>
<trkpt lat="33.810313" lon="-118.393867">
  <ele>-0.12</ele>
  <time>2026-09-01T01:12:23Z</time>
  <course>0.0</course>
  <speed>0.0</speed>
  <fix>3d</fix>
</trkpt>
<trkpt lat="33.8103131" lon="-118.3938671">
  <ele>-0.121</ele>
  <time>2026-09-01T01:12:23Z</time>
  <course>186.87</course>
  <speed>0.022360679774997897</speed>
  <fix>3d</fix>
</trkpt>
<trkpt lat="33.810313" lon="-118.393867">
  <ele>-0.12</ele>
  <time>2026-09-01T01:12:23Z</time>
  <course>0.0</course>
  <speed>0.0</speed>
  <fix>3d</fix>
</trkpt>
<trkpt lat="33.8103131" lon="-118.3938671">
  <ele>-0.124</ele>
  <time>2026-09-01T01:12:23Z</time>
  <course>186.87</course>
  <speed>0.022360679774997897</speed>
  <fix>3d</fix>
</trkpt>
<trkpt lat="33.810313" lon="-118.393867">
  <ele>-0.12</ele>
  <time>2026-09-01T01:12:23Z</time>
  <course>0.0</course>
  <speed>0.0</speed>
  <fix>3d</fix>
</trkpt>
<trkpt lat="33.8103131" lon="-118.3938671">
  <ele>-0.126</ele>
  <time>2026-09-01T01:12:23Z</time>
  <course>186.87</course>
  <speed>0.022360679774997897</speed>
  <fix>3d</fix>
</trkpt>
<trkpt lat="33.810313" lon="-118.393867">
  <ele>-0.12</ele>
  <time>2026-09-01T01:12:23Z</time>
  <course>0.0</course>
  <speed>0.0</speed>
  <fix>3d</fix>
</trkpt>
<trkpt lat="33.8103131" lon="-118.3938671">
  <ele>-0.128</ele>
  <time>2026-09-01T01:12:23Z</time>
  <course>186.86</course>
  <speed>0.022360679774997897</speed>
  <fix>3d</fix>
</trkpt>
<trkpt lat="33.810313" lon="-118.393867">
  <ele>-0.12</ele>
  <time>2026-09-01T01:12:23Z</time>
  <course>0.0</course>
  <speed>0.0</speed>
  <fix>3d</fix>
</trkpt>
<trkpt lat="33.8103131" lon="-118.3938671">
  <ele>-0.131</ele>
  <time>2026-09-01T01:12:23Z</time>
  <course>186.86</course>
  <speed>0.022360679774997897</speed>
  <fix>3d</fix>
</trkpt>
<trkpt lat="33.810313" lon="-118.393867">
  <ele>-0.12</ele>
  <time>2026-09-01T01:12:23Z</time>
  <course>0.0</course>
  <speed>0.0</speed>
  <fix>3d</fix>
</trkpt>
<trkpt lat="33.8103131" lon="-118.3938671">
  <ele>-0.133</ele>
  <time>2026-09-01T01:12:23Z</time>
  <course>186.86</course>
  <speed>0.022360679774997897</speed>
  <fix>3d</fix>
</trkpt>
<trkpt lat="33.810313" lon="-118.393867">
  <ele>-0.12</ele>
  <time>2026-09-01T01:12:23Z</time>
  <course>0.0</course>
  <speed>0.0</speed>
  <fix>3d</fix>
</trkpt>
<trkpt lat="33.8103131" lon="-118.3938671">
  <ele>-0.133</ele>
  <time>2026-09-01T01:12:23Z</time>
  <course>186.85</course>
  <speed>0.022360679774997897</speed>
  <fix>3d</fix>
</trkpt>
<trkpt lat="33.810313" lon="-118.393867">
  <ele>-0.12</ele>
  <time>2026-09-01T01:12:23Z</time>
  <course>0.0</course>
  <speed>0.0</speed>
  <fix>3d</fix>
</trkpt>
<trkpt lat="33.8103131" lon="-118.3938671">
  <ele>-0.132</ele>
  <time>2026-09-01T01:12:23Z</time>
  <course>186.85</course>
  <speed>0.022360679774997897</speed>
  <fix>3d</fix>
</trkpt>
<trkpt lat="33.810313" lon="-118.393867">
  <ele>-0.12</ele>
  <time>2026-09-01T01:12:23Z</time>
  <course>0.0</course>
  <speed>0.0</speed>
  <fix>3d</fix>
</trkpt>
<trkpt lat="33.8103131" lon="-118.3938671">
  <ele>-0.131</ele>
  <time>2026-09-01T01:12:23Z</time>
  <course>186.85</course>
  <speed>0.022360679774997897</speed>
  <fix>3d</fix>
</trkpt>
<trkpt lat="33.810313" lon="-118.393867">
  <ele>-0.12</ele>
  <time>2026-09-01T01:12:23Z</time>
  <course>0.0</course>
  <speed>0.0</speed>
  <fix>3d</fix>
</trkpt>
<trkpt lat="33.8103131" lon="-118.3938671">
  <ele>-0.129</ele>
  <time>2026-09-01T01:12:23Z</time>
  <course>186.84</course>
  <speed>0.022360679774997897</speed>
  <fix>3d</fix>
</trkpt>
<trkpt lat="33.810313" lon="-118.393867">
  <ele>-0.12</ele>
  <time>2026-09-01T01:12:23Z</time>
  <course>0.0</course>
  <speed>0.0</speed>
  <fix>3d</fix>
</trkpt>
<trkpt lat="33.8103131" lon="-118.3938671">
  <ele>-0.128</ele>
  <time>2026-09-01T01:12:23Z</time>
  <course>186.84</course>
  <speed>0.022360679774997897</speed>
  <fix>3d</fix>
</trkpt>
<trkpt lat="33.810313" lon="-118.393867">
  <ele>-0.12</ele>
  <time>2026-09-01T01:12:23Z</time>
  <course>0.0</course>
  <speed>0.0</speed>
  <fix>3d</fix>
</trkpt>
<trkpt lat="33.8103131" lon="-118.3938671">
  <ele>-0.128</ele>
  <time>2026-09-01T01:12:23Z</time>
  <course>186.84</course>
  <speed>0.022360679774997897</speed>
  <fix>3d</fix>
</trkpt>
<trkpt lat="33.810313" lon="-118.393867">
  <ele>-0.12</ele>
  <time>2026-09-01T01:12:23Z</time>
  <course>0.0</course>
  <speed>0.0</speed>
  <fix>3d</fix>
</trkpt>
<trkpt lat="33.8103131" lon="-118.3938671">
  <ele>-0.128</ele>
  <time>2026-09-01T01:12:23Z</time>
  <course>186.83</course>
  <speed>0.022360679774997897</speed>
  <fix>3d</fix>
</trkpt>
<trkpt lat="33.810313" lon="-118.393867">
  <ele>-0.12</ele>
  <time>2026-09-01T01:12:23Z</time>
  <course>0.0</course>
  <speed>0.0</speed>
  <fix>3d</fix>
</trkpt>
<trkpt lat="33.8103131" lon="-118.3938671">
  <ele>-0.128</ele>
  <time>2026-09-01T01:12:23Z</time>
  <course>186.83</course>
  <speed>0.022360679774997897</speed>
  <fix>3d</fix>
</trkpt>
<trkpt lat="33.810313" lon="-118.393867">
  <ele>-0.12</ele>
  <time>2026-09-01T01:12:23Z</time>
  <course>0.0</course>
  <speed>0.0</speed>
  <fix>3d</fix>
</trkpt>
<trkpt lat="33.8103131" lon="-118.3938671">
  <ele>-0.127</ele>
  <time>2026-09-01T01:12:23Z</time>
  <course>186.83</course>
  <speed>0.022360679774997897</speed>
  <fix>3d</fix>
</trkpt>
<trkpt lat="33.810313" lon="-118.393867">
  <ele>-0.12</ele>
  <time>2026-09-01T01:12:23Z</time>
  <course>0.0</course>
  <speed>0.0</speed>
  <fix>3d</fix>
</trkpt>
<trkpt lat="33.8103131" lon="-118.3938671">
  <ele>-0.126</ele>
  <time>2026-09-01T01:12:23Z</time>
  <course>186.82</course>
  <speed>0.022360679774997897</speed>
  <fix>3d</fix>
</trkpt>
<trkpt lat="33.810313" lon="-118.393867">
  <ele>-0.12</ele>
  <time>2026-09-01T01:12:23Z</time>
  <course>0.0</course>
  <speed>0.0</speed>
  <fix>3d</fix>
</trkpt>
<trkpt lat="33.8103131" lon="-118.3938671">
  <ele>-0.125</ele>
  <time>2026-09-01T01:12:23Z</time>
  <course>186.82</course>
  <speed>0.022360679774997897</speed>
  <fix>3d</fix>
</trkpt>
<trkpt lat="33.810313" lon="-118.393867">
  <ele>-0.12</ele>
  <time>2026-09-01T01:12:23Z</time>
  <course>0.0</course>
  <speed>0.0</speed>
  <fix>3d</fix>
</trkpt>
<trkpt lat="33.8103131" lon="-118.3938671">
  <ele>-0.124</ele>
  <time>2026-09-01T01:12:23Z</time>
  <course>186.82</course>
  <speed>0.022360679774997897</speed>
  <fix>3d</fix>
</trkpt>
<trkpt lat="33.810313" lon="-118.393867">
  <ele>-0.12</ele>
  <time>2026-09-01T01:12:23Z</time>
  <course>0.0</course>
  <speed>0.0</speed>
  <fix>3d</fix>
</trkpt>
<trkpt lat="33.8103131" lon="-118.3938671">
  <ele>-0.123</ele>
  <time>2026-09-01T01:12:23Z</time>
  <course>186.82</course>
  <speed>0.022360679774997897</speed>
  <fix>3d</fix>
</trkpt>
<trkpt lat="33.810313" lon="-118.393867">
  <ele>-0.12</ele>
  <time>2026-09-01T01:12:23Z</time>
  <course>0.0</course>
  <speed>0.0</speed>
  <fix>3d</fix>
</trkpt>
<trkpt lat="33.8103131" lon="-118.3938671">
  <ele>-0.122</ele>
  <time>2026-09-01T01:12:23Z</time>
  <course>186.81</course>
  <speed>0.022360679774997897</speed>
  <fix>3d</fix>
</trkpt>
<trkpt lat="33.810313" lon="-118.393867">
  <ele>-0.12</ele>
  <time>2026-09-01T01:12:23Z</time>
  <course>0.0</course>
  <speed>0.0</speed>
  <fix>3d</fix>
</trkpt>
<trkpt lat="33.8103131" lon="-118.3938671">
  <ele>-0.122</ele>
  <time>2026-09-01T01:12:23Z</time>
  <course>186.81</course>
  <speed>0.022360679774997897</speed>
  <fix>3d</fix>
</trkpt>
<trkpt lat="33.810313" lon="-118.393867">
  <ele>-0.12</ele>
  <time>2026-09-01T01:12:23Z</time>
  <course>0.0</course>
  <speed>0.0</speed>
  <fix>3d</fix>
</trkpt>
<trkpt lat="33.8103131" lon="-118.3938671">
  <ele>-0.122</ele>
  <time>2026-09-01T01:12:23Z</time>
  <course>186.81</course>
  <speed>0.022360679774997897</speed>
  <fix>3d</fix>
</trkpt>
<trkpt lat="33.810313" lon="-118.393867">
  <ele>-0.12</ele>
  <time>2026-09-01T01:12:23Z</time>
  <course>0.0</course>
  <speed>0.0</speed>
  <fix>3d</fix>
</trkpt>
<trkpt lat="33.8103131" lon="-118.3938671">
  <ele>-0.121</ele>
  <time>2026-09-01T01:12:23Z</time>
  <course>186.8</course>
  <speed>0.022360679774997897</speed>
  <fix>3d</fix>
</trkpt>
<trkpt lat="33.810313" lon="-118.393867">
  <ele>-0.12</ele>
  <time>2026-09-01T01:12:23Z</time>
  <course>0.0</course>
  <speed>0.0</speed>
  <fix>3d</fix>
</trkpt>
<trkpt lat="33.8103131" lon="-118.3938671">
  <ele>-0.122</ele>
  <time>2026-09-01T01:12:23Z</time>
  <course>186.8</course>
  <speed>0.022360679774997897</speed>
  <fix>3d</fix>
</trkpt>
<trkpt lat="33.810313" lon="-118.393867">
  <ele>-0.12</ele>
  <time>2026-09-01T01:12:23Z</time>
  <course>0.0</course>
  <speed>0.0</speed>
  <fix>3d</fix>
</trkpt>
<trkpt lat="33.8103131" lon="-118.3938671">
  <ele>-0.122</ele>
  <time>2026-09-01T01:12:23Z</time>
  <course>186.8</course>
  <speed>0.022360679774997897</speed>
  <fix>3d</fix>
</trkpt>
<trkpt lat="33.810313" lon="-118.393867">
  <ele>-0.12</ele>
  <time>2026-09-01T01:12:23Z</time>
  <course>0.0</course>
  <speed>0.0</speed>
  <fix>3d</fix>
</trkpt>
<trkpt lat="33.8103131" lon="-118.3938671">
  <ele>-0.122</ele>
  <time>2026-09-01T01:12:23Z</time>
  <course>186.79</course>
  <speed>0.022360679774997897</speed>
  <fix>3d</fix>
</trkpt>
<trkpt lat="33.810313" lon="-118.393867">
  <ele>-0.12</ele>
  <time>2026-09-01T01:12:23Z</time>
  <course>0.0</course>
  <speed>0.0</speed>
  <fix>3d</fix>
</trkpt>
<trkpt lat="33.8103131" lon="-118.3938671">
  <ele>-0.122</ele>
  <time>2026-09-01T01:12:23Z</time>
  <course>186.79</course>
  <speed>0.022360679774997897</speed>
  <fix>3d</fix>
</trkpt>
<trkpt lat="33.810313" lon="-118.393867">
  <ele>-0.12</ele>
  <time>2026-09-01T01:12:23Z</time>
  <course>0.0</course>
  <speed>0.0</speed>
  <fix>3d</fix>
</trkpt>
<trkpt lat="33.8103131" lon="-118.3938671">
  <ele>-0.122</ele>
  <time>2026-09-01T01:12:23Z</time>
  <course>186.79</course>
  <speed>0.022360679774997897</speed>
  <fix>3d</fix>
</trkpt>
<trkpt lat="33.810313" lon="-118.393867">
  <ele>-0.12</ele>
  <time>2026-09-01T01:12:23Z</time>
  <course>0.0</course>
  <speed>0.0</speed>
  <fix>3d</fix>
</trkpt>
<trkpt lat="33.8103131" lon="-118.3938671">
  <ele>-0.121</ele>
  <time>2026-09-01T01:12:23Z</time>
  <course>186.79</course>
  <speed>0.022360679774997897</speed>
  <fix>3d</fix>
</trkpt>
<trkpt lat="33.810313" lon="-118.393867">
  <ele>-0.12</ele>
  <time>2026-09-01T01:12:23Z</time>
  <course>0.0</course>
  <speed>0.0</speed>
  <fix>3d</fix>
</trkpt>
<trkpt lat="33.8103131" lon="-118.3938671">
  <ele>-0.12</ele>
  <time>2026-09-01T01:12:23Z</time>
  <course>186.78</course>
  <speed>0.022360679774997897</speed>
  <fix>3d</fix>
</trkpt>
<trkpt lat="33.810313" lon="-118.393867">
  <ele>-0.12</ele>
  <time>2026-09-01T01:12:23Z</time>
  <course>0.0</course>
  <speed>0.0</speed>
  <fix>3d</fix>
</trkpt>
<trkpt lat="33.8103131" lon="-118.3938671">
  <ele>-0.12</ele>
  <time>2026-09-01T01:12:23Z</time>
  <course>186.78</course>
  <speed>0.022360679774997897</speed>
  <fix>3d</fix>
</trkpt>
<trkpt lat="33.810313" lon="-118.393867">
  <ele>-0.12</ele>
  <time>2026-09-01T01:12:23Z</time>
  <course>0.0</course>
  <speed>0.0</speed>
  <fix>3d</fix>
</trkpt>
<trkpt lat="33.8103131" lon="-118.3938671">
  <ele>-0.12</ele>
  <time>2026-09-01T01:12:23Z</time>
  <course>186.78</course>
  <speed>0.022360679774997897</speed>
  <fix>3d</fix>
</trkpt>
<trkpt lat="33.810313" lon="-118.393867">
  <ele>-0.12</ele>
  <time>2026-09-01T01:12:23Z</time>
  <course>0.0</course>
  <speed>0.0</speed>
  <fix>3d</fix>
</trkpt>
<trkpt lat="33.8103131" lon="-118.3938671">
  <ele>-0.122</ele>
  <time>2026-09-01T01:12:23Z</time>
  <course>186.77</course>
  <speed>0.022360679774997897</speed>
  <fix>3d</fix>
</trkpt>
<trkpt lat="33.810313" lon="-118.393867">
  <ele>-0.12</ele>
  <time>2026-09-01T01:12:23Z</time>
  <course>0.0</course>
  <speed>0.0</speed>
  <fix>3d</fix>
</trkpt>
<trkpt lat="33.8103131" lon="-118.3938671">
  <ele>-0.125</ele>
  <time>2026-09-01T01:12:23Z</time>
  <course>186.77</course>
  <speed>0.022360679774997897</speed>
  <fix>3d</fix>
</trkpt>
<trkpt lat="33.810313" lon="-118.393867">
  <ele>-0.12</ele>
  <time>2026-09-01T01:12:23Z</time>
  <course>0.0</course>
  <speed>0.0</speed>
  <fix>3d</fix>
</trkpt>
<trkpt lat="33.8103131" lon="-118.3938671">
  <ele>-0.128</ele>
  <time>2026-09-01T01:12:23Z</time>
  <course>186.77</course>
  <speed>0.022360679774997897</speed>
  <fix>3d</fix>
</trkpt>
<trkpt lat="33.810313" lon="-118.393867">
  <ele>-0.12</ele>
  <time>2026-09-01T01:12:23Z</time>
  <course>0.0</course>
  <speed>0.0</speed>
  <fix>3d</fix>
</trkpt>
<trkpt lat="33.8103131" lon="-118.3938671">
  <ele>-0.13</ele>
  <time>2026-09-01T01:12:23Z</time>
  <course>186.77</course>
  <speed>0.022360679774997897</speed>
  <fix>3d</fix>
</trkpt>
<trkpt lat="33.810313" lon="-118.393867">
  <ele>-0.12</ele>
  <time>2026-09-01T01:12:23Z</time>
  <course>0.0</course>
  <speed>0.0</speed>
  <fix>3d</fix>
</trkpt>
<trkpt lat="33.8103131" lon="-118.3938671">
  <ele>-0.13</ele>
  <time>2026-09-01T01:12:23Z</time>
  <course>186.76</course>
  <speed>0.022360679774997897</speed>
  <fix>3d</fix>
</trkpt>
<trkpt lat="33.810313" lon="-118.393867">
  <ele>-0.12</ele>
  <time>2026-09-01T01:12:23Z</time>
  <course>0.0</course>
  <speed>0.0</speed>
  <fix>3d</fix>
</trkpt>
<trkpt lat="33.8103131" lon="-118.3938671">
  <ele>-0.129</ele>
  <time>2026-09-01T01:12:23Z</time>
  <course>186.76</course>
  <speed>0.022360679774997897</speed>
  <fix>3d</fix>
</trkpt>
<trkpt lat="33.810313" lon="-118.393867">
  <ele>-0.12</ele>
  <time>2026-09-01T01:12:23Z</time>
  <course>0.0</course>
  <speed>0.0</speed>
  <fix>3d</fix>
</trkpt>
<trkpt lat="33.8103131" lon="-118.3938671">
  <ele>-0.127</ele>
  <time>2026-09-01T01:12:23Z</time>
  <course>186.76</course>
  <speed>0.022360679774997897</speed>
  <fix>3d</fix>
</trkpt>
<trkpt lat="33.810313" lon="-118.393867">
  <ele>-0.12</ele>
  <time>2026-09-01T01:12:23Z</time>
  <course>0.0</course>
  <speed>0.0</speed>
  <fix>3d</fix>
</trkpt>
<trkpt lat="33.8103131" lon="-118.3938671">
  <ele>-0.125</ele>
  <time>2026-09-01T01:12:23Z</time>
  <course>186.75</course>
  <speed>0.022360679774997897</speed>
  <fix>3d</fix>
</trkpt>
<trkpt lat="33.810313" lon="-118.393867">
  <ele>-0.12</ele>
  <time>2026-09-01T01:12:23Z</time>
  <course>0.0</course>
  <speed>0.0</speed>
  <fix>3d</fix>
</trkpt>
<trkpt lat="33.8103131" lon="-118.3938671">
  <ele>-0.125</ele>
  <time>2026-09-01T01:12:23Z</time>
  <course>186.75</course>
  <speed>0.022360679774997897</speed>
  <fix>3d</fix>
</trkpt>
<trkpt lat="33.810313" lon="-118.393867">
  <ele>-0.12</ele>
  <time>2026-09-01T01:12:23Z</time>
  <course>0.0</course>
  <speed>0.0</speed>
  <fix>3d</fix>
</trkpt>
<trkpt lat="33.8103131" lon="-118.3938671">
  <ele>-0.124</ele>
  <time>2026-09-01T01:12:23Z</time>
  <course>186.75</course>
  <speed>0.022360679774997897</speed>
  <fix>3d</fix>
</trkpt>
<trkpt lat="33.810313" lon="-118.393867">
  <ele>-0.12</ele>
  <time>2026-09-01T01:12:23Z</time>
  <course>0.0</course>
  <speed>0.0</speed>
  <fix>3d</fix>
</trkpt>
<trkpt lat="33.8103131" lon="-118.3938671">
  <ele>-0.123</ele>
  <time>2026-09-01T01:12:23Z</time>
  <course>186.75</course>
  <speed>0.022360679774997897</speed>
  <fix>3d</fix>
</trkpt>
<trkpt lat="33.810313" lon="-118.393867">
  <ele>-0.12</ele>
  <time>2026-09-01T01:12:23Z</time>
  <course>0.0</course>
  <speed>0.0</speed>
  <fix>3d</fix>
</trkpt>
<trkpt lat="33.8103131" lon="-118.3938671">
  <ele>-0.122</ele>
  <time>2026-09-01T01:12:23Z</time>
  <course>186.74</course>
  <speed>0.022360679774997897</speed>
  <fix>3d</fix>
</trkpt>
<trkpt lat="33.810313" lon="-118.393867">
  <ele>-0.12</ele>
  <time>2026-09-01T01:12:23Z</time>
  <course>0.0</course>
  <speed>0.0</speed>
  <fix>3d</fix>
</trkpt>
<trkpt lat="33.8103131" lon="-118.3938671">
  <ele>-0.122</ele>
  <time>2026-09-01T01:12:23Z</time>
  <course>186.74</course>
  <speed>0.022360679774997897</speed>
  <fix>3d</fix>
</trkpt>
<trkpt lat="33.810313" lon="-118.393867">
  <ele>-0.12</ele>
  <time>2026-09-01T01:12:23Z</time>
  <course>0.0</course>
  <speed>0.0</speed>
  <fix>3d</fix>
</trkpt>
<trkpt lat="33.8103131" lon="-118.3938671">
  <ele>-0.122</ele>
  <time>2026-09-01T01:12:23Z</time>
  <course>186.74</course>
  <speed>0.022360679774997897</speed>
  <fix>3d</fix>
</trkpt>
<trkpt lat="33.810313" lon="-118.393867">
  <ele>-0.12</ele>
  <time>2026-09-01T01:12:23Z</time>
  <course>0.0</course>
  <speed>0.0</speed>
  <fix>3d</fix>
</trkpt>
<trkpt lat="33.8103131" lon="-118.3938671">
  <ele>-0.122</ele>
  <time>2026-09-01T01:12:23Z</time>
  <course>186.74</course>
  <speed>0.022360679774997897</speed>
  <fix>3d</fix>
</trkpt>
<trkpt lat="33.810313" lon="-118.393867">
  <ele>-0.12</ele>
  <time>2026-09-01T01:12:23Z</time>
  <course>0.0</course>
  <speed>0.0</speed>
  <fix>3d</fix>
</trkpt>
<trkpt lat="33.8103131" lon="-118.3938671">
  <ele>-0.121</ele>
  <time>2026-09-01T01:12:23Z</time>
  <course>186.73</course>
  <speed>0.022360679774997897</speed>
  <fix>3d</fix>
</trkpt>
<trkpt lat="33.810313" lon="-118.393867">
  <ele>-0.12</ele>
  <time>2026-09-01T01:12:23Z</time>
  <course>0.0</course>
  <speed>0.0</speed>
  <fix>3d</fix>
</trkpt>
<trkpt lat="33.8103131" lon="-118.3938671">
  <ele>-0.12</ele>
  <time>2026-09-01T01:12:23Z</time>
  <course>186.73</course>
  <speed>0.022360679774997897</speed>
  <fix>3d</fix>
</trkpt>
<trkpt lat="33.810313" lon="-118.393867">
  <ele>-0.12</ele>
  <time>2026-09-01T01:12:23Z</time>
  <course>0.0</course>
  <speed>0.0</speed>
  <fix>3d</fix>
</trkpt>
<trkpt lat="33.8103131" lon="-118.3938671">
  <ele>-0.12</ele>
  <time>2026-09-01T01:12:23Z</time>
  <course>186.73</course>
  <speed>0.022360679774997897</speed>
  <fix>3d</fix>
</trkpt>
<trkpt lat="33.810313" lon="-118.393867">
  <ele>-0.12</ele>
  <time>2026-09-01T01:12:23Z</time>
  <course>0.0</course>
  <speed>0.0</speed>
  <fix>3d</fix>
</trkpt>
<trkpt lat="33.8103131" lon="-118.3938671">
  <ele>-0.12</ele>
  <time>2026-09-01T01:12:23Z</time>
  <course>186.73</course>
  <speed>0.022360679774997897</speed>
  <fix>3d</fix>
</trkpt>
<trkpt lat="33.810313" lon="-118.393867">
  <ele>-0.12</ele>
  <time>2026-09-01T01:12:23Z</time>
  <course>0.0</course>
  <speed>0.0</speed>
  <fix>3d</fix>
</trkpt>
<trkpt lat="33.8103131" lon="-118.3938671">
  <ele>-0.121</ele>
  <time>2026-09-01T01:12:23Z</time>
  <course>186.72</course>
  <speed>0.022360679774997897</speed>
  <fix>3d</fix>
</trkpt>
<trkpt lat="33.810313" lon="-118.393867">
  <ele>-0.12</ele>
  <time>2026-09-01T01:12:23Z</time>
  <course>0.0</course>
  <speed>0.0</speed>
  <fix>3d</fix>
</trkpt>
<trkpt lat="33.8103131" lon="-118.3938671">
  <ele>-0.122</ele>
  <time>2026-09-01T01:12:23Z</time>
  <course>186.72</course>
  <speed>0.022360679774997897</speed>
  <fix>3d</fix>
</trkpt>
<trkpt lat="33.810313" lon="-118.393867">
  <ele>-0.12</ele>
  <time>2026-09-01T01:12:23Z</time>
  <course>0.0</course>
  <speed>0.0</speed>
  <fix>3d</fix>
</trkpt>
<trkpt lat="33.8103131" lon="-118.3938671">
  <ele>-0.124</ele>
  <time>2026-09-01T01:12:23Z</time>
  <course>186.72</course>
  <speed>0.022360679774997897</speed>
  <fix>3d</fix>
</trkpt>
<trkpt lat="33.810313" lon="-118.393867">
  <ele>-0.12</ele>
  <time>2026-09-01T01:12:23Z</time>
  <course>0.0</course>
  <speed>0.0</speed>
  <fix>3d</fix>
</trkpt>
<trkpt lat="33.8103131" lon="-118.3938671">
  <ele>-0.126</ele>
  <time>2026-09-01T01:12:23Z</time>
  <course>186.71</course>
  <speed>0.022360679774997897</speed>
  <fix>3d</fix>
</trkpt>
<trkpt lat="33.810313" lon="-118.393867">
  <ele>-0.12</ele>
  <time>2026-09-01T01:12:23Z</time>
  <course>0.0</course>
  <speed>0.0</speed>
  <fix>3d</fix>
</trkpt>
<trkpt lat="33.8103131" lon="-118.3938671">
  <ele>-0.127</ele>
  <time>2026-09-01T01:12:23Z</time>
  <course>186.71</course>
  <speed>0.022360679774997897</speed>
  <fix>3d</fix>
</trkpt>
<trkpt lat="33.810313" lon="-118.393867">
  <ele>-0.12</ele>
  <time>2026-09-01T01:12:23Z</time>
  <course>0.0</course>
  <speed>0.0</speed>
  <fix>3d</fix>
</trkpt>
<trkpt lat="33.8103131" lon="-118.3938671">
  <ele>-0.128</ele>
  <time>2026-09-01T01:12:23Z</time>
  <course>186.71</course>
  <speed>0.022360679774997897</speed>
  <fix>3d</fix>
</trkpt>
<trkpt lat="33.810313" lon="-118.393867">
  <ele>-0.12</ele>
  <time>2026-09-01T01:12:23Z</time>
  <course>0.0</course>
  <speed>0.0</speed>
  <fix>3d</fix>
</trkpt>
<trkpt lat="33.8103131" lon="-118.3938671">
  <ele>-0.127</ele>
  <time>2026-09-01T01:12:23Z</time>
  <course>186.71</course>
  <speed>0.022360679774997897</speed>
  <fix>3d</fix>
</trkpt>
<trkpt lat="33.810313" lon="-118.393867">
  <ele>-0.12</ele>
  <time>2026-09-01T01:12:23Z</time>
  <course>0.0</course>
  <speed>0.0</speed>
  <fix>3d</fix>
</trkpt>
<trkpt lat="33.8103131" lon="-118.3938671">
  <ele>-0.126</ele>
  <time>2026-09-01T01:12:23Z</time>
  <course>186.7</course>
  <speed>0.022360679774997897</speed>
  <fix>3d</fix>
</trkpt>
<trkpt lat="33.810313" lon="-118.393867">
  <ele>-0.12</ele>
  <time>2026-09-01T01:12:23Z</time>
  <course>0.0</course>
  <speed>0.0</speed>
  <fix>3d</fix>
</trkpt>
<trkpt lat="33.8103131" lon="-118.3938671">
  <ele>-0.125</ele>
  <time>2026-09-01T01:12:23Z</time>
  <course>186.7</course>
  <speed>0.022360679774997897</speed>
  <fix>3d</fix>
</trkpt>
<trkpt lat="33.810313" lon="-118.393867">
  <ele>-0.12</ele>
  <time>2026-09-01T01:12:23Z</time>
  <course>0.0</course>
  <speed>0.0</speed>
  <fix>3d</fix>
</trkpt>
<trkpt lat="33.8103131" lon="-118.3938671">
  <ele>-0.125</ele>
  <time>2026-09-01T01:12:23Z</time>
  <course>186.7</course>
  <speed>0.022360679774997897</speed>
  <fix>3d</fix>
</trkpt>
<trkpt lat="33.810313" lon="-118.393867">
  <ele>-0.12</ele>
  <time>2026-09-01T01:12:23Z</time>
  <course>0.0</course>
  <speed>0.0</speed>
  <fix>3d</fix>
</trkpt>
<trkpt lat="33.8103131" lon="-118.3938671">
  <ele>-0.126</ele>
  <time>2026-09-01T01:12:23Z</time>
  <course>186.7</course>
  <speed>0.022360679774997897</speed>
  <fix>3d</fix>
</trkpt>
<trkpt lat="33.810313" lon="-118.393867">
  <ele>-0.12</ele>
  <time>2026-09-01T01:12:23Z</time>
  <course>0.0</course>
  <speed>0.0</speed>
  <fix>3d</fix>
</trkpt>
<trkpt lat="33.8103131" lon="-118.3938671">
  <ele>-0.128</ele>
  <time>2026-09-01T01:12:23Z</time>
  <course>186.69</course>
  <speed>0.022360679774997897</speed>
  <fix>3d</fix>
</trkpt>
<trkpt lat="33.810313" lon="-118.393867">
  <ele>-0.12</ele>
  <time>2026-09-01T01:12:23Z</time>
  <course>0.0</course>
  <speed>0.0</speed>
  <fix>3d</fix>
</trkpt>
<trkpt lat="33.8103131" lon="-118.3938671">
  <ele>-0.131</ele>
  <time>2026-09-01T01:12:23Z</time>
  <course>186.69</course>
  <speed>0.022360679774997897</speed>
  <fix>3d</fix>
</trkpt>
<trkpt lat="33.810313" lon="-118.393867">
  <ele>-0.12</ele>
  <time>2026-09-01T01:12:23Z</time>
  <course>0.0</course>
  <speed>0.0</speed>
  <fix>3d</fix>
</trkpt>
<trkpt lat="33.8103131" lon="-118.3938671">
  <ele>-0.133</ele>
  <time>2026-09-01T01:12:23Z</time>
  <course>186.69</course>
  <speed>0.022360679774997897</speed>
  <fix>3d</fix>
</trkpt>
<trkpt lat="33.810313" lon="-118.393867">
  <ele>-0.12</ele>
  <time>2026-09-01T01:12:23Z</time>
  <course>0.0</course>
  <speed>0.0</speed>
  <fix>3d</fix>
</trkpt>
<trkpt lat="33.8103131" lon="-118.3938671">
  <ele>-0.133</ele>
  <time>2026-09-01T01:12:23Z</time>
  <course>186.69</course>
  <speed>0.022360679774997897</speed>
  <fix>3d</fix>
</trkpt>
<trkpt lat="33.810313" lon="-118.393867">
  <ele>-0.12</ele>
  <time>2026-09-01T01:12:23Z</time>
  <course>0.0</course>
  <speed>0.0</speed>
  <fix>3d</fix>
</trkpt>
<trkpt lat="33.8103131" lon="-118.3938671">
  <ele>-0.132</ele>
  <time>2026-09-01T01:12:23Z</time>
  <course>186.68</course>
  <speed>0.022360679774997897</speed>
  <fix>3d</fix>
</trkpt>
<trkpt lat="33.810313" lon="-118.393867">
  <ele>-0.12</ele>
  <time>2026-09-01T01:12:23Z</time>
  <course>0.0</course>
  <speed>0.0</speed>
  <fix>3d</fix>
</trkpt>
<trkpt lat="33.8103131" lon="-118.3938671">
  <ele>-0.132</ele>
  <time>2026-09-01T01:12:23Z</time>
  <course>186.68</course>
  <speed>0.022360679774997897</speed>
  <fix>3d</fix>
</trkpt>
<trkpt lat="33.810313" lon="-118.393867">
  <ele>-0.12</ele>
  <time>2026-09-01T01:12:23Z</time>
  <course>0.0</course>
  <speed>0.0</speed>
  <fix>3d</fix>
</trkpt>
<trkpt lat="33.8103131" lon="-118.3938671">
  <ele>-0.131</ele>
  <time>2026-09-01T01:12:23Z</time>
  <course>186.68</course>
  <speed>0.022360679774997897</speed>
  <fix>3d</fix>
</trkpt>
<trkpt lat="33.810313" lon="-118.393867">
  <ele>-0.12</ele>
  <time>2026-09-01T01:12:23Z</time>
  <course>0.0</course>
  <speed>0.0</speed>
  <fix>3d</fix>
</trkpt>
<trkpt lat="33.8103131" lon="-118.3938671">
  <ele>-0.13</ele>
  <time>2026-09-01T01:12:23Z</time>
  <course>186.68</course>
  <speed>0.022360679774997897</speed>
  <fix>3d</fix>
</trkpt>
<trkpt lat="33.810313" lon="-118.393867">
  <ele>-0.12</ele>
  <time>2026-09-01T01:12:23Z</time>
  <course>0.0</course>
  <speed>0.0</speed>
  <fix>3d</fix>
</trkpt>
<trkpt lat="33.8103131" lon="-118.3938671">
  <ele>-0.13</ele>
  <time>2026-09-01T01:12:23Z</time>
  <course>186.67</course>
  <speed>0.022360679774997897</speed>
  <fix>3d</fix>
</trkpt>
<trkpt lat="33.810313" lon="-118.393867">
  <ele>-0.12</ele>
  <time>2026-09-01T01:12:23Z</time>
  <course>0.0</course>
  <speed>0.0</speed>
  <fix>3d</fix>
</trkpt>
<trkpt lat="33.8103131" lon="-118.3938671">
  <ele>-0.13</ele>
  <time>2026-09-01T01:12:23Z</time>
  <course>186.67</course>
  <speed>0.022360679774997897</speed>
  <fix>3d</fix>
</trkpt>
<trkpt lat="33.810313" lon="-118.393867">
  <ele>-0.12</ele>
  <time>2026-09-01T01:12:23Z</time>
  <course>0.0</course>
  <speed>0.0</speed>
  <fix>3d</fix>
</trkpt>
<trkpt lat="33.8103131" lon="-118.3938671">
  <ele>-0.129</ele>
  <time>2026-09-01T01:12:23Z</time>
  <course>186.67</course>
  <speed>0.022360679774997897</speed>
  <fix>3d</fix>
</trkpt>
<trkpt lat="33.810313" lon="-118.393867">
  <ele>-0.12</ele>
  <time>2026-09-01T01:12:23Z</time>
  <course>0.0</course>
  <speed>0.0</speed>
  <fix>3d</fix>
</trkpt>
<trkpt lat="33.8103131" lon="-118.3938671">
  <ele>-0.13</ele>
  <time>2026-09-01T01:12:23Z</time>
  <course>186.67</course>
  <speed>0.022360679774997897</speed>
  <fix>3d</fix>
</trkpt>
<trkpt lat="33.810313" lon="-118.393867">
  <ele>-0.12</ele>
  <time>2026-09-01T01:12:23Z</time>
  <course>0.0</course>
  <speed>0.0</speed>
  <fix>3d</fix>
</trkpt>
<trkpt lat="33.8103131" lon="-118.3938671">
  <ele>-0.13</ele>
  <time>2026-09-01T01:12:23Z</time>
  <course>186.67</course>
  <speed>0.022360679774997897</speed>
  <fix>3d</fix>
</trkpt>
<trkpt lat="33.810313" lon="-118.393867">
  <ele>-0.12</ele>
  <time>2026-09-01T01:12:23Z</time>
  <course>0.0</course>
  <speed>0.0</speed>
  <fix>3d</fix>
</trkpt>
<trkpt lat="33.8103131" lon="-118.3938671">
  <ele>-0.13</ele>
  <time>2026-09-01T01:12:23Z</time>
  <course>186.66</course>
  <speed>0.022360679774997897</speed>
  <fix>3d</fix>
</trkpt>
<trkpt lat="33.810313" lon="-118.393867">
  <ele>-0.12</ele>
  <time>2026-09-01T01:12:23Z</time>
  <course>0.0</course>
  <speed>0.0</speed>
  <fix>3d</fix>
</trkpt>
<trkpt lat="33.4368002" lon="-117.0859339">
  <ele>-0.11</ele>
  <time>2026-09-01T01:12:24Z</time>
  <course>0.0</course>
  <speed>0.0</speed>
  <fix>3d</fix>
</trkpt>
<trkpt lat="33.4368002" lon="-117.0859339">
  <ele>-0.11</ele>
  <time>2026-09-01T01:12:24Z</time>
  <course>0.0</course>
  <speed>0.0</speed>
  <fix>3d</fix>
</trkpt>
<trkpt lat="33.810313" lon="-118.393867">
  <ele>0.0</ele>
  <time>2026-09-01T01:12:24Z</time>
  <course>173.5</course>
  <speed>0.0</speed>
  <fix>3d</fix>
</trkpt>
<trkpt lat="33.810313" lon="-118.393867">
  <ele>-0.11</ele>
  <time>2026-09-01T01:12:24Z</time>
  <course>0.0</course>
  <speed>0.0</speed>
  <fix>3d</fix>
</trkpt>
<trkpt lat="33.4368002" lon="-117.0859339">
  <ele>-0.11</ele>
  <time>2026-09-01T01:12:26Z</time>
  <course>0.0</course>
  <speed>0.0</speed>
  <fix>3d</fix>
</trkpt>
<trkpt lat="33.4368002" lon="-117.0859339">
  <ele>-0.11</ele>
  <time>2026-09-01T01:12:26Z</time>
  <course>0.0</course>
  <speed>0.0</speed>
  <fix>3d</fix>
</trkpt>
<trkpt lat="33.810313" lon="-118.393867">
  <ele>0.0</ele>
  <time>2026-09-01T01:12:26Z</time>
  <course>173.5</course>
  <speed>0.0</speed>
  <fix>3d</fix>
</trkpt>
<trkpt lat="33.810313" lon="-118.393867">
  <ele>-0.11</ele>
  <time>2026-09-01T01:12:26Z</time>
  <course>0.0</course>
  <speed>0.0</speed>
  <fix>3d</fix>
</trkpt>
<trkpt lat="33.810313" lon="-118.393867">
  <ele>0.0</ele>
  <time>2026-09-01T01:12:26Z</time>
  <course>173.64</course>
  <speed>0.0</speed>
  <fix>3d</fix>
</trkpt>
<trkpt lat="33.810313" lon="-118.393867">
  <ele>-0.11</ele>
  <time>2026-09-01T01:12:26Z</time>
  <course>0.0</course>
  <speed>0.0</speed>
  <fix>3d</fix>
</trkpt>
<trkpt lat="33.810313" lon="-118.393867">
  <ele>0.0</ele>
  <time>2026-09-01T01:12:26Z</time>
  <course>174.03</course>
  <speed>0.0</speed>
  <fix>3d</fix>
</trkpt>
<trkpt lat="33.810313" lon="-118.393867">
  <ele>-0.11</ele>
  <time>2026-09-01T01:12:26Z</time>
  <course>0.0</course>
  <speed>0.0</speed>
  <fix>3d</fix>
</trkpt>
<trkpt lat="33.810313" lon="-118.393867">
  <ele>0.0</ele>
  <time>2026-09-01T01:12:26Z</time>
  <course>174.57</course>
  <speed>0.0</speed>
  <fix>3d</fix>
</trkpt>
<trkpt lat="33.810313" lon="-118.393867">
  <ele>-0.11</ele>
  <time>2026-09-01T01:12:26Z</time>
  <course>0.0</course>
  <speed>0.0</speed>
  <fix>3d</fix>
</trkpt>
<trkpt lat="33.810313" lon="-118.393867">
  <ele>0.0</ele>
  <time>2026-09-01T01:12:26Z</time>
  <course>175.13</course>
  <speed>0.0</speed>
  <fix>3d</fix>
</trkpt>
<trkpt lat="33.810313" lon="-118.393867">
  <ele>-0.12</ele>
  <time>2026-09-01T01:12:26Z</time>
  <course>0.0</course>
  <speed>0.0</speed>
  <fix>3d</fix>
</trkpt>
<trkpt lat="33.810313" lon="-118.393867">
  <ele>0.0</ele>
  <time>2026-09-01T01:12:26Z</time>
  <course>175.67</course>
  <speed>0.0</speed>
  <fix>3d</fix>
</trkpt>
<trkpt lat="33.810313" lon="-118.393867">
  <ele>-0.12</ele>
  <time>2026-09-01T01:12:26Z</time>
  <course>0.0</course>
  <speed>0.0</speed>
  <fix>3d</fix>
</trkpt>
<trkpt lat="33.810313" lon="-118.393867">
  <ele>0.0</ele>
  <time>2026-09-01T01:12:26Z</time>
  <course>176.17</course>
  <speed>0.0</speed>
  <fix>3d</fix>
</trkpt>
<trkpt lat="33.810313" lon="-118.393867">
  <ele>-0.13</ele>
  <time>2026-09-01T01:12:26Z</time>
  <course>0.0</course>
  <speed>0.0</speed>
  <fix>3d</fix>
</trkpt>
<trkpt lat="33.810313" lon="-118.393867">
  <ele>0.0</ele>
  <time>2026-09-01T01:12:26Z</time>
  <course>176.65</course>
  <speed>0.0</speed>
  <fix>3d</fix>
</trkpt>
<trkpt lat="33.810313" lon="-118.393867">
  <ele>-0.13</ele>
  <time>2026-09-01T01:12:26Z</time>
  <course>0.0</course>
  <speed>0.0</speed>
  <fix>3d</fix>
</trkpt>
<trkpt lat="33.810313" lon="-118.393867">
  <ele>0.0</ele>
  <time>2026-09-01T01:12:26Z</time>
  <course>177.12</course>
  <speed>0.0</speed>
  <fix>3d</fix>
</trkpt>
<trkpt lat="33.810313" lon="-118.393867">
  <ele>-0.13</ele>
  <time>2026-09-01T01:12:26Z</time>
  <course>0.0</course>
  <speed>0.0</speed>
  <fix>3d</fix>
</trkpt>
<trkpt lat="33.810313" lon="-118.393867">
  <ele>0.0</ele>
  <time>2026-09-01T01:12:26Z</time>
  <course>177.57</course>
  <speed>0.0</speed>
  <fix>3d</fix>
</trkpt>
<trkpt lat="33.810313" lon="-118.393867">
  <ele>-0.13</ele>
  <time>2026-09-01T01:12:26Z</time>
  <course>0.0</course>
  <speed>0.0</speed>
  <fix>3d</fix>
</trkpt>
<trkpt lat="33.810313" lon="-118.393867">
  <ele>0.0</ele>
  <time>2026-09-01T01:12:26Z</time>
  <course>178.02</course>
  <speed>0.0</speed>
  <fix>3d</fix>
</trkpt>
<trkpt lat="33.810313" lon="-118.393867">
  <ele>-0.14</ele>
  <time>2026-09-01T01:12:26Z</time>
  <course>0.0</course>
  <speed>0.0</speed>
  <fix>3d</fix>
</trkpt>
<trkpt lat="33.810313" lon="-118.393867">
  <ele>0.0</ele>
  <time>2026-09-01T01:12:26Z</time>
  <course>178.45</course>
  <speed>0.0</speed>
  <fix>3d</fix>
</trkpt>
<trkpt lat="33.810313" lon="-118.393867">
  <ele>-0.14</ele>
  <time>2026-09-01T01:12:26Z</time>
  <course>0.0</course>
  <speed>0.0</speed>
  <fix>3d</fix>
</trkpt>
<trkpt lat="33.810313" lon="-118.393867">
  <ele>0.0</ele>
  <time>2026-09-01T01:12:26Z</time>
  <course>178.87</course>
  <speed>0.0</speed>
  <fix>3d</fix>
</trkpt>
<trkpt lat="33.810313" lon="-118.393867">
  <ele>-0.14</ele>
  <time>2026-09-01T01:12:26Z</time>
  <course>0.0</course>
  <speed>0.0</speed>
  <fix>3d</fix>
</trkpt>
<trkpt lat="33.810313" lon="-118.393867">
  <ele>0.0</ele>
  <time>2026-09-01T01:12:26Z</time>
  <course>179.27</course>
  <speed>0.0</speed>
  <fix>3d</fix>
</trkpt>
<trkpt lat="33.810313" lon="-118.393867">
  <ele>-0.14</ele>
  <time>2026-09-01T01:12:26Z</time>
  <course>0.0</course>
  <speed>0.0</speed>
  <fix>3d</fix>
</trkpt>
<trkpt lat="33.810313" lon="-118.393867">
  <ele>0.0</ele>
  <time>2026-09-01T01:12:26Z</time>
  <course>179.66</course>
  <speed>0.0</speed>
  <fix>3d</fix>
</trkpt>
<trkpt lat="33.810313" lon="-118.393867">
  <ele>-0.14</ele>
  <time>2026-09-01T01:12:26Z</time>
  <course>0.0</course>
  <speed>0.0</speed>
  <fix>3d</fix>
</trkpt>
<trkpt lat="33.810313" lon="-118.393867">
  <ele>0.0</ele>
  <time>2026-09-01T01:12:26Z</time>
  <course>180.05</course>
  <speed>0.0</speed>
  <fix>3d</fix>
</trkpt>
<trkpt lat="33.810313" lon="-118.393867">
  <ele>-0.14</ele>
  <time>2026-09-01T01:12:26Z</time>
  <course>0.0</course>
  <speed>0.0</speed>
  <fix>3d</fix>
</trkpt>
<trkpt lat="33.810313" lon="-118.393867">
  <ele>0.0</ele>
  <time>2026-09-01T01:12:26Z</time>
  <course>180.41</course>
  <speed>0.0</speed>
  <fix>3d</fix>
</trkpt>
<trkpt lat="33.810313" lon="-118.393867">
  <ele>-0.14</ele>
  <time>2026-09-01T01:12:26Z</time>
  <course>0.0</course>
  <speed>0.0</speed>
  <fix>3d</fix>
</trkpt>
<trkpt lat="33.810313" lon="-118.393867">
  <ele>0.0</ele>
  <time>2026-09-01T01:12:26Z</time>
  <course>180.76</course>
  <speed>0.0</speed>
  <fix>3d</fix>
</trkpt>
<trkpt lat="33.810313" lon="-118.393867">
  <ele>-0.14</ele>
  <time>2026-09-01T01:12:26Z</time>
  <course>0.0</course>
  <speed>0.0</speed>
  <fix>3d</fix>
</trkpt>
<trkpt lat="33.810313" lon="-118.393867">
  <ele>0.0</ele>
  <time>2026-09-01T01:12:26Z</time>
  <course>181.1</course>
  <speed>0.0</speed>
  <fix>3d</fix>
</trkpt>
<trkpt lat="33.810313" lon="-118.393867">
  <ele>-0.13</ele>
  <time>2026-09-01T01:12:26Z</time>
  <course>0.0</course>
  <speed>0.0</speed>
  <fix>3d</fix>
</trkpt>
<trkpt lat="33.810313" lon="-118.393867">
  <ele>0.0</ele>
  <time>2026-09-01T01:12:26Z</time>
  <course>181.43</course>
  <speed>0.0</speed>
  <fix>3d</fix>
</trkpt>
<trkpt lat="33.810313" lon="-118.393867">
  <ele>-0.13</ele>
  <time>2026-09-01T01:12:26Z</time>
  <course>0.0</course>
  <speed>0.0</speed>
  <fix>3d</fix>
</trkpt>
<trkpt lat="33.810313" lon="-118.393867">
  <ele>0.0</ele>
  <time>2026-09-01T01:12:26Z</time>
  <course>181.75</course>
  <speed>0.0</speed>
  <fix>3d</fix>
</trkpt>
<trkpt lat="33.810313" lon="-118.393867">
  <ele>-0.12</ele>
  <time>2026-09-01T01:12:26Z</time>
  <course>0.0</course>
  <speed>0.0</speed>
  <fix>3d</fix>
</trkpt>
<trkpt lat="33.810313" lon="-118.393867">
  <ele>0.0</ele>
  <time>2026-09-01T01:12:26Z</time>
  <course>182.05</course>
  <speed>0.0</speed>
  <fix>3d</fix>
</trkpt>
<trkpt lat="33.810313" lon="-118.393867">
  <ele>-0.12</ele>
  <time>2026-09-01T01:12:26Z</time>
  <course>0.0</course>
  <speed>0.0</speed>
  <fix>3d</fix>
</trkpt>
<trkpt lat="33.810313" lon="-118.393867">
  <ele>0.0</ele>
  <time>2026-09-01T01:12:26Z</time>
  <course>182.35</course>
  <speed>0.0</speed>
  <fix>3d</fix>
</trkpt>
<trkpt lat="33.810313" lon="-118.393867">
  <ele>-0.12</ele>
  <time>2026-09-01T01:12:26Z</time>
  <course>0.0</course>
  <speed>0.0</speed>
  <fix>3d</fix>
</trkpt>
<trkpt lat="33.810313" lon="-118.393867">
  <ele>0.0</ele>
  <time>2026-09-01T01:12:26Z</time>
  <course>182.63</course>
  <speed>0.0</speed>
  <fix>3d</fix>
</trkpt>
<trkpt lat="33.810313" lon="-118.393867">
  <ele>-0.12</ele>
  <time>2026-09-01T01:12:26Z</time>
  <course>0.0</course>
  <speed>0.0</speed>
  <fix>3d</fix>
</trkpt>
<trkpt lat="33.810313" lon="-118.393867">
  <ele>0.0</ele>
  <time>2026-09-01T01:12:26Z</time>
  <course>182.9</course>
  <speed>0.0</speed>
  <fix>3d</fix>
</trkpt>
<trkpt lat="33.810313" lon="-118.393867">
  <ele>-0.11</ele>
  <time>2026-09-01T01:12:26Z</time>
  <course>0.0</course>
  <speed>0.0</speed>
  <fix>3d</fix>
</trkpt>
<trkpt lat="33.810313" lon="-118.393867">
  <ele>0.0</ele>
  <time>2026-09-01T01:12:26Z</time>
  <course>183.16</course>
  <speed>0.0</speed>
  <fix>3d</fix>
</trkpt>
<trkpt lat="33.810313" lon="-118.393867">
  <ele>-0.11</ele>
  <time>2026-09-01T01:12:26Z</time>
  <course>0.0</course>
  <speed>0.0</speed>
  <fix>3d</fix>
</trkpt>
<trkpt lat="33.810313" lon="-118.393867">
  <ele>0.0</ele>
  <time>2026-09-01T01:12:26Z</time>
  <course>183.41</course>
  <speed>0.0</speed>
  <fix>3d</fix>
</trkpt>
<trkpt lat="33.810313" lon="-118.393867">
  <ele>-0.11</ele>
  <time>2026-09-01T01:12:26Z</time>
  <course>0.0</course>
  <speed>0.0</speed>
  <fix>3d</fix>
</trkpt>
<trkpt lat="33.810313" lon="-118.393867">
  <ele>0.0</ele>
  <time>2026-09-01T01:12:26Z</time>
  <course>183.65</course>
  <speed>0.0</speed>
  <fix>3d</fix>
</trkpt>
<trkpt lat="33.810313" lon="-118.393867">
  <ele>-0.11</ele>
  <time>2026-09-01T01:12:26Z</time>
  <course>0.0</course>
  <speed>0.0</speed>
  <fix>3d</fix>
</trkpt>
<trkpt lat="33.810313" lon="-118.393867">
  <ele>0.0</ele>
  <time>2026-09-01T01:12:26Z</time>
  <course>183.88</course>
  <speed>0.0</speed>
  <fix>3d</fix>
</trkpt>
<trkpt lat="33.810313" lon="-118.393867">
  <ele>-0.12</ele>
  <time>2026-09-01T01:12:26Z</time>
  <course>0.0</course>
  <speed>0.0</speed>
  <fix>3d</fix>
</trkpt>
<trkpt lat="33.810313" lon="-118.393867">
  <ele>0.0</ele>
  <time>2026-09-01T01:12:26Z</time>
  <course>184.11</course>
  <speed>0.0</speed>
  <fix>3d</fix>
</trkpt>
<trkpt lat="33.810313" lon="-118.393867">
  <ele>-0.12</ele>
  <time>2026-09-01T01:12:26Z</time>
  <course>0.0</course>
  <speed>0.0</speed>
  <fix>3d</fix>
</trkpt>
<trkpt lat="33.810313" lon="-118.393867">
  <ele>0.0</ele>
  <time>2026-09-01T01:12:26Z</time>
  <course>184.32</course>
  <speed>0.0</speed>
  <fix>3d</fix>
</trkpt>
<trkpt lat="33.810313" lon="-118.393867">
  <ele>-0.13</ele>
  <time>2026-09-01T01:12:26Z</time>
  <course>0.0</course>
  <speed>0.0</speed>
  <fix>3d</fix>
</trkpt>
<trkpt lat="33.810313" lon="-118.393867">
  <ele>0.0</ele>
  <time>2026-09-01T01:12:26Z</time>
  <course>184.52</course>
  <speed>0.0</speed>
  <fix>3d</fix>
</trkpt>
<trkpt lat="33.810313" lon="-118.393867">
  <ele>-0.13</ele>
  <time>2026-09-01T01:12:26Z</time>
  <course>0.0</course>
  <speed>0.0</speed>
  <fix>3d</fix>
</trkpt>
<trkpt lat="33.810313" lon="-118.393867">
  <ele>0.0</ele>
  <time>2026-09-01T01:12:26Z</time>
  <course>184.72</course>
  <speed>0.0</speed>
  <fix>3d</fix>
</trkpt>
<trkpt lat="33.810313" lon="-118.393867">
  <ele>-0.13</ele>
  <time>2026-09-01T01:12:26Z</time>
  <course>0.0</course>
  <speed>0.0</speed>
  <fix>3d</fix>
</trkpt>
<trkpt lat="33.810313" lon="-118.393867">
  <ele>0.0</ele>
  <time>2026-09-01T01:12:26Z</time>
  <course>184.91</course>
  <speed>0.0</speed>
  <fix>3d</fix>
</trkpt>
<trkpt lat="33.810313" lon="-118.393867">
  <ele>-0.13</ele>
  <time>2026-09-01T01:12:26Z</time>
  <course>0.0</course>
  <speed>0.0</speed>
  <fix>3d</fix>
</trkpt>
<trkpt lat="33.810313" lon="-118.393867">
  <ele>0.0</ele>
  <time>2026-09-01T01:12:26Z</time>
  <course>185.09</course>
  <speed>0.0</speed>
  <fix>3d</fix>
</trkpt>
<trkpt lat="33.810313" lon="-118.393867">
  <ele>-0.14</ele>
  <time>2026-09-01T01:12:26Z</time>
  <course>0.0</course>
  <speed>0.0</speed>
  <fix>3d</fix>
</trkpt>
<trkpt lat="33.810313" lon="-118.393867">
  <ele>0.0</ele>
  <time>2026-09-01T01:12:26Z</time>
  <course>185.26</course>
  <speed>0.0</speed>
  <fix>3d</fix>
</trkpt>
<trkpt lat="33.810313" lon="-118.393867">
  <ele>-0.14</ele>
  <time>2026-09-01T01:12:26Z</time>
  <course>0.0</course>
  <speed>0.0</speed>
  <fix>3d</fix>
</trkpt>
<trkpt lat="33.810313" lon="-118.393867">
  <ele>0.0</ele>
  <time>2026-09-01T01:12:26Z</time>
  <course>185.42</course>
  <speed>0.0</speed>
  <fix>3d</fix>
</trkpt>
<trkpt lat="33.810313" lon="-118.393867">
  <ele>-0.13</ele>
  <time>2026-09-01T01:12:26Z</time>
  <course>0.0</course>
  <speed>0.0</speed>
  <fix>3d</fix>
</trkpt>
<trkpt lat="33.810313" lon="-118.393867">
  <ele>0.0</ele>
  <time>2026-09-01T01:12:26Z</time>
  <course>185.58</course>
  <speed>0.0</speed>
  <fix>3d</fix>
</trkpt>
<trkpt lat="33.810313" lon="-118.393867">
  <ele>-0.13</ele>
  <time>2026-09-01T01:12:26Z</time>
  <course>0.0</course>
  <speed>0.0</speed>
  <fix>3d</fix>
</trkpt>
<trkpt lat="33.810313" lon="-118.393867">
  <ele>0.0</ele>
  <time>2026-09-01T01:12:26Z</time>
  <course>185.73</course>
  <speed>0.0</speed>
  <fix>3d</fix>
</trkpt>
<trkpt lat="33.810313" lon="-118.393867">
  <ele>-0.13</ele>
  <time>2026-09-01T01:12:26Z</time>
  <course>0.0</course>
  <speed>0.0</speed>
  <fix>3d</fix>
</trkpt>
<trkpt lat="33.810313" lon="-118.393867">
  <ele>0.0</ele>
  <time>2026-09-01T01:12:26Z</time>
  <course>185.87</course>
  <speed>0.0</speed>
  <fix>3d</fix>
</trkpt>
<trkpt lat="33.810313" lon="-118.393867">
  <ele>-0.13</ele>
  <time>2026-09-01T01:12:26Z</time>
  <course>0.0</course>
  <speed>0.0</speed>
  <fix>3d</fix>
</trkpt>
<trkpt lat="33.810313" lon="-118.393867">
  <ele>0.0</ele>
  <time>2026-09-01T01:12:26Z</time>
  <course>186.01</course>
  <speed>0.0</speed>
  <fix>3d</fix>
</trkpt>
<trkpt lat="33.810313" lon="-118.393867">
  <ele>-0.12</ele>
  <time>2026-09-01T01:12:26Z</time>
  <course>0.0</course>
  <speed>0.0</speed>
  <fix>3d</fix>
</trkpt>
<trkpt lat="33.810313" lon="-118.393867">
  <ele>0.0</ele>
  <time>2026-09-01T01:12:26Z</time>
  <course>186.14</course>
  <speed>0.0</speed>
  <fix>3d</fix>
</trkpt>
<trkpt lat="33.810313" lon="-118.393867">
  <ele>-0.12</ele>
  <time>2026-09-01T01:12:26Z</time>
  <course>0.0</course>
  <speed>0.0</speed>
  <fix>3d</fix>
</trkpt>
<trkpt lat="33.810313" lon="-118.393867">
  <ele>0.0</ele>
  <time>2026-09-01T01:12:26Z</time>
  <course>186.27</course>
  <speed>0.0</speed>
  <fix>3d</fix>
</trkpt>
<trkpt lat="33.810313" lon="-118.393867">
  <ele>-0.12</ele>
  <time>2026-09-01T01:12:26Z</time>
  <course>0.0</course>
  <speed>0.0</speed>
  <fix>3d</fix>
</trkpt>
<trkpt lat="33.810313" lon="-118.393867">
  <ele>0.0</ele>
  <time>2026-09-01T01:12:26Z</time>
  <course>186.39</course>
  <speed>0.0</speed>
  <fix>3d</fix>
</trkpt>
<trkpt lat="33.810313" lon="-118.393867">
  <ele>-0.12</ele>
  <time>2026-09-01T01:12:26Z</time>
  <course>0.0</course>
  <speed>0.0</speed>
  <fix>3d</fix>
</trkpt>
<trkpt lat="33.810313" lon="-118.393867">
  <ele>0.0</ele>
  <time>2026-09-01T01:12:26Z</time>
  <course>186.5</course>
  <speed>0.0</speed>
  <fix>3d</fix>
</trkpt>
<trkpt lat="33.810313" lon="-118.393867">
  <ele>-0.12</ele>
  <time>2026-09-01T01:12:26Z</time>
  <course>0.0</course>
  <speed>0.0</speed>
  <fix>3d</fix>
</trkpt>
<trkpt lat="33.810313" lon="-118.393867">
  <ele>0.0</ele>
  <time>2026-09-01T01:12:26Z</time>
  <course>186.61</course>
  <speed>0.0</speed>
  <fix>3d</fix>
</trkpt>
<trkpt lat="33.810313" lon="-118.393867">
  <ele>-0.12</ele>
  <time>2026-09-01T01:12:26Z</time>
  <course>0.0</course>
  <speed>0.0</speed>
  <fix>3d</fix>
</trkpt>
<trkpt lat="33.810313" lon="-118.393867">
  <ele>0.0</ele>
  <time>2026-09-01T01:12:26Z</time>
  <course>186.72</course>
  <speed>0.0</speed>
  <fix>3d</fix>
</trkpt>
<trkpt lat="33.810313" lon="-118.393867">
  <ele>-0.12</ele>
  <time>2026-09-01T01:12:26Z</time>
  <course>0.0</course>
  <speed>0.0</speed>
  <fix>3d</fix>
</trkpt>
<trkpt lat="33.810313" lon="-118.393867">
  <ele>0.0</ele>
  <time>2026-09-01T01:12:26Z</time>
  <course>186.82</course>
  <speed>0.0</speed>
  <fix>3d</fix>
</trkpt>
<trkpt lat="33.810313" lon="-118.393867">
  <ele>-0.12</ele>
  <time>2026-09-01T01:12:26Z</time>
  <course>0.0</course>
  <speed>0.0</speed>
  <fix>3d</fix>
</trkpt>
<trkpt lat="33.810313" lon="-118.393867">
  <ele>0.0</ele>
  <time>2026-09-01T01:12:26Z</time>
  <course>186.91</course>
  <speed>0.0</speed>
  <fix>3d</fix>
</trkpt>
<trkpt lat="33.810313" lon="-118.393867">
  <ele>-0.12</ele>
  <time>2026-09-01T01:12:26Z</time>
  <course>0.0</course>
  <speed>0.0</speed>
  <fix>3d</fix>
</trkpt>
<trkpt lat="33.810313" lon="-118.393867">
  <ele>0.0</ele>
  <time>2026-09-01T01:12:26Z</time>
  <course>187.0</course>
  <speed>0.0</speed>
  <fix>3d</fix>
</trkpt>
<trkpt lat="33.810313" lon="-118.393867">
  <ele>-0.12</ele>
  <time>2026-09-01T01:12:26Z</time>
  <course>0.0</course>
  <speed>0.0</speed>
  <fix>3d</fix>
</trkpt>
<trkpt lat="33.810313" lon="-118.393867">
  <ele>0.0</ele>
  <time>2026-09-01T01:12:26Z</time>
  <course>187.09</course>
  <speed>0.0</speed>
  <fix>3d</fix>
</trkpt>
<trkpt lat="33.810313" lon="-118.393867">
  <ele>-0.13</ele>
  <time>2026-09-01T01:12:26Z</time>
  <course>0.0</course>
  <speed>0.0</speed>
  <fix>3d</fix>
</trkpt>
<trkpt lat="33.810313" lon="-118.393867">
  <ele>0.0</ele>
  <time>2026-09-01T01:12:26Z</time>
  <course>187.17</course>
  <speed>0.0</speed>
  <fix>3d</fix>
</trkpt>
<trkpt lat="33.810313" lon="-118.393867">
  <ele>-0.13</ele>
  <time>2026-09-01T01:12:26Z</time>
  <course>0.0</course>
  <speed>0.0</speed>
  <fix>3d</fix>
</trkpt>
<trkpt lat="33.810313" lon="-118.393867">
  <ele>0.0</ele>
  <time>2026-09-01T01:12:26Z</time>
  <course>187.25</course>
  <speed>0.0</speed>
  <fix>3d</fix>
</trkpt>
<trkpt lat="33.810313" lon="-118.393867">
  <ele>-0.13</ele>
  <time>2026-09-01T01:12:26Z</time>
  <course>0.0</course>
  <speed>0.0</speed>
  <fix>3d</fix>
</trkpt>
<trkpt lat="33.810313" lon="-118.393867">
  <ele>0.0</ele>
  <time>2026-09-01T01:12:26Z</time>
  <course>187.33</course>
  <speed>0.0</speed>
  <fix>3d</fix>
</trkpt>
<trkpt lat="33.810313" lon="-118.393867">
  <ele>-0.13</ele>
  <time>2026-09-01T01:12:26Z</time>
  <course>0.0</course>
  <speed>0.0</speed>
  <fix>3d</fix>
</trkpt>
<trkpt lat="33.810313" lon="-118.393867">
  <ele>0.0</ele>
  <time>2026-09-01T01:12:26Z</time>
  <course>187.4</course>
  <speed>0.0</speed>
  <fix>3d</fix>
</trkpt>
<trkpt lat="33.810313" lon="-118.393867">
  <ele>-0.13</ele>
  <time>2026-09-01T01:12:26Z</time>
  <course>0.0</course>
  <speed>0.0</speed>
  <fix>3d</fix>
</trkpt>
<trkpt lat="33.810313" lon="-118.393867">
  <ele>0.0</ele>
  <time>2026-09-01T01:12:26Z</time>
  <course>187.47</course>
  <speed>0.0</speed>
  <fix>3d</fix>
</trkpt>
<trkpt lat="33.810313" lon="-118.393867">
  <ele>-0.13</ele>
  <time>2026-09-01T01:12:26Z</time>
  <course>0.0</course>
  <speed>0.0</speed>
  <fix>3d</fix>
</trkpt>
<trkpt lat="33.810313" lon="-118.393867">
  <ele>0.0</ele>
  <time>2026-09-01T01:12:26Z</time>
  <course>187.53</course>
  <speed>0.0</speed>
  <fix>3d</fix>
</trkpt>
<trkpt lat="33.810313" lon="-118.393867">
  <ele>-0.13</ele>
  <time>2026-09-01T01:12:26Z</time>
  <course>0.0</course>
  <speed>0.0</speed>
  <fix>3d</fix>
</trkpt>
<trkpt lat="33.810313" lon="-118.393867">
  <ele>0.0</ele>
  <time>2026-09-01T01:12:26Z</time>
  <course>187.59</course>
  <speed>0.0</speed>
  <fix>3d</fix>
</trkpt>
<trkpt lat="33.810313" lon="-118.393867">
  <ele>-0.13</ele>
  <time>2026-09-01T01:12:26Z</time>
  <course>0.0</course>
  <speed>0.0</speed>
  <fix>3d</fix>
</trkpt>
<trkpt lat="33.810313" lon="-118.393867">
  <ele>0.0</ele>
  <time>2026-09-01T01:12:26Z</time>
  <course>187.65</course>
  <speed>0.0</speed>
  <fix>3d</fix>
</trkpt>
<trkpt lat="33.810313" lon="-118.393867">
  <ele>-0.12</ele>
  <time>2026-09-01T01:12:26Z</time>
  <course>0.0</course>
  <speed>0.0</speed>
  <fix>3d</fix>
</trkpt>
<trkpt lat="33.810313" lon="-118.393867">
  <ele>0.0</ele>
  <time>2026-09-01T01:12:26Z</time>
  <course>187.71</course>
  <speed>0.0</speed>
  <fix>3d</fix>
</trkpt>
<trkpt lat="33.810313" lon="-118.393867">
  <ele>-0.12</ele>
  <time>2026-09-01T01:12:26Z</time>
  <course>0.0</course>
  <speed>0.0</speed>
  <fix>3d</fix>
</trkpt>
<trkpt lat="33.810313" lon="-118.393867">
  <ele>0.0</ele>
  <time>2026-09-01T01:12:26Z</time>
  <course>187.76</course>
  <speed>0.0</speed>
  <fix>3d</fix>
</trkpt>
<trkpt lat="33.810313" lon="-118.393867">
  <ele>-0.12</ele>
  <time>2026-09-01T01:12:26Z</time>
  <course>0.0</course>
  <speed>0.0</speed>
  <fix>3d</fix>
</trkpt>
<trkpt lat="33.810313" lon="-118.393867">
  <ele>0.0</ele>
  <time>2026-09-01T01:12:26Z</time>
  <course>187.81</course>
  <speed>0.0</speed>
  <fix>3d</fix>
</trkpt>
<trkpt lat="33.810313" lon="-118.393867">
  <ele>-0.12</ele>
  <time>2026-09-01T01:12:26Z</time>
  <course>0.0</course>
  <speed>0.0</speed>
  <fix>3d</fix>
</trkpt>
<trkpt lat="33.810313" lon="-118.393867">
  <ele>0.0</ele>
  <time>2026-09-01T01:12:26Z</time>
  <course>187.86</course>
  <speed>0.0</speed>
  <fix>3d</fix>
</trkpt>
<trkpt lat="33.810313" lon="-118.393867">
  <ele>-0.12</ele>
  <time>2026-09-01T01:12:26Z</time>
  <course>0.0</course>
  <speed>0.0</speed>
  <fix>3d</fix>
</trkpt>
<trkpt lat="33.810313" lon="-118.393867">
  <ele>0.0</ele>
  <time>2026-09-01T01:12:26Z</time>
  <course>187.91</course>
  <speed>0.0</speed>
  <fix>3d</fix>
</trkpt>
<trkpt lat="33.810313" lon="-118.393867">
  <ele>-0.12</ele>
  <time>2026-09-01T01:12:26Z</time>
  <course>0.0</course>
  <speed>0.0</speed>
  <fix>3d</fix>
</trkpt>
<trkpt lat="33.810313" lon="-118.393867">
  <ele>0.0</ele>
  <time>2026-09-01T01:12:26Z</time>
  <course>187.95</course>
  <speed>0.0</speed>
  <fix>3d</fix>
</trkpt>
<trkpt lat="33.810313" lon="-118.393867">
  <ele>-0.12</ele>
  <time>2026-09-01T01:12:26Z</time>
  <course>0.0</course>
  <speed>0.0</speed>
  <fix>3d</fix>
</trkpt>
<trkpt lat="33.810313" lon="-118.393867">
  <ele>0.0</ele>
  <time>2026-09-01T01:12:26Z</time>
  <course>187.99</course>
  <speed>0.0</speed>
  <fix>3d</fix>
</trkpt>
<trkpt lat="33.810313" lon="-118.393867">
  <ele>-0.12</ele>
  <time>2026-09-01T01:12:26Z</time>
  <course>0.0</course>
  <speed>0.0</speed>
  <fix>3d</fix>
</trkpt>
<trkpt lat="33.810313" lon="-118.393867">
  <ele>0.0</ele>
  <time>2026-09-01T01:12:26Z</time>
  <course>188.03</course>
  <speed>0.0</speed>
  <fix>3d</fix>
</trkpt>
<trkpt lat="33.810313" lon="-118.393867">
  <ele>-0.12</ele>
  <time>2026-09-01T01:12:26Z</time>
  <course>0.0</course>
  <speed>0.0</speed>
  <fix>3d</fix>
</trkpt>
<trkpt lat="33.810313" lon="-118.393867">
  <ele>0.0</ele>
  <time>2026-09-01T01:12:26Z</time>
  <course>188.07</course>
  <speed>0.0</speed>
  <fix>3d</fix>
</trkpt>
<trkpt lat="33.810313" lon="-118.393867">
  <ele>-0.12</ele>
  <time>2026-09-01T01:12:26Z</time>
  <course>0.0</course>
  <speed>0.0</speed>
  <fix>3d</fix>
</trkpt>
<trkpt lat="33.810313" lon="-118.393867">
  <ele>0.0</ele>
  <time>2026-09-01T01:12:26Z</time>
  <course>188.1</course>
  <speed>0.0</speed>
  <fix>3d</fix>
</trkpt>
<trkpt lat="33.810313" lon="-118.393867">
  <ele>-0.13</ele>
  <time>2026-09-01T01:12:26Z</time>
  <course>0.0</course>
  <speed>0.0</speed>
  <fix>3d</fix>
</trkpt>
<trkpt lat="33.810313" lon="-118.393867">
  <ele>0.0</ele>
  <time>2026-09-01T01:12:26Z</time>
  <course>188.13</course>
  <speed>0.0</speed>
  <fix>3d</fix>
</trkpt>
<trkpt lat="33.810313" lon="-118.393867">
  <ele>-0.13</ele>
  <time>2026-09-01T01:12:26Z</time>
  <course>0.0</course>
  <speed>0.0</speed>
  <fix>3d</fix>
</trkpt>
<trkpt lat="33.810313" lon="-118.393867">
  <ele>0.0</ele>
  <time>2026-09-01T01:12:26Z</time>
  <course>188.17</course>
  <speed>0.0</speed>
  <fix>3d</fix>
</trkpt>
<trkpt lat="33.810313" lon="-118.393867">
  <ele>-0.13</ele>
  <time>2026-09-01T01:12:26Z</time>
  <course>0.0</course>
  <speed>0.0</speed>
  <fix>3d</fix>
</trkpt>
<trkpt lat="33.810313" lon="-118.393867">
  <ele>0.0</ele>
  <time>2026-09-01T01:12:26Z</time>
  <course>188.19</course>
  <speed>0.0</speed>
  <fix>3d</fix>
</trkpt>
<trkpt lat="33.810313" lon="-118.393867">
  <ele>-0.13</ele>
  <time>2026-09-01T01:12:26Z</time>
  <course>0.0</course>
  <speed>0.0</speed>
  <fix>3d</fix>
</trkpt>
<trkpt lat="33.810313" lon="-118.393867">
  <ele>0.0</ele>
  <time>2026-09-01T01:12:26Z</time>
  <course>188.22</course>
  <speed>0.0</speed>
  <fix>3d</fix>
</trkpt>
<trkpt lat="33.810313" lon="-118.393867">
  <ele>-0.13</ele>
  <time>2026-09-01T01:12:26Z</time>
  <course>0.0</course>
  <speed>0.0</speed>
  <fix>3d</fix>
</trkpt>
<trkpt lat="33.810313" lon="-118.393867">
  <ele>0.0</ele>
  <time>2026-09-01T01:12:27Z</time>
  <course>188.25</course>
  <speed>0.0</speed>
  <fix>3d</fix>
</trkpt>
<trkpt lat="33.810313" lon="-118.393867">
  <ele>-0.13</ele>
  <time>2026-09-01T01:12:27Z</time>
  <course>0.0</course>
  <speed>0.0</speed>
  <fix>3d</fix>
</trkpt>
<trkpt lat="33.810313" lon="-118.393867">
  <ele>0.0</ele>
  <time>2026-09-01T01:12:27Z</time>
  <course>188.27</course>
  <speed>0.0</speed>
  <fix>3d</fix>
</trkpt>
<trkpt lat="33.810313" lon="-118.393867">
  <ele>-0.12</ele>
  <time>2026-09-01T01:12:27Z</time>
  <course>0.0</course>
  <speed>0.0</speed>
  <fix>3d</fix>
</trkpt>
<trkpt lat="33.810313" lon="-118.393867">
  <ele>0.0</ele>
  <time>2026-09-01T01:12:27Z</time>
  <course>188.3</course>
  <speed>0.0</speed>
  <fix>3d</fix>
</trkpt>
<trkpt lat="33.810313" lon="-118.393867">
  <ele>-0.12</ele>
  <time>2026-09-01T01:12:27Z</time>
  <course>0.0</course>
  <speed>0.0</speed>
  <fix>3d</fix>
</trkpt>
<trkpt lat="33.810313" lon="-118.393867">
  <ele>0.0</ele>
  <time>2026-09-01T01:12:27Z</time>
  <course>188.32</course>
  <speed>0.0</speed>
  <fix>3d</fix>
</trkpt>
<trkpt lat="33.810313" lon="-118.393867">
  <ele>-0.12</ele>
  <time>2026-09-01T01:12:27Z</time>
  <course>0.0</course>
  <speed>0.0</speed>
  <fix>3d</fix>
</trkpt>
<trkpt lat="33.810313" lon="-118.393867">
  <ele>0.0</ele>
  <time>2026-09-01T01:12:27Z</time>
  <course>188.34</course>
  <speed>0.0</speed>
  <fix>3d</fix>
</trkpt>
<trkpt lat="33.810313" lon="-118.393867">
  <ele>-0.12</ele>
  <time>2026-09-01T01:12:27Z</time>
  <course>0.0</course>
  <speed>0.0</speed>
  <fix>3d</fix>
</trkpt>
<trkpt lat="33.810313" lon="-118.393867">
  <ele>0.0</ele>
  <time>2026-09-01T01:12:27Z</time>
  <course>188.36</course>
  <speed>0.0</speed>
  <fix>3d</fix>
</trkpt>
<trkpt lat="33.810313" lon="-118.393867">
  <ele>-0.12</ele>
  <time>2026-09-01T01:12:27Z</time>
  <course>0.0</course>
  <speed>0.0</speed>
  <fix>3d</fix>
</trkpt>
<trkpt lat="33.810313" lon="-118.393867">
  <ele>0.0</ele>
  <time>2026-09-01T01:12:27Z</time>
  <course>188.38</course>
  <speed>0.0</speed>
  <fix>3d</fix>
</trkpt>
<trkpt lat="33.810313" lon="-118.393867">
  <ele>-0.12</ele>
  <time>2026-09-01T01:12:27Z</time>
  <course>0.0</course>
  <speed>0.0</speed>
  <fix>3d</fix>
</trkpt>
<trkpt lat="33.810313" lon="-118.393867">
  <ele>0.0</ele>
  <time>2026-09-01T01:12:27Z</time>
  <course>188.39</course>
  <speed>0.0</speed>
  <fix>3d</fix>
</trkpt>
<trkpt lat="33.810313" lon="-118.393867">
  <ele>-0.12</ele>
  <time>2026-09-01T01:12:27Z</time>
  <course>0.0</course>
  <speed>0.0</speed>
  <fix>3d</fix>
</trkpt>
<trkpt lat="33.810313" lon="-118.393867">
  <ele>0.0</ele>
  <time>2026-09-01T01:12:27Z</time>
  <course>188.41</course>
  <speed>0.0</speed>
  <fix>3d</fix>
</trkpt>
<trkpt lat="33.810313" lon="-118.393867">
  <ele>-0.12</ele>
  <time>2026-09-01T01:12:27Z</time>
  <course>0.0</course>
  <speed>0.0</speed>
  <fix>3d</fix>
</trkpt>
<trkpt lat="33.810313" lon="-118.393867">
  <ele>0.0</ele>
  <time>2026-09-01T01:12:27Z</time>
  <course>188.43</course>
  <speed>0.0</speed>
  <fix>3d</fix>
</trkpt>
<trkpt lat="33.810313" lon="-118.393867">
  <ele>-0.12</ele>
  <time>2026-09-01T01:12:27Z</time>
  <course>0.0</course>
  <speed>0.0</speed>
  <fix>3d</fix>
</trkpt>
<trkpt lat="33.810313" lon="-118.393867">
  <ele>0.0</ele>
  <time>2026-09-01T01:12:27Z</time>
  <course>188.44</course>
  <speed>0.0</speed>
  <fix>3d</fix>
</trkpt>
<trkpt lat="33.810313" lon="-118.393867">
  <ele>-0.12</ele>
  <time>2026-09-01T01:12:27Z</time>
  <course>0.0</course>
  <speed>0.0</speed>
  <fix>3d</fix>
</trkpt>
<trkpt lat="33.810313" lon="-118.393867">
  <ele>0.0</ele>
  <time>2026-09-01T01:12:27Z</time>
  <course>188.45</course>
  <speed>0.0</speed>
  <fix>3d</fix>
</trkpt>
<trkpt lat="33.810313" lon="-118.393867">
  <ele>-0.13</ele>
  <time>2026-09-01T01:12:27Z</time>
  <course>0.0</course>
  <speed>0.0</speed>
  <fix>3d</fix>
</trkpt>
<trkpt lat="33.810313" lon="-118.393867">
  <ele>0.0</ele>
  <time>2026-09-01T01:12:27Z</time>
  <course>188.46</course>
  <speed>0.0</speed>
  <fix>3d</fix>
</trkpt>
<trkpt lat="33.810313" lon="-118.393867">
  <ele>-0.13</ele>
  <time>2026-09-01T01:12:27Z</time>
  <course>0.0</course>
  <speed>0.0</speed>
  <fix>3d</fix>
</trkpt>
<trkpt lat="33.810313" lon="-118.393867">
  <ele>0.0</ele>
  <time>2026-09-01T01:12:27Z</time>
  <course>188.48</course>
  <speed>0.0</speed>
  <fix>3d</fix>
</trkpt>
<trkpt lat="33.810313" lon="-118.393867">
  <ele>-0.13</ele>
  <time>2026-09-01T01:12:27Z</time>
  <course>0.0</course>
  <speed>0.0</speed>
  <fix>3d</fix>
</trkpt>
<trkpt lat="33.810313" lon="-118.393867">
  <ele>0.0</ele>
  <time>2026-09-01T01:12:27Z</time>
  <course>188.49</course>
  <speed>0.0</speed>
  <fix>3d</fix>
</trkpt>
<trkpt lat="33.810313" lon="-118.393867">
  <ele>-0.13</ele>
  <time>2026-09-01T01:12:27Z</time>
  <course>0.0</course>
  <speed>0.0</speed>
  <fix>3d</fix>
</trkpt>
<trkpt lat="33.810313" lon="-118.393867">
  <ele>0.0</ele>
  <time>2026-09-01T01:12:27Z</time>
  <course>188.49</course>
  <speed>0.0</speed>
  <fix>3d</fix>
</trkpt>
<trkpt lat="33.810313" lon="-118.393867">
  <ele>-0.13</ele>
  <time>2026-09-01T01:12:27Z</time>
  <course>0.0</course>
  <speed>0.0</speed>
  <fix>3d</fix>
</trkpt>
<trkpt lat="33.810313" lon="-118.393867">
  <ele>0.0</ele>
  <time>2026-09-01T01:12:27Z</time>
  <course>188.5</course>
  <speed>0.0</speed>
  <fix>3d</fix>
</trkpt>
<trkpt lat="33.810313" lon="-118.393867">
  <ele>-0.13</ele>
  <time>2026-09-01T01:12:27Z</time>
  <course>0.0</course>
  <speed>0.0</speed>
  <fix>3d</fix>
</trkpt>
<trkpt lat="33.810313" lon="-118.393867">
  <ele>0.0</ele>
  <time>2026-09-01T01:12:27Z</time>
  <course>188.51</course>
  <speed>0.0</speed>
  <fix>3d</fix>
</trkpt>
<trkpt lat="33.810313" lon="-118.393867">
  <ele>-0.12</ele>
  <time>2026-09-01T01:12:27Z</time>
  <course>0.0</course>
  <speed>0.0</speed>
  <fix>3d</fix>
</trkpt>
<trkpt lat="33.810313" lon="-118.393867">
  <ele>0.0</ele>
  <time>2026-09-01T01:12:27Z</time>
  <course>188.52</course>
  <speed>0.0</speed>
  <fix>3d</fix>
</trkpt>
<trkpt lat="33.810313" lon="-118.393867">
  <ele>-0.12</ele>
  <time>2026-09-01T01:12:27Z</time>
  <course>0.0</course>
  <speed>0.0</speed>
  <fix>3d</fix>
</trkpt>
<trkpt lat="33.810313" lon="-118.393867">
  <ele>0.0</ele>
  <time>2026-09-01T01:12:27Z</time>
  <course>188.53</course>
  <speed>0.0</speed>
  <fix>3d</fix>
</trkpt>
<trkpt lat="33.810313" lon="-118.393867">
  <ele>-0.12</ele>
  <time>2026-09-01T01:12:27Z</time>
  <course>0.0</course>
  <speed>0.0</speed>
  <fix>3d</fix>
</trkpt>
<trkpt lat="33.810313" lon="-118.393867">
  <ele>0.0</ele>
  <time>2026-09-01T01:12:27Z</time>
  <course>188.53</course>
  <speed>0.0</speed>
  <fix>3d</fix>
</trkpt>
<trkpt lat="33.810313" lon="-118.393867">
  <ele>-0.12</ele>
  <time>2026-09-01T01:12:27Z</time>
  <course>0.0</course>
  <speed>0.0</speed>
  <fix>3d</fix>
</trkpt>
<trkpt lat="33.810313" lon="-118.393867">
  <ele>0.0</ele>
  <time>2026-09-01T01:12:27Z</time>
  <course>188.54</course>
  <speed>0.0</speed>
  <fix>3d</fix>
</trkpt>
<trkpt lat="33.810313" lon="-118.393867">
  <ele>-0.12</ele>
  <time>2026-09-01T01:12:27Z</time>
  <course>0.0</course>
  <speed>0.0</speed>
  <fix>3d</fix>
</trkpt>
<trkpt lat="33.810313" lon="-118.393867">
  <ele>0.0</ele>
  <time>2026-09-01T01:12:27Z</time>
  <course>188.54</course>
  <speed>0.0</speed>
  <fix>3d</fix>
</trkpt>
<trkpt lat="33.810313" lon="-118.393867">
  <ele>-0.12</ele>
  <time>2026-09-01T01:12:27Z</time>
  <course>0.0</course>
  <speed>0.0</speed>
  <fix>3d</fix>
</trkpt>
<trkpt lat="33.810313" lon="-118.393867">
  <ele>0.0</ele>
  <time>2026-09-01T01:12:27Z</time>
  <course>188.54</course>
  <speed>0.0</speed>
  <fix>3d</fix>
</trkpt>
<trkpt lat="33.810313" lon="-118.393867">
  <ele>-0.12</ele>
  <time>2026-09-01T01:12:27Z</time>
  <course>0.0</course>
  <speed>0.0</speed>
  <fix>3d</fix>
</trkpt>
<trkpt lat="33.810313" lon="-118.393867">
  <ele>0.0</ele>
  <time>2026-09-01T01:12:27Z</time>
  <course>188.55</course>
  <speed>0.0</speed>
  <fix>3d</fix>
</trkpt>
<trkpt lat="33.810313" lon="-118.393867">
  <ele>-0.12</ele>
  <time>2026-09-01T01:12:27Z</time>
  <course>0.0</course>
  <speed>0.0</speed>
  <fix>3d</fix>
</trkpt>
<trkpt lat="33.810313" lon="-118.393867">
  <ele>0.0</ele>
  <time>2026-09-01T01:12:27Z</time>
  <course>188.55</course>
  <speed>0.0</speed>
  <fix>3d</fix>
</trkpt>
<trkpt lat="33.810313" lon="-118.393867">
  <ele>-0.12</ele>
  <time>2026-09-01T01:12:27Z</time>
  <course>0.0</course>
  <speed>0.0</speed>
  <fix>3d</fix>
</trkpt>
<trkpt lat="33.810313" lon="-118.393867">
  <ele>0.0</ele>
  <time>2026-09-01T01:12:27Z</time>
  <course>188.55</course>
  <speed>0.0</speed>
  <fix>3d</fix>
</trkpt>
<trkpt lat="33.810313" lon="-118.393867">
  <ele>-0.12</ele>
  <time>2026-09-01T01:12:27Z</time>
  <course>0.0</course>
  <speed>0.0</speed>
  <fix>3d</fix>
</trkpt>
<trkpt lat="33.810313" lon="-118.393867">
  <ele>-0.126</ele>
  <time>2026-09-01T01:12:27Z</time>
  <course>188.55</course>
  <speed>0.0</speed>
  <fix>3d</fix>
</trkpt>
<trkpt lat="33.810313" lon="-118.393867">
  <ele>-0.13</ele>
  <time>2026-09-01T01:12:27Z</time>
  <course>0.0</course>
  <speed>0.0</speed>
  <fix>3d</fix>
</trkpt>
<trkpt lat="33.810313" lon="-118.393867">
  <ele>-0.126</ele>
  <time>2026-09-01T01:12:27Z</time>
  <course>188.56</course>
  <speed>0.0</speed>
  <fix>3d</fix>
</trkpt>
<trkpt lat="33.810313" lon="-118.393867">
  <ele>-0.13</ele>
  <time>2026-09-01T01:12:27Z</time>
  <course>0.0</course>
  <speed>0.0</speed>
  <fix>3d</fix>
</trkpt>
<trkpt lat="33.810313" lon="-118.393867">
  <ele>-0.124</ele>
  <time>2026-09-01T01:12:27Z</time>
  <course>188.56</course>
  <speed>0.0</speed>
  <fix>3d</fix>
</trkpt>
<trkpt lat="33.810313" lon="-118.393867">
  <ele>-0.13</ele>
  <time>2026-09-01T01:12:27Z</time>
  <course>0.0</course>
  <speed>0.0</speed>
  <fix>3d</fix>
</trkpt>
<trkpt lat="33.810313" lon="-118.393867">
  <ele>-0.123</ele>
  <time>2026-09-01T01:12:27Z</time>
  <course>188.56</course>
  <speed>0.0</speed>
  <fix>3d</fix>
</trkpt>
<trkpt lat="33.810313" lon="-118.393867">
  <ele>-0.13</ele>
  <time>2026-09-01T01:12:27Z</time>
  <course>0.0</course>
  <speed>0.0</speed>
  <fix>3d</fix>
</trkpt>
<trkpt lat="33.810313" lon="-118.393867">
  <ele>-0.121</ele>
  <time>2026-09-01T01:12:27Z</time>
  <course>188.56</course>
  <speed>0.0</speed>
  <fix>3d</fix>
</trkpt>
<trkpt lat="33.810313" lon="-118.393867">
  <ele>-0.12</ele>
  <time>2026-09-01T01:12:27Z</time>
  <course>0.0</course>
  <speed>0.0</speed>
  <fix>3d</fix>
</trkpt>
<trkpt lat="33.810313" lon="-118.393867">
  <ele>-0.12</ele>
  <time>2026-09-01T01:12:27Z</time>
  <course>188.56</course>
  <speed>0.0</speed>
  <fix>3d</fix>
</trkpt>
<trkpt lat="33.810313" lon="-118.393867">
  <ele>-0.12</ele>
  <time>2026-09-01T01:12:27Z</time>
  <course>0.0</course>
  <speed>0.0</speed>
  <fix>3d</fix>
</trkpt>
<trkpt lat="33.810313" lon="-118.393867">
  <ele>-0.119</ele>
  <time>2026-09-01T01:12:27Z</time>
  <course>188.56</course>
  <speed>0.0</speed>
  <fix>3d</fix>
</trkpt>
<trkpt lat="33.810313" lon="-118.393867">
  <ele>-0.12</ele>
  <time>2026-09-01T01:12:27Z</time>
  <course>0.0</course>
  <speed>0.0</speed>
  <fix>3d</fix>
</trkpt>
<trkpt lat="33.810313" lon="-118.393867">
  <ele>-0.12</ele>
  <time>2026-09-01T01:12:27Z</time>
  <course>188.56</course>
  <speed>0.0</speed>
  <fix>3d</fix>
</trkpt>
<trkpt lat="33.810313" lon="-118.393867">
  <ele>-0.12</ele>
  <time>2026-09-01T01:12:27Z</time>
  <course>0.0</course>
  <speed>0.0</speed>
  <fix>3d</fix>
</trkpt>
<trkpt lat="33.810313" lon="-118.393867">
  <ele>-0.124</ele>
  <time>2026-09-01T01:12:27Z</time>
  <course>188.55</course>
  <speed>0.0</speed>
  <fix>3d</fix>
</trkpt>
<trkpt lat="33.810313" lon="-118.393867">
  <ele>-0.12</ele>
  <time>2026-09-01T01:12:27Z</time>
  <course>0.0</course>
  <speed>0.0</speed>
  <fix>3d</fix>
</trkpt>
<trkpt lat="33.810313" lon="-118.393867">
  <ele>-0.127</ele>
  <time>2026-09-01T01:12:27Z</time>
  <course>188.55</course>
  <speed>0.0</speed>
  <fix>3d</fix>
</trkpt>
<trkpt lat="33.810313" lon="-118.393867">
  <ele>-0.12</ele>
  <time>2026-09-01T01:12:27Z</time>
  <course>0.0</course>
  <speed>0.0</speed>
  <fix>3d</fix>
</trkpt>
<trkpt lat="33.810313" lon="-118.393867">
  <ele>-0.13</ele>
  <time>2026-09-01T01:12:27Z</time>
  <course>188.55</course>
  <speed>0.0</speed>
  <fix>3d</fix>
</trkpt>
<trkpt lat="33.810313" lon="-118.393867">
  <ele>-0.12</ele>
  <time>2026-09-01T01:12:27Z</time>
  <course>0.0</course>
  <speed>0.0</speed>
  <fix>3d</fix>
</trkpt>
<trkpt lat="33.810313" lon="-118.393867">
  <ele>-0.132</ele>
  <time>2026-09-01T01:12:27Z</time>
  <course>188.55</course>
  <speed>0.0</speed>
  <fix>3d</fix>
</trkpt>
<trkpt lat="33.810313" lon="-118.393867">
  <ele>-0.12</ele>
  <time>2026-09-01T01:12:27Z</time>
  <course>0.0</course>
  <speed>0.0</speed>
  <fix>3d</fix>
</trkpt>
<trkpt lat="33.810313" lon="-118.393867">
  <ele>-0.132</ele>
  <time>2026-09-01T01:12:27Z</time>
  <course>188.55</course>
  <speed>0.0</speed>
  <fix>3d</fix>
</trkpt>
<trkpt lat="33.810313" lon="-118.393867">
  <ele>-0.12</ele>
  <time>2026-09-01T01:12:27Z</time>
  <course>0.0</course>
  <speed>0.0</speed>
  <fix>3d</fix>
</trkpt>
<trkpt lat="33.810313" lon="-118.393867">
  <ele>-0.132</ele>
  <time>2026-09-01T01:12:27Z</time>
  <course>188.55</course>
  <speed>0.0</speed>
  <fix>3d</fix>
</trkpt>
<trkpt lat="33.810313" lon="-118.393867">
  <ele>-0.12</ele>
  <time>2026-09-01T01:12:27Z</time>
  <course>0.0</course>
  <speed>0.0</speed>
  <fix>3d</fix>
</trkpt>
<trkpt lat="33.810313" lon="-118.393867">
  <ele>-0.132</ele>
  <time>2026-09-01T01:12:27Z</time>
  <course>188.55</course>
  <speed>0.0</speed>
  <fix>3d</fix>
</trkpt>
<trkpt lat="33.810313" lon="-118.393867">
  <ele>-0.12</ele>
  <time>2026-09-01T01:12:27Z</time>
  <course>0.0</course>
  <speed>0.0</speed>
  <fix>3d</fix>
</trkpt>
<trkpt lat="33.810313" lon="-118.393867">
  <ele>-0.131</ele>
  <time>2026-09-01T01:12:27Z</time>
  <course>188.55</course>
  <speed>0.0</speed>
  <fix>3d</fix>
</trkpt>
<trkpt lat="33.810313" lon="-118.393867">
  <ele>-0.12</ele>
  <time>2026-09-01T01:12:27Z</time>
  <course>0.0</course>
  <speed>0.0</speed>
  <fix>3d</fix>
</trkpt>
<trkpt lat="33.810313" lon="-118.393867">
  <ele>-0.129</ele>
  <time>2026-09-01T01:12:27Z</time>
  <course>188.54</course>
  <speed>0.0</speed>
  <fix>3d</fix>
</trkpt>
<trkpt lat="33.810313" lon="-118.393867">
  <ele>-0.13</ele>
  <time>2026-09-01T01:12:27Z</time>
  <course>0.0</course>
  <speed>0.0</speed>
  <fix>3d</fix>
</trkpt>
<trkpt lat="33.810313" lon="-118.393867">
  <ele>-0.128</ele>
  <time>2026-09-01T01:12:27Z</time>
  <course>188.54</course>
  <speed>0.0</speed>
  <fix>3d</fix>
</trkpt>
<trkpt lat="33.810313" lon="-118.393867">
  <ele>-0.13</ele>
  <time>2026-09-01T01:12:27Z</time>
  <course>0.0</course>
  <speed>0.0</speed>
  <fix>3d</fix>
</trkpt>
<trkpt lat="33.810313" lon="-118.393867">
  <ele>-0.125</ele>
  <time>2026-09-01T01:12:27Z</time>
  <course>188.53</course>
  <speed>0.0</speed>
  <fix>3d</fix>
</trkpt>
<trkpt lat="33.810313" lon="-118.393867">
  <ele>-0.12</ele>
  <time>2026-09-01T01:12:27Z</time>
  <course>0.0</course>
  <speed>0.0</speed>
  <fix>3d</fix>
</trkpt>
<trkpt lat="33.810313" lon="-118.393867">
  <ele>-0.123</ele>
  <time>2026-09-01T01:12:27Z</time>
  <course>188.53</course>
  <speed>0.0</speed>
  <fix>3d</fix>
</trkpt>
<trkpt lat="33.810313" lon="-118.393867">
  <ele>-0.12</ele>
  <time>2026-09-01T01:12:27Z</time>
  <course>0.0</course>
  <speed>0.0</speed>
  <fix>3d</fix>
</trkpt>
<trkpt lat="33.810313" lon="-118.393867">
  <ele>-0.121</ele>
  <time>2026-09-01T01:12:27Z</time>
  <course>188.52</course>
  <speed>0.0</speed>
  <fix>3d</fix>
</trkpt>
<trkpt lat="33.810313" lon="-118.393867">
  <ele>-0.12</ele>
  <time>2026-09-01T01:12:27Z</time>
  <course>0.0</course>
  <speed>0.0</speed>
  <fix>3d</fix>
</trkpt>
<trkpt lat="33.810313" lon="-118.393867">
  <ele>-0.121</ele>
  <time>2026-09-01T01:12:27Z</time>
  <course>188.52</course>
  <speed>0.0</speed>
  <fix>3d</fix>
</trkpt>
<trkpt lat="33.810313" lon="-118.393867">
  <ele>-0.12</ele>
  <time>2026-09-01T01:12:27Z</time>
  <course>0.0</course>
  <speed>0.0</speed>
  <fix>3d</fix>
</trkpt>
<trkpt lat="33.810313" lon="-118.393867">
  <ele>-0.122</ele>
  <time>2026-09-01T01:12:27Z</time>
  <course>188.51</course>
  <speed>0.0</speed>
  <fix>3d</fix>
</trkpt>
<trkpt lat="33.810313" lon="-118.393867">
  <ele>-0.12</ele>
  <time>2026-09-01T01:12:27Z</time>
  <course>0.0</course>
  <speed>0.0</speed>
  <fix>3d</fix>
</trkpt>
<trkpt lat="33.810313" lon="-118.393867">
  <ele>-0.123</ele>
  <time>2026-09-01T01:12:27Z</time>
  <course>188.51</course>
  <speed>0.0</speed>
  <fix>3d</fix>
</trkpt>
<trkpt lat="33.810313" lon="-118.393867">
  <ele>-0.12</ele>
  <time>2026-09-01T01:12:27Z</time>
  <course>0.0</course>
  <speed>0.0</speed>
  <fix>3d</fix>
</trkpt>
<trkpt lat="33.810313" lon="-118.393867">
  <ele>-0.126</ele>
  <time>2026-09-01T01:12:27Z</time>
  <course>188.5</course>
  <speed>0.0</speed>
  <fix>3d</fix>
</trkpt>
<trkpt lat="33.810313" lon="-118.393867">
  <ele>-0.12</ele>
  <time>2026-09-01T01:12:27Z</time>
  <course>0.0</course>
  <speed>0.0</speed>
  <fix>3d</fix>
</trkpt>
<trkpt lat="33.810313" lon="-118.393867">
  <ele>-0.127</ele>
  <time>2026-09-01T01:12:27Z</time>
  <course>188.5</course>
  <speed>0.0</speed>
  <fix>3d</fix>
</trkpt>
<trkpt lat="33.810313" lon="-118.393867">
  <ele>-0.12</ele>
  <time>2026-09-01T01:12:27Z</time>
  <course>0.0</course>
  <speed>0.0</speed>
  <fix>3d</fix>
</trkpt>
<trkpt lat="33.810313" lon="-118.393867">
  <ele>-0.128</ele>
  <time>2026-09-01T01:12:27Z</time>
  <course>188.49</course>
  <speed>0.0</speed>
  <fix>3d</fix>
</trkpt>
<trkpt lat="33.810313" lon="-118.393867">
  <ele>-0.12</ele>
  <time>2026-09-01T01:12:27Z</time>
  <course>0.0</course>
  <speed>0.0</speed>
  <fix>3d</fix>
</trkpt>
<trkpt lat="33.810313" lon="-118.393867">
  <ele>-0.127</ele>
  <time>2026-09-01T01:12:27Z</time>
  <course>188.48</course>
  <speed>0.0</speed>
  <fix>3d</fix>
</trkpt>
<trkpt lat="33.810313" lon="-118.393867">
  <ele>-0.12</ele>
  <time>2026-09-01T01:12:27Z</time>
  <course>0.0</course>
  <speed>0.0</speed>
  <fix>3d</fix>
</trkpt>
<trkpt lat="33.810313" lon="-118.393867">
  <ele>-0.127</ele>
  <time>2026-09-01T01:12:27Z</time>
  <course>188.48</course>
  <speed>0.0</speed>
  <fix>3d</fix>
</trkpt>
<trkpt lat="33.810313" lon="-118.393867">
  <ele>-0.12</ele>
  <time>2026-09-01T01:12:27Z</time>
  <course>0.0</course>
  <speed>0.0</speed>
  <fix>3d</fix>
</trkpt>
<trkpt lat="33.810313" lon="-118.393867">
  <ele>-0.127</ele>
  <time>2026-09-01T01:12:27Z</time>
  <course>188.47</course>
  <speed>0.01</speed>
  <fix>3d</fix>
</trkpt>
<trkpt lat="33.810313" lon="-118.393867">
  <ele>-0.12</ele>
  <time>2026-09-01T01:12:27Z</time>
  <course>0.0</course>
  <speed>0.0</speed>
  <fix>3d</fix>
</trkpt>
<trkpt lat="33.810313" lon="-118.393867">
  <ele>-0.127</ele>
  <time>2026-09-01T01:12:27Z</time>
  <course>188.47</course>
  <speed>0.01</speed>
  <fix>3d</fix>
</trkpt>
<trkpt lat="33.810313" lon="-118.393867">
  <ele>-0.12</ele>
  <time>2026-09-01T01:12:27Z</time>
  <course>0.0</course>
  <speed>0.0</speed>
  <fix>3d</fix>
</trkpt>
<trkpt lat="33.810313" lon="-118.393867">
  <ele>-0.126</ele>
  <time>2026-09-01T01:12:27Z</time>
  <course>188.46</course>
  <speed>0.01</speed>
  <fix>3d</fix>
</trkpt>
<trkpt lat="33.810313" lon="-118.393867">
  <ele>-0.12</ele>
  <time>2026-09-01T01:12:27Z</time>
  <course>0.0</course>
  <speed>0.0</speed>
  <fix>3d</fix>
</trkpt>
<trkpt lat="33.810313" lon="-118.393867">
  <ele>-0.126</ele>
  <time>2026-09-01T01:12:27Z</time>
  <course>188.45</course>
  <speed>0.01</speed>
  <fix>3d</fix>
</trkpt>
<trkpt lat="33.810313" lon="-118.393867">
  <ele>-0.12</ele>
  <time>2026-09-01T01:12:27Z</time>
  <course>0.0</course>
  <speed>0.0</speed>
  <fix>3d</fix>
</trkpt>
<trkpt lat="33.810313" lon="-118.393867">
  <ele>-0.126</ele>
  <time>2026-09-01T01:12:27Z</time>
  <course>188.45</course>
  <speed>0.01</speed>
  <fix>3d</fix>
</trkpt>
<trkpt lat="33.810313" lon="-118.393867">
  <ele>-0.12</ele>
  <time>2026-09-01T01:12:27Z</time>
  <course>0.0</course>
  <speed>0.0</speed>
  <fix>3d</fix>
</trkpt>
<trkpt lat="33.810313" lon="-118.393867">
  <ele>-0.125</ele>
  <time>2026-09-01T01:12:27Z</time>
  <course>188.44</course>
  <speed>0.01</speed>
  <fix>3d</fix>
</trkpt>
<trkpt lat="33.810313" lon="-118.393867">
  <ele>-0.12</ele>
  <time>2026-09-01T01:12:27Z</time>
  <course>0.0</course>
  <speed>0.0</speed>
  <fix>3d</fix>
</trkpt>
<trkpt lat="33.810313" lon="-118.393867">
  <ele>-0.126</ele>
  <time>2026-09-01T01:12:27Z</time>
  <course>188.43</course>
  <speed>0.01</speed>
  <fix>3d</fix>
</trkpt>
<trkpt lat="33.810313" lon="-118.393867">
  <ele>-0.12</ele>
  <time>2026-09-01T01:12:27Z</time>
  <course>0.0</course>
  <speed>0.0</speed>
  <fix>3d</fix>
</trkpt>
<trkpt lat="33.810313" lon="-118.393867">
  <ele>-0.127</ele>
  <time>2026-09-01T01:12:27Z</time>
  <course>188.42</course>
  <speed>0.01</speed>
  <fix>3d</fix>
</trkpt>
<trkpt lat="33.810313" lon="-118.393867">
  <ele>-0.12</ele>
  <time>2026-09-01T01:12:27Z</time>
  <course>0.0</course>
  <speed>0.0</speed>
  <fix>3d</fix>
</trkpt>
<trkpt lat="33.810313" lon="-118.393867">
  <ele>-0.128</ele>
  <time>2026-09-01T01:12:27Z</time>
  <course>188.42</course>
  <speed>0.01</speed>
  <fix>3d</fix>
</trkpt>
<trkpt lat="33.810313" lon="-118.393867">
  <ele>-0.12</ele>
  <time>2026-09-01T01:12:27Z</time>
  <course>0.0</course>
  <speed>0.0</speed>
  <fix>3d</fix>
</trkpt>
<trkpt lat="33.810313" lon="-118.393867">
  <ele>-0.129</ele>
  <time>2026-09-01T01:12:27Z</time>
  <course>188.41</course>
  <speed>0.01</speed>
  <fix>3d</fix>
</trkpt>
<trkpt lat="33.810313" lon="-118.393867">
  <ele>-0.12</ele>
  <time>2026-09-01T01:12:27Z</time>
  <course>0.0</course>
  <speed>0.0</speed>
  <fix>3d</fix>
</trkpt>
<trkpt lat="33.810313" lon="-118.393867">
  <ele>-0.129</ele>
  <time>2026-09-01T01:12:27Z</time>
  <course>188.4</course>
  <speed>0.01</speed>
  <fix>3d</fix>
</trkpt>
<trkpt lat="33.810313" lon="-118.393867">
  <ele>-0.12</ele>
  <time>2026-09-01T01:12:27Z</time>
  <course>0.0</course>
  <speed>0.0</speed>
  <fix>3d</fix>
</trkpt>
<trkpt lat="33.810313" lon="-118.393867">
  <ele>-0.13</ele>
  <time>2026-09-01T01:12:27Z</time>
  <course>188.4</course>
  <speed>0.01414213562373095</speed>
  <fix>3d</fix>
</trkpt>
<trkpt lat="33.810313" lon="-118.393867">
  <ele>-0.12</ele>
  <time>2026-09-01T01:12:27Z</time>
  <course>0.0</course>
  <speed>0.0</speed>
  <fix>3d</fix>
</trkpt>
<trkpt lat="33.810313" lon="-118.393867">
  <ele>-0.13</ele>
  <time>2026-09-01T01:12:27Z</time>
  <course>188.39</course>
  <speed>0.01414213562373095</speed>
  <fix>3d</fix>
</trkpt>
<trkpt lat="33.810313" lon="-118.393867">
  <ele>-0.12</ele>
  <time>2026-09-01T01:12:27Z</time>
  <course>0.0</course>
  <speed>0.0</speed>
  <fix>3d</fix>
</trkpt>
<trkpt lat="33.810313" lon="-118.393867">
  <ele>-0.13</ele>
  <time>2026-09-01T01:12:27Z</time>
  <course>188.38</course>
  <speed>0.01414213562373095</speed>
  <fix>3d</fix>
</trkpt>
<trkpt lat="33.810313" lon="-118.393867">
  <ele>-0.12</ele>
  <time>2026-09-01T01:12:27Z</time>
  <course>0.0</course>
  <speed>0.0</speed>
  <fix>3d</fix>
</trkpt>
<trkpt lat="33.810313" lon="-118.393867">
  <ele>-0.129</ele>
  <time>2026-09-01T01:12:27Z</time>
  <course>188.37</course>
  <speed>0.01414213562373095</speed>
  <fix>3d</fix>
</trkpt>
<trkpt lat="33.810313" lon="-118.393867">
  <ele>-0.12</ele>
  <time>2026-09-01T01:12:27Z</time>
  <course>0.0</course>
  <speed>0.0</speed>
  <fix>3d</fix>
</trkpt>
<trkpt lat="33.810313" lon="-118.393867">
  <ele>-0.128</ele>
  <time>2026-09-01T01:12:27Z</time>
  <course>188.37</course>
  <speed>0.01414213562373095</speed>
  <fix>3d</fix>
</trkpt>
<trkpt lat="33.810313" lon="-118.393867">
  <ele>-0.12</ele>
  <time>2026-09-01T01:12:27Z</time>
  <course>0.0</course>
  <speed>0.0</speed>
  <fix>3d</fix>
</trkpt>
<trkpt lat="33.810313" lon="-118.393867">
  <ele>-0.126</ele>
  <time>2026-09-01T01:12:27Z</time>
  <course>188.36</course>
  <speed>0.01414213562373095</speed>
  <fix>3d</fix>
</trkpt>
<trkpt lat="33.810313" lon="-118.393867">
  <ele>-0.12</ele>
  <time>2026-09-01T01:12:27Z</time>
  <course>0.0</course>
  <speed>0.0</speed>
  <fix>3d</fix>
</trkpt>
<trkpt lat="33.810313" lon="-118.393867">
  <ele>-0.124</ele>
  <time>2026-09-01T01:12:27Z</time>
  <course>188.35</course>
  <speed>0.01414213562373095</speed>
  <fix>3d</fix>
</trkpt>
<trkpt lat="33.810313" lon="-118.393867">
  <ele>-0.12</ele>
  <time>2026-09-01T01:12:27Z</time>
  <course>0.0</course>
  <speed>0.0</speed>
  <fix>3d</fix>
</trkpt>
<trkpt lat="33.810313" lon="-118.393867">
  <ele>-0.122</ele>
  <time>2026-09-01T01:12:27Z</time>
  <course>188.34</course>
  <speed>0.01414213562373095</speed>
  <fix>3d</fix>
</trkpt>
<trkpt lat="33.810313" lon="-118.393867">
  <ele>-0.12</ele>
  <time>2026-09-01T01:12:27Z</time>
  <course>0.0</course>
  <speed>0.0</speed>
  <fix>3d</fix>
</trkpt>
<trkpt lat="33.810313" lon="-118.393867">
  <ele>-0.123</ele>
  <time>2026-09-01T01:12:27Z</time>
  <course>188.33</course>
  <speed>0.01414213562373095</speed>
  <fix>3d</fix>
</trkpt>
<trkpt lat="33.810313" lon="-118.393867">
  <ele>-0.12</ele>
  <time>2026-09-01T01:12:27Z</time>
  <course>0.0</course>
  <speed>0.0</speed>
  <fix>3d</fix>
</trkpt>
<trkpt lat="33.810313" lon="-118.393867">
  <ele>-0.125</ele>
  <time>2026-09-01T01:12:27Z</time>
  <course>188.33</course>
  <speed>0.01414213562373095</speed>
  <fix>3d</fix>
</trkpt>
<trkpt lat="33.810313" lon="-118.393867">
  <ele>-0.12</ele>
  <time>2026-09-01T01:12:27Z</time>
  <course>0.0</course>
  <speed>0.0</speed>
  <fix>3d</fix>
</trkpt>
<trkpt lat="33.810313" lon="-118.393867">
  <ele>-0.128</ele>
  <time>2026-09-01T01:12:27Z</time>
  <course>188.32</course>
  <speed>0.01414213562373095</speed>
  <fix>3d</fix>
</trkpt>
<trkpt lat="33.810313" lon="-118.393867">
  <ele>-0.12</ele>
  <time>2026-09-01T01:12:27Z</time>
  <course>0.0</course>
  <speed>0.0</speed>
  <fix>3d</fix>
</trkpt>
<trkpt lat="33.810313" lon="-118.393867">
  <ele>-0.132</ele>
  <time>2026-09-01T01:12:27Z</time>
  <course>188.31</course>
  <speed>0.01414213562373095</speed>
  <fix>3d</fix>
</trkpt>
<trkpt lat="33.810313" lon="-118.393867">
  <ele>-0.12</ele>
  <time>2026-09-01T01:12:27Z</time>
  <course>0.0</course>
  <speed>0.0</speed>
  <fix>3d</fix>
</trkpt>
<trkpt lat="33.810313" lon="-118.393867">
  <ele>-0.135</ele>
  <time>2026-09-01T01:12:27Z</time>
  <course>188.3</course>
  <speed>0.01414213562373095</speed>
  <fix>3d</fix>
</trkpt>
<trkpt lat="33.810313" lon="-118.393867">
  <ele>-0.12</ele>
  <time>2026-09-01T01:12:27Z</time>
  <course>0.0</course>
  <speed>0.0</speed>
  <fix>3d</fix>
</trkpt>
<trkpt lat="33.810313" lon="-118.393867">
  <ele>-0.135</ele>
  <time>2026-09-01T01:12:27Z</time>
  <course>188.3</course>
  <speed>0.01414213562373095</speed>
  <fix>3d</fix>
</trkpt>
<trkpt lat="33.810313" lon="-118.393867">
  <ele>-0.12</ele>
  <time>2026-09-01T01:12:27Z</time>
  <course>0.0</course>
  <speed>0.0</speed>
  <fix>3d</fix>
</trkpt>
<trkpt lat="33.810313" lon="-118.393867">
  <ele>-0.134</ele>
  <time>2026-09-01T01:12:27Z</time>
  <course>188.29</course>
  <speed>0.01414213562373095</speed>
  <fix>3d</fix>
</trkpt>
<trkpt lat="33.810313" lon="-118.393867">
  <ele>-0.12</ele>
  <time>2026-09-01T01:12:27Z</time>
  <course>0.0</course>
  <speed>0.0</speed>
  <fix>3d</fix>
</trkpt>
<trkpt lat="33.810313" lon="-118.393867">
  <ele>-0.132</ele>
  <time>2026-09-01T01:12:27Z</time>
  <course>188.28</course>
  <speed>0.01414213562373095</speed>
  <fix>3d</fix>
</trkpt>
<trkpt lat="33.810313" lon="-118.393867">
  <ele>-0.12</ele>
  <time>2026-09-01T01:12:27Z</time>
  <course>0.0</course>
  <speed>0.0</speed>
  <fix>3d</fix>
</trkpt>
<trkpt lat="33.810313" lon="-118.393867">
  <ele>-0.129</ele>
  <time>2026-09-01T01:12:27Z</time>
  <course>188.27</course>
  <speed>0.01414213562373095</speed>
  <fix>3d</fix>
</trkpt>
<trkpt lat="33.810313" lon="-118.393867">
  <ele>-0.12</ele>
  <time>2026-09-01T01:12:27Z</time>
  <course>0.0</course>
  <speed>0.0</speed>
  <fix>3d</fix>
</trkpt>
<trkpt lat="33.810313" lon="-118.393867">
  <ele>-0.127</ele>
  <time>2026-09-01T01:12:27Z</time>
  <course>188.26</course>
  <speed>0.01414213562373095</speed>
  <fix>3d</fix>
</trkpt>
<trkpt lat="33.810313" lon="-118.393867">
  <ele>-0.12</ele>
  <time>2026-09-01T01:12:27Z</time>
  <course>0.0</course>
  <speed>0.0</speed>
  <fix>3d</fix>
</trkpt>
<trkpt lat="33.810313" lon="-118.393867">
  <ele>-0.124</ele>
  <time>2026-09-01T01:12:27Z</time>
  <course>188.25</course>
  <speed>0.01414213562373095</speed>
  <fix>3d</fix>
</trkpt>
<trkpt lat="33.810313" lon="-118.393867">
  <ele>-0.12</ele>
  <time>2026-09-01T01:12:27Z</time>
  <course>0.0</course>
  <speed>0.0</speed>
  <fix>3d</fix>
</trkpt>
<trkpt lat="33.810313" lon="-118.393867">
  <ele>-0.123</ele>
  <time>2026-09-01T01:12:27Z</time>
  <course>188.25</course>
  <speed>0.01414213562373095</speed>
  <fix>3d</fix>
</trkpt>
<trkpt lat="33.810313" lon="-118.393867">
  <ele>-0.12</ele>
  <time>2026-09-01T01:12:27Z</time>
  <course>0.0</course>
  <speed>0.0</speed>
  <fix>3d</fix>
</trkpt>
<trkpt lat="33.810313" lon="-118.393867">
  <ele>-0.124</ele>
  <time>2026-09-01T01:12:27Z</time>
  <course>188.24</course>
  <speed>0.01414213562373095</speed>
  <fix>3d</fix>
</trkpt>
<trkpt lat="33.810313" lon="-118.393867">
  <ele>-0.12</ele>
  <time>2026-09-01T01:12:27Z</time>
  <course>0.0</course>
  <speed>0.0</speed>
  <fix>3d</fix>
</trkpt>
<trkpt lat="33.810313" lon="-118.393867">
  <ele>-0.126</ele>
  <time>2026-09-01T01:12:27Z</time>
  <course>188.23</course>
  <speed>0.01414213562373095</speed>
  <fix>3d</fix>
</trkpt>
<trkpt lat="33.810313" lon="-118.393867">
  <ele>-0.12</ele>
  <time>2026-09-01T01:12:27Z</time>
  <course>0.0</course>
  <speed>0.0</speed>
  <fix>3d</fix>
</trkpt>
<trkpt lat="33.810313" lon="-118.393867">
  <ele>-0.127</ele>
  <time>2026-09-01T01:12:27Z</time>
  <course>188.22</course>
  <speed>0.01414213562373095</speed>
  <fix>3d</fix>
</trkpt>
<trkpt lat="33.810313" lon="-118.393867">
  <ele>-0.12</ele>
  <time>2026-09-01T01:12:27Z</time>
  <course>0.0</course>
  <speed>0.0</speed>
  <fix>3d</fix>
</trkpt>
<trkpt lat="33.810313" lon="-118.393867">
  <ele>-0.129</ele>
  <time>2026-09-01T01:12:27Z</time>
  <course>188.21</course>
  <speed>0.01414213562373095</speed>
  <fix>3d</fix>
</trkpt>
<trkpt lat="33.810313" lon="-118.393867">
  <ele>-0.12</ele>
  <time>2026-09-01T01:12:27Z</time>
  <course>0.0</course>
  <speed>0.0</speed>
  <fix>3d</fix>
</trkpt>
<trkpt lat="33.810313" lon="-118.393867">
  <ele>-0.129</ele>
  <time>2026-09-01T01:12:27Z</time>
  <course>188.21</course>
  <speed>0.01414213562373095</speed>
  <fix>3d</fix>
</trkpt>
<trkpt lat="33.810313" lon="-118.393867">
  <ele>-0.12</ele>
  <time>2026-09-01T01:12:27Z</time>
  <course>0.0</course>
  <speed>0.0</speed>
  <fix>3d</fix>
</trkpt>
<trkpt lat="33.810313" lon="-118.393867">
  <ele>-0.129</ele>
  <time>2026-09-01T01:12:27Z</time>
  <course>188.2</course>
  <speed>0.01414213562373095</speed>
  <fix>3d</fix>
</trkpt>
<trkpt lat="33.810313" lon="-118.393867">
  <ele>-0.12</ele>
  <time>2026-09-01T01:12:27Z</time>
  <course>0.0</course>
  <speed>0.0</speed>
  <fix>3d</fix>
</trkpt>
<trkpt lat="33.810313" lon="-118.393867">
  <ele>-0.128</ele>
  <time>2026-09-01T01:12:27Z</time>
  <course>188.19</course>
  <speed>0.01414213562373095</speed>
  <fix>3d</fix>
</trkpt>
<trkpt lat="33.810313" lon="-118.393867">
  <ele>-0.12</ele>
  <time>2026-09-01T01:12:27Z</time>
  <course>0.0</course>
  <speed>0.0</speed>
  <fix>3d</fix>
</trkpt>
<trkpt lat="33.810313" lon="-118.393867">
  <ele>-0.128</ele>
  <time>2026-09-01T01:12:27Z</time>
  <course>188.18</course>
  <speed>0.01414213562373095</speed>
  <fix>3d</fix>
</trkpt>
<trkpt lat="33.810313" lon="-118.393867">
  <ele>-0.12</ele>
  <time>2026-09-01T01:12:27Z</time>
  <course>0.0</course>
  <speed>0.0</speed>
  <fix>3d</fix>
</trkpt>
<trkpt lat="33.810313" lon="-118.393867">
  <ele>-0.127</ele>
  <time>2026-09-01T01:12:27Z</time>
  <course>188.17</course>
  <speed>0.01414213562373095</speed>
  <fix>3d</fix>
</trkpt>
<trkpt lat="33.810313" lon="-118.393867">
  <ele>-0.12</ele>
  <time>2026-09-01T01:12:27Z</time>
  <course>0.0</course>
  <speed>0.0</speed>
  <fix>3d</fix>
</trkpt>
<trkpt lat="33.810313" lon="-118.393867">
  <ele>-0.127</ele>
  <time>2026-09-01T01:12:27Z</time>
  <course>188.16</course>
  <speed>0.01414213562373095</speed>
  <fix>3d</fix>
</trkpt>
<trkpt lat="33.810313" lon="-118.393867">
  <ele>-0.12</ele>
  <time>2026-09-01T01:12:27Z</time>
  <course>0.0</course>
  <speed>0.0</speed>
  <fix>3d</fix>
</trkpt>
<trkpt lat="33.810313" lon="-118.393867">
  <ele>-0.128</ele>
  <time>2026-09-01T01:12:27Z</time>
  <course>188.16</course>
  <speed>0.01414213562373095</speed>
  <fix>3d</fix>
</trkpt>
<trkpt lat="33.810313" lon="-118.393867">
  <ele>-0.12</ele>
  <time>2026-09-01T01:12:27Z</time>
  <course>0.0</course>
  <speed>0.0</speed>
  <fix>3d</fix>
</trkpt>
<trkpt lat="33.810313" lon="-118.393867">
  <ele>-0.129</ele>
  <time>2026-09-01T01:12:27Z</time>
  <course>188.15</course>
  <speed>0.01414213562373095</speed>
  <fix>3d</fix>
</trkpt>
<trkpt lat="33.810313" lon="-118.393867">
  <ele>-0.12</ele>
  <time>2026-09-01T01:12:27Z</time>
  <course>0.0</course>
  <speed>0.0</speed>
  <fix>3d</fix>
</trkpt>
<trkpt lat="33.810313" lon="-118.393867">
  <ele>-0.131</ele>
  <time>2026-09-01T01:12:27Z</time>
  <course>188.14</course>
  <speed>0.01414213562373095</speed>
  <fix>3d</fix>
</trkpt>
<trkpt lat="33.810313" lon="-118.393867">
  <ele>-0.12</ele>
  <time>2026-09-01T01:12:27Z</time>
  <course>0.0</course>
  <speed>0.0</speed>
  <fix>3d</fix>
</trkpt>
<trkpt lat="33.810313" lon="-118.393867">
  <ele>-0.133</ele>
  <time>2026-09-01T01:12:27Z</time>
  <course>188.13</course>
  <speed>0.01414213562373095</speed>
  <fix>3d</fix>
</trkpt>
<trkpt lat="33.810313" lon="-118.393867">
  <ele>-0.12</ele>
  <time>2026-09-01T01:12:27Z</time>
  <course>0.0</course>
  <speed>0.0</speed>
  <fix>3d</fix>
</trkpt>
<trkpt lat="33.810313" lon="-118.393867">
  <ele>-0.135</ele>
  <time>2026-09-01T01:12:27Z</time>
  <course>188.12</course>
  <speed>0.01414213562373095</speed>
  <fix>3d</fix>
</trkpt>
<trkpt lat="33.810313" lon="-118.393867">
  <ele>-0.12</ele>
  <time>2026-09-01T01:12:27Z</time>
  <course>0.0</course>
  <speed>0.0</speed>
  <fix>3d</fix>
</trkpt>
<trkpt lat="33.810313" lon="-118.393867">
  <ele>-0.136</ele>
  <time>2026-09-01T01:12:27Z</time>
  <course>188.12</course>
  <speed>0.01414213562373095</speed>
  <fix>3d</fix>
</trkpt>
<trkpt lat="33.810313" lon="-118.393867">
  <ele>-0.12</ele>
  <time>2026-09-01T01:12:27Z</time>
  <course>0.0</course>
  <speed>0.0</speed>
  <fix>3d</fix>
</trkpt>
<trkpt lat="33.810313" lon="-118.393867">
  <ele>-0.136</ele>
  <time>2026-09-01T01:12:27Z</time>
  <course>188.11</course>
  <speed>0.01414213562373095</speed>
  <fix>3d</fix>
</trkpt>
<trkpt lat="33.810313" lon="-118.393867">
  <ele>-0.12</ele>
  <time>2026-09-01T01:12:27Z</time>
  <course>0.0</course>
  <speed>0.0</speed>
  <fix>3d</fix>
</trkpt>
<trkpt lat="33.810313" lon="-118.393867">
  <ele>-0.136</ele>
  <time>2026-09-01T01:12:27Z</time>
  <course>188.1</course>
  <speed>0.01414213562373095</speed>
  <fix>3d</fix>
</trkpt>
<trkpt lat="33.810313" lon="-118.393867">
  <ele>-0.12</ele>
  <time>2026-09-01T01:12:27Z</time>
  <course>0.0</course>
  <speed>0.0</speed>
  <fix>3d</fix>
</trkpt>
<trkpt lat="33.810313" lon="-118.393867">
  <ele>-0.135</ele>
  <time>2026-09-01T01:12:27Z</time>
  <course>188.09</course>
  <speed>0.01414213562373095</speed>
  <fix>3d</fix>
</trkpt>
<trkpt lat="33.810313" lon="-118.393867">
  <ele>-0.12</ele>
  <time>2026-09-01T01:12:27Z</time>
  <course>0.0</course>
  <speed>0.0</speed>
  <fix>3d</fix>
</trkpt>
<trkpt lat="33.810313" lon="-118.393867">
  <ele>-0.134</ele>
  <time>2026-09-01T01:12:27Z</time>
  <course>188.08</course>
  <speed>0.01414213562373095</speed>
  <fix>3d</fix>
</trkpt>
<trkpt lat="33.810313" lon="-118.393867">
  <ele>-0.12</ele>
  <time>2026-09-01T01:12:27Z</time>
  <course>0.0</course>
  <speed>0.0</speed>
  <fix>3d</fix>
</trkpt>
<trkpt lat="33.810313" lon="-118.393867">
  <ele>-0.131</ele>
  <time>2026-09-01T01:12:27Z</time>
  <course>188.07</course>
  <speed>0.022360679774997897</speed>
  <fix>3d</fix>
</trkpt>
<trkpt lat="33.810313" lon="-118.393867">
  <ele>-0.12</ele>
  <time>2026-09-01T01:12:27Z</time>
  <course>0.0</course>
  <speed>0.0</speed>
  <fix>3d</fix>
</trkpt>
<trkpt lat="33.810313" lon="-118.393867">
  <ele>-0.128</ele>
  <time>2026-09-01T01:12:27Z</time>
  <course>188.07</course>
  <speed>0.022360679774997897</speed>
  <fix>3d</fix>
</trkpt>
<trkpt lat="33.810313" lon="-118.393867">
  <ele>-0.12</ele>
  <time>2026-09-01T01:12:27Z</time>
  <course>0.0</course>
  <speed>0.0</speed>
  <fix>3d</fix>
</trkpt>
<trkpt lat="33.810313" lon="-118.393867">
  <ele>-0.126</ele>
  <time>2026-09-01T01:12:27Z</time>
  <course>188.06</course>
  <speed>0.022360679774997897</speed>
  <fix>3d</fix>
</trkpt>
<trkpt lat="33.810313" lon="-118.393867">
  <ele>-0.12</ele>
  <time>2026-09-01T01:12:27Z</time>
  <course>0.0</course>
  <speed>0.0</speed>
  <fix>3d</fix>
</trkpt>
<trkpt lat="33.810313" lon="-118.393867">
  <ele>-0.126</ele>
  <time>2026-09-01T01:12:27Z</time>
  <course>188.05</course>
  <speed>0.022360679774997897</speed>
  <fix>3d</fix>
</trkpt>
<trkpt lat="33.810313" lon="-118.393867">
  <ele>-0.12</ele>
  <time>2026-09-01T01:12:27Z</time>
  <course>0.0</course>
  <speed>0.0</speed>
  <fix>3d</fix>
</trkpt>
<trkpt lat="33.810313" lon="-118.393867">
  <ele>-0.126</ele>
  <time>2026-09-01T01:12:27Z</time>
  <course>188.04</course>
  <speed>0.022360679774997897</speed>
  <fix>3d</fix>
</trkpt>
<trkpt lat="33.810313" lon="-118.393867">
  <ele>-0.12</ele>
  <time>2026-09-01T01:12:27Z</time>
  <course>0.0</course>
  <speed>0.0</speed>
  <fix>3d</fix>
</trkpt>
<trkpt lat="33.810313" lon="-118.393867">
  <ele>-0.127</ele>
  <time>2026-09-01T01:12:27Z</time>
  <course>188.03</course>
  <speed>0.022360679774997897</speed>
  <fix>3d</fix>
</trkpt>
<trkpt lat="33.810313" lon="-118.393867">
  <ele>-0.12</ele>
  <time>2026-09-01T01:12:27Z</time>
  <course>0.0</course>
  <speed>0.0</speed>
  <fix>3d</fix>
</trkpt>
<trkpt lat="33.810313" lon="-118.393867">
  <ele>-0.127</ele>
  <time>2026-09-01T01:12:27Z</time>
  <course>188.03</course>
  <speed>0.022360679774997897</speed>
  <fix>3d</fix>
</trkpt>
<trkpt lat="33.810313" lon="-118.393867">
  <ele>-0.12</ele>
  <time>2026-09-01T01:12:27Z</time>
  <course>0.0</course>
  <speed>0.0</speed>
  <fix>3d</fix>
</trkpt>
<trkpt lat="33.810313" lon="-118.393867">
  <ele>-0.127</ele>
  <time>2026-09-01T01:12:27Z</time>
  <course>188.02</course>
  <speed>0.022360679774997897</speed>
  <fix>3d</fix>
</trkpt>
<trkpt lat="33.810313" lon="-118.393867">
  <ele>-0.12</ele>
  <time>2026-09-01T01:12:27Z</time>
  <course>0.0</course>
  <speed>0.0</speed>
  <fix>3d</fix>
</trkpt>
<trkpt lat="33.810313" lon="-118.393867">
  <ele>-0.128</ele>
  <time>2026-09-01T01:12:27Z</time>
  <course>188.01</course>
  <speed>0.022360679774997897</speed>
  <fix>3d</fix>
</trkpt>
<trkpt lat="33.810313" lon="-118.393867">
  <ele>-0.12</ele>
  <time>2026-09-01T01:12:27Z</time>
  <course>0.0</course>
  <speed>0.0</speed>
  <fix>3d</fix>
</trkpt>
<trkpt lat="33.810313" lon="-118.393867">
  <ele>-0.128</ele>
  <time>2026-09-01T01:12:27Z</time>
  <course>188.0</course>
  <speed>0.022360679774997897</speed>
  <fix>3d</fix>
</trkpt>
<trkpt lat="33.810313" lon="-118.393867">
  <ele>-0.12</ele>
  <time>2026-09-01T01:12:27Z</time>
  <course>0.0</course>
  <speed>0.0</speed>
  <fix>3d</fix>
</trkpt>
<trkpt lat="33.810313" lon="-118.393867">
  <ele>-0.127</ele>
  <time>2026-09-01T01:12:27Z</time>
  <course>187.99</course>
  <speed>0.022360679774997897</speed>
  <fix>3d</fix>
</trkpt>
<trkpt lat="33.810313" lon="-118.393867">
  <ele>-0.12</ele>
  <time>2026-09-01T01:12:27Z</time>
  <course>0.0</course>
  <speed>0.0</speed>
  <fix>3d</fix>
</trkpt>
<trkpt lat="33.810313" lon="-118.393867">
  <ele>-0.126</ele>
  <time>2026-09-01T01:12:27Z</time>
  <course>187.98</course>
  <speed>0.022360679774997897</speed>
  <fix>3d</fix>
</trkpt>
<trkpt lat="33.810313" lon="-118.393867">
  <ele>-0.12</ele>
  <time>2026-09-01T01:12:27Z</time>
  <course>0.0</course>
  <speed>0.0</speed>
  <fix>3d</fix>
</trkpt>
<trkpt lat="33.810313" lon="-118.393867">
  <ele>-0.123</ele>
  <time>2026-09-01T01:12:27Z</time>
  <course>187.98</course>
  <speed>0.022360679774997897</speed>
  <fix>3d</fix>
</trkpt>
<trkpt lat="33.810313" lon="-118.393867">
  <ele>-0.12</ele>
  <time>2026-09-01T01:12:27Z</time>
  <course>0.0</course>
  <speed>0.0</speed>
  <fix>3d</fix>
</trkpt>
<trkpt lat="33.810313" lon="-118.393867">
  <ele>-0.121</ele>
  <time>2026-09-01T01:12:27Z</time>
  <course>187.97</course>
  <speed>0.022360679774997897</speed>
  <fix>3d</fix>
</trkpt>
<trkpt lat="33.810313" lon="-118.393867">
  <ele>-0.12</ele>
  <time>2026-09-01T01:12:27Z</time>
  <course>0.0</course>
  <speed>0.0</speed>
  <fix>3d</fix>
</trkpt>
<trkpt lat="33.810313" lon="-118.393867">
  <ele>-0.12</ele>
  <time>2026-09-01T01:12:27Z</time>
  <course>187.96</course>
  <speed>0.022360679774997897</speed>
  <fix>3d</fix>
</trkpt>
<trkpt lat="33.810313" lon="-118.393867">
  <ele>-0.12</ele>
  <time>2026-09-01T01:12:27Z</time>
  <course>0.0</course>
  <speed>0.0</speed>
  <fix>3d</fix>
</trkpt>
<trkpt lat="33.810313" lon="-118.393867">
  <ele>-0.12</ele>
  <time>2026-09-01T01:12:27Z</time>
  <course>187.95</course>
  <speed>0.022360679774997897</speed>
  <fix>3d</fix>
</trkpt>
<trkpt lat="33.810313" lon="-118.393867">
  <ele>-0.12</ele>
  <time>2026-09-01T01:12:27Z</time>
  <course>0.0</course>
  <speed>0.0</speed>
  <fix>3d</fix>
</trkpt>
<trkpt lat="33.810313" lon="-118.393867">
  <ele>-0.122</ele>
  <time>2026-09-01T01:12:27Z</time>
  <course>187.94</course>
  <speed>0.022360679774997897</speed>
  <fix>3d</fix>
</trkpt>
<trkpt lat="33.810313" lon="-118.393867">
  <ele>-0.12</ele>
  <time>2026-09-01T01:12:27Z</time>
  <course>0.0</course>
  <speed>0.0</speed>
  <fix>3d</fix>
</trkpt>
<trkpt lat="33.810313" lon="-118.393867">
  <ele>-0.125</ele>
  <time>2026-09-01T01:12:27Z</time>
  <course>187.94</course>
  <speed>0.022360679774997897</speed>
  <fix>3d</fix>
</trkpt>
<trkpt lat="33.810313" lon="-118.393867">
  <ele>-0.12</ele>
  <time>2026-09-01T01:12:27Z</time>
  <course>0.0</course>
  <speed>0.0</speed>
  <fix>3d</fix>
</trkpt>
<trkpt lat="33.810313" lon="-118.393867">
  <ele>-0.129</ele>
  <time>2026-09-01T01:12:27Z</time>
  <course>187.93</course>
  <speed>0.022360679774997897</speed>
  <fix>3d</fix>
</trkpt>
<trkpt lat="33.810313" lon="-118.393867">
  <ele>-0.12</ele>
  <time>2026-09-01T01:12:27Z</time>
  <course>0.0</course>
  <speed>0.0</speed>
  <fix>3d</fix>
</trkpt>
<trkpt lat="33.810313" lon="-118.393867">
  <ele>-0.131</ele>
  <time>2026-09-01T01:12:27Z</time>
  <course>187.92</course>
  <speed>0.022360679774997897</speed>
  <fix>3d</fix>
</trkpt>
<trkpt lat="33.810313" lon="-118.393867">
  <ele>-0.12</ele>
  <time>2026-09-01T01:12:27Z</time>
  <course>0.0</course>
  <speed>0.0</speed>
  <fix>3d</fix>
</trkpt>
<trkpt lat="33.810313" lon="-118.393867">
  <ele>-0.132</ele>
  <time>2026-09-01T01:12:27Z</time>
  <course>187.91</course>
  <speed>0.022360679774997897</speed>
  <fix>3d</fix>
</trkpt>
<trkpt lat="33.810313" lon="-118.393867">
  <ele>-0.12</ele>
  <time>2026-09-01T01:12:27Z</time>
  <course>0.0</course>
  <speed>0.0</speed>
  <fix>3d</fix>
</trkpt>
<trkpt lat="33.810313" lon="-118.393867">
  <ele>-0.132</ele>
  <time>2026-09-01T01:12:27Z</time>
  <course>187.9</course>
  <speed>0.022360679774997897</speed>
  <fix>3d</fix>
</trkpt>
<trkpt lat="33.810313" lon="-118.393867">
  <ele>-0.12</ele>
  <time>2026-09-01T01:12:27Z</time>
  <course>0.0</course>
  <speed>0.0</speed>
  <fix>3d</fix>
</trkpt>
<trkpt lat="33.810313" lon="-118.393867">
  <ele>-0.132</ele>
  <time>2026-09-01T01:12:27Z</time>
  <course>187.9</course>
  <speed>0.022360679774997897</speed>
  <fix>3d</fix>
</trkpt>
<trkpt lat="33.810313" lon="-118.393867">
  <ele>-0.12</ele>
  <time>2026-09-01T01:12:27Z</time>
  <course>0.0</course>
  <speed>0.0</speed>
  <fix>3d</fix>
</trkpt>
<trkpt lat="33.810313" lon="-118.393867">
  <ele>-0.13</ele>
  <time>2026-09-01T01:12:27Z</time>
  <course>187.89</course>
  <speed>0.022360679774997897</speed>
  <fix>3d</fix>
</trkpt>
<trkpt lat="33.810313" lon="-118.393867">
  <ele>-0.12</ele>
  <time>2026-09-01T01:12:27Z</time>
  <course>0.0</course>
  <speed>0.0</speed>
  <fix>3d</fix>
</trkpt>
<trkpt lat="33.810313" lon="-118.393867">
  <ele>-0.127</ele>
  <time>2026-09-01T01:12:27Z</time>
  <course>187.88</course>
  <speed>0.022360679774997897</speed>
  <fix>3d</fix>
</trkpt>
<trkpt lat="33.810313" lon="-118.393867">
  <ele>-0.12</ele>
  <time>2026-09-01T01:12:27Z</time>
  <course>0.0</course>
  <speed>0.0</speed>
  <fix>3d</fix>
</trkpt>
<trkpt lat="33.810313" lon="-118.393867">
  <ele>-0.123</ele>
  <time>2026-09-01T01:12:27Z</time>
  <course>187.87</course>
  <speed>0.022360679774997897</speed>
  <fix>3d</fix>
</trkpt>
<trkpt lat="33.810313" lon="-118.393867">
  <ele>-0.12</ele>
  <time>2026-09-01T01:12:27Z</time>
  <course>0.0</course>
  <speed>0.0</speed>
  <fix>3d</fix>
</trkpt>
<trkpt lat="33.810313" lon="-118.393867">
  <ele>-0.121</ele>
  <time>2026-09-01T01:12:27Z</time>
  <course>187.87</course>
  <speed>0.022360679774997897</speed>
  <fix>3d</fix>
</trkpt>
<trkpt lat="33.810313" lon="-118.393867">
  <ele>-0.12</ele>
  <time>2026-09-01T01:12:27Z</time>
  <course>0.0</course>
  <speed>0.0</speed>
  <fix>3d</fix>
</trkpt>
<trkpt lat="33.810313" lon="-118.393867">
  <ele>-0.121</ele>
  <time>2026-09-01T01:12:27Z</time>
  <course>187.86</course>
  <speed>0.022360679774997897</speed>
  <fix>3d</fix>
</trkpt>
<trkpt lat="33.810313" lon="-118.393867">
  <ele>-0.12</ele>
  <time>2026-09-01T01:12:27Z</time>
  <course>0.0</course>
  <speed>0.0</speed>
  <fix>3d</fix>
</trkpt>
<trkpt lat="33.810313" lon="-118.393867">
  <ele>-0.123</ele>
  <time>2026-09-01T01:12:27Z</time>
  <course>187.85</course>
  <speed>0.022360679774997897</speed>
  <fix>3d</fix>
</trkpt>
<trkpt lat="33.810313" lon="-118.393867">
  <ele>-0.12</ele>
  <time>2026-09-01T01:12:27Z</time>
  <course>0.0</course>
  <speed>0.0</speed>
  <fix>3d</fix>
</trkpt>
<trkpt lat="33.810313" lon="-118.393867">
  <ele>-0.124</ele>
  <time>2026-09-01T01:12:27Z</time>
  <course>187.84</course>
  <speed>0.022360679774997897</speed>
  <fix>3d</fix>
</trkpt>
<trkpt lat="33.810313" lon="-118.393867">
  <ele>-0.12</ele>
  <time>2026-09-01T01:12:27Z</time>
  <course>0.0</course>
  <speed>0.0</speed>
  <fix>3d</fix>
</trkpt>
<trkpt lat="33.810313" lon="-118.393867">
  <ele>-0.126</ele>
  <time>2026-09-01T01:12:27Z</time>
  <course>187.83</course>
  <speed>0.022360679774997897</speed>
  <fix>3d</fix>
</trkpt>
<trkpt lat="33.810313" lon="-118.393867">
  <ele>-0.12</ele>
  <time>2026-09-01T01:12:27Z</time>
  <course>0.0</course>
  <speed>0.0</speed>
  <fix>3d</fix>
</trkpt>
<trkpt lat="33.810313" lon="-118.393867">
  <ele>-0.127</ele>
  <time>2026-09-01T01:12:27Z</time>
  <course>187.83</course>
  <speed>0.022360679774997897</speed>
  <fix>3d</fix>
</trkpt>
<trkpt lat="33.810313" lon="-118.393867">
  <ele>-0.12</ele>
  <time>2026-09-01T01:12:27Z</time>
  <course>0.0</course>
  <speed>0.0</speed>
  <fix>3d</fix>
</trkpt>
<trkpt lat="33.810313" lon="-118.393867">
  <ele>-0.127</ele>
  <time>2026-09-01T01:12:27Z</time>
  <course>187.82</course>
  <speed>0.022360679774997897</speed>
  <fix>3d</fix>
</trkpt>
<trkpt lat="33.810313" lon="-118.393867">
  <ele>-0.12</ele>
  <time>2026-09-01T01:12:27Z</time>
  <course>0.0</course>
  <speed>0.0</speed>
  <fix>3d</fix>
</trkpt>
<trkpt lat="33.810313" lon="-118.393867">
  <ele>-0.127</ele>
  <time>2026-09-01T01:12:27Z</time>
  <course>187.81</course>
  <speed>0.022360679774997897</speed>
  <fix>3d</fix>
</trkpt>
<trkpt lat="33.810313" lon="-118.393867">
  <ele>-0.12</ele>
  <time>2026-09-01T01:12:27Z</time>
  <course>0.0</course>
  <speed>0.0</speed>
  <fix>3d</fix>
</trkpt>
<trkpt lat="33.810313" lon="-118.393867">
  <ele>-0.126</ele>
  <time>2026-09-01T01:12:27Z</time>
  <course>187.8</course>
  <speed>0.022360679774997897</speed>
  <fix>3d</fix>
</trkpt>
<trkpt lat="33.810313" lon="-118.393867">
  <ele>-0.12</ele>
  <time>2026-09-01T01:12:27Z</time>
  <course>0.0</course>
  <speed>0.0</speed>
  <fix>3d</fix>
</trkpt>
<trkpt lat="33.810313" lon="-118.393867">
  <ele>-0.124</ele>
  <time>2026-09-01T01:12:27Z</time>
  <course>187.8</course>
  <speed>0.022360679774997897</speed>
  <fix>3d</fix>
</trkpt>
<trkpt lat="33.810313" lon="-118.393867">
  <ele>-0.12</ele>
  <time>2026-09-01T01:12:27Z</time>
  <course>0.0</course>
  <speed>0.0</speed>
  <fix>3d</fix>
</trkpt>
<trkpt lat="33.810313" lon="-118.393867">
  <ele>-0.121</ele>
  <time>2026-09-01T01:12:27Z</time>
  <course>187.79</course>
  <speed>0.022360679774997897</speed>
  <fix>3d</fix>
</trkpt>
<trkpt lat="33.810313" lon="-118.393867">
  <ele>-0.12</ele>
  <time>2026-09-01T01:12:27Z</time>
  <course>0.0</course>
  <speed>0.0</speed>
  <fix>3d</fix>
</trkpt>
<trkpt lat="33.810313" lon="-118.393867">
  <ele>-0.119</ele>
  <time>2026-09-01T01:12:27Z</time>
  <course>187.78</course>
  <speed>0.022360679774997897</speed>
  <fix>3d</fix>
</trkpt>
<trkpt lat="33.810313" lon="-118.393867">
  <ele>-0.12</ele>
  <time>2026-09-01T01:12:27Z</time>
  <course>0.0</course>
  <speed>0.0</speed>
  <fix>3d</fix>
</trkpt>
<trkpt lat="33.810313" lon="-118.393867">
  <ele>-0.118</ele>
  <time>2026-09-01T01:12:27Z</time>
  <course>187.77</course>
  <speed>0.022360679774997897</speed>
  <fix>3d</fix>
</trkpt>
<trkpt lat="33.810313" lon="-118.393867">
  <ele>-0.12</ele>
  <time>2026-09-01T01:12:27Z</time>
  <course>0.0</course>
  <speed>0.0</speed>
  <fix>3d</fix>
</trkpt>
<trkpt lat="33.810313" lon="-118.393867">
  <ele>-0.118</ele>
  <time>2026-09-01T01:12:27Z</time>
  <course>187.76</course>
  <speed>0.022360679774997897</speed>
  <fix>3d</fix>
</trkpt>
<trkpt lat="33.810313" lon="-118.393867">
  <ele>-0.12</ele>
  <time>2026-09-01T01:12:27Z</time>
  <course>0.0</course>
  <speed>0.0</speed>
  <fix>3d</fix>
</trkpt>
<trkpt lat="33.810313" lon="-118.393867">
  <ele>-0.119</ele>
  <time>2026-09-01T01:12:27Z</time>
  <course>187.76</course>
  <speed>0.022360679774997897</speed>
  <fix>3d</fix>
</trkpt>
<trkpt lat="33.810313" lon="-118.393867">
  <ele>-0.12</ele>
  <time>2026-09-01T01:12:27Z</time>
  <course>0.0</course>
  <speed>0.0</speed>
  <fix>3d</fix>
</trkpt>
<trkpt lat="33.810313" lon="-118.393867">
  <ele>-0.12</ele>
  <time>2026-09-01T01:12:27Z</time>
  <course>187.75</course>
  <speed>0.022360679774997897</speed>
  <fix>3d</fix>
</trkpt>
<trkpt lat="33.810313" lon="-118.393867">
  <ele>-0.12</ele>
  <time>2026-09-01T01:12:27Z</time>
  <course>0.0</course>
  <speed>0.0</speed>
  <fix>3d</fix>
</trkpt>
<trkpt lat="33.810313" lon="-118.393867">
  <ele>-0.12</ele>
  <time>2026-09-01T01:12:27Z</time>
  <course>187.74</course>
  <speed>0.0282842712474619</speed>
  <fix>3d</fix>
</trkpt>
<trkpt lat="33.810313" lon="-118.393867">
  <ele>-0.12</ele>
  <time>2026-09-01T01:12:27Z</time>
  <course>0.0</course>
  <speed>0.0</speed>
  <fix>3d</fix>
</trkpt>
<trkpt lat="33.810313" lon="-118.393867">
  <ele>-0.12</ele>
  <time>2026-09-01T01:12:27Z</time>
  <course>187.74</course>
  <speed>0.0282842712474619</speed>
  <fix>3d</fix>
</trkpt>
<trkpt lat="33.810313" lon="-118.393867">
  <ele>-0.12</ele>
  <time>2026-09-01T01:12:27Z</time>
  <course>0.0</course>
  <speed>0.0</speed>
  <fix>3d</fix>
</trkpt>
<trkpt lat="33.810313" lon="-118.393867">
  <ele>-0.119</ele>
  <time>2026-09-01T01:12:27Z</time>
  <course>187.73</course>
  <speed>0.0282842712474619</speed>
  <fix>3d</fix>
</trkpt>
<trkpt lat="33.810313" lon="-118.393867">
  <ele>-0.12</ele>
  <time>2026-09-01T01:12:27Z</time>
  <course>0.0</course>
  <speed>0.0</speed>
  <fix>3d</fix>
</trkpt>
<trkpt lat="33.810313" lon="-118.393867">
  <ele>-0.118</ele>
  <time>2026-09-01T01:12:27Z</time>
  <course>187.72</course>
  <speed>0.0282842712474619</speed>
  <fix>3d</fix>
</trkpt>
<trkpt lat="33.810313" lon="-118.393867">
  <ele>-0.12</ele>
  <time>2026-09-01T01:12:27Z</time>
  <course>0.0</course>
  <speed>0.0</speed>
  <fix>3d</fix>
</trkpt>
<trkpt lat="33.810313" lon="-118.393867">
  <ele>-0.116</ele>
  <time>2026-09-01T01:12:27Z</time>
  <course>187.71</course>
  <speed>0.0282842712474619</speed>
  <fix>3d</fix>
</trkpt>
<trkpt lat="33.810313" lon="-118.393867">
  <ele>-0.12</ele>
  <time>2026-09-01T01:12:27Z</time>
  <course>0.0</course>
  <speed>0.0</speed>
  <fix>3d</fix>
</trkpt>
<trkpt lat="33.810313" lon="-118.393867">
  <ele>-0.113</ele>
  <time>2026-09-01T01:12:27Z</time>
  <course>187.71</course>
  <speed>0.0282842712474619</speed>
  <fix>3d</fix>
</trkpt>
<trkpt lat="33.810313" lon="-118.393867">
  <ele>-0.12</ele>
  <time>2026-09-01T01:12:27Z</time>
  <course>0.0</course>
  <speed>0.0</speed>
  <fix>3d</fix>
</trkpt>
<trkpt lat="33.810313" lon="-118.393867">
  <ele>-0.112</ele>
  <time>2026-09-01T01:12:27Z</time>
  <course>187.7</course>
  <speed>0.0282842712474619</speed>
  <fix>3d</fix>
</trkpt>
<trkpt lat="33.810313" lon="-118.393867">
  <ele>-0.12</ele>
  <time>2026-09-01T01:12:27Z</time>
  <course>0.0</course>
  <speed>0.0</speed>
  <fix>3d</fix>
</trkpt>
<trkpt lat="33.810313" lon="-118.393867">
  <ele>-0.113</ele>
  <time>2026-09-01T01:12:27Z</time>
  <course>187.69</course>
  <speed>0.0282842712474619</speed>
  <fix>3d</fix>
</trkpt>
<trkpt lat="33.810313" lon="-118.393867">
  <ele>-0.12</ele>
  <time>2026-09-01T01:12:27Z</time>
  <course>0.0</course>
  <speed>0.0</speed>
  <fix>3d</fix>
</trkpt>
<trkpt lat="33.810313" lon="-118.393867">
  <ele>-0.115</ele>
  <time>2026-09-01T01:12:27Z</time>
  <course>187.68</course>
  <speed>0.0282842712474619</speed>
  <fix>3d</fix>
</trkpt>
<trkpt lat="33.810313" lon="-118.393867">
  <ele>-0.12</ele>
  <time>2026-09-01T01:12:27Z</time>
  <course>0.0</course>
  <speed>0.0</speed>
  <fix>3d</fix>
</trkpt>
<trkpt lat="33.810313" lon="-118.393867">
  <ele>-0.119</ele>
  <time>2026-09-01T01:12:27Z</time>
  <course>187.68</course>
  <speed>0.0282842712474619</speed>
  <fix>3d</fix>
</trkpt>
<trkpt lat="33.810313" lon="-118.393867">
  <ele>-0.12</ele>
  <time>2026-09-01T01:12:27Z</time>
  <course>0.0</course>
  <speed>0.0</speed>
  <fix>3d</fix>
</trkpt>
<trkpt lat="33.810313" lon="-118.393867">
  <ele>-0.124</ele>
  <time>2026-09-01T01:12:27Z</time>
  <course>187.67</course>
  <speed>0.0282842712474619</speed>
  <fix>3d</fix>
</trkpt>
<trkpt lat="33.810313" lon="-118.393867">
  <ele>-0.12</ele>
  <time>2026-09-01T01:12:27Z</time>
  <course>0.0</course>
  <speed>0.0</speed>
  <fix>3d</fix>
</trkpt>
<trkpt lat="33.810313" lon="-118.393867">
  <ele>-0.129</ele>
  <time>2026-09-01T01:12:27Z</time>
  <course>187.66</course>
  <speed>0.0282842712474619</speed>
  <fix>3d</fix>
</trkpt>
<trkpt lat="33.810313" lon="-118.393867">
  <ele>-0.12</ele>
  <time>2026-09-01T01:12:27Z</time>
  <course>0.0</course>
  <speed>0.0</speed>
  <fix>3d</fix>
</trkpt>
<trkpt lat="33.810313" lon="-118.393867">
  <ele>-0.133</ele>
  <time>2026-09-01T01:12:27Z</time>
  <course>187.66</course>
  <speed>0.0282842712474619</speed>
  <fix>3d</fix>
</trkpt>
<trkpt lat="33.810313" lon="-118.393867">
  <ele>-0.12</ele>
  <time>2026-09-01T01:12:27Z</time>
  <course>0.0</course>
  <speed>0.0</speed>
  <fix>3d</fix>
</trkpt>
<trkpt lat="33.810313" lon="-118.393867">
  <ele>-0.135</ele>
  <time>2026-09-01T01:12:27Z</time>
  <course>187.65</course>
  <speed>0.0282842712474619</speed>
  <fix>3d</fix>
</trkpt>
<trkpt lat="33.810313" lon="-118.393867">
  <ele>-0.12</ele>
  <time>2026-09-01T01:12:27Z</time>
  <course>0.0</course>
  <speed>0.0</speed>
  <fix>3d</fix>
</trkpt>
<trkpt lat="33.810313" lon="-118.393867">
  <ele>-0.135</ele>
  <time>2026-09-01T01:12:27Z</time>
  <course>187.64</course>
  <speed>0.0282842712474619</speed>
  <fix>3d</fix>
</trkpt>
<trkpt lat="33.810313" lon="-118.393867">
  <ele>-0.12</ele>
  <time>2026-09-01T01:12:27Z</time>
  <course>0.0</course>
  <speed>0.0</speed>
  <fix>3d</fix>
</trkpt>
<trkpt lat="33.810313" lon="-118.393867">
  <ele>-0.135</ele>
  <time>2026-09-01T01:12:27Z</time>
  <course>187.64</course>
  <speed>0.0282842712474619</speed>
  <fix>3d</fix>
</trkpt>
<trkpt lat="33.810313" lon="-118.393867">
  <ele>-0.12</ele>
  <time>2026-09-01T01:12:27Z</time>
  <course>0.0</course>
  <speed>0.0</speed>
  <fix>3d</fix>
</trkpt>
<trkpt lat="33.810313" lon="-118.393867">
  <ele>-0.133</ele>
  <time>2026-09-01T01:12:27Z</time>
  <course>187.63</course>
  <speed>0.0282842712474619</speed>
  <fix>3d</fix>
</trkpt>
<trkpt lat="33.810313" lon="-118.393867">
  <ele>-0.12</ele>
  <time>2026-09-01T01:12:27Z</time>
  <course>0.0</course>
  <speed>0.0</speed>
  <fix>3d</fix>
</trkpt>
<trkpt lat="33.810313" lon="-118.393867">
  <ele>-0.132</ele>
  <time>2026-09-01T01:12:27Z</time>
  <course>187.63</course>
  <speed>0.03605551275463989</speed>
  <fix>3d</fix>
</trkpt>
<trkpt lat="33.810313" lon="-118.393867">
  <ele>-0.12</ele>
  <time>2026-09-01T01:12:27Z</time>
  <course>0.0</course>
  <speed>0.0</speed>
  <fix>3d</fix>
</trkpt>
<trkpt lat="33.810313" lon="-118.393867">
  <ele>-0.132</ele>
  <time>2026-09-01T01:12:27Z</time>
  <course>187.62</course>
  <speed>0.03605551275463989</speed>
  <fix>3d</fix>
</trkpt>
<trkpt lat="33.810313" lon="-118.393867">
  <ele>-0.12</ele>
  <time>2026-09-01T01:12:27Z</time>
  <course>0.0</course>
  <speed>0.0</speed>
  <fix>3d</fix>
</trkpt>
<trkpt lat="33.810313" lon="-118.393867">
  <ele>-0.133</ele>
  <time>2026-09-01T01:12:27Z</time>
  <course>187.61</course>
  <speed>0.03605551275463989</speed>
  <fix>3d</fix>
</trkpt>
<trkpt lat="33.810313" lon="-118.393867">
  <ele>-0.12</ele>
  <time>2026-09-01T01:12:27Z</time>
  <course>0.0</course>
  <speed>0.0</speed>
  <fix>3d</fix>
</trkpt>
<trkpt lat="33.810313" lon="-118.393867">
  <ele>-0.134</ele>
  <time>2026-09-01T01:12:27Z</time>
  <course>187.6</course>
  <speed>0.03605551275463989</speed>
  <fix>3d</fix>
</trkpt>
<trkpt lat="33.810313" lon="-118.393867">
  <ele>-0.12</ele>
  <time>2026-09-01T01:12:27Z</time>
  <course>0.0</course>
  <speed>0.0</speed>
  <fix>3d</fix>
</trkpt>
<trkpt lat="33.810313" lon="-118.393867">
  <ele>-0.134</ele>
  <time>2026-09-01T01:12:27Z</time>
  <course>187.6</course>
  <speed>0.03605551275463989</speed>
  <fix>3d</fix>
</trkpt>
<trkpt lat="33.810313" lon="-118.393867">
  <ele>-0.12</ele>
  <time>2026-09-01T01:12:27Z</time>
  <course>0.0</course>
  <speed>0.0</speed>
  <fix>3d</fix>
</trkpt>
<trkpt lat="33.810313" lon="-118.393867">
  <ele>-0.134</ele>
  <time>2026-09-01T01:12:27Z</time>
  <course>187.59</course>
  <speed>0.03605551275463989</speed>
  <fix>3d</fix>
</trkpt>
<trkpt lat="33.810313" lon="-118.393867">
  <ele>-0.12</ele>
  <time>2026-09-01T01:12:27Z</time>
  <course>0.0</course>
  <speed>0.0</speed>
  <fix>3d</fix>
</trkpt>
<trkpt lat="33.810313" lon="-118.393867">
  <ele>-0.132</ele>
  <time>2026-09-01T01:12:27Z</time>
  <course>187.58</course>
  <speed>0.03605551275463989</speed>
  <fix>3d</fix>
</trkpt>
<trkpt lat="33.810313" lon="-118.393867">
  <ele>-0.12</ele>
  <time>2026-09-01T01:12:27Z</time>
  <course>0.0</course>
  <speed>0.0</speed>
  <fix>3d</fix>
</trkpt>
<trkpt lat="33.810313" lon="-118.393867">
  <ele>-0.129</ele>
  <time>2026-09-01T01:12:27Z</time>
  <course>187.58</course>
  <speed>0.03605551275463989</speed>
  <fix>3d</fix>
</trkpt>
<trkpt lat="33.810313" lon="-118.393867">
  <ele>-0.12</ele>
  <time>2026-09-01T01:12:27Z</time>
  <course>0.0</course>
  <speed>0.0</speed>
  <fix>3d</fix>
</trkpt>
<trkpt lat="33.810313" lon="-118.393867">
  <ele>-0.127</ele>
  <time>2026-09-01T01:12:27Z</time>
  <course>187.57</course>
  <speed>0.03605551275463989</speed>
  <fix>3d</fix>
</trkpt>
<trkpt lat="33.810313" lon="-118.393867">
  <ele>-0.12</ele>
  <time>2026-09-01T01:12:27Z</time>
  <course>0.0</course>
  <speed>0.0</speed>
  <fix>3d</fix>
</trkpt>
<trkpt lat="33.810313" lon="-118.393867">
  <ele>-0.125</ele>
  <time>2026-09-01T01:12:27Z</time>
  <course>187.56</course>
  <speed>0.03605551275463989</speed>
  <fix>3d</fix>
</trkpt>
<trkpt lat="33.810313" lon="-118.393867">
  <ele>-0.12</ele>
  <time>2026-09-01T01:12:27Z</time>
  <course>0.0</course>
  <speed>0.0</speed>
  <fix>3d</fix>
</trkpt>
<trkpt lat="33.810313" lon="-118.393867">
  <ele>-0.122</ele>
  <time>2026-09-01T01:12:27Z</time>
  <course>187.56</course>
  <speed>0.03605551275463989</speed>
  <fix>3d</fix>
</trkpt>
<trkpt lat="33.810313" lon="-118.393867">
  <ele>-0.12</ele>
  <time>2026-09-01T01:12:27Z</time>
  <course>0.0</course>
  <speed>0.0</speed>
  <fix>3d</fix>
</trkpt>
<trkpt lat="33.810313" lon="-118.393867">
  <ele>-0.119</ele>
  <time>2026-09-01T01:12:27Z</time>
  <course>187.55</course>
  <speed>0.03605551275463989</speed>
  <fix>3d</fix>
</trkpt>
<trkpt lat="33.810313" lon="-118.393867">
  <ele>-0.12</ele>
  <time>2026-09-01T01:12:27Z</time>
  <course>0.0</course>
  <speed>0.0</speed>
  <fix>3d</fix>
</trkpt>
<trkpt lat="33.810313" lon="-118.393867">
  <ele>-0.117</ele>
  <time>2026-09-01T01:12:27Z</time>
  <course>187.54</course>
  <speed>0.03605551275463989</speed>
  <fix>3d</fix>
</trkpt>
<trkpt lat="33.810313" lon="-118.393867">
  <ele>-0.12</ele>
  <time>2026-09-01T01:12:27Z</time>
  <course>0.0</course>
  <speed>0.0</speed>
  <fix>3d</fix>
</trkpt>
<trkpt lat="33.810313" lon="-118.393867">
  <ele>-0.117</ele>
  <time>2026-09-01T01:12:27Z</time>
  <course>187.54</course>
  <speed>0.03605551275463989</speed>
  <fix>3d</fix>
</trkpt>
<trkpt lat="33.810313" lon="-118.393867">
  <ele>-0.12</ele>
  <time>2026-09-01T01:12:27Z</time>
  <course>0.0</course>
  <speed>0.0</speed>
  <fix>3d</fix>
</trkpt>
<trkpt lat="33.810313" lon="-118.393867">
  <ele>-0.118</ele>
  <time>2026-09-01T01:12:27Z</time>
  <course>187.53</course>
  <speed>0.03605551275463989</speed>
  <fix>3d</fix>
</trkpt>
<trkpt lat="33.810313" lon="-118.393867">
  <ele>-0.12</ele>
  <time>2026-09-01T01:12:27Z</time>
  <course>0.0</course>
  <speed>0.0</speed>
  <fix>3d</fix>
</trkpt>
<trkpt lat="33.810313" lon="-118.393867">
  <ele>-0.119</ele>
  <time>2026-09-01T01:12:27Z</time>
  <course>187.52</course>
  <speed>0.03605551275463989</speed>
  <fix>3d</fix>
</trkpt>
<trkpt lat="33.810313" lon="-118.393867">
  <ele>-0.12</ele>
  <time>2026-09-01T01:12:27Z</time>
  <course>0.0</course>
  <speed>0.0</speed>
  <fix>3d</fix>
</trkpt>
<trkpt lat="33.810313" lon="-118.393867">
  <ele>-0.12</ele>
  <time>2026-09-01T01:12:27Z</time>
  <course>187.52</course>
  <speed>0.03605551275463989</speed>
  <fix>3d</fix>
</trkpt>
<trkpt lat="33.810313" lon="-118.393867">
  <ele>-0.12</ele>
  <time>2026-09-01T01:12:27Z</time>
  <course>0.0</course>
  <speed>0.0</speed>
  <fix>3d</fix>
</trkpt>
<trkpt lat="33.810313" lon="-118.393867">
  <ele>-0.121</ele>
  <time>2026-09-01T01:12:27Z</time>
  <course>187.51</course>
  <speed>0.03605551275463989</speed>
  <fix>3d</fix>
</trkpt>
<trkpt lat="33.810313" lon="-118.393867">
  <ele>-0.12</ele>
  <time>2026-09-01T01:12:27Z</time>
  <course>0.0</course>
  <speed>0.0</speed>
  <fix>3d</fix>
</trkpt>
<trkpt lat="33.810313" lon="-118.393867">
  <ele>-0.121</ele>
  <time>2026-09-01T01:12:27Z</time>
  <course>187.51</course>
  <speed>0.03605551275463989</speed>
  <fix>3d</fix>
</trkpt>
<trkpt lat="33.810313" lon="-118.393867">
  <ele>-0.12</ele>
  <time>2026-09-01T01:12:27Z</time>
  <course>0.0</course>
  <speed>0.0</speed>
  <fix>3d</fix>
</trkpt>
<trkpt lat="33.810313" lon="-118.393867">
  <ele>-0.121</ele>
  <time>2026-09-01T01:12:27Z</time>
  <course>187.5</course>
  <speed>0.03605551275463989</speed>
  <fix>3d</fix>
</trkpt>
<trkpt lat="33.810313" lon="-118.393867">
  <ele>-0.12</ele>
  <time>2026-09-01T01:12:27Z</time>
  <course>0.0</course>
  <speed>0.0</speed>
  <fix>3d</fix>
</trkpt>
<trkpt lat="33.810313" lon="-118.393867">
  <ele>-0.121</ele>
  <time>2026-09-01T01:12:27Z</time>
  <course>187.49</course>
  <speed>0.03605551275463989</speed>
  <fix>3d</fix>
</trkpt>
<trkpt lat="33.810313" lon="-118.393867">
  <ele>-0.12</ele>
  <time>2026-09-01T01:12:27Z</time>
  <course>0.0</course>
  <speed>0.0</speed>
  <fix>3d</fix>
</trkpt>
<trkpt lat="33.810313" lon="-118.393867">
  <ele>-0.121</ele>
  <time>2026-09-01T01:12:27Z</time>
  <course>187.49</course>
  <speed>0.03605551275463989</speed>
  <fix>3d</fix>
</trkpt>
<trkpt lat="33.810313" lon="-118.393867">
  <ele>-0.12</ele>
  <time>2026-09-01T01:12:27Z</time>
  <course>0.0</course>
  <speed>0.0</speed>
  <fix>3d</fix>
</trkpt>
<trkpt lat="33.810313" lon="-118.393867">
  <ele>-0.121</ele>
  <time>2026-09-01T01:12:27Z</time>
  <course>187.48</course>
  <speed>0.03605551275463989</speed>
  <fix>3d</fix>
</trkpt>
<trkpt lat="33.810313" lon="-118.393867">
  <ele>-0.12</ele>
  <time>2026-09-01T01:12:27Z</time>
  <course>0.0</course>
  <speed>0.0</speed>
  <fix>3d</fix>
</trkpt>
<trkpt lat="33.810313" lon="-118.393867">
  <ele>-0.122</ele>
  <time>2026-09-01T01:12:27Z</time>
  <course>187.47</course>
  <speed>0.03605551275463989</speed>
  <fix>3d</fix>
</trkpt>
<trkpt lat="33.810313" lon="-118.393867">
  <ele>-0.12</ele>
  <time>2026-09-01T01:12:27Z</time>
  <course>0.0</course>
  <speed>0.0</speed>
  <fix>3d</fix>
</trkpt>
<trkpt lat="33.810313" lon="-118.393867">
  <ele>-0.124</ele>
  <time>2026-09-01T01:12:27Z</time>
  <course>187.47</course>
  <speed>0.03605551275463989</speed>
  <fix>3d</fix>
</trkpt>
<trkpt lat="33.810313" lon="-118.393867">
  <ele>-0.12</ele>
  <time>2026-09-01T01:12:27Z</time>
  <course>0.0</course>
  <speed>0.0</speed>
  <fix>3d</fix>
</trkpt>
<trkpt lat="33.810313" lon="-118.393867">
  <ele>-0.127</ele>
  <time>2026-09-01T01:12:27Z</time>
  <course>187.46</course>
  <speed>0.03605551275463989</speed>
  <fix>3d</fix>
</trkpt>
<trkpt lat="33.810313" lon="-118.393867">
  <ele>-0.12</ele>
  <time>2026-09-01T01:12:27Z</time>
  <course>0.0</course>
  <speed>0.0</speed>
  <fix>3d</fix>
</trkpt>
<trkpt lat="33.810313" lon="-118.393867">
  <ele>-0.129</ele>
  <time>2026-09-01T01:12:27Z</time>
  <course>187.45</course>
  <speed>0.03605551275463989</speed>
  <fix>3d</fix>
</trkpt>
<trkpt lat="33.810313" lon="-118.393867">
  <ele>-0.12</ele>
  <time>2026-09-01T01:12:27Z</time>
  <course>0.0</course>
  <speed>0.0</speed>
  <fix>3d</fix>
</trkpt>
<trkpt lat="33.810313" lon="-118.393867">
  <ele>-0.131</ele>
  <time>2026-09-01T01:12:27Z</time>
  <course>187.45</course>
  <speed>0.03605551275463989</speed>
  <fix>3d</fix>
</trkpt>
<trkpt lat="33.810313" lon="-118.393867">
  <ele>-0.12</ele>
  <time>2026-09-01T01:12:27Z</time>
  <course>0.0</course>
  <speed>0.0</speed>
  <fix>3d</fix>
</trkpt>
<trkpt lat="33.810313" lon="-118.393867">
  <ele>-0.132</ele>
  <time>2026-09-01T01:12:27Z</time>
  <course>187.44</course>
  <speed>0.03605551275463989</speed>
  <fix>3d</fix>
</trkpt>
<trkpt lat="33.810313" lon="-118.393867">
  <ele>-0.12</ele>
  <time>2026-09-01T01:12:27Z</time>
  <course>0.0</course>
  <speed>0.0</speed>
  <fix>3d</fix>
</trkpt>
<trkpt lat="33.810313" lon="-118.393867">
  <ele>-0.132</ele>
  <time>2026-09-01T01:12:27Z</time>
  <course>187.44</course>
  <speed>0.03605551275463989</speed>
  <fix>3d</fix>
</trkpt>
<trkpt lat="33.810313" lon="-118.393867">
  <ele>-0.12</ele>
  <time>2026-09-01T01:12:27Z</time>
  <course>0.0</course>
  <speed>0.0</speed>
  <fix>3d</fix>
</trkpt>
<trkpt lat="33.810313" lon="-118.393867">
  <ele>-0.132</ele>
  <time>2026-09-01T01:12:27Z</time>
  <course>187.43</course>
  <speed>0.03605551275463989</speed>
  <fix>3d</fix>
</trkpt>
<trkpt lat="33.810313" lon="-118.393867">
  <ele>-0.12</ele>
  <time>2026-09-01T01:12:27Z</time>
  <course>0.0</course>
  <speed>0.0</speed>
  <fix>3d</fix>
</trkpt>
<trkpt lat="33.810313" lon="-118.393867">
  <ele>-0.132</ele>
  <time>2026-09-01T01:12:27Z</time>
  <course>187.42</course>
  <speed>0.03605551275463989</speed>
  <fix>3d</fix>
</trkpt>
<trkpt lat="33.810313" lon="-118.393867">
  <ele>-0.12</ele>
  <time>2026-09-01T01:12:27Z</time>
  <course>0.0</course>
  <speed>0.0</speed>
  <fix>3d</fix>
</trkpt>
<trkpt lat="33.810313" lon="-118.393867">
  <ele>-0.131</ele>
  <time>2026-09-01T01:12:27Z</time>
  <course>187.42</course>
  <speed>0.03605551275463989</speed>
  <fix>3d</fix>
</trkpt>
<trkpt lat="33.810313" lon="-118.393867">
  <ele>-0.12</ele>
  <time>2026-09-01T01:12:27Z</time>
  <course>0.0</course>
  <speed>0.0</speed>
  <fix>3d</fix>
</trkpt>
<trkpt lat="33.810313" lon="-118.393867">
  <ele>-0.131</ele>
  <time>2026-09-01T01:12:27Z</time>
  <course>187.41</course>
  <speed>0.03605551275463989</speed>
  <fix>3d</fix>
</trkpt>
<trkpt lat="33.810313" lon="-118.393867">
  <ele>-0.12</ele>
  <time>2026-09-01T01:12:27Z</time>
  <course>0.0</course>
  <speed>0.0</speed>
  <fix>3d</fix>
</trkpt>
<trkpt lat="33.810313" lon="-118.393867">
  <ele>-0.132</ele>
  <time>2026-09-01T01:12:27Z</time>
  <course>187.41</course>
  <speed>0.03605551275463989</speed>
  <fix>3d</fix>
</trkpt>
<trkpt lat="33.810313" lon="-118.393867">
  <ele>-0.12</ele>
  <time>2026-09-01T01:12:27Z</time>
  <course>0.0</course>
  <speed>0.0</speed>
  <fix>3d</fix>
</trkpt>
<trkpt lat="33.810313" lon="-118.393867">
  <ele>-0.134</ele>
  <time>2026-09-01T01:12:27Z</time>
  <course>187.4</course>
  <speed>0.03605551275463989</speed>
  <fix>3d</fix>
</trkpt>
<trkpt lat="33.810313" lon="-118.393867">
  <ele>-0.12</ele>
  <time>2026-09-01T01:12:27Z</time>
  <course>0.0</course>
  <speed>0.0</speed>
  <fix>3d</fix>
</trkpt>
<trkpt lat="33.810313" lon="-118.393867">
  <ele>-0.137</ele>
  <time>2026-09-01T01:12:27Z</time>
  <course>187.39</course>
  <speed>0.03605551275463989</speed>
  <fix>3d</fix>
</trkpt>
<trkpt lat="33.810313" lon="-118.393867">
  <ele>-0.12</ele>
  <time>2026-09-01T01:12:27Z</time>
  <course>0.0</course>
  <speed>0.0</speed>
  <fix>3d</fix>
</trkpt>
<trkpt lat="33.810313" lon="-118.393867">
  <ele>-0.139</ele>
  <time>2026-09-01T01:12:27Z</time>
  <course>187.39</course>
  <speed>0.03605551275463989</speed>
  <fix>3d</fix>
</trkpt>
<trkpt lat="33.810313" lon="-118.393867">
  <ele>-0.12</ele>
  <time>2026-09-01T01:12:27Z</time>
  <course>0.0</course>
  <speed>0.0</speed>
  <fix>3d</fix>
</trkpt>
<trkpt lat="33.810313" lon="-118.393867">
  <ele>-0.141</ele>
  <time>2026-09-01T01:12:27Z</time>
  <course>187.38</course>
  <speed>0.03605551275463989</speed>
  <fix>3d</fix>
</trkpt>
<trkpt lat="33.810313" lon="-118.393867">
  <ele>-0.12</ele>
  <time>2026-09-01T01:12:27Z</time>
  <course>0.0</course>
  <speed>0.0</speed>
  <fix>3d</fix>
</trkpt>
<trkpt lat="33.810313" lon="-118.393867">
  <ele>-0.141</ele>
  <time>2026-09-01T01:12:28Z</time>
  <course>187.38</course>
  <speed>0.03605551275463989</speed>
  <fix>3d</fix>
</trkpt>
<trkpt lat="33.810313" lon="-118.393867">
  <ele>-0.12</ele>
  <time>2026-09-01T01:12:28Z</time>
  <course>0.0</course>
  <speed>0.0</speed>
  <fix>3d</fix>
</trkpt>
<trkpt lat="33.810313" lon="-118.393867">
  <ele>-0.139</ele>
  <time>2026-09-01T01:12:28Z</time>
  <course>187.37</course>
  <speed>0.03605551275463989</speed>
  <fix>3d</fix>
</trkpt>
<trkpt lat="33.810313" lon="-118.393867">
  <ele>-0.12</ele>
  <time>2026-09-01T01:12:28Z</time>
  <course>0.0</course>
  <speed>0.0</speed>
  <fix>3d</fix>
</trkpt>
<trkpt lat="33.810313" lon="-118.393867">
  <ele>-0.136</ele>
  <time>2026-09-01T01:12:28Z</time>
  <course>187.36</course>
  <speed>0.03605551275463989</speed>
  <fix>3d</fix>
</trkpt>
<trkpt lat="33.810313" lon="-118.393867">
  <ele>-0.12</ele>
  <time>2026-09-01T01:12:28Z</time>
  <course>0.0</course>
  <speed>0.0</speed>
  <fix>3d</fix>
</trkpt>
<trkpt lat="33.810313" lon="-118.393867">
  <ele>-0.132</ele>
  <time>2026-09-01T01:12:28Z</time>
  <course>187.36</course>
  <speed>0.03605551275463989</speed>
  <fix>3d</fix>
</trkpt>
<trkpt lat="33.810313" lon="-118.393867">
  <ele>-0.12</ele>
  <time>2026-09-01T01:12:28Z</time>
  <course>0.0</course>
  <speed>0.0</speed>
  <fix>3d</fix>
</trkpt>
<trkpt lat="33.810313" lon="-118.393867">
  <ele>-0.129</ele>
  <time>2026-09-01T01:12:28Z</time>
  <course>187.35</course>
  <speed>0.03605551275463989</speed>
  <fix>3d</fix>
</trkpt>
<trkpt lat="33.810313" lon="-118.393867">
  <ele>-0.12</ele>
  <time>2026-09-01T01:12:28Z</time>
  <course>0.0</course>
  <speed>0.0</speed>
  <fix>3d</fix>
</trkpt>
<trkpt lat="33.810313" lon="-118.393867">
  <ele>-0.127</ele>
  <time>2026-09-01T01:12:28Z</time>
  <course>187.35</course>
  <speed>0.03605551275463989</speed>
  <fix>3d</fix>
</trkpt>
<trkpt lat="33.810313" lon="-118.393867">
  <ele>-0.12</ele>
  <time>2026-09-01T01:12:28Z</time>
  <course>0.0</course>
  <speed>0.0</speed>
  <fix>3d</fix>
</trkpt>
<trkpt lat="33.810313" lon="-118.393867">
  <ele>-0.126</ele>
  <time>2026-09-01T01:12:28Z</time>
  <course>187.34</course>
  <speed>0.03605551275463989</speed>
  <fix>3d</fix>
</trkpt>
<trkpt lat="33.810313" lon="-118.393867">
  <ele>-0.12</ele>
  <time>2026-09-01T01:12:28Z</time>
  <course>0.0</course>
  <speed>0.0</speed>
  <fix>3d</fix>
</trkpt>
<trkpt lat="33.810313" lon="-118.393867">
  <ele>-0.126</ele>
  <time>2026-09-01T01:12:28Z</time>
  <course>187.33</course>
  <speed>0.03605551275463989</speed>
  <fix>3d</fix>
</trkpt>
<trkpt lat="33.810313" lon="-118.393867">
  <ele>-0.12</ele>
  <time>2026-09-01T01:12:28Z</time>
  <course>0.0</course>
  <speed>0.0</speed>
  <fix>3d</fix>
</trkpt>
<trkpt lat="33.810313" lon="-118.393867">
  <ele>-0.127</ele>
  <time>2026-09-01T01:12:28Z</time>
  <course>187.33</course>
  <speed>0.03605551275463989</speed>
  <fix>3d</fix>
</trkpt>
<trkpt lat="33.810313" lon="-118.393867">
  <ele>-0.12</ele>
  <time>2026-09-01T01:12:28Z</time>
  <course>0.0</course>
  <speed>0.0</speed>
  <fix>3d</fix>
</trkpt>
<trkpt lat="33.810313" lon="-118.393867">
  <ele>-0.126</ele>
  <time>2026-09-01T01:12:28Z</time>
  <course>187.32</course>
  <speed>0.03605551275463989</speed>
  <fix>3d</fix>
</trkpt>
<trkpt lat="33.810313" lon="-118.393867">
  <ele>-0.12</ele>
  <time>2026-09-01T01:12:28Z</time>
  <course>0.0</course>
  <speed>0.0</speed>
  <fix>3d</fix>
</trkpt>
<trkpt lat="33.810313" lon="-118.393867">
  <ele>-0.126</ele>
  <time>2026-09-01T01:12:28Z</time>
  <course>187.32</course>
  <speed>0.03605551275463989</speed>
  <fix>3d</fix>
</trkpt>
<trkpt lat="33.810313" lon="-118.393867">
  <ele>-0.12</ele>
  <time>2026-09-01T01:12:28Z</time>
  <course>0.0</course>
  <speed>0.0</speed>
  <fix>3d</fix>
</trkpt>
<trkpt lat="33.810313" lon="-118.393867">
  <ele>-0.125</ele>
  <time>2026-09-01T01:12:28Z</time>
  <course>187.31</course>
  <speed>0.03605551275463989</speed>
  <fix>3d</fix>
</trkpt>
<trkpt lat="33.810313" lon="-118.393867">
  <ele>-0.12</ele>
  <time>2026-09-01T01:12:28Z</time>
  <course>0.0</course>
  <speed>0.0</speed>
  <fix>3d</fix>
</trkpt>
<trkpt lat="33.810313" lon="-118.393867">
  <ele>-0.124</ele>
  <time>2026-09-01T01:12:28Z</time>
  <course>187.31</course>
  <speed>0.03605551275463989</speed>
  <fix>3d</fix>
</trkpt>
<trkpt lat="33.810313" lon="-118.393867">
  <ele>-0.12</ele>
  <time>2026-09-01T01:12:28Z</time>
  <course>0.0</course>
  <speed>0.0</speed>
  <fix>3d</fix>
</trkpt>
<trkpt lat="33.810313" lon="-118.393867">
  <ele>-0.122</ele>
  <time>2026-09-01T01:12:28Z</time>
  <course>187.3</course>
  <speed>0.03605551275463989</speed>
  <fix>3d</fix>
</trkpt>
<trkpt lat="33.810313" lon="-118.393867">
  <ele>-0.12</ele>
  <time>2026-09-01T01:12:28Z</time>
  <course>0.0</course>
  <speed>0.0</speed>
  <fix>3d</fix>
</trkpt>
<trkpt lat="33.810313" lon="-118.393867">
  <ele>-0.121</ele>
  <time>2026-09-01T01:12:28Z</time>
  <course>187.29</course>
  <speed>0.03605551275463989</speed>
  <fix>3d</fix>
</trkpt>
<trkpt lat="33.810313" lon="-118.393867">
  <ele>-0.12</ele>
  <time>2026-09-01T01:12:28Z</time>
  <course>0.0</course>
  <speed>0.0</speed>
  <fix>3d</fix>
</trkpt>
<trkpt lat="33.810313" lon="-118.393867">
  <ele>-0.122</ele>
  <time>2026-09-01T01:12:28Z</time>
  <course>187.29</course>
  <speed>0.03605551275463989</speed>
  <fix>3d</fix>
</trkpt>
<trkpt lat="33.810313" lon="-118.393867">
  <ele>-0.12</ele>
  <time>2026-09-01T01:12:28Z</time>
  <course>0.0</course>
  <speed>0.0</speed>
  <fix>3d</fix>
</trkpt>
<trkpt lat="33.810313" lon="-118.393867">
  <ele>-0.124</ele>
  <time>2026-09-01T01:12:28Z</time>
  <course>187.28</course>
  <speed>0.03605551275463989</speed>
  <fix>3d</fix>
</trkpt>
<trkpt lat="33.810313" lon="-118.393867">
  <ele>-0.12</ele>
  <time>2026-09-01T01:12:28Z</time>
  <course>0.0</course>
  <speed>0.0</speed>
  <fix>3d</fix>
</trkpt>
<trkpt lat="33.810313" lon="-118.393867">
  <ele>-0.128</ele>
  <time>2026-09-01T01:12:28Z</time>
  <course>187.28</course>
  <speed>0.03605551275463989</speed>
  <fix>3d</fix>
</trkpt>
<trkpt lat="33.810313" lon="-118.393867">
  <ele>-0.12</ele>
  <time>2026-09-01T01:12:28Z</time>
  <course>0.0</course>
  <speed>0.0</speed>
  <fix>3d</fix>
</trkpt>
<trkpt lat="33.810313" lon="-118.393867">
  <ele>-0.13</ele>
  <time>2026-09-01T01:12:28Z</time>
  <course>187.27</course>
  <speed>0.03605551275463989</speed>
  <fix>3d</fix>
</trkpt>
<trkpt lat="33.810313" lon="-118.393867">
  <ele>-0.12</ele>
  <time>2026-09-01T01:12:28Z</time>
  <course>0.0</course>
  <speed>0.0</speed>
  <fix>3d</fix>
</trkpt>
<trkpt lat="33.810313" lon="-118.393867">
  <ele>-0.133</ele>
  <time>2026-09-01T01:12:28Z</time>
  <course>187.27</course>
  <speed>0.03605551275463989</speed>
  <fix>3d</fix>
</trkpt>
<trkpt lat="33.810313" lon="-118.393867">
  <ele>-0.12</ele>
  <time>2026-09-01T01:12:28Z</time>
  <course>0.0</course>
  <speed>0.0</speed>
  <fix>3d</fix>
</trkpt>
<trkpt lat="33.810313" lon="-118.393867">
  <ele>-0.135</ele>
  <time>2026-09-01T01:12:28Z</time>
  <course>187.26</course>
  <speed>0.03605551275463989</speed>
  <fix>3d</fix>
</trkpt>
<trkpt lat="33.810313" lon="-118.393867">
  <ele>-0.12</ele>
  <time>2026-09-01T01:12:28Z</time>
  <course>0.0</course>
  <speed>0.0</speed>
  <fix>3d</fix>
</trkpt>
<trkpt lat="33.810313" lon="-118.393867">
  <ele>-0.136</ele>
  <time>2026-09-01T01:12:28Z</time>
  <course>187.26</course>
  <speed>0.03605551275463989</speed>
  <fix>3d</fix>
</trkpt>
<trkpt lat="33.810313" lon="-118.393867">
  <ele>-0.12</ele>
  <time>2026-09-01T01:12:28Z</time>
  <course>0.0</course>
  <speed>0.0</speed>
  <fix>3d</fix>
</trkpt>
<trkpt lat="33.810313" lon="-118.393867">
  <ele>-0.136</ele>
  <time>2026-09-01T01:12:28Z</time>
  <course>187.25</course>
  <speed>0.03605551275463989</speed>
  <fix>3d</fix>
</trkpt>
<trkpt lat="33.810313" lon="-118.393867">
  <ele>-0.12</ele>
  <time>2026-09-01T01:12:28Z</time>
  <course>0.0</course>
  <speed>0.0</speed>
  <fix>3d</fix>
</trkpt>
<trkpt lat="33.810313" lon="-118.393867">
  <ele>-0.135</ele>
  <time>2026-09-01T01:12:28Z</time>
  <course>187.25</course>
  <speed>0.03605551275463989</speed>
  <fix>3d</fix>
</trkpt>
<trkpt lat="33.810313" lon="-118.393867">
  <ele>-0.12</ele>
  <time>2026-09-01T01:12:28Z</time>
  <course>0.0</course>
  <speed>0.0</speed>
  <fix>3d</fix>
</trkpt>
<trkpt lat="33.810313" lon="-118.393867">
  <ele>-0.134</ele>
  <time>2026-09-01T01:12:28Z</time>
  <course>187.24</course>
  <speed>0.03605551275463989</speed>
  <fix>3d</fix>
</trkpt>
<trkpt lat="33.810313" lon="-118.393867">
  <ele>-0.12</ele>
  <time>2026-09-01T01:12:28Z</time>
  <course>0.0</course>
  <speed>0.0</speed>
  <fix>3d</fix>
</trkpt>
<trkpt lat="33.810313" lon="-118.393867">
  <ele>-0.132</ele>
  <time>2026-09-01T01:12:28Z</time>
  <course>187.24</course>
  <speed>0.03605551275463989</speed>
  <fix>3d</fix>
</trkpt>
<trkpt lat="33.810313" lon="-118.393867">
  <ele>-0.12</ele>
  <time>2026-09-01T01:12:28Z</time>
  <course>0.0</course>
  <speed>0.0</speed>
  <fix>3d</fix>
</trkpt>
<trkpt lat="33.810313" lon="-118.393867">
  <ele>-0.131</ele>
  <time>2026-09-01T01:12:28Z</time>
  <course>187.23</course>
  <speed>0.03605551275463989</speed>
  <fix>3d</fix>
</trkpt>
<trkpt lat="33.810313" lon="-118.393867">
  <ele>-0.12</ele>
  <time>2026-09-01T01:12:28Z</time>
  <course>0.0</course>
  <speed>0.0</speed>
  <fix>3d</fix>
</trkpt>
<trkpt lat="33.810313" lon="-118.393867">
  <ele>-0.131</ele>
  <time>2026-09-01T01:12:28Z</time>
  <course>187.22</course>
  <speed>0.03605551275463989</speed>
  <fix>3d</fix>
</trkpt>
<trkpt lat="33.810313" lon="-118.393867">
  <ele>-0.12</ele>
  <time>2026-09-01T01:12:28Z</time>
  <course>0.0</course>
  <speed>0.0</speed>
  <fix>3d</fix>
</trkpt>
<trkpt lat="33.810313" lon="-118.393867">
  <ele>-0.132</ele>
  <time>2026-09-01T01:12:28Z</time>
  <course>187.22</course>
  <speed>0.03605551275463989</speed>
  <fix>3d</fix>
</trkpt>
<trkpt lat="33.810313" lon="-118.393867">
  <ele>-0.12</ele>
  <time>2026-09-01T01:12:28Z</time>
  <course>0.0</course>
  <speed>0.0</speed>
  <fix>3d</fix>
</trkpt>
<trkpt lat="33.810313" lon="-118.393867">
  <ele>-0.132</ele>
  <time>2026-09-01T01:12:28Z</time>
  <course>187.21</course>
  <speed>0.03605551275463989</speed>
  <fix>3d</fix>
</trkpt>
<trkpt lat="33.810313" lon="-118.393867">
  <ele>-0.12</ele>
  <time>2026-09-01T01:12:28Z</time>
  <course>0.0</course>
  <speed>0.0</speed>
  <fix>3d</fix>
</trkpt>
<trkpt lat="33.810313" lon="-118.393867">
  <ele>-0.133</ele>
  <time>2026-09-01T01:12:28Z</time>
  <course>187.21</course>
  <speed>0.03605551275463989</speed>
  <fix>3d</fix>
</trkpt>
<trkpt lat="33.810313" lon="-118.393867">
  <ele>-0.12</ele>
  <time>2026-09-01T01:12:28Z</time>
  <course>0.0</course>
  <speed>0.0</speed>
  <fix>3d</fix>
</trkpt>
<trkpt lat="33.810313" lon="-118.393867">
  <ele>-0.132</ele>
  <time>2026-09-01T01:12:28Z</time>
  <course>187.2</course>
  <speed>0.03605551275463989</speed>
  <fix>3d</fix>
</trkpt>
<trkpt lat="33.810313" lon="-118.393867">
  <ele>-0.12</ele>
  <time>2026-09-01T01:12:28Z</time>
  <course>0.0</course>
  <speed>0.0</speed>
  <fix>3d</fix>
</trkpt>
<trkpt lat="33.810313" lon="-118.393867">
  <ele>-0.131</ele>
  <time>2026-09-01T01:12:28Z</time>
  <course>187.2</course>
  <speed>0.03605551275463989</speed>
  <fix>3d</fix>
</trkpt>
<trkpt lat="33.810313" lon="-118.393867">
  <ele>-0.12</ele>
  <time>2026-09-01T01:12:28Z</time>
  <course>0.0</course>
  <speed>0.0</speed>
  <fix>3d</fix>
</trkpt>
<trkpt lat="33.810313" lon="-118.393867">
  <ele>-0.129</ele>
  <time>2026-09-01T01:12:28Z</time>
  <course>187.19</course>
  <speed>0.03605551275463989</speed>
  <fix>3d</fix>
</trkpt>
<trkpt lat="33.810313" lon="-118.393867">
  <ele>-0.12</ele>
  <time>2026-09-01T01:12:28Z</time>
  <course>0.0</course>
  <speed>0.0</speed>
  <fix>3d</fix>
</trkpt>
<trkpt lat="33.810313" lon="-118.393867">
  <ele>-0.126</ele>
  <time>2026-09-01T01:12:28Z</time>
  <course>187.19</course>
  <speed>0.03605551275463989</speed>
  <fix>3d</fix>
</trkpt>
<trkpt lat="33.810313" lon="-118.393867">
  <ele>-0.12</ele>
  <time>2026-09-01T01:12:28Z</time>
  <course>0.0</course>
  <speed>0.0</speed>
  <fix>3d</fix>
</trkpt>
<trkpt lat="33.810313" lon="-118.393867">
  <ele>-0.124</ele>
  <time>2026-09-01T01:12:28Z</time>
  <course>187.18</course>
  <speed>0.03605551275463989</speed>
  <fix>3d</fix>
</trkpt>
<trkpt lat="33.810313" lon="-118.393867">
  <ele>-0.12</ele>
  <time>2026-09-01T01:12:28Z</time>
  <course>0.0</course>
  <speed>0.0</speed>
  <fix>3d</fix>
</trkpt>
<trkpt lat="33.810313" lon="-118.393867">
  <ele>-0.123</ele>
  <time>2026-09-01T01:12:28Z</time>
  <course>187.18</course>
  <speed>0.03605551275463989</speed>
  <fix>3d</fix>
</trkpt>
<trkpt lat="33.810313" lon="-118.393867">
  <ele>-0.12</ele>
  <time>2026-09-01T01:12:28Z</time>
  <course>0.0</course>
  <speed>0.0</speed>
  <fix>3d</fix>
</trkpt>
<trkpt lat="33.810313" lon="-118.393867">
  <ele>-0.123</ele>
  <time>2026-09-01T01:12:28Z</time>
  <course>187.17</course>
  <speed>0.03605551275463989</speed>
  <fix>3d</fix>
</trkpt>
<trkpt lat="33.810313" lon="-118.393867">
  <ele>-0.12</ele>
  <time>2026-09-01T01:12:28Z</time>
  <course>0.0</course>
  <speed>0.0</speed>
  <fix>3d</fix>
</trkpt>
<trkpt lat="33.810313" lon="-118.393867">
  <ele>-0.122</ele>
  <time>2026-09-01T01:12:28Z</time>
  <course>187.17</course>
  <speed>0.0</speed>
  <fix>3d</fix>
</trkpt>
<trkpt lat="33.810313" lon="-118.393867">
  <ele>-0.12</ele>
  <time>2026-09-01T01:12:28Z</time>
  <course>0.0</course>
  <speed>0.0</speed>
  <fix>3d</fix>
</trkpt>
<trkpt lat="33.810313" lon="-118.393867">
  <ele>-0.121</ele>
  <time>2026-09-01T01:12:28Z</time>
  <course>187.16</course>
  <speed>0.0</speed>
  <fix>3d</fix>
</trkpt>
<trkpt lat="33.810313" lon="-118.393867">
  <ele>-0.12</ele>
  <time>2026-09-01T01:12:28Z</time>
  <course>0.0</course>
  <speed>0.0</speed>
  <fix>3d</fix>
</trkpt>
<trkpt lat="33.810313" lon="-118.393867">
  <ele>-0.12</ele>
  <time>2026-09-01T01:12:28Z</time>
  <course>187.16</course>
  <speed>0.0</speed>
  <fix>3d</fix>
</trkpt>
<trkpt lat="33.810313" lon="-118.393867">
  <ele>-0.12</ele>
  <time>2026-09-01T01:12:28Z</time>
  <course>0.0</course>
  <speed>0.0</speed>
  <fix>3d</fix>
</trkpt>
<trkpt lat="33.810313" lon="-118.393867">
  <ele>-0.119</ele>
  <time>2026-09-01T01:12:28Z</time>
  <course>187.15</course>
  <speed>0.0</speed>
  <fix>3d</fix>
</trkpt>
<trkpt lat="33.810313" lon="-118.393867">
  <ele>-0.12</ele>
  <time>2026-09-01T01:12:28Z</time>
  <course>0.0</course>
  <speed>0.0</speed>
  <fix>3d</fix>
</trkpt>
<trkpt lat="33.810313" lon="-118.393867">
  <ele>-0.116</ele>
  <time>2026-09-01T01:12:28Z</time>
  <course>187.15</course>
  <speed>0.0</speed>
  <fix>3d</fix>
</trkpt>
<trkpt lat="33.810313" lon="-118.393867">
  <ele>-0.12</ele>
  <time>2026-09-01T01:12:28Z</time>
  <course>0.0</course>
  <speed>0.0</speed>
  <fix>3d</fix>
</trkpt>
<trkpt lat="33.810313" lon="-118.393867">
  <ele>-0.114</ele>
  <time>2026-09-01T01:12:28Z</time>
  <course>187.14</course>
  <speed>0.0</speed>
  <fix>3d</fix>
</trkpt>
<trkpt lat="33.810313" lon="-118.393867">
  <ele>-0.12</ele>
  <time>2026-09-01T01:12:28Z</time>
  <course>0.0</course>
  <speed>0.0</speed>
  <fix>3d</fix>
</trkpt>
<trkpt lat="33.810313" lon="-118.393867">
  <ele>-0.113</ele>
  <time>2026-09-01T01:12:28Z</time>
  <course>187.14</course>
  <speed>0.0</speed>
  <fix>3d</fix>
</trkpt>
<trkpt lat="33.810313" lon="-118.393867">
  <ele>-0.12</ele>
  <time>2026-09-01T01:12:28Z</time>
  <course>0.0</course>
  <speed>0.0</speed>
  <fix>3d</fix>
</trkpt>
<trkpt lat="33.810313" lon="-118.393867">
  <ele>-0.112</ele>
  <time>2026-09-01T01:12:28Z</time>
  <course>187.13</course>
  <speed>0.0</speed>
  <fix>3d</fix>
</trkpt>
<trkpt lat="33.810313" lon="-118.393867">
  <ele>-0.12</ele>
  <time>2026-09-01T01:12:28Z</time>
  <course>0.0</course>
  <speed>0.0</speed>
  <fix>3d</fix>
</trkpt>
<trkpt lat="33.810313" lon="-118.393867">
  <ele>-0.113</ele>
  <time>2026-09-01T01:12:28Z</time>
  <course>187.13</course>
  <speed>0.0</speed>
  <fix>3d</fix>
</trkpt>
<trkpt lat="33.810313" lon="-118.393867">
  <ele>-0.12</ele>
  <time>2026-09-01T01:12:28Z</time>
  <course>0.0</course>
  <speed>0.0</speed>
  <fix>3d</fix>
</trkpt>
<trkpt lat="33.810313" lon="-118.393867">
  <ele>-0.114</ele>
  <time>2026-09-01T01:12:28Z</time>
  <course>187.12</course>
  <speed>0.0</speed>
  <fix>3d</fix>
</trkpt>
<trkpt lat="33.810313" lon="-118.393867">
  <ele>-0.12</ele>
  <time>2026-09-01T01:12:28Z</time>
  <course>0.0</course>
  <speed>0.0</speed>
  <fix>3d</fix>
</trkpt>
<trkpt lat="33.810313" lon="-118.393867">
  <ele>-0.117</ele>
  <time>2026-09-01T01:12:28Z</time>
  <course>187.12</course>
  <speed>0.0</speed>
  <fix>3d</fix>
</trkpt>
<trkpt lat="33.810313" lon="-118.393867">
  <ele>-0.12</ele>
  <time>2026-09-01T01:12:28Z</time>
  <course>0.0</course>
  <speed>0.0</speed>
  <fix>3d</fix>
</trkpt>
<trkpt lat="33.810313" lon="-118.393867">
  <ele>-0.119</ele>
  <time>2026-09-01T01:12:28Z</time>
  <course>187.11</course>
  <speed>0.01</speed>
  <fix>3d</fix>
</trkpt>
<trkpt lat="33.810313" lon="-118.393867">
  <ele>-0.12</ele>
  <time>2026-09-01T01:12:28Z</time>
  <course>0.0</course>
  <speed>0.0</speed>
  <fix>3d</fix>
</trkpt>
<trkpt lat="33.810313" lon="-118.393867">
  <ele>-0.12</ele>
  <time>2026-09-01T01:12:28Z</time>
  <course>187.11</course>
  <speed>0.01</speed>
  <fix>3d</fix>
</trkpt>
<trkpt lat="33.810313" lon="-118.393867">
  <ele>-0.12</ele>
  <time>2026-09-01T01:12:28Z</time>
  <course>0.0</course>
  <speed>0.0</speed>
  <fix>3d</fix>
</trkpt>
<trkpt lat="33.4368002" lon="-117.0859339">
  <ele>-0.11</ele>
  <time>2026-09-01T01:12:32Z</time>
  <course>0.0</course>
  <speed>0.0</speed>
  <fix>3d</fix>
</trkpt>
<trkpt lat="33.4368002" lon="-117.0859339">
  <ele>-0.11</ele>
  <time>2026-09-01T01:12:32Z</time>
  <course>0.0</course>
  <speed>0.0</speed>
  <fix>3d</fix>
</trkpt>
<trkpt lat="33.810313" lon="-118.393867">
  <ele>0.0</ele>
  <time>2026-09-01T01:12:32Z</time>
  <course>173.5</course>
  <speed>0.0</speed>
  <fix>3d</fix>
</trkpt>
<trkpt lat="33.810313" lon="-118.393867">
  <ele>-0.11</ele>
  <time>2026-09-01T01:12:32Z</time>
  <course>0.0</course>
  <speed>0.0</speed>
  <fix>3d</fix>
</trkpt>
<trkpt lat="33.810313" lon="-118.393867">
  <ele>0.0</ele>
  <time>2026-09-01T01:12:32Z</time>
  <course>173.64</course>
  <speed>0.0</speed>
  <fix>3d</fix>
</trkpt>
<trkpt lat="33.810313" lon="-118.393867">
  <ele>-0.11</ele>
  <time>2026-09-01T01:12:32Z</time>
  <course>0.0</course>
  <speed>0.0</speed>
  <fix>3d</fix>
</trkpt>
<trkpt lat="33.810313" lon="-118.393867">
  <ele>0.0</ele>
  <time>2026-09-01T01:12:32Z</time>
  <course>174.03</course>
  <speed>0.0</speed>
  <fix>3d</fix>
</trkpt>
<trkpt lat="33.810313" lon="-118.393867">
  <ele>-0.11</ele>
  <time>2026-09-01T01:12:32Z</time>
  <course>0.0</course>
  <speed>0.0</speed>
  <fix>3d</fix>
</trkpt>
<trkpt lat="33.810313" lon="-118.393867">
  <ele>0.0</ele>
  <time>2026-09-01T01:12:32Z</time>
  <course>174.57</course>
  <speed>0.0</speed>
  <fix>3d</fix>
</trkpt>
<trkpt lat="33.810313" lon="-118.393867">
  <ele>-0.11</ele>
  <time>2026-09-01T01:12:32Z</time>
  <course>0.0</course>
  <speed>0.0</speed>
  <fix>3d</fix>
</trkpt>
<trkpt lat="33.810313" lon="-118.393867">
  <ele>0.0</ele>
  <time>2026-09-01T01:12:32Z</time>
  <course>175.13</course>
  <speed>0.0</speed>
  <fix>3d</fix>
</trkpt>
<trkpt lat="33.810313" lon="-118.393867">
  <ele>-0.12</ele>
  <time>2026-09-01T01:12:32Z</time>
  <course>0.0</course>
  <speed>0.0</speed>
  <fix>3d</fix>
</trkpt>
<trkpt lat="33.810313" lon="-118.393867">
  <ele>0.0</ele>
  <time>2026-09-01T01:12:32Z</time>
  <course>175.67</course>
  <speed>0.0</speed>
  <fix>3d</fix>
</trkpt>
<trkpt lat="33.810313" lon="-118.393867">
  <ele>-0.12</ele>
  <time>2026-09-01T01:12:32Z</time>
  <course>0.0</course>
  <speed>0.0</speed>
  <fix>3d</fix>
</trkpt>
<trkpt lat="33.810313" lon="-118.393867">
  <ele>0.0</ele>
  <time>2026-09-01T01:12:32Z</time>
  <course>176.17</course>
  <speed>0.0</speed>
  <fix>3d</fix>
</trkpt>
<trkpt lat="33.810313" lon="-118.393867">
  <ele>-0.13</ele>
  <time>2026-09-01T01:12:32Z</time>
  <course>0.0</course>
  <speed>0.0</speed>
  <fix>3d</fix>
</trkpt>
<trkpt lat="33.810313" lon="-118.393867">
  <ele>0.0</ele>
  <time>2026-09-01T01:12:32Z</time>
  <course>176.65</course>
  <speed>0.0</speed>
  <fix>3d</fix>
</trkpt>
<trkpt lat="33.810313" lon="-118.393867">
  <ele>-0.13</ele>
  <time>2026-09-01T01:12:32Z</time>
  <course>0.0</course>
  <speed>0.0</speed>
  <fix>3d</fix>
</trkpt>
<trkpt lat="33.810313" lon="-118.393867">
  <ele>0.0</ele>
  <time>2026-09-01T01:12:32Z</time>
  <course>177.12</course>
  <speed>0.0</speed>
  <fix>3d</fix>
</trkpt>
<trkpt lat="33.810313" lon="-118.393867">
  <ele>-0.13</ele>
  <time>2026-09-01T01:12:32Z</time>
  <course>0.0</course>
  <speed>0.0</speed>
  <fix>3d</fix>
</trkpt>
<trkpt lat="33.810313" lon="-118.393867">
  <ele>0.0</ele>
  <time>2026-09-01T01:12:32Z</time>
  <course>177.57</course>
  <speed>0.0</speed>
  <fix>3d</fix>
</trkpt>
<trkpt lat="33.810313" lon="-118.393867">
  <ele>-0.13</ele>
  <time>2026-09-01T01:12:32Z</time>
  <course>0.0</course>
  <speed>0.0</speed>
  <fix>3d</fix>
</trkpt>
<trkpt lat="33.810313" lon="-118.393867">
  <ele>0.0</ele>
  <time>2026-09-01T01:12:32Z</time>
  <course>178.02</course>
  <speed>0.0</speed>
  <fix>3d</fix>
</trkpt>
<trkpt lat="33.810313" lon="-118.393867">
  <ele>-0.14</ele>
  <time>2026-09-01T01:12:32Z</time>
  <course>0.0</course>
  <speed>0.0</speed>
  <fix>3d</fix>
</trkpt>
<trkpt lat="33.810313" lon="-118.393867">
  <ele>0.0</ele>
  <time>2026-09-01T01:12:32Z</time>
  <course>178.45</course>
  <speed>0.0</speed>
  <fix>3d</fix>
</trkpt>
<trkpt lat="33.810313" lon="-118.393867">
  <ele>-0.14</ele>
  <time>2026-09-01T01:12:32Z</time>
  <course>0.0</course>
  <speed>0.0</speed>
  <fix>3d</fix>
</trkpt>
<trkpt lat="33.810313" lon="-118.393867">
  <ele>0.0</ele>
  <time>2026-09-01T01:12:32Z</time>
  <course>178.87</course>
  <speed>0.0</speed>
  <fix>3d</fix>
</trkpt>
<trkpt lat="33.810313" lon="-118.393867">
  <ele>-0.14</ele>
  <time>2026-09-01T01:12:32Z</time>
  <course>0.0</course>
  <speed>0.0</speed>
  <fix>3d</fix>
</trkpt>
<trkpt lat="33.810313" lon="-118.393867">
  <ele>0.0</ele>
  <time>2026-09-01T01:12:32Z</time>
  <course>179.27</course>
  <speed>0.0</speed>
  <fix>3d</fix>
</trkpt>
<trkpt lat="33.810313" lon="-118.393867">
  <ele>-0.14</ele>
  <time>2026-09-01T01:12:32Z</time>
  <course>0.0</course>
  <speed>0.0</speed>
  <fix>3d</fix>
</trkpt>
<trkpt lat="33.810313" lon="-118.393867">
  <ele>0.0</ele>
  <time>2026-09-01T01:12:32Z</time>
  <course>179.66</course>
  <speed>0.0</speed>
  <fix>3d</fix>
</trkpt>
<trkpt lat="33.810313" lon="-118.393867">
  <ele>-0.14</ele>
  <time>2026-09-01T01:12:32Z</time>
  <course>0.0</course>
  <speed>0.0</speed>
  <fix>3d</fix>
</trkpt>
<trkpt lat="33.810313" lon="-118.393867">
  <ele>0.0</ele>
  <time>2026-09-01T01:12:32Z</time>
  <course>180.05</course>
  <speed>0.0</speed>
  <fix>3d</fix>
</trkpt>
<trkpt lat="33.810313" lon="-118.393867">
  <ele>-0.14</ele>
  <time>2026-09-01T01:12:32Z</time>
  <course>0.0</course>
  <speed>0.0</speed>
  <fix>3d</fix>
</trkpt>
<trkpt lat="33.810313" lon="-118.393867">
  <ele>0.0</ele>
  <time>2026-09-01T01:12:32Z</time>
  <course>180.41</course>
  <speed>0.0</speed>
  <fix>3d</fix>
</trkpt>
<trkpt lat="33.810313" lon="-118.393867">
  <ele>-0.14</ele>
  <time>2026-09-01T01:12:32Z</time>
  <course>0.0</course>
  <speed>0.0</speed>
  <fix>3d</fix>
</trkpt>
<trkpt lat="33.810313" lon="-118.393867">
  <ele>0.0</ele>
  <time>2026-09-01T01:12:32Z</time>
  <course>180.76</course>
  <speed>0.0</speed>
  <fix>3d</fix>
</trkpt>
<trkpt lat="33.810313" lon="-118.393867">
  <ele>-0.14</ele>
  <time>2026-09-01T01:12:32Z</time>
  <course>0.0</course>
  <speed>0.0</speed>
  <fix>3d</fix>
</trkpt>
<trkpt lat="33.810313" lon="-118.393867">
  <ele>0.0</ele>
  <time>2026-09-01T01:12:32Z</time>
  <course>181.1</course>
  <speed>0.0</speed>
  <fix>3d</fix>
</trkpt>
<trkpt lat="33.810313" lon="-118.393867">
  <ele>-0.13</ele>
  <time>2026-09-01T01:12:32Z</time>
  <course>0.0</course>
  <speed>0.0</speed>
  <fix>3d</fix>
</trkpt>
<trkpt lat="33.810313" lon="-118.393867">
  <ele>0.0</ele>
  <time>2026-09-01T01:12:32Z</time>
  <course>181.43</course>
  <speed>0.0</speed>
  <fix>3d</fix>
</trkpt>
<trkpt lat="33.810313" lon="-118.393867">
  <ele>-0.13</ele>
  <time>2026-09-01T01:12:32Z</time>
  <course>0.0</course>
  <speed>0.0</speed>
  <fix>3d</fix>
</trkpt>
<trkpt lat="33.810313" lon="-118.393867">
  <ele>0.0</ele>
  <time>2026-09-01T01:12:32Z</time>
  <course>181.75</course>
  <speed>0.0</speed>
  <fix>3d</fix>
</trkpt>
<trkpt lat="33.810313" lon="-118.393867">
  <ele>-0.12</ele>
  <time>2026-09-01T01:12:32Z</time>
  <course>0.0</course>
  <speed>0.0</speed>
  <fix>3d</fix>
</trkpt>
<trkpt lat="33.810313" lon="-118.393867">
  <ele>0.0</ele>
  <time>2026-09-01T01:12:32Z</time>
  <course>182.05</course>
  <speed>0.0</speed>
  <fix>3d</fix>
</trkpt>
<trkpt lat="33.810313" lon="-118.393867">
  <ele>-0.12</ele>
  <time>2026-09-01T01:12:32Z</time>
  <course>0.0</course>
  <speed>0.0</speed>
  <fix>3d</fix>
</trkpt>
<trkpt lat="33.810313" lon="-118.393867">
  <ele>0.0</ele>
  <time>2026-09-01T01:12:32Z</time>
  <course>182.35</course>
  <speed>0.0</speed>
  <fix>3d</fix>
</trkpt>
<trkpt lat="33.810313" lon="-118.393867">
  <ele>-0.12</ele>
  <time>2026-09-01T01:12:32Z</time>
  <course>0.0</course>
  <speed>0.0</speed>
  <fix>3d</fix>
</trkpt>
<trkpt lat="33.810313" lon="-118.393867">
  <ele>0.0</ele>
  <time>2026-09-01T01:12:32Z</time>
  <course>182.63</course>
  <speed>0.0</speed>
  <fix>3d</fix>
</trkpt>
<trkpt lat="33.810313" lon="-118.393867">
  <ele>-0.12</ele>
  <time>2026-09-01T01:12:32Z</time>
  <course>0.0</course>
  <speed>0.0</speed>
  <fix>3d</fix>
</trkpt>
<trkpt lat="33.810313" lon="-118.393867">
  <ele>0.0</ele>
  <time>2026-09-01T01:12:32Z</time>
  <course>182.9</course>
  <speed>0.0</speed>
  <fix>3d</fix>
</trkpt>
<trkpt lat="33.810313" lon="-118.393867">
  <ele>-0.11</ele>
  <time>2026-09-01T01:12:32Z</time>
  <course>0.0</course>
  <speed>0.0</speed>
  <fix>3d</fix>
</trkpt>
<trkpt lat="33.810313" lon="-118.393867">
  <ele>0.0</ele>
  <time>2026-09-01T01:12:32Z</time>
  <course>183.16</course>
  <speed>0.0</speed>
  <fix>3d</fix>
</trkpt>
<trkpt lat="33.810313" lon="-118.393867">
  <ele>-0.11</ele>
  <time>2026-09-01T01:12:32Z</time>
  <course>0.0</course>
  <speed>0.0</speed>
  <fix>3d</fix>
</trkpt>
<trkpt lat="33.810313" lon="-118.393867">
  <ele>0.0</ele>
  <time>2026-09-01T01:12:32Z</time>
  <course>183.41</course>
  <speed>0.0</speed>
  <fix>3d</fix>
</trkpt>
<trkpt lat="33.810313" lon="-118.393867">
  <ele>-0.11</ele>
  <time>2026-09-01T01:12:32Z</time>
  <course>0.0</course>
  <speed>0.0</speed>
  <fix>3d</fix>
</trkpt>
<trkpt lat="33.810313" lon="-118.393867">
  <ele>0.0</ele>
  <time>2026-09-01T01:12:32Z</time>
  <course>183.65</course>
  <speed>0.0</speed>
  <fix>3d</fix>
</trkpt>
<trkpt lat="33.810313" lon="-118.393867">
  <ele>-0.11</ele>
  <time>2026-09-01T01:12:32Z</time>
  <course>0.0</course>
  <speed>0.0</speed>
  <fix>3d</fix>
</trkpt>
<trkpt lat="33.810313" lon="-118.393867">
  <ele>0.0</ele>
  <time>2026-09-01T01:12:32Z</time>
  <course>183.88</course>
  <speed>0.0</speed>
  <fix>3d</fix>
</trkpt>
<trkpt lat="33.810313" lon="-118.393867">
  <ele>-0.12</ele>
  <time>2026-09-01T01:12:32Z</time>
  <course>0.0</course>
  <speed>0.0</speed>
  <fix>3d</fix>
</trkpt>
<trkpt lat="33.810313" lon="-118.393867">
  <ele>0.0</ele>
  <time>2026-09-01T01:12:32Z</time>
  <course>184.11</course>
  <speed>0.0</speed>
  <fix>3d</fix>
</trkpt>
<trkpt lat="33.810313" lon="-118.393867">
  <ele>-0.12</ele>
  <time>2026-09-01T01:12:32Z</time>
  <course>0.0</course>
  <speed>0.0</speed>
  <fix>3d</fix>
</trkpt>
<trkpt lat="33.810313" lon="-118.393867">
  <ele>0.0</ele>
  <time>2026-09-01T01:12:32Z</time>
  <course>184.32</course>
  <speed>0.0</speed>
  <fix>3d</fix>
</trkpt>
<trkpt lat="33.810313" lon="-118.393867">
  <ele>-0.13</ele>
  <time>2026-09-01T01:12:32Z</time>
  <course>0.0</course>
  <speed>0.0</speed>
  <fix>3d</fix>
</trkpt>
<trkpt lat="33.810313" lon="-118.393867">
  <ele>0.0</ele>
  <time>2026-09-01T01:12:32Z</time>
  <course>184.52</course>
  <speed>0.0</speed>
  <fix>3d</fix>
</trkpt>
<trkpt lat="33.810313" lon="-118.393867">
  <ele>-0.13</ele>
  <time>2026-09-01T01:12:32Z</time>
  <course>0.0</course>
  <speed>0.0</speed>
  <fix>3d</fix>
</trkpt>
<trkpt lat="33.810313" lon="-118.393867">
  <ele>0.0</ele>
  <time>2026-09-01T01:12:32Z</time>
  <course>184.72</course>
  <speed>0.0</speed>
  <fix>3d</fix>
</trkpt>
<trkpt lat="33.810313" lon="-118.393867">
  <ele>-0.13</ele>
  <time>2026-09-01T01:12:32Z</time>
  <course>0.0</course>
  <speed>0.0</speed>
  <fix>3d</fix>
</trkpt>
<trkpt lat="33.810313" lon="-118.393867">
  <ele>0.0</ele>
  <time>2026-09-01T01:12:32Z</time>
  <course>184.91</course>
  <speed>0.0</speed>
  <fix>3d</fix>
</trkpt>
<trkpt lat="33.810313" lon="-118.393867">
  <ele>-0.13</ele>
  <time>2026-09-01T01:12:32Z</time>
  <course>0.0</course>
  <speed>0.0</speed>
  <fix>3d</fix>
</trkpt>
<trkpt lat="33.810313" lon="-118.393867">
  <ele>0.0</ele>
  <time>2026-09-01T01:12:32Z</time>
  <course>185.09</course>
  <speed>0.0</speed>
  <fix>3d</fix>
</trkpt>
<trkpt lat="33.810313" lon="-118.393867">
  <ele>-0.14</ele>
  <time>2026-09-01T01:12:32Z</time>
  <course>0.0</course>
  <speed>0.0</speed>
  <fix>3d</fix>
</trkpt>
<trkpt lat="33.810313" lon="-118.393867">
  <ele>0.0</ele>
  <time>2026-09-01T01:12:32Z</time>
  <course>185.26</course>
  <speed>0.0</speed>
  <fix>3d</fix>
</trkpt>
<trkpt lat="33.810313" lon="-118.393867">
  <ele>-0.14</ele>
  <time>2026-09-01T01:12:32Z</time>
  <course>0.0</course>
  <speed>0.0</speed>
  <fix>3d</fix>
</trkpt>
<trkpt lat="33.810313" lon="-118.393867">
  <ele>0.0</ele>
  <time>2026-09-01T01:12:32Z</time>
  <course>185.42</course>
  <speed>0.0</speed>
  <fix>3d</fix>
</trkpt>
<trkpt lat="33.810313" lon="-118.393867">
  <ele>-0.13</ele>
  <time>2026-09-01T01:12:32Z</time>
  <course>0.0</course>
  <speed>0.0</speed>
  <fix>3d</fix>
</trkpt>
<trkpt lat="33.810313" lon="-118.393867">
  <ele>0.0</ele>
  <time>2026-09-01T01:12:32Z</time>
  <course>185.58</course>
  <speed>0.0</speed>
  <fix>3d</fix>
</trkpt>
<trkpt lat="33.810313" lon="-118.393867">
  <ele>-0.13</ele>
  <time>2026-09-01T01:12:32Z</time>
  <course>0.0</course>
  <speed>0.0</speed>
  <fix>3d</fix>
</trkpt>
<trkpt lat="33.4368002" lon="-117.0859339">
  <ele>-0.11</ele>
  <time>2026-09-01T01:12:36Z</time>
  <course>0.0</course>
  <speed>0.0</speed>
  <fix>3d</fix>
</trkpt>
<trkpt lat="33.4368002" lon="-117.0859339">
  <ele>-0.11</ele>
  <time>2026-09-01T01:12:36Z</time>
  <course>0.0</course>
  <speed>0.0</speed>
  <fix>3d</fix>
</trkpt>
<trkpt lat="33.810313" lon="-118.393867">
  <ele>-0.11</ele>
  <time>2026-09-01T01:12:36Z</time>
  <course>0.0</course>
  <speed>0.0</speed>
  <fix>3d</fix>
</trkpt>
<trkpt lat="33.810313" lon="-118.393867">
  <ele>-0.11</ele>
  <time>2026-09-01T01:12:36Z</time>
  <course>0.0</course>
  <speed>0.0</speed>
  <fix>3d</fix>
</trkpt>
<trkpt lat="33.810313" lon="-118.393867">
  <ele>-0.11</ele>
  <time>2026-09-01T01:12:36Z</time>
  <course>0.0</course>
  <speed>0.0</speed>
  <fix>3d</fix>
</trkpt>
<trkpt lat="33.810313" lon="-118.393867">
  <ele>-0.11</ele>
  <time>2026-09-01T01:12:36Z</time>
  <course>0.0</course>
  <speed>0.0</speed>
  <fix>3d</fix>
</trkpt>
<trkpt lat="33.810313" lon="-118.393867">
  <ele>-0.12</ele>
  <time>2026-09-01T01:12:36Z</time>
  <course>0.0</course>
  <speed>0.0</speed>
  <fix>3d</fix>
</trkpt>
<trkpt lat="33.810313" lon="-118.393867">
  <ele>-0.12</ele>
  <time>2026-09-01T01:12:36Z</time>
  <course>0.0</course>
  <speed>0.0</speed>
  <fix>3d</fix>
</trkpt>
<trkpt lat="33.810313" lon="-118.393867">
  <ele>-0.13</ele>
  <time>2026-09-01T01:12:36Z</time>
  <course>0.0</course>
  <speed>0.0</speed>
  <fix>3d</fix>
</trkpt>
<trkpt lat="33.810313" lon="-118.393867">
  <ele>-0.13</ele>
  <time>2026-09-01T01:12:36Z</time>
  <course>0.0</course>
  <speed>0.0</speed>
  <fix>3d</fix>
</trkpt>
<trkpt lat="33.810313" lon="-118.393867">
  <ele>-0.13</ele>
  <time>2026-09-01T01:12:36Z</time>
  <course>0.0</course>
  <speed>0.0</speed>
  <fix>3d</fix>
</trkpt>
<trkpt lat="33.810313" lon="-118.393867">
  <ele>-0.13</ele>
  <time>2026-09-01T01:12:36Z</time>
  <course>0.0</course>
  <speed>0.0</speed>
  <fix>3d</fix>
</trkpt>
<trkpt lat="33.810313" lon="-118.393867">
  <ele>-0.14</ele>
  <time>2026-09-01T01:12:36Z</time>
  <course>0.0</course>
  <speed>0.0</speed>
  <fix>3d</fix>
</trkpt>
<trkpt lat="33.810313" lon="-118.393867">
  <ele>-0.14</ele>
  <time>2026-09-01T01:12:36Z</time>
  <course>0.0</course>
  <speed>0.0</speed>
  <fix>3d</fix>
</trkpt>
<trkpt lat="33.810313" lon="-118.393867">
  <ele>-0.14</ele>
  <time>2026-09-01T01:12:36Z</time>
  <course>0.0</course>
  <speed>0.0</speed>
  <fix>3d</fix>
</trkpt>
<trkpt lat="33.810313" lon="-118.393867">
  <ele>-0.14</ele>
  <time>2026-09-01T01:12:36Z</time>
  <course>0.0</course>
  <speed>0.0</speed>
  <fix>3d</fix>
</trkpt>
<trkpt lat="33.810313" lon="-118.393867">
  <ele>-0.14</ele>
  <time>2026-09-01T01:12:36Z</time>
  <course>0.0</course>
  <speed>0.0</speed>
  <fix>3d</fix>
</trkpt>
<trkpt lat="33.810313" lon="-118.393867">
  <ele>-0.14</ele>
  <time>2026-09-01T01:12:36Z</time>
  <course>0.0</course>
  <speed>0.0</speed>
  <fix>3d</fix>
</trkpt>
<trkpt lat="33.810313" lon="-118.393867">
  <ele>-0.14</ele>
  <time>2026-09-01T01:12:36Z</time>
  <course>0.0</course>
  <speed>0.0</speed>
  <fix>3d</fix>
</trkpt>
<trkpt lat="33.810313" lon="-118.393867">
  <ele>-0.14</ele>
  <time>2026-09-01T01:12:36Z</time>
  <course>0.0</course>
  <speed>0.0</speed>
  <fix>3d</fix>
</trkpt>
<trkpt lat="33.810313" lon="-118.393867">
  <ele>-0.13</ele>
  <time>2026-09-01T01:12:36Z</time>
  <course>0.0</course>
  <speed>0.0</speed>
  <fix>3d</fix>
</trkpt>
<trkpt lat="33.810313" lon="-118.393867">
  <ele>-0.13</ele>
  <time>2026-09-01T01:12:36Z</time>
  <course>0.0</course>
  <speed>0.0</speed>
  <fix>3d</fix>
</trkpt>
<trkpt lat="33.810313" lon="-118.393867">
  <ele>-0.12</ele>
  <time>2026-09-01T01:12:36Z</time>
  <course>0.0</course>
  <speed>0.0</speed>
  <fix>3d</fix>
</trkpt>
<trkpt lat="33.810313" lon="-118.393867">
  <ele>-0.12</ele>
  <time>2026-09-01T01:12:36Z</time>
  <course>0.0</course>
  <speed>0.0</speed>
  <fix>3d</fix>
</trkpt>
<trkpt lat="33.810313" lon="-118.393867">
  <ele>-0.12</ele>
  <time>2026-09-01T01:12:36Z</time>
  <course>0.0</course>
  <speed>0.0</speed>
  <fix>3d</fix>
</trkpt>
<trkpt lat="33.810313" lon="-118.393867">
  <ele>-0.12</ele>
  <time>2026-09-01T01:12:36Z</time>
  <course>0.0</course>
  <speed>0.0</speed>
  <fix>3d</fix>
</trkpt>
<trkpt lat="33.810313" lon="-118.393867">
  <ele>-0.11</ele>
  <time>2026-09-01T01:12:36Z</time>
  <course>0.0</course>
  <speed>0.0</speed>
  <fix>3d</fix>
</trkpt>
<trkpt lat="33.810313" lon="-118.393867">
  <ele>-0.11</ele>
  <time>2026-09-01T01:12:36Z</time>
  <course>0.0</course>
  <speed>0.0</speed>
  <fix>3d</fix>
</trkpt>
<trkpt lat="33.810313" lon="-118.393867">
  <ele>-0.11</ele>
  <time>2026-09-01T01:12:36Z</time>
  <course>0.0</course>
  <speed>0.0</speed>
  <fix>3d</fix>
</trkpt>
<trkpt lat="33.810313" lon="-118.393867">
  <ele>-0.11</ele>
  <time>2026-09-01T01:12:36Z</time>
  <course>0.0</course>
  <speed>0.0</speed>
  <fix>3d</fix>
</trkpt>
<trkpt lat="33.810313" lon="-118.393867">
  <ele>-0.12</ele>
  <time>2026-09-01T01:12:36Z</time>
  <course>0.0</course>
  <speed>0.0</speed>
  <fix>3d</fix>
</trkpt>
<trkpt lat="33.810313" lon="-118.393867">
  <ele>-0.12</ele>
  <time>2026-09-01T01:12:36Z</time>
  <course>0.0</course>
  <speed>0.0</speed>
  <fix>3d</fix>
</trkpt>
<trkpt lat="33.810313" lon="-118.393867">
  <ele>-0.13</ele>
  <time>2026-09-01T01:12:36Z</time>
  <course>0.0</course>
  <speed>0.0</speed>
  <fix>3d</fix>
</trkpt>
<trkpt lat="33.810313" lon="-118.393867">
  <ele>-0.13</ele>
  <time>2026-09-01T01:12:36Z</time>
  <course>0.0</course>
  <speed>0.0</speed>
  <fix>3d</fix>
</trkpt>
<trkpt lat="33.810313" lon="-118.393867">
  <ele>-0.13</ele>
  <time>2026-09-01T01:12:36Z</time>
  <course>0.0</course>
  <speed>0.0</speed>
  <fix>3d</fix>
</trkpt>
<trkpt lat="33.810313" lon="-118.393867">
  <ele>-0.13</ele>
  <time>2026-09-01T01:12:36Z</time>
  <course>0.0</course>
  <speed>0.0</speed>
  <fix>3d</fix>
</trkpt>
<trkpt lat="33.810313" lon="-118.393867">
  <ele>-0.14</ele>
  <time>2026-09-01T01:12:36Z</time>
  <course>0.0</course>
  <speed>0.0</speed>
  <fix>3d</fix>
</trkpt>
<trkpt lat="33.810313" lon="-118.393867">
  <ele>-0.14</ele>
  <time>2026-09-01T01:12:36Z</time>
  <course>0.0</course>
  <speed>0.0</speed>
  <fix>3d</fix>
</trkpt>
<trkpt lat="33.810313" lon="-118.393867">
  <ele>-0.13</ele>
  <time>2026-09-01T01:12:36Z</time>
  <course>0.0</course>
  <speed>0.0</speed>
  <fix>3d</fix>
</trkpt>
<trkpt lat="33.810313" lon="-118.393867">
  <ele>-0.13</ele>
  <time>2026-09-01T01:12:36Z</time>
  <course>0.0</course>
  <speed>0.0</speed>
  <fix>3d</fix>
</trkpt>
<trkpt lat="33.810313" lon="-118.393867">
  <ele>-0.13</ele>
  <time>2026-09-01T01:12:36Z</time>
  <course>0.0</course>
  <speed>0.0</speed>
  <fix>3d</fix>
</trkpt>
<trkpt lat="33.810313" lon="-118.393867">
  <ele>-0.13</ele>
  <time>2026-09-01T01:12:36Z</time>
  <course>0.0</course>
  <speed>0.0</speed>
  <fix>3d</fix>
</trkpt>
<trkpt lat="33.810313" lon="-118.393867">
  <ele>-0.12</ele>
  <time>2026-09-01T01:12:36Z</time>
  <course>0.0</course>
  <speed>0.0</speed>
  <fix>3d</fix>
</trkpt>
<trkpt lat="33.810313" lon="-118.393867">
  <ele>-0.12</ele>
  <time>2026-09-01T01:12:36Z</time>
  <course>0.0</course>
  <speed>0.0</speed>
  <fix>3d</fix>
</trkpt>
<trkpt lat="33.810313" lon="-118.393867">
  <ele>-0.12</ele>
  <time>2026-09-01T01:12:36Z</time>
  <course>0.0</course>
  <speed>0.0</speed>
  <fix>3d</fix>
</trkpt>
<trkpt lat="33.810313" lon="-118.393867">
  <ele>-0.12</ele>
  <time>2026-09-01T01:12:36Z</time>
  <course>0.0</course>
  <speed>0.0</speed>
  <fix>3d</fix>
</trkpt>
<trkpt lat="33.810313" lon="-118.393867">
  <ele>-0.12</ele>
  <time>2026-09-01T01:12:36Z</time>
  <course>0.0</course>
  <speed>0.0</speed>
  <fix>3d</fix>
</trkpt>
<trkpt lat="33.810313" lon="-118.393867">
  <ele>-0.12</ele>
  <time>2026-09-01T01:12:36Z</time>
  <course>0.0</course>
  <speed>0.0</speed>
  <fix>3d</fix>
</trkpt>
<trkpt lat="33.810313" lon="-118.393867">
  <ele>-0.12</ele>
  <time>2026-09-01T01:12:36Z</time>
  <course>0.0</course>
  <speed>0.0</speed>
  <fix>3d</fix>
</trkpt>
<trkpt lat="33.810313" lon="-118.393867">
  <ele>-0.12</ele>
  <time>2026-09-01T01:12:36Z</time>
  <course>0.0</course>
  <speed>0.0</speed>
  <fix>3d</fix>
</trkpt>
<trkpt lat="33.810313" lon="-118.393867">
  <ele>-0.12</ele>
  <time>2026-09-01T01:12:36Z</time>
  <course>0.0</course>
  <speed>0.0</speed>
  <fix>3d</fix>
</trkpt>
<trkpt lat="33.810313" lon="-118.393867">
  <ele>-0.12</ele>
  <time>2026-09-01T01:12:36Z</time>
  <course>0.0</course>
  <speed>0.0</speed>
  <fix>3d</fix>
</trkpt>
<trkpt lat="33.810313" lon="-118.393867">
  <ele>-0.13</ele>
  <time>2026-09-01T01:12:36Z</time>
  <course>0.0</course>
  <speed>0.0</speed>
  <fix>3d</fix>
</trkpt>
<trkpt lat="33.810313" lon="-118.393867">
  <ele>-0.13</ele>
  <time>2026-09-01T01:12:36Z</time>
  <course>0.0</course>
  <speed>0.0</speed>
  <fix>3d</fix>
</trkpt>
<trkpt lat="33.810313" lon="-118.393867">
  <ele>-0.13</ele>
  <time>2026-09-01T01:12:36Z</time>
  <course>0.0</course>
  <speed>0.0</speed>
  <fix>3d</fix>
</trkpt>
<trkpt lat="33.810313" lon="-118.393867">
  <ele>-0.13</ele>
  <time>2026-09-01T01:12:36Z</time>
  <course>0.0</course>
  <speed>0.0</speed>
  <fix>3d</fix>
</trkpt>
<trkpt lat="33.810313" lon="-118.393867">
  <ele>-0.13</ele>
  <time>2026-09-01T01:12:36Z</time>
  <course>0.0</course>
  <speed>0.0</speed>
  <fix>3d</fix>
</trkpt>
<trkpt lat="33.810313" lon="-118.393867">
  <ele>-0.13</ele>
  <time>2026-09-01T01:12:36Z</time>
  <course>0.0</course>
  <speed>0.0</speed>
  <fix>3d</fix>
</trkpt>
<trkpt lat="33.810313" lon="-118.393867">
  <ele>-0.13</ele>
  <time>2026-09-01T01:12:36Z</time>
  <course>0.0</course>
  <speed>0.0</speed>
  <fix>3d</fix>
</trkpt>
<trkpt lat="33.810313" lon="-118.393867">
  <ele>-0.13</ele>
  <time>2026-09-01T01:12:36Z</time>
  <course>0.0</course>
  <speed>0.0</speed>
  <fix>3d</fix>
</trkpt>
<trkpt lat="33.810313" lon="-118.393867">
  <ele>-0.12</ele>
  <time>2026-09-01T01:12:36Z</time>
  <course>0.0</course>
  <speed>0.0</speed>
  <fix>3d</fix>
</trkpt>
<trkpt lat="33.810313" lon="-118.393867">
  <ele>-0.12</ele>
  <time>2026-09-01T01:12:36Z</time>
  <course>0.0</course>
  <speed>0.0</speed>
  <fix>3d</fix>
</trkpt>
<trkpt lat="33.810313" lon="-118.393867">
  <ele>-0.12</ele>
  <time>2026-09-01T01:12:36Z</time>
  <course>0.0</course>
  <speed>0.0</speed>
  <fix>3d</fix>
</trkpt>
<trkpt lat="33.810313" lon="-118.393867">
  <ele>-0.12</ele>
  <time>2026-09-01T01:12:36Z</time>
  <course>0.0</course>
  <speed>0.0</speed>
  <fix>3d</fix>
</trkpt>
<trkpt lat="33.810313" lon="-118.393867">
  <ele>-0.12</ele>
  <time>2026-09-01T01:12:36Z</time>
  <course>0.0</course>
  <speed>0.0</speed>
  <fix>3d</fix>
</trkpt>
<trkpt lat="33.810313" lon="-118.393867">
  <ele>-0.12</ele>
  <time>2026-09-01T01:12:36Z</time>
  <course>0.0</course>
  <speed>0.0</speed>
  <fix>3d</fix>
</trkpt>
<trkpt lat="33.810313" lon="-118.393867">
  <ele>-0.12</ele>
  <time>2026-09-01T01:12:36Z</time>
  <course>0.0</course>
  <speed>0.0</speed>
  <fix>3d</fix>
</trkpt>
<trkpt lat="33.810313" lon="-118.393867">
  <ele>-0.12</ele>
  <time>2026-09-01T01:12:36Z</time>
  <course>0.0</course>
  <speed>0.0</speed>
  <fix>3d</fix>
</trkpt>
<trkpt lat="33.810313" lon="-118.393867">
  <ele>-0.12</ele>
  <time>2026-09-01T01:12:36Z</time>
  <course>0.0</course>
  <speed>0.0</speed>
  <fix>3d</fix>
</trkpt>
<trkpt lat="33.810313" lon="-118.393867">
  <ele>-0.12</ele>
  <time>2026-09-01T01:12:36Z</time>
  <course>0.0</course>
  <speed>0.0</speed>
  <fix>3d</fix>
</trkpt>
<trkpt lat="33.810313" lon="-118.393867">
  <ele>-0.13</ele>
  <time>2026-09-01T01:12:36Z</time>
  <course>0.0</course>
  <speed>0.0</speed>
  <fix>3d</fix>
</trkpt>
<trkpt lat="33.810313" lon="-118.393867">
  <ele>-0.13</ele>
  <time>2026-09-01T01:12:36Z</time>
  <course>0.0</course>
  <speed>0.0</speed>
  <fix>3d</fix>
</trkpt>
<trkpt lat="33.810313" lon="-118.393867">
  <ele>-0.13</ele>
  <time>2026-09-01T01:12:36Z</time>
  <course>0.0</course>
  <speed>0.0</speed>
  <fix>3d</fix>
</trkpt>
<trkpt lat="33.810313" lon="-118.393867">
  <ele>-0.13</ele>
  <time>2026-09-01T01:12:36Z</time>
  <course>0.0</course>
  <speed>0.0</speed>
  <fix>3d</fix>
</trkpt>
<trkpt lat="33.810313" lon="-118.393867">
  <ele>0.0</ele>
  <time>2026-09-01T01:12:36Z</time>
  <course>173.5</course>
  <speed>0.0</speed>
  <fix>3d</fix>
</trkpt>
<trkpt lat="33.810313" lon="-118.393867">
  <ele>-0.13</ele>
  <time>2026-09-01T01:12:36Z</time>
  <course>0.0</course>
  <speed>0.0</speed>
  <fix>3d</fix>
</trkpt>
<trkpt lat="33.810313" lon="-118.393867">
  <ele>0.0</ele>
  <time>2026-09-01T01:12:36Z</time>
  <course>173.59</course>
  <speed>0.0</speed>
  <fix>3d</fix>
</trkpt>
<trkpt lat="33.810313" lon="-118.393867">
  <ele>-0.13</ele>
  <time>2026-09-01T01:12:36Z</time>
  <course>0.0</course>
  <speed>0.0</speed>
  <fix>3d</fix>
</trkpt>
<trkpt lat="33.810313" lon="-118.393867">
  <ele>0.0</ele>
  <time>2026-09-01T01:12:36Z</time>
  <course>173.86</course>
  <speed>0.0</speed>
  <fix>3d</fix>
</trkpt>
<trkpt lat="33.810313" lon="-118.393867">
  <ele>-0.12</ele>
  <time>2026-09-01T01:12:36Z</time>
  <course>0.0</course>
  <speed>0.0</speed>
  <fix>3d</fix>
</trkpt>
<trkpt lat="33.810313" lon="-118.393867">
  <ele>0.0</ele>
  <time>2026-09-01T01:12:36Z</time>
  <course>174.23</course>
  <speed>0.0</speed>
  <fix>3d</fix>
</trkpt>
<trkpt lat="33.810313" lon="-118.393867">
  <ele>-0.12</ele>
  <time>2026-09-01T01:12:36Z</time>
  <course>0.0</course>
  <speed>0.0</speed>
  <fix>3d</fix>
</trkpt>
<trkpt lat="33.810313" lon="-118.393867">
  <ele>0.0</ele>
  <time>2026-09-01T01:12:37Z</time>
  <course>174.61</course>
  <speed>0.0</speed>
  <fix>3d</fix>
</trkpt>
<trkpt lat="33.810313" lon="-118.393867">
  <ele>-0.12</ele>
  <time>2026-09-01T01:12:37Z</time>
  <course>0.0</course>
  <speed>0.0</speed>
  <fix>3d</fix>
</trkpt>
<trkpt lat="33.810313" lon="-118.393867">
  <ele>0.0</ele>
  <time>2026-09-01T01:12:37Z</time>
  <course>174.98</course>
  <speed>0.0</speed>
  <fix>3d</fix>
</trkpt>
<trkpt lat="33.810313" lon="-118.393867">
  <ele>-0.12</ele>
  <time>2026-09-01T01:12:37Z</time>
  <course>0.0</course>
  <speed>0.0</speed>
  <fix>3d</fix>
</trkpt>
<trkpt lat="33.810313" lon="-118.393867">
  <ele>0.0</ele>
  <time>2026-09-01T01:12:37Z</time>
  <course>175.33</course>
  <speed>0.0</speed>
  <fix>3d</fix>
</trkpt>
<trkpt lat="33.810313" lon="-118.393867">
  <ele>-0.12</ele>
  <time>2026-09-01T01:12:37Z</time>
  <course>0.0</course>
  <speed>0.0</speed>
  <fix>3d</fix>
</trkpt>
<trkpt lat="33.810313" lon="-118.393867">
  <ele>0.0</ele>
  <time>2026-09-01T01:12:37Z</time>
  <course>175.66</course>
  <speed>0.0</speed>
  <fix>3d</fix>
</trkpt>
<trkpt lat="33.810313" lon="-118.393867">
  <ele>-0.12</ele>
  <time>2026-09-01T01:12:37Z</time>
  <course>0.0</course>
  <speed>0.0</speed>
  <fix>3d</fix>
</trkpt>
<trkpt lat="33.4368002" lon="-117.0859339">
  <ele>-0.11</ele>
  <time>2026-09-01T01:12:37Z</time>
  <course>0.0</course>
  <speed>0.0</speed>
  <fix>3d</fix>
</trkpt>
<trkpt lat="33.4368002" lon="-117.0859339">
  <ele>-0.11</ele>
  <time>2026-09-01T01:12:37Z</time>
  <course>0.0</course>
  <speed>0.0</speed>
  <fix>3d</fix>
</trkpt>
<trkpt lat="33.810313" lon="-118.393867">
  <ele>0.0</ele>
  <time>2026-09-01T01:12:37Z</time>
  <course>173.5</course>
  <speed>0.0</speed>
  <fix>3d</fix>
</trkpt>
<trkpt lat="33.810313" lon="-118.393867">
  <ele>-0.11</ele>
  <time>2026-09-01T01:12:37Z</time>
  <course>0.0</course>
  <speed>0.0</speed>
  <fix>3d</fix>
</trkpt>
<trkpt lat="33.4368002" lon="-117.0859339">
  <ele>-0.11</ele>
  <time>2026-09-01T01:12:43Z</time>
  <course>0.0</course>
  <speed>0.0</speed>
  <fix>3d</fix>
</trkpt>
<trkpt lat="33.4368002" lon="-117.0859339">
  <ele>-0.11</ele>
  <time>2026-09-01T01:12:43Z</time>
  <course>0.0</course>
  <speed>0.0</speed>
  <fix>3d</fix>
</trkpt>
<trkpt lat="33.810313" lon="-118.393867">
  <ele>0.0</ele>
  <time>2026-09-01T01:12:43Z</time>
  <course>173.5</course>
  <speed>0.0</speed>
  <fix>3d</fix>
</trkpt>
<trkpt lat="33.810313" lon="-118.393867">
  <ele>-0.11</ele>
  <time>2026-09-01T01:12:43Z</time>
  <course>0.0</course>
  <speed>0.0</speed>
  <fix>3d</fix>
</trkpt>
<trkpt lat="33.810313" lon="-118.393867">
  <ele>0.0</ele>
  <time>2026-09-01T01:12:43Z</time>
  <course>173.64</course>
  <speed>0.0</speed>
  <fix>3d</fix>
</trkpt>
<trkpt lat="33.810313" lon="-118.393867">
  <ele>-0.11</ele>
  <time>2026-09-01T01:12:43Z</time>
  <course>0.0</course>
  <speed>0.0</speed>
  <fix>3d</fix>
</trkpt>
<trkpt lat="33.810313" lon="-118.393867">
  <ele>0.0</ele>
  <time>2026-09-01T01:12:43Z</time>
  <course>174.03</course>
  <speed>0.0</speed>
  <fix>3d</fix>
</trkpt>
<trkpt lat="33.810313" lon="-118.393867">
  <ele>-0.11</ele>
  <time>2026-09-01T01:12:43Z</time>
  <course>0.0</course>
  <speed>0.0</speed>
  <fix>3d</fix>
</trkpt>
<trkpt lat="33.810313" lon="-118.393867">
  <ele>0.0</ele>
  <time>2026-09-01T01:12:43Z</time>
  <course>174.57</course>
  <speed>0.0</speed>
  <fix>3d</fix>
</trkpt>
<trkpt lat="33.810313" lon="-118.393867">
  <ele>-0.11</ele>
  <time>2026-09-01T01:12:43Z</time>
  <course>0.0</course>
  <speed>0.0</speed>
  <fix>3d</fix>
</trkpt>
<trkpt lat="33.810313" lon="-118.393867">
  <ele>0.0</ele>
  <time>2026-09-01T01:12:43Z</time>
  <course>175.13</course>
  <speed>0.0</speed>
  <fix>3d</fix>
</trkpt>
<trkpt lat="33.810313" lon="-118.393867">
  <ele>-0.12</ele>
  <time>2026-09-01T01:12:43Z</time>
  <course>0.0</course>
  <speed>0.0</speed>
  <fix>3d</fix>
</trkpt>
<trkpt lat="33.810313" lon="-118.393867">
  <ele>0.0</ele>
  <time>2026-09-01T01:12:43Z</time>
  <course>175.67</course>
  <speed>0.0</speed>
  <fix>3d</fix>
</trkpt>
<trkpt lat="33.810313" lon="-118.393867">
  <ele>-0.12</ele>
  <time>2026-09-01T01:12:43Z</time>
  <course>0.0</course>
  <speed>0.0</speed>
  <fix>3d</fix>
</trkpt>
<trkpt lat="33.810313" lon="-118.393867">
  <ele>0.0</ele>
  <time>2026-09-01T01:12:43Z</time>
  <course>176.17</course>
  <speed>0.0</speed>
  <fix>3d</fix>
</trkpt>
<trkpt lat="33.810313" lon="-118.393867">
  <ele>-0.13</ele>
  <time>2026-09-01T01:12:43Z</time>
  <course>0.0</course>
  <speed>0.0</speed>
  <fix>3d</fix>
</trkpt>
<trkpt lat="33.810313" lon="-118.393867">
  <ele>0.0</ele>
  <time>2026-09-01T01:12:43Z</time>
  <course>176.65</course>
  <speed>0.0</speed>
  <fix>3d</fix>
</trkpt>
<trkpt lat="33.810313" lon="-118.393867">
  <ele>-0.13</ele>
  <time>2026-09-01T01:12:43Z</time>
  <course>0.0</course>
  <speed>0.0</speed>
  <fix>3d</fix>
</trkpt>
<trkpt lat="33.810313" lon="-118.393867">
  <ele>0.0</ele>
  <time>2026-09-01T01:12:43Z</time>
  <course>177.12</course>
  <speed>0.0</speed>
  <fix>3d</fix>
</trkpt>
<trkpt lat="33.810313" lon="-118.393867">
  <ele>-0.13</ele>
  <time>2026-09-01T01:12:43Z</time>
  <course>0.0</course>
  <speed>0.0</speed>
  <fix>3d</fix>
</trkpt>
<trkpt lat="33.810313" lon="-118.393867">
  <ele>0.0</ele>
  <time>2026-09-01T01:12:43Z</time>
  <course>177.57</course>
  <speed>0.0</speed>
  <fix>3d</fix>
</trkpt>
<trkpt lat="33.810313" lon="-118.393867">
  <ele>-0.13</ele>
  <time>2026-09-01T01:12:43Z</time>
  <course>0.0</course>
  <speed>0.0</speed>
  <fix>3d</fix>
</trkpt>
<trkpt lat="33.810313" lon="-118.393867">
  <ele>0.0</ele>
  <time>2026-09-01T01:12:43Z</time>
  <course>178.02</course>
  <speed>0.0</speed>
  <fix>3d</fix>
</trkpt>
<trkpt lat="33.810313" lon="-118.393867">
  <ele>-0.14</ele>
  <time>2026-09-01T01:12:43Z</time>
  <course>0.0</course>
  <speed>0.0</speed>
  <fix>3d</fix>
</trkpt>
<trkpt lat="33.810313" lon="-118.393867">
  <ele>0.0</ele>
  <time>2026-09-01T01:12:43Z</time>
  <course>178.45</course>
  <speed>0.0</speed>
  <fix>3d</fix>
</trkpt>
<trkpt lat="33.810313" lon="-118.393867">
  <ele>-0.14</ele>
  <time>2026-09-01T01:12:43Z</time>
  <course>0.0</course>
  <speed>0.0</speed>
  <fix>3d</fix>
</trkpt>
<trkpt lat="33.810313" lon="-118.393867">
  <ele>0.0</ele>
  <time>2026-09-01T01:12:43Z</time>
  <course>178.87</course>
  <speed>0.0</speed>
  <fix>3d</fix>
</trkpt>
<trkpt lat="33.810313" lon="-118.393867">
  <ele>-0.14</ele>
  <time>2026-09-01T01:12:43Z</time>
  <course>0.0</course>
  <speed>0.0</speed>
  <fix>3d</fix>
</trkpt>
<trkpt lat="33.810313" lon="-118.393867">
  <ele>0.0</ele>
  <time>2026-09-01T01:12:43Z</time>
  <course>179.27</course>
  <speed>0.0</speed>
  <fix>3d</fix>
</trkpt>
<trkpt lat="33.810313" lon="-118.393867">
  <ele>-0.14</ele>
  <time>2026-09-01T01:12:43Z</time>
  <course>0.0</course>
  <speed>0.0</speed>
  <fix>3d</fix>
</trkpt>
<trkpt lat="33.810313" lon="-118.393867">
  <ele>0.0</ele>
  <time>2026-09-01T01:12:43Z</time>
  <course>179.66</course>
  <speed>0.0</speed>
  <fix>3d</fix>
</trkpt>
<trkpt lat="33.810313" lon="-118.393867">
  <ele>-0.14</ele>
  <time>2026-09-01T01:12:43Z</time>
  <course>0.0</course>
  <speed>0.0</speed>
  <fix>3d</fix>
</trkpt>
<trkpt lat="33.810313" lon="-118.393867">
  <ele>0.0</ele>
  <time>2026-09-01T01:12:43Z</time>
  <course>180.05</course>
  <speed>0.0</speed>
  <fix>3d</fix>
</trkpt>
<trkpt lat="33.810313" lon="-118.393867">
  <ele>-0.14</ele>
  <time>2026-09-01T01:12:43Z</time>
  <course>0.0</course>
  <speed>0.0</speed>
  <fix>3d</fix>
</trkpt>
<trkpt lat="33.810313" lon="-118.393867">
  <ele>0.0</ele>
  <time>2026-09-01T01:12:43Z</time>
  <course>180.41</course>
  <speed>0.0</speed>
  <fix>3d</fix>
</trkpt>
<trkpt lat="33.810313" lon="-118.393867">
  <ele>-0.14</ele>
  <time>2026-09-01T01:12:43Z</time>
  <course>0.0</course>
  <speed>0.0</speed>
  <fix>3d</fix>
</trkpt>
<trkpt lat="33.810313" lon="-118.393867">
  <ele>0.0</ele>
  <time>2026-09-01T01:12:43Z</time>
  <course>180.76</course>
  <speed>0.0</speed>
  <fix>3d</fix>
</trkpt>
<trkpt lat="33.810313" lon="-118.393867">
  <ele>-0.14</ele>
  <time>2026-09-01T01:12:43Z</time>
  <course>0.0</course>
  <speed>0.0</speed>
  <fix>3d</fix>
</trkpt>
<trkpt lat="33.810313" lon="-118.393867">
  <ele>0.0</ele>
  <time>2026-09-01T01:12:43Z</time>
  <course>181.1</course>
  <speed>0.0</speed>
  <fix>3d</fix>
</trkpt>
<trkpt lat="33.810313" lon="-118.393867">
  <ele>-0.13</ele>
  <time>2026-09-01T01:12:43Z</time>
  <course>0.0</course>
  <speed>0.0</speed>
  <fix>3d</fix>
</trkpt>
<trkpt lat="33.810313" lon="-118.393867">
  <ele>0.0</ele>
  <time>2026-09-01T01:12:43Z</time>
  <course>181.43</course>
  <speed>0.0</speed>
  <fix>3d</fix>
</trkpt>
<trkpt lat="33.810313" lon="-118.393867">
  <ele>-0.13</ele>
  <time>2026-09-01T01:12:43Z</time>
  <course>0.0</course>
  <speed>0.0</speed>
  <fix>3d</fix>
</trkpt>
<trkpt lat="33.810313" lon="-118.393867">
  <ele>0.0</ele>
  <time>2026-09-01T01:12:43Z</time>
  <course>181.75</course>
  <speed>0.0</speed>
  <fix>3d</fix>
</trkpt>
<trkpt lat="33.810313" lon="-118.393867">
  <ele>-0.12</ele>
  <time>2026-09-01T01:12:43Z</time>
  <course>0.0</course>
  <speed>0.0</speed>
  <fix>3d</fix>
</trkpt>
<trkpt lat="33.810313" lon="-118.393867">
  <ele>0.0</ele>
  <time>2026-09-01T01:12:43Z</time>
  <course>182.05</course>
  <speed>0.0</speed>
  <fix>3d</fix>
</trkpt>
<trkpt lat="33.810313" lon="-118.393867">
  <ele>-0.12</ele>
  <time>2026-09-01T01:12:43Z</time>
  <course>0.0</course>
  <speed>0.0</speed>
  <fix>3d</fix>
</trkpt>
<trkpt lat="33.810313" lon="-118.393867">
  <ele>0.0</ele>
  <time>2026-09-01T01:12:43Z</time>
  <course>182.35</course>
  <speed>0.0</speed>
  <fix>3d</fix>
</trkpt>
<trkpt lat="33.810313" lon="-118.393867">
  <ele>-0.12</ele>
  <time>2026-09-01T01:12:43Z</time>
  <course>0.0</course>
  <speed>0.0</speed>
  <fix>3d</fix>
</trkpt>
<trkpt lat="33.810313" lon="-118.393867">
  <ele>0.0</ele>
  <time>2026-09-01T01:12:43Z</time>
  <course>182.63</course>
  <speed>0.0</speed>
  <fix>3d</fix>
</trkpt>
<trkpt lat="33.810313" lon="-118.393867">
  <ele>-0.12</ele>
  <time>2026-09-01T01:12:43Z</time>
  <course>0.0</course>
  <speed>0.0</speed>
  <fix>3d</fix>
</trkpt>
<trkpt lat="33.810313" lon="-118.393867">
  <ele>0.0</ele>
  <time>2026-09-01T01:12:43Z</time>
  <course>182.9</course>
  <speed>0.0</speed>
  <fix>3d</fix>
</trkpt>
<trkpt lat="33.810313" lon="-118.393867">
  <ele>-0.11</ele>
  <time>2026-09-01T01:12:43Z</time>
  <course>0.0</course>
  <speed>0.0</speed>
  <fix>3d</fix>
</trkpt>
<trkpt lat="33.810313" lon="-118.393867">
  <ele>0.0</ele>
  <time>2026-09-01T01:12:43Z</time>
  <course>183.16</course>
  <speed>0.0</speed>
  <fix>3d</fix>
</trkpt>
<trkpt lat="33.810313" lon="-118.393867">
  <ele>-0.11</ele>
  <time>2026-09-01T01:12:43Z</time>
  <course>0.0</course>
  <speed>0.0</speed>
  <fix>3d</fix>
</trkpt>
<trkpt lat="33.810313" lon="-118.393867">
  <ele>0.0</ele>
  <time>2026-09-01T01:12:43Z</time>
  <course>183.41</course>
  <speed>0.0</speed>
  <fix>3d</fix>
</trkpt>
<trkpt lat="33.810313" lon="-118.393867">
  <ele>-0.11</ele>
  <time>2026-09-01T01:12:43Z</time>
  <course>0.0</course>
  <speed>0.0</speed>
  <fix>3d</fix>
</trkpt>
<trkpt lat="33.810313" lon="-118.393867">
  <ele>0.0</ele>
  <time>2026-09-01T01:12:43Z</time>
  <course>183.65</course>
  <speed>0.0</speed>
  <fix>3d</fix>
</trkpt>
<trkpt lat="33.810313" lon="-118.393867">
  <ele>-0.11</ele>
  <time>2026-09-01T01:12:43Z</time>
  <course>0.0</course>
  <speed>0.0</speed>
  <fix>3d</fix>
</trkpt>
<trkpt lat="33.810313" lon="-118.393867">
  <ele>0.0</ele>
  <time>2026-09-01T01:12:43Z</time>
  <course>183.88</course>
  <speed>0.0</speed>
  <fix>3d</fix>
</trkpt>
<trkpt lat="33.810313" lon="-118.393867">
  <ele>-0.12</ele>
  <time>2026-09-01T01:12:43Z</time>
  <course>0.0</course>
  <speed>0.0</speed>
  <fix>3d</fix>
</trkpt>
<trkpt lat="33.810313" lon="-118.393867">
  <ele>0.0</ele>
  <time>2026-09-01T01:12:43Z</time>
  <course>184.11</course>
  <speed>0.0</speed>
  <fix>3d</fix>
</trkpt>
<trkpt lat="33.810313" lon="-118.393867">
  <ele>-0.12</ele>
  <time>2026-09-01T01:12:43Z</time>
  <course>0.0</course>
  <speed>0.0</speed>
  <fix>3d</fix>
</trkpt>
<trkpt lat="33.810313" lon="-118.393867">
  <ele>0.0</ele>
  <time>2026-09-01T01:12:43Z</time>
  <course>184.32</course>
  <speed>0.0</speed>
  <fix>3d</fix>
</trkpt>
<trkpt lat="33.810313" lon="-118.393867">
  <ele>-0.13</ele>
  <time>2026-09-01T01:12:43Z</time>
  <course>0.0</course>
  <speed>0.0</speed>
  <fix>3d</fix>
</trkpt>
<trkpt lat="33.810313" lon="-118.393867">
  <ele>0.0</ele>
  <time>2026-09-01T01:12:43Z</time>
  <course>184.52</course>
  <speed>0.0</speed>
  <fix>3d</fix>
</trkpt>
<trkpt lat="33.810313" lon="-118.393867">
  <ele>-0.13</ele>
  <time>2026-09-01T01:12:43Z</time>
  <course>0.0</course>
  <speed>0.0</speed>
  <fix>3d</fix>
</trkpt>
<trkpt lat="33.810313" lon="-118.393867">
  <ele>0.0</ele>
  <time>2026-09-01T01:12:43Z</time>
  <course>184.72</course>
  <speed>0.0</speed>
  <fix>3d</fix>
</trkpt>
<trkpt lat="33.810313" lon="-118.393867">
  <ele>-0.13</ele>
  <time>2026-09-01T01:12:43Z</time>
  <course>0.0</course>
  <speed>0.0</speed>
  <fix>3d</fix>
</trkpt>
<trkpt lat="33.810313" lon="-118.393867">
  <ele>0.0</ele>
  <time>2026-09-01T01:12:43Z</time>
  <course>184.91</course>
  <speed>0.0</speed>
  <fix>3d</fix>
</trkpt>
<trkpt lat="33.810313" lon="-118.393867">
  <ele>-0.13</ele>
  <time>2026-09-01T01:12:43Z</time>
  <course>0.0</course>
  <speed>0.0</speed>
  <fix>3d</fix>
</trkpt>
<trkpt lat="33.810313" lon="-118.393867">
  <ele>0.0</ele>
  <time>2026-09-01T01:12:43Z</time>
  <course>185.09</course>
  <speed>0.0</speed>
  <fix>3d</fix>
</trkpt>
<trkpt lat="33.810313" lon="-118.393867">
  <ele>-0.14</ele>
  <time>2026-09-01T01:12:43Z</time>
  <course>0.0</course>
  <speed>0.0</speed>
  <fix>3d</fix>
</trkpt>
<trkpt lat="33.810313" lon="-118.393867">
  <ele>0.0</ele>
  <time>2026-09-01T01:12:43Z</time>
  <course>185.26</course>
  <speed>0.0</speed>
  <fix>3d</fix>
</trkpt>
<trkpt lat="33.810313" lon="-118.393867">
  <ele>-0.14</ele>
  <time>2026-09-01T01:12:43Z</time>
  <course>0.0</course>
  <speed>0.0</speed>
  <fix>3d</fix>
</trkpt>
<trkpt lat="33.810313" lon="-118.393867">
  <ele>0.0</ele>
  <time>2026-09-01T01:12:43Z</time>
  <course>185.42</course>
  <speed>0.0</speed>
  <fix>3d</fix>
</trkpt>
<trkpt lat="33.810313" lon="-118.393867">
  <ele>-0.13</ele>
  <time>2026-09-01T01:12:43Z</time>
  <course>0.0</course>
  <speed>0.0</speed>
  <fix>3d</fix>
</trkpt>
<trkpt lat="33.810313" lon="-118.393867">
  <ele>0.0</ele>
  <time>2026-09-01T01:12:43Z</time>
  <course>185.58</course>
  <speed>0.0</speed>
  <fix>3d</fix>
</trkpt>
<trkpt lat="33.810313" lon="-118.393867">
  <ele>-0.13</ele>
  <time>2026-09-01T01:12:43Z</time>
  <course>0.0</course>
  <speed>0.0</speed>
  <fix>3d</fix>
</trkpt>
<trkpt lat="33.810313" lon="-118.393867">
  <ele>0.0</ele>
  <time>2026-09-01T01:12:43Z</time>
  <course>185.73</course>
  <speed>0.0</speed>
  <fix>3d</fix>
</trkpt>
<trkpt lat="33.810313" lon="-118.393867">
  <ele>-0.13</ele>
  <time>2026-09-01T01:12:43Z</time>
  <course>0.0</course>
  <speed>0.0</speed>
  <fix>3d</fix>
</trkpt>
<trkpt lat="33.810313" lon="-118.393867">
  <ele>0.0</ele>
  <time>2026-09-01T01:12:43Z</time>
  <course>185.87</course>
  <speed>0.0</speed>
  <fix>3d</fix>
</trkpt>
<trkpt lat="33.810313" lon="-118.393867">
  <ele>-0.13</ele>
  <time>2026-09-01T01:12:43Z</time>
  <course>0.0</course>
  <speed>0.0</speed>
  <fix>3d</fix>
</trkpt>
<trkpt lat="33.810313" lon="-118.393867">
  <ele>0.0</ele>
  <time>2026-09-01T01:12:43Z</time>
  <course>186.01</course>
  <speed>0.0</speed>
  <fix>3d</fix>
</trkpt>
<trkpt lat="33.810313" lon="-118.393867">
  <ele>-0.12</ele>
  <time>2026-09-01T01:12:43Z</time>
  <course>0.0</course>
  <speed>0.0</speed>
  <fix>3d</fix>
</trkpt>
<trkpt lat="33.810313" lon="-118.393867">
  <ele>0.0</ele>
  <time>2026-09-01T01:12:43Z</time>
  <course>186.14</course>
  <speed>0.0</speed>
  <fix>3d</fix>
</trkpt>
<trkpt lat="33.810313" lon="-118.393867">
  <ele>-0.12</ele>
  <time>2026-09-01T01:12:43Z</time>
  <course>0.0</course>
  <speed>0.0</speed>
  <fix>3d</fix>
</trkpt>
<trkpt lat="33.810313" lon="-118.393867">
  <ele>0.0</ele>
  <time>2026-09-01T01:12:43Z</time>
  <course>186.27</course>
  <speed>0.0</speed>
  <fix>3d</fix>
</trkpt>
<trkpt lat="33.810313" lon="-118.393867">
  <ele>-0.12</ele>
  <time>2026-09-01T01:12:43Z</time>
  <course>0.0</course>
  <speed>0.0</speed>
  <fix>3d</fix>
</trkpt>
<trkpt lat="33.810313" lon="-118.393867">
  <ele>0.0</ele>
  <time>2026-09-01T01:12:43Z</time>
  <course>186.39</course>
  <speed>0.0</speed>
  <fix>3d</fix>
</trkpt>
<trkpt lat="33.810313" lon="-118.393867">
  <ele>-0.12</ele>
  <time>2026-09-01T01:12:43Z</time>
  <course>0.0</course>
  <speed>0.0</speed>
  <fix>3d</fix>
</trkpt>
<trkpt lat="33.810313" lon="-118.393867">
  <ele>0.0</ele>
  <time>2026-09-01T01:12:43Z</time>
  <course>186.5</course>
  <speed>0.0</speed>
  <fix>3d</fix>
</trkpt>
<trkpt lat="33.810313" lon="-118.393867">
  <ele>-0.12</ele>
  <time>2026-09-01T01:12:43Z</time>
  <course>0.0</course>
  <speed>0.0</speed>
  <fix>3d</fix>
</trkpt>
<trkpt lat="33.810313" lon="-118.393867">
  <ele>0.0</ele>
  <time>2026-09-01T01:12:43Z</time>
  <course>186.61</course>
  <speed>0.0</speed>
  <fix>3d</fix>
</trkpt>
<trkpt lat="33.810313" lon="-118.393867">
  <ele>-0.12</ele>
  <time>2026-09-01T01:12:43Z</time>
  <course>0.0</course>
  <speed>0.0</speed>
  <fix>3d</fix>
</trkpt>
<trkpt lat="33.810313" lon="-118.393867">
  <ele>0.0</ele>
  <time>2026-09-01T01:12:43Z</time>
  <course>186.72</course>
  <speed>0.0</speed>
  <fix>3d</fix>
</trkpt>
<trkpt lat="33.810313" lon="-118.393867">
  <ele>-0.12</ele>
  <time>2026-09-01T01:12:43Z</time>
  <course>0.0</course>
  <speed>0.0</speed>
  <fix>3d</fix>
</trkpt>
<trkpt lat="33.810313" lon="-118.393867">
  <ele>0.0</ele>
  <time>2026-09-01T01:12:43Z</time>
  <course>186.82</course>
  <speed>0.0</speed>
  <fix>3d</fix>
</trkpt>
<trkpt lat="33.810313" lon="-118.393867">
  <ele>-0.12</ele>
  <time>2026-09-01T01:12:43Z</time>
  <course>0.0</course>
  <speed>0.0</speed>
  <fix>3d</fix>
</trkpt>
<trkpt lat="33.810313" lon="-118.393867">
  <ele>0.0</ele>
  <time>2026-09-01T01:12:43Z</time>
  <course>186.91</course>
  <speed>0.0</speed>
  <fix>3d</fix>
</trkpt>
<trkpt lat="33.810313" lon="-118.393867">
  <ele>-0.12</ele>
  <time>2026-09-01T01:12:43Z</time>
  <course>0.0</course>
  <speed>0.0</speed>
  <fix>3d</fix>
</trkpt>
<trkpt lat="33.810313" lon="-118.393867">
  <ele>0.0</ele>
  <time>2026-09-01T01:12:43Z</time>
  <course>187.0</course>
  <speed>0.0</speed>
  <fix>3d</fix>
</trkpt>
<trkpt lat="33.810313" lon="-118.393867">
  <ele>-0.12</ele>
  <time>2026-09-01T01:12:43Z</time>
  <course>0.0</course>
  <speed>0.0</speed>
  <fix>3d</fix>
</trkpt>
<trkpt lat="33.810313" lon="-118.393867">
  <ele>0.0</ele>
  <time>2026-09-01T01:12:43Z</time>
  <course>187.09</course>
  <speed>0.0</speed>
  <fix>3d</fix>
</trkpt>
<trkpt lat="33.810313" lon="-118.393867">
  <ele>-0.13</ele>
  <time>2026-09-01T01:12:43Z</time>
  <course>0.0</course>
  <speed>0.0</speed>
  <fix>3d</fix>
</trkpt>
<trkpt lat="33.810313" lon="-118.393867">
  <ele>0.0</ele>
  <time>2026-09-01T01:12:43Z</time>
  <course>187.17</course>
  <speed>0.0</speed>
  <fix>3d</fix>
</trkpt>
<trkpt lat="33.810313" lon="-118.393867">
  <ele>-0.13</ele>
  <time>2026-09-01T01:12:43Z</time>
  <course>0.0</course>
  <speed>0.0</speed>
  <fix>3d</fix>
</trkpt>
<trkpt lat="33.810313" lon="-118.393867">
  <ele>0.0</ele>
  <time>2026-09-01T01:12:43Z</time>
  <course>187.25</course>
  <speed>0.0</speed>
  <fix>3d</fix>
</trkpt>
<trkpt lat="33.810313" lon="-118.393867">
  <ele>-0.13</ele>
  <time>2026-09-01T01:12:43Z</time>
  <course>0.0</course>
  <speed>0.0</speed>
  <fix>3d</fix>
</trkpt>
<trkpt lat="33.810313" lon="-118.393867">
  <ele>0.0</ele>
  <time>2026-09-01T01:12:43Z</time>
  <course>187.33</course>
  <speed>0.0</speed>
  <fix>3d</fix>
</trkpt>
<trkpt lat="33.810313" lon="-118.393867">
  <ele>-0.13</ele>
  <time>2026-09-01T01:12:43Z</time>
  <course>0.0</course>
  <speed>0.0</speed>
  <fix>3d</fix>
</trkpt>
<trkpt lat="33.810313" lon="-118.393867">
  <ele>0.0</ele>
  <time>2026-09-01T01:12:43Z</time>
  <course>187.4</course>
  <speed>0.0</speed>
  <fix>3d</fix>
</trkpt>
<trkpt lat="33.810313" lon="-118.393867">
  <ele>-0.13</ele>
  <time>2026-09-01T01:12:43Z</time>
  <course>0.0</course>
  <speed>0.0</speed>
  <fix>3d</fix>
</trkpt>
<trkpt lat="33.810313" lon="-118.393867">
  <ele>0.0</ele>
  <time>2026-09-01T01:12:43Z</time>
  <course>187.47</course>
  <speed>0.0</speed>
  <fix>3d</fix>
</trkpt>
<trkpt lat="33.810313" lon="-118.393867">
  <ele>-0.13</ele>
  <time>2026-09-01T01:12:43Z</time>
  <course>0.0</course>
  <speed>0.0</speed>
  <fix>3d</fix>
</trkpt>
<trkpt lat="33.810313" lon="-118.393867">
  <ele>0.0</ele>
  <time>2026-09-01T01:12:43Z</time>
  <course>187.53</course>
  <speed>0.0</speed>
  <fix>3d</fix>
</trkpt>
<trkpt lat="33.810313" lon="-118.393867">
  <ele>-0.13</ele>
  <time>2026-09-01T01:12:43Z</time>
  <course>0.0</course>
  <speed>0.0</speed>
  <fix>3d</fix>
</trkpt>
<trkpt lat="33.810313" lon="-118.393867">
  <ele>0.0</ele>
  <time>2026-09-01T01:12:43Z</time>
  <course>187.59</course>
  <speed>0.0</speed>
  <fix>3d</fix>
</trkpt>
<trkpt lat="33.810313" lon="-118.393867">
  <ele>-0.13</ele>
  <time>2026-09-01T01:12:43Z</time>
  <course>0.0</course>
  <speed>0.0</speed>
  <fix>3d</fix>
</trkpt>
<trkpt lat="33.810313" lon="-118.393867">
  <ele>0.0</ele>
  <time>2026-09-01T01:12:43Z</time>
  <course>187.65</course>
  <speed>0.0</speed>
  <fix>3d</fix>
</trkpt>
<trkpt lat="33.810313" lon="-118.393867">
  <ele>-0.12</ele>
  <time>2026-09-01T01:12:43Z</time>
  <course>0.0</course>
  <speed>0.0</speed>
  <fix>3d</fix>
</trkpt>
<trkpt lat="33.810313" lon="-118.393867">
  <ele>0.0</ele>
  <time>2026-09-01T01:12:43Z</time>
  <course>187.71</course>
  <speed>0.0</speed>
  <fix>3d</fix>
</trkpt>
<trkpt lat="33.810313" lon="-118.393867">
  <ele>-0.12</ele>
  <time>2026-09-01T01:12:43Z</time>
  <course>0.0</course>
  <speed>0.0</speed>
  <fix>3d</fix>
</trkpt>
<trkpt lat="33.810313" lon="-118.393867">
  <ele>0.0</ele>
  <time>2026-09-01T01:12:43Z</time>
  <course>187.76</course>
  <speed>0.0</speed>
  <fix>3d</fix>
</trkpt>
<trkpt lat="33.810313" lon="-118.393867">
  <ele>-0.12</ele>
  <time>2026-09-01T01:12:43Z</time>
  <course>0.0</course>
  <speed>0.0</speed>
  <fix>3d</fix>
</trkpt>
<trkpt lat="33.810313" lon="-118.393867">
  <ele>0.0</ele>
  <time>2026-09-01T01:12:43Z</time>
  <course>187.81</course>
  <speed>0.0</speed>
  <fix>3d</fix>
</trkpt>
<trkpt lat="33.810313" lon="-118.393867">
  <ele>-0.12</ele>
  <time>2026-09-01T01:12:43Z</time>
  <course>0.0</course>
  <speed>0.0</speed>
  <fix>3d</fix>
</trkpt>
<trkpt lat="33.810313" lon="-118.393867">
  <ele>0.0</ele>
  <time>2026-09-01T01:12:43Z</time>
  <course>187.86</course>
  <speed>0.0</speed>
  <fix>3d</fix>
</trkpt>
<trkpt lat="33.810313" lon="-118.393867">
  <ele>-0.12</ele>
  <time>2026-09-01T01:12:43Z</time>
  <course>0.0</course>
  <speed>0.0</speed>
  <fix>3d</fix>
</trkpt>
<trkpt lat="33.810313" lon="-118.393867">
  <ele>0.0</ele>
  <time>2026-09-01T01:12:43Z</time>
  <course>187.91</course>
  <speed>0.0</speed>
  <fix>3d</fix>
</trkpt>
<trkpt lat="33.810313" lon="-118.393867">
  <ele>-0.12</ele>
  <time>2026-09-01T01:12:43Z</time>
  <course>0.0</course>
  <speed>0.0</speed>
  <fix>3d</fix>
</trkpt>
<trkpt lat="33.810313" lon="-118.393867">
  <ele>0.0</ele>
  <time>2026-09-01T01:12:43Z</time>
  <course>187.95</course>
  <speed>0.0</speed>
  <fix>3d</fix>
</trkpt>
<trkpt lat="33.810313" lon="-118.393867">
  <ele>-0.12</ele>
  <time>2026-09-01T01:12:43Z</time>
  <course>0.0</course>
  <speed>0.0</speed>
  <fix>3d</fix>
</trkpt>
<trkpt lat="33.810313" lon="-118.393867">
  <ele>0.0</ele>
  <time>2026-09-01T01:12:43Z</time>
  <course>187.99</course>
  <speed>0.0</speed>
  <fix>3d</fix>
</trkpt>
<trkpt lat="33.810313" lon="-118.393867">
  <ele>-0.12</ele>
  <time>2026-09-01T01:12:43Z</time>
  <course>0.0</course>
  <speed>0.0</speed>
  <fix>3d</fix>
</trkpt>
<trkpt lat="33.810313" lon="-118.393867">
  <ele>0.0</ele>
  <time>2026-09-01T01:12:43Z</time>
  <course>188.03</course>
  <speed>0.0</speed>
  <fix>3d</fix>
</trkpt>
<trkpt lat="33.810313" lon="-118.393867">
  <ele>-0.12</ele>
  <time>2026-09-01T01:12:43Z</time>
  <course>0.0</course>
  <speed>0.0</speed>
  <fix>3d</fix>
</trkpt>
<trkpt lat="33.810313" lon="-118.393867">
  <ele>0.0</ele>
  <time>2026-09-01T01:12:43Z</time>
  <course>188.07</course>
  <speed>0.0</speed>
  <fix>3d</fix>
</trkpt>
<trkpt lat="33.810313" lon="-118.393867">
  <ele>-0.12</ele>
  <time>2026-09-01T01:12:43Z</time>
  <course>0.0</course>
  <speed>0.0</speed>
  <fix>3d</fix>
</trkpt>
<trkpt lat="33.810313" lon="-118.393867">
  <ele>0.0</ele>
  <time>2026-09-01T01:12:43Z</time>
  <course>188.1</course>
  <speed>0.0</speed>
  <fix>3d</fix>
</trkpt>
<trkpt lat="33.810313" lon="-118.393867">
  <ele>-0.13</ele>
  <time>2026-09-01T01:12:43Z</time>
  <course>0.0</course>
  <speed>0.0</speed>
  <fix>3d</fix>
</trkpt>
<trkpt lat="33.810313" lon="-118.393867">
  <ele>0.0</ele>
  <time>2026-09-01T01:12:43Z</time>
  <course>188.13</course>
  <speed>0.0</speed>
  <fix>3d</fix>
</trkpt>
<trkpt lat="33.810313" lon="-118.393867">
  <ele>-0.13</ele>
  <time>2026-09-01T01:12:43Z</time>
  <course>0.0</course>
  <speed>0.0</speed>
  <fix>3d</fix>
</trkpt>
<trkpt lat="33.810313" lon="-118.393867">
  <ele>0.0</ele>
  <time>2026-09-01T01:12:43Z</time>
  <course>188.17</course>
  <speed>0.0</speed>
  <fix>3d</fix>
</trkpt>
<trkpt lat="33.810313" lon="-118.393867">
  <ele>-0.13</ele>
  <time>2026-09-01T01:12:43Z</time>
  <course>0.0</course>
  <speed>0.0</speed>
  <fix>3d</fix>
</trkpt>
<trkpt lat="33.810313" lon="-118.393867">
  <ele>0.0</ele>
  <time>2026-09-01T01:12:43Z</time>
  <course>188.19</course>
  <speed>0.0</speed>
  <fix>3d</fix>
</trkpt>
<trkpt lat="33.810313" lon="-118.393867">
  <ele>-0.13</ele>
  <time>2026-09-01T01:12:43Z</time>
  <course>0.0</course>
  <speed>0.0</speed>
  <fix>3d</fix>
</trkpt>
<trkpt lat="33.810313" lon="-118.393867">
  <ele>0.0</ele>
  <time>2026-09-01T01:12:43Z</time>
  <course>188.22</course>
  <speed>0.0</speed>
  <fix>3d</fix>
</trkpt>
<trkpt lat="33.810313" lon="-118.393867">
  <ele>-0.13</ele>
  <time>2026-09-01T01:12:43Z</time>
  <course>0.0</course>
  <speed>0.0</speed>
  <fix>3d</fix>
</trkpt>
<trkpt lat="33.810313" lon="-118.393867">
  <ele>0.0</ele>
  <time>2026-09-01T01:12:43Z</time>
  <course>188.25</course>
  <speed>0.0</speed>
  <fix>3d</fix>
</trkpt>
<trkpt lat="33.810313" lon="-118.393867">
  <ele>-0.13</ele>
  <time>2026-09-01T01:12:43Z</time>
  <course>0.0</course>
  <speed>0.0</speed>
  <fix>3d</fix>
</trkpt>
<trkpt lat="33.810313" lon="-118.393867">
  <ele>0.0</ele>
  <time>2026-09-01T01:12:43Z</time>
  <course>188.27</course>
  <speed>0.0</speed>
  <fix>3d</fix>
</trkpt>
<trkpt lat="33.810313" lon="-118.393867">
  <ele>-0.12</ele>
  <time>2026-09-01T01:12:43Z</time>
  <course>0.0</course>
  <speed>0.0</speed>
  <fix>3d</fix>
</trkpt>
<trkpt lat="33.810313" lon="-118.393867">
  <ele>0.0</ele>
  <time>2026-09-01T01:12:43Z</time>
  <course>188.3</course>
  <speed>0.0</speed>
  <fix>3d</fix>
</trkpt>
<trkpt lat="33.810313" lon="-118.393867">
  <ele>-0.12</ele>
  <time>2026-09-01T01:12:43Z</time>
  <course>0.0</course>
  <speed>0.0</speed>
  <fix>3d</fix>
</trkpt>
<trkpt lat="33.810313" lon="-118.393867">
  <ele>0.0</ele>
  <time>2026-09-01T01:12:43Z</time>
  <course>188.32</course>
  <speed>0.0</speed>
  <fix>3d</fix>
</trkpt>
<trkpt lat="33.810313" lon="-118.393867">
  <ele>-0.12</ele>
  <time>2026-09-01T01:12:43Z</time>
  <course>0.0</course>
  <speed>0.0</speed>
  <fix>3d</fix>
</trkpt>
<trkpt lat="33.810313" lon="-118.393867">
  <ele>0.0</ele>
  <time>2026-09-01T01:12:43Z</time>
  <course>188.34</course>
  <speed>0.0</speed>
  <fix>3d</fix>
</trkpt>
<trkpt lat="33.810313" lon="-118.393867">
  <ele>-0.12</ele>
  <time>2026-09-01T01:12:43Z</time>
  <course>0.0</course>
  <speed>0.0</speed>
  <fix>3d</fix>
</trkpt>
<trkpt lat="33.810313" lon="-118.393867">
  <ele>0.0</ele>
  <time>2026-09-01T01:12:43Z</time>
  <course>188.36</course>
  <speed>0.0</speed>
  <fix>3d</fix>
</trkpt>
<trkpt lat="33.810313" lon="-118.393867">
  <ele>-0.12</ele>
  <time>2026-09-01T01:12:43Z</time>
  <course>0.0</course>
  <speed>0.0</speed>
  <fix>3d</fix>
</trkpt>
<trkpt lat="33.810313" lon="-118.393867">
  <ele>0.0</ele>
  <time>2026-09-01T01:12:43Z</time>
  <course>188.38</course>
  <speed>0.0</speed>
  <fix>3d</fix>
</trkpt>
<trkpt lat="33.810313" lon="-118.393867">
  <ele>-0.12</ele>
  <time>2026-09-01T01:12:43Z</time>
  <course>0.0</course>
  <speed>0.0</speed>
  <fix>3d</fix>
</trkpt>
<trkpt lat="33.810313" lon="-118.393867">
  <ele>0.0</ele>
  <time>2026-09-01T01:12:43Z</time>
  <course>188.39</course>
  <speed>0.0</speed>
  <fix>3d</fix>
</trkpt>
<trkpt lat="33.810313" lon="-118.393867">
  <ele>-0.12</ele>
  <time>2026-09-01T01:12:43Z</time>
  <course>0.0</course>
  <speed>0.0</speed>
  <fix>3d</fix>
</trkpt>
<trkpt lat="33.810313" lon="-118.393867">
  <ele>0.0</ele>
  <time>2026-09-01T01:12:43Z</time>
  <course>188.41</course>
  <speed>0.0</speed>
  <fix>3d</fix>
</trkpt>
<trkpt lat="33.810313" lon="-118.393867">
  <ele>-0.12</ele>
  <time>2026-09-01T01:12:43Z</time>
  <course>0.0</course>
  <speed>0.0</speed>
  <fix>3d</fix>
</trkpt>
<trkpt lat="33.810313" lon="-118.393867">
  <ele>0.0</ele>
  <time>2026-09-01T01:12:43Z</time>
  <course>188.43</course>
  <speed>0.0</speed>
  <fix>3d</fix>
</trkpt>
<trkpt lat="33.810313" lon="-118.393867">
  <ele>-0.12</ele>
  <time>2026-09-01T01:12:43Z</time>
  <course>0.0</course>
  <speed>0.0</speed>
  <fix>3d</fix>
</trkpt>
<trkpt lat="33.810313" lon="-118.393867">
  <ele>0.0</ele>
  <time>2026-09-01T01:12:43Z</time>
  <course>188.44</course>
  <speed>0.0</speed>
  <fix>3d</fix>
</trkpt>
<trkpt lat="33.810313" lon="-118.393867">
  <ele>-0.12</ele>
  <time>2026-09-01T01:12:43Z</time>
  <course>0.0</course>
  <speed>0.0</speed>
  <fix>3d</fix>
</trkpt>
<trkpt lat="33.810313" lon="-118.393867">
  <ele>0.0</ele>
  <time>2026-09-01T01:12:43Z</time>
  <course>188.45</course>
  <speed>0.0</speed>
  <fix>3d</fix>
</trkpt>
<trkpt lat="33.810313" lon="-118.393867">
  <ele>-0.13</ele>
  <time>2026-09-01T01:12:43Z</time>
  <course>0.0</course>
  <speed>0.0</speed>
  <fix>3d</fix>
</trkpt>
<trkpt lat="33.810313" lon="-118.393867">
  <ele>0.0</ele>
  <time>2026-09-01T01:12:43Z</time>
  <course>188.46</course>
  <speed>0.0</speed>
  <fix>3d</fix>
</trkpt>
<trkpt lat="33.810313" lon="-118.393867">
  <ele>-0.13</ele>
  <time>2026-09-01T01:12:43Z</time>
  <course>0.0</course>
  <speed>0.0</speed>
  <fix>3d</fix>
</trkpt>
<trkpt lat="33.810313" lon="-118.393867">
  <ele>0.0</ele>
  <time>2026-09-01T01:12:43Z</time>
  <course>188.48</course>
  <speed>0.0</speed>
  <fix>3d</fix>
</trkpt>
<trkpt lat="33.810313" lon="-118.393867">
  <ele>-0.13</ele>
  <time>2026-09-01T01:12:44Z</time>
  <course>0.0</course>
  <speed>0.0</speed>
  <fix>3d</fix>
</trkpt>
<trkpt lat="33.810313" lon="-118.393867">
  <ele>0.0</ele>
  <time>2026-09-01T01:12:44Z</time>
  <course>188.49</course>
  <speed>0.0</speed>
  <fix>3d</fix>
</trkpt>
<trkpt lat="33.810313" lon="-118.393867">
  <ele>-0.13</ele>
  <time>2026-09-01T01:12:44Z</time>
  <course>0.0</course>
  <speed>0.0</speed>
  <fix>3d</fix>
</trkpt>
<trkpt lat="33.810313" lon="-118.393867">
  <ele>0.0</ele>
  <time>2026-09-01T01:12:44Z</time>
  <course>188.49</course>
  <speed>0.0</speed>
  <fix>3d</fix>
</trkpt>
<trkpt lat="33.810313" lon="-118.393867">
  <ele>-0.13</ele>
  <time>2026-09-01T01:12:44Z</time>
  <course>0.0</course>
  <speed>0.0</speed>
  <fix>3d</fix>
</trkpt>
<trkpt lat="33.810313" lon="-118.393867">
  <ele>0.0</ele>
  <time>2026-09-01T01:12:44Z</time>
  <course>188.5</course>
  <speed>0.0</speed>
  <fix>3d</fix>
</trkpt>
<trkpt lat="33.810313" lon="-118.393867">
  <ele>-0.13</ele>
  <time>2026-09-01T01:12:44Z</time>
  <course>0.0</course>
  <speed>0.0</speed>
  <fix>3d</fix>
</trkpt>
<trkpt lat="33.810313" lon="-118.393867">
  <ele>0.0</ele>
  <time>2026-09-01T01:12:44Z</time>
  <course>188.51</course>
  <speed>0.0</speed>
  <fix>3d</fix>
</trkpt>
<trkpt lat="33.810313" lon="-118.393867">
  <ele>-0.12</ele>
  <time>2026-09-01T01:12:44Z</time>
  <course>0.0</course>
  <speed>0.0</speed>
  <fix>3d</fix>
</trkpt>
<trkpt lat="33.810313" lon="-118.393867">
  <ele>0.0</ele>
  <time>2026-09-01T01:12:44Z</time>
  <course>188.52</course>
  <speed>0.0</speed>
  <fix>3d</fix>
</trkpt>
<trkpt lat="33.810313" lon="-118.393867">
  <ele>-0.12</ele>
  <time>2026-09-01T01:12:44Z</time>
  <course>0.0</course>
  <speed>0.0</speed>
  <fix>3d</fix>
</trkpt>
<trkpt lat="33.810313" lon="-118.393867">
  <ele>0.0</ele>
  <time>2026-09-01T01:12:44Z</time>
  <course>188.53</course>
  <speed>0.0</speed>
  <fix>3d</fix>
</trkpt>
<trkpt lat="33.810313" lon="-118.393867">
  <ele>-0.12</ele>
  <time>2026-09-01T01:12:44Z</time>
  <course>0.0</course>
  <speed>0.0</speed>
  <fix>3d</fix>
</trkpt>
<trkpt lat="33.810313" lon="-118.393867">
  <ele>0.0</ele>
  <time>2026-09-01T01:12:44Z</time>
  <course>188.53</course>
  <speed>0.0</speed>
  <fix>3d</fix>
</trkpt>
<trkpt lat="33.810313" lon="-118.393867">
  <ele>-0.12</ele>
  <time>2026-09-01T01:12:44Z</time>
  <course>0.0</course>
  <speed>0.0</speed>
  <fix>3d</fix>
</trkpt>
<trkpt lat="33.810313" lon="-118.393867">
  <ele>0.0</ele>
  <time>2026-09-01T01:12:44Z</time>
  <course>188.54</course>
  <speed>0.0</speed>
  <fix>3d</fix>
</trkpt>
<trkpt lat="33.810313" lon="-118.393867">
  <ele>-0.12</ele>
  <time>2026-09-01T01:12:44Z</time>
  <course>0.0</course>
  <speed>0.0</speed>
  <fix>3d</fix>
</trkpt>
<trkpt lat="33.810313" lon="-118.393867">
  <ele>0.0</ele>
  <time>2026-09-01T01:12:44Z</time>
  <course>188.54</course>
  <speed>0.0</speed>
  <fix>3d</fix>
</trkpt>
<trkpt lat="33.810313" lon="-118.393867">
  <ele>-0.12</ele>
  <time>2026-09-01T01:12:44Z</time>
  <course>0.0</course>
  <speed>0.0</speed>
  <fix>3d</fix>
</trkpt>
<trkpt lat="33.810313" lon="-118.393867">
  <ele>0.0</ele>
  <time>2026-09-01T01:12:44Z</time>
  <course>188.54</course>
  <speed>0.0</speed>
  <fix>3d</fix>
</trkpt>
<trkpt lat="33.810313" lon="-118.393867">
  <ele>-0.12</ele>
  <time>2026-09-01T01:12:44Z</time>
  <course>0.0</course>
  <speed>0.0</speed>
  <fix>3d</fix>
</trkpt>
<trkpt lat="33.810313" lon="-118.393867">
  <ele>0.0</ele>
  <time>2026-09-01T01:12:44Z</time>
  <course>188.55</course>
  <speed>0.0</speed>
  <fix>3d</fix>
</trkpt>
<trkpt lat="33.810313" lon="-118.393867">
  <ele>-0.12</ele>
  <time>2026-09-01T01:12:44Z</time>
  <course>0.0</course>
  <speed>0.0</speed>
  <fix>3d</fix>
</trkpt>
<trkpt lat="33.810313" lon="-118.393867">
  <ele>0.0</ele>
  <time>2026-09-01T01:12:44Z</time>
  <course>188.55</course>
  <speed>0.0</speed>
  <fix>3d</fix>
</trkpt>
<trkpt lat="33.810313" lon="-118.393867">
  <ele>-0.12</ele>
  <time>2026-09-01T01:12:44Z</time>
  <course>0.0</course>
  <speed>0.0</speed>
  <fix>3d</fix>
</trkpt>
<trkpt lat="33.810313" lon="-118.393867">
  <ele>0.0</ele>
  <time>2026-09-01T01:12:44Z</time>
  <course>188.55</course>
  <speed>0.0</speed>
  <fix>3d</fix>
</trkpt>
<trkpt lat="33.810313" lon="-118.393867">
  <ele>-0.12</ele>
  <time>2026-09-01T01:12:44Z</time>
  <course>0.0</course>
  <speed>0.0</speed>
  <fix>3d</fix>
</trkpt>
<trkpt lat="33.810313" lon="-118.393867">
  <ele>-0.126</ele>
  <time>2026-09-01T01:12:44Z</time>
  <course>188.55</course>
  <speed>0.0</speed>
  <fix>3d</fix>
</trkpt>
<trkpt lat="33.810313" lon="-118.393867">
  <ele>-0.13</ele>
  <time>2026-09-01T01:12:44Z</time>
  <course>0.0</course>
  <speed>0.0</speed>
  <fix>3d</fix>
</trkpt>
<trkpt lat="33.810313" lon="-118.393867">
  <ele>-0.126</ele>
  <time>2026-09-01T01:12:44Z</time>
  <course>188.56</course>
  <speed>0.0</speed>
  <fix>3d</fix>
</trkpt>
<trkpt lat="33.810313" lon="-118.393867">
  <ele>-0.13</ele>
  <time>2026-09-01T01:12:44Z</time>
  <course>0.0</course>
  <speed>0.0</speed>
  <fix>3d</fix>
</trkpt>
<trkpt lat="33.810313" lon="-118.393867">
  <ele>-0.124</ele>
  <time>2026-09-01T01:12:44Z</time>
  <course>188.56</course>
  <speed>0.0</speed>
  <fix>3d</fix>
</trkpt>
<trkpt lat="33.810313" lon="-118.393867">
  <ele>-0.13</ele>
  <time>2026-09-01T01:12:44Z</time>
  <course>0.0</course>
  <speed>0.0</speed>
  <fix>3d</fix>
</trkpt>
<trkpt lat="33.810313" lon="-118.393867">
  <ele>-0.123</ele>
  <time>2026-09-01T01:12:44Z</time>
  <course>188.56</course>
  <speed>0.0</speed>
  <fix>3d</fix>
</trkpt>
<trkpt lat="33.810313" lon="-118.393867">
  <ele>-0.13</ele>
  <time>2026-09-01T01:12:44Z</time>
  <course>0.0</course>
  <speed>0.0</speed>
  <fix>3d</fix>
</trkpt>
<trkpt lat="33.810313" lon="-118.393867">
  <ele>-0.121</ele>
  <time>2026-09-01T01:12:44Z</time>
  <course>188.56</course>
  <speed>0.0</speed>
  <fix>3d</fix>
</trkpt>
<trkpt lat="33.810313" lon="-118.393867">
  <ele>-0.12</ele>
  <time>2026-09-01T01:12:44Z</time>
  <course>0.0</course>
  <speed>0.0</speed>
  <fix>3d</fix>
</trkpt>
<trkpt lat="33.810313" lon="-118.393867">
  <ele>-0.12</ele>
  <time>2026-09-01T01:12:44Z</time>
  <course>188.56</course>
  <speed>0.0</speed>
  <fix>3d</fix>
</trkpt>
<trkpt lat="33.810313" lon="-118.393867">
  <ele>-0.12</ele>
  <time>2026-09-01T01:12:44Z</time>
  <course>0.0</course>
  <speed>0.0</speed>
  <fix>3d</fix>
</trkpt>
<trkpt lat="33.810313" lon="-118.393867">
  <ele>-0.119</ele>
  <time>2026-09-01T01:12:44Z</time>
  <course>188.56</course>
  <speed>0.0</speed>
  <fix>3d</fix>
</trkpt>
<trkpt lat="33.810313" lon="-118.393867">
  <ele>-0.12</ele>
  <time>2026-09-01T01:12:44Z</time>
  <course>0.0</course>
  <speed>0.0</speed>
  <fix>3d</fix>
</trkpt>
<trkpt lat="33.810313" lon="-118.393867">
  <ele>-0.12</ele>
  <time>2026-09-01T01:12:44Z</time>
  <course>188.56</course>
  <speed>0.0</speed>
  <fix>3d</fix>
</trkpt>
<trkpt lat="33.810313" lon="-118.393867">
  <ele>-0.12</ele>
  <time>2026-09-01T01:12:44Z</time>
  <course>0.0</course>
  <speed>0.0</speed>
  <fix>3d</fix>
</trkpt>
<trkpt lat="33.810313" lon="-118.393867">
  <ele>-0.124</ele>
  <time>2026-09-01T01:12:44Z</time>
  <course>188.55</course>
  <speed>0.0</speed>
  <fix>3d</fix>
</trkpt>
<trkpt lat="33.810313" lon="-118.393867">
  <ele>-0.12</ele>
  <time>2026-09-01T01:12:44Z</time>
  <course>0.0</course>
  <speed>0.0</speed>
  <fix>3d</fix>
</trkpt>
<trkpt lat="33.810313" lon="-118.393867">
  <ele>-0.127</ele>
  <time>2026-09-01T01:12:44Z</time>
  <course>188.55</course>
  <speed>0.0</speed>
  <fix>3d</fix>
</trkpt>
<trkpt lat="33.810313" lon="-118.393867">
  <ele>-0.12</ele>
  <time>2026-09-01T01:12:44Z</time>
  <course>0.0</course>
  <speed>0.0</speed>
  <fix>3d</fix>
</trkpt>
<trkpt lat="33.810313" lon="-118.393867">
  <ele>-0.13</ele>
  <time>2026-09-01T01:12:44Z</time>
  <course>188.55</course>
  <speed>0.0</speed>
  <fix>3d</fix>
</trkpt>
<trkpt lat="33.810313" lon="-118.393867">
  <ele>-0.12</ele>
  <time>2026-09-01T01:12:44Z</time>
  <course>0.0</course>
  <speed>0.0</speed>
  <fix>3d</fix>
</trkpt>
<trkpt lat="33.810313" lon="-118.393867">
  <ele>-0.132</ele>
  <time>2026-09-01T01:12:44Z</time>
  <course>188.55</course>
  <speed>0.0</speed>
  <fix>3d</fix>
</trkpt>
<trkpt lat="33.810313" lon="-118.393867">
  <ele>-0.12</ele>
  <time>2026-09-01T01:12:44Z</time>
  <course>0.0</course>
  <speed>0.0</speed>
  <fix>3d</fix>
</trkpt>
<trkpt lat="33.810313" lon="-118.393867">
  <ele>-0.132</ele>
  <time>2026-09-01T01:12:44Z</time>
  <course>188.55</course>
  <speed>0.0</speed>
  <fix>3d</fix>
</trkpt>
<trkpt lat="33.810313" lon="-118.393867">
  <ele>-0.12</ele>
  <time>2026-09-01T01:12:44Z</time>
  <course>0.0</course>
  <speed>0.0</speed>
  <fix>3d</fix>
</trkpt>
<trkpt lat="33.810313" lon="-118.393867">
  <ele>-0.132</ele>
  <time>2026-09-01T01:12:44Z</time>
  <course>188.55</course>
  <speed>0.0</speed>
  <fix>3d</fix>
</trkpt>
<trkpt lat="33.810313" lon="-118.393867">
  <ele>-0.12</ele>
  <time>2026-09-01T01:12:44Z</time>
  <course>0.0</course>
  <speed>0.0</speed>
  <fix>3d</fix>
</trkpt>
<trkpt lat="33.810313" lon="-118.393867">
  <ele>-0.132</ele>
  <time>2026-09-01T01:12:44Z</time>
  <course>188.55</course>
  <speed>0.0</speed>
  <fix>3d</fix>
</trkpt>
<trkpt lat="33.810313" lon="-118.393867">
  <ele>-0.12</ele>
  <time>2026-09-01T01:12:44Z</time>
  <course>0.0</course>
  <speed>0.0</speed>
  <fix>3d</fix>
</trkpt>
<trkpt lat="33.810313" lon="-118.393867">
  <ele>-0.131</ele>
  <time>2026-09-01T01:12:44Z</time>
  <course>188.55</course>
  <speed>0.0</speed>
  <fix>3d</fix>
</trkpt>
<trkpt lat="33.810313" lon="-118.393867">
  <ele>-0.12</ele>
  <time>2026-09-01T01:12:44Z</time>
  <course>0.0</course>
  <speed>0.0</speed>
  <fix>3d</fix>
</trkpt>
<trkpt lat="33.810313" lon="-118.393867">
  <ele>-0.129</ele>
  <time>2026-09-01T01:12:44Z</time>
  <course>188.54</course>
  <speed>0.0</speed>
  <fix>3d</fix>
</trkpt>
<trkpt lat="33.810313" lon="-118.393867">
  <ele>-0.13</ele>
  <time>2026-09-01T01:12:44Z</time>
  <course>0.0</course>
  <speed>0.0</speed>
  <fix>3d</fix>
</trkpt>
<trkpt lat="33.810313" lon="-118.393867">
  <ele>-0.128</ele>
  <time>2026-09-01T01:12:44Z</time>
  <course>188.54</course>
  <speed>0.0</speed>
  <fix>3d</fix>
</trkpt>
<trkpt lat="33.810313" lon="-118.393867">
  <ele>-0.13</ele>
  <time>2026-09-01T01:12:44Z</time>
  <course>0.0</course>
  <speed>0.0</speed>
  <fix>3d</fix>
</trkpt>
<trkpt lat="33.810313" lon="-118.393867">
  <ele>-0.125</ele>
  <time>2026-09-01T01:12:44Z</time>
  <course>188.53</course>
  <speed>0.0</speed>
  <fix>3d</fix>
</trkpt>
<trkpt lat="33.810313" lon="-118.393867">
  <ele>-0.12</ele>
  <time>2026-09-01T01:12:44Z</time>
  <course>0.0</course>
  <speed>0.0</speed>
  <fix>3d</fix>
</trkpt>
<trkpt lat="33.810313" lon="-118.393867">
  <ele>-0.123</ele>
  <time>2026-09-01T01:12:44Z</time>
  <course>188.53</course>
  <speed>0.0</speed>
  <fix>3d</fix>
</trkpt>
<trkpt lat="33.810313" lon="-118.393867">
  <ele>-0.12</ele>
  <time>2026-09-01T01:12:44Z</time>
  <course>0.0</course>
  <speed>0.0</speed>
  <fix>3d</fix>
</trkpt>
<trkpt lat="33.810313" lon="-118.393867">
  <ele>-0.121</ele>
  <time>2026-09-01T01:12:44Z</time>
  <course>188.52</course>
  <speed>0.0</speed>
  <fix>3d</fix>
</trkpt>
<trkpt lat="33.810313" lon="-118.393867">
  <ele>-0.12</ele>
  <time>2026-09-01T01:12:44Z</time>
  <course>0.0</course>
  <speed>0.0</speed>
  <fix>3d</fix>
</trkpt>
<trkpt lat="33.810313" lon="-118.393867">
  <ele>-0.121</ele>
  <time>2026-09-01T01:12:44Z</time>
  <course>188.52</course>
  <speed>0.0</speed>
  <fix>3d</fix>
</trkpt>
<trkpt lat="33.810313" lon="-118.393867">
  <ele>-0.12</ele>
  <time>2026-09-01T01:12:44Z</time>
  <course>0.0</course>
  <speed>0.0</speed>
  <fix>3d</fix>
</trkpt>
<trkpt lat="33.810313" lon="-118.393867">
  <ele>-0.122</ele>
  <time>2026-09-01T01:12:44Z</time>
  <course>188.51</course>
  <speed>0.0</speed>
  <fix>3d</fix>
</trkpt>
<trkpt lat="33.810313" lon="-118.393867">
  <ele>-0.12</ele>
  <time>2026-09-01T01:12:44Z</time>
  <course>0.0</course>
  <speed>0.0</speed>
  <fix>3d</fix>
</trkpt>
<trkpt lat="33.810313" lon="-118.393867">
  <ele>-0.123</ele>
  <time>2026-09-01T01:12:44Z</time>
  <course>188.51</course>
  <speed>0.0</speed>
  <fix>3d</fix>
</trkpt>
<trkpt lat="33.810313" lon="-118.393867">
  <ele>-0.12</ele>
  <time>2026-09-01T01:12:44Z</time>
  <course>0.0</course>
  <speed>0.0</speed>
  <fix>3d</fix>
</trkpt>
<trkpt lat="33.810313" lon="-118.393867">
  <ele>-0.126</ele>
  <time>2026-09-01T01:12:44Z</time>
  <course>188.5</course>
  <speed>0.0</speed>
  <fix>3d</fix>
</trkpt>
<trkpt lat="33.810313" lon="-118.393867">
  <ele>-0.12</ele>
  <time>2026-09-01T01:12:44Z</time>
  <course>0.0</course>
  <speed>0.0</speed>
  <fix>3d</fix>
</trkpt>
<trkpt lat="33.810313" lon="-118.393867">
  <ele>-0.127</ele>
  <time>2026-09-01T01:12:44Z</time>
  <course>188.5</course>
  <speed>0.0</speed>
  <fix>3d</fix>
</trkpt>
<trkpt lat="33.810313" lon="-118.393867">
  <ele>-0.12</ele>
  <time>2026-09-01T01:12:44Z</time>
  <course>0.0</course>
  <speed>0.0</speed>
  <fix>3d</fix>
</trkpt>
<trkpt lat="33.810313" lon="-118.393867">
  <ele>-0.128</ele>
  <time>2026-09-01T01:12:44Z</time>
  <course>188.49</course>
  <speed>0.0</speed>
  <fix>3d</fix>
</trkpt>
<trkpt lat="33.810313" lon="-118.393867">
  <ele>-0.12</ele>
  <time>2026-09-01T01:12:44Z</time>
  <course>0.0</course>
  <speed>0.0</speed>
  <fix>3d</fix>
</trkpt>
<trkpt lat="33.810313" lon="-118.393867">
  <ele>-0.127</ele>
  <time>2026-09-01T01:12:44Z</time>
  <course>188.48</course>
  <speed>0.0</speed>
  <fix>3d</fix>
</trkpt>
<trkpt lat="33.810313" lon="-118.393867">
  <ele>-0.12</ele>
  <time>2026-09-01T01:12:44Z</time>
  <course>0.0</course>
  <speed>0.0</speed>
  <fix>3d</fix>
</trkpt>
<trkpt lat="33.810313" lon="-118.393867">
  <ele>-0.126</ele>
  <time>2026-09-01T01:12:44Z</time>
  <course>188.46</course>
  <speed>0.01</speed>
  <fix>3d</fix>
</trkpt>
<trkpt lat="33.810313" lon="-118.393867">
  <ele>-0.12</ele>
  <time>2026-09-01T01:12:44Z</time>
  <course>0.0</course>
  <speed>0.0</speed>
  <fix>3d</fix>
</trkpt>
<trkpt lat="33.810313" lon="-118.393867">
  <ele>-0.125</ele>
  <time>2026-09-01T01:12:44Z</time>
  <course>188.44</course>
  <speed>0.01</speed>
  <fix>3d</fix>
</trkpt>
<trkpt lat="33.810313" lon="-118.393867">
  <ele>-0.12</ele>
  <time>2026-09-01T01:12:44Z</time>
  <course>0.0</course>
  <speed>0.0</speed>
  <fix>3d</fix>
</trkpt>
<trkpt lat="33.810313" lon="-118.393867">
  <ele>-0.126</ele>
  <time>2026-09-01T01:12:44Z</time>
  <course>188.43</course>
  <speed>0.01</speed>
  <fix>3d</fix>
</trkpt>
<trkpt lat="33.810313" lon="-118.393867">
  <ele>-0.12</ele>
  <time>2026-09-01T01:12:44Z</time>
  <course>0.0</course>
  <speed>0.0</speed>
  <fix>3d</fix>
</trkpt>
<trkpt lat="33.810313" lon="-118.393867">
  <ele>-0.128</ele>
  <time>2026-09-01T01:12:44Z</time>
  <course>188.42</course>
  <speed>0.01</speed>
  <fix>3d</fix>
</trkpt>
<trkpt lat="33.810313" lon="-118.393867">
  <ele>-0.12</ele>
  <time>2026-09-01T01:12:44Z</time>
  <course>0.0</course>
  <speed>0.0</speed>
  <fix>3d</fix>
</trkpt>
<trkpt lat="33.810313" lon="-118.393867">
  <ele>-0.129</ele>
  <time>2026-09-01T01:12:44Z</time>
  <course>188.41</course>
  <speed>0.01</speed>
  <fix>3d</fix>
</trkpt>
<trkpt lat="33.810313" lon="-118.393867">
  <ele>-0.12</ele>
  <time>2026-09-01T01:12:44Z</time>
  <course>0.0</course>
  <speed>0.0</speed>
  <fix>3d</fix>
</trkpt>
<trkpt lat="33.810313" lon="-118.393867">
  <ele>-0.129</ele>
  <time>2026-09-01T01:12:44Z</time>
  <course>188.4</course>
  <speed>0.01</speed>
  <fix>3d</fix>
</trkpt>
<trkpt lat="33.810313" lon="-118.393867">
  <ele>-0.12</ele>
  <time>2026-09-01T01:12:44Z</time>
  <course>0.0</course>
  <speed>0.0</speed>
  <fix>3d</fix>
</trkpt>
<trkpt lat="33.810313" lon="-118.393867">
  <ele>-0.13</ele>
  <time>2026-09-01T01:12:44Z</time>
  <course>188.4</course>
  <speed>0.01414213562373095</speed>
  <fix>3d</fix>
</trkpt>
<trkpt lat="33.810313" lon="-118.393867">
  <ele>-0.12</ele>
  <time>2026-09-01T01:12:44Z</time>
  <course>0.0</course>
  <speed>0.0</speed>
  <fix>3d</fix>
</trkpt>
<trkpt lat="33.810313" lon="-118.393867">
  <ele>-0.13</ele>
  <time>2026-09-01T01:12:44Z</time>
  <course>188.39</course>
  <speed>0.01414213562373095</speed>
  <fix>3d</fix>
</trkpt>
<trkpt lat="33.810313" lon="-118.393867">
  <ele>-0.12</ele>
  <time>2026-09-01T01:12:44Z</time>
  <course>0.0</course>
  <speed>0.0</speed>
  <fix>3d</fix>
</trkpt>
<trkpt lat="33.810313" lon="-118.393867">
  <ele>-0.13</ele>
  <time>2026-09-01T01:12:44Z</time>
  <course>188.38</course>
  <speed>0.01414213562373095</speed>
  <fix>3d</fix>
</trkpt>
<trkpt lat="33.810313" lon="-118.393867">
  <ele>-0.12</ele>
  <time>2026-09-01T01:12:44Z</time>
  <course>0.0</course>
  <speed>0.0</speed>
  <fix>3d</fix>
</trkpt>
<trkpt lat="33.810313" lon="-118.393867">
  <ele>-0.129</ele>
  <time>2026-09-01T01:12:44Z</time>
  <course>188.37</course>
  <speed>0.01414213562373095</speed>
  <fix>3d</fix>
</trkpt>
<trkpt lat="33.810313" lon="-118.393867">
  <ele>-0.12</ele>
  <time>2026-09-01T01:12:44Z</time>
  <course>0.0</course>
  <speed>0.0</speed>
  <fix>3d</fix>
</trkpt>
<trkpt lat="33.810313" lon="-118.393867">
  <ele>-0.128</ele>
  <time>2026-09-01T01:12:44Z</time>
  <course>188.36</course>
  <speed>0.01414213562373095</speed>
  <fix>3d</fix>
</trkpt>
<trkpt lat="33.810313" lon="-118.393867">
  <ele>-0.12</ele>
  <time>2026-09-01T01:12:44Z</time>
  <course>0.0</course>
  <speed>0.0</speed>
  <fix>3d</fix>
</trkpt>
<trkpt lat="33.810313" lon="-118.393867">
  <ele>-0.126</ele>
  <time>2026-09-01T01:12:44Z</time>
  <course>188.36</course>
  <speed>0.01414213562373095</speed>
  <fix>3d</fix>
</trkpt>
<trkpt lat="33.810313" lon="-118.393867">
  <ele>-0.12</ele>
  <time>2026-09-01T01:12:44Z</time>
  <course>0.0</course>
  <speed>0.0</speed>
  <fix>3d</fix>
</trkpt>
<trkpt lat="33.810313" lon="-118.393867">
  <ele>-0.123</ele>
  <time>2026-09-01T01:12:44Z</time>
  <course>188.35</course>
  <speed>0.01414213562373095</speed>
  <fix>3d</fix>
</trkpt>
<trkpt lat="33.810313" lon="-118.393867">
  <ele>-0.12</ele>
  <time>2026-09-01T01:12:44Z</time>
  <course>0.0</course>
  <speed>0.0</speed>
  <fix>3d</fix>
</trkpt>
<trkpt lat="33.810313" lon="-118.393867">
  <ele>-0.122</ele>
  <time>2026-09-01T01:12:44Z</time>
  <course>188.34</course>
  <speed>0.01414213562373095</speed>
  <fix>3d</fix>
</trkpt>
<trkpt lat="33.810313" lon="-118.393867">
  <ele>-0.12</ele>
  <time>2026-09-01T01:12:44Z</time>
  <course>0.0</course>
  <speed>0.0</speed>
  <fix>3d</fix>
</trkpt>
<trkpt lat="33.810313" lon="-118.393867">
  <ele>-0.123</ele>
  <time>2026-09-01T01:12:44Z</time>
  <course>188.33</course>
  <speed>0.01414213562373095</speed>
  <fix>3d</fix>
</trkpt>
<trkpt lat="33.810313" lon="-118.393867">
  <ele>-0.12</ele>
  <time>2026-09-01T01:12:44Z</time>
  <course>0.0</course>
  <speed>0.0</speed>
  <fix>3d</fix>
</trkpt>
<trkpt lat="33.810313" lon="-118.393867">
  <ele>-0.125</ele>
  <time>2026-09-01T01:12:44Z</time>
  <course>188.33</course>
  <speed>0.01414213562373095</speed>
  <fix>3d</fix>
</trkpt>
<trkpt lat="33.810313" lon="-118.393867">
  <ele>-0.12</ele>
  <time>2026-09-01T01:12:44Z</time>
  <course>0.0</course>
  <speed>0.0</speed>
  <fix>3d</fix>
</trkpt>
<trkpt lat="33.810313" lon="-118.393867">
  <ele>-0.128</ele>
  <time>2026-09-01T01:12:44Z</time>
  <course>188.32</course>
  <speed>0.01414213562373095</speed>
  <fix>3d</fix>
</trkpt>
<trkpt lat="33.810313" lon="-118.393867">
  <ele>-0.12</ele>
  <time>2026-09-01T01:12:44Z</time>
  <course>0.0</course>
  <speed>0.0</speed>
  <fix>3d</fix>
</trkpt>
<trkpt lat="33.810313" lon="-118.393867">
  <ele>-0.132</ele>
  <time>2026-09-01T01:12:44Z</time>
  <course>188.31</course>
  <speed>0.01414213562373095</speed>
  <fix>3d</fix>
</trkpt>
<trkpt lat="33.810313" lon="-118.393867">
  <ele>-0.12</ele>
  <time>2026-09-01T01:12:44Z</time>
  <course>0.0</course>
  <speed>0.0</speed>
  <fix>3d</fix>
</trkpt>
<trkpt lat="33.810313" lon="-118.393867">
  <ele>-0.135</ele>
  <time>2026-09-01T01:12:44Z</time>
  <course>188.3</course>
  <speed>0.01414213562373095</speed>
  <fix>3d</fix>
</trkpt>
<trkpt lat="33.810313" lon="-118.393867">
  <ele>-0.12</ele>
  <time>2026-09-01T01:12:44Z</time>
  <course>0.0</course>
  <speed>0.0</speed>
  <fix>3d</fix>
</trkpt>
<trkpt lat="33.810313" lon="-118.393867">
  <ele>-0.135</ele>
  <time>2026-09-01T01:12:44Z</time>
  <course>188.3</course>
  <speed>0.01414213562373095</speed>
  <fix>3d</fix>
</trkpt>
<trkpt lat="33.810313" lon="-118.393867">
  <ele>-0.12</ele>
  <time>2026-09-01T01:12:44Z</time>
  <course>0.0</course>
  <speed>0.0</speed>
  <fix>3d</fix>
</trkpt>
<trkpt lat="33.810313" lon="-118.393867">
  <ele>-0.134</ele>
  <time>2026-09-01T01:12:44Z</time>
  <course>188.29</course>
  <speed>0.01414213562373095</speed>
  <fix>3d</fix>
</trkpt>
<trkpt lat="33.810313" lon="-118.393867">
  <ele>-0.12</ele>
  <time>2026-09-01T01:12:44Z</time>
  <course>0.0</course>
  <speed>0.0</speed>
  <fix>3d</fix>
</trkpt>
<trkpt lat="33.810313" lon="-118.393867">
  <ele>-0.132</ele>
  <time>2026-09-01T01:12:44Z</time>
  <course>188.28</course>
  <speed>0.01414213562373095</speed>
  <fix>3d</fix>
</trkpt>
<trkpt lat="33.810313" lon="-118.393867">
  <ele>-0.12</ele>
  <time>2026-09-01T01:12:44Z</time>
  <course>0.0</course>
  <speed>0.0</speed>
  <fix>3d</fix>
</trkpt>
<trkpt lat="33.810313" lon="-118.393867">
  <ele>-0.129</ele>
  <time>2026-09-01T01:12:44Z</time>
  <course>188.27</course>
  <speed>0.01414213562373095</speed>
  <fix>3d</fix>
</trkpt>
<trkpt lat="33.810313" lon="-118.393867">
  <ele>-0.12</ele>
  <time>2026-09-01T01:12:44Z</time>
  <course>0.0</course>
  <speed>0.0</speed>
  <fix>3d</fix>
</trkpt>
<trkpt lat="33.810313" lon="-118.393867">
  <ele>-0.127</ele>
  <time>2026-09-01T01:12:44Z</time>
  <course>188.26</course>
  <speed>0.01414213562373095</speed>
  <fix>3d</fix>
</trkpt>
<trkpt lat="33.810313" lon="-118.393867">
  <ele>-0.12</ele>
  <time>2026-09-01T01:12:44Z</time>
  <course>0.0</course>
  <speed>0.0</speed>
  <fix>3d</fix>
</trkpt>
<trkpt lat="33.810313" lon="-118.393867">
  <ele>-0.124</ele>
  <time>2026-09-01T01:12:44Z</time>
  <course>188.25</course>
  <speed>0.01414213562373095</speed>
  <fix>3d</fix>
</trkpt>
<trkpt lat="33.810313" lon="-118.393867">
  <ele>-0.12</ele>
  <time>2026-09-01T01:12:44Z</time>
  <course>0.0</course>
  <speed>0.0</speed>
  <fix>3d</fix>
</trkpt>
<trkpt lat="33.810313" lon="-118.393867">
  <ele>-0.123</ele>
  <time>2026-09-01T01:12:44Z</time>
  <course>188.25</course>
  <speed>0.01414213562373095</speed>
  <fix>3d</fix>
</trkpt>
<trkpt lat="33.810313" lon="-118.393867">
  <ele>-0.12</ele>
  <time>2026-09-01T01:12:44Z</time>
  <course>0.0</course>
  <speed>0.0</speed>
  <fix>3d</fix>
</trkpt>
<trkpt lat="33.810313" lon="-118.393867">
  <ele>-0.124</ele>
  <time>2026-09-01T01:12:44Z</time>
  <course>188.24</course>
  <speed>0.01414213562373095</speed>
  <fix>3d</fix>
</trkpt>
<trkpt lat="33.810313" lon="-118.393867">
  <ele>-0.12</ele>
  <time>2026-09-01T01:12:44Z</time>
  <course>0.0</course>
  <speed>0.0</speed>
  <fix>3d</fix>
</trkpt>
<trkpt lat="33.4368002" lon="-117.0859339">
  <ele>-0.11</ele>
  <time>2026-09-01T01:12:44Z</time>
  <course>0.0</course>
  <speed>0.0</speed>
  <fix>3d</fix>
</trkpt>
<trkpt lat="33.4368002" lon="-117.0859339">
  <ele>-0.11</ele>
  <time>2026-09-01T01:12:44Z</time>
  <course>0.0</course>
  <speed>0.0</speed>
  <fix>3d</fix>
</trkpt>
<trkpt lat="33.810313" lon="-118.393867">
  <ele>0.0</ele>
  <time>2026-09-01T01:12:44Z</time>
  <course>173.5</course>
  <speed>0.0</speed>
  <fix>3d</fix>
</trkpt>
<trkpt lat="33.810313" lon="-118.393867">
  <ele>-0.11</ele>
  <time>2026-09-01T01:12:44Z</time>
  <course>0.0</course>
  <speed>0.0</speed>
  <fix>3d</fix>
</trkpt>
<trkpt lat="33.810313" lon="-118.393867">
  <ele>0.0</ele>
  <time>2026-09-01T01:12:44Z</time>
  <course>173.61</course>
  <speed>0.0</speed>
  <fix>3d</fix>
</trkpt>
<trkpt lat="33.810313" lon="-118.393867">
  <ele>-0.11</ele>
  <time>2026-09-01T01:12:44Z</time>
  <course>0.0</course>
  <speed>0.0</speed>
  <fix>3d</fix>
</trkpt>
<trkpt lat="33.810313" lon="-118.393867">
  <ele>0.0</ele>
  <time>2026-09-01T01:12:44Z</time>
  <course>173.98</course>
  <speed>0.0</speed>
  <fix>3d</fix>
</trkpt>
<trkpt lat="33.810313" lon="-118.393867">
  <ele>-0.11</ele>
  <time>2026-09-01T01:12:44Z</time>
  <course>0.0</course>
  <speed>0.0</speed>
  <fix>3d</fix>
</trkpt>
<trkpt lat="33.810313" lon="-118.393867">
  <ele>0.0</ele>
  <time>2026-09-01T01:12:44Z</time>
  <course>174.51</course>
  <speed>0.0</speed>
  <fix>3d</fix>
</trkpt>
<trkpt lat="33.810313" lon="-118.393867">
  <ele>-0.11</ele>
  <time>2026-09-01T01:12:44Z</time>
  <course>0.0</course>
  <speed>0.0</speed>
  <fix>3d</fix>
</trkpt>
<trkpt lat="33.810313" lon="-118.393867">
  <ele>0.0</ele>
  <time>2026-09-01T01:12:44Z</time>
  <course>175.07</course>
  <speed>0.0</speed>
  <fix>3d</fix>
</trkpt>
<trkpt lat="33.810313" lon="-118.393867">
  <ele>-0.12</ele>
  <time>2026-09-01T01:12:44Z</time>
  <course>0.0</course>
  <speed>0.0</speed>
  <fix>3d</fix>
</trkpt>
<trkpt lat="33.810313" lon="-118.393867">
  <ele>0.0</ele>
  <time>2026-09-01T01:12:44Z</time>
  <course>175.61</course>
  <speed>0.0</speed>
  <fix>3d</fix>
</trkpt>
<trkpt lat="33.810313" lon="-118.393867">
  <ele>-0.12</ele>
  <time>2026-09-01T01:12:44Z</time>
  <course>0.0</course>
  <speed>0.0</speed>
  <fix>3d</fix>
</trkpt>
<trkpt lat="33.810313" lon="-118.393867">
  <ele>0.0</ele>
  <time>2026-09-01T01:12:44Z</time>
  <course>176.12</course>
  <speed>0.0</speed>
  <fix>3d</fix>
</trkpt>
<trkpt lat="33.810313" lon="-118.393867">
  <ele>-0.13</ele>
  <time>2026-09-01T01:12:44Z</time>
  <course>0.0</course>
  <speed>0.0</speed>
  <fix>3d</fix>
</trkpt>
<trkpt lat="33.810313" lon="-118.393867">
  <ele>0.0</ele>
  <time>2026-09-01T01:12:44Z</time>
  <course>176.6</course>
  <speed>0.0</speed>
  <fix>3d</fix>
</trkpt>
<trkpt lat="33.810313" lon="-118.393867">
  <ele>-0.13</ele>
  <time>2026-09-01T01:12:44Z</time>
  <course>0.0</course>
  <speed>0.0</speed>
  <fix>3d</fix>
</trkpt>
<trkpt lat="33.810313" lon="-118.393867">
  <ele>0.0</ele>
  <time>2026-09-01T01:12:44Z</time>
  <course>177.07</course>
  <speed>0.0</speed>
  <fix>3d</fix>
</trkpt>
<trkpt lat="33.810313" lon="-118.393867">
  <ele>-0.13</ele>
  <time>2026-09-01T01:12:44Z</time>
  <course>0.0</course>
  <speed>0.0</speed>
  <fix>3d</fix>
</trkpt>
<trkpt lat="33.810313" lon="-118.393867">
  <ele>0.0</ele>
  <time>2026-09-01T01:12:44Z</time>
  <course>177.53</course>
  <speed>0.0</speed>
  <fix>3d</fix>
</trkpt>
<trkpt lat="33.810313" lon="-118.393867">
  <ele>-0.13</ele>
  <time>2026-09-01T01:12:44Z</time>
  <course>0.0</course>
  <speed>0.0</speed>
  <fix>3d</fix>
</trkpt>
<trkpt lat="33.810313" lon="-118.393867">
  <ele>0.0</ele>
  <time>2026-09-01T01:12:44Z</time>
  <course>177.97</course>
  <speed>0.0</speed>
  <fix>3d</fix>
</trkpt>
<trkpt lat="33.810313" lon="-118.393867">
  <ele>-0.14</ele>
  <time>2026-09-01T01:12:44Z</time>
  <course>0.0</course>
  <speed>0.0</speed>
  <fix>3d</fix>
</trkpt>
<trkpt lat="33.810313" lon="-118.393867">
  <ele>0.0</ele>
  <time>2026-09-01T01:12:44Z</time>
  <course>178.4</course>
  <speed>0.0</speed>
  <fix>3d</fix>
</trkpt>
<trkpt lat="33.810313" lon="-118.393867">
  <ele>-0.14</ele>
  <time>2026-09-01T01:12:44Z</time>
  <course>0.0</course>
  <speed>0.0</speed>
  <fix>3d</fix>
</trkpt>
<trkpt lat="33.810313" lon="-118.393867">
  <ele>0.0</ele>
  <time>2026-09-01T01:12:44Z</time>
  <course>178.83</course>
  <speed>0.0</speed>
  <fix>3d</fix>
</trkpt>
<trkpt lat="33.810313" lon="-118.393867">
  <ele>-0.14</ele>
  <time>2026-09-01T01:12:44Z</time>
  <course>0.0</course>
  <speed>0.0</speed>
  <fix>3d</fix>
</trkpt>
<trkpt lat="33.810313" lon="-118.393867">
  <ele>0.0</ele>
  <time>2026-09-01T01:12:44Z</time>
  <course>179.23</course>
  <speed>0.0</speed>
  <fix>3d</fix>
</trkpt>
<trkpt lat="33.810313" lon="-118.393867">
  <ele>-0.14</ele>
  <time>2026-09-01T01:12:44Z</time>
  <course>0.0</course>
  <speed>0.0</speed>
  <fix>3d</fix>
</trkpt>
<trkpt lat="33.810313" lon="-118.393867">
  <ele>0.0</ele>
  <time>2026-09-01T01:12:44Z</time>
  <course>179.62</course>
  <speed>0.0</speed>
  <fix>3d</fix>
</trkpt>
<trkpt lat="33.810313" lon="-118.393867">
  <ele>-0.14</ele>
  <time>2026-09-01T01:12:44Z</time>
  <course>0.0</course>
  <speed>0.0</speed>
  <fix>3d</fix>
</trkpt>
<trkpt lat="33.810313" lon="-118.393867">
  <ele>0.0</ele>
  <time>2026-09-01T01:12:44Z</time>
  <course>180.01</course>
  <speed>0.0</speed>
  <fix>3d</fix>
</trkpt>
<trkpt lat="33.810313" lon="-118.393867">
  <ele>-0.14</ele>
  <time>2026-09-01T01:12:44Z</time>
  <course>0.0</course>
  <speed>0.0</speed>
  <fix>3d</fix>
</trkpt>
<trkpt lat="33.810313" lon="-118.393867">
  <ele>0.0</ele>
  <time>2026-09-01T01:12:44Z</time>
  <course>180.37</course>
  <speed>0.0</speed>
  <fix>3d</fix>
</trkpt>
<trkpt lat="33.810313" lon="-118.393867">
  <ele>-0.14</ele>
  <time>2026-09-01T01:12:44Z</time>
  <course>0.0</course>
  <speed>0.0</speed>
  <fix>3d</fix>
</trkpt>
<trkpt lat="33.810313" lon="-118.393867">
  <ele>0.0</ele>
  <time>2026-09-01T01:12:44Z</time>
  <course>180.73</course>
  <speed>0.0</speed>
  <fix>3d</fix>
</trkpt>
<trkpt lat="33.810313" lon="-118.393867">
  <ele>-0.14</ele>
  <time>2026-09-01T01:12:44Z</time>
  <course>0.0</course>
  <speed>0.0</speed>
  <fix>3d</fix>
</trkpt>
<trkpt lat="33.810313" lon="-118.393867">
  <ele>0.0</ele>
  <time>2026-09-01T01:12:44Z</time>
  <course>181.07</course>
  <speed>0.0</speed>
  <fix>3d</fix>
</trkpt>
<trkpt lat="33.810313" lon="-118.393867">
  <ele>-0.13</ele>
  <time>2026-09-01T01:12:44Z</time>
  <course>0.0</course>
  <speed>0.0</speed>
  <fix>3d</fix>
</trkpt>
<trkpt lat="33.810313" lon="-118.393867">
  <ele>0.0</ele>
  <time>2026-09-01T01:12:44Z</time>
  <course>181.4</course>
  <speed>0.0</speed>
  <fix>3d</fix>
</trkpt>
<trkpt lat="33.810313" lon="-118.393867">
  <ele>-0.13</ele>
  <time>2026-09-01T01:12:44Z</time>
  <course>0.0</course>
  <speed>0.0</speed>
  <fix>3d</fix>
</trkpt>
<trkpt lat="33.810313" lon="-118.393867">
  <ele>0.0</ele>
  <time>2026-09-01T01:12:44Z</time>
  <course>181.72</course>
  <speed>0.0</speed>
  <fix>3d</fix>
</trkpt>
<trkpt lat="33.810313" lon="-118.393867">
  <ele>-0.12</ele>
  <time>2026-09-01T01:12:44Z</time>
  <course>0.0</course>
  <speed>0.0</speed>
  <fix>3d</fix>
</trkpt>
<trkpt lat="33.810313" lon="-118.393867">
  <ele>0.0</ele>
  <time>2026-09-01T01:12:44Z</time>
  <course>182.02</course>
  <speed>0.0</speed>
  <fix>3d</fix>
</trkpt>
<trkpt lat="33.810313" lon="-118.393867">
  <ele>-0.12</ele>
  <time>2026-09-01T01:12:44Z</time>
  <course>0.0</course>
  <speed>0.0</speed>
  <fix>3d</fix>
</trkpt>
<trkpt lat="33.810313" lon="-118.393867">
  <ele>0.0</ele>
  <time>2026-09-01T01:12:44Z</time>
  <course>182.32</course>
  <speed>0.0</speed>
  <fix>3d</fix>
</trkpt>
<trkpt lat="33.810313" lon="-118.393867">
  <ele>-0.12</ele>
  <time>2026-09-01T01:12:44Z</time>
  <course>0.0</course>
  <speed>0.0</speed>
  <fix>3d</fix>
</trkpt>
<trkpt lat="33.810313" lon="-118.393867">
  <ele>0.0</ele>
  <time>2026-09-01T01:12:44Z</time>
  <course>182.6</course>
  <speed>0.0</speed>
  <fix>3d</fix>
</trkpt>
<trkpt lat="33.810313" lon="-118.393867">
  <ele>-0.12</ele>
  <time>2026-09-01T01:12:44Z</time>
  <course>0.0</course>
  <speed>0.0</speed>
  <fix>3d</fix>
</trkpt>
<trkpt lat="33.810313" lon="-118.393867">
  <ele>0.0</ele>
  <time>2026-09-01T01:12:44Z</time>
  <course>182.87</course>
  <speed>0.0</speed>
  <fix>3d</fix>
</trkpt>
<trkpt lat="33.810313" lon="-118.393867">
  <ele>-0.11</ele>
  <time>2026-09-01T01:12:44Z</time>
  <course>0.0</course>
  <speed>0.0</speed>
  <fix>3d</fix>
</trkpt>
<trkpt lat="33.810313" lon="-118.393867">
  <ele>0.0</ele>
  <time>2026-09-01T01:12:44Z</time>
  <course>183.14</course>
  <speed>0.0</speed>
  <fix>3d</fix>
</trkpt>
<trkpt lat="33.810313" lon="-118.393867">
  <ele>-0.11</ele>
  <time>2026-09-01T01:12:44Z</time>
  <course>0.0</course>
  <speed>0.0</speed>
  <fix>3d</fix>
</trkpt>
<trkpt lat="33.810313" lon="-118.393867">
  <ele>0.0</ele>
  <time>2026-09-01T01:12:44Z</time>
  <course>183.39</course>
  <speed>0.0</speed>
  <fix>3d</fix>
</trkpt>
<trkpt lat="33.810313" lon="-118.393867">
  <ele>-0.11</ele>
  <time>2026-09-01T01:12:44Z</time>
  <course>0.0</course>
  <speed>0.0</speed>
  <fix>3d</fix>
</trkpt>
<trkpt lat="33.810313" lon="-118.393867">
  <ele>0.0</ele>
  <time>2026-09-01T01:12:44Z</time>
  <course>183.63</course>
  <speed>0.0</speed>
  <fix>3d</fix>
</trkpt>
<trkpt lat="33.810313" lon="-118.393867">
  <ele>-0.11</ele>
  <time>2026-09-01T01:12:44Z</time>
  <course>0.0</course>
  <speed>0.0</speed>
  <fix>3d</fix>
</trkpt>
<trkpt lat="33.810313" lon="-118.393867">
  <ele>0.0</ele>
  <time>2026-09-01T01:12:44Z</time>
  <course>183.86</course>
  <speed>0.0</speed>
  <fix>3d</fix>
</trkpt>
<trkpt lat="33.810313" lon="-118.393867">
  <ele>-0.12</ele>
  <time>2026-09-01T01:12:44Z</time>
  <course>0.0</course>
  <speed>0.0</speed>
  <fix>3d</fix>
</trkpt>
<trkpt lat="33.810313" lon="-118.393867">
  <ele>0.0</ele>
  <time>2026-09-01T01:12:44Z</time>
  <course>184.08</course>
  <speed>0.0</speed>
  <fix>3d</fix>
</trkpt>
<trkpt lat="33.810313" lon="-118.393867">
  <ele>-0.12</ele>
  <time>2026-09-01T01:12:44Z</time>
  <course>0.0</course>
  <speed>0.0</speed>
  <fix>3d</fix>
</trkpt>
<trkpt lat="33.810313" lon="-118.393867">
  <ele>0.0</ele>
  <time>2026-09-01T01:12:44Z</time>
  <course>184.3</course>
  <speed>0.0</speed>
  <fix>3d</fix>
</trkpt>
<trkpt lat="33.810313" lon="-118.393867">
  <ele>-0.13</ele>
  <time>2026-09-01T01:12:44Z</time>
  <course>0.0</course>
  <speed>0.0</speed>
  <fix>3d</fix>
</trkpt>
<trkpt lat="33.810313" lon="-118.393867">
  <ele>0.0</ele>
  <time>2026-09-01T01:12:44Z</time>
  <course>184.5</course>
  <speed>0.0</speed>
  <fix>3d</fix>
</trkpt>
<trkpt lat="33.810313" lon="-118.393867">
  <ele>-0.13</ele>
  <time>2026-09-01T01:12:44Z</time>
  <course>0.0</course>
  <speed>0.0</speed>
  <fix>3d</fix>
</trkpt>
<trkpt lat="33.810313" lon="-118.393867">
  <ele>0.0</ele>
  <time>2026-09-01T01:12:44Z</time>
  <course>184.7</course>
  <speed>0.0</speed>
  <fix>3d</fix>
</trkpt>
<trkpt lat="33.810313" lon="-118.393867">
  <ele>-0.13</ele>
  <time>2026-09-01T01:12:44Z</time>
  <course>0.0</course>
  <speed>0.0</speed>
  <fix>3d</fix>
</trkpt>
<trkpt lat="33.810313" lon="-118.393867">
  <ele>0.0</ele>
  <time>2026-09-01T01:12:44Z</time>
  <course>184.89</course>
  <speed>0.0</speed>
  <fix>3d</fix>
</trkpt>
<trkpt lat="33.810313" lon="-118.393867">
  <ele>-0.13</ele>
  <time>2026-09-01T01:12:44Z</time>
  <course>0.0</course>
  <speed>0.0</speed>
  <fix>3d</fix>
</trkpt>
<trkpt lat="33.810313" lon="-118.393867">
  <ele>0.0</ele>
  <time>2026-09-01T01:12:44Z</time>
  <course>185.07</course>
  <speed>0.0</speed>
  <fix>3d</fix>
</trkpt>
<trkpt lat="33.810313" lon="-118.393867">
  <ele>-0.14</ele>
  <time>2026-09-01T01:12:44Z</time>
  <course>0.0</course>
  <speed>0.0</speed>
  <fix>3d</fix>
</trkpt>
<trkpt lat="33.810313" lon="-118.393867">
  <ele>0.0</ele>
  <time>2026-09-01T01:12:44Z</time>
  <course>185.24</course>
  <speed>0.0</speed>
  <fix>3d</fix>
</trkpt>
<trkpt lat="33.810313" lon="-118.393867">
  <ele>-0.14</ele>
  <time>2026-09-01T01:12:44Z</time>
  <course>0.0</course>
  <speed>0.0</speed>
  <fix>3d</fix>
</trkpt>
<trkpt lat="33.810313" lon="-118.393867">
  <ele>0.0</ele>
  <time>2026-09-01T01:12:44Z</time>
  <course>185.41</course>
  <speed>0.0</speed>
  <fix>3d</fix>
</trkpt>
<trkpt lat="33.810313" lon="-118.393867">
  <ele>-0.13</ele>
  <time>2026-09-01T01:12:44Z</time>
  <course>0.0</course>
  <speed>0.0</speed>
  <fix>3d</fix>
</trkpt>
<trkpt lat="33.810313" lon="-118.393867">
  <ele>0.0</ele>
  <time>2026-09-01T01:12:45Z</time>
  <course>185.56</course>
  <speed>0.0</speed>
  <fix>3d</fix>
</trkpt>
<trkpt lat="33.810313" lon="-118.393867">
  <ele>-0.13</ele>
  <time>2026-09-01T01:12:45Z</time>
  <course>0.0</course>
  <speed>0.0</speed>
  <fix>3d</fix>
</trkpt>
<trkpt lat="33.810313" lon="-118.393867">
  <ele>0.0</ele>
  <time>2026-09-01T01:12:45Z</time>
  <course>185.72</course>
  <speed>0.0</speed>
  <fix>3d</fix>
</trkpt>
<trkpt lat="33.810313" lon="-118.393867">
  <ele>-0.13</ele>
  <time>2026-09-01T01:12:45Z</time>
  <course>0.0</course>
  <speed>0.0</speed>
  <fix>3d</fix>
</trkpt>
<trkpt lat="33.810313" lon="-118.393867">
  <ele>0.0</ele>
  <time>2026-09-01T01:12:45Z</time>
  <course>185.86</course>
  <speed>0.0</speed>
  <fix>3d</fix>
</trkpt>
<trkpt lat="33.810313" lon="-118.393867">
  <ele>-0.13</ele>
  <time>2026-09-01T01:12:45Z</time>
  <course>0.0</course>
  <speed>0.0</speed>
  <fix>3d</fix>
</trkpt>
<trkpt lat="33.810313" lon="-118.393867">
  <ele>0.0</ele>
  <time>2026-09-01T01:12:45Z</time>
  <course>186.0</course>
  <speed>0.0</speed>
  <fix>3d</fix>
</trkpt>
<trkpt lat="33.810313" lon="-118.393867">
  <ele>-0.12</ele>
  <time>2026-09-01T01:12:45Z</time>
  <course>0.0</course>
  <speed>0.0</speed>
  <fix>3d</fix>
</trkpt>
<trkpt lat="33.810313" lon="-118.393867">
  <ele>0.0</ele>
  <time>2026-09-01T01:12:45Z</time>
  <course>186.13</course>
  <speed>0.0</speed>
  <fix>3d</fix>
</trkpt>
<trkpt lat="33.810313" lon="-118.393867">
  <ele>-0.12</ele>
  <time>2026-09-01T01:12:45Z</time>
  <course>0.0</course>
  <speed>0.0</speed>
  <fix>3d</fix>
</trkpt>
<trkpt lat="33.810313" lon="-118.393867">
  <ele>0.0</ele>
  <time>2026-09-01T01:12:45Z</time>
  <course>186.26</course>
  <speed>0.0</speed>
  <fix>3d</fix>
</trkpt>
<trkpt lat="33.810313" lon="-118.393867">
  <ele>-0.12</ele>
  <time>2026-09-01T01:12:45Z</time>
  <course>0.0</course>
  <speed>0.0</speed>
  <fix>3d</fix>
</trkpt>
<trkpt lat="33.810313" lon="-118.393867">
  <ele>0.0</ele>
  <time>2026-09-01T01:12:45Z</time>
  <course>186.38</course>
  <speed>0.0</speed>
  <fix>3d</fix>
</trkpt>
<trkpt lat="33.810313" lon="-118.393867">
  <ele>-0.12</ele>
  <time>2026-09-01T01:12:45Z</time>
  <course>0.0</course>
  <speed>0.0</speed>
  <fix>3d</fix>
</trkpt>
<trkpt lat="33.810313" lon="-118.393867">
  <ele>0.0</ele>
  <time>2026-09-01T01:12:45Z</time>
  <course>186.49</course>
  <speed>0.0</speed>
  <fix>3d</fix>
</trkpt>
<trkpt lat="33.810313" lon="-118.393867">
  <ele>-0.12</ele>
  <time>2026-09-01T01:12:45Z</time>
  <course>0.0</course>
  <speed>0.0</speed>
  <fix>3d</fix>
</trkpt>
<trkpt lat="33.810313" lon="-118.393867">
  <ele>0.0</ele>
  <time>2026-09-01T01:12:45Z</time>
  <course>186.6</course>
  <speed>0.0</speed>
  <fix>3d</fix>
</trkpt>
<trkpt lat="33.810313" lon="-118.393867">
  <ele>-0.12</ele>
  <time>2026-09-01T01:12:45Z</time>
  <course>0.0</course>
  <speed>0.0</speed>
  <fix>3d</fix>
</trkpt>
<trkpt lat="33.810313" lon="-118.393867">
  <ele>0.0</ele>
  <time>2026-09-01T01:12:45Z</time>
  <course>186.71</course>
  <speed>0.0</speed>
  <fix>3d</fix>
</trkpt>
<trkpt lat="33.810313" lon="-118.393867">
  <ele>-0.12</ele>
  <time>2026-09-01T01:12:45Z</time>
  <course>0.0</course>
  <speed>0.0</speed>
  <fix>3d</fix>
</trkpt>
<trkpt lat="33.810313" lon="-118.393867">
  <ele>0.0</ele>
  <time>2026-09-01T01:12:45Z</time>
  <course>186.81</course>
  <speed>0.0</speed>
  <fix>3d</fix>
</trkpt>
<trkpt lat="33.810313" lon="-118.393867">
  <ele>-0.12</ele>
  <time>2026-09-01T01:12:45Z</time>
  <course>0.0</course>
  <speed>0.0</speed>
  <fix>3d</fix>
</trkpt>
<trkpt lat="33.810313" lon="-118.393867">
  <ele>0.0</ele>
  <time>2026-09-01T01:12:45Z</time>
  <course>186.9</course>
  <speed>0.0</speed>
  <fix>3d</fix>
</trkpt>
<trkpt lat="33.810313" lon="-118.393867">
  <ele>-0.12</ele>
  <time>2026-09-01T01:12:45Z</time>
  <course>0.0</course>
  <speed>0.0</speed>
  <fix>3d</fix>
</trkpt>
<trkpt lat="33.810313" lon="-118.393867">
  <ele>0.0</ele>
  <time>2026-09-01T01:12:45Z</time>
  <course>187.0</course>
  <speed>0.0</speed>
  <fix>3d</fix>
</trkpt>
<trkpt lat="33.810313" lon="-118.393867">
  <ele>-0.12</ele>
  <time>2026-09-01T01:12:45Z</time>
  <course>0.0</course>
  <speed>0.0</speed>
  <fix>3d</fix>
</trkpt>
<trkpt lat="33.810313" lon="-118.393867">
  <ele>0.0</ele>
  <time>2026-09-01T01:12:45Z</time>
  <course>187.08</course>
  <speed>0.0</speed>
  <fix>3d</fix>
</trkpt>
<trkpt lat="33.810313" lon="-118.393867">
  <ele>-0.13</ele>
  <time>2026-09-01T01:12:45Z</time>
  <course>0.0</course>
  <speed>0.0</speed>
  <fix>3d</fix>
</trkpt>
<trkpt lat="33.810313" lon="-118.393867">
  <ele>0.0</ele>
  <time>2026-09-01T01:12:45Z</time>
  <course>187.17</course>
  <speed>0.0</speed>
  <fix>3d</fix>
</trkpt>
<trkpt lat="33.810313" lon="-118.393867">
  <ele>-0.13</ele>
  <time>2026-09-01T01:12:45Z</time>
  <course>0.0</course>
  <speed>0.0</speed>
  <fix>3d</fix>
</trkpt>
<trkpt lat="33.810313" lon="-118.393867">
  <ele>0.0</ele>
  <time>2026-09-01T01:12:45Z</time>
  <course>187.24</course>
  <speed>0.0</speed>
  <fix>3d</fix>
</trkpt>
<trkpt lat="33.810313" lon="-118.393867">
  <ele>-0.13</ele>
  <time>2026-09-01T01:12:45Z</time>
  <course>0.0</course>
  <speed>0.0</speed>
  <fix>3d</fix>
</trkpt>
<trkpt lat="33.810313" lon="-118.393867">
  <ele>0.0</ele>
  <time>2026-09-01T01:12:45Z</time>
  <course>187.32</course>
  <speed>0.0</speed>
  <fix>3d</fix>
</trkpt>
<trkpt lat="33.810313" lon="-118.393867">
  <ele>-0.13</ele>
  <time>2026-09-01T01:12:45Z</time>
  <course>0.0</course>
  <speed>0.0</speed>
  <fix>3d</fix>
</trkpt>
<trkpt lat="33.810313" lon="-118.393867">
  <ele>0.0</ele>
  <time>2026-09-01T01:12:45Z</time>
  <course>187.39</course>
  <speed>0.0</speed>
  <fix>3d</fix>
</trkpt>
<trkpt lat="33.810313" lon="-118.393867">
  <ele>-0.13</ele>
  <time>2026-09-01T01:12:45Z</time>
  <course>0.0</course>
  <speed>0.0</speed>
  <fix>3d</fix>
</trkpt>
<trkpt lat="33.810313" lon="-118.393867">
  <ele>0.0</ele>
  <time>2026-09-01T01:12:45Z</time>
  <course>187.46</course>
  <speed>0.0</speed>
  <fix>3d</fix>
</trkpt>
<trkpt lat="33.810313" lon="-118.393867">
  <ele>-0.13</ele>
  <time>2026-09-01T01:12:45Z</time>
  <course>0.0</course>
  <speed>0.0</speed>
  <fix>3d</fix>
</trkpt>
<trkpt lat="33.810313" lon="-118.393867">
  <ele>0.0</ele>
  <time>2026-09-01T01:12:45Z</time>
  <course>187.53</course>
  <speed>0.0</speed>
  <fix>3d</fix>
</trkpt>
<trkpt lat="33.810313" lon="-118.393867">
  <ele>-0.13</ele>
  <time>2026-09-01T01:12:45Z</time>
  <course>0.0</course>
  <speed>0.0</speed>
  <fix>3d</fix>
</trkpt>
<trkpt lat="33.810313" lon="-118.393867">
  <ele>0.0</ele>
  <time>2026-09-01T01:12:45Z</time>
  <course>187.59</course>
  <speed>0.0</speed>
  <fix>3d</fix>
</trkpt>
<trkpt lat="33.810313" lon="-118.393867">
  <ele>-0.13</ele>
  <time>2026-09-01T01:12:45Z</time>
  <course>0.0</course>
  <speed>0.0</speed>
  <fix>3d</fix>
</trkpt>
<trkpt lat="33.810313" lon="-118.393867">
  <ele>0.0</ele>
  <time>2026-09-01T01:12:45Z</time>
  <course>187.65</course>
  <speed>0.0</speed>
  <fix>3d</fix>
</trkpt>
<trkpt lat="33.810313" lon="-118.393867">
  <ele>-0.12</ele>
  <time>2026-09-01T01:12:45Z</time>
  <course>0.0</course>
  <speed>0.0</speed>
  <fix>3d</fix>
</trkpt>
<trkpt lat="33.810313" lon="-118.393867">
  <ele>0.0</ele>
  <time>2026-09-01T01:12:45Z</time>
  <course>187.7</course>
  <speed>0.0</speed>
  <fix>3d</fix>
</trkpt>
<trkpt lat="33.810313" lon="-118.393867">
  <ele>-0.12</ele>
  <time>2026-09-01T01:12:45Z</time>
  <course>0.0</course>
  <speed>0.0</speed>
  <fix>3d</fix>
</trkpt>
<trkpt lat="33.810313" lon="-118.393867">
  <ele>0.0</ele>
  <time>2026-09-01T01:12:45Z</time>
  <course>187.76</course>
  <speed>0.0</speed>
  <fix>3d</fix>
</trkpt>
<trkpt lat="33.810313" lon="-118.393867">
  <ele>-0.12</ele>
  <time>2026-09-01T01:12:45Z</time>
  <course>0.0</course>
  <speed>0.0</speed>
  <fix>3d</fix>
</trkpt>
<trkpt lat="33.810313" lon="-118.393867">
  <ele>0.0</ele>
  <time>2026-09-01T01:12:45Z</time>
  <course>187.81</course>
  <speed>0.0</speed>
  <fix>3d</fix>
</trkpt>
<trkpt lat="33.810313" lon="-118.393867">
  <ele>-0.12</ele>
  <time>2026-09-01T01:12:45Z</time>
  <course>0.0</course>
  <speed>0.0</speed>
  <fix>3d</fix>
</trkpt>
<trkpt lat="33.810313" lon="-118.393867">
  <ele>0.0</ele>
  <time>2026-09-01T01:12:45Z</time>
  <course>187.86</course>
  <speed>0.0</speed>
  <fix>3d</fix>
</trkpt>
<trkpt lat="33.810313" lon="-118.393867">
  <ele>-0.12</ele>
  <time>2026-09-01T01:12:45Z</time>
  <course>0.0</course>
  <speed>0.0</speed>
  <fix>3d</fix>
</trkpt>
<trkpt lat="33.810313" lon="-118.393867">
  <ele>0.0</ele>
  <time>2026-09-01T01:12:45Z</time>
  <course>187.9</course>
  <speed>0.0</speed>
  <fix>3d</fix>
</trkpt>
<trkpt lat="33.810313" lon="-118.393867">
  <ele>-0.12</ele>
  <time>2026-09-01T01:12:45Z</time>
  <course>0.0</course>
  <speed>0.0</speed>
  <fix>3d</fix>
</trkpt>
<trkpt lat="33.810313" lon="-118.393867">
  <ele>0.0</ele>
  <time>2026-09-01T01:12:45Z</time>
  <course>187.94</course>
  <speed>0.0</speed>
  <fix>3d</fix>
</trkpt>
<trkpt lat="33.810313" lon="-118.393867">
  <ele>-0.12</ele>
  <time>2026-09-01T01:12:45Z</time>
  <course>0.0</course>
  <speed>0.0</speed>
  <fix>3d</fix>
</trkpt>
<trkpt lat="33.810313" lon="-118.393867">
  <ele>0.0</ele>
  <time>2026-09-01T01:12:45Z</time>
  <course>187.99</course>
  <speed>0.0</speed>
  <fix>3d</fix>
</trkpt>
<trkpt lat="33.810313" lon="-118.393867">
  <ele>-0.12</ele>
  <time>2026-09-01T01:12:45Z</time>
  <course>0.0</course>
  <speed>0.0</speed>
  <fix>3d</fix>
</trkpt>
<trkpt lat="33.810313" lon="-118.393867">
  <ele>0.0</ele>
  <time>2026-09-01T01:12:45Z</time>
  <course>188.02</course>
  <speed>0.0</speed>
  <fix>3d</fix>
</trkpt>
<trkpt lat="33.810313" lon="-118.393867">
  <ele>-0.12</ele>
  <time>2026-09-01T01:12:45Z</time>
  <course>0.0</course>
  <speed>0.0</speed>
  <fix>3d</fix>
</trkpt>
<trkpt lat="33.810313" lon="-118.393867">
  <ele>0.0</ele>
  <time>2026-09-01T01:12:45Z</time>
  <course>188.06</course>
  <speed>0.0</speed>
  <fix>3d</fix>
</trkpt>
<trkpt lat="33.810313" lon="-118.393867">
  <ele>-0.12</ele>
  <time>2026-09-01T01:12:45Z</time>
  <course>0.0</course>
  <speed>0.0</speed>
  <fix>3d</fix>
</trkpt>
<trkpt lat="33.810313" lon="-118.393867">
  <ele>0.0</ele>
  <time>2026-09-01T01:12:45Z</time>
  <course>188.1</course>
  <speed>0.0</speed>
  <fix>3d</fix>
</trkpt>
<trkpt lat="33.810313" lon="-118.393867">
  <ele>-0.13</ele>
  <time>2026-09-01T01:12:45Z</time>
  <course>0.0</course>
  <speed>0.0</speed>
  <fix>3d</fix>
</trkpt>
<trkpt lat="33.810313" lon="-118.393867">
  <ele>0.0</ele>
  <time>2026-09-01T01:12:45Z</time>
  <course>188.13</course>
  <speed>0.0</speed>
  <fix>3d</fix>
</trkpt>
<trkpt lat="33.810313" lon="-118.393867">
  <ele>-0.13</ele>
  <time>2026-09-01T01:12:45Z</time>
  <course>0.0</course>
  <speed>0.0</speed>
  <fix>3d</fix>
</trkpt>
<trkpt lat="33.810313" lon="-118.393867">
  <ele>0.0</ele>
  <time>2026-09-01T01:12:45Z</time>
  <course>188.16</course>
  <speed>0.0</speed>
  <fix>3d</fix>
</trkpt>
<trkpt lat="33.810313" lon="-118.393867">
  <ele>-0.13</ele>
  <time>2026-09-01T01:12:45Z</time>
  <course>0.0</course>
  <speed>0.0</speed>
  <fix>3d</fix>
</trkpt>
<trkpt lat="33.810313" lon="-118.393867">
  <ele>0.0</ele>
  <time>2026-09-01T01:12:45Z</time>
  <course>188.19</course>
  <speed>0.0</speed>
  <fix>3d</fix>
</trkpt>
<trkpt lat="33.810313" lon="-118.393867">
  <ele>-0.13</ele>
  <time>2026-09-01T01:12:45Z</time>
  <course>0.0</course>
  <speed>0.0</speed>
  <fix>3d</fix>
</trkpt>
<trkpt lat="33.810313" lon="-118.393867">
  <ele>0.0</ele>
  <time>2026-09-01T01:12:45Z</time>
  <course>188.22</course>
  <speed>0.0</speed>
  <fix>3d</fix>
</trkpt>
<trkpt lat="33.810313" lon="-118.393867">
  <ele>-0.13</ele>
  <time>2026-09-01T01:12:45Z</time>
  <course>0.0</course>
  <speed>0.0</speed>
  <fix>3d</fix>
</trkpt>
<trkpt lat="33.810313" lon="-118.393867">
  <ele>0.0</ele>
  <time>2026-09-01T01:12:45Z</time>
  <course>188.24</course>
  <speed>0.0</speed>
  <fix>3d</fix>
</trkpt>
<trkpt lat="33.810313" lon="-118.393867">
  <ele>-0.13</ele>
  <time>2026-09-01T01:12:45Z</time>
  <course>0.0</course>
  <speed>0.0</speed>
  <fix>3d</fix>
</trkpt>
<trkpt lat="33.810313" lon="-118.393867">
  <ele>0.0</ele>
  <time>2026-09-01T01:12:45Z</time>
  <course>188.27</course>
  <speed>0.0</speed>
  <fix>3d</fix>
</trkpt>
<trkpt lat="33.810313" lon="-118.393867">
  <ele>-0.12</ele>
  <time>2026-09-01T01:12:45Z</time>
  <course>0.0</course>
  <speed>0.0</speed>
  <fix>3d</fix>
</trkpt>
<trkpt lat="33.810313" lon="-118.393867">
  <ele>0.0</ele>
  <time>2026-09-01T01:12:45Z</time>
  <course>188.29</course>
  <speed>0.0</speed>
  <fix>3d</fix>
</trkpt>
<trkpt lat="33.810313" lon="-118.393867">
  <ele>-0.12</ele>
  <time>2026-09-01T01:12:45Z</time>
  <course>0.0</course>
  <speed>0.0</speed>
  <fix>3d</fix>
</trkpt>
<trkpt lat="33.810313" lon="-118.393867">
  <ele>0.0</ele>
  <time>2026-09-01T01:12:45Z</time>
  <course>188.32</course>
  <speed>0.0</speed>
  <fix>3d</fix>
</trkpt>
<trkpt lat="33.810313" lon="-118.393867">
  <ele>-0.12</ele>
  <time>2026-09-01T01:12:45Z</time>
  <course>0.0</course>
  <speed>0.0</speed>
  <fix>3d</fix>
</trkpt>
<trkpt lat="33.810313" lon="-118.393867">
  <ele>0.0</ele>
  <time>2026-09-01T01:12:45Z</time>
  <course>188.34</course>
  <speed>0.0</speed>
  <fix>3d</fix>
</trkpt>
<trkpt lat="33.810313" lon="-118.393867">
  <ele>-0.12</ele>
  <time>2026-09-01T01:12:45Z</time>
  <course>0.0</course>
  <speed>0.0</speed>
  <fix>3d</fix>
</trkpt>
<trkpt lat="33.810313" lon="-118.393867">
  <ele>0.0</ele>
  <time>2026-09-01T01:12:45Z</time>
  <course>188.36</course>
  <speed>0.0</speed>
  <fix>3d</fix>
</trkpt>
<trkpt lat="33.810313" lon="-118.393867">
  <ele>-0.12</ele>
  <time>2026-09-01T01:12:45Z</time>
  <course>0.0</course>
  <speed>0.0</speed>
  <fix>3d</fix>
</trkpt>
<trkpt lat="33.810313" lon="-118.393867">
  <ele>0.0</ele>
  <time>2026-09-01T01:12:45Z</time>
  <course>188.38</course>
  <speed>0.0</speed>
  <fix>3d</fix>
</trkpt>
<trkpt lat="33.810313" lon="-118.393867">
  <ele>-0.12</ele>
  <time>2026-09-01T01:12:45Z</time>
  <course>0.0</course>
  <speed>0.0</speed>
  <fix>3d</fix>
</trkpt>
<trkpt lat="33.810313" lon="-118.393867">
  <ele>0.0</ele>
  <time>2026-09-01T01:12:45Z</time>
  <course>188.39</course>
  <speed>0.0</speed>
  <fix>3d</fix>
</trkpt>
<trkpt lat="33.810313" lon="-118.393867">
  <ele>-0.12</ele>
  <time>2026-09-01T01:12:45Z</time>
  <course>0.0</course>
  <speed>0.0</speed>
  <fix>3d</fix>
</trkpt>
<trkpt lat="33.810313" lon="-118.393867">
  <ele>0.0</ele>
  <time>2026-09-01T01:12:45Z</time>
  <course>188.41</course>
  <speed>0.0</speed>
  <fix>3d</fix>
</trkpt>
<trkpt lat="33.810313" lon="-118.393867">
  <ele>-0.12</ele>
  <time>2026-09-01T01:12:45Z</time>
  <course>0.0</course>
  <speed>0.0</speed>
  <fix>3d</fix>
</trkpt>
<trkpt lat="33.810313" lon="-118.393867">
  <ele>0.0</ele>
  <time>2026-09-01T01:12:45Z</time>
  <course>188.42</course>
  <speed>0.0</speed>
  <fix>3d</fix>
</trkpt>
<trkpt lat="33.810313" lon="-118.393867">
  <ele>-0.12</ele>
  <time>2026-09-01T01:12:45Z</time>
  <course>0.0</course>
  <speed>0.0</speed>
  <fix>3d</fix>
</trkpt>
<trkpt lat="33.810313" lon="-118.393867">
  <ele>0.0</ele>
  <time>2026-09-01T01:12:45Z</time>
  <course>188.44</course>
  <speed>0.0</speed>
  <fix>3d</fix>
</trkpt>
<trkpt lat="33.810313" lon="-118.393867">
  <ele>-0.12</ele>
  <time>2026-09-01T01:12:45Z</time>
  <course>0.0</course>
  <speed>0.0</speed>
  <fix>3d</fix>
</trkpt>
<trkpt lat="33.810313" lon="-118.393867">
  <ele>0.0</ele>
  <time>2026-09-01T01:12:45Z</time>
  <course>188.45</course>
  <speed>0.0</speed>
  <fix>3d</fix>
</trkpt>
<trkpt lat="33.810313" lon="-118.393867">
  <ele>-0.13</ele>
  <time>2026-09-01T01:12:45Z</time>
  <course>0.0</course>
  <speed>0.0</speed>
  <fix>3d</fix>
</trkpt>
<trkpt lat="33.810313" lon="-118.393867">
  <ele>0.0</ele>
  <time>2026-09-01T01:12:45Z</time>
  <course>188.46</course>
  <speed>0.0</speed>
  <fix>3d</fix>
</trkpt>
<trkpt lat="33.810313" lon="-118.393867">
  <ele>-0.13</ele>
  <time>2026-09-01T01:12:45Z</time>
  <course>0.0</course>
  <speed>0.0</speed>
  <fix>3d</fix>
</trkpt>
<trkpt lat="33.810313" lon="-118.393867">
  <ele>0.0</ele>
  <time>2026-09-01T01:12:45Z</time>
  <course>188.47</course>
  <speed>0.0</speed>
  <fix>3d</fix>
</trkpt>
<trkpt lat="33.810313" lon="-118.393867">
  <ele>-0.13</ele>
  <time>2026-09-01T01:12:45Z</time>
  <course>0.0</course>
  <speed>0.0</speed>
  <fix>3d</fix>
</trkpt>
<trkpt lat="33.810313" lon="-118.393867">
  <ele>0.0</ele>
  <time>2026-09-01T01:12:45Z</time>
  <course>188.48</course>
  <speed>0.0</speed>
  <fix>3d</fix>
</trkpt>
<trkpt lat="33.810313" lon="-118.393867">
  <ele>-0.13</ele>
  <time>2026-09-01T01:12:45Z</time>
  <course>0.0</course>
  <speed>0.0</speed>
  <fix>3d</fix>
</trkpt>
<trkpt lat="33.810313" lon="-118.393867">
  <ele>0.0</ele>
  <time>2026-09-01T01:12:45Z</time>
  <course>188.49</course>
  <speed>0.0</speed>
  <fix>3d</fix>
</trkpt>
<trkpt lat="33.810313" lon="-118.393867">
  <ele>-0.13</ele>
  <time>2026-09-01T01:12:45Z</time>
  <course>0.0</course>
  <speed>0.0</speed>
  <fix>3d</fix>
</trkpt>
<trkpt lat="33.810313" lon="-118.393867">
  <ele>0.0</ele>
  <time>2026-09-01T01:12:45Z</time>
  <course>188.5</course>
  <speed>0.0</speed>
  <fix>3d</fix>
</trkpt>
<trkpt lat="33.810313" lon="-118.393867">
  <ele>-0.13</ele>
  <time>2026-09-01T01:12:45Z</time>
  <course>0.0</course>
  <speed>0.0</speed>
  <fix>3d</fix>
</trkpt>
<trkpt lat="33.810313" lon="-118.393867">
  <ele>0.0</ele>
  <time>2026-09-01T01:12:45Z</time>
  <course>188.51</course>
  <speed>0.0</speed>
  <fix>3d</fix>
</trkpt>
<trkpt lat="33.810313" lon="-118.393867">
  <ele>-0.12</ele>
  <time>2026-09-01T01:12:45Z</time>
  <course>0.0</course>
  <speed>0.0</speed>
  <fix>3d</fix>
</trkpt>
<trkpt lat="33.810313" lon="-118.393867">
  <ele>0.0</ele>
  <time>2026-09-01T01:12:45Z</time>
  <course>188.52</course>
  <speed>0.0</speed>
  <fix>3d</fix>
</trkpt>
<trkpt lat="33.810313" lon="-118.393867">
  <ele>-0.12</ele>
  <time>2026-09-01T01:12:45Z</time>
  <course>0.0</course>
  <speed>0.0</speed>
  <fix>3d</fix>
</trkpt>
<trkpt lat="33.810313" lon="-118.393867">
  <ele>0.0</ele>
  <time>2026-09-01T01:12:45Z</time>
  <course>188.53</course>
  <speed>0.0</speed>
  <fix>3d</fix>
</trkpt>
<trkpt lat="33.810313" lon="-118.393867">
  <ele>-0.12</ele>
  <time>2026-09-01T01:12:45Z</time>
  <course>0.0</course>
  <speed>0.0</speed>
  <fix>3d</fix>
</trkpt>
<trkpt lat="33.810313" lon="-118.393867">
  <ele>0.0</ele>
  <time>2026-09-01T01:12:45Z</time>
  <course>188.53</course>
  <speed>0.0</speed>
  <fix>3d</fix>
</trkpt>
<trkpt lat="33.810313" lon="-118.393867">
  <ele>-0.12</ele>
  <time>2026-09-01T01:12:45Z</time>
  <course>0.0</course>
  <speed>0.0</speed>
  <fix>3d</fix>
</trkpt>
<trkpt lat="33.810313" lon="-118.393867">
  <ele>0.0</ele>
  <time>2026-09-01T01:12:45Z</time>
  <course>188.54</course>
  <speed>0.0</speed>
  <fix>3d</fix>
</trkpt>
<trkpt lat="33.810313" lon="-118.393867">
  <ele>-0.12</ele>
  <time>2026-09-01T01:12:45Z</time>
  <course>0.0</course>
  <speed>0.0</speed>
  <fix>3d</fix>
</trkpt>
<trkpt lat="33.810313" lon="-118.393867">
  <ele>0.0</ele>
  <time>2026-09-01T01:12:45Z</time>
  <course>188.54</course>
  <speed>0.0</speed>
  <fix>3d</fix>
</trkpt>
<trkpt lat="33.810313" lon="-118.393867">
  <ele>-0.12</ele>
  <time>2026-09-01T01:12:45Z</time>
  <course>0.0</course>
  <speed>0.0</speed>
  <fix>3d</fix>
</trkpt>
<trkpt lat="33.810313" lon="-118.393867">
  <ele>0.0</ele>
  <time>2026-09-01T01:12:45Z</time>
  <course>188.54</course>
  <speed>0.0</speed>
  <fix>3d</fix>
</trkpt>
<trkpt lat="33.810313" lon="-118.393867">
  <ele>-0.12</ele>
  <time>2026-09-01T01:12:45Z</time>
  <course>0.0</course>
  <speed>0.0</speed>
  <fix>3d</fix>
</trkpt>
<trkpt lat="33.810313" lon="-118.393867">
  <ele>0.0</ele>
  <time>2026-09-01T01:12:45Z</time>
  <course>188.55</course>
  <speed>0.0</speed>
  <fix>3d</fix>
</trkpt>
<trkpt lat="33.810313" lon="-118.393867">
  <ele>-0.12</ele>
  <time>2026-09-01T01:12:45Z</time>
  <course>0.0</course>
  <speed>0.0</speed>
  <fix>3d</fix>
</trkpt>
<trkpt lat="33.810313" lon="-118.393867">
  <ele>0.0</ele>
  <time>2026-09-01T01:12:45Z</time>
  <course>188.55</course>
  <speed>0.0</speed>
  <fix>3d</fix>
</trkpt>
<trkpt lat="33.810313" lon="-118.393867">
  <ele>-0.12</ele>
  <time>2026-09-01T01:12:45Z</time>
  <course>0.0</course>
  <speed>0.0</speed>
  <fix>3d</fix>
</trkpt>
<trkpt lat="33.810313" lon="-118.393867">
  <ele>0.0</ele>
  <time>2026-09-01T01:12:45Z</time>
  <course>188.55</course>
  <speed>0.0</speed>
  <fix>3d</fix>
</trkpt>
<trkpt lat="33.810313" lon="-118.393867">
  <ele>-0.12</ele>
  <time>2026-09-01T01:12:45Z</time>
  <course>0.0</course>
  <speed>0.0</speed>
  <fix>3d</fix>
</trkpt>
<trkpt lat="33.810313" lon="-118.393867">
  <ele>-0.126</ele>
  <time>2026-09-01T01:12:45Z</time>
  <course>188.55</course>
  <speed>0.0</speed>
  <fix>3d</fix>
</trkpt>
<trkpt lat="33.810313" lon="-118.393867">
  <ele>-0.13</ele>
  <time>2026-09-01T01:12:45Z</time>
  <course>0.0</course>
  <speed>0.0</speed>
  <fix>3d</fix>
</trkpt>
<trkpt lat="33.810313" lon="-118.393867">
  <ele>-0.126</ele>
  <time>2026-09-01T01:12:45Z</time>
  <course>188.56</course>
  <speed>0.0</speed>
  <fix>3d</fix>
</trkpt>
<trkpt lat="33.810313" lon="-118.393867">
  <ele>-0.13</ele>
  <time>2026-09-01T01:12:45Z</time>
  <course>0.0</course>
  <speed>0.0</speed>
  <fix>3d</fix>
</trkpt>
<trkpt lat="33.810313" lon="-118.393867">
  <ele>-0.125</ele>
  <time>2026-09-01T01:12:45Z</time>
  <course>188.56</course>
  <speed>0.0</speed>
  <fix>3d</fix>
</trkpt>
<trkpt lat="33.810313" lon="-118.393867">
  <ele>-0.13</ele>
  <time>2026-09-01T01:12:45Z</time>
  <course>0.0</course>
  <speed>0.0</speed>
  <fix>3d</fix>
</trkpt>
<trkpt lat="33.810313" lon="-118.393867">
  <ele>-0.123</ele>
  <time>2026-09-01T01:12:45Z</time>
  <course>188.56</course>
  <speed>0.0</speed>
  <fix>3d</fix>
</trkpt>
<trkpt lat="33.810313" lon="-118.393867">
  <ele>-0.13</ele>
  <time>2026-09-01T01:12:45Z</time>
  <course>0.0</course>
  <speed>0.0</speed>
  <fix>3d</fix>
</trkpt>
<trkpt lat="33.810313" lon="-118.393867">
  <ele>-0.121</ele>
  <time>2026-09-01T01:12:45Z</time>
  <course>188.56</course>
  <speed>0.0</speed>
  <fix>3d</fix>
</trkpt>
<trkpt lat="33.810313" lon="-118.393867">
  <ele>-0.12</ele>
  <time>2026-09-01T01:12:45Z</time>
  <course>0.0</course>
  <speed>0.0</speed>
  <fix>3d</fix>
</trkpt>
<trkpt lat="33.810313" lon="-118.393867">
  <ele>-0.12</ele>
  <time>2026-09-01T01:12:45Z</time>
  <course>188.56</course>
  <speed>0.0</speed>
  <fix>3d</fix>
</trkpt>
<trkpt lat="33.810313" lon="-118.393867">
  <ele>-0.12</ele>
  <time>2026-09-01T01:12:45Z</time>
  <course>0.0</course>
  <speed>0.0</speed>
  <fix>3d</fix>
</trkpt>
<trkpt lat="33.810313" lon="-118.393867">
  <ele>-0.119</ele>
  <time>2026-09-01T01:12:45Z</time>
  <course>188.56</course>
  <speed>0.0</speed>
  <fix>3d</fix>
</trkpt>
<trkpt lat="33.810313" lon="-118.393867">
  <ele>-0.12</ele>
  <time>2026-09-01T01:12:45Z</time>
  <course>0.0</course>
  <speed>0.0</speed>
  <fix>3d</fix>
</trkpt>
<trkpt lat="33.810313" lon="-118.393867">
  <ele>-0.12</ele>
  <time>2026-09-01T01:12:45Z</time>
  <course>188.56</course>
  <speed>0.0</speed>
  <fix>3d</fix>
</trkpt>
<trkpt lat="33.810313" lon="-118.393867">
  <ele>-0.12</ele>
  <time>2026-09-01T01:12:45Z</time>
  <course>0.0</course>
  <speed>0.0</speed>
  <fix>3d</fix>
</trkpt>
<trkpt lat="33.810313" lon="-118.393867">
  <ele>-0.123</ele>
  <time>2026-09-01T01:12:45Z</time>
  <course>188.55</course>
  <speed>0.0</speed>
  <fix>3d</fix>
</trkpt>
<trkpt lat="33.810313" lon="-118.393867">
  <ele>-0.12</ele>
  <time>2026-09-01T01:12:45Z</time>
  <course>0.0</course>
  <speed>0.0</speed>
  <fix>3d</fix>
</trkpt>
<trkpt lat="33.810313" lon="-118.393867">
  <ele>-0.127</ele>
  <time>2026-09-01T01:12:45Z</time>
  <course>188.55</course>
  <speed>0.0</speed>
  <fix>3d</fix>
</trkpt>
<trkpt lat="33.810313" lon="-118.393867">
  <ele>-0.12</ele>
  <time>2026-09-01T01:12:45Z</time>
  <course>0.0</course>
  <speed>0.0</speed>
  <fix>3d</fix>
</trkpt>
<trkpt lat="33.810313" lon="-118.393867">
  <ele>-0.13</ele>
  <time>2026-09-01T01:12:45Z</time>
  <course>188.55</course>
  <speed>0.0</speed>
  <fix>3d</fix>
</trkpt>
<trkpt lat="33.810313" lon="-118.393867">
  <ele>-0.12</ele>
  <time>2026-09-01T01:12:45Z</time>
  <course>0.0</course>
  <speed>0.0</speed>
  <fix>3d</fix>
</trkpt>
<trkpt lat="33.810313" lon="-118.393867">
  <ele>-0.132</ele>
  <time>2026-09-01T01:12:45Z</time>
  <course>188.55</course>
  <speed>0.0</speed>
  <fix>3d</fix>
</trkpt>
<trkpt lat="33.810313" lon="-118.393867">
  <ele>-0.12</ele>
  <time>2026-09-01T01:12:45Z</time>
  <course>0.0</course>
  <speed>0.0</speed>
  <fix>3d</fix>
</trkpt>
<trkpt lat="33.810313" lon="-118.393867">
  <ele>-0.132</ele>
  <time>2026-09-01T01:12:45Z</time>
  <course>188.55</course>
  <speed>0.0</speed>
  <fix>3d</fix>
</trkpt>
<trkpt lat="33.810313" lon="-118.393867">
  <ele>-0.12</ele>
  <time>2026-09-01T01:12:45Z</time>
  <course>0.0</course>
  <speed>0.0</speed>
  <fix>3d</fix>
</trkpt>
<trkpt lat="33.810313" lon="-118.393867">
  <ele>-0.132</ele>
  <time>2026-09-01T01:12:45Z</time>
  <course>188.55</course>
  <speed>0.0</speed>
  <fix>3d</fix>
</trkpt>
<trkpt lat="33.810313" lon="-118.393867">
  <ele>-0.12</ele>
  <time>2026-09-01T01:12:45Z</time>
  <course>0.0</course>
  <speed>0.0</speed>
  <fix>3d</fix>
</trkpt>
<trkpt lat="33.810313" lon="-118.393867">
  <ele>-0.132</ele>
  <time>2026-09-01T01:12:45Z</time>
  <course>188.55</course>
  <speed>0.0</speed>
  <fix>3d</fix>
</trkpt>
<trkpt lat="33.810313" lon="-118.393867">
  <ele>-0.12</ele>
  <time>2026-09-01T01:12:45Z</time>
  <course>0.0</course>
  <speed>0.0</speed>
  <fix>3d</fix>
</trkpt>
<trkpt lat="33.810313" lon="-118.393867">
  <ele>-0.131</ele>
  <time>2026-09-01T01:12:45Z</time>
  <course>188.55</course>
  <speed>0.0</speed>
  <fix>3d</fix>
</trkpt>
<trkpt lat="33.810313" lon="-118.393867">
  <ele>-0.12</ele>
  <time>2026-09-01T01:12:45Z</time>
  <course>0.0</course>
  <speed>0.0</speed>
  <fix>3d</fix>
</trkpt>
<trkpt lat="33.810313" lon="-118.393867">
  <ele>-0.129</ele>
  <time>2026-09-01T01:12:45Z</time>
  <course>188.54</course>
  <speed>0.0</speed>
  <fix>3d</fix>
</trkpt>
<trkpt lat="33.810313" lon="-118.393867">
  <ele>-0.13</ele>
  <time>2026-09-01T01:12:45Z</time>
  <course>0.0</course>
  <speed>0.0</speed>
  <fix>3d</fix>
</trkpt>
<trkpt lat="33.810313" lon="-118.393867">
  <ele>-0.128</ele>
  <time>2026-09-01T01:12:45Z</time>
  <course>188.54</course>
  <speed>0.0</speed>
  <fix>3d</fix>
</trkpt>
<trkpt lat="33.810313" lon="-118.393867">
  <ele>-0.13</ele>
  <time>2026-09-01T01:12:45Z</time>
  <course>0.0</course>
  <speed>0.0</speed>
  <fix>3d</fix>
</trkpt>
<trkpt lat="33.810313" lon="-118.393867">
  <ele>-0.125</ele>
  <time>2026-09-01T01:12:45Z</time>
  <course>188.53</course>
  <speed>0.0</speed>
  <fix>3d</fix>
</trkpt>
<trkpt lat="33.810313" lon="-118.393867">
  <ele>-0.12</ele>
  <time>2026-09-01T01:12:45Z</time>
  <course>0.0</course>
  <speed>0.0</speed>
  <fix>3d</fix>
</trkpt>
<trkpt lat="33.810313" lon="-118.393867">
  <ele>-0.123</ele>
  <time>2026-09-01T01:12:45Z</time>
  <course>188.53</course>
  <speed>0.0</speed>
  <fix>3d</fix>
</trkpt>
<trkpt lat="33.810313" lon="-118.393867">
  <ele>-0.12</ele>
  <time>2026-09-01T01:12:45Z</time>
  <course>0.0</course>
  <speed>0.0</speed>
  <fix>3d</fix>
</trkpt>
<trkpt lat="33.810313" lon="-118.393867">
  <ele>-0.121</ele>
  <time>2026-09-01T01:12:45Z</time>
  <course>188.52</course>
  <speed>0.0</speed>
  <fix>3d</fix>
</trkpt>
<trkpt lat="33.810313" lon="-118.393867">
  <ele>-0.12</ele>
  <time>2026-09-01T01:12:45Z</time>
  <course>0.0</course>
  <speed>0.0</speed>
  <fix>3d</fix>
</trkpt>
<trkpt lat="33.810313" lon="-118.393867">
  <ele>-0.121</ele>
  <time>2026-09-01T01:12:45Z</time>
  <course>188.52</course>
  <speed>0.0</speed>
  <fix>3d</fix>
</trkpt>
<trkpt lat="33.810313" lon="-118.393867">
  <ele>-0.12</ele>
  <time>2026-09-01T01:12:45Z</time>
  <course>0.0</course>
  <speed>0.0</speed>
  <fix>3d</fix>
</trkpt>
<trkpt lat="33.810313" lon="-118.393867">
  <ele>-0.121</ele>
  <time>2026-09-01T01:12:45Z</time>
  <course>188.51</course>
  <speed>0.0</speed>
  <fix>3d</fix>
</trkpt>
<trkpt lat="33.810313" lon="-118.393867">
  <ele>-0.12</ele>
  <time>2026-09-01T01:12:45Z</time>
  <course>0.0</course>
  <speed>0.0</speed>
  <fix>3d</fix>
</trkpt>
<trkpt lat="33.810313" lon="-118.393867">
  <ele>-0.123</ele>
  <time>2026-09-01T01:12:45Z</time>
  <course>188.51</course>
  <speed>0.0</speed>
  <fix>3d</fix>
</trkpt>
<trkpt lat="33.810313" lon="-118.393867">
  <ele>-0.12</ele>
  <time>2026-09-01T01:12:45Z</time>
  <course>0.0</course>
  <speed>0.0</speed>
  <fix>3d</fix>
</trkpt>
<trkpt lat="33.810313" lon="-118.393867">
  <ele>-0.126</ele>
  <time>2026-09-01T01:12:45Z</time>
  <course>188.5</course>
  <speed>0.0</speed>
  <fix>3d</fix>
</trkpt>
<trkpt lat="33.810313" lon="-118.393867">
  <ele>-0.12</ele>
  <time>2026-09-01T01:12:45Z</time>
  <course>0.0</course>
  <speed>0.0</speed>
  <fix>3d</fix>
</trkpt>
<trkpt lat="33.810313" lon="-118.393867">
  <ele>-0.127</ele>
  <time>2026-09-01T01:12:45Z</time>
  <course>188.5</course>
  <speed>0.0</speed>
  <fix>3d</fix>
</trkpt>
<trkpt lat="33.810313" lon="-118.393867">
  <ele>-0.12</ele>
  <time>2026-09-01T01:12:45Z</time>
  <course>0.0</course>
  <speed>0.0</speed>
  <fix>3d</fix>
</trkpt>
<trkpt lat="33.810313" lon="-118.393867">
  <ele>-0.128</ele>
  <time>2026-09-01T01:12:45Z</time>
  <course>188.49</course>
  <speed>0.0</speed>
  <fix>3d</fix>
</trkpt>
<trkpt lat="33.810313" lon="-118.393867">
  <ele>-0.12</ele>
  <time>2026-09-01T01:12:45Z</time>
  <course>0.0</course>
  <speed>0.0</speed>
  <fix>3d</fix>
</trkpt>
<trkpt lat="33.810313" lon="-118.393867">
  <ele>-0.127</ele>
  <time>2026-09-01T01:12:45Z</time>
  <course>188.49</course>
  <speed>0.0</speed>
  <fix>3d</fix>
</trkpt>
<trkpt lat="33.810313" lon="-118.393867">
  <ele>-0.12</ele>
  <time>2026-09-01T01:12:45Z</time>
  <course>0.0</course>
  <speed>0.0</speed>
  <fix>3d</fix>
</trkpt>
<trkpt lat="33.810313" lon="-118.393867">
  <ele>-0.127</ele>
  <time>2026-09-01T01:12:45Z</time>
  <course>188.48</course>
  <speed>0.0</speed>
  <fix>3d</fix>
</trkpt>
<trkpt lat="33.810313" lon="-118.393867">
  <ele>-0.12</ele>
  <time>2026-09-01T01:12:45Z</time>
  <course>0.0</course>
  <speed>0.0</speed>
  <fix>3d</fix>
</trkpt>
<trkpt lat="33.810313" lon="-118.393867">
  <ele>-0.127</ele>
  <time>2026-09-01T01:12:45Z</time>
  <course>188.47</course>
  <speed>0.01</speed>
  <fix>3d</fix>
</trkpt>
<trkpt lat="33.810313" lon="-118.393867">
  <ele>-0.12</ele>
  <time>2026-09-01T01:12:45Z</time>
  <course>0.0</course>
  <speed>0.0</speed>
  <fix>3d</fix>
</trkpt>
<trkpt lat="33.810313" lon="-118.393867">
  <ele>-0.127</ele>
  <time>2026-09-01T01:12:45Z</time>
  <course>188.47</course>
  <speed>0.01</speed>
  <fix>3d</fix>
</trkpt>
<trkpt lat="33.810313" lon="-118.393867">
  <ele>-0.12</ele>
  <time>2026-09-01T01:12:45Z</time>
  <course>0.0</course>
  <speed>0.0</speed>
  <fix>3d</fix>
</trkpt>
<trkpt lat="33.810313" lon="-118.393867">
  <ele>-0.127</ele>
  <time>2026-09-01T01:12:45Z</time>
  <course>188.46</course>
  <speed>0.01</speed>
  <fix>3d</fix>
</trkpt>
<trkpt lat="33.810313" lon="-118.393867">
  <ele>-0.12</ele>
  <time>2026-09-01T01:12:45Z</time>
  <course>0.0</course>
  <speed>0.0</speed>
  <fix>3d</fix>
</trkpt>
<trkpt lat="33.810313" lon="-118.393867">
  <ele>-0.126</ele>
  <time>2026-09-01T01:12:45Z</time>
  <course>188.45</course>
  <speed>0.01</speed>
  <fix>3d</fix>
</trkpt>
<trkpt lat="33.810313" lon="-118.393867">
  <ele>-0.12</ele>
  <time>2026-09-01T01:12:45Z</time>
  <course>0.0</course>
  <speed>0.0</speed>
  <fix>3d</fix>
</trkpt>
<trkpt lat="33.810313" lon="-118.393867">
  <ele>-0.126</ele>
  <time>2026-09-01T01:12:45Z</time>
  <course>188.45</course>
  <speed>0.01</speed>
  <fix>3d</fix>
</trkpt>
<trkpt lat="33.810313" lon="-118.393867">
  <ele>-0.12</ele>
  <time>2026-09-01T01:12:45Z</time>
  <course>0.0</course>
  <speed>0.0</speed>
  <fix>3d</fix>
</trkpt>
<trkpt lat="33.810313" lon="-118.393867">
  <ele>-0.125</ele>
  <time>2026-09-01T01:12:45Z</time>
  <course>188.44</course>
  <speed>0.01</speed>
  <fix>3d</fix>
</trkpt>
<trkpt lat="33.810313" lon="-118.393867">
  <ele>-0.12</ele>
  <time>2026-09-01T01:12:45Z</time>
  <course>0.0</course>
  <speed>0.0</speed>
  <fix>3d</fix>
</trkpt>
<trkpt lat="33.810313" lon="-118.393867">
  <ele>-0.126</ele>
  <time>2026-09-01T01:12:45Z</time>
  <course>188.43</course>
  <speed>0.01</speed>
  <fix>3d</fix>
</trkpt>
<trkpt lat="33.810313" lon="-118.393867">
  <ele>-0.12</ele>
  <time>2026-09-01T01:12:45Z</time>
  <course>0.0</course>
  <speed>0.0</speed>
  <fix>3d</fix>
</trkpt>
<trkpt lat="33.810313" lon="-118.393867">
  <ele>-0.127</ele>
  <time>2026-09-01T01:12:45Z</time>
  <course>188.42</course>
  <speed>0.01</speed>
  <fix>3d</fix>
</trkpt>
<trkpt lat="33.810313" lon="-118.393867">
  <ele>-0.12</ele>
  <time>2026-09-01T01:12:45Z</time>
  <course>0.0</course>
  <speed>0.0</speed>
  <fix>3d</fix>
</trkpt>
<trkpt lat="33.810313" lon="-118.393867">
  <ele>-0.128</ele>
  <time>2026-09-01T01:12:45Z</time>
  <course>188.42</course>
  <speed>0.01</speed>
  <fix>3d</fix>
</trkpt>
<trkpt lat="33.810313" lon="-118.393867">
  <ele>-0.12</ele>
  <time>2026-09-01T01:12:45Z</time>
  <course>0.0</course>
  <speed>0.0</speed>
  <fix>3d</fix>
</trkpt>
<trkpt lat="33.810313" lon="-118.393867">
  <ele>-0.129</ele>
  <time>2026-09-01T01:12:45Z</time>
  <course>188.41</course>
  <speed>0.01</speed>
  <fix>3d</fix>
</trkpt>
<trkpt lat="33.810313" lon="-118.393867">
  <ele>-0.12</ele>
  <time>2026-09-01T01:12:45Z</time>
  <course>0.0</course>
  <speed>0.0</speed>
  <fix>3d</fix>
</trkpt>
<trkpt lat="33.810313" lon="-118.393867">
  <ele>-0.129</ele>
  <time>2026-09-01T01:12:45Z</time>
  <course>188.4</course>
  <speed>0.01</speed>
  <fix>3d</fix>
</trkpt>
<trkpt lat="33.810313" lon="-118.393867">
  <ele>-0.12</ele>
  <time>2026-09-01T01:12:45Z</time>
  <course>0.0</course>
  <speed>0.0</speed>
  <fix>3d</fix>
</trkpt>
<trkpt lat="33.810313" lon="-118.393867">
  <ele>-0.13</ele>
  <time>2026-09-01T01:12:45Z</time>
  <course>188.4</course>
  <speed>0.01414213562373095</speed>
  <fix>3d</fix>
</trkpt>
<trkpt lat="33.810313" lon="-118.393867">
  <ele>-0.12</ele>
  <time>2026-09-01T01:12:45Z</time>
  <course>0.0</course>
  <speed>0.0</speed>
  <fix>3d</fix>
</trkpt>
<trkpt lat="33.810313" lon="-118.393867">
  <ele>-0.13</ele>
  <time>2026-09-01T01:12:45Z</time>
  <course>188.39</course>
  <speed>0.01414213562373095</speed>
  <fix>3d</fix>
</trkpt>
<trkpt lat="33.810313" lon="-118.393867">
  <ele>-0.12</ele>
  <time>2026-09-01T01:12:45Z</time>
  <course>0.0</course>
  <speed>0.0</speed>
  <fix>3d</fix>
</trkpt>
<trkpt lat="33.810313" lon="-118.393867">
  <ele>-0.13</ele>
  <time>2026-09-01T01:12:45Z</time>
  <course>188.38</course>
  <speed>0.01414213562373095</speed>
  <fix>3d</fix>
</trkpt>
<trkpt lat="33.810313" lon="-118.393867">
  <ele>-0.12</ele>
  <time>2026-09-01T01:12:45Z</time>
  <course>0.0</course>
  <speed>0.0</speed>
  <fix>3d</fix>
</trkpt>
<trkpt lat="33.810313" lon="-118.393867">
  <ele>-0.129</ele>
  <time>2026-09-01T01:12:45Z</time>
  <course>188.37</course>
  <speed>0.01414213562373095</speed>
  <fix>3d</fix>
</trkpt>
<trkpt lat="33.810313" lon="-118.393867">
  <ele>-0.12</ele>
  <time>2026-09-01T01:12:45Z</time>
  <course>0.0</course>
  <speed>0.0</speed>
  <fix>3d</fix>
</trkpt>
<trkpt lat="33.810313" lon="-118.393867">
  <ele>-0.128</ele>
  <time>2026-09-01T01:12:45Z</time>
  <course>188.37</course>
  <speed>0.01414213562373095</speed>
  <fix>3d</fix>
</trkpt>
<trkpt lat="33.810313" lon="-118.393867">
  <ele>-0.12</ele>
  <time>2026-09-01T01:12:45Z</time>
  <course>0.0</course>
  <speed>0.0</speed>
  <fix>3d</fix>
</trkpt>
<trkpt lat="33.810313" lon="-118.393867">
  <ele>-0.126</ele>
  <time>2026-09-01T01:12:45Z</time>
  <course>188.36</course>
  <speed>0.01414213562373095</speed>
  <fix>3d</fix>
</trkpt>
<trkpt lat="33.810313" lon="-118.393867">
  <ele>-0.12</ele>
  <time>2026-09-01T01:12:45Z</time>
  <course>0.0</course>
  <speed>0.0</speed>
  <fix>3d</fix>
</trkpt>
<trkpt lat="33.810313" lon="-118.393867">
  <ele>-0.124</ele>
  <time>2026-09-01T01:12:45Z</time>
  <course>188.35</course>
  <speed>0.01414213562373095</speed>
  <fix>3d</fix>
</trkpt>
<trkpt lat="33.810313" lon="-118.393867">
  <ele>-0.12</ele>
  <time>2026-09-01T01:12:45Z</time>
  <course>0.0</course>
  <speed>0.0</speed>
  <fix>3d</fix>
</trkpt>
<trkpt lat="33.810313" lon="-118.393867">
  <ele>-0.122</ele>
  <time>2026-09-01T01:12:45Z</time>
  <course>188.34</course>
  <speed>0.01414213562373095</speed>
  <fix>3d</fix>
</trkpt>
<trkpt lat="33.810313" lon="-118.393867">
  <ele>-0.12</ele>
  <time>2026-09-01T01:12:45Z</time>
  <course>0.0</course>
  <speed>0.0</speed>
  <fix>3d</fix>
</trkpt>
<trkpt lat="33.810313" lon="-118.393867">
  <ele>-0.123</ele>
  <time>2026-09-01T01:12:45Z</time>
  <course>188.34</course>
  <speed>0.01414213562373095</speed>
  <fix>3d</fix>
</trkpt>
<trkpt lat="33.810313" lon="-118.393867">
  <ele>-0.12</ele>
  <time>2026-09-01T01:12:45Z</time>
  <course>0.0</course>
  <speed>0.0</speed>
  <fix>3d</fix>
</trkpt>
<trkpt lat="33.810313" lon="-118.393867">
  <ele>-0.125</ele>
  <time>2026-09-01T01:12:45Z</time>
  <course>188.33</course>
  <speed>0.01414213562373095</speed>
  <fix>3d</fix>
</trkpt>
<trkpt lat="33.810313" lon="-118.393867">
  <ele>-0.12</ele>
  <time>2026-09-01T01:12:45Z</time>
  <course>0.0</course>
  <speed>0.0</speed>
  <fix>3d</fix>
</trkpt>
<trkpt lat="33.810313" lon="-118.393867">
  <ele>-0.128</ele>
  <time>2026-09-01T01:12:45Z</time>
  <course>188.32</course>
  <speed>0.01414213562373095</speed>
  <fix>3d</fix>
</trkpt>
<trkpt lat="33.810313" lon="-118.393867">
  <ele>-0.12</ele>
  <time>2026-09-01T01:12:45Z</time>
  <course>0.0</course>
  <speed>0.0</speed>
  <fix>3d</fix>
</trkpt>
<trkpt lat="33.810313" lon="-118.393867">
  <ele>-0.131</ele>
  <time>2026-09-01T01:12:45Z</time>
  <course>188.31</course>
  <speed>0.01414213562373095</speed>
  <fix>3d</fix>
</trkpt>
<trkpt lat="33.810313" lon="-118.393867">
  <ele>-0.12</ele>
  <time>2026-09-01T01:12:45Z</time>
  <course>0.0</course>
  <speed>0.0</speed>
  <fix>3d</fix>
</trkpt>
<trkpt lat="33.810313" lon="-118.393867">
  <ele>-0.134</ele>
  <time>2026-09-01T01:12:45Z</time>
  <course>188.3</course>
  <speed>0.01414213562373095</speed>
  <fix>3d</fix>
</trkpt>
<trkpt lat="33.810313" lon="-118.393867">
  <ele>-0.12</ele>
  <time>2026-09-01T01:12:45Z</time>
  <course>0.0</course>
  <speed>0.0</speed>
  <fix>3d</fix>
</trkpt>
<trkpt lat="33.810313" lon="-118.393867">
  <ele>-0.135</ele>
  <time>2026-09-01T01:12:45Z</time>
  <course>188.3</course>
  <speed>0.01414213562373095</speed>
  <fix>3d</fix>
</trkpt>
<trkpt lat="33.810313" lon="-118.393867">
  <ele>-0.12</ele>
  <time>2026-09-01T01:12:45Z</time>
  <course>0.0</course>
  <speed>0.0</speed>
  <fix>3d</fix>
</trkpt>
<trkpt lat="33.810313" lon="-118.393867">
  <ele>-0.134</ele>
  <time>2026-09-01T01:12:45Z</time>
  <course>188.29</course>
  <speed>0.01414213562373095</speed>
  <fix>3d</fix>
</trkpt>
<trkpt lat="33.810313" lon="-118.393867">
  <ele>-0.12</ele>
  <time>2026-09-01T01:12:45Z</time>
  <course>0.0</course>
  <speed>0.0</speed>
  <fix>3d</fix>
</trkpt>
<trkpt lat="33.810313" lon="-118.393867">
  <ele>-0.132</ele>
  <time>2026-09-01T01:12:45Z</time>
  <course>188.28</course>
  <speed>0.01414213562373095</speed>
  <fix>3d</fix>
</trkpt>
<trkpt lat="33.810313" lon="-118.393867">
  <ele>-0.12</ele>
  <time>2026-09-01T01:12:45Z</time>
  <course>0.0</course>
  <speed>0.0</speed>
  <fix>3d</fix>
</trkpt>
<trkpt lat="33.810313" lon="-118.393867">
  <ele>-0.13</ele>
  <time>2026-09-01T01:12:45Z</time>
  <course>188.27</course>
  <speed>0.01414213562373095</speed>
  <fix>3d</fix>
</trkpt>
<trkpt lat="33.810313" lon="-118.393867">
  <ele>-0.12</ele>
  <time>2026-09-01T01:12:45Z</time>
  <course>0.0</course>
  <speed>0.0</speed>
  <fix>3d</fix>
</trkpt>
<trkpt lat="33.810313" lon="-118.393867">
  <ele>-0.127</ele>
  <time>2026-09-01T01:12:45Z</time>
  <course>188.26</course>
  <speed>0.01414213562373095</speed>
  <fix>3d</fix>
</trkpt>
<trkpt lat="33.810313" lon="-118.393867">
  <ele>-0.12</ele>
  <time>2026-09-01T01:12:45Z</time>
  <course>0.0</course>
  <speed>0.0</speed>
  <fix>3d</fix>
</trkpt>
<trkpt lat="33.810313" lon="-118.393867">
  <ele>-0.125</ele>
  <time>2026-09-01T01:12:45Z</time>
  <course>188.25</course>
  <speed>0.01414213562373095</speed>
  <fix>3d</fix>
</trkpt>
<trkpt lat="33.810313" lon="-118.393867">
  <ele>-0.12</ele>
  <time>2026-09-01T01:12:45Z</time>
  <course>0.0</course>
  <speed>0.0</speed>
  <fix>3d</fix>
</trkpt>
<trkpt lat="33.810313" lon="-118.393867">
  <ele>-0.123</ele>
  <time>2026-09-01T01:12:45Z</time>
  <course>188.25</course>
  <speed>0.01414213562373095</speed>
  <fix>3d</fix>
</trkpt>
<trkpt lat="33.810313" lon="-118.393867">
  <ele>-0.12</ele>
  <time>2026-09-01T01:12:45Z</time>
  <course>0.0</course>
  <speed>0.0</speed>
  <fix>3d</fix>
</trkpt>
<trkpt lat="33.810313" lon="-118.393867">
  <ele>-0.124</ele>
  <time>2026-09-01T01:12:45Z</time>
  <course>188.24</course>
  <speed>0.01414213562373095</speed>
  <fix>3d</fix>
</trkpt>
<trkpt lat="33.810313" lon="-118.393867">
  <ele>-0.12</ele>
  <time>2026-09-01T01:12:45Z</time>
  <course>0.0</course>
  <speed>0.0</speed>
  <fix>3d</fix>
</trkpt>
<trkpt lat="33.810313" lon="-118.393867">
  <ele>-0.125</ele>
  <time>2026-09-01T01:12:45Z</time>
  <course>188.23</course>
  <speed>0.01414213562373095</speed>
  <fix>3d</fix>
</trkpt>
<trkpt lat="33.810313" lon="-118.393867">
  <ele>-0.12</ele>
  <time>2026-09-01T01:12:45Z</time>
  <course>0.0</course>
  <speed>0.0</speed>
  <fix>3d</fix>
</trkpt>
<trkpt lat="33.810313" lon="-118.393867">
  <ele>-0.127</ele>
  <time>2026-09-01T01:12:45Z</time>
  <course>188.22</course>
  <speed>0.01414213562373095</speed>
  <fix>3d</fix>
</trkpt>
<trkpt lat="33.810313" lon="-118.393867">
  <ele>-0.12</ele>
  <time>2026-09-01T01:12:45Z</time>
  <course>0.0</course>
  <speed>0.0</speed>
  <fix>3d</fix>
</trkpt>
<trkpt lat="33.810313" lon="-118.393867">
  <ele>-0.128</ele>
  <time>2026-09-01T01:12:45Z</time>
  <course>188.21</course>
  <speed>0.01414213562373095</speed>
  <fix>3d</fix>
</trkpt>
<trkpt lat="33.810313" lon="-118.393867">
  <ele>-0.12</ele>
  <time>2026-09-01T01:12:45Z</time>
  <course>0.0</course>
  <speed>0.0</speed>
  <fix>3d</fix>
</trkpt>
<trkpt lat="33.810313" lon="-118.393867">
  <ele>-0.129</ele>
  <time>2026-09-01T01:12:45Z</time>
  <course>188.21</course>
  <speed>0.01414213562373095</speed>
  <fix>3d</fix>
</trkpt>
<trkpt lat="33.810313" lon="-118.393867">
  <ele>-0.12</ele>
  <time>2026-09-01T01:12:45Z</time>
  <course>0.0</course>
  <speed>0.0</speed>
  <fix>3d</fix>
</trkpt>
<trkpt lat="33.810313" lon="-118.393867">
  <ele>-0.129</ele>
  <time>2026-09-01T01:12:45Z</time>
  <course>188.2</course>
  <speed>0.01414213562373095</speed>
  <fix>3d</fix>
</trkpt>
<trkpt lat="33.810313" lon="-118.393867">
  <ele>-0.12</ele>
  <time>2026-09-01T01:12:45Z</time>
  <course>0.0</course>
  <speed>0.0</speed>
  <fix>3d</fix>
</trkpt>
<trkpt lat="33.810313" lon="-118.393867">
  <ele>-0.128</ele>
  <time>2026-09-01T01:12:45Z</time>
  <course>188.19</course>
  <speed>0.01414213562373095</speed>
  <fix>3d</fix>
</trkpt>
<trkpt lat="33.810313" lon="-118.393867">
  <ele>-0.12</ele>
  <time>2026-09-01T01:12:45Z</time>
  <course>0.0</course>
  <speed>0.0</speed>
  <fix>3d</fix>
</trkpt>
<trkpt lat="33.810313" lon="-118.393867">
  <ele>-0.128</ele>
  <time>2026-09-01T01:12:45Z</time>
  <course>188.18</course>
  <speed>0.01414213562373095</speed>
  <fix>3d</fix>
</trkpt>
<trkpt lat="33.810313" lon="-118.393867">
  <ele>-0.12</ele>
  <time>2026-09-01T01:12:45Z</time>
  <course>0.0</course>
  <speed>0.0</speed>
  <fix>3d</fix>
</trkpt>
<trkpt lat="33.810313" lon="-118.393867">
  <ele>-0.127</ele>
  <time>2026-09-01T01:12:45Z</time>
  <course>188.17</course>
  <speed>0.01414213562373095</speed>
  <fix>3d</fix>
</trkpt>
<trkpt lat="33.810313" lon="-118.393867">
  <ele>-0.12</ele>
  <time>2026-09-01T01:12:45Z</time>
  <course>0.0</course>
  <speed>0.0</speed>
  <fix>3d</fix>
</trkpt>
<trkpt lat="33.810313" lon="-118.393867">
  <ele>-0.127</ele>
  <time>2026-09-01T01:12:45Z</time>
  <course>188.16</course>
  <speed>0.01414213562373095</speed>
  <fix>3d</fix>
</trkpt>
<trkpt lat="33.810313" lon="-118.393867">
  <ele>-0.12</ele>
  <time>2026-09-01T01:12:45Z</time>
  <course>0.0</course>
  <speed>0.0</speed>
  <fix>3d</fix>
</trkpt>
<trkpt lat="33.810313" lon="-118.393867">
  <ele>-0.128</ele>
  <time>2026-09-01T01:12:45Z</time>
  <course>188.16</course>
  <speed>0.01414213562373095</speed>
  <fix>3d</fix>
</trkpt>
<trkpt lat="33.810313" lon="-118.393867">
  <ele>-0.12</ele>
  <time>2026-09-01T01:12:45Z</time>
  <course>0.0</course>
  <speed>0.0</speed>
  <fix>3d</fix>
</trkpt>
<trkpt lat="33.810313" lon="-118.393867">
  <ele>-0.129</ele>
  <time>2026-09-01T01:12:45Z</time>
  <course>188.15</course>
  <speed>0.01414213562373095</speed>
  <fix>3d</fix>
</trkpt>
<trkpt lat="33.810313" lon="-118.393867">
  <ele>-0.12</ele>
  <time>2026-09-01T01:12:45Z</time>
  <course>0.0</course>
  <speed>0.0</speed>
  <fix>3d</fix>
</trkpt>
<trkpt lat="33.810313" lon="-118.393867">
  <ele>-0.131</ele>
  <time>2026-09-01T01:12:45Z</time>
  <course>188.14</course>
  <speed>0.01414213562373095</speed>
  <fix>3d</fix>
</trkpt>
<trkpt lat="33.810313" lon="-118.393867">
  <ele>-0.12</ele>
  <time>2026-09-01T01:12:45Z</time>
  <course>0.0</course>
  <speed>0.0</speed>
  <fix>3d</fix>
</trkpt>
<trkpt lat="33.810313" lon="-118.393867">
  <ele>-0.133</ele>
  <time>2026-09-01T01:12:45Z</time>
  <course>188.13</course>
  <speed>0.01414213562373095</speed>
  <fix>3d</fix>
</trkpt>
<trkpt lat="33.810313" lon="-118.393867">
  <ele>-0.12</ele>
  <time>2026-09-01T01:12:45Z</time>
  <course>0.0</course>
  <speed>0.0</speed>
  <fix>3d</fix>
</trkpt>
<trkpt lat="33.810313" lon="-118.393867">
  <ele>-0.135</ele>
  <time>2026-09-01T01:12:45Z</time>
  <course>188.12</course>
  <speed>0.01414213562373095</speed>
  <fix>3d</fix>
</trkpt>
<trkpt lat="33.810313" lon="-118.393867">
  <ele>-0.12</ele>
  <time>2026-09-01T01:12:45Z</time>
  <course>0.0</course>
  <speed>0.0</speed>
  <fix>3d</fix>
</trkpt>
<trkpt lat="33.810313" lon="-118.393867">
  <ele>-0.136</ele>
  <time>2026-09-01T01:12:45Z</time>
  <course>188.12</course>
  <speed>0.01414213562373095</speed>
  <fix>3d</fix>
</trkpt>
<trkpt lat="33.810313" lon="-118.393867">
  <ele>-0.12</ele>
  <time>2026-09-01T01:12:45Z</time>
  <course>0.0</course>
  <speed>0.0</speed>
  <fix>3d</fix>
</trkpt>
<trkpt lat="33.810313" lon="-118.393867">
  <ele>-0.136</ele>
  <time>2026-09-01T01:12:45Z</time>
  <course>188.11</course>
  <speed>0.01414213562373095</speed>
  <fix>3d</fix>
</trkpt>
<trkpt lat="33.810313" lon="-118.393867">
  <ele>-0.12</ele>
  <time>2026-09-01T01:12:45Z</time>
  <course>0.0</course>
  <speed>0.0</speed>
  <fix>3d</fix>
</trkpt>
<trkpt lat="33.810313" lon="-118.393867">
  <ele>-0.136</ele>
  <time>2026-09-01T01:12:45Z</time>
  <course>188.1</course>
  <speed>0.01414213562373095</speed>
  <fix>3d</fix>
</trkpt>
<trkpt lat="33.810313" lon="-118.393867">
  <ele>-0.12</ele>
  <time>2026-09-01T01:12:45Z</time>
  <course>0.0</course>
  <speed>0.0</speed>
  <fix>3d</fix>
</trkpt>
<trkpt lat="33.810313" lon="-118.393867">
  <ele>-0.135</ele>
  <time>2026-09-01T01:12:45Z</time>
  <course>188.09</course>
  <speed>0.01414213562373095</speed>
  <fix>3d</fix>
</trkpt>
<trkpt lat="33.810313" lon="-118.393867">
  <ele>-0.12</ele>
  <time>2026-09-01T01:12:45Z</time>
  <course>0.0</course>
  <speed>0.0</speed>
  <fix>3d</fix>
</trkpt>
<trkpt lat="33.810313" lon="-118.393867">
  <ele>-0.134</ele>
  <time>2026-09-01T01:12:45Z</time>
  <course>188.08</course>
  <speed>0.01414213562373095</speed>
  <fix>3d</fix>
</trkpt>
<trkpt lat="33.810313" lon="-118.393867">
  <ele>-0.12</ele>
  <time>2026-09-01T01:12:45Z</time>
  <course>0.0</course>
  <speed>0.0</speed>
  <fix>3d</fix>
</trkpt>
<trkpt lat="33.810313" lon="-118.393867">
  <ele>-0.131</ele>
  <time>2026-09-01T01:12:45Z</time>
  <course>188.07</course>
  <speed>0.022360679774997897</speed>
  <fix>3d</fix>
</trkpt>
<trkpt lat="33.810313" lon="-118.393867">
  <ele>-0.12</ele>
  <time>2026-09-01T01:12:45Z</time>
  <course>0.0</course>
  <speed>0.0</speed>
  <fix>3d</fix>
</trkpt>
<trkpt lat="33.810313" lon="-118.393867">
  <ele>-0.128</ele>
  <time>2026-09-01T01:12:45Z</time>
  <course>188.07</course>
  <speed>0.022360679774997897</speed>
  <fix>3d</fix>
</trkpt>
<trkpt lat="33.810313" lon="-118.393867">
  <ele>-0.12</ele>
  <time>2026-09-01T01:12:45Z</time>
  <course>0.0</course>
  <speed>0.0</speed>
  <fix>3d</fix>
</trkpt>
<trkpt lat="33.810313" lon="-118.393867">
  <ele>-0.127</ele>
  <time>2026-09-01T01:12:45Z</time>
  <course>188.06</course>
  <speed>0.022360679774997897</speed>
  <fix>3d</fix>
</trkpt>
<trkpt lat="33.810313" lon="-118.393867">
  <ele>-0.12</ele>
  <time>2026-09-01T01:12:45Z</time>
  <course>0.0</course>
  <speed>0.0</speed>
  <fix>3d</fix>
</trkpt>
<trkpt lat="33.810313" lon="-118.393867">
  <ele>-0.126</ele>
  <time>2026-09-01T01:12:45Z</time>
  <course>188.05</course>
  <speed>0.022360679774997897</speed>
  <fix>3d</fix>
</trkpt>
<trkpt lat="33.810313" lon="-118.393867">
  <ele>-0.12</ele>
  <time>2026-09-01T01:12:45Z</time>
  <course>0.0</course>
  <speed>0.0</speed>
  <fix>3d</fix>
</trkpt>
<trkpt lat="33.810313" lon="-118.393867">
  <ele>-0.126</ele>
  <time>2026-09-01T01:12:45Z</time>
  <course>188.04</course>
  <speed>0.022360679774997897</speed>
  <fix>3d</fix>
</trkpt>
<trkpt lat="33.810313" lon="-118.393867">
  <ele>-0.12</ele>
  <time>2026-09-01T01:12:45Z</time>
  <course>0.0</course>
  <speed>0.0</speed>
  <fix>3d</fix>
</trkpt>
<trkpt lat="33.810313" lon="-118.393867">
  <ele>-0.127</ele>
  <time>2026-09-01T01:12:45Z</time>
  <course>188.03</course>
  <speed>0.022360679774997897</speed>
  <fix>3d</fix>
</trkpt>
<trkpt lat="33.810313" lon="-118.393867">
  <ele>-0.12</ele>
  <time>2026-09-01T01:12:45Z</time>
  <course>0.0</course>
  <speed>0.0</speed>
  <fix>3d</fix>
</trkpt>
<trkpt lat="33.810313" lon="-118.393867">
  <ele>-0.127</ele>
  <time>2026-09-01T01:12:45Z</time>
  <course>188.03</course>
  <speed>0.022360679774997897</speed>
  <fix>3d</fix>
</trkpt>
<trkpt lat="33.810313" lon="-118.393867">
  <ele>-0.12</ele>
  <time>2026-09-01T01:12:45Z</time>
  <course>0.0</course>
  <speed>0.0</speed>
  <fix>3d</fix>
</trkpt>
<trkpt lat="33.810313" lon="-118.393867">
  <ele>-0.127</ele>
  <time>2026-09-01T01:12:45Z</time>
  <course>188.02</course>
  <speed>0.022360679774997897</speed>
  <fix>3d</fix>
</trkpt>
<trkpt lat="33.810313" lon="-118.393867">
  <ele>-0.12</ele>
  <time>2026-09-01T01:12:45Z</time>
  <course>0.0</course>
  <speed>0.0</speed>
  <fix>3d</fix>
</trkpt>
<trkpt lat="33.810313" lon="-118.393867">
  <ele>-0.128</ele>
  <time>2026-09-01T01:12:45Z</time>
  <course>188.01</course>
  <speed>0.022360679774997897</speed>
  <fix>3d</fix>
</trkpt>
<trkpt lat="33.810313" lon="-118.393867">
  <ele>-0.12</ele>
  <time>2026-09-01T01:12:45Z</time>
  <course>0.0</course>
  <speed>0.0</speed>
  <fix>3d</fix>
</trkpt>
<trkpt lat="33.810313" lon="-118.393867">
  <ele>-0.128</ele>
  <time>2026-09-01T01:12:45Z</time>
  <course>188.0</course>
  <speed>0.022360679774997897</speed>
  <fix>3d</fix>
</trkpt>
<trkpt lat="33.810313" lon="-118.393867">
  <ele>-0.12</ele>
  <time>2026-09-01T01:12:45Z</time>
  <course>0.0</course>
  <speed>0.0</speed>
  <fix>3d</fix>
</trkpt>
<trkpt lat="33.810313" lon="-118.393867">
  <ele>-0.128</ele>
  <time>2026-09-01T01:12:45Z</time>
  <course>187.99</course>
  <speed>0.022360679774997897</speed>
  <fix>3d</fix>
</trkpt>
<trkpt lat="33.810313" lon="-118.393867">
  <ele>-0.12</ele>
  <time>2026-09-01T01:12:45Z</time>
  <course>0.0</course>
  <speed>0.0</speed>
  <fix>3d</fix>
</trkpt>
<trkpt lat="33.810313" lon="-118.393867">
  <ele>-0.126</ele>
  <time>2026-09-01T01:12:45Z</time>
  <course>187.99</course>
  <speed>0.022360679774997897</speed>
  <fix>3d</fix>
</trkpt>
<trkpt lat="33.810313" lon="-118.393867">
  <ele>-0.12</ele>
  <time>2026-09-01T01:12:45Z</time>
  <course>0.0</course>
  <speed>0.0</speed>
  <fix>3d</fix>
</trkpt>
<trkpt lat="33.810313" lon="-118.393867">
  <ele>-0.124</ele>
  <time>2026-09-01T01:12:45Z</time>
  <course>187.98</course>
  <speed>0.022360679774997897</speed>
  <fix>3d</fix>
</trkpt>
<trkpt lat="33.810313" lon="-118.393867">
  <ele>-0.12</ele>
  <time>2026-09-01T01:12:45Z</time>
  <course>0.0</course>
  <speed>0.0</speed>
  <fix>3d</fix>
</trkpt>
<trkpt lat="33.810313" lon="-118.393867">
  <ele>-0.122</ele>
  <time>2026-09-01T01:12:45Z</time>
  <course>187.97</course>
  <speed>0.022360679774997897</speed>
  <fix>3d</fix>
</trkpt>
<trkpt lat="33.810313" lon="-118.393867">
  <ele>-0.12</ele>
  <time>2026-09-01T01:12:45Z</time>
  <course>0.0</course>
  <speed>0.0</speed>
  <fix>3d</fix>
</trkpt>
<trkpt lat="33.810313" lon="-118.393867">
  <ele>-0.12</ele>
  <time>2026-09-01T01:12:45Z</time>
  <course>187.96</course>
  <speed>0.022360679774997897</speed>
  <fix>3d</fix>
</trkpt>
<trkpt lat="33.810313" lon="-118.393867">
  <ele>-0.12</ele>
  <time>2026-09-01T01:12:45Z</time>
  <course>0.0</course>
  <speed>0.0</speed>
  <fix>3d</fix>
</trkpt>
<trkpt lat="33.810313" lon="-118.393867">
  <ele>-0.12</ele>
  <time>2026-09-01T01:12:45Z</time>
  <course>187.95</course>
  <speed>0.022360679774997897</speed>
  <fix>3d</fix>
</trkpt>
<trkpt lat="33.810313" lon="-118.393867">
  <ele>-0.12</ele>
  <time>2026-09-01T01:12:45Z</time>
  <course>0.0</course>
  <speed>0.0</speed>
  <fix>3d</fix>
</trkpt>
<trkpt lat="33.810313" lon="-118.393867">
  <ele>-0.122</ele>
  <time>2026-09-01T01:12:45Z</time>
  <course>187.94</course>
  <speed>0.022360679774997897</speed>
  <fix>3d</fix>
</trkpt>
<trkpt lat="33.810313" lon="-118.393867">
  <ele>-0.12</ele>
  <time>2026-09-01T01:12:45Z</time>
  <course>0.0</course>
  <speed>0.0</speed>
  <fix>3d</fix>
</trkpt>
<trkpt lat="33.810313" lon="-118.393867">
  <ele>-0.125</ele>
  <time>2026-09-01T01:12:45Z</time>
  <course>187.94</course>
  <speed>0.022360679774997897</speed>
  <fix>3d</fix>
</trkpt>
<trkpt lat="33.810313" lon="-118.393867">
  <ele>-0.12</ele>
  <time>2026-09-01T01:12:45Z</time>
  <course>0.0</course>
  <speed>0.0</speed>
  <fix>3d</fix>
</trkpt>
<trkpt lat="33.810313" lon="-118.393867">
  <ele>-0.128</ele>
  <time>2026-09-01T01:12:45Z</time>
  <course>187.93</course>
  <speed>0.022360679774997897</speed>
  <fix>3d</fix>
</trkpt>
<trkpt lat="33.810313" lon="-118.393867">
  <ele>-0.12</ele>
  <time>2026-09-01T01:12:45Z</time>
  <course>0.0</course>
  <speed>0.0</speed>
  <fix>3d</fix>
</trkpt>
<trkpt lat="33.810313" lon="-118.393867">
  <ele>-0.131</ele>
  <time>2026-09-01T01:12:45Z</time>
  <course>187.92</course>
  <speed>0.022360679774997897</speed>
  <fix>3d</fix>
</trkpt>
<trkpt lat="33.810313" lon="-118.393867">
  <ele>-0.12</ele>
  <time>2026-09-01T01:12:45Z</time>
  <course>0.0</course>
  <speed>0.0</speed>
  <fix>3d</fix>
</trkpt>
<trkpt lat="33.810313" lon="-118.393867">
  <ele>-0.132</ele>
  <time>2026-09-01T01:12:45Z</time>
  <course>187.91</course>
  <speed>0.022360679774997897</speed>
  <fix>3d</fix>
</trkpt>
<trkpt lat="33.810313" lon="-118.393867">
  <ele>-0.12</ele>
  <time>2026-09-01T01:12:45Z</time>
  <course>0.0</course>
  <speed>0.0</speed>
  <fix>3d</fix>
</trkpt>
<trkpt lat="33.810313" lon="-118.393867">
  <ele>-0.132</ele>
  <time>2026-09-01T01:12:45Z</time>
  <course>187.91</course>
  <speed>0.022360679774997897</speed>
  <fix>3d</fix>
</trkpt>
<trkpt lat="33.810313" lon="-118.393867">
  <ele>-0.12</ele>
  <time>2026-09-01T01:12:45Z</time>
  <course>0.0</course>
  <speed>0.0</speed>
  <fix>3d</fix>
</trkpt>
<trkpt lat="33.810313" lon="-118.393867">
  <ele>-0.132</ele>
  <time>2026-09-01T01:12:45Z</time>
  <course>187.9</course>
  <speed>0.022360679774997897</speed>
  <fix>3d</fix>
</trkpt>
<trkpt lat="33.810313" lon="-118.393867">
  <ele>-0.12</ele>
  <time>2026-09-01T01:12:45Z</time>
  <course>0.0</course>
  <speed>0.0</speed>
  <fix>3d</fix>
</trkpt>
<trkpt lat="33.810313" lon="-118.393867">
  <ele>-0.13</ele>
  <time>2026-09-01T01:12:45Z</time>
  <course>187.89</course>
  <speed>0.022360679774997897</speed>
  <fix>3d</fix>
</trkpt>
<trkpt lat="33.810313" lon="-118.393867">
  <ele>-0.12</ele>
  <time>2026-09-01T01:12:45Z</time>
  <course>0.0</course>
  <speed>0.0</speed>
  <fix>3d</fix>
</trkpt>
<trkpt lat="33.810313" lon="-118.393867">
  <ele>-0.127</ele>
  <time>2026-09-01T01:12:45Z</time>
  <course>187.88</course>
  <speed>0.022360679774997897</speed>
  <fix>3d</fix>
</trkpt>
<trkpt lat="33.810313" lon="-118.393867">
  <ele>-0.12</ele>
  <time>2026-09-01T01:12:45Z</time>
  <course>0.0</course>
  <speed>0.0</speed>
  <fix>3d</fix>
</trkpt>
<trkpt lat="33.810313" lon="-118.393867">
  <ele>-0.123</ele>
  <time>2026-09-01T01:12:45Z</time>
  <course>187.87</course>
  <speed>0.022360679774997897</speed>
  <fix>3d</fix>
</trkpt>
<trkpt lat="33.810313" lon="-118.393867">
  <ele>-0.12</ele>
  <time>2026-09-01T01:12:45Z</time>
  <course>0.0</course>
  <speed>0.0</speed>
  <fix>3d</fix>
</trkpt>
<trkpt lat="33.810313" lon="-118.393867">
  <ele>-0.121</ele>
  <time>2026-09-01T01:12:45Z</time>
  <course>187.87</course>
  <speed>0.022360679774997897</speed>
  <fix>3d</fix>
</trkpt>
<trkpt lat="33.810313" lon="-118.393867">
  <ele>-0.12</ele>
  <time>2026-09-01T01:12:45Z</time>
  <course>0.0</course>
  <speed>0.0</speed>
  <fix>3d</fix>
</trkpt>
<trkpt lat="33.810313" lon="-118.393867">
  <ele>-0.121</ele>
  <time>2026-09-01T01:12:45Z</time>
  <course>187.86</course>
  <speed>0.022360679774997897</speed>
  <fix>3d</fix>
</trkpt>
<trkpt lat="33.810313" lon="-118.393867">
  <ele>-0.12</ele>
  <time>2026-09-01T01:12:45Z</time>
  <course>0.0</course>
  <speed>0.0</speed>
  <fix>3d</fix>
</trkpt>
<trkpt lat="33.810313" lon="-118.393867">
  <ele>-0.123</ele>
  <time>2026-09-01T01:12:45Z</time>
  <course>187.85</course>
  <speed>0.022360679774997897</speed>
  <fix>3d</fix>
</trkpt>
<trkpt lat="33.810313" lon="-118.393867">
  <ele>-0.12</ele>
  <time>2026-09-01T01:12:45Z</time>
  <course>0.0</course>
  <speed>0.0</speed>
  <fix>3d</fix>
</trkpt>
<trkpt lat="33.810313" lon="-118.393867">
  <ele>-0.124</ele>
  <time>2026-09-01T01:12:45Z</time>
  <course>187.84</course>
  <speed>0.022360679774997897</speed>
  <fix>3d</fix>
</trkpt>
<trkpt lat="33.810313" lon="-118.393867">
  <ele>-0.12</ele>
  <time>2026-09-01T01:12:45Z</time>
  <course>0.0</course>
  <speed>0.0</speed>
  <fix>3d</fix>
</trkpt>
<trkpt lat="33.810313" lon="-118.393867">
  <ele>-0.126</ele>
  <time>2026-09-01T01:12:45Z</time>
  <course>187.83</course>
  <speed>0.022360679774997897</speed>
  <fix>3d</fix>
</trkpt>
<trkpt lat="33.810313" lon="-118.393867">
  <ele>-0.12</ele>
  <time>2026-09-01T01:12:45Z</time>
  <course>0.0</course>
  <speed>0.0</speed>
  <fix>3d</fix>
</trkpt>
<trkpt lat="33.810313" lon="-118.393867">
  <ele>-0.127</ele>
  <time>2026-09-01T01:12:45Z</time>
  <course>187.83</course>
  <speed>0.022360679774997897</speed>
  <fix>3d</fix>
</trkpt>
<trkpt lat="33.810313" lon="-118.393867">
  <ele>-0.12</ele>
  <time>2026-09-01T01:12:45Z</time>
  <course>0.0</course>
  <speed>0.0</speed>
  <fix>3d</fix>
</trkpt>
<trkpt lat="33.810313" lon="-118.393867">
  <ele>-0.127</ele>
  <time>2026-09-01T01:12:45Z</time>
  <course>187.82</course>
  <speed>0.022360679774997897</speed>
  <fix>3d</fix>
</trkpt>
<trkpt lat="33.810313" lon="-118.393867">
  <ele>-0.12</ele>
  <time>2026-09-01T01:12:45Z</time>
  <course>0.0</course>
  <speed>0.0</speed>
  <fix>3d</fix>
</trkpt>
<trkpt lat="33.810313" lon="-118.393867">
  <ele>-0.127</ele>
  <time>2026-09-01T01:12:45Z</time>
  <course>187.81</course>
  <speed>0.022360679774997897</speed>
  <fix>3d</fix>
</trkpt>
<trkpt lat="33.810313" lon="-118.393867">
  <ele>-0.12</ele>
  <time>2026-09-01T01:12:45Z</time>
  <course>0.0</course>
  <speed>0.0</speed>
  <fix>3d</fix>
</trkpt>
<trkpt lat="33.810313" lon="-118.393867">
  <ele>-0.126</ele>
  <time>2026-09-01T01:12:45Z</time>
  <course>187.8</course>
  <speed>0.022360679774997897</speed>
  <fix>3d</fix>
</trkpt>
<trkpt lat="33.810313" lon="-118.393867">
  <ele>-0.12</ele>
  <time>2026-09-01T01:12:45Z</time>
  <course>0.0</course>
  <speed>0.0</speed>
  <fix>3d</fix>
</trkpt>
<trkpt lat="33.810313" lon="-118.393867">
  <ele>-0.124</ele>
  <time>2026-09-01T01:12:45Z</time>
  <course>187.8</course>
  <speed>0.022360679774997897</speed>
  <fix>3d</fix>
</trkpt>
<trkpt lat="33.810313" lon="-118.393867">
  <ele>-0.12</ele>
  <time>2026-09-01T01:12:45Z</time>
  <course>0.0</course>
  <speed>0.0</speed>
  <fix>3d</fix>
</trkpt>
<trkpt lat="33.810313" lon="-118.393867">
  <ele>-0.121</ele>
  <time>2026-09-01T01:12:45Z</time>
  <course>187.79</course>
  <speed>0.022360679774997897</speed>
  <fix>3d</fix>
</trkpt>
<trkpt lat="33.810313" lon="-118.393867">
  <ele>-0.12</ele>
  <time>2026-09-01T01:12:45Z</time>
  <course>0.0</course>
  <speed>0.0</speed>
  <fix>3d</fix>
</trkpt>
<trkpt lat="33.810313" lon="-118.393867">
  <ele>-0.119</ele>
  <time>2026-09-01T01:12:45Z</time>
  <course>187.78</course>
  <speed>0.022360679774997897</speed>
  <fix>3d</fix>
</trkpt>
<trkpt lat="33.810313" lon="-118.393867">
  <ele>-0.12</ele>
  <time>2026-09-01T01:12:45Z</time>
  <course>0.0</course>
  <speed>0.0</speed>
  <fix>3d</fix>
</trkpt>
<trkpt lat="33.810313" lon="-118.393867">
  <ele>-0.118</ele>
  <time>2026-09-01T01:12:45Z</time>
  <course>187.77</course>
  <speed>0.022360679774997897</speed>
  <fix>3d</fix>
</trkpt>
<trkpt lat="33.810313" lon="-118.393867">
  <ele>-0.12</ele>
  <time>2026-09-01T01:12:45Z</time>
  <course>0.0</course>
  <speed>0.0</speed>
  <fix>3d</fix>
</trkpt>
<trkpt lat="33.810313" lon="-118.393867">
  <ele>-0.118</ele>
  <time>2026-09-01T01:12:45Z</time>
  <course>187.77</course>
  <speed>0.022360679774997897</speed>
  <fix>3d</fix>
</trkpt>
<trkpt lat="33.810313" lon="-118.393867">
  <ele>-0.12</ele>
  <time>2026-09-01T01:12:45Z</time>
  <course>0.0</course>
  <speed>0.0</speed>
  <fix>3d</fix>
</trkpt>
<trkpt lat="33.810313" lon="-118.393867">
  <ele>-0.119</ele>
  <time>2026-09-01T01:12:45Z</time>
  <course>187.76</course>
  <speed>0.022360679774997897</speed>
  <fix>3d</fix>
</trkpt>
<trkpt lat="33.810313" lon="-118.393867">
  <ele>-0.12</ele>
  <time>2026-09-01T01:12:45Z</time>
  <course>0.0</course>
  <speed>0.0</speed>
  <fix>3d</fix>
</trkpt>
<trkpt lat="33.810313" lon="-118.393867">
  <ele>-0.12</ele>
  <time>2026-09-01T01:12:45Z</time>
  <course>187.75</course>
  <speed>0.022360679774997897</speed>
  <fix>3d</fix>
</trkpt>
<trkpt lat="33.810313" lon="-118.393867">
  <ele>-0.12</ele>
  <time>2026-09-01T01:12:45Z</time>
  <course>0.0</course>
  <speed>0.0</speed>
  <fix>3d</fix>
</trkpt>
<trkpt lat="33.810313" lon="-118.393867">
  <ele>-0.12</ele>
  <time>2026-09-01T01:12:45Z</time>
  <course>187.74</course>
  <speed>0.0282842712474619</speed>
  <fix>3d</fix>
</trkpt>
<trkpt lat="33.810313" lon="-118.393867">
  <ele>-0.12</ele>
  <time>2026-09-01T01:12:45Z</time>
  <course>0.0</course>
  <speed>0.0</speed>
  <fix>3d</fix>
</trkpt>
<trkpt lat="33.810313" lon="-118.393867">
  <ele>-0.12</ele>
  <time>2026-09-01T01:12:45Z</time>
  <course>187.74</course>
  <speed>0.0282842712474619</speed>
  <fix>3d</fix>
</trkpt>
<trkpt lat="33.810313" lon="-118.393867">
  <ele>-0.12</ele>
  <time>2026-09-01T01:12:45Z</time>
  <course>0.0</course>
  <speed>0.0</speed>
  <fix>3d</fix>
</trkpt>
<trkpt lat="33.810313" lon="-118.393867">
  <ele>-0.119</ele>
  <time>2026-09-01T01:12:45Z</time>
  <course>187.73</course>
  <speed>0.0282842712474619</speed>
  <fix>3d</fix>
</trkpt>
<trkpt lat="33.810313" lon="-118.393867">
  <ele>-0.12</ele>
  <time>2026-09-01T01:12:45Z</time>
  <course>0.0</course>
  <speed>0.0</speed>
  <fix>3d</fix>
</trkpt>
<trkpt lat="33.810313" lon="-118.393867">
  <ele>-0.118</ele>
  <time>2026-09-01T01:12:45Z</time>
  <course>187.72</course>
  <speed>0.0282842712474619</speed>
  <fix>3d</fix>
</trkpt>
<trkpt lat="33.810313" lon="-118.393867">
  <ele>-0.12</ele>
  <time>2026-09-01T01:12:45Z</time>
  <course>0.0</course>
  <speed>0.0</speed>
  <fix>3d</fix>
</trkpt>
<trkpt lat="33.810313" lon="-118.393867">
  <ele>-0.116</ele>
  <time>2026-09-01T01:12:45Z</time>
  <course>187.71</course>
  <speed>0.0282842712474619</speed>
  <fix>3d</fix>
</trkpt>
<trkpt lat="33.810313" lon="-118.393867">
  <ele>-0.12</ele>
  <time>2026-09-01T01:12:45Z</time>
  <course>0.0</course>
  <speed>0.0</speed>
  <fix>3d</fix>
</trkpt>
<trkpt lat="33.810313" lon="-118.393867">
  <ele>-0.114</ele>
  <time>2026-09-01T01:12:45Z</time>
  <course>187.71</course>
  <speed>0.0282842712474619</speed>
  <fix>3d</fix>
</trkpt>
<trkpt lat="33.810313" lon="-118.393867">
  <ele>-0.12</ele>
  <time>2026-09-01T01:12:45Z</time>
  <course>0.0</course>
  <speed>0.0</speed>
  <fix>3d</fix>
</trkpt>
<trkpt lat="33.810313" lon="-118.393867">
  <ele>-0.112</ele>
  <time>2026-09-01T01:12:45Z</time>
  <course>187.7</course>
  <speed>0.0282842712474619</speed>
  <fix>3d</fix>
</trkpt>
<trkpt lat="33.810313" lon="-118.393867">
  <ele>-0.12</ele>
  <time>2026-09-01T01:12:45Z</time>
  <course>0.0</course>
  <speed>0.0</speed>
  <fix>3d</fix>
</trkpt>
<trkpt lat="33.810313" lon="-118.393867">
  <ele>-0.113</ele>
  <time>2026-09-01T01:12:45Z</time>
  <course>187.69</course>
  <speed>0.0282842712474619</speed>
  <fix>3d</fix>
</trkpt>
<trkpt lat="33.810313" lon="-118.393867">
  <ele>-0.12</ele>
  <time>2026-09-01T01:12:45Z</time>
  <course>0.0</course>
  <speed>0.0</speed>
  <fix>3d</fix>
</trkpt>
<trkpt lat="33.810313" lon="-118.393867">
  <ele>-0.115</ele>
  <time>2026-09-01T01:12:45Z</time>
  <course>187.69</course>
  <speed>0.0282842712474619</speed>
  <fix>3d</fix>
</trkpt>
<trkpt lat="33.810313" lon="-118.393867">
  <ele>-0.12</ele>
  <time>2026-09-01T01:12:45Z</time>
  <course>0.0</course>
  <speed>0.0</speed>
  <fix>3d</fix>
</trkpt>
<trkpt lat="33.810313" lon="-118.393867">
  <ele>-0.119</ele>
  <time>2026-09-01T01:12:45Z</time>
  <course>187.68</course>
  <speed>0.0282842712474619</speed>
  <fix>3d</fix>
</trkpt>
<trkpt lat="33.810313" lon="-118.393867">
  <ele>-0.12</ele>
  <time>2026-09-01T01:12:45Z</time>
  <course>0.0</course>
  <speed>0.0</speed>
  <fix>3d</fix>
</trkpt>
<trkpt lat="33.810313" lon="-118.393867">
  <ele>-0.123</ele>
  <time>2026-09-01T01:12:45Z</time>
  <course>187.67</course>
  <speed>0.0282842712474619</speed>
  <fix>3d</fix>
</trkpt>
<trkpt lat="33.810313" lon="-118.393867">
  <ele>-0.12</ele>
  <time>2026-09-01T01:12:45Z</time>
  <course>0.0</course>
  <speed>0.0</speed>
  <fix>3d</fix>
</trkpt>
<trkpt lat="33.810313" lon="-118.393867">
  <ele>-0.128</ele>
  <time>2026-09-01T01:12:45Z</time>
  <course>187.66</course>
  <speed>0.0282842712474619</speed>
  <fix>3d</fix>
</trkpt>
<trkpt lat="33.810313" lon="-118.393867">
  <ele>-0.12</ele>
  <time>2026-09-01T01:12:45Z</time>
  <course>0.0</course>
  <speed>0.0</speed>
  <fix>3d</fix>
</trkpt>
<trkpt lat="33.810313" lon="-118.393867">
  <ele>-0.132</ele>
  <time>2026-09-01T01:12:45Z</time>
  <course>187.66</course>
  <speed>0.0282842712474619</speed>
  <fix>3d</fix>
</trkpt>
<trkpt lat="33.810313" lon="-118.393867">
  <ele>-0.12</ele>
  <time>2026-09-01T01:12:45Z</time>
  <course>0.0</course>
  <speed>0.0</speed>
  <fix>3d</fix>
</trkpt>
<trkpt lat="33.810313" lon="-118.393867">
  <ele>-0.134</ele>
  <time>2026-09-01T01:12:45Z</time>
  <course>187.65</course>
  <speed>0.0282842712474619</speed>
  <fix>3d</fix>
</trkpt>
<trkpt lat="33.810313" lon="-118.393867">
  <ele>-0.12</ele>
  <time>2026-09-01T01:12:45Z</time>
  <course>0.0</course>
  <speed>0.0</speed>
  <fix>3d</fix>
</trkpt>
<trkpt lat="33.810313" lon="-118.393867">
  <ele>-0.135</ele>
  <time>2026-09-01T01:12:45Z</time>
  <course>187.64</course>
  <speed>0.0282842712474619</speed>
  <fix>3d</fix>
</trkpt>
<trkpt lat="33.810313" lon="-118.393867">
  <ele>-0.12</ele>
  <time>2026-09-01T01:12:45Z</time>
  <course>0.0</course>
  <speed>0.0</speed>
  <fix>3d</fix>
</trkpt>
<trkpt lat="33.810313" lon="-118.393867">
  <ele>-0.135</ele>
  <time>2026-09-01T01:12:45Z</time>
  <course>187.64</course>
  <speed>0.0282842712474619</speed>
  <fix>3d</fix>
</trkpt>
<trkpt lat="33.810313" lon="-118.393867">
  <ele>-0.12</ele>
  <time>2026-09-01T01:12:45Z</time>
  <course>0.0</course>
  <speed>0.0</speed>
  <fix>3d</fix>
</trkpt>
<trkpt lat="33.810313" lon="-118.393867">
  <ele>-0.133</ele>
  <time>2026-09-01T01:12:45Z</time>
  <course>187.63</course>
  <speed>0.0282842712474619</speed>
  <fix>3d</fix>
</trkpt>
<trkpt lat="33.810313" lon="-118.393867">
  <ele>-0.12</ele>
  <time>2026-09-01T01:12:45Z</time>
  <course>0.0</course>
  <speed>0.0</speed>
  <fix>3d</fix>
</trkpt>
<trkpt lat="33.810313" lon="-118.393867">
  <ele>-0.132</ele>
  <time>2026-09-01T01:12:45Z</time>
  <course>187.63</course>
  <speed>0.0282842712474619</speed>
  <fix>3d</fix>
</trkpt>
<trkpt lat="33.810313" lon="-118.393867">
  <ele>-0.12</ele>
  <time>2026-09-01T01:12:45Z</time>
  <course>0.0</course>
  <speed>0.0</speed>
  <fix>3d</fix>
</trkpt>
<trkpt lat="33.810313" lon="-118.393867">
  <ele>-0.132</ele>
  <time>2026-09-01T01:12:45Z</time>
  <course>187.62</course>
  <speed>0.03605551275463989</speed>
  <fix>3d</fix>
</trkpt>
<trkpt lat="33.810313" lon="-118.393867">
  <ele>-0.12</ele>
  <time>2026-09-01T01:12:45Z</time>
  <course>0.0</course>
  <speed>0.0</speed>
  <fix>3d</fix>
</trkpt>
<trkpt lat="33.810313" lon="-118.393867">
  <ele>-0.132</ele>
  <time>2026-09-01T01:12:46Z</time>
  <course>187.61</course>
  <speed>0.03605551275463989</speed>
  <fix>3d</fix>
</trkpt>
<trkpt lat="33.810313" lon="-118.393867">
  <ele>-0.12</ele>
  <time>2026-09-01T01:12:46Z</time>
  <course>0.0</course>
  <speed>0.0</speed>
  <fix>3d</fix>
</trkpt>
<trkpt lat="33.810313" lon="-118.393867">
  <ele>-0.133</ele>
  <time>2026-09-01T01:12:46Z</time>
  <course>187.61</course>
  <speed>0.03605551275463989</speed>
  <fix>3d</fix>
</trkpt>
<trkpt lat="33.810313" lon="-118.393867">
  <ele>-0.12</ele>
  <time>2026-09-01T01:12:46Z</time>
  <course>0.0</course>
  <speed>0.0</speed>
  <fix>3d</fix>
</trkpt>
<trkpt lat="33.810313" lon="-118.393867">
  <ele>-0.134</ele>
  <time>2026-09-01T01:12:46Z</time>
  <course>187.6</course>
  <speed>0.03605551275463989</speed>
  <fix>3d</fix>
</trkpt>
<trkpt lat="33.810313" lon="-118.393867">
  <ele>-0.12</ele>
  <time>2026-09-01T01:12:46Z</time>
  <course>0.0</course>
  <speed>0.0</speed>
  <fix>3d</fix>
</trkpt>
<trkpt lat="33.810313" lon="-118.393867">
  <ele>-0.133</ele>
  <time>2026-09-01T01:12:46Z</time>
  <course>187.59</course>
  <speed>0.03605551275463989</speed>
  <fix>3d</fix>
</trkpt>
<trkpt lat="33.810313" lon="-118.393867">
  <ele>-0.12</ele>
  <time>2026-09-01T01:12:46Z</time>
  <course>0.0</course>
  <speed>0.0</speed>
  <fix>3d</fix>
</trkpt>
<trkpt lat="33.810313" lon="-118.393867">
  <ele>-0.132</ele>
  <time>2026-09-01T01:12:46Z</time>
  <course>187.59</course>
  <speed>0.03605551275463989</speed>
  <fix>3d</fix>
</trkpt>
<trkpt lat="33.810313" lon="-118.393867">
  <ele>-0.12</ele>
  <time>2026-09-01T01:12:46Z</time>
  <course>0.0</course>
  <speed>0.0</speed>
  <fix>3d</fix>
</trkpt>
<trkpt lat="33.810313" lon="-118.393867">
  <ele>-0.13</ele>
  <time>2026-09-01T01:12:46Z</time>
  <course>187.58</course>
  <speed>0.03605551275463989</speed>
  <fix>3d</fix>
</trkpt>
<trkpt lat="33.810313" lon="-118.393867">
  <ele>-0.12</ele>
  <time>2026-09-01T01:12:46Z</time>
  <course>0.0</course>
  <speed>0.0</speed>
  <fix>3d</fix>
</trkpt>
<trkpt lat="33.810313" lon="-118.393867">
  <ele>-0.127</ele>
  <time>2026-09-01T01:12:46Z</time>
  <course>187.57</course>
  <speed>0.03605551275463989</speed>
  <fix>3d</fix>
</trkpt>
<trkpt lat="33.810313" lon="-118.393867">
  <ele>-0.12</ele>
  <time>2026-09-01T01:12:46Z</time>
  <course>0.0</course>
  <speed>0.0</speed>
  <fix>3d</fix>
</trkpt>
<trkpt lat="33.810313" lon="-118.393867">
  <ele>-0.125</ele>
  <time>2026-09-01T01:12:46Z</time>
  <course>187.57</course>
  <speed>0.03605551275463989</speed>
  <fix>3d</fix>
</trkpt>
<trkpt lat="33.810313" lon="-118.393867">
  <ele>-0.12</ele>
  <time>2026-09-01T01:12:46Z</time>
  <course>0.0</course>
  <speed>0.0</speed>
  <fix>3d</fix>
</trkpt>
<trkpt lat="33.810313" lon="-118.393867">
  <ele>-0.122</ele>
  <time>2026-09-01T01:12:46Z</time>
  <course>187.56</course>
  <speed>0.03605551275463989</speed>
  <fix>3d</fix>
</trkpt>
<trkpt lat="33.810313" lon="-118.393867">
  <ele>-0.12</ele>
  <time>2026-09-01T01:12:46Z</time>
  <course>0.0</course>
  <speed>0.0</speed>
  <fix>3d</fix>
</trkpt>
<trkpt lat="33.810313" lon="-118.393867">
  <ele>-0.119</ele>
  <time>2026-09-01T01:12:46Z</time>
  <course>187.55</course>
  <speed>0.03605551275463989</speed>
  <fix>3d</fix>
</trkpt>
<trkpt lat="33.810313" lon="-118.393867">
  <ele>-0.12</ele>
  <time>2026-09-01T01:12:46Z</time>
  <course>0.0</course>
  <speed>0.0</speed>
  <fix>3d</fix>
</trkpt>
<trkpt lat="33.810313" lon="-118.393867">
  <ele>-0.117</ele>
  <time>2026-09-01T01:12:46Z</time>
  <course>187.55</course>
  <speed>0.03605551275463989</speed>
  <fix>3d</fix>
</trkpt>
<trkpt lat="33.810313" lon="-118.393867">
  <ele>-0.12</ele>
  <time>2026-09-01T01:12:46Z</time>
  <course>0.0</course>
  <speed>0.0</speed>
  <fix>3d</fix>
</trkpt>
<trkpt lat="33.810313" lon="-118.393867">
  <ele>-0.117</ele>
  <time>2026-09-01T01:12:46Z</time>
  <course>187.54</course>
  <speed>0.03605551275463989</speed>
  <fix>3d</fix>
</trkpt>
<trkpt lat="33.810313" lon="-118.393867">
  <ele>-0.12</ele>
  <time>2026-09-01T01:12:46Z</time>
  <course>0.0</course>
  <speed>0.0</speed>
  <fix>3d</fix>
</trkpt>
<trkpt lat="33.810313" lon="-118.393867">
  <ele>-0.118</ele>
  <time>2026-09-01T01:12:46Z</time>
  <course>187.53</course>
  <speed>0.03605551275463989</speed>
  <fix>3d</fix>
</trkpt>
<trkpt lat="33.810313" lon="-118.393867">
  <ele>-0.12</ele>
  <time>2026-09-01T01:12:46Z</time>
  <course>0.0</course>
  <speed>0.0</speed>
  <fix>3d</fix>
</trkpt>
<trkpt lat="33.810313" lon="-118.393867">
  <ele>-0.119</ele>
  <time>2026-09-01T01:12:46Z</time>
  <course>187.53</course>
  <speed>0.03605551275463989</speed>
  <fix>3d</fix>
</trkpt>
<trkpt lat="33.810313" lon="-118.393867">
  <ele>-0.12</ele>
  <time>2026-09-01T01:12:46Z</time>
  <course>0.0</course>
  <speed>0.0</speed>
  <fix>3d</fix>
</trkpt>
<trkpt lat="33.810313" lon="-118.393867">
  <ele>-0.12</ele>
  <time>2026-09-01T01:12:46Z</time>
  <course>187.52</course>
  <speed>0.03605551275463989</speed>
  <fix>3d</fix>
</trkpt>
<trkpt lat="33.810313" lon="-118.393867">
  <ele>-0.12</ele>
  <time>2026-09-01T01:12:46Z</time>
  <course>0.0</course>
  <speed>0.0</speed>
  <fix>3d</fix>
</trkpt>
<trkpt lat="33.810313" lon="-118.393867">
  <ele>-0.121</ele>
  <time>2026-09-01T01:12:46Z</time>
  <course>187.51</course>
  <speed>0.03605551275463989</speed>
  <fix>3d</fix>
</trkpt>
<trkpt lat="33.810313" lon="-118.393867">
  <ele>-0.12</ele>
  <time>2026-09-01T01:12:46Z</time>
  <course>0.0</course>
  <speed>0.0</speed>
  <fix>3d</fix>
</trkpt>
<trkpt lat="33.810313" lon="-118.393867">
  <ele>-0.121</ele>
  <time>2026-09-01T01:12:46Z</time>
  <course>187.51</course>
  <speed>0.03605551275463989</speed>
  <fix>3d</fix>
</trkpt>
<trkpt lat="33.810313" lon="-118.393867">
  <ele>-0.12</ele>
  <time>2026-09-01T01:12:46Z</time>
  <course>0.0</course>
  <speed>0.0</speed>
  <fix>3d</fix>
</trkpt>
<trkpt lat="33.810313" lon="-118.393867">
  <ele>-0.121</ele>
  <time>2026-09-01T01:12:46Z</time>
  <course>187.5</course>
  <speed>0.03605551275463989</speed>
  <fix>3d</fix>
</trkpt>
<trkpt lat="33.810313" lon="-118.393867">
  <ele>-0.12</ele>
  <time>2026-09-01T01:12:46Z</time>
  <course>0.0</course>
  <speed>0.0</speed>
  <fix>3d</fix>
</trkpt>
<trkpt lat="33.810313" lon="-118.393867">
  <ele>-0.121</ele>
  <time>2026-09-01T01:12:46Z</time>
  <course>187.49</course>
  <speed>0.03605551275463989</speed>
  <fix>3d</fix>
</trkpt>
<trkpt lat="33.810313" lon="-118.393867">
  <ele>-0.12</ele>
  <time>2026-09-01T01:12:46Z</time>
  <course>0.0</course>
  <speed>0.0</speed>
  <fix>3d</fix>
</trkpt>
<trkpt lat="33.810313" lon="-118.393867">
  <ele>-0.121</ele>
  <time>2026-09-01T01:12:46Z</time>
  <course>187.49</course>
  <speed>0.03605551275463989</speed>
  <fix>3d</fix>
</trkpt>
<trkpt lat="33.810313" lon="-118.393867">
  <ele>-0.12</ele>
  <time>2026-09-01T01:12:46Z</time>
  <course>0.0</course>
  <speed>0.0</speed>
  <fix>3d</fix>
</trkpt>
<trkpt lat="33.810313" lon="-118.393867">
  <ele>-0.121</ele>
  <time>2026-09-01T01:12:46Z</time>
  <course>187.48</course>
  <speed>0.03605551275463989</speed>
  <fix>3d</fix>
</trkpt>
<trkpt lat="33.810313" lon="-118.393867">
  <ele>-0.12</ele>
  <time>2026-09-01T01:12:46Z</time>
  <course>0.0</course>
  <speed>0.0</speed>
  <fix>3d</fix>
</trkpt>
<trkpt lat="33.810313" lon="-118.393867">
  <ele>-0.122</ele>
  <time>2026-09-01T01:12:46Z</time>
  <course>187.47</course>
  <speed>0.03605551275463989</speed>
  <fix>3d</fix>
</trkpt>
<trkpt lat="33.810313" lon="-118.393867">
  <ele>-0.12</ele>
  <time>2026-09-01T01:12:46Z</time>
  <course>0.0</course>
  <speed>0.0</speed>
  <fix>3d</fix>
</trkpt>
<trkpt lat="33.810313" lon="-118.393867">
  <ele>-0.124</ele>
  <time>2026-09-01T01:12:46Z</time>
  <course>187.47</course>
  <speed>0.03605551275463989</speed>
  <fix>3d</fix>
</trkpt>
<trkpt lat="33.810313" lon="-118.393867">
  <ele>-0.12</ele>
  <time>2026-09-01T01:12:46Z</time>
  <course>0.0</course>
  <speed>0.0</speed>
  <fix>3d</fix>
</trkpt>
<trkpt lat="33.810313" lon="-118.393867">
  <ele>-0.127</ele>
  <time>2026-09-01T01:12:46Z</time>
  <course>187.46</course>
  <speed>0.03605551275463989</speed>
  <fix>3d</fix>
</trkpt>
<trkpt lat="33.810313" lon="-118.393867">
  <ele>-0.12</ele>
  <time>2026-09-01T01:12:46Z</time>
  <course>0.0</course>
  <speed>0.0</speed>
  <fix>3d</fix>
</trkpt>
<trkpt lat="33.810313" lon="-118.393867">
  <ele>-0.129</ele>
  <time>2026-09-01T01:12:46Z</time>
  <course>187.46</course>
  <speed>0.03605551275463989</speed>
  <fix>3d</fix>
</trkpt>
<trkpt lat="33.810313" lon="-118.393867">
  <ele>-0.12</ele>
  <time>2026-09-01T01:12:46Z</time>
  <course>0.0</course>
  <speed>0.0</speed>
  <fix>3d</fix>
</trkpt>
<trkpt lat="33.810313" lon="-118.393867">
  <ele>-0.131</ele>
  <time>2026-09-01T01:12:46Z</time>
  <course>187.45</course>
  <speed>0.03605551275463989</speed>
  <fix>3d</fix>
</trkpt>
<trkpt lat="33.810313" lon="-118.393867">
  <ele>-0.12</ele>
  <time>2026-09-01T01:12:46Z</time>
  <course>0.0</course>
  <speed>0.0</speed>
  <fix>3d</fix>
</trkpt>
<trkpt lat="33.810313" lon="-118.393867">
  <ele>-0.132</ele>
  <time>2026-09-01T01:12:46Z</time>
  <course>187.44</course>
  <speed>0.03605551275463989</speed>
  <fix>3d</fix>
</trkpt>
<trkpt lat="33.810313" lon="-118.393867">
  <ele>-0.12</ele>
  <time>2026-09-01T01:12:46Z</time>
  <course>0.0</course>
  <speed>0.0</speed>
  <fix>3d</fix>
</trkpt>
<trkpt lat="33.810313" lon="-118.393867">
  <ele>-0.132</ele>
  <time>2026-09-01T01:12:46Z</time>
  <course>187.44</course>
  <speed>0.03605551275463989</speed>
  <fix>3d</fix>
</trkpt>
<trkpt lat="33.810313" lon="-118.393867">
  <ele>-0.12</ele>
  <time>2026-09-01T01:12:46Z</time>
  <course>0.0</course>
  <speed>0.0</speed>
  <fix>3d</fix>
</trkpt>
<trkpt lat="33.810313" lon="-118.393867">
  <ele>-0.132</ele>
  <time>2026-09-01T01:12:46Z</time>
  <course>187.43</course>
  <speed>0.03605551275463989</speed>
  <fix>3d</fix>
</trkpt>
<trkpt lat="33.810313" lon="-118.393867">
  <ele>-0.12</ele>
  <time>2026-09-01T01:12:46Z</time>
  <course>0.0</course>
  <speed>0.0</speed>
  <fix>3d</fix>
</trkpt>
<trkpt lat="33.810313" lon="-118.393867">
  <ele>-0.132</ele>
  <time>2026-09-01T01:12:46Z</time>
  <course>187.42</course>
  <speed>0.03605551275463989</speed>
  <fix>3d</fix>
</trkpt>
<trkpt lat="33.810313" lon="-118.393867">
  <ele>-0.12</ele>
  <time>2026-09-01T01:12:46Z</time>
  <course>0.0</course>
  <speed>0.0</speed>
  <fix>3d</fix>
</trkpt>
<trkpt lat="33.810313" lon="-118.393867">
  <ele>-0.131</ele>
  <time>2026-09-01T01:12:46Z</time>
  <course>187.42</course>
  <speed>0.03605551275463989</speed>
  <fix>3d</fix>
</trkpt>
<trkpt lat="33.810313" lon="-118.393867">
  <ele>-0.12</ele>
  <time>2026-09-01T01:12:46Z</time>
  <course>0.0</course>
  <speed>0.0</speed>
  <fix>3d</fix>
</trkpt>
<trkpt lat="33.810313" lon="-118.393867">
  <ele>-0.131</ele>
  <time>2026-09-01T01:12:46Z</time>
  <course>187.41</course>
  <speed>0.03605551275463989</speed>
  <fix>3d</fix>
</trkpt>
<trkpt lat="33.810313" lon="-118.393867">
  <ele>-0.12</ele>
  <time>2026-09-01T01:12:46Z</time>
  <course>0.0</course>
  <speed>0.0</speed>
  <fix>3d</fix>
</trkpt>
<trkpt lat="33.810313" lon="-118.393867">
  <ele>-0.132</ele>
  <time>2026-09-01T01:12:46Z</time>
  <course>187.41</course>
  <speed>0.03605551275463989</speed>
  <fix>3d</fix>
</trkpt>
<trkpt lat="33.810313" lon="-118.393867">
  <ele>-0.12</ele>
  <time>2026-09-01T01:12:46Z</time>
  <course>0.0</course>
  <speed>0.0</speed>
  <fix>3d</fix>
</trkpt>
<trkpt lat="33.810313" lon="-118.393867">
  <ele>-0.134</ele>
  <time>2026-09-01T01:12:46Z</time>
  <course>187.4</course>
  <speed>0.03605551275463989</speed>
  <fix>3d</fix>
</trkpt>
<trkpt lat="33.810313" lon="-118.393867">
  <ele>-0.12</ele>
  <time>2026-09-01T01:12:46Z</time>
  <course>0.0</course>
  <speed>0.0</speed>
  <fix>3d</fix>
</trkpt>
<trkpt lat="33.810313" lon="-118.393867">
  <ele>-0.137</ele>
  <time>2026-09-01T01:12:46Z</time>
  <course>187.39</course>
  <speed>0.03605551275463989</speed>
  <fix>3d</fix>
</trkpt>
<trkpt lat="33.810313" lon="-118.393867">
  <ele>-0.12</ele>
  <time>2026-09-01T01:12:46Z</time>
  <course>0.0</course>
  <speed>0.0</speed>
  <fix>3d</fix>
</trkpt>
<trkpt lat="33.810313" lon="-118.393867">
  <ele>-0.139</ele>
  <time>2026-09-01T01:12:46Z</time>
  <course>187.39</course>
  <speed>0.03605551275463989</speed>
  <fix>3d</fix>
</trkpt>
<trkpt lat="33.810313" lon="-118.393867">
  <ele>-0.12</ele>
  <time>2026-09-01T01:12:46Z</time>
  <course>0.0</course>
  <speed>0.0</speed>
  <fix>3d</fix>
</trkpt>
<trkpt lat="33.810313" lon="-118.393867">
  <ele>-0.141</ele>
  <time>2026-09-01T01:12:46Z</time>
  <course>187.38</course>
  <speed>0.03605551275463989</speed>
  <fix>3d</fix>
</trkpt>
<trkpt lat="33.810313" lon="-118.393867">
  <ele>-0.12</ele>
  <time>2026-09-01T01:12:46Z</time>
  <course>0.0</course>
  <speed>0.0</speed>
  <fix>3d</fix>
</trkpt>
<trkpt lat="33.810313" lon="-118.393867">
  <ele>-0.141</ele>
  <time>2026-09-01T01:12:46Z</time>
  <course>187.38</course>
  <speed>0.03605551275463989</speed>
  <fix>3d</fix>
</trkpt>
<trkpt lat="33.810313" lon="-118.393867">
  <ele>-0.12</ele>
  <time>2026-09-01T01:12:46Z</time>
  <course>0.0</course>
  <speed>0.0</speed>
  <fix>3d</fix>
</trkpt>
<trkpt lat="33.810313" lon="-118.393867">
  <ele>-0.139</ele>
  <time>2026-09-01T01:12:46Z</time>
  <course>187.37</course>
  <speed>0.03605551275463989</speed>
  <fix>3d</fix>
</trkpt>
<trkpt lat="33.810313" lon="-118.393867">
  <ele>-0.12</ele>
  <time>2026-09-01T01:12:46Z</time>
  <course>0.0</course>
  <speed>0.0</speed>
  <fix>3d</fix>
</trkpt>
<trkpt lat="33.810313" lon="-118.393867">
  <ele>-0.136</ele>
  <time>2026-09-01T01:12:46Z</time>
  <course>187.36</course>
  <speed>0.03605551275463989</speed>
  <fix>3d</fix>
</trkpt>
<trkpt lat="33.810313" lon="-118.393867">
  <ele>-0.12</ele>
  <time>2026-09-01T01:12:46Z</time>
  <course>0.0</course>
  <speed>0.0</speed>
  <fix>3d</fix>
</trkpt>
<trkpt lat="33.810313" lon="-118.393867">
  <ele>-0.133</ele>
  <time>2026-09-01T01:12:46Z</time>
  <course>187.36</course>
  <speed>0.03605551275463989</speed>
  <fix>3d</fix>
</trkpt>
<trkpt lat="33.810313" lon="-118.393867">
  <ele>-0.12</ele>
  <time>2026-09-01T01:12:46Z</time>
  <course>0.0</course>
  <speed>0.0</speed>
  <fix>3d</fix>
</trkpt>
<trkpt lat="33.810313" lon="-118.393867">
  <ele>-0.129</ele>
  <time>2026-09-01T01:12:46Z</time>
  <course>187.35</course>
  <speed>0.03605551275463989</speed>
  <fix>3d</fix>
</trkpt>
<trkpt lat="33.810313" lon="-118.393867">
  <ele>-0.12</ele>
  <time>2026-09-01T01:12:46Z</time>
  <course>0.0</course>
  <speed>0.0</speed>
  <fix>3d</fix>
</trkpt>
<trkpt lat="33.810313" lon="-118.393867">
  <ele>-0.127</ele>
  <time>2026-09-01T01:12:46Z</time>
  <course>187.35</course>
  <speed>0.03605551275463989</speed>
  <fix>3d</fix>
</trkpt>
<trkpt lat="33.810313" lon="-118.393867">
  <ele>-0.12</ele>
  <time>2026-09-01T01:12:46Z</time>
  <course>0.0</course>
  <speed>0.0</speed>
  <fix>3d</fix>
</trkpt>
<trkpt lat="33.810313" lon="-118.393867">
  <ele>-0.127</ele>
  <time>2026-09-01T01:12:46Z</time>
  <course>187.34</course>
  <speed>0.03605551275463989</speed>
  <fix>3d</fix>
</trkpt>
<trkpt lat="33.810313" lon="-118.393867">
  <ele>-0.12</ele>
  <time>2026-09-01T01:12:46Z</time>
  <course>0.0</course>
  <speed>0.0</speed>
  <fix>3d</fix>
</trkpt>
<trkpt lat="33.810313" lon="-118.393867">
  <ele>-0.126</ele>
  <time>2026-09-01T01:12:46Z</time>
  <course>187.34</course>
  <speed>0.03605551275463989</speed>
  <fix>3d</fix>
</trkpt>
<trkpt lat="33.810313" lon="-118.393867">
  <ele>-0.12</ele>
  <time>2026-09-01T01:12:46Z</time>
  <course>0.0</course>
  <speed>0.0</speed>
  <fix>3d</fix>
</trkpt>
<trkpt lat="33.810313" lon="-118.393867">
  <ele>-0.126</ele>
  <time>2026-09-01T01:12:46Z</time>
  <course>187.33</course>
  <speed>0.03605551275463989</speed>
  <fix>3d</fix>
</trkpt>
<trkpt lat="33.810313" lon="-118.393867">
  <ele>-0.12</ele>
  <time>2026-09-01T01:12:46Z</time>
  <course>0.0</course>
  <speed>0.0</speed>
  <fix>3d</fix>
</trkpt>
<trkpt lat="33.810313" lon="-118.393867">
  <ele>-0.126</ele>
  <time>2026-09-01T01:12:46Z</time>
  <course>187.32</course>
  <speed>0.03605551275463989</speed>
  <fix>3d</fix>
</trkpt>
<trkpt lat="33.810313" lon="-118.393867">
  <ele>-0.12</ele>
  <time>2026-09-01T01:12:46Z</time>
  <course>0.0</course>
  <speed>0.0</speed>
  <fix>3d</fix>
</trkpt>
<trkpt lat="33.810313" lon="-118.393867">
  <ele>-0.126</ele>
  <time>2026-09-01T01:12:46Z</time>
  <course>187.32</course>
  <speed>0.03605551275463989</speed>
  <fix>3d</fix>
</trkpt>
<trkpt lat="33.810313" lon="-118.393867">
  <ele>-0.12</ele>
  <time>2026-09-01T01:12:46Z</time>
  <course>0.0</course>
  <speed>0.0</speed>
  <fix>3d</fix>
</trkpt>
<trkpt lat="33.810313" lon="-118.393867">
  <ele>-0.125</ele>
  <time>2026-09-01T01:12:46Z</time>
  <course>187.31</course>
  <speed>0.03605551275463989</speed>
  <fix>3d</fix>
</trkpt>
<trkpt lat="33.810313" lon="-118.393867">
  <ele>-0.12</ele>
  <time>2026-09-01T01:12:46Z</time>
  <course>0.0</course>
  <speed>0.0</speed>
  <fix>3d</fix>
</trkpt>
<trkpt lat="33.810313" lon="-118.393867">
  <ele>-0.124</ele>
  <time>2026-09-01T01:12:46Z</time>
  <course>187.31</course>
  <speed>0.03605551275463989</speed>
  <fix>3d</fix>
</trkpt>
<trkpt lat="33.810313" lon="-118.393867">
  <ele>-0.12</ele>
  <time>2026-09-01T01:12:46Z</time>
  <course>0.0</course>
  <speed>0.0</speed>
  <fix>3d</fix>
</trkpt>
<trkpt lat="33.810313" lon="-118.393867">
  <ele>-0.122</ele>
  <time>2026-09-01T01:12:46Z</time>
  <course>187.3</course>
  <speed>0.03605551275463989</speed>
  <fix>3d</fix>
</trkpt>
<trkpt lat="33.810313" lon="-118.393867">
  <ele>-0.12</ele>
  <time>2026-09-01T01:12:46Z</time>
  <course>0.0</course>
  <speed>0.0</speed>
  <fix>3d</fix>
</trkpt>
<trkpt lat="33.810313" lon="-118.393867">
  <ele>-0.121</ele>
  <time>2026-09-01T01:12:46Z</time>
  <course>187.3</course>
  <speed>0.03605551275463989</speed>
  <fix>3d</fix>
</trkpt>
<trkpt lat="33.810313" lon="-118.393867">
  <ele>-0.12</ele>
  <time>2026-09-01T01:12:46Z</time>
  <course>0.0</course>
  <speed>0.0</speed>
  <fix>3d</fix>
</trkpt>
<trkpt lat="33.810313" lon="-118.393867">
  <ele>-0.122</ele>
  <time>2026-09-01T01:12:46Z</time>
  <course>187.29</course>
  <speed>0.03605551275463989</speed>
  <fix>3d</fix>
</trkpt>
<trkpt lat="33.810313" lon="-118.393867">
  <ele>-0.12</ele>
  <time>2026-09-01T01:12:46Z</time>
  <course>0.0</course>
  <speed>0.0</speed>
  <fix>3d</fix>
</trkpt>
<trkpt lat="33.810313" lon="-118.393867">
  <ele>-0.124</ele>
  <time>2026-09-01T01:12:46Z</time>
  <course>187.28</course>
  <speed>0.03605551275463989</speed>
  <fix>3d</fix>
</trkpt>
<trkpt lat="33.810313" lon="-118.393867">
  <ele>-0.12</ele>
  <time>2026-09-01T01:12:46Z</time>
  <course>0.0</course>
  <speed>0.0</speed>
  <fix>3d</fix>
</trkpt>
<trkpt lat="33.810313" lon="-118.393867">
  <ele>-0.127</ele>
  <time>2026-09-01T01:12:46Z</time>
  <course>187.28</course>
  <speed>0.03605551275463989</speed>
  <fix>3d</fix>
</trkpt>
<trkpt lat="33.810313" lon="-118.393867">
  <ele>-0.12</ele>
  <time>2026-09-01T01:12:46Z</time>
  <course>0.0</course>
  <speed>0.0</speed>
  <fix>3d</fix>
</trkpt>
<trkpt lat="33.810313" lon="-118.393867">
  <ele>-0.13</ele>
  <time>2026-09-01T01:12:46Z</time>
  <course>187.27</course>
  <speed>0.03605551275463989</speed>
  <fix>3d</fix>
</trkpt>
<trkpt lat="33.810313" lon="-118.393867">
  <ele>-0.12</ele>
  <time>2026-09-01T01:12:46Z</time>
  <course>0.0</course>
  <speed>0.0</speed>
  <fix>3d</fix>
</trkpt>
<trkpt lat="33.810313" lon="-118.393867">
  <ele>-0.132</ele>
  <time>2026-09-01T01:12:46Z</time>
  <course>187.27</course>
  <speed>0.03605551275463989</speed>
  <fix>3d</fix>
</trkpt>
<trkpt lat="33.810313" lon="-118.393867">
  <ele>-0.12</ele>
  <time>2026-09-01T01:12:46Z</time>
  <course>0.0</course>
  <speed>0.0</speed>
  <fix>3d</fix>
</trkpt>
<trkpt lat="33.810313" lon="-118.393867">
  <ele>-0.134</ele>
  <time>2026-09-01T01:12:46Z</time>
  <course>187.26</course>
  <speed>0.03605551275463989</speed>
  <fix>3d</fix>
</trkpt>
<trkpt lat="33.810313" lon="-118.393867">
  <ele>-0.12</ele>
  <time>2026-09-01T01:12:46Z</time>
  <course>0.0</course>
  <speed>0.0</speed>
  <fix>3d</fix>
</trkpt>
<trkpt lat="33.810313" lon="-118.393867">
  <ele>-0.136</ele>
  <time>2026-09-01T01:12:46Z</time>
  <course>187.26</course>
  <speed>0.03605551275463989</speed>
  <fix>3d</fix>
</trkpt>
<trkpt lat="33.810313" lon="-118.393867">
  <ele>-0.12</ele>
  <time>2026-09-01T01:12:46Z</time>
  <course>0.0</course>
  <speed>0.0</speed>
  <fix>3d</fix>
</trkpt>
<trkpt lat="33.810313" lon="-118.393867">
  <ele>-0.136</ele>
  <time>2026-09-01T01:12:46Z</time>
  <course>187.25</course>
  <speed>0.03605551275463989</speed>
  <fix>3d</fix>
</trkpt>
<trkpt lat="33.810313" lon="-118.393867">
  <ele>-0.12</ele>
  <time>2026-09-01T01:12:46Z</time>
  <course>0.0</course>
  <speed>0.0</speed>
  <fix>3d</fix>
</trkpt>
<trkpt lat="33.810313" lon="-118.393867">
  <ele>-0.135</ele>
  <time>2026-09-01T01:12:46Z</time>
  <course>187.25</course>
  <speed>0.03605551275463989</speed>
  <fix>3d</fix>
</trkpt>
<trkpt lat="33.810313" lon="-118.393867">
  <ele>-0.12</ele>
  <time>2026-09-01T01:12:46Z</time>
  <course>0.0</course>
  <speed>0.0</speed>
  <fix>3d</fix>
</trkpt>
<trkpt lat="33.810313" lon="-118.393867">
  <ele>-0.134</ele>
  <time>2026-09-01T01:12:46Z</time>
  <course>187.24</course>
  <speed>0.03605551275463989</speed>
  <fix>3d</fix>
</trkpt>
<trkpt lat="33.810313" lon="-118.393867">
  <ele>-0.12</ele>
  <time>2026-09-01T01:12:46Z</time>
  <course>0.0</course>
  <speed>0.0</speed>
  <fix>3d</fix>
</trkpt>
<trkpt lat="33.810313" lon="-118.393867">
  <ele>-0.132</ele>
  <time>2026-09-01T01:12:46Z</time>
  <course>187.24</course>
  <speed>0.03605551275463989</speed>
  <fix>3d</fix>
</trkpt>
<trkpt lat="33.810313" lon="-118.393867">
  <ele>-0.12</ele>
  <time>2026-09-01T01:12:46Z</time>
  <course>0.0</course>
  <speed>0.0</speed>
  <fix>3d</fix>
</trkpt>
<trkpt lat="33.810313" lon="-118.393867">
  <ele>-0.131</ele>
  <time>2026-09-01T01:12:46Z</time>
  <course>187.23</course>
  <speed>0.03605551275463989</speed>
  <fix>3d</fix>
</trkpt>
<trkpt lat="33.810313" lon="-118.393867">
  <ele>-0.12</ele>
  <time>2026-09-01T01:12:46Z</time>
  <course>0.0</course>
  <speed>0.0</speed>
  <fix>3d</fix>
</trkpt>
<trkpt lat="33.810313" lon="-118.393867">
  <ele>-0.131</ele>
  <time>2026-09-01T01:12:46Z</time>
  <course>187.23</course>
  <speed>0.03605551275463989</speed>
  <fix>3d</fix>
</trkpt>
<trkpt lat="33.810313" lon="-118.393867">
  <ele>-0.12</ele>
  <time>2026-09-01T01:12:46Z</time>
  <course>0.0</course>
  <speed>0.0</speed>
  <fix>3d</fix>
</trkpt>
<trkpt lat="33.810313" lon="-118.393867">
  <ele>-0.132</ele>
  <time>2026-09-01T01:12:46Z</time>
  <course>187.22</course>
  <speed>0.03605551275463989</speed>
  <fix>3d</fix>
</trkpt>
<trkpt lat="33.810313" lon="-118.393867">
  <ele>-0.12</ele>
  <time>2026-09-01T01:12:46Z</time>
  <course>0.0</course>
  <speed>0.0</speed>
  <fix>3d</fix>
</trkpt>
<trkpt lat="33.810313" lon="-118.393867">
  <ele>-0.132</ele>
  <time>2026-09-01T01:12:46Z</time>
  <course>187.21</course>
  <speed>0.03605551275463989</speed>
  <fix>3d</fix>
</trkpt>
<trkpt lat="33.810313" lon="-118.393867">
  <ele>-0.12</ele>
  <time>2026-09-01T01:12:46Z</time>
  <course>0.0</course>
  <speed>0.0</speed>
  <fix>3d</fix>
</trkpt>
<trkpt lat="33.810313" lon="-118.393867">
  <ele>-0.133</ele>
  <time>2026-09-01T01:12:46Z</time>
  <course>187.21</course>
  <speed>0.03605551275463989</speed>
  <fix>3d</fix>
</trkpt>
<trkpt lat="33.810313" lon="-118.393867">
  <ele>-0.12</ele>
  <time>2026-09-01T01:12:46Z</time>
  <course>0.0</course>
  <speed>0.0</speed>
  <fix>3d</fix>
</trkpt>
<trkpt lat="33.810313" lon="-118.393867">
  <ele>-0.132</ele>
  <time>2026-09-01T01:12:46Z</time>
  <course>187.2</course>
  <speed>0.03605551275463989</speed>
  <fix>3d</fix>
</trkpt>
<trkpt lat="33.810313" lon="-118.393867">
  <ele>-0.12</ele>
  <time>2026-09-01T01:12:46Z</time>
  <course>0.0</course>
  <speed>0.0</speed>
  <fix>3d</fix>
</trkpt>
<trkpt lat="33.810313" lon="-118.393867">
  <ele>-0.131</ele>
  <time>2026-09-01T01:12:46Z</time>
  <course>187.2</course>
  <speed>0.03605551275463989</speed>
  <fix>3d</fix>
</trkpt>
<trkpt lat="33.810313" lon="-118.393867">
  <ele>-0.12</ele>
  <time>2026-09-01T01:12:46Z</time>
  <course>0.0</course>
  <speed>0.0</speed>
  <fix>3d</fix>
</trkpt>
<trkpt lat="33.810313" lon="-118.393867">
  <ele>-0.129</ele>
  <time>2026-09-01T01:12:46Z</time>
  <course>187.19</course>
  <speed>0.03605551275463989</speed>
  <fix>3d</fix>
</trkpt>
<trkpt lat="33.810313" lon="-118.393867">
  <ele>-0.12</ele>
  <time>2026-09-01T01:12:46Z</time>
  <course>0.0</course>
  <speed>0.0</speed>
  <fix>3d</fix>
</trkpt>
<trkpt lat="33.810313" lon="-118.393867">
  <ele>-0.126</ele>
  <time>2026-09-01T01:12:46Z</time>
  <course>187.19</course>
  <speed>0.03605551275463989</speed>
  <fix>3d</fix>
</trkpt>
<trkpt lat="33.810313" lon="-118.393867">
  <ele>-0.12</ele>
  <time>2026-09-01T01:12:46Z</time>
  <course>0.0</course>
  <speed>0.0</speed>
  <fix>3d</fix>
</trkpt>
<trkpt lat="33.810313" lon="-118.393867">
  <ele>-0.124</ele>
  <time>2026-09-01T01:12:46Z</time>
  <course>187.18</course>
  <speed>0.03605551275463989</speed>
  <fix>3d</fix>
</trkpt>
<trkpt lat="33.810313" lon="-118.393867">
  <ele>-0.12</ele>
  <time>2026-09-01T01:12:46Z</time>
  <course>0.0</course>
  <speed>0.0</speed>
  <fix>3d</fix>
</trkpt>
<trkpt lat="33.810313" lon="-118.393867">
  <ele>-0.123</ele>
  <time>2026-09-01T01:12:46Z</time>
  <course>187.18</course>
  <speed>0.03605551275463989</speed>
  <fix>3d</fix>
</trkpt>
<trkpt lat="33.810313" lon="-118.393867">
  <ele>-0.12</ele>
  <time>2026-09-01T01:12:46Z</time>
  <course>0.0</course>
  <speed>0.0</speed>
  <fix>3d</fix>
</trkpt>
<trkpt lat="33.810313" lon="-118.393867">
  <ele>-0.123</ele>
  <time>2026-09-01T01:12:46Z</time>
  <course>187.17</course>
  <speed>0.03605551275463989</speed>
  <fix>3d</fix>
</trkpt>
<trkpt lat="33.810313" lon="-118.393867">
  <ele>-0.12</ele>
  <time>2026-09-01T01:12:46Z</time>
  <course>0.0</course>
  <speed>0.0</speed>
  <fix>3d</fix>
</trkpt>
<trkpt lat="33.810313" lon="-118.393867">
  <ele>-0.122</ele>
  <time>2026-09-01T01:12:46Z</time>
  <course>187.17</course>
  <speed>0.0</speed>
  <fix>3d</fix>
</trkpt>
<trkpt lat="33.810313" lon="-118.393867">
  <ele>-0.12</ele>
  <time>2026-09-01T01:12:46Z</time>
  <course>0.0</course>
  <speed>0.0</speed>
  <fix>3d</fix>
</trkpt>
<trkpt lat="33.810313" lon="-118.393867">
  <ele>-0.121</ele>
  <time>2026-09-01T01:12:46Z</time>
  <course>187.16</course>
  <speed>0.0</speed>
  <fix>3d</fix>
</trkpt>
<trkpt lat="33.810313" lon="-118.393867">
  <ele>-0.12</ele>
  <time>2026-09-01T01:12:46Z</time>
  <course>0.0</course>
  <speed>0.0</speed>
  <fix>3d</fix>
</trkpt>
<trkpt lat="33.810313" lon="-118.393867">
  <ele>-0.121</ele>
  <time>2026-09-01T01:12:46Z</time>
  <course>187.16</course>
  <speed>0.0</speed>
  <fix>3d</fix>
</trkpt>
<trkpt lat="33.810313" lon="-118.393867">
  <ele>-0.12</ele>
  <time>2026-09-01T01:12:46Z</time>
  <course>0.0</course>
  <speed>0.0</speed>
  <fix>3d</fix>
</trkpt>
<trkpt lat="33.810313" lon="-118.393867">
  <ele>-0.119</ele>
  <time>2026-09-01T01:12:46Z</time>
  <course>187.15</course>
  <speed>0.0</speed>
  <fix>3d</fix>
</trkpt>
<trkpt lat="33.810313" lon="-118.393867">
  <ele>-0.12</ele>
  <time>2026-09-01T01:12:46Z</time>
  <course>0.0</course>
  <speed>0.0</speed>
  <fix>3d</fix>
</trkpt>
<trkpt lat="33.810313" lon="-118.393867">
  <ele>-0.116</ele>
  <time>2026-09-01T01:12:46Z</time>
  <course>187.15</course>
  <speed>0.0</speed>
  <fix>3d</fix>
</trkpt>
<trkpt lat="33.810313" lon="-118.393867">
  <ele>-0.12</ele>
  <time>2026-09-01T01:12:46Z</time>
  <course>0.0</course>
  <speed>0.0</speed>
  <fix>3d</fix>
</trkpt>
<trkpt lat="33.810313" lon="-118.393867">
  <ele>-0.114</ele>
  <time>2026-09-01T01:12:46Z</time>
  <course>187.14</course>
  <speed>0.0</speed>
  <fix>3d</fix>
</trkpt>
<trkpt lat="33.810313" lon="-118.393867">
  <ele>-0.12</ele>
  <time>2026-09-01T01:12:46Z</time>
  <course>0.0</course>
  <speed>0.0</speed>
  <fix>3d</fix>
</trkpt>
<trkpt lat="33.810313" lon="-118.393867">
  <ele>-0.113</ele>
  <time>2026-09-01T01:12:46Z</time>
  <course>187.14</course>
  <speed>0.0</speed>
  <fix>3d</fix>
</trkpt>
<trkpt lat="33.810313" lon="-118.393867">
  <ele>-0.12</ele>
  <time>2026-09-01T01:12:46Z</time>
  <course>0.0</course>
  <speed>0.0</speed>
  <fix>3d</fix>
</trkpt>
<trkpt lat="33.810313" lon="-118.393867">
  <ele>-0.112</ele>
  <time>2026-09-01T01:12:46Z</time>
  <course>187.13</course>
  <speed>0.0</speed>
  <fix>3d</fix>
</trkpt>
<trkpt lat="33.810313" lon="-118.393867">
  <ele>-0.12</ele>
  <time>2026-09-01T01:12:46Z</time>
  <course>0.0</course>
  <speed>0.0</speed>
  <fix>3d</fix>
</trkpt>
<trkpt lat="33.810313" lon="-118.393867">
  <ele>-0.113</ele>
  <time>2026-09-01T01:12:46Z</time>
  <course>187.13</course>
  <speed>0.0</speed>
  <fix>3d</fix>
</trkpt>
<trkpt lat="33.810313" lon="-118.393867">
  <ele>-0.12</ele>
  <time>2026-09-01T01:12:46Z</time>
  <course>0.0</course>
  <speed>0.0</speed>
  <fix>3d</fix>
</trkpt>
<trkpt lat="33.810313" lon="-118.393867">
  <ele>-0.114</ele>
  <time>2026-09-01T01:12:46Z</time>
  <course>187.12</course>
  <speed>0.0</speed>
  <fix>3d</fix>
</trkpt>
<trkpt lat="33.810313" lon="-118.393867">
  <ele>-0.12</ele>
  <time>2026-09-01T01:12:46Z</time>
  <course>0.0</course>
  <speed>0.0</speed>
  <fix>3d</fix>
</trkpt>
<trkpt lat="33.810313" lon="-118.393867">
  <ele>-0.116</ele>
  <time>2026-09-01T01:12:46Z</time>
  <course>187.12</course>
  <speed>0.0</speed>
  <fix>3d</fix>
</trkpt>
<trkpt lat="33.810313" lon="-118.393867">
  <ele>-0.12</ele>
  <time>2026-09-01T01:12:46Z</time>
  <course>0.0</course>
  <speed>0.0</speed>
  <fix>3d</fix>
</trkpt>
<trkpt lat="33.810313" lon="-118.393867">
  <ele>-0.119</ele>
  <time>2026-09-01T01:12:46Z</time>
  <course>187.11</course>
  <speed>0.01</speed>
  <fix>3d</fix>
</trkpt>
<trkpt lat="33.810313" lon="-118.393867">
  <ele>-0.12</ele>
  <time>2026-09-01T01:12:46Z</time>
  <course>0.0</course>
  <speed>0.0</speed>
  <fix>3d</fix>
</trkpt>
<trkpt lat="33.810313" lon="-118.393867">
  <ele>-0.12</ele>
  <time>2026-09-01T01:12:46Z</time>
  <course>187.11</course>
  <speed>0.01</speed>
  <fix>3d</fix>
</trkpt>
<trkpt lat="33.810313" lon="-118.393867">
  <ele>-0.12</ele>
  <time>2026-09-01T01:12:46Z</time>
  <course>0.0</course>
  <speed>0.0</speed>
  <fix>3d</fix>
</trkpt>
<trkpt lat="33.810313" lon="-118.393867">
  <ele>-0.121</ele>
  <time>2026-09-01T01:12:46Z</time>
  <course>187.1</course>
  <speed>0.01</speed>
  <fix>3d</fix>
</trkpt>
<trkpt lat="33.810313" lon="-118.393867">
  <ele>-0.12</ele>
  <time>2026-09-01T01:12:46Z</time>
  <course>0.0</course>
  <speed>0.0</speed>
  <fix>3d</fix>
</trkpt>
<trkpt lat="33.810313" lon="-118.393867">
  <ele>-0.122</ele>
  <time>2026-09-01T01:12:46Z</time>
  <course>187.1</course>
  <speed>0.01414213562373095</speed>
  <fix>3d</fix>
</trkpt>
<trkpt lat="33.810313" lon="-118.393867">
  <ele>-0.12</ele>
  <time>2026-09-01T01:12:46Z</time>
  <course>0.0</course>
  <speed>0.0</speed>
  <fix>3d</fix>
</trkpt>
<trkpt lat="33.810313" lon="-118.393867">
  <ele>-0.122</ele>
  <time>2026-09-01T01:12:46Z</time>
  <course>187.1</course>
  <speed>0.01414213562373095</speed>
  <fix>3d</fix>
</trkpt>
<trkpt lat="33.810313" lon="-118.393867">
  <ele>-0.12</ele>
  <time>2026-09-01T01:12:46Z</time>
  <course>0.0</course>
  <speed>0.0</speed>
  <fix>3d</fix>
</trkpt>
<trkpt lat="33.810313" lon="-118.393867">
  <ele>-0.123</ele>
  <time>2026-09-01T01:12:46Z</time>
  <course>187.09</course>
  <speed>0.01414213562373095</speed>
  <fix>3d</fix>
</trkpt>
<trkpt lat="33.810313" lon="-118.393867">
  <ele>-0.12</ele>
  <time>2026-09-01T01:12:46Z</time>
  <course>0.0</course>
  <speed>0.0</speed>
  <fix>3d</fix>
</trkpt>
<trkpt lat="33.810313" lon="-118.393867">
  <ele>-0.124</ele>
  <time>2026-09-01T01:12:46Z</time>
  <course>187.09</course>
  <speed>0.01414213562373095</speed>
  <fix>3d</fix>
</trkpt>
<trkpt lat="33.810313" lon="-118.393867">
  <ele>-0.12</ele>
  <time>2026-09-01T01:12:46Z</time>
  <course>0.0</course>
  <speed>0.0</speed>
  <fix>3d</fix>
</trkpt>
<trkpt lat="33.810313" lon="-118.393867">
  <ele>-0.126</ele>
  <time>2026-09-01T01:12:46Z</time>
  <course>187.08</course>
  <speed>0.01414213562373095</speed>
  <fix>3d</fix>
</trkpt>
<trkpt lat="33.810313" lon="-118.393867">
  <ele>-0.12</ele>
  <time>2026-09-01T01:12:46Z</time>
  <course>0.0</course>
  <speed>0.0</speed>
  <fix>3d</fix>
</trkpt>
<trkpt lat="33.810313" lon="-118.393867">
  <ele>-0.128</ele>
  <time>2026-09-01T01:12:46Z</time>
  <course>187.08</course>
  <speed>0.01414213562373095</speed>
  <fix>3d</fix>
</trkpt>
<trkpt lat="33.810313" lon="-118.393867">
  <ele>-0.12</ele>
  <time>2026-09-01T01:12:46Z</time>
  <course>0.0</course>
  <speed>0.0</speed>
  <fix>3d</fix>
</trkpt>
<trkpt lat="33.810313" lon="-118.393867">
  <ele>-0.13</ele>
  <time>2026-09-01T01:12:46Z</time>
  <course>187.07</course>
  <speed>0.01414213562373095</speed>
  <fix>3d</fix>
</trkpt>
<trkpt lat="33.810313" lon="-118.393867">
  <ele>-0.12</ele>
  <time>2026-09-01T01:12:46Z</time>
  <course>0.0</course>
  <speed>0.0</speed>
  <fix>3d</fix>
</trkpt>
<trkpt lat="33.810313" lon="-118.393867">
  <ele>-0.134</ele>
  <time>2026-09-01T01:12:46Z</time>
  <course>187.07</course>
  <speed>0.01414213562373095</speed>
  <fix>3d</fix>
</trkpt>
<trkpt lat="33.810313" lon="-118.393867">
  <ele>-0.12</ele>
  <time>2026-09-01T01:12:46Z</time>
  <course>0.0</course>
  <speed>0.0</speed>
  <fix>3d</fix>
</trkpt>
<trkpt lat="33.810313" lon="-118.393867">
  <ele>-0.136</ele>
  <time>2026-09-01T01:12:46Z</time>
  <course>187.06</course>
  <speed>0.01414213562373095</speed>
  <fix>3d</fix>
</trkpt>
<trkpt lat="33.810313" lon="-118.393867">
  <ele>-0.12</ele>
  <time>2026-09-01T01:12:46Z</time>
  <course>0.0</course>
  <speed>0.0</speed>
  <fix>3d</fix>
</trkpt>
<trkpt lat="33.810313" lon="-118.393867">
  <ele>-0.137</ele>
  <time>2026-09-01T01:12:46Z</time>
  <course>187.06</course>
  <speed>0.01414213562373095</speed>
  <fix>3d</fix>
</trkpt>
<trkpt lat="33.810313" lon="-118.393867">
  <ele>-0.12</ele>
  <time>2026-09-01T01:12:46Z</time>
  <course>0.0</course>
  <speed>0.0</speed>
  <fix>3d</fix>
</trkpt>
<trkpt lat="33.810313" lon="-118.393867">
  <ele>-0.137</ele>
  <time>2026-09-01T01:12:46Z</time>
  <course>187.05</course>
  <speed>0.01414213562373095</speed>
  <fix>3d</fix>
</trkpt>
<trkpt lat="33.810313" lon="-118.393867">
  <ele>-0.12</ele>
  <time>2026-09-01T01:12:46Z</time>
  <course>0.0</course>
  <speed>0.0</speed>
  <fix>3d</fix>
</trkpt>
<trkpt lat="33.810313" lon="-118.393867">
  <ele>-0.136</ele>
  <time>2026-09-01T01:12:46Z</time>
  <course>187.05</course>
  <speed>0.01414213562373095</speed>
  <fix>3d</fix>
</trkpt>
<trkpt lat="33.810313" lon="-118.393867">
  <ele>-0.12</ele>
  <time>2026-09-01T01:12:46Z</time>
  <course>0.0</course>
  <speed>0.0</speed>
  <fix>3d</fix>
</trkpt>
<trkpt lat="33.810313" lon="-118.393867">
  <ele>-0.133</ele>
  <time>2026-09-01T01:12:46Z</time>
  <course>187.04</course>
  <speed>0.01414213562373095</speed>
  <fix>3d</fix>
</trkpt>
<trkpt lat="33.810313" lon="-118.393867">
  <ele>-0.12</ele>
  <time>2026-09-01T01:12:46Z</time>
  <course>0.0</course>
  <speed>0.0</speed>
  <fix>3d</fix>
</trkpt>
<trkpt lat="33.810313" lon="-118.393867">
  <ele>-0.131</ele>
  <time>2026-09-01T01:12:46Z</time>
  <course>187.04</course>
  <speed>0.01414213562373095</speed>
  <fix>3d</fix>
</trkpt>
<trkpt lat="33.810313" lon="-118.393867">
  <ele>-0.12</ele>
  <time>2026-09-01T01:12:46Z</time>
  <course>0.0</course>
  <speed>0.0</speed>
  <fix>3d</fix>
</trkpt>
<trkpt lat="33.810313" lon="-118.393867">
  <ele>-0.129</ele>
  <time>2026-09-01T01:12:46Z</time>
  <course>187.03</course>
  <speed>0.01414213562373095</speed>
  <fix>3d</fix>
</trkpt>
<trkpt lat="33.810313" lon="-118.393867">
  <ele>-0.12</ele>
  <time>2026-09-01T01:12:46Z</time>
  <course>0.0</course>
  <speed>0.0</speed>
  <fix>3d</fix>
</trkpt>
<trkpt lat="33.810313" lon="-118.393867">
  <ele>-0.129</ele>
  <time>2026-09-01T01:12:46Z</time>
  <course>187.03</course>
  <speed>0.01</speed>
  <fix>3d</fix>
</trkpt>
<trkpt lat="33.810313" lon="-118.393867">
  <ele>-0.12</ele>
  <time>2026-09-01T01:12:46Z</time>
  <course>0.0</course>
  <speed>0.0</speed>
  <fix>3d</fix>
</trkpt>
<trkpt lat="33.810313" lon="-118.393867">
  <ele>-0.128</ele>
  <time>2026-09-01T01:12:46Z</time>
  <course>187.02</course>
  <speed>0.01</speed>
  <fix>3d</fix>
</trkpt>
<trkpt lat="33.810313" lon="-118.393867">
  <ele>-0.12</ele>
  <time>2026-09-01T01:12:46Z</time>
  <course>0.0</course>
  <speed>0.0</speed>
  <fix>3d</fix>
</trkpt>
<trkpt lat="33.810313" lon="-118.393867">
  <ele>-0.129</ele>
  <time>2026-09-01T01:12:46Z</time>
  <course>187.02</course>
  <speed>0.01</speed>
  <fix>3d</fix>
</trkpt>
<trkpt lat="33.810313" lon="-118.393867">
  <ele>-0.12</ele>
  <time>2026-09-01T01:12:46Z</time>
  <course>0.0</course>
  <speed>0.0</speed>
  <fix>3d</fix>
</trkpt>
<trkpt lat="33.810313" lon="-118.393867">
  <ele>-0.13</ele>
  <time>2026-09-01T01:12:46Z</time>
  <course>187.01</course>
  <speed>0.01</speed>
  <fix>3d</fix>
</trkpt>
<trkpt lat="33.810313" lon="-118.393867">
  <ele>-0.12</ele>
  <time>2026-09-01T01:12:46Z</time>
  <course>0.0</course>
  <speed>0.0</speed>
  <fix>3d</fix>
</trkpt>
<trkpt lat="33.810313" lon="-118.393867">
  <ele>-0.131</ele>
  <time>2026-09-01T01:12:46Z</time>
  <course>187.01</course>
  <speed>0.01</speed>
  <fix>3d</fix>
</trkpt>
<trkpt lat="33.810313" lon="-118.393867">
  <ele>-0.12</ele>
  <time>2026-09-01T01:12:46Z</time>
  <course>0.0</course>
  <speed>0.0</speed>
  <fix>3d</fix>
</trkpt>
<trkpt lat="33.810313" lon="-118.393867">
  <ele>-0.13</ele>
  <time>2026-09-01T01:12:46Z</time>
  <course>187.0</course>
  <speed>0.0</speed>
  <fix>3d</fix>
</trkpt>
<trkpt lat="33.810313" lon="-118.393867">
  <ele>-0.12</ele>
  <time>2026-09-01T01:12:46Z</time>
  <course>0.0</course>
  <speed>0.0</speed>
  <fix>3d</fix>
</trkpt>
<trkpt lat="33.810313" lon="-118.393867">
  <ele>-0.13</ele>
  <time>2026-09-01T01:12:46Z</time>
  <course>187.0</course>
  <speed>0.0</speed>
  <fix>3d</fix>
</trkpt>
<trkpt lat="33.810313" lon="-118.393867">
  <ele>-0.12</ele>
  <time>2026-09-01T01:12:46Z</time>
  <course>0.0</course>
  <speed>0.0</speed>
  <fix>3d</fix>
</trkpt>
<trkpt lat="33.810313" lon="-118.393867">
  <ele>-0.129</ele>
  <time>2026-09-01T01:12:46Z</time>
  <course>186.99</course>
  <speed>0.0</speed>
  <fix>3d</fix>
</trkpt>
<trkpt lat="33.810313" lon="-118.393867">
  <ele>-0.12</ele>
  <time>2026-09-01T01:12:46Z</time>
  <course>0.0</course>
  <speed>0.0</speed>
  <fix>3d</fix>
</trkpt>
<trkpt lat="33.810313" lon="-118.393867">
  <ele>-0.128</ele>
  <time>2026-09-01T01:12:46Z</time>
  <course>186.99</course>
  <speed>0.0</speed>
  <fix>3d</fix>
</trkpt>
<trkpt lat="33.810313" lon="-118.393867">
  <ele>-0.12</ele>
  <time>2026-09-01T01:12:46Z</time>
  <course>0.0</course>
  <speed>0.0</speed>
  <fix>3d</fix>
</trkpt>
<trkpt lat="33.810313" lon="-118.393867">
  <ele>-0.128</ele>
  <time>2026-09-01T01:12:46Z</time>
  <course>186.98</course>
  <speed>0.0</speed>
  <fix>3d</fix>
</trkpt>
<trkpt lat="33.810313" lon="-118.393867">
  <ele>-0.12</ele>
  <time>2026-09-01T01:12:46Z</time>
  <course>0.0</course>
  <speed>0.0</speed>
  <fix>3d</fix>
</trkpt>
<trkpt lat="33.810313" lon="-118.393867">
  <ele>-0.128</ele>
  <time>2026-09-01T01:12:46Z</time>
  <course>186.98</course>
  <speed>0.0</speed>
  <fix>3d</fix>
</trkpt>
<trkpt lat="33.810313" lon="-118.393867">
  <ele>-0.12</ele>
  <time>2026-09-01T01:12:46Z</time>
  <course>0.0</course>
  <speed>0.0</speed>
  <fix>3d</fix>
</trkpt>
<trkpt lat="33.810313" lon="-118.393867">
  <ele>-0.129</ele>
  <time>2026-09-01T01:12:46Z</time>
  <course>186.97</course>
  <speed>0.0</speed>
  <fix>3d</fix>
</trkpt>
<trkpt lat="33.810313" lon="-118.393867">
  <ele>-0.12</ele>
  <time>2026-09-01T01:12:46Z</time>
  <course>0.0</course>
  <speed>0.0</speed>
  <fix>3d</fix>
</trkpt>
<trkpt lat="33.810313" lon="-118.393867">
  <ele>-0.131</ele>
  <time>2026-09-01T01:12:46Z</time>
  <course>186.97</course>
  <speed>0.0</speed>
  <fix>3d</fix>
</trkpt>
<trkpt lat="33.810313" lon="-118.393867">
  <ele>-0.12</ele>
  <time>2026-09-01T01:12:46Z</time>
  <course>0.0</course>
  <speed>0.0</speed>
  <fix>3d</fix>
</trkpt>
<trkpt lat="33.810313" lon="-118.393867">
  <ele>-0.133</ele>
  <time>2026-09-01T01:12:46Z</time>
  <course>186.96</course>
  <speed>0.0</speed>
  <fix>3d</fix>
</trkpt>
<trkpt lat="33.810313" lon="-118.393867">
  <ele>-0.12</ele>
  <time>2026-09-01T01:12:46Z</time>
  <course>0.0</course>
  <speed>0.0</speed>
  <fix>3d</fix>
</trkpt>
<trkpt lat="33.810313" lon="-118.393867">
  <ele>-0.134</ele>
  <time>2026-09-01T01:12:46Z</time>
  <course>186.96</course>
  <speed>0.0</speed>
  <fix>3d</fix>
</trkpt>
<trkpt lat="33.810313" lon="-118.393867">
  <ele>-0.12</ele>
  <time>2026-09-01T01:12:46Z</time>
  <course>0.0</course>
  <speed>0.0</speed>
  <fix>3d</fix>
</trkpt>
<trkpt lat="33.810313" lon="-118.393867">
  <ele>-0.133</ele>
  <time>2026-09-01T01:12:46Z</time>
  <course>186.95</course>
  <speed>0.0</speed>
  <fix>3d</fix>
</trkpt>
<trkpt lat="33.810313" lon="-118.393867">
  <ele>-0.12</ele>
  <time>2026-09-01T01:12:46Z</time>
  <course>0.0</course>
  <speed>0.0</speed>
  <fix>3d</fix>
</trkpt>
<trkpt lat="33.810313" lon="-118.393867">
  <ele>-0.131</ele>
  <time>2026-09-01T01:12:46Z</time>
  <course>186.95</course>
  <speed>0.0</speed>
  <fix>3d</fix>
</trkpt>
<trkpt lat="33.810313" lon="-118.393867">
  <ele>-0.12</ele>
  <time>2026-09-01T01:12:46Z</time>
  <course>0.0</course>
  <speed>0.0</speed>
  <fix>3d</fix>
</trkpt>
<trkpt lat="33.810313" lon="-118.393867">
  <ele>-0.13</ele>
  <time>2026-09-01T01:12:46Z</time>
  <course>186.94</course>
  <speed>0.0</speed>
  <fix>3d</fix>
</trkpt>
<trkpt lat="33.810313" lon="-118.393867">
  <ele>-0.12</ele>
  <time>2026-09-01T01:12:46Z</time>
  <course>0.0</course>
  <speed>0.0</speed>
  <fix>3d</fix>
</trkpt>
<trkpt lat="33.810313" lon="-118.393867">
  <ele>-0.129</ele>
  <time>2026-09-01T01:12:46Z</time>
  <course>186.94</course>
  <speed>0.0</speed>
  <fix>3d</fix>
</trkpt>
<trkpt lat="33.810313" lon="-118.393867">
  <ele>-0.12</ele>
  <time>2026-09-01T01:12:46Z</time>
  <course>0.0</course>
  <speed>0.0</speed>
  <fix>3d</fix>
</trkpt>
<trkpt lat="33.810313" lon="-118.393867">
  <ele>-0.129</ele>
  <time>2026-09-01T01:12:46Z</time>
  <course>186.93</course>
  <speed>0.0</speed>
  <fix>3d</fix>
</trkpt>
<trkpt lat="33.810313" lon="-118.393867">
  <ele>-0.12</ele>
  <time>2026-09-01T01:12:46Z</time>
  <course>0.0</course>
  <speed>0.0</speed>
  <fix>3d</fix>
</trkpt>
<trkpt lat="33.810313" lon="-118.393867">
  <ele>-0.128</ele>
  <time>2026-09-01T01:12:46Z</time>
  <course>186.93</course>
  <speed>0.0</speed>
  <fix>3d</fix>
</trkpt>
<trkpt lat="33.810313" lon="-118.393867">
  <ele>-0.12</ele>
  <time>2026-09-01T01:12:46Z</time>
  <course>0.0</course>
  <speed>0.0</speed>
  <fix>3d</fix>
</trkpt>
<trkpt lat="33.810313" lon="-118.393867">
  <ele>-0.127</ele>
  <time>2026-09-01T01:12:46Z</time>
  <course>186.92</course>
  <speed>0.0</speed>
  <fix>3d</fix>
</trkpt>
<trkpt lat="33.810313" lon="-118.393867">
  <ele>-0.12</ele>
  <time>2026-09-01T01:12:46Z</time>
  <course>0.0</course>
  <speed>0.0</speed>
  <fix>3d</fix>
</trkpt>
<trkpt lat="33.810313" lon="-118.393867">
  <ele>-0.128</ele>
  <time>2026-09-01T01:12:46Z</time>
  <course>186.92</course>
  <speed>0.0</speed>
  <fix>3d</fix>
</trkpt>
<trkpt lat="33.810313" lon="-118.393867">
  <ele>-0.12</ele>
  <time>2026-09-01T01:12:46Z</time>
  <course>0.0</course>
  <speed>0.0</speed>
  <fix>3d</fix>
</trkpt>
<trkpt lat="33.810313" lon="-118.393867">
  <ele>-0.128</ele>
  <time>2026-09-01T01:12:46Z</time>
  <course>186.92</course>
  <speed>0.0</speed>
  <fix>3d</fix>
</trkpt>
<trkpt lat="33.810313" lon="-118.393867">
  <ele>-0.12</ele>
  <time>2026-09-01T01:12:46Z</time>
  <course>0.0</course>
  <speed>0.0</speed>
  <fix>3d</fix>
</trkpt>
<trkpt lat="33.810313" lon="-118.393867">
  <ele>-0.127</ele>
  <time>2026-09-01T01:12:46Z</time>
  <course>186.91</course>
  <speed>0.0</speed>
  <fix>3d</fix>
</trkpt>
<trkpt lat="33.810313" lon="-118.393867">
  <ele>-0.12</ele>
  <time>2026-09-01T01:12:46Z</time>
  <course>0.0</course>
  <speed>0.0</speed>
  <fix>3d</fix>
</trkpt>
<trkpt lat="33.810313" lon="-118.393867">
  <ele>-0.127</ele>
  <time>2026-09-01T01:12:46Z</time>
  <course>186.91</course>
  <speed>0.0</speed>
  <fix>3d</fix>
</trkpt>
<trkpt lat="33.810313" lon="-118.393867">
  <ele>-0.12</ele>
  <time>2026-09-01T01:12:46Z</time>
  <course>0.0</course>
  <speed>0.0</speed>
  <fix>3d</fix>
</trkpt>
<trkpt lat="33.810313" lon="-118.393867">
  <ele>-0.125</ele>
  <time>2026-09-01T01:12:46Z</time>
  <course>186.9</course>
  <speed>0.0</speed>
  <fix>3d</fix>
</trkpt>
<trkpt lat="33.810313" lon="-118.393867">
  <ele>-0.12</ele>
  <time>2026-09-01T01:12:46Z</time>
  <course>0.0</course>
  <speed>0.0</speed>
  <fix>3d</fix>
</trkpt>
<trkpt lat="33.810313" lon="-118.393867">
  <ele>-0.124</ele>
  <time>2026-09-01T01:12:46Z</time>
  <course>186.9</course>
  <speed>0.0</speed>
  <fix>3d</fix>
</trkpt>
<trkpt lat="33.810313" lon="-118.393867">
  <ele>-0.12</ele>
  <time>2026-09-01T01:12:46Z</time>
  <course>0.0</course>
  <speed>0.0</speed>
  <fix>3d</fix>
</trkpt>
<trkpt lat="33.810313" lon="-118.393867">
  <ele>-0.123</ele>
  <time>2026-09-01T01:12:46Z</time>
  <course>186.89</course>
  <speed>0.0</speed>
  <fix>3d</fix>
</trkpt>
<trkpt lat="33.810313" lon="-118.393867">
  <ele>-0.12</ele>
  <time>2026-09-01T01:12:46Z</time>
  <course>0.0</course>
  <speed>0.0</speed>
  <fix>3d</fix>
</trkpt>
<trkpt lat="33.810313" lon="-118.393867">
  <ele>-0.121</ele>
  <time>2026-09-01T01:12:46Z</time>
  <course>186.89</course>
  <speed>0.01</speed>
  <fix>3d</fix>
</trkpt>
<trkpt lat="33.810313" lon="-118.393867">
  <ele>-0.12</ele>
  <time>2026-09-01T01:12:46Z</time>
  <course>0.0</course>
  <speed>0.0</speed>
  <fix>3d</fix>
</trkpt>
<trkpt lat="33.810313" lon="-118.393867">
  <ele>-0.12</ele>
  <time>2026-09-01T01:12:46Z</time>
  <course>186.88</course>
  <speed>0.01</speed>
  <fix>3d</fix>
</trkpt>
<trkpt lat="33.810313" lon="-118.393867">
  <ele>-0.12</ele>
  <time>2026-09-01T01:12:46Z</time>
  <course>0.0</course>
  <speed>0.0</speed>
  <fix>3d</fix>
</trkpt>
<trkpt lat="33.810313" lon="-118.393867">
  <ele>-0.119</ele>
  <time>2026-09-01T01:12:46Z</time>
  <course>186.88</course>
  <speed>0.01</speed>
  <fix>3d</fix>
</trkpt>
<trkpt lat="33.810313" lon="-118.393867">
  <ele>-0.12</ele>
  <time>2026-09-01T01:12:46Z</time>
  <course>0.0</course>
  <speed>0.0</speed>
  <fix>3d</fix>
</trkpt>
<trkpt lat="33.810313" lon="-118.393867">
  <ele>-0.119</ele>
  <time>2026-09-01T01:12:46Z</time>
  <course>186.87</course>
  <speed>0.01</speed>
  <fix>3d</fix>
</trkpt>
<trkpt lat="33.810313" lon="-118.393867">
  <ele>-0.12</ele>
  <time>2026-09-01T01:12:46Z</time>
  <course>0.0</course>
  <speed>0.0</speed>
  <fix>3d</fix>
</trkpt>
<trkpt lat="33.810313" lon="-118.393867">
  <ele>-0.119</ele>
  <time>2026-09-01T01:12:46Z</time>
  <course>186.87</course>
  <speed>0.01</speed>
  <fix>3d</fix>
</trkpt>
<trkpt lat="33.810313" lon="-118.393867">
  <ele>-0.12</ele>
  <time>2026-09-01T01:12:46Z</time>
  <course>0.0</course>
  <speed>0.0</speed>
  <fix>3d</fix>
</trkpt>
<trkpt lat="33.810313" lon="-118.393867">
  <ele>-0.119</ele>
  <time>2026-09-01T01:12:46Z</time>
  <course>186.86</course>
  <speed>0.01</speed>
  <fix>3d</fix>
</trkpt>
<trkpt lat="33.810313" lon="-118.393867">
  <ele>-0.12</ele>
  <time>2026-09-01T01:12:46Z</time>
  <course>0.0</course>
  <speed>0.0</speed>
  <fix>3d</fix>
</trkpt>
<trkpt lat="33.810313" lon="-118.393867">
  <ele>-0.119</ele>
  <time>2026-09-01T01:12:46Z</time>
  <course>186.86</course>
  <speed>0.01</speed>
  <fix>3d</fix>
</trkpt>
<trkpt lat="33.810313" lon="-118.393867">
  <ele>-0.12</ele>
  <time>2026-09-01T01:12:46Z</time>
  <course>0.0</course>
  <speed>0.0</speed>
  <fix>3d</fix>
</trkpt>
<trkpt lat="33.810313" lon="-118.393867">
  <ele>-0.119</ele>
  <time>2026-09-01T01:12:46Z</time>
  <course>186.85</course>
  <speed>0.01</speed>
  <fix>3d</fix>
</trkpt>
<trkpt lat="33.810313" lon="-118.393867">
  <ele>-0.12</ele>
  <time>2026-09-01T01:12:46Z</time>
  <course>0.0</course>
  <speed>0.0</speed>
  <fix>3d</fix>
</trkpt>
<trkpt lat="33.810313" lon="-118.393867">
  <ele>-0.119</ele>
  <time>2026-09-01T01:12:46Z</time>
  <course>186.85</course>
  <speed>0.01</speed>
  <fix>3d</fix>
</trkpt>
<trkpt lat="33.810313" lon="-118.393867">
  <ele>-0.12</ele>
  <time>2026-09-01T01:12:46Z</time>
  <course>0.0</course>
  <speed>0.0</speed>
  <fix>3d</fix>
</trkpt>
<trkpt lat="33.810313" lon="-118.393867">
  <ele>-0.12</ele>
  <time>2026-09-01T01:12:46Z</time>
  <course>186.84</course>
  <speed>0.01414213562373095</speed>
  <fix>3d</fix>
</trkpt>
<trkpt lat="33.810313" lon="-118.393867">
  <ele>-0.12</ele>
  <time>2026-09-01T01:12:46Z</time>
  <course>0.0</course>
  <speed>0.0</speed>
  <fix>3d</fix>
</trkpt>
<trkpt lat="33.810313" lon="-118.393867">
  <ele>-0.121</ele>
  <time>2026-09-01T01:12:46Z</time>
  <course>186.84</course>
  <speed>0.01414213562373095</speed>
  <fix>3d</fix>
</trkpt>
<trkpt lat="33.810313" lon="-118.393867">
  <ele>-0.12</ele>
  <time>2026-09-01T01:12:46Z</time>
  <course>0.0</course>
  <speed>0.0</speed>
  <fix>3d</fix>
</trkpt>
<trkpt lat="33.810313" lon="-118.393867">
  <ele>-0.124</ele>
  <time>2026-09-01T01:12:46Z</time>
  <course>186.83</course>
  <speed>0.01414213562373095</speed>
  <fix>3d</fix>
</trkpt>
<trkpt lat="33.810313" lon="-118.393867">
  <ele>-0.12</ele>
  <time>2026-09-01T01:12:46Z</time>
  <course>0.0</course>
  <speed>0.0</speed>
  <fix>3d</fix>
</trkpt>
<trkpt lat="33.810313" lon="-118.393867">
  <ele>-0.125</ele>
  <time>2026-09-01T01:12:46Z</time>
  <course>186.83</course>
  <speed>0.01414213562373095</speed>
  <fix>3d</fix>
</trkpt>
<trkpt lat="33.810313" lon="-118.393867">
  <ele>-0.12</ele>
  <time>2026-09-01T01:12:46Z</time>
  <course>0.0</course>
  <speed>0.0</speed>
  <fix>3d</fix>
</trkpt>
<trkpt lat="33.810313" lon="-118.393867">
  <ele>-0.128</ele>
  <time>2026-09-01T01:12:46Z</time>
  <course>186.82</course>
  <speed>0.01414213562373095</speed>
  <fix>3d</fix>
</trkpt>
<trkpt lat="33.810313" lon="-118.393867">
  <ele>-0.12</ele>
  <time>2026-09-01T01:12:46Z</time>
  <course>0.0</course>
  <speed>0.0</speed>
  <fix>3d</fix>
</trkpt>
<trkpt lat="33.810313" lon="-118.393867">
  <ele>-0.13</ele>
  <time>2026-09-01T01:12:46Z</time>
  <course>186.82</course>
  <speed>0.01414213562373095</speed>
  <fix>3d</fix>
</trkpt>
<trkpt lat="33.810313" lon="-118.393867">
  <ele>-0.12</ele>
  <time>2026-09-01T01:12:46Z</time>
  <course>0.0</course>
  <speed>0.0</speed>
  <fix>3d</fix>
</trkpt>
<trkpt lat="33.810313" lon="-118.393867">
  <ele>-0.132</ele>
  <time>2026-09-01T01:12:46Z</time>
  <course>186.82</course>
  <speed>0.01414213562373095</speed>
  <fix>3d</fix>
</trkpt>
<trkpt lat="33.810313" lon="-118.393867">
  <ele>-0.12</ele>
  <time>2026-09-01T01:12:46Z</time>
  <course>0.0</course>
  <speed>0.0</speed>
  <fix>3d</fix>
</trkpt>
<trkpt lat="33.810313" lon="-118.393867">
  <ele>-0.133</ele>
  <time>2026-09-01T01:12:46Z</time>
  <course>186.81</course>
  <speed>0.01414213562373095</speed>
  <fix>3d</fix>
</trkpt>
<trkpt lat="33.810313" lon="-118.393867">
  <ele>-0.12</ele>
  <time>2026-09-01T01:12:46Z</time>
  <course>0.0</course>
  <speed>0.0</speed>
  <fix>3d</fix>
</trkpt>
<trkpt lat="33.810313" lon="-118.393867">
  <ele>-0.132</ele>
  <time>2026-09-01T01:12:46Z</time>
  <course>186.81</course>
  <speed>0.01414213562373095</speed>
  <fix>3d</fix>
</trkpt>
<trkpt lat="33.810313" lon="-118.393867">
  <ele>-0.12</ele>
  <time>2026-09-01T01:12:46Z</time>
  <course>0.0</course>
  <speed>0.0</speed>
  <fix>3d</fix>
</trkpt>
<trkpt lat="33.810313" lon="-118.393867">
  <ele>-0.13</ele>
  <time>2026-09-01T01:12:46Z</time>
  <course>186.8</course>
  <speed>0.01414213562373095</speed>
  <fix>3d</fix>
</trkpt>
<trkpt lat="33.810313" lon="-118.393867">
  <ele>-0.12</ele>
  <time>2026-09-01T01:12:46Z</time>
  <course>0.0</course>
  <speed>0.0</speed>
  <fix>3d</fix>
</trkpt>
<trkpt lat="33.810313" lon="-118.393867">
  <ele>-0.129</ele>
  <time>2026-09-01T01:12:46Z</time>
  <course>186.8</course>
  <speed>0.01414213562373095</speed>
  <fix>3d</fix>
</trkpt>
<trkpt lat="33.810313" lon="-118.393867">
  <ele>-0.12</ele>
  <time>2026-09-01T01:12:46Z</time>
  <course>0.0</course>
  <speed>0.0</speed>
  <fix>3d</fix>
</trkpt>
<trkpt lat="33.8103131" lon="-118.393867">
  <ele>-0.128</ele>
  <time>2026-09-01T01:12:46Z</time>
  <course>186.79</course>
  <speed>0.01414213562373095</speed>
  <fix>3d</fix>
</trkpt>
<trkpt lat="33.810313" lon="-118.393867">
  <ele>-0.12</ele>
  <time>2026-09-01T01:12:46Z</time>
  <course>0.0</course>
  <speed>0.0</speed>
  <fix>3d</fix>
</trkpt>
<trkpt lat="33.8103131" lon="-118.393867">
  <ele>-0.128</ele>
  <time>2026-09-01T01:12:46Z</time>
  <course>186.79</course>
  <speed>0.01414213562373095</speed>
  <fix>3d</fix>
</trkpt>
<trkpt lat="33.810313" lon="-118.393867">
  <ele>-0.12</ele>
  <time>2026-09-01T01:12:46Z</time>
  <course>0.0</course>
  <speed>0.0</speed>
  <fix>3d</fix>
</trkpt>
<trkpt lat="33.8103131" lon="-118.3938671">
  <ele>-0.128</ele>
  <time>2026-09-01T01:12:46Z</time>
  <course>186.78</course>
  <speed>0.01414213562373095</speed>
  <fix>3d</fix>
</trkpt>
<trkpt lat="33.810313" lon="-118.393867">
  <ele>-0.12</ele>
  <time>2026-09-01T01:12:46Z</time>
  <course>0.0</course>
  <speed>0.0</speed>
  <fix>3d</fix>
</trkpt>
<trkpt lat="33.8103131" lon="-118.3938671">
  <ele>-0.128</ele>
  <time>2026-09-01T01:12:46Z</time>
  <course>186.78</course>
  <speed>0.01414213562373095</speed>
  <fix>3d</fix>
</trkpt>
<trkpt lat="33.810313" lon="-118.393867">
  <ele>-0.12</ele>
  <time>2026-09-01T01:12:46Z</time>
  <course>0.0</course>
  <speed>0.0</speed>
  <fix>3d</fix>
</trkpt>
<trkpt lat="33.8103131" lon="-118.3938671">
  <ele>-0.127</ele>
  <time>2026-09-01T01:12:46Z</time>
  <course>186.77</course>
  <speed>0.01414213562373095</speed>
  <fix>3d</fix>
</trkpt>
<trkpt lat="33.810313" lon="-118.393867">
  <ele>-0.12</ele>
  <time>2026-09-01T01:12:46Z</time>
  <course>0.0</course>
  <speed>0.0</speed>
  <fix>3d</fix>
</trkpt>
<trkpt lat="33.8103131" lon="-118.3938671">
  <ele>-0.126</ele>
  <time>2026-09-01T01:12:46Z</time>
  <course>186.77</course>
  <speed>0.01414213562373095</speed>
  <fix>3d</fix>
</trkpt>
<trkpt lat="33.810313" lon="-118.393867">
  <ele>-0.12</ele>
  <time>2026-09-01T01:12:46Z</time>
  <course>0.0</course>
  <speed>0.0</speed>
  <fix>3d</fix>
</trkpt>
<trkpt lat="33.8103131" lon="-118.3938671">
  <ele>-0.125</ele>
  <time>2026-09-01T01:12:46Z</time>
  <course>186.76</course>
  <speed>0.022360679774997897</speed>
  <fix>3d</fix>
</trkpt>
<trkpt lat="33.810313" lon="-118.393867">
  <ele>-0.12</ele>
  <time>2026-09-01T01:12:46Z</time>
  <course>0.0</course>
  <speed>0.0</speed>
  <fix>3d</fix>
</trkpt>
<trkpt lat="33.8103131" lon="-118.3938671">
  <ele>-0.124</ele>
  <time>2026-09-01T01:12:46Z</time>
  <course>186.76</course>
  <speed>0.022360679774997897</speed>
  <fix>3d</fix>
</trkpt>
<trkpt lat="33.810313" lon="-118.393867">
  <ele>-0.12</ele>
  <time>2026-09-01T01:12:46Z</time>
  <course>0.0</course>
  <speed>0.0</speed>
  <fix>3d</fix>
</trkpt>
<trkpt lat="33.8103131" lon="-118.3938671">
  <ele>-0.123</ele>
  <time>2026-09-01T01:12:46Z</time>
  <course>186.75</course>
  <speed>0.022360679774997897</speed>
  <fix>3d</fix>
</trkpt>
<trkpt lat="33.810313" lon="-118.393867">
  <ele>-0.12</ele>
  <time>2026-09-01T01:12:46Z</time>
  <course>0.0</course>
  <speed>0.0</speed>
  <fix>3d</fix>
</trkpt>
<trkpt lat="33.8103131" lon="-118.3938671">
  <ele>-0.122</ele>
  <time>2026-09-01T01:12:46Z</time>
  <course>186.75</course>
  <speed>0.022360679774997897</speed>
  <fix>3d</fix>
</trkpt>
<trkpt lat="33.810313" lon="-118.393867">
  <ele>-0.12</ele>
  <time>2026-09-01T01:12:46Z</time>
  <course>0.0</course>
  <speed>0.0</speed>
  <fix>3d</fix>
</trkpt>
<trkpt lat="33.8103131" lon="-118.3938671">
  <ele>-0.122</ele>
  <time>2026-09-01T01:12:46Z</time>
  <course>186.74</course>
  <speed>0.022360679774997897</speed>
  <fix>3d</fix>
</trkpt>
<trkpt lat="33.810313" lon="-118.393867">
  <ele>-0.12</ele>
  <time>2026-09-01T01:12:46Z</time>
  <course>0.0</course>
  <speed>0.0</speed>
  <fix>3d</fix>
</trkpt>
<trkpt lat="33.8103131" lon="-118.3938671">
  <ele>-0.122</ele>
  <time>2026-09-01T01:12:46Z</time>
  <course>186.74</course>
  <speed>0.022360679774997897</speed>
  <fix>3d</fix>
</trkpt>
<trkpt lat="33.810313" lon="-118.393867">
  <ele>-0.12</ele>
  <time>2026-09-01T01:12:46Z</time>
  <course>0.0</course>
  <speed>0.0</speed>
  <fix>3d</fix>
</trkpt>
<trkpt lat="33.8103131" lon="-118.3938671">
  <ele>-0.121</ele>
  <time>2026-09-01T01:12:46Z</time>
  <course>186.73</course>
  <speed>0.022360679774997897</speed>
  <fix>3d</fix>
</trkpt>
<trkpt lat="33.810313" lon="-118.393867">
  <ele>-0.12</ele>
  <time>2026-09-01T01:12:46Z</time>
  <course>0.0</course>
  <speed>0.0</speed>
  <fix>3d</fix>
</trkpt>
<trkpt lat="33.8103131" lon="-118.3938671">
  <ele>-0.122</ele>
  <time>2026-09-01T01:12:46Z</time>
  <course>186.73</course>
  <speed>0.022360679774997897</speed>
  <fix>3d</fix>
</trkpt>
<trkpt lat="33.810313" lon="-118.393867">
  <ele>-0.12</ele>
  <time>2026-09-01T01:12:46Z</time>
  <course>0.0</course>
  <speed>0.0</speed>
  <fix>3d</fix>
</trkpt>
<trkpt lat="33.8103131" lon="-118.3938671">
  <ele>-0.122</ele>
  <time>2026-09-01T01:12:46Z</time>
  <course>186.72</course>
  <speed>0.022360679774997897</speed>
  <fix>3d</fix>
</trkpt>
<trkpt lat="33.810313" lon="-118.393867">
  <ele>-0.12</ele>
  <time>2026-09-01T01:12:46Z</time>
  <course>0.0</course>
  <speed>0.0</speed>
  <fix>3d</fix>
</trkpt>
<trkpt lat="33.8103131" lon="-118.3938671">
  <ele>-0.123</ele>
  <time>2026-09-01T01:12:46Z</time>
  <course>186.72</course>
  <speed>0.022360679774997897</speed>
  <fix>3d</fix>
</trkpt>
<trkpt lat="33.810313" lon="-118.393867">
  <ele>-0.12</ele>
  <time>2026-09-01T01:12:46Z</time>
  <course>0.0</course>
  <speed>0.0</speed>
  <fix>3d</fix>
</trkpt>
<trkpt lat="33.8103131" lon="-118.3938671">
  <ele>-0.122</ele>
  <time>2026-09-01T01:12:46Z</time>
  <course>186.71</course>
  <speed>0.022360679774997897</speed>
  <fix>3d</fix>
</trkpt>
<trkpt lat="33.810313" lon="-118.393867">
  <ele>-0.12</ele>
  <time>2026-09-01T01:12:46Z</time>
  <course>0.0</course>
  <speed>0.0</speed>
  <fix>3d</fix>
</trkpt>
<trkpt lat="33.8103131" lon="-118.3938671">
  <ele>-0.122</ele>
  <time>2026-09-01T01:12:46Z</time>
  <course>186.71</course>
  <speed>0.022360679774997897</speed>
  <fix>3d</fix>
</trkpt>
<trkpt lat="33.810313" lon="-118.393867">
  <ele>-0.12</ele>
  <time>2026-09-01T01:12:46Z</time>
  <course>0.0</course>
  <speed>0.0</speed>
  <fix>3d</fix>
</trkpt>
<trkpt lat="33.8103131" lon="-118.3938671">
  <ele>-0.121</ele>
  <time>2026-09-01T01:12:46Z</time>
  <course>186.71</course>
  <speed>0.022360679774997897</speed>
  <fix>3d</fix>
</trkpt>
<trkpt lat="33.810313" lon="-118.393867">
  <ele>-0.12</ele>
  <time>2026-09-01T01:12:46Z</time>
  <course>0.0</course>
  <speed>0.0</speed>
  <fix>3d</fix>
</trkpt>
<trkpt lat="33.8103131" lon="-118.3938671">
  <ele>-0.12</ele>
  <time>2026-09-01T01:12:46Z</time>
  <course>186.7</course>
  <speed>0.022360679774997897</speed>
  <fix>3d</fix>
</trkpt>
<trkpt lat="33.810313" lon="-118.393867">
  <ele>-0.12</ele>
  <time>2026-09-01T01:12:46Z</time>
  <course>0.0</course>
  <speed>0.0</speed>
  <fix>3d</fix>
</trkpt>
<trkpt lat="33.8103131" lon="-118.3938671">
  <ele>-0.12</ele>
  <time>2026-09-01T01:12:46Z</time>
  <course>186.7</course>
  <speed>0.022360679774997897</speed>
  <fix>3d</fix>
</trkpt>
<trkpt lat="33.810313" lon="-118.393867">
  <ele>-0.12</ele>
  <time>2026-09-01T01:12:46Z</time>
  <course>0.0</course>
  <speed>0.0</speed>
  <fix>3d</fix>
</trkpt>
<trkpt lat="33.8103131" lon="-118.3938671">
  <ele>-0.12</ele>
  <time>2026-09-01T01:12:46Z</time>
  <course>186.69</course>
  <speed>0.0282842712474619</speed>
  <fix>3d</fix>
</trkpt>
<trkpt lat="33.810313" lon="-118.393867">
  <ele>-0.12</ele>
  <time>2026-09-01T01:12:46Z</time>
  <course>0.0</course>
  <speed>0.0</speed>
  <fix>3d</fix>
</trkpt>
<trkpt lat="33.8103131" lon="-118.3938671">
  <ele>-0.122</ele>
  <time>2026-09-01T01:12:46Z</time>
  <course>186.69</course>
  <speed>0.0282842712474619</speed>
  <fix>3d</fix>
</trkpt>
<trkpt lat="33.810313" lon="-118.393867">
  <ele>-0.12</ele>
  <time>2026-09-01T01:12:46Z</time>
  <course>0.0</course>
  <speed>0.0</speed>
  <fix>3d</fix>
</trkpt>
<trkpt lat="33.8103131" lon="-118.3938671">
  <ele>-0.124</ele>
  <time>2026-09-01T01:12:46Z</time>
  <course>186.68</course>
  <speed>0.0282842712474619</speed>
  <fix>3d</fix>
</trkpt>
<trkpt lat="33.810313" lon="-118.393867">
  <ele>-0.12</ele>
  <time>2026-09-01T01:12:46Z</time>
  <course>0.0</course>
  <speed>0.0</speed>
  <fix>3d</fix>
</trkpt>
<trkpt lat="33.8103131" lon="-118.3938671">
  <ele>-0.127</ele>
  <time>2026-09-01T01:12:46Z</time>
  <course>186.68</course>
  <speed>0.0282842712474619</speed>
  <fix>3d</fix>
</trkpt>
<trkpt lat="33.810313" lon="-118.393867">
  <ele>-0.12</ele>
  <time>2026-09-01T01:12:46Z</time>
  <course>0.0</course>
  <speed>0.0</speed>
  <fix>3d</fix>
</trkpt>
<trkpt lat="33.8103131" lon="-118.3938671">
  <ele>-0.129</ele>
  <time>2026-09-01T01:12:46Z</time>
  <course>186.67</course>
  <speed>0.0282842712474619</speed>
  <fix>3d</fix>
</trkpt>
<trkpt lat="33.810313" lon="-118.393867">
  <ele>-0.12</ele>
  <time>2026-09-01T01:12:46Z</time>
  <course>0.0</course>
  <speed>0.0</speed>
  <fix>3d</fix>
</trkpt>
<trkpt lat="33.8103131" lon="-118.3938671">
  <ele>-0.13</ele>
  <time>2026-09-01T01:12:46Z</time>
  <course>186.67</course>
  <speed>0.0282842712474619</speed>
  <fix>3d</fix>
</trkpt>
<trkpt lat="33.810313" lon="-118.393867">
  <ele>-0.12</ele>
  <time>2026-09-01T01:12:46Z</time>
  <course>0.0</course>
  <speed>0.0</speed>
  <fix>3d</fix>
</trkpt>
<trkpt lat="33.8103131" lon="-118.3938671">
  <ele>-0.129</ele>
  <time>2026-09-01T01:12:46Z</time>
  <course>186.67</course>
  <speed>0.0282842712474619</speed>
  <fix>3d</fix>
</trkpt>
<trkpt lat="33.810313" lon="-118.393867">
  <ele>-0.12</ele>
  <time>2026-09-01T01:12:46Z</time>
  <course>0.0</course>
  <speed>0.0</speed>
  <fix>3d</fix>
</trkpt>
<trkpt lat="33.8103132" lon="-118.3938671">
  <ele>-0.127</ele>
  <time>2026-09-01T01:12:46Z</time>
  <course>186.66</course>
  <speed>0.0282842712474619</speed>
  <fix>3d</fix>
</trkpt>
<trkpt lat="33.810313" lon="-118.393867">
  <ele>-0.12</ele>
  <time>2026-09-01T01:12:46Z</time>
  <course>0.0</course>
  <speed>0.0</speed>
  <fix>3d</fix>
</trkpt>
<trkpt lat="33.8103132" lon="-118.3938671">
  <ele>-0.125</ele>
  <time>2026-09-01T01:12:46Z</time>
  <course>186.66</course>
  <speed>0.0282842712474619</speed>
  <fix>3d</fix>
</trkpt>
<trkpt lat="33.810313" lon="-118.393867">
  <ele>-0.12</ele>
  <time>2026-09-01T01:12:46Z</time>
  <course>0.0</course>
  <speed>0.0</speed>
  <fix>3d</fix>
</trkpt>
<trkpt lat="33.8103132" lon="-118.3938671">
  <ele>-0.124</ele>
  <time>2026-09-01T01:12:46Z</time>
  <course>186.65</course>
  <speed>0.0282842712474619</speed>
  <fix>3d</fix>
</trkpt>
<trkpt lat="33.810313" lon="-118.393867">
  <ele>-0.12</ele>
  <time>2026-09-01T01:12:46Z</time>
  <course>0.0</course>
  <speed>0.0</speed>
  <fix>3d</fix>
</trkpt>
<trkpt lat="33.8103132" lon="-118.3938672">
  <ele>-0.124</ele>
  <time>2026-09-01T01:12:46Z</time>
  <course>186.65</course>
  <speed>0.0282842712474619</speed>
  <fix>3d</fix>
</trkpt>
<trkpt lat="33.810313" lon="-118.393867">
  <ele>-0.12</ele>
  <time>2026-09-01T01:12:46Z</time>
  <course>0.0</course>
  <speed>0.0</speed>
  <fix>3d</fix>
</trkpt>
<trkpt lat="33.8103132" lon="-118.3938672">
  <ele>-0.123</ele>
  <time>2026-09-01T01:12:46Z</time>
  <course>186.64</course>
  <speed>0.0282842712474619</speed>
  <fix>3d</fix>
</trkpt>
<trkpt lat="33.810313" lon="-118.393867">
  <ele>-0.12</ele>
  <time>2026-09-01T01:12:46Z</time>
  <course>0.0</course>
  <speed>0.0</speed>
  <fix>3d</fix>
</trkpt>
<trkpt lat="33.8103132" lon="-118.3938672">
  <ele>-0.122</ele>
  <time>2026-09-01T01:12:46Z</time>
  <course>186.64</course>
  <speed>0.0282842712474619</speed>
  <fix>3d</fix>
</trkpt>
<trkpt lat="33.810313" lon="-118.393867">
  <ele>-0.12</ele>
  <time>2026-09-01T01:12:46Z</time>
  <course>0.0</course>
  <speed>0.0</speed>
  <fix>3d</fix>
</trkpt>
<trkpt lat="33.8103132" lon="-118.3938672">
  <ele>-0.122</ele>
  <time>2026-09-01T01:12:46Z</time>
  <course>186.64</course>
  <speed>0.0282842712474619</speed>
  <fix>3d</fix>
</trkpt>
<trkpt lat="33.810313" lon="-118.393867">
  <ele>-0.12</ele>
  <time>2026-09-01T01:12:46Z</time>
  <course>0.0</course>
  <speed>0.0</speed>
  <fix>3d</fix>
</trkpt>
<trkpt lat="33.8103132" lon="-118.3938672">
  <ele>-0.122</ele>
  <time>2026-09-01T01:12:46Z</time>
  <course>186.63</course>
  <speed>0.0282842712474619</speed>
  <fix>3d</fix>
</trkpt>
<trkpt lat="33.810313" lon="-118.393867">
  <ele>-0.12</ele>
  <time>2026-09-01T01:12:46Z</time>
  <course>0.0</course>
  <speed>0.0</speed>
  <fix>3d</fix>
</trkpt>
<trkpt lat="33.8103132" lon="-118.3938672">
  <ele>-0.122</ele>
  <time>2026-09-01T01:12:46Z</time>
  <course>186.63</course>
  <speed>0.0282842712474619</speed>
  <fix>3d</fix>
</trkpt>
<trkpt lat="33.810313" lon="-118.393867">
  <ele>-0.12</ele>
  <time>2026-09-01T01:12:46Z</time>
  <course>0.0</course>
  <speed>0.0</speed>
  <fix>3d</fix>
</trkpt>
<trkpt lat="33.8103132" lon="-118.3938672">
  <ele>-0.121</ele>
  <time>2026-09-01T01:12:46Z</time>
  <course>186.62</course>
  <speed>0.0282842712474619</speed>
  <fix>3d</fix>
</trkpt>
<trkpt lat="33.810313" lon="-118.393867">
  <ele>-0.12</ele>
  <time>2026-09-01T01:12:46Z</time>
  <course>0.0</course>
  <speed>0.0</speed>
  <fix>3d</fix>
</trkpt>
<trkpt lat="33.8103132" lon="-118.3938672">
  <ele>-0.12</ele>
  <time>2026-09-01T01:12:46Z</time>
  <course>186.62</course>
  <speed>0.0282842712474619</speed>
  <fix>3d</fix>
</trkpt>
<trkpt lat="33.810313" lon="-118.393867">
  <ele>-0.12</ele>
  <time>2026-09-01T01:12:46Z</time>
  <course>0.0</course>
  <speed>0.0</speed>
  <fix>3d</fix>
</trkpt>
<trkpt lat="33.8103132" lon="-118.3938672">
  <ele>-0.12</ele>
  <time>2026-09-01T01:12:46Z</time>
  <course>186.61</course>
  <speed>0.0282842712474619</speed>
  <fix>3d</fix>
</trkpt>
<trkpt lat="33.810313" lon="-118.393867">
  <ele>-0.12</ele>
  <time>2026-09-01T01:12:46Z</time>
  <course>0.0</course>
  <speed>0.0</speed>
  <fix>3d</fix>
</trkpt>
<trkpt lat="33.8103132" lon="-118.3938672">
  <ele>-0.12</ele>
  <time>2026-09-01T01:12:46Z</time>
  <course>186.61</course>
  <speed>0.0282842712474619</speed>
  <fix>3d</fix>
</trkpt>
<trkpt lat="33.810313" lon="-118.393867">
  <ele>-0.12</ele>
  <time>2026-09-01T01:12:46Z</time>
  <course>0.0</course>
  <speed>0.0</speed>
  <fix>3d</fix>
</trkpt>
<trkpt lat="33.8103132" lon="-118.3938672">
  <ele>-0.121</ele>
  <time>2026-09-01T01:12:46Z</time>
  <course>186.61</course>
  <speed>0.0282842712474619</speed>
  <fix>3d</fix>
</trkpt>
<trkpt lat="33.810313" lon="-118.393867">
  <ele>-0.12</ele>
  <time>2026-09-01T01:12:46Z</time>
  <course>0.0</course>
  <speed>0.0</speed>
  <fix>3d</fix>
</trkpt>
<trkpt lat="33.8103132" lon="-118.3938672">
  <ele>-0.122</ele>
  <time>2026-09-01T01:12:46Z</time>
  <course>186.6</course>
  <speed>0.0282842712474619</speed>
  <fix>3d</fix>
</trkpt>
<trkpt lat="33.810313" lon="-118.393867">
  <ele>-0.12</ele>
  <time>2026-09-01T01:12:46Z</time>
  <course>0.0</course>
  <speed>0.0</speed>
  <fix>3d</fix>
</trkpt>
<trkpt lat="33.8103132" lon="-118.3938672">
  <ele>-0.124</ele>
  <time>2026-09-01T01:12:46Z</time>
  <course>186.6</course>
  <speed>0.0282842712474619</speed>
  <fix>3d</fix>
</trkpt>
<trkpt lat="33.810313" lon="-118.393867">
  <ele>-0.12</ele>
  <time>2026-09-01T01:12:46Z</time>
  <course>0.0</course>
  <speed>0.0</speed>
  <fix>3d</fix>
</trkpt>
<trkpt lat="33.8103132" lon="-118.3938672">
  <ele>-0.126</ele>
  <time>2026-09-01T01:12:46Z</time>
  <course>186.6</course>
  <speed>0.0282842712474619</speed>
  <fix>3d</fix>
</trkpt>
<trkpt lat="33.810313" lon="-118.393867">
  <ele>-0.12</ele>
  <time>2026-09-01T01:12:46Z</time>
  <course>0.0</course>
  <speed>0.0</speed>
  <fix>3d</fix>
</trkpt>
<trkpt lat="33.8103132" lon="-118.3938672">
  <ele>-0.127</ele>
  <time>2026-09-01T01:12:46Z</time>
  <course>186.59</course>
  <speed>0.0282842712474619</speed>
  <fix>3d</fix>
</trkpt>
<trkpt lat="33.810313" lon="-118.393867">
  <ele>-0.12</ele>
  <time>2026-09-01T01:12:46Z</time>
  <course>0.0</course>
  <speed>0.0</speed>
  <fix>3d</fix>
</trkpt>
<trkpt lat="33.8103132" lon="-118.3938672">
  <ele>-0.127</ele>
  <time>2026-09-01T01:12:46Z</time>
  <course>186.59</course>
  <speed>0.0282842712474619</speed>
  <fix>3d</fix>
</trkpt>
<trkpt lat="33.810313" lon="-118.393867">
  <ele>-0.12</ele>
  <time>2026-09-01T01:12:46Z</time>
  <course>0.0</course>
  <speed>0.0</speed>
  <fix>3d</fix>
</trkpt>
<trkpt lat="33.8103132" lon="-118.3938672">
  <ele>-0.127</ele>
  <time>2026-09-01T01:12:46Z</time>
  <course>186.58</course>
  <speed>0.0282842712474619</speed>
  <fix>3d</fix>
</trkpt>
<trkpt lat="33.810313" lon="-118.393867">
  <ele>-0.12</ele>
  <time>2026-09-01T01:12:46Z</time>
  <course>0.0</course>
  <speed>0.0</speed>
  <fix>3d</fix>
</trkpt>
<trkpt lat="33.8103132" lon="-118.3938672">
  <ele>-0.125</ele>
  <time>2026-09-01T01:12:46Z</time>
  <course>186.58</course>
  <speed>0.0282842712474619</speed>
  <fix>3d</fix>
</trkpt>
<trkpt lat="33.810313" lon="-118.393867">
  <ele>-0.12</ele>
  <time>2026-09-01T01:12:46Z</time>
  <course>0.0</course>
  <speed>0.0</speed>
  <fix>3d</fix>
</trkpt>
<trkpt lat="33.8103132" lon="-118.3938672">
  <ele>-0.125</ele>
  <time>2026-09-01T01:12:46Z</time>
  <course>186.58</course>
  <speed>0.022360679774997897</speed>
  <fix>3d</fix>
</trkpt>
<trkpt lat="33.810313" lon="-118.393867">
  <ele>-0.12</ele>
  <time>2026-09-01T01:12:46Z</time>
  <course>0.0</course>
  <speed>0.0</speed>
  <fix>3d</fix>
</trkpt>
<trkpt lat="33.8103132" lon="-118.3938672">
  <ele>-0.125</ele>
  <time>2026-09-01T01:12:46Z</time>
  <course>186.57</course>
  <speed>0.022360679774997897</speed>
  <fix>3d</fix>
</trkpt>
<trkpt lat="33.810313" lon="-118.393867">
  <ele>-0.12</ele>
  <time>2026-09-01T01:12:46Z</time>
  <course>0.0</course>
  <speed>0.0</speed>
  <fix>3d</fix>
</trkpt>
<trkpt lat="33.8103132" lon="-118.3938672">
  <ele>-0.125</ele>
  <time>2026-09-01T01:12:46Z</time>
  <course>186.57</course>
  <speed>0.022360679774997897</speed>
  <fix>3d</fix>
</trkpt>
<trkpt lat="33.810313" lon="-118.393867">
  <ele>-0.12</ele>
  <time>2026-09-01T01:12:46Z</time>
  <course>0.0</course>
  <speed>0.0</speed>
  <fix>3d</fix>
</trkpt>
<trkpt lat="33.8103132" lon="-118.3938671">
  <ele>-0.128</ele>
  <time>2026-09-01T01:12:46Z</time>
  <course>186.57</course>
  <speed>0.022360679774997897</speed>
  <fix>3d</fix>
</trkpt>
<trkpt lat="33.810313" lon="-118.393867">
  <ele>-0.12</ele>
  <time>2026-09-01T01:12:46Z</time>
  <course>0.0</course>
  <speed>0.0</speed>
  <fix>3d</fix>
</trkpt>
<trkpt lat="33.8103131" lon="-118.3938671">
  <ele>-0.13</ele>
  <time>2026-09-01T01:12:46Z</time>
  <course>186.56</course>
  <speed>0.022360679774997897</speed>
  <fix>3d</fix>
</trkpt>
<trkpt lat="33.810313" lon="-118.393867">
  <ele>-0.12</ele>
  <time>2026-09-01T01:12:46Z</time>
  <course>0.0</course>
  <speed>0.0</speed>
  <fix>3d</fix>
</trkpt>
<trkpt lat="33.8103131" lon="-118.3938671">
  <ele>-0.132</ele>
  <time>2026-09-01T01:12:46Z</time>
  <course>186.56</course>
  <speed>0.01414213562373095</speed>
  <fix>3d</fix>
</trkpt>
<trkpt lat="33.810313" lon="-118.393867">
  <ele>-0.12</ele>
  <time>2026-09-01T01:12:46Z</time>
  <course>0.0</course>
  <speed>0.0</speed>
  <fix>3d</fix>
</trkpt>
<trkpt lat="33.8103131" lon="-118.3938671">
  <ele>-0.132</ele>
  <time>2026-09-01T01:12:46Z</time>
  <course>186.56</course>
  <speed>0.01414213562373095</speed>
  <fix>3d</fix>
</trkpt>
<trkpt lat="33.810313" lon="-118.393867">
  <ele>-0.12</ele>
  <time>2026-09-01T01:12:46Z</time>
  <course>0.0</course>
  <speed>0.0</speed>
  <fix>3d</fix>
</trkpt>
<trkpt lat="33.4368002" lon="-117.0859339">
  <ele>-0.11</ele>
  <time>2026-09-01T01:12:47Z</time>
  <course>0.0</course>
  <speed>0.0</speed>
  <fix>3d</fix>
</trkpt>
<trkpt lat="33.4368002" lon="-117.0859339">
  <ele>-0.11</ele>
  <time>2026-09-01T01:12:47Z</time>
  <course>0.0</course>
  <speed>0.0</speed>
  <fix>3d</fix>
</trkpt>
<trkpt lat="33.810313" lon="-118.393867">
  <ele>0.0</ele>
  <time>2026-09-01T01:12:47Z</time>
  <course>173.5</course>
  <speed>0.0</speed>
  <fix>3d</fix>
</trkpt>
<trkpt lat="33.810313" lon="-118.393867">
  <ele>-0.11</ele>
  <time>2026-09-01T01:12:47Z</time>
  <course>0.0</course>
  <speed>0.0</speed>
  <fix>3d</fix>
</trkpt>
<trkpt lat="33.810313" lon="-118.393867">
  <ele>0.0</ele>
  <time>2026-09-01T01:12:47Z</time>
  <course>173.61</course>
  <speed>0.0</speed>
  <fix>3d</fix>
</trkpt>
<trkpt lat="33.810313" lon="-118.393867">
  <ele>-0.11</ele>
  <time>2026-09-01T01:12:47Z</time>
  <course>0.0</course>
  <speed>0.0</speed>
  <fix>3d</fix>
</trkpt>
<trkpt lat="33.810313" lon="-118.393867">
  <ele>0.0</ele>
  <time>2026-09-01T01:12:47Z</time>
  <course>173.98</course>
  <speed>0.0</speed>
  <fix>3d</fix>
</trkpt>
<trkpt lat="33.810313" lon="-118.393867">
  <ele>-0.11</ele>
  <time>2026-09-01T01:12:47Z</time>
  <course>0.0</course>
  <speed>0.0</speed>
  <fix>3d</fix>
</trkpt>
<trkpt lat="33.810313" lon="-118.393867">
  <ele>0.0</ele>
  <time>2026-09-01T01:12:47Z</time>
  <course>174.51</course>
  <speed>0.0</speed>
  <fix>3d</fix>
</trkpt>
<trkpt lat="33.810313" lon="-118.393867">
  <ele>-0.11</ele>
  <time>2026-09-01T01:12:47Z</time>
  <course>0.0</course>
  <speed>0.0</speed>
  <fix>3d</fix>
</trkpt>
<trkpt lat="33.810313" lon="-118.393867">
  <ele>0.0</ele>
  <time>2026-09-01T01:12:47Z</time>
  <course>175.07</course>
  <speed>0.0</speed>
  <fix>3d</fix>
</trkpt>
<trkpt lat="33.810313" lon="-118.393867">
  <ele>-0.12</ele>
  <time>2026-09-01T01:12:47Z</time>
  <course>0.0</course>
  <speed>0.0</speed>
  <fix>3d</fix>
</trkpt>
<trkpt lat="33.810313" lon="-118.393867">
  <ele>0.0</ele>
  <time>2026-09-01T01:12:47Z</time>
  <course>175.61</course>
  <speed>0.0</speed>
  <fix>3d</fix>
</trkpt>
<trkpt lat="33.810313" lon="-118.393867">
  <ele>-0.12</ele>
  <time>2026-09-01T01:12:47Z</time>
  <course>0.0</course>
  <speed>0.0</speed>
  <fix>3d</fix>
</trkpt>
<trkpt lat="33.810313" lon="-118.393867">
  <ele>0.0</ele>
  <time>2026-09-01T01:12:47Z</time>
  <course>176.12</course>
  <speed>0.0</speed>
  <fix>3d</fix>
</trkpt>
<trkpt lat="33.810313" lon="-118.393867">
  <ele>-0.13</ele>
  <time>2026-09-01T01:12:47Z</time>
  <course>0.0</course>
  <speed>0.0</speed>
  <fix>3d</fix>
</trkpt>
<trkpt lat="33.810313" lon="-118.393867">
  <ele>0.0</ele>
  <time>2026-09-01T01:12:47Z</time>
  <course>176.6</course>
  <speed>0.0</speed>
  <fix>3d</fix>
</trkpt>
<trkpt lat="33.810313" lon="-118.393867">
  <ele>-0.13</ele>
  <time>2026-09-01T01:12:47Z</time>
  <course>0.0</course>
  <speed>0.0</speed>
  <fix>3d</fix>
</trkpt>
<trkpt lat="33.810313" lon="-118.393867">
  <ele>0.0</ele>
  <time>2026-09-01T01:12:47Z</time>
  <course>177.07</course>
  <speed>0.0</speed>
  <fix>3d</fix>
</trkpt>
<trkpt lat="33.810313" lon="-118.393867">
  <ele>-0.13</ele>
  <time>2026-09-01T01:12:47Z</time>
  <course>0.0</course>
  <speed>0.0</speed>
  <fix>3d</fix>
</trkpt>
<trkpt lat="33.810313" lon="-118.393867">
  <ele>0.0</ele>
  <time>2026-09-01T01:12:47Z</time>
  <course>177.53</course>
  <speed>0.0</speed>
  <fix>3d</fix>
</trkpt>
<trkpt lat="33.810313" lon="-118.393867">
  <ele>-0.13</ele>
  <time>2026-09-01T01:12:47Z</time>
  <course>0.0</course>
  <speed>0.0</speed>
  <fix>3d</fix>
</trkpt>
<trkpt lat="33.810313" lon="-118.393867">
  <ele>0.0</ele>
  <time>2026-09-01T01:12:47Z</time>
  <course>177.97</course>
  <speed>0.0</speed>
  <fix>3d</fix>
</trkpt>
<trkpt lat="33.810313" lon="-118.393867">
  <ele>-0.14</ele>
  <time>2026-09-01T01:12:47Z</time>
  <course>0.0</course>
  <speed>0.0</speed>
  <fix>3d</fix>
</trkpt>
<trkpt lat="33.810313" lon="-118.393867">
  <ele>0.0</ele>
  <time>2026-09-01T01:12:47Z</time>
  <course>178.4</course>
  <speed>0.0</speed>
  <fix>3d</fix>
</trkpt>
<trkpt lat="33.810313" lon="-118.393867">
  <ele>-0.14</ele>
  <time>2026-09-01T01:12:47Z</time>
  <course>0.0</course>
  <speed>0.0</speed>
  <fix>3d</fix>
</trkpt>
<trkpt lat="33.810313" lon="-118.393867">
  <ele>0.0</ele>
  <time>2026-09-01T01:12:47Z</time>
  <course>178.83</course>
  <speed>0.0</speed>
  <fix>3d</fix>
</trkpt>
<trkpt lat="33.810313" lon="-118.393867">
  <ele>-0.14</ele>
  <time>2026-09-01T01:12:47Z</time>
  <course>0.0</course>
  <speed>0.0</speed>
  <fix>3d</fix>
</trkpt>
<trkpt lat="33.810313" lon="-118.393867">
  <ele>0.0</ele>
  <time>2026-09-01T01:12:47Z</time>
  <course>179.23</course>
  <speed>0.0</speed>
  <fix>3d</fix>
</trkpt>
<trkpt lat="33.810313" lon="-118.393867">
  <ele>-0.14</ele>
  <time>2026-09-01T01:12:47Z</time>
  <course>0.0</course>
  <speed>0.0</speed>
  <fix>3d</fix>
</trkpt>
<trkpt lat="33.810313" lon="-118.393867">
  <ele>0.0</ele>
  <time>2026-09-01T01:12:47Z</time>
  <course>179.62</course>
  <speed>0.0</speed>
  <fix>3d</fix>
</trkpt>
<trkpt lat="33.810313" lon="-118.393867">
  <ele>-0.14</ele>
  <time>2026-09-01T01:12:47Z</time>
  <course>0.0</course>
  <speed>0.0</speed>
  <fix>3d</fix>
</trkpt>
<trkpt lat="33.810313" lon="-118.393867">
  <ele>0.0</ele>
  <time>2026-09-01T01:12:47Z</time>
  <course>180.01</course>
  <speed>0.0</speed>
  <fix>3d</fix>
</trkpt>
<trkpt lat="33.810313" lon="-118.393867">
  <ele>-0.14</ele>
  <time>2026-09-01T01:12:47Z</time>
  <course>0.0</course>
  <speed>0.0</speed>
  <fix>3d</fix>
</trkpt>
<trkpt lat="33.810313" lon="-118.393867">
  <ele>0.0</ele>
  <time>2026-09-01T01:12:47Z</time>
  <course>180.37</course>
  <speed>0.0</speed>
  <fix>3d</fix>
</trkpt>
<trkpt lat="33.810313" lon="-118.393867">
  <ele>-0.14</ele>
  <time>2026-09-01T01:12:47Z</time>
  <course>0.0</course>
  <speed>0.0</speed>
  <fix>3d</fix>
</trkpt>
<trkpt lat="33.810313" lon="-118.393867">
  <ele>0.0</ele>
  <time>2026-09-01T01:12:47Z</time>
  <course>180.73</course>
  <speed>0.0</speed>
  <fix>3d</fix>
</trkpt>
<trkpt lat="33.810313" lon="-118.393867">
  <ele>-0.14</ele>
  <time>2026-09-01T01:12:47Z</time>
  <course>0.0</course>
  <speed>0.0</speed>
  <fix>3d</fix>
</trkpt>
<trkpt lat="33.810313" lon="-118.393867">
  <ele>0.0</ele>
  <time>2026-09-01T01:12:47Z</time>
  <course>181.07</course>
  <speed>0.0</speed>
  <fix>3d</fix>
</trkpt>
<trkpt lat="33.810313" lon="-118.393867">
  <ele>-0.13</ele>
  <time>2026-09-01T01:12:47Z</time>
  <course>0.0</course>
  <speed>0.0</speed>
  <fix>3d</fix>
</trkpt>
<trkpt lat="33.810313" lon="-118.393867">
  <ele>0.0</ele>
  <time>2026-09-01T01:12:47Z</time>
  <course>181.4</course>
  <speed>0.0</speed>
  <fix>3d</fix>
</trkpt>
<trkpt lat="33.810313" lon="-118.393867">
  <ele>-0.13</ele>
  <time>2026-09-01T01:12:47Z</time>
  <course>0.0</course>
  <speed>0.0</speed>
  <fix>3d</fix>
</trkpt>
<trkpt lat="33.810313" lon="-118.393867">
  <ele>0.0</ele>
  <time>2026-09-01T01:12:47Z</time>
  <course>181.72</course>
  <speed>0.0</speed>
  <fix>3d</fix>
</trkpt>
<trkpt lat="33.810313" lon="-118.393867">
  <ele>-0.12</ele>
  <time>2026-09-01T01:12:47Z</time>
  <course>0.0</course>
  <speed>0.0</speed>
  <fix>3d</fix>
</trkpt>
<trkpt lat="33.810313" lon="-118.393867">
  <ele>0.0</ele>
  <time>2026-09-01T01:12:47Z</time>
  <course>182.02</course>
  <speed>0.0</speed>
  <fix>3d</fix>
</trkpt>
<trkpt lat="33.810313" lon="-118.393867">
  <ele>-0.12</ele>
  <time>2026-09-01T01:12:47Z</time>
  <course>0.0</course>
  <speed>0.0</speed>
  <fix>3d</fix>
</trkpt>
<trkpt lat="33.810313" lon="-118.393867">
  <ele>0.0</ele>
  <time>2026-09-01T01:12:47Z</time>
  <course>182.32</course>
  <speed>0.0</speed>
  <fix>3d</fix>
</trkpt>
<trkpt lat="33.810313" lon="-118.393867">
  <ele>-0.12</ele>
  <time>2026-09-01T01:12:47Z</time>
  <course>0.0</course>
  <speed>0.0</speed>
  <fix>3d</fix>
</trkpt>
<trkpt lat="33.810313" lon="-118.393867">
  <ele>0.0</ele>
  <time>2026-09-01T01:12:47Z</time>
  <course>182.6</course>
  <speed>0.0</speed>
  <fix>3d</fix>
</trkpt>
<trkpt lat="33.810313" lon="-118.393867">
  <ele>-0.12</ele>
  <time>2026-09-01T01:12:47Z</time>
  <course>0.0</course>
  <speed>0.0</speed>
  <fix>3d</fix>
</trkpt>
<trkpt lat="33.810313" lon="-118.393867">
  <ele>0.0</ele>
  <time>2026-09-01T01:12:47Z</time>
  <course>182.87</course>
  <speed>0.0</speed>
  <fix>3d</fix>
</trkpt>
<trkpt lat="33.810313" lon="-118.393867">
  <ele>-0.11</ele>
  <time>2026-09-01T01:12:47Z</time>
  <course>0.0</course>
  <speed>0.0</speed>
  <fix>3d</fix>
</trkpt>
<trkpt lat="33.810313" lon="-118.393867">
  <ele>0.0</ele>
  <time>2026-09-01T01:12:47Z</time>
  <course>183.14</course>
  <speed>0.0</speed>
  <fix>3d</fix>
</trkpt>
<trkpt lat="33.810313" lon="-118.393867">
  <ele>-0.11</ele>
  <time>2026-09-01T01:12:47Z</time>
  <course>0.0</course>
  <speed>0.0</speed>
  <fix>3d</fix>
</trkpt>
<trkpt lat="33.810313" lon="-118.393867">
  <ele>0.0</ele>
  <time>2026-09-01T01:12:47Z</time>
  <course>183.39</course>
  <speed>0.0</speed>
  <fix>3d</fix>
</trkpt>
<trkpt lat="33.810313" lon="-118.393867">
  <ele>-0.11</ele>
  <time>2026-09-01T01:12:47Z</time>
  <course>0.0</course>
  <speed>0.0</speed>
  <fix>3d</fix>
</trkpt>
<trkpt lat="33.810313" lon="-118.393867">
  <ele>0.0</ele>
  <time>2026-09-01T01:12:47Z</time>
  <course>183.63</course>
  <speed>0.0</speed>
  <fix>3d</fix>
</trkpt>
<trkpt lat="33.810313" lon="-118.393867">
  <ele>-0.11</ele>
  <time>2026-09-01T01:12:47Z</time>
  <course>0.0</course>
  <speed>0.0</speed>
  <fix>3d</fix>
</trkpt>
<trkpt lat="33.810313" lon="-118.393867">
  <ele>0.0</ele>
  <time>2026-09-01T01:12:47Z</time>
  <course>183.86</course>
  <speed>0.0</speed>
  <fix>3d</fix>
</trkpt>
<trkpt lat="33.810313" lon="-118.393867">
  <ele>-0.12</ele>
  <time>2026-09-01T01:12:47Z</time>
  <course>0.0</course>
  <speed>0.0</speed>
  <fix>3d</fix>
</trkpt>
<trkpt lat="33.810313" lon="-118.393867">
  <ele>0.0</ele>
  <time>2026-09-01T01:12:47Z</time>
  <course>184.08</course>
  <speed>0.0</speed>
  <fix>3d</fix>
</trkpt>
<trkpt lat="33.810313" lon="-118.393867">
  <ele>-0.12</ele>
  <time>2026-09-01T01:12:47Z</time>
  <course>0.0</course>
  <speed>0.0</speed>
  <fix>3d</fix>
</trkpt>
<trkpt lat="33.810313" lon="-118.393867">
  <ele>0.0</ele>
  <time>2026-09-01T01:12:47Z</time>
  <course>184.3</course>
  <speed>0.0</speed>
  <fix>3d</fix>
</trkpt>
<trkpt lat="33.810313" lon="-118.393867">
  <ele>-0.13</ele>
  <time>2026-09-01T01:12:47Z</time>
  <course>0.0</course>
  <speed>0.0</speed>
  <fix>3d</fix>
</trkpt>
<trkpt lat="33.810313" lon="-118.393867">
  <ele>0.0</ele>
  <time>2026-09-01T01:12:47Z</time>
  <course>184.5</course>
  <speed>0.0</speed>
  <fix>3d</fix>
</trkpt>
<trkpt lat="33.810313" lon="-118.393867">
  <ele>-0.13</ele>
  <time>2026-09-01T01:12:47Z</time>
  <course>0.0</course>
  <speed>0.0</speed>
  <fix>3d</fix>
</trkpt>
<trkpt lat="33.810313" lon="-118.393867">
  <ele>0.0</ele>
  <time>2026-09-01T01:12:47Z</time>
  <course>184.7</course>
  <speed>0.0</speed>
  <fix>3d</fix>
</trkpt>
<trkpt lat="33.810313" lon="-118.393867">
  <ele>-0.13</ele>
  <time>2026-09-01T01:12:47Z</time>
  <course>0.0</course>
  <speed>0.0</speed>
  <fix>3d</fix>
</trkpt>
<trkpt lat="33.810313" lon="-118.393867">
  <ele>0.0</ele>
  <time>2026-09-01T01:12:47Z</time>
  <course>184.89</course>
  <speed>0.0</speed>
  <fix>3d</fix>
</trkpt>
<trkpt lat="33.810313" lon="-118.393867">
  <ele>-0.13</ele>
  <time>2026-09-01T01:12:47Z</time>
  <course>0.0</course>
  <speed>0.0</speed>
  <fix>3d</fix>
</trkpt>
<trkpt lat="33.810313" lon="-118.393867">
  <ele>0.0</ele>
  <time>2026-09-01T01:12:47Z</time>
  <course>185.07</course>
  <speed>0.0</speed>
  <fix>3d</fix>
</trkpt>
<trkpt lat="33.810313" lon="-118.393867">
  <ele>-0.14</ele>
  <time>2026-09-01T01:12:47Z</time>
  <course>0.0</course>
  <speed>0.0</speed>
  <fix>3d</fix>
</trkpt>
<trkpt lat="33.810313" lon="-118.393867">
  <ele>0.0</ele>
  <time>2026-09-01T01:12:47Z</time>
  <course>185.24</course>
  <speed>0.0</speed>
  <fix>3d</fix>
</trkpt>
<trkpt lat="33.810313" lon="-118.393867">
  <ele>-0.14</ele>
  <time>2026-09-01T01:12:47Z</time>
  <course>0.0</course>
  <speed>0.0</speed>
  <fix>3d</fix>
</trkpt>
<trkpt lat="33.810313" lon="-118.393867">
  <ele>0.0</ele>
  <time>2026-09-01T01:12:47Z</time>
  <course>185.41</course>
  <speed>0.0</speed>
  <fix>3d</fix>
</trkpt>
<trkpt lat="33.810313" lon="-118.393867">
  <ele>-0.13</ele>
  <time>2026-09-01T01:12:47Z</time>
  <course>0.0</course>
  <speed>0.0</speed>
  <fix>3d</fix>
</trkpt>
<trkpt lat="33.810313" lon="-118.393867">
  <ele>0.0</ele>
  <time>2026-09-01T01:12:47Z</time>
  <course>185.56</course>
  <speed>0.0</speed>
  <fix>3d</fix>
</trkpt>
<trkpt lat="33.810313" lon="-118.393867">
  <ele>-0.13</ele>
  <time>2026-09-01T01:12:47Z</time>
  <course>0.0</course>
  <speed>0.0</speed>
  <fix>3d</fix>
</trkpt>
<trkpt lat="33.810313" lon="-118.393867">
  <ele>0.0</ele>
  <time>2026-09-01T01:12:47Z</time>
  <course>185.72</course>
  <speed>0.0</speed>
  <fix>3d</fix>
</trkpt>
<trkpt lat="33.810313" lon="-118.393867">
  <ele>-0.13</ele>
  <time>2026-09-01T01:12:47Z</time>
  <course>0.0</course>
  <speed>0.0</speed>
  <fix>3d</fix>
</trkpt>
<trkpt lat="33.810313" lon="-118.393867">
  <ele>0.0</ele>
  <time>2026-09-01T01:12:47Z</time>
  <course>185.86</course>
  <speed>0.0</speed>
  <fix>3d</fix>
</trkpt>
<trkpt lat="33.810313" lon="-118.393867">
  <ele>-0.13</ele>
  <time>2026-09-01T01:12:47Z</time>
  <course>0.0</course>
  <speed>0.0</speed>
  <fix>3d</fix>
</trkpt>
<trkpt lat="33.810313" lon="-118.393867">
  <ele>0.0</ele>
  <time>2026-09-01T01:12:47Z</time>
  <course>186.0</course>
  <speed>0.0</speed>
  <fix>3d</fix>
</trkpt>
<trkpt lat="33.810313" lon="-118.393867">
  <ele>-0.12</ele>
  <time>2026-09-01T01:12:47Z</time>
  <course>0.0</course>
  <speed>0.0</speed>
  <fix>3d</fix>
</trkpt>
<trkpt lat="33.810313" lon="-118.393867">
  <ele>0.0</ele>
  <time>2026-09-01T01:12:47Z</time>
  <course>186.13</course>
  <speed>0.0</speed>
  <fix>3d</fix>
</trkpt>
<trkpt lat="33.810313" lon="-118.393867">
  <ele>-0.12</ele>
  <time>2026-09-01T01:12:47Z</time>
  <course>0.0</course>
  <speed>0.0</speed>
  <fix>3d</fix>
</trkpt>
<trkpt lat="33.810313" lon="-118.393867">
  <ele>0.0</ele>
  <time>2026-09-01T01:12:47Z</time>
  <course>186.26</course>
  <speed>0.0</speed>
  <fix>3d</fix>
</trkpt>
<trkpt lat="33.810313" lon="-118.393867">
  <ele>-0.12</ele>
  <time>2026-09-01T01:12:47Z</time>
  <course>0.0</course>
  <speed>0.0</speed>
  <fix>3d</fix>
</trkpt>
<trkpt lat="33.810313" lon="-118.393867">
  <ele>0.0</ele>
  <time>2026-09-01T01:12:47Z</time>
  <course>186.38</course>
  <speed>0.0</speed>
  <fix>3d</fix>
</trkpt>
<trkpt lat="33.810313" lon="-118.393867">
  <ele>-0.12</ele>
  <time>2026-09-01T01:12:47Z</time>
  <course>0.0</course>
  <speed>0.0</speed>
  <fix>3d</fix>
</trkpt>
<trkpt lat="33.810313" lon="-118.393867">
  <ele>0.0</ele>
  <time>2026-09-01T01:12:47Z</time>
  <course>186.49</course>
  <speed>0.0</speed>
  <fix>3d</fix>
</trkpt>
<trkpt lat="33.810313" lon="-118.393867">
  <ele>-0.12</ele>
  <time>2026-09-01T01:12:47Z</time>
  <course>0.0</course>
  <speed>0.0</speed>
  <fix>3d</fix>
</trkpt>
<trkpt lat="33.810313" lon="-118.393867">
  <ele>0.0</ele>
  <time>2026-09-01T01:12:47Z</time>
  <course>186.6</course>
  <speed>0.0</speed>
  <fix>3d</fix>
</trkpt>
<trkpt lat="33.810313" lon="-118.393867">
  <ele>-0.12</ele>
  <time>2026-09-01T01:12:47Z</time>
  <course>0.0</course>
  <speed>0.0</speed>
  <fix>3d</fix>
</trkpt>
<trkpt lat="33.810313" lon="-118.393867">
  <ele>0.0</ele>
  <time>2026-09-01T01:12:47Z</time>
  <course>186.71</course>
  <speed>0.0</speed>
  <fix>3d</fix>
</trkpt>
<trkpt lat="33.810313" lon="-118.393867">
  <ele>-0.12</ele>
  <time>2026-09-01T01:12:47Z</time>
  <course>0.0</course>
  <speed>0.0</speed>
  <fix>3d</fix>
</trkpt>
<trkpt lat="33.810313" lon="-118.393867">
  <ele>0.0</ele>
  <time>2026-09-01T01:12:47Z</time>
  <course>186.81</course>
  <speed>0.0</speed>
  <fix>3d</fix>
</trkpt>
<trkpt lat="33.810313" lon="-118.393867">
  <ele>-0.12</ele>
  <time>2026-09-01T01:12:47Z</time>
  <course>0.0</course>
  <speed>0.0</speed>
  <fix>3d</fix>
</trkpt>
<trkpt lat="33.810313" lon="-118.393867">
  <ele>0.0</ele>
  <time>2026-09-01T01:12:47Z</time>
  <course>186.9</course>
  <speed>0.0</speed>
  <fix>3d</fix>
</trkpt>
<trkpt lat="33.810313" lon="-118.393867">
  <ele>-0.12</ele>
  <time>2026-09-01T01:12:47Z</time>
  <course>0.0</course>
  <speed>0.0</speed>
  <fix>3d</fix>
</trkpt>
<trkpt lat="33.810313" lon="-118.393867">
  <ele>0.0</ele>
  <time>2026-09-01T01:12:47Z</time>
  <course>187.0</course>
  <speed>0.0</speed>
  <fix>3d</fix>
</trkpt>
<trkpt lat="33.810313" lon="-118.393867">
  <ele>-0.12</ele>
  <time>2026-09-01T01:12:47Z</time>
  <course>0.0</course>
  <speed>0.0</speed>
  <fix>3d</fix>
</trkpt>
<trkpt lat="33.810313" lon="-118.393867">
  <ele>0.0</ele>
  <time>2026-09-01T01:12:47Z</time>
  <course>187.08</course>
  <speed>0.0</speed>
  <fix>3d</fix>
</trkpt>
<trkpt lat="33.810313" lon="-118.393867">
  <ele>-0.13</ele>
  <time>2026-09-01T01:12:47Z</time>
  <course>0.0</course>
  <speed>0.0</speed>
  <fix>3d</fix>
</trkpt>
<trkpt lat="33.810313" lon="-118.393867">
  <ele>0.0</ele>
  <time>2026-09-01T01:12:47Z</time>
  <course>187.17</course>
  <speed>0.0</speed>
  <fix>3d</fix>
</trkpt>
<trkpt lat="33.810313" lon="-118.393867">
  <ele>-0.13</ele>
  <time>2026-09-01T01:12:47Z</time>
  <course>0.0</course>
  <speed>0.0</speed>
  <fix>3d</fix>
</trkpt>
<trkpt lat="33.810313" lon="-118.393867">
  <ele>0.0</ele>
  <time>2026-09-01T01:12:47Z</time>
  <course>187.24</course>
  <speed>0.0</speed>
  <fix>3d</fix>
</trkpt>
<trkpt lat="33.810313" lon="-118.393867">
  <ele>-0.13</ele>
  <time>2026-09-01T01:12:47Z</time>
  <course>0.0</course>
  <speed>0.0</speed>
  <fix>3d</fix>
</trkpt>
<trkpt lat="33.810313" lon="-118.393867">
  <ele>0.0</ele>
  <time>2026-09-01T01:12:47Z</time>
  <course>187.32</course>
  <speed>0.0</speed>
  <fix>3d</fix>
</trkpt>
<trkpt lat="33.810313" lon="-118.393867">
  <ele>-0.13</ele>
  <time>2026-09-01T01:12:47Z</time>
  <course>0.0</course>
  <speed>0.0</speed>
  <fix>3d</fix>
</trkpt>
<trkpt lat="33.810313" lon="-118.393867">
  <ele>0.0</ele>
  <time>2026-09-01T01:12:47Z</time>
  <course>187.39</course>
  <speed>0.0</speed>
  <fix>3d</fix>
</trkpt>
<trkpt lat="33.810313" lon="-118.393867">
  <ele>-0.13</ele>
  <time>2026-09-01T01:12:47Z</time>
  <course>0.0</course>
  <speed>0.0</speed>
  <fix>3d</fix>
</trkpt>
<trkpt lat="33.810313" lon="-118.393867">
  <ele>0.0</ele>
  <time>2026-09-01T01:12:47Z</time>
  <course>187.46</course>
  <speed>0.0</speed>
  <fix>3d</fix>
</trkpt>
<trkpt lat="33.810313" lon="-118.393867">
  <ele>-0.13</ele>
  <time>2026-09-01T01:12:47Z</time>
  <course>0.0</course>
  <speed>0.0</speed>
  <fix>3d</fix>
</trkpt>
<trkpt lat="33.810313" lon="-118.393867">
  <ele>0.0</ele>
  <time>2026-09-01T01:12:47Z</time>
  <course>187.53</course>
  <speed>0.0</speed>
  <fix>3d</fix>
</trkpt>
<trkpt lat="33.810313" lon="-118.393867">
  <ele>-0.13</ele>
  <time>2026-09-01T01:12:47Z</time>
  <course>0.0</course>
  <speed>0.0</speed>
  <fix>3d</fix>
</trkpt>
<trkpt lat="33.810313" lon="-118.393867">
  <ele>0.0</ele>
  <time>2026-09-01T01:12:47Z</time>
  <course>187.59</course>
  <speed>0.0</speed>
  <fix>3d</fix>
</trkpt>
<trkpt lat="33.810313" lon="-118.393867">
  <ele>-0.13</ele>
  <time>2026-09-01T01:12:47Z</time>
  <course>0.0</course>
  <speed>0.0</speed>
  <fix>3d</fix>
</trkpt>
<trkpt lat="33.810313" lon="-118.393867">
  <ele>0.0</ele>
  <time>2026-09-01T01:12:47Z</time>
  <course>187.65</course>
  <speed>0.0</speed>
  <fix>3d</fix>
</trkpt>
<trkpt lat="33.810313" lon="-118.393867">
  <ele>-0.12</ele>
  <time>2026-09-01T01:12:47Z</time>
  <course>0.0</course>
  <speed>0.0</speed>
  <fix>3d</fix>
</trkpt>
<trkpt lat="33.810313" lon="-118.393867">
  <ele>0.0</ele>
  <time>2026-09-01T01:12:47Z</time>
  <course>187.7</course>
  <speed>0.0</speed>
  <fix>3d</fix>
</trkpt>
<trkpt lat="33.810313" lon="-118.393867">
  <ele>-0.12</ele>
  <time>2026-09-01T01:12:47Z</time>
  <course>0.0</course>
  <speed>0.0</speed>
  <fix>3d</fix>
</trkpt>
<trkpt lat="33.810313" lon="-118.393867">
  <ele>0.0</ele>
  <time>2026-09-01T01:12:47Z</time>
  <course>187.76</course>
  <speed>0.0</speed>
  <fix>3d</fix>
</trkpt>
<trkpt lat="33.810313" lon="-118.393867">
  <ele>-0.12</ele>
  <time>2026-09-01T01:12:47Z</time>
  <course>0.0</course>
  <speed>0.0</speed>
  <fix>3d</fix>
</trkpt>
<trkpt lat="33.810313" lon="-118.393867">
  <ele>0.0</ele>
  <time>2026-09-01T01:12:47Z</time>
  <course>187.81</course>
  <speed>0.0</speed>
  <fix>3d</fix>
</trkpt>
<trkpt lat="33.810313" lon="-118.393867">
  <ele>-0.12</ele>
  <time>2026-09-01T01:12:47Z</time>
  <course>0.0</course>
  <speed>0.0</speed>
  <fix>3d</fix>
</trkpt>
<trkpt lat="33.810313" lon="-118.393867">
  <ele>0.0</ele>
  <time>2026-09-01T01:12:47Z</time>
  <course>187.86</course>
  <speed>0.0</speed>
  <fix>3d</fix>
</trkpt>
<trkpt lat="33.810313" lon="-118.393867">
  <ele>-0.12</ele>
  <time>2026-09-01T01:12:47Z</time>
  <course>0.0</course>
  <speed>0.0</speed>
  <fix>3d</fix>
</trkpt>
<trkpt lat="33.810313" lon="-118.393867">
  <ele>0.0</ele>
  <time>2026-09-01T01:12:47Z</time>
  <course>187.9</course>
  <speed>0.0</speed>
  <fix>3d</fix>
</trkpt>
<trkpt lat="33.810313" lon="-118.393867">
  <ele>-0.12</ele>
  <time>2026-09-01T01:12:47Z</time>
  <course>0.0</course>
  <speed>0.0</speed>
  <fix>3d</fix>
</trkpt>
<trkpt lat="33.810313" lon="-118.393867">
  <ele>0.0</ele>
  <time>2026-09-01T01:12:47Z</time>
  <course>187.94</course>
  <speed>0.0</speed>
  <fix>3d</fix>
</trkpt>
<trkpt lat="33.810313" lon="-118.393867">
  <ele>-0.12</ele>
  <time>2026-09-01T01:12:47Z</time>
  <course>0.0</course>
  <speed>0.0</speed>
  <fix>3d</fix>
</trkpt>
<trkpt lat="33.810313" lon="-118.393867">
  <ele>0.0</ele>
  <time>2026-09-01T01:12:47Z</time>
  <course>187.99</course>
  <speed>0.0</speed>
  <fix>3d</fix>
</trkpt>
<trkpt lat="33.810313" lon="-118.393867">
  <ele>-0.12</ele>
  <time>2026-09-01T01:12:47Z</time>
  <course>0.0</course>
  <speed>0.0</speed>
  <fix>3d</fix>
</trkpt>
<trkpt lat="33.810313" lon="-118.393867">
  <ele>0.0</ele>
  <time>2026-09-01T01:12:47Z</time>
  <course>188.02</course>
  <speed>0.0</speed>
  <fix>3d</fix>
</trkpt>
<trkpt lat="33.810313" lon="-118.393867">
  <ele>-0.12</ele>
  <time>2026-09-01T01:12:47Z</time>
  <course>0.0</course>
  <speed>0.0</speed>
  <fix>3d</fix>
</trkpt>
<trkpt lat="33.810313" lon="-118.393867">
  <ele>0.0</ele>
  <time>2026-09-01T01:12:47Z</time>
  <course>188.06</course>
  <speed>0.0</speed>
  <fix>3d</fix>
</trkpt>
<trkpt lat="33.810313" lon="-118.393867">
  <ele>-0.12</ele>
  <time>2026-09-01T01:12:47Z</time>
  <course>0.0</course>
  <speed>0.0</speed>
  <fix>3d</fix>
</trkpt>
<trkpt lat="33.810313" lon="-118.393867">
  <ele>0.0</ele>
  <time>2026-09-01T01:12:47Z</time>
  <course>188.1</course>
  <speed>0.0</speed>
  <fix>3d</fix>
</trkpt>
<trkpt lat="33.810313" lon="-118.393867">
  <ele>-0.13</ele>
  <time>2026-09-01T01:12:47Z</time>
  <course>0.0</course>
  <speed>0.0</speed>
  <fix>3d</fix>
</trkpt>
<trkpt lat="33.810313" lon="-118.393867">
  <ele>0.0</ele>
  <time>2026-09-01T01:12:47Z</time>
  <course>188.13</course>
  <speed>0.0</speed>
  <fix>3d</fix>
</trkpt>
<trkpt lat="33.810313" lon="-118.393867">
  <ele>-0.13</ele>
  <time>2026-09-01T01:12:47Z</time>
  <course>0.0</course>
  <speed>0.0</speed>
  <fix>3d</fix>
</trkpt>
<trkpt lat="33.810313" lon="-118.393867">
  <ele>0.0</ele>
  <time>2026-09-01T01:12:47Z</time>
  <course>188.16</course>
  <speed>0.0</speed>
  <fix>3d</fix>
</trkpt>
<trkpt lat="33.810313" lon="-118.393867">
  <ele>-0.13</ele>
  <time>2026-09-01T01:12:47Z</time>
  <course>0.0</course>
  <speed>0.0</speed>
  <fix>3d</fix>
</trkpt>
<trkpt lat="33.810313" lon="-118.393867">
  <ele>0.0</ele>
  <time>2026-09-01T01:12:47Z</time>
  <course>188.19</course>
  <speed>0.0</speed>
  <fix>3d</fix>
</trkpt>
<trkpt lat="33.810313" lon="-118.393867">
  <ele>-0.13</ele>
  <time>2026-09-01T01:12:47Z</time>
  <course>0.0</course>
  <speed>0.0</speed>
  <fix>3d</fix>
</trkpt>
<trkpt lat="33.810313" lon="-118.393867">
  <ele>0.0</ele>
  <time>2026-09-01T01:12:47Z</time>
  <course>188.22</course>
  <speed>0.0</speed>
  <fix>3d</fix>
</trkpt>
<trkpt lat="33.810313" lon="-118.393867">
  <ele>-0.13</ele>
  <time>2026-09-01T01:12:47Z</time>
  <course>0.0</course>
  <speed>0.0</speed>
  <fix>3d</fix>
</trkpt>
<trkpt lat="33.810313" lon="-118.393867">
  <ele>0.0</ele>
  <time>2026-09-01T01:12:47Z</time>
  <course>188.24</course>
  <speed>0.0</speed>
  <fix>3d</fix>
</trkpt>
<trkpt lat="33.810313" lon="-118.393867">
  <ele>-0.13</ele>
  <time>2026-09-01T01:12:47Z</time>
  <course>0.0</course>
  <speed>0.0</speed>
  <fix>3d</fix>
</trkpt>
<trkpt lat="33.810313" lon="-118.393867">
  <ele>0.0</ele>
  <time>2026-09-01T01:12:47Z</time>
  <course>188.27</course>
  <speed>0.0</speed>
  <fix>3d</fix>
</trkpt>
<trkpt lat="33.810313" lon="-118.393867">
  <ele>-0.12</ele>
  <time>2026-09-01T01:12:47Z</time>
  <course>0.0</course>
  <speed>0.0</speed>
  <fix>3d</fix>
</trkpt>
<trkpt lat="33.810313" lon="-118.393867">
  <ele>0.0</ele>
  <time>2026-09-01T01:12:47Z</time>
  <course>188.29</course>
  <speed>0.0</speed>
  <fix>3d</fix>
</trkpt>
<trkpt lat="33.810313" lon="-118.393867">
  <ele>-0.12</ele>
  <time>2026-09-01T01:12:47Z</time>
  <course>0.0</course>
  <speed>0.0</speed>
  <fix>3d</fix>
</trkpt>
<trkpt lat="33.810313" lon="-118.393867">
  <ele>0.0</ele>
  <time>2026-09-01T01:12:47Z</time>
  <course>188.32</course>
  <speed>0.0</speed>
  <fix>3d</fix>
</trkpt>
<trkpt lat="33.810313" lon="-118.393867">
  <ele>-0.12</ele>
  <time>2026-09-01T01:12:47Z</time>
  <course>0.0</course>
  <speed>0.0</speed>
  <fix>3d</fix>
</trkpt>
<trkpt lat="33.810313" lon="-118.393867">
  <ele>0.0</ele>
  <time>2026-09-01T01:12:47Z</time>
  <course>188.34</course>
  <speed>0.0</speed>
  <fix>3d</fix>
</trkpt>
<trkpt lat="33.810313" lon="-118.393867">
  <ele>-0.12</ele>
  <time>2026-09-01T01:12:47Z</time>
  <course>0.0</course>
  <speed>0.0</speed>
  <fix>3d</fix>
</trkpt>
<trkpt lat="33.810313" lon="-118.393867">
  <ele>0.0</ele>
  <time>2026-09-01T01:12:47Z</time>
  <course>188.36</course>
  <speed>0.0</speed>
  <fix>3d</fix>
</trkpt>
<trkpt lat="33.810313" lon="-118.393867">
  <ele>-0.12</ele>
  <time>2026-09-01T01:12:47Z</time>
  <course>0.0</course>
  <speed>0.0</speed>
  <fix>3d</fix>
</trkpt>
<trkpt lat="33.810313" lon="-118.393867">
  <ele>0.0</ele>
  <time>2026-09-01T01:12:47Z</time>
  <course>188.38</course>
  <speed>0.0</speed>
  <fix>3d</fix>
</trkpt>
<trkpt lat="33.810313" lon="-118.393867">
  <ele>-0.12</ele>
  <time>2026-09-01T01:12:47Z</time>
  <course>0.0</course>
  <speed>0.0</speed>
  <fix>3d</fix>
</trkpt>
<trkpt lat="33.810313" lon="-118.393867">
  <ele>0.0</ele>
  <time>2026-09-01T01:12:47Z</time>
  <course>188.39</course>
  <speed>0.0</speed>
  <fix>3d</fix>
</trkpt>
<trkpt lat="33.810313" lon="-118.393867">
  <ele>-0.12</ele>
  <time>2026-09-01T01:12:47Z</time>
  <course>0.0</course>
  <speed>0.0</speed>
  <fix>3d</fix>
</trkpt>
<trkpt lat="33.810313" lon="-118.393867">
  <ele>0.0</ele>
  <time>2026-09-01T01:12:47Z</time>
  <course>188.41</course>
  <speed>0.0</speed>
  <fix>3d</fix>
</trkpt>
<trkpt lat="33.810313" lon="-118.393867">
  <ele>-0.12</ele>
  <time>2026-09-01T01:12:47Z</time>
  <course>0.0</course>
  <speed>0.0</speed>
  <fix>3d</fix>
</trkpt>
<trkpt lat="33.810313" lon="-118.393867">
  <ele>0.0</ele>
  <time>2026-09-01T01:12:47Z</time>
  <course>188.42</course>
  <speed>0.0</speed>
  <fix>3d</fix>
</trkpt>
<trkpt lat="33.810313" lon="-118.393867">
  <ele>-0.12</ele>
  <time>2026-09-01T01:12:47Z</time>
  <course>0.0</course>
  <speed>0.0</speed>
  <fix>3d</fix>
</trkpt>
<trkpt lat="33.810313" lon="-118.393867">
  <ele>0.0</ele>
  <time>2026-09-01T01:12:47Z</time>
  <course>188.44</course>
  <speed>0.0</speed>
  <fix>3d</fix>
</trkpt>
<trkpt lat="33.810313" lon="-118.393867">
  <ele>-0.12</ele>
  <time>2026-09-01T01:12:47Z</time>
  <course>0.0</course>
  <speed>0.0</speed>
  <fix>3d</fix>
</trkpt>
<trkpt lat="33.810313" lon="-118.393867">
  <ele>0.0</ele>
  <time>2026-09-01T01:12:47Z</time>
  <course>188.45</course>
  <speed>0.0</speed>
  <fix>3d</fix>
</trkpt>
<trkpt lat="33.810313" lon="-118.393867">
  <ele>-0.13</ele>
  <time>2026-09-01T01:12:47Z</time>
  <course>0.0</course>
  <speed>0.0</speed>
  <fix>3d</fix>
</trkpt>
<trkpt lat="33.810313" lon="-118.393867">
  <ele>0.0</ele>
  <time>2026-09-01T01:12:47Z</time>
  <course>188.46</course>
  <speed>0.0</speed>
  <fix>3d</fix>
</trkpt>
<trkpt lat="33.810313" lon="-118.393867">
  <ele>-0.13</ele>
  <time>2026-09-01T01:12:47Z</time>
  <course>0.0</course>
  <speed>0.0</speed>
  <fix>3d</fix>
</trkpt>
<trkpt lat="33.810313" lon="-118.393867">
  <ele>0.0</ele>
  <time>2026-09-01T01:12:47Z</time>
  <course>188.47</course>
  <speed>0.0</speed>
  <fix>3d</fix>
</trkpt>
<trkpt lat="33.810313" lon="-118.393867">
  <ele>-0.13</ele>
  <time>2026-09-01T01:12:47Z</time>
  <course>0.0</course>
  <speed>0.0</speed>
  <fix>3d</fix>
</trkpt>
<trkpt lat="33.810313" lon="-118.393867">
  <ele>0.0</ele>
  <time>2026-09-01T01:12:47Z</time>
  <course>188.48</course>
  <speed>0.0</speed>
  <fix>3d</fix>
</trkpt>
<trkpt lat="33.810313" lon="-118.393867">
  <ele>-0.13</ele>
  <time>2026-09-01T01:12:47Z</time>
  <course>0.0</course>
  <speed>0.0</speed>
  <fix>3d</fix>
</trkpt>
<trkpt lat="33.810313" lon="-118.393867">
  <ele>0.0</ele>
  <time>2026-09-01T01:12:47Z</time>
  <course>188.49</course>
  <speed>0.0</speed>
  <fix>3d</fix>
</trkpt>
<trkpt lat="33.810313" lon="-118.393867">
  <ele>-0.13</ele>
  <time>2026-09-01T01:12:47Z</time>
  <course>0.0</course>
  <speed>0.0</speed>
  <fix>3d</fix>
</trkpt>
<trkpt lat="33.810313" lon="-118.393867">
  <ele>0.0</ele>
  <time>2026-09-01T01:12:47Z</time>
  <course>188.5</course>
  <speed>0.0</speed>
  <fix>3d</fix>
</trkpt>
<trkpt lat="33.810313" lon="-118.393867">
  <ele>-0.13</ele>
  <time>2026-09-01T01:12:47Z</time>
  <course>0.0</course>
  <speed>0.0</speed>
  <fix>3d</fix>
</trkpt>
<trkpt lat="33.810313" lon="-118.393867">
  <ele>0.0</ele>
  <time>2026-09-01T01:12:47Z</time>
  <course>188.51</course>
  <speed>0.0</speed>
  <fix>3d</fix>
</trkpt>
<trkpt lat="33.810313" lon="-118.393867">
  <ele>-0.12</ele>
  <time>2026-09-01T01:12:47Z</time>
  <course>0.0</course>
  <speed>0.0</speed>
  <fix>3d</fix>
</trkpt>
<trkpt lat="33.810313" lon="-118.393867">
  <ele>0.0</ele>
  <time>2026-09-01T01:12:47Z</time>
  <course>188.52</course>
  <speed>0.0</speed>
  <fix>3d</fix>
</trkpt>
<trkpt lat="33.810313" lon="-118.393867">
  <ele>-0.12</ele>
  <time>2026-09-01T01:12:47Z</time>
  <course>0.0</course>
  <speed>0.0</speed>
  <fix>3d</fix>
</trkpt>
<trkpt lat="33.810313" lon="-118.393867">
  <ele>0.0</ele>
  <time>2026-09-01T01:12:47Z</time>
  <course>188.53</course>
  <speed>0.0</speed>
  <fix>3d</fix>
</trkpt>
<trkpt lat="33.810313" lon="-118.393867">
  <ele>-0.12</ele>
  <time>2026-09-01T01:12:47Z</time>
  <course>0.0</course>
  <speed>0.0</speed>
  <fix>3d</fix>
</trkpt>
<trkpt lat="33.810313" lon="-118.393867">
  <ele>0.0</ele>
  <time>2026-09-01T01:12:47Z</time>
  <course>188.53</course>
  <speed>0.0</speed>
  <fix>3d</fix>
</trkpt>
<trkpt lat="33.810313" lon="-118.393867">
  <ele>-0.12</ele>
  <time>2026-09-01T01:12:47Z</time>
  <course>0.0</course>
  <speed>0.0</speed>
  <fix>3d</fix>
</trkpt>
<trkpt lat="33.810313" lon="-118.393867">
  <ele>0.0</ele>
  <time>2026-09-01T01:12:47Z</time>
  <course>188.54</course>
  <speed>0.0</speed>
  <fix>3d</fix>
</trkpt>
<trkpt lat="33.810313" lon="-118.393867">
  <ele>-0.12</ele>
  <time>2026-09-01T01:12:47Z</time>
  <course>0.0</course>
  <speed>0.0</speed>
  <fix>3d</fix>
</trkpt>
<trkpt lat="33.810313" lon="-118.393867">
  <ele>0.0</ele>
  <time>2026-09-01T01:12:47Z</time>
  <course>188.54</course>
  <speed>0.0</speed>
  <fix>3d</fix>
</trkpt>
<trkpt lat="33.810313" lon="-118.393867">
  <ele>-0.12</ele>
  <time>2026-09-01T01:12:47Z</time>
  <course>0.0</course>
  <speed>0.0</speed>
  <fix>3d</fix>
</trkpt>
<trkpt lat="33.810313" lon="-118.393867">
  <ele>0.0</ele>
  <time>2026-09-01T01:12:47Z</time>
  <course>188.54</course>
  <speed>0.0</speed>
  <fix>3d</fix>
</trkpt>
<trkpt lat="33.810313" lon="-118.393867">
  <ele>-0.12</ele>
  <time>2026-09-01T01:12:47Z</time>
  <course>0.0</course>
  <speed>0.0</speed>
  <fix>3d</fix>
</trkpt>
<trkpt lat="33.810313" lon="-118.393867">
  <ele>0.0</ele>
  <time>2026-09-01T01:12:47Z</time>
  <course>188.55</course>
  <speed>0.0</speed>
  <fix>3d</fix>
</trkpt>
<trkpt lat="33.810313" lon="-118.393867">
  <ele>-0.12</ele>
  <time>2026-09-01T01:12:47Z</time>
  <course>0.0</course>
  <speed>0.0</speed>
  <fix>3d</fix>
</trkpt>
<trkpt lat="33.810313" lon="-118.393867">
  <ele>0.0</ele>
  <time>2026-09-01T01:12:47Z</time>
  <course>188.55</course>
  <speed>0.0</speed>
  <fix>3d</fix>
</trkpt>
<trkpt lat="33.810313" lon="-118.393867">
  <ele>-0.12</ele>
  <time>2026-09-01T01:12:47Z</time>
  <course>0.0</course>
  <speed>0.0</speed>
  <fix>3d</fix>
</trkpt>
<trkpt lat="33.810313" lon="-118.393867">
  <ele>0.0</ele>
  <time>2026-09-01T01:12:47Z</time>
  <course>188.55</course>
  <speed>0.0</speed>
  <fix>3d</fix>
</trkpt>
<trkpt lat="33.810313" lon="-118.393867">
  <ele>-0.12</ele>
  <time>2026-09-01T01:12:47Z</time>
  <course>0.0</course>
  <speed>0.0</speed>
  <fix>3d</fix>
</trkpt>
<trkpt lat="33.810313" lon="-118.393867">
  <ele>-0.126</ele>
  <time>2026-09-01T01:12:47Z</time>
  <course>188.55</course>
  <speed>0.0</speed>
  <fix>3d</fix>
</trkpt>
<trkpt lat="33.810313" lon="-118.393867">
  <ele>-0.13</ele>
  <time>2026-09-01T01:12:47Z</time>
  <course>0.0</course>
  <speed>0.0</speed>
  <fix>3d</fix>
</trkpt>
<trkpt lat="33.810313" lon="-118.393867">
  <ele>-0.126</ele>
  <time>2026-09-01T01:12:47Z</time>
  <course>188.56</course>
  <speed>0.0</speed>
  <fix>3d</fix>
</trkpt>
<trkpt lat="33.810313" lon="-118.393867">
  <ele>-0.13</ele>
  <time>2026-09-01T01:12:47Z</time>
  <course>0.0</course>
  <speed>0.0</speed>
  <fix>3d</fix>
</trkpt>
<trkpt lat="33.810313" lon="-118.393867">
  <ele>-0.125</ele>
  <time>2026-09-01T01:12:47Z</time>
  <course>188.56</course>
  <speed>0.0</speed>
  <fix>3d</fix>
</trkpt>
<trkpt lat="33.810313" lon="-118.393867">
  <ele>-0.13</ele>
  <time>2026-09-01T01:12:47Z</time>
  <course>0.0</course>
  <speed>0.0</speed>
  <fix>3d</fix>
</trkpt>
<trkpt lat="33.810313" lon="-118.393867">
  <ele>-0.123</ele>
  <time>2026-09-01T01:12:47Z</time>
  <course>188.56</course>
  <speed>0.0</speed>
  <fix>3d</fix>
</trkpt>
<trkpt lat="33.810313" lon="-118.393867">
  <ele>-0.13</ele>
  <time>2026-09-01T01:12:47Z</time>
  <course>0.0</course>
  <speed>0.0</speed>
  <fix>3d</fix>
</trkpt>
<trkpt lat="33.810313" lon="-118.393867">
  <ele>-0.121</ele>
  <time>2026-09-01T01:12:47Z</time>
  <course>188.56</course>
  <speed>0.0</speed>
  <fix>3d</fix>
</trkpt>
<trkpt lat="33.810313" lon="-118.393867">
  <ele>-0.12</ele>
  <time>2026-09-01T01:12:47Z</time>
  <course>0.0</course>
  <speed>0.0</speed>
  <fix>3d</fix>
</trkpt>
<trkpt lat="33.810313" lon="-118.393867">
  <ele>-0.12</ele>
  <time>2026-09-01T01:12:47Z</time>
  <course>188.56</course>
  <speed>0.0</speed>
  <fix>3d</fix>
</trkpt>
<trkpt lat="33.810313" lon="-118.393867">
  <ele>-0.12</ele>
  <time>2026-09-01T01:12:47Z</time>
  <course>0.0</course>
  <speed>0.0</speed>
  <fix>3d</fix>
</trkpt>
<trkpt lat="33.810313" lon="-118.393867">
  <ele>-0.119</ele>
  <time>2026-09-01T01:12:47Z</time>
  <course>188.56</course>
  <speed>0.0</speed>
  <fix>3d</fix>
</trkpt>
<trkpt lat="33.810313" lon="-118.393867">
  <ele>-0.12</ele>
  <time>2026-09-01T01:12:47Z</time>
  <course>0.0</course>
  <speed>0.0</speed>
  <fix>3d</fix>
</trkpt>
<trkpt lat="33.810313" lon="-118.393867">
  <ele>-0.12</ele>
  <time>2026-09-01T01:12:47Z</time>
  <course>188.56</course>
  <speed>0.0</speed>
  <fix>3d</fix>
</trkpt>
<trkpt lat="33.810313" lon="-118.393867">
  <ele>-0.12</ele>
  <time>2026-09-01T01:12:47Z</time>
  <course>0.0</course>
  <speed>0.0</speed>
  <fix>3d</fix>
</trkpt>
<trkpt lat="33.810313" lon="-118.393867">
  <ele>-0.123</ele>
  <time>2026-09-01T01:12:47Z</time>
  <course>188.55</course>
  <speed>0.0</speed>
  <fix>3d</fix>
</trkpt>
<trkpt lat="33.810313" lon="-118.393867">
  <ele>-0.12</ele>
  <time>2026-09-01T01:12:47Z</time>
  <course>0.0</course>
  <speed>0.0</speed>
  <fix>3d</fix>
</trkpt>
<trkpt lat="33.810313" lon="-118.393867">
  <ele>-0.127</ele>
  <time>2026-09-01T01:12:47Z</time>
  <course>188.55</course>
  <speed>0.0</speed>
  <fix>3d</fix>
</trkpt>
<trkpt lat="33.810313" lon="-118.393867">
  <ele>-0.12</ele>
  <time>2026-09-01T01:12:47Z</time>
  <course>0.0</course>
  <speed>0.0</speed>
  <fix>3d</fix>
</trkpt>
<trkpt lat="33.810313" lon="-118.393867">
  <ele>-0.13</ele>
  <time>2026-09-01T01:12:47Z</time>
  <course>188.55</course>
  <speed>0.0</speed>
  <fix>3d</fix>
</trkpt>
<trkpt lat="33.810313" lon="-118.393867">
  <ele>-0.12</ele>
  <time>2026-09-01T01:12:47Z</time>
  <course>0.0</course>
  <speed>0.0</speed>
  <fix>3d</fix>
</trkpt>
<trkpt lat="33.810313" lon="-118.393867">
  <ele>-0.132</ele>
  <time>2026-09-01T01:12:47Z</time>
  <course>188.55</course>
  <speed>0.0</speed>
  <fix>3d</fix>
</trkpt>
<trkpt lat="33.810313" lon="-118.393867">
  <ele>-0.12</ele>
  <time>2026-09-01T01:12:47Z</time>
  <course>0.0</course>
  <speed>0.0</speed>
  <fix>3d</fix>
</trkpt>
<trkpt lat="33.810313" lon="-118.393867">
  <ele>-0.132</ele>
  <time>2026-09-01T01:12:47Z</time>
  <course>188.55</course>
  <speed>0.0</speed>
  <fix>3d</fix>
</trkpt>
<trkpt lat="33.810313" lon="-118.393867">
  <ele>-0.12</ele>
  <time>2026-09-01T01:12:47Z</time>
  <course>0.0</course>
  <speed>0.0</speed>
  <fix>3d</fix>
</trkpt>
<trkpt lat="33.810313" lon="-118.393867">
  <ele>-0.132</ele>
  <time>2026-09-01T01:12:47Z</time>
  <course>188.55</course>
  <speed>0.0</speed>
  <fix>3d</fix>
</trkpt>
<trkpt lat="33.810313" lon="-118.393867">
  <ele>-0.12</ele>
  <time>2026-09-01T01:12:47Z</time>
  <course>0.0</course>
  <speed>0.0</speed>
  <fix>3d</fix>
</trkpt>
<trkpt lat="33.810313" lon="-118.393867">
  <ele>-0.132</ele>
  <time>2026-09-01T01:12:47Z</time>
  <course>188.55</course>
  <speed>0.0</speed>
  <fix>3d</fix>
</trkpt>
<trkpt lat="33.810313" lon="-118.393867">
  <ele>-0.12</ele>
  <time>2026-09-01T01:12:47Z</time>
  <course>0.0</course>
  <speed>0.0</speed>
  <fix>3d</fix>
</trkpt>
<trkpt lat="33.810313" lon="-118.393867">
  <ele>-0.131</ele>
  <time>2026-09-01T01:12:47Z</time>
  <course>188.55</course>
  <speed>0.0</speed>
  <fix>3d</fix>
</trkpt>
<trkpt lat="33.810313" lon="-118.393867">
  <ele>-0.12</ele>
  <time>2026-09-01T01:12:47Z</time>
  <course>0.0</course>
  <speed>0.0</speed>
  <fix>3d</fix>
</trkpt>
<trkpt lat="33.810313" lon="-118.393867">
  <ele>-0.129</ele>
  <time>2026-09-01T01:12:47Z</time>
  <course>188.54</course>
  <speed>0.0</speed>
  <fix>3d</fix>
</trkpt>
<trkpt lat="33.810313" lon="-118.393867">
  <ele>-0.13</ele>
  <time>2026-09-01T01:12:47Z</time>
  <course>0.0</course>
  <speed>0.0</speed>
  <fix>3d</fix>
</trkpt>
<trkpt lat="33.810313" lon="-118.393867">
  <ele>-0.128</ele>
  <time>2026-09-01T01:12:47Z</time>
  <course>188.54</course>
  <speed>0.0</speed>
  <fix>3d</fix>
</trkpt>
<trkpt lat="33.810313" lon="-118.393867">
  <ele>-0.13</ele>
  <time>2026-09-01T01:12:47Z</time>
  <course>0.0</course>
  <speed>0.0</speed>
  <fix>3d</fix>
</trkpt>
<trkpt lat="33.810313" lon="-118.393867">
  <ele>-0.125</ele>
  <time>2026-09-01T01:12:47Z</time>
  <course>188.53</course>
  <speed>0.0</speed>
  <fix>3d</fix>
</trkpt>
<trkpt lat="33.810313" lon="-118.393867">
  <ele>-0.12</ele>
  <time>2026-09-01T01:12:47Z</time>
  <course>0.0</course>
  <speed>0.0</speed>
  <fix>3d</fix>
</trkpt>
<trkpt lat="33.810313" lon="-118.393867">
  <ele>-0.123</ele>
  <time>2026-09-01T01:12:47Z</time>
  <course>188.53</course>
  <speed>0.0</speed>
  <fix>3d</fix>
</trkpt>
<trkpt lat="33.810313" lon="-118.393867">
  <ele>-0.12</ele>
  <time>2026-09-01T01:12:47Z</time>
  <course>0.0</course>
  <speed>0.0</speed>
  <fix>3d</fix>
</trkpt>
<trkpt lat="33.810313" lon="-118.393867">
  <ele>-0.121</ele>
  <time>2026-09-01T01:12:47Z</time>
  <course>188.52</course>
  <speed>0.0</speed>
  <fix>3d</fix>
</trkpt>
<trkpt lat="33.810313" lon="-118.393867">
  <ele>-0.12</ele>
  <time>2026-09-01T01:12:47Z</time>
  <course>0.0</course>
  <speed>0.0</speed>
  <fix>3d</fix>
</trkpt>
<trkpt lat="33.810313" lon="-118.393867">
  <ele>-0.121</ele>
  <time>2026-09-01T01:12:47Z</time>
  <course>188.52</course>
  <speed>0.0</speed>
  <fix>3d</fix>
</trkpt>
<trkpt lat="33.810313" lon="-118.393867">
  <ele>-0.12</ele>
  <time>2026-09-01T01:12:47Z</time>
  <course>0.0</course>
  <speed>0.0</speed>
  <fix>3d</fix>
</trkpt>
<trkpt lat="33.810313" lon="-118.393867">
  <ele>-0.121</ele>
  <time>2026-09-01T01:12:47Z</time>
  <course>188.51</course>
  <speed>0.0</speed>
  <fix>3d</fix>
</trkpt>
<trkpt lat="33.810313" lon="-118.393867">
  <ele>-0.12</ele>
  <time>2026-09-01T01:12:47Z</time>
  <course>0.0</course>
  <speed>0.0</speed>
  <fix>3d</fix>
</trkpt>
<trkpt lat="33.810313" lon="-118.393867">
  <ele>-0.123</ele>
  <time>2026-09-01T01:12:47Z</time>
  <course>188.51</course>
  <speed>0.0</speed>
  <fix>3d</fix>
</trkpt>
<trkpt lat="33.810313" lon="-118.393867">
  <ele>-0.12</ele>
  <time>2026-09-01T01:12:47Z</time>
  <course>0.0</course>
  <speed>0.0</speed>
  <fix>3d</fix>
</trkpt>
<trkpt lat="33.810313" lon="-118.393867">
  <ele>-0.126</ele>
  <time>2026-09-01T01:12:47Z</time>
  <course>188.5</course>
  <speed>0.0</speed>
  <fix>3d</fix>
</trkpt>
<trkpt lat="33.810313" lon="-118.393867">
  <ele>-0.12</ele>
  <time>2026-09-01T01:12:47Z</time>
  <course>0.0</course>
  <speed>0.0</speed>
  <fix>3d</fix>
</trkpt>
<trkpt lat="33.810313" lon="-118.393867">
  <ele>-0.127</ele>
  <time>2026-09-01T01:12:47Z</time>
  <course>188.5</course>
  <speed>0.0</speed>
  <fix>3d</fix>
</trkpt>
<trkpt lat="33.810313" lon="-118.393867">
  <ele>-0.12</ele>
  <time>2026-09-01T01:12:47Z</time>
  <course>0.0</course>
  <speed>0.0</speed>
  <fix>3d</fix>
</trkpt>
<trkpt lat="33.810313" lon="-118.393867">
  <ele>-0.128</ele>
  <time>2026-09-01T01:12:47Z</time>
  <course>188.49</course>
  <speed>0.0</speed>
  <fix>3d</fix>
</trkpt>
<trkpt lat="33.810313" lon="-118.393867">
  <ele>-0.12</ele>
  <time>2026-09-01T01:12:48Z</time>
  <course>0.0</course>
  <speed>0.0</speed>
  <fix>3d</fix>
</trkpt>
<trkpt lat="33.810313" lon="-118.393867">
  <ele>-0.127</ele>
  <time>2026-09-01T01:12:48Z</time>
  <course>188.49</course>
  <speed>0.0</speed>
  <fix>3d</fix>
</trkpt>
<trkpt lat="33.810313" lon="-118.393867">
  <ele>-0.12</ele>
  <time>2026-09-01T01:12:48Z</time>
  <course>0.0</course>
  <speed>0.0</speed>
  <fix>3d</fix>
</trkpt>
<trkpt lat="33.810313" lon="-118.393867">
  <ele>-0.127</ele>
  <time>2026-09-01T01:12:48Z</time>
  <course>188.48</course>
  <speed>0.0</speed>
  <fix>3d</fix>
</trkpt>
<trkpt lat="33.810313" lon="-118.393867">
  <ele>-0.12</ele>
  <time>2026-09-01T01:12:48Z</time>
  <course>0.0</course>
  <speed>0.0</speed>
  <fix>3d</fix>
</trkpt>
<trkpt lat="33.810313" lon="-118.393867">
  <ele>-0.127</ele>
  <time>2026-09-01T01:12:48Z</time>
  <course>188.47</course>
  <speed>0.01</speed>
  <fix>3d</fix>
</trkpt>
<trkpt lat="33.810313" lon="-118.393867">
  <ele>-0.12</ele>
  <time>2026-09-01T01:12:48Z</time>
  <course>0.0</course>
  <speed>0.0</speed>
  <fix>3d</fix>
</trkpt>
<trkpt lat="33.810313" lon="-118.393867">
  <ele>-0.127</ele>
  <time>2026-09-01T01:12:48Z</time>
  <course>188.47</course>
  <speed>0.01</speed>
  <fix>3d</fix>
</trkpt>
<trkpt lat="33.810313" lon="-118.393867">
  <ele>-0.12</ele>
  <time>2026-09-01T01:12:48Z</time>
  <course>0.0</course>
  <speed>0.0</speed>
  <fix>3d</fix>
</trkpt>
<trkpt lat="33.810313" lon="-118.393867">
  <ele>-0.127</ele>
  <time>2026-09-01T01:12:48Z</time>
  <course>188.46</course>
  <speed>0.01</speed>
  <fix>3d</fix>
</trkpt>
<trkpt lat="33.810313" lon="-118.393867">
  <ele>-0.12</ele>
  <time>2026-09-01T01:12:48Z</time>
  <course>0.0</course>
  <speed>0.0</speed>
  <fix>3d</fix>
</trkpt>
<trkpt lat="33.810313" lon="-118.393867">
  <ele>-0.126</ele>
  <time>2026-09-01T01:12:48Z</time>
  <course>188.45</course>
  <speed>0.01</speed>
  <fix>3d</fix>
</trkpt>
<trkpt lat="33.810313" lon="-118.393867">
  <ele>-0.12</ele>
  <time>2026-09-01T01:12:48Z</time>
  <course>0.0</course>
  <speed>0.0</speed>
  <fix>3d</fix>
</trkpt>
<trkpt lat="33.810313" lon="-118.393867">
  <ele>-0.126</ele>
  <time>2026-09-01T01:12:48Z</time>
  <course>188.45</course>
  <speed>0.01</speed>
  <fix>3d</fix>
</trkpt>
<trkpt lat="33.810313" lon="-118.393867">
  <ele>-0.12</ele>
  <time>2026-09-01T01:12:48Z</time>
  <course>0.0</course>
  <speed>0.0</speed>
  <fix>3d</fix>
</trkpt>
<trkpt lat="33.810313" lon="-118.393867">
  <ele>-0.125</ele>
  <time>2026-09-01T01:12:48Z</time>
  <course>188.44</course>
  <speed>0.01</speed>
  <fix>3d</fix>
</trkpt>
<trkpt lat="33.810313" lon="-118.393867">
  <ele>-0.12</ele>
  <time>2026-09-01T01:12:48Z</time>
  <course>0.0</course>
  <speed>0.0</speed>
  <fix>3d</fix>
</trkpt>
<trkpt lat="33.810313" lon="-118.393867">
  <ele>-0.126</ele>
  <time>2026-09-01T01:12:48Z</time>
  <course>188.43</course>
  <speed>0.01</speed>
  <fix>3d</fix>
</trkpt>
<trkpt lat="33.810313" lon="-118.393867">
  <ele>-0.12</ele>
  <time>2026-09-01T01:12:48Z</time>
  <course>0.0</course>
  <speed>0.0</speed>
  <fix>3d</fix>
</trkpt>
<trkpt lat="33.810313" lon="-118.393867">
  <ele>-0.127</ele>
  <time>2026-09-01T01:12:48Z</time>
  <course>188.42</course>
  <speed>0.01</speed>
  <fix>3d</fix>
</trkpt>
<trkpt lat="33.810313" lon="-118.393867">
  <ele>-0.12</ele>
  <time>2026-09-01T01:12:48Z</time>
  <course>0.0</course>
  <speed>0.0</speed>
  <fix>3d</fix>
</trkpt>
<trkpt lat="33.810313" lon="-118.393867">
  <ele>-0.128</ele>
  <time>2026-09-01T01:12:48Z</time>
  <course>188.42</course>
  <speed>0.01</speed>
  <fix>3d</fix>
</trkpt>
<trkpt lat="33.810313" lon="-118.393867">
  <ele>-0.12</ele>
  <time>2026-09-01T01:12:48Z</time>
  <course>0.0</course>
  <speed>0.0</speed>
  <fix>3d</fix>
</trkpt>
<trkpt lat="33.810313" lon="-118.393867">
  <ele>-0.129</ele>
  <time>2026-09-01T01:12:48Z</time>
  <course>188.41</course>
  <speed>0.01</speed>
  <fix>3d</fix>
</trkpt>
<trkpt lat="33.810313" lon="-118.393867">
  <ele>-0.12</ele>
  <time>2026-09-01T01:12:48Z</time>
  <course>0.0</course>
  <speed>0.0</speed>
  <fix>3d</fix>
</trkpt>
<trkpt lat="33.810313" lon="-118.393867">
  <ele>-0.129</ele>
  <time>2026-09-01T01:12:48Z</time>
  <course>188.4</course>
  <speed>0.01</speed>
  <fix>3d</fix>
</trkpt>
<trkpt lat="33.810313" lon="-118.393867">
  <ele>-0.12</ele>
  <time>2026-09-01T01:12:48Z</time>
  <course>0.0</course>
  <speed>0.0</speed>
  <fix>3d</fix>
</trkpt>
<trkpt lat="33.810313" lon="-118.393867">
  <ele>-0.13</ele>
  <time>2026-09-01T01:12:48Z</time>
  <course>188.4</course>
  <speed>0.01414213562373095</speed>
  <fix>3d</fix>
</trkpt>
<trkpt lat="33.810313" lon="-118.393867">
  <ele>-0.12</ele>
  <time>2026-09-01T01:12:48Z</time>
  <course>0.0</course>
  <speed>0.0</speed>
  <fix>3d</fix>
</trkpt>
<trkpt lat="33.810313" lon="-118.393867">
  <ele>-0.13</ele>
  <time>2026-09-01T01:12:48Z</time>
  <course>188.39</course>
  <speed>0.01414213562373095</speed>
  <fix>3d</fix>
</trkpt>
<trkpt lat="33.810313" lon="-118.393867">
  <ele>-0.12</ele>
  <time>2026-09-01T01:12:48Z</time>
  <course>0.0</course>
  <speed>0.0</speed>
  <fix>3d</fix>
</trkpt>
<trkpt lat="33.810313" lon="-118.393867">
  <ele>-0.13</ele>
  <time>2026-09-01T01:12:48Z</time>
  <course>188.38</course>
  <speed>0.01414213562373095</speed>
  <fix>3d</fix>
</trkpt>
<trkpt lat="33.810313" lon="-118.393867">
  <ele>-0.12</ele>
  <time>2026-09-01T01:12:48Z</time>
  <course>0.0</course>
  <speed>0.0</speed>
  <fix>3d</fix>
</trkpt>
<trkpt lat="33.810313" lon="-118.393867">
  <ele>-0.129</ele>
  <time>2026-09-01T01:12:48Z</time>
  <course>188.37</course>
  <speed>0.01414213562373095</speed>
  <fix>3d</fix>
</trkpt>
<trkpt lat="33.810313" lon="-118.393867">
  <ele>-0.12</ele>
  <time>2026-09-01T01:12:48Z</time>
  <course>0.0</course>
  <speed>0.0</speed>
  <fix>3d</fix>
</trkpt>
<trkpt lat="33.810313" lon="-118.393867">
  <ele>-0.128</ele>
  <time>2026-09-01T01:12:48Z</time>
  <course>188.37</course>
  <speed>0.01414213562373095</speed>
  <fix>3d</fix>
</trkpt>
<trkpt lat="33.810313" lon="-118.393867">
  <ele>-0.12</ele>
  <time>2026-09-01T01:12:48Z</time>
  <course>0.0</course>
  <speed>0.0</speed>
  <fix>3d</fix>
</trkpt>
<trkpt lat="33.810313" lon="-118.393867">
  <ele>-0.126</ele>
  <time>2026-09-01T01:12:48Z</time>
  <course>188.36</course>
  <speed>0.01414213562373095</speed>
  <fix>3d</fix>
</trkpt>
<trkpt lat="33.810313" lon="-118.393867">
  <ele>-0.12</ele>
  <time>2026-09-01T01:12:48Z</time>
  <course>0.0</course>
  <speed>0.0</speed>
  <fix>3d</fix>
</trkpt>
<trkpt lat="33.810313" lon="-118.393867">
  <ele>-0.124</ele>
  <time>2026-09-01T01:12:48Z</time>
  <course>188.35</course>
  <speed>0.01414213562373095</speed>
  <fix>3d</fix>
</trkpt>
<trkpt lat="33.810313" lon="-118.393867">
  <ele>-0.12</ele>
  <time>2026-09-01T01:12:48Z</time>
  <course>0.0</course>
  <speed>0.0</speed>
  <fix>3d</fix>
</trkpt>
<trkpt lat="33.810313" lon="-118.393867">
  <ele>-0.122</ele>
  <time>2026-09-01T01:12:48Z</time>
  <course>188.34</course>
  <speed>0.01414213562373095</speed>
  <fix>3d</fix>
</trkpt>
<trkpt lat="33.810313" lon="-118.393867">
  <ele>-0.12</ele>
  <time>2026-09-01T01:12:48Z</time>
  <course>0.0</course>
  <speed>0.0</speed>
  <fix>3d</fix>
</trkpt>
<trkpt lat="33.810313" lon="-118.393867">
  <ele>-0.123</ele>
  <time>2026-09-01T01:12:48Z</time>
  <course>188.34</course>
  <speed>0.01414213562373095</speed>
  <fix>3d</fix>
</trkpt>
<trkpt lat="33.810313" lon="-118.393867">
  <ele>-0.12</ele>
  <time>2026-09-01T01:12:48Z</time>
  <course>0.0</course>
  <speed>0.0</speed>
  <fix>3d</fix>
</trkpt>
<trkpt lat="33.810313" lon="-118.393867">
  <ele>-0.125</ele>
  <time>2026-09-01T01:12:48Z</time>
  <course>188.33</course>
  <speed>0.01414213562373095</speed>
  <fix>3d</fix>
</trkpt>
<trkpt lat="33.810313" lon="-118.393867">
  <ele>-0.12</ele>
  <time>2026-09-01T01:12:48Z</time>
  <course>0.0</course>
  <speed>0.0</speed>
  <fix>3d</fix>
</trkpt>
<trkpt lat="33.810313" lon="-118.393867">
  <ele>-0.128</ele>
  <time>2026-09-01T01:12:48Z</time>
  <course>188.32</course>
  <speed>0.01414213562373095</speed>
  <fix>3d</fix>
</trkpt>
<trkpt lat="33.810313" lon="-118.393867">
  <ele>-0.12</ele>
  <time>2026-09-01T01:12:48Z</time>
  <course>0.0</course>
  <speed>0.0</speed>
  <fix>3d</fix>
</trkpt>
<trkpt lat="33.810313" lon="-118.393867">
  <ele>-0.131</ele>
  <time>2026-09-01T01:12:48Z</time>
  <course>188.31</course>
  <speed>0.01414213562373095</speed>
  <fix>3d</fix>
</trkpt>
<trkpt lat="33.810313" lon="-118.393867">
  <ele>-0.12</ele>
  <time>2026-09-01T01:12:48Z</time>
  <course>0.0</course>
  <speed>0.0</speed>
  <fix>3d</fix>
</trkpt>
<trkpt lat="33.810313" lon="-118.393867">
  <ele>-0.134</ele>
  <time>2026-09-01T01:12:48Z</time>
  <course>188.3</course>
  <speed>0.01414213562373095</speed>
  <fix>3d</fix>
</trkpt>
<trkpt lat="33.810313" lon="-118.393867">
  <ele>-0.12</ele>
  <time>2026-09-01T01:12:48Z</time>
  <course>0.0</course>
  <speed>0.0</speed>
  <fix>3d</fix>
</trkpt>
<trkpt lat="33.810313" lon="-118.393867">
  <ele>-0.135</ele>
  <time>2026-09-01T01:12:48Z</time>
  <course>188.3</course>
  <speed>0.01414213562373095</speed>
  <fix>3d</fix>
</trkpt>
<trkpt lat="33.810313" lon="-118.393867">
  <ele>-0.12</ele>
  <time>2026-09-01T01:12:48Z</time>
  <course>0.0</course>
  <speed>0.0</speed>
  <fix>3d</fix>
</trkpt>
<trkpt lat="33.810313" lon="-118.393867">
  <ele>-0.134</ele>
  <time>2026-09-01T01:12:48Z</time>
  <course>188.29</course>
  <speed>0.01414213562373095</speed>
  <fix>3d</fix>
</trkpt>
<trkpt lat="33.810313" lon="-118.393867">
  <ele>-0.12</ele>
  <time>2026-09-01T01:12:48Z</time>
  <course>0.0</course>
  <speed>0.0</speed>
  <fix>3d</fix>
</trkpt>
<trkpt lat="33.810313" lon="-118.393867">
  <ele>-0.132</ele>
  <time>2026-09-01T01:12:48Z</time>
  <course>188.28</course>
  <speed>0.01414213562373095</speed>
  <fix>3d</fix>
</trkpt>
<trkpt lat="33.810313" lon="-118.393867">
  <ele>-0.12</ele>
  <time>2026-09-01T01:12:48Z</time>
  <course>0.0</course>
  <speed>0.0</speed>
  <fix>3d</fix>
</trkpt>
<trkpt lat="33.810313" lon="-118.393867">
  <ele>-0.13</ele>
  <time>2026-09-01T01:12:48Z</time>
  <course>188.27</course>
  <speed>0.01414213562373095</speed>
  <fix>3d</fix>
</trkpt>
<trkpt lat="33.810313" lon="-118.393867">
  <ele>-0.12</ele>
  <time>2026-09-01T01:12:48Z</time>
  <course>0.0</course>
  <speed>0.0</speed>
  <fix>3d</fix>
</trkpt>
<trkpt lat="33.810313" lon="-118.393867">
  <ele>-0.127</ele>
  <time>2026-09-01T01:12:48Z</time>
  <course>188.26</course>
  <speed>0.01414213562373095</speed>
  <fix>3d</fix>
</trkpt>
<trkpt lat="33.810313" lon="-118.393867">
  <ele>-0.12</ele>
  <time>2026-09-01T01:12:48Z</time>
  <course>0.0</course>
  <speed>0.0</speed>
  <fix>3d</fix>
</trkpt>
<trkpt lat="33.810313" lon="-118.393867">
  <ele>-0.125</ele>
  <time>2026-09-01T01:12:48Z</time>
  <course>188.25</course>
  <speed>0.01414213562373095</speed>
  <fix>3d</fix>
</trkpt>
<trkpt lat="33.810313" lon="-118.393867">
  <ele>-0.12</ele>
  <time>2026-09-01T01:12:48Z</time>
  <course>0.0</course>
  <speed>0.0</speed>
  <fix>3d</fix>
</trkpt>
<trkpt lat="33.810313" lon="-118.393867">
  <ele>-0.123</ele>
  <time>2026-09-01T01:12:48Z</time>
  <course>188.25</course>
  <speed>0.01414213562373095</speed>
  <fix>3d</fix>
</trkpt>
<trkpt lat="33.810313" lon="-118.393867">
  <ele>-0.12</ele>
  <time>2026-09-01T01:12:48Z</time>
  <course>0.0</course>
  <speed>0.0</speed>
  <fix>3d</fix>
</trkpt>
<trkpt lat="33.810313" lon="-118.393867">
  <ele>-0.124</ele>
  <time>2026-09-01T01:12:48Z</time>
  <course>188.24</course>
  <speed>0.01414213562373095</speed>
  <fix>3d</fix>
</trkpt>
<trkpt lat="33.810313" lon="-118.393867">
  <ele>-0.12</ele>
  <time>2026-09-01T01:12:48Z</time>
  <course>0.0</course>
  <speed>0.0</speed>
  <fix>3d</fix>
</trkpt>
<trkpt lat="33.810313" lon="-118.393867">
  <ele>-0.125</ele>
  <time>2026-09-01T01:12:48Z</time>
  <course>188.23</course>
  <speed>0.01414213562373095</speed>
  <fix>3d</fix>
</trkpt>
<trkpt lat="33.810313" lon="-118.393867">
  <ele>-0.12</ele>
  <time>2026-09-01T01:12:48Z</time>
  <course>0.0</course>
  <speed>0.0</speed>
  <fix>3d</fix>
</trkpt>
<trkpt lat="33.810313" lon="-118.393867">
  <ele>-0.127</ele>
  <time>2026-09-01T01:12:48Z</time>
  <course>188.22</course>
  <speed>0.01414213562373095</speed>
  <fix>3d</fix>
</trkpt>
<trkpt lat="33.810313" lon="-118.393867">
  <ele>-0.12</ele>
  <time>2026-09-01T01:12:48Z</time>
  <course>0.0</course>
  <speed>0.0</speed>
  <fix>3d</fix>
</trkpt>
<trkpt lat="33.810313" lon="-118.393867">
  <ele>-0.128</ele>
  <time>2026-09-01T01:12:48Z</time>
  <course>188.21</course>
  <speed>0.01414213562373095</speed>
  <fix>3d</fix>
</trkpt>
<trkpt lat="33.810313" lon="-118.393867">
  <ele>-0.12</ele>
  <time>2026-09-01T01:12:48Z</time>
  <course>0.0</course>
  <speed>0.0</speed>
  <fix>3d</fix>
</trkpt>
<trkpt lat="33.810313" lon="-118.393867">
  <ele>-0.129</ele>
  <time>2026-09-01T01:12:48Z</time>
  <course>188.21</course>
  <speed>0.01414213562373095</speed>
  <fix>3d</fix>
</trkpt>
<trkpt lat="33.810313" lon="-118.393867">
  <ele>-0.12</ele>
  <time>2026-09-01T01:12:48Z</time>
  <course>0.0</course>
  <speed>0.0</speed>
  <fix>3d</fix>
</trkpt>
<trkpt lat="33.810313" lon="-118.393867">
  <ele>-0.129</ele>
  <time>2026-09-01T01:12:48Z</time>
  <course>188.2</course>
  <speed>0.01414213562373095</speed>
  <fix>3d</fix>
</trkpt>
<trkpt lat="33.810313" lon="-118.393867">
  <ele>-0.12</ele>
  <time>2026-09-01T01:12:48Z</time>
  <course>0.0</course>
  <speed>0.0</speed>
  <fix>3d</fix>
</trkpt>
<trkpt lat="33.810313" lon="-118.393867">
  <ele>-0.128</ele>
  <time>2026-09-01T01:12:48Z</time>
  <course>188.19</course>
  <speed>0.01414213562373095</speed>
  <fix>3d</fix>
</trkpt>
<trkpt lat="33.810313" lon="-118.393867">
  <ele>-0.12</ele>
  <time>2026-09-01T01:12:48Z</time>
  <course>0.0</course>
  <speed>0.0</speed>
  <fix>3d</fix>
</trkpt>
<trkpt lat="33.810313" lon="-118.393867">
  <ele>-0.128</ele>
  <time>2026-09-01T01:12:48Z</time>
  <course>188.18</course>
  <speed>0.01414213562373095</speed>
  <fix>3d</fix>
</trkpt>
<trkpt lat="33.810313" lon="-118.393867">
  <ele>-0.12</ele>
  <time>2026-09-01T01:12:48Z</time>
  <course>0.0</course>
  <speed>0.0</speed>
  <fix>3d</fix>
</trkpt>
<trkpt lat="33.810313" lon="-118.393867">
  <ele>-0.127</ele>
  <time>2026-09-01T01:12:48Z</time>
  <course>188.17</course>
  <speed>0.01414213562373095</speed>
  <fix>3d</fix>
</trkpt>
<trkpt lat="33.810313" lon="-118.393867">
  <ele>-0.12</ele>
  <time>2026-09-01T01:12:48Z</time>
  <course>0.0</course>
  <speed>0.0</speed>
  <fix>3d</fix>
</trkpt>
<trkpt lat="33.810313" lon="-118.393867">
  <ele>-0.127</ele>
  <time>2026-09-01T01:12:48Z</time>
  <course>188.16</course>
  <speed>0.01414213562373095</speed>
  <fix>3d</fix>
</trkpt>
<trkpt lat="33.810313" lon="-118.393867">
  <ele>-0.12</ele>
  <time>2026-09-01T01:12:48Z</time>
  <course>0.0</course>
  <speed>0.0</speed>
  <fix>3d</fix>
</trkpt>
<trkpt lat="33.810313" lon="-118.393867">
  <ele>-0.128</ele>
  <time>2026-09-01T01:12:48Z</time>
  <course>188.16</course>
  <speed>0.01414213562373095</speed>
  <fix>3d</fix>
</trkpt>
<trkpt lat="33.810313" lon="-118.393867">
  <ele>-0.12</ele>
  <time>2026-09-01T01:12:48Z</time>
  <course>0.0</course>
  <speed>0.0</speed>
  <fix>3d</fix>
</trkpt>
<trkpt lat="33.810313" lon="-118.393867">
  <ele>-0.129</ele>
  <time>2026-09-01T01:12:48Z</time>
  <course>188.15</course>
  <speed>0.01414213562373095</speed>
  <fix>3d</fix>
</trkpt>
<trkpt lat="33.810313" lon="-118.393867">
  <ele>-0.12</ele>
  <time>2026-09-01T01:12:48Z</time>
  <course>0.0</course>
  <speed>0.0</speed>
  <fix>3d</fix>
</trkpt>
<trkpt lat="33.810313" lon="-118.393867">
  <ele>-0.131</ele>
  <time>2026-09-01T01:12:48Z</time>
  <course>188.14</course>
  <speed>0.01414213562373095</speed>
  <fix>3d</fix>
</trkpt>
<trkpt lat="33.810313" lon="-118.393867">
  <ele>-0.12</ele>
  <time>2026-09-01T01:12:48Z</time>
  <course>0.0</course>
  <speed>0.0</speed>
  <fix>3d</fix>
</trkpt>
<trkpt lat="33.810313" lon="-118.393867">
  <ele>-0.133</ele>
  <time>2026-09-01T01:12:48Z</time>
  <course>188.13</course>
  <speed>0.01414213562373095</speed>
  <fix>3d</fix>
</trkpt>
<trkpt lat="33.810313" lon="-118.393867">
  <ele>-0.12</ele>
  <time>2026-09-01T01:12:48Z</time>
  <course>0.0</course>
  <speed>0.0</speed>
  <fix>3d</fix>
</trkpt>
<trkpt lat="33.810313" lon="-118.393867">
  <ele>-0.135</ele>
  <time>2026-09-01T01:12:48Z</time>
  <course>188.12</course>
  <speed>0.01414213562373095</speed>
  <fix>3d</fix>
</trkpt>
<trkpt lat="33.810313" lon="-118.393867">
  <ele>-0.12</ele>
  <time>2026-09-01T01:12:48Z</time>
  <course>0.0</course>
  <speed>0.0</speed>
  <fix>3d</fix>
</trkpt>
<trkpt lat="33.810313" lon="-118.393867">
  <ele>-0.136</ele>
  <time>2026-09-01T01:12:48Z</time>
  <course>188.12</course>
  <speed>0.01414213562373095</speed>
  <fix>3d</fix>
</trkpt>
<trkpt lat="33.810313" lon="-118.393867">
  <ele>-0.12</ele>
  <time>2026-09-01T01:12:48Z</time>
  <course>0.0</course>
  <speed>0.0</speed>
  <fix>3d</fix>
</trkpt>
<trkpt lat="33.810313" lon="-118.393867">
  <ele>-0.136</ele>
  <time>2026-09-01T01:12:48Z</time>
  <course>188.11</course>
  <speed>0.01414213562373095</speed>
  <fix>3d</fix>
</trkpt>
<trkpt lat="33.810313" lon="-118.393867">
  <ele>-0.12</ele>
  <time>2026-09-01T01:12:48Z</time>
  <course>0.0</course>
  <speed>0.0</speed>
  <fix>3d</fix>
</trkpt>
<trkpt lat="33.810313" lon="-118.393867">
  <ele>-0.136</ele>
  <time>2026-09-01T01:12:48Z</time>
  <course>188.1</course>
  <speed>0.01414213562373095</speed>
  <fix>3d</fix>
</trkpt>
<trkpt lat="33.810313" lon="-118.393867">
  <ele>-0.12</ele>
  <time>2026-09-01T01:12:48Z</time>
  <course>0.0</course>
  <speed>0.0</speed>
  <fix>3d</fix>
</trkpt>
<trkpt lat="33.810313" lon="-118.393867">
  <ele>-0.135</ele>
  <time>2026-09-01T01:12:48Z</time>
  <course>188.09</course>
  <speed>0.01414213562373095</speed>
  <fix>3d</fix>
</trkpt>
<trkpt lat="33.810313" lon="-118.393867">
  <ele>-0.12</ele>
  <time>2026-09-01T01:12:48Z</time>
  <course>0.0</course>
  <speed>0.0</speed>
  <fix>3d</fix>
</trkpt>
<trkpt lat="33.810313" lon="-118.393867">
  <ele>-0.134</ele>
  <time>2026-09-01T01:12:48Z</time>
  <course>188.08</course>
  <speed>0.01414213562373095</speed>
  <fix>3d</fix>
</trkpt>
<trkpt lat="33.810313" lon="-118.393867">
  <ele>-0.12</ele>
  <time>2026-09-01T01:12:48Z</time>
  <course>0.0</course>
  <speed>0.0</speed>
  <fix>3d</fix>
</trkpt>
<trkpt lat="33.810313" lon="-118.393867">
  <ele>-0.131</ele>
  <time>2026-09-01T01:12:48Z</time>
  <course>188.07</course>
  <speed>0.022360679774997897</speed>
  <fix>3d</fix>
</trkpt>
<trkpt lat="33.810313" lon="-118.393867">
  <ele>-0.12</ele>
  <time>2026-09-01T01:12:48Z</time>
  <course>0.0</course>
  <speed>0.0</speed>
  <fix>3d</fix>
</trkpt>
<trkpt lat="33.810313" lon="-118.393867">
  <ele>-0.128</ele>
  <time>2026-09-01T01:12:48Z</time>
  <course>188.07</course>
  <speed>0.022360679774997897</speed>
  <fix>3d</fix>
</trkpt>
<trkpt lat="33.810313" lon="-118.393867">
  <ele>-0.12</ele>
  <time>2026-09-01T01:12:48Z</time>
  <course>0.0</course>
  <speed>0.0</speed>
  <fix>3d</fix>
</trkpt>
<trkpt lat="33.810313" lon="-118.393867">
  <ele>-0.127</ele>
  <time>2026-09-01T01:12:48Z</time>
  <course>188.06</course>
  <speed>0.022360679774997897</speed>
  <fix>3d</fix>
</trkpt>
<trkpt lat="33.810313" lon="-118.393867">
  <ele>-0.12</ele>
  <time>2026-09-01T01:12:48Z</time>
  <course>0.0</course>
  <speed>0.0</speed>
  <fix>3d</fix>
</trkpt>
<trkpt lat="33.810313" lon="-118.393867">
  <ele>-0.126</ele>
  <time>2026-09-01T01:12:48Z</time>
  <course>188.05</course>
  <speed>0.022360679774997897</speed>
  <fix>3d</fix>
</trkpt>
<trkpt lat="33.810313" lon="-118.393867">
  <ele>-0.12</ele>
  <time>2026-09-01T01:12:48Z</time>
  <course>0.0</course>
  <speed>0.0</speed>
  <fix>3d</fix>
</trkpt>
<trkpt lat="33.810313" lon="-118.393867">
  <ele>-0.126</ele>
  <time>2026-09-01T01:12:48Z</time>
  <course>188.04</course>
  <speed>0.022360679774997897</speed>
  <fix>3d</fix>
</trkpt>
<trkpt lat="33.810313" lon="-118.393867">
  <ele>-0.12</ele>
  <time>2026-09-01T01:12:48Z</time>
  <course>0.0</course>
  <speed>0.0</speed>
  <fix>3d</fix>
</trkpt>
<trkpt lat="33.810313" lon="-118.393867">
  <ele>-0.127</ele>
  <time>2026-09-01T01:12:48Z</time>
  <course>188.03</course>
  <speed>0.022360679774997897</speed>
  <fix>3d</fix>
</trkpt>
<trkpt lat="33.810313" lon="-118.393867">
  <ele>-0.12</ele>
  <time>2026-09-01T01:12:48Z</time>
  <course>0.0</course>
  <speed>0.0</speed>
  <fix>3d</fix>
</trkpt>
<trkpt lat="33.810313" lon="-118.393867">
  <ele>-0.127</ele>
  <time>2026-09-01T01:12:48Z</time>
  <course>188.03</course>
  <speed>0.022360679774997897</speed>
  <fix>3d</fix>
</trkpt>
<trkpt lat="33.810313" lon="-118.393867">
  <ele>-0.12</ele>
  <time>2026-09-01T01:12:48Z</time>
  <course>0.0</course>
  <speed>0.0</speed>
  <fix>3d</fix>
</trkpt>
<trkpt lat="33.810313" lon="-118.393867">
  <ele>-0.127</ele>
  <time>2026-09-01T01:12:48Z</time>
  <course>188.02</course>
  <speed>0.022360679774997897</speed>
  <fix>3d</fix>
</trkpt>
<trkpt lat="33.810313" lon="-118.393867">
  <ele>-0.12</ele>
  <time>2026-09-01T01:12:48Z</time>
  <course>0.0</course>
  <speed>0.0</speed>
  <fix>3d</fix>
</trkpt>
<trkpt lat="33.810313" lon="-118.393867">
  <ele>-0.128</ele>
  <time>2026-09-01T01:12:48Z</time>
  <course>188.01</course>
  <speed>0.022360679774997897</speed>
  <fix>3d</fix>
</trkpt>
<trkpt lat="33.810313" lon="-118.393867">
  <ele>-0.12</ele>
  <time>2026-09-01T01:12:48Z</time>
  <course>0.0</course>
  <speed>0.0</speed>
  <fix>3d</fix>
</trkpt>
<trkpt lat="33.810313" lon="-118.393867">
  <ele>-0.128</ele>
  <time>2026-09-01T01:12:48Z</time>
  <course>188.0</course>
  <speed>0.022360679774997897</speed>
  <fix>3d</fix>
</trkpt>
<trkpt lat="33.810313" lon="-118.393867">
  <ele>-0.12</ele>
  <time>2026-09-01T01:12:48Z</time>
  <course>0.0</course>
  <speed>0.0</speed>
  <fix>3d</fix>
</trkpt>
<trkpt lat="33.810313" lon="-118.393867">
  <ele>-0.128</ele>
  <time>2026-09-01T01:12:48Z</time>
  <course>187.99</course>
  <speed>0.022360679774997897</speed>
  <fix>3d</fix>
</trkpt>
<trkpt lat="33.810313" lon="-118.393867">
  <ele>-0.12</ele>
  <time>2026-09-01T01:12:48Z</time>
  <course>0.0</course>
  <speed>0.0</speed>
  <fix>3d</fix>
</trkpt>
<trkpt lat="33.810313" lon="-118.393867">
  <ele>-0.126</ele>
  <time>2026-09-01T01:12:48Z</time>
  <course>187.99</course>
  <speed>0.022360679774997897</speed>
  <fix>3d</fix>
</trkpt>
<trkpt lat="33.810313" lon="-118.393867">
  <ele>-0.12</ele>
  <time>2026-09-01T01:12:48Z</time>
  <course>0.0</course>
  <speed>0.0</speed>
  <fix>3d</fix>
</trkpt>
<trkpt lat="33.810313" lon="-118.393867">
  <ele>-0.124</ele>
  <time>2026-09-01T01:12:48Z</time>
  <course>187.98</course>
  <speed>0.022360679774997897</speed>
  <fix>3d</fix>
</trkpt>
<trkpt lat="33.810313" lon="-118.393867">
  <ele>-0.12</ele>
  <time>2026-09-01T01:12:48Z</time>
  <course>0.0</course>
  <speed>0.0</speed>
  <fix>3d</fix>
</trkpt>
<trkpt lat="33.810313" lon="-118.393867">
  <ele>-0.122</ele>
  <time>2026-09-01T01:12:48Z</time>
  <course>187.97</course>
  <speed>0.022360679774997897</speed>
  <fix>3d</fix>
</trkpt>
<trkpt lat="33.810313" lon="-118.393867">
  <ele>-0.12</ele>
  <time>2026-09-01T01:12:48Z</time>
  <course>0.0</course>
  <speed>0.0</speed>
  <fix>3d</fix>
</trkpt>
<trkpt lat="33.810313" lon="-118.393867">
  <ele>-0.12</ele>
  <time>2026-09-01T01:12:48Z</time>
  <course>187.96</course>
  <speed>0.022360679774997897</speed>
  <fix>3d</fix>
</trkpt>
<trkpt lat="33.810313" lon="-118.393867">
  <ele>-0.12</ele>
  <time>2026-09-01T01:12:48Z</time>
  <course>0.0</course>
  <speed>0.0</speed>
  <fix>3d</fix>
</trkpt>
<trkpt lat="33.810313" lon="-118.393867">
  <ele>-0.12</ele>
  <time>2026-09-01T01:12:48Z</time>
  <course>187.95</course>
  <speed>0.022360679774997897</speed>
  <fix>3d</fix>
</trkpt>
<trkpt lat="33.810313" lon="-118.393867">
  <ele>-0.12</ele>
  <time>2026-09-01T01:12:48Z</time>
  <course>0.0</course>
  <speed>0.0</speed>
  <fix>3d</fix>
</trkpt>
<trkpt lat="33.810313" lon="-118.393867">
  <ele>-0.122</ele>
  <time>2026-09-01T01:12:48Z</time>
  <course>187.94</course>
  <speed>0.022360679774997897</speed>
  <fix>3d</fix>
</trkpt>
<trkpt lat="33.810313" lon="-118.393867">
  <ele>-0.12</ele>
  <time>2026-09-01T01:12:48Z</time>
  <course>0.0</course>
  <speed>0.0</speed>
  <fix>3d</fix>
</trkpt>
<trkpt lat="33.810313" lon="-118.393867">
  <ele>-0.125</ele>
  <time>2026-09-01T01:12:48Z</time>
  <course>187.94</course>
  <speed>0.022360679774997897</speed>
  <fix>3d</fix>
</trkpt>
<trkpt lat="33.810313" lon="-118.393867">
  <ele>-0.12</ele>
  <time>2026-09-01T01:12:48Z</time>
  <course>0.0</course>
  <speed>0.0</speed>
  <fix>3d</fix>
</trkpt>
<trkpt lat="33.810313" lon="-118.393867">
  <ele>-0.128</ele>
  <time>2026-09-01T01:12:48Z</time>
  <course>187.93</course>
  <speed>0.022360679774997897</speed>
  <fix>3d</fix>
</trkpt>
<trkpt lat="33.810313" lon="-118.393867">
  <ele>-0.12</ele>
  <time>2026-09-01T01:12:48Z</time>
  <course>0.0</course>
  <speed>0.0</speed>
  <fix>3d</fix>
</trkpt>
<trkpt lat="33.810313" lon="-118.393867">
  <ele>-0.131</ele>
  <time>2026-09-01T01:12:48Z</time>
  <course>187.92</course>
  <speed>0.022360679774997897</speed>
  <fix>3d</fix>
</trkpt>
<trkpt lat="33.810313" lon="-118.393867">
  <ele>-0.12</ele>
  <time>2026-09-01T01:12:48Z</time>
  <course>0.0</course>
  <speed>0.0</speed>
  <fix>3d</fix>
</trkpt>
<trkpt lat="33.810313" lon="-118.393867">
  <ele>-0.132</ele>
  <time>2026-09-01T01:12:48Z</time>
  <course>187.91</course>
  <speed>0.022360679774997897</speed>
  <fix>3d</fix>
</trkpt>
<trkpt lat="33.810313" lon="-118.393867">
  <ele>-0.12</ele>
  <time>2026-09-01T01:12:48Z</time>
  <course>0.0</course>
  <speed>0.0</speed>
  <fix>3d</fix>
</trkpt>
<trkpt lat="33.810313" lon="-118.393867">
  <ele>-0.132</ele>
  <time>2026-09-01T01:12:48Z</time>
  <course>187.91</course>
  <speed>0.022360679774997897</speed>
  <fix>3d</fix>
</trkpt>
<trkpt lat="33.810313" lon="-118.393867">
  <ele>-0.12</ele>
  <time>2026-09-01T01:12:48Z</time>
  <course>0.0</course>
  <speed>0.0</speed>
  <fix>3d</fix>
</trkpt>
<trkpt lat="33.810313" lon="-118.393867">
  <ele>-0.132</ele>
  <time>2026-09-01T01:12:48Z</time>
  <course>187.9</course>
  <speed>0.022360679774997897</speed>
  <fix>3d</fix>
</trkpt>
<trkpt lat="33.810313" lon="-118.393867">
  <ele>-0.12</ele>
  <time>2026-09-01T01:12:48Z</time>
  <course>0.0</course>
  <speed>0.0</speed>
  <fix>3d</fix>
</trkpt>
<trkpt lat="33.810313" lon="-118.393867">
  <ele>-0.13</ele>
  <time>2026-09-01T01:12:48Z</time>
  <course>187.89</course>
  <speed>0.022360679774997897</speed>
  <fix>3d</fix>
</trkpt>
<trkpt lat="33.810313" lon="-118.393867">
  <ele>-0.12</ele>
  <time>2026-09-01T01:12:48Z</time>
  <course>0.0</course>
  <speed>0.0</speed>
  <fix>3d</fix>
</trkpt>
<trkpt lat="33.810313" lon="-118.393867">
  <ele>-0.127</ele>
  <time>2026-09-01T01:12:48Z</time>
  <course>187.88</course>
  <speed>0.022360679774997897</speed>
  <fix>3d</fix>
</trkpt>
<trkpt lat="33.810313" lon="-118.393867">
  <ele>-0.12</ele>
  <time>2026-09-01T01:12:48Z</time>
  <course>0.0</course>
  <speed>0.0</speed>
  <fix>3d</fix>
</trkpt>
<trkpt lat="33.810313" lon="-118.393867">
  <ele>-0.123</ele>
  <time>2026-09-01T01:12:48Z</time>
  <course>187.87</course>
  <speed>0.022360679774997897</speed>
  <fix>3d</fix>
</trkpt>
<trkpt lat="33.810313" lon="-118.393867">
  <ele>-0.12</ele>
  <time>2026-09-01T01:12:48Z</time>
  <course>0.0</course>
  <speed>0.0</speed>
  <fix>3d</fix>
</trkpt>
<trkpt lat="33.810313" lon="-118.393867">
  <ele>-0.121</ele>
  <time>2026-09-01T01:12:48Z</time>
  <course>187.87</course>
  <speed>0.022360679774997897</speed>
  <fix>3d</fix>
</trkpt>
<trkpt lat="33.810313" lon="-118.393867">
  <ele>-0.12</ele>
  <time>2026-09-01T01:12:48Z</time>
  <course>0.0</course>
  <speed>0.0</speed>
  <fix>3d</fix>
</trkpt>
<trkpt lat="33.810313" lon="-118.393867">
  <ele>-0.121</ele>
  <time>2026-09-01T01:12:48Z</time>
  <course>187.86</course>
  <speed>0.022360679774997897</speed>
  <fix>3d</fix>
</trkpt>
<trkpt lat="33.810313" lon="-118.393867">
  <ele>-0.12</ele>
  <time>2026-09-01T01:12:48Z</time>
  <course>0.0</course>
  <speed>0.0</speed>
  <fix>3d</fix>
</trkpt>
<trkpt lat="33.810313" lon="-118.393867">
  <ele>-0.123</ele>
  <time>2026-09-01T01:12:48Z</time>
  <course>187.85</course>
  <speed>0.022360679774997897</speed>
  <fix>3d</fix>
</trkpt>
<trkpt lat="33.810313" lon="-118.393867">
  <ele>-0.12</ele>
  <time>2026-09-01T01:12:48Z</time>
  <course>0.0</course>
  <speed>0.0</speed>
  <fix>3d</fix>
</trkpt>
<trkpt lat="33.810313" lon="-118.393867">
  <ele>-0.124</ele>
  <time>2026-09-01T01:12:48Z</time>
  <course>187.84</course>
  <speed>0.022360679774997897</speed>
  <fix>3d</fix>
</trkpt>
<trkpt lat="33.810313" lon="-118.393867">
  <ele>-0.12</ele>
  <time>2026-09-01T01:12:48Z</time>
  <course>0.0</course>
  <speed>0.0</speed>
  <fix>3d</fix>
</trkpt>
<trkpt lat="33.810313" lon="-118.393867">
  <ele>-0.126</ele>
  <time>2026-09-01T01:12:48Z</time>
  <course>187.83</course>
  <speed>0.022360679774997897</speed>
  <fix>3d</fix>
</trkpt>
<trkpt lat="33.810313" lon="-118.393867">
  <ele>-0.12</ele>
  <time>2026-09-01T01:12:48Z</time>
  <course>0.0</course>
  <speed>0.0</speed>
  <fix>3d</fix>
</trkpt>
<trkpt lat="33.810313" lon="-118.393867">
  <ele>-0.127</ele>
  <time>2026-09-01T01:12:48Z</time>
  <course>187.83</course>
  <speed>0.022360679774997897</speed>
  <fix>3d</fix>
</trkpt>
<trkpt lat="33.810313" lon="-118.393867">
  <ele>-0.12</ele>
  <time>2026-09-01T01:12:48Z</time>
  <course>0.0</course>
  <speed>0.0</speed>
  <fix>3d</fix>
</trkpt>
<trkpt lat="33.810313" lon="-118.393867">
  <ele>-0.127</ele>
  <time>2026-09-01T01:12:48Z</time>
  <course>187.82</course>
  <speed>0.022360679774997897</speed>
  <fix>3d</fix>
</trkpt>
<trkpt lat="33.810313" lon="-118.393867">
  <ele>-0.12</ele>
  <time>2026-09-01T01:12:48Z</time>
  <course>0.0</course>
  <speed>0.0</speed>
  <fix>3d</fix>
</trkpt>
<trkpt lat="33.810313" lon="-118.393867">
  <ele>-0.127</ele>
  <time>2026-09-01T01:12:48Z</time>
  <course>187.81</course>
  <speed>0.022360679774997897</speed>
  <fix>3d</fix>
</trkpt>
<trkpt lat="33.810313" lon="-118.393867">
  <ele>-0.12</ele>
  <time>2026-09-01T01:12:48Z</time>
  <course>0.0</course>
  <speed>0.0</speed>
  <fix>3d</fix>
</trkpt>
<trkpt lat="33.810313" lon="-118.393867">
  <ele>-0.126</ele>
  <time>2026-09-01T01:12:48Z</time>
  <course>187.8</course>
  <speed>0.022360679774997897</speed>
  <fix>3d</fix>
</trkpt>
<trkpt lat="33.810313" lon="-118.393867">
  <ele>-0.12</ele>
  <time>2026-09-01T01:12:48Z</time>
  <course>0.0</course>
  <speed>0.0</speed>
  <fix>3d</fix>
</trkpt>
<trkpt lat="33.810313" lon="-118.393867">
  <ele>-0.124</ele>
  <time>2026-09-01T01:12:48Z</time>
  <course>187.8</course>
  <speed>0.022360679774997897</speed>
  <fix>3d</fix>
</trkpt>
<trkpt lat="33.810313" lon="-118.393867">
  <ele>-0.12</ele>
  <time>2026-09-01T01:12:48Z</time>
  <course>0.0</course>
  <speed>0.0</speed>
  <fix>3d</fix>
</trkpt>
<trkpt lat="33.810313" lon="-118.393867">
  <ele>-0.121</ele>
  <time>2026-09-01T01:12:48Z</time>
  <course>187.79</course>
  <speed>0.022360679774997897</speed>
  <fix>3d</fix>
</trkpt>
<trkpt lat="33.810313" lon="-118.393867">
  <ele>-0.12</ele>
  <time>2026-09-01T01:12:48Z</time>
  <course>0.0</course>
  <speed>0.0</speed>
  <fix>3d</fix>
</trkpt>
<trkpt lat="33.810313" lon="-118.393867">
  <ele>-0.119</ele>
  <time>2026-09-01T01:12:48Z</time>
  <course>187.78</course>
  <speed>0.022360679774997897</speed>
  <fix>3d</fix>
</trkpt>
<trkpt lat="33.810313" lon="-118.393867">
  <ele>-0.12</ele>
  <time>2026-09-01T01:12:48Z</time>
  <course>0.0</course>
  <speed>0.0</speed>
  <fix>3d</fix>
</trkpt>
<trkpt lat="33.810313" lon="-118.393867">
  <ele>-0.118</ele>
  <time>2026-09-01T01:12:48Z</time>
  <course>187.77</course>
  <speed>0.022360679774997897</speed>
  <fix>3d</fix>
</trkpt>
<trkpt lat="33.810313" lon="-118.393867">
  <ele>-0.12</ele>
  <time>2026-09-01T01:12:48Z</time>
  <course>0.0</course>
  <speed>0.0</speed>
  <fix>3d</fix>
</trkpt>
<trkpt lat="33.810313" lon="-118.393867">
  <ele>-0.118</ele>
  <time>2026-09-01T01:12:48Z</time>
  <course>187.77</course>
  <speed>0.022360679774997897</speed>
  <fix>3d</fix>
</trkpt>
<trkpt lat="33.810313" lon="-118.393867">
  <ele>-0.12</ele>
  <time>2026-09-01T01:12:48Z</time>
  <course>0.0</course>
  <speed>0.0</speed>
  <fix>3d</fix>
</trkpt>
<trkpt lat="33.810313" lon="-118.393867">
  <ele>-0.119</ele>
  <time>2026-09-01T01:12:48Z</time>
  <course>187.76</course>
  <speed>0.022360679774997897</speed>
  <fix>3d</fix>
</trkpt>
<trkpt lat="33.810313" lon="-118.393867">
  <ele>-0.12</ele>
  <time>2026-09-01T01:12:48Z</time>
  <course>0.0</course>
  <speed>0.0</speed>
  <fix>3d</fix>
</trkpt>
<trkpt lat="33.810313" lon="-118.393867">
  <ele>-0.12</ele>
  <time>2026-09-01T01:12:48Z</time>
  <course>187.75</course>
  <speed>0.022360679774997897</speed>
  <fix>3d</fix>
</trkpt>
<trkpt lat="33.810313" lon="-118.393867">
  <ele>-0.12</ele>
  <time>2026-09-01T01:12:48Z</time>
  <course>0.0</course>
  <speed>0.0</speed>
  <fix>3d</fix>
</trkpt>
<trkpt lat="33.810313" lon="-118.393867">
  <ele>-0.12</ele>
  <time>2026-09-01T01:12:48Z</time>
  <course>187.74</course>
  <speed>0.0282842712474619</speed>
  <fix>3d</fix>
</trkpt>
<trkpt lat="33.810313" lon="-118.393867">
  <ele>-0.12</ele>
  <time>2026-09-01T01:12:48Z</time>
  <course>0.0</course>
  <speed>0.0</speed>
  <fix>3d</fix>
</trkpt>
<trkpt lat="33.810313" lon="-118.393867">
  <ele>-0.12</ele>
  <time>2026-09-01T01:12:48Z</time>
  <course>187.74</course>
  <speed>0.0282842712474619</speed>
  <fix>3d</fix>
</trkpt>
<trkpt lat="33.810313" lon="-118.393867">
  <ele>-0.12</ele>
  <time>2026-09-01T01:12:48Z</time>
  <course>0.0</course>
  <speed>0.0</speed>
  <fix>3d</fix>
</trkpt>
<trkpt lat="33.810313" lon="-118.393867">
  <ele>-0.119</ele>
  <time>2026-09-01T01:12:48Z</time>
  <course>187.73</course>
  <speed>0.0282842712474619</speed>
  <fix>3d</fix>
</trkpt>
<trkpt lat="33.810313" lon="-118.393867">
  <ele>-0.12</ele>
  <time>2026-09-01T01:12:48Z</time>
  <course>0.0</course>
  <speed>0.0</speed>
  <fix>3d</fix>
</trkpt>
<trkpt lat="33.810313" lon="-118.393867">
  <ele>-0.118</ele>
  <time>2026-09-01T01:12:48Z</time>
  <course>187.72</course>
  <speed>0.0282842712474619</speed>
  <fix>3d</fix>
</trkpt>
<trkpt lat="33.810313" lon="-118.393867">
  <ele>-0.12</ele>
  <time>2026-09-01T01:12:48Z</time>
  <course>0.0</course>
  <speed>0.0</speed>
  <fix>3d</fix>
</trkpt>
<trkpt lat="33.810313" lon="-118.393867">
  <ele>-0.116</ele>
  <time>2026-09-01T01:12:48Z</time>
  <course>187.71</course>
  <speed>0.0282842712474619</speed>
  <fix>3d</fix>
</trkpt>
<trkpt lat="33.810313" lon="-118.393867">
  <ele>-0.12</ele>
  <time>2026-09-01T01:12:48Z</time>
  <course>0.0</course>
  <speed>0.0</speed>
  <fix>3d</fix>
</trkpt>
<trkpt lat="33.810313" lon="-118.393867">
  <ele>-0.114</ele>
  <time>2026-09-01T01:12:48Z</time>
  <course>187.71</course>
  <speed>0.0282842712474619</speed>
  <fix>3d</fix>
</trkpt>
<trkpt lat="33.810313" lon="-118.393867">
  <ele>-0.12</ele>
  <time>2026-09-01T01:12:48Z</time>
  <course>0.0</course>
  <speed>0.0</speed>
  <fix>3d</fix>
</trkpt>
<trkpt lat="33.810313" lon="-118.393867">
  <ele>-0.112</ele>
  <time>2026-09-01T01:12:48Z</time>
  <course>187.7</course>
  <speed>0.0282842712474619</speed>
  <fix>3d</fix>
</trkpt>
<trkpt lat="33.810313" lon="-118.393867">
  <ele>-0.12</ele>
  <time>2026-09-01T01:12:48Z</time>
  <course>0.0</course>
  <speed>0.0</speed>
  <fix>3d</fix>
</trkpt>
<trkpt lat="33.810313" lon="-118.393867">
  <ele>-0.113</ele>
  <time>2026-09-01T01:12:48Z</time>
  <course>187.69</course>
  <speed>0.0282842712474619</speed>
  <fix>3d</fix>
</trkpt>
<trkpt lat="33.810313" lon="-118.393867">
  <ele>-0.12</ele>
  <time>2026-09-01T01:12:48Z</time>
  <course>0.0</course>
  <speed>0.0</speed>
  <fix>3d</fix>
</trkpt>
<trkpt lat="33.4368002" lon="-117.0859339">
  <ele>-0.11</ele>
  <time>2026-09-01T01:12:48Z</time>
  <course>0.0</course>
  <speed>0.0</speed>
  <fix>3d</fix>
</trkpt>
<trkpt lat="33.4368002" lon="-117.0859339">
  <ele>-0.11</ele>
  <time>2026-09-01T01:12:48Z</time>
  <course>0.0</course>
  <speed>0.0</speed>
  <fix>3d</fix>
</trkpt>
<trkpt lat="33.810313" lon="-118.393867">
  <ele>0.0</ele>
  <time>2026-09-01T01:12:48Z</time>
  <course>173.5</course>
  <speed>0.0</speed>
  <fix>3d</fix>
</trkpt>
<trkpt lat="33.810313" lon="-118.393867">
  <ele>-0.11</ele>
  <time>2026-09-01T01:12:48Z</time>
  <course>0.0</course>
  <speed>0.0</speed>
  <fix>3d</fix>
</trkpt>
<trkpt lat="33.810313" lon="-118.393867">
  <ele>0.0</ele>
  <time>2026-09-01T01:12:48Z</time>
  <course>173.61</course>
  <speed>0.0</speed>
  <fix>3d</fix>
</trkpt>
<trkpt lat="33.810313" lon="-118.393867">
  <ele>-0.11</ele>
  <time>2026-09-01T01:12:48Z</time>
  <course>0.0</course>
  <speed>0.0</speed>
  <fix>3d</fix>
</trkpt>
<trkpt lat="33.810313" lon="-118.393867">
  <ele>0.0</ele>
  <time>2026-09-01T01:12:48Z</time>
  <course>173.98</course>
  <speed>0.0</speed>
  <fix>3d</fix>
</trkpt>
<trkpt lat="33.810313" lon="-118.393867">
  <ele>-0.11</ele>
  <time>2026-09-01T01:12:48Z</time>
  <course>0.0</course>
  <speed>0.0</speed>
  <fix>3d</fix>
</trkpt>
<trkpt lat="33.810313" lon="-118.393867">
  <ele>0.0</ele>
  <time>2026-09-01T01:12:48Z</time>
  <course>174.51</course>
  <speed>0.0</speed>
  <fix>3d</fix>
</trkpt>
<trkpt lat="33.810313" lon="-118.393867">
  <ele>-0.11</ele>
  <time>2026-09-01T01:12:48Z</time>
  <course>0.0</course>
  <speed>0.0</speed>
  <fix>3d</fix>
</trkpt>
<trkpt lat="33.810313" lon="-118.393867">
  <ele>0.0</ele>
  <time>2026-09-01T01:12:48Z</time>
  <course>175.07</course>
  <speed>0.0</speed>
  <fix>3d</fix>
</trkpt>
<trkpt lat="33.810313" lon="-118.393867">
  <ele>-0.12</ele>
  <time>2026-09-01T01:12:48Z</time>
  <course>0.0</course>
  <speed>0.0</speed>
  <fix>3d</fix>
</trkpt>
<trkpt lat="33.810313" lon="-118.393867">
  <ele>0.0</ele>
  <time>2026-09-01T01:12:48Z</time>
  <course>175.61</course>
  <speed>0.0</speed>
  <fix>3d</fix>
</trkpt>
<trkpt lat="33.810313" lon="-118.393867">
  <ele>-0.12</ele>
  <time>2026-09-01T01:12:48Z</time>
  <course>0.0</course>
  <speed>0.0</speed>
  <fix>3d</fix>
</trkpt>
<trkpt lat="33.810313" lon="-118.393867">
  <ele>0.0</ele>
  <time>2026-09-01T01:12:48Z</time>
  <course>176.12</course>
  <speed>0.0</speed>
  <fix>3d</fix>
</trkpt>
<trkpt lat="33.810313" lon="-118.393867">
  <ele>-0.13</ele>
  <time>2026-09-01T01:12:48Z</time>
  <course>0.0</course>
  <speed>0.0</speed>
  <fix>3d</fix>
</trkpt>
<trkpt lat="33.810313" lon="-118.393867">
  <ele>0.0</ele>
  <time>2026-09-01T01:12:48Z</time>
  <course>176.6</course>
  <speed>0.0</speed>
  <fix>3d</fix>
</trkpt>
<trkpt lat="33.810313" lon="-118.393867">
  <ele>-0.13</ele>
  <time>2026-09-01T01:12:48Z</time>
  <course>0.0</course>
  <speed>0.0</speed>
  <fix>3d</fix>
</trkpt>
<trkpt lat="33.810313" lon="-118.393867">
  <ele>0.0</ele>
  <time>2026-09-01T01:12:48Z</time>
  <course>177.07</course>
  <speed>0.0</speed>
  <fix>3d</fix>
</trkpt>
<trkpt lat="33.810313" lon="-118.393867">
  <ele>-0.13</ele>
  <time>2026-09-01T01:12:48Z</time>
  <course>0.0</course>
  <speed>0.0</speed>
  <fix>3d</fix>
</trkpt>
<trkpt lat="33.810313" lon="-118.393867">
  <ele>0.0</ele>
  <time>2026-09-01T01:12:48Z</time>
  <course>177.53</course>
  <speed>0.0</speed>
  <fix>3d</fix>
</trkpt>
<trkpt lat="33.810313" lon="-118.393867">
  <ele>-0.13</ele>
  <time>2026-09-01T01:12:48Z</time>
  <course>0.0</course>
  <speed>0.0</speed>
  <fix>3d</fix>
</trkpt>
<trkpt lat="33.810313" lon="-118.393867">
  <ele>0.0</ele>
  <time>2026-09-01T01:12:48Z</time>
  <course>177.97</course>
  <speed>0.0</speed>
  <fix>3d</fix>
</trkpt>
<trkpt lat="33.810313" lon="-118.393867">
  <ele>-0.14</ele>
  <time>2026-09-01T01:12:48Z</time>
  <course>0.0</course>
  <speed>0.0</speed>
  <fix>3d</fix>
</trkpt>
<trkpt lat="33.810313" lon="-118.393867">
  <ele>0.0</ele>
  <time>2026-09-01T01:12:48Z</time>
  <course>178.4</course>
  <speed>0.0</speed>
  <fix>3d</fix>
</trkpt>
<trkpt lat="33.810313" lon="-118.393867">
  <ele>-0.14</ele>
  <time>2026-09-01T01:12:48Z</time>
  <course>0.0</course>
  <speed>0.0</speed>
  <fix>3d</fix>
</trkpt>
<trkpt lat="33.810313" lon="-118.393867">
  <ele>0.0</ele>
  <time>2026-09-01T01:12:48Z</time>
  <course>178.83</course>
  <speed>0.0</speed>
  <fix>3d</fix>
</trkpt>
<trkpt lat="33.810313" lon="-118.393867">
  <ele>-0.14</ele>
  <time>2026-09-01T01:12:48Z</time>
  <course>0.0</course>
  <speed>0.0</speed>
  <fix>3d</fix>
</trkpt>
<trkpt lat="33.810313" lon="-118.393867">
  <ele>0.0</ele>
  <time>2026-09-01T01:12:48Z</time>
  <course>179.23</course>
  <speed>0.0</speed>
  <fix>3d</fix>
</trkpt>
<trkpt lat="33.810313" lon="-118.393867">
  <ele>-0.14</ele>
  <time>2026-09-01T01:12:48Z</time>
  <course>0.0</course>
  <speed>0.0</speed>
  <fix>3d</fix>
</trkpt>
<trkpt lat="33.810313" lon="-118.393867">
  <ele>0.0</ele>
  <time>2026-09-01T01:12:48Z</time>
  <course>179.62</course>
  <speed>0.0</speed>
  <fix>3d</fix>
</trkpt>
<trkpt lat="33.810313" lon="-118.393867">
  <ele>-0.14</ele>
  <time>2026-09-01T01:12:48Z</time>
  <course>0.0</course>
  <speed>0.0</speed>
  <fix>3d</fix>
</trkpt>
<trkpt lat="33.810313" lon="-118.393867">
  <ele>0.0</ele>
  <time>2026-09-01T01:12:48Z</time>
  <course>180.01</course>
  <speed>0.0</speed>
  <fix>3d</fix>
</trkpt>
<trkpt lat="33.810313" lon="-118.393867">
  <ele>-0.14</ele>
  <time>2026-09-01T01:12:48Z</time>
  <course>0.0</course>
  <speed>0.0</speed>
  <fix>3d</fix>
</trkpt>
<trkpt lat="33.810313" lon="-118.393867">
  <ele>0.0</ele>
  <time>2026-09-01T01:12:48Z</time>
  <course>180.37</course>
  <speed>0.0</speed>
  <fix>3d</fix>
</trkpt>
<trkpt lat="33.810313" lon="-118.393867">
  <ele>-0.14</ele>
  <time>2026-09-01T01:12:48Z</time>
  <course>0.0</course>
  <speed>0.0</speed>
  <fix>3d</fix>
</trkpt>
<trkpt lat="33.810313" lon="-118.393867">
  <ele>0.0</ele>
  <time>2026-09-01T01:12:48Z</time>
  <course>180.73</course>
  <speed>0.0</speed>
  <fix>3d</fix>
</trkpt>
<trkpt lat="33.810313" lon="-118.393867">
  <ele>-0.14</ele>
  <time>2026-09-01T01:12:49Z</time>
  <course>0.0</course>
  <speed>0.0</speed>
  <fix>3d</fix>
</trkpt>
<trkpt lat="33.810313" lon="-118.393867">
  <ele>0.0</ele>
  <time>2026-09-01T01:12:49Z</time>
  <course>181.07</course>
  <speed>0.0</speed>
  <fix>3d</fix>
</trkpt>
<trkpt lat="33.810313" lon="-118.393867">
  <ele>-0.13</ele>
  <time>2026-09-01T01:12:49Z</time>
  <course>0.0</course>
  <speed>0.0</speed>
  <fix>3d</fix>
</trkpt>
<trkpt lat="33.810313" lon="-118.393867">
  <ele>0.0</ele>
  <time>2026-09-01T01:12:49Z</time>
  <course>181.4</course>
  <speed>0.0</speed>
  <fix>3d</fix>
</trkpt>
<trkpt lat="33.810313" lon="-118.393867">
  <ele>-0.13</ele>
  <time>2026-09-01T01:12:49Z</time>
  <course>0.0</course>
  <speed>0.0</speed>
  <fix>3d</fix>
</trkpt>
<trkpt lat="33.810313" lon="-118.393867">
  <ele>0.0</ele>
  <time>2026-09-01T01:12:49Z</time>
  <course>181.72</course>
  <speed>0.0</speed>
  <fix>3d</fix>
</trkpt>
<trkpt lat="33.810313" lon="-118.393867">
  <ele>-0.12</ele>
  <time>2026-09-01T01:12:49Z</time>
  <course>0.0</course>
  <speed>0.0</speed>
  <fix>3d</fix>
</trkpt>
<trkpt lat="33.810313" lon="-118.393867">
  <ele>0.0</ele>
  <time>2026-09-01T01:12:49Z</time>
  <course>182.02</course>
  <speed>0.0</speed>
  <fix>3d</fix>
</trkpt>
<trkpt lat="33.810313" lon="-118.393867">
  <ele>-0.12</ele>
  <time>2026-09-01T01:12:49Z</time>
  <course>0.0</course>
  <speed>0.0</speed>
  <fix>3d</fix>
</trkpt>
<trkpt lat="33.810313" lon="-118.393867">
  <ele>0.0</ele>
  <time>2026-09-01T01:12:49Z</time>
  <course>182.32</course>
  <speed>0.0</speed>
  <fix>3d</fix>
</trkpt>
<trkpt lat="33.810313" lon="-118.393867">
  <ele>-0.12</ele>
  <time>2026-09-01T01:12:49Z</time>
  <course>0.0</course>
  <speed>0.0</speed>
  <fix>3d</fix>
</trkpt>
<trkpt lat="33.810313" lon="-118.393867">
  <ele>0.0</ele>
  <time>2026-09-01T01:12:49Z</time>
  <course>182.6</course>
  <speed>0.0</speed>
  <fix>3d</fix>
</trkpt>
<trkpt lat="33.810313" lon="-118.393867">
  <ele>-0.12</ele>
  <time>2026-09-01T01:12:49Z</time>
  <course>0.0</course>
  <speed>0.0</speed>
  <fix>3d</fix>
</trkpt>
<trkpt lat="33.810313" lon="-118.393867">
  <ele>0.0</ele>
  <time>2026-09-01T01:12:49Z</time>
  <course>182.87</course>
  <speed>0.0</speed>
  <fix>3d</fix>
</trkpt>
<trkpt lat="33.810313" lon="-118.393867">
  <ele>-0.11</ele>
  <time>2026-09-01T01:12:49Z</time>
  <course>0.0</course>
  <speed>0.0</speed>
  <fix>3d</fix>
</trkpt>
<trkpt lat="33.810313" lon="-118.393867">
  <ele>0.0</ele>
  <time>2026-09-01T01:12:49Z</time>
  <course>183.14</course>
  <speed>0.0</speed>
  <fix>3d</fix>
</trkpt>
<trkpt lat="33.810313" lon="-118.393867">
  <ele>-0.11</ele>
  <time>2026-09-01T01:12:49Z</time>
  <course>0.0</course>
  <speed>0.0</speed>
  <fix>3d</fix>
</trkpt>
<trkpt lat="33.810313" lon="-118.393867">
  <ele>0.0</ele>
  <time>2026-09-01T01:12:49Z</time>
  <course>183.39</course>
  <speed>0.0</speed>
  <fix>3d</fix>
</trkpt>
<trkpt lat="33.810313" lon="-118.393867">
  <ele>-0.11</ele>
  <time>2026-09-01T01:12:49Z</time>
  <course>0.0</course>
  <speed>0.0</speed>
  <fix>3d</fix>
</trkpt>
<trkpt lat="33.810313" lon="-118.393867">
  <ele>0.0</ele>
  <time>2026-09-01T01:12:49Z</time>
  <course>183.63</course>
  <speed>0.0</speed>
  <fix>3d</fix>
</trkpt>
<trkpt lat="33.810313" lon="-118.393867">
  <ele>-0.11</ele>
  <time>2026-09-01T01:12:49Z</time>
  <course>0.0</course>
  <speed>0.0</speed>
  <fix>3d</fix>
</trkpt>
<trkpt lat="33.810313" lon="-118.393867">
  <ele>0.0</ele>
  <time>2026-09-01T01:12:49Z</time>
  <course>183.86</course>
  <speed>0.0</speed>
  <fix>3d</fix>
</trkpt>
<trkpt lat="33.810313" lon="-118.393867">
  <ele>-0.12</ele>
  <time>2026-09-01T01:12:49Z</time>
  <course>0.0</course>
  <speed>0.0</speed>
  <fix>3d</fix>
</trkpt>
<trkpt lat="33.810313" lon="-118.393867">
  <ele>0.0</ele>
  <time>2026-09-01T01:12:49Z</time>
  <course>184.08</course>
  <speed>0.0</speed>
  <fix>3d</fix>
</trkpt>
<trkpt lat="33.810313" lon="-118.393867">
  <ele>-0.12</ele>
  <time>2026-09-01T01:12:49Z</time>
  <course>0.0</course>
  <speed>0.0</speed>
  <fix>3d</fix>
</trkpt>
<trkpt lat="33.810313" lon="-118.393867">
  <ele>0.0</ele>
  <time>2026-09-01T01:12:49Z</time>
  <course>184.3</course>
  <speed>0.0</speed>
  <fix>3d</fix>
</trkpt>
<trkpt lat="33.810313" lon="-118.393867">
  <ele>-0.13</ele>
  <time>2026-09-01T01:12:49Z</time>
  <course>0.0</course>
  <speed>0.0</speed>
  <fix>3d</fix>
</trkpt>
<trkpt lat="33.810313" lon="-118.393867">
  <ele>0.0</ele>
  <time>2026-09-01T01:12:49Z</time>
  <course>184.5</course>
  <speed>0.0</speed>
  <fix>3d</fix>
</trkpt>
<trkpt lat="33.810313" lon="-118.393867">
  <ele>-0.13</ele>
  <time>2026-09-01T01:12:49Z</time>
  <course>0.0</course>
  <speed>0.0</speed>
  <fix>3d</fix>
</trkpt>
<trkpt lat="33.810313" lon="-118.393867">
  <ele>0.0</ele>
  <time>2026-09-01T01:12:49Z</time>
  <course>184.7</course>
  <speed>0.0</speed>
  <fix>3d</fix>
</trkpt>
<trkpt lat="33.810313" lon="-118.393867">
  <ele>-0.13</ele>
  <time>2026-09-01T01:12:49Z</time>
  <course>0.0</course>
  <speed>0.0</speed>
  <fix>3d</fix>
</trkpt>
<trkpt lat="33.810313" lon="-118.393867">
  <ele>0.0</ele>
  <time>2026-09-01T01:12:49Z</time>
  <course>184.89</course>
  <speed>0.0</speed>
  <fix>3d</fix>
</trkpt>
<trkpt lat="33.810313" lon="-118.393867">
  <ele>-0.13</ele>
  <time>2026-09-01T01:12:49Z</time>
  <course>0.0</course>
  <speed>0.0</speed>
  <fix>3d</fix>
</trkpt>
<trkpt lat="33.810313" lon="-118.393867">
  <ele>0.0</ele>
  <time>2026-09-01T01:12:49Z</time>
  <course>185.07</course>
  <speed>0.0</speed>
  <fix>3d</fix>
</trkpt>
<trkpt lat="33.810313" lon="-118.393867">
  <ele>-0.14</ele>
  <time>2026-09-01T01:12:49Z</time>
  <course>0.0</course>
  <speed>0.0</speed>
  <fix>3d</fix>
</trkpt>
<trkpt lat="33.810313" lon="-118.393867">
  <ele>0.0</ele>
  <time>2026-09-01T01:12:49Z</time>
  <course>185.24</course>
  <speed>0.0</speed>
  <fix>3d</fix>
</trkpt>
<trkpt lat="33.810313" lon="-118.393867">
  <ele>-0.14</ele>
  <time>2026-09-01T01:12:49Z</time>
  <course>0.0</course>
  <speed>0.0</speed>
  <fix>3d</fix>
</trkpt>
<trkpt lat="33.810313" lon="-118.393867">
  <ele>0.0</ele>
  <time>2026-09-01T01:12:49Z</time>
  <course>185.41</course>
  <speed>0.0</speed>
  <fix>3d</fix>
</trkpt>
<trkpt lat="33.810313" lon="-118.393867">
  <ele>-0.13</ele>
  <time>2026-09-01T01:12:49Z</time>
  <course>0.0</course>
  <speed>0.0</speed>
  <fix>3d</fix>
</trkpt>
<trkpt lat="33.810313" lon="-118.393867">
  <ele>0.0</ele>
  <time>2026-09-01T01:12:49Z</time>
  <course>185.56</course>
  <speed>0.0</speed>
  <fix>3d</fix>
</trkpt>
<trkpt lat="33.810313" lon="-118.393867">
  <ele>-0.13</ele>
  <time>2026-09-01T01:12:49Z</time>
  <course>0.0</course>
  <speed>0.0</speed>
  <fix>3d</fix>
</trkpt>
<trkpt lat="33.810313" lon="-118.393867">
  <ele>0.0</ele>
  <time>2026-09-01T01:12:49Z</time>
  <course>185.72</course>
  <speed>0.0</speed>
  <fix>3d</fix>
</trkpt>
<trkpt lat="33.810313" lon="-118.393867">
  <ele>-0.13</ele>
  <time>2026-09-01T01:12:49Z</time>
  <course>0.0</course>
  <speed>0.0</speed>
  <fix>3d</fix>
</trkpt>
<trkpt lat="33.810313" lon="-118.393867">
  <ele>0.0</ele>
  <time>2026-09-01T01:12:49Z</time>
  <course>185.86</course>
  <speed>0.0</speed>
  <fix>3d</fix>
</trkpt>
<trkpt lat="33.810313" lon="-118.393867">
  <ele>-0.13</ele>
  <time>2026-09-01T01:12:49Z</time>
  <course>0.0</course>
  <speed>0.0</speed>
  <fix>3d</fix>
</trkpt>
<trkpt lat="33.810313" lon="-118.393867">
  <ele>0.0</ele>
  <time>2026-09-01T01:12:49Z</time>
  <course>186.0</course>
  <speed>0.0</speed>
  <fix>3d</fix>
</trkpt>
<trkpt lat="33.810313" lon="-118.393867">
  <ele>-0.12</ele>
  <time>2026-09-01T01:12:49Z</time>
  <course>0.0</course>
  <speed>0.0</speed>
  <fix>3d</fix>
</trkpt>
<trkpt lat="33.810313" lon="-118.393867">
  <ele>0.0</ele>
  <time>2026-09-01T01:12:49Z</time>
  <course>186.13</course>
  <speed>0.0</speed>
  <fix>3d</fix>
</trkpt>
<trkpt lat="33.810313" lon="-118.393867">
  <ele>-0.12</ele>
  <time>2026-09-01T01:12:49Z</time>
  <course>0.0</course>
  <speed>0.0</speed>
  <fix>3d</fix>
</trkpt>
<trkpt lat="33.810313" lon="-118.393867">
  <ele>0.0</ele>
  <time>2026-09-01T01:12:49Z</time>
  <course>186.26</course>
  <speed>0.0</speed>
  <fix>3d</fix>
</trkpt>
<trkpt lat="33.810313" lon="-118.393867">
  <ele>-0.12</ele>
  <time>2026-09-01T01:12:49Z</time>
  <course>0.0</course>
  <speed>0.0</speed>
  <fix>3d</fix>
</trkpt>
<trkpt lat="33.810313" lon="-118.393867">
  <ele>0.0</ele>
  <time>2026-09-01T01:12:49Z</time>
  <course>186.38</course>
  <speed>0.0</speed>
  <fix>3d</fix>
</trkpt>
<trkpt lat="33.810313" lon="-118.393867">
  <ele>-0.12</ele>
  <time>2026-09-01T01:12:49Z</time>
  <course>0.0</course>
  <speed>0.0</speed>
  <fix>3d</fix>
</trkpt>
<trkpt lat="33.810313" lon="-118.393867">
  <ele>0.0</ele>
  <time>2026-09-01T01:12:49Z</time>
  <course>186.49</course>
  <speed>0.0</speed>
  <fix>3d</fix>
</trkpt>
<trkpt lat="33.810313" lon="-118.393867">
  <ele>-0.12</ele>
  <time>2026-09-01T01:12:49Z</time>
  <course>0.0</course>
  <speed>0.0</speed>
  <fix>3d</fix>
</trkpt>
<trkpt lat="33.810313" lon="-118.393867">
  <ele>0.0</ele>
  <time>2026-09-01T01:12:49Z</time>
  <course>186.6</course>
  <speed>0.0</speed>
  <fix>3d</fix>
</trkpt>
<trkpt lat="33.810313" lon="-118.393867">
  <ele>-0.12</ele>
  <time>2026-09-01T01:12:49Z</time>
  <course>0.0</course>
  <speed>0.0</speed>
  <fix>3d</fix>
</trkpt>
<trkpt lat="33.810313" lon="-118.393867">
  <ele>0.0</ele>
  <time>2026-09-01T01:12:49Z</time>
  <course>186.71</course>
  <speed>0.0</speed>
  <fix>3d</fix>
</trkpt>
<trkpt lat="33.810313" lon="-118.393867">
  <ele>-0.12</ele>
  <time>2026-09-01T01:12:49Z</time>
  <course>0.0</course>
  <speed>0.0</speed>
  <fix>3d</fix>
</trkpt>
<trkpt lat="33.810313" lon="-118.393867">
  <ele>0.0</ele>
  <time>2026-09-01T01:12:49Z</time>
  <course>186.81</course>
  <speed>0.0</speed>
  <fix>3d</fix>
</trkpt>
<trkpt lat="33.810313" lon="-118.393867">
  <ele>-0.12</ele>
  <time>2026-09-01T01:12:49Z</time>
  <course>0.0</course>
  <speed>0.0</speed>
  <fix>3d</fix>
</trkpt>
<trkpt lat="33.810313" lon="-118.393867">
  <ele>0.0</ele>
  <time>2026-09-01T01:12:49Z</time>
  <course>186.9</course>
  <speed>0.0</speed>
  <fix>3d</fix>
</trkpt>
<trkpt lat="33.810313" lon="-118.393867">
  <ele>-0.12</ele>
  <time>2026-09-01T01:12:49Z</time>
  <course>0.0</course>
  <speed>0.0</speed>
  <fix>3d</fix>
</trkpt>
<trkpt lat="33.810313" lon="-118.393867">
  <ele>0.0</ele>
  <time>2026-09-01T01:12:49Z</time>
  <course>187.0</course>
  <speed>0.0</speed>
  <fix>3d</fix>
</trkpt>
<trkpt lat="33.810313" lon="-118.393867">
  <ele>-0.12</ele>
  <time>2026-09-01T01:12:49Z</time>
  <course>0.0</course>
  <speed>0.0</speed>
  <fix>3d</fix>
</trkpt>
<trkpt lat="33.810313" lon="-118.393867">
  <ele>0.0</ele>
  <time>2026-09-01T01:12:49Z</time>
  <course>187.08</course>
  <speed>0.0</speed>
  <fix>3d</fix>
</trkpt>
<trkpt lat="33.810313" lon="-118.393867">
  <ele>-0.13</ele>
  <time>2026-09-01T01:12:49Z</time>
  <course>0.0</course>
  <speed>0.0</speed>
  <fix>3d</fix>
</trkpt>
<trkpt lat="33.810313" lon="-118.393867">
  <ele>0.0</ele>
  <time>2026-09-01T01:12:49Z</time>
  <course>187.17</course>
  <speed>0.0</speed>
  <fix>3d</fix>
</trkpt>
<trkpt lat="33.810313" lon="-118.393867">
  <ele>-0.13</ele>
  <time>2026-09-01T01:12:49Z</time>
  <course>0.0</course>
  <speed>0.0</speed>
  <fix>3d</fix>
</trkpt>
<trkpt lat="33.810313" lon="-118.393867">
  <ele>0.0</ele>
  <time>2026-09-01T01:12:49Z</time>
  <course>187.24</course>
  <speed>0.0</speed>
  <fix>3d</fix>
</trkpt>
<trkpt lat="33.810313" lon="-118.393867">
  <ele>-0.13</ele>
  <time>2026-09-01T01:12:49Z</time>
  <course>0.0</course>
  <speed>0.0</speed>
  <fix>3d</fix>
</trkpt>
<trkpt lat="33.810313" lon="-118.393867">
  <ele>0.0</ele>
  <time>2026-09-01T01:12:49Z</time>
  <course>187.32</course>
  <speed>0.0</speed>
  <fix>3d</fix>
</trkpt>
<trkpt lat="33.810313" lon="-118.393867">
  <ele>-0.13</ele>
  <time>2026-09-01T01:12:49Z</time>
  <course>0.0</course>
  <speed>0.0</speed>
  <fix>3d</fix>
</trkpt>
<trkpt lat="33.810313" lon="-118.393867">
  <ele>0.0</ele>
  <time>2026-09-01T01:12:49Z</time>
  <course>187.39</course>
  <speed>0.0</speed>
  <fix>3d</fix>
</trkpt>
<trkpt lat="33.810313" lon="-118.393867">
  <ele>-0.13</ele>
  <time>2026-09-01T01:12:49Z</time>
  <course>0.0</course>
  <speed>0.0</speed>
  <fix>3d</fix>
</trkpt>
<trkpt lat="33.810313" lon="-118.393867">
  <ele>0.0</ele>
  <time>2026-09-01T01:12:49Z</time>
  <course>187.46</course>
  <speed>0.0</speed>
  <fix>3d</fix>
</trkpt>
<trkpt lat="33.810313" lon="-118.393867">
  <ele>-0.13</ele>
  <time>2026-09-01T01:12:49Z</time>
  <course>0.0</course>
  <speed>0.0</speed>
  <fix>3d</fix>
</trkpt>
<trkpt lat="33.810313" lon="-118.393867">
  <ele>0.0</ele>
  <time>2026-09-01T01:12:49Z</time>
  <course>187.53</course>
  <speed>0.0</speed>
  <fix>3d</fix>
</trkpt>
<trkpt lat="33.810313" lon="-118.393867">
  <ele>-0.13</ele>
  <time>2026-09-01T01:12:49Z</time>
  <course>0.0</course>
  <speed>0.0</speed>
  <fix>3d</fix>
</trkpt>
<trkpt lat="33.810313" lon="-118.393867">
  <ele>0.0</ele>
  <time>2026-09-01T01:12:49Z</time>
  <course>187.59</course>
  <speed>0.0</speed>
  <fix>3d</fix>
</trkpt>
<trkpt lat="33.810313" lon="-118.393867">
  <ele>-0.13</ele>
  <time>2026-09-01T01:12:49Z</time>
  <course>0.0</course>
  <speed>0.0</speed>
  <fix>3d</fix>
</trkpt>
<trkpt lat="33.810313" lon="-118.393867">
  <ele>0.0</ele>
  <time>2026-09-01T01:12:49Z</time>
  <course>187.65</course>
  <speed>0.0</speed>
  <fix>3d</fix>
</trkpt>
<trkpt lat="33.810313" lon="-118.393867">
  <ele>-0.12</ele>
  <time>2026-09-01T01:12:49Z</time>
  <course>0.0</course>
  <speed>0.0</speed>
  <fix>3d</fix>
</trkpt>
<trkpt lat="33.810313" lon="-118.393867">
  <ele>0.0</ele>
  <time>2026-09-01T01:12:49Z</time>
  <course>187.7</course>
  <speed>0.0</speed>
  <fix>3d</fix>
</trkpt>
<trkpt lat="33.810313" lon="-118.393867">
  <ele>-0.12</ele>
  <time>2026-09-01T01:12:49Z</time>
  <course>0.0</course>
  <speed>0.0</speed>
  <fix>3d</fix>
</trkpt>
<trkpt lat="33.810313" lon="-118.393867">
  <ele>0.0</ele>
  <time>2026-09-01T01:12:49Z</time>
  <course>187.76</course>
  <speed>0.0</speed>
  <fix>3d</fix>
</trkpt>
<trkpt lat="33.810313" lon="-118.393867">
  <ele>-0.12</ele>
  <time>2026-09-01T01:12:49Z</time>
  <course>0.0</course>
  <speed>0.0</speed>
  <fix>3d</fix>
</trkpt>
<trkpt lat="33.810313" lon="-118.393867">
  <ele>0.0</ele>
  <time>2026-09-01T01:12:49Z</time>
  <course>187.81</course>
  <speed>0.0</speed>
  <fix>3d</fix>
</trkpt>
<trkpt lat="33.810313" lon="-118.393867">
  <ele>-0.12</ele>
  <time>2026-09-01T01:12:49Z</time>
  <course>0.0</course>
  <speed>0.0</speed>
  <fix>3d</fix>
</trkpt>
<trkpt lat="33.810313" lon="-118.393867">
  <ele>0.0</ele>
  <time>2026-09-01T01:12:49Z</time>
  <course>187.86</course>
  <speed>0.0</speed>
  <fix>3d</fix>
</trkpt>
<trkpt lat="33.810313" lon="-118.393867">
  <ele>-0.12</ele>
  <time>2026-09-01T01:12:49Z</time>
  <course>0.0</course>
  <speed>0.0</speed>
  <fix>3d</fix>
</trkpt>
<trkpt lat="33.810313" lon="-118.393867">
  <ele>0.0</ele>
  <time>2026-09-01T01:12:49Z</time>
  <course>187.9</course>
  <speed>0.0</speed>
  <fix>3d</fix>
</trkpt>
<trkpt lat="33.810313" lon="-118.393867">
  <ele>-0.12</ele>
  <time>2026-09-01T01:12:49Z</time>
  <course>0.0</course>
  <speed>0.0</speed>
  <fix>3d</fix>
</trkpt>
<trkpt lat="33.810313" lon="-118.393867">
  <ele>0.0</ele>
  <time>2026-09-01T01:12:49Z</time>
  <course>187.94</course>
  <speed>0.0</speed>
  <fix>3d</fix>
</trkpt>
<trkpt lat="33.810313" lon="-118.393867">
  <ele>-0.12</ele>
  <time>2026-09-01T01:12:49Z</time>
  <course>0.0</course>
  <speed>0.0</speed>
  <fix>3d</fix>
</trkpt>
<trkpt lat="33.810313" lon="-118.393867">
  <ele>0.0</ele>
  <time>2026-09-01T01:12:49Z</time>
  <course>187.99</course>
  <speed>0.0</speed>
  <fix>3d</fix>
</trkpt>
<trkpt lat="33.810313" lon="-118.393867">
  <ele>-0.12</ele>
  <time>2026-09-01T01:12:49Z</time>
  <course>0.0</course>
  <speed>0.0</speed>
  <fix>3d</fix>
</trkpt>
<trkpt lat="33.810313" lon="-118.393867">
  <ele>0.0</ele>
  <time>2026-09-01T01:12:49Z</time>
  <course>188.02</course>
  <speed>0.0</speed>
  <fix>3d</fix>
</trkpt>
<trkpt lat="33.810313" lon="-118.393867">
  <ele>-0.12</ele>
  <time>2026-09-01T01:12:49Z</time>
  <course>0.0</course>
  <speed>0.0</speed>
  <fix>3d</fix>
</trkpt>
<trkpt lat="33.810313" lon="-118.393867">
  <ele>0.0</ele>
  <time>2026-09-01T01:12:49Z</time>
  <course>188.06</course>
  <speed>0.0</speed>
  <fix>3d</fix>
</trkpt>
<trkpt lat="33.810313" lon="-118.393867">
  <ele>-0.12</ele>
  <time>2026-09-01T01:12:49Z</time>
  <course>0.0</course>
  <speed>0.0</speed>
  <fix>3d</fix>
</trkpt>
<trkpt lat="33.810313" lon="-118.393867">
  <ele>0.0</ele>
  <time>2026-09-01T01:12:49Z</time>
  <course>188.1</course>
  <speed>0.0</speed>
  <fix>3d</fix>
</trkpt>
<trkpt lat="33.810313" lon="-118.393867">
  <ele>-0.13</ele>
  <time>2026-09-01T01:12:49Z</time>
  <course>0.0</course>
  <speed>0.0</speed>
  <fix>3d</fix>
</trkpt>
<trkpt lat="33.810313" lon="-118.393867">
  <ele>0.0</ele>
  <time>2026-09-01T01:12:49Z</time>
  <course>188.13</course>
  <speed>0.0</speed>
  <fix>3d</fix>
</trkpt>
<trkpt lat="33.810313" lon="-118.393867">
  <ele>-0.13</ele>
  <time>2026-09-01T01:12:49Z</time>
  <course>0.0</course>
  <speed>0.0</speed>
  <fix>3d</fix>
</trkpt>
<trkpt lat="33.810313" lon="-118.393867">
  <ele>0.0</ele>
  <time>2026-09-01T01:12:49Z</time>
  <course>188.16</course>
  <speed>0.0</speed>
  <fix>3d</fix>
</trkpt>
<trkpt lat="33.810313" lon="-118.393867">
  <ele>-0.13</ele>
  <time>2026-09-01T01:12:49Z</time>
  <course>0.0</course>
  <speed>0.0</speed>
  <fix>3d</fix>
</trkpt>
<trkpt lat="33.810313" lon="-118.393867">
  <ele>0.0</ele>
  <time>2026-09-01T01:12:49Z</time>
  <course>188.19</course>
  <speed>0.0</speed>
  <fix>3d</fix>
</trkpt>
<trkpt lat="33.810313" lon="-118.393867">
  <ele>-0.13</ele>
  <time>2026-09-01T01:12:49Z</time>
  <course>0.0</course>
  <speed>0.0</speed>
  <fix>3d</fix>
</trkpt>
<trkpt lat="33.810313" lon="-118.393867">
  <ele>0.0</ele>
  <time>2026-09-01T01:12:49Z</time>
  <course>188.22</course>
  <speed>0.0</speed>
  <fix>3d</fix>
</trkpt>
<trkpt lat="33.810313" lon="-118.393867">
  <ele>-0.13</ele>
  <time>2026-09-01T01:12:49Z</time>
  <course>0.0</course>
  <speed>0.0</speed>
  <fix>3d</fix>
</trkpt>
<trkpt lat="33.810313" lon="-118.393867">
  <ele>0.0</ele>
  <time>2026-09-01T01:12:49Z</time>
  <course>188.24</course>
  <speed>0.0</speed>
  <fix>3d</fix>
</trkpt>
<trkpt lat="33.810313" lon="-118.393867">
  <ele>-0.13</ele>
  <time>2026-09-01T01:12:49Z</time>
  <course>0.0</course>
  <speed>0.0</speed>
  <fix>3d</fix>
</trkpt>
<trkpt lat="33.810313" lon="-118.393867">
  <ele>0.0</ele>
  <time>2026-09-01T01:12:49Z</time>
  <course>188.27</course>
  <speed>0.0</speed>
  <fix>3d</fix>
</trkpt>
<trkpt lat="33.810313" lon="-118.393867">
  <ele>-0.12</ele>
  <time>2026-09-01T01:12:49Z</time>
  <course>0.0</course>
  <speed>0.0</speed>
  <fix>3d</fix>
</trkpt>
<trkpt lat="33.810313" lon="-118.393867">
  <ele>0.0</ele>
  <time>2026-09-01T01:12:49Z</time>
  <course>188.29</course>
  <speed>0.0</speed>
  <fix>3d</fix>
</trkpt>
<trkpt lat="33.810313" lon="-118.393867">
  <ele>-0.12</ele>
  <time>2026-09-01T01:12:49Z</time>
  <course>0.0</course>
  <speed>0.0</speed>
  <fix>3d</fix>
</trkpt>
<trkpt lat="33.810313" lon="-118.393867">
  <ele>0.0</ele>
  <time>2026-09-01T01:12:49Z</time>
  <course>188.32</course>
  <speed>0.0</speed>
  <fix>3d</fix>
</trkpt>
<trkpt lat="33.810313" lon="-118.393867">
  <ele>-0.12</ele>
  <time>2026-09-01T01:12:49Z</time>
  <course>0.0</course>
  <speed>0.0</speed>
  <fix>3d</fix>
</trkpt>
<trkpt lat="33.810313" lon="-118.393867">
  <ele>0.0</ele>
  <time>2026-09-01T01:12:49Z</time>
  <course>188.34</course>
  <speed>0.0</speed>
  <fix>3d</fix>
</trkpt>
<trkpt lat="33.810313" lon="-118.393867">
  <ele>-0.12</ele>
  <time>2026-09-01T01:12:49Z</time>
  <course>0.0</course>
  <speed>0.0</speed>
  <fix>3d</fix>
</trkpt>
<trkpt lat="33.810313" lon="-118.393867">
  <ele>0.0</ele>
  <time>2026-09-01T01:12:49Z</time>
  <course>188.36</course>
  <speed>0.0</speed>
  <fix>3d</fix>
</trkpt>
<trkpt lat="33.810313" lon="-118.393867">
  <ele>-0.12</ele>
  <time>2026-09-01T01:12:49Z</time>
  <course>0.0</course>
  <speed>0.0</speed>
  <fix>3d</fix>
</trkpt>
<trkpt lat="33.810313" lon="-118.393867">
  <ele>0.0</ele>
  <time>2026-09-01T01:12:49Z</time>
  <course>188.38</course>
  <speed>0.0</speed>
  <fix>3d</fix>
</trkpt>
<trkpt lat="33.810313" lon="-118.393867">
  <ele>-0.12</ele>
  <time>2026-09-01T01:12:49Z</time>
  <course>0.0</course>
  <speed>0.0</speed>
  <fix>3d</fix>
</trkpt>
<trkpt lat="33.810313" lon="-118.393867">
  <ele>0.0</ele>
  <time>2026-09-01T01:12:49Z</time>
  <course>188.39</course>
  <speed>0.0</speed>
  <fix>3d</fix>
</trkpt>
<trkpt lat="33.810313" lon="-118.393867">
  <ele>-0.12</ele>
  <time>2026-09-01T01:12:49Z</time>
  <course>0.0</course>
  <speed>0.0</speed>
  <fix>3d</fix>
</trkpt>
<trkpt lat="33.810313" lon="-118.393867">
  <ele>0.0</ele>
  <time>2026-09-01T01:12:49Z</time>
  <course>188.41</course>
  <speed>0.0</speed>
  <fix>3d</fix>
</trkpt>
<trkpt lat="33.810313" lon="-118.393867">
  <ele>-0.12</ele>
  <time>2026-09-01T01:12:49Z</time>
  <course>0.0</course>
  <speed>0.0</speed>
  <fix>3d</fix>
</trkpt>
<trkpt lat="33.810313" lon="-118.393867">
  <ele>0.0</ele>
  <time>2026-09-01T01:12:49Z</time>
  <course>188.42</course>
  <speed>0.0</speed>
  <fix>3d</fix>
</trkpt>
<trkpt lat="33.810313" lon="-118.393867">
  <ele>-0.12</ele>
  <time>2026-09-01T01:12:49Z</time>
  <course>0.0</course>
  <speed>0.0</speed>
  <fix>3d</fix>
</trkpt>
<trkpt lat="33.810313" lon="-118.393867">
  <ele>0.0</ele>
  <time>2026-09-01T01:12:49Z</time>
  <course>188.44</course>
  <speed>0.0</speed>
  <fix>3d</fix>
</trkpt>
<trkpt lat="33.810313" lon="-118.393867">
  <ele>-0.12</ele>
  <time>2026-09-01T01:12:49Z</time>
  <course>0.0</course>
  <speed>0.0</speed>
  <fix>3d</fix>
</trkpt>
<trkpt lat="33.810313" lon="-118.393867">
  <ele>0.0</ele>
  <time>2026-09-01T01:12:49Z</time>
  <course>188.45</course>
  <speed>0.0</speed>
  <fix>3d</fix>
</trkpt>
<trkpt lat="33.810313" lon="-118.393867">
  <ele>-0.13</ele>
  <time>2026-09-01T01:12:49Z</time>
  <course>0.0</course>
  <speed>0.0</speed>
  <fix>3d</fix>
</trkpt>
<trkpt lat="33.810313" lon="-118.393867">
  <ele>0.0</ele>
  <time>2026-09-01T01:12:49Z</time>
  <course>188.46</course>
  <speed>0.0</speed>
  <fix>3d</fix>
</trkpt>
<trkpt lat="33.810313" lon="-118.393867">
  <ele>-0.13</ele>
  <time>2026-09-01T01:12:49Z</time>
  <course>0.0</course>
  <speed>0.0</speed>
  <fix>3d</fix>
</trkpt>
<trkpt lat="33.810313" lon="-118.393867">
  <ele>0.0</ele>
  <time>2026-09-01T01:12:49Z</time>
  <course>188.47</course>
  <speed>0.0</speed>
  <fix>3d</fix>
</trkpt>
<trkpt lat="33.810313" lon="-118.393867">
  <ele>-0.13</ele>
  <time>2026-09-01T01:12:49Z</time>
  <course>0.0</course>
  <speed>0.0</speed>
  <fix>3d</fix>
</trkpt>
<trkpt lat="33.810313" lon="-118.393867">
  <ele>0.0</ele>
  <time>2026-09-01T01:12:49Z</time>
  <course>188.48</course>
  <speed>0.0</speed>
  <fix>3d</fix>
</trkpt>
<trkpt lat="33.810313" lon="-118.393867">
  <ele>-0.13</ele>
  <time>2026-09-01T01:12:49Z</time>
  <course>0.0</course>
  <speed>0.0</speed>
  <fix>3d</fix>
</trkpt>
<trkpt lat="33.810313" lon="-118.393867">
  <ele>0.0</ele>
  <time>2026-09-01T01:12:49Z</time>
  <course>188.49</course>
  <speed>0.0</speed>
  <fix>3d</fix>
</trkpt>
<trkpt lat="33.810313" lon="-118.393867">
  <ele>-0.13</ele>
  <time>2026-09-01T01:12:49Z</time>
  <course>0.0</course>
  <speed>0.0</speed>
  <fix>3d</fix>
</trkpt>
<trkpt lat="33.810313" lon="-118.393867">
  <ele>0.0</ele>
  <time>2026-09-01T01:12:49Z</time>
  <course>188.5</course>
  <speed>0.0</speed>
  <fix>3d</fix>
</trkpt>
<trkpt lat="33.810313" lon="-118.393867">
  <ele>-0.13</ele>
  <time>2026-09-01T01:12:49Z</time>
  <course>0.0</course>
  <speed>0.0</speed>
  <fix>3d</fix>
</trkpt>
<trkpt lat="33.810313" lon="-118.393867">
  <ele>0.0</ele>
  <time>2026-09-01T01:12:49Z</time>
  <course>188.51</course>
  <speed>0.0</speed>
  <fix>3d</fix>
</trkpt>
<trkpt lat="33.810313" lon="-118.393867">
  <ele>-0.12</ele>
  <time>2026-09-01T01:12:49Z</time>
  <course>0.0</course>
  <speed>0.0</speed>
  <fix>3d</fix>
</trkpt>
<trkpt lat="33.810313" lon="-118.393867">
  <ele>0.0</ele>
  <time>2026-09-01T01:12:49Z</time>
  <course>188.52</course>
  <speed>0.0</speed>
  <fix>3d</fix>
</trkpt>
<trkpt lat="33.810313" lon="-118.393867">
  <ele>-0.12</ele>
  <time>2026-09-01T01:12:49Z</time>
  <course>0.0</course>
  <speed>0.0</speed>
  <fix>3d</fix>
</trkpt>
<trkpt lat="33.810313" lon="-118.393867">
  <ele>0.0</ele>
  <time>2026-09-01T01:12:49Z</time>
  <course>188.53</course>
  <speed>0.0</speed>
  <fix>3d</fix>
</trkpt>
<trkpt lat="33.810313" lon="-118.393867">
  <ele>-0.12</ele>
  <time>2026-09-01T01:12:49Z</time>
  <course>0.0</course>
  <speed>0.0</speed>
  <fix>3d</fix>
</trkpt>
<trkpt lat="33.810313" lon="-118.393867">
  <ele>0.0</ele>
  <time>2026-09-01T01:12:49Z</time>
  <course>188.53</course>
  <speed>0.0</speed>
  <fix>3d</fix>
</trkpt>
<trkpt lat="33.810313" lon="-118.393867">
  <ele>-0.12</ele>
  <time>2026-09-01T01:12:49Z</time>
  <course>0.0</course>
  <speed>0.0</speed>
  <fix>3d</fix>
</trkpt>
<trkpt lat="33.810313" lon="-118.393867">
  <ele>0.0</ele>
  <time>2026-09-01T01:12:49Z</time>
  <course>188.54</course>
  <speed>0.0</speed>
  <fix>3d</fix>
</trkpt>
<trkpt lat="33.810313" lon="-118.393867">
  <ele>-0.12</ele>
  <time>2026-09-01T01:12:49Z</time>
  <course>0.0</course>
  <speed>0.0</speed>
  <fix>3d</fix>
</trkpt>
<trkpt lat="33.810313" lon="-118.393867">
  <ele>0.0</ele>
  <time>2026-09-01T01:12:49Z</time>
  <course>188.54</course>
  <speed>0.0</speed>
  <fix>3d</fix>
</trkpt>
<trkpt lat="33.810313" lon="-118.393867">
  <ele>-0.12</ele>
  <time>2026-09-01T01:12:49Z</time>
  <course>0.0</course>
  <speed>0.0</speed>
  <fix>3d</fix>
</trkpt>
<trkpt lat="33.810313" lon="-118.393867">
  <ele>0.0</ele>
  <time>2026-09-01T01:12:49Z</time>
  <course>188.54</course>
  <speed>0.0</speed>
  <fix>3d</fix>
</trkpt>
<trkpt lat="33.810313" lon="-118.393867">
  <ele>-0.12</ele>
  <time>2026-09-01T01:12:49Z</time>
  <course>0.0</course>
  <speed>0.0</speed>
  <fix>3d</fix>
</trkpt>
<trkpt lat="33.810313" lon="-118.393867">
  <ele>0.0</ele>
  <time>2026-09-01T01:12:49Z</time>
  <course>188.55</course>
  <speed>0.0</speed>
  <fix>3d</fix>
</trkpt>
<trkpt lat="33.810313" lon="-118.393867">
  <ele>-0.12</ele>
  <time>2026-09-01T01:12:49Z</time>
  <course>0.0</course>
  <speed>0.0</speed>
  <fix>3d</fix>
</trkpt>
<trkpt lat="33.810313" lon="-118.393867">
  <ele>0.0</ele>
  <time>2026-09-01T01:12:49Z</time>
  <course>188.55</course>
  <speed>0.0</speed>
  <fix>3d</fix>
</trkpt>
<trkpt lat="33.810313" lon="-118.393867">
  <ele>-0.12</ele>
  <time>2026-09-01T01:12:49Z</time>
  <course>0.0</course>
  <speed>0.0</speed>
  <fix>3d</fix>
</trkpt>
<trkpt lat="33.810313" lon="-118.393867">
  <ele>0.0</ele>
  <time>2026-09-01T01:12:49Z</time>
  <course>188.55</course>
  <speed>0.0</speed>
  <fix>3d</fix>
</trkpt>
<trkpt lat="33.810313" lon="-118.393867">
  <ele>-0.12</ele>
  <time>2026-09-01T01:12:49Z</time>
  <course>0.0</course>
  <speed>0.0</speed>
  <fix>3d</fix>
</trkpt>
<trkpt lat="33.810313" lon="-118.393867">
  <ele>-0.126</ele>
  <time>2026-09-01T01:12:49Z</time>
  <course>188.55</course>
  <speed>0.0</speed>
  <fix>3d</fix>
</trkpt>
<trkpt lat="33.810313" lon="-118.393867">
  <ele>-0.13</ele>
  <time>2026-09-01T01:12:49Z</time>
  <course>0.0</course>
  <speed>0.0</speed>
  <fix>3d</fix>
</trkpt>
<trkpt lat="33.810313" lon="-118.393867">
  <ele>-0.126</ele>
  <time>2026-09-01T01:12:49Z</time>
  <course>188.56</course>
  <speed>0.0</speed>
  <fix>3d</fix>
</trkpt>
<trkpt lat="33.810313" lon="-118.393867">
  <ele>-0.13</ele>
  <time>2026-09-01T01:12:49Z</time>
  <course>0.0</course>
  <speed>0.0</speed>
  <fix>3d</fix>
</trkpt>
<trkpt lat="33.810313" lon="-118.393867">
  <ele>-0.125</ele>
  <time>2026-09-01T01:12:49Z</time>
  <course>188.56</course>
  <speed>0.0</speed>
  <fix>3d</fix>
</trkpt>
<trkpt lat="33.810313" lon="-118.393867">
  <ele>-0.13</ele>
  <time>2026-09-01T01:12:49Z</time>
  <course>0.0</course>
  <speed>0.0</speed>
  <fix>3d</fix>
</trkpt>
<trkpt lat="33.810313" lon="-118.393867">
  <ele>-0.123</ele>
  <time>2026-09-01T01:12:49Z</time>
  <course>188.56</course>
  <speed>0.0</speed>
  <fix>3d</fix>
</trkpt>
<trkpt lat="33.810313" lon="-118.393867">
  <ele>-0.13</ele>
  <time>2026-09-01T01:12:49Z</time>
  <course>0.0</course>
  <speed>0.0</speed>
  <fix>3d</fix>
</trkpt>
<trkpt lat="33.810313" lon="-118.393867">
  <ele>-0.121</ele>
  <time>2026-09-01T01:12:49Z</time>
  <course>188.56</course>
  <speed>0.0</speed>
  <fix>3d</fix>
</trkpt>
<trkpt lat="33.810313" lon="-118.393867">
  <ele>-0.12</ele>
  <time>2026-09-01T01:12:49Z</time>
  <course>0.0</course>
  <speed>0.0</speed>
  <fix>3d</fix>
</trkpt>
<trkpt lat="33.810313" lon="-118.393867">
  <ele>-0.12</ele>
  <time>2026-09-01T01:12:49Z</time>
  <course>188.56</course>
  <speed>0.0</speed>
  <fix>3d</fix>
</trkpt>
<trkpt lat="33.810313" lon="-118.393867">
  <ele>-0.12</ele>
  <time>2026-09-01T01:12:49Z</time>
  <course>0.0</course>
  <speed>0.0</speed>
  <fix>3d</fix>
</trkpt>
<trkpt lat="33.810313" lon="-118.393867">
  <ele>-0.119</ele>
  <time>2026-09-01T01:12:49Z</time>
  <course>188.56</course>
  <speed>0.0</speed>
  <fix>3d</fix>
</trkpt>
<trkpt lat="33.810313" lon="-118.393867">
  <ele>-0.12</ele>
  <time>2026-09-01T01:12:49Z</time>
  <course>0.0</course>
  <speed>0.0</speed>
  <fix>3d</fix>
</trkpt>
<trkpt lat="33.810313" lon="-118.393867">
  <ele>-0.12</ele>
  <time>2026-09-01T01:12:49Z</time>
  <course>188.56</course>
  <speed>0.0</speed>
  <fix>3d</fix>
</trkpt>
<trkpt lat="33.810313" lon="-118.393867">
  <ele>-0.12</ele>
  <time>2026-09-01T01:12:49Z</time>
  <course>0.0</course>
  <speed>0.0</speed>
  <fix>3d</fix>
</trkpt>
<trkpt lat="33.810313" lon="-118.393867">
  <ele>-0.123</ele>
  <time>2026-09-01T01:12:49Z</time>
  <course>188.55</course>
  <speed>0.0</speed>
  <fix>3d</fix>
</trkpt>
<trkpt lat="33.810313" lon="-118.393867">
  <ele>-0.12</ele>
  <time>2026-09-01T01:12:49Z</time>
  <course>0.0</course>
  <speed>0.0</speed>
  <fix>3d</fix>
</trkpt>
<trkpt lat="33.810313" lon="-118.393867">
  <ele>-0.127</ele>
  <time>2026-09-01T01:12:49Z</time>
  <course>188.55</course>
  <speed>0.0</speed>
  <fix>3d</fix>
</trkpt>
<trkpt lat="33.810313" lon="-118.393867">
  <ele>-0.12</ele>
  <time>2026-09-01T01:12:49Z</time>
  <course>0.0</course>
  <speed>0.0</speed>
  <fix>3d</fix>
</trkpt>
<trkpt lat="33.810313" lon="-118.393867">
  <ele>-0.13</ele>
  <time>2026-09-01T01:12:49Z</time>
  <course>188.55</course>
  <speed>0.0</speed>
  <fix>3d</fix>
</trkpt>
<trkpt lat="33.810313" lon="-118.393867">
  <ele>-0.12</ele>
  <time>2026-09-01T01:12:49Z</time>
  <course>0.0</course>
  <speed>0.0</speed>
  <fix>3d</fix>
</trkpt>
<trkpt lat="33.810313" lon="-118.393867">
  <ele>-0.132</ele>
  <time>2026-09-01T01:12:49Z</time>
  <course>188.55</course>
  <speed>0.0</speed>
  <fix>3d</fix>
</trkpt>
<trkpt lat="33.810313" lon="-118.393867">
  <ele>-0.12</ele>
  <time>2026-09-01T01:12:49Z</time>
  <course>0.0</course>
  <speed>0.0</speed>
  <fix>3d</fix>
</trkpt>
<trkpt lat="33.810313" lon="-118.393867">
  <ele>-0.132</ele>
  <time>2026-09-01T01:12:49Z</time>
  <course>188.55</course>
  <speed>0.0</speed>
  <fix>3d</fix>
</trkpt>
<trkpt lat="33.810313" lon="-118.393867">
  <ele>-0.12</ele>
  <time>2026-09-01T01:12:49Z</time>
  <course>0.0</course>
  <speed>0.0</speed>
  <fix>3d</fix>
</trkpt>
<trkpt lat="33.810313" lon="-118.393867">
  <ele>-0.132</ele>
  <time>2026-09-01T01:12:49Z</time>
  <course>188.55</course>
  <speed>0.0</speed>
  <fix>3d</fix>
</trkpt>
<trkpt lat="33.810313" lon="-118.393867">
  <ele>-0.12</ele>
  <time>2026-09-01T01:12:49Z</time>
  <course>0.0</course>
  <speed>0.0</speed>
  <fix>3d</fix>
</trkpt>
<trkpt lat="33.810313" lon="-118.393867">
  <ele>-0.132</ele>
  <time>2026-09-01T01:12:49Z</time>
  <course>188.55</course>
  <speed>0.0</speed>
  <fix>3d</fix>
</trkpt>
<trkpt lat="33.810313" lon="-118.393867">
  <ele>-0.12</ele>
  <time>2026-09-01T01:12:49Z</time>
  <course>0.0</course>
  <speed>0.0</speed>
  <fix>3d</fix>
</trkpt>
<trkpt lat="33.810313" lon="-118.393867">
  <ele>-0.131</ele>
  <time>2026-09-01T01:12:49Z</time>
  <course>188.55</course>
  <speed>0.0</speed>
  <fix>3d</fix>
</trkpt>
<trkpt lat="33.810313" lon="-118.393867">
  <ele>-0.12</ele>
  <time>2026-09-01T01:12:49Z</time>
  <course>0.0</course>
  <speed>0.0</speed>
  <fix>3d</fix>
</trkpt>
<trkpt lat="33.810313" lon="-118.393867">
  <ele>-0.129</ele>
  <time>2026-09-01T01:12:49Z</time>
  <course>188.54</course>
  <speed>0.0</speed>
  <fix>3d</fix>
</trkpt>
<trkpt lat="33.810313" lon="-118.393867">
  <ele>-0.13</ele>
  <time>2026-09-01T01:12:49Z</time>
  <course>0.0</course>
  <speed>0.0</speed>
  <fix>3d</fix>
</trkpt>
<trkpt lat="33.810313" lon="-118.393867">
  <ele>-0.128</ele>
  <time>2026-09-01T01:12:49Z</time>
  <course>188.54</course>
  <speed>0.0</speed>
  <fix>3d</fix>
</trkpt>
<trkpt lat="33.810313" lon="-118.393867">
  <ele>-0.13</ele>
  <time>2026-09-01T01:12:49Z</time>
  <course>0.0</course>
  <speed>0.0</speed>
  <fix>3d</fix>
</trkpt>
<trkpt lat="33.810313" lon="-118.393867">
  <ele>-0.125</ele>
  <time>2026-09-01T01:12:49Z</time>
  <course>188.53</course>
  <speed>0.0</speed>
  <fix>3d</fix>
</trkpt>
<trkpt lat="33.810313" lon="-118.393867">
  <ele>-0.12</ele>
  <time>2026-09-01T01:12:49Z</time>
  <course>0.0</course>
  <speed>0.0</speed>
  <fix>3d</fix>
</trkpt>
<trkpt lat="33.810313" lon="-118.393867">
  <ele>-0.123</ele>
  <time>2026-09-01T01:12:49Z</time>
  <course>188.53</course>
  <speed>0.0</speed>
  <fix>3d</fix>
</trkpt>
<trkpt lat="33.810313" lon="-118.393867">
  <ele>-0.12</ele>
  <time>2026-09-01T01:12:49Z</time>
  <course>0.0</course>
  <speed>0.0</speed>
  <fix>3d</fix>
</trkpt>
<trkpt lat="33.810313" lon="-118.393867">
  <ele>-0.121</ele>
  <time>2026-09-01T01:12:49Z</time>
  <course>188.52</course>
  <speed>0.0</speed>
  <fix>3d</fix>
</trkpt>
<trkpt lat="33.810313" lon="-118.393867">
  <ele>-0.12</ele>
  <time>2026-09-01T01:12:49Z</time>
  <course>0.0</course>
  <speed>0.0</speed>
  <fix>3d</fix>
</trkpt>
<trkpt lat="33.810313" lon="-118.393867">
  <ele>-0.121</ele>
  <time>2026-09-01T01:12:49Z</time>
  <course>188.52</course>
  <speed>0.0</speed>
  <fix>3d</fix>
</trkpt>
<trkpt lat="33.810313" lon="-118.393867">
  <ele>-0.12</ele>
  <time>2026-09-01T01:12:49Z</time>
  <course>0.0</course>
  <speed>0.0</speed>
  <fix>3d</fix>
</trkpt>
<trkpt lat="33.810313" lon="-118.393867">
  <ele>-0.121</ele>
  <time>2026-09-01T01:12:49Z</time>
  <course>188.51</course>
  <speed>0.0</speed>
  <fix>3d</fix>
</trkpt>
<trkpt lat="33.810313" lon="-118.393867">
  <ele>-0.12</ele>
  <time>2026-09-01T01:12:49Z</time>
  <course>0.0</course>
  <speed>0.0</speed>
  <fix>3d</fix>
</trkpt>
<trkpt lat="33.810313" lon="-118.393867">
  <ele>-0.123</ele>
  <time>2026-09-01T01:12:49Z</time>
  <course>188.51</course>
  <speed>0.0</speed>
  <fix>3d</fix>
</trkpt>
<trkpt lat="33.810313" lon="-118.393867">
  <ele>-0.12</ele>
  <time>2026-09-01T01:12:49Z</time>
  <course>0.0</course>
  <speed>0.0</speed>
  <fix>3d</fix>
</trkpt>
<trkpt lat="33.810313" lon="-118.393867">
  <ele>-0.126</ele>
  <time>2026-09-01T01:12:49Z</time>
  <course>188.5</course>
  <speed>0.0</speed>
  <fix>3d</fix>
</trkpt>
<trkpt lat="33.810313" lon="-118.393867">
  <ele>-0.12</ele>
  <time>2026-09-01T01:12:49Z</time>
  <course>0.0</course>
  <speed>0.0</speed>
  <fix>3d</fix>
</trkpt>
<trkpt lat="33.810313" lon="-118.393867">
  <ele>-0.127</ele>
  <time>2026-09-01T01:12:49Z</time>
  <course>188.5</course>
  <speed>0.0</speed>
  <fix>3d</fix>
</trkpt>
<trkpt lat="33.810313" lon="-118.393867">
  <ele>-0.12</ele>
  <time>2026-09-01T01:12:49Z</time>
  <course>0.0</course>
  <speed>0.0</speed>
  <fix>3d</fix>
</trkpt>
<trkpt lat="33.810313" lon="-118.393867">
  <ele>-0.128</ele>
  <time>2026-09-01T01:12:49Z</time>
  <course>188.49</course>
  <speed>0.0</speed>
  <fix>3d</fix>
</trkpt>
<trkpt lat="33.810313" lon="-118.393867">
  <ele>-0.12</ele>
  <time>2026-09-01T01:12:49Z</time>
  <course>0.0</course>
  <speed>0.0</speed>
  <fix>3d</fix>
</trkpt>
<trkpt lat="33.810313" lon="-118.393867">
  <ele>-0.127</ele>
  <time>2026-09-01T01:12:49Z</time>
  <course>188.49</course>
  <speed>0.0</speed>
  <fix>3d</fix>
</trkpt>
<trkpt lat="33.810313" lon="-118.393867">
  <ele>-0.12</ele>
  <time>2026-09-01T01:12:49Z</time>
  <course>0.0</course>
  <speed>0.0</speed>
  <fix>3d</fix>
</trkpt>
<trkpt lat="33.810313" lon="-118.393867">
  <ele>-0.127</ele>
  <time>2026-09-01T01:12:49Z</time>
  <course>188.48</course>
  <speed>0.0</speed>
  <fix>3d</fix>
</trkpt>
<trkpt lat="33.810313" lon="-118.393867">
  <ele>-0.12</ele>
  <time>2026-09-01T01:12:49Z</time>
  <course>0.0</course>
  <speed>0.0</speed>
  <fix>3d</fix>
</trkpt>
<trkpt lat="33.810313" lon="-118.393867">
  <ele>-0.127</ele>
  <time>2026-09-01T01:12:49Z</time>
  <course>188.47</course>
  <speed>0.01</speed>
  <fix>3d</fix>
</trkpt>
<trkpt lat="33.810313" lon="-118.393867">
  <ele>-0.12</ele>
  <time>2026-09-01T01:12:49Z</time>
  <course>0.0</course>
  <speed>0.0</speed>
  <fix>3d</fix>
</trkpt>
<trkpt lat="33.810313" lon="-118.393867">
  <ele>-0.127</ele>
  <time>2026-09-01T01:12:49Z</time>
  <course>188.47</course>
  <speed>0.01</speed>
  <fix>3d</fix>
</trkpt>
<trkpt lat="33.810313" lon="-118.393867">
  <ele>-0.12</ele>
  <time>2026-09-01T01:12:49Z</time>
  <course>0.0</course>
  <speed>0.0</speed>
  <fix>3d</fix>
</trkpt>
<trkpt lat="33.810313" lon="-118.393867">
  <ele>-0.127</ele>
  <time>2026-09-01T01:12:49Z</time>
  <course>188.46</course>
  <speed>0.01</speed>
  <fix>3d</fix>
</trkpt>
<trkpt lat="33.810313" lon="-118.393867">
  <ele>-0.12</ele>
  <time>2026-09-01T01:12:49Z</time>
  <course>0.0</course>
  <speed>0.0</speed>
  <fix>3d</fix>
</trkpt>
<trkpt lat="33.810313" lon="-118.393867">
  <ele>-0.126</ele>
  <time>2026-09-01T01:12:49Z</time>
  <course>188.45</course>
  <speed>0.01</speed>
  <fix>3d</fix>
</trkpt>
<trkpt lat="33.810313" lon="-118.393867">
  <ele>-0.12</ele>
  <time>2026-09-01T01:12:49Z</time>
  <course>0.0</course>
  <speed>0.0</speed>
  <fix>3d</fix>
</trkpt>
<trkpt lat="33.810313" lon="-118.393867">
  <ele>-0.126</ele>
  <time>2026-09-01T01:12:49Z</time>
  <course>188.45</course>
  <speed>0.01</speed>
  <fix>3d</fix>
</trkpt>
<trkpt lat="33.810313" lon="-118.393867">
  <ele>-0.12</ele>
  <time>2026-09-01T01:12:49Z</time>
  <course>0.0</course>
  <speed>0.0</speed>
  <fix>3d</fix>
</trkpt>
<trkpt lat="33.810313" lon="-118.393867">
  <ele>-0.125</ele>
  <time>2026-09-01T01:12:49Z</time>
  <course>188.44</course>
  <speed>0.01</speed>
  <fix>3d</fix>
</trkpt>
<trkpt lat="33.810313" lon="-118.393867">
  <ele>-0.12</ele>
  <time>2026-09-01T01:12:49Z</time>
  <course>0.0</course>
  <speed>0.0</speed>
  <fix>3d</fix>
</trkpt>
<trkpt lat="33.810313" lon="-118.393867">
  <ele>-0.126</ele>
  <time>2026-09-01T01:12:49Z</time>
  <course>188.43</course>
  <speed>0.01</speed>
  <fix>3d</fix>
</trkpt>
<trkpt lat="33.810313" lon="-118.393867">
  <ele>-0.12</ele>
  <time>2026-09-01T01:12:49Z</time>
  <course>0.0</course>
  <speed>0.0</speed>
  <fix>3d</fix>
</trkpt>
<trkpt lat="33.810313" lon="-118.393867">
  <ele>-0.127</ele>
  <time>2026-09-01T01:12:49Z</time>
  <course>188.42</course>
  <speed>0.01</speed>
  <fix>3d</fix>
</trkpt>
<trkpt lat="33.810313" lon="-118.393867">
  <ele>-0.12</ele>
  <time>2026-09-01T01:12:49Z</time>
  <course>0.0</course>
  <speed>0.0</speed>
  <fix>3d</fix>
</trkpt>
<trkpt lat="33.810313" lon="-118.393867">
  <ele>-0.128</ele>
  <time>2026-09-01T01:12:49Z</time>
  <course>188.42</course>
  <speed>0.01</speed>
  <fix>3d</fix>
</trkpt>
<trkpt lat="33.810313" lon="-118.393867">
  <ele>-0.12</ele>
  <time>2026-09-01T01:12:49Z</time>
  <course>0.0</course>
  <speed>0.0</speed>
  <fix>3d</fix>
</trkpt>
<trkpt lat="33.810313" lon="-118.393867">
  <ele>-0.129</ele>
  <time>2026-09-01T01:12:49Z</time>
  <course>188.41</course>
  <speed>0.01</speed>
  <fix>3d</fix>
</trkpt>
<trkpt lat="33.810313" lon="-118.393867">
  <ele>-0.12</ele>
  <time>2026-09-01T01:12:49Z</time>
  <course>0.0</course>
  <speed>0.0</speed>
  <fix>3d</fix>
</trkpt>
<trkpt lat="33.810313" lon="-118.393867">
  <ele>-0.129</ele>
  <time>2026-09-01T01:12:49Z</time>
  <course>188.4</course>
  <speed>0.01</speed>
  <fix>3d</fix>
</trkpt>
<trkpt lat="33.810313" lon="-118.393867">
  <ele>-0.12</ele>
  <time>2026-09-01T01:12:49Z</time>
  <course>0.0</course>
  <speed>0.0</speed>
  <fix>3d</fix>
</trkpt>
<trkpt lat="33.810313" lon="-118.393867">
  <ele>-0.13</ele>
  <time>2026-09-01T01:12:49Z</time>
  <course>188.4</course>
  <speed>0.01414213562373095</speed>
  <fix>3d</fix>
</trkpt>
<trkpt lat="33.810313" lon="-118.393867">
  <ele>-0.12</ele>
  <time>2026-09-01T01:12:49Z</time>
  <course>0.0</course>
  <speed>0.0</speed>
  <fix>3d</fix>
</trkpt>
<trkpt lat="33.810313" lon="-118.393867">
  <ele>-0.13</ele>
  <time>2026-09-01T01:12:49Z</time>
  <course>188.39</course>
  <speed>0.01414213562373095</speed>
  <fix>3d</fix>
</trkpt>
<trkpt lat="33.810313" lon="-118.393867">
  <ele>-0.12</ele>
  <time>2026-09-01T01:12:49Z</time>
  <course>0.0</course>
  <speed>0.0</speed>
  <fix>3d</fix>
</trkpt>
<trkpt lat="33.810313" lon="-118.393867">
  <ele>-0.13</ele>
  <time>2026-09-01T01:12:49Z</time>
  <course>188.38</course>
  <speed>0.01414213562373095</speed>
  <fix>3d</fix>
</trkpt>
<trkpt lat="33.810313" lon="-118.393867">
  <ele>-0.12</ele>
  <time>2026-09-01T01:12:49Z</time>
  <course>0.0</course>
  <speed>0.0</speed>
  <fix>3d</fix>
</trkpt>
<trkpt lat="33.810313" lon="-118.393867">
  <ele>-0.129</ele>
  <time>2026-09-01T01:12:49Z</time>
  <course>188.37</course>
  <speed>0.01414213562373095</speed>
  <fix>3d</fix>
</trkpt>
<trkpt lat="33.810313" lon="-118.393867">
  <ele>-0.12</ele>
  <time>2026-09-01T01:12:49Z</time>
  <course>0.0</course>
  <speed>0.0</speed>
  <fix>3d</fix>
</trkpt>
<trkpt lat="33.810313" lon="-118.393867">
  <ele>-0.128</ele>
  <time>2026-09-01T01:12:49Z</time>
  <course>188.37</course>
  <speed>0.01414213562373095</speed>
  <fix>3d</fix>
</trkpt>
<trkpt lat="33.810313" lon="-118.393867">
  <ele>-0.12</ele>
  <time>2026-09-01T01:12:49Z</time>
  <course>0.0</course>
  <speed>0.0</speed>
  <fix>3d</fix>
</trkpt>
<trkpt lat="33.810313" lon="-118.393867">
  <ele>-0.126</ele>
  <time>2026-09-01T01:12:49Z</time>
  <course>188.36</course>
  <speed>0.01414213562373095</speed>
  <fix>3d</fix>
</trkpt>
<trkpt lat="33.810313" lon="-118.393867">
  <ele>-0.12</ele>
  <time>2026-09-01T01:12:49Z</time>
  <course>0.0</course>
  <speed>0.0</speed>
  <fix>3d</fix>
</trkpt>
<trkpt lat="33.810313" lon="-118.393867">
  <ele>-0.124</ele>
  <time>2026-09-01T01:12:49Z</time>
  <course>188.35</course>
  <speed>0.01414213562373095</speed>
  <fix>3d</fix>
</trkpt>
<trkpt lat="33.810313" lon="-118.393867">
  <ele>-0.12</ele>
  <time>2026-09-01T01:12:49Z</time>
  <course>0.0</course>
  <speed>0.0</speed>
  <fix>3d</fix>
</trkpt>
<trkpt lat="33.810313" lon="-118.393867">
  <ele>-0.122</ele>
  <time>2026-09-01T01:12:49Z</time>
  <course>188.34</course>
  <speed>0.01414213562373095</speed>
  <fix>3d</fix>
</trkpt>
<trkpt lat="33.810313" lon="-118.393867">
  <ele>-0.12</ele>
  <time>2026-09-01T01:12:49Z</time>
  <course>0.0</course>
  <speed>0.0</speed>
  <fix>3d</fix>
</trkpt>
<trkpt lat="33.810313" lon="-118.393867">
  <ele>-0.123</ele>
  <time>2026-09-01T01:12:49Z</time>
  <course>188.34</course>
  <speed>0.01414213562373095</speed>
  <fix>3d</fix>
</trkpt>
<trkpt lat="33.810313" lon="-118.393867">
  <ele>-0.12</ele>
  <time>2026-09-01T01:12:49Z</time>
  <course>0.0</course>
  <speed>0.0</speed>
  <fix>3d</fix>
</trkpt>
<trkpt lat="33.810313" lon="-118.393867">
  <ele>-0.125</ele>
  <time>2026-09-01T01:12:49Z</time>
  <course>188.33</course>
  <speed>0.01414213562373095</speed>
  <fix>3d</fix>
</trkpt>
<trkpt lat="33.810313" lon="-118.393867">
  <ele>-0.12</ele>
  <time>2026-09-01T01:12:49Z</time>
  <course>0.0</course>
  <speed>0.0</speed>
  <fix>3d</fix>
</trkpt>
<trkpt lat="33.810313" lon="-118.393867">
  <ele>-0.128</ele>
  <time>2026-09-01T01:12:49Z</time>
  <course>188.32</course>
  <speed>0.01414213562373095</speed>
  <fix>3d</fix>
</trkpt>
<trkpt lat="33.810313" lon="-118.393867">
  <ele>-0.12</ele>
  <time>2026-09-01T01:12:49Z</time>
  <course>0.0</course>
  <speed>0.0</speed>
  <fix>3d</fix>
</trkpt>
<trkpt lat="33.810313" lon="-118.393867">
  <ele>-0.131</ele>
  <time>2026-09-01T01:12:49Z</time>
  <course>188.31</course>
  <speed>0.01414213562373095</speed>
  <fix>3d</fix>
</trkpt>
<trkpt lat="33.810313" lon="-118.393867">
  <ele>-0.12</ele>
  <time>2026-09-01T01:12:49Z</time>
  <course>0.0</course>
  <speed>0.0</speed>
  <fix>3d</fix>
</trkpt>
<trkpt lat="33.810313" lon="-118.393867">
  <ele>-0.134</ele>
  <time>2026-09-01T01:12:49Z</time>
  <course>188.3</course>
  <speed>0.01414213562373095</speed>
  <fix>3d</fix>
</trkpt>
<trkpt lat="33.810313" lon="-118.393867">
  <ele>-0.12</ele>
  <time>2026-09-01T01:12:49Z</time>
  <course>0.0</course>
  <speed>0.0</speed>
  <fix>3d</fix>
</trkpt>
<trkpt lat="33.810313" lon="-118.393867">
  <ele>-0.135</ele>
  <time>2026-09-01T01:12:49Z</time>
  <course>188.3</course>
  <speed>0.01414213562373095</speed>
  <fix>3d</fix>
</trkpt>
<trkpt lat="33.810313" lon="-118.393867">
  <ele>-0.12</ele>
  <time>2026-09-01T01:12:49Z</time>
  <course>0.0</course>
  <speed>0.0</speed>
  <fix>3d</fix>
</trkpt>
<trkpt lat="33.810313" lon="-118.393867">
  <ele>-0.134</ele>
  <time>2026-09-01T01:12:49Z</time>
  <course>188.29</course>
  <speed>0.01414213562373095</speed>
  <fix>3d</fix>
</trkpt>
<trkpt lat="33.810313" lon="-118.393867">
  <ele>-0.12</ele>
  <time>2026-09-01T01:12:49Z</time>
  <course>0.0</course>
  <speed>0.0</speed>
  <fix>3d</fix>
</trkpt>
<trkpt lat="33.810313" lon="-118.393867">
  <ele>-0.132</ele>
  <time>2026-09-01T01:12:49Z</time>
  <course>188.28</course>
  <speed>0.01414213562373095</speed>
  <fix>3d</fix>
</trkpt>
<trkpt lat="33.810313" lon="-118.393867">
  <ele>-0.12</ele>
  <time>2026-09-01T01:12:49Z</time>
  <course>0.0</course>
  <speed>0.0</speed>
  <fix>3d</fix>
</trkpt>
<trkpt lat="33.810313" lon="-118.393867">
  <ele>-0.13</ele>
  <time>2026-09-01T01:12:49Z</time>
  <course>188.27</course>
  <speed>0.01414213562373095</speed>
  <fix>3d</fix>
</trkpt>
<trkpt lat="33.810313" lon="-118.393867">
  <ele>-0.12</ele>
  <time>2026-09-01T01:12:49Z</time>
  <course>0.0</course>
  <speed>0.0</speed>
  <fix>3d</fix>
</trkpt>
<trkpt lat="33.810313" lon="-118.393867">
  <ele>-0.127</ele>
  <time>2026-09-01T01:12:49Z</time>
  <course>188.26</course>
  <speed>0.01414213562373095</speed>
  <fix>3d</fix>
</trkpt>
<trkpt lat="33.810313" lon="-118.393867">
  <ele>-0.12</ele>
  <time>2026-09-01T01:12:49Z</time>
  <course>0.0</course>
  <speed>0.0</speed>
  <fix>3d</fix>
</trkpt>
<trkpt lat="33.810313" lon="-118.393867">
  <ele>-0.125</ele>
  <time>2026-09-01T01:12:49Z</time>
  <course>188.25</course>
  <speed>0.01414213562373095</speed>
  <fix>3d</fix>
</trkpt>
<trkpt lat="33.810313" lon="-118.393867">
  <ele>-0.12</ele>
  <time>2026-09-01T01:12:49Z</time>
  <course>0.0</course>
  <speed>0.0</speed>
  <fix>3d</fix>
</trkpt>
<trkpt lat="33.810313" lon="-118.393867">
  <ele>-0.123</ele>
  <time>2026-09-01T01:12:49Z</time>
  <course>188.25</course>
  <speed>0.01414213562373095</speed>
  <fix>3d</fix>
</trkpt>
<trkpt lat="33.810313" lon="-118.393867">
  <ele>-0.12</ele>
  <time>2026-09-01T01:12:49Z</time>
  <course>0.0</course>
  <speed>0.0</speed>
  <fix>3d</fix>
</trkpt>
<trkpt lat="33.810313" lon="-118.393867">
  <ele>-0.124</ele>
  <time>2026-09-01T01:12:49Z</time>
  <course>188.24</course>
  <speed>0.01414213562373095</speed>
  <fix>3d</fix>
</trkpt>
<trkpt lat="33.810313" lon="-118.393867">
  <ele>-0.12</ele>
  <time>2026-09-01T01:12:49Z</time>
  <course>0.0</course>
  <speed>0.0</speed>
  <fix>3d</fix>
</trkpt>
<trkpt lat="33.810313" lon="-118.393867">
  <ele>-0.125</ele>
  <time>2026-09-01T01:12:49Z</time>
  <course>188.23</course>
  <speed>0.01414213562373095</speed>
  <fix>3d</fix>
</trkpt>
<trkpt lat="33.810313" lon="-118.393867">
  <ele>-0.12</ele>
  <time>2026-09-01T01:12:49Z</time>
  <course>0.0</course>
  <speed>0.0</speed>
  <fix>3d</fix>
</trkpt>
<trkpt lat="33.810313" lon="-118.393867">
  <ele>-0.127</ele>
  <time>2026-09-01T01:12:49Z</time>
  <course>188.22</course>
  <speed>0.01414213562373095</speed>
  <fix>3d</fix>
</trkpt>
<trkpt lat="33.810313" lon="-118.393867">
  <ele>-0.12</ele>
  <time>2026-09-01T01:12:49Z</time>
  <course>0.0</course>
  <speed>0.0</speed>
  <fix>3d</fix>
</trkpt>
<trkpt lat="33.810313" lon="-118.393867">
  <ele>-0.128</ele>
  <time>2026-09-01T01:12:49Z</time>
  <course>188.21</course>
  <speed>0.01414213562373095</speed>
  <fix>3d</fix>
</trkpt>
<trkpt lat="33.810313" lon="-118.393867">
  <ele>-0.12</ele>
  <time>2026-09-01T01:12:49Z</time>
  <course>0.0</course>
  <speed>0.0</speed>
  <fix>3d</fix>
</trkpt>
<trkpt lat="33.810313" lon="-118.393867">
  <ele>-0.129</ele>
  <time>2026-09-01T01:12:49Z</time>
  <course>188.21</course>
  <speed>0.01414213562373095</speed>
  <fix>3d</fix>
</trkpt>
<trkpt lat="33.810313" lon="-118.393867">
  <ele>-0.12</ele>
  <time>2026-09-01T01:12:49Z</time>
  <course>0.0</course>
  <speed>0.0</speed>
  <fix>3d</fix>
</trkpt>
<trkpt lat="33.810313" lon="-118.393867">
  <ele>-0.129</ele>
  <time>2026-09-01T01:12:49Z</time>
  <course>188.2</course>
  <speed>0.01414213562373095</speed>
  <fix>3d</fix>
</trkpt>
<trkpt lat="33.810313" lon="-118.393867">
  <ele>-0.12</ele>
  <time>2026-09-01T01:12:49Z</time>
  <course>0.0</course>
  <speed>0.0</speed>
  <fix>3d</fix>
</trkpt>
<trkpt lat="33.810313" lon="-118.393867">
  <ele>-0.128</ele>
  <time>2026-09-01T01:12:49Z</time>
  <course>188.19</course>
  <speed>0.01414213562373095</speed>
  <fix>3d</fix>
</trkpt>
<trkpt lat="33.810313" lon="-118.393867">
  <ele>-0.12</ele>
  <time>2026-09-01T01:12:49Z</time>
  <course>0.0</course>
  <speed>0.0</speed>
  <fix>3d</fix>
</trkpt>
<trkpt lat="33.810313" lon="-118.393867">
  <ele>-0.128</ele>
  <time>2026-09-01T01:12:49Z</time>
  <course>188.18</course>
  <speed>0.01414213562373095</speed>
  <fix>3d</fix>
</trkpt>
<trkpt lat="33.810313" lon="-118.393867">
  <ele>-0.12</ele>
  <time>2026-09-01T01:12:49Z</time>
  <course>0.0</course>
  <speed>0.0</speed>
  <fix>3d</fix>
</trkpt>
<trkpt lat="33.810313" lon="-118.393867">
  <ele>-0.127</ele>
  <time>2026-09-01T01:12:49Z</time>
  <course>188.17</course>
  <speed>0.01414213562373095</speed>
  <fix>3d</fix>
</trkpt>
<trkpt lat="33.810313" lon="-118.393867">
  <ele>-0.12</ele>
  <time>2026-09-01T01:12:49Z</time>
  <course>0.0</course>
  <speed>0.0</speed>
  <fix>3d</fix>
</trkpt>
<trkpt lat="33.810313" lon="-118.393867">
  <ele>-0.127</ele>
  <time>2026-09-01T01:12:49Z</time>
  <course>188.16</course>
  <speed>0.01414213562373095</speed>
  <fix>3d</fix>
</trkpt>
<trkpt lat="33.810313" lon="-118.393867">
  <ele>-0.12</ele>
  <time>2026-09-01T01:12:49Z</time>
  <course>0.0</course>
  <speed>0.0</speed>
  <fix>3d</fix>
</trkpt>
<trkpt lat="33.810313" lon="-118.393867">
  <ele>-0.128</ele>
  <time>2026-09-01T01:12:49Z</time>
  <course>188.16</course>
  <speed>0.01414213562373095</speed>
  <fix>3d</fix>
</trkpt>
<trkpt lat="33.810313" lon="-118.393867">
  <ele>-0.12</ele>
  <time>2026-09-01T01:12:49Z</time>
  <course>0.0</course>
  <speed>0.0</speed>
  <fix>3d</fix>
</trkpt>
<trkpt lat="33.810313" lon="-118.393867">
  <ele>-0.129</ele>
  <time>2026-09-01T01:12:49Z</time>
  <course>188.15</course>
  <speed>0.01414213562373095</speed>
  <fix>3d</fix>
</trkpt>
<trkpt lat="33.810313" lon="-118.393867">
  <ele>-0.12</ele>
  <time>2026-09-01T01:12:49Z</time>
  <course>0.0</course>
  <speed>0.0</speed>
  <fix>3d</fix>
</trkpt>
<trkpt lat="33.810313" lon="-118.393867">
  <ele>-0.131</ele>
  <time>2026-09-01T01:12:49Z</time>
  <course>188.14</course>
  <speed>0.01414213562373095</speed>
  <fix>3d</fix>
</trkpt>
<trkpt lat="33.810313" lon="-118.393867">
  <ele>-0.12</ele>
  <time>2026-09-01T01:12:49Z</time>
  <course>0.0</course>
  <speed>0.0</speed>
  <fix>3d</fix>
</trkpt>
<trkpt lat="33.810313" lon="-118.393867">
  <ele>-0.133</ele>
  <time>2026-09-01T01:12:49Z</time>
  <course>188.13</course>
  <speed>0.01414213562373095</speed>
  <fix>3d</fix>
</trkpt>
<trkpt lat="33.810313" lon="-118.393867">
  <ele>-0.12</ele>
  <time>2026-09-01T01:12:49Z</time>
  <course>0.0</course>
  <speed>0.0</speed>
  <fix>3d</fix>
</trkpt>
<trkpt lat="33.810313" lon="-118.393867">
  <ele>-0.135</ele>
  <time>2026-09-01T01:12:49Z</time>
  <course>188.12</course>
  <speed>0.01414213562373095</speed>
  <fix>3d</fix>
</trkpt>
<trkpt lat="33.810313" lon="-118.393867">
  <ele>-0.12</ele>
  <time>2026-09-01T01:12:49Z</time>
  <course>0.0</course>
  <speed>0.0</speed>
  <fix>3d</fix>
</trkpt>
<trkpt lat="33.810313" lon="-118.393867">
  <ele>-0.136</ele>
  <time>2026-09-01T01:12:49Z</time>
  <course>188.12</course>
  <speed>0.01414213562373095</speed>
  <fix>3d</fix>
</trkpt>
<trkpt lat="33.810313" lon="-118.393867">
  <ele>-0.12</ele>
  <time>2026-09-01T01:12:49Z</time>
  <course>0.0</course>
  <speed>0.0</speed>
  <fix>3d</fix>
</trkpt>
<trkpt lat="33.810313" lon="-118.393867">
  <ele>-0.136</ele>
  <time>2026-09-01T01:12:49Z</time>
  <course>188.11</course>
  <speed>0.01414213562373095</speed>
  <fix>3d</fix>
</trkpt>
<trkpt lat="33.810313" lon="-118.393867">
  <ele>-0.12</ele>
  <time>2026-09-01T01:12:49Z</time>
  <course>0.0</course>
  <speed>0.0</speed>
  <fix>3d</fix>
</trkpt>
<trkpt lat="33.810313" lon="-118.393867">
  <ele>-0.136</ele>
  <time>2026-09-01T01:12:49Z</time>
  <course>188.1</course>
  <speed>0.01414213562373095</speed>
  <fix>3d</fix>
</trkpt>
<trkpt lat="33.810313" lon="-118.393867">
  <ele>-0.12</ele>
  <time>2026-09-01T01:12:49Z</time>
  <course>0.0</course>
  <speed>0.0</speed>
  <fix>3d</fix>
</trkpt>
<trkpt lat="33.810313" lon="-118.393867">
  <ele>-0.135</ele>
  <time>2026-09-01T01:12:49Z</time>
  <course>188.09</course>
  <speed>0.01414213562373095</speed>
  <fix>3d</fix>
</trkpt>
<trkpt lat="33.810313" lon="-118.393867">
  <ele>-0.12</ele>
  <time>2026-09-01T01:12:49Z</time>
  <course>0.0</course>
  <speed>0.0</speed>
  <fix>3d</fix>
</trkpt>
<trkpt lat="33.810313" lon="-118.393867">
  <ele>-0.134</ele>
  <time>2026-09-01T01:12:49Z</time>
  <course>188.08</course>
  <speed>0.01414213562373095</speed>
  <fix>3d</fix>
</trkpt>
<trkpt lat="33.810313" lon="-118.393867">
  <ele>-0.12</ele>
  <time>2026-09-01T01:12:49Z</time>
  <course>0.0</course>
  <speed>0.0</speed>
  <fix>3d</fix>
</trkpt>
<trkpt lat="33.810313" lon="-118.393867">
  <ele>-0.131</ele>
  <time>2026-09-01T01:12:49Z</time>
  <course>188.07</course>
  <speed>0.022360679774997897</speed>
  <fix>3d</fix>
</trkpt>
<trkpt lat="33.810313" lon="-118.393867">
  <ele>-0.12</ele>
  <time>2026-09-01T01:12:49Z</time>
  <course>0.0</course>
  <speed>0.0</speed>
  <fix>3d</fix>
</trkpt>
<trkpt lat="33.810313" lon="-118.393867">
  <ele>-0.128</ele>
  <time>2026-09-01T01:12:49Z</time>
  <course>188.07</course>
  <speed>0.022360679774997897</speed>
  <fix>3d</fix>
</trkpt>
<trkpt lat="33.810313" lon="-118.393867">
  <ele>-0.12</ele>
  <time>2026-09-01T01:12:49Z</time>
  <course>0.0</course>
  <speed>0.0</speed>
  <fix>3d</fix>
</trkpt>
<trkpt lat="33.810313" lon="-118.393867">
  <ele>-0.127</ele>
  <time>2026-09-01T01:12:49Z</time>
  <course>188.06</course>
  <speed>0.022360679774997897</speed>
  <fix>3d</fix>
</trkpt>
<trkpt lat="33.810313" lon="-118.393867">
  <ele>-0.12</ele>
  <time>2026-09-01T01:12:49Z</time>
  <course>0.0</course>
  <speed>0.0</speed>
  <fix>3d</fix>
</trkpt>
<trkpt lat="33.810313" lon="-118.393867">
  <ele>-0.126</ele>
  <time>2026-09-01T01:12:49Z</time>
  <course>188.05</course>
  <speed>0.022360679774997897</speed>
  <fix>3d</fix>
</trkpt>
<trkpt lat="33.810313" lon="-118.393867">
  <ele>-0.12</ele>
  <time>2026-09-01T01:12:49Z</time>
  <course>0.0</course>
  <speed>0.0</speed>
  <fix>3d</fix>
</trkpt>
<trkpt lat="33.810313" lon="-118.393867">
  <ele>-0.126</ele>
  <time>2026-09-01T01:12:49Z</time>
  <course>188.04</course>
  <speed>0.022360679774997897</speed>
  <fix>3d</fix>
</trkpt>
<trkpt lat="33.810313" lon="-118.393867">
  <ele>-0.12</ele>
  <time>2026-09-01T01:12:49Z</time>
  <course>0.0</course>
  <speed>0.0</speed>
  <fix>3d</fix>
</trkpt>
<trkpt lat="33.810313" lon="-118.393867">
  <ele>-0.127</ele>
  <time>2026-09-01T01:12:49Z</time>
  <course>188.03</course>
  <speed>0.022360679774997897</speed>
  <fix>3d</fix>
</trkpt>
<trkpt lat="33.810313" lon="-118.393867">
  <ele>-0.12</ele>
  <time>2026-09-01T01:12:49Z</time>
  <course>0.0</course>
  <speed>0.0</speed>
  <fix>3d</fix>
</trkpt>
<trkpt lat="33.810313" lon="-118.393867">
  <ele>-0.127</ele>
  <time>2026-09-01T01:12:49Z</time>
  <course>188.03</course>
  <speed>0.022360679774997897</speed>
  <fix>3d</fix>
</trkpt>
<trkpt lat="33.810313" lon="-118.393867">
  <ele>-0.12</ele>
  <time>2026-09-01T01:12:49Z</time>
  <course>0.0</course>
  <speed>0.0</speed>
  <fix>3d</fix>
</trkpt>
<trkpt lat="33.810313" lon="-118.393867">
  <ele>-0.127</ele>
  <time>2026-09-01T01:12:49Z</time>
  <course>188.02</course>
  <speed>0.022360679774997897</speed>
  <fix>3d</fix>
</trkpt>
<trkpt lat="33.810313" lon="-118.393867">
  <ele>-0.12</ele>
  <time>2026-09-01T01:12:49Z</time>
  <course>0.0</course>
  <speed>0.0</speed>
  <fix>3d</fix>
</trkpt>
<trkpt lat="33.810313" lon="-118.393867">
  <ele>-0.128</ele>
  <time>2026-09-01T01:12:49Z</time>
  <course>188.01</course>
  <speed>0.022360679774997897</speed>
  <fix>3d</fix>
</trkpt>
<trkpt lat="33.810313" lon="-118.393867">
  <ele>-0.12</ele>
  <time>2026-09-01T01:12:49Z</time>
  <course>0.0</course>
  <speed>0.0</speed>
  <fix>3d</fix>
</trkpt>
<trkpt lat="33.810313" lon="-118.393867">
  <ele>-0.128</ele>
  <time>2026-09-01T01:12:49Z</time>
  <course>188.0</course>
  <speed>0.022360679774997897</speed>
  <fix>3d</fix>
</trkpt>
<trkpt lat="33.810313" lon="-118.393867">
  <ele>-0.12</ele>
  <time>2026-09-01T01:12:49Z</time>
  <course>0.0</course>
  <speed>0.0</speed>
  <fix>3d</fix>
</trkpt>
<trkpt lat="33.810313" lon="-118.393867">
  <ele>-0.128</ele>
  <time>2026-09-01T01:12:49Z</time>
  <course>187.99</course>
  <speed>0.022360679774997897</speed>
  <fix>3d</fix>
</trkpt>
<trkpt lat="33.810313" lon="-118.393867">
  <ele>-0.12</ele>
  <time>2026-09-01T01:12:49Z</time>
  <course>0.0</course>
  <speed>0.0</speed>
  <fix>3d</fix>
</trkpt>
<trkpt lat="33.810313" lon="-118.393867">
  <ele>-0.126</ele>
  <time>2026-09-01T01:12:49Z</time>
  <course>187.99</course>
  <speed>0.022360679774997897</speed>
  <fix>3d</fix>
</trkpt>
<trkpt lat="33.810313" lon="-118.393867">
  <ele>-0.12</ele>
  <time>2026-09-01T01:12:49Z</time>
  <course>0.0</course>
  <speed>0.0</speed>
  <fix>3d</fix>
</trkpt>
<trkpt lat="33.810313" lon="-118.393867">
  <ele>-0.124</ele>
  <time>2026-09-01T01:12:49Z</time>
  <course>187.98</course>
  <speed>0.022360679774997897</speed>
  <fix>3d</fix>
</trkpt>
<trkpt lat="33.810313" lon="-118.393867">
  <ele>-0.12</ele>
  <time>2026-09-01T01:12:49Z</time>
  <course>0.0</course>
  <speed>0.0</speed>
  <fix>3d</fix>
</trkpt>
<trkpt lat="33.810313" lon="-118.393867">
  <ele>-0.122</ele>
  <time>2026-09-01T01:12:49Z</time>
  <course>187.97</course>
  <speed>0.022360679774997897</speed>
  <fix>3d</fix>
</trkpt>
<trkpt lat="33.810313" lon="-118.393867">
  <ele>-0.12</ele>
  <time>2026-09-01T01:12:49Z</time>
  <course>0.0</course>
  <speed>0.0</speed>
  <fix>3d</fix>
</trkpt>
<trkpt lat="33.810313" lon="-118.393867">
  <ele>-0.12</ele>
  <time>2026-09-01T01:12:49Z</time>
  <course>187.96</course>
  <speed>0.022360679774997897</speed>
  <fix>3d</fix>
</trkpt>
<trkpt lat="33.810313" lon="-118.393867">
  <ele>-0.12</ele>
  <time>2026-09-01T01:12:49Z</time>
  <course>0.0</course>
  <speed>0.0</speed>
  <fix>3d</fix>
</trkpt>
<trkpt lat="33.810313" lon="-118.393867">
  <ele>-0.12</ele>
  <time>2026-09-01T01:12:49Z</time>
  <course>187.95</course>
  <speed>0.022360679774997897</speed>
  <fix>3d</fix>
</trkpt>
<trkpt lat="33.810313" lon="-118.393867">
  <ele>-0.12</ele>
  <time>2026-09-01T01:12:49Z</time>
  <course>0.0</course>
  <speed>0.0</speed>
  <fix>3d</fix>
</trkpt>
<trkpt lat="33.810313" lon="-118.393867">
  <ele>-0.122</ele>
  <time>2026-09-01T01:12:49Z</time>
  <course>187.94</course>
  <speed>0.022360679774997897</speed>
  <fix>3d</fix>
</trkpt>
<trkpt lat="33.810313" lon="-118.393867">
  <ele>-0.12</ele>
  <time>2026-09-01T01:12:49Z</time>
  <course>0.0</course>
  <speed>0.0</speed>
  <fix>3d</fix>
</trkpt>
<trkpt lat="33.810313" lon="-118.393867">
  <ele>-0.125</ele>
  <time>2026-09-01T01:12:49Z</time>
  <course>187.94</course>
  <speed>0.022360679774997897</speed>
  <fix>3d</fix>
</trkpt>
<trkpt lat="33.810313" lon="-118.393867">
  <ele>-0.12</ele>
  <time>2026-09-01T01:12:49Z</time>
  <course>0.0</course>
  <speed>0.0</speed>
  <fix>3d</fix>
</trkpt>
<trkpt lat="33.810313" lon="-118.393867">
  <ele>-0.128</ele>
  <time>2026-09-01T01:12:49Z</time>
  <course>187.93</course>
  <speed>0.022360679774997897</speed>
  <fix>3d</fix>
</trkpt>
<trkpt lat="33.810313" lon="-118.393867">
  <ele>-0.12</ele>
  <time>2026-09-01T01:12:49Z</time>
  <course>0.0</course>
  <speed>0.0</speed>
  <fix>3d</fix>
</trkpt>
<trkpt lat="33.810313" lon="-118.393867">
  <ele>-0.131</ele>
  <time>2026-09-01T01:12:49Z</time>
  <course>187.92</course>
  <speed>0.022360679774997897</speed>
  <fix>3d</fix>
</trkpt>
<trkpt lat="33.810313" lon="-118.393867">
  <ele>-0.12</ele>
  <time>2026-09-01T01:12:49Z</time>
  <course>0.0</course>
  <speed>0.0</speed>
  <fix>3d</fix>
</trkpt>
<trkpt lat="33.810313" lon="-118.393867">
  <ele>-0.132</ele>
  <time>2026-09-01T01:12:49Z</time>
  <course>187.91</course>
  <speed>0.022360679774997897</speed>
  <fix>3d</fix>
</trkpt>
<trkpt lat="33.810313" lon="-118.393867">
  <ele>-0.12</ele>
  <time>2026-09-01T01:12:49Z</time>
  <course>0.0</course>
  <speed>0.0</speed>
  <fix>3d</fix>
</trkpt>
<trkpt lat="33.810313" lon="-118.393867">
  <ele>-0.132</ele>
  <time>2026-09-01T01:12:49Z</time>
  <course>187.91</course>
  <speed>0.022360679774997897</speed>
  <fix>3d</fix>
</trkpt>
<trkpt lat="33.810313" lon="-118.393867">
  <ele>-0.12</ele>
  <time>2026-09-01T01:12:49Z</time>
  <course>0.0</course>
  <speed>0.0</speed>
  <fix>3d</fix>
</trkpt>
<trkpt lat="33.810313" lon="-118.393867">
  <ele>-0.132</ele>
  <time>2026-09-01T01:12:49Z</time>
  <course>187.9</course>
  <speed>0.022360679774997897</speed>
  <fix>3d</fix>
</trkpt>
<trkpt lat="33.810313" lon="-118.393867">
  <ele>-0.12</ele>
  <time>2026-09-01T01:12:49Z</time>
  <course>0.0</course>
  <speed>0.0</speed>
  <fix>3d</fix>
</trkpt>
<trkpt lat="33.810313" lon="-118.393867">
  <ele>-0.13</ele>
  <time>2026-09-01T01:12:49Z</time>
  <course>187.89</course>
  <speed>0.022360679774997897</speed>
  <fix>3d</fix>
</trkpt>
<trkpt lat="33.810313" lon="-118.393867">
  <ele>-0.12</ele>
  <time>2026-09-01T01:12:49Z</time>
  <course>0.0</course>
  <speed>0.0</speed>
  <fix>3d</fix>
</trkpt>
<trkpt lat="33.810313" lon="-118.393867">
  <ele>-0.127</ele>
  <time>2026-09-01T01:12:49Z</time>
  <course>187.88</course>
  <speed>0.022360679774997897</speed>
  <fix>3d</fix>
</trkpt>
<trkpt lat="33.810313" lon="-118.393867">
  <ele>-0.12</ele>
  <time>2026-09-01T01:12:49Z</time>
  <course>0.0</course>
  <speed>0.0</speed>
  <fix>3d</fix>
</trkpt>
<trkpt lat="33.810313" lon="-118.393867">
  <ele>-0.123</ele>
  <time>2026-09-01T01:12:49Z</time>
  <course>187.87</course>
  <speed>0.022360679774997897</speed>
  <fix>3d</fix>
</trkpt>
<trkpt lat="33.810313" lon="-118.393867">
  <ele>-0.12</ele>
  <time>2026-09-01T01:12:49Z</time>
  <course>0.0</course>
  <speed>0.0</speed>
  <fix>3d</fix>
</trkpt>
<trkpt lat="33.810313" lon="-118.393867">
  <ele>-0.121</ele>
  <time>2026-09-01T01:12:49Z</time>
  <course>187.87</course>
  <speed>0.022360679774997897</speed>
  <fix>3d</fix>
</trkpt>
<trkpt lat="33.810313" lon="-118.393867">
  <ele>-0.12</ele>
  <time>2026-09-01T01:12:49Z</time>
  <course>0.0</course>
  <speed>0.0</speed>
  <fix>3d</fix>
</trkpt>
<trkpt lat="33.810313" lon="-118.393867">
  <ele>-0.121</ele>
  <time>2026-09-01T01:12:49Z</time>
  <course>187.86</course>
  <speed>0.022360679774997897</speed>
  <fix>3d</fix>
</trkpt>
<trkpt lat="33.810313" lon="-118.393867">
  <ele>-0.12</ele>
  <time>2026-09-01T01:12:49Z</time>
  <course>0.0</course>
  <speed>0.0</speed>
  <fix>3d</fix>
</trkpt>
<trkpt lat="33.810313" lon="-118.393867">
  <ele>-0.123</ele>
  <time>2026-09-01T01:12:49Z</time>
  <course>187.85</course>
  <speed>0.022360679774997897</speed>
  <fix>3d</fix>
</trkpt>
<trkpt lat="33.810313" lon="-118.393867">
  <ele>-0.12</ele>
  <time>2026-09-01T01:12:49Z</time>
  <course>0.0</course>
  <speed>0.0</speed>
  <fix>3d</fix>
</trkpt>
<trkpt lat="33.810313" lon="-118.393867">
  <ele>-0.124</ele>
  <time>2026-09-01T01:12:49Z</time>
  <course>187.84</course>
  <speed>0.022360679774997897</speed>
  <fix>3d</fix>
</trkpt>
<trkpt lat="33.810313" lon="-118.393867">
  <ele>-0.12</ele>
  <time>2026-09-01T01:12:49Z</time>
  <course>0.0</course>
  <speed>0.0</speed>
  <fix>3d</fix>
</trkpt>
<trkpt lat="33.810313" lon="-118.393867">
  <ele>-0.126</ele>
  <time>2026-09-01T01:12:49Z</time>
  <course>187.83</course>
  <speed>0.022360679774997897</speed>
  <fix>3d</fix>
</trkpt>
<trkpt lat="33.810313" lon="-118.393867">
  <ele>-0.12</ele>
  <time>2026-09-01T01:12:49Z</time>
  <course>0.0</course>
  <speed>0.0</speed>
  <fix>3d</fix>
</trkpt>
<trkpt lat="33.810313" lon="-118.393867">
  <ele>-0.127</ele>
  <time>2026-09-01T01:12:49Z</time>
  <course>187.83</course>
  <speed>0.022360679774997897</speed>
  <fix>3d</fix>
</trkpt>
<trkpt lat="33.810313" lon="-118.393867">
  <ele>-0.12</ele>
  <time>2026-09-01T01:12:49Z</time>
  <course>0.0</course>
  <speed>0.0</speed>
  <fix>3d</fix>
</trkpt>
<trkpt lat="33.810313" lon="-118.393867">
  <ele>-0.127</ele>
  <time>2026-09-01T01:12:49Z</time>
  <course>187.82</course>
  <speed>0.022360679774997897</speed>
  <fix>3d</fix>
</trkpt>
<trkpt lat="33.810313" lon="-118.393867">
  <ele>-0.12</ele>
  <time>2026-09-01T01:12:49Z</time>
  <course>0.0</course>
  <speed>0.0</speed>
  <fix>3d</fix>
</trkpt>
<trkpt lat="33.810313" lon="-118.393867">
  <ele>-0.127</ele>
  <time>2026-09-01T01:12:49Z</time>
  <course>187.81</course>
  <speed>0.022360679774997897</speed>
  <fix>3d</fix>
</trkpt>
<trkpt lat="33.810313" lon="-118.393867">
  <ele>-0.12</ele>
  <time>2026-09-01T01:12:49Z</time>
  <course>0.0</course>
  <speed>0.0</speed>
  <fix>3d</fix>
</trkpt>
<trkpt lat="33.810313" lon="-118.393867">
  <ele>-0.126</ele>
  <time>2026-09-01T01:12:49Z</time>
  <course>187.8</course>
  <speed>0.022360679774997897</speed>
  <fix>3d</fix>
</trkpt>
<trkpt lat="33.810313" lon="-118.393867">
  <ele>-0.12</ele>
  <time>2026-09-01T01:12:49Z</time>
  <course>0.0</course>
  <speed>0.0</speed>
  <fix>3d</fix>
</trkpt>
<trkpt lat="33.810313" lon="-118.393867">
  <ele>-0.124</ele>
  <time>2026-09-01T01:12:49Z</time>
  <course>187.8</course>
  <speed>0.022360679774997897</speed>
  <fix>3d</fix>
</trkpt>
<trkpt lat="33.810313" lon="-118.393867">
  <ele>-0.12</ele>
  <time>2026-09-01T01:12:49Z</time>
  <course>0.0</course>
  <speed>0.0</speed>
  <fix>3d</fix>
</trkpt>
<trkpt lat="33.810313" lon="-118.393867">
  <ele>-0.121</ele>
  <time>2026-09-01T01:12:49Z</time>
  <course>187.79</course>
  <speed>0.022360679774997897</speed>
  <fix>3d</fix>
</trkpt>
<trkpt lat="33.810313" lon="-118.393867">
  <ele>-0.12</ele>
  <time>2026-09-01T01:12:49Z</time>
  <course>0.0</course>
  <speed>0.0</speed>
  <fix>3d</fix>
</trkpt>
<trkpt lat="33.810313" lon="-118.393867">
  <ele>-0.119</ele>
  <time>2026-09-01T01:12:49Z</time>
  <course>187.78</course>
  <speed>0.022360679774997897</speed>
  <fix>3d</fix>
</trkpt>
<trkpt lat="33.810313" lon="-118.393867">
  <ele>-0.12</ele>
  <time>2026-09-01T01:12:49Z</time>
  <course>0.0</course>
  <speed>0.0</speed>
  <fix>3d</fix>
</trkpt>
<trkpt lat="33.810313" lon="-118.393867">
  <ele>-0.118</ele>
  <time>2026-09-01T01:12:49Z</time>
  <course>187.77</course>
  <speed>0.022360679774997897</speed>
  <fix>3d</fix>
</trkpt>
<trkpt lat="33.810313" lon="-118.393867">
  <ele>-0.12</ele>
  <time>2026-09-01T01:12:49Z</time>
  <course>0.0</course>
  <speed>0.0</speed>
  <fix>3d</fix>
</trkpt>
<trkpt lat="33.810313" lon="-118.393867">
  <ele>-0.118</ele>
  <time>2026-09-01T01:12:49Z</time>
  <course>187.77</course>
  <speed>0.022360679774997897</speed>
  <fix>3d</fix>
</trkpt>
<trkpt lat="33.810313" lon="-118.393867">
  <ele>-0.12</ele>
  <time>2026-09-01T01:12:49Z</time>
  <course>0.0</course>
  <speed>0.0</speed>
  <fix>3d</fix>
</trkpt>
<trkpt lat="33.810313" lon="-118.393867">
  <ele>-0.119</ele>
  <time>2026-09-01T01:12:49Z</time>
  <course>187.76</course>
  <speed>0.022360679774997897</speed>
  <fix>3d</fix>
</trkpt>
<trkpt lat="33.810313" lon="-118.393867">
  <ele>-0.12</ele>
  <time>2026-09-01T01:12:49Z</time>
  <course>0.0</course>
  <speed>0.0</speed>
  <fix>3d</fix>
</trkpt>
<trkpt lat="33.810313" lon="-118.393867">
  <ele>-0.12</ele>
  <time>2026-09-01T01:12:49Z</time>
  <course>187.75</course>
  <speed>0.022360679774997897</speed>
  <fix>3d</fix>
</trkpt>
<trkpt lat="33.810313" lon="-118.393867">
  <ele>-0.12</ele>
  <time>2026-09-01T01:12:49Z</time>
  <course>0.0</course>
  <speed>0.0</speed>
  <fix>3d</fix>
</trkpt>
<trkpt lat="33.810313" lon="-118.393867">
  <ele>-0.12</ele>
  <time>2026-09-01T01:12:49Z</time>
  <course>187.74</course>
  <speed>0.0282842712474619</speed>
  <fix>3d</fix>
</trkpt>
<trkpt lat="33.810313" lon="-118.393867">
  <ele>-0.12</ele>
  <time>2026-09-01T01:12:49Z</time>
  <course>0.0</course>
  <speed>0.0</speed>
  <fix>3d</fix>
</trkpt>
<trkpt lat="33.810313" lon="-118.393867">
  <ele>-0.12</ele>
  <time>2026-09-01T01:12:49Z</time>
  <course>187.74</course>
  <speed>0.0282842712474619</speed>
  <fix>3d</fix>
</trkpt>
<trkpt lat="33.810313" lon="-118.393867">
  <ele>-0.12</ele>
  <time>2026-09-01T01:12:49Z</time>
  <course>0.0</course>
  <speed>0.0</speed>
  <fix>3d</fix>
</trkpt>
<trkpt lat="33.810313" lon="-118.393867">
  <ele>-0.119</ele>
  <time>2026-09-01T01:12:49Z</time>
  <course>187.73</course>
  <speed>0.0282842712474619</speed>
  <fix>3d</fix>
</trkpt>
<trkpt lat="33.810313" lon="-118.393867">
  <ele>-0.12</ele>
  <time>2026-09-01T01:12:49Z</time>
  <course>0.0</course>
  <speed>0.0</speed>
  <fix>3d</fix>
</trkpt>
<trkpt lat="33.810313" lon="-118.393867">
  <ele>-0.118</ele>
  <time>2026-09-01T01:12:49Z</time>
  <course>187.72</course>
  <speed>0.0282842712474619</speed>
  <fix>3d</fix>
</trkpt>
<trkpt lat="33.810313" lon="-118.393867">
  <ele>-0.12</ele>
  <time>2026-09-01T01:12:49Z</time>
  <course>0.0</course>
  <speed>0.0</speed>
  <fix>3d</fix>
</trkpt>
<trkpt lat="33.810313" lon="-118.393867">
  <ele>-0.116</ele>
  <time>2026-09-01T01:12:49Z</time>
  <course>187.71</course>
  <speed>0.0282842712474619</speed>
  <fix>3d</fix>
</trkpt>
<trkpt lat="33.810313" lon="-118.393867">
  <ele>-0.12</ele>
  <time>2026-09-01T01:12:49Z</time>
  <course>0.0</course>
  <speed>0.0</speed>
  <fix>3d</fix>
</trkpt>
<trkpt lat="33.810313" lon="-118.393867">
  <ele>-0.114</ele>
  <time>2026-09-01T01:12:49Z</time>
  <course>187.71</course>
  <speed>0.0282842712474619</speed>
  <fix>3d</fix>
</trkpt>
<trkpt lat="33.810313" lon="-118.393867">
  <ele>-0.12</ele>
  <time>2026-09-01T01:12:49Z</time>
  <course>0.0</course>
  <speed>0.0</speed>
  <fix>3d</fix>
</trkpt>
<trkpt lat="33.810313" lon="-118.393867">
  <ele>-0.112</ele>
  <time>2026-09-01T01:12:49Z</time>
  <course>187.7</course>
  <speed>0.0282842712474619</speed>
  <fix>3d</fix>
</trkpt>
<trkpt lat="33.810313" lon="-118.393867">
  <ele>-0.12</ele>
  <time>2026-09-01T01:12:49Z</time>
  <course>0.0</course>
  <speed>0.0</speed>
  <fix>3d</fix>
</trkpt>
<trkpt lat="33.810313" lon="-118.393867">
  <ele>-0.113</ele>
  <time>2026-09-01T01:12:49Z</time>
  <course>187.69</course>
  <speed>0.0282842712474619</speed>
  <fix>3d</fix>
</trkpt>
<trkpt lat="33.810313" lon="-118.393867">
  <ele>-0.12</ele>
  <time>2026-09-01T01:12:49Z</time>
  <course>0.0</course>
  <speed>0.0</speed>
  <fix>3d</fix>
</trkpt>
<trkpt lat="33.810313" lon="-118.393867">
  <ele>-0.115</ele>
  <time>2026-09-01T01:12:49Z</time>
  <course>187.69</course>
  <speed>0.0282842712474619</speed>
  <fix>3d</fix>
</trkpt>
<trkpt lat="33.810313" lon="-118.393867">
  <ele>-0.12</ele>
  <time>2026-09-01T01:12:49Z</time>
  <course>0.0</course>
  <speed>0.0</speed>
  <fix>3d</fix>
</trkpt>
<trkpt lat="33.810313" lon="-118.393867">
  <ele>-0.119</ele>
  <time>2026-09-01T01:12:49Z</time>
  <course>187.68</course>
  <speed>0.0282842712474619</speed>
  <fix>3d</fix>
</trkpt>
<trkpt lat="33.810313" lon="-118.393867">
  <ele>-0.12</ele>
  <time>2026-09-01T01:12:49Z</time>
  <course>0.0</course>
  <speed>0.0</speed>
  <fix>3d</fix>
</trkpt>
<trkpt lat="33.810313" lon="-118.393867">
  <ele>-0.123</ele>
  <time>2026-09-01T01:12:49Z</time>
  <course>187.67</course>
  <speed>0.0282842712474619</speed>
  <fix>3d</fix>
</trkpt>
<trkpt lat="33.810313" lon="-118.393867">
  <ele>-0.12</ele>
  <time>2026-09-01T01:12:49Z</time>
  <course>0.0</course>
  <speed>0.0</speed>
  <fix>3d</fix>
</trkpt>
<trkpt lat="33.810313" lon="-118.393867">
  <ele>-0.128</ele>
  <time>2026-09-01T01:12:49Z</time>
  <course>187.66</course>
  <speed>0.0282842712474619</speed>
  <fix>3d</fix>
</trkpt>
<trkpt lat="33.810313" lon="-118.393867">
  <ele>-0.12</ele>
  <time>2026-09-01T01:12:49Z</time>
  <course>0.0</course>
  <speed>0.0</speed>
  <fix>3d</fix>
</trkpt>
<trkpt lat="33.810313" lon="-118.393867">
  <ele>-0.132</ele>
  <time>2026-09-01T01:12:49Z</time>
  <course>187.66</course>
  <speed>0.0282842712474619</speed>
  <fix>3d</fix>
</trkpt>
<trkpt lat="33.810313" lon="-118.393867">
  <ele>-0.12</ele>
  <time>2026-09-01T01:12:49Z</time>
  <course>0.0</course>
  <speed>0.0</speed>
  <fix>3d</fix>
</trkpt>
<trkpt lat="33.810313" lon="-118.393867">
  <ele>-0.134</ele>
  <time>2026-09-01T01:12:49Z</time>
  <course>187.65</course>
  <speed>0.0282842712474619</speed>
  <fix>3d</fix>
</trkpt>
<trkpt lat="33.810313" lon="-118.393867">
  <ele>-0.12</ele>
  <time>2026-09-01T01:12:49Z</time>
  <course>0.0</course>
  <speed>0.0</speed>
  <fix>3d</fix>
</trkpt>
<trkpt lat="33.810313" lon="-118.393867">
  <ele>-0.135</ele>
  <time>2026-09-01T01:12:49Z</time>
  <course>187.64</course>
  <speed>0.0282842712474619</speed>
  <fix>3d</fix>
</trkpt>
<trkpt lat="33.810313" lon="-118.393867">
  <ele>-0.12</ele>
  <time>2026-09-01T01:12:49Z</time>
  <course>0.0</course>
  <speed>0.0</speed>
  <fix>3d</fix>
</trkpt>
<trkpt lat="33.810313" lon="-118.393867">
  <ele>-0.135</ele>
  <time>2026-09-01T01:12:49Z</time>
  <course>187.64</course>
  <speed>0.0282842712474619</speed>
  <fix>3d</fix>
</trkpt>
<trkpt lat="33.810313" lon="-118.393867">
  <ele>-0.12</ele>
  <time>2026-09-01T01:12:49Z</time>
  <course>0.0</course>
  <speed>0.0</speed>
  <fix>3d</fix>
</trkpt>
<trkpt lat="33.810313" lon="-118.393867">
  <ele>-0.133</ele>
  <time>2026-09-01T01:12:49Z</time>
  <course>187.63</course>
  <speed>0.0282842712474619</speed>
  <fix>3d</fix>
</trkpt>
<trkpt lat="33.810313" lon="-118.393867">
  <ele>-0.12</ele>
  <time>2026-09-01T01:12:49Z</time>
  <course>0.0</course>
  <speed>0.0</speed>
  <fix>3d</fix>
</trkpt>
<trkpt lat="33.810313" lon="-118.393867">
  <ele>-0.132</ele>
  <time>2026-09-01T01:12:50Z</time>
  <course>187.63</course>
  <speed>0.0282842712474619</speed>
  <fix>3d</fix>
</trkpt>
<trkpt lat="33.810313" lon="-118.393867">
  <ele>-0.12</ele>
  <time>2026-09-01T01:12:50Z</time>
  <course>0.0</course>
  <speed>0.0</speed>
  <fix>3d</fix>
</trkpt>
<trkpt lat="33.4368002" lon="-117.0859339">
  <ele>-0.11</ele>
  <time>2026-09-01T01:12:50Z</time>
  <course>0.0</course>
  <speed>0.0</speed>
  <fix>3d</fix>
</trkpt>
<trkpt lat="33.4368002" lon="-117.0859339">
  <ele>-0.11</ele>
  <time>2026-09-01T01:12:50Z</time>
  <course>0.0</course>
  <speed>0.0</speed>
  <fix>3d</fix>
</trkpt>
<trkpt lat="33.810313" lon="-118.393867">
  <ele>0.0</ele>
  <time>2026-09-01T01:12:50Z</time>
  <course>173.5</course>
  <speed>0.0</speed>
  <fix>3d</fix>
</trkpt>
<trkpt lat="33.810313" lon="-118.393867">
  <ele>-0.11</ele>
  <time>2026-09-01T01:12:50Z</time>
  <course>0.0</course>
  <speed>0.0</speed>
  <fix>3d</fix>
</trkpt>
<trkpt lat="33.810313" lon="-118.393867">
  <ele>0.0</ele>
  <time>2026-09-01T01:12:50Z</time>
  <course>173.61</course>
  <speed>0.0</speed>
  <fix>3d</fix>
</trkpt>
<trkpt lat="33.810313" lon="-118.393867">
  <ele>-0.11</ele>
  <time>2026-09-01T01:12:50Z</time>
  <course>0.0</course>
  <speed>0.0</speed>
  <fix>3d</fix>
</trkpt>
<trkpt lat="33.810313" lon="-118.393867">
  <ele>0.0</ele>
  <time>2026-09-01T01:12:50Z</time>
  <course>173.98</course>
  <speed>0.0</speed>
  <fix>3d</fix>
</trkpt>
<trkpt lat="33.810313" lon="-118.393867">
  <ele>-0.11</ele>
  <time>2026-09-01T01:12:50Z</time>
  <course>0.0</course>
  <speed>0.0</speed>
  <fix>3d</fix>
</trkpt>
<trkpt lat="33.810313" lon="-118.393867">
  <ele>0.0</ele>
  <time>2026-09-01T01:12:50Z</time>
  <course>174.51</course>
  <speed>0.0</speed>
  <fix>3d</fix>
</trkpt>
<trkpt lat="33.810313" lon="-118.393867">
  <ele>-0.11</ele>
  <time>2026-09-01T01:12:50Z</time>
  <course>0.0</course>
  <speed>0.0</speed>
  <fix>3d</fix>
</trkpt>
<trkpt lat="33.810313" lon="-118.393867">
  <ele>0.0</ele>
  <time>2026-09-01T01:12:50Z</time>
  <course>175.07</course>
  <speed>0.0</speed>
  <fix>3d</fix>
</trkpt>
<trkpt lat="33.810313" lon="-118.393867">
  <ele>-0.12</ele>
  <time>2026-09-01T01:12:50Z</time>
  <course>0.0</course>
  <speed>0.0</speed>
  <fix>3d</fix>
</trkpt>
<trkpt lat="33.810313" lon="-118.393867">
  <ele>0.0</ele>
  <time>2026-09-01T01:12:50Z</time>
  <course>175.61</course>
  <speed>0.0</speed>
  <fix>3d</fix>
</trkpt>
<trkpt lat="33.810313" lon="-118.393867">
  <ele>-0.12</ele>
  <time>2026-09-01T01:12:50Z</time>
  <course>0.0</course>
  <speed>0.0</speed>
  <fix>3d</fix>
</trkpt>
<trkpt lat="33.810313" lon="-118.393867">
  <ele>0.0</ele>
  <time>2026-09-01T01:12:50Z</time>
  <course>176.12</course>
  <speed>0.0</speed>
  <fix>3d</fix>
</trkpt>
<trkpt lat="33.810313" lon="-118.393867">
  <ele>-0.13</ele>
  <time>2026-09-01T01:12:50Z</time>
  <course>0.0</course>
  <speed>0.0</speed>
  <fix>3d</fix>
</trkpt>
<trkpt lat="33.810313" lon="-118.393867">
  <ele>0.0</ele>
  <time>2026-09-01T01:12:50Z</time>
  <course>176.6</course>
  <speed>0.0</speed>
  <fix>3d</fix>
</trkpt>
<trkpt lat="33.810313" lon="-118.393867">
  <ele>-0.13</ele>
  <time>2026-09-01T01:12:50Z</time>
  <course>0.0</course>
  <speed>0.0</speed>
  <fix>3d</fix>
</trkpt>
<trkpt lat="33.810313" lon="-118.393867">
  <ele>0.0</ele>
  <time>2026-09-01T01:12:50Z</time>
  <course>177.07</course>
  <speed>0.0</speed>
  <fix>3d</fix>
</trkpt>
<trkpt lat="33.810313" lon="-118.393867">
  <ele>-0.13</ele>
  <time>2026-09-01T01:12:50Z</time>
  <course>0.0</course>
  <speed>0.0</speed>
  <fix>3d</fix>
</trkpt>
<trkpt lat="33.810313" lon="-118.393867">
  <ele>0.0</ele>
  <time>2026-09-01T01:12:50Z</time>
  <course>177.53</course>
  <speed>0.0</speed>
  <fix>3d</fix>
</trkpt>
<trkpt lat="33.810313" lon="-118.393867">
  <ele>-0.13</ele>
  <time>2026-09-01T01:12:50Z</time>
  <course>0.0</course>
  <speed>0.0</speed>
  <fix>3d</fix>
</trkpt>
<trkpt lat="33.810313" lon="-118.393867">
  <ele>0.0</ele>
  <time>2026-09-01T01:12:50Z</time>
  <course>177.97</course>
  <speed>0.0</speed>
  <fix>3d</fix>
</trkpt>
<trkpt lat="33.810313" lon="-118.393867">
  <ele>-0.14</ele>
  <time>2026-09-01T01:12:50Z</time>
  <course>0.0</course>
  <speed>0.0</speed>
  <fix>3d</fix>
</trkpt>
<trkpt lat="33.810313" lon="-118.393867">
  <ele>0.0</ele>
  <time>2026-09-01T01:12:50Z</time>
  <course>178.4</course>
  <speed>0.0</speed>
  <fix>3d</fix>
</trkpt>
<trkpt lat="33.810313" lon="-118.393867">
  <ele>-0.14</ele>
  <time>2026-09-01T01:12:50Z</time>
  <course>0.0</course>
  <speed>0.0</speed>
  <fix>3d</fix>
</trkpt>
<trkpt lat="33.810313" lon="-118.393867">
  <ele>0.0</ele>
  <time>2026-09-01T01:12:50Z</time>
  <course>178.83</course>
  <speed>0.0</speed>
  <fix>3d</fix>
</trkpt>
<trkpt lat="33.810313" lon="-118.393867">
  <ele>-0.14</ele>
  <time>2026-09-01T01:12:50Z</time>
  <course>0.0</course>
  <speed>0.0</speed>
  <fix>3d</fix>
</trkpt>
<trkpt lat="33.810313" lon="-118.393867">
  <ele>0.0</ele>
  <time>2026-09-01T01:12:50Z</time>
  <course>179.23</course>
  <speed>0.0</speed>
  <fix>3d</fix>
</trkpt>
<trkpt lat="33.810313" lon="-118.393867">
  <ele>-0.14</ele>
  <time>2026-09-01T01:12:50Z</time>
  <course>0.0</course>
  <speed>0.0</speed>
  <fix>3d</fix>
</trkpt>
<trkpt lat="33.810313" lon="-118.393867">
  <ele>0.0</ele>
  <time>2026-09-01T01:12:50Z</time>
  <course>179.62</course>
  <speed>0.0</speed>
  <fix>3d</fix>
</trkpt>
<trkpt lat="33.810313" lon="-118.393867">
  <ele>-0.14</ele>
  <time>2026-09-01T01:12:50Z</time>
  <course>0.0</course>
  <speed>0.0</speed>
  <fix>3d</fix>
</trkpt>
<trkpt lat="33.810313" lon="-118.393867">
  <ele>0.0</ele>
  <time>2026-09-01T01:12:50Z</time>
  <course>180.01</course>
  <speed>0.0</speed>
  <fix>3d</fix>
</trkpt>
<trkpt lat="33.810313" lon="-118.393867">
  <ele>-0.14</ele>
  <time>2026-09-01T01:12:50Z</time>
  <course>0.0</course>
  <speed>0.0</speed>
  <fix>3d</fix>
</trkpt>
<trkpt lat="33.810313" lon="-118.393867">
  <ele>0.0</ele>
  <time>2026-09-01T01:12:50Z</time>
  <course>180.37</course>
  <speed>0.0</speed>
  <fix>3d</fix>
</trkpt>
<trkpt lat="33.810313" lon="-118.393867">
  <ele>-0.14</ele>
  <time>2026-09-01T01:12:50Z</time>
  <course>0.0</course>
  <speed>0.0</speed>
  <fix>3d</fix>
</trkpt>
<trkpt lat="33.810313" lon="-118.393867">
  <ele>0.0</ele>
  <time>2026-09-01T01:12:50Z</time>
  <course>180.73</course>
  <speed>0.0</speed>
  <fix>3d</fix>
</trkpt>
<trkpt lat="33.810313" lon="-118.393867">
  <ele>-0.14</ele>
  <time>2026-09-01T01:12:50Z</time>
  <course>0.0</course>
  <speed>0.0</speed>
  <fix>3d</fix>
</trkpt>
<trkpt lat="33.810313" lon="-118.393867">
  <ele>0.0</ele>
  <time>2026-09-01T01:12:50Z</time>
  <course>181.07</course>
  <speed>0.0</speed>
  <fix>3d</fix>
</trkpt>
<trkpt lat="33.810313" lon="-118.393867">
  <ele>-0.13</ele>
  <time>2026-09-01T01:12:50Z</time>
  <course>0.0</course>
  <speed>0.0</speed>
  <fix>3d</fix>
</trkpt>
<trkpt lat="33.810313" lon="-118.393867">
  <ele>0.0</ele>
  <time>2026-09-01T01:12:50Z</time>
  <course>181.4</course>
  <speed>0.0</speed>
  <fix>3d</fix>
</trkpt>
<trkpt lat="33.810313" lon="-118.393867">
  <ele>-0.13</ele>
  <time>2026-09-01T01:12:50Z</time>
  <course>0.0</course>
  <speed>0.0</speed>
  <fix>3d</fix>
</trkpt>
<trkpt lat="33.810313" lon="-118.393867">
  <ele>0.0</ele>
  <time>2026-09-01T01:12:50Z</time>
  <course>181.72</course>
  <speed>0.0</speed>
  <fix>3d</fix>
</trkpt>
<trkpt lat="33.810313" lon="-118.393867">
  <ele>-0.12</ele>
  <time>2026-09-01T01:12:50Z</time>
  <course>0.0</course>
  <speed>0.0</speed>
  <fix>3d</fix>
</trkpt>
<trkpt lat="33.810313" lon="-118.393867">
  <ele>0.0</ele>
  <time>2026-09-01T01:12:50Z</time>
  <course>182.02</course>
  <speed>0.0</speed>
  <fix>3d</fix>
</trkpt>
<trkpt lat="33.810313" lon="-118.393867">
  <ele>-0.12</ele>
  <time>2026-09-01T01:12:50Z</time>
  <course>0.0</course>
  <speed>0.0</speed>
  <fix>3d</fix>
</trkpt>
<trkpt lat="33.810313" lon="-118.393867">
  <ele>0.0</ele>
  <time>2026-09-01T01:12:50Z</time>
  <course>182.32</course>
  <speed>0.0</speed>
  <fix>3d</fix>
</trkpt>
<trkpt lat="33.810313" lon="-118.393867">
  <ele>-0.12</ele>
  <time>2026-09-01T01:12:50Z</time>
  <course>0.0</course>
  <speed>0.0</speed>
  <fix>3d</fix>
</trkpt>
<trkpt lat="33.810313" lon="-118.393867">
  <ele>0.0</ele>
  <time>2026-09-01T01:12:50Z</time>
  <course>182.6</course>
  <speed>0.0</speed>
  <fix>3d</fix>
</trkpt>
<trkpt lat="33.810313" lon="-118.393867">
  <ele>-0.12</ele>
  <time>2026-09-01T01:12:50Z</time>
  <course>0.0</course>
  <speed>0.0</speed>
  <fix>3d</fix>
</trkpt>
<trkpt lat="33.810313" lon="-118.393867">
  <ele>0.0</ele>
  <time>2026-09-01T01:12:50Z</time>
  <course>182.87</course>
  <speed>0.0</speed>
  <fix>3d</fix>
</trkpt>
<trkpt lat="33.810313" lon="-118.393867">
  <ele>-0.11</ele>
  <time>2026-09-01T01:12:50Z</time>
  <course>0.0</course>
  <speed>0.0</speed>
  <fix>3d</fix>
</trkpt>
<trkpt lat="33.810313" lon="-118.393867">
  <ele>0.0</ele>
  <time>2026-09-01T01:12:50Z</time>
  <course>183.14</course>
  <speed>0.0</speed>
  <fix>3d</fix>
</trkpt>
<trkpt lat="33.810313" lon="-118.393867">
  <ele>-0.11</ele>
  <time>2026-09-01T01:12:50Z</time>
  <course>0.0</course>
  <speed>0.0</speed>
  <fix>3d</fix>
</trkpt>
<trkpt lat="33.810313" lon="-118.393867">
  <ele>0.0</ele>
  <time>2026-09-01T01:12:50Z</time>
  <course>183.39</course>
  <speed>0.0</speed>
  <fix>3d</fix>
</trkpt>
<trkpt lat="33.810313" lon="-118.393867">
  <ele>-0.11</ele>
  <time>2026-09-01T01:12:50Z</time>
  <course>0.0</course>
  <speed>0.0</speed>
  <fix>3d</fix>
</trkpt>
<trkpt lat="33.810313" lon="-118.393867">
  <ele>0.0</ele>
  <time>2026-09-01T01:12:50Z</time>
  <course>183.63</course>
  <speed>0.0</speed>
  <fix>3d</fix>
</trkpt>
<trkpt lat="33.810313" lon="-118.393867">
  <ele>-0.11</ele>
  <time>2026-09-01T01:12:50Z</time>
  <course>0.0</course>
  <speed>0.0</speed>
  <fix>3d</fix>
</trkpt>
<trkpt lat="33.810313" lon="-118.393867">
  <ele>0.0</ele>
  <time>2026-09-01T01:12:50Z</time>
  <course>183.86</course>
  <speed>0.0</speed>
  <fix>3d</fix>
</trkpt>
<trkpt lat="33.810313" lon="-118.393867">
  <ele>-0.12</ele>
  <time>2026-09-01T01:12:50Z</time>
  <course>0.0</course>
  <speed>0.0</speed>
  <fix>3d</fix>
</trkpt>
<trkpt lat="33.810313" lon="-118.393867">
  <ele>0.0</ele>
  <time>2026-09-01T01:12:50Z</time>
  <course>184.08</course>
  <speed>0.0</speed>
  <fix>3d</fix>
</trkpt>
<trkpt lat="33.810313" lon="-118.393867">
  <ele>-0.12</ele>
  <time>2026-09-01T01:12:50Z</time>
  <course>0.0</course>
  <speed>0.0</speed>
  <fix>3d</fix>
</trkpt>
<trkpt lat="33.810313" lon="-118.393867">
  <ele>0.0</ele>
  <time>2026-09-01T01:12:50Z</time>
  <course>184.3</course>
  <speed>0.0</speed>
  <fix>3d</fix>
</trkpt>
<trkpt lat="33.810313" lon="-118.393867">
  <ele>-0.13</ele>
  <time>2026-09-01T01:12:50Z</time>
  <course>0.0</course>
  <speed>0.0</speed>
  <fix>3d</fix>
</trkpt>
<trkpt lat="33.810313" lon="-118.393867">
  <ele>0.0</ele>
  <time>2026-09-01T01:12:50Z</time>
  <course>184.5</course>
  <speed>0.0</speed>
  <fix>3d</fix>
</trkpt>
<trkpt lat="33.810313" lon="-118.393867">
  <ele>-0.13</ele>
  <time>2026-09-01T01:12:50Z</time>
  <course>0.0</course>
  <speed>0.0</speed>
  <fix>3d</fix>
</trkpt>
<trkpt lat="33.810313" lon="-118.393867">
  <ele>0.0</ele>
  <time>2026-09-01T01:12:50Z</time>
  <course>184.7</course>
  <speed>0.0</speed>
  <fix>3d</fix>
</trkpt>
<trkpt lat="33.810313" lon="-118.393867">
  <ele>-0.13</ele>
  <time>2026-09-01T01:12:50Z</time>
  <course>0.0</course>
  <speed>0.0</speed>
  <fix>3d</fix>
</trkpt>
<trkpt lat="33.810313" lon="-118.393867">
  <ele>0.0</ele>
  <time>2026-09-01T01:12:50Z</time>
  <course>184.89</course>
  <speed>0.0</speed>
  <fix>3d</fix>
</trkpt>
<trkpt lat="33.810313" lon="-118.393867">
  <ele>-0.13</ele>
  <time>2026-09-01T01:12:50Z</time>
  <course>0.0</course>
  <speed>0.0</speed>
  <fix>3d</fix>
</trkpt>
<trkpt lat="33.810313" lon="-118.393867">
  <ele>0.0</ele>
  <time>2026-09-01T01:12:50Z</time>
  <course>185.07</course>
  <speed>0.0</speed>
  <fix>3d</fix>
</trkpt>
<trkpt lat="33.810313" lon="-118.393867">
  <ele>-0.14</ele>
  <time>2026-09-01T01:12:50Z</time>
  <course>0.0</course>
  <speed>0.0</speed>
  <fix>3d</fix>
</trkpt>
<trkpt lat="33.810313" lon="-118.393867">
  <ele>0.0</ele>
  <time>2026-09-01T01:12:50Z</time>
  <course>185.24</course>
  <speed>0.0</speed>
  <fix>3d</fix>
</trkpt>
<trkpt lat="33.810313" lon="-118.393867">
  <ele>-0.14</ele>
  <time>2026-09-01T01:12:50Z</time>
  <course>0.0</course>
  <speed>0.0</speed>
  <fix>3d</fix>
</trkpt>
<trkpt lat="33.810313" lon="-118.393867">
  <ele>0.0</ele>
  <time>2026-09-01T01:12:50Z</time>
  <course>185.41</course>
  <speed>0.0</speed>
  <fix>3d</fix>
</trkpt>
<trkpt lat="33.810313" lon="-118.393867">
  <ele>-0.13</ele>
  <time>2026-09-01T01:12:50Z</time>
  <course>0.0</course>
  <speed>0.0</speed>
  <fix>3d</fix>
</trkpt>
<trkpt lat="33.810313" lon="-118.393867">
  <ele>0.0</ele>
  <time>2026-09-01T01:12:50Z</time>
  <course>185.56</course>
  <speed>0.0</speed>
  <fix>3d</fix>
</trkpt>
<trkpt lat="33.810313" lon="-118.393867">
  <ele>-0.13</ele>
  <time>2026-09-01T01:12:50Z</time>
  <course>0.0</course>
  <speed>0.0</speed>
  <fix>3d</fix>
</trkpt>
<trkpt lat="33.810313" lon="-118.393867">
  <ele>0.0</ele>
  <time>2026-09-01T01:12:50Z</time>
  <course>185.72</course>
  <speed>0.0</speed>
  <fix>3d</fix>
</trkpt>
<trkpt lat="33.810313" lon="-118.393867">
  <ele>-0.13</ele>
  <time>2026-09-01T01:12:50Z</time>
  <course>0.0</course>
  <speed>0.0</speed>
  <fix>3d</fix>
</trkpt>
<trkpt lat="33.810313" lon="-118.393867">
  <ele>0.0</ele>
  <time>2026-09-01T01:12:50Z</time>
  <course>185.86</course>
  <speed>0.0</speed>
  <fix>3d</fix>
</trkpt>
<trkpt lat="33.810313" lon="-118.393867">
  <ele>-0.13</ele>
  <time>2026-09-01T01:12:50Z</time>
  <course>0.0</course>
  <speed>0.0</speed>
  <fix>3d</fix>
</trkpt>
<trkpt lat="33.810313" lon="-118.393867">
  <ele>0.0</ele>
  <time>2026-09-01T01:12:50Z</time>
  <course>186.0</course>
  <speed>0.0</speed>
  <fix>3d</fix>
</trkpt>
<trkpt lat="33.810313" lon="-118.393867">
  <ele>-0.12</ele>
  <time>2026-09-01T01:12:50Z</time>
  <course>0.0</course>
  <speed>0.0</speed>
  <fix>3d</fix>
</trkpt>
<trkpt lat="33.810313" lon="-118.393867">
  <ele>0.0</ele>
  <time>2026-09-01T01:12:50Z</time>
  <course>186.13</course>
  <speed>0.0</speed>
  <fix>3d</fix>
</trkpt>
<trkpt lat="33.810313" lon="-118.393867">
  <ele>-0.12</ele>
  <time>2026-09-01T01:12:50Z</time>
  <course>0.0</course>
  <speed>0.0</speed>
  <fix>3d</fix>
</trkpt>
<trkpt lat="33.810313" lon="-118.393867">
  <ele>0.0</ele>
  <time>2026-09-01T01:12:50Z</time>
  <course>186.26</course>
  <speed>0.0</speed>
  <fix>3d</fix>
</trkpt>
<trkpt lat="33.810313" lon="-118.393867">
  <ele>-0.12</ele>
  <time>2026-09-01T01:12:50Z</time>
  <course>0.0</course>
  <speed>0.0</speed>
  <fix>3d</fix>
</trkpt>
<trkpt lat="33.810313" lon="-118.393867">
  <ele>0.0</ele>
  <time>2026-09-01T01:12:50Z</time>
  <course>186.38</course>
  <speed>0.0</speed>
  <fix>3d</fix>
</trkpt>
<trkpt lat="33.810313" lon="-118.393867">
  <ele>-0.12</ele>
  <time>2026-09-01T01:12:50Z</time>
  <course>0.0</course>
  <speed>0.0</speed>
  <fix>3d</fix>
</trkpt>
<trkpt lat="33.810313" lon="-118.393867">
  <ele>0.0</ele>
  <time>2026-09-01T01:12:50Z</time>
  <course>186.49</course>
  <speed>0.0</speed>
  <fix>3d</fix>
</trkpt>
<trkpt lat="33.810313" lon="-118.393867">
  <ele>-0.12</ele>
  <time>2026-09-01T01:12:50Z</time>
  <course>0.0</course>
  <speed>0.0</speed>
  <fix>3d</fix>
</trkpt>
<trkpt lat="33.810313" lon="-118.393867">
  <ele>0.0</ele>
  <time>2026-09-01T01:12:50Z</time>
  <course>186.6</course>
  <speed>0.0</speed>
  <fix>3d</fix>
</trkpt>
<trkpt lat="33.810313" lon="-118.393867">
  <ele>-0.12</ele>
  <time>2026-09-01T01:12:50Z</time>
  <course>0.0</course>
  <speed>0.0</speed>
  <fix>3d</fix>
</trkpt>
<trkpt lat="33.810313" lon="-118.393867">
  <ele>0.0</ele>
  <time>2026-09-01T01:12:50Z</time>
  <course>186.71</course>
  <speed>0.0</speed>
  <fix>3d</fix>
</trkpt>
<trkpt lat="33.810313" lon="-118.393867">
  <ele>-0.12</ele>
  <time>2026-09-01T01:12:50Z</time>
  <course>0.0</course>
  <speed>0.0</speed>
  <fix>3d</fix>
</trkpt>
<trkpt lat="33.810313" lon="-118.393867">
  <ele>0.0</ele>
  <time>2026-09-01T01:12:50Z</time>
  <course>186.81</course>
  <speed>0.0</speed>
  <fix>3d</fix>
</trkpt>
<trkpt lat="33.810313" lon="-118.393867">
  <ele>-0.12</ele>
  <time>2026-09-01T01:12:50Z</time>
  <course>0.0</course>
  <speed>0.0</speed>
  <fix>3d</fix>
</trkpt>
<trkpt lat="33.810313" lon="-118.393867">
  <ele>0.0</ele>
  <time>2026-09-01T01:12:50Z</time>
  <course>186.9</course>
  <speed>0.0</speed>
  <fix>3d</fix>
</trkpt>
<trkpt lat="33.810313" lon="-118.393867">
  <ele>-0.12</ele>
  <time>2026-09-01T01:12:50Z</time>
  <course>0.0</course>
  <speed>0.0</speed>
  <fix>3d</fix>
</trkpt>
<trkpt lat="33.810313" lon="-118.393867">
  <ele>0.0</ele>
  <time>2026-09-01T01:12:50Z</time>
  <course>187.0</course>
  <speed>0.0</speed>
  <fix>3d</fix>
</trkpt>
<trkpt lat="33.810313" lon="-118.393867">
  <ele>-0.12</ele>
  <time>2026-09-01T01:12:50Z</time>
  <course>0.0</course>
  <speed>0.0</speed>
  <fix>3d</fix>
</trkpt>
<trkpt lat="33.810313" lon="-118.393867">
  <ele>0.0</ele>
  <time>2026-09-01T01:12:50Z</time>
  <course>187.08</course>
  <speed>0.0</speed>
  <fix>3d</fix>
</trkpt>
<trkpt lat="33.810313" lon="-118.393867">
  <ele>-0.13</ele>
  <time>2026-09-01T01:12:50Z</time>
  <course>0.0</course>
  <speed>0.0</speed>
  <fix>3d</fix>
</trkpt>
<trkpt lat="33.810313" lon="-118.393867">
  <ele>0.0</ele>
  <time>2026-09-01T01:12:50Z</time>
  <course>187.17</course>
  <speed>0.0</speed>
  <fix>3d</fix>
</trkpt>
<trkpt lat="33.810313" lon="-118.393867">
  <ele>-0.13</ele>
  <time>2026-09-01T01:12:50Z</time>
  <course>0.0</course>
  <speed>0.0</speed>
  <fix>3d</fix>
</trkpt>
<trkpt lat="33.810313" lon="-118.393867">
  <ele>0.0</ele>
  <time>2026-09-01T01:12:50Z</time>
  <course>187.24</course>
  <speed>0.0</speed>
  <fix>3d</fix>
</trkpt>
<trkpt lat="33.810313" lon="-118.393867">
  <ele>-0.13</ele>
  <time>2026-09-01T01:12:50Z</time>
  <course>0.0</course>
  <speed>0.0</speed>
  <fix>3d</fix>
</trkpt>
<trkpt lat="33.810313" lon="-118.393867">
  <ele>0.0</ele>
  <time>2026-09-01T01:12:50Z</time>
  <course>187.32</course>
  <speed>0.0</speed>
  <fix>3d</fix>
</trkpt>
<trkpt lat="33.810313" lon="-118.393867">
  <ele>-0.13</ele>
  <time>2026-09-01T01:12:50Z</time>
  <course>0.0</course>
  <speed>0.0</speed>
  <fix>3d</fix>
</trkpt>
<trkpt lat="33.810313" lon="-118.393867">
  <ele>0.0</ele>
  <time>2026-09-01T01:12:50Z</time>
  <course>187.39</course>
  <speed>0.0</speed>
  <fix>3d</fix>
</trkpt>
<trkpt lat="33.810313" lon="-118.393867">
  <ele>-0.13</ele>
  <time>2026-09-01T01:12:50Z</time>
  <course>0.0</course>
  <speed>0.0</speed>
  <fix>3d</fix>
</trkpt>
<trkpt lat="33.810313" lon="-118.393867">
  <ele>0.0</ele>
  <time>2026-09-01T01:12:50Z</time>
  <course>187.46</course>
  <speed>0.0</speed>
  <fix>3d</fix>
</trkpt>
<trkpt lat="33.810313" lon="-118.393867">
  <ele>-0.13</ele>
  <time>2026-09-01T01:12:50Z</time>
  <course>0.0</course>
  <speed>0.0</speed>
  <fix>3d</fix>
</trkpt>
<trkpt lat="33.810313" lon="-118.393867">
  <ele>0.0</ele>
  <time>2026-09-01T01:12:50Z</time>
  <course>187.53</course>
  <speed>0.0</speed>
  <fix>3d</fix>
</trkpt>
<trkpt lat="33.810313" lon="-118.393867">
  <ele>-0.13</ele>
  <time>2026-09-01T01:12:50Z</time>
  <course>0.0</course>
  <speed>0.0</speed>
  <fix>3d</fix>
</trkpt>
<trkpt lat="33.810313" lon="-118.393867">
  <ele>0.0</ele>
  <time>2026-09-01T01:12:50Z</time>
  <course>187.59</course>
  <speed>0.0</speed>
  <fix>3d</fix>
</trkpt>
<trkpt lat="33.810313" lon="-118.393867">
  <ele>-0.13</ele>
  <time>2026-09-01T01:12:50Z</time>
  <course>0.0</course>
  <speed>0.0</speed>
  <fix>3d</fix>
</trkpt>
<trkpt lat="33.810313" lon="-118.393867">
  <ele>0.0</ele>
  <time>2026-09-01T01:12:50Z</time>
  <course>187.65</course>
  <speed>0.0</speed>
  <fix>3d</fix>
</trkpt>
<trkpt lat="33.810313" lon="-118.393867">
  <ele>-0.12</ele>
  <time>2026-09-01T01:12:50Z</time>
  <course>0.0</course>
  <speed>0.0</speed>
  <fix>3d</fix>
</trkpt>
<trkpt lat="33.810313" lon="-118.393867">
  <ele>0.0</ele>
  <time>2026-09-01T01:12:50Z</time>
  <course>187.7</course>
  <speed>0.0</speed>
  <fix>3d</fix>
</trkpt>
<trkpt lat="33.810313" lon="-118.393867">
  <ele>-0.12</ele>
  <time>2026-09-01T01:12:50Z</time>
  <course>0.0</course>
  <speed>0.0</speed>
  <fix>3d</fix>
</trkpt>
<trkpt lat="33.810313" lon="-118.393867">
  <ele>0.0</ele>
  <time>2026-09-01T01:12:50Z</time>
  <course>187.76</course>
  <speed>0.0</speed>
  <fix>3d</fix>
</trkpt>
<trkpt lat="33.810313" lon="-118.393867">
  <ele>-0.12</ele>
  <time>2026-09-01T01:12:50Z</time>
  <course>0.0</course>
  <speed>0.0</speed>
  <fix>3d</fix>
</trkpt>
<trkpt lat="33.810313" lon="-118.393867">
  <ele>0.0</ele>
  <time>2026-09-01T01:12:50Z</time>
  <course>187.81</course>
  <speed>0.0</speed>
  <fix>3d</fix>
</trkpt>
<trkpt lat="33.810313" lon="-118.393867">
  <ele>-0.12</ele>
  <time>2026-09-01T01:12:50Z</time>
  <course>0.0</course>
  <speed>0.0</speed>
  <fix>3d</fix>
</trkpt>
<trkpt lat="33.810313" lon="-118.393867">
  <ele>0.0</ele>
  <time>2026-09-01T01:12:50Z</time>
  <course>187.86</course>
  <speed>0.0</speed>
  <fix>3d</fix>
</trkpt>
<trkpt lat="33.810313" lon="-118.393867">
  <ele>-0.12</ele>
  <time>2026-09-01T01:12:50Z</time>
  <course>0.0</course>
  <speed>0.0</speed>
  <fix>3d</fix>
</trkpt>
<trkpt lat="33.810313" lon="-118.393867">
  <ele>0.0</ele>
  <time>2026-09-01T01:12:50Z</time>
  <course>187.9</course>
  <speed>0.0</speed>
  <fix>3d</fix>
</trkpt>
<trkpt lat="33.810313" lon="-118.393867">
  <ele>-0.12</ele>
  <time>2026-09-01T01:12:50Z</time>
  <course>0.0</course>
  <speed>0.0</speed>
  <fix>3d</fix>
</trkpt>
<trkpt lat="33.810313" lon="-118.393867">
  <ele>0.0</ele>
  <time>2026-09-01T01:12:50Z</time>
  <course>187.94</course>
  <speed>0.0</speed>
  <fix>3d</fix>
</trkpt>
<trkpt lat="33.810313" lon="-118.393867">
  <ele>-0.12</ele>
  <time>2026-09-01T01:12:50Z</time>
  <course>0.0</course>
  <speed>0.0</speed>
  <fix>3d</fix>
</trkpt>
<trkpt lat="33.810313" lon="-118.393867">
  <ele>0.0</ele>
  <time>2026-09-01T01:12:50Z</time>
  <course>187.99</course>
  <speed>0.0</speed>
  <fix>3d</fix>
</trkpt>
<trkpt lat="33.810313" lon="-118.393867">
  <ele>-0.12</ele>
  <time>2026-09-01T01:12:50Z</time>
  <course>0.0</course>
  <speed>0.0</speed>
  <fix>3d</fix>
</trkpt>
<trkpt lat="33.810313" lon="-118.393867">
  <ele>0.0</ele>
  <time>2026-09-01T01:12:50Z</time>
  <course>188.02</course>
  <speed>0.0</speed>
  <fix>3d</fix>
</trkpt>
<trkpt lat="33.810313" lon="-118.393867">
  <ele>-0.12</ele>
  <time>2026-09-01T01:12:50Z</time>
  <course>0.0</course>
  <speed>0.0</speed>
  <fix>3d</fix>
</trkpt>
<trkpt lat="33.810313" lon="-118.393867">
  <ele>0.0</ele>
  <time>2026-09-01T01:12:50Z</time>
  <course>188.06</course>
  <speed>0.0</speed>
  <fix>3d</fix>
</trkpt>
<trkpt lat="33.810313" lon="-118.393867">
  <ele>-0.12</ele>
  <time>2026-09-01T01:12:50Z</time>
  <course>0.0</course>
  <speed>0.0</speed>
  <fix>3d</fix>
</trkpt>
<trkpt lat="33.810313" lon="-118.393867">
  <ele>0.0</ele>
  <time>2026-09-01T01:12:50Z</time>
  <course>188.1</course>
  <speed>0.0</speed>
  <fix>3d</fix>
</trkpt>
<trkpt lat="33.810313" lon="-118.393867">
  <ele>-0.13</ele>
  <time>2026-09-01T01:12:50Z</time>
  <course>0.0</course>
  <speed>0.0</speed>
  <fix>3d</fix>
</trkpt>
<trkpt lat="33.810313" lon="-118.393867">
  <ele>0.0</ele>
  <time>2026-09-01T01:12:50Z</time>
  <course>188.13</course>
  <speed>0.0</speed>
  <fix>3d</fix>
</trkpt>
<trkpt lat="33.810313" lon="-118.393867">
  <ele>-0.13</ele>
  <time>2026-09-01T01:12:50Z</time>
  <course>0.0</course>
  <speed>0.0</speed>
  <fix>3d</fix>
</trkpt>
<trkpt lat="33.810313" lon="-118.393867">
  <ele>0.0</ele>
  <time>2026-09-01T01:12:50Z</time>
  <course>188.16</course>
  <speed>0.0</speed>
  <fix>3d</fix>
</trkpt>
<trkpt lat="33.810313" lon="-118.393867">
  <ele>-0.13</ele>
  <time>2026-09-01T01:12:50Z</time>
  <course>0.0</course>
  <speed>0.0</speed>
  <fix>3d</fix>
</trkpt>
<trkpt lat="33.810313" lon="-118.393867">
  <ele>0.0</ele>
  <time>2026-09-01T01:12:50Z</time>
  <course>188.19</course>
  <speed>0.0</speed>
  <fix>3d</fix>
</trkpt>
<trkpt lat="33.810313" lon="-118.393867">
  <ele>-0.13</ele>
  <time>2026-09-01T01:12:50Z</time>
  <course>0.0</course>
  <speed>0.0</speed>
  <fix>3d</fix>
</trkpt>
<trkpt lat="33.810313" lon="-118.393867">
  <ele>0.0</ele>
  <time>2026-09-01T01:12:50Z</time>
  <course>188.22</course>
  <speed>0.0</speed>
  <fix>3d</fix>
</trkpt>
<trkpt lat="33.810313" lon="-118.393867">
  <ele>-0.13</ele>
  <time>2026-09-01T01:12:50Z</time>
  <course>0.0</course>
  <speed>0.0</speed>
  <fix>3d</fix>
</trkpt>
<trkpt lat="33.810313" lon="-118.393867">
  <ele>0.0</ele>
  <time>2026-09-01T01:12:50Z</time>
  <course>188.24</course>
  <speed>0.0</speed>
  <fix>3d</fix>
</trkpt>
<trkpt lat="33.810313" lon="-118.393867">
  <ele>-0.13</ele>
  <time>2026-09-01T01:12:50Z</time>
  <course>0.0</course>
  <speed>0.0</speed>
  <fix>3d</fix>
</trkpt>
<trkpt lat="33.810313" lon="-118.393867">
  <ele>0.0</ele>
  <time>2026-09-01T01:12:50Z</time>
  <course>188.27</course>
  <speed>0.0</speed>
  <fix>3d</fix>
</trkpt>
<trkpt lat="33.810313" lon="-118.393867">
  <ele>-0.12</ele>
  <time>2026-09-01T01:12:50Z</time>
  <course>0.0</course>
  <speed>0.0</speed>
  <fix>3d</fix>
</trkpt>
<trkpt lat="33.810313" lon="-118.393867">
  <ele>0.0</ele>
  <time>2026-09-01T01:12:50Z</time>
  <course>188.29</course>
  <speed>0.0</speed>
  <fix>3d</fix>
</trkpt>
<trkpt lat="33.810313" lon="-118.393867">
  <ele>-0.12</ele>
  <time>2026-09-01T01:12:50Z</time>
  <course>0.0</course>
  <speed>0.0</speed>
  <fix>3d</fix>
</trkpt>
<trkpt lat="33.810313" lon="-118.393867">
  <ele>0.0</ele>
  <time>2026-09-01T01:12:50Z</time>
  <course>188.32</course>
  <speed>0.0</speed>
  <fix>3d</fix>
</trkpt>
<trkpt lat="33.810313" lon="-118.393867">
  <ele>-0.12</ele>
  <time>2026-09-01T01:12:50Z</time>
  <course>0.0</course>
  <speed>0.0</speed>
  <fix>3d</fix>
</trkpt>
<trkpt lat="33.810313" lon="-118.393867">
  <ele>0.0</ele>
  <time>2026-09-01T01:12:50Z</time>
  <course>188.34</course>
  <speed>0.0</speed>
  <fix>3d</fix>
</trkpt>
<trkpt lat="33.810313" lon="-118.393867">
  <ele>-0.12</ele>
  <time>2026-09-01T01:12:50Z</time>
  <course>0.0</course>
  <speed>0.0</speed>
  <fix>3d</fix>
</trkpt>
<trkpt lat="33.810313" lon="-118.393867">
  <ele>0.0</ele>
  <time>2026-09-01T01:12:50Z</time>
  <course>188.36</course>
  <speed>0.0</speed>
  <fix>3d</fix>
</trkpt>
<trkpt lat="33.810313" lon="-118.393867">
  <ele>-0.12</ele>
  <time>2026-09-01T01:12:50Z</time>
  <course>0.0</course>
  <speed>0.0</speed>
  <fix>3d</fix>
</trkpt>
<trkpt lat="33.810313" lon="-118.393867">
  <ele>0.0</ele>
  <time>2026-09-01T01:12:50Z</time>
  <course>188.38</course>
  <speed>0.0</speed>
  <fix>3d</fix>
</trkpt>
<trkpt lat="33.810313" lon="-118.393867">
  <ele>-0.12</ele>
  <time>2026-09-01T01:12:50Z</time>
  <course>0.0</course>
  <speed>0.0</speed>
  <fix>3d</fix>
</trkpt>
<trkpt lat="33.810313" lon="-118.393867">
  <ele>0.0</ele>
  <time>2026-09-01T01:12:50Z</time>
  <course>188.39</course>
  <speed>0.0</speed>
  <fix>3d</fix>
</trkpt>
<trkpt lat="33.810313" lon="-118.393867">
  <ele>-0.12</ele>
  <time>2026-09-01T01:12:50Z</time>
  <course>0.0</course>
  <speed>0.0</speed>
  <fix>3d</fix>
</trkpt>
<trkpt lat="33.810313" lon="-118.393867">
  <ele>0.0</ele>
  <time>2026-09-01T01:12:50Z</time>
  <course>188.41</course>
  <speed>0.0</speed>
  <fix>3d</fix>
</trkpt>
<trkpt lat="33.810313" lon="-118.393867">
  <ele>-0.12</ele>
  <time>2026-09-01T01:12:50Z</time>
  <course>0.0</course>
  <speed>0.0</speed>
  <fix>3d</fix>
</trkpt>
<trkpt lat="33.810313" lon="-118.393867">
  <ele>0.0</ele>
  <time>2026-09-01T01:12:50Z</time>
  <course>188.42</course>
  <speed>0.0</speed>
  <fix>3d</fix>
</trkpt>
<trkpt lat="33.810313" lon="-118.393867">
  <ele>-0.12</ele>
  <time>2026-09-01T01:12:50Z</time>
  <course>0.0</course>
  <speed>0.0</speed>
  <fix>3d</fix>
</trkpt>
<trkpt lat="33.810313" lon="-118.393867">
  <ele>0.0</ele>
  <time>2026-09-01T01:12:50Z</time>
  <course>188.44</course>
  <speed>0.0</speed>
  <fix>3d</fix>
</trkpt>
<trkpt lat="33.810313" lon="-118.393867">
  <ele>-0.12</ele>
  <time>2026-09-01T01:12:50Z</time>
  <course>0.0</course>
  <speed>0.0</speed>
  <fix>3d</fix>
</trkpt>
<trkpt lat="33.810313" lon="-118.393867">
  <ele>0.0</ele>
  <time>2026-09-01T01:12:50Z</time>
  <course>188.45</course>
  <speed>0.0</speed>
  <fix>3d</fix>
</trkpt>
<trkpt lat="33.810313" lon="-118.393867">
  <ele>-0.13</ele>
  <time>2026-09-01T01:12:50Z</time>
  <course>0.0</course>
  <speed>0.0</speed>
  <fix>3d</fix>
</trkpt>
<trkpt lat="33.810313" lon="-118.393867">
  <ele>0.0</ele>
  <time>2026-09-01T01:12:50Z</time>
  <course>188.46</course>
  <speed>0.0</speed>
  <fix>3d</fix>
</trkpt>
<trkpt lat="33.810313" lon="-118.393867">
  <ele>-0.13</ele>
  <time>2026-09-01T01:12:50Z</time>
  <course>0.0</course>
  <speed>0.0</speed>
  <fix>3d</fix>
</trkpt>
<trkpt lat="33.810313" lon="-118.393867">
  <ele>0.0</ele>
  <time>2026-09-01T01:12:50Z</time>
  <course>188.47</course>
  <speed>0.0</speed>
  <fix>3d</fix>
</trkpt>
<trkpt lat="33.810313" lon="-118.393867">
  <ele>-0.13</ele>
  <time>2026-09-01T01:12:50Z</time>
  <course>0.0</course>
  <speed>0.0</speed>
  <fix>3d</fix>
</trkpt>
<trkpt lat="33.810313" lon="-118.393867">
  <ele>0.0</ele>
  <time>2026-09-01T01:12:50Z</time>
  <course>188.48</course>
  <speed>0.0</speed>
  <fix>3d</fix>
</trkpt>
<trkpt lat="33.810313" lon="-118.393867">
  <ele>-0.13</ele>
  <time>2026-09-01T01:12:50Z</time>
  <course>0.0</course>
  <speed>0.0</speed>
  <fix>3d</fix>
</trkpt>
<trkpt lat="33.810313" lon="-118.393867">
  <ele>0.0</ele>
  <time>2026-09-01T01:12:50Z</time>
  <course>188.49</course>
  <speed>0.0</speed>
  <fix>3d</fix>
</trkpt>
<trkpt lat="33.810313" lon="-118.393867">
  <ele>-0.13</ele>
  <time>2026-09-01T01:12:50Z</time>
  <course>0.0</course>
  <speed>0.0</speed>
  <fix>3d</fix>
</trkpt>
<trkpt lat="33.810313" lon="-118.393867">
  <ele>0.0</ele>
  <time>2026-09-01T01:12:50Z</time>
  <course>188.5</course>
  <speed>0.0</speed>
  <fix>3d</fix>
</trkpt>
<trkpt lat="33.810313" lon="-118.393867">
  <ele>-0.13</ele>
  <time>2026-09-01T01:12:50Z</time>
  <course>0.0</course>
  <speed>0.0</speed>
  <fix>3d</fix>
</trkpt>
<trkpt lat="33.810313" lon="-118.393867">
  <ele>0.0</ele>
  <time>2026-09-01T01:12:50Z</time>
  <course>188.51</course>
  <speed>0.0</speed>
  <fix>3d</fix>
</trkpt>
<trkpt lat="33.810313" lon="-118.393867">
  <ele>-0.12</ele>
  <time>2026-09-01T01:12:50Z</time>
  <course>0.0</course>
  <speed>0.0</speed>
  <fix>3d</fix>
</trkpt>
<trkpt lat="33.810313" lon="-118.393867">
  <ele>0.0</ele>
  <time>2026-09-01T01:12:50Z</time>
  <course>188.52</course>
  <speed>0.0</speed>
  <fix>3d</fix>
</trkpt>
<trkpt lat="33.810313" lon="-118.393867">
  <ele>-0.12</ele>
  <time>2026-09-01T01:12:50Z</time>
  <course>0.0</course>
  <speed>0.0</speed>
  <fix>3d</fix>
</trkpt>
<trkpt lat="33.810313" lon="-118.393867">
  <ele>0.0</ele>
  <time>2026-09-01T01:12:50Z</time>
  <course>188.53</course>
  <speed>0.0</speed>
  <fix>3d</fix>
</trkpt>
<trkpt lat="33.810313" lon="-118.393867">
  <ele>-0.12</ele>
  <time>2026-09-01T01:12:50Z</time>
  <course>0.0</course>
  <speed>0.0</speed>
  <fix>3d</fix>
</trkpt>
<trkpt lat="33.810313" lon="-118.393867">
  <ele>0.0</ele>
  <time>2026-09-01T01:12:50Z</time>
  <course>188.53</course>
  <speed>0.0</speed>
  <fix>3d</fix>
</trkpt>
<trkpt lat="33.810313" lon="-118.393867">
  <ele>-0.12</ele>
  <time>2026-09-01T01:12:50Z</time>
  <course>0.0</course>
  <speed>0.0</speed>
  <fix>3d</fix>
</trkpt>
<trkpt lat="33.810313" lon="-118.393867">
  <ele>0.0</ele>
  <time>2026-09-01T01:12:50Z</time>
  <course>188.54</course>
  <speed>0.0</speed>
  <fix>3d</fix>
</trkpt>
<trkpt lat="33.810313" lon="-118.393867">
  <ele>-0.12</ele>
  <time>2026-09-01T01:12:50Z</time>
  <course>0.0</course>
  <speed>0.0</speed>
  <fix>3d</fix>
</trkpt>
<trkpt lat="33.810313" lon="-118.393867">
  <ele>0.0</ele>
  <time>2026-09-01T01:12:50Z</time>
  <course>188.54</course>
  <speed>0.0</speed>
  <fix>3d</fix>
</trkpt>
<trkpt lat="33.810313" lon="-118.393867">
  <ele>-0.12</ele>
  <time>2026-09-01T01:12:50Z</time>
  <course>0.0</course>
  <speed>0.0</speed>
  <fix>3d</fix>
</trkpt>
<trkpt lat="33.810313" lon="-118.393867">
  <ele>0.0</ele>
  <time>2026-09-01T01:12:50Z</time>
  <course>188.54</course>
  <speed>0.0</speed>
  <fix>3d</fix>
</trkpt>
<trkpt lat="33.810313" lon="-118.393867">
  <ele>-0.12</ele>
  <time>2026-09-01T01:12:50Z</time>
  <course>0.0</course>
  <speed>0.0</speed>
  <fix>3d</fix>
</trkpt>
<trkpt lat="33.810313" lon="-118.393867">
  <ele>0.0</ele>
  <time>2026-09-01T01:12:50Z</time>
  <course>188.55</course>
  <speed>0.0</speed>
  <fix>3d</fix>
</trkpt>
<trkpt lat="33.810313" lon="-118.393867">
  <ele>-0.12</ele>
  <time>2026-09-01T01:12:50Z</time>
  <course>0.0</course>
  <speed>0.0</speed>
  <fix>3d</fix>
</trkpt>
<trkpt lat="33.810313" lon="-118.393867">
  <ele>0.0</ele>
  <time>2026-09-01T01:12:50Z</time>
  <course>188.55</course>
  <speed>0.0</speed>
  <fix>3d</fix>
</trkpt>
<trkpt lat="33.810313" lon="-118.393867">
  <ele>-0.12</ele>
  <time>2026-09-01T01:12:50Z</time>
  <course>0.0</course>
  <speed>0.0</speed>
  <fix>3d</fix>
</trkpt>
<trkpt lat="33.810313" lon="-118.393867">
  <ele>0.0</ele>
  <time>2026-09-01T01:12:50Z</time>
  <course>188.55</course>
  <speed>0.0</speed>
  <fix>3d</fix>
</trkpt>
<trkpt lat="33.810313" lon="-118.393867">
  <ele>-0.12</ele>
  <time>2026-09-01T01:12:50Z</time>
  <course>0.0</course>
  <speed>0.0</speed>
  <fix>3d</fix>
</trkpt>
<trkpt lat="33.810313" lon="-118.393867">
  <ele>-0.126</ele>
  <time>2026-09-01T01:12:50Z</time>
  <course>188.55</course>
  <speed>0.0</speed>
  <fix>3d</fix>
</trkpt>
<trkpt lat="33.810313" lon="-118.393867">
  <ele>-0.13</ele>
  <time>2026-09-01T01:12:50Z</time>
  <course>0.0</course>
  <speed>0.0</speed>
  <fix>3d</fix>
</trkpt>
<trkpt lat="33.810313" lon="-118.393867">
  <ele>-0.126</ele>
  <time>2026-09-01T01:12:50Z</time>
  <course>188.56</course>
  <speed>0.0</speed>
  <fix>3d</fix>
</trkpt>
<trkpt lat="33.810313" lon="-118.393867">
  <ele>-0.13</ele>
  <time>2026-09-01T01:12:50Z</time>
  <course>0.0</course>
  <speed>0.0</speed>
  <fix>3d</fix>
</trkpt>
<trkpt lat="33.810313" lon="-118.393867">
  <ele>-0.125</ele>
  <time>2026-09-01T01:12:50Z</time>
  <course>188.56</course>
  <speed>0.0</speed>
  <fix>3d</fix>
</trkpt>
<trkpt lat="33.810313" lon="-118.393867">
  <ele>-0.13</ele>
  <time>2026-09-01T01:12:50Z</time>
  <course>0.0</course>
  <speed>0.0</speed>
  <fix>3d</fix>
</trkpt>
<trkpt lat="33.810313" lon="-118.393867">
  <ele>-0.123</ele>
  <time>2026-09-01T01:12:50Z</time>
  <course>188.56</course>
  <speed>0.0</speed>
  <fix>3d</fix>
</trkpt>
<trkpt lat="33.810313" lon="-118.393867">
  <ele>-0.13</ele>
  <time>2026-09-01T01:12:50Z</time>
  <course>0.0</course>
  <speed>0.0</speed>
  <fix>3d</fix>
</trkpt>
<trkpt lat="33.810313" lon="-118.393867">
  <ele>-0.121</ele>
  <time>2026-09-01T01:12:50Z</time>
  <course>188.56</course>
  <speed>0.0</speed>
  <fix>3d</fix>
</trkpt>
<trkpt lat="33.810313" lon="-118.393867">
  <ele>-0.12</ele>
  <time>2026-09-01T01:12:50Z</time>
  <course>0.0</course>
  <speed>0.0</speed>
  <fix>3d</fix>
</trkpt>
<trkpt lat="33.810313" lon="-118.393867">
  <ele>-0.12</ele>
  <time>2026-09-01T01:12:50Z</time>
  <course>188.56</course>
  <speed>0.0</speed>
  <fix>3d</fix>
</trkpt>
<trkpt lat="33.810313" lon="-118.393867">
  <ele>-0.12</ele>
  <time>2026-09-01T01:12:50Z</time>
  <course>0.0</course>
  <speed>0.0</speed>
  <fix>3d</fix>
</trkpt>
<trkpt lat="33.810313" lon="-118.393867">
  <ele>-0.119</ele>
  <time>2026-09-01T01:12:50Z</time>
  <course>188.56</course>
  <speed>0.0</speed>
  <fix>3d</fix>
</trkpt>
<trkpt lat="33.810313" lon="-118.393867">
  <ele>-0.12</ele>
  <time>2026-09-01T01:12:50Z</time>
  <course>0.0</course>
  <speed>0.0</speed>
  <fix>3d</fix>
</trkpt>
<trkpt lat="33.810313" lon="-118.393867">
  <ele>-0.12</ele>
  <time>2026-09-01T01:12:50Z</time>
  <course>188.56</course>
  <speed>0.0</speed>
  <fix>3d</fix>
</trkpt>
<trkpt lat="33.810313" lon="-118.393867">
  <ele>-0.12</ele>
  <time>2026-09-01T01:12:50Z</time>
  <course>0.0</course>
  <speed>0.0</speed>
  <fix>3d</fix>
</trkpt>
<trkpt lat="33.810313" lon="-118.393867">
  <ele>-0.123</ele>
  <time>2026-09-01T01:12:50Z</time>
  <course>188.55</course>
  <speed>0.0</speed>
  <fix>3d</fix>
</trkpt>
<trkpt lat="33.810313" lon="-118.393867">
  <ele>-0.12</ele>
  <time>2026-09-01T01:12:50Z</time>
  <course>0.0</course>
  <speed>0.0</speed>
  <fix>3d</fix>
</trkpt>
<trkpt lat="33.810313" lon="-118.393867">
  <ele>-0.127</ele>
  <time>2026-09-01T01:12:50Z</time>
  <course>188.55</course>
  <speed>0.0</speed>
  <fix>3d</fix>
</trkpt>
<trkpt lat="33.810313" lon="-118.393867">
  <ele>-0.12</ele>
  <time>2026-09-01T01:12:50Z</time>
  <course>0.0</course>
  <speed>0.0</speed>
  <fix>3d</fix>
</trkpt>
<trkpt lat="33.810313" lon="-118.393867">
  <ele>-0.13</ele>
  <time>2026-09-01T01:12:50Z</time>
  <course>188.55</course>
  <speed>0.0</speed>
  <fix>3d</fix>
</trkpt>
<trkpt lat="33.810313" lon="-118.393867">
  <ele>-0.12</ele>
  <time>2026-09-01T01:12:50Z</time>
  <course>0.0</course>
  <speed>0.0</speed>
  <fix>3d</fix>
</trkpt>
<trkpt lat="33.810313" lon="-118.393867">
  <ele>-0.132</ele>
  <time>2026-09-01T01:12:50Z</time>
  <course>188.55</course>
  <speed>0.0</speed>
  <fix>3d</fix>
</trkpt>
<trkpt lat="33.810313" lon="-118.393867">
  <ele>-0.12</ele>
  <time>2026-09-01T01:12:50Z</time>
  <course>0.0</course>
  <speed>0.0</speed>
  <fix>3d</fix>
</trkpt>
<trkpt lat="33.810313" lon="-118.393867">
  <ele>-0.132</ele>
  <time>2026-09-01T01:12:50Z</time>
  <course>188.55</course>
  <speed>0.0</speed>
  <fix>3d</fix>
</trkpt>
<trkpt lat="33.810313" lon="-118.393867">
  <ele>-0.12</ele>
  <time>2026-09-01T01:12:50Z</time>
  <course>0.0</course>
  <speed>0.0</speed>
  <fix>3d</fix>
</trkpt>
<trkpt lat="33.810313" lon="-118.393867">
  <ele>-0.132</ele>
  <time>2026-09-01T01:12:50Z</time>
  <course>188.55</course>
  <speed>0.0</speed>
  <fix>3d</fix>
</trkpt>
<trkpt lat="33.810313" lon="-118.393867">
  <ele>-0.12</ele>
  <time>2026-09-01T01:12:50Z</time>
  <course>0.0</course>
  <speed>0.0</speed>
  <fix>3d</fix>
</trkpt>
<trkpt lat="33.810313" lon="-118.393867">
  <ele>-0.132</ele>
  <time>2026-09-01T01:12:50Z</time>
  <course>188.55</course>
  <speed>0.0</speed>
  <fix>3d</fix>
</trkpt>
<trkpt lat="33.810313" lon="-118.393867">
  <ele>-0.12</ele>
  <time>2026-09-01T01:12:50Z</time>
  <course>0.0</course>
  <speed>0.0</speed>
  <fix>3d</fix>
</trkpt>
<trkpt lat="33.810313" lon="-118.393867">
  <ele>-0.131</ele>
  <time>2026-09-01T01:12:50Z</time>
  <course>188.55</course>
  <speed>0.0</speed>
  <fix>3d</fix>
</trkpt>
<trkpt lat="33.810313" lon="-118.393867">
  <ele>-0.12</ele>
  <time>2026-09-01T01:12:50Z</time>
  <course>0.0</course>
  <speed>0.0</speed>
  <fix>3d</fix>
</trkpt>
<trkpt lat="33.810313" lon="-118.393867">
  <ele>-0.129</ele>
  <time>2026-09-01T01:12:50Z</time>
  <course>188.54</course>
  <speed>0.0</speed>
  <fix>3d</fix>
</trkpt>
<trkpt lat="33.810313" lon="-118.393867">
  <ele>-0.13</ele>
  <time>2026-09-01T01:12:50Z</time>
  <course>0.0</course>
  <speed>0.0</speed>
  <fix>3d</fix>
</trkpt>
<trkpt lat="33.810313" lon="-118.393867">
  <ele>-0.128</ele>
  <time>2026-09-01T01:12:50Z</time>
  <course>188.54</course>
  <speed>0.0</speed>
  <fix>3d</fix>
</trkpt>
<trkpt lat="33.810313" lon="-118.393867">
  <ele>-0.13</ele>
  <time>2026-09-01T01:12:50Z</time>
  <course>0.0</course>
  <speed>0.0</speed>
  <fix>3d</fix>
</trkpt>
<trkpt lat="33.810313" lon="-118.393867">
  <ele>-0.125</ele>
  <time>2026-09-01T01:12:50Z</time>
  <course>188.53</course>
  <speed>0.0</speed>
  <fix>3d</fix>
</trkpt>
<trkpt lat="33.810313" lon="-118.393867">
  <ele>-0.12</ele>
  <time>2026-09-01T01:12:50Z</time>
  <course>0.0</course>
  <speed>0.0</speed>
  <fix>3d</fix>
</trkpt>
<trkpt lat="33.810313" lon="-118.393867">
  <ele>-0.123</ele>
  <time>2026-09-01T01:12:50Z</time>
  <course>188.53</course>
  <speed>0.0</speed>
  <fix>3d</fix>
</trkpt>
<trkpt lat="33.810313" lon="-118.393867">
  <ele>-0.12</ele>
  <time>2026-09-01T01:12:50Z</time>
  <course>0.0</course>
  <speed>0.0</speed>
  <fix>3d</fix>
</trkpt>
<trkpt lat="33.810313" lon="-118.393867">
  <ele>-0.121</ele>
  <time>2026-09-01T01:12:50Z</time>
  <course>188.52</course>
  <speed>0.0</speed>
  <fix>3d</fix>
</trkpt>
<trkpt lat="33.810313" lon="-118.393867">
  <ele>-0.12</ele>
  <time>2026-09-01T01:12:50Z</time>
  <course>0.0</course>
  <speed>0.0</speed>
  <fix>3d</fix>
</trkpt>
<trkpt lat="33.810313" lon="-118.393867">
  <ele>-0.121</ele>
  <time>2026-09-01T01:12:50Z</time>
  <course>188.52</course>
  <speed>0.0</speed>
  <fix>3d</fix>
</trkpt>
<trkpt lat="33.810313" lon="-118.393867">
  <ele>-0.12</ele>
  <time>2026-09-01T01:12:50Z</time>
  <course>0.0</course>
  <speed>0.0</speed>
  <fix>3d</fix>
</trkpt>
<trkpt lat="33.810313" lon="-118.393867">
  <ele>-0.121</ele>
  <time>2026-09-01T01:12:50Z</time>
  <course>188.51</course>
  <speed>0.0</speed>
  <fix>3d</fix>
</trkpt>
<trkpt lat="33.810313" lon="-118.393867">
  <ele>-0.12</ele>
  <time>2026-09-01T01:12:50Z</time>
  <course>0.0</course>
  <speed>0.0</speed>
  <fix>3d</fix>
</trkpt>
<trkpt lat="33.810313" lon="-118.393867">
  <ele>-0.123</ele>
  <time>2026-09-01T01:12:50Z</time>
  <course>188.51</course>
  <speed>0.0</speed>
  <fix>3d</fix>
</trkpt>
<trkpt lat="33.810313" lon="-118.393867">
  <ele>-0.12</ele>
  <time>2026-09-01T01:12:50Z</time>
  <course>0.0</course>
  <speed>0.0</speed>
  <fix>3d</fix>
</trkpt>
<trkpt lat="33.810313" lon="-118.393867">
  <ele>-0.126</ele>
  <time>2026-09-01T01:12:50Z</time>
  <course>188.5</course>
  <speed>0.0</speed>
  <fix>3d</fix>
</trkpt>
<trkpt lat="33.810313" lon="-118.393867">
  <ele>-0.12</ele>
  <time>2026-09-01T01:12:50Z</time>
  <course>0.0</course>
  <speed>0.0</speed>
  <fix>3d</fix>
</trkpt>
<trkpt lat="33.810313" lon="-118.393867">
  <ele>-0.127</ele>
  <time>2026-09-01T01:12:50Z</time>
  <course>188.5</course>
  <speed>0.0</speed>
  <fix>3d</fix>
</trkpt>
<trkpt lat="33.810313" lon="-118.393867">
  <ele>-0.12</ele>
  <time>2026-09-01T01:12:50Z</time>
  <course>0.0</course>
  <speed>0.0</speed>
  <fix>3d</fix>
</trkpt>
<trkpt lat="33.810313" lon="-118.393867">
  <ele>-0.128</ele>
  <time>2026-09-01T01:12:50Z</time>
  <course>188.49</course>
  <speed>0.0</speed>
  <fix>3d</fix>
</trkpt>
<trkpt lat="33.810313" lon="-118.393867">
  <ele>-0.12</ele>
  <time>2026-09-01T01:12:50Z</time>
  <course>0.0</course>
  <speed>0.0</speed>
  <fix>3d</fix>
</trkpt>
<trkpt lat="33.810313" lon="-118.393867">
  <ele>-0.127</ele>
  <time>2026-09-01T01:12:50Z</time>
  <course>188.49</course>
  <speed>0.0</speed>
  <fix>3d</fix>
</trkpt>
<trkpt lat="33.810313" lon="-118.393867">
  <ele>-0.12</ele>
  <time>2026-09-01T01:12:50Z</time>
  <course>0.0</course>
  <speed>0.0</speed>
  <fix>3d</fix>
</trkpt>
<trkpt lat="33.810313" lon="-118.393867">
  <ele>-0.127</ele>
  <time>2026-09-01T01:12:50Z</time>
  <course>188.48</course>
  <speed>0.0</speed>
  <fix>3d</fix>
</trkpt>
<trkpt lat="33.810313" lon="-118.393867">
  <ele>-0.12</ele>
  <time>2026-09-01T01:12:50Z</time>
  <course>0.0</course>
  <speed>0.0</speed>
  <fix>3d</fix>
</trkpt>
<trkpt lat="33.810313" lon="-118.393867">
  <ele>-0.127</ele>
  <time>2026-09-01T01:12:50Z</time>
  <course>188.47</course>
  <speed>0.01</speed>
  <fix>3d</fix>
</trkpt>
<trkpt lat="33.810313" lon="-118.393867">
  <ele>-0.12</ele>
  <time>2026-09-01T01:12:50Z</time>
  <course>0.0</course>
  <speed>0.0</speed>
  <fix>3d</fix>
</trkpt>
<trkpt lat="33.810313" lon="-118.393867">
  <ele>-0.127</ele>
  <time>2026-09-01T01:12:51Z</time>
  <course>188.47</course>
  <speed>0.01</speed>
  <fix>3d</fix>
</trkpt>
<trkpt lat="33.810313" lon="-118.393867">
  <ele>-0.12</ele>
  <time>2026-09-01T01:12:51Z</time>
  <course>0.0</course>
  <speed>0.0</speed>
  <fix>3d</fix>
</trkpt>
<trkpt lat="33.810313" lon="-118.393867">
  <ele>-0.127</ele>
  <time>2026-09-01T01:12:51Z</time>
  <course>188.46</course>
  <speed>0.01</speed>
  <fix>3d</fix>
</trkpt>
<trkpt lat="33.810313" lon="-118.393867">
  <ele>-0.12</ele>
  <time>2026-09-01T01:12:51Z</time>
  <course>0.0</course>
  <speed>0.0</speed>
  <fix>3d</fix>
</trkpt>
<trkpt lat="33.810313" lon="-118.393867">
  <ele>-0.126</ele>
  <time>2026-09-01T01:12:51Z</time>
  <course>188.45</course>
  <speed>0.01</speed>
  <fix>3d</fix>
</trkpt>
<trkpt lat="33.810313" lon="-118.393867">
  <ele>-0.12</ele>
  <time>2026-09-01T01:12:51Z</time>
  <course>0.0</course>
  <speed>0.0</speed>
  <fix>3d</fix>
</trkpt>
<trkpt lat="33.810313" lon="-118.393867">
  <ele>-0.126</ele>
  <time>2026-09-01T01:12:51Z</time>
  <course>188.45</course>
  <speed>0.01</speed>
  <fix>3d</fix>
</trkpt>
<trkpt lat="33.810313" lon="-118.393867">
  <ele>-0.12</ele>
  <time>2026-09-01T01:12:51Z</time>
  <course>0.0</course>
  <speed>0.0</speed>
  <fix>3d</fix>
</trkpt>
<trkpt lat="33.810313" lon="-118.393867">
  <ele>-0.125</ele>
  <time>2026-09-01T01:12:51Z</time>
  <course>188.44</course>
  <speed>0.01</speed>
  <fix>3d</fix>
</trkpt>
<trkpt lat="33.810313" lon="-118.393867">
  <ele>-0.12</ele>
  <time>2026-09-01T01:12:51Z</time>
  <course>0.0</course>
  <speed>0.0</speed>
  <fix>3d</fix>
</trkpt>
<trkpt lat="33.810313" lon="-118.393867">
  <ele>-0.126</ele>
  <time>2026-09-01T01:12:51Z</time>
  <course>188.43</course>
  <speed>0.01</speed>
  <fix>3d</fix>
</trkpt>
<trkpt lat="33.810313" lon="-118.393867">
  <ele>-0.12</ele>
  <time>2026-09-01T01:12:51Z</time>
  <course>0.0</course>
  <speed>0.0</speed>
  <fix>3d</fix>
</trkpt>
<trkpt lat="33.810313" lon="-118.393867">
  <ele>-0.127</ele>
  <time>2026-09-01T01:12:51Z</time>
  <course>188.42</course>
  <speed>0.01</speed>
  <fix>3d</fix>
</trkpt>
<trkpt lat="33.810313" lon="-118.393867">
  <ele>-0.12</ele>
  <time>2026-09-01T01:12:51Z</time>
  <course>0.0</course>
  <speed>0.0</speed>
  <fix>3d</fix>
</trkpt>
<trkpt lat="33.810313" lon="-118.393867">
  <ele>-0.128</ele>
  <time>2026-09-01T01:12:51Z</time>
  <course>188.42</course>
  <speed>0.01</speed>
  <fix>3d</fix>
</trkpt>
<trkpt lat="33.810313" lon="-118.393867">
  <ele>-0.12</ele>
  <time>2026-09-01T01:12:51Z</time>
  <course>0.0</course>
  <speed>0.0</speed>
  <fix>3d</fix>
</trkpt>
<trkpt lat="33.810313" lon="-118.393867">
  <ele>-0.129</ele>
  <time>2026-09-01T01:12:51Z</time>
  <course>188.41</course>
  <speed>0.01</speed>
  <fix>3d</fix>
</trkpt>
<trkpt lat="33.810313" lon="-118.393867">
  <ele>-0.12</ele>
  <time>2026-09-01T01:12:51Z</time>
  <course>0.0</course>
  <speed>0.0</speed>
  <fix>3d</fix>
</trkpt>
<trkpt lat="33.810313" lon="-118.393867">
  <ele>-0.129</ele>
  <time>2026-09-01T01:12:51Z</time>
  <course>188.4</course>
  <speed>0.01</speed>
  <fix>3d</fix>
</trkpt>
<trkpt lat="33.810313" lon="-118.393867">
  <ele>-0.12</ele>
  <time>2026-09-01T01:12:51Z</time>
  <course>0.0</course>
  <speed>0.0</speed>
  <fix>3d</fix>
</trkpt>
<trkpt lat="33.810313" lon="-118.393867">
  <ele>-0.13</ele>
  <time>2026-09-01T01:12:51Z</time>
  <course>188.4</course>
  <speed>0.01414213562373095</speed>
  <fix>3d</fix>
</trkpt>
<trkpt lat="33.810313" lon="-118.393867">
  <ele>-0.12</ele>
  <time>2026-09-01T01:12:51Z</time>
  <course>0.0</course>
  <speed>0.0</speed>
  <fix>3d</fix>
</trkpt>
<trkpt lat="33.810313" lon="-118.393867">
  <ele>-0.13</ele>
  <time>2026-09-01T01:12:51Z</time>
  <course>188.39</course>
  <speed>0.01414213562373095</speed>
  <fix>3d</fix>
</trkpt>
<trkpt lat="33.810313" lon="-118.393867">
  <ele>-0.12</ele>
  <time>2026-09-01T01:12:51Z</time>
  <course>0.0</course>
  <speed>0.0</speed>
  <fix>3d</fix>
</trkpt>
<trkpt lat="33.810313" lon="-118.393867">
  <ele>-0.13</ele>
  <time>2026-09-01T01:12:51Z</time>
  <course>188.38</course>
  <speed>0.01414213562373095</speed>
  <fix>3d</fix>
</trkpt>
<trkpt lat="33.810313" lon="-118.393867">
  <ele>-0.12</ele>
  <time>2026-09-01T01:12:51Z</time>
  <course>0.0</course>
  <speed>0.0</speed>
  <fix>3d</fix>
</trkpt>
<trkpt lat="33.810313" lon="-118.393867">
  <ele>-0.129</ele>
  <time>2026-09-01T01:12:51Z</time>
  <course>188.37</course>
  <speed>0.01414213562373095</speed>
  <fix>3d</fix>
</trkpt>
<trkpt lat="33.810313" lon="-118.393867">
  <ele>-0.12</ele>
  <time>2026-09-01T01:12:51Z</time>
  <course>0.0</course>
  <speed>0.0</speed>
  <fix>3d</fix>
</trkpt>
<trkpt lat="33.810313" lon="-118.393867">
  <ele>-0.128</ele>
  <time>2026-09-01T01:12:51Z</time>
  <course>188.37</course>
  <speed>0.01414213562373095</speed>
  <fix>3d</fix>
</trkpt>
<trkpt lat="33.810313" lon="-118.393867">
  <ele>-0.12</ele>
  <time>2026-09-01T01:12:51Z</time>
  <course>0.0</course>
  <speed>0.0</speed>
  <fix>3d</fix>
</trkpt>
<trkpt lat="33.810313" lon="-118.393867">
  <ele>-0.126</ele>
  <time>2026-09-01T01:12:51Z</time>
  <course>188.36</course>
  <speed>0.01414213562373095</speed>
  <fix>3d</fix>
</trkpt>
<trkpt lat="33.810313" lon="-118.393867">
  <ele>-0.12</ele>
  <time>2026-09-01T01:12:51Z</time>
  <course>0.0</course>
  <speed>0.0</speed>
  <fix>3d</fix>
</trkpt>
<trkpt lat="33.810313" lon="-118.393867">
  <ele>-0.124</ele>
  <time>2026-09-01T01:12:51Z</time>
  <course>188.35</course>
  <speed>0.01414213562373095</speed>
  <fix>3d</fix>
</trkpt>
<trkpt lat="33.810313" lon="-118.393867">
  <ele>-0.12</ele>
  <time>2026-09-01T01:12:51Z</time>
  <course>0.0</course>
  <speed>0.0</speed>
  <fix>3d</fix>
</trkpt>
<trkpt lat="33.810313" lon="-118.393867">
  <ele>-0.122</ele>
  <time>2026-09-01T01:12:51Z</time>
  <course>188.34</course>
  <speed>0.01414213562373095</speed>
  <fix>3d</fix>
</trkpt>
<trkpt lat="33.810313" lon="-118.393867">
  <ele>-0.12</ele>
  <time>2026-09-01T01:12:51Z</time>
  <course>0.0</course>
  <speed>0.0</speed>
  <fix>3d</fix>
</trkpt>
<trkpt lat="33.810313" lon="-118.393867">
  <ele>-0.123</ele>
  <time>2026-09-01T01:12:51Z</time>
  <course>188.34</course>
  <speed>0.01414213562373095</speed>
  <fix>3d</fix>
</trkpt>
<trkpt lat="33.810313" lon="-118.393867">
  <ele>-0.12</ele>
  <time>2026-09-01T01:12:51Z</time>
  <course>0.0</course>
  <speed>0.0</speed>
  <fix>3d</fix>
</trkpt>
<trkpt lat="33.810313" lon="-118.393867">
  <ele>-0.125</ele>
  <time>2026-09-01T01:12:51Z</time>
  <course>188.33</course>
  <speed>0.01414213562373095</speed>
  <fix>3d</fix>
</trkpt>
<trkpt lat="33.810313" lon="-118.393867">
  <ele>-0.12</ele>
  <time>2026-09-01T01:12:51Z</time>
  <course>0.0</course>
  <speed>0.0</speed>
  <fix>3d</fix>
</trkpt>
<trkpt lat="33.810313" lon="-118.393867">
  <ele>-0.128</ele>
  <time>2026-09-01T01:12:51Z</time>
  <course>188.32</course>
  <speed>0.01414213562373095</speed>
  <fix>3d</fix>
</trkpt>
<trkpt lat="33.810313" lon="-118.393867">
  <ele>-0.12</ele>
  <time>2026-09-01T01:12:51Z</time>
  <course>0.0</course>
  <speed>0.0</speed>
  <fix>3d</fix>
</trkpt>
<trkpt lat="33.810313" lon="-118.393867">
  <ele>-0.131</ele>
  <time>2026-09-01T01:12:51Z</time>
  <course>188.31</course>
  <speed>0.01414213562373095</speed>
  <fix>3d</fix>
</trkpt>
<trkpt lat="33.810313" lon="-118.393867">
  <ele>-0.12</ele>
  <time>2026-09-01T01:12:51Z</time>
  <course>0.0</course>
  <speed>0.0</speed>
  <fix>3d</fix>
</trkpt>
<trkpt lat="33.810313" lon="-118.393867">
  <ele>-0.134</ele>
  <time>2026-09-01T01:12:51Z</time>
  <course>188.3</course>
  <speed>0.01414213562373095</speed>
  <fix>3d</fix>
</trkpt>
<trkpt lat="33.810313" lon="-118.393867">
  <ele>-0.12</ele>
  <time>2026-09-01T01:12:51Z</time>
  <course>0.0</course>
  <speed>0.0</speed>
  <fix>3d</fix>
</trkpt>
<trkpt lat="33.810313" lon="-118.393867">
  <ele>-0.135</ele>
  <time>2026-09-01T01:12:51Z</time>
  <course>188.3</course>
  <speed>0.01414213562373095</speed>
  <fix>3d</fix>
</trkpt>
<trkpt lat="33.810313" lon="-118.393867">
  <ele>-0.12</ele>
  <time>2026-09-01T01:12:51Z</time>
  <course>0.0</course>
  <speed>0.0</speed>
  <fix>3d</fix>
</trkpt>
<trkpt lat="33.810313" lon="-118.393867">
  <ele>-0.134</ele>
  <time>2026-09-01T01:12:51Z</time>
  <course>188.29</course>
  <speed>0.01414213562373095</speed>
  <fix>3d</fix>
</trkpt>
<trkpt lat="33.810313" lon="-118.393867">
  <ele>-0.12</ele>
  <time>2026-09-01T01:12:51Z</time>
  <course>0.0</course>
  <speed>0.0</speed>
  <fix>3d</fix>
</trkpt>
<trkpt lat="33.810313" lon="-118.393867">
  <ele>-0.132</ele>
  <time>2026-09-01T01:12:51Z</time>
  <course>188.28</course>
  <speed>0.01414213562373095</speed>
  <fix>3d</fix>
</trkpt>
<trkpt lat="33.810313" lon="-118.393867">
  <ele>-0.12</ele>
  <time>2026-09-01T01:12:51Z</time>
  <course>0.0</course>
  <speed>0.0</speed>
  <fix>3d</fix>
</trkpt>
<trkpt lat="33.810313" lon="-118.393867">
  <ele>-0.13</ele>
  <time>2026-09-01T01:12:51Z</time>
  <course>188.27</course>
  <speed>0.01414213562373095</speed>
  <fix>3d</fix>
</trkpt>
<trkpt lat="33.810313" lon="-118.393867">
  <ele>-0.12</ele>
  <time>2026-09-01T01:12:51Z</time>
  <course>0.0</course>
  <speed>0.0</speed>
  <fix>3d</fix>
</trkpt>
<trkpt lat="33.810313" lon="-118.393867">
  <ele>-0.127</ele>
  <time>2026-09-01T01:12:51Z</time>
  <course>188.26</course>
  <speed>0.01414213562373095</speed>
  <fix>3d</fix>
</trkpt>
<trkpt lat="33.810313" lon="-118.393867">
  <ele>-0.12</ele>
  <time>2026-09-01T01:12:51Z</time>
  <course>0.0</course>
  <speed>0.0</speed>
  <fix>3d</fix>
</trkpt>
<trkpt lat="33.810313" lon="-118.393867">
  <ele>-0.125</ele>
  <time>2026-09-01T01:12:51Z</time>
  <course>188.25</course>
  <speed>0.01414213562373095</speed>
  <fix>3d</fix>
</trkpt>
<trkpt lat="33.810313" lon="-118.393867">
  <ele>-0.12</ele>
  <time>2026-09-01T01:12:51Z</time>
  <course>0.0</course>
  <speed>0.0</speed>
  <fix>3d</fix>
</trkpt>
<trkpt lat="33.810313" lon="-118.393867">
  <ele>-0.123</ele>
  <time>2026-09-01T01:12:51Z</time>
  <course>188.25</course>
  <speed>0.01414213562373095</speed>
  <fix>3d</fix>
</trkpt>
<trkpt lat="33.810313" lon="-118.393867">
  <ele>-0.12</ele>
  <time>2026-09-01T01:12:51Z</time>
  <course>0.0</course>
  <speed>0.0</speed>
  <fix>3d</fix>
</trkpt>
<trkpt lat="33.810313" lon="-118.393867">
  <ele>-0.124</ele>
  <time>2026-09-01T01:12:51Z</time>
  <course>188.24</course>
  <speed>0.01414213562373095</speed>
  <fix>3d</fix>
</trkpt>
<trkpt lat="33.810313" lon="-118.393867">
  <ele>-0.12</ele>
  <time>2026-09-01T01:12:51Z</time>
  <course>0.0</course>
  <speed>0.0</speed>
  <fix>3d</fix>
</trkpt>
<trkpt lat="33.810313" lon="-118.393867">
  <ele>-0.125</ele>
  <time>2026-09-01T01:12:51Z</time>
  <course>188.23</course>
  <speed>0.01414213562373095</speed>
  <fix>3d</fix>
</trkpt>
<trkpt lat="33.810313" lon="-118.393867">
  <ele>-0.12</ele>
  <time>2026-09-01T01:12:51Z</time>
  <course>0.0</course>
  <speed>0.0</speed>
  <fix>3d</fix>
</trkpt>
<trkpt lat="33.810313" lon="-118.393867">
  <ele>-0.127</ele>
  <time>2026-09-01T01:12:51Z</time>
  <course>188.22</course>
  <speed>0.01414213562373095</speed>
  <fix>3d</fix>
</trkpt>
<trkpt lat="33.810313" lon="-118.393867">
  <ele>-0.12</ele>
  <time>2026-09-01T01:12:51Z</time>
  <course>0.0</course>
  <speed>0.0</speed>
  <fix>3d</fix>
</trkpt>
<trkpt lat="33.810313" lon="-118.393867">
  <ele>-0.128</ele>
  <time>2026-09-01T01:12:51Z</time>
  <course>188.21</course>
  <speed>0.01414213562373095</speed>
  <fix>3d</fix>
</trkpt>
<trkpt lat="33.810313" lon="-118.393867">
  <ele>-0.12</ele>
  <time>2026-09-01T01:12:51Z</time>
  <course>0.0</course>
  <speed>0.0</speed>
  <fix>3d</fix>
</trkpt>
<trkpt lat="33.810313" lon="-118.393867">
  <ele>-0.129</ele>
  <time>2026-09-01T01:12:51Z</time>
  <course>188.21</course>
  <speed>0.01414213562373095</speed>
  <fix>3d</fix>
</trkpt>
<trkpt lat="33.810313" lon="-118.393867">
  <ele>-0.12</ele>
  <time>2026-09-01T01:12:51Z</time>
  <course>0.0</course>
  <speed>0.0</speed>
  <fix>3d</fix>
</trkpt>
<trkpt lat="33.810313" lon="-118.393867">
  <ele>-0.129</ele>
  <time>2026-09-01T01:12:51Z</time>
  <course>188.2</course>
  <speed>0.01414213562373095</speed>
  <fix>3d</fix>
</trkpt>
<trkpt lat="33.810313" lon="-118.393867">
  <ele>-0.12</ele>
  <time>2026-09-01T01:12:51Z</time>
  <course>0.0</course>
  <speed>0.0</speed>
  <fix>3d</fix>
</trkpt>
<trkpt lat="33.810313" lon="-118.393867">
  <ele>-0.128</ele>
  <time>2026-09-01T01:12:51Z</time>
  <course>188.19</course>
  <speed>0.01414213562373095</speed>
  <fix>3d</fix>
</trkpt>
<trkpt lat="33.810313" lon="-118.393867">
  <ele>-0.12</ele>
  <time>2026-09-01T01:12:51Z</time>
  <course>0.0</course>
  <speed>0.0</speed>
  <fix>3d</fix>
</trkpt>
<trkpt lat="33.810313" lon="-118.393867">
  <ele>-0.128</ele>
  <time>2026-09-01T01:12:51Z</time>
  <course>188.18</course>
  <speed>0.01414213562373095</speed>
  <fix>3d</fix>
</trkpt>
<trkpt lat="33.810313" lon="-118.393867">
  <ele>-0.12</ele>
  <time>2026-09-01T01:12:51Z</time>
  <course>0.0</course>
  <speed>0.0</speed>
  <fix>3d</fix>
</trkpt>
<trkpt lat="33.810313" lon="-118.393867">
  <ele>-0.127</ele>
  <time>2026-09-01T01:12:51Z</time>
  <course>188.17</course>
  <speed>0.01414213562373095</speed>
  <fix>3d</fix>
</trkpt>
<trkpt lat="33.810313" lon="-118.393867">
  <ele>-0.12</ele>
  <time>2026-09-01T01:12:51Z</time>
  <course>0.0</course>
  <speed>0.0</speed>
  <fix>3d</fix>
</trkpt>
<trkpt lat="33.810313" lon="-118.393867">
  <ele>-0.127</ele>
  <time>2026-09-01T01:12:51Z</time>
  <course>188.16</course>
  <speed>0.01414213562373095</speed>
  <fix>3d</fix>
</trkpt>
<trkpt lat="33.810313" lon="-118.393867">
  <ele>-0.12</ele>
  <time>2026-09-01T01:12:51Z</time>
  <course>0.0</course>
  <speed>0.0</speed>
  <fix>3d</fix>
</trkpt>
<trkpt lat="33.810313" lon="-118.393867">
  <ele>-0.128</ele>
  <time>2026-09-01T01:12:51Z</time>
  <course>188.16</course>
  <speed>0.01414213562373095</speed>
  <fix>3d</fix>
</trkpt>
<trkpt lat="33.810313" lon="-118.393867">
  <ele>-0.12</ele>
  <time>2026-09-01T01:12:51Z</time>
  <course>0.0</course>
  <speed>0.0</speed>
  <fix>3d</fix>
</trkpt>
<trkpt lat="33.810313" lon="-118.393867">
  <ele>-0.129</ele>
  <time>2026-09-01T01:12:51Z</time>
  <course>188.15</course>
  <speed>0.01414213562373095</speed>
  <fix>3d</fix>
</trkpt>
<trkpt lat="33.810313" lon="-118.393867">
  <ele>-0.12</ele>
  <time>2026-09-01T01:12:51Z</time>
  <course>0.0</course>
  <speed>0.0</speed>
  <fix>3d</fix>
</trkpt>
<trkpt lat="33.810313" lon="-118.393867">
  <ele>-0.131</ele>
  <time>2026-09-01T01:12:51Z</time>
  <course>188.14</course>
  <speed>0.01414213562373095</speed>
  <fix>3d</fix>
</trkpt>
<trkpt lat="33.810313" lon="-118.393867">
  <ele>-0.12</ele>
  <time>2026-09-01T01:12:51Z</time>
  <course>0.0</course>
  <speed>0.0</speed>
  <fix>3d</fix>
</trkpt>
<trkpt lat="33.810313" lon="-118.393867">
  <ele>-0.133</ele>
  <time>2026-09-01T01:12:51Z</time>
  <course>188.13</course>
  <speed>0.01414213562373095</speed>
  <fix>3d</fix>
</trkpt>
<trkpt lat="33.810313" lon="-118.393867">
  <ele>-0.12</ele>
  <time>2026-09-01T01:12:51Z</time>
  <course>0.0</course>
  <speed>0.0</speed>
  <fix>3d</fix>
</trkpt>
<trkpt lat="33.810313" lon="-118.393867">
  <ele>-0.135</ele>
  <time>2026-09-01T01:12:51Z</time>
  <course>188.12</course>
  <speed>0.01414213562373095</speed>
  <fix>3d</fix>
</trkpt>
<trkpt lat="33.810313" lon="-118.393867">
  <ele>-0.12</ele>
  <time>2026-09-01T01:12:51Z</time>
  <course>0.0</course>
  <speed>0.0</speed>
  <fix>3d</fix>
</trkpt>
<trkpt lat="33.810313" lon="-118.393867">
  <ele>-0.136</ele>
  <time>2026-09-01T01:12:51Z</time>
  <course>188.12</course>
  <speed>0.01414213562373095</speed>
  <fix>3d</fix>
</trkpt>
<trkpt lat="33.810313" lon="-118.393867">
  <ele>-0.12</ele>
  <time>2026-09-01T01:12:51Z</time>
  <course>0.0</course>
  <speed>0.0</speed>
  <fix>3d</fix>
</trkpt>
<trkpt lat="33.810313" lon="-118.393867">
  <ele>-0.136</ele>
  <time>2026-09-01T01:12:51Z</time>
  <course>188.11</course>
  <speed>0.01414213562373095</speed>
  <fix>3d</fix>
</trkpt>
<trkpt lat="33.810313" lon="-118.393867">
  <ele>-0.12</ele>
  <time>2026-09-01T01:12:51Z</time>
  <course>0.0</course>
  <speed>0.0</speed>
  <fix>3d</fix>
</trkpt>
<trkpt lat="33.810313" lon="-118.393867">
  <ele>-0.136</ele>
  <time>2026-09-01T01:12:51Z</time>
  <course>188.1</course>
  <speed>0.01414213562373095</speed>
  <fix>3d</fix>
</trkpt>
<trkpt lat="33.810313" lon="-118.393867">
  <ele>-0.12</ele>
  <time>2026-09-01T01:12:51Z</time>
  <course>0.0</course>
  <speed>0.0</speed>
  <fix>3d</fix>
</trkpt>
<trkpt lat="33.810313" lon="-118.393867">
  <ele>-0.135</ele>
  <time>2026-09-01T01:12:51Z</time>
  <course>188.09</course>
  <speed>0.01414213562373095</speed>
  <fix>3d</fix>
</trkpt>
<trkpt lat="33.810313" lon="-118.393867">
  <ele>-0.12</ele>
  <time>2026-09-01T01:12:51Z</time>
  <course>0.0</course>
  <speed>0.0</speed>
  <fix>3d</fix>
</trkpt>
<trkpt lat="33.810313" lon="-118.393867">
  <ele>-0.134</ele>
  <time>2026-09-01T01:12:51Z</time>
  <course>188.08</course>
  <speed>0.01414213562373095</speed>
  <fix>3d</fix>
</trkpt>
<trkpt lat="33.810313" lon="-118.393867">
  <ele>-0.12</ele>
  <time>2026-09-01T01:12:51Z</time>
  <course>0.0</course>
  <speed>0.0</speed>
  <fix>3d</fix>
</trkpt>
<trkpt lat="33.810313" lon="-118.393867">
  <ele>-0.131</ele>
  <time>2026-09-01T01:12:51Z</time>
  <course>188.07</course>
  <speed>0.022360679774997897</speed>
  <fix>3d</fix>
</trkpt>
<trkpt lat="33.810313" lon="-118.393867">
  <ele>-0.12</ele>
  <time>2026-09-01T01:12:51Z</time>
  <course>0.0</course>
  <speed>0.0</speed>
  <fix>3d</fix>
</trkpt>
<trkpt lat="33.810313" lon="-118.393867">
  <ele>-0.128</ele>
  <time>2026-09-01T01:12:51Z</time>
  <course>188.07</course>
  <speed>0.022360679774997897</speed>
  <fix>3d</fix>
</trkpt>
<trkpt lat="33.810313" lon="-118.393867">
  <ele>-0.12</ele>
  <time>2026-09-01T01:12:51Z</time>
  <course>0.0</course>
  <speed>0.0</speed>
  <fix>3d</fix>
</trkpt>
<trkpt lat="33.810313" lon="-118.393867">
  <ele>-0.127</ele>
  <time>2026-09-01T01:12:51Z</time>
  <course>188.06</course>
  <speed>0.022360679774997897</speed>
  <fix>3d</fix>
</trkpt>
<trkpt lat="33.810313" lon="-118.393867">
  <ele>-0.12</ele>
  <time>2026-09-01T01:12:51Z</time>
  <course>0.0</course>
  <speed>0.0</speed>
  <fix>3d</fix>
</trkpt>
<trkpt lat="33.810313" lon="-118.393867">
  <ele>-0.126</ele>
  <time>2026-09-01T01:12:51Z</time>
  <course>188.05</course>
  <speed>0.022360679774997897</speed>
  <fix>3d</fix>
</trkpt>
<trkpt lat="33.810313" lon="-118.393867">
  <ele>-0.12</ele>
  <time>2026-09-01T01:12:51Z</time>
  <course>0.0</course>
  <speed>0.0</speed>
  <fix>3d</fix>
</trkpt>
<trkpt lat="33.810313" lon="-118.393867">
  <ele>-0.126</ele>
  <time>2026-09-01T01:12:51Z</time>
  <course>188.04</course>
  <speed>0.022360679774997897</speed>
  <fix>3d</fix>
</trkpt>
<trkpt lat="33.810313" lon="-118.393867">
  <ele>-0.12</ele>
  <time>2026-09-01T01:12:51Z</time>
  <course>0.0</course>
  <speed>0.0</speed>
  <fix>3d</fix>
</trkpt>
<trkpt lat="33.810313" lon="-118.393867">
  <ele>-0.127</ele>
  <time>2026-09-01T01:12:51Z</time>
  <course>188.03</course>
  <speed>0.022360679774997897</speed>
  <fix>3d</fix>
</trkpt>
<trkpt lat="33.810313" lon="-118.393867">
  <ele>-0.12</ele>
  <time>2026-09-01T01:12:51Z</time>
  <course>0.0</course>
  <speed>0.0</speed>
  <fix>3d</fix>
</trkpt>
<trkpt lat="33.810313" lon="-118.393867">
  <ele>-0.127</ele>
  <time>2026-09-01T01:12:51Z</time>
  <course>188.03</course>
  <speed>0.022360679774997897</speed>
  <fix>3d</fix>
</trkpt>
<trkpt lat="33.810313" lon="-118.393867">
  <ele>-0.12</ele>
  <time>2026-09-01T01:12:51Z</time>
  <course>0.0</course>
  <speed>0.0</speed>
  <fix>3d</fix>
</trkpt>
<trkpt lat="33.810313" lon="-118.393867">
  <ele>-0.127</ele>
  <time>2026-09-01T01:12:51Z</time>
  <course>188.02</course>
  <speed>0.022360679774997897</speed>
  <fix>3d</fix>
</trkpt>
<trkpt lat="33.810313" lon="-118.393867">
  <ele>-0.12</ele>
  <time>2026-09-01T01:12:51Z</time>
  <course>0.0</course>
  <speed>0.0</speed>
  <fix>3d</fix>
</trkpt>
<trkpt lat="33.810313" lon="-118.393867">
  <ele>-0.128</ele>
  <time>2026-09-01T01:12:51Z</time>
  <course>188.01</course>
  <speed>0.022360679774997897</speed>
  <fix>3d</fix>
</trkpt>
<trkpt lat="33.810313" lon="-118.393867">
  <ele>-0.12</ele>
  <time>2026-09-01T01:12:51Z</time>
  <course>0.0</course>
  <speed>0.0</speed>
  <fix>3d</fix>
</trkpt>
<trkpt lat="33.810313" lon="-118.393867">
  <ele>-0.128</ele>
  <time>2026-09-01T01:12:51Z</time>
  <course>188.0</course>
  <speed>0.022360679774997897</speed>
  <fix>3d</fix>
</trkpt>
<trkpt lat="33.810313" lon="-118.393867">
  <ele>-0.12</ele>
  <time>2026-09-01T01:12:51Z</time>
  <course>0.0</course>
  <speed>0.0</speed>
  <fix>3d</fix>
</trkpt>
<trkpt lat="33.810313" lon="-118.393867">
  <ele>-0.128</ele>
  <time>2026-09-01T01:12:51Z</time>
  <course>187.99</course>
  <speed>0.022360679774997897</speed>
  <fix>3d</fix>
</trkpt>
<trkpt lat="33.810313" lon="-118.393867">
  <ele>-0.12</ele>
  <time>2026-09-01T01:12:51Z</time>
  <course>0.0</course>
  <speed>0.0</speed>
  <fix>3d</fix>
</trkpt>
<trkpt lat="33.810313" lon="-118.393867">
  <ele>-0.126</ele>
  <time>2026-09-01T01:12:51Z</time>
  <course>187.99</course>
  <speed>0.022360679774997897</speed>
  <fix>3d</fix>
</trkpt>
<trkpt lat="33.810313" lon="-118.393867">
  <ele>-0.12</ele>
  <time>2026-09-01T01:12:51Z</time>
  <course>0.0</course>
  <speed>0.0</speed>
  <fix>3d</fix>
</trkpt>
<trkpt lat="33.810313" lon="-118.393867">
  <ele>-0.124</ele>
  <time>2026-09-01T01:12:51Z</time>
  <course>187.98</course>
  <speed>0.022360679774997897</speed>
  <fix>3d</fix>
</trkpt>
<trkpt lat="33.810313" lon="-118.393867">
  <ele>-0.12</ele>
  <time>2026-09-01T01:12:51Z</time>
  <course>0.0</course>
  <speed>0.0</speed>
  <fix>3d</fix>
</trkpt>
<trkpt lat="33.810313" lon="-118.393867">
  <ele>-0.122</ele>
  <time>2026-09-01T01:12:51Z</time>
  <course>187.97</course>
  <speed>0.022360679774997897</speed>
  <fix>3d</fix>
</trkpt>
<trkpt lat="33.810313" lon="-118.393867">
  <ele>-0.12</ele>
  <time>2026-09-01T01:12:51Z</time>
  <course>0.0</course>
  <speed>0.0</speed>
  <fix>3d</fix>
</trkpt>
<trkpt lat="33.810313" lon="-118.393867">
  <ele>-0.12</ele>
  <time>2026-09-01T01:12:51Z</time>
  <course>187.96</course>
  <speed>0.022360679774997897</speed>
  <fix>3d</fix>
</trkpt>
<trkpt lat="33.810313" lon="-118.393867">
  <ele>-0.12</ele>
  <time>2026-09-01T01:12:51Z</time>
  <course>0.0</course>
  <speed>0.0</speed>
  <fix>3d</fix>
</trkpt>
<trkpt lat="33.810313" lon="-118.393867">
  <ele>-0.12</ele>
  <time>2026-09-01T01:12:51Z</time>
  <course>187.95</course>
  <speed>0.022360679774997897</speed>
  <fix>3d</fix>
</trkpt>
<trkpt lat="33.810313" lon="-118.393867">
  <ele>-0.12</ele>
  <time>2026-09-01T01:12:51Z</time>
  <course>0.0</course>
  <speed>0.0</speed>
  <fix>3d</fix>
</trkpt>
<trkpt lat="33.810313" lon="-118.393867">
  <ele>-0.122</ele>
  <time>2026-09-01T01:12:51Z</time>
  <course>187.94</course>
  <speed>0.022360679774997897</speed>
  <fix>3d</fix>
</trkpt>
<trkpt lat="33.810313" lon="-118.393867">
  <ele>-0.12</ele>
  <time>2026-09-01T01:12:51Z</time>
  <course>0.0</course>
  <speed>0.0</speed>
  <fix>3d</fix>
</trkpt>
<trkpt lat="33.810313" lon="-118.393867">
  <ele>-0.125</ele>
  <time>2026-09-01T01:12:51Z</time>
  <course>187.94</course>
  <speed>0.022360679774997897</speed>
  <fix>3d</fix>
</trkpt>
<trkpt lat="33.810313" lon="-118.393867">
  <ele>-0.12</ele>
  <time>2026-09-01T01:12:51Z</time>
  <course>0.0</course>
  <speed>0.0</speed>
  <fix>3d</fix>
</trkpt>
<trkpt lat="33.810313" lon="-118.393867">
  <ele>-0.128</ele>
  <time>2026-09-01T01:12:51Z</time>
  <course>187.93</course>
  <speed>0.022360679774997897</speed>
  <fix>3d</fix>
</trkpt>
<trkpt lat="33.810313" lon="-118.393867">
  <ele>-0.12</ele>
  <time>2026-09-01T01:12:51Z</time>
  <course>0.0</course>
  <speed>0.0</speed>
  <fix>3d</fix>
</trkpt>
<trkpt lat="33.810313" lon="-118.393867">
  <ele>-0.131</ele>
  <time>2026-09-01T01:12:51Z</time>
  <course>187.92</course>
  <speed>0.022360679774997897</speed>
  <fix>3d</fix>
</trkpt>
<trkpt lat="33.810313" lon="-118.393867">
  <ele>-0.12</ele>
  <time>2026-09-01T01:12:51Z</time>
  <course>0.0</course>
  <speed>0.0</speed>
  <fix>3d</fix>
</trkpt>
<trkpt lat="33.810313" lon="-118.393867">
  <ele>-0.132</ele>
  <time>2026-09-01T01:12:51Z</time>
  <course>187.91</course>
  <speed>0.022360679774997897</speed>
  <fix>3d</fix>
</trkpt>
<trkpt lat="33.810313" lon="-118.393867">
  <ele>-0.12</ele>
  <time>2026-09-01T01:12:51Z</time>
  <course>0.0</course>
  <speed>0.0</speed>
  <fix>3d</fix>
</trkpt>
<trkpt lat="33.810313" lon="-118.393867">
  <ele>-0.132</ele>
  <time>2026-09-01T01:12:51Z</time>
  <course>187.91</course>
  <speed>0.022360679774997897</speed>
  <fix>3d</fix>
</trkpt>
<trkpt lat="33.810313" lon="-118.393867">
  <ele>-0.12</ele>
  <time>2026-09-01T01:12:51Z</time>
  <course>0.0</course>
  <speed>0.0</speed>
  <fix>3d</fix>
</trkpt>
<trkpt lat="33.810313" lon="-118.393867">
  <ele>-0.132</ele>
  <time>2026-09-01T01:12:51Z</time>
  <course>187.9</course>
  <speed>0.022360679774997897</speed>
  <fix>3d</fix>
</trkpt>
<trkpt lat="33.810313" lon="-118.393867">
  <ele>-0.12</ele>
  <time>2026-09-01T01:12:51Z</time>
  <course>0.0</course>
  <speed>0.0</speed>
  <fix>3d</fix>
</trkpt>
<trkpt lat="33.810313" lon="-118.393867">
  <ele>-0.13</ele>
  <time>2026-09-01T01:12:51Z</time>
  <course>187.89</course>
  <speed>0.022360679774997897</speed>
  <fix>3d</fix>
</trkpt>
<trkpt lat="33.810313" lon="-118.393867">
  <ele>-0.12</ele>
  <time>2026-09-01T01:12:51Z</time>
  <course>0.0</course>
  <speed>0.0</speed>
  <fix>3d</fix>
</trkpt>
<trkpt lat="33.810313" lon="-118.393867">
  <ele>-0.127</ele>
  <time>2026-09-01T01:12:51Z</time>
  <course>187.88</course>
  <speed>0.022360679774997897</speed>
  <fix>3d</fix>
</trkpt>
<trkpt lat="33.810313" lon="-118.393867">
  <ele>-0.12</ele>
  <time>2026-09-01T01:12:51Z</time>
  <course>0.0</course>
  <speed>0.0</speed>
  <fix>3d</fix>
</trkpt>
<trkpt lat="33.810313" lon="-118.393867">
  <ele>-0.123</ele>
  <time>2026-09-01T01:12:51Z</time>
  <course>187.87</course>
  <speed>0.022360679774997897</speed>
  <fix>3d</fix>
</trkpt>
<trkpt lat="33.810313" lon="-118.393867">
  <ele>-0.12</ele>
  <time>2026-09-01T01:12:51Z</time>
  <course>0.0</course>
  <speed>0.0</speed>
  <fix>3d</fix>
</trkpt>
<trkpt lat="33.810313" lon="-118.393867">
  <ele>-0.121</ele>
  <time>2026-09-01T01:12:51Z</time>
  <course>187.87</course>
  <speed>0.022360679774997897</speed>
  <fix>3d</fix>
</trkpt>
<trkpt lat="33.810313" lon="-118.393867">
  <ele>-0.12</ele>
  <time>2026-09-01T01:12:51Z</time>
  <course>0.0</course>
  <speed>0.0</speed>
  <fix>3d</fix>
</trkpt>
<trkpt lat="33.810313" lon="-118.393867">
  <ele>-0.121</ele>
  <time>2026-09-01T01:12:51Z</time>
  <course>187.86</course>
  <speed>0.022360679774997897</speed>
  <fix>3d</fix>
</trkpt>
<trkpt lat="33.810313" lon="-118.393867">
  <ele>-0.12</ele>
  <time>2026-09-01T01:12:51Z</time>
  <course>0.0</course>
  <speed>0.0</speed>
  <fix>3d</fix>
</trkpt>
<trkpt lat="33.810313" lon="-118.393867">
  <ele>-0.123</ele>
  <time>2026-09-01T01:12:51Z</time>
  <course>187.85</course>
  <speed>0.022360679774997897</speed>
  <fix>3d</fix>
</trkpt>
<trkpt lat="33.810313" lon="-118.393867">
  <ele>-0.12</ele>
  <time>2026-09-01T01:12:51Z</time>
  <course>0.0</course>
  <speed>0.0</speed>
  <fix>3d</fix>
</trkpt>
<trkpt lat="33.810313" lon="-118.393867">
  <ele>-0.124</ele>
  <time>2026-09-01T01:12:51Z</time>
  <course>187.84</course>
  <speed>0.022360679774997897</speed>
  <fix>3d</fix>
</trkpt>
<trkpt lat="33.810313" lon="-118.393867">
  <ele>-0.12</ele>
  <time>2026-09-01T01:12:51Z</time>
  <course>0.0</course>
  <speed>0.0</speed>
  <fix>3d</fix>
</trkpt>
<trkpt lat="33.810313" lon="-118.393867">
  <ele>-0.126</ele>
  <time>2026-09-01T01:12:51Z</time>
  <course>187.83</course>
  <speed>0.022360679774997897</speed>
  <fix>3d</fix>
</trkpt>
<trkpt lat="33.810313" lon="-118.393867">
  <ele>-0.12</ele>
  <time>2026-09-01T01:12:51Z</time>
  <course>0.0</course>
  <speed>0.0</speed>
  <fix>3d</fix>
</trkpt>
<trkpt lat="33.810313" lon="-118.393867">
  <ele>-0.127</ele>
  <time>2026-09-01T01:12:51Z</time>
  <course>187.83</course>
  <speed>0.022360679774997897</speed>
  <fix>3d</fix>
</trkpt>
<trkpt lat="33.810313" lon="-118.393867">
  <ele>-0.12</ele>
  <time>2026-09-01T01:12:51Z</time>
  <course>0.0</course>
  <speed>0.0</speed>
  <fix>3d</fix>
</trkpt>
<trkpt lat="33.810313" lon="-118.393867">
  <ele>-0.127</ele>
  <time>2026-09-01T01:12:51Z</time>
  <course>187.82</course>
  <speed>0.022360679774997897</speed>
  <fix>3d</fix>
</trkpt>
<trkpt lat="33.810313" lon="-118.393867">
  <ele>-0.12</ele>
  <time>2026-09-01T01:12:51Z</time>
  <course>0.0</course>
  <speed>0.0</speed>
  <fix>3d</fix>
</trkpt>
<trkpt lat="33.810313" lon="-118.393867">
  <ele>-0.127</ele>
  <time>2026-09-01T01:12:51Z</time>
  <course>187.81</course>
  <speed>0.022360679774997897</speed>
  <fix>3d</fix>
</trkpt>
<trkpt lat="33.810313" lon="-118.393867">
  <ele>-0.12</ele>
  <time>2026-09-01T01:12:51Z</time>
  <course>0.0</course>
  <speed>0.0</speed>
  <fix>3d</fix>
</trkpt>
<trkpt lat="33.810313" lon="-118.393867">
  <ele>-0.126</ele>
  <time>2026-09-01T01:12:51Z</time>
  <course>187.8</course>
  <speed>0.022360679774997897</speed>
  <fix>3d</fix>
</trkpt>
<trkpt lat="33.810313" lon="-118.393867">
  <ele>-0.12</ele>
  <time>2026-09-01T01:12:51Z</time>
  <course>0.0</course>
  <speed>0.0</speed>
  <fix>3d</fix>
</trkpt>
<trkpt lat="33.810313" lon="-118.393867">
  <ele>-0.124</ele>
  <time>2026-09-01T01:12:51Z</time>
  <course>187.8</course>
  <speed>0.022360679774997897</speed>
  <fix>3d</fix>
</trkpt>
<trkpt lat="33.810313" lon="-118.393867">
  <ele>-0.12</ele>
  <time>2026-09-01T01:12:51Z</time>
  <course>0.0</course>
  <speed>0.0</speed>
  <fix>3d</fix>
</trkpt>
<trkpt lat="33.810313" lon="-118.393867">
  <ele>-0.121</ele>
  <time>2026-09-01T01:12:51Z</time>
  <course>187.79</course>
  <speed>0.022360679774997897</speed>
  <fix>3d</fix>
</trkpt>
<trkpt lat="33.810313" lon="-118.393867">
  <ele>-0.12</ele>
  <time>2026-09-01T01:12:51Z</time>
  <course>0.0</course>
  <speed>0.0</speed>
  <fix>3d</fix>
</trkpt>
<trkpt lat="33.810313" lon="-118.393867">
  <ele>-0.119</ele>
  <time>2026-09-01T01:12:51Z</time>
  <course>187.78</course>
  <speed>0.022360679774997897</speed>
  <fix>3d</fix>
</trkpt>
<trkpt lat="33.810313" lon="-118.393867">
  <ele>-0.12</ele>
  <time>2026-09-01T01:12:51Z</time>
  <course>0.0</course>
  <speed>0.0</speed>
  <fix>3d</fix>
</trkpt>
<trkpt lat="33.810313" lon="-118.393867">
  <ele>-0.118</ele>
  <time>2026-09-01T01:12:51Z</time>
  <course>187.77</course>
  <speed>0.022360679774997897</speed>
  <fix>3d</fix>
</trkpt>
<trkpt lat="33.810313" lon="-118.393867">
  <ele>-0.12</ele>
  <time>2026-09-01T01:12:51Z</time>
  <course>0.0</course>
  <speed>0.0</speed>
  <fix>3d</fix>
</trkpt>
<trkpt lat="33.810313" lon="-118.393867">
  <ele>-0.118</ele>
  <time>2026-09-01T01:12:51Z</time>
  <course>187.77</course>
  <speed>0.022360679774997897</speed>
  <fix>3d</fix>
</trkpt>
<trkpt lat="33.810313" lon="-118.393867">
  <ele>-0.12</ele>
  <time>2026-09-01T01:12:51Z</time>
  <course>0.0</course>
  <speed>0.0</speed>
  <fix>3d</fix>
</trkpt>
<trkpt lat="33.810313" lon="-118.393867">
  <ele>-0.119</ele>
  <time>2026-09-01T01:12:51Z</time>
  <course>187.76</course>
  <speed>0.022360679774997897</speed>
  <fix>3d</fix>
</trkpt>
<trkpt lat="33.810313" lon="-118.393867">
  <ele>-0.12</ele>
  <time>2026-09-01T01:12:51Z</time>
  <course>0.0</course>
  <speed>0.0</speed>
  <fix>3d</fix>
</trkpt>
<trkpt lat="33.810313" lon="-118.393867">
  <ele>-0.12</ele>
  <time>2026-09-01T01:12:51Z</time>
  <course>187.75</course>
  <speed>0.022360679774997897</speed>
  <fix>3d</fix>
</trkpt>
<trkpt lat="33.810313" lon="-118.393867">
  <ele>-0.12</ele>
  <time>2026-09-01T01:12:51Z</time>
  <course>0.0</course>
  <speed>0.0</speed>
  <fix>3d</fix>
</trkpt>
<trkpt lat="33.810313" lon="-118.393867">
  <ele>-0.12</ele>
  <time>2026-09-01T01:12:51Z</time>
  <course>187.74</course>
  <speed>0.0282842712474619</speed>
  <fix>3d</fix>
</trkpt>
<trkpt lat="33.810313" lon="-118.393867">
  <ele>-0.12</ele>
  <time>2026-09-01T01:12:51Z</time>
  <course>0.0</course>
  <speed>0.0</speed>
  <fix>3d</fix>
</trkpt>
<trkpt lat="33.810313" lon="-118.393867">
  <ele>-0.12</ele>
  <time>2026-09-01T01:12:51Z</time>
  <course>187.74</course>
  <speed>0.0282842712474619</speed>
  <fix>3d</fix>
</trkpt>
<trkpt lat="33.810313" lon="-118.393867">
  <ele>-0.12</ele>
  <time>2026-09-01T01:12:51Z</time>
  <course>0.0</course>
  <speed>0.0</speed>
  <fix>3d</fix>
</trkpt>
<trkpt lat="33.810313" lon="-118.393867">
  <ele>-0.119</ele>
  <time>2026-09-01T01:12:51Z</time>
  <course>187.73</course>
  <speed>0.0282842712474619</speed>
  <fix>3d</fix>
</trkpt>
<trkpt lat="33.810313" lon="-118.393867">
  <ele>-0.12</ele>
  <time>2026-09-01T01:12:51Z</time>
  <course>0.0</course>
  <speed>0.0</speed>
  <fix>3d</fix>
</trkpt>
<trkpt lat="33.810313" lon="-118.393867">
  <ele>-0.118</ele>
  <time>2026-09-01T01:12:51Z</time>
  <course>187.72</course>
  <speed>0.0282842712474619</speed>
  <fix>3d</fix>
</trkpt>
<trkpt lat="33.810313" lon="-118.393867">
  <ele>-0.12</ele>
  <time>2026-09-01T01:12:51Z</time>
  <course>0.0</course>
  <speed>0.0</speed>
  <fix>3d</fix>
</trkpt>
<trkpt lat="33.810313" lon="-118.393867">
  <ele>-0.116</ele>
  <time>2026-09-01T01:12:51Z</time>
  <course>187.71</course>
  <speed>0.0282842712474619</speed>
  <fix>3d</fix>
</trkpt>
<trkpt lat="33.810313" lon="-118.393867">
  <ele>-0.12</ele>
  <time>2026-09-01T01:12:51Z</time>
  <course>0.0</course>
  <speed>0.0</speed>
  <fix>3d</fix>
</trkpt>
<trkpt lat="33.810313" lon="-118.393867">
  <ele>-0.114</ele>
  <time>2026-09-01T01:12:51Z</time>
  <course>187.71</course>
  <speed>0.0282842712474619</speed>
  <fix>3d</fix>
</trkpt>
<trkpt lat="33.810313" lon="-118.393867">
  <ele>-0.12</ele>
  <time>2026-09-01T01:12:51Z</time>
  <course>0.0</course>
  <speed>0.0</speed>
  <fix>3d</fix>
</trkpt>
<trkpt lat="33.810313" lon="-118.393867">
  <ele>-0.112</ele>
  <time>2026-09-01T01:12:51Z</time>
  <course>187.7</course>
  <speed>0.0282842712474619</speed>
  <fix>3d</fix>
</trkpt>
<trkpt lat="33.810313" lon="-118.393867">
  <ele>-0.12</ele>
  <time>2026-09-01T01:12:51Z</time>
  <course>0.0</course>
  <speed>0.0</speed>
  <fix>3d</fix>
</trkpt>
<trkpt lat="33.810313" lon="-118.393867">
  <ele>-0.113</ele>
  <time>2026-09-01T01:12:51Z</time>
  <course>187.69</course>
  <speed>0.0282842712474619</speed>
  <fix>3d</fix>
</trkpt>
<trkpt lat="33.810313" lon="-118.393867">
  <ele>-0.12</ele>
  <time>2026-09-01T01:12:51Z</time>
  <course>0.0</course>
  <speed>0.0</speed>
  <fix>3d</fix>
</trkpt>
<trkpt lat="33.810313" lon="-118.393867">
  <ele>-0.115</ele>
  <time>2026-09-01T01:12:51Z</time>
  <course>187.69</course>
  <speed>0.0282842712474619</speed>
  <fix>3d</fix>
</trkpt>
<trkpt lat="33.810313" lon="-118.393867">
  <ele>-0.12</ele>
  <time>2026-09-01T01:12:51Z</time>
  <course>0.0</course>
  <speed>0.0</speed>
  <fix>3d</fix>
</trkpt>
<trkpt lat="33.810313" lon="-118.393867">
  <ele>-0.119</ele>
  <time>2026-09-01T01:12:51Z</time>
  <course>187.68</course>
  <speed>0.0282842712474619</speed>
  <fix>3d</fix>
</trkpt>
<trkpt lat="33.810313" lon="-118.393867">
  <ele>-0.12</ele>
  <time>2026-09-01T01:12:51Z</time>
  <course>0.0</course>
  <speed>0.0</speed>
  <fix>3d</fix>
</trkpt>
<trkpt lat="33.810313" lon="-118.393867">
  <ele>-0.123</ele>
  <time>2026-09-01T01:12:51Z</time>
  <course>187.67</course>
  <speed>0.0282842712474619</speed>
  <fix>3d</fix>
</trkpt>
<trkpt lat="33.810313" lon="-118.393867">
  <ele>-0.12</ele>
  <time>2026-09-01T01:12:51Z</time>
  <course>0.0</course>
  <speed>0.0</speed>
  <fix>3d</fix>
</trkpt>
<trkpt lat="33.810313" lon="-118.393867">
  <ele>-0.128</ele>
  <time>2026-09-01T01:12:51Z</time>
  <course>187.66</course>
  <speed>0.0282842712474619</speed>
  <fix>3d</fix>
</trkpt>
<trkpt lat="33.810313" lon="-118.393867">
  <ele>-0.12</ele>
  <time>2026-09-01T01:12:51Z</time>
  <course>0.0</course>
  <speed>0.0</speed>
  <fix>3d</fix>
</trkpt>
<trkpt lat="33.810313" lon="-118.393867">
  <ele>-0.132</ele>
  <time>2026-09-01T01:12:51Z</time>
  <course>187.66</course>
  <speed>0.0282842712474619</speed>
  <fix>3d</fix>
</trkpt>
<trkpt lat="33.810313" lon="-118.393867">
  <ele>-0.12</ele>
  <time>2026-09-01T01:12:51Z</time>
  <course>0.0</course>
  <speed>0.0</speed>
  <fix>3d</fix>
</trkpt>
<trkpt lat="33.810313" lon="-118.393867">
  <ele>-0.134</ele>
  <time>2026-09-01T01:12:51Z</time>
  <course>187.65</course>
  <speed>0.0282842712474619</speed>
  <fix>3d</fix>
</trkpt>
<trkpt lat="33.810313" lon="-118.393867">
  <ele>-0.12</ele>
  <time>2026-09-01T01:12:51Z</time>
  <course>0.0</course>
  <speed>0.0</speed>
  <fix>3d</fix>
</trkpt>
<trkpt lat="33.810313" lon="-118.393867">
  <ele>-0.135</ele>
  <time>2026-09-01T01:12:51Z</time>
  <course>187.64</course>
  <speed>0.0282842712474619</speed>
  <fix>3d</fix>
</trkpt>
<trkpt lat="33.810313" lon="-118.393867">
  <ele>-0.12</ele>
  <time>2026-09-01T01:12:51Z</time>
  <course>0.0</course>
  <speed>0.0</speed>
  <fix>3d</fix>
</trkpt>
<trkpt lat="33.810313" lon="-118.393867">
  <ele>-0.135</ele>
  <time>2026-09-01T01:12:51Z</time>
  <course>187.64</course>
  <speed>0.0282842712474619</speed>
  <fix>3d</fix>
</trkpt>
<trkpt lat="33.810313" lon="-118.393867">
  <ele>-0.12</ele>
  <time>2026-09-01T01:12:51Z</time>
  <course>0.0</course>
  <speed>0.0</speed>
  <fix>3d</fix>
</trkpt>
<trkpt lat="33.810313" lon="-118.393867">
  <ele>-0.133</ele>
  <time>2026-09-01T01:12:51Z</time>
  <course>187.63</course>
  <speed>0.0282842712474619</speed>
  <fix>3d</fix>
</trkpt>
<trkpt lat="33.810313" lon="-118.393867">
  <ele>-0.12</ele>
  <time>2026-09-01T01:12:51Z</time>
  <course>0.0</course>
  <speed>0.0</speed>
  <fix>3d</fix>
</trkpt>
<trkpt lat="33.810313" lon="-118.393867">
  <ele>-0.132</ele>
  <time>2026-09-01T01:12:51Z</time>
  <course>187.63</course>
  <speed>0.0282842712474619</speed>
  <fix>3d</fix>
</trkpt>
<trkpt lat="33.810313" lon="-118.393867">
  <ele>-0.12</ele>
  <time>2026-09-01T01:12:51Z</time>
  <course>0.0</course>
  <speed>0.0</speed>
  <fix>3d</fix>
</trkpt>
<trkpt lat="33.810313" lon="-118.393867">
  <ele>-0.132</ele>
  <time>2026-09-01T01:12:51Z</time>
  <course>187.62</course>
  <speed>0.03605551275463989</speed>
  <fix>3d</fix>
</trkpt>
<trkpt lat="33.810313" lon="-118.393867">
  <ele>-0.12</ele>
  <time>2026-09-01T01:12:51Z</time>
  <course>0.0</course>
  <speed>0.0</speed>
  <fix>3d</fix>
</trkpt>
<trkpt lat="33.810313" lon="-118.393867">
  <ele>-0.132</ele>
  <time>2026-09-01T01:12:51Z</time>
  <course>187.61</course>
  <speed>0.03605551275463989</speed>
  <fix>3d</fix>
</trkpt>
<trkpt lat="33.810313" lon="-118.393867">
  <ele>-0.12</ele>
  <time>2026-09-01T01:12:51Z</time>
  <course>0.0</course>
  <speed>0.0</speed>
  <fix>3d</fix>
</trkpt>
<trkpt lat="33.810313" lon="-118.393867">
  <ele>-0.133</ele>
  <time>2026-09-01T01:12:51Z</time>
  <course>187.61</course>
  <speed>0.03605551275463989</speed>
  <fix>3d</fix>
</trkpt>
<trkpt lat="33.810313" lon="-118.393867">
  <ele>-0.12</ele>
  <time>2026-09-01T01:12:51Z</time>
  <course>0.0</course>
  <speed>0.0</speed>
  <fix>3d</fix>
</trkpt>
<trkpt lat="33.810313" lon="-118.393867">
  <ele>-0.134</ele>
  <time>2026-09-01T01:12:51Z</time>
  <course>187.6</course>
  <speed>0.03605551275463989</speed>
  <fix>3d</fix>
</trkpt>
<trkpt lat="33.810313" lon="-118.393867">
  <ele>-0.12</ele>
  <time>2026-09-01T01:12:51Z</time>
  <course>0.0</course>
  <speed>0.0</speed>
  <fix>3d</fix>
</trkpt>
<trkpt lat="33.810313" lon="-118.393867">
  <ele>-0.133</ele>
  <time>2026-09-01T01:12:51Z</time>
  <course>187.59</course>
  <speed>0.03605551275463989</speed>
  <fix>3d</fix>
</trkpt>
<trkpt lat="33.810313" lon="-118.393867">
  <ele>-0.12</ele>
  <time>2026-09-01T01:12:51Z</time>
  <course>0.0</course>
  <speed>0.0</speed>
  <fix>3d</fix>
</trkpt>
<trkpt lat="33.810313" lon="-118.393867">
  <ele>-0.132</ele>
  <time>2026-09-01T01:12:51Z</time>
  <course>187.59</course>
  <speed>0.03605551275463989</speed>
  <fix>3d</fix>
</trkpt>
<trkpt lat="33.810313" lon="-118.393867">
  <ele>-0.12</ele>
  <time>2026-09-01T01:12:51Z</time>
  <course>0.0</course>
  <speed>0.0</speed>
  <fix>3d</fix>
</trkpt>
<trkpt lat="33.810313" lon="-118.393867">
  <ele>-0.13</ele>
  <time>2026-09-01T01:12:51Z</time>
  <course>187.58</course>
  <speed>0.03605551275463989</speed>
  <fix>3d</fix>
</trkpt>
<trkpt lat="33.810313" lon="-118.393867">
  <ele>-0.12</ele>
  <time>2026-09-01T01:12:51Z</time>
  <course>0.0</course>
  <speed>0.0</speed>
  <fix>3d</fix>
</trkpt>
<trkpt lat="33.810313" lon="-118.393867">
  <ele>-0.127</ele>
  <time>2026-09-01T01:12:51Z</time>
  <course>187.57</course>
  <speed>0.03605551275463989</speed>
  <fix>3d</fix>
</trkpt>
<trkpt lat="33.810313" lon="-118.393867">
  <ele>-0.12</ele>
  <time>2026-09-01T01:12:51Z</time>
  <course>0.0</course>
  <speed>0.0</speed>
  <fix>3d</fix>
</trkpt>
<trkpt lat="33.810313" lon="-118.393867">
  <ele>-0.125</ele>
  <time>2026-09-01T01:12:51Z</time>
  <course>187.57</course>
  <speed>0.03605551275463989</speed>
  <fix>3d</fix>
</trkpt>
<trkpt lat="33.810313" lon="-118.393867">
  <ele>-0.12</ele>
  <time>2026-09-01T01:12:51Z</time>
  <course>0.0</course>
  <speed>0.0</speed>
  <fix>3d</fix>
</trkpt>
<trkpt lat="33.810313" lon="-118.393867">
  <ele>-0.122</ele>
  <time>2026-09-01T01:12:51Z</time>
  <course>187.56</course>
  <speed>0.03605551275463989</speed>
  <fix>3d</fix>
</trkpt>
<trkpt lat="33.810313" lon="-118.393867">
  <ele>-0.12</ele>
  <time>2026-09-01T01:12:51Z</time>
  <course>0.0</course>
  <speed>0.0</speed>
  <fix>3d</fix>
</trkpt>
<trkpt lat="33.810313" lon="-118.393867">
  <ele>-0.119</ele>
  <time>2026-09-01T01:12:51Z</time>
  <course>187.55</course>
  <speed>0.03605551275463989</speed>
  <fix>3d</fix>
</trkpt>
<trkpt lat="33.810313" lon="-118.393867">
  <ele>-0.12</ele>
  <time>2026-09-01T01:12:51Z</time>
  <course>0.0</course>
  <speed>0.0</speed>
  <fix>3d</fix>
</trkpt>
<trkpt lat="33.810313" lon="-118.393867">
  <ele>-0.117</ele>
  <time>2026-09-01T01:12:51Z</time>
  <course>187.55</course>
  <speed>0.03605551275463989</speed>
  <fix>3d</fix>
</trkpt>
<trkpt lat="33.810313" lon="-118.393867">
  <ele>-0.12</ele>
  <time>2026-09-01T01:12:51Z</time>
  <course>0.0</course>
  <speed>0.0</speed>
  <fix>3d</fix>
</trkpt>
<trkpt lat="33.810313" lon="-118.393867">
  <ele>-0.117</ele>
  <time>2026-09-01T01:12:51Z</time>
  <course>187.54</course>
  <speed>0.03605551275463989</speed>
  <fix>3d</fix>
</trkpt>
<trkpt lat="33.810313" lon="-118.393867">
  <ele>-0.12</ele>
  <time>2026-09-01T01:12:51Z</time>
  <course>0.0</course>
  <speed>0.0</speed>
  <fix>3d</fix>
</trkpt>
<trkpt lat="33.810313" lon="-118.393867">
  <ele>-0.118</ele>
  <time>2026-09-01T01:12:51Z</time>
  <course>187.53</course>
  <speed>0.03605551275463989</speed>
  <fix>3d</fix>
</trkpt>
<trkpt lat="33.810313" lon="-118.393867">
  <ele>-0.12</ele>
  <time>2026-09-01T01:12:51Z</time>
  <course>0.0</course>
  <speed>0.0</speed>
  <fix>3d</fix>
</trkpt>
<trkpt lat="33.810313" lon="-118.393867">
  <ele>-0.119</ele>
  <time>2026-09-01T01:12:51Z</time>
  <course>187.53</course>
  <speed>0.03605551275463989</speed>
  <fix>3d</fix>
</trkpt>
<trkpt lat="33.810313" lon="-118.393867">
  <ele>-0.12</ele>
  <time>2026-09-01T01:12:51Z</time>
  <course>0.0</course>
  <speed>0.0</speed>
  <fix>3d</fix>
</trkpt>
<trkpt lat="33.810313" lon="-118.393867">
  <ele>-0.12</ele>
  <time>2026-09-01T01:12:51Z</time>
  <course>187.52</course>
  <speed>0.03605551275463989</speed>
  <fix>3d</fix>
</trkpt>
<trkpt lat="33.810313" lon="-118.393867">
  <ele>-0.12</ele>
  <time>2026-09-01T01:12:51Z</time>
  <course>0.0</course>
  <speed>0.0</speed>
  <fix>3d</fix>
</trkpt>
<trkpt lat="33.810313" lon="-118.393867">
  <ele>-0.121</ele>
  <time>2026-09-01T01:12:51Z</time>
  <course>187.51</course>
  <speed>0.03605551275463989</speed>
  <fix>3d</fix>
</trkpt>
<trkpt lat="33.810313" lon="-118.393867">
  <ele>-0.12</ele>
  <time>2026-09-01T01:12:51Z</time>
  <course>0.0</course>
  <speed>0.0</speed>
  <fix>3d</fix>
</trkpt>
<trkpt lat="33.810313" lon="-118.393867">
  <ele>-0.121</ele>
  <time>2026-09-01T01:12:51Z</time>
  <course>187.51</course>
  <speed>0.03605551275463989</speed>
  <fix>3d</fix>
</trkpt>
<trkpt lat="33.810313" lon="-118.393867">
  <ele>-0.12</ele>
  <time>2026-09-01T01:12:51Z</time>
  <course>0.0</course>
  <speed>0.0</speed>
  <fix>3d</fix>
</trkpt>
<trkpt lat="33.810313" lon="-118.393867">
  <ele>-0.121</ele>
  <time>2026-09-01T01:12:51Z</time>
  <course>187.5</course>
  <speed>0.03605551275463989</speed>
  <fix>3d</fix>
</trkpt>
<trkpt lat="33.810313" lon="-118.393867">
  <ele>-0.12</ele>
  <time>2026-09-01T01:12:51Z</time>
  <course>0.0</course>
  <speed>0.0</speed>
  <fix>3d</fix>
</trkpt>
<trkpt lat="33.810313" lon="-118.393867">
  <ele>-0.121</ele>
  <time>2026-09-01T01:12:51Z</time>
  <course>187.49</course>
  <speed>0.03605551275463989</speed>
  <fix>3d</fix>
</trkpt>
<trkpt lat="33.810313" lon="-118.393867">
  <ele>-0.12</ele>
  <time>2026-09-01T01:12:51Z</time>
  <course>0.0</course>
  <speed>0.0</speed>
  <fix>3d</fix>
</trkpt>
<trkpt lat="33.810313" lon="-118.393867">
  <ele>-0.121</ele>
  <time>2026-09-01T01:12:51Z</time>
  <course>187.49</course>
  <speed>0.03605551275463989</speed>
  <fix>3d</fix>
</trkpt>
<trkpt lat="33.810313" lon="-118.393867">
  <ele>-0.12</ele>
  <time>2026-09-01T01:12:51Z</time>
  <course>0.0</course>
  <speed>0.0</speed>
  <fix>3d</fix>
</trkpt>
<trkpt lat="33.810313" lon="-118.393867">
  <ele>-0.121</ele>
  <time>2026-09-01T01:12:51Z</time>
  <course>187.48</course>
  <speed>0.03605551275463989</speed>
  <fix>3d</fix>
</trkpt>
<trkpt lat="33.810313" lon="-118.393867">
  <ele>-0.12</ele>
  <time>2026-09-01T01:12:51Z</time>
  <course>0.0</course>
  <speed>0.0</speed>
  <fix>3d</fix>
</trkpt>
<trkpt lat="33.810313" lon="-118.393867">
  <ele>-0.122</ele>
  <time>2026-09-01T01:12:51Z</time>
  <course>187.47</course>
  <speed>0.03605551275463989</speed>
  <fix>3d</fix>
</trkpt>
<trkpt lat="33.810313" lon="-118.393867">
  <ele>-0.12</ele>
  <time>2026-09-01T01:12:51Z</time>
  <course>0.0</course>
  <speed>0.0</speed>
  <fix>3d</fix>
</trkpt>
<trkpt lat="33.810313" lon="-118.393867">
  <ele>-0.124</ele>
  <time>2026-09-01T01:12:51Z</time>
  <course>187.47</course>
  <speed>0.03605551275463989</speed>
  <fix>3d</fix>
</trkpt>
<trkpt lat="33.810313" lon="-118.393867">
  <ele>-0.12</ele>
  <time>2026-09-01T01:12:51Z</time>
  <course>0.0</course>
  <speed>0.0</speed>
  <fix>3d</fix>
</trkpt>
<trkpt lat="33.810313" lon="-118.393867">
  <ele>-0.127</ele>
  <time>2026-09-01T01:12:51Z</time>
  <course>187.46</course>
  <speed>0.03605551275463989</speed>
  <fix>3d</fix>
</trkpt>
<trkpt lat="33.810313" lon="-118.393867">
  <ele>-0.12</ele>
  <time>2026-09-01T01:12:51Z</time>
  <course>0.0</course>
  <speed>0.0</speed>
  <fix>3d</fix>
</trkpt>
<trkpt lat="33.810313" lon="-118.393867">
  <ele>-0.129</ele>
  <time>2026-09-01T01:12:51Z</time>
  <course>187.46</course>
  <speed>0.03605551275463989</speed>
  <fix>3d</fix>
</trkpt>
<trkpt lat="33.810313" lon="-118.393867">
  <ele>-0.12</ele>
  <time>2026-09-01T01:12:51Z</time>
  <course>0.0</course>
  <speed>0.0</speed>
  <fix>3d</fix>
</trkpt>
<trkpt lat="33.810313" lon="-118.393867">
  <ele>-0.131</ele>
  <time>2026-09-01T01:12:51Z</time>
  <course>187.45</course>
  <speed>0.03605551275463989</speed>
  <fix>3d</fix>
</trkpt>
<trkpt lat="33.810313" lon="-118.393867">
  <ele>-0.12</ele>
  <time>2026-09-01T01:12:51Z</time>
  <course>0.0</course>
  <speed>0.0</speed>
  <fix>3d</fix>
</trkpt>
<trkpt lat="33.810313" lon="-118.393867">
  <ele>-0.132</ele>
  <time>2026-09-01T01:12:51Z</time>
  <course>187.44</course>
  <speed>0.03605551275463989</speed>
  <fix>3d</fix>
</trkpt>
<trkpt lat="33.810313" lon="-118.393867">
  <ele>-0.12</ele>
  <time>2026-09-01T01:12:51Z</time>
  <course>0.0</course>
  <speed>0.0</speed>
  <fix>3d</fix>
</trkpt>
<trkpt lat="33.810313" lon="-118.393867">
  <ele>-0.132</ele>
  <time>2026-09-01T01:12:51Z</time>
  <course>187.44</course>
  <speed>0.03605551275463989</speed>
  <fix>3d</fix>
</trkpt>
<trkpt lat="33.810313" lon="-118.393867">
  <ele>-0.12</ele>
  <time>2026-09-01T01:12:51Z</time>
  <course>0.0</course>
  <speed>0.0</speed>
  <fix>3d</fix>
</trkpt>
<trkpt lat="33.810313" lon="-118.393867">
  <ele>-0.132</ele>
  <time>2026-09-01T01:12:51Z</time>
  <course>187.43</course>
  <speed>0.03605551275463989</speed>
  <fix>3d</fix>
</trkpt>
<trkpt lat="33.810313" lon="-118.393867">
  <ele>-0.12</ele>
  <time>2026-09-01T01:12:51Z</time>
  <course>0.0</course>
  <speed>0.0</speed>
  <fix>3d</fix>
</trkpt>
<trkpt lat="33.810313" lon="-118.393867">
  <ele>-0.132</ele>
  <time>2026-09-01T01:12:51Z</time>
  <course>187.42</course>
  <speed>0.03605551275463989</speed>
  <fix>3d</fix>
</trkpt>
<trkpt lat="33.810313" lon="-118.393867">
  <ele>-0.12</ele>
  <time>2026-09-01T01:12:51Z</time>
  <course>0.0</course>
  <speed>0.0</speed>
  <fix>3d</fix>
</trkpt>
<trkpt lat="33.810313" lon="-118.393867">
  <ele>-0.131</ele>
  <time>2026-09-01T01:12:51Z</time>
  <course>187.42</course>
  <speed>0.03605551275463989</speed>
  <fix>3d</fix>
</trkpt>
<trkpt lat="33.810313" lon="-118.393867">
  <ele>-0.12</ele>
  <time>2026-09-01T01:12:51Z</time>
  <course>0.0</course>
  <speed>0.0</speed>
  <fix>3d</fix>
</trkpt>
<trkpt lat="33.810313" lon="-118.393867">
  <ele>-0.131</ele>
  <time>2026-09-01T01:12:51Z</time>
  <course>187.41</course>
  <speed>0.03605551275463989</speed>
  <fix>3d</fix>
</trkpt>
<trkpt lat="33.810313" lon="-118.393867">
  <ele>-0.12</ele>
  <time>2026-09-01T01:12:51Z</time>
  <course>0.0</course>
  <speed>0.0</speed>
  <fix>3d</fix>
</trkpt>
<trkpt lat="33.810313" lon="-118.393867">
  <ele>-0.132</ele>
  <time>2026-09-01T01:12:51Z</time>
  <course>187.41</course>
  <speed>0.03605551275463989</speed>
  <fix>3d</fix>
</trkpt>
<trkpt lat="33.810313" lon="-118.393867">
  <ele>-0.12</ele>
  <time>2026-09-01T01:12:51Z</time>
  <course>0.0</course>
  <speed>0.0</speed>
  <fix>3d</fix>
</trkpt>
<trkpt lat="33.810313" lon="-118.393867">
  <ele>-0.134</ele>
  <time>2026-09-01T01:12:51Z</time>
  <course>187.4</course>
  <speed>0.03605551275463989</speed>
  <fix>3d</fix>
</trkpt>
<trkpt lat="33.810313" lon="-118.393867">
  <ele>-0.12</ele>
  <time>2026-09-01T01:12:51Z</time>
  <course>0.0</course>
  <speed>0.0</speed>
  <fix>3d</fix>
</trkpt>
<trkpt lat="33.810313" lon="-118.393867">
  <ele>-0.137</ele>
  <time>2026-09-01T01:12:51Z</time>
  <course>187.39</course>
  <speed>0.03605551275463989</speed>
  <fix>3d</fix>
</trkpt>
<trkpt lat="33.810313" lon="-118.393867">
  <ele>-0.12</ele>
  <time>2026-09-01T01:12:51Z</time>
  <course>0.0</course>
  <speed>0.0</speed>
  <fix>3d</fix>
</trkpt>
<trkpt lat="33.810313" lon="-118.393867">
  <ele>-0.139</ele>
  <time>2026-09-01T01:12:51Z</time>
  <course>187.39</course>
  <speed>0.03605551275463989</speed>
  <fix>3d</fix>
</trkpt>
<trkpt lat="33.810313" lon="-118.393867">
  <ele>-0.12</ele>
  <time>2026-09-01T01:12:51Z</time>
  <course>0.0</course>
  <speed>0.0</speed>
  <fix>3d</fix>
</trkpt>
<trkpt lat="33.810313" lon="-118.393867">
  <ele>-0.141</ele>
  <time>2026-09-01T01:12:51Z</time>
  <course>187.38</course>
  <speed>0.03605551275463989</speed>
  <fix>3d</fix>
</trkpt>
<trkpt lat="33.810313" lon="-118.393867">
  <ele>-0.12</ele>
  <time>2026-09-01T01:12:51Z</time>
  <course>0.0</course>
  <speed>0.0</speed>
  <fix>3d</fix>
</trkpt>
<trkpt lat="33.810313" lon="-118.393867">
  <ele>-0.141</ele>
  <time>2026-09-01T01:12:51Z</time>
  <course>187.38</course>
  <speed>0.03605551275463989</speed>
  <fix>3d</fix>
</trkpt>
<trkpt lat="33.810313" lon="-118.393867">
  <ele>-0.12</ele>
  <time>2026-09-01T01:12:51Z</time>
  <course>0.0</course>
  <speed>0.0</speed>
  <fix>3d</fix>
</trkpt>
<trkpt lat="33.810313" lon="-118.393867">
  <ele>-0.139</ele>
  <time>2026-09-01T01:12:51Z</time>
  <course>187.37</course>
  <speed>0.03605551275463989</speed>
  <fix>3d</fix>
</trkpt>
<trkpt lat="33.810313" lon="-118.393867">
  <ele>-0.12</ele>
  <time>2026-09-01T01:12:51Z</time>
  <course>0.0</course>
  <speed>0.0</speed>
  <fix>3d</fix>
</trkpt>
<trkpt lat="33.810313" lon="-118.393867">
  <ele>-0.136</ele>
  <time>2026-09-01T01:12:51Z</time>
  <course>187.36</course>
  <speed>0.03605551275463989</speed>
  <fix>3d</fix>
</trkpt>
<trkpt lat="33.810313" lon="-118.393867">
  <ele>-0.12</ele>
  <time>2026-09-01T01:12:51Z</time>
  <course>0.0</course>
  <speed>0.0</speed>
  <fix>3d</fix>
</trkpt>
<trkpt lat="33.810313" lon="-118.393867">
  <ele>-0.133</ele>
  <time>2026-09-01T01:12:51Z</time>
  <course>187.36</course>
  <speed>0.03605551275463989</speed>
  <fix>3d</fix>
</trkpt>
<trkpt lat="33.810313" lon="-118.393867">
  <ele>-0.12</ele>
  <time>2026-09-01T01:12:51Z</time>
  <course>0.0</course>
  <speed>0.0</speed>
  <fix>3d</fix>
</trkpt>
<trkpt lat="33.810313" lon="-118.393867">
  <ele>-0.129</ele>
  <time>2026-09-01T01:12:51Z</time>
  <course>187.35</course>
  <speed>0.03605551275463989</speed>
  <fix>3d</fix>
</trkpt>
<trkpt lat="33.810313" lon="-118.393867">
  <ele>-0.12</ele>
  <time>2026-09-01T01:12:51Z</time>
  <course>0.0</course>
  <speed>0.0</speed>
  <fix>3d</fix>
</trkpt>
<trkpt lat="33.810313" lon="-118.393867">
  <ele>-0.127</ele>
  <time>2026-09-01T01:12:51Z</time>
  <course>187.35</course>
  <speed>0.03605551275463989</speed>
  <fix>3d</fix>
</trkpt>
<trkpt lat="33.810313" lon="-118.393867">
  <ele>-0.12</ele>
  <time>2026-09-01T01:12:51Z</time>
  <course>0.0</course>
  <speed>0.0</speed>
  <fix>3d</fix>
</trkpt>
<trkpt lat="33.810313" lon="-118.393867">
  <ele>-0.127</ele>
  <time>2026-09-01T01:12:51Z</time>
  <course>187.34</course>
  <speed>0.03605551275463989</speed>
  <fix>3d</fix>
</trkpt>
<trkpt lat="33.810313" lon="-118.393867">
  <ele>-0.12</ele>
  <time>2026-09-01T01:12:51Z</time>
  <course>0.0</course>
  <speed>0.0</speed>
  <fix>3d</fix>
</trkpt>
<trkpt lat="33.810313" lon="-118.393867">
  <ele>-0.126</ele>
  <time>2026-09-01T01:12:51Z</time>
  <course>187.34</course>
  <speed>0.03605551275463989</speed>
  <fix>3d</fix>
</trkpt>
<trkpt lat="33.810313" lon="-118.393867">
  <ele>-0.12</ele>
  <time>2026-09-01T01:12:51Z</time>
  <course>0.0</course>
  <speed>0.0</speed>
  <fix>3d</fix>
</trkpt>
<trkpt lat="33.810313" lon="-118.393867">
  <ele>-0.126</ele>
  <time>2026-09-01T01:12:51Z</time>
  <course>187.33</course>
  <speed>0.03605551275463989</speed>
  <fix>3d</fix>
</trkpt>
<trkpt lat="33.810313" lon="-118.393867">
  <ele>-0.12</ele>
  <time>2026-09-01T01:12:51Z</time>
  <course>0.0</course>
  <speed>0.0</speed>
  <fix>3d</fix>
</trkpt>
<trkpt lat="33.810313" lon="-118.393867">
  <ele>-0.126</ele>
  <time>2026-09-01T01:12:51Z</time>
  <course>187.32</course>
  <speed>0.03605551275463989</speed>
  <fix>3d</fix>
</trkpt>
<trkpt lat="33.810313" lon="-118.393867">
  <ele>-0.12</ele>
  <time>2026-09-01T01:12:51Z</time>
  <course>0.0</course>
  <speed>0.0</speed>
  <fix>3d</fix>
</trkpt>
<trkpt lat="33.810313" lon="-118.393867">
  <ele>-0.126</ele>
  <time>2026-09-01T01:12:51Z</time>
  <course>187.32</course>
  <speed>0.03605551275463989</speed>
  <fix>3d</fix>
</trkpt>
<trkpt lat="33.810313" lon="-118.393867">
  <ele>-0.12</ele>
  <time>2026-09-01T01:12:51Z</time>
  <course>0.0</course>
  <speed>0.0</speed>
  <fix>3d</fix>
</trkpt>
<trkpt lat="33.810313" lon="-118.393867">
  <ele>-0.125</ele>
  <time>2026-09-01T01:12:51Z</time>
  <course>187.31</course>
  <speed>0.03605551275463989</speed>
  <fix>3d</fix>
</trkpt>
<trkpt lat="33.810313" lon="-118.393867">
  <ele>-0.12</ele>
  <time>2026-09-01T01:12:51Z</time>
  <course>0.0</course>
  <speed>0.0</speed>
  <fix>3d</fix>
</trkpt>
<trkpt lat="33.810313" lon="-118.393867">
  <ele>-0.124</ele>
  <time>2026-09-01T01:12:51Z</time>
  <course>187.31</course>
  <speed>0.03605551275463989</speed>
  <fix>3d</fix>
</trkpt>
<trkpt lat="33.810313" lon="-118.393867">
  <ele>-0.12</ele>
  <time>2026-09-01T01:12:51Z</time>
  <course>0.0</course>
  <speed>0.0</speed>
  <fix>3d</fix>
</trkpt>
<trkpt lat="33.810313" lon="-118.393867">
  <ele>-0.122</ele>
  <time>2026-09-01T01:12:51Z</time>
  <course>187.3</course>
  <speed>0.03605551275463989</speed>
  <fix>3d</fix>
</trkpt>
<trkpt lat="33.810313" lon="-118.393867">
  <ele>-0.12</ele>
  <time>2026-09-01T01:12:51Z</time>
  <course>0.0</course>
  <speed>0.0</speed>
  <fix>3d</fix>
</trkpt>
<trkpt lat="33.810313" lon="-118.393867">
  <ele>-0.121</ele>
  <time>2026-09-01T01:12:51Z</time>
  <course>187.3</course>
  <speed>0.03605551275463989</speed>
  <fix>3d</fix>
</trkpt>
<trkpt lat="33.810313" lon="-118.393867">
  <ele>-0.12</ele>
  <time>2026-09-01T01:12:51Z</time>
  <course>0.0</course>
  <speed>0.0</speed>
  <fix>3d</fix>
</trkpt>
<trkpt lat="33.810313" lon="-118.393867">
  <ele>-0.122</ele>
  <time>2026-09-01T01:12:51Z</time>
  <course>187.29</course>
  <speed>0.03605551275463989</speed>
  <fix>3d</fix>
</trkpt>
<trkpt lat="33.810313" lon="-118.393867">
  <ele>-0.12</ele>
  <time>2026-09-01T01:12:51Z</time>
  <course>0.0</course>
  <speed>0.0</speed>
  <fix>3d</fix>
</trkpt>
<trkpt lat="33.810313" lon="-118.393867">
  <ele>-0.124</ele>
  <time>2026-09-01T01:12:51Z</time>
  <course>187.28</course>
  <speed>0.03605551275463989</speed>
  <fix>3d</fix>
</trkpt>
<trkpt lat="33.810313" lon="-118.393867">
  <ele>-0.12</ele>
  <time>2026-09-01T01:12:51Z</time>
  <course>0.0</course>
  <speed>0.0</speed>
  <fix>3d</fix>
</trkpt>
<trkpt lat="33.810313" lon="-118.393867">
  <ele>-0.127</ele>
  <time>2026-09-01T01:12:51Z</time>
  <course>187.28</course>
  <speed>0.03605551275463989</speed>
  <fix>3d</fix>
</trkpt>
<trkpt lat="33.810313" lon="-118.393867">
  <ele>-0.12</ele>
  <time>2026-09-01T01:12:51Z</time>
  <course>0.0</course>
  <speed>0.0</speed>
  <fix>3d</fix>
</trkpt>
<trkpt lat="33.810313" lon="-118.393867">
  <ele>-0.13</ele>
  <time>2026-09-01T01:12:51Z</time>
  <course>187.27</course>
  <speed>0.03605551275463989</speed>
  <fix>3d</fix>
</trkpt>
<trkpt lat="33.810313" lon="-118.393867">
  <ele>-0.12</ele>
  <time>2026-09-01T01:12:51Z</time>
  <course>0.0</course>
  <speed>0.0</speed>
  <fix>3d</fix>
</trkpt>
<trkpt lat="33.810313" lon="-118.393867">
  <ele>-0.132</ele>
  <time>2026-09-01T01:12:51Z</time>
  <course>187.27</course>
  <speed>0.03605551275463989</speed>
  <fix>3d</fix>
</trkpt>
<trkpt lat="33.810313" lon="-118.393867">
  <ele>-0.12</ele>
  <time>2026-09-01T01:12:51Z</time>
  <course>0.0</course>
  <speed>0.0</speed>
  <fix>3d</fix>
</trkpt>
<trkpt lat="33.810313" lon="-118.393867">
  <ele>-0.134</ele>
  <time>2026-09-01T01:12:51Z</time>
  <course>187.26</course>
  <speed>0.03605551275463989</speed>
  <fix>3d</fix>
</trkpt>
<trkpt lat="33.810313" lon="-118.393867">
  <ele>-0.12</ele>
  <time>2026-09-01T01:12:51Z</time>
  <course>0.0</course>
  <speed>0.0</speed>
  <fix>3d</fix>
</trkpt>
<trkpt lat="33.810313" lon="-118.393867">
  <ele>-0.136</ele>
  <time>2026-09-01T01:12:51Z</time>
  <course>187.26</course>
  <speed>0.03605551275463989</speed>
  <fix>3d</fix>
</trkpt>
<trkpt lat="33.810313" lon="-118.393867">
  <ele>-0.12</ele>
  <time>2026-09-01T01:12:51Z</time>
  <course>0.0</course>
  <speed>0.0</speed>
  <fix>3d</fix>
</trkpt>
<trkpt lat="33.810313" lon="-118.393867">
  <ele>-0.136</ele>
  <time>2026-09-01T01:12:51Z</time>
  <course>187.25</course>
  <speed>0.03605551275463989</speed>
  <fix>3d</fix>
</trkpt>
<trkpt lat="33.810313" lon="-118.393867">
  <ele>-0.12</ele>
  <time>2026-09-01T01:12:51Z</time>
  <course>0.0</course>
  <speed>0.0</speed>
  <fix>3d</fix>
</trkpt>
<trkpt lat="33.810313" lon="-118.393867">
  <ele>-0.135</ele>
  <time>2026-09-01T01:12:51Z</time>
  <course>187.25</course>
  <speed>0.03605551275463989</speed>
  <fix>3d</fix>
</trkpt>
<trkpt lat="33.810313" lon="-118.393867">
  <ele>-0.12</ele>
  <time>2026-09-01T01:12:51Z</time>
  <course>0.0</course>
  <speed>0.0</speed>
  <fix>3d</fix>
</trkpt>
<trkpt lat="33.810313" lon="-118.393867">
  <ele>-0.134</ele>
  <time>2026-09-01T01:12:51Z</time>
  <course>187.24</course>
  <speed>0.03605551275463989</speed>
  <fix>3d</fix>
</trkpt>
<trkpt lat="33.810313" lon="-118.393867">
  <ele>-0.12</ele>
  <time>2026-09-01T01:12:51Z</time>
  <course>0.0</course>
  <speed>0.0</speed>
  <fix>3d</fix>
</trkpt>
<trkpt lat="33.810313" lon="-118.393867">
  <ele>-0.132</ele>
  <time>2026-09-01T01:12:51Z</time>
  <course>187.24</course>
  <speed>0.03605551275463989</speed>
  <fix>3d</fix>
</trkpt>
<trkpt lat="33.810313" lon="-118.393867">
  <ele>-0.12</ele>
  <time>2026-09-01T01:12:51Z</time>
  <course>0.0</course>
  <speed>0.0</speed>
  <fix>3d</fix>
</trkpt>
<trkpt lat="33.810313" lon="-118.393867">
  <ele>-0.131</ele>
  <time>2026-09-01T01:12:51Z</time>
  <course>187.23</course>
  <speed>0.03605551275463989</speed>
  <fix>3d</fix>
</trkpt>
<trkpt lat="33.810313" lon="-118.393867">
  <ele>-0.12</ele>
  <time>2026-09-01T01:12:51Z</time>
  <course>0.0</course>
  <speed>0.0</speed>
  <fix>3d</fix>
</trkpt>
<trkpt lat="33.810313" lon="-118.393867">
  <ele>-0.131</ele>
  <time>2026-09-01T01:12:51Z</time>
  <course>187.23</course>
  <speed>0.03605551275463989</speed>
  <fix>3d</fix>
</trkpt>
<trkpt lat="33.810313" lon="-118.393867">
  <ele>-0.12</ele>
  <time>2026-09-01T01:12:51Z</time>
  <course>0.0</course>
  <speed>0.0</speed>
  <fix>3d</fix>
</trkpt>
<trkpt lat="33.810313" lon="-118.393867">
  <ele>-0.132</ele>
  <time>2026-09-01T01:12:51Z</time>
  <course>187.22</course>
  <speed>0.03605551275463989</speed>
  <fix>3d</fix>
</trkpt>
<trkpt lat="33.810313" lon="-118.393867">
  <ele>-0.12</ele>
  <time>2026-09-01T01:12:51Z</time>
  <course>0.0</course>
  <speed>0.0</speed>
  <fix>3d</fix>
</trkpt>
<trkpt lat="33.810313" lon="-118.393867">
  <ele>-0.132</ele>
  <time>2026-09-01T01:12:51Z</time>
  <course>187.21</course>
  <speed>0.03605551275463989</speed>
  <fix>3d</fix>
</trkpt>
<trkpt lat="33.810313" lon="-118.393867">
  <ele>-0.12</ele>
  <time>2026-09-01T01:12:51Z</time>
  <course>0.0</course>
  <speed>0.0</speed>
  <fix>3d</fix>
</trkpt>
<trkpt lat="33.810313" lon="-118.393867">
  <ele>-0.133</ele>
  <time>2026-09-01T01:12:51Z</time>
  <course>187.21</course>
  <speed>0.03605551275463989</speed>
  <fix>3d</fix>
</trkpt>
<trkpt lat="33.810313" lon="-118.393867">
  <ele>-0.12</ele>
  <time>2026-09-01T01:12:51Z</time>
  <course>0.0</course>
  <speed>0.0</speed>
  <fix>3d</fix>
</trkpt>
<trkpt lat="33.810313" lon="-118.393867">
  <ele>-0.132</ele>
  <time>2026-09-01T01:12:51Z</time>
  <course>187.2</course>
  <speed>0.03605551275463989</speed>
  <fix>3d</fix>
</trkpt>
<trkpt lat="33.810313" lon="-118.393867">
  <ele>-0.12</ele>
  <time>2026-09-01T01:12:51Z</time>
  <course>0.0</course>
  <speed>0.0</speed>
  <fix>3d</fix>
</trkpt>
<trkpt lat="33.810313" lon="-118.393867">
  <ele>-0.131</ele>
  <time>2026-09-01T01:12:51Z</time>
  <course>187.2</course>
  <speed>0.03605551275463989</speed>
  <fix>3d</fix>
</trkpt>
<trkpt lat="33.810313" lon="-118.393867">
  <ele>-0.12</ele>
  <time>2026-09-01T01:12:51Z</time>
  <course>0.0</course>
  <speed>0.0</speed>
  <fix>3d</fix>
</trkpt>
<trkpt lat="33.810313" lon="-118.393867">
  <ele>-0.129</ele>
  <time>2026-09-01T01:12:51Z</time>
  <course>187.19</course>
  <speed>0.03605551275463989</speed>
  <fix>3d</fix>
</trkpt>
<trkpt lat="33.810313" lon="-118.393867">
  <ele>-0.12</ele>
  <time>2026-09-01T01:12:51Z</time>
  <course>0.0</course>
  <speed>0.0</speed>
  <fix>3d</fix>
</trkpt>
<trkpt lat="33.810313" lon="-118.393867">
  <ele>-0.126</ele>
  <time>2026-09-01T01:12:51Z</time>
  <course>187.19</course>
  <speed>0.03605551275463989</speed>
  <fix>3d</fix>
</trkpt>
<trkpt lat="33.810313" lon="-118.393867">
  <ele>-0.12</ele>
  <time>2026-09-01T01:12:51Z</time>
  <course>0.0</course>
  <speed>0.0</speed>
  <fix>3d</fix>
</trkpt>
<trkpt lat="33.810313" lon="-118.393867">
  <ele>-0.124</ele>
  <time>2026-09-01T01:12:51Z</time>
  <course>187.18</course>
  <speed>0.03605551275463989</speed>
  <fix>3d</fix>
</trkpt>
<trkpt lat="33.810313" lon="-118.393867">
  <ele>-0.12</ele>
  <time>2026-09-01T01:12:51Z</time>
  <course>0.0</course>
  <speed>0.0</speed>
  <fix>3d</fix>
</trkpt>
<trkpt lat="33.810313" lon="-118.393867">
  <ele>-0.123</ele>
  <time>2026-09-01T01:12:51Z</time>
  <course>187.18</course>
  <speed>0.03605551275463989</speed>
  <fix>3d</fix>
</trkpt>
<trkpt lat="33.810313" lon="-118.393867">
  <ele>-0.12</ele>
  <time>2026-09-01T01:12:51Z</time>
  <course>0.0</course>
  <speed>0.0</speed>
  <fix>3d</fix>
</trkpt>
<trkpt lat="33.810313" lon="-118.393867">
  <ele>-0.123</ele>
  <time>2026-09-01T01:12:51Z</time>
  <course>187.17</course>
  <speed>0.03605551275463989</speed>
  <fix>3d</fix>
</trkpt>
<trkpt lat="33.810313" lon="-118.393867">
  <ele>-0.12</ele>
  <time>2026-09-01T01:12:51Z</time>
  <course>0.0</course>
  <speed>0.0</speed>
  <fix>3d</fix>
</trkpt>
<trkpt lat="33.810313" lon="-118.393867">
  <ele>-0.122</ele>
  <time>2026-09-01T01:12:51Z</time>
  <course>187.17</course>
  <speed>0.0</speed>
  <fix>3d</fix>
</trkpt>
<trkpt lat="33.810313" lon="-118.393867">
  <ele>-0.12</ele>
  <time>2026-09-01T01:12:51Z</time>
  <course>0.0</course>
  <speed>0.0</speed>
  <fix>3d</fix>
</trkpt>
<trkpt lat="33.810313" lon="-118.393867">
  <ele>-0.121</ele>
  <time>2026-09-01T01:12:51Z</time>
  <course>187.16</course>
  <speed>0.0</speed>
  <fix>3d</fix>
</trkpt>
<trkpt lat="33.810313" lon="-118.393867">
  <ele>-0.12</ele>
  <time>2026-09-01T01:12:51Z</time>
  <course>0.0</course>
  <speed>0.0</speed>
  <fix>3d</fix>
</trkpt>
<trkpt lat="33.810313" lon="-118.393867">
  <ele>-0.121</ele>
  <time>2026-09-01T01:12:51Z</time>
  <course>187.16</course>
  <speed>0.0</speed>
  <fix>3d</fix>
</trkpt>
<trkpt lat="33.810313" lon="-118.393867">
  <ele>-0.12</ele>
  <time>2026-09-01T01:12:51Z</time>
  <course>0.0</course>
  <speed>0.0</speed>
  <fix>3d</fix>
</trkpt>
<trkpt lat="33.810313" lon="-118.393867">
  <ele>-0.119</ele>
  <time>2026-09-01T01:12:51Z</time>
  <course>187.15</course>
  <speed>0.0</speed>
  <fix>3d</fix>
</trkpt>
<trkpt lat="33.810313" lon="-118.393867">
  <ele>-0.12</ele>
  <time>2026-09-01T01:12:51Z</time>
  <course>0.0</course>
  <speed>0.0</speed>
  <fix>3d</fix>
</trkpt>
<trkpt lat="33.810313" lon="-118.393867">
  <ele>-0.116</ele>
  <time>2026-09-01T01:12:51Z</time>
  <course>187.15</course>
  <speed>0.0</speed>
  <fix>3d</fix>
</trkpt>
<trkpt lat="33.810313" lon="-118.393867">
  <ele>-0.12</ele>
  <time>2026-09-01T01:12:51Z</time>
  <course>0.0</course>
  <speed>0.0</speed>
  <fix>3d</fix>
</trkpt>
<trkpt lat="33.810313" lon="-118.393867">
  <ele>-0.114</ele>
  <time>2026-09-01T01:12:51Z</time>
  <course>187.14</course>
  <speed>0.0</speed>
  <fix>3d</fix>
</trkpt>
<trkpt lat="33.810313" lon="-118.393867">
  <ele>-0.12</ele>
  <time>2026-09-01T01:12:51Z</time>
  <course>0.0</course>
  <speed>0.0</speed>
  <fix>3d</fix>
</trkpt>
<trkpt lat="33.810313" lon="-118.393867">
  <ele>-0.113</ele>
  <time>2026-09-01T01:12:51Z</time>
  <course>187.14</course>
  <speed>0.0</speed>
  <fix>3d</fix>
</trkpt>
<trkpt lat="33.810313" lon="-118.393867">
  <ele>-0.12</ele>
  <time>2026-09-01T01:12:51Z</time>
  <course>0.0</course>
  <speed>0.0</speed>
  <fix>3d</fix>
</trkpt>
<trkpt lat="33.810313" lon="-118.393867">
  <ele>-0.112</ele>
  <time>2026-09-01T01:12:51Z</time>
  <course>187.13</course>
  <speed>0.0</speed>
  <fix>3d</fix>
</trkpt>
<trkpt lat="33.810313" lon="-118.393867">
  <ele>-0.12</ele>
  <time>2026-09-01T01:12:51Z</time>
  <course>0.0</course>
  <speed>0.0</speed>
  <fix>3d</fix>
</trkpt>
<trkpt lat="33.810313" lon="-118.393867">
  <ele>-0.113</ele>
  <time>2026-09-01T01:12:51Z</time>
  <course>187.13</course>
  <speed>0.0</speed>
  <fix>3d</fix>
</trkpt>
<trkpt lat="33.810313" lon="-118.393867">
  <ele>-0.12</ele>
  <time>2026-09-01T01:12:51Z</time>
  <course>0.0</course>
  <speed>0.0</speed>
  <fix>3d</fix>
</trkpt>
<trkpt lat="33.810313" lon="-118.393867">
  <ele>-0.114</ele>
  <time>2026-09-01T01:12:51Z</time>
  <course>187.12</course>
  <speed>0.0</speed>
  <fix>3d</fix>
</trkpt>
<trkpt lat="33.810313" lon="-118.393867">
  <ele>-0.12</ele>
  <time>2026-09-01T01:12:51Z</time>
  <course>0.0</course>
  <speed>0.0</speed>
  <fix>3d</fix>
</trkpt>
<trkpt lat="33.810313" lon="-118.393867">
  <ele>-0.116</ele>
  <time>2026-09-01T01:12:51Z</time>
  <course>187.12</course>
  <speed>0.0</speed>
  <fix>3d</fix>
</trkpt>
<trkpt lat="33.810313" lon="-118.393867">
  <ele>-0.12</ele>
  <time>2026-09-01T01:12:51Z</time>
  <course>0.0</course>
  <speed>0.0</speed>
  <fix>3d</fix>
</trkpt>
<trkpt lat="33.810313" lon="-118.393867">
  <ele>-0.119</ele>
  <time>2026-09-01T01:12:51Z</time>
  <course>187.11</course>
  <speed>0.01</speed>
  <fix>3d</fix>
</trkpt>
<trkpt lat="33.810313" lon="-118.393867">
  <ele>-0.12</ele>
  <time>2026-09-01T01:12:51Z</time>
  <course>0.0</course>
  <speed>0.0</speed>
  <fix>3d</fix>
</trkpt>
<trkpt lat="33.810313" lon="-118.393867">
  <ele>-0.12</ele>
  <time>2026-09-01T01:12:51Z</time>
  <course>187.11</course>
  <speed>0.01</speed>
  <fix>3d</fix>
</trkpt>
<trkpt lat="33.810313" lon="-118.393867">
  <ele>-0.12</ele>
  <time>2026-09-01T01:12:51Z</time>
  <course>0.0</course>
  <speed>0.0</speed>
  <fix>3d</fix>
</trkpt>
<trkpt lat="33.810313" lon="-118.393867">
  <ele>-0.121</ele>
  <time>2026-09-01T01:12:51Z</time>
  <course>187.1</course>
  <speed>0.01</speed>
  <fix>3d</fix>
</trkpt>
<trkpt lat="33.810313" lon="-118.393867">
  <ele>-0.12</ele>
  <time>2026-09-01T01:12:51Z</time>
  <course>0.0</course>
  <speed>0.0</speed>
  <fix>3d</fix>
</trkpt>
<trkpt lat="33.810313" lon="-118.393867">
  <ele>-0.122</ele>
  <time>2026-09-01T01:12:51Z</time>
  <course>187.1</course>
  <speed>0.01414213562373095</speed>
  <fix>3d</fix>
</trkpt>
<trkpt lat="33.810313" lon="-118.393867">
  <ele>-0.12</ele>
  <time>2026-09-01T01:12:51Z</time>
  <course>0.0</course>
  <speed>0.0</speed>
  <fix>3d</fix>
</trkpt>
<trkpt lat="33.810313" lon="-118.393867">
  <ele>-0.122</ele>
  <time>2026-09-01T01:12:51Z</time>
  <course>187.1</course>
  <speed>0.01414213562373095</speed>
  <fix>3d</fix>
</trkpt>
<trkpt lat="33.810313" lon="-118.393867">
  <ele>-0.12</ele>
  <time>2026-09-01T01:12:51Z</time>
  <course>0.0</course>
  <speed>0.0</speed>
  <fix>3d</fix>
</trkpt>
<trkpt lat="33.810313" lon="-118.393867">
  <ele>-0.123</ele>
  <time>2026-09-01T01:12:51Z</time>
  <course>187.09</course>
  <speed>0.01414213562373095</speed>
  <fix>3d</fix>
</trkpt>
<trkpt lat="33.810313" lon="-118.393867">
  <ele>-0.12</ele>
  <time>2026-09-01T01:12:51Z</time>
  <course>0.0</course>
  <speed>0.0</speed>
  <fix>3d</fix>
</trkpt>
<trkpt lat="33.810313" lon="-118.393867">
  <ele>-0.124</ele>
  <time>2026-09-01T01:12:51Z</time>
  <course>187.09</course>
  <speed>0.01414213562373095</speed>
  <fix>3d</fix>
</trkpt>
<trkpt lat="33.810313" lon="-118.393867">
  <ele>-0.12</ele>
  <time>2026-09-01T01:12:51Z</time>
  <course>0.0</course>
  <speed>0.0</speed>
  <fix>3d</fix>
</trkpt>
<trkpt lat="33.810313" lon="-118.393867">
  <ele>-0.126</ele>
  <time>2026-09-01T01:12:51Z</time>
  <course>187.08</course>
  <speed>0.01414213562373095</speed>
  <fix>3d</fix>
</trkpt>
<trkpt lat="33.810313" lon="-118.393867">
  <ele>-0.12</ele>
  <time>2026-09-01T01:12:51Z</time>
  <course>0.0</course>
  <speed>0.0</speed>
  <fix>3d</fix>
</trkpt>
<trkpt lat="33.810313" lon="-118.393867">
  <ele>-0.128</ele>
  <time>2026-09-01T01:12:51Z</time>
  <course>187.08</course>
  <speed>0.01414213562373095</speed>
  <fix>3d</fix>
</trkpt>
<trkpt lat="33.810313" lon="-118.393867">
  <ele>-0.12</ele>
  <time>2026-09-01T01:12:51Z</time>
  <course>0.0</course>
  <speed>0.0</speed>
  <fix>3d</fix>
</trkpt>
<trkpt lat="33.810313" lon="-118.393867">
  <ele>-0.13</ele>
  <time>2026-09-01T01:12:51Z</time>
  <course>187.07</course>
  <speed>0.01414213562373095</speed>
  <fix>3d</fix>
</trkpt>
<trkpt lat="33.810313" lon="-118.393867">
  <ele>-0.12</ele>
  <time>2026-09-01T01:12:51Z</time>
  <course>0.0</course>
  <speed>0.0</speed>
  <fix>3d</fix>
</trkpt>
<trkpt lat="33.810313" lon="-118.393867">
  <ele>-0.134</ele>
  <time>2026-09-01T01:12:51Z</time>
  <course>187.07</course>
  <speed>0.022360679774997897</speed>
  <fix>3d</fix>
</trkpt>
<trkpt lat="33.810313" lon="-118.393867">
  <ele>-0.12</ele>
  <time>2026-09-01T01:12:51Z</time>
  <course>0.0</course>
  <speed>0.0</speed>
  <fix>3d</fix>
</trkpt>
<trkpt lat="33.810313" lon="-118.393867">
  <ele>-0.136</ele>
  <time>2026-09-01T01:12:51Z</time>
  <course>187.06</course>
  <speed>0.022360679774997897</speed>
  <fix>3d</fix>
</trkpt>
<trkpt lat="33.810313" lon="-118.393867">
  <ele>-0.12</ele>
  <time>2026-09-01T01:12:51Z</time>
  <course>0.0</course>
  <speed>0.0</speed>
  <fix>3d</fix>
</trkpt>
<trkpt lat="33.810313" lon="-118.393867">
  <ele>-0.137</ele>
  <time>2026-09-01T01:12:51Z</time>
  <course>187.06</course>
  <speed>0.022360679774997897</speed>
  <fix>3d</fix>
</trkpt>
<trkpt lat="33.810313" lon="-118.393867">
  <ele>-0.12</ele>
  <time>2026-09-01T01:12:51Z</time>
  <course>0.0</course>
  <speed>0.0</speed>
  <fix>3d</fix>
</trkpt>
<trkpt lat="33.810313" lon="-118.393867">
  <ele>-0.137</ele>
  <time>2026-09-01T01:12:51Z</time>
  <course>187.05</course>
  <speed>0.022360679774997897</speed>
  <fix>3d</fix>
</trkpt>
<trkpt lat="33.810313" lon="-118.393867">
  <ele>-0.12</ele>
  <time>2026-09-01T01:12:51Z</time>
  <course>0.0</course>
  <speed>0.0</speed>
  <fix>3d</fix>
</trkpt>
<trkpt lat="33.810313" lon="-118.393867">
  <ele>-0.136</ele>
  <time>2026-09-01T01:12:51Z</time>
  <course>187.05</course>
  <speed>0.022360679774997897</speed>
  <fix>3d</fix>
</trkpt>
<trkpt lat="33.810313" lon="-118.393867">
  <ele>-0.12</ele>
  <time>2026-09-01T01:12:51Z</time>
  <course>0.0</course>
  <speed>0.0</speed>
  <fix>3d</fix>
</trkpt>
<trkpt lat="33.810313" lon="-118.393867">
  <ele>-0.133</ele>
  <time>2026-09-01T01:12:51Z</time>
  <course>187.04</course>
  <speed>0.022360679774997897</speed>
  <fix>3d</fix>
</trkpt>
<trkpt lat="33.810313" lon="-118.393867">
  <ele>-0.12</ele>
  <time>2026-09-01T01:12:51Z</time>
  <course>0.0</course>
  <speed>0.0</speed>
  <fix>3d</fix>
</trkpt>
<trkpt lat="33.8103131" lon="-118.3938671">
  <ele>-0.131</ele>
  <time>2026-09-01T01:12:51Z</time>
  <course>187.04</course>
  <speed>0.022360679774997897</speed>
  <fix>3d</fix>
</trkpt>
<trkpt lat="33.810313" lon="-118.393867">
  <ele>-0.12</ele>
  <time>2026-09-01T01:12:51Z</time>
  <course>0.0</course>
  <speed>0.0</speed>
  <fix>3d</fix>
</trkpt>
<trkpt lat="33.8103131" lon="-118.3938671">
  <ele>-0.129</ele>
  <time>2026-09-01T01:12:51Z</time>
  <course>187.03</course>
  <speed>0.0282842712474619</speed>
  <fix>3d</fix>
</trkpt>
<trkpt lat="33.810313" lon="-118.393867">
  <ele>-0.12</ele>
  <time>2026-09-01T01:12:51Z</time>
  <course>0.0</course>
  <speed>0.0</speed>
  <fix>3d</fix>
</trkpt>
<trkpt lat="33.8103131" lon="-118.3938671">
  <ele>-0.129</ele>
  <time>2026-09-01T01:12:51Z</time>
  <course>187.03</course>
  <speed>0.0282842712474619</speed>
  <fix>3d</fix>
</trkpt>
<trkpt lat="33.810313" lon="-118.393867">
  <ele>-0.12</ele>
  <time>2026-09-01T01:12:51Z</time>
  <course>0.0</course>
  <speed>0.0</speed>
  <fix>3d</fix>
</trkpt>
<trkpt lat="33.8103131" lon="-118.3938671">
  <ele>-0.128</ele>
  <time>2026-09-01T01:12:51Z</time>
  <course>187.02</course>
  <speed>0.0282842712474619</speed>
  <fix>3d</fix>
</trkpt>
<trkpt lat="33.810313" lon="-118.393867">
  <ele>-0.12</ele>
  <time>2026-09-01T01:12:51Z</time>
  <course>0.0</course>
  <speed>0.0</speed>
  <fix>3d</fix>
</trkpt>
<trkpt lat="33.8103131" lon="-118.3938671">
  <ele>-0.129</ele>
  <time>2026-09-01T01:12:51Z</time>
  <course>187.02</course>
  <speed>0.0282842712474619</speed>
  <fix>3d</fix>
</trkpt>
<trkpt lat="33.810313" lon="-118.393867">
  <ele>-0.12</ele>
  <time>2026-09-01T01:12:51Z</time>
  <course>0.0</course>
  <speed>0.0</speed>
  <fix>3d</fix>
</trkpt>
<trkpt lat="33.8103131" lon="-118.3938671">
  <ele>-0.13</ele>
  <time>2026-09-01T01:12:51Z</time>
  <course>187.01</course>
  <speed>0.0282842712474619</speed>
  <fix>3d</fix>
</trkpt>
<trkpt lat="33.810313" lon="-118.393867">
  <ele>-0.12</ele>
  <time>2026-09-01T01:12:51Z</time>
  <course>0.0</course>
  <speed>0.0</speed>
  <fix>3d</fix>
</trkpt>
<trkpt lat="33.8103131" lon="-118.3938671">
  <ele>-0.131</ele>
  <time>2026-09-01T01:12:51Z</time>
  <course>187.01</course>
  <speed>0.0282842712474619</speed>
  <fix>3d</fix>
</trkpt>
<trkpt lat="33.810313" lon="-118.393867">
  <ele>-0.12</ele>
  <time>2026-09-01T01:12:51Z</time>
  <course>0.0</course>
  <speed>0.0</speed>
  <fix>3d</fix>
</trkpt>
<trkpt lat="33.8103131" lon="-118.3938671">
  <ele>-0.13</ele>
  <time>2026-09-01T01:12:51Z</time>
  <course>187.0</course>
  <speed>0.0282842712474619</speed>
  <fix>3d</fix>
</trkpt>
<trkpt lat="33.810313" lon="-118.393867">
  <ele>-0.12</ele>
  <time>2026-09-01T01:12:51Z</time>
  <course>0.0</course>
  <speed>0.0</speed>
  <fix>3d</fix>
</trkpt>
<trkpt lat="33.8103131" lon="-118.3938671">
  <ele>-0.13</ele>
  <time>2026-09-01T01:12:51Z</time>
  <course>187.0</course>
  <speed>0.0282842712474619</speed>
  <fix>3d</fix>
</trkpt>
<trkpt lat="33.810313" lon="-118.393867">
  <ele>-0.12</ele>
  <time>2026-09-01T01:12:51Z</time>
  <course>0.0</course>
  <speed>0.0</speed>
  <fix>3d</fix>
</trkpt>
<trkpt lat="33.8103131" lon="-118.3938671">
  <ele>-0.129</ele>
  <time>2026-09-01T01:12:51Z</time>
  <course>187.0</course>
  <speed>0.0282842712474619</speed>
  <fix>3d</fix>
</trkpt>
<trkpt lat="33.810313" lon="-118.393867">
  <ele>-0.12</ele>
  <time>2026-09-01T01:12:51Z</time>
  <course>0.0</course>
  <speed>0.0</speed>
  <fix>3d</fix>
</trkpt>
<trkpt lat="33.8103131" lon="-118.3938671">
  <ele>-0.128</ele>
  <time>2026-09-01T01:12:51Z</time>
  <course>186.99</course>
  <speed>0.03605551275463989</speed>
  <fix>3d</fix>
</trkpt>
<trkpt lat="33.810313" lon="-118.393867">
  <ele>-0.12</ele>
  <time>2026-09-01T01:12:51Z</time>
  <course>0.0</course>
  <speed>0.0</speed>
  <fix>3d</fix>
</trkpt>
<trkpt lat="33.8103131" lon="-118.3938671">
  <ele>-0.128</ele>
  <time>2026-09-01T01:12:52Z</time>
  <course>186.99</course>
  <speed>0.03605551275463989</speed>
  <fix>3d</fix>
</trkpt>
<trkpt lat="33.810313" lon="-118.393867">
  <ele>-0.12</ele>
  <time>2026-09-01T01:12:52Z</time>
  <course>0.0</course>
  <speed>0.0</speed>
  <fix>3d</fix>
</trkpt>
<trkpt lat="33.8103131" lon="-118.3938671">
  <ele>-0.128</ele>
  <time>2026-09-01T01:12:52Z</time>
  <course>186.98</course>
  <speed>0.03605551275463989</speed>
  <fix>3d</fix>
</trkpt>
<trkpt lat="33.810313" lon="-118.393867">
  <ele>-0.12</ele>
  <time>2026-09-01T01:12:52Z</time>
  <course>0.0</course>
  <speed>0.0</speed>
  <fix>3d</fix>
</trkpt>
<trkpt lat="33.8103131" lon="-118.3938671">
  <ele>-0.129</ele>
  <time>2026-09-01T01:12:52Z</time>
  <course>186.98</course>
  <speed>0.03605551275463989</speed>
  <fix>3d</fix>
</trkpt>
<trkpt lat="33.810313" lon="-118.393867">
  <ele>-0.12</ele>
  <time>2026-09-01T01:12:52Z</time>
  <course>0.0</course>
  <speed>0.0</speed>
  <fix>3d</fix>
</trkpt>
<trkpt lat="33.8103131" lon="-118.3938671">
  <ele>-0.131</ele>
  <time>2026-09-01T01:12:52Z</time>
  <course>186.97</course>
  <speed>0.03605551275463989</speed>
  <fix>3d</fix>
</trkpt>
<trkpt lat="33.810313" lon="-118.393867">
  <ele>-0.12</ele>
  <time>2026-09-01T01:12:52Z</time>
  <course>0.0</course>
  <speed>0.0</speed>
  <fix>3d</fix>
</trkpt>
<trkpt lat="33.8103131" lon="-118.3938671">
  <ele>-0.133</ele>
  <time>2026-09-01T01:12:52Z</time>
  <course>186.97</course>
  <speed>0.03605551275463989</speed>
  <fix>3d</fix>
</trkpt>
<trkpt lat="33.810313" lon="-118.393867">
  <ele>-0.12</ele>
  <time>2026-09-01T01:12:52Z</time>
  <course>0.0</course>
  <speed>0.0</speed>
  <fix>3d</fix>
</trkpt>
<trkpt lat="33.8103132" lon="-118.3938671">
  <ele>-0.134</ele>
  <time>2026-09-01T01:12:52Z</time>
  <course>186.96</course>
  <speed>0.03605551275463989</speed>
  <fix>3d</fix>
</trkpt>
<trkpt lat="33.810313" lon="-118.393867">
  <ele>-0.12</ele>
  <time>2026-09-01T01:12:52Z</time>
  <course>0.0</course>
  <speed>0.0</speed>
  <fix>3d</fix>
</trkpt>
<trkpt lat="33.8103132" lon="-118.3938671">
  <ele>-0.133</ele>
  <time>2026-09-01T01:12:52Z</time>
  <course>186.96</course>
  <speed>0.03605551275463989</speed>
  <fix>3d</fix>
</trkpt>
<trkpt lat="33.810313" lon="-118.393867">
  <ele>-0.12</ele>
  <time>2026-09-01T01:12:52Z</time>
  <course>0.0</course>
  <speed>0.0</speed>
  <fix>3d</fix>
</trkpt>
<trkpt lat="33.8103132" lon="-118.3938671">
  <ele>-0.131</ele>
  <time>2026-09-01T01:12:52Z</time>
  <course>186.96</course>
  <speed>0.03605551275463989</speed>
  <fix>3d</fix>
</trkpt>
<trkpt lat="33.810313" lon="-118.393867">
  <ele>-0.12</ele>
  <time>2026-09-01T01:12:52Z</time>
  <course>0.0</course>
  <speed>0.0</speed>
  <fix>3d</fix>
</trkpt>
<trkpt lat="33.8103132" lon="-118.3938671">
  <ele>-0.13</ele>
  <time>2026-09-01T01:12:52Z</time>
  <course>186.95</course>
  <speed>0.03605551275463989</speed>
  <fix>3d</fix>
</trkpt>
<trkpt lat="33.810313" lon="-118.393867">
  <ele>-0.12</ele>
  <time>2026-09-01T01:12:52Z</time>
  <course>0.0</course>
  <speed>0.0</speed>
  <fix>3d</fix>
</trkpt>
<trkpt lat="33.8103132" lon="-118.3938672">
  <ele>-0.129</ele>
  <time>2026-09-01T01:12:52Z</time>
  <course>186.95</course>
  <speed>0.03605551275463989</speed>
  <fix>3d</fix>
</trkpt>
<trkpt lat="33.810313" lon="-118.393867">
  <ele>-0.12</ele>
  <time>2026-09-01T01:12:52Z</time>
  <course>0.0</course>
  <speed>0.0</speed>
  <fix>3d</fix>
</trkpt>
<trkpt lat="33.8103132" lon="-118.3938672">
  <ele>-0.128</ele>
  <time>2026-09-01T01:12:52Z</time>
  <course>186.94</course>
  <speed>0.03605551275463989</speed>
  <fix>3d</fix>
</trkpt>
<trkpt lat="33.810313" lon="-118.393867">
  <ele>-0.12</ele>
  <time>2026-09-01T01:12:52Z</time>
  <course>0.0</course>
  <speed>0.0</speed>
  <fix>3d</fix>
</trkpt>
<trkpt lat="33.8103132" lon="-118.3938672">
  <ele>-0.128</ele>
  <time>2026-09-01T01:12:52Z</time>
  <course>186.94</course>
  <speed>0.0282842712474619</speed>
  <fix>3d</fix>
</trkpt>
<trkpt lat="33.810313" lon="-118.393867">
  <ele>-0.12</ele>
  <time>2026-09-01T01:12:52Z</time>
  <course>0.0</course>
  <speed>0.0</speed>
  <fix>3d</fix>
</trkpt>
<trkpt lat="33.8103132" lon="-118.3938672">
  <ele>-0.127</ele>
  <time>2026-09-01T01:12:52Z</time>
  <course>186.94</course>
  <speed>0.0282842712474619</speed>
  <fix>3d</fix>
</trkpt>
<trkpt lat="33.810313" lon="-118.393867">
  <ele>-0.12</ele>
  <time>2026-09-01T01:12:52Z</time>
  <course>0.0</course>
  <speed>0.0</speed>
  <fix>3d</fix>
</trkpt>
<trkpt lat="33.8103132" lon="-118.3938672">
  <ele>-0.128</ele>
  <time>2026-09-01T01:12:52Z</time>
  <course>186.93</course>
  <speed>0.0282842712474619</speed>
  <fix>3d</fix>
</trkpt>
<trkpt lat="33.810313" lon="-118.393867">
  <ele>-0.12</ele>
  <time>2026-09-01T01:12:52Z</time>
  <course>0.0</course>
  <speed>0.0</speed>
  <fix>3d</fix>
</trkpt>
<trkpt lat="33.8103132" lon="-118.3938672">
  <ele>-0.128</ele>
  <time>2026-09-01T01:12:52Z</time>
  <course>186.93</course>
  <speed>0.0282842712474619</speed>
  <fix>3d</fix>
</trkpt>
<trkpt lat="33.810313" lon="-118.393867">
  <ele>-0.12</ele>
  <time>2026-09-01T01:12:52Z</time>
  <course>0.0</course>
  <speed>0.0</speed>
  <fix>3d</fix>
</trkpt>
<trkpt lat="33.8103132" lon="-118.3938672">
  <ele>-0.127</ele>
  <time>2026-09-01T01:12:52Z</time>
  <course>186.92</course>
  <speed>0.0282842712474619</speed>
  <fix>3d</fix>
</trkpt>
<trkpt lat="33.810313" lon="-118.393867">
  <ele>-0.12</ele>
  <time>2026-09-01T01:12:52Z</time>
  <course>0.0</course>
  <speed>0.0</speed>
  <fix>3d</fix>
</trkpt>
<trkpt lat="33.8103132" lon="-118.3938672">
  <ele>-0.126</ele>
  <time>2026-09-01T01:12:52Z</time>
  <course>186.92</course>
  <speed>0.0282842712474619</speed>
  <fix>3d</fix>
</trkpt>
<trkpt lat="33.810313" lon="-118.393867">
  <ele>-0.12</ele>
  <time>2026-09-01T01:12:52Z</time>
  <course>0.0</course>
  <speed>0.0</speed>
  <fix>3d</fix>
</trkpt>
<trkpt lat="33.8103132" lon="-118.3938671">
  <ele>-0.125</ele>
  <time>2026-09-01T01:12:52Z</time>
  <course>186.92</course>
  <speed>0.0282842712474619</speed>
  <fix>3d</fix>
</trkpt>
<trkpt lat="33.810313" lon="-118.393867">
  <ele>-0.12</ele>
  <time>2026-09-01T01:12:52Z</time>
  <course>0.0</course>
  <speed>0.0</speed>
  <fix>3d</fix>
</trkpt>
<trkpt lat="33.8103132" lon="-118.3938671">
  <ele>-0.124</ele>
  <time>2026-09-01T01:12:52Z</time>
  <course>186.91</course>
  <speed>0.0282842712474619</speed>
  <fix>3d</fix>
</trkpt>
<trkpt lat="33.810313" lon="-118.393867">
  <ele>-0.12</ele>
  <time>2026-09-01T01:12:52Z</time>
  <course>0.0</course>
  <speed>0.0</speed>
  <fix>3d</fix>
</trkpt>
<trkpt lat="33.8103132" lon="-118.3938671">
  <ele>-0.122</ele>
  <time>2026-09-01T01:12:52Z</time>
  <course>186.91</course>
  <speed>0.0282842712474619</speed>
  <fix>3d</fix>
</trkpt>
<trkpt lat="33.810313" lon="-118.393867">
  <ele>-0.12</ele>
  <time>2026-09-01T01:12:52Z</time>
  <course>0.0</course>
  <speed>0.0</speed>
  <fix>3d</fix>
</trkpt>
<trkpt lat="33.8103132" lon="-118.3938671">
  <ele>-0.121</ele>
  <time>2026-09-01T01:12:52Z</time>
  <course>186.91</course>
  <speed>0.0282842712474619</speed>
  <fix>3d</fix>
</trkpt>
<trkpt lat="33.810313" lon="-118.393867">
  <ele>-0.12</ele>
  <time>2026-09-01T01:12:52Z</time>
  <course>0.0</course>
  <speed>0.0</speed>
  <fix>3d</fix>
</trkpt>
<trkpt lat="33.8103132" lon="-118.3938671">
  <ele>-0.12</ele>
  <time>2026-09-01T01:12:52Z</time>
  <course>186.9</course>
  <speed>0.0282842712474619</speed>
  <fix>3d</fix>
</trkpt>
<trkpt lat="33.810313" lon="-118.393867">
  <ele>-0.12</ele>
  <time>2026-09-01T01:12:52Z</time>
  <course>0.0</course>
  <speed>0.0</speed>
  <fix>3d</fix>
</trkpt>
<trkpt lat="33.8103132" lon="-118.3938671">
  <ele>-0.119</ele>
  <time>2026-09-01T01:12:52Z</time>
  <course>186.9</course>
  <speed>0.022360679774997897</speed>
  <fix>3d</fix>
</trkpt>
<trkpt lat="33.810313" lon="-118.393867">
  <ele>-0.12</ele>
  <time>2026-09-01T01:12:52Z</time>
  <course>0.0</course>
  <speed>0.0</speed>
  <fix>3d</fix>
</trkpt>
<trkpt lat="33.8103131" lon="-118.3938671">
  <ele>-0.119</ele>
  <time>2026-09-01T01:12:52Z</time>
  <course>186.89</course>
  <speed>0.022360679774997897</speed>
  <fix>3d</fix>
</trkpt>
<trkpt lat="33.810313" lon="-118.393867">
  <ele>-0.12</ele>
  <time>2026-09-01T01:12:52Z</time>
  <course>0.0</course>
  <speed>0.0</speed>
  <fix>3d</fix>
</trkpt>
<trkpt lat="33.8103131" lon="-118.3938671">
  <ele>-0.119</ele>
  <time>2026-09-01T01:12:52Z</time>
  <course>186.89</course>
  <speed>0.022360679774997897</speed>
  <fix>3d</fix>
</trkpt>
<trkpt lat="33.810313" lon="-118.393867">
  <ele>-0.12</ele>
  <time>2026-09-01T01:12:52Z</time>
  <course>0.0</course>
  <speed>0.0</speed>
  <fix>3d</fix>
</trkpt>
<trkpt lat="33.8103131" lon="-118.3938671">
  <ele>-0.119</ele>
  <time>2026-09-01T01:12:52Z</time>
  <course>186.89</course>
  <speed>0.022360679774997897</speed>
  <fix>3d</fix>
</trkpt>
<trkpt lat="33.810313" lon="-118.393867">
  <ele>-0.12</ele>
  <time>2026-09-01T01:12:52Z</time>
  <course>0.0</course>
  <speed>0.0</speed>
  <fix>3d</fix>
</trkpt>
<trkpt lat="33.8103131" lon="-118.3938671">
  <ele>-0.119</ele>
  <time>2026-09-01T01:12:52Z</time>
  <course>186.88</course>
  <speed>0.022360679774997897</speed>
  <fix>3d</fix>
</trkpt>
<trkpt lat="33.810313" lon="-118.393867">
  <ele>-0.12</ele>
  <time>2026-09-01T01:12:52Z</time>
  <course>0.0</course>
  <speed>0.0</speed>
  <fix>3d</fix>
</trkpt>
<trkpt lat="33.8103131" lon="-118.3938671">
  <ele>-0.119</ele>
  <time>2026-09-01T01:12:52Z</time>
  <course>186.88</course>
  <speed>0.022360679774997897</speed>
  <fix>3d</fix>
</trkpt>
<trkpt lat="33.810313" lon="-118.393867">
  <ele>-0.12</ele>
  <time>2026-09-01T01:12:52Z</time>
  <course>0.0</course>
  <speed>0.0</speed>
  <fix>3d</fix>
</trkpt>
<trkpt lat="33.8103131" lon="-118.3938671">
  <ele>-0.119</ele>
  <time>2026-09-01T01:12:52Z</time>
  <course>186.88</course>
  <speed>0.022360679774997897</speed>
  <fix>3d</fix>
</trkpt>
<trkpt lat="33.810313" lon="-118.393867">
  <ele>-0.12</ele>
  <time>2026-09-01T01:12:52Z</time>
  <course>0.0</course>
  <speed>0.0</speed>
  <fix>3d</fix>
</trkpt>
<trkpt lat="33.8103131" lon="-118.3938671">
  <ele>-0.12</ele>
  <time>2026-09-01T01:12:52Z</time>
  <course>186.87</course>
  <speed>0.022360679774997897</speed>
  <fix>3d</fix>
</trkpt>
<trkpt lat="33.810313" lon="-118.393867">
  <ele>-0.12</ele>
  <time>2026-09-01T01:12:52Z</time>
  <course>0.0</course>
  <speed>0.0</speed>
  <fix>3d</fix>
</trkpt>
<trkpt lat="33.8103131" lon="-118.3938671">
  <ele>-0.121</ele>
  <time>2026-09-01T01:12:52Z</time>
  <course>186.87</course>
  <speed>0.022360679774997897</speed>
  <fix>3d</fix>
</trkpt>
<trkpt lat="33.810313" lon="-118.393867">
  <ele>-0.12</ele>
  <time>2026-09-01T01:12:52Z</time>
  <course>0.0</course>
  <speed>0.0</speed>
  <fix>3d</fix>
</trkpt>
<trkpt lat="33.8103131" lon="-118.3938671">
  <ele>-0.124</ele>
  <time>2026-09-01T01:12:52Z</time>
  <course>186.87</course>
  <speed>0.022360679774997897</speed>
  <fix>3d</fix>
</trkpt>
<trkpt lat="33.810313" lon="-118.393867">
  <ele>-0.12</ele>
  <time>2026-09-01T01:12:52Z</time>
  <course>0.0</course>
  <speed>0.0</speed>
  <fix>3d</fix>
</trkpt>
<trkpt lat="33.8103131" lon="-118.3938671">
  <ele>-0.126</ele>
  <time>2026-09-01T01:12:52Z</time>
  <course>186.87</course>
  <speed>0.022360679774997897</speed>
  <fix>3d</fix>
</trkpt>
<trkpt lat="33.810313" lon="-118.393867">
  <ele>-0.12</ele>
  <time>2026-09-01T01:12:52Z</time>
  <course>0.0</course>
  <speed>0.0</speed>
  <fix>3d</fix>
</trkpt>
<trkpt lat="33.8103131" lon="-118.3938671">
  <ele>-0.128</ele>
  <time>2026-09-01T01:12:52Z</time>
  <course>186.86</course>
  <speed>0.022360679774997897</speed>
  <fix>3d</fix>
</trkpt>
<trkpt lat="33.810313" lon="-118.393867">
  <ele>-0.12</ele>
  <time>2026-09-01T01:12:52Z</time>
  <course>0.0</course>
  <speed>0.0</speed>
  <fix>3d</fix>
</trkpt>
<trkpt lat="33.8103131" lon="-118.3938671">
  <ele>-0.131</ele>
  <time>2026-09-01T01:12:52Z</time>
  <course>186.86</course>
  <speed>0.022360679774997897</speed>
  <fix>3d</fix>
</trkpt>
<trkpt lat="33.810313" lon="-118.393867">
  <ele>-0.12</ele>
  <time>2026-09-01T01:12:52Z</time>
  <course>0.0</course>
  <speed>0.0</speed>
  <fix>3d</fix>
</trkpt>
<trkpt lat="33.8103131" lon="-118.3938671">
  <ele>-0.133</ele>
  <time>2026-09-01T01:12:52Z</time>
  <course>186.86</course>
  <speed>0.022360679774997897</speed>
  <fix>3d</fix>
</trkpt>
<trkpt lat="33.810313" lon="-118.393867">
  <ele>-0.12</ele>
  <time>2026-09-01T01:12:52Z</time>
  <course>0.0</course>
  <speed>0.0</speed>
  <fix>3d</fix>
</trkpt>
<trkpt lat="33.8103131" lon="-118.3938671">
  <ele>-0.133</ele>
  <time>2026-09-01T01:12:52Z</time>
  <course>186.85</course>
  <speed>0.022360679774997897</speed>
  <fix>3d</fix>
</trkpt>
<trkpt lat="33.810313" lon="-118.393867">
  <ele>-0.12</ele>
  <time>2026-09-01T01:12:52Z</time>
  <course>0.0</course>
  <speed>0.0</speed>
  <fix>3d</fix>
</trkpt>
<trkpt lat="33.8103131" lon="-118.3938671">
  <ele>-0.132</ele>
  <time>2026-09-01T01:12:52Z</time>
  <course>186.85</course>
  <speed>0.022360679774997897</speed>
  <fix>3d</fix>
</trkpt>
<trkpt lat="33.810313" lon="-118.393867">
  <ele>-0.12</ele>
  <time>2026-09-01T01:12:52Z</time>
  <course>0.0</course>
  <speed>0.0</speed>
  <fix>3d</fix>
</trkpt>
<trkpt lat="33.8103131" lon="-118.3938671">
  <ele>-0.131</ele>
  <time>2026-09-01T01:12:52Z</time>
  <course>186.85</course>
  <speed>0.022360679774997897</speed>
  <fix>3d</fix>
</trkpt>
<trkpt lat="33.810313" lon="-118.393867">
  <ele>-0.12</ele>
  <time>2026-09-01T01:12:52Z</time>
  <course>0.0</course>
  <speed>0.0</speed>
  <fix>3d</fix>
</trkpt>
<trkpt lat="33.8103131" lon="-118.3938671">
  <ele>-0.129</ele>
  <time>2026-09-01T01:12:52Z</time>
  <course>186.84</course>
  <speed>0.022360679774997897</speed>
  <fix>3d</fix>
</trkpt>
<trkpt lat="33.810313" lon="-118.393867">
  <ele>-0.12</ele>
  <time>2026-09-01T01:12:52Z</time>
  <course>0.0</course>
  <speed>0.0</speed>
  <fix>3d</fix>
</trkpt>
<trkpt lat="33.8103131" lon="-118.3938671">
  <ele>-0.128</ele>
  <time>2026-09-01T01:12:52Z</time>
  <course>186.84</course>
  <speed>0.022360679774997897</speed>
  <fix>3d</fix>
</trkpt>
<trkpt lat="33.810313" lon="-118.393867">
  <ele>-0.12</ele>
  <time>2026-09-01T01:12:52Z</time>
  <course>0.0</course>
  <speed>0.0</speed>
  <fix>3d</fix>
</trkpt>
<trkpt lat="33.8103131" lon="-118.3938671">
  <ele>-0.128</ele>
  <time>2026-09-01T01:12:52Z</time>
  <course>186.84</course>
  <speed>0.01414213562373095</speed>
  <fix>3d</fix>
</trkpt>
<trkpt lat="33.810313" lon="-118.393867">
  <ele>-0.12</ele>
  <time>2026-09-01T01:12:52Z</time>
  <course>0.0</course>
  <speed>0.0</speed>
  <fix>3d</fix>
</trkpt>
<trkpt lat="33.8103131" lon="-118.3938671">
  <ele>-0.128</ele>
  <time>2026-09-01T01:12:52Z</time>
  <course>186.83</course>
  <speed>0.01414213562373095</speed>
  <fix>3d</fix>
</trkpt>
<trkpt lat="33.810313" lon="-118.393867">
  <ele>-0.12</ele>
  <time>2026-09-01T01:12:52Z</time>
  <course>0.0</course>
  <speed>0.0</speed>
  <fix>3d</fix>
</trkpt>
<trkpt lat="33.8103131" lon="-118.3938671">
  <ele>-0.128</ele>
  <time>2026-09-01T01:12:53Z</time>
  <course>186.83</course>
  <speed>0.01414213562373095</speed>
  <fix>3d</fix>
</trkpt>
<trkpt lat="33.810313" lon="-118.393867">
  <ele>-0.12</ele>
  <time>2026-09-01T01:12:53Z</time>
  <course>0.0</course>
  <speed>0.0</speed>
  <fix>3d</fix>
</trkpt>
<trkpt lat="33.8103131" lon="-118.3938671">
  <ele>-0.127</ele>
  <time>2026-09-01T01:12:53Z</time>
  <course>186.83</course>
  <speed>0.01414213562373095</speed>
  <fix>3d</fix>
</trkpt>
<trkpt lat="33.810313" lon="-118.393867">
  <ele>-0.12</ele>
  <time>2026-09-01T01:12:53Z</time>
  <course>0.0</course>
  <speed>0.0</speed>
  <fix>3d</fix>
</trkpt>
<trkpt lat="33.8103131" lon="-118.3938671">
  <ele>-0.126</ele>
  <time>2026-09-01T01:12:53Z</time>
  <course>186.82</course>
  <speed>0.01414213562373095</speed>
  <fix>3d</fix>
</trkpt>
<trkpt lat="33.810313" lon="-118.393867">
  <ele>-0.12</ele>
  <time>2026-09-01T01:12:53Z</time>
  <course>0.0</course>
  <speed>0.0</speed>
  <fix>3d</fix>
</trkpt>
<trkpt lat="33.8103131" lon="-118.3938671">
  <ele>-0.125</ele>
  <time>2026-09-01T01:12:53Z</time>
  <course>186.82</course>
  <speed>0.01414213562373095</speed>
  <fix>3d</fix>
</trkpt>
<trkpt lat="33.810313" lon="-118.393867">
  <ele>-0.12</ele>
  <time>2026-09-01T01:12:53Z</time>
  <course>0.0</course>
  <speed>0.0</speed>
  <fix>3d</fix>
</trkpt>
<trkpt lat="33.8103131" lon="-118.3938671">
  <ele>-0.124</ele>
  <time>2026-09-01T01:12:53Z</time>
  <course>186.82</course>
  <speed>0.01</speed>
  <fix>3d</fix>
</trkpt>
<trkpt lat="33.810313" lon="-118.393867">
  <ele>-0.12</ele>
  <time>2026-09-01T01:12:53Z</time>
  <course>0.0</course>
  <speed>0.0</speed>
  <fix>3d</fix>
</trkpt>
<trkpt lat="33.8103131" lon="-118.3938671">
  <ele>-0.123</ele>
  <time>2026-09-01T01:12:53Z</time>
  <course>186.81</course>
  <speed>0.01</speed>
  <fix>3d</fix>
</trkpt>
<trkpt lat="33.810313" lon="-118.393867">
  <ele>-0.12</ele>
  <time>2026-09-01T01:12:53Z</time>
  <course>0.0</course>
  <speed>0.0</speed>
  <fix>3d</fix>
</trkpt>
<trkpt lat="33.8103131" lon="-118.3938671">
  <ele>-0.122</ele>
  <time>2026-09-01T01:12:53Z</time>
  <course>186.81</course>
  <speed>0.01</speed>
  <fix>3d</fix>
</trkpt>
<trkpt lat="33.810313" lon="-118.393867">
  <ele>-0.12</ele>
  <time>2026-09-01T01:12:53Z</time>
  <course>0.0</course>
  <speed>0.0</speed>
  <fix>3d</fix>
</trkpt>
<trkpt lat="33.8103131" lon="-118.3938671">
  <ele>-0.122</ele>
  <time>2026-09-01T01:12:53Z</time>
  <course>186.81</course>
  <speed>0.01</speed>
  <fix>3d</fix>
</trkpt>
<trkpt lat="33.810313" lon="-118.393867">
  <ele>-0.12</ele>
  <time>2026-09-01T01:12:53Z</time>
  <course>0.0</course>
  <speed>0.0</speed>
  <fix>3d</fix>
</trkpt>
<trkpt lat="33.8103131" lon="-118.3938671">
  <ele>-0.122</ele>
  <time>2026-09-01T01:12:53Z</time>
  <course>186.81</course>
  <speed>0.0</speed>
  <fix>3d</fix>
</trkpt>
<trkpt lat="33.810313" lon="-118.393867">
  <ele>-0.12</ele>
  <time>2026-09-01T01:12:53Z</time>
  <course>0.0</course>
  <speed>0.0</speed>
  <fix>3d</fix>
</trkpt>
<trkpt lat="33.8103131" lon="-118.3938671">
  <ele>-0.121</ele>
  <time>2026-09-01T01:12:53Z</time>
  <course>186.8</course>
  <speed>0.0</speed>
  <fix>3d</fix>
</trkpt>
<trkpt lat="33.810313" lon="-118.393867">
  <ele>-0.12</ele>
  <time>2026-09-01T01:12:53Z</time>
  <course>0.0</course>
  <speed>0.0</speed>
  <fix>3d</fix>
</trkpt>
<trkpt lat="33.8103131" lon="-118.3938671">
  <ele>-0.122</ele>
  <time>2026-09-01T01:12:54Z</time>
  <course>186.8</course>
  <speed>0.0</speed>
  <fix>3d</fix>
</trkpt>
<trkpt lat="33.810313" lon="-118.393867">
  <ele>-0.12</ele>
  <time>2026-09-01T01:12:54Z</time>
  <course>0.0</course>
  <speed>0.0</speed>
  <fix>3d</fix>
</trkpt>
<trkpt lat="33.8103131" lon="-118.3938671">
  <ele>-0.122</ele>
  <time>2026-09-01T01:12:54Z</time>
  <course>186.8</course>
  <speed>0.0</speed>
  <fix>3d</fix>
</trkpt>
<trkpt lat="33.810313" lon="-118.393867">
  <ele>-0.12</ele>
  <time>2026-09-01T01:12:54Z</time>
  <course>0.0</course>
  <speed>0.0</speed>
  <fix>3d</fix>
</trkpt>
<trkpt lat="33.8103131" lon="-118.3938671">
  <ele>-0.122</ele>
  <time>2026-09-01T01:12:54Z</time>
  <course>186.79</course>
  <speed>0.0</speed>
  <fix>3d</fix>
</trkpt>
<trkpt lat="33.810313" lon="-118.393867">
  <ele>-0.12</ele>
  <time>2026-09-01T01:12:54Z</time>
  <course>0.0</course>
  <speed>0.0</speed>
  <fix>3d</fix>
</trkpt>
<trkpt lat="33.8103131" lon="-118.3938671">
  <ele>-0.122</ele>
  <time>2026-09-01T01:12:54Z</time>
  <course>186.79</course>
  <speed>0.0</speed>
  <fix>3d</fix>
</trkpt>
<trkpt lat="33.810313" lon="-118.393867">
  <ele>-0.12</ele>
  <time>2026-09-01T01:12:54Z</time>
  <course>0.0</course>
  <speed>0.0</speed>
  <fix>3d</fix>
</trkpt>
<trkpt lat="33.8103131" lon="-118.3938671">
  <ele>-0.122</ele>
  <time>2026-09-01T01:12:54Z</time>
  <course>186.79</course>
  <speed>0.0</speed>
  <fix>3d</fix>
</trkpt>
<trkpt lat="33.810313" lon="-118.393867">
  <ele>-0.12</ele>
  <time>2026-09-01T01:12:54Z</time>
  <course>0.0</course>
  <speed>0.0</speed>
  <fix>3d</fix>
</trkpt>
<trkpt lat="33.8103131" lon="-118.3938671">
  <ele>-0.121</ele>
  <time>2026-09-01T01:12:54Z</time>
  <course>186.78</course>
  <speed>0.0</speed>
  <fix>3d</fix>
</trkpt>
<trkpt lat="33.810313" lon="-118.393867">
  <ele>-0.12</ele>
  <time>2026-09-01T01:12:54Z</time>
  <course>0.0</course>
  <speed>0.0</speed>
  <fix>3d</fix>
</trkpt>
<trkpt lat="33.8103131" lon="-118.3938671">
  <ele>-0.12</ele>
  <time>2026-09-01T01:12:54Z</time>
  <course>186.78</course>
  <speed>0.0</speed>
  <fix>3d</fix>
</trkpt>
<trkpt lat="33.810313" lon="-118.393867">
  <ele>-0.12</ele>
  <time>2026-09-01T01:12:54Z</time>
  <course>0.0</course>
  <speed>0.0</speed>
  <fix>3d</fix>
</trkpt>
<trkpt lat="33.8103131" lon="-118.3938671">
  <ele>-0.12</ele>
  <time>2026-09-01T01:12:54Z</time>
  <course>186.78</course>
  <speed>0.0</speed>
  <fix>3d</fix>
</trkpt>
<trkpt lat="33.810313" lon="-118.393867">
  <ele>-0.12</ele>
  <time>2026-09-01T01:12:54Z</time>
  <course>0.0</course>
  <speed>0.0</speed>
  <fix>3d</fix>
</trkpt>
<trkpt lat="33.8103131" lon="-118.3938671">
  <ele>-0.12</ele>
  <time>2026-09-01T01:12:54Z</time>
  <course>186.77</course>
  <speed>0.0</speed>
  <fix>3d</fix>
</trkpt>
<trkpt lat="33.810313" lon="-118.393867">
  <ele>-0.12</ele>
  <time>2026-09-01T01:12:54Z</time>
  <course>0.0</course>
  <speed>0.0</speed>
  <fix>3d</fix>
</trkpt>
<trkpt lat="33.8103131" lon="-118.3938671">
  <ele>-0.122</ele>
  <time>2026-09-01T01:12:54Z</time>
  <course>186.77</course>
  <speed>0.0</speed>
  <fix>3d</fix>
</trkpt>
<trkpt lat="33.810313" lon="-118.393867">
  <ele>-0.12</ele>
  <time>2026-09-01T01:12:54Z</time>
  <course>0.0</course>
  <speed>0.0</speed>
  <fix>3d</fix>
</trkpt>
<trkpt lat="33.8103131" lon="-118.3938671">
  <ele>-0.125</ele>
  <time>2026-09-01T01:12:54Z</time>
  <course>186.77</course>
  <speed>0.0</speed>
  <fix>3d</fix>
</trkpt>
<trkpt lat="33.810313" lon="-118.393867">
  <ele>-0.12</ele>
  <time>2026-09-01T01:12:54Z</time>
  <course>0.0</course>
  <speed>0.0</speed>
  <fix>3d</fix>
</trkpt>
<trkpt lat="33.8103131" lon="-118.3938671">
  <ele>-0.128</ele>
  <time>2026-09-01T01:12:54Z</time>
  <course>186.77</course>
  <speed>0.0</speed>
  <fix>3d</fix>
</trkpt>
<trkpt lat="33.810313" lon="-118.393867">
  <ele>-0.12</ele>
  <time>2026-09-01T01:12:54Z</time>
  <course>0.0</course>
  <speed>0.0</speed>
  <fix>3d</fix>
</trkpt>
<trkpt lat="33.8103131" lon="-118.3938671">
  <ele>-0.13</ele>
  <time>2026-09-01T01:12:54Z</time>
  <course>186.76</course>
  <speed>0.0</speed>
  <fix>3d</fix>
</trkpt>
<trkpt lat="33.810313" lon="-118.393867">
  <ele>-0.12</ele>
  <time>2026-09-01T01:12:54Z</time>
  <course>0.0</course>
  <speed>0.0</speed>
  <fix>3d</fix>
</trkpt>
<trkpt lat="33.8103131" lon="-118.3938671">
  <ele>-0.13</ele>
  <time>2026-09-01T01:12:54Z</time>
  <course>186.76</course>
  <speed>0.0</speed>
  <fix>3d</fix>
</trkpt>
<trkpt lat="33.810313" lon="-118.393867">
  <ele>-0.12</ele>
  <time>2026-09-01T01:12:54Z</time>
  <course>0.0</course>
  <speed>0.0</speed>
  <fix>3d</fix>
</trkpt>
<trkpt lat="33.8103131" lon="-118.3938671">
  <ele>-0.129</ele>
  <time>2026-09-01T01:12:54Z</time>
  <course>186.76</course>
  <speed>0.0</speed>
  <fix>3d</fix>
</trkpt>
<trkpt lat="33.810313" lon="-118.393867">
  <ele>-0.12</ele>
  <time>2026-09-01T01:12:54Z</time>
  <course>0.0</course>
  <speed>0.0</speed>
  <fix>3d</fix>
</trkpt>
<trkpt lat="33.8103131" lon="-118.3938671">
  <ele>-0.127</ele>
  <time>2026-09-01T01:12:54Z</time>
  <course>186.75</course>
  <speed>0.01</speed>
  <fix>3d</fix>
</trkpt>
<trkpt lat="33.810313" lon="-118.393867">
  <ele>-0.12</ele>
  <time>2026-09-01T01:12:54Z</time>
  <course>0.0</course>
  <speed>0.0</speed>
  <fix>3d</fix>
</trkpt>
<trkpt lat="33.8103131" lon="-118.3938671">
  <ele>-0.125</ele>
  <time>2026-09-01T01:12:54Z</time>
  <course>186.75</course>
  <speed>0.01</speed>
  <fix>3d</fix>
</trkpt>
<trkpt lat="33.810313" lon="-118.393867">
  <ele>-0.12</ele>
  <time>2026-09-01T01:12:54Z</time>
  <course>0.0</course>
  <speed>0.0</speed>
  <fix>3d</fix>
</trkpt>
<trkpt lat="33.8103131" lon="-118.3938671">
  <ele>-0.124</ele>
  <time>2026-09-01T01:12:54Z</time>
  <course>186.75</course>
  <speed>0.01</speed>
  <fix>3d</fix>
</trkpt>
<trkpt lat="33.810313" lon="-118.393867">
  <ele>-0.12</ele>
  <time>2026-09-01T01:12:54Z</time>
  <course>0.0</course>
  <speed>0.0</speed>
  <fix>3d</fix>
</trkpt>
<trkpt lat="33.8103131" lon="-118.3938671">
  <ele>-0.124</ele>
  <time>2026-09-01T01:12:54Z</time>
  <course>186.74</course>
  <speed>0.01</speed>
  <fix>3d</fix>
</trkpt>
<trkpt lat="33.810313" lon="-118.393867">
  <ele>-0.12</ele>
  <time>2026-09-01T01:12:54Z</time>
  <course>0.0</course>
  <speed>0.0</speed>
  <fix>3d</fix>
</trkpt>
<trkpt lat="33.8103131" lon="-118.3938671">
  <ele>-0.123</ele>
  <time>2026-09-01T01:12:54Z</time>
  <course>186.74</course>
  <speed>0.01</speed>
  <fix>3d</fix>
</trkpt>
<trkpt lat="33.810313" lon="-118.393867">
  <ele>-0.12</ele>
  <time>2026-09-01T01:12:54Z</time>
  <course>0.0</course>
  <speed>0.0</speed>
  <fix>3d</fix>
</trkpt>
<trkpt lat="33.8103131" lon="-118.3938671">
  <ele>-0.122</ele>
  <time>2026-09-01T01:12:54Z</time>
  <course>186.74</course>
  <speed>0.01</speed>
  <fix>3d</fix>
</trkpt>
<trkpt lat="33.810313" lon="-118.393867">
  <ele>-0.12</ele>
  <time>2026-09-01T01:12:54Z</time>
  <course>0.0</course>
  <speed>0.0</speed>
  <fix>3d</fix>
</trkpt>
<trkpt lat="33.8103131" lon="-118.3938671">
  <ele>-0.122</ele>
  <time>2026-09-01T01:12:54Z</time>
  <course>186.74</course>
  <speed>0.01414213562373095</speed>
  <fix>3d</fix>
</trkpt>
<trkpt lat="33.810313" lon="-118.393867">
  <ele>-0.12</ele>
  <time>2026-09-01T01:12:54Z</time>
  <course>0.0</course>
  <speed>0.0</speed>
  <fix>3d</fix>
</trkpt>
<trkpt lat="33.8103131" lon="-118.3938671">
  <ele>-0.122</ele>
  <time>2026-09-01T01:12:54Z</time>
  <course>186.73</course>
  <speed>0.01414213562373095</speed>
  <fix>3d</fix>
</trkpt>
<trkpt lat="33.810313" lon="-118.393867">
  <ele>-0.12</ele>
  <time>2026-09-01T01:12:54Z</time>
  <course>0.0</course>
  <speed>0.0</speed>
  <fix>3d</fix>
</trkpt>
<trkpt lat="33.8103131" lon="-118.3938671">
  <ele>-0.122</ele>
  <time>2026-09-01T01:12:54Z</time>
  <course>186.73</course>
  <speed>0.01414213562373095</speed>
  <fix>3d</fix>
</trkpt>
<trkpt lat="33.810313" lon="-118.393867">
  <ele>-0.12</ele>
  <time>2026-09-01T01:12:54Z</time>
  <course>0.0</course>
  <speed>0.0</speed>
  <fix>3d</fix>
</trkpt>
<trkpt lat="33.8103131" lon="-118.3938671">
  <ele>-0.121</ele>
  <time>2026-09-01T01:12:54Z</time>
  <course>186.73</course>
  <speed>0.01414213562373095</speed>
  <fix>3d</fix>
</trkpt>
<trkpt lat="33.810313" lon="-118.393867">
  <ele>-0.12</ele>
  <time>2026-09-01T01:12:54Z</time>
  <course>0.0</course>
  <speed>0.0</speed>
  <fix>3d</fix>
</trkpt>
<trkpt lat="33.8103131" lon="-118.3938671">
  <ele>-0.12</ele>
  <time>2026-09-01T01:12:54Z</time>
  <course>186.72</course>
  <speed>0.01414213562373095</speed>
  <fix>3d</fix>
</trkpt>
<trkpt lat="33.810313" lon="-118.393867">
  <ele>-0.12</ele>
  <time>2026-09-01T01:12:54Z</time>
  <course>0.0</course>
  <speed>0.0</speed>
  <fix>3d</fix>
</trkpt>
<trkpt lat="33.8103131" lon="-118.3938671">
  <ele>-0.12</ele>
  <time>2026-09-01T01:12:54Z</time>
  <course>186.72</course>
  <speed>0.01414213562373095</speed>
  <fix>3d</fix>
</trkpt>
<trkpt lat="33.810313" lon="-118.393867">
  <ele>-0.12</ele>
  <time>2026-09-01T01:12:54Z</time>
  <course>0.0</course>
  <speed>0.0</speed>
  <fix>3d</fix>
</trkpt>
<trkpt lat="33.8103131" lon="-118.3938671">
  <ele>-0.12</ele>
  <time>2026-09-01T01:12:54Z</time>
  <course>186.72</course>
  <speed>0.01414213562373095</speed>
  <fix>3d</fix>
</trkpt>
<trkpt lat="33.810313" lon="-118.393867">
  <ele>-0.12</ele>
  <time>2026-09-01T01:12:54Z</time>
  <course>0.0</course>
  <speed>0.0</speed>
  <fix>3d</fix>
</trkpt>
<trkpt lat="33.8103131" lon="-118.3938671">
  <ele>-0.121</ele>
  <time>2026-09-01T01:12:54Z</time>
  <course>186.71</course>
  <speed>0.01414213562373095</speed>
  <fix>3d</fix>
</trkpt>
<trkpt lat="33.810313" lon="-118.393867">
  <ele>-0.12</ele>
  <time>2026-09-01T01:12:54Z</time>
  <course>0.0</course>
  <speed>0.0</speed>
  <fix>3d</fix>
</trkpt>
<trkpt lat="33.8103131" lon="-118.3938671">
  <ele>-0.122</ele>
  <time>2026-09-01T01:12:54Z</time>
  <course>186.71</course>
  <speed>0.01414213562373095</speed>
  <fix>3d</fix>
</trkpt>
<trkpt lat="33.810313" lon="-118.393867">
  <ele>-0.12</ele>
  <time>2026-09-01T01:12:54Z</time>
  <course>0.0</course>
  <speed>0.0</speed>
  <fix>3d</fix>
</trkpt>
<trkpt lat="33.8103131" lon="-118.3938671">
  <ele>-0.124</ele>
  <time>2026-09-01T01:12:54Z</time>
  <course>186.71</course>
  <speed>0.01414213562373095</speed>
  <fix>3d</fix>
</trkpt>
<trkpt lat="33.810313" lon="-118.393867">
  <ele>-0.12</ele>
  <time>2026-09-01T01:12:54Z</time>
  <course>0.0</course>
  <speed>0.0</speed>
  <fix>3d</fix>
</trkpt>
<trkpt lat="33.8103131" lon="-118.3938671">
  <ele>-0.126</ele>
  <time>2026-09-01T01:12:54Z</time>
  <course>186.71</course>
  <speed>0.01414213562373095</speed>
  <fix>3d</fix>
</trkpt>
<trkpt lat="33.810313" lon="-118.393867">
  <ele>-0.12</ele>
  <time>2026-09-01T01:12:54Z</time>
  <course>0.0</course>
  <speed>0.0</speed>
  <fix>3d</fix>
</trkpt>
<trkpt lat="33.8103131" lon="-118.3938671">
  <ele>-0.127</ele>
  <time>2026-09-01T01:12:54Z</time>
  <course>186.7</course>
  <speed>0.01414213562373095</speed>
  <fix>3d</fix>
</trkpt>
<trkpt lat="33.810313" lon="-118.393867">
  <ele>-0.12</ele>
  <time>2026-09-01T01:12:54Z</time>
  <course>0.0</course>
  <speed>0.0</speed>
  <fix>3d</fix>
</trkpt>
<trkpt lat="33.8103131" lon="-118.3938671">
  <ele>-0.127</ele>
  <time>2026-09-01T01:12:54Z</time>
  <course>186.7</course>
  <speed>0.01414213562373095</speed>
  <fix>3d</fix>
</trkpt>
<trkpt lat="33.810313" lon="-118.393867">
  <ele>-0.12</ele>
  <time>2026-09-01T01:12:54Z</time>
  <course>0.0</course>
  <speed>0.0</speed>
  <fix>3d</fix>
</trkpt>
<trkpt lat="33.8103131" lon="-118.3938671">
  <ele>-0.127</ele>
  <time>2026-09-01T01:12:54Z</time>
  <course>186.7</course>
  <speed>0.01414213562373095</speed>
  <fix>3d</fix>
</trkpt>
<trkpt lat="33.810313" lon="-118.393867">
  <ele>-0.12</ele>
  <time>2026-09-01T01:12:54Z</time>
  <course>0.0</course>
  <speed>0.0</speed>
  <fix>3d</fix>
</trkpt>
<trkpt lat="33.8103131" lon="-118.3938671">
  <ele>-0.126</ele>
  <time>2026-09-01T01:12:54Z</time>
  <course>186.69</course>
  <speed>0.01414213562373095</speed>
  <fix>3d</fix>
</trkpt>
<trkpt lat="33.810313" lon="-118.393867">
  <ele>-0.12</ele>
  <time>2026-09-01T01:12:54Z</time>
  <course>0.0</course>
  <speed>0.0</speed>
  <fix>3d</fix>
</trkpt>
<trkpt lat="33.8103131" lon="-118.3938671">
  <ele>-0.125</ele>
  <time>2026-09-01T01:12:54Z</time>
  <course>186.69</course>
  <speed>0.01414213562373095</speed>
  <fix>3d</fix>
</trkpt>
<trkpt lat="33.810313" lon="-118.393867">
  <ele>-0.12</ele>
  <time>2026-09-01T01:12:54Z</time>
  <course>0.0</course>
  <speed>0.0</speed>
  <fix>3d</fix>
</trkpt>
<trkpt lat="33.8103131" lon="-118.3938671">
  <ele>-0.125</ele>
  <time>2026-09-01T01:12:54Z</time>
  <course>186.69</course>
  <speed>0.01414213562373095</speed>
  <fix>3d</fix>
</trkpt>
<trkpt lat="33.810313" lon="-118.393867">
  <ele>-0.12</ele>
  <time>2026-09-01T01:12:54Z</time>
  <course>0.0</course>
  <speed>0.0</speed>
  <fix>3d</fix>
</trkpt>
<trkpt lat="33.8103131" lon="-118.3938671">
  <ele>-0.126</ele>
  <time>2026-09-01T01:12:54Z</time>
  <course>186.68</course>
  <speed>0.01414213562373095</speed>
  <fix>3d</fix>
</trkpt>
<trkpt lat="33.810313" lon="-118.393867">
  <ele>-0.12</ele>
  <time>2026-09-01T01:12:54Z</time>
  <course>0.0</course>
  <speed>0.0</speed>
  <fix>3d</fix>
</trkpt>
<trkpt lat="33.8103131" lon="-118.3938671">
  <ele>-0.128</ele>
  <time>2026-09-01T01:12:54Z</time>
  <course>186.68</course>
  <speed>0.01414213562373095</speed>
  <fix>3d</fix>
</trkpt>
<trkpt lat="33.810313" lon="-118.393867">
  <ele>-0.12</ele>
  <time>2026-09-01T01:12:54Z</time>
  <course>0.0</course>
  <speed>0.0</speed>
  <fix>3d</fix>
</trkpt>
<trkpt lat="33.8103131" lon="-118.3938671">
  <ele>-0.131</ele>
  <time>2026-09-01T01:12:54Z</time>
  <course>186.68</course>
  <speed>0.01414213562373095</speed>
  <fix>3d</fix>
</trkpt>
<trkpt lat="33.810313" lon="-118.393867">
  <ele>-0.12</ele>
  <time>2026-09-01T01:12:54Z</time>
  <course>0.0</course>
  <speed>0.0</speed>
  <fix>3d</fix>
</trkpt>
<trkpt lat="33.8103131" lon="-118.3938671">
  <ele>-0.132</ele>
  <time>2026-09-01T01:12:54Z</time>
  <course>186.68</course>
  <speed>0.01414213562373095</speed>
  <fix>3d</fix>
</trkpt>
<trkpt lat="33.810313" lon="-118.393867">
  <ele>-0.12</ele>
  <time>2026-09-01T01:12:54Z</time>
  <course>0.0</course>
  <speed>0.0</speed>
  <fix>3d</fix>
</trkpt>
<trkpt lat="33.8103131" lon="-118.3938671">
  <ele>-0.133</ele>
  <time>2026-09-01T01:12:54Z</time>
  <course>186.67</course>
  <speed>0.01414213562373095</speed>
  <fix>3d</fix>
</trkpt>
<trkpt lat="33.810313" lon="-118.393867">
  <ele>-0.12</ele>
  <time>2026-09-01T01:12:54Z</time>
  <course>0.0</course>
  <speed>0.0</speed>
  <fix>3d</fix>
</trkpt>
<trkpt lat="33.8103131" lon="-118.3938671">
  <ele>-0.132</ele>
  <time>2026-09-01T01:12:54Z</time>
  <course>186.67</course>
  <speed>0.01414213562373095</speed>
  <fix>3d</fix>
</trkpt>
<trkpt lat="33.810313" lon="-118.393867">
  <ele>-0.12</ele>
  <time>2026-09-01T01:12:54Z</time>
  <course>0.0</course>
  <speed>0.0</speed>
  <fix>3d</fix>
</trkpt>
<trkpt lat="33.8103131" lon="-118.3938671">
  <ele>-0.132</ele>
  <time>2026-09-01T01:12:54Z</time>
  <course>186.67</course>
  <speed>0.01414213562373095</speed>
  <fix>3d</fix>
</trkpt>
<trkpt lat="33.810313" lon="-118.393867">
  <ele>-0.12</ele>
  <time>2026-09-01T01:12:54Z</time>
  <course>0.0</course>
  <speed>0.0</speed>
  <fix>3d</fix>
</trkpt>
<trkpt lat="33.8103131" lon="-118.3938671">
  <ele>-0.131</ele>
  <time>2026-09-01T01:12:54Z</time>
  <course>186.66</course>
  <speed>0.01414213562373095</speed>
  <fix>3d</fix>
</trkpt>
<trkpt lat="33.810313" lon="-118.393867">
  <ele>-0.12</ele>
  <time>2026-09-01T01:12:54Z</time>
  <course>0.0</course>
  <speed>0.0</speed>
  <fix>3d</fix>
</trkpt>
<trkpt lat="33.8103131" lon="-118.3938671">
  <ele>-0.13</ele>
  <time>2026-09-01T01:12:54Z</time>
  <course>186.66</course>
  <speed>0.022360679774997897</speed>
  <fix>3d</fix>
</trkpt>
<trkpt lat="33.810313" lon="-118.393867">
  <ele>-0.12</ele>
  <time>2026-09-01T01:12:54Z</time>
  <course>0.0</course>
  <speed>0.0</speed>
  <fix>3d</fix>
</trkpt>
<trkpt lat="33.8103131" lon="-118.3938671">
  <ele>-0.13</ele>
  <time>2026-09-01T01:12:54Z</time>
  <course>186.66</course>
  <speed>0.022360679774997897</speed>
  <fix>3d</fix>
</trkpt>
<trkpt lat="33.810313" lon="-118.393867">
  <ele>-0.12</ele>
  <time>2026-09-01T01:12:54Z</time>
  <course>0.0</course>
  <speed>0.0</speed>
  <fix>3d</fix>
</trkpt>
<trkpt lat="33.8103131" lon="-118.3938671">
  <ele>-0.13</ele>
  <time>2026-09-01T01:12:54Z</time>
  <course>186.66</course>
  <speed>0.022360679774997897</speed>
  <fix>3d</fix>
</trkpt>
<trkpt lat="33.810313" lon="-118.393867">
  <ele>-0.12</ele>
  <time>2026-09-01T01:12:54Z</time>
  <course>0.0</course>
  <speed>0.0</speed>
  <fix>3d</fix>
</trkpt>
<trkpt lat="33.8103131" lon="-118.3938671">
  <ele>-0.129</ele>
  <time>2026-09-01T01:12:54Z</time>
  <course>186.65</course>
  <speed>0.022360679774997897</speed>
  <fix>3d</fix>
</trkpt>
<trkpt lat="33.810313" lon="-118.393867">
  <ele>-0.12</ele>
  <time>2026-09-01T01:12:54Z</time>
  <course>0.0</course>
  <speed>0.0</speed>
  <fix>3d</fix>
</trkpt>
<trkpt lat="33.8103131" lon="-118.3938671">
  <ele>-0.13</ele>
  <time>2026-09-01T01:12:54Z</time>
  <course>186.65</course>
  <speed>0.022360679774997897</speed>
  <fix>3d</fix>
</trkpt>
<trkpt lat="33.810313" lon="-118.393867">
  <ele>-0.12</ele>
  <time>2026-09-01T01:12:54Z</time>
  <course>0.0</course>
  <speed>0.0</speed>
  <fix>3d</fix>
</trkpt>
<trkpt lat="33.8103131" lon="-118.3938671">
  <ele>-0.13</ele>
  <time>2026-09-01T01:12:54Z</time>
  <course>186.65</course>
  <speed>0.022360679774997897</speed>
  <fix>3d</fix>
</trkpt>
<trkpt lat="33.810313" lon="-118.393867">
  <ele>-0.12</ele>
  <time>2026-09-01T01:12:54Z</time>
  <course>0.0</course>
  <speed>0.0</speed>
  <fix>3d</fix>
</trkpt>
<trkpt lat="33.8103131" lon="-118.3938671">
  <ele>-0.13</ele>
  <time>2026-09-01T01:12:54Z</time>
  <course>186.64</course>
  <speed>0.022360679774997897</speed>
  <fix>3d</fix>
</trkpt>
<trkpt lat="33.810313" lon="-118.393867">
  <ele>-0.12</ele>
  <time>2026-09-01T01:12:54Z</time>
  <course>0.0</course>
  <speed>0.0</speed>
  <fix>3d</fix>
</trkpt>
<trkpt lat="33.8103131" lon="-118.3938671">
  <ele>-0.128</ele>
  <time>2026-09-01T01:12:54Z</time>
  <course>186.64</course>
  <speed>0.022360679774997897</speed>
  <fix>3d</fix>
</trkpt>
<trkpt lat="33.810313" lon="-118.393867">
  <ele>-0.12</ele>
  <time>2026-09-01T01:12:54Z</time>
  <course>0.0</course>
  <speed>0.0</speed>
  <fix>3d</fix>
</trkpt>
<trkpt lat="33.8103131" lon="-118.3938671">
  <ele>-0.127</ele>
  <time>2026-09-01T01:12:54Z</time>
  <course>186.64</course>
  <speed>0.022360679774997897</speed>
  <fix>3d</fix>
</trkpt>
<trkpt lat="33.810313" lon="-118.393867">
  <ele>-0.12</ele>
  <time>2026-09-01T01:12:54Z</time>
  <course>0.0</course>
  <speed>0.0</speed>
  <fix>3d</fix>
</trkpt>
<trkpt lat="33.8103131" lon="-118.3938671">
  <ele>-0.124</ele>
  <time>2026-09-01T01:12:54Z</time>
  <course>186.64</course>
  <speed>0.022360679774997897</speed>
  <fix>3d</fix>
</trkpt>
<trkpt lat="33.810313" lon="-118.393867">
  <ele>-0.12</ele>
  <time>2026-09-01T01:12:54Z</time>
  <course>0.0</course>
  <speed>0.0</speed>
  <fix>3d</fix>
</trkpt>
<trkpt lat="33.8103131" lon="-118.3938671">
  <ele>-0.122</ele>
  <time>2026-09-01T01:12:54Z</time>
  <course>186.63</course>
  <speed>0.022360679774997897</speed>
  <fix>3d</fix>
</trkpt>
<trkpt lat="33.810313" lon="-118.393867">
  <ele>-0.12</ele>
  <time>2026-09-01T01:12:54Z</time>
  <course>0.0</course>
  <speed>0.0</speed>
  <fix>3d</fix>
</trkpt>
<trkpt lat="33.8103131" lon="-118.3938671">
  <ele>-0.122</ele>
  <time>2026-09-01T01:12:54Z</time>
  <course>186.63</course>
  <speed>0.022360679774997897</speed>
  <fix>3d</fix>
</trkpt>
<trkpt lat="33.810313" lon="-118.393867">
  <ele>-0.12</ele>
  <time>2026-09-01T01:12:54Z</time>
  <course>0.0</course>
  <speed>0.0</speed>
  <fix>3d</fix>
</trkpt>
<trkpt lat="33.8103131" lon="-118.3938671">
  <ele>-0.122</ele>
  <time>2026-09-01T01:12:54Z</time>
  <course>186.63</course>
  <speed>0.022360679774997897</speed>
  <fix>3d</fix>
</trkpt>
<trkpt lat="33.810313" lon="-118.393867">
  <ele>-0.12</ele>
  <time>2026-09-01T01:12:54Z</time>
  <course>0.0</course>
  <speed>0.0</speed>
  <fix>3d</fix>
</trkpt>
<trkpt lat="33.8103131" lon="-118.3938671">
  <ele>-0.124</ele>
  <time>2026-09-01T01:12:54Z</time>
  <course>186.63</course>
  <speed>0.022360679774997897</speed>
  <fix>3d</fix>
</trkpt>
<trkpt lat="33.810313" lon="-118.393867">
  <ele>-0.12</ele>
  <time>2026-09-01T01:12:54Z</time>
  <course>0.0</course>
  <speed>0.0</speed>
  <fix>3d</fix>
</trkpt>
<trkpt lat="33.8103131" lon="-118.3938671">
  <ele>-0.126</ele>
  <time>2026-09-01T01:12:54Z</time>
  <course>186.62</course>
  <speed>0.022360679774997897</speed>
  <fix>3d</fix>
</trkpt>
<trkpt lat="33.810313" lon="-118.393867">
  <ele>-0.12</ele>
  <time>2026-09-01T01:12:54Z</time>
  <course>0.0</course>
  <speed>0.0</speed>
  <fix>3d</fix>
</trkpt>
<trkpt lat="33.8103131" lon="-118.3938671">
  <ele>-0.128</ele>
  <time>2026-09-01T01:12:54Z</time>
  <course>186.62</course>
  <speed>0.022360679774997897</speed>
  <fix>3d</fix>
</trkpt>
<trkpt lat="33.810313" lon="-118.393867">
  <ele>-0.12</ele>
  <time>2026-09-01T01:12:54Z</time>
  <course>0.0</course>
  <speed>0.0</speed>
  <fix>3d</fix>
</trkpt>
<trkpt lat="33.8103131" lon="-118.3938671">
  <ele>-0.129</ele>
  <time>2026-09-01T01:12:54Z</time>
  <course>186.62</course>
  <speed>0.022360679774997897</speed>
  <fix>3d</fix>
</trkpt>
<trkpt lat="33.810313" lon="-118.393867">
  <ele>-0.12</ele>
  <time>2026-09-01T01:12:54Z</time>
  <course>0.0</course>
  <speed>0.0</speed>
  <fix>3d</fix>
</trkpt>
<trkpt lat="33.8103131" lon="-118.3938671">
  <ele>-0.129</ele>
  <time>2026-09-01T01:12:54Z</time>
  <course>186.62</course>
  <speed>0.01414213562373095</speed>
  <fix>3d</fix>
</trkpt>
<trkpt lat="33.810313" lon="-118.393867">
  <ele>-0.12</ele>
  <time>2026-09-01T01:12:54Z</time>
  <course>0.0</course>
  <speed>0.0</speed>
  <fix>3d</fix>
</trkpt>
<trkpt lat="33.8103131" lon="-118.3938671">
  <ele>-0.129</ele>
  <time>2026-09-01T01:12:54Z</time>
  <course>186.61</course>
  <speed>0.01414213562373095</speed>
  <fix>3d</fix>
</trkpt>
<trkpt lat="33.810313" lon="-118.393867">
  <ele>-0.12</ele>
  <time>2026-09-01T01:12:54Z</time>
  <course>0.0</course>
  <speed>0.0</speed>
  <fix>3d</fix>
</trkpt>
<trkpt lat="33.8103131" lon="-118.3938671">
  <ele>-0.128</ele>
  <time>2026-09-01T01:12:54Z</time>
  <course>186.61</course>
  <speed>0.01414213562373095</speed>
  <fix>3d</fix>
</trkpt>
<trkpt lat="33.810313" lon="-118.393867">
  <ele>-0.12</ele>
  <time>2026-09-01T01:12:54Z</time>
  <course>0.0</course>
  <speed>0.0</speed>
  <fix>3d</fix>
</trkpt>
<trkpt lat="33.8103131" lon="-118.3938671">
  <ele>-0.127</ele>
  <time>2026-09-01T01:12:54Z</time>
  <course>186.61</course>
  <speed>0.01414213562373095</speed>
  <fix>3d</fix>
</trkpt>
<trkpt lat="33.810313" lon="-118.393867">
  <ele>-0.12</ele>
  <time>2026-09-01T01:12:54Z</time>
  <course>0.0</course>
  <speed>0.0</speed>
  <fix>3d</fix>
</trkpt>
<trkpt lat="33.8103131" lon="-118.3938671">
  <ele>-0.126</ele>
  <time>2026-09-01T01:12:54Z</time>
  <course>186.61</course>
  <speed>0.01414213562373095</speed>
  <fix>3d</fix>
</trkpt>
<trkpt lat="33.810313" lon="-118.393867">
  <ele>-0.12</ele>
  <time>2026-09-01T01:12:54Z</time>
  <course>0.0</course>
  <speed>0.0</speed>
  <fix>3d</fix>
</trkpt>
<trkpt lat="33.8103131" lon="-118.3938671">
  <ele>-0.126</ele>
  <time>2026-09-01T01:12:54Z</time>
  <course>186.6</course>
  <speed>0.01414213562373095</speed>
  <fix>3d</fix>
</trkpt>
<trkpt lat="33.810313" lon="-118.393867">
  <ele>-0.12</ele>
  <time>2026-09-01T01:12:54Z</time>
  <course>0.0</course>
  <speed>0.0</speed>
  <fix>3d</fix>
</trkpt>
<trkpt lat="33.8103131" lon="-118.3938671">
  <ele>-0.126</ele>
  <time>2026-09-01T01:12:54Z</time>
  <course>186.6</course>
  <speed>0.01414213562373095</speed>
  <fix>3d</fix>
</trkpt>
<trkpt lat="33.810313" lon="-118.393867">
  <ele>-0.12</ele>
  <time>2026-09-01T01:12:54Z</time>
  <course>0.0</course>
  <speed>0.0</speed>
  <fix>3d</fix>
</trkpt>
<trkpt lat="33.8103131" lon="-118.3938671">
  <ele>-0.127</ele>
  <time>2026-09-01T01:12:54Z</time>
  <course>186.6</course>
  <speed>0.01414213562373095</speed>
  <fix>3d</fix>
</trkpt>
<trkpt lat="33.810313" lon="-118.393867">
  <ele>-0.12</ele>
  <time>2026-09-01T01:12:54Z</time>
  <course>0.0</course>
  <speed>0.0</speed>
  <fix>3d</fix>
</trkpt>
<trkpt lat="33.8103131" lon="-118.3938671">
  <ele>-0.127</ele>
  <time>2026-09-01T01:12:54Z</time>
  <course>186.6</course>
  <speed>0.01414213562373095</speed>
  <fix>3d</fix>
</trkpt>
<trkpt lat="33.810313" lon="-118.393867">
  <ele>-0.12</ele>
  <time>2026-09-01T01:12:54Z</time>
  <course>0.0</course>
  <speed>0.0</speed>
  <fix>3d</fix>
</trkpt>
<trkpt lat="33.8103131" lon="-118.3938671">
  <ele>-0.127</ele>
  <time>2026-09-01T01:12:54Z</time>
  <course>186.59</course>
  <speed>0.01414213562373095</speed>
  <fix>3d</fix>
</trkpt>
<trkpt lat="33.810313" lon="-118.393867">
  <ele>-0.12</ele>
  <time>2026-09-01T01:12:54Z</time>
  <course>0.0</course>
  <speed>0.0</speed>
  <fix>3d</fix>
</trkpt>
<trkpt lat="33.8103131" lon="-118.3938671">
  <ele>-0.127</ele>
  <time>2026-09-01T01:12:54Z</time>
  <course>186.59</course>
  <speed>0.01414213562373095</speed>
  <fix>3d</fix>
</trkpt>
<trkpt lat="33.810313" lon="-118.393867">
  <ele>-0.12</ele>
  <time>2026-09-01T01:12:54Z</time>
  <course>0.0</course>
  <speed>0.0</speed>
  <fix>3d</fix>
</trkpt>
<trkpt lat="33.8103131" lon="-118.3938671">
  <ele>-0.127</ele>
  <time>2026-09-01T01:12:54Z</time>
  <course>186.59</course>
  <speed>0.01414213562373095</speed>
  <fix>3d</fix>
</trkpt>
<trkpt lat="33.810313" lon="-118.393867">
  <ele>-0.12</ele>
  <time>2026-09-01T01:12:54Z</time>
  <course>0.0</course>
  <speed>0.0</speed>
  <fix>3d</fix>
</trkpt>
<trkpt lat="33.8103131" lon="-118.3938671">
  <ele>-0.126</ele>
  <time>2026-09-01T01:12:54Z</time>
  <course>186.59</course>
  <speed>0.01414213562373095</speed>
  <fix>3d</fix>
</trkpt>
<trkpt lat="33.810313" lon="-118.393867">
  <ele>-0.12</ele>
  <time>2026-09-01T01:12:54Z</time>
  <course>0.0</course>
  <speed>0.0</speed>
  <fix>3d</fix>
</trkpt>
<trkpt lat="33.8103131" lon="-118.3938671">
  <ele>-0.125</ele>
  <time>2026-09-01T01:12:54Z</time>
  <course>186.58</course>
  <speed>0.01414213562373095</speed>
  <fix>3d</fix>
</trkpt>
<trkpt lat="33.810313" lon="-118.393867">
  <ele>-0.12</ele>
  <time>2026-09-01T01:12:54Z</time>
  <course>0.0</course>
  <speed>0.0</speed>
  <fix>3d</fix>
</trkpt>
<trkpt lat="33.8103131" lon="-118.3938671">
  <ele>-0.125</ele>
  <time>2026-09-01T01:12:54Z</time>
  <course>186.58</course>
  <speed>0.01414213562373095</speed>
  <fix>3d</fix>
</trkpt>
<trkpt lat="33.810313" lon="-118.393867">
  <ele>-0.12</ele>
  <time>2026-09-01T01:12:54Z</time>
  <course>0.0</course>
  <speed>0.0</speed>
  <fix>3d</fix>
</trkpt>
<trkpt lat="33.8103131" lon="-118.3938671">
  <ele>-0.125</ele>
  <time>2026-09-01T01:12:54Z</time>
  <course>186.58</course>
  <speed>0.01414213562373095</speed>
  <fix>3d</fix>
</trkpt>
<trkpt lat="33.810313" lon="-118.393867">
  <ele>-0.12</ele>
  <time>2026-09-01T01:12:54Z</time>
  <course>0.0</course>
  <speed>0.0</speed>
  <fix>3d</fix>
</trkpt>
<trkpt lat="33.8103131" lon="-118.3938671">
  <ele>-0.125</ele>
  <time>2026-09-01T01:12:54Z</time>
  <course>186.58</course>
  <speed>0.01414213562373095</speed>
  <fix>3d</fix>
</trkpt>
<trkpt lat="33.810313" lon="-118.393867">
  <ele>-0.12</ele>
  <time>2026-09-01T01:12:54Z</time>
  <course>0.0</course>
  <speed>0.0</speed>
  <fix>3d</fix>
</trkpt>
<trkpt lat="33.8103131" lon="-118.3938671">
  <ele>-0.126</ele>
  <time>2026-09-01T01:12:54Z</time>
  <course>186.57</course>
  <speed>0.01414213562373095</speed>
  <fix>3d</fix>
</trkpt>
<trkpt lat="33.810313" lon="-118.393867">
  <ele>-0.12</ele>
  <time>2026-09-01T01:12:54Z</time>
  <course>0.0</course>
  <speed>0.0</speed>
  <fix>3d</fix>
</trkpt>
<trkpt lat="33.8103131" lon="-118.3938671">
  <ele>-0.128</ele>
  <time>2026-09-01T01:12:54Z</time>
  <course>186.57</course>
  <speed>0.01414213562373095</speed>
  <fix>3d</fix>
</trkpt>
<trkpt lat="33.810313" lon="-118.393867">
  <ele>-0.12</ele>
  <time>2026-09-01T01:12:54Z</time>
  <course>0.0</course>
  <speed>0.0</speed>
  <fix>3d</fix>
</trkpt>
<trkpt lat="33.8103131" lon="-118.3938671">
  <ele>-0.13</ele>
  <time>2026-09-01T01:12:54Z</time>
  <course>186.57</course>
  <speed>0.01414213562373095</speed>
  <fix>3d</fix>
</trkpt>
<trkpt lat="33.810313" lon="-118.393867">
  <ele>-0.12</ele>
  <time>2026-09-01T01:12:54Z</time>
  <course>0.0</course>
  <speed>0.0</speed>
  <fix>3d</fix>
</trkpt>
<trkpt lat="33.8103131" lon="-118.3938671">
  <ele>-0.131</ele>
  <time>2026-09-01T01:12:54Z</time>
  <course>186.57</course>
  <speed>0.01414213562373095</speed>
  <fix>3d</fix>
</trkpt>
<trkpt lat="33.810313" lon="-118.393867">
  <ele>-0.12</ele>
  <time>2026-09-01T01:12:54Z</time>
  <course>0.0</course>
  <speed>0.0</speed>
  <fix>3d</fix>
</trkpt>
<trkpt lat="33.8103131" lon="-118.3938671">
  <ele>-0.132</ele>
  <time>2026-09-01T01:12:54Z</time>
  <course>186.56</course>
  <speed>0.01414213562373095</speed>
  <fix>3d</fix>
</trkpt>
<trkpt lat="33.810313" lon="-118.393867">
  <ele>-0.12</ele>
  <time>2026-09-01T01:12:54Z</time>
  <course>0.0</course>
  <speed>0.0</speed>
  <fix>3d</fix>
</trkpt>
<trkpt lat="33.8103131" lon="-118.3938671">
  <ele>-0.132</ele>
  <time>2026-09-01T01:12:54Z</time>
  <course>186.56</course>
  <speed>0.01414213562373095</speed>
  <fix>3d</fix>
</trkpt>
<trkpt lat="33.810313" lon="-118.393867">
  <ele>-0.12</ele>
  <time>2026-09-01T01:12:54Z</time>
  <course>0.0</course>
  <speed>0.0</speed>
  <fix>3d</fix>
</trkpt>
<trkpt lat="33.8103131" lon="-118.3938671">
  <ele>-0.13</ele>
  <time>2026-09-01T01:12:54Z</time>
  <course>186.56</course>
  <speed>0.022360679774997897</speed>
  <fix>3d</fix>
</trkpt>
<trkpt lat="33.810313" lon="-118.393867">
  <ele>-0.12</ele>
  <time>2026-09-01T01:12:54Z</time>
  <course>0.0</course>
  <speed>0.0</speed>
  <fix>3d</fix>
</trkpt>
<trkpt lat="33.8103131" lon="-118.3938671">
  <ele>-0.129</ele>
  <time>2026-09-01T01:12:54Z</time>
  <course>186.56</course>
  <speed>0.022360679774997897</speed>
  <fix>3d</fix>
</trkpt>
<trkpt lat="33.810313" lon="-118.393867">
  <ele>-0.12</ele>
  <time>2026-09-01T01:12:54Z</time>
  <course>0.0</course>
  <speed>0.0</speed>
  <fix>3d</fix>
</trkpt>
<trkpt lat="33.8103131" lon="-118.3938671">
  <ele>-0.129</ele>
  <time>2026-09-01T01:12:54Z</time>
  <course>186.55</course>
  <speed>0.022360679774997897</speed>
  <fix>3d</fix>
</trkpt>
<trkpt lat="33.810313" lon="-118.393867">
  <ele>-0.12</ele>
  <time>2026-09-01T01:12:54Z</time>
  <course>0.0</course>
  <speed>0.0</speed>
  <fix>3d</fix>
</trkpt>
<trkpt lat="33.8103131" lon="-118.3938671">
  <ele>-0.13</ele>
  <time>2026-09-01T01:12:54Z</time>
  <course>186.55</course>
  <speed>0.022360679774997897</speed>
  <fix>3d</fix>
</trkpt>
<trkpt lat="33.810313" lon="-118.393867">
  <ele>-0.12</ele>
  <time>2026-09-01T01:12:54Z</time>
  <course>0.0</course>
  <speed>0.0</speed>
  <fix>3d</fix>
</trkpt>
<trkpt lat="33.8103131" lon="-118.3938671">
  <ele>-0.132</ele>
  <time>2026-09-01T01:12:54Z</time>
  <course>186.55</course>
  <speed>0.022360679774997897</speed>
  <fix>3d</fix>
</trkpt>
<trkpt lat="33.810313" lon="-118.393867">
  <ele>-0.12</ele>
  <time>2026-09-01T01:12:54Z</time>
  <course>0.0</course>
  <speed>0.0</speed>
  <fix>3d</fix>
</trkpt>
<trkpt lat="33.8103131" lon="-118.3938671">
  <ele>-0.133</ele>
  <time>2026-09-01T01:12:54Z</time>
  <course>186.55</course>
  <speed>0.022360679774997897</speed>
  <fix>3d</fix>
</trkpt>
<trkpt lat="33.810313" lon="-118.393867">
  <ele>-0.12</ele>
  <time>2026-09-01T01:12:54Z</time>
  <course>0.0</course>
  <speed>0.0</speed>
  <fix>3d</fix>
</trkpt>
<trkpt lat="33.8103131" lon="-118.3938671">
  <ele>-0.133</ele>
  <time>2026-09-01T01:12:54Z</time>
  <course>186.54</course>
  <speed>0.022360679774997897</speed>
  <fix>3d</fix>
</trkpt>
<trkpt lat="33.810313" lon="-118.393867">
  <ele>-0.12</ele>
  <time>2026-09-01T01:12:54Z</time>
  <course>0.0</course>
  <speed>0.0</speed>
  <fix>3d</fix>
</trkpt>
<trkpt lat="33.8103131" lon="-118.3938671">
  <ele>-0.132</ele>
  <time>2026-09-01T01:12:54Z</time>
  <course>186.54</course>
  <speed>0.022360679774997897</speed>
  <fix>3d</fix>
</trkpt>
<trkpt lat="33.810313" lon="-118.393867">
  <ele>-0.12</ele>
  <time>2026-09-01T01:12:54Z</time>
  <course>0.0</course>
  <speed>0.0</speed>
  <fix>3d</fix>
</trkpt>
<trkpt lat="33.8103131" lon="-118.3938671">
  <ele>-0.131</ele>
  <time>2026-09-01T01:12:54Z</time>
  <course>186.54</course>
  <speed>0.022360679774997897</speed>
  <fix>3d</fix>
</trkpt>
<trkpt lat="33.810313" lon="-118.393867">
  <ele>-0.12</ele>
  <time>2026-09-01T01:12:54Z</time>
  <course>0.0</course>
  <speed>0.0</speed>
  <fix>3d</fix>
</trkpt>
<trkpt lat="33.8103131" lon="-118.3938671">
  <ele>-0.128</ele>
  <time>2026-09-01T01:12:54Z</time>
  <course>186.54</course>
  <speed>0.022360679774997897</speed>
  <fix>3d</fix>
</trkpt>
<trkpt lat="33.810313" lon="-118.393867">
  <ele>-0.12</ele>
  <time>2026-09-01T01:12:54Z</time>
  <course>0.0</course>
  <speed>0.0</speed>
  <fix>3d</fix>
</trkpt>
<trkpt lat="33.8103131" lon="-118.3938671">
  <ele>-0.125</ele>
  <time>2026-09-01T01:12:54Z</time>
  <course>186.53</course>
  <speed>0.022360679774997897</speed>
  <fix>3d</fix>
</trkpt>
<trkpt lat="33.810313" lon="-118.393867">
  <ele>-0.12</ele>
  <time>2026-09-01T01:12:54Z</time>
  <course>0.0</course>
  <speed>0.0</speed>
  <fix>3d</fix>
</trkpt>
<trkpt lat="33.8103131" lon="-118.3938671">
  <ele>-0.124</ele>
  <time>2026-09-01T01:12:54Z</time>
  <course>186.53</course>
  <speed>0.022360679774997897</speed>
  <fix>3d</fix>
</trkpt>
<trkpt lat="33.810313" lon="-118.393867">
  <ele>-0.12</ele>
  <time>2026-09-01T01:12:54Z</time>
  <course>0.0</course>
  <speed>0.0</speed>
  <fix>3d</fix>
</trkpt>
<trkpt lat="33.8103131" lon="-118.3938671">
  <ele>-0.125</ele>
  <time>2026-09-01T01:12:54Z</time>
  <course>186.53</course>
  <speed>0.022360679774997897</speed>
  <fix>3d</fix>
</trkpt>
<trkpt lat="33.810313" lon="-118.393867">
  <ele>-0.12</ele>
  <time>2026-09-01T01:12:54Z</time>
  <course>0.0</course>
  <speed>0.0</speed>
  <fix>3d</fix>
</trkpt>
<trkpt lat="33.8103131" lon="-118.3938671">
  <ele>-0.126</ele>
  <time>2026-09-01T01:12:54Z</time>
  <course>186.52</course>
  <speed>0.022360679774997897</speed>
  <fix>3d</fix>
</trkpt>
<trkpt lat="33.810313" lon="-118.393867">
  <ele>-0.12</ele>
  <time>2026-09-01T01:12:54Z</time>
  <course>0.0</course>
  <speed>0.0</speed>
  <fix>3d</fix>
</trkpt>
<trkpt lat="33.8103131" lon="-118.3938671">
  <ele>-0.126</ele>
  <time>2026-09-01T01:12:54Z</time>
  <course>186.52</course>
  <speed>0.022360679774997897</speed>
  <fix>3d</fix>
</trkpt>
<trkpt lat="33.810313" lon="-118.393867">
  <ele>-0.12</ele>
  <time>2026-09-01T01:12:54Z</time>
  <course>0.0</course>
  <speed>0.0</speed>
  <fix>3d</fix>
</trkpt>
<trkpt lat="33.8103131" lon="-118.3938671">
  <ele>-0.127</ele>
  <time>2026-09-01T01:12:54Z</time>
  <course>186.52</course>
  <speed>0.022360679774997897</speed>
  <fix>3d</fix>
</trkpt>
<trkpt lat="33.810313" lon="-118.393867">
  <ele>-0.12</ele>
  <time>2026-09-01T01:12:54Z</time>
  <course>0.0</course>
  <speed>0.0</speed>
  <fix>3d</fix>
</trkpt>
<trkpt lat="33.8103131" lon="-118.3938671">
  <ele>-0.127</ele>
  <time>2026-09-01T01:12:54Z</time>
  <course>186.52</course>
  <speed>0.022360679774997897</speed>
  <fix>3d</fix>
</trkpt>
<trkpt lat="33.810313" lon="-118.393867">
  <ele>-0.12</ele>
  <time>2026-09-01T01:12:54Z</time>
  <course>0.0</course>
  <speed>0.0</speed>
  <fix>3d</fix>
</trkpt>
<trkpt lat="33.8103131" lon="-118.3938671">
  <ele>-0.126</ele>
  <time>2026-09-01T01:12:54Z</time>
  <course>186.52</course>
  <speed>0.022360679774997897</speed>
  <fix>3d</fix>
</trkpt>
<trkpt lat="33.810313" lon="-118.393867">
  <ele>-0.12</ele>
  <time>2026-09-01T01:12:54Z</time>
  <course>0.0</course>
  <speed>0.0</speed>
  <fix>3d</fix>
</trkpt>
<trkpt lat="33.8103131" lon="-118.3938671">
  <ele>-0.125</ele>
  <time>2026-09-01T01:12:54Z</time>
  <course>186.51</course>
  <speed>0.022360679774997897</speed>
  <fix>3d</fix>
</trkpt>
<trkpt lat="33.810313" lon="-118.393867">
  <ele>-0.12</ele>
  <time>2026-09-01T01:12:54Z</time>
  <course>0.0</course>
  <speed>0.0</speed>
  <fix>3d</fix>
</trkpt>
<trkpt lat="33.8103131" lon="-118.3938671">
  <ele>-0.125</ele>
  <time>2026-09-01T01:12:54Z</time>
  <course>186.51</course>
  <speed>0.022360679774997897</speed>
  <fix>3d</fix>
</trkpt>
<trkpt lat="33.810313" lon="-118.393867">
  <ele>-0.12</ele>
  <time>2026-09-01T01:12:54Z</time>
  <course>0.0</course>
  <speed>0.0</speed>
  <fix>3d</fix>
</trkpt>
<trkpt lat="33.8103131" lon="-118.3938671">
  <ele>-0.125</ele>
  <time>2026-09-01T01:12:54Z</time>
  <course>186.51</course>
  <speed>0.022360679774997897</speed>
  <fix>3d</fix>
</trkpt>
<trkpt lat="33.810313" lon="-118.393867">
  <ele>-0.12</ele>
  <time>2026-09-01T01:12:54Z</time>
  <course>0.0</course>
  <speed>0.0</speed>
  <fix>3d</fix>
</trkpt>
<trkpt lat="33.8103131" lon="-118.3938671">
  <ele>-0.125</ele>
  <time>2026-09-01T01:12:54Z</time>
  <course>186.51</course>
  <speed>0.022360679774997897</speed>
  <fix>3d</fix>
</trkpt>
<trkpt lat="33.810313" lon="-118.393867">
  <ele>-0.12</ele>
  <time>2026-09-01T01:12:54Z</time>
  <course>0.0</course>
  <speed>0.0</speed>
  <fix>3d</fix>
</trkpt>
<trkpt lat="33.8103132" lon="-118.3938671">
  <ele>-0.125</ele>
  <time>2026-09-01T01:12:54Z</time>
  <course>186.5</course>
  <speed>0.0282842712474619</speed>
  <fix>3d</fix>
</trkpt>
<trkpt lat="33.810313" lon="-118.393867">
  <ele>-0.12</ele>
  <time>2026-09-01T01:12:54Z</time>
  <course>0.0</course>
  <speed>0.0</speed>
  <fix>3d</fix>
</trkpt>
<trkpt lat="33.8103132" lon="-118.3938671">
  <ele>-0.124</ele>
  <time>2026-09-01T01:12:54Z</time>
  <course>186.5</course>
  <speed>0.0282842712474619</speed>
  <fix>3d</fix>
</trkpt>
<trkpt lat="33.810313" lon="-118.393867">
  <ele>-0.12</ele>
  <time>2026-09-01T01:12:54Z</time>
  <course>0.0</course>
  <speed>0.0</speed>
  <fix>3d</fix>
</trkpt>
<trkpt lat="33.8103132" lon="-118.3938671">
  <ele>-0.124</ele>
  <time>2026-09-01T01:12:54Z</time>
  <course>186.5</course>
  <speed>0.0282842712474619</speed>
  <fix>3d</fix>
</trkpt>
<trkpt lat="33.810313" lon="-118.393867">
  <ele>-0.12</ele>
  <time>2026-09-01T01:12:54Z</time>
  <course>0.0</course>
  <speed>0.0</speed>
  <fix>3d</fix>
</trkpt>
<trkpt lat="33.8103132" lon="-118.3938671">
  <ele>-0.126</ele>
  <time>2026-09-01T01:12:54Z</time>
  <course>186.5</course>
  <speed>0.0282842712474619</speed>
  <fix>3d</fix>
</trkpt>
<trkpt lat="33.810313" lon="-118.393867">
  <ele>-0.12</ele>
  <time>2026-09-01T01:12:54Z</time>
  <course>0.0</course>
  <speed>0.0</speed>
  <fix>3d</fix>
</trkpt>
<trkpt lat="33.8103132" lon="-118.3938671">
  <ele>-0.126</ele>
  <time>2026-09-01T01:12:54Z</time>
  <course>186.49</course>
  <speed>0.0282842712474619</speed>
  <fix>3d</fix>
</trkpt>
<trkpt lat="33.810313" lon="-118.393867">
  <ele>-0.12</ele>
  <time>2026-09-01T01:12:54Z</time>
  <course>0.0</course>
  <speed>0.0</speed>
  <fix>3d</fix>
</trkpt>
<trkpt lat="33.8103132" lon="-118.3938671">
  <ele>-0.126</ele>
  <time>2026-09-01T01:12:54Z</time>
  <course>186.49</course>
  <speed>0.0282842712474619</speed>
  <fix>3d</fix>
</trkpt>
<trkpt lat="33.810313" lon="-118.393867">
  <ele>-0.12</ele>
  <time>2026-09-01T01:12:54Z</time>
  <course>0.0</course>
  <speed>0.0</speed>
  <fix>3d</fix>
</trkpt>
<trkpt lat="33.8103132" lon="-118.3938671">
  <ele>-0.125</ele>
  <time>2026-09-01T01:12:54Z</time>
  <course>186.49</course>
  <speed>0.0282842712474619</speed>
  <fix>3d</fix>
</trkpt>
<trkpt lat="33.810313" lon="-118.393867">
  <ele>-0.12</ele>
  <time>2026-09-01T01:12:54Z</time>
  <course>0.0</course>
  <speed>0.0</speed>
  <fix>3d</fix>
</trkpt>
<trkpt lat="33.8103132" lon="-118.3938671">
  <ele>-0.124</ele>
  <time>2026-09-01T01:12:54Z</time>
  <course>186.49</course>
  <speed>0.0282842712474619</speed>
  <fix>3d</fix>
</trkpt>
<trkpt lat="33.810313" lon="-118.393867">
  <ele>-0.12</ele>
  <time>2026-09-01T01:12:54Z</time>
  <course>0.0</course>
  <speed>0.0</speed>
  <fix>3d</fix>
</trkpt>
<trkpt lat="33.8103132" lon="-118.3938671">
  <ele>-0.123</ele>
  <time>2026-09-01T01:12:54Z</time>
  <course>186.48</course>
  <speed>0.0282842712474619</speed>
  <fix>3d</fix>
</trkpt>
<trkpt lat="33.810313" lon="-118.393867">
  <ele>-0.12</ele>
  <time>2026-09-01T01:12:54Z</time>
  <course>0.0</course>
  <speed>0.0</speed>
  <fix>3d</fix>
</trkpt>
<trkpt lat="33.8103132" lon="-118.3938671">
  <ele>-0.121</ele>
  <time>2026-09-01T01:12:54Z</time>
  <course>186.48</course>
  <speed>0.0282842712474619</speed>
  <fix>3d</fix>
</trkpt>
<trkpt lat="33.810313" lon="-118.393867">
  <ele>-0.12</ele>
  <time>2026-09-01T01:12:54Z</time>
  <course>0.0</course>
  <speed>0.0</speed>
  <fix>3d</fix>
</trkpt>
<trkpt lat="33.8103132" lon="-118.3938672">
  <ele>-0.12</ele>
  <time>2026-09-01T01:12:54Z</time>
  <course>186.48</course>
  <speed>0.0282842712474619</speed>
  <fix>3d</fix>
</trkpt>
<trkpt lat="33.810313" lon="-118.393867">
  <ele>-0.12</ele>
  <time>2026-09-01T01:12:54Z</time>
  <course>0.0</course>
  <speed>0.0</speed>
  <fix>3d</fix>
</trkpt>
<trkpt lat="33.8103132" lon="-118.3938671">
  <ele>-0.12</ele>
  <time>2026-09-01T01:12:54Z</time>
  <course>186.48</course>
  <speed>0.0282842712474619</speed>
  <fix>3d</fix>
</trkpt>
<trkpt lat="33.810313" lon="-118.393867">
  <ele>-0.12</ele>
  <time>2026-09-01T01:12:54Z</time>
  <course>0.0</course>
  <speed>0.0</speed>
  <fix>3d</fix>
</trkpt>
<trkpt lat="33.8103132" lon="-118.3938672">
  <ele>-0.12</ele>
  <time>2026-09-01T01:12:54Z</time>
  <course>186.48</course>
  <speed>0.0282842712474619</speed>
  <fix>3d</fix>
</trkpt>
<trkpt lat="33.810313" lon="-118.393867">
  <ele>-0.12</ele>
  <time>2026-09-01T01:12:54Z</time>
  <course>0.0</course>
  <speed>0.0</speed>
  <fix>3d</fix>
</trkpt>
<trkpt lat="33.8103132" lon="-118.3938672">
  <ele>-0.12</ele>
  <time>2026-09-01T01:12:54Z</time>
  <course>186.47</course>
  <speed>0.0282842712474619</speed>
  <fix>3d</fix>
</trkpt>
<trkpt lat="33.810313" lon="-118.393867">
  <ele>-0.12</ele>
  <time>2026-09-01T01:12:54Z</time>
  <course>0.0</course>
  <speed>0.0</speed>
  <fix>3d</fix>
</trkpt>
<trkpt lat="33.8103132" lon="-118.3938672">
  <ele>-0.121</ele>
  <time>2026-09-01T01:12:54Z</time>
  <course>186.47</course>
  <speed>0.0282842712474619</speed>
  <fix>3d</fix>
</trkpt>
<trkpt lat="33.810313" lon="-118.393867">
  <ele>-0.12</ele>
  <time>2026-09-01T01:12:54Z</time>
  <course>0.0</course>
  <speed>0.0</speed>
  <fix>3d</fix>
</trkpt>
<trkpt lat="33.8103132" lon="-118.3938672">
  <ele>-0.122</ele>
  <time>2026-09-01T01:12:54Z</time>
  <course>186.47</course>
  <speed>0.0282842712474619</speed>
  <fix>3d</fix>
</trkpt>
<trkpt lat="33.810313" lon="-118.393867">
  <ele>-0.12</ele>
  <time>2026-09-01T01:12:54Z</time>
  <course>0.0</course>
  <speed>0.0</speed>
  <fix>3d</fix>
</trkpt>
<trkpt lat="33.8103132" lon="-118.3938672">
  <ele>-0.122</ele>
  <time>2026-09-01T01:12:54Z</time>
  <course>186.47</course>
  <speed>0.0282842712474619</speed>
  <fix>3d</fix>
</trkpt>
<trkpt lat="33.810313" lon="-118.393867">
  <ele>-0.12</ele>
  <time>2026-09-01T01:12:54Z</time>
  <course>0.0</course>
  <speed>0.0</speed>
  <fix>3d</fix>
</trkpt>
<trkpt lat="33.8103132" lon="-118.3938672">
  <ele>-0.122</ele>
  <time>2026-09-01T01:12:54Z</time>
  <course>186.46</course>
  <speed>0.0282842712474619</speed>
  <fix>3d</fix>
</trkpt>
<trkpt lat="33.810313" lon="-118.393867">
  <ele>-0.12</ele>
  <time>2026-09-01T01:12:54Z</time>
  <course>0.0</course>
  <speed>0.0</speed>
  <fix>3d</fix>
</trkpt>
<trkpt lat="33.8103132" lon="-118.3938672">
  <ele>-0.122</ele>
  <time>2026-09-01T01:12:54Z</time>
  <course>186.46</course>
  <speed>0.0282842712474619</speed>
  <fix>3d</fix>
</trkpt>
<trkpt lat="33.810313" lon="-118.393867">
  <ele>-0.12</ele>
  <time>2026-09-01T01:12:54Z</time>
  <course>0.0</course>
  <speed>0.0</speed>
  <fix>3d</fix>
</trkpt>
<trkpt lat="33.8103132" lon="-118.3938672">
  <ele>-0.121</ele>
  <time>2026-09-01T01:12:54Z</time>
  <course>186.46</course>
  <speed>0.0282842712474619</speed>
  <fix>3d</fix>
</trkpt>
<trkpt lat="33.810313" lon="-118.393867">
  <ele>-0.12</ele>
  <time>2026-09-01T01:12:54Z</time>
  <course>0.0</course>
  <speed>0.0</speed>
  <fix>3d</fix>
</trkpt>
<trkpt lat="33.8103132" lon="-118.3938672">
  <ele>-0.121</ele>
  <time>2026-09-01T01:12:54Z</time>
  <course>186.46</course>
  <speed>0.0282842712474619</speed>
  <fix>3d</fix>
</trkpt>
<trkpt lat="33.810313" lon="-118.393867">
  <ele>-0.12</ele>
  <time>2026-09-01T01:12:54Z</time>
  <course>0.0</course>
  <speed>0.0</speed>
  <fix>3d</fix>
</trkpt>
<trkpt lat="33.8103132" lon="-118.3938672">
  <ele>-0.122</ele>
  <time>2026-09-01T01:12:54Z</time>
  <course>186.46</course>
  <speed>0.0282842712474619</speed>
  <fix>3d</fix>
</trkpt>
<trkpt lat="33.810313" lon="-118.393867">
  <ele>-0.12</ele>
  <time>2026-09-01T01:12:54Z</time>
  <course>0.0</course>
  <speed>0.0</speed>
  <fix>3d</fix>
</trkpt>
<trkpt lat="33.8103132" lon="-118.3938672">
  <ele>-0.124</ele>
  <time>2026-09-01T01:12:54Z</time>
  <course>186.45</course>
  <speed>0.0282842712474619</speed>
  <fix>3d</fix>
</trkpt>
<trkpt lat="33.810313" lon="-118.393867">
  <ele>-0.12</ele>
  <time>2026-09-01T01:12:54Z</time>
  <course>0.0</course>
  <speed>0.0</speed>
  <fix>3d</fix>
</trkpt>
<trkpt lat="33.8103132" lon="-118.3938672">
  <ele>-0.127</ele>
  <time>2026-09-01T01:12:54Z</time>
  <course>186.45</course>
  <speed>0.0282842712474619</speed>
  <fix>3d</fix>
</trkpt>
<trkpt lat="33.810313" lon="-118.393867">
  <ele>-0.12</ele>
  <time>2026-09-01T01:12:54Z</time>
  <course>0.0</course>
  <speed>0.0</speed>
  <fix>3d</fix>
</trkpt>
<trkpt lat="33.8103132" lon="-118.3938672">
  <ele>-0.13</ele>
  <time>2026-09-01T01:12:54Z</time>
  <course>186.45</course>
  <speed>0.0282842712474619</speed>
  <fix>3d</fix>
</trkpt>
<trkpt lat="33.810313" lon="-118.393867">
  <ele>-0.12</ele>
  <time>2026-09-01T01:12:54Z</time>
  <course>0.0</course>
  <speed>0.0</speed>
  <fix>3d</fix>
</trkpt>
<trkpt lat="33.8103132" lon="-118.3938672">
  <ele>-0.132</ele>
  <time>2026-09-01T01:12:54Z</time>
  <course>186.45</course>
  <speed>0.0282842712474619</speed>
  <fix>3d</fix>
</trkpt>
<trkpt lat="33.810313" lon="-118.393867">
  <ele>-0.12</ele>
  <time>2026-09-01T01:12:54Z</time>
  <course>0.0</course>
  <speed>0.0</speed>
  <fix>3d</fix>
</trkpt>
<trkpt lat="33.8103132" lon="-118.3938672">
  <ele>-0.133</ele>
  <time>2026-09-01T01:12:54Z</time>
  <course>186.45</course>
  <speed>0.0282842712474619</speed>
  <fix>3d</fix>
</trkpt>
<trkpt lat="33.810313" lon="-118.393867">
  <ele>-0.12</ele>
  <time>2026-09-01T01:12:54Z</time>
  <course>0.0</course>
  <speed>0.0</speed>
  <fix>3d</fix>
</trkpt>
<trkpt lat="33.8103132" lon="-118.3938672">
  <ele>-0.133</ele>
  <time>2026-09-01T01:12:54Z</time>
  <course>186.44</course>
  <speed>0.0282842712474619</speed>
  <fix>3d</fix>
</trkpt>
<trkpt lat="33.810313" lon="-118.393867">
  <ele>-0.12</ele>
  <time>2026-09-01T01:12:54Z</time>
  <course>0.0</course>
  <speed>0.0</speed>
  <fix>3d</fix>
</trkpt>
<trkpt lat="33.8103132" lon="-118.3938672">
  <ele>-0.133</ele>
  <time>2026-09-01T01:12:54Z</time>
  <course>186.44</course>
  <speed>0.0282842712474619</speed>
  <fix>3d</fix>
</trkpt>
<trkpt lat="33.810313" lon="-118.393867">
  <ele>-0.12</ele>
  <time>2026-09-01T01:12:54Z</time>
  <course>0.0</course>
  <speed>0.0</speed>
  <fix>3d</fix>
</trkpt>
<trkpt lat="33.8103132" lon="-118.3938672">
  <ele>-0.133</ele>
  <time>2026-09-01T01:12:54Z</time>
  <course>186.44</course>
  <speed>0.0282842712474619</speed>
  <fix>3d</fix>
</trkpt>
<trkpt lat="33.810313" lon="-118.393867">
  <ele>-0.12</ele>
  <time>2026-09-01T01:12:54Z</time>
  <course>0.0</course>
  <speed>0.0</speed>
  <fix>3d</fix>
</trkpt>
<trkpt lat="33.8103132" lon="-118.3938672">
  <ele>-0.133</ele>
  <time>2026-09-01T01:12:54Z</time>
  <course>186.44</course>
  <speed>0.0282842712474619</speed>
  <fix>3d</fix>
</trkpt>
<trkpt lat="33.810313" lon="-118.393867">
  <ele>-0.12</ele>
  <time>2026-09-01T01:12:54Z</time>
  <course>0.0</course>
  <speed>0.0</speed>
  <fix>3d</fix>
</trkpt>
<trkpt lat="33.8103132" lon="-118.3938672">
  <ele>-0.134</ele>
  <time>2026-09-01T01:12:54Z</time>
  <course>186.44</course>
  <speed>0.0282842712474619</speed>
  <fix>3d</fix>
</trkpt>
<trkpt lat="33.810313" lon="-118.393867">
  <ele>-0.12</ele>
  <time>2026-09-01T01:12:54Z</time>
  <course>0.0</course>
  <speed>0.0</speed>
  <fix>3d</fix>
</trkpt>
<trkpt lat="33.8103132" lon="-118.3938672">
  <ele>-0.134</ele>
  <time>2026-09-01T01:12:54Z</time>
  <course>186.43</course>
  <speed>0.0282842712474619</speed>
  <fix>3d</fix>
</trkpt>
<trkpt lat="33.810313" lon="-118.393867">
  <ele>-0.12</ele>
  <time>2026-09-01T01:12:54Z</time>
  <course>0.0</course>
  <speed>0.0</speed>
  <fix>3d</fix>
</trkpt>
<trkpt lat="33.8103132" lon="-118.3938672">
  <ele>-0.134</ele>
  <time>2026-09-01T01:12:55Z</time>
  <course>186.43</course>
  <speed>0.0282842712474619</speed>
  <fix>3d</fix>
</trkpt>
<trkpt lat="33.810313" lon="-118.393867">
  <ele>-0.12</ele>
  <time>2026-09-01T01:12:55Z</time>
  <course>0.0</course>
  <speed>0.0</speed>
  <fix>3d</fix>
</trkpt>
<trkpt lat="33.8103132" lon="-118.3938672">
  <ele>-0.134</ele>
  <time>2026-09-01T01:12:55Z</time>
  <course>186.43</course>
  <speed>0.0282842712474619</speed>
  <fix>3d</fix>
</trkpt>
<trkpt lat="33.810313" lon="-118.393867">
  <ele>-0.12</ele>
  <time>2026-09-01T01:12:55Z</time>
  <course>0.0</course>
  <speed>0.0</speed>
  <fix>3d</fix>
</trkpt>
<trkpt lat="33.8103132" lon="-118.3938672">
  <ele>-0.133</ele>
  <time>2026-09-01T01:12:55Z</time>
  <course>186.43</course>
  <speed>0.0282842712474619</speed>
  <fix>3d</fix>
</trkpt>
<trkpt lat="33.810313" lon="-118.393867">
  <ele>-0.12</ele>
  <time>2026-09-01T01:12:55Z</time>
  <course>0.0</course>
  <speed>0.0</speed>
  <fix>3d</fix>
</trkpt>
<trkpt lat="33.8103132" lon="-118.3938672">
  <ele>-0.132</ele>
  <time>2026-09-01T01:12:55Z</time>
  <course>186.43</course>
  <speed>0.0282842712474619</speed>
  <fix>3d</fix>
</trkpt>
<trkpt lat="33.810313" lon="-118.393867">
  <ele>-0.12</ele>
  <time>2026-09-01T01:12:55Z</time>
  <course>0.0</course>
  <speed>0.0</speed>
  <fix>3d</fix>
</trkpt>
<trkpt lat="33.8103132" lon="-118.3938672">
  <ele>-0.13</ele>
  <time>2026-09-01T01:12:55Z</time>
  <course>186.42</course>
  <speed>0.0282842712474619</speed>
  <fix>3d</fix>
</trkpt>
<trkpt lat="33.810313" lon="-118.393867">
  <ele>-0.12</ele>
  <time>2026-09-01T01:12:55Z</time>
  <course>0.0</course>
  <speed>0.0</speed>
  <fix>3d</fix>
</trkpt>
<trkpt lat="33.8103132" lon="-118.3938672">
  <ele>-0.126</ele>
  <time>2026-09-01T01:12:55Z</time>
  <course>186.42</course>
  <speed>0.0282842712474619</speed>
  <fix>3d</fix>
</trkpt>
<trkpt lat="33.810313" lon="-118.393867">
  <ele>-0.12</ele>
  <time>2026-09-01T01:12:55Z</time>
  <course>0.0</course>
  <speed>0.0</speed>
  <fix>3d</fix>
</trkpt>
<trkpt lat="33.8103132" lon="-118.3938672">
  <ele>-0.123</ele>
  <time>2026-09-01T01:12:55Z</time>
  <course>186.42</course>
  <speed>0.0282842712474619</speed>
  <fix>3d</fix>
</trkpt>
<trkpt lat="33.810313" lon="-118.393867">
  <ele>-0.12</ele>
  <time>2026-09-01T01:12:55Z</time>
  <course>0.0</course>
  <speed>0.0</speed>
  <fix>3d</fix>
</trkpt>
<trkpt lat="33.8103132" lon="-118.3938672">
  <ele>-0.121</ele>
  <time>2026-09-01T01:12:55Z</time>
  <course>186.42</course>
  <speed>0.0282842712474619</speed>
  <fix>3d</fix>
</trkpt>
<trkpt lat="33.810313" lon="-118.393867">
  <ele>-0.12</ele>
  <time>2026-09-01T01:12:55Z</time>
  <course>0.0</course>
  <speed>0.0</speed>
  <fix>3d</fix>
</trkpt>
<trkpt lat="33.8103132" lon="-118.3938672">
  <ele>-0.12</ele>
  <time>2026-09-01T01:12:55Z</time>
  <course>186.42</course>
  <speed>0.0282842712474619</speed>
  <fix>3d</fix>
</trkpt>
<trkpt lat="33.810313" lon="-118.393867">
  <ele>-0.12</ele>
  <time>2026-09-01T01:12:55Z</time>
  <course>0.0</course>
  <speed>0.0</speed>
  <fix>3d</fix>
</trkpt>
<trkpt lat="33.8103132" lon="-118.3938672">
  <ele>-0.12</ele>
  <time>2026-09-01T01:12:55Z</time>
  <course>186.41</course>
  <speed>0.0282842712474619</speed>
  <fix>3d</fix>
</trkpt>
<trkpt lat="33.810313" lon="-118.393867">
  <ele>-0.12</ele>
  <time>2026-09-01T01:12:55Z</time>
  <course>0.0</course>
  <speed>0.0</speed>
  <fix>3d</fix>
</trkpt>
<trkpt lat="33.8103132" lon="-118.3938672">
  <ele>-0.12</ele>
  <time>2026-09-01T01:12:55Z</time>
  <course>186.41</course>
  <speed>0.0282842712474619</speed>
  <fix>3d</fix>
</trkpt>
<trkpt lat="33.810313" lon="-118.393867">
  <ele>-0.12</ele>
  <time>2026-09-01T01:12:55Z</time>
  <course>0.0</course>
  <speed>0.0</speed>
  <fix>3d</fix>
</trkpt>
<trkpt lat="33.8103132" lon="-118.3938672">
  <ele>-0.12</ele>
  <time>2026-09-01T01:12:55Z</time>
  <course>186.41</course>
  <speed>0.0282842712474619</speed>
  <fix>3d</fix>
</trkpt>
<trkpt lat="33.810313" lon="-118.393867">
  <ele>-0.12</ele>
  <time>2026-09-01T01:12:55Z</time>
  <course>0.0</course>
  <speed>0.0</speed>
  <fix>3d</fix>
</trkpt>
<trkpt lat="33.8103132" lon="-118.3938672">
  <ele>-0.119</ele>
  <time>2026-09-01T01:12:55Z</time>
  <course>186.41</course>
  <speed>0.0282842712474619</speed>
  <fix>3d</fix>
</trkpt>
<trkpt lat="33.810313" lon="-118.393867">
  <ele>-0.12</ele>
  <time>2026-09-01T01:12:55Z</time>
  <course>0.0</course>
  <speed>0.0</speed>
  <fix>3d</fix>
</trkpt>
<trkpt lat="33.8103132" lon="-118.3938672">
  <ele>-0.119</ele>
  <time>2026-09-01T01:12:55Z</time>
  <course>186.41</course>
  <speed>0.0282842712474619</speed>
  <fix>3d</fix>
</trkpt>
<trkpt lat="33.810313" lon="-118.393867">
  <ele>-0.12</ele>
  <time>2026-09-01T01:12:55Z</time>
  <course>0.0</course>
  <speed>0.0</speed>
  <fix>3d</fix>
</trkpt>
<trkpt lat="33.8103132" lon="-118.3938672">
  <ele>-0.119</ele>
  <time>2026-09-01T01:12:55Z</time>
  <course>186.4</course>
  <speed>0.0282842712474619</speed>
  <fix>3d</fix>
</trkpt>
<trkpt lat="33.810313" lon="-118.393867">
  <ele>-0.12</ele>
  <time>2026-09-01T01:12:55Z</time>
  <course>0.0</course>
  <speed>0.0</speed>
  <fix>3d</fix>
</trkpt>
<trkpt lat="33.8103132" lon="-118.3938672">
  <ele>-0.118</ele>
  <time>2026-09-01T01:12:55Z</time>
  <course>186.4</course>
  <speed>0.0282842712474619</speed>
  <fix>3d</fix>
</trkpt>
<trkpt lat="33.810313" lon="-118.393867">
  <ele>-0.12</ele>
  <time>2026-09-01T01:12:55Z</time>
  <course>0.0</course>
  <speed>0.0</speed>
  <fix>3d</fix>
</trkpt>
<trkpt lat="33.8103132" lon="-118.3938672">
  <ele>-0.117</ele>
  <time>2026-09-01T01:12:55Z</time>
  <course>186.4</course>
  <speed>0.0282842712474619</speed>
  <fix>3d</fix>
</trkpt>
<trkpt lat="33.810313" lon="-118.393867">
  <ele>-0.12</ele>
  <time>2026-09-01T01:12:55Z</time>
  <course>0.0</course>
  <speed>0.0</speed>
  <fix>3d</fix>
</trkpt>
<trkpt lat="33.8103132" lon="-118.3938672">
  <ele>-0.116</ele>
  <time>2026-09-01T01:12:55Z</time>
  <course>186.4</course>
  <speed>0.0282842712474619</speed>
  <fix>3d</fix>
</trkpt>
<trkpt lat="33.810313" lon="-118.393867">
  <ele>-0.12</ele>
  <time>2026-09-01T01:12:55Z</time>
  <course>0.0</course>
  <speed>0.0</speed>
  <fix>3d</fix>
</trkpt>
<trkpt lat="33.8103132" lon="-118.3938672">
  <ele>-0.116</ele>
  <time>2026-09-01T01:12:55Z</time>
  <course>186.4</course>
  <speed>0.0282842712474619</speed>
  <fix>3d</fix>
</trkpt>
<trkpt lat="33.810313" lon="-118.393867">
  <ele>-0.12</ele>
  <time>2026-09-01T01:12:55Z</time>
  <course>0.0</course>
  <speed>0.0</speed>
  <fix>3d</fix>
</trkpt>
<trkpt lat="33.8103132" lon="-118.3938672">
  <ele>-0.117</ele>
  <time>2026-09-01T01:12:55Z</time>
  <course>186.4</course>
  <speed>0.0282842712474619</speed>
  <fix>3d</fix>
</trkpt>
<trkpt lat="33.810313" lon="-118.393867">
  <ele>-0.12</ele>
  <time>2026-09-01T01:12:55Z</time>
  <course>0.0</course>
  <speed>0.0</speed>
  <fix>3d</fix>
</trkpt>
<trkpt lat="33.8103132" lon="-118.3938672">
  <ele>-0.118</ele>
  <time>2026-09-01T01:12:55Z</time>
  <course>186.39</course>
  <speed>0.0282842712474619</speed>
  <fix>3d</fix>
</trkpt>
<trkpt lat="33.810313" lon="-118.393867">
  <ele>-0.12</ele>
  <time>2026-09-01T01:12:55Z</time>
  <course>0.0</course>
  <speed>0.0</speed>
  <fix>3d</fix>
</trkpt>
<trkpt lat="33.8103132" lon="-118.3938672">
  <ele>-0.119</ele>
  <time>2026-09-01T01:12:55Z</time>
  <course>186.39</course>
  <speed>0.0282842712474619</speed>
  <fix>3d</fix>
</trkpt>
<trkpt lat="33.810313" lon="-118.393867">
  <ele>-0.12</ele>
  <time>2026-09-01T01:12:55Z</time>
  <course>0.0</course>
  <speed>0.0</speed>
  <fix>3d</fix>
</trkpt>
<trkpt lat="33.8103132" lon="-118.3938672">
  <ele>-0.121</ele>
  <time>2026-09-01T01:12:55Z</time>
  <course>186.39</course>
  <speed>0.0282842712474619</speed>
  <fix>3d</fix>
</trkpt>
<trkpt lat="33.810313" lon="-118.393867">
  <ele>-0.12</ele>
  <time>2026-09-01T01:12:55Z</time>
  <course>0.0</course>
  <speed>0.0</speed>
  <fix>3d</fix>
</trkpt>
<trkpt lat="33.8103132" lon="-118.3938672">
  <ele>-0.121</ele>
  <time>2026-09-01T01:12:55Z</time>
  <course>186.39</course>
  <speed>0.0282842712474619</speed>
  <fix>3d</fix>
</trkpt>
<trkpt lat="33.810313" lon="-118.393867">
  <ele>-0.12</ele>
  <time>2026-09-01T01:12:55Z</time>
  <course>0.0</course>
  <speed>0.0</speed>
  <fix>3d</fix>
</trkpt>
<trkpt lat="33.8103132" lon="-118.3938672">
  <ele>-0.12</ele>
  <time>2026-09-01T01:12:55Z</time>
  <course>186.39</course>
  <speed>0.0282842712474619</speed>
  <fix>3d</fix>
</trkpt>
<trkpt lat="33.810313" lon="-118.393867">
  <ele>-0.12</ele>
  <time>2026-09-01T01:12:55Z</time>
  <course>0.0</course>
  <speed>0.0</speed>
  <fix>3d</fix>
</trkpt>
<trkpt lat="33.8103132" lon="-118.3938672">
  <ele>-0.119</ele>
  <time>2026-09-01T01:12:55Z</time>
  <course>186.38</course>
  <speed>0.0282842712474619</speed>
  <fix>3d</fix>
</trkpt>
<trkpt lat="33.810313" lon="-118.393867">
  <ele>-0.12</ele>
  <time>2026-09-01T01:12:55Z</time>
  <course>0.0</course>
  <speed>0.0</speed>
  <fix>3d</fix>
</trkpt>
<trkpt lat="33.8103132" lon="-118.3938672">
  <ele>-0.118</ele>
  <time>2026-09-01T01:12:55Z</time>
  <course>186.38</course>
  <speed>0.0282842712474619</speed>
  <fix>3d</fix>
</trkpt>
<trkpt lat="33.810313" lon="-118.393867">
  <ele>-0.12</ele>
  <time>2026-09-01T01:12:55Z</time>
  <course>0.0</course>
  <speed>0.0</speed>
  <fix>3d</fix>
</trkpt>
<trkpt lat="33.8103132" lon="-118.3938672">
  <ele>-0.118</ele>
  <time>2026-09-01T01:12:55Z</time>
  <course>186.38</course>
  <speed>0.0282842712474619</speed>
  <fix>3d</fix>
</trkpt>
<trkpt lat="33.810313" lon="-118.393867">
  <ele>-0.12</ele>
  <time>2026-09-01T01:12:55Z</time>
  <course>0.0</course>
  <speed>0.0</speed>
  <fix>3d</fix>
</trkpt>
<trkpt lat="33.8103132" lon="-118.3938672">
  <ele>-0.119</ele>
  <time>2026-09-01T01:12:55Z</time>
  <course>186.38</course>
  <speed>0.0282842712474619</speed>
  <fix>3d</fix>
</trkpt>
<trkpt lat="33.810313" lon="-118.393867">
  <ele>-0.12</ele>
  <time>2026-09-01T01:12:55Z</time>
  <course>0.0</course>
  <speed>0.0</speed>
  <fix>3d</fix>
</trkpt>
<trkpt lat="33.8103132" lon="-118.3938672">
  <ele>-0.12</ele>
  <time>2026-09-01T01:12:55Z</time>
  <course>186.38</course>
  <speed>0.0282842712474619</speed>
  <fix>3d</fix>
</trkpt>
<trkpt lat="33.810313" lon="-118.393867">
  <ele>-0.12</ele>
  <time>2026-09-01T01:12:55Z</time>
  <course>0.0</course>
  <speed>0.0</speed>
  <fix>3d</fix>
</trkpt>
<trkpt lat="33.8103132" lon="-118.3938672">
  <ele>-0.121</ele>
  <time>2026-09-01T01:12:55Z</time>
  <course>186.38</course>
  <speed>0.0282842712474619</speed>
  <fix>3d</fix>
</trkpt>
<trkpt lat="33.810313" lon="-118.393867">
  <ele>-0.12</ele>
  <time>2026-09-01T01:12:55Z</time>
  <course>0.0</course>
  <speed>0.0</speed>
  <fix>3d</fix>
</trkpt>
<trkpt lat="33.8103132" lon="-118.3938672">
  <ele>-0.122</ele>
  <time>2026-09-01T01:12:55Z</time>
  <course>186.37</course>
  <speed>0.0282842712474619</speed>
  <fix>3d</fix>
</trkpt>
<trkpt lat="33.810313" lon="-118.393867">
  <ele>-0.12</ele>
  <time>2026-09-01T01:12:55Z</time>
  <course>0.0</course>
  <speed>0.0</speed>
  <fix>3d</fix>
</trkpt>
<trkpt lat="33.8103132" lon="-118.3938672">
  <ele>-0.124</ele>
  <time>2026-09-01T01:12:55Z</time>
  <course>186.37</course>
  <speed>0.0282842712474619</speed>
  <fix>3d</fix>
</trkpt>
<trkpt lat="33.810313" lon="-118.393867">
  <ele>-0.12</ele>
  <time>2026-09-01T01:12:55Z</time>
  <course>0.0</course>
  <speed>0.0</speed>
  <fix>3d</fix>
</trkpt>
<trkpt lat="33.8103132" lon="-118.3938672">
  <ele>-0.126</ele>
  <time>2026-09-01T01:12:55Z</time>
  <course>186.37</course>
  <speed>0.0282842712474619</speed>
  <fix>3d</fix>
</trkpt>
<trkpt lat="33.810313" lon="-118.393867">
  <ele>-0.12</ele>
  <time>2026-09-01T01:12:55Z</time>
  <course>0.0</course>
  <speed>0.0</speed>
  <fix>3d</fix>
</trkpt>
<trkpt lat="33.8103132" lon="-118.3938672">
  <ele>-0.127</ele>
  <time>2026-09-01T01:12:55Z</time>
  <course>186.37</course>
  <speed>0.0282842712474619</speed>
  <fix>3d</fix>
</trkpt>
<trkpt lat="33.810313" lon="-118.393867">
  <ele>-0.12</ele>
  <time>2026-09-01T01:12:55Z</time>
  <course>0.0</course>
  <speed>0.0</speed>
  <fix>3d</fix>
</trkpt>
<trkpt lat="33.8103132" lon="-118.3938672">
  <ele>-0.128</ele>
  <time>2026-09-01T01:12:55Z</time>
  <course>186.37</course>
  <speed>0.0282842712474619</speed>
  <fix>3d</fix>
</trkpt>
<trkpt lat="33.810313" lon="-118.393867">
  <ele>-0.12</ele>
  <time>2026-09-01T01:12:55Z</time>
  <course>0.0</course>
  <speed>0.0</speed>
  <fix>3d</fix>
</trkpt>
<trkpt lat="33.8103132" lon="-118.3938672">
  <ele>-0.129</ele>
  <time>2026-09-01T01:12:55Z</time>
  <course>186.37</course>
  <speed>0.0282842712474619</speed>
  <fix>3d</fix>
</trkpt>
<trkpt lat="33.810313" lon="-118.393867">
  <ele>-0.12</ele>
  <time>2026-09-01T01:12:55Z</time>
  <course>0.0</course>
  <speed>0.0</speed>
  <fix>3d</fix>
</trkpt>
<trkpt lat="33.8103132" lon="-118.3938672">
  <ele>-0.131</ele>
  <time>2026-09-01T01:12:55Z</time>
  <course>186.36</course>
  <speed>0.0282842712474619</speed>
  <fix>3d</fix>
</trkpt>
<trkpt lat="33.810313" lon="-118.393867">
  <ele>-0.12</ele>
  <time>2026-09-01T01:12:55Z</time>
  <course>0.0</course>
  <speed>0.0</speed>
  <fix>3d</fix>
</trkpt>
<trkpt lat="33.8103132" lon="-118.3938672">
  <ele>-0.132</ele>
  <time>2026-09-01T01:12:55Z</time>
  <course>186.36</course>
  <speed>0.0282842712474619</speed>
  <fix>3d</fix>
</trkpt>
<trkpt lat="33.810313" lon="-118.393867">
  <ele>-0.12</ele>
  <time>2026-09-01T01:12:55Z</time>
  <course>0.0</course>
  <speed>0.0</speed>
  <fix>3d</fix>
</trkpt>
<trkpt lat="33.8103132" lon="-118.3938672">
  <ele>-0.134</ele>
  <time>2026-09-01T01:12:55Z</time>
  <course>186.36</course>
  <speed>0.0282842712474619</speed>
  <fix>3d</fix>
</trkpt>
<trkpt lat="33.810313" lon="-118.393867">
  <ele>-0.12</ele>
  <time>2026-09-01T01:12:55Z</time>
  <course>0.0</course>
  <speed>0.0</speed>
  <fix>3d</fix>
</trkpt>
<trkpt lat="33.8103132" lon="-118.3938672">
  <ele>-0.136</ele>
  <time>2026-09-01T01:12:55Z</time>
  <course>186.36</course>
  <speed>0.0282842712474619</speed>
  <fix>3d</fix>
</trkpt>
<trkpt lat="33.810313" lon="-118.393867">
  <ele>-0.12</ele>
  <time>2026-09-01T01:12:55Z</time>
  <course>0.0</course>
  <speed>0.0</speed>
  <fix>3d</fix>
</trkpt>
<trkpt lat="33.8103132" lon="-118.3938672">
  <ele>-0.137</ele>
  <time>2026-09-01T01:12:55Z</time>
  <course>186.36</course>
  <speed>0.0282842712474619</speed>
  <fix>3d</fix>
</trkpt>
<trkpt lat="33.810313" lon="-118.393867">
  <ele>-0.12</ele>
  <time>2026-09-01T01:12:55Z</time>
  <course>0.0</course>
  <speed>0.0</speed>
  <fix>3d</fix>
</trkpt>
<trkpt lat="33.8103132" lon="-118.3938672">
  <ele>-0.137</ele>
  <time>2026-09-01T01:12:55Z</time>
  <course>186.36</course>
  <speed>0.0282842712474619</speed>
  <fix>3d</fix>
</trkpt>
<trkpt lat="33.810313" lon="-118.393867">
  <ele>-0.12</ele>
  <time>2026-09-01T01:12:55Z</time>
  <course>0.0</course>
  <speed>0.0</speed>
  <fix>3d</fix>
</trkpt>
<trkpt lat="33.8103132" lon="-118.3938672">
  <ele>-0.137</ele>
  <time>2026-09-01T01:12:55Z</time>
  <course>186.35</course>
  <speed>0.0282842712474619</speed>
  <fix>3d</fix>
</trkpt>
<trkpt lat="33.810313" lon="-118.393867">
  <ele>-0.12</ele>
  <time>2026-09-01T01:12:55Z</time>
  <course>0.0</course>
  <speed>0.0</speed>
  <fix>3d</fix>
</trkpt>
<trkpt lat="33.8103132" lon="-118.3938672">
  <ele>-0.136</ele>
  <time>2026-09-01T01:12:55Z</time>
  <course>186.35</course>
  <speed>0.0282842712474619</speed>
  <fix>3d</fix>
</trkpt>
<trkpt lat="33.810313" lon="-118.393867">
  <ele>-0.12</ele>
  <time>2026-09-01T01:12:55Z</time>
  <course>0.0</course>
  <speed>0.0</speed>
  <fix>3d</fix>
</trkpt>
<trkpt lat="33.8103132" lon="-118.3938672">
  <ele>-0.134</ele>
  <time>2026-09-01T01:12:55Z</time>
  <course>186.35</course>
  <speed>0.0282842712474619</speed>
  <fix>3d</fix>
</trkpt>
<trkpt lat="33.810313" lon="-118.393867">
  <ele>-0.12</ele>
  <time>2026-09-01T01:12:55Z</time>
  <course>0.0</course>
  <speed>0.0</speed>
  <fix>3d</fix>
</trkpt>
<trkpt lat="33.8103132" lon="-118.3938672">
  <ele>-0.133</ele>
  <time>2026-09-01T01:12:55Z</time>
  <course>186.35</course>
  <speed>0.0282842712474619</speed>
  <fix>3d</fix>
</trkpt>
<trkpt lat="33.810313" lon="-118.393867">
  <ele>-0.12</ele>
  <time>2026-09-01T01:12:55Z</time>
  <course>0.0</course>
  <speed>0.0</speed>
  <fix>3d</fix>
</trkpt>
<trkpt lat="33.8103132" lon="-118.3938672">
  <ele>-0.133</ele>
  <time>2026-09-01T01:12:55Z</time>
  <course>186.35</course>
  <speed>0.0282842712474619</speed>
  <fix>3d</fix>
</trkpt>
<trkpt lat="33.810313" lon="-118.393867">
  <ele>-0.12</ele>
  <time>2026-09-01T01:12:55Z</time>
  <course>0.0</course>
  <speed>0.0</speed>
  <fix>3d</fix>
</trkpt>
<trkpt lat="33.8103132" lon="-118.3938672">
  <ele>-0.132</ele>
  <time>2026-09-01T01:12:55Z</time>
  <course>186.35</course>
  <speed>0.0282842712474619</speed>
  <fix>3d</fix>
</trkpt>
<trkpt lat="33.810313" lon="-118.393867">
  <ele>-0.12</ele>
  <time>2026-09-01T01:12:55Z</time>
  <course>0.0</course>
  <speed>0.0</speed>
  <fix>3d</fix>
</trkpt>
<trkpt lat="33.8103132" lon="-118.3938672">
  <ele>-0.132</ele>
  <time>2026-09-01T01:12:55Z</time>
  <course>186.34</course>
  <speed>0.0282842712474619</speed>
  <fix>3d</fix>
</trkpt>
<trkpt lat="33.810313" lon="-118.393867">
  <ele>-0.12</ele>
  <time>2026-09-01T01:12:55Z</time>
  <course>0.0</course>
  <speed>0.0</speed>
  <fix>3d</fix>
</trkpt>
<trkpt lat="33.8103132" lon="-118.3938672">
  <ele>-0.132</ele>
  <time>2026-09-01T01:12:55Z</time>
  <course>186.34</course>
  <speed>0.0282842712474619</speed>
  <fix>3d</fix>
</trkpt>
<trkpt lat="33.810313" lon="-118.393867">
  <ele>-0.12</ele>
  <time>2026-09-01T01:12:55Z</time>
  <course>0.0</course>
  <speed>0.0</speed>
  <fix>3d</fix>
</trkpt>
<trkpt lat="33.8103132" lon="-118.3938672">
  <ele>-0.132</ele>
  <time>2026-09-01T01:12:55Z</time>
  <course>186.34</course>
  <speed>0.0282842712474619</speed>
  <fix>3d</fix>
</trkpt>
<trkpt lat="33.810313" lon="-118.393867">
  <ele>-0.12</ele>
  <time>2026-09-01T01:12:55Z</time>
  <course>0.0</course>
  <speed>0.0</speed>
  <fix>3d</fix>
</trkpt>
<trkpt lat="33.8103132" lon="-118.3938672">
  <ele>-0.132</ele>
  <time>2026-09-01T01:12:55Z</time>
  <course>186.34</course>
  <speed>0.0282842712474619</speed>
  <fix>3d</fix>
</trkpt>
<trkpt lat="33.810313" lon="-118.393867">
  <ele>-0.12</ele>
  <time>2026-09-01T01:12:55Z</time>
  <course>0.0</course>
  <speed>0.0</speed>
  <fix>3d</fix>
</trkpt>
<trkpt lat="33.8103132" lon="-118.3938672">
  <ele>-0.132</ele>
  <time>2026-09-01T01:12:55Z</time>
  <course>186.34</course>
  <speed>0.0282842712474619</speed>
  <fix>3d</fix>
</trkpt>
<trkpt lat="33.810313" lon="-118.393867">
  <ele>-0.12</ele>
  <time>2026-09-01T01:12:55Z</time>
  <course>0.0</course>
  <speed>0.0</speed>
  <fix>3d</fix>
</trkpt>
<trkpt lat="33.8103132" lon="-118.3938672">
  <ele>-0.131</ele>
  <time>2026-09-01T01:12:55Z</time>
  <course>186.34</course>
  <speed>0.0282842712474619</speed>
  <fix>3d</fix>
</trkpt>
<trkpt lat="33.810313" lon="-118.393867">
  <ele>-0.12</ele>
  <time>2026-09-01T01:12:55Z</time>
  <course>0.0</course>
  <speed>0.0</speed>
  <fix>3d</fix>
</trkpt>
<trkpt lat="33.8103132" lon="-118.3938672">
  <ele>-0.13</ele>
  <time>2026-09-01T01:12:55Z</time>
  <course>186.34</course>
  <speed>0.0282842712474619</speed>
  <fix>3d</fix>
</trkpt>
<trkpt lat="33.810313" lon="-118.393867">
  <ele>-0.12</ele>
  <time>2026-09-01T01:12:55Z</time>
  <course>0.0</course>
  <speed>0.0</speed>
  <fix>3d</fix>
</trkpt>
<trkpt lat="33.8103132" lon="-118.3938672">
  <ele>-0.129</ele>
  <time>2026-09-01T01:12:55Z</time>
  <course>186.33</course>
  <speed>0.0282842712474619</speed>
  <fix>3d</fix>
</trkpt>
<trkpt lat="33.810313" lon="-118.393867">
  <ele>-0.12</ele>
  <time>2026-09-01T01:12:55Z</time>
  <course>0.0</course>
  <speed>0.0</speed>
  <fix>3d</fix>
</trkpt>
<trkpt lat="33.8103132" lon="-118.3938672">
  <ele>-0.127</ele>
  <time>2026-09-01T01:12:55Z</time>
  <course>186.33</course>
  <speed>0.0282842712474619</speed>
  <fix>3d</fix>
</trkpt>
<trkpt lat="33.810313" lon="-118.393867">
  <ele>-0.12</ele>
  <time>2026-09-01T01:12:55Z</time>
  <course>0.0</course>
  <speed>0.0</speed>
  <fix>3d</fix>
</trkpt>
<trkpt lat="33.8103132" lon="-118.3938672">
  <ele>-0.125</ele>
  <time>2026-09-01T01:12:55Z</time>
  <course>186.33</course>
  <speed>0.0282842712474619</speed>
  <fix>3d</fix>
</trkpt>
<trkpt lat="33.810313" lon="-118.393867">
  <ele>-0.12</ele>
  <time>2026-09-01T01:12:55Z</time>
  <course>0.0</course>
  <speed>0.0</speed>
  <fix>3d</fix>
</trkpt>
<trkpt lat="33.8103132" lon="-118.3938672">
  <ele>-0.124</ele>
  <time>2026-09-01T01:12:55Z</time>
  <course>186.33</course>
  <speed>0.0282842712474619</speed>
  <fix>3d</fix>
</trkpt>
<trkpt lat="33.810313" lon="-118.393867">
  <ele>-0.12</ele>
  <time>2026-09-01T01:12:55Z</time>
  <course>0.0</course>
  <speed>0.0</speed>
  <fix>3d</fix>
</trkpt>
<trkpt lat="33.8103132" lon="-118.3938672">
  <ele>-0.123</ele>
  <time>2026-09-01T01:12:55Z</time>
  <course>186.33</course>
  <speed>0.0282842712474619</speed>
  <fix>3d</fix>
</trkpt>
<trkpt lat="33.810313" lon="-118.393867">
  <ele>-0.12</ele>
  <time>2026-09-01T01:12:55Z</time>
  <course>0.0</course>
  <speed>0.0</speed>
  <fix>3d</fix>
</trkpt>
<trkpt lat="33.8103132" lon="-118.3938672">
  <ele>-0.124</ele>
  <time>2026-09-01T01:12:55Z</time>
  <course>186.33</course>
  <speed>0.0282842712474619</speed>
  <fix>3d</fix>
</trkpt>
<trkpt lat="33.810313" lon="-118.393867">
  <ele>-0.12</ele>
  <time>2026-09-01T01:12:55Z</time>
  <course>0.0</course>
  <speed>0.0</speed>
  <fix>3d</fix>
</trkpt>
<trkpt lat="33.8103132" lon="-118.3938672">
  <ele>-0.125</ele>
  <time>2026-09-01T01:12:55Z</time>
  <course>186.32</course>
  <speed>0.0282842712474619</speed>
  <fix>3d</fix>
</trkpt>
<trkpt lat="33.810313" lon="-118.393867">
  <ele>-0.12</ele>
  <time>2026-09-01T01:12:55Z</time>
  <course>0.0</course>
  <speed>0.0</speed>
  <fix>3d</fix>
</trkpt>
<trkpt lat="33.8103132" lon="-118.3938672">
  <ele>-0.125</ele>
  <time>2026-09-01T01:12:55Z</time>
  <course>186.32</course>
  <speed>0.0282842712474619</speed>
  <fix>3d</fix>
</trkpt>
<trkpt lat="33.810313" lon="-118.393867">
  <ele>-0.12</ele>
  <time>2026-09-01T01:12:55Z</time>
  <course>0.0</course>
  <speed>0.0</speed>
  <fix>3d</fix>
</trkpt>
<trkpt lat="33.8103132" lon="-118.3938672">
  <ele>-0.125</ele>
  <time>2026-09-01T01:12:55Z</time>
  <course>186.32</course>
  <speed>0.0282842712474619</speed>
  <fix>3d</fix>
</trkpt>
<trkpt lat="33.810313" lon="-118.393867">
  <ele>-0.12</ele>
  <time>2026-09-01T01:12:55Z</time>
  <course>0.0</course>
  <speed>0.0</speed>
  <fix>3d</fix>
</trkpt>
<trkpt lat="33.8103132" lon="-118.3938672">
  <ele>-0.125</ele>
  <time>2026-09-01T01:12:55Z</time>
  <course>186.32</course>
  <speed>0.0282842712474619</speed>
  <fix>3d</fix>
</trkpt>
<trkpt lat="33.810313" lon="-118.393867">
  <ele>-0.12</ele>
  <time>2026-09-01T01:12:55Z</time>
  <course>0.0</course>
  <speed>0.0</speed>
  <fix>3d</fix>
</trkpt>
<trkpt lat="33.8103132" lon="-118.3938672">
  <ele>-0.126</ele>
  <time>2026-09-01T01:12:55Z</time>
  <course>186.32</course>
  <speed>0.0282842712474619</speed>
  <fix>3d</fix>
</trkpt>
<trkpt lat="33.810313" lon="-118.393867">
  <ele>-0.12</ele>
  <time>2026-09-01T01:12:55Z</time>
  <course>0.0</course>
  <speed>0.0</speed>
  <fix>3d</fix>
</trkpt>
<trkpt lat="33.8103132" lon="-118.3938672">
  <ele>-0.127</ele>
  <time>2026-09-01T01:12:55Z</time>
  <course>186.32</course>
  <speed>0.0282842712474619</speed>
  <fix>3d</fix>
</trkpt>
<trkpt lat="33.810313" lon="-118.393867">
  <ele>-0.12</ele>
  <time>2026-09-01T01:12:55Z</time>
  <course>0.0</course>
  <speed>0.0</speed>
  <fix>3d</fix>
</trkpt>
<trkpt lat="33.8103132" lon="-118.3938672">
  <ele>-0.129</ele>
  <time>2026-09-01T01:12:55Z</time>
  <course>186.32</course>
  <speed>0.0282842712474619</speed>
  <fix>3d</fix>
</trkpt>
<trkpt lat="33.810313" lon="-118.393867">
  <ele>-0.12</ele>
  <time>2026-09-01T01:12:55Z</time>
  <course>0.0</course>
  <speed>0.0</speed>
  <fix>3d</fix>
</trkpt>
<trkpt lat="33.8103132" lon="-118.3938672">
  <ele>-0.131</ele>
  <time>2026-09-01T01:12:55Z</time>
  <course>186.32</course>
  <speed>0.0282842712474619</speed>
  <fix>3d</fix>
</trkpt>
<trkpt lat="33.810313" lon="-118.393867">
  <ele>-0.12</ele>
  <time>2026-09-01T01:12:55Z</time>
  <course>0.0</course>
  <speed>0.0</speed>
  <fix>3d</fix>
</trkpt>
<trkpt lat="33.8103132" lon="-118.3938672">
  <ele>-0.133</ele>
  <time>2026-09-01T01:12:55Z</time>
  <course>186.31</course>
  <speed>0.0282842712474619</speed>
  <fix>3d</fix>
</trkpt>
<trkpt lat="33.810313" lon="-118.393867">
  <ele>-0.12</ele>
  <time>2026-09-01T01:12:55Z</time>
  <course>0.0</course>
  <speed>0.0</speed>
  <fix>3d</fix>
</trkpt>
<trkpt lat="33.8103132" lon="-118.3938672">
  <ele>-0.135</ele>
  <time>2026-09-01T01:12:55Z</time>
  <course>186.31</course>
  <speed>0.0282842712474619</speed>
  <fix>3d</fix>
</trkpt>
<trkpt lat="33.810313" lon="-118.393867">
  <ele>-0.12</ele>
  <time>2026-09-01T01:12:55Z</time>
  <course>0.0</course>
  <speed>0.0</speed>
  <fix>3d</fix>
</trkpt>
<trkpt lat="33.8103132" lon="-118.3938672">
  <ele>-0.136</ele>
  <time>2026-09-01T01:12:55Z</time>
  <course>186.31</course>
  <speed>0.0282842712474619</speed>
  <fix>3d</fix>
</trkpt>
<trkpt lat="33.810313" lon="-118.393867">
  <ele>-0.12</ele>
  <time>2026-09-01T01:12:55Z</time>
  <course>0.0</course>
  <speed>0.0</speed>
  <fix>3d</fix>
</trkpt>
<trkpt lat="33.8103132" lon="-118.3938672">
  <ele>-0.135</ele>
  <time>2026-09-01T01:12:55Z</time>
  <course>186.31</course>
  <speed>0.0282842712474619</speed>
  <fix>3d</fix>
</trkpt>
<trkpt lat="33.810313" lon="-118.393867">
  <ele>-0.12</ele>
  <time>2026-09-01T01:12:55Z</time>
  <course>0.0</course>
  <speed>0.0</speed>
  <fix>3d</fix>
</trkpt>
<trkpt lat="33.8103132" lon="-118.3938672">
  <ele>-0.134</ele>
  <time>2026-09-01T01:12:55Z</time>
  <course>186.31</course>
  <speed>0.0282842712474619</speed>
  <fix>3d</fix>
</trkpt>
<trkpt lat="33.810313" lon="-118.393867">
  <ele>-0.12</ele>
  <time>2026-09-01T01:12:55Z</time>
  <course>0.0</course>
  <speed>0.0</speed>
  <fix>3d</fix>
</trkpt>
<trkpt lat="33.8103132" lon="-118.3938672">
  <ele>-0.133</ele>
  <time>2026-09-01T01:12:55Z</time>
  <course>186.31</course>
  <speed>0.0282842712474619</speed>
  <fix>3d</fix>
</trkpt>
<trkpt lat="33.810313" lon="-118.393867">
  <ele>-0.12</ele>
  <time>2026-09-01T01:12:55Z</time>
  <course>0.0</course>
  <speed>0.0</speed>
  <fix>3d</fix>
</trkpt>
<trkpt lat="33.8103132" lon="-118.3938672">
  <ele>-0.131</ele>
  <time>2026-09-01T01:12:55Z</time>
  <course>186.31</course>
  <speed>0.0282842712474619</speed>
  <fix>3d</fix>
</trkpt>
<trkpt lat="33.810313" lon="-118.393867">
  <ele>-0.12</ele>
  <time>2026-09-01T01:12:55Z</time>
  <course>0.0</course>
  <speed>0.0</speed>
  <fix>3d</fix>
</trkpt>
<trkpt lat="33.8103132" lon="-118.3938672">
  <ele>-0.131</ele>
  <time>2026-09-01T01:12:55Z</time>
  <course>186.31</course>
  <speed>0.0282842712474619</speed>
  <fix>3d</fix>
</trkpt>
<trkpt lat="33.810313" lon="-118.393867">
  <ele>-0.12</ele>
  <time>2026-09-01T01:12:55Z</time>
  <course>0.0</course>
  <speed>0.0</speed>
  <fix>3d</fix>
</trkpt>
<trkpt lat="33.8103132" lon="-118.3938672">
  <ele>-0.13</ele>
  <time>2026-09-01T01:12:55Z</time>
  <course>186.3</course>
  <speed>0.0282842712474619</speed>
  <fix>3d</fix>
</trkpt>
<trkpt lat="33.810313" lon="-118.393867">
  <ele>-0.12</ele>
  <time>2026-09-01T01:12:55Z</time>
  <course>0.0</course>
  <speed>0.0</speed>
  <fix>3d</fix>
</trkpt>
<trkpt lat="33.8103132" lon="-118.3938672">
  <ele>-0.131</ele>
  <time>2026-09-01T01:12:55Z</time>
  <course>186.3</course>
  <speed>0.0282842712474619</speed>
  <fix>3d</fix>
</trkpt>
<trkpt lat="33.810313" lon="-118.393867">
  <ele>-0.12</ele>
  <time>2026-09-01T01:12:55Z</time>
  <course>0.0</course>
  <speed>0.0</speed>
  <fix>3d</fix>
</trkpt>
<trkpt lat="33.8103132" lon="-118.3938672">
  <ele>-0.131</ele>
  <time>2026-09-01T01:12:55Z</time>
  <course>186.3</course>
  <speed>0.0282842712474619</speed>
  <fix>3d</fix>
</trkpt>
<trkpt lat="33.810313" lon="-118.393867">
  <ele>-0.12</ele>
  <time>2026-09-01T01:12:55Z</time>
  <course>0.0</course>
  <speed>0.0</speed>
  <fix>3d</fix>
</trkpt>
<trkpt lat="33.8103132" lon="-118.3938672">
  <ele>-0.131</ele>
  <time>2026-09-01T01:12:55Z</time>
  <course>186.3</course>
  <speed>0.0282842712474619</speed>
  <fix>3d</fix>
</trkpt>
<trkpt lat="33.810313" lon="-118.393867">
  <ele>-0.12</ele>
  <time>2026-09-01T01:12:55Z</time>
  <course>0.0</course>
  <speed>0.0</speed>
  <fix>3d</fix>
</trkpt>
<trkpt lat="33.8103132" lon="-118.3938672">
  <ele>-0.131</ele>
  <time>2026-09-01T01:12:55Z</time>
  <course>186.3</course>
  <speed>0.0282842712474619</speed>
  <fix>3d</fix>
</trkpt>
<trkpt lat="33.810313" lon="-118.393867">
  <ele>-0.12</ele>
  <time>2026-09-01T01:12:55Z</time>
  <course>0.0</course>
  <speed>0.0</speed>
  <fix>3d</fix>
</trkpt>
<trkpt lat="33.8103132" lon="-118.3938672">
  <ele>-0.131</ele>
  <time>2026-09-01T01:12:55Z</time>
  <course>186.3</course>
  <speed>0.0282842712474619</speed>
  <fix>3d</fix>
</trkpt>
<trkpt lat="33.810313" lon="-118.393867">
  <ele>-0.12</ele>
  <time>2026-09-01T01:12:55Z</time>
  <course>0.0</course>
  <speed>0.0</speed>
  <fix>3d</fix>
</trkpt>
<trkpt lat="33.8103132" lon="-118.3938672">
  <ele>-0.13</ele>
  <time>2026-09-01T01:12:55Z</time>
  <course>186.3</course>
  <speed>0.0282842712474619</speed>
  <fix>3d</fix>
</trkpt>
<trkpt lat="33.810313" lon="-118.393867">
  <ele>-0.12</ele>
  <time>2026-09-01T01:12:55Z</time>
  <course>0.0</course>
  <speed>0.0</speed>
  <fix>3d</fix>
</trkpt>
<trkpt lat="33.8103132" lon="-118.3938672">
  <ele>-0.13</ele>
  <time>2026-09-01T01:12:55Z</time>
  <course>186.29</course>
  <speed>0.0282842712474619</speed>
  <fix>3d</fix>
</trkpt>
<trkpt lat="33.810313" lon="-118.393867">
  <ele>-0.12</ele>
  <time>2026-09-01T01:12:55Z</time>
  <course>0.0</course>
  <speed>0.0</speed>
  <fix>3d</fix>
</trkpt>
<trkpt lat="33.8103132" lon="-118.3938672">
  <ele>-0.13</ele>
  <time>2026-09-01T01:12:55Z</time>
  <course>186.29</course>
  <speed>0.0282842712474619</speed>
  <fix>3d</fix>
</trkpt>
<trkpt lat="33.810313" lon="-118.393867">
  <ele>-0.12</ele>
  <time>2026-09-01T01:12:55Z</time>
  <course>0.0</course>
  <speed>0.0</speed>
  <fix>3d</fix>
</trkpt>
<trkpt lat="33.8103132" lon="-118.3938672">
  <ele>-0.129</ele>
  <time>2026-09-01T01:12:55Z</time>
  <course>186.29</course>
  <speed>0.0282842712474619</speed>
  <fix>3d</fix>
</trkpt>
<trkpt lat="33.810313" lon="-118.393867">
  <ele>-0.12</ele>
  <time>2026-09-01T01:12:55Z</time>
  <course>0.0</course>
  <speed>0.0</speed>
  <fix>3d</fix>
</trkpt>
<trkpt lat="33.8103132" lon="-118.3938672">
  <ele>-0.128</ele>
  <time>2026-09-01T01:12:55Z</time>
  <course>186.29</course>
  <speed>0.0282842712474619</speed>
  <fix>3d</fix>
</trkpt>
<trkpt lat="33.810313" lon="-118.393867">
  <ele>-0.12</ele>
  <time>2026-09-01T01:12:55Z</time>
  <course>0.0</course>
  <speed>0.0</speed>
  <fix>3d</fix>
</trkpt>
<trkpt lat="33.8103132" lon="-118.3938672">
  <ele>-0.127</ele>
  <time>2026-09-01T01:12:55Z</time>
  <course>186.29</course>
  <speed>0.0282842712474619</speed>
  <fix>3d</fix>
</trkpt>
<trkpt lat="33.810313" lon="-118.393867">
  <ele>-0.12</ele>
  <time>2026-09-01T01:12:55Z</time>
  <course>0.0</course>
  <speed>0.0</speed>
  <fix>3d</fix>
</trkpt>
<trkpt lat="33.8103132" lon="-118.3938672">
  <ele>-0.127</ele>
  <time>2026-09-01T01:12:55Z</time>
  <course>186.29</course>
  <speed>0.0282842712474619</speed>
  <fix>3d</fix>
</trkpt>
<trkpt lat="33.810313" lon="-118.393867">
  <ele>-0.12</ele>
  <time>2026-09-01T01:12:55Z</time>
  <course>0.0</course>
  <speed>0.0</speed>
  <fix>3d</fix>
</trkpt>
<trkpt lat="33.8103132" lon="-118.3938672">
  <ele>-0.128</ele>
  <time>2026-09-01T01:12:55Z</time>
  <course>186.29</course>
  <speed>0.0282842712474619</speed>
  <fix>3d</fix>
</trkpt>
<trkpt lat="33.810313" lon="-118.393867">
  <ele>-0.12</ele>
  <time>2026-09-01T01:12:55Z</time>
  <course>0.0</course>
  <speed>0.0</speed>
  <fix>3d</fix>
</trkpt>
<trkpt lat="33.8103132" lon="-118.3938672">
  <ele>-0.129</ele>
  <time>2026-09-01T01:12:55Z</time>
  <course>186.29</course>
  <speed>0.0282842712474619</speed>
  <fix>3d</fix>
</trkpt>
<trkpt lat="33.810313" lon="-118.393867">
  <ele>-0.12</ele>
  <time>2026-09-01T01:12:55Z</time>
  <course>0.0</course>
  <speed>0.0</speed>
  <fix>3d</fix>
</trkpt>
<trkpt lat="33.8103132" lon="-118.3938672">
  <ele>-0.129</ele>
  <time>2026-09-01T01:12:55Z</time>
  <course>186.28</course>
  <speed>0.0282842712474619</speed>
  <fix>3d</fix>
</trkpt>
<trkpt lat="33.810313" lon="-118.393867">
  <ele>-0.12</ele>
  <time>2026-09-01T01:12:55Z</time>
  <course>0.0</course>
  <speed>0.0</speed>
  <fix>3d</fix>
</trkpt>
<trkpt lat="33.8103132" lon="-118.3938672">
  <ele>-0.128</ele>
  <time>2026-09-01T01:12:55Z</time>
  <course>186.28</course>
  <speed>0.0282842712474619</speed>
  <fix>3d</fix>
</trkpt>
<trkpt lat="33.810313" lon="-118.393867">
  <ele>-0.12</ele>
  <time>2026-09-01T01:12:55Z</time>
  <course>0.0</course>
  <speed>0.0</speed>
  <fix>3d</fix>
</trkpt>
<trkpt lat="33.8103132" lon="-118.3938672">
  <ele>-0.128</ele>
  <time>2026-09-01T01:12:55Z</time>
  <course>186.28</course>
  <speed>0.0282842712474619</speed>
  <fix>3d</fix>
</trkpt>
<trkpt lat="33.810313" lon="-118.393867">
  <ele>-0.12</ele>
  <time>2026-09-01T01:12:55Z</time>
  <course>0.0</course>
  <speed>0.0</speed>
  <fix>3d</fix>
</trkpt>
<trkpt lat="33.8103132" lon="-118.3938672">
  <ele>-0.127</ele>
  <time>2026-09-01T01:12:55Z</time>
  <course>186.28</course>
  <speed>0.0282842712474619</speed>
  <fix>3d</fix>
</trkpt>
<trkpt lat="33.810313" lon="-118.393867">
  <ele>-0.12</ele>
  <time>2026-09-01T01:12:55Z</time>
  <course>0.0</course>
  <speed>0.0</speed>
  <fix>3d</fix>
</trkpt>
<trkpt lat="33.8103132" lon="-118.3938672">
  <ele>-0.126</ele>
  <time>2026-09-01T01:12:55Z</time>
  <course>186.28</course>
  <speed>0.0282842712474619</speed>
  <fix>3d</fix>
</trkpt>
<trkpt lat="33.810313" lon="-118.393867">
  <ele>-0.12</ele>
  <time>2026-09-01T01:12:55Z</time>
  <course>0.0</course>
  <speed>0.0</speed>
  <fix>3d</fix>
</trkpt>
<trkpt lat="33.8103132" lon="-118.3938672">
  <ele>-0.124</ele>
  <time>2026-09-01T01:12:55Z</time>
  <course>186.28</course>
  <speed>0.0282842712474619</speed>
  <fix>3d</fix>
</trkpt>
<trkpt lat="33.810313" lon="-118.393867">
  <ele>-0.12</ele>
  <time>2026-09-01T01:12:55Z</time>
  <course>0.0</course>
  <speed>0.0</speed>
  <fix>3d</fix>
</trkpt>
<trkpt lat="33.8103132" lon="-118.3938672">
  <ele>-0.122</ele>
  <time>2026-09-01T01:12:55Z</time>
  <course>186.28</course>
  <speed>0.0282842712474619</speed>
  <fix>3d</fix>
</trkpt>
<trkpt lat="33.810313" lon="-118.393867">
  <ele>-0.12</ele>
  <time>2026-09-01T01:12:55Z</time>
  <course>0.0</course>
  <speed>0.0</speed>
  <fix>3d</fix>
</trkpt>
<trkpt lat="33.8103132" lon="-118.3938672">
  <ele>-0.121</ele>
  <time>2026-09-01T01:12:55Z</time>
  <course>186.28</course>
  <speed>0.0282842712474619</speed>
  <fix>3d</fix>
</trkpt>
<trkpt lat="33.810313" lon="-118.393867">
  <ele>-0.12</ele>
  <time>2026-09-01T01:12:55Z</time>
  <course>0.0</course>
  <speed>0.0</speed>
  <fix>3d</fix>
</trkpt>
<trkpt lat="33.8103132" lon="-118.3938672">
  <ele>-0.119</ele>
  <time>2026-09-01T01:12:55Z</time>
  <course>186.27</course>
  <speed>0.0282842712474619</speed>
  <fix>3d</fix>
</trkpt>
<trkpt lat="33.810313" lon="-118.393867">
  <ele>-0.12</ele>
  <time>2026-09-01T01:12:55Z</time>
  <course>0.0</course>
  <speed>0.0</speed>
  <fix>3d</fix>
</trkpt>
<trkpt lat="33.8103132" lon="-118.3938672">
  <ele>-0.119</ele>
  <time>2026-09-01T01:12:55Z</time>
  <course>186.27</course>
  <speed>0.0282842712474619</speed>
  <fix>3d</fix>
</trkpt>
<trkpt lat="33.810313" lon="-118.393867">
  <ele>-0.12</ele>
  <time>2026-09-01T01:12:55Z</time>
  <course>0.0</course>
  <speed>0.0</speed>
  <fix>3d</fix>
</trkpt>
<trkpt lat="33.8103132" lon="-118.3938672">
  <ele>-0.119</ele>
  <time>2026-09-01T01:12:55Z</time>
  <course>186.27</course>
  <speed>0.0282842712474619</speed>
  <fix>3d</fix>
</trkpt>
<trkpt lat="33.810313" lon="-118.393867">
  <ele>-0.12</ele>
  <time>2026-09-01T01:12:55Z</time>
  <course>0.0</course>
  <speed>0.0</speed>
  <fix>3d</fix>
</trkpt>
<trkpt lat="33.8103132" lon="-118.3938672">
  <ele>-0.119</ele>
  <time>2026-09-01T01:12:55Z</time>
  <course>186.27</course>
  <speed>0.0282842712474619</speed>
  <fix>3d</fix>
</trkpt>
<trkpt lat="33.810313" lon="-118.393867">
  <ele>-0.12</ele>
  <time>2026-09-01T01:12:55Z</time>
  <course>0.0</course>
  <speed>0.0</speed>
  <fix>3d</fix>
</trkpt>
<trkpt lat="33.8103132" lon="-118.3938672">
  <ele>-0.118</ele>
  <time>2026-09-01T01:12:55Z</time>
  <course>186.27</course>
  <speed>0.0282842712474619</speed>
  <fix>3d</fix>
</trkpt>
<trkpt lat="33.810313" lon="-118.393867">
  <ele>-0.12</ele>
  <time>2026-09-01T01:12:55Z</time>
  <course>0.0</course>
  <speed>0.0</speed>
  <fix>3d</fix>
</trkpt>
<trkpt lat="33.8103132" lon="-118.3938672">
  <ele>-0.117</ele>
  <time>2026-09-01T01:12:55Z</time>
  <course>186.27</course>
  <speed>0.0282842712474619</speed>
  <fix>3d</fix>
</trkpt>
<trkpt lat="33.810313" lon="-118.393867">
  <ele>-0.12</ele>
  <time>2026-09-01T01:12:55Z</time>
  <course>0.0</course>
  <speed>0.0</speed>
  <fix>3d</fix>
</trkpt>
<trkpt lat="33.8103132" lon="-118.3938672">
  <ele>-0.118</ele>
  <time>2026-09-01T01:12:55Z</time>
  <course>186.27</course>
  <speed>0.0282842712474619</speed>
  <fix>3d</fix>
</trkpt>
<trkpt lat="33.810313" lon="-118.393867">
  <ele>-0.12</ele>
  <time>2026-09-01T01:12:55Z</time>
  <course>0.0</course>
  <speed>0.0</speed>
  <fix>3d</fix>
</trkpt>
<trkpt lat="33.8103132" lon="-118.3938672">
  <ele>-0.119</ele>
  <time>2026-09-01T01:12:55Z</time>
  <course>186.27</course>
  <speed>0.0282842712474619</speed>
  <fix>3d</fix>
</trkpt>
<trkpt lat="33.810313" lon="-118.393867">
  <ele>-0.12</ele>
  <time>2026-09-01T01:12:55Z</time>
  <course>0.0</course>
  <speed>0.0</speed>
  <fix>3d</fix>
</trkpt>
<trkpt lat="33.8103132" lon="-118.3938672">
  <ele>-0.121</ele>
  <time>2026-09-01T01:12:55Z</time>
  <course>186.26</course>
  <speed>0.0282842712474619</speed>
  <fix>3d</fix>
</trkpt>
<trkpt lat="33.810313" lon="-118.393867">
  <ele>-0.12</ele>
  <time>2026-09-01T01:12:55Z</time>
  <course>0.0</course>
  <speed>0.0</speed>
  <fix>3d</fix>
</trkpt>
<trkpt lat="33.8103132" lon="-118.3938672">
  <ele>-0.123</ele>
  <time>2026-09-01T01:12:55Z</time>
  <course>186.26</course>
  <speed>0.0282842712474619</speed>
  <fix>3d</fix>
</trkpt>
<trkpt lat="33.810313" lon="-118.393867">
  <ele>-0.12</ele>
  <time>2026-09-01T01:12:55Z</time>
  <course>0.0</course>
  <speed>0.0</speed>
  <fix>3d</fix>
</trkpt>
<trkpt lat="33.8103132" lon="-118.3938672">
  <ele>-0.125</ele>
  <time>2026-09-01T01:12:55Z</time>
  <course>186.26</course>
  <speed>0.0282842712474619</speed>
  <fix>3d</fix>
</trkpt>
<trkpt lat="33.810313" lon="-118.393867">
  <ele>-0.12</ele>
  <time>2026-09-01T01:12:55Z</time>
  <course>0.0</course>
  <speed>0.0</speed>
  <fix>3d</fix>
</trkpt>
<trkpt lat="33.8103132" lon="-118.3938672">
  <ele>-0.127</ele>
  <time>2026-09-01T01:12:55Z</time>
  <course>186.26</course>
  <speed>0.0282842712474619</speed>
  <fix>3d</fix>
</trkpt>
<trkpt lat="33.810313" lon="-118.393867">
  <ele>-0.12</ele>
  <time>2026-09-01T01:12:55Z</time>
  <course>0.0</course>
  <speed>0.0</speed>
  <fix>3d</fix>
</trkpt>
<trkpt lat="33.8103132" lon="-118.3938672">
  <ele>-0.128</ele>
  <time>2026-09-01T01:12:55Z</time>
  <course>186.26</course>
  <speed>0.0282842712474619</speed>
  <fix>3d</fix>
</trkpt>
<trkpt lat="33.810313" lon="-118.393867">
  <ele>-0.12</ele>
  <time>2026-09-01T01:12:55Z</time>
  <course>0.0</course>
  <speed>0.0</speed>
  <fix>3d</fix>
</trkpt>
<trkpt lat="33.8103132" lon="-118.3938672">
  <ele>-0.129</ele>
  <time>2026-09-01T01:12:55Z</time>
  <course>186.26</course>
  <speed>0.0282842712474619</speed>
  <fix>3d</fix>
</trkpt>
<trkpt lat="33.810313" lon="-118.393867">
  <ele>-0.12</ele>
  <time>2026-09-01T01:12:55Z</time>
  <course>0.0</course>
  <speed>0.0</speed>
  <fix>3d</fix>
</trkpt>
<trkpt lat="33.8103132" lon="-118.3938672">
  <ele>-0.13</ele>
  <time>2026-09-01T01:12:55Z</time>
  <course>186.26</course>
  <speed>0.0282842712474619</speed>
  <fix>3d</fix>
</trkpt>
<trkpt lat="33.810313" lon="-118.393867">
  <ele>-0.12</ele>
  <time>2026-09-01T01:12:55Z</time>
  <course>0.0</course>
  <speed>0.0</speed>
  <fix>3d</fix>
</trkpt>
<trkpt lat="33.8103132" lon="-118.3938672">
  <ele>-0.131</ele>
  <time>2026-09-01T01:12:55Z</time>
  <course>186.26</course>
  <speed>0.0282842712474619</speed>
  <fix>3d</fix>
</trkpt>
<trkpt lat="33.810313" lon="-118.393867">
  <ele>-0.12</ele>
  <time>2026-09-01T01:12:55Z</time>
  <course>0.0</course>
  <speed>0.0</speed>
  <fix>3d</fix>
</trkpt>
<trkpt lat="33.8103132" lon="-118.3938672">
  <ele>-0.132</ele>
  <time>2026-09-01T01:12:55Z</time>
  <course>186.26</course>
  <speed>0.0282842712474619</speed>
  <fix>3d</fix>
</trkpt>
<trkpt lat="33.810313" lon="-118.393867">
  <ele>-0.12</ele>
  <time>2026-09-01T01:12:55Z</time>
  <course>0.0</course>
  <speed>0.0</speed>
  <fix>3d</fix>
</trkpt>
<trkpt lat="33.8103132" lon="-118.3938672">
  <ele>-0.132</ele>
  <time>2026-09-01T01:12:55Z</time>
  <course>186.26</course>
  <speed>0.0282842712474619</speed>
  <fix>3d</fix>
</trkpt>
<trkpt lat="33.810313" lon="-118.393867">
  <ele>-0.12</ele>
  <time>2026-09-01T01:12:55Z</time>
  <course>0.0</course>
  <speed>0.0</speed>
  <fix>3d</fix>
</trkpt>
<trkpt lat="33.8103132" lon="-118.3938672">
  <ele>-0.132</ele>
  <time>2026-09-01T01:12:55Z</time>
  <course>186.25</course>
  <speed>0.0282842712474619</speed>
  <fix>3d</fix>
</trkpt>
<trkpt lat="33.810313" lon="-118.393867">
  <ele>-0.12</ele>
  <time>2026-09-01T01:12:55Z</time>
  <course>0.0</course>
  <speed>0.0</speed>
  <fix>3d</fix>
</trkpt>
<trkpt lat="33.8103132" lon="-118.3938672">
  <ele>-0.132</ele>
  <time>2026-09-01T01:12:55Z</time>
  <course>186.25</course>
  <speed>0.0282842712474619</speed>
  <fix>3d</fix>
</trkpt>
<trkpt lat="33.810313" lon="-118.393867">
  <ele>-0.12</ele>
  <time>2026-09-01T01:12:55Z</time>
  <course>0.0</course>
  <speed>0.0</speed>
  <fix>3d</fix>
</trkpt>
<trkpt lat="33.8103132" lon="-118.3938672">
  <ele>-0.132</ele>
  <time>2026-09-01T01:12:55Z</time>
  <course>186.25</course>
  <speed>0.0282842712474619</speed>
  <fix>3d</fix>
</trkpt>
<trkpt lat="33.810313" lon="-118.393867">
  <ele>-0.12</ele>
  <time>2026-09-01T01:12:55Z</time>
  <course>0.0</course>
  <speed>0.0</speed>
  <fix>3d</fix>
</trkpt>
<trkpt lat="33.8103132" lon="-118.3938672">
  <ele>-0.132</ele>
  <time>2026-09-01T01:12:55Z</time>
  <course>186.25</course>
  <speed>0.0282842712474619</speed>
  <fix>3d</fix>
</trkpt>
<trkpt lat="33.810313" lon="-118.393867">
  <ele>-0.12</ele>
  <time>2026-09-01T01:12:55Z</time>
  <course>0.0</course>
  <speed>0.0</speed>
  <fix>3d</fix>
</trkpt>
<trkpt lat="33.8103132" lon="-118.3938672">
  <ele>-0.132</ele>
  <time>2026-09-01T01:12:55Z</time>
  <course>186.25</course>
  <speed>0.0282842712474619</speed>
  <fix>3d</fix>
</trkpt>
<trkpt lat="33.810313" lon="-118.393867">
  <ele>-0.12</ele>
  <time>2026-09-01T01:12:55Z</time>
  <course>0.0</course>
  <speed>0.0</speed>
  <fix>3d</fix>
</trkpt>
<trkpt lat="33.8103132" lon="-118.3938672">
  <ele>-0.13</ele>
  <time>2026-09-01T01:12:55Z</time>
  <course>186.25</course>
  <speed>0.0282842712474619</speed>
  <fix>3d</fix>
</trkpt>
<trkpt lat="33.810313" lon="-118.393867">
  <ele>-0.12</ele>
  <time>2026-09-01T01:12:55Z</time>
  <course>0.0</course>
  <speed>0.0</speed>
  <fix>3d</fix>
</trkpt>
<trkpt lat="33.8103132" lon="-118.3938672">
  <ele>-0.13</ele>
  <time>2026-09-01T01:12:55Z</time>
  <course>186.25</course>
  <speed>0.0282842712474619</speed>
  <fix>3d</fix>
</trkpt>
<trkpt lat="33.810313" lon="-118.393867">
  <ele>-0.12</ele>
  <time>2026-09-01T01:12:55Z</time>
  <course>0.0</course>
  <speed>0.0</speed>
  <fix>3d</fix>
</trkpt>
<trkpt lat="33.8103132" lon="-118.3938672">
  <ele>-0.129</ele>
  <time>2026-09-01T01:12:55Z</time>
  <course>186.25</course>
  <speed>0.0282842712474619</speed>
  <fix>3d</fix>
</trkpt>
<trkpt lat="33.810313" lon="-118.393867">
  <ele>-0.12</ele>
  <time>2026-09-01T01:12:55Z</time>
  <course>0.0</course>
  <speed>0.0</speed>
  <fix>3d</fix>
</trkpt>
<trkpt lat="33.8103132" lon="-118.3938672">
  <ele>-0.128</ele>
  <time>2026-09-01T01:12:55Z</time>
  <course>186.25</course>
  <speed>0.0282842712474619</speed>
  <fix>3d</fix>
</trkpt>
<trkpt lat="33.810313" lon="-118.393867">
  <ele>-0.12</ele>
  <time>2026-09-01T01:12:55Z</time>
  <course>0.0</course>
  <speed>0.0</speed>
  <fix>3d</fix>
</trkpt>
<trkpt lat="33.8103132" lon="-118.3938672">
  <ele>-0.127</ele>
  <time>2026-09-01T01:12:55Z</time>
  <course>186.25</course>
  <speed>0.0282842712474619</speed>
  <fix>3d</fix>
</trkpt>
<trkpt lat="33.810313" lon="-118.393867">
  <ele>-0.12</ele>
  <time>2026-09-01T01:12:55Z</time>
  <course>0.0</course>
  <speed>0.0</speed>
  <fix>3d</fix>
</trkpt>
<trkpt lat="33.8103132" lon="-118.3938672">
  <ele>-0.126</ele>
  <time>2026-09-01T01:12:55Z</time>
  <course>186.24</course>
  <speed>0.0282842712474619</speed>
  <fix>3d</fix>
</trkpt>
<trkpt lat="33.810313" lon="-118.393867">
  <ele>-0.12</ele>
  <time>2026-09-01T01:12:55Z</time>
  <course>0.0</course>
  <speed>0.0</speed>
  <fix>3d</fix>
</trkpt>
<trkpt lat="33.8103132" lon="-118.3938672">
  <ele>-0.126</ele>
  <time>2026-09-01T01:12:55Z</time>
  <course>186.24</course>
  <speed>0.0282842712474619</speed>
  <fix>3d</fix>
</trkpt>
<trkpt lat="33.810313" lon="-118.393867">
  <ele>-0.12</ele>
  <time>2026-09-01T01:12:55Z</time>
  <course>0.0</course>
  <speed>0.0</speed>
  <fix>3d</fix>
</trkpt>
<trkpt lat="33.8103132" lon="-118.3938672">
  <ele>-0.127</ele>
  <time>2026-09-01T01:12:55Z</time>
  <course>186.24</course>
  <speed>0.0282842712474619</speed>
  <fix>3d</fix>
</trkpt>
<trkpt lat="33.810313" lon="-118.393867">
  <ele>-0.12</ele>
  <time>2026-09-01T01:12:55Z</time>
  <course>0.0</course>
  <speed>0.0</speed>
  <fix>3d</fix>
</trkpt>
<trkpt lat="33.8103132" lon="-118.3938672">
  <ele>-0.128</ele>
  <time>2026-09-01T01:12:55Z</time>
  <course>186.24</course>
  <speed>0.0282842712474619</speed>
  <fix>3d</fix>
</trkpt>
<trkpt lat="33.810313" lon="-118.393867">
  <ele>-0.12</ele>
  <time>2026-09-01T01:12:55Z</time>
  <course>0.0</course>
  <speed>0.0</speed>
  <fix>3d</fix>
</trkpt>
<trkpt lat="33.8103132" lon="-118.3938672">
  <ele>-0.129</ele>
  <time>2026-09-01T01:12:55Z</time>
  <course>186.24</course>
  <speed>0.0282842712474619</speed>
  <fix>3d</fix>
</trkpt>
<trkpt lat="33.810313" lon="-118.393867">
  <ele>-0.12</ele>
  <time>2026-09-01T01:12:55Z</time>
  <course>0.0</course>
  <speed>0.0</speed>
  <fix>3d</fix>
</trkpt>
<trkpt lat="33.8103132" lon="-118.3938672">
  <ele>-0.129</ele>
  <time>2026-09-01T01:12:55Z</time>
  <course>186.24</course>
  <speed>0.0282842712474619</speed>
  <fix>3d</fix>
</trkpt>
<trkpt lat="33.810313" lon="-118.393867">
  <ele>-0.12</ele>
  <time>2026-09-01T01:12:55Z</time>
  <course>0.0</course>
  <speed>0.0</speed>
  <fix>3d</fix>
</trkpt>
<trkpt lat="33.8103132" lon="-118.3938672">
  <ele>-0.128</ele>
  <time>2026-09-01T01:12:55Z</time>
  <course>186.24</course>
  <speed>0.0282842712474619</speed>
  <fix>3d</fix>
</trkpt>
<trkpt lat="33.810313" lon="-118.393867">
  <ele>-0.12</ele>
  <time>2026-09-01T01:12:55Z</time>
  <course>0.0</course>
  <speed>0.0</speed>
  <fix>3d</fix>
</trkpt>
<trkpt lat="33.8103132" lon="-118.3938672">
  <ele>-0.127</ele>
  <time>2026-09-01T01:12:55Z</time>
  <course>186.24</course>
  <speed>0.0282842712474619</speed>
  <fix>3d</fix>
</trkpt>
<trkpt lat="33.810313" lon="-118.393867">
  <ele>-0.12</ele>
  <time>2026-09-01T01:12:55Z</time>
  <course>0.0</course>
  <speed>0.0</speed>
  <fix>3d</fix>
</trkpt>
<trkpt lat="33.8103132" lon="-118.3938672">
  <ele>-0.126</ele>
  <time>2026-09-01T01:12:55Z</time>
  <course>186.24</course>
  <speed>0.0282842712474619</speed>
  <fix>3d</fix>
</trkpt>
<trkpt lat="33.810313" lon="-118.393867">
  <ele>-0.12</ele>
  <time>2026-09-01T01:12:55Z</time>
  <course>0.0</course>
  <speed>0.0</speed>
  <fix>3d</fix>
</trkpt>
<trkpt lat="33.8103132" lon="-118.3938672">
  <ele>-0.125</ele>
  <time>2026-09-01T01:12:55Z</time>
  <course>186.24</course>
  <speed>0.0282842712474619</speed>
  <fix>3d</fix>
</trkpt>
<trkpt lat="33.810313" lon="-118.393867">
  <ele>-0.12</ele>
  <time>2026-09-01T01:12:55Z</time>
  <course>0.0</course>
  <speed>0.0</speed>
  <fix>3d</fix>
</trkpt>
<trkpt lat="33.8103132" lon="-118.3938672">
  <ele>-0.125</ele>
  <time>2026-09-01T01:12:55Z</time>
  <course>186.23</course>
  <speed>0.0282842712474619</speed>
  <fix>3d</fix>
</trkpt>
<trkpt lat="33.810313" lon="-118.393867">
  <ele>-0.12</ele>
  <time>2026-09-01T01:12:55Z</time>
  <course>0.0</course>
  <speed>0.0</speed>
  <fix>3d</fix>
</trkpt>
<trkpt lat="33.8103132" lon="-118.3938672">
  <ele>-0.127</ele>
  <time>2026-09-01T01:12:55Z</time>
  <course>186.23</course>
  <speed>0.0282842712474619</speed>
  <fix>3d</fix>
</trkpt>
<trkpt lat="33.810313" lon="-118.393867">
  <ele>-0.12</ele>
  <time>2026-09-01T01:12:55Z</time>
  <course>0.0</course>
  <speed>0.0</speed>
  <fix>3d</fix>
</trkpt>
<trkpt lat="33.8103132" lon="-118.3938672">
  <ele>-0.128</ele>
  <time>2026-09-01T01:12:55Z</time>
  <course>186.23</course>
  <speed>0.0282842712474619</speed>
  <fix>3d</fix>
</trkpt>
<trkpt lat="33.810313" lon="-118.393867">
  <ele>-0.12</ele>
  <time>2026-09-01T01:12:55Z</time>
  <course>0.0</course>
  <speed>0.0</speed>
  <fix>3d</fix>
</trkpt>
<trkpt lat="33.8103132" lon="-118.3938672">
  <ele>-0.129</ele>
  <time>2026-09-01T01:12:55Z</time>
  <course>186.23</course>
  <speed>0.0282842712474619</speed>
  <fix>3d</fix>
</trkpt>
<trkpt lat="33.810313" lon="-118.393867">
  <ele>-0.12</ele>
  <time>2026-09-01T01:12:55Z</time>
  <course>0.0</course>
  <speed>0.0</speed>
  <fix>3d</fix>
</trkpt>
<trkpt lat="33.8103132" lon="-118.3938672">
  <ele>-0.13</ele>
  <time>2026-09-01T01:12:55Z</time>
  <course>186.23</course>
  <speed>0.0282842712474619</speed>
  <fix>3d</fix>
</trkpt>
<trkpt lat="33.810313" lon="-118.393867">
  <ele>-0.12</ele>
  <time>2026-09-01T01:12:55Z</time>
  <course>0.0</course>
  <speed>0.0</speed>
  <fix>3d</fix>
</trkpt>
<trkpt lat="33.8103132" lon="-118.3938672">
  <ele>-0.13</ele>
  <time>2026-09-01T01:12:55Z</time>
  <course>186.23</course>
  <speed>0.0282842712474619</speed>
  <fix>3d</fix>
</trkpt>
<trkpt lat="33.810313" lon="-118.393867">
  <ele>-0.12</ele>
  <time>2026-09-01T01:12:55Z</time>
  <course>0.0</course>
  <speed>0.0</speed>
  <fix>3d</fix>
</trkpt>
<trkpt lat="33.8103132" lon="-118.3938672">
  <ele>-0.128</ele>
  <time>2026-09-01T01:12:55Z</time>
  <course>186.23</course>
  <speed>0.0282842712474619</speed>
  <fix>3d</fix>
</trkpt>
<trkpt lat="33.810313" lon="-118.393867">
  <ele>-0.12</ele>
  <time>2026-09-01T01:12:55Z</time>
  <course>0.0</course>
  <speed>0.0</speed>
  <fix>3d</fix>
</trkpt>
<trkpt lat="33.8103132" lon="-118.3938672">
  <ele>-0.127</ele>
  <time>2026-09-01T01:12:55Z</time>
  <course>186.23</course>
  <speed>0.0282842712474619</speed>
  <fix>3d</fix>
</trkpt>
<trkpt lat="33.810313" lon="-118.393867">
  <ele>-0.12</ele>
  <time>2026-09-01T01:12:55Z</time>
  <course>0.0</course>
  <speed>0.0</speed>
  <fix>3d</fix>
</trkpt>
<trkpt lat="33.8103132" lon="-118.3938672">
  <ele>-0.125</ele>
  <time>2026-09-01T01:12:55Z</time>
  <course>186.23</course>
  <speed>0.0282842712474619</speed>
  <fix>3d</fix>
</trkpt>
<trkpt lat="33.810313" lon="-118.393867">
  <ele>-0.12</ele>
  <time>2026-09-01T01:12:55Z</time>
  <course>0.0</course>
  <speed>0.0</speed>
  <fix>3d</fix>
</trkpt>
<trkpt lat="33.8103132" lon="-118.3938672">
  <ele>-0.124</ele>
  <time>2026-09-01T01:12:55Z</time>
  <course>186.23</course>
  <speed>0.0282842712474619</speed>
  <fix>3d</fix>
</trkpt>
<trkpt lat="33.810313" lon="-118.393867">
  <ele>-0.12</ele>
  <time>2026-09-01T01:12:55Z</time>
  <course>0.0</course>
  <speed>0.0</speed>
  <fix>3d</fix>
</trkpt>
<trkpt lat="33.8103132" lon="-118.3938672">
  <ele>-0.124</ele>
  <time>2026-09-01T01:12:55Z</time>
  <course>186.22</course>
  <speed>0.0282842712474619</speed>
  <fix>3d</fix>
</trkpt>
<trkpt lat="33.810313" lon="-118.393867">
  <ele>-0.12</ele>
  <time>2026-09-01T01:12:55Z</time>
  <course>0.0</course>
  <speed>0.0</speed>
  <fix>3d</fix>
</trkpt>
<trkpt lat="33.8103132" lon="-118.3938672">
  <ele>-0.123</ele>
  <time>2026-09-01T01:12:55Z</time>
  <course>186.22</course>
  <speed>0.0282842712474619</speed>
  <fix>3d</fix>
</trkpt>
<trkpt lat="33.810313" lon="-118.393867">
  <ele>-0.12</ele>
  <time>2026-09-01T01:12:55Z</time>
  <course>0.0</course>
  <speed>0.0</speed>
  <fix>3d</fix>
</trkpt>
<trkpt lat="33.8103132" lon="-118.3938672">
  <ele>-0.123</ele>
  <time>2026-09-01T01:12:55Z</time>
  <course>186.22</course>
  <speed>0.0282842712474619</speed>
  <fix>3d</fix>
</trkpt>
<trkpt lat="33.810313" lon="-118.393867">
  <ele>-0.12</ele>
  <time>2026-09-01T01:12:55Z</time>
  <course>0.0</course>
  <speed>0.0</speed>
  <fix>3d</fix>
</trkpt>
<trkpt lat="33.8103132" lon="-118.3938672">
  <ele>-0.122</ele>
  <time>2026-09-01T01:12:55Z</time>
  <course>186.22</course>
  <speed>0.0282842712474619</speed>
  <fix>3d</fix>
</trkpt>
<trkpt lat="33.810313" lon="-118.393867">
  <ele>-0.12</ele>
  <time>2026-09-01T01:12:55Z</time>
  <course>0.0</course>
  <speed>0.0</speed>
  <fix>3d</fix>
</trkpt>
<trkpt lat="33.8103132" lon="-118.3938672">
  <ele>-0.12</ele>
  <time>2026-09-01T01:12:55Z</time>
  <course>186.22</course>
  <speed>0.0282842712474619</speed>
  <fix>3d</fix>
</trkpt>
<trkpt lat="33.810313" lon="-118.393867">
  <ele>-0.12</ele>
  <time>2026-09-01T01:12:55Z</time>
  <course>0.0</course>
  <speed>0.0</speed>
  <fix>3d</fix>
</trkpt>
<trkpt lat="33.8103132" lon="-118.3938672">
  <ele>-0.118</ele>
  <time>2026-09-01T01:12:55Z</time>
  <course>186.22</course>
  <speed>0.0282842712474619</speed>
  <fix>3d</fix>
</trkpt>
<trkpt lat="33.810313" lon="-118.393867">
  <ele>-0.12</ele>
  <time>2026-09-01T01:12:55Z</time>
  <course>0.0</course>
  <speed>0.0</speed>
  <fix>3d</fix>
</trkpt>
<trkpt lat="33.8103132" lon="-118.3938672">
  <ele>-0.116</ele>
  <time>2026-09-01T01:12:55Z</time>
  <course>186.22</course>
  <speed>0.0282842712474619</speed>
  <fix>3d</fix>
</trkpt>
<trkpt lat="33.810313" lon="-118.393867">
  <ele>-0.12</ele>
  <time>2026-09-01T01:12:55Z</time>
  <course>0.0</course>
  <speed>0.0</speed>
  <fix>3d</fix>
</trkpt>
<trkpt lat="33.8103132" lon="-118.3938672">
  <ele>-0.114</ele>
  <time>2026-09-01T01:12:55Z</time>
  <course>186.22</course>
  <speed>0.0282842712474619</speed>
  <fix>3d</fix>
</trkpt>
<trkpt lat="33.810313" lon="-118.393867">
  <ele>-0.12</ele>
  <time>2026-09-01T01:12:55Z</time>
  <course>0.0</course>
  <speed>0.0</speed>
  <fix>3d</fix>
</trkpt>
<trkpt lat="33.8103132" lon="-118.3938672">
  <ele>-0.113</ele>
  <time>2026-09-01T01:12:55Z</time>
  <course>186.22</course>
  <speed>0.0282842712474619</speed>
  <fix>3d</fix>
</trkpt>
<trkpt lat="33.810313" lon="-118.393867">
  <ele>-0.12</ele>
  <time>2026-09-01T01:12:55Z</time>
  <course>0.0</course>
  <speed>0.0</speed>
  <fix>3d</fix>
</trkpt>
<trkpt lat="33.8103132" lon="-118.3938672">
  <ele>-0.111</ele>
  <time>2026-09-01T01:12:55Z</time>
  <course>186.22</course>
  <speed>0.0282842712474619</speed>
  <fix>3d</fix>
</trkpt>
<trkpt lat="33.810313" lon="-118.393867">
  <ele>-0.12</ele>
  <time>2026-09-01T01:12:55Z</time>
  <course>0.0</course>
  <speed>0.0</speed>
  <fix>3d</fix>
</trkpt>
<trkpt lat="33.8103132" lon="-118.3938672">
  <ele>-0.11</ele>
  <time>2026-09-01T01:12:55Z</time>
  <course>186.21</course>
  <speed>0.0282842712474619</speed>
  <fix>3d</fix>
</trkpt>
<trkpt lat="33.810313" lon="-118.393867">
  <ele>-0.12</ele>
  <time>2026-09-01T01:12:55Z</time>
  <course>0.0</course>
  <speed>0.0</speed>
  <fix>3d</fix>
</trkpt>
<trkpt lat="33.8103132" lon="-118.3938672">
  <ele>-0.11</ele>
  <time>2026-09-01T01:12:55Z</time>
  <course>186.21</course>
  <speed>0.0282842712474619</speed>
  <fix>3d</fix>
</trkpt>
<trkpt lat="33.810313" lon="-118.393867">
  <ele>-0.12</ele>
  <time>2026-09-01T01:12:55Z</time>
  <course>0.0</course>
  <speed>0.0</speed>
  <fix>3d</fix>
</trkpt>
<trkpt lat="33.8103132" lon="-118.3938672">
  <ele>-0.11</ele>
  <time>2026-09-01T01:12:55Z</time>
  <course>186.21</course>
  <speed>0.0282842712474619</speed>
  <fix>3d</fix>
</trkpt>
<trkpt lat="33.810313" lon="-118.393867">
  <ele>-0.12</ele>
  <time>2026-09-01T01:12:55Z</time>
  <course>0.0</course>
  <speed>0.0</speed>
  <fix>3d</fix>
</trkpt>
<trkpt lat="33.8103132" lon="-118.3938672">
  <ele>-0.112</ele>
  <time>2026-09-01T01:12:55Z</time>
  <course>186.21</course>
  <speed>0.0282842712474619</speed>
  <fix>3d</fix>
</trkpt>
<trkpt lat="33.810313" lon="-118.393867">
  <ele>-0.12</ele>
  <time>2026-09-01T01:12:55Z</time>
  <course>0.0</course>
  <speed>0.0</speed>
  <fix>3d</fix>
</trkpt>
<trkpt lat="33.8103132" lon="-118.3938672">
  <ele>-0.114</ele>
  <time>2026-09-01T01:12:55Z</time>
  <course>186.21</course>
  <speed>0.0282842712474619</speed>
  <fix>3d</fix>
</trkpt>
<trkpt lat="33.810313" lon="-118.393867">
  <ele>-0.12</ele>
  <time>2026-09-01T01:12:55Z</time>
  <course>0.0</course>
  <speed>0.0</speed>
  <fix>3d</fix>
</trkpt>
<trkpt lat="33.8103132" lon="-118.3938672">
  <ele>-0.116</ele>
  <time>2026-09-01T01:12:55Z</time>
  <course>186.21</course>
  <speed>0.0282842712474619</speed>
  <fix>3d</fix>
</trkpt>
<trkpt lat="33.810313" lon="-118.393867">
  <ele>-0.12</ele>
  <time>2026-09-01T01:12:55Z</time>
  <course>0.0</course>
  <speed>0.0</speed>
  <fix>3d</fix>
</trkpt>
<trkpt lat="33.8103132" lon="-118.3938672">
  <ele>-0.117</ele>
  <time>2026-09-01T01:12:55Z</time>
  <course>186.21</course>
  <speed>0.0282842712474619</speed>
  <fix>3d</fix>
</trkpt>
<trkpt lat="33.810313" lon="-118.393867">
  <ele>-0.12</ele>
  <time>2026-09-01T01:12:55Z</time>
  <course>0.0</course>
  <speed>0.0</speed>
  <fix>3d</fix>
</trkpt>
<trkpt lat="33.8103132" lon="-118.3938672">
  <ele>-0.118</ele>
  <time>2026-09-01T01:12:55Z</time>
  <course>186.21</course>
  <speed>0.0282842712474619</speed>
  <fix>3d</fix>
</trkpt>
<trkpt lat="33.810313" lon="-118.393867">
  <ele>-0.12</ele>
  <time>2026-09-01T01:12:55Z</time>
  <course>0.0</course>
  <speed>0.0</speed>
  <fix>3d</fix>
</trkpt>
<trkpt lat="33.8103132" lon="-118.3938672">
  <ele>-0.118</ele>
  <time>2026-09-01T01:12:55Z</time>
  <course>186.21</course>
  <speed>0.0282842712474619</speed>
  <fix>3d</fix>
</trkpt>
<trkpt lat="33.810313" lon="-118.393867">
  <ele>-0.12</ele>
  <time>2026-09-01T01:12:55Z</time>
  <course>0.0</course>
  <speed>0.0</speed>
  <fix>3d</fix>
</trkpt>
<trkpt lat="33.8103132" lon="-118.3938672">
  <ele>-0.117</ele>
  <time>2026-09-01T01:12:55Z</time>
  <course>186.21</course>
  <speed>0.0282842712474619</speed>
  <fix>3d</fix>
</trkpt>
<trkpt lat="33.810313" lon="-118.393867">
  <ele>-0.12</ele>
  <time>2026-09-01T01:12:55Z</time>
  <course>0.0</course>
  <speed>0.0</speed>
  <fix>3d</fix>
</trkpt>
<trkpt lat="33.8103132" lon="-118.3938672">
  <ele>-0.118</ele>
  <time>2026-09-01T01:12:55Z</time>
  <course>186.21</course>
  <speed>0.0282842712474619</speed>
  <fix>3d</fix>
</trkpt>
<trkpt lat="33.810313" lon="-118.393867">
  <ele>-0.12</ele>
  <time>2026-09-01T01:12:55Z</time>
  <course>0.0</course>
  <speed>0.0</speed>
  <fix>3d</fix>
</trkpt>
<trkpt lat="33.8103132" lon="-118.3938672">
  <ele>-0.12</ele>
  <time>2026-09-01T01:12:55Z</time>
  <course>186.2</course>
  <speed>0.0282842712474619</speed>
  <fix>3d</fix>
</trkpt>
<trkpt lat="33.810313" lon="-118.393867">
  <ele>-0.12</ele>
  <time>2026-09-01T01:12:55Z</time>
  <course>0.0</course>
  <speed>0.0</speed>
  <fix>3d</fix>
</trkpt>
<trkpt lat="33.8103132" lon="-118.3938672">
  <ele>-0.122</ele>
  <time>2026-09-01T01:12:55Z</time>
  <course>186.2</course>
  <speed>0.0282842712474619</speed>
  <fix>3d</fix>
</trkpt>
<trkpt lat="33.810313" lon="-118.393867">
  <ele>-0.12</ele>
  <time>2026-09-01T01:12:55Z</time>
  <course>0.0</course>
  <speed>0.0</speed>
  <fix>3d</fix>
</trkpt>
<trkpt lat="33.8103132" lon="-118.3938672">
  <ele>-0.124</ele>
  <time>2026-09-01T01:12:55Z</time>
  <course>186.2</course>
  <speed>0.0282842712474619</speed>
  <fix>3d</fix>
</trkpt>
<trkpt lat="33.810313" lon="-118.393867">
  <ele>-0.12</ele>
  <time>2026-09-01T01:12:55Z</time>
  <course>0.0</course>
  <speed>0.0</speed>
  <fix>3d</fix>
</trkpt>
<trkpt lat="33.8103132" lon="-118.3938672">
  <ele>-0.125</ele>
  <time>2026-09-01T01:12:55Z</time>
  <course>186.2</course>
  <speed>0.0282842712474619</speed>
  <fix>3d</fix>
</trkpt>
<trkpt lat="33.810313" lon="-118.393867">
  <ele>-0.12</ele>
  <time>2026-09-01T01:12:55Z</time>
  <course>0.0</course>
  <speed>0.0</speed>
  <fix>3d</fix>
</trkpt>
<trkpt lat="33.8103132" lon="-118.3938672">
  <ele>-0.125</ele>
  <time>2026-09-01T01:12:55Z</time>
  <course>186.2</course>
  <speed>0.0282842712474619</speed>
  <fix>3d</fix>
</trkpt>
<trkpt lat="33.810313" lon="-118.393867">
  <ele>-0.12</ele>
  <time>2026-09-01T01:12:55Z</time>
  <course>0.0</course>
  <speed>0.0</speed>
  <fix>3d</fix>
</trkpt>
<trkpt lat="33.8103132" lon="-118.3938672">
  <ele>-0.125</ele>
  <time>2026-09-01T01:12:55Z</time>
  <course>186.2</course>
  <speed>0.0282842712474619</speed>
  <fix>3d</fix>
</trkpt>
<trkpt lat="33.810313" lon="-118.393867">
  <ele>-0.12</ele>
  <time>2026-09-01T01:12:55Z</time>
  <course>0.0</course>
  <speed>0.0</speed>
  <fix>3d</fix>
</trkpt>
<trkpt lat="33.8103132" lon="-118.3938672">
  <ele>-0.125</ele>
  <time>2026-09-01T01:12:55Z</time>
  <course>186.2</course>
  <speed>0.0282842712474619</speed>
  <fix>3d</fix>
</trkpt>
<trkpt lat="33.810313" lon="-118.393867">
  <ele>-0.12</ele>
  <time>2026-09-01T01:12:55Z</time>
  <course>0.0</course>
  <speed>0.0</speed>
  <fix>3d</fix>
</trkpt>
<trkpt lat="33.8103132" lon="-118.3938672">
  <ele>-0.124</ele>
  <time>2026-09-01T01:12:55Z</time>
  <course>186.2</course>
  <speed>0.0282842712474619</speed>
  <fix>3d</fix>
</trkpt>
<trkpt lat="33.810313" lon="-118.393867">
  <ele>-0.12</ele>
  <time>2026-09-01T01:12:55Z</time>
  <course>0.0</course>
  <speed>0.0</speed>
  <fix>3d</fix>
</trkpt>
<trkpt lat="33.8103132" lon="-118.3938672">
  <ele>-0.123</ele>
  <time>2026-09-01T01:12:55Z</time>
  <course>186.2</course>
  <speed>0.0282842712474619</speed>
  <fix>3d</fix>
</trkpt>
<trkpt lat="33.810313" lon="-118.393867">
  <ele>-0.12</ele>
  <time>2026-09-01T01:12:55Z</time>
  <course>0.0</course>
  <speed>0.0</speed>
  <fix>3d</fix>
</trkpt>
<trkpt lat="33.8103132" lon="-118.3938672">
  <ele>-0.123</ele>
  <time>2026-09-01T01:12:55Z</time>
  <course>186.2</course>
  <speed>0.0282842712474619</speed>
  <fix>3d</fix>
</trkpt>
<trkpt lat="33.810313" lon="-118.393867">
  <ele>-0.12</ele>
  <time>2026-09-01T01:12:55Z</time>
  <course>0.0</course>
  <speed>0.0</speed>
  <fix>3d</fix>
</trkpt>
<trkpt lat="33.8103132" lon="-118.3938672">
  <ele>-0.123</ele>
  <time>2026-09-01T01:12:55Z</time>
  <course>186.2</course>
  <speed>0.0282842712474619</speed>
  <fix>3d</fix>
</trkpt>
<trkpt lat="33.810313" lon="-118.393867">
  <ele>-0.12</ele>
  <time>2026-09-01T01:12:55Z</time>
  <course>0.0</course>
  <speed>0.0</speed>
  <fix>3d</fix>
</trkpt>
<trkpt lat="33.8103132" lon="-118.3938672">
  <ele>-0.124</ele>
  <time>2026-09-01T01:12:55Z</time>
  <course>186.2</course>
  <speed>0.0282842712474619</speed>
  <fix>3d</fix>
</trkpt>
<trkpt lat="33.810313" lon="-118.393867">
  <ele>-0.12</ele>
  <time>2026-09-01T01:12:55Z</time>
  <course>0.0</course>
  <speed>0.0</speed>
  <fix>3d</fix>
</trkpt>
<trkpt lat="33.8103132" lon="-118.3938672">
  <ele>-0.125</ele>
  <time>2026-09-01T01:12:55Z</time>
  <course>186.2</course>
  <speed>0.0282842712474619</speed>
  <fix>3d</fix>
</trkpt>
<trkpt lat="33.810313" lon="-118.393867">
  <ele>-0.12</ele>
  <time>2026-09-01T01:12:55Z</time>
  <course>0.0</course>
  <speed>0.0</speed>
  <fix>3d</fix>
</trkpt>
<trkpt lat="33.8103132" lon="-118.3938672">
  <ele>-0.125</ele>
  <time>2026-09-01T01:12:55Z</time>
  <course>186.19</course>
  <speed>0.0282842712474619</speed>
  <fix>3d</fix>
</trkpt>
<trkpt lat="33.810313" lon="-118.393867">
  <ele>-0.12</ele>
  <time>2026-09-01T01:12:55Z</time>
  <course>0.0</course>
  <speed>0.0</speed>
  <fix>3d</fix>
</trkpt>
<trkpt lat="33.8103132" lon="-118.3938672">
  <ele>-0.125</ele>
  <time>2026-09-01T01:12:55Z</time>
  <course>186.19</course>
  <speed>0.0282842712474619</speed>
  <fix>3d</fix>
</trkpt>
<trkpt lat="33.810313" lon="-118.393867">
  <ele>-0.12</ele>
  <time>2026-09-01T01:12:55Z</time>
  <course>0.0</course>
  <speed>0.0</speed>
  <fix>3d</fix>
</trkpt>
<trkpt lat="33.8103132" lon="-118.3938672">
  <ele>-0.125</ele>
  <time>2026-09-01T01:12:55Z</time>
  <course>186.19</course>
  <speed>0.0282842712474619</speed>
  <fix>3d</fix>
</trkpt>
<trkpt lat="33.810313" lon="-118.393867">
  <ele>-0.12</ele>
  <time>2026-09-01T01:12:55Z</time>
  <course>0.0</course>
  <speed>0.0</speed>
  <fix>3d</fix>
</trkpt>
<trkpt lat="33.8103132" lon="-118.3938672">
  <ele>-0.125</ele>
  <time>2026-09-01T01:12:55Z</time>
  <course>186.19</course>
  <speed>0.0282842712474619</speed>
  <fix>3d</fix>
</trkpt>
<trkpt lat="33.810313" lon="-118.393867">
  <ele>-0.12</ele>
  <time>2026-09-01T01:12:55Z</time>
  <course>0.0</course>
  <speed>0.0</speed>
  <fix>3d</fix>
</trkpt>
<trkpt lat="33.8103132" lon="-118.3938672">
  <ele>-0.125</ele>
  <time>2026-09-01T01:12:55Z</time>
  <course>186.19</course>
  <speed>0.0282842712474619</speed>
  <fix>3d</fix>
</trkpt>
<trkpt lat="33.810313" lon="-118.393867">
  <ele>-0.12</ele>
  <time>2026-09-01T01:12:55Z</time>
  <course>0.0</course>
  <speed>0.0</speed>
  <fix>3d</fix>
</trkpt>
<trkpt lat="33.8103132" lon="-118.3938672">
  <ele>-0.126</ele>
  <time>2026-09-01T01:12:55Z</time>
  <course>186.19</course>
  <speed>0.0282842712474619</speed>
  <fix>3d</fix>
</trkpt>
<trkpt lat="33.810313" lon="-118.393867">
  <ele>-0.12</ele>
  <time>2026-09-01T01:12:55Z</time>
  <course>0.0</course>
  <speed>0.0</speed>
  <fix>3d</fix>
</trkpt>
<trkpt lat="33.8103132" lon="-118.3938672">
  <ele>-0.126</ele>
  <time>2026-09-01T01:12:55Z</time>
  <course>186.19</course>
  <speed>0.0282842712474619</speed>
  <fix>3d</fix>
</trkpt>
<trkpt lat="33.810313" lon="-118.393867">
  <ele>-0.12</ele>
  <time>2026-09-01T01:12:55Z</time>
  <course>0.0</course>
  <speed>0.0</speed>
  <fix>3d</fix>
</trkpt>
<trkpt lat="33.8103132" lon="-118.3938672">
  <ele>-0.127</ele>
  <time>2026-09-01T01:12:55Z</time>
  <course>186.19</course>
  <speed>0.0282842712474619</speed>
  <fix>3d</fix>
</trkpt>
<trkpt lat="33.810313" lon="-118.393867">
  <ele>-0.12</ele>
  <time>2026-09-01T01:12:55Z</time>
  <course>0.0</course>
  <speed>0.0</speed>
  <fix>3d</fix>
</trkpt>
<trkpt lat="33.8103132" lon="-118.3938672">
  <ele>-0.129</ele>
  <time>2026-09-01T01:12:55Z</time>
  <course>186.19</course>
  <speed>0.0282842712474619</speed>
  <fix>3d</fix>
</trkpt>
<trkpt lat="33.810313" lon="-118.393867">
  <ele>-0.12</ele>
  <time>2026-09-01T01:12:55Z</time>
  <course>0.0</course>
  <speed>0.0</speed>
  <fix>3d</fix>
</trkpt>
<trkpt lat="33.8103132" lon="-118.3938672">
  <ele>-0.129</ele>
  <time>2026-09-01T01:12:55Z</time>
  <course>186.19</course>
  <speed>0.0282842712474619</speed>
  <fix>3d</fix>
</trkpt>
<trkpt lat="33.810313" lon="-118.393867">
  <ele>-0.12</ele>
  <time>2026-09-01T01:12:55Z</time>
  <course>0.0</course>
  <speed>0.0</speed>
  <fix>3d</fix>
</trkpt>
<trkpt lat="33.8103132" lon="-118.3938672">
  <ele>-0.13</ele>
  <time>2026-09-01T01:12:55Z</time>
  <course>186.19</course>
  <speed>0.0282842712474619</speed>
  <fix>3d</fix>
</trkpt>
<trkpt lat="33.810313" lon="-118.393867">
  <ele>-0.12</ele>
  <time>2026-09-01T01:12:55Z</time>
  <course>0.0</course>
  <speed>0.0</speed>
  <fix>3d</fix>
</trkpt>
<trkpt lat="33.8103132" lon="-118.3938672">
  <ele>-0.13</ele>
  <time>2026-09-01T01:12:55Z</time>
  <course>186.19</course>
  <speed>0.0282842712474619</speed>
  <fix>3d</fix>
</trkpt>
<trkpt lat="33.810313" lon="-118.393867">
  <ele>-0.12</ele>
  <time>2026-09-01T01:12:55Z</time>
  <course>0.0</course>
  <speed>0.0</speed>
  <fix>3d</fix>
</trkpt>
<trkpt lat="33.8103132" lon="-118.3938672">
  <ele>-0.13</ele>
  <time>2026-09-01T01:12:55Z</time>
  <course>186.19</course>
  <speed>0.0282842712474619</speed>
  <fix>3d</fix>
</trkpt>
<trkpt lat="33.810313" lon="-118.393867">
  <ele>-0.12</ele>
  <time>2026-09-01T01:12:55Z</time>
  <course>0.0</course>
  <speed>0.0</speed>
  <fix>3d</fix>
</trkpt>
<trkpt lat="33.8103132" lon="-118.3938672">
  <ele>-0.129</ele>
  <time>2026-09-01T01:12:55Z</time>
  <course>186.19</course>
  <speed>0.0282842712474619</speed>
  <fix>3d</fix>
</trkpt>
<trkpt lat="33.810313" lon="-118.393867">
  <ele>-0.12</ele>
  <time>2026-09-01T01:12:55Z</time>
  <course>0.0</course>
  <speed>0.0</speed>
  <fix>3d</fix>
</trkpt>
<trkpt lat="33.8103132" lon="-118.3938672">
  <ele>-0.129</ele>
  <time>2026-09-01T01:12:55Z</time>
  <course>186.19</course>
  <speed>0.0282842712474619</speed>
  <fix>3d</fix>
</trkpt>
<trkpt lat="33.810313" lon="-118.393867">
  <ele>-0.12</ele>
  <time>2026-09-01T01:12:55Z</time>
  <course>0.0</course>
  <speed>0.0</speed>
  <fix>3d</fix>
</trkpt>
<trkpt lat="33.8103132" lon="-118.3938672">
  <ele>-0.129</ele>
  <time>2026-09-01T01:12:55Z</time>
  <course>186.18</course>
  <speed>0.0282842712474619</speed>
  <fix>3d</fix>
</trkpt>
<trkpt lat="33.810313" lon="-118.393867">
  <ele>-0.12</ele>
  <time>2026-09-01T01:12:55Z</time>
  <course>0.0</course>
  <speed>0.0</speed>
  <fix>3d</fix>
</trkpt>
<trkpt lat="33.8103132" lon="-118.3938672">
  <ele>-0.128</ele>
  <time>2026-09-01T01:12:55Z</time>
  <course>186.18</course>
  <speed>0.0282842712474619</speed>
  <fix>3d</fix>
</trkpt>
<trkpt lat="33.810313" lon="-118.393867">
  <ele>-0.12</ele>
  <time>2026-09-01T01:12:55Z</time>
  <course>0.0</course>
  <speed>0.0</speed>
  <fix>3d</fix>
</trkpt>
<trkpt lat="33.8103132" lon="-118.3938672">
  <ele>-0.127</ele>
  <time>2026-09-01T01:12:55Z</time>
  <course>186.18</course>
  <speed>0.0282842712474619</speed>
  <fix>3d</fix>
</trkpt>
<trkpt lat="33.810313" lon="-118.393867">
  <ele>-0.12</ele>
  <time>2026-09-01T01:12:55Z</time>
  <course>0.0</course>
  <speed>0.0</speed>
  <fix>3d</fix>
</trkpt>
<trkpt lat="33.8103132" lon="-118.3938672">
  <ele>-0.127</ele>
  <time>2026-09-01T01:12:55Z</time>
  <course>186.18</course>
  <speed>0.0282842712474619</speed>
  <fix>3d</fix>
</trkpt>
<trkpt lat="33.810313" lon="-118.393867">
  <ele>-0.12</ele>
  <time>2026-09-01T01:12:55Z</time>
  <course>0.0</course>
  <speed>0.0</speed>
  <fix>3d</fix>
</trkpt>
<trkpt lat="33.8103132" lon="-118.3938672">
  <ele>-0.126</ele>
  <time>2026-09-01T01:12:55Z</time>
  <course>186.18</course>
  <speed>0.0282842712474619</speed>
  <fix>3d</fix>
</trkpt>
<trkpt lat="33.810313" lon="-118.393867">
  <ele>-0.12</ele>
  <time>2026-09-01T01:12:55Z</time>
  <course>0.0</course>
  <speed>0.0</speed>
  <fix>3d</fix>
</trkpt>
<trkpt lat="33.8103132" lon="-118.3938672">
  <ele>-0.126</ele>
  <time>2026-09-01T01:12:55Z</time>
  <course>186.18</course>
  <speed>0.0282842712474619</speed>
  <fix>3d</fix>
</trkpt>
<trkpt lat="33.810313" lon="-118.393867">
  <ele>-0.12</ele>
  <time>2026-09-01T01:12:55Z</time>
  <course>0.0</course>
  <speed>0.0</speed>
  <fix>3d</fix>
</trkpt>
<trkpt lat="33.8103132" lon="-118.3938672">
  <ele>-0.126</ele>
  <time>2026-09-01T01:12:55Z</time>
  <course>186.18</course>
  <speed>0.0282842712474619</speed>
  <fix>3d</fix>
</trkpt>
<trkpt lat="33.810313" lon="-118.393867">
  <ele>-0.12</ele>
  <time>2026-09-01T01:12:55Z</time>
  <course>0.0</course>
  <speed>0.0</speed>
  <fix>3d</fix>
</trkpt>
<trkpt lat="33.8103132" lon="-118.3938672">
  <ele>-0.125</ele>
  <time>2026-09-01T01:12:55Z</time>
  <course>186.18</course>
  <speed>0.0282842712474619</speed>
  <fix>3d</fix>
</trkpt>
<trkpt lat="33.810313" lon="-118.393867">
  <ele>-0.12</ele>
  <time>2026-09-01T01:12:55Z</time>
  <course>0.0</course>
  <speed>0.0</speed>
  <fix>3d</fix>
</trkpt>
<trkpt lat="33.8103132" lon="-118.3938672">
  <ele>-0.123</ele>
  <time>2026-09-01T01:12:55Z</time>
  <course>186.18</course>
  <speed>0.0282842712474619</speed>
  <fix>3d</fix>
</trkpt>
<trkpt lat="33.810313" lon="-118.393867">
  <ele>-0.12</ele>
  <time>2026-09-01T01:12:55Z</time>
  <course>0.0</course>
  <speed>0.0</speed>
  <fix>3d</fix>
</trkpt>
<trkpt lat="33.8103132" lon="-118.3938672">
  <ele>-0.122</ele>
  <time>2026-09-01T01:12:55Z</time>
  <course>186.18</course>
  <speed>0.0282842712474619</speed>
  <fix>3d</fix>
</trkpt>
<trkpt lat="33.810313" lon="-118.393867">
  <ele>-0.12</ele>
  <time>2026-09-01T01:12:55Z</time>
  <course>0.0</course>
  <speed>0.0</speed>
  <fix>3d</fix>
</trkpt>
<trkpt lat="33.8103132" lon="-118.3938672">
  <ele>-0.121</ele>
  <time>2026-09-01T01:12:55Z</time>
  <course>186.18</course>
  <speed>0.0282842712474619</speed>
  <fix>3d</fix>
</trkpt>
<trkpt lat="33.810313" lon="-118.393867">
  <ele>-0.12</ele>
  <time>2026-09-01T01:12:55Z</time>
  <course>0.0</course>
  <speed>0.0</speed>
  <fix>3d</fix>
</trkpt>
<trkpt lat="33.8103132" lon="-118.3938672">
  <ele>-0.12</ele>
  <time>2026-09-01T01:12:55Z</time>
  <course>186.18</course>
  <speed>0.0282842712474619</speed>
  <fix>3d</fix>
</trkpt>
<trkpt lat="33.810313" lon="-118.393867">
  <ele>-0.12</ele>
  <time>2026-09-01T01:12:55Z</time>
  <course>0.0</course>
  <speed>0.0</speed>
  <fix>3d</fix>
</trkpt>
<trkpt lat="33.8103132" lon="-118.3938672">
  <ele>-0.12</ele>
  <time>2026-09-01T01:12:55Z</time>
  <course>186.18</course>
  <speed>0.0282842712474619</speed>
  <fix>3d</fix>
</trkpt>
<trkpt lat="33.810313" lon="-118.393867">
  <ele>-0.12</ele>
  <time>2026-09-01T01:12:55Z</time>
  <course>0.0</course>
  <speed>0.0</speed>
  <fix>3d</fix>
</trkpt>
<trkpt lat="33.8103132" lon="-118.3938672">
  <ele>-0.12</ele>
  <time>2026-09-01T01:12:55Z</time>
  <course>186.18</course>
  <speed>0.0282842712474619</speed>
  <fix>3d</fix>
</trkpt>
<trkpt lat="33.810313" lon="-118.393867">
  <ele>-0.12</ele>
  <time>2026-09-01T01:12:55Z</time>
  <course>0.0</course>
  <speed>0.0</speed>
  <fix>3d</fix>
</trkpt>
<trkpt lat="33.8103132" lon="-118.3938672">
  <ele>-0.121</ele>
  <time>2026-09-01T01:12:55Z</time>
  <course>186.17</course>
  <speed>0.0282842712474619</speed>
  <fix>3d</fix>
</trkpt>
<trkpt lat="33.810313" lon="-118.393867">
  <ele>-0.12</ele>
  <time>2026-09-01T01:12:55Z</time>
  <course>0.0</course>
  <speed>0.0</speed>
  <fix>3d</fix>
</trkpt>
<trkpt lat="33.8103132" lon="-118.3938672">
  <ele>-0.123</ele>
  <time>2026-09-01T01:12:55Z</time>
  <course>186.17</course>
  <speed>0.0282842712474619</speed>
  <fix>3d</fix>
</trkpt>
<trkpt lat="33.810313" lon="-118.393867">
  <ele>-0.12</ele>
  <time>2026-09-01T01:12:55Z</time>
  <course>0.0</course>
  <speed>0.0</speed>
  <fix>3d</fix>
</trkpt>
<trkpt lat="33.8103132" lon="-118.3938672">
  <ele>-0.125</ele>
  <time>2026-09-01T01:12:55Z</time>
  <course>186.17</course>
  <speed>0.0282842712474619</speed>
  <fix>3d</fix>
</trkpt>
<trkpt lat="33.810313" lon="-118.393867">
  <ele>-0.12</ele>
  <time>2026-09-01T01:12:55Z</time>
  <course>0.0</course>
  <speed>0.0</speed>
  <fix>3d</fix>
</trkpt>
<trkpt lat="33.8103132" lon="-118.3938672">
  <ele>-0.126</ele>
  <time>2026-09-01T01:12:55Z</time>
  <course>186.17</course>
  <speed>0.0282842712474619</speed>
  <fix>3d</fix>
</trkpt>
<trkpt lat="33.810313" lon="-118.393867">
  <ele>-0.12</ele>
  <time>2026-09-01T01:12:55Z</time>
  <course>0.0</course>
  <speed>0.0</speed>
  <fix>3d</fix>
</trkpt>
<trkpt lat="33.8103132" lon="-118.3938672">
  <ele>-0.128</ele>
  <time>2026-09-01T01:12:55Z</time>
  <course>186.17</course>
  <speed>0.0282842712474619</speed>
  <fix>3d</fix>
</trkpt>
<trkpt lat="33.810313" lon="-118.393867">
  <ele>-0.12</ele>
  <time>2026-09-01T01:12:55Z</time>
  <course>0.0</course>
  <speed>0.0</speed>
  <fix>3d</fix>
</trkpt>
<trkpt lat="33.8103132" lon="-118.3938672">
  <ele>-0.129</ele>
  <time>2026-09-01T01:12:55Z</time>
  <course>186.17</course>
  <speed>0.0282842712474619</speed>
  <fix>3d</fix>
</trkpt>
<trkpt lat="33.810313" lon="-118.393867">
  <ele>-0.12</ele>
  <time>2026-09-01T01:12:55Z</time>
  <course>0.0</course>
  <speed>0.0</speed>
  <fix>3d</fix>
</trkpt>
<trkpt lat="33.8103132" lon="-118.3938672">
  <ele>-0.13</ele>
  <time>2026-09-01T01:12:55Z</time>
  <course>186.17</course>
  <speed>0.0282842712474619</speed>
  <fix>3d</fix>
</trkpt>
<trkpt lat="33.810313" lon="-118.393867">
  <ele>-0.12</ele>
  <time>2026-09-01T01:12:55Z</time>
  <course>0.0</course>
  <speed>0.0</speed>
  <fix>3d</fix>
</trkpt>
<trkpt lat="33.8103132" lon="-118.3938672">
  <ele>-0.132</ele>
  <time>2026-09-01T01:12:55Z</time>
  <course>186.17</course>
  <speed>0.0282842712474619</speed>
  <fix>3d</fix>
</trkpt>
<trkpt lat="33.810313" lon="-118.393867">
  <ele>-0.12</ele>
  <time>2026-09-01T01:12:55Z</time>
  <course>0.0</course>
  <speed>0.0</speed>
  <fix>3d</fix>
</trkpt>
<trkpt lat="33.8103132" lon="-118.3938672">
  <ele>-0.133</ele>
  <time>2026-09-01T01:12:55Z</time>
  <course>186.17</course>
  <speed>0.0282842712474619</speed>
  <fix>3d</fix>
</trkpt>
<trkpt lat="33.810313" lon="-118.393867">
  <ele>-0.12</ele>
  <time>2026-09-01T01:12:55Z</time>
  <course>0.0</course>
  <speed>0.0</speed>
  <fix>3d</fix>
</trkpt>
<trkpt lat="33.8103132" lon="-118.3938672">
  <ele>-0.134</ele>
  <time>2026-09-01T01:12:55Z</time>
  <course>186.17</course>
  <speed>0.0282842712474619</speed>
  <fix>3d</fix>
</trkpt>
<trkpt lat="33.810313" lon="-118.393867">
  <ele>-0.12</ele>
  <time>2026-09-01T01:12:55Z</time>
  <course>0.0</course>
  <speed>0.0</speed>
  <fix>3d</fix>
</trkpt>
<trkpt lat="33.8103132" lon="-118.3938672">
  <ele>-0.135</ele>
  <time>2026-09-01T01:12:55Z</time>
  <course>186.17</course>
  <speed>0.0282842712474619</speed>
  <fix>3d</fix>
</trkpt>
<trkpt lat="33.810313" lon="-118.393867">
  <ele>-0.12</ele>
  <time>2026-09-01T01:12:55Z</time>
  <course>0.0</course>
  <speed>0.0</speed>
  <fix>3d</fix>
</trkpt>
<trkpt lat="33.8103132" lon="-118.3938672">
  <ele>-0.136</ele>
  <time>2026-09-01T01:12:55Z</time>
  <course>186.17</course>
  <speed>0.0282842712474619</speed>
  <fix>3d</fix>
</trkpt>
<trkpt lat="33.810313" lon="-118.393867">
  <ele>-0.12</ele>
  <time>2026-09-01T01:12:55Z</time>
  <course>0.0</course>
  <speed>0.0</speed>
  <fix>3d</fix>
</trkpt>
<trkpt lat="33.8103132" lon="-118.3938672">
  <ele>-0.137</ele>
  <time>2026-09-01T01:12:55Z</time>
  <course>186.17</course>
  <speed>0.0282842712474619</speed>
  <fix>3d</fix>
</trkpt>
<trkpt lat="33.810313" lon="-118.393867">
  <ele>-0.12</ele>
  <time>2026-09-01T01:12:55Z</time>
  <course>0.0</course>
  <speed>0.0</speed>
  <fix>3d</fix>
</trkpt>
<trkpt lat="33.8103132" lon="-118.3938672">
  <ele>-0.137</ele>
  <time>2026-09-01T01:12:55Z</time>
  <course>186.17</course>
  <speed>0.0282842712474619</speed>
  <fix>3d</fix>
</trkpt>
<trkpt lat="33.810313" lon="-118.393867">
  <ele>-0.12</ele>
  <time>2026-09-01T01:12:55Z</time>
  <course>0.0</course>
  <speed>0.0</speed>
  <fix>3d</fix>
</trkpt>
<trkpt lat="33.8103132" lon="-118.3938672">
  <ele>-0.137</ele>
  <time>2026-09-01T01:12:55Z</time>
  <course>186.17</course>
  <speed>0.022360679774997897</speed>
  <fix>3d</fix>
</trkpt>
<trkpt lat="33.810313" lon="-118.393867">
  <ele>-0.12</ele>
  <time>2026-09-01T01:12:55Z</time>
  <course>0.0</course>
  <speed>0.0</speed>
  <fix>3d</fix>
</trkpt>
<trkpt lat="33.8103132" lon="-118.3938672">
  <ele>-0.137</ele>
  <time>2026-09-01T01:12:56Z</time>
  <course>186.17</course>
  <speed>0.0282842712474619</speed>
  <fix>3d</fix>
</trkpt>
<trkpt lat="33.810313" lon="-118.393867">
  <ele>-0.12</ele>
  <time>2026-09-01T01:12:56Z</time>
  <course>0.0</course>
  <speed>0.0</speed>
  <fix>3d</fix>
</trkpt>
<trkpt lat="33.8103132" lon="-118.3938672">
  <ele>-0.135</ele>
  <time>2026-09-01T01:12:56Z</time>
  <course>186.17</course>
  <speed>0.0282842712474619</speed>
  <fix>3d</fix>
</trkpt>
<trkpt lat="33.810313" lon="-118.393867">
  <ele>-0.12</ele>
  <time>2026-09-01T01:12:56Z</time>
  <course>0.0</course>
  <speed>0.0</speed>
  <fix>3d</fix>
</trkpt>
<trkpt lat="33.8103132" lon="-118.3938672">
  <ele>-0.134</ele>
  <time>2026-09-01T01:12:56Z</time>
  <course>186.17</course>
  <speed>0.0282842712474619</speed>
  <fix>3d</fix>
</trkpt>
<trkpt lat="33.810313" lon="-118.393867">
  <ele>-0.12</ele>
  <time>2026-09-01T01:12:56Z</time>
  <course>0.0</course>
  <speed>0.0</speed>
  <fix>3d</fix>
</trkpt>
<trkpt lat="33.8103132" lon="-118.3938672">
  <ele>-0.133</ele>
  <time>2026-09-01T01:12:56Z</time>
  <course>186.16</course>
  <speed>0.0282842712474619</speed>
  <fix>3d</fix>
</trkpt>
<trkpt lat="33.810313" lon="-118.393867">
  <ele>-0.12</ele>
  <time>2026-09-01T01:12:56Z</time>
  <course>0.0</course>
  <speed>0.0</speed>
  <fix>3d</fix>
</trkpt>
<trkpt lat="33.8103132" lon="-118.3938672">
  <ele>-0.132</ele>
  <time>2026-09-01T01:12:56Z</time>
  <course>186.16</course>
  <speed>0.0282842712474619</speed>
  <fix>3d</fix>
</trkpt>
<trkpt lat="33.810313" lon="-118.393867">
  <ele>-0.12</ele>
  <time>2026-09-01T01:12:56Z</time>
  <course>0.0</course>
  <speed>0.0</speed>
  <fix>3d</fix>
</trkpt>
<trkpt lat="33.8103132" lon="-118.3938672">
  <ele>-0.132</ele>
  <time>2026-09-01T01:12:56Z</time>
  <course>186.16</course>
  <speed>0.0282842712474619</speed>
  <fix>3d</fix>
</trkpt>
<trkpt lat="33.810313" lon="-118.393867">
  <ele>-0.12</ele>
  <time>2026-09-01T01:12:56Z</time>
  <course>0.0</course>
  <speed>0.0</speed>
  <fix>3d</fix>
</trkpt>
<trkpt lat="33.8103132" lon="-118.3938672">
  <ele>-0.133</ele>
  <time>2026-09-01T01:12:56Z</time>
  <course>186.16</course>
  <speed>0.0282842712474619</speed>
  <fix>3d</fix>
</trkpt>
<trkpt lat="33.810313" lon="-118.393867">
  <ele>-0.12</ele>
  <time>2026-09-01T01:12:56Z</time>
  <course>0.0</course>
  <speed>0.0</speed>
  <fix>3d</fix>
</trkpt>
<trkpt lat="33.8103132" lon="-118.3938672">
  <ele>-0.133</ele>
  <time>2026-09-01T01:12:56Z</time>
  <course>186.16</course>
  <speed>0.0282842712474619</speed>
  <fix>3d</fix>
</trkpt>
<trkpt lat="33.810313" lon="-118.393867">
  <ele>-0.12</ele>
  <time>2026-09-01T01:12:56Z</time>
  <course>0.0</course>
  <speed>0.0</speed>
  <fix>3d</fix>
</trkpt>
<trkpt lat="33.8103132" lon="-118.3938672">
  <ele>-0.132</ele>
  <time>2026-09-01T01:12:56Z</time>
  <course>186.16</course>
  <speed>0.0282842712474619</speed>
  <fix>3d</fix>
</trkpt>
<trkpt lat="33.810313" lon="-118.393867">
  <ele>-0.12</ele>
  <time>2026-09-01T01:12:56Z</time>
  <course>0.0</course>
  <speed>0.0</speed>
  <fix>3d</fix>
</trkpt>
<trkpt lat="33.8103132" lon="-118.3938672">
  <ele>-0.131</ele>
  <time>2026-09-01T01:12:56Z</time>
  <course>186.16</course>
  <speed>0.0282842712474619</speed>
  <fix>3d</fix>
</trkpt>
<trkpt lat="33.810313" lon="-118.393867">
  <ele>-0.12</ele>
  <time>2026-09-01T01:12:56Z</time>
  <course>0.0</course>
  <speed>0.0</speed>
  <fix>3d</fix>
</trkpt>
<trkpt lat="33.8103132" lon="-118.3938672">
  <ele>-0.13</ele>
  <time>2026-09-01T01:12:56Z</time>
  <course>186.16</course>
  <speed>0.0282842712474619</speed>
  <fix>3d</fix>
</trkpt>
<trkpt lat="33.810313" lon="-118.393867">
  <ele>-0.12</ele>
  <time>2026-09-01T01:12:56Z</time>
  <course>0.0</course>
  <speed>0.0</speed>
  <fix>3d</fix>
</trkpt>
<trkpt lat="33.8103132" lon="-118.3938672">
  <ele>-0.13</ele>
  <time>2026-09-01T01:12:56Z</time>
  <course>186.16</course>
  <speed>0.0282842712474619</speed>
  <fix>3d</fix>
</trkpt>
<trkpt lat="33.810313" lon="-118.393867">
  <ele>-0.12</ele>
  <time>2026-09-01T01:12:56Z</time>
  <course>0.0</course>
  <speed>0.0</speed>
  <fix>3d</fix>
</trkpt>
<trkpt lat="33.8103132" lon="-118.3938672">
  <ele>-0.13</ele>
  <time>2026-09-01T01:12:56Z</time>
  <course>186.16</course>
  <speed>0.0282842712474619</speed>
  <fix>3d</fix>
</trkpt>
<trkpt lat="33.810313" lon="-118.393867">
  <ele>-0.12</ele>
  <time>2026-09-01T01:12:56Z</time>
  <course>0.0</course>
  <speed>0.0</speed>
  <fix>3d</fix>
</trkpt>
<trkpt lat="33.8103132" lon="-118.3938672">
  <ele>-0.13</ele>
  <time>2026-09-01T01:12:56Z</time>
  <course>186.16</course>
  <speed>0.0282842712474619</speed>
  <fix>3d</fix>
</trkpt>
<trkpt lat="33.810313" lon="-118.393867">
  <ele>-0.12</ele>
  <time>2026-09-01T01:12:56Z</time>
  <course>0.0</course>
  <speed>0.0</speed>
  <fix>3d</fix>
</trkpt>
<trkpt lat="33.8103132" lon="-118.3938672">
  <ele>-0.129</ele>
  <time>2026-09-01T01:12:56Z</time>
  <course>186.16</course>
  <speed>0.0282842712474619</speed>
  <fix>3d</fix>
</trkpt>
<trkpt lat="33.810313" lon="-118.393867">
  <ele>-0.12</ele>
  <time>2026-09-01T01:12:56Z</time>
  <course>0.0</course>
  <speed>0.0</speed>
  <fix>3d</fix>
</trkpt>
<trkpt lat="33.8103132" lon="-118.3938672">
  <ele>-0.129</ele>
  <time>2026-09-01T01:12:56Z</time>
  <course>186.16</course>
  <speed>0.0282842712474619</speed>
  <fix>3d</fix>
</trkpt>
<trkpt lat="33.810313" lon="-118.393867">
  <ele>-0.12</ele>
  <time>2026-09-01T01:12:56Z</time>
  <course>0.0</course>
  <speed>0.0</speed>
  <fix>3d</fix>
</trkpt>
<trkpt lat="33.8103132" lon="-118.3938672">
  <ele>-0.129</ele>
  <time>2026-09-01T01:12:56Z</time>
  <course>186.16</course>
  <speed>0.0282842712474619</speed>
  <fix>3d</fix>
</trkpt>
<trkpt lat="33.810313" lon="-118.393867">
  <ele>-0.12</ele>
  <time>2026-09-01T01:12:56Z</time>
  <course>0.0</course>
  <speed>0.0</speed>
  <fix>3d</fix>
</trkpt>
<trkpt lat="33.8103132" lon="-118.3938672">
  <ele>-0.128</ele>
  <time>2026-09-01T01:12:56Z</time>
  <course>186.16</course>
  <speed>0.0282842712474619</speed>
  <fix>3d</fix>
</trkpt>
<trkpt lat="33.810313" lon="-118.393867">
  <ele>-0.12</ele>
  <time>2026-09-01T01:12:56Z</time>
  <course>0.0</course>
  <speed>0.0</speed>
  <fix>3d</fix>
</trkpt>
<trkpt lat="33.8103132" lon="-118.3938672">
  <ele>-0.126</ele>
  <time>2026-09-01T01:12:56Z</time>
  <course>186.16</course>
  <speed>0.0282842712474619</speed>
  <fix>3d</fix>
</trkpt>
<trkpt lat="33.810313" lon="-118.393867">
  <ele>-0.12</ele>
  <time>2026-09-01T01:12:56Z</time>
  <course>0.0</course>
  <speed>0.0</speed>
  <fix>3d</fix>
</trkpt>
<trkpt lat="33.8103132" lon="-118.3938672">
  <ele>-0.124</ele>
  <time>2026-09-01T01:12:56Z</time>
  <course>186.16</course>
  <speed>0.0282842712474619</speed>
  <fix>3d</fix>
</trkpt>
<trkpt lat="33.810313" lon="-118.393867">
  <ele>-0.12</ele>
  <time>2026-09-01T01:12:56Z</time>
  <course>0.0</course>
  <speed>0.0</speed>
  <fix>3d</fix>
</trkpt>
<trkpt lat="33.8103132" lon="-118.3938672">
  <ele>-0.121</ele>
  <time>2026-09-01T01:12:56Z</time>
  <course>186.15</course>
  <speed>0.0282842712474619</speed>
  <fix>3d</fix>
</trkpt>
<trkpt lat="33.810313" lon="-118.393867">
  <ele>-0.12</ele>
  <time>2026-09-01T01:12:56Z</time>
  <course>0.0</course>
  <speed>0.0</speed>
  <fix>3d</fix>
</trkpt>
<trkpt lat="33.8103132" lon="-118.3938672">
  <ele>-0.118</ele>
  <time>2026-09-01T01:12:56Z</time>
  <course>186.15</course>
  <speed>0.0282842712474619</speed>
  <fix>3d</fix>
</trkpt>
<trkpt lat="33.810313" lon="-118.393867">
  <ele>-0.12</ele>
  <time>2026-09-01T01:12:56Z</time>
  <course>0.0</course>
  <speed>0.0</speed>
  <fix>3d</fix>
</trkpt>
<trkpt lat="33.8103132" lon="-118.3938672">
  <ele>-0.116</ele>
  <time>2026-09-01T01:12:56Z</time>
  <course>186.15</course>
  <speed>0.0282842712474619</speed>
  <fix>3d</fix>
</trkpt>
<trkpt lat="33.810313" lon="-118.393867">
  <ele>-0.12</ele>
  <time>2026-09-01T01:12:56Z</time>
  <course>0.0</course>
  <speed>0.0</speed>
  <fix>3d</fix>
</trkpt>
<trkpt lat="33.8103132" lon="-118.3938672">
  <ele>-0.115</ele>
  <time>2026-09-01T01:12:56Z</time>
  <course>186.15</course>
  <speed>0.0282842712474619</speed>
  <fix>3d</fix>
</trkpt>
<trkpt lat="33.810313" lon="-118.393867">
  <ele>-0.12</ele>
  <time>2026-09-01T01:12:56Z</time>
  <course>0.0</course>
  <speed>0.0</speed>
  <fix>3d</fix>
</trkpt>
<trkpt lat="33.8103132" lon="-118.3938672">
  <ele>-0.116</ele>
  <time>2026-09-01T01:12:56Z</time>
  <course>186.15</course>
  <speed>0.022360679774997897</speed>
  <fix>3d</fix>
</trkpt>
<trkpt lat="33.810313" lon="-118.393867">
  <ele>-0.12</ele>
  <time>2026-09-01T01:12:56Z</time>
  <course>0.0</course>
  <speed>0.0</speed>
  <fix>3d</fix>
</trkpt>
<trkpt lat="33.4368002" lon="-117.0859339">
  <ele>-0.11</ele>
  <time>2026-09-01T01:12:56Z</time>
  <course>0.0</course>
  <speed>0.0</speed>
  <fix>3d</fix>
</trkpt>
<trkpt lat="33.4368002" lon="-117.0859339">
  <ele>-0.11</ele>
  <time>2026-09-01T01:12:56Z</time>
  <course>0.0</course>
  <speed>0.0</speed>
  <fix>3d</fix>
</trkpt>
<trkpt lat="33.810313" lon="-118.393867">
  <ele>0.0</ele>
  <time>2026-09-01T01:12:56Z</time>
  <course>173.5</course>
  <speed>0.0</speed>
  <fix>3d</fix>
</trkpt>
<trkpt lat="33.810313" lon="-118.393867">
  <ele>-0.11</ele>
  <time>2026-09-01T01:12:56Z</time>
  <course>0.0</course>
  <speed>0.0</speed>
  <fix>3d</fix>
</trkpt>
<trkpt lat="33.810313" lon="-118.393867">
  <ele>0.0</ele>
  <time>2026-09-01T01:12:56Z</time>
  <course>173.64</course>
  <speed>0.0</speed>
  <fix>3d</fix>
</trkpt>
<trkpt lat="33.810313" lon="-118.393867">
  <ele>-0.11</ele>
  <time>2026-09-01T01:12:56Z</time>
  <course>0.0</course>
  <speed>0.0</speed>
  <fix>3d</fix>
</trkpt>
<trkpt lat="33.810313" lon="-118.393867">
  <ele>0.0</ele>
  <time>2026-09-01T01:12:56Z</time>
  <course>174.03</course>
  <speed>0.0</speed>
  <fix>3d</fix>
</trkpt>
<trkpt lat="33.810313" lon="-118.393867">
  <ele>-0.11</ele>
  <time>2026-09-01T01:12:56Z</time>
  <course>0.0</course>
  <speed>0.0</speed>
  <fix>3d</fix>
</trkpt>
<trkpt lat="33.810313" lon="-118.393867">
  <ele>0.0</ele>
  <time>2026-09-01T01:12:56Z</time>
  <course>174.57</course>
  <speed>0.0</speed>
  <fix>3d</fix>
</trkpt>
<trkpt lat="33.810313" lon="-118.393867">
  <ele>-0.11</ele>
  <time>2026-09-01T01:12:56Z</time>
  <course>0.0</course>
  <speed>0.0</speed>
  <fix>3d</fix>
</trkpt>
<trkpt lat="33.810313" lon="-118.393867">
  <ele>0.0</ele>
  <time>2026-09-01T01:12:56Z</time>
  <course>175.13</course>
  <speed>0.0</speed>
  <fix>3d</fix>
</trkpt>
<trkpt lat="33.810313" lon="-118.393867">
  <ele>-0.12</ele>
  <time>2026-09-01T01:12:56Z</time>
  <course>0.0</course>
  <speed>0.0</speed>
  <fix>3d</fix>
</trkpt>
<trkpt lat="33.810313" lon="-118.393867">
  <ele>0.0</ele>
  <time>2026-09-01T01:12:56Z</time>
  <course>175.67</course>
  <speed>0.0</speed>
  <fix>3d</fix>
</trkpt>
<trkpt lat="33.810313" lon="-118.393867">
  <ele>-0.12</ele>
  <time>2026-09-01T01:12:56Z</time>
  <course>0.0</course>
  <speed>0.0</speed>
  <fix>3d</fix>
</trkpt>
<trkpt lat="33.810313" lon="-118.393867">
  <ele>0.0</ele>
  <time>2026-09-01T01:12:56Z</time>
  <course>176.17</course>
  <speed>0.0</speed>
  <fix>3d</fix>
</trkpt>
<trkpt lat="33.810313" lon="-118.393867">
  <ele>-0.13</ele>
  <time>2026-09-01T01:12:56Z</time>
  <course>0.0</course>
  <speed>0.0</speed>
  <fix>3d</fix>
</trkpt>
<trkpt lat="33.810313" lon="-118.393867">
  <ele>0.0</ele>
  <time>2026-09-01T01:12:56Z</time>
  <course>176.65</course>
  <speed>0.0</speed>
  <fix>3d</fix>
</trkpt>
<trkpt lat="33.810313" lon="-118.393867">
  <ele>-0.13</ele>
  <time>2026-09-01T01:12:56Z</time>
  <course>0.0</course>
  <speed>0.0</speed>
  <fix>3d</fix>
</trkpt>
<trkpt lat="33.810313" lon="-118.393867">
  <ele>0.0</ele>
  <time>2026-09-01T01:12:56Z</time>
  <course>178.45</course>
  <speed>0.0</speed>
  <fix>3d</fix>
</trkpt>
<trkpt lat="33.810313" lon="-118.393867">
  <ele>-0.14</ele>
  <time>2026-09-01T01:12:56Z</time>
  <course>0.0</course>
  <speed>0.0</speed>
  <fix>3d</fix>
</trkpt>
<trkpt lat="33.810313" lon="-118.393867">
  <ele>0.0</ele>
  <time>2026-09-01T01:12:56Z</time>
  <course>179.66</course>
  <speed>0.0</speed>
  <fix>3d</fix>
</trkpt>
<trkpt lat="33.810313" lon="-118.393867">
  <ele>-0.14</ele>
  <time>2026-09-01T01:12:56Z</time>
  <course>0.0</course>
  <speed>0.0</speed>
  <fix>3d</fix>
</trkpt>
<trkpt lat="33.810313" lon="-118.393867">
  <ele>0.0</ele>
  <time>2026-09-01T01:12:56Z</time>
  <course>180.05</course>
  <speed>0.0</speed>
  <fix>3d</fix>
</trkpt>
<trkpt lat="33.810313" lon="-118.393867">
  <ele>-0.14</ele>
  <time>2026-09-01T01:12:56Z</time>
  <course>0.0</course>
  <speed>0.0</speed>
  <fix>3d</fix>
</trkpt>
<trkpt lat="33.810313" lon="-118.393867">
  <ele>0.0</ele>
  <time>2026-09-01T01:12:56Z</time>
  <course>180.76</course>
  <speed>0.0</speed>
  <fix>3d</fix>
</trkpt>
<trkpt lat="33.810313" lon="-118.393867">
  <ele>-0.14</ele>
  <time>2026-09-01T01:12:56Z</time>
  <course>0.0</course>
  <speed>0.0</speed>
  <fix>3d</fix>
</trkpt>
<trkpt lat="33.810313" lon="-118.393867">
  <ele>0.0</ele>
  <time>2026-09-01T01:12:56Z</time>
  <course>181.1</course>
  <speed>0.0</speed>
  <fix>3d</fix>
</trkpt>
<trkpt lat="33.810313" lon="-118.393867">
  <ele>-0.13</ele>
  <time>2026-09-01T01:12:56Z</time>
  <course>0.0</course>
  <speed>0.0</speed>
  <fix>3d</fix>
</trkpt>
<trkpt lat="33.810313" lon="-118.393867">
  <ele>0.0</ele>
  <time>2026-09-01T01:12:56Z</time>
  <course>181.43</course>
  <speed>0.0</speed>
  <fix>3d</fix>
</trkpt>
<trkpt lat="33.810313" lon="-118.393867">
  <ele>-0.13</ele>
  <time>2026-09-01T01:12:56Z</time>
  <course>0.0</course>
  <speed>0.0</speed>
  <fix>3d</fix>
</trkpt>
<trkpt lat="33.810313" lon="-118.393867">
  <ele>0.0</ele>
  <time>2026-09-01T01:12:56Z</time>
  <course>181.75</course>
  <speed>0.0</speed>
  <fix>3d</fix>
</trkpt>
<trkpt lat="33.810313" lon="-118.393867">
  <ele>-0.12</ele>
  <time>2026-09-01T01:12:56Z</time>
  <course>0.0</course>
  <speed>0.0</speed>
  <fix>3d</fix>
</trkpt>
<trkpt lat="33.810313" lon="-118.393867">
  <ele>0.0</ele>
  <time>2026-09-01T01:12:56Z</time>
  <course>182.05</course>
  <speed>0.0</speed>
  <fix>3d</fix>
</trkpt>
<trkpt lat="33.810313" lon="-118.393867">
  <ele>-0.12</ele>
  <time>2026-09-01T01:12:56Z</time>
  <course>0.0</course>
  <speed>0.0</speed>
  <fix>3d</fix>
</trkpt>
<trkpt lat="33.810313" lon="-118.393867">
  <ele>0.0</ele>
  <time>2026-09-01T01:12:56Z</time>
  <course>182.35</course>
  <speed>0.0</speed>
  <fix>3d</fix>
</trkpt>
<trkpt lat="33.810313" lon="-118.393867">
  <ele>-0.12</ele>
  <time>2026-09-01T01:12:56Z</time>
  <course>0.0</course>
  <speed>0.0</speed>
  <fix>3d</fix>
</trkpt>
<trkpt lat="33.810313" lon="-118.393867">
  <ele>0.0</ele>
  <time>2026-09-01T01:12:56Z</time>
  <course>182.63</course>
  <speed>0.0</speed>
  <fix>3d</fix>
</trkpt>
<trkpt lat="33.810313" lon="-118.393867">
  <ele>-0.12</ele>
  <time>2026-09-01T01:12:56Z</time>
  <course>0.0</course>
  <speed>0.0</speed>
  <fix>3d</fix>
</trkpt>
<trkpt lat="33.810313" lon="-118.393867">
  <ele>0.0</ele>
  <time>2026-09-01T01:12:56Z</time>
  <course>182.9</course>
  <speed>0.0</speed>
  <fix>3d</fix>
</trkpt>
<trkpt lat="33.810313" lon="-118.393867">
  <ele>-0.11</ele>
  <time>2026-09-01T01:12:56Z</time>
  <course>0.0</course>
  <speed>0.0</speed>
  <fix>3d</fix>
</trkpt>
<trkpt lat="33.810313" lon="-118.393867">
  <ele>0.0</ele>
  <time>2026-09-01T01:12:56Z</time>
  <course>183.16</course>
  <speed>0.0</speed>
  <fix>3d</fix>
</trkpt>
<trkpt lat="33.810313" lon="-118.393867">
  <ele>-0.11</ele>
  <time>2026-09-01T01:12:56Z</time>
  <course>0.0</course>
  <speed>0.0</speed>
  <fix>3d</fix>
</trkpt>
<trkpt lat="33.810313" lon="-118.393867">
  <ele>0.0</ele>
  <time>2026-09-01T01:12:56Z</time>
  <course>183.41</course>
  <speed>0.0</speed>
  <fix>3d</fix>
</trkpt>
<trkpt lat="33.810313" lon="-118.393867">
  <ele>-0.11</ele>
  <time>2026-09-01T01:12:56Z</time>
  <course>0.0</course>
  <speed>0.0</speed>
  <fix>3d</fix>
</trkpt>
<trkpt lat="33.810313" lon="-118.393867">
  <ele>0.0</ele>
  <time>2026-09-01T01:12:56Z</time>
  <course>183.65</course>
  <speed>0.0</speed>
  <fix>3d</fix>
</trkpt>
<trkpt lat="33.810313" lon="-118.393867">
  <ele>-0.11</ele>
  <time>2026-09-01T01:12:56Z</time>
  <course>0.0</course>
  <speed>0.0</speed>
  <fix>3d</fix>
</trkpt>
<trkpt lat="33.810313" lon="-118.393867">
  <ele>0.0</ele>
  <time>2026-09-01T01:12:56Z</time>
  <course>183.88</course>
  <speed>0.0</speed>
  <fix>3d</fix>
</trkpt>
<trkpt lat="33.810313" lon="-118.393867">
  <ele>-0.12</ele>
  <time>2026-09-01T01:12:56Z</time>
  <course>0.0</course>
  <speed>0.0</speed>
  <fix>3d</fix>
</trkpt>
<trkpt lat="33.810313" lon="-118.393867">
  <ele>0.0</ele>
  <time>2026-09-01T01:12:56Z</time>
  <course>184.11</course>
  <speed>0.0</speed>
  <fix>3d</fix>
</trkpt>
<trkpt lat="33.810313" lon="-118.393867">
  <ele>-0.12</ele>
  <time>2026-09-01T01:12:56Z</time>
  <course>0.0</course>
  <speed>0.0</speed>
  <fix>3d</fix>
</trkpt>
<trkpt lat="33.810313" lon="-118.393867">
  <ele>0.0</ele>
  <time>2026-09-01T01:12:56Z</time>
  <course>184.32</course>
  <speed>0.0</speed>
  <fix>3d</fix>
</trkpt>
<trkpt lat="33.810313" lon="-118.393867">
  <ele>-0.13</ele>
  <time>2026-09-01T01:12:56Z</time>
  <course>0.0</course>
  <speed>0.0</speed>
  <fix>3d</fix>
</trkpt>
<trkpt lat="33.810313" lon="-118.393867">
  <ele>0.0</ele>
  <time>2026-09-01T01:12:56Z</time>
  <course>184.52</course>
  <speed>0.0</speed>
  <fix>3d</fix>
</trkpt>
<trkpt lat="33.810313" lon="-118.393867">
  <ele>-0.13</ele>
  <time>2026-09-01T01:12:56Z</time>
  <course>0.0</course>
  <speed>0.0</speed>
  <fix>3d</fix>
</trkpt>
<trkpt lat="33.810313" lon="-118.393867">
  <ele>0.0</ele>
  <time>2026-09-01T01:12:56Z</time>
  <course>184.72</course>
  <speed>0.0</speed>
  <fix>3d</fix>
</trkpt>
<trkpt lat="33.810313" lon="-118.393867">
  <ele>-0.13</ele>
  <time>2026-09-01T01:12:56Z</time>
  <course>0.0</course>
  <speed>0.0</speed>
  <fix>3d</fix>
</trkpt>
<trkpt lat="33.810313" lon="-118.393867">
  <ele>0.0</ele>
  <time>2026-09-01T01:12:56Z</time>
  <course>184.91</course>
  <speed>0.0</speed>
  <fix>3d</fix>
</trkpt>
<trkpt lat="33.810313" lon="-118.393867">
  <ele>-0.13</ele>
  <time>2026-09-01T01:12:56Z</time>
  <course>0.0</course>
  <speed>0.0</speed>
  <fix>3d</fix>
</trkpt>
<trkpt lat="33.810313" lon="-118.393867">
  <ele>0.0</ele>
  <time>2026-09-01T01:12:56Z</time>
  <course>185.09</course>
  <speed>0.0</speed>
  <fix>3d</fix>
</trkpt>
<trkpt lat="33.810313" lon="-118.393867">
  <ele>-0.14</ele>
  <time>2026-09-01T01:12:56Z</time>
  <course>0.0</course>
  <speed>0.0</speed>
  <fix>3d</fix>
</trkpt>
<trkpt lat="33.810313" lon="-118.393867">
  <ele>0.0</ele>
  <time>2026-09-01T01:12:56Z</time>
  <course>185.26</course>
  <speed>0.0</speed>
  <fix>3d</fix>
</trkpt>
<trkpt lat="33.810313" lon="-118.393867">
  <ele>-0.14</ele>
  <time>2026-09-01T01:12:56Z</time>
  <course>0.0</course>
  <speed>0.0</speed>
  <fix>3d</fix>
</trkpt>
<trkpt lat="33.810313" lon="-118.393867">
  <ele>0.0</ele>
  <time>2026-09-01T01:12:56Z</time>
  <course>185.42</course>
  <speed>0.0</speed>
  <fix>3d</fix>
</trkpt>
<trkpt lat="33.810313" lon="-118.393867">
  <ele>-0.13</ele>
  <time>2026-09-01T01:12:56Z</time>
  <course>0.0</course>
  <speed>0.0</speed>
  <fix>3d</fix>
</trkpt>
<trkpt lat="33.810313" lon="-118.393867">
  <ele>0.0</ele>
  <time>2026-09-01T01:12:56Z</time>
  <course>185.58</course>
  <speed>0.0</speed>
  <fix>3d</fix>
</trkpt>
<trkpt lat="33.810313" lon="-118.393867">
  <ele>-0.13</ele>
  <time>2026-09-01T01:12:56Z</time>
  <course>0.0</course>
  <speed>0.0</speed>
  <fix>3d</fix>
</trkpt>
<trkpt lat="33.810313" lon="-118.393867">
  <ele>0.0</ele>
  <time>2026-09-01T01:12:56Z</time>
  <course>185.73</course>
  <speed>0.0</speed>
  <fix>3d</fix>
</trkpt>
<trkpt lat="33.810313" lon="-118.393867">
  <ele>-0.13</ele>
  <time>2026-09-01T01:12:56Z</time>
  <course>0.0</course>
  <speed>0.0</speed>
  <fix>3d</fix>
</trkpt>
<trkpt lat="33.810313" lon="-118.393867">
  <ele>0.0</ele>
  <time>2026-09-01T01:12:56Z</time>
  <course>185.87</course>
  <speed>0.0</speed>
  <fix>3d</fix>
</trkpt>
<trkpt lat="33.810313" lon="-118.393867">
  <ele>-0.13</ele>
  <time>2026-09-01T01:12:56Z</time>
  <course>0.0</course>
  <speed>0.0</speed>
  <fix>3d</fix>
</trkpt>
<trkpt lat="33.810313" lon="-118.393867">
  <ele>0.0</ele>
  <time>2026-09-01T01:12:56Z</time>
  <course>186.01</course>
  <speed>0.0</speed>
  <fix>3d</fix>
</trkpt>
<trkpt lat="33.810313" lon="-118.393867">
  <ele>-0.12</ele>
  <time>2026-09-01T01:12:56Z</time>
  <course>0.0</course>
  <speed>0.0</speed>
  <fix>3d</fix>
</trkpt>
<trkpt lat="33.810313" lon="-118.393867">
  <ele>0.0</ele>
  <time>2026-09-01T01:12:56Z</time>
  <course>186.14</course>
  <speed>0.0</speed>
  <fix>3d</fix>
</trkpt>
<trkpt lat="33.810313" lon="-118.393867">
  <ele>-0.12</ele>
  <time>2026-09-01T01:12:56Z</time>
  <course>0.0</course>
  <speed>0.0</speed>
  <fix>3d</fix>
</trkpt>
<trkpt lat="33.810313" lon="-118.393867">
  <ele>0.0</ele>
  <time>2026-09-01T01:12:56Z</time>
  <course>186.27</course>
  <speed>0.0</speed>
  <fix>3d</fix>
</trkpt>
<trkpt lat="33.810313" lon="-118.393867">
  <ele>-0.12</ele>
  <time>2026-09-01T01:12:56Z</time>
  <course>0.0</course>
  <speed>0.0</speed>
  <fix>3d</fix>
</trkpt>
<trkpt lat="33.810313" lon="-118.393867">
  <ele>0.0</ele>
  <time>2026-09-01T01:12:56Z</time>
  <course>186.39</course>
  <speed>0.0</speed>
  <fix>3d</fix>
</trkpt>
<trkpt lat="33.810313" lon="-118.393867">
  <ele>-0.12</ele>
  <time>2026-09-01T01:12:56Z</time>
  <course>0.0</course>
  <speed>0.0</speed>
  <fix>3d</fix>
</trkpt>
<trkpt lat="33.810313" lon="-118.393867">
  <ele>0.0</ele>
  <time>2026-09-01T01:12:56Z</time>
  <course>186.5</course>
  <speed>0.0</speed>
  <fix>3d</fix>
</trkpt>
<trkpt lat="33.810313" lon="-118.393867">
  <ele>-0.12</ele>
  <time>2026-09-01T01:12:56Z</time>
  <course>0.0</course>
  <speed>0.0</speed>
  <fix>3d</fix>
</trkpt>
<trkpt lat="33.810313" lon="-118.393867">
  <ele>0.0</ele>
  <time>2026-09-01T01:12:56Z</time>
  <course>186.61</course>
  <speed>0.0</speed>
  <fix>3d</fix>
</trkpt>
<trkpt lat="33.810313" lon="-118.393867">
  <ele>-0.12</ele>
  <time>2026-09-01T01:12:56Z</time>
  <course>0.0</course>
  <speed>0.0</speed>
  <fix>3d</fix>
</trkpt>
<trkpt lat="33.810313" lon="-118.393867">
  <ele>0.0</ele>
  <time>2026-09-01T01:12:56Z</time>
  <course>186.72</course>
  <speed>0.0</speed>
  <fix>3d</fix>
</trkpt>
<trkpt lat="33.810313" lon="-118.393867">
  <ele>-0.12</ele>
  <time>2026-09-01T01:12:56Z</time>
  <course>0.0</course>
  <speed>0.0</speed>
  <fix>3d</fix>
</trkpt>
<trkpt lat="33.810313" lon="-118.393867">
  <ele>0.0</ele>
  <time>2026-09-01T01:12:56Z</time>
  <course>186.82</course>
  <speed>0.0</speed>
  <fix>3d</fix>
</trkpt>
<trkpt lat="33.810313" lon="-118.393867">
  <ele>-0.12</ele>
  <time>2026-09-01T01:12:56Z</time>
  <course>0.0</course>
  <speed>0.0</speed>
  <fix>3d</fix>
</trkpt>
<trkpt lat="33.810313" lon="-118.393867">
  <ele>0.0</ele>
  <time>2026-09-01T01:12:56Z</time>
  <course>187.17</course>
  <speed>0.0</speed>
  <fix>3d</fix>
</trkpt>
<trkpt lat="33.810313" lon="-118.393867">
  <ele>-0.13</ele>
  <time>2026-09-01T01:12:56Z</time>
  <course>0.0</course>
  <speed>0.0</speed>
  <fix>3d</fix>
</trkpt>
<trkpt lat="33.810313" lon="-118.393867">
  <ele>0.0</ele>
  <time>2026-09-01T01:12:57Z</time>
  <course>187.4</course>
  <speed>0.0</speed>
  <fix>3d</fix>
</trkpt>
<trkpt lat="33.810313" lon="-118.393867">
  <ele>-0.13</ele>
  <time>2026-09-01T01:12:57Z</time>
  <course>0.0</course>
  <speed>0.0</speed>
  <fix>3d</fix>
</trkpt>
<trkpt lat="33.810313" lon="-118.393867">
  <ele>0.0</ele>
  <time>2026-09-01T01:12:57Z</time>
  <course>187.47</course>
  <speed>0.0</speed>
  <fix>3d</fix>
</trkpt>
<trkpt lat="33.810313" lon="-118.393867">
  <ele>-0.13</ele>
  <time>2026-09-01T01:12:57Z</time>
  <course>0.0</course>
  <speed>0.0</speed>
  <fix>3d</fix>
</trkpt>
<trkpt lat="33.810313" lon="-118.393867">
  <ele>0.0</ele>
  <time>2026-09-01T01:12:57Z</time>
  <course>187.53</course>
  <speed>0.0</speed>
  <fix>3d</fix>
</trkpt>
<trkpt lat="33.810313" lon="-118.393867">
  <ele>-0.13</ele>
  <time>2026-09-01T01:12:57Z</time>
  <course>0.0</course>
  <speed>0.0</speed>
  <fix>3d</fix>
</trkpt>
<trkpt lat="33.810313" lon="-118.393867">
  <ele>0.0</ele>
  <time>2026-09-01T01:12:57Z</time>
  <course>187.59</course>
  <speed>0.0</speed>
  <fix>3d</fix>
</trkpt>
<trkpt lat="33.810313" lon="-118.393867">
  <ele>-0.13</ele>
  <time>2026-09-01T01:12:57Z</time>
  <course>0.0</course>
  <speed>0.0</speed>
  <fix>3d</fix>
</trkpt>
<trkpt lat="33.810313" lon="-118.393867">
  <ele>0.0</ele>
  <time>2026-09-01T01:12:57Z</time>
  <course>187.65</course>
  <speed>0.0</speed>
  <fix>3d</fix>
</trkpt>
<trkpt lat="33.810313" lon="-118.393867">
  <ele>-0.12</ele>
  <time>2026-09-01T01:12:57Z</time>
  <course>0.0</course>
  <speed>0.0</speed>
  <fix>3d</fix>
</trkpt>
<trkpt lat="33.810313" lon="-118.393867">
  <ele>0.0</ele>
  <time>2026-09-01T01:12:57Z</time>
  <course>187.71</course>
  <speed>0.0</speed>
  <fix>3d</fix>
</trkpt>
<trkpt lat="33.810313" lon="-118.393867">
  <ele>-0.12</ele>
  <time>2026-09-01T01:12:57Z</time>
  <course>0.0</course>
  <speed>0.0</speed>
  <fix>3d</fix>
</trkpt>
<trkpt lat="33.810313" lon="-118.393867">
  <ele>0.0</ele>
  <time>2026-09-01T01:12:57Z</time>
  <course>187.76</course>
  <speed>0.0</speed>
  <fix>3d</fix>
</trkpt>
<trkpt lat="33.810313" lon="-118.393867">
  <ele>-0.12</ele>
  <time>2026-09-01T01:12:57Z</time>
  <course>0.0</course>
  <speed>0.0</speed>
  <fix>3d</fix>
</trkpt>
<trkpt lat="33.810313" lon="-118.393867">
  <ele>0.0</ele>
  <time>2026-09-01T01:12:57Z</time>
  <course>187.81</course>
  <speed>0.0</speed>
  <fix>3d</fix>
</trkpt>
<trkpt lat="33.810313" lon="-118.393867">
  <ele>-0.12</ele>
  <time>2026-09-01T01:12:57Z</time>
  <course>0.0</course>
  <speed>0.0</speed>
  <fix>3d</fix>
</trkpt>
<trkpt lat="33.810313" lon="-118.393867">
  <ele>0.0</ele>
  <time>2026-09-01T01:12:57Z</time>
  <course>187.86</course>
  <speed>0.0</speed>
  <fix>3d</fix>
</trkpt>
<trkpt lat="33.810313" lon="-118.393867">
  <ele>-0.12</ele>
  <time>2026-09-01T01:12:57Z</time>
  <course>0.0</course>
  <speed>0.0</speed>
  <fix>3d</fix>
</trkpt>
<trkpt lat="33.810313" lon="-118.393867">
  <ele>0.0</ele>
  <time>2026-09-01T01:12:57Z</time>
  <course>187.91</course>
  <speed>0.0</speed>
  <fix>3d</fix>
</trkpt>
<trkpt lat="33.810313" lon="-118.393867">
  <ele>-0.12</ele>
  <time>2026-09-01T01:12:57Z</time>
  <course>0.0</course>
  <speed>0.0</speed>
  <fix>3d</fix>
</trkpt>
<trkpt lat="33.810313" lon="-118.393867">
  <ele>0.0</ele>
  <time>2026-09-01T01:12:57Z</time>
  <course>187.95</course>
  <speed>0.0</speed>
  <fix>3d</fix>
</trkpt>
<trkpt lat="33.810313" lon="-118.393867">
  <ele>-0.12</ele>
  <time>2026-09-01T01:12:57Z</time>
  <course>0.0</course>
  <speed>0.0</speed>
  <fix>3d</fix>
</trkpt>
<trkpt lat="33.810313" lon="-118.393867">
  <ele>0.0</ele>
  <time>2026-09-01T01:12:57Z</time>
  <course>187.99</course>
  <speed>0.0</speed>
  <fix>3d</fix>
</trkpt>
<trkpt lat="33.810313" lon="-118.393867">
  <ele>-0.12</ele>
  <time>2026-09-01T01:12:57Z</time>
  <course>0.0</course>
  <speed>0.0</speed>
  <fix>3d</fix>
</trkpt>
<trkpt lat="33.810313" lon="-118.393867">
  <ele>0.0</ele>
  <time>2026-09-01T01:12:57Z</time>
  <course>188.03</course>
  <speed>0.0</speed>
  <fix>3d</fix>
</trkpt>
<trkpt lat="33.810313" lon="-118.393867">
  <ele>-0.12</ele>
  <time>2026-09-01T01:12:57Z</time>
  <course>0.0</course>
  <speed>0.0</speed>
  <fix>3d</fix>
</trkpt>
<trkpt lat="33.810313" lon="-118.393867">
  <ele>0.0</ele>
  <time>2026-09-01T01:12:57Z</time>
  <course>188.07</course>
  <speed>0.0</speed>
  <fix>3d</fix>
</trkpt>
<trkpt lat="33.810313" lon="-118.393867">
  <ele>-0.12</ele>
  <time>2026-09-01T01:12:57Z</time>
  <course>0.0</course>
  <speed>0.0</speed>
  <fix>3d</fix>
</trkpt>
<trkpt lat="33.810313" lon="-118.393867">
  <ele>0.0</ele>
  <time>2026-09-01T01:12:57Z</time>
  <course>188.1</course>
  <speed>0.0</speed>
  <fix>3d</fix>
</trkpt>
<trkpt lat="33.810313" lon="-118.393867">
  <ele>-0.13</ele>
  <time>2026-09-01T01:12:57Z</time>
  <course>0.0</course>
  <speed>0.0</speed>
  <fix>3d</fix>
</trkpt>
<trkpt lat="33.810313" lon="-118.393867">
  <ele>0.0</ele>
  <time>2026-09-01T01:12:57Z</time>
  <course>188.13</course>
  <speed>0.0</speed>
  <fix>3d</fix>
</trkpt>
<trkpt lat="33.810313" lon="-118.393867">
  <ele>-0.13</ele>
  <time>2026-09-01T01:12:57Z</time>
  <course>0.0</course>
  <speed>0.0</speed>
  <fix>3d</fix>
</trkpt>
<trkpt lat="33.810313" lon="-118.393867">
  <ele>0.0</ele>
  <time>2026-09-01T01:12:57Z</time>
  <course>188.17</course>
  <speed>0.0</speed>
  <fix>3d</fix>
</trkpt>
<trkpt lat="33.810313" lon="-118.393867">
  <ele>-0.13</ele>
  <time>2026-09-01T01:12:57Z</time>
  <course>0.0</course>
  <speed>0.0</speed>
  <fix>3d</fix>
</trkpt>
<trkpt lat="33.810313" lon="-118.393867">
  <ele>0.0</ele>
  <time>2026-09-01T01:12:57Z</time>
  <course>188.19</course>
  <speed>0.0</speed>
  <fix>3d</fix>
</trkpt>
<trkpt lat="33.810313" lon="-118.393867">
  <ele>-0.13</ele>
  <time>2026-09-01T01:12:57Z</time>
  <course>0.0</course>
  <speed>0.0</speed>
  <fix>3d</fix>
</trkpt>
<trkpt lat="33.810313" lon="-118.393867">
  <ele>0.0</ele>
  <time>2026-09-01T01:12:57Z</time>
  <course>188.22</course>
  <speed>0.0</speed>
  <fix>3d</fix>
</trkpt>
<trkpt lat="33.810313" lon="-118.393867">
  <ele>-0.13</ele>
  <time>2026-09-01T01:12:57Z</time>
  <course>0.0</course>
  <speed>0.0</speed>
  <fix>3d</fix>
</trkpt>
<trkpt lat="33.810313" lon="-118.393867">
  <ele>0.0</ele>
  <time>2026-09-01T01:12:57Z</time>
  <course>188.25</course>
  <speed>0.0</speed>
  <fix>3d</fix>
</trkpt>
<trkpt lat="33.810313" lon="-118.393867">
  <ele>-0.13</ele>
  <time>2026-09-01T01:12:57Z</time>
  <course>0.0</course>
  <speed>0.0</speed>
  <fix>3d</fix>
</trkpt>
<trkpt lat="33.810313" lon="-118.393867">
  <ele>0.0</ele>
  <time>2026-09-01T01:12:57Z</time>
  <course>188.27</course>
  <speed>0.0</speed>
  <fix>3d</fix>
</trkpt>
<trkpt lat="33.810313" lon="-118.393867">
  <ele>-0.12</ele>
  <time>2026-09-01T01:12:57Z</time>
  <course>0.0</course>
  <speed>0.0</speed>
  <fix>3d</fix>
</trkpt>
<trkpt lat="33.810313" lon="-118.393867">
  <ele>0.0</ele>
  <time>2026-09-01T01:12:57Z</time>
  <course>188.3</course>
  <speed>0.0</speed>
  <fix>3d</fix>
</trkpt>
<trkpt lat="33.810313" lon="-118.393867">
  <ele>-0.12</ele>
  <time>2026-09-01T01:12:57Z</time>
  <course>0.0</course>
  <speed>0.0</speed>
  <fix>3d</fix>
</trkpt>
<trkpt lat="33.810313" lon="-118.393867">
  <ele>0.0</ele>
  <time>2026-09-01T01:12:57Z</time>
  <course>188.32</course>
  <speed>0.0</speed>
  <fix>3d</fix>
</trkpt>
<trkpt lat="33.810313" lon="-118.393867">
  <ele>-0.12</ele>
  <time>2026-09-01T01:12:57Z</time>
  <course>0.0</course>
  <speed>0.0</speed>
  <fix>3d</fix>
</trkpt>
<trkpt lat="33.810313" lon="-118.393867">
  <ele>0.0</ele>
  <time>2026-09-01T01:12:57Z</time>
  <course>188.34</course>
  <speed>0.0</speed>
  <fix>3d</fix>
</trkpt>
<trkpt lat="33.810313" lon="-118.393867">
  <ele>-0.12</ele>
  <time>2026-09-01T01:12:57Z</time>
  <course>0.0</course>
  <speed>0.0</speed>
  <fix>3d</fix>
</trkpt>
<trkpt lat="33.810313" lon="-118.393867">
  <ele>0.0</ele>
  <time>2026-09-01T01:12:57Z</time>
  <course>188.36</course>
  <speed>0.0</speed>
  <fix>3d</fix>
</trkpt>
<trkpt lat="33.810313" lon="-118.393867">
  <ele>-0.12</ele>
  <time>2026-09-01T01:12:57Z</time>
  <course>0.0</course>
  <speed>0.0</speed>
  <fix>3d</fix>
</trkpt>
<trkpt lat="33.810313" lon="-118.393867">
  <ele>0.0</ele>
  <time>2026-09-01T01:12:57Z</time>
  <course>188.38</course>
  <speed>0.0</speed>
  <fix>3d</fix>
</trkpt>
<trkpt lat="33.810313" lon="-118.393867">
  <ele>-0.12</ele>
  <time>2026-09-01T01:12:57Z</time>
  <course>0.0</course>
  <speed>0.0</speed>
  <fix>3d</fix>
</trkpt>
<trkpt lat="33.810313" lon="-118.393867">
  <ele>0.0</ele>
  <time>2026-09-01T01:12:57Z</time>
  <course>188.39</course>
  <speed>0.0</speed>
  <fix>3d</fix>
</trkpt>
<trkpt lat="33.810313" lon="-118.393867">
  <ele>-0.12</ele>
  <time>2026-09-01T01:12:57Z</time>
  <course>0.0</course>
  <speed>0.0</speed>
  <fix>3d</fix>
</trkpt>
<trkpt lat="33.810313" lon="-118.393867">
  <ele>0.0</ele>
  <time>2026-09-01T01:12:57Z</time>
  <course>188.41</course>
  <speed>0.0</speed>
  <fix>3d</fix>
</trkpt>
<trkpt lat="33.810313" lon="-118.393867">
  <ele>-0.12</ele>
  <time>2026-09-01T01:12:57Z</time>
  <course>0.0</course>
  <speed>0.0</speed>
  <fix>3d</fix>
</trkpt>
<trkpt lat="33.810313" lon="-118.393867">
  <ele>0.0</ele>
  <time>2026-09-01T01:12:57Z</time>
  <course>188.43</course>
  <speed>0.0</speed>
  <fix>3d</fix>
</trkpt>
<trkpt lat="33.810313" lon="-118.393867">
  <ele>-0.12</ele>
  <time>2026-09-01T01:12:57Z</time>
  <course>0.0</course>
  <speed>0.0</speed>
  <fix>3d</fix>
</trkpt>
<trkpt lat="33.810313" lon="-118.393867">
  <ele>0.0</ele>
  <time>2026-09-01T01:12:57Z</time>
  <course>188.44</course>
  <speed>0.0</speed>
  <fix>3d</fix>
</trkpt>
<trkpt lat="33.810313" lon="-118.393867">
  <ele>-0.12</ele>
  <time>2026-09-01T01:12:57Z</time>
  <course>0.0</course>
  <speed>0.0</speed>
  <fix>3d</fix>
</trkpt>
<trkpt lat="33.810313" lon="-118.393867">
  <ele>0.0</ele>
  <time>2026-09-01T01:12:57Z</time>
  <course>188.45</course>
  <speed>0.0</speed>
  <fix>3d</fix>
</trkpt>
<trkpt lat="33.810313" lon="-118.393867">
  <ele>-0.13</ele>
  <time>2026-09-01T01:12:57Z</time>
  <course>0.0</course>
  <speed>0.0</speed>
  <fix>3d</fix>
</trkpt>
<trkpt lat="33.810313" lon="-118.393867">
  <ele>0.0</ele>
  <time>2026-09-01T01:12:57Z</time>
  <course>188.46</course>
  <speed>0.0</speed>
  <fix>3d</fix>
</trkpt>
<trkpt lat="33.810313" lon="-118.393867">
  <ele>-0.13</ele>
  <time>2026-09-01T01:12:57Z</time>
  <course>0.0</course>
  <speed>0.0</speed>
  <fix>3d</fix>
</trkpt>
<trkpt lat="33.810313" lon="-118.393867">
  <ele>0.0</ele>
  <time>2026-09-01T01:12:57Z</time>
  <course>188.48</course>
  <speed>0.0</speed>
  <fix>3d</fix>
</trkpt>
<trkpt lat="33.810313" lon="-118.393867">
  <ele>-0.13</ele>
  <time>2026-09-01T01:12:57Z</time>
  <course>0.0</course>
  <speed>0.0</speed>
  <fix>3d</fix>
</trkpt>
<trkpt lat="33.810313" lon="-118.393867">
  <ele>0.0</ele>
  <time>2026-09-01T01:12:57Z</time>
  <course>188.49</course>
  <speed>0.0</speed>
  <fix>3d</fix>
</trkpt>
<trkpt lat="33.810313" lon="-118.393867">
  <ele>-0.13</ele>
  <time>2026-09-01T01:12:57Z</time>
  <course>0.0</course>
  <speed>0.0</speed>
  <fix>3d</fix>
</trkpt>
<trkpt lat="33.810313" lon="-118.393867">
  <ele>0.0</ele>
  <time>2026-09-01T01:12:57Z</time>
  <course>188.49</course>
  <speed>0.0</speed>
  <fix>3d</fix>
</trkpt>
<trkpt lat="33.810313" lon="-118.393867">
  <ele>-0.13</ele>
  <time>2026-09-01T01:12:57Z</time>
  <course>0.0</course>
  <speed>0.0</speed>
  <fix>3d</fix>
</trkpt>
<trkpt lat="33.810313" lon="-118.393867">
  <ele>0.0</ele>
  <time>2026-09-01T01:12:57Z</time>
  <course>188.5</course>
  <speed>0.0</speed>
  <fix>3d</fix>
</trkpt>
<trkpt lat="33.810313" lon="-118.393867">
  <ele>-0.13</ele>
  <time>2026-09-01T01:12:57Z</time>
  <course>0.0</course>
  <speed>0.0</speed>
  <fix>3d</fix>
</trkpt>
<trkpt lat="33.810313" lon="-118.393867">
  <ele>0.0</ele>
  <time>2026-09-01T01:12:57Z</time>
  <course>188.51</course>
  <speed>0.0</speed>
  <fix>3d</fix>
</trkpt>
<trkpt lat="33.810313" lon="-118.393867">
  <ele>-0.12</ele>
  <time>2026-09-01T01:12:57Z</time>
  <course>0.0</course>
  <speed>0.0</speed>
  <fix>3d</fix>
</trkpt>
<trkpt lat="33.810313" lon="-118.393867">
  <ele>0.0</ele>
  <time>2026-09-01T01:12:57Z</time>
  <course>188.52</course>
  <speed>0.0</speed>
  <fix>3d</fix>
</trkpt>
<trkpt lat="33.810313" lon="-118.393867">
  <ele>-0.12</ele>
  <time>2026-09-01T01:12:57Z</time>
  <course>0.0</course>
  <speed>0.0</speed>
  <fix>3d</fix>
</trkpt>
<trkpt lat="33.810313" lon="-118.393867">
  <ele>0.0</ele>
  <time>2026-09-01T01:12:57Z</time>
  <course>188.53</course>
  <speed>0.0</speed>
  <fix>3d</fix>
</trkpt>
<trkpt lat="33.810313" lon="-118.393867">
  <ele>-0.12</ele>
  <time>2026-09-01T01:12:57Z</time>
  <course>0.0</course>
  <speed>0.0</speed>
  <fix>3d</fix>
</trkpt>
<trkpt lat="33.810313" lon="-118.393867">
  <ele>0.0</ele>
  <time>2026-09-01T01:12:57Z</time>
  <course>188.53</course>
  <speed>0.0</speed>
  <fix>3d</fix>
</trkpt>
<trkpt lat="33.810313" lon="-118.393867">
  <ele>-0.12</ele>
  <time>2026-09-01T01:12:57Z</time>
  <course>0.0</course>
  <speed>0.0</speed>
  <fix>3d</fix>
</trkpt>
<trkpt lat="33.810313" lon="-118.393867">
  <ele>0.0</ele>
  <time>2026-09-01T01:12:57Z</time>
  <course>188.54</course>
  <speed>0.0</speed>
  <fix>3d</fix>
</trkpt>
<trkpt lat="33.810313" lon="-118.393867">
  <ele>-0.12</ele>
  <time>2026-09-01T01:12:57Z</time>
  <course>0.0</course>
  <speed>0.0</speed>
  <fix>3d</fix>
</trkpt>
<trkpt lat="33.810313" lon="-118.393867">
  <ele>0.0</ele>
  <time>2026-09-01T01:12:57Z</time>
  <course>188.54</course>
  <speed>0.0</speed>
  <fix>3d</fix>
</trkpt>
<trkpt lat="33.810313" lon="-118.393867">
  <ele>-0.12</ele>
  <time>2026-09-01T01:12:57Z</time>
  <course>0.0</course>
  <speed>0.0</speed>
  <fix>3d</fix>
</trkpt>
<trkpt lat="33.810313" lon="-118.393867">
  <ele>0.0</ele>
  <time>2026-09-01T01:12:57Z</time>
  <course>188.54</course>
  <speed>0.0</speed>
  <fix>3d</fix>
</trkpt>
<trkpt lat="33.810313" lon="-118.393867">
  <ele>-0.12</ele>
  <time>2026-09-01T01:12:57Z</time>
  <course>0.0</course>
  <speed>0.0</speed>
  <fix>3d</fix>
</trkpt>
<trkpt lat="33.810313" lon="-118.393867">
  <ele>0.0</ele>
  <time>2026-09-01T01:12:57Z</time>
  <course>188.55</course>
  <speed>0.0</speed>
  <fix>3d</fix>
</trkpt>
<trkpt lat="33.810313" lon="-118.393867">
  <ele>-0.12</ele>
  <time>2026-09-01T01:12:57Z</time>
  <course>0.0</course>
  <speed>0.0</speed>
  <fix>3d</fix>
</trkpt>
<trkpt lat="33.810313" lon="-118.393867">
  <ele>0.0</ele>
  <time>2026-09-01T01:12:57Z</time>
  <course>188.55</course>
  <speed>0.0</speed>
  <fix>3d</fix>
</trkpt>
<trkpt lat="33.810313" lon="-118.393867">
  <ele>-0.12</ele>
  <time>2026-09-01T01:12:57Z</time>
  <course>0.0</course>
  <speed>0.0</speed>
  <fix>3d</fix>
</trkpt>
<trkpt lat="33.810313" lon="-118.393867">
  <ele>0.0</ele>
  <time>2026-09-01T01:12:57Z</time>
  <course>188.55</course>
  <speed>0.0</speed>
  <fix>3d</fix>
</trkpt>
<trkpt lat="33.810313" lon="-118.393867">
  <ele>-0.12</ele>
  <time>2026-09-01T01:12:57Z</time>
  <course>0.0</course>
  <speed>0.0</speed>
  <fix>3d</fix>
</trkpt>
<trkpt lat="33.810313" lon="-118.393867">
  <ele>-0.126</ele>
  <time>2026-09-01T01:12:57Z</time>
  <course>188.55</course>
  <speed>0.0</speed>
  <fix>3d</fix>
</trkpt>
<trkpt lat="33.810313" lon="-118.393867">
  <ele>-0.13</ele>
  <time>2026-09-01T01:12:57Z</time>
  <course>0.0</course>
  <speed>0.0</speed>
  <fix>3d</fix>
</trkpt>
<trkpt lat="33.810313" lon="-118.393867">
  <ele>-0.126</ele>
  <time>2026-09-01T01:12:57Z</time>
  <course>188.56</course>
  <speed>0.0</speed>
  <fix>3d</fix>
</trkpt>
<trkpt lat="33.810313" lon="-118.393867">
  <ele>-0.13</ele>
  <time>2026-09-01T01:12:57Z</time>
  <course>0.0</course>
  <speed>0.0</speed>
  <fix>3d</fix>
</trkpt>
<trkpt lat="33.810313" lon="-118.393867">
  <ele>-0.124</ele>
  <time>2026-09-01T01:12:57Z</time>
  <course>188.56</course>
  <speed>0.0</speed>
  <fix>3d</fix>
</trkpt>
<trkpt lat="33.810313" lon="-118.393867">
  <ele>-0.13</ele>
  <time>2026-09-01T01:12:57Z</time>
  <course>0.0</course>
  <speed>0.0</speed>
  <fix>3d</fix>
</trkpt>
<trkpt lat="33.810313" lon="-118.393867">
  <ele>-0.123</ele>
  <time>2026-09-01T01:12:57Z</time>
  <course>188.56</course>
  <speed>0.0</speed>
  <fix>3d</fix>
</trkpt>
<trkpt lat="33.810313" lon="-118.393867">
  <ele>-0.13</ele>
  <time>2026-09-01T01:12:57Z</time>
  <course>0.0</course>
  <speed>0.0</speed>
  <fix>3d</fix>
</trkpt>
<trkpt lat="33.810313" lon="-118.393867">
  <ele>-0.121</ele>
  <time>2026-09-01T01:12:57Z</time>
  <course>188.56</course>
  <speed>0.0</speed>
  <fix>3d</fix>
</trkpt>
<trkpt lat="33.810313" lon="-118.393867">
  <ele>-0.12</ele>
  <time>2026-09-01T01:12:57Z</time>
  <course>0.0</course>
  <speed>0.0</speed>
  <fix>3d</fix>
</trkpt>
<trkpt lat="33.810313" lon="-118.393867">
  <ele>-0.12</ele>
  <time>2026-09-01T01:12:57Z</time>
  <course>188.56</course>
  <speed>0.0</speed>
  <fix>3d</fix>
</trkpt>
<trkpt lat="33.810313" lon="-118.393867">
  <ele>-0.12</ele>
  <time>2026-09-01T01:12:57Z</time>
  <course>0.0</course>
  <speed>0.0</speed>
  <fix>3d</fix>
</trkpt>
<trkpt lat="33.810313" lon="-118.393867">
  <ele>-0.119</ele>
  <time>2026-09-01T01:12:57Z</time>
  <course>188.56</course>
  <speed>0.0</speed>
  <fix>3d</fix>
</trkpt>
<trkpt lat="33.810313" lon="-118.393867">
  <ele>-0.12</ele>
  <time>2026-09-01T01:12:57Z</time>
  <course>0.0</course>
  <speed>0.0</speed>
  <fix>3d</fix>
</trkpt>
<trkpt lat="33.810313" lon="-118.393867">
  <ele>-0.12</ele>
  <time>2026-09-01T01:12:57Z</time>
  <course>188.56</course>
  <speed>0.0</speed>
  <fix>3d</fix>
</trkpt>
<trkpt lat="33.810313" lon="-118.393867">
  <ele>-0.12</ele>
  <time>2026-09-01T01:12:57Z</time>
  <course>0.0</course>
  <speed>0.0</speed>
  <fix>3d</fix>
</trkpt>
<trkpt lat="33.810313" lon="-118.393867">
  <ele>-0.124</ele>
  <time>2026-09-01T01:12:57Z</time>
  <course>188.55</course>
  <speed>0.0</speed>
  <fix>3d</fix>
</trkpt>
<trkpt lat="33.810313" lon="-118.393867">
  <ele>-0.12</ele>
  <time>2026-09-01T01:12:57Z</time>
  <course>0.0</course>
  <speed>0.0</speed>
  <fix>3d</fix>
</trkpt>
<trkpt lat="33.810313" lon="-118.393867">
  <ele>-0.127</ele>
  <time>2026-09-01T01:12:57Z</time>
  <course>188.55</course>
  <speed>0.0</speed>
  <fix>3d</fix>
</trkpt>
<trkpt lat="33.810313" lon="-118.393867">
  <ele>-0.12</ele>
  <time>2026-09-01T01:12:57Z</time>
  <course>0.0</course>
  <speed>0.0</speed>
  <fix>3d</fix>
</trkpt>
<trkpt lat="33.810313" lon="-118.393867">
  <ele>-0.13</ele>
  <time>2026-09-01T01:12:57Z</time>
  <course>188.55</course>
  <speed>0.0</speed>
  <fix>3d</fix>
</trkpt>
<trkpt lat="33.810313" lon="-118.393867">
  <ele>-0.12</ele>
  <time>2026-09-01T01:12:57Z</time>
  <course>0.0</course>
  <speed>0.0</speed>
  <fix>3d</fix>
</trkpt>
<trkpt lat="33.810313" lon="-118.393867">
  <ele>-0.132</ele>
  <time>2026-09-01T01:12:57Z</time>
  <course>188.55</course>
  <speed>0.0</speed>
  <fix>3d</fix>
</trkpt>
<trkpt lat="33.810313" lon="-118.393867">
  <ele>-0.12</ele>
  <time>2026-09-01T01:12:57Z</time>
  <course>0.0</course>
  <speed>0.0</speed>
  <fix>3d</fix>
</trkpt>
<trkpt lat="33.810313" lon="-118.393867">
  <ele>-0.132</ele>
  <time>2026-09-01T01:12:57Z</time>
  <course>188.55</course>
  <speed>0.0</speed>
  <fix>3d</fix>
</trkpt>
<trkpt lat="33.810313" lon="-118.393867">
  <ele>-0.12</ele>
  <time>2026-09-01T01:12:57Z</time>
  <course>0.0</course>
  <speed>0.0</speed>
  <fix>3d</fix>
</trkpt>
<trkpt lat="33.810313" lon="-118.393867">
  <ele>-0.132</ele>
  <time>2026-09-01T01:12:57Z</time>
  <course>188.55</course>
  <speed>0.0</speed>
  <fix>3d</fix>
</trkpt>
<trkpt lat="33.810313" lon="-118.393867">
  <ele>-0.12</ele>
  <time>2026-09-01T01:12:57Z</time>
  <course>0.0</course>
  <speed>0.0</speed>
  <fix>3d</fix>
</trkpt>
<trkpt lat="33.810313" lon="-118.393867">
  <ele>-0.132</ele>
  <time>2026-09-01T01:12:57Z</time>
  <course>188.55</course>
  <speed>0.0</speed>
  <fix>3d</fix>
</trkpt>
<trkpt lat="33.810313" lon="-118.393867">
  <ele>-0.12</ele>
  <time>2026-09-01T01:12:57Z</time>
  <course>0.0</course>
  <speed>0.0</speed>
  <fix>3d</fix>
</trkpt>
<trkpt lat="33.810313" lon="-118.393867">
  <ele>-0.131</ele>
  <time>2026-09-01T01:12:57Z</time>
  <course>188.55</course>
  <speed>0.0</speed>
  <fix>3d</fix>
</trkpt>
<trkpt lat="33.810313" lon="-118.393867">
  <ele>-0.12</ele>
  <time>2026-09-01T01:12:57Z</time>
  <course>0.0</course>
  <speed>0.0</speed>
  <fix>3d</fix>
</trkpt>
<trkpt lat="33.810313" lon="-118.393867">
  <ele>-0.129</ele>
  <time>2026-09-01T01:12:57Z</time>
  <course>188.54</course>
  <speed>0.0</speed>
  <fix>3d</fix>
</trkpt>
<trkpt lat="33.810313" lon="-118.393867">
  <ele>-0.13</ele>
  <time>2026-09-01T01:12:57Z</time>
  <course>0.0</course>
  <speed>0.0</speed>
  <fix>3d</fix>
</trkpt>
<trkpt lat="33.810313" lon="-118.393867">
  <ele>-0.128</ele>
  <time>2026-09-01T01:12:57Z</time>
  <course>188.54</course>
  <speed>0.0</speed>
  <fix>3d</fix>
</trkpt>
<trkpt lat="33.810313" lon="-118.393867">
  <ele>-0.13</ele>
  <time>2026-09-01T01:12:57Z</time>
  <course>0.0</course>
  <speed>0.0</speed>
  <fix>3d</fix>
</trkpt>
<trkpt lat="33.810313" lon="-118.393867">
  <ele>-0.125</ele>
  <time>2026-09-01T01:12:57Z</time>
  <course>188.53</course>
  <speed>0.0</speed>
  <fix>3d</fix>
</trkpt>
<trkpt lat="33.810313" lon="-118.393867">
  <ele>-0.12</ele>
  <time>2026-09-01T01:12:57Z</time>
  <course>0.0</course>
  <speed>0.0</speed>
  <fix>3d</fix>
</trkpt>
<trkpt lat="33.810313" lon="-118.393867">
  <ele>-0.123</ele>
  <time>2026-09-01T01:12:57Z</time>
  <course>188.53</course>
  <speed>0.0</speed>
  <fix>3d</fix>
</trkpt>
<trkpt lat="33.810313" lon="-118.393867">
  <ele>-0.12</ele>
  <time>2026-09-01T01:12:57Z</time>
  <course>0.0</course>
  <speed>0.0</speed>
  <fix>3d</fix>
</trkpt>
<trkpt lat="33.810313" lon="-118.393867">
  <ele>-0.121</ele>
  <time>2026-09-01T01:12:57Z</time>
  <course>188.52</course>
  <speed>0.0</speed>
  <fix>3d</fix>
</trkpt>
<trkpt lat="33.810313" lon="-118.393867">
  <ele>-0.12</ele>
  <time>2026-09-01T01:12:57Z</time>
  <course>0.0</course>
  <speed>0.0</speed>
  <fix>3d</fix>
</trkpt>
<trkpt lat="33.810313" lon="-118.393867">
  <ele>-0.121</ele>
  <time>2026-09-01T01:12:57Z</time>
  <course>188.52</course>
  <speed>0.0</speed>
  <fix>3d</fix>
</trkpt>
<trkpt lat="33.810313" lon="-118.393867">
  <ele>-0.12</ele>
  <time>2026-09-01T01:12:57Z</time>
  <course>0.0</course>
  <speed>0.0</speed>
  <fix>3d</fix>
</trkpt>
<trkpt lat="33.810313" lon="-118.393867">
  <ele>-0.122</ele>
  <time>2026-09-01T01:12:57Z</time>
  <course>188.51</course>
  <speed>0.0</speed>
  <fix>3d</fix>
</trkpt>
<trkpt lat="33.810313" lon="-118.393867">
  <ele>-0.12</ele>
  <time>2026-09-01T01:12:57Z</time>
  <course>0.0</course>
  <speed>0.0</speed>
  <fix>3d</fix>
</trkpt>
<trkpt lat="33.810313" lon="-118.393867">
  <ele>-0.123</ele>
  <time>2026-09-01T01:12:57Z</time>
  <course>188.51</course>
  <speed>0.0</speed>
  <fix>3d</fix>
</trkpt>
<trkpt lat="33.810313" lon="-118.393867">
  <ele>-0.12</ele>
  <time>2026-09-01T01:12:57Z</time>
  <course>0.0</course>
  <speed>0.0</speed>
  <fix>3d</fix>
</trkpt>
<trkpt lat="33.810313" lon="-118.393867">
  <ele>-0.126</ele>
  <time>2026-09-01T01:12:57Z</time>
  <course>188.5</course>
  <speed>0.0</speed>
  <fix>3d</fix>
</trkpt>
<trkpt lat="33.810313" lon="-118.393867">
  <ele>-0.12</ele>
  <time>2026-09-01T01:12:57Z</time>
  <course>0.0</course>
  <speed>0.0</speed>
  <fix>3d</fix>
</trkpt>
<trkpt lat="33.810313" lon="-118.393867">
  <ele>-0.127</ele>
  <time>2026-09-01T01:12:57Z</time>
  <course>188.5</course>
  <speed>0.0</speed>
  <fix>3d</fix>
</trkpt>
<trkpt lat="33.810313" lon="-118.393867">
  <ele>-0.12</ele>
  <time>2026-09-01T01:12:57Z</time>
  <course>0.0</course>
  <speed>0.0</speed>
  <fix>3d</fix>
</trkpt>
<trkpt lat="33.810313" lon="-118.393867">
  <ele>-0.128</ele>
  <time>2026-09-01T01:12:57Z</time>
  <course>188.49</course>
  <speed>0.0</speed>
  <fix>3d</fix>
</trkpt>
<trkpt lat="33.810313" lon="-118.393867">
  <ele>-0.12</ele>
  <time>2026-09-01T01:12:57Z</time>
  <course>0.0</course>
  <speed>0.0</speed>
  <fix>3d</fix>
</trkpt>
<trkpt lat="33.810313" lon="-118.393867">
  <ele>-0.127</ele>
  <time>2026-09-01T01:12:57Z</time>
  <course>188.48</course>
  <speed>0.0</speed>
  <fix>3d</fix>
</trkpt>
<trkpt lat="33.810313" lon="-118.393867">
  <ele>-0.12</ele>
  <time>2026-09-01T01:12:57Z</time>
  <course>0.0</course>
  <speed>0.0</speed>
  <fix>3d</fix>
</trkpt>
<trkpt lat="33.810313" lon="-118.393867">
  <ele>-0.127</ele>
  <time>2026-09-01T01:12:57Z</time>
  <course>188.48</course>
  <speed>0.0</speed>
  <fix>3d</fix>
</trkpt>
<trkpt lat="33.810313" lon="-118.393867">
  <ele>-0.12</ele>
  <time>2026-09-01T01:12:57Z</time>
  <course>0.0</course>
  <speed>0.0</speed>
  <fix>3d</fix>
</trkpt>
<trkpt lat="33.810313" lon="-118.393867">
  <ele>-0.127</ele>
  <time>2026-09-01T01:12:57Z</time>
  <course>188.47</course>
  <speed>0.01</speed>
  <fix>3d</fix>
</trkpt>
<trkpt lat="33.810313" lon="-118.393867">
  <ele>-0.12</ele>
  <time>2026-09-01T01:12:57Z</time>
  <course>0.0</course>
  <speed>0.0</speed>
  <fix>3d</fix>
</trkpt>
<trkpt lat="33.810313" lon="-118.393867">
  <ele>-0.127</ele>
  <time>2026-09-01T01:12:57Z</time>
  <course>188.47</course>
  <speed>0.01</speed>
  <fix>3d</fix>
</trkpt>
<trkpt lat="33.810313" lon="-118.393867">
  <ele>-0.12</ele>
  <time>2026-09-01T01:12:57Z</time>
  <course>0.0</course>
  <speed>0.0</speed>
  <fix>3d</fix>
</trkpt>
<trkpt lat="33.810313" lon="-118.393867">
  <ele>-0.126</ele>
  <time>2026-09-01T01:12:57Z</time>
  <course>188.46</course>
  <speed>0.01</speed>
  <fix>3d</fix>
</trkpt>
<trkpt lat="33.810313" lon="-118.393867">
  <ele>-0.12</ele>
  <time>2026-09-01T01:12:57Z</time>
  <course>0.0</course>
  <speed>0.0</speed>
  <fix>3d</fix>
</trkpt>
<trkpt lat="33.810313" lon="-118.393867">
  <ele>-0.126</ele>
  <time>2026-09-01T01:12:57Z</time>
  <course>188.45</course>
  <speed>0.01</speed>
  <fix>3d</fix>
</trkpt>
<trkpt lat="33.810313" lon="-118.393867">
  <ele>-0.12</ele>
  <time>2026-09-01T01:12:57Z</time>
  <course>0.0</course>
  <speed>0.0</speed>
  <fix>3d</fix>
</trkpt>
<trkpt lat="33.810313" lon="-118.393867">
  <ele>-0.126</ele>
  <time>2026-09-01T01:12:57Z</time>
  <course>188.45</course>
  <speed>0.01</speed>
  <fix>3d</fix>
</trkpt>
<trkpt lat="33.810313" lon="-118.393867">
  <ele>-0.12</ele>
  <time>2026-09-01T01:12:57Z</time>
  <course>0.0</course>
  <speed>0.0</speed>
  <fix>3d</fix>
</trkpt>
<trkpt lat="33.810313" lon="-118.393867">
  <ele>-0.125</ele>
  <time>2026-09-01T01:12:57Z</time>
  <course>188.44</course>
  <speed>0.01</speed>
  <fix>3d</fix>
</trkpt>
<trkpt lat="33.810313" lon="-118.393867">
  <ele>-0.12</ele>
  <time>2026-09-01T01:12:57Z</time>
  <course>0.0</course>
  <speed>0.0</speed>
  <fix>3d</fix>
</trkpt>
<trkpt lat="33.810313" lon="-118.393867">
  <ele>-0.126</ele>
  <time>2026-09-01T01:12:57Z</time>
  <course>188.43</course>
  <speed>0.01</speed>
  <fix>3d</fix>
</trkpt>
<trkpt lat="33.810313" lon="-118.393867">
  <ele>-0.12</ele>
  <time>2026-09-01T01:12:57Z</time>
  <course>0.0</course>
  <speed>0.0</speed>
  <fix>3d</fix>
</trkpt>
<trkpt lat="33.810313" lon="-118.393867">
  <ele>-0.127</ele>
  <time>2026-09-01T01:12:57Z</time>
  <course>188.42</course>
  <speed>0.01</speed>
  <fix>3d</fix>
</trkpt>
<trkpt lat="33.810313" lon="-118.393867">
  <ele>-0.12</ele>
  <time>2026-09-01T01:12:57Z</time>
  <course>0.0</course>
  <speed>0.0</speed>
  <fix>3d</fix>
</trkpt>
<trkpt lat="33.810313" lon="-118.393867">
  <ele>-0.128</ele>
  <time>2026-09-01T01:12:57Z</time>
  <course>188.42</course>
  <speed>0.01</speed>
  <fix>3d</fix>
</trkpt>
<trkpt lat="33.810313" lon="-118.393867">
  <ele>-0.12</ele>
  <time>2026-09-01T01:12:57Z</time>
  <course>0.0</course>
  <speed>0.0</speed>
  <fix>3d</fix>
</trkpt>
<trkpt lat="33.810313" lon="-118.393867">
  <ele>-0.129</ele>
  <time>2026-09-01T01:12:57Z</time>
  <course>188.41</course>
  <speed>0.01</speed>
  <fix>3d</fix>
</trkpt>
<trkpt lat="33.810313" lon="-118.393867">
  <ele>-0.12</ele>
  <time>2026-09-01T01:12:57Z</time>
  <course>0.0</course>
  <speed>0.0</speed>
  <fix>3d</fix>
</trkpt>
<trkpt lat="33.810313" lon="-118.393867">
  <ele>-0.129</ele>
  <time>2026-09-01T01:12:57Z</time>
  <course>188.4</course>
  <speed>0.01</speed>
  <fix>3d</fix>
</trkpt>
<trkpt lat="33.810313" lon="-118.393867">
  <ele>-0.12</ele>
  <time>2026-09-01T01:12:57Z</time>
  <course>0.0</course>
  <speed>0.0</speed>
  <fix>3d</fix>
</trkpt>
<trkpt lat="33.810313" lon="-118.393867">
  <ele>-0.13</ele>
  <time>2026-09-01T01:12:57Z</time>
  <course>188.4</course>
  <speed>0.01414213562373095</speed>
  <fix>3d</fix>
</trkpt>
<trkpt lat="33.810313" lon="-118.393867">
  <ele>-0.12</ele>
  <time>2026-09-01T01:12:57Z</time>
  <course>0.0</course>
  <speed>0.0</speed>
  <fix>3d</fix>
</trkpt>
<trkpt lat="33.810313" lon="-118.393867">
  <ele>-0.13</ele>
  <time>2026-09-01T01:12:57Z</time>
  <course>188.39</course>
  <speed>0.01414213562373095</speed>
  <fix>3d</fix>
</trkpt>
<trkpt lat="33.810313" lon="-118.393867">
  <ele>-0.12</ele>
  <time>2026-09-01T01:12:57Z</time>
  <course>0.0</course>
  <speed>0.0</speed>
  <fix>3d</fix>
</trkpt>
<trkpt lat="33.810313" lon="-118.393867">
  <ele>-0.13</ele>
  <time>2026-09-01T01:12:57Z</time>
  <course>188.38</course>
  <speed>0.01414213562373095</speed>
  <fix>3d</fix>
</trkpt>
<trkpt lat="33.810313" lon="-118.393867">
  <ele>-0.12</ele>
  <time>2026-09-01T01:12:57Z</time>
  <course>0.0</course>
  <speed>0.0</speed>
  <fix>3d</fix>
</trkpt>
<trkpt lat="33.810313" lon="-118.393867">
  <ele>-0.129</ele>
  <time>2026-09-01T01:12:57Z</time>
  <course>188.37</course>
  <speed>0.01414213562373095</speed>
  <fix>3d</fix>
</trkpt>
<trkpt lat="33.810313" lon="-118.393867">
  <ele>-0.12</ele>
  <time>2026-09-01T01:12:57Z</time>
  <course>0.0</course>
  <speed>0.0</speed>
  <fix>3d</fix>
</trkpt>
<trkpt lat="33.810313" lon="-118.393867">
  <ele>-0.128</ele>
  <time>2026-09-01T01:12:57Z</time>
  <course>188.37</course>
  <speed>0.01414213562373095</speed>
  <fix>3d</fix>
</trkpt>
<trkpt lat="33.810313" lon="-118.393867">
  <ele>-0.12</ele>
  <time>2026-09-01T01:12:57Z</time>
  <course>0.0</course>
  <speed>0.0</speed>
  <fix>3d</fix>
</trkpt>
<trkpt lat="33.810313" lon="-118.393867">
  <ele>-0.126</ele>
  <time>2026-09-01T01:12:57Z</time>
  <course>188.36</course>
  <speed>0.01414213562373095</speed>
  <fix>3d</fix>
</trkpt>
<trkpt lat="33.810313" lon="-118.393867">
  <ele>-0.12</ele>
  <time>2026-09-01T01:12:57Z</time>
  <course>0.0</course>
  <speed>0.0</speed>
  <fix>3d</fix>
</trkpt>
<trkpt lat="33.810313" lon="-118.393867">
  <ele>-0.124</ele>
  <time>2026-09-01T01:12:57Z</time>
  <course>188.35</course>
  <speed>0.01414213562373095</speed>
  <fix>3d</fix>
</trkpt>
<trkpt lat="33.810313" lon="-118.393867">
  <ele>-0.12</ele>
  <time>2026-09-01T01:12:57Z</time>
  <course>0.0</course>
  <speed>0.0</speed>
  <fix>3d</fix>
</trkpt>
<trkpt lat="33.810313" lon="-118.393867">
  <ele>-0.122</ele>
  <time>2026-09-01T01:12:57Z</time>
  <course>188.34</course>
  <speed>0.01414213562373095</speed>
  <fix>3d</fix>
</trkpt>
<trkpt lat="33.810313" lon="-118.393867">
  <ele>-0.12</ele>
  <time>2026-09-01T01:12:57Z</time>
  <course>0.0</course>
  <speed>0.0</speed>
  <fix>3d</fix>
</trkpt>
<trkpt lat="33.810313" lon="-118.393867">
  <ele>-0.123</ele>
  <time>2026-09-01T01:12:57Z</time>
  <course>188.33</course>
  <speed>0.01414213562373095</speed>
  <fix>3d</fix>
</trkpt>
<trkpt lat="33.810313" lon="-118.393867">
  <ele>-0.12</ele>
  <time>2026-09-01T01:12:57Z</time>
  <course>0.0</course>
  <speed>0.0</speed>
  <fix>3d</fix>
</trkpt>
<trkpt lat="33.810313" lon="-118.393867">
  <ele>-0.125</ele>
  <time>2026-09-01T01:12:57Z</time>
  <course>188.33</course>
  <speed>0.01414213562373095</speed>
  <fix>3d</fix>
</trkpt>
<trkpt lat="33.810313" lon="-118.393867">
  <ele>-0.12</ele>
  <time>2026-09-01T01:12:57Z</time>
  <course>0.0</course>
  <speed>0.0</speed>
  <fix>3d</fix>
</trkpt>
<trkpt lat="33.810313" lon="-118.393867">
  <ele>-0.128</ele>
  <time>2026-09-01T01:12:57Z</time>
  <course>188.32</course>
  <speed>0.01414213562373095</speed>
  <fix>3d</fix>
</trkpt>
<trkpt lat="33.810313" lon="-118.393867">
  <ele>-0.12</ele>
  <time>2026-09-01T01:12:57Z</time>
  <course>0.0</course>
  <speed>0.0</speed>
  <fix>3d</fix>
</trkpt>
<trkpt lat="33.810313" lon="-118.393867">
  <ele>-0.132</ele>
  <time>2026-09-01T01:12:57Z</time>
  <course>188.31</course>
  <speed>0.01414213562373095</speed>
  <fix>3d</fix>
</trkpt>
<trkpt lat="33.810313" lon="-118.393867">
  <ele>-0.12</ele>
  <time>2026-09-01T01:12:57Z</time>
  <course>0.0</course>
  <speed>0.0</speed>
  <fix>3d</fix>
</trkpt>
<trkpt lat="33.810313" lon="-118.393867">
  <ele>-0.135</ele>
  <time>2026-09-01T01:12:57Z</time>
  <course>188.3</course>
  <speed>0.01414213562373095</speed>
  <fix>3d</fix>
</trkpt>
<trkpt lat="33.810313" lon="-118.393867">
  <ele>-0.12</ele>
  <time>2026-09-01T01:12:57Z</time>
  <course>0.0</course>
  <speed>0.0</speed>
  <fix>3d</fix>
</trkpt>
<trkpt lat="33.810313" lon="-118.393867">
  <ele>-0.135</ele>
  <time>2026-09-01T01:12:57Z</time>
  <course>188.3</course>
  <speed>0.01414213562373095</speed>
  <fix>3d</fix>
</trkpt>
<trkpt lat="33.810313" lon="-118.393867">
  <ele>-0.12</ele>
  <time>2026-09-01T01:12:57Z</time>
  <course>0.0</course>
  <speed>0.0</speed>
  <fix>3d</fix>
</trkpt>
<trkpt lat="33.810313" lon="-118.393867">
  <ele>-0.134</ele>
  <time>2026-09-01T01:12:57Z</time>
  <course>188.29</course>
  <speed>0.01414213562373095</speed>
  <fix>3d</fix>
</trkpt>
<trkpt lat="33.810313" lon="-118.393867">
  <ele>-0.12</ele>
  <time>2026-09-01T01:12:57Z</time>
  <course>0.0</course>
  <speed>0.0</speed>
  <fix>3d</fix>
</trkpt>
<trkpt lat="33.810313" lon="-118.393867">
  <ele>-0.132</ele>
  <time>2026-09-01T01:12:57Z</time>
  <course>188.28</course>
  <speed>0.01414213562373095</speed>
  <fix>3d</fix>
</trkpt>
<trkpt lat="33.810313" lon="-118.393867">
  <ele>-0.12</ele>
  <time>2026-09-01T01:12:57Z</time>
  <course>0.0</course>
  <speed>0.0</speed>
  <fix>3d</fix>
</trkpt>
<trkpt lat="33.810313" lon="-118.393867">
  <ele>-0.129</ele>
  <time>2026-09-01T01:12:57Z</time>
  <course>188.27</course>
  <speed>0.01414213562373095</speed>
  <fix>3d</fix>
</trkpt>
<trkpt lat="33.810313" lon="-118.393867">
  <ele>-0.12</ele>
  <time>2026-09-01T01:12:57Z</time>
  <course>0.0</course>
  <speed>0.0</speed>
  <fix>3d</fix>
</trkpt>
<trkpt lat="33.810313" lon="-118.393867">
  <ele>-0.127</ele>
  <time>2026-09-01T01:12:57Z</time>
  <course>188.26</course>
  <speed>0.01414213562373095</speed>
  <fix>3d</fix>
</trkpt>
<trkpt lat="33.810313" lon="-118.393867">
  <ele>-0.12</ele>
  <time>2026-09-01T01:12:57Z</time>
  <course>0.0</course>
  <speed>0.0</speed>
  <fix>3d</fix>
</trkpt>
<trkpt lat="33.810313" lon="-118.393867">
  <ele>-0.124</ele>
  <time>2026-09-01T01:12:57Z</time>
  <course>188.25</course>
  <speed>0.01414213562373095</speed>
  <fix>3d</fix>
</trkpt>
<trkpt lat="33.810313" lon="-118.393867">
  <ele>-0.12</ele>
  <time>2026-09-01T01:12:57Z</time>
  <course>0.0</course>
  <speed>0.0</speed>
  <fix>3d</fix>
</trkpt>
<trkpt lat="33.810313" lon="-118.393867">
  <ele>-0.123</ele>
  <time>2026-09-01T01:12:57Z</time>
  <course>188.25</course>
  <speed>0.01414213562373095</speed>
  <fix>3d</fix>
</trkpt>
<trkpt lat="33.810313" lon="-118.393867">
  <ele>-0.12</ele>
  <time>2026-09-01T01:12:57Z</time>
  <course>0.0</course>
  <speed>0.0</speed>
  <fix>3d</fix>
</trkpt>
<trkpt lat="33.810313" lon="-118.393867">
  <ele>-0.124</ele>
  <time>2026-09-01T01:12:57Z</time>
  <course>188.24</course>
  <speed>0.01414213562373095</speed>
  <fix>3d</fix>
</trkpt>
<trkpt lat="33.810313" lon="-118.393867">
  <ele>-0.12</ele>
  <time>2026-09-01T01:12:57Z</time>
  <course>0.0</course>
  <speed>0.0</speed>
  <fix>3d</fix>
</trkpt>
<trkpt lat="33.810313" lon="-118.393867">
  <ele>-0.126</ele>
  <time>2026-09-01T01:12:57Z</time>
  <course>188.23</course>
  <speed>0.01414213562373095</speed>
  <fix>3d</fix>
</trkpt>
<trkpt lat="33.810313" lon="-118.393867">
  <ele>-0.12</ele>
  <time>2026-09-01T01:12:57Z</time>
  <course>0.0</course>
  <speed>0.0</speed>
  <fix>3d</fix>
</trkpt>
<trkpt lat="33.810313" lon="-118.393867">
  <ele>-0.127</ele>
  <time>2026-09-01T01:12:57Z</time>
  <course>188.22</course>
  <speed>0.01414213562373095</speed>
  <fix>3d</fix>
</trkpt>
<trkpt lat="33.810313" lon="-118.393867">
  <ele>-0.12</ele>
  <time>2026-09-01T01:12:57Z</time>
  <course>0.0</course>
  <speed>0.0</speed>
  <fix>3d</fix>
</trkpt>
<trkpt lat="33.810313" lon="-118.393867">
  <ele>-0.129</ele>
  <time>2026-09-01T01:12:57Z</time>
  <course>188.21</course>
  <speed>0.01414213562373095</speed>
  <fix>3d</fix>
</trkpt>
<trkpt lat="33.810313" lon="-118.393867">
  <ele>-0.12</ele>
  <time>2026-09-01T01:12:57Z</time>
  <course>0.0</course>
  <speed>0.0</speed>
  <fix>3d</fix>
</trkpt>
<trkpt lat="33.810313" lon="-118.393867">
  <ele>-0.129</ele>
  <time>2026-09-01T01:12:57Z</time>
  <course>188.21</course>
  <speed>0.01414213562373095</speed>
  <fix>3d</fix>
</trkpt>
<trkpt lat="33.810313" lon="-118.393867">
  <ele>-0.12</ele>
  <time>2026-09-01T01:12:57Z</time>
  <course>0.0</course>
  <speed>0.0</speed>
  <fix>3d</fix>
</trkpt>
<trkpt lat="33.810313" lon="-118.393867">
  <ele>-0.129</ele>
  <time>2026-09-01T01:12:57Z</time>
  <course>188.2</course>
  <speed>0.01414213562373095</speed>
  <fix>3d</fix>
</trkpt>
<trkpt lat="33.810313" lon="-118.393867">
  <ele>-0.12</ele>
  <time>2026-09-01T01:12:57Z</time>
  <course>0.0</course>
  <speed>0.0</speed>
  <fix>3d</fix>
</trkpt>
<trkpt lat="33.810313" lon="-118.393867">
  <ele>-0.128</ele>
  <time>2026-09-01T01:12:57Z</time>
  <course>188.19</course>
  <speed>0.01414213562373095</speed>
  <fix>3d</fix>
</trkpt>
<trkpt lat="33.810313" lon="-118.393867">
  <ele>-0.12</ele>
  <time>2026-09-01T01:12:57Z</time>
  <course>0.0</course>
  <speed>0.0</speed>
  <fix>3d</fix>
</trkpt>
<trkpt lat="33.810313" lon="-118.393867">
  <ele>-0.128</ele>
  <time>2026-09-01T01:12:57Z</time>
  <course>188.18</course>
  <speed>0.01414213562373095</speed>
  <fix>3d</fix>
</trkpt>
<trkpt lat="33.810313" lon="-118.393867">
  <ele>-0.12</ele>
  <time>2026-09-01T01:12:57Z</time>
  <course>0.0</course>
  <speed>0.0</speed>
  <fix>3d</fix>
</trkpt>
<trkpt lat="33.810313" lon="-118.393867">
  <ele>-0.127</ele>
  <time>2026-09-01T01:12:57Z</time>
  <course>188.17</course>
  <speed>0.01414213562373095</speed>
  <fix>3d</fix>
</trkpt>
<trkpt lat="33.810313" lon="-118.393867">
  <ele>-0.12</ele>
  <time>2026-09-01T01:12:57Z</time>
  <course>0.0</course>
  <speed>0.0</speed>
  <fix>3d</fix>
</trkpt>
<trkpt lat="33.810313" lon="-118.393867">
  <ele>-0.127</ele>
  <time>2026-09-01T01:12:57Z</time>
  <course>188.16</course>
  <speed>0.01414213562373095</speed>
  <fix>3d</fix>
</trkpt>
<trkpt lat="33.810313" lon="-118.393867">
  <ele>-0.12</ele>
  <time>2026-09-01T01:12:57Z</time>
  <course>0.0</course>
  <speed>0.0</speed>
  <fix>3d</fix>
</trkpt>
<trkpt lat="33.810313" lon="-118.393867">
  <ele>-0.128</ele>
  <time>2026-09-01T01:12:57Z</time>
  <course>188.16</course>
  <speed>0.01414213562373095</speed>
  <fix>3d</fix>
</trkpt>
<trkpt lat="33.810313" lon="-118.393867">
  <ele>-0.12</ele>
  <time>2026-09-01T01:12:57Z</time>
  <course>0.0</course>
  <speed>0.0</speed>
  <fix>3d</fix>
</trkpt>
<trkpt lat="33.810313" lon="-118.393867">
  <ele>-0.129</ele>
  <time>2026-09-01T01:12:57Z</time>
  <course>188.15</course>
  <speed>0.01414213562373095</speed>
  <fix>3d</fix>
</trkpt>
<trkpt lat="33.810313" lon="-118.393867">
  <ele>-0.12</ele>
  <time>2026-09-01T01:12:57Z</time>
  <course>0.0</course>
  <speed>0.0</speed>
  <fix>3d</fix>
</trkpt>
<trkpt lat="33.810313" lon="-118.393867">
  <ele>-0.131</ele>
  <time>2026-09-01T01:12:57Z</time>
  <course>188.14</course>
  <speed>0.01414213562373095</speed>
  <fix>3d</fix>
</trkpt>
<trkpt lat="33.810313" lon="-118.393867">
  <ele>-0.12</ele>
  <time>2026-09-01T01:12:57Z</time>
  <course>0.0</course>
  <speed>0.0</speed>
  <fix>3d</fix>
</trkpt>
<trkpt lat="33.810313" lon="-118.393867">
  <ele>-0.133</ele>
  <time>2026-09-01T01:12:57Z</time>
  <course>188.13</course>
  <speed>0.01414213562373095</speed>
  <fix>3d</fix>
</trkpt>
<trkpt lat="33.810313" lon="-118.393867">
  <ele>-0.12</ele>
  <time>2026-09-01T01:12:57Z</time>
  <course>0.0</course>
  <speed>0.0</speed>
  <fix>3d</fix>
</trkpt>
<trkpt lat="33.810313" lon="-118.393867">
  <ele>-0.135</ele>
  <time>2026-09-01T01:12:57Z</time>
  <course>188.12</course>
  <speed>0.01414213562373095</speed>
  <fix>3d</fix>
</trkpt>
<trkpt lat="33.810313" lon="-118.393867">
  <ele>-0.12</ele>
  <time>2026-09-01T01:12:57Z</time>
  <course>0.0</course>
  <speed>0.0</speed>
  <fix>3d</fix>
</trkpt>
<trkpt lat="33.810313" lon="-118.393867">
  <ele>-0.136</ele>
  <time>2026-09-01T01:12:57Z</time>
  <course>188.12</course>
  <speed>0.01414213562373095</speed>
  <fix>3d</fix>
</trkpt>
<trkpt lat="33.810313" lon="-118.393867">
  <ele>-0.12</ele>
  <time>2026-09-01T01:12:57Z</time>
  <course>0.0</course>
  <speed>0.0</speed>
  <fix>3d</fix>
</trkpt>
<trkpt lat="33.810313" lon="-118.393867">
  <ele>-0.136</ele>
  <time>2026-09-01T01:12:57Z</time>
  <course>188.11</course>
  <speed>0.01414213562373095</speed>
  <fix>3d</fix>
</trkpt>
<trkpt lat="33.810313" lon="-118.393867">
  <ele>-0.12</ele>
  <time>2026-09-01T01:12:57Z</time>
  <course>0.0</course>
  <speed>0.0</speed>
  <fix>3d</fix>
</trkpt>
<trkpt lat="33.810313" lon="-118.393867">
  <ele>-0.136</ele>
  <time>2026-09-01T01:12:57Z</time>
  <course>188.1</course>
  <speed>0.01414213562373095</speed>
  <fix>3d</fix>
</trkpt>
<trkpt lat="33.810313" lon="-118.393867">
  <ele>-0.12</ele>
  <time>2026-09-01T01:12:57Z</time>
  <course>0.0</course>
  <speed>0.0</speed>
  <fix>3d</fix>
</trkpt>
<trkpt lat="33.810313" lon="-118.393867">
  <ele>-0.135</ele>
  <time>2026-09-01T01:12:57Z</time>
  <course>188.09</course>
  <speed>0.01414213562373095</speed>
  <fix>3d</fix>
</trkpt>
<trkpt lat="33.810313" lon="-118.393867">
  <ele>-0.12</ele>
  <time>2026-09-01T01:12:57Z</time>
  <course>0.0</course>
  <speed>0.0</speed>
  <fix>3d</fix>
</trkpt>
<trkpt lat="33.810313" lon="-118.393867">
  <ele>-0.134</ele>
  <time>2026-09-01T01:12:57Z</time>
  <course>188.08</course>
  <speed>0.01414213562373095</speed>
  <fix>3d</fix>
</trkpt>
<trkpt lat="33.810313" lon="-118.393867">
  <ele>-0.12</ele>
  <time>2026-09-01T01:12:57Z</time>
  <course>0.0</course>
  <speed>0.0</speed>
  <fix>3d</fix>
</trkpt>
<trkpt lat="33.810313" lon="-118.393867">
  <ele>-0.131</ele>
  <time>2026-09-01T01:12:57Z</time>
  <course>188.07</course>
  <speed>0.022360679774997897</speed>
  <fix>3d</fix>
</trkpt>
<trkpt lat="33.810313" lon="-118.393867">
  <ele>-0.12</ele>
  <time>2026-09-01T01:12:57Z</time>
  <course>0.0</course>
  <speed>0.0</speed>
  <fix>3d</fix>
</trkpt>
<trkpt lat="33.810313" lon="-118.393867">
  <ele>-0.128</ele>
  <time>2026-09-01T01:12:57Z</time>
  <course>188.07</course>
  <speed>0.022360679774997897</speed>
  <fix>3d</fix>
</trkpt>
<trkpt lat="33.810313" lon="-118.393867">
  <ele>-0.12</ele>
  <time>2026-09-01T01:12:57Z</time>
  <course>0.0</course>
  <speed>0.0</speed>
  <fix>3d</fix>
</trkpt>
<trkpt lat="33.810313" lon="-118.393867">
  <ele>-0.126</ele>
  <time>2026-09-01T01:12:57Z</time>
  <course>188.06</course>
  <speed>0.022360679774997897</speed>
  <fix>3d</fix>
</trkpt>
<trkpt lat="33.810313" lon="-118.393867">
  <ele>-0.12</ele>
  <time>2026-09-01T01:12:57Z</time>
  <course>0.0</course>
  <speed>0.0</speed>
  <fix>3d</fix>
</trkpt>
<trkpt lat="33.810313" lon="-118.393867">
  <ele>-0.126</ele>
  <time>2026-09-01T01:12:57Z</time>
  <course>188.05</course>
  <speed>0.022360679774997897</speed>
  <fix>3d</fix>
</trkpt>
<trkpt lat="33.810313" lon="-118.393867">
  <ele>-0.12</ele>
  <time>2026-09-01T01:12:57Z</time>
  <course>0.0</course>
  <speed>0.0</speed>
  <fix>3d</fix>
</trkpt>
<trkpt lat="33.810313" lon="-118.393867">
  <ele>-0.126</ele>
  <time>2026-09-01T01:12:57Z</time>
  <course>188.04</course>
  <speed>0.022360679774997897</speed>
  <fix>3d</fix>
</trkpt>
<trkpt lat="33.810313" lon="-118.393867">
  <ele>-0.12</ele>
  <time>2026-09-01T01:12:57Z</time>
  <course>0.0</course>
  <speed>0.0</speed>
  <fix>3d</fix>
</trkpt>
<trkpt lat="33.810313" lon="-118.393867">
  <ele>-0.127</ele>
  <time>2026-09-01T01:12:57Z</time>
  <course>188.03</course>
  <speed>0.022360679774997897</speed>
  <fix>3d</fix>
</trkpt>
<trkpt lat="33.810313" lon="-118.393867">
  <ele>-0.12</ele>
  <time>2026-09-01T01:12:57Z</time>
  <course>0.0</course>
  <speed>0.0</speed>
  <fix>3d</fix>
</trkpt>
<trkpt lat="33.810313" lon="-118.393867">
  <ele>-0.127</ele>
  <time>2026-09-01T01:12:57Z</time>
  <course>188.03</course>
  <speed>0.022360679774997897</speed>
  <fix>3d</fix>
</trkpt>
<trkpt lat="33.810313" lon="-118.393867">
  <ele>-0.12</ele>
  <time>2026-09-01T01:12:57Z</time>
  <course>0.0</course>
  <speed>0.0</speed>
  <fix>3d</fix>
</trkpt>
<trkpt lat="33.810313" lon="-118.393867">
  <ele>-0.127</ele>
  <time>2026-09-01T01:12:57Z</time>
  <course>188.02</course>
  <speed>0.022360679774997897</speed>
  <fix>3d</fix>
</trkpt>
<trkpt lat="33.810313" lon="-118.393867">
  <ele>-0.12</ele>
  <time>2026-09-01T01:12:57Z</time>
  <course>0.0</course>
  <speed>0.0</speed>
  <fix>3d</fix>
</trkpt>
<trkpt lat="33.810313" lon="-118.393867">
  <ele>-0.128</ele>
  <time>2026-09-01T01:12:57Z</time>
  <course>188.01</course>
  <speed>0.022360679774997897</speed>
  <fix>3d</fix>
</trkpt>
<trkpt lat="33.810313" lon="-118.393867">
  <ele>-0.12</ele>
  <time>2026-09-01T01:12:57Z</time>
  <course>0.0</course>
  <speed>0.0</speed>
  <fix>3d</fix>
</trkpt>
<trkpt lat="33.810313" lon="-118.393867">
  <ele>-0.128</ele>
  <time>2026-09-01T01:12:57Z</time>
  <course>188.0</course>
  <speed>0.022360679774997897</speed>
  <fix>3d</fix>
</trkpt>
<trkpt lat="33.810313" lon="-118.393867">
  <ele>-0.12</ele>
  <time>2026-09-01T01:12:57Z</time>
  <course>0.0</course>
  <speed>0.0</speed>
  <fix>3d</fix>
</trkpt>
<trkpt lat="33.810313" lon="-118.393867">
  <ele>-0.127</ele>
  <time>2026-09-01T01:12:57Z</time>
  <course>187.99</course>
  <speed>0.022360679774997897</speed>
  <fix>3d</fix>
</trkpt>
<trkpt lat="33.810313" lon="-118.393867">
  <ele>-0.12</ele>
  <time>2026-09-01T01:12:57Z</time>
  <course>0.0</course>
  <speed>0.0</speed>
  <fix>3d</fix>
</trkpt>
<trkpt lat="33.810313" lon="-118.393867">
  <ele>-0.126</ele>
  <time>2026-09-01T01:12:57Z</time>
  <course>187.98</course>
  <speed>0.022360679774997897</speed>
  <fix>3d</fix>
</trkpt>
<trkpt lat="33.810313" lon="-118.393867">
  <ele>-0.12</ele>
  <time>2026-09-01T01:12:57Z</time>
  <course>0.0</course>
  <speed>0.0</speed>
  <fix>3d</fix>
</trkpt>
<trkpt lat="33.810313" lon="-118.393867">
  <ele>-0.123</ele>
  <time>2026-09-01T01:12:57Z</time>
  <course>187.98</course>
  <speed>0.022360679774997897</speed>
  <fix>3d</fix>
</trkpt>
<trkpt lat="33.810313" lon="-118.393867">
  <ele>-0.12</ele>
  <time>2026-09-01T01:12:57Z</time>
  <course>0.0</course>
  <speed>0.0</speed>
  <fix>3d</fix>
</trkpt>
<trkpt lat="33.810313" lon="-118.393867">
  <ele>-0.121</ele>
  <time>2026-09-01T01:12:57Z</time>
  <course>187.97</course>
  <speed>0.022360679774997897</speed>
  <fix>3d</fix>
</trkpt>
<trkpt lat="33.810313" lon="-118.393867">
  <ele>-0.12</ele>
  <time>2026-09-01T01:12:57Z</time>
  <course>0.0</course>
  <speed>0.0</speed>
  <fix>3d</fix>
</trkpt>
<trkpt lat="33.810313" lon="-118.393867">
  <ele>-0.12</ele>
  <time>2026-09-01T01:12:57Z</time>
  <course>187.96</course>
  <speed>0.022360679774997897</speed>
  <fix>3d</fix>
</trkpt>
<trkpt lat="33.810313" lon="-118.393867">
  <ele>-0.12</ele>
  <time>2026-09-01T01:12:57Z</time>
  <course>0.0</course>
  <speed>0.0</speed>
  <fix>3d</fix>
</trkpt>
<trkpt lat="33.810313" lon="-118.393867">
  <ele>-0.12</ele>
  <time>2026-09-01T01:12:57Z</time>
  <course>187.95</course>
  <speed>0.022360679774997897</speed>
  <fix>3d</fix>
</trkpt>
<trkpt lat="33.810313" lon="-118.393867">
  <ele>-0.12</ele>
  <time>2026-09-01T01:12:57Z</time>
  <course>0.0</course>
  <speed>0.0</speed>
  <fix>3d</fix>
</trkpt>
<trkpt lat="33.810313" lon="-118.393867">
  <ele>-0.122</ele>
  <time>2026-09-01T01:12:57Z</time>
  <course>187.94</course>
  <speed>0.022360679774997897</speed>
  <fix>3d</fix>
</trkpt>
<trkpt lat="33.810313" lon="-118.393867">
  <ele>-0.12</ele>
  <time>2026-09-01T01:12:57Z</time>
  <course>0.0</course>
  <speed>0.0</speed>
  <fix>3d</fix>
</trkpt>
<trkpt lat="33.810313" lon="-118.393867">
  <ele>-0.125</ele>
  <time>2026-09-01T01:12:57Z</time>
  <course>187.94</course>
  <speed>0.022360679774997897</speed>
  <fix>3d</fix>
</trkpt>
<trkpt lat="33.810313" lon="-118.393867">
  <ele>-0.12</ele>
  <time>2026-09-01T01:12:57Z</time>
  <course>0.0</course>
  <speed>0.0</speed>
  <fix>3d</fix>
</trkpt>
<trkpt lat="33.810313" lon="-118.393867">
  <ele>-0.129</ele>
  <time>2026-09-01T01:12:57Z</time>
  <course>187.93</course>
  <speed>0.022360679774997897</speed>
  <fix>3d</fix>
</trkpt>
<trkpt lat="33.810313" lon="-118.393867">
  <ele>-0.12</ele>
  <time>2026-09-01T01:12:57Z</time>
  <course>0.0</course>
  <speed>0.0</speed>
  <fix>3d</fix>
</trkpt>
<trkpt lat="33.810313" lon="-118.393867">
  <ele>-0.131</ele>
  <time>2026-09-01T01:12:57Z</time>
  <course>187.92</course>
  <speed>0.022360679774997897</speed>
  <fix>3d</fix>
</trkpt>
<trkpt lat="33.810313" lon="-118.393867">
  <ele>-0.12</ele>
  <time>2026-09-01T01:12:57Z</time>
  <course>0.0</course>
  <speed>0.0</speed>
  <fix>3d</fix>
</trkpt>
<trkpt lat="33.810313" lon="-118.393867">
  <ele>-0.132</ele>
  <time>2026-09-01T01:12:57Z</time>
  <course>187.91</course>
  <speed>0.022360679774997897</speed>
  <fix>3d</fix>
</trkpt>
<trkpt lat="33.810313" lon="-118.393867">
  <ele>-0.12</ele>
  <time>2026-09-01T01:12:57Z</time>
  <course>0.0</course>
  <speed>0.0</speed>
  <fix>3d</fix>
</trkpt>
<trkpt lat="33.810313" lon="-118.393867">
  <ele>-0.132</ele>
  <time>2026-09-01T01:12:57Z</time>
  <course>187.9</course>
  <speed>0.022360679774997897</speed>
  <fix>3d</fix>
</trkpt>
<trkpt lat="33.810313" lon="-118.393867">
  <ele>-0.12</ele>
  <time>2026-09-01T01:12:57Z</time>
  <course>0.0</course>
  <speed>0.0</speed>
  <fix>3d</fix>
</trkpt>
<trkpt lat="33.810313" lon="-118.393867">
  <ele>-0.132</ele>
  <time>2026-09-01T01:12:57Z</time>
  <course>187.9</course>
  <speed>0.022360679774997897</speed>
  <fix>3d</fix>
</trkpt>
<trkpt lat="33.810313" lon="-118.393867">
  <ele>-0.12</ele>
  <time>2026-09-01T01:12:57Z</time>
  <course>0.0</course>
  <speed>0.0</speed>
  <fix>3d</fix>
</trkpt>
<trkpt lat="33.810313" lon="-118.393867">
  <ele>-0.13</ele>
  <time>2026-09-01T01:12:57Z</time>
  <course>187.89</course>
  <speed>0.022360679774997897</speed>
  <fix>3d</fix>
</trkpt>
<trkpt lat="33.810313" lon="-118.393867">
  <ele>-0.12</ele>
  <time>2026-09-01T01:12:57Z</time>
  <course>0.0</course>
  <speed>0.0</speed>
  <fix>3d</fix>
</trkpt>
<trkpt lat="33.810313" lon="-118.393867">
  <ele>-0.127</ele>
  <time>2026-09-01T01:12:57Z</time>
  <course>187.88</course>
  <speed>0.022360679774997897</speed>
  <fix>3d</fix>
</trkpt>
<trkpt lat="33.810313" lon="-118.393867">
  <ele>-0.12</ele>
  <time>2026-09-01T01:12:57Z</time>
  <course>0.0</course>
  <speed>0.0</speed>
  <fix>3d</fix>
</trkpt>
<trkpt lat="33.810313" lon="-118.393867">
  <ele>-0.123</ele>
  <time>2026-09-01T01:12:57Z</time>
  <course>187.87</course>
  <speed>0.022360679774997897</speed>
  <fix>3d</fix>
</trkpt>
<trkpt lat="33.810313" lon="-118.393867">
  <ele>-0.12</ele>
  <time>2026-09-01T01:12:57Z</time>
  <course>0.0</course>
  <speed>0.0</speed>
  <fix>3d</fix>
</trkpt>
<trkpt lat="33.810313" lon="-118.393867">
  <ele>-0.121</ele>
  <time>2026-09-01T01:12:57Z</time>
  <course>187.87</course>
  <speed>0.022360679774997897</speed>
  <fix>3d</fix>
</trkpt>
<trkpt lat="33.810313" lon="-118.393867">
  <ele>-0.12</ele>
  <time>2026-09-01T01:12:57Z</time>
  <course>0.0</course>
  <speed>0.0</speed>
  <fix>3d</fix>
</trkpt>
<trkpt lat="33.810313" lon="-118.393867">
  <ele>-0.121</ele>
  <time>2026-09-01T01:12:57Z</time>
  <course>187.86</course>
  <speed>0.022360679774997897</speed>
  <fix>3d</fix>
</trkpt>
<trkpt lat="33.810313" lon="-118.393867">
  <ele>-0.12</ele>
  <time>2026-09-01T01:12:57Z</time>
  <course>0.0</course>
  <speed>0.0</speed>
  <fix>3d</fix>
</trkpt>
<trkpt lat="33.810313" lon="-118.393867">
  <ele>-0.123</ele>
  <time>2026-09-01T01:12:57Z</time>
  <course>187.85</course>
  <speed>0.022360679774997897</speed>
  <fix>3d</fix>
</trkpt>
<trkpt lat="33.810313" lon="-118.393867">
  <ele>-0.12</ele>
  <time>2026-09-01T01:12:57Z</time>
  <course>0.0</course>
  <speed>0.0</speed>
  <fix>3d</fix>
</trkpt>
<trkpt lat="33.810313" lon="-118.393867">
  <ele>-0.124</ele>
  <time>2026-09-01T01:12:57Z</time>
  <course>187.84</course>
  <speed>0.022360679774997897</speed>
  <fix>3d</fix>
</trkpt>
<trkpt lat="33.810313" lon="-118.393867">
  <ele>-0.12</ele>
  <time>2026-09-01T01:12:57Z</time>
  <course>0.0</course>
  <speed>0.0</speed>
  <fix>3d</fix>
</trkpt>
<trkpt lat="33.810313" lon="-118.393867">
  <ele>-0.126</ele>
  <time>2026-09-01T01:12:57Z</time>
  <course>187.83</course>
  <speed>0.022360679774997897</speed>
  <fix>3d</fix>
</trkpt>
<trkpt lat="33.810313" lon="-118.393867">
  <ele>-0.12</ele>
  <time>2026-09-01T01:12:57Z</time>
  <course>0.0</course>
  <speed>0.0</speed>
  <fix>3d</fix>
</trkpt>
<trkpt lat="33.810313" lon="-118.393867">
  <ele>-0.127</ele>
  <time>2026-09-01T01:12:57Z</time>
  <course>187.83</course>
  <speed>0.022360679774997897</speed>
  <fix>3d</fix>
</trkpt>
<trkpt lat="33.810313" lon="-118.393867">
  <ele>-0.12</ele>
  <time>2026-09-01T01:12:57Z</time>
  <course>0.0</course>
  <speed>0.0</speed>
  <fix>3d</fix>
</trkpt>
<trkpt lat="33.810313" lon="-118.393867">
  <ele>-0.127</ele>
  <time>2026-09-01T01:12:57Z</time>
  <course>187.82</course>
  <speed>0.022360679774997897</speed>
  <fix>3d</fix>
</trkpt>
<trkpt lat="33.810313" lon="-118.393867">
  <ele>-0.12</ele>
  <time>2026-09-01T01:12:57Z</time>
  <course>0.0</course>
  <speed>0.0</speed>
  <fix>3d</fix>
</trkpt>
<trkpt lat="33.810313" lon="-118.393867">
  <ele>-0.127</ele>
  <time>2026-09-01T01:12:57Z</time>
  <course>187.81</course>
  <speed>0.022360679774997897</speed>
  <fix>3d</fix>
</trkpt>
<trkpt lat="33.810313" lon="-118.393867">
  <ele>-0.12</ele>
  <time>2026-09-01T01:12:57Z</time>
  <course>0.0</course>
  <speed>0.0</speed>
  <fix>3d</fix>
</trkpt>
<trkpt lat="33.810313" lon="-118.393867">
  <ele>-0.126</ele>
  <time>2026-09-01T01:12:57Z</time>
  <course>187.8</course>
  <speed>0.022360679774997897</speed>
  <fix>3d</fix>
</trkpt>
<trkpt lat="33.810313" lon="-118.393867">
  <ele>-0.12</ele>
  <time>2026-09-01T01:12:57Z</time>
  <course>0.0</course>
  <speed>0.0</speed>
  <fix>3d</fix>
</trkpt>
<trkpt lat="33.810313" lon="-118.393867">
  <ele>-0.124</ele>
  <time>2026-09-01T01:12:57Z</time>
  <course>187.8</course>
  <speed>0.022360679774997897</speed>
  <fix>3d</fix>
</trkpt>
<trkpt lat="33.810313" lon="-118.393867">
  <ele>-0.12</ele>
  <time>2026-09-01T01:12:57Z</time>
  <course>0.0</course>
  <speed>0.0</speed>
  <fix>3d</fix>
</trkpt>
<trkpt lat="33.810313" lon="-118.393867">
  <ele>-0.121</ele>
  <time>2026-09-01T01:12:57Z</time>
  <course>187.79</course>
  <speed>0.022360679774997897</speed>
  <fix>3d</fix>
</trkpt>
<trkpt lat="33.810313" lon="-118.393867">
  <ele>-0.12</ele>
  <time>2026-09-01T01:12:57Z</time>
  <course>0.0</course>
  <speed>0.0</speed>
  <fix>3d</fix>
</trkpt>
<trkpt lat="33.810313" lon="-118.393867">
  <ele>-0.119</ele>
  <time>2026-09-01T01:12:57Z</time>
  <course>187.78</course>
  <speed>0.022360679774997897</speed>
  <fix>3d</fix>
</trkpt>
<trkpt lat="33.810313" lon="-118.393867">
  <ele>-0.12</ele>
  <time>2026-09-01T01:12:57Z</time>
  <course>0.0</course>
  <speed>0.0</speed>
  <fix>3d</fix>
</trkpt>
<trkpt lat="33.810313" lon="-118.393867">
  <ele>-0.118</ele>
  <time>2026-09-01T01:12:57Z</time>
  <course>187.77</course>
  <speed>0.022360679774997897</speed>
  <fix>3d</fix>
</trkpt>
<trkpt lat="33.810313" lon="-118.393867">
  <ele>-0.12</ele>
  <time>2026-09-01T01:12:57Z</time>
  <course>0.0</course>
  <speed>0.0</speed>
  <fix>3d</fix>
</trkpt>
<trkpt lat="33.810313" lon="-118.393867">
  <ele>-0.118</ele>
  <time>2026-09-01T01:12:57Z</time>
  <course>187.76</course>
  <speed>0.022360679774997897</speed>
  <fix>3d</fix>
</trkpt>
<trkpt lat="33.810313" lon="-118.393867">
  <ele>-0.12</ele>
  <time>2026-09-01T01:12:57Z</time>
  <course>0.0</course>
  <speed>0.0</speed>
  <fix>3d</fix>
</trkpt>
<trkpt lat="33.810313" lon="-118.393867">
  <ele>-0.119</ele>
  <time>2026-09-01T01:12:57Z</time>
  <course>187.76</course>
  <speed>0.022360679774997897</speed>
  <fix>3d</fix>
</trkpt>
<trkpt lat="33.810313" lon="-118.393867">
  <ele>-0.12</ele>
  <time>2026-09-01T01:12:57Z</time>
  <course>0.0</course>
  <speed>0.0</speed>
  <fix>3d</fix>
</trkpt>
<trkpt lat="33.810313" lon="-118.393867">
  <ele>-0.12</ele>
  <time>2026-09-01T01:12:57Z</time>
  <course>187.75</course>
  <speed>0.022360679774997897</speed>
  <fix>3d</fix>
</trkpt>
<trkpt lat="33.810313" lon="-118.393867">
  <ele>-0.12</ele>
  <time>2026-09-01T01:12:57Z</time>
  <course>0.0</course>
  <speed>0.0</speed>
  <fix>3d</fix>
</trkpt>
<trkpt lat="33.810313" lon="-118.393867">
  <ele>-0.12</ele>
  <time>2026-09-01T01:12:57Z</time>
  <course>187.74</course>
  <speed>0.0282842712474619</speed>
  <fix>3d</fix>
</trkpt>
<trkpt lat="33.810313" lon="-118.393867">
  <ele>-0.12</ele>
  <time>2026-09-01T01:12:57Z</time>
  <course>0.0</course>
  <speed>0.0</speed>
  <fix>3d</fix>
</trkpt>
<trkpt lat="33.810313" lon="-118.393867">
  <ele>-0.12</ele>
  <time>2026-09-01T01:12:57Z</time>
  <course>187.74</course>
  <speed>0.0282842712474619</speed>
  <fix>3d</fix>
</trkpt>
<trkpt lat="33.810313" lon="-118.393867">
  <ele>-0.12</ele>
  <time>2026-09-01T01:12:57Z</time>
  <course>0.0</course>
  <speed>0.0</speed>
  <fix>3d</fix>
</trkpt>
<trkpt lat="33.810313" lon="-118.393867">
  <ele>-0.119</ele>
  <time>2026-09-01T01:12:57Z</time>
  <course>187.73</course>
  <speed>0.0282842712474619</speed>
  <fix>3d</fix>
</trkpt>
<trkpt lat="33.810313" lon="-118.393867">
  <ele>-0.12</ele>
  <time>2026-09-01T01:12:57Z</time>
  <course>0.0</course>
  <speed>0.0</speed>
  <fix>3d</fix>
</trkpt>
<trkpt lat="33.810313" lon="-118.393867">
  <ele>-0.118</ele>
  <time>2026-09-01T01:12:57Z</time>
  <course>187.72</course>
  <speed>0.0282842712474619</speed>
  <fix>3d</fix>
</trkpt>
<trkpt lat="33.810313" lon="-118.393867">
  <ele>-0.12</ele>
  <time>2026-09-01T01:12:57Z</time>
  <course>0.0</course>
  <speed>0.0</speed>
  <fix>3d</fix>
</trkpt>
<trkpt lat="33.810313" lon="-118.393867">
  <ele>-0.116</ele>
  <time>2026-09-01T01:12:57Z</time>
  <course>187.71</course>
  <speed>0.0282842712474619</speed>
  <fix>3d</fix>
</trkpt>
<trkpt lat="33.810313" lon="-118.393867">
  <ele>-0.12</ele>
  <time>2026-09-01T01:12:57Z</time>
  <course>0.0</course>
  <speed>0.0</speed>
  <fix>3d</fix>
</trkpt>
<trkpt lat="33.810313" lon="-118.393867">
  <ele>-0.113</ele>
  <time>2026-09-01T01:12:57Z</time>
  <course>187.71</course>
  <speed>0.0282842712474619</speed>
  <fix>3d</fix>
</trkpt>
<trkpt lat="33.810313" lon="-118.393867">
  <ele>-0.12</ele>
  <time>2026-09-01T01:12:57Z</time>
  <course>0.0</course>
  <speed>0.0</speed>
  <fix>3d</fix>
</trkpt>
<trkpt lat="33.810313" lon="-118.393867">
  <ele>-0.112</ele>
  <time>2026-09-01T01:12:57Z</time>
  <course>187.7</course>
  <speed>0.0282842712474619</speed>
  <fix>3d</fix>
</trkpt>
<trkpt lat="33.810313" lon="-118.393867">
  <ele>-0.12</ele>
  <time>2026-09-01T01:12:57Z</time>
  <course>0.0</course>
  <speed>0.0</speed>
  <fix>3d</fix>
</trkpt>
<trkpt lat="33.810313" lon="-118.393867">
  <ele>-0.113</ele>
  <time>2026-09-01T01:12:57Z</time>
  <course>187.69</course>
  <speed>0.0282842712474619</speed>
  <fix>3d</fix>
</trkpt>
<trkpt lat="33.810313" lon="-118.393867">
  <ele>-0.12</ele>
  <time>2026-09-01T01:12:57Z</time>
  <course>0.0</course>
  <speed>0.0</speed>
  <fix>3d</fix>
</trkpt>
<trkpt lat="33.810313" lon="-118.393867">
  <ele>-0.115</ele>
  <time>2026-09-01T01:12:57Z</time>
  <course>187.68</course>
  <speed>0.0282842712474619</speed>
  <fix>3d</fix>
</trkpt>
<trkpt lat="33.810313" lon="-118.393867">
  <ele>-0.12</ele>
  <time>2026-09-01T01:12:57Z</time>
  <course>0.0</course>
  <speed>0.0</speed>
  <fix>3d</fix>
</trkpt>
<trkpt lat="33.810313" lon="-118.393867">
  <ele>-0.119</ele>
  <time>2026-09-01T01:12:57Z</time>
  <course>187.68</course>
  <speed>0.0282842712474619</speed>
  <fix>3d</fix>
</trkpt>
<trkpt lat="33.810313" lon="-118.393867">
  <ele>-0.12</ele>
  <time>2026-09-01T01:12:57Z</time>
  <course>0.0</course>
  <speed>0.0</speed>
  <fix>3d</fix>
</trkpt>
<trkpt lat="33.810313" lon="-118.393867">
  <ele>-0.124</ele>
  <time>2026-09-01T01:12:57Z</time>
  <course>187.67</course>
  <speed>0.0282842712474619</speed>
  <fix>3d</fix>
</trkpt>
<trkpt lat="33.810313" lon="-118.393867">
  <ele>-0.12</ele>
  <time>2026-09-01T01:12:57Z</time>
  <course>0.0</course>
  <speed>0.0</speed>
  <fix>3d</fix>
</trkpt>
<trkpt lat="33.810313" lon="-118.393867">
  <ele>-0.129</ele>
  <time>2026-09-01T01:12:57Z</time>
  <course>187.66</course>
  <speed>0.0282842712474619</speed>
  <fix>3d</fix>
</trkpt>
<trkpt lat="33.810313" lon="-118.393867">
  <ele>-0.12</ele>
  <time>2026-09-01T01:12:57Z</time>
  <course>0.0</course>
  <speed>0.0</speed>
  <fix>3d</fix>
</trkpt>
<trkpt lat="33.810313" lon="-118.393867">
  <ele>-0.133</ele>
  <time>2026-09-01T01:12:57Z</time>
  <course>187.66</course>
  <speed>0.0282842712474619</speed>
  <fix>3d</fix>
</trkpt>
<trkpt lat="33.810313" lon="-118.393867">
  <ele>-0.12</ele>
  <time>2026-09-01T01:12:57Z</time>
  <course>0.0</course>
  <speed>0.0</speed>
  <fix>3d</fix>
</trkpt>
<trkpt lat="33.810313" lon="-118.393867">
  <ele>-0.135</ele>
  <time>2026-09-01T01:12:57Z</time>
  <course>187.65</course>
  <speed>0.0282842712474619</speed>
  <fix>3d</fix>
</trkpt>
<trkpt lat="33.810313" lon="-118.393867">
  <ele>-0.12</ele>
  <time>2026-09-01T01:12:57Z</time>
  <course>0.0</course>
  <speed>0.0</speed>
  <fix>3d</fix>
</trkpt>
<trkpt lat="33.810313" lon="-118.393867">
  <ele>-0.135</ele>
  <time>2026-09-01T01:12:57Z</time>
  <course>187.64</course>
  <speed>0.0282842712474619</speed>
  <fix>3d</fix>
</trkpt>
<trkpt lat="33.810313" lon="-118.393867">
  <ele>-0.12</ele>
  <time>2026-09-01T01:12:57Z</time>
  <course>0.0</course>
  <speed>0.0</speed>
  <fix>3d</fix>
</trkpt>
<trkpt lat="33.810313" lon="-118.393867">
  <ele>-0.135</ele>
  <time>2026-09-01T01:12:57Z</time>
  <course>187.64</course>
  <speed>0.0282842712474619</speed>
  <fix>3d</fix>
</trkpt>
<trkpt lat="33.810313" lon="-118.393867">
  <ele>-0.12</ele>
  <time>2026-09-01T01:12:57Z</time>
  <course>0.0</course>
  <speed>0.0</speed>
  <fix>3d</fix>
</trkpt>
<trkpt lat="33.810313" lon="-118.393867">
  <ele>-0.133</ele>
  <time>2026-09-01T01:12:57Z</time>
  <course>187.63</course>
  <speed>0.0282842712474619</speed>
  <fix>3d</fix>
</trkpt>
<trkpt lat="33.810313" lon="-118.393867">
  <ele>-0.12</ele>
  <time>2026-09-01T01:12:57Z</time>
  <course>0.0</course>
  <speed>0.0</speed>
  <fix>3d</fix>
</trkpt>
<trkpt lat="33.810313" lon="-118.393867">
  <ele>-0.132</ele>
  <time>2026-09-01T01:12:57Z</time>
  <course>187.63</course>
  <speed>0.03605551275463989</speed>
  <fix>3d</fix>
</trkpt>
<trkpt lat="33.810313" lon="-118.393867">
  <ele>-0.12</ele>
  <time>2026-09-01T01:12:57Z</time>
  <course>0.0</course>
  <speed>0.0</speed>
  <fix>3d</fix>
</trkpt>
<trkpt lat="33.810313" lon="-118.393867">
  <ele>-0.132</ele>
  <time>2026-09-01T01:12:57Z</time>
  <course>187.62</course>
  <speed>0.03605551275463989</speed>
  <fix>3d</fix>
</trkpt>
<trkpt lat="33.810313" lon="-118.393867">
  <ele>-0.12</ele>
  <time>2026-09-01T01:12:57Z</time>
  <course>0.0</course>
  <speed>0.0</speed>
  <fix>3d</fix>
</trkpt>
<trkpt lat="33.810313" lon="-118.393867">
  <ele>-0.133</ele>
  <time>2026-09-01T01:12:57Z</time>
  <course>187.61</course>
  <speed>0.03605551275463989</speed>
  <fix>3d</fix>
</trkpt>
<trkpt lat="33.810313" lon="-118.393867">
  <ele>-0.12</ele>
  <time>2026-09-01T01:12:57Z</time>
  <course>0.0</course>
  <speed>0.0</speed>
  <fix>3d</fix>
</trkpt>
<trkpt lat="33.810313" lon="-118.393867">
  <ele>-0.134</ele>
  <time>2026-09-01T01:12:58Z</time>
  <course>187.6</course>
  <speed>0.03605551275463989</speed>
  <fix>3d</fix>
</trkpt>
<trkpt lat="33.810313" lon="-118.393867">
  <ele>-0.12</ele>
  <time>2026-09-01T01:12:58Z</time>
  <course>0.0</course>
  <speed>0.0</speed>
  <fix>3d</fix>
</trkpt>
<trkpt lat="33.810313" lon="-118.393867">
  <ele>-0.134</ele>
  <time>2026-09-01T01:12:58Z</time>
  <course>187.6</course>
  <speed>0.03605551275463989</speed>
  <fix>3d</fix>
</trkpt>
<trkpt lat="33.810313" lon="-118.393867">
  <ele>-0.12</ele>
  <time>2026-09-01T01:12:58Z</time>
  <course>0.0</course>
  <speed>0.0</speed>
  <fix>3d</fix>
</trkpt>
<trkpt lat="33.810313" lon="-118.393867">
  <ele>-0.134</ele>
  <time>2026-09-01T01:12:58Z</time>
  <course>187.59</course>
  <speed>0.03605551275463989</speed>
  <fix>3d</fix>
</trkpt>
<trkpt lat="33.810313" lon="-118.393867">
  <ele>-0.12</ele>
  <time>2026-09-01T01:12:58Z</time>
  <course>0.0</course>
  <speed>0.0</speed>
  <fix>3d</fix>
</trkpt>
<trkpt lat="33.810313" lon="-118.393867">
  <ele>-0.132</ele>
  <time>2026-09-01T01:12:58Z</time>
  <course>187.58</course>
  <speed>0.03605551275463989</speed>
  <fix>3d</fix>
</trkpt>
<trkpt lat="33.810313" lon="-118.393867">
  <ele>-0.12</ele>
  <time>2026-09-01T01:12:58Z</time>
  <course>0.0</course>
  <speed>0.0</speed>
  <fix>3d</fix>
</trkpt>
<trkpt lat="33.810313" lon="-118.393867">
  <ele>-0.129</ele>
  <time>2026-09-01T01:12:58Z</time>
  <course>187.58</course>
  <speed>0.03605551275463989</speed>
  <fix>3d</fix>
</trkpt>
<trkpt lat="33.810313" lon="-118.393867">
  <ele>-0.12</ele>
  <time>2026-09-01T01:12:58Z</time>
  <course>0.0</course>
  <speed>0.0</speed>
  <fix>3d</fix>
</trkpt>
<trkpt lat="33.810313" lon="-118.393867">
  <ele>-0.127</ele>
  <time>2026-09-01T01:12:58Z</time>
  <course>187.57</course>
  <speed>0.03605551275463989</speed>
  <fix>3d</fix>
</trkpt>
<trkpt lat="33.810313" lon="-118.393867">
  <ele>-0.12</ele>
  <time>2026-09-01T01:12:58Z</time>
  <course>0.0</course>
  <speed>0.0</speed>
  <fix>3d</fix>
</trkpt>
<trkpt lat="33.810313" lon="-118.393867">
  <ele>-0.125</ele>
  <time>2026-09-01T01:12:58Z</time>
  <course>187.56</course>
  <speed>0.03605551275463989</speed>
  <fix>3d</fix>
</trkpt>
<trkpt lat="33.810313" lon="-118.393867">
  <ele>-0.12</ele>
  <time>2026-09-01T01:12:58Z</time>
  <course>0.0</course>
  <speed>0.0</speed>
  <fix>3d</fix>
</trkpt>
<trkpt lat="33.810313" lon="-118.393867">
  <ele>-0.122</ele>
  <time>2026-09-01T01:12:58Z</time>
  <course>187.56</course>
  <speed>0.03605551275463989</speed>
  <fix>3d</fix>
</trkpt>
<trkpt lat="33.810313" lon="-118.393867">
  <ele>-0.12</ele>
  <time>2026-09-01T01:12:58Z</time>
  <course>0.0</course>
  <speed>0.0</speed>
  <fix>3d</fix>
</trkpt>
<trkpt lat="33.810313" lon="-118.393867">
  <ele>-0.119</ele>
  <time>2026-09-01T01:12:58Z</time>
  <course>187.55</course>
  <speed>0.03605551275463989</speed>
  <fix>3d</fix>
</trkpt>
<trkpt lat="33.810313" lon="-118.393867">
  <ele>-0.12</ele>
  <time>2026-09-01T01:12:58Z</time>
  <course>0.0</course>
  <speed>0.0</speed>
  <fix>3d</fix>
</trkpt>
<trkpt lat="33.810313" lon="-118.393867">
  <ele>-0.117</ele>
  <time>2026-09-01T01:12:58Z</time>
  <course>187.54</course>
  <speed>0.03605551275463989</speed>
  <fix>3d</fix>
</trkpt>
<trkpt lat="33.810313" lon="-118.393867">
  <ele>-0.12</ele>
  <time>2026-09-01T01:12:58Z</time>
  <course>0.0</course>
  <speed>0.0</speed>
  <fix>3d</fix>
</trkpt>
<trkpt lat="33.810313" lon="-118.393867">
  <ele>-0.117</ele>
  <time>2026-09-01T01:12:58Z</time>
  <course>187.54</course>
  <speed>0.03605551275463989</speed>
  <fix>3d</fix>
</trkpt>
<trkpt lat="33.810313" lon="-118.393867">
  <ele>-0.12</ele>
  <time>2026-09-01T01:12:58Z</time>
  <course>0.0</course>
  <speed>0.0</speed>
  <fix>3d</fix>
</trkpt>
<trkpt lat="33.810313" lon="-118.393867">
  <ele>-0.118</ele>
  <time>2026-09-01T01:12:58Z</time>
  <course>187.53</course>
  <speed>0.03605551275463989</speed>
  <fix>3d</fix>
</trkpt>
<trkpt lat="33.810313" lon="-118.393867">
  <ele>-0.12</ele>
  <time>2026-09-01T01:12:58Z</time>
  <course>0.0</course>
  <speed>0.0</speed>
  <fix>3d</fix>
</trkpt>
<trkpt lat="33.810313" lon="-118.393867">
  <ele>-0.119</ele>
  <time>2026-09-01T01:12:58Z</time>
  <course>187.52</course>
  <speed>0.03605551275463989</speed>
  <fix>3d</fix>
</trkpt>
<trkpt lat="33.810313" lon="-118.393867">
  <ele>-0.12</ele>
  <time>2026-09-01T01:12:58Z</time>
  <course>0.0</course>
  <speed>0.0</speed>
  <fix>3d</fix>
</trkpt>
<trkpt lat="33.810313" lon="-118.393867">
  <ele>-0.12</ele>
  <time>2026-09-01T01:12:58Z</time>
  <course>187.52</course>
  <speed>0.03605551275463989</speed>
  <fix>3d</fix>
</trkpt>
<trkpt lat="33.810313" lon="-118.393867">
  <ele>-0.12</ele>
  <time>2026-09-01T01:12:58Z</time>
  <course>0.0</course>
  <speed>0.0</speed>
  <fix>3d</fix>
</trkpt>
<trkpt lat="33.810313" lon="-118.393867">
  <ele>-0.121</ele>
  <time>2026-09-01T01:12:58Z</time>
  <course>187.51</course>
  <speed>0.03605551275463989</speed>
  <fix>3d</fix>
</trkpt>
<trkpt lat="33.810313" lon="-118.393867">
  <ele>-0.12</ele>
  <time>2026-09-01T01:12:58Z</time>
  <course>0.0</course>
  <speed>0.0</speed>
  <fix>3d</fix>
</trkpt>
<trkpt lat="33.810313" lon="-118.393867">
  <ele>-0.121</ele>
  <time>2026-09-01T01:12:58Z</time>
  <course>187.51</course>
  <speed>0.03605551275463989</speed>
  <fix>3d</fix>
</trkpt>
<trkpt lat="33.810313" lon="-118.393867">
  <ele>-0.12</ele>
  <time>2026-09-01T01:12:58Z</time>
  <course>0.0</course>
  <speed>0.0</speed>
  <fix>3d</fix>
</trkpt>
<trkpt lat="33.810313" lon="-118.393867">
  <ele>-0.121</ele>
  <time>2026-09-01T01:12:58Z</time>
  <course>187.5</course>
  <speed>0.03605551275463989</speed>
  <fix>3d</fix>
</trkpt>
<trkpt lat="33.810313" lon="-118.393867">
  <ele>-0.12</ele>
  <time>2026-09-01T01:12:58Z</time>
  <course>0.0</course>
  <speed>0.0</speed>
  <fix>3d</fix>
</trkpt>
<trkpt lat="33.810313" lon="-118.393867">
  <ele>-0.121</ele>
  <time>2026-09-01T01:12:58Z</time>
  <course>187.49</course>
  <speed>0.03605551275463989</speed>
  <fix>3d</fix>
</trkpt>
<trkpt lat="33.810313" lon="-118.393867">
  <ele>-0.12</ele>
  <time>2026-09-01T01:12:58Z</time>
  <course>0.0</course>
  <speed>0.0</speed>
  <fix>3d</fix>
</trkpt>
<trkpt lat="33.810313" lon="-118.393867">
  <ele>-0.121</ele>
  <time>2026-09-01T01:12:58Z</time>
  <course>187.49</course>
  <speed>0.03605551275463989</speed>
  <fix>3d</fix>
</trkpt>
<trkpt lat="33.810313" lon="-118.393867">
  <ele>-0.12</ele>
  <time>2026-09-01T01:12:58Z</time>
  <course>0.0</course>
  <speed>0.0</speed>
  <fix>3d</fix>
</trkpt>
<trkpt lat="33.810313" lon="-118.393867">
  <ele>-0.121</ele>
  <time>2026-09-01T01:12:58Z</time>
  <course>187.48</course>
  <speed>0.03605551275463989</speed>
  <fix>3d</fix>
</trkpt>
<trkpt lat="33.810313" lon="-118.393867">
  <ele>-0.12</ele>
  <time>2026-09-01T01:12:58Z</time>
  <course>0.0</course>
  <speed>0.0</speed>
  <fix>3d</fix>
</trkpt>
<trkpt lat="33.810313" lon="-118.393867">
  <ele>-0.122</ele>
  <time>2026-09-01T01:12:58Z</time>
  <course>187.47</course>
  <speed>0.03605551275463989</speed>
  <fix>3d</fix>
</trkpt>
<trkpt lat="33.810313" lon="-118.393867">
  <ele>-0.12</ele>
  <time>2026-09-01T01:12:58Z</time>
  <course>0.0</course>
  <speed>0.0</speed>
  <fix>3d</fix>
</trkpt>
<trkpt lat="33.810313" lon="-118.393867">
  <ele>-0.124</ele>
  <time>2026-09-01T01:12:58Z</time>
  <course>187.47</course>
  <speed>0.03605551275463989</speed>
  <fix>3d</fix>
</trkpt>
<trkpt lat="33.810313" lon="-118.393867">
  <ele>-0.12</ele>
  <time>2026-09-01T01:12:58Z</time>
  <course>0.0</course>
  <speed>0.0</speed>
  <fix>3d</fix>
</trkpt>
<trkpt lat="33.810313" lon="-118.393867">
  <ele>-0.127</ele>
  <time>2026-09-01T01:12:58Z</time>
  <course>187.46</course>
  <speed>0.03605551275463989</speed>
  <fix>3d</fix>
</trkpt>
<trkpt lat="33.810313" lon="-118.393867">
  <ele>-0.12</ele>
  <time>2026-09-01T01:12:58Z</time>
  <course>0.0</course>
  <speed>0.0</speed>
  <fix>3d</fix>
</trkpt>
<trkpt lat="33.810313" lon="-118.393867">
  <ele>-0.129</ele>
  <time>2026-09-01T01:12:58Z</time>
  <course>187.45</course>
  <speed>0.03605551275463989</speed>
  <fix>3d</fix>
</trkpt>
<trkpt lat="33.810313" lon="-118.393867">
  <ele>-0.12</ele>
  <time>2026-09-01T01:12:58Z</time>
  <course>0.0</course>
  <speed>0.0</speed>
  <fix>3d</fix>
</trkpt>
<trkpt lat="33.810313" lon="-118.393867">
  <ele>-0.131</ele>
  <time>2026-09-01T01:12:58Z</time>
  <course>187.45</course>
  <speed>0.03605551275463989</speed>
  <fix>3d</fix>
</trkpt>
<trkpt lat="33.810313" lon="-118.393867">
  <ele>-0.12</ele>
  <time>2026-09-01T01:12:58Z</time>
  <course>0.0</course>
  <speed>0.0</speed>
  <fix>3d</fix>
</trkpt>
<trkpt lat="33.810313" lon="-118.393867">
  <ele>-0.132</ele>
  <time>2026-09-01T01:12:58Z</time>
  <course>187.44</course>
  <speed>0.03605551275463989</speed>
  <fix>3d</fix>
</trkpt>
<trkpt lat="33.810313" lon="-118.393867">
  <ele>-0.12</ele>
  <time>2026-09-01T01:12:58Z</time>
  <course>0.0</course>
  <speed>0.0</speed>
  <fix>3d</fix>
</trkpt>
<trkpt lat="33.810313" lon="-118.393867">
  <ele>-0.132</ele>
  <time>2026-09-01T01:12:58Z</time>
  <course>187.44</course>
  <speed>0.03605551275463989</speed>
  <fix>3d</fix>
</trkpt>
<trkpt lat="33.810313" lon="-118.393867">
  <ele>-0.12</ele>
  <time>2026-09-01T01:12:58Z</time>
  <course>0.0</course>
  <speed>0.0</speed>
  <fix>3d</fix>
</trkpt>
<trkpt lat="33.810313" lon="-118.393867">
  <ele>-0.132</ele>
  <time>2026-09-01T01:12:58Z</time>
  <course>187.43</course>
  <speed>0.03605551275463989</speed>
  <fix>3d</fix>
</trkpt>
<trkpt lat="33.810313" lon="-118.393867">
  <ele>-0.12</ele>
  <time>2026-09-01T01:12:58Z</time>
  <course>0.0</course>
  <speed>0.0</speed>
  <fix>3d</fix>
</trkpt>
<trkpt lat="33.810313" lon="-118.393867">
  <ele>-0.132</ele>
  <time>2026-09-01T01:12:58Z</time>
  <course>187.42</course>
  <speed>0.03605551275463989</speed>
  <fix>3d</fix>
</trkpt>
<trkpt lat="33.810313" lon="-118.393867">
  <ele>-0.12</ele>
  <time>2026-09-01T01:12:58Z</time>
  <course>0.0</course>
  <speed>0.0</speed>
  <fix>3d</fix>
</trkpt>
<trkpt lat="33.810313" lon="-118.393867">
  <ele>-0.131</ele>
  <time>2026-09-01T01:12:58Z</time>
  <course>187.42</course>
  <speed>0.03605551275463989</speed>
  <fix>3d</fix>
</trkpt>
<trkpt lat="33.810313" lon="-118.393867">
  <ele>-0.12</ele>
  <time>2026-09-01T01:12:58Z</time>
  <course>0.0</course>
  <speed>0.0</speed>
  <fix>3d</fix>
</trkpt>
<trkpt lat="33.810313" lon="-118.393867">
  <ele>-0.131</ele>
  <time>2026-09-01T01:12:58Z</time>
  <course>187.41</course>
  <speed>0.03605551275463989</speed>
  <fix>3d</fix>
</trkpt>
<trkpt lat="33.810313" lon="-118.393867">
  <ele>-0.12</ele>
  <time>2026-09-01T01:12:58Z</time>
  <course>0.0</course>
  <speed>0.0</speed>
  <fix>3d</fix>
</trkpt>
<trkpt lat="33.810313" lon="-118.393867">
  <ele>-0.132</ele>
  <time>2026-09-01T01:12:58Z</time>
  <course>187.41</course>
  <speed>0.03605551275463989</speed>
  <fix>3d</fix>
</trkpt>
<trkpt lat="33.810313" lon="-118.393867">
  <ele>-0.12</ele>
  <time>2026-09-01T01:12:58Z</time>
  <course>0.0</course>
  <speed>0.0</speed>
  <fix>3d</fix>
</trkpt>
<trkpt lat="33.810313" lon="-118.393867">
  <ele>-0.134</ele>
  <time>2026-09-01T01:12:58Z</time>
  <course>187.4</course>
  <speed>0.03605551275463989</speed>
  <fix>3d</fix>
</trkpt>
<trkpt lat="33.810313" lon="-118.393867">
  <ele>-0.12</ele>
  <time>2026-09-01T01:12:58Z</time>
  <course>0.0</course>
  <speed>0.0</speed>
  <fix>3d</fix>
</trkpt>
<trkpt lat="33.810313" lon="-118.393867">
  <ele>-0.137</ele>
  <time>2026-09-01T01:12:58Z</time>
  <course>187.39</course>
  <speed>0.03605551275463989</speed>
  <fix>3d</fix>
</trkpt>
<trkpt lat="33.810313" lon="-118.393867">
  <ele>-0.12</ele>
  <time>2026-09-01T01:12:58Z</time>
  <course>0.0</course>
  <speed>0.0</speed>
  <fix>3d</fix>
</trkpt>
<trkpt lat="33.810313" lon="-118.393867">
  <ele>-0.139</ele>
  <time>2026-09-01T01:12:58Z</time>
  <course>187.39</course>
  <speed>0.03605551275463989</speed>
  <fix>3d</fix>
</trkpt>
<trkpt lat="33.810313" lon="-118.393867">
  <ele>-0.12</ele>
  <time>2026-09-01T01:12:58Z</time>
  <course>0.0</course>
  <speed>0.0</speed>
  <fix>3d</fix>
</trkpt>
<trkpt lat="33.810313" lon="-118.393867">
  <ele>-0.141</ele>
  <time>2026-09-01T01:12:58Z</time>
  <course>187.38</course>
  <speed>0.03605551275463989</speed>
  <fix>3d</fix>
</trkpt>
<trkpt lat="33.810313" lon="-118.393867">
  <ele>-0.12</ele>
  <time>2026-09-01T01:12:58Z</time>
  <course>0.0</course>
  <speed>0.0</speed>
  <fix>3d</fix>
</trkpt>
<trkpt lat="33.810313" lon="-118.393867">
  <ele>-0.141</ele>
  <time>2026-09-01T01:12:58Z</time>
  <course>187.38</course>
  <speed>0.03605551275463989</speed>
  <fix>3d</fix>
</trkpt>
<trkpt lat="33.810313" lon="-118.393867">
  <ele>-0.12</ele>
  <time>2026-09-01T01:12:58Z</time>
  <course>0.0</course>
  <speed>0.0</speed>
  <fix>3d</fix>
</trkpt>
<trkpt lat="33.810313" lon="-118.393867">
  <ele>-0.139</ele>
  <time>2026-09-01T01:12:58Z</time>
  <course>187.37</course>
  <speed>0.03605551275463989</speed>
  <fix>3d</fix>
</trkpt>
<trkpt lat="33.810313" lon="-118.393867">
  <ele>-0.12</ele>
  <time>2026-09-01T01:12:58Z</time>
  <course>0.0</course>
  <speed>0.0</speed>
  <fix>3d</fix>
</trkpt>
<trkpt lat="33.810313" lon="-118.393867">
  <ele>-0.136</ele>
  <time>2026-09-01T01:12:58Z</time>
  <course>187.36</course>
  <speed>0.03605551275463989</speed>
  <fix>3d</fix>
</trkpt>
<trkpt lat="33.810313" lon="-118.393867">
  <ele>-0.12</ele>
  <time>2026-09-01T01:12:58Z</time>
  <course>0.0</course>
  <speed>0.0</speed>
  <fix>3d</fix>
</trkpt>
<trkpt lat="33.810313" lon="-118.393867">
  <ele>-0.132</ele>
  <time>2026-09-01T01:12:58Z</time>
  <course>187.36</course>
  <speed>0.03605551275463989</speed>
  <fix>3d</fix>
</trkpt>
<trkpt lat="33.810313" lon="-118.393867">
  <ele>-0.12</ele>
  <time>2026-09-01T01:12:58Z</time>
  <course>0.0</course>
  <speed>0.0</speed>
  <fix>3d</fix>
</trkpt>
<trkpt lat="33.810313" lon="-118.393867">
  <ele>-0.129</ele>
  <time>2026-09-01T01:12:58Z</time>
  <course>187.35</course>
  <speed>0.03605551275463989</speed>
  <fix>3d</fix>
</trkpt>
<trkpt lat="33.810313" lon="-118.393867">
  <ele>-0.12</ele>
  <time>2026-09-01T01:12:58Z</time>
  <course>0.0</course>
  <speed>0.0</speed>
  <fix>3d</fix>
</trkpt>
<trkpt lat="33.810313" lon="-118.393867">
  <ele>-0.127</ele>
  <time>2026-09-01T01:12:58Z</time>
  <course>187.35</course>
  <speed>0.03605551275463989</speed>
  <fix>3d</fix>
</trkpt>
<trkpt lat="33.810313" lon="-118.393867">
  <ele>-0.12</ele>
  <time>2026-09-01T01:12:58Z</time>
  <course>0.0</course>
  <speed>0.0</speed>
  <fix>3d</fix>
</trkpt>
<trkpt lat="33.810313" lon="-118.393867">
  <ele>-0.126</ele>
  <time>2026-09-01T01:12:58Z</time>
  <course>187.34</course>
  <speed>0.03605551275463989</speed>
  <fix>3d</fix>
</trkpt>
<trkpt lat="33.810313" lon="-118.393867">
  <ele>-0.12</ele>
  <time>2026-09-01T01:12:58Z</time>
  <course>0.0</course>
  <speed>0.0</speed>
  <fix>3d</fix>
</trkpt>
<trkpt lat="33.810313" lon="-118.393867">
  <ele>-0.126</ele>
  <time>2026-09-01T01:12:58Z</time>
  <course>187.33</course>
  <speed>0.03605551275463989</speed>
  <fix>3d</fix>
</trkpt>
<trkpt lat="33.810313" lon="-118.393867">
  <ele>-0.12</ele>
  <time>2026-09-01T01:12:58Z</time>
  <course>0.0</course>
  <speed>0.0</speed>
  <fix>3d</fix>
</trkpt>
<trkpt lat="33.810313" lon="-118.393867">
  <ele>-0.127</ele>
  <time>2026-09-01T01:12:58Z</time>
  <course>187.33</course>
  <speed>0.03605551275463989</speed>
  <fix>3d</fix>
</trkpt>
<trkpt lat="33.810313" lon="-118.393867">
  <ele>-0.12</ele>
  <time>2026-09-01T01:12:58Z</time>
  <course>0.0</course>
  <speed>0.0</speed>
  <fix>3d</fix>
</trkpt>
<trkpt lat="33.810313" lon="-118.393867">
  <ele>-0.126</ele>
  <time>2026-09-01T01:12:58Z</time>
  <course>187.32</course>
  <speed>0.03605551275463989</speed>
  <fix>3d</fix>
</trkpt>
<trkpt lat="33.810313" lon="-118.393867">
  <ele>-0.12</ele>
  <time>2026-09-01T01:12:58Z</time>
  <course>0.0</course>
  <speed>0.0</speed>
  <fix>3d</fix>
</trkpt>
<trkpt lat="33.810313" lon="-118.393867">
  <ele>-0.126</ele>
  <time>2026-09-01T01:12:58Z</time>
  <course>187.32</course>
  <speed>0.03605551275463989</speed>
  <fix>3d</fix>
</trkpt>
<trkpt lat="33.810313" lon="-118.393867">
  <ele>-0.12</ele>
  <time>2026-09-01T01:12:58Z</time>
  <course>0.0</course>
  <speed>0.0</speed>
  <fix>3d</fix>
</trkpt>
<trkpt lat="33.810313" lon="-118.393867">
  <ele>-0.125</ele>
  <time>2026-09-01T01:12:58Z</time>
  <course>187.31</course>
  <speed>0.03605551275463989</speed>
  <fix>3d</fix>
</trkpt>
<trkpt lat="33.810313" lon="-118.393867">
  <ele>-0.12</ele>
  <time>2026-09-01T01:12:58Z</time>
  <course>0.0</course>
  <speed>0.0</speed>
  <fix>3d</fix>
</trkpt>
<trkpt lat="33.810313" lon="-118.393867">
  <ele>-0.124</ele>
  <time>2026-09-01T01:12:58Z</time>
  <course>187.31</course>
  <speed>0.03605551275463989</speed>
  <fix>3d</fix>
</trkpt>
<trkpt lat="33.810313" lon="-118.393867">
  <ele>-0.12</ele>
  <time>2026-09-01T01:12:58Z</time>
  <course>0.0</course>
  <speed>0.0</speed>
  <fix>3d</fix>
</trkpt>
<trkpt lat="33.810313" lon="-118.393867">
  <ele>-0.122</ele>
  <time>2026-09-01T01:12:58Z</time>
  <course>187.3</course>
  <speed>0.03605551275463989</speed>
  <fix>3d</fix>
</trkpt>
<trkpt lat="33.810313" lon="-118.393867">
  <ele>-0.12</ele>
  <time>2026-09-01T01:12:58Z</time>
  <course>0.0</course>
  <speed>0.0</speed>
  <fix>3d</fix>
</trkpt>
<trkpt lat="33.810313" lon="-118.393867">
  <ele>-0.121</ele>
  <time>2026-09-01T01:12:58Z</time>
  <course>187.29</course>
  <speed>0.03605551275463989</speed>
  <fix>3d</fix>
</trkpt>
<trkpt lat="33.810313" lon="-118.393867">
  <ele>-0.12</ele>
  <time>2026-09-01T01:12:58Z</time>
  <course>0.0</course>
  <speed>0.0</speed>
  <fix>3d</fix>
</trkpt>
<trkpt lat="33.810313" lon="-118.393867">
  <ele>-0.122</ele>
  <time>2026-09-01T01:12:58Z</time>
  <course>187.29</course>
  <speed>0.03605551275463989</speed>
  <fix>3d</fix>
</trkpt>
<trkpt lat="33.810313" lon="-118.393867">
  <ele>-0.12</ele>
  <time>2026-09-01T01:12:58Z</time>
  <course>0.0</course>
  <speed>0.0</speed>
  <fix>3d</fix>
</trkpt>
<trkpt lat="33.810313" lon="-118.393867">
  <ele>-0.124</ele>
  <time>2026-09-01T01:12:58Z</time>
  <course>187.28</course>
  <speed>0.03605551275463989</speed>
  <fix>3d</fix>
</trkpt>
<trkpt lat="33.810313" lon="-118.393867">
  <ele>-0.12</ele>
  <time>2026-09-01T01:12:58Z</time>
  <course>0.0</course>
  <speed>0.0</speed>
  <fix>3d</fix>
</trkpt>
<trkpt lat="33.810313" lon="-118.393867">
  <ele>-0.128</ele>
  <time>2026-09-01T01:12:58Z</time>
  <course>187.28</course>
  <speed>0.03605551275463989</speed>
  <fix>3d</fix>
</trkpt>
<trkpt lat="33.810313" lon="-118.393867">
  <ele>-0.12</ele>
  <time>2026-09-01T01:12:58Z</time>
  <course>0.0</course>
  <speed>0.0</speed>
  <fix>3d</fix>
</trkpt>
<trkpt lat="33.810313" lon="-118.393867">
  <ele>-0.13</ele>
  <time>2026-09-01T01:12:58Z</time>
  <course>187.27</course>
  <speed>0.03605551275463989</speed>
  <fix>3d</fix>
</trkpt>
<trkpt lat="33.810313" lon="-118.393867">
  <ele>-0.12</ele>
  <time>2026-09-01T01:12:58Z</time>
  <course>0.0</course>
  <speed>0.0</speed>
  <fix>3d</fix>
</trkpt>
<trkpt lat="33.810313" lon="-118.393867">
  <ele>-0.133</ele>
  <time>2026-09-01T01:12:58Z</time>
  <course>187.27</course>
  <speed>0.03605551275463989</speed>
  <fix>3d</fix>
</trkpt>
<trkpt lat="33.810313" lon="-118.393867">
  <ele>-0.12</ele>
  <time>2026-09-01T01:12:58Z</time>
  <course>0.0</course>
  <speed>0.0</speed>
  <fix>3d</fix>
</trkpt>
<trkpt lat="33.810313" lon="-118.393867">
  <ele>-0.135</ele>
  <time>2026-09-01T01:12:58Z</time>
  <course>187.26</course>
  <speed>0.03605551275463989</speed>
  <fix>3d</fix>
</trkpt>
<trkpt lat="33.810313" lon="-118.393867">
  <ele>-0.12</ele>
  <time>2026-09-01T01:12:58Z</time>
  <course>0.0</course>
  <speed>0.0</speed>
  <fix>3d</fix>
</trkpt>
<trkpt lat="33.810313" lon="-118.393867">
  <ele>-0.136</ele>
  <time>2026-09-01T01:12:58Z</time>
  <course>187.26</course>
  <speed>0.03605551275463989</speed>
  <fix>3d</fix>
</trkpt>
<trkpt lat="33.810313" lon="-118.393867">
  <ele>-0.12</ele>
  <time>2026-09-01T01:12:58Z</time>
  <course>0.0</course>
  <speed>0.0</speed>
  <fix>3d</fix>
</trkpt>
<trkpt lat="33.810313" lon="-118.393867">
  <ele>-0.136</ele>
  <time>2026-09-01T01:12:58Z</time>
  <course>187.25</course>
  <speed>0.03605551275463989</speed>
  <fix>3d</fix>
</trkpt>
<trkpt lat="33.810313" lon="-118.393867">
  <ele>-0.12</ele>
  <time>2026-09-01T01:12:58Z</time>
  <course>0.0</course>
  <speed>0.0</speed>
  <fix>3d</fix>
</trkpt>
<trkpt lat="33.810313" lon="-118.393867">
  <ele>-0.135</ele>
  <time>2026-09-01T01:12:58Z</time>
  <course>187.25</course>
  <speed>0.03605551275463989</speed>
  <fix>3d</fix>
</trkpt>
<trkpt lat="33.810313" lon="-118.393867">
  <ele>-0.12</ele>
  <time>2026-09-01T01:12:58Z</time>
  <course>0.0</course>
  <speed>0.0</speed>
  <fix>3d</fix>
</trkpt>
<trkpt lat="33.810313" lon="-118.393867">
  <ele>-0.134</ele>
  <time>2026-09-01T01:12:58Z</time>
  <course>187.24</course>
  <speed>0.03605551275463989</speed>
  <fix>3d</fix>
</trkpt>
<trkpt lat="33.810313" lon="-118.393867">
  <ele>-0.12</ele>
  <time>2026-09-01T01:12:58Z</time>
  <course>0.0</course>
  <speed>0.0</speed>
  <fix>3d</fix>
</trkpt>
<trkpt lat="33.810313" lon="-118.393867">
  <ele>-0.132</ele>
  <time>2026-09-01T01:12:58Z</time>
  <course>187.24</course>
  <speed>0.03605551275463989</speed>
  <fix>3d</fix>
</trkpt>
<trkpt lat="33.810313" lon="-118.393867">
  <ele>-0.12</ele>
  <time>2026-09-01T01:12:58Z</time>
  <course>0.0</course>
  <speed>0.0</speed>
  <fix>3d</fix>
</trkpt>
<trkpt lat="33.810313" lon="-118.393867">
  <ele>-0.131</ele>
  <time>2026-09-01T01:12:58Z</time>
  <course>187.23</course>
  <speed>0.03605551275463989</speed>
  <fix>3d</fix>
</trkpt>
<trkpt lat="33.810313" lon="-118.393867">
  <ele>-0.12</ele>
  <time>2026-09-01T01:12:58Z</time>
  <course>0.0</course>
  <speed>0.0</speed>
  <fix>3d</fix>
</trkpt>
<trkpt lat="33.810313" lon="-118.393867">
  <ele>-0.131</ele>
  <time>2026-09-01T01:12:58Z</time>
  <course>187.22</course>
  <speed>0.03605551275463989</speed>
  <fix>3d</fix>
</trkpt>
<trkpt lat="33.810313" lon="-118.393867">
  <ele>-0.12</ele>
  <time>2026-09-01T01:12:58Z</time>
  <course>0.0</course>
  <speed>0.0</speed>
  <fix>3d</fix>
</trkpt>
<trkpt lat="33.810313" lon="-118.393867">
  <ele>-0.132</ele>
  <time>2026-09-01T01:12:58Z</time>
  <course>187.22</course>
  <speed>0.03605551275463989</speed>
  <fix>3d</fix>
</trkpt>
<trkpt lat="33.810313" lon="-118.393867">
  <ele>-0.12</ele>
  <time>2026-09-01T01:12:58Z</time>
  <course>0.0</course>
  <speed>0.0</speed>
  <fix>3d</fix>
</trkpt>
<trkpt lat="33.810313" lon="-118.393867">
  <ele>-0.132</ele>
  <time>2026-09-01T01:12:58Z</time>
  <course>187.21</course>
  <speed>0.03605551275463989</speed>
  <fix>3d</fix>
</trkpt>
<trkpt lat="33.810313" lon="-118.393867">
  <ele>-0.12</ele>
  <time>2026-09-01T01:12:58Z</time>
  <course>0.0</course>
  <speed>0.0</speed>
  <fix>3d</fix>
</trkpt>
<trkpt lat="33.810313" lon="-118.393867">
  <ele>-0.133</ele>
  <time>2026-09-01T01:12:58Z</time>
  <course>187.21</course>
  <speed>0.03605551275463989</speed>
  <fix>3d</fix>
</trkpt>
<trkpt lat="33.810313" lon="-118.393867">
  <ele>-0.12</ele>
  <time>2026-09-01T01:12:58Z</time>
  <course>0.0</course>
  <speed>0.0</speed>
  <fix>3d</fix>
</trkpt>
<trkpt lat="33.810313" lon="-118.393867">
  <ele>-0.132</ele>
  <time>2026-09-01T01:12:58Z</time>
  <course>187.2</course>
  <speed>0.03605551275463989</speed>
  <fix>3d</fix>
</trkpt>
<trkpt lat="33.810313" lon="-118.393867">
  <ele>-0.12</ele>
  <time>2026-09-01T01:12:58Z</time>
  <course>0.0</course>
  <speed>0.0</speed>
  <fix>3d</fix>
</trkpt>
<trkpt lat="33.810313" lon="-118.393867">
  <ele>-0.131</ele>
  <time>2026-09-01T01:12:58Z</time>
  <course>187.2</course>
  <speed>0.03605551275463989</speed>
  <fix>3d</fix>
</trkpt>
<trkpt lat="33.810313" lon="-118.393867">
  <ele>-0.12</ele>
  <time>2026-09-01T01:12:58Z</time>
  <course>0.0</course>
  <speed>0.0</speed>
  <fix>3d</fix>
</trkpt>
<trkpt lat="33.810313" lon="-118.393867">
  <ele>-0.129</ele>
  <time>2026-09-01T01:12:58Z</time>
  <course>187.19</course>
  <speed>0.03605551275463989</speed>
  <fix>3d</fix>
</trkpt>
<trkpt lat="33.810313" lon="-118.393867">
  <ele>-0.12</ele>
  <time>2026-09-01T01:12:58Z</time>
  <course>0.0</course>
  <speed>0.0</speed>
  <fix>3d</fix>
</trkpt>
<trkpt lat="33.810313" lon="-118.393867">
  <ele>-0.126</ele>
  <time>2026-09-01T01:12:58Z</time>
  <course>187.19</course>
  <speed>0.03605551275463989</speed>
  <fix>3d</fix>
</trkpt>
<trkpt lat="33.810313" lon="-118.393867">
  <ele>-0.12</ele>
  <time>2026-09-01T01:12:58Z</time>
  <course>0.0</course>
  <speed>0.0</speed>
  <fix>3d</fix>
</trkpt>
<trkpt lat="33.810313" lon="-118.393867">
  <ele>-0.124</ele>
  <time>2026-09-01T01:12:58Z</time>
  <course>187.18</course>
  <speed>0.03605551275463989</speed>
  <fix>3d</fix>
</trkpt>
<trkpt lat="33.810313" lon="-118.393867">
  <ele>-0.12</ele>
  <time>2026-09-01T01:12:58Z</time>
  <course>0.0</course>
  <speed>0.0</speed>
  <fix>3d</fix>
</trkpt>
<trkpt lat="33.810313" lon="-118.393867">
  <ele>-0.123</ele>
  <time>2026-09-01T01:12:58Z</time>
  <course>187.18</course>
  <speed>0.03605551275463989</speed>
  <fix>3d</fix>
</trkpt>
<trkpt lat="33.810313" lon="-118.393867">
  <ele>-0.12</ele>
  <time>2026-09-01T01:12:58Z</time>
  <course>0.0</course>
  <speed>0.0</speed>
  <fix>3d</fix>
</trkpt>
<trkpt lat="33.810313" lon="-118.393867">
  <ele>-0.123</ele>
  <time>2026-09-01T01:12:58Z</time>
  <course>187.17</course>
  <speed>0.03605551275463989</speed>
  <fix>3d</fix>
</trkpt>
<trkpt lat="33.810313" lon="-118.393867">
  <ele>-0.12</ele>
  <time>2026-09-01T01:12:58Z</time>
  <course>0.0</course>
  <speed>0.0</speed>
  <fix>3d</fix>
</trkpt>
<trkpt lat="33.810313" lon="-118.393867">
  <ele>-0.122</ele>
  <time>2026-09-01T01:12:58Z</time>
  <course>187.17</course>
  <speed>0.0</speed>
  <fix>3d</fix>
</trkpt>
<trkpt lat="33.810313" lon="-118.393867">
  <ele>-0.12</ele>
  <time>2026-09-01T01:12:58Z</time>
  <course>0.0</course>
  <speed>0.0</speed>
  <fix>3d</fix>
</trkpt>
<trkpt lat="33.810313" lon="-118.393867">
  <ele>-0.121</ele>
  <time>2026-09-01T01:12:58Z</time>
  <course>187.16</course>
  <speed>0.0</speed>
  <fix>3d</fix>
</trkpt>
<trkpt lat="33.810313" lon="-118.393867">
  <ele>-0.12</ele>
  <time>2026-09-01T01:12:58Z</time>
  <course>0.0</course>
  <speed>0.0</speed>
  <fix>3d</fix>
</trkpt>
<trkpt lat="33.810313" lon="-118.393867">
  <ele>-0.12</ele>
  <time>2026-09-01T01:12:58Z</time>
  <course>187.16</course>
  <speed>0.0</speed>
  <fix>3d</fix>
</trkpt>
<trkpt lat="33.810313" lon="-118.393867">
  <ele>-0.12</ele>
  <time>2026-09-01T01:12:58Z</time>
  <course>0.0</course>
  <speed>0.0</speed>
  <fix>3d</fix>
</trkpt>
<trkpt lat="33.810313" lon="-118.393867">
  <ele>-0.119</ele>
  <time>2026-09-01T01:12:58Z</time>
  <course>187.15</course>
  <speed>0.0</speed>
  <fix>3d</fix>
</trkpt>
<trkpt lat="33.810313" lon="-118.393867">
  <ele>-0.12</ele>
  <time>2026-09-01T01:12:58Z</time>
  <course>0.0</course>
  <speed>0.0</speed>
  <fix>3d</fix>
</trkpt>
<trkpt lat="33.810313" lon="-118.393867">
  <ele>-0.116</ele>
  <time>2026-09-01T01:12:58Z</time>
  <course>187.15</course>
  <speed>0.0</speed>
  <fix>3d</fix>
</trkpt>
<trkpt lat="33.810313" lon="-118.393867">
  <ele>-0.12</ele>
  <time>2026-09-01T01:12:58Z</time>
  <course>0.0</course>
  <speed>0.0</speed>
  <fix>3d</fix>
</trkpt>
<trkpt lat="33.810313" lon="-118.393867">
  <ele>-0.114</ele>
  <time>2026-09-01T01:12:58Z</time>
  <course>187.14</course>
  <speed>0.0</speed>
  <fix>3d</fix>
</trkpt>
<trkpt lat="33.810313" lon="-118.393867">
  <ele>-0.12</ele>
  <time>2026-09-01T01:12:58Z</time>
  <course>0.0</course>
  <speed>0.0</speed>
  <fix>3d</fix>
</trkpt>
<trkpt lat="33.810313" lon="-118.393867">
  <ele>-0.113</ele>
  <time>2026-09-01T01:12:58Z</time>
  <course>187.14</course>
  <speed>0.0</speed>
  <fix>3d</fix>
</trkpt>
<trkpt lat="33.810313" lon="-118.393867">
  <ele>-0.12</ele>
  <time>2026-09-01T01:12:58Z</time>
  <course>0.0</course>
  <speed>0.0</speed>
  <fix>3d</fix>
</trkpt>
<trkpt lat="33.810313" lon="-118.393867">
  <ele>-0.112</ele>
  <time>2026-09-01T01:12:58Z</time>
  <course>187.13</course>
  <speed>0.0</speed>
  <fix>3d</fix>
</trkpt>
<trkpt lat="33.810313" lon="-118.393867">
  <ele>-0.12</ele>
  <time>2026-09-01T01:12:58Z</time>
  <course>0.0</course>
  <speed>0.0</speed>
  <fix>3d</fix>
</trkpt>
<trkpt lat="33.810313" lon="-118.393867">
  <ele>-0.113</ele>
  <time>2026-09-01T01:12:58Z</time>
  <course>187.13</course>
  <speed>0.0</speed>
  <fix>3d</fix>
</trkpt>
<trkpt lat="33.810313" lon="-118.393867">
  <ele>-0.12</ele>
  <time>2026-09-01T01:12:58Z</time>
  <course>0.0</course>
  <speed>0.0</speed>
  <fix>3d</fix>
</trkpt>
<trkpt lat="33.810313" lon="-118.393867">
  <ele>-0.114</ele>
  <time>2026-09-01T01:12:58Z</time>
  <course>187.12</course>
  <speed>0.0</speed>
  <fix>3d</fix>
</trkpt>
<trkpt lat="33.810313" lon="-118.393867">
  <ele>-0.12</ele>
  <time>2026-09-01T01:12:58Z</time>
  <course>0.0</course>
  <speed>0.0</speed>
  <fix>3d</fix>
</trkpt>
<trkpt lat="33.810313" lon="-118.393867">
  <ele>-0.117</ele>
  <time>2026-09-01T01:12:58Z</time>
  <course>187.12</course>
  <speed>0.0</speed>
  <fix>3d</fix>
</trkpt>
<trkpt lat="33.810313" lon="-118.393867">
  <ele>-0.12</ele>
  <time>2026-09-01T01:12:58Z</time>
  <course>0.0</course>
  <speed>0.0</speed>
  <fix>3d</fix>
</trkpt>
<trkpt lat="33.810313" lon="-118.393867">
  <ele>-0.119</ele>
  <time>2026-09-01T01:12:58Z</time>
  <course>187.11</course>
  <speed>0.01</speed>
  <fix>3d</fix>
</trkpt>
<trkpt lat="33.810313" lon="-118.393867">
  <ele>-0.12</ele>
  <time>2026-09-01T01:12:58Z</time>
  <course>0.0</course>
  <speed>0.0</speed>
  <fix>3d</fix>
</trkpt>
<trkpt lat="33.810313" lon="-118.393867">
  <ele>-0.12</ele>
  <time>2026-09-01T01:12:58Z</time>
  <course>187.11</course>
  <speed>0.01</speed>
  <fix>3d</fix>
</trkpt>
<trkpt lat="33.810313" lon="-118.393867">
  <ele>-0.12</ele>
  <time>2026-09-01T01:12:58Z</time>
  <course>0.0</course>
  <speed>0.0</speed>
  <fix>3d</fix>
</trkpt>
<trkpt lat="33.810313" lon="-118.393867">
  <ele>-0.121</ele>
  <time>2026-09-01T01:12:58Z</time>
  <course>187.1</course>
  <speed>0.01</speed>
  <fix>3d</fix>
</trkpt>
<trkpt lat="33.810313" lon="-118.393867">
  <ele>-0.12</ele>
  <time>2026-09-01T01:12:58Z</time>
  <course>0.0</course>
  <speed>0.0</speed>
  <fix>3d</fix>
</trkpt>
<trkpt lat="33.810313" lon="-118.393867">
  <ele>-0.122</ele>
  <time>2026-09-01T01:12:58Z</time>
  <course>187.1</course>
  <speed>0.01414213562373095</speed>
  <fix>3d</fix>
</trkpt>
<trkpt lat="33.810313" lon="-118.393867">
  <ele>-0.12</ele>
  <time>2026-09-01T01:12:58Z</time>
  <course>0.0</course>
  <speed>0.0</speed>
  <fix>3d</fix>
</trkpt>
<trkpt lat="33.810313" lon="-118.393867">
  <ele>-0.122</ele>
  <time>2026-09-01T01:12:58Z</time>
  <course>187.09</course>
  <speed>0.09219544457292887</speed>
  <fix>3d</fix>
</trkpt>
<trkpt lat="33.810313" lon="-118.393867">
  <ele>-0.12</ele>
  <time>2026-09-01T01:12:58Z</time>
  <course>0.0</course>
  <speed>0.0</speed>
  <fix>3d</fix>
</trkpt>
<trkpt lat="33.8103129" lon="-118.3938671">
  <ele>-0.12</ele>
  <time>2026-09-01T01:12:58Z</time>
  <course>187.09</course>
  <speed>0.2580697580112788</speed>
  <fix>3d</fix>
</trkpt>
<trkpt lat="33.810313" lon="-118.393867">
  <ele>-0.12</ele>
  <time>2026-09-01T01:12:58Z</time>
  <course>193.02</course>
  <speed>0.06</speed>
  <fix>3d</fix>
</trkpt>
<trkpt lat="33.8103126" lon="-118.3938673">
  <ele>-0.114</ele>
  <time>2026-09-01T01:12:58Z</time>
  <course>187.08</course>
  <speed>0.41109609582188933</speed>
  <fix>3d</fix>
</trkpt>
<trkpt lat="33.810313" lon="-118.393867">
  <ele>-0.12</ele>
  <time>2026-09-01T01:12:58Z</time>
  <course>193.02</course>
  <speed>0.06</speed>
  <fix>3d</fix>
</trkpt>
<trkpt lat="33.8103123" lon="-118.3938676">
  <ele>-0.106</ele>
  <time>2026-09-01T01:12:58Z</time>
  <course>187.08</course>
  <speed>0.523450093132096</speed>
  <fix>3d</fix>
</trkpt>
<trkpt lat="33.8103127" lon="-118.3938671">
  <ele>-0.11</ele>
  <time>2026-09-01T01:12:58Z</time>
  <course>211.7</course>
  <speed>0.28</speed>
  <fix>3d</fix>
</trkpt>
<trkpt lat="33.8103119" lon="-118.393868">
  <ele>-0.101</ele>
  <time>2026-09-01T01:12:58Z</time>
  <course>187.07</course>
  <speed>0.5939696961966999</speed>
  <fix>3d</fix>
</trkpt>
<trkpt lat="33.8103127" lon="-118.3938671">
  <ele>-0.11</ele>
  <time>2026-09-01T01:12:58Z</time>
  <course>211.7</course>
  <speed>0.28</speed>
  <fix>3d</fix>
</trkpt>
<trkpt lat="33.8103115" lon="-118.3938685">
  <ele>-0.1</ele>
  <time>2026-09-01T01:12:58Z</time>
  <course>187.06</course>
  <speed>0.6435060217278468</speed>
  <fix>3d</fix>
</trkpt>
<trkpt lat="33.8103121" lon="-118.3938676">
  <ele>-0.1</ele>
  <time>2026-09-01T01:12:58Z</time>
  <course>219.76</course>
  <speed>0.53</speed>
  <fix>3d</fix>
</trkpt>
<trkpt lat="33.8103111" lon="-118.3938689">
  <ele>-0.105</ele>
  <time>2026-09-01T01:12:58Z</time>
  <course>187.05</course>
  <speed>0.6717886572427374</speed>
  <fix>3d</fix>
</trkpt>
<trkpt lat="33.8103121" lon="-118.3938676">
  <ele>-0.1</ele>
  <time>2026-09-01T01:12:58Z</time>
  <course>219.76</course>
  <speed>0.53</speed>
  <fix>3d</fix>
</trkpt>
<trkpt lat="33.8103107" lon="-118.3938694">
  <ele>-0.113</ele>
  <time>2026-09-01T01:12:58Z</time>
  <course>187.04</course>
  <speed>0.6859300255857006</speed>
  <fix>3d</fix>
</trkpt>
<trkpt lat="33.8103113" lon="-118.3938685">
  <ele>-0.09</ele>
  <time>2026-09-01T01:12:58Z</time>
  <course>222.08</course>
  <speed>0.65</speed>
  <fix>3d</fix>
</trkpt>
<trkpt lat="33.8103102" lon="-118.3938699">
  <ele>-0.121</ele>
  <time>2026-09-01T01:12:58Z</time>
  <course>187.03</course>
  <speed>0.7000714249274855</speed>
  <fix>3d</fix>
</trkpt>
<trkpt lat="33.8103113" lon="-118.3938685">
  <ele>-0.09</ele>
  <time>2026-09-01T01:12:58Z</time>
  <course>222.08</course>
  <speed>0.65</speed>
  <fix>3d</fix>
</trkpt>
<trkpt lat="33.8103098" lon="-118.3938704">
  <ele>-0.128</ele>
  <time>2026-09-01T01:12:58Z</time>
  <course>187.02</course>
  <speed>0.7000714249274855</speed>
  <fix>3d</fix>
</trkpt>
<trkpt lat="33.8103104" lon="-118.3938695">
  <ele>-0.1</ele>
  <time>2026-09-01T01:12:58Z</time>
  <course>222.87</course>
  <speed>0.7</speed>
  <fix>3d</fix>
</trkpt>
<trkpt lat="33.8103093" lon="-118.393871">
  <ele>-0.13</ele>
  <time>2026-09-01T01:12:58Z</time>
  <course>187.02</course>
  <speed>0.7000714249274855</speed>
  <fix>3d</fix>
</trkpt>
<trkpt lat="33.8103104" lon="-118.3938695">
  <ele>-0.1</ele>
  <time>2026-09-01T01:12:58Z</time>
  <course>222.87</course>
  <speed>0.7</speed>
  <fix>3d</fix>
</trkpt>
<trkpt lat="33.8103088" lon="-118.3938715">
  <ele>-0.127</ele>
  <time>2026-09-01T01:12:58Z</time>
  <course>187.01</course>
  <speed>0.7071067811865476</speed>
  <fix>3d</fix>
</trkpt>
<trkpt lat="33.8103095" lon="-118.3938706">
  <ele>-0.11</ele>
  <time>2026-09-01T01:12:58Z</time>
  <course>223.13</course>
  <speed>0.72</speed>
  <fix>3d</fix>
</trkpt>
<trkpt lat="33.8103084" lon="-118.393872">
  <ele>-0.12</ele>
  <time>2026-09-01T01:12:58Z</time>
  <course>187.0</course>
  <speed>0.7071067811865476</speed>
  <fix>3d</fix>
</trkpt>
<trkpt lat="33.8103095" lon="-118.3938706">
  <ele>-0.11</ele>
  <time>2026-09-01T01:12:58Z</time>
  <course>223.13</course>
  <speed>0.72</speed>
  <fix>3d</fix>
</trkpt>
<trkpt lat="33.8103079" lon="-118.3938725">
  <ele>-0.111</ele>
  <time>2026-09-01T01:12:58Z</time>
  <course>187.0</course>
  <speed>0.7071067811865476</speed>
  <fix>3d</fix>
</trkpt>
<trkpt lat="33.8103085" lon="-118.3938716">
  <ele>-0.11</ele>
  <time>2026-09-01T01:12:58Z</time>
  <course>223.22</course>
  <speed>0.73</speed>
  <fix>3d</fix>
</trkpt>
<trkpt lat="33.8103074" lon="-118.393873">
  <ele>-0.105</ele>
  <time>2026-09-01T01:12:58Z</time>
  <course>186.99</course>
  <speed>0.7071067811865476</speed>
  <fix>3d</fix>
</trkpt>
<trkpt lat="33.8103085" lon="-118.3938716">
  <ele>-0.11</ele>
  <time>2026-09-01T01:12:58Z</time>
  <course>223.22</course>
  <speed>0.73</speed>
  <fix>3d</fix>
</trkpt>
<trkpt lat="33.8103069" lon="-118.3938736">
  <ele>-0.102</ele>
  <time>2026-09-01T01:12:58Z</time>
  <course>186.99</course>
  <speed>0.7142128534267639</speed>
  <fix>3d</fix>
</trkpt>
<trkpt lat="33.8103076" lon="-118.3938727">
  <ele>-0.1</ele>
  <time>2026-09-01T01:12:58Z</time>
  <course>223.25</course>
  <speed>0.73</speed>
  <fix>3d</fix>
</trkpt>
<trkpt lat="33.8103065" lon="-118.3938741">
  <ele>-0.103</ele>
  <time>2026-09-01T01:12:58Z</time>
  <course>186.98</course>
  <speed>0.7072481884034769</speed>
  <fix>3d</fix>
</trkpt>
<trkpt lat="33.8103076" lon="-118.3938727">
  <ele>-0.1</ele>
  <time>2026-09-01T01:12:58Z</time>
  <course>223.25</course>
  <speed>0.73</speed>
  <fix>3d</fix>
</trkpt>
<trkpt lat="33.810306" lon="-118.3938746">
  <ele>-0.109</ele>
  <time>2026-09-01T01:12:58Z</time>
  <course>186.98</course>
  <speed>0.7072481884034769</speed>
  <fix>3d</fix>
</trkpt>
<trkpt lat="33.8103065" lon="-118.3938738">
  <ele>-0.09</ele>
  <time>2026-09-01T01:12:58Z</time>
  <course>223.26</course>
  <speed>0.73</speed>
  <fix>3d</fix>
</trkpt>
<trkpt lat="33.8103055" lon="-118.3938752">
  <ele>-0.116</ele>
  <time>2026-09-01T01:12:58Z</time>
  <course>186.97</course>
  <speed>0.7072481884034769</speed>
  <fix>3d</fix>
</trkpt>
<trkpt lat="33.8103065" lon="-118.3938738">
  <ele>-0.09</ele>
  <time>2026-09-01T01:12:58Z</time>
  <course>223.26</course>
  <speed>0.73</speed>
  <fix>3d</fix>
</trkpt>
<trkpt lat="33.810305" lon="-118.3938757">
  <ele>-0.122</ele>
  <time>2026-09-01T01:12:58Z</time>
  <course>186.97</course>
  <speed>0.7072481884034769</speed>
  <fix>3d</fix>
</trkpt>
<trkpt lat="33.8103056" lon="-118.3938749">
  <ele>-0.1</ele>
  <time>2026-09-01T01:12:58Z</time>
  <course>223.26</course>
  <speed>0.73</speed>
  <fix>3d</fix>
</trkpt>
<trkpt lat="33.8103045" lon="-118.3938762">
  <ele>-0.125</ele>
  <time>2026-09-01T01:12:58Z</time>
  <course>186.96</course>
  <speed>0.7144928271158499</speed>
  <fix>3d</fix>
</trkpt>
<trkpt lat="33.8103056" lon="-118.3938749">
  <ele>-0.1</ele>
  <time>2026-09-01T01:12:58Z</time>
  <course>223.26</course>
  <speed>0.73</speed>
  <fix>3d</fix>
</trkpt>
<trkpt lat="33.810304" lon="-118.3938768">
  <ele>-0.123</ele>
  <time>2026-09-01T01:12:58Z</time>
  <course>186.96</course>
  <speed>0.7144928271158499</speed>
  <fix>3d</fix>
</trkpt>
<trkpt lat="33.8103047" lon="-118.393876">
  <ele>-0.11</ele>
  <time>2026-09-01T01:12:58Z</time>
  <course>223.26</course>
  <speed>0.73</speed>
  <fix>3d</fix>
</trkpt>
<trkpt lat="33.8103036" lon="-118.3938773">
  <ele>-0.118</ele>
  <time>2026-09-01T01:12:58Z</time>
  <course>186.95</course>
  <speed>0.7144928271158499</speed>
  <fix>3d</fix>
</trkpt>
<trkpt lat="33.8103047" lon="-118.393876">
  <ele>-0.11</ele>
  <time>2026-09-01T01:12:58Z</time>
  <course>223.26</course>
  <speed>0.73</speed>
  <fix>3d</fix>
</trkpt>
<trkpt lat="33.8103031" lon="-118.3938778">
  <ele>-0.112</ele>
  <time>2026-09-01T01:12:58Z</time>
  <course>186.95</course>
  <speed>0.7144928271158499</speed>
  <fix>3d</fix>
</trkpt>
<trkpt lat="33.8103037" lon="-118.3938771">
  <ele>-0.11</ele>
  <time>2026-09-01T01:12:58Z</time>
  <course>223.26</course>
  <speed>0.73</speed>
  <fix>3d</fix>
</trkpt>
<trkpt lat="33.8103026" lon="-118.3938784">
  <ele>-0.106</ele>
  <time>2026-09-01T01:12:58Z</time>
  <course>186.95</course>
  <speed>0.7144928271158499</speed>
  <fix>3d</fix>
</trkpt>
<trkpt lat="33.8103037" lon="-118.3938771">
  <ele>-0.11</ele>
  <time>2026-09-01T01:12:58Z</time>
  <course>223.26</course>
  <speed>0.73</speed>
  <fix>3d</fix>
</trkpt>
<trkpt lat="33.8103021" lon="-118.3938789">
  <ele>-0.104</ele>
  <time>2026-09-01T01:12:58Z</time>
  <course>186.94</course>
  <speed>0.7144928271158499</speed>
  <fix>3d</fix>
</trkpt>
<trkpt lat="33.8103027" lon="-118.3938782">
  <ele>-0.1</ele>
  <time>2026-09-01T01:12:58Z</time>
  <course>223.26</course>
  <speed>0.73</speed>
  <fix>3d</fix>
</trkpt>
<trkpt lat="33.8103016" lon="-118.3938795">
  <ele>-0.107</ele>
  <time>2026-09-01T01:12:58Z</time>
  <course>186.94</course>
  <speed>0.7144928271158499</speed>
  <fix>3d</fix>
</trkpt>
<trkpt lat="33.8103027" lon="-118.3938782">
  <ele>-0.1</ele>
  <time>2026-09-01T01:12:58Z</time>
  <course>223.26</course>
  <speed>0.73</speed>
  <fix>3d</fix>
</trkpt>
<trkpt lat="33.8103011" lon="-118.39388">
  <ele>-0.113</ele>
  <time>2026-09-01T01:12:58Z</time>
  <course>186.93</course>
  <speed>0.7144928271158499</speed>
  <fix>3d</fix>
</trkpt>
<trkpt lat="33.8103018" lon="-118.3938793">
  <ele>-0.1</ele>
  <time>2026-09-01T01:12:58Z</time>
  <course>223.26</course>
  <speed>0.73</speed>
  <fix>3d</fix>
</trkpt>
<trkpt lat="33.8103006" lon="-118.3938806">
  <ele>-0.118</ele>
  <time>2026-09-01T01:12:58Z</time>
  <course>186.93</course>
  <speed>0.7144928271158499</speed>
  <fix>3d</fix>
</trkpt>
<trkpt lat="33.8103018" lon="-118.3938793">
  <ele>-0.1</ele>
  <time>2026-09-01T01:12:58Z</time>
  <course>223.26</course>
  <speed>0.73</speed>
  <fix>3d</fix>
</trkpt>
<trkpt lat="33.8103002" lon="-118.3938811">
  <ele>-0.123</ele>
  <time>2026-09-01T01:12:58Z</time>
  <course>186.92</course>
  <speed>0.7144928271158499</speed>
  <fix>3d</fix>
</trkpt>
<trkpt lat="33.8103008" lon="-118.3938803">
  <ele>-0.1</ele>
  <time>2026-09-01T01:12:58Z</time>
  <course>223.26</course>
  <speed>0.73</speed>
  <fix>3d</fix>
</trkpt>
<trkpt lat="33.8102997" lon="-118.3938817">
  <ele>-0.124</ele>
  <time>2026-09-01T01:12:58Z</time>
  <course>186.92</course>
  <speed>0.7144928271158499</speed>
  <fix>3d</fix>
</trkpt>
<trkpt lat="33.8103008" lon="-118.3938803">
  <ele>-0.1</ele>
  <time>2026-09-01T01:12:58Z</time>
  <course>223.26</course>
  <speed>0.73</speed>
  <fix>3d</fix>
</trkpt>
<trkpt lat="33.8102992" lon="-118.3938822">
  <ele>-0.124</ele>
  <time>2026-09-01T01:12:58Z</time>
  <course>186.92</course>
  <speed>0.7144928271158499</speed>
  <fix>3d</fix>
</trkpt>
<trkpt lat="33.8102998" lon="-118.3938814">
  <ele>-0.11</ele>
  <time>2026-09-01T01:12:58Z</time>
  <course>223.26</course>
  <speed>0.73</speed>
  <fix>3d</fix>
</trkpt>
<trkpt lat="33.8102987" lon="-118.3938827">
  <ele>-0.12</ele>
  <time>2026-09-01T01:12:58Z</time>
  <course>186.91</course>
  <speed>0.7218032973047436</speed>
  <fix>3d</fix>
</trkpt>
<trkpt lat="33.8102998" lon="-118.3938814">
  <ele>-0.11</ele>
  <time>2026-09-01T01:12:58Z</time>
  <course>223.26</course>
  <speed>0.73</speed>
  <fix>3d</fix>
</trkpt>
<trkpt lat="33.8102982" lon="-118.3938833">
  <ele>-0.114</ele>
  <time>2026-09-01T01:12:58Z</time>
  <course>186.91</course>
  <speed>0.7218032973047436</speed>
  <fix>3d</fix>
</trkpt>
<trkpt lat="33.8102989" lon="-118.3938825">
  <ele>-0.11</ele>
  <time>2026-09-01T01:12:58Z</time>
  <course>223.26</course>
  <speed>0.73</speed>
  <fix>3d</fix>
</trkpt>
<trkpt lat="33.8102977" lon="-118.3938838">
  <ele>-0.108</ele>
  <time>2026-09-01T01:12:58Z</time>
  <course>186.9</course>
  <speed>0.7286288492778747</speed>
  <fix>3d</fix>
</trkpt>
<trkpt lat="33.8102989" lon="-118.3938825">
  <ele>-0.11</ele>
  <time>2026-09-01T01:12:58Z</time>
  <course>223.26</course>
  <speed>0.73</speed>
  <fix>3d</fix>
</trkpt>
<trkpt lat="33.8102973" lon="-118.3938844">
  <ele>-0.104</ele>
  <time>2026-09-01T01:12:58Z</time>
  <course>186.9</course>
  <speed>0.7286288492778747</speed>
  <fix>3d</fix>
</trkpt>
<trkpt lat="33.8102979" lon="-118.3938836">
  <ele>-0.1</ele>
  <time>2026-09-01T01:12:58Z</time>
  <course>223.26</course>
  <speed>0.73</speed>
  <fix>3d</fix>
</trkpt>
<trkpt lat="33.8102968" lon="-118.3938849">
  <ele>-0.105</ele>
  <time>2026-09-01T01:12:58Z</time>
  <course>186.9</course>
  <speed>0.7286288492778747</speed>
  <fix>3d</fix>
</trkpt>
<trkpt lat="33.8102979" lon="-118.3938836">
  <ele>-0.1</ele>
  <time>2026-09-01T01:12:58Z</time>
  <course>223.26</course>
  <speed>0.73</speed>
  <fix>3d</fix>
</trkpt>
<trkpt lat="33.8102963" lon="-118.3938854">
  <ele>-0.108</ele>
  <time>2026-09-01T01:12:58Z</time>
  <course>186.89</course>
  <speed>0.7213875518748573</speed>
  <fix>3d</fix>
</trkpt>
<trkpt lat="33.810297" lon="-118.3938847">
  <ele>-0.1</ele>
  <time>2026-09-01T01:12:58Z</time>
  <course>223.26</course>
  <speed>0.73</speed>
  <fix>3d</fix>
</trkpt>
<trkpt lat="33.8102958" lon="-118.393886">
  <ele>-0.111</ele>
  <time>2026-09-01T01:12:58Z</time>
  <course>186.89</course>
  <speed>0.7213875518748573</speed>
  <fix>3d</fix>
</trkpt>
<trkpt lat="33.810297" lon="-118.3938847">
  <ele>-0.1</ele>
  <time>2026-09-01T01:12:58Z</time>
  <course>223.26</course>
  <speed>0.73</speed>
  <fix>3d</fix>
</trkpt>
<trkpt lat="33.8102954" lon="-118.3938865">
  <ele>-0.115</ele>
  <time>2026-09-01T01:12:58Z</time>
  <course>186.88</course>
  <speed>0.7213875518748573</speed>
  <fix>3d</fix>
</trkpt>
<trkpt lat="33.810296" lon="-118.3938858">
  <ele>-0.1</ele>
  <time>2026-09-01T01:12:58Z</time>
  <course>223.26</course>
  <speed>0.73</speed>
  <fix>3d</fix>
</trkpt>
<trkpt lat="33.8102949" lon="-118.3938871">
  <ele>-0.117</ele>
  <time>2026-09-01T01:12:58Z</time>
  <course>186.88</course>
  <speed>0.7213875518748573</speed>
  <fix>3d</fix>
</trkpt>
<trkpt lat="33.810296" lon="-118.3938858">
  <ele>-0.1</ele>
  <time>2026-09-01T01:12:58Z</time>
  <course>223.26</course>
  <speed>0.73</speed>
  <fix>3d</fix>
</trkpt>
<trkpt lat="33.8102944" lon="-118.3938876">
  <ele>-0.116</ele>
  <time>2026-09-01T01:12:58Z</time>
  <course>186.88</course>
  <speed>0.7213875518748573</speed>
  <fix>3d</fix>
</trkpt>
<trkpt lat="33.8102951" lon="-118.3938869">
  <ele>-0.11</ele>
  <time>2026-09-01T01:12:58Z</time>
  <course>223.26</course>
  <speed>0.73</speed>
  <fix>3d</fix>
</trkpt>
<trkpt lat="33.8102939" lon="-118.3938882">
  <ele>-0.113</ele>
  <time>2026-09-01T01:12:58Z</time>
  <course>186.87</course>
  <speed>0.7213875518748573</speed>
  <fix>3d</fix>
</trkpt>
<trkpt lat="33.8102951" lon="-118.3938869">
  <ele>-0.11</ele>
  <time>2026-09-01T01:12:58Z</time>
  <course>223.26</course>
  <speed>0.73</speed>
  <fix>3d</fix>
</trkpt>
<trkpt lat="33.8102935" lon="-118.3938887">
  <ele>-0.107</ele>
  <time>2026-09-01T01:12:58Z</time>
  <course>186.87</course>
  <speed>0.7213875518748573</speed>
  <fix>3d</fix>
</trkpt>
<trkpt lat="33.8102941" lon="-118.393888">
  <ele>-0.11</ele>
  <time>2026-09-01T01:12:58Z</time>
  <course>223.26</course>
  <speed>0.73</speed>
  <fix>3d</fix>
</trkpt>
<trkpt lat="33.810293" lon="-118.3938892">
  <ele>-0.101</ele>
  <time>2026-09-01T01:12:58Z</time>
  <course>186.86</course>
  <speed>0.7213875518748573</speed>
  <fix>3d</fix>
</trkpt>
<trkpt lat="33.8102941" lon="-118.393888">
  <ele>-0.11</ele>
  <time>2026-09-01T01:12:58Z</time>
  <course>223.26</course>
  <speed>0.73</speed>
  <fix>3d</fix>
</trkpt>
<trkpt lat="33.8102925" lon="-118.3938898">
  <ele>-0.098</ele>
  <time>2026-09-01T01:12:58Z</time>
  <course>186.86</course>
  <speed>0.7213875518748573</speed>
  <fix>3d</fix>
</trkpt>
<trkpt lat="33.8102931" lon="-118.3938891">
  <ele>-0.1</ele>
  <time>2026-09-01T01:12:58Z</time>
  <course>223.26</course>
  <speed>0.73</speed>
  <fix>3d</fix>
</trkpt>
<trkpt lat="33.810292" lon="-118.3938903">
  <ele>-0.096</ele>
  <time>2026-09-01T01:12:58Z</time>
  <course>186.86</course>
  <speed>0.7213875518748573</speed>
  <fix>3d</fix>
</trkpt>
<trkpt lat="33.8102931" lon="-118.3938891">
  <ele>-0.1</ele>
  <time>2026-09-01T01:12:58Z</time>
  <course>223.26</course>
  <speed>0.73</speed>
  <fix>3d</fix>
</trkpt>
<trkpt lat="33.8102916" lon="-118.3938909">
  <ele>-0.099</ele>
  <time>2026-09-01T01:12:58Z</time>
  <course>186.85</course>
  <speed>0.7213875518748573</speed>
  <fix>3d</fix>
</trkpt>
<trkpt lat="33.8102922" lon="-118.3938901">
  <ele>-0.1</ele>
  <time>2026-09-01T01:12:58Z</time>
  <course>223.26</course>
  <speed>0.73</speed>
  <fix>3d</fix>
</trkpt>
<trkpt lat="33.8102911" lon="-118.3938914">
  <ele>-0.103</ele>
  <time>2026-09-01T01:12:58Z</time>
  <course>186.85</course>
  <speed>0.7213875518748573</speed>
  <fix>3d</fix>
</trkpt>
<trkpt lat="33.8102922" lon="-118.3938901">
  <ele>-0.1</ele>
  <time>2026-09-01T01:12:58Z</time>
  <course>223.26</course>
  <speed>0.73</speed>
  <fix>3d</fix>
</trkpt>
<trkpt lat="33.8102906" lon="-118.393892">
  <ele>-0.107</ele>
  <time>2026-09-01T01:12:58Z</time>
  <course>186.84</course>
  <speed>0.7213875518748573</speed>
  <fix>3d</fix>
</trkpt>
<trkpt lat="33.8102911" lon="-118.3938912">
  <ele>-0.1</ele>
  <time>2026-09-01T01:12:58Z</time>
  <course>223.26</course>
  <speed>0.73</speed>
  <fix>3d</fix>
</trkpt>
<trkpt lat="33.8102901" lon="-118.3938925">
  <ele>-0.11</ele>
  <time>2026-09-01T01:12:58Z</time>
  <course>186.84</course>
  <speed>0.7213875518748573</speed>
  <fix>3d</fix>
</trkpt>
<trkpt lat="33.8102911" lon="-118.3938912">
  <ele>-0.1</ele>
  <time>2026-09-01T01:12:58Z</time>
  <course>223.26</course>
  <speed>0.73</speed>
  <fix>3d</fix>
</trkpt>
<trkpt lat="33.8102896" lon="-118.3938931">
  <ele>-0.11</ele>
  <time>2026-09-01T01:12:58Z</time>
  <course>186.84</course>
  <speed>0.7213875518748573</speed>
  <fix>3d</fix>
</trkpt>
<trkpt lat="33.8102902" lon="-118.3938923">
  <ele>-0.11</ele>
  <time>2026-09-01T01:12:58Z</time>
  <course>223.26</course>
  <speed>0.73</speed>
  <fix>3d</fix>
</trkpt>
<trkpt lat="33.8102892" lon="-118.3938936">
  <ele>-0.109</ele>
  <time>2026-09-01T01:12:58Z</time>
  <course>186.83</course>
  <speed>0.7213875518748573</speed>
  <fix>3d</fix>
</trkpt>
<trkpt lat="33.8102902" lon="-118.3938923">
  <ele>-0.11</ele>
  <time>2026-09-01T01:12:58Z</time>
  <course>223.26</course>
  <speed>0.73</speed>
  <fix>3d</fix>
</trkpt>
<trkpt lat="33.8102887" lon="-118.3938942">
  <ele>-0.108</ele>
  <time>2026-09-01T01:12:58Z</time>
  <course>186.83</course>
  <speed>0.7213875518748573</speed>
  <fix>3d</fix>
</trkpt>
<trkpt lat="33.8102892" lon="-118.3938934">
  <ele>-0.11</ele>
  <time>2026-09-01T01:12:58Z</time>
  <course>223.26</course>
  <speed>0.73</speed>
  <fix>3d</fix>
</trkpt>
<trkpt lat="33.8102882" lon="-118.3938947">
  <ele>-0.106</ele>
  <time>2026-09-01T01:12:58Z</time>
  <course>186.83</course>
  <speed>0.7283543093852057</speed>
  <fix>3d</fix>
</trkpt>
<trkpt lat="33.8102892" lon="-118.3938934">
  <ele>-0.11</ele>
  <time>2026-09-01T01:12:58Z</time>
  <course>223.26</course>
  <speed>0.73</speed>
  <fix>3d</fix>
</trkpt>
<trkpt lat="33.8102877" lon="-118.3938953">
  <ele>-0.105</ele>
  <time>2026-09-01T01:12:58Z</time>
  <course>186.83</course>
  <speed>0.7283543093852057</speed>
  <fix>3d</fix>
</trkpt>
<trkpt lat="33.8102883" lon="-118.3938945">
  <ele>-0.1</ele>
  <time>2026-09-01T01:12:58Z</time>
  <course>223.26</course>
  <speed>0.73</speed>
  <fix>3d</fix>
</trkpt>
<trkpt lat="33.8102872" lon="-118.3938958">
  <ele>-0.106</ele>
  <time>2026-09-01T01:12:58Z</time>
  <course>186.82</course>
  <speed>0.7283543093852057</speed>
  <fix>3d</fix>
</trkpt>
<trkpt lat="33.8102883" lon="-118.3938945">
  <ele>-0.1</ele>
  <time>2026-09-01T01:12:58Z</time>
  <course>223.26</course>
  <speed>0.73</speed>
  <fix>3d</fix>
</trkpt>
<trkpt lat="33.8102867" lon="-118.3938964">
  <ele>-0.11</ele>
  <time>2026-09-01T01:12:58Z</time>
  <course>186.82</course>
  <speed>0.7283543093852057</speed>
  <fix>3d</fix>
</trkpt>
<trkpt lat="33.8102874" lon="-118.3938956">
  <ele>-0.1</ele>
  <time>2026-09-01T01:12:58Z</time>
  <course>223.26</course>
  <speed>0.73</speed>
  <fix>3d</fix>
</trkpt>
<trkpt lat="33.8102863" lon="-118.3938969">
  <ele>-0.115</ele>
  <time>2026-09-01T01:12:58Z</time>
  <course>186.81</course>
  <speed>0.7283543093852057</speed>
  <fix>3d</fix>
</trkpt>
<trkpt lat="33.8102874" lon="-118.3938956">
  <ele>-0.1</ele>
  <time>2026-09-01T01:12:58Z</time>
  <course>223.26</course>
  <speed>0.73</speed>
  <fix>3d</fix>
</trkpt>
<trkpt lat="33.8102858" lon="-118.3938975">
  <ele>-0.12</ele>
  <time>2026-09-01T01:12:58Z</time>
  <course>186.81</course>
  <speed>0.7283543093852057</speed>
  <fix>3d</fix>
</trkpt>
<trkpt lat="33.8102863" lon="-118.3938967">
  <ele>-0.1</ele>
  <time>2026-09-01T01:12:58Z</time>
  <course>223.26</course>
  <speed>0.73</speed>
  <fix>3d</fix>
</trkpt>
<trkpt lat="33.8102853" lon="-118.393898">
  <ele>-0.122</ele>
  <time>2026-09-01T01:12:58Z</time>
  <course>186.81</course>
  <speed>0.7283543093852057</speed>
  <fix>3d</fix>
</trkpt>
<trkpt lat="33.8102863" lon="-118.3938967">
  <ele>-0.1</ele>
  <time>2026-09-01T01:12:58Z</time>
  <course>223.26</course>
  <speed>0.73</speed>
  <fix>3d</fix>
</trkpt>
<trkpt lat="33.8102848" lon="-118.3938986">
  <ele>-0.121</ele>
  <time>2026-09-01T01:12:58Z</time>
  <course>186.8</course>
  <speed>0.7283543093852057</speed>
  <fix>3d</fix>
</trkpt>
<trkpt lat="33.8102854" lon="-118.3938978">
  <ele>-0.11</ele>
  <time>2026-09-01T01:12:58Z</time>
  <course>223.26</course>
  <speed>0.73</speed>
  <fix>3d</fix>
</trkpt>
<trkpt lat="33.8102844" lon="-118.3938991">
  <ele>-0.118</ele>
  <time>2026-09-01T01:12:58Z</time>
  <course>186.8</course>
  <speed>0.7283543093852057</speed>
  <fix>3d</fix>
</trkpt>
<trkpt lat="33.8102854" lon="-118.3938978">
  <ele>-0.11</ele>
  <time>2026-09-01T01:12:58Z</time>
  <course>223.26</course>
  <speed>0.73</speed>
  <fix>3d</fix>
</trkpt>
<trkpt lat="33.8102839" lon="-118.3938997">
  <ele>-0.115</ele>
  <time>2026-09-01T01:12:58Z</time>
  <course>186.8</course>
  <speed>0.7283543093852057</speed>
  <fix>3d</fix>
</trkpt>
<trkpt lat="33.8102844" lon="-118.3938989">
  <ele>-0.11</ele>
  <time>2026-09-01T01:12:58Z</time>
  <course>223.26</course>
  <speed>0.73</speed>
  <fix>3d</fix>
</trkpt>
<trkpt lat="33.8102834" lon="-118.3939002">
  <ele>-0.111</ele>
  <time>2026-09-01T01:12:58Z</time>
  <course>186.79</course>
  <speed>0.7283543093852057</speed>
  <fix>3d</fix>
</trkpt>
<trkpt lat="33.8102844" lon="-118.3938989">
  <ele>-0.11</ele>
  <time>2026-09-01T01:12:58Z</time>
  <course>223.26</course>
  <speed>0.73</speed>
  <fix>3d</fix>
</trkpt>
<trkpt lat="33.8102829" lon="-118.3939008">
  <ele>-0.108</ele>
  <time>2026-09-01T01:12:58Z</time>
  <course>186.79</course>
  <speed>0.7283543093852057</speed>
  <fix>3d</fix>
</trkpt>
<trkpt lat="33.8102835" lon="-118.3939">
  <ele>-0.1</ele>
  <time>2026-09-01T01:12:58Z</time>
  <course>223.26</course>
  <speed>0.73</speed>
  <fix>3d</fix>
</trkpt>
<trkpt lat="33.8102824" lon="-118.3939013">
  <ele>-0.107</ele>
  <time>2026-09-01T01:12:58Z</time>
  <course>186.79</course>
  <speed>0.7212489168102785</speed>
  <fix>3d</fix>
</trkpt>
<trkpt lat="33.8102835" lon="-118.3939">
  <ele>-0.1</ele>
  <time>2026-09-01T01:12:58Z</time>
  <course>223.26</course>
  <speed>0.73</speed>
  <fix>3d</fix>
</trkpt>
<trkpt lat="33.810282" lon="-118.3939019">
  <ele>-0.107</ele>
  <time>2026-09-01T01:12:58Z</time>
  <course>186.78</course>
  <speed>0.7212489168102785</speed>
  <fix>3d</fix>
</trkpt>
<trkpt lat="33.8102825" lon="-118.393901">
  <ele>-0.1</ele>
  <time>2026-09-01T01:12:58Z</time>
  <course>223.26</course>
  <speed>0.73</speed>
  <fix>3d</fix>
</trkpt>
<trkpt lat="33.8102815" lon="-118.3939024">
  <ele>-0.109</ele>
  <time>2026-09-01T01:12:58Z</time>
  <course>186.78</course>
  <speed>0.7212489168102785</speed>
  <fix>3d</fix>
</trkpt>
<trkpt lat="33.8102825" lon="-118.393901">
  <ele>-0.1</ele>
  <time>2026-09-01T01:12:58Z</time>
  <course>223.26</course>
  <speed>0.73</speed>
  <fix>3d</fix>
</trkpt>
<trkpt lat="33.810281" lon="-118.393903">
  <ele>-0.111</ele>
  <time>2026-09-01T01:12:58Z</time>
  <course>186.78</course>
  <speed>0.7212489168102785</speed>
  <fix>3d</fix>
</trkpt>
<trkpt lat="33.8102815" lon="-118.3939021">
  <ele>-0.1</ele>
  <time>2026-09-01T01:12:58Z</time>
  <course>223.26</course>
  <speed>0.73</speed>
  <fix>3d</fix>
</trkpt>
<trkpt lat="33.8102805" lon="-118.3939035">
  <ele>-0.113</ele>
  <time>2026-09-01T01:12:58Z</time>
  <course>186.77</course>
  <speed>0.7212489168102785</speed>
  <fix>3d</fix>
</trkpt>
<trkpt lat="33.8102815" lon="-118.3939021">
  <ele>-0.1</ele>
  <time>2026-09-01T01:12:58Z</time>
  <course>223.26</course>
  <speed>0.73</speed>
  <fix>3d</fix>
</trkpt>
<trkpt lat="33.81028" lon="-118.3939041">
  <ele>-0.113</ele>
  <time>2026-09-01T01:12:58Z</time>
  <course>186.77</course>
  <speed>0.7212489168102785</speed>
  <fix>3d</fix>
</trkpt>
<trkpt lat="33.8102806" lon="-118.3939032">
  <ele>-0.11</ele>
  <time>2026-09-01T01:12:58Z</time>
  <course>223.26</course>
  <speed>0.73</speed>
  <fix>3d</fix>
</trkpt>
<trkpt lat="33.8102796" lon="-118.3939046">
  <ele>-0.111</ele>
  <time>2026-09-01T01:12:58Z</time>
  <course>186.77</course>
  <speed>0.7283543093852057</speed>
  <fix>3d</fix>
</trkpt>
<trkpt lat="33.8102806" lon="-118.3939032">
  <ele>-0.11</ele>
  <time>2026-09-01T01:12:58Z</time>
  <course>223.26</course>
  <speed>0.73</speed>
  <fix>3d</fix>
</trkpt>
<trkpt lat="33.8102791" lon="-118.3939052">
  <ele>-0.109</ele>
  <time>2026-09-01T01:12:58Z</time>
  <course>186.76</course>
  <speed>0.7283543093852057</speed>
  <fix>3d</fix>
</trkpt>
<trkpt lat="33.8102796" lon="-118.3939043">
  <ele>-0.11</ele>
  <time>2026-09-01T01:12:58Z</time>
  <course>223.26</course>
  <speed>0.73</speed>
  <fix>3d</fix>
</trkpt>
<trkpt lat="33.8102786" lon="-118.3939057">
  <ele>-0.105</ele>
  <time>2026-09-01T01:12:58Z</time>
  <course>186.76</course>
  <speed>0.7283543093852057</speed>
  <fix>3d</fix>
</trkpt>
<trkpt lat="33.8102796" lon="-118.3939043">
  <ele>-0.11</ele>
  <time>2026-09-01T01:12:58Z</time>
  <course>223.26</course>
  <speed>0.73</speed>
  <fix>3d</fix>
</trkpt>
<trkpt lat="33.8102781" lon="-118.3939063">
  <ele>-0.102</ele>
  <time>2026-09-01T01:12:58Z</time>
  <course>186.76</course>
  <speed>0.7283543093852057</speed>
  <fix>3d</fix>
</trkpt>
<trkpt lat="33.8102787" lon="-118.3939054">
  <ele>-0.1</ele>
  <time>2026-09-01T01:12:58Z</time>
  <course>223.26</course>
  <speed>0.73</speed>
  <fix>3d</fix>
</trkpt>
<trkpt lat="33.8102776" lon="-118.3939068">
  <ele>-0.101</ele>
  <time>2026-09-01T01:12:58Z</time>
  <course>186.75</course>
  <speed>0.7283543093852057</speed>
  <fix>3d</fix>
</trkpt>
<trkpt lat="33.8102787" lon="-118.3939054">
  <ele>-0.1</ele>
  <time>2026-09-01T01:12:58Z</time>
  <course>223.26</course>
  <speed>0.73</speed>
  <fix>3d</fix>
</trkpt>
<trkpt lat="33.8102772" lon="-118.3939074">
  <ele>-0.102</ele>
  <time>2026-09-01T01:12:58Z</time>
  <course>186.75</course>
  <speed>0.7283543093852057</speed>
  <fix>3d</fix>
</trkpt>
<trkpt lat="33.8102777" lon="-118.3939065">
  <ele>-0.1</ele>
  <time>2026-09-01T01:12:58Z</time>
  <course>223.26</course>
  <speed>0.73</speed>
  <fix>3d</fix>
</trkpt>
<trkpt lat="33.8102767" lon="-118.3939079">
  <ele>-0.105</ele>
  <time>2026-09-01T01:12:58Z</time>
  <course>186.74</course>
  <speed>0.7283543093852057</speed>
  <fix>3d</fix>
</trkpt>
<trkpt lat="33.8102777" lon="-118.3939065">
  <ele>-0.1</ele>
  <time>2026-09-01T01:12:58Z</time>
  <course>223.26</course>
  <speed>0.73</speed>
  <fix>3d</fix>
</trkpt>
<trkpt lat="33.8102762" lon="-118.3939085">
  <ele>-0.107</ele>
  <time>2026-09-01T01:12:58Z</time>
  <course>186.74</course>
  <speed>0.7283543093852057</speed>
  <fix>3d</fix>
</trkpt>
<trkpt lat="33.8102767" lon="-118.3939076">
  <ele>-0.1</ele>
  <time>2026-09-01T01:12:58Z</time>
  <course>223.26</course>
  <speed>0.73</speed>
  <fix>3d</fix>
</trkpt>
<trkpt lat="33.8102757" lon="-118.393909">
  <ele>-0.11</ele>
  <time>2026-09-01T01:12:58Z</time>
  <course>186.74</course>
  <speed>0.7283543093852057</speed>
  <fix>3d</fix>
</trkpt>
<trkpt lat="33.8102767" lon="-118.3939076">
  <ele>-0.1</ele>
  <time>2026-09-01T01:12:58Z</time>
  <course>223.26</course>
  <speed>0.73</speed>
  <fix>3d</fix>
</trkpt>
<trkpt lat="33.8102753" lon="-118.3939096">
  <ele>-0.11</ele>
  <time>2026-09-01T01:12:58Z</time>
  <course>186.73</course>
  <speed>0.7283543093852057</speed>
  <fix>3d</fix>
</trkpt>
<trkpt lat="33.8102758" lon="-118.3939087">
  <ele>-0.11</ele>
  <time>2026-09-01T01:12:58Z</time>
  <course>223.26</course>
  <speed>0.73</speed>
  <fix>3d</fix>
</trkpt>
<trkpt lat="33.8102748" lon="-118.3939101">
  <ele>-0.108</ele>
  <time>2026-09-01T01:12:58Z</time>
  <course>186.73</course>
  <speed>0.7283543093852057</speed>
  <fix>3d</fix>
</trkpt>
<trkpt lat="33.8102758" lon="-118.3939087">
  <ele>-0.11</ele>
  <time>2026-09-01T01:12:58Z</time>
  <course>223.26</course>
  <speed>0.73</speed>
  <fix>3d</fix>
</trkpt>
<trkpt lat="33.8102743" lon="-118.3939107">
  <ele>-0.105</ele>
  <time>2026-09-01T01:12:58Z</time>
  <course>186.73</course>
  <speed>0.7283543093852057</speed>
  <fix>3d</fix>
</trkpt>
<trkpt lat="33.8102748" lon="-118.3939098">
  <ele>-0.11</ele>
  <time>2026-09-01T01:12:58Z</time>
  <course>223.26</course>
  <speed>0.73</speed>
  <fix>3d</fix>
</trkpt>
<trkpt lat="33.8102738" lon="-118.3939112">
  <ele>-0.103</ele>
  <time>2026-09-01T01:12:58Z</time>
  <course>186.72</course>
  <speed>0.7283543093852057</speed>
  <fix>3d</fix>
</trkpt>
<trkpt lat="33.8102748" lon="-118.3939098">
  <ele>-0.11</ele>
  <time>2026-09-01T01:12:58Z</time>
  <course>223.26</course>
  <speed>0.73</speed>
  <fix>3d</fix>
</trkpt>
<trkpt lat="33.8102733" lon="-118.3939118">
  <ele>-0.102</ele>
  <time>2026-09-01T01:12:58Z</time>
  <course>186.72</course>
  <speed>0.7283543093852057</speed>
  <fix>3d</fix>
</trkpt>
<trkpt lat="33.8102739" lon="-118.3939108">
  <ele>-0.1</ele>
  <time>2026-09-01T01:12:58Z</time>
  <course>223.26</course>
  <speed>0.73</speed>
  <fix>3d</fix>
</trkpt>
<trkpt lat="33.8102729" lon="-118.3939123">
  <ele>-0.103</ele>
  <time>2026-09-01T01:12:58Z</time>
  <course>186.72</course>
  <speed>0.7283543093852057</speed>
  <fix>3d</fix>
</trkpt>
<trkpt lat="33.8102739" lon="-118.3939108">
  <ele>-0.1</ele>
  <time>2026-09-01T01:12:58Z</time>
  <course>223.26</course>
  <speed>0.73</speed>
  <fix>3d</fix>
</trkpt>
<trkpt lat="33.8102724" lon="-118.3939129">
  <ele>-0.107</ele>
  <time>2026-09-01T01:12:58Z</time>
  <course>186.71</course>
  <speed>0.7283543093852057</speed>
  <fix>3d</fix>
</trkpt>
<trkpt lat="33.8102729" lon="-118.3939119">
  <ele>-0.1</ele>
  <time>2026-09-01T01:12:58Z</time>
  <course>223.26</course>
  <speed>0.73</speed>
  <fix>3d</fix>
</trkpt>
<trkpt lat="33.8102719" lon="-118.3939134">
  <ele>-0.111</ele>
  <time>2026-09-01T01:12:58Z</time>
  <course>186.71</course>
  <speed>0.7283543093852057</speed>
  <fix>3d</fix>
</trkpt>
<trkpt lat="33.8102729" lon="-118.3939119">
  <ele>-0.1</ele>
  <time>2026-09-01T01:12:58Z</time>
  <course>223.26</course>
  <speed>0.73</speed>
  <fix>3d</fix>
</trkpt>
<trkpt lat="33.8102714" lon="-118.393914">
  <ele>-0.114</ele>
  <time>2026-09-01T01:12:58Z</time>
  <course>186.71</course>
  <speed>0.7283543093852057</speed>
  <fix>3d</fix>
</trkpt>
<trkpt lat="33.810272" lon="-118.393913">
  <ele>-0.1</ele>
  <time>2026-09-01T01:12:58Z</time>
  <course>223.26</course>
  <speed>0.73</speed>
  <fix>3d</fix>
</trkpt>
<trkpt lat="33.810271" lon="-118.3939145">
  <ele>-0.115</ele>
  <time>2026-09-01T01:12:58Z</time>
  <course>186.7</course>
  <speed>0.7283543093852057</speed>
  <fix>3d</fix>
</trkpt>
<trkpt lat="33.810272" lon="-118.393913">
  <ele>-0.1</ele>
  <time>2026-09-01T01:12:58Z</time>
  <course>223.26</course>
  <speed>0.73</speed>
  <fix>3d</fix>
</trkpt>
<trkpt lat="33.8102705" lon="-118.3939151">
  <ele>-0.114</ele>
  <time>2026-09-01T01:12:58Z</time>
  <course>186.7</course>
  <speed>0.7213875518748573</speed>
  <fix>3d</fix>
</trkpt>
<trkpt lat="33.810271" lon="-118.3939141">
  <ele>-0.11</ele>
  <time>2026-09-01T01:12:58Z</time>
  <course>223.26</course>
  <speed>0.73</speed>
  <fix>3d</fix>
</trkpt>
<trkpt lat="33.81027" lon="-118.3939156">
  <ele>-0.112</ele>
  <time>2026-09-01T01:12:58Z</time>
  <course>186.7</course>
  <speed>0.7213875518748573</speed>
  <fix>3d</fix>
</trkpt>
<trkpt lat="33.810271" lon="-118.3939141">
  <ele>-0.11</ele>
  <time>2026-09-01T01:12:58Z</time>
  <course>223.26</course>
  <speed>0.73</speed>
  <fix>3d</fix>
</trkpt>
<trkpt lat="33.8102695" lon="-118.3939162">
  <ele>-0.11</ele>
  <time>2026-09-01T01:12:58Z</time>
  <course>186.69</course>
  <speed>0.7213875518748573</speed>
  <fix>3d</fix>
</trkpt>
<trkpt lat="33.81027" lon="-118.3939152">
  <ele>-0.11</ele>
  <time>2026-09-01T01:12:58Z</time>
  <course>223.26</course>
  <speed>0.73</speed>
  <fix>3d</fix>
</trkpt>
<trkpt lat="33.8102691" lon="-118.3939167">
  <ele>-0.106</ele>
  <time>2026-09-01T01:12:58Z</time>
  <course>186.69</course>
  <speed>0.7213875518748573</speed>
  <fix>3d</fix>
</trkpt>
<trkpt lat="33.81027" lon="-118.3939152">
  <ele>-0.11</ele>
  <time>2026-09-01T01:12:58Z</time>
  <course>223.26</course>
  <speed>0.73</speed>
  <fix>3d</fix>
</trkpt>
<trkpt lat="33.8102686" lon="-118.3939173">
  <ele>-0.103</ele>
  <time>2026-09-01T01:12:58Z</time>
  <course>186.69</course>
  <speed>0.7213875518748573</speed>
  <fix>3d</fix>
</trkpt>
<trkpt lat="33.8102691" lon="-118.3939163">
  <ele>-0.1</ele>
  <time>2026-09-01T01:12:58Z</time>
  <course>223.26</course>
  <speed>0.73</speed>
  <fix>3d</fix>
</trkpt>
<trkpt lat="33.8102681" lon="-118.3939178">
  <ele>-0.101</ele>
  <time>2026-09-01T01:12:58Z</time>
  <course>186.68</course>
  <speed>0.7213875518748573</speed>
  <fix>3d</fix>
</trkpt>
<trkpt lat="33.8102691" lon="-118.3939163">
  <ele>-0.1</ele>
  <time>2026-09-01T01:12:58Z</time>
  <course>223.26</course>
  <speed>0.73</speed>
  <fix>3d</fix>
</trkpt>
<trkpt lat="33.8102676" lon="-118.3939184">
  <ele>-0.101</ele>
  <time>2026-09-01T01:12:58Z</time>
  <course>186.68</course>
  <speed>0.7213875518748573</speed>
  <fix>3d</fix>
</trkpt>
<trkpt lat="33.8102681" lon="-118.3939174">
  <ele>-0.1</ele>
  <time>2026-09-01T01:12:58Z</time>
  <course>223.26</course>
  <speed>0.73</speed>
  <fix>3d</fix>
</trkpt>
<trkpt lat="33.8102672" lon="-118.3939189">
  <ele>-0.104</ele>
  <time>2026-09-01T01:12:58Z</time>
  <course>186.68</course>
  <speed>0.7213875518748573</speed>
  <fix>3d</fix>
</trkpt>
<trkpt lat="33.8102681" lon="-118.3939174">
  <ele>-0.1</ele>
  <time>2026-09-01T01:12:58Z</time>
  <course>223.26</course>
  <speed>0.73</speed>
  <fix>3d</fix>
</trkpt>
<trkpt lat="33.8102667" lon="-118.3939195">
  <ele>-0.106</ele>
  <time>2026-09-01T01:12:58Z</time>
  <course>186.67</course>
  <speed>0.7213875518748573</speed>
  <fix>3d</fix>
</trkpt>
<trkpt lat="33.8102672" lon="-118.3939185">
  <ele>-0.1</ele>
  <time>2026-09-01T01:12:58Z</time>
  <course>223.26</course>
  <speed>0.73</speed>
  <fix>3d</fix>
</trkpt>
<trkpt lat="33.8102662" lon="-118.39392">
  <ele>-0.107</ele>
  <time>2026-09-01T01:12:58Z</time>
  <course>186.67</course>
  <speed>0.7213875518748573</speed>
  <fix>3d</fix>
</trkpt>
<trkpt lat="33.8102672" lon="-118.3939185">
  <ele>-0.1</ele>
  <time>2026-09-01T01:12:58Z</time>
  <course>223.26</course>
  <speed>0.73</speed>
  <fix>3d</fix>
</trkpt>
<trkpt lat="33.8102657" lon="-118.3939206">
  <ele>-0.108</ele>
  <time>2026-09-01T01:12:58Z</time>
  <course>186.66</course>
  <speed>0.7213875518748573</speed>
  <fix>3d</fix>
</trkpt>
<trkpt lat="33.8102662" lon="-118.3939196">
  <ele>-0.1</ele>
  <time>2026-09-01T01:12:58Z</time>
  <course>223.26</course>
  <speed>0.73</speed>
  <fix>3d</fix>
</trkpt>
<trkpt lat="33.8102653" lon="-118.3939211">
  <ele>-0.107</ele>
  <time>2026-09-01T01:12:58Z</time>
  <course>186.66</course>
  <speed>0.7213875518748573</speed>
  <fix>3d</fix>
</trkpt>
<trkpt lat="33.8102662" lon="-118.3939196">
  <ele>-0.1</ele>
  <time>2026-09-01T01:12:58Z</time>
  <course>223.26</course>
  <speed>0.73</speed>
  <fix>3d</fix>
</trkpt>
<trkpt lat="33.8102648" lon="-118.3939217">
  <ele>-0.106</ele>
  <time>2026-09-01T01:12:58Z</time>
  <course>186.66</course>
  <speed>0.7213875518748573</speed>
  <fix>3d</fix>
</trkpt>
<trkpt lat="33.8102652" lon="-118.3939207">
  <ele>-0.11</ele>
  <time>2026-09-01T01:12:58Z</time>
  <course>223.26</course>
  <speed>0.73</speed>
  <fix>3d</fix>
</trkpt>
<trkpt lat="33.8102643" lon="-118.3939222">
  <ele>-0.105</ele>
  <time>2026-09-01T01:12:58Z</time>
  <course>186.65</course>
  <speed>0.7213875518748573</speed>
  <fix>3d</fix>
</trkpt>
<trkpt lat="33.8102652" lon="-118.3939207">
  <ele>-0.11</ele>
  <time>2026-09-01T01:12:58Z</time>
  <course>223.26</course>
  <speed>0.73</speed>
  <fix>3d</fix>
</trkpt>
<trkpt lat="33.8102638" lon="-118.3939228">
  <ele>-0.104</ele>
  <time>2026-09-01T01:12:58Z</time>
  <course>186.65</course>
  <speed>0.7213875518748573</speed>
  <fix>3d</fix>
</trkpt>
<trkpt lat="33.8102643" lon="-118.3939217">
  <ele>-0.1</ele>
  <time>2026-09-01T01:12:58Z</time>
  <course>223.26</course>
  <speed>0.73</speed>
  <fix>3d</fix>
</trkpt>
<trkpt lat="33.8102633" lon="-118.3939233">
  <ele>-0.105</ele>
  <time>2026-09-01T01:12:58Z</time>
  <course>186.65</course>
  <speed>0.7213875518748573</speed>
  <fix>3d</fix>
</trkpt>
<trkpt lat="33.8102643" lon="-118.3939217">
  <ele>-0.1</ele>
  <time>2026-09-01T01:12:58Z</time>
  <course>223.26</course>
  <speed>0.73</speed>
  <fix>3d</fix>
</trkpt>
<trkpt lat="33.8102629" lon="-118.3939238">
  <ele>-0.107</ele>
  <time>2026-09-01T01:12:58Z</time>
  <course>186.64</course>
  <speed>0.7213875518748573</speed>
  <fix>3d</fix>
</trkpt>
<trkpt lat="33.8102633" lon="-118.3939228">
  <ele>-0.1</ele>
  <time>2026-09-01T01:12:58Z</time>
  <course>223.26</course>
  <speed>0.73</speed>
  <fix>3d</fix>
</trkpt>
<trkpt lat="33.8102624" lon="-118.3939244">
  <ele>-0.11</ele>
  <time>2026-09-01T01:12:58Z</time>
  <course>186.64</course>
  <speed>0.7213875518748573</speed>
  <fix>3d</fix>
</trkpt>
<trkpt lat="33.8102633" lon="-118.3939228">
  <ele>-0.1</ele>
  <time>2026-09-01T01:12:58Z</time>
  <course>223.26</course>
  <speed>0.73</speed>
  <fix>3d</fix>
</trkpt>
<trkpt lat="33.8102619" lon="-118.3939249">
  <ele>-0.112</ele>
  <time>2026-09-01T01:12:58Z</time>
  <course>186.64</course>
  <speed>0.7213875518748573</speed>
  <fix>3d</fix>
</trkpt>
<trkpt lat="33.8102624" lon="-118.3939239">
  <ele>-0.1</ele>
  <time>2026-09-01T01:12:58Z</time>
  <course>223.26</course>
  <speed>0.73</speed>
  <fix>3d</fix>
</trkpt>
<trkpt lat="33.8102614" lon="-118.3939255">
  <ele>-0.114</ele>
  <time>2026-09-01T01:12:58Z</time>
  <course>186.63</course>
  <speed>0.7213875518748573</speed>
  <fix>3d</fix>
</trkpt>
<trkpt lat="33.8102624" lon="-118.3939239">
  <ele>-0.1</ele>
  <time>2026-09-01T01:12:58Z</time>
  <course>223.26</course>
  <speed>0.73</speed>
  <fix>3d</fix>
</trkpt>
<trkpt lat="33.810261" lon="-118.393926">
  <ele>-0.114</ele>
  <time>2026-09-01T01:12:58Z</time>
  <course>186.63</course>
  <speed>0.7213875518748573</speed>
  <fix>3d</fix>
</trkpt>
<trkpt lat="33.8102614" lon="-118.393925">
  <ele>-0.1</ele>
  <time>2026-09-01T01:12:58Z</time>
  <course>223.26</course>
  <speed>0.73</speed>
  <fix>3d</fix>
</trkpt>
<trkpt lat="33.8102605" lon="-118.3939266">
  <ele>-0.113</ele>
  <time>2026-09-01T01:12:58Z</time>
  <course>186.63</course>
  <speed>0.7213875518748573</speed>
  <fix>3d</fix>
</trkpt>
<trkpt lat="33.8102614" lon="-118.393925">
  <ele>-0.1</ele>
  <time>2026-09-01T01:12:58Z</time>
  <course>223.26</course>
  <speed>0.73</speed>
  <fix>3d</fix>
</trkpt>
<trkpt lat="33.81026" lon="-118.3939271">
  <ele>-0.112</ele>
  <time>2026-09-01T01:12:58Z</time>
  <course>186.62</course>
  <speed>0.7213875518748573</speed>
  <fix>3d</fix>
</trkpt>
<trkpt lat="33.8102604" lon="-118.3939261">
  <ele>-0.11</ele>
  <time>2026-09-01T01:12:58Z</time>
  <course>223.26</course>
  <speed>0.73</speed>
  <fix>3d</fix>
</trkpt>
<trkpt lat="33.8102595" lon="-118.3939277">
  <ele>-0.111</ele>
  <time>2026-09-01T01:12:58Z</time>
  <course>186.62</course>
  <speed>0.7213875518748573</speed>
  <fix>3d</fix>
</trkpt>
<trkpt lat="33.8102604" lon="-118.3939261">
  <ele>-0.11</ele>
  <time>2026-09-01T01:12:58Z</time>
  <course>223.26</course>
  <speed>0.73</speed>
  <fix>3d</fix>
</trkpt>
<trkpt lat="33.810259" lon="-118.3939282">
  <ele>-0.111</ele>
  <time>2026-09-01T01:12:58Z</time>
  <course>186.61</course>
  <speed>0.7213875518748573</speed>
  <fix>3d</fix>
</trkpt>
<trkpt lat="33.8102595" lon="-118.3939272">
  <ele>-0.1</ele>
  <time>2026-09-01T01:12:58Z</time>
  <course>223.26</course>
  <speed>0.73</speed>
  <fix>3d</fix>
</trkpt>
<trkpt lat="33.8102586" lon="-118.3939287">
  <ele>-0.112</ele>
  <time>2026-09-01T01:12:58Z</time>
  <course>186.61</course>
  <speed>0.7213875518748573</speed>
  <fix>3d</fix>
</trkpt>
<trkpt lat="33.8102595" lon="-118.3939272">
  <ele>-0.1</ele>
  <time>2026-09-01T01:12:58Z</time>
  <course>223.26</course>
  <speed>0.73</speed>
  <fix>3d</fix>
</trkpt>
<trkpt lat="33.8102581" lon="-118.3939293">
  <ele>-0.114</ele>
  <time>2026-09-01T01:12:58Z</time>
  <course>186.61</course>
  <speed>0.7213875518748573</speed>
  <fix>3d</fix>
</trkpt>
<trkpt lat="33.8102584" lon="-118.3939283">
  <ele>-0.1</ele>
  <time>2026-09-01T01:12:58Z</time>
  <course>223.26</course>
  <speed>0.73</speed>
  <fix>3d</fix>
</trkpt>
<trkpt lat="33.8102576" lon="-118.3939298">
  <ele>-0.115</ele>
  <time>2026-09-01T01:12:58Z</time>
  <course>186.6</course>
  <speed>0.7213875518748573</speed>
  <fix>3d</fix>
</trkpt>
<trkpt lat="33.8102584" lon="-118.3939283">
  <ele>-0.1</ele>
  <time>2026-09-01T01:12:58Z</time>
  <course>223.26</course>
  <speed>0.73</speed>
  <fix>3d</fix>
</trkpt>
<trkpt lat="33.8102571" lon="-118.3939304">
  <ele>-0.117</ele>
  <time>2026-09-01T01:12:58Z</time>
  <course>186.6</course>
  <speed>0.7213875518748573</speed>
  <fix>3d</fix>
</trkpt>
<trkpt lat="33.8102575" lon="-118.3939294">
  <ele>-0.1</ele>
  <time>2026-09-01T01:12:58Z</time>
  <course>223.26</course>
  <speed>0.73</speed>
  <fix>3d</fix>
</trkpt>
<trkpt lat="33.8102566" lon="-118.3939309">
  <ele>-0.118</ele>
  <time>2026-09-01T01:12:58Z</time>
  <course>186.6</course>
  <speed>0.7213875518748573</speed>
  <fix>3d</fix>
</trkpt>
<trkpt lat="33.8102575" lon="-118.3939294">
  <ele>-0.1</ele>
  <time>2026-09-01T01:12:58Z</time>
  <course>223.26</course>
  <speed>0.73</speed>
  <fix>3d</fix>
</trkpt>
<trkpt lat="33.8102561" lon="-118.3939315">
  <ele>-0.119</ele>
  <time>2026-09-01T01:12:58Z</time>
  <course>186.59</course>
  <speed>0.7213875518748573</speed>
  <fix>3d</fix>
</trkpt>
<trkpt lat="33.8102566" lon="-118.3939305">
  <ele>-0.1</ele>
  <time>2026-09-01T01:12:58Z</time>
  <course>223.26</course>
  <speed>0.73</speed>
  <fix>3d</fix>
</trkpt>
<trkpt lat="33.8102557" lon="-118.393932">
  <ele>-0.118</ele>
  <time>2026-09-01T01:12:59Z</time>
  <course>186.59</course>
  <speed>0.7213875518748573</speed>
  <fix>3d</fix>
</trkpt>
<trkpt lat="33.8102566" lon="-118.3939305">
  <ele>-0.1</ele>
  <time>2026-09-01T01:12:59Z</time>
  <course>223.26</course>
  <speed>0.73</speed>
  <fix>3d</fix>
</trkpt>
<trkpt lat="33.8102552" lon="-118.3939326">
  <ele>-0.117</ele>
  <time>2026-09-01T01:12:59Z</time>
  <course>186.59</course>
  <speed>0.7213875518748573</speed>
  <fix>3d</fix>
</trkpt>
<trkpt lat="33.8102556" lon="-118.3939316">
  <ele>-0.11</ele>
  <time>2026-09-01T01:12:59Z</time>
  <course>223.26</course>
  <speed>0.73</speed>
  <fix>3d</fix>
</trkpt>
<trkpt lat="33.8102547" lon="-118.3939331">
  <ele>-0.115</ele>
  <time>2026-09-01T01:12:59Z</time>
  <course>186.58</course>
  <speed>0.7213875518748573</speed>
  <fix>3d</fix>
</trkpt>
<trkpt lat="33.8102556" lon="-118.3939316">
  <ele>-0.11</ele>
  <time>2026-09-01T01:12:59Z</time>
  <course>223.26</course>
  <speed>0.73</speed>
  <fix>3d</fix>
</trkpt>
<trkpt lat="33.8102542" lon="-118.3939337">
  <ele>-0.113</ele>
  <time>2026-09-01T01:12:59Z</time>
  <course>186.58</course>
  <speed>0.7213875518748573</speed>
  <fix>3d</fix>
</trkpt>
<trkpt lat="33.8102547" lon="-118.3939326">
  <ele>-0.1</ele>
  <time>2026-09-01T01:12:59Z</time>
  <course>223.26</course>
  <speed>0.73</speed>
  <fix>3d</fix>
</trkpt>
<trkpt lat="33.8102537" lon="-118.3939342">
  <ele>-0.112</ele>
  <time>2026-09-01T01:12:59Z</time>
  <course>186.58</course>
  <speed>0.7213875518748573</speed>
  <fix>3d</fix>
</trkpt>
<trkpt lat="33.8102547" lon="-118.3939326">
  <ele>-0.1</ele>
  <time>2026-09-01T01:12:59Z</time>
  <course>223.26</course>
  <speed>0.73</speed>
  <fix>3d</fix>
</trkpt>
<trkpt lat="33.8102533" lon="-118.3939348">
  <ele>-0.112</ele>
  <time>2026-09-01T01:12:59Z</time>
  <course>186.57</course>
  <speed>0.7213875518748573</speed>
  <fix>3d</fix>
</trkpt>
<trkpt lat="33.8102536" lon="-118.3939337">
  <ele>-0.1</ele>
  <time>2026-09-01T01:12:59Z</time>
  <course>223.26</course>
  <speed>0.73</speed>
  <fix>3d</fix>
</trkpt>
<trkpt lat="33.8102528" lon="-118.3939353">
  <ele>-0.112</ele>
  <time>2026-09-01T01:12:59Z</time>
  <course>186.57</course>
  <speed>0.7213875518748573</speed>
  <fix>3d</fix>
</trkpt>
<trkpt lat="33.8102536" lon="-118.3939337">
  <ele>-0.1</ele>
  <time>2026-09-01T01:12:59Z</time>
  <course>223.26</course>
  <speed>0.73</speed>
  <fix>3d</fix>
</trkpt>
<trkpt lat="33.8102523" lon="-118.3939358">
  <ele>-0.112</ele>
  <time>2026-09-01T01:12:59Z</time>
  <course>186.57</course>
  <speed>0.7213875518748573</speed>
  <fix>3d</fix>
</trkpt>
<trkpt lat="33.8102527" lon="-118.3939348">
  <ele>-0.1</ele>
  <time>2026-09-01T01:12:59Z</time>
  <course>223.26</course>
  <speed>0.73</speed>
  <fix>3d</fix>
</trkpt>
<trkpt lat="33.8102518" lon="-118.3939364">
  <ele>-0.113</ele>
  <time>2026-09-01T01:12:59Z</time>
  <course>186.56</course>
  <speed>0.7213875518748573</speed>
  <fix>3d</fix>
</trkpt>
<trkpt lat="33.8102527" lon="-118.3939348">
  <ele>-0.1</ele>
  <time>2026-09-01T01:12:59Z</time>
  <course>223.26</course>
  <speed>0.73</speed>
  <fix>3d</fix>
</trkpt>
<trkpt lat="33.8102513" lon="-118.3939369">
  <ele>-0.112</ele>
  <time>2026-09-01T01:12:59Z</time>
  <course>186.56</course>
  <speed>0.7213875518748573</speed>
  <fix>3d</fix>
</trkpt>
<trkpt lat="33.8102518" lon="-118.3939359">
  <ele>-0.1</ele>
  <time>2026-09-01T01:12:59Z</time>
  <course>223.26</course>
  <speed>0.73</speed>
  <fix>3d</fix>
</trkpt>
<trkpt lat="33.8102508" lon="-118.3939375">
  <ele>-0.111</ele>
  <time>2026-09-01T01:12:59Z</time>
  <course>186.56</course>
  <speed>0.7213875518748573</speed>
  <fix>3d</fix>
</trkpt>
<trkpt lat="33.8102518" lon="-118.3939359">
  <ele>-0.1</ele>
  <time>2026-09-01T01:12:59Z</time>
  <course>223.26</course>
  <speed>0.73</speed>
  <fix>3d</fix>
</trkpt>
<trkpt lat="33.8102504" lon="-118.393938">
  <ele>-0.109</ele>
  <time>2026-09-01T01:12:59Z</time>
  <course>186.55</course>
  <speed>0.7213875518748573</speed>
  <fix>3d</fix>
</trkpt>
<trkpt lat="33.8102508" lon="-118.393937">
  <ele>-0.11</ele>
  <time>2026-09-01T01:12:59Z</time>
  <course>223.26</course>
  <speed>0.73</speed>
  <fix>3d</fix>
</trkpt>
<trkpt lat="33.8102499" lon="-118.3939386">
  <ele>-0.108</ele>
  <time>2026-09-01T01:12:59Z</time>
  <course>186.55</course>
  <speed>0.7213875518748573</speed>
  <fix>3d</fix>
</trkpt>
<trkpt lat="33.8102508" lon="-118.393937">
  <ele>-0.11</ele>
  <time>2026-09-01T01:12:59Z</time>
  <course>223.26</course>
  <speed>0.73</speed>
  <fix>3d</fix>
</trkpt>
<trkpt lat="33.8102494" lon="-118.3939391">
  <ele>-0.108</ele>
  <time>2026-09-01T01:12:59Z</time>
  <course>186.55</course>
  <speed>0.7213875518748573</speed>
  <fix>3d</fix>
</trkpt>
<trkpt lat="33.8102498" lon="-118.3939381">
  <ele>-0.1</ele>
  <time>2026-09-01T01:12:59Z</time>
  <course>223.26</course>
  <speed>0.73</speed>
  <fix>3d</fix>
</trkpt>
<trkpt lat="33.8102489" lon="-118.3939396">
  <ele>-0.109</ele>
  <time>2026-09-01T01:12:59Z</time>
  <course>186.55</course>
  <speed>0.7213875518748573</speed>
  <fix>3d</fix>
</trkpt>
<trkpt lat="33.8102498" lon="-118.3939381">
  <ele>-0.1</ele>
  <time>2026-09-01T01:12:59Z</time>
  <course>223.26</course>
  <speed>0.73</speed>
  <fix>3d</fix>
</trkpt>
<trkpt lat="33.8102484" lon="-118.3939402">
  <ele>-0.11</ele>
  <time>2026-09-01T01:12:59Z</time>
  <course>186.54</course>
  <speed>0.7213875518748573</speed>
  <fix>3d</fix>
</trkpt>
<trkpt lat="33.8102489" lon="-118.3939392">
  <ele>-0.1</ele>
  <time>2026-09-01T01:12:59Z</time>
  <course>223.26</course>
  <speed>0.73</speed>
  <fix>3d</fix>
</trkpt>
<trkpt lat="33.8102479" lon="-118.3939407">
  <ele>-0.111</ele>
  <time>2026-09-01T01:12:59Z</time>
  <course>186.54</course>
  <speed>0.7213875518748573</speed>
  <fix>3d</fix>
</trkpt>
<trkpt lat="33.8102489" lon="-118.3939392">
  <ele>-0.1</ele>
  <time>2026-09-01T01:12:59Z</time>
  <course>223.26</course>
  <speed>0.73</speed>
  <fix>3d</fix>
</trkpt>
<trkpt lat="33.8102475" lon="-118.3939413">
  <ele>-0.113</ele>
  <time>2026-09-01T01:12:59Z</time>
  <course>186.54</course>
  <speed>0.7213875518748573</speed>
  <fix>3d</fix>
</trkpt>
<trkpt lat="33.8102479" lon="-118.3939403">
  <ele>-0.1</ele>
  <time>2026-09-01T01:12:59Z</time>
  <course>223.26</course>
  <speed>0.73</speed>
  <fix>3d</fix>
</trkpt>
<trkpt lat="33.810247" lon="-118.3939418">
  <ele>-0.115</ele>
  <time>2026-09-01T01:12:59Z</time>
  <course>186.53</course>
  <speed>0.7213875518748573</speed>
  <fix>3d</fix>
</trkpt>
<trkpt lat="33.8102479" lon="-118.3939403">
  <ele>-0.1</ele>
  <time>2026-09-01T01:12:59Z</time>
  <course>223.26</course>
  <speed>0.73</speed>
  <fix>3d</fix>
</trkpt>
<trkpt lat="33.8102465" lon="-118.3939424">
  <ele>-0.116</ele>
  <time>2026-09-01T01:12:59Z</time>
  <course>186.53</course>
  <speed>0.7213875518748573</speed>
  <fix>3d</fix>
</trkpt>
<trkpt lat="33.8102469" lon="-118.3939414">
  <ele>-0.1</ele>
  <time>2026-09-01T01:12:59Z</time>
  <course>223.26</course>
  <speed>0.73</speed>
  <fix>3d</fix>
</trkpt>
<trkpt lat="33.810246" lon="-118.3939429">
  <ele>-0.115</ele>
  <time>2026-09-01T01:12:59Z</time>
  <course>186.53</course>
  <speed>0.7213875518748573</speed>
  <fix>3d</fix>
</trkpt>
<trkpt lat="33.8102469" lon="-118.3939414">
  <ele>-0.1</ele>
  <time>2026-09-01T01:12:59Z</time>
  <course>223.26</course>
  <speed>0.73</speed>
  <fix>3d</fix>
</trkpt>
<trkpt lat="33.8102455" lon="-118.3939435">
  <ele>-0.113</ele>
  <time>2026-09-01T01:12:59Z</time>
  <course>186.52</course>
  <speed>0.7213875518748573</speed>
  <fix>3d</fix>
</trkpt>
<trkpt lat="33.810246" lon="-118.3939424">
  <ele>-0.11</ele>
  <time>2026-09-01T01:12:59Z</time>
  <course>223.26</course>
  <speed>0.73</speed>
  <fix>3d</fix>
</trkpt>
<trkpt lat="33.810245" lon="-118.393944">
  <ele>-0.112</ele>
  <time>2026-09-01T01:12:59Z</time>
  <course>186.52</course>
  <speed>0.7213875518748573</speed>
  <fix>3d</fix>
</trkpt>
<trkpt lat="33.810246" lon="-118.3939424">
  <ele>-0.11</ele>
  <time>2026-09-01T01:12:59Z</time>
  <course>223.26</course>
  <speed>0.73</speed>
  <fix>3d</fix>
</trkpt>
<trkpt lat="33.8102446" lon="-118.3939446">
  <ele>-0.11</ele>
  <time>2026-09-01T01:12:59Z</time>
  <course>186.52</course>
  <speed>0.7213875518748573</speed>
  <fix>3d</fix>
</trkpt>
<trkpt lat="33.810245" lon="-118.3939435">
  <ele>-0.1</ele>
  <time>2026-09-01T01:12:59Z</time>
  <course>223.26</course>
  <speed>0.73</speed>
  <fix>3d</fix>
</trkpt>
<trkpt lat="33.8102441" lon="-118.3939451">
  <ele>-0.109</ele>
  <time>2026-09-01T01:12:59Z</time>
  <course>186.51</course>
  <speed>0.7213875518748573</speed>
  <fix>3d</fix>
</trkpt>
<trkpt lat="33.810245" lon="-118.3939435">
  <ele>-0.1</ele>
  <time>2026-09-01T01:12:59Z</time>
  <course>223.26</course>
  <speed>0.73</speed>
  <fix>3d</fix>
</trkpt>
<trkpt lat="33.8102436" lon="-118.3939456">
  <ele>-0.109</ele>
  <time>2026-09-01T01:12:59Z</time>
  <course>186.51</course>
  <speed>0.7213875518748573</speed>
  <fix>3d</fix>
</trkpt>
<trkpt lat="33.8102441" lon="-118.3939446">
  <ele>-0.1</ele>
  <time>2026-09-01T01:12:59Z</time>
  <course>223.26</course>
  <speed>0.73</speed>
  <fix>3d</fix>
</trkpt>
<trkpt lat="33.8102431" lon="-118.3939462">
  <ele>-0.11</ele>
  <time>2026-09-01T01:12:59Z</time>
  <course>186.51</course>
  <speed>0.7213875518748573</speed>
  <fix>3d</fix>
</trkpt>
<trkpt lat="33.8102441" lon="-118.3939446">
  <ele>-0.1</ele>
  <time>2026-09-01T01:12:59Z</time>
  <course>223.26</course>
  <speed>0.73</speed>
  <fix>3d</fix>
</trkpt>
<trkpt lat="33.8102426" lon="-118.3939467">
  <ele>-0.111</ele>
  <time>2026-09-01T01:12:59Z</time>
  <course>186.51</course>
  <speed>0.7213875518748573</speed>
  <fix>3d</fix>
</trkpt>
<trkpt lat="33.8102431" lon="-118.3939457">
  <ele>-0.1</ele>
  <time>2026-09-01T01:12:59Z</time>
  <course>223.26</course>
  <speed>0.73</speed>
  <fix>3d</fix>
</trkpt>
<trkpt lat="33.8102422" lon="-118.3939473">
  <ele>-0.112</ele>
  <time>2026-09-01T01:12:59Z</time>
  <course>186.5</course>
  <speed>0.7213875518748573</speed>
  <fix>3d</fix>
</trkpt>
<trkpt lat="33.8102431" lon="-118.3939457">
  <ele>-0.1</ele>
  <time>2026-09-01T01:12:59Z</time>
  <course>223.26</course>
  <speed>0.73</speed>
  <fix>3d</fix>
</trkpt>
<trkpt lat="33.8102417" lon="-118.3939478">
  <ele>-0.113</ele>
  <time>2026-09-01T01:12:59Z</time>
  <course>186.5</course>
  <speed>0.7213875518748573</speed>
  <fix>3d</fix>
</trkpt>
<trkpt lat="33.8102422" lon="-118.3939468">
  <ele>-0.1</ele>
  <time>2026-09-01T01:12:59Z</time>
  <course>223.26</course>
  <speed>0.73</speed>
  <fix>3d</fix>
</trkpt>
<trkpt lat="33.8102412" lon="-118.3939483">
  <ele>-0.113</ele>
  <time>2026-09-01T01:12:59Z</time>
  <course>186.5</course>
  <speed>0.7213875518748573</speed>
  <fix>3d</fix>
</trkpt>
<trkpt lat="33.8102422" lon="-118.3939468">
  <ele>-0.1</ele>
  <time>2026-09-01T01:12:59Z</time>
  <course>223.26</course>
  <speed>0.73</speed>
  <fix>3d</fix>
</trkpt>
<trkpt lat="33.8102407" lon="-118.3939489">
  <ele>-0.112</ele>
  <time>2026-09-01T01:12:59Z</time>
  <course>186.5</course>
  <speed>0.7213875518748573</speed>
  <fix>3d</fix>
</trkpt>
<trkpt lat="33.8102412" lon="-118.3939479">
  <ele>-0.11</ele>
  <time>2026-09-01T01:12:59Z</time>
  <course>223.26</course>
  <speed>0.73</speed>
  <fix>3d</fix>
</trkpt>
<trkpt lat="33.8102402" lon="-118.3939494">
  <ele>-0.11</ele>
  <time>2026-09-01T01:12:59Z</time>
  <course>186.49</course>
  <speed>0.7213875518748573</speed>
  <fix>3d</fix>
</trkpt>
<trkpt lat="33.8102412" lon="-118.3939479">
  <ele>-0.11</ele>
  <time>2026-09-01T01:12:59Z</time>
  <course>223.26</course>
  <speed>0.73</speed>
  <fix>3d</fix>
</trkpt>
<trkpt lat="33.8102398" lon="-118.39395">
  <ele>-0.11</ele>
  <time>2026-09-01T01:12:59Z</time>
  <course>186.49</course>
  <speed>0.7213875518748573</speed>
  <fix>3d</fix>
</trkpt>
<trkpt lat="33.8102402" lon="-118.393949">
  <ele>-0.1</ele>
  <time>2026-09-01T01:12:59Z</time>
  <course>223.26</course>
  <speed>0.73</speed>
  <fix>3d</fix>
</trkpt>
<trkpt lat="33.8102393" lon="-118.3939505">
  <ele>-0.109</ele>
  <time>2026-09-01T01:12:59Z</time>
  <course>186.49</course>
  <speed>0.7213875518748573</speed>
  <fix>3d</fix>
</trkpt>
<trkpt lat="33.8102402" lon="-118.393949">
  <ele>-0.1</ele>
  <time>2026-09-01T01:12:59Z</time>
  <course>223.26</course>
  <speed>0.73</speed>
  <fix>3d</fix>
</trkpt>
<trkpt lat="33.8102388" lon="-118.3939511">
  <ele>-0.11</ele>
  <time>2026-09-01T01:12:59Z</time>
  <course>186.49</course>
  <speed>0.7213875518748573</speed>
  <fix>3d</fix>
</trkpt>
<trkpt lat="33.8102393" lon="-118.3939501">
  <ele>-0.1</ele>
  <time>2026-09-01T01:12:59Z</time>
  <course>223.26</course>
  <speed>0.73</speed>
  <fix>3d</fix>
</trkpt>
<trkpt lat="33.8102383" lon="-118.3939516">
  <ele>-0.112</ele>
  <time>2026-09-01T01:12:59Z</time>
  <course>186.48</course>
  <speed>0.7213875518748573</speed>
  <fix>3d</fix>
</trkpt>
<trkpt lat="33.8102393" lon="-118.3939501">
  <ele>-0.1</ele>
  <time>2026-09-01T01:12:59Z</time>
  <course>223.26</course>
  <speed>0.73</speed>
  <fix>3d</fix>
</trkpt>
<trkpt lat="33.8102378" lon="-118.3939522">
  <ele>-0.115</ele>
  <time>2026-09-01T01:12:59Z</time>
  <course>186.48</course>
  <speed>0.7213875518748573</speed>
  <fix>3d</fix>
</trkpt>
<trkpt lat="33.8102382" lon="-118.3939512">
  <ele>-0.1</ele>
  <time>2026-09-01T01:12:59Z</time>
  <course>223.26</course>
  <speed>0.73</speed>
  <fix>3d</fix>
</trkpt>
<trkpt lat="33.8102374" lon="-118.3939527">
  <ele>-0.117</ele>
  <time>2026-09-01T01:12:59Z</time>
  <course>186.48</course>
  <speed>0.7213875518748573</speed>
  <fix>3d</fix>
</trkpt>
<trkpt lat="33.8102382" lon="-118.3939512">
  <ele>-0.1</ele>
  <time>2026-09-01T01:12:59Z</time>
  <course>223.26</course>
  <speed>0.73</speed>
  <fix>3d</fix>
</trkpt>
<trkpt lat="33.8102369" lon="-118.3939532">
  <ele>-0.118</ele>
  <time>2026-09-01T01:12:59Z</time>
  <course>186.48</course>
  <speed>0.7213875518748573</speed>
  <fix>3d</fix>
</trkpt>
<trkpt lat="33.8102373" lon="-118.3939523">
  <ele>-0.1</ele>
  <time>2026-09-01T01:12:59Z</time>
  <course>223.26</course>
  <speed>0.73</speed>
  <fix>3d</fix>
</trkpt>
<trkpt lat="33.8102364" lon="-118.3939538">
  <ele>-0.117</ele>
  <time>2026-09-01T01:12:59Z</time>
  <course>186.47</course>
  <speed>0.7213875518748573</speed>
  <fix>3d</fix>
</trkpt>
<trkpt lat="33.8102373" lon="-118.3939523">
  <ele>-0.1</ele>
  <time>2026-09-01T01:12:59Z</time>
  <course>223.26</course>
  <speed>0.73</speed>
  <fix>3d</fix>
</trkpt>
<trkpt lat="33.8102359" lon="-118.3939543">
  <ele>-0.116</ele>
  <time>2026-09-01T01:12:59Z</time>
  <course>186.47</course>
  <speed>0.7213875518748573</speed>
  <fix>3d</fix>
</trkpt>
<trkpt lat="33.8102363" lon="-118.3939533">
  <ele>-0.11</ele>
  <time>2026-09-01T01:12:59Z</time>
  <course>223.26</course>
  <speed>0.73</speed>
  <fix>3d</fix>
</trkpt>
<trkpt lat="33.8102354" lon="-118.3939549">
  <ele>-0.115</ele>
  <time>2026-09-01T01:12:59Z</time>
  <course>186.47</course>
  <speed>0.7213875518748573</speed>
  <fix>3d</fix>
</trkpt>
<trkpt lat="33.8102363" lon="-118.3939533">
  <ele>-0.11</ele>
  <time>2026-09-01T01:12:59Z</time>
  <course>223.26</course>
  <speed>0.73</speed>
  <fix>3d</fix>
</trkpt>
<trkpt lat="33.8102349" lon="-118.3939554">
  <ele>-0.114</ele>
  <time>2026-09-01T01:12:59Z</time>
  <course>186.47</course>
  <speed>0.7213875518748573</speed>
  <fix>3d</fix>
</trkpt>
<trkpt lat="33.8102354" lon="-118.3939544">
  <ele>-0.1</ele>
  <time>2026-09-01T01:12:59Z</time>
  <course>223.26</course>
  <speed>0.73</speed>
  <fix>3d</fix>
</trkpt>
<trkpt lat="33.8102345" lon="-118.3939559">
  <ele>-0.115</ele>
  <time>2026-09-01T01:12:59Z</time>
  <course>186.46</course>
  <speed>0.7213875518748573</speed>
  <fix>3d</fix>
</trkpt>
<trkpt lat="33.8102354" lon="-118.3939544">
  <ele>-0.1</ele>
  <time>2026-09-01T01:12:59Z</time>
  <course>223.26</course>
  <speed>0.73</speed>
  <fix>3d</fix>
</trkpt>
<trkpt lat="33.810234" lon="-118.3939565">
  <ele>-0.114</ele>
  <time>2026-09-01T01:12:59Z</time>
  <course>186.46</course>
  <speed>0.7213875518748573</speed>
  <fix>3d</fix>
</trkpt>
<trkpt lat="33.8102345" lon="-118.3939555">
  <ele>-0.1</ele>
  <time>2026-09-01T01:12:59Z</time>
  <course>223.26</course>
  <speed>0.73</speed>
  <fix>3d</fix>
</trkpt>
<trkpt lat="33.8102335" lon="-118.393957">
  <ele>-0.114</ele>
  <time>2026-09-01T01:12:59Z</time>
  <course>186.46</course>
  <speed>0.7213875518748573</speed>
  <fix>3d</fix>
</trkpt>
<trkpt lat="33.8102345" lon="-118.3939555">
  <ele>-0.1</ele>
  <time>2026-09-01T01:12:59Z</time>
  <course>223.26</course>
  <speed>0.73</speed>
  <fix>3d</fix>
</trkpt>
<trkpt lat="33.810233" lon="-118.3939576">
  <ele>-0.115</ele>
  <time>2026-09-01T01:12:59Z</time>
  <course>186.46</course>
  <speed>0.7213875518748573</speed>
  <fix>3d</fix>
</trkpt>
<trkpt lat="33.8102334" lon="-118.3939566">
  <ele>-0.1</ele>
  <time>2026-09-01T01:12:59Z</time>
  <course>223.26</course>
  <speed>0.73</speed>
  <fix>3d</fix>
</trkpt>
<trkpt lat="33.8102326" lon="-118.3939581">
  <ele>-0.115</ele>
  <time>2026-09-01T01:12:59Z</time>
  <course>186.45</course>
  <speed>0.7213875518748573</speed>
  <fix>3d</fix>
</trkpt>
<trkpt lat="33.8102334" lon="-118.3939566">
  <ele>-0.1</ele>
  <time>2026-09-01T01:12:59Z</time>
  <course>223.26</course>
  <speed>0.73</speed>
  <fix>3d</fix>
</trkpt>
<trkpt lat="33.8102321" lon="-118.3939586">
  <ele>-0.114</ele>
  <time>2026-09-01T01:12:59Z</time>
  <course>186.45</course>
  <speed>0.7213875518748573</speed>
  <fix>3d</fix>
</trkpt>
<trkpt lat="33.8102325" lon="-118.3939577">
  <ele>-0.1</ele>
  <time>2026-09-01T01:12:59Z</time>
  <course>223.26</course>
  <speed>0.73</speed>
  <fix>3d</fix>
</trkpt>
<trkpt lat="33.8102316" lon="-118.3939592">
  <ele>-0.113</ele>
  <time>2026-09-01T01:12:59Z</time>
  <course>186.45</course>
  <speed>0.7213875518748573</speed>
  <fix>3d</fix>
</trkpt>
<trkpt lat="33.8102325" lon="-118.3939577">
  <ele>-0.1</ele>
  <time>2026-09-01T01:12:59Z</time>
  <course>223.26</course>
  <speed>0.73</speed>
  <fix>3d</fix>
</trkpt>
<trkpt lat="33.8102311" lon="-118.3939597">
  <ele>-0.112</ele>
  <time>2026-09-01T01:12:59Z</time>
  <course>186.45</course>
  <speed>0.7213875518748573</speed>
  <fix>3d</fix>
</trkpt>
<trkpt lat="33.8102315" lon="-118.3939588">
  <ele>-0.11</ele>
  <time>2026-09-01T01:12:59Z</time>
  <course>223.26</course>
  <speed>0.73</speed>
  <fix>3d</fix>
</trkpt>
<trkpt lat="33.8102306" lon="-118.3939603">
  <ele>-0.111</ele>
  <time>2026-09-01T01:12:59Z</time>
  <course>186.45</course>
  <speed>0.7213875518748573</speed>
  <fix>3d</fix>
</trkpt>
<trkpt lat="33.8102315" lon="-118.3939588">
  <ele>-0.11</ele>
  <time>2026-09-01T01:12:59Z</time>
  <course>223.26</course>
  <speed>0.73</speed>
  <fix>3d</fix>
</trkpt>
<trkpt lat="33.8102301" lon="-118.3939608">
  <ele>-0.111</ele>
  <time>2026-09-01T01:12:59Z</time>
  <course>186.44</course>
  <speed>0.7213875518748573</speed>
  <fix>3d</fix>
</trkpt>
<trkpt lat="33.8102306" lon="-118.3939599">
  <ele>-0.1</ele>
  <time>2026-09-01T01:12:59Z</time>
  <course>223.26</course>
  <speed>0.73</speed>
  <fix>3d</fix>
</trkpt>
<trkpt lat="33.8102297" lon="-118.3939614">
  <ele>-0.109</ele>
  <time>2026-09-01T01:12:59Z</time>
  <course>186.44</course>
  <speed>0.7213875518748573</speed>
  <fix>3d</fix>
</trkpt>
<trkpt lat="33.8102306" lon="-118.3939599">
  <ele>-0.1</ele>
  <time>2026-09-01T01:12:59Z</time>
  <course>223.26</course>
  <speed>0.73</speed>
  <fix>3d</fix>
</trkpt>
<trkpt lat="33.8102292" lon="-118.3939619">
  <ele>-0.109</ele>
  <time>2026-09-01T01:12:59Z</time>
  <course>186.44</course>
  <speed>0.7213875518748573</speed>
  <fix>3d</fix>
</trkpt>
<trkpt lat="33.8102296" lon="-118.393961">
  <ele>-0.1</ele>
  <time>2026-09-01T01:12:59Z</time>
  <course>223.26</course>
  <speed>0.73</speed>
  <fix>3d</fix>
</trkpt>
<trkpt lat="33.8102287" lon="-118.3939624">
  <ele>-0.109</ele>
  <time>2026-09-01T01:12:59Z</time>
  <course>186.44</course>
  <speed>0.7213875518748573</speed>
  <fix>3d</fix>
</trkpt>
<trkpt lat="33.8102296" lon="-118.393961">
  <ele>-0.1</ele>
  <time>2026-09-01T01:12:59Z</time>
  <course>223.26</course>
  <speed>0.73</speed>
  <fix>3d</fix>
</trkpt>
<trkpt lat="33.8102282" lon="-118.393963">
  <ele>-0.109</ele>
  <time>2026-09-01T01:12:59Z</time>
  <course>186.44</course>
  <speed>0.7213875518748573</speed>
  <fix>3d</fix>
</trkpt>
<trkpt lat="33.8102286" lon="-118.3939621">
  <ele>-0.1</ele>
  <time>2026-09-01T01:12:59Z</time>
  <course>223.26</course>
  <speed>0.73</speed>
  <fix>3d</fix>
</trkpt>
<trkpt lat="33.8102277" lon="-118.3939635">
  <ele>-0.11</ele>
  <time>2026-09-01T01:12:59Z</time>
  <course>186.43</course>
  <speed>0.7213875518748573</speed>
  <fix>3d</fix>
</trkpt>
<trkpt lat="33.8102286" lon="-118.3939621">
  <ele>-0.1</ele>
  <time>2026-09-01T01:12:59Z</time>
  <course>223.26</course>
  <speed>0.73</speed>
  <fix>3d</fix>
</trkpt>
<trkpt lat="33.8102273" lon="-118.3939641">
  <ele>-0.111</ele>
  <time>2026-09-01T01:12:59Z</time>
  <course>186.43</course>
  <speed>0.7213875518748573</speed>
  <fix>3d</fix>
</trkpt>
<trkpt lat="33.8102277" lon="-118.3939632">
  <ele>-0.1</ele>
  <time>2026-09-01T01:12:59Z</time>
  <course>223.26</course>
  <speed>0.73</speed>
  <fix>3d</fix>
</trkpt>
<trkpt lat="33.8102268" lon="-118.3939646">
  <ele>-0.112</ele>
  <time>2026-09-01T01:12:59Z</time>
  <course>186.43</course>
  <speed>0.7213875518748573</speed>
  <fix>3d</fix>
</trkpt>
<trkpt lat="33.8102277" lon="-118.3939632">
  <ele>-0.1</ele>
  <time>2026-09-01T01:12:59Z</time>
  <course>223.26</course>
  <speed>0.73</speed>
  <fix>3d</fix>
</trkpt>
<trkpt lat="33.8102263" lon="-118.3939652">
  <ele>-0.112</ele>
  <time>2026-09-01T01:12:59Z</time>
  <course>186.43</course>
  <speed>0.7213875518748573</speed>
  <fix>3d</fix>
</trkpt>
<trkpt lat="33.8102267" lon="-118.3939642">
  <ele>-0.11</ele>
  <time>2026-09-01T01:12:59Z</time>
  <course>223.26</course>
  <speed>0.73</speed>
  <fix>3d</fix>
</trkpt>
<trkpt lat="33.8102258" lon="-118.3939657">
  <ele>-0.111</ele>
  <time>2026-09-01T01:12:59Z</time>
  <course>186.43</course>
  <speed>0.7213875518748573</speed>
  <fix>3d</fix>
</trkpt>
<trkpt lat="33.8102267" lon="-118.3939642">
  <ele>-0.11</ele>
  <time>2026-09-01T01:12:59Z</time>
  <course>223.26</course>
  <speed>0.73</speed>
  <fix>3d</fix>
</trkpt>
<trkpt lat="33.8102253" lon="-118.3939663">
  <ele>-0.109</ele>
  <time>2026-09-01T01:12:59Z</time>
  <course>186.42</course>
  <speed>0.7283543093852057</speed>
  <fix>3d</fix>
</trkpt>
<trkpt lat="33.8102258" lon="-118.3939653">
  <ele>-0.1</ele>
  <time>2026-09-01T01:12:59Z</time>
  <course>223.26</course>
  <speed>0.73</speed>
  <fix>3d</fix>
</trkpt>
<trkpt lat="33.8102248" lon="-118.3939668">
  <ele>-0.108</ele>
  <time>2026-09-01T01:12:59Z</time>
  <course>186.42</course>
  <speed>0.7283543093852057</speed>
  <fix>3d</fix>
</trkpt>
<trkpt lat="33.8102258" lon="-118.3939653">
  <ele>-0.1</ele>
  <time>2026-09-01T01:12:59Z</time>
  <course>223.26</course>
  <speed>0.73</speed>
  <fix>3d</fix>
</trkpt>
<trkpt lat="33.8102244" lon="-118.3939673">
  <ele>-0.108</ele>
  <time>2026-09-01T01:12:59Z</time>
  <course>186.42</course>
  <speed>0.7283543093852057</speed>
  <fix>3d</fix>
</trkpt>
<trkpt lat="33.8102248" lon="-118.3939664">
  <ele>-0.1</ele>
  <time>2026-09-01T01:12:59Z</time>
  <course>223.26</course>
  <speed>0.73</speed>
  <fix>3d</fix>
</trkpt>
<trkpt lat="33.8102239" lon="-118.3939679">
  <ele>-0.109</ele>
  <time>2026-09-01T01:12:59Z</time>
  <course>186.42</course>
  <speed>0.7283543093852057</speed>
  <fix>3d</fix>
</trkpt>
<trkpt lat="33.8102248" lon="-118.3939664">
  <ele>-0.1</ele>
  <time>2026-09-01T01:12:59Z</time>
  <course>223.26</course>
  <speed>0.73</speed>
  <fix>3d</fix>
</trkpt>
<trkpt lat="33.8102234" lon="-118.3939684">
  <ele>-0.109</ele>
  <time>2026-09-01T01:12:59Z</time>
  <course>186.42</course>
  <speed>0.7283543093852057</speed>
  <fix>3d</fix>
</trkpt>
<trkpt lat="33.8102238" lon="-118.3939675">
  <ele>-0.1</ele>
  <time>2026-09-01T01:12:59Z</time>
  <course>223.26</course>
  <speed>0.73</speed>
  <fix>3d</fix>
</trkpt>
<trkpt lat="33.8102229" lon="-118.393969">
  <ele>-0.109</ele>
  <time>2026-09-01T01:12:59Z</time>
  <course>186.41</course>
  <speed>0.7283543093852057</speed>
  <fix>3d</fix>
</trkpt>
<trkpt lat="33.8102238" lon="-118.3939675">
  <ele>-0.1</ele>
  <time>2026-09-01T01:12:59Z</time>
  <course>223.26</course>
  <speed>0.73</speed>
  <fix>3d</fix>
</trkpt>
<trkpt lat="33.8102224" lon="-118.3939695">
  <ele>-0.109</ele>
  <time>2026-09-01T01:12:59Z</time>
  <course>186.41</course>
  <speed>0.7283543093852057</speed>
  <fix>3d</fix>
</trkpt>
<trkpt lat="33.8102229" lon="-118.3939686">
  <ele>-0.1</ele>
  <time>2026-09-01T01:12:59Z</time>
  <course>223.26</course>
  <speed>0.73</speed>
  <fix>3d</fix>
</trkpt>
<trkpt lat="33.810222" lon="-118.3939701">
  <ele>-0.109</ele>
  <time>2026-09-01T01:12:59Z</time>
  <course>186.41</course>
  <speed>0.7283543093852057</speed>
  <fix>3d</fix>
</trkpt>
<trkpt lat="33.8102229" lon="-118.3939686">
  <ele>-0.1</ele>
  <time>2026-09-01T01:12:59Z</time>
  <course>223.26</course>
  <speed>0.73</speed>
  <fix>3d</fix>
</trkpt>
<trkpt lat="33.8102215" lon="-118.3939706">
  <ele>-0.107</ele>
  <time>2026-09-01T01:12:59Z</time>
  <course>186.41</course>
  <speed>0.7283543093852057</speed>
  <fix>3d</fix>
</trkpt>
<trkpt lat="33.8102219" lon="-118.3939697">
  <ele>-0.11</ele>
  <time>2026-09-01T01:12:59Z</time>
  <course>223.26</course>
  <speed>0.73</speed>
  <fix>3d</fix>
</trkpt>
<trkpt lat="33.810221" lon="-118.3939711">
  <ele>-0.105</ele>
  <time>2026-09-01T01:12:59Z</time>
  <course>186.41</course>
  <speed>0.7283543093852057</speed>
  <fix>3d</fix>
</trkpt>
<trkpt lat="33.8102219" lon="-118.3939697">
  <ele>-0.11</ele>
  <time>2026-09-01T01:12:59Z</time>
  <course>223.26</course>
  <speed>0.73</speed>
  <fix>3d</fix>
</trkpt>
<trkpt lat="33.8102205" lon="-118.3939717">
  <ele>-0.104</ele>
  <time>2026-09-01T01:12:59Z</time>
  <course>186.41</course>
  <speed>0.7283543093852057</speed>
  <fix>3d</fix>
</trkpt>
<trkpt lat="33.810221" lon="-118.3939708">
  <ele>-0.1</ele>
  <time>2026-09-01T01:12:59Z</time>
  <course>223.26</course>
  <speed>0.73</speed>
  <fix>3d</fix>
</trkpt>
<trkpt lat="33.81022" lon="-118.3939722">
  <ele>-0.102</ele>
  <time>2026-09-01T01:12:59Z</time>
  <course>186.4</course>
  <speed>0.7283543093852057</speed>
  <fix>3d</fix>
</trkpt>
<trkpt lat="33.810221" lon="-118.3939708">
  <ele>-0.1</ele>
  <time>2026-09-01T01:12:59Z</time>
  <course>223.26</course>
  <speed>0.73</speed>
  <fix>3d</fix>
</trkpt>
<trkpt lat="33.8102196" lon="-118.3939728">
  <ele>-0.102</ele>
  <time>2026-09-01T01:12:59Z</time>
  <course>186.4</course>
  <speed>0.7283543093852057</speed>
  <fix>3d</fix>
</trkpt>
<trkpt lat="33.81022" lon="-118.3939719">
  <ele>-0.1</ele>
  <time>2026-09-01T01:12:59Z</time>
  <course>223.26</course>
  <speed>0.73</speed>
  <fix>3d</fix>
</trkpt>
<trkpt lat="33.8102191" lon="-118.3939733">
  <ele>-0.102</ele>
  <time>2026-09-01T01:12:59Z</time>
  <course>186.4</course>
  <speed>0.7283543093852057</speed>
  <fix>3d</fix>
</trkpt>
<trkpt lat="33.81022" lon="-118.3939719">
  <ele>-0.1</ele>
  <time>2026-09-01T01:12:59Z</time>
  <course>223.26</course>
  <speed>0.73</speed>
  <fix>3d</fix>
</trkpt>
<trkpt lat="33.8102186" lon="-118.3939739">
  <ele>-0.104</ele>
  <time>2026-09-01T01:12:59Z</time>
  <course>186.4</course>
  <speed>0.7283543093852057</speed>
  <fix>3d</fix>
</trkpt>
<trkpt lat="33.8102191" lon="-118.393973">
  <ele>-0.1</ele>
  <time>2026-09-01T01:12:59Z</time>
  <course>223.26</course>
  <speed>0.73</speed>
  <fix>3d</fix>
</trkpt>
<trkpt lat="33.8102181" lon="-118.3939744">
  <ele>-0.105</ele>
  <time>2026-09-01T01:12:59Z</time>
  <course>186.4</course>
  <speed>0.7283543093852057</speed>
  <fix>3d</fix>
</trkpt>
<trkpt lat="33.8102191" lon="-118.393973">
  <ele>-0.1</ele>
  <time>2026-09-01T01:12:59Z</time>
  <course>223.26</course>
  <speed>0.73</speed>
  <fix>3d</fix>
</trkpt>
<trkpt lat="33.8102176" lon="-118.393975">
  <ele>-0.107</ele>
  <time>2026-09-01T01:12:59Z</time>
  <course>186.4</course>
  <speed>0.7283543093852057</speed>
  <fix>3d</fix>
</trkpt>
<trkpt lat="33.8102181" lon="-118.393974">
  <ele>-0.1</ele>
  <time>2026-09-01T01:12:59Z</time>
  <course>223.26</course>
  <speed>0.73</speed>
  <fix>3d</fix>
</trkpt>
<trkpt lat="33.8102172" lon="-118.3939755">
  <ele>-0.107</ele>
  <time>2026-09-01T01:12:59Z</time>
  <course>186.4</course>
  <speed>0.7213875518748573</speed>
  <fix>3d</fix>
</trkpt>
<trkpt lat="33.8102181" lon="-118.393974">
  <ele>-0.1</ele>
  <time>2026-09-01T01:12:59Z</time>
  <course>223.26</course>
  <speed>0.73</speed>
  <fix>3d</fix>
</trkpt>
<trkpt lat="33.8102167" lon="-118.3939761">
  <ele>-0.107</ele>
  <time>2026-09-01T01:12:59Z</time>
  <course>186.39</course>
  <speed>0.7213875518748573</speed>
  <fix>3d</fix>
</trkpt>
<trkpt lat="33.8102171" lon="-118.3939751">
  <ele>-0.11</ele>
  <time>2026-09-01T01:12:59Z</time>
  <course>223.26</course>
  <speed>0.73</speed>
  <fix>3d</fix>
</trkpt>
<trkpt lat="33.8102162" lon="-118.3939766">
  <ele>-0.106</ele>
  <time>2026-09-01T01:12:59Z</time>
  <course>186.39</course>
  <speed>0.7213875518748573</speed>
  <fix>3d</fix>
</trkpt>
<trkpt lat="33.8102171" lon="-118.3939751">
  <ele>-0.11</ele>
  <time>2026-09-01T01:12:59Z</time>
  <course>223.26</course>
  <speed>0.73</speed>
  <fix>3d</fix>
</trkpt>
<trkpt lat="33.8102157" lon="-118.3939772">
  <ele>-0.106</ele>
  <time>2026-09-01T01:12:59Z</time>
  <course>186.39</course>
  <speed>0.7213875518748573</speed>
  <fix>3d</fix>
</trkpt>
<trkpt lat="33.8102162" lon="-118.3939762">
  <ele>-0.1</ele>
  <time>2026-09-01T01:12:59Z</time>
  <course>223.26</course>
  <speed>0.73</speed>
  <fix>3d</fix>
</trkpt>
<trkpt lat="33.8102152" lon="-118.3939777">
  <ele>-0.107</ele>
  <time>2026-09-01T01:12:59Z</time>
  <course>186.39</course>
  <speed>0.7283543093852057</speed>
  <fix>3d</fix>
</trkpt>
<trkpt lat="33.8102162" lon="-118.3939762">
  <ele>-0.1</ele>
  <time>2026-09-01T01:12:59Z</time>
  <course>223.26</course>
  <speed>0.73</speed>
  <fix>3d</fix>
</trkpt>
<trkpt lat="33.8102148" lon="-118.3939782">
  <ele>-0.108</ele>
  <time>2026-09-01T01:12:59Z</time>
  <course>186.39</course>
  <speed>0.7283543093852057</speed>
  <fix>3d</fix>
</trkpt>
<trkpt lat="33.8102152" lon="-118.3939773">
  <ele>-0.1</ele>
  <time>2026-09-01T01:12:59Z</time>
  <course>223.26</course>
  <speed>0.73</speed>
  <fix>3d</fix>
</trkpt>
<trkpt lat="33.8102143" lon="-118.3939788">
  <ele>-0.111</ele>
  <time>2026-09-01T01:12:59Z</time>
  <course>186.39</course>
  <speed>0.7283543093852057</speed>
  <fix>3d</fix>
</trkpt>
<trkpt lat="33.8102152" lon="-118.3939773">
  <ele>-0.1</ele>
  <time>2026-09-01T01:12:59Z</time>
  <course>223.26</course>
  <speed>0.73</speed>
  <fix>3d</fix>
</trkpt>
<trkpt lat="33.8102138" lon="-118.3939793">
  <ele>-0.113</ele>
  <time>2026-09-01T01:12:59Z</time>
  <course>186.38</course>
  <speed>0.7283543093852057</speed>
  <fix>3d</fix>
</trkpt>
<trkpt lat="33.8102143" lon="-118.3939784">
  <ele>-0.1</ele>
  <time>2026-09-01T01:12:59Z</time>
  <course>223.26</course>
  <speed>0.73</speed>
  <fix>3d</fix>
</trkpt>
<trkpt lat="33.8102133" lon="-118.3939799">
  <ele>-0.115</ele>
  <time>2026-09-01T01:12:59Z</time>
  <course>186.38</course>
  <speed>0.7283543093852057</speed>
  <fix>3d</fix>
</trkpt>
<trkpt lat="33.8102143" lon="-118.3939784">
  <ele>-0.1</ele>
  <time>2026-09-01T01:12:59Z</time>
  <course>223.26</course>
  <speed>0.73</speed>
  <fix>3d</fix>
</trkpt>
<trkpt lat="33.8102128" lon="-118.3939804">
  <ele>-0.117</ele>
  <time>2026-09-01T01:12:59Z</time>
  <course>186.38</course>
  <speed>0.7213875518748573</speed>
  <fix>3d</fix>
</trkpt>
<trkpt lat="33.8102133" lon="-118.3939795">
  <ele>-0.1</ele>
  <time>2026-09-01T01:12:59Z</time>
  <course>223.26</course>
  <speed>0.73</speed>
  <fix>3d</fix>
</trkpt>
<trkpt lat="33.8102124" lon="-118.393981">
  <ele>-0.118</ele>
  <time>2026-09-01T01:12:59Z</time>
  <course>186.38</course>
  <speed>0.7213875518748573</speed>
  <fix>3d</fix>
</trkpt>
<trkpt lat="33.8102133" lon="-118.3939795">
  <ele>-0.1</ele>
  <time>2026-09-01T01:12:59Z</time>
  <course>223.26</course>
  <speed>0.73</speed>
  <fix>3d</fix>
</trkpt>
<trkpt lat="33.8102119" lon="-118.3939815">
  <ele>-0.118</ele>
  <time>2026-09-01T01:12:59Z</time>
  <course>186.38</course>
  <speed>0.7213875518748573</speed>
  <fix>3d</fix>
</trkpt>
<trkpt lat="33.8102123" lon="-118.3939806">
  <ele>-0.11</ele>
  <time>2026-09-01T01:12:59Z</time>
  <course>223.26</course>
  <speed>0.73</speed>
  <fix>3d</fix>
</trkpt>
<trkpt lat="33.8102114" lon="-118.3939821">
  <ele>-0.118</ele>
  <time>2026-09-01T01:12:59Z</time>
  <course>186.38</course>
  <speed>0.7213875518748573</speed>
  <fix>3d</fix>
</trkpt>
<trkpt lat="33.8102123" lon="-118.3939806">
  <ele>-0.11</ele>
  <time>2026-09-01T01:12:59Z</time>
  <course>223.26</course>
  <speed>0.73</speed>
  <fix>3d</fix>
</trkpt>
<trkpt lat="33.8102109" lon="-118.3939826">
  <ele>-0.117</ele>
  <time>2026-09-01T01:12:59Z</time>
  <course>186.38</course>
  <speed>0.7283543093852057</speed>
  <fix>3d</fix>
</trkpt>
<trkpt lat="33.8102114" lon="-118.3939817">
  <ele>-0.1</ele>
  <time>2026-09-01T01:12:59Z</time>
  <course>223.26</course>
  <speed>0.73</speed>
  <fix>3d</fix>
</trkpt>
<trkpt lat="33.8102104" lon="-118.3939832">
  <ele>-0.116</ele>
  <time>2026-09-01T01:12:59Z</time>
  <course>186.37</course>
  <speed>0.7213875518748573</speed>
  <fix>3d</fix>
</trkpt>
<trkpt lat="33.8102114" lon="-118.3939817">
  <ele>-0.1</ele>
  <time>2026-09-01T01:12:59Z</time>
  <course>223.26</course>
  <speed>0.73</speed>
  <fix>3d</fix>
</trkpt>
<trkpt lat="33.81021" lon="-118.3939837">
  <ele>-0.115</ele>
  <time>2026-09-01T01:12:59Z</time>
  <course>186.37</course>
  <speed>0.7213875518748573</speed>
  <fix>3d</fix>
</trkpt>
<trkpt lat="33.8102104" lon="-118.3939828">
  <ele>-0.1</ele>
  <time>2026-09-01T01:12:59Z</time>
  <course>223.26</course>
  <speed>0.73</speed>
  <fix>3d</fix>
</trkpt>
<trkpt lat="33.8102095" lon="-118.3939842">
  <ele>-0.115</ele>
  <time>2026-09-01T01:12:59Z</time>
  <course>186.37</course>
  <speed>0.7283543093852057</speed>
  <fix>3d</fix>
</trkpt>
<trkpt lat="33.8102104" lon="-118.3939828">
  <ele>-0.1</ele>
  <time>2026-09-01T01:12:59Z</time>
  <course>223.26</course>
  <speed>0.73</speed>
  <fix>3d</fix>
</trkpt>
<trkpt lat="33.810209" lon="-118.3939848">
  <ele>-0.115</ele>
  <time>2026-09-01T01:12:59Z</time>
  <course>186.37</course>
  <speed>0.7283543093852057</speed>
  <fix>3d</fix>
</trkpt>
<trkpt lat="33.8102095" lon="-118.3939839">
  <ele>-0.1</ele>
  <time>2026-09-01T01:12:59Z</time>
  <course>223.26</course>
  <speed>0.73</speed>
  <fix>3d</fix>
</trkpt>
<trkpt lat="33.8102085" lon="-118.3939853">
  <ele>-0.114</ele>
  <time>2026-09-01T01:12:59Z</time>
  <course>186.37</course>
  <speed>0.7213875518748573</speed>
  <fix>3d</fix>
</trkpt>
<trkpt lat="33.8102095" lon="-118.3939839">
  <ele>-0.1</ele>
  <time>2026-09-01T01:12:59Z</time>
  <course>223.26</course>
  <speed>0.73</speed>
  <fix>3d</fix>
</trkpt>
<trkpt lat="33.810208" lon="-118.3939859">
  <ele>-0.113</ele>
  <time>2026-09-01T01:12:59Z</time>
  <course>186.37</course>
  <speed>0.7283543093852057</speed>
  <fix>3d</fix>
</trkpt>
<trkpt lat="33.8102085" lon="-118.3939849">
  <ele>-0.1</ele>
  <time>2026-09-01T01:12:59Z</time>
  <course>223.26</course>
  <speed>0.73</speed>
  <fix>3d</fix>
</trkpt>
<trkpt lat="33.8102076" lon="-118.3939864">
  <ele>-0.111</ele>
  <time>2026-09-01T01:12:59Z</time>
  <course>186.37</course>
  <speed>0.7213875518748573</speed>
  <fix>3d</fix>
</trkpt>
<trkpt lat="33.8102085" lon="-118.3939849">
  <ele>-0.1</ele>
  <time>2026-09-01T01:12:59Z</time>
  <course>223.26</course>
  <speed>0.73</speed>
  <fix>3d</fix>
</trkpt>
<trkpt lat="33.8102071" lon="-118.393987">
  <ele>-0.108</ele>
  <time>2026-09-01T01:12:59Z</time>
  <course>186.36</course>
  <speed>0.7283543093852057</speed>
  <fix>3d</fix>
</trkpt>
<trkpt lat="33.8102075" lon="-118.393986">
  <ele>-0.11</ele>
  <time>2026-09-01T01:12:59Z</time>
  <course>223.26</course>
  <speed>0.73</speed>
  <fix>3d</fix>
</trkpt>
<trkpt lat="33.8102066" lon="-118.3939875">
  <ele>-0.107</ele>
  <time>2026-09-01T01:12:59Z</time>
  <course>186.36</course>
  <speed>0.7283543093852057</speed>
  <fix>3d</fix>
</trkpt>
<trkpt lat="33.8102075" lon="-118.393986">
  <ele>-0.11</ele>
  <time>2026-09-01T01:12:59Z</time>
  <course>223.26</course>
  <speed>0.73</speed>
  <fix>3d</fix>
</trkpt>
<trkpt lat="33.8102061" lon="-118.3939881">
  <ele>-0.105</ele>
  <time>2026-09-01T01:12:59Z</time>
  <course>186.36</course>
  <speed>0.7283543093852057</speed>
  <fix>3d</fix>
</trkpt>
<trkpt lat="33.8102066" lon="-118.3939871">
  <ele>-0.1</ele>
  <time>2026-09-01T01:12:59Z</time>
  <course>223.26</course>
  <speed>0.73</speed>
  <fix>3d</fix>
</trkpt>
<trkpt lat="33.8102056" lon="-118.3939886">
  <ele>-0.103</ele>
  <time>2026-09-01T01:12:59Z</time>
  <course>186.36</course>
  <speed>0.7283543093852057</speed>
  <fix>3d</fix>
</trkpt>
<trkpt lat="33.8102066" lon="-118.3939871">
  <ele>-0.1</ele>
  <time>2026-09-01T01:12:59Z</time>
  <course>223.26</course>
  <speed>0.73</speed>
  <fix>3d</fix>
</trkpt>
<trkpt lat="33.8102052" lon="-118.3939892">
  <ele>-0.102</ele>
  <time>2026-09-01T01:12:59Z</time>
  <course>186.36</course>
  <speed>0.7283543093852057</speed>
  <fix>3d</fix>
</trkpt>
<trkpt lat="33.8102055" lon="-118.3939882">
  <ele>-0.1</ele>
  <time>2026-09-01T01:12:59Z</time>
  <course>223.26</course>
  <speed>0.73</speed>
  <fix>3d</fix>
</trkpt>
<trkpt lat="33.8102047" lon="-118.3939897">
  <ele>-0.102</ele>
  <time>2026-09-01T01:12:59Z</time>
  <course>186.36</course>
  <speed>0.7283543093852057</speed>
  <fix>3d</fix>
</trkpt>
<trkpt lat="33.8102055" lon="-118.3939882">
  <ele>-0.1</ele>
  <time>2026-09-01T01:12:59Z</time>
  <course>223.26</course>
  <speed>0.73</speed>
  <fix>3d</fix>
</trkpt>
<trkpt lat="33.8102042" lon="-118.3939902">
  <ele>-0.101</ele>
  <time>2026-09-01T01:12:59Z</time>
  <course>186.36</course>
  <speed>0.7283543093852057</speed>
  <fix>3d</fix>
</trkpt>
<trkpt lat="33.8102046" lon="-118.3939893">
  <ele>-0.1</ele>
  <time>2026-09-01T01:12:59Z</time>
  <course>223.26</course>
  <speed>0.73</speed>
  <fix>3d</fix>
</trkpt>
<trkpt lat="33.8102037" lon="-118.3939908">
  <ele>-0.102</ele>
  <time>2026-09-01T01:12:59Z</time>
  <course>186.36</course>
  <speed>0.7283543093852057</speed>
  <fix>3d</fix>
</trkpt>
<trkpt lat="33.8102046" lon="-118.3939893">
  <ele>-0.1</ele>
  <time>2026-09-01T01:12:59Z</time>
  <course>223.26</course>
  <speed>0.73</speed>
  <fix>3d</fix>
</trkpt>
<trkpt lat="33.8102032" lon="-118.3939913">
  <ele>-0.103</ele>
  <time>2026-09-01T01:12:59Z</time>
  <course>186.35</course>
  <speed>0.7283543093852057</speed>
  <fix>3d</fix>
</trkpt>
<trkpt lat="33.8102037" lon="-118.3939904">
  <ele>-0.1</ele>
  <time>2026-09-01T01:12:59Z</time>
  <course>223.26</course>
  <speed>0.73</speed>
  <fix>3d</fix>
</trkpt>
<trkpt lat="33.8102027" lon="-118.3939919">
  <ele>-0.104</ele>
  <time>2026-09-01T01:12:59Z</time>
  <course>186.35</course>
  <speed>0.7283543093852057</speed>
  <fix>3d</fix>
</trkpt>
<trkpt lat="33.8102037" lon="-118.3939904">
  <ele>-0.1</ele>
  <time>2026-09-01T01:12:59Z</time>
  <course>223.26</course>
  <speed>0.73</speed>
  <fix>3d</fix>
</trkpt>
<trkpt lat="33.8102023" lon="-118.3939924">
  <ele>-0.103</ele>
  <time>2026-09-01T01:12:59Z</time>
  <course>186.35</course>
  <speed>0.7283543093852057</speed>
  <fix>3d</fix>
</trkpt>
<trkpt lat="33.8102027" lon="-118.3939915">
  <ele>-0.11</ele>
  <time>2026-09-01T01:12:59Z</time>
  <course>223.26</course>
  <speed>0.73</speed>
  <fix>3d</fix>
</trkpt>
<trkpt lat="33.8102018" lon="-118.393993">
  <ele>-0.102</ele>
  <time>2026-09-01T01:12:59Z</time>
  <course>186.35</course>
  <speed>0.7283543093852057</speed>
  <fix>3d</fix>
</trkpt>
<trkpt lat="33.8102027" lon="-118.3939915">
  <ele>-0.11</ele>
  <time>2026-09-01T01:12:59Z</time>
  <course>223.26</course>
  <speed>0.73</speed>
  <fix>3d</fix>
</trkpt>
<trkpt lat="33.8102013" lon="-118.3939935">
  <ele>-0.101</ele>
  <time>2026-09-01T01:12:59Z</time>
  <course>186.35</course>
  <speed>0.7283543093852057</speed>
  <fix>3d</fix>
</trkpt>
<trkpt lat="33.8102018" lon="-118.3939926">
  <ele>-0.1</ele>
  <time>2026-09-01T01:12:59Z</time>
  <course>223.26</course>
  <speed>0.73</speed>
  <fix>3d</fix>
</trkpt>
<trkpt lat="33.8102008" lon="-118.3939941">
  <ele>-0.101</ele>
  <time>2026-09-01T01:12:59Z</time>
  <course>186.35</course>
  <speed>0.7283543093852057</speed>
  <fix>3d</fix>
</trkpt>
<trkpt lat="33.8102018" lon="-118.3939926">
  <ele>-0.1</ele>
  <time>2026-09-01T01:12:59Z</time>
  <course>223.26</course>
  <speed>0.73</speed>
  <fix>3d</fix>
</trkpt>
<trkpt lat="33.8102003" lon="-118.3939946">
  <ele>-0.101</ele>
  <time>2026-09-01T01:12:59Z</time>
  <course>186.35</course>
  <speed>0.7283543093852057</speed>
  <fix>3d</fix>
</trkpt>
<trkpt lat="33.8102007" lon="-118.3939937">
  <ele>-0.1</ele>
  <time>2026-09-01T01:12:59Z</time>
  <course>223.26</course>
  <speed>0.73</speed>
  <fix>3d</fix>
</trkpt>
<trkpt lat="33.8101998" lon="-118.3939952">
  <ele>-0.103</ele>
  <time>2026-09-01T01:12:59Z</time>
  <course>186.35</course>
  <speed>0.7283543093852057</speed>
  <fix>3d</fix>
</trkpt>
<trkpt lat="33.8102007" lon="-118.3939937">
  <ele>-0.1</ele>
  <time>2026-09-01T01:12:59Z</time>
  <course>223.26</course>
  <speed>0.73</speed>
  <fix>3d</fix>
</trkpt>
<trkpt lat="33.8101994" lon="-118.3939957">
  <ele>-0.104</ele>
  <time>2026-09-01T01:12:59Z</time>
  <course>186.34</course>
  <speed>0.7283543093852057</speed>
  <fix>3d</fix>
</trkpt>
<trkpt lat="33.8101998" lon="-118.3939947">
  <ele>-0.1</ele>
  <time>2026-09-01T01:12:59Z</time>
  <course>223.26</course>
  <speed>0.73</speed>
  <fix>3d</fix>
</trkpt>
<trkpt lat="33.8101989" lon="-118.3939963">
  <ele>-0.105</ele>
  <time>2026-09-01T01:12:59Z</time>
  <course>186.34</course>
  <speed>0.7283543093852057</speed>
  <fix>3d</fix>
</trkpt>
<trkpt lat="33.8101998" lon="-118.3939947">
  <ele>-0.1</ele>
  <time>2026-09-01T01:12:59Z</time>
  <course>223.26</course>
  <speed>0.73</speed>
  <fix>3d</fix>
</trkpt>
<trkpt lat="33.8101984" lon="-118.3939968">
  <ele>-0.106</ele>
  <time>2026-09-01T01:12:59Z</time>
  <course>186.34</course>
  <speed>0.7283543093852057</speed>
  <fix>3d</fix>
</trkpt>
<trkpt lat="33.8101989" lon="-118.3939958">
  <ele>-0.1</ele>
  <time>2026-09-01T01:12:59Z</time>
  <course>223.26</course>
  <speed>0.73</speed>
  <fix>3d</fix>
</trkpt>
<trkpt lat="33.8101979" lon="-118.3939973">
  <ele>-0.106</ele>
  <time>2026-09-01T01:12:59Z</time>
  <course>186.34</course>
  <speed>0.7283543093852057</speed>
  <fix>3d</fix>
</trkpt>
<trkpt lat="33.8101989" lon="-118.3939958">
  <ele>-0.1</ele>
  <time>2026-09-01T01:12:59Z</time>
  <course>223.26</course>
  <speed>0.73</speed>
  <fix>3d</fix>
</trkpt>
<trkpt lat="33.8101974" lon="-118.3939979">
  <ele>-0.105</ele>
  <time>2026-09-01T01:12:59Z</time>
  <course>186.34</course>
  <speed>0.7283543093852057</speed>
  <fix>3d</fix>
</trkpt>
<trkpt lat="33.8101979" lon="-118.3939969">
  <ele>-0.11</ele>
  <time>2026-09-01T01:12:59Z</time>
  <course>223.26</course>
  <speed>0.73</speed>
  <fix>3d</fix>
</trkpt>
<trkpt lat="33.8101969" lon="-118.3939984">
  <ele>-0.105</ele>
  <time>2026-09-01T01:12:59Z</time>
  <course>186.34</course>
  <speed>0.7283543093852057</speed>
  <fix>3d</fix>
</trkpt>
<trkpt lat="33.8101979" lon="-118.3939969">
  <ele>-0.11</ele>
  <time>2026-09-01T01:12:59Z</time>
  <course>223.26</course>
  <speed>0.73</speed>
  <fix>3d</fix>
</trkpt>
<trkpt lat="33.8101965" lon="-118.393999">
  <ele>-0.105</ele>
  <time>2026-09-01T01:12:59Z</time>
  <course>186.34</course>
  <speed>0.7283543093852057</speed>
  <fix>3d</fix>
</trkpt>
<trkpt lat="33.8101969" lon="-118.393998">
  <ele>-0.1</ele>
  <time>2026-09-01T01:12:59Z</time>
  <course>223.26</course>
  <speed>0.73</speed>
  <fix>3d</fix>
</trkpt>
<trkpt lat="33.810196" lon="-118.3939995">
  <ele>-0.105</ele>
  <time>2026-09-01T01:12:59Z</time>
  <course>186.34</course>
  <speed>0.7283543093852057</speed>
  <fix>3d</fix>
</trkpt>
<trkpt lat="33.8101969" lon="-118.393998">
  <ele>-0.1</ele>
  <time>2026-09-01T01:12:59Z</time>
  <course>223.26</course>
  <speed>0.73</speed>
  <fix>3d</fix>
</trkpt>
<trkpt lat="33.8101955" lon="-118.3940001">
  <ele>-0.105</ele>
  <time>2026-09-01T01:12:59Z</time>
  <course>186.34</course>
  <speed>0.7283543093852057</speed>
  <fix>3d</fix>
</trkpt>
<trkpt lat="33.810196" lon="-118.3939991">
  <ele>-0.1</ele>
  <time>2026-09-01T01:12:59Z</time>
  <course>223.26</course>
  <speed>0.73</speed>
  <fix>3d</fix>
</trkpt>
<trkpt lat="33.810195" lon="-118.3940006">
  <ele>-0.106</ele>
  <time>2026-09-01T01:12:59Z</time>
  <course>186.33</course>
  <speed>0.7283543093852057</speed>
  <fix>3d</fix>
</trkpt>
<trkpt lat="33.810196" lon="-118.3939991">
  <ele>-0.1</ele>
  <time>2026-09-01T01:12:59Z</time>
  <course>223.26</course>
  <speed>0.73</speed>
  <fix>3d</fix>
</trkpt>
<trkpt lat="33.8101945" lon="-118.3940012">
  <ele>-0.108</ele>
  <time>2026-09-01T01:12:59Z</time>
  <course>186.33</course>
  <speed>0.7283543093852057</speed>
  <fix>3d</fix>
</trkpt>
<trkpt lat="33.810195" lon="-118.3940002">
  <ele>-0.1</ele>
  <time>2026-09-01T01:12:59Z</time>
  <course>223.26</course>
  <speed>0.73</speed>
  <fix>3d</fix>
</trkpt>
<trkpt lat="33.8101941" lon="-118.3940017">
  <ele>-0.11</ele>
  <time>2026-09-01T01:12:59Z</time>
  <course>186.33</course>
  <speed>0.7283543093852057</speed>
  <fix>3d</fix>
</trkpt>
<trkpt lat="33.810195" lon="-118.3940002">
  <ele>-0.1</ele>
  <time>2026-09-01T01:12:59Z</time>
  <course>223.26</course>
  <speed>0.73</speed>
  <fix>3d</fix>
</trkpt>
<trkpt lat="33.8101936" lon="-118.3940022">
  <ele>-0.112</ele>
  <time>2026-09-01T01:12:59Z</time>
  <course>186.33</course>
  <speed>0.7283543093852057</speed>
  <fix>3d</fix>
</trkpt>
<trkpt lat="33.810194" lon="-118.3940013">
  <ele>-0.1</ele>
  <time>2026-09-01T01:12:59Z</time>
  <course>223.26</course>
  <speed>0.73</speed>
  <fix>3d</fix>
</trkpt>
<trkpt lat="33.8101931" lon="-118.3940028">
  <ele>-0.114</ele>
  <time>2026-09-01T01:12:59Z</time>
  <course>186.33</course>
  <speed>0.7283543093852057</speed>
  <fix>3d</fix>
</trkpt>
<trkpt lat="33.810194" lon="-118.3940013">
  <ele>-0.1</ele>
  <time>2026-09-01T01:12:59Z</time>
  <course>223.26</course>
  <speed>0.73</speed>
  <fix>3d</fix>
</trkpt>
<trkpt lat="33.8101926" lon="-118.3940033">
  <ele>-0.115</ele>
  <time>2026-09-01T01:12:59Z</time>
  <course>186.33</course>
  <speed>0.7283543093852057</speed>
  <fix>3d</fix>
</trkpt>
<trkpt lat="33.8101931" lon="-118.3940024">
  <ele>-0.11</ele>
  <time>2026-09-01T01:12:59Z</time>
  <course>223.26</course>
  <speed>0.73</speed>
  <fix>3d</fix>
</trkpt>
<trkpt lat="33.8101921" lon="-118.3940039">
  <ele>-0.117</ele>
  <time>2026-09-01T01:12:59Z</time>
  <course>186.33</course>
  <speed>0.7283543093852057</speed>
  <fix>3d</fix>
</trkpt>
<trkpt lat="33.8101931" lon="-118.3940024">
  <ele>-0.11</ele>
  <time>2026-09-01T01:12:59Z</time>
  <course>223.26</course>
  <speed>0.73</speed>
  <fix>3d</fix>
</trkpt>
<trkpt lat="33.8101916" lon="-118.3940044">
  <ele>-0.117</ele>
  <time>2026-09-01T01:12:59Z</time>
  <course>186.33</course>
  <speed>0.7283543093852057</speed>
  <fix>3d</fix>
</trkpt>
<trkpt lat="33.8101921" lon="-118.3940035">
  <ele>-0.1</ele>
  <time>2026-09-01T01:12:59Z</time>
  <course>223.26</course>
  <speed>0.73</speed>
  <fix>3d</fix>
</trkpt>
<trkpt lat="33.8101912" lon="-118.394005">
  <ele>-0.118</ele>
  <time>2026-09-01T01:12:59Z</time>
  <course>186.33</course>
  <speed>0.7283543093852057</speed>
  <fix>3d</fix>
</trkpt>
<trkpt lat="33.8101921" lon="-118.3940035">
  <ele>-0.1</ele>
  <time>2026-09-01T01:12:59Z</time>
  <course>223.26</course>
  <speed>0.73</speed>
  <fix>3d</fix>
</trkpt>
<trkpt lat="33.8101907" lon="-118.3940055">
  <ele>-0.119</ele>
  <time>2026-09-01T01:12:59Z</time>
  <course>186.33</course>
  <speed>0.7283543093852057</speed>
  <fix>3d</fix>
</trkpt>
<trkpt lat="33.8101912" lon="-118.3940046">
  <ele>-0.1</ele>
  <time>2026-09-01T01:12:59Z</time>
  <course>223.26</course>
  <speed>0.73</speed>
  <fix>3d</fix>
</trkpt>
<trkpt lat="33.8101902" lon="-118.3940061">
  <ele>-0.119</ele>
  <time>2026-09-01T01:12:59Z</time>
  <course>186.32</course>
  <speed>0.7283543093852057</speed>
  <fix>3d</fix>
</trkpt>
<trkpt lat="33.8101912" lon="-118.3940046">
  <ele>-0.1</ele>
  <time>2026-09-01T01:12:59Z</time>
  <course>223.26</course>
  <speed>0.73</speed>
  <fix>3d</fix>
</trkpt>
<trkpt lat="33.8101897" lon="-118.3940066">
  <ele>-0.12</ele>
  <time>2026-09-01T01:12:59Z</time>
  <course>186.32</course>
  <speed>0.7283543093852057</speed>
  <fix>3d</fix>
</trkpt>
<trkpt lat="33.8101902" lon="-118.3940056">
  <ele>-0.1</ele>
  <time>2026-09-01T01:12:59Z</time>
  <course>223.26</course>
  <speed>0.73</speed>
  <fix>3d</fix>
</trkpt>
<trkpt lat="33.8101892" lon="-118.3940072">
  <ele>-0.12</ele>
  <time>2026-09-01T01:12:59Z</time>
  <course>186.32</course>
  <speed>0.7283543093852057</speed>
  <fix>3d</fix>
</trkpt>
<trkpt lat="33.8101902" lon="-118.3940056">
  <ele>-0.1</ele>
  <time>2026-09-01T01:12:59Z</time>
  <course>223.26</course>
  <speed>0.73</speed>
  <fix>3d</fix>
</trkpt>
<trkpt lat="33.8101888" lon="-118.3940077">
  <ele>-0.12</ele>
  <time>2026-09-01T01:12:59Z</time>
  <course>186.32</course>
  <speed>0.7283543093852057</speed>
  <fix>3d</fix>
</trkpt>
<trkpt lat="33.8101893" lon="-118.3940067">
  <ele>-0.1</ele>
  <time>2026-09-01T01:12:59Z</time>
  <course>223.26</course>
  <speed>0.73</speed>
  <fix>3d</fix>
</trkpt>
<trkpt lat="33.8101883" lon="-118.3940083">
  <ele>-0.12</ele>
  <time>2026-09-01T01:12:59Z</time>
  <course>186.32</course>
  <speed>0.7283543093852057</speed>
  <fix>3d</fix>
</trkpt>
<trkpt lat="33.8101893" lon="-118.3940067">
  <ele>-0.1</ele>
  <time>2026-09-01T01:12:59Z</time>
  <course>223.26</course>
  <speed>0.73</speed>
  <fix>3d</fix>
</trkpt>
<trkpt lat="33.8101878" lon="-118.3940088">
  <ele>-0.119</ele>
  <time>2026-09-01T01:12:59Z</time>
  <course>186.32</course>
  <speed>0.7283543093852057</speed>
  <fix>3d</fix>
</trkpt>
<trkpt lat="33.8101883" lon="-118.3940078">
  <ele>-0.11</ele>
  <time>2026-09-01T01:12:59Z</time>
  <course>223.26</course>
  <speed>0.73</speed>
  <fix>3d</fix>
</trkpt>
<trkpt lat="33.8101873" lon="-118.3940093">
  <ele>-0.119</ele>
  <time>2026-09-01T01:12:59Z</time>
  <course>186.32</course>
  <speed>0.7283543093852057</speed>
  <fix>3d</fix>
</trkpt>
<trkpt lat="33.8101883" lon="-118.3940078">
  <ele>-0.11</ele>
  <time>2026-09-01T01:12:59Z</time>
  <course>223.26</course>
  <speed>0.73</speed>
  <fix>3d</fix>
</trkpt>
<trkpt lat="33.8101868" lon="-118.3940099">
  <ele>-0.117</ele>
  <time>2026-09-01T01:12:59Z</time>
  <course>186.32</course>
  <speed>0.7283543093852057</speed>
  <fix>3d</fix>
</trkpt>
<trkpt lat="33.8101873" lon="-118.3940089">
  <ele>-0.1</ele>
  <time>2026-09-01T01:12:59Z</time>
  <course>223.26</course>
  <speed>0.73</speed>
  <fix>3d</fix>
</trkpt>
<trkpt lat="33.8101864" lon="-118.3940104">
  <ele>-0.116</ele>
  <time>2026-09-01T01:12:59Z</time>
  <course>186.32</course>
  <speed>0.7283543093852057</speed>
  <fix>3d</fix>
</trkpt>
<trkpt lat="33.8101873" lon="-118.3940089">
  <ele>-0.1</ele>
  <time>2026-09-01T01:12:59Z</time>
  <course>223.26</course>
  <speed>0.73</speed>
  <fix>3d</fix>
</trkpt>
<trkpt lat="33.8101859" lon="-118.394011">
  <ele>-0.115</ele>
  <time>2026-09-01T01:12:59Z</time>
  <course>186.32</course>
  <speed>0.7283543093852057</speed>
  <fix>3d</fix>
</trkpt>
<trkpt lat="33.8101864" lon="-118.39401">
  <ele>-0.1</ele>
  <time>2026-09-01T01:12:59Z</time>
  <course>223.26</course>
  <speed>0.73</speed>
  <fix>3d</fix>
</trkpt>
<trkpt lat="33.8101854" lon="-118.3940115">
  <ele>-0.115</ele>
  <time>2026-09-01T01:12:59Z</time>
  <course>186.32</course>
  <speed>0.7283543093852057</speed>
  <fix>3d</fix>
</trkpt>
<trkpt lat="33.8101864" lon="-118.39401">
  <ele>-0.1</ele>
  <time>2026-09-01T01:12:59Z</time>
  <course>223.26</course>
  <speed>0.73</speed>
  <fix>3d</fix>
</trkpt>
<trkpt lat="33.8101849" lon="-118.3940121">
  <ele>-0.115</ele>
  <time>2026-09-01T01:12:59Z</time>
  <course>186.31</course>
  <speed>0.7283543093852057</speed>
  <fix>3d</fix>
</trkpt>
<trkpt lat="33.8101853" lon="-118.3940111">
  <ele>-0.1</ele>
  <time>2026-09-01T01:12:59Z</time>
  <course>223.26</course>
  <speed>0.73</speed>
  <fix>3d</fix>
</trkpt>
<trkpt lat="33.8101844" lon="-118.3940126">
  <ele>-0.115</ele>
  <time>2026-09-01T01:12:59Z</time>
  <course>186.31</course>
  <speed>0.7283543093852057</speed>
  <fix>3d</fix>
</trkpt>
<trkpt lat="33.8101853" lon="-118.3940111">
  <ele>-0.1</ele>
  <time>2026-09-01T01:12:59Z</time>
  <course>223.26</course>
  <speed>0.73</speed>
  <fix>3d</fix>
</trkpt>
<trkpt lat="33.8101839" lon="-118.3940131">
  <ele>-0.116</ele>
  <time>2026-09-01T01:12:59Z</time>
  <course>186.31</course>
  <speed>0.7283543093852057</speed>
  <fix>3d</fix>
</trkpt>
<trkpt lat="33.8101844" lon="-118.3940122">
  <ele>-0.1</ele>
  <time>2026-09-01T01:12:59Z</time>
  <course>223.26</course>
  <speed>0.73</speed>
  <fix>3d</fix>
</trkpt>
<trkpt lat="33.8101835" lon="-118.3940137">
  <ele>-0.116</ele>
  <time>2026-09-01T01:12:59Z</time>
  <course>186.31</course>
  <speed>0.7283543093852057</speed>
  <fix>3d</fix>
</trkpt>
<trkpt lat="33.8101844" lon="-118.3940122">
  <ele>-0.1</ele>
  <time>2026-09-01T01:12:59Z</time>
  <course>223.26</course>
  <speed>0.73</speed>
  <fix>3d</fix>
</trkpt>
<trkpt lat="33.810183" lon="-118.3940142">
  <ele>-0.115</ele>
  <time>2026-09-01T01:12:59Z</time>
  <course>186.31</course>
  <speed>0.7283543093852057</speed>
  <fix>3d</fix>
</trkpt>
<trkpt lat="33.8101834" lon="-118.3940133">
  <ele>-0.11</ele>
  <time>2026-09-01T01:12:59Z</time>
  <course>223.26</course>
  <speed>0.73</speed>
  <fix>3d</fix>
</trkpt>
<trkpt lat="33.8101825" lon="-118.3940148">
  <ele>-0.113</ele>
  <time>2026-09-01T01:12:59Z</time>
  <course>186.31</course>
  <speed>0.7283543093852057</speed>
  <fix>3d</fix>
</trkpt>
<trkpt lat="33.8101834" lon="-118.3940133">
  <ele>-0.11</ele>
  <time>2026-09-01T01:12:59Z</time>
  <course>223.26</course>
  <speed>0.73</speed>
  <fix>3d</fix>
</trkpt>
<trkpt lat="33.810182" lon="-118.3940153">
  <ele>-0.111</ele>
  <time>2026-09-01T01:12:59Z</time>
  <course>186.31</course>
  <speed>0.7283543093852057</speed>
  <fix>3d</fix>
</trkpt>
<trkpt lat="33.8101825" lon="-118.3940144">
  <ele>-0.11</ele>
  <time>2026-09-01T01:12:59Z</time>
  <course>223.26</course>
  <speed>0.73</speed>
  <fix>3d</fix>
</trkpt>
<trkpt lat="33.8101815" lon="-118.3940159">
  <ele>-0.109</ele>
  <time>2026-09-01T01:12:59Z</time>
  <course>186.31</course>
  <speed>0.7283543093852057</speed>
  <fix>3d</fix>
</trkpt>
<trkpt lat="33.8101825" lon="-118.3940144">
  <ele>-0.11</ele>
  <time>2026-09-01T01:12:59Z</time>
  <course>223.26</course>
  <speed>0.73</speed>
  <fix>3d</fix>
</trkpt>
<trkpt lat="33.810181" lon="-118.3940164">
  <ele>-0.107</ele>
  <time>2026-09-01T01:12:59Z</time>
  <course>186.31</course>
  <speed>0.7283543093852057</speed>
  <fix>3d</fix>
</trkpt>
<trkpt lat="33.8101816" lon="-118.3940154">
  <ele>-0.1</ele>
  <time>2026-09-01T01:12:59Z</time>
  <course>223.26</course>
  <speed>0.73</speed>
  <fix>3d</fix>
</trkpt>
<trkpt lat="33.8101806" lon="-118.394017">
  <ele>-0.108</ele>
  <time>2026-09-01T01:12:59Z</time>
  <course>186.31</course>
  <speed>0.7283543093852057</speed>
  <fix>3d</fix>
</trkpt>
<trkpt lat="33.8101816" lon="-118.3940154">
  <ele>-0.1</ele>
  <time>2026-09-01T01:12:59Z</time>
  <course>223.26</course>
  <speed>0.73</speed>
  <fix>3d</fix>
</trkpt>
<trkpt lat="33.8101801" lon="-118.3940175">
  <ele>-0.109</ele>
  <time>2026-09-01T01:12:59Z</time>
  <course>186.31</course>
  <speed>0.7283543093852057</speed>
  <fix>3d</fix>
</trkpt>
<trkpt lat="33.8101805" lon="-118.3940165">
  <ele>-0.1</ele>
  <time>2026-09-01T01:12:59Z</time>
  <course>223.26</course>
  <speed>0.73</speed>
  <fix>3d</fix>
</trkpt>
<trkpt lat="33.8101796" lon="-118.3940181">
  <ele>-0.109</ele>
  <time>2026-09-01T01:12:59Z</time>
  <course>186.31</course>
  <speed>0.7283543093852057</speed>
  <fix>3d</fix>
</trkpt>
<trkpt lat="33.8101805" lon="-118.3940165">
  <ele>-0.1</ele>
  <time>2026-09-01T01:12:59Z</time>
  <course>223.26</course>
  <speed>0.73</speed>
  <fix>3d</fix>
</trkpt>
<trkpt lat="33.8101791" lon="-118.3940186">
  <ele>-0.11</ele>
  <time>2026-09-01T01:12:59Z</time>
  <course>186.3</course>
  <speed>0.7283543093852057</speed>
  <fix>3d</fix>
</trkpt>
<trkpt lat="33.8101796" lon="-118.3940176">
  <ele>-0.1</ele>
  <time>2026-09-01T01:12:59Z</time>
  <course>223.26</course>
  <speed>0.73</speed>
  <fix>3d</fix>
</trkpt>
<trkpt lat="33.8101786" lon="-118.3940191">
  <ele>-0.111</ele>
  <time>2026-09-01T01:12:59Z</time>
  <course>186.3</course>
  <speed>0.7283543093852057</speed>
  <fix>3d</fix>
</trkpt>
<trkpt lat="33.8101796" lon="-118.3940176">
  <ele>-0.1</ele>
  <time>2026-09-01T01:12:59Z</time>
  <course>223.26</course>
  <speed>0.73</speed>
  <fix>3d</fix>
</trkpt>
<trkpt lat="33.8101782" lon="-118.3940197">
  <ele>-0.112</ele>
  <time>2026-09-01T01:12:59Z</time>
  <course>186.3</course>
  <speed>0.7283543093852057</speed>
  <fix>3d</fix>
</trkpt>
<trkpt lat="33.8101786" lon="-118.3940187">
  <ele>-0.11</ele>
  <time>2026-09-01T01:12:59Z</time>
  <course>223.26</course>
  <speed>0.73</speed>
  <fix>3d</fix>
</trkpt>
<trkpt lat="33.8101777" lon="-118.3940202">
  <ele>-0.113</ele>
  <time>2026-09-01T01:12:59Z</time>
  <course>186.3</course>
  <speed>0.7283543093852057</speed>
  <fix>3d</fix>
</trkpt>
<trkpt lat="33.8101786" lon="-118.3940187">
  <ele>-0.11</ele>
  <time>2026-09-01T01:12:59Z</time>
  <course>223.26</course>
  <speed>0.73</speed>
  <fix>3d</fix>
</trkpt>
<trkpt lat="33.8101772" lon="-118.3940208">
  <ele>-0.115</ele>
  <time>2026-09-01T01:12:59Z</time>
  <course>186.3</course>
  <speed>0.7283543093852057</speed>
  <fix>3d</fix>
</trkpt>
<trkpt lat="33.8101777" lon="-118.3940198">
  <ele>-0.11</ele>
  <time>2026-09-01T01:12:59Z</time>
  <course>223.26</course>
  <speed>0.73</speed>
  <fix>3d</fix>
</trkpt>
<trkpt lat="33.8101767" lon="-118.3940213">
  <ele>-0.116</ele>
  <time>2026-09-01T01:12:59Z</time>
  <course>186.3</course>
  <speed>0.7283543093852057</speed>
  <fix>3d</fix>
</trkpt>
<trkpt lat="33.8101777" lon="-118.3940198">
  <ele>-0.11</ele>
  <time>2026-09-01T01:12:59Z</time>
  <course>223.26</course>
  <speed>0.73</speed>
  <fix>3d</fix>
</trkpt>
<trkpt lat="33.8101762" lon="-118.3940219">
  <ele>-0.116</ele>
  <time>2026-09-01T01:12:59Z</time>
  <course>186.3</course>
  <speed>0.7283543093852057</speed>
  <fix>3d</fix>
</trkpt>
<trkpt lat="33.8101768" lon="-118.3940209">
  <ele>-0.1</ele>
  <time>2026-09-01T01:12:59Z</time>
  <course>223.26</course>
  <speed>0.73</speed>
  <fix>3d</fix>
</trkpt>
<trkpt lat="33.8101758" lon="-118.3940224">
  <ele>-0.118</ele>
  <time>2026-09-01T01:12:59Z</time>
  <course>186.3</course>
  <speed>0.7283543093852057</speed>
  <fix>3d</fix>
</trkpt>
<trkpt lat="33.8101768" lon="-118.3940209">
  <ele>-0.1</ele>
  <time>2026-09-01T01:12:59Z</time>
  <course>223.26</course>
  <speed>0.73</speed>
  <fix>3d</fix>
</trkpt>
<trkpt lat="33.8101753" lon="-118.394023">
  <ele>-0.118</ele>
  <time>2026-09-01T01:12:59Z</time>
  <course>186.3</course>
  <speed>0.7283543093852057</speed>
  <fix>3d</fix>
</trkpt>
<trkpt lat="33.8101757" lon="-118.394022">
  <ele>-0.1</ele>
  <time>2026-09-01T01:12:59Z</time>
  <course>223.26</course>
  <speed>0.73</speed>
  <fix>3d</fix>
</trkpt>
<trkpt lat="33.8101748" lon="-118.3940235">
  <ele>-0.118</ele>
  <time>2026-09-01T01:12:59Z</time>
  <course>186.3</course>
  <speed>0.7283543093852057</speed>
  <fix>3d</fix>
</trkpt>
<trkpt lat="33.8101757" lon="-118.394022">
  <ele>-0.1</ele>
  <time>2026-09-01T01:12:59Z</time>
  <course>223.26</course>
  <speed>0.73</speed>
  <fix>3d</fix>
</trkpt>
<trkpt lat="33.8101743" lon="-118.394024">
  <ele>-0.118</ele>
  <time>2026-09-01T01:12:59Z</time>
  <course>186.3</course>
  <speed>0.7283543093852057</speed>
  <fix>3d</fix>
</trkpt>
<trkpt lat="33.8101748" lon="-118.3940231">
  <ele>-0.1</ele>
  <time>2026-09-01T01:12:59Z</time>
  <course>223.26</course>
  <speed>0.73</speed>
  <fix>3d</fix>
</trkpt>
<trkpt lat="33.8101738" lon="-118.3940246">
  <ele>-0.118</ele>
  <time>2026-09-01T01:12:59Z</time>
  <course>186.3</course>
  <speed>0.7283543093852057</speed>
  <fix>3d</fix>
</trkpt>
<trkpt lat="33.8101748" lon="-118.3940231">
  <ele>-0.1</ele>
  <time>2026-09-01T01:12:59Z</time>
  <course>223.26</course>
  <speed>0.73</speed>
  <fix>3d</fix>
</trkpt>
<trkpt lat="33.8101733" lon="-118.3940251">
  <ele>-0.117</ele>
  <time>2026-09-01T01:12:59Z</time>
  <course>186.3</course>
  <speed>0.7283543093852057</speed>
  <fix>3d</fix>
</trkpt>
<trkpt lat="33.8101738" lon="-118.3940242">
  <ele>-0.11</ele>
  <time>2026-09-01T01:12:59Z</time>
  <course>223.26</course>
  <speed>0.73</speed>
  <fix>3d</fix>
</trkpt>
<trkpt lat="33.8101729" lon="-118.3940257">
  <ele>-0.117</ele>
  <time>2026-09-01T01:12:59Z</time>
  <course>186.3</course>
  <speed>0.7283543093852057</speed>
  <fix>3d</fix>
</trkpt>
<trkpt lat="33.8101738" lon="-118.3940242">
  <ele>-0.11</ele>
  <time>2026-09-01T01:12:59Z</time>
  <course>223.26</course>
  <speed>0.73</speed>
  <fix>3d</fix>
</trkpt>
<trkpt lat="33.8101724" lon="-118.3940262">
  <ele>-0.116</ele>
  <time>2026-09-01T01:12:59Z</time>
  <course>186.29</course>
  <speed>0.7283543093852057</speed>
  <fix>3d</fix>
</trkpt>
<trkpt lat="33.8101729" lon="-118.3940253">
  <ele>-0.11</ele>
  <time>2026-09-01T01:12:59Z</time>
  <course>223.26</course>
  <speed>0.73</speed>
  <fix>3d</fix>
</trkpt>
<trkpt lat="33.8101719" lon="-118.3940268">
  <ele>-0.116</ele>
  <time>2026-09-01T01:12:59Z</time>
  <course>186.29</course>
  <speed>0.7283543093852057</speed>
  <fix>3d</fix>
</trkpt>
<trkpt lat="33.8101729" lon="-118.3940253">
  <ele>-0.11</ele>
  <time>2026-09-01T01:12:59Z</time>
  <course>223.26</course>
  <speed>0.73</speed>
  <fix>3d</fix>
</trkpt>
<trkpt lat="33.8101714" lon="-118.3940273">
  <ele>-0.115</ele>
  <time>2026-09-01T01:12:59Z</time>
  <course>186.29</course>
  <speed>0.7283543093852057</speed>
  <fix>3d</fix>
</trkpt>
<trkpt lat="33.8101719" lon="-118.3940263">
  <ele>-0.1</ele>
  <time>2026-09-01T01:12:59Z</time>
  <course>223.26</course>
  <speed>0.73</speed>
  <fix>3d</fix>
</trkpt>
<trkpt lat="33.8101709" lon="-118.3940279">
  <ele>-0.114</ele>
  <time>2026-09-01T01:12:59Z</time>
  <course>186.29</course>
  <speed>0.7283543093852057</speed>
  <fix>3d</fix>
</trkpt>
<trkpt lat="33.8101719" lon="-118.3940263">
  <ele>-0.1</ele>
  <time>2026-09-01T01:12:59Z</time>
  <course>223.26</course>
  <speed>0.73</speed>
  <fix>3d</fix>
</trkpt>
<trkpt lat="33.8101705" lon="-118.3940284">
  <ele>-0.114</ele>
  <time>2026-09-01T01:12:59Z</time>
  <course>186.29</course>
  <speed>0.7283543093852057</speed>
  <fix>3d</fix>
</trkpt>
<trkpt lat="33.8101709" lon="-118.3940274">
  <ele>-0.1</ele>
  <time>2026-09-01T01:12:59Z</time>
  <course>223.26</course>
  <speed>0.73</speed>
  <fix>3d</fix>
</trkpt>
<trkpt lat="33.81017" lon="-118.394029">
  <ele>-0.114</ele>
  <time>2026-09-01T01:12:59Z</time>
  <course>186.29</course>
  <speed>0.7283543093852057</speed>
  <fix>3d</fix>
</trkpt>
<trkpt lat="33.8101709" lon="-118.3940274">
  <ele>-0.1</ele>
  <time>2026-09-01T01:12:59Z</time>
  <course>223.26</course>
  <speed>0.73</speed>
  <fix>3d</fix>
</trkpt>
<trkpt lat="33.8101695" lon="-118.3940295">
  <ele>-0.114</ele>
  <time>2026-09-01T01:12:59Z</time>
  <course>186.29</course>
  <speed>0.7283543093852057</speed>
  <fix>3d</fix>
</trkpt>
<trkpt lat="33.81017" lon="-118.3940285">
  <ele>-0.1</ele>
  <time>2026-09-01T01:12:59Z</time>
  <course>223.26</course>
  <speed>0.73</speed>
  <fix>3d</fix>
</trkpt>
<trkpt lat="33.810169" lon="-118.39403">
  <ele>-0.115</ele>
  <time>2026-09-01T01:12:59Z</time>
  <course>186.29</course>
  <speed>0.7283543093852057</speed>
  <fix>3d</fix>
</trkpt>
<trkpt lat="33.81017" lon="-118.3940285">
  <ele>-0.1</ele>
  <time>2026-09-01T01:12:59Z</time>
  <course>223.26</course>
  <speed>0.73</speed>
  <fix>3d</fix>
</trkpt>
<trkpt lat="33.8101685" lon="-118.3940306">
  <ele>-0.115</ele>
  <time>2026-09-01T01:12:59Z</time>
  <course>186.29</course>
  <speed>0.7283543093852057</speed>
  <fix>3d</fix>
</trkpt>
<trkpt lat="33.810169" lon="-118.3940296">
  <ele>-0.11</ele>
  <time>2026-09-01T01:12:59Z</time>
  <course>223.26</course>
  <speed>0.73</speed>
  <fix>3d</fix>
</trkpt>
<trkpt lat="33.810168" lon="-118.3940311">
  <ele>-0.114</ele>
  <time>2026-09-01T01:12:59Z</time>
  <course>186.29</course>
  <speed>0.7283543093852057</speed>
  <fix>3d</fix>
</trkpt>
<trkpt lat="33.810169" lon="-118.3940296">
  <ele>-0.11</ele>
  <time>2026-09-01T01:12:59Z</time>
  <course>223.26</course>
  <speed>0.73</speed>
  <fix>3d</fix>
</trkpt>
<trkpt lat="33.8101676" lon="-118.3940317">
  <ele>-0.113</ele>
  <time>2026-09-01T01:12:59Z</time>
  <course>186.29</course>
  <speed>0.7283543093852057</speed>
  <fix>3d</fix>
</trkpt>
<trkpt lat="33.8101681" lon="-118.3940307">
  <ele>-0.11</ele>
  <time>2026-09-01T01:12:59Z</time>
  <course>223.26</course>
  <speed>0.73</speed>
  <fix>3d</fix>
</trkpt>
<trkpt lat="33.8101671" lon="-118.3940322">
  <ele>-0.111</ele>
  <time>2026-09-01T01:12:59Z</time>
  <course>186.29</course>
  <speed>0.7283543093852057</speed>
  <fix>3d</fix>
</trkpt>
<trkpt lat="33.8101681" lon="-118.3940307">
  <ele>-0.11</ele>
  <time>2026-09-01T01:12:59Z</time>
  <course>223.26</course>
  <speed>0.73</speed>
  <fix>3d</fix>
</trkpt>
<trkpt lat="33.8101666" lon="-118.3940328">
  <ele>-0.11</ele>
  <time>2026-09-01T01:12:59Z</time>
  <course>186.29</course>
  <speed>0.7283543093852057</speed>
  <fix>3d</fix>
</trkpt>
<trkpt lat="33.8101671" lon="-118.3940318">
  <ele>-0.1</ele>
  <time>2026-09-01T01:12:59Z</time>
  <course>223.26</course>
  <speed>0.73</speed>
  <fix>3d</fix>
</trkpt>
<trkpt lat="33.8101661" lon="-118.3940333">
  <ele>-0.111</ele>
  <time>2026-09-01T01:12:59Z</time>
  <course>186.29</course>
  <speed>0.7283543093852057</speed>
  <fix>3d</fix>
</trkpt>
<trkpt lat="33.8101671" lon="-118.3940318">
  <ele>-0.1</ele>
  <time>2026-09-01T01:12:59Z</time>
  <course>223.26</course>
  <speed>0.73</speed>
  <fix>3d</fix>
</trkpt>
<trkpt lat="33.8101657" lon="-118.3940338">
  <ele>-0.111</ele>
  <time>2026-09-01T01:12:59Z</time>
  <course>186.29</course>
  <speed>0.7283543093852057</speed>
  <fix>3d</fix>
</trkpt>
<trkpt lat="33.8101662" lon="-118.3940329">
  <ele>-0.1</ele>
  <time>2026-09-01T01:12:59Z</time>
  <course>223.26</course>
  <speed>0.73</speed>
  <fix>3d</fix>
</trkpt>
<trkpt lat="33.8101652" lon="-118.3940344">
  <ele>-0.111</ele>
  <time>2026-09-01T01:12:59Z</time>
  <course>186.29</course>
  <speed>0.7283543093852057</speed>
  <fix>3d</fix>
</trkpt>
<trkpt lat="33.8101662" lon="-118.3940329">
  <ele>-0.1</ele>
  <time>2026-09-01T01:12:59Z</time>
  <course>223.26</course>
  <speed>0.73</speed>
  <fix>3d</fix>
</trkpt>
<trkpt lat="33.8101647" lon="-118.3940349">
  <ele>-0.111</ele>
  <time>2026-09-01T01:12:59Z</time>
  <course>186.28</course>
  <speed>0.7283543093852057</speed>
  <fix>3d</fix>
</trkpt>
<trkpt lat="33.8101652" lon="-118.394034">
  <ele>-0.1</ele>
  <time>2026-09-01T01:12:59Z</time>
  <course>223.26</course>
  <speed>0.73</speed>
  <fix>3d</fix>
</trkpt>
<trkpt lat="33.8101642" lon="-118.3940355">
  <ele>-0.112</ele>
  <time>2026-09-01T01:12:59Z</time>
  <course>186.28</course>
  <speed>0.7213875518748573</speed>
  <fix>3d</fix>
</trkpt>
<trkpt lat="33.8101652" lon="-118.394034">
  <ele>-0.1</ele>
  <time>2026-09-01T01:12:59Z</time>
  <course>223.26</course>
  <speed>0.73</speed>
  <fix>3d</fix>
</trkpt>
<trkpt lat="33.8101638" lon="-118.394036">
  <ele>-0.112</ele>
  <time>2026-09-01T01:12:59Z</time>
  <course>186.28</course>
  <speed>0.7213875518748573</speed>
  <fix>3d</fix>
</trkpt>
<trkpt lat="33.8101642" lon="-118.3940351">
  <ele>-0.11</ele>
  <time>2026-09-01T01:12:59Z</time>
  <course>223.26</course>
  <speed>0.73</speed>
  <fix>3d</fix>
</trkpt>
<trkpt lat="33.8101633" lon="-118.3940366">
  <ele>-0.11</ele>
  <time>2026-09-01T01:12:59Z</time>
  <course>186.28</course>
  <speed>0.7213875518748573</speed>
  <fix>3d</fix>
</trkpt>
<trkpt lat="33.8101642" lon="-118.3940351">
  <ele>-0.11</ele>
  <time>2026-09-01T01:12:59Z</time>
  <course>223.26</course>
  <speed>0.73</speed>
  <fix>3d</fix>
</trkpt>
<trkpt lat="33.8101628" lon="-118.3940371">
  <ele>-0.109</ele>
  <time>2026-09-01T01:12:59Z</time>
  <course>186.28</course>
  <speed>0.7213875518748573</speed>
  <fix>3d</fix>
</trkpt>
<trkpt lat="33.8101633" lon="-118.3940361">
  <ele>-0.11</ele>
  <time>2026-09-01T01:12:59Z</time>
  <course>223.26</course>
  <speed>0.73</speed>
  <fix>3d</fix>
</trkpt>
<trkpt lat="33.8101623" lon="-118.3940376">
  <ele>-0.106</ele>
  <time>2026-09-01T01:12:59Z</time>
  <course>186.28</course>
  <speed>0.7213875518748573</speed>
  <fix>3d</fix>
</trkpt>
<trkpt lat="33.8101633" lon="-118.3940361">
  <ele>-0.11</ele>
  <time>2026-09-01T01:12:59Z</time>
  <course>223.26</course>
  <speed>0.73</speed>
  <fix>3d</fix>
</trkpt>
<trkpt lat="33.8101619" lon="-118.3940382">
  <ele>-0.104</ele>
  <time>2026-09-01T01:12:59Z</time>
  <course>186.28</course>
  <speed>0.7213875518748573</speed>
  <fix>3d</fix>
</trkpt>
<trkpt lat="33.8101623" lon="-118.3940372">
  <ele>-0.1</ele>
  <time>2026-09-01T01:12:59Z</time>
  <course>223.26</course>
  <speed>0.73</speed>
  <fix>3d</fix>
</trkpt>
<trkpt lat="33.8101614" lon="-118.3940387">
  <ele>-0.102</ele>
  <time>2026-09-01T01:12:59Z</time>
  <course>186.28</course>
  <speed>0.7213875518748573</speed>
  <fix>3d</fix>
</trkpt>
<trkpt lat="33.8101623" lon="-118.3940372">
  <ele>-0.1</ele>
  <time>2026-09-01T01:12:59Z</time>
  <course>223.26</course>
  <speed>0.73</speed>
  <fix>3d</fix>
</trkpt>
<trkpt lat="33.8101609" lon="-118.3940393">
  <ele>-0.102</ele>
  <time>2026-09-01T01:12:59Z</time>
  <course>186.28</course>
  <speed>0.7213875518748573</speed>
  <fix>3d</fix>
</trkpt>
<trkpt lat="33.8101614" lon="-118.3940383">
  <ele>-0.1</ele>
  <time>2026-09-01T01:12:59Z</time>
  <course>223.26</course>
  <speed>0.73</speed>
  <fix>3d</fix>
</trkpt>
<trkpt lat="33.8101604" lon="-118.3940398">
  <ele>-0.102</ele>
  <time>2026-09-01T01:12:59Z</time>
  <course>186.28</course>
  <speed>0.7213875518748573</speed>
  <fix>3d</fix>
</trkpt>
<trkpt lat="33.8101614" lon="-118.3940383">
  <ele>-0.1</ele>
  <time>2026-09-01T01:12:59Z</time>
  <course>223.26</course>
  <speed>0.73</speed>
  <fix>3d</fix>
</trkpt>
<trkpt lat="33.81016" lon="-118.3940403">
  <ele>-0.102</ele>
  <time>2026-09-01T01:12:59Z</time>
  <course>186.28</course>
  <speed>0.7213875518748573</speed>
  <fix>3d</fix>
</trkpt>
<trkpt lat="33.8101604" lon="-118.3940394">
  <ele>-0.1</ele>
  <time>2026-09-01T01:12:59Z</time>
  <course>223.26</course>
  <speed>0.73</speed>
  <fix>3d</fix>
</trkpt>
<trkpt lat="33.8101595" lon="-118.3940409">
  <ele>-0.102</ele>
  <time>2026-09-01T01:12:59Z</time>
  <course>186.28</course>
  <speed>0.7213875518748573</speed>
  <fix>3d</fix>
</trkpt>
<trkpt lat="33.8101604" lon="-118.3940394">
  <ele>-0.1</ele>
  <time>2026-09-01T01:12:59Z</time>
  <course>223.26</course>
  <speed>0.73</speed>
  <fix>3d</fix>
</trkpt>
<trkpt lat="33.810159" lon="-118.3940414">
  <ele>-0.102</ele>
  <time>2026-09-01T01:12:59Z</time>
  <course>186.28</course>
  <speed>0.7213875518748573</speed>
  <fix>3d</fix>
</trkpt>
<trkpt lat="33.8101594" lon="-118.3940405">
  <ele>-0.1</ele>
  <time>2026-09-01T01:12:59Z</time>
  <course>223.26</course>
  <speed>0.73</speed>
  <fix>3d</fix>
</trkpt>
<trkpt lat="33.8101585" lon="-118.394042">
  <ele>-0.103</ele>
  <time>2026-09-01T01:12:59Z</time>
  <course>186.28</course>
  <speed>0.7213875518748573</speed>
  <fix>3d</fix>
</trkpt>
<trkpt lat="33.8101594" lon="-118.3940405">
  <ele>-0.1</ele>
  <time>2026-09-01T01:12:59Z</time>
  <course>223.26</course>
  <speed>0.73</speed>
  <fix>3d</fix>
</trkpt>
<trkpt lat="33.810158" lon="-118.3940425">
  <ele>-0.104</ele>
  <time>2026-09-01T01:12:59Z</time>
  <course>186.28</course>
  <speed>0.7213875518748573</speed>
  <fix>3d</fix>
</trkpt>
<trkpt lat="33.8101585" lon="-118.3940416">
  <ele>-0.11</ele>
  <time>2026-09-01T01:12:59Z</time>
  <course>223.26</course>
  <speed>0.73</speed>
  <fix>3d</fix>
</trkpt>
<trkpt lat="33.8101576" lon="-118.3940431">
  <ele>-0.105</ele>
  <time>2026-09-01T01:12:59Z</time>
  <course>186.28</course>
  <speed>0.7213875518748573</speed>
  <fix>3d</fix>
</trkpt>
<trkpt lat="33.8101585" lon="-118.3940416">
  <ele>-0.11</ele>
  <time>2026-09-01T01:12:59Z</time>
  <course>223.26</course>
  <speed>0.73</speed>
  <fix>3d</fix>
</trkpt>
<trkpt lat="33.8101571" lon="-118.3940436">
  <ele>-0.106</ele>
  <time>2026-09-01T01:12:59Z</time>
  <course>186.28</course>
  <speed>0.7213875518748573</speed>
  <fix>3d</fix>
</trkpt>
<trkpt lat="33.8101575" lon="-118.3940427">
  <ele>-0.1</ele>
  <time>2026-09-01T01:12:59Z</time>
  <course>223.26</course>
  <speed>0.73</speed>
  <fix>3d</fix>
</trkpt>
<trkpt lat="33.8101566" lon="-118.3940441">
  <ele>-0.107</ele>
  <time>2026-09-01T01:12:59Z</time>
  <course>186.28</course>
  <speed>0.7213875518748573</speed>
  <fix>3d</fix>
</trkpt>
<trkpt lat="33.8101575" lon="-118.3940427">
  <ele>-0.1</ele>
  <time>2026-09-01T01:12:59Z</time>
  <course>223.26</course>
  <speed>0.73</speed>
  <fix>3d</fix>
</trkpt>
<trkpt lat="33.8101561" lon="-118.3940447">
  <ele>-0.109</ele>
  <time>2026-09-01T01:12:59Z</time>
  <course>186.28</course>
  <speed>0.7213875518748573</speed>
  <fix>3d</fix>
</trkpt>
<trkpt lat="33.8101566" lon="-118.3940438">
  <ele>-0.1</ele>
  <time>2026-09-01T01:12:59Z</time>
  <course>223.26</course>
  <speed>0.73</speed>
  <fix>3d</fix>
</trkpt>
<trkpt lat="33.8101556" lon="-118.3940452">
  <ele>-0.11</ele>
  <time>2026-09-01T01:12:59Z</time>
  <course>186.28</course>
  <speed>0.7213875518748573</speed>
  <fix>3d</fix>
</trkpt>
<trkpt lat="33.8101566" lon="-118.3940438">
  <ele>-0.1</ele>
  <time>2026-09-01T01:12:59Z</time>
  <course>223.26</course>
  <speed>0.73</speed>
  <fix>3d</fix>
</trkpt>
<trkpt lat="33.8101552" lon="-118.3940458">
  <ele>-0.112</ele>
  <time>2026-09-01T01:12:59Z</time>
  <course>186.28</course>
  <speed>0.7213875518748573</speed>
  <fix>3d</fix>
</trkpt>
<trkpt lat="33.8101556" lon="-118.3940449">
  <ele>-0.1</ele>
  <time>2026-09-01T01:12:59Z</time>
  <course>223.26</course>
  <speed>0.73</speed>
  <fix>3d</fix>
</trkpt>
<trkpt lat="33.8101547" lon="-118.3940463">
  <ele>-0.113</ele>
  <time>2026-09-01T01:12:59Z</time>
  <course>186.27</course>
  <speed>0.7213875518748573</speed>
  <fix>3d</fix>
</trkpt>
<trkpt lat="33.8101556" lon="-118.3940449">
  <ele>-0.1</ele>
  <time>2026-09-01T01:12:59Z</time>
  <course>223.26</course>
  <speed>0.73</speed>
  <fix>3d</fix>
</trkpt>
<trkpt lat="33.8101542" lon="-118.3940469">
  <ele>-0.116</ele>
  <time>2026-09-01T01:12:59Z</time>
  <course>186.27</course>
  <speed>0.7213875518748573</speed>
  <fix>3d</fix>
</trkpt>
<trkpt lat="33.8101546" lon="-118.394046">
  <ele>-0.1</ele>
  <time>2026-09-01T01:12:59Z</time>
  <course>223.26</course>
  <speed>0.73</speed>
  <fix>3d</fix>
</trkpt>
<trkpt lat="33.8101537" lon="-118.3940474">
  <ele>-0.117</ele>
  <time>2026-09-01T01:12:59Z</time>
  <course>186.27</course>
  <speed>0.7213875518748573</speed>
  <fix>3d</fix>
</trkpt>
<trkpt lat="33.8101546" lon="-118.394046">
  <ele>-0.1</ele>
  <time>2026-09-01T01:12:59Z</time>
  <course>223.26</course>
  <speed>0.73</speed>
  <fix>3d</fix>
</trkpt>
<trkpt lat="33.8101532" lon="-118.394048">
  <ele>-0.116</ele>
  <time>2026-09-01T01:12:59Z</time>
  <course>186.27</course>
  <speed>0.7213875518748573</speed>
  <fix>3d</fix>
</trkpt>
<trkpt lat="33.8101537" lon="-118.394047">
  <ele>-0.11</ele>
  <time>2026-09-01T01:12:59Z</time>
  <course>223.26</course>
  <speed>0.73</speed>
  <fix>3d</fix>
</trkpt>
<trkpt lat="33.8101528" lon="-118.3940485">
  <ele>-0.116</ele>
  <time>2026-09-01T01:12:59Z</time>
  <course>186.27</course>
  <speed>0.7213875518748573</speed>
  <fix>3d</fix>
</trkpt>
<trkpt lat="33.8101537" lon="-118.394047">
  <ele>-0.11</ele>
  <time>2026-09-01T01:12:59Z</time>
  <course>223.26</course>
  <speed>0.73</speed>
  <fix>3d</fix>
</trkpt>
<trkpt lat="33.8101523" lon="-118.3940491">
  <ele>-0.115</ele>
  <time>2026-09-01T01:12:59Z</time>
  <course>186.27</course>
  <speed>0.7213875518748573</speed>
  <fix>3d</fix>
</trkpt>
<trkpt lat="33.8101527" lon="-118.3940481">
  <ele>-0.1</ele>
  <time>2026-09-01T01:12:59Z</time>
  <course>223.26</course>
  <speed>0.73</speed>
  <fix>3d</fix>
</trkpt>
<trkpt lat="33.8101518" lon="-118.3940496">
  <ele>-0.114</ele>
  <time>2026-09-01T01:12:59Z</time>
  <course>186.27</course>
  <speed>0.7213875518748573</speed>
  <fix>3d</fix>
</trkpt>
<trkpt lat="33.8101527" lon="-118.3940481">
  <ele>-0.1</ele>
  <time>2026-09-01T01:12:59Z</time>
  <course>223.26</course>
  <speed>0.73</speed>
  <fix>3d</fix>
</trkpt>
<trkpt lat="33.8101513" lon="-118.3940501">
  <ele>-0.114</ele>
  <time>2026-09-01T01:12:59Z</time>
  <course>186.27</course>
  <speed>0.7213875518748573</speed>
  <fix>3d</fix>
</trkpt>
<trkpt lat="33.8101517" lon="-118.3940492">
  <ele>-0.1</ele>
  <time>2026-09-01T01:12:59Z</time>
  <course>223.26</course>
  <speed>0.73</speed>
  <fix>3d</fix>
</trkpt>
<trkpt lat="33.8101508" lon="-118.3940507">
  <ele>-0.113</ele>
  <time>2026-09-01T01:12:59Z</time>
  <course>186.27</course>
  <speed>0.7213875518748573</speed>
  <fix>3d</fix>
</trkpt>
<trkpt lat="33.8101517" lon="-118.3940492">
  <ele>-0.1</ele>
  <time>2026-09-01T01:12:59Z</time>
  <course>223.26</course>
  <speed>0.73</speed>
  <fix>3d</fix>
</trkpt>
<trkpt lat="33.8101504" lon="-118.3940512">
  <ele>-0.113</ele>
  <time>2026-09-01T01:12:59Z</time>
  <course>186.27</course>
  <speed>0.7213875518748573</speed>
  <fix>3d</fix>
</trkpt>
<trkpt lat="33.8101508" lon="-118.3940503">
  <ele>-0.1</ele>
  <time>2026-09-01T01:12:59Z</time>
  <course>223.26</course>
  <speed>0.73</speed>
  <fix>3d</fix>
</trkpt>
<trkpt lat="33.8101499" lon="-118.3940518">
  <ele>-0.113</ele>
  <time>2026-09-01T01:12:59Z</time>
  <course>186.27</course>
  <speed>0.7213875518748573</speed>
  <fix>3d</fix>
</trkpt>
<trkpt lat="33.8101508" lon="-118.3940503">
  <ele>-0.1</ele>
  <time>2026-09-01T01:12:59Z</time>
  <course>223.26</course>
  <speed>0.73</speed>
  <fix>3d</fix>
</trkpt>
<trkpt lat="33.8101494" lon="-118.3940523">
  <ele>-0.113</ele>
  <time>2026-09-01T01:12:59Z</time>
  <course>186.27</course>
  <speed>0.7213875518748573</speed>
  <fix>3d</fix>
</trkpt>
<trkpt lat="33.8101498" lon="-118.3940514">
  <ele>-0.1</ele>
  <time>2026-09-01T01:12:59Z</time>
  <course>223.26</course>
  <speed>0.73</speed>
  <fix>3d</fix>
</trkpt>
<trkpt lat="33.8101489" lon="-118.3940529">
  <ele>-0.113</ele>
  <time>2026-09-01T01:13:00Z</time>
  <course>186.27</course>
  <speed>0.7213875518748573</speed>
  <fix>3d</fix>
</trkpt>
<trkpt lat="33.8101498" lon="-118.3940514">
  <ele>-0.1</ele>
  <time>2026-09-01T01:13:00Z</time>
  <course>223.26</course>
  <speed>0.73</speed>
  <fix>3d</fix>
</trkpt>
<trkpt lat="33.8101484" lon="-118.3940534">
  <ele>-0.112</ele>
  <time>2026-09-01T01:13:00Z</time>
  <course>186.27</course>
  <speed>0.7213875518748573</speed>
  <fix>3d</fix>
</trkpt>
<trkpt lat="33.8101489" lon="-118.3940525">
  <ele>-0.11</ele>
  <time>2026-09-01T01:13:00Z</time>
  <course>223.26</course>
  <speed>0.73</speed>
  <fix>3d</fix>
</trkpt>
<trkpt lat="33.8101479" lon="-118.394054">
  <ele>-0.11</ele>
  <time>2026-09-01T01:13:00Z</time>
  <course>186.27</course>
  <speed>0.7213875518748573</speed>
  <fix>3d</fix>
</trkpt>
<trkpt lat="33.8101489" lon="-118.3940525">
  <ele>-0.11</ele>
  <time>2026-09-01T01:13:00Z</time>
  <course>223.26</course>
  <speed>0.73</speed>
  <fix>3d</fix>
</trkpt>
<trkpt lat="33.8101475" lon="-118.3940545">
  <ele>-0.11</ele>
  <time>2026-09-01T01:13:00Z</time>
  <course>186.27</course>
  <speed>0.7213875518748573</speed>
  <fix>3d</fix>
</trkpt>
<trkpt lat="33.8101478" lon="-118.3940536">
  <ele>-0.1</ele>
  <time>2026-09-01T01:13:00Z</time>
  <course>223.26</course>
  <speed>0.73</speed>
  <fix>3d</fix>
</trkpt>
<trkpt lat="33.810147" lon="-118.3940551">
  <ele>-0.11</ele>
  <time>2026-09-01T01:13:00Z</time>
  <course>186.27</course>
  <speed>0.7283543093852057</speed>
  <fix>3d</fix>
</trkpt>
<trkpt lat="33.8101478" lon="-118.3940536">
  <ele>-0.1</ele>
  <time>2026-09-01T01:13:00Z</time>
  <course>223.26</course>
  <speed>0.73</speed>
  <fix>3d</fix>
</trkpt>
<trkpt lat="33.8101465" lon="-118.3940556">
  <ele>-0.11</ele>
  <time>2026-09-01T01:13:00Z</time>
  <course>186.27</course>
  <speed>0.7283543093852057</speed>
  <fix>3d</fix>
</trkpt>
<trkpt lat="33.8101469" lon="-118.3940547">
  <ele>-0.1</ele>
  <time>2026-09-01T01:13:00Z</time>
  <course>223.26</course>
  <speed>0.73</speed>
  <fix>3d</fix>
</trkpt>
<trkpt lat="33.810146" lon="-118.3940562">
  <ele>-0.111</ele>
  <time>2026-09-01T01:13:00Z</time>
  <course>186.27</course>
  <speed>0.7283543093852057</speed>
  <fix>3d</fix>
</trkpt>
<trkpt lat="33.8101469" lon="-118.3940547">
  <ele>-0.1</ele>
  <time>2026-09-01T01:13:00Z</time>
  <course>223.26</course>
  <speed>0.73</speed>
  <fix>3d</fix>
</trkpt>
<trkpt lat="33.8101455" lon="-118.3940567">
  <ele>-0.112</ele>
  <time>2026-09-01T01:13:00Z</time>
  <course>186.27</course>
  <speed>0.7283543093852057</speed>
  <fix>3d</fix>
</trkpt>
<trkpt lat="33.810146" lon="-118.3940558">
  <ele>-0.1</ele>
  <time>2026-09-01T01:13:00Z</time>
  <course>223.26</course>
  <speed>0.73</speed>
  <fix>3d</fix>
</trkpt>
<trkpt lat="33.810145" lon="-118.3940572">
  <ele>-0.112</ele>
  <time>2026-09-01T01:13:00Z</time>
  <course>186.27</course>
  <speed>0.7283543093852057</speed>
  <fix>3d</fix>
</trkpt>
<trkpt lat="33.810146" lon="-118.3940558">
  <ele>-0.1</ele>
  <time>2026-09-01T01:13:00Z</time>
  <course>223.26</course>
  <speed>0.73</speed>
  <fix>3d</fix>
</trkpt>
<trkpt lat="33.8101446" lon="-118.3940578">
  <ele>-0.111</ele>
  <time>2026-09-01T01:13:00Z</time>
  <course>186.27</course>
  <speed>0.7283543093852057</speed>
  <fix>3d</fix>
</trkpt>
<trkpt lat="33.810145" lon="-118.3940569">
  <ele>-0.1</ele>
  <time>2026-09-01T01:13:00Z</time>
  <course>223.26</course>
  <speed>0.73</speed>
  <fix>3d</fix>
</trkpt>
<trkpt lat="33.8101441" lon="-118.3940583">
  <ele>-0.111</ele>
  <time>2026-09-01T01:13:00Z</time>
  <course>186.27</course>
  <speed>0.7283543093852057</speed>
  <fix>3d</fix>
</trkpt>
<trkpt lat="33.810145" lon="-118.3940569">
  <ele>-0.1</ele>
  <time>2026-09-01T01:13:00Z</time>
  <course>223.26</course>
  <speed>0.73</speed>
  <fix>3d</fix>
</trkpt>
<trkpt lat="33.8101436" lon="-118.3940589">
  <ele>-0.111</ele>
  <time>2026-09-01T01:13:00Z</time>
  <course>186.27</course>
  <speed>0.7283543093852057</speed>
  <fix>3d</fix>
</trkpt>
<trkpt lat="33.8101441" lon="-118.3940579">
  <ele>-0.11</ele>
  <time>2026-09-01T01:13:00Z</time>
  <course>223.26</course>
  <speed>0.73</speed>
  <fix>3d</fix>
</trkpt>
<trkpt lat="33.8101431" lon="-118.3940594">
  <ele>-0.11</ele>
  <time>2026-09-01T01:13:00Z</time>
  <course>186.27</course>
  <speed>0.7283543093852057</speed>
  <fix>3d</fix>
</trkpt>
<trkpt lat="33.8101441" lon="-118.3940579">
  <ele>-0.11</ele>
  <time>2026-09-01T01:13:00Z</time>
  <course>223.26</course>
  <speed>0.73</speed>
  <fix>3d</fix>
</trkpt>
<trkpt lat="33.8101426" lon="-118.39406">
  <ele>-0.111</ele>
  <time>2026-09-01T01:13:00Z</time>
  <course>186.26</course>
  <speed>0.7283543093852057</speed>
  <fix>3d</fix>
</trkpt>
<trkpt lat="33.8101431" lon="-118.394059">
  <ele>-0.1</ele>
  <time>2026-09-01T01:13:00Z</time>
  <course>223.26</course>
  <speed>0.73</speed>
  <fix>3d</fix>
</trkpt>
<trkpt lat="33.8101422" lon="-118.3940605">
  <ele>-0.111</ele>
  <time>2026-09-01T01:13:00Z</time>
  <course>186.26</course>
  <speed>0.7283543093852057</speed>
  <fix>3d</fix>
</trkpt>
<trkpt lat="33.8101431" lon="-118.394059">
  <ele>-0.1</ele>
  <time>2026-09-01T01:13:00Z</time>
  <course>223.26</course>
  <speed>0.73</speed>
  <fix>3d</fix>
</trkpt>
<trkpt lat="33.8101417" lon="-118.3940611">
  <ele>-0.111</ele>
  <time>2026-09-01T01:13:00Z</time>
  <course>186.26</course>
  <speed>0.7283543093852057</speed>
  <fix>3d</fix>
</trkpt>
<trkpt lat="33.8101421" lon="-118.3940601">
  <ele>-0.1</ele>
  <time>2026-09-01T01:13:00Z</time>
  <course>223.26</course>
  <speed>0.73</speed>
  <fix>3d</fix>
</trkpt>
<trkpt lat="33.8101412" lon="-118.3940616">
  <ele>-0.112</ele>
  <time>2026-09-01T01:13:00Z</time>
  <course>186.26</course>
  <speed>0.7283543093852057</speed>
  <fix>3d</fix>
</trkpt>
<trkpt lat="33.8101421" lon="-118.3940601">
  <ele>-0.1</ele>
  <time>2026-09-01T01:13:00Z</time>
  <course>223.26</course>
  <speed>0.73</speed>
  <fix>3d</fix>
</trkpt>
<trkpt lat="33.8101407" lon="-118.3940622">
  <ele>-0.112</ele>
  <time>2026-09-01T01:13:00Z</time>
  <course>186.26</course>
  <speed>0.7283543093852057</speed>
  <fix>3d</fix>
</trkpt>
<trkpt lat="33.8101411" lon="-118.3940612">
  <ele>-0.1</ele>
  <time>2026-09-01T01:13:00Z</time>
  <course>223.26</course>
  <speed>0.73</speed>
  <fix>3d</fix>
</trkpt>
<trkpt lat="33.8101402" lon="-118.3940627">
  <ele>-0.112</ele>
  <time>2026-09-01T01:13:00Z</time>
  <course>186.26</course>
  <speed>0.7283543093852057</speed>
  <fix>3d</fix>
</trkpt>
<trkpt lat="33.8101411" lon="-118.3940612">
  <ele>-0.1</ele>
  <time>2026-09-01T01:13:00Z</time>
  <course>223.26</course>
  <speed>0.73</speed>
  <fix>3d</fix>
</trkpt>
<trkpt lat="33.8101398" lon="-118.3940632">
  <ele>-0.111</ele>
  <time>2026-09-01T01:13:00Z</time>
  <course>186.26</course>
  <speed>0.7283543093852057</speed>
  <fix>3d</fix>
</trkpt>
<trkpt lat="33.8101402" lon="-118.3940623">
  <ele>-0.1</ele>
  <time>2026-09-01T01:13:00Z</time>
  <course>223.26</course>
  <speed>0.73</speed>
  <fix>3d</fix>
</trkpt>
<trkpt lat="33.8101393" lon="-118.3940638">
  <ele>-0.11</ele>
  <time>2026-09-01T01:13:00Z</time>
  <course>186.26</course>
  <speed>0.7283543093852057</speed>
  <fix>3d</fix>
</trkpt>
<trkpt lat="33.8101402" lon="-118.3940623">
  <ele>-0.1</ele>
  <time>2026-09-01T01:13:00Z</time>
  <course>223.26</course>
  <speed>0.73</speed>
  <fix>3d</fix>
</trkpt>
<trkpt lat="33.8101388" lon="-118.3940643">
  <ele>-0.109</ele>
  <time>2026-09-01T01:13:00Z</time>
  <course>186.26</course>
  <speed>0.7283543093852057</speed>
  <fix>3d</fix>
</trkpt>
<trkpt lat="33.8101392" lon="-118.3940634">
  <ele>-0.11</ele>
  <time>2026-09-01T01:13:00Z</time>
  <course>223.26</course>
  <speed>0.73</speed>
  <fix>3d</fix>
</trkpt>
<trkpt lat="33.8101383" lon="-118.3940649">
  <ele>-0.108</ele>
  <time>2026-09-01T01:13:00Z</time>
  <course>186.26</course>
  <speed>0.7283543093852057</speed>
  <fix>3d</fix>
</trkpt>
<trkpt lat="33.8101392" lon="-118.3940634">
  <ele>-0.11</ele>
  <time>2026-09-01T01:13:00Z</time>
  <course>223.26</course>
  <speed>0.73</speed>
  <fix>3d</fix>
</trkpt>
<trkpt lat="33.8101378" lon="-118.3940654">
  <ele>-0.107</ele>
  <time>2026-09-01T01:13:00Z</time>
  <course>186.26</course>
  <speed>0.7283543093852057</speed>
  <fix>3d</fix>
</trkpt>
<trkpt lat="33.8101383" lon="-118.3940645">
  <ele>-0.1</ele>
  <time>2026-09-01T01:13:00Z</time>
  <course>223.26</course>
  <speed>0.73</speed>
  <fix>3d</fix>
</trkpt>
<trkpt lat="33.8101373" lon="-118.394066">
  <ele>-0.105</ele>
  <time>2026-09-01T01:13:00Z</time>
  <course>186.26</course>
  <speed>0.7283543093852057</speed>
  <fix>3d</fix>
</trkpt>
<trkpt lat="33.8101383" lon="-118.3940645">
  <ele>-0.1</ele>
  <time>2026-09-01T01:13:00Z</time>
  <course>223.26</course>
  <speed>0.73</speed>
  <fix>3d</fix>
</trkpt>
<trkpt lat="33.8101368" lon="-118.3940665">
  <ele>-0.104</ele>
  <time>2026-09-01T01:13:00Z</time>
  <course>186.26</course>
  <speed>0.7283543093852057</speed>
  <fix>3d</fix>
</trkpt>
<trkpt lat="33.8101373" lon="-118.3940656">
  <ele>-0.1</ele>
  <time>2026-09-01T01:13:00Z</time>
  <course>223.26</course>
  <speed>0.73</speed>
  <fix>3d</fix>
</trkpt>
<trkpt lat="33.8101364" lon="-118.3940671">
  <ele>-0.102</ele>
  <time>2026-09-01T01:13:00Z</time>
  <course>186.26</course>
  <speed>0.7283543093852057</speed>
  <fix>3d</fix>
</trkpt>
<trkpt lat="33.8101373" lon="-118.3940656">
  <ele>-0.1</ele>
  <time>2026-09-01T01:13:00Z</time>
  <course>223.26</course>
  <speed>0.73</speed>
  <fix>3d</fix>
</trkpt>
<trkpt lat="33.8101359" lon="-118.3940676">
  <ele>-0.101</ele>
  <time>2026-09-01T01:13:00Z</time>
  <course>186.26</course>
  <speed>0.7283543093852057</speed>
  <fix>3d</fix>
</trkpt>
<trkpt lat="33.8101364" lon="-118.3940667">
  <ele>-0.1</ele>
  <time>2026-09-01T01:13:00Z</time>
  <course>223.26</course>
  <speed>0.73</speed>
  <fix>3d</fix>
</trkpt>
<trkpt lat="33.8101354" lon="-118.3940682">
  <ele>-0.1</ele>
  <time>2026-09-01T01:13:00Z</time>
  <course>186.26</course>
  <speed>0.7283543093852057</speed>
  <fix>3d</fix>
</trkpt>
<trkpt lat="33.8101364" lon="-118.3940667">
  <ele>-0.1</ele>
  <time>2026-09-01T01:13:00Z</time>
  <course>223.26</course>
  <speed>0.73</speed>
  <fix>3d</fix>
</trkpt>
<trkpt lat="33.8101349" lon="-118.3940687">
  <ele>-0.099</ele>
  <time>2026-09-01T01:13:00Z</time>
  <course>186.26</course>
  <speed>0.7283543093852057</speed>
  <fix>3d</fix>
</trkpt>
<trkpt lat="33.8101354" lon="-118.3940677">
  <ele>-0.1</ele>
  <time>2026-09-01T01:13:00Z</time>
  <course>223.26</course>
  <speed>0.73</speed>
  <fix>3d</fix>
</trkpt>
<trkpt lat="33.8101344" lon="-118.3940693">
  <ele>-0.098</ele>
  <time>2026-09-01T01:13:00Z</time>
  <course>186.26</course>
  <speed>0.7283543093852057</speed>
  <fix>3d</fix>
</trkpt>
<trkpt lat="33.8101354" lon="-118.3940677">
  <ele>-0.1</ele>
  <time>2026-09-01T01:13:00Z</time>
  <course>223.26</course>
  <speed>0.73</speed>
  <fix>3d</fix>
</trkpt>
<trkpt lat="33.810134" lon="-118.3940698">
  <ele>-0.097</ele>
  <time>2026-09-01T01:13:00Z</time>
  <course>186.26</course>
  <speed>0.7283543093852057</speed>
  <fix>3d</fix>
</trkpt>
<trkpt lat="33.8101344" lon="-118.3940688">
  <ele>-0.11</ele>
  <time>2026-09-01T01:13:00Z</time>
  <course>223.26</course>
  <speed>0.73</speed>
  <fix>3d</fix>
</trkpt>
<trkpt lat="33.8101335" lon="-118.3940703">
  <ele>-0.096</ele>
  <time>2026-09-01T01:13:00Z</time>
  <course>186.26</course>
  <speed>0.7283543093852057</speed>
  <fix>3d</fix>
</trkpt>
<trkpt lat="33.8101344" lon="-118.3940688">
  <ele>-0.11</ele>
  <time>2026-09-01T01:13:00Z</time>
  <course>223.26</course>
  <speed>0.73</speed>
  <fix>3d</fix>
</trkpt>
<trkpt lat="33.810133" lon="-118.3940709">
  <ele>-0.096</ele>
  <time>2026-09-01T01:13:00Z</time>
  <course>186.26</course>
  <speed>0.7283543093852057</speed>
  <fix>3d</fix>
</trkpt>
<trkpt lat="33.8101335" lon="-118.3940699">
  <ele>-0.1</ele>
  <time>2026-09-01T01:13:00Z</time>
  <course>223.26</course>
  <speed>0.73</speed>
  <fix>3d</fix>
</trkpt>
<trkpt lat="33.8101325" lon="-118.3940714">
  <ele>-0.095</ele>
  <time>2026-09-01T01:13:00Z</time>
  <course>186.26</course>
  <speed>0.7283543093852057</speed>
  <fix>3d</fix>
</trkpt>
<trkpt lat="33.8101335" lon="-118.3940699">
  <ele>-0.1</ele>
  <time>2026-09-01T01:13:00Z</time>
  <course>223.26</course>
  <speed>0.73</speed>
  <fix>3d</fix>
</trkpt>
<trkpt lat="33.810132" lon="-118.394072">
  <ele>-0.096</ele>
  <time>2026-09-01T01:13:00Z</time>
  <course>186.26</course>
  <speed>0.7283543093852057</speed>
  <fix>3d</fix>
</trkpt>
<trkpt lat="33.8101324" lon="-118.394071">
  <ele>-0.1</ele>
  <time>2026-09-01T01:13:00Z</time>
  <course>223.26</course>
  <speed>0.73</speed>
  <fix>3d</fix>
</trkpt>
<trkpt lat="33.8101316" lon="-118.3940725">
  <ele>-0.098</ele>
  <time>2026-09-01T01:13:00Z</time>
  <course>186.26</course>
  <speed>0.7283543093852057</speed>
  <fix>3d</fix>
</trkpt>
<trkpt lat="33.8101324" lon="-118.394071">
  <ele>-0.1</ele>
  <time>2026-09-01T01:13:00Z</time>
  <course>223.26</course>
  <speed>0.73</speed>
  <fix>3d</fix>
</trkpt>
<trkpt lat="33.8101311" lon="-118.3940731">
  <ele>-0.1</ele>
  <time>2026-09-01T01:13:00Z</time>
  <course>186.26</course>
  <speed>0.7283543093852057</speed>
  <fix>3d</fix>
</trkpt>
<trkpt lat="33.8101315" lon="-118.3940721">
  <ele>-0.1</ele>
  <time>2026-09-01T01:13:00Z</time>
  <course>223.26</course>
  <speed>0.73</speed>
  <fix>3d</fix>
</trkpt>
<trkpt lat="33.8101306" lon="-118.3940736">
  <ele>-0.102</ele>
  <time>2026-09-01T01:13:00Z</time>
  <course>186.26</course>
  <speed>0.7283543093852057</speed>
  <fix>3d</fix>
</trkpt>
<trkpt lat="33.8101315" lon="-118.3940721">
  <ele>-0.1</ele>
  <time>2026-09-01T01:13:00Z</time>
  <course>223.26</course>
  <speed>0.73</speed>
  <fix>3d</fix>
</trkpt>
<trkpt lat="33.8101301" lon="-118.3940741">
  <ele>-0.103</ele>
  <time>2026-09-01T01:13:00Z</time>
  <course>186.25</course>
  <speed>0.7283543093852057</speed>
  <fix>3d</fix>
</trkpt>
<trkpt lat="33.8101305" lon="-118.3940732">
  <ele>-0.1</ele>
  <time>2026-09-01T01:13:00Z</time>
  <course>223.26</course>
  <speed>0.73</speed>
  <fix>3d</fix>
</trkpt>
<trkpt lat="33.8101296" lon="-118.3940747">
  <ele>-0.103</ele>
  <time>2026-09-01T01:13:00Z</time>
  <course>186.25</course>
  <speed>0.7283543093852057</speed>
  <fix>3d</fix>
</trkpt>
<trkpt lat="33.8101305" lon="-118.3940732">
  <ele>-0.1</ele>
  <time>2026-09-01T01:13:00Z</time>
  <course>223.26</course>
  <speed>0.73</speed>
  <fix>3d</fix>
</trkpt>
<trkpt lat="33.8101291" lon="-118.3940752">
  <ele>-0.104</ele>
  <time>2026-09-01T01:13:00Z</time>
  <course>186.25</course>
  <speed>0.7283543093852057</speed>
  <fix>3d</fix>
</trkpt>
<trkpt lat="33.8101296" lon="-118.3940743">
  <ele>-0.11</ele>
  <time>2026-09-01T01:13:00Z</time>
  <course>223.26</course>
  <speed>0.73</speed>
  <fix>3d</fix>
</trkpt>
<trkpt lat="33.8101286" lon="-118.3940758">
  <ele>-0.104</ele>
  <time>2026-09-01T01:13:00Z</time>
  <course>186.25</course>
  <speed>0.7283543093852057</speed>
  <fix>3d</fix>
</trkpt>
<trkpt lat="33.8101296" lon="-118.3940743">
  <ele>-0.11</ele>
  <time>2026-09-01T01:13:00Z</time>
  <course>223.26</course>
  <speed>0.73</speed>
  <fix>3d</fix>
</trkpt>
<trkpt lat="33.8101282" lon="-118.3940763">
  <ele>-0.106</ele>
  <time>2026-09-01T01:13:00Z</time>
  <course>186.25</course>
  <speed>0.7283543093852057</speed>
  <fix>3d</fix>
</trkpt>
<trkpt lat="33.8101287" lon="-118.3940754">
  <ele>-0.1</ele>
  <time>2026-09-01T01:13:00Z</time>
  <course>223.26</course>
  <speed>0.73</speed>
  <fix>3d</fix>
</trkpt>
<trkpt lat="33.8101277" lon="-118.3940769">
  <ele>-0.107</ele>
  <time>2026-09-01T01:13:00Z</time>
  <course>186.25</course>
  <speed>0.7283543093852057</speed>
  <fix>3d</fix>
</trkpt>
<trkpt lat="33.8101287" lon="-118.3940754">
  <ele>-0.1</ele>
  <time>2026-09-01T01:13:00Z</time>
  <course>223.26</course>
  <speed>0.73</speed>
  <fix>3d</fix>
</trkpt>
<trkpt lat="33.8101272" lon="-118.3940774">
  <ele>-0.108</ele>
  <time>2026-09-01T01:13:00Z</time>
  <course>186.25</course>
  <speed>0.7283543093852057</speed>
  <fix>3d</fix>
</trkpt>
<trkpt lat="33.8101276" lon="-118.3940765">
  <ele>-0.1</ele>
  <time>2026-09-01T01:13:00Z</time>
  <course>223.26</course>
  <speed>0.73</speed>
  <fix>3d</fix>
</trkpt>
<trkpt lat="33.8101267" lon="-118.394078">
  <ele>-0.109</ele>
  <time>2026-09-01T01:13:00Z</time>
  <course>186.25</course>
  <speed>0.7283543093852057</speed>
  <fix>3d</fix>
</trkpt>
<trkpt lat="33.8101276" lon="-118.3940765">
  <ele>-0.1</ele>
  <time>2026-09-01T01:13:00Z</time>
  <course>223.26</course>
  <speed>0.73</speed>
  <fix>3d</fix>
</trkpt>
<trkpt lat="33.8101262" lon="-118.3940785">
  <ele>-0.109</ele>
  <time>2026-09-01T01:13:00Z</time>
  <course>186.25</course>
  <speed>0.7283543093852057</speed>
  <fix>3d</fix>
</trkpt>
<trkpt lat="33.8101267" lon="-118.3940776">
  <ele>-0.1</ele>
  <time>2026-09-01T01:13:00Z</time>
  <course>223.26</course>
  <speed>0.73</speed>
  <fix>3d</fix>
</trkpt>
<trkpt lat="33.8101258" lon="-118.3940791">
  <ele>-0.109</ele>
  <time>2026-09-01T01:13:00Z</time>
  <course>186.25</course>
  <speed>0.7283543093852057</speed>
  <fix>3d</fix>
</trkpt>
<trkpt lat="33.8101267" lon="-118.3940776">
  <ele>-0.1</ele>
  <time>2026-09-01T01:13:00Z</time>
  <course>223.26</course>
  <speed>0.73</speed>
  <fix>3d</fix>
</trkpt>
<trkpt lat="33.8101253" lon="-118.3940796">
  <ele>-0.109</ele>
  <time>2026-09-01T01:13:00Z</time>
  <course>186.25</course>
  <speed>0.7283543093852057</speed>
  <fix>3d</fix>
</trkpt>
<trkpt lat="33.8101257" lon="-118.3940786">
  <ele>-0.1</ele>
  <time>2026-09-01T01:13:00Z</time>
  <course>223.26</course>
  <speed>0.73</speed>
  <fix>3d</fix>
</trkpt>
<trkpt lat="33.8101248" lon="-118.3940802">
  <ele>-0.109</ele>
  <time>2026-09-01T01:13:00Z</time>
  <course>186.25</course>
  <speed>0.7283543093852057</speed>
  <fix>3d</fix>
</trkpt>
<trkpt lat="33.8101257" lon="-118.3940786">
  <ele>-0.1</ele>
  <time>2026-09-01T01:13:00Z</time>
  <course>223.26</course>
  <speed>0.73</speed>
  <fix>3d</fix>
</trkpt>
<trkpt lat="33.8101243" lon="-118.3940807">
  <ele>-0.109</ele>
  <time>2026-09-01T01:13:00Z</time>
  <course>186.25</course>
  <speed>0.7283543093852057</speed>
  <fix>3d</fix>
</trkpt>
<trkpt lat="33.8101248" lon="-118.3940797">
  <ele>-0.11</ele>
  <time>2026-09-01T01:13:00Z</time>
  <course>223.26</course>
  <speed>0.73</speed>
  <fix>3d</fix>
</trkpt>
<trkpt lat="33.8101238" lon="-118.3940813">
  <ele>-0.108</ele>
  <time>2026-09-01T01:13:00Z</time>
  <course>186.25</course>
  <speed>0.7283543093852057</speed>
  <fix>3d</fix>
</trkpt>
<trkpt lat="33.8101248" lon="-118.3940797">
  <ele>-0.11</ele>
  <time>2026-09-01T01:13:00Z</time>
  <course>223.26</course>
  <speed>0.73</speed>
  <fix>3d</fix>
</trkpt>
<trkpt lat="33.8101233" lon="-118.3940818">
  <ele>-0.108</ele>
  <time>2026-09-01T01:13:00Z</time>
  <course>186.25</course>
  <speed>0.7283543093852057</speed>
  <fix>3d</fix>
</trkpt>
<trkpt lat="33.8101239" lon="-118.3940808">
  <ele>-0.1</ele>
  <time>2026-09-01T01:13:00Z</time>
  <course>223.26</course>
  <speed>0.73</speed>
  <fix>3d</fix>
</trkpt>
<trkpt lat="33.8101229" lon="-118.3940823">
  <ele>-0.108</ele>
  <time>2026-09-01T01:13:00Z</time>
  <course>186.25</course>
  <speed>0.7283543093852057</speed>
  <fix>3d</fix>
</trkpt>
<trkpt lat="33.8101239" lon="-118.3940808">
  <ele>-0.1</ele>
  <time>2026-09-01T01:13:00Z</time>
  <course>223.26</course>
  <speed>0.73</speed>
  <fix>3d</fix>
</trkpt>
<trkpt lat="33.8101224" lon="-118.3940829">
  <ele>-0.108</ele>
  <time>2026-09-01T01:13:00Z</time>
  <course>186.25</course>
  <speed>0.7283543093852057</speed>
  <fix>3d</fix>
</trkpt>
<trkpt lat="33.8101228" lon="-118.3940819">
  <ele>-0.1</ele>
  <time>2026-09-01T01:13:00Z</time>
  <course>223.26</course>
  <speed>0.73</speed>
  <fix>3d</fix>
</trkpt>
<trkpt lat="33.8101219" lon="-118.3940834">
  <ele>-0.108</ele>
  <time>2026-09-01T01:13:00Z</time>
  <course>186.25</course>
  <speed>0.7283543093852057</speed>
  <fix>3d</fix>
</trkpt>
<trkpt lat="33.8101228" lon="-118.3940819">
  <ele>-0.1</ele>
  <time>2026-09-01T01:13:00Z</time>
  <course>223.26</course>
  <speed>0.73</speed>
  <fix>3d</fix>
</trkpt>
<trkpt lat="33.8101214" lon="-118.394084">
  <ele>-0.108</ele>
  <time>2026-09-01T01:13:00Z</time>
  <course>186.25</course>
  <speed>0.7283543093852057</speed>
  <fix>3d</fix>
</trkpt>
<trkpt lat="33.8101219" lon="-118.394083">
  <ele>-0.1</ele>
  <time>2026-09-01T01:13:00Z</time>
  <course>223.26</course>
  <speed>0.73</speed>
  <fix>3d</fix>
</trkpt>
<trkpt lat="33.8101209" lon="-118.3940845">
  <ele>-0.109</ele>
  <time>2026-09-01T01:13:00Z</time>
  <course>186.25</course>
  <speed>0.7283543093852057</speed>
  <fix>3d</fix>
</trkpt>
<trkpt lat="33.8101219" lon="-118.394083">
  <ele>-0.1</ele>
  <time>2026-09-01T01:13:00Z</time>
  <course>223.26</course>
  <speed>0.73</speed>
  <fix>3d</fix>
</trkpt>
<trkpt lat="33.8101204" lon="-118.3940851">
  <ele>-0.11</ele>
  <time>2026-09-01T01:13:00Z</time>
  <course>186.25</course>
  <speed>0.7283543093852057</speed>
  <fix>3d</fix>
</trkpt>
<trkpt lat="33.8101209" lon="-118.3940841">
  <ele>-0.1</ele>
  <time>2026-09-01T01:13:00Z</time>
  <course>223.26</course>
  <speed>0.73</speed>
  <fix>3d</fix>
</trkpt>
<trkpt lat="33.81012" lon="-118.3940856">
  <ele>-0.111</ele>
  <time>2026-09-01T01:13:00Z</time>
  <course>186.25</course>
  <speed>0.7283543093852057</speed>
  <fix>3d</fix>
</trkpt>
<trkpt lat="33.8101209" lon="-118.3940841">
  <ele>-0.1</ele>
  <time>2026-09-01T01:13:00Z</time>
  <course>223.26</course>
  <speed>0.73</speed>
  <fix>3d</fix>
</trkpt>
<trkpt lat="33.8101195" lon="-118.3940862">
  <ele>-0.111</ele>
  <time>2026-09-01T01:13:00Z</time>
  <course>186.25</course>
  <speed>0.7283543093852057</speed>
  <fix>3d</fix>
</trkpt>
<trkpt lat="33.81012" lon="-118.3940852">
  <ele>-0.11</ele>
  <time>2026-09-01T01:13:00Z</time>
  <course>223.26</course>
  <speed>0.73</speed>
  <fix>3d</fix>
</trkpt>
<trkpt lat="33.810119" lon="-118.3940867">
  <ele>-0.112</ele>
  <time>2026-09-01T01:13:00Z</time>
  <course>186.25</course>
  <speed>0.7283543093852057</speed>
  <fix>3d</fix>
</trkpt>
<trkpt lat="33.81012" lon="-118.3940852">
  <ele>-0.11</ele>
  <time>2026-09-01T01:13:00Z</time>
  <course>223.26</course>
  <speed>0.73</speed>
  <fix>3d</fix>
</trkpt>
<trkpt lat="33.8101185" lon="-118.3940873">
  <ele>-0.112</ele>
  <time>2026-09-01T01:13:00Z</time>
  <course>186.25</course>
  <speed>0.7283543093852057</speed>
  <fix>3d</fix>
</trkpt>
<trkpt lat="33.810119" lon="-118.3940863">
  <ele>-0.1</ele>
  <time>2026-09-01T01:13:00Z</time>
  <course>223.26</course>
  <speed>0.73</speed>
  <fix>3d</fix>
</trkpt>
<trkpt lat="33.810118" lon="-118.3940878">
  <ele>-0.113</ele>
  <time>2026-09-01T01:13:00Z</time>
  <course>186.25</course>
  <speed>0.7283543093852057</speed>
  <fix>3d</fix>
</trkpt>
<trkpt lat="33.810119" lon="-118.3940863">
  <ele>-0.1</ele>
  <time>2026-09-01T01:13:00Z</time>
  <course>223.26</course>
  <speed>0.73</speed>
  <fix>3d</fix>
</trkpt>
<trkpt lat="33.8101176" lon="-118.3940883">
  <ele>-0.113</ele>
  <time>2026-09-01T01:13:00Z</time>
  <course>186.25</course>
  <speed>0.7283543093852057</speed>
  <fix>3d</fix>
</trkpt>
<trkpt lat="33.810118" lon="-118.3940874">
  <ele>-0.1</ele>
  <time>2026-09-01T01:13:00Z</time>
  <course>223.26</course>
  <speed>0.73</speed>
  <fix>3d</fix>
</trkpt>
<trkpt lat="33.8101171" lon="-118.3940889">
  <ele>-0.113</ele>
  <time>2026-09-01T01:13:00Z</time>
  <course>186.25</course>
  <speed>0.7283543093852057</speed>
  <fix>3d</fix>
</trkpt>
<trkpt lat="33.810118" lon="-118.3940874">
  <ele>-0.1</ele>
  <time>2026-09-01T01:13:00Z</time>
  <course>223.26</course>
  <speed>0.73</speed>
  <fix>3d</fix>
</trkpt>
<trkpt lat="33.8101166" lon="-118.3940894">
  <ele>-0.113</ele>
  <time>2026-09-01T01:13:00Z</time>
  <course>186.25</course>
  <speed>0.7283543093852057</speed>
  <fix>3d</fix>
</trkpt>
<trkpt lat="33.8101171" lon="-118.3940884">
  <ele>-0.1</ele>
  <time>2026-09-01T01:13:00Z</time>
  <course>223.26</course>
  <speed>0.73</speed>
  <fix>3d</fix>
</trkpt>
<trkpt lat="33.8101161" lon="-118.39409">
  <ele>-0.113</ele>
  <time>2026-09-01T01:13:00Z</time>
  <course>186.25</course>
  <speed>0.7283543093852057</speed>
  <fix>3d</fix>
</trkpt>
<trkpt lat="33.8101171" lon="-118.3940884">
  <ele>-0.1</ele>
  <time>2026-09-01T01:13:00Z</time>
  <course>223.26</course>
  <speed>0.73</speed>
  <fix>3d</fix>
</trkpt>
<trkpt lat="33.8101156" lon="-118.3940905">
  <ele>-0.113</ele>
  <time>2026-09-01T01:13:00Z</time>
  <course>186.25</course>
  <speed>0.7283543093852057</speed>
  <fix>3d</fix>
</trkpt>
<trkpt lat="33.8101161" lon="-118.3940895">
  <ele>-0.1</ele>
  <time>2026-09-01T01:13:00Z</time>
  <course>223.26</course>
  <speed>0.73</speed>
  <fix>3d</fix>
</trkpt>
<trkpt lat="33.8101151" lon="-118.3940911">
  <ele>-0.113</ele>
  <time>2026-09-01T01:13:00Z</time>
  <course>186.25</course>
  <speed>0.7283543093852057</speed>
  <fix>3d</fix>
</trkpt>
<trkpt lat="33.8101161" lon="-118.3940895">
  <ele>-0.1</ele>
  <time>2026-09-01T01:13:00Z</time>
  <course>223.26</course>
  <speed>0.73</speed>
  <fix>3d</fix>
</trkpt>
<trkpt lat="33.8101147" lon="-118.3940916">
  <ele>-0.113</ele>
  <time>2026-09-01T01:13:00Z</time>
  <course>186.25</course>
  <speed>0.7283543093852057</speed>
  <fix>3d</fix>
</trkpt>
<trkpt lat="33.8101152" lon="-118.3940906">
  <ele>-0.11</ele>
  <time>2026-09-01T01:13:00Z</time>
  <course>223.26</course>
  <speed>0.73</speed>
  <fix>3d</fix>
</trkpt>
<trkpt lat="33.8101142" lon="-118.3940922">
  <ele>-0.112</ele>
  <time>2026-09-01T01:13:00Z</time>
  <course>186.25</course>
  <speed>0.7283543093852057</speed>
  <fix>3d</fix>
</trkpt>
<trkpt lat="33.8101152" lon="-118.3940906">
  <ele>-0.11</ele>
  <time>2026-09-01T01:13:00Z</time>
  <course>223.26</course>
  <speed>0.73</speed>
  <fix>3d</fix>
</trkpt>
<trkpt lat="33.8101137" lon="-118.3940927">
  <ele>-0.111</ele>
  <time>2026-09-01T01:13:00Z</time>
  <course>186.25</course>
  <speed>0.7283543093852057</speed>
  <fix>3d</fix>
</trkpt>
<trkpt lat="33.8101142" lon="-118.3940917">
  <ele>-0.1</ele>
  <time>2026-09-01T01:13:00Z</time>
  <course>223.26</course>
  <speed>0.73</speed>
  <fix>3d</fix>
</trkpt>
<trkpt lat="33.8101132" lon="-118.3940932">
  <ele>-0.11</ele>
  <time>2026-09-01T01:13:00Z</time>
  <course>186.25</course>
  <speed>0.7283543093852057</speed>
  <fix>3d</fix>
</trkpt>
<trkpt lat="33.8101142" lon="-118.3940917">
  <ele>-0.1</ele>
  <time>2026-09-01T01:13:00Z</time>
  <course>223.26</course>
  <speed>0.73</speed>
  <fix>3d</fix>
</trkpt>
<trkpt lat="33.8101127" lon="-118.3940938">
  <ele>-0.109</ele>
  <time>2026-09-01T01:13:00Z</time>
  <course>186.25</course>
  <speed>0.7283543093852057</speed>
  <fix>3d</fix>
</trkpt>
<trkpt lat="33.8101133" lon="-118.3940928">
  <ele>-0.1</ele>
  <time>2026-09-01T01:13:00Z</time>
  <course>223.26</course>
  <speed>0.73</speed>
  <fix>3d</fix>
</trkpt>
<trkpt lat="33.8101123" lon="-118.3940943">
  <ele>-0.109</ele>
  <time>2026-09-01T01:13:00Z</time>
  <course>186.25</course>
  <speed>0.7283543093852057</speed>
  <fix>3d</fix>
</trkpt>
<trkpt lat="33.8101133" lon="-118.3940928">
  <ele>-0.1</ele>
  <time>2026-09-01T01:13:00Z</time>
  <course>223.26</course>
  <speed>0.73</speed>
  <fix>3d</fix>
</trkpt>
<trkpt lat="33.8101118" lon="-118.3940949">
  <ele>-0.108</ele>
  <time>2026-09-01T01:13:00Z</time>
  <course>186.25</course>
  <speed>0.7283543093852057</speed>
  <fix>3d</fix>
</trkpt>
<trkpt lat="33.8101123" lon="-118.3940939">
  <ele>-0.1</ele>
  <time>2026-09-01T01:13:00Z</time>
  <course>223.26</course>
  <speed>0.73</speed>
  <fix>3d</fix>
</trkpt>
<trkpt lat="33.8101113" lon="-118.3940954">
  <ele>-0.107</ele>
  <time>2026-09-01T01:13:00Z</time>
  <course>186.25</course>
  <speed>0.7283543093852057</speed>
  <fix>3d</fix>
</trkpt>
<trkpt lat="33.8101123" lon="-118.3940939">
  <ele>-0.1</ele>
  <time>2026-09-01T01:13:00Z</time>
  <course>223.26</course>
  <speed>0.73</speed>
  <fix>3d</fix>
</trkpt>
<trkpt lat="33.8101108" lon="-118.394096">
  <ele>-0.107</ele>
  <time>2026-09-01T01:13:00Z</time>
  <course>186.25</course>
  <speed>0.7283543093852057</speed>
  <fix>3d</fix>
</trkpt>
<trkpt lat="33.8101113" lon="-118.394095">
  <ele>-0.1</ele>
  <time>2026-09-01T01:13:00Z</time>
  <course>223.26</course>
  <speed>0.73</speed>
  <fix>3d</fix>
</trkpt>
<trkpt lat="33.8101104" lon="-118.3940965">
  <ele>-0.106</ele>
  <time>2026-09-01T01:13:00Z</time>
  <course>186.25</course>
  <speed>0.7283543093852057</speed>
  <fix>3d</fix>
</trkpt>
<trkpt lat="33.8101113" lon="-118.394095">
  <ele>-0.1</ele>
  <time>2026-09-01T01:13:00Z</time>
  <course>223.26</course>
  <speed>0.73</speed>
  <fix>3d</fix>
</trkpt>
<trkpt lat="33.8101099" lon="-118.3940971">
  <ele>-0.105</ele>
  <time>2026-09-01T01:13:00Z</time>
  <course>186.25</course>
  <speed>0.7283543093852057</speed>
  <fix>3d</fix>
</trkpt>
<trkpt lat="33.8101104" lon="-118.3940961">
  <ele>-0.11</ele>
  <time>2026-09-01T01:13:00Z</time>
  <course>223.26</course>
  <speed>0.73</speed>
  <fix>3d</fix>
</trkpt>
<trkpt lat="33.8101094" lon="-118.3940976">
  <ele>-0.105</ele>
  <time>2026-09-01T01:13:00Z</time>
  <course>186.24</course>
  <speed>0.7283543093852057</speed>
  <fix>3d</fix>
</trkpt>
<trkpt lat="33.8101104" lon="-118.3940961">
  <ele>-0.11</ele>
  <time>2026-09-01T01:13:00Z</time>
  <course>223.26</course>
  <speed>0.73</speed>
  <fix>3d</fix>
</trkpt>
<trkpt lat="33.8101089" lon="-118.3940982">
  <ele>-0.104</ele>
  <time>2026-09-01T01:13:00Z</time>
  <course>186.24</course>
  <speed>0.7283543093852057</speed>
  <fix>3d</fix>
</trkpt>
<trkpt lat="33.8101094" lon="-118.3940972">
  <ele>-0.1</ele>
  <time>2026-09-01T01:13:00Z</time>
  <course>223.26</course>
  <speed>0.73</speed>
  <fix>3d</fix>
</trkpt>
<trkpt lat="33.8101084" lon="-118.3940987">
  <ele>-0.104</ele>
  <time>2026-09-01T01:13:00Z</time>
  <course>186.24</course>
  <speed>0.7283543093852057</speed>
  <fix>3d</fix>
</trkpt>
<trkpt lat="33.8101094" lon="-118.3940972">
  <ele>-0.1</ele>
  <time>2026-09-01T01:13:00Z</time>
  <course>223.26</course>
  <speed>0.73</speed>
  <fix>3d</fix>
</trkpt>
<trkpt lat="33.810108" lon="-118.3940992">
  <ele>-0.104</ele>
  <time>2026-09-01T01:13:00Z</time>
  <course>186.24</course>
  <speed>0.7283543093852057</speed>
  <fix>3d</fix>
</trkpt>
<trkpt lat="33.8101085" lon="-118.3940983">
  <ele>-0.1</ele>
  <time>2026-09-01T01:13:00Z</time>
  <course>223.26</course>
  <speed>0.73</speed>
  <fix>3d</fix>
</trkpt>
<trkpt lat="33.8101075" lon="-118.3940998">
  <ele>-0.106</ele>
  <time>2026-09-01T01:13:00Z</time>
  <course>186.24</course>
  <speed>0.7283543093852057</speed>
  <fix>3d</fix>
</trkpt>
<trkpt lat="33.8101085" lon="-118.3940983">
  <ele>-0.1</ele>
  <time>2026-09-01T01:13:00Z</time>
  <course>223.26</course>
  <speed>0.73</speed>
  <fix>3d</fix>
</trkpt>
<trkpt lat="33.810107" lon="-118.3941003">
  <ele>-0.107</ele>
  <time>2026-09-01T01:13:00Z</time>
  <course>186.24</course>
  <speed>0.7283543093852057</speed>
  <fix>3d</fix>
</trkpt>
<trkpt lat="33.8101075" lon="-118.3940993">
  <ele>-0.1</ele>
  <time>2026-09-01T01:13:00Z</time>
  <course>223.26</course>
  <speed>0.73</speed>
  <fix>3d</fix>
</trkpt>
<trkpt lat="33.8101065" lon="-118.3941009">
  <ele>-0.109</ele>
  <time>2026-09-01T01:13:00Z</time>
  <course>186.24</course>
  <speed>0.7283543093852057</speed>
  <fix>3d</fix>
</trkpt>
<trkpt lat="33.8101075" lon="-118.3940993">
  <ele>-0.1</ele>
  <time>2026-09-01T01:13:00Z</time>
  <course>223.26</course>
  <speed>0.73</speed>
  <fix>3d</fix>
</trkpt>
<trkpt lat="33.810106" lon="-118.3941014">
  <ele>-0.111</ele>
  <time>2026-09-01T01:13:00Z</time>
  <course>186.24</course>
  <speed>0.7283543093852057</speed>
  <fix>3d</fix>
</trkpt>
<trkpt lat="33.8101065" lon="-118.3941004">
  <ele>-0.1</ele>
  <time>2026-09-01T01:13:00Z</time>
  <course>223.26</course>
  <speed>0.73</speed>
  <fix>3d</fix>
</trkpt>
<trkpt lat="33.8101056" lon="-118.394102">
  <ele>-0.113</ele>
  <time>2026-09-01T01:13:00Z</time>
  <course>186.24</course>
  <speed>0.7283543093852057</speed>
  <fix>3d</fix>
</trkpt>
<trkpt lat="33.8101065" lon="-118.3941004">
  <ele>-0.1</ele>
  <time>2026-09-01T01:13:00Z</time>
  <course>223.26</course>
  <speed>0.73</speed>
  <fix>3d</fix>
</trkpt>
<trkpt lat="33.8101051" lon="-118.3941025">
  <ele>-0.114</ele>
  <time>2026-09-01T01:13:00Z</time>
  <course>186.24</course>
  <speed>0.7283543093852057</speed>
  <fix>3d</fix>
</trkpt>
<trkpt lat="33.8101056" lon="-118.3941015">
  <ele>-0.11</ele>
  <time>2026-09-01T01:13:00Z</time>
  <course>223.26</course>
  <speed>0.73</speed>
  <fix>3d</fix>
</trkpt>
<trkpt lat="33.8101046" lon="-118.3941031">
  <ele>-0.116</ele>
  <time>2026-09-01T01:13:00Z</time>
  <course>186.24</course>
  <speed>0.7283543093852057</speed>
  <fix>3d</fix>
</trkpt>
<trkpt lat="33.8101056" lon="-118.3941015">
  <ele>-0.11</ele>
  <time>2026-09-01T01:13:00Z</time>
  <course>223.26</course>
  <speed>0.73</speed>
  <fix>3d</fix>
</trkpt>
<trkpt lat="33.8101041" lon="-118.3941036">
  <ele>-0.117</ele>
  <time>2026-09-01T01:13:00Z</time>
  <course>186.24</course>
  <speed>0.7283543093852057</speed>
  <fix>3d</fix>
</trkpt>
<trkpt lat="33.8101046" lon="-118.3941026">
  <ele>-0.1</ele>
  <time>2026-09-01T01:13:00Z</time>
  <course>223.26</course>
  <speed>0.73</speed>
  <fix>3d</fix>
</trkpt>
<trkpt lat="33.8101036" lon="-118.3941041">
  <ele>-0.117</ele>
  <time>2026-09-01T01:13:00Z</time>
  <course>186.24</course>
  <speed>0.7283543093852057</speed>
  <fix>3d</fix>
</trkpt>
<trkpt lat="33.8101046" lon="-118.3941026">
  <ele>-0.1</ele>
  <time>2026-09-01T01:13:00Z</time>
  <course>223.26</course>
  <speed>0.73</speed>
  <fix>3d</fix>
</trkpt>
<trkpt lat="33.8101032" lon="-118.3941047">
  <ele>-0.117</ele>
  <time>2026-09-01T01:13:00Z</time>
  <course>186.24</course>
  <speed>0.7283543093852057</speed>
  <fix>3d</fix>
</trkpt>
<trkpt lat="33.8101037" lon="-118.3941037">
  <ele>-0.1</ele>
  <time>2026-09-01T01:13:00Z</time>
  <course>223.26</course>
  <speed>0.73</speed>
  <fix>3d</fix>
</trkpt>
<trkpt lat="33.8101027" lon="-118.3941052">
  <ele>-0.118</ele>
  <time>2026-09-01T01:13:00Z</time>
  <course>186.24</course>
  <speed>0.7213875518748573</speed>
  <fix>3d</fix>
</trkpt>
<trkpt lat="33.8101037" lon="-118.3941037">
  <ele>-0.1</ele>
  <time>2026-09-01T01:13:00Z</time>
  <course>223.26</course>
  <speed>0.73</speed>
  <fix>3d</fix>
</trkpt>
<trkpt lat="33.8101022" lon="-118.3941058">
  <ele>-0.119</ele>
  <time>2026-09-01T01:13:00Z</time>
  <course>186.24</course>
  <speed>0.7213875518748573</speed>
  <fix>3d</fix>
</trkpt>
<trkpt lat="33.8101027" lon="-118.3941048">
  <ele>-0.1</ele>
  <time>2026-09-01T01:13:00Z</time>
  <course>223.26</course>
  <speed>0.73</speed>
  <fix>3d</fix>
</trkpt>
<trkpt lat="33.8101017" lon="-118.3941063">
  <ele>-0.119</ele>
  <time>2026-09-01T01:13:00Z</time>
  <course>186.24</course>
  <speed>0.7213875518748573</speed>
  <fix>3d</fix>
</trkpt>
<trkpt lat="33.8101027" lon="-118.3941048">
  <ele>-0.1</ele>
  <time>2026-09-01T01:13:00Z</time>
  <course>223.26</course>
  <speed>0.73</speed>
  <fix>3d</fix>
</trkpt>
<trkpt lat="33.8101012" lon="-118.3941069">
  <ele>-0.12</ele>
  <time>2026-09-01T01:13:00Z</time>
  <course>186.24</course>
  <speed>0.7213875518748573</speed>
  <fix>3d</fix>
</trkpt>
<trkpt lat="33.8101017" lon="-118.3941059">
  <ele>-0.1</ele>
  <time>2026-09-01T01:13:00Z</time>
  <course>223.26</course>
  <speed>0.73</speed>
  <fix>3d</fix>
</trkpt>
<trkpt lat="33.8101008" lon="-118.3941074">
  <ele>-0.12</ele>
  <time>2026-09-01T01:13:00Z</time>
  <course>186.24</course>
  <speed>0.7213875518748573</speed>
  <fix>3d</fix>
</trkpt>
<trkpt lat="33.8101017" lon="-118.3941059">
  <ele>-0.1</ele>
  <time>2026-09-01T01:13:00Z</time>
  <course>223.26</course>
  <speed>0.73</speed>
  <fix>3d</fix>
</trkpt>
<trkpt lat="33.8101003" lon="-118.394108">
  <ele>-0.119</ele>
  <time>2026-09-01T01:13:00Z</time>
  <course>186.24</course>
  <speed>0.7213875518748573</speed>
  <fix>3d</fix>
</trkpt>
<trkpt lat="33.8101008" lon="-118.394107">
  <ele>-0.11</ele>
  <time>2026-09-01T01:13:00Z</time>
  <course>223.26</course>
  <speed>0.73</speed>
  <fix>3d</fix>
</trkpt>
<trkpt lat="33.8100998" lon="-118.3941085">
  <ele>-0.119</ele>
  <time>2026-09-01T01:13:00Z</time>
  <course>186.24</course>
  <speed>0.7213875518748573</speed>
  <fix>3d</fix>
</trkpt>
<trkpt lat="33.8101008" lon="-118.394107">
  <ele>-0.11</ele>
  <time>2026-09-01T01:13:00Z</time>
  <course>223.26</course>
  <speed>0.73</speed>
  <fix>3d</fix>
</trkpt>
<trkpt lat="33.8100993" lon="-118.3941091">
  <ele>-0.117</ele>
  <time>2026-09-01T01:13:00Z</time>
  <course>186.24</course>
  <speed>0.7213875518748573</speed>
  <fix>3d</fix>
</trkpt>
<trkpt lat="33.8100998" lon="-118.3941081">
  <ele>-0.1</ele>
  <time>2026-09-01T01:13:00Z</time>
  <course>223.26</course>
  <speed>0.73</speed>
  <fix>3d</fix>
</trkpt>
<trkpt lat="33.8100988" lon="-118.3941096">
  <ele>-0.116</ele>
  <time>2026-09-01T01:13:00Z</time>
  <course>186.24</course>
  <speed>0.7213875518748573</speed>
  <fix>3d</fix>
</trkpt>
<trkpt lat="33.8100998" lon="-118.3941081">
  <ele>-0.1</ele>
  <time>2026-09-01T01:13:00Z</time>
  <course>223.26</course>
  <speed>0.73</speed>
  <fix>3d</fix>
</trkpt>
<trkpt lat="33.8100984" lon="-118.3941101">
  <ele>-0.115</ele>
  <time>2026-09-01T01:13:00Z</time>
  <course>186.24</course>
  <speed>0.7213875518748573</speed>
  <fix>3d</fix>
</trkpt>
<trkpt lat="33.8100988" lon="-118.3941092">
  <ele>-0.1</ele>
  <time>2026-09-01T01:13:00Z</time>
  <course>223.26</course>
  <speed>0.73</speed>
  <fix>3d</fix>
</trkpt>
<trkpt lat="33.8100979" lon="-118.3941107">
  <ele>-0.115</ele>
  <time>2026-09-01T01:13:00Z</time>
  <course>186.24</course>
  <speed>0.7213875518748573</speed>
  <fix>3d</fix>
</trkpt>
<trkpt lat="33.8100988" lon="-118.3941092">
  <ele>-0.1</ele>
  <time>2026-09-01T01:13:00Z</time>
  <course>223.26</course>
  <speed>0.73</speed>
  <fix>3d</fix>
</trkpt>
<trkpt lat="33.8100974" lon="-118.3941112">
  <ele>-0.116</ele>
  <time>2026-09-01T01:13:00Z</time>
  <course>186.24</course>
  <speed>0.7213875518748573</speed>
  <fix>3d</fix>
</trkpt>
<trkpt lat="33.8100979" lon="-118.3941102">
  <ele>-0.1</ele>
  <time>2026-09-01T01:13:00Z</time>
  <course>223.26</course>
  <speed>0.73</speed>
  <fix>3d</fix>
</trkpt>
<trkpt lat="33.8100969" lon="-118.3941118">
  <ele>-0.115</ele>
  <time>2026-09-01T01:13:00Z</time>
  <course>186.24</course>
  <speed>0.7213875518748573</speed>
  <fix>3d</fix>
</trkpt>
<trkpt lat="33.8100979" lon="-118.3941102">
  <ele>-0.1</ele>
  <time>2026-09-01T01:13:00Z</time>
  <course>223.26</course>
  <speed>0.73</speed>
  <fix>3d</fix>
</trkpt>
<trkpt lat="33.8100965" lon="-118.3941123">
  <ele>-0.115</ele>
  <time>2026-09-01T01:13:00Z</time>
  <course>186.24</course>
  <speed>0.7213875518748573</speed>
  <fix>3d</fix>
</trkpt>
<trkpt lat="33.8100969" lon="-118.3941113">
  <ele>-0.1</ele>
  <time>2026-09-01T01:13:00Z</time>
  <course>223.26</course>
  <speed>0.73</speed>
  <fix>3d</fix>
</trkpt>
<trkpt lat="33.810096" lon="-118.3941129">
  <ele>-0.114</ele>
  <time>2026-09-01T01:13:00Z</time>
  <course>186.24</course>
  <speed>0.7213875518748573</speed>
  <fix>3d</fix>
</trkpt>
<trkpt lat="33.8100969" lon="-118.3941113">
  <ele>-0.1</ele>
  <time>2026-09-01T01:13:00Z</time>
  <course>223.26</course>
  <speed>0.73</speed>
  <fix>3d</fix>
</trkpt>
<trkpt lat="33.8100955" lon="-118.3941134">
  <ele>-0.115</ele>
  <time>2026-09-01T01:13:00Z</time>
  <course>186.24</course>
  <speed>0.7213875518748573</speed>
  <fix>3d</fix>
</trkpt>
<trkpt lat="33.810096" lon="-118.3941124">
  <ele>-0.11</ele>
  <time>2026-09-01T01:13:00Z</time>
  <course>223.26</course>
  <speed>0.73</speed>
  <fix>3d</fix>
</trkpt>
<trkpt lat="33.810095" lon="-118.3941139">
  <ele>-0.115</ele>
  <time>2026-09-01T01:13:00Z</time>
  <course>186.24</course>
  <speed>0.7213875518748573</speed>
  <fix>3d</fix>
</trkpt>
<trkpt lat="33.810096" lon="-118.3941124">
  <ele>-0.11</ele>
  <time>2026-09-01T01:13:00Z</time>
  <course>223.26</course>
  <speed>0.73</speed>
  <fix>3d</fix>
</trkpt>
<trkpt lat="33.8100945" lon="-118.3941145">
  <ele>-0.114</ele>
  <time>2026-09-01T01:13:00Z</time>
  <course>186.24</course>
  <speed>0.7213875518748573</speed>
  <fix>3d</fix>
</trkpt>
<trkpt lat="33.8100949" lon="-118.3941135">
  <ele>-0.1</ele>
  <time>2026-09-01T01:13:00Z</time>
  <course>223.26</course>
  <speed>0.73</speed>
  <fix>3d</fix>
</trkpt>
<trkpt lat="33.8100941" lon="-118.394115">
  <ele>-0.113</ele>
  <time>2026-09-01T01:13:00Z</time>
  <course>186.24</course>
  <speed>0.7213875518748573</speed>
  <fix>3d</fix>
</trkpt>
<trkpt lat="33.8100949" lon="-118.3941135">
  <ele>-0.1</ele>
  <time>2026-09-01T01:13:00Z</time>
  <course>223.26</course>
  <speed>0.73</speed>
  <fix>3d</fix>
</trkpt>
<trkpt lat="33.8100936" lon="-118.3941155">
  <ele>-0.112</ele>
  <time>2026-09-01T01:13:00Z</time>
  <course>186.24</course>
  <speed>0.7213875518748573</speed>
  <fix>3d</fix>
</trkpt>
<trkpt lat="33.810094" lon="-118.3941146">
  <ele>-0.1</ele>
  <time>2026-09-01T01:13:00Z</time>
  <course>223.26</course>
  <speed>0.73</speed>
  <fix>3d</fix>
</trkpt>
<trkpt lat="33.8100931" lon="-118.3941161">
  <ele>-0.112</ele>
  <time>2026-09-01T01:13:00Z</time>
  <course>186.24</course>
  <speed>0.7213875518748573</speed>
  <fix>3d</fix>
</trkpt>
<trkpt lat="33.810094" lon="-118.3941146">
  <ele>-0.1</ele>
  <time>2026-09-01T01:13:00Z</time>
  <course>223.26</course>
  <speed>0.73</speed>
  <fix>3d</fix>
</trkpt>
<trkpt lat="33.8100926" lon="-118.3941166">
  <ele>-0.111</ele>
  <time>2026-09-01T01:13:00Z</time>
  <course>186.24</course>
  <speed>0.7213875518748573</speed>
  <fix>3d</fix>
</trkpt>
<trkpt lat="33.8100931" lon="-118.3941157">
  <ele>-0.1</ele>
  <time>2026-09-01T01:13:00Z</time>
  <course>223.26</course>
  <speed>0.73</speed>
  <fix>3d</fix>
</trkpt>
<trkpt lat="33.8100921" lon="-118.3941172">
  <ele>-0.109</ele>
  <time>2026-09-01T01:13:00Z</time>
  <course>186.24</course>
  <speed>0.7213875518748573</speed>
  <fix>3d</fix>
</trkpt>
<trkpt lat="33.8100931" lon="-118.3941157">
  <ele>-0.1</ele>
  <time>2026-09-01T01:13:00Z</time>
  <course>223.26</course>
  <speed>0.73</speed>
  <fix>3d</fix>
</trkpt>
<trkpt lat="33.8100917" lon="-118.3941177">
  <ele>-0.108</ele>
  <time>2026-09-01T01:13:00Z</time>
  <course>186.24</course>
  <speed>0.7213875518748573</speed>
  <fix>3d</fix>
</trkpt>
<trkpt lat="33.8100921" lon="-118.3941168">
  <ele>-0.1</ele>
  <time>2026-09-01T01:13:00Z</time>
  <course>223.26</course>
  <speed>0.73</speed>
  <fix>3d</fix>
</trkpt>
<trkpt lat="33.8100912" lon="-118.3941183">
  <ele>-0.106</ele>
  <time>2026-09-01T01:13:00Z</time>
  <course>186.24</course>
  <speed>0.7213875518748573</speed>
  <fix>3d</fix>
</trkpt>
<trkpt lat="33.8100921" lon="-118.3941168">
  <ele>-0.1</ele>
  <time>2026-09-01T01:13:00Z</time>
  <course>223.26</course>
  <speed>0.73</speed>
  <fix>3d</fix>
</trkpt>
<trkpt lat="33.8100907" lon="-118.3941188">
  <ele>-0.104</ele>
  <time>2026-09-01T01:13:00Z</time>
  <course>186.24</course>
  <speed>0.7213875518748573</speed>
  <fix>3d</fix>
</trkpt>
<trkpt lat="33.8100912" lon="-118.3941179">
  <ele>-0.11</ele>
  <time>2026-09-01T01:13:00Z</time>
  <course>223.26</course>
  <speed>0.73</speed>
  <fix>3d</fix>
</trkpt>
<trkpt lat="33.8100902" lon="-118.3941193">
  <ele>-0.101</ele>
  <time>2026-09-01T01:13:00Z</time>
  <course>186.24</course>
  <speed>0.7213875518748573</speed>
  <fix>3d</fix>
</trkpt>
<trkpt lat="33.8100912" lon="-118.3941179">
  <ele>-0.11</ele>
  <time>2026-09-01T01:13:00Z</time>
  <course>223.26</course>
  <speed>0.73</speed>
  <fix>3d</fix>
</trkpt>
<trkpt lat="33.8100898" lon="-118.3941199">
  <ele>-0.1</ele>
  <time>2026-09-01T01:13:00Z</time>
  <course>186.24</course>
  <speed>0.7213875518748573</speed>
  <fix>3d</fix>
</trkpt>
<trkpt lat="33.8100902" lon="-118.394119">
  <ele>-0.1</ele>
  <time>2026-09-01T01:13:00Z</time>
  <course>223.26</course>
  <speed>0.73</speed>
  <fix>3d</fix>
</trkpt>
<trkpt lat="33.8100893" lon="-118.3941204">
  <ele>-0.101</ele>
  <time>2026-09-01T01:13:00Z</time>
  <course>186.24</course>
  <speed>0.7213875518748573</speed>
  <fix>3d</fix>
</trkpt>
<trkpt lat="33.8100902" lon="-118.394119">
  <ele>-0.1</ele>
  <time>2026-09-01T01:13:00Z</time>
  <course>223.26</course>
  <speed>0.73</speed>
  <fix>3d</fix>
</trkpt>
<trkpt lat="33.8100888" lon="-118.394121">
  <ele>-0.102</ele>
  <time>2026-09-01T01:13:00Z</time>
  <course>186.24</course>
  <speed>0.7213875518748573</speed>
  <fix>3d</fix>
</trkpt>
<trkpt lat="33.8100892" lon="-118.39412">
  <ele>-0.1</ele>
  <time>2026-09-01T01:13:00Z</time>
  <course>223.26</course>
  <speed>0.73</speed>
  <fix>3d</fix>
</trkpt>
<trkpt lat="33.8100883" lon="-118.3941215">
  <ele>-0.103</ele>
  <time>2026-09-01T01:13:00Z</time>
  <course>186.24</course>
  <speed>0.7213875518748573</speed>
  <fix>3d</fix>
</trkpt>
<trkpt lat="33.8100892" lon="-118.39412">
  <ele>-0.1</ele>
  <time>2026-09-01T01:13:00Z</time>
  <course>223.26</course>
  <speed>0.73</speed>
  <fix>3d</fix>
</trkpt>
<trkpt lat="33.8100878" lon="-118.3941221">
  <ele>-0.104</ele>
  <time>2026-09-01T01:13:00Z</time>
  <course>186.24</course>
  <speed>0.7213875518748573</speed>
  <fix>3d</fix>
</trkpt>
<trkpt lat="33.8100882" lon="-118.3941211">
  <ele>-0.1</ele>
  <time>2026-09-01T01:13:00Z</time>
  <course>223.26</course>
  <speed>0.73</speed>
  <fix>3d</fix>
</trkpt>
<trkpt lat="33.8100874" lon="-118.3941226">
  <ele>-0.104</ele>
  <time>2026-09-01T01:13:00Z</time>
  <course>186.24</course>
  <speed>0.7213875518748573</speed>
  <fix>3d</fix>
</trkpt>
<trkpt lat="33.8100882" lon="-118.3941211">
  <ele>-0.1</ele>
  <time>2026-09-01T01:13:00Z</time>
  <course>223.26</course>
  <speed>0.73</speed>
  <fix>3d</fix>
</trkpt>
<trkpt lat="33.8100869" lon="-118.3941232">
  <ele>-0.105</ele>
  <time>2026-09-01T01:13:00Z</time>
  <course>186.24</course>
  <speed>0.7213875518748573</speed>
  <fix>3d</fix>
</trkpt>
<trkpt lat="33.8100873" lon="-118.3941222">
  <ele>-0.1</ele>
  <time>2026-09-01T01:13:00Z</time>
  <course>223.26</course>
  <speed>0.73</speed>
  <fix>3d</fix>
</trkpt>
<trkpt lat="33.8100864" lon="-118.3941237">
  <ele>-0.106</ele>
  <time>2026-09-01T01:13:00Z</time>
  <course>186.24</course>
  <speed>0.7213875518748573</speed>
  <fix>3d</fix>
</trkpt>
<trkpt lat="33.8100873" lon="-118.3941222">
  <ele>-0.1</ele>
  <time>2026-09-01T01:13:00Z</time>
  <course>223.26</course>
  <speed>0.73</speed>
  <fix>3d</fix>
</trkpt>
<trkpt lat="33.8100859" lon="-118.3941242">
  <ele>-0.107</ele>
  <time>2026-09-01T01:13:00Z</time>
  <course>186.24</course>
  <speed>0.7213875518748573</speed>
  <fix>3d</fix>
</trkpt>
<trkpt lat="33.8100863" lon="-118.3941233">
  <ele>-0.11</ele>
  <time>2026-09-01T01:13:00Z</time>
  <course>223.26</course>
  <speed>0.73</speed>
  <fix>3d</fix>
</trkpt>
<trkpt lat="33.8100854" lon="-118.3941248">
  <ele>-0.106</ele>
  <time>2026-09-01T01:13:00Z</time>
  <course>186.24</course>
  <speed>0.7213875518748573</speed>
  <fix>3d</fix>
</trkpt>
<trkpt lat="33.8100863" lon="-118.3941233">
  <ele>-0.11</ele>
  <time>2026-09-01T01:13:00Z</time>
  <course>223.26</course>
  <speed>0.73</speed>
  <fix>3d</fix>
</trkpt>
<trkpt lat="33.8100849" lon="-118.3941253">
  <ele>-0.105</ele>
  <time>2026-09-01T01:13:00Z</time>
  <course>186.24</course>
  <speed>0.7213875518748573</speed>
  <fix>3d</fix>
</trkpt>
<trkpt lat="33.8100854" lon="-118.3941244">
  <ele>-0.1</ele>
  <time>2026-09-01T01:13:00Z</time>
  <course>223.26</course>
  <speed>0.73</speed>
  <fix>3d</fix>
</trkpt>
<trkpt lat="33.8100845" lon="-118.3941259">
  <ele>-0.105</ele>
  <time>2026-09-01T01:13:00Z</time>
  <course>186.24</course>
  <speed>0.7213875518748573</speed>
  <fix>3d</fix>
</trkpt>
<trkpt lat="33.8100854" lon="-118.3941244">
  <ele>-0.1</ele>
  <time>2026-09-01T01:13:00Z</time>
  <course>223.26</course>
  <speed>0.73</speed>
  <fix>3d</fix>
</trkpt>
<trkpt lat="33.810084" lon="-118.3941264">
  <ele>-0.104</ele>
  <time>2026-09-01T01:13:00Z</time>
  <course>186.24</course>
  <speed>0.7213875518748573</speed>
  <fix>3d</fix>
</trkpt>
<trkpt lat="33.8100844" lon="-118.3941255">
  <ele>-0.1</ele>
  <time>2026-09-01T01:13:00Z</time>
  <course>223.26</course>
  <speed>0.73</speed>
  <fix>3d</fix>
</trkpt>
<trkpt lat="33.8100835" lon="-118.394127">
  <ele>-0.105</ele>
  <time>2026-09-01T01:13:00Z</time>
  <course>186.24</course>
  <speed>0.7213875518748573</speed>
  <fix>3d</fix>
</trkpt>
<trkpt lat="33.8100844" lon="-118.3941255">
  <ele>-0.1</ele>
  <time>2026-09-01T01:13:00Z</time>
  <course>223.26</course>
  <speed>0.73</speed>
  <fix>3d</fix>
</trkpt>
<trkpt lat="33.810083" lon="-118.3941275">
  <ele>-0.105</ele>
  <time>2026-09-01T01:13:00Z</time>
  <course>186.24</course>
  <speed>0.7213875518748573</speed>
  <fix>3d</fix>
</trkpt>
<trkpt lat="33.8100835" lon="-118.3941266">
  <ele>-0.1</ele>
  <time>2026-09-01T01:13:00Z</time>
  <course>223.26</course>
  <speed>0.73</speed>
  <fix>3d</fix>
</trkpt>
<trkpt lat="33.8100825" lon="-118.3941281">
  <ele>-0.105</ele>
  <time>2026-09-01T01:13:00Z</time>
  <course>186.24</course>
  <speed>0.7213875518748573</speed>
  <fix>3d</fix>
</trkpt>
<trkpt lat="33.8100835" lon="-118.3941266">
  <ele>-0.1</ele>
  <time>2026-09-01T01:13:00Z</time>
  <course>223.26</course>
  <speed>0.73</speed>
  <fix>3d</fix>
</trkpt>
<trkpt lat="33.8100821" lon="-118.3941286">
  <ele>-0.106</ele>
  <time>2026-09-01T01:13:00Z</time>
  <course>186.24</course>
  <speed>0.7213875518748573</speed>
  <fix>3d</fix>
</trkpt>
<trkpt lat="33.8100825" lon="-118.3941277">
  <ele>-0.1</ele>
  <time>2026-09-01T01:13:00Z</time>
  <course>223.26</course>
  <speed>0.73</speed>
  <fix>3d</fix>
</trkpt>
<trkpt lat="33.8100816" lon="-118.3941291">
  <ele>-0.107</ele>
  <time>2026-09-01T01:13:00Z</time>
  <course>186.24</course>
  <speed>0.7213875518748573</speed>
  <fix>3d</fix>
</trkpt>
<trkpt lat="33.8100825" lon="-118.3941277">
  <ele>-0.1</ele>
  <time>2026-09-01T01:13:00Z</time>
  <course>223.26</course>
  <speed>0.73</speed>
  <fix>3d</fix>
</trkpt>
<trkpt lat="33.8100811" lon="-118.3941297">
  <ele>-0.106</ele>
  <time>2026-09-01T01:13:00Z</time>
  <course>186.24</course>
  <speed>0.7213875518748573</speed>
  <fix>3d</fix>
</trkpt>
<trkpt lat="33.8100815" lon="-118.3941288">
  <ele>-0.11</ele>
  <time>2026-09-01T01:13:00Z</time>
  <course>223.26</course>
  <speed>0.73</speed>
  <fix>3d</fix>
</trkpt>
<trkpt lat="33.8100806" lon="-118.3941302">
  <ele>-0.106</ele>
  <time>2026-09-01T01:13:00Z</time>
  <course>186.24</course>
  <speed>0.7213875518748573</speed>
  <fix>3d</fix>
</trkpt>
<trkpt lat="33.8100815" lon="-118.3941288">
  <ele>-0.11</ele>
  <time>2026-09-01T01:13:00Z</time>
  <course>223.26</course>
  <speed>0.73</speed>
  <fix>3d</fix>
</trkpt>
<trkpt lat="33.8100801" lon="-118.3941308">
  <ele>-0.106</ele>
  <time>2026-09-01T01:13:00Z</time>
  <course>186.24</course>
  <speed>0.7213875518748573</speed>
  <fix>3d</fix>
</trkpt>
<trkpt lat="33.8100806" lon="-118.3941299">
  <ele>-0.1</ele>
  <time>2026-09-01T01:13:00Z</time>
  <course>223.26</course>
  <speed>0.73</speed>
  <fix>3d</fix>
</trkpt>
<trkpt lat="33.8100797" lon="-118.3941313">
  <ele>-0.105</ele>
  <time>2026-09-01T01:13:00Z</time>
  <course>186.24</course>
  <speed>0.7213875518748573</speed>
  <fix>3d</fix>
</trkpt>
<trkpt lat="33.8100806" lon="-118.3941299">
  <ele>-0.1</ele>
  <time>2026-09-01T01:13:00Z</time>
  <course>223.26</course>
  <speed>0.73</speed>
  <fix>3d</fix>
</trkpt>
<trkpt lat="33.8100792" lon="-118.3941319">
  <ele>-0.103</ele>
  <time>2026-09-01T01:13:00Z</time>
  <course>186.24</course>
  <speed>0.7283543093852057</speed>
  <fix>3d</fix>
</trkpt>
<trkpt lat="33.8100795" lon="-118.3941309">
  <ele>-0.1</ele>
  <time>2026-09-01T01:13:00Z</time>
  <course>223.26</course>
  <speed>0.73</speed>
  <fix>3d</fix>
</trkpt>
<trkpt lat="33.8100787" lon="-118.3941324">
  <ele>-0.102</ele>
  <time>2026-09-01T01:13:00Z</time>
  <course>186.24</course>
  <speed>0.7283543093852057</speed>
  <fix>3d</fix>
</trkpt>
<trkpt lat="33.8100795" lon="-118.3941309">
  <ele>-0.1</ele>
  <time>2026-09-01T01:13:00Z</time>
  <course>223.26</course>
  <speed>0.73</speed>
  <fix>3d</fix>
</trkpt>
<trkpt lat="33.8100782" lon="-118.394133">
  <ele>-0.103</ele>
  <time>2026-09-01T01:13:00Z</time>
  <course>186.24</course>
  <speed>0.7283543093852057</speed>
  <fix>3d</fix>
</trkpt>
<trkpt lat="33.8100786" lon="-118.394132">
  <ele>-0.1</ele>
  <time>2026-09-01T01:13:00Z</time>
  <course>223.26</course>
  <speed>0.73</speed>
  <fix>3d</fix>
</trkpt>
<trkpt lat="33.8100777" lon="-118.3941335">
  <ele>-0.105</ele>
  <time>2026-09-01T01:13:00Z</time>
  <course>186.24</course>
  <speed>0.7283543093852057</speed>
  <fix>3d</fix>
</trkpt>
<trkpt lat="33.8100786" lon="-118.394132">
  <ele>-0.1</ele>
  <time>2026-09-01T01:13:00Z</time>
  <course>223.26</course>
  <speed>0.73</speed>
  <fix>3d</fix>
</trkpt>
<trkpt lat="33.8100772" lon="-118.3941341">
  <ele>-0.108</ele>
  <time>2026-09-01T01:13:00Z</time>
  <course>186.24</course>
  <speed>0.7283543093852057</speed>
  <fix>3d</fix>
</trkpt>
<trkpt lat="33.8100776" lon="-118.3941331">
  <ele>-0.1</ele>
  <time>2026-09-01T01:13:00Z</time>
  <course>223.26</course>
  <speed>0.73</speed>
  <fix>3d</fix>
</trkpt>
<trkpt lat="33.8100767" lon="-118.3941346">
  <ele>-0.109</ele>
  <time>2026-09-01T01:13:00Z</time>
  <course>186.24</course>
  <speed>0.7283543093852057</speed>
  <fix>3d</fix>
</trkpt>
<trkpt lat="33.8100776" lon="-118.3941331">
  <ele>-0.1</ele>
  <time>2026-09-01T01:13:00Z</time>
  <course>223.26</course>
  <speed>0.73</speed>
  <fix>3d</fix>
</trkpt>
<trkpt lat="33.8100763" lon="-118.3941351">
  <ele>-0.111</ele>
  <time>2026-09-01T01:13:00Z</time>
  <course>186.24</course>
  <speed>0.7283543093852057</speed>
  <fix>3d</fix>
</trkpt>
<trkpt lat="33.8100767" lon="-118.3941342">
  <ele>-0.11</ele>
  <time>2026-09-01T01:13:00Z</time>
  <course>223.26</course>
  <speed>0.73</speed>
  <fix>3d</fix>
</trkpt>
<trkpt lat="33.8100758" lon="-118.3941357">
  <ele>-0.11</ele>
  <time>2026-09-01T01:13:00Z</time>
  <course>186.24</course>
  <speed>0.7283543093852057</speed>
  <fix>3d</fix>
</trkpt>
<trkpt lat="33.8100767" lon="-118.3941342">
  <ele>-0.11</ele>
  <time>2026-09-01T01:13:00Z</time>
  <course>223.26</course>
  <speed>0.73</speed>
  <fix>3d</fix>
</trkpt>
<trkpt lat="33.8100753" lon="-118.3941362">
  <ele>-0.11</ele>
  <time>2026-09-01T01:13:00Z</time>
  <course>186.24</course>
  <speed>0.7283543093852057</speed>
  <fix>3d</fix>
</trkpt>
<trkpt lat="33.8100758" lon="-118.3941353">
  <ele>-0.1</ele>
  <time>2026-09-01T01:13:00Z</time>
  <course>223.26</course>
  <speed>0.73</speed>
  <fix>3d</fix>
</trkpt>
<trkpt lat="33.8100748" lon="-118.3941368">
  <ele>-0.109</ele>
  <time>2026-09-01T01:13:00Z</time>
  <course>186.24</course>
  <speed>0.7283543093852057</speed>
  <fix>3d</fix>
</trkpt>
<trkpt lat="33.8100758" lon="-118.3941353">
  <ele>-0.1</ele>
  <time>2026-09-01T01:13:00Z</time>
  <course>223.26</course>
  <speed>0.73</speed>
  <fix>3d</fix>
</trkpt>
<trkpt lat="33.8100743" lon="-118.3941373">
  <ele>-0.109</ele>
  <time>2026-09-01T01:13:00Z</time>
  <course>186.24</course>
  <speed>0.7283543093852057</speed>
  <fix>3d</fix>
</trkpt>
<trkpt lat="33.8100747" lon="-118.3941364">
  <ele>-0.1</ele>
  <time>2026-09-01T01:13:00Z</time>
  <course>223.26</course>
  <speed>0.73</speed>
  <fix>3d</fix>
</trkpt>
<trkpt lat="33.8100738" lon="-118.3941379">
  <ele>-0.109</ele>
  <time>2026-09-01T01:13:00Z</time>
  <course>186.24</course>
  <speed>0.7283543093852057</speed>
  <fix>3d</fix>
</trkpt>
<trkpt lat="33.8100747" lon="-118.3941364">
  <ele>-0.1</ele>
  <time>2026-09-01T01:13:00Z</time>
  <course>223.26</course>
  <speed>0.73</speed>
  <fix>3d</fix>
</trkpt>
<trkpt lat="33.8100734" lon="-118.3941384">
  <ele>-0.109</ele>
  <time>2026-09-01T01:13:00Z</time>
  <course>186.24</course>
  <speed>0.7283543093852057</speed>
  <fix>3d</fix>
</trkpt>
<trkpt lat="33.8100738" lon="-118.3941375">
  <ele>-0.1</ele>
  <time>2026-09-01T01:13:00Z</time>
  <course>223.26</course>
  <speed>0.73</speed>
  <fix>3d</fix>
</trkpt>
<trkpt lat="33.8100729" lon="-118.394139">
  <ele>-0.11</ele>
  <time>2026-09-01T01:13:00Z</time>
  <course>186.24</course>
  <speed>0.7283543093852057</speed>
  <fix>3d</fix>
</trkpt>
<trkpt lat="33.8100738" lon="-118.3941375">
  <ele>-0.1</ele>
  <time>2026-09-01T01:13:00Z</time>
  <course>223.26</course>
  <speed>0.73</speed>
  <fix>3d</fix>
</trkpt>
<trkpt lat="33.8100724" lon="-118.3941395">
  <ele>-0.111</ele>
  <time>2026-09-01T01:13:00Z</time>
  <course>186.24</course>
  <speed>0.7283543093852057</speed>
  <fix>3d</fix>
</trkpt>
<trkpt lat="33.8100728" lon="-118.3941386">
  <ele>-0.1</ele>
  <time>2026-09-01T01:13:00Z</time>
  <course>223.26</course>
  <speed>0.73</speed>
  <fix>3d</fix>
</trkpt>
<trkpt lat="33.8100719" lon="-118.3941401">
  <ele>-0.112</ele>
  <time>2026-09-01T01:13:00Z</time>
  <course>186.24</course>
  <speed>0.7283543093852057</speed>
  <fix>3d</fix>
</trkpt>
<trkpt lat="33.8100728" lon="-118.3941386">
  <ele>-0.1</ele>
  <time>2026-09-01T01:13:00Z</time>
  <course>223.26</course>
  <speed>0.73</speed>
  <fix>3d</fix>
</trkpt>
<trkpt lat="33.8100714" lon="-118.3941406">
  <ele>-0.113</ele>
  <time>2026-09-01T01:13:00Z</time>
  <course>186.24</course>
  <speed>0.7283543093852057</speed>
  <fix>3d</fix>
</trkpt>
<trkpt lat="33.8100719" lon="-118.3941397">
  <ele>-0.11</ele>
  <time>2026-09-01T01:13:00Z</time>
  <course>223.26</course>
  <speed>0.73</speed>
  <fix>3d</fix>
</trkpt>
<trkpt lat="33.8100709" lon="-118.3941412">
  <ele>-0.114</ele>
  <time>2026-09-01T01:13:00Z</time>
  <course>186.24</course>
  <speed>0.7283543093852057</speed>
  <fix>3d</fix>
</trkpt>
<trkpt lat="33.8100719" lon="-118.3941397">
  <ele>-0.11</ele>
  <time>2026-09-01T01:13:00Z</time>
  <course>223.26</course>
  <speed>0.73</speed>
  <fix>3d</fix>
</trkpt>
<trkpt lat="33.8100705" lon="-118.3941417">
  <ele>-0.114</ele>
  <time>2026-09-01T01:13:00Z</time>
  <course>186.24</course>
  <speed>0.7283543093852057</speed>
  <fix>3d</fix>
</trkpt>
<trkpt lat="33.810071" lon="-118.3941407">
  <ele>-0.1</ele>
  <time>2026-09-01T01:13:00Z</time>
  <course>223.26</course>
  <speed>0.73</speed>
  <fix>3d</fix>
</trkpt>
<trkpt lat="33.81007" lon="-118.3941423">
  <ele>-0.114</ele>
  <time>2026-09-01T01:13:00Z</time>
  <course>186.24</course>
  <speed>0.7283543093852057</speed>
  <fix>3d</fix>
</trkpt>
<trkpt lat="33.810071" lon="-118.3941407">
  <ele>-0.1</ele>
  <time>2026-09-01T01:13:00Z</time>
  <course>223.26</course>
  <speed>0.73</speed>
  <fix>3d</fix>
</trkpt>
<trkpt lat="33.8100695" lon="-118.3941428">
  <ele>-0.115</ele>
  <time>2026-09-01T01:13:00Z</time>
  <course>186.24</course>
  <speed>0.7283543093852057</speed>
  <fix>3d</fix>
</trkpt>
<trkpt lat="33.8100699" lon="-118.3941418">
  <ele>-0.1</ele>
  <time>2026-09-01T01:13:00Z</time>
  <course>223.26</course>
  <speed>0.73</speed>
  <fix>3d</fix>
</trkpt>
<trkpt lat="33.810069" lon="-118.3941433">
  <ele>-0.115</ele>
  <time>2026-09-01T01:13:00Z</time>
  <course>186.24</course>
  <speed>0.7283543093852057</speed>
  <fix>3d</fix>
</trkpt>
<trkpt lat="33.8100699" lon="-118.3941418">
  <ele>-0.1</ele>
  <time>2026-09-01T01:13:00Z</time>
  <course>223.26</course>
  <speed>0.73</speed>
  <fix>3d</fix>
</trkpt>
<trkpt lat="33.8100685" lon="-118.3941439">
  <ele>-0.114</ele>
  <time>2026-09-01T01:13:00Z</time>
  <course>186.24</course>
  <speed>0.7283543093852057</speed>
  <fix>3d</fix>
</trkpt>
<trkpt lat="33.810069" lon="-118.3941429">
  <ele>-0.1</ele>
  <time>2026-09-01T01:13:00Z</time>
  <course>223.26</course>
  <speed>0.73</speed>
  <fix>3d</fix>
</trkpt>
<trkpt lat="33.810068" lon="-118.3941444">
  <ele>-0.113</ele>
  <time>2026-09-01T01:13:00Z</time>
  <course>186.24</course>
  <speed>0.7283543093852057</speed>
  <fix>3d</fix>
</trkpt>
<trkpt lat="33.810069" lon="-118.3941429">
  <ele>-0.1</ele>
  <time>2026-09-01T01:13:00Z</time>
  <course>223.26</course>
  <speed>0.73</speed>
  <fix>3d</fix>
</trkpt>
<trkpt lat="33.8100676" lon="-118.394145">
  <ele>-0.113</ele>
  <time>2026-09-01T01:13:00Z</time>
  <course>186.24</course>
  <speed>0.7283543093852057</speed>
  <fix>3d</fix>
</trkpt>
<trkpt lat="33.810068" lon="-118.394144">
  <ele>-0.1</ele>
  <time>2026-09-01T01:13:00Z</time>
  <course>223.26</course>
  <speed>0.73</speed>
  <fix>3d</fix>
</trkpt>
<trkpt lat="33.8100671" lon="-118.3941455">
  <ele>-0.113</ele>
  <time>2026-09-01T01:13:00Z</time>
  <course>186.24</course>
  <speed>0.7283543093852057</speed>
  <fix>3d</fix>
</trkpt>
<trkpt lat="33.810068" lon="-118.394144">
  <ele>-0.1</ele>
  <time>2026-09-01T01:13:00Z</time>
  <course>223.26</course>
  <speed>0.73</speed>
  <fix>3d</fix>
</trkpt>
<trkpt lat="33.8100666" lon="-118.3941461">
  <ele>-0.113</ele>
  <time>2026-09-01T01:13:00Z</time>
  <course>186.24</course>
  <speed>0.7283543093852057</speed>
  <fix>3d</fix>
</trkpt>
<trkpt lat="33.8100671" lon="-118.3941451">
  <ele>-0.11</ele>
  <time>2026-09-01T01:13:00Z</time>
  <course>223.26</course>
  <speed>0.73</speed>
  <fix>3d</fix>
</trkpt>
<trkpt lat="33.8100661" lon="-118.3941466">
  <ele>-0.112</ele>
  <time>2026-09-01T01:13:00Z</time>
  <course>186.24</course>
  <speed>0.7283543093852057</speed>
  <fix>3d</fix>
</trkpt>
<trkpt lat="33.8100671" lon="-118.3941451">
  <ele>-0.11</ele>
  <time>2026-09-01T01:13:00Z</time>
  <course>223.26</course>
  <speed>0.73</speed>
  <fix>3d</fix>
</trkpt>
<trkpt lat="33.8100656" lon="-118.3941471">
  <ele>-0.113</ele>
  <time>2026-09-01T01:13:00Z</time>
  <course>186.24</course>
  <speed>0.7283543093852057</speed>
  <fix>3d</fix>
</trkpt>
<trkpt lat="33.8100661" lon="-118.3941462">
  <ele>-0.1</ele>
  <time>2026-09-01T01:13:00Z</time>
  <course>223.26</course>
  <speed>0.73</speed>
  <fix>3d</fix>
</trkpt>
<trkpt lat="33.8100652" lon="-118.3941477">
  <ele>-0.114</ele>
  <time>2026-09-01T01:13:00Z</time>
  <course>186.24</course>
  <speed>0.7283543093852057</speed>
  <fix>3d</fix>
</trkpt>
<trkpt lat="33.8100661" lon="-118.3941462">
  <ele>-0.1</ele>
  <time>2026-09-01T01:13:00Z</time>
  <course>223.26</course>
  <speed>0.73</speed>
  <fix>3d</fix>
</trkpt>
<trkpt lat="33.8100647" lon="-118.3941482">
  <ele>-0.114</ele>
  <time>2026-09-01T01:13:00Z</time>
  <course>186.24</course>
  <speed>0.7283543093852057</speed>
  <fix>3d</fix>
</trkpt>
<trkpt lat="33.8100651" lon="-118.3941473">
  <ele>-0.1</ele>
  <time>2026-09-01T01:13:00Z</time>
  <course>223.26</course>
  <speed>0.73</speed>
  <fix>3d</fix>
</trkpt>
<trkpt lat="33.8100642" lon="-118.3941488">
  <ele>-0.114</ele>
  <time>2026-09-01T01:13:00Z</time>
  <course>186.24</course>
  <speed>0.7283543093852057</speed>
  <fix>3d</fix>
</trkpt>
<trkpt lat="33.8100651" lon="-118.3941473">
  <ele>-0.1</ele>
  <time>2026-09-01T01:13:00Z</time>
  <course>223.26</course>
  <speed>0.73</speed>
  <fix>3d</fix>
</trkpt>
<trkpt lat="33.8100637" lon="-118.3941493">
  <ele>-0.115</ele>
  <time>2026-09-01T01:13:00Z</time>
  <course>186.24</course>
  <speed>0.7283543093852057</speed>
  <fix>3d</fix>
</trkpt>
<trkpt lat="33.8100642" lon="-118.3941484">
  <ele>-0.1</ele>
  <time>2026-09-01T01:13:00Z</time>
  <course>223.26</course>
  <speed>0.73</speed>
  <fix>3d</fix>
</trkpt>
<trkpt lat="33.8100632" lon="-118.3941499">
  <ele>-0.116</ele>
  <time>2026-09-01T01:13:00Z</time>
  <course>186.24</course>
  <speed>0.7283543093852057</speed>
  <fix>3d</fix>
</trkpt>
<trkpt lat="33.8100642" lon="-118.3941484">
  <ele>-0.1</ele>
  <time>2026-09-01T01:13:00Z</time>
  <course>223.26</course>
  <speed>0.73</speed>
  <fix>3d</fix>
</trkpt>
<trkpt lat="33.8100628" lon="-118.3941504">
  <ele>-0.116</ele>
  <time>2026-09-01T01:13:00Z</time>
  <course>186.24</course>
  <speed>0.7283543093852057</speed>
  <fix>3d</fix>
</trkpt>
<trkpt lat="33.8100632" lon="-118.3941495">
  <ele>-0.1</ele>
  <time>2026-09-01T01:13:00Z</time>
  <course>223.26</course>
  <speed>0.73</speed>
  <fix>3d</fix>
</trkpt>
<trkpt lat="33.8100623" lon="-118.394151">
  <ele>-0.115</ele>
  <time>2026-09-01T01:13:00Z</time>
  <course>186.24</course>
  <speed>0.7283543093852057</speed>
  <fix>3d</fix>
</trkpt>
<trkpt lat="33.8100632" lon="-118.3941495">
  <ele>-0.1</ele>
  <time>2026-09-01T01:13:00Z</time>
  <course>223.26</course>
  <speed>0.73</speed>
  <fix>3d</fix>
</trkpt>
<trkpt lat="33.8100618" lon="-118.3941515">
  <ele>-0.114</ele>
  <time>2026-09-01T01:13:00Z</time>
  <course>186.24</course>
  <speed>0.7283543093852057</speed>
  <fix>3d</fix>
</trkpt>
<trkpt lat="33.8100623" lon="-118.3941506">
  <ele>-0.11</ele>
  <time>2026-09-01T01:13:00Z</time>
  <course>223.26</course>
  <speed>0.73</speed>
  <fix>3d</fix>
</trkpt>
<trkpt lat="33.8100613" lon="-118.3941521">
  <ele>-0.113</ele>
  <time>2026-09-01T01:13:00Z</time>
  <course>186.24</course>
  <speed>0.7283543093852057</speed>
  <fix>3d</fix>
</trkpt>
<trkpt lat="33.8100623" lon="-118.3941506">
  <ele>-0.11</ele>
  <time>2026-09-01T01:13:00Z</time>
  <course>223.26</course>
  <speed>0.73</speed>
  <fix>3d</fix>
</trkpt>
<trkpt lat="33.8100608" lon="-118.3941526">
  <ele>-0.112</ele>
  <time>2026-09-01T01:13:00Z</time>
  <course>186.24</course>
  <speed>0.7283543093852057</speed>
  <fix>3d</fix>
</trkpt>
<trkpt lat="33.8100613" lon="-118.3941516">
  <ele>-0.1</ele>
  <time>2026-09-01T01:13:00Z</time>
  <course>223.26</course>
  <speed>0.73</speed>
  <fix>3d</fix>
</trkpt>
<trkpt lat="33.8100604" lon="-118.3941532">
  <ele>-0.111</ele>
  <time>2026-09-01T01:13:00Z</time>
  <course>186.24</course>
  <speed>0.7283543093852057</speed>
  <fix>3d</fix>
</trkpt>
<trkpt lat="33.8100613" lon="-118.3941516">
  <ele>-0.1</ele>
  <time>2026-09-01T01:13:00Z</time>
  <course>223.26</course>
  <speed>0.73</speed>
  <fix>3d</fix>
</trkpt>
<trkpt lat="33.8100599" lon="-118.3941537">
  <ele>-0.11</ele>
  <time>2026-09-01T01:13:00Z</time>
  <course>186.24</course>
  <speed>0.7283543093852057</speed>
  <fix>3d</fix>
</trkpt>
<trkpt lat="33.8100604" lon="-118.3941527">
  <ele>-0.1</ele>
  <time>2026-09-01T01:13:00Z</time>
  <course>223.26</course>
  <speed>0.73</speed>
  <fix>3d</fix>
</trkpt>
<trkpt lat="33.8100594" lon="-118.3941542">
  <ele>-0.111</ele>
  <time>2026-09-01T01:13:00Z</time>
  <course>186.24</course>
  <speed>0.7283543093852057</speed>
  <fix>3d</fix>
</trkpt>
<trkpt lat="33.8100604" lon="-118.3941527">
  <ele>-0.1</ele>
  <time>2026-09-01T01:13:00Z</time>
  <course>223.26</course>
  <speed>0.73</speed>
  <fix>3d</fix>
</trkpt>
<trkpt lat="33.8100589" lon="-118.3941548">
  <ele>-0.112</ele>
  <time>2026-09-01T01:13:00Z</time>
  <course>186.24</course>
  <speed>0.7283543093852057</speed>
  <fix>3d</fix>
</trkpt>
<trkpt lat="33.8100594" lon="-118.3941538">
  <ele>-0.1</ele>
  <time>2026-09-01T01:13:00Z</time>
  <course>223.26</course>
  <speed>0.73</speed>
  <fix>3d</fix>
</trkpt>
<trkpt lat="33.8100584" lon="-118.3941553">
  <ele>-0.113</ele>
  <time>2026-09-01T01:13:00Z</time>
  <course>186.24</course>
  <speed>0.7283543093852057</speed>
  <fix>3d</fix>
</trkpt>
<trkpt lat="33.8100594" lon="-118.3941538">
  <ele>-0.1</ele>
  <time>2026-09-01T01:13:00Z</time>
  <course>223.26</course>
  <speed>0.73</speed>
  <fix>3d</fix>
</trkpt>
<trkpt lat="33.810058" lon="-118.3941559">
  <ele>-0.114</ele>
  <time>2026-09-01T01:13:00Z</time>
  <course>186.24</course>
  <speed>0.7283543093852057</speed>
  <fix>3d</fix>
</trkpt>
<trkpt lat="33.8100584" lon="-118.3941549">
  <ele>-0.1</ele>
  <time>2026-09-01T01:13:00Z</time>
  <course>223.26</course>
  <speed>0.73</speed>
  <fix>3d</fix>
</trkpt>
<trkpt lat="33.8100575" lon="-118.3941564">
  <ele>-0.114</ele>
  <time>2026-09-01T01:13:00Z</time>
  <course>186.24</course>
  <speed>0.7283543093852057</speed>
  <fix>3d</fix>
</trkpt>
<trkpt lat="33.8100584" lon="-118.3941549">
  <ele>-0.1</ele>
  <time>2026-09-01T01:13:00Z</time>
  <course>223.26</course>
  <speed>0.73</speed>
  <fix>3d</fix>
</trkpt>
<trkpt lat="33.810057" lon="-118.394157">
  <ele>-0.115</ele>
  <time>2026-09-01T01:13:00Z</time>
  <course>186.24</course>
  <speed>0.7283543093852057</speed>
  <fix>3d</fix>
</trkpt>
<trkpt lat="33.8100575" lon="-118.394156">
  <ele>-0.11</ele>
  <time>2026-09-01T01:13:00Z</time>
  <course>223.26</course>
  <speed>0.73</speed>
  <fix>3d</fix>
</trkpt>
<trkpt lat="33.8100565" lon="-118.3941575">
  <ele>-0.115</ele>
  <time>2026-09-01T01:13:00Z</time>
  <course>186.24</course>
  <speed>0.7283543093852057</speed>
  <fix>3d</fix>
</trkpt>
<trkpt lat="33.8100575" lon="-118.394156">
  <ele>-0.11</ele>
  <time>2026-09-01T01:13:00Z</time>
  <course>223.26</course>
  <speed>0.73</speed>
  <fix>3d</fix>
</trkpt>
<trkpt lat="33.810056" lon="-118.3941581">
  <ele>-0.114</ele>
  <time>2026-09-01T01:13:00Z</time>
  <course>186.24</course>
  <speed>0.7283543093852057</speed>
  <fix>3d</fix>
</trkpt>
<trkpt lat="33.8100565" lon="-118.3941571">
  <ele>-0.1</ele>
  <time>2026-09-01T01:13:00Z</time>
  <course>223.26</course>
  <speed>0.73</speed>
  <fix>3d</fix>
</trkpt>
<trkpt lat="33.8100556" lon="-118.3941586">
  <ele>-0.113</ele>
  <time>2026-09-01T01:13:00Z</time>
  <course>186.24</course>
  <speed>0.7283543093852057</speed>
  <fix>3d</fix>
</trkpt>
<trkpt lat="33.8100565" lon="-118.3941571">
  <ele>-0.1</ele>
  <time>2026-09-01T01:13:00Z</time>
  <course>223.26</course>
  <speed>0.73</speed>
  <fix>3d</fix>
</trkpt>
<trkpt lat="33.8100551" lon="-118.3941591">
  <ele>-0.112</ele>
  <time>2026-09-01T01:13:00Z</time>
  <course>186.24</course>
  <speed>0.7283543093852057</speed>
  <fix>3d</fix>
</trkpt>
<trkpt lat="33.8100556" lon="-118.3941582">
  <ele>-0.1</ele>
  <time>2026-09-01T01:13:00Z</time>
  <course>223.26</course>
  <speed>0.73</speed>
  <fix>3d</fix>
</trkpt>
<trkpt lat="33.8100546" lon="-118.3941597">
  <ele>-0.112</ele>
  <time>2026-09-01T01:13:00Z</time>
  <course>186.24</course>
  <speed>0.7283543093852057</speed>
  <fix>3d</fix>
</trkpt>
<trkpt lat="33.8100556" lon="-118.3941582">
  <ele>-0.1</ele>
  <time>2026-09-01T01:13:00Z</time>
  <course>223.26</course>
  <speed>0.73</speed>
  <fix>3d</fix>
</trkpt>
<trkpt lat="33.8100541" lon="-118.3941602">
  <ele>-0.111</ele>
  <time>2026-09-01T01:13:00Z</time>
  <course>186.24</course>
  <speed>0.7283543093852057</speed>
  <fix>3d</fix>
</trkpt>
<trkpt lat="33.8100546" lon="-118.3941593">
  <ele>-0.1</ele>
  <time>2026-09-01T01:13:00Z</time>
  <course>223.26</course>
  <speed>0.73</speed>
  <fix>3d</fix>
</trkpt>
<trkpt lat="33.8100536" lon="-118.3941608">
  <ele>-0.111</ele>
  <time>2026-09-01T01:13:00Z</time>
  <course>186.24</course>
  <speed>0.7213875518748573</speed>
  <fix>3d</fix>
</trkpt>
<trkpt lat="33.8100546" lon="-118.3941593">
  <ele>-0.1</ele>
  <time>2026-09-01T01:13:00Z</time>
  <course>223.26</course>
  <speed>0.73</speed>
  <fix>3d</fix>
</trkpt>
<trkpt lat="33.8100532" lon="-118.3941613">
  <ele>-0.111</ele>
  <time>2026-09-01T01:13:00Z</time>
  <course>186.24</course>
  <speed>0.7283543093852057</speed>
  <fix>3d</fix>
</trkpt>
<trkpt lat="33.8100536" lon="-118.3941604">
  <ele>-0.1</ele>
  <time>2026-09-01T01:13:00Z</time>
  <course>223.26</course>
  <speed>0.73</speed>
  <fix>3d</fix>
</trkpt>
<trkpt lat="33.8100527" lon="-118.3941619">
  <ele>-0.111</ele>
  <time>2026-09-01T01:13:00Z</time>
  <course>186.24</course>
  <speed>0.7283543093852057</speed>
  <fix>3d</fix>
</trkpt>
<trkpt lat="33.8100536" lon="-118.3941604">
  <ele>-0.1</ele>
  <time>2026-09-01T01:13:00Z</time>
  <course>223.26</course>
  <speed>0.73</speed>
  <fix>3d</fix>
</trkpt>
<trkpt lat="33.8100522" lon="-118.3941624">
  <ele>-0.112</ele>
  <time>2026-09-01T01:13:00Z</time>
  <course>186.24</course>
  <speed>0.7283543093852057</speed>
  <fix>3d</fix>
</trkpt>
<trkpt lat="33.8100527" lon="-118.3941614">
  <ele>-0.1</ele>
  <time>2026-09-01T01:13:00Z</time>
  <course>223.26</course>
  <speed>0.73</speed>
  <fix>3d</fix>
</trkpt>
<trkpt lat="33.8100517" lon="-118.394163">
  <ele>-0.113</ele>
  <time>2026-09-01T01:13:00Z</time>
  <course>186.24</course>
  <speed>0.7213875518748573</speed>
  <fix>3d</fix>
</trkpt>
<trkpt lat="33.8100527" lon="-118.3941614">
  <ele>-0.1</ele>
  <time>2026-09-01T01:13:00Z</time>
  <course>223.26</course>
  <speed>0.73</speed>
  <fix>3d</fix>
</trkpt>
<trkpt lat="33.8100512" lon="-118.3941635">
  <ele>-0.114</ele>
  <time>2026-09-01T01:13:00Z</time>
  <course>186.24</course>
  <speed>0.7213875518748573</speed>
  <fix>3d</fix>
</trkpt>
<trkpt lat="33.8100517" lon="-118.3941625">
  <ele>-0.11</ele>
  <time>2026-09-01T01:13:00Z</time>
  <course>223.26</course>
  <speed>0.73</speed>
  <fix>3d</fix>
</trkpt>
<trkpt lat="33.8100508" lon="-118.3941641">
  <ele>-0.114</ele>
  <time>2026-09-01T01:13:00Z</time>
  <course>186.24</course>
  <speed>0.7213875518748573</speed>
  <fix>3d</fix>
</trkpt>
<trkpt lat="33.8100517" lon="-118.3941625">
  <ele>-0.11</ele>
  <time>2026-09-01T01:13:00Z</time>
  <course>223.26</course>
  <speed>0.73</speed>
  <fix>3d</fix>
</trkpt>
<trkpt lat="33.8100503" lon="-118.3941646">
  <ele>-0.114</ele>
  <time>2026-09-01T01:13:00Z</time>
  <course>186.24</course>
  <speed>0.7213875518748573</speed>
  <fix>3d</fix>
</trkpt>
<trkpt lat="33.8100508" lon="-118.3941636">
  <ele>-0.1</ele>
  <time>2026-09-01T01:13:00Z</time>
  <course>223.26</course>
  <speed>0.73</speed>
  <fix>3d</fix>
</trkpt>
<trkpt lat="33.8100498" lon="-118.3941651">
  <ele>-0.114</ele>
  <time>2026-09-01T01:13:00Z</time>
  <course>186.24</course>
  <speed>0.7213875518748573</speed>
  <fix>3d</fix>
</trkpt>
<trkpt lat="33.8100508" lon="-118.3941636">
  <ele>-0.1</ele>
  <time>2026-09-01T01:13:00Z</time>
  <course>223.26</course>
  <speed>0.73</speed>
  <fix>3d</fix>
</trkpt>
<trkpt lat="33.8100493" lon="-118.3941657">
  <ele>-0.115</ele>
  <time>2026-09-01T01:13:00Z</time>
  <course>186.24</course>
  <speed>0.7213875518748573</speed>
  <fix>3d</fix>
</trkpt>
<trkpt lat="33.8100498" lon="-118.3941647">
  <ele>-0.1</ele>
  <time>2026-09-01T01:13:00Z</time>
  <course>223.26</course>
  <speed>0.73</speed>
  <fix>3d</fix>
</trkpt>
<trkpt lat="33.8100488" lon="-118.3941662">
  <ele>-0.116</ele>
  <time>2026-09-01T01:13:00Z</time>
  <course>186.24</course>
  <speed>0.7213875518748573</speed>
  <fix>3d</fix>
</trkpt>
<trkpt lat="33.8100498" lon="-118.3941647">
  <ele>-0.1</ele>
  <time>2026-09-01T01:13:00Z</time>
  <course>223.26</course>
  <speed>0.73</speed>
  <fix>3d</fix>
</trkpt>
<trkpt lat="33.8100484" lon="-118.3941668">
  <ele>-0.115</ele>
  <time>2026-09-01T01:13:00Z</time>
  <course>186.24</course>
  <speed>0.7213875518748573</speed>
  <fix>3d</fix>
</trkpt>
<trkpt lat="33.8100488" lon="-118.3941658">
  <ele>-0.1</ele>
  <time>2026-09-01T01:13:00Z</time>
  <course>223.26</course>
  <speed>0.73</speed>
  <fix>3d</fix>
</trkpt>
<trkpt lat="33.8100479" lon="-118.3941673">
  <ele>-0.115</ele>
  <time>2026-09-01T01:13:00Z</time>
  <course>186.24</course>
  <speed>0.7213875518748573</speed>
  <fix>3d</fix>
</trkpt>
<trkpt lat="33.8100488" lon="-118.3941658">
  <ele>-0.1</ele>
  <time>2026-09-01T01:13:00Z</time>
  <course>223.26</course>
  <speed>0.73</speed>
  <fix>3d</fix>
</trkpt>
<trkpt lat="33.8100474" lon="-118.3941679">
  <ele>-0.115</ele>
  <time>2026-09-01T01:13:00Z</time>
  <course>186.24</course>
  <speed>0.7213875518748573</speed>
  <fix>3d</fix>
</trkpt>
<trkpt lat="33.8100479" lon="-118.3941669">
  <ele>-0.1</ele>
  <time>2026-09-01T01:13:00Z</time>
  <course>223.26</course>
  <speed>0.73</speed>
  <fix>3d</fix>
</trkpt>
<trkpt lat="33.8100469" lon="-118.3941684">
  <ele>-0.114</ele>
  <time>2026-09-01T01:13:00Z</time>
  <course>186.24</course>
  <speed>0.7213875518748573</speed>
  <fix>3d</fix>
</trkpt>
<trkpt lat="33.8100479" lon="-118.3941669">
  <ele>-0.1</ele>
  <time>2026-09-01T01:13:00Z</time>
  <course>223.26</course>
  <speed>0.73</speed>
  <fix>3d</fix>
</trkpt>
<trkpt lat="33.8100464" lon="-118.394169">
  <ele>-0.114</ele>
  <time>2026-09-01T01:13:00Z</time>
  <course>186.24</course>
  <speed>0.7213875518748573</speed>
  <fix>3d</fix>
</trkpt>
<trkpt lat="33.8100469" lon="-118.394168">
  <ele>-0.11</ele>
  <time>2026-09-01T01:13:00Z</time>
  <course>223.26</course>
  <speed>0.73</speed>
  <fix>3d</fix>
</trkpt>
<trkpt lat="33.810046" lon="-118.3941695">
  <ele>-0.114</ele>
  <time>2026-09-01T01:13:01Z</time>
  <course>186.24</course>
  <speed>0.7213875518748573</speed>
  <fix>3d</fix>
</trkpt>
<trkpt lat="33.8100469" lon="-118.394168">
  <ele>-0.11</ele>
  <time>2026-09-01T01:13:01Z</time>
  <course>223.26</course>
  <speed>0.73</speed>
  <fix>3d</fix>
</trkpt>
<trkpt lat="33.8100455" lon="-118.3941701">
  <ele>-0.114</ele>
  <time>2026-09-01T01:13:01Z</time>
  <course>186.24</course>
  <speed>0.7213875518748573</speed>
  <fix>3d</fix>
</trkpt>
<trkpt lat="33.8100459" lon="-118.3941691">
  <ele>-0.1</ele>
  <time>2026-09-01T01:13:01Z</time>
  <course>223.26</course>
  <speed>0.73</speed>
  <fix>3d</fix>
</trkpt>
<trkpt lat="33.810045" lon="-118.3941706">
  <ele>-0.113</ele>
  <time>2026-09-01T01:13:01Z</time>
  <course>186.24</course>
  <speed>0.7213875518748573</speed>
  <fix>3d</fix>
</trkpt>
<trkpt lat="33.8100459" lon="-118.3941691">
  <ele>-0.1</ele>
  <time>2026-09-01T01:13:01Z</time>
  <course>223.26</course>
  <speed>0.73</speed>
  <fix>3d</fix>
</trkpt>
<trkpt lat="33.8100445" lon="-118.3941711">
  <ele>-0.111</ele>
  <time>2026-09-01T01:13:01Z</time>
  <course>186.24</course>
  <speed>0.7213875518748573</speed>
  <fix>3d</fix>
</trkpt>
<trkpt lat="33.810045" lon="-118.3941702">
  <ele>-0.1</ele>
  <time>2026-09-01T01:13:01Z</time>
  <course>223.26</course>
  <speed>0.73</speed>
  <fix>3d</fix>
</trkpt>
<trkpt lat="33.810044" lon="-118.3941717">
  <ele>-0.11</ele>
  <time>2026-09-01T01:13:01Z</time>
  <course>186.24</course>
  <speed>0.7213875518748573</speed>
  <fix>3d</fix>
</trkpt>
<trkpt lat="33.810045" lon="-118.3941702">
  <ele>-0.1</ele>
  <time>2026-09-01T01:13:01Z</time>
  <course>223.26</course>
  <speed>0.73</speed>
  <fix>3d</fix>
</trkpt>
<trkpt lat="33.8100435" lon="-118.3941722">
  <ele>-0.11</ele>
  <time>2026-09-01T01:13:01Z</time>
  <course>186.24</course>
  <speed>0.7283543093852057</speed>
  <fix>3d</fix>
</trkpt>
<trkpt lat="33.810044" lon="-118.3941713">
  <ele>-0.1</ele>
  <time>2026-09-01T01:13:01Z</time>
  <course>223.26</course>
  <speed>0.73</speed>
  <fix>3d</fix>
</trkpt>
<trkpt lat="33.8100431" lon="-118.3941728">
  <ele>-0.109</ele>
  <time>2026-09-01T01:13:01Z</time>
  <course>186.24</course>
  <speed>0.7283543093852057</speed>
  <fix>3d</fix>
</trkpt>
<trkpt lat="33.810044" lon="-118.3941713">
  <ele>-0.1</ele>
  <time>2026-09-01T01:13:01Z</time>
  <course>223.26</course>
  <speed>0.73</speed>
  <fix>3d</fix>
</trkpt>
<trkpt lat="33.8100426" lon="-118.3941733">
  <ele>-0.109</ele>
  <time>2026-09-01T01:13:01Z</time>
  <course>186.24</course>
  <speed>0.7283543093852057</speed>
  <fix>3d</fix>
</trkpt>
<trkpt lat="33.8100431" lon="-118.3941723">
  <ele>-0.1</ele>
  <time>2026-09-01T01:13:01Z</time>
  <course>223.26</course>
  <speed>0.73</speed>
  <fix>3d</fix>
</trkpt>
<trkpt lat="33.8100421" lon="-118.3941739">
  <ele>-0.108</ele>
  <time>2026-09-01T01:13:01Z</time>
  <course>186.24</course>
  <speed>0.7213875518748573</speed>
  <fix>3d</fix>
</trkpt>
<trkpt lat="33.8100431" lon="-118.3941723">
  <ele>-0.1</ele>
  <time>2026-09-01T01:13:01Z</time>
  <course>223.26</course>
  <speed>0.73</speed>
  <fix>3d</fix>
</trkpt>
<trkpt lat="33.8100416" lon="-118.3941744">
  <ele>-0.106</ele>
  <time>2026-09-01T01:13:01Z</time>
  <course>186.24</course>
  <speed>0.7283543093852057</speed>
  <fix>3d</fix>
</trkpt>
<trkpt lat="33.810042" lon="-118.3941734">
  <ele>-0.11</ele>
  <time>2026-09-01T01:13:01Z</time>
  <course>223.26</course>
  <speed>0.73</speed>
  <fix>3d</fix>
</trkpt>
<trkpt lat="33.8100411" lon="-118.394175">
  <ele>-0.104</ele>
  <time>2026-09-01T01:13:01Z</time>
  <course>186.24</course>
  <speed>0.7283543093852057</speed>
  <fix>3d</fix>
</trkpt>
<trkpt lat="33.810042" lon="-118.3941734">
  <ele>-0.11</ele>
  <time>2026-09-01T01:13:01Z</time>
  <course>223.26</course>
  <speed>0.73</speed>
  <fix>3d</fix>
</trkpt>
<trkpt lat="33.8100407" lon="-118.3941755">
  <ele>-0.103</ele>
  <time>2026-09-01T01:13:01Z</time>
  <course>186.24</course>
  <speed>0.7283543093852057</speed>
  <fix>3d</fix>
</trkpt>
<trkpt lat="33.8100411" lon="-118.3941745">
  <ele>-0.1</ele>
  <time>2026-09-01T01:13:01Z</time>
  <course>223.26</course>
  <speed>0.73</speed>
  <fix>3d</fix>
</trkpt>
<trkpt lat="33.8100402" lon="-118.3941761">
  <ele>-0.103</ele>
  <time>2026-09-01T01:13:01Z</time>
  <course>186.24</course>
  <speed>0.7283543093852057</speed>
  <fix>3d</fix>
</trkpt>
<trkpt lat="33.8100411" lon="-118.3941745">
  <ele>-0.1</ele>
  <time>2026-09-01T01:13:01Z</time>
  <course>223.26</course>
  <speed>0.73</speed>
  <fix>3d</fix>
</trkpt>
<trkpt lat="33.8100397" lon="-118.3941766">
  <ele>-0.103</ele>
  <time>2026-09-01T01:13:01Z</time>
  <course>186.24</course>
  <speed>0.7283543093852057</speed>
  <fix>3d</fix>
</trkpt>
<trkpt lat="33.8100402" lon="-118.3941756">
  <ele>-0.1</ele>
  <time>2026-09-01T01:13:01Z</time>
  <course>223.26</course>
  <speed>0.73</speed>
  <fix>3d</fix>
</trkpt>
<trkpt lat="33.8100392" lon="-118.3941771">
  <ele>-0.103</ele>
  <time>2026-09-01T01:13:01Z</time>
  <course>186.24</course>
  <speed>0.7283543093852057</speed>
  <fix>3d</fix>
</trkpt>
<trkpt lat="33.8100402" lon="-118.3941756">
  <ele>-0.1</ele>
  <time>2026-09-01T01:13:01Z</time>
  <course>223.26</course>
  <speed>0.73</speed>
  <fix>3d</fix>
</trkpt>
<trkpt lat="33.8100387" lon="-118.3941777">
  <ele>-0.103</ele>
  <time>2026-09-01T01:13:01Z</time>
  <course>186.24</course>
  <speed>0.7283543093852057</speed>
  <fix>3d</fix>
</trkpt>
<trkpt lat="33.8100392" lon="-118.3941767">
  <ele>-0.1</ele>
  <time>2026-09-01T01:13:01Z</time>
  <course>223.26</course>
  <speed>0.73</speed>
  <fix>3d</fix>
</trkpt>
<trkpt lat="33.8100382" lon="-118.3941782">
  <ele>-0.104</ele>
  <time>2026-09-01T01:13:01Z</time>
  <course>186.24</course>
  <speed>0.7283543093852057</speed>
  <fix>3d</fix>
</trkpt>
<trkpt lat="33.8100392" lon="-118.3941767">
  <ele>-0.1</ele>
  <time>2026-09-01T01:13:01Z</time>
  <course>223.26</course>
  <speed>0.73</speed>
  <fix>3d</fix>
</trkpt>
<trkpt lat="33.8100378" lon="-118.3941788">
  <ele>-0.105</ele>
  <time>2026-09-01T01:13:01Z</time>
  <course>186.24</course>
  <speed>0.7283543093852057</speed>
  <fix>3d</fix>
</trkpt>
<trkpt lat="33.8100383" lon="-118.3941778">
  <ele>-0.1</ele>
  <time>2026-09-01T01:13:01Z</time>
  <course>223.26</course>
  <speed>0.73</speed>
  <fix>3d</fix>
</trkpt>
<trkpt lat="33.8100373" lon="-118.3941793">
  <ele>-0.105</ele>
  <time>2026-09-01T01:13:01Z</time>
  <course>186.24</course>
  <speed>0.7213875518748573</speed>
  <fix>3d</fix>
</trkpt>
<trkpt lat="33.8100383" lon="-118.3941778">
  <ele>-0.1</ele>
  <time>2026-09-01T01:13:01Z</time>
  <course>223.26</course>
  <speed>0.73</speed>
  <fix>3d</fix>
</trkpt>
<trkpt lat="33.8100368" lon="-118.3941799">
  <ele>-0.106</ele>
  <time>2026-09-01T01:13:01Z</time>
  <course>186.24</course>
  <speed>0.7213875518748573</speed>
  <fix>3d</fix>
</trkpt>
<trkpt lat="33.8100373" lon="-118.3941789">
  <ele>-0.11</ele>
  <time>2026-09-01T01:13:01Z</time>
  <course>223.26</course>
  <speed>0.73</speed>
  <fix>3d</fix>
</trkpt>
<trkpt lat="33.8100363" lon="-118.3941804">
  <ele>-0.107</ele>
  <time>2026-09-01T01:13:01Z</time>
  <course>186.24</course>
  <speed>0.7213875518748573</speed>
  <fix>3d</fix>
</trkpt>
<trkpt lat="33.8100373" lon="-118.3941789">
  <ele>-0.11</ele>
  <time>2026-09-01T01:13:01Z</time>
  <course>223.26</course>
  <speed>0.73</speed>
  <fix>3d</fix>
</trkpt>
<trkpt lat="33.8100359" lon="-118.3941809">
  <ele>-0.107</ele>
  <time>2026-09-01T01:13:01Z</time>
  <course>186.24</course>
  <speed>0.7213875518748573</speed>
  <fix>3d</fix>
</trkpt>
<trkpt lat="33.8100363" lon="-118.39418">
  <ele>-0.1</ele>
  <time>2026-09-01T01:13:01Z</time>
  <course>223.26</course>
  <speed>0.73</speed>
  <fix>3d</fix>
</trkpt>
<trkpt lat="33.8100354" lon="-118.3941815">
  <ele>-0.106</ele>
  <time>2026-09-01T01:13:01Z</time>
  <course>186.24</course>
  <speed>0.7213875518748573</speed>
  <fix>3d</fix>
</trkpt>
<trkpt lat="33.8100363" lon="-118.39418">
  <ele>-0.1</ele>
  <time>2026-09-01T01:13:01Z</time>
  <course>223.26</course>
  <speed>0.73</speed>
  <fix>3d</fix>
</trkpt>
<trkpt lat="33.8100349" lon="-118.394182">
  <ele>-0.106</ele>
  <time>2026-09-01T01:13:01Z</time>
  <course>186.24</course>
  <speed>0.7213875518748573</speed>
  <fix>3d</fix>
</trkpt>
<trkpt lat="33.8100353" lon="-118.3941811">
  <ele>-0.1</ele>
  <time>2026-09-01T01:13:01Z</time>
  <course>223.26</course>
  <speed>0.73</speed>
  <fix>3d</fix>
</trkpt>
<trkpt lat="33.8100344" lon="-118.3941826">
  <ele>-0.105</ele>
  <time>2026-09-01T01:13:01Z</time>
  <course>186.24</course>
  <speed>0.7213875518748573</speed>
  <fix>3d</fix>
</trkpt>
<trkpt lat="33.8100353" lon="-118.3941811">
  <ele>-0.1</ele>
  <time>2026-09-01T01:13:01Z</time>
  <course>223.26</course>
  <speed>0.73</speed>
  <fix>3d</fix>
</trkpt>
<trkpt lat="33.8100339" lon="-118.3941831">
  <ele>-0.104</ele>
  <time>2026-09-01T01:13:01Z</time>
  <course>186.24</course>
  <speed>0.7213875518748573</speed>
  <fix>3d</fix>
</trkpt>
<trkpt lat="33.8100344" lon="-118.3941821">
  <ele>-0.1</ele>
  <time>2026-09-01T01:13:01Z</time>
  <course>223.26</course>
  <speed>0.73</speed>
  <fix>3d</fix>
</trkpt>
<trkpt lat="33.8100335" lon="-118.3941837">
  <ele>-0.103</ele>
  <time>2026-09-01T01:13:01Z</time>
  <course>186.24</course>
  <speed>0.7213875518748573</speed>
  <fix>3d</fix>
</trkpt>
<trkpt lat="33.8100344" lon="-118.3941821">
  <ele>-0.1</ele>
  <time>2026-09-01T01:13:01Z</time>
  <course>223.26</course>
  <speed>0.73</speed>
  <fix>3d</fix>
</trkpt>
<trkpt lat="33.810033" lon="-118.3941842">
  <ele>-0.103</ele>
  <time>2026-09-01T01:13:01Z</time>
  <course>186.24</course>
  <speed>0.7213875518748573</speed>
  <fix>3d</fix>
</trkpt>
<trkpt lat="33.8100334" lon="-118.3941832">
  <ele>-0.1</ele>
  <time>2026-09-01T01:13:01Z</time>
  <course>223.26</course>
  <speed>0.73</speed>
  <fix>3d</fix>
</trkpt>
<trkpt lat="33.8100325" lon="-118.3941847">
  <ele>-0.103</ele>
  <time>2026-09-01T01:13:01Z</time>
  <course>186.24</course>
  <speed>0.7213875518748573</speed>
  <fix>3d</fix>
</trkpt>
<trkpt lat="33.8100334" lon="-118.3941832">
  <ele>-0.1</ele>
  <time>2026-09-01T01:13:01Z</time>
  <course>223.26</course>
  <speed>0.73</speed>
  <fix>3d</fix>
</trkpt>
<trkpt lat="33.810032" lon="-118.3941853">
  <ele>-0.103</ele>
  <time>2026-09-01T01:13:01Z</time>
  <course>186.24</course>
  <speed>0.7213875518748573</speed>
  <fix>3d</fix>
</trkpt>
<trkpt lat="33.8100325" lon="-118.3941843">
  <ele>-0.11</ele>
  <time>2026-09-01T01:13:01Z</time>
  <course>223.26</course>
  <speed>0.73</speed>
  <fix>3d</fix>
</trkpt>
<trkpt lat="33.8100316" lon="-118.3941858">
  <ele>-0.103</ele>
  <time>2026-09-01T01:13:01Z</time>
  <course>186.24</course>
  <speed>0.7213875518748573</speed>
  <fix>3d</fix>
</trkpt>
<trkpt lat="33.8100325" lon="-118.3941843">
  <ele>-0.11</ele>
  <time>2026-09-01T01:13:01Z</time>
  <course>223.26</course>
  <speed>0.73</speed>
  <fix>3d</fix>
</trkpt>
<trkpt lat="33.8100311" lon="-118.3941864">
  <ele>-0.103</ele>
  <time>2026-09-01T01:13:01Z</time>
  <course>186.24</course>
  <speed>0.7213875518748573</speed>
  <fix>3d</fix>
</trkpt>
<trkpt lat="33.8100315" lon="-118.3941854">
  <ele>-0.1</ele>
  <time>2026-09-01T01:13:01Z</time>
  <course>223.26</course>
  <speed>0.73</speed>
  <fix>3d</fix>
</trkpt>
<trkpt lat="33.8100306" lon="-118.3941869">
  <ele>-0.103</ele>
  <time>2026-09-01T01:13:01Z</time>
  <course>187.62</course>
  <speed>0.7353910524340094</speed>
  <fix>3d</fix>
</trkpt>
<trkpt lat="33.8100315" lon="-118.3941854">
  <ele>-0.1</ele>
  <time>2026-09-01T01:13:01Z</time>
  <course>223.26</course>
  <speed>0.73</speed>
  <fix>3d</fix>
</trkpt>
<trkpt lat="33.8100301" lon="-118.3941874">
  <ele>-0.103</ele>
  <time>2026-09-01T01:13:01Z</time>
  <course>191.32</course>
  <speed>0.7424957912338628</speed>
  <fix>3d</fix>
</trkpt>
<trkpt lat="33.8100306" lon="-118.3941865">
  <ele>-0.1</ele>
  <time>2026-09-01T01:13:01Z</time>
  <course>222.91</course>
  <speed>0.74</speed>
  <fix>3d</fix>
</trkpt>
<trkpt lat="33.8100296" lon="-118.394188">
  <ele>-0.104</ele>
  <time>2026-09-01T01:13:01Z</time>
  <course>195.18</course>
  <speed>0.757429864739964</speed>
  <fix>3d</fix>
</trkpt>
<trkpt lat="33.8100306" lon="-118.3941865">
  <ele>-0.1</ele>
  <time>2026-09-01T01:13:01Z</time>
  <course>222.91</course>
  <speed>0.74</speed>
  <fix>3d</fix>
</trkpt>
<trkpt lat="33.8100291" lon="-118.3941886">
  <ele>-0.106</ele>
  <time>2026-09-01T01:13:01Z</time>
  <course>199.08</course>
  <speed>0.7528612089887484</speed>
  <fix>3d</fix>
</trkpt>
<trkpt lat="33.8100296" lon="-118.3941876">
  <ele>-0.1</ele>
  <time>2026-09-01T01:13:01Z</time>
  <course>224.18</course>
  <speed>0.76</speed>
  <fix>3d</fix>
</trkpt>
<trkpt lat="33.8100287" lon="-118.3941893">
  <ele>-0.107</ele>
  <time>2026-09-01T01:13:01Z</time>
  <course>202.94</course>
  <speed>0.758023746329889</speed>
  <fix>3d</fix>
</trkpt>
<trkpt lat="33.8100296" lon="-118.3941876">
  <ele>-0.1</ele>
  <time>2026-09-01T01:13:01Z</time>
  <course>224.18</course>
  <speed>0.76</speed>
  <fix>3d</fix>
</trkpt>
<trkpt lat="33.8100283" lon="-118.3941899">
  <ele>-0.11</ele>
  <time>2026-09-01T01:13:01Z</time>
  <course>206.8</course>
  <speed>0.7516648189186453</speed>
  <fix>3d</fix>
</trkpt>
<trkpt lat="33.8100286" lon="-118.3941888">
  <ele>-0.1</ele>
  <time>2026-09-01T01:13:01Z</time>
  <course>228.8</course>
  <speed>0.76</speed>
  <fix>3d</fix>
</trkpt>
<trkpt lat="33.8100279" lon="-118.3941906">
  <ele>-0.112</ele>
  <time>2026-09-01T01:13:01Z</time>
  <course>210.67</course>
  <speed>0.7566372975210779</speed>
  <fix>3d</fix>
</trkpt>
<trkpt lat="33.8100286" lon="-118.3941888">
  <ele>-0.1</ele>
  <time>2026-09-01T01:13:01Z</time>
  <course>228.8</course>
  <speed>0.76</speed>
  <fix>3d</fix>
</trkpt>
<trkpt lat="33.8100276" lon="-118.3941913">
  <ele>-0.114</ele>
  <time>2026-09-01T01:13:01Z</time>
  <course>214.53</course>
  <speed>0.7558438992278762</speed>
  <fix>3d</fix>
</trkpt>
<trkpt lat="33.8100278" lon="-118.3941902">
  <ele>-0.11</ele>
  <time>2026-09-01T01:13:01Z</time>
  <course>235.4</course>
  <speed>0.76</speed>
  <fix>3d</fix>
</trkpt>
<trkpt lat="33.8100272" lon="-118.394192">
  <ele>-0.114</ele>
  <time>2026-09-01T01:13:01Z</time>
  <course>218.4</course>
  <speed>0.7539230729988305</speed>
  <fix>3d</fix>
</trkpt>
<trkpt lat="33.8100278" lon="-118.3941902">
  <ele>-0.11</ele>
  <time>2026-09-01T01:13:01Z</time>
  <course>235.4</course>
  <speed>0.76</speed>
  <fix>3d</fix>
</trkpt>
<trkpt lat="33.810027" lon="-118.3941928">
  <ele>-0.114</ele>
  <time>2026-09-01T01:13:01Z</time>
  <course>222.26</course>
  <speed>0.7558438992278762</speed>
  <fix>3d</fix>
</trkpt>
<trkpt lat="33.8100271" lon="-118.3941916">
  <ele>-0.1</ele>
  <time>2026-09-01T01:13:01Z</time>
  <course>242.7</course>
  <speed>0.76</speed>
  <fix>3d</fix>
</trkpt>
<trkpt lat="33.8100268" lon="-118.3941936">
  <ele>-0.113</ele>
  <time>2026-09-01T01:13:01Z</time>
  <course>226.12</course>
  <speed>0.7518643494673757</speed>
  <fix>3d</fix>
</trkpt>
<trkpt lat="33.8100271" lon="-118.3941916">
  <ele>-0.1</ele>
  <time>2026-09-01T01:13:01Z</time>
  <course>242.7</course>
  <speed>0.76</speed>
  <fix>3d</fix>
</trkpt>
<trkpt lat="33.8100266" lon="-118.3941943">
  <ele>-0.111</ele>
  <time>2026-09-01T01:13:01Z</time>
  <course>229.99</course>
  <speed>0.762954782408499</speed>
  <fix>3d</fix>
</trkpt>
<trkpt lat="33.8100265" lon="-118.3941931">
  <ele>-0.1</ele>
  <time>2026-09-01T01:13:01Z</time>
  <course>250.25</course>
  <speed>0.76</speed>
  <fix>3d</fix>
</trkpt>
<trkpt lat="33.8100265" lon="-118.3941951">
  <ele>-0.109</ele>
  <time>2026-09-01T01:13:01Z</time>
  <course>233.85</course>
  <speed>0.7553806987208503</speed>
  <fix>3d</fix>
</trkpt>
<trkpt lat="33.8100265" lon="-118.3941931">
  <ele>-0.1</ele>
  <time>2026-09-01T01:13:01Z</time>
  <course>250.25</course>
  <speed>0.76</speed>
  <fix>3d</fix>
</trkpt>
<trkpt lat="33.8100264" lon="-118.394196">
  <ele>-0.108</ele>
  <time>2026-09-01T01:13:01Z</time>
  <course>237.71</course>
  <speed>0.7605918747922567</speed>
  <fix>3d</fix>
</trkpt>
<trkpt lat="33.8100261" lon="-118.3941946">
  <ele>-0.1</ele>
  <time>2026-09-01T01:13:01Z</time>
  <course>257.91</course>
  <speed>0.76</speed>
  <fix>3d</fix>
</trkpt>
<trkpt lat="33.8100263" lon="-118.3941968">
  <ele>-0.108</ele>
  <time>2026-09-01T01:13:01Z</time>
  <course>241.58</course>
  <speed>0.7600657866263946</speed>
  <fix>3d</fix>
</trkpt>
<trkpt lat="33.8100261" lon="-118.3941946">
  <ele>-0.1</ele>
  <time>2026-09-01T01:13:01Z</time>
  <course>257.91</course>
  <speed>0.76</speed>
  <fix>3d</fix>
</trkpt>
<trkpt lat="33.8100263" lon="-118.3941976">
  <ele>-0.107</ele>
  <time>2026-09-01T01:13:01Z</time>
  <course>245.44</course>
  <speed>0.7623647421018367</speed>
  <fix>3d</fix>
</trkpt>
<trkpt lat="33.8100259" lon="-118.3941963">
  <ele>-0.1</ele>
  <time>2026-09-01T01:13:01Z</time>
  <course>265.61</course>
  <speed>0.76</speed>
  <fix>3d</fix>
</trkpt>
<trkpt lat="33.8100263" lon="-118.3941984">
  <ele>-0.106</ele>
  <time>2026-09-01T01:13:01Z</time>
  <course>249.31</course>
  <speed>0.758023746329889</speed>
  <fix>3d</fix>
</trkpt>
<trkpt lat="33.8100259" lon="-118.3941963">
  <ele>-0.1</ele>
  <time>2026-09-01T01:13:01Z</time>
  <course>265.61</course>
  <speed>0.76</speed>
  <fix>3d</fix>
</trkpt>
<trkpt lat="33.8100264" lon="-118.3941992">
  <ele>-0.105</ele>
  <time>2026-09-01T01:13:01Z</time>
  <course>253.17</course>
  <speed>0.757099729229908</speed>
  <fix>3d</fix>
</trkpt>
<trkpt lat="33.8100259" lon="-118.3941979">
  <ele>-0.11</ele>
  <time>2026-09-01T01:13:01Z</time>
  <course>273.33</course>
  <speed>0.76</speed>
  <fix>3d</fix>
</trkpt>
<trkpt lat="33.8100265" lon="-118.3942">
  <ele>-0.104</ele>
  <time>2026-09-01T01:13:01Z</time>
  <course>257.03</course>
  <speed>0.7569015788066504</speed>
  <fix>3d</fix>
</trkpt>
<trkpt lat="33.8100259" lon="-118.3941979">
  <ele>-0.11</ele>
  <time>2026-09-01T01:13:01Z</time>
  <course>273.33</course>
  <speed>0.76</speed>
  <fix>3d</fix>
</trkpt>
<trkpt lat="33.8100266" lon="-118.3942007">
  <ele>-0.102</ele>
  <time>2026-09-01T01:13:01Z</time>
  <course>260.9</course>
  <speed>0.7527283706623525</speed>
  <fix>3d</fix>
</trkpt>
<trkpt lat="33.8100261" lon="-118.3941996">
  <ele>-0.1</ele>
  <time>2026-09-01T01:13:01Z</time>
  <course>281.05</course>
  <speed>0.76</speed>
  <fix>3d</fix>
</trkpt>
<trkpt lat="33.8100268" lon="-118.3942015">
  <ele>-0.101</ele>
  <time>2026-09-01T01:13:01Z</time>
  <course>264.76</course>
  <speed>0.7523961722390672</speed>
  <fix>3d</fix>
</trkpt>
<trkpt lat="33.8100261" lon="-118.3941996">
  <ele>-0.1</ele>
  <time>2026-09-01T01:13:01Z</time>
  <course>281.05</course>
  <speed>0.76</speed>
  <fix>3d</fix>
</trkpt>
<trkpt lat="33.8100271" lon="-118.3942022">
  <ele>-0.1</ele>
  <time>2026-09-01T01:13:01Z</time>
  <course>268.62</course>
  <speed>0.7513321502504735</speed>
  <fix>3d</fix>
</trkpt>
<trkpt lat="33.8100264" lon="-118.3942012">
  <ele>-0.1</ele>
  <time>2026-09-01T01:13:01Z</time>
  <course>288.78</course>
  <speed>0.76</speed>
  <fix>3d</fix>
</trkpt>
<trkpt lat="33.8100274" lon="-118.394203">
  <ele>-0.099</ele>
  <time>2026-09-01T01:13:01Z</time>
  <course>272.49</course>
  <speed>0.758023746329889</speed>
  <fix>3d</fix>
</trkpt>
<trkpt lat="33.8100264" lon="-118.3942012">
  <ele>-0.1</ele>
  <time>2026-09-01T01:13:01Z</time>
  <course>288.78</course>
  <speed>0.76</speed>
  <fix>3d</fix>
</trkpt>
<trkpt lat="33.8100277" lon="-118.3942036">
  <ele>-0.099</ele>
  <time>2026-09-01T01:13:01Z</time>
  <course>276.35</course>
  <speed>0.7545197147855052</speed>
  <fix>3d</fix>
</trkpt>
<trkpt lat="33.8100268" lon="-118.3942027">
  <ele>-0.1</ele>
  <time>2026-09-01T01:13:01Z</time>
  <course>296.52</course>
  <speed>0.76</speed>
  <fix>3d</fix>
</trkpt>
<trkpt lat="33.8100281" lon="-118.3942043">
  <ele>-0.099</ele>
  <time>2026-09-01T01:13:01Z</time>
  <course>280.24</course>
  <speed>0.7543208866258443</speed>
  <fix>3d</fix>
</trkpt>
<trkpt lat="33.8100268" lon="-118.3942027">
  <ele>-0.1</ele>
  <time>2026-09-01T01:13:01Z</time>
  <course>296.52</course>
  <speed>0.76</speed>
  <fix>3d</fix>
</trkpt>
<trkpt lat="33.8100285" lon="-118.3942049">
  <ele>-0.1</ele>
  <time>2026-09-01T01:13:01Z</time>
  <course>284.11</course>
  <speed>0.7507329751649384</speed>
  <fix>3d</fix>
</trkpt>
<trkpt lat="33.8100276" lon="-118.3942041">
  <ele>-0.1</ele>
  <time>2026-09-01T01:13:01Z</time>
  <course>304.25</course>
  <speed>0.76</speed>
  <fix>3d</fix>
</trkpt>
<trkpt lat="33.8100289" lon="-118.3942055">
  <ele>-0.1</ele>
  <time>2026-09-01T01:13:01Z</time>
  <course>287.97</course>
  <speed>0.7496665925596525</speed>
  <fix>3d</fix>
</trkpt>
<trkpt lat="33.8100276" lon="-118.3942041">
  <ele>-0.1</ele>
  <time>2026-09-01T01:13:01Z</time>
  <course>304.25</course>
  <speed>0.76</speed>
  <fix>3d</fix>
</trkpt>
<trkpt lat="33.8100294" lon="-118.3942061">
  <ele>-0.101</ele>
  <time>2026-09-01T01:13:01Z</time>
  <course>291.83</course>
  <speed>0.7451845409024532</speed>
  <fix>3d</fix>
</trkpt>
<trkpt lat="33.8100284" lon="-118.3942054">
  <ele>-0.11</ele>
  <time>2026-09-01T01:13:01Z</time>
  <course>311.97</course>
  <speed>0.76</speed>
  <fix>3d</fix>
</trkpt>
<trkpt lat="33.8100299" lon="-118.3942066">
  <ele>-0.102</ele>
  <time>2026-09-01T01:13:01Z</time>
  <course>295.69</course>
  <speed>0.744043009509531</speed>
  <fix>3d</fix>
</trkpt>
<trkpt lat="33.8100284" lon="-118.3942054">
  <ele>-0.11</ele>
  <time>2026-09-01T01:13:01Z</time>
  <course>311.97</course>
  <speed>0.76</speed>
  <fix>3d</fix>
</trkpt>
<trkpt lat="33.8100304" lon="-118.3942071">
  <ele>-0.103</ele>
  <time>2026-09-01T01:13:01Z</time>
  <course>299.55</course>
  <speed>0.7462573282722254</speed>
  <fix>3d</fix>
</trkpt>
<trkpt lat="33.8100294" lon="-118.3942065">
  <ele>-0.1</ele>
  <time>2026-09-01T01:13:01Z</time>
  <course>319.7</course>
  <speed>0.76</speed>
  <fix>3d</fix>
</trkpt>
<trkpt lat="33.810031" lon="-118.3942075">
  <ele>-0.103</ele>
  <time>2026-09-01T01:13:01Z</time>
  <course>303.41</course>
  <speed>0.7430343195303969</speed>
  <fix>3d</fix>
</trkpt>
<trkpt lat="33.8100294" lon="-118.3942065">
  <ele>-0.1</ele>
  <time>2026-09-01T01:13:01Z</time>
  <course>319.7</course>
  <speed>0.76</speed>
  <fix>3d</fix>
</trkpt>
<trkpt lat="33.8100315" lon="-118.3942079">
  <ele>-0.104</ele>
  <time>2026-09-01T01:13:01Z</time>
  <course>307.28</course>
  <speed>0.7382411530116699</speed>
  <fix>3d</fix>
</trkpt>
<trkpt lat="33.8100305" lon="-118.3942075">
  <ele>-0.1</ele>
  <time>2026-09-01T01:13:01Z</time>
  <course>327.42</course>
  <speed>0.76</speed>
  <fix>3d</fix>
</trkpt>
<trkpt lat="33.8100321" lon="-118.3942083">
  <ele>-0.104</ele>
  <time>2026-09-01T01:13:01Z</time>
  <course>311.14</course>
  <speed>0.7409453421137081</speed>
  <fix>3d</fix>
</trkpt>
<trkpt lat="33.8100305" lon="-118.3942075">
  <ele>-0.1</ele>
  <time>2026-09-01T01:13:01Z</time>
  <course>327.42</course>
  <speed>0.76</speed>
  <fix>3d</fix>
</trkpt>
<trkpt lat="33.8100327" lon="-118.3942085">
  <ele>-0.105</ele>
  <time>2026-09-01T01:13:01Z</time>
  <course>315.0</course>
  <speed>0.7433034373659253</speed>
  <fix>3d</fix>
</trkpt>
<trkpt lat="33.8100317" lon="-118.3942083">
  <ele>-0.1</ele>
  <time>2026-09-01T01:13:01Z</time>
  <course>335.14</course>
  <speed>0.76</speed>
  <fix>3d</fix>
</trkpt>
<trkpt lat="33.8100334" lon="-118.3942088">
  <ele>-0.107</ele>
  <time>2026-09-01T01:13:01Z</time>
  <course>318.86</course>
  <speed>0.7397972695272672</speed>
  <fix>3d</fix>
</trkpt>
<trkpt lat="33.8100317" lon="-118.3942083">
  <ele>-0.1</ele>
  <time>2026-09-01T01:13:01Z</time>
  <course>335.14</course>
  <speed>0.76</speed>
  <fix>3d</fix>
</trkpt>
<trkpt lat="33.810034" lon="-118.394209">
  <ele>-0.109</ele>
  <time>2026-09-01T01:13:01Z</time>
  <course>322.72</course>
  <speed>0.7397972695272672</speed>
  <fix>3d</fix>
</trkpt>
<trkpt lat="33.810033" lon="-118.3942089">
  <ele>-0.1</ele>
  <time>2026-09-01T01:13:01Z</time>
  <course>342.87</course>
  <speed>0.76</speed>
  <fix>3d</fix>
</trkpt>
<trkpt lat="33.8100347" lon="-118.3942091">
  <ele>-0.112</ele>
  <time>2026-09-01T01:13:01Z</time>
  <course>326.58</course>
  <speed>0.7343704787094864</speed>
  <fix>3d</fix>
</trkpt>
<trkpt lat="33.810033" lon="-118.3942089">
  <ele>-0.1</ele>
  <time>2026-09-01T01:13:01Z</time>
  <course>342.87</course>
  <speed>0.76</speed>
  <fix>3d</fix>
</trkpt>
<trkpt lat="33.8100353" lon="-118.3942092">
  <ele>-0.114</ele>
  <time>2026-09-01T01:13:01Z</time>
  <course>330.44</course>
  <speed>0.7306161783043131</speed>
  <fix>3d</fix>
</trkpt>
<trkpt lat="33.8100343" lon="-118.3942093">
  <ele>-0.11</ele>
  <time>2026-09-01T01:13:01Z</time>
  <course>350.59</course>
  <speed>0.76</speed>
  <fix>3d</fix>
</trkpt>
<trkpt lat="33.810036" lon="-118.3942093">
  <ele>-0.116</ele>
  <time>2026-09-01T01:13:01Z</time>
  <course>334.3</course>
  <speed>0.7300684899377592</speed>
  <fix>3d</fix>
</trkpt>
<trkpt lat="33.8100343" lon="-118.3942093">
  <ele>-0.11</ele>
  <time>2026-09-01T01:13:01Z</time>
  <course>350.59</course>
  <speed>0.76</speed>
  <fix>3d</fix>
</trkpt>
<trkpt lat="33.8100366" lon="-118.3942093">
  <ele>-0.118</ele>
  <time>2026-09-01T01:13:01Z</time>
  <course>338.17</course>
  <speed>0.7324616030891995</speed>
  <fix>3d</fix>
</trkpt>
<trkpt lat="33.8100357" lon="-118.3942094">
  <ele>-0.1</ele>
  <time>2026-09-01T01:13:01Z</time>
  <course>358.32</course>
  <speed>0.76</speed>
  <fix>3d</fix>
</trkpt>
<trkpt lat="33.8100373" lon="-118.3942092">
  <ele>-0.119</ele>
  <time>2026-09-01T01:13:01Z</time>
  <course>342.03</course>
  <speed>0.7283543093852057</speed>
  <fix>3d</fix>
</trkpt>
<trkpt lat="33.8100357" lon="-118.3942094">
  <ele>-0.1</ele>
  <time>2026-09-01T01:13:01Z</time>
  <course>358.32</course>
  <speed>0.76</speed>
  <fix>3d</fix>
</trkpt>
<trkpt lat="33.810038" lon="-118.3942091">
  <ele>-0.121</ele>
  <time>2026-09-01T01:13:01Z</time>
  <course>345.89</course>
  <speed>0.7278049189171505</speed>
  <fix>3d</fix>
</trkpt>
<trkpt lat="33.8100371" lon="-118.3942094">
  <ele>-0.1</ele>
  <time>2026-09-01T01:13:01Z</time>
  <course>6.06</course>
  <speed>0.76</speed>
  <fix>3d</fix>
</trkpt>
<trkpt lat="33.8100386" lon="-118.3942089">
  <ele>-0.122</ele>
  <time>2026-09-01T01:13:01Z</time>
  <course>349.75</course>
  <speed>0.7308214556237386</speed>
  <fix>3d</fix>
</trkpt>
<trkpt lat="33.8100371" lon="-118.3942094">
  <ele>-0.1</ele>
  <time>2026-09-01T01:13:01Z</time>
  <course>6.06</course>
  <speed>0.76</speed>
  <fix>3d</fix>
</trkpt>
<trkpt lat="33.8100392" lon="-118.3942087">
  <ele>-0.122</ele>
  <time>2026-09-01T01:13:01Z</time>
  <course>353.61</course>
  <speed>0.7244998274671982</speed>
  <fix>3d</fix>
</trkpt>
<trkpt lat="33.8100384" lon="-118.3942092">
  <ele>-0.1</ele>
  <time>2026-09-01T01:13:01Z</time>
  <course>13.8</course>
  <speed>0.76</speed>
  <fix>3d</fix>
</trkpt>
<trkpt lat="33.8100399" lon="-118.3942084">
  <ele>-0.122</ele>
  <time>2026-09-01T01:13:01Z</time>
  <course>357.47</course>
  <speed>0.7249827584156744</speed>
  <fix>3d</fix>
</trkpt>
<trkpt lat="33.8100384" lon="-118.3942092">
  <ele>-0.1</ele>
  <time>2026-09-01T01:13:01Z</time>
  <course>13.8</course>
  <speed>0.76</speed>
  <fix>3d</fix>
</trkpt>
<trkpt lat="33.8100405" lon="-118.3942081">
  <ele>-0.122</ele>
  <time>2026-09-01T01:13:01Z</time>
  <course>0.16</course>
  <speed>0.7071067811865476</speed>
  <fix>3d</fix>
</trkpt>
<trkpt lat="33.8100397" lon="-118.3942087">
  <ele>-0.1</ele>
  <time>2026-09-01T01:13:01Z</time>
  <course>21.54</course>
  <speed>0.76</speed>
  <fix>3d</fix>
</trkpt>
<trkpt lat="33.810041" lon="-118.3942077">
  <ele>-0.121</ele>
  <time>2026-09-01T01:13:01Z</time>
  <course>1.35</course>
  <speed>0.696419413859206</speed>
  <fix>3d</fix>
</trkpt>
<trkpt lat="33.8100397" lon="-118.3942087">
  <ele>-0.1</ele>
  <time>2026-09-01T01:13:01Z</time>
  <course>21.54</course>
  <speed>0.76</speed>
  <fix>3d</fix>
</trkpt>
<trkpt lat="33.8100416" lon="-118.3942073">
  <ele>-0.12</ele>
  <time>2026-09-01T01:13:01Z</time>
  <course>2.1</course>
  <speed>0.6963476143421474</speed>
  <fix>3d</fix>
</trkpt>
<trkpt lat="33.8100409" lon="-118.394208">
  <ele>-0.11</ele>
  <time>2026-09-01T01:13:01Z</time>
  <course>29.24</course>
  <speed>0.74</speed>
  <fix>3d</fix>
</trkpt>
<trkpt lat="33.8100421" lon="-118.3942069">
  <ele>-0.119</ele>
  <time>2026-09-01T01:13:01Z</time>
  <course>2.67</course>
  <speed>0.6940461079784254</speed>
  <fix>3d</fix>
</trkpt>
<trkpt lat="33.8100409" lon="-118.394208">
  <ele>-0.11</ele>
  <time>2026-09-01T01:13:01Z</time>
  <course>29.24</course>
  <speed>0.74</speed>
  <fix>3d</fix>
</trkpt>
<trkpt lat="33.8100426" lon="-118.3942064">
  <ele>-0.118</ele>
  <time>2026-09-01T01:13:01Z</time>
  <course>3.11</course>
  <speed>0.6920260110718383</speed>
  <fix>3d</fix>
</trkpt>
<trkpt lat="33.810042" lon="-118.3942071">
  <ele>-0.1</ele>
  <time>2026-09-01T01:13:01Z</time>
  <course>35.18</course>
  <speed>0.73</speed>
  <fix>3d</fix>
</trkpt>
<trkpt lat="33.8100431" lon="-118.394206">
  <ele>-0.118</ele>
  <time>2026-09-01T01:13:01Z</time>
  <course>3.48</course>
  <speed>0.6902897942168927</speed>
  <fix>3d</fix>
</trkpt>
<trkpt lat="33.810042" lon="-118.3942071">
  <ele>-0.1</ele>
  <time>2026-09-01T01:13:01Z</time>
  <course>35.18</course>
  <speed>0.73</speed>
  <fix>3d</fix>
</trkpt>
<trkpt lat="33.8100437" lon="-118.3942055">
  <ele>-0.118</ele>
  <time>2026-09-01T01:13:01Z</time>
  <course>3.79</course>
  <speed>0.6965629906907199</speed>
  <fix>3d</fix>
</trkpt>
<trkpt lat="33.8100431" lon="-118.3942062">
  <ele>-0.1</ele>
  <time>2026-09-01T01:13:01Z</time>
  <course>38.19</course>
  <speed>0.73</speed>
  <fix>3d</fix>
</trkpt>
<trkpt lat="33.8100442" lon="-118.394205">
  <ele>-0.118</ele>
  <time>2026-09-01T01:13:01Z</time>
  <course>4.07</course>
  <speed>0.6965629906907199</speed>
  <fix>3d</fix>
</trkpt>
<trkpt lat="33.8100431" lon="-118.3942062">
  <ele>-0.1</ele>
  <time>2026-09-01T01:13:01Z</time>
  <course>38.19</course>
  <speed>0.73</speed>
  <fix>3d</fix>
</trkpt>
<trkpt lat="33.8100447" lon="-118.3942045">
  <ele>-0.119</ele>
  <time>2026-09-01T01:13:01Z</time>
  <course>4.31</course>
  <speed>0.702922470831599</speed>
  <fix>3d</fix>
</trkpt>
<trkpt lat="33.8100441" lon="-118.3942051">
  <ele>-0.1</ele>
  <time>2026-09-01T01:13:01Z</time>
  <course>39.76</course>
  <speed>0.73</speed>
  <fix>3d</fix>
</trkpt>
<trkpt lat="33.8100452" lon="-118.394204">
  <ele>-0.118</ele>
  <time>2026-09-01T01:13:01Z</time>
  <course>4.53</course>
  <speed>0.702922470831599</speed>
  <fix>3d</fix>
</trkpt>
<trkpt lat="33.8100441" lon="-118.3942051">
  <ele>-0.1</ele>
  <time>2026-09-01T01:13:01Z</time>
  <course>39.76</course>
  <speed>0.73</speed>
  <fix>3d</fix>
</trkpt>
<trkpt lat="33.8100457" lon="-118.3942035">
  <ele>-0.117</ele>
  <time>2026-09-01T01:13:01Z</time>
  <course>4.73</course>
  <speed>0.70178344238091</speed>
  <fix>3d</fix>
</trkpt>
<trkpt lat="33.810045" lon="-118.3942042">
  <ele>-0.1</ele>
  <time>2026-09-01T01:13:01Z</time>
  <course>40.68</course>
  <speed>0.73</speed>
  <fix>3d</fix>
</trkpt>
<trkpt lat="33.8100462" lon="-118.394203">
  <ele>-0.115</ele>
  <time>2026-09-01T01:13:01Z</time>
  <course>4.91</course>
  <speed>0.70178344238091</speed>
  <fix>3d</fix>
</trkpt>
<trkpt lat="33.810045" lon="-118.3942042">
  <ele>-0.1</ele>
  <time>2026-09-01T01:13:01Z</time>
  <course>40.68</course>
  <speed>0.73</speed>
  <fix>3d</fix>
</trkpt>
<trkpt lat="33.8100467" lon="-118.3942025">
  <ele>-0.114</ele>
  <time>2026-09-01T01:13:01Z</time>
  <course>5.08</course>
  <speed>0.70178344238091</speed>
  <fix>3d</fix>
</trkpt>
<trkpt lat="33.810046" lon="-118.3942031">
  <ele>-0.11</ele>
  <time>2026-09-01T01:13:01Z</time>
  <course>41.29</course>
  <speed>0.73</speed>
  <fix>3d</fix>
</trkpt>
<trkpt lat="33.8100472" lon="-118.394202">
  <ele>-0.113</ele>
  <time>2026-09-01T01:13:01Z</time>
  <course>5.24</course>
  <speed>0.70178344238091</speed>
  <fix>3d</fix>
</trkpt>
<trkpt lat="33.810046" lon="-118.3942031">
  <ele>-0.11</ele>
  <time>2026-09-01T01:13:01Z</time>
  <course>41.29</course>
  <speed>0.73</speed>
  <fix>3d</fix>
</trkpt>
<trkpt lat="33.8100477" lon="-118.3942014">
  <ele>-0.111</ele>
  <time>2026-09-01T01:13:01Z</time>
  <course>5.38</course>
  <speed>0.7083784299369935</speed>
  <fix>3d</fix>
</trkpt>
<trkpt lat="33.8100471" lon="-118.394202">
  <ele>-0.1</ele>
  <time>2026-09-01T01:13:01Z</time>
  <course>41.75</course>
  <speed>0.73</speed>
  <fix>3d</fix>
</trkpt>
<trkpt lat="33.8100481" lon="-118.3942009">
  <ele>-0.109</ele>
  <time>2026-09-01T01:13:01Z</time>
  <course>5.52</course>
  <speed>0.7083784299369935</speed>
  <fix>3d</fix>
</trkpt>
<trkpt lat="33.8100471" lon="-118.394202">
  <ele>-0.1</ele>
  <time>2026-09-01T01:13:01Z</time>
  <course>41.75</course>
  <speed>0.73</speed>
  <fix>3d</fix>
</trkpt>
<trkpt lat="33.8100486" lon="-118.3942004">
  <ele>-0.109</ele>
  <time>2026-09-01T01:13:01Z</time>
  <course>5.65</course>
  <speed>0.7083784299369935</speed>
  <fix>3d</fix>
</trkpt>
<trkpt lat="33.8100481" lon="-118.394201">
  <ele>-0.1</ele>
  <time>2026-09-01T01:13:01Z</time>
  <course>42.11</course>
  <speed>0.73</speed>
  <fix>3d</fix>
</trkpt>
<trkpt lat="33.8100491" lon="-118.3941998">
  <ele>-0.108</ele>
  <time>2026-09-01T01:13:01Z</time>
  <course>5.77</course>
  <speed>0.7083784299369935</speed>
  <fix>3d</fix>
</trkpt>
<trkpt lat="33.8100481" lon="-118.394201">
  <ele>-0.1</ele>
  <time>2026-09-01T01:13:01Z</time>
  <course>42.11</course>
  <speed>0.73</speed>
  <fix>3d</fix>
</trkpt>
<trkpt lat="33.8100496" lon="-118.3941993">
  <ele>-0.109</ele>
  <time>2026-09-01T01:13:01Z</time>
  <course>5.88</course>
  <speed>0.7150524456289902</speed>
  <fix>3d</fix>
</trkpt>
<trkpt lat="33.8100491" lon="-118.3941999">
  <ele>-0.1</ele>
  <time>2026-09-01T01:13:01Z</time>
  <course>42.42</course>
  <speed>0.73</speed>
  <fix>3d</fix>
</trkpt>
<trkpt lat="33.8100501" lon="-118.3941988">
  <ele>-0.108</ele>
  <time>2026-09-01T01:13:01Z</time>
  <course>5.99</course>
  <speed>0.7150524456289902</speed>
  <fix>3d</fix>
</trkpt>
<trkpt lat="33.8100491" lon="-118.3941999">
  <ele>-0.1</ele>
  <time>2026-09-01T01:13:01Z</time>
  <course>42.42</course>
  <speed>0.73</speed>
  <fix>3d</fix>
</trkpt>
<trkpt lat="33.8100506" lon="-118.3941982">
  <ele>-0.108</ele>
  <time>2026-09-01T01:13:01Z</time>
  <course>6.1</course>
  <speed>0.7150524456289902</speed>
  <fix>3d</fix>
</trkpt>
<trkpt lat="33.81005" lon="-118.3941988">
  <ele>-0.1</ele>
  <time>2026-09-01T01:13:01Z</time>
  <course>42.69</course>
  <speed>0.73</speed>
  <fix>3d</fix>
</trkpt>
<trkpt lat="33.8100511" lon="-118.3941977">
  <ele>-0.109</ele>
  <time>2026-09-01T01:13:01Z</time>
  <course>6.2</course>
  <speed>0.7150524456289902</speed>
  <fix>3d</fix>
</trkpt>
<trkpt lat="33.81005" lon="-118.3941988">
  <ele>-0.1</ele>
  <time>2026-09-01T01:13:01Z</time>
  <course>42.69</course>
  <speed>0.73</speed>
  <fix>3d</fix>
</trkpt>
<trkpt lat="33.8100516" lon="-118.3941971">
  <ele>-0.109</ele>
  <time>2026-09-01T01:13:01Z</time>
  <course>6.29</course>
  <speed>0.7218032973047436</speed>
  <fix>3d</fix>
</trkpt>
<trkpt lat="33.810051" lon="-118.3941977">
  <ele>-0.11</ele>
  <time>2026-09-01T01:13:01Z</time>
  <course>42.92</course>
  <speed>0.73</speed>
  <fix>3d</fix>
</trkpt>
<trkpt lat="33.8100521" lon="-118.3941966">
  <ele>-0.109</ele>
  <time>2026-09-01T01:13:01Z</time>
  <course>6.38</course>
  <speed>0.7144928271158499</speed>
  <fix>3d</fix>
</trkpt>
<trkpt lat="33.810051" lon="-118.3941977">
  <ele>-0.11</ele>
  <time>2026-09-01T01:13:01Z</time>
  <course>42.92</course>
  <speed>0.73</speed>
  <fix>3d</fix>
</trkpt>
<trkpt lat="33.8100526" lon="-118.394196">
  <ele>-0.108</ele>
  <time>2026-09-01T01:13:01Z</time>
  <course>6.47</course>
  <speed>0.7144928271158499</speed>
  <fix>3d</fix>
</trkpt>
<trkpt lat="33.810052" lon="-118.3941967">
  <ele>-0.1</ele>
  <time>2026-09-01T01:13:01Z</time>
  <course>43.13</course>
  <speed>0.73</speed>
  <fix>3d</fix>
</trkpt>
<trkpt lat="33.8100531" lon="-118.3941955">
  <ele>-0.108</ele>
  <time>2026-09-01T01:13:01Z</time>
  <course>6.56</course>
  <speed>0.7144928271158499</speed>
  <fix>3d</fix>
</trkpt>
<trkpt lat="33.810052" lon="-118.3941967">
  <ele>-0.1</ele>
  <time>2026-09-01T01:13:01Z</time>
  <course>43.13</course>
  <speed>0.73</speed>
  <fix>3d</fix>
</trkpt>
<trkpt lat="33.8100535" lon="-118.3941949">
  <ele>-0.108</ele>
  <time>2026-09-01T01:13:01Z</time>
  <course>6.64</course>
  <speed>0.7144928271158499</speed>
  <fix>3d</fix>
</trkpt>
<trkpt lat="33.8100529" lon="-118.3941956">
  <ele>-0.1</ele>
  <time>2026-09-01T01:13:01Z</time>
  <course>43.33</course>
  <speed>0.73</speed>
  <fix>3d</fix>
</trkpt>
<trkpt lat="33.810054" lon="-118.3941943">
  <ele>-0.11</ele>
  <time>2026-09-01T01:13:01Z</time>
  <course>6.72</course>
  <speed>0.7213875518748573</speed>
  <fix>3d</fix>
</trkpt>
<trkpt lat="33.8100529" lon="-118.3941956">
  <ele>-0.1</ele>
  <time>2026-09-01T01:13:01Z</time>
  <course>43.33</course>
  <speed>0.73</speed>
  <fix>3d</fix>
</trkpt>
<trkpt lat="33.8100545" lon="-118.3941938">
  <ele>-0.111</ele>
  <time>2026-09-01T01:13:01Z</time>
  <course>6.79</course>
  <speed>0.7213875518748573</speed>
  <fix>3d</fix>
</trkpt>
<trkpt lat="33.8100539" lon="-118.3941945">
  <ele>-0.1</ele>
  <time>2026-09-01T01:13:01Z</time>
  <course>43.5</course>
  <speed>0.73</speed>
  <fix>3d</fix>
</trkpt>
<trkpt lat="33.810055" lon="-118.3941932">
  <ele>-0.111</ele>
  <time>2026-09-01T01:13:01Z</time>
  <course>6.87</course>
  <speed>0.7213875518748573</speed>
  <fix>3d</fix>
</trkpt>
<trkpt lat="33.8100539" lon="-118.3941945">
  <ele>-0.1</ele>
  <time>2026-09-01T01:13:01Z</time>
  <course>43.5</course>
  <speed>0.73</speed>
  <fix>3d</fix>
</trkpt>
<trkpt lat="33.8100555" lon="-118.3941927">
  <ele>-0.111</ele>
  <time>2026-09-01T01:13:01Z</time>
  <course>6.94</course>
  <speed>0.7213875518748573</speed>
  <fix>3d</fix>
</trkpt>
<trkpt lat="33.8100549" lon="-118.3941934">
  <ele>-0.1</ele>
  <time>2026-09-01T01:13:01Z</time>
  <course>43.67</course>
  <speed>0.73</speed>
  <fix>3d</fix>
</trkpt>
<trkpt lat="33.8100559" lon="-118.3941921">
  <ele>-0.11</ele>
  <time>2026-09-01T01:13:01Z</time>
  <course>7.01</course>
  <speed>0.7213875518748573</speed>
  <fix>3d</fix>
</trkpt>
<trkpt lat="33.8100549" lon="-118.3941934">
  <ele>-0.1</ele>
  <time>2026-09-01T01:13:01Z</time>
  <course>43.67</course>
  <speed>0.73</speed>
  <fix>3d</fix>
</trkpt>
<trkpt lat="33.8100564" lon="-118.3941916">
  <ele>-0.108</ele>
  <time>2026-09-01T01:13:01Z</time>
  <course>7.07</course>
  <speed>0.7213875518748573</speed>
  <fix>3d</fix>
</trkpt>
<trkpt lat="33.8100558" lon="-118.3941923">
  <ele>-0.11</ele>
  <time>2026-09-01T01:13:01Z</time>
  <course>43.82</course>
  <speed>0.73</speed>
  <fix>3d</fix>
</trkpt>
<trkpt lat="33.8100569" lon="-118.394191">
  <ele>-0.107</ele>
  <time>2026-09-01T01:13:01Z</time>
  <course>7.14</course>
  <speed>0.7283543093852057</speed>
  <fix>3d</fix>
</trkpt>
<trkpt lat="33.8100558" lon="-118.3941923">
  <ele>-0.11</ele>
  <time>2026-09-01T01:13:01Z</time>
  <course>43.82</course>
  <speed>0.73</speed>
  <fix>3d</fix>
</trkpt>
<trkpt lat="33.8100574" lon="-118.3941905">
  <ele>-0.106</ele>
  <time>2026-09-01T01:13:01Z</time>
  <course>7.2</course>
  <speed>0.7283543093852057</speed>
  <fix>3d</fix>
</trkpt>
<trkpt lat="33.8100568" lon="-118.3941912">
  <ele>-0.1</ele>
  <time>2026-09-01T01:13:01Z</time>
  <course>43.96</course>
  <speed>0.73</speed>
  <fix>3d</fix>
</trkpt>
<trkpt lat="33.8100579" lon="-118.3941899">
  <ele>-0.105</ele>
  <time>2026-09-01T01:13:01Z</time>
  <course>7.26</course>
  <speed>0.7283543093852057</speed>
  <fix>3d</fix>
</trkpt>
<trkpt lat="33.8100568" lon="-118.3941912">
  <ele>-0.1</ele>
  <time>2026-09-01T01:13:01Z</time>
  <course>43.96</course>
  <speed>0.73</speed>
  <fix>3d</fix>
</trkpt>
<trkpt lat="33.8100583" lon="-118.3941893">
  <ele>-0.105</ele>
  <time>2026-09-01T01:13:01Z</time>
  <course>7.32</course>
  <speed>0.7283543093852057</speed>
  <fix>3d</fix>
</trkpt>
<trkpt lat="33.8100577" lon="-118.3941901">
  <ele>-0.1</ele>
  <time>2026-09-01T01:13:01Z</time>
  <course>44.09</course>
  <speed>0.73</speed>
  <fix>3d</fix>
</trkpt>
<trkpt lat="33.8100588" lon="-118.3941888">
  <ele>-0.106</ele>
  <time>2026-09-01T01:13:01Z</time>
  <course>7.38</course>
  <speed>0.7283543093852057</speed>
  <fix>3d</fix>
</trkpt>
<trkpt lat="33.8100577" lon="-118.3941901">
  <ele>-0.1</ele>
  <time>2026-09-01T01:13:01Z</time>
  <course>44.09</course>
  <speed>0.73</speed>
  <fix>3d</fix>
</trkpt>
<trkpt lat="33.8100593" lon="-118.3941882">
  <ele>-0.107</ele>
  <time>2026-09-01T01:13:01Z</time>
  <course>7.44</course>
  <speed>0.7212489168102785</speed>
  <fix>3d</fix>
</trkpt>
<trkpt lat="33.8100587" lon="-118.394189">
  <ele>-0.1</ele>
  <time>2026-09-01T01:13:01Z</time>
  <course>44.22</course>
  <speed>0.73</speed>
  <fix>3d</fix>
</trkpt>
<trkpt lat="33.8100598" lon="-118.3941876">
  <ele>-0.108</ele>
  <time>2026-09-01T01:13:01Z</time>
  <course>7.49</course>
  <speed>0.7212489168102785</speed>
  <fix>3d</fix>
</trkpt>
<trkpt lat="33.8100587" lon="-118.394189">
  <ele>-0.1</ele>
  <time>2026-09-01T01:13:01Z</time>
  <course>44.22</course>
  <speed>0.73</speed>
  <fix>3d</fix>
</trkpt>
<trkpt lat="33.8100602" lon="-118.3941871">
  <ele>-0.109</ele>
  <time>2026-09-01T01:13:01Z</time>
  <course>7.55</course>
  <speed>0.7283543093852057</speed>
  <fix>3d</fix>
</trkpt>
<trkpt lat="33.8100596" lon="-118.3941879">
  <ele>-0.1</ele>
  <time>2026-09-01T01:13:01Z</time>
  <course>44.34</course>
  <speed>0.73</speed>
  <fix>3d</fix>
</trkpt>
<trkpt lat="33.8100607" lon="-118.3941865">
  <ele>-0.111</ele>
  <time>2026-09-01T01:13:01Z</time>
  <course>7.6</course>
  <speed>0.7283543093852057</speed>
  <fix>3d</fix>
</trkpt>
<trkpt lat="33.8100596" lon="-118.3941879">
  <ele>-0.1</ele>
  <time>2026-09-01T01:13:01Z</time>
  <course>44.34</course>
  <speed>0.73</speed>
  <fix>3d</fix>
</trkpt>
<trkpt lat="33.8100612" lon="-118.394186">
  <ele>-0.112</ele>
  <time>2026-09-01T01:13:01Z</time>
  <course>7.65</course>
  <speed>0.7283543093852057</speed>
  <fix>3d</fix>
</trkpt>
<trkpt lat="33.8100605" lon="-118.3941867">
  <ele>-0.11</ele>
  <time>2026-09-01T01:13:01Z</time>
  <course>44.45</course>
  <speed>0.73</speed>
  <fix>3d</fix>
</trkpt>
<trkpt lat="33.8100616" lon="-118.3941854">
  <ele>-0.113</ele>
  <time>2026-09-01T01:13:01Z</time>
  <course>7.7</course>
  <speed>0.7283543093852057</speed>
  <fix>3d</fix>
</trkpt>
<trkpt lat="33.8100605" lon="-118.3941867">
  <ele>-0.11</ele>
  <time>2026-09-01T01:13:01Z</time>
  <course>44.45</course>
  <speed>0.73</speed>
  <fix>3d</fix>
</trkpt>
<trkpt lat="33.8100621" lon="-118.3941848">
  <ele>-0.114</ele>
  <time>2026-09-01T01:13:01Z</time>
  <course>7.75</course>
  <speed>0.7283543093852057</speed>
  <fix>3d</fix>
</trkpt>
<trkpt lat="33.8100614" lon="-118.3941856">
  <ele>-0.1</ele>
  <time>2026-09-01T01:13:01Z</time>
  <course>44.56</course>
  <speed>0.73</speed>
  <fix>3d</fix>
</trkpt>
<trkpt lat="33.8100626" lon="-118.3941842">
  <ele>-0.116</ele>
  <time>2026-09-01T01:13:01Z</time>
  <course>7.8</course>
  <speed>0.7283543093852057</speed>
  <fix>3d</fix>
</trkpt>
<trkpt lat="33.8100614" lon="-118.3941856">
  <ele>-0.1</ele>
  <time>2026-09-01T01:13:01Z</time>
  <course>44.56</course>
  <speed>0.73</speed>
  <fix>3d</fix>
</trkpt>
<trkpt lat="33.810063" lon="-118.3941837">
  <ele>-0.117</ele>
  <time>2026-09-01T01:13:01Z</time>
  <course>7.85</course>
  <speed>0.7283543093852057</speed>
  <fix>3d</fix>
</trkpt>
<trkpt lat="33.8100624" lon="-118.3941845">
  <ele>-0.1</ele>
  <time>2026-09-01T01:13:01Z</time>
  <course>44.66</course>
  <speed>0.73</speed>
  <fix>3d</fix>
</trkpt>
<trkpt lat="33.8100635" lon="-118.3941831">
  <ele>-0.118</ele>
  <time>2026-09-01T01:13:01Z</time>
  <course>7.9</course>
  <speed>0.7283543093852057</speed>
  <fix>3d</fix>
</trkpt>
<trkpt lat="33.8100624" lon="-118.3941845">
  <ele>-0.1</ele>
  <time>2026-09-01T01:13:01Z</time>
  <course>44.66</course>
  <speed>0.73</speed>
  <fix>3d</fix>
</trkpt>
<trkpt lat="33.810064" lon="-118.3941825">
  <ele>-0.118</ele>
  <time>2026-09-01T01:13:01Z</time>
  <course>7.94</course>
  <speed>0.7286288492778747</speed>
  <fix>3d</fix>
</trkpt>
<trkpt lat="33.8100634" lon="-118.3941834">
  <ele>-0.1</ele>
  <time>2026-09-01T01:13:01Z</time>
  <course>44.76</course>
  <speed>0.73</speed>
  <fix>3d</fix>
</trkpt>
<trkpt lat="33.8100644" lon="-118.394182">
  <ele>-0.118</ele>
  <time>2026-09-01T01:13:01Z</time>
  <course>7.99</course>
  <speed>0.7286288492778747</speed>
  <fix>3d</fix>
</trkpt>
<trkpt lat="33.8100634" lon="-118.3941834">
  <ele>-0.1</ele>
  <time>2026-09-01T01:13:01Z</time>
  <course>44.76</course>
  <speed>0.73</speed>
  <fix>3d</fix>
</trkpt>
<trkpt lat="33.8100649" lon="-118.3941814">
  <ele>-0.119</ele>
  <time>2026-09-01T01:13:01Z</time>
  <course>8.03</course>
  <speed>0.7286288492778747</speed>
  <fix>3d</fix>
</trkpt>
<trkpt lat="33.8100643" lon="-118.3941823">
  <ele>-0.1</ele>
  <time>2026-09-01T01:13:01Z</time>
  <course>44.85</course>
  <speed>0.73</speed>
  <fix>3d</fix>
</trkpt>
<trkpt lat="33.8100653" lon="-118.3941808">
  <ele>-0.119</ele>
  <time>2026-09-01T01:13:01Z</time>
  <course>8.08</course>
  <speed>0.7286288492778747</speed>
  <fix>3d</fix>
</trkpt>
<trkpt lat="33.8100643" lon="-118.3941823">
  <ele>-0.1</ele>
  <time>2026-09-01T01:13:01Z</time>
  <course>44.85</course>
  <speed>0.73</speed>
  <fix>3d</fix>
</trkpt>
<trkpt lat="33.8100658" lon="-118.3941803">
  <ele>-0.118</ele>
  <time>2026-09-01T01:13:01Z</time>
  <course>8.12</course>
  <speed>0.7286288492778747</speed>
  <fix>3d</fix>
</trkpt>
<trkpt lat="33.8100652" lon="-118.3941812">
  <ele>-0.11</ele>
  <time>2026-09-01T01:13:01Z</time>
  <course>44.94</course>
  <speed>0.73</speed>
  <fix>3d</fix>
</trkpt>
<trkpt lat="33.8100663" lon="-118.3941797">
  <ele>-0.118</ele>
  <time>2026-09-01T01:13:01Z</time>
  <course>8.16</course>
  <speed>0.7286288492778747</speed>
  <fix>3d</fix>
</trkpt>
<trkpt lat="33.8100652" lon="-118.3941812">
  <ele>-0.11</ele>
  <time>2026-09-01T01:13:01Z</time>
  <course>44.94</course>
  <speed>0.73</speed>
  <fix>3d</fix>
</trkpt>
<trkpt lat="33.8100667" lon="-118.3941791">
  <ele>-0.116</ele>
  <time>2026-09-01T01:13:01Z</time>
  <course>8.2</course>
  <speed>0.7286288492778747</speed>
  <fix>3d</fix>
</trkpt>
<trkpt lat="33.8100661" lon="-118.39418">
  <ele>-0.1</ele>
  <time>2026-09-01T01:13:01Z</time>
  <course>45.02</course>
  <speed>0.73</speed>
  <fix>3d</fix>
</trkpt>
<trkpt lat="33.8100672" lon="-118.3941786">
  <ele>-0.114</ele>
  <time>2026-09-01T01:13:01Z</time>
  <course>8.24</course>
  <speed>0.7286288492778747</speed>
  <fix>3d</fix>
</trkpt>
<trkpt lat="33.8100661" lon="-118.39418">
  <ele>-0.1</ele>
  <time>2026-09-01T01:13:01Z</time>
  <course>45.02</course>
  <speed>0.73</speed>
  <fix>3d</fix>
</trkpt>
<trkpt lat="33.8100676" lon="-118.394178">
  <ele>-0.113</ele>
  <time>2026-09-01T01:13:01Z</time>
  <course>8.28</course>
  <speed>0.7286288492778747</speed>
  <fix>3d</fix>
</trkpt>
<trkpt lat="33.8100671" lon="-118.3941789">
  <ele>-0.1</ele>
  <time>2026-09-01T01:13:01Z</time>
  <course>45.11</course>
  <speed>0.73</speed>
  <fix>3d</fix>
</trkpt>
<trkpt lat="33.8100681" lon="-118.3941774">
  <ele>-0.113</ele>
  <time>2026-09-01T01:13:01Z</time>
  <course>8.32</course>
  <speed>0.7286288492778747</speed>
  <fix>3d</fix>
</trkpt>
<trkpt lat="33.8100671" lon="-118.3941789">
  <ele>-0.1</ele>
  <time>2026-09-01T01:13:01Z</time>
  <course>45.11</course>
  <speed>0.73</speed>
  <fix>3d</fix>
</trkpt>
<trkpt lat="33.8100686" lon="-118.3941769">
  <ele>-0.113</ele>
  <time>2026-09-01T01:13:01Z</time>
  <course>8.36</course>
  <speed>0.7218032973047436</speed>
  <fix>3d</fix>
</trkpt>
<trkpt lat="33.810068" lon="-118.3941778">
  <ele>-0.1</ele>
  <time>2026-09-01T01:13:01Z</time>
  <course>45.19</course>
  <speed>0.73</speed>
  <fix>3d</fix>
</trkpt>
<trkpt lat="33.810069" lon="-118.3941763">
  <ele>-0.112</ele>
  <time>2026-09-01T01:13:01Z</time>
  <course>8.4</course>
  <speed>0.7218032973047436</speed>
  <fix>3d</fix>
</trkpt>
<trkpt lat="33.810068" lon="-118.3941778">
  <ele>-0.1</ele>
  <time>2026-09-01T01:13:01Z</time>
  <course>45.19</course>
  <speed>0.73</speed>
  <fix>3d</fix>
</trkpt>
<trkpt lat="33.8100695" lon="-118.3941757">
  <ele>-0.112</ele>
  <time>2026-09-01T01:13:01Z</time>
  <course>8.44</course>
  <speed>0.7291776189653656</speed>
  <fix>3d</fix>
</trkpt>
<trkpt lat="33.810069" lon="-118.3941767">
  <ele>-0.1</ele>
  <time>2026-09-01T01:13:01Z</time>
  <course>45.26</course>
  <speed>0.73</speed>
  <fix>3d</fix>
</trkpt>
<trkpt lat="33.8100699" lon="-118.3941752">
  <ele>-0.112</ele>
  <time>2026-09-01T01:13:01Z</time>
  <course>8.47</course>
  <speed>0.7291776189653656</speed>
  <fix>3d</fix>
</trkpt>
<trkpt lat="33.810069" lon="-118.3941767">
  <ele>-0.1</ele>
  <time>2026-09-01T01:13:01Z</time>
  <course>45.26</course>
  <speed>0.73</speed>
  <fix>3d</fix>
</trkpt>
<trkpt lat="33.8100704" lon="-118.3941746">
  <ele>-0.111</ele>
  <time>2026-09-01T01:13:01Z</time>
  <course>8.51</course>
  <speed>0.7291776189653656</speed>
  <fix>3d</fix>
</trkpt>
<trkpt lat="33.8100699" lon="-118.3941755">
  <ele>-0.11</ele>
  <time>2026-09-01T01:13:01Z</time>
  <course>45.34</course>
  <speed>0.73</speed>
  <fix>3d</fix>
</trkpt>
<trkpt lat="33.8100709" lon="-118.394174">
  <ele>-0.111</ele>
  <time>2026-09-01T01:13:01Z</time>
  <course>8.55</course>
  <speed>0.7291776189653656</speed>
  <fix>3d</fix>
</trkpt>
<trkpt lat="33.8100699" lon="-118.3941755">
  <ele>-0.11</ele>
  <time>2026-09-01T01:13:01Z</time>
  <course>45.34</course>
  <speed>0.73</speed>
  <fix>3d</fix>
</trkpt>
<trkpt lat="33.8100713" lon="-118.3941734">
  <ele>-0.109</ele>
  <time>2026-09-01T01:13:01Z</time>
  <course>8.58</course>
  <speed>0.7291776189653656</speed>
  <fix>3d</fix>
</trkpt>
<trkpt lat="33.8100708" lon="-118.3941744">
  <ele>-0.1</ele>
  <time>2026-09-01T01:13:01Z</time>
  <course>45.41</course>
  <speed>0.73</speed>
  <fix>3d</fix>
</trkpt>
<trkpt lat="33.8100718" lon="-118.3941729">
  <ele>-0.108</ele>
  <time>2026-09-01T01:13:01Z</time>
  <course>8.62</course>
  <speed>0.7291776189653656</speed>
  <fix>3d</fix>
</trkpt>
<trkpt lat="33.8100708" lon="-118.3941744">
  <ele>-0.1</ele>
  <time>2026-09-01T01:13:01Z</time>
  <course>45.41</course>
  <speed>0.73</speed>
  <fix>3d</fix>
</trkpt>
<trkpt lat="33.8100722" lon="-118.3941723">
  <ele>-0.108</ele>
  <time>2026-09-01T01:13:01Z</time>
  <course>8.65</course>
  <speed>0.7291776189653656</speed>
  <fix>3d</fix>
</trkpt>
<trkpt lat="33.8100717" lon="-118.3941733">
  <ele>-0.1</ele>
  <time>2026-09-01T01:13:01Z</time>
  <course>45.48</course>
  <speed>0.73</speed>
  <fix>3d</fix>
</trkpt>
<trkpt lat="33.8100727" lon="-118.3941717">
  <ele>-0.109</ele>
  <time>2026-09-01T01:13:01Z</time>
  <course>8.68</course>
  <speed>0.7291776189653656</speed>
  <fix>3d</fix>
</trkpt>
<trkpt lat="33.8100717" lon="-118.3941733">
  <ele>-0.1</ele>
  <time>2026-09-01T01:13:01Z</time>
  <course>45.48</course>
  <speed>0.73</speed>
  <fix>3d</fix>
</trkpt>
<trkpt lat="33.8100732" lon="-118.3941712">
  <ele>-0.109</ele>
  <time>2026-09-01T01:13:01Z</time>
  <course>8.72</course>
  <speed>0.7291776189653656</speed>
  <fix>3d</fix>
</trkpt>
<trkpt lat="33.8100727" lon="-118.3941721">
  <ele>-0.1</ele>
  <time>2026-09-01T01:13:01Z</time>
  <course>45.54</course>
  <speed>0.73</speed>
  <fix>3d</fix>
</trkpt>
<trkpt lat="33.8100736" lon="-118.3941706">
  <ele>-0.109</ele>
  <time>2026-09-01T01:13:01Z</time>
  <course>8.75</course>
  <speed>0.7291776189653656</speed>
  <fix>3d</fix>
</trkpt>
<trkpt lat="33.8100727" lon="-118.3941721">
  <ele>-0.1</ele>
  <time>2026-09-01T01:13:01Z</time>
  <course>45.54</course>
  <speed>0.73</speed>
  <fix>3d</fix>
</trkpt>
<trkpt lat="33.8100741" lon="-118.39417">
  <ele>-0.11</ele>
  <time>2026-09-01T01:13:01Z</time>
  <course>8.78</course>
  <speed>0.7291776189653656</speed>
  <fix>3d</fix>
</trkpt>
<trkpt lat="33.8100736" lon="-118.394171">
  <ele>-0.1</ele>
  <time>2026-09-01T01:13:01Z</time>
  <course>45.61</course>
  <speed>0.73</speed>
  <fix>3d</fix>
</trkpt>
<trkpt lat="33.8100745" lon="-118.3941694">
  <ele>-0.109</ele>
  <time>2026-09-01T01:13:01Z</time>
  <course>8.81</course>
  <speed>0.7224956747275377</speed>
  <fix>3d</fix>
</trkpt>
<trkpt lat="33.8100736" lon="-118.394171">
  <ele>-0.1</ele>
  <time>2026-09-01T01:13:01Z</time>
  <course>45.61</course>
  <speed>0.73</speed>
  <fix>3d</fix>
</trkpt>
<trkpt lat="33.810075" lon="-118.3941689">
  <ele>-0.108</ele>
  <time>2026-09-01T01:13:01Z</time>
  <course>8.85</course>
  <speed>0.7224956747275377</speed>
  <fix>3d</fix>
</trkpt>
<trkpt lat="33.8100745" lon="-118.3941699">
  <ele>-0.11</ele>
  <time>2026-09-01T01:13:01Z</time>
  <course>45.67</course>
  <speed>0.73</speed>
  <fix>3d</fix>
</trkpt>
<trkpt lat="33.8100755" lon="-118.3941683">
  <ele>-0.108</ele>
  <time>2026-09-01T01:13:01Z</time>
  <course>8.88</course>
  <speed>0.7224956747275377</speed>
  <fix>3d</fix>
</trkpt>
<trkpt lat="33.8100745" lon="-118.3941699">
  <ele>-0.11</ele>
  <time>2026-09-01T01:13:01Z</time>
  <course>45.67</course>
  <speed>0.73</speed>
  <fix>3d</fix>
</trkpt>
<trkpt lat="33.8100759" lon="-118.3941677">
  <ele>-0.108</ele>
  <time>2026-09-01T01:13:01Z</time>
  <course>8.91</course>
  <speed>0.7224956747275377</speed>
  <fix>3d</fix>
</trkpt>
<trkpt lat="33.8100754" lon="-118.3941687">
  <ele>-0.1</ele>
  <time>2026-09-01T01:13:01Z</time>
  <course>45.73</course>
  <speed>0.73</speed>
  <fix>3d</fix>
</trkpt>
<trkpt lat="33.8100764" lon="-118.3941671">
  <ele>-0.108</ele>
  <time>2026-09-01T01:13:01Z</time>
  <course>8.94</course>
  <speed>0.7224956747275377</speed>
  <fix>3d</fix>
</trkpt>
<trkpt lat="33.8100754" lon="-118.3941687">
  <ele>-0.1</ele>
  <time>2026-09-01T01:13:01Z</time>
  <course>45.73</course>
  <speed>0.73</speed>
  <fix>3d</fix>
</trkpt>
<trkpt lat="33.8100768" lon="-118.3941666">
  <ele>-0.106</ele>
  <time>2026-09-01T01:13:01Z</time>
  <course>8.97</course>
  <speed>0.7224956747275377</speed>
  <fix>3d</fix>
</trkpt>
<trkpt lat="33.8100763" lon="-118.3941676">
  <ele>-0.1</ele>
  <time>2026-09-01T01:13:01Z</time>
  <course>45.79</course>
  <speed>0.73</speed>
  <fix>3d</fix>
</trkpt>
<trkpt lat="33.8100773" lon="-118.394166">
  <ele>-0.106</ele>
  <time>2026-09-01T01:13:01Z</time>
  <course>9.0</course>
  <speed>0.7224956747275377</speed>
  <fix>3d</fix>
</trkpt>
<trkpt lat="33.8100763" lon="-118.3941676">
  <ele>-0.1</ele>
  <time>2026-09-01T01:13:01Z</time>
  <course>45.79</course>
  <speed>0.73</speed>
  <fix>3d</fix>
</trkpt>
<trkpt lat="33.8100777" lon="-118.3941654">
  <ele>-0.106</ele>
  <time>2026-09-01T01:13:01Z</time>
  <course>9.03</course>
  <speed>0.7224956747275377</speed>
  <fix>3d</fix>
</trkpt>
<trkpt lat="33.8100773" lon="-118.3941664">
  <ele>-0.1</ele>
  <time>2026-09-01T01:13:01Z</time>
  <course>45.85</course>
  <speed>0.73</speed>
  <fix>3d</fix>
</trkpt>
<trkpt lat="33.8100782" lon="-118.3941649">
  <ele>-0.106</ele>
  <time>2026-09-01T01:13:01Z</time>
  <course>9.06</course>
  <speed>0.7224956747275377</speed>
  <fix>3d</fix>
</trkpt>
<trkpt lat="33.8100773" lon="-118.3941664">
  <ele>-0.1</ele>
  <time>2026-09-01T01:13:01Z</time>
  <course>45.85</course>
  <speed>0.73</speed>
  <fix>3d</fix>
</trkpt>
<trkpt lat="33.8100786" lon="-118.3941643">
  <ele>-0.107</ele>
  <time>2026-09-01T01:13:01Z</time>
  <course>9.08</course>
  <speed>0.7224956747275377</speed>
  <fix>3d</fix>
</trkpt>
<trkpt lat="33.8100782" lon="-118.3941653">
  <ele>-0.1</ele>
  <time>2026-09-01T01:13:01Z</time>
  <course>45.91</course>
  <speed>0.73</speed>
  <fix>3d</fix>
</trkpt>
<trkpt lat="33.8100791" lon="-118.3941637">
  <ele>-0.108</ele>
  <time>2026-09-01T01:13:01Z</time>
  <course>9.11</course>
  <speed>0.7224956747275377</speed>
  <fix>3d</fix>
</trkpt>
<trkpt lat="33.8100782" lon="-118.3941653">
  <ele>-0.1</ele>
  <time>2026-09-01T01:13:01Z</time>
  <course>45.91</course>
  <speed>0.73</speed>
  <fix>3d</fix>
</trkpt>
<trkpt lat="33.8100795" lon="-118.3941631">
  <ele>-0.11</ele>
  <time>2026-09-01T01:13:01Z</time>
  <course>9.14</course>
  <speed>0.7224956747275377</speed>
  <fix>3d</fix>
</trkpt>
<trkpt lat="33.8100791" lon="-118.3941642">
  <ele>-0.11</ele>
  <time>2026-09-01T01:13:01Z</time>
  <course>45.96</course>
  <speed>0.73</speed>
  <fix>3d</fix>
</trkpt>
<trkpt lat="33.81008" lon="-118.3941626">
  <ele>-0.112</ele>
  <time>2026-09-01T01:13:01Z</time>
  <course>9.17</course>
  <speed>0.73</speed>
  <fix>3d</fix>
</trkpt>
<trkpt lat="33.8100791" lon="-118.3941642">
  <ele>-0.11</ele>
  <time>2026-09-01T01:13:01Z</time>
  <course>45.96</course>
  <speed>0.73</speed>
  <fix>3d</fix>
</trkpt>
<trkpt lat="33.8100805" lon="-118.394162">
  <ele>-0.113</ele>
  <time>2026-09-01T01:13:01Z</time>
  <course>9.19</course>
  <speed>0.73</speed>
  <fix>3d</fix>
</trkpt>
<trkpt lat="33.81008" lon="-118.394163">
  <ele>-0.1</ele>
  <time>2026-09-01T01:13:01Z</time>
  <course>46.02</course>
  <speed>0.73</speed>
  <fix>3d</fix>
</trkpt>
<trkpt lat="33.8100809" lon="-118.3941614">
  <ele>-0.112</ele>
  <time>2026-09-01T01:13:01Z</time>
  <course>9.22</course>
  <speed>0.7234638899074369</speed>
  <fix>3d</fix>
</trkpt>
<trkpt lat="33.81008" lon="-118.394163">
  <ele>-0.1</ele>
  <time>2026-09-01T01:13:01Z</time>
  <course>46.02</course>
  <speed>0.73</speed>
  <fix>3d</fix>
</trkpt>
<trkpt lat="33.8100814" lon="-118.3941608">
  <ele>-0.111</ele>
  <time>2026-09-01T01:13:01Z</time>
  <course>9.25</course>
  <speed>0.7234638899074369</speed>
  <fix>3d</fix>
</trkpt>
<trkpt lat="33.8100809" lon="-118.3941619">
  <ele>-0.1</ele>
  <time>2026-09-01T01:13:01Z</time>
  <course>46.07</course>
  <speed>0.73</speed>
  <fix>3d</fix>
</trkpt>
<trkpt lat="33.8100818" lon="-118.3941603">
  <ele>-0.11</ele>
  <time>2026-09-01T01:13:01Z</time>
  <course>9.27</course>
  <speed>0.7234638899074369</speed>
  <fix>3d</fix>
</trkpt>
<trkpt lat="33.8100809" lon="-118.3941619">
  <ele>-0.1</ele>
  <time>2026-09-01T01:13:01Z</time>
  <course>46.07</course>
  <speed>0.73</speed>
  <fix>3d</fix>
</trkpt>
<trkpt lat="33.8100823" lon="-118.3941597">
  <ele>-0.108</ele>
  <time>2026-09-01T01:13:01Z</time>
  <course>9.3</course>
  <speed>0.7234638899074369</speed>
  <fix>3d</fix>
</trkpt>
<trkpt lat="33.8100819" lon="-118.3941607">
  <ele>-0.1</ele>
  <time>2026-09-01T01:13:01Z</time>
  <course>46.12</course>
  <speed>0.73</speed>
  <fix>3d</fix>
</trkpt>
<trkpt lat="33.8100827" lon="-118.3941591">
  <ele>-0.106</ele>
  <time>2026-09-01T01:13:01Z</time>
  <course>9.32</course>
  <speed>0.7234638899074369</speed>
  <fix>3d</fix>
</trkpt>
<trkpt lat="33.8100819" lon="-118.3941607">
  <ele>-0.1</ele>
  <time>2026-09-01T01:13:01Z</time>
  <course>46.12</course>
  <speed>0.73</speed>
  <fix>3d</fix>
</trkpt>
<trkpt lat="33.8100832" lon="-118.3941586">
  <ele>-0.106</ele>
  <time>2026-09-01T01:13:01Z</time>
  <course>9.35</course>
  <speed>0.7234638899074369</speed>
  <fix>3d</fix>
</trkpt>
<trkpt lat="33.8100828" lon="-118.3941596">
  <ele>-0.1</ele>
  <time>2026-09-01T01:13:01Z</time>
  <course>46.17</course>
  <speed>0.73</speed>
  <fix>3d</fix>
</trkpt>
<trkpt lat="33.8100836" lon="-118.394158">
  <ele>-0.105</ele>
  <time>2026-09-01T01:13:01Z</time>
  <course>9.37</course>
  <speed>0.7234638899074369</speed>
  <fix>3d</fix>
</trkpt>
<trkpt lat="33.8100828" lon="-118.3941596">
  <ele>-0.1</ele>
  <time>2026-09-01T01:13:01Z</time>
  <course>46.17</course>
  <speed>0.73</speed>
  <fix>3d</fix>
</trkpt>
<trkpt lat="33.8100841" lon="-118.3941574">
  <ele>-0.105</ele>
  <time>2026-09-01T01:13:01Z</time>
  <course>9.4</course>
  <speed>0.7234638899074369</speed>
  <fix>3d</fix>
</trkpt>
<trkpt lat="33.8100837" lon="-118.3941584">
  <ele>-0.11</ele>
  <time>2026-09-01T01:13:01Z</time>
  <course>46.22</course>
  <speed>0.73</speed>
  <fix>3d</fix>
</trkpt>
<trkpt lat="33.8100845" lon="-118.3941568">
  <ele>-0.104</ele>
  <time>2026-09-01T01:13:01Z</time>
  <course>9.42</course>
  <speed>0.7234638899074369</speed>
  <fix>3d</fix>
</trkpt>
<trkpt lat="33.8100837" lon="-118.3941584">
  <ele>-0.11</ele>
  <time>2026-09-01T01:13:01Z</time>
  <course>46.22</course>
  <speed>0.73</speed>
  <fix>3d</fix>
</trkpt>
<trkpt lat="33.810085" lon="-118.3941563">
  <ele>-0.105</ele>
  <time>2026-09-01T01:13:01Z</time>
  <course>9.45</course>
  <speed>0.7234638899074369</speed>
  <fix>3d</fix>
</trkpt>
<trkpt lat="33.8100846" lon="-118.3941573">
  <ele>-0.1</ele>
  <time>2026-09-01T01:13:01Z</time>
  <course>46.27</course>
  <speed>0.73</speed>
  <fix>3d</fix>
</trkpt>
<trkpt lat="33.8100854" lon="-118.3941557">
  <ele>-0.105</ele>
  <time>2026-09-01T01:13:01Z</time>
  <course>9.47</course>
  <speed>0.7234638899074369</speed>
  <fix>3d</fix>
</trkpt>
<trkpt lat="33.8100846" lon="-118.3941573">
  <ele>-0.1</ele>
  <time>2026-09-01T01:13:01Z</time>
  <course>46.27</course>
  <speed>0.73</speed>
  <fix>3d</fix>
</trkpt>
<trkpt lat="33.8100859" lon="-118.3941551">
  <ele>-0.104</ele>
  <time>2026-09-01T01:13:01Z</time>
  <course>9.49</course>
  <speed>0.7234638899074369</speed>
  <fix>3d</fix>
</trkpt>
<trkpt lat="33.8100855" lon="-118.3941561">
  <ele>-0.1</ele>
  <time>2026-09-01T01:13:01Z</time>
  <course>46.31</course>
  <speed>0.73</speed>
  <fix>3d</fix>
</trkpt>
<trkpt lat="33.8100863" lon="-118.3941546">
  <ele>-0.105</ele>
  <time>2026-09-01T01:13:01Z</time>
  <course>9.52</course>
  <speed>0.7234638899074369</speed>
  <fix>3d</fix>
</trkpt>
<trkpt lat="33.8100855" lon="-118.3941561">
  <ele>-0.1</ele>
  <time>2026-09-01T01:13:01Z</time>
  <course>46.31</course>
  <speed>0.73</speed>
  <fix>3d</fix>
</trkpt>
<trkpt lat="33.8100868" lon="-118.394154">
  <ele>-0.105</ele>
  <time>2026-09-01T01:13:01Z</time>
  <course>9.54</course>
  <speed>0.7234638899074369</speed>
  <fix>3d</fix>
</trkpt>
<trkpt lat="33.8100864" lon="-118.3941549">
  <ele>-0.1</ele>
  <time>2026-09-01T01:13:01Z</time>
  <course>46.36</course>
  <speed>0.73</speed>
  <fix>3d</fix>
</trkpt>
<trkpt lat="33.8100872" lon="-118.3941534">
  <ele>-0.105</ele>
  <time>2026-09-01T01:13:01Z</time>
  <course>9.56</course>
  <speed>0.7234638899074369</speed>
  <fix>3d</fix>
</trkpt>
<trkpt lat="33.8100864" lon="-118.3941549">
  <ele>-0.1</ele>
  <time>2026-09-01T01:13:01Z</time>
  <course>46.36</course>
  <speed>0.73</speed>
  <fix>3d</fix>
</trkpt>
<trkpt lat="33.8100877" lon="-118.3941528">
  <ele>-0.106</ele>
  <time>2026-09-01T01:13:01Z</time>
  <course>9.58</course>
  <speed>0.7234638899074369</speed>
  <fix>3d</fix>
</trkpt>
<trkpt lat="33.8100873" lon="-118.3941538">
  <ele>-0.1</ele>
  <time>2026-09-01T01:13:01Z</time>
  <course>46.41</course>
  <speed>0.73</speed>
  <fix>3d</fix>
</trkpt>
<trkpt lat="33.8100881" lon="-118.3941523">
  <ele>-0.107</ele>
  <time>2026-09-01T01:13:01Z</time>
  <course>9.61</course>
  <speed>0.7234638899074369</speed>
  <fix>3d</fix>
</trkpt>
<trkpt lat="33.8100873" lon="-118.3941538">
  <ele>-0.1</ele>
  <time>2026-09-01T01:13:01Z</time>
  <course>46.41</course>
  <speed>0.73</speed>
  <fix>3d</fix>
</trkpt>
<trkpt lat="33.8100886" lon="-118.3941517">
  <ele>-0.108</ele>
  <time>2026-09-01T01:13:01Z</time>
  <course>9.63</course>
  <speed>0.7234638899074369</speed>
  <fix>3d</fix>
</trkpt>
<trkpt lat="33.8100882" lon="-118.3941527">
  <ele>-0.11</ele>
  <time>2026-09-01T01:13:01Z</time>
  <course>46.45</course>
  <speed>0.73</speed>
  <fix>3d</fix>
</trkpt>
<trkpt lat="33.810089" lon="-118.3941511">
  <ele>-0.109</ele>
  <time>2026-09-01T01:13:01Z</time>
  <course>9.65</course>
  <speed>0.7234638899074369</speed>
  <fix>3d</fix>
</trkpt>
<trkpt lat="33.8100882" lon="-118.3941527">
  <ele>-0.11</ele>
  <time>2026-09-01T01:13:01Z</time>
  <course>46.45</course>
  <speed>0.73</speed>
  <fix>3d</fix>
</trkpt>
<trkpt lat="33.8100895" lon="-118.3941505">
  <ele>-0.108</ele>
  <time>2026-09-01T01:13:01Z</time>
  <course>9.67</course>
  <speed>0.7234638899074369</speed>
  <fix>3d</fix>
</trkpt>
<trkpt lat="33.8100892" lon="-118.3941515">
  <ele>-0.1</ele>
  <time>2026-09-01T01:13:01Z</time>
  <course>46.49</course>
  <speed>0.73</speed>
  <fix>3d</fix>
</trkpt>
<trkpt lat="33.8100899" lon="-118.3941499">
  <ele>-0.108</ele>
  <time>2026-09-01T01:13:01Z</time>
  <course>9.69</course>
  <speed>0.7234638899074369</speed>
  <fix>3d</fix>
</trkpt>
<trkpt lat="33.8100892" lon="-118.3941515">
  <ele>-0.1</ele>
  <time>2026-09-01T01:13:01Z</time>
  <course>46.49</course>
  <speed>0.73</speed>
  <fix>3d</fix>
</trkpt>
<trkpt lat="33.8100904" lon="-118.3941494">
  <ele>-0.108</ele>
  <time>2026-09-01T01:13:01Z</time>
  <course>9.71</course>
  <speed>0.7234638899074369</speed>
  <fix>3d</fix>
</trkpt>
<trkpt lat="33.8100901" lon="-118.3941504">
  <ele>-0.1</ele>
  <time>2026-09-01T01:13:01Z</time>
  <course>46.53</course>
  <speed>0.73</speed>
  <fix>3d</fix>
</trkpt>
<trkpt lat="33.8100908" lon="-118.3941488">
  <ele>-0.108</ele>
  <time>2026-09-01T01:13:01Z</time>
  <course>9.73</course>
  <speed>0.7234638899074369</speed>
  <fix>3d</fix>
</trkpt>
<trkpt lat="33.8100901" lon="-118.3941504">
  <ele>-0.1</ele>
  <time>2026-09-01T01:13:01Z</time>
  <course>46.53</course>
  <speed>0.73</speed>
  <fix>3d</fix>
</trkpt>
<trkpt lat="33.8100913" lon="-118.3941482">
  <ele>-0.108</ele>
  <time>2026-09-01T01:13:01Z</time>
  <course>9.75</course>
  <speed>0.7234638899074369</speed>
  <fix>3d</fix>
</trkpt>
<trkpt lat="33.810091" lon="-118.3941492">
  <ele>-0.1</ele>
  <time>2026-09-01T01:13:01Z</time>
  <course>46.58</course>
  <speed>0.73</speed>
  <fix>3d</fix>
</trkpt>
<trkpt lat="33.8100918" lon="-118.3941476">
  <ele>-0.108</ele>
  <time>2026-09-01T01:13:01Z</time>
  <course>9.78</course>
  <speed>0.7234638899074369</speed>
  <fix>3d</fix>
</trkpt>
<trkpt lat="33.810091" lon="-118.3941492">
  <ele>-0.1</ele>
  <time>2026-09-01T01:13:01Z</time>
  <course>46.58</course>
  <speed>0.73</speed>
  <fix>3d</fix>
</trkpt>
<trkpt lat="33.8100922" lon="-118.3941471">
  <ele>-0.109</ele>
  <time>2026-09-01T01:13:01Z</time>
  <course>9.8</course>
  <speed>0.7234638899074369</speed>
  <fix>3d</fix>
</trkpt>
<trkpt lat="33.8100919" lon="-118.3941481">
  <ele>-0.1</ele>
  <time>2026-09-01T01:13:01Z</time>
  <course>46.62</course>
  <speed>0.73</speed>
  <fix>3d</fix>
</trkpt>
<trkpt lat="33.8100927" lon="-118.3941465">
  <ele>-0.11</ele>
  <time>2026-09-01T01:13:01Z</time>
  <course>9.82</course>
  <speed>0.7234638899074369</speed>
  <fix>3d</fix>
</trkpt>
<trkpt lat="33.8100919" lon="-118.3941481">
  <ele>-0.1</ele>
  <time>2026-09-01T01:13:01Z</time>
  <course>46.62</course>
  <speed>0.73</speed>
  <fix>3d</fix>
</trkpt>
<trkpt lat="33.8100931" lon="-118.3941459">
  <ele>-0.112</ele>
  <time>2026-09-01T01:13:01Z</time>
  <course>9.84</course>
  <speed>0.7234638899074369</speed>
  <fix>3d</fix>
</trkpt>
<trkpt lat="33.8100928" lon="-118.3941469">
  <ele>-0.11</ele>
  <time>2026-09-01T01:13:01Z</time>
  <course>46.66</course>
  <speed>0.73</speed>
  <fix>3d</fix>
</trkpt>
<trkpt lat="33.8100936" lon="-118.3941453">
  <ele>-0.114</ele>
  <time>2026-09-01T01:13:01Z</time>
  <course>9.85</course>
  <speed>0.7234638899074369</speed>
  <fix>3d</fix>
</trkpt>
<trkpt lat="33.8100928" lon="-118.3941469">
  <ele>-0.11</ele>
  <time>2026-09-01T01:13:01Z</time>
  <course>46.66</course>
  <speed>0.73</speed>
  <fix>3d</fix>
</trkpt>
<trkpt lat="33.810094" lon="-118.3941448">
  <ele>-0.115</ele>
  <time>2026-09-01T01:13:01Z</time>
  <course>9.87</course>
  <speed>0.7234638899074369</speed>
  <fix>3d</fix>
</trkpt>
<trkpt lat="33.8100937" lon="-118.3941458">
  <ele>-0.1</ele>
  <time>2026-09-01T01:13:01Z</time>
  <course>46.7</course>
  <speed>0.73</speed>
  <fix>3d</fix>
</trkpt>
<trkpt lat="33.8100945" lon="-118.3941442">
  <ele>-0.116</ele>
  <time>2026-09-01T01:13:01Z</time>
  <course>9.89</course>
  <speed>0.717007670809734</speed>
  <fix>3d</fix>
</trkpt>
<trkpt lat="33.8100937" lon="-118.3941458">
  <ele>-0.1</ele>
  <time>2026-09-01T01:13:01Z</time>
  <course>46.7</course>
  <speed>0.73</speed>
  <fix>3d</fix>
</trkpt>
<trkpt lat="33.8100949" lon="-118.3941436">
  <ele>-0.116</ele>
  <time>2026-09-01T01:13:01Z</time>
  <course>9.91</course>
  <speed>0.717007670809734</speed>
  <fix>3d</fix>
</trkpt>
<trkpt lat="33.8100946" lon="-118.3941446">
  <ele>-0.1</ele>
  <time>2026-09-01T01:13:01Z</time>
  <course>46.73</course>
  <speed>0.73</speed>
  <fix>3d</fix>
</trkpt>
<trkpt lat="33.8100954" lon="-118.394143">
  <ele>-0.116</ele>
  <time>2026-09-01T01:13:01Z</time>
  <course>9.93</course>
  <speed>0.717007670809734</speed>
  <fix>3d</fix>
</trkpt>
<trkpt lat="33.8100946" lon="-118.3941446">
  <ele>-0.1</ele>
  <time>2026-09-01T01:13:01Z</time>
  <course>46.73</course>
  <speed>0.73</speed>
  <fix>3d</fix>
</trkpt>
<trkpt lat="33.8100958" lon="-118.3941425">
  <ele>-0.116</ele>
  <time>2026-09-01T01:13:01Z</time>
  <course>9.95</course>
  <speed>0.717007670809734</speed>
  <fix>3d</fix>
</trkpt>
<trkpt lat="33.8100955" lon="-118.3941434">
  <ele>-0.1</ele>
  <time>2026-09-01T01:13:01Z</time>
  <course>46.77</course>
  <speed>0.73</speed>
  <fix>3d</fix>
</trkpt>
<trkpt lat="33.8100963" lon="-118.3941419">
  <ele>-0.115</ele>
  <time>2026-09-01T01:13:01Z</time>
  <course>9.97</course>
  <speed>0.717007670809734</speed>
  <fix>3d</fix>
</trkpt>
<trkpt lat="33.8100955" lon="-118.3941434">
  <ele>-0.1</ele>
  <time>2026-09-01T01:13:01Z</time>
  <course>46.77</course>
  <speed>0.73</speed>
  <fix>3d</fix>
</trkpt>
<trkpt lat="33.8100967" lon="-118.3941413">
  <ele>-0.114</ele>
  <time>2026-09-01T01:13:01Z</time>
  <course>9.99</course>
  <speed>0.717007670809734</speed>
  <fix>3d</fix>
</trkpt>
<trkpt lat="33.8100964" lon="-118.3941423">
  <ele>-0.1</ele>
  <time>2026-09-01T01:13:01Z</time>
  <course>46.81</course>
  <speed>0.73</speed>
  <fix>3d</fix>
</trkpt>
<trkpt lat="33.8100972" lon="-118.3941407">
  <ele>-0.114</ele>
  <time>2026-09-01T01:13:01Z</time>
  <course>10.0</course>
  <speed>0.717007670809734</speed>
  <fix>3d</fix>
</trkpt>
<trkpt lat="33.8100964" lon="-118.3941423">
  <ele>-0.1</ele>
  <time>2026-09-01T01:13:01Z</time>
  <course>46.81</course>
  <speed>0.73</speed>
  <fix>3d</fix>
</trkpt>
<trkpt lat="33.8100976" lon="-118.3941401">
  <ele>-0.114</ele>
  <time>2026-09-01T01:13:01Z</time>
  <course>10.02</course>
  <speed>0.717007670809734</speed>
  <fix>3d</fix>
</trkpt>
<trkpt lat="33.8100973" lon="-118.3941411">
  <ele>-0.11</ele>
  <time>2026-09-01T01:13:01Z</time>
  <course>46.85</course>
  <speed>0.73</speed>
  <fix>3d</fix>
</trkpt>
<trkpt lat="33.8100981" lon="-118.3941396">
  <ele>-0.114</ele>
  <time>2026-09-01T01:13:01Z</time>
  <course>10.04</course>
  <speed>0.717007670809734</speed>
  <fix>3d</fix>
</trkpt>
<trkpt lat="33.8100973" lon="-118.3941411">
  <ele>-0.11</ele>
  <time>2026-09-01T01:13:01Z</time>
  <course>46.85</course>
  <speed>0.73</speed>
  <fix>3d</fix>
</trkpt>
<trkpt lat="33.8100985" lon="-118.394139">
  <ele>-0.114</ele>
  <time>2026-09-01T01:13:01Z</time>
  <course>10.06</course>
  <speed>0.717007670809734</speed>
  <fix>3d</fix>
</trkpt>
<trkpt lat="33.8100982" lon="-118.39414">
  <ele>-0.1</ele>
  <time>2026-09-01T01:13:01Z</time>
  <course>46.88</course>
  <speed>0.73</speed>
  <fix>3d</fix>
</trkpt>
<trkpt lat="33.810099" lon="-118.3941384">
  <ele>-0.114</ele>
  <time>2026-09-01T01:13:01Z</time>
  <course>10.08</course>
  <speed>0.717007670809734</speed>
  <fix>3d</fix>
</trkpt>
<trkpt lat="33.8100982" lon="-118.39414">
  <ele>-0.1</ele>
  <time>2026-09-01T01:13:01Z</time>
  <course>46.88</course>
  <speed>0.73</speed>
  <fix>3d</fix>
</trkpt>
<trkpt lat="33.8100994" lon="-118.3941378">
  <ele>-0.113</ele>
  <time>2026-09-01T01:13:01Z</time>
  <course>10.09</course>
  <speed>0.717007670809734</speed>
  <fix>3d</fix>
</trkpt>
<trkpt lat="33.8100991" lon="-118.3941388">
  <ele>-0.1</ele>
  <time>2026-09-01T01:13:01Z</time>
  <course>46.92</course>
  <speed>0.73</speed>
  <fix>3d</fix>
</trkpt>
<trkpt lat="33.8100999" lon="-118.3941372">
  <ele>-0.112</ele>
  <time>2026-09-01T01:13:01Z</time>
  <course>10.11</course>
  <speed>0.717007670809734</speed>
  <fix>3d</fix>
</trkpt>
<trkpt lat="33.8100991" lon="-118.3941388">
  <ele>-0.1</ele>
  <time>2026-09-01T01:13:01Z</time>
  <course>46.92</course>
  <speed>0.73</speed>
  <fix>3d</fix>
</trkpt>
<trkpt lat="33.8101003" lon="-118.3941367">
  <ele>-0.112</ele>
  <time>2026-09-01T01:13:01Z</time>
  <course>10.13</course>
  <speed>0.717007670809734</speed>
  <fix>3d</fix>
</trkpt>
<trkpt lat="33.8101" lon="-118.3941376">
  <ele>-0.1</ele>
  <time>2026-09-01T01:13:01Z</time>
  <course>46.95</course>
  <speed>0.73</speed>
  <fix>3d</fix>
</trkpt>
<trkpt lat="33.8101008" lon="-118.3941361">
  <ele>-0.113</ele>
  <time>2026-09-01T01:13:01Z</time>
  <course>10.14</course>
  <speed>0.717007670809734</speed>
  <fix>3d</fix>
</trkpt>
<trkpt lat="33.8101" lon="-118.3941376">
  <ele>-0.1</ele>
  <time>2026-09-01T01:13:01Z</time>
  <course>46.95</course>
  <speed>0.73</speed>
  <fix>3d</fix>
</trkpt>
<trkpt lat="33.8101012" lon="-118.3941355">
  <ele>-0.113</ele>
  <time>2026-09-01T01:13:01Z</time>
  <course>10.16</course>
  <speed>0.717007670809734</speed>
  <fix>3d</fix>
</trkpt>
<trkpt lat="33.8101009" lon="-118.3941365">
  <ele>-0.1</ele>
  <time>2026-09-01T01:13:01Z</time>
  <course>46.99</course>
  <speed>0.73</speed>
  <fix>3d</fix>
</trkpt>
<trkpt lat="33.8101017" lon="-118.3941349">
  <ele>-0.112</ele>
  <time>2026-09-01T01:13:01Z</time>
  <course>10.18</course>
  <speed>0.717007670809734</speed>
  <fix>3d</fix>
</trkpt>
<trkpt lat="33.8101009" lon="-118.3941365">
  <ele>-0.1</ele>
  <time>2026-09-01T01:13:01Z</time>
  <course>46.99</course>
  <speed>0.73</speed>
  <fix>3d</fix>
</trkpt>
<trkpt lat="33.8101021" lon="-118.3941343">
  <ele>-0.112</ele>
  <time>2026-09-01T01:13:01Z</time>
  <course>10.19</course>
  <speed>0.717007670809734</speed>
  <fix>3d</fix>
</trkpt>
<trkpt lat="33.8101018" lon="-118.3941353">
  <ele>-0.1</ele>
  <time>2026-09-01T01:13:01Z</time>
  <course>47.02</course>
  <speed>0.73</speed>
  <fix>3d</fix>
</trkpt>
<trkpt lat="33.8101026" lon="-118.3941338">
  <ele>-0.112</ele>
  <time>2026-09-01T01:13:01Z</time>
  <course>10.21</course>
  <speed>0.717007670809734</speed>
  <fix>3d</fix>
</trkpt>
<trkpt lat="33.8101018" lon="-118.3941353">
  <ele>-0.1</ele>
  <time>2026-09-01T01:13:01Z</time>
  <course>47.02</course>
  <speed>0.73</speed>
  <fix>3d</fix>
</trkpt>
<trkpt lat="33.810103" lon="-118.3941332">
  <ele>-0.112</ele>
  <time>2026-09-01T01:13:01Z</time>
  <course>10.23</course>
  <speed>0.717007670809734</speed>
  <fix>3d</fix>
</trkpt>
<trkpt lat="33.8101027" lon="-118.3941342">
  <ele>-0.1</ele>
  <time>2026-09-01T01:13:01Z</time>
  <course>47.05</course>
  <speed>0.73</speed>
  <fix>3d</fix>
</trkpt>
<trkpt lat="33.8101035" lon="-118.3941326">
  <ele>-0.111</ele>
  <time>2026-09-01T01:13:01Z</time>
  <course>10.24</course>
  <speed>0.717007670809734</speed>
  <fix>3d</fix>
</trkpt>
<trkpt lat="33.8101027" lon="-118.3941342">
  <ele>-0.1</ele>
  <time>2026-09-01T01:13:01Z</time>
  <course>47.05</course>
  <speed>0.73</speed>
  <fix>3d</fix>
</trkpt>
<trkpt lat="33.8101039" lon="-118.394132">
  <ele>-0.11</ele>
  <time>2026-09-01T01:13:01Z</time>
  <course>10.26</course>
  <speed>0.717007670809734</speed>
  <fix>3d</fix>
</trkpt>
<trkpt lat="33.8101036" lon="-118.3941329">
  <ele>-0.1</ele>
  <time>2026-09-01T01:13:01Z</time>
  <course>47.09</course>
  <speed>0.73</speed>
  <fix>3d</fix>
</trkpt>
<trkpt lat="33.8101044" lon="-118.3941314">
  <ele>-0.11</ele>
  <time>2026-09-01T01:13:01Z</time>
  <course>10.28</course>
  <speed>0.717007670809734</speed>
  <fix>3d</fix>
</trkpt>
<trkpt lat="33.8101036" lon="-118.3941329">
  <ele>-0.1</ele>
  <time>2026-09-01T01:13:01Z</time>
  <course>47.09</course>
  <speed>0.73</speed>
  <fix>3d</fix>
</trkpt>
<trkpt lat="33.8101048" lon="-118.3941309">
  <ele>-0.11</ele>
  <time>2026-09-01T01:13:01Z</time>
  <course>10.29</course>
  <speed>0.717007670809734</speed>
  <fix>3d</fix>
</trkpt>
<trkpt lat="33.8101045" lon="-118.3941318">
  <ele>-0.1</ele>
  <time>2026-09-01T01:13:01Z</time>
  <course>47.12</course>
  <speed>0.73</speed>
  <fix>3d</fix>
</trkpt>
<trkpt lat="33.8101053" lon="-118.3941303">
  <ele>-0.111</ele>
  <time>2026-09-01T01:13:01Z</time>
  <course>10.31</course>
  <speed>0.717007670809734</speed>
  <fix>3d</fix>
</trkpt>
<trkpt lat="33.8101045" lon="-118.3941318">
  <ele>-0.1</ele>
  <time>2026-09-01T01:13:01Z</time>
  <course>47.12</course>
  <speed>0.73</speed>
  <fix>3d</fix>
</trkpt>
<trkpt lat="33.8101057" lon="-118.3941297">
  <ele>-0.112</ele>
  <time>2026-09-01T01:13:01Z</time>
  <course>10.32</course>
  <speed>0.717007670809734</speed>
  <fix>3d</fix>
</trkpt>
<trkpt lat="33.8101054" lon="-118.3941307">
  <ele>-0.1</ele>
  <time>2026-09-01T01:13:01Z</time>
  <course>47.15</course>
  <speed>0.73</speed>
  <fix>3d</fix>
</trkpt>
<trkpt lat="33.8101062" lon="-118.3941291">
  <ele>-0.113</ele>
  <time>2026-09-01T01:13:01Z</time>
  <course>10.34</course>
  <speed>0.717007670809734</speed>
  <fix>3d</fix>
</trkpt>
<trkpt lat="33.8101054" lon="-118.3941307">
  <ele>-0.1</ele>
  <time>2026-09-01T01:13:01Z</time>
  <course>47.15</course>
  <speed>0.73</speed>
  <fix>3d</fix>
</trkpt>
<trkpt lat="33.8101066" lon="-118.3941285">
  <ele>-0.114</ele>
  <time>2026-09-01T01:13:01Z</time>
  <course>10.35</course>
  <speed>0.717007670809734</speed>
  <fix>3d</fix>
</trkpt>
<trkpt lat="33.8101063" lon="-118.3941295">
  <ele>-0.1</ele>
  <time>2026-09-01T01:13:01Z</time>
  <course>47.18</course>
  <speed>0.73</speed>
  <fix>3d</fix>
</trkpt>
<trkpt lat="33.8101071" lon="-118.3941279">
  <ele>-0.115</ele>
  <time>2026-09-01T01:13:01Z</time>
  <course>10.37</course>
  <speed>0.717007670809734</speed>
  <fix>3d</fix>
</trkpt>
<trkpt lat="33.8101063" lon="-118.3941295">
  <ele>-0.1</ele>
  <time>2026-09-01T01:13:01Z</time>
  <course>47.18</course>
  <speed>0.73</speed>
  <fix>3d</fix>
</trkpt>
<trkpt lat="33.8101075" lon="-118.3941274">
  <ele>-0.116</ele>
  <time>2026-09-01T01:13:01Z</time>
  <course>10.38</course>
  <speed>0.717007670809734</speed>
  <fix>3d</fix>
</trkpt>
<trkpt lat="33.8101072" lon="-118.3941283">
  <ele>-0.1</ele>
  <time>2026-09-01T01:13:01Z</time>
  <course>47.21</course>
  <speed>0.73</speed>
  <fix>3d</fix>
</trkpt>
<trkpt lat="33.810108" lon="-118.3941268">
  <ele>-0.117</ele>
  <time>2026-09-01T01:13:01Z</time>
  <course>10.4</course>
  <speed>0.717007670809734</speed>
  <fix>3d</fix>
</trkpt>
<trkpt lat="33.8101072" lon="-118.3941283">
  <ele>-0.1</ele>
  <time>2026-09-01T01:13:01Z</time>
  <course>47.21</course>
  <speed>0.73</speed>
  <fix>3d</fix>
</trkpt>
<trkpt lat="33.8101084" lon="-118.3941262">
  <ele>-0.117</ele>
  <time>2026-09-01T01:13:01Z</time>
  <course>10.41</course>
  <speed>0.717007670809734</speed>
  <fix>3d</fix>
</trkpt>
<trkpt lat="33.8101081" lon="-118.3941271">
  <ele>-0.1</ele>
  <time>2026-09-01T01:13:01Z</time>
  <course>47.24</course>
  <speed>0.73</speed>
  <fix>3d</fix>
</trkpt>
<trkpt lat="33.8101089" lon="-118.3941256">
  <ele>-0.117</ele>
  <time>2026-09-01T01:13:01Z</time>
  <course>10.43</course>
  <speed>0.717007670809734</speed>
  <fix>3d</fix>
</trkpt>
<trkpt lat="33.8101081" lon="-118.3941271">
  <ele>-0.1</ele>
  <time>2026-09-01T01:13:01Z</time>
  <course>47.24</course>
  <speed>0.73</speed>
  <fix>3d</fix>
</trkpt>
<trkpt lat="33.8101093" lon="-118.394125">
  <ele>-0.117</ele>
  <time>2026-09-01T01:13:02Z</time>
  <course>10.44</course>
  <speed>0.717007670809734</speed>
  <fix>3d</fix>
</trkpt>
<trkpt lat="33.810109" lon="-118.394126">
  <ele>-0.1</ele>
  <time>2026-09-01T01:13:02Z</time>
  <course>47.27</course>
  <speed>0.73</speed>
  <fix>3d</fix>
</trkpt>
<trkpt lat="33.8101098" lon="-118.3941244">
  <ele>-0.116</ele>
  <time>2026-09-01T01:13:02Z</time>
  <course>10.46</course>
  <speed>0.717007670809734</speed>
  <fix>3d</fix>
</trkpt>
<trkpt lat="33.810109" lon="-118.394126">
  <ele>-0.1</ele>
  <time>2026-09-01T01:13:02Z</time>
  <course>47.27</course>
  <speed>0.73</speed>
  <fix>3d</fix>
</trkpt>
<trkpt lat="33.8101102" lon="-118.3941238">
  <ele>-0.115</ele>
  <time>2026-09-01T01:13:02Z</time>
  <course>10.47</course>
  <speed>0.717007670809734</speed>
  <fix>3d</fix>
</trkpt>
<trkpt lat="33.8101099" lon="-118.3941248">
  <ele>-0.1</ele>
  <time>2026-09-01T01:13:02Z</time>
  <course>47.3</course>
  <speed>0.73</speed>
  <fix>3d</fix>
</trkpt>
<trkpt lat="33.8101107" lon="-118.3941233">
  <ele>-0.114</ele>
  <time>2026-09-01T01:13:02Z</time>
  <course>10.49</course>
  <speed>0.717007670809734</speed>
  <fix>3d</fix>
</trkpt>
<trkpt lat="33.8101099" lon="-118.3941248">
  <ele>-0.1</ele>
  <time>2026-09-01T01:13:02Z</time>
  <course>47.3</course>
  <speed>0.73</speed>
  <fix>3d</fix>
</trkpt>
<trkpt lat="33.8101111" lon="-118.3941227">
  <ele>-0.113</ele>
  <time>2026-09-01T01:13:02Z</time>
  <course>10.5</course>
  <speed>0.717007670809734</speed>
  <fix>3d</fix>
</trkpt>
<trkpt lat="33.8101108" lon="-118.3941237">
  <ele>-0.1</ele>
  <time>2026-09-01T01:13:02Z</time>
  <course>47.33</course>
  <speed>0.73</speed>
  <fix>3d</fix>
</trkpt>
<trkpt lat="33.8101116" lon="-118.3941221">
  <ele>-0.114</ele>
  <time>2026-09-01T01:13:02Z</time>
  <course>10.52</course>
  <speed>0.717007670809734</speed>
  <fix>3d</fix>
</trkpt>
<trkpt lat="33.8101108" lon="-118.3941237">
  <ele>-0.1</ele>
  <time>2026-09-01T01:13:02Z</time>
  <course>47.33</course>
  <speed>0.73</speed>
  <fix>3d</fix>
</trkpt>
<trkpt lat="33.810112" lon="-118.3941215">
  <ele>-0.115</ele>
  <time>2026-09-01T01:13:02Z</time>
  <course>10.53</course>
  <speed>0.717007670809734</speed>
  <fix>3d</fix>
</trkpt>
<trkpt lat="33.8101117" lon="-118.3941225">
  <ele>-0.1</ele>
  <time>2026-09-01T01:13:02Z</time>
  <course>47.36</course>
  <speed>0.73</speed>
  <fix>3d</fix>
</trkpt>
<trkpt lat="33.8101125" lon="-118.3941209">
  <ele>-0.114</ele>
  <time>2026-09-01T01:13:02Z</time>
  <course>10.54</course>
  <speed>0.717007670809734</speed>
  <fix>3d</fix>
</trkpt>
<trkpt lat="33.8101117" lon="-118.3941225">
  <ele>-0.1</ele>
  <time>2026-09-01T01:13:02Z</time>
  <course>47.36</course>
  <speed>0.73</speed>
  <fix>3d</fix>
</trkpt>
<trkpt lat="33.8101129" lon="-118.3941203">
  <ele>-0.113</ele>
  <time>2026-09-01T01:13:02Z</time>
  <course>10.56</course>
  <speed>0.717007670809734</speed>
  <fix>3d</fix>
</trkpt>
<trkpt lat="33.8101126" lon="-118.3941213">
  <ele>-0.1</ele>
  <time>2026-09-01T01:13:02Z</time>
  <course>47.39</course>
  <speed>0.73</speed>
  <fix>3d</fix>
</trkpt>
<trkpt lat="33.8101134" lon="-118.3941198">
  <ele>-0.113</ele>
  <time>2026-09-01T01:13:02Z</time>
  <course>10.57</course>
  <speed>0.717007670809734</speed>
  <fix>3d</fix>
</trkpt>
<trkpt lat="33.8101126" lon="-118.3941213">
  <ele>-0.1</ele>
  <time>2026-09-01T01:13:02Z</time>
  <course>47.39</course>
  <speed>0.73</speed>
  <fix>3d</fix>
</trkpt>
<trkpt lat="33.8101138" lon="-118.3941192">
  <ele>-0.113</ele>
  <time>2026-09-01T01:13:02Z</time>
  <course>10.59</course>
  <speed>0.717007670809734</speed>
  <fix>3d</fix>
</trkpt>
<trkpt lat="33.8101135" lon="-118.3941202">
  <ele>-0.1</ele>
  <time>2026-09-01T01:13:02Z</time>
  <course>47.42</course>
  <speed>0.73</speed>
  <fix>3d</fix>
</trkpt>
<trkpt lat="33.8101143" lon="-118.3941186">
  <ele>-0.112</ele>
  <time>2026-09-01T01:13:02Z</time>
  <course>10.6</course>
  <speed>0.717007670809734</speed>
  <fix>3d</fix>
</trkpt>
<trkpt lat="33.8101135" lon="-118.3941202">
  <ele>-0.1</ele>
  <time>2026-09-01T01:13:02Z</time>
  <course>47.42</course>
  <speed>0.73</speed>
  <fix>3d</fix>
</trkpt>
<trkpt lat="33.8101147" lon="-118.394118">
  <ele>-0.11</ele>
  <time>2026-09-01T01:13:02Z</time>
  <course>10.61</course>
  <speed>0.717007670809734</speed>
  <fix>3d</fix>
</trkpt>
<trkpt lat="33.8101144" lon="-118.394119">
  <ele>-0.1</ele>
  <time>2026-09-01T01:13:02Z</time>
  <course>47.44</course>
  <speed>0.73</speed>
  <fix>3d</fix>
</trkpt>
<trkpt lat="33.8101152" lon="-118.3941174">
  <ele>-0.11</ele>
  <time>2026-09-01T01:13:02Z</time>
  <course>10.63</course>
  <speed>0.717007670809734</speed>
  <fix>3d</fix>
</trkpt>
<trkpt lat="33.8101144" lon="-118.394119">
  <ele>-0.1</ele>
  <time>2026-09-01T01:13:02Z</time>
  <course>47.44</course>
  <speed>0.73</speed>
  <fix>3d</fix>
</trkpt>
<trkpt lat="33.8101156" lon="-118.3941168">
  <ele>-0.109</ele>
  <time>2026-09-01T01:13:02Z</time>
  <course>10.64</course>
  <speed>0.717007670809734</speed>
  <fix>3d</fix>
</trkpt>
<trkpt lat="33.8101153" lon="-118.3941178">
  <ele>-0.1</ele>
  <time>2026-09-01T01:13:02Z</time>
  <course>47.47</course>
  <speed>0.73</speed>
  <fix>3d</fix>
</trkpt>
<trkpt lat="33.8101161" lon="-118.3941163">
  <ele>-0.109</ele>
  <time>2026-09-01T01:13:02Z</time>
  <course>10.65</course>
  <speed>0.717007670809734</speed>
  <fix>3d</fix>
</trkpt>
<trkpt lat="33.8101153" lon="-118.3941178">
  <ele>-0.1</ele>
  <time>2026-09-01T01:13:02Z</time>
  <course>47.47</course>
  <speed>0.73</speed>
  <fix>3d</fix>
</trkpt>
<trkpt lat="33.8101165" lon="-118.3941157">
  <ele>-0.111</ele>
  <time>2026-09-01T01:13:02Z</time>
  <course>10.67</course>
  <speed>0.717007670809734</speed>
  <fix>3d</fix>
</trkpt>
<trkpt lat="33.8101161" lon="-118.3941166">
  <ele>-0.1</ele>
  <time>2026-09-01T01:13:02Z</time>
  <course>47.5</course>
  <speed>0.73</speed>
  <fix>3d</fix>
</trkpt>
<trkpt lat="33.810117" lon="-118.3941151">
  <ele>-0.111</ele>
  <time>2026-09-01T01:13:02Z</time>
  <course>10.68</course>
  <speed>0.717007670809734</speed>
  <fix>3d</fix>
</trkpt>
<trkpt lat="33.8101161" lon="-118.3941166">
  <ele>-0.1</ele>
  <time>2026-09-01T01:13:02Z</time>
  <course>47.5</course>
  <speed>0.73</speed>
  <fix>3d</fix>
</trkpt>
<trkpt lat="33.8101174" lon="-118.3941145">
  <ele>-0.11</ele>
  <time>2026-09-01T01:13:02Z</time>
  <course>10.69</course>
  <speed>0.717007670809734</speed>
  <fix>3d</fix>
</trkpt>
<trkpt lat="33.810117" lon="-118.3941155">
  <ele>-0.1</ele>
  <time>2026-09-01T01:13:02Z</time>
  <course>47.53</course>
  <speed>0.73</speed>
  <fix>3d</fix>
</trkpt>
<trkpt lat="33.8101179" lon="-118.3941139">
  <ele>-0.11</ele>
  <time>2026-09-01T01:13:02Z</time>
  <course>10.71</course>
  <speed>0.717007670809734</speed>
  <fix>3d</fix>
</trkpt>
<trkpt lat="33.810117" lon="-118.3941155">
  <ele>-0.1</ele>
  <time>2026-09-01T01:13:02Z</time>
  <course>47.53</course>
  <speed>0.73</speed>
  <fix>3d</fix>
</trkpt>
<trkpt lat="33.8101183" lon="-118.3941133">
  <ele>-0.11</ele>
  <time>2026-09-01T01:13:02Z</time>
  <course>10.72</course>
  <speed>0.717007670809734</speed>
  <fix>3d</fix>
</trkpt>
<trkpt lat="33.8101179" lon="-118.3941142">
  <ele>-0.1</ele>
  <time>2026-09-01T01:13:02Z</time>
  <course>47.55</course>
  <speed>0.73</speed>
  <fix>3d</fix>
</trkpt>
<trkpt lat="33.8101187" lon="-118.3941127">
  <ele>-0.11</ele>
  <time>2026-09-01T01:13:02Z</time>
  <course>10.73</course>
  <speed>0.717007670809734</speed>
  <fix>3d</fix>
</trkpt>
<trkpt lat="33.8101179" lon="-118.3941142">
  <ele>-0.1</ele>
  <time>2026-09-01T01:13:02Z</time>
  <course>47.55</course>
  <speed>0.73</speed>
  <fix>3d</fix>
</trkpt>
<trkpt lat="33.8101192" lon="-118.3941121">
  <ele>-0.109</ele>
  <time>2026-09-01T01:13:02Z</time>
  <course>10.75</course>
  <speed>0.717007670809734</speed>
  <fix>3d</fix>
</trkpt>
<trkpt lat="33.8101188" lon="-118.3941131">
  <ele>-0.1</ele>
  <time>2026-09-01T01:13:02Z</time>
  <course>47.58</course>
  <speed>0.73</speed>
  <fix>3d</fix>
</trkpt>
<trkpt lat="33.8101196" lon="-118.3941115">
  <ele>-0.108</ele>
  <time>2026-09-01T01:13:02Z</time>
  <course>10.76</course>
  <speed>0.717007670809734</speed>
  <fix>3d</fix>
</trkpt>
<trkpt lat="33.8101188" lon="-118.3941131">
  <ele>-0.1</ele>
  <time>2026-09-01T01:13:02Z</time>
  <course>47.58</course>
  <speed>0.73</speed>
  <fix>3d</fix>
</trkpt>
<trkpt lat="33.8101201" lon="-118.394111">
  <ele>-0.108</ele>
  <time>2026-09-01T01:13:02Z</time>
  <course>10.77</course>
  <speed>0.717007670809734</speed>
  <fix>3d</fix>
</trkpt>
<trkpt lat="33.8101197" lon="-118.394112">
  <ele>-0.1</ele>
  <time>2026-09-01T01:13:02Z</time>
  <course>47.6</course>
  <speed>0.73</speed>
  <fix>3d</fix>
</trkpt>
<trkpt lat="33.8101205" lon="-118.3941104">
  <ele>-0.108</ele>
  <time>2026-09-01T01:13:02Z</time>
  <course>10.78</course>
  <speed>0.717007670809734</speed>
  <fix>3d</fix>
</trkpt>
<trkpt lat="33.8101197" lon="-118.394112">
  <ele>-0.1</ele>
  <time>2026-09-01T01:13:02Z</time>
  <course>47.6</course>
  <speed>0.73</speed>
  <fix>3d</fix>
</trkpt>
<trkpt lat="33.810121" lon="-118.3941098">
  <ele>-0.109</ele>
  <time>2026-09-01T01:13:02Z</time>
  <course>10.8</course>
  <speed>0.717007670809734</speed>
  <fix>3d</fix>
</trkpt>
<trkpt lat="33.8101206" lon="-118.3941108">
  <ele>-0.1</ele>
  <time>2026-09-01T01:13:02Z</time>
  <course>47.63</course>
  <speed>0.73</speed>
  <fix>3d</fix>
</trkpt>
<trkpt lat="33.8101214" lon="-118.3941092">
  <ele>-0.109</ele>
  <time>2026-09-01T01:13:02Z</time>
  <course>10.81</course>
  <speed>0.717007670809734</speed>
  <fix>3d</fix>
</trkpt>
<trkpt lat="33.8101206" lon="-118.3941108">
  <ele>-0.1</ele>
  <time>2026-09-01T01:13:02Z</time>
  <course>47.63</course>
  <speed>0.73</speed>
  <fix>3d</fix>
</trkpt>
<trkpt lat="33.8101219" lon="-118.3941086">
  <ele>-0.108</ele>
  <time>2026-09-01T01:13:02Z</time>
  <course>10.82</course>
  <speed>0.717007670809734</speed>
  <fix>3d</fix>
</trkpt>
<trkpt lat="33.8101215" lon="-118.3941096">
  <ele>-0.1</ele>
  <time>2026-09-01T01:13:02Z</time>
  <course>47.65</course>
  <speed>0.73</speed>
  <fix>3d</fix>
</trkpt>
<trkpt lat="33.8101223" lon="-118.394108">
  <ele>-0.108</ele>
  <time>2026-09-01T01:13:02Z</time>
  <course>10.83</course>
  <speed>0.717007670809734</speed>
  <fix>3d</fix>
</trkpt>
<trkpt lat="33.8101215" lon="-118.3941096">
  <ele>-0.1</ele>
  <time>2026-09-01T01:13:02Z</time>
  <course>47.65</course>
  <speed>0.73</speed>
  <fix>3d</fix>
</trkpt>
<trkpt lat="33.8101228" lon="-118.3941074">
  <ele>-0.107</ele>
  <time>2026-09-01T01:13:02Z</time>
  <course>10.85</course>
  <speed>0.717007670809734</speed>
  <fix>3d</fix>
</trkpt>
<trkpt lat="33.8101224" lon="-118.3941084">
  <ele>-0.1</ele>
  <time>2026-09-01T01:13:02Z</time>
  <course>47.68</course>
  <speed>0.73</speed>
  <fix>3d</fix>
</trkpt>
<trkpt lat="33.8101232" lon="-118.3941068">
  <ele>-0.106</ele>
  <time>2026-09-01T01:13:02Z</time>
  <course>10.86</course>
  <speed>0.717007670809734</speed>
  <fix>3d</fix>
</trkpt>
<trkpt lat="33.8101224" lon="-118.3941084">
  <ele>-0.1</ele>
  <time>2026-09-01T01:13:02Z</time>
  <course>47.68</course>
  <speed>0.73</speed>
  <fix>3d</fix>
</trkpt>
<trkpt lat="33.8101236" lon="-118.3941063">
  <ele>-0.106</ele>
  <time>2026-09-01T01:13:02Z</time>
  <course>10.87</course>
  <speed>0.717007670809734</speed>
  <fix>3d</fix>
</trkpt>
<trkpt lat="33.8101233" lon="-118.3941073">
  <ele>-0.1</ele>
  <time>2026-09-01T01:13:02Z</time>
  <course>47.7</course>
  <speed>0.73</speed>
  <fix>3d</fix>
</trkpt>
<trkpt lat="33.8101241" lon="-118.3941057">
  <ele>-0.106</ele>
  <time>2026-09-01T01:13:02Z</time>
  <course>10.88</course>
  <speed>0.717007670809734</speed>
  <fix>3d</fix>
</trkpt>
<trkpt lat="33.8101233" lon="-118.3941073">
  <ele>-0.1</ele>
  <time>2026-09-01T01:13:02Z</time>
  <course>47.7</course>
  <speed>0.73</speed>
  <fix>3d</fix>
</trkpt>
<trkpt lat="33.8101245" lon="-118.3941051">
  <ele>-0.106</ele>
  <time>2026-09-01T01:13:02Z</time>
  <course>10.9</course>
  <speed>0.717007670809734</speed>
  <fix>3d</fix>
</trkpt>
<trkpt lat="33.8101242" lon="-118.394106">
  <ele>-0.1</ele>
  <time>2026-09-01T01:13:02Z</time>
  <course>47.73</course>
  <speed>0.73</speed>
  <fix>3d</fix>
</trkpt>
<trkpt lat="33.810125" lon="-118.3941045">
  <ele>-0.108</ele>
  <time>2026-09-01T01:13:02Z</time>
  <course>10.91</course>
  <speed>0.717007670809734</speed>
  <fix>3d</fix>
</trkpt>
<trkpt lat="33.8101242" lon="-118.394106">
  <ele>-0.1</ele>
  <time>2026-09-01T01:13:02Z</time>
  <course>47.73</course>
  <speed>0.73</speed>
  <fix>3d</fix>
</trkpt>
<trkpt lat="33.8101254" lon="-118.3941039">
  <ele>-0.109</ele>
  <time>2026-09-01T01:13:02Z</time>
  <course>10.92</course>
  <speed>0.717007670809734</speed>
  <fix>3d</fix>
</trkpt>
<trkpt lat="33.810125" lon="-118.3941049">
  <ele>-0.1</ele>
  <time>2026-09-01T01:13:02Z</time>
  <course>47.75</course>
  <speed>0.73</speed>
  <fix>3d</fix>
</trkpt>
<trkpt lat="33.8101259" lon="-118.3941033">
  <ele>-0.111</ele>
  <time>2026-09-01T01:13:02Z</time>
  <course>10.93</course>
  <speed>0.717007670809734</speed>
  <fix>3d</fix>
</trkpt>
<trkpt lat="33.810125" lon="-118.3941049">
  <ele>-0.1</ele>
  <time>2026-09-01T01:13:02Z</time>
  <course>47.75</course>
  <speed>0.73</speed>
  <fix>3d</fix>
</trkpt>
<trkpt lat="33.8101263" lon="-118.3941027">
  <ele>-0.113</ele>
  <time>2026-09-01T01:13:02Z</time>
  <course>10.94</course>
  <speed>0.7247068372797375</speed>
  <fix>3d</fix>
</trkpt>
<trkpt lat="33.8101259" lon="-118.3941036">
  <ele>-0.1</ele>
  <time>2026-09-01T01:13:02Z</time>
  <course>47.78</course>
  <speed>0.73</speed>
  <fix>3d</fix>
</trkpt>
<trkpt lat="33.8101268" lon="-118.3941021">
  <ele>-0.113</ele>
  <time>2026-09-01T01:13:02Z</time>
  <course>10.96</course>
  <speed>0.7247068372797375</speed>
  <fix>3d</fix>
</trkpt>
<trkpt lat="33.8101259" lon="-118.3941036">
  <ele>-0.1</ele>
  <time>2026-09-01T01:13:02Z</time>
  <course>47.78</course>
  <speed>0.73</speed>
  <fix>3d</fix>
</trkpt>
<trkpt lat="33.8101272" lon="-118.3941015">
  <ele>-0.114</ele>
  <time>2026-09-01T01:13:02Z</time>
  <course>10.97</course>
  <speed>0.7247068372797375</speed>
  <fix>3d</fix>
</trkpt>
<trkpt lat="33.8101268" lon="-118.3941025">
  <ele>-0.1</ele>
  <time>2026-09-01T01:13:02Z</time>
  <course>47.8</course>
  <speed>0.73</speed>
  <fix>3d</fix>
</trkpt>
<trkpt lat="33.8101276" lon="-118.3941009">
  <ele>-0.114</ele>
  <time>2026-09-01T01:13:02Z</time>
  <course>10.98</course>
  <speed>0.7247068372797375</speed>
  <fix>3d</fix>
</trkpt>
<trkpt lat="33.8101268" lon="-118.3941025">
  <ele>-0.1</ele>
  <time>2026-09-01T01:13:02Z</time>
  <course>47.8</course>
  <speed>0.73</speed>
  <fix>3d</fix>
</trkpt>
<trkpt lat="33.8101281" lon="-118.3941003">
  <ele>-0.114</ele>
  <time>2026-09-01T01:13:02Z</time>
  <course>10.99</course>
  <speed>0.7247068372797375</speed>
  <fix>3d</fix>
</trkpt>
<trkpt lat="33.8101277" lon="-118.3941013">
  <ele>-0.1</ele>
  <time>2026-09-01T01:13:02Z</time>
  <course>47.82</course>
  <speed>0.73</speed>
  <fix>3d</fix>
</trkpt>
<trkpt lat="33.8101285" lon="-118.3940997">
  <ele>-0.114</ele>
  <time>2026-09-01T01:13:02Z</time>
  <course>11.0</course>
  <speed>0.7247068372797375</speed>
  <fix>3d</fix>
</trkpt>
<trkpt lat="33.8101277" lon="-118.3941013">
  <ele>-0.1</ele>
  <time>2026-09-01T01:13:02Z</time>
  <course>47.82</course>
  <speed>0.73</speed>
  <fix>3d</fix>
</trkpt>
<trkpt lat="33.810129" lon="-118.3940991">
  <ele>-0.115</ele>
  <time>2026-09-01T01:13:02Z</time>
  <course>11.01</course>
  <speed>0.7247068372797375</speed>
  <fix>3d</fix>
</trkpt>
<trkpt lat="33.8101286" lon="-118.3941002">
  <ele>-0.1</ele>
  <time>2026-09-01T01:13:02Z</time>
  <course>47.85</course>
  <speed>0.73</speed>
  <fix>3d</fix>
</trkpt>
<trkpt lat="33.8101294" lon="-118.3940986">
  <ele>-0.116</ele>
  <time>2026-09-01T01:13:02Z</time>
  <course>11.03</course>
  <speed>0.7247068372797375</speed>
  <fix>3d</fix>
</trkpt>
<trkpt lat="33.8101286" lon="-118.3941002">
  <ele>-0.1</ele>
  <time>2026-09-01T01:13:02Z</time>
  <course>47.85</course>
  <speed>0.73</speed>
  <fix>3d</fix>
</trkpt>
<trkpt lat="33.8101299" lon="-118.394098">
  <ele>-0.117</ele>
  <time>2026-09-01T01:13:02Z</time>
  <course>11.04</course>
  <speed>0.7247068372797375</speed>
  <fix>3d</fix>
</trkpt>
<trkpt lat="33.8101295" lon="-118.3940989">
  <ele>-0.11</ele>
  <time>2026-09-01T01:13:02Z</time>
  <course>47.87</course>
  <speed>0.73</speed>
  <fix>3d</fix>
</trkpt>
<trkpt lat="33.8101303" lon="-118.3940974">
  <ele>-0.118</ele>
  <time>2026-09-01T01:13:02Z</time>
  <course>11.05</course>
  <speed>0.7247068372797375</speed>
  <fix>3d</fix>
</trkpt>
<trkpt lat="33.8101295" lon="-118.3940989">
  <ele>-0.11</ele>
  <time>2026-09-01T01:13:02Z</time>
  <course>47.87</course>
  <speed>0.73</speed>
  <fix>3d</fix>
</trkpt>
<trkpt lat="33.8101308" lon="-118.3940968">
  <ele>-0.117</ele>
  <time>2026-09-01T01:13:02Z</time>
  <course>11.06</course>
  <speed>0.7247068372797375</speed>
  <fix>3d</fix>
</trkpt>
<trkpt lat="33.8101304" lon="-118.3940978">
  <ele>-0.1</ele>
  <time>2026-09-01T01:13:02Z</time>
  <course>47.89</course>
  <speed>0.73</speed>
  <fix>3d</fix>
</trkpt>
<trkpt lat="33.8101312" lon="-118.3940962">
  <ele>-0.115</ele>
  <time>2026-09-01T01:13:02Z</time>
  <course>11.07</course>
  <speed>0.7247068372797375</speed>
  <fix>3d</fix>
</trkpt>
<trkpt lat="33.8101304" lon="-118.3940978">
  <ele>-0.1</ele>
  <time>2026-09-01T01:13:02Z</time>
  <course>47.89</course>
  <speed>0.73</speed>
  <fix>3d</fix>
</trkpt>
<trkpt lat="33.8101316" lon="-118.3940956">
  <ele>-0.113</ele>
  <time>2026-09-01T01:13:02Z</time>
  <course>11.08</course>
  <speed>0.7247068372797375</speed>
  <fix>3d</fix>
</trkpt>
<trkpt lat="33.8101313" lon="-118.3940967">
  <ele>-0.1</ele>
  <time>2026-09-01T01:13:02Z</time>
  <course>47.91</course>
  <speed>0.73</speed>
  <fix>3d</fix>
</trkpt>
<trkpt lat="33.8101321" lon="-118.394095">
  <ele>-0.111</ele>
  <time>2026-09-01T01:13:02Z</time>
  <course>11.09</course>
  <speed>0.7247068372797375</speed>
  <fix>3d</fix>
</trkpt>
<trkpt lat="33.8101313" lon="-118.3940967">
  <ele>-0.1</ele>
  <time>2026-09-01T01:13:02Z</time>
  <course>47.91</course>
  <speed>0.73</speed>
  <fix>3d</fix>
</trkpt>
<trkpt lat="33.8101325" lon="-118.3940944">
  <ele>-0.11</ele>
  <time>2026-09-01T01:13:02Z</time>
  <course>11.1</course>
  <speed>0.7247068372797375</speed>
  <fix>3d</fix>
</trkpt>
<trkpt lat="33.8101322" lon="-118.3940955">
  <ele>-0.1</ele>
  <time>2026-09-01T01:13:02Z</time>
  <course>47.93</course>
  <speed>0.73</speed>
  <fix>3d</fix>
</trkpt>
<trkpt lat="33.810133" lon="-118.3940938">
  <ele>-0.109</ele>
  <time>2026-09-01T01:13:02Z</time>
  <course>11.11</course>
  <speed>0.7247068372797375</speed>
  <fix>3d</fix>
</trkpt>
<trkpt lat="33.8101322" lon="-118.3940955">
  <ele>-0.1</ele>
  <time>2026-09-01T01:13:02Z</time>
  <course>47.93</course>
  <speed>0.73</speed>
  <fix>3d</fix>
</trkpt>
<trkpt lat="33.8101334" lon="-118.3940932">
  <ele>-0.109</ele>
  <time>2026-09-01T01:13:02Z</time>
  <course>11.13</course>
  <speed>0.7247068372797375</speed>
  <fix>3d</fix>
</trkpt>
<trkpt lat="33.810133" lon="-118.3940943">
  <ele>-0.1</ele>
  <time>2026-09-01T01:13:02Z</time>
  <course>47.96</course>
  <speed>0.73</speed>
  <fix>3d</fix>
</trkpt>
<trkpt lat="33.8101339" lon="-118.3940927">
  <ele>-0.11</ele>
  <time>2026-09-01T01:13:02Z</time>
  <course>11.14</course>
  <speed>0.7247068372797375</speed>
  <fix>3d</fix>
</trkpt>
<trkpt lat="33.810133" lon="-118.3940943">
  <ele>-0.1</ele>
  <time>2026-09-01T01:13:02Z</time>
  <course>47.96</course>
  <speed>0.73</speed>
  <fix>3d</fix>
</trkpt>
<trkpt lat="33.8101343" lon="-118.3940921">
  <ele>-0.11</ele>
  <time>2026-09-01T01:13:02Z</time>
  <course>11.15</course>
  <speed>0.7247068372797375</speed>
  <fix>3d</fix>
</trkpt>
<trkpt lat="33.8101339" lon="-118.3940931">
  <ele>-0.11</ele>
  <time>2026-09-01T01:13:02Z</time>
  <course>47.98</course>
  <speed>0.73</speed>
  <fix>3d</fix>
</trkpt>
<trkpt lat="33.8101348" lon="-118.3940915">
  <ele>-0.109</ele>
  <time>2026-09-01T01:13:02Z</time>
  <course>11.16</course>
  <speed>0.7247068372797375</speed>
  <fix>3d</fix>
</trkpt>
<trkpt lat="33.8101339" lon="-118.3940931">
  <ele>-0.11</ele>
  <time>2026-09-01T01:13:02Z</time>
  <course>47.98</course>
  <speed>0.73</speed>
  <fix>3d</fix>
</trkpt>
<trkpt lat="33.8101352" lon="-118.3940909">
  <ele>-0.108</ele>
  <time>2026-09-01T01:13:02Z</time>
  <course>11.17</course>
  <speed>0.7247068372797375</speed>
  <fix>3d</fix>
</trkpt>
<trkpt lat="33.8101348" lon="-118.3940919">
  <ele>-0.1</ele>
  <time>2026-09-01T01:13:02Z</time>
  <course>48.0</course>
  <speed>0.73</speed>
  <fix>3d</fix>
</trkpt>
<trkpt lat="33.8101356" lon="-118.3940903">
  <ele>-0.107</ele>
  <time>2026-09-01T01:13:02Z</time>
  <course>11.18</course>
  <speed>0.7247068372797375</speed>
  <fix>3d</fix>
</trkpt>
<trkpt lat="33.8101348" lon="-118.3940919">
  <ele>-0.1</ele>
  <time>2026-09-01T01:13:02Z</time>
  <course>48.0</course>
  <speed>0.73</speed>
  <fix>3d</fix>
</trkpt>
<trkpt lat="33.8101361" lon="-118.3940897">
  <ele>-0.108</ele>
  <time>2026-09-01T01:13:02Z</time>
  <course>11.19</course>
  <speed>0.7247068372797375</speed>
  <fix>3d</fix>
</trkpt>
<trkpt lat="33.8101357" lon="-118.3940907">
  <ele>-0.1</ele>
  <time>2026-09-01T01:13:02Z</time>
  <course>48.02</course>
  <speed>0.73</speed>
  <fix>3d</fix>
</trkpt>
<trkpt lat="33.8101365" lon="-118.3940891">
  <ele>-0.109</ele>
  <time>2026-09-01T01:13:02Z</time>
  <course>11.2</course>
  <speed>0.7247068372797375</speed>
  <fix>3d</fix>
</trkpt>
<trkpt lat="33.8101357" lon="-118.3940907">
  <ele>-0.1</ele>
  <time>2026-09-01T01:13:02Z</time>
  <course>48.02</course>
  <speed>0.73</speed>
  <fix>3d</fix>
</trkpt>
<trkpt lat="33.810137" lon="-118.3940885">
  <ele>-0.11</ele>
  <time>2026-09-01T01:13:02Z</time>
  <course>11.21</course>
  <speed>0.7247068372797375</speed>
  <fix>3d</fix>
</trkpt>
<trkpt lat="33.8101366" lon="-118.3940896">
  <ele>-0.1</ele>
  <time>2026-09-01T01:13:02Z</time>
  <course>48.04</course>
  <speed>0.73</speed>
  <fix>3d</fix>
</trkpt>
<trkpt lat="33.8101374" lon="-118.3940879">
  <ele>-0.112</ele>
  <time>2026-09-01T01:13:02Z</time>
  <course>11.22</course>
  <speed>0.7247068372797375</speed>
  <fix>3d</fix>
</trkpt>
<trkpt lat="33.8101366" lon="-118.3940896">
  <ele>-0.1</ele>
  <time>2026-09-01T01:13:02Z</time>
  <course>48.04</course>
  <speed>0.73</speed>
  <fix>3d</fix>
</trkpt>
<trkpt lat="33.8101379" lon="-118.3940873">
  <ele>-0.115</ele>
  <time>2026-09-01T01:13:02Z</time>
  <course>11.23</course>
  <speed>0.7247068372797375</speed>
  <fix>3d</fix>
</trkpt>
<trkpt lat="33.8101374" lon="-118.3940883">
  <ele>-0.1</ele>
  <time>2026-09-01T01:13:02Z</time>
  <course>48.06</course>
  <speed>0.73</speed>
  <fix>3d</fix>
</trkpt>
<trkpt lat="33.8101383" lon="-118.3940867">
  <ele>-0.117</ele>
  <time>2026-09-01T01:13:02Z</time>
  <course>11.24</course>
  <speed>0.7247068372797375</speed>
  <fix>3d</fix>
</trkpt>
<trkpt lat="33.8101374" lon="-118.3940883">
  <ele>-0.1</ele>
  <time>2026-09-01T01:13:02Z</time>
  <course>48.06</course>
  <speed>0.73</speed>
  <fix>3d</fix>
</trkpt>
<trkpt lat="33.8101387" lon="-118.3940862">
  <ele>-0.119</ele>
  <time>2026-09-01T01:13:02Z</time>
  <course>11.25</course>
  <speed>0.7247068372797375</speed>
  <fix>3d</fix>
</trkpt>
<trkpt lat="33.8101383" lon="-118.3940872">
  <ele>-0.11</ele>
  <time>2026-09-01T01:13:02Z</time>
  <course>48.08</course>
  <speed>0.73</speed>
  <fix>3d</fix>
</trkpt>
<trkpt lat="33.8101392" lon="-118.3940856">
  <ele>-0.119</ele>
  <time>2026-09-01T01:13:02Z</time>
  <course>11.26</course>
  <speed>0.7247068372797375</speed>
  <fix>3d</fix>
</trkpt>
<trkpt lat="33.8101383" lon="-118.3940872">
  <ele>-0.11</ele>
  <time>2026-09-01T01:13:02Z</time>
  <course>48.08</course>
  <speed>0.73</speed>
  <fix>3d</fix>
</trkpt>
<trkpt lat="33.8101396" lon="-118.394085">
  <ele>-0.118</ele>
  <time>2026-09-01T01:13:02Z</time>
  <course>11.27</course>
  <speed>0.7247068372797375</speed>
  <fix>3d</fix>
</trkpt>
<trkpt lat="33.8101392" lon="-118.3940859">
  <ele>-0.1</ele>
  <time>2026-09-01T01:13:02Z</time>
  <course>48.1</course>
  <speed>0.73</speed>
  <fix>3d</fix>
</trkpt>
<trkpt lat="33.81014" lon="-118.3940844">
  <ele>-0.116</ele>
  <time>2026-09-01T01:13:02Z</time>
  <course>11.29</course>
  <speed>0.7247068372797375</speed>
  <fix>3d</fix>
</trkpt>
<trkpt lat="33.8101392" lon="-118.3940859">
  <ele>-0.1</ele>
  <time>2026-09-01T01:13:02Z</time>
  <course>48.1</course>
  <speed>0.73</speed>
  <fix>3d</fix>
</trkpt>
<trkpt lat="33.8101405" lon="-118.3940838">
  <ele>-0.114</ele>
  <time>2026-09-01T01:13:02Z</time>
  <course>11.3</course>
  <speed>0.7247068372797375</speed>
  <fix>3d</fix>
</trkpt>
<trkpt lat="33.8101401" lon="-118.3940848">
  <ele>-0.1</ele>
  <time>2026-09-01T01:13:02Z</time>
  <course>48.12</course>
  <speed>0.73</speed>
  <fix>3d</fix>
</trkpt>
<trkpt lat="33.8101409" lon="-118.3940832">
  <ele>-0.111</ele>
  <time>2026-09-01T01:13:02Z</time>
  <course>11.31</course>
  <speed>0.7247068372797375</speed>
  <fix>3d</fix>
</trkpt>
<trkpt lat="33.8101401" lon="-118.3940848">
  <ele>-0.1</ele>
  <time>2026-09-01T01:13:02Z</time>
  <course>48.12</course>
  <speed>0.73</speed>
  <fix>3d</fix>
</trkpt>
<trkpt lat="33.8101414" lon="-118.3940826">
  <ele>-0.109</ele>
  <time>2026-09-01T01:13:02Z</time>
  <course>11.32</course>
  <speed>0.7247068372797375</speed>
  <fix>3d</fix>
</trkpt>
<trkpt lat="33.810141" lon="-118.3940836">
  <ele>-0.1</ele>
  <time>2026-09-01T01:13:02Z</time>
  <course>48.14</course>
  <speed>0.73</speed>
  <fix>3d</fix>
</trkpt>
<trkpt lat="33.8101418" lon="-118.394082">
  <ele>-0.108</ele>
  <time>2026-09-01T01:13:02Z</time>
  <course>11.33</course>
  <speed>0.7247068372797375</speed>
  <fix>3d</fix>
</trkpt>
<trkpt lat="33.810141" lon="-118.3940836">
  <ele>-0.1</ele>
  <time>2026-09-01T01:13:02Z</time>
  <course>48.14</course>
  <speed>0.73</speed>
  <fix>3d</fix>
</trkpt>
<trkpt lat="33.8101423" lon="-118.3940814">
  <ele>-0.107</ele>
  <time>2026-09-01T01:13:02Z</time>
  <course>11.34</course>
  <speed>0.7247068372797375</speed>
  <fix>3d</fix>
</trkpt>
<trkpt lat="33.8101419" lon="-118.3940825">
  <ele>-0.1</ele>
  <time>2026-09-01T01:13:02Z</time>
  <course>48.16</course>
  <speed>0.73</speed>
  <fix>3d</fix>
</trkpt>
<trkpt lat="33.8101427" lon="-118.3940808">
  <ele>-0.107</ele>
  <time>2026-09-01T01:13:02Z</time>
  <course>11.35</course>
  <speed>0.7247068372797375</speed>
  <fix>3d</fix>
</trkpt>
<trkpt lat="33.8101419" lon="-118.3940825">
  <ele>-0.1</ele>
  <time>2026-09-01T01:13:02Z</time>
  <course>48.16</course>
  <speed>0.73</speed>
  <fix>3d</fix>
</trkpt>
<trkpt lat="33.8101431" lon="-118.3940802">
  <ele>-0.107</ele>
  <time>2026-09-01T01:13:02Z</time>
  <course>11.36</course>
  <speed>0.7247068372797375</speed>
  <fix>3d</fix>
</trkpt>
<trkpt lat="33.8101427" lon="-118.3940812">
  <ele>-0.11</ele>
  <time>2026-09-01T01:13:02Z</time>
  <course>48.18</course>
  <speed>0.73</speed>
  <fix>3d</fix>
</trkpt>
<trkpt lat="33.8101436" lon="-118.3940796">
  <ele>-0.107</ele>
  <time>2026-09-01T01:13:02Z</time>
  <course>11.37</course>
  <speed>0.7247068372797375</speed>
  <fix>3d</fix>
</trkpt>
<trkpt lat="33.8101427" lon="-118.3940812">
  <ele>-0.11</ele>
  <time>2026-09-01T01:13:02Z</time>
  <course>48.18</course>
  <speed>0.73</speed>
  <fix>3d</fix>
</trkpt>
<trkpt lat="33.810144" lon="-118.394079">
  <ele>-0.107</ele>
  <time>2026-09-01T01:13:02Z</time>
  <course>11.38</course>
  <speed>0.7247068372797375</speed>
  <fix>3d</fix>
</trkpt>
<trkpt lat="33.8101436" lon="-118.3940801">
  <ele>-0.1</ele>
  <time>2026-09-01T01:13:02Z</time>
  <course>48.2</course>
  <speed>0.73</speed>
  <fix>3d</fix>
</trkpt>
<trkpt lat="33.8101445" lon="-118.3940784">
  <ele>-0.107</ele>
  <time>2026-09-01T01:13:02Z</time>
  <course>11.39</course>
  <speed>0.7247068372797375</speed>
  <fix>3d</fix>
</trkpt>
<trkpt lat="33.8101436" lon="-118.3940801">
  <ele>-0.1</ele>
  <time>2026-09-01T01:13:02Z</time>
  <course>48.2</course>
  <speed>0.73</speed>
  <fix>3d</fix>
</trkpt>
<trkpt lat="33.8101449" lon="-118.3940779">
  <ele>-0.107</ele>
  <time>2026-09-01T01:13:02Z</time>
  <course>11.4</course>
  <speed>0.7247068372797375</speed>
  <fix>3d</fix>
</trkpt>
<trkpt lat="33.8101445" lon="-118.3940788">
  <ele>-0.1</ele>
  <time>2026-09-01T01:13:02Z</time>
  <course>48.22</course>
  <speed>0.73</speed>
  <fix>3d</fix>
</trkpt>
<trkpt lat="33.8101453" lon="-118.3940772">
  <ele>-0.108</ele>
  <time>2026-09-01T01:13:02Z</time>
  <course>11.4</course>
  <speed>0.7247068372797375</speed>
  <fix>3d</fix>
</trkpt>
<trkpt lat="33.8101445" lon="-118.3940788">
  <ele>-0.1</ele>
  <time>2026-09-01T01:13:02Z</time>
  <course>48.22</course>
  <speed>0.73</speed>
  <fix>3d</fix>
</trkpt>
<trkpt lat="33.8101458" lon="-118.3940767">
  <ele>-0.108</ele>
  <time>2026-09-01T01:13:02Z</time>
  <course>11.41</course>
  <speed>0.7247068372797375</speed>
  <fix>3d</fix>
</trkpt>
<trkpt lat="33.8101454" lon="-118.3940777">
  <ele>-0.1</ele>
  <time>2026-09-01T01:13:02Z</time>
  <course>48.24</course>
  <speed>0.73</speed>
  <fix>3d</fix>
</trkpt>
<trkpt lat="33.8101462" lon="-118.3940761">
  <ele>-0.108</ele>
  <time>2026-09-01T01:13:02Z</time>
  <course>11.42</course>
  <speed>0.7247068372797375</speed>
  <fix>3d</fix>
</trkpt>
<trkpt lat="33.8101454" lon="-118.3940777">
  <ele>-0.1</ele>
  <time>2026-09-01T01:13:02Z</time>
  <course>48.24</course>
  <speed>0.73</speed>
  <fix>3d</fix>
</trkpt>
<trkpt lat="33.8101466" lon="-118.3940755">
  <ele>-0.109</ele>
  <time>2026-09-01T01:13:02Z</time>
  <course>11.43</course>
  <speed>0.7247068372797375</speed>
  <fix>3d</fix>
</trkpt>
<trkpt lat="33.8101463" lon="-118.3940765">
  <ele>-0.1</ele>
  <time>2026-09-01T01:13:02Z</time>
  <course>48.26</course>
  <speed>0.73</speed>
  <fix>3d</fix>
</trkpt>
<trkpt lat="33.8101471" lon="-118.3940749">
  <ele>-0.111</ele>
  <time>2026-09-01T01:13:02Z</time>
  <course>11.44</course>
  <speed>0.7247068372797375</speed>
  <fix>3d</fix>
</trkpt>
<trkpt lat="33.8101463" lon="-118.3940765">
  <ele>-0.1</ele>
  <time>2026-09-01T01:13:02Z</time>
  <course>48.26</course>
  <speed>0.73</speed>
  <fix>3d</fix>
</trkpt>
<trkpt lat="33.8101475" lon="-118.3940743">
  <ele>-0.113</ele>
  <time>2026-09-01T01:13:02Z</time>
  <course>11.45</course>
  <speed>0.7247068372797375</speed>
  <fix>3d</fix>
</trkpt>
<trkpt lat="33.8101471" lon="-118.3940754">
  <ele>-0.11</ele>
  <time>2026-09-01T01:13:02Z</time>
  <course>48.28</course>
  <speed>0.73</speed>
  <fix>3d</fix>
</trkpt>
<trkpt lat="33.810148" lon="-118.3940737">
  <ele>-0.113</ele>
  <time>2026-09-01T01:13:02Z</time>
  <course>11.46</course>
  <speed>0.7247068372797375</speed>
  <fix>3d</fix>
</trkpt>
<trkpt lat="33.8101471" lon="-118.3940754">
  <ele>-0.11</ele>
  <time>2026-09-01T01:13:02Z</time>
  <course>48.28</course>
  <speed>0.73</speed>
  <fix>3d</fix>
</trkpt>
<trkpt lat="33.8101484" lon="-118.3940731">
  <ele>-0.114</ele>
  <time>2026-09-01T01:13:02Z</time>
  <course>11.47</course>
  <speed>0.7247068372797375</speed>
  <fix>3d</fix>
</trkpt>
<trkpt lat="33.810148" lon="-118.3940742">
  <ele>-0.1</ele>
  <time>2026-09-01T01:13:02Z</time>
  <course>48.3</course>
  <speed>0.73</speed>
  <fix>3d</fix>
</trkpt>
<trkpt lat="33.8101488" lon="-118.3940725">
  <ele>-0.114</ele>
  <time>2026-09-01T01:13:02Z</time>
  <course>11.48</course>
  <speed>0.7247068372797375</speed>
  <fix>3d</fix>
</trkpt>
<trkpt lat="33.810148" lon="-118.3940742">
  <ele>-0.1</ele>
  <time>2026-09-01T01:13:02Z</time>
  <course>48.3</course>
  <speed>0.73</speed>
  <fix>3d</fix>
</trkpt>
<trkpt lat="33.8101493" lon="-118.394072">
  <ele>-0.114</ele>
  <time>2026-09-01T01:13:02Z</time>
  <course>11.49</course>
  <speed>0.7247068372797375</speed>
  <fix>3d</fix>
</trkpt>
<trkpt lat="33.8101489" lon="-118.394073">
  <ele>-0.1</ele>
  <time>2026-09-01T01:13:02Z</time>
  <course>48.32</course>
  <speed>0.73</speed>
  <fix>3d</fix>
</trkpt>
<trkpt lat="33.8101497" lon="-118.3940714">
  <ele>-0.114</ele>
  <time>2026-09-01T01:13:02Z</time>
  <course>11.5</course>
  <speed>0.7247068372797375</speed>
  <fix>3d</fix>
</trkpt>
<trkpt lat="33.8101489" lon="-118.394073">
  <ele>-0.1</ele>
  <time>2026-09-01T01:13:02Z</time>
  <course>48.32</course>
  <speed>0.73</speed>
  <fix>3d</fix>
</trkpt>
<trkpt lat="33.8101501" lon="-118.3940708">
  <ele>-0.114</ele>
  <time>2026-09-01T01:13:02Z</time>
  <course>11.51</course>
  <speed>0.7247068372797375</speed>
  <fix>3d</fix>
</trkpt>
<trkpt lat="33.8101498" lon="-118.3940718">
  <ele>-0.1</ele>
  <time>2026-09-01T01:13:02Z</time>
  <course>48.33</course>
  <speed>0.73</speed>
  <fix>3d</fix>
</trkpt>
<trkpt lat="33.8101506" lon="-118.3940702">
  <ele>-0.114</ele>
  <time>2026-09-01T01:13:02Z</time>
  <course>11.52</course>
  <speed>0.7247068372797375</speed>
  <fix>3d</fix>
</trkpt>
<trkpt lat="33.8101498" lon="-118.3940718">
  <ele>-0.1</ele>
  <time>2026-09-01T01:13:02Z</time>
  <course>48.33</course>
  <speed>0.73</speed>
  <fix>3d</fix>
</trkpt>
<trkpt lat="33.810151" lon="-118.3940696">
  <ele>-0.115</ele>
  <time>2026-09-01T01:13:02Z</time>
  <course>11.53</course>
  <speed>0.7184010022264724</speed>
  <fix>3d</fix>
</trkpt>
<trkpt lat="33.8101506" lon="-118.3940706">
  <ele>-0.1</ele>
  <time>2026-09-01T01:13:02Z</time>
  <course>48.35</course>
  <speed>0.73</speed>
  <fix>3d</fix>
</trkpt>
<trkpt lat="33.8101514" lon="-118.394069">
  <ele>-0.116</ele>
  <time>2026-09-01T01:13:02Z</time>
  <course>11.54</course>
  <speed>0.7184010022264724</speed>
  <fix>3d</fix>
</trkpt>
<trkpt lat="33.8101506" lon="-118.3940706">
  <ele>-0.1</ele>
  <time>2026-09-01T01:13:02Z</time>
  <course>48.35</course>
  <speed>0.73</speed>
  <fix>3d</fix>
</trkpt>
<trkpt lat="33.8101519" lon="-118.3940684">
  <ele>-0.116</ele>
  <time>2026-09-01T01:13:02Z</time>
  <course>11.55</course>
  <speed>0.7184010022264724</speed>
  <fix>3d</fix>
</trkpt>
<trkpt lat="33.8101515" lon="-118.3940694">
  <ele>-0.11</ele>
  <time>2026-09-01T01:13:02Z</time>
  <course>48.37</course>
  <speed>0.73</speed>
  <fix>3d</fix>
</trkpt>
<trkpt lat="33.8101523" lon="-118.3940678">
  <ele>-0.116</ele>
  <time>2026-09-01T01:13:02Z</time>
  <course>11.56</course>
  <speed>0.7184010022264724</speed>
  <fix>3d</fix>
</trkpt>
<trkpt lat="33.8101515" lon="-118.3940694">
  <ele>-0.11</ele>
  <time>2026-09-01T01:13:02Z</time>
  <course>48.37</course>
  <speed>0.73</speed>
  <fix>3d</fix>
</trkpt>
<trkpt lat="33.8101528" lon="-118.3940673">
  <ele>-0.116</ele>
  <time>2026-09-01T01:13:02Z</time>
  <course>11.57</course>
  <speed>0.7184010022264724</speed>
  <fix>3d</fix>
</trkpt>
<trkpt lat="33.8101524" lon="-118.3940682">
  <ele>-0.1</ele>
  <time>2026-09-01T01:13:02Z</time>
  <course>48.39</course>
  <speed>0.73</speed>
  <fix>3d</fix>
</trkpt>
<trkpt lat="33.8101532" lon="-118.3940667">
  <ele>-0.115</ele>
  <time>2026-09-01T01:13:02Z</time>
  <course>11.57</course>
  <speed>0.7184010022264724</speed>
  <fix>3d</fix>
</trkpt>
<trkpt lat="33.8101524" lon="-118.3940682">
  <ele>-0.1</ele>
  <time>2026-09-01T01:13:02Z</time>
  <course>48.39</course>
  <speed>0.73</speed>
  <fix>3d</fix>
</trkpt>
<trkpt lat="33.8101536" lon="-118.3940661">
  <ele>-0.115</ele>
  <time>2026-09-01T01:13:02Z</time>
  <course>11.58</course>
  <speed>0.7184010022264724</speed>
  <fix>3d</fix>
</trkpt>
<trkpt lat="33.8101533" lon="-118.394067">
  <ele>-0.1</ele>
  <time>2026-09-01T01:13:02Z</time>
  <course>48.41</course>
  <speed>0.73</speed>
  <fix>3d</fix>
</trkpt>
<trkpt lat="33.8101541" lon="-118.3940655">
  <ele>-0.115</ele>
  <time>2026-09-01T01:13:02Z</time>
  <course>11.59</course>
  <speed>0.7184010022264724</speed>
  <fix>3d</fix>
</trkpt>
<trkpt lat="33.8101533" lon="-118.394067">
  <ele>-0.1</ele>
  <time>2026-09-01T01:13:02Z</time>
  <course>48.41</course>
  <speed>0.73</speed>
  <fix>3d</fix>
</trkpt>
<trkpt lat="33.8101545" lon="-118.3940649">
  <ele>-0.115</ele>
  <time>2026-09-01T01:13:02Z</time>
  <course>11.6</course>
  <speed>0.7184010022264724</speed>
  <fix>3d</fix>
</trkpt>
<trkpt lat="33.8101542" lon="-118.3940658">
  <ele>-0.1</ele>
  <time>2026-09-01T01:13:02Z</time>
  <course>48.42</course>
  <speed>0.73</speed>
  <fix>3d</fix>
</trkpt>
<trkpt lat="33.8101549" lon="-118.3940643">
  <ele>-0.114</ele>
  <time>2026-09-01T01:13:02Z</time>
  <course>11.61</course>
  <speed>0.7184010022264724</speed>
  <fix>3d</fix>
</trkpt>
<trkpt lat="33.8101542" lon="-118.3940658">
  <ele>-0.1</ele>
  <time>2026-09-01T01:13:02Z</time>
  <course>48.42</course>
  <speed>0.73</speed>
  <fix>3d</fix>
</trkpt>
<trkpt lat="33.8101554" lon="-118.3940637">
  <ele>-0.114</ele>
  <time>2026-09-01T01:13:02Z</time>
  <course>11.62</course>
  <speed>0.7184010022264724</speed>
  <fix>3d</fix>
</trkpt>
<trkpt lat="33.810155" lon="-118.3940647">
  <ele>-0.1</ele>
  <time>2026-09-01T01:13:02Z</time>
  <course>48.44</course>
  <speed>0.73</speed>
  <fix>3d</fix>
</trkpt>
<trkpt lat="33.8101558" lon="-118.3940631">
  <ele>-0.113</ele>
  <time>2026-09-01T01:13:02Z</time>
  <course>11.63</course>
  <speed>0.7184010022264724</speed>
  <fix>3d</fix>
</trkpt>
<trkpt lat="33.810155" lon="-118.3940647">
  <ele>-0.1</ele>
  <time>2026-09-01T01:13:02Z</time>
  <course>48.44</course>
  <speed>0.73</speed>
  <fix>3d</fix>
</trkpt>
<trkpt lat="33.8101563" lon="-118.3940625">
  <ele>-0.113</ele>
  <time>2026-09-01T01:13:02Z</time>
  <course>11.64</course>
  <speed>0.7184010022264724</speed>
  <fix>3d</fix>
</trkpt>
<trkpt lat="33.8101559" lon="-118.3940634">
  <ele>-0.11</ele>
  <time>2026-09-01T01:13:02Z</time>
  <course>48.46</course>
  <speed>0.73</speed>
  <fix>3d</fix>
</trkpt>
<trkpt lat="33.8101567" lon="-118.3940619">
  <ele>-0.113</ele>
  <time>2026-09-01T01:13:02Z</time>
  <course>11.65</course>
  <speed>0.7184010022264724</speed>
  <fix>3d</fix>
</trkpt>
<trkpt lat="33.8101559" lon="-118.3940634">
  <ele>-0.11</ele>
  <time>2026-09-01T01:13:02Z</time>
  <course>48.46</course>
  <speed>0.73</speed>
  <fix>3d</fix>
</trkpt>
<trkpt lat="33.8101571" lon="-118.3940613">
  <ele>-0.112</ele>
  <time>2026-09-01T01:13:02Z</time>
  <course>11.65</course>
  <speed>0.7184010022264724</speed>
  <fix>3d</fix>
</trkpt>
<trkpt lat="33.8101568" lon="-118.3940623">
  <ele>-0.1</ele>
  <time>2026-09-01T01:13:02Z</time>
  <course>48.48</course>
  <speed>0.73</speed>
  <fix>3d</fix>
</trkpt>
<trkpt lat="33.8101576" lon="-118.3940607">
  <ele>-0.112</ele>
  <time>2026-09-01T01:13:02Z</time>
  <course>11.66</course>
  <speed>0.7184010022264724</speed>
  <fix>3d</fix>
</trkpt>
<trkpt lat="33.8101568" lon="-118.3940623">
  <ele>-0.1</ele>
  <time>2026-09-01T01:13:02Z</time>
  <course>48.48</course>
  <speed>0.73</speed>
  <fix>3d</fix>
</trkpt>
<trkpt lat="33.810158" lon="-118.3940601">
  <ele>-0.111</ele>
  <time>2026-09-01T01:13:02Z</time>
  <course>11.67</course>
  <speed>0.7184010022264724</speed>
  <fix>3d</fix>
</trkpt>
<trkpt lat="33.8101577" lon="-118.394061">
  <ele>-0.1</ele>
  <time>2026-09-01T01:13:02Z</time>
  <course>48.49</course>
  <speed>0.73</speed>
  <fix>3d</fix>
</trkpt>
<trkpt lat="33.8101584" lon="-118.3940595">
  <ele>-0.112</ele>
  <time>2026-09-01T01:13:02Z</time>
  <course>11.68</course>
  <speed>0.7184010022264724</speed>
  <fix>3d</fix>
</trkpt>
<trkpt lat="33.8101577" lon="-118.394061">
  <ele>-0.1</ele>
  <time>2026-09-01T01:13:02Z</time>
  <course>48.49</course>
  <speed>0.73</speed>
  <fix>3d</fix>
</trkpt>
<trkpt lat="33.8101589" lon="-118.3940589">
  <ele>-0.113</ele>
  <time>2026-09-01T01:13:02Z</time>
  <course>11.69</course>
  <speed>0.7184010022264724</speed>
  <fix>3d</fix>
</trkpt>
<trkpt lat="33.8101585" lon="-118.3940599">
  <ele>-0.1</ele>
  <time>2026-09-01T01:13:02Z</time>
  <course>48.51</course>
  <speed>0.73</speed>
  <fix>3d</fix>
</trkpt>
<trkpt lat="33.8101593" lon="-118.3940583">
  <ele>-0.113</ele>
  <time>2026-09-01T01:13:02Z</time>
  <course>11.7</course>
  <speed>0.7184010022264724</speed>
  <fix>3d</fix>
</trkpt>
<trkpt lat="33.8101585" lon="-118.3940599">
  <ele>-0.1</ele>
  <time>2026-09-01T01:13:02Z</time>
  <course>48.51</course>
  <speed>0.73</speed>
  <fix>3d</fix>
</trkpt>
<trkpt lat="33.8101598" lon="-118.3940577">
  <ele>-0.113</ele>
  <time>2026-09-01T01:13:02Z</time>
  <course>11.71</course>
  <speed>0.7184010022264724</speed>
  <fix>3d</fix>
</trkpt>
<trkpt lat="33.8101594" lon="-118.3940586">
  <ele>-0.1</ele>
  <time>2026-09-01T01:13:02Z</time>
  <course>48.53</course>
  <speed>0.73</speed>
  <fix>3d</fix>
</trkpt>
<trkpt lat="33.8101602" lon="-118.3940571">
  <ele>-0.112</ele>
  <time>2026-09-01T01:13:02Z</time>
  <course>11.71</course>
  <speed>0.7184010022264724</speed>
  <fix>3d</fix>
</trkpt>
<trkpt lat="33.8101594" lon="-118.3940586">
  <ele>-0.1</ele>
  <time>2026-09-01T01:13:02Z</time>
  <course>48.53</course>
  <speed>0.73</speed>
  <fix>3d</fix>
</trkpt>
<trkpt lat="33.8101606" lon="-118.3940565">
  <ele>-0.112</ele>
  <time>2026-09-01T01:13:02Z</time>
  <course>11.72</course>
  <speed>0.7184010022264724</speed>
  <fix>3d</fix>
</trkpt>
<trkpt lat="33.8101603" lon="-118.3940575">
  <ele>-0.11</ele>
  <time>2026-09-01T01:13:02Z</time>
  <course>48.54</course>
  <speed>0.73</speed>
  <fix>3d</fix>
</trkpt>
<trkpt lat="33.8101611" lon="-118.3940559">
  <ele>-0.113</ele>
  <time>2026-09-01T01:13:02Z</time>
  <course>11.73</course>
  <speed>0.7184010022264724</speed>
  <fix>3d</fix>
</trkpt>
<trkpt lat="33.8101603" lon="-118.3940575">
  <ele>-0.11</ele>
  <time>2026-09-01T01:13:02Z</time>
  <course>48.54</course>
  <speed>0.73</speed>
  <fix>3d</fix>
</trkpt>
<trkpt lat="33.8101615" lon="-118.3940553">
  <ele>-0.113</ele>
  <time>2026-09-01T01:13:02Z</time>
  <course>11.74</course>
  <speed>0.7184010022264724</speed>
  <fix>3d</fix>
</trkpt>
<trkpt lat="33.8101611" lon="-118.3940563">
  <ele>-0.1</ele>
  <time>2026-09-01T01:13:02Z</time>
  <course>48.56</course>
  <speed>0.73</speed>
  <fix>3d</fix>
</trkpt>
<trkpt lat="33.8101619" lon="-118.3940547">
  <ele>-0.113</ele>
  <time>2026-09-01T01:13:02Z</time>
  <course>11.75</course>
  <speed>0.7184010022264724</speed>
  <fix>3d</fix>
</trkpt>
<trkpt lat="33.8101611" lon="-118.3940563">
  <ele>-0.1</ele>
  <time>2026-09-01T01:13:02Z</time>
  <course>48.56</course>
  <speed>0.73</speed>
  <fix>3d</fix>
</trkpt>
<trkpt lat="33.8101624" lon="-118.3940541">
  <ele>-0.113</ele>
  <time>2026-09-01T01:13:02Z</time>
  <course>11.76</course>
  <speed>0.7184010022264724</speed>
  <fix>3d</fix>
</trkpt>
<trkpt lat="33.810162" lon="-118.3940551">
  <ele>-0.1</ele>
  <time>2026-09-01T01:13:02Z</time>
  <course>48.58</course>
  <speed>0.73</speed>
  <fix>3d</fix>
</trkpt>
<trkpt lat="33.8101628" lon="-118.3940535">
  <ele>-0.113</ele>
  <time>2026-09-01T01:13:02Z</time>
  <course>11.76</course>
  <speed>0.7184010022264724</speed>
  <fix>3d</fix>
</trkpt>
<trkpt lat="33.810162" lon="-118.3940551">
  <ele>-0.1</ele>
  <time>2026-09-01T01:13:02Z</time>
  <course>48.58</course>
  <speed>0.73</speed>
  <fix>3d</fix>
</trkpt>
<trkpt lat="33.8101632" lon="-118.3940529">
  <ele>-0.112</ele>
  <time>2026-09-01T01:13:02Z</time>
  <course>11.77</course>
  <speed>0.7184010022264724</speed>
  <fix>3d</fix>
</trkpt>
<trkpt lat="33.8101629" lon="-118.3940539">
  <ele>-0.1</ele>
  <time>2026-09-01T01:13:02Z</time>
  <course>48.59</course>
  <speed>0.73</speed>
  <fix>3d</fix>
</trkpt>
<trkpt lat="33.8101637" lon="-118.3940523">
  <ele>-0.111</ele>
  <time>2026-09-01T01:13:02Z</time>
  <course>11.78</course>
  <speed>0.7184010022264724</speed>
  <fix>3d</fix>
</trkpt>
<trkpt lat="33.8101629" lon="-118.3940539">
  <ele>-0.1</ele>
  <time>2026-09-01T01:13:02Z</time>
  <course>48.59</course>
  <speed>0.73</speed>
  <fix>3d</fix>
</trkpt>
<trkpt lat="33.8101641" lon="-118.3940517">
  <ele>-0.112</ele>
  <time>2026-09-01T01:13:02Z</time>
  <course>11.79</course>
  <speed>0.7184010022264724</speed>
  <fix>3d</fix>
</trkpt>
<trkpt lat="33.8101638" lon="-118.3940528">
  <ele>-0.1</ele>
  <time>2026-09-01T01:13:02Z</time>
  <course>48.61</course>
  <speed>0.73</speed>
  <fix>3d</fix>
</trkpt>
<trkpt lat="33.8101646" lon="-118.3940511">
  <ele>-0.113</ele>
  <time>2026-09-01T01:13:02Z</time>
  <course>11.8</course>
  <speed>0.7184010022264724</speed>
  <fix>3d</fix>
</trkpt>
<trkpt lat="33.8101638" lon="-118.3940528">
  <ele>-0.1</ele>
  <time>2026-09-01T01:13:02Z</time>
  <course>48.61</course>
  <speed>0.73</speed>
  <fix>3d</fix>
</trkpt>
<trkpt lat="33.810165" lon="-118.3940505">
  <ele>-0.114</ele>
  <time>2026-09-01T01:13:02Z</time>
  <course>11.81</course>
  <speed>0.7184010022264724</speed>
  <fix>3d</fix>
</trkpt>
<trkpt lat="33.8101647" lon="-118.3940515">
  <ele>-0.11</ele>
  <time>2026-09-01T01:13:02Z</time>
  <course>48.63</course>
  <speed>0.73</speed>
  <fix>3d</fix>
</trkpt>
<trkpt lat="33.8101654" lon="-118.3940499">
  <ele>-0.113</ele>
  <time>2026-09-01T01:13:02Z</time>
  <course>11.81</course>
  <speed>0.7184010022264724</speed>
  <fix>3d</fix>
</trkpt>
<trkpt lat="33.8101647" lon="-118.3940515">
  <ele>-0.11</ele>
  <time>2026-09-01T01:13:02Z</time>
  <course>48.63</course>
  <speed>0.73</speed>
  <fix>3d</fix>
</trkpt>
<trkpt lat="33.8101659" lon="-118.3940494">
  <ele>-0.112</ele>
  <time>2026-09-01T01:13:02Z</time>
  <course>11.82</course>
  <speed>0.7184010022264724</speed>
  <fix>3d</fix>
</trkpt>
<trkpt lat="33.8101655" lon="-118.3940504">
  <ele>-0.1</ele>
  <time>2026-09-01T01:13:02Z</time>
  <course>48.64</course>
  <speed>0.73</speed>
  <fix>3d</fix>
</trkpt>
<trkpt lat="33.8101663" lon="-118.3940488">
  <ele>-0.111</ele>
  <time>2026-09-01T01:13:02Z</time>
  <course>11.83</course>
  <speed>0.7184010022264724</speed>
  <fix>3d</fix>
</trkpt>
<trkpt lat="33.8101655" lon="-118.3940504">
  <ele>-0.1</ele>
  <time>2026-09-01T01:13:02Z</time>
  <course>48.64</course>
  <speed>0.73</speed>
  <fix>3d</fix>
</trkpt>
<trkpt lat="33.8101668" lon="-118.3940482">
  <ele>-0.11</ele>
  <time>2026-09-01T01:13:02Z</time>
  <course>11.84</course>
  <speed>0.7184010022264724</speed>
  <fix>3d</fix>
</trkpt>
<trkpt lat="33.8101664" lon="-118.3940491">
  <ele>-0.1</ele>
  <time>2026-09-01T01:13:02Z</time>
  <course>48.66</course>
  <speed>0.73</speed>
  <fix>3d</fix>
</trkpt>
<trkpt lat="33.8101672" lon="-118.3940476">
  <ele>-0.11</ele>
  <time>2026-09-01T01:13:02Z</time>
  <course>11.85</course>
  <speed>0.7184010022264724</speed>
  <fix>3d</fix>
</trkpt>
<trkpt lat="33.8101664" lon="-118.3940491">
  <ele>-0.1</ele>
  <time>2026-09-01T01:13:02Z</time>
  <course>48.66</course>
  <speed>0.73</speed>
  <fix>3d</fix>
</trkpt>
<trkpt lat="33.8101676" lon="-118.394047">
  <ele>-0.11</ele>
  <time>2026-09-01T01:13:02Z</time>
  <course>11.85</course>
  <speed>0.7184010022264724</speed>
  <fix>3d</fix>
</trkpt>
<trkpt lat="33.8101673" lon="-118.394048">
  <ele>-0.1</ele>
  <time>2026-09-01T01:13:02Z</time>
  <course>48.67</course>
  <speed>0.73</speed>
  <fix>3d</fix>
</trkpt>
<trkpt lat="33.8101681" lon="-118.3940464">
  <ele>-0.11</ele>
  <time>2026-09-01T01:13:02Z</time>
  <course>11.86</course>
  <speed>0.7184010022264724</speed>
  <fix>3d</fix>
</trkpt>
<trkpt lat="33.8101673" lon="-118.394048">
  <ele>-0.1</ele>
  <time>2026-09-01T01:13:02Z</time>
  <course>48.67</course>
  <speed>0.73</speed>
  <fix>3d</fix>
</trkpt>
<trkpt lat="33.8101685" lon="-118.3940458">
  <ele>-0.11</ele>
  <time>2026-09-01T01:13:02Z</time>
  <course>11.87</course>
  <speed>0.7184010022264724</speed>
  <fix>3d</fix>
</trkpt>
<trkpt lat="33.8101681" lon="-118.3940467">
  <ele>-0.1</ele>
  <time>2026-09-01T01:13:02Z</time>
  <course>48.69</course>
  <speed>0.73</speed>
  <fix>3d</fix>
</trkpt>
<trkpt lat="33.8101689" lon="-118.3940452">
  <ele>-0.111</ele>
  <time>2026-09-01T01:13:02Z</time>
  <course>11.88</course>
  <speed>0.7184010022264724</speed>
  <fix>3d</fix>
</trkpt>
<trkpt lat="33.8101681" lon="-118.3940467">
  <ele>-0.1</ele>
  <time>2026-09-01T01:13:02Z</time>
  <course>48.69</course>
  <speed>0.73</speed>
  <fix>3d</fix>
</trkpt>
<trkpt lat="33.8101694" lon="-118.3940446">
  <ele>-0.111</ele>
  <time>2026-09-01T01:13:02Z</time>
  <course>11.89</course>
  <speed>0.7184010022264724</speed>
  <fix>3d</fix>
</trkpt>
<trkpt lat="33.810169" lon="-118.3940456">
  <ele>-0.11</ele>
  <time>2026-09-01T01:13:02Z</time>
  <course>48.7</course>
  <speed>0.73</speed>
  <fix>3d</fix>
</trkpt>
<trkpt lat="33.8101698" lon="-118.394044">
  <ele>-0.111</ele>
  <time>2026-09-01T01:13:02Z</time>
  <course>11.89</course>
  <speed>0.7184010022264724</speed>
  <fix>3d</fix>
</trkpt>
<trkpt lat="33.810169" lon="-118.3940456">
  <ele>-0.11</ele>
  <time>2026-09-01T01:13:02Z</time>
  <course>48.7</course>
  <speed>0.73</speed>
  <fix>3d</fix>
</trkpt>
<trkpt lat="33.8101702" lon="-118.3940434">
  <ele>-0.111</ele>
  <time>2026-09-01T01:13:02Z</time>
  <course>11.9</course>
  <speed>0.7184010022264724</speed>
  <fix>3d</fix>
</trkpt>
<trkpt lat="33.8101699" lon="-118.3940443">
  <ele>-0.1</ele>
  <time>2026-09-01T01:13:02Z</time>
  <course>48.72</course>
  <speed>0.73</speed>
  <fix>3d</fix>
</trkpt>
<trkpt lat="33.8101707" lon="-118.3940428">
  <ele>-0.111</ele>
  <time>2026-09-01T01:13:02Z</time>
  <course>11.91</course>
  <speed>0.7184010022264724</speed>
  <fix>3d</fix>
</trkpt>
<trkpt lat="33.8101699" lon="-118.3940443">
  <ele>-0.1</ele>
  <time>2026-09-01T01:13:02Z</time>
  <course>48.72</course>
  <speed>0.73</speed>
  <fix>3d</fix>
</trkpt>
<trkpt lat="33.8101711" lon="-118.3940422">
  <ele>-0.11</ele>
  <time>2026-09-01T01:13:02Z</time>
  <course>11.92</course>
  <speed>0.7184010022264724</speed>
  <fix>3d</fix>
</trkpt>
<trkpt lat="33.8101707" lon="-118.3940432">
  <ele>-0.1</ele>
  <time>2026-09-01T01:13:02Z</time>
  <course>48.73</course>
  <speed>0.73</speed>
  <fix>3d</fix>
</trkpt>
<trkpt lat="33.8101716" lon="-118.3940416">
  <ele>-0.109</ele>
  <time>2026-09-01T01:13:02Z</time>
  <course>11.93</course>
  <speed>0.7184010022264724</speed>
  <fix>3d</fix>
</trkpt>
<trkpt lat="33.8101707" lon="-118.3940432">
  <ele>-0.1</ele>
  <time>2026-09-01T01:13:02Z</time>
  <course>48.73</course>
  <speed>0.73</speed>
  <fix>3d</fix>
</trkpt>
<trkpt lat="33.810172" lon="-118.394041">
  <ele>-0.107</ele>
  <time>2026-09-01T01:13:02Z</time>
  <course>11.93</course>
  <speed>0.7184010022264724</speed>
  <fix>3d</fix>
</trkpt>
<trkpt lat="33.8101716" lon="-118.3940419">
  <ele>-0.1</ele>
  <time>2026-09-01T01:13:02Z</time>
  <course>48.75</course>
  <speed>0.73</speed>
  <fix>3d</fix>
</trkpt>
<trkpt lat="33.8101724" lon="-118.3940404">
  <ele>-0.105</ele>
  <time>2026-09-01T01:13:02Z</time>
  <course>11.94</course>
  <speed>0.7184010022264724</speed>
  <fix>3d</fix>
</trkpt>
<trkpt lat="33.8101716" lon="-118.3940419">
  <ele>-0.1</ele>
  <time>2026-09-01T01:13:02Z</time>
  <course>48.75</course>
  <speed>0.73</speed>
  <fix>3d</fix>
</trkpt>
<trkpt lat="33.8101729" lon="-118.3940398">
  <ele>-0.104</ele>
  <time>2026-09-01T01:13:02Z</time>
  <course>11.95</course>
  <speed>0.7184010022264724</speed>
  <fix>3d</fix>
</trkpt>
<trkpt lat="33.8101725" lon="-118.3940408">
  <ele>-0.1</ele>
  <time>2026-09-01T01:13:02Z</time>
  <course>48.76</course>
  <speed>0.73</speed>
  <fix>3d</fix>
</trkpt>
<trkpt lat="33.8101733" lon="-118.3940392">
  <ele>-0.104</ele>
  <time>2026-09-01T01:13:02Z</time>
  <course>11.96</course>
  <speed>0.7184010022264724</speed>
  <fix>3d</fix>
</trkpt>
<trkpt lat="33.8101725" lon="-118.3940408">
  <ele>-0.1</ele>
  <time>2026-09-01T01:13:02Z</time>
  <course>48.76</course>
  <speed>0.73</speed>
  <fix>3d</fix>
</trkpt>
<trkpt lat="33.8101737" lon="-118.3940386">
  <ele>-0.105</ele>
  <time>2026-09-01T01:13:02Z</time>
  <course>11.96</course>
  <speed>0.7184010022264724</speed>
  <fix>3d</fix>
</trkpt>
<trkpt lat="33.8101734" lon="-118.3940395">
  <ele>-0.11</ele>
  <time>2026-09-01T01:13:02Z</time>
  <course>48.78</course>
  <speed>0.73</speed>
  <fix>3d</fix>
</trkpt>
<trkpt lat="33.8101742" lon="-118.394038">
  <ele>-0.105</ele>
  <time>2026-09-01T01:13:02Z</time>
  <course>11.97</course>
  <speed>0.7262231062146123</speed>
  <fix>3d</fix>
</trkpt>
<trkpt lat="33.8101734" lon="-118.3940395">
  <ele>-0.11</ele>
  <time>2026-09-01T01:13:02Z</time>
  <course>48.78</course>
  <speed>0.73</speed>
  <fix>3d</fix>
</trkpt>
<trkpt lat="33.8101746" lon="-118.3940374">
  <ele>-0.106</ele>
  <time>2026-09-01T01:13:02Z</time>
  <course>11.98</course>
  <speed>0.7262231062146123</speed>
  <fix>3d</fix>
</trkpt>
<trkpt lat="33.8101743" lon="-118.3940384">
  <ele>-0.1</ele>
  <time>2026-09-01T01:13:02Z</time>
  <course>48.79</course>
  <speed>0.73</speed>
  <fix>3d</fix>
</trkpt>
<trkpt lat="33.810175" lon="-118.3940368">
  <ele>-0.106</ele>
  <time>2026-09-01T01:13:02Z</time>
  <course>11.99</course>
  <speed>0.7262231062146123</speed>
  <fix>3d</fix>
</trkpt>
<trkpt lat="33.8101743" lon="-118.3940384">
  <ele>-0.1</ele>
  <time>2026-09-01T01:13:02Z</time>
  <course>48.79</course>
  <speed>0.73</speed>
  <fix>3d</fix>
</trkpt>
<trkpt lat="33.8101755" lon="-118.3940362">
  <ele>-0.108</ele>
  <time>2026-09-01T01:13:02Z</time>
  <course>11.99</course>
  <speed>0.7262231062146123</speed>
  <fix>3d</fix>
</trkpt>
<trkpt lat="33.8101751" lon="-118.3940371">
  <ele>-0.1</ele>
  <time>2026-09-01T01:13:02Z</time>
  <course>48.81</course>
  <speed>0.73</speed>
  <fix>3d</fix>
</trkpt>
<trkpt lat="33.8101759" lon="-118.3940356">
  <ele>-0.109</ele>
  <time>2026-09-01T01:13:02Z</time>
  <course>12.0</course>
  <speed>0.7262231062146123</speed>
  <fix>3d</fix>
</trkpt>
<trkpt lat="33.8101751" lon="-118.3940371">
  <ele>-0.1</ele>
  <time>2026-09-01T01:13:02Z</time>
  <course>48.81</course>
  <speed>0.73</speed>
  <fix>3d</fix>
</trkpt>
<trkpt lat="33.8101764" lon="-118.394035">
  <ele>-0.11</ele>
  <time>2026-09-01T01:13:02Z</time>
  <course>12.01</course>
  <speed>0.7262231062146123</speed>
  <fix>3d</fix>
</trkpt>
<trkpt lat="33.810176" lon="-118.394036">
  <ele>-0.1</ele>
  <time>2026-09-01T01:13:02Z</time>
  <course>48.82</course>
  <speed>0.73</speed>
  <fix>3d</fix>
</trkpt>
<trkpt lat="33.8101768" lon="-118.3940344">
  <ele>-0.112</ele>
  <time>2026-09-01T01:13:02Z</time>
  <course>12.02</course>
  <speed>0.7262231062146123</speed>
  <fix>3d</fix>
</trkpt>
<trkpt lat="33.810176" lon="-118.394036">
  <ele>-0.1</ele>
  <time>2026-09-01T01:13:02Z</time>
  <course>48.82</course>
  <speed>0.73</speed>
  <fix>3d</fix>
</trkpt>
<trkpt lat="33.8101772" lon="-118.3940338">
  <ele>-0.114</ele>
  <time>2026-09-01T01:13:02Z</time>
  <course>12.02</course>
  <speed>0.7262231062146123</speed>
  <fix>3d</fix>
</trkpt>
<trkpt lat="33.8101769" lon="-118.3940347">
  <ele>-0.1</ele>
  <time>2026-09-01T01:13:02Z</time>
  <course>48.84</course>
  <speed>0.73</speed>
  <fix>3d</fix>
</trkpt>
<trkpt lat="33.8101777" lon="-118.3940332">
  <ele>-0.115</ele>
  <time>2026-09-01T01:13:02Z</time>
  <course>12.03</course>
  <speed>0.7262231062146123</speed>
  <fix>3d</fix>
</trkpt>
<trkpt lat="33.8101769" lon="-118.3940347">
  <ele>-0.1</ele>
  <time>2026-09-01T01:13:02Z</time>
  <course>48.84</course>
  <speed>0.73</speed>
  <fix>3d</fix>
</trkpt>
<trkpt lat="33.8101781" lon="-118.3940326">
  <ele>-0.116</ele>
  <time>2026-09-01T01:13:02Z</time>
  <course>12.04</course>
  <speed>0.7262231062146123</speed>
  <fix>3d</fix>
</trkpt>
<trkpt lat="33.8101777" lon="-118.3940336">
  <ele>-0.11</ele>
  <time>2026-09-01T01:13:02Z</time>
  <course>48.85</course>
  <speed>0.73</speed>
  <fix>3d</fix>
</trkpt>
<trkpt lat="33.8101785" lon="-118.394032">
  <ele>-0.117</ele>
  <time>2026-09-01T01:13:02Z</time>
  <course>12.05</course>
  <speed>0.7262231062146123</speed>
  <fix>3d</fix>
</trkpt>
<trkpt lat="33.8101777" lon="-118.3940336">
  <ele>-0.11</ele>
  <time>2026-09-01T01:13:02Z</time>
  <course>48.85</course>
  <speed>0.73</speed>
  <fix>3d</fix>
</trkpt>
<trkpt lat="33.810179" lon="-118.3940314">
  <ele>-0.116</ele>
  <time>2026-09-01T01:13:02Z</time>
  <course>12.05</course>
  <speed>0.7262231062146123</speed>
  <fix>3d</fix>
</trkpt>
<trkpt lat="33.8101786" lon="-118.3940323">
  <ele>-0.1</ele>
  <time>2026-09-01T01:13:02Z</time>
  <course>48.87</course>
  <speed>0.73</speed>
  <fix>3d</fix>
</trkpt>
<trkpt lat="33.8101794" lon="-118.3940308">
  <ele>-0.115</ele>
  <time>2026-09-01T01:13:02Z</time>
  <course>12.06</course>
  <speed>0.7262231062146123</speed>
  <fix>3d</fix>
</trkpt>
<trkpt lat="33.8101786" lon="-118.3940323">
  <ele>-0.1</ele>
  <time>2026-09-01T01:13:02Z</time>
  <course>48.87</course>
  <speed>0.73</speed>
  <fix>3d</fix>
</trkpt>
<trkpt lat="33.8101798" lon="-118.3940302">
  <ele>-0.114</ele>
  <time>2026-09-01T01:13:02Z</time>
  <course>12.07</course>
  <speed>0.7262231062146123</speed>
  <fix>3d</fix>
</trkpt>
<trkpt lat="33.8101795" lon="-118.3940312">
  <ele>-0.1</ele>
  <time>2026-09-01T01:13:02Z</time>
  <course>48.88</course>
  <speed>0.73</speed>
  <fix>3d</fix>
</trkpt>
<trkpt lat="33.8101803" lon="-118.3940296">
  <ele>-0.112</ele>
  <time>2026-09-01T01:13:02Z</time>
  <course>12.08</course>
  <speed>0.7262231062146123</speed>
  <fix>3d</fix>
</trkpt>
<trkpt lat="33.8101795" lon="-118.3940312">
  <ele>-0.1</ele>
  <time>2026-09-01T01:13:02Z</time>
  <course>48.88</course>
  <speed>0.73</speed>
  <fix>3d</fix>
</trkpt>
<trkpt lat="33.8101807" lon="-118.394029">
  <ele>-0.11</ele>
  <time>2026-09-01T01:13:02Z</time>
  <course>12.08</course>
  <speed>0.7262231062146123</speed>
  <fix>3d</fix>
</trkpt>
<trkpt lat="33.8101803" lon="-118.3940299">
  <ele>-0.1</ele>
  <time>2026-09-01T01:13:02Z</time>
  <course>48.89</course>
  <speed>0.73</speed>
  <fix>3d</fix>
</trkpt>
<trkpt lat="33.8101811" lon="-118.3940283">
  <ele>-0.108</ele>
  <time>2026-09-01T01:13:02Z</time>
  <course>12.09</course>
  <speed>0.7262231062146123</speed>
  <fix>3d</fix>
</trkpt>
<trkpt lat="33.8101803" lon="-118.3940299">
  <ele>-0.1</ele>
  <time>2026-09-01T01:13:02Z</time>
  <course>48.89</course>
  <speed>0.73</speed>
  <fix>3d</fix>
</trkpt>
<trkpt lat="33.8101816" lon="-118.3940277">
  <ele>-0.107</ele>
  <time>2026-09-01T01:13:02Z</time>
  <course>12.1</course>
  <speed>0.7262231062146123</speed>
  <fix>3d</fix>
</trkpt>
<trkpt lat="33.8101812" lon="-118.3940288">
  <ele>-0.1</ele>
  <time>2026-09-01T01:13:02Z</time>
  <course>48.91</course>
  <speed>0.73</speed>
  <fix>3d</fix>
</trkpt>
<trkpt lat="33.810182" lon="-118.3940271">
  <ele>-0.107</ele>
  <time>2026-09-01T01:13:02Z</time>
  <course>12.11</course>
  <speed>0.7262231062146123</speed>
  <fix>3d</fix>
</trkpt>
<trkpt lat="33.8101812" lon="-118.3940288">
  <ele>-0.1</ele>
  <time>2026-09-01T01:13:02Z</time>
  <course>48.91</course>
  <speed>0.73</speed>
  <fix>3d</fix>
</trkpt>
<trkpt lat="33.8101824" lon="-118.3940265">
  <ele>-0.108</ele>
  <time>2026-09-01T01:13:02Z</time>
  <course>12.11</course>
  <speed>0.7262231062146123</speed>
  <fix>3d</fix>
</trkpt>
<trkpt lat="33.8101821" lon="-118.3940276">
  <ele>-0.11</ele>
  <time>2026-09-01T01:13:02Z</time>
  <course>48.92</course>
  <speed>0.73</speed>
  <fix>3d</fix>
</trkpt>
<trkpt lat="33.8101829" lon="-118.3940259">
  <ele>-0.108</ele>
  <time>2026-09-01T01:13:02Z</time>
  <course>12.12</course>
  <speed>0.7262231062146123</speed>
  <fix>3d</fix>
</trkpt>
<trkpt lat="33.8101821" lon="-118.3940276">
  <ele>-0.11</ele>
  <time>2026-09-01T01:13:02Z</time>
  <course>48.92</course>
  <speed>0.73</speed>
  <fix>3d</fix>
</trkpt>
<trkpt lat="33.8101833" lon="-118.3940254">
  <ele>-0.107</ele>
  <time>2026-09-01T01:13:02Z</time>
  <course>12.13</course>
  <speed>0.7262231062146123</speed>
  <fix>3d</fix>
</trkpt>
<trkpt lat="33.8101829" lon="-118.3940265">
  <ele>-0.1</ele>
  <time>2026-09-01T01:13:02Z</time>
  <course>48.94</course>
  <speed>0.73</speed>
  <fix>3d</fix>
</trkpt>
<trkpt lat="33.8101837" lon="-118.3940248">
  <ele>-0.106</ele>
  <time>2026-09-01T01:13:02Z</time>
  <course>12.13</course>
  <speed>0.7262231062146123</speed>
  <fix>3d</fix>
</trkpt>
<trkpt lat="33.8101829" lon="-118.3940265">
  <ele>-0.1</ele>
  <time>2026-09-01T01:13:02Z</time>
  <course>48.94</course>
  <speed>0.73</speed>
  <fix>3d</fix>
</trkpt>
<trkpt lat="33.8101842" lon="-118.3940242">
  <ele>-0.105</ele>
  <time>2026-09-01T01:13:02Z</time>
  <course>12.14</course>
  <speed>0.7262231062146123</speed>
  <fix>3d</fix>
</trkpt>
<trkpt lat="33.8101838" lon="-118.3940252">
  <ele>-0.1</ele>
  <time>2026-09-01T01:13:02Z</time>
  <course>48.95</course>
  <speed>0.73</speed>
  <fix>3d</fix>
</trkpt>
<trkpt lat="33.8101846" lon="-118.3940236">
  <ele>-0.105</ele>
  <time>2026-09-01T01:13:02Z</time>
  <course>12.15</course>
  <speed>0.7262231062146123</speed>
  <fix>3d</fix>
</trkpt>
<trkpt lat="33.8101838" lon="-118.3940252">
  <ele>-0.1</ele>
  <time>2026-09-01T01:13:02Z</time>
  <course>48.95</course>
  <speed>0.73</speed>
  <fix>3d</fix>
</trkpt>
<trkpt lat="33.810185" lon="-118.394023">
  <ele>-0.105</ele>
  <time>2026-09-01T01:13:02Z</time>
  <course>12.16</course>
  <speed>0.7262231062146123</speed>
  <fix>3d</fix>
</trkpt>
<trkpt lat="33.8101846" lon="-118.3940241">
  <ele>-0.1</ele>
  <time>2026-09-01T01:13:02Z</time>
  <course>48.96</course>
  <speed>0.73</speed>
  <fix>3d</fix>
</trkpt>
<trkpt lat="33.8101855" lon="-118.3940224">
  <ele>-0.106</ele>
  <time>2026-09-01T01:13:02Z</time>
  <course>12.16</course>
  <speed>0.7262231062146123</speed>
  <fix>3d</fix>
</trkpt>
<trkpt lat="33.8101846" lon="-118.3940241">
  <ele>-0.1</ele>
  <time>2026-09-01T01:13:02Z</time>
  <course>48.96</course>
  <speed>0.73</speed>
  <fix>3d</fix>
</trkpt>
<trkpt lat="33.8101859" lon="-118.3940218">
  <ele>-0.106</ele>
  <time>2026-09-01T01:13:02Z</time>
  <course>12.17</course>
  <speed>0.7262231062146123</speed>
  <fix>3d</fix>
</trkpt>
<trkpt lat="33.8101855" lon="-118.3940228">
  <ele>-0.1</ele>
  <time>2026-09-01T01:13:02Z</time>
  <course>48.98</course>
  <speed>0.73</speed>
  <fix>3d</fix>
</trkpt>
<trkpt lat="33.8101863" lon="-118.3940212">
  <ele>-0.106</ele>
  <time>2026-09-01T01:13:02Z</time>
  <course>12.18</course>
  <speed>0.7262231062146123</speed>
  <fix>3d</fix>
</trkpt>
<trkpt lat="33.8101855" lon="-118.3940228">
  <ele>-0.1</ele>
  <time>2026-09-01T01:13:02Z</time>
  <course>48.98</course>
  <speed>0.73</speed>
  <fix>3d</fix>
</trkpt>
<trkpt lat="33.8101868" lon="-118.3940206">
  <ele>-0.105</ele>
  <time>2026-09-01T01:13:02Z</time>
  <course>12.18</course>
  <speed>0.7262231062146123</speed>
  <fix>3d</fix>
</trkpt>
<trkpt lat="33.8101864" lon="-118.3940217">
  <ele>-0.11</ele>
  <time>2026-09-01T01:13:02Z</time>
  <course>48.99</course>
  <speed>0.73</speed>
  <fix>3d</fix>
</trkpt>
<trkpt lat="33.8101872" lon="-118.39402">
  <ele>-0.104</ele>
  <time>2026-09-01T01:13:02Z</time>
  <course>12.19</course>
  <speed>0.7262231062146123</speed>
  <fix>3d</fix>
</trkpt>
<trkpt lat="33.8101864" lon="-118.3940217">
  <ele>-0.11</ele>
  <time>2026-09-01T01:13:02Z</time>
  <course>48.99</course>
  <speed>0.73</speed>
  <fix>3d</fix>
</trkpt>
<trkpt lat="33.8101876" lon="-118.3940194">
  <ele>-0.102</ele>
  <time>2026-09-01T01:13:02Z</time>
  <course>12.2</course>
  <speed>0.7184010022264724</speed>
  <fix>3d</fix>
</trkpt>
<trkpt lat="33.8101872" lon="-118.3940204">
  <ele>-0.1</ele>
  <time>2026-09-01T01:13:02Z</time>
  <course>49.0</course>
  <speed>0.73</speed>
  <fix>3d</fix>
</trkpt>
<trkpt lat="33.8101881" lon="-118.3940188">
  <ele>-0.1</ele>
  <time>2026-09-01T01:13:02Z</time>
  <course>12.2</course>
  <speed>0.7262231062146123</speed>
  <fix>3d</fix>
</trkpt>
<trkpt lat="33.8101872" lon="-118.3940204">
  <ele>-0.1</ele>
  <time>2026-09-01T01:13:02Z</time>
  <course>49.0</course>
  <speed>0.73</speed>
  <fix>3d</fix>
</trkpt>
<trkpt lat="33.8101885" lon="-118.3940182">
  <ele>-0.098</ele>
  <time>2026-09-01T01:13:02Z</time>
  <course>12.21</course>
  <speed>0.7184010022264724</speed>
  <fix>3d</fix>
</trkpt>
<trkpt lat="33.8101881" lon="-118.3940193">
  <ele>-0.1</ele>
  <time>2026-09-01T01:13:02Z</time>
  <course>49.02</course>
  <speed>0.73</speed>
  <fix>3d</fix>
</trkpt>
<trkpt lat="33.8101889" lon="-118.3940176">
  <ele>-0.097</ele>
  <time>2026-09-01T01:13:02Z</time>
  <course>12.22</course>
  <speed>0.7184010022264724</speed>
  <fix>3d</fix>
</trkpt>
<trkpt lat="33.8101881" lon="-118.3940193">
  <ele>-0.1</ele>
  <time>2026-09-01T01:13:02Z</time>
  <course>49.02</course>
  <speed>0.73</speed>
  <fix>3d</fix>
</trkpt>
<trkpt lat="33.8101894" lon="-118.394017">
  <ele>-0.097</ele>
  <time>2026-09-01T01:13:02Z</time>
  <course>12.22</course>
  <speed>0.7184010022264724</speed>
  <fix>3d</fix>
</trkpt>
<trkpt lat="33.810189" lon="-118.394018">
  <ele>-0.1</ele>
  <time>2026-09-01T01:13:02Z</time>
  <course>49.03</course>
  <speed>0.73</speed>
  <fix>3d</fix>
</trkpt>
<trkpt lat="33.8101898" lon="-118.3940164">
  <ele>-0.097</ele>
  <time>2026-09-01T01:13:02Z</time>
  <course>12.23</course>
  <speed>0.7184010022264724</speed>
  <fix>3d</fix>
</trkpt>
<trkpt lat="33.810189" lon="-118.394018">
  <ele>-0.1</ele>
  <time>2026-09-01T01:13:02Z</time>
  <course>49.03</course>
  <speed>0.73</speed>
  <fix>3d</fix>
</trkpt>
<trkpt lat="33.8101902" lon="-118.3940158">
  <ele>-0.097</ele>
  <time>2026-09-01T01:13:02Z</time>
  <course>12.24</course>
  <speed>0.7184010022264724</speed>
  <fix>3d</fix>
</trkpt>
<trkpt lat="33.8101899" lon="-118.3940169">
  <ele>-0.1</ele>
  <time>2026-09-01T01:13:02Z</time>
  <course>49.04</course>
  <speed>0.73</speed>
  <fix>3d</fix>
</trkpt>
<trkpt lat="33.8101907" lon="-118.3940152">
  <ele>-0.097</ele>
  <time>2026-09-01T01:13:02Z</time>
  <course>12.24</course>
  <speed>0.7184010022264724</speed>
  <fix>3d</fix>
</trkpt>
<trkpt lat="33.8101899" lon="-118.3940169">
  <ele>-0.1</ele>
  <time>2026-09-01T01:13:02Z</time>
  <course>49.04</course>
  <speed>0.73</speed>
  <fix>3d</fix>
</trkpt>
<trkpt lat="33.8101911" lon="-118.3940146">
  <ele>-0.097</ele>
  <time>2026-09-01T01:13:02Z</time>
  <course>12.25</course>
  <speed>0.7184010022264724</speed>
  <fix>3d</fix>
</trkpt>
<trkpt lat="33.8101907" lon="-118.3940156">
  <ele>-0.11</ele>
  <time>2026-09-01T01:13:02Z</time>
  <course>49.06</course>
  <speed>0.73</speed>
  <fix>3d</fix>
</trkpt>
<trkpt lat="33.8101915" lon="-118.394014">
  <ele>-0.098</ele>
  <time>2026-09-01T01:13:02Z</time>
  <course>12.26</course>
  <speed>0.7184010022264724</speed>
  <fix>3d</fix>
</trkpt>
<trkpt lat="33.8101907" lon="-118.3940156">
  <ele>-0.11</ele>
  <time>2026-09-01T01:13:02Z</time>
  <course>49.06</course>
  <speed>0.73</speed>
  <fix>3d</fix>
</trkpt>
<trkpt lat="33.810192" lon="-118.3940134">
  <ele>-0.1</ele>
  <time>2026-09-01T01:13:02Z</time>
  <course>12.26</course>
  <speed>0.7184010022264724</speed>
  <fix>3d</fix>
</trkpt>
<trkpt lat="33.8101916" lon="-118.3940145">
  <ele>-0.1</ele>
  <time>2026-09-01T01:13:02Z</time>
  <course>49.07</course>
  <speed>0.73</speed>
  <fix>3d</fix>
</trkpt>
<trkpt lat="33.8101924" lon="-118.3940128">
  <ele>-0.101</ele>
  <time>2026-09-01T01:13:02Z</time>
  <course>12.27</course>
  <speed>0.7184010022264724</speed>
  <fix>3d</fix>
</trkpt>
<trkpt lat="33.8101916" lon="-118.3940145">
  <ele>-0.1</ele>
  <time>2026-09-01T01:13:02Z</time>
  <course>49.07</course>
  <speed>0.73</speed>
  <fix>3d</fix>
</trkpt>
<trkpt lat="33.8101928" lon="-118.3940122">
  <ele>-0.103</ele>
  <time>2026-09-01T01:13:02Z</time>
  <course>12.28</course>
  <speed>0.7184010022264724</speed>
  <fix>3d</fix>
</trkpt>
<trkpt lat="33.8101925" lon="-118.3940132">
  <ele>-0.1</ele>
  <time>2026-09-01T01:13:02Z</time>
  <course>49.08</course>
  <speed>0.73</speed>
  <fix>3d</fix>
</trkpt>
<trkpt lat="33.8101933" lon="-118.3940116">
  <ele>-0.103</ele>
  <time>2026-09-01T01:13:02Z</time>
  <course>12.28</course>
  <speed>0.7262231062146123</speed>
  <fix>3d</fix>
</trkpt>
<trkpt lat="33.8101925" lon="-118.3940132">
  <ele>-0.1</ele>
  <time>2026-09-01T01:13:02Z</time>
  <course>49.08</course>
  <speed>0.73</speed>
  <fix>3d</fix>
</trkpt>
<trkpt lat="33.8101937" lon="-118.394011">
  <ele>-0.103</ele>
  <time>2026-09-01T01:13:02Z</time>
  <course>12.29</course>
  <speed>0.7262231062146123</speed>
  <fix>3d</fix>
</trkpt>
<trkpt lat="33.8101933" lon="-118.3940121">
  <ele>-0.1</ele>
  <time>2026-09-01T01:13:02Z</time>
  <course>49.1</course>
  <speed>0.73</speed>
  <fix>3d</fix>
</trkpt>
<trkpt lat="33.8101941" lon="-118.3940104">
  <ele>-0.104</ele>
  <time>2026-09-01T01:13:02Z</time>
  <course>12.3</course>
  <speed>0.7262231062146123</speed>
  <fix>3d</fix>
</trkpt>
<trkpt lat="33.8101933" lon="-118.3940121">
  <ele>-0.1</ele>
  <time>2026-09-01T01:13:02Z</time>
  <course>49.1</course>
  <speed>0.73</speed>
  <fix>3d</fix>
</trkpt>
<trkpt lat="33.8101946" lon="-118.3940098">
  <ele>-0.104</ele>
  <time>2026-09-01T01:13:02Z</time>
  <course>12.3</course>
  <speed>0.7262231062146123</speed>
  <fix>3d</fix>
</trkpt>
<trkpt lat="33.8101942" lon="-118.3940108">
  <ele>-0.1</ele>
  <time>2026-09-01T01:13:02Z</time>
  <course>49.11</course>
  <speed>0.73</speed>
  <fix>3d</fix>
</trkpt>
<trkpt lat="33.810195" lon="-118.3940092">
  <ele>-0.105</ele>
  <time>2026-09-01T01:13:02Z</time>
  <course>12.31</course>
  <speed>0.7262231062146123</speed>
  <fix>3d</fix>
</trkpt>
<trkpt lat="33.8101942" lon="-118.3940108">
  <ele>-0.1</ele>
  <time>2026-09-01T01:13:02Z</time>
  <course>49.11</course>
  <speed>0.73</speed>
  <fix>3d</fix>
</trkpt>
<trkpt lat="33.8101954" lon="-118.3940086">
  <ele>-0.105</ele>
  <time>2026-09-01T01:13:02Z</time>
  <course>12.31</course>
  <speed>0.7262231062146123</speed>
  <fix>3d</fix>
</trkpt>
<trkpt lat="33.8101951" lon="-118.3940096">
  <ele>-0.11</ele>
  <time>2026-09-01T01:13:02Z</time>
  <course>49.12</course>
  <speed>0.73</speed>
  <fix>3d</fix>
</trkpt>
<trkpt lat="33.8101959" lon="-118.394008">
  <ele>-0.105</ele>
  <time>2026-09-01T01:13:02Z</time>
  <course>12.32</course>
  <speed>0.7262231062146123</speed>
  <fix>3d</fix>
</trkpt>
<trkpt lat="33.8101951" lon="-118.3940096">
  <ele>-0.11</ele>
  <time>2026-09-01T01:13:02Z</time>
  <course>49.12</course>
  <speed>0.73</speed>
  <fix>3d</fix>
</trkpt>
<trkpt lat="33.8101963" lon="-118.3940074">
  <ele>-0.105</ele>
  <time>2026-09-01T01:13:02Z</time>
  <course>12.33</course>
  <speed>0.7262231062146123</speed>
  <fix>3d</fix>
</trkpt>
<trkpt lat="33.8101959" lon="-118.3940084">
  <ele>-0.1</ele>
  <time>2026-09-01T01:13:02Z</time>
  <course>49.13</course>
  <speed>0.73</speed>
  <fix>3d</fix>
</trkpt>
<trkpt lat="33.8101967" lon="-118.3940068">
  <ele>-0.105</ele>
  <time>2026-09-01T01:13:02Z</time>
  <course>12.33</course>
  <speed>0.7262231062146123</speed>
  <fix>3d</fix>
</trkpt>
<trkpt lat="33.8101959" lon="-118.3940084">
  <ele>-0.1</ele>
  <time>2026-09-01T01:13:02Z</time>
  <course>49.13</course>
  <speed>0.73</speed>
  <fix>3d</fix>
</trkpt>
<trkpt lat="33.8101972" lon="-118.3940062">
  <ele>-0.105</ele>
  <time>2026-09-01T01:13:02Z</time>
  <course>12.34</course>
  <speed>0.7262231062146123</speed>
  <fix>3d</fix>
</trkpt>
<trkpt lat="33.8101968" lon="-118.3940072">
  <ele>-0.1</ele>
  <time>2026-09-01T01:13:02Z</time>
  <course>49.15</course>
  <speed>0.73</speed>
  <fix>3d</fix>
</trkpt>
<trkpt lat="33.8101976" lon="-118.3940056">
  <ele>-0.106</ele>
  <time>2026-09-01T01:13:02Z</time>
  <course>12.35</course>
  <speed>0.7262231062146123</speed>
  <fix>3d</fix>
</trkpt>
<trkpt lat="33.8101968" lon="-118.3940072">
  <ele>-0.1</ele>
  <time>2026-09-01T01:13:02Z</time>
  <course>49.15</course>
  <speed>0.73</speed>
  <fix>3d</fix>
</trkpt>
<trkpt lat="33.810198" lon="-118.394005">
  <ele>-0.108</ele>
  <time>2026-09-01T01:13:02Z</time>
  <course>12.35</course>
  <speed>0.7262231062146123</speed>
  <fix>3d</fix>
</trkpt>
<trkpt lat="33.8101977" lon="-118.394006">
  <ele>-0.1</ele>
  <time>2026-09-01T01:13:02Z</time>
  <course>49.16</course>
  <speed>0.73</speed>
  <fix>3d</fix>
</trkpt>
<trkpt lat="33.8101985" lon="-118.3940044">
  <ele>-0.11</ele>
  <time>2026-09-01T01:13:02Z</time>
  <course>12.36</course>
  <speed>0.7262231062146123</speed>
  <fix>3d</fix>
</trkpt>
<trkpt lat="33.8101977" lon="-118.394006">
  <ele>-0.1</ele>
  <time>2026-09-01T01:13:02Z</time>
  <course>49.16</course>
  <speed>0.73</speed>
  <fix>3d</fix>
</trkpt>
<trkpt lat="33.8101989" lon="-118.3940038">
  <ele>-0.111</ele>
  <time>2026-09-01T01:13:02Z</time>
  <course>12.37</course>
  <speed>0.7262231062146123</speed>
  <fix>3d</fix>
</trkpt>
<trkpt lat="33.8101985" lon="-118.3940048">
  <ele>-0.1</ele>
  <time>2026-09-01T01:13:02Z</time>
  <course>49.17</course>
  <speed>0.73</speed>
  <fix>3d</fix>
</trkpt>
<trkpt lat="33.8101993" lon="-118.3940032">
  <ele>-0.113</ele>
  <time>2026-09-01T01:13:02Z</time>
  <course>12.37</course>
  <speed>0.7262231062146123</speed>
  <fix>3d</fix>
</trkpt>
<trkpt lat="33.8101985" lon="-118.3940048">
  <ele>-0.1</ele>
  <time>2026-09-01T01:13:02Z</time>
  <course>49.17</course>
  <speed>0.73</speed>
  <fix>3d</fix>
</trkpt>
<trkpt lat="33.8101998" lon="-118.3940026">
  <ele>-0.115</ele>
  <time>2026-09-01T01:13:02Z</time>
  <course>12.38</course>
  <speed>0.7262231062146123</speed>
  <fix>3d</fix>
</trkpt>
<trkpt lat="33.8101994" lon="-118.3940036">
  <ele>-0.1</ele>
  <time>2026-09-01T01:13:02Z</time>
  <course>49.18</course>
  <speed>0.73</speed>
  <fix>3d</fix>
</trkpt>
<trkpt lat="33.8102002" lon="-118.394002">
  <ele>-0.116</ele>
  <time>2026-09-01T01:13:02Z</time>
  <course>12.39</course>
  <speed>0.7262231062146123</speed>
  <fix>3d</fix>
</trkpt>
<trkpt lat="33.8101994" lon="-118.3940036">
  <ele>-0.1</ele>
  <time>2026-09-01T01:13:02Z</time>
  <course>49.18</course>
  <speed>0.73</speed>
  <fix>3d</fix>
</trkpt>
<trkpt lat="33.8102006" lon="-118.3940014">
  <ele>-0.117</ele>
  <time>2026-09-01T01:13:02Z</time>
  <course>12.39</course>
  <speed>0.7262231062146123</speed>
  <fix>3d</fix>
</trkpt>
<trkpt lat="33.8102003" lon="-118.3940024">
  <ele>-0.1</ele>
  <time>2026-09-01T01:13:02Z</time>
  <course>49.2</course>
  <speed>0.73</speed>
  <fix>3d</fix>
</trkpt>
<trkpt lat="33.8102011" lon="-118.3940008">
  <ele>-0.118</ele>
  <time>2026-09-01T01:13:02Z</time>
  <course>12.4</course>
  <speed>0.7262231062146123</speed>
  <fix>3d</fix>
</trkpt>
<trkpt lat="33.8102003" lon="-118.3940024">
  <ele>-0.1</ele>
  <time>2026-09-01T01:13:02Z</time>
  <course>49.2</course>
  <speed>0.73</speed>
  <fix>3d</fix>
</trkpt>
<trkpt lat="33.8102015" lon="-118.3940002">
  <ele>-0.118</ele>
  <time>2026-09-01T01:13:02Z</time>
  <course>12.4</course>
  <speed>0.7262231062146123</speed>
  <fix>3d</fix>
</trkpt>
<trkpt lat="33.8102011" lon="-118.3940012">
  <ele>-0.1</ele>
  <time>2026-09-01T01:13:02Z</time>
  <course>49.21</course>
  <speed>0.73</speed>
  <fix>3d</fix>
</trkpt>
<trkpt lat="33.8102019" lon="-118.3939996">
  <ele>-0.119</ele>
  <time>2026-09-01T01:13:02Z</time>
  <course>12.41</course>
  <speed>0.7262231062146123</speed>
  <fix>3d</fix>
</trkpt>
<trkpt lat="33.8102011" lon="-118.3940012">
  <ele>-0.1</ele>
  <time>2026-09-01T01:13:02Z</time>
  <course>49.21</course>
  <speed>0.73</speed>
  <fix>3d</fix>
</trkpt>
<trkpt lat="33.8102023" lon="-118.393999">
  <ele>-0.12</ele>
  <time>2026-09-01T01:13:02Z</time>
  <course>12.42</course>
  <speed>0.7262231062146123</speed>
  <fix>3d</fix>
</trkpt>
<trkpt lat="33.810202" lon="-118.394">
  <ele>-0.1</ele>
  <time>2026-09-01T01:13:02Z</time>
  <course>49.22</course>
  <speed>0.73</speed>
  <fix>3d</fix>
</trkpt>
<trkpt lat="33.8102028" lon="-118.3939984">
  <ele>-0.12</ele>
  <time>2026-09-01T01:13:02Z</time>
  <course>12.42</course>
  <speed>0.7262231062146123</speed>
  <fix>3d</fix>
</trkpt>
<trkpt lat="33.810202" lon="-118.394">
  <ele>-0.1</ele>
  <time>2026-09-01T01:13:02Z</time>
  <course>49.22</course>
  <speed>0.73</speed>
  <fix>3d</fix>
</trkpt>
<trkpt lat="33.8102032" lon="-118.3939978">
  <ele>-0.121</ele>
  <time>2026-09-01T01:13:02Z</time>
  <course>12.43</course>
  <speed>0.7262231062146123</speed>
  <fix>3d</fix>
</trkpt>
<trkpt lat="33.8102028" lon="-118.3939988">
  <ele>-0.1</ele>
  <time>2026-09-01T01:13:02Z</time>
  <course>49.23</course>
  <speed>0.73</speed>
  <fix>3d</fix>
</trkpt>
<trkpt lat="33.8102036" lon="-118.3939972">
  <ele>-0.123</ele>
  <time>2026-09-01T01:13:02Z</time>
  <course>12.44</course>
  <speed>0.7262231062146123</speed>
  <fix>3d</fix>
</trkpt>
<trkpt lat="33.8102028" lon="-118.3939988">
  <ele>-0.1</ele>
  <time>2026-09-01T01:13:02Z</time>
  <course>49.23</course>
  <speed>0.73</speed>
  <fix>3d</fix>
</trkpt>
<trkpt lat="33.8102041" lon="-118.3939966">
  <ele>-0.123</ele>
  <time>2026-09-01T01:13:02Z</time>
  <course>12.44</course>
  <speed>0.7262231062146123</speed>
  <fix>3d</fix>
</trkpt>
<trkpt lat="33.8102037" lon="-118.3939976">
  <ele>-0.1</ele>
  <time>2026-09-01T01:13:02Z</time>
  <course>49.25</course>
  <speed>0.73</speed>
  <fix>3d</fix>
</trkpt>
<trkpt lat="33.8102045" lon="-118.393996">
  <ele>-0.123</ele>
  <time>2026-09-01T01:13:02Z</time>
  <course>12.45</course>
  <speed>0.7262231062146123</speed>
  <fix>3d</fix>
</trkpt>
<trkpt lat="33.8102037" lon="-118.3939976">
  <ele>-0.1</ele>
  <time>2026-09-01T01:13:02Z</time>
  <course>49.25</course>
  <speed>0.73</speed>
  <fix>3d</fix>
</trkpt>
<trkpt lat="33.8102049" lon="-118.3939954">
  <ele>-0.123</ele>
  <time>2026-09-01T01:13:02Z</time>
  <course>12.45</course>
  <speed>0.7262231062146123</speed>
  <fix>3d</fix>
</trkpt>
<trkpt lat="33.8102046" lon="-118.3939964">
  <ele>-0.1</ele>
  <time>2026-09-01T01:13:02Z</time>
  <course>49.26</course>
  <speed>0.73</speed>
  <fix>3d</fix>
</trkpt>
<trkpt lat="33.8102053" lon="-118.3939948">
  <ele>-0.122</ele>
  <time>2026-09-01T01:13:02Z</time>
  <course>12.46</course>
  <speed>0.7262231062146123</speed>
  <fix>3d</fix>
</trkpt>
<trkpt lat="33.8102046" lon="-118.3939964">
  <ele>-0.1</ele>
  <time>2026-09-01T01:13:02Z</time>
  <course>49.26</course>
  <speed>0.73</speed>
  <fix>3d</fix>
</trkpt>
<trkpt lat="33.8102058" lon="-118.3939942">
  <ele>-0.122</ele>
  <time>2026-09-01T01:13:02Z</time>
  <course>12.47</course>
  <speed>0.7262231062146123</speed>
  <fix>3d</fix>
</trkpt>
<trkpt lat="33.8102054" lon="-118.3939952">
  <ele>-0.1</ele>
  <time>2026-09-01T01:13:02Z</time>
  <course>49.27</course>
  <speed>0.73</speed>
  <fix>3d</fix>
</trkpt>
<trkpt lat="33.8102062" lon="-118.3939936">
  <ele>-0.12</ele>
  <time>2026-09-01T01:13:02Z</time>
  <course>12.47</course>
  <speed>0.7262231062146123</speed>
  <fix>3d</fix>
</trkpt>
<trkpt lat="33.8102054" lon="-118.3939952">
  <ele>-0.1</ele>
  <time>2026-09-01T01:13:02Z</time>
  <course>49.27</course>
  <speed>0.73</speed>
  <fix>3d</fix>
</trkpt>
<trkpt lat="33.8102066" lon="-118.393993">
  <ele>-0.118</ele>
  <time>2026-09-01T01:13:02Z</time>
  <course>12.48</course>
  <speed>0.7262231062146123</speed>
  <fix>3d</fix>
</trkpt>
<trkpt lat="33.8102063" lon="-118.393994">
  <ele>-0.1</ele>
  <time>2026-09-01T01:13:02Z</time>
  <course>49.28</course>
  <speed>0.73</speed>
  <fix>3d</fix>
</trkpt>
<trkpt lat="33.8102071" lon="-118.3939924">
  <ele>-0.116</ele>
  <time>2026-09-01T01:13:02Z</time>
  <course>12.48</course>
  <speed>0.7262231062146123</speed>
  <fix>3d</fix>
</trkpt>
<trkpt lat="33.8102063" lon="-118.393994">
  <ele>-0.1</ele>
  <time>2026-09-01T01:13:02Z</time>
  <course>49.28</course>
  <speed>0.73</speed>
  <fix>3d</fix>
</trkpt>
<trkpt lat="33.8102075" lon="-118.3939918">
  <ele>-0.114</ele>
  <time>2026-09-01T01:13:02Z</time>
  <course>12.49</course>
  <speed>0.7262231062146123</speed>
  <fix>3d</fix>
</trkpt>
<trkpt lat="33.8102071" lon="-118.3939928">
  <ele>-0.1</ele>
  <time>2026-09-01T01:13:02Z</time>
  <course>49.29</course>
  <speed>0.73</speed>
  <fix>3d</fix>
</trkpt>
<trkpt lat="33.8102079" lon="-118.3939912">
  <ele>-0.112</ele>
  <time>2026-09-01T01:13:02Z</time>
  <course>12.5</course>
  <speed>0.7262231062146123</speed>
  <fix>3d</fix>
</trkpt>
<trkpt lat="33.8102071" lon="-118.3939928">
  <ele>-0.1</ele>
  <time>2026-09-01T01:13:02Z</time>
  <course>49.29</course>
  <speed>0.73</speed>
  <fix>3d</fix>
</trkpt>
<trkpt lat="33.8102083" lon="-118.3939906">
  <ele>-0.111</ele>
  <time>2026-09-01T01:13:02Z</time>
  <course>12.5</course>
  <speed>0.7262231062146123</speed>
  <fix>3d</fix>
</trkpt>
<trkpt lat="33.810208" lon="-118.3939916">
  <ele>-0.1</ele>
  <time>2026-09-01T01:13:02Z</time>
  <course>49.3</course>
  <speed>0.73</speed>
  <fix>3d</fix>
</trkpt>
<trkpt lat="33.8102088" lon="-118.39399">
  <ele>-0.11</ele>
  <time>2026-09-01T01:13:02Z</time>
  <course>12.51</course>
  <speed>0.7262231062146123</speed>
  <fix>3d</fix>
</trkpt>
<trkpt lat="33.810208" lon="-118.3939916">
  <ele>-0.1</ele>
  <time>2026-09-01T01:13:02Z</time>
  <course>49.3</course>
  <speed>0.73</speed>
  <fix>3d</fix>
</trkpt>
<trkpt lat="33.8102092" lon="-118.3939894">
  <ele>-0.11</ele>
  <time>2026-09-01T01:13:02Z</time>
  <course>12.51</course>
  <speed>0.7262231062146123</speed>
  <fix>3d</fix>
</trkpt>
<trkpt lat="33.8102089" lon="-118.3939904">
  <ele>-0.1</ele>
  <time>2026-09-01T01:13:02Z</time>
  <course>49.32</course>
  <speed>0.73</speed>
  <fix>3d</fix>
</trkpt>
<trkpt lat="33.8102096" lon="-118.3939888">
  <ele>-0.111</ele>
  <time>2026-09-01T01:13:03Z</time>
  <course>12.52</course>
  <speed>0.7262231062146123</speed>
  <fix>3d</fix>
</trkpt>
<trkpt lat="33.8102089" lon="-118.3939904">
  <ele>-0.1</ele>
  <time>2026-09-01T01:13:03Z</time>
  <course>49.32</course>
  <speed>0.73</speed>
  <fix>3d</fix>
</trkpt>
<trkpt lat="33.8102101" lon="-118.3939882">
  <ele>-0.111</ele>
  <time>2026-09-01T01:13:03Z</time>
  <course>12.53</course>
  <speed>0.7262231062146123</speed>
  <fix>3d</fix>
</trkpt>
<trkpt lat="33.8102097" lon="-118.3939892">
  <ele>-0.1</ele>
  <time>2026-09-01T01:13:03Z</time>
  <course>49.33</course>
  <speed>0.73</speed>
  <fix>3d</fix>
</trkpt>
<trkpt lat="33.8102105" lon="-118.3939876">
  <ele>-0.111</ele>
  <time>2026-09-01T01:13:03Z</time>
  <course>12.53</course>
  <speed>0.7262231062146123</speed>
  <fix>3d</fix>
</trkpt>
<trkpt lat="33.8102097" lon="-118.3939892">
  <ele>-0.1</ele>
  <time>2026-09-01T01:13:03Z</time>
  <course>49.33</course>
  <speed>0.73</speed>
  <fix>3d</fix>
</trkpt>
<trkpt lat="33.8102109" lon="-118.393987">
  <ele>-0.112</ele>
  <time>2026-09-01T01:13:03Z</time>
  <course>12.54</course>
  <speed>0.7262231062146123</speed>
  <fix>3d</fix>
</trkpt>
<trkpt lat="33.8102106" lon="-118.393988">
  <ele>-0.1</ele>
  <time>2026-09-01T01:13:03Z</time>
  <course>49.34</course>
  <speed>0.73</speed>
  <fix>3d</fix>
</trkpt>
<trkpt lat="33.8102114" lon="-118.3939864">
  <ele>-0.113</ele>
  <time>2026-09-01T01:13:03Z</time>
  <course>12.54</course>
  <speed>0.7262231062146123</speed>
  <fix>3d</fix>
</trkpt>
<trkpt lat="33.8102106" lon="-118.393988">
  <ele>-0.1</ele>
  <time>2026-09-01T01:13:03Z</time>
  <course>49.34</course>
  <speed>0.73</speed>
  <fix>3d</fix>
</trkpt>
<trkpt lat="33.8102118" lon="-118.3939858">
  <ele>-0.113</ele>
  <time>2026-09-01T01:13:03Z</time>
  <course>12.55</course>
  <speed>0.7262231062146123</speed>
  <fix>3d</fix>
</trkpt>
<trkpt lat="33.8102114" lon="-118.3939868">
  <ele>-0.1</ele>
  <time>2026-09-01T01:13:03Z</time>
  <course>49.35</course>
  <speed>0.73</speed>
  <fix>3d</fix>
</trkpt>
<trkpt lat="33.8102122" lon="-118.3939852">
  <ele>-0.113</ele>
  <time>2026-09-01T01:13:03Z</time>
  <course>12.56</course>
  <speed>0.7200694410957876</speed>
  <fix>3d</fix>
</trkpt>
<trkpt lat="33.8102114" lon="-118.3939868">
  <ele>-0.1</ele>
  <time>2026-09-01T01:13:03Z</time>
  <course>49.35</course>
  <speed>0.73</speed>
  <fix>3d</fix>
</trkpt>
<trkpt lat="33.8102126" lon="-118.3939846">
  <ele>-0.114</ele>
  <time>2026-09-01T01:13:03Z</time>
  <course>12.56</course>
  <speed>0.7200694410957876</speed>
  <fix>3d</fix>
</trkpt>
<trkpt lat="33.8102123" lon="-118.3939856">
  <ele>-0.1</ele>
  <time>2026-09-01T01:13:03Z</time>
  <course>49.36</course>
  <speed>0.73</speed>
  <fix>3d</fix>
</trkpt>
<trkpt lat="33.8102131" lon="-118.393984">
  <ele>-0.115</ele>
  <time>2026-09-01T01:13:03Z</time>
  <course>12.57</course>
  <speed>0.7200694410957876</speed>
  <fix>3d</fix>
</trkpt>
<trkpt lat="33.8102123" lon="-118.3939856">
  <ele>-0.1</ele>
  <time>2026-09-01T01:13:03Z</time>
  <course>49.36</course>
  <speed>0.73</speed>
  <fix>3d</fix>
</trkpt>
<trkpt lat="33.8102135" lon="-118.3939834">
  <ele>-0.116</ele>
  <time>2026-09-01T01:13:03Z</time>
  <course>12.57</course>
  <speed>0.7200694410957876</speed>
  <fix>3d</fix>
</trkpt>
<trkpt lat="33.8102131" lon="-118.3939844">
  <ele>-0.1</ele>
  <time>2026-09-01T01:13:03Z</time>
  <course>49.37</course>
  <speed>0.73</speed>
  <fix>3d</fix>
</trkpt>
<trkpt lat="33.8102139" lon="-118.3939828">
  <ele>-0.116</ele>
  <time>2026-09-01T01:13:03Z</time>
  <course>12.58</course>
  <speed>0.7200694410957876</speed>
  <fix>3d</fix>
</trkpt>
<trkpt lat="33.8102131" lon="-118.3939844">
  <ele>-0.1</ele>
  <time>2026-09-01T01:13:03Z</time>
  <course>49.37</course>
  <speed>0.73</speed>
  <fix>3d</fix>
</trkpt>
<trkpt lat="33.8102143" lon="-118.3939822">
  <ele>-0.116</ele>
  <time>2026-09-01T01:13:03Z</time>
  <course>12.58</course>
  <speed>0.7200694410957876</speed>
  <fix>3d</fix>
</trkpt>
<trkpt lat="33.810214" lon="-118.3939831">
  <ele>-0.1</ele>
  <time>2026-09-01T01:13:03Z</time>
  <course>49.39</course>
  <speed>0.73</speed>
  <fix>3d</fix>
</trkpt>
<trkpt lat="33.8102148" lon="-118.3939816">
  <ele>-0.115</ele>
  <time>2026-09-01T01:13:03Z</time>
  <course>12.59</course>
  <speed>0.7200694410957876</speed>
  <fix>3d</fix>
</trkpt>
<trkpt lat="33.810214" lon="-118.3939831">
  <ele>-0.1</ele>
  <time>2026-09-01T01:13:03Z</time>
  <course>49.39</course>
  <speed>0.73</speed>
  <fix>3d</fix>
</trkpt>
<trkpt lat="33.8102152" lon="-118.393981">
  <ele>-0.114</ele>
  <time>2026-09-01T01:13:03Z</time>
  <course>12.6</course>
  <speed>0.7200694410957876</speed>
  <fix>3d</fix>
</trkpt>
<trkpt lat="33.8102149" lon="-118.3939819">
  <ele>-0.1</ele>
  <time>2026-09-01T01:13:03Z</time>
  <course>49.4</course>
  <speed>0.73</speed>
  <fix>3d</fix>
</trkpt>
<trkpt lat="33.8102156" lon="-118.3939804">
  <ele>-0.113</ele>
  <time>2026-09-01T01:13:03Z</time>
  <course>12.6</course>
  <speed>0.7200694410957876</speed>
  <fix>3d</fix>
</trkpt>
<trkpt lat="33.8102149" lon="-118.3939819">
  <ele>-0.1</ele>
  <time>2026-09-01T01:13:03Z</time>
  <course>49.4</course>
  <speed>0.73</speed>
  <fix>3d</fix>
</trkpt>
<trkpt lat="33.8102161" lon="-118.3939798">
  <ele>-0.111</ele>
  <time>2026-09-01T01:13:03Z</time>
  <course>12.61</course>
  <speed>0.7200694410957876</speed>
  <fix>3d</fix>
</trkpt>
<trkpt lat="33.8102157" lon="-118.3939806">
  <ele>-0.1</ele>
  <time>2026-09-01T01:13:03Z</time>
  <course>49.41</course>
  <speed>0.73</speed>
  <fix>3d</fix>
</trkpt>
<trkpt lat="33.8102165" lon="-118.3939792">
  <ele>-0.111</ele>
  <time>2026-09-01T01:13:03Z</time>
  <course>12.61</course>
  <speed>0.7200694410957876</speed>
  <fix>3d</fix>
</trkpt>
<trkpt lat="33.8102157" lon="-118.3939806">
  <ele>-0.1</ele>
  <time>2026-09-01T01:13:03Z</time>
  <course>49.41</course>
  <speed>0.73</speed>
  <fix>3d</fix>
</trkpt>
<trkpt lat="33.8102169" lon="-118.3939785">
  <ele>-0.111</ele>
  <time>2026-09-01T01:13:03Z</time>
  <course>12.62</course>
  <speed>0.7200694410957876</speed>
  <fix>3d</fix>
</trkpt>
<trkpt lat="33.8102166" lon="-118.3939795">
  <ele>-0.1</ele>
  <time>2026-09-01T01:13:03Z</time>
  <course>49.42</course>
  <speed>0.73</speed>
  <fix>3d</fix>
</trkpt>
<trkpt lat="33.8102173" lon="-118.3939779">
  <ele>-0.111</ele>
  <time>2026-09-01T01:13:03Z</time>
  <course>12.63</course>
  <speed>0.7200694410957876</speed>
  <fix>3d</fix>
</trkpt>
<trkpt lat="33.8102166" lon="-118.3939795">
  <ele>-0.1</ele>
  <time>2026-09-01T01:13:03Z</time>
  <course>49.42</course>
  <speed>0.73</speed>
  <fix>3d</fix>
</trkpt>
<trkpt lat="33.8102178" lon="-118.3939773">
  <ele>-0.11</ele>
  <time>2026-09-01T01:13:03Z</time>
  <course>12.63</course>
  <speed>0.7200694410957876</speed>
  <fix>3d</fix>
</trkpt>
<trkpt lat="33.8102174" lon="-118.3939782">
  <ele>-0.1</ele>
  <time>2026-09-01T01:13:03Z</time>
  <course>49.43</course>
  <speed>0.73</speed>
  <fix>3d</fix>
</trkpt>
<trkpt lat="33.8102182" lon="-118.3939767">
  <ele>-0.109</ele>
  <time>2026-09-01T01:13:03Z</time>
  <course>12.64</course>
  <speed>0.7200694410957876</speed>
  <fix>3d</fix>
</trkpt>
<trkpt lat="33.8102174" lon="-118.3939782">
  <ele>-0.1</ele>
  <time>2026-09-01T01:13:03Z</time>
  <course>49.43</course>
  <speed>0.73</speed>
  <fix>3d</fix>
</trkpt>
<trkpt lat="33.8102186" lon="-118.3939761">
  <ele>-0.107</ele>
  <time>2026-09-01T01:13:03Z</time>
  <course>12.64</course>
  <speed>0.7200694410957876</speed>
  <fix>3d</fix>
</trkpt>
<trkpt lat="33.8102183" lon="-118.3939771">
  <ele>-0.1</ele>
  <time>2026-09-01T01:13:03Z</time>
  <course>49.44</course>
  <speed>0.73</speed>
  <fix>3d</fix>
</trkpt>
<trkpt lat="33.8102191" lon="-118.3939755">
  <ele>-0.106</ele>
  <time>2026-09-01T01:13:03Z</time>
  <course>12.65</course>
  <speed>0.7200694410957876</speed>
  <fix>3d</fix>
</trkpt>
<trkpt lat="33.8102183" lon="-118.3939771">
  <ele>-0.1</ele>
  <time>2026-09-01T01:13:03Z</time>
  <course>49.44</course>
  <speed>0.73</speed>
  <fix>3d</fix>
</trkpt>
<trkpt lat="33.8102195" lon="-118.3939749">
  <ele>-0.107</ele>
  <time>2026-09-01T01:13:03Z</time>
  <course>12.65</course>
  <speed>0.7200694410957876</speed>
  <fix>3d</fix>
</trkpt>
<trkpt lat="33.8102192" lon="-118.3939758">
  <ele>-0.1</ele>
  <time>2026-09-01T01:13:03Z</time>
  <course>49.45</course>
  <speed>0.73</speed>
  <fix>3d</fix>
</trkpt>
<trkpt lat="33.8102199" lon="-118.3939743">
  <ele>-0.108</ele>
  <time>2026-09-01T01:13:03Z</time>
  <course>12.66</course>
  <speed>0.7200694410957876</speed>
  <fix>3d</fix>
</trkpt>
<trkpt lat="33.8102192" lon="-118.3939758">
  <ele>-0.1</ele>
  <time>2026-09-01T01:13:03Z</time>
  <course>49.45</course>
  <speed>0.73</speed>
  <fix>3d</fix>
</trkpt>
<trkpt lat="33.8102203" lon="-118.3939737">
  <ele>-0.109</ele>
  <time>2026-09-01T01:13:03Z</time>
  <course>12.67</course>
  <speed>0.7200694410957876</speed>
  <fix>3d</fix>
</trkpt>
<trkpt lat="33.81022" lon="-118.3939747">
  <ele>-0.1</ele>
  <time>2026-09-01T01:13:03Z</time>
  <course>49.46</course>
  <speed>0.73</speed>
  <fix>3d</fix>
</trkpt>
<trkpt lat="33.8102208" lon="-118.3939731">
  <ele>-0.111</ele>
  <time>2026-09-01T01:13:03Z</time>
  <course>12.67</course>
  <speed>0.7200694410957876</speed>
  <fix>3d</fix>
</trkpt>
<trkpt lat="33.81022" lon="-118.3939747">
  <ele>-0.1</ele>
  <time>2026-09-01T01:13:03Z</time>
  <course>49.46</course>
  <speed>0.73</speed>
  <fix>3d</fix>
</trkpt>
<trkpt lat="33.8102212" lon="-118.3939725">
  <ele>-0.112</ele>
  <time>2026-09-01T01:13:03Z</time>
  <course>12.68</course>
  <speed>0.7200694410957876</speed>
  <fix>3d</fix>
</trkpt>
<trkpt lat="33.8102209" lon="-118.3939734">
  <ele>-0.1</ele>
  <time>2026-09-01T01:13:03Z</time>
  <course>49.47</course>
  <speed>0.73</speed>
  <fix>3d</fix>
</trkpt>
<trkpt lat="33.8102216" lon="-118.3939718">
  <ele>-0.114</ele>
  <time>2026-09-01T01:13:03Z</time>
  <course>12.68</course>
  <speed>0.7200694410957876</speed>
  <fix>3d</fix>
</trkpt>
<trkpt lat="33.8102209" lon="-118.3939734">
  <ele>-0.1</ele>
  <time>2026-09-01T01:13:03Z</time>
  <course>49.47</course>
  <speed>0.73</speed>
  <fix>3d</fix>
</trkpt>
<trkpt lat="33.8102221" lon="-118.3939712">
  <ele>-0.114</ele>
  <time>2026-09-01T01:13:03Z</time>
  <course>12.69</course>
  <speed>0.7200694410957876</speed>
  <fix>3d</fix>
</trkpt>
<trkpt lat="33.8102217" lon="-118.3939723">
  <ele>-0.1</ele>
  <time>2026-09-01T01:13:03Z</time>
  <course>49.49</course>
  <speed>0.73</speed>
  <fix>3d</fix>
</trkpt>
<trkpt lat="33.8102225" lon="-118.3939706">
  <ele>-0.113</ele>
  <time>2026-09-01T01:13:03Z</time>
  <course>12.69</course>
  <speed>0.7200694410957876</speed>
  <fix>3d</fix>
</trkpt>
<trkpt lat="33.8102217" lon="-118.3939723">
  <ele>-0.1</ele>
  <time>2026-09-01T01:13:03Z</time>
  <course>49.49</course>
  <speed>0.73</speed>
  <fix>3d</fix>
</trkpt>
<trkpt lat="33.8102229" lon="-118.39397">
  <ele>-0.112</ele>
  <time>2026-09-01T01:13:03Z</time>
  <course>12.7</course>
  <speed>0.7200694410957876</speed>
  <fix>3d</fix>
</trkpt>
<trkpt lat="33.8102226" lon="-118.393971">
  <ele>-0.1</ele>
  <time>2026-09-01T01:13:03Z</time>
  <course>49.5</course>
  <speed>0.73</speed>
  <fix>3d</fix>
</trkpt>
<trkpt lat="33.8102233" lon="-118.3939694">
  <ele>-0.11</ele>
  <time>2026-09-01T01:13:03Z</time>
  <course>12.7</course>
  <speed>0.7200694410957876</speed>
  <fix>3d</fix>
</trkpt>
<trkpt lat="33.8102226" lon="-118.393971">
  <ele>-0.1</ele>
  <time>2026-09-01T01:13:03Z</time>
  <course>49.5</course>
  <speed>0.73</speed>
  <fix>3d</fix>
</trkpt>
<trkpt lat="33.8102238" lon="-118.3939688">
  <ele>-0.108</ele>
  <time>2026-09-01T01:13:03Z</time>
  <course>12.71</course>
  <speed>0.7200694410957876</speed>
  <fix>3d</fix>
</trkpt>
<trkpt lat="33.8102235" lon="-118.3939699">
  <ele>-0.1</ele>
  <time>2026-09-01T01:13:03Z</time>
  <course>49.51</course>
  <speed>0.73</speed>
  <fix>3d</fix>
</trkpt>
<trkpt lat="33.8102242" lon="-118.3939682">
  <ele>-0.106</ele>
  <time>2026-09-01T01:13:03Z</time>
  <course>12.71</course>
  <speed>0.7200694410957876</speed>
  <fix>3d</fix>
</trkpt>
<trkpt lat="33.8102235" lon="-118.3939699">
  <ele>-0.1</ele>
  <time>2026-09-01T01:13:03Z</time>
  <course>49.51</course>
  <speed>0.73</speed>
  <fix>3d</fix>
</trkpt>
<trkpt lat="33.8102246" lon="-118.3939676">
  <ele>-0.103</ele>
  <time>2026-09-01T01:13:03Z</time>
  <course>12.72</course>
  <speed>0.7200694410957876</speed>
  <fix>3d</fix>
</trkpt>
<trkpt lat="33.8102243" lon="-118.3939686">
  <ele>-0.1</ele>
  <time>2026-09-01T01:13:03Z</time>
  <course>49.52</course>
  <speed>0.73</speed>
  <fix>3d</fix>
</trkpt>
<trkpt lat="33.8102251" lon="-118.393967">
  <ele>-0.102</ele>
  <time>2026-09-01T01:13:03Z</time>
  <course>12.73</course>
  <speed>0.7200694410957876</speed>
  <fix>3d</fix>
</trkpt>
<trkpt lat="33.8102243" lon="-118.3939686">
  <ele>-0.1</ele>
  <time>2026-09-01T01:13:03Z</time>
  <course>49.52</course>
  <speed>0.73</speed>
  <fix>3d</fix>
</trkpt>
<trkpt lat="33.8102255" lon="-118.3939664">
  <ele>-0.101</ele>
  <time>2026-09-01T01:13:03Z</time>
  <course>12.73</course>
  <speed>0.7200694410957876</speed>
  <fix>3d</fix>
</trkpt>
<trkpt lat="33.8102252" lon="-118.3939674">
  <ele>-0.1</ele>
  <time>2026-09-01T01:13:03Z</time>
  <course>49.53</course>
  <speed>0.73</speed>
  <fix>3d</fix>
</trkpt>
<trkpt lat="33.8102259" lon="-118.3939658">
  <ele>-0.1</ele>
  <time>2026-09-01T01:13:03Z</time>
  <course>12.74</course>
  <speed>0.7200694410957876</speed>
  <fix>3d</fix>
</trkpt>
<trkpt lat="33.8102252" lon="-118.3939674">
  <ele>-0.1</ele>
  <time>2026-09-01T01:13:03Z</time>
  <course>49.53</course>
  <speed>0.73</speed>
  <fix>3d</fix>
</trkpt>
<trkpt lat="33.8102264" lon="-118.3939652">
  <ele>-0.1</ele>
  <time>2026-09-01T01:13:03Z</time>
  <course>12.74</course>
  <speed>0.7200694410957876</speed>
  <fix>3d</fix>
</trkpt>
<trkpt lat="33.810226" lon="-118.3939662">
  <ele>-0.1</ele>
  <time>2026-09-01T01:13:03Z</time>
  <course>49.54</course>
  <speed>0.73</speed>
  <fix>3d</fix>
</trkpt>
<trkpt lat="33.8102268" lon="-118.3939646">
  <ele>-0.099</ele>
  <time>2026-09-01T01:13:03Z</time>
  <course>12.75</course>
  <speed>0.7200694410957876</speed>
  <fix>3d</fix>
</trkpt>
<trkpt lat="33.810226" lon="-118.3939662">
  <ele>-0.1</ele>
  <time>2026-09-01T01:13:03Z</time>
  <course>49.54</course>
  <speed>0.73</speed>
  <fix>3d</fix>
</trkpt>
<trkpt lat="33.8102272" lon="-118.393964">
  <ele>-0.098</ele>
  <time>2026-09-01T01:13:03Z</time>
  <course>12.75</course>
  <speed>0.7200694410957876</speed>
  <fix>3d</fix>
</trkpt>
<trkpt lat="33.8102269" lon="-118.393965">
  <ele>-0.1</ele>
  <time>2026-09-01T01:13:03Z</time>
  <course>49.55</course>
  <speed>0.73</speed>
  <fix>3d</fix>
</trkpt>
<trkpt lat="33.8102277" lon="-118.3939634">
  <ele>-0.098</ele>
  <time>2026-09-01T01:13:03Z</time>
  <course>12.76</course>
  <speed>0.7200694410957876</speed>
  <fix>3d</fix>
</trkpt>
<trkpt lat="33.8102269" lon="-118.393965">
  <ele>-0.1</ele>
  <time>2026-09-01T01:13:03Z</time>
  <course>49.55</course>
  <speed>0.73</speed>
  <fix>3d</fix>
</trkpt>
<trkpt lat="33.8102281" lon="-118.3939628">
  <ele>-0.097</ele>
  <time>2026-09-01T01:13:03Z</time>
  <course>12.76</course>
  <speed>0.7200694410957876</speed>
  <fix>3d</fix>
</trkpt>
<trkpt lat="33.8102277" lon="-118.3939638">
  <ele>-0.1</ele>
  <time>2026-09-01T01:13:03Z</time>
  <course>49.56</course>
  <speed>0.73</speed>
  <fix>3d</fix>
</trkpt>
<trkpt lat="33.8102285" lon="-118.3939622">
  <ele>-0.098</ele>
  <time>2026-09-01T01:13:03Z</time>
  <course>12.77</course>
  <speed>0.7200694410957876</speed>
  <fix>3d</fix>
</trkpt>
<trkpt lat="33.8102277" lon="-118.3939638">
  <ele>-0.1</ele>
  <time>2026-09-01T01:13:03Z</time>
  <course>49.56</course>
  <speed>0.73</speed>
  <fix>3d</fix>
</trkpt>
<trkpt lat="33.8102289" lon="-118.3939616">
  <ele>-0.099</ele>
  <time>2026-09-01T01:13:03Z</time>
  <course>12.77</course>
  <speed>0.7200694410957876</speed>
  <fix>3d</fix>
</trkpt>
<trkpt lat="33.8102286" lon="-118.3939626">
  <ele>-0.1</ele>
  <time>2026-09-01T01:13:03Z</time>
  <course>49.57</course>
  <speed>0.73</speed>
  <fix>3d</fix>
</trkpt>
<trkpt lat="33.8102294" lon="-118.3939609">
  <ele>-0.1</ele>
  <time>2026-09-01T01:13:03Z</time>
  <course>12.78</course>
  <speed>0.7200694410957876</speed>
  <fix>3d</fix>
</trkpt>
<trkpt lat="33.8102286" lon="-118.3939626">
  <ele>-0.1</ele>
  <time>2026-09-01T01:13:03Z</time>
  <course>49.57</course>
  <speed>0.73</speed>
  <fix>3d</fix>
</trkpt>
<trkpt lat="33.8102298" lon="-118.3939603">
  <ele>-0.101</ele>
  <time>2026-09-01T01:13:03Z</time>
  <course>12.78</course>
  <speed>0.7200694410957876</speed>
  <fix>3d</fix>
</trkpt>
<trkpt lat="33.8102295" lon="-118.3939614">
  <ele>-0.1</ele>
  <time>2026-09-01T01:13:03Z</time>
  <course>49.58</course>
  <speed>0.73</speed>
  <fix>3d</fix>
</trkpt>
<trkpt lat="33.8102302" lon="-118.3939597">
  <ele>-0.102</ele>
  <time>2026-09-01T01:13:03Z</time>
  <course>12.79</course>
  <speed>0.7200694410957876</speed>
  <fix>3d</fix>
</trkpt>
<trkpt lat="33.8102295" lon="-118.3939614">
  <ele>-0.1</ele>
  <time>2026-09-01T01:13:03Z</time>
  <course>49.58</course>
  <speed>0.73</speed>
  <fix>3d</fix>
</trkpt>
<trkpt lat="33.8102307" lon="-118.3939591">
  <ele>-0.103</ele>
  <time>2026-09-01T01:13:03Z</time>
  <course>12.79</course>
  <speed>0.7200694410957876</speed>
  <fix>3d</fix>
</trkpt>
<trkpt lat="33.8102303" lon="-118.3939601">
  <ele>-0.1</ele>
  <time>2026-09-01T01:13:03Z</time>
  <course>49.59</course>
  <speed>0.73</speed>
  <fix>3d</fix>
</trkpt>
<trkpt lat="33.8102311" lon="-118.3939585">
  <ele>-0.104</ele>
  <time>2026-09-01T01:13:03Z</time>
  <course>12.8</course>
  <speed>0.7200694410957876</speed>
  <fix>3d</fix>
</trkpt>
<trkpt lat="33.8102303" lon="-118.3939601">
  <ele>-0.1</ele>
  <time>2026-09-01T01:13:03Z</time>
  <course>49.59</course>
  <speed>0.73</speed>
  <fix>3d</fix>
</trkpt>
<trkpt lat="33.8102315" lon="-118.3939579">
  <ele>-0.106</ele>
  <time>2026-09-01T01:13:03Z</time>
  <course>12.8</course>
  <speed>0.7200694410957876</speed>
  <fix>3d</fix>
</trkpt>
<trkpt lat="33.8102312" lon="-118.393959">
  <ele>-0.1</ele>
  <time>2026-09-01T01:13:03Z</time>
  <course>49.6</course>
  <speed>0.73</speed>
  <fix>3d</fix>
</trkpt>
<trkpt lat="33.8102319" lon="-118.3939573">
  <ele>-0.108</ele>
  <time>2026-09-01T01:13:03Z</time>
  <course>12.81</course>
  <speed>0.7200694410957876</speed>
  <fix>3d</fix>
</trkpt>
<trkpt lat="33.8102312" lon="-118.393959">
  <ele>-0.1</ele>
  <time>2026-09-01T01:13:03Z</time>
  <course>49.6</course>
  <speed>0.73</speed>
  <fix>3d</fix>
</trkpt>
<trkpt lat="33.8102324" lon="-118.3939567">
  <ele>-0.11</ele>
  <time>2026-09-01T01:13:03Z</time>
  <course>12.81</course>
  <speed>0.7200694410957876</speed>
  <fix>3d</fix>
</trkpt>
<trkpt lat="33.810232" lon="-118.3939577">
  <ele>-0.1</ele>
  <time>2026-09-01T01:13:03Z</time>
  <course>49.61</course>
  <speed>0.73</speed>
  <fix>3d</fix>
</trkpt>
<trkpt lat="33.8102328" lon="-118.3939561">
  <ele>-0.113</ele>
  <time>2026-09-01T01:13:03Z</time>
  <course>12.82</course>
  <speed>0.7200694410957876</speed>
  <fix>3d</fix>
</trkpt>
<trkpt lat="33.810232" lon="-118.3939577">
  <ele>-0.1</ele>
  <time>2026-09-01T01:13:03Z</time>
  <course>49.61</course>
  <speed>0.73</speed>
  <fix>3d</fix>
</trkpt>
<trkpt lat="33.8102332" lon="-118.3939555">
  <ele>-0.115</ele>
  <time>2026-09-01T01:13:03Z</time>
  <course>12.82</course>
  <speed>0.7200694410957876</speed>
  <fix>3d</fix>
</trkpt>
<trkpt lat="33.8102329" lon="-118.3939565">
  <ele>-0.1</ele>
  <time>2026-09-01T01:13:03Z</time>
  <course>49.62</course>
  <speed>0.73</speed>
  <fix>3d</fix>
</trkpt>
<trkpt lat="33.8102337" lon="-118.3939549">
  <ele>-0.117</ele>
  <time>2026-09-01T01:13:03Z</time>
  <course>12.83</course>
  <speed>0.7200694410957876</speed>
  <fix>3d</fix>
</trkpt>
<trkpt lat="33.8102329" lon="-118.3939565">
  <ele>-0.1</ele>
  <time>2026-09-01T01:13:03Z</time>
  <course>49.62</course>
  <speed>0.73</speed>
  <fix>3d</fix>
</trkpt>
<trkpt lat="33.8102341" lon="-118.3939543">
  <ele>-0.118</ele>
  <time>2026-09-01T01:13:03Z</time>
  <course>12.84</course>
  <speed>0.7200694410957876</speed>
  <fix>3d</fix>
</trkpt>
<trkpt lat="33.8102338" lon="-118.3939552">
  <ele>-0.1</ele>
  <time>2026-09-01T01:13:03Z</time>
  <course>49.63</course>
  <speed>0.73</speed>
  <fix>3d</fix>
</trkpt>
<trkpt lat="33.8102345" lon="-118.3939537">
  <ele>-0.119</ele>
  <time>2026-09-01T01:13:03Z</time>
  <course>12.84</course>
  <speed>0.7262231062146123</speed>
  <fix>3d</fix>
</trkpt>
<trkpt lat="33.8102338" lon="-118.3939552">
  <ele>-0.1</ele>
  <time>2026-09-01T01:13:03Z</time>
  <course>49.63</course>
  <speed>0.73</speed>
  <fix>3d</fix>
</trkpt>
<trkpt lat="33.810235" lon="-118.3939531">
  <ele>-0.118</ele>
  <time>2026-09-01T01:13:03Z</time>
  <course>12.85</course>
  <speed>0.7262231062146123</speed>
  <fix>3d</fix>
</trkpt>
<trkpt lat="33.8102346" lon="-118.3939541">
  <ele>-0.1</ele>
  <time>2026-09-01T01:13:03Z</time>
  <course>49.64</course>
  <speed>0.73</speed>
  <fix>3d</fix>
</trkpt>
<trkpt lat="33.8102354" lon="-118.3939524">
  <ele>-0.117</ele>
  <time>2026-09-01T01:13:03Z</time>
  <course>12.85</course>
  <speed>0.7262231062146123</speed>
  <fix>3d</fix>
</trkpt>
<trkpt lat="33.8102346" lon="-118.3939541">
  <ele>-0.1</ele>
  <time>2026-09-01T01:13:03Z</time>
  <course>49.64</course>
  <speed>0.73</speed>
  <fix>3d</fix>
</trkpt>
<trkpt lat="33.8102358" lon="-118.3939518">
  <ele>-0.115</ele>
  <time>2026-09-01T01:13:03Z</time>
  <course>12.86</course>
  <speed>0.7262231062146123</speed>
  <fix>3d</fix>
</trkpt>
<trkpt lat="33.8102355" lon="-118.3939528">
  <ele>-0.1</ele>
  <time>2026-09-01T01:13:03Z</time>
  <course>49.65</course>
  <speed>0.73</speed>
  <fix>3d</fix>
</trkpt>
<trkpt lat="33.8102362" lon="-118.3939512">
  <ele>-0.114</ele>
  <time>2026-09-01T01:13:03Z</time>
  <course>12.86</course>
  <speed>0.7262231062146123</speed>
  <fix>3d</fix>
</trkpt>
<trkpt lat="33.8102355" lon="-118.3939528">
  <ele>-0.1</ele>
  <time>2026-09-01T01:13:03Z</time>
  <course>49.65</course>
  <speed>0.73</speed>
  <fix>3d</fix>
</trkpt>
<trkpt lat="33.8102367" lon="-118.3939506">
  <ele>-0.113</ele>
  <time>2026-09-01T01:13:03Z</time>
  <course>12.87</course>
  <speed>0.7262231062146123</speed>
  <fix>3d</fix>
</trkpt>
<trkpt lat="33.8102363" lon="-118.3939517">
  <ele>-0.1</ele>
  <time>2026-09-01T01:13:03Z</time>
  <course>49.66</course>
  <speed>0.73</speed>
  <fix>3d</fix>
</trkpt>
<trkpt lat="33.8102371" lon="-118.39395">
  <ele>-0.112</ele>
  <time>2026-09-01T01:13:03Z</time>
  <course>12.87</course>
  <speed>0.7262231062146123</speed>
  <fix>3d</fix>
</trkpt>
<trkpt lat="33.8102363" lon="-118.3939517">
  <ele>-0.1</ele>
  <time>2026-09-01T01:13:03Z</time>
  <course>49.66</course>
  <speed>0.73</speed>
  <fix>3d</fix>
</trkpt>
<trkpt lat="33.8102375" lon="-118.3939494">
  <ele>-0.11</ele>
  <time>2026-09-01T01:13:03Z</time>
  <course>12.88</course>
  <speed>0.7262231062146123</speed>
  <fix>3d</fix>
</trkpt>
<trkpt lat="33.8102372" lon="-118.3939505">
  <ele>-0.1</ele>
  <time>2026-09-01T01:13:03Z</time>
  <course>49.67</course>
  <speed>0.73</speed>
  <fix>3d</fix>
</trkpt>
<trkpt lat="33.810238" lon="-118.3939488">
  <ele>-0.109</ele>
  <time>2026-09-01T01:13:03Z</time>
  <course>12.88</course>
  <speed>0.7262231062146123</speed>
  <fix>3d</fix>
</trkpt>
<trkpt lat="33.8102372" lon="-118.3939505">
  <ele>-0.1</ele>
  <time>2026-09-01T01:13:03Z</time>
  <course>49.67</course>
  <speed>0.73</speed>
  <fix>3d</fix>
</trkpt>
<trkpt lat="33.8102384" lon="-118.3939482">
  <ele>-0.109</ele>
  <time>2026-09-01T01:13:03Z</time>
  <course>12.89</course>
  <speed>0.7262231062146123</speed>
  <fix>3d</fix>
</trkpt>
<trkpt lat="33.810238" lon="-118.3939493">
  <ele>-0.1</ele>
  <time>2026-09-01T01:13:03Z</time>
  <course>49.68</course>
  <speed>0.73</speed>
  <fix>3d</fix>
</trkpt>
<trkpt lat="33.8102388" lon="-118.3939476">
  <ele>-0.108</ele>
  <time>2026-09-01T01:13:03Z</time>
  <course>12.89</course>
  <speed>0.7200694410957876</speed>
  <fix>3d</fix>
</trkpt>
<trkpt lat="33.810238" lon="-118.3939493">
  <ele>-0.1</ele>
  <time>2026-09-01T01:13:03Z</time>
  <course>49.68</course>
  <speed>0.73</speed>
  <fix>3d</fix>
</trkpt>
<trkpt lat="33.8102393" lon="-118.393947">
  <ele>-0.108</ele>
  <time>2026-09-01T01:13:03Z</time>
  <course>12.9</course>
  <speed>0.7200694410957876</speed>
  <fix>3d</fix>
</trkpt>
<trkpt lat="33.8102389" lon="-118.3939481">
  <ele>-0.1</ele>
  <time>2026-09-01T01:13:03Z</time>
  <course>49.69</course>
  <speed>0.73</speed>
  <fix>3d</fix>
</trkpt>
<trkpt lat="33.8102397" lon="-118.3939464">
  <ele>-0.108</ele>
  <time>2026-09-01T01:13:03Z</time>
  <course>12.9</course>
  <speed>0.7200694410957876</speed>
  <fix>3d</fix>
</trkpt>
<trkpt lat="33.8102389" lon="-118.3939481">
  <ele>-0.1</ele>
  <time>2026-09-01T01:13:03Z</time>
  <course>49.69</course>
  <speed>0.73</speed>
  <fix>3d</fix>
</trkpt>
<trkpt lat="33.8102401" lon="-118.3939458">
  <ele>-0.108</ele>
  <time>2026-09-01T01:13:03Z</time>
  <course>12.91</course>
  <speed>0.7200694410957876</speed>
  <fix>3d</fix>
</trkpt>
<trkpt lat="33.8102397" lon="-118.3939469">
  <ele>-0.1</ele>
  <time>2026-09-01T01:13:03Z</time>
  <course>49.7</course>
  <speed>0.73</speed>
  <fix>3d</fix>
</trkpt>
<trkpt lat="33.8102405" lon="-118.3939452">
  <ele>-0.109</ele>
  <time>2026-09-01T01:13:03Z</time>
  <course>12.91</course>
  <speed>0.7200694410957876</speed>
  <fix>3d</fix>
</trkpt>
<trkpt lat="33.8102397" lon="-118.3939469">
  <ele>-0.1</ele>
  <time>2026-09-01T01:13:03Z</time>
  <course>49.7</course>
  <speed>0.73</speed>
  <fix>3d</fix>
</trkpt>
<trkpt lat="33.810241" lon="-118.3939446">
  <ele>-0.11</ele>
  <time>2026-09-01T01:13:03Z</time>
  <course>12.92</course>
  <speed>0.7200694410957876</speed>
  <fix>3d</fix>
</trkpt>
<trkpt lat="33.8102406" lon="-118.3939456">
  <ele>-0.1</ele>
  <time>2026-09-01T01:13:03Z</time>
  <course>49.71</course>
  <speed>0.73</speed>
  <fix>3d</fix>
</trkpt>
<trkpt lat="33.8102414" lon="-118.393944">
  <ele>-0.11</ele>
  <time>2026-09-01T01:13:03Z</time>
  <course>12.92</course>
  <speed>0.7200694410957876</speed>
  <fix>3d</fix>
</trkpt>
<trkpt lat="33.8102406" lon="-118.3939456">
  <ele>-0.1</ele>
  <time>2026-09-01T01:13:03Z</time>
  <course>49.71</course>
  <speed>0.73</speed>
  <fix>3d</fix>
</trkpt>
<trkpt lat="33.8102418" lon="-118.3939434">
  <ele>-0.11</ele>
  <time>2026-09-01T01:13:03Z</time>
  <course>12.93</course>
  <speed>0.7200694410957876</speed>
  <fix>3d</fix>
</trkpt>
<trkpt lat="33.8102415" lon="-118.3939443">
  <ele>-0.1</ele>
  <time>2026-09-01T01:13:03Z</time>
  <course>49.72</course>
  <speed>0.73</speed>
  <fix>3d</fix>
</trkpt>
<trkpt lat="33.8102422" lon="-118.3939428">
  <ele>-0.11</ele>
  <time>2026-09-01T01:13:03Z</time>
  <course>12.93</course>
  <speed>0.7200694410957876</speed>
  <fix>3d</fix>
</trkpt>
<trkpt lat="33.8102415" lon="-118.3939443">
  <ele>-0.1</ele>
  <time>2026-09-01T01:13:03Z</time>
  <course>49.72</course>
  <speed>0.73</speed>
  <fix>3d</fix>
</trkpt>
<trkpt lat="33.8102427" lon="-118.3939422">
  <ele>-0.109</ele>
  <time>2026-09-01T01:13:03Z</time>
  <course>12.94</course>
  <speed>0.7200694410957876</speed>
  <fix>3d</fix>
</trkpt>
<trkpt lat="33.8102423" lon="-118.3939432">
  <ele>-0.1</ele>
  <time>2026-09-01T01:13:03Z</time>
  <course>49.73</course>
  <speed>0.73</speed>
  <fix>3d</fix>
</trkpt>
<trkpt lat="33.8102431" lon="-118.3939415">
  <ele>-0.11</ele>
  <time>2026-09-01T01:13:03Z</time>
  <course>12.94</course>
  <speed>0.7200694410957876</speed>
  <fix>3d</fix>
</trkpt>
<trkpt lat="33.8102423" lon="-118.3939432">
  <ele>-0.1</ele>
  <time>2026-09-01T01:13:03Z</time>
  <course>49.73</course>
  <speed>0.73</speed>
  <fix>3d</fix>
</trkpt>
<trkpt lat="33.8102435" lon="-118.3939409">
  <ele>-0.111</ele>
  <time>2026-09-01T01:13:03Z</time>
  <course>12.95</course>
  <speed>0.7200694410957876</speed>
  <fix>3d</fix>
</trkpt>
<trkpt lat="33.8102432" lon="-118.3939419">
  <ele>-0.1</ele>
  <time>2026-09-01T01:13:03Z</time>
  <course>49.74</course>
  <speed>0.73</speed>
  <fix>3d</fix>
</trkpt>
<trkpt lat="33.810244" lon="-118.3939403">
  <ele>-0.112</ele>
  <time>2026-09-01T01:13:03Z</time>
  <course>12.95</course>
  <speed>0.7200694410957876</speed>
  <fix>3d</fix>
</trkpt>
<trkpt lat="33.8102432" lon="-118.3939419">
  <ele>-0.1</ele>
  <time>2026-09-01T01:13:03Z</time>
  <course>49.74</course>
  <speed>0.73</speed>
  <fix>3d</fix>
</trkpt>
<trkpt lat="33.8102444" lon="-118.3939397">
  <ele>-0.111</ele>
  <time>2026-09-01T01:13:03Z</time>
  <course>12.95</course>
  <speed>0.7200694410957876</speed>
  <fix>3d</fix>
</trkpt>
<trkpt lat="33.810244" lon="-118.3939408">
  <ele>-0.1</ele>
  <time>2026-09-01T01:13:03Z</time>
  <course>49.75</course>
  <speed>0.73</speed>
  <fix>3d</fix>
</trkpt>
<trkpt lat="33.8102448" lon="-118.3939391">
  <ele>-0.11</ele>
  <time>2026-09-01T01:13:03Z</time>
  <course>12.96</course>
  <speed>0.7200694410957876</speed>
  <fix>3d</fix>
</trkpt>
<trkpt lat="33.810244" lon="-118.3939408">
  <ele>-0.1</ele>
  <time>2026-09-01T01:13:03Z</time>
  <course>49.75</course>
  <speed>0.73</speed>
  <fix>3d</fix>
</trkpt>
<trkpt lat="33.8102452" lon="-118.3939385">
  <ele>-0.11</ele>
  <time>2026-09-01T01:13:03Z</time>
  <course>12.96</course>
  <speed>0.7200694410957876</speed>
  <fix>3d</fix>
</trkpt>
<trkpt lat="33.8102449" lon="-118.3939395">
  <ele>-0.1</ele>
  <time>2026-09-01T01:13:03Z</time>
  <course>49.76</course>
  <speed>0.73</speed>
  <fix>3d</fix>
</trkpt>
<trkpt lat="33.8102457" lon="-118.3939379">
  <ele>-0.108</ele>
  <time>2026-09-01T01:13:03Z</time>
  <course>12.97</course>
  <speed>0.7200694410957876</speed>
  <fix>3d</fix>
</trkpt>
<trkpt lat="33.8102449" lon="-118.3939395">
  <ele>-0.1</ele>
  <time>2026-09-01T01:13:03Z</time>
  <course>49.76</course>
  <speed>0.73</speed>
  <fix>3d</fix>
</trkpt>
<trkpt lat="33.8102461" lon="-118.3939373">
  <ele>-0.107</ele>
  <time>2026-09-01T01:13:03Z</time>
  <course>12.97</course>
  <speed>0.7200694410957876</speed>
  <fix>3d</fix>
</trkpt>
<trkpt lat="33.8102457" lon="-118.3939384">
  <ele>-0.1</ele>
  <time>2026-09-01T01:13:03Z</time>
  <course>49.77</course>
  <speed>0.73</speed>
  <fix>3d</fix>
</trkpt>
<trkpt lat="33.8102465" lon="-118.3939367">
  <ele>-0.108</ele>
  <time>2026-09-01T01:13:03Z</time>
  <course>12.98</course>
  <speed>0.7200694410957876</speed>
  <fix>3d</fix>
</trkpt>
<trkpt lat="33.8102457" lon="-118.3939384">
  <ele>-0.1</ele>
  <time>2026-09-01T01:13:03Z</time>
  <course>49.77</course>
  <speed>0.73</speed>
  <fix>3d</fix>
</trkpt>
<trkpt lat="33.810247" lon="-118.3939361">
  <ele>-0.108</ele>
  <time>2026-09-01T01:13:03Z</time>
  <course>12.98</course>
  <speed>0.7200694410957876</speed>
  <fix>3d</fix>
</trkpt>
<trkpt lat="33.8102466" lon="-118.3939371">
  <ele>-0.1</ele>
  <time>2026-09-01T01:13:03Z</time>
  <course>49.77</course>
  <speed>0.73</speed>
  <fix>3d</fix>
</trkpt>
<trkpt lat="33.8102474" lon="-118.3939355">
  <ele>-0.11</ele>
  <time>2026-09-01T01:13:03Z</time>
  <course>12.99</course>
  <speed>0.7200694410957876</speed>
  <fix>3d</fix>
</trkpt>
<trkpt lat="33.8102466" lon="-118.3939371">
  <ele>-0.1</ele>
  <time>2026-09-01T01:13:03Z</time>
  <course>49.77</course>
  <speed>0.73</speed>
  <fix>3d</fix>
</trkpt>
<trkpt lat="33.8102478" lon="-118.3939349">
  <ele>-0.111</ele>
  <time>2026-09-01T01:13:03Z</time>
  <course>12.99</course>
  <speed>0.7200694410957876</speed>
  <fix>3d</fix>
</trkpt>
<trkpt lat="33.8102474" lon="-118.3939359">
  <ele>-0.1</ele>
  <time>2026-09-01T01:13:03Z</time>
  <course>49.78</course>
  <speed>0.73</speed>
  <fix>3d</fix>
</trkpt>
<trkpt lat="33.8102482" lon="-118.3939342">
  <ele>-0.112</ele>
  <time>2026-09-01T01:13:03Z</time>
  <course>13.0</course>
  <speed>0.7200694410957876</speed>
  <fix>3d</fix>
</trkpt>
<trkpt lat="33.8102474" lon="-118.3939359">
  <ele>-0.1</ele>
  <time>2026-09-01T01:13:03Z</time>
  <course>49.78</course>
  <speed>0.73</speed>
  <fix>3d</fix>
</trkpt>
<trkpt lat="33.8102487" lon="-118.3939336">
  <ele>-0.113</ele>
  <time>2026-09-01T01:13:03Z</time>
  <course>13.0</course>
  <speed>0.7200694410957876</speed>
  <fix>3d</fix>
</trkpt>
<trkpt lat="33.8102483" lon="-118.3939347">
  <ele>-0.1</ele>
  <time>2026-09-01T01:13:03Z</time>
  <course>49.79</course>
  <speed>0.73</speed>
  <fix>3d</fix>
</trkpt>
<trkpt lat="33.8102491" lon="-118.393933">
  <ele>-0.113</ele>
  <time>2026-09-01T01:13:03Z</time>
  <course>13.01</course>
  <speed>0.7200694410957876</speed>
  <fix>3d</fix>
</trkpt>
<trkpt lat="33.8102483" lon="-118.3939347">
  <ele>-0.1</ele>
  <time>2026-09-01T01:13:03Z</time>
  <course>49.79</course>
  <speed>0.73</speed>
  <fix>3d</fix>
</trkpt>
<trkpt lat="33.8102495" lon="-118.3939324">
  <ele>-0.114</ele>
  <time>2026-09-01T01:13:03Z</time>
  <course>13.01</course>
  <speed>0.7200694410957876</speed>
  <fix>3d</fix>
</trkpt>
<trkpt lat="33.8102491" lon="-118.3939335">
  <ele>-0.1</ele>
  <time>2026-09-01T01:13:03Z</time>
  <course>49.8</course>
  <speed>0.73</speed>
  <fix>3d</fix>
</trkpt>
<trkpt lat="33.8102499" lon="-118.3939318">
  <ele>-0.115</ele>
  <time>2026-09-01T01:13:03Z</time>
  <course>13.02</course>
  <speed>0.7200694410957876</speed>
  <fix>3d</fix>
</trkpt>
<trkpt lat="33.8102491" lon="-118.3939335">
  <ele>-0.1</ele>
  <time>2026-09-01T01:13:03Z</time>
  <course>49.8</course>
  <speed>0.73</speed>
  <fix>3d</fix>
</trkpt>
<trkpt lat="33.8102504" lon="-118.3939312">
  <ele>-0.117</ele>
  <time>2026-09-01T01:13:03Z</time>
  <course>13.02</course>
  <speed>0.7200694410957876</speed>
  <fix>3d</fix>
</trkpt>
<trkpt lat="33.8102499" lon="-118.3939323">
  <ele>-0.1</ele>
  <time>2026-09-01T01:13:03Z</time>
  <course>49.81</course>
  <speed>0.73</speed>
  <fix>3d</fix>
</trkpt>
<trkpt lat="33.8102508" lon="-118.3939306">
  <ele>-0.117</ele>
  <time>2026-09-01T01:13:03Z</time>
  <course>13.03</course>
  <speed>0.7200694410957876</speed>
  <fix>3d</fix>
</trkpt>
<trkpt lat="33.8102499" lon="-118.3939323">
  <ele>-0.1</ele>
  <time>2026-09-01T01:13:03Z</time>
  <course>49.81</course>
  <speed>0.73</speed>
  <fix>3d</fix>
</trkpt>
<trkpt lat="33.8102512" lon="-118.39393">
  <ele>-0.116</ele>
  <time>2026-09-01T01:13:03Z</time>
  <course>13.03</course>
  <speed>0.7200694410957876</speed>
  <fix>3d</fix>
</trkpt>
<trkpt lat="33.8102508" lon="-118.3939311">
  <ele>-0.1</ele>
  <time>2026-09-01T01:13:03Z</time>
  <course>49.82</course>
  <speed>0.73</speed>
  <fix>3d</fix>
</trkpt>
<trkpt lat="33.8102516" lon="-118.3939294">
  <ele>-0.117</ele>
  <time>2026-09-01T01:13:03Z</time>
  <course>13.04</course>
  <speed>0.7200694410957876</speed>
  <fix>3d</fix>
</trkpt>
<trkpt lat="33.8102508" lon="-118.3939311">
  <ele>-0.1</ele>
  <time>2026-09-01T01:13:03Z</time>
  <course>49.82</course>
  <speed>0.73</speed>
  <fix>3d</fix>
</trkpt>
<trkpt lat="33.810252" lon="-118.3939288">
  <ele>-0.118</ele>
  <time>2026-09-01T01:13:03Z</time>
  <course>13.04</course>
  <speed>0.7200694410957876</speed>
  <fix>3d</fix>
</trkpt>
<trkpt lat="33.8102516" lon="-118.3939299">
  <ele>-0.1</ele>
  <time>2026-09-01T01:13:03Z</time>
  <course>49.83</course>
  <speed>0.73</speed>
  <fix>3d</fix>
</trkpt>
<trkpt lat="33.8102525" lon="-118.3939282">
  <ele>-0.119</ele>
  <time>2026-09-01T01:13:03Z</time>
  <course>13.04</course>
  <speed>0.7200694410957876</speed>
  <fix>3d</fix>
</trkpt>
<trkpt lat="33.8102516" lon="-118.3939299">
  <ele>-0.1</ele>
  <time>2026-09-01T01:13:03Z</time>
  <course>49.83</course>
  <speed>0.73</speed>
  <fix>3d</fix>
</trkpt>
<trkpt lat="33.8102529" lon="-118.3939276">
  <ele>-0.119</ele>
  <time>2026-09-01T01:13:03Z</time>
  <course>13.05</course>
  <speed>0.7200694410957876</speed>
  <fix>3d</fix>
</trkpt>
<trkpt lat="33.8102525" lon="-118.3939286">
  <ele>-0.1</ele>
  <time>2026-09-01T01:13:03Z</time>
  <course>49.84</course>
  <speed>0.73</speed>
  <fix>3d</fix>
</trkpt>
<trkpt lat="33.8102533" lon="-118.393927">
  <ele>-0.118</ele>
  <time>2026-09-01T01:13:03Z</time>
  <course>13.05</course>
  <speed>0.7200694410957876</speed>
  <fix>3d</fix>
</trkpt>
<trkpt lat="33.8102525" lon="-118.3939286">
  <ele>-0.1</ele>
  <time>2026-09-01T01:13:03Z</time>
  <course>49.84</course>
  <speed>0.73</speed>
  <fix>3d</fix>
</trkpt>
<trkpt lat="33.8102537" lon="-118.3939264">
  <ele>-0.118</ele>
  <time>2026-09-01T01:13:03Z</time>
  <course>13.06</course>
  <speed>0.7200694410957876</speed>
  <fix>3d</fix>
</trkpt>
<trkpt lat="33.8102533" lon="-118.3939274">
  <ele>-0.1</ele>
  <time>2026-09-01T01:13:03Z</time>
  <course>49.85</course>
  <speed>0.73</speed>
  <fix>3d</fix>
</trkpt>
<trkpt lat="33.8102541" lon="-118.3939258">
  <ele>-0.118</ele>
  <time>2026-09-01T01:13:03Z</time>
  <course>13.06</course>
  <speed>0.7200694410957876</speed>
  <fix>3d</fix>
</trkpt>
<trkpt lat="33.8102533" lon="-118.3939274">
  <ele>-0.1</ele>
  <time>2026-09-01T01:13:03Z</time>
  <course>49.85</course>
  <speed>0.73</speed>
  <fix>3d</fix>
</trkpt>
<trkpt lat="33.8102546" lon="-118.3939252">
  <ele>-0.117</ele>
  <time>2026-09-01T01:13:03Z</time>
  <course>13.07</course>
  <speed>0.7200694410957876</speed>
  <fix>3d</fix>
</trkpt>
<trkpt lat="33.8102542" lon="-118.3939261">
  <ele>-0.1</ele>
  <time>2026-09-01T01:13:03Z</time>
  <course>49.86</course>
  <speed>0.73</speed>
  <fix>3d</fix>
</trkpt>
<trkpt lat="33.810255" lon="-118.3939245">
  <ele>-0.116</ele>
  <time>2026-09-01T01:13:03Z</time>
  <course>13.07</course>
  <speed>0.7200694410957876</speed>
  <fix>3d</fix>
</trkpt>
<trkpt lat="33.8102542" lon="-118.3939261">
  <ele>-0.1</ele>
  <time>2026-09-01T01:13:03Z</time>
  <course>49.86</course>
  <speed>0.73</speed>
  <fix>3d</fix>
</trkpt>
<trkpt lat="33.8102554" lon="-118.3939239">
  <ele>-0.115</ele>
  <time>2026-09-01T01:13:03Z</time>
  <course>13.08</course>
  <speed>0.7200694410957876</speed>
  <fix>3d</fix>
</trkpt>
<trkpt lat="33.8102551" lon="-118.393925">
  <ele>-0.1</ele>
  <time>2026-09-01T01:13:03Z</time>
  <course>49.87</course>
  <speed>0.73</speed>
  <fix>3d</fix>
</trkpt>
<trkpt lat="33.8102558" lon="-118.3939233">
  <ele>-0.115</ele>
  <time>2026-09-01T01:13:03Z</time>
  <course>13.08</course>
  <speed>0.7200694410957876</speed>
  <fix>3d</fix>
</trkpt>
<trkpt lat="33.8102551" lon="-118.393925">
  <ele>-0.1</ele>
  <time>2026-09-01T01:13:03Z</time>
  <course>49.87</course>
  <speed>0.73</speed>
  <fix>3d</fix>
</trkpt>
<trkpt lat="33.8102563" lon="-118.3939227">
  <ele>-0.113</ele>
  <time>2026-09-01T01:13:03Z</time>
  <course>13.09</course>
  <speed>0.7200694410957876</speed>
  <fix>3d</fix>
</trkpt>
<trkpt lat="33.8102559" lon="-118.3939237">
  <ele>-0.11</ele>
  <time>2026-09-01T01:13:03Z</time>
  <course>49.87</course>
  <speed>0.73</speed>
  <fix>3d</fix>
</trkpt>
<trkpt lat="33.8102567" lon="-118.3939221">
  <ele>-0.111</ele>
  <time>2026-09-01T01:13:03Z</time>
  <course>13.09</course>
  <speed>0.7200694410957876</speed>
  <fix>3d</fix>
</trkpt>
<trkpt lat="33.8102559" lon="-118.3939237">
  <ele>-0.11</ele>
  <time>2026-09-01T01:13:03Z</time>
  <course>49.87</course>
  <speed>0.73</speed>
  <fix>3d</fix>
</trkpt>
<trkpt lat="33.8102571" lon="-118.3939215">
  <ele>-0.108</ele>
  <time>2026-09-01T01:13:03Z</time>
  <course>13.09</course>
  <speed>0.7200694410957876</speed>
  <fix>3d</fix>
</trkpt>
<trkpt lat="33.8102568" lon="-118.3939226">
  <ele>-0.1</ele>
  <time>2026-09-01T01:13:03Z</time>
  <course>49.88</course>
  <speed>0.73</speed>
  <fix>3d</fix>
</trkpt>
<trkpt lat="33.8102575" lon="-118.3939209">
  <ele>-0.106</ele>
  <time>2026-09-01T01:13:03Z</time>
  <course>13.1</course>
  <speed>0.7200694410957876</speed>
  <fix>3d</fix>
</trkpt>
<trkpt lat="33.8102568" lon="-118.3939226">
  <ele>-0.1</ele>
  <time>2026-09-01T01:13:03Z</time>
  <course>49.88</course>
  <speed>0.73</speed>
  <fix>3d</fix>
</trkpt>
<trkpt lat="33.810258" lon="-118.3939203">
  <ele>-0.105</ele>
  <time>2026-09-01T01:13:03Z</time>
  <course>13.1</course>
  <speed>0.7200694410957876</speed>
  <fix>3d</fix>
</trkpt>
<trkpt lat="33.8102576" lon="-118.3939213">
  <ele>-0.1</ele>
  <time>2026-09-01T01:13:03Z</time>
  <course>49.89</course>
  <speed>0.73</speed>
  <fix>3d</fix>
</trkpt>
<trkpt lat="33.8102584" lon="-118.3939197">
  <ele>-0.104</ele>
  <time>2026-09-01T01:13:03Z</time>
  <course>13.11</course>
  <speed>0.7200694410957876</speed>
  <fix>3d</fix>
</trkpt>
<trkpt lat="33.8102576" lon="-118.3939213">
  <ele>-0.1</ele>
  <time>2026-09-01T01:13:03Z</time>
  <course>49.89</course>
  <speed>0.73</speed>
  <fix>3d</fix>
</trkpt>
<trkpt lat="33.8102588" lon="-118.3939191">
  <ele>-0.104</ele>
  <time>2026-09-01T01:13:03Z</time>
  <course>13.11</course>
  <speed>0.7200694410957876</speed>
  <fix>3d</fix>
</trkpt>
<trkpt lat="33.8102585" lon="-118.3939201">
  <ele>-0.1</ele>
  <time>2026-09-01T01:13:03Z</time>
  <course>49.9</course>
  <speed>0.73</speed>
  <fix>3d</fix>
</trkpt>
<trkpt lat="33.8102593" lon="-118.3939184">
  <ele>-0.105</ele>
  <time>2026-09-01T01:13:03Z</time>
  <course>13.12</course>
  <speed>0.7200694410957876</speed>
  <fix>3d</fix>
</trkpt>
<trkpt lat="33.8102585" lon="-118.3939201">
  <ele>-0.1</ele>
  <time>2026-09-01T01:13:03Z</time>
  <course>49.9</course>
  <speed>0.73</speed>
  <fix>3d</fix>
</trkpt>
<trkpt lat="33.8102597" lon="-118.3939178">
  <ele>-0.106</ele>
  <time>2026-09-01T01:13:03Z</time>
  <course>13.12</course>
  <speed>0.7200694410957876</speed>
  <fix>3d</fix>
</trkpt>
<trkpt lat="33.8102593" lon="-118.3939189">
  <ele>-0.1</ele>
  <time>2026-09-01T01:13:03Z</time>
  <course>49.91</course>
  <speed>0.73</speed>
  <fix>3d</fix>
</trkpt>
<trkpt lat="33.8102601" lon="-118.3939172">
  <ele>-0.107</ele>
  <time>2026-09-01T01:13:03Z</time>
  <course>13.13</course>
  <speed>0.7200694410957876</speed>
  <fix>3d</fix>
</trkpt>
<trkpt lat="33.8102593" lon="-118.3939189">
  <ele>-0.1</ele>
  <time>2026-09-01T01:13:03Z</time>
  <course>49.91</course>
  <speed>0.73</speed>
  <fix>3d</fix>
</trkpt>
<trkpt lat="33.8102605" lon="-118.3939166">
  <ele>-0.108</ele>
  <time>2026-09-01T01:13:03Z</time>
  <course>13.13</course>
  <speed>0.7200694410957876</speed>
  <fix>3d</fix>
</trkpt>
<trkpt lat="33.8102602" lon="-118.3939177">
  <ele>-0.11</ele>
  <time>2026-09-01T01:13:03Z</time>
  <course>49.92</course>
  <speed>0.73</speed>
  <fix>3d</fix>
</trkpt>
<trkpt lat="33.810261" lon="-118.393916">
  <ele>-0.109</ele>
  <time>2026-09-01T01:13:03Z</time>
  <course>13.13</course>
  <speed>0.7200694410957876</speed>
  <fix>3d</fix>
</trkpt>
<trkpt lat="33.8102602" lon="-118.3939177">
  <ele>-0.11</ele>
  <time>2026-09-01T01:13:03Z</time>
  <course>49.92</course>
  <speed>0.73</speed>
  <fix>3d</fix>
</trkpt>
<trkpt lat="33.8102614" lon="-118.3939154">
  <ele>-0.11</ele>
  <time>2026-09-01T01:13:03Z</time>
  <course>13.14</course>
  <speed>0.7200694410957876</speed>
  <fix>3d</fix>
</trkpt>
<trkpt lat="33.8102611" lon="-118.3939165">
  <ele>-0.1</ele>
  <time>2026-09-01T01:13:03Z</time>
  <course>49.93</course>
  <speed>0.73</speed>
  <fix>3d</fix>
</trkpt>
<trkpt lat="33.8102618" lon="-118.3939148">
  <ele>-0.11</ele>
  <time>2026-09-01T01:13:03Z</time>
  <course>13.14</course>
  <speed>0.7200694410957876</speed>
  <fix>3d</fix>
</trkpt>
<trkpt lat="33.8102611" lon="-118.3939165">
  <ele>-0.1</ele>
  <time>2026-09-01T01:13:03Z</time>
  <course>49.93</course>
  <speed>0.73</speed>
  <fix>3d</fix>
</trkpt>
<trkpt lat="33.8102622" lon="-118.3939142">
  <ele>-0.11</ele>
  <time>2026-09-01T01:13:03Z</time>
  <course>13.15</course>
  <speed>0.7200694410957876</speed>
  <fix>3d</fix>
</trkpt>
<trkpt lat="33.8102619" lon="-118.3939153">
  <ele>-0.1</ele>
  <time>2026-09-01T01:13:03Z</time>
  <course>49.94</course>
  <speed>0.73</speed>
  <fix>3d</fix>
</trkpt>
<trkpt lat="33.8102627" lon="-118.3939136">
  <ele>-0.109</ele>
  <time>2026-09-01T01:13:03Z</time>
  <course>13.15</course>
  <speed>0.7200694410957876</speed>
  <fix>3d</fix>
</trkpt>
<trkpt lat="33.8102619" lon="-118.3939153">
  <ele>-0.1</ele>
  <time>2026-09-01T01:13:03Z</time>
  <course>49.94</course>
  <speed>0.73</speed>
  <fix>3d</fix>
</trkpt>
<trkpt lat="33.8102631" lon="-118.393913">
  <ele>-0.108</ele>
  <time>2026-09-01T01:13:03Z</time>
  <course>13.16</course>
  <speed>0.7200694410957876</speed>
  <fix>3d</fix>
</trkpt>
<trkpt lat="33.8102628" lon="-118.393914">
  <ele>-0.1</ele>
  <time>2026-09-01T01:13:03Z</time>
  <course>49.95</course>
  <speed>0.73</speed>
  <fix>3d</fix>
</trkpt>
<trkpt lat="33.8102635" lon="-118.3939124">
  <ele>-0.106</ele>
  <time>2026-09-01T01:13:03Z</time>
  <course>13.16</course>
  <speed>0.7200694410957876</speed>
  <fix>3d</fix>
</trkpt>
<trkpt lat="33.8102628" lon="-118.393914">
  <ele>-0.1</ele>
  <time>2026-09-01T01:13:03Z</time>
  <course>49.95</course>
  <speed>0.73</speed>
  <fix>3d</fix>
</trkpt>
<trkpt lat="33.8102639" lon="-118.3939118">
  <ele>-0.106</ele>
  <time>2026-09-01T01:13:03Z</time>
  <course>13.16</course>
  <speed>0.7200694410957876</speed>
  <fix>3d</fix>
</trkpt>
<trkpt lat="33.8102636" lon="-118.3939127">
  <ele>-0.1</ele>
  <time>2026-09-01T01:13:03Z</time>
  <course>49.95</course>
  <speed>0.73</speed>
  <fix>3d</fix>
</trkpt>
<trkpt lat="33.8102644" lon="-118.3939112">
  <ele>-0.106</ele>
  <time>2026-09-01T01:13:03Z</time>
  <course>13.17</course>
  <speed>0.7200694410957876</speed>
  <fix>3d</fix>
</trkpt>
<trkpt lat="33.8102636" lon="-118.3939127">
  <ele>-0.1</ele>
  <time>2026-09-01T01:13:03Z</time>
  <course>49.95</course>
  <speed>0.73</speed>
  <fix>3d</fix>
</trkpt>
<trkpt lat="33.8102648" lon="-118.3939106">
  <ele>-0.105</ele>
  <time>2026-09-01T01:13:03Z</time>
  <course>13.17</course>
  <speed>0.7200694410957876</speed>
  <fix>3d</fix>
</trkpt>
<trkpt lat="33.8102645" lon="-118.3939116">
  <ele>-0.11</ele>
  <time>2026-09-01T01:13:03Z</time>
  <course>49.96</course>
  <speed>0.73</speed>
  <fix>3d</fix>
</trkpt>
<trkpt lat="33.8102652" lon="-118.3939099">
  <ele>-0.104</ele>
  <time>2026-09-01T01:13:03Z</time>
  <course>13.18</course>
  <speed>0.7200694410957876</speed>
  <fix>3d</fix>
</trkpt>
<trkpt lat="33.8102645" lon="-118.3939116">
  <ele>-0.11</ele>
  <time>2026-09-01T01:13:03Z</time>
  <course>49.96</course>
  <speed>0.73</speed>
  <fix>3d</fix>
</trkpt>
<trkpt lat="33.8102656" lon="-118.3939093">
  <ele>-0.102</ele>
  <time>2026-09-01T01:13:03Z</time>
  <course>13.18</course>
  <speed>0.7200694410957876</speed>
  <fix>3d</fix>
</trkpt>
<trkpt lat="33.8102653" lon="-118.3939103">
  <ele>-0.1</ele>
  <time>2026-09-01T01:13:03Z</time>
  <course>49.97</course>
  <speed>0.73</speed>
  <fix>3d</fix>
</trkpt>
<trkpt lat="33.8102661" lon="-118.3939087">
  <ele>-0.1</ele>
  <time>2026-09-01T01:13:03Z</time>
  <course>13.19</course>
  <speed>0.7200694410957876</speed>
  <fix>3d</fix>
</trkpt>
<trkpt lat="33.8102653" lon="-118.3939103">
  <ele>-0.1</ele>
  <time>2026-09-01T01:13:03Z</time>
  <course>49.97</course>
  <speed>0.73</speed>
  <fix>3d</fix>
</trkpt>
<trkpt lat="33.8102665" lon="-118.3939081">
  <ele>-0.099</ele>
  <time>2026-09-01T01:13:03Z</time>
  <course>13.19</course>
  <speed>0.7200694410957876</speed>
  <fix>3d</fix>
</trkpt>
<trkpt lat="33.8102662" lon="-118.3939092">
  <ele>-0.1</ele>
  <time>2026-09-01T01:13:03Z</time>
  <course>49.98</course>
  <speed>0.73</speed>
  <fix>3d</fix>
</trkpt>
<trkpt lat="33.8102669" lon="-118.3939075">
  <ele>-0.099</ele>
  <time>2026-09-01T01:13:03Z</time>
  <course>13.19</course>
  <speed>0.7200694410957876</speed>
  <fix>3d</fix>
</trkpt>
<trkpt lat="33.8102662" lon="-118.3939092">
  <ele>-0.1</ele>
  <time>2026-09-01T01:13:03Z</time>
  <course>49.98</course>
  <speed>0.73</speed>
  <fix>3d</fix>
</trkpt>
<trkpt lat="33.8102673" lon="-118.3939069">
  <ele>-0.099</ele>
  <time>2026-09-01T01:13:03Z</time>
  <course>13.2</course>
  <speed>0.7200694410957876</speed>
  <fix>3d</fix>
</trkpt>
<trkpt lat="33.8102669" lon="-118.3939079">
  <ele>-0.1</ele>
  <time>2026-09-01T01:13:03Z</time>
  <course>49.99</course>
  <speed>0.73</speed>
  <fix>3d</fix>
</trkpt>
<trkpt lat="33.8102678" lon="-118.3939063">
  <ele>-0.099</ele>
  <time>2026-09-01T01:13:03Z</time>
  <course>13.2</course>
  <speed>0.7200694410957876</speed>
  <fix>3d</fix>
</trkpt>
<trkpt lat="33.8102669" lon="-118.3939079">
  <ele>-0.1</ele>
  <time>2026-09-01T01:13:03Z</time>
  <course>49.99</course>
  <speed>0.73</speed>
  <fix>3d</fix>
</trkpt>
<trkpt lat="33.8102682" lon="-118.3939057">
  <ele>-0.099</ele>
  <time>2026-09-01T01:13:03Z</time>
  <course>13.21</course>
  <speed>0.7200694410957876</speed>
  <fix>3d</fix>
</trkpt>
<trkpt lat="33.8102678" lon="-118.3939067">
  <ele>-0.1</ele>
  <time>2026-09-01T01:13:03Z</time>
  <course>50.0</course>
  <speed>0.73</speed>
  <fix>3d</fix>
</trkpt>
<trkpt lat="33.8102686" lon="-118.3939051">
  <ele>-0.1</ele>
  <time>2026-09-01T01:13:03Z</time>
  <course>13.21</course>
  <speed>0.7200694410957876</speed>
  <fix>3d</fix>
</trkpt>
<trkpt lat="33.8102678" lon="-118.3939067">
  <ele>-0.1</ele>
  <time>2026-09-01T01:13:03Z</time>
  <course>50.0</course>
  <speed>0.73</speed>
  <fix>3d</fix>
</trkpt>
<trkpt lat="33.810269" lon="-118.3939045">
  <ele>-0.101</ele>
  <time>2026-09-01T01:13:03Z</time>
  <course>13.22</course>
  <speed>0.7200694410957876</speed>
  <fix>3d</fix>
</trkpt>
<trkpt lat="33.8102686" lon="-118.3939055">
  <ele>-0.11</ele>
  <time>2026-09-01T01:13:03Z</time>
  <course>50.01</course>
  <speed>0.73</speed>
  <fix>3d</fix>
</trkpt>
<trkpt lat="33.8102694" lon="-118.3939039">
  <ele>-0.103</ele>
  <time>2026-09-01T01:13:03Z</time>
  <course>13.22</course>
  <speed>0.7200694410957876</speed>
  <fix>3d</fix>
</trkpt>
<trkpt lat="33.8102686" lon="-118.3939055">
  <ele>-0.11</ele>
  <time>2026-09-01T01:13:03Z</time>
  <course>50.01</course>
  <speed>0.73</speed>
  <fix>3d</fix>
</trkpt>
<trkpt lat="33.8102699" lon="-118.3939033">
  <ele>-0.105</ele>
  <time>2026-09-01T01:13:03Z</time>
  <course>13.22</course>
  <speed>0.7200694410957876</speed>
  <fix>3d</fix>
</trkpt>
<trkpt lat="33.8102695" lon="-118.3939043">
  <ele>-0.1</ele>
  <time>2026-09-01T01:13:03Z</time>
  <course>50.01</course>
  <speed>0.73</speed>
  <fix>3d</fix>
</trkpt>
<trkpt lat="33.8102703" lon="-118.3939027">
  <ele>-0.107</ele>
  <time>2026-09-01T01:13:03Z</time>
  <course>13.23</course>
  <speed>0.7200694410957876</speed>
  <fix>3d</fix>
</trkpt>
<trkpt lat="33.8102695" lon="-118.3939043">
  <ele>-0.1</ele>
  <time>2026-09-01T01:13:03Z</time>
  <course>50.01</course>
  <speed>0.73</speed>
  <fix>3d</fix>
</trkpt>
<trkpt lat="33.8102707" lon="-118.3939021">
  <ele>-0.108</ele>
  <time>2026-09-01T01:13:03Z</time>
  <course>13.23</course>
  <speed>0.7200694410957876</speed>
  <fix>3d</fix>
</trkpt>
<trkpt lat="33.8102703" lon="-118.3939031">
  <ele>-0.1</ele>
  <time>2026-09-01T01:13:03Z</time>
  <course>50.02</course>
  <speed>0.73</speed>
  <fix>3d</fix>
</trkpt>
<trkpt lat="33.8102711" lon="-118.3939014">
  <ele>-0.11</ele>
  <time>2026-09-01T01:13:03Z</time>
  <course>13.24</course>
  <speed>0.7200694410957876</speed>
  <fix>3d</fix>
</trkpt>
<trkpt lat="33.8102703" lon="-118.3939031">
  <ele>-0.1</ele>
  <time>2026-09-01T01:13:03Z</time>
  <course>50.02</course>
  <speed>0.73</speed>
  <fix>3d</fix>
</trkpt>
<trkpt lat="33.8102715" lon="-118.3939008">
  <ele>-0.111</ele>
  <time>2026-09-01T01:13:03Z</time>
  <course>13.24</course>
  <speed>0.7200694410957876</speed>
  <fix>3d</fix>
</trkpt>
<trkpt lat="33.8102712" lon="-118.3939019">
  <ele>-0.1</ele>
  <time>2026-09-01T01:13:03Z</time>
  <course>50.03</course>
  <speed>0.73</speed>
  <fix>3d</fix>
</trkpt>
<trkpt lat="33.810272" lon="-118.3939002">
  <ele>-0.113</ele>
  <time>2026-09-01T01:13:03Z</time>
  <course>13.25</course>
  <speed>0.7200694410957876</speed>
  <fix>3d</fix>
</trkpt>
<trkpt lat="33.8102712" lon="-118.3939019">
  <ele>-0.1</ele>
  <time>2026-09-01T01:13:03Z</time>
  <course>50.03</course>
  <speed>0.73</speed>
  <fix>3d</fix>
</trkpt>
<trkpt lat="33.8102724" lon="-118.3938996">
  <ele>-0.114</ele>
  <time>2026-09-01T01:13:03Z</time>
  <course>13.25</course>
  <speed>0.7200694410957876</speed>
  <fix>3d</fix>
</trkpt>
<trkpt lat="33.8102721" lon="-118.3939007">
  <ele>-0.1</ele>
  <time>2026-09-01T01:13:03Z</time>
  <course>50.04</course>
  <speed>0.73</speed>
  <fix>3d</fix>
</trkpt>
<trkpt lat="33.8102728" lon="-118.393899">
  <ele>-0.115</ele>
  <time>2026-09-01T01:13:03Z</time>
  <course>13.25</course>
  <speed>0.7200694410957876</speed>
  <fix>3d</fix>
</trkpt>
<trkpt lat="33.8102721" lon="-118.3939007">
  <ele>-0.1</ele>
  <time>2026-09-01T01:13:03Z</time>
  <course>50.04</course>
  <speed>0.73</speed>
  <fix>3d</fix>
</trkpt>
<trkpt lat="33.8102732" lon="-118.3938984">
  <ele>-0.115</ele>
  <time>2026-09-01T01:13:03Z</time>
  <course>13.26</course>
  <speed>0.7200694410957876</speed>
  <fix>3d</fix>
</trkpt>
<trkpt lat="33.8102729" lon="-118.3938994">
  <ele>-0.11</ele>
  <time>2026-09-01T01:13:03Z</time>
  <course>50.05</course>
  <speed>0.73</speed>
  <fix>3d</fix>
</trkpt>
<trkpt lat="33.8102736" lon="-118.3938978">
  <ele>-0.115</ele>
  <time>2026-09-01T01:13:03Z</time>
  <course>13.26</course>
  <speed>0.7200694410957876</speed>
  <fix>3d</fix>
</trkpt>
<trkpt lat="33.8102729" lon="-118.3938994">
  <ele>-0.11</ele>
  <time>2026-09-01T01:13:03Z</time>
  <course>50.05</course>
  <speed>0.73</speed>
  <fix>3d</fix>
</trkpt>
<trkpt lat="33.8102741" lon="-118.3938972">
  <ele>-0.113</ele>
  <time>2026-09-01T01:13:03Z</time>
  <course>13.27</course>
  <speed>0.7200694410957876</speed>
  <fix>3d</fix>
</trkpt>
<trkpt lat="33.8102738" lon="-118.3938982">
  <ele>-0.1</ele>
  <time>2026-09-01T01:13:03Z</time>
  <course>50.06</course>
  <speed>0.73</speed>
  <fix>3d</fix>
</trkpt>
<trkpt lat="33.8102745" lon="-118.3938966">
  <ele>-0.111</ele>
  <time>2026-09-01T01:13:03Z</time>
  <course>13.27</course>
  <speed>0.7200694410957876</speed>
  <fix>3d</fix>
</trkpt>
<trkpt lat="33.8102738" lon="-118.3938982">
  <ele>-0.1</ele>
  <time>2026-09-01T01:13:03Z</time>
  <course>50.06</course>
  <speed>0.73</speed>
  <fix>3d</fix>
</trkpt>
<trkpt lat="33.8102749" lon="-118.393896">
  <ele>-0.109</ele>
  <time>2026-09-01T01:13:03Z</time>
  <course>13.27</course>
  <speed>0.7200694410957876</speed>
  <fix>3d</fix>
</trkpt>
<trkpt lat="33.8102746" lon="-118.3938969">
  <ele>-0.1</ele>
  <time>2026-09-01T01:13:03Z</time>
  <course>50.06</course>
  <speed>0.73</speed>
  <fix>3d</fix>
</trkpt>
<trkpt lat="33.8102754" lon="-118.3938954">
  <ele>-0.109</ele>
  <time>2026-09-01T01:13:03Z</time>
  <course>13.28</course>
  <speed>0.7200694410957876</speed>
  <fix>3d</fix>
</trkpt>
<trkpt lat="33.8102746" lon="-118.3938969">
  <ele>-0.1</ele>
  <time>2026-09-01T01:13:03Z</time>
  <course>50.06</course>
  <speed>0.73</speed>
  <fix>3d</fix>
</trkpt>
<trkpt lat="33.8102758" lon="-118.3938948">
  <ele>-0.108</ele>
  <time>2026-09-01T01:13:03Z</time>
  <course>13.28</course>
  <speed>0.7200694410957876</speed>
  <fix>3d</fix>
</trkpt>
<trkpt lat="33.8102755" lon="-118.3938958">
  <ele>-0.1</ele>
  <time>2026-09-01T01:13:03Z</time>
  <course>50.07</course>
  <speed>0.73</speed>
  <fix>3d</fix>
</trkpt>
<trkpt lat="33.8102762" lon="-118.3938942">
  <ele>-0.108</ele>
  <time>2026-09-01T01:13:03Z</time>
  <course>13.29</course>
  <speed>0.7200694410957876</speed>
  <fix>3d</fix>
</trkpt>
<trkpt lat="33.8102755" lon="-118.3938958">
  <ele>-0.1</ele>
  <time>2026-09-01T01:13:03Z</time>
  <course>50.07</course>
  <speed>0.73</speed>
  <fix>3d</fix>
</trkpt>
<trkpt lat="33.8102766" lon="-118.3938935">
  <ele>-0.108</ele>
  <time>2026-09-01T01:13:03Z</time>
  <course>13.29</course>
  <speed>0.7200694410957876</speed>
  <fix>3d</fix>
</trkpt>
<trkpt lat="33.8102763" lon="-118.3938945">
  <ele>-0.1</ele>
  <time>2026-09-01T01:13:03Z</time>
  <course>50.08</course>
  <speed>0.73</speed>
  <fix>3d</fix>
</trkpt>
<trkpt lat="33.8102771" lon="-118.3938929">
  <ele>-0.109</ele>
  <time>2026-09-01T01:13:03Z</time>
  <course>13.3</course>
  <speed>0.7200694410957876</speed>
  <fix>3d</fix>
</trkpt>
<trkpt lat="33.8102763" lon="-118.3938945">
  <ele>-0.1</ele>
  <time>2026-09-01T01:13:03Z</time>
  <course>50.08</course>
  <speed>0.73</speed>
  <fix>3d</fix>
</trkpt>
<trkpt lat="33.8102775" lon="-118.3938923">
  <ele>-0.109</ele>
  <time>2026-09-01T01:13:03Z</time>
  <course>13.3</course>
  <speed>0.7200694410957876</speed>
  <fix>3d</fix>
</trkpt>
<trkpt lat="33.8102772" lon="-118.3938933">
  <ele>-0.11</ele>
  <time>2026-09-01T01:13:03Z</time>
  <course>50.09</course>
  <speed>0.73</speed>
  <fix>3d</fix>
</trkpt>
<trkpt lat="33.8102779" lon="-118.3938917">
  <ele>-0.109</ele>
  <time>2026-09-01T01:13:03Z</time>
  <course>13.3</course>
  <speed>0.7200694410957876</speed>
  <fix>3d</fix>
</trkpt>
<trkpt lat="33.8102772" lon="-118.3938933">
  <ele>-0.11</ele>
  <time>2026-09-01T01:13:03Z</time>
  <course>50.09</course>
  <speed>0.73</speed>
  <fix>3d</fix>
</trkpt>
<trkpt lat="33.8102783" lon="-118.3938911">
  <ele>-0.109</ele>
  <time>2026-09-01T01:13:03Z</time>
  <course>13.31</course>
  <speed>0.7200694410957876</speed>
  <fix>3d</fix>
</trkpt>
<trkpt lat="33.810278" lon="-118.393892">
  <ele>-0.1</ele>
  <time>2026-09-01T01:13:03Z</time>
  <course>50.1</course>
  <speed>0.73</speed>
  <fix>3d</fix>
</trkpt>
<trkpt lat="33.8102788" lon="-118.3938905">
  <ele>-0.108</ele>
  <time>2026-09-01T01:13:03Z</time>
  <course>13.31</course>
  <speed>0.7200694410957876</speed>
  <fix>3d</fix>
</trkpt>
<trkpt lat="33.810278" lon="-118.393892">
  <ele>-0.1</ele>
  <time>2026-09-01T01:13:03Z</time>
  <course>50.1</course>
  <speed>0.73</speed>
  <fix>3d</fix>
</trkpt>
<trkpt lat="33.8102792" lon="-118.3938899">
  <ele>-0.108</ele>
  <time>2026-09-01T01:13:03Z</time>
  <course>13.32</course>
  <speed>0.7200694410957876</speed>
  <fix>3d</fix>
</trkpt>
<trkpt lat="33.8102789" lon="-118.3938909">
  <ele>-0.1</ele>
  <time>2026-09-01T01:13:03Z</time>
  <course>50.1</course>
  <speed>0.73</speed>
  <fix>3d</fix>
</trkpt>
<trkpt lat="33.8102796" lon="-118.3938893">
  <ele>-0.108</ele>
  <time>2026-09-01T01:13:03Z</time>
  <course>13.32</course>
  <speed>0.7200694410957876</speed>
  <fix>3d</fix>
</trkpt>
<trkpt lat="33.8102789" lon="-118.3938909">
  <ele>-0.1</ele>
  <time>2026-09-01T01:13:03Z</time>
  <course>50.1</course>
  <speed>0.73</speed>
  <fix>3d</fix>
</trkpt>
<trkpt lat="33.81028" lon="-118.3938886">
  <ele>-0.107</ele>
  <time>2026-09-01T01:13:03Z</time>
  <course>13.32</course>
  <speed>0.7200694410957876</speed>
  <fix>3d</fix>
</trkpt>
<trkpt lat="33.8102797" lon="-118.3938897">
  <ele>-0.1</ele>
  <time>2026-09-01T01:13:03Z</time>
  <course>50.11</course>
  <speed>0.73</speed>
  <fix>3d</fix>
</trkpt>
<trkpt lat="33.8102805" lon="-118.393888">
  <ele>-0.108</ele>
  <time>2026-09-01T01:13:03Z</time>
  <course>13.33</course>
  <speed>0.7200694410957876</speed>
  <fix>3d</fix>
</trkpt>
<trkpt lat="33.8102797" lon="-118.3938897">
  <ele>-0.1</ele>
  <time>2026-09-01T01:13:03Z</time>
  <course>50.11</course>
  <speed>0.73</speed>
  <fix>3d</fix>
</trkpt>
<trkpt lat="33.8102809" lon="-118.3938874">
  <ele>-0.108</ele>
  <time>2026-09-01T01:13:03Z</time>
  <course>13.33</course>
  <speed>0.7200694410957876</speed>
  <fix>3d</fix>
</trkpt>
<trkpt lat="33.8102806" lon="-118.3938885">
  <ele>-0.1</ele>
  <time>2026-09-01T01:13:03Z</time>
  <course>50.12</course>
  <speed>0.73</speed>
  <fix>3d</fix>
</trkpt>
<trkpt lat="33.8102813" lon="-118.3938868">
  <ele>-0.11</ele>
  <time>2026-09-01T01:13:03Z</time>
  <course>13.33</course>
  <speed>0.7200694410957876</speed>
  <fix>3d</fix>
</trkpt>
<trkpt lat="33.8102806" lon="-118.3938885">
  <ele>-0.1</ele>
  <time>2026-09-01T01:13:03Z</time>
  <course>50.12</course>
  <speed>0.73</speed>
  <fix>3d</fix>
</trkpt>
<trkpt lat="33.8102817" lon="-118.3938862">
  <ele>-0.111</ele>
  <time>2026-09-01T01:13:03Z</time>
  <course>13.34</course>
  <speed>0.7200694410957876</speed>
  <fix>3d</fix>
</trkpt>
<trkpt lat="33.8102814" lon="-118.3938872">
  <ele>-0.11</ele>
  <time>2026-09-01T01:13:03Z</time>
  <course>50.13</course>
  <speed>0.73</speed>
  <fix>3d</fix>
</trkpt>
<trkpt lat="33.8102822" lon="-118.3938856">
  <ele>-0.111</ele>
  <time>2026-09-01T01:13:03Z</time>
  <course>13.34</course>
  <speed>0.7200694410957876</speed>
  <fix>3d</fix>
</trkpt>
<trkpt lat="33.8102814" lon="-118.3938872">
  <ele>-0.11</ele>
  <time>2026-09-01T01:13:03Z</time>
  <course>50.13</course>
  <speed>0.73</speed>
  <fix>3d</fix>
</trkpt>
<trkpt lat="33.8102826" lon="-118.393885">
  <ele>-0.11</ele>
  <time>2026-09-01T01:13:03Z</time>
  <course>13.35</course>
  <speed>0.7280109889280518</speed>
  <fix>3d</fix>
</trkpt>
<trkpt lat="33.8102823" lon="-118.3938859">
  <ele>-0.1</ele>
  <time>2026-09-01T01:13:03Z</time>
  <course>50.14</course>
  <speed>0.73</speed>
  <fix>3d</fix>
</trkpt>
<trkpt lat="33.810283" lon="-118.3938844">
  <ele>-0.109</ele>
  <time>2026-09-01T01:13:03Z</time>
  <course>13.35</course>
  <speed>0.7280109889280518</speed>
  <fix>3d</fix>
</trkpt>
<trkpt lat="33.8102823" lon="-118.3938859">
  <ele>-0.1</ele>
  <time>2026-09-01T01:13:03Z</time>
  <course>50.14</course>
  <speed>0.73</speed>
  <fix>3d</fix>
</trkpt>
<trkpt lat="33.8102834" lon="-118.3938838">
  <ele>-0.108</ele>
  <time>2026-09-01T01:13:03Z</time>
  <course>13.35</course>
  <speed>0.7280109889280518</speed>
  <fix>3d</fix>
</trkpt>
<trkpt lat="33.8102831" lon="-118.3938848">
  <ele>-0.1</ele>
  <time>2026-09-01T01:13:03Z</time>
  <course>50.14</course>
  <speed>0.73</speed>
  <fix>3d</fix>
</trkpt>
<trkpt lat="33.8102839" lon="-118.3938832">
  <ele>-0.108</ele>
  <time>2026-09-01T01:13:03Z</time>
  <course>13.36</course>
  <speed>0.7280109889280518</speed>
  <fix>3d</fix>
</trkpt>
<trkpt lat="33.8102831" lon="-118.3938848">
  <ele>-0.1</ele>
  <time>2026-09-01T01:13:03Z</time>
  <course>50.14</course>
  <speed>0.73</speed>
  <fix>3d</fix>
</trkpt>
<trkpt lat="33.8102843" lon="-118.3938825">
  <ele>-0.108</ele>
  <time>2026-09-01T01:13:03Z</time>
  <course>13.36</course>
  <speed>0.7280109889280518</speed>
  <fix>3d</fix>
</trkpt>
<trkpt lat="33.8102839" lon="-118.3938835">
  <ele>-0.1</ele>
  <time>2026-09-01T01:13:03Z</time>
  <course>50.15</course>
  <speed>0.73</speed>
  <fix>3d</fix>
</trkpt>
<trkpt lat="33.8102847" lon="-118.3938819">
  <ele>-0.107</ele>
  <time>2026-09-01T01:13:03Z</time>
  <course>13.37</course>
  <speed>0.7280109889280518</speed>
  <fix>3d</fix>
</trkpt>
<trkpt lat="33.8102839" lon="-118.3938835">
  <ele>-0.1</ele>
  <time>2026-09-01T01:13:03Z</time>
  <course>50.15</course>
  <speed>0.73</speed>
  <fix>3d</fix>
</trkpt>
<trkpt lat="33.8102851" lon="-118.3938813">
  <ele>-0.108</ele>
  <time>2026-09-01T01:13:03Z</time>
  <course>13.37</course>
  <speed>0.7280109889280518</speed>
  <fix>3d</fix>
</trkpt>
<trkpt lat="33.8102848" lon="-118.3938824">
  <ele>-0.1</ele>
  <time>2026-09-01T01:13:03Z</time>
  <course>50.16</course>
  <speed>0.73</speed>
  <fix>3d</fix>
</trkpt>
<trkpt lat="33.8102856" lon="-118.3938807">
  <ele>-0.108</ele>
  <time>2026-09-01T01:13:03Z</time>
  <course>13.37</course>
  <speed>0.7280109889280518</speed>
  <fix>3d</fix>
</trkpt>
<trkpt lat="33.8102848" lon="-118.3938824">
  <ele>-0.1</ele>
  <time>2026-09-01T01:13:03Z</time>
  <course>50.16</course>
  <speed>0.73</speed>
  <fix>3d</fix>
</trkpt>
<trkpt lat="33.810286" lon="-118.3938801">
  <ele>-0.109</ele>
  <time>2026-09-01T01:13:03Z</time>
  <course>13.38</course>
  <speed>0.7280109889280518</speed>
  <fix>3d</fix>
</trkpt>
<trkpt lat="33.8102856" lon="-118.3938811">
  <ele>-0.11</ele>
  <time>2026-09-01T01:13:03Z</time>
  <course>50.17</course>
  <speed>0.73</speed>
  <fix>3d</fix>
</trkpt>
<trkpt lat="33.8102864" lon="-118.3938795">
  <ele>-0.11</ele>
  <time>2026-09-01T01:13:03Z</time>
  <course>13.38</course>
  <speed>0.7280109889280518</speed>
  <fix>3d</fix>
</trkpt>
<trkpt lat="33.8102856" lon="-118.3938811">
  <ele>-0.11</ele>
  <time>2026-09-01T01:13:03Z</time>
  <course>50.17</course>
  <speed>0.73</speed>
  <fix>3d</fix>
</trkpt>
<trkpt lat="33.8102868" lon="-118.3938789">
  <ele>-0.111</ele>
  <time>2026-09-01T01:13:03Z</time>
  <course>13.39</course>
  <speed>0.7280109889280518</speed>
  <fix>3d</fix>
</trkpt>
<trkpt lat="33.8102865" lon="-118.3938799">
  <ele>-0.1</ele>
  <time>2026-09-01T01:13:03Z</time>
  <course>50.18</course>
  <speed>0.73</speed>
  <fix>3d</fix>
</trkpt>
<trkpt lat="33.8102872" lon="-118.3938783">
  <ele>-0.111</ele>
  <time>2026-09-01T01:13:03Z</time>
  <course>13.39</course>
  <speed>0.7280109889280518</speed>
  <fix>3d</fix>
</trkpt>
<trkpt lat="33.8102865" lon="-118.3938799">
  <ele>-0.1</ele>
  <time>2026-09-01T01:13:03Z</time>
  <course>50.18</course>
  <speed>0.73</speed>
  <fix>3d</fix>
</trkpt>
<trkpt lat="33.8102877" lon="-118.3938777">
  <ele>-0.112</ele>
  <time>2026-09-01T01:13:03Z</time>
  <course>13.39</course>
  <speed>0.7280109889280518</speed>
  <fix>3d</fix>
</trkpt>
<trkpt lat="33.8102873" lon="-118.3938786">
  <ele>-0.1</ele>
  <time>2026-09-01T01:13:03Z</time>
  <course>50.18</course>
  <speed>0.73</speed>
  <fix>3d</fix>
</trkpt>
<trkpt lat="33.8102881" lon="-118.393877">
  <ele>-0.111</ele>
  <time>2026-09-01T01:13:03Z</time>
  <course>13.4</course>
  <speed>0.7280109889280518</speed>
  <fix>3d</fix>
</trkpt>
<trkpt lat="33.8102873" lon="-118.3938786">
  <ele>-0.1</ele>
  <time>2026-09-01T01:13:03Z</time>
  <course>50.18</course>
  <speed>0.73</speed>
  <fix>3d</fix>
</trkpt>
<trkpt lat="33.8102885" lon="-118.3938764">
  <ele>-0.111</ele>
  <time>2026-09-01T01:13:03Z</time>
  <course>13.4</course>
  <speed>0.7280109889280518</speed>
  <fix>3d</fix>
</trkpt>
<trkpt lat="33.8102882" lon="-118.3938775">
  <ele>-0.1</ele>
  <time>2026-09-01T01:13:03Z</time>
  <course>50.19</course>
  <speed>0.73</speed>
  <fix>3d</fix>
</trkpt>
<trkpt lat="33.8102889" lon="-118.3938758">
  <ele>-0.11</ele>
  <time>2026-09-01T01:13:03Z</time>
  <course>13.41</course>
  <speed>0.7280109889280518</speed>
  <fix>3d</fix>
</trkpt>
<trkpt lat="33.8102882" lon="-118.3938775">
  <ele>-0.1</ele>
  <time>2026-09-01T01:13:03Z</time>
  <course>50.19</course>
  <speed>0.73</speed>
  <fix>3d</fix>
</trkpt>
<trkpt lat="33.8102894" lon="-118.3938752">
  <ele>-0.11</ele>
  <time>2026-09-01T01:13:03Z</time>
  <course>13.41</course>
  <speed>0.7280109889280518</speed>
  <fix>3d</fix>
</trkpt>
<trkpt lat="33.810289" lon="-118.3938762">
  <ele>-0.1</ele>
  <time>2026-09-01T01:13:03Z</time>
  <course>50.2</course>
  <speed>0.73</speed>
  <fix>3d</fix>
</trkpt>
<trkpt lat="33.8102898" lon="-118.3938746">
  <ele>-0.111</ele>
  <time>2026-09-01T01:13:03Z</time>
  <course>13.41</course>
  <speed>0.7280109889280518</speed>
  <fix>3d</fix>
</trkpt>
<trkpt lat="33.810289" lon="-118.3938762">
  <ele>-0.1</ele>
  <time>2026-09-01T01:13:03Z</time>
  <course>50.2</course>
  <speed>0.73</speed>
  <fix>3d</fix>
</trkpt>
<trkpt lat="33.8102902" lon="-118.393874">
  <ele>-0.112</ele>
  <time>2026-09-01T01:13:03Z</time>
  <course>13.42</course>
  <speed>0.7280109889280518</speed>
  <fix>3d</fix>
</trkpt>
<trkpt lat="33.8102899" lon="-118.393875">
  <ele>-0.11</ele>
  <time>2026-09-01T01:13:03Z</time>
  <course>50.21</course>
  <speed>0.73</speed>
  <fix>3d</fix>
</trkpt>
<trkpt lat="33.8102906" lon="-118.3938734">
  <ele>-0.113</ele>
  <time>2026-09-01T01:13:03Z</time>
  <course>13.42</course>
  <speed>0.7280109889280518</speed>
  <fix>3d</fix>
</trkpt>
<trkpt lat="33.8102899" lon="-118.393875">
  <ele>-0.11</ele>
  <time>2026-09-01T01:13:03Z</time>
  <course>50.21</course>
  <speed>0.73</speed>
  <fix>3d</fix>
</trkpt>
<trkpt lat="33.8102911" lon="-118.3938728">
  <ele>-0.112</ele>
  <time>2026-09-01T01:13:03Z</time>
  <course>13.42</course>
  <speed>0.7280109889280518</speed>
  <fix>3d</fix>
</trkpt>
<trkpt lat="33.8102907" lon="-118.3938738">
  <ele>-0.1</ele>
  <time>2026-09-01T01:13:03Z</time>
  <course>50.21</course>
  <speed>0.73</speed>
  <fix>3d</fix>
</trkpt>
<trkpt lat="33.8102915" lon="-118.3938721">
  <ele>-0.112</ele>
  <time>2026-09-01T01:13:03Z</time>
  <course>13.43</course>
  <speed>0.7280109889280518</speed>
  <fix>3d</fix>
</trkpt>
<trkpt lat="33.8102907" lon="-118.3938738">
  <ele>-0.1</ele>
  <time>2026-09-01T01:13:03Z</time>
  <course>50.21</course>
  <speed>0.73</speed>
  <fix>3d</fix>
</trkpt>
<trkpt lat="33.8102919" lon="-118.3938715">
  <ele>-0.112</ele>
  <time>2026-09-01T01:13:03Z</time>
  <course>13.43</course>
  <speed>0.7280109889280518</speed>
  <fix>3d</fix>
</trkpt>
<trkpt lat="33.8102916" lon="-118.3938726">
  <ele>-0.1</ele>
  <time>2026-09-01T01:13:03Z</time>
  <course>50.22</course>
  <speed>0.73</speed>
  <fix>3d</fix>
</trkpt>
<trkpt lat="33.8102923" lon="-118.3938709">
  <ele>-0.112</ele>
  <time>2026-09-01T01:13:03Z</time>
  <course>13.44</course>
  <speed>0.7280109889280518</speed>
  <fix>3d</fix>
</trkpt>
<trkpt lat="33.8102916" lon="-118.3938726">
  <ele>-0.1</ele>
  <time>2026-09-01T01:13:03Z</time>
  <course>50.22</course>
  <speed>0.73</speed>
  <fix>3d</fix>
</trkpt>
<trkpt lat="33.8102928" lon="-118.3938703">
  <ele>-0.112</ele>
  <time>2026-09-01T01:13:03Z</time>
  <course>13.44</course>
  <speed>0.7280109889280518</speed>
  <fix>3d</fix>
</trkpt>
<trkpt lat="33.8102924" lon="-118.3938714">
  <ele>-0.1</ele>
  <time>2026-09-01T01:13:03Z</time>
  <course>50.23</course>
  <speed>0.73</speed>
  <fix>3d</fix>
</trkpt>
<trkpt lat="33.8102932" lon="-118.3938697">
  <ele>-0.113</ele>
  <time>2026-09-01T01:13:03Z</time>
  <course>13.44</course>
  <speed>0.7280109889280518</speed>
  <fix>3d</fix>
</trkpt>
<trkpt lat="33.8102924" lon="-118.3938714">
  <ele>-0.1</ele>
  <time>2026-09-01T01:13:03Z</time>
  <course>50.23</course>
  <speed>0.73</speed>
  <fix>3d</fix>
</trkpt>
<trkpt lat="33.8102936" lon="-118.3938691">
  <ele>-0.113</ele>
  <time>2026-09-01T01:13:03Z</time>
  <course>13.45</course>
  <speed>0.7280109889280518</speed>
  <fix>3d</fix>
</trkpt>
<trkpt lat="33.8102933" lon="-118.3938701">
  <ele>-0.1</ele>
  <time>2026-09-01T01:13:03Z</time>
  <course>50.24</course>
  <speed>0.73</speed>
  <fix>3d</fix>
</trkpt>
<trkpt lat="33.810294" lon="-118.3938685">
  <ele>-0.113</ele>
  <time>2026-09-01T01:13:03Z</time>
  <course>13.45</course>
  <speed>0.7280109889280518</speed>
  <fix>3d</fix>
</trkpt>
<trkpt lat="33.8102933" lon="-118.3938701">
  <ele>-0.1</ele>
  <time>2026-09-01T01:13:03Z</time>
  <course>50.24</course>
  <speed>0.73</speed>
  <fix>3d</fix>
</trkpt>
<trkpt lat="33.8102945" lon="-118.3938679">
  <ele>-0.113</ele>
  <time>2026-09-01T01:13:03Z</time>
  <course>13.45</course>
  <speed>0.7280109889280518</speed>
  <fix>3d</fix>
</trkpt>
<trkpt lat="33.810294" lon="-118.3938689">
  <ele>-0.1</ele>
  <time>2026-09-01T01:13:03Z</time>
  <course>50.24</course>
  <speed>0.73</speed>
  <fix>3d</fix>
</trkpt>
<trkpt lat="33.8102949" lon="-118.3938673">
  <ele>-0.114</ele>
  <time>2026-09-01T01:13:03Z</time>
  <course>13.46</course>
  <speed>0.7280109889280518</speed>
  <fix>3d</fix>
</trkpt>
<trkpt lat="33.810294" lon="-118.3938689">
  <ele>-0.1</ele>
  <time>2026-09-01T01:13:03Z</time>
  <course>50.24</course>
  <speed>0.73</speed>
  <fix>3d</fix>
</trkpt>
<trkpt lat="33.8102953" lon="-118.3938666">
  <ele>-0.114</ele>
  <time>2026-09-01T01:13:03Z</time>
  <course>13.46</course>
  <speed>0.7280109889280518</speed>
  <fix>3d</fix>
</trkpt>
<trkpt lat="33.8102949" lon="-118.3938676">
  <ele>-0.1</ele>
  <time>2026-09-01T01:13:03Z</time>
  <course>50.25</course>
  <speed>0.73</speed>
  <fix>3d</fix>
</trkpt>
<trkpt lat="33.8102957" lon="-118.393866">
  <ele>-0.115</ele>
  <time>2026-09-01T01:13:03Z</time>
  <course>13.46</course>
  <speed>0.7280109889280518</speed>
  <fix>3d</fix>
</trkpt>
<trkpt lat="33.8102949" lon="-118.3938676">
  <ele>-0.1</ele>
  <time>2026-09-01T01:13:03Z</time>
  <course>50.25</course>
  <speed>0.73</speed>
  <fix>3d</fix>
</trkpt>
<trkpt lat="33.8102961" lon="-118.3938654">
  <ele>-0.115</ele>
  <time>2026-09-01T01:13:03Z</time>
  <course>13.47</course>
  <speed>0.7280109889280518</speed>
  <fix>3d</fix>
</trkpt>
<trkpt lat="33.8102958" lon="-118.3938665">
  <ele>-0.1</ele>
  <time>2026-09-01T01:13:03Z</time>
  <course>50.26</course>
  <speed>0.73</speed>
  <fix>3d</fix>
</trkpt>
<trkpt lat="33.8102966" lon="-118.3938648">
  <ele>-0.115</ele>
  <time>2026-09-01T01:13:03Z</time>
  <course>13.47</course>
  <speed>0.7280109889280518</speed>
  <fix>3d</fix>
</trkpt>
<trkpt lat="33.8102958" lon="-118.3938665">
  <ele>-0.1</ele>
  <time>2026-09-01T01:13:03Z</time>
  <course>50.26</course>
  <speed>0.73</speed>
  <fix>3d</fix>
</trkpt>
<trkpt lat="33.810297" lon="-118.3938642">
  <ele>-0.116</ele>
  <time>2026-09-01T01:13:03Z</time>
  <course>13.48</course>
  <speed>0.7280109889280518</speed>
  <fix>3d</fix>
</trkpt>
<trkpt lat="33.8102966" lon="-118.3938652">
  <ele>-0.1</ele>
  <time>2026-09-01T01:13:03Z</time>
  <course>50.27</course>
  <speed>0.73</speed>
  <fix>3d</fix>
</trkpt>
<trkpt lat="33.8102974" lon="-118.3938636">
  <ele>-0.116</ele>
  <time>2026-09-01T01:13:03Z</time>
  <course>13.48</course>
  <speed>0.7280109889280518</speed>
  <fix>3d</fix>
</trkpt>
<trkpt lat="33.8102966" lon="-118.3938652">
  <ele>-0.1</ele>
  <time>2026-09-01T01:13:03Z</time>
  <course>50.27</course>
  <speed>0.73</speed>
  <fix>3d</fix>
</trkpt>
<trkpt lat="33.8102978" lon="-118.393863">
  <ele>-0.115</ele>
  <time>2026-09-01T01:13:03Z</time>
  <course>13.48</course>
  <speed>0.7280109889280518</speed>
  <fix>3d</fix>
</trkpt>
<trkpt lat="33.8102975" lon="-118.393864">
  <ele>-0.1</ele>
  <time>2026-09-01T01:13:03Z</time>
  <course>50.27</course>
  <speed>0.73</speed>
  <fix>3d</fix>
</trkpt>
<trkpt lat="33.8102982" lon="-118.3938624">
  <ele>-0.114</ele>
  <time>2026-09-01T01:13:03Z</time>
  <course>13.49</course>
  <speed>0.7280109889280518</speed>
  <fix>3d</fix>
</trkpt>
<trkpt lat="33.8102975" lon="-118.393864">
  <ele>-0.1</ele>
  <time>2026-09-01T01:13:03Z</time>
  <course>50.27</course>
  <speed>0.73</speed>
  <fix>3d</fix>
</trkpt>
<trkpt lat="33.8102987" lon="-118.3938617">
  <ele>-0.113</ele>
  <time>2026-09-01T01:13:03Z</time>
  <course>13.49</course>
  <speed>0.7280109889280518</speed>
  <fix>3d</fix>
</trkpt>
<trkpt lat="33.8102983" lon="-118.3938628">
  <ele>-0.1</ele>
  <time>2026-09-01T01:13:03Z</time>
  <course>50.28</course>
  <speed>0.73</speed>
  <fix>3d</fix>
</trkpt>
<trkpt lat="33.8102991" lon="-118.3938611">
  <ele>-0.114</ele>
  <time>2026-09-01T01:13:03Z</time>
  <course>13.49</course>
  <speed>0.7280109889280518</speed>
  <fix>3d</fix>
</trkpt>
<trkpt lat="33.8102983" lon="-118.3938628">
  <ele>-0.1</ele>
  <time>2026-09-01T01:13:03Z</time>
  <course>50.28</course>
  <speed>0.73</speed>
  <fix>3d</fix>
</trkpt>
<trkpt lat="33.8102995" lon="-118.3938605">
  <ele>-0.113</ele>
  <time>2026-09-01T01:13:03Z</time>
  <course>13.5</course>
  <speed>0.7280109889280518</speed>
  <fix>3d</fix>
</trkpt>
<trkpt lat="33.8102992" lon="-118.3938616">
  <ele>-0.1</ele>
  <time>2026-09-01T01:13:03Z</time>
  <course>50.29</course>
  <speed>0.73</speed>
  <fix>3d</fix>
</trkpt>
<trkpt lat="33.8102999" lon="-118.3938599">
  <ele>-0.112</ele>
  <time>2026-09-01T01:13:03Z</time>
  <course>15.13</course>
  <speed>0.7340980860893181</speed>
  <fix>3d</fix>
</trkpt>
<trkpt lat="33.8102992" lon="-118.3938616">
  <ele>-0.1</ele>
  <time>2026-09-01T01:13:03Z</time>
  <course>50.29</course>
  <speed>0.73</speed>
  <fix>3d</fix>
</trkpt>
<trkpt lat="33.8103004" lon="-118.3938593">
  <ele>-0.112</ele>
  <time>2026-09-01T01:13:03Z</time>
  <course>18.86</course>
  <speed>0.75</speed>
  <fix>3d</fix>
</trkpt>
<trkpt lat="33.8103" lon="-118.3938604">
  <ele>-0.1</ele>
  <time>2026-09-01T01:13:03Z</time>
  <course>49.96</course>
  <speed>0.74</speed>
  <fix>3d</fix>
</trkpt>
<trkpt lat="33.8103008" lon="-118.3938586">
  <ele>-0.112</ele>
  <time>2026-09-01T01:13:03Z</time>
  <course>22.72</course>
  <speed>0.7602631123499285</speed>
  <fix>3d</fix>
</trkpt>
<trkpt lat="33.8103" lon="-118.3938604">
  <ele>-0.1</ele>
  <time>2026-09-01T01:13:03Z</time>
  <course>49.96</course>
  <speed>0.74</speed>
  <fix>3d</fix>
</trkpt>
<trkpt lat="33.8103012" lon="-118.393858">
  <ele>-0.112</ele>
  <time>2026-09-01T01:13:03Z</time>
  <course>26.59</course>
  <speed>0.7600657866263946</speed>
  <fix>3d</fix>
</trkpt>
<trkpt lat="33.8103009" lon="-118.3938591">
  <ele>-0.1</ele>
  <time>2026-09-01T01:13:03Z</time>
  <course>51.32</course>
  <speed>0.76</speed>
  <fix>3d</fix>
</trkpt>
<trkpt lat="33.8103016" lon="-118.3938573">
  <ele>-0.112</ele>
  <time>2026-09-01T01:13:03Z</time>
  <course>30.45</course>
  <speed>0.7566372975210779</speed>
  <fix>3d</fix>
</trkpt>
<trkpt lat="33.8103009" lon="-118.3938591">
  <ele>-0.1</ele>
  <time>2026-09-01T01:13:03Z</time>
  <course>51.32</course>
  <speed>0.76</speed>
  <fix>3d</fix>
</trkpt>
<trkpt lat="33.8103019" lon="-118.3938566">
  <ele>-0.112</ele>
  <time>2026-09-01T01:13:03Z</time>
  <course>34.31</course>
  <speed>0.7648529270389177</speed>
  <fix>3d</fix>
</trkpt>
<trkpt lat="33.8103016" lon="-118.3938578">
  <ele>-0.1</ele>
  <time>2026-09-01T01:13:03Z</time>
  <course>56.05</course>
  <speed>0.76</speed>
  <fix>3d</fix>
</trkpt>
<trkpt lat="33.8103022" lon="-118.3938558">
  <ele>-0.111</ele>
  <time>2026-09-01T01:13:03Z</time>
  <course>38.18</course>
  <speed>0.7632168761236874</speed>
  <fix>3d</fix>
</trkpt>
<trkpt lat="33.8103016" lon="-118.3938578">
  <ele>-0.1</ele>
  <time>2026-09-01T01:13:03Z</time>
  <course>56.05</course>
  <speed>0.76</speed>
  <fix>3d</fix>
</trkpt>
<trkpt lat="33.8103025" lon="-118.3938551">
  <ele>-0.11</ele>
  <time>2026-09-01T01:13:03Z</time>
  <course>42.04</course>
  <speed>0.7589466384404111</speed>
  <fix>3d</fix>
</trkpt>
<trkpt lat="33.8103024" lon="-118.3938563">
  <ele>-0.1</ele>
  <time>2026-09-01T01:13:03Z</time>
  <course>62.68</course>
  <speed>0.76</speed>
  <fix>3d</fix>
</trkpt>
<trkpt lat="33.8103027" lon="-118.3938543">
  <ele>-0.109</ele>
  <time>2026-09-01T01:13:03Z</time>
  <course>45.9</course>
  <speed>0.7640026177965623</speed>
  <fix>3d</fix>
</trkpt>
<trkpt lat="33.8103024" lon="-118.3938563">
  <ele>-0.1</ele>
  <time>2026-09-01T01:13:04Z</time>
  <course>62.68</course>
  <speed>0.76</speed>
  <fix>3d</fix>
</trkpt>
<trkpt lat="33.8103029" lon="-118.3938535">
  <ele>-0.108</ele>
  <time>2026-09-01T01:13:04Z</time>
  <course>49.76</course>
  <speed>0.762954782408499</speed>
  <fix>3d</fix>
</trkpt>
<trkpt lat="33.8103029" lon="-118.3938548">
  <ele>-0.1</ele>
  <time>2026-09-01T01:13:04Z</time>
  <course>69.99</course>
  <speed>0.76</speed>
  <fix>3d</fix>
</trkpt>
<trkpt lat="33.810303" lon="-118.3938527">
  <ele>-0.108</ele>
  <time>2026-09-01T01:13:04Z</time>
  <course>53.63</course>
  <speed>0.7653103945458993</speed>
  <fix>3d</fix>
</trkpt>
<trkpt lat="33.8103029" lon="-118.3938548">
  <ele>-0.1</ele>
  <time>2026-09-01T01:13:04Z</time>
  <course>69.99</course>
  <speed>0.76</speed>
  <fix>3d</fix>
</trkpt>
<trkpt lat="33.8103031" lon="-118.3938519">
  <ele>-0.107</ele>
  <time>2026-09-01T01:13:04Z</time>
  <course>57.49</course>
  <speed>0.7610519036176179</speed>
  <fix>3d</fix>
</trkpt>
<trkpt lat="33.8103033" lon="-118.3938533">
  <ele>-0.1</ele>
  <time>2026-09-01T01:13:04Z</time>
  <course>77.57</course>
  <speed>0.76</speed>
  <fix>3d</fix>
</trkpt>
<trkpt lat="33.8103032" lon="-118.3938511">
  <ele>-0.106</ele>
  <time>2026-09-01T01:13:04Z</time>
  <course>61.35</course>
  <speed>0.76</speed>
  <fix>3d</fix>
</trkpt>
<trkpt lat="33.8103033" lon="-118.3938533">
  <ele>-0.1</ele>
  <time>2026-09-01T01:13:04Z</time>
  <course>77.57</course>
  <speed>0.76</speed>
  <fix>3d</fix>
</trkpt>
<trkpt lat="33.8103032" lon="-118.3938503">
  <ele>-0.106</ele>
  <time>2026-09-01T01:13:04Z</time>
  <course>65.22</course>
  <speed>0.7616429609731845</speed>
  <fix>3d</fix>
</trkpt>
<trkpt lat="33.8103035" lon="-118.3938516">
  <ele>-0.1</ele>
  <time>2026-09-01T01:13:04Z</time>
  <course>85.25</course>
  <speed>0.76</speed>
  <fix>3d</fix>
</trkpt>
<trkpt lat="33.8103031" lon="-118.3938495">
  <ele>-0.105</ele>
  <time>2026-09-01T01:13:04Z</time>
  <course>69.08</course>
  <speed>0.766550715869472</speed>
  <fix>3d</fix>
</trkpt>
<trkpt lat="33.8103035" lon="-118.3938516">
  <ele>-0.1</ele>
  <time>2026-09-01T01:13:04Z</time>
  <course>85.25</course>
  <speed>0.76</speed>
  <fix>3d</fix>
</trkpt>
<trkpt lat="33.8103031" lon="-118.3938486">
  <ele>-0.103</ele>
  <time>2026-09-01T01:13:04Z</time>
  <course>72.97</course>
  <speed>0.7648529270389177</speed>
  <fix>3d</fix>
</trkpt>
<trkpt lat="33.8103036" lon="-118.3938499">
  <ele>-0.1</ele>
  <time>2026-09-01T01:13:04Z</time>
  <course>92.95</course>
  <speed>0.76</speed>
  <fix>3d</fix>
</trkpt>
<trkpt lat="33.8103029" lon="-118.3938478">
  <ele>-0.102</ele>
  <time>2026-09-01T01:13:04Z</time>
  <course>76.84</course>
  <speed>0.766550715869472</speed>
  <fix>3d</fix>
</trkpt>
<trkpt lat="33.8103036" lon="-118.3938499">
  <ele>-0.1</ele>
  <time>2026-09-01T01:13:04Z</time>
  <course>92.95</course>
  <speed>0.76</speed>
  <fix>3d</fix>
</trkpt>
<trkpt lat="33.8103029" lon="-118.3938471">
  <ele>-0.1</ele>
  <time>2026-09-01T01:13:04Z</time>
  <course>80.7</course>
  <speed>0.7621679604916491</speed>
  <fix>3d</fix>
</trkpt>
<trkpt lat="33.8103034" lon="-118.3938483">
  <ele>-0.1</ele>
  <time>2026-09-01T01:13:04Z</time>
  <course>100.66</course>
  <speed>0.76</speed>
  <fix>3d</fix>
</trkpt>
<trkpt lat="33.8103026" lon="-118.3938463">
  <ele>-0.1</ele>
  <time>2026-09-01T01:13:04Z</time>
  <course>84.56</course>
  <speed>0.7615773105863909</speed>
  <fix>3d</fix>
</trkpt>
<trkpt lat="33.8103034" lon="-118.3938483">
  <ele>-0.1</ele>
  <time>2026-09-01T01:13:04Z</time>
  <course>100.66</course>
  <speed>0.76</speed>
  <fix>3d</fix>
</trkpt>
<trkpt lat="33.8103024" lon="-118.3938455">
  <ele>-0.101</ele>
  <time>2026-09-01T01:13:04Z</time>
  <course>88.42</course>
  <speed>0.7647875521999558</speed>
  <fix>3d</fix>
</trkpt>
<trkpt lat="33.8103031" lon="-118.3938467">
  <ele>-0.1</ele>
  <time>2026-09-01T01:13:04Z</time>
  <course>108.38</course>
  <speed>0.76</speed>
  <fix>3d</fix>
</trkpt>
<trkpt lat="33.8103021" lon="-118.3938448">
  <ele>-0.102</ele>
  <time>2026-09-01T01:13:04Z</time>
  <course>92.29</course>
  <speed>0.7666159403508382</speed>
  <fix>3d</fix>
</trkpt>
<trkpt lat="33.8103031" lon="-118.3938467">
  <ele>-0.1</ele>
  <time>2026-09-01T01:13:04Z</time>
  <course>108.38</course>
  <speed>0.76</speed>
  <fix>3d</fix>
</trkpt>
<trkpt lat="33.8103017" lon="-118.3938441">
  <ele>-0.103</ele>
  <time>2026-09-01T01:13:04Z</time>
  <course>96.15</course>
  <speed>0.7627581530209953</speed>
  <fix>3d</fix>
</trkpt>
<trkpt lat="33.8103026" lon="-118.3938452">
  <ele>-0.1</ele>
  <time>2026-09-01T01:13:04Z</time>
  <course>116.1</course>
  <speed>0.76</speed>
  <fix>3d</fix>
</trkpt>
<trkpt lat="33.8103014" lon="-118.3938434">
  <ele>-0.105</ele>
  <time>2026-09-01T01:13:04Z</time>
  <course>100.01</course>
  <speed>0.7683749084919418</speed>
  <fix>3d</fix>
</trkpt>
<trkpt lat="33.8103026" lon="-118.3938452">
  <ele>-0.1</ele>
  <time>2026-09-01T01:13:04Z</time>
  <course>116.1</course>
  <speed>0.76</speed>
  <fix>3d</fix>
</trkpt>
<trkpt lat="33.810301" lon="-118.3938428">
  <ele>-0.107</ele>
  <time>2026-09-01T01:13:04Z</time>
  <course>103.87</course>
  <speed>0.7648529270389177</speed>
  <fix>3d</fix>
</trkpt>
<trkpt lat="33.8103019" lon="-118.3938438">
  <ele>-0.1</ele>
  <time>2026-09-01T01:13:04Z</time>
  <course>123.83</course>
  <speed>0.76</speed>
  <fix>3d</fix>
</trkpt>
<trkpt lat="33.8103005" lon="-118.3938422">
  <ele>-0.108</ele>
  <time>2026-09-01T01:13:04Z</time>
  <course>107.74</course>
  <speed>0.7638062581571324</speed>
  <fix>3d</fix>
</trkpt>
<trkpt lat="33.8103019" lon="-118.3938438">
  <ele>-0.1</ele>
  <time>2026-09-01T01:13:04Z</time>
  <course>123.83</course>
  <speed>0.76</speed>
  <fix>3d</fix>
</trkpt>
<trkpt lat="33.8103" lon="-118.3938416">
  <ele>-0.109</ele>
  <time>2026-09-01T01:13:04Z</time>
  <course>111.6</course>
  <speed>0.7592759709091287</speed>
  <fix>3d</fix>
</trkpt>
<trkpt lat="33.8103011" lon="-118.3938425">
  <ele>-0.1</ele>
  <time>2026-09-01T01:13:04Z</time>
  <course>131.55</course>
  <speed>0.76</speed>
  <fix>3d</fix>
</trkpt>
<trkpt lat="33.8102995" lon="-118.3938411">
  <ele>-0.11</ele>
  <time>2026-09-01T01:13:04Z</time>
  <course>115.46</course>
  <speed>0.7660939890117922</speed>
  <fix>3d</fix>
</trkpt>
<trkpt lat="33.8103011" lon="-118.3938425">
  <ele>-0.1</ele>
  <time>2026-09-01T01:13:04Z</time>
  <course>131.55</course>
  <speed>0.76</speed>
  <fix>3d</fix>
</trkpt>
<trkpt lat="33.810299" lon="-118.3938406">
  <ele>-0.111</ele>
  <time>2026-09-01T01:13:04Z</time>
  <course>119.33</course>
  <speed>0.7600657866263946</speed>
  <fix>3d</fix>
</trkpt>
<trkpt lat="33.8103001" lon="-118.3938413">
  <ele>-0.1</ele>
  <time>2026-09-01T01:13:04Z</time>
  <course>139.27</course>
  <speed>0.76</speed>
  <fix>3d</fix>
</trkpt>
<trkpt lat="33.8102984" lon="-118.3938402">
  <ele>-0.113</ele>
  <time>2026-09-01T01:13:04Z</time>
  <course>123.19</course>
  <speed>0.765375724726098</speed>
  <fix>3d</fix>
</trkpt>
<trkpt lat="33.8103001" lon="-118.3938413">
  <ele>-0.1</ele>
  <time>2026-09-01T01:13:04Z</time>
  <course>139.27</course>
  <speed>0.76</speed>
  <fix>3d</fix>
</trkpt>
<trkpt lat="33.8102978" lon="-118.3938398">
  <ele>-0.113</ele>
  <time>2026-09-01T01:13:04Z</time>
  <course>127.05</course>
  <speed>0.7605918747922567</speed>
  <fix>3d</fix>
</trkpt>
<trkpt lat="33.810299" lon="-118.3938403">
  <ele>-0.1</ele>
  <time>2026-09-01T01:13:04Z</time>
  <course>147.0</course>
  <speed>0.76</speed>
  <fix>3d</fix>
</trkpt>
<trkpt lat="33.8102972" lon="-118.3938395">
  <ele>-0.114</ele>
  <time>2026-09-01T01:13:04Z</time>
  <course>130.91</course>
  <speed>0.7632168761236874</speed>
  <fix>3d</fix>
</trkpt>
<trkpt lat="33.810299" lon="-118.3938403">
  <ele>-0.1</ele>
  <time>2026-09-01T01:13:04Z</time>
  <course>147.0</course>
  <speed>0.76</speed>
  <fix>3d</fix>
</trkpt>
<trkpt lat="33.8102966" lon="-118.3938392">
  <ele>-0.114</ele>
  <time>2026-09-01T01:13:04Z</time>
  <course>134.78</course>
  <speed>0.765375724726098</speed>
  <fix>3d</fix>
</trkpt>
<trkpt lat="33.8102978" lon="-118.3938395">
  <ele>-0.1</ele>
  <time>2026-09-01T01:13:04Z</time>
  <course>154.74</course>
  <speed>0.76</speed>
  <fix>3d</fix>
</trkpt>
<trkpt lat="33.810296" lon="-118.393839">
  <ele>-0.114</ele>
  <time>2026-09-01T01:13:04Z</time>
  <course>138.64</course>
  <speed>0.7615773105863909</speed>
  <fix>3d</fix>
</trkpt>
<trkpt lat="33.8102978" lon="-118.3938395">
  <ele>-0.1</ele>
  <time>2026-09-01T01:13:04Z</time>
  <course>154.74</course>
  <speed>0.76</speed>
  <fix>3d</fix>
</trkpt>
<trkpt lat="33.8102953" lon="-118.3938388">
  <ele>-0.113</ele>
  <time>2026-09-01T01:13:04Z</time>
  <course>142.5</course>
  <speed>0.7611832893594026</speed>
  <fix>3d</fix>
</trkpt>
<trkpt lat="33.8102965" lon="-118.3938389">
  <ele>-0.1</ele>
  <time>2026-09-01T01:13:04Z</time>
  <course>162.48</course>
  <speed>0.76</speed>
  <fix>3d</fix>
</trkpt>
<trkpt lat="33.8102947" lon="-118.3938386">
  <ele>-0.112</ele>
  <time>2026-09-01T01:13:04Z</time>
  <course>146.37</course>
  <speed>0.764198926981712</speed>
  <fix>3d</fix>
</trkpt>
<trkpt lat="33.8102965" lon="-118.3938389">
  <ele>-0.1</ele>
  <time>2026-09-01T01:13:04Z</time>
  <course>162.48</course>
  <speed>0.76</speed>
  <fix>3d</fix>
</trkpt>
<trkpt lat="33.810294" lon="-118.3938386">
  <ele>-0.113</ele>
  <time>2026-09-01T01:13:04Z</time>
  <course>150.23</course>
  <speed>0.7605918747922567</speed>
  <fix>3d</fix>
</trkpt>
<trkpt lat="33.8102952" lon="-118.3938385">
  <ele>-0.1</ele>
  <time>2026-09-01T01:13:04Z</time>
  <course>170.2</course>
  <speed>0.76</speed>
  <fix>3d</fix>
</trkpt>
<trkpt lat="33.8102933" lon="-118.3938385">
  <ele>-0.113</ele>
  <time>2026-09-01T01:13:04Z</time>
  <course>154.12</course>
  <speed>0.7600657866263946</speed>
  <fix>3d</fix>
</trkpt>
<trkpt lat="33.8102952" lon="-118.3938385">
  <ele>-0.1</ele>
  <time>2026-09-01T01:13:04Z</time>
  <course>170.2</course>
  <speed>0.76</speed>
  <fix>3d</fix>
</trkpt>
<trkpt lat="33.8102927" lon="-118.3938385">
  <ele>-0.114</ele>
  <time>2026-09-01T01:13:04Z</time>
  <course>157.99</course>
  <speed>0.7623647421018367</speed>
  <fix>3d</fix>
</trkpt>
<trkpt lat="33.8102939" lon="-118.3938384">
  <ele>-0.1</ele>
  <time>2026-09-01T01:13:04Z</time>
  <course>177.93</course>
  <speed>0.76</speed>
  <fix>3d</fix>
</trkpt>
<trkpt lat="33.810292" lon="-118.3938386">
  <ele>-0.114</ele>
  <time>2026-09-01T01:13:04Z</time>
  <course>161.85</course>
  <speed>0.758023746329889</speed>
  <fix>3d</fix>
</trkpt>
<trkpt lat="33.8102939" lon="-118.3938384">
  <ele>-0.1</ele>
  <time>2026-09-01T01:13:04Z</time>
  <course>177.93</course>
  <speed>0.76</speed>
  <fix>3d</fix>
</trkpt>
<trkpt lat="33.8102914" lon="-118.3938387">
  <ele>-0.114</ele>
  <time>2026-09-01T01:13:04Z</time>
  <course>165.71</course>
  <speed>0.757099729229908</speed>
  <fix>3d</fix>
</trkpt>
<trkpt lat="33.8102925" lon="-118.3938384">
  <ele>-0.1</ele>
  <time>2026-09-01T01:13:04Z</time>
  <course>185.65</course>
  <speed>0.76</speed>
  <fix>3d</fix>
</trkpt>
<trkpt lat="33.8102907" lon="-118.3938389">
  <ele>-0.113</ele>
  <time>2026-09-01T01:13:04Z</time>
  <course>169.58</course>
  <speed>0.75</speed>
  <fix>3d</fix>
</trkpt>
<trkpt lat="33.8102925" lon="-118.3938384">
  <ele>-0.1</ele>
  <time>2026-09-01T01:13:04Z</time>
  <course>185.65</course>
  <speed>0.76</speed>
  <fix>3d</fix>
</trkpt>
<trkpt lat="33.8102901" lon="-118.3938391">
  <ele>-0.113</ele>
  <time>2026-09-01T01:13:04Z</time>
  <course>173.44</course>
  <speed>0.7561084578286372</speed>
  <fix>3d</fix>
</trkpt>
<trkpt lat="33.8102911" lon="-118.3938386">
  <ele>-0.1</ele>
  <time>2026-09-01T01:13:04Z</time>
  <course>193.38</course>
  <speed>0.76</speed>
  <fix>3d</fix>
</trkpt>
<trkpt lat="33.8102894" lon="-118.3938394">
  <ele>-0.114</ele>
  <time>2026-09-01T01:13:04Z</time>
  <course>177.3</course>
  <speed>0.7564390259630978</speed>
  <fix>3d</fix>
</trkpt>
<trkpt lat="33.8102911" lon="-118.3938386">
  <ele>-0.1</ele>
  <time>2026-09-01T01:13:04Z</time>
  <course>193.38</course>
  <speed>0.76</speed>
  <fix>3d</fix>
</trkpt>
<trkpt lat="33.8102888" lon="-118.3938398">
  <ele>-0.115</ele>
  <time>2026-09-01T01:13:04Z</time>
  <course>181.17</course>
  <speed>0.7470609078247904</speed>
  <fix>3d</fix>
</trkpt>
<trkpt lat="33.8102898" lon="-118.3938391">
  <ele>-0.1</ele>
  <time>2026-09-01T01:13:04Z</time>
  <course>201.1</course>
  <speed>0.76</speed>
  <fix>3d</fix>
</trkpt>
<trkpt lat="33.8102883" lon="-118.3938402">
  <ele>-0.115</ele>
  <time>2026-09-01T01:13:04Z</time>
  <course>185.04</course>
  <speed>0.7547184905645282</speed>
  <fix>3d</fix>
</trkpt>
<trkpt lat="33.8102898" lon="-118.3938391">
  <ele>-0.1</ele>
  <time>2026-09-01T01:13:04Z</time>
  <course>201.1</course>
  <speed>0.76</speed>
  <fix>3d</fix>
</trkpt>
<trkpt lat="33.8102877" lon="-118.3938406">
  <ele>-0.115</ele>
  <time>2026-09-01T01:13:04Z</time>
  <course>188.9</course>
  <speed>0.7521303078589507</speed>
  <fix>3d</fix>
</trkpt>
<trkpt lat="33.8102886" lon="-118.3938398">
  <ele>-0.1</ele>
  <time>2026-09-01T01:13:04Z</time>
  <course>208.82</course>
  <speed>0.76</speed>
  <fix>3d</fix>
</trkpt>
<trkpt lat="33.8102872" lon="-118.3938411">
  <ele>-0.114</ele>
  <time>2026-09-01T01:13:04Z</time>
  <course>192.76</course>
  <speed>0.7528612089887484</speed>
  <fix>3d</fix>
</trkpt>
<trkpt lat="33.8102886" lon="-118.3938398">
  <ele>-0.1</ele>
  <time>2026-09-01T01:13:04Z</time>
  <course>208.82</course>
  <speed>0.76</speed>
  <fix>3d</fix>
</trkpt>
<trkpt lat="33.8102867" lon="-118.3938416">
  <ele>-0.114</ele>
  <time>2026-09-01T01:13:04Z</time>
  <course>196.62</course>
  <speed>0.7427651041883968</speed>
  <fix>3d</fix>
</trkpt>
<trkpt lat="33.8102874" lon="-118.3938407">
  <ele>-0.1</ele>
  <time>2026-09-01T01:13:04Z</time>
  <course>216.55</course>
  <speed>0.76</speed>
  <fix>3d</fix>
</trkpt>
<trkpt lat="33.8102862" lon="-118.3938422">
  <ele>-0.114</ele>
  <time>2026-09-01T01:13:04Z</time>
  <course>200.49</course>
  <speed>0.750066663703967</speed>
  <fix>3d</fix>
</trkpt>
<trkpt lat="33.8102874" lon="-118.3938407">
  <ele>-0.1</ele>
  <time>2026-09-01T01:13:04Z</time>
  <course>216.55</course>
  <speed>0.76</speed>
  <fix>3d</fix>
</trkpt>
<trkpt lat="33.8102857" lon="-118.3938428">
  <ele>-0.114</ele>
  <time>2026-09-01T01:13:04Z</time>
  <course>204.35</course>
  <speed>0.7465252842335616</speed>
  <fix>3d</fix>
</trkpt>
<trkpt lat="33.8102864" lon="-118.3938417">
  <ele>-0.1</ele>
  <time>2026-09-01T01:13:04Z</time>
  <course>224.27</course>
  <speed>0.76</speed>
  <fix>3d</fix>
</trkpt>
<trkpt lat="33.8102853" lon="-118.3938434">
  <ele>-0.113</ele>
  <time>2026-09-01T01:13:04Z</time>
  <course>208.21</course>
  <speed>0.7463243262818117</speed>
  <fix>3d</fix>
</trkpt>
<trkpt lat="33.8102864" lon="-118.3938417">
  <ele>-0.1</ele>
  <time>2026-09-01T01:13:04Z</time>
  <course>224.27</course>
  <speed>0.76</speed>
  <fix>3d</fix>
</trkpt>
<trkpt lat="33.810285" lon="-118.3938441">
  <ele>-0.112</ele>
  <time>2026-09-01T01:13:04Z</time>
  <course>212.07</course>
  <speed>0.7443117626371358</speed>
  <fix>3d</fix>
</trkpt>
<trkpt lat="33.8102855" lon="-118.3938429">
  <ele>-0.1</ele>
  <time>2026-09-01T01:13:04Z</time>
  <course>232.0</course>
  <speed>0.76</speed>
  <fix>3d</fix>
</trkpt>
<trkpt lat="33.8102846" lon="-118.3938448">
  <ele>-0.11</ele>
  <time>2026-09-01T01:13:04Z</time>
  <course>215.94</course>
  <speed>0.7424284477308234</speed>
  <fix>3d</fix>
</trkpt>
<trkpt lat="33.8102855" lon="-118.3938429">
  <ele>-0.1</ele>
  <time>2026-09-01T01:13:04Z</time>
  <course>232.0</course>
  <speed>0.76</speed>
  <fix>3d</fix>
</trkpt>
<trkpt lat="33.8102843" lon="-118.3938455">
  <ele>-0.11</ele>
  <time>2026-09-01T01:13:04Z</time>
  <course>219.8</course>
  <speed>0.7392563831310488</speed>
  <fix>3d</fix>
</trkpt>
<trkpt lat="33.8102847" lon="-118.3938443">
  <ele>-0.1</ele>
  <time>2026-09-01T01:13:04Z</time>
  <course>239.74</course>
  <speed>0.76</speed>
  <fix>3d</fix>
</trkpt>
<trkpt lat="33.8102841" lon="-118.3938462">
  <ele>-0.11</ele>
  <time>2026-09-01T01:13:04Z</time>
  <course>223.66</course>
  <speed>0.7433034373659253</speed>
  <fix>3d</fix>
</trkpt>
<trkpt lat="33.8102847" lon="-118.3938443">
  <ele>-0.1</ele>
  <time>2026-09-01T01:13:04Z</time>
  <course>239.74</course>
  <speed>0.76</speed>
  <fix>3d</fix>
</trkpt>
<trkpt lat="33.8102839" lon="-118.393847">
  <ele>-0.11</ele>
  <time>2026-09-01T01:13:04Z</time>
  <course>227.52</course>
  <speed>0.7472616676907762</speed>
  <fix>3d</fix>
</trkpt>
<trkpt lat="33.8102841" lon="-118.3938458">
  <ele>-0.1</ele>
  <time>2026-09-01T01:13:04Z</time>
  <course>247.48</course>
  <speed>0.76</speed>
  <fix>3d</fix>
</trkpt>
<trkpt lat="33.8102837" lon="-118.3938478">
  <ele>-0.11</ele>
  <time>2026-09-01T01:13:04Z</time>
  <course>231.42</course>
  <speed>0.7452516353554683</speed>
  <fix>3d</fix>
</trkpt>
<trkpt lat="33.8102841" lon="-118.3938458">
  <ele>-0.1</ele>
  <time>2026-09-01T01:13:04Z</time>
  <course>247.48</course>
  <speed>0.76</speed>
  <fix>3d</fix>
</trkpt>
<trkpt lat="33.8102836" lon="-118.3938486">
  <ele>-0.109</ele>
  <time>2026-09-01T01:13:04Z</time>
  <course>235.28</course>
  <speed>0.7467261881037789</speed>
  <fix>3d</fix>
</trkpt>
<trkpt lat="33.8102837" lon="-118.3938474">
  <ele>-0.1</ele>
  <time>2026-09-01T01:13:04Z</time>
  <course>255.2</course>
  <speed>0.76</speed>
  <fix>3d</fix>
</trkpt>
<trkpt lat="33.8102835" lon="-118.3938494">
  <ele>-0.109</ele>
  <time>2026-09-01T01:13:04Z</time>
  <course>239.14</course>
  <speed>0.7416872656315463</speed>
  <fix>3d</fix>
</trkpt>
<trkpt lat="33.8102837" lon="-118.3938474">
  <ele>-0.1</ele>
  <time>2026-09-01T01:13:04Z</time>
  <course>255.2</course>
  <speed>0.76</speed>
  <fix>3d</fix>
</trkpt>
<trkpt lat="33.8102835" lon="-118.3938502">
  <ele>-0.108</ele>
  <time>2026-09-01T01:13:04Z</time>
  <course>243.0</course>
  <speed>0.74</speed>
  <fix>3d</fix>
</trkpt>
<trkpt lat="33.8102834" lon="-118.393849">
  <ele>-0.1</ele>
  <time>2026-09-01T01:13:04Z</time>
  <course>262.93</course>
  <speed>0.76</speed>
  <fix>3d</fix>
</trkpt>
<trkpt lat="33.8102835" lon="-118.393851">
  <ele>-0.108</ele>
  <time>2026-09-01T01:13:04Z</time>
  <course>246.87</course>
  <speed>0.7410802925459562</speed>
  <fix>3d</fix>
</trkpt>
<trkpt lat="33.8102834" lon="-118.393849">
  <ele>-0.1</ele>
  <time>2026-09-01T01:13:04Z</time>
  <course>262.93</course>
  <speed>0.76</speed>
  <fix>3d</fix>
</trkpt>
<trkpt lat="33.8102835" lon="-118.3938518">
  <ele>-0.108</ele>
  <time>2026-09-01T01:13:04Z</time>
  <course>250.73</course>
  <speed>0.7355270219373317</speed>
  <fix>3d</fix>
</trkpt>
<trkpt lat="33.8102833" lon="-118.3938506">
  <ele>-0.1</ele>
  <time>2026-09-01T01:13:04Z</time>
  <course>270.65</course>
  <speed>0.76</speed>
  <fix>3d</fix>
</trkpt>
<trkpt lat="33.8102836" lon="-118.3938526">
  <ele>-0.107</ele>
  <time>2026-09-01T01:13:04Z</time>
  <course>254.59</course>
  <speed>0.73348483283569</speed>
  <fix>3d</fix>
</trkpt>
<trkpt lat="33.8102833" lon="-118.3938506">
  <ele>-0.1</ele>
  <time>2026-09-01T01:13:04Z</time>
  <course>270.65</course>
  <speed>0.76</speed>
  <fix>3d</fix>
</trkpt>
<trkpt lat="33.8102837" lon="-118.3938533">
  <ele>-0.106</ele>
  <time>2026-09-01T01:13:04Z</time>
  <course>258.45</course>
  <speed>0.7349829930005184</speed>
  <fix>3d</fix>
</trkpt>
<trkpt lat="33.8102834" lon="-118.3938523">
  <ele>-0.1</ele>
  <time>2026-09-01T01:13:04Z</time>
  <course>278.37</course>
  <speed>0.76</speed>
  <fix>3d</fix>
</trkpt>
<trkpt lat="33.8102839" lon="-118.3938541">
  <ele>-0.105</ele>
  <time>2026-09-01T01:13:04Z</time>
  <course>262.31</course>
  <speed>0.74</speed>
  <fix>3d</fix>
</trkpt>
<trkpt lat="33.8102834" lon="-118.3938523">
  <ele>-0.1</ele>
  <time>2026-09-01T01:13:04Z</time>
  <course>278.37</course>
  <speed>0.76</speed>
  <fix>3d</fix>
</trkpt>
<trkpt lat="33.8102841" lon="-118.3938549">
  <ele>-0.106</ele>
  <time>2026-09-01T01:13:04Z</time>
  <course>266.18</course>
  <speed>0.7392563831310488</speed>
  <fix>3d</fix>
</trkpt>
<trkpt lat="33.8102837" lon="-118.3938539">
  <ele>-0.1</ele>
  <time>2026-09-01T01:13:04Z</time>
  <course>286.1</course>
  <speed>0.76</speed>
  <fix>3d</fix>
</trkpt>
<trkpt lat="33.8102844" lon="-118.3938556">
  <ele>-0.105</ele>
  <time>2026-09-01T01:13:04Z</time>
  <course>270.04</course>
  <speed>0.7379024325749306</speed>
  <fix>3d</fix>
</trkpt>
<trkpt lat="33.8102837" lon="-118.3938539">
  <ele>-0.1</ele>
  <time>2026-09-01T01:13:04Z</time>
  <course>286.1</course>
  <speed>0.76</speed>
  <fix>3d</fix>
</trkpt>
<trkpt lat="33.8102847" lon="-118.3938563">
  <ele>-0.105</ele>
  <time>2026-09-01T01:13:04Z</time>
  <course>273.9</course>
  <speed>0.7357309290766564</speed>
  <fix>3d</fix>
</trkpt>
<trkpt lat="33.8102841" lon="-118.3938554">
  <ele>-0.1</ele>
  <time>2026-09-01T01:13:04Z</time>
  <course>293.82</course>
  <speed>0.76</speed>
  <fix>3d</fix>
</trkpt>
<trkpt lat="33.810285" lon="-118.393857">
  <ele>-0.104</ele>
  <time>2026-09-01T01:13:04Z</time>
  <course>277.76</course>
  <speed>0.740607858451421</speed>
  <fix>3d</fix>
</trkpt>
<trkpt lat="33.8102841" lon="-118.3938554">
  <ele>-0.1</ele>
  <time>2026-09-01T01:13:04Z</time>
  <course>293.82</course>
  <speed>0.76</speed>
  <fix>3d</fix>
</trkpt>
<trkpt lat="33.8102854" lon="-118.3938577">
  <ele>-0.103</ele>
  <time>2026-09-01T01:13:04Z</time>
  <course>281.62</course>
  <speed>0.7402702209328699</speed>
  <fix>3d</fix>
</trkpt>
<trkpt lat="33.8102847" lon="-118.3938569">
  <ele>-0.1</ele>
  <time>2026-09-01T01:13:04Z</time>
  <course>301.55</course>
  <speed>0.76</speed>
  <fix>3d</fix>
</trkpt>
<trkpt lat="33.8102858" lon="-118.3938583">
  <ele>-0.102</ele>
  <time>2026-09-01T01:13:04Z</time>
  <course>285.48</course>
  <speed>0.7359347797189639</speed>
  <fix>3d</fix>
</trkpt>
<trkpt lat="33.8102847" lon="-118.3938569">
  <ele>-0.1</ele>
  <time>2026-09-01T01:13:04Z</time>
  <course>301.55</course>
  <speed>0.76</speed>
  <fix>3d</fix>
</trkpt>
<trkpt lat="33.8102863" lon="-118.3938589">
  <ele>-0.101</ele>
  <time>2026-09-01T01:13:04Z</time>
  <course>289.35</course>
  <speed>0.7355270219373317</speed>
  <fix>3d</fix>
</trkpt>
<trkpt lat="33.8102855" lon="-118.3938582">
  <ele>-0.1</ele>
  <time>2026-09-01T01:13:04Z</time>
  <course>309.27</course>
  <speed>0.76</speed>
  <fix>3d</fix>
</trkpt>
<trkpt lat="33.8102867" lon="-118.3938595">
  <ele>-0.102</ele>
  <time>2026-09-01T01:13:04Z</time>
  <course>293.21</course>
  <speed>0.7310950690573697</speed>
  <fix>3d</fix>
</trkpt>
<trkpt lat="33.8102855" lon="-118.3938582">
  <ele>-0.1</ele>
  <time>2026-09-01T01:13:04Z</time>
  <course>309.27</course>
  <speed>0.76</speed>
  <fix>3d</fix>
</trkpt>
<trkpt lat="33.8102872" lon="-118.39386">
  <ele>-0.103</ele>
  <time>2026-09-01T01:13:04Z</time>
  <course>297.07</course>
  <speed>0.7300684899377592</speed>
  <fix>3d</fix>
</trkpt>
<trkpt lat="33.8102864" lon="-118.3938594">
  <ele>-0.1</ele>
  <time>2026-09-01T01:13:04Z</time>
  <course>317.01</course>
  <speed>0.76</speed>
  <fix>3d</fix>
</trkpt>
<trkpt lat="33.8102878" lon="-118.3938604">
  <ele>-0.104</ele>
  <time>2026-09-01T01:13:04Z</time>
  <course>300.93</course>
  <speed>0.7324616030891995</speed>
  <fix>3d</fix>
</trkpt>
<trkpt lat="33.8102864" lon="-118.3938594">
  <ele>-0.1</ele>
  <time>2026-09-01T01:13:04Z</time>
  <course>317.01</course>
  <speed>0.76</speed>
  <fix>3d</fix>
</trkpt>
<trkpt lat="33.8102884" lon="-118.3938609">
  <ele>-0.104</ele>
  <time>2026-09-01T01:13:04Z</time>
  <course>304.79</course>
  <speed>0.7382411530116699</speed>
  <fix>3d</fix>
</trkpt>
<trkpt lat="33.8102875" lon="-118.3938605">
  <ele>-0.1</ele>
  <time>2026-09-01T01:13:04Z</time>
  <course>324.75</course>
  <speed>0.76</speed>
  <fix>3d</fix>
</trkpt>
<trkpt lat="33.8102889" lon="-118.3938612">
  <ele>-0.104</ele>
  <time>2026-09-01T01:13:04Z</time>
  <course>308.65</course>
  <speed>0.7340980860893181</speed>
  <fix>3d</fix>
</trkpt>
<trkpt lat="33.8102875" lon="-118.3938605">
  <ele>-0.1</ele>
  <time>2026-09-01T01:13:04Z</time>
  <course>324.75</course>
  <speed>0.76</speed>
  <fix>3d</fix>
</trkpt>
<trkpt lat="33.8102896" lon="-118.3938616">
  <ele>-0.105</ele>
  <time>2026-09-01T01:13:04Z</time>
  <course>312.54</course>
  <speed>0.7338937252763509</speed>
  <fix>3d</fix>
</trkpt>
<trkpt lat="33.8102887" lon="-118.3938613">
  <ele>-0.1</ele>
  <time>2026-09-01T01:13:04Z</time>
  <course>332.47</course>
  <speed>0.76</speed>
  <fix>3d</fix>
</trkpt>
<trkpt lat="33.8102902" lon="-118.3938618">
  <ele>-0.107</ele>
  <time>2026-09-01T01:13:04Z</time>
  <course>316.4</course>
  <speed>0.7308214556237386</speed>
  <fix>3d</fix>
</trkpt>
<trkpt lat="33.8102887" lon="-118.3938613">
  <ele>-0.1</ele>
  <time>2026-09-01T01:13:04Z</time>
  <course>332.47</course>
  <speed>0.76</speed>
  <fix>3d</fix>
</trkpt>
<trkpt lat="33.8102908" lon="-118.3938621">
  <ele>-0.107</ele>
  <time>2026-09-01T01:13:04Z</time>
  <course>320.26</course>
  <speed>0.737563556583431</speed>
  <fix>3d</fix>
</trkpt>
<trkpt lat="33.8102899" lon="-118.3938619">
  <ele>-0.1</ele>
  <time>2026-09-01T01:13:04Z</time>
  <course>340.2</course>
  <speed>0.76</speed>
  <fix>3d</fix>
</trkpt>
<trkpt lat="33.8102915" lon="-118.3938622">
  <ele>-0.108</ele>
  <time>2026-09-01T01:13:04Z</time>
  <course>324.12</course>
  <speed>0.7382411530116699</speed>
  <fix>3d</fix>
</trkpt>
<trkpt lat="33.8102899" lon="-118.3938619">
  <ele>-0.1</ele>
  <time>2026-09-01T01:13:04Z</time>
  <course>340.2</course>
  <speed>0.76</speed>
  <fix>3d</fix>
</trkpt>
<trkpt lat="33.8102921" lon="-118.3938624">
  <ele>-0.108</ele>
  <time>2026-09-01T01:13:04Z</time>
  <course>327.98</course>
  <speed>0.7324616030891995</speed>
  <fix>3d</fix>
</trkpt>
<trkpt lat="33.8102913" lon="-118.3938624">
  <ele>-0.1</ele>
  <time>2026-09-01T01:13:04Z</time>
  <course>347.92</course>
  <speed>0.76</speed>
  <fix>3d</fix>
</trkpt>
<trkpt lat="33.8102928" lon="-118.3938624">
  <ele>-0.107</ele>
  <time>2026-09-01T01:13:04Z</time>
  <course>331.84</course>
  <speed>0.7300684899377592</speed>
  <fix>3d</fix>
</trkpt>
<trkpt lat="33.8102913" lon="-118.3938624">
  <ele>-0.1</ele>
  <time>2026-09-01T01:13:04Z</time>
  <course>347.92</course>
  <speed>0.76</speed>
  <fix>3d</fix>
</trkpt>
<trkpt lat="33.8102935" lon="-118.3938624">
  <ele>-0.107</ele>
  <time>2026-09-01T01:13:04Z</time>
  <course>335.7</course>
  <speed>0.7306161783043131</speed>
  <fix>3d</fix>
</trkpt>
<trkpt lat="33.8102927" lon="-118.3938627">
  <ele>-0.1</ele>
  <time>2026-09-01T01:13:04Z</time>
  <course>355.65</course>
  <speed>0.76</speed>
  <fix>3d</fix>
</trkpt>
<trkpt lat="33.8102942" lon="-118.3938624">
  <ele>-0.106</ele>
  <time>2026-09-01T01:13:04Z</time>
  <course>339.56</course>
  <speed>0.7343704787094864</speed>
  <fix>3d</fix>
</trkpt>
<trkpt lat="33.8102927" lon="-118.3938627">
  <ele>-0.1</ele>
  <time>2026-09-01T01:13:04Z</time>
  <course>355.65</course>
  <speed>0.76</speed>
  <fix>3d</fix>
</trkpt>
<trkpt lat="33.8102948" lon="-118.3938623">
  <ele>-0.106</ele>
  <time>2026-09-01T01:13:04Z</time>
  <course>343.42</course>
  <speed>0.7316419889536138</speed>
  <fix>3d</fix>
</trkpt>
<trkpt lat="33.810294" lon="-118.3938627">
  <ele>-0.1</ele>
  <time>2026-09-01T01:13:04Z</time>
  <course>3.37</course>
  <speed>0.76</speed>
  <fix>3d</fix>
</trkpt>
<trkpt lat="33.8102955" lon="-118.3938621">
  <ele>-0.106</ele>
  <time>2026-09-01T01:13:04Z</time>
  <course>347.27</course>
  <speed>0.7324616030891995</speed>
  <fix>3d</fix>
</trkpt>
<trkpt lat="33.810294" lon="-118.3938627">
  <ele>-0.1</ele>
  <time>2026-09-01T01:13:04Z</time>
  <course>3.37</course>
  <speed>0.76</speed>
  <fix>3d</fix>
</trkpt>
<trkpt lat="33.8102961" lon="-118.393862">
  <ele>-0.108</ele>
  <time>2026-09-01T01:13:04Z</time>
  <course>351.13</course>
  <speed>0.7368174807915459</speed>
  <fix>3d</fix>
</trkpt>
<trkpt lat="33.8102954" lon="-118.3938625">
  <ele>-0.1</ele>
  <time>2026-09-01T01:13:04Z</time>
  <course>11.1</course>
  <speed>0.76</speed>
  <fix>3d</fix>
</trkpt>
<trkpt lat="33.8102968" lon="-118.3938618">
  <ele>-0.109</ele>
  <time>2026-09-01T01:13:04Z</time>
  <course>354.99</course>
  <speed>0.7316419889536138</speed>
  <fix>3d</fix>
</trkpt>
<trkpt lat="33.8102954" lon="-118.3938625">
  <ele>-0.1</ele>
  <time>2026-09-01T01:13:04Z</time>
  <course>11.1</course>
  <speed>0.76</speed>
  <fix>3d</fix>
</trkpt>
<trkpt lat="33.8102974" lon="-118.3938615">
  <ele>-0.109</ele>
  <time>2026-09-01T01:13:04Z</time>
  <course>358.85</course>
  <speed>0.73348483283569</speed>
  <fix>3d</fix>
</trkpt>
<trkpt lat="33.8102967" lon="-118.3938621">
  <ele>-0.1</ele>
  <time>2026-09-01T01:13:04Z</time>
  <course>18.82</course>
  <speed>0.76</speed>
  <fix>3d</fix>
</trkpt>
<trkpt lat="33.810298" lon="-118.3938611">
  <ele>-0.11</ele>
  <time>2026-09-01T01:13:04Z</time>
  <course>1.58</course>
  <speed>0.7169379331573968</speed>
  <fix>3d</fix>
</trkpt>
<trkpt lat="33.8102967" lon="-118.3938621">
  <ele>-0.1</ele>
  <time>2026-09-01T01:13:04Z</time>
  <course>18.82</course>
  <speed>0.76</speed>
  <fix>3d</fix>
</trkpt>
<trkpt lat="33.8102986" lon="-118.3938607">
  <ele>-0.11</ele>
  <time>2026-09-01T01:13:04Z</time>
  <course>2.78</course>
  <speed>0.7128113354878693</speed>
  <fix>3d</fix>
</trkpt>
<trkpt lat="33.8102979" lon="-118.3938615">
  <ele>-0.1</ele>
  <time>2026-09-01T01:13:04Z</time>
  <course>26.81</course>
  <speed>0.75</speed>
  <fix>3d</fix>
</trkpt>
<trkpt lat="33.8102991" lon="-118.3938603">
  <ele>-0.11</ele>
  <time>2026-09-01T01:13:04Z</time>
  <course>3.55</course>
  <speed>0.5860034129593444</speed>
  <fix>3d</fix>
</trkpt>
<trkpt lat="33.8102979" lon="-118.3938615">
  <ele>-0.1</ele>
  <time>2026-09-01T01:13:04Z</time>
  <course>26.81</course>
  <speed>0.75</speed>
  <fix>3d</fix>
</trkpt>
<trkpt lat="33.8102995" lon="-118.39386">
  <ele>-0.11</ele>
  <time>2026-09-01T01:13:04Z</time>
  <course>4.12</course>
  <speed>0.49040799340956914</speed>
  <fix>3d</fix>
</trkpt>
<trkpt lat="33.810299" lon="-118.3938607">
  <ele>-0.1</ele>
  <time>2026-09-01T01:13:04Z</time>
  <course>33.9</course>
  <speed>0.66</speed>
  <fix>3d</fix>
</trkpt>
<trkpt lat="33.8102998" lon="-118.3938603">
  <ele>-0.11</ele>
  <time>2026-09-01T01:13:04Z</time>
  <course>4.56</course>
  <speed>1.103086578651014</speed>
  <fix>3d</fix>
</trkpt>
<trkpt lat="33.810299" lon="-118.3938607">
  <ele>-0.1</ele>
  <time>2026-09-01T01:13:04Z</time>
  <course>33.9</course>
  <speed>0.66</speed>
  <fix>3d</fix>
</trkpt>
<trkpt lat="33.8103003" lon="-118.3938619">
  <ele>-0.11</ele>
  <time>2026-09-01T01:13:04Z</time>
  <course>4.93</course>
  <speed>1.7535392781457733</speed>
  <fix>3d</fix>
</trkpt>
<trkpt lat="33.8103" lon="-118.3938604">
  <ele>-0.1</ele>
  <time>2026-09-01T01:13:04Z</time>
  <course>313.38</course>
  <speed>0.63</speed>
  <fix>3d</fix>
</trkpt>
<trkpt lat="33.8103007" lon="-118.3938638">
  <ele>-0.11</ele>
  <time>2026-09-01T01:13:04Z</time>
  <course>5.25</course>
  <speed>1.8536720314014559</speed>
  <fix>3d</fix>
</trkpt>
<trkpt lat="33.8103" lon="-118.3938604">
  <ele>-0.1</ele>
  <time>2026-09-01T01:13:04Z</time>
  <course>313.38</course>
  <speed>0.63</speed>
  <fix>3d</fix>
</trkpt>
<trkpt lat="33.810301" lon="-118.3938658">
  <ele>-0.11</ele>
  <time>2026-09-01T01:13:04Z</time>
  <course>5.52</course>
  <speed>1.859247159470736</speed>
  <fix>3d</fix>
</trkpt>
<trkpt lat="33.8103007" lon="-118.3938623">
  <ele>-0.1</ele>
  <time>2026-09-01T01:13:04Z</time>
  <course>283.98</course>
  <speed>1.58</speed>
  <fix>3d</fix>
</trkpt>
<trkpt lat="33.8103014" lon="-118.3938677">
  <ele>-0.111</ele>
  <time>2026-09-01T01:13:04Z</time>
  <course>5.76</course>
  <speed>1.8552627846210896</speed>
  <fix>3d</fix>
</trkpt>
<trkpt lat="33.8103007" lon="-118.3938623">
  <ele>-0.1</ele>
  <time>2026-09-01T01:13:04Z</time>
  <course>283.98</course>
  <speed>1.58</speed>
  <fix>3d</fix>
</trkpt>
<trkpt lat="33.8103017" lon="-118.3938696">
  <ele>-0.112</ele>
  <time>2026-09-01T01:13:04Z</time>
  <course>5.98</course>
  <speed>1.8533483212823216</speed>
  <fix>3d</fix>
</trkpt>
<trkpt lat="33.8103014" lon="-118.393866">
  <ele>-0.1</ele>
  <time>2026-09-01T01:13:04Z</time>
  <course>280.76</course>
  <speed>1.83</speed>
  <fix>3d</fix>
</trkpt>
<trkpt lat="33.810302" lon="-118.3938715">
  <ele>-0.111</ele>
  <time>2026-09-01T01:13:04Z</time>
  <course>6.17</course>
  <speed>1.8416568627190029</speed>
  <fix>3d</fix>
</trkpt>
<trkpt lat="33.8103014" lon="-118.393866">
  <ele>-0.1</ele>
  <time>2026-09-01T01:13:04Z</time>
  <course>280.76</course>
  <speed>1.83</speed>
  <fix>3d</fix>
</trkpt>
<trkpt lat="33.8103023" lon="-118.3938734">
  <ele>-0.11</ele>
  <time>2026-09-01T01:13:04Z</time>
  <course>6.35</course>
  <speed>1.8398369492974098</speed>
  <fix>3d</fix>
</trkpt>
<trkpt lat="33.8103019" lon="-118.3938699">
  <ele>-0.1</ele>
  <time>2026-09-01T01:13:04Z</time>
  <course>279.74</course>
  <speed>1.82</speed>
  <fix>3d</fix>
</trkpt>
<trkpt lat="33.8103026" lon="-118.3938753">
  <ele>-0.109</ele>
  <time>2026-09-01T01:13:04Z</time>
  <course>6.51</course>
  <speed>1.8380696395947569</speed>
  <fix>3d</fix>
</trkpt>
<trkpt lat="33.8103019" lon="-118.3938699">
  <ele>-0.1</ele>
  <time>2026-09-01T01:13:04Z</time>
  <course>279.74</course>
  <speed>1.82</speed>
  <fix>3d</fix>
</trkpt>
<trkpt lat="33.8103029" lon="-118.3938773">
  <ele>-0.109</ele>
  <time>2026-09-01T01:13:04Z</time>
  <course>6.67</course>
  <speed>1.8363550854886426</speed>
  <fix>3d</fix>
</trkpt>
<trkpt lat="33.8103024" lon="-118.3938738">
  <ele>-0.1</ele>
  <time>2026-09-01T01:13:04Z</time>
  <course>279.11</course>
  <speed>1.82</speed>
  <fix>3d</fix>
</trkpt>
<trkpt lat="33.8103032" lon="-118.3938792">
  <ele>-0.109</ele>
  <time>2026-09-01T01:13:04Z</time>
  <course>6.81</course>
  <speed>1.8264993840677854</speed>
  <fix>3d</fix>
</trkpt>
<trkpt lat="33.8103024" lon="-118.3938738">
  <ele>-0.1</ele>
  <time>2026-09-01T01:13:04Z</time>
  <course>279.11</course>
  <speed>1.82</speed>
  <fix>3d</fix>
</trkpt>
<trkpt lat="33.8103034" lon="-118.3938811">
  <ele>-0.109</ele>
  <time>2026-09-01T01:13:04Z</time>
  <course>6.94</course>
  <speed>1.824828759089466</speed>
  <fix>3d</fix>
</trkpt>
<trkpt lat="33.8103029" lon="-118.3938777">
  <ele>-0.1</ele>
  <time>2026-09-01T01:13:04Z</time>
  <course>278.7</course>
  <speed>1.82</speed>
  <fix>3d</fix>
</trkpt>
<trkpt lat="33.8103037" lon="-118.393883">
  <ele>-0.109</ele>
  <time>2026-09-01T01:13:04Z</time>
  <course>7.06</course>
  <speed>1.823211452355431</speed>
  <fix>3d</fix>
</trkpt>
<trkpt lat="33.8103029" lon="-118.3938777">
  <ele>-0.1</ele>
  <time>2026-09-01T01:13:04Z</time>
  <course>278.7</course>
  <speed>1.82</speed>
  <fix>3d</fix>
</trkpt>
<trkpt lat="33.8103039" lon="-118.3938849">
  <ele>-0.109</ele>
  <time>2026-09-01T01:13:04Z</time>
  <course>7.18</course>
  <speed>1.823211452355431</speed>
  <fix>3d</fix>
</trkpt>
<trkpt lat="33.8103034" lon="-118.3938816">
  <ele>-0.1</ele>
  <time>2026-09-01T01:13:04Z</time>
  <course>278.41</course>
  <speed>1.82</speed>
  <fix>3d</fix>
</trkpt>
<trkpt lat="33.8103042" lon="-118.3938868">
  <ele>-0.111</ele>
  <time>2026-09-01T01:13:04Z</time>
  <course>7.29</course>
  <speed>1.811767093199344</speed>
  <fix>3d</fix>
</trkpt>
<trkpt lat="33.8103034" lon="-118.3938816">
  <ele>-0.1</ele>
  <time>2026-09-01T01:13:04Z</time>
  <course>278.41</course>
  <speed>1.82</speed>
  <fix>3d</fix>
</trkpt>
<trkpt lat="33.8103044" lon="-118.3938887">
  <ele>-0.111</ele>
  <time>2026-09-01T01:13:04Z</time>
  <course>7.4</course>
  <speed>1.811767093199344</speed>
  <fix>3d</fix>
</trkpt>
<trkpt lat="33.8103039" lon="-118.3938855">
  <ele>-0.1</ele>
  <time>2026-09-01T01:13:04Z</time>
  <course>278.21</course>
  <speed>1.82</speed>
  <fix>3d</fix>
</trkpt>
<trkpt lat="33.8103046" lon="-118.3938906">
  <ele>-0.112</ele>
  <time>2026-09-01T01:13:04Z</time>
  <course>7.5</course>
  <speed>1.811767093199344</speed>
  <fix>3d</fix>
</trkpt>
<trkpt lat="33.8103039" lon="-118.3938855">
  <ele>-0.1</ele>
  <time>2026-09-01T01:13:04Z</time>
  <course>278.21</course>
  <speed>1.82</speed>
  <fix>3d</fix>
</trkpt>
<trkpt lat="33.8103048" lon="-118.3938925">
  <ele>-0.112</ele>
  <time>2026-09-01T01:13:04Z</time>
  <course>7.6</course>
  <speed>1.8102486017119306</speed>
  <fix>3d</fix>
</trkpt>
<trkpt lat="33.8103043" lon="-118.3938894">
  <ele>-0.1</ele>
  <time>2026-09-01T01:13:04Z</time>
  <course>278.07</course>
  <speed>1.82</speed>
  <fix>3d</fix>
</trkpt>
<trkpt lat="33.8103051" lon="-118.3938944">
  <ele>-0.113</ele>
  <time>2026-09-01T01:13:04Z</time>
  <course>7.69</course>
  <speed>1.8102486017119306</speed>
  <fix>3d</fix>
</trkpt>
<trkpt lat="33.8103043" lon="-118.3938894">
  <ele>-0.1</ele>
  <time>2026-09-01T01:13:04Z</time>
  <course>278.07</course>
  <speed>1.82</speed>
  <fix>3d</fix>
</trkpt>
<trkpt lat="33.8103053" lon="-118.3938964">
  <ele>-0.114</ele>
  <time>2026-09-01T01:13:04Z</time>
  <course>7.78</course>
  <speed>1.8102486017119306</speed>
  <fix>3d</fix>
</trkpt>
<trkpt lat="33.8103048" lon="-118.3938933">
  <ele>-0.1</ele>
  <time>2026-09-01T01:13:04Z</time>
  <course>277.97</course>
  <speed>1.82</speed>
  <fix>3d</fix>
</trkpt>
<trkpt lat="33.8103055" lon="-118.3938983">
  <ele>-0.114</ele>
  <time>2026-09-01T01:13:04Z</time>
  <course>7.87</course>
  <speed>1.7988885457415085</speed>
  <fix>3d</fix>
</trkpt>
<trkpt lat="33.8103048" lon="-118.3938933">
  <ele>-0.1</ele>
  <time>2026-09-01T01:13:04Z</time>
  <course>277.97</course>
  <speed>1.82</speed>
  <fix>3d</fix>
</trkpt>
<trkpt lat="33.8103057" lon="-118.3939002">
  <ele>-0.114</ele>
  <time>2026-09-01T01:13:04Z</time>
  <course>7.95</course>
  <speed>1.7988885457415085</speed>
  <fix>3d</fix>
</trkpt>
<trkpt lat="33.8103052" lon="-118.3938972">
  <ele>-0.1</ele>
  <time>2026-09-01T01:13:04Z</time>
  <course>277.89</course>
  <speed>1.82</speed>
  <fix>3d</fix>
</trkpt>
<trkpt lat="33.8103059" lon="-118.3939021">
  <ele>-0.114</ele>
  <time>2026-09-01T01:13:04Z</time>
  <course>8.03</course>
  <speed>1.7988885457415085</speed>
  <fix>3d</fix>
</trkpt>
<trkpt lat="33.8103052" lon="-118.3938972">
  <ele>-0.1</ele>
  <time>2026-09-01T01:13:04Z</time>
  <course>277.89</course>
  <speed>1.82</speed>
  <fix>3d</fix>
</trkpt>
<trkpt lat="33.8103061" lon="-118.393904">
  <ele>-0.114</ele>
  <time>2026-09-01T01:13:04Z</time>
  <course>8.1</course>
  <speed>1.7974704448196082</speed>
  <fix>3d</fix>
</trkpt>
<trkpt lat="33.8103057" lon="-118.3939011">
  <ele>-0.1</ele>
  <time>2026-09-01T01:13:04Z</time>
  <course>277.84</course>
  <speed>1.82</speed>
  <fix>3d</fix>
</trkpt>
<trkpt lat="33.8103064" lon="-118.393906">
  <ele>-0.115</ele>
  <time>2026-09-01T01:13:04Z</time>
  <course>8.18</course>
  <speed>1.7974704448196082</speed>
  <fix>3d</fix>
</trkpt>
<trkpt lat="33.8103057" lon="-118.3939011">
  <ele>-0.1</ele>
  <time>2026-09-01T01:13:04Z</time>
  <course>277.84</course>
  <speed>1.82</speed>
  <fix>3d</fix>
</trkpt>
<trkpt lat="33.8103066" lon="-118.3939079">
  <ele>-0.116</ele>
  <time>2026-09-01T01:13:04Z</time>
  <course>8.25</course>
  <speed>1.7974704448196082</speed>
  <fix>3d</fix>
</trkpt>
<trkpt lat="33.8103062" lon="-118.393905">
  <ele>-0.1</ele>
  <time>2026-09-01T01:13:04Z</time>
  <course>277.8</course>
  <speed>1.82</speed>
  <fix>3d</fix>
</trkpt>
<trkpt lat="33.8103068" lon="-118.3939098">
  <ele>-0.118</ele>
  <time>2026-09-01T01:13:04Z</time>
  <course>8.32</course>
  <speed>1.7974704448196082</speed>
  <fix>3d</fix>
</trkpt>
<trkpt lat="33.8103062" lon="-118.393905">
  <ele>-0.1</ele>
  <time>2026-09-01T01:13:04Z</time>
  <course>277.8</course>
  <speed>1.82</speed>
  <fix>3d</fix>
</trkpt>
<trkpt lat="33.810307" lon="-118.3939118">
  <ele>-0.118</ele>
  <time>2026-09-01T01:13:04Z</time>
  <course>8.39</course>
  <speed>1.7961069010501576</speed>
  <fix>3d</fix>
</trkpt>
<trkpt lat="33.8103066" lon="-118.3939089">
  <ele>-0.1</ele>
  <time>2026-09-01T01:13:04Z</time>
  <course>277.78</course>
  <speed>1.82</speed>
  <fix>3d</fix>
</trkpt>
<trkpt lat="33.8103072" lon="-118.3939137">
  <ele>-0.119</ele>
  <time>2026-09-01T01:13:04Z</time>
  <course>8.46</course>
  <speed>1.7861970775925036</speed>
  <fix>3d</fix>
</trkpt>
<trkpt lat="33.8103066" lon="-118.3939089">
  <ele>-0.1</ele>
  <time>2026-09-01T01:13:04Z</time>
  <course>277.78</course>
  <speed>1.82</speed>
  <fix>3d</fix>
</trkpt>
<trkpt lat="33.8103074" lon="-118.3939156">
  <ele>-0.118</ele>
  <time>2026-09-01T01:13:04Z</time>
  <course>8.52</course>
  <speed>1.7861970775925036</speed>
  <fix>3d</fix>
</trkpt>
<trkpt lat="33.8103071" lon="-118.3939128">
  <ele>-0.1</ele>
  <time>2026-09-01T01:13:04Z</time>
  <course>277.76</course>
  <speed>1.82</speed>
  <fix>3d</fix>
</trkpt>
<trkpt lat="33.8103076" lon="-118.3939175">
  <ele>-0.118</ele>
  <time>2026-09-01T01:13:04Z</time>
  <course>8.58</course>
  <speed>1.7861970775925036</speed>
  <fix>3d</fix>
</trkpt>
<trkpt lat="33.8103071" lon="-118.3939128">
  <ele>-0.1</ele>
  <time>2026-09-01T01:13:04Z</time>
  <course>277.76</course>
  <speed>1.82</speed>
  <fix>3d</fix>
</trkpt>
<trkpt lat="33.8103078" lon="-118.3939195">
  <ele>-0.117</ele>
  <time>2026-09-01T01:13:04Z</time>
  <course>8.64</course>
  <speed>1.7861970775925036</speed>
  <fix>3d</fix>
</trkpt>
<trkpt lat="33.8103075" lon="-118.3939167">
  <ele>-0.1</ele>
  <time>2026-09-01T01:13:04Z</time>
  <course>277.75</course>
  <speed>1.82</speed>
  <fix>3d</fix>
</trkpt>
<trkpt lat="33.810308" lon="-118.3939214">
  <ele>-0.115</ele>
  <time>2026-09-01T01:13:04Z</time>
  <course>8.7</course>
  <speed>1.7848809484108457</speed>
  <fix>3d</fix>
</trkpt>
<trkpt lat="33.8103075" lon="-118.3939167">
  <ele>-0.1</ele>
  <time>2026-09-01T01:13:04Z</time>
  <course>277.75</course>
  <speed>1.82</speed>
  <fix>3d</fix>
</trkpt>
<trkpt lat="33.8103083" lon="-118.3939233">
  <ele>-0.114</ele>
  <time>2026-09-01T01:13:04Z</time>
  <course>8.76</course>
  <speed>1.7848809484108457</speed>
  <fix>3d</fix>
</trkpt>
<trkpt lat="33.810308" lon="-118.3939206">
  <ele>-0.1</ele>
  <time>2026-09-01T01:13:04Z</time>
  <course>277.74</course>
  <speed>1.82</speed>
  <fix>3d</fix>
</trkpt>
<trkpt lat="33.8103085" lon="-118.3939253">
  <ele>-0.112</ele>
  <time>2026-09-01T01:13:04Z</time>
  <course>8.82</course>
  <speed>1.7848809484108457</speed>
  <fix>3d</fix>
</trkpt>
<trkpt lat="33.810308" lon="-118.3939206">
  <ele>-0.1</ele>
  <time>2026-09-01T01:13:04Z</time>
  <course>277.74</course>
  <speed>1.82</speed>
  <fix>3d</fix>
</trkpt>
<trkpt lat="33.8103087" lon="-118.3939272">
  <ele>-0.111</ele>
  <time>2026-09-01T01:13:04Z</time>
  <course>8.87</course>
  <speed>1.7848809484108457</speed>
  <fix>3d</fix>
</trkpt>
<trkpt lat="33.8103083" lon="-118.3939245">
  <ele>-0.1</ele>
  <time>2026-09-01T01:13:04Z</time>
  <course>277.73</course>
  <speed>1.82</speed>
  <fix>3d</fix>
</trkpt>
<trkpt lat="33.8103089" lon="-118.3939291">
  <ele>-0.111</ele>
  <time>2026-09-01T01:13:04Z</time>
  <course>8.93</course>
  <speed>1.7848809484108457</speed>
  <fix>3d</fix>
</trkpt>
<trkpt lat="33.8103083" lon="-118.3939245">
  <ele>-0.1</ele>
  <time>2026-09-01T01:13:04Z</time>
  <course>277.73</course>
  <speed>1.82</speed>
  <fix>3d</fix>
</trkpt>
<trkpt lat="33.8103091" lon="-118.3939311">
  <ele>-0.111</ele>
  <time>2026-09-01T01:13:04Z</time>
  <course>8.98</course>
  <speed>1.7848809484108457</speed>
  <fix>3d</fix>
</trkpt>
<trkpt lat="33.8103088" lon="-118.3939284">
  <ele>-0.1</ele>
  <time>2026-09-01T01:13:04Z</time>
  <course>277.73</course>
  <speed>1.82</speed>
  <fix>3d</fix>
</trkpt>
<trkpt lat="33.8103093" lon="-118.393933">
  <ele>-0.111</ele>
  <time>2026-09-01T01:13:04Z</time>
  <course>9.03</course>
  <speed>1.7836199146679206</speed>
  <fix>3d</fix>
</trkpt>
<trkpt lat="33.8103088" lon="-118.3939284">
  <ele>-0.1</ele>
  <time>2026-09-01T01:13:04Z</time>
  <course>277.73</course>
  <speed>1.82</speed>
  <fix>3d</fix>
</trkpt>
<trkpt lat="33.8103095" lon="-118.3939349">
  <ele>-0.111</ele>
  <time>2026-09-01T01:13:04Z</time>
  <course>9.08</course>
  <speed>1.7836199146679206</speed>
  <fix>3d</fix>
</trkpt>
<trkpt lat="33.8103093" lon="-118.3939323">
  <ele>-0.1</ele>
  <time>2026-09-01T01:13:04Z</time>
  <course>277.73</course>
  <speed>1.82</speed>
  <fix>3d</fix>
</trkpt>
<trkpt lat="33.8103097" lon="-118.3939369">
  <ele>-0.11</ele>
  <time>2026-09-01T01:13:04Z</time>
  <course>9.13</course>
  <speed>1.7836199146679206</speed>
  <fix>3d</fix>
</trkpt>
<trkpt lat="33.8103093" lon="-118.3939323">
  <ele>-0.1</ele>
  <time>2026-09-01T01:13:04Z</time>
  <course>277.73</course>
  <speed>1.82</speed>
  <fix>3d</fix>
</trkpt>
<trkpt lat="33.8103099" lon="-118.3939388">
  <ele>-0.11</ele>
  <time>2026-09-01T01:13:04Z</time>
  <course>9.18</course>
  <speed>1.7836199146679206</speed>
  <fix>3d</fix>
</trkpt>
<trkpt lat="33.8103097" lon="-118.3939362">
  <ele>-0.1</ele>
  <time>2026-09-01T01:13:04Z</time>
  <course>277.73</course>
  <speed>1.82</speed>
  <fix>3d</fix>
</trkpt>
<trkpt lat="33.8103101" lon="-118.3939408">
  <ele>-0.109</ele>
  <time>2026-09-01T01:13:04Z</time>
  <course>9.23</course>
  <speed>1.7836199146679206</speed>
  <fix>3d</fix>
</trkpt>
<trkpt lat="33.8103097" lon="-118.3939362">
  <ele>-0.1</ele>
  <time>2026-09-01T01:13:04Z</time>
  <course>277.73</course>
  <speed>1.82</speed>
  <fix>3d</fix>
</trkpt>
<trkpt lat="33.8103103" lon="-118.3939427">
  <ele>-0.109</ele>
  <time>2026-09-01T01:13:04Z</time>
  <course>9.27</course>
  <speed>1.7836199146679206</speed>
  <fix>3d</fix>
</trkpt>
<trkpt lat="33.8103102" lon="-118.3939401">
  <ele>-0.1</ele>
  <time>2026-09-01T01:13:04Z</time>
  <course>277.73</course>
  <speed>1.82</speed>
  <fix>3d</fix>
</trkpt>
<trkpt lat="33.8103105" lon="-118.3939446">
  <ele>-0.11</ele>
  <time>2026-09-01T01:13:04Z</time>
  <course>9.32</course>
  <speed>1.7836199146679206</speed>
  <fix>3d</fix>
</trkpt>
<trkpt lat="33.8103102" lon="-118.3939401">
  <ele>-0.1</ele>
  <time>2026-09-01T01:13:04Z</time>
  <course>277.73</course>
  <speed>1.82</speed>
  <fix>3d</fix>
</trkpt>
<trkpt lat="33.8103108" lon="-118.3939466">
  <ele>-0.11</ele>
  <time>2026-09-01T01:13:04Z</time>
  <course>9.36</course>
  <speed>1.7824140933015535</speed>
  <fix>3d</fix>
</trkpt>
<trkpt lat="33.8103105" lon="-118.393944">
  <ele>-0.1</ele>
  <time>2026-09-01T01:13:04Z</time>
  <course>277.73</course>
  <speed>1.82</speed>
  <fix>3d</fix>
</trkpt>
<trkpt lat="33.810311" lon="-118.3939485">
  <ele>-0.11</ele>
  <time>2026-09-01T01:13:04Z</time>
  <course>9.41</course>
  <speed>1.7824140933015535</speed>
  <fix>3d</fix>
</trkpt>
<trkpt lat="33.8103105" lon="-118.393944">
  <ele>-0.1</ele>
  <time>2026-09-01T01:13:04Z</time>
  <course>277.73</course>
  <speed>1.82</speed>
  <fix>3d</fix>
</trkpt>
<trkpt lat="33.8103112" lon="-118.3939505">
  <ele>-0.109</ele>
  <time>2026-09-01T01:13:04Z</time>
  <course>9.45</course>
  <speed>1.7724841325100769</speed>
  <fix>3d</fix>
</trkpt>
<trkpt lat="33.810311" lon="-118.3939479">
  <ele>-0.1</ele>
  <time>2026-09-01T01:13:04Z</time>
  <course>277.73</course>
  <speed>1.82</speed>
  <fix>3d</fix>
</trkpt>
<trkpt lat="33.8103114" lon="-118.3939524">
  <ele>-0.108</ele>
  <time>2026-09-01T01:13:04Z</time>
  <course>9.49</course>
  <speed>1.7724841325100769</speed>
  <fix>3d</fix>
</trkpt>
<trkpt lat="33.810311" lon="-118.3939479">
  <ele>-0.1</ele>
  <time>2026-09-01T01:13:04Z</time>
  <course>277.73</course>
  <speed>1.82</speed>
  <fix>3d</fix>
</trkpt>
<trkpt lat="33.8103116" lon="-118.3939544">
  <ele>-0.107</ele>
  <time>2026-09-01T01:13:04Z</time>
  <course>9.53</course>
  <speed>1.7724841325100769</speed>
  <fix>3d</fix>
</trkpt>
<trkpt lat="33.8103115" lon="-118.3939518">
  <ele>-0.1</ele>
  <time>2026-09-01T01:13:04Z</time>
  <course>277.73</course>
  <speed>1.82</speed>
  <fix>3d</fix>
</trkpt>
<trkpt lat="33.8103118" lon="-118.3939563">
  <ele>-0.107</ele>
  <time>2026-09-01T01:13:04Z</time>
  <course>9.57</course>
  <speed>1.7724841325100769</speed>
  <fix>3d</fix>
</trkpt>
<trkpt lat="33.8103115" lon="-118.3939518">
  <ele>-0.1</ele>
  <time>2026-09-01T01:13:04Z</time>
  <course>277.73</course>
  <speed>1.82</speed>
  <fix>3d</fix>
</trkpt>
<trkpt lat="33.810312" lon="-118.3939583">
  <ele>-0.108</ele>
  <time>2026-09-01T01:13:04Z</time>
  <course>9.61</course>
  <speed>1.7824140933015535</speed>
  <fix>3d</fix>
</trkpt>
<trkpt lat="33.8103119" lon="-118.3939557">
  <ele>-0.1</ele>
  <time>2026-09-01T01:13:04Z</time>
  <course>277.74</course>
  <speed>1.82</speed>
  <fix>3d</fix>
</trkpt>
<trkpt lat="33.8103122" lon="-118.3939602">
  <ele>-0.108</ele>
  <time>2026-09-01T01:13:04Z</time>
  <course>9.65</course>
  <speed>1.7824140933015535</speed>
  <fix>3d</fix>
</trkpt>
<trkpt lat="33.8103119" lon="-118.3939557">
  <ele>-0.1</ele>
  <time>2026-09-01T01:13:04Z</time>
  <course>277.74</course>
  <speed>1.82</speed>
  <fix>3d</fix>
</trkpt>
<trkpt lat="33.8103124" lon="-118.3939622">
  <ele>-0.108</ele>
  <time>2026-09-01T01:13:04Z</time>
  <course>9.69</course>
  <speed>1.7824140933015535</speed>
  <fix>3d</fix>
</trkpt>
<trkpt lat="33.8103124" lon="-118.3939596">
  <ele>-0.1</ele>
  <time>2026-09-01T01:13:04Z</time>
  <course>277.75</course>
  <speed>1.82</speed>
  <fix>3d</fix>
</trkpt>
<trkpt lat="33.8103126" lon="-118.3939641">
  <ele>-0.107</ele>
  <time>2026-09-01T01:13:04Z</time>
  <course>9.72</course>
  <speed>1.7824140933015535</speed>
  <fix>3d</fix>
</trkpt>
<trkpt lat="33.8103124" lon="-118.3939596">
  <ele>-0.1</ele>
  <time>2026-09-01T01:13:04Z</time>
  <course>277.75</course>
  <speed>1.82</speed>
  <fix>3d</fix>
</trkpt>
<trkpt lat="33.8103129" lon="-118.3939661">
  <ele>-0.106</ele>
  <time>2026-09-01T01:13:04Z</time>
  <course>9.76</course>
  <speed>1.7824140933015535</speed>
  <fix>3d</fix>
</trkpt>
<trkpt lat="33.8103128" lon="-118.3939635">
  <ele>-0.1</ele>
  <time>2026-09-01T01:13:04Z</time>
  <course>277.75</course>
  <speed>1.82</speed>
  <fix>3d</fix>
</trkpt>
<trkpt lat="33.8103131" lon="-118.393968">
  <ele>-0.105</ele>
  <time>2026-09-01T01:13:04Z</time>
  <course>9.79</course>
  <speed>1.7812635964393366</speed>
  <fix>3d</fix>
</trkpt>
<trkpt lat="33.8103128" lon="-118.3939635">
  <ele>-0.1</ele>
  <time>2026-09-01T01:13:04Z</time>
  <course>277.75</course>
  <speed>1.82</speed>
  <fix>3d</fix>
</trkpt>
<trkpt lat="33.8103133" lon="-118.39397">
  <ele>-0.104</ele>
  <time>2026-09-01T01:13:04Z</time>
  <course>9.83</course>
  <speed>1.7812635964393366</speed>
  <fix>3d</fix>
</trkpt>
<trkpt lat="33.8103133" lon="-118.3939674">
  <ele>-0.1</ele>
  <time>2026-09-01T01:13:04Z</time>
  <course>277.76</course>
  <speed>1.82</speed>
  <fix>3d</fix>
</trkpt>
<trkpt lat="33.8103135" lon="-118.3939719">
  <ele>-0.103</ele>
  <time>2026-09-01T01:13:04Z</time>
  <course>9.86</course>
  <speed>1.7812635964393366</speed>
  <fix>3d</fix>
</trkpt>
<trkpt lat="33.8103133" lon="-118.3939674">
  <ele>-0.1</ele>
  <time>2026-09-01T01:13:04Z</time>
  <course>277.76</course>
  <speed>1.82</speed>
  <fix>3d</fix>
</trkpt>
<trkpt lat="33.8103137" lon="-118.3939739">
  <ele>-0.104</ele>
  <time>2026-09-01T01:13:04Z</time>
  <course>9.9</course>
  <speed>1.7812635964393366</speed>
  <fix>3d</fix>
</trkpt>
<trkpt lat="33.8103136" lon="-118.3939713">
  <ele>-0.1</ele>
  <time>2026-09-01T01:13:04Z</time>
  <course>277.78</course>
  <speed>1.82</speed>
  <fix>3d</fix>
</trkpt>
<trkpt lat="33.8103139" lon="-118.3939758">
  <ele>-0.105</ele>
  <time>2026-09-01T01:13:04Z</time>
  <course>9.93</course>
  <speed>1.7812635964393366</speed>
  <fix>3d</fix>
</trkpt>
<trkpt lat="33.8103136" lon="-118.3939713">
  <ele>-0.1</ele>
  <time>2026-09-01T01:13:04Z</time>
  <course>277.78</course>
  <speed>1.82</speed>
  <fix>3d</fix>
</trkpt>
<trkpt lat="33.8103141" lon="-118.3939778">
  <ele>-0.105</ele>
  <time>2026-09-01T01:13:04Z</time>
  <course>9.96</course>
  <speed>1.7812635964393366</speed>
  <fix>3d</fix>
</trkpt>
<trkpt lat="33.8103141" lon="-118.3939752">
  <ele>-0.1</ele>
  <time>2026-09-01T01:13:04Z</time>
  <course>277.79</course>
  <speed>1.82</speed>
  <fix>3d</fix>
</trkpt>
<trkpt lat="33.8103144" lon="-118.3939797">
  <ele>-0.105</ele>
  <time>2026-09-01T01:13:04Z</time>
  <course>9.99</course>
  <speed>1.7812635964393366</speed>
  <fix>3d</fix>
</trkpt>
<trkpt lat="33.8103141" lon="-118.3939752">
  <ele>-0.1</ele>
  <time>2026-09-01T01:13:04Z</time>
  <course>277.79</course>
  <speed>1.82</speed>
  <fix>3d</fix>
</trkpt>
<trkpt lat="33.8103146" lon="-118.3939817">
  <ele>-0.106</ele>
  <time>2026-09-01T01:13:04Z</time>
  <course>10.02</course>
  <speed>1.7812635964393366</speed>
  <fix>3d</fix>
</trkpt>
<trkpt lat="33.8103146" lon="-118.3939791">
  <ele>-0.1</ele>
  <time>2026-09-01T01:13:04Z</time>
  <course>277.81</course>
  <speed>1.82</speed>
  <fix>3d</fix>
</trkpt>
<trkpt lat="33.8103148" lon="-118.3939836">
  <ele>-0.108</ele>
  <time>2026-09-01T01:13:04Z</time>
  <course>10.05</course>
  <speed>1.7812635964393366</speed>
  <fix>3d</fix>
</trkpt>
<trkpt lat="33.8103146" lon="-118.3939791">
  <ele>-0.1</ele>
  <time>2026-09-01T01:13:04Z</time>
  <course>277.81</course>
  <speed>1.82</speed>
  <fix>3d</fix>
</trkpt>
<trkpt lat="33.810315" lon="-118.3939856">
  <ele>-0.11</ele>
  <time>2026-09-01T01:13:04Z</time>
  <course>10.08</course>
  <speed>1.7812635964393366</speed>
  <fix>3d</fix>
</trkpt>
<trkpt lat="33.810315" lon="-118.393983">
  <ele>-0.1</ele>
  <time>2026-09-01T01:13:04Z</time>
  <course>277.83</course>
  <speed>1.82</speed>
  <fix>3d</fix>
</trkpt>
<trkpt lat="33.8103152" lon="-118.3939875">
  <ele>-0.111</ele>
  <time>2026-09-01T01:13:04Z</time>
  <course>10.11</course>
  <speed>1.7812635964393366</speed>
  <fix>3d</fix>
</trkpt>
<trkpt lat="33.810315" lon="-118.393983">
  <ele>-0.1</ele>
  <time>2026-09-01T01:13:04Z</time>
  <course>277.83</course>
  <speed>1.82</speed>
  <fix>3d</fix>
</trkpt>
<trkpt lat="33.8103154" lon="-118.3939895">
  <ele>-0.112</ele>
  <time>2026-09-01T01:13:04Z</time>
  <course>10.14</course>
  <speed>1.7812635964393366</speed>
  <fix>3d</fix>
</trkpt>
<trkpt lat="33.8103155" lon="-118.3939869">
  <ele>-0.1</ele>
  <time>2026-09-01T01:13:04Z</time>
  <course>277.85</course>
  <speed>1.82</speed>
  <fix>3d</fix>
</trkpt>
<trkpt lat="33.8103157" lon="-118.3939915">
  <ele>-0.113</ele>
  <time>2026-09-01T01:13:04Z</time>
  <course>10.17</course>
  <speed>1.7812635964393366</speed>
  <fix>3d</fix>
</trkpt>
<trkpt lat="33.8103155" lon="-118.3939869">
  <ele>-0.1</ele>
  <time>2026-09-01T01:13:04Z</time>
  <course>277.85</course>
  <speed>1.82</speed>
  <fix>3d</fix>
</trkpt>
<trkpt lat="33.8103159" lon="-118.3939934">
  <ele>-0.113</ele>
  <time>2026-09-01T01:13:04Z</time>
  <course>10.2</course>
  <speed>1.7812635964393366</speed>
  <fix>3d</fix>
</trkpt>
<trkpt lat="33.8103159" lon="-118.3939908">
  <ele>-0.1</ele>
  <time>2026-09-01T01:13:04Z</time>
  <course>277.87</course>
  <speed>1.82</speed>
  <fix>3d</fix>
</trkpt>
<trkpt lat="33.8103161" lon="-118.3939954">
  <ele>-0.113</ele>
  <time>2026-09-01T01:13:04Z</time>
  <course>10.22</course>
  <speed>1.7812635964393366</speed>
  <fix>3d</fix>
</trkpt>
<trkpt lat="33.8103159" lon="-118.3939908">
  <ele>-0.1</ele>
  <time>2026-09-01T01:13:04Z</time>
  <course>277.87</course>
  <speed>1.82</speed>
  <fix>3d</fix>
</trkpt>
<trkpt lat="33.8103163" lon="-118.3939973">
  <ele>-0.113</ele>
  <time>2026-09-01T01:13:04Z</time>
  <course>10.25</course>
  <speed>1.7812635964393366</speed>
  <fix>3d</fix>
</trkpt>
<trkpt lat="33.8103164" lon="-118.3939947">
  <ele>-0.1</ele>
  <time>2026-09-01T01:13:04Z</time>
  <course>277.9</course>
  <speed>1.82</speed>
  <fix>3d</fix>
</trkpt>
<trkpt lat="33.8103166" lon="-118.3939993">
  <ele>-0.112</ele>
  <time>2026-09-01T01:13:04Z</time>
  <course>10.28</course>
  <speed>1.7812635964393366</speed>
  <fix>3d</fix>
</trkpt>
<trkpt lat="33.8103164" lon="-118.3939947">
  <ele>-0.1</ele>
  <time>2026-09-01T01:13:04Z</time>
  <course>277.9</course>
  <speed>1.82</speed>
  <fix>3d</fix>
</trkpt>
<trkpt lat="33.8103168" lon="-118.3940012">
  <ele>-0.113</ele>
  <time>2026-09-01T01:13:04Z</time>
  <course>10.3</course>
  <speed>1.7812635964393366</speed>
  <fix>3d</fix>
</trkpt>
<trkpt lat="33.8103168" lon="-118.3939986">
  <ele>-0.1</ele>
  <time>2026-09-01T01:13:04Z</time>
  <course>277.92</course>
  <speed>1.82</speed>
  <fix>3d</fix>
</trkpt>
<trkpt lat="33.810317" lon="-118.3940032">
  <ele>-0.114</ele>
  <time>2026-09-01T01:13:04Z</time>
  <course>10.33</course>
  <speed>1.7824140933015535</speed>
  <fix>3d</fix>
</trkpt>
<trkpt lat="33.8103168" lon="-118.3939986">
  <ele>-0.1</ele>
  <time>2026-09-01T01:13:04Z</time>
  <course>277.92</course>
  <speed>1.82</speed>
  <fix>3d</fix>
</trkpt>
<trkpt lat="33.8103172" lon="-118.3940051">
  <ele>-0.115</ele>
  <time>2026-09-01T01:13:04Z</time>
  <course>10.35</course>
  <speed>1.7824140933015535</speed>
  <fix>3d</fix>
</trkpt>
<trkpt lat="33.8103172" lon="-118.3940025">
  <ele>-0.1</ele>
  <time>2026-09-01T01:13:04Z</time>
  <course>277.95</course>
  <speed>1.82</speed>
  <fix>3d</fix>
</trkpt>
<trkpt lat="33.8103174" lon="-118.3940071">
  <ele>-0.116</ele>
  <time>2026-09-01T01:13:04Z</time>
  <course>10.38</course>
  <speed>1.7824140933015535</speed>
  <fix>3d</fix>
</trkpt>
<trkpt lat="33.8103172" lon="-118.3940025">
  <ele>-0.1</ele>
  <time>2026-09-01T01:13:04Z</time>
  <course>277.95</course>
  <speed>1.82</speed>
  <fix>3d</fix>
</trkpt>
<trkpt lat="33.8103177" lon="-118.394009">
  <ele>-0.116</ele>
  <time>2026-09-01T01:13:04Z</time>
  <course>10.41</course>
  <speed>1.7824140933015535</speed>
  <fix>3d</fix>
</trkpt>
<trkpt lat="33.8103177" lon="-118.3940064">
  <ele>-0.1</ele>
  <time>2026-09-01T01:13:04Z</time>
  <course>277.98</course>
  <speed>1.82</speed>
  <fix>3d</fix>
</trkpt>
<trkpt lat="33.8103179" lon="-118.394011">
  <ele>-0.116</ele>
  <time>2026-09-01T01:13:04Z</time>
  <course>10.43</course>
  <speed>1.7824140933015535</speed>
  <fix>3d</fix>
</trkpt>
<trkpt lat="33.8103177" lon="-118.3940064">
  <ele>-0.1</ele>
  <time>2026-09-01T01:13:04Z</time>
  <course>277.98</course>
  <speed>1.82</speed>
  <fix>3d</fix>
</trkpt>
<trkpt lat="33.8103181" lon="-118.3940129">
  <ele>-0.115</ele>
  <time>2026-09-01T01:13:04Z</time>
  <course>10.45</course>
  <speed>1.7824140933015535</speed>
  <fix>3d</fix>
</trkpt>
<trkpt lat="33.8103182" lon="-118.3940103">
  <ele>-0.1</ele>
  <time>2026-09-01T01:13:04Z</time>
  <course>278.01</course>
  <speed>1.82</speed>
  <fix>3d</fix>
</trkpt>
<trkpt lat="33.8103184" lon="-118.3940149">
  <ele>-0.114</ele>
  <time>2026-09-01T01:13:04Z</time>
  <course>10.48</course>
  <speed>1.7824140933015535</speed>
  <fix>3d</fix>
</trkpt>
<trkpt lat="33.8103182" lon="-118.3940103">
  <ele>-0.1</ele>
  <time>2026-09-01T01:13:04Z</time>
  <course>278.01</course>
  <speed>1.82</speed>
  <fix>3d</fix>
</trkpt>
<trkpt lat="33.8103186" lon="-118.3940169">
  <ele>-0.114</ele>
  <time>2026-09-01T01:13:04Z</time>
  <course>10.5</course>
  <speed>1.7824140933015535</speed>
  <fix>3d</fix>
</trkpt>
<trkpt lat="33.8103186" lon="-118.3940142">
  <ele>-0.1</ele>
  <time>2026-09-01T01:13:04Z</time>
  <course>278.05</course>
  <speed>1.82</speed>
  <fix>3d</fix>
</trkpt>
<trkpt lat="33.8103188" lon="-118.3940188">
  <ele>-0.114</ele>
  <time>2026-09-01T01:13:04Z</time>
  <course>10.53</course>
  <speed>1.7824140933015535</speed>
  <fix>3d</fix>
</trkpt>
<trkpt lat="33.8103186" lon="-118.3940142">
  <ele>-0.1</ele>
  <time>2026-09-01T01:13:04Z</time>
  <course>278.05</course>
  <speed>1.82</speed>
  <fix>3d</fix>
</trkpt>
<trkpt lat="33.810319" lon="-118.3940208">
  <ele>-0.115</ele>
  <time>2026-09-01T01:13:04Z</time>
  <course>10.55</course>
  <speed>1.7824140933015535</speed>
  <fix>3d</fix>
</trkpt>
<trkpt lat="33.8103191" lon="-118.3940182">
  <ele>-0.1</ele>
  <time>2026-09-01T01:13:04Z</time>
  <course>278.08</course>
  <speed>1.82</speed>
  <fix>3d</fix>
</trkpt>
<trkpt lat="33.8103193" lon="-118.3940227">
  <ele>-0.116</ele>
  <time>2026-09-01T01:13:04Z</time>
  <course>10.57</course>
  <speed>1.7824140933015535</speed>
  <fix>3d</fix>
</trkpt>
<trkpt lat="33.8103191" lon="-118.3940182">
  <ele>-0.1</ele>
  <time>2026-09-01T01:13:04Z</time>
  <course>278.08</course>
  <speed>1.82</speed>
  <fix>3d</fix>
</trkpt>
<trkpt lat="33.8103195" lon="-118.3940247">
  <ele>-0.117</ele>
  <time>2026-09-01T01:13:04Z</time>
  <course>10.59</course>
  <speed>1.7824140933015535</speed>
  <fix>3d</fix>
</trkpt>
<trkpt lat="33.8103196" lon="-118.3940221">
  <ele>-0.1</ele>
  <time>2026-09-01T01:13:04Z</time>
  <course>278.12</course>
  <speed>1.82</speed>
  <fix>3d</fix>
</trkpt>
<trkpt lat="33.8103197" lon="-118.3940266">
  <ele>-0.117</ele>
  <time>2026-09-01T01:13:04Z</time>
  <course>10.62</course>
  <speed>1.7824140933015535</speed>
  <fix>3d</fix>
</trkpt>
<trkpt lat="33.8103196" lon="-118.3940221">
  <ele>-0.1</ele>
  <time>2026-09-01T01:13:04Z</time>
  <course>278.12</course>
  <speed>1.82</speed>
  <fix>3d</fix>
</trkpt>
<trkpt lat="33.81032" lon="-118.3940286">
  <ele>-0.116</ele>
  <time>2026-09-01T01:13:04Z</time>
  <course>10.64</course>
  <speed>1.7824140933015535</speed>
  <fix>3d</fix>
</trkpt>
<trkpt lat="33.81032" lon="-118.3940259">
  <ele>-0.1</ele>
  <time>2026-09-01T01:13:04Z</time>
  <course>278.15</course>
  <speed>1.82</speed>
  <fix>3d</fix>
</trkpt>
<trkpt lat="33.8103202" lon="-118.3940306">
  <ele>-0.114</ele>
  <time>2026-09-01T01:13:04Z</time>
  <course>10.66</course>
  <speed>1.7824140933015535</speed>
  <fix>3d</fix>
</trkpt>
<trkpt lat="33.81032" lon="-118.3940259">
  <ele>-0.1</ele>
  <time>2026-09-01T01:13:04Z</time>
  <course>278.15</course>
  <speed>1.82</speed>
  <fix>3d</fix>
</trkpt>
<trkpt lat="33.8103204" lon="-118.3940325">
  <ele>-0.113</ele>
  <time>2026-09-01T01:13:04Z</time>
  <course>10.68</course>
  <speed>1.7824140933015535</speed>
  <fix>3d</fix>
</trkpt>
<trkpt lat="33.8103205" lon="-118.3940298">
  <ele>-0.1</ele>
  <time>2026-09-01T01:13:04Z</time>
  <course>278.19</course>
  <speed>1.82</speed>
  <fix>3d</fix>
</trkpt>
<trkpt lat="33.8103207" lon="-118.3940345">
  <ele>-0.111</ele>
  <time>2026-09-01T01:13:04Z</time>
  <course>10.71</course>
  <speed>1.7836199146679206</speed>
  <fix>3d</fix>
</trkpt>
<trkpt lat="33.8103205" lon="-118.3940298">
  <ele>-0.1</ele>
  <time>2026-09-01T01:13:04Z</time>
  <course>278.19</course>
  <speed>1.82</speed>
  <fix>3d</fix>
</trkpt>
<trkpt lat="33.8103209" lon="-118.3940364">
  <ele>-0.109</ele>
  <time>2026-09-01T01:13:04Z</time>
  <course>10.73</course>
  <speed>1.7836199146679206</speed>
  <fix>3d</fix>
</trkpt>
<trkpt lat="33.8103209" lon="-118.3940337">
  <ele>-0.1</ele>
  <time>2026-09-01T01:13:04Z</time>
  <course>278.23</course>
  <speed>1.82</speed>
  <fix>3d</fix>
</trkpt>
<trkpt lat="33.8103211" lon="-118.3940383">
  <ele>-0.108</ele>
  <time>2026-09-01T01:13:04Z</time>
  <course>10.75</course>
  <speed>1.7836199146679206</speed>
  <fix>3d</fix>
</trkpt>
<trkpt lat="33.8103209" lon="-118.3940337">
  <ele>-0.1</ele>
  <time>2026-09-01T01:13:04Z</time>
  <course>278.23</course>
  <speed>1.82</speed>
  <fix>3d</fix>
</trkpt>
<trkpt lat="33.8103214" lon="-118.3940403">
  <ele>-0.108</ele>
  <time>2026-09-01T01:13:04Z</time>
  <course>10.77</course>
  <speed>1.7836199146679206</speed>
  <fix>3d</fix>
</trkpt>
<trkpt lat="33.8103214" lon="-118.3940376">
  <ele>-0.1</ele>
  <time>2026-09-01T01:13:04Z</time>
  <course>278.26</course>
  <speed>1.82</speed>
  <fix>3d</fix>
</trkpt>
<trkpt lat="33.8103216" lon="-118.3940422">
  <ele>-0.108</ele>
  <time>2026-09-01T01:13:04Z</time>
  <course>10.79</course>
  <speed>1.7836199146679206</speed>
  <fix>3d</fix>
</trkpt>
<trkpt lat="33.8103214" lon="-118.3940376">
  <ele>-0.1</ele>
  <time>2026-09-01T01:13:04Z</time>
  <course>278.26</course>
  <speed>1.82</speed>
  <fix>3d</fix>
</trkpt>
<trkpt lat="33.8103218" lon="-118.3940441">
  <ele>-0.108</ele>
  <time>2026-09-01T01:13:04Z</time>
  <course>10.81</course>
  <speed>1.7836199146679206</speed>
  <fix>3d</fix>
</trkpt>
<trkpt lat="33.8103219" lon="-118.3940415">
  <ele>-0.11</ele>
  <time>2026-09-01T01:13:04Z</time>
  <course>278.3</course>
  <speed>1.82</speed>
  <fix>3d</fix>
</trkpt>
<trkpt lat="33.8103221" lon="-118.3940461">
  <ele>-0.109</ele>
  <time>2026-09-01T01:13:04Z</time>
  <course>10.83</course>
  <speed>1.7836199146679206</speed>
  <fix>3d</fix>
</trkpt>
<trkpt lat="33.8103219" lon="-118.3940415">
  <ele>-0.11</ele>
  <time>2026-09-01T01:13:04Z</time>
  <course>278.3</course>
  <speed>1.82</speed>
  <fix>3d</fix>
</trkpt>
<trkpt lat="33.8103223" lon="-118.394048">
  <ele>-0.109</ele>
  <time>2026-09-01T01:13:04Z</time>
  <course>10.85</course>
  <speed>1.7836199146679206</speed>
  <fix>3d</fix>
</trkpt>
<trkpt lat="33.8103224" lon="-118.3940454">
  <ele>-0.1</ele>
  <time>2026-09-01T01:13:04Z</time>
  <course>278.34</course>
  <speed>1.82</speed>
  <fix>3d</fix>
</trkpt>
<trkpt lat="33.8103226" lon="-118.39405">
  <ele>-0.109</ele>
  <time>2026-09-01T01:13:04Z</time>
  <course>10.87</course>
  <speed>1.7836199146679206</speed>
  <fix>3d</fix>
</trkpt>
<trkpt lat="33.8103224" lon="-118.3940454">
  <ele>-0.1</ele>
  <time>2026-09-01T01:13:04Z</time>
  <course>278.34</course>
  <speed>1.82</speed>
  <fix>3d</fix>
</trkpt>
<trkpt lat="33.8103228" lon="-118.3940519">
  <ele>-0.108</ele>
  <time>2026-09-01T01:13:04Z</time>
  <course>10.89</course>
  <speed>1.7836199146679206</speed>
  <fix>3d</fix>
</trkpt>
<trkpt lat="33.8103228" lon="-118.3940493">
  <ele>-0.1</ele>
  <time>2026-09-01T01:13:04Z</time>
  <course>278.38</course>
  <speed>1.82</speed>
  <fix>3d</fix>
</trkpt>
<trkpt lat="33.810323" lon="-118.3940538">
  <ele>-0.107</ele>
  <time>2026-09-01T01:13:04Z</time>
  <course>10.91</course>
  <speed>1.7836199146679206</speed>
  <fix>3d</fix>
</trkpt>
<trkpt lat="33.8103228" lon="-118.3940493">
  <ele>-0.1</ele>
  <time>2026-09-01T01:13:04Z</time>
  <course>278.38</course>
  <speed>1.82</speed>
  <fix>3d</fix>
</trkpt>
<trkpt lat="33.8103233" lon="-118.3940558">
  <ele>-0.105</ele>
  <time>2026-09-01T01:13:04Z</time>
  <course>10.93</course>
  <speed>1.7836199146679206</speed>
  <fix>3d</fix>
</trkpt>
<trkpt lat="33.8103233" lon="-118.3940532">
  <ele>-0.1</ele>
  <time>2026-09-01T01:13:04Z</time>
  <course>278.42</course>
  <speed>1.82</speed>
  <fix>3d</fix>
</trkpt>
<trkpt lat="33.8103235" lon="-118.3940577">
  <ele>-0.103</ele>
  <time>2026-09-01T01:13:04Z</time>
  <course>10.95</course>
  <speed>1.7836199146679206</speed>
  <fix>3d</fix>
</trkpt>
<trkpt lat="33.8103233" lon="-118.3940532">
  <ele>-0.1</ele>
  <time>2026-09-01T01:13:04Z</time>
  <course>278.42</course>
  <speed>1.82</speed>
  <fix>3d</fix>
</trkpt>
<trkpt lat="33.8103238" lon="-118.3940596">
  <ele>-0.102</ele>
  <time>2026-09-01T01:13:04Z</time>
  <course>10.97</course>
  <speed>1.7836199146679206</speed>
  <fix>3d</fix>
</trkpt>
<trkpt lat="33.8103238" lon="-118.3940571">
  <ele>-0.1</ele>
  <time>2026-09-01T01:13:04Z</time>
  <course>278.46</course>
  <speed>1.82</speed>
  <fix>3d</fix>
</trkpt>
<trkpt lat="33.810324" lon="-118.3940616">
  <ele>-0.101</ele>
  <time>2026-09-01T01:13:04Z</time>
  <course>10.99</course>
  <speed>1.7848809484108457</speed>
  <fix>3d</fix>
</trkpt>
<trkpt lat="33.8103238" lon="-118.3940571">
  <ele>-0.1</ele>
  <time>2026-09-01T01:13:04Z</time>
  <course>278.46</course>
  <speed>1.82</speed>
  <fix>3d</fix>
</trkpt>
<trkpt lat="33.8103242" lon="-118.3940635">
  <ele>-0.101</ele>
  <time>2026-09-01T01:13:04Z</time>
  <course>11.01</course>
  <speed>1.7848809484108457</speed>
  <fix>3d</fix>
</trkpt>
<trkpt lat="33.8103243" lon="-118.394061">
  <ele>-0.1</ele>
  <time>2026-09-01T01:13:04Z</time>
  <course>278.5</course>
  <speed>1.82</speed>
  <fix>3d</fix>
</trkpt>
<trkpt lat="33.8103245" lon="-118.3940655">
  <ele>-0.101</ele>
  <time>2026-09-01T01:13:04Z</time>
  <course>11.03</course>
  <speed>1.7848809484108457</speed>
  <fix>3d</fix>
</trkpt>
<trkpt lat="33.8103243" lon="-118.394061">
  <ele>-0.1</ele>
  <time>2026-09-01T01:13:04Z</time>
  <course>278.5</course>
  <speed>1.82</speed>
  <fix>3d</fix>
</trkpt>
<trkpt lat="33.8103247" lon="-118.3940674">
  <ele>-0.102</ele>
  <time>2026-09-01T01:13:04Z</time>
  <course>11.05</course>
  <speed>1.7848809484108457</speed>
  <fix>3d</fix>
</trkpt>
<trkpt lat="33.8103248" lon="-118.3940649">
  <ele>-0.1</ele>
  <time>2026-09-01T01:13:04Z</time>
  <course>278.54</course>
  <speed>1.82</speed>
  <fix>3d</fix>
</trkpt>
<trkpt lat="33.810325" lon="-118.3940694">
  <ele>-0.103</ele>
  <time>2026-09-01T01:13:04Z</time>
  <course>11.07</course>
  <speed>1.7848809484108457</speed>
  <fix>3d</fix>
</trkpt>
<trkpt lat="33.8103248" lon="-118.3940649">
  <ele>-0.1</ele>
  <time>2026-09-01T01:13:04Z</time>
  <course>278.54</course>
  <speed>1.82</speed>
  <fix>3d</fix>
</trkpt>
<trkpt lat="33.8103252" lon="-118.3940713">
  <ele>-0.105</ele>
  <time>2026-09-01T01:13:04Z</time>
  <course>11.09</course>
  <speed>1.7848809484108457</speed>
  <fix>3d</fix>
</trkpt>
<trkpt lat="33.8103252" lon="-118.3940688">
  <ele>-0.1</ele>
  <time>2026-09-01T01:13:04Z</time>
  <course>278.57</course>
  <speed>1.82</speed>
  <fix>3d</fix>
</trkpt>
<trkpt lat="33.8103255" lon="-118.3940733">
  <ele>-0.106</ele>
  <time>2026-09-01T01:13:04Z</time>
  <course>11.11</course>
  <speed>1.7848809484108457</speed>
  <fix>3d</fix>
</trkpt>
<trkpt lat="33.8103252" lon="-118.3940688">
  <ele>-0.1</ele>
  <time>2026-09-01T01:13:04Z</time>
  <course>278.57</course>
  <speed>1.82</speed>
  <fix>3d</fix>
</trkpt>
<trkpt lat="33.8103257" lon="-118.3940752">
  <ele>-0.106</ele>
  <time>2026-09-01T01:13:04Z</time>
  <course>11.13</course>
  <speed>1.7848809484108457</speed>
  <fix>3d</fix>
</trkpt>
<trkpt lat="33.8103257" lon="-118.3940727">
  <ele>-0.1</ele>
  <time>2026-09-01T01:13:04Z</time>
  <course>278.61</course>
  <speed>1.82</speed>
  <fix>3d</fix>
</trkpt>
<trkpt lat="33.810326" lon="-118.3940772">
  <ele>-0.106</ele>
  <time>2026-09-01T01:13:04Z</time>
  <course>11.15</course>
  <speed>1.7848809484108457</speed>
  <fix>3d</fix>
</trkpt>
<trkpt lat="33.8103257" lon="-118.3940727">
  <ele>-0.1</ele>
  <time>2026-09-01T01:13:04Z</time>
  <course>278.61</course>
  <speed>1.82</speed>
  <fix>3d</fix>
</trkpt>
<trkpt lat="33.8103262" lon="-118.3940791">
  <ele>-0.105</ele>
  <time>2026-09-01T01:13:04Z</time>
  <course>11.16</course>
  <speed>1.7848809484108457</speed>
  <fix>3d</fix>
</trkpt>
<trkpt lat="33.8103262" lon="-118.3940766">
  <ele>-0.1</ele>
  <time>2026-09-01T01:13:04Z</time>
  <course>278.65</course>
  <speed>1.82</speed>
  <fix>3d</fix>
</trkpt>
<trkpt lat="33.8103265" lon="-118.394081">
  <ele>-0.105</ele>
  <time>2026-09-01T01:13:04Z</time>
  <course>11.18</course>
  <speed>1.7848809484108457</speed>
  <fix>3d</fix>
</trkpt>
<trkpt lat="33.8103262" lon="-118.3940766">
  <ele>-0.1</ele>
  <time>2026-09-01T01:13:04Z</time>
  <course>278.65</course>
  <speed>1.82</speed>
  <fix>3d</fix>
</trkpt>
<trkpt lat="33.8103267" lon="-118.394083">
  <ele>-0.104</ele>
  <time>2026-09-01T01:13:04Z</time>
  <course>11.2</course>
  <speed>1.7848809484108457</speed>
  <fix>3d</fix>
</trkpt>
<trkpt lat="33.8103267" lon="-118.3940805">
  <ele>-0.1</ele>
  <time>2026-09-01T01:13:04Z</time>
  <course>278.69</course>
  <speed>1.82</speed>
  <fix>3d</fix>
</trkpt>
<trkpt lat="33.810327" lon="-118.3940849">
  <ele>-0.104</ele>
  <time>2026-09-01T01:13:04Z</time>
  <course>11.22</course>
  <speed>1.7848809484108457</speed>
  <fix>3d</fix>
</trkpt>
<trkpt lat="33.8103267" lon="-118.3940805">
  <ele>-0.1</ele>
  <time>2026-09-01T01:13:04Z</time>
  <course>278.69</course>
  <speed>1.82</speed>
  <fix>3d</fix>
</trkpt>
<trkpt lat="33.8103272" lon="-118.3940869">
  <ele>-0.104</ele>
  <time>2026-09-01T01:13:04Z</time>
  <course>11.24</course>
  <speed>1.7861970775925036</speed>
  <fix>3d</fix>
</trkpt>
<trkpt lat="33.8103272" lon="-118.3940844">
  <ele>-0.1</ele>
  <time>2026-09-01T01:13:04Z</time>
  <course>278.73</course>
  <speed>1.82</speed>
  <fix>3d</fix>
</trkpt>
<trkpt lat="33.8103274" lon="-118.3940888">
  <ele>-0.105</ele>
  <time>2026-09-01T01:13:04Z</time>
  <course>11.26</course>
  <speed>1.7861970775925036</speed>
  <fix>3d</fix>
</trkpt>
<trkpt lat="33.8103272" lon="-118.3940844">
  <ele>-0.1</ele>
  <time>2026-09-01T01:13:04Z</time>
  <course>278.73</course>
  <speed>1.82</speed>
  <fix>3d</fix>
</trkpt>
<trkpt lat="33.8103277" lon="-118.3940908">
  <ele>-0.106</ele>
  <time>2026-09-01T01:13:04Z</time>
  <course>11.27</course>
  <speed>1.7861970775925036</speed>
  <fix>3d</fix>
</trkpt>
<trkpt lat="33.8103277" lon="-118.3940883">
  <ele>-0.1</ele>
  <time>2026-09-01T01:13:04Z</time>
  <course>278.77</course>
  <speed>1.82</speed>
  <fix>3d</fix>
</trkpt>
<trkpt lat="33.810328" lon="-118.3940927">
  <ele>-0.106</ele>
  <time>2026-09-01T01:13:04Z</time>
  <course>11.29</course>
  <speed>1.7861970775925036</speed>
  <fix>3d</fix>
</trkpt>
<trkpt lat="33.8103277" lon="-118.3940883">
  <ele>-0.1</ele>
  <time>2026-09-01T01:13:04Z</time>
  <course>278.77</course>
  <speed>1.82</speed>
  <fix>3d</fix>
</trkpt>
<trkpt lat="33.8103282" lon="-118.3940947">
  <ele>-0.108</ele>
  <time>2026-09-01T01:13:04Z</time>
  <course>11.31</course>
  <speed>1.7861970775925036</speed>
  <fix>3d</fix>
</trkpt>
<trkpt lat="33.8103282" lon="-118.3940922">
  <ele>-0.1</ele>
  <time>2026-09-01T01:13:04Z</time>
  <course>278.81</course>
  <speed>1.82</speed>
  <fix>3d</fix>
</trkpt>
<trkpt lat="33.8103285" lon="-118.3940966">
  <ele>-0.11</ele>
  <time>2026-09-01T01:13:04Z</time>
  <course>11.33</course>
  <speed>1.7861970775925036</speed>
  <fix>3d</fix>
</trkpt>
<trkpt lat="33.8103282" lon="-118.3940922">
  <ele>-0.1</ele>
  <time>2026-09-01T01:13:04Z</time>
  <course>278.81</course>
  <speed>1.82</speed>
  <fix>3d</fix>
</trkpt>
<trkpt lat="33.8103287" lon="-118.3940986">
  <ele>-0.111</ele>
  <time>2026-09-01T01:13:04Z</time>
  <course>11.34</course>
  <speed>1.7861970775925036</speed>
  <fix>3d</fix>
</trkpt>
<trkpt lat="33.8103287" lon="-118.3940961">
  <ele>-0.1</ele>
  <time>2026-09-01T01:13:04Z</time>
  <course>278.85</course>
  <speed>1.82</speed>
  <fix>3d</fix>
</trkpt>
<trkpt lat="33.810329" lon="-118.3941005">
  <ele>-0.112</ele>
  <time>2026-09-01T01:13:04Z</time>
  <course>11.36</course>
  <speed>1.7861970775925036</speed>
  <fix>3d</fix>
</trkpt>
<trkpt lat="33.8103287" lon="-118.3940961">
  <ele>-0.1</ele>
  <time>2026-09-01T01:13:04Z</time>
  <course>278.85</course>
  <speed>1.82</speed>
  <fix>3d</fix>
</trkpt>
<trkpt lat="33.8103292" lon="-118.3941025">
  <ele>-0.114</ele>
  <time>2026-09-01T01:13:04Z</time>
  <course>11.38</course>
  <speed>1.7861970775925036</speed>
  <fix>3d</fix>
</trkpt>
<trkpt lat="33.8103292" lon="-118.3941">
  <ele>-0.1</ele>
  <time>2026-09-01T01:13:04Z</time>
  <course>278.88</course>
  <speed>1.82</speed>
  <fix>3d</fix>
</trkpt>
<trkpt lat="33.8103295" lon="-118.3941044">
  <ele>-0.114</ele>
  <time>2026-09-01T01:13:04Z</time>
  <course>11.4</course>
  <speed>1.7861970775925036</speed>
  <fix>3d</fix>
</trkpt>
<trkpt lat="33.8103292" lon="-118.3941">
  <ele>-0.1</ele>
  <time>2026-09-01T01:13:04Z</time>
  <course>278.88</course>
  <speed>1.82</speed>
  <fix>3d</fix>
</trkpt>
<trkpt lat="33.8103297" lon="-118.3941064">
  <ele>-0.114</ele>
  <time>2026-09-01T01:13:04Z</time>
  <course>11.41</course>
  <speed>1.7861970775925036</speed>
  <fix>3d</fix>
</trkpt>
<trkpt lat="33.8103297" lon="-118.3941039">
  <ele>-0.1</ele>
  <time>2026-09-01T01:13:04Z</time>
  <course>278.92</course>
  <speed>1.82</speed>
  <fix>3d</fix>
</trkpt>
<trkpt lat="33.81033" lon="-118.3941083">
  <ele>-0.113</ele>
  <time>2026-09-01T01:13:04Z</time>
  <course>11.43</course>
  <speed>1.7861970775925036</speed>
  <fix>3d</fix>
</trkpt>
<trkpt lat="33.8103297" lon="-118.3941039">
  <ele>-0.1</ele>
  <time>2026-09-01T01:13:04Z</time>
  <course>278.92</course>
  <speed>1.82</speed>
  <fix>3d</fix>
</trkpt>
<trkpt lat="33.8103302" lon="-118.3941103">
  <ele>-0.113</ele>
  <time>2026-09-01T01:13:04Z</time>
  <course>11.45</course>
  <speed>1.787568180517879</speed>
  <fix>3d</fix>
</trkpt>
<trkpt lat="33.8103302" lon="-118.3941077">
  <ele>-0.1</ele>
  <time>2026-09-01T01:13:04Z</time>
  <course>278.96</course>
  <speed>1.82</speed>
  <fix>3d</fix>
</trkpt>
<trkpt lat="33.8103305" lon="-118.3941122">
  <ele>-0.113</ele>
  <time>2026-09-01T01:13:04Z</time>
  <course>11.46</course>
  <speed>1.787568180517879</speed>
  <fix>3d</fix>
</trkpt>
<trkpt lat="33.8103302" lon="-118.3941077">
  <ele>-0.1</ele>
  <time>2026-09-01T01:13:04Z</time>
  <course>278.96</course>
  <speed>1.82</speed>
  <fix>3d</fix>
</trkpt>
<trkpt lat="33.8103307" lon="-118.3941142">
  <ele>-0.114</ele>
  <time>2026-09-01T01:13:04Z</time>
  <course>11.48</course>
  <speed>1.787568180517879</speed>
  <fix>3d</fix>
</trkpt>
<trkpt lat="33.8103307" lon="-118.3941116">
  <ele>-0.1</ele>
  <time>2026-09-01T01:13:04Z</time>
  <course>279.0</course>
  <speed>1.82</speed>
  <fix>3d</fix>
</trkpt>
<trkpt lat="33.810331" lon="-118.3941161">
  <ele>-0.114</ele>
  <time>2026-09-01T01:13:04Z</time>
  <course>11.5</course>
  <speed>1.787568180517879</speed>
  <fix>3d</fix>
</trkpt>
<trkpt lat="33.8103307" lon="-118.3941116">
  <ele>-0.1</ele>
  <time>2026-09-01T01:13:04Z</time>
  <course>279.0</course>
  <speed>1.82</speed>
  <fix>3d</fix>
</trkpt>
<trkpt lat="33.8103313" lon="-118.3941181">
  <ele>-0.114</ele>
  <time>2026-09-01T01:13:04Z</time>
  <course>11.51</course>
  <speed>1.787568180517879</speed>
  <fix>3d</fix>
</trkpt>
<trkpt lat="33.8103313" lon="-118.3941155">
  <ele>-0.1</ele>
  <time>2026-09-01T01:13:04Z</time>
  <course>279.03</course>
  <speed>1.82</speed>
  <fix>3d</fix>
</trkpt>
<trkpt lat="33.8103315" lon="-118.39412">
  <ele>-0.114</ele>
  <time>2026-09-01T01:13:04Z</time>
  <course>11.53</course>
  <speed>1.787568180517879</speed>
  <fix>3d</fix>
</trkpt>
<trkpt lat="33.8103313" lon="-118.3941155">
  <ele>-0.1</ele>
  <time>2026-09-01T01:13:04Z</time>
  <course>279.03</course>
  <speed>1.82</speed>
  <fix>3d</fix>
</trkpt>
<trkpt lat="33.8103318" lon="-118.394122">
  <ele>-0.113</ele>
  <time>2026-09-01T01:13:04Z</time>
  <course>11.54</course>
  <speed>1.787568180517879</speed>
  <fix>3d</fix>
</trkpt>
<trkpt lat="33.8103318" lon="-118.3941194">
  <ele>-0.1</ele>
  <time>2026-09-01T01:13:04Z</time>
  <course>279.07</course>
  <speed>1.82</speed>
  <fix>3d</fix>
</trkpt>
<trkpt lat="33.8103321" lon="-118.3941239">
  <ele>-0.111</ele>
  <time>2026-09-01T01:13:04Z</time>
  <course>11.56</course>
  <speed>1.787568180517879</speed>
  <fix>3d</fix>
</trkpt>
<trkpt lat="33.8103318" lon="-118.3941194">
  <ele>-0.1</ele>
  <time>2026-09-01T01:13:04Z</time>
  <course>279.07</course>
  <speed>1.82</speed>
  <fix>3d</fix>
</trkpt>
<trkpt lat="33.8103323" lon="-118.3941258">
  <ele>-0.11</ele>
  <time>2026-09-01T01:13:04Z</time>
  <course>11.58</course>
  <speed>1.787568180517879</speed>
  <fix>3d</fix>
</trkpt>
<trkpt lat="33.8103323" lon="-118.3941233">
  <ele>-0.1</ele>
  <time>2026-09-01T01:13:04Z</time>
  <course>279.11</course>
  <speed>1.82</speed>
  <fix>3d</fix>
</trkpt>
<trkpt lat="33.8103326" lon="-118.3941278">
  <ele>-0.109</ele>
  <time>2026-09-01T01:13:04Z</time>
  <course>11.59</course>
  <speed>1.787568180517879</speed>
  <fix>3d</fix>
</trkpt>
<trkpt lat="33.8103323" lon="-118.3941233">
  <ele>-0.1</ele>
  <time>2026-09-01T01:13:04Z</time>
  <course>279.11</course>
  <speed>1.82</speed>
  <fix>3d</fix>
</trkpt>
<trkpt lat="33.8103328" lon="-118.3941297">
  <ele>-0.109</ele>
  <time>2026-09-01T01:13:04Z</time>
  <course>11.61</course>
  <speed>1.787568180517879</speed>
  <fix>3d</fix>
</trkpt>
<trkpt lat="33.8103328" lon="-118.3941272">
  <ele>-0.1</ele>
  <time>2026-09-01T01:13:04Z</time>
  <course>279.14</course>
  <speed>1.82</speed>
  <fix>3d</fix>
</trkpt>
<trkpt lat="33.8103331" lon="-118.3941317">
  <ele>-0.11</ele>
  <time>2026-09-01T01:13:04Z</time>
  <course>11.62</course>
  <speed>1.787568180517879</speed>
  <fix>3d</fix>
</trkpt>
<trkpt lat="33.8103328" lon="-118.3941272">
  <ele>-0.1</ele>
  <time>2026-09-01T01:13:04Z</time>
  <course>279.14</course>
  <speed>1.82</speed>
  <fix>3d</fix>
</trkpt>
<trkpt lat="33.8103334" lon="-118.3941336">
  <ele>-0.11</ele>
  <time>2026-09-01T01:13:04Z</time>
  <course>11.64</course>
  <speed>1.787568180517879</speed>
  <fix>3d</fix>
</trkpt>
<trkpt lat="33.8103333" lon="-118.3941311">
  <ele>-0.1</ele>
  <time>2026-09-01T01:13:04Z</time>
  <course>279.18</course>
  <speed>1.82</speed>
  <fix>3d</fix>
</trkpt>
<trkpt lat="33.8103336" lon="-118.3941356">
  <ele>-0.11</ele>
  <time>2026-09-01T01:13:04Z</time>
  <course>11.66</course>
  <speed>1.7889941307897015</speed>
  <fix>3d</fix>
</trkpt>
<trkpt lat="33.8103333" lon="-118.3941311">
  <ele>-0.1</ele>
  <time>2026-09-01T01:13:04Z</time>
  <course>279.18</course>
  <speed>1.82</speed>
  <fix>3d</fix>
</trkpt>
<trkpt lat="33.8103339" lon="-118.3941375">
  <ele>-0.109</ele>
  <time>2026-09-01T01:13:04Z</time>
  <course>11.67</course>
  <speed>1.7889941307897015</speed>
  <fix>3d</fix>
</trkpt>
<trkpt lat="33.8103339" lon="-118.394135">
  <ele>-0.1</ele>
  <time>2026-09-01T01:13:05Z</time>
  <course>279.21</course>
  <speed>1.82</speed>
  <fix>3d</fix>
</trkpt>
<trkpt lat="33.8103342" lon="-118.3941395">
  <ele>-0.109</ele>
  <time>2026-09-01T01:13:05Z</time>
  <course>11.69</course>
  <speed>1.7889941307897015</speed>
  <fix>3d</fix>
</trkpt>
<trkpt lat="33.8103339" lon="-118.394135">
  <ele>-0.1</ele>
  <time>2026-09-01T01:13:05Z</time>
  <course>279.21</course>
  <speed>1.82</speed>
  <fix>3d</fix>
</trkpt>
<trkpt lat="33.8103344" lon="-118.3941414">
  <ele>-0.109</ele>
  <time>2026-09-01T01:13:05Z</time>
  <course>11.7</course>
  <speed>1.7889941307897015</speed>
  <fix>3d</fix>
</trkpt>
<trkpt lat="33.8103344" lon="-118.3941389">
  <ele>-0.1</ele>
  <time>2026-09-01T01:13:05Z</time>
  <course>279.25</course>
  <speed>1.82</speed>
  <fix>3d</fix>
</trkpt>
<trkpt lat="33.8103347" lon="-118.3941434">
  <ele>-0.109</ele>
  <time>2026-09-01T01:13:05Z</time>
  <course>11.72</course>
  <speed>1.7889941307897015</speed>
  <fix>3d</fix>
</trkpt>
<trkpt lat="33.8103344" lon="-118.3941389">
  <ele>-0.1</ele>
  <time>2026-09-01T01:13:05Z</time>
  <course>279.25</course>
  <speed>1.82</speed>
  <fix>3d</fix>
</trkpt>
<trkpt lat="33.810335" lon="-118.3941453">
  <ele>-0.109</ele>
  <time>2026-09-01T01:13:05Z</time>
  <course>11.73</course>
  <speed>1.7889941307897015</speed>
  <fix>3d</fix>
</trkpt>
<trkpt lat="33.8103349" lon="-118.3941427">
  <ele>-0.1</ele>
  <time>2026-09-01T01:13:05Z</time>
  <course>279.28</course>
  <speed>1.82</speed>
  <fix>3d</fix>
</trkpt>
<trkpt lat="33.8103352" lon="-118.3941473">
  <ele>-0.109</ele>
  <time>2026-09-01T01:13:05Z</time>
  <course>11.75</course>
  <speed>1.7889941307897015</speed>
  <fix>3d</fix>
</trkpt>
<trkpt lat="33.8103349" lon="-118.3941427">
  <ele>-0.1</ele>
  <time>2026-09-01T01:13:05Z</time>
  <course>279.28</course>
  <speed>1.82</speed>
  <fix>3d</fix>
</trkpt>
<trkpt lat="33.8103355" lon="-118.3941492">
  <ele>-0.109</ele>
  <time>2026-09-01T01:13:05Z</time>
  <course>11.76</course>
  <speed>1.7889941307897015</speed>
  <fix>3d</fix>
</trkpt>
<trkpt lat="33.8103354" lon="-118.3941466">
  <ele>-0.1</ele>
  <time>2026-09-01T01:13:05Z</time>
  <course>279.32</course>
  <speed>1.82</speed>
  <fix>3d</fix>
</trkpt>
<trkpt lat="33.8103358" lon="-118.3941512">
  <ele>-0.11</ele>
  <time>2026-09-01T01:13:05Z</time>
  <course>11.78</course>
  <speed>1.7889941307897015</speed>
  <fix>3d</fix>
</trkpt>
<trkpt lat="33.8103354" lon="-118.3941466">
  <ele>-0.1</ele>
  <time>2026-09-01T01:13:05Z</time>
  <course>279.32</course>
  <speed>1.82</speed>
  <fix>3d</fix>
</trkpt>
<trkpt lat="33.810336" lon="-118.3941531">
  <ele>-0.111</ele>
  <time>2026-09-01T01:13:05Z</time>
  <course>11.79</course>
  <speed>1.7889941307897015</speed>
  <fix>3d</fix>
</trkpt>
<trkpt lat="33.8103359" lon="-118.3941505">
  <ele>-0.1</ele>
  <time>2026-09-01T01:13:05Z</time>
  <course>279.35</course>
  <speed>1.82</speed>
  <fix>3d</fix>
</trkpt>
<trkpt lat="33.8103363" lon="-118.3941551">
  <ele>-0.113</ele>
  <time>2026-09-01T01:13:05Z</time>
  <course>11.81</course>
  <speed>1.7889941307897015</speed>
  <fix>3d</fix>
</trkpt>
<trkpt lat="33.8103359" lon="-118.3941505">
  <ele>-0.1</ele>
  <time>2026-09-01T01:13:05Z</time>
  <course>279.35</course>
  <speed>1.82</speed>
  <fix>3d</fix>
</trkpt>
<trkpt lat="33.8103366" lon="-118.394157">
  <ele>-0.114</ele>
  <time>2026-09-01T01:13:05Z</time>
  <course>11.82</course>
  <speed>1.7889941307897015</speed>
  <fix>3d</fix>
</trkpt>
<trkpt lat="33.8103365" lon="-118.3941544">
  <ele>-0.1</ele>
  <time>2026-09-01T01:13:05Z</time>
  <course>279.38</course>
  <speed>1.82</speed>
  <fix>3d</fix>
</trkpt>
<trkpt lat="33.8103368" lon="-118.394159">
  <ele>-0.114</ele>
  <time>2026-09-01T01:13:05Z</time>
  <course>11.83</course>
  <speed>1.7889941307897015</speed>
  <fix>3d</fix>
</trkpt>
<trkpt lat="33.8103365" lon="-118.3941544">
  <ele>-0.1</ele>
  <time>2026-09-01T01:13:05Z</time>
  <course>279.38</course>
  <speed>1.82</speed>
  <fix>3d</fix>
</trkpt>
<trkpt lat="33.8103371" lon="-118.3941609">
  <ele>-0.114</ele>
  <time>2026-09-01T01:13:05Z</time>
  <course>11.85</course>
  <speed>1.7889941307897015</speed>
  <fix>3d</fix>
</trkpt>
<trkpt lat="33.810337" lon="-118.3941583">
  <ele>-0.1</ele>
  <time>2026-09-01T01:13:05Z</time>
  <course>279.42</course>
  <speed>1.82</speed>
  <fix>3d</fix>
</trkpt>
<trkpt lat="33.8103374" lon="-118.3941629">
  <ele>-0.113</ele>
  <time>2026-09-01T01:13:05Z</time>
  <course>11.86</course>
  <speed>1.7889941307897015</speed>
  <fix>3d</fix>
</trkpt>
<trkpt lat="33.810337" lon="-118.3941583">
  <ele>-0.1</ele>
  <time>2026-09-01T01:13:05Z</time>
  <course>279.42</course>
  <speed>1.82</speed>
  <fix>3d</fix>
</trkpt>
<trkpt lat="33.8103376" lon="-118.3941648">
  <ele>-0.112</ele>
  <time>2026-09-01T01:13:05Z</time>
  <course>11.88</course>
  <speed>1.7904747973652129</speed>
  <fix>3d</fix>
</trkpt>
<trkpt lat="33.8103375" lon="-118.3941622">
  <ele>-0.1</ele>
  <time>2026-09-01T01:13:05Z</time>
  <course>279.45</course>
  <speed>1.82</speed>
  <fix>3d</fix>
</trkpt>
<trkpt lat="33.8103379" lon="-118.3941667">
  <ele>-0.111</ele>
  <time>2026-09-01T01:13:05Z</time>
  <course>11.89</course>
  <speed>1.7904747973652129</speed>
  <fix>3d</fix>
</trkpt>
<trkpt lat="33.8103375" lon="-118.3941622">
  <ele>-0.1</ele>
  <time>2026-09-01T01:13:05Z</time>
  <course>279.45</course>
  <speed>1.82</speed>
  <fix>3d</fix>
</trkpt>
<trkpt lat="33.8103382" lon="-118.3941687">
  <ele>-0.11</ele>
  <time>2026-09-01T01:13:05Z</time>
  <course>11.91</course>
  <speed>1.7904747973652129</speed>
  <fix>3d</fix>
</trkpt>
<trkpt lat="33.8103381" lon="-118.3941661">
  <ele>-0.1</ele>
  <time>2026-09-01T01:13:05Z</time>
  <course>279.48</course>
  <speed>1.82</speed>
  <fix>3d</fix>
</trkpt>
<trkpt lat="33.8103385" lon="-118.3941706">
  <ele>-0.111</ele>
  <time>2026-09-01T01:13:05Z</time>
  <course>11.92</course>
  <speed>1.7904747973652129</speed>
  <fix>3d</fix>
</trkpt>
<trkpt lat="33.8103381" lon="-118.3941661">
  <ele>-0.1</ele>
  <time>2026-09-01T01:13:05Z</time>
  <course>279.48</course>
  <speed>1.82</speed>
  <fix>3d</fix>
</trkpt>
<trkpt lat="33.8103387" lon="-118.3941726">
  <ele>-0.111</ele>
  <time>2026-09-01T01:13:05Z</time>
  <course>11.93</course>
  <speed>1.7904747973652129</speed>
  <fix>3d</fix>
</trkpt>
<trkpt lat="33.8103387" lon="-118.3941699">
  <ele>-0.1</ele>
  <time>2026-09-01T01:13:05Z</time>
  <course>279.51</course>
  <speed>1.82</speed>
  <fix>3d</fix>
</trkpt>
<trkpt lat="33.810339" lon="-118.3941745">
  <ele>-0.111</ele>
  <time>2026-09-01T01:13:05Z</time>
  <course>11.95</course>
  <speed>1.7904747973652129</speed>
  <fix>3d</fix>
</trkpt>
<trkpt lat="33.8103387" lon="-118.3941699">
  <ele>-0.1</ele>
  <time>2026-09-01T01:13:05Z</time>
  <course>279.51</course>
  <speed>1.82</speed>
  <fix>3d</fix>
</trkpt>
<trkpt lat="33.8103393" lon="-118.3941765">
  <ele>-0.111</ele>
  <time>2026-09-01T01:13:05Z</time>
  <course>11.96</course>
  <speed>1.7904747973652129</speed>
  <fix>3d</fix>
</trkpt>
<trkpt lat="33.8103392" lon="-118.3941738">
  <ele>-0.1</ele>
  <time>2026-09-01T01:13:05Z</time>
  <course>279.55</course>
  <speed>1.82</speed>
  <fix>3d</fix>
</trkpt>
<trkpt lat="33.8103396" lon="-118.3941784">
  <ele>-0.11</ele>
  <time>2026-09-01T01:13:05Z</time>
  <course>11.97</course>
  <speed>1.7904747973652129</speed>
  <fix>3d</fix>
</trkpt>
<trkpt lat="33.8103392" lon="-118.3941738">
  <ele>-0.1</ele>
  <time>2026-09-01T01:13:05Z</time>
  <course>279.55</course>
  <speed>1.82</speed>
  <fix>3d</fix>
</trkpt>
<trkpt lat="33.8103398" lon="-118.3941804">
  <ele>-0.109</ele>
  <time>2026-09-01T01:13:05Z</time>
  <course>11.99</course>
  <speed>1.7904747973652129</speed>
  <fix>3d</fix>
</trkpt>
<trkpt lat="33.8103397" lon="-118.3941777">
  <ele>-0.1</ele>
  <time>2026-09-01T01:13:05Z</time>
  <course>279.58</course>
  <speed>1.82</speed>
  <fix>3d</fix>
</trkpt>
<trkpt lat="33.8103401" lon="-118.3941823">
  <ele>-0.107</ele>
  <time>2026-09-01T01:13:05Z</time>
  <course>12.0</course>
  <speed>1.7904747973652129</speed>
  <fix>3d</fix>
</trkpt>
<trkpt lat="33.8103397" lon="-118.3941777">
  <ele>-0.1</ele>
  <time>2026-09-01T01:13:05Z</time>
  <course>279.58</course>
  <speed>1.82</speed>
  <fix>3d</fix>
</trkpt>
<trkpt lat="33.8103404" lon="-118.3941842">
  <ele>-0.106</ele>
  <time>2026-09-01T01:13:05Z</time>
  <course>12.02</course>
  <speed>1.7904747973652129</speed>
  <fix>3d</fix>
</trkpt>
<trkpt lat="33.8103402" lon="-118.3941816">
  <ele>-0.1</ele>
  <time>2026-09-01T01:13:05Z</time>
  <course>279.61</course>
  <speed>1.82</speed>
  <fix>3d</fix>
</trkpt>
<trkpt lat="33.8103406" lon="-118.3941862">
  <ele>-0.105</ele>
  <time>2026-09-01T01:13:05Z</time>
  <course>12.03</course>
  <speed>1.7904747973652129</speed>
  <fix>3d</fix>
</trkpt>
<trkpt lat="33.8103402" lon="-118.3941816">
  <ele>-0.1</ele>
  <time>2026-09-01T01:13:05Z</time>
  <course>279.61</course>
  <speed>1.82</speed>
  <fix>3d</fix>
</trkpt>
<trkpt lat="33.8103409" lon="-118.3941881">
  <ele>-0.104</ele>
  <time>2026-09-01T01:13:05Z</time>
  <course>12.04</course>
  <speed>1.7904747973652129</speed>
  <fix>3d</fix>
</trkpt>
<trkpt lat="33.8103408" lon="-118.3941855">
  <ele>-0.1</ele>
  <time>2026-09-01T01:13:05Z</time>
  <course>279.64</course>
  <speed>1.82</speed>
  <fix>3d</fix>
</trkpt>
<trkpt lat="33.8103412" lon="-118.3941901">
  <ele>-0.104</ele>
  <time>2026-09-01T01:13:05Z</time>
  <course>12.06</course>
  <speed>1.7904747973652129</speed>
  <fix>3d</fix>
</trkpt>
<trkpt lat="33.8103408" lon="-118.3941855">
  <ele>-0.1</ele>
  <time>2026-09-01T01:13:05Z</time>
  <course>279.64</course>
  <speed>1.82</speed>
  <fix>3d</fix>
</trkpt>
<trkpt lat="33.8103415" lon="-118.394192">
  <ele>-0.103</ele>
  <time>2026-09-01T01:13:05Z</time>
  <course>12.07</course>
  <speed>1.7904747973652129</speed>
  <fix>3d</fix>
</trkpt>
<trkpt lat="33.8103414" lon="-118.3941894">
  <ele>-0.1</ele>
  <time>2026-09-01T01:13:05Z</time>
  <course>279.67</course>
  <speed>1.82</speed>
  <fix>3d</fix>
</trkpt>
<trkpt lat="33.8103417" lon="-118.394194">
  <ele>-0.103</ele>
  <time>2026-09-01T01:13:05Z</time>
  <course>12.08</course>
  <speed>1.7904747973652129</speed>
  <fix>3d</fix>
</trkpt>
<trkpt lat="33.8103414" lon="-118.3941894">
  <ele>-0.1</ele>
  <time>2026-09-01T01:13:05Z</time>
  <course>279.67</course>
  <speed>1.82</speed>
  <fix>3d</fix>
</trkpt>
<trkpt lat="33.810342" lon="-118.3941959">
  <ele>-0.103</ele>
  <time>2026-09-01T01:13:05Z</time>
  <course>12.09</course>
  <speed>1.7904747973652129</speed>
  <fix>3d</fix>
</trkpt>
<trkpt lat="33.8103419" lon="-118.3941933">
  <ele>-0.1</ele>
  <time>2026-09-01T01:13:05Z</time>
  <course>279.7</course>
  <speed>1.82</speed>
  <fix>3d</fix>
</trkpt>
<trkpt lat="33.8103423" lon="-118.3941979">
  <ele>-0.102</ele>
  <time>2026-09-01T01:13:05Z</time>
  <course>12.11</course>
  <speed>1.7904747973652129</speed>
  <fix>3d</fix>
</trkpt>
<trkpt lat="33.8103419" lon="-118.3941933">
  <ele>-0.1</ele>
  <time>2026-09-01T01:13:05Z</time>
  <course>279.7</course>
  <speed>1.82</speed>
  <fix>3d</fix>
</trkpt>
<trkpt lat="33.8103426" lon="-118.3941998">
  <ele>-0.102</ele>
  <time>2026-09-01T01:13:05Z</time>
  <course>12.12</course>
  <speed>1.7920100446147058</speed>
  <fix>3d</fix>
</trkpt>
<trkpt lat="33.8103425" lon="-118.3941971">
  <ele>-0.1</ele>
  <time>2026-09-01T01:13:05Z</time>
  <course>279.73</course>
  <speed>1.82</speed>
  <fix>3d</fix>
</trkpt>
<trkpt lat="33.8103429" lon="-118.3942018">
  <ele>-0.101</ele>
  <time>2026-09-01T01:13:05Z</time>
  <course>12.13</course>
  <speed>1.7920100446147058</speed>
  <fix>3d</fix>
</trkpt>
<trkpt lat="33.8103425" lon="-118.3941971">
  <ele>-0.1</ele>
  <time>2026-09-01T01:13:05Z</time>
  <course>279.73</course>
  <speed>1.82</speed>
  <fix>3d</fix>
</trkpt>
<trkpt lat="33.8103431" lon="-118.3942037">
  <ele>-0.1</ele>
  <time>2026-09-01T01:13:05Z</time>
  <course>12.15</course>
  <speed>1.7920100446147058</speed>
  <fix>3d</fix>
</trkpt>
<trkpt lat="33.8103431" lon="-118.394201">
  <ele>-0.1</ele>
  <time>2026-09-01T01:13:05Z</time>
  <course>279.76</course>
  <speed>1.82</speed>
  <fix>3d</fix>
</trkpt>
<trkpt lat="33.8103434" lon="-118.3942056">
  <ele>-0.1</ele>
  <time>2026-09-01T01:13:05Z</time>
  <course>12.16</course>
  <speed>1.7920100446147058</speed>
  <fix>3d</fix>
</trkpt>
<trkpt lat="33.8103431" lon="-118.394201">
  <ele>-0.1</ele>
  <time>2026-09-01T01:13:05Z</time>
  <course>279.76</course>
  <speed>1.82</speed>
  <fix>3d</fix>
</trkpt>
<trkpt lat="33.8103437" lon="-118.3942076">
  <ele>-0.099</ele>
  <time>2026-09-01T01:13:05Z</time>
  <course>12.17</course>
  <speed>1.7920100446147058</speed>
  <fix>3d</fix>
</trkpt>
<trkpt lat="33.8103436" lon="-118.3942049">
  <ele>-0.1</ele>
  <time>2026-09-01T01:13:05Z</time>
  <course>279.79</course>
  <speed>1.82</speed>
  <fix>3d</fix>
</trkpt>
<trkpt lat="33.810344" lon="-118.3942095">
  <ele>-0.1</ele>
  <time>2026-09-01T01:13:05Z</time>
  <course>12.18</course>
  <speed>1.7920100446147058</speed>
  <fix>3d</fix>
</trkpt>
<trkpt lat="33.8103436" lon="-118.3942049">
  <ele>-0.1</ele>
  <time>2026-09-01T01:13:05Z</time>
  <course>279.79</course>
  <speed>1.82</speed>
  <fix>3d</fix>
</trkpt>
<trkpt lat="33.8103443" lon="-118.3942115">
  <ele>-0.1</ele>
  <time>2026-09-01T01:13:05Z</time>
  <course>12.19</course>
  <speed>1.7920100446147058</speed>
  <fix>3d</fix>
</trkpt>
<trkpt lat="33.8103442" lon="-118.3942088">
  <ele>-0.1</ele>
  <time>2026-09-01T01:13:05Z</time>
  <course>279.82</course>
  <speed>1.82</speed>
  <fix>3d</fix>
</trkpt>
<trkpt lat="33.8103446" lon="-118.3942134">
  <ele>-0.101</ele>
  <time>2026-09-01T01:13:05Z</time>
  <course>12.21</course>
  <speed>1.7920100446147058</speed>
  <fix>3d</fix>
</trkpt>
<trkpt lat="33.8103442" lon="-118.3942088">
  <ele>-0.1</ele>
  <time>2026-09-01T01:13:05Z</time>
  <course>279.82</course>
  <speed>1.82</speed>
  <fix>3d</fix>
</trkpt>
<trkpt lat="33.8103448" lon="-118.3942154">
  <ele>-0.101</ele>
  <time>2026-09-01T01:13:05Z</time>
  <course>12.22</course>
  <speed>1.7920100446147058</speed>
  <fix>3d</fix>
</trkpt>
<trkpt lat="33.8103447" lon="-118.3942127">
  <ele>-0.1</ele>
  <time>2026-09-01T01:13:05Z</time>
  <course>279.85</course>
  <speed>1.82</speed>
  <fix>3d</fix>
</trkpt>
<trkpt lat="33.8103451" lon="-118.3942173">
  <ele>-0.101</ele>
  <time>2026-09-01T01:13:05Z</time>
  <course>12.23</course>
  <speed>1.7920100446147058</speed>
  <fix>3d</fix>
</trkpt>
<trkpt lat="33.8103447" lon="-118.3942127">
  <ele>-0.1</ele>
  <time>2026-09-01T01:13:05Z</time>
  <course>279.85</course>
  <speed>1.82</speed>
  <fix>3d</fix>
</trkpt>
<trkpt lat="33.8103454" lon="-118.3942193">
  <ele>-0.102</ele>
  <time>2026-09-01T01:13:05Z</time>
  <course>12.24</course>
  <speed>1.7920100446147058</speed>
  <fix>3d</fix>
</trkpt>
<trkpt lat="33.8103452" lon="-118.3942165">
  <ele>-0.1</ele>
  <time>2026-09-01T01:13:05Z</time>
  <course>279.87</course>
  <speed>1.82</speed>
  <fix>3d</fix>
</trkpt>
<trkpt lat="33.8103457" lon="-118.3942212">
  <ele>-0.102</ele>
  <time>2026-09-01T01:13:05Z</time>
  <course>12.26</course>
  <speed>1.7920100446147058</speed>
  <fix>3d</fix>
</trkpt>
<trkpt lat="33.8103452" lon="-118.3942165">
  <ele>-0.1</ele>
  <time>2026-09-01T01:13:05Z</time>
  <course>279.87</course>
  <speed>1.82</speed>
  <fix>3d</fix>
</trkpt>
<trkpt lat="33.810346" lon="-118.3942231">
  <ele>-0.102</ele>
  <time>2026-09-01T01:13:05Z</time>
  <course>12.27</course>
  <speed>1.7920100446147058</speed>
  <fix>3d</fix>
</trkpt>
<trkpt lat="33.8103459" lon="-118.3942204">
  <ele>-0.1</ele>
  <time>2026-09-01T01:13:05Z</time>
  <course>279.9</course>
  <speed>1.82</speed>
  <fix>3d</fix>
</trkpt>
<trkpt lat="33.8103463" lon="-118.3942251">
  <ele>-0.103</ele>
  <time>2026-09-01T01:13:05Z</time>
  <course>12.28</course>
  <speed>1.7920100446147058</speed>
  <fix>3d</fix>
</trkpt>
<trkpt lat="33.8103459" lon="-118.3942204">
  <ele>-0.1</ele>
  <time>2026-09-01T01:13:05Z</time>
  <course>279.9</course>
  <speed>1.82</speed>
  <fix>3d</fix>
</trkpt>
<trkpt lat="33.8103465" lon="-118.394227">
  <ele>-0.103</ele>
  <time>2026-09-01T01:13:05Z</time>
  <course>12.29</course>
  <speed>1.7920100446147058</speed>
  <fix>3d</fix>
</trkpt>
<trkpt lat="33.8103464" lon="-118.3942243">
  <ele>-0.1</ele>
  <time>2026-09-01T01:13:05Z</time>
  <course>279.93</course>
  <speed>1.82</speed>
  <fix>3d</fix>
</trkpt>
<trkpt lat="33.8103468" lon="-118.394229">
  <ele>-0.104</ele>
  <time>2026-09-01T01:13:05Z</time>
  <course>12.3</course>
  <speed>1.7920100446147058</speed>
  <fix>3d</fix>
</trkpt>
<trkpt lat="33.8103464" lon="-118.3942243">
  <ele>-0.1</ele>
  <time>2026-09-01T01:13:05Z</time>
  <course>279.93</course>
  <speed>1.82</speed>
  <fix>3d</fix>
</trkpt>
<trkpt lat="33.8103471" lon="-118.3942309">
  <ele>-0.104</ele>
  <time>2026-09-01T01:13:05Z</time>
  <course>12.31</course>
  <speed>1.7920100446147058</speed>
  <fix>3d</fix>
</trkpt>
<trkpt lat="33.8103469" lon="-118.3942282">
  <ele>-0.1</ele>
  <time>2026-09-01T01:13:05Z</time>
  <course>279.96</course>
  <speed>1.82</speed>
  <fix>3d</fix>
</trkpt>
<trkpt lat="33.8103474" lon="-118.3942329">
  <ele>-0.105</ele>
  <time>2026-09-01T01:13:05Z</time>
  <course>12.33</course>
  <speed>1.7920100446147058</speed>
  <fix>3d</fix>
</trkpt>
<trkpt lat="33.8103469" lon="-118.3942282">
  <ele>-0.1</ele>
  <time>2026-09-01T01:13:05Z</time>
  <course>279.96</course>
  <speed>1.82</speed>
  <fix>3d</fix>
</trkpt>
<trkpt lat="33.8103477" lon="-118.3942348">
  <ele>-0.106</ele>
  <time>2026-09-01T01:13:05Z</time>
  <course>12.34</course>
  <speed>1.7920100446147058</speed>
  <fix>3d</fix>
</trkpt>
<trkpt lat="33.8103476" lon="-118.3942321">
  <ele>-0.1</ele>
  <time>2026-09-01T01:13:05Z</time>
  <course>279.98</course>
  <speed>1.82</speed>
  <fix>3d</fix>
</trkpt>
<trkpt lat="33.810348" lon="-118.3942367">
  <ele>-0.107</ele>
  <time>2026-09-01T01:13:05Z</time>
  <course>12.35</course>
  <speed>1.793599732381782</speed>
  <fix>3d</fix>
</trkpt>
<trkpt lat="33.8103476" lon="-118.3942321">
  <ele>-0.1</ele>
  <time>2026-09-01T01:13:05Z</time>
  <course>279.98</course>
  <speed>1.82</speed>
  <fix>3d</fix>
</trkpt>
<trkpt lat="33.8103483" lon="-118.3942387">
  <ele>-0.108</ele>
  <time>2026-09-01T01:13:05Z</time>
  <course>12.36</course>
  <speed>1.793599732381782</speed>
  <fix>3d</fix>
</trkpt>
<trkpt lat="33.8103481" lon="-118.3942359">
  <ele>-0.1</ele>
  <time>2026-09-01T01:13:05Z</time>
  <course>280.01</course>
  <speed>1.82</speed>
  <fix>3d</fix>
</trkpt>
<trkpt lat="33.8103485" lon="-118.3942406">
  <ele>-0.109</ele>
  <time>2026-09-01T01:13:05Z</time>
  <course>12.37</course>
  <speed>1.793599732381782</speed>
  <fix>3d</fix>
</trkpt>
<trkpt lat="33.8103481" lon="-118.3942359">
  <ele>-0.1</ele>
  <time>2026-09-01T01:13:05Z</time>
  <course>280.01</course>
  <speed>1.82</speed>
  <fix>3d</fix>
</trkpt>
<trkpt lat="33.8103488" lon="-118.3942425">
  <ele>-0.109</ele>
  <time>2026-09-01T01:13:05Z</time>
  <course>12.38</course>
  <speed>1.793599732381782</speed>
  <fix>3d</fix>
</trkpt>
<trkpt lat="33.8103486" lon="-118.3942398">
  <ele>-0.1</ele>
  <time>2026-09-01T01:13:05Z</time>
  <course>280.04</course>
  <speed>1.82</speed>
  <fix>3d</fix>
</trkpt>
<trkpt lat="33.8103491" lon="-118.3942445">
  <ele>-0.109</ele>
  <time>2026-09-01T01:13:05Z</time>
  <course>12.39</course>
  <speed>1.793599732381782</speed>
  <fix>3d</fix>
</trkpt>
<trkpt lat="33.8103486" lon="-118.3942398">
  <ele>-0.1</ele>
  <time>2026-09-01T01:13:05Z</time>
  <course>280.04</course>
  <speed>1.82</speed>
  <fix>3d</fix>
</trkpt>
<trkpt lat="33.8103494" lon="-118.3942464">
  <ele>-0.11</ele>
  <time>2026-09-01T01:13:05Z</time>
  <course>12.41</course>
  <speed>1.793599732381782</speed>
  <fix>3d</fix>
</trkpt>
<trkpt lat="33.8103493" lon="-118.3942437">
  <ele>-0.1</ele>
  <time>2026-09-01T01:13:05Z</time>
  <course>280.06</course>
  <speed>1.82</speed>
  <fix>3d</fix>
</trkpt>
<trkpt lat="33.8103497" lon="-118.3942484">
  <ele>-0.11</ele>
  <time>2026-09-01T01:13:05Z</time>
  <course>12.42</course>
  <speed>1.793599732381782</speed>
  <fix>3d</fix>
</trkpt>
<trkpt lat="33.8103493" lon="-118.3942437">
  <ele>-0.1</ele>
  <time>2026-09-01T01:13:05Z</time>
  <course>280.06</course>
  <speed>1.82</speed>
  <fix>3d</fix>
</trkpt>
<trkpt lat="33.81035" lon="-118.3942503">
  <ele>-0.11</ele>
  <time>2026-09-01T01:13:05Z</time>
  <course>12.43</course>
  <speed>1.793599732381782</speed>
  <fix>3d</fix>
</trkpt>
<trkpt lat="33.8103498" lon="-118.3942476">
  <ele>-0.1</ele>
  <time>2026-09-01T01:13:05Z</time>
  <course>280.09</course>
  <speed>1.82</speed>
  <fix>3d</fix>
</trkpt>
<trkpt lat="33.8103503" lon="-118.3942522">
  <ele>-0.109</ele>
  <time>2026-09-01T01:13:05Z</time>
  <course>12.44</course>
  <speed>1.793599732381782</speed>
  <fix>3d</fix>
</trkpt>
<trkpt lat="33.8103498" lon="-118.3942476">
  <ele>-0.1</ele>
  <time>2026-09-01T01:13:05Z</time>
  <course>280.09</course>
  <speed>1.82</speed>
  <fix>3d</fix>
</trkpt>
<trkpt lat="33.8103505" lon="-118.3942542">
  <ele>-0.109</ele>
  <time>2026-09-01T01:13:05Z</time>
  <course>12.45</course>
  <speed>1.793599732381782</speed>
  <fix>3d</fix>
</trkpt>
<trkpt lat="33.8103504" lon="-118.3942514">
  <ele>-0.1</ele>
  <time>2026-09-01T01:13:05Z</time>
  <course>280.11</course>
  <speed>1.82</speed>
  <fix>3d</fix>
</trkpt>
<trkpt lat="33.8103508" lon="-118.3942561">
  <ele>-0.108</ele>
  <time>2026-09-01T01:13:05Z</time>
  <course>12.46</course>
  <speed>1.793599732381782</speed>
  <fix>3d</fix>
</trkpt>
<trkpt lat="33.8103504" lon="-118.3942514">
  <ele>-0.1</ele>
  <time>2026-09-01T01:13:05Z</time>
  <course>280.11</course>
  <speed>1.82</speed>
  <fix>3d</fix>
</trkpt>
<trkpt lat="33.8103511" lon="-118.3942581">
  <ele>-0.108</ele>
  <time>2026-09-01T01:13:05Z</time>
  <course>12.47</course>
  <speed>1.793599732381782</speed>
  <fix>3d</fix>
</trkpt>
<trkpt lat="33.810351" lon="-118.3942553">
  <ele>-0.1</ele>
  <time>2026-09-01T01:13:05Z</time>
  <course>280.14</course>
  <speed>1.82</speed>
  <fix>3d</fix>
</trkpt>
<trkpt lat="33.8103514" lon="-118.39426">
  <ele>-0.108</ele>
  <time>2026-09-01T01:13:05Z</time>
  <course>12.48</course>
  <speed>1.793599732381782</speed>
  <fix>3d</fix>
</trkpt>
<trkpt lat="33.810351" lon="-118.3942553">
  <ele>-0.1</ele>
  <time>2026-09-01T01:13:05Z</time>
  <course>280.14</course>
  <speed>1.82</speed>
  <fix>3d</fix>
</trkpt>
<trkpt lat="33.8103517" lon="-118.3942619">
  <ele>-0.108</ele>
  <time>2026-09-01T01:13:05Z</time>
  <course>12.49</course>
  <speed>1.793599732381782</speed>
  <fix>3d</fix>
</trkpt>
<trkpt lat="33.8103516" lon="-118.3942592">
  <ele>-0.1</ele>
  <time>2026-09-01T01:13:05Z</time>
  <course>280.17</course>
  <speed>1.82</speed>
  <fix>3d</fix>
</trkpt>
<trkpt lat="33.810352" lon="-118.3942639">
  <ele>-0.108</ele>
  <time>2026-09-01T01:13:05Z</time>
  <course>12.5</course>
  <speed>1.793599732381782</speed>
  <fix>3d</fix>
</trkpt>
<trkpt lat="33.8103516" lon="-118.3942592">
  <ele>-0.1</ele>
  <time>2026-09-01T01:13:05Z</time>
  <course>280.17</course>
  <speed>1.82</speed>
  <fix>3d</fix>
</trkpt>
<trkpt lat="33.8103523" lon="-118.3942658">
  <ele>-0.109</ele>
  <time>2026-09-01T01:13:05Z</time>
  <course>12.52</course>
  <speed>1.793599732381782</speed>
  <fix>3d</fix>
</trkpt>
<trkpt lat="33.8103521" lon="-118.3942631">
  <ele>-0.1</ele>
  <time>2026-09-01T01:13:05Z</time>
  <course>280.19</course>
  <speed>1.82</speed>
  <fix>3d</fix>
</trkpt>
<trkpt lat="33.8103526" lon="-118.3942677">
  <ele>-0.109</ele>
  <time>2026-09-01T01:13:05Z</time>
  <course>12.53</course>
  <speed>1.793599732381782</speed>
  <fix>3d</fix>
</trkpt>
<trkpt lat="33.8103521" lon="-118.3942631">
  <ele>-0.1</ele>
  <time>2026-09-01T01:13:05Z</time>
  <course>280.19</course>
  <speed>1.82</speed>
  <fix>3d</fix>
</trkpt>
<trkpt lat="33.8103529" lon="-118.3942697">
  <ele>-0.109</ele>
  <time>2026-09-01T01:13:05Z</time>
  <course>12.54</course>
  <speed>1.793599732381782</speed>
  <fix>3d</fix>
</trkpt>
<trkpt lat="33.8103526" lon="-118.394267">
  <ele>-0.1</ele>
  <time>2026-09-01T01:13:05Z</time>
  <course>280.22</course>
  <speed>1.82</speed>
  <fix>3d</fix>
</trkpt>
<trkpt lat="33.8103532" lon="-118.3942716">
  <ele>-0.108</ele>
  <time>2026-09-01T01:13:05Z</time>
  <course>12.55</course>
  <speed>1.793599732381782</speed>
  <fix>3d</fix>
</trkpt>
<trkpt lat="33.8103526" lon="-118.394267">
  <ele>-0.1</ele>
  <time>2026-09-01T01:13:05Z</time>
  <course>280.22</course>
  <speed>1.82</speed>
  <fix>3d</fix>
</trkpt>
<trkpt lat="33.8103534" lon="-118.3942736">
  <ele>-0.107</ele>
  <time>2026-09-01T01:13:05Z</time>
  <course>12.56</course>
  <speed>1.793599732381782</speed>
  <fix>3d</fix>
</trkpt>
<trkpt lat="33.8103533" lon="-118.3942708">
  <ele>-0.1</ele>
  <time>2026-09-01T01:13:05Z</time>
  <course>280.24</course>
  <speed>1.82</speed>
  <fix>3d</fix>
</trkpt>
<trkpt lat="33.8103537" lon="-118.3942755">
  <ele>-0.106</ele>
  <time>2026-09-01T01:13:05Z</time>
  <course>12.57</course>
  <speed>1.793599732381782</speed>
  <fix>3d</fix>
</trkpt>
<trkpt lat="33.8103533" lon="-118.3942708">
  <ele>-0.1</ele>
  <time>2026-09-01T01:13:05Z</time>
  <course>280.24</course>
  <speed>1.82</speed>
  <fix>3d</fix>
</trkpt>
<trkpt lat="33.810354" lon="-118.3942774">
  <ele>-0.106</ele>
  <time>2026-09-01T01:13:05Z</time>
  <course>12.58</course>
  <speed>1.793599732381782</speed>
  <fix>3d</fix>
</trkpt>
<trkpt lat="33.8103538" lon="-118.3942747">
  <ele>-0.1</ele>
  <time>2026-09-01T01:13:05Z</time>
  <course>280.26</course>
  <speed>1.82</speed>
  <fix>3d</fix>
</trkpt>
<trkpt lat="33.8103543" lon="-118.3942794">
  <ele>-0.107</ele>
  <time>2026-09-01T01:13:05Z</time>
  <course>12.59</course>
  <speed>1.793599732381782</speed>
  <fix>3d</fix>
</trkpt>
<trkpt lat="33.8103538" lon="-118.3942747">
  <ele>-0.1</ele>
  <time>2026-09-01T01:13:05Z</time>
  <course>280.26</course>
  <speed>1.82</speed>
  <fix>3d</fix>
</trkpt>
<trkpt lat="33.8103546" lon="-118.3942813">
  <ele>-0.107</ele>
  <time>2026-09-01T01:13:05Z</time>
  <course>12.6</course>
  <speed>1.793599732381782</speed>
  <fix>3d</fix>
</trkpt>
<trkpt lat="33.8103545" lon="-118.3942786">
  <ele>-0.1</ele>
  <time>2026-09-01T01:13:05Z</time>
  <course>280.29</course>
  <speed>1.82</speed>
  <fix>3d</fix>
</trkpt>
<trkpt lat="33.8103549" lon="-118.3942833">
  <ele>-0.106</ele>
  <time>2026-09-01T01:13:05Z</time>
  <course>12.61</course>
  <speed>1.793599732381782</speed>
  <fix>3d</fix>
</trkpt>
<trkpt lat="33.8103545" lon="-118.3942786">
  <ele>-0.1</ele>
  <time>2026-09-01T01:13:05Z</time>
  <course>280.29</course>
  <speed>1.82</speed>
  <fix>3d</fix>
</trkpt>
<trkpt lat="33.8103552" lon="-118.3942852">
  <ele>-0.106</ele>
  <time>2026-09-01T01:13:05Z</time>
  <course>12.62</course>
  <speed>1.793599732381782</speed>
  <fix>3d</fix>
</trkpt>
<trkpt lat="33.810355" lon="-118.3942825">
  <ele>-0.1</ele>
  <time>2026-09-01T01:13:05Z</time>
  <course>280.31</course>
  <speed>1.82</speed>
  <fix>3d</fix>
</trkpt>
<trkpt lat="33.8103555" lon="-118.3942871">
  <ele>-0.106</ele>
  <time>2026-09-01T01:13:05Z</time>
  <course>12.63</course>
  <speed>1.793599732381782</speed>
  <fix>3d</fix>
</trkpt>
<trkpt lat="33.810355" lon="-118.3942825">
  <ele>-0.1</ele>
  <time>2026-09-01T01:13:05Z</time>
  <course>280.31</course>
  <speed>1.82</speed>
  <fix>3d</fix>
</trkpt>
<trkpt lat="33.8103558" lon="-118.3942891">
  <ele>-0.107</ele>
  <time>2026-09-01T01:13:05Z</time>
  <course>12.64</course>
  <speed>1.793599732381782</speed>
  <fix>3d</fix>
</trkpt>
<trkpt lat="33.8103557" lon="-118.3942863">
  <ele>-0.1</ele>
  <time>2026-09-01T01:13:05Z</time>
  <course>280.34</course>
  <speed>1.82</speed>
  <fix>3d</fix>
</trkpt>
<trkpt lat="33.8103561" lon="-118.394291">
  <ele>-0.108</ele>
  <time>2026-09-01T01:13:05Z</time>
  <course>12.65</course>
  <speed>1.793599732381782</speed>
  <fix>3d</fix>
</trkpt>
<trkpt lat="33.8103557" lon="-118.3942863">
  <ele>-0.1</ele>
  <time>2026-09-01T01:13:05Z</time>
  <course>280.34</course>
  <speed>1.82</speed>
  <fix>3d</fix>
</trkpt>
<trkpt lat="33.8103564" lon="-118.394293">
  <ele>-0.109</ele>
  <time>2026-09-01T01:13:05Z</time>
  <course>12.66</course>
  <speed>1.7952437160452615</speed>
  <fix>3d</fix>
</trkpt>
<trkpt lat="33.8103562" lon="-118.3942902">
  <ele>-0.1</ele>
  <time>2026-09-01T01:13:05Z</time>
  <course>280.36</course>
  <speed>1.82</speed>
  <fix>3d</fix>
</trkpt>
<trkpt lat="33.8103567" lon="-118.3942949">
  <ele>-0.109</ele>
  <time>2026-09-01T01:13:05Z</time>
  <course>12.67</course>
  <speed>1.7952437160452615</speed>
  <fix>3d</fix>
</trkpt>
<trkpt lat="33.8103562" lon="-118.3942902">
  <ele>-0.1</ele>
  <time>2026-09-01T01:13:05Z</time>
  <course>280.36</course>
  <speed>1.82</speed>
  <fix>3d</fix>
</trkpt>
<trkpt lat="33.810357" lon="-118.3942968">
  <ele>-0.108</ele>
  <time>2026-09-01T01:13:05Z</time>
  <course>12.68</course>
  <speed>1.7952437160452615</speed>
  <fix>3d</fix>
</trkpt>
<trkpt lat="33.8103567" lon="-118.3942941">
  <ele>-0.1</ele>
  <time>2026-09-01T01:13:05Z</time>
  <course>280.38</course>
  <speed>1.82</speed>
  <fix>3d</fix>
</trkpt>
<trkpt lat="33.8103573" lon="-118.3942988">
  <ele>-0.109</ele>
  <time>2026-09-01T01:13:05Z</time>
  <course>12.69</course>
  <speed>1.7952437160452615</speed>
  <fix>3d</fix>
</trkpt>
<trkpt lat="33.8103567" lon="-118.3942941">
  <ele>-0.1</ele>
  <time>2026-09-01T01:13:05Z</time>
  <course>280.38</course>
  <speed>1.82</speed>
  <fix>3d</fix>
</trkpt>
<trkpt lat="33.8103575" lon="-118.3943007">
  <ele>-0.109</ele>
  <time>2026-09-01T01:13:05Z</time>
  <course>12.7</course>
  <speed>1.7952437160452615</speed>
  <fix>3d</fix>
</trkpt>
<trkpt lat="33.8103574" lon="-118.394298">
  <ele>-0.1</ele>
  <time>2026-09-01T01:13:05Z</time>
  <course>280.41</course>
  <speed>1.82</speed>
  <fix>3d</fix>
</trkpt>
<trkpt lat="33.8103578" lon="-118.3943026">
  <ele>-0.108</ele>
  <time>2026-09-01T01:13:05Z</time>
  <course>12.71</course>
  <speed>1.7952437160452615</speed>
  <fix>3d</fix>
</trkpt>
<trkpt lat="33.8103574" lon="-118.394298">
  <ele>-0.1</ele>
  <time>2026-09-01T01:13:05Z</time>
  <course>280.41</course>
  <speed>1.82</speed>
  <fix>3d</fix>
</trkpt>
<trkpt lat="33.8103581" lon="-118.3943046">
  <ele>-0.107</ele>
  <time>2026-09-01T01:13:05Z</time>
  <course>12.72</course>
  <speed>1.7952437160452615</speed>
  <fix>3d</fix>
</trkpt>
<trkpt lat="33.8103579" lon="-118.3943018">
  <ele>-0.1</ele>
  <time>2026-09-01T01:13:05Z</time>
  <course>280.43</course>
  <speed>1.82</speed>
  <fix>3d</fix>
</trkpt>
<trkpt lat="33.8103584" lon="-118.3943065">
  <ele>-0.107</ele>
  <time>2026-09-01T01:13:05Z</time>
  <course>12.73</course>
  <speed>1.7952437160452615</speed>
  <fix>3d</fix>
</trkpt>
<trkpt lat="33.8103579" lon="-118.3943018">
  <ele>-0.1</ele>
  <time>2026-09-01T01:13:05Z</time>
  <course>280.43</course>
  <speed>1.82</speed>
  <fix>3d</fix>
</trkpt>
<trkpt lat="33.8103587" lon="-118.3943085">
  <ele>-0.106</ele>
  <time>2026-09-01T01:13:05Z</time>
  <course>12.74</course>
  <speed>1.7952437160452615</speed>
  <fix>3d</fix>
</trkpt>
<trkpt lat="33.8103586" lon="-118.3943057">
  <ele>-0.1</ele>
  <time>2026-09-01T01:13:05Z</time>
  <course>280.45</course>
  <speed>1.82</speed>
  <fix>3d</fix>
</trkpt>
<trkpt lat="33.810359" lon="-118.3943104">
  <ele>-0.106</ele>
  <time>2026-09-01T01:13:05Z</time>
  <course>12.75</course>
  <speed>1.7952437160452615</speed>
  <fix>3d</fix>
</trkpt>
<trkpt lat="33.8103586" lon="-118.3943057">
  <ele>-0.1</ele>
  <time>2026-09-01T01:13:05Z</time>
  <course>280.45</course>
  <speed>1.82</speed>
  <fix>3d</fix>
</trkpt>
<trkpt lat="33.8103593" lon="-118.3943123">
  <ele>-0.105</ele>
  <time>2026-09-01T01:13:05Z</time>
  <course>12.76</course>
  <speed>1.7952437160452615</speed>
  <fix>3d</fix>
</trkpt>
<trkpt lat="33.8103591" lon="-118.3943096">
  <ele>-0.1</ele>
  <time>2026-09-01T01:13:05Z</time>
  <course>280.47</course>
  <speed>1.82</speed>
  <fix>3d</fix>
</trkpt>
<trkpt lat="33.8103596" lon="-118.3943143">
  <ele>-0.104</ele>
  <time>2026-09-01T01:13:05Z</time>
  <course>12.76</course>
  <speed>1.7952437160452615</speed>
  <fix>3d</fix>
</trkpt>
<trkpt lat="33.8103591" lon="-118.3943096">
  <ele>-0.1</ele>
  <time>2026-09-01T01:13:05Z</time>
  <course>280.47</course>
  <speed>1.82</speed>
  <fix>3d</fix>
</trkpt>
<trkpt lat="33.8103599" lon="-118.3943162">
  <ele>-0.104</ele>
  <time>2026-09-01T01:13:05Z</time>
  <course>12.77</course>
  <speed>1.7952437160452615</speed>
  <fix>3d</fix>
</trkpt>
<trkpt lat="33.8103598" lon="-118.3943135">
  <ele>-0.1</ele>
  <time>2026-09-01T01:13:05Z</time>
  <course>280.5</course>
  <speed>1.82</speed>
  <fix>3d</fix>
</trkpt>
<trkpt lat="33.8103602" lon="-118.3943181">
  <ele>-0.103</ele>
  <time>2026-09-01T01:13:05Z</time>
  <course>12.78</course>
  <speed>1.7952437160452615</speed>
  <fix>3d</fix>
</trkpt>
<trkpt lat="33.8103598" lon="-118.3943135">
  <ele>-0.1</ele>
  <time>2026-09-01T01:13:05Z</time>
  <course>280.5</course>
  <speed>1.82</speed>
  <fix>3d</fix>
</trkpt>
<trkpt lat="33.8103605" lon="-118.3943201">
  <ele>-0.103</ele>
  <time>2026-09-01T01:13:05Z</time>
  <course>12.79</course>
  <speed>1.7952437160452615</speed>
  <fix>3d</fix>
</trkpt>
<trkpt lat="33.8103603" lon="-118.3943173">
  <ele>-0.1</ele>
  <time>2026-09-01T01:13:05Z</time>
  <course>280.52</course>
  <speed>1.82</speed>
  <fix>3d</fix>
</trkpt>
<trkpt lat="33.8103608" lon="-118.394322">
  <ele>-0.104</ele>
  <time>2026-09-01T01:13:05Z</time>
  <course>12.8</course>
  <speed>1.7952437160452615</speed>
  <fix>3d</fix>
</trkpt>
<trkpt lat="33.8103603" lon="-118.3943173">
  <ele>-0.1</ele>
  <time>2026-09-01T01:13:05Z</time>
  <course>280.52</course>
  <speed>1.82</speed>
  <fix>3d</fix>
</trkpt>
<trkpt lat="33.8103611" lon="-118.3943239">
  <ele>-0.104</ele>
  <time>2026-09-01T01:13:05Z</time>
  <course>12.81</course>
  <speed>1.7952437160452615</speed>
  <fix>3d</fix>
</trkpt>
<trkpt lat="33.810361" lon="-118.3943212">
  <ele>-0.1</ele>
  <time>2026-09-01T01:13:05Z</time>
  <course>280.54</course>
  <speed>1.82</speed>
  <fix>3d</fix>
</trkpt>
<trkpt lat="33.8103614" lon="-118.3943258">
  <ele>-0.103</ele>
  <time>2026-09-01T01:13:05Z</time>
  <course>12.82</course>
  <speed>1.7952437160452615</speed>
  <fix>3d</fix>
</trkpt>
<trkpt lat="33.810361" lon="-118.3943212">
  <ele>-0.1</ele>
  <time>2026-09-01T01:13:05Z</time>
  <course>280.54</course>
  <speed>1.82</speed>
  <fix>3d</fix>
</trkpt>
<trkpt lat="33.8103617" lon="-118.3943278">
  <ele>-0.102</ele>
  <time>2026-09-01T01:13:05Z</time>
  <course>12.83</course>
  <speed>1.7952437160452615</speed>
  <fix>3d</fix>
</trkpt>
<trkpt lat="33.8103615" lon="-118.3943251">
  <ele>-0.1</ele>
  <time>2026-09-01T01:13:05Z</time>
  <course>280.56</course>
  <speed>1.82</speed>
  <fix>3d</fix>
</trkpt>
<trkpt lat="33.810362" lon="-118.3943297">
  <ele>-0.101</ele>
  <time>2026-09-01T01:13:05Z</time>
  <course>12.84</course>
  <speed>1.7952437160452615</speed>
  <fix>3d</fix>
</trkpt>
<trkpt lat="33.8103615" lon="-118.3943251">
  <ele>-0.1</ele>
  <time>2026-09-01T01:13:05Z</time>
  <course>280.56</course>
  <speed>1.82</speed>
  <fix>3d</fix>
</trkpt>
<trkpt lat="33.8103623" lon="-118.3943316">
  <ele>-0.101</ele>
  <time>2026-09-01T01:13:05Z</time>
  <course>12.85</course>
  <speed>1.785385112517745</speed>
  <fix>3d</fix>
</trkpt>
<trkpt lat="33.8103622" lon="-118.3943289">
  <ele>-0.1</ele>
  <time>2026-09-01T01:13:05Z</time>
  <course>280.58</course>
  <speed>1.82</speed>
  <fix>3d</fix>
</trkpt>
<trkpt lat="33.8103626" lon="-118.3943335">
  <ele>-0.101</ele>
  <time>2026-09-01T01:13:05Z</time>
  <course>12.86</course>
  <speed>1.785385112517745</speed>
  <fix>3d</fix>
</trkpt>
<trkpt lat="33.8103622" lon="-118.3943289">
  <ele>-0.1</ele>
  <time>2026-09-01T01:13:05Z</time>
  <course>280.58</course>
  <speed>1.82</speed>
  <fix>3d</fix>
</trkpt>
<trkpt lat="33.8103629" lon="-118.3943355">
  <ele>-0.103</ele>
  <time>2026-09-01T01:13:05Z</time>
  <course>12.87</course>
  <speed>1.785385112517745</speed>
  <fix>3d</fix>
</trkpt>
<trkpt lat="33.8103627" lon="-118.3943328">
  <ele>-0.1</ele>
  <time>2026-09-01T01:13:05Z</time>
  <course>280.6</course>
  <speed>1.82</speed>
  <fix>3d</fix>
</trkpt>
<trkpt lat="33.8103632" lon="-118.3943374">
  <ele>-0.106</ele>
  <time>2026-09-01T01:13:05Z</time>
  <course>12.87</course>
  <speed>1.785385112517745</speed>
  <fix>3d</fix>
</trkpt>
<trkpt lat="33.8103627" lon="-118.3943328">
  <ele>-0.1</ele>
  <time>2026-09-01T01:13:05Z</time>
  <course>280.6</course>
  <speed>1.82</speed>
  <fix>3d</fix>
</trkpt>
<trkpt lat="33.8103635" lon="-118.3943393">
  <ele>-0.107</ele>
  <time>2026-09-01T01:13:05Z</time>
  <course>12.88</course>
  <speed>1.785385112517745</speed>
  <fix>3d</fix>
</trkpt>
<trkpt lat="33.8103634" lon="-118.3943367">
  <ele>-0.1</ele>
  <time>2026-09-01T01:13:05Z</time>
  <course>280.62</course>
  <speed>1.82</speed>
  <fix>3d</fix>
</trkpt>
<trkpt lat="33.8103638" lon="-118.3943412">
  <ele>-0.108</ele>
  <time>2026-09-01T01:13:05Z</time>
  <course>12.89</course>
  <speed>1.785385112517745</speed>
  <fix>3d</fix>
</trkpt>
<trkpt lat="33.8103634" lon="-118.3943367">
  <ele>-0.1</ele>
  <time>2026-09-01T01:13:05Z</time>
  <course>280.62</course>
  <speed>1.82</speed>
  <fix>3d</fix>
</trkpt>
<trkpt lat="33.8103641" lon="-118.3943432">
  <ele>-0.108</ele>
  <time>2026-09-01T01:13:05Z</time>
  <course>12.9</course>
  <speed>1.785385112517745</speed>
  <fix>3d</fix>
</trkpt>
<trkpt lat="33.8103639" lon="-118.3943405">
  <ele>-0.1</ele>
  <time>2026-09-01T01:13:05Z</time>
  <course>280.65</course>
  <speed>1.82</speed>
  <fix>3d</fix>
</trkpt>
<trkpt lat="33.8103644" lon="-118.3943451">
  <ele>-0.109</ele>
  <time>2026-09-01T01:13:05Z</time>
  <course>12.91</course>
  <speed>1.785385112517745</speed>
  <fix>3d</fix>
</trkpt>
<trkpt lat="33.8103639" lon="-118.3943405">
  <ele>-0.1</ele>
  <time>2026-09-01T01:13:05Z</time>
  <course>280.65</course>
  <speed>1.82</speed>
  <fix>3d</fix>
</trkpt>
<trkpt lat="33.8103647" lon="-118.394347">
  <ele>-0.109</ele>
  <time>2026-09-01T01:13:05Z</time>
  <course>12.92</course>
  <speed>1.785385112517745</speed>
  <fix>3d</fix>
</trkpt>
<trkpt lat="33.8103646" lon="-118.3943444">
  <ele>-0.1</ele>
  <time>2026-09-01T01:13:05Z</time>
  <course>280.67</course>
  <speed>1.82</speed>
  <fix>3d</fix>
</trkpt>
<trkpt lat="33.810365" lon="-118.3943489">
  <ele>-0.11</ele>
  <time>2026-09-01T01:13:05Z</time>
  <course>12.93</course>
  <speed>1.785385112517745</speed>
  <fix>3d</fix>
</trkpt>
<trkpt lat="33.8103646" lon="-118.3943444">
  <ele>-0.1</ele>
  <time>2026-09-01T01:13:05Z</time>
  <course>280.67</course>
  <speed>1.82</speed>
  <fix>3d</fix>
</trkpt>
<trkpt lat="33.8103653" lon="-118.3943509">
  <ele>-0.11</ele>
  <time>2026-09-01T01:13:05Z</time>
  <course>12.94</course>
  <speed>1.785385112517745</speed>
  <fix>3d</fix>
</trkpt>
<trkpt lat="33.8103651" lon="-118.3943483">
  <ele>-0.1</ele>
  <time>2026-09-01T01:13:05Z</time>
  <course>280.69</course>
  <speed>1.82</speed>
  <fix>3d</fix>
</trkpt>
<trkpt lat="33.8103656" lon="-118.3943528">
  <ele>-0.11</ele>
  <time>2026-09-01T01:13:05Z</time>
  <course>12.95</course>
  <speed>1.785385112517745</speed>
  <fix>3d</fix>
</trkpt>
<trkpt lat="33.8103651" lon="-118.3943483">
  <ele>-0.1</ele>
  <time>2026-09-01T01:13:05Z</time>
  <course>280.69</course>
  <speed>1.82</speed>
  <fix>3d</fix>
</trkpt>
<trkpt lat="33.8103659" lon="-118.3943547">
  <ele>-0.11</ele>
  <time>2026-09-01T01:13:05Z</time>
  <course>12.95</course>
  <speed>1.785385112517745</speed>
  <fix>3d</fix>
</trkpt>
<trkpt lat="33.8103658" lon="-118.3943522">
  <ele>-0.1</ele>
  <time>2026-09-01T01:13:05Z</time>
  <course>280.71</course>
  <speed>1.82</speed>
  <fix>3d</fix>
</trkpt>
<trkpt lat="33.8103662" lon="-118.3943567">
  <ele>-0.11</ele>
  <time>2026-09-01T01:13:05Z</time>
  <course>12.96</course>
  <speed>1.785385112517745</speed>
  <fix>3d</fix>
</trkpt>
<trkpt lat="33.8103658" lon="-118.3943522">
  <ele>-0.1</ele>
  <time>2026-09-01T01:13:05Z</time>
  <course>280.71</course>
  <speed>1.82</speed>
  <fix>3d</fix>
</trkpt>
<trkpt lat="33.8103665" lon="-118.3943586">
  <ele>-0.11</ele>
  <time>2026-09-01T01:13:05Z</time>
  <course>12.97</course>
  <speed>1.7870926109186396</speed>
  <fix>3d</fix>
</trkpt>
<trkpt lat="33.8103663" lon="-118.394356">
  <ele>-0.1</ele>
  <time>2026-09-01T01:13:05Z</time>
  <course>280.73</course>
  <speed>1.82</speed>
  <fix>3d</fix>
</trkpt>
<trkpt lat="33.8103668" lon="-118.3943605">
  <ele>-0.11</ele>
  <time>2026-09-01T01:13:05Z</time>
  <course>12.98</course>
  <speed>1.7870926109186396</speed>
  <fix>3d</fix>
</trkpt>
<trkpt lat="33.8103663" lon="-118.394356">
  <ele>-0.1</ele>
  <time>2026-09-01T01:13:05Z</time>
  <course>280.73</course>
  <speed>1.82</speed>
  <fix>3d</fix>
</trkpt>
<trkpt lat="33.8103671" lon="-118.3943625">
  <ele>-0.111</ele>
  <time>2026-09-01T01:13:05Z</time>
  <course>12.99</course>
  <speed>1.7870926109186396</speed>
  <fix>3d</fix>
</trkpt>
<trkpt lat="33.810367" lon="-118.3943599">
  <ele>-0.1</ele>
  <time>2026-09-01T01:13:05Z</time>
  <course>280.75</course>
  <speed>1.82</speed>
  <fix>3d</fix>
</trkpt>
<trkpt lat="33.8103674" lon="-118.3943644">
  <ele>-0.112</ele>
  <time>2026-09-01T01:13:05Z</time>
  <course>13.0</course>
  <speed>1.7870926109186396</speed>
  <fix>3d</fix>
</trkpt>
<trkpt lat="33.810367" lon="-118.3943599">
  <ele>-0.1</ele>
  <time>2026-09-01T01:13:05Z</time>
  <course>280.75</course>
  <speed>1.82</speed>
  <fix>3d</fix>
</trkpt>
<trkpt lat="33.8103677" lon="-118.3943663">
  <ele>-0.113</ele>
  <time>2026-09-01T01:13:05Z</time>
  <course>13.01</course>
  <speed>1.7870926109186396</speed>
  <fix>3d</fix>
</trkpt>
<trkpt lat="33.8103676" lon="-118.3943638">
  <ele>-0.1</ele>
  <time>2026-09-01T01:13:05Z</time>
  <course>280.77</course>
  <speed>1.82</speed>
  <fix>3d</fix>
</trkpt>
<trkpt lat="33.810368" lon="-118.3943683">
  <ele>-0.114</ele>
  <time>2026-09-01T01:13:05Z</time>
  <course>13.01</course>
  <speed>1.7870926109186396</speed>
  <fix>3d</fix>
</trkpt>
<trkpt lat="33.8103676" lon="-118.3943638">
  <ele>-0.1</ele>
  <time>2026-09-01T01:13:05Z</time>
  <course>280.77</course>
  <speed>1.82</speed>
  <fix>3d</fix>
</trkpt>
<trkpt lat="33.8103683" lon="-118.3943702">
  <ele>-0.116</ele>
  <time>2026-09-01T01:13:05Z</time>
  <course>13.02</course>
  <speed>1.7870926109186396</speed>
  <fix>3d</fix>
</trkpt>
<trkpt lat="33.8103682" lon="-118.3943676">
  <ele>-0.1</ele>
  <time>2026-09-01T01:13:05Z</time>
  <course>280.79</course>
  <speed>1.82</speed>
  <fix>3d</fix>
</trkpt>
<trkpt lat="33.8103687" lon="-118.3943721">
  <ele>-0.116</ele>
  <time>2026-09-01T01:13:05Z</time>
  <course>13.03</course>
  <speed>1.7870926109186396</speed>
  <fix>3d</fix>
</trkpt>
<trkpt lat="33.8103682" lon="-118.3943676">
  <ele>-0.1</ele>
  <time>2026-09-01T01:13:05Z</time>
  <course>280.79</course>
  <speed>1.82</speed>
  <fix>3d</fix>
</trkpt>
<trkpt lat="33.810369" lon="-118.3943741">
  <ele>-0.116</ele>
  <time>2026-09-01T01:13:05Z</time>
  <course>13.04</course>
  <speed>1.7870926109186396</speed>
  <fix>3d</fix>
</trkpt>
<trkpt lat="33.8103689" lon="-118.3943715">
  <ele>-0.1</ele>
  <time>2026-09-01T01:13:05Z</time>
  <course>280.81</course>
  <speed>1.82</speed>
  <fix>3d</fix>
</trkpt>
<trkpt lat="33.8103693" lon="-118.394376">
  <ele>-0.116</ele>
  <time>2026-09-01T01:13:05Z</time>
  <course>13.05</course>
  <speed>1.7870926109186396</speed>
  <fix>3d</fix>
</trkpt>
<trkpt lat="33.8103689" lon="-118.3943715">
  <ele>-0.1</ele>
  <time>2026-09-01T01:13:05Z</time>
  <course>280.81</course>
  <speed>1.82</speed>
  <fix>3d</fix>
</trkpt>
<trkpt lat="33.8103696" lon="-118.3943779">
  <ele>-0.116</ele>
  <time>2026-09-01T01:13:05Z</time>
  <course>13.05</course>
  <speed>1.7870926109186396</speed>
  <fix>3d</fix>
</trkpt>
<trkpt lat="33.8103694" lon="-118.3943754">
  <ele>-0.1</ele>
  <time>2026-09-01T01:13:05Z</time>
  <course>280.82</course>
  <speed>1.82</speed>
  <fix>3d</fix>
</trkpt>
<trkpt lat="33.8103699" lon="-118.3943799">
  <ele>-0.115</ele>
  <time>2026-09-01T01:13:05Z</time>
  <course>13.06</course>
  <speed>1.7870926109186396</speed>
  <fix>3d</fix>
</trkpt>
<trkpt lat="33.8103694" lon="-118.3943754">
  <ele>-0.1</ele>
  <time>2026-09-01T01:13:05Z</time>
  <course>280.82</course>
  <speed>1.82</speed>
  <fix>3d</fix>
</trkpt>
<trkpt lat="33.8103702" lon="-118.3943818">
  <ele>-0.114</ele>
  <time>2026-09-01T01:13:05Z</time>
  <course>13.07</course>
  <speed>1.7870926109186396</speed>
  <fix>3d</fix>
</trkpt>
<trkpt lat="33.8103701" lon="-118.3943792">
  <ele>-0.1</ele>
  <time>2026-09-01T01:13:05Z</time>
  <course>280.84</course>
  <speed>1.82</speed>
  <fix>3d</fix>
</trkpt>
<trkpt lat="33.8103705" lon="-118.3943837">
  <ele>-0.113</ele>
  <time>2026-09-01T01:13:05Z</time>
  <course>13.08</course>
  <speed>1.7870926109186396</speed>
  <fix>3d</fix>
</trkpt>
<trkpt lat="33.8103701" lon="-118.3943792">
  <ele>-0.1</ele>
  <time>2026-09-01T01:13:05Z</time>
  <course>280.84</course>
  <speed>1.82</speed>
  <fix>3d</fix>
</trkpt>
<trkpt lat="33.8103708" lon="-118.3943857">
  <ele>-0.113</ele>
  <time>2026-09-01T01:13:05Z</time>
  <course>13.09</course>
  <speed>1.7870926109186396</speed>
  <fix>3d</fix>
</trkpt>
<trkpt lat="33.8103706" lon="-118.3943831">
  <ele>-0.1</ele>
  <time>2026-09-01T01:13:05Z</time>
  <course>280.86</course>
  <speed>1.82</speed>
  <fix>3d</fix>
</trkpt>
<trkpt lat="33.8103711" lon="-118.3943876">
  <ele>-0.114</ele>
  <time>2026-09-01T01:13:05Z</time>
  <course>13.1</course>
  <speed>1.7870926109186396</speed>
  <fix>3d</fix>
</trkpt>
<trkpt lat="33.8103706" lon="-118.3943831">
  <ele>-0.1</ele>
  <time>2026-09-01T01:13:05Z</time>
  <course>280.86</course>
  <speed>1.82</speed>
  <fix>3d</fix>
</trkpt>
<trkpt lat="33.8103714" lon="-118.3943895">
  <ele>-0.114</ele>
  <time>2026-09-01T01:13:05Z</time>
  <course>13.1</course>
  <speed>1.7870926109186396</speed>
  <fix>3d</fix>
</trkpt>
<trkpt lat="33.8103713" lon="-118.394387">
  <ele>-0.1</ele>
  <time>2026-09-01T01:13:05Z</time>
  <course>280.88</course>
  <speed>1.82</speed>
  <fix>3d</fix>
</trkpt>
<trkpt lat="33.8103717" lon="-118.3943915">
  <ele>-0.114</ele>
  <time>2026-09-01T01:13:05Z</time>
  <course>13.11</course>
  <speed>1.7870926109186396</speed>
  <fix>3d</fix>
</trkpt>
<trkpt lat="33.8103713" lon="-118.394387">
  <ele>-0.1</ele>
  <time>2026-09-01T01:13:05Z</time>
  <course>280.88</course>
  <speed>1.82</speed>
  <fix>3d</fix>
</trkpt>
<trkpt lat="33.8103721" lon="-118.3943934">
  <ele>-0.114</ele>
  <time>2026-09-01T01:13:05Z</time>
  <course>13.12</course>
  <speed>1.7870926109186396</speed>
  <fix>3d</fix>
</trkpt>
<trkpt lat="33.810372" lon="-118.3943909">
  <ele>-0.1</ele>
  <time>2026-09-01T01:13:05Z</time>
  <course>280.9</course>
  <speed>1.82</speed>
  <fix>3d</fix>
</trkpt>
<trkpt lat="33.8103724" lon="-118.3943954">
  <ele>-0.115</ele>
  <time>2026-09-01T01:13:05Z</time>
  <course>13.13</course>
  <speed>1.7870926109186396</speed>
  <fix>3d</fix>
</trkpt>
<trkpt lat="33.810372" lon="-118.3943909">
  <ele>-0.1</ele>
  <time>2026-09-01T01:13:05Z</time>
  <course>280.9</course>
  <speed>1.82</speed>
  <fix>3d</fix>
</trkpt>
<trkpt lat="33.8103727" lon="-118.3943973">
  <ele>-0.115</ele>
  <time>2026-09-01T01:13:05Z</time>
  <course>13.13</course>
  <speed>1.7870926109186396</speed>
  <fix>3d</fix>
</trkpt>
<trkpt lat="33.8103725" lon="-118.3943947">
  <ele>-0.1</ele>
  <time>2026-09-01T01:13:05Z</time>
  <course>280.92</course>
  <speed>1.82</speed>
  <fix>3d</fix>
</trkpt>
<trkpt lat="33.810373" lon="-118.3943992">
  <ele>-0.114</ele>
  <time>2026-09-01T01:13:05Z</time>
  <course>13.14</course>
  <speed>1.7870926109186396</speed>
  <fix>3d</fix>
</trkpt>
<trkpt lat="33.8103725" lon="-118.3943947">
  <ele>-0.1</ele>
  <time>2026-09-01T01:13:05Z</time>
  <course>280.92</course>
  <speed>1.82</speed>
  <fix>3d</fix>
</trkpt>
<trkpt lat="33.8103733" lon="-118.3944012">
  <ele>-0.114</ele>
  <time>2026-09-01T01:13:05Z</time>
  <course>13.15</course>
  <speed>1.7870926109186396</speed>
  <fix>3d</fix>
</trkpt>
<trkpt lat="33.8103732" lon="-118.3943986">
  <ele>-0.1</ele>
  <time>2026-09-01T01:13:05Z</time>
  <course>280.94</course>
  <speed>1.82</speed>
  <fix>3d</fix>
</trkpt>
<trkpt lat="33.8103736" lon="-118.3944031">
  <ele>-0.112</ele>
  <time>2026-09-01T01:13:05Z</time>
  <course>13.16</course>
  <speed>1.7870926109186396</speed>
  <fix>3d</fix>
</trkpt>
<trkpt lat="33.8103732" lon="-118.3943986">
  <ele>-0.1</ele>
  <time>2026-09-01T01:13:05Z</time>
  <course>280.94</course>
  <speed>1.82</speed>
  <fix>3d</fix>
</trkpt>
<trkpt lat="33.8103739" lon="-118.394405">
  <ele>-0.112</ele>
  <time>2026-09-01T01:13:05Z</time>
  <course>13.17</course>
  <speed>1.7870926109186396</speed>
  <fix>3d</fix>
</trkpt>
<trkpt lat="33.8103737" lon="-118.3944025">
  <ele>-0.1</ele>
  <time>2026-09-01T01:13:05Z</time>
  <course>280.96</course>
  <speed>1.82</speed>
  <fix>3d</fix>
</trkpt>
<trkpt lat="33.8103742" lon="-118.394407">
  <ele>-0.111</ele>
  <time>2026-09-01T01:13:05Z</time>
  <course>13.17</course>
  <speed>1.7870926109186396</speed>
  <fix>3d</fix>
</trkpt>
<trkpt lat="33.8103737" lon="-118.3944025">
  <ele>-0.1</ele>
  <time>2026-09-01T01:13:05Z</time>
  <course>280.96</course>
  <speed>1.82</speed>
  <fix>3d</fix>
</trkpt>
<trkpt lat="33.8103746" lon="-118.3944089">
  <ele>-0.111</ele>
  <time>2026-09-01T01:13:05Z</time>
  <course>13.18</course>
  <speed>1.7870926109186396</speed>
  <fix>3d</fix>
</trkpt>
<trkpt lat="33.8103744" lon="-118.3944063">
  <ele>-0.1</ele>
  <time>2026-09-01T01:13:05Z</time>
  <course>280.97</course>
  <speed>1.82</speed>
  <fix>3d</fix>
</trkpt>
<trkpt lat="33.8103749" lon="-118.3944109">
  <ele>-0.111</ele>
  <time>2026-09-01T01:13:05Z</time>
  <course>13.19</course>
  <speed>1.7870926109186396</speed>
  <fix>3d</fix>
</trkpt>
<trkpt lat="33.8103744" lon="-118.3944063">
  <ele>-0.1</ele>
  <time>2026-09-01T01:13:05Z</time>
  <course>280.97</course>
  <speed>1.82</speed>
  <fix>3d</fix>
</trkpt>
<trkpt lat="33.8103752" lon="-118.3944128">
  <ele>-0.111</ele>
  <time>2026-09-01T01:13:05Z</time>
  <course>13.2</course>
  <speed>1.7986939706353606</speed>
  <fix>3d</fix>
</trkpt>
<trkpt lat="33.8103751" lon="-118.3944102">
  <ele>-0.1</ele>
  <time>2026-09-01T01:13:05Z</time>
  <course>280.99</course>
  <speed>1.82</speed>
  <fix>3d</fix>
</trkpt>
<trkpt lat="33.8103755" lon="-118.3944147">
  <ele>-0.11</ele>
  <time>2026-09-01T01:13:05Z</time>
  <course>13.2</course>
  <speed>1.7986939706353606</speed>
  <fix>3d</fix>
</trkpt>
<trkpt lat="33.8103751" lon="-118.3944102">
  <ele>-0.1</ele>
  <time>2026-09-01T01:13:05Z</time>
  <course>280.99</course>
  <speed>1.82</speed>
  <fix>3d</fix>
</trkpt>
<trkpt lat="33.8103758" lon="-118.3944167">
  <ele>-0.108</ele>
  <time>2026-09-01T01:13:05Z</time>
  <course>13.21</course>
  <speed>1.7986939706353606</speed>
  <fix>3d</fix>
</trkpt>
<trkpt lat="33.8103756" lon="-118.3944141">
  <ele>-0.1</ele>
  <time>2026-09-01T01:13:05Z</time>
  <course>281.01</course>
  <speed>1.82</speed>
  <fix>3d</fix>
</trkpt>
<trkpt lat="33.8103761" lon="-118.3944186">
  <ele>-0.107</ele>
  <time>2026-09-01T01:13:05Z</time>
  <course>13.22</course>
  <speed>1.7986939706353606</speed>
  <fix>3d</fix>
</trkpt>
<trkpt lat="33.8103756" lon="-118.3944141">
  <ele>-0.1</ele>
  <time>2026-09-01T01:13:05Z</time>
  <course>281.01</course>
  <speed>1.82</speed>
  <fix>3d</fix>
</trkpt>
<trkpt lat="33.8103764" lon="-118.3944205">
  <ele>-0.106</ele>
  <time>2026-09-01T01:13:05Z</time>
  <course>13.23</course>
  <speed>1.7986939706353606</speed>
  <fix>3d</fix>
</trkpt>
<trkpt lat="33.8103763" lon="-118.3944179">
  <ele>-0.1</ele>
  <time>2026-09-01T01:13:05Z</time>
  <course>281.03</course>
  <speed>1.82</speed>
  <fix>3d</fix>
</trkpt>
<trkpt lat="33.8103768" lon="-118.3944225">
  <ele>-0.105</ele>
  <time>2026-09-01T01:13:05Z</time>
  <course>13.23</course>
  <speed>1.7986939706353606</speed>
  <fix>3d</fix>
</trkpt>
<trkpt lat="33.8103763" lon="-118.3944179">
  <ele>-0.1</ele>
  <time>2026-09-01T01:13:05Z</time>
  <course>281.03</course>
  <speed>1.82</speed>
  <fix>3d</fix>
</trkpt>
<trkpt lat="33.8103771" lon="-118.3944244">
  <ele>-0.104</ele>
  <time>2026-09-01T01:13:05Z</time>
  <course>13.24</course>
  <speed>1.7986939706353606</speed>
  <fix>3d</fix>
</trkpt>
<trkpt lat="33.8103769" lon="-118.3944218">
  <ele>-0.1</ele>
  <time>2026-09-01T01:13:05Z</time>
  <course>281.05</course>
  <speed>1.82</speed>
  <fix>3d</fix>
</trkpt>
<trkpt lat="33.8103774" lon="-118.3944263">
  <ele>-0.104</ele>
  <time>2026-09-01T01:13:05Z</time>
  <course>13.25</course>
  <speed>1.7986939706353606</speed>
  <fix>3d</fix>
</trkpt>
<trkpt lat="33.8103769" lon="-118.3944218">
  <ele>-0.1</ele>
  <time>2026-09-01T01:13:05Z</time>
  <course>281.05</course>
  <speed>1.82</speed>
  <fix>3d</fix>
</trkpt>
<trkpt lat="33.8103777" lon="-118.3944283">
  <ele>-0.104</ele>
  <time>2026-09-01T01:13:05Z</time>
  <course>13.26</course>
  <speed>1.7986939706353606</speed>
  <fix>3d</fix>
</trkpt>
<trkpt lat="33.8103775" lon="-118.3944256">
  <ele>-0.1</ele>
  <time>2026-09-01T01:13:05Z</time>
  <course>281.06</course>
  <speed>1.82</speed>
  <fix>3d</fix>
</trkpt>
<trkpt lat="33.810378" lon="-118.3944302">
  <ele>-0.103</ele>
  <time>2026-09-01T01:13:05Z</time>
  <course>13.26</course>
  <speed>1.7986939706353606</speed>
  <fix>3d</fix>
</trkpt>
<trkpt lat="33.8103775" lon="-118.3944256">
  <ele>-0.1</ele>
  <time>2026-09-01T01:13:05Z</time>
  <course>281.06</course>
  <speed>1.82</speed>
  <fix>3d</fix>
</trkpt>
<trkpt lat="33.8103783" lon="-118.3944321">
  <ele>-0.103</ele>
  <time>2026-09-01T01:13:05Z</time>
  <course>13.27</course>
  <speed>1.7986939706353606</speed>
  <fix>3d</fix>
</trkpt>
<trkpt lat="33.8103782" lon="-118.3944295">
  <ele>-0.1</ele>
  <time>2026-09-01T01:13:05Z</time>
  <course>281.08</course>
  <speed>1.82</speed>
  <fix>3d</fix>
</trkpt>
<trkpt lat="33.8103787" lon="-118.3944341">
  <ele>-0.104</ele>
  <time>2026-09-01T01:13:05Z</time>
  <course>13.28</course>
  <speed>1.7986939706353606</speed>
  <fix>3d</fix>
</trkpt>
<trkpt lat="33.8103782" lon="-118.3944295">
  <ele>-0.1</ele>
  <time>2026-09-01T01:13:05Z</time>
  <course>281.08</course>
  <speed>1.82</speed>
  <fix>3d</fix>
</trkpt>
<trkpt lat="33.810379" lon="-118.394436">
  <ele>-0.104</ele>
  <time>2026-09-01T01:13:05Z</time>
  <course>13.28</course>
  <speed>1.7986939706353606</speed>
  <fix>3d</fix>
</trkpt>
<trkpt lat="33.8103788" lon="-118.3944334">
  <ele>-0.1</ele>
  <time>2026-09-01T01:13:05Z</time>
  <course>281.1</course>
  <speed>1.82</speed>
  <fix>3d</fix>
</trkpt>
<trkpt lat="33.8103793" lon="-118.3944379">
  <ele>-0.104</ele>
  <time>2026-09-01T01:13:05Z</time>
  <course>13.29</course>
  <speed>1.7986939706353606</speed>
  <fix>3d</fix>
</trkpt>
<trkpt lat="33.8103788" lon="-118.3944334">
  <ele>-0.1</ele>
  <time>2026-09-01T01:13:05Z</time>
  <course>281.1</course>
  <speed>1.82</speed>
  <fix>3d</fix>
</trkpt>
<trkpt lat="33.8103796" lon="-118.3944399">
  <ele>-0.104</ele>
  <time>2026-09-01T01:13:05Z</time>
  <course>13.3</course>
  <speed>1.7986939706353606</speed>
  <fix>3d</fix>
</trkpt>
<trkpt lat="33.8103794" lon="-118.3944372">
  <ele>-0.1</ele>
  <time>2026-09-01T01:13:05Z</time>
  <course>281.12</course>
  <speed>1.82</speed>
  <fix>3d</fix>
</trkpt>
<trkpt lat="33.8103799" lon="-118.3944418">
  <ele>-0.104</ele>
  <time>2026-09-01T01:13:05Z</time>
  <course>13.31</course>
  <speed>1.7986939706353606</speed>
  <fix>3d</fix>
</trkpt>
<trkpt lat="33.8103794" lon="-118.3944372">
  <ele>-0.1</ele>
  <time>2026-09-01T01:13:05Z</time>
  <course>281.12</course>
  <speed>1.82</speed>
  <fix>3d</fix>
</trkpt>
<trkpt lat="33.8103802" lon="-118.3944437">
  <ele>-0.106</ele>
  <time>2026-09-01T01:13:05Z</time>
  <course>13.31</course>
  <speed>1.7986939706353606</speed>
  <fix>3d</fix>
</trkpt>
<trkpt lat="33.8103801" lon="-118.3944411">
  <ele>-0.1</ele>
  <time>2026-09-01T01:13:05Z</time>
  <course>281.13</course>
  <speed>1.82</speed>
  <fix>3d</fix>
</trkpt>
<trkpt lat="33.8103806" lon="-118.3944457">
  <ele>-0.108</ele>
  <time>2026-09-01T01:13:05Z</time>
  <course>13.32</course>
  <speed>1.7986939706353606</speed>
  <fix>3d</fix>
</trkpt>
<trkpt lat="33.8103801" lon="-118.3944411">
  <ele>-0.1</ele>
  <time>2026-09-01T01:13:05Z</time>
  <course>281.13</course>
  <speed>1.82</speed>
  <fix>3d</fix>
</trkpt>
<trkpt lat="33.8103809" lon="-118.3944476">
  <ele>-0.109</ele>
  <time>2026-09-01T01:13:05Z</time>
  <course>13.33</course>
  <speed>1.7986939706353606</speed>
  <fix>3d</fix>
</trkpt>
<trkpt lat="33.8103806" lon="-118.394445">
  <ele>-0.1</ele>
  <time>2026-09-01T01:13:05Z</time>
  <course>281.15</course>
  <speed>1.82</speed>
  <fix>3d</fix>
</trkpt>
<trkpt lat="33.8103812" lon="-118.3944495">
  <ele>-0.11</ele>
  <time>2026-09-01T01:13:05Z</time>
  <course>13.33</course>
  <speed>1.7986939706353606</speed>
  <fix>3d</fix>
</trkpt>
<trkpt lat="33.8103806" lon="-118.394445">
  <ele>-0.1</ele>
  <time>2026-09-01T01:13:05Z</time>
  <course>281.15</course>
  <speed>1.82</speed>
  <fix>3d</fix>
</trkpt>
<trkpt lat="33.8103815" lon="-118.3944515">
  <ele>-0.11</ele>
  <time>2026-09-01T01:13:05Z</time>
  <course>13.34</course>
  <speed>1.7986939706353606</speed>
  <fix>3d</fix>
</trkpt>
<trkpt lat="33.8103813" lon="-118.3944488">
  <ele>-0.1</ele>
  <time>2026-09-01T01:13:05Z</time>
  <course>281.17</course>
  <speed>1.82</speed>
  <fix>3d</fix>
</trkpt>
<trkpt lat="33.8103818" lon="-118.3944534">
  <ele>-0.11</ele>
  <time>2026-09-01T01:13:05Z</time>
  <course>13.35</course>
  <speed>1.7986939706353606</speed>
  <fix>3d</fix>
</trkpt>
<trkpt lat="33.8103813" lon="-118.3944488">
  <ele>-0.1</ele>
  <time>2026-09-01T01:13:05Z</time>
  <course>281.17</course>
  <speed>1.82</speed>
  <fix>3d</fix>
</trkpt>
<trkpt lat="33.8103821" lon="-118.3944553">
  <ele>-0.111</ele>
  <time>2026-09-01T01:13:05Z</time>
  <course>13.36</course>
  <speed>1.7986939706353606</speed>
  <fix>3d</fix>
</trkpt>
<trkpt lat="33.810382" lon="-118.3944527">
  <ele>-0.1</ele>
  <time>2026-09-01T01:13:05Z</time>
  <course>281.18</course>
  <speed>1.82</speed>
  <fix>3d</fix>
</trkpt>
<trkpt lat="33.8103825" lon="-118.3944573">
  <ele>-0.11</ele>
  <time>2026-09-01T01:13:05Z</time>
  <course>13.36</course>
  <speed>1.7986939706353606</speed>
  <fix>3d</fix>
</trkpt>
<trkpt lat="33.810382" lon="-118.3944527">
  <ele>-0.1</ele>
  <time>2026-09-01T01:13:05Z</time>
  <course>281.18</course>
  <speed>1.82</speed>
  <fix>3d</fix>
</trkpt>
<trkpt lat="33.8103828" lon="-118.3944592">
  <ele>-0.109</ele>
  <time>2026-09-01T01:13:05Z</time>
  <course>13.37</course>
  <speed>1.7986939706353606</speed>
  <fix>3d</fix>
</trkpt>
<trkpt lat="33.8103826" lon="-118.3944566">
  <ele>-0.1</ele>
  <time>2026-09-01T01:13:05Z</time>
  <course>281.2</course>
  <speed>1.82</speed>
  <fix>3d</fix>
</trkpt>
<trkpt lat="33.8103831" lon="-118.3944611">
  <ele>-0.108</ele>
  <time>2026-09-01T01:13:05Z</time>
  <course>13.38</course>
  <speed>1.7986939706353606</speed>
  <fix>3d</fix>
</trkpt>
<trkpt lat="33.8103826" lon="-118.3944566">
  <ele>-0.1</ele>
  <time>2026-09-01T01:13:05Z</time>
  <course>281.2</course>
  <speed>1.82</speed>
  <fix>3d</fix>
</trkpt>
<trkpt lat="33.8103834" lon="-118.3944631">
  <ele>-0.106</ele>
  <time>2026-09-01T01:13:05Z</time>
  <course>13.38</course>
  <speed>1.7986939706353606</speed>
  <fix>3d</fix>
</trkpt>
<trkpt lat="33.8103833" lon="-118.3944604">
  <ele>-0.1</ele>
  <time>2026-09-01T01:13:05Z</time>
  <course>281.22</course>
  <speed>1.82</speed>
  <fix>3d</fix>
</trkpt>
<trkpt lat="33.8103837" lon="-118.394465">
  <ele>-0.106</ele>
  <time>2026-09-01T01:13:05Z</time>
  <course>13.39</course>
  <speed>1.7986939706353606</speed>
  <fix>3d</fix>
</trkpt>
<trkpt lat="33.8103833" lon="-118.3944604">
  <ele>-0.1</ele>
  <time>2026-09-01T01:13:05Z</time>
  <course>281.22</course>
  <speed>1.82</speed>
  <fix>3d</fix>
</trkpt>
<trkpt lat="33.8103841" lon="-118.394467">
  <ele>-0.107</ele>
  <time>2026-09-01T01:13:05Z</time>
  <course>13.4</course>
  <speed>1.7986939706353606</speed>
  <fix>3d</fix>
</trkpt>
<trkpt lat="33.8103839" lon="-118.3944643">
  <ele>-0.1</ele>
  <time>2026-09-01T01:13:05Z</time>
  <course>281.23</course>
  <speed>1.82</speed>
  <fix>3d</fix>
</trkpt>
<trkpt lat="33.8103844" lon="-118.3944689">
  <ele>-0.108</ele>
  <time>2026-09-01T01:13:05Z</time>
  <course>13.4</course>
  <speed>1.7986939706353606</speed>
  <fix>3d</fix>
</trkpt>
<trkpt lat="33.8103839" lon="-118.3944643">
  <ele>-0.1</ele>
  <time>2026-09-01T01:13:05Z</time>
  <course>281.23</course>
  <speed>1.82</speed>
  <fix>3d</fix>
</trkpt>
<trkpt lat="33.8103847" lon="-118.3944708">
  <ele>-0.108</ele>
  <time>2026-09-01T01:13:05Z</time>
  <course>13.41</course>
  <speed>1.7986939706353606</speed>
  <fix>3d</fix>
</trkpt>
<trkpt lat="33.8103845" lon="-118.3944682">
  <ele>-0.1</ele>
  <time>2026-09-01T01:13:05Z</time>
  <course>281.25</course>
  <speed>1.82</speed>
  <fix>3d</fix>
</trkpt>
<trkpt lat="33.810385" lon="-118.3944728">
  <ele>-0.109</ele>
  <time>2026-09-01T01:13:05Z</time>
  <course>13.42</course>
  <speed>1.800499930574839</speed>
  <fix>3d</fix>
</trkpt>
<trkpt lat="33.8103845" lon="-118.3944682">
  <ele>-0.1</ele>
  <time>2026-09-01T01:13:05Z</time>
  <course>281.25</course>
  <speed>1.82</speed>
  <fix>3d</fix>
</trkpt>
<trkpt lat="33.8103854" lon="-118.3944747">
  <ele>-0.11</ele>
  <time>2026-09-01T01:13:05Z</time>
  <course>13.42</course>
  <speed>1.800499930574839</speed>
  <fix>3d</fix>
</trkpt>
<trkpt lat="33.8103852" lon="-118.394472">
  <ele>-0.1</ele>
  <time>2026-09-01T01:13:05Z</time>
  <course>281.27</course>
  <speed>1.82</speed>
  <fix>3d</fix>
</trkpt>
<trkpt lat="33.8103857" lon="-118.3944766">
  <ele>-0.11</ele>
  <time>2026-09-01T01:13:05Z</time>
  <course>13.43</course>
  <speed>1.800499930574839</speed>
  <fix>3d</fix>
</trkpt>
<trkpt lat="33.8103852" lon="-118.394472">
  <ele>-0.1</ele>
  <time>2026-09-01T01:13:05Z</time>
  <course>281.27</course>
  <speed>1.82</speed>
  <fix>3d</fix>
</trkpt>
<trkpt lat="33.810386" lon="-118.3944786">
  <ele>-0.109</ele>
  <time>2026-09-01T01:13:05Z</time>
  <course>13.44</course>
  <speed>1.800499930574839</speed>
  <fix>3d</fix>
</trkpt>
<trkpt lat="33.8103857" lon="-118.3944759">
  <ele>-0.1</ele>
  <time>2026-09-01T01:13:05Z</time>
  <course>281.28</course>
  <speed>1.82</speed>
  <fix>3d</fix>
</trkpt>
<trkpt lat="33.8103863" lon="-118.3944805">
  <ele>-0.108</ele>
  <time>2026-09-01T01:13:05Z</time>
  <course>13.44</course>
  <speed>1.800499930574839</speed>
  <fix>3d</fix>
</trkpt>
<trkpt lat="33.8103857" lon="-118.3944759">
  <ele>-0.1</ele>
  <time>2026-09-01T01:13:05Z</time>
  <course>281.28</course>
  <speed>1.82</speed>
  <fix>3d</fix>
</trkpt>
<trkpt lat="33.8103866" lon="-118.3944824">
  <ele>-0.108</ele>
  <time>2026-09-01T01:13:05Z</time>
  <course>13.45</course>
  <speed>1.800499930574839</speed>
  <fix>3d</fix>
</trkpt>
<trkpt lat="33.8103864" lon="-118.3944797">
  <ele>-0.1</ele>
  <time>2026-09-01T01:13:05Z</time>
  <course>281.3</course>
  <speed>1.82</speed>
  <fix>3d</fix>
</trkpt>
<trkpt lat="33.810387" lon="-118.3944844">
  <ele>-0.107</ele>
  <time>2026-09-01T01:13:05Z</time>
  <course>13.46</course>
  <speed>1.800499930574839</speed>
  <fix>3d</fix>
</trkpt>
<trkpt lat="33.8103864" lon="-118.3944797">
  <ele>-0.1</ele>
  <time>2026-09-01T01:13:05Z</time>
  <course>281.3</course>
  <speed>1.82</speed>
  <fix>3d</fix>
</trkpt>
<trkpt lat="33.8103873" lon="-118.3944863">
  <ele>-0.107</ele>
  <time>2026-09-01T01:13:05Z</time>
  <course>13.46</course>
  <speed>1.800499930574839</speed>
  <fix>3d</fix>
</trkpt>
<trkpt lat="33.8103871" lon="-118.3944836">
  <ele>-0.1</ele>
  <time>2026-09-01T01:13:05Z</time>
  <course>281.31</course>
  <speed>1.82</speed>
  <fix>3d</fix>
</trkpt>
<trkpt lat="33.8103876" lon="-118.3944882">
  <ele>-0.107</ele>
  <time>2026-09-01T01:13:05Z</time>
  <course>13.47</course>
  <speed>1.800499930574839</speed>
  <fix>3d</fix>
</trkpt>
<trkpt lat="33.8103871" lon="-118.3944836">
  <ele>-0.1</ele>
  <time>2026-09-01T01:13:05Z</time>
  <course>281.31</course>
  <speed>1.82</speed>
  <fix>3d</fix>
</trkpt>
<trkpt lat="33.8103879" lon="-118.3944902">
  <ele>-0.106</ele>
  <time>2026-09-01T01:13:05Z</time>
  <course>13.48</course>
  <speed>1.800499930574839</speed>
  <fix>3d</fix>
</trkpt>
<trkpt lat="33.8103877" lon="-118.3944875">
  <ele>-0.1</ele>
  <time>2026-09-01T01:13:05Z</time>
  <course>281.33</course>
  <speed>1.82</speed>
  <fix>3d</fix>
</trkpt>
<trkpt lat="33.8103882" lon="-118.3944921">
  <ele>-0.107</ele>
  <time>2026-09-01T01:13:05Z</time>
  <course>13.48</course>
  <speed>1.800499930574839</speed>
  <fix>3d</fix>
</trkpt>
<trkpt lat="33.8103877" lon="-118.3944875">
  <ele>-0.1</ele>
  <time>2026-09-01T01:13:05Z</time>
  <course>281.33</course>
  <speed>1.82</speed>
  <fix>3d</fix>
</trkpt>
<trkpt lat="33.8103886" lon="-118.394494">
  <ele>-0.108</ele>
  <time>2026-09-01T01:13:05Z</time>
  <course>13.49</course>
  <speed>1.800499930574839</speed>
  <fix>3d</fix>
</trkpt>
<trkpt lat="33.8103883" lon="-118.3944913">
  <ele>-0.1</ele>
  <time>2026-09-01T01:13:05Z</time>
  <course>281.34</course>
  <speed>1.82</speed>
  <fix>3d</fix>
</trkpt>
<trkpt lat="33.8103889" lon="-118.394496">
  <ele>-0.108</ele>
  <time>2026-09-01T01:13:05Z</time>
  <course>13.5</course>
  <speed>1.800499930574839</speed>
  <fix>3d</fix>
</trkpt>
<trkpt lat="33.8103883" lon="-118.3944913">
  <ele>-0.1</ele>
  <time>2026-09-01T01:13:05Z</time>
  <course>281.34</course>
  <speed>1.82</speed>
  <fix>3d</fix>
</trkpt>
<trkpt lat="33.8103892" lon="-118.3944979">
  <ele>-0.107</ele>
  <time>2026-09-01T01:13:05Z</time>
  <course>13.5</course>
  <speed>1.800499930574839</speed>
  <fix>3d</fix>
</trkpt>
<trkpt lat="33.810389" lon="-118.3944952">
  <ele>-0.1</ele>
  <time>2026-09-01T01:13:05Z</time>
  <course>281.36</course>
  <speed>1.82</speed>
  <fix>3d</fix>
</trkpt>
<trkpt lat="33.8103895" lon="-118.3944998">
  <ele>-0.106</ele>
  <time>2026-09-01T01:13:05Z</time>
  <course>13.51</course>
  <speed>1.800499930574839</speed>
  <fix>3d</fix>
</trkpt>
<trkpt lat="33.810389" lon="-118.3944952">
  <ele>-0.1</ele>
  <time>2026-09-01T01:13:05Z</time>
  <course>281.36</course>
  <speed>1.82</speed>
  <fix>3d</fix>
</trkpt>
<trkpt lat="33.8103898" lon="-118.3945018">
  <ele>-0.104</ele>
  <time>2026-09-01T01:13:05Z</time>
  <course>13.52</course>
  <speed>1.800499930574839</speed>
  <fix>3d</fix>
</trkpt>
<trkpt lat="33.8103897" lon="-118.394499">
  <ele>-0.1</ele>
  <time>2026-09-01T01:13:05Z</time>
  <course>281.37</course>
  <speed>1.82</speed>
  <fix>3d</fix>
</trkpt>
<trkpt lat="33.8103902" lon="-118.3945037">
  <ele>-0.103</ele>
  <time>2026-09-01T01:13:05Z</time>
  <course>13.52</course>
  <speed>1.800499930574839</speed>
  <fix>3d</fix>
</trkpt>
<trkpt lat="33.8103897" lon="-118.394499">
  <ele>-0.1</ele>
  <time>2026-09-01T01:13:05Z</time>
  <course>281.37</course>
  <speed>1.82</speed>
  <fix>3d</fix>
</trkpt>
<trkpt lat="33.8103905" lon="-118.3945056">
  <ele>-0.103</ele>
  <time>2026-09-01T01:13:05Z</time>
  <course>13.53</course>
  <speed>1.800499930574839</speed>
  <fix>3d</fix>
</trkpt>
<trkpt lat="33.8103903" lon="-118.3945029">
  <ele>-0.1</ele>
  <time>2026-09-01T01:13:05Z</time>
  <course>281.39</course>
  <speed>1.82</speed>
  <fix>3d</fix>
</trkpt>
<trkpt lat="33.8103908" lon="-118.3945076">
  <ele>-0.102</ele>
  <time>2026-09-01T01:13:05Z</time>
  <course>13.54</course>
  <speed>1.800499930574839</speed>
  <fix>3d</fix>
</trkpt>
<trkpt lat="33.8103903" lon="-118.3945029">
  <ele>-0.1</ele>
  <time>2026-09-01T01:13:05Z</time>
  <course>281.39</course>
  <speed>1.82</speed>
  <fix>3d</fix>
</trkpt>
<trkpt lat="33.8103911" lon="-118.3945095">
  <ele>-0.102</ele>
  <time>2026-09-01T01:13:05Z</time>
  <course>13.54</course>
  <speed>1.800499930574839</speed>
  <fix>3d</fix>
</trkpt>
<trkpt lat="33.8103909" lon="-118.3945067">
  <ele>-0.1</ele>
  <time>2026-09-01T01:13:05Z</time>
  <course>281.41</course>
  <speed>1.82</speed>
  <fix>3d</fix>
</trkpt>
<trkpt lat="33.8103915" lon="-118.3945114">
  <ele>-0.102</ele>
  <time>2026-09-01T01:13:05Z</time>
  <course>13.55</course>
  <speed>1.800499930574839</speed>
  <fix>3d</fix>
</trkpt>
<trkpt lat="33.8103909" lon="-118.3945067">
  <ele>-0.1</ele>
  <time>2026-09-01T01:13:05Z</time>
  <course>281.41</course>
  <speed>1.82</speed>
  <fix>3d</fix>
</trkpt>
<trkpt lat="33.8103918" lon="-118.3945134">
  <ele>-0.103</ele>
  <time>2026-09-01T01:13:05Z</time>
  <course>13.55</course>
  <speed>1.800499930574839</speed>
  <fix>3d</fix>
</trkpt>
<trkpt lat="33.8103916" lon="-118.3945106">
  <ele>-0.1</ele>
  <time>2026-09-01T01:13:05Z</time>
  <course>281.42</course>
  <speed>1.82</speed>
  <fix>3d</fix>
</trkpt>
<trkpt lat="33.8103921" lon="-118.3945153">
  <ele>-0.104</ele>
  <time>2026-09-01T01:13:05Z</time>
  <course>13.56</course>
  <speed>1.7906702655709676</speed>
  <fix>3d</fix>
</trkpt>
<trkpt lat="33.8103916" lon="-118.3945106">
  <ele>-0.1</ele>
  <time>2026-09-01T01:13:05Z</time>
  <course>281.42</course>
  <speed>1.82</speed>
  <fix>3d</fix>
</trkpt>
<trkpt lat="33.8103924" lon="-118.3945172">
  <ele>-0.106</ele>
  <time>2026-09-01T01:13:05Z</time>
  <course>13.57</course>
  <speed>1.7906702655709676</speed>
  <fix>3d</fix>
</trkpt>
<trkpt lat="33.8103922" lon="-118.3945145">
  <ele>-0.1</ele>
  <time>2026-09-01T01:13:05Z</time>
  <course>281.44</course>
  <speed>1.82</speed>
  <fix>3d</fix>
</trkpt>
<trkpt lat="33.8103928" lon="-118.3945191">
  <ele>-0.107</ele>
  <time>2026-09-01T01:13:05Z</time>
  <course>13.57</course>
  <speed>1.7906702655709676</speed>
  <fix>3d</fix>
</trkpt>
<trkpt lat="33.8103922" lon="-118.3945145">
  <ele>-0.1</ele>
  <time>2026-09-01T01:13:05Z</time>
  <course>281.44</course>
  <speed>1.82</speed>
  <fix>3d</fix>
</trkpt>
<trkpt lat="33.8103931" lon="-118.3945211">
  <ele>-0.108</ele>
  <time>2026-09-01T01:13:05Z</time>
  <course>13.58</course>
  <speed>1.7906702655709676</speed>
  <fix>3d</fix>
</trkpt>
<trkpt lat="33.8103928" lon="-118.3945184">
  <ele>-0.1</ele>
  <time>2026-09-01T01:13:05Z</time>
  <course>281.45</course>
  <speed>1.82</speed>
  <fix>3d</fix>
</trkpt>
<trkpt lat="33.8103934" lon="-118.394523">
  <ele>-0.109</ele>
  <time>2026-09-01T01:13:05Z</time>
  <course>13.59</course>
  <speed>1.7906702655709676</speed>
  <fix>3d</fix>
</trkpt>
<trkpt lat="33.8103928" lon="-118.3945184">
  <ele>-0.1</ele>
  <time>2026-09-01T01:13:05Z</time>
  <course>281.45</course>
  <speed>1.82</speed>
  <fix>3d</fix>
</trkpt>
<trkpt lat="33.8103937" lon="-118.3945249">
  <ele>-0.109</ele>
  <time>2026-09-01T01:13:05Z</time>
  <course>13.59</course>
  <speed>1.800499930574839</speed>
  <fix>3d</fix>
</trkpt>
<trkpt lat="33.8103935" lon="-118.3945222">
  <ele>-0.1</ele>
  <time>2026-09-01T01:13:05Z</time>
  <course>281.46</course>
  <speed>1.82</speed>
  <fix>3d</fix>
</trkpt>
<trkpt lat="33.8103941" lon="-118.3945269">
  <ele>-0.109</ele>
  <time>2026-09-01T01:13:05Z</time>
  <course>13.6</course>
  <speed>1.7906702655709676</speed>
  <fix>3d</fix>
</trkpt>
<trkpt lat="33.8103935" lon="-118.3945222">
  <ele>-0.1</ele>
  <time>2026-09-01T01:13:05Z</time>
  <course>281.46</course>
  <speed>1.82</speed>
  <fix>3d</fix>
</trkpt>
<trkpt lat="33.8103944" lon="-118.3945288">
  <ele>-0.109</ele>
  <time>2026-09-01T01:13:05Z</time>
  <course>13.6</course>
  <speed>1.800499930574839</speed>
  <fix>3d</fix>
</trkpt>
<trkpt lat="33.8103942" lon="-118.3945261">
  <ele>-0.1</ele>
  <time>2026-09-01T01:13:05Z</time>
  <course>281.48</course>
  <speed>1.82</speed>
  <fix>3d</fix>
</trkpt>
<trkpt lat="33.8103947" lon="-118.3945307">
  <ele>-0.11</ele>
  <time>2026-09-01T01:13:05Z</time>
  <course>13.61</course>
  <speed>1.800499930574839</speed>
  <fix>3d</fix>
</trkpt>
<trkpt lat="33.8103942" lon="-118.3945261">
  <ele>-0.1</ele>
  <time>2026-09-01T01:13:05Z</time>
  <course>281.48</course>
  <speed>1.82</speed>
  <fix>3d</fix>
</trkpt>
<trkpt lat="33.810395" lon="-118.3945327">
  <ele>-0.109</ele>
  <time>2026-09-01T01:13:05Z</time>
  <course>13.62</course>
  <speed>1.800499930574839</speed>
  <fix>3d</fix>
</trkpt>
<trkpt lat="33.8103948" lon="-118.3945299">
  <ele>-0.1</ele>
  <time>2026-09-01T01:13:05Z</time>
  <course>281.49</course>
  <speed>1.82</speed>
  <fix>3d</fix>
</trkpt>
<trkpt lat="33.8103954" lon="-118.3945346">
  <ele>-0.109</ele>
  <time>2026-09-01T01:13:05Z</time>
  <course>13.62</course>
  <speed>1.800499930574839</speed>
  <fix>3d</fix>
</trkpt>
<trkpt lat="33.8103948" lon="-118.3945299">
  <ele>-0.1</ele>
  <time>2026-09-01T01:13:05Z</time>
  <course>281.49</course>
  <speed>1.82</speed>
  <fix>3d</fix>
</trkpt>
<trkpt lat="33.8103957" lon="-118.3945365">
  <ele>-0.11</ele>
  <time>2026-09-01T01:13:05Z</time>
  <course>13.63</course>
  <speed>1.800499930574839</speed>
  <fix>3d</fix>
</trkpt>
<trkpt lat="33.8103955" lon="-118.3945338">
  <ele>-0.1</ele>
  <time>2026-09-01T01:13:05Z</time>
  <course>281.51</course>
  <speed>1.82</speed>
  <fix>3d</fix>
</trkpt>
<trkpt lat="33.810396" lon="-118.3945385">
  <ele>-0.11</ele>
  <time>2026-09-01T01:13:05Z</time>
  <course>13.63</course>
  <speed>1.7906702655709676</speed>
  <fix>3d</fix>
</trkpt>
<trkpt lat="33.8103955" lon="-118.3945338">
  <ele>-0.1</ele>
  <time>2026-09-01T01:13:05Z</time>
  <course>281.51</course>
  <speed>1.82</speed>
  <fix>3d</fix>
</trkpt>
<trkpt lat="33.8103963" lon="-118.3945404">
  <ele>-0.111</ele>
  <time>2026-09-01T01:13:05Z</time>
  <course>13.64</course>
  <speed>1.7906702655709676</speed>
  <fix>3d</fix>
</trkpt>
<trkpt lat="33.8103962" lon="-118.3945376">
  <ele>-0.1</ele>
  <time>2026-09-01T01:13:05Z</time>
  <course>281.52</course>
  <speed>1.82</speed>
  <fix>3d</fix>
</trkpt>
<trkpt lat="33.8103967" lon="-118.3945423">
  <ele>-0.112</ele>
  <time>2026-09-01T01:13:05Z</time>
  <course>13.65</course>
  <speed>1.7906702655709676</speed>
  <fix>3d</fix>
</trkpt>
<trkpt lat="33.8103962" lon="-118.3945376">
  <ele>-0.1</ele>
  <time>2026-09-01T01:13:05Z</time>
  <course>281.52</course>
  <speed>1.82</speed>
  <fix>3d</fix>
</trkpt>
<trkpt lat="33.810397" lon="-118.3945443">
  <ele>-0.114</ele>
  <time>2026-09-01T01:13:05Z</time>
  <course>13.65</course>
  <speed>1.7906702655709676</speed>
  <fix>3d</fix>
</trkpt>
<trkpt lat="33.8103968" lon="-118.3945415">
  <ele>-0.1</ele>
  <time>2026-09-01T01:13:05Z</time>
  <course>281.54</course>
  <speed>1.82</speed>
  <fix>3d</fix>
</trkpt>
<trkpt lat="33.8103973" lon="-118.3945462">
  <ele>-0.116</ele>
  <time>2026-09-01T01:13:05Z</time>
  <course>13.66</course>
  <speed>1.7906702655709676</speed>
  <fix>3d</fix>
</trkpt>
<trkpt lat="33.8103968" lon="-118.3945415">
  <ele>-0.1</ele>
  <time>2026-09-01T01:13:05Z</time>
  <course>281.54</course>
  <speed>1.82</speed>
  <fix>3d</fix>
</trkpt>
<trkpt lat="33.8103977" lon="-118.3945481">
  <ele>-0.117</ele>
  <time>2026-09-01T01:13:05Z</time>
  <course>13.66</course>
  <speed>1.7906702655709676</speed>
  <fix>3d</fix>
</trkpt>
<trkpt lat="33.8103974" lon="-118.3945454">
  <ele>-0.1</ele>
  <time>2026-09-01T01:13:05Z</time>
  <course>281.55</course>
  <speed>1.82</speed>
  <fix>3d</fix>
</trkpt>
<trkpt lat="33.810398" lon="-118.3945501">
  <ele>-0.118</ele>
  <time>2026-09-01T01:13:05Z</time>
  <course>13.67</course>
  <speed>1.7906702655709676</speed>
  <fix>3d</fix>
</trkpt>
<trkpt lat="33.8103974" lon="-118.3945454">
  <ele>-0.1</ele>
  <time>2026-09-01T01:13:05Z</time>
  <course>281.55</course>
  <speed>1.82</speed>
  <fix>3d</fix>
</trkpt>
<trkpt lat="33.8103983" lon="-118.394552">
  <ele>-0.119</ele>
  <time>2026-09-01T01:13:05Z</time>
  <course>13.68</course>
  <speed>1.7906702655709676</speed>
  <fix>3d</fix>
</trkpt>
<trkpt lat="33.8103981" lon="-118.3945492">
  <ele>-0.1</ele>
  <time>2026-09-01T01:13:05Z</time>
  <course>281.57</course>
  <speed>1.82</speed>
  <fix>3d</fix>
</trkpt>
<trkpt lat="33.8103986" lon="-118.3945539">
  <ele>-0.119</ele>
  <time>2026-09-01T01:13:05Z</time>
  <course>13.68</course>
  <speed>1.7906702655709676</speed>
  <fix>3d</fix>
</trkpt>
<trkpt lat="33.8103981" lon="-118.3945492">
  <ele>-0.1</ele>
  <time>2026-09-01T01:13:05Z</time>
  <course>281.57</course>
  <speed>1.82</speed>
  <fix>3d</fix>
</trkpt>
<trkpt lat="33.810399" lon="-118.3945559">
  <ele>-0.12</ele>
  <time>2026-09-01T01:13:05Z</time>
  <course>13.69</course>
  <speed>1.7906702655709676</speed>
  <fix>3d</fix>
</trkpt>
<trkpt lat="33.8103988" lon="-118.3945531">
  <ele>-0.1</ele>
  <time>2026-09-01T01:13:05Z</time>
  <course>281.58</course>
  <speed>1.82</speed>
  <fix>3d</fix>
</trkpt>
<trkpt lat="33.8103993" lon="-118.3945578">
  <ele>-0.119</ele>
  <time>2026-09-01T01:13:05Z</time>
  <course>13.69</course>
  <speed>1.7906702655709676</speed>
  <fix>3d</fix>
</trkpt>
<trkpt lat="33.8103988" lon="-118.3945531">
  <ele>-0.1</ele>
  <time>2026-09-01T01:13:05Z</time>
  <course>281.58</course>
  <speed>1.82</speed>
  <fix>3d</fix>
</trkpt>
<trkpt lat="33.8103996" lon="-118.3945597">
  <ele>-0.118</ele>
  <time>2026-09-01T01:13:05Z</time>
  <course>13.7</course>
  <speed>1.7906702655709676</speed>
  <fix>3d</fix>
</trkpt>
<trkpt lat="33.8103994" lon="-118.3945569">
  <ele>-0.1</ele>
  <time>2026-09-01T01:13:05Z</time>
  <course>281.59</course>
  <speed>1.82</speed>
  <fix>3d</fix>
</trkpt>
<trkpt lat="33.8104" lon="-118.3945616">
  <ele>-0.117</ele>
  <time>2026-09-01T01:13:05Z</time>
  <course>13.71</course>
  <speed>1.7906702655709676</speed>
  <fix>3d</fix>
</trkpt>
<trkpt lat="33.8103994" lon="-118.3945569">
  <ele>-0.1</ele>
  <time>2026-09-01T01:13:05Z</time>
  <course>281.59</course>
  <speed>1.82</speed>
  <fix>3d</fix>
</trkpt>
<trkpt lat="33.8104003" lon="-118.3945636">
  <ele>-0.116</ele>
  <time>2026-09-01T01:13:05Z</time>
  <course>13.71</course>
  <speed>1.7906702655709676</speed>
  <fix>3d</fix>
</trkpt>
<trkpt lat="33.8104" lon="-118.3945608">
  <ele>-0.1</ele>
  <time>2026-09-01T01:13:05Z</time>
  <course>281.61</course>
  <speed>1.82</speed>
  <fix>3d</fix>
</trkpt>
<trkpt lat="33.8104006" lon="-118.3945655">
  <ele>-0.116</ele>
  <time>2026-09-01T01:13:05Z</time>
  <course>13.72</course>
  <speed>1.7906702655709676</speed>
  <fix>3d</fix>
</trkpt>
<trkpt lat="33.8104" lon="-118.3945608">
  <ele>-0.1</ele>
  <time>2026-09-01T01:13:05Z</time>
  <course>281.61</course>
  <speed>1.82</speed>
  <fix>3d</fix>
</trkpt>
<trkpt lat="33.8104009" lon="-118.3945674">
  <ele>-0.115</ele>
  <time>2026-09-01T01:13:05Z</time>
  <course>13.72</course>
  <speed>1.7906702655709676</speed>
  <fix>3d</fix>
</trkpt>
<trkpt lat="33.8104007" lon="-118.3945647">
  <ele>-0.1</ele>
  <time>2026-09-01T01:13:05Z</time>
  <course>281.62</course>
  <speed>1.82</speed>
  <fix>3d</fix>
</trkpt>
<trkpt lat="33.8104013" lon="-118.3945694">
  <ele>-0.114</ele>
  <time>2026-09-01T01:13:05Z</time>
  <course>13.73</course>
  <speed>1.7906702655709676</speed>
  <fix>3d</fix>
</trkpt>
<trkpt lat="33.8104007" lon="-118.3945647">
  <ele>-0.1</ele>
  <time>2026-09-01T01:13:05Z</time>
  <course>281.62</course>
  <speed>1.82</speed>
  <fix>3d</fix>
</trkpt>
<trkpt lat="33.8104016" lon="-118.3945713">
  <ele>-0.113</ele>
  <time>2026-09-01T01:13:05Z</time>
  <course>13.74</course>
  <speed>1.7906702655709676</speed>
  <fix>3d</fix>
</trkpt>
<trkpt lat="33.8104014" lon="-118.3945685">
  <ele>-0.1</ele>
  <time>2026-09-01T01:13:05Z</time>
  <course>281.63</course>
  <speed>1.82</speed>
  <fix>3d</fix>
</trkpt>
<trkpt lat="33.8104019" lon="-118.3945732">
  <ele>-0.112</ele>
  <time>2026-09-01T01:13:05Z</time>
  <course>13.74</course>
  <speed>1.7906702655709676</speed>
  <fix>3d</fix>
</trkpt>
<trkpt lat="33.8104014" lon="-118.3945685">
  <ele>-0.1</ele>
  <time>2026-09-01T01:13:05Z</time>
  <course>281.63</course>
  <speed>1.82</speed>
  <fix>3d</fix>
</trkpt>
<trkpt lat="33.8104023" lon="-118.3945751">
  <ele>-0.11</ele>
  <time>2026-09-01T01:13:05Z</time>
  <course>13.75</course>
  <speed>1.7925400971805345</speed>
  <fix>3d</fix>
</trkpt>
<trkpt lat="33.8104021" lon="-118.3945723">
  <ele>-0.1</ele>
  <time>2026-09-01T01:13:05Z</time>
  <course>281.65</course>
  <speed>1.82</speed>
  <fix>3d</fix>
</trkpt>
<trkpt lat="33.8104026" lon="-118.3945771">
  <ele>-0.109</ele>
  <time>2026-09-01T01:13:05Z</time>
  <course>13.75</course>
  <speed>1.7925400971805345</speed>
  <fix>3d</fix>
</trkpt>
<trkpt lat="33.8104021" lon="-118.3945723">
  <ele>-0.1</ele>
  <time>2026-09-01T01:13:05Z</time>
  <course>281.65</course>
  <speed>1.82</speed>
  <fix>3d</fix>
</trkpt>
<trkpt lat="33.8104029" lon="-118.394579">
  <ele>-0.109</ele>
  <time>2026-09-01T01:13:05Z</time>
  <course>13.76</course>
  <speed>1.7925400971805345</speed>
  <fix>3d</fix>
</trkpt>
<trkpt lat="33.8104027" lon="-118.3945762">
  <ele>-0.1</ele>
  <time>2026-09-01T01:13:05Z</time>
  <course>281.66</course>
  <speed>1.82</speed>
  <fix>3d</fix>
</trkpt>
<trkpt lat="33.8104033" lon="-118.3945809">
  <ele>-0.109</ele>
  <time>2026-09-01T01:13:05Z</time>
  <course>13.76</course>
  <speed>1.7925400971805345</speed>
  <fix>3d</fix>
</trkpt>
<trkpt lat="33.8104027" lon="-118.3945762">
  <ele>-0.1</ele>
  <time>2026-09-01T01:13:05Z</time>
  <course>281.66</course>
  <speed>1.82</speed>
  <fix>3d</fix>
</trkpt>
<trkpt lat="33.8104036" lon="-118.3945828">
  <ele>-0.109</ele>
  <time>2026-09-01T01:13:05Z</time>
  <course>13.77</course>
  <speed>1.7925400971805345</speed>
  <fix>3d</fix>
</trkpt>
<trkpt lat="33.8104034" lon="-118.3945801">
  <ele>-0.1</ele>
  <time>2026-09-01T01:13:05Z</time>
  <course>281.68</course>
  <speed>1.82</speed>
  <fix>3d</fix>
</trkpt>
<trkpt lat="33.8104039" lon="-118.3945848">
  <ele>-0.109</ele>
  <time>2026-09-01T01:13:06Z</time>
  <course>13.77</course>
  <speed>1.7925400971805345</speed>
  <fix>3d</fix>
</trkpt>
<trkpt lat="33.8104034" lon="-118.3945801">
  <ele>-0.1</ele>
  <time>2026-09-01T01:13:06Z</time>
  <course>281.68</course>
  <speed>1.82</speed>
  <fix>3d</fix>
</trkpt>
<trkpt lat="33.8104043" lon="-118.3945867">
  <ele>-0.11</ele>
  <time>2026-09-01T01:13:06Z</time>
  <course>13.78</course>
  <speed>1.7925400971805345</speed>
  <fix>3d</fix>
</trkpt>
<trkpt lat="33.8104041" lon="-118.3945839">
  <ele>-0.1</ele>
  <time>2026-09-01T01:13:06Z</time>
  <course>281.69</course>
  <speed>1.82</speed>
  <fix>3d</fix>
</trkpt>
<trkpt lat="33.8104046" lon="-118.3945886">
  <ele>-0.11</ele>
  <time>2026-09-01T01:13:06Z</time>
  <course>13.79</course>
  <speed>1.7925400971805345</speed>
  <fix>3d</fix>
</trkpt>
<trkpt lat="33.8104041" lon="-118.3945839">
  <ele>-0.1</ele>
  <time>2026-09-01T01:13:06Z</time>
  <course>281.69</course>
  <speed>1.82</speed>
  <fix>3d</fix>
</trkpt>
<trkpt lat="33.8104048" lon="-118.3945901">
  <ele>-0.112</ele>
  <time>2026-09-01T01:13:06Z</time>
  <course>13.79</course>
  <speed>0.9192388155425119</speed>
  <fix>3d</fix>
</trkpt>
<trkpt lat="33.8104047" lon="-118.3945878">
  <ele>-0.1</ele>
  <time>2026-09-01T01:13:06Z</time>
  <course>281.67</course>
  <speed>1.73</speed>
  <fix>3d</fix>
</trkpt>
<trkpt lat="33.8104049" lon="-118.3945909">
  <ele>-0.119</ele>
  <time>2026-09-01T01:13:06Z</time>
  <course>13.8</course>
  <speed>0.5821511831131153</speed>
  <fix>3d</fix>
</trkpt>
<trkpt lat="33.8104047" lon="-118.3945878">
  <ele>-0.1</ele>
  <time>2026-09-01T01:13:06Z</time>
  <course>281.67</course>
  <speed>1.73</speed>
  <fix>3d</fix>
</trkpt>
<trkpt lat="33.810405" lon="-118.3945914">
  <ele>-0.128</ele>
  <time>2026-09-01T01:13:06Z</time>
  <course>13.8</course>
  <speed>0.4301162633521314</speed>
  <fix>3d</fix>
</trkpt>
<trkpt lat="33.8104052" lon="-118.3945907">
  <ele>-0.11</ele>
  <time>2026-09-01T01:13:06Z</time>
  <course>281.28</course>
  <speed>1.1</speed>
  <fix>3d</fix>
</trkpt>
<trkpt lat="33.810405" lon="-118.3945919">
  <ele>-0.137</ele>
  <time>2026-09-01T01:13:06Z</time>
  <course>13.8</course>
  <speed>0.34</speed>
  <fix>3d</fix>
</trkpt>
<trkpt lat="33.8104052" lon="-118.3945907">
  <ele>-0.11</ele>
  <time>2026-09-01T01:13:06Z</time>
  <course>281.28</course>
  <speed>1.1</speed>
  <fix>3d</fix>
</trkpt>
<trkpt lat="33.8104051" lon="-118.3945924">
  <ele>-0.145</ele>
  <time>2026-09-01T01:13:06Z</time>
  <course>13.8</course>
  <speed>0.29017236257093815</speed>
  <fix>3d</fix>
</trkpt>
<trkpt lat="33.8104054" lon="-118.3945921">
  <ele>-0.12</ele>
  <time>2026-09-01T01:13:06Z</time>
  <course>279.7</course>
  <speed>0.44</speed>
  <fix>3d</fix>
</trkpt>
<trkpt lat="33.8104051" lon="-118.3945927">
  <ele>-0.153</ele>
  <time>2026-09-01T01:13:06Z</time>
  <course>13.8</course>
  <speed>0.25079872407968906</speed>
  <fix>3d</fix>
</trkpt>
<trkpt lat="33.8104054" lon="-118.3945921">
  <ele>-0.12</ele>
  <time>2026-09-01T01:13:06Z</time>
  <course>279.7</course>
  <speed>0.44</speed>
  <fix>3d</fix>
</trkpt>
<trkpt lat="33.8104051" lon="-118.394593">
  <ele>-0.159</ele>
  <time>2026-09-01T01:13:06Z</time>
  <course>13.8</course>
  <speed>0.2220360331117452</speed>
  <fix>3d</fix>
</trkpt>
<trkpt lat="33.8104055" lon="-118.3945929">
  <ele>-0.14</ele>
  <time>2026-09-01T01:13:06Z</time>
  <course>278.3</course>
  <speed>0.28</speed>
  <fix>3d</fix>
</trkpt>
<trkpt lat="33.8104051" lon="-118.3945933">
  <ele>-0.165</ele>
  <time>2026-09-01T01:13:06Z</time>
  <course>13.79</course>
  <speed>0.20223748416156684</speed>
  <fix>3d</fix>
</trkpt>
<trkpt lat="33.8104055" lon="-118.3945929">
  <ele>-0.14</ele>
  <time>2026-09-01T01:13:06Z</time>
  <course>278.3</course>
  <speed>0.28</speed>
  <fix>3d</fix>
</trkpt>
<trkpt lat="33.8104052" lon="-118.3945935">
  <ele>-0.17</ele>
  <time>2026-09-01T01:13:06Z</time>
  <course>13.79</course>
  <speed>0.1824828759089466</speed>
  <fix>3d</fix>
</trkpt>
<trkpt lat="33.8104055" lon="-118.3945934">
  <ele>-0.15</ele>
  <time>2026-09-01T01:13:06Z</time>
  <course>276.98</course>
  <speed>0.21</speed>
  <fix>3d</fix>
</trkpt>
<trkpt lat="33.8104052" lon="-118.3945937">
  <ele>-0.173</ele>
  <time>2026-09-01T01:13:06Z</time>
  <course>13.79</course>
  <speed>0.1649242250247064</speed>
  <fix>3d</fix>
</trkpt>
<trkpt lat="33.8104055" lon="-118.3945934">
  <ele>-0.15</ele>
  <time>2026-09-01T01:13:06Z</time>
  <course>276.98</course>
  <speed>0.21</speed>
  <fix>3d</fix>
</trkpt>
<trkpt lat="33.8104052" lon="-118.3945939">
  <ele>-0.175</ele>
  <time>2026-09-01T01:13:06Z</time>
  <course>13.78</course>
  <speed>0.15524174696260024</speed>
  <fix>3d</fix>
</trkpt>
<trkpt lat="33.8104056" lon="-118.3945938">
  <ele>-0.16</ele>
  <time>2026-09-01T01:13:06Z</time>
  <course>275.72</course>
  <speed>0.17</speed>
  <fix>3d</fix>
</trkpt>
<trkpt lat="33.8104052" lon="-118.3945941">
  <ele>-0.177</ele>
  <time>2026-09-01T01:13:06Z</time>
  <course>13.78</course>
  <speed>0.14560219778561037</speed>
  <fix>3d</fix>
</trkpt>
<trkpt lat="33.8104056" lon="-118.3945938">
  <ele>-0.16</ele>
  <time>2026-09-01T01:13:06Z</time>
  <course>275.72</course>
  <speed>0.17</speed>
  <fix>3d</fix>
</trkpt>
<trkpt lat="33.8104052" lon="-118.3945943">
  <ele>-0.178</ele>
  <time>2026-09-01T01:13:06Z</time>
  <course>13.78</course>
  <speed>0.13601470508735444</speed>
  <fix>3d</fix>
</trkpt>
<trkpt lat="33.8104056" lon="-118.3945941">
  <ele>-0.16</ele>
  <time>2026-09-01T01:13:06Z</time>
  <course>274.52</course>
  <speed>0.14</speed>
  <fix>3d</fix>
</trkpt>
<trkpt lat="33.8104052" lon="-118.3945944">
  <ele>-0.18</ele>
  <time>2026-09-01T01:13:06Z</time>
  <course>13.77</course>
  <speed>0.1264911064067352</speed>
  <fix>3d</fix>
</trkpt>
<trkpt lat="33.8104056" lon="-118.3945941">
  <ele>-0.16</ele>
  <time>2026-09-01T01:13:06Z</time>
  <course>274.52</course>
  <speed>0.14</speed>
  <fix>3d</fix>
</trkpt>
<trkpt lat="33.8104052" lon="-118.3945946">
  <ele>-0.18</ele>
  <time>2026-09-01T01:13:06Z</time>
  <course>13.77</course>
  <speed>0.11704699910719625</speed>
  <fix>3d</fix>
</trkpt>
<trkpt lat="33.8104056" lon="-118.3945944">
  <ele>-0.17</ele>
  <time>2026-09-01T01:13:06Z</time>
  <course>273.36</course>
  <speed>0.12</speed>
  <fix>3d</fix>
</trkpt>
<trkpt lat="33.8104052" lon="-118.3945947">
  <ele>-0.179</ele>
  <time>2026-09-01T01:13:06Z</time>
  <course>13.77</course>
  <speed>0.11704699910719625</speed>
  <fix>3d</fix>
</trkpt>
<trkpt lat="33.8104056" lon="-118.3945944">
  <ele>-0.17</ele>
  <time>2026-09-01T01:13:06Z</time>
  <course>273.36</course>
  <speed>0.12</speed>
  <fix>3d</fix>
</trkpt>
<trkpt lat="33.8104052" lon="-118.3945948">
  <ele>-0.176</ele>
  <time>2026-09-01T01:13:06Z</time>
  <course>13.77</course>
  <speed>0.10770329614269007</speed>
  <fix>3d</fix>
</trkpt>
<trkpt lat="33.8104056" lon="-118.3945947">
  <ele>-0.17</ele>
  <time>2026-09-01T01:13:06Z</time>
  <course>272.26</course>
  <speed>0.1</speed>
  <fix>3d</fix>
</trkpt>
<trkpt lat="33.8104052" lon="-118.3945949">
  <ele>-0.174</ele>
  <time>2026-09-01T01:13:06Z</time>
  <course>13.77</course>
  <speed>0.10770329614269007</speed>
  <fix>3d</fix>
</trkpt>
<trkpt lat="33.8104056" lon="-118.3945947">
  <ele>-0.17</ele>
  <time>2026-09-01T01:13:06Z</time>
  <course>272.26</course>
  <speed>0.1</speed>
  <fix>3d</fix>
</trkpt>
<trkpt lat="33.8104053" lon="-118.394595">
  <ele>-0.171</ele>
  <time>2026-09-01T01:13:06Z</time>
  <course>13.77</course>
  <speed>0.09848857801796104</speed>
  <fix>3d</fix>
</trkpt>
<trkpt lat="33.8104056" lon="-118.3945948">
  <ele>-0.17</ele>
  <time>2026-09-01T01:13:06Z</time>
  <course>271.2</course>
  <speed>0.09</speed>
  <fix>3d</fix>
</trkpt>
<trkpt lat="33.8104053" lon="-118.3945951">
  <ele>-0.167</ele>
  <time>2026-09-01T01:13:06Z</time>
  <course>13.77</course>
  <speed>0.09486832980505139</speed>
  <fix>3d</fix>
</trkpt>
<trkpt lat="33.8104056" lon="-118.3945948">
  <ele>-0.17</ele>
  <time>2026-09-01T01:13:06Z</time>
  <course>271.2</course>
  <speed>0.09</speed>
  <fix>3d</fix>
</trkpt>
<trkpt lat="33.8104053" lon="-118.3945952">
  <ele>-0.162</ele>
  <time>2026-09-01T01:13:06Z</time>
  <course>13.77</course>
  <speed>0.0854400374531753</speed>
  <fix>3d</fix>
</trkpt>
<trkpt lat="33.8104056" lon="-118.3945951">
  <ele>-0.16</ele>
  <time>2026-09-01T01:13:06Z</time>
  <course>270.18</course>
  <speed>0.08</speed>
  <fix>3d</fix>
</trkpt>
<trkpt lat="33.8104053" lon="-118.3945953">
  <ele>-0.158</ele>
  <time>2026-09-01T01:13:06Z</time>
  <course>13.77</course>
  <speed>0.0854400374531753</speed>
  <fix>3d</fix>
</trkpt>
<trkpt lat="33.8104056" lon="-118.3945951">
  <ele>-0.16</ele>
  <time>2026-09-01T01:13:06Z</time>
  <course>270.18</course>
  <speed>0.08</speed>
  <fix>3d</fix>
</trkpt>
<trkpt lat="33.8104053" lon="-118.3945954">
  <ele>-0.153</ele>
  <time>2026-09-01T01:13:06Z</time>
  <course>13.77</course>
  <speed>0.07615773105863909</speed>
  <fix>3d</fix>
</trkpt>
<trkpt lat="33.8104056" lon="-118.3945953">
  <ele>-0.15</ele>
  <time>2026-09-01T01:13:06Z</time>
  <course>269.21</course>
  <speed>0.07</speed>
  <fix>3d</fix>
</trkpt>
<trkpt lat="33.8104053" lon="-118.3945954">
  <ele>-0.148</ele>
  <time>2026-09-01T01:13:06Z</time>
  <course>13.77</course>
  <speed>0.07615773105863909</speed>
  <fix>3d</fix>
</trkpt>
<trkpt lat="33.8104056" lon="-118.3945953">
  <ele>-0.15</ele>
  <time>2026-09-01T01:13:06Z</time>
  <course>269.21</course>
  <speed>0.07</speed>
  <fix>3d</fix>
</trkpt>
<trkpt lat="33.8104053" lon="-118.3945955">
  <ele>-0.144</ele>
  <time>2026-09-01T01:13:06Z</time>
  <course>13.78</course>
  <speed>0.07615773105863909</speed>
  <fix>3d</fix>
</trkpt>
<trkpt lat="33.8104056" lon="-118.3945955">
  <ele>-0.14</ele>
  <time>2026-09-01T01:13:06Z</time>
  <course>268.27</course>
  <speed>0.07</speed>
  <fix>3d</fix>
</trkpt>
<trkpt lat="33.8104053" lon="-118.3945956">
  <ele>-0.139</ele>
  <time>2026-09-01T01:13:06Z</time>
  <course>13.78</course>
  <speed>0.0670820393249937</speed>
  <fix>3d</fix>
</trkpt>
<trkpt lat="33.8104056" lon="-118.3945955">
  <ele>-0.14</ele>
  <time>2026-09-01T01:13:06Z</time>
  <course>268.27</course>
  <speed>0.07</speed>
  <fix>3d</fix>
</trkpt>
<trkpt lat="33.8104053" lon="-118.3945957">
  <ele>-0.133</ele>
  <time>2026-09-01T01:13:06Z</time>
  <course>13.78</course>
  <speed>0.0670820393249937</speed>
  <fix>3d</fix>
</trkpt>
<trkpt lat="33.8104056" lon="-118.3945956">
  <ele>-0.13</ele>
  <time>2026-09-01T01:13:06Z</time>
  <course>267.38</course>
  <speed>0.06</speed>
  <fix>3d</fix>
</trkpt>
<trkpt lat="33.8104053" lon="-118.3945957">
  <ele>-0.126</ele>
  <time>2026-09-01T01:13:06Z</time>
  <course>13.78</course>
  <speed>0.0670820393249937</speed>
  <fix>3d</fix>
</trkpt>
<trkpt lat="33.8104056" lon="-118.3945956">
  <ele>-0.13</ele>
  <time>2026-09-01T01:13:06Z</time>
  <course>267.38</course>
  <speed>0.06</speed>
  <fix>3d</fix>
</trkpt>
<trkpt lat="33.8104053" lon="-118.3945958">
  <ele>-0.119</ele>
  <time>2026-09-01T01:13:06Z</time>
  <course>13.79</course>
  <speed>0.05830951894845301</speed>
  <fix>3d</fix>
</trkpt>
<trkpt lat="33.8104056" lon="-118.3945957">
  <ele>-0.12</ele>
  <time>2026-09-01T01:13:06Z</time>
  <course>266.52</course>
  <speed>0.06</speed>
  <fix>3d</fix>
</trkpt>
<trkpt lat="33.8104053" lon="-118.3945959">
  <ele>-0.112</ele>
  <time>2026-09-01T01:13:06Z</time>
  <course>13.79</course>
  <speed>0.05830951894845301</speed>
  <fix>3d</fix>
</trkpt>
<trkpt lat="33.8104056" lon="-118.3945957">
  <ele>-0.12</ele>
  <time>2026-09-01T01:13:06Z</time>
  <course>266.52</course>
  <speed>0.06</speed>
  <fix>3d</fix>
</trkpt>
<trkpt lat="33.8104053" lon="-118.3945959">
  <ele>-0.109</ele>
  <time>2026-09-01T01:13:06Z</time>
  <course>13.79</course>
  <speed>0.05830951894845301</speed>
  <fix>3d</fix>
</trkpt>
<trkpt lat="33.8104056" lon="-118.3945958">
  <ele>-0.11</ele>
  <time>2026-09-01T01:13:06Z</time>
  <course>265.69</course>
  <speed>0.05</speed>
  <fix>3d</fix>
</trkpt>
<trkpt lat="33.8104053" lon="-118.394596">
  <ele>-0.111</ele>
  <time>2026-09-01T01:13:06Z</time>
  <course>13.8</course>
  <speed>0.053851648071345036</speed>
  <fix>3d</fix>
</trkpt>
<trkpt lat="33.8104056" lon="-118.3945958">
  <ele>-0.11</ele>
  <time>2026-09-01T01:13:06Z</time>
  <course>265.69</course>
  <speed>0.05</speed>
  <fix>3d</fix>
</trkpt>
<trkpt lat="33.8104053" lon="-118.3945962">
  <ele>-0.133</ele>
  <time>2026-09-01T01:13:06Z</time>
  <course>13.81</course>
  <speed>0.044721359549995794</speed>
  <fix>3d</fix>
</trkpt>
<trkpt lat="33.8104056" lon="-118.3945961">
  <ele>-0.12</ele>
  <time>2026-09-01T01:13:06Z</time>
  <course>264.13</course>
  <speed>0.05</speed>
  <fix>3d</fix>
</trkpt>
<trkpt lat="33.8104053" lon="-118.3945963">
  <ele>-0.146</ele>
  <time>2026-09-01T01:13:06Z</time>
  <course>13.83</course>
  <speed>0.03605551275463989</speed>
  <fix>3d</fix>
</trkpt>
<trkpt lat="33.8104056" lon="-118.3945963">
  <ele>-0.13</ele>
  <time>2026-09-01T01:13:06Z</time>
  <course>262.69</course>
  <speed>0.04</speed>
  <fix>3d</fix>
</trkpt>
<trkpt lat="33.8104053" lon="-118.3945963">
  <ele>-0.147</ele>
  <time>2026-09-01T01:13:06Z</time>
  <course>13.84</course>
  <speed>0.03605551275463989</speed>
  <fix>3d</fix>
</trkpt>
<trkpt lat="33.8104056" lon="-118.3945963">
  <ele>-0.13</ele>
  <time>2026-09-01T01:13:06Z</time>
  <course>262.69</course>
  <speed>0.04</speed>
  <fix>3d</fix>
</trkpt>
<trkpt lat="33.8104053" lon="-118.3945964">
  <ele>-0.148</ele>
  <time>2026-09-01T01:13:06Z</time>
  <course>13.84</course>
  <speed>0.03605551275463989</speed>
  <fix>3d</fix>
</trkpt>
<trkpt lat="33.8104056" lon="-118.3945964">
  <ele>-0.14</ele>
  <time>2026-09-01T01:13:06Z</time>
  <course>262.01</course>
  <speed>0.04</speed>
  <fix>3d</fix>
</trkpt>
<trkpt lat="33.8104053" lon="-118.3945964">
  <ele>-0.148</ele>
  <time>2026-09-01T01:13:06Z</time>
  <course>13.85</course>
  <speed>0.03605551275463989</speed>
  <fix>3d</fix>
</trkpt>
<trkpt lat="33.8104056" lon="-118.3945964">
  <ele>-0.14</ele>
  <time>2026-09-01T01:13:06Z</time>
  <course>262.01</course>
  <speed>0.04</speed>
  <fix>3d</fix>
</trkpt>
<trkpt lat="33.8104053" lon="-118.3945965">
  <ele>-0.149</ele>
  <time>2026-09-01T01:13:06Z</time>
  <course>13.85</course>
  <speed>0.0282842712474619</speed>
  <fix>3d</fix>
</trkpt>
<trkpt lat="33.8104056" lon="-118.3945965">
  <ele>-0.14</ele>
  <time>2026-09-01T01:13:06Z</time>
  <course>261.35</course>
  <speed>0.04</speed>
  <fix>3d</fix>
</trkpt>
<trkpt lat="33.8104053" lon="-118.3945965">
  <ele>-0.15</ele>
  <time>2026-09-01T01:13:06Z</time>
  <course>13.86</course>
  <speed>0.0282842712474619</speed>
  <fix>3d</fix>
</trkpt>
<trkpt lat="33.8104056" lon="-118.3945965">
  <ele>-0.14</ele>
  <time>2026-09-01T01:13:06Z</time>
  <course>261.35</course>
  <speed>0.04</speed>
  <fix>3d</fix>
</trkpt>
<trkpt lat="33.8104053" lon="-118.3945965">
  <ele>-0.152</ele>
  <time>2026-09-01T01:13:06Z</time>
  <course>13.86</course>
  <speed>0.0282842712474619</speed>
  <fix>3d</fix>
</trkpt>
<trkpt lat="33.8104056" lon="-118.3945966">
  <ele>-0.15</ele>
  <time>2026-09-01T01:13:06Z</time>
  <course>260.72</course>
  <speed>0.04</speed>
  <fix>3d</fix>
</trkpt>
<trkpt lat="33.8104053" lon="-118.3945966">
  <ele>-0.151</ele>
  <time>2026-09-01T01:13:06Z</time>
  <course>13.87</course>
  <speed>0.022360679774997897</speed>
  <fix>3d</fix>
</trkpt>
<trkpt lat="33.8104056" lon="-118.3945966">
  <ele>-0.15</ele>
  <time>2026-09-01T01:13:06Z</time>
  <course>260.72</course>
  <speed>0.04</speed>
  <fix>3d</fix>
</trkpt>
<trkpt lat="33.8104053" lon="-118.3945966">
  <ele>-0.148</ele>
  <time>2026-09-01T01:13:06Z</time>
  <course>13.88</course>
  <speed>0.022360679774997897</speed>
  <fix>3d</fix>
</trkpt>
<trkpt lat="33.8104056" lon="-118.3945967">
  <ele>-0.14</ele>
  <time>2026-09-01T01:13:06Z</time>
  <course>260.11</course>
  <speed>0.03</speed>
  <fix>3d</fix>
</trkpt>
<trkpt lat="33.8104053" lon="-118.3945966">
  <ele>-0.145</ele>
  <time>2026-09-01T01:13:06Z</time>
  <course>13.88</course>
  <speed>0.022360679774997897</speed>
  <fix>3d</fix>
</trkpt>
<trkpt lat="33.8104056" lon="-118.3945967">
  <ele>-0.14</ele>
  <time>2026-09-01T01:13:06Z</time>
  <course>260.11</course>
  <speed>0.03</speed>
  <fix>3d</fix>
</trkpt>
<trkpt lat="33.8104053" lon="-118.3945967">
  <ele>-0.143</ele>
  <time>2026-09-01T01:13:06Z</time>
  <course>13.89</course>
  <speed>0.022360679774997897</speed>
  <fix>3d</fix>
</trkpt>
<trkpt lat="33.8104056" lon="-118.3945968">
  <ele>-0.14</ele>
  <time>2026-09-01T01:13:06Z</time>
  <course>259.53</course>
  <speed>0.03</speed>
  <fix>3d</fix>
</trkpt>
<trkpt lat="33.8104053" lon="-118.3945967">
  <ele>-0.14</ele>
  <time>2026-09-01T01:13:06Z</time>
  <course>13.89</course>
  <speed>0.022360679774997897</speed>
  <fix>3d</fix>
</trkpt>
<trkpt lat="33.8104056" lon="-118.3945968">
  <ele>-0.14</ele>
  <time>2026-09-01T01:13:06Z</time>
  <course>259.53</course>
  <speed>0.03</speed>
  <fix>3d</fix>
</trkpt>
<trkpt lat="33.8104053" lon="-118.3945967">
  <ele>-0.136</ele>
  <time>2026-09-01T01:13:06Z</time>
  <course>13.9</course>
  <speed>0.01414213562373095</speed>
  <fix>3d</fix>
</trkpt>
<trkpt lat="33.8104056" lon="-118.3945969">
  <ele>-0.13</ele>
  <time>2026-09-01T01:13:06Z</time>
  <course>258.96</course>
  <speed>0.03</speed>
  <fix>3d</fix>
</trkpt>
<trkpt lat="33.8104053" lon="-118.3945968">
  <ele>-0.132</ele>
  <time>2026-09-01T01:13:06Z</time>
  <course>13.91</course>
  <speed>0.01414213562373095</speed>
  <fix>3d</fix>
</trkpt>
<trkpt lat="33.8104056" lon="-118.3945969">
  <ele>-0.13</ele>
  <time>2026-09-01T01:13:06Z</time>
  <course>258.96</course>
  <speed>0.03</speed>
  <fix>3d</fix>
</trkpt>
<trkpt lat="33.8104054" lon="-118.3945968">
  <ele>-0.128</ele>
  <time>2026-09-01T01:13:06Z</time>
  <course>13.91</course>
  <speed>0.01414213562373095</speed>
  <fix>3d</fix>
</trkpt>
<trkpt lat="33.8104056" lon="-118.3945969">
  <ele>-0.12</ele>
  <time>2026-09-01T01:13:06Z</time>
  <course>258.42</course>
  <speed>0.03</speed>
  <fix>3d</fix>
</trkpt>
<trkpt lat="33.8104054" lon="-118.3945968">
  <ele>-0.124</ele>
  <time>2026-09-01T01:13:06Z</time>
  <course>13.92</course>
  <speed>0.01414213562373095</speed>
  <fix>3d</fix>
</trkpt>
<trkpt lat="33.8104056" lon="-118.3945969">
  <ele>-0.12</ele>
  <time>2026-09-01T01:13:06Z</time>
  <course>258.42</course>
  <speed>0.03</speed>
  <fix>3d</fix>
</trkpt>
<trkpt lat="33.8104054" lon="-118.3945969">
  <ele>-0.123</ele>
  <time>2026-09-01T01:13:06Z</time>
  <course>13.92</course>
  <speed>0.01414213562373095</speed>
  <fix>3d</fix>
</trkpt>
<trkpt lat="33.8104056" lon="-118.394597">
  <ele>-0.11</ele>
  <time>2026-09-01T01:13:06Z</time>
  <course>257.89</course>
  <speed>0.03</speed>
  <fix>3d</fix>
</trkpt>
<trkpt lat="33.8104054" lon="-118.3945969">
  <ele>-0.125</ele>
  <time>2026-09-01T01:13:06Z</time>
  <course>13.93</course>
  <speed>0.01414213562373095</speed>
  <fix>3d</fix>
</trkpt>
<trkpt lat="33.8104056" lon="-118.394597">
  <ele>-0.11</ele>
  <time>2026-09-01T01:13:06Z</time>
  <course>257.89</course>
  <speed>0.03</speed>
  <fix>3d</fix>
</trkpt>
<trkpt lat="33.8104054" lon="-118.3945969">
  <ele>-0.13</ele>
  <time>2026-09-01T01:13:06Z</time>
  <course>13.94</course>
  <speed>0.01414213562373095</speed>
  <fix>3d</fix>
</trkpt>
<trkpt lat="33.8104056" lon="-118.3945971">
  <ele>-0.11</ele>
  <time>2026-09-01T01:13:06Z</time>
  <course>257.38</course>
  <speed>0.03</speed>
  <fix>3d</fix>
</trkpt>
<trkpt lat="33.8104054" lon="-118.394597">
  <ele>-0.136</ele>
  <time>2026-09-01T01:13:06Z</time>
  <course>13.94</course>
  <speed>0.01414213562373095</speed>
  <fix>3d</fix>
</trkpt>
<trkpt lat="33.8104056" lon="-118.3945971">
  <ele>-0.11</ele>
  <time>2026-09-01T01:13:06Z</time>
  <course>257.38</course>
  <speed>0.03</speed>
  <fix>3d</fix>
</trkpt>
<trkpt lat="33.8104054" lon="-118.394597">
  <ele>-0.141</ele>
  <time>2026-09-01T01:13:06Z</time>
  <course>13.95</course>
  <speed>0.01414213562373095</speed>
  <fix>3d</fix>
</trkpt>
<trkpt lat="33.8104055" lon="-118.3945971">
  <ele>-0.12</ele>
  <time>2026-09-01T01:13:06Z</time>
  <course>256.89</course>
  <speed>0.03</speed>
  <fix>3d</fix>
</trkpt>
<trkpt lat="33.8104054" lon="-118.394597">
  <ele>-0.146</ele>
  <time>2026-09-01T01:13:06Z</time>
  <course>13.96</course>
  <speed>0.01414213562373095</speed>
  <fix>3d</fix>
</trkpt>
<trkpt lat="33.8104055" lon="-118.3945971">
  <ele>-0.12</ele>
  <time>2026-09-01T01:13:06Z</time>
  <course>256.89</course>
  <speed>0.03</speed>
  <fix>3d</fix>
</trkpt>
<trkpt lat="33.8104054" lon="-118.3945971">
  <ele>-0.15</ele>
  <time>2026-09-01T01:13:06Z</time>
  <course>13.96</course>
  <speed>0.01414213562373095</speed>
  <fix>3d</fix>
</trkpt>
<trkpt lat="33.8104055" lon="-118.3945972">
  <ele>-0.13</ele>
  <time>2026-09-01T01:13:06Z</time>
  <course>256.42</course>
  <speed>0.03</speed>
  <fix>3d</fix>
</trkpt>
<trkpt lat="33.8104054" lon="-118.3945971">
  <ele>-0.152</ele>
  <time>2026-09-01T01:13:06Z</time>
  <course>13.97</course>
  <speed>0.01</speed>
  <fix>3d</fix>
</trkpt>
<trkpt lat="33.8104055" lon="-118.3945972">
  <ele>-0.13</ele>
  <time>2026-09-01T01:13:06Z</time>
  <course>256.42</course>
  <speed>0.03</speed>
  <fix>3d</fix>
</trkpt>
<trkpt lat="33.8104054" lon="-118.3945971">
  <ele>-0.153</ele>
  <time>2026-09-01T01:13:06Z</time>
  <course>13.97</course>
  <speed>0.01</speed>
  <fix>3d</fix>
</trkpt>
<trkpt lat="33.8104055" lon="-118.3945973">
  <ele>-0.13</ele>
  <time>2026-09-01T01:13:06Z</time>
  <course>255.96</course>
  <speed>0.03</speed>
  <fix>3d</fix>
</trkpt>
<trkpt lat="33.8104054" lon="-118.3945971">
  <ele>-0.152</ele>
  <time>2026-09-01T01:13:06Z</time>
  <course>13.98</course>
  <speed>0.01</speed>
  <fix>3d</fix>
</trkpt>
<trkpt lat="33.8104055" lon="-118.3945973">
  <ele>-0.13</ele>
  <time>2026-09-01T01:13:06Z</time>
  <course>255.96</course>
  <speed>0.03</speed>
  <fix>3d</fix>
</trkpt>
<trkpt lat="33.8104054" lon="-118.3945972">
  <ele>-0.152</ele>
  <time>2026-09-01T01:13:06Z</time>
  <course>13.99</course>
  <speed>0.01</speed>
  <fix>3d</fix>
</trkpt>
<trkpt lat="33.8104055" lon="-118.3945973">
  <ele>-0.14</ele>
  <time>2026-09-01T01:13:06Z</time>
  <course>255.51</course>
  <speed>0.02</speed>
  <fix>3d</fix>
</trkpt>
<trkpt lat="33.4368002" lon="-117.0859339">
  <ele>-0.11</ele>
  <time>2026-09-01T01:13:07Z</time>
  <course>0.0</course>
  <speed>0.0</speed>
  <fix>3d</fix>
</trkpt>
<trkpt lat="33.4368002" lon="-117.0859339">
  <ele>-0.11</ele>
  <time>2026-09-01T01:13:07Z</time>
  <course>0.0</course>
  <speed>0.0</speed>
  <fix>3d</fix>
</trkpt>
<trkpt lat="33.810313" lon="-118.393867">
  <ele>0.0</ele>
  <time>2026-09-01T01:13:07Z</time>
  <course>173.5</course>
  <speed>0.0</speed>
  <fix>3d</fix>
</trkpt>
<trkpt lat="33.810313" lon="-118.393867">
  <ele>-0.11</ele>
  <time>2026-09-01T01:13:07Z</time>
  <course>0.0</course>
  <speed>0.0</speed>
  <fix>3d</fix>
</trkpt>
<trkpt lat="33.810313" lon="-118.393867">
  <ele>0.0</ele>
  <time>2026-09-01T01:13:07Z</time>
  <course>173.61</course>
  <speed>0.0</speed>
  <fix>3d</fix>
</trkpt>
<trkpt lat="33.810313" lon="-118.393867">
  <ele>-0.11</ele>
  <time>2026-09-01T01:13:07Z</time>
  <course>0.0</course>
  <speed>0.0</speed>
  <fix>3d</fix>
</trkpt>
<trkpt lat="33.810313" lon="-118.393867">
  <ele>0.0</ele>
  <time>2026-09-01T01:13:07Z</time>
  <course>173.98</course>
  <speed>0.0</speed>
  <fix>3d</fix>
</trkpt>
<trkpt lat="33.810313" lon="-118.393867">
  <ele>-0.11</ele>
  <time>2026-09-01T01:13:07Z</time>
  <course>0.0</course>
  <speed>0.0</speed>
  <fix>3d</fix>
</trkpt>
<trkpt lat="33.810313" lon="-118.393867">
  <ele>0.0</ele>
  <time>2026-09-01T01:13:07Z</time>
  <course>174.51</course>
  <speed>0.0</speed>
  <fix>3d</fix>
</trkpt>
<trkpt lat="33.810313" lon="-118.393867">
  <ele>-0.11</ele>
  <time>2026-09-01T01:13:07Z</time>
  <course>0.0</course>
  <speed>0.0</speed>
  <fix>3d</fix>
</trkpt>
<trkpt lat="33.810313" lon="-118.393867">
  <ele>0.0</ele>
  <time>2026-09-01T01:13:07Z</time>
  <course>175.07</course>
  <speed>0.0</speed>
  <fix>3d</fix>
</trkpt>
<trkpt lat="33.810313" lon="-118.393867">
  <ele>-0.12</ele>
  <time>2026-09-01T01:13:07Z</time>
  <course>0.0</course>
  <speed>0.0</speed>
  <fix>3d</fix>
</trkpt>
<trkpt lat="33.810313" lon="-118.393867">
  <ele>0.0</ele>
  <time>2026-09-01T01:13:07Z</time>
  <course>175.61</course>
  <speed>0.0</speed>
  <fix>3d</fix>
</trkpt>
<trkpt lat="33.810313" lon="-118.393867">
  <ele>-0.12</ele>
  <time>2026-09-01T01:13:07Z</time>
  <course>0.0</course>
  <speed>0.0</speed>
  <fix>3d</fix>
</trkpt>
<trkpt lat="33.810313" lon="-118.393867">
  <ele>0.0</ele>
  <time>2026-09-01T01:13:07Z</time>
  <course>176.12</course>
  <speed>0.0</speed>
  <fix>3d</fix>
</trkpt>
<trkpt lat="33.810313" lon="-118.393867">
  <ele>-0.13</ele>
  <time>2026-09-01T01:13:07Z</time>
  <course>0.0</course>
  <speed>0.0</speed>
  <fix>3d</fix>
</trkpt>
<trkpt lat="33.810313" lon="-118.393867">
  <ele>0.0</ele>
  <time>2026-09-01T01:13:07Z</time>
  <course>176.6</course>
  <speed>0.0</speed>
  <fix>3d</fix>
</trkpt>
<trkpt lat="33.810313" lon="-118.393867">
  <ele>-0.13</ele>
  <time>2026-09-01T01:13:07Z</time>
  <course>0.0</course>
  <speed>0.0</speed>
  <fix>3d</fix>
</trkpt>
<trkpt lat="33.810313" lon="-118.393867">
  <ele>0.0</ele>
  <time>2026-09-01T01:13:07Z</time>
  <course>177.07</course>
  <speed>0.0</speed>
  <fix>3d</fix>
</trkpt>
<trkpt lat="33.810313" lon="-118.393867">
  <ele>-0.13</ele>
  <time>2026-09-01T01:13:07Z</time>
  <course>0.0</course>
  <speed>0.0</speed>
  <fix>3d</fix>
</trkpt>
<trkpt lat="33.810313" lon="-118.393867">
  <ele>0.0</ele>
  <time>2026-09-01T01:13:07Z</time>
  <course>177.53</course>
  <speed>0.0</speed>
  <fix>3d</fix>
</trkpt>
<trkpt lat="33.810313" lon="-118.393867">
  <ele>-0.13</ele>
  <time>2026-09-01T01:13:07Z</time>
  <course>0.0</course>
  <speed>0.0</speed>
  <fix>3d</fix>
</trkpt>
<trkpt lat="33.810313" lon="-118.393867">
  <ele>0.0</ele>
  <time>2026-09-01T01:13:07Z</time>
  <course>177.97</course>
  <speed>0.0</speed>
  <fix>3d</fix>
</trkpt>
<trkpt lat="33.810313" lon="-118.393867">
  <ele>-0.14</ele>
  <time>2026-09-01T01:13:07Z</time>
  <course>0.0</course>
  <speed>0.0</speed>
  <fix>3d</fix>
</trkpt>
<trkpt lat="33.810313" lon="-118.393867">
  <ele>0.0</ele>
  <time>2026-09-01T01:13:07Z</time>
  <course>178.4</course>
  <speed>0.0</speed>
  <fix>3d</fix>
</trkpt>
<trkpt lat="33.810313" lon="-118.393867">
  <ele>-0.14</ele>
  <time>2026-09-01T01:13:07Z</time>
  <course>0.0</course>
  <speed>0.0</speed>
  <fix>3d</fix>
</trkpt>
<trkpt lat="33.810313" lon="-118.393867">
  <ele>0.0</ele>
  <time>2026-09-01T01:13:07Z</time>
  <course>178.83</course>
  <speed>0.0</speed>
  <fix>3d</fix>
</trkpt>
<trkpt lat="33.810313" lon="-118.393867">
  <ele>-0.14</ele>
  <time>2026-09-01T01:13:07Z</time>
  <course>0.0</course>
  <speed>0.0</speed>
  <fix>3d</fix>
</trkpt>
<trkpt lat="33.810313" lon="-118.393867">
  <ele>0.0</ele>
  <time>2026-09-01T01:13:07Z</time>
  <course>179.23</course>
  <speed>0.0</speed>
  <fix>3d</fix>
</trkpt>
<trkpt lat="33.810313" lon="-118.393867">
  <ele>-0.14</ele>
  <time>2026-09-01T01:13:07Z</time>
  <course>0.0</course>
  <speed>0.0</speed>
  <fix>3d</fix>
</trkpt>
<trkpt lat="33.810313" lon="-118.393867">
  <ele>0.0</ele>
  <time>2026-09-01T01:13:07Z</time>
  <course>179.62</course>
  <speed>0.0</speed>
  <fix>3d</fix>
</trkpt>
<trkpt lat="33.810313" lon="-118.393867">
  <ele>-0.14</ele>
  <time>2026-09-01T01:13:07Z</time>
  <course>0.0</course>
  <speed>0.0</speed>
  <fix>3d</fix>
</trkpt>
<trkpt lat="33.810313" lon="-118.393867">
  <ele>0.0</ele>
  <time>2026-09-01T01:13:07Z</time>
  <course>180.01</course>
  <speed>0.0</speed>
  <fix>3d</fix>
</trkpt>
<trkpt lat="33.810313" lon="-118.393867">
  <ele>-0.14</ele>
  <time>2026-09-01T01:13:07Z</time>
  <course>0.0</course>
  <speed>0.0</speed>
  <fix>3d</fix>
</trkpt>
<trkpt lat="33.810313" lon="-118.393867">
  <ele>0.0</ele>
  <time>2026-09-01T01:13:07Z</time>
  <course>180.37</course>
  <speed>0.0</speed>
  <fix>3d</fix>
</trkpt>
<trkpt lat="33.810313" lon="-118.393867">
  <ele>-0.14</ele>
  <time>2026-09-01T01:13:07Z</time>
  <course>0.0</course>
  <speed>0.0</speed>
  <fix>3d</fix>
</trkpt>
<trkpt lat="33.810313" lon="-118.393867">
  <ele>0.0</ele>
  <time>2026-09-01T01:13:07Z</time>
  <course>180.73</course>
  <speed>0.0</speed>
  <fix>3d</fix>
</trkpt>
<trkpt lat="33.810313" lon="-118.393867">
  <ele>-0.14</ele>
  <time>2026-09-01T01:13:07Z</time>
  <course>0.0</course>
  <speed>0.0</speed>
  <fix>3d</fix>
</trkpt>
<trkpt lat="33.810313" lon="-118.393867">
  <ele>0.0</ele>
  <time>2026-09-01T01:13:07Z</time>
  <course>181.07</course>
  <speed>0.0</speed>
  <fix>3d</fix>
</trkpt>
<trkpt lat="33.810313" lon="-118.393867">
  <ele>-0.13</ele>
  <time>2026-09-01T01:13:07Z</time>
  <course>0.0</course>
  <speed>0.0</speed>
  <fix>3d</fix>
</trkpt>
<trkpt lat="33.810313" lon="-118.393867">
  <ele>0.0</ele>
  <time>2026-09-01T01:13:07Z</time>
  <course>181.4</course>
  <speed>0.0</speed>
  <fix>3d</fix>
</trkpt>
<trkpt lat="33.810313" lon="-118.393867">
  <ele>-0.13</ele>
  <time>2026-09-01T01:13:07Z</time>
  <course>0.0</course>
  <speed>0.0</speed>
  <fix>3d</fix>
</trkpt>
<trkpt lat="33.810313" lon="-118.393867">
  <ele>0.0</ele>
  <time>2026-09-01T01:13:07Z</time>
  <course>181.72</course>
  <speed>0.0</speed>
  <fix>3d</fix>
</trkpt>
<trkpt lat="33.810313" lon="-118.393867">
  <ele>-0.12</ele>
  <time>2026-09-01T01:13:07Z</time>
  <course>0.0</course>
  <speed>0.0</speed>
  <fix>3d</fix>
</trkpt>
<trkpt lat="33.810313" lon="-118.393867">
  <ele>0.0</ele>
  <time>2026-09-01T01:13:07Z</time>
  <course>182.02</course>
  <speed>0.0</speed>
  <fix>3d</fix>
</trkpt>
<trkpt lat="33.810313" lon="-118.393867">
  <ele>-0.12</ele>
  <time>2026-09-01T01:13:07Z</time>
  <course>0.0</course>
  <speed>0.0</speed>
  <fix>3d</fix>
</trkpt>
<trkpt lat="33.810313" lon="-118.393867">
  <ele>0.0</ele>
  <time>2026-09-01T01:13:07Z</time>
  <course>182.32</course>
  <speed>0.0</speed>
  <fix>3d</fix>
</trkpt>
<trkpt lat="33.810313" lon="-118.393867">
  <ele>-0.12</ele>
  <time>2026-09-01T01:13:07Z</time>
  <course>0.0</course>
  <speed>0.0</speed>
  <fix>3d</fix>
</trkpt>
<trkpt lat="33.810313" lon="-118.393867">
  <ele>0.0</ele>
  <time>2026-09-01T01:13:07Z</time>
  <course>182.6</course>
  <speed>0.0</speed>
  <fix>3d</fix>
</trkpt>
<trkpt lat="33.810313" lon="-118.393867">
  <ele>-0.12</ele>
  <time>2026-09-01T01:13:07Z</time>
  <course>0.0</course>
  <speed>0.0</speed>
  <fix>3d</fix>
</trkpt>
<trkpt lat="33.810313" lon="-118.393867">
  <ele>0.0</ele>
  <time>2026-09-01T01:13:07Z</time>
  <course>182.87</course>
  <speed>0.0</speed>
  <fix>3d</fix>
</trkpt>
<trkpt lat="33.810313" lon="-118.393867">
  <ele>-0.11</ele>
  <time>2026-09-01T01:13:07Z</time>
  <course>0.0</course>
  <speed>0.0</speed>
  <fix>3d</fix>
</trkpt>
<trkpt lat="33.810313" lon="-118.393867">
  <ele>0.0</ele>
  <time>2026-09-01T01:13:07Z</time>
  <course>183.14</course>
  <speed>0.0</speed>
  <fix>3d</fix>
</trkpt>
<trkpt lat="33.810313" lon="-118.393867">
  <ele>-0.11</ele>
  <time>2026-09-01T01:13:07Z</time>
  <course>0.0</course>
  <speed>0.0</speed>
  <fix>3d</fix>
</trkpt>
<trkpt lat="33.810313" lon="-118.393867">
  <ele>0.0</ele>
  <time>2026-09-01T01:13:07Z</time>
  <course>183.39</course>
  <speed>0.0</speed>
  <fix>3d</fix>
</trkpt>
<trkpt lat="33.810313" lon="-118.393867">
  <ele>-0.11</ele>
  <time>2026-09-01T01:13:07Z</time>
  <course>0.0</course>
  <speed>0.0</speed>
  <fix>3d</fix>
</trkpt>
<trkpt lat="33.810313" lon="-118.393867">
  <ele>0.0</ele>
  <time>2026-09-01T01:13:07Z</time>
  <course>183.63</course>
  <speed>0.0</speed>
  <fix>3d</fix>
</trkpt>
<trkpt lat="33.810313" lon="-118.393867">
  <ele>-0.11</ele>
  <time>2026-09-01T01:13:07Z</time>
  <course>0.0</course>
  <speed>0.0</speed>
  <fix>3d</fix>
</trkpt>
<trkpt lat="33.810313" lon="-118.393867">
  <ele>0.0</ele>
  <time>2026-09-01T01:13:07Z</time>
  <course>183.86</course>
  <speed>0.0</speed>
  <fix>3d</fix>
</trkpt>
<trkpt lat="33.810313" lon="-118.393867">
  <ele>-0.12</ele>
  <time>2026-09-01T01:13:07Z</time>
  <course>0.0</course>
  <speed>0.0</speed>
  <fix>3d</fix>
</trkpt>
<trkpt lat="33.810313" lon="-118.393867">
  <ele>0.0</ele>
  <time>2026-09-01T01:13:07Z</time>
  <course>184.08</course>
  <speed>0.0</speed>
  <fix>3d</fix>
</trkpt>
<trkpt lat="33.810313" lon="-118.393867">
  <ele>-0.12</ele>
  <time>2026-09-01T01:13:07Z</time>
  <course>0.0</course>
  <speed>0.0</speed>
  <fix>3d</fix>
</trkpt>
<trkpt lat="33.810313" lon="-118.393867">
  <ele>0.0</ele>
  <time>2026-09-01T01:13:07Z</time>
  <course>184.3</course>
  <speed>0.0</speed>
  <fix>3d</fix>
</trkpt>
<trkpt lat="33.810313" lon="-118.393867">
  <ele>-0.13</ele>
  <time>2026-09-01T01:13:07Z</time>
  <course>0.0</course>
  <speed>0.0</speed>
  <fix>3d</fix>
</trkpt>
<trkpt lat="33.810313" lon="-118.393867">
  <ele>0.0</ele>
  <time>2026-09-01T01:13:07Z</time>
  <course>184.5</course>
  <speed>0.0</speed>
  <fix>3d</fix>
</trkpt>
<trkpt lat="33.810313" lon="-118.393867">
  <ele>-0.13</ele>
  <time>2026-09-01T01:13:07Z</time>
  <course>0.0</course>
  <speed>0.0</speed>
  <fix>3d</fix>
</trkpt>
<trkpt lat="33.810313" lon="-118.393867">
  <ele>0.0</ele>
  <time>2026-09-01T01:13:07Z</time>
  <course>184.7</course>
  <speed>0.0</speed>
  <fix>3d</fix>
</trkpt>
<trkpt lat="33.810313" lon="-118.393867">
  <ele>-0.13</ele>
  <time>2026-09-01T01:13:07Z</time>
  <course>0.0</course>
  <speed>0.0</speed>
  <fix>3d</fix>
</trkpt>
<trkpt lat="33.810313" lon="-118.393867">
  <ele>0.0</ele>
  <time>2026-09-01T01:13:07Z</time>
  <course>184.89</course>
  <speed>0.0</speed>
  <fix>3d</fix>
</trkpt>
<trkpt lat="33.810313" lon="-118.393867">
  <ele>-0.13</ele>
  <time>2026-09-01T01:13:07Z</time>
  <course>0.0</course>
  <speed>0.0</speed>
  <fix>3d</fix>
</trkpt>
<trkpt lat="33.810313" lon="-118.393867">
  <ele>0.0</ele>
  <time>2026-09-01T01:13:07Z</time>
  <course>185.07</course>
  <speed>0.0</speed>
  <fix>3d</fix>
</trkpt>
<trkpt lat="33.810313" lon="-118.393867">
  <ele>-0.14</ele>
  <time>2026-09-01T01:13:07Z</time>
  <course>0.0</course>
  <speed>0.0</speed>
  <fix>3d</fix>
</trkpt>
<trkpt lat="33.810313" lon="-118.393867">
  <ele>0.0</ele>
  <time>2026-09-01T01:13:07Z</time>
  <course>185.24</course>
  <speed>0.0</speed>
  <fix>3d</fix>
</trkpt>
<trkpt lat="33.810313" lon="-118.393867">
  <ele>-0.14</ele>
  <time>2026-09-01T01:13:07Z</time>
  <course>0.0</course>
  <speed>0.0</speed>
  <fix>3d</fix>
</trkpt>
<trkpt lat="33.810313" lon="-118.393867">
  <ele>0.0</ele>
  <time>2026-09-01T01:13:07Z</time>
  <course>185.41</course>
  <speed>0.0</speed>
  <fix>3d</fix>
</trkpt>
<trkpt lat="33.810313" lon="-118.393867">
  <ele>-0.13</ele>
  <time>2026-09-01T01:13:07Z</time>
  <course>0.0</course>
  <speed>0.0</speed>
  <fix>3d</fix>
</trkpt>
<trkpt lat="33.810313" lon="-118.393867">
  <ele>0.0</ele>
  <time>2026-09-01T01:13:07Z</time>
  <course>185.56</course>
  <speed>0.0</speed>
  <fix>3d</fix>
</trkpt>
<trkpt lat="33.810313" lon="-118.393867">
  <ele>-0.13</ele>
  <time>2026-09-01T01:13:07Z</time>
  <course>0.0</course>
  <speed>0.0</speed>
  <fix>3d</fix>
</trkpt>
<trkpt lat="33.810313" lon="-118.393867">
  <ele>0.0</ele>
  <time>2026-09-01T01:13:07Z</time>
  <course>185.72</course>
  <speed>0.0</speed>
  <fix>3d</fix>
</trkpt>
<trkpt lat="33.810313" lon="-118.393867">
  <ele>-0.13</ele>
  <time>2026-09-01T01:13:07Z</time>
  <course>0.0</course>
  <speed>0.0</speed>
  <fix>3d</fix>
</trkpt>
<trkpt lat="33.810313" lon="-118.393867">
  <ele>0.0</ele>
  <time>2026-09-01T01:13:07Z</time>
  <course>185.86</course>
  <speed>0.0</speed>
  <fix>3d</fix>
</trkpt>
<trkpt lat="33.810313" lon="-118.393867">
  <ele>-0.13</ele>
  <time>2026-09-01T01:13:07Z</time>
  <course>0.0</course>
  <speed>0.0</speed>
  <fix>3d</fix>
</trkpt>
<trkpt lat="33.810313" lon="-118.393867">
  <ele>0.0</ele>
  <time>2026-09-01T01:13:07Z</time>
  <course>186.0</course>
  <speed>0.0</speed>
  <fix>3d</fix>
</trkpt>
<trkpt lat="33.810313" lon="-118.393867">
  <ele>-0.12</ele>
  <time>2026-09-01T01:13:07Z</time>
  <course>0.0</course>
  <speed>0.0</speed>
  <fix>3d</fix>
</trkpt>
<trkpt lat="33.810313" lon="-118.393867">
  <ele>0.0</ele>
  <time>2026-09-01T01:13:07Z</time>
  <course>186.13</course>
  <speed>0.0</speed>
  <fix>3d</fix>
</trkpt>
<trkpt lat="33.810313" lon="-118.393867">
  <ele>-0.12</ele>
  <time>2026-09-01T01:13:07Z</time>
  <course>0.0</course>
  <speed>0.0</speed>
  <fix>3d</fix>
</trkpt>
<trkpt lat="33.810313" lon="-118.393867">
  <ele>0.0</ele>
  <time>2026-09-01T01:13:07Z</time>
  <course>186.26</course>
  <speed>0.0</speed>
  <fix>3d</fix>
</trkpt>
<trkpt lat="33.810313" lon="-118.393867">
  <ele>-0.12</ele>
  <time>2026-09-01T01:13:07Z</time>
  <course>0.0</course>
  <speed>0.0</speed>
  <fix>3d</fix>
</trkpt>
<trkpt lat="33.810313" lon="-118.393867">
  <ele>0.0</ele>
  <time>2026-09-01T01:13:07Z</time>
  <course>186.38</course>
  <speed>0.0</speed>
  <fix>3d</fix>
</trkpt>
<trkpt lat="33.810313" lon="-118.393867">
  <ele>-0.12</ele>
  <time>2026-09-01T01:13:07Z</time>
  <course>0.0</course>
  <speed>0.0</speed>
  <fix>3d</fix>
</trkpt>
<trkpt lat="33.810313" lon="-118.393867">
  <ele>0.0</ele>
  <time>2026-09-01T01:13:07Z</time>
  <course>186.49</course>
  <speed>0.0</speed>
  <fix>3d</fix>
</trkpt>
<trkpt lat="33.810313" lon="-118.393867">
  <ele>-0.12</ele>
  <time>2026-09-01T01:13:07Z</time>
  <course>0.0</course>
  <speed>0.0</speed>
  <fix>3d</fix>
</trkpt>
<trkpt lat="33.810313" lon="-118.393867">
  <ele>0.0</ele>
  <time>2026-09-01T01:13:07Z</time>
  <course>186.6</course>
  <speed>0.0</speed>
  <fix>3d</fix>
</trkpt>
<trkpt lat="33.810313" lon="-118.393867">
  <ele>-0.12</ele>
  <time>2026-09-01T01:13:07Z</time>
  <course>0.0</course>
  <speed>0.0</speed>
  <fix>3d</fix>
</trkpt>
<trkpt lat="33.810313" lon="-118.393867">
  <ele>0.0</ele>
  <time>2026-09-01T01:13:07Z</time>
  <course>186.71</course>
  <speed>0.0</speed>
  <fix>3d</fix>
</trkpt>
<trkpt lat="33.810313" lon="-118.393867">
  <ele>-0.12</ele>
  <time>2026-09-01T01:13:07Z</time>
  <course>0.0</course>
  <speed>0.0</speed>
  <fix>3d</fix>
</trkpt>
<trkpt lat="33.810313" lon="-118.393867">
  <ele>0.0</ele>
  <time>2026-09-01T01:13:07Z</time>
  <course>186.81</course>
  <speed>0.0</speed>
  <fix>3d</fix>
</trkpt>
<trkpt lat="33.810313" lon="-118.393867">
  <ele>-0.12</ele>
  <time>2026-09-01T01:13:07Z</time>
  <course>0.0</course>
  <speed>0.0</speed>
  <fix>3d</fix>
</trkpt>
<trkpt lat="33.810313" lon="-118.393867">
  <ele>0.0</ele>
  <time>2026-09-01T01:13:07Z</time>
  <course>186.9</course>
  <speed>0.0</speed>
  <fix>3d</fix>
</trkpt>
<trkpt lat="33.810313" lon="-118.393867">
  <ele>-0.12</ele>
  <time>2026-09-01T01:13:07Z</time>
  <course>0.0</course>
  <speed>0.0</speed>
  <fix>3d</fix>
</trkpt>
<trkpt lat="33.810313" lon="-118.393867">
  <ele>0.0</ele>
  <time>2026-09-01T01:13:07Z</time>
  <course>187.0</course>
  <speed>0.0</speed>
  <fix>3d</fix>
</trkpt>
<trkpt lat="33.810313" lon="-118.393867">
  <ele>-0.12</ele>
  <time>2026-09-01T01:13:07Z</time>
  <course>0.0</course>
  <speed>0.0</speed>
  <fix>3d</fix>
</trkpt>
<trkpt lat="33.810313" lon="-118.393867">
  <ele>0.0</ele>
  <time>2026-09-01T01:13:07Z</time>
  <course>187.08</course>
  <speed>0.0</speed>
  <fix>3d</fix>
</trkpt>
<trkpt lat="33.810313" lon="-118.393867">
  <ele>-0.13</ele>
  <time>2026-09-01T01:13:07Z</time>
  <course>0.0</course>
  <speed>0.0</speed>
  <fix>3d</fix>
</trkpt>
<trkpt lat="33.810313" lon="-118.393867">
  <ele>0.0</ele>
  <time>2026-09-01T01:13:07Z</time>
  <course>187.17</course>
  <speed>0.0</speed>
  <fix>3d</fix>
</trkpt>
<trkpt lat="33.810313" lon="-118.393867">
  <ele>-0.13</ele>
  <time>2026-09-01T01:13:07Z</time>
  <course>0.0</course>
  <speed>0.0</speed>
  <fix>3d</fix>
</trkpt>
<trkpt lat="33.810313" lon="-118.393867">
  <ele>0.0</ele>
  <time>2026-09-01T01:13:07Z</time>
  <course>187.24</course>
  <speed>0.0</speed>
  <fix>3d</fix>
</trkpt>
<trkpt lat="33.810313" lon="-118.393867">
  <ele>-0.13</ele>
  <time>2026-09-01T01:13:07Z</time>
  <course>0.0</course>
  <speed>0.0</speed>
  <fix>3d</fix>
</trkpt>
<trkpt lat="33.810313" lon="-118.393867">
  <ele>0.0</ele>
  <time>2026-09-01T01:13:07Z</time>
  <course>187.32</course>
  <speed>0.0</speed>
  <fix>3d</fix>
</trkpt>
<trkpt lat="33.810313" lon="-118.393867">
  <ele>-0.13</ele>
  <time>2026-09-01T01:13:07Z</time>
  <course>0.0</course>
  <speed>0.0</speed>
  <fix>3d</fix>
</trkpt>
<trkpt lat="33.810313" lon="-118.393867">
  <ele>0.0</ele>
  <time>2026-09-01T01:13:07Z</time>
  <course>187.39</course>
  <speed>0.0</speed>
  <fix>3d</fix>
</trkpt>
<trkpt lat="33.810313" lon="-118.393867">
  <ele>-0.13</ele>
  <time>2026-09-01T01:13:07Z</time>
  <course>0.0</course>
  <speed>0.0</speed>
  <fix>3d</fix>
</trkpt>
<trkpt lat="33.810313" lon="-118.393867">
  <ele>0.0</ele>
  <time>2026-09-01T01:13:07Z</time>
  <course>187.46</course>
  <speed>0.0</speed>
  <fix>3d</fix>
</trkpt>
<trkpt lat="33.810313" lon="-118.393867">
  <ele>-0.13</ele>
  <time>2026-09-01T01:13:07Z</time>
  <course>0.0</course>
  <speed>0.0</speed>
  <fix>3d</fix>
</trkpt>
<trkpt lat="33.810313" lon="-118.393867">
  <ele>0.0</ele>
  <time>2026-09-01T01:13:07Z</time>
  <course>187.53</course>
  <speed>0.0</speed>
  <fix>3d</fix>
</trkpt>
<trkpt lat="33.810313" lon="-118.393867">
  <ele>-0.13</ele>
  <time>2026-09-01T01:13:07Z</time>
  <course>0.0</course>
  <speed>0.0</speed>
  <fix>3d</fix>
</trkpt>
<trkpt lat="33.810313" lon="-118.393867">
  <ele>0.0</ele>
  <time>2026-09-01T01:13:07Z</time>
  <course>187.59</course>
  <speed>0.0</speed>
  <fix>3d</fix>
</trkpt>
<trkpt lat="33.810313" lon="-118.393867">
  <ele>-0.13</ele>
  <time>2026-09-01T01:13:07Z</time>
  <course>0.0</course>
  <speed>0.0</speed>
  <fix>3d</fix>
</trkpt>
<trkpt lat="33.810313" lon="-118.393867">
  <ele>0.0</ele>
  <time>2026-09-01T01:13:07Z</time>
  <course>187.65</course>
  <speed>0.0</speed>
  <fix>3d</fix>
</trkpt>
<trkpt lat="33.810313" lon="-118.393867">
  <ele>-0.12</ele>
  <time>2026-09-01T01:13:07Z</time>
  <course>0.0</course>
  <speed>0.0</speed>
  <fix>3d</fix>
</trkpt>
<trkpt lat="33.810313" lon="-118.393867">
  <ele>0.0</ele>
  <time>2026-09-01T01:13:07Z</time>
  <course>187.7</course>
  <speed>0.0</speed>
  <fix>3d</fix>
</trkpt>
<trkpt lat="33.810313" lon="-118.393867">
  <ele>-0.12</ele>
  <time>2026-09-01T01:13:07Z</time>
  <course>0.0</course>
  <speed>0.0</speed>
  <fix>3d</fix>
</trkpt>
<trkpt lat="33.810313" lon="-118.393867">
  <ele>0.0</ele>
  <time>2026-09-01T01:13:07Z</time>
  <course>187.76</course>
  <speed>0.0</speed>
  <fix>3d</fix>
</trkpt>
<trkpt lat="33.810313" lon="-118.393867">
  <ele>-0.12</ele>
  <time>2026-09-01T01:13:07Z</time>
  <course>0.0</course>
  <speed>0.0</speed>
  <fix>3d</fix>
</trkpt>
<trkpt lat="33.810313" lon="-118.393867">
  <ele>0.0</ele>
  <time>2026-09-01T01:13:07Z</time>
  <course>187.81</course>
  <speed>0.0</speed>
  <fix>3d</fix>
</trkpt>
<trkpt lat="33.810313" lon="-118.393867">
  <ele>-0.12</ele>
  <time>2026-09-01T01:13:07Z</time>
  <course>0.0</course>
  <speed>0.0</speed>
  <fix>3d</fix>
</trkpt>
<trkpt lat="33.810313" lon="-118.393867">
  <ele>0.0</ele>
  <time>2026-09-01T01:13:07Z</time>
  <course>187.86</course>
  <speed>0.0</speed>
  <fix>3d</fix>
</trkpt>
<trkpt lat="33.810313" lon="-118.393867">
  <ele>-0.12</ele>
  <time>2026-09-01T01:13:07Z</time>
  <course>0.0</course>
  <speed>0.0</speed>
  <fix>3d</fix>
</trkpt>
<trkpt lat="33.810313" lon="-118.393867">
  <ele>0.0</ele>
  <time>2026-09-01T01:13:07Z</time>
  <course>187.9</course>
  <speed>0.0</speed>
  <fix>3d</fix>
</trkpt>
<trkpt lat="33.810313" lon="-118.393867">
  <ele>-0.12</ele>
  <time>2026-09-01T01:13:07Z</time>
  <course>0.0</course>
  <speed>0.0</speed>
  <fix>3d</fix>
</trkpt>
<trkpt lat="33.810313" lon="-118.393867">
  <ele>0.0</ele>
  <time>2026-09-01T01:13:07Z</time>
  <course>187.94</course>
  <speed>0.0</speed>
  <fix>3d</fix>
</trkpt>
<trkpt lat="33.810313" lon="-118.393867">
  <ele>-0.12</ele>
  <time>2026-09-01T01:13:07Z</time>
  <course>0.0</course>
  <speed>0.0</speed>
  <fix>3d</fix>
</trkpt>
<trkpt lat="33.810313" lon="-118.393867">
  <ele>0.0</ele>
  <time>2026-09-01T01:13:07Z</time>
  <course>187.99</course>
  <speed>0.0</speed>
  <fix>3d</fix>
</trkpt>
<trkpt lat="33.810313" lon="-118.393867">
  <ele>-0.12</ele>
  <time>2026-09-01T01:13:07Z</time>
  <course>0.0</course>
  <speed>0.0</speed>
  <fix>3d</fix>
</trkpt>
<trkpt lat="33.810313" lon="-118.393867">
  <ele>0.0</ele>
  <time>2026-09-01T01:13:07Z</time>
  <course>188.02</course>
  <speed>0.0</speed>
  <fix>3d</fix>
</trkpt>
<trkpt lat="33.810313" lon="-118.393867">
  <ele>-0.12</ele>
  <time>2026-09-01T01:13:07Z</time>
  <course>0.0</course>
  <speed>0.0</speed>
  <fix>3d</fix>
</trkpt>
<trkpt lat="33.810313" lon="-118.393867">
  <ele>0.0</ele>
  <time>2026-09-01T01:13:07Z</time>
  <course>188.06</course>
  <speed>0.0</speed>
  <fix>3d</fix>
</trkpt>
<trkpt lat="33.810313" lon="-118.393867">
  <ele>-0.12</ele>
  <time>2026-09-01T01:13:07Z</time>
  <course>0.0</course>
  <speed>0.0</speed>
  <fix>3d</fix>
</trkpt>
<trkpt lat="33.810313" lon="-118.393867">
  <ele>0.0</ele>
  <time>2026-09-01T01:13:07Z</time>
  <course>188.1</course>
  <speed>0.0</speed>
  <fix>3d</fix>
</trkpt>
<trkpt lat="33.810313" lon="-118.393867">
  <ele>-0.13</ele>
  <time>2026-09-01T01:13:07Z</time>
  <course>0.0</course>
  <speed>0.0</speed>
  <fix>3d</fix>
</trkpt>
<trkpt lat="33.810313" lon="-118.393867">
  <ele>0.0</ele>
  <time>2026-09-01T01:13:07Z</time>
  <course>188.13</course>
  <speed>0.0</speed>
  <fix>3d</fix>
</trkpt>
<trkpt lat="33.810313" lon="-118.393867">
  <ele>-0.13</ele>
  <time>2026-09-01T01:13:07Z</time>
  <course>0.0</course>
  <speed>0.0</speed>
  <fix>3d</fix>
</trkpt>
<trkpt lat="33.810313" lon="-118.393867">
  <ele>0.0</ele>
  <time>2026-09-01T01:13:07Z</time>
  <course>188.16</course>
  <speed>0.0</speed>
  <fix>3d</fix>
</trkpt>
<trkpt lat="33.810313" lon="-118.393867">
  <ele>-0.13</ele>
  <time>2026-09-01T01:13:07Z</time>
  <course>0.0</course>
  <speed>0.0</speed>
  <fix>3d</fix>
</trkpt>
<trkpt lat="33.810313" lon="-118.393867">
  <ele>0.0</ele>
  <time>2026-09-01T01:13:07Z</time>
  <course>188.19</course>
  <speed>0.0</speed>
  <fix>3d</fix>
</trkpt>
<trkpt lat="33.810313" lon="-118.393867">
  <ele>-0.13</ele>
  <time>2026-09-01T01:13:07Z</time>
  <course>0.0</course>
  <speed>0.0</speed>
  <fix>3d</fix>
</trkpt>
<trkpt lat="33.810313" lon="-118.393867">
  <ele>0.0</ele>
  <time>2026-09-01T01:13:07Z</time>
  <course>188.22</course>
  <speed>0.0</speed>
  <fix>3d</fix>
</trkpt>
<trkpt lat="33.810313" lon="-118.393867">
  <ele>-0.13</ele>
  <time>2026-09-01T01:13:07Z</time>
  <course>0.0</course>
  <speed>0.0</speed>
  <fix>3d</fix>
</trkpt>
<trkpt lat="33.810313" lon="-118.393867">
  <ele>0.0</ele>
  <time>2026-09-01T01:13:07Z</time>
  <course>188.24</course>
  <speed>0.0</speed>
  <fix>3d</fix>
</trkpt>
<trkpt lat="33.810313" lon="-118.393867">
  <ele>-0.13</ele>
  <time>2026-09-01T01:13:07Z</time>
  <course>0.0</course>
  <speed>0.0</speed>
  <fix>3d</fix>
</trkpt>
<trkpt lat="33.810313" lon="-118.393867">
  <ele>0.0</ele>
  <time>2026-09-01T01:13:07Z</time>
  <course>188.27</course>
  <speed>0.0</speed>
  <fix>3d</fix>
</trkpt>
<trkpt lat="33.810313" lon="-118.393867">
  <ele>-0.12</ele>
  <time>2026-09-01T01:13:07Z</time>
  <course>0.0</course>
  <speed>0.0</speed>
  <fix>3d</fix>
</trkpt>
<trkpt lat="33.810313" lon="-118.393867">
  <ele>0.0</ele>
  <time>2026-09-01T01:13:07Z</time>
  <course>188.29</course>
  <speed>0.0</speed>
  <fix>3d</fix>
</trkpt>
<trkpt lat="33.810313" lon="-118.393867">
  <ele>-0.12</ele>
  <time>2026-09-01T01:13:07Z</time>
  <course>0.0</course>
  <speed>0.0</speed>
  <fix>3d</fix>
</trkpt>
<trkpt lat="33.810313" lon="-118.393867">
  <ele>0.0</ele>
  <time>2026-09-01T01:13:07Z</time>
  <course>188.32</course>
  <speed>0.0</speed>
  <fix>3d</fix>
</trkpt>
<trkpt lat="33.810313" lon="-118.393867">
  <ele>-0.12</ele>
  <time>2026-09-01T01:13:07Z</time>
  <course>0.0</course>
  <speed>0.0</speed>
  <fix>3d</fix>
</trkpt>
<trkpt lat="33.810313" lon="-118.393867">
  <ele>0.0</ele>
  <time>2026-09-01T01:13:07Z</time>
  <course>188.34</course>
  <speed>0.0</speed>
  <fix>3d</fix>
</trkpt>
<trkpt lat="33.810313" lon="-118.393867">
  <ele>-0.12</ele>
  <time>2026-09-01T01:13:07Z</time>
  <course>0.0</course>
  <speed>0.0</speed>
  <fix>3d</fix>
</trkpt>
<trkpt lat="33.810313" lon="-118.393867">
  <ele>0.0</ele>
  <time>2026-09-01T01:13:07Z</time>
  <course>188.36</course>
  <speed>0.0</speed>
  <fix>3d</fix>
</trkpt>
<trkpt lat="33.810313" lon="-118.393867">
  <ele>-0.12</ele>
  <time>2026-09-01T01:13:07Z</time>
  <course>0.0</course>
  <speed>0.0</speed>
  <fix>3d</fix>
</trkpt>
<trkpt lat="33.810313" lon="-118.393867">
  <ele>0.0</ele>
  <time>2026-09-01T01:13:07Z</time>
  <course>188.38</course>
  <speed>0.0</speed>
  <fix>3d</fix>
</trkpt>
<trkpt lat="33.810313" lon="-118.393867">
  <ele>-0.12</ele>
  <time>2026-09-01T01:13:07Z</time>
  <course>0.0</course>
  <speed>0.0</speed>
  <fix>3d</fix>
</trkpt>
<trkpt lat="33.810313" lon="-118.393867">
  <ele>0.0</ele>
  <time>2026-09-01T01:13:07Z</time>
  <course>188.39</course>
  <speed>0.0</speed>
  <fix>3d</fix>
</trkpt>
<trkpt lat="33.810313" lon="-118.393867">
  <ele>-0.12</ele>
  <time>2026-09-01T01:13:07Z</time>
  <course>0.0</course>
  <speed>0.0</speed>
  <fix>3d</fix>
</trkpt>
<trkpt lat="33.810313" lon="-118.393867">
  <ele>0.0</ele>
  <time>2026-09-01T01:13:07Z</time>
  <course>188.41</course>
  <speed>0.0</speed>
  <fix>3d</fix>
</trkpt>
<trkpt lat="33.810313" lon="-118.393867">
  <ele>-0.12</ele>
  <time>2026-09-01T01:13:07Z</time>
  <course>0.0</course>
  <speed>0.0</speed>
  <fix>3d</fix>
</trkpt>
<trkpt lat="33.810313" lon="-118.393867">
  <ele>0.0</ele>
  <time>2026-09-01T01:13:07Z</time>
  <course>188.42</course>
  <speed>0.0</speed>
  <fix>3d</fix>
</trkpt>
<trkpt lat="33.810313" lon="-118.393867">
  <ele>-0.12</ele>
  <time>2026-09-01T01:13:07Z</time>
  <course>0.0</course>
  <speed>0.0</speed>
  <fix>3d</fix>
</trkpt>
<trkpt lat="33.810313" lon="-118.393867">
  <ele>0.0</ele>
  <time>2026-09-01T01:13:07Z</time>
  <course>188.44</course>
  <speed>0.0</speed>
  <fix>3d</fix>
</trkpt>
<trkpt lat="33.810313" lon="-118.393867">
  <ele>-0.12</ele>
  <time>2026-09-01T01:13:07Z</time>
  <course>0.0</course>
  <speed>0.0</speed>
  <fix>3d</fix>
</trkpt>
<trkpt lat="33.810313" lon="-118.393867">
  <ele>0.0</ele>
  <time>2026-09-01T01:13:07Z</time>
  <course>188.45</course>
  <speed>0.0</speed>
  <fix>3d</fix>
</trkpt>
<trkpt lat="33.810313" lon="-118.393867">
  <ele>-0.13</ele>
  <time>2026-09-01T01:13:07Z</time>
  <course>0.0</course>
  <speed>0.0</speed>
  <fix>3d</fix>
</trkpt>
<trkpt lat="33.810313" lon="-118.393867">
  <ele>0.0</ele>
  <time>2026-09-01T01:13:07Z</time>
  <course>188.46</course>
  <speed>0.0</speed>
  <fix>3d</fix>
</trkpt>
<trkpt lat="33.810313" lon="-118.393867">
  <ele>-0.13</ele>
  <time>2026-09-01T01:13:07Z</time>
  <course>0.0</course>
  <speed>0.0</speed>
  <fix>3d</fix>
</trkpt>
<trkpt lat="33.810313" lon="-118.393867">
  <ele>0.0</ele>
  <time>2026-09-01T01:13:07Z</time>
  <course>188.47</course>
  <speed>0.0</speed>
  <fix>3d</fix>
</trkpt>
<trkpt lat="33.810313" lon="-118.393867">
  <ele>-0.13</ele>
  <time>2026-09-01T01:13:07Z</time>
  <course>0.0</course>
  <speed>0.0</speed>
  <fix>3d</fix>
</trkpt>
<trkpt lat="33.810313" lon="-118.393867">
  <ele>0.0</ele>
  <time>2026-09-01T01:13:07Z</time>
  <course>188.48</course>
  <speed>0.0</speed>
  <fix>3d</fix>
</trkpt>
<trkpt lat="33.810313" lon="-118.393867">
  <ele>-0.13</ele>
  <time>2026-09-01T01:13:07Z</time>
  <course>0.0</course>
  <speed>0.0</speed>
  <fix>3d</fix>
</trkpt>
<trkpt lat="33.810313" lon="-118.393867">
  <ele>0.0</ele>
  <time>2026-09-01T01:13:07Z</time>
  <course>188.49</course>
  <speed>0.0</speed>
  <fix>3d</fix>
</trkpt>
<trkpt lat="33.810313" lon="-118.393867">
  <ele>-0.13</ele>
  <time>2026-09-01T01:13:07Z</time>
  <course>0.0</course>
  <speed>0.0</speed>
  <fix>3d</fix>
</trkpt>
<trkpt lat="33.810313" lon="-118.393867">
  <ele>0.0</ele>
  <time>2026-09-01T01:13:07Z</time>
  <course>188.5</course>
  <speed>0.0</speed>
  <fix>3d</fix>
</trkpt>
<trkpt lat="33.810313" lon="-118.393867">
  <ele>-0.13</ele>
  <time>2026-09-01T01:13:07Z</time>
  <course>0.0</course>
  <speed>0.0</speed>
  <fix>3d</fix>
</trkpt>
<trkpt lat="33.810313" lon="-118.393867">
  <ele>0.0</ele>
  <time>2026-09-01T01:13:07Z</time>
  <course>188.51</course>
  <speed>0.0</speed>
  <fix>3d</fix>
</trkpt>
<trkpt lat="33.810313" lon="-118.393867">
  <ele>-0.12</ele>
  <time>2026-09-01T01:13:07Z</time>
  <course>0.0</course>
  <speed>0.0</speed>
  <fix>3d</fix>
</trkpt>
<trkpt lat="33.810313" lon="-118.393867">
  <ele>0.0</ele>
  <time>2026-09-01T01:13:07Z</time>
  <course>188.52</course>
  <speed>0.0</speed>
  <fix>3d</fix>
</trkpt>
<trkpt lat="33.810313" lon="-118.393867">
  <ele>-0.12</ele>
  <time>2026-09-01T01:13:07Z</time>
  <course>0.0</course>
  <speed>0.0</speed>
  <fix>3d</fix>
</trkpt>
<trkpt lat="33.810313" lon="-118.393867">
  <ele>0.0</ele>
  <time>2026-09-01T01:13:07Z</time>
  <course>188.53</course>
  <speed>0.0</speed>
  <fix>3d</fix>
</trkpt>
<trkpt lat="33.810313" lon="-118.393867">
  <ele>-0.12</ele>
  <time>2026-09-01T01:13:07Z</time>
  <course>0.0</course>
  <speed>0.0</speed>
  <fix>3d</fix>
</trkpt>
<trkpt lat="33.810313" lon="-118.393867">
  <ele>0.0</ele>
  <time>2026-09-01T01:13:07Z</time>
  <course>188.53</course>
  <speed>0.0</speed>
  <fix>3d</fix>
</trkpt>
<trkpt lat="33.810313" lon="-118.393867">
  <ele>-0.12</ele>
  <time>2026-09-01T01:13:07Z</time>
  <course>0.0</course>
  <speed>0.0</speed>
  <fix>3d</fix>
</trkpt>
<trkpt lat="33.810313" lon="-118.393867">
  <ele>0.0</ele>
  <time>2026-09-01T01:13:07Z</time>
  <course>188.54</course>
  <speed>0.0</speed>
  <fix>3d</fix>
</trkpt>
<trkpt lat="33.810313" lon="-118.393867">
  <ele>-0.12</ele>
  <time>2026-09-01T01:13:07Z</time>
  <course>0.0</course>
  <speed>0.0</speed>
  <fix>3d</fix>
</trkpt>
<trkpt lat="33.810313" lon="-118.393867">
  <ele>0.0</ele>
  <time>2026-09-01T01:13:07Z</time>
  <course>188.54</course>
  <speed>0.0</speed>
  <fix>3d</fix>
</trkpt>
<trkpt lat="33.810313" lon="-118.393867">
  <ele>-0.12</ele>
  <time>2026-09-01T01:13:07Z</time>
  <course>0.0</course>
  <speed>0.0</speed>
  <fix>3d</fix>
</trkpt>
<trkpt lat="33.810313" lon="-118.393867">
  <ele>0.0</ele>
  <time>2026-09-01T01:13:07Z</time>
  <course>188.54</course>
  <speed>0.0</speed>
  <fix>3d</fix>
</trkpt>
<trkpt lat="33.810313" lon="-118.393867">
  <ele>-0.12</ele>
  <time>2026-09-01T01:13:07Z</time>
  <course>0.0</course>
  <speed>0.0</speed>
  <fix>3d</fix>
</trkpt>
<trkpt lat="33.810313" lon="-118.393867">
  <ele>0.0</ele>
  <time>2026-09-01T01:13:07Z</time>
  <course>188.55</course>
  <speed>0.0</speed>
  <fix>3d</fix>
</trkpt>
<trkpt lat="33.810313" lon="-118.393867">
  <ele>-0.12</ele>
  <time>2026-09-01T01:13:07Z</time>
  <course>0.0</course>
  <speed>0.0</speed>
  <fix>3d</fix>
</trkpt>
<trkpt lat="33.810313" lon="-118.393867">
  <ele>0.0</ele>
  <time>2026-09-01T01:13:07Z</time>
  <course>188.55</course>
  <speed>0.0</speed>
  <fix>3d</fix>
</trkpt>
<trkpt lat="33.810313" lon="-118.393867">
  <ele>-0.12</ele>
  <time>2026-09-01T01:13:07Z</time>
  <course>0.0</course>
  <speed>0.0</speed>
  <fix>3d</fix>
</trkpt>
<trkpt lat="33.810313" lon="-118.393867">
  <ele>0.0</ele>
  <time>2026-09-01T01:13:07Z</time>
  <course>188.55</course>
  <speed>0.0</speed>
  <fix>3d</fix>
</trkpt>
<trkpt lat="33.810313" lon="-118.393867">
  <ele>-0.12</ele>
  <time>2026-09-01T01:13:07Z</time>
  <course>0.0</course>
  <speed>0.0</speed>
  <fix>3d</fix>
</trkpt>
<trkpt lat="33.810313" lon="-118.393867">
  <ele>-0.126</ele>
  <time>2026-09-01T01:13:07Z</time>
  <course>188.55</course>
  <speed>0.0</speed>
  <fix>3d</fix>
</trkpt>
<trkpt lat="33.810313" lon="-118.393867">
  <ele>-0.13</ele>
  <time>2026-09-01T01:13:07Z</time>
  <course>0.0</course>
  <speed>0.0</speed>
  <fix>3d</fix>
</trkpt>
<trkpt lat="33.810313" lon="-118.393867">
  <ele>-0.126</ele>
  <time>2026-09-01T01:13:07Z</time>
  <course>188.56</course>
  <speed>0.0</speed>
  <fix>3d</fix>
</trkpt>
<trkpt lat="33.810313" lon="-118.393867">
  <ele>-0.13</ele>
  <time>2026-09-01T01:13:07Z</time>
  <course>0.0</course>
  <speed>0.0</speed>
  <fix>3d</fix>
</trkpt>
<trkpt lat="33.810313" lon="-118.393867">
  <ele>-0.125</ele>
  <time>2026-09-01T01:13:07Z</time>
  <course>188.56</course>
  <speed>0.0</speed>
  <fix>3d</fix>
</trkpt>
<trkpt lat="33.810313" lon="-118.393867">
  <ele>-0.13</ele>
  <time>2026-09-01T01:13:07Z</time>
  <course>0.0</course>
  <speed>0.0</speed>
  <fix>3d</fix>
</trkpt>
<trkpt lat="33.810313" lon="-118.393867">
  <ele>-0.123</ele>
  <time>2026-09-01T01:13:07Z</time>
  <course>188.56</course>
  <speed>0.0</speed>
  <fix>3d</fix>
</trkpt>
<trkpt lat="33.810313" lon="-118.393867">
  <ele>-0.13</ele>
  <time>2026-09-01T01:13:07Z</time>
  <course>0.0</course>
  <speed>0.0</speed>
  <fix>3d</fix>
</trkpt>
<trkpt lat="33.810313" lon="-118.393867">
  <ele>-0.121</ele>
  <time>2026-09-01T01:13:07Z</time>
  <course>188.56</course>
  <speed>0.0</speed>
  <fix>3d</fix>
</trkpt>
<trkpt lat="33.810313" lon="-118.393867">
  <ele>-0.12</ele>
  <time>2026-09-01T01:13:07Z</time>
  <course>0.0</course>
  <speed>0.0</speed>
  <fix>3d</fix>
</trkpt>
<trkpt lat="33.810313" lon="-118.393867">
  <ele>-0.12</ele>
  <time>2026-09-01T01:13:07Z</time>
  <course>188.56</course>
  <speed>0.0</speed>
  <fix>3d</fix>
</trkpt>
<trkpt lat="33.810313" lon="-118.393867">
  <ele>-0.12</ele>
  <time>2026-09-01T01:13:07Z</time>
  <course>0.0</course>
  <speed>0.0</speed>
  <fix>3d</fix>
</trkpt>
<trkpt lat="33.810313" lon="-118.393867">
  <ele>-0.119</ele>
  <time>2026-09-01T01:13:07Z</time>
  <course>188.56</course>
  <speed>0.0</speed>
  <fix>3d</fix>
</trkpt>
<trkpt lat="33.810313" lon="-118.393867">
  <ele>-0.12</ele>
  <time>2026-09-01T01:13:07Z</time>
  <course>0.0</course>
  <speed>0.0</speed>
  <fix>3d</fix>
</trkpt>
<trkpt lat="33.810313" lon="-118.393867">
  <ele>-0.12</ele>
  <time>2026-09-01T01:13:07Z</time>
  <course>188.56</course>
  <speed>0.0</speed>
  <fix>3d</fix>
</trkpt>
<trkpt lat="33.810313" lon="-118.393867">
  <ele>-0.12</ele>
  <time>2026-09-01T01:13:07Z</time>
  <course>0.0</course>
  <speed>0.0</speed>
  <fix>3d</fix>
</trkpt>
<trkpt lat="33.810313" lon="-118.393867">
  <ele>-0.123</ele>
  <time>2026-09-01T01:13:07Z</time>
  <course>188.55</course>
  <speed>0.0</speed>
  <fix>3d</fix>
</trkpt>
<trkpt lat="33.810313" lon="-118.393867">
  <ele>-0.12</ele>
  <time>2026-09-01T01:13:07Z</time>
  <course>0.0</course>
  <speed>0.0</speed>
  <fix>3d</fix>
</trkpt>
<trkpt lat="33.810313" lon="-118.393867">
  <ele>-0.127</ele>
  <time>2026-09-01T01:13:07Z</time>
  <course>188.55</course>
  <speed>0.0</speed>
  <fix>3d</fix>
</trkpt>
<trkpt lat="33.810313" lon="-118.393867">
  <ele>-0.12</ele>
  <time>2026-09-01T01:13:07Z</time>
  <course>0.0</course>
  <speed>0.0</speed>
  <fix>3d</fix>
</trkpt>
<trkpt lat="33.810313" lon="-118.393867">
  <ele>-0.13</ele>
  <time>2026-09-01T01:13:07Z</time>
  <course>188.55</course>
  <speed>0.0</speed>
  <fix>3d</fix>
</trkpt>
<trkpt lat="33.810313" lon="-118.393867">
  <ele>-0.12</ele>
  <time>2026-09-01T01:13:07Z</time>
  <course>0.0</course>
  <speed>0.0</speed>
  <fix>3d</fix>
</trkpt>
<trkpt lat="33.810313" lon="-118.393867">
  <ele>-0.132</ele>
  <time>2026-09-01T01:13:07Z</time>
  <course>188.55</course>
  <speed>0.0</speed>
  <fix>3d</fix>
</trkpt>
<trkpt lat="33.810313" lon="-118.393867">
  <ele>-0.12</ele>
  <time>2026-09-01T01:13:07Z</time>
  <course>0.0</course>
  <speed>0.0</speed>
  <fix>3d</fix>
</trkpt>
<trkpt lat="33.810313" lon="-118.393867">
  <ele>-0.132</ele>
  <time>2026-09-01T01:13:07Z</time>
  <course>188.55</course>
  <speed>0.0</speed>
  <fix>3d</fix>
</trkpt>
<trkpt lat="33.810313" lon="-118.393867">
  <ele>-0.12</ele>
  <time>2026-09-01T01:13:07Z</time>
  <course>0.0</course>
  <speed>0.0</speed>
  <fix>3d</fix>
</trkpt>
<trkpt lat="33.810313" lon="-118.393867">
  <ele>-0.132</ele>
  <time>2026-09-01T01:13:07Z</time>
  <course>188.55</course>
  <speed>0.0</speed>
  <fix>3d</fix>
</trkpt>
<trkpt lat="33.810313" lon="-118.393867">
  <ele>-0.12</ele>
  <time>2026-09-01T01:13:07Z</time>
  <course>0.0</course>
  <speed>0.0</speed>
  <fix>3d</fix>
</trkpt>
<trkpt lat="33.810313" lon="-118.393867">
  <ele>-0.132</ele>
  <time>2026-09-01T01:13:07Z</time>
  <course>188.55</course>
  <speed>0.0</speed>
  <fix>3d</fix>
</trkpt>
<trkpt lat="33.810313" lon="-118.393867">
  <ele>-0.12</ele>
  <time>2026-09-01T01:13:07Z</time>
  <course>0.0</course>
  <speed>0.0</speed>
  <fix>3d</fix>
</trkpt>
<trkpt lat="33.810313" lon="-118.393867">
  <ele>-0.131</ele>
  <time>2026-09-01T01:13:07Z</time>
  <course>188.55</course>
  <speed>0.0</speed>
  <fix>3d</fix>
</trkpt>
<trkpt lat="33.810313" lon="-118.393867">
  <ele>-0.12</ele>
  <time>2026-09-01T01:13:07Z</time>
  <course>0.0</course>
  <speed>0.0</speed>
  <fix>3d</fix>
</trkpt>
<trkpt lat="33.810313" lon="-118.393867">
  <ele>-0.129</ele>
  <time>2026-09-01T01:13:07Z</time>
  <course>188.54</course>
  <speed>0.0</speed>
  <fix>3d</fix>
</trkpt>
<trkpt lat="33.810313" lon="-118.393867">
  <ele>-0.13</ele>
  <time>2026-09-01T01:13:07Z</time>
  <course>0.0</course>
  <speed>0.0</speed>
  <fix>3d</fix>
</trkpt>
<trkpt lat="33.810313" lon="-118.393867">
  <ele>-0.128</ele>
  <time>2026-09-01T01:13:07Z</time>
  <course>188.54</course>
  <speed>0.0</speed>
  <fix>3d</fix>
</trkpt>
<trkpt lat="33.810313" lon="-118.393867">
  <ele>-0.13</ele>
  <time>2026-09-01T01:13:07Z</time>
  <course>0.0</course>
  <speed>0.0</speed>
  <fix>3d</fix>
</trkpt>
<trkpt lat="33.810313" lon="-118.393867">
  <ele>-0.125</ele>
  <time>2026-09-01T01:13:07Z</time>
  <course>188.53</course>
  <speed>0.0</speed>
  <fix>3d</fix>
</trkpt>
<trkpt lat="33.810313" lon="-118.393867">
  <ele>-0.12</ele>
  <time>2026-09-01T01:13:07Z</time>
  <course>0.0</course>
  <speed>0.0</speed>
  <fix>3d</fix>
</trkpt>
<trkpt lat="33.810313" lon="-118.393867">
  <ele>-0.123</ele>
  <time>2026-09-01T01:13:07Z</time>
  <course>188.53</course>
  <speed>0.0</speed>
  <fix>3d</fix>
</trkpt>
<trkpt lat="33.810313" lon="-118.393867">
  <ele>-0.12</ele>
  <time>2026-09-01T01:13:07Z</time>
  <course>0.0</course>
  <speed>0.0</speed>
  <fix>3d</fix>
</trkpt>
<trkpt lat="33.810313" lon="-118.393867">
  <ele>-0.121</ele>
  <time>2026-09-01T01:13:07Z</time>
  <course>188.52</course>
  <speed>0.0</speed>
  <fix>3d</fix>
</trkpt>
<trkpt lat="33.810313" lon="-118.393867">
  <ele>-0.12</ele>
  <time>2026-09-01T01:13:07Z</time>
  <course>0.0</course>
  <speed>0.0</speed>
  <fix>3d</fix>
</trkpt>
<trkpt lat="33.810313" lon="-118.393867">
  <ele>-0.121</ele>
  <time>2026-09-01T01:13:07Z</time>
  <course>188.52</course>
  <speed>0.0</speed>
  <fix>3d</fix>
</trkpt>
<trkpt lat="33.810313" lon="-118.393867">
  <ele>-0.12</ele>
  <time>2026-09-01T01:13:07Z</time>
  <course>0.0</course>
  <speed>0.0</speed>
  <fix>3d</fix>
</trkpt>
<trkpt lat="33.810313" lon="-118.393867">
  <ele>-0.121</ele>
  <time>2026-09-01T01:13:07Z</time>
  <course>188.51</course>
  <speed>0.0</speed>
  <fix>3d</fix>
</trkpt>
<trkpt lat="33.810313" lon="-118.393867">
  <ele>-0.12</ele>
  <time>2026-09-01T01:13:07Z</time>
  <course>0.0</course>
  <speed>0.0</speed>
  <fix>3d</fix>
</trkpt>
<trkpt lat="33.810313" lon="-118.393867">
  <ele>-0.123</ele>
  <time>2026-09-01T01:13:07Z</time>
  <course>188.51</course>
  <speed>0.0</speed>
  <fix>3d</fix>
</trkpt>
<trkpt lat="33.810313" lon="-118.393867">
  <ele>-0.12</ele>
  <time>2026-09-01T01:13:07Z</time>
  <course>0.0</course>
  <speed>0.0</speed>
  <fix>3d</fix>
</trkpt>
<trkpt lat="33.810313" lon="-118.393867">
  <ele>-0.126</ele>
  <time>2026-09-01T01:13:07Z</time>
  <course>188.5</course>
  <speed>0.0</speed>
  <fix>3d</fix>
</trkpt>
<trkpt lat="33.810313" lon="-118.393867">
  <ele>-0.12</ele>
  <time>2026-09-01T01:13:07Z</time>
  <course>0.0</course>
  <speed>0.0</speed>
  <fix>3d</fix>
</trkpt>
<trkpt lat="33.810313" lon="-118.393867">
  <ele>-0.127</ele>
  <time>2026-09-01T01:13:07Z</time>
  <course>188.5</course>
  <speed>0.0</speed>
  <fix>3d</fix>
</trkpt>
<trkpt lat="33.810313" lon="-118.393867">
  <ele>-0.12</ele>
  <time>2026-09-01T01:13:07Z</time>
  <course>0.0</course>
  <speed>0.0</speed>
  <fix>3d</fix>
</trkpt>
<trkpt lat="33.810313" lon="-118.393867">
  <ele>-0.128</ele>
  <time>2026-09-01T01:13:07Z</time>
  <course>188.49</course>
  <speed>0.0</speed>
  <fix>3d</fix>
</trkpt>
<trkpt lat="33.810313" lon="-118.393867">
  <ele>-0.12</ele>
  <time>2026-09-01T01:13:07Z</time>
  <course>0.0</course>
  <speed>0.0</speed>
  <fix>3d</fix>
</trkpt>
<trkpt lat="33.810313" lon="-118.393867">
  <ele>-0.127</ele>
  <time>2026-09-01T01:13:07Z</time>
  <course>188.49</course>
  <speed>0.0</speed>
  <fix>3d</fix>
</trkpt>
<trkpt lat="33.810313" lon="-118.393867">
  <ele>-0.12</ele>
  <time>2026-09-01T01:13:07Z</time>
  <course>0.0</course>
  <speed>0.0</speed>
  <fix>3d</fix>
</trkpt>
<trkpt lat="33.810313" lon="-118.393867">
  <ele>-0.127</ele>
  <time>2026-09-01T01:13:07Z</time>
  <course>188.48</course>
  <speed>0.0</speed>
  <fix>3d</fix>
</trkpt>
<trkpt lat="33.810313" lon="-118.393867">
  <ele>-0.12</ele>
  <time>2026-09-01T01:13:07Z</time>
  <course>0.0</course>
  <speed>0.0</speed>
  <fix>3d</fix>
</trkpt>
<trkpt lat="33.810313" lon="-118.393867">
  <ele>-0.127</ele>
  <time>2026-09-01T01:13:07Z</time>
  <course>188.47</course>
  <speed>0.01</speed>
  <fix>3d</fix>
</trkpt>
<trkpt lat="33.810313" lon="-118.393867">
  <ele>-0.12</ele>
  <time>2026-09-01T01:13:07Z</time>
  <course>0.0</course>
  <speed>0.0</speed>
  <fix>3d</fix>
</trkpt>
<trkpt lat="33.810313" lon="-118.393867">
  <ele>-0.127</ele>
  <time>2026-09-01T01:13:07Z</time>
  <course>188.47</course>
  <speed>0.01</speed>
  <fix>3d</fix>
</trkpt>
<trkpt lat="33.810313" lon="-118.393867">
  <ele>-0.12</ele>
  <time>2026-09-01T01:13:07Z</time>
  <course>0.0</course>
  <speed>0.0</speed>
  <fix>3d</fix>
</trkpt>
<trkpt lat="33.810313" lon="-118.393867">
  <ele>-0.127</ele>
  <time>2026-09-01T01:13:07Z</time>
  <course>188.46</course>
  <speed>0.01</speed>
  <fix>3d</fix>
</trkpt>
<trkpt lat="33.810313" lon="-118.393867">
  <ele>-0.12</ele>
  <time>2026-09-01T01:13:07Z</time>
  <course>0.0</course>
  <speed>0.0</speed>
  <fix>3d</fix>
</trkpt>
<trkpt lat="33.810313" lon="-118.393867">
  <ele>-0.126</ele>
  <time>2026-09-01T01:13:07Z</time>
  <course>188.45</course>
  <speed>0.01</speed>
  <fix>3d</fix>
</trkpt>
<trkpt lat="33.810313" lon="-118.393867">
  <ele>-0.12</ele>
  <time>2026-09-01T01:13:07Z</time>
  <course>0.0</course>
  <speed>0.0</speed>
  <fix>3d</fix>
</trkpt>
<trkpt lat="33.810313" lon="-118.393867">
  <ele>-0.126</ele>
  <time>2026-09-01T01:13:07Z</time>
  <course>188.45</course>
  <speed>0.01</speed>
  <fix>3d</fix>
</trkpt>
<trkpt lat="33.810313" lon="-118.393867">
  <ele>-0.12</ele>
  <time>2026-09-01T01:13:07Z</time>
  <course>0.0</course>
  <speed>0.0</speed>
  <fix>3d</fix>
</trkpt>
<trkpt lat="33.810313" lon="-118.393867">
  <ele>-0.125</ele>
  <time>2026-09-01T01:13:07Z</time>
  <course>188.44</course>
  <speed>0.01</speed>
  <fix>3d</fix>
</trkpt>
<trkpt lat="33.810313" lon="-118.393867">
  <ele>-0.12</ele>
  <time>2026-09-01T01:13:07Z</time>
  <course>0.0</course>
  <speed>0.0</speed>
  <fix>3d</fix>
</trkpt>
<trkpt lat="33.810313" lon="-118.393867">
  <ele>-0.126</ele>
  <time>2026-09-01T01:13:07Z</time>
  <course>188.43</course>
  <speed>0.01</speed>
  <fix>3d</fix>
</trkpt>
<trkpt lat="33.810313" lon="-118.393867">
  <ele>-0.12</ele>
  <time>2026-09-01T01:13:07Z</time>
  <course>0.0</course>
  <speed>0.0</speed>
  <fix>3d</fix>
</trkpt>
<trkpt lat="33.810313" lon="-118.393867">
  <ele>-0.127</ele>
  <time>2026-09-01T01:13:07Z</time>
  <course>188.42</course>
  <speed>0.01</speed>
  <fix>3d</fix>
</trkpt>
<trkpt lat="33.810313" lon="-118.393867">
  <ele>-0.12</ele>
  <time>2026-09-01T01:13:07Z</time>
  <course>0.0</course>
  <speed>0.0</speed>
  <fix>3d</fix>
</trkpt>
<trkpt lat="33.810313" lon="-118.393867">
  <ele>-0.128</ele>
  <time>2026-09-01T01:13:07Z</time>
  <course>188.42</course>
  <speed>0.01</speed>
  <fix>3d</fix>
</trkpt>
<trkpt lat="33.810313" lon="-118.393867">
  <ele>-0.12</ele>
  <time>2026-09-01T01:13:07Z</time>
  <course>0.0</course>
  <speed>0.0</speed>
  <fix>3d</fix>
</trkpt>
<trkpt lat="33.810313" lon="-118.393867">
  <ele>-0.129</ele>
  <time>2026-09-01T01:13:07Z</time>
  <course>188.41</course>
  <speed>0.01</speed>
  <fix>3d</fix>
</trkpt>
<trkpt lat="33.810313" lon="-118.393867">
  <ele>-0.12</ele>
  <time>2026-09-01T01:13:07Z</time>
  <course>0.0</course>
  <speed>0.0</speed>
  <fix>3d</fix>
</trkpt>
<trkpt lat="33.810313" lon="-118.393867">
  <ele>-0.129</ele>
  <time>2026-09-01T01:13:07Z</time>
  <course>188.4</course>
  <speed>0.01</speed>
  <fix>3d</fix>
</trkpt>
<trkpt lat="33.810313" lon="-118.393867">
  <ele>-0.12</ele>
  <time>2026-09-01T01:13:07Z</time>
  <course>0.0</course>
  <speed>0.0</speed>
  <fix>3d</fix>
</trkpt>
<trkpt lat="33.810313" lon="-118.393867">
  <ele>-0.13</ele>
  <time>2026-09-01T01:13:07Z</time>
  <course>188.4</course>
  <speed>0.01414213562373095</speed>
  <fix>3d</fix>
</trkpt>
<trkpt lat="33.810313" lon="-118.393867">
  <ele>-0.12</ele>
  <time>2026-09-01T01:13:07Z</time>
  <course>0.0</course>
  <speed>0.0</speed>
  <fix>3d</fix>
</trkpt>
<trkpt lat="33.810313" lon="-118.393867">
  <ele>-0.13</ele>
  <time>2026-09-01T01:13:07Z</time>
  <course>188.39</course>
  <speed>0.01414213562373095</speed>
  <fix>3d</fix>
</trkpt>
<trkpt lat="33.810313" lon="-118.393867">
  <ele>-0.12</ele>
  <time>2026-09-01T01:13:07Z</time>
  <course>0.0</course>
  <speed>0.0</speed>
  <fix>3d</fix>
</trkpt>
<trkpt lat="33.810313" lon="-118.393867">
  <ele>-0.13</ele>
  <time>2026-09-01T01:13:07Z</time>
  <course>188.38</course>
  <speed>0.01414213562373095</speed>
  <fix>3d</fix>
</trkpt>
<trkpt lat="33.810313" lon="-118.393867">
  <ele>-0.12</ele>
  <time>2026-09-01T01:13:07Z</time>
  <course>0.0</course>
  <speed>0.0</speed>
  <fix>3d</fix>
</trkpt>
<trkpt lat="33.810313" lon="-118.393867">
  <ele>-0.129</ele>
  <time>2026-09-01T01:13:07Z</time>
  <course>188.37</course>
  <speed>0.01414213562373095</speed>
  <fix>3d</fix>
</trkpt>
<trkpt lat="33.810313" lon="-118.393867">
  <ele>-0.12</ele>
  <time>2026-09-01T01:13:07Z</time>
  <course>0.0</course>
  <speed>0.0</speed>
  <fix>3d</fix>
</trkpt>
<trkpt lat="33.810313" lon="-118.393867">
  <ele>-0.128</ele>
  <time>2026-09-01T01:13:07Z</time>
  <course>188.37</course>
  <speed>0.01414213562373095</speed>
  <fix>3d</fix>
</trkpt>
<trkpt lat="33.810313" lon="-118.393867">
  <ele>-0.12</ele>
  <time>2026-09-01T01:13:07Z</time>
  <course>0.0</course>
  <speed>0.0</speed>
  <fix>3d</fix>
</trkpt>
<trkpt lat="33.810313" lon="-118.393867">
  <ele>-0.126</ele>
  <time>2026-09-01T01:13:07Z</time>
  <course>188.36</course>
  <speed>0.01414213562373095</speed>
  <fix>3d</fix>
</trkpt>
<trkpt lat="33.810313" lon="-118.393867">
  <ele>-0.12</ele>
  <time>2026-09-01T01:13:07Z</time>
  <course>0.0</course>
  <speed>0.0</speed>
  <fix>3d</fix>
</trkpt>
<trkpt lat="33.810313" lon="-118.393867">
  <ele>-0.124</ele>
  <time>2026-09-01T01:13:07Z</time>
  <course>188.35</course>
  <speed>0.01414213562373095</speed>
  <fix>3d</fix>
</trkpt>
<trkpt lat="33.810313" lon="-118.393867">
  <ele>-0.12</ele>
  <time>2026-09-01T01:13:07Z</time>
  <course>0.0</course>
  <speed>0.0</speed>
  <fix>3d</fix>
</trkpt>
<trkpt lat="33.810313" lon="-118.393867">
  <ele>-0.122</ele>
  <time>2026-09-01T01:13:07Z</time>
  <course>188.34</course>
  <speed>0.01414213562373095</speed>
  <fix>3d</fix>
</trkpt>
<trkpt lat="33.810313" lon="-118.393867">
  <ele>-0.12</ele>
  <time>2026-09-01T01:13:07Z</time>
  <course>0.0</course>
  <speed>0.0</speed>
  <fix>3d</fix>
</trkpt>
<trkpt lat="33.810313" lon="-118.393867">
  <ele>-0.123</ele>
  <time>2026-09-01T01:13:07Z</time>
  <course>188.34</course>
  <speed>0.01414213562373095</speed>
  <fix>3d</fix>
</trkpt>
<trkpt lat="33.810313" lon="-118.393867">
  <ele>-0.12</ele>
  <time>2026-09-01T01:13:07Z</time>
  <course>0.0</course>
  <speed>0.0</speed>
  <fix>3d</fix>
</trkpt>
<trkpt lat="33.810313" lon="-118.393867">
  <ele>-0.125</ele>
  <time>2026-09-01T01:13:07Z</time>
  <course>188.33</course>
  <speed>0.01414213562373095</speed>
  <fix>3d</fix>
</trkpt>
<trkpt lat="33.810313" lon="-118.393867">
  <ele>-0.12</ele>
  <time>2026-09-01T01:13:07Z</time>
  <course>0.0</course>
  <speed>0.0</speed>
  <fix>3d</fix>
</trkpt>
<trkpt lat="33.810313" lon="-118.393867">
  <ele>-0.128</ele>
  <time>2026-09-01T01:13:07Z</time>
  <course>188.32</course>
  <speed>0.01414213562373095</speed>
  <fix>3d</fix>
</trkpt>
<trkpt lat="33.810313" lon="-118.393867">
  <ele>-0.12</ele>
  <time>2026-09-01T01:13:07Z</time>
  <course>0.0</course>
  <speed>0.0</speed>
  <fix>3d</fix>
</trkpt>
<trkpt lat="33.810313" lon="-118.393867">
  <ele>-0.131</ele>
  <time>2026-09-01T01:13:07Z</time>
  <course>188.31</course>
  <speed>0.01414213562373095</speed>
  <fix>3d</fix>
</trkpt>
<trkpt lat="33.810313" lon="-118.393867">
  <ele>-0.12</ele>
  <time>2026-09-01T01:13:07Z</time>
  <course>0.0</course>
  <speed>0.0</speed>
  <fix>3d</fix>
</trkpt>
<trkpt lat="33.810313" lon="-118.393867">
  <ele>-0.134</ele>
  <time>2026-09-01T01:13:07Z</time>
  <course>188.3</course>
  <speed>0.01414213562373095</speed>
  <fix>3d</fix>
</trkpt>
<trkpt lat="33.810313" lon="-118.393867">
  <ele>-0.12</ele>
  <time>2026-09-01T01:13:07Z</time>
  <course>0.0</course>
  <speed>0.0</speed>
  <fix>3d</fix>
</trkpt>
<trkpt lat="33.810313" lon="-118.393867">
  <ele>-0.135</ele>
  <time>2026-09-01T01:13:07Z</time>
  <course>188.3</course>
  <speed>0.01414213562373095</speed>
  <fix>3d</fix>
</trkpt>
<trkpt lat="33.810313" lon="-118.393867">
  <ele>-0.12</ele>
  <time>2026-09-01T01:13:07Z</time>
  <course>0.0</course>
  <speed>0.0</speed>
  <fix>3d</fix>
</trkpt>
<trkpt lat="33.810313" lon="-118.393867">
  <ele>-0.134</ele>
  <time>2026-09-01T01:13:07Z</time>
  <course>188.29</course>
  <speed>0.01414213562373095</speed>
  <fix>3d</fix>
</trkpt>
<trkpt lat="33.810313" lon="-118.393867">
  <ele>-0.12</ele>
  <time>2026-09-01T01:13:07Z</time>
  <course>0.0</course>
  <speed>0.0</speed>
  <fix>3d</fix>
</trkpt>
<trkpt lat="33.810313" lon="-118.393867">
  <ele>-0.132</ele>
  <time>2026-09-01T01:13:07Z</time>
  <course>188.28</course>
  <speed>0.01414213562373095</speed>
  <fix>3d</fix>
</trkpt>
<trkpt lat="33.810313" lon="-118.393867">
  <ele>-0.12</ele>
  <time>2026-09-01T01:13:07Z</time>
  <course>0.0</course>
  <speed>0.0</speed>
  <fix>3d</fix>
</trkpt>
<trkpt lat="33.810313" lon="-118.393867">
  <ele>-0.13</ele>
  <time>2026-09-01T01:13:07Z</time>
  <course>188.27</course>
  <speed>0.01414213562373095</speed>
  <fix>3d</fix>
</trkpt>
<trkpt lat="33.810313" lon="-118.393867">
  <ele>-0.12</ele>
  <time>2026-09-01T01:13:07Z</time>
  <course>0.0</course>
  <speed>0.0</speed>
  <fix>3d</fix>
</trkpt>
<trkpt lat="33.810313" lon="-118.393867">
  <ele>-0.127</ele>
  <time>2026-09-01T01:13:07Z</time>
  <course>188.26</course>
  <speed>0.01414213562373095</speed>
  <fix>3d</fix>
</trkpt>
<trkpt lat="33.810313" lon="-118.393867">
  <ele>-0.12</ele>
  <time>2026-09-01T01:13:07Z</time>
  <course>0.0</course>
  <speed>0.0</speed>
  <fix>3d</fix>
</trkpt>
<trkpt lat="33.810313" lon="-118.393867">
  <ele>-0.125</ele>
  <time>2026-09-01T01:13:07Z</time>
  <course>188.25</course>
  <speed>0.01414213562373095</speed>
  <fix>3d</fix>
</trkpt>
<trkpt lat="33.810313" lon="-118.393867">
  <ele>-0.12</ele>
  <time>2026-09-01T01:13:07Z</time>
  <course>0.0</course>
  <speed>0.0</speed>
  <fix>3d</fix>
</trkpt>
<trkpt lat="33.810313" lon="-118.393867">
  <ele>-0.123</ele>
  <time>2026-09-01T01:13:07Z</time>
  <course>188.25</course>
  <speed>0.01414213562373095</speed>
  <fix>3d</fix>
</trkpt>
<trkpt lat="33.810313" lon="-118.393867">
  <ele>-0.12</ele>
  <time>2026-09-01T01:13:07Z</time>
  <course>0.0</course>
  <speed>0.0</speed>
  <fix>3d</fix>
</trkpt>
<trkpt lat="33.810313" lon="-118.393867">
  <ele>-0.124</ele>
  <time>2026-09-01T01:13:07Z</time>
  <course>188.24</course>
  <speed>0.01414213562373095</speed>
  <fix>3d</fix>
</trkpt>
<trkpt lat="33.810313" lon="-118.393867">
  <ele>-0.12</ele>
  <time>2026-09-01T01:13:07Z</time>
  <course>0.0</course>
  <speed>0.0</speed>
  <fix>3d</fix>
</trkpt>
<trkpt lat="33.810313" lon="-118.393867">
  <ele>-0.125</ele>
  <time>2026-09-01T01:13:07Z</time>
  <course>188.23</course>
  <speed>0.01414213562373095</speed>
  <fix>3d</fix>
</trkpt>
<trkpt lat="33.810313" lon="-118.393867">
  <ele>-0.12</ele>
  <time>2026-09-01T01:13:07Z</time>
  <course>0.0</course>
  <speed>0.0</speed>
  <fix>3d</fix>
</trkpt>
<trkpt lat="33.810313" lon="-118.393867">
  <ele>-0.127</ele>
  <time>2026-09-01T01:13:07Z</time>
  <course>188.22</course>
  <speed>0.01414213562373095</speed>
  <fix>3d</fix>
</trkpt>
<trkpt lat="33.810313" lon="-118.393867">
  <ele>-0.12</ele>
  <time>2026-09-01T01:13:07Z</time>
  <course>0.0</course>
  <speed>0.0</speed>
  <fix>3d</fix>
</trkpt>
<trkpt lat="33.810313" lon="-118.393867">
  <ele>-0.128</ele>
  <time>2026-09-01T01:13:07Z</time>
  <course>188.21</course>
  <speed>0.01414213562373095</speed>
  <fix>3d</fix>
</trkpt>
<trkpt lat="33.810313" lon="-118.393867">
  <ele>-0.12</ele>
  <time>2026-09-01T01:13:07Z</time>
  <course>0.0</course>
  <speed>0.0</speed>
  <fix>3d</fix>
</trkpt>
<trkpt lat="33.810313" lon="-118.393867">
  <ele>-0.129</ele>
  <time>2026-09-01T01:13:07Z</time>
  <course>188.21</course>
  <speed>0.01414213562373095</speed>
  <fix>3d</fix>
</trkpt>
<trkpt lat="33.810313" lon="-118.393867">
  <ele>-0.12</ele>
  <time>2026-09-01T01:13:07Z</time>
  <course>0.0</course>
  <speed>0.0</speed>
  <fix>3d</fix>
</trkpt>
<trkpt lat="33.810313" lon="-118.393867">
  <ele>-0.129</ele>
  <time>2026-09-01T01:13:07Z</time>
  <course>188.2</course>
  <speed>0.01414213562373095</speed>
  <fix>3d</fix>
</trkpt>
<trkpt lat="33.810313" lon="-118.393867">
  <ele>-0.12</ele>
  <time>2026-09-01T01:13:07Z</time>
  <course>0.0</course>
  <speed>0.0</speed>
  <fix>3d</fix>
</trkpt>
<trkpt lat="33.810313" lon="-118.393867">
  <ele>-0.128</ele>
  <time>2026-09-01T01:13:07Z</time>
  <course>188.19</course>
  <speed>0.01414213562373095</speed>
  <fix>3d</fix>
</trkpt>
<trkpt lat="33.810313" lon="-118.393867">
  <ele>-0.12</ele>
  <time>2026-09-01T01:13:07Z</time>
  <course>0.0</course>
  <speed>0.0</speed>
  <fix>3d</fix>
</trkpt>
<trkpt lat="33.810313" lon="-118.393867">
  <ele>-0.128</ele>
  <time>2026-09-01T01:13:07Z</time>
  <course>188.18</course>
  <speed>0.01414213562373095</speed>
  <fix>3d</fix>
</trkpt>
<trkpt lat="33.810313" lon="-118.393867">
  <ele>-0.12</ele>
  <time>2026-09-01T01:13:07Z</time>
  <course>0.0</course>
  <speed>0.0</speed>
  <fix>3d</fix>
</trkpt>
<trkpt lat="33.810313" lon="-118.393867">
  <ele>-0.127</ele>
  <time>2026-09-01T01:13:07Z</time>
  <course>188.17</course>
  <speed>0.01414213562373095</speed>
  <fix>3d</fix>
</trkpt>
<trkpt lat="33.810313" lon="-118.393867">
  <ele>-0.12</ele>
  <time>2026-09-01T01:13:07Z</time>
  <course>0.0</course>
  <speed>0.0</speed>
  <fix>3d</fix>
</trkpt>
<trkpt lat="33.810313" lon="-118.393867">
  <ele>-0.127</ele>
  <time>2026-09-01T01:13:07Z</time>
  <course>188.16</course>
  <speed>0.01414213562373095</speed>
  <fix>3d</fix>
</trkpt>
<trkpt lat="33.810313" lon="-118.393867">
  <ele>-0.12</ele>
  <time>2026-09-01T01:13:07Z</time>
  <course>0.0</course>
  <speed>0.0</speed>
  <fix>3d</fix>
</trkpt>
<trkpt lat="33.810313" lon="-118.393867">
  <ele>-0.128</ele>
  <time>2026-09-01T01:13:07Z</time>
  <course>188.16</course>
  <speed>0.01414213562373095</speed>
  <fix>3d</fix>
</trkpt>
<trkpt lat="33.810313" lon="-118.393867">
  <ele>-0.12</ele>
  <time>2026-09-01T01:13:07Z</time>
  <course>0.0</course>
  <speed>0.0</speed>
  <fix>3d</fix>
</trkpt>
<trkpt lat="33.810313" lon="-118.393867">
  <ele>-0.129</ele>
  <time>2026-09-01T01:13:07Z</time>
  <course>188.15</course>
  <speed>0.01414213562373095</speed>
  <fix>3d</fix>
</trkpt>
<trkpt lat="33.810313" lon="-118.393867">
  <ele>-0.12</ele>
  <time>2026-09-01T01:13:07Z</time>
  <course>0.0</course>
  <speed>0.0</speed>
  <fix>3d</fix>
</trkpt>
<trkpt lat="33.810313" lon="-118.393867">
  <ele>-0.131</ele>
  <time>2026-09-01T01:13:07Z</time>
  <course>188.14</course>
  <speed>0.01414213562373095</speed>
  <fix>3d</fix>
</trkpt>
<trkpt lat="33.810313" lon="-118.393867">
  <ele>-0.12</ele>
  <time>2026-09-01T01:13:07Z</time>
  <course>0.0</course>
  <speed>0.0</speed>
  <fix>3d</fix>
</trkpt>
<trkpt lat="33.810313" lon="-118.393867">
  <ele>-0.133</ele>
  <time>2026-09-01T01:13:07Z</time>
  <course>188.13</course>
  <speed>0.01414213562373095</speed>
  <fix>3d</fix>
</trkpt>
<trkpt lat="33.810313" lon="-118.393867">
  <ele>-0.12</ele>
  <time>2026-09-01T01:13:07Z</time>
  <course>0.0</course>
  <speed>0.0</speed>
  <fix>3d</fix>
</trkpt>
<trkpt lat="33.810313" lon="-118.393867">
  <ele>-0.135</ele>
  <time>2026-09-01T01:13:07Z</time>
  <course>188.12</course>
  <speed>0.01414213562373095</speed>
  <fix>3d</fix>
</trkpt>
<trkpt lat="33.810313" lon="-118.393867">
  <ele>-0.12</ele>
  <time>2026-09-01T01:13:07Z</time>
  <course>0.0</course>
  <speed>0.0</speed>
  <fix>3d</fix>
</trkpt>
<trkpt lat="33.810313" lon="-118.393867">
  <ele>-0.136</ele>
  <time>2026-09-01T01:13:07Z</time>
  <course>188.12</course>
  <speed>0.01414213562373095</speed>
  <fix>3d</fix>
</trkpt>
<trkpt lat="33.810313" lon="-118.393867">
  <ele>-0.12</ele>
  <time>2026-09-01T01:13:07Z</time>
  <course>0.0</course>
  <speed>0.0</speed>
  <fix>3d</fix>
</trkpt>
<trkpt lat="33.810313" lon="-118.393867">
  <ele>-0.136</ele>
  <time>2026-09-01T01:13:07Z</time>
  <course>188.11</course>
  <speed>0.01414213562373095</speed>
  <fix>3d</fix>
</trkpt>
<trkpt lat="33.810313" lon="-118.393867">
  <ele>-0.12</ele>
  <time>2026-09-01T01:13:07Z</time>
  <course>0.0</course>
  <speed>0.0</speed>
  <fix>3d</fix>
</trkpt>
<trkpt lat="33.810313" lon="-118.393867">
  <ele>-0.136</ele>
  <time>2026-09-01T01:13:07Z</time>
  <course>188.1</course>
  <speed>0.01414213562373095</speed>
  <fix>3d</fix>
</trkpt>
<trkpt lat="33.810313" lon="-118.393867">
  <ele>-0.12</ele>
  <time>2026-09-01T01:13:07Z</time>
  <course>0.0</course>
  <speed>0.0</speed>
  <fix>3d</fix>
</trkpt>
<trkpt lat="33.810313" lon="-118.393867">
  <ele>-0.135</ele>
  <time>2026-09-01T01:13:07Z</time>
  <course>188.09</course>
  <speed>0.01414213562373095</speed>
  <fix>3d</fix>
</trkpt>
<trkpt lat="33.810313" lon="-118.393867">
  <ele>-0.12</ele>
  <time>2026-09-01T01:13:07Z</time>
  <course>0.0</course>
  <speed>0.0</speed>
  <fix>3d</fix>
</trkpt>
<trkpt lat="33.810313" lon="-118.393867">
  <ele>-0.134</ele>
  <time>2026-09-01T01:13:07Z</time>
  <course>188.08</course>
  <speed>0.01414213562373095</speed>
  <fix>3d</fix>
</trkpt>
<trkpt lat="33.810313" lon="-118.393867">
  <ele>-0.12</ele>
  <time>2026-09-01T01:13:07Z</time>
  <course>0.0</course>
  <speed>0.0</speed>
  <fix>3d</fix>
</trkpt>
<trkpt lat="33.810313" lon="-118.393867">
  <ele>-0.131</ele>
  <time>2026-09-01T01:13:07Z</time>
  <course>188.07</course>
  <speed>0.022360679774997897</speed>
  <fix>3d</fix>
</trkpt>
<trkpt lat="33.810313" lon="-118.393867">
  <ele>-0.12</ele>
  <time>2026-09-01T01:13:07Z</time>
  <course>0.0</course>
  <speed>0.0</speed>
  <fix>3d</fix>
</trkpt>
<trkpt lat="33.810313" lon="-118.393867">
  <ele>-0.128</ele>
  <time>2026-09-01T01:13:07Z</time>
  <course>188.07</course>
  <speed>0.022360679774997897</speed>
  <fix>3d</fix>
</trkpt>
<trkpt lat="33.810313" lon="-118.393867">
  <ele>-0.12</ele>
  <time>2026-09-01T01:13:07Z</time>
  <course>0.0</course>
  <speed>0.0</speed>
  <fix>3d</fix>
</trkpt>
<trkpt lat="33.810313" lon="-118.393867">
  <ele>-0.127</ele>
  <time>2026-09-01T01:13:07Z</time>
  <course>188.06</course>
  <speed>0.022360679774997897</speed>
  <fix>3d</fix>
</trkpt>
<trkpt lat="33.810313" lon="-118.393867">
  <ele>-0.12</ele>
  <time>2026-09-01T01:13:07Z</time>
  <course>0.0</course>
  <speed>0.0</speed>
  <fix>3d</fix>
</trkpt>
<trkpt lat="33.810313" lon="-118.393867">
  <ele>-0.126</ele>
  <time>2026-09-01T01:13:07Z</time>
  <course>188.05</course>
  <speed>0.022360679774997897</speed>
  <fix>3d</fix>
</trkpt>
<trkpt lat="33.810313" lon="-118.393867">
  <ele>-0.12</ele>
  <time>2026-09-01T01:13:07Z</time>
  <course>0.0</course>
  <speed>0.0</speed>
  <fix>3d</fix>
</trkpt>
<trkpt lat="33.810313" lon="-118.393867">
  <ele>-0.126</ele>
  <time>2026-09-01T01:13:07Z</time>
  <course>188.04</course>
  <speed>0.022360679774997897</speed>
  <fix>3d</fix>
</trkpt>
<trkpt lat="33.810313" lon="-118.393867">
  <ele>-0.12</ele>
  <time>2026-09-01T01:13:07Z</time>
  <course>0.0</course>
  <speed>0.0</speed>
  <fix>3d</fix>
</trkpt>
<trkpt lat="33.810313" lon="-118.393867">
  <ele>-0.127</ele>
  <time>2026-09-01T01:13:07Z</time>
  <course>188.03</course>
  <speed>0.022360679774997897</speed>
  <fix>3d</fix>
</trkpt>
<trkpt lat="33.810313" lon="-118.393867">
  <ele>-0.12</ele>
  <time>2026-09-01T01:13:07Z</time>
  <course>0.0</course>
  <speed>0.0</speed>
  <fix>3d</fix>
</trkpt>
<trkpt lat="33.810313" lon="-118.393867">
  <ele>-0.127</ele>
  <time>2026-09-01T01:13:07Z</time>
  <course>188.03</course>
  <speed>0.022360679774997897</speed>
  <fix>3d</fix>
</trkpt>
<trkpt lat="33.810313" lon="-118.393867">
  <ele>-0.12</ele>
  <time>2026-09-01T01:13:07Z</time>
  <course>0.0</course>
  <speed>0.0</speed>
  <fix>3d</fix>
</trkpt>
<trkpt lat="33.810313" lon="-118.393867">
  <ele>-0.127</ele>
  <time>2026-09-01T01:13:07Z</time>
  <course>188.02</course>
  <speed>0.022360679774997897</speed>
  <fix>3d</fix>
</trkpt>
<trkpt lat="33.810313" lon="-118.393867">
  <ele>-0.12</ele>
  <time>2026-09-01T01:13:07Z</time>
  <course>0.0</course>
  <speed>0.0</speed>
  <fix>3d</fix>
</trkpt>
<trkpt lat="33.810313" lon="-118.393867">
  <ele>-0.128</ele>
  <time>2026-09-01T01:13:07Z</time>
  <course>188.01</course>
  <speed>0.022360679774997897</speed>
  <fix>3d</fix>
</trkpt>
<trkpt lat="33.810313" lon="-118.393867">
  <ele>-0.12</ele>
  <time>2026-09-01T01:13:07Z</time>
  <course>0.0</course>
  <speed>0.0</speed>
  <fix>3d</fix>
</trkpt>
<trkpt lat="33.810313" lon="-118.393867">
  <ele>-0.128</ele>
  <time>2026-09-01T01:13:07Z</time>
  <course>188.0</course>
  <speed>0.022360679774997897</speed>
  <fix>3d</fix>
</trkpt>
<trkpt lat="33.810313" lon="-118.393867">
  <ele>-0.12</ele>
  <time>2026-09-01T01:13:07Z</time>
  <course>0.0</course>
  <speed>0.0</speed>
  <fix>3d</fix>
</trkpt>
<trkpt lat="33.810313" lon="-118.393867">
  <ele>-0.128</ele>
  <time>2026-09-01T01:13:07Z</time>
  <course>187.99</course>
  <speed>0.022360679774997897</speed>
  <fix>3d</fix>
</trkpt>
<trkpt lat="33.810313" lon="-118.393867">
  <ele>-0.12</ele>
  <time>2026-09-01T01:13:07Z</time>
  <course>0.0</course>
  <speed>0.0</speed>
  <fix>3d</fix>
</trkpt>
<trkpt lat="33.810313" lon="-118.393867">
  <ele>-0.126</ele>
  <time>2026-09-01T01:13:07Z</time>
  <course>187.99</course>
  <speed>0.022360679774997897</speed>
  <fix>3d</fix>
</trkpt>
<trkpt lat="33.810313" lon="-118.393867">
  <ele>-0.12</ele>
  <time>2026-09-01T01:13:07Z</time>
  <course>0.0</course>
  <speed>0.0</speed>
  <fix>3d</fix>
</trkpt>
<trkpt lat="33.810313" lon="-118.393867">
  <ele>-0.124</ele>
  <time>2026-09-01T01:13:07Z</time>
  <course>187.98</course>
  <speed>0.022360679774997897</speed>
  <fix>3d</fix>
</trkpt>
<trkpt lat="33.810313" lon="-118.393867">
  <ele>-0.12</ele>
  <time>2026-09-01T01:13:07Z</time>
  <course>0.0</course>
  <speed>0.0</speed>
  <fix>3d</fix>
</trkpt>
<trkpt lat="33.810313" lon="-118.393867">
  <ele>-0.122</ele>
  <time>2026-09-01T01:13:07Z</time>
  <course>187.97</course>
  <speed>0.022360679774997897</speed>
  <fix>3d</fix>
</trkpt>
<trkpt lat="33.810313" lon="-118.393867">
  <ele>-0.12</ele>
  <time>2026-09-01T01:13:07Z</time>
  <course>0.0</course>
  <speed>0.0</speed>
  <fix>3d</fix>
</trkpt>
<trkpt lat="33.810313" lon="-118.393867">
  <ele>-0.12</ele>
  <time>2026-09-01T01:13:07Z</time>
  <course>187.96</course>
  <speed>0.022360679774997897</speed>
  <fix>3d</fix>
</trkpt>
<trkpt lat="33.810313" lon="-118.393867">
  <ele>-0.12</ele>
  <time>2026-09-01T01:13:07Z</time>
  <course>0.0</course>
  <speed>0.0</speed>
  <fix>3d</fix>
</trkpt>
<trkpt lat="33.810313" lon="-118.393867">
  <ele>-0.12</ele>
  <time>2026-09-01T01:13:07Z</time>
  <course>187.95</course>
  <speed>0.022360679774997897</speed>
  <fix>3d</fix>
</trkpt>
<trkpt lat="33.810313" lon="-118.393867">
  <ele>-0.12</ele>
  <time>2026-09-01T01:13:07Z</time>
  <course>0.0</course>
  <speed>0.0</speed>
  <fix>3d</fix>
</trkpt>
<trkpt lat="33.810313" lon="-118.393867">
  <ele>-0.122</ele>
  <time>2026-09-01T01:13:07Z</time>
  <course>187.94</course>
  <speed>0.022360679774997897</speed>
  <fix>3d</fix>
</trkpt>
<trkpt lat="33.810313" lon="-118.393867">
  <ele>-0.12</ele>
  <time>2026-09-01T01:13:07Z</time>
  <course>0.0</course>
  <speed>0.0</speed>
  <fix>3d</fix>
</trkpt>
<trkpt lat="33.810313" lon="-118.393867">
  <ele>-0.125</ele>
  <time>2026-09-01T01:13:07Z</time>
  <course>187.94</course>
  <speed>0.022360679774997897</speed>
  <fix>3d</fix>
</trkpt>
<trkpt lat="33.810313" lon="-118.393867">
  <ele>-0.12</ele>
  <time>2026-09-01T01:13:07Z</time>
  <course>0.0</course>
  <speed>0.0</speed>
  <fix>3d</fix>
</trkpt>
<trkpt lat="33.810313" lon="-118.393867">
  <ele>-0.128</ele>
  <time>2026-09-01T01:13:07Z</time>
  <course>187.93</course>
  <speed>0.022360679774997897</speed>
  <fix>3d</fix>
</trkpt>
<trkpt lat="33.810313" lon="-118.393867">
  <ele>-0.12</ele>
  <time>2026-09-01T01:13:07Z</time>
  <course>0.0</course>
  <speed>0.0</speed>
  <fix>3d</fix>
</trkpt>
<trkpt lat="33.810313" lon="-118.393867">
  <ele>-0.131</ele>
  <time>2026-09-01T01:13:07Z</time>
  <course>187.92</course>
  <speed>0.022360679774997897</speed>
  <fix>3d</fix>
</trkpt>
<trkpt lat="33.810313" lon="-118.393867">
  <ele>-0.12</ele>
  <time>2026-09-01T01:13:07Z</time>
  <course>0.0</course>
  <speed>0.0</speed>
  <fix>3d</fix>
</trkpt>
<trkpt lat="33.810313" lon="-118.393867">
  <ele>-0.132</ele>
  <time>2026-09-01T01:13:08Z</time>
  <course>187.91</course>
  <speed>0.022360679774997897</speed>
  <fix>3d</fix>
</trkpt>
<trkpt lat="33.810313" lon="-118.393867">
  <ele>-0.12</ele>
  <time>2026-09-01T01:13:08Z</time>
  <course>0.0</course>
  <speed>0.0</speed>
  <fix>3d</fix>
</trkpt>
<trkpt lat="33.810313" lon="-118.393867">
  <ele>-0.132</ele>
  <time>2026-09-01T01:13:08Z</time>
  <course>187.91</course>
  <speed>0.022360679774997897</speed>
  <fix>3d</fix>
</trkpt>
<trkpt lat="33.810313" lon="-118.393867">
  <ele>-0.12</ele>
  <time>2026-09-01T01:13:08Z</time>
  <course>0.0</course>
  <speed>0.0</speed>
  <fix>3d</fix>
</trkpt>
<trkpt lat="33.810313" lon="-118.393867">
  <ele>-0.132</ele>
  <time>2026-09-01T01:13:08Z</time>
  <course>187.9</course>
  <speed>0.022360679774997897</speed>
  <fix>3d</fix>
</trkpt>
<trkpt lat="33.810313" lon="-118.393867">
  <ele>-0.12</ele>
  <time>2026-09-01T01:13:08Z</time>
  <course>0.0</course>
  <speed>0.0</speed>
  <fix>3d</fix>
</trkpt>
<trkpt lat="33.810313" lon="-118.393867">
  <ele>-0.13</ele>
  <time>2026-09-01T01:13:08Z</time>
  <course>187.89</course>
  <speed>0.022360679774997897</speed>
  <fix>3d</fix>
</trkpt>
<trkpt lat="33.810313" lon="-118.393867">
  <ele>-0.12</ele>
  <time>2026-09-01T01:13:08Z</time>
  <course>0.0</course>
  <speed>0.0</speed>
  <fix>3d</fix>
</trkpt>
<trkpt lat="33.810313" lon="-118.393867">
  <ele>-0.127</ele>
  <time>2026-09-01T01:13:08Z</time>
  <course>187.88</course>
  <speed>0.022360679774997897</speed>
  <fix>3d</fix>
</trkpt>
<trkpt lat="33.810313" lon="-118.393867">
  <ele>-0.12</ele>
  <time>2026-09-01T01:13:08Z</time>
  <course>0.0</course>
  <speed>0.0</speed>
  <fix>3d</fix>
</trkpt>
<trkpt lat="33.810313" lon="-118.393867">
  <ele>-0.123</ele>
  <time>2026-09-01T01:13:08Z</time>
  <course>187.87</course>
  <speed>0.022360679774997897</speed>
  <fix>3d</fix>
</trkpt>
<trkpt lat="33.810313" lon="-118.393867">
  <ele>-0.12</ele>
  <time>2026-09-01T01:13:08Z</time>
  <course>0.0</course>
  <speed>0.0</speed>
  <fix>3d</fix>
</trkpt>
<trkpt lat="33.810313" lon="-118.393867">
  <ele>-0.121</ele>
  <time>2026-09-01T01:13:08Z</time>
  <course>187.87</course>
  <speed>0.022360679774997897</speed>
  <fix>3d</fix>
</trkpt>
<trkpt lat="33.810313" lon="-118.393867">
  <ele>-0.12</ele>
  <time>2026-09-01T01:13:08Z</time>
  <course>0.0</course>
  <speed>0.0</speed>
  <fix>3d</fix>
</trkpt>
<trkpt lat="33.810313" lon="-118.393867">
  <ele>-0.121</ele>
  <time>2026-09-01T01:13:08Z</time>
  <course>187.86</course>
  <speed>0.022360679774997897</speed>
  <fix>3d</fix>
</trkpt>
<trkpt lat="33.810313" lon="-118.393867">
  <ele>-0.12</ele>
  <time>2026-09-01T01:13:08Z</time>
  <course>0.0</course>
  <speed>0.0</speed>
  <fix>3d</fix>
</trkpt>
<trkpt lat="33.810313" lon="-118.393867">
  <ele>-0.123</ele>
  <time>2026-09-01T01:13:08Z</time>
  <course>187.85</course>
  <speed>0.022360679774997897</speed>
  <fix>3d</fix>
</trkpt>
<trkpt lat="33.810313" lon="-118.393867">
  <ele>-0.12</ele>
  <time>2026-09-01T01:13:08Z</time>
  <course>0.0</course>
  <speed>0.0</speed>
  <fix>3d</fix>
</trkpt>
<trkpt lat="33.810313" lon="-118.393867">
  <ele>-0.124</ele>
  <time>2026-09-01T01:13:08Z</time>
  <course>187.84</course>
  <speed>0.022360679774997897</speed>
  <fix>3d</fix>
</trkpt>
<trkpt lat="33.810313" lon="-118.393867">
  <ele>-0.12</ele>
  <time>2026-09-01T01:13:08Z</time>
  <course>0.0</course>
  <speed>0.0</speed>
  <fix>3d</fix>
</trkpt>
<trkpt lat="33.810313" lon="-118.393867">
  <ele>-0.126</ele>
  <time>2026-09-01T01:13:08Z</time>
  <course>187.83</course>
  <speed>0.022360679774997897</speed>
  <fix>3d</fix>
</trkpt>
<trkpt lat="33.810313" lon="-118.393867">
  <ele>-0.12</ele>
  <time>2026-09-01T01:13:08Z</time>
  <course>0.0</course>
  <speed>0.0</speed>
  <fix>3d</fix>
</trkpt>
<trkpt lat="33.810313" lon="-118.393867">
  <ele>-0.127</ele>
  <time>2026-09-01T01:13:08Z</time>
  <course>187.83</course>
  <speed>0.022360679774997897</speed>
  <fix>3d</fix>
</trkpt>
<trkpt lat="33.810313" lon="-118.393867">
  <ele>-0.12</ele>
  <time>2026-09-01T01:13:08Z</time>
  <course>0.0</course>
  <speed>0.0</speed>
  <fix>3d</fix>
</trkpt>
<trkpt lat="33.810313" lon="-118.393867">
  <ele>-0.127</ele>
  <time>2026-09-01T01:13:08Z</time>
  <course>187.82</course>
  <speed>0.022360679774997897</speed>
  <fix>3d</fix>
</trkpt>
<trkpt lat="33.810313" lon="-118.393867">
  <ele>-0.12</ele>
  <time>2026-09-01T01:13:08Z</time>
  <course>0.0</course>
  <speed>0.0</speed>
  <fix>3d</fix>
</trkpt>
<trkpt lat="33.810313" lon="-118.393867">
  <ele>-0.127</ele>
  <time>2026-09-01T01:13:08Z</time>
  <course>187.81</course>
  <speed>0.022360679774997897</speed>
  <fix>3d</fix>
</trkpt>
<trkpt lat="33.810313" lon="-118.393867">
  <ele>-0.12</ele>
  <time>2026-09-01T01:13:08Z</time>
  <course>0.0</course>
  <speed>0.0</speed>
  <fix>3d</fix>
</trkpt>
<trkpt lat="33.810313" lon="-118.393867">
  <ele>-0.126</ele>
  <time>2026-09-01T01:13:08Z</time>
  <course>187.8</course>
  <speed>0.022360679774997897</speed>
  <fix>3d</fix>
</trkpt>
<trkpt lat="33.810313" lon="-118.393867">
  <ele>-0.12</ele>
  <time>2026-09-01T01:13:08Z</time>
  <course>0.0</course>
  <speed>0.0</speed>
  <fix>3d</fix>
</trkpt>
<trkpt lat="33.810313" lon="-118.393867">
  <ele>-0.124</ele>
  <time>2026-09-01T01:13:08Z</time>
  <course>187.8</course>
  <speed>0.022360679774997897</speed>
  <fix>3d</fix>
</trkpt>
<trkpt lat="33.810313" lon="-118.393867">
  <ele>-0.12</ele>
  <time>2026-09-01T01:13:08Z</time>
  <course>0.0</course>
  <speed>0.0</speed>
  <fix>3d</fix>
</trkpt>
<trkpt lat="33.810313" lon="-118.393867">
  <ele>-0.121</ele>
  <time>2026-09-01T01:13:08Z</time>
  <course>187.79</course>
  <speed>0.022360679774997897</speed>
  <fix>3d</fix>
</trkpt>
<trkpt lat="33.810313" lon="-118.393867">
  <ele>-0.12</ele>
  <time>2026-09-01T01:13:08Z</time>
  <course>0.0</course>
  <speed>0.0</speed>
  <fix>3d</fix>
</trkpt>
<trkpt lat="33.810313" lon="-118.393867">
  <ele>-0.119</ele>
  <time>2026-09-01T01:13:08Z</time>
  <course>187.78</course>
  <speed>0.022360679774997897</speed>
  <fix>3d</fix>
</trkpt>
<trkpt lat="33.810313" lon="-118.393867">
  <ele>-0.12</ele>
  <time>2026-09-01T01:13:08Z</time>
  <course>0.0</course>
  <speed>0.0</speed>
  <fix>3d</fix>
</trkpt>
<trkpt lat="33.810313" lon="-118.393867">
  <ele>-0.118</ele>
  <time>2026-09-01T01:13:08Z</time>
  <course>187.77</course>
  <speed>0.022360679774997897</speed>
  <fix>3d</fix>
</trkpt>
<trkpt lat="33.810313" lon="-118.393867">
  <ele>-0.12</ele>
  <time>2026-09-01T01:13:08Z</time>
  <course>0.0</course>
  <speed>0.0</speed>
  <fix>3d</fix>
</trkpt>
<trkpt lat="33.810313" lon="-118.393867">
  <ele>-0.118</ele>
  <time>2026-09-01T01:13:08Z</time>
  <course>187.77</course>
  <speed>0.022360679774997897</speed>
  <fix>3d</fix>
</trkpt>
<trkpt lat="33.810313" lon="-118.393867">
  <ele>-0.12</ele>
  <time>2026-09-01T01:13:08Z</time>
  <course>0.0</course>
  <speed>0.0</speed>
  <fix>3d</fix>
</trkpt>
<trkpt lat="33.810313" lon="-118.393867">
  <ele>-0.119</ele>
  <time>2026-09-01T01:13:08Z</time>
  <course>187.76</course>
  <speed>0.022360679774997897</speed>
  <fix>3d</fix>
</trkpt>
<trkpt lat="33.810313" lon="-118.393867">
  <ele>-0.12</ele>
  <time>2026-09-01T01:13:08Z</time>
  <course>0.0</course>
  <speed>0.0</speed>
  <fix>3d</fix>
</trkpt>
<trkpt lat="33.810313" lon="-118.393867">
  <ele>-0.12</ele>
  <time>2026-09-01T01:13:08Z</time>
  <course>187.75</course>
  <speed>0.022360679774997897</speed>
  <fix>3d</fix>
</trkpt>
<trkpt lat="33.810313" lon="-118.393867">
  <ele>-0.12</ele>
  <time>2026-09-01T01:13:08Z</time>
  <course>0.0</course>
  <speed>0.0</speed>
  <fix>3d</fix>
</trkpt>
<trkpt lat="33.810313" lon="-118.393867">
  <ele>-0.12</ele>
  <time>2026-09-01T01:13:08Z</time>
  <course>187.74</course>
  <speed>0.0282842712474619</speed>
  <fix>3d</fix>
</trkpt>
<trkpt lat="33.810313" lon="-118.393867">
  <ele>-0.12</ele>
  <time>2026-09-01T01:13:08Z</time>
  <course>0.0</course>
  <speed>0.0</speed>
  <fix>3d</fix>
</trkpt>
<trkpt lat="33.810313" lon="-118.393867">
  <ele>-0.12</ele>
  <time>2026-09-01T01:13:08Z</time>
  <course>187.74</course>
  <speed>0.0282842712474619</speed>
  <fix>3d</fix>
</trkpt>
<trkpt lat="33.810313" lon="-118.393867">
  <ele>-0.12</ele>
  <time>2026-09-01T01:13:08Z</time>
  <course>0.0</course>
  <speed>0.0</speed>
  <fix>3d</fix>
</trkpt>
<trkpt lat="33.810313" lon="-118.393867">
  <ele>-0.119</ele>
  <time>2026-09-01T01:13:08Z</time>
  <course>187.73</course>
  <speed>0.0282842712474619</speed>
  <fix>3d</fix>
</trkpt>
<trkpt lat="33.810313" lon="-118.393867">
  <ele>-0.12</ele>
  <time>2026-09-01T01:13:08Z</time>
  <course>0.0</course>
  <speed>0.0</speed>
  <fix>3d</fix>
</trkpt>
<trkpt lat="33.810313" lon="-118.393867">
  <ele>-0.118</ele>
  <time>2026-09-01T01:13:08Z</time>
  <course>187.72</course>
  <speed>0.0282842712474619</speed>
  <fix>3d</fix>
</trkpt>
<trkpt lat="33.810313" lon="-118.393867">
  <ele>-0.12</ele>
  <time>2026-09-01T01:13:08Z</time>
  <course>0.0</course>
  <speed>0.0</speed>
  <fix>3d</fix>
</trkpt>
<trkpt lat="33.810313" lon="-118.393867">
  <ele>-0.116</ele>
  <time>2026-09-01T01:13:08Z</time>
  <course>187.71</course>
  <speed>0.0282842712474619</speed>
  <fix>3d</fix>
</trkpt>
<trkpt lat="33.810313" lon="-118.393867">
  <ele>-0.12</ele>
  <time>2026-09-01T01:13:08Z</time>
  <course>0.0</course>
  <speed>0.0</speed>
  <fix>3d</fix>
</trkpt>
<trkpt lat="33.810313" lon="-118.393867">
  <ele>-0.114</ele>
  <time>2026-09-01T01:13:08Z</time>
  <course>187.71</course>
  <speed>0.0282842712474619</speed>
  <fix>3d</fix>
</trkpt>
<trkpt lat="33.810313" lon="-118.393867">
  <ele>-0.12</ele>
  <time>2026-09-01T01:13:08Z</time>
  <course>0.0</course>
  <speed>0.0</speed>
  <fix>3d</fix>
</trkpt>
<trkpt lat="33.810313" lon="-118.393867">
  <ele>-0.112</ele>
  <time>2026-09-01T01:13:08Z</time>
  <course>187.7</course>
  <speed>0.0282842712474619</speed>
  <fix>3d</fix>
</trkpt>
<trkpt lat="33.810313" lon="-118.393867">
  <ele>-0.12</ele>
  <time>2026-09-01T01:13:08Z</time>
  <course>0.0</course>
  <speed>0.0</speed>
  <fix>3d</fix>
</trkpt>
<trkpt lat="33.810313" lon="-118.393867">
  <ele>-0.113</ele>
  <time>2026-09-01T01:13:08Z</time>
  <course>187.69</course>
  <speed>0.0282842712474619</speed>
  <fix>3d</fix>
</trkpt>
<trkpt lat="33.810313" lon="-118.393867">
  <ele>-0.12</ele>
  <time>2026-09-01T01:13:08Z</time>
  <course>0.0</course>
  <speed>0.0</speed>
  <fix>3d</fix>
</trkpt>
<trkpt lat="33.810313" lon="-118.393867">
  <ele>-0.115</ele>
  <time>2026-09-01T01:13:08Z</time>
  <course>187.69</course>
  <speed>0.0282842712474619</speed>
  <fix>3d</fix>
</trkpt>
<trkpt lat="33.810313" lon="-118.393867">
  <ele>-0.12</ele>
  <time>2026-09-01T01:13:08Z</time>
  <course>0.0</course>
  <speed>0.0</speed>
  <fix>3d</fix>
</trkpt>
<trkpt lat="33.810313" lon="-118.393867">
  <ele>-0.119</ele>
  <time>2026-09-01T01:13:08Z</time>
  <course>187.68</course>
  <speed>0.0282842712474619</speed>
  <fix>3d</fix>
</trkpt>
<trkpt lat="33.810313" lon="-118.393867">
  <ele>-0.12</ele>
  <time>2026-09-01T01:13:08Z</time>
  <course>0.0</course>
  <speed>0.0</speed>
  <fix>3d</fix>
</trkpt>
<trkpt lat="33.810313" lon="-118.393867">
  <ele>-0.123</ele>
  <time>2026-09-01T01:13:08Z</time>
  <course>187.67</course>
  <speed>0.0282842712474619</speed>
  <fix>3d</fix>
</trkpt>
<trkpt lat="33.810313" lon="-118.393867">
  <ele>-0.12</ele>
  <time>2026-09-01T01:13:08Z</time>
  <course>0.0</course>
  <speed>0.0</speed>
  <fix>3d</fix>
</trkpt>
<trkpt lat="33.810313" lon="-118.393867">
  <ele>-0.128</ele>
  <time>2026-09-01T01:13:08Z</time>
  <course>187.66</course>
  <speed>0.0282842712474619</speed>
  <fix>3d</fix>
</trkpt>
<trkpt lat="33.810313" lon="-118.393867">
  <ele>-0.12</ele>
  <time>2026-09-01T01:13:08Z</time>
  <course>0.0</course>
  <speed>0.0</speed>
  <fix>3d</fix>
</trkpt>
<trkpt lat="33.810313" lon="-118.393867">
  <ele>-0.132</ele>
  <time>2026-09-01T01:13:08Z</time>
  <course>187.66</course>
  <speed>0.0282842712474619</speed>
  <fix>3d</fix>
</trkpt>
<trkpt lat="33.810313" lon="-118.393867">
  <ele>-0.12</ele>
  <time>2026-09-01T01:13:08Z</time>
  <course>0.0</course>
  <speed>0.0</speed>
  <fix>3d</fix>
</trkpt>
<trkpt lat="33.810313" lon="-118.393867">
  <ele>-0.134</ele>
  <time>2026-09-01T01:13:08Z</time>
  <course>187.65</course>
  <speed>0.0282842712474619</speed>
  <fix>3d</fix>
</trkpt>
<trkpt lat="33.810313" lon="-118.393867">
  <ele>-0.12</ele>
  <time>2026-09-01T01:13:08Z</time>
  <course>0.0</course>
  <speed>0.0</speed>
  <fix>3d</fix>
</trkpt>
<trkpt lat="33.810313" lon="-118.393867">
  <ele>-0.135</ele>
  <time>2026-09-01T01:13:08Z</time>
  <course>187.64</course>
  <speed>0.0282842712474619</speed>
  <fix>3d</fix>
</trkpt>
<trkpt lat="33.810313" lon="-118.393867">
  <ele>-0.12</ele>
  <time>2026-09-01T01:13:08Z</time>
  <course>0.0</course>
  <speed>0.0</speed>
  <fix>3d</fix>
</trkpt>
<trkpt lat="33.810313" lon="-118.393867">
  <ele>-0.135</ele>
  <time>2026-09-01T01:13:08Z</time>
  <course>187.64</course>
  <speed>0.0282842712474619</speed>
  <fix>3d</fix>
</trkpt>
<trkpt lat="33.810313" lon="-118.393867">
  <ele>-0.12</ele>
  <time>2026-09-01T01:13:08Z</time>
  <course>0.0</course>
  <speed>0.0</speed>
  <fix>3d</fix>
</trkpt>
<trkpt lat="33.810313" lon="-118.393867">
  <ele>-0.133</ele>
  <time>2026-09-01T01:13:08Z</time>
  <course>187.63</course>
  <speed>0.0282842712474619</speed>
  <fix>3d</fix>
</trkpt>
<trkpt lat="33.810313" lon="-118.393867">
  <ele>-0.12</ele>
  <time>2026-09-01T01:13:08Z</time>
  <course>0.0</course>
  <speed>0.0</speed>
  <fix>3d</fix>
</trkpt>
<trkpt lat="33.810313" lon="-118.393867">
  <ele>-0.132</ele>
  <time>2026-09-01T01:13:08Z</time>
  <course>187.63</course>
  <speed>0.0282842712474619</speed>
  <fix>3d</fix>
</trkpt>
<trkpt lat="33.810313" lon="-118.393867">
  <ele>-0.12</ele>
  <time>2026-09-01T01:13:08Z</time>
  <course>0.0</course>
  <speed>0.0</speed>
  <fix>3d</fix>
</trkpt>
<trkpt lat="33.810313" lon="-118.393867">
  <ele>-0.132</ele>
  <time>2026-09-01T01:13:08Z</time>
  <course>187.62</course>
  <speed>0.03605551275463989</speed>
  <fix>3d</fix>
</trkpt>
<trkpt lat="33.810313" lon="-118.393867">
  <ele>-0.12</ele>
  <time>2026-09-01T01:13:08Z</time>
  <course>0.0</course>
  <speed>0.0</speed>
  <fix>3d</fix>
</trkpt>
<trkpt lat="33.810313" lon="-118.393867">
  <ele>-0.132</ele>
  <time>2026-09-01T01:13:08Z</time>
  <course>187.61</course>
  <speed>0.03605551275463989</speed>
  <fix>3d</fix>
</trkpt>
<trkpt lat="33.810313" lon="-118.393867">
  <ele>-0.12</ele>
  <time>2026-09-01T01:13:08Z</time>
  <course>0.0</course>
  <speed>0.0</speed>
  <fix>3d</fix>
</trkpt>
<trkpt lat="33.810313" lon="-118.393867">
  <ele>-0.133</ele>
  <time>2026-09-01T01:13:08Z</time>
  <course>187.61</course>
  <speed>0.03605551275463989</speed>
  <fix>3d</fix>
</trkpt>
<trkpt lat="33.810313" lon="-118.393867">
  <ele>-0.12</ele>
  <time>2026-09-01T01:13:08Z</time>
  <course>0.0</course>
  <speed>0.0</speed>
  <fix>3d</fix>
</trkpt>
<trkpt lat="33.810313" lon="-118.393867">
  <ele>-0.134</ele>
  <time>2026-09-01T01:13:08Z</time>
  <course>187.6</course>
  <speed>0.03605551275463989</speed>
  <fix>3d</fix>
</trkpt>
<trkpt lat="33.810313" lon="-118.393867">
  <ele>-0.12</ele>
  <time>2026-09-01T01:13:08Z</time>
  <course>0.0</course>
  <speed>0.0</speed>
  <fix>3d</fix>
</trkpt>
<trkpt lat="33.810313" lon="-118.393867">
  <ele>-0.133</ele>
  <time>2026-09-01T01:13:08Z</time>
  <course>187.59</course>
  <speed>0.03605551275463989</speed>
  <fix>3d</fix>
</trkpt>
<trkpt lat="33.810313" lon="-118.393867">
  <ele>-0.12</ele>
  <time>2026-09-01T01:13:08Z</time>
  <course>0.0</course>
  <speed>0.0</speed>
  <fix>3d</fix>
</trkpt>
<trkpt lat="33.810313" lon="-118.393867">
  <ele>-0.132</ele>
  <time>2026-09-01T01:13:08Z</time>
  <course>187.59</course>
  <speed>0.03605551275463989</speed>
  <fix>3d</fix>
</trkpt>
<trkpt lat="33.810313" lon="-118.393867">
  <ele>-0.12</ele>
  <time>2026-09-01T01:13:08Z</time>
  <course>0.0</course>
  <speed>0.0</speed>
  <fix>3d</fix>
</trkpt>
<trkpt lat="33.810313" lon="-118.393867">
  <ele>-0.13</ele>
  <time>2026-09-01T01:13:08Z</time>
  <course>187.58</course>
  <speed>0.03605551275463989</speed>
  <fix>3d</fix>
</trkpt>
<trkpt lat="33.810313" lon="-118.393867">
  <ele>-0.12</ele>
  <time>2026-09-01T01:13:08Z</time>
  <course>0.0</course>
  <speed>0.0</speed>
  <fix>3d</fix>
</trkpt>
<trkpt lat="33.810313" lon="-118.393867">
  <ele>-0.127</ele>
  <time>2026-09-01T01:13:08Z</time>
  <course>187.57</course>
  <speed>0.03605551275463989</speed>
  <fix>3d</fix>
</trkpt>
<trkpt lat="33.810313" lon="-118.393867">
  <ele>-0.12</ele>
  <time>2026-09-01T01:13:08Z</time>
  <course>0.0</course>
  <speed>0.0</speed>
  <fix>3d</fix>
</trkpt>
<trkpt lat="33.810313" lon="-118.393867">
  <ele>-0.125</ele>
  <time>2026-09-01T01:13:08Z</time>
  <course>187.57</course>
  <speed>0.03605551275463989</speed>
  <fix>3d</fix>
</trkpt>
<trkpt lat="33.810313" lon="-118.393867">
  <ele>-0.12</ele>
  <time>2026-09-01T01:13:08Z</time>
  <course>0.0</course>
  <speed>0.0</speed>
  <fix>3d</fix>
</trkpt>
<trkpt lat="33.810313" lon="-118.393867">
  <ele>-0.122</ele>
  <time>2026-09-01T01:13:08Z</time>
  <course>187.56</course>
  <speed>0.03605551275463989</speed>
  <fix>3d</fix>
</trkpt>
<trkpt lat="33.810313" lon="-118.393867">
  <ele>-0.12</ele>
  <time>2026-09-01T01:13:08Z</time>
  <course>0.0</course>
  <speed>0.0</speed>
  <fix>3d</fix>
</trkpt>
<trkpt lat="33.810313" lon="-118.393867">
  <ele>-0.119</ele>
  <time>2026-09-01T01:13:08Z</time>
  <course>187.55</course>
  <speed>0.03605551275463989</speed>
  <fix>3d</fix>
</trkpt>
<trkpt lat="33.810313" lon="-118.393867">
  <ele>-0.12</ele>
  <time>2026-09-01T01:13:08Z</time>
  <course>0.0</course>
  <speed>0.0</speed>
  <fix>3d</fix>
</trkpt>
<trkpt lat="33.810313" lon="-118.393867">
  <ele>-0.117</ele>
  <time>2026-09-01T01:13:08Z</time>
  <course>187.55</course>
  <speed>0.03605551275463989</speed>
  <fix>3d</fix>
</trkpt>
<trkpt lat="33.810313" lon="-118.393867">
  <ele>-0.12</ele>
  <time>2026-09-01T01:13:08Z</time>
  <course>0.0</course>
  <speed>0.0</speed>
  <fix>3d</fix>
</trkpt>
<trkpt lat="33.810313" lon="-118.393867">
  <ele>-0.117</ele>
  <time>2026-09-01T01:13:08Z</time>
  <course>187.54</course>
  <speed>0.03605551275463989</speed>
  <fix>3d</fix>
</trkpt>
<trkpt lat="33.810313" lon="-118.393867">
  <ele>-0.12</ele>
  <time>2026-09-01T01:13:08Z</time>
  <course>0.0</course>
  <speed>0.0</speed>
  <fix>3d</fix>
</trkpt>
<trkpt lat="33.810313" lon="-118.393867">
  <ele>-0.118</ele>
  <time>2026-09-01T01:13:08Z</time>
  <course>187.53</course>
  <speed>0.03605551275463989</speed>
  <fix>3d</fix>
</trkpt>
<trkpt lat="33.810313" lon="-118.393867">
  <ele>-0.12</ele>
  <time>2026-09-01T01:13:08Z</time>
  <course>0.0</course>
  <speed>0.0</speed>
  <fix>3d</fix>
</trkpt>
<trkpt lat="33.810313" lon="-118.393867">
  <ele>-0.119</ele>
  <time>2026-09-01T01:13:08Z</time>
  <course>187.53</course>
  <speed>0.03605551275463989</speed>
  <fix>3d</fix>
</trkpt>
<trkpt lat="33.810313" lon="-118.393867">
  <ele>-0.12</ele>
  <time>2026-09-01T01:13:08Z</time>
  <course>0.0</course>
  <speed>0.0</speed>
  <fix>3d</fix>
</trkpt>
<trkpt lat="33.810313" lon="-118.393867">
  <ele>-0.12</ele>
  <time>2026-09-01T01:13:08Z</time>
  <course>187.52</course>
  <speed>0.03605551275463989</speed>
  <fix>3d</fix>
</trkpt>
<trkpt lat="33.810313" lon="-118.393867">
  <ele>-0.12</ele>
  <time>2026-09-01T01:13:08Z</time>
  <course>0.0</course>
  <speed>0.0</speed>
  <fix>3d</fix>
</trkpt>
<trkpt lat="33.810313" lon="-118.393867">
  <ele>-0.121</ele>
  <time>2026-09-01T01:13:08Z</time>
  <course>187.51</course>
  <speed>0.03605551275463989</speed>
  <fix>3d</fix>
</trkpt>
<trkpt lat="33.810313" lon="-118.393867">
  <ele>-0.12</ele>
  <time>2026-09-01T01:13:08Z</time>
  <course>0.0</course>
  <speed>0.0</speed>
  <fix>3d</fix>
</trkpt>
<trkpt lat="33.810313" lon="-118.393867">
  <ele>-0.121</ele>
  <time>2026-09-01T01:13:08Z</time>
  <course>187.51</course>
  <speed>0.03605551275463989</speed>
  <fix>3d</fix>
</trkpt>
<trkpt lat="33.810313" lon="-118.393867">
  <ele>-0.12</ele>
  <time>2026-09-01T01:13:08Z</time>
  <course>0.0</course>
  <speed>0.0</speed>
  <fix>3d</fix>
</trkpt>
<trkpt lat="33.810313" lon="-118.393867">
  <ele>-0.121</ele>
  <time>2026-09-01T01:13:08Z</time>
  <course>187.5</course>
  <speed>0.03605551275463989</speed>
  <fix>3d</fix>
</trkpt>
<trkpt lat="33.810313" lon="-118.393867">
  <ele>-0.12</ele>
  <time>2026-09-01T01:13:08Z</time>
  <course>0.0</course>
  <speed>0.0</speed>
  <fix>3d</fix>
</trkpt>
<trkpt lat="33.810313" lon="-118.393867">
  <ele>-0.121</ele>
  <time>2026-09-01T01:13:08Z</time>
  <course>187.49</course>
  <speed>0.03605551275463989</speed>
  <fix>3d</fix>
</trkpt>
<trkpt lat="33.810313" lon="-118.393867">
  <ele>-0.12</ele>
  <time>2026-09-01T01:13:08Z</time>
  <course>0.0</course>
  <speed>0.0</speed>
  <fix>3d</fix>
</trkpt>
<trkpt lat="33.810313" lon="-118.393867">
  <ele>-0.121</ele>
  <time>2026-09-01T01:13:08Z</time>
  <course>187.49</course>
  <speed>0.03605551275463989</speed>
  <fix>3d</fix>
</trkpt>
<trkpt lat="33.810313" lon="-118.393867">
  <ele>-0.12</ele>
  <time>2026-09-01T01:13:08Z</time>
  <course>0.0</course>
  <speed>0.0</speed>
  <fix>3d</fix>
</trkpt>
<trkpt lat="33.810313" lon="-118.393867">
  <ele>-0.121</ele>
  <time>2026-09-01T01:13:08Z</time>
  <course>187.48</course>
  <speed>0.03605551275463989</speed>
  <fix>3d</fix>
</trkpt>
<trkpt lat="33.810313" lon="-118.393867">
  <ele>-0.12</ele>
  <time>2026-09-01T01:13:08Z</time>
  <course>0.0</course>
  <speed>0.0</speed>
  <fix>3d</fix>
</trkpt>
<trkpt lat="33.810313" lon="-118.393867">
  <ele>-0.122</ele>
  <time>2026-09-01T01:13:08Z</time>
  <course>187.47</course>
  <speed>0.03605551275463989</speed>
  <fix>3d</fix>
</trkpt>
<trkpt lat="33.810313" lon="-118.393867">
  <ele>-0.12</ele>
  <time>2026-09-01T01:13:08Z</time>
  <course>0.0</course>
  <speed>0.0</speed>
  <fix>3d</fix>
</trkpt>
<trkpt lat="33.810313" lon="-118.393867">
  <ele>-0.124</ele>
  <time>2026-09-01T01:13:08Z</time>
  <course>187.47</course>
  <speed>0.03605551275463989</speed>
  <fix>3d</fix>
</trkpt>
<trkpt lat="33.810313" lon="-118.393867">
  <ele>-0.12</ele>
  <time>2026-09-01T01:13:08Z</time>
  <course>0.0</course>
  <speed>0.0</speed>
  <fix>3d</fix>
</trkpt>
<trkpt lat="33.810313" lon="-118.393867">
  <ele>-0.127</ele>
  <time>2026-09-01T01:13:08Z</time>
  <course>187.46</course>
  <speed>0.03605551275463989</speed>
  <fix>3d</fix>
</trkpt>
<trkpt lat="33.810313" lon="-118.393867">
  <ele>-0.12</ele>
  <time>2026-09-01T01:13:08Z</time>
  <course>0.0</course>
  <speed>0.0</speed>
  <fix>3d</fix>
</trkpt>
<trkpt lat="33.810313" lon="-118.393867">
  <ele>-0.129</ele>
  <time>2026-09-01T01:13:08Z</time>
  <course>187.46</course>
  <speed>0.03605551275463989</speed>
  <fix>3d</fix>
</trkpt>
<trkpt lat="33.810313" lon="-118.393867">
  <ele>-0.12</ele>
  <time>2026-09-01T01:13:08Z</time>
  <course>0.0</course>
  <speed>0.0</speed>
  <fix>3d</fix>
</trkpt>
<trkpt lat="33.810313" lon="-118.393867">
  <ele>-0.131</ele>
  <time>2026-09-01T01:13:08Z</time>
  <course>187.45</course>
  <speed>0.03605551275463989</speed>
  <fix>3d</fix>
</trkpt>
<trkpt lat="33.810313" lon="-118.393867">
  <ele>-0.12</ele>
  <time>2026-09-01T01:13:08Z</time>
  <course>0.0</course>
  <speed>0.0</speed>
  <fix>3d</fix>
</trkpt>
<trkpt lat="33.810313" lon="-118.393867">
  <ele>-0.132</ele>
  <time>2026-09-01T01:13:08Z</time>
  <course>187.44</course>
  <speed>0.03605551275463989</speed>
  <fix>3d</fix>
</trkpt>
<trkpt lat="33.810313" lon="-118.393867">
  <ele>-0.12</ele>
  <time>2026-09-01T01:13:08Z</time>
  <course>0.0</course>
  <speed>0.0</speed>
  <fix>3d</fix>
</trkpt>
<trkpt lat="33.810313" lon="-118.393867">
  <ele>-0.132</ele>
  <time>2026-09-01T01:13:08Z</time>
  <course>187.44</course>
  <speed>0.03605551275463989</speed>
  <fix>3d</fix>
</trkpt>
<trkpt lat="33.810313" lon="-118.393867">
  <ele>-0.12</ele>
  <time>2026-09-01T01:13:08Z</time>
  <course>0.0</course>
  <speed>0.0</speed>
  <fix>3d</fix>
</trkpt>
<trkpt lat="33.810313" lon="-118.393867">
  <ele>-0.132</ele>
  <time>2026-09-01T01:13:08Z</time>
  <course>187.43</course>
  <speed>0.03605551275463989</speed>
  <fix>3d</fix>
</trkpt>
<trkpt lat="33.810313" lon="-118.393867">
  <ele>-0.12</ele>
  <time>2026-09-01T01:13:08Z</time>
  <course>0.0</course>
  <speed>0.0</speed>
  <fix>3d</fix>
</trkpt>
<trkpt lat="33.810313" lon="-118.393867">
  <ele>-0.132</ele>
  <time>2026-09-01T01:13:08Z</time>
  <course>187.42</course>
  <speed>0.03605551275463989</speed>
  <fix>3d</fix>
</trkpt>
<trkpt lat="33.810313" lon="-118.393867">
  <ele>-0.12</ele>
  <time>2026-09-01T01:13:08Z</time>
  <course>0.0</course>
  <speed>0.0</speed>
  <fix>3d</fix>
</trkpt>
<trkpt lat="33.810313" lon="-118.393867">
  <ele>-0.131</ele>
  <time>2026-09-01T01:13:08Z</time>
  <course>187.42</course>
  <speed>0.03605551275463989</speed>
  <fix>3d</fix>
</trkpt>
<trkpt lat="33.810313" lon="-118.393867">
  <ele>-0.12</ele>
  <time>2026-09-01T01:13:08Z</time>
  <course>0.0</course>
  <speed>0.0</speed>
  <fix>3d</fix>
</trkpt>
<trkpt lat="33.810313" lon="-118.393867">
  <ele>-0.131</ele>
  <time>2026-09-01T01:13:08Z</time>
  <course>187.41</course>
  <speed>0.03605551275463989</speed>
  <fix>3d</fix>
</trkpt>
<trkpt lat="33.810313" lon="-118.393867">
  <ele>-0.12</ele>
  <time>2026-09-01T01:13:08Z</time>
  <course>0.0</course>
  <speed>0.0</speed>
  <fix>3d</fix>
</trkpt>
<trkpt lat="33.810313" lon="-118.393867">
  <ele>-0.132</ele>
  <time>2026-09-01T01:13:08Z</time>
  <course>187.41</course>
  <speed>0.03605551275463989</speed>
  <fix>3d</fix>
</trkpt>
<trkpt lat="33.810313" lon="-118.393867">
  <ele>-0.12</ele>
  <time>2026-09-01T01:13:08Z</time>
  <course>0.0</course>
  <speed>0.0</speed>
  <fix>3d</fix>
</trkpt>
<trkpt lat="33.810313" lon="-118.393867">
  <ele>-0.134</ele>
  <time>2026-09-01T01:13:08Z</time>
  <course>187.4</course>
  <speed>0.03605551275463989</speed>
  <fix>3d</fix>
</trkpt>
<trkpt lat="33.810313" lon="-118.393867">
  <ele>-0.12</ele>
  <time>2026-09-01T01:13:08Z</time>
  <course>0.0</course>
  <speed>0.0</speed>
  <fix>3d</fix>
</trkpt>
<trkpt lat="33.810313" lon="-118.393867">
  <ele>-0.137</ele>
  <time>2026-09-01T01:13:08Z</time>
  <course>187.39</course>
  <speed>0.03605551275463989</speed>
  <fix>3d</fix>
</trkpt>
<trkpt lat="33.810313" lon="-118.393867">
  <ele>-0.12</ele>
  <time>2026-09-01T01:13:08Z</time>
  <course>0.0</course>
  <speed>0.0</speed>
  <fix>3d</fix>
</trkpt>
<trkpt lat="33.810313" lon="-118.393867">
  <ele>-0.139</ele>
  <time>2026-09-01T01:13:08Z</time>
  <course>187.39</course>
  <speed>0.03605551275463989</speed>
  <fix>3d</fix>
</trkpt>
<trkpt lat="33.810313" lon="-118.393867">
  <ele>-0.12</ele>
  <time>2026-09-01T01:13:08Z</time>
  <course>0.0</course>
  <speed>0.0</speed>
  <fix>3d</fix>
</trkpt>
<trkpt lat="33.810313" lon="-118.393867">
  <ele>-0.141</ele>
  <time>2026-09-01T01:13:08Z</time>
  <course>187.38</course>
  <speed>0.03605551275463989</speed>
  <fix>3d</fix>
</trkpt>
<trkpt lat="33.810313" lon="-118.393867">
  <ele>-0.12</ele>
  <time>2026-09-01T01:13:08Z</time>
  <course>0.0</course>
  <speed>0.0</speed>
  <fix>3d</fix>
</trkpt>
<trkpt lat="33.810313" lon="-118.393867">
  <ele>-0.141</ele>
  <time>2026-09-01T01:13:08Z</time>
  <course>187.38</course>
  <speed>0.03605551275463989</speed>
  <fix>3d</fix>
</trkpt>
<trkpt lat="33.810313" lon="-118.393867">
  <ele>-0.12</ele>
  <time>2026-09-01T01:13:08Z</time>
  <course>0.0</course>
  <speed>0.0</speed>
  <fix>3d</fix>
</trkpt>
<trkpt lat="33.810313" lon="-118.393867">
  <ele>-0.139</ele>
  <time>2026-09-01T01:13:08Z</time>
  <course>187.37</course>
  <speed>0.03605551275463989</speed>
  <fix>3d</fix>
</trkpt>
<trkpt lat="33.810313" lon="-118.393867">
  <ele>-0.12</ele>
  <time>2026-09-01T01:13:08Z</time>
  <course>0.0</course>
  <speed>0.0</speed>
  <fix>3d</fix>
</trkpt>
<trkpt lat="33.810313" lon="-118.393867">
  <ele>-0.136</ele>
  <time>2026-09-01T01:13:08Z</time>
  <course>187.36</course>
  <speed>0.03605551275463989</speed>
  <fix>3d</fix>
</trkpt>
<trkpt lat="33.810313" lon="-118.393867">
  <ele>-0.12</ele>
  <time>2026-09-01T01:13:08Z</time>
  <course>0.0</course>
  <speed>0.0</speed>
  <fix>3d</fix>
</trkpt>
<trkpt lat="33.810313" lon="-118.393867">
  <ele>-0.133</ele>
  <time>2026-09-01T01:13:08Z</time>
  <course>187.36</course>
  <speed>0.03605551275463989</speed>
  <fix>3d</fix>
</trkpt>
<trkpt lat="33.810313" lon="-118.393867">
  <ele>-0.12</ele>
  <time>2026-09-01T01:13:08Z</time>
  <course>0.0</course>
  <speed>0.0</speed>
  <fix>3d</fix>
</trkpt>
<trkpt lat="33.810313" lon="-118.393867">
  <ele>-0.129</ele>
  <time>2026-09-01T01:13:08Z</time>
  <course>187.35</course>
  <speed>0.03605551275463989</speed>
  <fix>3d</fix>
</trkpt>
<trkpt lat="33.810313" lon="-118.393867">
  <ele>-0.12</ele>
  <time>2026-09-01T01:13:08Z</time>
  <course>0.0</course>
  <speed>0.0</speed>
  <fix>3d</fix>
</trkpt>
<trkpt lat="33.810313" lon="-118.393867">
  <ele>-0.127</ele>
  <time>2026-09-01T01:13:08Z</time>
  <course>187.35</course>
  <speed>0.03605551275463989</speed>
  <fix>3d</fix>
</trkpt>
<trkpt lat="33.810313" lon="-118.393867">
  <ele>-0.12</ele>
  <time>2026-09-01T01:13:08Z</time>
  <course>0.0</course>
  <speed>0.0</speed>
  <fix>3d</fix>
</trkpt>
<trkpt lat="33.810313" lon="-118.393867">
  <ele>-0.127</ele>
  <time>2026-09-01T01:13:08Z</time>
  <course>187.34</course>
  <speed>0.03605551275463989</speed>
  <fix>3d</fix>
</trkpt>
<trkpt lat="33.810313" lon="-118.393867">
  <ele>-0.12</ele>
  <time>2026-09-01T01:13:08Z</time>
  <course>0.0</course>
  <speed>0.0</speed>
  <fix>3d</fix>
</trkpt>
<trkpt lat="33.810313" lon="-118.393867">
  <ele>-0.126</ele>
  <time>2026-09-01T01:13:08Z</time>
  <course>187.34</course>
  <speed>0.03605551275463989</speed>
  <fix>3d</fix>
</trkpt>
<trkpt lat="33.810313" lon="-118.393867">
  <ele>-0.12</ele>
  <time>2026-09-01T01:13:08Z</time>
  <course>0.0</course>
  <speed>0.0</speed>
  <fix>3d</fix>
</trkpt>
<trkpt lat="33.810313" lon="-118.393867">
  <ele>-0.126</ele>
  <time>2026-09-01T01:13:08Z</time>
  <course>187.33</course>
  <speed>0.03605551275463989</speed>
  <fix>3d</fix>
</trkpt>
<trkpt lat="33.810313" lon="-118.393867">
  <ele>-0.12</ele>
  <time>2026-09-01T01:13:08Z</time>
  <course>0.0</course>
  <speed>0.0</speed>
  <fix>3d</fix>
</trkpt>
<trkpt lat="33.810313" lon="-118.393867">
  <ele>-0.126</ele>
  <time>2026-09-01T01:13:08Z</time>
  <course>187.32</course>
  <speed>0.03605551275463989</speed>
  <fix>3d</fix>
</trkpt>
<trkpt lat="33.810313" lon="-118.393867">
  <ele>-0.12</ele>
  <time>2026-09-01T01:13:08Z</time>
  <course>0.0</course>
  <speed>0.0</speed>
  <fix>3d</fix>
</trkpt>
<trkpt lat="33.810313" lon="-118.393867">
  <ele>-0.126</ele>
  <time>2026-09-01T01:13:08Z</time>
  <course>187.32</course>
  <speed>0.03605551275463989</speed>
  <fix>3d</fix>
</trkpt>
<trkpt lat="33.810313" lon="-118.393867">
  <ele>-0.12</ele>
  <time>2026-09-01T01:13:08Z</time>
  <course>0.0</course>
  <speed>0.0</speed>
  <fix>3d</fix>
</trkpt>
<trkpt lat="33.810313" lon="-118.393867">
  <ele>-0.125</ele>
  <time>2026-09-01T01:13:08Z</time>
  <course>187.31</course>
  <speed>0.03605551275463989</speed>
  <fix>3d</fix>
</trkpt>
<trkpt lat="33.810313" lon="-118.393867">
  <ele>-0.12</ele>
  <time>2026-09-01T01:13:08Z</time>
  <course>0.0</course>
  <speed>0.0</speed>
  <fix>3d</fix>
</trkpt>
<trkpt lat="33.810313" lon="-118.393867">
  <ele>-0.124</ele>
  <time>2026-09-01T01:13:08Z</time>
  <course>187.31</course>
  <speed>0.03605551275463989</speed>
  <fix>3d</fix>
</trkpt>
<trkpt lat="33.810313" lon="-118.393867">
  <ele>-0.12</ele>
  <time>2026-09-01T01:13:08Z</time>
  <course>0.0</course>
  <speed>0.0</speed>
  <fix>3d</fix>
</trkpt>
<trkpt lat="33.810313" lon="-118.393867">
  <ele>-0.122</ele>
  <time>2026-09-01T01:13:08Z</time>
  <course>187.3</course>
  <speed>0.03605551275463989</speed>
  <fix>3d</fix>
</trkpt>
<trkpt lat="33.810313" lon="-118.393867">
  <ele>-0.12</ele>
  <time>2026-09-01T01:13:08Z</time>
  <course>0.0</course>
  <speed>0.0</speed>
  <fix>3d</fix>
</trkpt>
<trkpt lat="33.810313" lon="-118.393867">
  <ele>-0.121</ele>
  <time>2026-09-01T01:13:08Z</time>
  <course>187.3</course>
  <speed>0.03605551275463989</speed>
  <fix>3d</fix>
</trkpt>
<trkpt lat="33.810313" lon="-118.393867">
  <ele>-0.12</ele>
  <time>2026-09-01T01:13:08Z</time>
  <course>0.0</course>
  <speed>0.0</speed>
  <fix>3d</fix>
</trkpt>
<trkpt lat="33.810313" lon="-118.393867">
  <ele>-0.122</ele>
  <time>2026-09-01T01:13:08Z</time>
  <course>187.29</course>
  <speed>0.03605551275463989</speed>
  <fix>3d</fix>
</trkpt>
<trkpt lat="33.810313" lon="-118.393867">
  <ele>-0.12</ele>
  <time>2026-09-01T01:13:08Z</time>
  <course>0.0</course>
  <speed>0.0</speed>
  <fix>3d</fix>
</trkpt>
<trkpt lat="33.810313" lon="-118.393867">
  <ele>-0.124</ele>
  <time>2026-09-01T01:13:08Z</time>
  <course>187.28</course>
  <speed>0.03605551275463989</speed>
  <fix>3d</fix>
</trkpt>
<trkpt lat="33.810313" lon="-118.393867">
  <ele>-0.12</ele>
  <time>2026-09-01T01:13:08Z</time>
  <course>0.0</course>
  <speed>0.0</speed>
  <fix>3d</fix>
</trkpt>
<trkpt lat="33.810313" lon="-118.393867">
  <ele>-0.127</ele>
  <time>2026-09-01T01:13:08Z</time>
  <course>187.28</course>
  <speed>0.03605551275463989</speed>
  <fix>3d</fix>
</trkpt>
<trkpt lat="33.810313" lon="-118.393867">
  <ele>-0.12</ele>
  <time>2026-09-01T01:13:08Z</time>
  <course>0.0</course>
  <speed>0.0</speed>
  <fix>3d</fix>
</trkpt>
<trkpt lat="33.810313" lon="-118.393867">
  <ele>-0.13</ele>
  <time>2026-09-01T01:13:08Z</time>
  <course>187.27</course>
  <speed>0.03605551275463989</speed>
  <fix>3d</fix>
</trkpt>
<trkpt lat="33.810313" lon="-118.393867">
  <ele>-0.12</ele>
  <time>2026-09-01T01:13:08Z</time>
  <course>0.0</course>
  <speed>0.0</speed>
  <fix>3d</fix>
</trkpt>
<trkpt lat="33.810313" lon="-118.393867">
  <ele>-0.132</ele>
  <time>2026-09-01T01:13:08Z</time>
  <course>187.27</course>
  <speed>0.03605551275463989</speed>
  <fix>3d</fix>
</trkpt>
<trkpt lat="33.810313" lon="-118.393867">
  <ele>-0.12</ele>
  <time>2026-09-01T01:13:08Z</time>
  <course>0.0</course>
  <speed>0.0</speed>
  <fix>3d</fix>
</trkpt>
<trkpt lat="33.810313" lon="-118.393867">
  <ele>-0.134</ele>
  <time>2026-09-01T01:13:08Z</time>
  <course>187.26</course>
  <speed>0.03605551275463989</speed>
  <fix>3d</fix>
</trkpt>
<trkpt lat="33.810313" lon="-118.393867">
  <ele>-0.12</ele>
  <time>2026-09-01T01:13:08Z</time>
  <course>0.0</course>
  <speed>0.0</speed>
  <fix>3d</fix>
</trkpt>
<trkpt lat="33.810313" lon="-118.393867">
  <ele>-0.136</ele>
  <time>2026-09-01T01:13:08Z</time>
  <course>187.26</course>
  <speed>0.03605551275463989</speed>
  <fix>3d</fix>
</trkpt>
<trkpt lat="33.810313" lon="-118.393867">
  <ele>-0.12</ele>
  <time>2026-09-01T01:13:08Z</time>
  <course>0.0</course>
  <speed>0.0</speed>
  <fix>3d</fix>
</trkpt>
<trkpt lat="33.810313" lon="-118.393867">
  <ele>-0.136</ele>
  <time>2026-09-01T01:13:08Z</time>
  <course>187.25</course>
  <speed>0.03605551275463989</speed>
  <fix>3d</fix>
</trkpt>
<trkpt lat="33.810313" lon="-118.393867">
  <ele>-0.12</ele>
  <time>2026-09-01T01:13:08Z</time>
  <course>0.0</course>
  <speed>0.0</speed>
  <fix>3d</fix>
</trkpt>
<trkpt lat="33.810313" lon="-118.393867">
  <ele>-0.135</ele>
  <time>2026-09-01T01:13:08Z</time>
  <course>187.25</course>
  <speed>0.03605551275463989</speed>
  <fix>3d</fix>
</trkpt>
<trkpt lat="33.810313" lon="-118.393867">
  <ele>-0.12</ele>
  <time>2026-09-01T01:13:08Z</time>
  <course>0.0</course>
  <speed>0.0</speed>
  <fix>3d</fix>
</trkpt>
<trkpt lat="33.810313" lon="-118.393867">
  <ele>-0.134</ele>
  <time>2026-09-01T01:13:08Z</time>
  <course>187.24</course>
  <speed>0.03605551275463989</speed>
  <fix>3d</fix>
</trkpt>
<trkpt lat="33.810313" lon="-118.393867">
  <ele>-0.12</ele>
  <time>2026-09-01T01:13:08Z</time>
  <course>0.0</course>
  <speed>0.0</speed>
  <fix>3d</fix>
</trkpt>
<trkpt lat="33.810313" lon="-118.393867">
  <ele>-0.132</ele>
  <time>2026-09-01T01:13:08Z</time>
  <course>187.24</course>
  <speed>0.03605551275463989</speed>
  <fix>3d</fix>
</trkpt>
<trkpt lat="33.810313" lon="-118.393867">
  <ele>-0.12</ele>
  <time>2026-09-01T01:13:08Z</time>
  <course>0.0</course>
  <speed>0.0</speed>
  <fix>3d</fix>
</trkpt>
<trkpt lat="33.810313" lon="-118.393867">
  <ele>-0.131</ele>
  <time>2026-09-01T01:13:08Z</time>
  <course>187.23</course>
  <speed>0.03605551275463989</speed>
  <fix>3d</fix>
</trkpt>
<trkpt lat="33.810313" lon="-118.393867">
  <ele>-0.12</ele>
  <time>2026-09-01T01:13:08Z</time>
  <course>0.0</course>
  <speed>0.0</speed>
  <fix>3d</fix>
</trkpt>
<trkpt lat="33.810313" lon="-118.393867">
  <ele>-0.131</ele>
  <time>2026-09-01T01:13:08Z</time>
  <course>187.23</course>
  <speed>0.03605551275463989</speed>
  <fix>3d</fix>
</trkpt>
<trkpt lat="33.810313" lon="-118.393867">
  <ele>-0.12</ele>
  <time>2026-09-01T01:13:08Z</time>
  <course>0.0</course>
  <speed>0.0</speed>
  <fix>3d</fix>
</trkpt>
<trkpt lat="33.810313" lon="-118.393867">
  <ele>-0.132</ele>
  <time>2026-09-01T01:13:08Z</time>
  <course>187.22</course>
  <speed>0.03605551275463989</speed>
  <fix>3d</fix>
</trkpt>
<trkpt lat="33.810313" lon="-118.393867">
  <ele>-0.12</ele>
  <time>2026-09-01T01:13:08Z</time>
  <course>0.0</course>
  <speed>0.0</speed>
  <fix>3d</fix>
</trkpt>
<trkpt lat="33.810313" lon="-118.393867">
  <ele>-0.132</ele>
  <time>2026-09-01T01:13:08Z</time>
  <course>187.21</course>
  <speed>0.03605551275463989</speed>
  <fix>3d</fix>
</trkpt>
<trkpt lat="33.810313" lon="-118.393867">
  <ele>-0.12</ele>
  <time>2026-09-01T01:13:08Z</time>
  <course>0.0</course>
  <speed>0.0</speed>
  <fix>3d</fix>
</trkpt>
<trkpt lat="33.810313" lon="-118.393867">
  <ele>-0.133</ele>
  <time>2026-09-01T01:13:08Z</time>
  <course>187.21</course>
  <speed>0.03605551275463989</speed>
  <fix>3d</fix>
</trkpt>
<trkpt lat="33.810313" lon="-118.393867">
  <ele>-0.12</ele>
  <time>2026-09-01T01:13:08Z</time>
  <course>0.0</course>
  <speed>0.0</speed>
  <fix>3d</fix>
</trkpt>
<trkpt lat="33.810313" lon="-118.393867">
  <ele>-0.132</ele>
  <time>2026-09-01T01:13:08Z</time>
  <course>187.2</course>
  <speed>0.03605551275463989</speed>
  <fix>3d</fix>
</trkpt>
<trkpt lat="33.810313" lon="-118.393867">
  <ele>-0.12</ele>
  <time>2026-09-01T01:13:08Z</time>
  <course>0.0</course>
  <speed>0.0</speed>
  <fix>3d</fix>
</trkpt>
<trkpt lat="33.810313" lon="-118.393867">
  <ele>-0.131</ele>
  <time>2026-09-01T01:13:08Z</time>
  <course>187.2</course>
  <speed>0.03605551275463989</speed>
  <fix>3d</fix>
</trkpt>
<trkpt lat="33.810313" lon="-118.393867">
  <ele>-0.12</ele>
  <time>2026-09-01T01:13:08Z</time>
  <course>0.0</course>
  <speed>0.0</speed>
  <fix>3d</fix>
</trkpt>
<trkpt lat="33.810313" lon="-118.393867">
  <ele>-0.129</ele>
  <time>2026-09-01T01:13:08Z</time>
  <course>187.19</course>
  <speed>0.03605551275463989</speed>
  <fix>3d</fix>
</trkpt>
<trkpt lat="33.810313" lon="-118.393867">
  <ele>-0.12</ele>
  <time>2026-09-01T01:13:08Z</time>
  <course>0.0</course>
  <speed>0.0</speed>
  <fix>3d</fix>
</trkpt>
<trkpt lat="33.810313" lon="-118.393867">
  <ele>-0.126</ele>
  <time>2026-09-01T01:13:08Z</time>
  <course>187.19</course>
  <speed>0.03605551275463989</speed>
  <fix>3d</fix>
</trkpt>
<trkpt lat="33.810313" lon="-118.393867">
  <ele>-0.12</ele>
  <time>2026-09-01T01:13:08Z</time>
  <course>0.0</course>
  <speed>0.0</speed>
  <fix>3d</fix>
</trkpt>
<trkpt lat="33.810313" lon="-118.393867">
  <ele>-0.124</ele>
  <time>2026-09-01T01:13:08Z</time>
  <course>187.18</course>
  <speed>0.03605551275463989</speed>
  <fix>3d</fix>
</trkpt>
<trkpt lat="33.810313" lon="-118.393867">
  <ele>-0.12</ele>
  <time>2026-09-01T01:13:08Z</time>
  <course>0.0</course>
  <speed>0.0</speed>
  <fix>3d</fix>
</trkpt>
<trkpt lat="33.810313" lon="-118.393867">
  <ele>-0.123</ele>
  <time>2026-09-01T01:13:08Z</time>
  <course>187.18</course>
  <speed>0.03605551275463989</speed>
  <fix>3d</fix>
</trkpt>
<trkpt lat="33.810313" lon="-118.393867">
  <ele>-0.12</ele>
  <time>2026-09-01T01:13:08Z</time>
  <course>0.0</course>
  <speed>0.0</speed>
  <fix>3d</fix>
</trkpt>
<trkpt lat="33.810313" lon="-118.393867">
  <ele>-0.123</ele>
  <time>2026-09-01T01:13:08Z</time>
  <course>187.17</course>
  <speed>0.03605551275463989</speed>
  <fix>3d</fix>
</trkpt>
<trkpt lat="33.810313" lon="-118.393867">
  <ele>-0.12</ele>
  <time>2026-09-01T01:13:08Z</time>
  <course>0.0</course>
  <speed>0.0</speed>
  <fix>3d</fix>
</trkpt>
<trkpt lat="33.810313" lon="-118.393867">
  <ele>-0.122</ele>
  <time>2026-09-01T01:13:08Z</time>
  <course>187.17</course>
  <speed>0.0</speed>
  <fix>3d</fix>
</trkpt>
<trkpt lat="33.810313" lon="-118.393867">
  <ele>-0.12</ele>
  <time>2026-09-01T01:13:08Z</time>
  <course>0.0</course>
  <speed>0.0</speed>
  <fix>3d</fix>
</trkpt>
<trkpt lat="33.810313" lon="-118.393867">
  <ele>-0.121</ele>
  <time>2026-09-01T01:13:08Z</time>
  <course>187.16</course>
  <speed>0.0</speed>
  <fix>3d</fix>
</trkpt>
<trkpt lat="33.810313" lon="-118.393867">
  <ele>-0.12</ele>
  <time>2026-09-01T01:13:08Z</time>
  <course>0.0</course>
  <speed>0.0</speed>
  <fix>3d</fix>
</trkpt>
<trkpt lat="33.810313" lon="-118.393867">
  <ele>-0.121</ele>
  <time>2026-09-01T01:13:08Z</time>
  <course>187.16</course>
  <speed>0.0</speed>
  <fix>3d</fix>
</trkpt>
<trkpt lat="33.810313" lon="-118.393867">
  <ele>-0.12</ele>
  <time>2026-09-01T01:13:08Z</time>
  <course>0.0</course>
  <speed>0.0</speed>
  <fix>3d</fix>
</trkpt>
<trkpt lat="33.810313" lon="-118.393867">
  <ele>-0.119</ele>
  <time>2026-09-01T01:13:08Z</time>
  <course>187.15</course>
  <speed>0.0</speed>
  <fix>3d</fix>
</trkpt>
<trkpt lat="33.810313" lon="-118.393867">
  <ele>-0.12</ele>
  <time>2026-09-01T01:13:08Z</time>
  <course>0.0</course>
  <speed>0.0</speed>
  <fix>3d</fix>
</trkpt>
<trkpt lat="33.810313" lon="-118.393867">
  <ele>-0.116</ele>
  <time>2026-09-01T01:13:08Z</time>
  <course>187.15</course>
  <speed>0.0</speed>
  <fix>3d</fix>
</trkpt>
<trkpt lat="33.810313" lon="-118.393867">
  <ele>-0.12</ele>
  <time>2026-09-01T01:13:08Z</time>
  <course>0.0</course>
  <speed>0.0</speed>
  <fix>3d</fix>
</trkpt>
<trkpt lat="33.810313" lon="-118.393867">
  <ele>-0.114</ele>
  <time>2026-09-01T01:13:08Z</time>
  <course>187.14</course>
  <speed>0.0</speed>
  <fix>3d</fix>
</trkpt>
<trkpt lat="33.810313" lon="-118.393867">
  <ele>-0.12</ele>
  <time>2026-09-01T01:13:08Z</time>
  <course>0.0</course>
  <speed>0.0</speed>
  <fix>3d</fix>
</trkpt>
<trkpt lat="33.810313" lon="-118.393867">
  <ele>-0.113</ele>
  <time>2026-09-01T01:13:08Z</time>
  <course>187.14</course>
  <speed>0.0</speed>
  <fix>3d</fix>
</trkpt>
<trkpt lat="33.810313" lon="-118.393867">
  <ele>-0.12</ele>
  <time>2026-09-01T01:13:08Z</time>
  <course>0.0</course>
  <speed>0.0</speed>
  <fix>3d</fix>
</trkpt>
<trkpt lat="33.810313" lon="-118.393867">
  <ele>-0.112</ele>
  <time>2026-09-01T01:13:08Z</time>
  <course>187.13</course>
  <speed>0.0</speed>
  <fix>3d</fix>
</trkpt>
<trkpt lat="33.810313" lon="-118.393867">
  <ele>-0.12</ele>
  <time>2026-09-01T01:13:08Z</time>
  <course>0.0</course>
  <speed>0.0</speed>
  <fix>3d</fix>
</trkpt>
<trkpt lat="33.810313" lon="-118.393867">
  <ele>-0.113</ele>
  <time>2026-09-01T01:13:08Z</time>
  <course>187.13</course>
  <speed>0.0</speed>
  <fix>3d</fix>
</trkpt>
<trkpt lat="33.810313" lon="-118.393867">
  <ele>-0.12</ele>
  <time>2026-09-01T01:13:08Z</time>
  <course>0.0</course>
  <speed>0.0</speed>
  <fix>3d</fix>
</trkpt>
<trkpt lat="33.810313" lon="-118.393867">
  <ele>-0.114</ele>
  <time>2026-09-01T01:13:08Z</time>
  <course>187.12</course>
  <speed>0.0</speed>
  <fix>3d</fix>
</trkpt>
<trkpt lat="33.810313" lon="-118.393867">
  <ele>-0.12</ele>
  <time>2026-09-01T01:13:08Z</time>
  <course>0.0</course>
  <speed>0.0</speed>
  <fix>3d</fix>
</trkpt>
<trkpt lat="33.810313" lon="-118.393867">
  <ele>-0.116</ele>
  <time>2026-09-01T01:13:08Z</time>
  <course>187.12</course>
  <speed>0.0</speed>
  <fix>3d</fix>
</trkpt>
<trkpt lat="33.810313" lon="-118.393867">
  <ele>-0.12</ele>
  <time>2026-09-01T01:13:08Z</time>
  <course>0.0</course>
  <speed>0.0</speed>
  <fix>3d</fix>
</trkpt>
<trkpt lat="33.810313" lon="-118.393867">
  <ele>-0.119</ele>
  <time>2026-09-01T01:13:08Z</time>
  <course>187.11</course>
  <speed>0.01</speed>
  <fix>3d</fix>
</trkpt>
<trkpt lat="33.810313" lon="-118.393867">
  <ele>-0.12</ele>
  <time>2026-09-01T01:13:08Z</time>
  <course>0.0</course>
  <speed>0.0</speed>
  <fix>3d</fix>
</trkpt>
<trkpt lat="33.810313" lon="-118.393867">
  <ele>-0.12</ele>
  <time>2026-09-01T01:13:08Z</time>
  <course>187.11</course>
  <speed>0.01</speed>
  <fix>3d</fix>
</trkpt>
<trkpt lat="33.810313" lon="-118.393867">
  <ele>-0.12</ele>
  <time>2026-09-01T01:13:08Z</time>
  <course>0.0</course>
  <speed>0.0</speed>
  <fix>3d</fix>
</trkpt>
<trkpt lat="33.810313" lon="-118.393867">
  <ele>-0.121</ele>
  <time>2026-09-01T01:13:08Z</time>
  <course>187.1</course>
  <speed>0.01</speed>
  <fix>3d</fix>
</trkpt>
<trkpt lat="33.810313" lon="-118.393867">
  <ele>-0.12</ele>
  <time>2026-09-01T01:13:08Z</time>
  <course>0.0</course>
  <speed>0.0</speed>
  <fix>3d</fix>
</trkpt>
<trkpt lat="33.810313" lon="-118.393867">
  <ele>-0.122</ele>
  <time>2026-09-01T01:13:08Z</time>
  <course>187.1</course>
  <speed>0.01414213562373095</speed>
  <fix>3d</fix>
</trkpt>
<trkpt lat="33.810313" lon="-118.393867">
  <ele>-0.12</ele>
  <time>2026-09-01T01:13:08Z</time>
  <course>0.0</course>
  <speed>0.0</speed>
  <fix>3d</fix>
</trkpt>
<trkpt lat="33.810313" lon="-118.393867">
  <ele>-0.122</ele>
  <time>2026-09-01T01:13:08Z</time>
  <course>187.1</course>
  <speed>0.0824621125123532</speed>
  <fix>3d</fix>
</trkpt>
<trkpt lat="33.810313" lon="-118.393867">
  <ele>-0.12</ele>
  <time>2026-09-01T01:13:08Z</time>
  <course>0.0</course>
  <speed>0.0</speed>
  <fix>3d</fix>
</trkpt>
<trkpt lat="33.8103129" lon="-118.393867">
  <ele>-0.12</ele>
  <time>2026-09-01T01:13:08Z</time>
  <course>187.09</course>
  <speed>0.24413111231467405</speed>
  <fix>3d</fix>
</trkpt>
<trkpt lat="33.810313" lon="-118.393867">
  <ele>-0.12</ele>
  <time>2026-09-01T01:13:08Z</time>
  <course>192.55</course>
  <speed>0.07</speed>
  <fix>3d</fix>
</trkpt>
<trkpt lat="33.8103126" lon="-118.3938673">
  <ele>-0.114</ele>
  <time>2026-09-01T01:13:08Z</time>
  <course>187.09</course>
  <speed>0.39698866482558415</speed>
  <fix>3d</fix>
</trkpt>
<trkpt lat="33.810313" lon="-118.393867">
  <ele>-0.12</ele>
  <time>2026-09-01T01:13:08Z</time>
  <course>192.55</course>
  <speed>0.07</speed>
  <fix>3d</fix>
</trkpt>
<trkpt lat="33.8103123" lon="-118.3938676">
  <ele>-0.106</ele>
  <time>2026-09-01T01:13:08Z</time>
  <course>187.08</course>
  <speed>0.5093132631298737</speed>
  <fix>3d</fix>
</trkpt>
<trkpt lat="33.8103127" lon="-118.3938671">
  <ele>-0.11</ele>
  <time>2026-09-01T01:13:08Z</time>
  <course>211.09</course>
  <speed>0.29</speed>
  <fix>3d</fix>
</trkpt>
<trkpt lat="33.8103119" lon="-118.393868">
  <ele>-0.101</ele>
  <time>2026-09-01T01:13:08Z</time>
  <course>187.07</course>
  <speed>0.5939696961966999</speed>
  <fix>3d</fix>
</trkpt>
<trkpt lat="33.8103127" lon="-118.3938671">
  <ele>-0.11</ele>
  <time>2026-09-01T01:13:08Z</time>
  <course>211.09</course>
  <speed>0.29</speed>
  <fix>3d</fix>
</trkpt>
<trkpt lat="33.8103116" lon="-118.3938684">
  <ele>-0.1</ele>
  <time>2026-09-01T01:13:08Z</time>
  <course>187.06</course>
  <speed>0.6435060217278468</speed>
  <fix>3d</fix>
</trkpt>
<trkpt lat="33.8103121" lon="-118.3938676">
  <ele>-0.1</ele>
  <time>2026-09-01T01:13:08Z</time>
  <course>219.53</course>
  <speed>0.53</speed>
  <fix>3d</fix>
</trkpt>
<trkpt lat="33.8103111" lon="-118.3938689">
  <ele>-0.105</ele>
  <time>2026-09-01T01:13:08Z</time>
  <course>187.05</course>
  <speed>0.6717886572427374</speed>
  <fix>3d</fix>
</trkpt>
<trkpt lat="33.8103121" lon="-118.3938676">
  <ele>-0.1</ele>
  <time>2026-09-01T01:13:08Z</time>
  <course>219.53</course>
  <speed>0.53</speed>
  <fix>3d</fix>
</trkpt>
<trkpt lat="33.8103107" lon="-118.3938694">
  <ele>-0.113</ele>
  <time>2026-09-01T01:13:08Z</time>
  <course>187.04</course>
  <speed>0.6859300255857006</speed>
  <fix>3d</fix>
</trkpt>
<trkpt lat="33.8103113" lon="-118.3938685">
  <ele>-0.09</ele>
  <time>2026-09-01T01:13:08Z</time>
  <course>221.99</course>
  <speed>0.65</speed>
  <fix>3d</fix>
</trkpt>
<trkpt lat="33.8103103" lon="-118.3938699">
  <ele>-0.121</ele>
  <time>2026-09-01T01:13:08Z</time>
  <course>187.03</course>
  <speed>0.6931089380465383</speed>
  <fix>3d</fix>
</trkpt>
<trkpt lat="33.8103113" lon="-118.3938685">
  <ele>-0.09</ele>
  <time>2026-09-01T01:13:08Z</time>
  <course>221.99</course>
  <speed>0.65</speed>
  <fix>3d</fix>
</trkpt>
<trkpt lat="33.8103098" lon="-118.3938704">
  <ele>-0.128</ele>
  <time>2026-09-01T01:13:08Z</time>
  <course>187.02</course>
  <speed>0.7000714249274855</speed>
  <fix>3d</fix>
</trkpt>
<trkpt lat="33.8103104" lon="-118.3938695">
  <ele>-0.1</ele>
  <time>2026-09-01T01:13:08Z</time>
  <course>222.84</course>
  <speed>0.7</speed>
  <fix>3d</fix>
</trkpt>
<trkpt lat="33.8103093" lon="-118.3938709">
  <ele>-0.13</ele>
  <time>2026-09-01T01:13:08Z</time>
  <course>187.02</course>
  <speed>0.7000714249274855</speed>
  <fix>3d</fix>
</trkpt>
<trkpt lat="33.8103104" lon="-118.3938695">
  <ele>-0.1</ele>
  <time>2026-09-01T01:13:08Z</time>
  <course>222.84</course>
  <speed>0.7</speed>
  <fix>3d</fix>
</trkpt>
<trkpt lat="33.8103089" lon="-118.3938714">
  <ele>-0.128</ele>
  <time>2026-09-01T01:13:08Z</time>
  <course>187.01</course>
  <speed>0.7071067811865476</speed>
  <fix>3d</fix>
</trkpt>
<trkpt lat="33.8103094" lon="-118.3938706">
  <ele>-0.11</ele>
  <time>2026-09-01T01:13:08Z</time>
  <course>223.12</course>
  <speed>0.72</speed>
  <fix>3d</fix>
</trkpt>
<trkpt lat="33.8103084" lon="-118.393872">
  <ele>-0.12</ele>
  <time>2026-09-01T01:13:08Z</time>
  <course>187.0</course>
  <speed>0.7071067811865476</speed>
  <fix>3d</fix>
</trkpt>
<trkpt lat="33.8103094" lon="-118.3938706">
  <ele>-0.11</ele>
  <time>2026-09-01T01:13:08Z</time>
  <course>223.12</course>
  <speed>0.72</speed>
  <fix>3d</fix>
</trkpt>
<trkpt lat="33.8103079" lon="-118.3938725">
  <ele>-0.112</ele>
  <time>2026-09-01T01:13:08Z</time>
  <course>187.0</course>
  <speed>0.7071067811865476</speed>
  <fix>3d</fix>
</trkpt>
<trkpt lat="33.8103085" lon="-118.3938716">
  <ele>-0.11</ele>
  <time>2026-09-01T01:13:08Z</time>
  <course>223.22</course>
  <speed>0.73</speed>
  <fix>3d</fix>
</trkpt>
<trkpt lat="33.8103075" lon="-118.393873">
  <ele>-0.105</ele>
  <time>2026-09-01T01:13:08Z</time>
  <course>186.99</course>
  <speed>0.7071067811865476</speed>
  <fix>3d</fix>
</trkpt>
<trkpt lat="33.8103085" lon="-118.3938716">
  <ele>-0.11</ele>
  <time>2026-09-01T01:13:08Z</time>
  <course>223.22</course>
  <speed>0.73</speed>
  <fix>3d</fix>
</trkpt>
<trkpt lat="33.810307" lon="-118.3938735">
  <ele>-0.102</ele>
  <time>2026-09-01T01:13:08Z</time>
  <course>186.98</course>
  <speed>0.7142128534267639</speed>
  <fix>3d</fix>
</trkpt>
<trkpt lat="33.8103075" lon="-118.3938727">
  <ele>-0.1</ele>
  <time>2026-09-01T01:13:08Z</time>
  <course>223.25</course>
  <speed>0.73</speed>
  <fix>3d</fix>
</trkpt>
<trkpt lat="33.8103065" lon="-118.393874">
  <ele>-0.103</ele>
  <time>2026-09-01T01:13:08Z</time>
  <course>186.98</course>
  <speed>0.7142128534267639</speed>
  <fix>3d</fix>
</trkpt>
<trkpt lat="33.8103075" lon="-118.3938727">
  <ele>-0.1</ele>
  <time>2026-09-01T01:13:08Z</time>
  <course>223.25</course>
  <speed>0.73</speed>
  <fix>3d</fix>
</trkpt>
<trkpt lat="33.810306" lon="-118.3938746">
  <ele>-0.109</ele>
  <time>2026-09-01T01:13:08Z</time>
  <course>186.97</course>
  <speed>0.7072481884034769</speed>
  <fix>3d</fix>
</trkpt>
<trkpt lat="33.8103065" lon="-118.3938738">
  <ele>-0.09</ele>
  <time>2026-09-01T01:13:08Z</time>
  <course>223.26</course>
  <speed>0.73</speed>
  <fix>3d</fix>
</trkpt>
<trkpt lat="33.8103055" lon="-118.3938751">
  <ele>-0.116</ele>
  <time>2026-09-01T01:13:08Z</time>
  <course>186.97</course>
  <speed>0.7072481884034769</speed>
  <fix>3d</fix>
</trkpt>
<trkpt lat="33.8103065" lon="-118.3938738">
  <ele>-0.09</ele>
  <time>2026-09-01T01:13:08Z</time>
  <course>223.26</course>
  <speed>0.73</speed>
  <fix>3d</fix>
</trkpt>
<trkpt lat="33.810305" lon="-118.3938756">
  <ele>-0.122</ele>
  <time>2026-09-01T01:13:08Z</time>
  <course>186.97</course>
  <speed>0.7072481884034769</speed>
  <fix>3d</fix>
</trkpt>
<trkpt lat="33.8103056" lon="-118.3938749">
  <ele>-0.1</ele>
  <time>2026-09-01T01:13:08Z</time>
  <course>223.26</course>
  <speed>0.73</speed>
  <fix>3d</fix>
</trkpt>
<trkpt lat="33.8103045" lon="-118.3938762">
  <ele>-0.125</ele>
  <time>2026-09-01T01:13:08Z</time>
  <course>186.96</course>
  <speed>0.7144928271158499</speed>
  <fix>3d</fix>
</trkpt>
<trkpt lat="33.8103056" lon="-118.3938749">
  <ele>-0.1</ele>
  <time>2026-09-01T01:13:08Z</time>
  <course>223.26</course>
  <speed>0.73</speed>
  <fix>3d</fix>
</trkpt>
<trkpt lat="33.8103041" lon="-118.3938767">
  <ele>-0.123</ele>
  <time>2026-09-01T01:13:08Z</time>
  <course>186.96</course>
  <speed>0.7144928271158499</speed>
  <fix>3d</fix>
</trkpt>
<trkpt lat="33.8103046" lon="-118.393876">
  <ele>-0.11</ele>
  <time>2026-09-01T01:13:08Z</time>
  <course>223.26</course>
  <speed>0.73</speed>
  <fix>3d</fix>
</trkpt>
<trkpt lat="33.8103036" lon="-118.3938773">
  <ele>-0.118</ele>
  <time>2026-09-01T01:13:08Z</time>
  <course>186.95</course>
  <speed>0.7144928271158499</speed>
  <fix>3d</fix>
</trkpt>
<trkpt lat="33.8103046" lon="-118.393876">
  <ele>-0.11</ele>
  <time>2026-09-01T01:13:08Z</time>
  <course>223.26</course>
  <speed>0.73</speed>
  <fix>3d</fix>
</trkpt>
<trkpt lat="33.8103031" lon="-118.3938778">
  <ele>-0.112</ele>
  <time>2026-09-01T01:13:08Z</time>
  <course>186.95</course>
  <speed>0.7144928271158499</speed>
  <fix>3d</fix>
</trkpt>
<trkpt lat="33.8103037" lon="-118.3938771">
  <ele>-0.11</ele>
  <time>2026-09-01T01:13:08Z</time>
  <course>223.26</course>
  <speed>0.73</speed>
  <fix>3d</fix>
</trkpt>
<trkpt lat="33.8103026" lon="-118.3938783">
  <ele>-0.106</ele>
  <time>2026-09-01T01:13:08Z</time>
  <course>186.94</course>
  <speed>0.7144928271158499</speed>
  <fix>3d</fix>
</trkpt>
<trkpt lat="33.8103037" lon="-118.3938771">
  <ele>-0.11</ele>
  <time>2026-09-01T01:13:08Z</time>
  <course>223.26</course>
  <speed>0.73</speed>
  <fix>3d</fix>
</trkpt>
<trkpt lat="33.8103021" lon="-118.3938789">
  <ele>-0.104</ele>
  <time>2026-09-01T01:13:08Z</time>
  <course>186.94</course>
  <speed>0.7144928271158499</speed>
  <fix>3d</fix>
</trkpt>
<trkpt lat="33.8103027" lon="-118.3938782">
  <ele>-0.1</ele>
  <time>2026-09-01T01:13:08Z</time>
  <course>223.26</course>
  <speed>0.73</speed>
  <fix>3d</fix>
</trkpt>
<trkpt lat="33.8103016" lon="-118.3938794">
  <ele>-0.107</ele>
  <time>2026-09-01T01:13:08Z</time>
  <course>186.94</course>
  <speed>0.7144928271158499</speed>
  <fix>3d</fix>
</trkpt>
<trkpt lat="33.8103027" lon="-118.3938782">
  <ele>-0.1</ele>
  <time>2026-09-01T01:13:08Z</time>
  <course>223.26</course>
  <speed>0.73</speed>
  <fix>3d</fix>
</trkpt>
<trkpt lat="33.8103011" lon="-118.39388">
  <ele>-0.112</ele>
  <time>2026-09-01T01:13:08Z</time>
  <course>186.93</course>
  <speed>0.7144928271158499</speed>
  <fix>3d</fix>
</trkpt>
<trkpt lat="33.8103018" lon="-118.3938793">
  <ele>-0.1</ele>
  <time>2026-09-01T01:13:08Z</time>
  <course>223.26</course>
  <speed>0.73</speed>
  <fix>3d</fix>
</trkpt>
<trkpt lat="33.8103007" lon="-118.3938805">
  <ele>-0.118</ele>
  <time>2026-09-01T01:13:08Z</time>
  <course>186.93</course>
  <speed>0.7144928271158499</speed>
  <fix>3d</fix>
</trkpt>
<trkpt lat="33.8103018" lon="-118.3938793">
  <ele>-0.1</ele>
  <time>2026-09-01T01:13:08Z</time>
  <course>223.26</course>
  <speed>0.73</speed>
  <fix>3d</fix>
</trkpt>
<trkpt lat="33.8103002" lon="-118.3938811">
  <ele>-0.123</ele>
  <time>2026-09-01T01:13:08Z</time>
  <course>186.92</course>
  <speed>0.7144928271158499</speed>
  <fix>3d</fix>
</trkpt>
<trkpt lat="33.8103008" lon="-118.3938803">
  <ele>-0.1</ele>
  <time>2026-09-01T01:13:08Z</time>
  <course>223.26</course>
  <speed>0.73</speed>
  <fix>3d</fix>
</trkpt>
<trkpt lat="33.8102997" lon="-118.3938816">
  <ele>-0.124</ele>
  <time>2026-09-01T01:13:08Z</time>
  <course>186.92</course>
  <speed>0.7144928271158499</speed>
  <fix>3d</fix>
</trkpt>
<trkpt lat="33.8103008" lon="-118.3938803">
  <ele>-0.1</ele>
  <time>2026-09-01T01:13:08Z</time>
  <course>223.26</course>
  <speed>0.73</speed>
  <fix>3d</fix>
</trkpt>
<trkpt lat="33.8102992" lon="-118.3938821">
  <ele>-0.124</ele>
  <time>2026-09-01T01:13:08Z</time>
  <course>186.92</course>
  <speed>0.7144928271158499</speed>
  <fix>3d</fix>
</trkpt>
<trkpt lat="33.8102998" lon="-118.3938814">
  <ele>-0.11</ele>
  <time>2026-09-01T01:13:08Z</time>
  <course>223.26</course>
  <speed>0.73</speed>
  <fix>3d</fix>
</trkpt>
<trkpt lat="33.8102987" lon="-118.3938827">
  <ele>-0.12</ele>
  <time>2026-09-01T01:13:08Z</time>
  <course>186.91</course>
  <speed>0.7144928271158499</speed>
  <fix>3d</fix>
</trkpt>
<trkpt lat="33.8102998" lon="-118.3938814">
  <ele>-0.11</ele>
  <time>2026-09-01T01:13:08Z</time>
  <course>223.26</course>
  <speed>0.73</speed>
  <fix>3d</fix>
</trkpt>
<trkpt lat="33.8102983" lon="-118.3938832">
  <ele>-0.114</ele>
  <time>2026-09-01T01:13:08Z</time>
  <course>186.91</course>
  <speed>0.7213875518748573</speed>
  <fix>3d</fix>
</trkpt>
<trkpt lat="33.8102989" lon="-118.3938825">
  <ele>-0.11</ele>
  <time>2026-09-01T01:13:08Z</time>
  <course>223.26</course>
  <speed>0.73</speed>
  <fix>3d</fix>
</trkpt>
<trkpt lat="33.8102978" lon="-118.3938838">
  <ele>-0.108</ele>
  <time>2026-09-01T01:13:08Z</time>
  <course>186.9</course>
  <speed>0.7213875518748573</speed>
  <fix>3d</fix>
</trkpt>
<trkpt lat="33.8102989" lon="-118.3938825">
  <ele>-0.11</ele>
  <time>2026-09-01T01:13:08Z</time>
  <course>223.26</course>
  <speed>0.73</speed>
  <fix>3d</fix>
</trkpt>
<trkpt lat="33.8102973" lon="-118.3938843">
  <ele>-0.104</ele>
  <time>2026-09-01T01:13:08Z</time>
  <course>186.9</course>
  <speed>0.7213875518748573</speed>
  <fix>3d</fix>
</trkpt>
<trkpt lat="33.8102978" lon="-118.3938836">
  <ele>-0.1</ele>
  <time>2026-09-01T01:13:08Z</time>
  <course>223.26</course>
  <speed>0.73</speed>
  <fix>3d</fix>
</trkpt>
<trkpt lat="33.8102968" lon="-118.3938848">
  <ele>-0.105</ele>
  <time>2026-09-01T01:13:08Z</time>
  <course>186.9</course>
  <speed>0.7286288492778747</speed>
  <fix>3d</fix>
</trkpt>
<trkpt lat="33.8102978" lon="-118.3938836">
  <ele>-0.1</ele>
  <time>2026-09-01T01:13:08Z</time>
  <course>223.26</course>
  <speed>0.73</speed>
  <fix>3d</fix>
</trkpt>
<trkpt lat="33.8102963" lon="-118.3938854">
  <ele>-0.108</ele>
  <time>2026-09-01T01:13:08Z</time>
  <course>186.89</course>
  <speed>0.7286288492778747</speed>
  <fix>3d</fix>
</trkpt>
<trkpt lat="33.8102969" lon="-118.3938847">
  <ele>-0.1</ele>
  <time>2026-09-01T01:13:08Z</time>
  <course>223.26</course>
  <speed>0.73</speed>
  <fix>3d</fix>
</trkpt>
<trkpt lat="33.8102958" lon="-118.3938859">
  <ele>-0.111</ele>
  <time>2026-09-01T01:13:08Z</time>
  <course>186.89</course>
  <speed>0.7286288492778747</speed>
  <fix>3d</fix>
</trkpt>
<trkpt lat="33.8102969" lon="-118.3938847">
  <ele>-0.1</ele>
  <time>2026-09-01T01:13:08Z</time>
  <course>223.26</course>
  <speed>0.73</speed>
  <fix>3d</fix>
</trkpt>
<trkpt lat="33.8102954" lon="-118.3938865">
  <ele>-0.115</ele>
  <time>2026-09-01T01:13:08Z</time>
  <course>186.88</course>
  <speed>0.7286288492778747</speed>
  <fix>3d</fix>
</trkpt>
<trkpt lat="33.8102959" lon="-118.3938858">
  <ele>-0.1</ele>
  <time>2026-09-01T01:13:08Z</time>
  <course>223.26</course>
  <speed>0.73</speed>
  <fix>3d</fix>
</trkpt>
<trkpt lat="33.8102949" lon="-118.393887">
  <ele>-0.117</ele>
  <time>2026-09-01T01:13:08Z</time>
  <course>186.88</course>
  <speed>0.7286288492778747</speed>
  <fix>3d</fix>
</trkpt>
<trkpt lat="33.8102959" lon="-118.3938858">
  <ele>-0.1</ele>
  <time>2026-09-01T01:13:08Z</time>
  <course>223.26</course>
  <speed>0.73</speed>
  <fix>3d</fix>
</trkpt>
<trkpt lat="33.8102944" lon="-118.3938876">
  <ele>-0.116</ele>
  <time>2026-09-01T01:13:08Z</time>
  <course>186.88</course>
  <speed>0.7286288492778747</speed>
  <fix>3d</fix>
</trkpt>
<trkpt lat="33.810295" lon="-118.3938869">
  <ele>-0.11</ele>
  <time>2026-09-01T01:13:08Z</time>
  <course>223.26</course>
  <speed>0.73</speed>
  <fix>3d</fix>
</trkpt>
<trkpt lat="33.8102939" lon="-118.3938881">
  <ele>-0.113</ele>
  <time>2026-09-01T01:13:08Z</time>
  <course>186.87</course>
  <speed>0.7213875518748573</speed>
  <fix>3d</fix>
</trkpt>
<trkpt lat="33.810295" lon="-118.3938869">
  <ele>-0.11</ele>
  <time>2026-09-01T01:13:08Z</time>
  <course>223.26</course>
  <speed>0.73</speed>
  <fix>3d</fix>
</trkpt>
<trkpt lat="33.8102934" lon="-118.3938886">
  <ele>-0.107</ele>
  <time>2026-09-01T01:13:08Z</time>
  <course>186.87</course>
  <speed>0.7213875518748573</speed>
  <fix>3d</fix>
</trkpt>
<trkpt lat="33.8102941" lon="-118.393888">
  <ele>-0.11</ele>
  <time>2026-09-01T01:13:08Z</time>
  <course>223.26</course>
  <speed>0.73</speed>
  <fix>3d</fix>
</trkpt>
<trkpt lat="33.810293" lon="-118.3938892">
  <ele>-0.102</ele>
  <time>2026-09-01T01:13:08Z</time>
  <course>186.86</course>
  <speed>0.7213875518748573</speed>
  <fix>3d</fix>
</trkpt>
<trkpt lat="33.8102941" lon="-118.393888">
  <ele>-0.11</ele>
  <time>2026-09-01T01:13:08Z</time>
  <course>223.26</course>
  <speed>0.73</speed>
  <fix>3d</fix>
</trkpt>
<trkpt lat="33.8102925" lon="-118.3938897">
  <ele>-0.098</ele>
  <time>2026-09-01T01:13:08Z</time>
  <course>186.86</course>
  <speed>0.7213875518748573</speed>
  <fix>3d</fix>
</trkpt>
<trkpt lat="33.810293" lon="-118.3938891">
  <ele>-0.1</ele>
  <time>2026-09-01T01:13:08Z</time>
  <course>223.26</course>
  <speed>0.73</speed>
  <fix>3d</fix>
</trkpt>
<trkpt lat="33.810292" lon="-118.3938903">
  <ele>-0.097</ele>
  <time>2026-09-01T01:13:08Z</time>
  <course>186.86</course>
  <speed>0.7213875518748573</speed>
  <fix>3d</fix>
</trkpt>
<trkpt lat="33.810293" lon="-118.3938891">
  <ele>-0.1</ele>
  <time>2026-09-01T01:13:08Z</time>
  <course>223.26</course>
  <speed>0.73</speed>
  <fix>3d</fix>
</trkpt>
<trkpt lat="33.8102915" lon="-118.3938908">
  <ele>-0.099</ele>
  <time>2026-09-01T01:13:08Z</time>
  <course>186.85</course>
  <speed>0.7213875518748573</speed>
  <fix>3d</fix>
</trkpt>
<trkpt lat="33.8102921" lon="-118.3938901">
  <ele>-0.1</ele>
  <time>2026-09-01T01:13:08Z</time>
  <course>223.26</course>
  <speed>0.73</speed>
  <fix>3d</fix>
</trkpt>
<trkpt lat="33.8102911" lon="-118.3938914">
  <ele>-0.103</ele>
  <time>2026-09-01T01:13:08Z</time>
  <course>186.85</course>
  <speed>0.7213875518748573</speed>
  <fix>3d</fix>
</trkpt>
<trkpt lat="33.8102921" lon="-118.3938901">
  <ele>-0.1</ele>
  <time>2026-09-01T01:13:08Z</time>
  <course>223.26</course>
  <speed>0.73</speed>
  <fix>3d</fix>
</trkpt>
<trkpt lat="33.8102906" lon="-118.3938919">
  <ele>-0.107</ele>
  <time>2026-09-01T01:13:08Z</time>
  <course>186.84</course>
  <speed>0.7213875518748573</speed>
  <fix>3d</fix>
</trkpt>
<trkpt lat="33.8102911" lon="-118.3938912">
  <ele>-0.1</ele>
  <time>2026-09-01T01:13:08Z</time>
  <course>223.26</course>
  <speed>0.73</speed>
  <fix>3d</fix>
</trkpt>
<trkpt lat="33.8102901" lon="-118.3938925">
  <ele>-0.11</ele>
  <time>2026-09-01T01:13:08Z</time>
  <course>186.84</course>
  <speed>0.7213875518748573</speed>
  <fix>3d</fix>
</trkpt>
<trkpt lat="33.8102911" lon="-118.3938912">
  <ele>-0.1</ele>
  <time>2026-09-01T01:13:08Z</time>
  <course>223.26</course>
  <speed>0.73</speed>
  <fix>3d</fix>
</trkpt>
<trkpt lat="33.8102896" lon="-118.393893">
  <ele>-0.11</ele>
  <time>2026-09-01T01:13:08Z</time>
  <course>186.84</course>
  <speed>0.7213875518748573</speed>
  <fix>3d</fix>
</trkpt>
<trkpt lat="33.8102902" lon="-118.3938923">
  <ele>-0.11</ele>
  <time>2026-09-01T01:13:08Z</time>
  <course>223.26</course>
  <speed>0.73</speed>
  <fix>3d</fix>
</trkpt>
<trkpt lat="33.8102891" lon="-118.3938936">
  <ele>-0.109</ele>
  <time>2026-09-01T01:13:08Z</time>
  <course>186.83</course>
  <speed>0.7213875518748573</speed>
  <fix>3d</fix>
</trkpt>
<trkpt lat="33.8102902" lon="-118.3938923">
  <ele>-0.11</ele>
  <time>2026-09-01T01:13:08Z</time>
  <course>223.26</course>
  <speed>0.73</speed>
  <fix>3d</fix>
</trkpt>
<trkpt lat="33.8102887" lon="-118.3938941">
  <ele>-0.108</ele>
  <time>2026-09-01T01:13:08Z</time>
  <course>186.83</course>
  <speed>0.7213875518748573</speed>
  <fix>3d</fix>
</trkpt>
<trkpt lat="33.8102892" lon="-118.3938934">
  <ele>-0.11</ele>
  <time>2026-09-01T01:13:08Z</time>
  <course>223.26</course>
  <speed>0.73</speed>
  <fix>3d</fix>
</trkpt>
<trkpt lat="33.8102882" lon="-118.3938947">
  <ele>-0.106</ele>
  <time>2026-09-01T01:13:08Z</time>
  <course>186.83</course>
  <speed>0.7283543093852057</speed>
  <fix>3d</fix>
</trkpt>
<trkpt lat="33.8102892" lon="-118.3938934">
  <ele>-0.11</ele>
  <time>2026-09-01T01:13:08Z</time>
  <course>223.26</course>
  <speed>0.73</speed>
  <fix>3d</fix>
</trkpt>
<trkpt lat="33.8102877" lon="-118.3938952">
  <ele>-0.105</ele>
  <time>2026-09-01T01:13:08Z</time>
  <course>186.82</course>
  <speed>0.7283543093852057</speed>
  <fix>3d</fix>
</trkpt>
<trkpt lat="33.8102882" lon="-118.3938945">
  <ele>-0.1</ele>
  <time>2026-09-01T01:13:08Z</time>
  <course>223.26</course>
  <speed>0.73</speed>
  <fix>3d</fix>
</trkpt>
<trkpt lat="33.8102872" lon="-118.3938958">
  <ele>-0.106</ele>
  <time>2026-09-01T01:13:08Z</time>
  <course>186.82</course>
  <speed>0.7283543093852057</speed>
  <fix>3d</fix>
</trkpt>
<trkpt lat="33.8102882" lon="-118.3938945">
  <ele>-0.1</ele>
  <time>2026-09-01T01:13:08Z</time>
  <course>223.26</course>
  <speed>0.73</speed>
  <fix>3d</fix>
</trkpt>
<trkpt lat="33.8102867" lon="-118.3938963">
  <ele>-0.11</ele>
  <time>2026-09-01T01:13:08Z</time>
  <course>186.82</course>
  <speed>0.7283543093852057</speed>
  <fix>3d</fix>
</trkpt>
<trkpt lat="33.8102873" lon="-118.3938956">
  <ele>-0.1</ele>
  <time>2026-09-01T01:13:08Z</time>
  <course>223.26</course>
  <speed>0.73</speed>
  <fix>3d</fix>
</trkpt>
<trkpt lat="33.8102863" lon="-118.3938969">
  <ele>-0.115</ele>
  <time>2026-09-01T01:13:08Z</time>
  <course>186.81</course>
  <speed>0.7283543093852057</speed>
  <fix>3d</fix>
</trkpt>
<trkpt lat="33.8102873" lon="-118.3938956">
  <ele>-0.1</ele>
  <time>2026-09-01T01:13:08Z</time>
  <course>223.26</course>
  <speed>0.73</speed>
  <fix>3d</fix>
</trkpt>
<trkpt lat="33.8102858" lon="-118.3938974">
  <ele>-0.12</ele>
  <time>2026-09-01T01:13:08Z</time>
  <course>186.81</course>
  <speed>0.7283543093852057</speed>
  <fix>3d</fix>
</trkpt>
<trkpt lat="33.8102863" lon="-118.3938967">
  <ele>-0.1</ele>
  <time>2026-09-01T01:13:08Z</time>
  <course>223.26</course>
  <speed>0.73</speed>
  <fix>3d</fix>
</trkpt>
<trkpt lat="33.8102853" lon="-118.393898">
  <ele>-0.122</ele>
  <time>2026-09-01T01:13:08Z</time>
  <course>186.81</course>
  <speed>0.7283543093852057</speed>
  <fix>3d</fix>
</trkpt>
<trkpt lat="33.8102863" lon="-118.3938967">
  <ele>-0.1</ele>
  <time>2026-09-01T01:13:08Z</time>
  <course>223.26</course>
  <speed>0.73</speed>
  <fix>3d</fix>
</trkpt>
<trkpt lat="33.8102848" lon="-118.3938985">
  <ele>-0.121</ele>
  <time>2026-09-01T01:13:08Z</time>
  <course>186.8</course>
  <speed>0.7283543093852057</speed>
  <fix>3d</fix>
</trkpt>
<trkpt lat="33.8102854" lon="-118.3938978">
  <ele>-0.11</ele>
  <time>2026-09-01T01:13:08Z</time>
  <course>223.26</course>
  <speed>0.73</speed>
  <fix>3d</fix>
</trkpt>
<trkpt lat="33.8102843" lon="-118.3938991">
  <ele>-0.118</ele>
  <time>2026-09-01T01:13:08Z</time>
  <course>186.8</course>
  <speed>0.7283543093852057</speed>
  <fix>3d</fix>
</trkpt>
<trkpt lat="33.8102854" lon="-118.3938978">
  <ele>-0.11</ele>
  <time>2026-09-01T01:13:08Z</time>
  <course>223.26</course>
  <speed>0.73</speed>
  <fix>3d</fix>
</trkpt>
<trkpt lat="33.8102839" lon="-118.3938996">
  <ele>-0.115</ele>
  <time>2026-09-01T01:13:08Z</time>
  <course>186.79</course>
  <speed>0.7283543093852057</speed>
  <fix>3d</fix>
</trkpt>
<trkpt lat="33.8102844" lon="-118.3938989">
  <ele>-0.11</ele>
  <time>2026-09-01T01:13:08Z</time>
  <course>223.26</course>
  <speed>0.73</speed>
  <fix>3d</fix>
</trkpt>
<trkpt lat="33.8102834" lon="-118.3939002">
  <ele>-0.111</ele>
  <time>2026-09-01T01:13:08Z</time>
  <course>186.79</course>
  <speed>0.7283543093852057</speed>
  <fix>3d</fix>
</trkpt>
<trkpt lat="33.8102844" lon="-118.3938989">
  <ele>-0.11</ele>
  <time>2026-09-01T01:13:08Z</time>
  <course>223.26</course>
  <speed>0.73</speed>
  <fix>3d</fix>
</trkpt>
<trkpt lat="33.8102829" lon="-118.3939007">
  <ele>-0.108</ele>
  <time>2026-09-01T01:13:08Z</time>
  <course>186.79</course>
  <speed>0.7283543093852057</speed>
  <fix>3d</fix>
</trkpt>
<trkpt lat="33.8102835" lon="-118.3939">
  <ele>-0.1</ele>
  <time>2026-09-01T01:13:08Z</time>
  <course>223.26</course>
  <speed>0.73</speed>
  <fix>3d</fix>
</trkpt>
<trkpt lat="33.8102824" lon="-118.3939013">
  <ele>-0.107</ele>
  <time>2026-09-01T01:13:08Z</time>
  <course>186.78</course>
  <speed>0.7212489168102785</speed>
  <fix>3d</fix>
</trkpt>
<trkpt lat="33.8102835" lon="-118.3939">
  <ele>-0.1</ele>
  <time>2026-09-01T01:13:08Z</time>
  <course>223.26</course>
  <speed>0.73</speed>
  <fix>3d</fix>
</trkpt>
<trkpt lat="33.810282" lon="-118.3939018">
  <ele>-0.107</ele>
  <time>2026-09-01T01:13:08Z</time>
  <course>186.78</course>
  <speed>0.7212489168102785</speed>
  <fix>3d</fix>
</trkpt>
<trkpt lat="33.8102825" lon="-118.393901">
  <ele>-0.1</ele>
  <time>2026-09-01T01:13:08Z</time>
  <course>223.26</course>
  <speed>0.73</speed>
  <fix>3d</fix>
</trkpt>
<trkpt lat="33.8102815" lon="-118.3939024">
  <ele>-0.109</ele>
  <time>2026-09-01T01:13:08Z</time>
  <course>186.78</course>
  <speed>0.7212489168102785</speed>
  <fix>3d</fix>
</trkpt>
<trkpt lat="33.8102825" lon="-118.393901">
  <ele>-0.1</ele>
  <time>2026-09-01T01:13:08Z</time>
  <course>223.26</course>
  <speed>0.73</speed>
  <fix>3d</fix>
</trkpt>
<trkpt lat="33.810281" lon="-118.3939029">
  <ele>-0.111</ele>
  <time>2026-09-01T01:13:08Z</time>
  <course>186.77</course>
  <speed>0.7212489168102785</speed>
  <fix>3d</fix>
</trkpt>
<trkpt lat="33.8102815" lon="-118.3939021">
  <ele>-0.1</ele>
  <time>2026-09-01T01:13:08Z</time>
  <course>223.26</course>
  <speed>0.73</speed>
  <fix>3d</fix>
</trkpt>
<trkpt lat="33.8102805" lon="-118.3939035">
  <ele>-0.113</ele>
  <time>2026-09-01T01:13:08Z</time>
  <course>186.77</course>
  <speed>0.7212489168102785</speed>
  <fix>3d</fix>
</trkpt>
<trkpt lat="33.8102815" lon="-118.3939021">
  <ele>-0.1</ele>
  <time>2026-09-01T01:13:08Z</time>
  <course>223.26</course>
  <speed>0.73</speed>
  <fix>3d</fix>
</trkpt>
<trkpt lat="33.8102801" lon="-118.393904">
  <ele>-0.113</ele>
  <time>2026-09-01T01:13:08Z</time>
  <course>186.77</course>
  <speed>0.7212489168102785</speed>
  <fix>3d</fix>
</trkpt>
<trkpt lat="33.8102806" lon="-118.3939032">
  <ele>-0.11</ele>
  <time>2026-09-01T01:13:08Z</time>
  <course>223.26</course>
  <speed>0.73</speed>
  <fix>3d</fix>
</trkpt>
<trkpt lat="33.8102796" lon="-118.3939046">
  <ele>-0.111</ele>
  <time>2026-09-01T01:13:08Z</time>
  <course>186.76</course>
  <speed>0.7283543093852057</speed>
  <fix>3d</fix>
</trkpt>
<trkpt lat="33.8102806" lon="-118.3939032">
  <ele>-0.11</ele>
  <time>2026-09-01T01:13:08Z</time>
  <course>223.26</course>
  <speed>0.73</speed>
  <fix>3d</fix>
</trkpt>
<trkpt lat="33.8102791" lon="-118.3939051">
  <ele>-0.109</ele>
  <time>2026-09-01T01:13:08Z</time>
  <course>186.76</course>
  <speed>0.7283543093852057</speed>
  <fix>3d</fix>
</trkpt>
<trkpt lat="33.8102796" lon="-118.3939043">
  <ele>-0.11</ele>
  <time>2026-09-01T01:13:08Z</time>
  <course>223.26</course>
  <speed>0.73</speed>
  <fix>3d</fix>
</trkpt>
<trkpt lat="33.8102786" lon="-118.3939057">
  <ele>-0.105</ele>
  <time>2026-09-01T01:13:08Z</time>
  <course>186.76</course>
  <speed>0.7283543093852057</speed>
  <fix>3d</fix>
</trkpt>
<trkpt lat="33.8102796" lon="-118.3939043">
  <ele>-0.11</ele>
  <time>2026-09-01T01:13:08Z</time>
  <course>223.26</course>
  <speed>0.73</speed>
  <fix>3d</fix>
</trkpt>
<trkpt lat="33.8102782" lon="-118.3939062">
  <ele>-0.102</ele>
  <time>2026-09-01T01:13:08Z</time>
  <course>186.75</course>
  <speed>0.7283543093852057</speed>
  <fix>3d</fix>
</trkpt>
<trkpt lat="33.8102787" lon="-118.3939054">
  <ele>-0.1</ele>
  <time>2026-09-01T01:13:08Z</time>
  <course>223.26</course>
  <speed>0.73</speed>
  <fix>3d</fix>
</trkpt>
<trkpt lat="33.8102777" lon="-118.3939068">
  <ele>-0.101</ele>
  <time>2026-09-01T01:13:08Z</time>
  <course>186.75</course>
  <speed>0.7283543093852057</speed>
  <fix>3d</fix>
</trkpt>
<trkpt lat="33.8102787" lon="-118.3939054">
  <ele>-0.1</ele>
  <time>2026-09-01T01:13:08Z</time>
  <course>223.26</course>
  <speed>0.73</speed>
  <fix>3d</fix>
</trkpt>
<trkpt lat="33.8102772" lon="-118.3939073">
  <ele>-0.102</ele>
  <time>2026-09-01T01:13:08Z</time>
  <course>186.74</course>
  <speed>0.7283543093852057</speed>
  <fix>3d</fix>
</trkpt>
<trkpt lat="33.8102777" lon="-118.3939065">
  <ele>-0.1</ele>
  <time>2026-09-01T01:13:08Z</time>
  <course>223.26</course>
  <speed>0.73</speed>
  <fix>3d</fix>
</trkpt>
<trkpt lat="33.8102767" lon="-118.3939079">
  <ele>-0.105</ele>
  <time>2026-09-01T01:13:08Z</time>
  <course>186.74</course>
  <speed>0.7283543093852057</speed>
  <fix>3d</fix>
</trkpt>
<trkpt lat="33.8102777" lon="-118.3939065">
  <ele>-0.1</ele>
  <time>2026-09-01T01:13:08Z</time>
  <course>223.26</course>
  <speed>0.73</speed>
  <fix>3d</fix>
</trkpt>
<trkpt lat="33.8102763" lon="-118.3939084">
  <ele>-0.107</ele>
  <time>2026-09-01T01:13:08Z</time>
  <course>186.74</course>
  <speed>0.7283543093852057</speed>
  <fix>3d</fix>
</trkpt>
<trkpt lat="33.8102767" lon="-118.3939076">
  <ele>-0.1</ele>
  <time>2026-09-01T01:13:08Z</time>
  <course>223.26</course>
  <speed>0.73</speed>
  <fix>3d</fix>
</trkpt>
<trkpt lat="33.8102758" lon="-118.393909">
  <ele>-0.109</ele>
  <time>2026-09-01T01:13:08Z</time>
  <course>186.73</course>
  <speed>0.7283543093852057</speed>
  <fix>3d</fix>
</trkpt>
<trkpt lat="33.8102767" lon="-118.3939076">
  <ele>-0.1</ele>
  <time>2026-09-01T01:13:09Z</time>
  <course>223.26</course>
  <speed>0.73</speed>
  <fix>3d</fix>
</trkpt>
<trkpt lat="33.8102753" lon="-118.3939095">
  <ele>-0.11</ele>
  <time>2026-09-01T01:13:09Z</time>
  <course>186.73</course>
  <speed>0.7283543093852057</speed>
  <fix>3d</fix>
</trkpt>
<trkpt lat="33.8102758" lon="-118.3939087">
  <ele>-0.11</ele>
  <time>2026-09-01T01:13:09Z</time>
  <course>223.26</course>
  <speed>0.73</speed>
  <fix>3d</fix>
</trkpt>
<trkpt lat="33.8102748" lon="-118.3939101">
  <ele>-0.108</ele>
  <time>2026-09-01T01:13:09Z</time>
  <course>186.73</course>
  <speed>0.7283543093852057</speed>
  <fix>3d</fix>
</trkpt>
<trkpt lat="33.8102758" lon="-118.3939087">
  <ele>-0.11</ele>
  <time>2026-09-01T01:13:09Z</time>
  <course>223.26</course>
  <speed>0.73</speed>
  <fix>3d</fix>
</trkpt>
<trkpt lat="33.8102744" lon="-118.3939106">
  <ele>-0.105</ele>
  <time>2026-09-01T01:13:09Z</time>
  <course>186.72</course>
  <speed>0.7283543093852057</speed>
  <fix>3d</fix>
</trkpt>
<trkpt lat="33.8102748" lon="-118.3939098">
  <ele>-0.11</ele>
  <time>2026-09-01T01:13:09Z</time>
  <course>223.26</course>
  <speed>0.73</speed>
  <fix>3d</fix>
</trkpt>
<trkpt lat="33.8102739" lon="-118.3939112">
  <ele>-0.103</ele>
  <time>2026-09-01T01:13:09Z</time>
  <course>186.72</course>
  <speed>0.7283543093852057</speed>
  <fix>3d</fix>
</trkpt>
<trkpt lat="33.8102748" lon="-118.3939098">
  <ele>-0.11</ele>
  <time>2026-09-01T01:13:09Z</time>
  <course>223.26</course>
  <speed>0.73</speed>
  <fix>3d</fix>
</trkpt>
<trkpt lat="33.8102734" lon="-118.3939117">
  <ele>-0.102</ele>
  <time>2026-09-01T01:13:09Z</time>
  <course>186.72</course>
  <speed>0.7283543093852057</speed>
  <fix>3d</fix>
</trkpt>
<trkpt lat="33.8102739" lon="-118.3939109">
  <ele>-0.1</ele>
  <time>2026-09-01T01:13:09Z</time>
  <course>223.26</course>
  <speed>0.73</speed>
  <fix>3d</fix>
</trkpt>
<trkpt lat="33.8102729" lon="-118.3939123">
  <ele>-0.103</ele>
  <time>2026-09-01T01:13:09Z</time>
  <course>186.71</course>
  <speed>0.7283543093852057</speed>
  <fix>3d</fix>
</trkpt>
<trkpt lat="33.8102739" lon="-118.3939109">
  <ele>-0.1</ele>
  <time>2026-09-01T01:13:09Z</time>
  <course>223.26</course>
  <speed>0.73</speed>
  <fix>3d</fix>
</trkpt>
<trkpt lat="33.8102725" lon="-118.3939128">
  <ele>-0.107</ele>
  <time>2026-09-01T01:13:09Z</time>
  <course>186.71</course>
  <speed>0.7283543093852057</speed>
  <fix>3d</fix>
</trkpt>
<trkpt lat="33.8102729" lon="-118.3939119">
  <ele>-0.1</ele>
  <time>2026-09-01T01:13:09Z</time>
  <course>223.26</course>
  <speed>0.73</speed>
  <fix>3d</fix>
</trkpt>
<trkpt lat="33.810272" lon="-118.3939134">
  <ele>-0.11</ele>
  <time>2026-09-01T01:13:09Z</time>
  <course>186.71</course>
  <speed>0.7213875518748573</speed>
  <fix>3d</fix>
</trkpt>
<trkpt lat="33.8102729" lon="-118.3939119">
  <ele>-0.1</ele>
  <time>2026-09-01T01:13:09Z</time>
  <course>223.26</course>
  <speed>0.73</speed>
  <fix>3d</fix>
</trkpt>
<trkpt lat="33.8102715" lon="-118.3939139">
  <ele>-0.114</ele>
  <time>2026-09-01T01:13:09Z</time>
  <course>186.7</course>
  <speed>0.7213875518748573</speed>
  <fix>3d</fix>
</trkpt>
<trkpt lat="33.8102719" lon="-118.393913">
  <ele>-0.1</ele>
  <time>2026-09-01T01:13:09Z</time>
  <course>223.26</course>
  <speed>0.73</speed>
  <fix>3d</fix>
</trkpt>
<trkpt lat="33.810271" lon="-118.3939145">
  <ele>-0.115</ele>
  <time>2026-09-01T01:13:09Z</time>
  <course>186.7</course>
  <speed>0.7213875518748573</speed>
  <fix>3d</fix>
</trkpt>
<trkpt lat="33.8102719" lon="-118.393913">
  <ele>-0.1</ele>
  <time>2026-09-01T01:13:09Z</time>
  <course>223.26</course>
  <speed>0.73</speed>
  <fix>3d</fix>
</trkpt>
<trkpt lat="33.8102705" lon="-118.393915">
  <ele>-0.114</ele>
  <time>2026-09-01T01:13:09Z</time>
  <course>186.7</course>
  <speed>0.7213875518748573</speed>
  <fix>3d</fix>
</trkpt>
<trkpt lat="33.810271" lon="-118.3939141">
  <ele>-0.11</ele>
  <time>2026-09-01T01:13:09Z</time>
  <course>223.26</course>
  <speed>0.73</speed>
  <fix>3d</fix>
</trkpt>
<trkpt lat="33.8102701" lon="-118.3939156">
  <ele>-0.112</ele>
  <time>2026-09-01T01:13:09Z</time>
  <course>186.69</course>
  <speed>0.7213875518748573</speed>
  <fix>3d</fix>
</trkpt>
<trkpt lat="33.810271" lon="-118.3939141">
  <ele>-0.11</ele>
  <time>2026-09-01T01:13:09Z</time>
  <course>223.26</course>
  <speed>0.73</speed>
  <fix>3d</fix>
</trkpt>
<trkpt lat="33.8102696" lon="-118.3939161">
  <ele>-0.11</ele>
  <time>2026-09-01T01:13:09Z</time>
  <course>186.69</course>
  <speed>0.7213875518748573</speed>
  <fix>3d</fix>
</trkpt>
<trkpt lat="33.81027" lon="-118.3939152">
  <ele>-0.11</ele>
  <time>2026-09-01T01:13:09Z</time>
  <course>223.26</course>
  <speed>0.73</speed>
  <fix>3d</fix>
</trkpt>
<trkpt lat="33.8102691" lon="-118.3939167">
  <ele>-0.106</ele>
  <time>2026-09-01T01:13:09Z</time>
  <course>186.69</course>
  <speed>0.7213875518748573</speed>
  <fix>3d</fix>
</trkpt>
<trkpt lat="33.81027" lon="-118.3939152">
  <ele>-0.11</ele>
  <time>2026-09-01T01:13:09Z</time>
  <course>223.26</course>
  <speed>0.73</speed>
  <fix>3d</fix>
</trkpt>
<trkpt lat="33.8102686" lon="-118.3939172">
  <ele>-0.103</ele>
  <time>2026-09-01T01:13:09Z</time>
  <course>186.68</course>
  <speed>0.7213875518748573</speed>
  <fix>3d</fix>
</trkpt>
<trkpt lat="33.810269" lon="-118.3939163">
  <ele>-0.1</ele>
  <time>2026-09-01T01:13:09Z</time>
  <course>223.26</course>
  <speed>0.73</speed>
  <fix>3d</fix>
</trkpt>
<trkpt lat="33.8102681" lon="-118.3939178">
  <ele>-0.101</ele>
  <time>2026-09-01T01:13:09Z</time>
  <course>186.68</course>
  <speed>0.7213875518748573</speed>
  <fix>3d</fix>
</trkpt>
<trkpt lat="33.810269" lon="-118.3939163">
  <ele>-0.1</ele>
  <time>2026-09-01T01:13:09Z</time>
  <course>223.26</course>
  <speed>0.73</speed>
  <fix>3d</fix>
</trkpt>
<trkpt lat="33.8102677" lon="-118.3939183">
  <ele>-0.101</ele>
  <time>2026-09-01T01:13:09Z</time>
  <course>186.68</course>
  <speed>0.7213875518748573</speed>
  <fix>3d</fix>
</trkpt>
<trkpt lat="33.8102681" lon="-118.3939174">
  <ele>-0.1</ele>
  <time>2026-09-01T01:13:09Z</time>
  <course>223.26</course>
  <speed>0.73</speed>
  <fix>3d</fix>
</trkpt>
<trkpt lat="33.8102672" lon="-118.3939189">
  <ele>-0.103</ele>
  <time>2026-09-01T01:13:09Z</time>
  <course>186.67</course>
  <speed>0.7213875518748573</speed>
  <fix>3d</fix>
</trkpt>
<trkpt lat="33.8102681" lon="-118.3939174">
  <ele>-0.1</ele>
  <time>2026-09-01T01:13:09Z</time>
  <course>223.26</course>
  <speed>0.73</speed>
  <fix>3d</fix>
</trkpt>
<trkpt lat="33.8102667" lon="-118.3939194">
  <ele>-0.106</ele>
  <time>2026-09-01T01:13:09Z</time>
  <course>186.67</course>
  <speed>0.7213875518748573</speed>
  <fix>3d</fix>
</trkpt>
<trkpt lat="33.8102671" lon="-118.3939185">
  <ele>-0.1</ele>
  <time>2026-09-01T01:13:09Z</time>
  <course>223.26</course>
  <speed>0.73</speed>
  <fix>3d</fix>
</trkpt>
<trkpt lat="33.8102662" lon="-118.39392">
  <ele>-0.107</ele>
  <time>2026-09-01T01:13:09Z</time>
  <course>186.67</course>
  <speed>0.7213875518748573</speed>
  <fix>3d</fix>
</trkpt>
<trkpt lat="33.8102671" lon="-118.3939185">
  <ele>-0.1</ele>
  <time>2026-09-01T01:13:09Z</time>
  <course>223.26</course>
  <speed>0.73</speed>
  <fix>3d</fix>
</trkpt>
<trkpt lat="33.8102658" lon="-118.3939205">
  <ele>-0.108</ele>
  <time>2026-09-01T01:13:09Z</time>
  <course>186.66</course>
  <speed>0.7213875518748573</speed>
  <fix>3d</fix>
</trkpt>
<trkpt lat="33.8102662" lon="-118.3939196">
  <ele>-0.11</ele>
  <time>2026-09-01T01:13:09Z</time>
  <course>223.26</course>
  <speed>0.73</speed>
  <fix>3d</fix>
</trkpt>
<trkpt lat="33.8102653" lon="-118.3939211">
  <ele>-0.107</ele>
  <time>2026-09-01T01:13:09Z</time>
  <course>186.66</course>
  <speed>0.7213875518748573</speed>
  <fix>3d</fix>
</trkpt>
<trkpt lat="33.8102662" lon="-118.3939196">
  <ele>-0.11</ele>
  <time>2026-09-01T01:13:09Z</time>
  <course>223.26</course>
  <speed>0.73</speed>
  <fix>3d</fix>
</trkpt>
<trkpt lat="33.8102648" lon="-118.3939216">
  <ele>-0.106</ele>
  <time>2026-09-01T01:13:09Z</time>
  <course>186.66</course>
  <speed>0.7213875518748573</speed>
  <fix>3d</fix>
</trkpt>
<trkpt lat="33.8102651" lon="-118.3939207">
  <ele>-0.11</ele>
  <time>2026-09-01T01:13:09Z</time>
  <course>223.26</course>
  <speed>0.73</speed>
  <fix>3d</fix>
</trkpt>
<trkpt lat="33.8102643" lon="-118.3939222">
  <ele>-0.104</ele>
  <time>2026-09-01T01:13:09Z</time>
  <course>186.65</course>
  <speed>0.7213875518748573</speed>
  <fix>3d</fix>
</trkpt>
<trkpt lat="33.8102651" lon="-118.3939207">
  <ele>-0.11</ele>
  <time>2026-09-01T01:13:09Z</time>
  <course>223.26</course>
  <speed>0.73</speed>
  <fix>3d</fix>
</trkpt>
<trkpt lat="33.8102638" lon="-118.3939227">
  <ele>-0.103</ele>
  <time>2026-09-01T01:13:09Z</time>
  <course>186.65</course>
  <speed>0.7213875518748573</speed>
  <fix>3d</fix>
</trkpt>
<trkpt lat="33.8102642" lon="-118.3939217">
  <ele>-0.1</ele>
  <time>2026-09-01T01:13:09Z</time>
  <course>223.26</course>
  <speed>0.73</speed>
  <fix>3d</fix>
</trkpt>
<trkpt lat="33.8102634" lon="-118.3939232">
  <ele>-0.104</ele>
  <time>2026-09-01T01:13:09Z</time>
  <course>186.64</course>
  <speed>0.7213875518748573</speed>
  <fix>3d</fix>
</trkpt>
<trkpt lat="33.8102642" lon="-118.3939217">
  <ele>-0.1</ele>
  <time>2026-09-01T01:13:09Z</time>
  <course>223.26</course>
  <speed>0.73</speed>
  <fix>3d</fix>
</trkpt>
<trkpt lat="33.8102629" lon="-118.3939238">
  <ele>-0.106</ele>
  <time>2026-09-01T01:13:09Z</time>
  <course>186.64</course>
  <speed>0.7213875518748573</speed>
  <fix>3d</fix>
</trkpt>
<trkpt lat="33.8102633" lon="-118.3939228">
  <ele>-0.1</ele>
  <time>2026-09-01T01:13:09Z</time>
  <course>223.26</course>
  <speed>0.73</speed>
  <fix>3d</fix>
</trkpt>
<trkpt lat="33.8102624" lon="-118.3939243">
  <ele>-0.108</ele>
  <time>2026-09-01T01:13:09Z</time>
  <course>186.64</course>
  <speed>0.7213875518748573</speed>
  <fix>3d</fix>
</trkpt>
<trkpt lat="33.8102633" lon="-118.3939228">
  <ele>-0.1</ele>
  <time>2026-09-01T01:13:09Z</time>
  <course>223.26</course>
  <speed>0.73</speed>
  <fix>3d</fix>
</trkpt>
<trkpt lat="33.8102619" lon="-118.3939249">
  <ele>-0.111</ele>
  <time>2026-09-01T01:13:09Z</time>
  <course>186.63</course>
  <speed>0.7213875518748573</speed>
  <fix>3d</fix>
</trkpt>
<trkpt lat="33.8102623" lon="-118.3939239">
  <ele>-0.1</ele>
  <time>2026-09-01T01:13:09Z</time>
  <course>223.26</course>
  <speed>0.73</speed>
  <fix>3d</fix>
</trkpt>
<trkpt lat="33.8102614" lon="-118.3939254">
  <ele>-0.112</ele>
  <time>2026-09-01T01:13:09Z</time>
  <course>186.63</course>
  <speed>0.7213875518748573</speed>
  <fix>3d</fix>
</trkpt>
<trkpt lat="33.8102623" lon="-118.3939239">
  <ele>-0.1</ele>
  <time>2026-09-01T01:13:09Z</time>
  <course>223.26</course>
  <speed>0.73</speed>
  <fix>3d</fix>
</trkpt>
<trkpt lat="33.810261" lon="-118.393926">
  <ele>-0.112</ele>
  <time>2026-09-01T01:13:09Z</time>
  <course>186.63</course>
  <speed>0.7213875518748573</speed>
  <fix>3d</fix>
</trkpt>
<trkpt lat="33.8102614" lon="-118.393925">
  <ele>-0.1</ele>
  <time>2026-09-01T01:13:09Z</time>
  <course>223.26</course>
  <speed>0.73</speed>
  <fix>3d</fix>
</trkpt>
<trkpt lat="33.8102605" lon="-118.3939265">
  <ele>-0.112</ele>
  <time>2026-09-01T01:13:09Z</time>
  <course>186.62</course>
  <speed>0.7213875518748573</speed>
  <fix>3d</fix>
</trkpt>
<trkpt lat="33.8102614" lon="-118.393925">
  <ele>-0.1</ele>
  <time>2026-09-01T01:13:09Z</time>
  <course>223.26</course>
  <speed>0.73</speed>
  <fix>3d</fix>
</trkpt>
<trkpt lat="33.81026" lon="-118.3939271">
  <ele>-0.111</ele>
  <time>2026-09-01T01:13:09Z</time>
  <course>186.62</course>
  <speed>0.7213875518748573</speed>
  <fix>3d</fix>
</trkpt>
<trkpt lat="33.8102604" lon="-118.3939261">
  <ele>-0.11</ele>
  <time>2026-09-01T01:13:09Z</time>
  <course>223.26</course>
  <speed>0.73</speed>
  <fix>3d</fix>
</trkpt>
<trkpt lat="33.8102595" lon="-118.3939276">
  <ele>-0.11</ele>
  <time>2026-09-01T01:13:09Z</time>
  <course>186.62</course>
  <speed>0.7213875518748573</speed>
  <fix>3d</fix>
</trkpt>
<trkpt lat="33.8102604" lon="-118.3939261">
  <ele>-0.11</ele>
  <time>2026-09-01T01:13:09Z</time>
  <course>223.26</course>
  <speed>0.73</speed>
  <fix>3d</fix>
</trkpt>
<trkpt lat="33.810259" lon="-118.3939281">
  <ele>-0.11</ele>
  <time>2026-09-01T01:13:09Z</time>
  <course>186.61</course>
  <speed>0.7213875518748573</speed>
  <fix>3d</fix>
</trkpt>
<trkpt lat="33.8102594" lon="-118.3939272">
  <ele>-0.1</ele>
  <time>2026-09-01T01:13:09Z</time>
  <course>223.26</course>
  <speed>0.73</speed>
  <fix>3d</fix>
</trkpt>
<trkpt lat="33.8102586" lon="-118.3939287">
  <ele>-0.111</ele>
  <time>2026-09-01T01:13:09Z</time>
  <course>186.61</course>
  <speed>0.7213875518748573</speed>
  <fix>3d</fix>
</trkpt>
<trkpt lat="33.8102594" lon="-118.3939272">
  <ele>-0.1</ele>
  <time>2026-09-01T01:13:09Z</time>
  <course>223.26</course>
  <speed>0.73</speed>
  <fix>3d</fix>
</trkpt>
<trkpt lat="33.8102581" lon="-118.3939292">
  <ele>-0.113</ele>
  <time>2026-09-01T01:13:09Z</time>
  <course>186.61</course>
  <speed>0.7213875518748573</speed>
  <fix>3d</fix>
</trkpt>
<trkpt lat="33.8102584" lon="-118.3939283">
  <ele>-0.1</ele>
  <time>2026-09-01T01:13:09Z</time>
  <course>223.26</course>
  <speed>0.73</speed>
  <fix>3d</fix>
</trkpt>
<trkpt lat="33.8102576" lon="-118.3939298">
  <ele>-0.115</ele>
  <time>2026-09-01T01:13:09Z</time>
  <course>186.6</course>
  <speed>0.7213875518748573</speed>
  <fix>3d</fix>
</trkpt>
<trkpt lat="33.8102584" lon="-118.3939283">
  <ele>-0.1</ele>
  <time>2026-09-01T01:13:09Z</time>
  <course>223.26</course>
  <speed>0.73</speed>
  <fix>3d</fix>
</trkpt>
<trkpt lat="33.8102571" lon="-118.3939303">
  <ele>-0.116</ele>
  <time>2026-09-01T01:13:09Z</time>
  <course>186.6</course>
  <speed>0.7213875518748573</speed>
  <fix>3d</fix>
</trkpt>
<trkpt lat="33.8102575" lon="-118.3939294">
  <ele>-0.1</ele>
  <time>2026-09-01T01:13:09Z</time>
  <course>223.26</course>
  <speed>0.73</speed>
  <fix>3d</fix>
</trkpt>
<trkpt lat="33.8102566" lon="-118.3939309">
  <ele>-0.118</ele>
  <time>2026-09-01T01:13:09Z</time>
  <course>186.6</course>
  <speed>0.7213875518748573</speed>
  <fix>3d</fix>
</trkpt>
<trkpt lat="33.8102575" lon="-118.3939294">
  <ele>-0.1</ele>
  <time>2026-09-01T01:13:09Z</time>
  <course>223.26</course>
  <speed>0.73</speed>
  <fix>3d</fix>
</trkpt>
<trkpt lat="33.8102561" lon="-118.3939314">
  <ele>-0.119</ele>
  <time>2026-09-01T01:13:09Z</time>
  <course>186.59</course>
  <speed>0.7213875518748573</speed>
  <fix>3d</fix>
</trkpt>
<trkpt lat="33.8102565" lon="-118.3939305">
  <ele>-0.1</ele>
  <time>2026-09-01T01:13:09Z</time>
  <course>223.26</course>
  <speed>0.73</speed>
  <fix>3d</fix>
</trkpt>
<trkpt lat="33.8102557" lon="-118.393932">
  <ele>-0.118</ele>
  <time>2026-09-01T01:13:09Z</time>
  <course>186.59</course>
  <speed>0.7213875518748573</speed>
  <fix>3d</fix>
</trkpt>
<trkpt lat="33.8102565" lon="-118.3939305">
  <ele>-0.1</ele>
  <time>2026-09-01T01:13:09Z</time>
  <course>223.26</course>
  <speed>0.73</speed>
  <fix>3d</fix>
</trkpt>
<trkpt lat="33.8102552" lon="-118.3939325">
  <ele>-0.117</ele>
  <time>2026-09-01T01:13:09Z</time>
  <course>186.59</course>
  <speed>0.7213875518748573</speed>
  <fix>3d</fix>
</trkpt>
<trkpt lat="33.8102556" lon="-118.3939316">
  <ele>-0.11</ele>
  <time>2026-09-01T01:13:09Z</time>
  <course>223.26</course>
  <speed>0.73</speed>
  <fix>3d</fix>
</trkpt>
<trkpt lat="33.8102547" lon="-118.3939331">
  <ele>-0.115</ele>
  <time>2026-09-01T01:13:09Z</time>
  <course>186.58</course>
  <speed>0.7213875518748573</speed>
  <fix>3d</fix>
</trkpt>
<trkpt lat="33.8102556" lon="-118.3939316">
  <ele>-0.11</ele>
  <time>2026-09-01T01:13:09Z</time>
  <course>223.26</course>
  <speed>0.73</speed>
  <fix>3d</fix>
</trkpt>
<trkpt lat="33.8102542" lon="-118.3939336">
  <ele>-0.113</ele>
  <time>2026-09-01T01:13:09Z</time>
  <course>186.58</course>
  <speed>0.7213875518748573</speed>
  <fix>3d</fix>
</trkpt>
<trkpt lat="33.8102546" lon="-118.3939326">
  <ele>-0.1</ele>
  <time>2026-09-01T01:13:09Z</time>
  <course>223.26</course>
  <speed>0.73</speed>
  <fix>3d</fix>
</trkpt>
<trkpt lat="33.8102537" lon="-118.3939342">
  <ele>-0.112</ele>
  <time>2026-09-01T01:13:09Z</time>
  <course>186.58</course>
  <speed>0.7213875518748573</speed>
  <fix>3d</fix>
</trkpt>
<trkpt lat="33.8102546" lon="-118.3939326">
  <ele>-0.1</ele>
  <time>2026-09-01T01:13:09Z</time>
  <course>223.26</course>
  <speed>0.73</speed>
  <fix>3d</fix>
</trkpt>
<trkpt lat="33.8102533" lon="-118.3939347">
  <ele>-0.112</ele>
  <time>2026-09-01T01:13:09Z</time>
  <course>186.57</course>
  <speed>0.7213875518748573</speed>
  <fix>3d</fix>
</trkpt>
<trkpt lat="33.8102536" lon="-118.3939337">
  <ele>-0.1</ele>
  <time>2026-09-01T01:13:09Z</time>
  <course>223.26</course>
  <speed>0.73</speed>
  <fix>3d</fix>
</trkpt>
<trkpt lat="33.8102528" lon="-118.3939352">
  <ele>-0.112</ele>
  <time>2026-09-01T01:13:09Z</time>
  <course>186.57</course>
  <speed>0.7213875518748573</speed>
  <fix>3d</fix>
</trkpt>
<trkpt lat="33.8102536" lon="-118.3939337">
  <ele>-0.1</ele>
  <time>2026-09-01T01:13:09Z</time>
  <course>223.26</course>
  <speed>0.73</speed>
  <fix>3d</fix>
</trkpt>
<trkpt lat="33.8102523" lon="-118.3939358">
  <ele>-0.113</ele>
  <time>2026-09-01T01:13:09Z</time>
  <course>186.57</course>
  <speed>0.7213875518748573</speed>
  <fix>3d</fix>
</trkpt>
<trkpt lat="33.8102527" lon="-118.3939348">
  <ele>-0.1</ele>
  <time>2026-09-01T01:13:09Z</time>
  <course>223.26</course>
  <speed>0.73</speed>
  <fix>3d</fix>
</trkpt>
<trkpt lat="33.8102518" lon="-118.3939363">
  <ele>-0.113</ele>
  <time>2026-09-01T01:13:09Z</time>
  <course>186.56</course>
  <speed>0.7213875518748573</speed>
  <fix>3d</fix>
</trkpt>
<trkpt lat="33.8102527" lon="-118.3939348">
  <ele>-0.1</ele>
  <time>2026-09-01T01:13:09Z</time>
  <course>223.26</course>
  <speed>0.73</speed>
  <fix>3d</fix>
</trkpt>
<trkpt lat="33.8102513" lon="-118.3939369">
  <ele>-0.113</ele>
  <time>2026-09-01T01:13:09Z</time>
  <course>186.56</course>
  <speed>0.7213875518748573</speed>
  <fix>3d</fix>
</trkpt>
<trkpt lat="33.8102517" lon="-118.3939359">
  <ele>-0.1</ele>
  <time>2026-09-01T01:13:09Z</time>
  <course>223.26</course>
  <speed>0.73</speed>
  <fix>3d</fix>
</trkpt>
<trkpt lat="33.8102508" lon="-118.3939374">
  <ele>-0.111</ele>
  <time>2026-09-01T01:13:09Z</time>
  <course>186.56</course>
  <speed>0.7213875518748573</speed>
  <fix>3d</fix>
</trkpt>
<trkpt lat="33.8102517" lon="-118.3939359">
  <ele>-0.1</ele>
  <time>2026-09-01T01:13:09Z</time>
  <course>223.26</course>
  <speed>0.73</speed>
  <fix>3d</fix>
</trkpt>
<trkpt lat="33.8102504" lon="-118.393938">
  <ele>-0.109</ele>
  <time>2026-09-01T01:13:09Z</time>
  <course>186.55</course>
  <speed>0.7213875518748573</speed>
  <fix>3d</fix>
</trkpt>
<trkpt lat="33.8102508" lon="-118.393937">
  <ele>-0.11</ele>
  <time>2026-09-01T01:13:09Z</time>
  <course>223.26</course>
  <speed>0.73</speed>
  <fix>3d</fix>
</trkpt>
<trkpt lat="33.8102499" lon="-118.3939385">
  <ele>-0.108</ele>
  <time>2026-09-01T01:13:09Z</time>
  <course>186.55</course>
  <speed>0.7213875518748573</speed>
  <fix>3d</fix>
</trkpt>
<trkpt lat="33.8102508" lon="-118.393937">
  <ele>-0.11</ele>
  <time>2026-09-01T01:13:09Z</time>
  <course>223.26</course>
  <speed>0.73</speed>
  <fix>3d</fix>
</trkpt>
<trkpt lat="33.8102494" lon="-118.393939">
  <ele>-0.108</ele>
  <time>2026-09-01T01:13:09Z</time>
  <course>186.55</course>
  <speed>0.7213875518748573</speed>
  <fix>3d</fix>
</trkpt>
<trkpt lat="33.8102498" lon="-118.3939381">
  <ele>-0.1</ele>
  <time>2026-09-01T01:13:09Z</time>
  <course>223.26</course>
  <speed>0.73</speed>
  <fix>3d</fix>
</trkpt>
<trkpt lat="33.8102489" lon="-118.3939396">
  <ele>-0.109</ele>
  <time>2026-09-01T01:13:09Z</time>
  <course>186.54</course>
  <speed>0.7213875518748573</speed>
  <fix>3d</fix>
</trkpt>
<trkpt lat="33.8102498" lon="-118.3939381">
  <ele>-0.1</ele>
  <time>2026-09-01T01:13:09Z</time>
  <course>223.26</course>
  <speed>0.73</speed>
  <fix>3d</fix>
</trkpt>
<trkpt lat="33.8102484" lon="-118.3939401">
  <ele>-0.11</ele>
  <time>2026-09-01T01:13:09Z</time>
  <course>186.54</course>
  <speed>0.7213875518748573</speed>
  <fix>3d</fix>
</trkpt>
<trkpt lat="33.8102489" lon="-118.3939392">
  <ele>-0.1</ele>
  <time>2026-09-01T01:13:09Z</time>
  <course>223.26</course>
  <speed>0.73</speed>
  <fix>3d</fix>
</trkpt>
<trkpt lat="33.810248" lon="-118.3939407">
  <ele>-0.111</ele>
  <time>2026-09-01T01:13:09Z</time>
  <course>186.54</course>
  <speed>0.7213875518748573</speed>
  <fix>3d</fix>
</trkpt>
<trkpt lat="33.8102489" lon="-118.3939392">
  <ele>-0.1</ele>
  <time>2026-09-01T01:13:09Z</time>
  <course>223.26</course>
  <speed>0.73</speed>
  <fix>3d</fix>
</trkpt>
<trkpt lat="33.8102475" lon="-118.3939412">
  <ele>-0.113</ele>
  <time>2026-09-01T01:13:09Z</time>
  <course>186.53</course>
  <speed>0.7213875518748573</speed>
  <fix>3d</fix>
</trkpt>
<trkpt lat="33.8102479" lon="-118.3939403">
  <ele>-0.1</ele>
  <time>2026-09-01T01:13:09Z</time>
  <course>223.26</course>
  <speed>0.73</speed>
  <fix>3d</fix>
</trkpt>
<trkpt lat="33.810247" lon="-118.3939418">
  <ele>-0.115</ele>
  <time>2026-09-01T01:13:09Z</time>
  <course>186.53</course>
  <speed>0.7213875518748573</speed>
  <fix>3d</fix>
</trkpt>
<trkpt lat="33.8102479" lon="-118.3939403">
  <ele>-0.1</ele>
  <time>2026-09-01T01:13:09Z</time>
  <course>223.26</course>
  <speed>0.73</speed>
  <fix>3d</fix>
</trkpt>
<trkpt lat="33.8102465" lon="-118.3939423">
  <ele>-0.116</ele>
  <time>2026-09-01T01:13:09Z</time>
  <course>186.53</course>
  <speed>0.7213875518748573</speed>
  <fix>3d</fix>
</trkpt>
<trkpt lat="33.8102469" lon="-118.3939414">
  <ele>-0.1</ele>
  <time>2026-09-01T01:13:09Z</time>
  <course>223.26</course>
  <speed>0.73</speed>
  <fix>3d</fix>
</trkpt>
<trkpt lat="33.810246" lon="-118.3939429">
  <ele>-0.115</ele>
  <time>2026-09-01T01:13:09Z</time>
  <course>186.53</course>
  <speed>0.7213875518748573</speed>
  <fix>3d</fix>
</trkpt>
<trkpt lat="33.8102469" lon="-118.3939414">
  <ele>-0.1</ele>
  <time>2026-09-01T01:13:09Z</time>
  <course>223.26</course>
  <speed>0.73</speed>
  <fix>3d</fix>
</trkpt>
<trkpt lat="33.8102456" lon="-118.3939434">
  <ele>-0.113</ele>
  <time>2026-09-01T01:13:09Z</time>
  <course>186.52</course>
  <speed>0.7213875518748573</speed>
  <fix>3d</fix>
</trkpt>
<trkpt lat="33.810246" lon="-118.3939425">
  <ele>-0.11</ele>
  <time>2026-09-01T01:13:09Z</time>
  <course>223.26</course>
  <speed>0.73</speed>
  <fix>3d</fix>
</trkpt>
<trkpt lat="33.8102451" lon="-118.393944">
  <ele>-0.112</ele>
  <time>2026-09-01T01:13:09Z</time>
  <course>186.52</course>
  <speed>0.7213875518748573</speed>
  <fix>3d</fix>
</trkpt>
<trkpt lat="33.810246" lon="-118.3939425">
  <ele>-0.11</ele>
  <time>2026-09-01T01:13:09Z</time>
  <course>223.26</course>
  <speed>0.73</speed>
  <fix>3d</fix>
</trkpt>
<trkpt lat="33.8102446" lon="-118.3939445">
  <ele>-0.11</ele>
  <time>2026-09-01T01:13:09Z</time>
  <course>186.52</course>
  <speed>0.7213875518748573</speed>
  <fix>3d</fix>
</trkpt>
<trkpt lat="33.8102449" lon="-118.3939435">
  <ele>-0.1</ele>
  <time>2026-09-01T01:13:09Z</time>
  <course>223.26</course>
  <speed>0.73</speed>
  <fix>3d</fix>
</trkpt>
<trkpt lat="33.8102441" lon="-118.3939451">
  <ele>-0.109</ele>
  <time>2026-09-01T01:13:09Z</time>
  <course>186.51</course>
  <speed>0.7213875518748573</speed>
  <fix>3d</fix>
</trkpt>
<trkpt lat="33.8102449" lon="-118.3939435">
  <ele>-0.1</ele>
  <time>2026-09-01T01:13:09Z</time>
  <course>223.26</course>
  <speed>0.73</speed>
  <fix>3d</fix>
</trkpt>
<trkpt lat="33.8102436" lon="-118.3939456">
  <ele>-0.109</ele>
  <time>2026-09-01T01:13:09Z</time>
  <course>186.51</course>
  <speed>0.7213875518748573</speed>
  <fix>3d</fix>
</trkpt>
<trkpt lat="33.810244" lon="-118.3939446">
  <ele>-0.1</ele>
  <time>2026-09-01T01:13:09Z</time>
  <course>223.26</course>
  <speed>0.73</speed>
  <fix>3d</fix>
</trkpt>
<trkpt lat="33.8102431" lon="-118.3939461">
  <ele>-0.11</ele>
  <time>2026-09-01T01:13:09Z</time>
  <course>186.51</course>
  <speed>0.7213875518748573</speed>
  <fix>3d</fix>
</trkpt>
<trkpt lat="33.810244" lon="-118.3939446">
  <ele>-0.1</ele>
  <time>2026-09-01T01:13:09Z</time>
  <course>223.26</course>
  <speed>0.73</speed>
  <fix>3d</fix>
</trkpt>
<trkpt lat="33.8102427" lon="-118.3939467">
  <ele>-0.111</ele>
  <time>2026-09-01T01:13:09Z</time>
  <course>186.5</course>
  <speed>0.7213875518748573</speed>
  <fix>3d</fix>
</trkpt>
<trkpt lat="33.810243" lon="-118.3939457">
  <ele>-0.1</ele>
  <time>2026-09-01T01:13:09Z</time>
  <course>223.26</course>
  <speed>0.73</speed>
  <fix>3d</fix>
</trkpt>
<trkpt lat="33.8102422" lon="-118.3939472">
  <ele>-0.112</ele>
  <time>2026-09-01T01:13:09Z</time>
  <course>186.5</course>
  <speed>0.7213875518748573</speed>
  <fix>3d</fix>
</trkpt>
<trkpt lat="33.810243" lon="-118.3939457">
  <ele>-0.1</ele>
  <time>2026-09-01T01:13:09Z</time>
  <course>223.26</course>
  <speed>0.73</speed>
  <fix>3d</fix>
</trkpt>
<trkpt lat="33.8102417" lon="-118.3939478">
  <ele>-0.113</ele>
  <time>2026-09-01T01:13:09Z</time>
  <course>186.5</course>
  <speed>0.7213875518748573</speed>
  <fix>3d</fix>
</trkpt>
<trkpt lat="33.8102421" lon="-118.3939468">
  <ele>-0.1</ele>
  <time>2026-09-01T01:13:09Z</time>
  <course>223.26</course>
  <speed>0.73</speed>
  <fix>3d</fix>
</trkpt>
<trkpt lat="33.8102412" lon="-118.3939483">
  <ele>-0.113</ele>
  <time>2026-09-01T01:13:09Z</time>
  <course>186.5</course>
  <speed>0.7213875518748573</speed>
  <fix>3d</fix>
</trkpt>
<trkpt lat="33.8102421" lon="-118.3939468">
  <ele>-0.1</ele>
  <time>2026-09-01T01:13:09Z</time>
  <course>223.26</course>
  <speed>0.73</speed>
  <fix>3d</fix>
</trkpt>
<trkpt lat="33.8102407" lon="-118.3939488">
  <ele>-0.112</ele>
  <time>2026-09-01T01:13:09Z</time>
  <course>186.49</course>
  <speed>0.7213875518748573</speed>
  <fix>3d</fix>
</trkpt>
<trkpt lat="33.8102412" lon="-118.3939479">
  <ele>-0.11</ele>
  <time>2026-09-01T01:13:09Z</time>
  <course>223.26</course>
  <speed>0.73</speed>
  <fix>3d</fix>
</trkpt>
<trkpt lat="33.8102402" lon="-118.3939494">
  <ele>-0.11</ele>
  <time>2026-09-01T01:13:09Z</time>
  <course>186.49</course>
  <speed>0.7213875518748573</speed>
  <fix>3d</fix>
</trkpt>
<trkpt lat="33.8102412" lon="-118.3939479">
  <ele>-0.11</ele>
  <time>2026-09-01T01:13:09Z</time>
  <course>223.26</course>
  <speed>0.73</speed>
  <fix>3d</fix>
</trkpt>
<trkpt lat="33.8102398" lon="-118.3939499">
  <ele>-0.11</ele>
  <time>2026-09-01T01:13:09Z</time>
  <course>186.49</course>
  <speed>0.7213875518748573</speed>
  <fix>3d</fix>
</trkpt>
<trkpt lat="33.8102401" lon="-118.393949">
  <ele>-0.1</ele>
  <time>2026-09-01T01:13:09Z</time>
  <course>223.26</course>
  <speed>0.73</speed>
  <fix>3d</fix>
</trkpt>
<trkpt lat="33.8102393" lon="-118.3939505">
  <ele>-0.109</ele>
  <time>2026-09-01T01:13:09Z</time>
  <course>186.49</course>
  <speed>0.7213875518748573</speed>
  <fix>3d</fix>
</trkpt>
<trkpt lat="33.8102401" lon="-118.393949">
  <ele>-0.1</ele>
  <time>2026-09-01T01:13:09Z</time>
  <course>223.26</course>
  <speed>0.73</speed>
  <fix>3d</fix>
</trkpt>
<trkpt lat="33.8102388" lon="-118.393951">
  <ele>-0.11</ele>
  <time>2026-09-01T01:13:09Z</time>
  <course>186.48</course>
  <speed>0.7213875518748573</speed>
  <fix>3d</fix>
</trkpt>
<trkpt lat="33.8102392" lon="-118.3939501">
  <ele>-0.1</ele>
  <time>2026-09-01T01:13:09Z</time>
  <course>223.26</course>
  <speed>0.73</speed>
  <fix>3d</fix>
</trkpt>
<trkpt lat="33.8102383" lon="-118.3939516">
  <ele>-0.112</ele>
  <time>2026-09-01T01:13:09Z</time>
  <course>186.48</course>
  <speed>0.7213875518748573</speed>
  <fix>3d</fix>
</trkpt>
<trkpt lat="33.8102392" lon="-118.3939501">
  <ele>-0.1</ele>
  <time>2026-09-01T01:13:09Z</time>
  <course>223.26</course>
  <speed>0.73</speed>
  <fix>3d</fix>
</trkpt>
<trkpt lat="33.8102378" lon="-118.3939521">
  <ele>-0.115</ele>
  <time>2026-09-01T01:13:09Z</time>
  <course>186.48</course>
  <speed>0.7213875518748573</speed>
  <fix>3d</fix>
</trkpt>
<trkpt lat="33.8102382" lon="-118.3939512">
  <ele>-0.1</ele>
  <time>2026-09-01T01:13:09Z</time>
  <course>223.26</course>
  <speed>0.73</speed>
  <fix>3d</fix>
</trkpt>
<trkpt lat="33.8102373" lon="-118.3939527">
  <ele>-0.117</ele>
  <time>2026-09-01T01:13:09Z</time>
  <course>186.48</course>
  <speed>0.7213875518748573</speed>
  <fix>3d</fix>
</trkpt>
<trkpt lat="33.8102382" lon="-118.3939512">
  <ele>-0.1</ele>
  <time>2026-09-01T01:13:09Z</time>
  <course>223.26</course>
  <speed>0.73</speed>
  <fix>3d</fix>
</trkpt>
<trkpt lat="33.8102369" lon="-118.3939532">
  <ele>-0.118</ele>
  <time>2026-09-01T01:13:09Z</time>
  <course>186.47</course>
  <speed>0.7213875518748573</speed>
  <fix>3d</fix>
</trkpt>
<trkpt lat="33.8102373" lon="-118.3939523">
  <ele>-0.1</ele>
  <time>2026-09-01T01:13:09Z</time>
  <course>223.26</course>
  <speed>0.73</speed>
  <fix>3d</fix>
</trkpt>
<trkpt lat="33.8102364" lon="-118.3939537">
  <ele>-0.117</ele>
  <time>2026-09-01T01:13:09Z</time>
  <course>186.47</course>
  <speed>0.7213875518748573</speed>
  <fix>3d</fix>
</trkpt>
<trkpt lat="33.8102373" lon="-118.3939523">
  <ele>-0.1</ele>
  <time>2026-09-01T01:13:09Z</time>
  <course>223.26</course>
  <speed>0.73</speed>
  <fix>3d</fix>
</trkpt>
<trkpt lat="33.8102359" lon="-118.3939543">
  <ele>-0.116</ele>
  <time>2026-09-01T01:13:09Z</time>
  <course>186.47</course>
  <speed>0.7213875518748573</speed>
  <fix>3d</fix>
</trkpt>
<trkpt lat="33.8102363" lon="-118.3939533">
  <ele>-0.11</ele>
  <time>2026-09-01T01:13:09Z</time>
  <course>223.26</course>
  <speed>0.73</speed>
  <fix>3d</fix>
</trkpt>
<trkpt lat="33.8102354" lon="-118.3939548">
  <ele>-0.115</ele>
  <time>2026-09-01T01:13:09Z</time>
  <course>186.47</course>
  <speed>0.7213875518748573</speed>
  <fix>3d</fix>
</trkpt>
<trkpt lat="33.8102363" lon="-118.3939533">
  <ele>-0.11</ele>
  <time>2026-09-01T01:13:09Z</time>
  <course>223.26</course>
  <speed>0.73</speed>
  <fix>3d</fix>
</trkpt>
<trkpt lat="33.8102349" lon="-118.3939554">
  <ele>-0.114</ele>
  <time>2026-09-01T01:13:09Z</time>
  <course>186.46</course>
  <speed>0.7213875518748573</speed>
  <fix>3d</fix>
</trkpt>
<trkpt lat="33.8102353" lon="-118.3939544">
  <ele>-0.1</ele>
  <time>2026-09-01T01:13:09Z</time>
  <course>223.26</course>
  <speed>0.73</speed>
  <fix>3d</fix>
</trkpt>
<trkpt lat="33.8102345" lon="-118.3939559">
  <ele>-0.114</ele>
  <time>2026-09-01T01:13:09Z</time>
  <course>186.46</course>
  <speed>0.7213875518748573</speed>
  <fix>3d</fix>
</trkpt>
<trkpt lat="33.8102353" lon="-118.3939544">
  <ele>-0.1</ele>
  <time>2026-09-01T01:13:09Z</time>
  <course>223.26</course>
  <speed>0.73</speed>
  <fix>3d</fix>
</trkpt>
<trkpt lat="33.810234" lon="-118.3939564">
  <ele>-0.115</ele>
  <time>2026-09-01T01:13:09Z</time>
  <course>186.46</course>
  <speed>0.7213875518748573</speed>
  <fix>3d</fix>
</trkpt>
<trkpt lat="33.8102344" lon="-118.3939555">
  <ele>-0.1</ele>
  <time>2026-09-01T01:13:09Z</time>
  <course>223.26</course>
  <speed>0.73</speed>
  <fix>3d</fix>
</trkpt>
<trkpt lat="33.8102335" lon="-118.393957">
  <ele>-0.115</ele>
  <time>2026-09-01T01:13:09Z</time>
  <course>186.46</course>
  <speed>0.7213875518748573</speed>
  <fix>3d</fix>
</trkpt>
<trkpt lat="33.8102344" lon="-118.3939555">
  <ele>-0.1</ele>
  <time>2026-09-01T01:13:09Z</time>
  <course>223.26</course>
  <speed>0.73</speed>
  <fix>3d</fix>
</trkpt>
<trkpt lat="33.810233" lon="-118.3939575">
  <ele>-0.115</ele>
  <time>2026-09-01T01:13:09Z</time>
  <course>186.46</course>
  <speed>0.7213875518748573</speed>
  <fix>3d</fix>
</trkpt>
<trkpt lat="33.8102334" lon="-118.3939566">
  <ele>-0.1</ele>
  <time>2026-09-01T01:13:09Z</time>
  <course>223.26</course>
  <speed>0.73</speed>
  <fix>3d</fix>
</trkpt>
<trkpt lat="33.8102325" lon="-118.3939581">
  <ele>-0.115</ele>
  <time>2026-09-01T01:13:09Z</time>
  <course>186.45</course>
  <speed>0.7213875518748573</speed>
  <fix>3d</fix>
</trkpt>
<trkpt lat="33.8102334" lon="-118.3939566">
  <ele>-0.1</ele>
  <time>2026-09-01T01:13:09Z</time>
  <course>223.26</course>
  <speed>0.73</speed>
  <fix>3d</fix>
</trkpt>
<trkpt lat="33.8102321" lon="-118.3939586">
  <ele>-0.114</ele>
  <time>2026-09-01T01:13:09Z</time>
  <course>186.45</course>
  <speed>0.7213875518748573</speed>
  <fix>3d</fix>
</trkpt>
<trkpt lat="33.8102325" lon="-118.3939577">
  <ele>-0.1</ele>
  <time>2026-09-01T01:13:09Z</time>
  <course>223.26</course>
  <speed>0.73</speed>
  <fix>3d</fix>
</trkpt>
<trkpt lat="33.8102316" lon="-118.3939591">
  <ele>-0.113</ele>
  <time>2026-09-01T01:13:09Z</time>
  <course>186.45</course>
  <speed>0.7213875518748573</speed>
  <fix>3d</fix>
</trkpt>
<trkpt lat="33.8102325" lon="-118.3939577">
  <ele>-0.1</ele>
  <time>2026-09-01T01:13:09Z</time>
  <course>223.26</course>
  <speed>0.73</speed>
  <fix>3d</fix>
</trkpt>
<trkpt lat="33.8102311" lon="-118.3939597">
  <ele>-0.112</ele>
  <time>2026-09-01T01:13:09Z</time>
  <course>186.45</course>
  <speed>0.7213875518748573</speed>
  <fix>3d</fix>
</trkpt>
<trkpt lat="33.8102315" lon="-118.3939588">
  <ele>-0.11</ele>
  <time>2026-09-01T01:13:09Z</time>
  <course>223.26</course>
  <speed>0.73</speed>
  <fix>3d</fix>
</trkpt>
<trkpt lat="33.8102306" lon="-118.3939602">
  <ele>-0.111</ele>
  <time>2026-09-01T01:13:09Z</time>
  <course>186.44</course>
  <speed>0.7213875518748573</speed>
  <fix>3d</fix>
</trkpt>
<trkpt lat="33.8102315" lon="-118.3939588">
  <ele>-0.11</ele>
  <time>2026-09-01T01:13:09Z</time>
  <course>223.26</course>
  <speed>0.73</speed>
  <fix>3d</fix>
</trkpt>
<trkpt lat="33.8102302" lon="-118.3939608">
  <ele>-0.111</ele>
  <time>2026-09-01T01:13:09Z</time>
  <course>186.44</course>
  <speed>0.7213875518748573</speed>
  <fix>3d</fix>
</trkpt>
<trkpt lat="33.8102306" lon="-118.3939599">
  <ele>-0.1</ele>
  <time>2026-09-01T01:13:09Z</time>
  <course>223.26</course>
  <speed>0.73</speed>
  <fix>3d</fix>
</trkpt>
<trkpt lat="33.8102297" lon="-118.3939613">
  <ele>-0.11</ele>
  <time>2026-09-01T01:13:09Z</time>
  <course>186.44</course>
  <speed>0.7213875518748573</speed>
  <fix>3d</fix>
</trkpt>
<trkpt lat="33.8102306" lon="-118.3939599">
  <ele>-0.1</ele>
  <time>2026-09-01T01:13:09Z</time>
  <course>223.26</course>
  <speed>0.73</speed>
  <fix>3d</fix>
</trkpt>
<trkpt lat="33.8102292" lon="-118.3939619">
  <ele>-0.109</ele>
  <time>2026-09-01T01:13:09Z</time>
  <course>186.44</course>
  <speed>0.7213875518748573</speed>
  <fix>3d</fix>
</trkpt>
<trkpt lat="33.8102296" lon="-118.393961">
  <ele>-0.1</ele>
  <time>2026-09-01T01:13:09Z</time>
  <course>223.26</course>
  <speed>0.73</speed>
  <fix>3d</fix>
</trkpt>
<trkpt lat="33.8102287" lon="-118.3939624">
  <ele>-0.109</ele>
  <time>2026-09-01T01:13:09Z</time>
  <course>186.44</course>
  <speed>0.7213875518748573</speed>
  <fix>3d</fix>
</trkpt>
<trkpt lat="33.8102296" lon="-118.393961">
  <ele>-0.1</ele>
  <time>2026-09-01T01:13:09Z</time>
  <course>223.26</course>
  <speed>0.73</speed>
  <fix>3d</fix>
</trkpt>
<trkpt lat="33.8102282" lon="-118.3939629">
  <ele>-0.11</ele>
  <time>2026-09-01T01:13:09Z</time>
  <course>186.43</course>
  <speed>0.7213875518748573</speed>
  <fix>3d</fix>
</trkpt>
<trkpt lat="33.8102286" lon="-118.3939621">
  <ele>-0.1</ele>
  <time>2026-09-01T01:13:09Z</time>
  <course>223.26</course>
  <speed>0.73</speed>
  <fix>3d</fix>
</trkpt>
<trkpt lat="33.8102278" lon="-118.3939635">
  <ele>-0.11</ele>
  <time>2026-09-01T01:13:09Z</time>
  <course>186.43</course>
  <speed>0.7213875518748573</speed>
  <fix>3d</fix>
</trkpt>
<trkpt lat="33.8102286" lon="-118.3939621">
  <ele>-0.1</ele>
  <time>2026-09-01T01:13:09Z</time>
  <course>223.26</course>
  <speed>0.73</speed>
  <fix>3d</fix>
</trkpt>
<trkpt lat="33.8102273" lon="-118.393964">
  <ele>-0.111</ele>
  <time>2026-09-01T01:13:09Z</time>
  <course>186.43</course>
  <speed>0.7213875518748573</speed>
  <fix>3d</fix>
</trkpt>
<trkpt lat="33.8102277" lon="-118.3939632">
  <ele>-0.1</ele>
  <time>2026-09-01T01:13:09Z</time>
  <course>223.26</course>
  <speed>0.73</speed>
  <fix>3d</fix>
</trkpt>
<trkpt lat="33.8102268" lon="-118.3939646">
  <ele>-0.112</ele>
  <time>2026-09-01T01:13:09Z</time>
  <course>186.43</course>
  <speed>0.7213875518748573</speed>
  <fix>3d</fix>
</trkpt>
<trkpt lat="33.8102277" lon="-118.3939632">
  <ele>-0.1</ele>
  <time>2026-09-01T01:13:09Z</time>
  <course>223.26</course>
  <speed>0.73</speed>
  <fix>3d</fix>
</trkpt>
<trkpt lat="33.8102263" lon="-118.3939651">
  <ele>-0.112</ele>
  <time>2026-09-01T01:13:09Z</time>
  <course>186.43</course>
  <speed>0.7213875518748573</speed>
  <fix>3d</fix>
</trkpt>
<trkpt lat="33.8102267" lon="-118.3939642">
  <ele>-0.11</ele>
  <time>2026-09-01T01:13:09Z</time>
  <course>223.26</course>
  <speed>0.73</speed>
  <fix>3d</fix>
</trkpt>
<trkpt lat="33.8102258" lon="-118.3939657">
  <ele>-0.111</ele>
  <time>2026-09-01T01:13:09Z</time>
  <course>186.42</course>
  <speed>0.7213875518748573</speed>
  <fix>3d</fix>
</trkpt>
<trkpt lat="33.8102267" lon="-118.3939642">
  <ele>-0.11</ele>
  <time>2026-09-01T01:13:09Z</time>
  <course>223.26</course>
  <speed>0.73</speed>
  <fix>3d</fix>
</trkpt>
<trkpt lat="33.8102254" lon="-118.3939662">
  <ele>-0.109</ele>
  <time>2026-09-01T01:13:09Z</time>
  <course>186.42</course>
  <speed>0.7213875518748573</speed>
  <fix>3d</fix>
</trkpt>
<trkpt lat="33.8102258" lon="-118.3939653">
  <ele>-0.1</ele>
  <time>2026-09-01T01:13:09Z</time>
  <course>223.26</course>
  <speed>0.73</speed>
  <fix>3d</fix>
</trkpt>
<trkpt lat="33.8102249" lon="-118.3939667">
  <ele>-0.108</ele>
  <time>2026-09-01T01:13:09Z</time>
  <course>186.42</course>
  <speed>0.7213875518748573</speed>
  <fix>3d</fix>
</trkpt>
<trkpt lat="33.8102258" lon="-118.3939653">
  <ele>-0.1</ele>
  <time>2026-09-01T01:13:09Z</time>
  <course>223.26</course>
  <speed>0.73</speed>
  <fix>3d</fix>
</trkpt>
<trkpt lat="33.8102244" lon="-118.3939673">
  <ele>-0.108</ele>
  <time>2026-09-01T01:13:09Z</time>
  <course>186.42</course>
  <speed>0.7213875518748573</speed>
  <fix>3d</fix>
</trkpt>
<trkpt lat="33.8102248" lon="-118.3939664">
  <ele>-0.1</ele>
  <time>2026-09-01T01:13:09Z</time>
  <course>223.26</course>
  <speed>0.73</speed>
  <fix>3d</fix>
</trkpt>
<trkpt lat="33.8102239" lon="-118.3939678">
  <ele>-0.109</ele>
  <time>2026-09-01T01:13:09Z</time>
  <course>186.42</course>
  <speed>0.7213875518748573</speed>
  <fix>3d</fix>
</trkpt>
<trkpt lat="33.8102248" lon="-118.3939664">
  <ele>-0.1</ele>
  <time>2026-09-01T01:13:09Z</time>
  <course>223.26</course>
  <speed>0.73</speed>
  <fix>3d</fix>
</trkpt>
<trkpt lat="33.8102235" lon="-118.3939684">
  <ele>-0.109</ele>
  <time>2026-09-01T01:13:09Z</time>
  <course>186.42</course>
  <speed>0.7213875518748573</speed>
  <fix>3d</fix>
</trkpt>
<trkpt lat="33.8102238" lon="-118.3939675">
  <ele>-0.1</ele>
  <time>2026-09-01T01:13:09Z</time>
  <course>223.26</course>
  <speed>0.73</speed>
  <fix>3d</fix>
</trkpt>
<trkpt lat="33.810223" lon="-118.3939689">
  <ele>-0.109</ele>
  <time>2026-09-01T01:13:09Z</time>
  <course>186.41</course>
  <speed>0.7213875518748573</speed>
  <fix>3d</fix>
</trkpt>
<trkpt lat="33.8102238" lon="-118.3939675">
  <ele>-0.1</ele>
  <time>2026-09-01T01:13:09Z</time>
  <course>223.26</course>
  <speed>0.73</speed>
  <fix>3d</fix>
</trkpt>
<trkpt lat="33.8102225" lon="-118.3939695">
  <ele>-0.109</ele>
  <time>2026-09-01T01:13:09Z</time>
  <course>186.41</course>
  <speed>0.7213875518748573</speed>
  <fix>3d</fix>
</trkpt>
<trkpt lat="33.8102229" lon="-118.3939686">
  <ele>-0.1</ele>
  <time>2026-09-01T01:13:09Z</time>
  <course>223.26</course>
  <speed>0.73</speed>
  <fix>3d</fix>
</trkpt>
<trkpt lat="33.810222" lon="-118.39397">
  <ele>-0.109</ele>
  <time>2026-09-01T01:13:09Z</time>
  <course>186.41</course>
  <speed>0.7213875518748573</speed>
  <fix>3d</fix>
</trkpt>
<trkpt lat="33.8102229" lon="-118.3939686">
  <ele>-0.1</ele>
  <time>2026-09-01T01:13:09Z</time>
  <course>223.26</course>
  <speed>0.73</speed>
  <fix>3d</fix>
</trkpt>
<trkpt lat="33.8102215" lon="-118.3939705">
  <ele>-0.107</ele>
  <time>2026-09-01T01:13:09Z</time>
  <course>186.41</course>
  <speed>0.7213875518748573</speed>
  <fix>3d</fix>
</trkpt>
<trkpt lat="33.8102219" lon="-118.3939697">
  <ele>-0.11</ele>
  <time>2026-09-01T01:13:09Z</time>
  <course>223.26</course>
  <speed>0.73</speed>
  <fix>3d</fix>
</trkpt>
<trkpt lat="33.8102211" lon="-118.3939711">
  <ele>-0.105</ele>
  <time>2026-09-01T01:13:09Z</time>
  <course>186.41</course>
  <speed>0.7213875518748573</speed>
  <fix>3d</fix>
</trkpt>
<trkpt lat="33.8102219" lon="-118.3939697">
  <ele>-0.11</ele>
  <time>2026-09-01T01:13:09Z</time>
  <course>223.26</course>
  <speed>0.73</speed>
  <fix>3d</fix>
</trkpt>
<trkpt lat="33.8102206" lon="-118.3939716">
  <ele>-0.104</ele>
  <time>2026-09-01T01:13:09Z</time>
  <course>186.4</course>
  <speed>0.7213875518748573</speed>
  <fix>3d</fix>
</trkpt>
<trkpt lat="33.810221" lon="-118.3939708">
  <ele>-0.1</ele>
  <time>2026-09-01T01:13:09Z</time>
  <course>223.26</course>
  <speed>0.73</speed>
  <fix>3d</fix>
</trkpt>
<trkpt lat="33.8102201" lon="-118.3939722">
  <ele>-0.102</ele>
  <time>2026-09-01T01:13:09Z</time>
  <course>186.4</course>
  <speed>0.7213875518748573</speed>
  <fix>3d</fix>
</trkpt>
<trkpt lat="33.810221" lon="-118.3939708">
  <ele>-0.1</ele>
  <time>2026-09-01T01:13:09Z</time>
  <course>223.26</course>
  <speed>0.73</speed>
  <fix>3d</fix>
</trkpt>
<trkpt lat="33.8102196" lon="-118.3939727">
  <ele>-0.102</ele>
  <time>2026-09-01T01:13:09Z</time>
  <course>186.4</course>
  <speed>0.7213875518748573</speed>
  <fix>3d</fix>
</trkpt>
<trkpt lat="33.81022" lon="-118.3939719">
  <ele>-0.1</ele>
  <time>2026-09-01T01:13:09Z</time>
  <course>223.26</course>
  <speed>0.73</speed>
  <fix>3d</fix>
</trkpt>
<trkpt lat="33.8102191" lon="-118.3939733">
  <ele>-0.102</ele>
  <time>2026-09-01T01:13:09Z</time>
  <course>186.4</course>
  <speed>0.7213875518748573</speed>
  <fix>3d</fix>
</trkpt>
<trkpt lat="33.81022" lon="-118.3939719">
  <ele>-0.1</ele>
  <time>2026-09-01T01:13:09Z</time>
  <course>223.26</course>
  <speed>0.73</speed>
  <fix>3d</fix>
</trkpt>
<trkpt lat="33.8102187" lon="-118.3939738">
  <ele>-0.104</ele>
  <time>2026-09-01T01:13:09Z</time>
  <course>186.4</course>
  <speed>0.7213875518748573</speed>
  <fix>3d</fix>
</trkpt>
<trkpt lat="33.810219" lon="-118.393973">
  <ele>-0.1</ele>
  <time>2026-09-01T01:13:09Z</time>
  <course>223.26</course>
  <speed>0.73</speed>
  <fix>3d</fix>
</trkpt>
<trkpt lat="33.8102182" lon="-118.3939744">
  <ele>-0.105</ele>
  <time>2026-09-01T01:13:09Z</time>
  <course>186.4</course>
  <speed>0.7213875518748573</speed>
  <fix>3d</fix>
</trkpt>
<trkpt lat="33.810219" lon="-118.393973">
  <ele>-0.1</ele>
  <time>2026-09-01T01:13:09Z</time>
  <course>223.26</course>
  <speed>0.73</speed>
  <fix>3d</fix>
</trkpt>
<trkpt lat="33.8102177" lon="-118.3939749">
  <ele>-0.107</ele>
  <time>2026-09-01T01:13:09Z</time>
  <course>186.4</course>
  <speed>0.7213875518748573</speed>
  <fix>3d</fix>
</trkpt>
<trkpt lat="33.8102181" lon="-118.393974">
  <ele>-0.1</ele>
  <time>2026-09-01T01:13:09Z</time>
  <course>223.26</course>
  <speed>0.73</speed>
  <fix>3d</fix>
</trkpt>
<trkpt lat="33.8102172" lon="-118.3939755">
  <ele>-0.107</ele>
  <time>2026-09-01T01:13:09Z</time>
  <course>186.39</course>
  <speed>0.7213875518748573</speed>
  <fix>3d</fix>
</trkpt>
<trkpt lat="33.8102181" lon="-118.393974">
  <ele>-0.1</ele>
  <time>2026-09-01T01:13:09Z</time>
  <course>223.26</course>
  <speed>0.73</speed>
  <fix>3d</fix>
</trkpt>
<trkpt lat="33.8102167" lon="-118.393976">
  <ele>-0.107</ele>
  <time>2026-09-01T01:13:09Z</time>
  <course>186.39</course>
  <speed>0.7213875518748573</speed>
  <fix>3d</fix>
</trkpt>
<trkpt lat="33.8102171" lon="-118.3939751">
  <ele>-0.11</ele>
  <time>2026-09-01T01:13:09Z</time>
  <course>223.26</course>
  <speed>0.73</speed>
  <fix>3d</fix>
</trkpt>
<trkpt lat="33.8102162" lon="-118.3939766">
  <ele>-0.106</ele>
  <time>2026-09-01T01:13:09Z</time>
  <course>186.39</course>
  <speed>0.7213875518748573</speed>
  <fix>3d</fix>
</trkpt>
<trkpt lat="33.8102171" lon="-118.3939751">
  <ele>-0.11</ele>
  <time>2026-09-01T01:13:09Z</time>
  <course>223.26</course>
  <speed>0.73</speed>
  <fix>3d</fix>
</trkpt>
<trkpt lat="33.8102158" lon="-118.3939771">
  <ele>-0.106</ele>
  <time>2026-09-01T01:13:09Z</time>
  <course>186.39</course>
  <speed>0.7213875518748573</speed>
  <fix>3d</fix>
</trkpt>
<trkpt lat="33.8102162" lon="-118.3939762">
  <ele>-0.1</ele>
  <time>2026-09-01T01:13:09Z</time>
  <course>223.26</course>
  <speed>0.73</speed>
  <fix>3d</fix>
</trkpt>
<trkpt lat="33.8102153" lon="-118.3939776">
  <ele>-0.107</ele>
  <time>2026-09-01T01:13:09Z</time>
  <course>186.39</course>
  <speed>0.7213875518748573</speed>
  <fix>3d</fix>
</trkpt>
<trkpt lat="33.8102162" lon="-118.3939762">
  <ele>-0.1</ele>
  <time>2026-09-01T01:13:09Z</time>
  <course>223.26</course>
  <speed>0.73</speed>
  <fix>3d</fix>
</trkpt>
<trkpt lat="33.8102148" lon="-118.3939782">
  <ele>-0.108</ele>
  <time>2026-09-01T01:13:09Z</time>
  <course>186.39</course>
  <speed>0.7213875518748573</speed>
  <fix>3d</fix>
</trkpt>
<trkpt lat="33.8102152" lon="-118.3939773">
  <ele>-0.1</ele>
  <time>2026-09-01T01:13:09Z</time>
  <course>223.26</course>
  <speed>0.73</speed>
  <fix>3d</fix>
</trkpt>
<trkpt lat="33.8102143" lon="-118.3939787">
  <ele>-0.111</ele>
  <time>2026-09-01T01:13:09Z</time>
  <course>186.38</course>
  <speed>0.7213875518748573</speed>
  <fix>3d</fix>
</trkpt>
<trkpt lat="33.8102152" lon="-118.3939773">
  <ele>-0.1</ele>
  <time>2026-09-01T01:13:09Z</time>
  <course>223.26</course>
  <speed>0.73</speed>
  <fix>3d</fix>
</trkpt>
<trkpt lat="33.8102138" lon="-118.3939793">
  <ele>-0.113</ele>
  <time>2026-09-01T01:13:09Z</time>
  <course>186.38</course>
  <speed>0.7213875518748573</speed>
  <fix>3d</fix>
</trkpt>
<trkpt lat="33.8102142" lon="-118.3939784">
  <ele>-0.1</ele>
  <time>2026-09-01T01:13:09Z</time>
  <course>223.26</course>
  <speed>0.73</speed>
  <fix>3d</fix>
</trkpt>
<trkpt lat="33.8102134" lon="-118.3939798">
  <ele>-0.115</ele>
  <time>2026-09-01T01:13:09Z</time>
  <course>186.38</course>
  <speed>0.7213875518748573</speed>
  <fix>3d</fix>
</trkpt>
<trkpt lat="33.8102142" lon="-118.3939784">
  <ele>-0.1</ele>
  <time>2026-09-01T01:13:09Z</time>
  <course>223.26</course>
  <speed>0.73</speed>
  <fix>3d</fix>
</trkpt>
<trkpt lat="33.8102129" lon="-118.3939804">
  <ele>-0.117</ele>
  <time>2026-09-01T01:13:09Z</time>
  <course>186.38</course>
  <speed>0.7213875518748573</speed>
  <fix>3d</fix>
</trkpt>
<trkpt lat="33.8102133" lon="-118.3939795">
  <ele>-0.1</ele>
  <time>2026-09-01T01:13:09Z</time>
  <course>223.26</course>
  <speed>0.73</speed>
  <fix>3d</fix>
</trkpt>
<trkpt lat="33.8102124" lon="-118.3939809">
  <ele>-0.118</ele>
  <time>2026-09-01T01:13:09Z</time>
  <course>186.38</course>
  <speed>0.7213875518748573</speed>
  <fix>3d</fix>
</trkpt>
<trkpt lat="33.8102133" lon="-118.3939795">
  <ele>-0.1</ele>
  <time>2026-09-01T01:13:09Z</time>
  <course>223.26</course>
  <speed>0.73</speed>
  <fix>3d</fix>
</trkpt>
<trkpt lat="33.8102119" lon="-118.3939815">
  <ele>-0.118</ele>
  <time>2026-09-01T01:13:09Z</time>
  <course>186.38</course>
  <speed>0.7283543093852057</speed>
  <fix>3d</fix>
</trkpt>
<trkpt lat="33.8102122" lon="-118.3939806">
  <ele>-0.11</ele>
  <time>2026-09-01T01:13:09Z</time>
  <course>223.26</course>
  <speed>0.73</speed>
  <fix>3d</fix>
</trkpt>
<trkpt lat="33.8102114" lon="-118.393982">
  <ele>-0.118</ele>
  <time>2026-09-01T01:13:09Z</time>
  <course>186.38</course>
  <speed>0.7283543093852057</speed>
  <fix>3d</fix>
</trkpt>
<trkpt lat="33.8102122" lon="-118.3939806">
  <ele>-0.11</ele>
  <time>2026-09-01T01:13:09Z</time>
  <course>223.26</course>
  <speed>0.73</speed>
  <fix>3d</fix>
</trkpt>
<trkpt lat="33.8102109" lon="-118.3939825">
  <ele>-0.117</ele>
  <time>2026-09-01T01:13:09Z</time>
  <course>186.37</course>
  <speed>0.7283543093852057</speed>
  <fix>3d</fix>
</trkpt>
<trkpt lat="33.8102113" lon="-118.3939817">
  <ele>-0.1</ele>
  <time>2026-09-01T01:13:09Z</time>
  <course>223.26</course>
  <speed>0.73</speed>
  <fix>3d</fix>
</trkpt>
<trkpt lat="33.8102105" lon="-118.3939831">
  <ele>-0.116</ele>
  <time>2026-09-01T01:13:09Z</time>
  <course>186.37</course>
  <speed>0.7283543093852057</speed>
  <fix>3d</fix>
</trkpt>
<trkpt lat="33.8102113" lon="-118.3939817">
  <ele>-0.1</ele>
  <time>2026-09-01T01:13:09Z</time>
  <course>223.26</course>
  <speed>0.73</speed>
  <fix>3d</fix>
</trkpt>
<trkpt lat="33.81021" lon="-118.3939836">
  <ele>-0.115</ele>
  <time>2026-09-01T01:13:09Z</time>
  <course>186.37</course>
  <speed>0.7283543093852057</speed>
  <fix>3d</fix>
</trkpt>
<trkpt lat="33.8102104" lon="-118.3939828">
  <ele>-0.1</ele>
  <time>2026-09-01T01:13:09Z</time>
  <course>223.26</course>
  <speed>0.73</speed>
  <fix>3d</fix>
</trkpt>
<trkpt lat="33.8102095" lon="-118.3939842">
  <ele>-0.115</ele>
  <time>2026-09-01T01:13:09Z</time>
  <course>186.37</course>
  <speed>0.7283543093852057</speed>
  <fix>3d</fix>
</trkpt>
<trkpt lat="33.8102104" lon="-118.3939828">
  <ele>-0.1</ele>
  <time>2026-09-01T01:13:09Z</time>
  <course>223.26</course>
  <speed>0.73</speed>
  <fix>3d</fix>
</trkpt>
<trkpt lat="33.810209" lon="-118.3939847">
  <ele>-0.115</ele>
  <time>2026-09-01T01:13:09Z</time>
  <course>186.37</course>
  <speed>0.7283543093852057</speed>
  <fix>3d</fix>
</trkpt>
<trkpt lat="33.8102094" lon="-118.3939839">
  <ele>-0.1</ele>
  <time>2026-09-01T01:13:09Z</time>
  <course>223.26</course>
  <speed>0.73</speed>
  <fix>3d</fix>
</trkpt>
<trkpt lat="33.8102085" lon="-118.3939853">
  <ele>-0.115</ele>
  <time>2026-09-01T01:13:09Z</time>
  <course>186.37</course>
  <speed>0.7283543093852057</speed>
  <fix>3d</fix>
</trkpt>
<trkpt lat="33.8102094" lon="-118.3939839">
  <ele>-0.1</ele>
  <time>2026-09-01T01:13:09Z</time>
  <course>223.26</course>
  <speed>0.73</speed>
  <fix>3d</fix>
</trkpt>
<trkpt lat="33.810208" lon="-118.3939858">
  <ele>-0.113</ele>
  <time>2026-09-01T01:13:09Z</time>
  <course>186.37</course>
  <speed>0.7283543093852057</speed>
  <fix>3d</fix>
</trkpt>
<trkpt lat="33.8102085" lon="-118.3939849">
  <ele>-0.1</ele>
  <time>2026-09-01T01:13:09Z</time>
  <course>223.26</course>
  <speed>0.73</speed>
  <fix>3d</fix>
</trkpt>
<trkpt lat="33.8102076" lon="-118.3939864">
  <ele>-0.111</ele>
  <time>2026-09-01T01:13:09Z</time>
  <course>186.36</course>
  <speed>0.7283543093852057</speed>
  <fix>3d</fix>
</trkpt>
<trkpt lat="33.8102085" lon="-118.3939849">
  <ele>-0.1</ele>
  <time>2026-09-01T01:13:09Z</time>
  <course>223.26</course>
  <speed>0.73</speed>
  <fix>3d</fix>
</trkpt>
<trkpt lat="33.8102071" lon="-118.3939869">
  <ele>-0.109</ele>
  <time>2026-09-01T01:13:09Z</time>
  <course>186.36</course>
  <speed>0.7283543093852057</speed>
  <fix>3d</fix>
</trkpt>
<trkpt lat="33.8102075" lon="-118.393986">
  <ele>-0.11</ele>
  <time>2026-09-01T01:13:09Z</time>
  <course>223.26</course>
  <speed>0.73</speed>
  <fix>3d</fix>
</trkpt>
<trkpt lat="33.8102066" lon="-118.3939875">
  <ele>-0.107</ele>
  <time>2026-09-01T01:13:09Z</time>
  <course>186.36</course>
  <speed>0.7283543093852057</speed>
  <fix>3d</fix>
</trkpt>
<trkpt lat="33.8102075" lon="-118.393986">
  <ele>-0.11</ele>
  <time>2026-09-01T01:13:09Z</time>
  <course>223.26</course>
  <speed>0.73</speed>
  <fix>3d</fix>
</trkpt>
<trkpt lat="33.8102061" lon="-118.393988">
  <ele>-0.105</ele>
  <time>2026-09-01T01:13:09Z</time>
  <course>186.36</course>
  <speed>0.7283543093852057</speed>
  <fix>3d</fix>
</trkpt>
<trkpt lat="33.8102065" lon="-118.3939871">
  <ele>-0.1</ele>
  <time>2026-09-01T01:13:09Z</time>
  <course>223.26</course>
  <speed>0.73</speed>
  <fix>3d</fix>
</trkpt>
<trkpt lat="33.8102056" lon="-118.3939886">
  <ele>-0.103</ele>
  <time>2026-09-01T01:13:09Z</time>
  <course>186.36</course>
  <speed>0.7283543093852057</speed>
  <fix>3d</fix>
</trkpt>
<trkpt lat="33.8102065" lon="-118.3939871">
  <ele>-0.1</ele>
  <time>2026-09-01T01:13:09Z</time>
  <course>223.26</course>
  <speed>0.73</speed>
  <fix>3d</fix>
</trkpt>
<trkpt lat="33.8102052" lon="-118.3939891">
  <ele>-0.102</ele>
  <time>2026-09-01T01:13:09Z</time>
  <course>186.36</course>
  <speed>0.7283543093852057</speed>
  <fix>3d</fix>
</trkpt>
<trkpt lat="33.8102055" lon="-118.3939882">
  <ele>-0.1</ele>
  <time>2026-09-01T01:13:09Z</time>
  <course>223.26</course>
  <speed>0.73</speed>
  <fix>3d</fix>
</trkpt>
<trkpt lat="33.8102047" lon="-118.3939896">
  <ele>-0.102</ele>
  <time>2026-09-01T01:13:09Z</time>
  <course>186.36</course>
  <speed>0.7283543093852057</speed>
  <fix>3d</fix>
</trkpt>
<trkpt lat="33.8102055" lon="-118.3939882">
  <ele>-0.1</ele>
  <time>2026-09-01T01:13:09Z</time>
  <course>223.26</course>
  <speed>0.73</speed>
  <fix>3d</fix>
</trkpt>
<trkpt lat="33.8102042" lon="-118.3939902">
  <ele>-0.101</ele>
  <time>2026-09-01T01:13:09Z</time>
  <course>186.36</course>
  <speed>0.7283543093852057</speed>
  <fix>3d</fix>
</trkpt>
<trkpt lat="33.8102046" lon="-118.3939893">
  <ele>-0.1</ele>
  <time>2026-09-01T01:13:09Z</time>
  <course>223.26</course>
  <speed>0.73</speed>
  <fix>3d</fix>
</trkpt>
<trkpt lat="33.8102037" lon="-118.3939907">
  <ele>-0.102</ele>
  <time>2026-09-01T01:13:09Z</time>
  <course>186.35</course>
  <speed>0.7283543093852057</speed>
  <fix>3d</fix>
</trkpt>
<trkpt lat="33.8102046" lon="-118.3939893">
  <ele>-0.1</ele>
  <time>2026-09-01T01:13:09Z</time>
  <course>223.26</course>
  <speed>0.73</speed>
  <fix>3d</fix>
</trkpt>
<trkpt lat="33.8102032" lon="-118.3939913">
  <ele>-0.103</ele>
  <time>2026-09-01T01:13:09Z</time>
  <course>186.35</course>
  <speed>0.7283543093852057</speed>
  <fix>3d</fix>
</trkpt>
<trkpt lat="33.8102036" lon="-118.3939904">
  <ele>-0.1</ele>
  <time>2026-09-01T01:13:09Z</time>
  <course>223.26</course>
  <speed>0.73</speed>
  <fix>3d</fix>
</trkpt>
<trkpt lat="33.8102027" lon="-118.3939918">
  <ele>-0.104</ele>
  <time>2026-09-01T01:13:09Z</time>
  <course>186.35</course>
  <speed>0.7283543093852057</speed>
  <fix>3d</fix>
</trkpt>
<trkpt lat="33.8102036" lon="-118.3939904">
  <ele>-0.1</ele>
  <time>2026-09-01T01:13:09Z</time>
  <course>223.26</course>
  <speed>0.73</speed>
  <fix>3d</fix>
</trkpt>
<trkpt lat="33.8102023" lon="-118.3939924">
  <ele>-0.103</ele>
  <time>2026-09-01T01:13:09Z</time>
  <course>186.35</course>
  <speed>0.7283543093852057</speed>
  <fix>3d</fix>
</trkpt>
<trkpt lat="33.8102027" lon="-118.3939915">
  <ele>-0.11</ele>
  <time>2026-09-01T01:13:09Z</time>
  <course>223.26</course>
  <speed>0.73</speed>
  <fix>3d</fix>
</trkpt>
<trkpt lat="33.8102018" lon="-118.3939929">
  <ele>-0.102</ele>
  <time>2026-09-01T01:13:09Z</time>
  <course>186.35</course>
  <speed>0.7283543093852057</speed>
  <fix>3d</fix>
</trkpt>
<trkpt lat="33.8102027" lon="-118.3939915">
  <ele>-0.11</ele>
  <time>2026-09-01T01:13:09Z</time>
  <course>223.26</course>
  <speed>0.73</speed>
  <fix>3d</fix>
</trkpt>
<trkpt lat="33.8102013" lon="-118.3939935">
  <ele>-0.101</ele>
  <time>2026-09-01T01:13:09Z</time>
  <course>186.35</course>
  <speed>0.7283543093852057</speed>
  <fix>3d</fix>
</trkpt>
<trkpt lat="33.8102017" lon="-118.3939926">
  <ele>-0.1</ele>
  <time>2026-09-01T01:13:09Z</time>
  <course>223.26</course>
  <speed>0.73</speed>
  <fix>3d</fix>
</trkpt>
<trkpt lat="33.8102008" lon="-118.393994">
  <ele>-0.1</ele>
  <time>2026-09-01T01:13:09Z</time>
  <course>186.35</course>
  <speed>0.7283543093852057</speed>
  <fix>3d</fix>
</trkpt>
<trkpt lat="33.8102017" lon="-118.3939926">
  <ele>-0.1</ele>
  <time>2026-09-01T01:13:09Z</time>
  <course>223.26</course>
  <speed>0.73</speed>
  <fix>3d</fix>
</trkpt>
<trkpt lat="33.8102003" lon="-118.3939946">
  <ele>-0.1</ele>
  <time>2026-09-01T01:13:09Z</time>
  <course>186.35</course>
  <speed>0.7283543093852057</speed>
  <fix>3d</fix>
</trkpt>
<trkpt lat="33.8102007" lon="-118.3939937">
  <ele>-0.1</ele>
  <time>2026-09-01T01:13:09Z</time>
  <course>223.26</course>
  <speed>0.73</speed>
  <fix>3d</fix>
</trkpt>
<trkpt lat="33.8101998" lon="-118.3939951">
  <ele>-0.101</ele>
  <time>2026-09-01T01:13:09Z</time>
  <course>186.34</course>
  <speed>0.7283543093852057</speed>
  <fix>3d</fix>
</trkpt>
<trkpt lat="33.8102007" lon="-118.3939937">
  <ele>-0.1</ele>
  <time>2026-09-01T01:13:09Z</time>
  <course>223.26</course>
  <speed>0.73</speed>
  <fix>3d</fix>
</trkpt>
<trkpt lat="33.8101994" lon="-118.3939957">
  <ele>-0.103</ele>
  <time>2026-09-01T01:13:09Z</time>
  <course>186.34</course>
  <speed>0.7283543093852057</speed>
  <fix>3d</fix>
</trkpt>
<trkpt lat="33.8101998" lon="-118.3939948">
  <ele>-0.1</ele>
  <time>2026-09-01T01:13:09Z</time>
  <course>223.26</course>
  <speed>0.73</speed>
  <fix>3d</fix>
</trkpt>
<trkpt lat="33.8101989" lon="-118.3939962">
  <ele>-0.104</ele>
  <time>2026-09-01T01:13:09Z</time>
  <course>186.34</course>
  <speed>0.7283543093852057</speed>
  <fix>3d</fix>
</trkpt>
<trkpt lat="33.8101998" lon="-118.3939948">
  <ele>-0.1</ele>
  <time>2026-09-01T01:13:09Z</time>
  <course>223.26</course>
  <speed>0.73</speed>
  <fix>3d</fix>
</trkpt>
<trkpt lat="33.8101984" lon="-118.3939968">
  <ele>-0.104</ele>
  <time>2026-09-01T01:13:09Z</time>
  <course>186.34</course>
  <speed>0.7283543093852057</speed>
  <fix>3d</fix>
</trkpt>
<trkpt lat="33.8101988" lon="-118.3939958">
  <ele>-0.1</ele>
  <time>2026-09-01T01:13:09Z</time>
  <course>223.26</course>
  <speed>0.73</speed>
  <fix>3d</fix>
</trkpt>
<trkpt lat="33.8101979" lon="-118.3939973">
  <ele>-0.104</ele>
  <time>2026-09-01T01:13:09Z</time>
  <course>186.34</course>
  <speed>0.7283543093852057</speed>
  <fix>3d</fix>
</trkpt>
<trkpt lat="33.8101988" lon="-118.3939958">
  <ele>-0.1</ele>
  <time>2026-09-01T01:13:09Z</time>
  <course>223.26</course>
  <speed>0.73</speed>
  <fix>3d</fix>
</trkpt>
<trkpt lat="33.8101974" lon="-118.3939978">
  <ele>-0.104</ele>
  <time>2026-09-01T01:13:09Z</time>
  <course>186.34</course>
  <speed>0.7283543093852057</speed>
  <fix>3d</fix>
</trkpt>
<trkpt lat="33.8101979" lon="-118.3939969">
  <ele>-0.11</ele>
  <time>2026-09-01T01:13:09Z</time>
  <course>223.26</course>
  <speed>0.73</speed>
  <fix>3d</fix>
</trkpt>
<trkpt lat="33.8101969" lon="-118.3939984">
  <ele>-0.104</ele>
  <time>2026-09-01T01:13:09Z</time>
  <course>186.34</course>
  <speed>0.7283543093852057</speed>
  <fix>3d</fix>
</trkpt>
<trkpt lat="33.8101979" lon="-118.3939969">
  <ele>-0.11</ele>
  <time>2026-09-01T01:13:09Z</time>
  <course>223.26</course>
  <speed>0.73</speed>
  <fix>3d</fix>
</trkpt>
<trkpt lat="33.8101965" lon="-118.3939989">
  <ele>-0.104</ele>
  <time>2026-09-01T01:13:09Z</time>
  <course>186.34</course>
  <speed>0.7283543093852057</speed>
  <fix>3d</fix>
</trkpt>
<trkpt lat="33.8101969" lon="-118.393998">
  <ele>-0.1</ele>
  <time>2026-09-01T01:13:09Z</time>
  <course>223.26</course>
  <speed>0.73</speed>
  <fix>3d</fix>
</trkpt>
<trkpt lat="33.810196" lon="-118.3939995">
  <ele>-0.104</ele>
  <time>2026-09-01T01:13:09Z</time>
  <course>186.34</course>
  <speed>0.7283543093852057</speed>
  <fix>3d</fix>
</trkpt>
<trkpt lat="33.8101969" lon="-118.393998">
  <ele>-0.1</ele>
  <time>2026-09-01T01:13:09Z</time>
  <course>223.26</course>
  <speed>0.73</speed>
  <fix>3d</fix>
</trkpt>
<trkpt lat="33.8101955" lon="-118.394">
  <ele>-0.104</ele>
  <time>2026-09-01T01:13:09Z</time>
  <course>186.33</course>
  <speed>0.7283543093852057</speed>
  <fix>3d</fix>
</trkpt>
<trkpt lat="33.810196" lon="-118.3939991">
  <ele>-0.1</ele>
  <time>2026-09-01T01:13:09Z</time>
  <course>223.26</course>
  <speed>0.73</speed>
  <fix>3d</fix>
</trkpt>
<trkpt lat="33.810195" lon="-118.3940006">
  <ele>-0.105</ele>
  <time>2026-09-01T01:13:09Z</time>
  <course>186.33</course>
  <speed>0.7283543093852057</speed>
  <fix>3d</fix>
</trkpt>
<trkpt lat="33.810196" lon="-118.3939991">
  <ele>-0.1</ele>
  <time>2026-09-01T01:13:09Z</time>
  <course>223.26</course>
  <speed>0.73</speed>
  <fix>3d</fix>
</trkpt>
<trkpt lat="33.8101946" lon="-118.3940011">
  <ele>-0.107</ele>
  <time>2026-09-01T01:13:09Z</time>
  <course>186.33</course>
  <speed>0.7283543093852057</speed>
  <fix>3d</fix>
</trkpt>
<trkpt lat="33.810195" lon="-118.3940002">
  <ele>-0.1</ele>
  <time>2026-09-01T01:13:09Z</time>
  <course>223.26</course>
  <speed>0.73</speed>
  <fix>3d</fix>
</trkpt>
<trkpt lat="33.8101941" lon="-118.3940017">
  <ele>-0.11</ele>
  <time>2026-09-01T01:13:09Z</time>
  <course>186.33</course>
  <speed>0.7283543093852057</speed>
  <fix>3d</fix>
</trkpt>
<trkpt lat="33.810195" lon="-118.3940002">
  <ele>-0.1</ele>
  <time>2026-09-01T01:13:09Z</time>
  <course>223.26</course>
  <speed>0.73</speed>
  <fix>3d</fix>
</trkpt>
<trkpt lat="33.8101936" lon="-118.3940022">
  <ele>-0.112</ele>
  <time>2026-09-01T01:13:09Z</time>
  <course>186.33</course>
  <speed>0.7283543093852057</speed>
  <fix>3d</fix>
</trkpt>
<trkpt lat="33.810194" lon="-118.3940013">
  <ele>-0.1</ele>
  <time>2026-09-01T01:13:09Z</time>
  <course>223.26</course>
  <speed>0.73</speed>
  <fix>3d</fix>
</trkpt>
<trkpt lat="33.8101931" lon="-118.3940027">
  <ele>-0.114</ele>
  <time>2026-09-01T01:13:09Z</time>
  <course>186.33</course>
  <speed>0.7283543093852057</speed>
  <fix>3d</fix>
</trkpt>
<trkpt lat="33.810194" lon="-118.3940013">
  <ele>-0.1</ele>
  <time>2026-09-01T01:13:09Z</time>
  <course>223.26</course>
  <speed>0.73</speed>
  <fix>3d</fix>
</trkpt>
<trkpt lat="33.8101926" lon="-118.3940033">
  <ele>-0.115</ele>
  <time>2026-09-01T01:13:09Z</time>
  <course>186.33</course>
  <speed>0.7283543093852057</speed>
  <fix>3d</fix>
</trkpt>
<trkpt lat="33.8101931" lon="-118.3940024">
  <ele>-0.11</ele>
  <time>2026-09-01T01:13:09Z</time>
  <course>223.26</course>
  <speed>0.73</speed>
  <fix>3d</fix>
</trkpt>
<trkpt lat="33.8101922" lon="-118.3940038">
  <ele>-0.116</ele>
  <time>2026-09-01T01:13:09Z</time>
  <course>186.33</course>
  <speed>0.7283543093852057</speed>
  <fix>3d</fix>
</trkpt>
<trkpt lat="33.8101931" lon="-118.3940024">
  <ele>-0.11</ele>
  <time>2026-09-01T01:13:09Z</time>
  <course>223.26</course>
  <speed>0.73</speed>
  <fix>3d</fix>
</trkpt>
<trkpt lat="33.8101917" lon="-118.3940044">
  <ele>-0.117</ele>
  <time>2026-09-01T01:13:09Z</time>
  <course>186.33</course>
  <speed>0.7283543093852057</speed>
  <fix>3d</fix>
</trkpt>
<trkpt lat="33.810192" lon="-118.3940035">
  <ele>-0.1</ele>
  <time>2026-09-01T01:13:09Z</time>
  <course>223.26</course>
  <speed>0.73</speed>
  <fix>3d</fix>
</trkpt>
<trkpt lat="33.8101912" lon="-118.3940049">
  <ele>-0.118</ele>
  <time>2026-09-01T01:13:09Z</time>
  <course>186.33</course>
  <speed>0.7283543093852057</speed>
  <fix>3d</fix>
</trkpt>
<trkpt lat="33.810192" lon="-118.3940035">
  <ele>-0.1</ele>
  <time>2026-09-01T01:13:09Z</time>
  <course>223.26</course>
  <speed>0.73</speed>
  <fix>3d</fix>
</trkpt>
<trkpt lat="33.8101907" lon="-118.3940055">
  <ele>-0.119</ele>
  <time>2026-09-01T01:13:09Z</time>
  <course>186.32</course>
  <speed>0.7283543093852057</speed>
  <fix>3d</fix>
</trkpt>
<trkpt lat="33.8101911" lon="-118.3940046">
  <ele>-0.1</ele>
  <time>2026-09-01T01:13:09Z</time>
  <course>223.26</course>
  <speed>0.73</speed>
  <fix>3d</fix>
</trkpt>
<trkpt lat="33.8101902" lon="-118.394006">
  <ele>-0.119</ele>
  <time>2026-09-01T01:13:09Z</time>
  <course>186.32</course>
  <speed>0.7283543093852057</speed>
  <fix>3d</fix>
</trkpt>
<trkpt lat="33.8101911" lon="-118.3940046">
  <ele>-0.1</ele>
  <time>2026-09-01T01:13:09Z</time>
  <course>223.26</course>
  <speed>0.73</speed>
  <fix>3d</fix>
</trkpt>
<trkpt lat="33.8101897" lon="-118.3940066">
  <ele>-0.12</ele>
  <time>2026-09-01T01:13:09Z</time>
  <course>186.32</course>
  <speed>0.7283543093852057</speed>
  <fix>3d</fix>
</trkpt>
<trkpt lat="33.8101901" lon="-118.3940056">
  <ele>-0.1</ele>
  <time>2026-09-01T01:13:09Z</time>
  <course>223.26</course>
  <speed>0.73</speed>
  <fix>3d</fix>
</trkpt>
<trkpt lat="33.8101892" lon="-118.3940071">
  <ele>-0.121</ele>
  <time>2026-09-01T01:13:09Z</time>
  <course>186.32</course>
  <speed>0.7283543093852057</speed>
  <fix>3d</fix>
</trkpt>
<trkpt lat="33.8101901" lon="-118.3940056">
  <ele>-0.1</ele>
  <time>2026-09-01T01:13:09Z</time>
  <course>223.26</course>
  <speed>0.73</speed>
  <fix>3d</fix>
</trkpt>
<trkpt lat="33.8101888" lon="-118.3940077">
  <ele>-0.121</ele>
  <time>2026-09-01T01:13:09Z</time>
  <course>186.32</course>
  <speed>0.7283543093852057</speed>
  <fix>3d</fix>
</trkpt>
<trkpt lat="33.8101892" lon="-118.3940067">
  <ele>-0.1</ele>
  <time>2026-09-01T01:13:09Z</time>
  <course>223.26</course>
  <speed>0.73</speed>
  <fix>3d</fix>
</trkpt>
<trkpt lat="33.8101883" lon="-118.3940082">
  <ele>-0.12</ele>
  <time>2026-09-01T01:13:09Z</time>
  <course>186.32</course>
  <speed>0.7283543093852057</speed>
  <fix>3d</fix>
</trkpt>
<trkpt lat="33.8101892" lon="-118.3940067">
  <ele>-0.1</ele>
  <time>2026-09-01T01:13:09Z</time>
  <course>223.26</course>
  <speed>0.73</speed>
  <fix>3d</fix>
</trkpt>
<trkpt lat="33.8101878" lon="-118.3940087">
  <ele>-0.119</ele>
  <time>2026-09-01T01:13:09Z</time>
  <course>186.32</course>
  <speed>0.7283543093852057</speed>
  <fix>3d</fix>
</trkpt>
<trkpt lat="33.8101883" lon="-118.3940078">
  <ele>-0.11</ele>
  <time>2026-09-01T01:13:09Z</time>
  <course>223.26</course>
  <speed>0.73</speed>
  <fix>3d</fix>
</trkpt>
<trkpt lat="33.8101873" lon="-118.3940093">
  <ele>-0.119</ele>
  <time>2026-09-01T01:13:09Z</time>
  <course>186.32</course>
  <speed>0.7283543093852057</speed>
  <fix>3d</fix>
</trkpt>
<trkpt lat="33.8101883" lon="-118.3940078">
  <ele>-0.11</ele>
  <time>2026-09-01T01:13:09Z</time>
  <course>223.26</course>
  <speed>0.73</speed>
  <fix>3d</fix>
</trkpt>
<trkpt lat="33.8101868" lon="-118.3940098">
  <ele>-0.118</ele>
  <time>2026-09-01T01:13:09Z</time>
  <course>186.32</course>
  <speed>0.7283543093852057</speed>
  <fix>3d</fix>
</trkpt>
<trkpt lat="33.8101872" lon="-118.3940089">
  <ele>-0.1</ele>
  <time>2026-09-01T01:13:09Z</time>
  <course>223.26</course>
  <speed>0.73</speed>
  <fix>3d</fix>
</trkpt>
<trkpt lat="33.8101864" lon="-118.3940104">
  <ele>-0.116</ele>
  <time>2026-09-01T01:13:09Z</time>
  <course>186.32</course>
  <speed>0.7283543093852057</speed>
  <fix>3d</fix>
</trkpt>
<trkpt lat="33.8101872" lon="-118.3940089">
  <ele>-0.1</ele>
  <time>2026-09-01T01:13:09Z</time>
  <course>223.26</course>
  <speed>0.73</speed>
  <fix>3d</fix>
</trkpt>
<trkpt lat="33.8101859" lon="-118.3940109">
  <ele>-0.115</ele>
  <time>2026-09-01T01:13:09Z</time>
  <course>186.32</course>
  <speed>0.7283543093852057</speed>
  <fix>3d</fix>
</trkpt>
<trkpt lat="33.8101863" lon="-118.39401">
  <ele>-0.1</ele>
  <time>2026-09-01T01:13:09Z</time>
  <course>223.26</course>
  <speed>0.73</speed>
  <fix>3d</fix>
</trkpt>
<trkpt lat="33.8101854" lon="-118.3940115">
  <ele>-0.115</ele>
  <time>2026-09-01T01:13:09Z</time>
  <course>186.31</course>
  <speed>0.7283543093852057</speed>
  <fix>3d</fix>
</trkpt>
<trkpt lat="33.8101863" lon="-118.39401">
  <ele>-0.1</ele>
  <time>2026-09-01T01:13:09Z</time>
  <course>223.26</course>
  <speed>0.73</speed>
  <fix>3d</fix>
</trkpt>
<trkpt lat="33.8101849" lon="-118.394012">
  <ele>-0.115</ele>
  <time>2026-09-01T01:13:09Z</time>
  <course>186.31</course>
  <speed>0.7283543093852057</speed>
  <fix>3d</fix>
</trkpt>
<trkpt lat="33.8101853" lon="-118.3940111">
  <ele>-0.1</ele>
  <time>2026-09-01T01:13:09Z</time>
  <course>223.26</course>
  <speed>0.73</speed>
  <fix>3d</fix>
</trkpt>
<trkpt lat="33.8101844" lon="-118.3940125">
  <ele>-0.115</ele>
  <time>2026-09-01T01:13:09Z</time>
  <course>186.31</course>
  <speed>0.7283543093852057</speed>
  <fix>3d</fix>
</trkpt>
<trkpt lat="33.8101853" lon="-118.3940111">
  <ele>-0.1</ele>
  <time>2026-09-01T01:13:09Z</time>
  <course>223.26</course>
  <speed>0.73</speed>
  <fix>3d</fix>
</trkpt>
<trkpt lat="33.8101839" lon="-118.3940131">
  <ele>-0.116</ele>
  <time>2026-09-01T01:13:09Z</time>
  <course>186.31</course>
  <speed>0.7283543093852057</speed>
  <fix>3d</fix>
</trkpt>
<trkpt lat="33.8101844" lon="-118.3940122">
  <ele>-0.1</ele>
  <time>2026-09-01T01:13:09Z</time>
  <course>223.26</course>
  <speed>0.73</speed>
  <fix>3d</fix>
</trkpt>
<trkpt lat="33.8101835" lon="-118.3940136">
  <ele>-0.116</ele>
  <time>2026-09-01T01:13:09Z</time>
  <course>186.31</course>
  <speed>0.7283543093852057</speed>
  <fix>3d</fix>
</trkpt>
<trkpt lat="33.8101844" lon="-118.3940122">
  <ele>-0.1</ele>
  <time>2026-09-01T01:13:09Z</time>
  <course>223.26</course>
  <speed>0.73</speed>
  <fix>3d</fix>
</trkpt>
<trkpt lat="33.810183" lon="-118.3940142">
  <ele>-0.115</ele>
  <time>2026-09-01T01:13:09Z</time>
  <course>186.31</course>
  <speed>0.7283543093852057</speed>
  <fix>3d</fix>
</trkpt>
<trkpt lat="33.8101834" lon="-118.3940133">
  <ele>-0.11</ele>
  <time>2026-09-01T01:13:09Z</time>
  <course>223.26</course>
  <speed>0.73</speed>
  <fix>3d</fix>
</trkpt>
<trkpt lat="33.8101825" lon="-118.3940147">
  <ele>-0.114</ele>
  <time>2026-09-01T01:13:09Z</time>
  <course>186.31</course>
  <speed>0.7283543093852057</speed>
  <fix>3d</fix>
</trkpt>
<trkpt lat="33.8101834" lon="-118.3940133">
  <ele>-0.11</ele>
  <time>2026-09-01T01:13:09Z</time>
  <course>223.26</course>
  <speed>0.73</speed>
  <fix>3d</fix>
</trkpt>
<trkpt lat="33.810182" lon="-118.3940153">
  <ele>-0.111</ele>
  <time>2026-09-01T01:13:09Z</time>
  <course>186.31</course>
  <speed>0.7283543093852057</speed>
  <fix>3d</fix>
</trkpt>
<trkpt lat="33.8101824" lon="-118.3940144">
  <ele>-0.1</ele>
  <time>2026-09-01T01:13:09Z</time>
  <course>223.26</course>
  <speed>0.73</speed>
  <fix>3d</fix>
</trkpt>
<trkpt lat="33.8101815" lon="-118.3940158">
  <ele>-0.109</ele>
  <time>2026-09-01T01:13:09Z</time>
  <course>186.31</course>
  <speed>0.7283543093852057</speed>
  <fix>3d</fix>
</trkpt>
<trkpt lat="33.8101824" lon="-118.3940144">
  <ele>-0.1</ele>
  <time>2026-09-01T01:13:09Z</time>
  <course>223.26</course>
  <speed>0.73</speed>
  <fix>3d</fix>
</trkpt>
<trkpt lat="33.810181" lon="-118.3940164">
  <ele>-0.107</ele>
  <time>2026-09-01T01:13:09Z</time>
  <course>186.31</course>
  <speed>0.7283543093852057</speed>
  <fix>3d</fix>
</trkpt>
<trkpt lat="33.8101815" lon="-118.3940154">
  <ele>-0.1</ele>
  <time>2026-09-01T01:13:09Z</time>
  <course>223.26</course>
  <speed>0.73</speed>
  <fix>3d</fix>
</trkpt>
<trkpt lat="33.8101806" lon="-118.3940169">
  <ele>-0.108</ele>
  <time>2026-09-01T01:13:09Z</time>
  <course>186.31</course>
  <speed>0.7283543093852057</speed>
  <fix>3d</fix>
</trkpt>
<trkpt lat="33.8101815" lon="-118.3940154">
  <ele>-0.1</ele>
  <time>2026-09-01T01:13:09Z</time>
  <course>223.26</course>
  <speed>0.73</speed>
  <fix>3d</fix>
</trkpt>
<trkpt lat="33.8101801" lon="-118.3940175">
  <ele>-0.109</ele>
  <time>2026-09-01T01:13:09Z</time>
  <course>186.31</course>
  <speed>0.7283543093852057</speed>
  <fix>3d</fix>
</trkpt>
<trkpt lat="33.8101805" lon="-118.3940165">
  <ele>-0.1</ele>
  <time>2026-09-01T01:13:09Z</time>
  <course>223.26</course>
  <speed>0.73</speed>
  <fix>3d</fix>
</trkpt>
<trkpt lat="33.8101796" lon="-118.394018">
  <ele>-0.109</ele>
  <time>2026-09-01T01:13:10Z</time>
  <course>186.3</course>
  <speed>0.7283543093852057</speed>
  <fix>3d</fix>
</trkpt>
<trkpt lat="33.8101805" lon="-118.3940165">
  <ele>-0.1</ele>
  <time>2026-09-01T01:13:10Z</time>
  <course>223.26</course>
  <speed>0.73</speed>
  <fix>3d</fix>
</trkpt>
<trkpt lat="33.8101791" lon="-118.3940185">
  <ele>-0.11</ele>
  <time>2026-09-01T01:13:10Z</time>
  <course>186.3</course>
  <speed>0.7283543093852057</speed>
  <fix>3d</fix>
</trkpt>
<trkpt lat="33.8101796" lon="-118.3940176">
  <ele>-0.1</ele>
  <time>2026-09-01T01:13:10Z</time>
  <course>223.26</course>
  <speed>0.73</speed>
  <fix>3d</fix>
</trkpt>
<trkpt lat="33.8101786" lon="-118.3940191">
  <ele>-0.111</ele>
  <time>2026-09-01T01:13:10Z</time>
  <course>186.3</course>
  <speed>0.7283543093852057</speed>
  <fix>3d</fix>
</trkpt>
<trkpt lat="33.8101796" lon="-118.3940176">
  <ele>-0.1</ele>
  <time>2026-09-01T01:13:10Z</time>
  <course>223.26</course>
  <speed>0.73</speed>
  <fix>3d</fix>
</trkpt>
<trkpt lat="33.8101782" lon="-118.3940196">
  <ele>-0.112</ele>
  <time>2026-09-01T01:13:10Z</time>
  <course>186.3</course>
  <speed>0.7283543093852057</speed>
  <fix>3d</fix>
</trkpt>
<trkpt lat="33.8101786" lon="-118.3940187">
  <ele>-0.11</ele>
  <time>2026-09-01T01:13:10Z</time>
  <course>223.26</course>
  <speed>0.73</speed>
  <fix>3d</fix>
</trkpt>
<trkpt lat="33.8101777" lon="-118.3940202">
  <ele>-0.113</ele>
  <time>2026-09-01T01:13:10Z</time>
  <course>186.3</course>
  <speed>0.7283543093852057</speed>
  <fix>3d</fix>
</trkpt>
<trkpt lat="33.8101786" lon="-118.3940187">
  <ele>-0.11</ele>
  <time>2026-09-01T01:13:10Z</time>
  <course>223.26</course>
  <speed>0.73</speed>
  <fix>3d</fix>
</trkpt>
<trkpt lat="33.8101772" lon="-118.3940207">
  <ele>-0.114</ele>
  <time>2026-09-01T01:13:10Z</time>
  <course>186.3</course>
  <speed>0.7283543093852057</speed>
  <fix>3d</fix>
</trkpt>
<trkpt lat="33.8101776" lon="-118.3940198">
  <ele>-0.11</ele>
  <time>2026-09-01T01:13:10Z</time>
  <course>223.26</course>
  <speed>0.73</speed>
  <fix>3d</fix>
</trkpt>
<trkpt lat="33.8101767" lon="-118.3940213">
  <ele>-0.115</ele>
  <time>2026-09-01T01:13:10Z</time>
  <course>186.3</course>
  <speed>0.7283543093852057</speed>
  <fix>3d</fix>
</trkpt>
<trkpt lat="33.8101776" lon="-118.3940198">
  <ele>-0.11</ele>
  <time>2026-09-01T01:13:10Z</time>
  <course>223.26</course>
  <speed>0.73</speed>
  <fix>3d</fix>
</trkpt>
<trkpt lat="33.8101762" lon="-118.3940218">
  <ele>-0.116</ele>
  <time>2026-09-01T01:13:10Z</time>
  <course>186.3</course>
  <speed>0.7283543093852057</speed>
  <fix>3d</fix>
</trkpt>
<trkpt lat="33.8101767" lon="-118.3940209">
  <ele>-0.1</ele>
  <time>2026-09-01T01:13:10Z</time>
  <course>223.26</course>
  <speed>0.73</speed>
  <fix>3d</fix>
</trkpt>
<trkpt lat="33.8101758" lon="-118.3940224">
  <ele>-0.117</ele>
  <time>2026-09-01T01:13:10Z</time>
  <course>186.3</course>
  <speed>0.7283543093852057</speed>
  <fix>3d</fix>
</trkpt>
<trkpt lat="33.8101767" lon="-118.3940209">
  <ele>-0.1</ele>
  <time>2026-09-01T01:13:10Z</time>
  <course>223.26</course>
  <speed>0.73</speed>
  <fix>3d</fix>
</trkpt>
<trkpt lat="33.8101753" lon="-118.3940229">
  <ele>-0.118</ele>
  <time>2026-09-01T01:13:10Z</time>
  <course>186.3</course>
  <speed>0.7283543093852057</speed>
  <fix>3d</fix>
</trkpt>
<trkpt lat="33.8101757" lon="-118.394022">
  <ele>-0.1</ele>
  <time>2026-09-01T01:13:10Z</time>
  <course>223.26</course>
  <speed>0.73</speed>
  <fix>3d</fix>
</trkpt>
<trkpt lat="33.8101748" lon="-118.3940234">
  <ele>-0.118</ele>
  <time>2026-09-01T01:13:10Z</time>
  <course>186.3</course>
  <speed>0.7283543093852057</speed>
  <fix>3d</fix>
</trkpt>
<trkpt lat="33.8101757" lon="-118.394022">
  <ele>-0.1</ele>
  <time>2026-09-01T01:13:10Z</time>
  <course>223.26</course>
  <speed>0.73</speed>
  <fix>3d</fix>
</trkpt>
<trkpt lat="33.8101743" lon="-118.394024">
  <ele>-0.118</ele>
  <time>2026-09-01T01:13:10Z</time>
  <course>186.3</course>
  <speed>0.7283543093852057</speed>
  <fix>3d</fix>
</trkpt>
<trkpt lat="33.8101748" lon="-118.3940231">
  <ele>-0.1</ele>
  <time>2026-09-01T01:13:10Z</time>
  <course>223.26</course>
  <speed>0.73</speed>
  <fix>3d</fix>
</trkpt>
<trkpt lat="33.8101738" lon="-118.3940245">
  <ele>-0.118</ele>
  <time>2026-09-01T01:13:10Z</time>
  <course>186.3</course>
  <speed>0.7283543093852057</speed>
  <fix>3d</fix>
</trkpt>
<trkpt lat="33.8101748" lon="-118.3940231">
  <ele>-0.1</ele>
  <time>2026-09-01T01:13:10Z</time>
  <course>223.26</course>
  <speed>0.73</speed>
  <fix>3d</fix>
</trkpt>
<trkpt lat="33.8101734" lon="-118.3940251">
  <ele>-0.117</ele>
  <time>2026-09-01T01:13:10Z</time>
  <course>186.3</course>
  <speed>0.7283543093852057</speed>
  <fix>3d</fix>
</trkpt>
<trkpt lat="33.8101738" lon="-118.3940242">
  <ele>-0.11</ele>
  <time>2026-09-01T01:13:10Z</time>
  <course>223.26</course>
  <speed>0.73</speed>
  <fix>3d</fix>
</trkpt>
<trkpt lat="33.8101729" lon="-118.3940256">
  <ele>-0.117</ele>
  <time>2026-09-01T01:13:10Z</time>
  <course>186.3</course>
  <speed>0.7283543093852057</speed>
  <fix>3d</fix>
</trkpt>
<trkpt lat="33.8101738" lon="-118.3940242">
  <ele>-0.11</ele>
  <time>2026-09-01T01:13:10Z</time>
  <course>223.26</course>
  <speed>0.73</speed>
  <fix>3d</fix>
</trkpt>
<trkpt lat="33.8101724" lon="-118.3940262">
  <ele>-0.116</ele>
  <time>2026-09-01T01:13:10Z</time>
  <course>186.29</course>
  <speed>0.7283543093852057</speed>
  <fix>3d</fix>
</trkpt>
<trkpt lat="33.8101729" lon="-118.3940253">
  <ele>-0.11</ele>
  <time>2026-09-01T01:13:10Z</time>
  <course>223.26</course>
  <speed>0.73</speed>
  <fix>3d</fix>
</trkpt>
<trkpt lat="33.8101719" lon="-118.3940267">
  <ele>-0.116</ele>
  <time>2026-09-01T01:13:10Z</time>
  <course>186.29</course>
  <speed>0.7283543093852057</speed>
  <fix>3d</fix>
</trkpt>
<trkpt lat="33.8101729" lon="-118.3940253">
  <ele>-0.11</ele>
  <time>2026-09-01T01:13:10Z</time>
  <course>223.26</course>
  <speed>0.73</speed>
  <fix>3d</fix>
</trkpt>
<trkpt lat="33.8101714" lon="-118.3940273">
  <ele>-0.116</ele>
  <time>2026-09-01T01:13:10Z</time>
  <course>186.29</course>
  <speed>0.7283543093852057</speed>
  <fix>3d</fix>
</trkpt>
<trkpt lat="33.8101719" lon="-118.3940263">
  <ele>-0.1</ele>
  <time>2026-09-01T01:13:10Z</time>
  <course>223.26</course>
  <speed>0.73</speed>
  <fix>3d</fix>
</trkpt>
<trkpt lat="33.810171" lon="-118.3940278">
  <ele>-0.114</ele>
  <time>2026-09-01T01:13:10Z</time>
  <course>186.29</course>
  <speed>0.7283543093852057</speed>
  <fix>3d</fix>
</trkpt>
<trkpt lat="33.8101719" lon="-118.3940263">
  <ele>-0.1</ele>
  <time>2026-09-01T01:13:10Z</time>
  <course>223.26</course>
  <speed>0.73</speed>
  <fix>3d</fix>
</trkpt>
<trkpt lat="33.8101705" lon="-118.3940284">
  <ele>-0.114</ele>
  <time>2026-09-01T01:13:10Z</time>
  <course>186.29</course>
  <speed>0.7283543093852057</speed>
  <fix>3d</fix>
</trkpt>
<trkpt lat="33.8101709" lon="-118.3940274">
  <ele>-0.1</ele>
  <time>2026-09-01T01:13:10Z</time>
  <course>223.26</course>
  <speed>0.73</speed>
  <fix>3d</fix>
</trkpt>
<trkpt lat="33.81017" lon="-118.3940289">
  <ele>-0.114</ele>
  <time>2026-09-01T01:13:10Z</time>
  <course>186.29</course>
  <speed>0.7283543093852057</speed>
  <fix>3d</fix>
</trkpt>
<trkpt lat="33.8101709" lon="-118.3940274">
  <ele>-0.1</ele>
  <time>2026-09-01T01:13:10Z</time>
  <course>223.26</course>
  <speed>0.73</speed>
  <fix>3d</fix>
</trkpt>
<trkpt lat="33.8101695" lon="-118.3940294">
  <ele>-0.115</ele>
  <time>2026-09-01T01:13:10Z</time>
  <course>186.29</course>
  <speed>0.7283543093852057</speed>
  <fix>3d</fix>
</trkpt>
<trkpt lat="33.81017" lon="-118.3940285">
  <ele>-0.1</ele>
  <time>2026-09-01T01:13:10Z</time>
  <course>223.26</course>
  <speed>0.73</speed>
  <fix>3d</fix>
</trkpt>
<trkpt lat="33.810169" lon="-118.39403">
  <ele>-0.115</ele>
  <time>2026-09-01T01:13:10Z</time>
  <course>186.29</course>
  <speed>0.7283543093852057</speed>
  <fix>3d</fix>
</trkpt>
<trkpt lat="33.81017" lon="-118.3940285">
  <ele>-0.1</ele>
  <time>2026-09-01T01:13:10Z</time>
  <course>223.26</course>
  <speed>0.73</speed>
  <fix>3d</fix>
</trkpt>
<trkpt lat="33.8101686" lon="-118.3940305">
  <ele>-0.116</ele>
  <time>2026-09-01T01:13:10Z</time>
  <course>186.29</course>
  <speed>0.7283543093852057</speed>
  <fix>3d</fix>
</trkpt>
<trkpt lat="33.810169" lon="-118.3940296">
  <ele>-0.11</ele>
  <time>2026-09-01T01:13:10Z</time>
  <course>223.26</course>
  <speed>0.73</speed>
  <fix>3d</fix>
</trkpt>
<trkpt lat="33.8101681" lon="-118.3940311">
  <ele>-0.115</ele>
  <time>2026-09-01T01:13:10Z</time>
  <course>186.29</course>
  <speed>0.7283543093852057</speed>
  <fix>3d</fix>
</trkpt>
<trkpt lat="33.810169" lon="-118.3940296">
  <ele>-0.11</ele>
  <time>2026-09-01T01:13:10Z</time>
  <course>223.26</course>
  <speed>0.73</speed>
  <fix>3d</fix>
</trkpt>
<trkpt lat="33.8101676" lon="-118.3940316">
  <ele>-0.114</ele>
  <time>2026-09-01T01:13:10Z</time>
  <course>186.29</course>
  <speed>0.7213875518748573</speed>
  <fix>3d</fix>
</trkpt>
<trkpt lat="33.8101681" lon="-118.3940307">
  <ele>-0.11</ele>
  <time>2026-09-01T01:13:10Z</time>
  <course>223.26</course>
  <speed>0.73</speed>
  <fix>3d</fix>
</trkpt>
<trkpt lat="33.8101671" lon="-118.3940322">
  <ele>-0.113</ele>
  <time>2026-09-01T01:13:10Z</time>
  <course>186.29</course>
  <speed>0.7213875518748573</speed>
  <fix>3d</fix>
</trkpt>
<trkpt lat="33.8101681" lon="-118.3940307">
  <ele>-0.11</ele>
  <time>2026-09-01T01:13:10Z</time>
  <course>223.26</course>
  <speed>0.73</speed>
  <fix>3d</fix>
</trkpt>
<trkpt lat="33.8101667" lon="-118.3940327">
  <ele>-0.112</ele>
  <time>2026-09-01T01:13:10Z</time>
  <course>186.29</course>
  <speed>0.7213875518748573</speed>
  <fix>3d</fix>
</trkpt>
<trkpt lat="33.8101671" lon="-118.3940318">
  <ele>-0.1</ele>
  <time>2026-09-01T01:13:10Z</time>
  <course>223.26</course>
  <speed>0.73</speed>
  <fix>3d</fix>
</trkpt>
<trkpt lat="33.8101662" lon="-118.3940332">
  <ele>-0.112</ele>
  <time>2026-09-01T01:13:10Z</time>
  <course>186.29</course>
  <speed>0.7213875518748573</speed>
  <fix>3d</fix>
</trkpt>
<trkpt lat="33.8101671" lon="-118.3940318">
  <ele>-0.1</ele>
  <time>2026-09-01T01:13:10Z</time>
  <course>223.26</course>
  <speed>0.73</speed>
  <fix>3d</fix>
</trkpt>
<trkpt lat="33.8101657" lon="-118.3940338">
  <ele>-0.112</ele>
  <time>2026-09-01T01:13:10Z</time>
  <course>186.29</course>
  <speed>0.7213875518748573</speed>
  <fix>3d</fix>
</trkpt>
<trkpt lat="33.8101661" lon="-118.3940329">
  <ele>-0.1</ele>
  <time>2026-09-01T01:13:10Z</time>
  <course>223.26</course>
  <speed>0.73</speed>
  <fix>3d</fix>
</trkpt>
<trkpt lat="33.8101652" lon="-118.3940343">
  <ele>-0.112</ele>
  <time>2026-09-01T01:13:10Z</time>
  <course>186.28</course>
  <speed>0.7213875518748573</speed>
  <fix>3d</fix>
</trkpt>
<trkpt lat="33.8101661" lon="-118.3940329">
  <ele>-0.1</ele>
  <time>2026-09-01T01:13:10Z</time>
  <course>223.26</course>
  <speed>0.73</speed>
  <fix>3d</fix>
</trkpt>
<trkpt lat="33.8101648" lon="-118.3940349">
  <ele>-0.112</ele>
  <time>2026-09-01T01:13:10Z</time>
  <course>186.28</course>
  <speed>0.7213875518748573</speed>
  <fix>3d</fix>
</trkpt>
<trkpt lat="33.8101652" lon="-118.394034">
  <ele>-0.1</ele>
  <time>2026-09-01T01:13:10Z</time>
  <course>223.26</course>
  <speed>0.73</speed>
  <fix>3d</fix>
</trkpt>
<trkpt lat="33.8101643" lon="-118.3940354">
  <ele>-0.112</ele>
  <time>2026-09-01T01:13:10Z</time>
  <course>186.28</course>
  <speed>0.7213875518748573</speed>
  <fix>3d</fix>
</trkpt>
<trkpt lat="33.8101652" lon="-118.394034">
  <ele>-0.1</ele>
  <time>2026-09-01T01:13:10Z</time>
  <course>223.26</course>
  <speed>0.73</speed>
  <fix>3d</fix>
</trkpt>
<trkpt lat="33.8101638" lon="-118.394036">
  <ele>-0.112</ele>
  <time>2026-09-01T01:13:10Z</time>
  <course>186.28</course>
  <speed>0.7213875518748573</speed>
  <fix>3d</fix>
</trkpt>
<trkpt lat="33.8101642" lon="-118.3940351">
  <ele>-0.11</ele>
  <time>2026-09-01T01:13:10Z</time>
  <course>223.26</course>
  <speed>0.73</speed>
  <fix>3d</fix>
</trkpt>
<trkpt lat="33.8101633" lon="-118.3940365">
  <ele>-0.111</ele>
  <time>2026-09-01T01:13:10Z</time>
  <course>186.28</course>
  <speed>0.7213875518748573</speed>
  <fix>3d</fix>
</trkpt>
<trkpt lat="33.8101642" lon="-118.3940351">
  <ele>-0.11</ele>
  <time>2026-09-01T01:13:10Z</time>
  <course>223.26</course>
  <speed>0.73</speed>
  <fix>3d</fix>
</trkpt>
<trkpt lat="33.8101629" lon="-118.394037">
  <ele>-0.109</ele>
  <time>2026-09-01T01:13:10Z</time>
  <course>186.28</course>
  <speed>0.7213875518748573</speed>
  <fix>3d</fix>
</trkpt>
<trkpt lat="33.8101633" lon="-118.3940361">
  <ele>-0.11</ele>
  <time>2026-09-01T01:13:10Z</time>
  <course>223.26</course>
  <speed>0.73</speed>
  <fix>3d</fix>
</trkpt>
<trkpt lat="33.8101624" lon="-118.3940376">
  <ele>-0.107</ele>
  <time>2026-09-01T01:13:10Z</time>
  <course>186.28</course>
  <speed>0.7213875518748573</speed>
  <fix>3d</fix>
</trkpt>
<trkpt lat="33.8101633" lon="-118.3940361">
  <ele>-0.11</ele>
  <time>2026-09-01T01:13:10Z</time>
  <course>223.26</course>
  <speed>0.73</speed>
  <fix>3d</fix>
</trkpt>
<trkpt lat="33.8101619" lon="-118.3940381">
  <ele>-0.104</ele>
  <time>2026-09-01T01:13:10Z</time>
  <course>186.28</course>
  <speed>0.7213875518748573</speed>
  <fix>3d</fix>
</trkpt>
<trkpt lat="33.8101623" lon="-118.3940372">
  <ele>-0.1</ele>
  <time>2026-09-01T01:13:10Z</time>
  <course>223.26</course>
  <speed>0.73</speed>
  <fix>3d</fix>
</trkpt>
<trkpt lat="33.8101614" lon="-118.3940387">
  <ele>-0.102</ele>
  <time>2026-09-01T01:13:10Z</time>
  <course>187.49</course>
  <speed>0.7353910524340094</speed>
  <fix>3d</fix>
</trkpt>
<trkpt lat="33.8101623" lon="-118.3940372">
  <ele>-0.1</ele>
  <time>2026-09-01T01:13:10Z</time>
  <course>223.26</course>
  <speed>0.73</speed>
  <fix>3d</fix>
</trkpt>
<trkpt lat="33.8101609" lon="-118.3940392">
  <ele>-0.102</ele>
  <time>2026-09-01T01:13:10Z</time>
  <course>191.16</course>
  <speed>0.7424957912338628</speed>
  <fix>3d</fix>
</trkpt>
<trkpt lat="33.8101613" lon="-118.3940383">
  <ele>-0.1</ele>
  <time>2026-09-01T01:13:10Z</time>
  <course>222.92</course>
  <speed>0.74</speed>
  <fix>3d</fix>
</trkpt>
<trkpt lat="33.8101604" lon="-118.3940398">
  <ele>-0.102</ele>
  <time>2026-09-01T01:13:10Z</time>
  <course>195.02</course>
  <speed>0.750066663703967</speed>
  <fix>3d</fix>
</trkpt>
<trkpt lat="33.8101613" lon="-118.3940383">
  <ele>-0.1</ele>
  <time>2026-09-01T01:13:10Z</time>
  <course>222.92</course>
  <speed>0.74</speed>
  <fix>3d</fix>
</trkpt>
<trkpt lat="33.81016" lon="-118.3940404">
  <ele>-0.102</ele>
  <time>2026-09-01T01:13:10Z</time>
  <course>198.89</course>
  <speed>0.7528612089887484</speed>
  <fix>3d</fix>
</trkpt>
<trkpt lat="33.8101604" lon="-118.3940395">
  <ele>-0.1</ele>
  <time>2026-09-01T01:13:10Z</time>
  <course>224.25</course>
  <speed>0.76</speed>
  <fix>3d</fix>
</trkpt>
<trkpt lat="33.8101595" lon="-118.394041">
  <ele>-0.102</ele>
  <time>2026-09-01T01:13:10Z</time>
  <course>202.72</course>
  <speed>0.758023746329889</speed>
  <fix>3d</fix>
</trkpt>
<trkpt lat="33.8101604" lon="-118.3940395">
  <ele>-0.1</ele>
  <time>2026-09-01T01:13:10Z</time>
  <course>224.25</course>
  <speed>0.76</speed>
  <fix>3d</fix>
</trkpt>
<trkpt lat="33.8101591" lon="-118.3940417">
  <ele>-0.102</ele>
  <time>2026-09-01T01:13:10Z</time>
  <course>206.65</course>
  <speed>0.7516648189186453</speed>
  <fix>3d</fix>
</trkpt>
<trkpt lat="33.8101594" lon="-118.3940407">
  <ele>-0.11</ele>
  <time>2026-09-01T01:13:10Z</time>
  <course>228.95</course>
  <speed>0.76</speed>
  <fix>3d</fix>
</trkpt>
<trkpt lat="33.8101587" lon="-118.3940424">
  <ele>-0.103</ele>
  <time>2026-09-01T01:13:10Z</time>
  <course>210.51</course>
  <speed>0.7566372975210779</speed>
  <fix>3d</fix>
</trkpt>
<trkpt lat="33.8101594" lon="-118.3940407">
  <ele>-0.11</ele>
  <time>2026-09-01T01:13:10Z</time>
  <course>228.95</course>
  <speed>0.76</speed>
  <fix>3d</fix>
</trkpt>
<trkpt lat="33.8101584" lon="-118.3940431">
  <ele>-0.104</ele>
  <time>2026-09-01T01:13:10Z</time>
  <course>214.37</course>
  <speed>0.7558438992278762</speed>
  <fix>3d</fix>
</trkpt>
<trkpt lat="33.8101585" lon="-118.394042">
  <ele>-0.11</ele>
  <time>2026-09-01T01:13:10Z</time>
  <course>235.58</course>
  <speed>0.76</speed>
  <fix>3d</fix>
</trkpt>
<trkpt lat="33.8101581" lon="-118.3940438">
  <ele>-0.105</ele>
  <time>2026-09-01T01:13:10Z</time>
  <course>218.23</course>
  <speed>0.7539230729988305</speed>
  <fix>3d</fix>
</trkpt>
<trkpt lat="33.8101585" lon="-118.394042">
  <ele>-0.11</ele>
  <time>2026-09-01T01:13:10Z</time>
  <course>235.58</course>
  <speed>0.76</speed>
  <fix>3d</fix>
</trkpt>
<trkpt lat="33.8101578" lon="-118.3940446">
  <ele>-0.106</ele>
  <time>2026-09-01T01:13:10Z</time>
  <course>222.09</course>
  <speed>0.7589466384404111</speed>
  <fix>3d</fix>
</trkpt>
<trkpt lat="33.8101578" lon="-118.3940434">
  <ele>-0.1</ele>
  <time>2026-09-01T01:13:10Z</time>
  <course>242.88</course>
  <speed>0.76</speed>
  <fix>3d</fix>
</trkpt>
<trkpt lat="33.8101576" lon="-118.3940453">
  <ele>-0.107</ele>
  <time>2026-09-01T01:13:10Z</time>
  <course>225.95</course>
  <speed>0.7543208866258443</speed>
  <fix>3d</fix>
</trkpt>
<trkpt lat="33.8101578" lon="-118.3940434">
  <ele>-0.1</ele>
  <time>2026-09-01T01:13:10Z</time>
  <course>242.88</course>
  <speed>0.76</speed>
  <fix>3d</fix>
</trkpt>
<trkpt lat="33.8101574" lon="-118.3940461">
  <ele>-0.109</ele>
  <time>2026-09-01T01:13:10Z</time>
  <course>229.82</course>
  <speed>0.762954782408499</speed>
  <fix>3d</fix>
</trkpt>
<trkpt lat="33.8101573" lon="-118.3940449">
  <ele>-0.1</ele>
  <time>2026-09-01T01:13:10Z</time>
  <course>250.44</course>
  <speed>0.76</speed>
  <fix>3d</fix>
</trkpt>
<trkpt lat="33.8101572" lon="-118.3940469">
  <ele>-0.11</ele>
  <time>2026-09-01T01:13:10Z</time>
  <course>233.68</course>
  <speed>0.7653103945458993</speed>
  <fix>3d</fix>
</trkpt>
<trkpt lat="33.8101573" lon="-118.3940449">
  <ele>-0.1</ele>
  <time>2026-09-01T01:13:10Z</time>
  <course>250.44</course>
  <speed>0.76</speed>
  <fix>3d</fix>
</trkpt>
<trkpt lat="33.8101571" lon="-118.3940477">
  <ele>-0.112</ele>
  <time>2026-09-01T01:13:10Z</time>
  <course>237.54</course>
  <speed>0.7610519036176179</speed>
  <fix>3d</fix>
</trkpt>
<trkpt lat="33.8101569" lon="-118.3940465">
  <ele>-0.1</ele>
  <time>2026-09-01T01:13:10Z</time>
  <course>258.11</course>
  <speed>0.76</speed>
  <fix>3d</fix>
</trkpt>
<trkpt lat="33.8101571" lon="-118.3940485">
  <ele>-0.114</ele>
  <time>2026-09-01T01:13:10Z</time>
  <course>241.4</course>
  <speed>0.76</speed>
  <fix>3d</fix>
</trkpt>
<trkpt lat="33.8101569" lon="-118.3940465">
  <ele>-0.1</ele>
  <time>2026-09-01T01:13:10Z</time>
  <course>258.11</course>
  <speed>0.76</speed>
  <fix>3d</fix>
</trkpt>
<trkpt lat="33.8101571" lon="-118.3940493">
  <ele>-0.116</ele>
  <time>2026-09-01T01:13:10Z</time>
  <course>245.26</course>
  <speed>0.7616429609731845</speed>
  <fix>3d</fix>
</trkpt>
<trkpt lat="33.8101567" lon="-118.3940481">
  <ele>-0.1</ele>
  <time>2026-09-01T01:13:10Z</time>
  <course>265.8</course>
  <speed>0.76</speed>
  <fix>3d</fix>
</trkpt>
<trkpt lat="33.8101571" lon="-118.3940502">
  <ele>-0.117</ele>
  <time>2026-09-01T01:13:10Z</time>
  <course>249.12</course>
  <speed>0.766550715869472</speed>
  <fix>3d</fix>
</trkpt>
<trkpt lat="33.8101567" lon="-118.3940481">
  <ele>-0.1</ele>
  <time>2026-09-01T01:13:10Z</time>
  <course>265.8</course>
  <speed>0.76</speed>
  <fix>3d</fix>
</trkpt>
<trkpt lat="33.8101572" lon="-118.394051">
  <ele>-0.117</ele>
  <time>2026-09-01T01:13:10Z</time>
  <course>252.99</course>
  <speed>0.7648529270389177</speed>
  <fix>3d</fix>
</trkpt>
<trkpt lat="33.8101567" lon="-118.3940498">
  <ele>-0.11</ele>
  <time>2026-09-01T01:13:10Z</time>
  <course>273.52</course>
  <speed>0.76</speed>
  <fix>3d</fix>
</trkpt>
<trkpt lat="33.8101573" lon="-118.3940518">
  <ele>-0.116</ele>
  <time>2026-09-01T01:13:10Z</time>
  <course>256.85</course>
  <speed>0.766550715869472</speed>
  <fix>3d</fix>
</trkpt>
<trkpt lat="33.8101567" lon="-118.3940498">
  <ele>-0.11</ele>
  <time>2026-09-01T01:13:10Z</time>
  <course>273.52</course>
  <speed>0.76</speed>
  <fix>3d</fix>
</trkpt>
<trkpt lat="33.8101574" lon="-118.3940525">
  <ele>-0.115</ele>
  <time>2026-09-01T01:13:10Z</time>
  <course>260.71</course>
  <speed>0.7621679604916491</speed>
  <fix>3d</fix>
</trkpt>
<trkpt lat="33.8101568" lon="-118.3940514">
  <ele>-0.1</ele>
  <time>2026-09-01T01:13:10Z</time>
  <course>281.24</course>
  <speed>0.76</speed>
  <fix>3d</fix>
</trkpt>
<trkpt lat="33.8101576" lon="-118.3940533">
  <ele>-0.114</ele>
  <time>2026-09-01T01:13:10Z</time>
  <course>264.57</course>
  <speed>0.7576938695805846</speed>
  <fix>3d</fix>
</trkpt>
<trkpt lat="33.8101568" lon="-118.3940514">
  <ele>-0.1</ele>
  <time>2026-09-01T01:13:10Z</time>
  <course>281.24</course>
  <speed>0.76</speed>
  <fix>3d</fix>
</trkpt>
<trkpt lat="33.8101579" lon="-118.394054">
  <ele>-0.114</ele>
  <time>2026-09-01T01:13:10Z</time>
  <course>268.43</course>
  <speed>0.7602631123499285</speed>
  <fix>3d</fix>
</trkpt>
<trkpt lat="33.8101572" lon="-118.3940529">
  <ele>-0.1</ele>
  <time>2026-09-01T01:13:10Z</time>
  <course>288.98</course>
  <speed>0.76</speed>
  <fix>3d</fix>
</trkpt>
<trkpt lat="33.8101581" lon="-118.3940548">
  <ele>-0.114</ele>
  <time>2026-09-01T01:13:10Z</time>
  <course>272.29</course>
  <speed>0.7615773105863909</speed>
  <fix>3d</fix>
</trkpt>
<trkpt lat="33.8101572" lon="-118.3940529">
  <ele>-0.1</ele>
  <time>2026-09-01T01:13:10Z</time>
  <course>288.98</course>
  <speed>0.76</speed>
  <fix>3d</fix>
</trkpt>
<trkpt lat="33.8101585" lon="-118.3940555">
  <ele>-0.113</ele>
  <time>2026-09-01T01:13:10Z</time>
  <course>276.15</course>
  <speed>0.7571657678474378</speed>
  <fix>3d</fix>
</trkpt>
<trkpt lat="33.8101577" lon="-118.3940545">
  <ele>-0.1</ele>
  <time>2026-09-01T01:13:10Z</time>
  <course>296.72</course>
  <speed>0.76</speed>
  <fix>3d</fix>
</trkpt>
<trkpt lat="33.8101588" lon="-118.3940561">
  <ele>-0.113</ele>
  <time>2026-09-01T01:13:10Z</time>
  <course>280.02</course>
  <speed>0.756042326857432</speed>
  <fix>3d</fix>
</trkpt>
<trkpt lat="33.8101577" lon="-118.3940545">
  <ele>-0.1</ele>
  <time>2026-09-01T01:13:10Z</time>
  <course>296.72</course>
  <speed>0.76</speed>
  <fix>3d</fix>
</trkpt>
<trkpt lat="33.8101592" lon="-118.3940568">
  <ele>-0.113</ele>
  <time>2026-09-01T01:13:10Z</time>
  <course>283.91</course>
  <speed>0.7582216034906945</speed>
  <fix>3d</fix>
</trkpt>
<trkpt lat="33.8101584" lon="-118.3940559">
  <ele>-0.1</ele>
  <time>2026-09-01T01:13:10Z</time>
  <course>304.44</course>
  <speed>0.76</speed>
  <fix>3d</fix>
</trkpt>
<trkpt lat="33.8101597" lon="-118.3940574">
  <ele>-0.113</ele>
  <time>2026-09-01T01:13:10Z</time>
  <course>287.77</course>
  <speed>0.7566372975210779</speed>
  <fix>3d</fix>
</trkpt>
<trkpt lat="33.8101584" lon="-118.3940559">
  <ele>-0.1</ele>
  <time>2026-09-01T01:13:10Z</time>
  <course>304.44</course>
  <speed>0.76</speed>
  <fix>3d</fix>
</trkpt>
<trkpt lat="33.8101601" lon="-118.3940579">
  <ele>-0.112</ele>
  <time>2026-09-01T01:13:10Z</time>
  <course>291.63</course>
  <speed>0.7516648189186453</speed>
  <fix>3d</fix>
</trkpt>
<trkpt lat="33.8101592" lon="-118.3940572">
  <ele>-0.11</ele>
  <time>2026-09-01T01:13:10Z</time>
  <course>312.17</course>
  <speed>0.76</speed>
  <fix>3d</fix>
</trkpt>
<trkpt lat="33.8101606" lon="-118.3940584">
  <ele>-0.111</ele>
  <time>2026-09-01T01:13:10Z</time>
  <course>295.49</course>
  <speed>0.75</speed>
  <fix>3d</fix>
</trkpt>
<trkpt lat="33.8101592" lon="-118.3940572">
  <ele>-0.11</ele>
  <time>2026-09-01T01:13:10Z</time>
  <course>312.17</course>
  <speed>0.76</speed>
  <fix>3d</fix>
</trkpt>
<trkpt lat="33.8101612" lon="-118.3940589">
  <ele>-0.11</ele>
  <time>2026-09-01T01:13:10Z</time>
  <course>299.36</course>
  <speed>0.7516648189186453</speed>
  <fix>3d</fix>
</trkpt>
<trkpt lat="33.8101602" lon="-118.3940584">
  <ele>-0.1</ele>
  <time>2026-09-01T01:13:10Z</time>
  <course>319.89</course>
  <speed>0.76</speed>
  <fix>3d</fix>
</trkpt>
<trkpt lat="33.8101617" lon="-118.3940594">
  <ele>-0.11</ele>
  <time>2026-09-01T01:13:10Z</time>
  <course>303.22</course>
  <speed>0.7479304780526062</speed>
  <fix>3d</fix>
</trkpt>
<trkpt lat="33.8101602" lon="-118.3940584">
  <ele>-0.1</ele>
  <time>2026-09-01T01:13:10Z</time>
  <course>319.89</course>
  <speed>0.76</speed>
  <fix>3d</fix>
</trkpt>
<trkpt lat="33.8101623" lon="-118.3940598">
  <ele>-0.11</ele>
  <time>2026-09-01T01:13:10Z</time>
  <course>307.08</course>
  <speed>0.7424957912338628</speed>
  <fix>3d</fix>
</trkpt>
<trkpt lat="33.8101613" lon="-118.3940593">
  <ele>-0.1</ele>
  <time>2026-09-01T01:13:10Z</time>
  <course>327.61</course>
  <speed>0.76</speed>
  <fix>3d</fix>
</trkpt>
<trkpt lat="33.8101629" lon="-118.3940601">
  <ele>-0.111</ele>
  <time>2026-09-01T01:13:10Z</time>
  <course>310.94</course>
  <speed>0.7446475676452586</speed>
  <fix>3d</fix>
</trkpt>
<trkpt lat="33.8101613" lon="-118.3940593">
  <ele>-0.1</ele>
  <time>2026-09-01T01:13:10Z</time>
  <course>327.61</course>
  <speed>0.76</speed>
  <fix>3d</fix>
</trkpt>
<trkpt lat="33.8101635" lon="-118.3940604">
  <ele>-0.112</ele>
  <time>2026-09-01T01:13:10Z</time>
  <course>314.8</course>
  <speed>0.7368174807915459</speed>
  <fix>3d</fix>
</trkpt>
<trkpt lat="33.8101625" lon="-118.3940601">
  <ele>-0.1</ele>
  <time>2026-09-01T01:13:10Z</time>
  <course>335.34</course>
  <speed>0.76</speed>
  <fix>3d</fix>
</trkpt>
<trkpt lat="33.8101641" lon="-118.3940606">
  <ele>-0.112</ele>
  <time>2026-09-01T01:13:10Z</time>
  <course>318.66</course>
  <speed>0.7421590126111789</speed>
  <fix>3d</fix>
</trkpt>
<trkpt lat="33.8101625" lon="-118.3940601">
  <ele>-0.1</ele>
  <time>2026-09-01T01:13:10Z</time>
  <course>335.34</course>
  <speed>0.76</speed>
  <fix>3d</fix>
</trkpt>
<trkpt lat="33.8101647" lon="-118.3940608">
  <ele>-0.111</ele>
  <time>2026-09-01T01:13:10Z</time>
  <course>322.52</course>
  <speed>0.7414849964766651</speed>
  <fix>3d</fix>
</trkpt>
<trkpt lat="33.8101638" lon="-118.3940607">
  <ele>-0.1</ele>
  <time>2026-09-01T01:13:10Z</time>
  <course>343.06</course>
  <speed>0.76</speed>
  <fix>3d</fix>
</trkpt>
<trkpt lat="33.8101654" lon="-118.394061">
  <ele>-0.111</ele>
  <time>2026-09-01T01:13:10Z</time>
  <course>326.39</course>
  <speed>0.7355270219373317</speed>
  <fix>3d</fix>
</trkpt>
<trkpt lat="33.8101638" lon="-118.3940607">
  <ele>-0.1</ele>
  <time>2026-09-01T01:13:10Z</time>
  <course>343.06</course>
  <speed>0.76</speed>
  <fix>3d</fix>
</trkpt>
<trkpt lat="33.810166" lon="-118.394061">
  <ele>-0.11</ele>
  <time>2026-09-01T01:13:10Z</time>
  <course>330.25</course>
  <speed>0.7310950690573697</speed>
  <fix>3d</fix>
</trkpt>
<trkpt lat="33.8101651" lon="-118.394061">
  <ele>-0.11</ele>
  <time>2026-09-01T01:13:10Z</time>
  <course>350.79</course>
  <speed>0.76</speed>
  <fix>3d</fix>
</trkpt>
<trkpt lat="33.8101667" lon="-118.3940611">
  <ele>-0.11</ele>
  <time>2026-09-01T01:13:10Z</time>
  <course>334.11</course>
  <speed>0.73</speed>
  <fix>3d</fix>
</trkpt>
<trkpt lat="33.8101651" lon="-118.394061">
  <ele>-0.11</ele>
  <time>2026-09-01T01:13:10Z</time>
  <course>350.79</course>
  <speed>0.76</speed>
  <fix>3d</fix>
</trkpt>
<trkpt lat="33.8101674" lon="-118.3940611">
  <ele>-0.11</ele>
  <time>2026-09-01T01:13:10Z</time>
  <course>337.97</course>
  <speed>0.7317103251970687</speed>
  <fix>3d</fix>
</trkpt>
<trkpt lat="33.8101664" lon="-118.3940612">
  <ele>-0.1</ele>
  <time>2026-09-01T01:13:10Z</time>
  <course>358.51</course>
  <speed>0.76</speed>
  <fix>3d</fix>
</trkpt>
<trkpt lat="33.810168" lon="-118.3940611">
  <ele>-0.111</ele>
  <time>2026-09-01T01:13:10Z</time>
  <course>341.83</course>
  <speed>0.7269112738154498</speed>
  <fix>3d</fix>
</trkpt>
<trkpt lat="33.8101664" lon="-118.3940612">
  <ele>-0.1</ele>
  <time>2026-09-01T01:13:10Z</time>
  <course>358.51</course>
  <speed>0.76</speed>
  <fix>3d</fix>
</trkpt>
<trkpt lat="33.8101687" lon="-118.3940609">
  <ele>-0.111</ele>
  <time>2026-09-01T01:13:10Z</time>
  <course>345.69</course>
  <speed>0.7256721022610694</speed>
  <fix>3d</fix>
</trkpt>
<trkpt lat="33.8101678" lon="-118.3940612">
  <ele>-0.1</ele>
  <time>2026-09-01T01:13:10Z</time>
  <course>6.23</course>
  <speed>0.76</speed>
  <fix>3d</fix>
</trkpt>
<trkpt lat="33.8101693" lon="-118.3940608">
  <ele>-0.112</ele>
  <time>2026-09-01T01:13:10Z</time>
  <course>349.55</course>
  <speed>0.7280109889280518</speed>
  <fix>3d</fix>
</trkpt>
<trkpt lat="33.8101678" lon="-118.3940612">
  <ele>-0.1</ele>
  <time>2026-09-01T01:13:10Z</time>
  <course>6.23</course>
  <speed>0.76</speed>
  <fix>3d</fix>
</trkpt>
<trkpt lat="33.8101699" lon="-118.3940605">
  <ele>-0.112</ele>
  <time>2026-09-01T01:13:10Z</time>
  <course>353.42</course>
  <speed>0.7244998274671982</speed>
  <fix>3d</fix>
</trkpt>
<trkpt lat="33.8101692" lon="-118.394061">
  <ele>-0.1</ele>
  <time>2026-09-01T01:13:10Z</time>
  <course>13.97</course>
  <speed>0.76</speed>
  <fix>3d</fix>
</trkpt>
<trkpt lat="33.8101706" lon="-118.3940603">
  <ele>-0.111</ele>
  <time>2026-09-01T01:13:10Z</time>
  <course>357.28</course>
  <speed>0.7209022125087423</speed>
  <fix>3d</fix>
</trkpt>
<trkpt lat="33.8101692" lon="-118.394061">
  <ele>-0.1</ele>
  <time>2026-09-01T01:13:10Z</time>
  <course>13.97</course>
  <speed>0.76</speed>
  <fix>3d</fix>
</trkpt>
<trkpt lat="33.8101712" lon="-118.3940599">
  <ele>-0.111</ele>
  <time>2026-09-01T01:13:10Z</time>
  <course>0.06</course>
  <speed>0.702353187506115</speed>
  <fix>3d</fix>
</trkpt>
<trkpt lat="33.8101705" lon="-118.3940605">
  <ele>-0.1</ele>
  <time>2026-09-01T01:13:10Z</time>
  <course>21.76</course>
  <speed>0.76</speed>
  <fix>3d</fix>
</trkpt>
<trkpt lat="33.8101717" lon="-118.3940596">
  <ele>-0.11</ele>
  <time>2026-09-01T01:13:10Z</time>
  <course>1.29</course>
  <speed>0.696419413859206</speed>
  <fix>3d</fix>
</trkpt>
<trkpt lat="33.8101705" lon="-118.3940605">
  <ele>-0.1</ele>
  <time>2026-09-01T01:13:10Z</time>
  <course>21.76</course>
  <speed>0.76</speed>
  <fix>3d</fix>
</trkpt>
<trkpt lat="33.8101722" lon="-118.3940592">
  <ele>-0.109</ele>
  <time>2026-09-01T01:13:10Z</time>
  <course>2.07</course>
  <speed>0.5824946351684279</speed>
  <fix>3d</fix>
</trkpt>
<trkpt lat="33.8101717" lon="-118.3940598">
  <ele>-0.11</ele>
  <time>2026-09-01T01:13:10Z</time>
  <course>29.42</course>
  <speed>0.74</speed>
  <fix>3d</fix>
</trkpt>
<trkpt lat="33.8101727" lon="-118.3940589">
  <ele>-0.108</ele>
  <time>2026-09-01T01:13:10Z</time>
  <course>2.63</course>
  <speed>0.4780167361086848</speed>
  <fix>3d</fix>
</trkpt>
<trkpt lat="33.8101717" lon="-118.3940598">
  <ele>-0.11</ele>
  <time>2026-09-01T01:13:10Z</time>
  <course>29.42</course>
  <speed>0.74</speed>
  <fix>3d</fix>
</trkpt>
<trkpt lat="33.810173" lon="-118.3940586">
  <ele>-0.107</ele>
  <time>2026-09-01T01:13:10Z</time>
  <course>3.08</course>
  <speed>0.4</speed>
  <fix>3d</fix>
</trkpt>
<trkpt lat="33.8101727" lon="-118.394059">
  <ele>-0.1</ele>
  <time>2026-09-01T01:13:10Z</time>
  <course>35.7</course>
  <speed>0.6</speed>
  <fix>3d</fix>
</trkpt>
<trkpt lat="33.8101733" lon="-118.3940583">
  <ele>-0.105</ele>
  <time>2026-09-01T01:13:10Z</time>
  <course>3.45</course>
  <speed>0.34409301068170506</speed>
  <fix>3d</fix>
</trkpt>
<trkpt lat="33.8101727" lon="-118.394059">
  <ele>-0.1</ele>
  <time>2026-09-01T01:13:10Z</time>
  <course>35.7</course>
  <speed>0.6</speed>
  <fix>3d</fix>
</trkpt>
<trkpt lat="33.8101736" lon="-118.3940581">
  <ele>-0.106</ele>
  <time>2026-09-01T01:13:10Z</time>
  <course>3.76</course>
  <speed>0.29410882339705485</speed>
  <fix>3d</fix>
</trkpt>
<trkpt lat="33.8101735" lon="-118.3940583">
  <ele>-0.1</ele>
  <time>2026-09-01T01:13:10Z</time>
  <course>39.17</course>
  <speed>0.43</speed>
  <fix>3d</fix>
</trkpt>
<trkpt lat="33.8101738" lon="-118.3940579">
  <ele>-0.112</ele>
  <time>2026-09-01T01:13:10Z</time>
  <course>4.04</course>
  <speed>0.266270539113887</speed>
  <fix>3d</fix>
</trkpt>
<trkpt lat="33.8101735" lon="-118.3940583">
  <ele>-0.1</ele>
  <time>2026-09-01T01:13:10Z</time>
  <course>39.17</course>
  <speed>0.43</speed>
  <fix>3d</fix>
</trkpt>
<trkpt lat="33.8101741" lon="-118.3940577">
  <ele>-0.121</ele>
  <time>2026-09-01T01:13:10Z</time>
  <course>4.28</course>
  <speed>0.24413111231467405</speed>
  <fix>3d</fix>
</trkpt>
<trkpt lat="33.810174" lon="-118.3940578">
  <ele>-0.11</ele>
  <time>2026-09-01T01:13:10Z</time>
  <course>39.39</course>
  <speed>0.32</speed>
  <fix>3d</fix>
</trkpt>
<trkpt lat="33.8101743" lon="-118.3940575">
  <ele>-0.129</ele>
  <time>2026-09-01T01:13:10Z</time>
  <course>4.5</course>
  <speed>0.21633307652783937</speed>
  <fix>3d</fix>
</trkpt>
<trkpt lat="33.810174" lon="-118.3940578">
  <ele>-0.11</ele>
  <time>2026-09-01T01:13:10Z</time>
  <course>39.39</course>
  <speed>0.32</speed>
  <fix>3d</fix>
</trkpt>
<trkpt lat="33.8101744" lon="-118.3940574">
  <ele>-0.137</ele>
  <time>2026-09-01T01:13:10Z</time>
  <course>4.69</course>
  <speed>0.20248456731316586</speed>
  <fix>3d</fix>
</trkpt>
<trkpt lat="33.8101743" lon="-118.3940574">
  <ele>-0.13</ele>
  <time>2026-09-01T01:13:10Z</time>
  <course>39.65</course>
  <speed>0.26</speed>
  <fix>3d</fix>
</trkpt>
<trkpt lat="33.8101746" lon="-118.3940572">
  <ele>-0.144</ele>
  <time>2026-09-01T01:13:10Z</time>
  <course>4.87</course>
  <speed>0.18867962264113206</speed>
  <fix>3d</fix>
</trkpt>
<trkpt lat="33.8101743" lon="-118.3940574">
  <ele>-0.13</ele>
  <time>2026-09-01T01:13:10Z</time>
  <course>39.65</course>
  <speed>0.26</speed>
  <fix>3d</fix>
</trkpt>
<trkpt lat="33.8101748" lon="-118.3940571">
  <ele>-0.149</ele>
  <time>2026-09-01T01:13:10Z</time>
  <course>5.04</course>
  <speed>0.17492855684535902</speed>
  <fix>3d</fix>
</trkpt>
<trkpt lat="33.8101747" lon="-118.394057">
  <ele>-0.14</ele>
  <time>2026-09-01T01:13:10Z</time>
  <course>39.89</course>
  <speed>0.22</speed>
  <fix>3d</fix>
</trkpt>
<trkpt lat="33.8101749" lon="-118.394057">
  <ele>-0.155</ele>
  <time>2026-09-01T01:13:10Z</time>
  <course>5.2</course>
  <speed>0.1664331697709324</speed>
  <fix>3d</fix>
</trkpt>
<trkpt lat="33.8101747" lon="-118.394057">
  <ele>-0.14</ele>
  <time>2026-09-01T01:13:10Z</time>
  <course>39.89</course>
  <speed>0.22</speed>
  <fix>3d</fix>
</trkpt>
<trkpt lat="33.810175" lon="-118.3940568">
  <ele>-0.159</ele>
  <time>2026-09-01T01:13:10Z</time>
  <course>5.34</course>
  <speed>0.15264337522473748</speed>
  <fix>3d</fix>
</trkpt>
<trkpt lat="33.810175" lon="-118.3940567">
  <ele>-0.15</ele>
  <time>2026-09-01T01:13:10Z</time>
  <course>40.12</course>
  <speed>0.19</speed>
  <fix>3d</fix>
</trkpt>
<trkpt lat="33.8101752" lon="-118.3940567">
  <ele>-0.163</ele>
  <time>2026-09-01T01:13:10Z</time>
  <course>5.48</course>
  <speed>0.14422205101855956</speed>
  <fix>3d</fix>
</trkpt>
<trkpt lat="33.810175" lon="-118.3940567">
  <ele>-0.15</ele>
  <time>2026-09-01T01:13:10Z</time>
  <course>40.12</course>
  <speed>0.19</speed>
  <fix>3d</fix>
</trkpt>
<trkpt lat="33.8101753" lon="-118.3940566">
  <ele>-0.167</ele>
  <time>2026-09-01T01:13:10Z</time>
  <course>5.6</course>
  <speed>0.13601470508735444</speed>
  <fix>3d</fix>
</trkpt>
<trkpt lat="33.8101753" lon="-118.3940565">
  <ele>-0.16</ele>
  <time>2026-09-01T01:13:10Z</time>
  <course>40.33</course>
  <speed>0.16</speed>
  <fix>3d</fix>
</trkpt>
<trkpt lat="33.8101754" lon="-118.3940565">
  <ele>-0.172</ele>
  <time>2026-09-01T01:13:10Z</time>
  <course>5.72</course>
  <speed>0.130384048104053</speed>
  <fix>3d</fix>
</trkpt>
<trkpt lat="33.8101753" lon="-118.3940565">
  <ele>-0.16</ele>
  <time>2026-09-01T01:13:10Z</time>
  <course>40.33</course>
  <speed>0.16</speed>
  <fix>3d</fix>
</trkpt>
<trkpt lat="33.8101755" lon="-118.3940564">
  <ele>-0.175</ele>
  <time>2026-09-01T01:13:10Z</time>
  <course>5.84</course>
  <speed>0.12206555615733702</speed>
  <fix>3d</fix>
</trkpt>
<trkpt lat="33.8101755" lon="-118.3940563">
  <ele>-0.17</ele>
  <time>2026-09-01T01:13:10Z</time>
  <course>40.53</course>
  <speed>0.14</speed>
  <fix>3d</fix>
</trkpt>
<trkpt lat="33.8101756" lon="-118.3940563">
  <ele>-0.178</ele>
  <time>2026-09-01T01:13:10Z</time>
  <course>5.95</course>
  <speed>0.12206555615733702</speed>
  <fix>3d</fix>
</trkpt>
<trkpt lat="33.8101755" lon="-118.3940563">
  <ele>-0.17</ele>
  <time>2026-09-01T01:13:10Z</time>
  <course>40.53</course>
  <speed>0.14</speed>
  <fix>3d</fix>
</trkpt>
<trkpt lat="33.8101757" lon="-118.3940562">
  <ele>-0.18</ele>
  <time>2026-09-01T01:13:10Z</time>
  <course>6.05</course>
  <speed>0.11401754250991379</speed>
  <fix>3d</fix>
</trkpt>
<trkpt lat="33.8101757" lon="-118.3940561">
  <ele>-0.17</ele>
  <time>2026-09-01T01:13:10Z</time>
  <course>40.71</course>
  <speed>0.13</speed>
  <fix>3d</fix>
</trkpt>
<trkpt lat="33.8101758" lon="-118.3940561">
  <ele>-0.18</ele>
  <time>2026-09-01T01:13:10Z</time>
  <course>6.15</course>
  <speed>0.10816653826391968</speed>
  <fix>3d</fix>
</trkpt>
<trkpt lat="33.8101757" lon="-118.3940561">
  <ele>-0.17</ele>
  <time>2026-09-01T01:13:10Z</time>
  <course>40.71</course>
  <speed>0.13</speed>
  <fix>3d</fix>
</trkpt>
<trkpt lat="33.8101759" lon="-118.394056">
  <ele>-0.18</ele>
  <time>2026-09-01T01:13:10Z</time>
  <course>6.24</course>
  <speed>0.10816653826391968</speed>
  <fix>3d</fix>
</trkpt>
<trkpt lat="33.8101758" lon="-118.3940559">
  <ele>-0.18</ele>
  <time>2026-09-01T01:13:10Z</time>
  <course>40.88</course>
  <speed>0.12</speed>
  <fix>3d</fix>
</trkpt>
<trkpt lat="33.810176" lon="-118.3940559">
  <ele>-0.18</ele>
  <time>2026-09-01T01:13:10Z</time>
  <course>6.33</course>
  <speed>0.1</speed>
  <fix>3d</fix>
</trkpt>
<trkpt lat="33.8101758" lon="-118.3940559">
  <ele>-0.18</ele>
  <time>2026-09-01T01:13:10Z</time>
  <course>40.88</course>
  <speed>0.12</speed>
  <fix>3d</fix>
</trkpt>
<trkpt lat="33.810176" lon="-118.3940558">
  <ele>-0.179</ele>
  <time>2026-09-01T01:13:10Z</time>
  <course>6.42</course>
  <speed>0.1</speed>
  <fix>3d</fix>
</trkpt>
<trkpt lat="33.810176" lon="-118.3940558">
  <ele>-0.17</ele>
  <time>2026-09-01T01:13:10Z</time>
  <course>41.03</course>
  <speed>0.11</speed>
  <fix>3d</fix>
</trkpt>
<trkpt lat="33.8101761" lon="-118.3940557">
  <ele>-0.178</ele>
  <time>2026-09-01T01:13:10Z</time>
  <course>6.5</course>
  <speed>0.09219544457292887</speed>
  <fix>3d</fix>
</trkpt>
<trkpt lat="33.810176" lon="-118.3940558">
  <ele>-0.17</ele>
  <time>2026-09-01T01:13:10Z</time>
  <course>41.03</course>
  <speed>0.11</speed>
  <fix>3d</fix>
</trkpt>
<trkpt lat="33.8101762" lon="-118.3940556">
  <ele>-0.176</ele>
  <time>2026-09-01T01:13:10Z</time>
  <course>6.59</course>
  <speed>0.09219544457292887</speed>
  <fix>3d</fix>
</trkpt>
<trkpt lat="33.8101761" lon="-118.3940556">
  <ele>-0.17</ele>
  <time>2026-09-01T01:13:10Z</time>
  <course>41.18</course>
  <speed>0.1</speed>
  <fix>3d</fix>
</trkpt>
<trkpt lat="33.8101763" lon="-118.3940556">
  <ele>-0.173</ele>
  <time>2026-09-01T01:13:10Z</time>
  <course>6.66</course>
  <speed>0.09219544457292887</speed>
  <fix>3d</fix>
</trkpt>
<trkpt lat="33.8101761" lon="-118.3940556">
  <ele>-0.17</ele>
  <time>2026-09-01T01:13:10Z</time>
  <course>41.18</course>
  <speed>0.1</speed>
  <fix>3d</fix>
</trkpt>
<trkpt lat="33.8101763" lon="-118.3940555">
  <ele>-0.168</ele>
  <time>2026-09-01T01:13:10Z</time>
  <course>6.74</course>
  <speed>0.09219544457292887</speed>
  <fix>3d</fix>
</trkpt>
<trkpt lat="33.8101762" lon="-118.3940555">
  <ele>-0.16</ele>
  <time>2026-09-01T01:13:10Z</time>
  <course>41.32</course>
  <speed>0.09</speed>
  <fix>3d</fix>
</trkpt>
<trkpt lat="33.8101764" lon="-118.3940554">
  <ele>-0.162</ele>
  <time>2026-09-01T01:13:10Z</time>
  <course>6.81</course>
  <speed>0.07810249675906654</speed>
  <fix>3d</fix>
</trkpt>
<trkpt lat="33.8101762" lon="-118.3940555">
  <ele>-0.16</ele>
  <time>2026-09-01T01:13:10Z</time>
  <course>41.32</course>
  <speed>0.09</speed>
  <fix>3d</fix>
</trkpt>
<trkpt lat="33.8101764" lon="-118.3940553">
  <ele>-0.157</ele>
  <time>2026-09-01T01:13:10Z</time>
  <course>6.88</course>
  <speed>0.07810249675906654</speed>
  <fix>3d</fix>
</trkpt>
<trkpt lat="33.8101764" lon="-118.3940553">
  <ele>-0.15</ele>
  <time>2026-09-01T01:13:10Z</time>
  <course>41.45</course>
  <speed>0.09</speed>
  <fix>3d</fix>
</trkpt>
<trkpt lat="33.8101765" lon="-118.3940553">
  <ele>-0.151</ele>
  <time>2026-09-01T01:13:10Z</time>
  <course>6.95</course>
  <speed>0.07810249675906654</speed>
  <fix>3d</fix>
</trkpt>
<trkpt lat="33.8101764" lon="-118.3940553">
  <ele>-0.15</ele>
  <time>2026-09-01T01:13:10Z</time>
  <course>41.45</course>
  <speed>0.09</speed>
  <fix>3d</fix>
</trkpt>
<trkpt lat="33.8101765" lon="-118.3940552">
  <ele>-0.144</ele>
  <time>2026-09-01T01:13:10Z</time>
  <course>7.02</course>
  <speed>0.07071067811865475</speed>
  <fix>3d</fix>
</trkpt>
<trkpt lat="33.8101765" lon="-118.3940552">
  <ele>-0.14</ele>
  <time>2026-09-01T01:13:10Z</time>
  <course>41.57</course>
  <speed>0.08</speed>
  <fix>3d</fix>
</trkpt>
<trkpt lat="33.8101766" lon="-118.3940551">
  <ele>-0.138</ele>
  <time>2026-09-01T01:13:10Z</time>
  <course>7.09</course>
  <speed>0.07071067811865475</speed>
  <fix>3d</fix>
</trkpt>
<trkpt lat="33.8101765" lon="-118.3940552">
  <ele>-0.14</ele>
  <time>2026-09-01T01:13:10Z</time>
  <course>41.57</course>
  <speed>0.08</speed>
  <fix>3d</fix>
</trkpt>
<trkpt lat="33.8101766" lon="-118.3940551">
  <ele>-0.13</ele>
  <time>2026-09-01T01:13:10Z</time>
  <course>7.15</course>
  <speed>0.07071067811865475</speed>
  <fix>3d</fix>
</trkpt>
<trkpt lat="33.8101766" lon="-118.3940551">
  <ele>-0.13</ele>
  <time>2026-09-01T01:13:10Z</time>
  <course>41.69</course>
  <speed>0.07</speed>
  <fix>3d</fix>
</trkpt>
<trkpt lat="33.8101767" lon="-118.394055">
  <ele>-0.124</ele>
  <time>2026-09-01T01:13:10Z</time>
  <course>7.21</course>
  <speed>0.07071067811865475</speed>
  <fix>3d</fix>
</trkpt>
<trkpt lat="33.8101766" lon="-118.3940551">
  <ele>-0.13</ele>
  <time>2026-09-01T01:13:10Z</time>
  <course>41.69</course>
  <speed>0.07</speed>
  <fix>3d</fix>
</trkpt>
<trkpt lat="33.8101767" lon="-118.3940549">
  <ele>-0.117</ele>
  <time>2026-09-01T01:13:10Z</time>
  <course>7.27</course>
  <speed>0.06403124237432849</speed>
  <fix>3d</fix>
</trkpt>
<trkpt lat="33.8101767" lon="-118.394055">
  <ele>-0.12</ele>
  <time>2026-09-01T01:13:10Z</time>
  <course>41.8</course>
  <speed>0.07</speed>
  <fix>3d</fix>
</trkpt>
<trkpt lat="33.8101768" lon="-118.3940549">
  <ele>-0.112</ele>
  <time>2026-09-01T01:13:10Z</time>
  <course>7.33</course>
  <speed>0.06403124237432849</speed>
  <fix>3d</fix>
</trkpt>
<trkpt lat="33.8101767" lon="-118.394055">
  <ele>-0.12</ele>
  <time>2026-09-01T01:13:10Z</time>
  <course>41.8</course>
  <speed>0.07</speed>
  <fix>3d</fix>
</trkpt>
<trkpt lat="33.8101768" lon="-118.3940548">
  <ele>-0.11</ele>
  <time>2026-09-01T01:13:10Z</time>
  <course>7.39</course>
  <speed>0.06403124237432849</speed>
  <fix>3d</fix>
</trkpt>
<trkpt lat="33.8101768" lon="-118.3940549">
  <ele>-0.11</ele>
  <time>2026-09-01T01:13:10Z</time>
  <course>41.91</course>
  <speed>0.07</speed>
  <fix>3d</fix>
</trkpt>
<trkpt lat="33.8101768" lon="-118.3940548">
  <ele>-0.113</ele>
  <time>2026-09-01T01:13:10Z</time>
  <course>7.44</course>
  <speed>0.06403124237432849</speed>
  <fix>3d</fix>
</trkpt>
<trkpt lat="33.8101768" lon="-118.3940549">
  <ele>-0.11</ele>
  <time>2026-09-01T01:13:10Z</time>
  <course>41.91</course>
  <speed>0.07</speed>
  <fix>3d</fix>
</trkpt>
<trkpt lat="33.8101769" lon="-118.3940547">
  <ele>-0.119</ele>
  <time>2026-09-01T01:13:10Z</time>
  <course>7.5</course>
  <speed>0.06403124237432849</speed>
  <fix>3d</fix>
</trkpt>
<trkpt lat="33.8101769" lon="-118.3940548">
  <ele>-0.11</ele>
  <time>2026-09-01T01:13:10Z</time>
  <course>42.01</course>
  <speed>0.06</speed>
  <fix>3d</fix>
</trkpt>
<trkpt lat="33.8101769" lon="-118.3940547">
  <ele>-0.126</ele>
  <time>2026-09-01T01:13:10Z</time>
  <course>7.55</course>
  <speed>0.05830951894845301</speed>
  <fix>3d</fix>
</trkpt>
<trkpt lat="33.8101769" lon="-118.3940548">
  <ele>-0.11</ele>
  <time>2026-09-01T01:13:10Z</time>
  <course>42.01</course>
  <speed>0.06</speed>
  <fix>3d</fix>
</trkpt>
<trkpt lat="33.810177" lon="-118.3940546">
  <ele>-0.132</ele>
  <time>2026-09-01T01:13:10Z</time>
  <course>7.6</course>
  <speed>0.05830951894845301</speed>
  <fix>3d</fix>
</trkpt>
<trkpt lat="33.810177" lon="-118.3940547">
  <ele>-0.12</ele>
  <time>2026-09-01T01:13:10Z</time>
  <course>42.11</course>
  <speed>0.06</speed>
  <fix>3d</fix>
</trkpt>
<trkpt lat="33.810177" lon="-118.3940546">
  <ele>-0.138</ele>
  <time>2026-09-01T01:13:10Z</time>
  <course>7.66</course>
  <speed>0.05830951894845301</speed>
  <fix>3d</fix>
</trkpt>
<trkpt lat="33.810177" lon="-118.3940547">
  <ele>-0.12</ele>
  <time>2026-09-01T01:13:10Z</time>
  <course>42.11</course>
  <speed>0.06</speed>
  <fix>3d</fix>
</trkpt>
<trkpt lat="33.810177" lon="-118.3940545">
  <ele>-0.144</ele>
  <time>2026-09-01T01:13:10Z</time>
  <course>7.71</course>
  <speed>0.05830951894845301</speed>
  <fix>3d</fix>
</trkpt>
<trkpt lat="33.8101771" lon="-118.3940546">
  <ele>-0.13</ele>
  <time>2026-09-01T01:13:10Z</time>
  <course>42.2</course>
  <speed>0.06</speed>
  <fix>3d</fix>
</trkpt>
<trkpt lat="33.8101771" lon="-118.3940545">
  <ele>-0.149</ele>
  <time>2026-09-01T01:13:10Z</time>
  <course>7.75</course>
  <speed>0.05830951894845301</speed>
  <fix>3d</fix>
</trkpt>
<trkpt lat="33.8101771" lon="-118.3940546">
  <ele>-0.13</ele>
  <time>2026-09-01T01:13:10Z</time>
  <course>42.2</course>
  <speed>0.06</speed>
  <fix>3d</fix>
</trkpt>
<trkpt lat="33.8101771" lon="-118.3940544">
  <ele>-0.152</ele>
  <time>2026-09-01T01:13:10Z</time>
  <course>7.8</course>
  <speed>0.05830951894845301</speed>
  <fix>3d</fix>
</trkpt>
<trkpt lat="33.8101772" lon="-118.3940545">
  <ele>-0.14</ele>
  <time>2026-09-01T01:13:10Z</time>
  <course>42.29</course>
  <speed>0.05</speed>
  <fix>3d</fix>
</trkpt>
<trkpt lat="33.8101771" lon="-118.3940544">
  <ele>-0.155</ele>
  <time>2026-09-01T01:13:10Z</time>
  <course>7.85</course>
  <speed>0.053851648071345036</speed>
  <fix>3d</fix>
</trkpt>
<trkpt lat="33.8101772" lon="-118.3940545">
  <ele>-0.14</ele>
  <time>2026-09-01T01:13:10Z</time>
  <course>42.29</course>
  <speed>0.05</speed>
  <fix>3d</fix>
</trkpt>
<trkpt lat="33.8101772" lon="-118.3940543">
  <ele>-0.156</ele>
  <time>2026-09-01T01:13:10Z</time>
  <course>7.9</course>
  <speed>0.053851648071345036</speed>
  <fix>3d</fix>
</trkpt>
<trkpt lat="33.8101772" lon="-118.3940544">
  <ele>-0.14</ele>
  <time>2026-09-01T01:13:10Z</time>
  <course>42.37</course>
  <speed>0.05</speed>
  <fix>3d</fix>
</trkpt>
<trkpt lat="33.8101772" lon="-118.3940543">
  <ele>-0.157</ele>
  <time>2026-09-01T01:13:10Z</time>
  <course>7.94</course>
  <speed>0.053851648071345036</speed>
  <fix>3d</fix>
</trkpt>
<trkpt lat="33.8101772" lon="-118.3940544">
  <ele>-0.14</ele>
  <time>2026-09-01T01:13:10Z</time>
  <course>42.37</course>
  <speed>0.05</speed>
  <fix>3d</fix>
</trkpt>
<trkpt lat="33.8101772" lon="-118.3940542">
  <ele>-0.158</ele>
  <time>2026-09-01T01:13:10Z</time>
  <course>7.99</course>
  <speed>0.053851648071345036</speed>
  <fix>3d</fix>
</trkpt>
<trkpt lat="33.8101773" lon="-118.3940543">
  <ele>-0.15</ele>
  <time>2026-09-01T01:13:10Z</time>
  <course>42.46</course>
  <speed>0.05</speed>
  <fix>3d</fix>
</trkpt>
<trkpt lat="33.8101773" lon="-118.3940542">
  <ele>-0.158</ele>
  <time>2026-09-01T01:13:10Z</time>
  <course>8.03</course>
  <speed>0.053851648071345036</speed>
  <fix>3d</fix>
</trkpt>
<trkpt lat="33.8101773" lon="-118.3940543">
  <ele>-0.15</ele>
  <time>2026-09-01T01:13:10Z</time>
  <course>42.46</course>
  <speed>0.05</speed>
  <fix>3d</fix>
</trkpt>
<trkpt lat="33.8101773" lon="-118.3940541">
  <ele>-0.158</ele>
  <time>2026-09-01T01:13:10Z</time>
  <course>8.07</course>
  <speed>0.053851648071345036</speed>
  <fix>3d</fix>
</trkpt>
<trkpt lat="33.8101774" lon="-118.3940542">
  <ele>-0.15</ele>
  <time>2026-09-01T01:13:10Z</time>
  <course>42.53</course>
  <speed>0.05</speed>
  <fix>3d</fix>
</trkpt>
<trkpt lat="33.8101773" lon="-118.3940541">
  <ele>-0.156</ele>
  <time>2026-09-01T01:13:10Z</time>
  <course>8.11</course>
  <speed>0.05099019513592785</speed>
  <fix>3d</fix>
</trkpt>
<trkpt lat="33.8101774" lon="-118.3940542">
  <ele>-0.15</ele>
  <time>2026-09-01T01:13:10Z</time>
  <course>42.53</course>
  <speed>0.05</speed>
  <fix>3d</fix>
</trkpt>
<trkpt lat="33.8101774" lon="-118.394054">
  <ele>-0.153</ele>
  <time>2026-09-01T01:13:10Z</time>
  <course>8.16</course>
  <speed>0.05099019513592785</speed>
  <fix>3d</fix>
</trkpt>
<trkpt lat="33.8101775" lon="-118.3940542">
  <ele>-0.14</ele>
  <time>2026-09-01T01:13:10Z</time>
  <course>42.61</course>
  <speed>0.05</speed>
  <fix>3d</fix>
</trkpt>
<trkpt lat="33.8101774" lon="-118.394054">
  <ele>-0.149</ele>
  <time>2026-09-01T01:13:10Z</time>
  <course>8.2</course>
  <speed>0.05099019513592785</speed>
  <fix>3d</fix>
</trkpt>
<trkpt lat="33.8101775" lon="-118.3940542">
  <ele>-0.14</ele>
  <time>2026-09-01T01:13:10Z</time>
  <course>42.61</course>
  <speed>0.05</speed>
  <fix>3d</fix>
</trkpt>
<trkpt lat="33.4368002" lon="-117.0859339">
  <ele>-0.11</ele>
  <time>2026-09-01T01:13:11Z</time>
  <course>0.0</course>
  <speed>0.0</speed>
  <fix>3d</fix>
</trkpt>
<trkpt lat="33.4368002" lon="-117.0859339">
  <ele>-0.11</ele>
  <time>2026-09-01T01:13:11Z</time>
  <course>0.0</course>
  <speed>0.0</speed>
  <fix>3d</fix>
</trkpt>
<trkpt lat="33.810313" lon="-118.393867">
  <ele>0.0</ele>
  <time>2026-09-01T01:13:11Z</time>
  <course>173.5</course>
  <speed>0.0</speed>
  <fix>3d</fix>
</trkpt>
<trkpt lat="33.810313" lon="-118.393867">
  <ele>-0.11</ele>
  <time>2026-09-01T01:13:11Z</time>
  <course>0.0</course>
  <speed>0.0</speed>
  <fix>3d</fix>
</trkpt>
<trkpt lat="33.810313" lon="-118.393867">
  <ele>0.0</ele>
  <time>2026-09-01T01:13:11Z</time>
  <course>173.64</course>
  <speed>0.0</speed>
  <fix>3d</fix>
</trkpt>
<trkpt lat="33.810313" lon="-118.393867">
  <ele>-0.11</ele>
  <time>2026-09-01T01:13:11Z</time>
  <course>0.0</course>
  <speed>0.0</speed>
  <fix>3d</fix>
</trkpt>
<trkpt lat="33.810313" lon="-118.393867">
  <ele>0.0</ele>
  <time>2026-09-01T01:13:11Z</time>
  <course>174.03</course>
  <speed>0.0</speed>
  <fix>3d</fix>
</trkpt>
<trkpt lat="33.810313" lon="-118.393867">
  <ele>-0.11</ele>
  <time>2026-09-01T01:13:11Z</time>
  <course>0.0</course>
  <speed>0.0</speed>
  <fix>3d</fix>
</trkpt>
<trkpt lat="33.810313" lon="-118.393867">
  <ele>0.0</ele>
  <time>2026-09-01T01:13:11Z</time>
  <course>174.57</course>
  <speed>0.0</speed>
  <fix>3d</fix>
</trkpt>
<trkpt lat="33.810313" lon="-118.393867">
  <ele>-0.11</ele>
  <time>2026-09-01T01:13:11Z</time>
  <course>0.0</course>
  <speed>0.0</speed>
  <fix>3d</fix>
</trkpt>
<trkpt lat="33.810313" lon="-118.393867">
  <ele>0.0</ele>
  <time>2026-09-01T01:13:11Z</time>
  <course>175.13</course>
  <speed>0.0</speed>
  <fix>3d</fix>
</trkpt>
<trkpt lat="33.810313" lon="-118.393867">
  <ele>-0.12</ele>
  <time>2026-09-01T01:13:11Z</time>
  <course>0.0</course>
  <speed>0.0</speed>
  <fix>3d</fix>
</trkpt>
<trkpt lat="33.810313" lon="-118.393867">
  <ele>0.0</ele>
  <time>2026-09-01T01:13:11Z</time>
  <course>175.67</course>
  <speed>0.0</speed>
  <fix>3d</fix>
</trkpt>
<trkpt lat="33.810313" lon="-118.393867">
  <ele>-0.12</ele>
  <time>2026-09-01T01:13:11Z</time>
  <course>0.0</course>
  <speed>0.0</speed>
  <fix>3d</fix>
</trkpt>
<trkpt lat="33.810313" lon="-118.393867">
  <ele>0.0</ele>
  <time>2026-09-01T01:13:11Z</time>
  <course>176.17</course>
  <speed>0.0</speed>
  <fix>3d</fix>
</trkpt>
<trkpt lat="33.810313" lon="-118.393867">
  <ele>-0.13</ele>
  <time>2026-09-01T01:13:11Z</time>
  <course>0.0</course>
  <speed>0.0</speed>
  <fix>3d</fix>
</trkpt>
<trkpt lat="33.810313" lon="-118.393867">
  <ele>0.0</ele>
  <time>2026-09-01T01:13:11Z</time>
  <course>176.65</course>
  <speed>0.0</speed>
  <fix>3d</fix>
</trkpt>
<trkpt lat="33.810313" lon="-118.393867">
  <ele>-0.13</ele>
  <time>2026-09-01T01:13:11Z</time>
  <course>0.0</course>
  <speed>0.0</speed>
  <fix>3d</fix>
</trkpt>
<trkpt lat="33.810313" lon="-118.393867">
  <ele>0.0</ele>
  <time>2026-09-01T01:13:11Z</time>
  <course>177.12</course>
  <speed>0.0</speed>
  <fix>3d</fix>
</trkpt>
<trkpt lat="33.810313" lon="-118.393867">
  <ele>-0.13</ele>
  <time>2026-09-01T01:13:11Z</time>
  <course>0.0</course>
  <speed>0.0</speed>
  <fix>3d</fix>
</trkpt>
<trkpt lat="33.810313" lon="-118.393867">
  <ele>0.0</ele>
  <time>2026-09-01T01:13:11Z</time>
  <course>177.57</course>
  <speed>0.0</speed>
  <fix>3d</fix>
</trkpt>
<trkpt lat="33.810313" lon="-118.393867">
  <ele>-0.13</ele>
  <time>2026-09-01T01:13:11Z</time>
  <course>0.0</course>
  <speed>0.0</speed>
  <fix>3d</fix>
</trkpt>
<trkpt lat="33.810313" lon="-118.393867">
  <ele>0.0</ele>
  <time>2026-09-01T01:13:11Z</time>
  <course>178.02</course>
  <speed>0.0</speed>
  <fix>3d</fix>
</trkpt>
<trkpt lat="33.810313" lon="-118.393867">
  <ele>-0.14</ele>
  <time>2026-09-01T01:13:11Z</time>
  <course>0.0</course>
  <speed>0.0</speed>
  <fix>3d</fix>
</trkpt>
<trkpt lat="33.810313" lon="-118.393867">
  <ele>0.0</ele>
  <time>2026-09-01T01:13:11Z</time>
  <course>178.45</course>
  <speed>0.0</speed>
  <fix>3d</fix>
</trkpt>
<trkpt lat="33.810313" lon="-118.393867">
  <ele>-0.14</ele>
  <time>2026-09-01T01:13:11Z</time>
  <course>0.0</course>
  <speed>0.0</speed>
  <fix>3d</fix>
</trkpt>
<trkpt lat="33.810313" lon="-118.393867">
  <ele>0.0</ele>
  <time>2026-09-01T01:13:11Z</time>
  <course>178.87</course>
  <speed>0.0</speed>
  <fix>3d</fix>
</trkpt>
<trkpt lat="33.810313" lon="-118.393867">
  <ele>-0.14</ele>
  <time>2026-09-01T01:13:11Z</time>
  <course>0.0</course>
  <speed>0.0</speed>
  <fix>3d</fix>
</trkpt>
<trkpt lat="33.810313" lon="-118.393867">
  <ele>0.0</ele>
  <time>2026-09-01T01:13:11Z</time>
  <course>179.27</course>
  <speed>0.0</speed>
  <fix>3d</fix>
</trkpt>
<trkpt lat="33.810313" lon="-118.393867">
  <ele>-0.14</ele>
  <time>2026-09-01T01:13:11Z</time>
  <course>0.0</course>
  <speed>0.0</speed>
  <fix>3d</fix>
</trkpt>
<trkpt lat="33.810313" lon="-118.393867">
  <ele>0.0</ele>
  <time>2026-09-01T01:13:11Z</time>
  <course>179.66</course>
  <speed>0.0</speed>
  <fix>3d</fix>
</trkpt>
<trkpt lat="33.810313" lon="-118.393867">
  <ele>-0.14</ele>
  <time>2026-09-01T01:13:11Z</time>
  <course>0.0</course>
  <speed>0.0</speed>
  <fix>3d</fix>
</trkpt>
<trkpt lat="33.810313" lon="-118.393867">
  <ele>0.0</ele>
  <time>2026-09-01T01:13:11Z</time>
  <course>180.05</course>
  <speed>0.0</speed>
  <fix>3d</fix>
</trkpt>
<trkpt lat="33.810313" lon="-118.393867">
  <ele>-0.14</ele>
  <time>2026-09-01T01:13:11Z</time>
  <course>0.0</course>
  <speed>0.0</speed>
  <fix>3d</fix>
</trkpt>
<trkpt lat="33.810313" lon="-118.393867">
  <ele>0.0</ele>
  <time>2026-09-01T01:13:11Z</time>
  <course>180.41</course>
  <speed>0.0</speed>
  <fix>3d</fix>
</trkpt>
<trkpt lat="33.810313" lon="-118.393867">
  <ele>-0.14</ele>
  <time>2026-09-01T01:13:11Z</time>
  <course>0.0</course>
  <speed>0.0</speed>
  <fix>3d</fix>
</trkpt>
<trkpt lat="33.810313" lon="-118.393867">
  <ele>0.0</ele>
  <time>2026-09-01T01:13:11Z</time>
  <course>180.76</course>
  <speed>0.0</speed>
  <fix>3d</fix>
</trkpt>
<trkpt lat="33.810313" lon="-118.393867">
  <ele>-0.14</ele>
  <time>2026-09-01T01:13:11Z</time>
  <course>0.0</course>
  <speed>0.0</speed>
  <fix>3d</fix>
</trkpt>
<trkpt lat="33.810313" lon="-118.393867">
  <ele>0.0</ele>
  <time>2026-09-01T01:13:11Z</time>
  <course>181.1</course>
  <speed>0.0</speed>
  <fix>3d</fix>
</trkpt>
<trkpt lat="33.810313" lon="-118.393867">
  <ele>-0.13</ele>
  <time>2026-09-01T01:13:11Z</time>
  <course>0.0</course>
  <speed>0.0</speed>
  <fix>3d</fix>
</trkpt>
<trkpt lat="33.810313" lon="-118.393867">
  <ele>0.0</ele>
  <time>2026-09-01T01:13:11Z</time>
  <course>181.43</course>
  <speed>0.0</speed>
  <fix>3d</fix>
</trkpt>
<trkpt lat="33.810313" lon="-118.393867">
  <ele>-0.13</ele>
  <time>2026-09-01T01:13:11Z</time>
  <course>0.0</course>
  <speed>0.0</speed>
  <fix>3d</fix>
</trkpt>
<trkpt lat="33.810313" lon="-118.393867">
  <ele>0.0</ele>
  <time>2026-09-01T01:13:11Z</time>
  <course>181.75</course>
  <speed>0.0</speed>
  <fix>3d</fix>
</trkpt>
<trkpt lat="33.810313" lon="-118.393867">
  <ele>-0.12</ele>
  <time>2026-09-01T01:13:11Z</time>
  <course>0.0</course>
  <speed>0.0</speed>
  <fix>3d</fix>
</trkpt>
<trkpt lat="33.810313" lon="-118.393867">
  <ele>0.0</ele>
  <time>2026-09-01T01:13:11Z</time>
  <course>182.05</course>
  <speed>0.0</speed>
  <fix>3d</fix>
</trkpt>
<trkpt lat="33.810313" lon="-118.393867">
  <ele>-0.12</ele>
  <time>2026-09-01T01:13:11Z</time>
  <course>0.0</course>
  <speed>0.0</speed>
  <fix>3d</fix>
</trkpt>
<trkpt lat="33.810313" lon="-118.393867">
  <ele>0.0</ele>
  <time>2026-09-01T01:13:11Z</time>
  <course>182.35</course>
  <speed>0.0</speed>
  <fix>3d</fix>
</trkpt>
<trkpt lat="33.810313" lon="-118.393867">
  <ele>-0.12</ele>
  <time>2026-09-01T01:13:11Z</time>
  <course>0.0</course>
  <speed>0.0</speed>
  <fix>3d</fix>
</trkpt>
<trkpt lat="33.810313" lon="-118.393867">
  <ele>0.0</ele>
  <time>2026-09-01T01:13:11Z</time>
  <course>182.63</course>
  <speed>0.0</speed>
  <fix>3d</fix>
</trkpt>
<trkpt lat="33.810313" lon="-118.393867">
  <ele>-0.12</ele>
  <time>2026-09-01T01:13:11Z</time>
  <course>0.0</course>
  <speed>0.0</speed>
  <fix>3d</fix>
</trkpt>
<trkpt lat="33.810313" lon="-118.393867">
  <ele>0.0</ele>
  <time>2026-09-01T01:13:11Z</time>
  <course>182.9</course>
  <speed>0.0</speed>
  <fix>3d</fix>
</trkpt>
<trkpt lat="33.810313" lon="-118.393867">
  <ele>-0.11</ele>
  <time>2026-09-01T01:13:11Z</time>
  <course>0.0</course>
  <speed>0.0</speed>
  <fix>3d</fix>
</trkpt>
<trkpt lat="33.810313" lon="-118.393867">
  <ele>0.0</ele>
  <time>2026-09-01T01:13:11Z</time>
  <course>183.16</course>
  <speed>0.0</speed>
  <fix>3d</fix>
</trkpt>
<trkpt lat="33.810313" lon="-118.393867">
  <ele>-0.11</ele>
  <time>2026-09-01T01:13:11Z</time>
  <course>0.0</course>
  <speed>0.0</speed>
  <fix>3d</fix>
</trkpt>
<trkpt lat="33.810313" lon="-118.393867">
  <ele>0.0</ele>
  <time>2026-09-01T01:13:11Z</time>
  <course>183.41</course>
  <speed>0.0</speed>
  <fix>3d</fix>
</trkpt>
<trkpt lat="33.810313" lon="-118.393867">
  <ele>-0.11</ele>
  <time>2026-09-01T01:13:11Z</time>
  <course>0.0</course>
  <speed>0.0</speed>
  <fix>3d</fix>
</trkpt>
<trkpt lat="33.810313" lon="-118.393867">
  <ele>0.0</ele>
  <time>2026-09-01T01:13:11Z</time>
  <course>183.65</course>
  <speed>0.0</speed>
  <fix>3d</fix>
</trkpt>
<trkpt lat="33.810313" lon="-118.393867">
  <ele>-0.11</ele>
  <time>2026-09-01T01:13:11Z</time>
  <course>0.0</course>
  <speed>0.0</speed>
  <fix>3d</fix>
</trkpt>
<trkpt lat="33.810313" lon="-118.393867">
  <ele>0.0</ele>
  <time>2026-09-01T01:13:11Z</time>
  <course>183.88</course>
  <speed>0.0</speed>
  <fix>3d</fix>
</trkpt>
<trkpt lat="33.810313" lon="-118.393867">
  <ele>-0.12</ele>
  <time>2026-09-01T01:13:11Z</time>
  <course>0.0</course>
  <speed>0.0</speed>
  <fix>3d</fix>
</trkpt>
<trkpt lat="33.810313" lon="-118.393867">
  <ele>0.0</ele>
  <time>2026-09-01T01:13:11Z</time>
  <course>184.11</course>
  <speed>0.0</speed>
  <fix>3d</fix>
</trkpt>
<trkpt lat="33.810313" lon="-118.393867">
  <ele>-0.12</ele>
  <time>2026-09-01T01:13:11Z</time>
  <course>0.0</course>
  <speed>0.0</speed>
  <fix>3d</fix>
</trkpt>
<trkpt lat="33.810313" lon="-118.393867">
  <ele>0.0</ele>
  <time>2026-09-01T01:13:11Z</time>
  <course>184.32</course>
  <speed>0.0</speed>
  <fix>3d</fix>
</trkpt>
<trkpt lat="33.810313" lon="-118.393867">
  <ele>-0.13</ele>
  <time>2026-09-01T01:13:11Z</time>
  <course>0.0</course>
  <speed>0.0</speed>
  <fix>3d</fix>
</trkpt>
<trkpt lat="33.810313" lon="-118.393867">
  <ele>0.0</ele>
  <time>2026-09-01T01:13:11Z</time>
  <course>184.52</course>
  <speed>0.0</speed>
  <fix>3d</fix>
</trkpt>
<trkpt lat="33.810313" lon="-118.393867">
  <ele>-0.13</ele>
  <time>2026-09-01T01:13:11Z</time>
  <course>0.0</course>
  <speed>0.0</speed>
  <fix>3d</fix>
</trkpt>
<trkpt lat="33.810313" lon="-118.393867">
  <ele>0.0</ele>
  <time>2026-09-01T01:13:11Z</time>
  <course>184.72</course>
  <speed>0.0</speed>
  <fix>3d</fix>
</trkpt>
<trkpt lat="33.810313" lon="-118.393867">
  <ele>-0.13</ele>
  <time>2026-09-01T01:13:11Z</time>
  <course>0.0</course>
  <speed>0.0</speed>
  <fix>3d</fix>
</trkpt>
<trkpt lat="33.810313" lon="-118.393867">
  <ele>0.0</ele>
  <time>2026-09-01T01:13:11Z</time>
  <course>184.91</course>
  <speed>0.0</speed>
  <fix>3d</fix>
</trkpt>
<trkpt lat="33.810313" lon="-118.393867">
  <ele>-0.13</ele>
  <time>2026-09-01T01:13:11Z</time>
  <course>0.0</course>
  <speed>0.0</speed>
  <fix>3d</fix>
</trkpt>
<trkpt lat="33.810313" lon="-118.393867">
  <ele>0.0</ele>
  <time>2026-09-01T01:13:11Z</time>
  <course>185.09</course>
  <speed>0.0</speed>
  <fix>3d</fix>
</trkpt>
<trkpt lat="33.810313" lon="-118.393867">
  <ele>-0.14</ele>
  <time>2026-09-01T01:13:11Z</time>
  <course>0.0</course>
  <speed>0.0</speed>
  <fix>3d</fix>
</trkpt>
<trkpt lat="33.810313" lon="-118.393867">
  <ele>0.0</ele>
  <time>2026-09-01T01:13:11Z</time>
  <course>185.26</course>
  <speed>0.0</speed>
  <fix>3d</fix>
</trkpt>
<trkpt lat="33.810313" lon="-118.393867">
  <ele>-0.14</ele>
  <time>2026-09-01T01:13:11Z</time>
  <course>0.0</course>
  <speed>0.0</speed>
  <fix>3d</fix>
</trkpt>
<trkpt lat="33.810313" lon="-118.393867">
  <ele>0.0</ele>
  <time>2026-09-01T01:13:11Z</time>
  <course>185.42</course>
  <speed>0.0</speed>
  <fix>3d</fix>
</trkpt>
<trkpt lat="33.810313" lon="-118.393867">
  <ele>-0.13</ele>
  <time>2026-09-01T01:13:11Z</time>
  <course>0.0</course>
  <speed>0.0</speed>
  <fix>3d</fix>
</trkpt>
<trkpt lat="33.810313" lon="-118.393867">
  <ele>0.0</ele>
  <time>2026-09-01T01:13:11Z</time>
  <course>185.58</course>
  <speed>0.0</speed>
  <fix>3d</fix>
</trkpt>
<trkpt lat="33.810313" lon="-118.393867">
  <ele>-0.13</ele>
  <time>2026-09-01T01:13:11Z</time>
  <course>0.0</course>
  <speed>0.0</speed>
  <fix>3d</fix>
</trkpt>
<trkpt lat="33.810313" lon="-118.393867">
  <ele>0.0</ele>
  <time>2026-09-01T01:13:11Z</time>
  <course>185.73</course>
  <speed>0.0</speed>
  <fix>3d</fix>
</trkpt>
<trkpt lat="33.810313" lon="-118.393867">
  <ele>-0.13</ele>
  <time>2026-09-01T01:13:11Z</time>
  <course>0.0</course>
  <speed>0.0</speed>
  <fix>3d</fix>
</trkpt>
<trkpt lat="33.810313" lon="-118.393867">
  <ele>0.0</ele>
  <time>2026-09-01T01:13:11Z</time>
  <course>185.87</course>
  <speed>0.0</speed>
  <fix>3d</fix>
</trkpt>
<trkpt lat="33.810313" lon="-118.393867">
  <ele>-0.13</ele>
  <time>2026-09-01T01:13:11Z</time>
  <course>0.0</course>
  <speed>0.0</speed>
  <fix>3d</fix>
</trkpt>
<trkpt lat="33.810313" lon="-118.393867">
  <ele>0.0</ele>
  <time>2026-09-01T01:13:11Z</time>
  <course>186.01</course>
  <speed>0.0</speed>
  <fix>3d</fix>
</trkpt>
<trkpt lat="33.810313" lon="-118.393867">
  <ele>-0.12</ele>
  <time>2026-09-01T01:13:11Z</time>
  <course>0.0</course>
  <speed>0.0</speed>
  <fix>3d</fix>
</trkpt>
<trkpt lat="33.810313" lon="-118.393867">
  <ele>0.0</ele>
  <time>2026-09-01T01:13:11Z</time>
  <course>186.14</course>
  <speed>0.0</speed>
  <fix>3d</fix>
</trkpt>
<trkpt lat="33.810313" lon="-118.393867">
  <ele>-0.12</ele>
  <time>2026-09-01T01:13:11Z</time>
  <course>0.0</course>
  <speed>0.0</speed>
  <fix>3d</fix>
</trkpt>
<trkpt lat="33.810313" lon="-118.393867">
  <ele>0.0</ele>
  <time>2026-09-01T01:13:11Z</time>
  <course>186.27</course>
  <speed>0.0</speed>
  <fix>3d</fix>
</trkpt>
<trkpt lat="33.810313" lon="-118.393867">
  <ele>-0.12</ele>
  <time>2026-09-01T01:13:11Z</time>
  <course>0.0</course>
  <speed>0.0</speed>
  <fix>3d</fix>
</trkpt>
<trkpt lat="33.810313" lon="-118.393867">
  <ele>0.0</ele>
  <time>2026-09-01T01:13:11Z</time>
  <course>186.39</course>
  <speed>0.0</speed>
  <fix>3d</fix>
</trkpt>
<trkpt lat="33.810313" lon="-118.393867">
  <ele>-0.12</ele>
  <time>2026-09-01T01:13:11Z</time>
  <course>0.0</course>
  <speed>0.0</speed>
  <fix>3d</fix>
</trkpt>
<trkpt lat="33.810313" lon="-118.393867">
  <ele>0.0</ele>
  <time>2026-09-01T01:13:11Z</time>
  <course>186.5</course>
  <speed>0.0</speed>
  <fix>3d</fix>
</trkpt>
<trkpt lat="33.810313" lon="-118.393867">
  <ele>-0.12</ele>
  <time>2026-09-01T01:13:11Z</time>
  <course>0.0</course>
  <speed>0.0</speed>
  <fix>3d</fix>
</trkpt>
<trkpt lat="33.810313" lon="-118.393867">
  <ele>0.0</ele>
  <time>2026-09-01T01:13:11Z</time>
  <course>186.61</course>
  <speed>0.0</speed>
  <fix>3d</fix>
</trkpt>
<trkpt lat="33.810313" lon="-118.393867">
  <ele>-0.12</ele>
  <time>2026-09-01T01:13:11Z</time>
  <course>0.0</course>
  <speed>0.0</speed>
  <fix>3d</fix>
</trkpt>
<trkpt lat="33.810313" lon="-118.393867">
  <ele>0.0</ele>
  <time>2026-09-01T01:13:11Z</time>
  <course>186.72</course>
  <speed>0.0</speed>
  <fix>3d</fix>
</trkpt>
<trkpt lat="33.810313" lon="-118.393867">
  <ele>-0.12</ele>
  <time>2026-09-01T01:13:11Z</time>
  <course>0.0</course>
  <speed>0.0</speed>
  <fix>3d</fix>
</trkpt>
<trkpt lat="33.810313" lon="-118.393867">
  <ele>0.0</ele>
  <time>2026-09-01T01:13:11Z</time>
  <course>186.82</course>
  <speed>0.0</speed>
  <fix>3d</fix>
</trkpt>
<trkpt lat="33.810313" lon="-118.393867">
  <ele>-0.12</ele>
  <time>2026-09-01T01:13:11Z</time>
  <course>0.0</course>
  <speed>0.0</speed>
  <fix>3d</fix>
</trkpt>
<trkpt lat="33.810313" lon="-118.393867">
  <ele>0.0</ele>
  <time>2026-09-01T01:13:11Z</time>
  <course>186.91</course>
  <speed>0.0</speed>
  <fix>3d</fix>
</trkpt>
<trkpt lat="33.810313" lon="-118.393867">
  <ele>-0.12</ele>
  <time>2026-09-01T01:13:11Z</time>
  <course>0.0</course>
  <speed>0.0</speed>
  <fix>3d</fix>
</trkpt>
<trkpt lat="33.810313" lon="-118.393867">
  <ele>0.0</ele>
  <time>2026-09-01T01:13:11Z</time>
  <course>187.0</course>
  <speed>0.0</speed>
  <fix>3d</fix>
</trkpt>
<trkpt lat="33.810313" lon="-118.393867">
  <ele>-0.12</ele>
  <time>2026-09-01T01:13:11Z</time>
  <course>0.0</course>
  <speed>0.0</speed>
  <fix>3d</fix>
</trkpt>
<trkpt lat="33.810313" lon="-118.393867">
  <ele>0.0</ele>
  <time>2026-09-01T01:13:11Z</time>
  <course>187.09</course>
  <speed>0.0</speed>
  <fix>3d</fix>
</trkpt>
<trkpt lat="33.810313" lon="-118.393867">
  <ele>-0.13</ele>
  <time>2026-09-01T01:13:11Z</time>
  <course>0.0</course>
  <speed>0.0</speed>
  <fix>3d</fix>
</trkpt>
<trkpt lat="33.810313" lon="-118.393867">
  <ele>0.0</ele>
  <time>2026-09-01T01:13:11Z</time>
  <course>187.17</course>
  <speed>0.0</speed>
  <fix>3d</fix>
</trkpt>
<trkpt lat="33.810313" lon="-118.393867">
  <ele>-0.13</ele>
  <time>2026-09-01T01:13:11Z</time>
  <course>0.0</course>
  <speed>0.0</speed>
  <fix>3d</fix>
</trkpt>
<trkpt lat="33.810313" lon="-118.393867">
  <ele>0.0</ele>
  <time>2026-09-01T01:13:11Z</time>
  <course>187.25</course>
  <speed>0.0</speed>
  <fix>3d</fix>
</trkpt>
<trkpt lat="33.810313" lon="-118.393867">
  <ele>-0.13</ele>
  <time>2026-09-01T01:13:11Z</time>
  <course>0.0</course>
  <speed>0.0</speed>
  <fix>3d</fix>
</trkpt>
<trkpt lat="33.810313" lon="-118.393867">
  <ele>0.0</ele>
  <time>2026-09-01T01:13:11Z</time>
  <course>187.33</course>
  <speed>0.0</speed>
  <fix>3d</fix>
</trkpt>
<trkpt lat="33.810313" lon="-118.393867">
  <ele>-0.13</ele>
  <time>2026-09-01T01:13:11Z</time>
  <course>0.0</course>
  <speed>0.0</speed>
  <fix>3d</fix>
</trkpt>
<trkpt lat="33.810313" lon="-118.393867">
  <ele>0.0</ele>
  <time>2026-09-01T01:13:11Z</time>
  <course>187.4</course>
  <speed>0.0</speed>
  <fix>3d</fix>
</trkpt>
<trkpt lat="33.810313" lon="-118.393867">
  <ele>-0.13</ele>
  <time>2026-09-01T01:13:11Z</time>
  <course>0.0</course>
  <speed>0.0</speed>
  <fix>3d</fix>
</trkpt>
<trkpt lat="33.810313" lon="-118.393867">
  <ele>0.0</ele>
  <time>2026-09-01T01:13:11Z</time>
  <course>187.47</course>
  <speed>0.0</speed>
  <fix>3d</fix>
</trkpt>
<trkpt lat="33.810313" lon="-118.393867">
  <ele>-0.13</ele>
  <time>2026-09-01T01:13:11Z</time>
  <course>0.0</course>
  <speed>0.0</speed>
  <fix>3d</fix>
</trkpt>
<trkpt lat="33.810313" lon="-118.393867">
  <ele>0.0</ele>
  <time>2026-09-01T01:13:11Z</time>
  <course>187.53</course>
  <speed>0.0</speed>
  <fix>3d</fix>
</trkpt>
<trkpt lat="33.810313" lon="-118.393867">
  <ele>-0.13</ele>
  <time>2026-09-01T01:13:11Z</time>
  <course>0.0</course>
  <speed>0.0</speed>
  <fix>3d</fix>
</trkpt>
<trkpt lat="33.810313" lon="-118.393867">
  <ele>0.0</ele>
  <time>2026-09-01T01:13:11Z</time>
  <course>187.59</course>
  <speed>0.0</speed>
  <fix>3d</fix>
</trkpt>
<trkpt lat="33.810313" lon="-118.393867">
  <ele>-0.13</ele>
  <time>2026-09-01T01:13:11Z</time>
  <course>0.0</course>
  <speed>0.0</speed>
  <fix>3d</fix>
</trkpt>
<trkpt lat="33.810313" lon="-118.393867">
  <ele>0.0</ele>
  <time>2026-09-01T01:13:11Z</time>
  <course>187.65</course>
  <speed>0.0</speed>
  <fix>3d</fix>
</trkpt>
<trkpt lat="33.810313" lon="-118.393867">
  <ele>-0.12</ele>
  <time>2026-09-01T01:13:11Z</time>
  <course>0.0</course>
  <speed>0.0</speed>
  <fix>3d</fix>
</trkpt>
<trkpt lat="33.810313" lon="-118.393867">
  <ele>0.0</ele>
  <time>2026-09-01T01:13:11Z</time>
  <course>187.71</course>
  <speed>0.0</speed>
  <fix>3d</fix>
</trkpt>
<trkpt lat="33.810313" lon="-118.393867">
  <ele>-0.12</ele>
  <time>2026-09-01T01:13:11Z</time>
  <course>0.0</course>
  <speed>0.0</speed>
  <fix>3d</fix>
</trkpt>
<trkpt lat="33.810313" lon="-118.393867">
  <ele>0.0</ele>
  <time>2026-09-01T01:13:11Z</time>
  <course>187.76</course>
  <speed>0.0</speed>
  <fix>3d</fix>
</trkpt>
<trkpt lat="33.810313" lon="-118.393867">
  <ele>-0.12</ele>
  <time>2026-09-01T01:13:11Z</time>
  <course>0.0</course>
  <speed>0.0</speed>
  <fix>3d</fix>
</trkpt>
<trkpt lat="33.810313" lon="-118.393867">
  <ele>0.0</ele>
  <time>2026-09-01T01:13:11Z</time>
  <course>187.81</course>
  <speed>0.0</speed>
  <fix>3d</fix>
</trkpt>
<trkpt lat="33.810313" lon="-118.393867">
  <ele>-0.12</ele>
  <time>2026-09-01T01:13:11Z</time>
  <course>0.0</course>
  <speed>0.0</speed>
  <fix>3d</fix>
</trkpt>
<trkpt lat="33.810313" lon="-118.393867">
  <ele>0.0</ele>
  <time>2026-09-01T01:13:11Z</time>
  <course>187.86</course>
  <speed>0.0</speed>
  <fix>3d</fix>
</trkpt>
<trkpt lat="33.810313" lon="-118.393867">
  <ele>-0.12</ele>
  <time>2026-09-01T01:13:11Z</time>
  <course>0.0</course>
  <speed>0.0</speed>
  <fix>3d</fix>
</trkpt>
<trkpt lat="33.810313" lon="-118.393867">
  <ele>0.0</ele>
  <time>2026-09-01T01:13:11Z</time>
  <course>187.91</course>
  <speed>0.0</speed>
  <fix>3d</fix>
</trkpt>
<trkpt lat="33.810313" lon="-118.393867">
  <ele>-0.12</ele>
  <time>2026-09-01T01:13:11Z</time>
  <course>0.0</course>
  <speed>0.0</speed>
  <fix>3d</fix>
</trkpt>
<trkpt lat="33.810313" lon="-118.393867">
  <ele>0.0</ele>
  <time>2026-09-01T01:13:11Z</time>
  <course>187.95</course>
  <speed>0.0</speed>
  <fix>3d</fix>
</trkpt>
<trkpt lat="33.810313" lon="-118.393867">
  <ele>-0.12</ele>
  <time>2026-09-01T01:13:11Z</time>
  <course>0.0</course>
  <speed>0.0</speed>
  <fix>3d</fix>
</trkpt>
<trkpt lat="33.810313" lon="-118.393867">
  <ele>0.0</ele>
  <time>2026-09-01T01:13:11Z</time>
  <course>187.99</course>
  <speed>0.0</speed>
  <fix>3d</fix>
</trkpt>
<trkpt lat="33.810313" lon="-118.393867">
  <ele>-0.12</ele>
  <time>2026-09-01T01:13:11Z</time>
  <course>0.0</course>
  <speed>0.0</speed>
  <fix>3d</fix>
</trkpt>
<trkpt lat="33.810313" lon="-118.393867">
  <ele>0.0</ele>
  <time>2026-09-01T01:13:11Z</time>
  <course>188.03</course>
  <speed>0.0</speed>
  <fix>3d</fix>
</trkpt>
<trkpt lat="33.810313" lon="-118.393867">
  <ele>-0.12</ele>
  <time>2026-09-01T01:13:11Z</time>
  <course>0.0</course>
  <speed>0.0</speed>
  <fix>3d</fix>
</trkpt>
<trkpt lat="33.810313" lon="-118.393867">
  <ele>0.0</ele>
  <time>2026-09-01T01:13:11Z</time>
  <course>188.07</course>
  <speed>0.0</speed>
  <fix>3d</fix>
</trkpt>
<trkpt lat="33.810313" lon="-118.393867">
  <ele>-0.12</ele>
  <time>2026-09-01T01:13:11Z</time>
  <course>0.0</course>
  <speed>0.0</speed>
  <fix>3d</fix>
</trkpt>
<trkpt lat="33.810313" lon="-118.393867">
  <ele>0.0</ele>
  <time>2026-09-01T01:13:11Z</time>
  <course>188.1</course>
  <speed>0.0</speed>
  <fix>3d</fix>
</trkpt>
<trkpt lat="33.810313" lon="-118.393867">
  <ele>-0.13</ele>
  <time>2026-09-01T01:13:11Z</time>
  <course>0.0</course>
  <speed>0.0</speed>
  <fix>3d</fix>
</trkpt>
<trkpt lat="33.810313" lon="-118.393867">
  <ele>0.0</ele>
  <time>2026-09-01T01:13:11Z</time>
  <course>188.13</course>
  <speed>0.0</speed>
  <fix>3d</fix>
</trkpt>
<trkpt lat="33.810313" lon="-118.393867">
  <ele>-0.13</ele>
  <time>2026-09-01T01:13:11Z</time>
  <course>0.0</course>
  <speed>0.0</speed>
  <fix>3d</fix>
</trkpt>
<trkpt lat="33.810313" lon="-118.393867">
  <ele>0.0</ele>
  <time>2026-09-01T01:13:11Z</time>
  <course>188.17</course>
  <speed>0.0</speed>
  <fix>3d</fix>
</trkpt>
<trkpt lat="33.810313" lon="-118.393867">
  <ele>-0.13</ele>
  <time>2026-09-01T01:13:11Z</time>
  <course>0.0</course>
  <speed>0.0</speed>
  <fix>3d</fix>
</trkpt>
<trkpt lat="33.810313" lon="-118.393867">
  <ele>0.0</ele>
  <time>2026-09-01T01:13:11Z</time>
  <course>188.19</course>
  <speed>0.0</speed>
  <fix>3d</fix>
</trkpt>
<trkpt lat="33.810313" lon="-118.393867">
  <ele>-0.13</ele>
  <time>2026-09-01T01:13:11Z</time>
  <course>0.0</course>
  <speed>0.0</speed>
  <fix>3d</fix>
</trkpt>
<trkpt lat="33.810313" lon="-118.393867">
  <ele>0.0</ele>
  <time>2026-09-01T01:13:11Z</time>
  <course>188.22</course>
  <speed>0.0</speed>
  <fix>3d</fix>
</trkpt>
<trkpt lat="33.810313" lon="-118.393867">
  <ele>-0.13</ele>
  <time>2026-09-01T01:13:11Z</time>
  <course>0.0</course>
  <speed>0.0</speed>
  <fix>3d</fix>
</trkpt>
<trkpt lat="33.810313" lon="-118.393867">
  <ele>0.0</ele>
  <time>2026-09-01T01:13:11Z</time>
  <course>188.25</course>
  <speed>0.0</speed>
  <fix>3d</fix>
</trkpt>
<trkpt lat="33.810313" lon="-118.393867">
  <ele>-0.13</ele>
  <time>2026-09-01T01:13:11Z</time>
  <course>0.0</course>
  <speed>0.0</speed>
  <fix>3d</fix>
</trkpt>
<trkpt lat="33.810313" lon="-118.393867">
  <ele>0.0</ele>
  <time>2026-09-01T01:13:11Z</time>
  <course>188.27</course>
  <speed>0.0</speed>
  <fix>3d</fix>
</trkpt>
<trkpt lat="33.810313" lon="-118.393867">
  <ele>-0.12</ele>
  <time>2026-09-01T01:13:11Z</time>
  <course>0.0</course>
  <speed>0.0</speed>
  <fix>3d</fix>
</trkpt>
<trkpt lat="33.810313" lon="-118.393867">
  <ele>0.0</ele>
  <time>2026-09-01T01:13:11Z</time>
  <course>188.3</course>
  <speed>0.0</speed>
  <fix>3d</fix>
</trkpt>
<trkpt lat="33.810313" lon="-118.393867">
  <ele>-0.12</ele>
  <time>2026-09-01T01:13:11Z</time>
  <course>0.0</course>
  <speed>0.0</speed>
  <fix>3d</fix>
</trkpt>
<trkpt lat="33.810313" lon="-118.393867">
  <ele>0.0</ele>
  <time>2026-09-01T01:13:11Z</time>
  <course>188.32</course>
  <speed>0.0</speed>
  <fix>3d</fix>
</trkpt>
<trkpt lat="33.810313" lon="-118.393867">
  <ele>-0.12</ele>
  <time>2026-09-01T01:13:11Z</time>
  <course>0.0</course>
  <speed>0.0</speed>
  <fix>3d</fix>
</trkpt>
<trkpt lat="33.810313" lon="-118.393867">
  <ele>0.0</ele>
  <time>2026-09-01T01:13:11Z</time>
  <course>188.34</course>
  <speed>0.0</speed>
  <fix>3d</fix>
</trkpt>
<trkpt lat="33.810313" lon="-118.393867">
  <ele>-0.12</ele>
  <time>2026-09-01T01:13:11Z</time>
  <course>0.0</course>
  <speed>0.0</speed>
  <fix>3d</fix>
</trkpt>
<trkpt lat="33.810313" lon="-118.393867">
  <ele>0.0</ele>
  <time>2026-09-01T01:13:11Z</time>
  <course>188.36</course>
  <speed>0.0</speed>
  <fix>3d</fix>
</trkpt>
<trkpt lat="33.810313" lon="-118.393867">
  <ele>-0.12</ele>
  <time>2026-09-01T01:13:11Z</time>
  <course>0.0</course>
  <speed>0.0</speed>
  <fix>3d</fix>
</trkpt>
<trkpt lat="33.810313" lon="-118.393867">
  <ele>0.0</ele>
  <time>2026-09-01T01:13:11Z</time>
  <course>188.38</course>
  <speed>0.0</speed>
  <fix>3d</fix>
</trkpt>
<trkpt lat="33.810313" lon="-118.393867">
  <ele>-0.12</ele>
  <time>2026-09-01T01:13:11Z</time>
  <course>0.0</course>
  <speed>0.0</speed>
  <fix>3d</fix>
</trkpt>
<trkpt lat="33.810313" lon="-118.393867">
  <ele>0.0</ele>
  <time>2026-09-01T01:13:11Z</time>
  <course>188.39</course>
  <speed>0.0</speed>
  <fix>3d</fix>
</trkpt>
<trkpt lat="33.810313" lon="-118.393867">
  <ele>-0.12</ele>
  <time>2026-09-01T01:13:11Z</time>
  <course>0.0</course>
  <speed>0.0</speed>
  <fix>3d</fix>
</trkpt>
<trkpt lat="33.810313" lon="-118.393867">
  <ele>0.0</ele>
  <time>2026-09-01T01:13:11Z</time>
  <course>188.41</course>
  <speed>0.0</speed>
  <fix>3d</fix>
</trkpt>
<trkpt lat="33.810313" lon="-118.393867">
  <ele>-0.12</ele>
  <time>2026-09-01T01:13:11Z</time>
  <course>0.0</course>
  <speed>0.0</speed>
  <fix>3d</fix>
</trkpt>
<trkpt lat="33.810313" lon="-118.393867">
  <ele>0.0</ele>
  <time>2026-09-01T01:13:11Z</time>
  <course>188.43</course>
  <speed>0.0</speed>
  <fix>3d</fix>
</trkpt>
<trkpt lat="33.810313" lon="-118.393867">
  <ele>-0.12</ele>
  <time>2026-09-01T01:13:11Z</time>
  <course>0.0</course>
  <speed>0.0</speed>
  <fix>3d</fix>
</trkpt>
<trkpt lat="33.810313" lon="-118.393867">
  <ele>0.0</ele>
  <time>2026-09-01T01:13:11Z</time>
  <course>188.44</course>
  <speed>0.0</speed>
  <fix>3d</fix>
</trkpt>
<trkpt lat="33.810313" lon="-118.393867">
  <ele>-0.12</ele>
  <time>2026-09-01T01:13:11Z</time>
  <course>0.0</course>
  <speed>0.0</speed>
  <fix>3d</fix>
</trkpt>
<trkpt lat="33.810313" lon="-118.393867">
  <ele>0.0</ele>
  <time>2026-09-01T01:13:11Z</time>
  <course>188.45</course>
  <speed>0.0</speed>
  <fix>3d</fix>
</trkpt>
<trkpt lat="33.810313" lon="-118.393867">
  <ele>-0.13</ele>
  <time>2026-09-01T01:13:11Z</time>
  <course>0.0</course>
  <speed>0.0</speed>
  <fix>3d</fix>
</trkpt>
<trkpt lat="33.810313" lon="-118.393867">
  <ele>0.0</ele>
  <time>2026-09-01T01:13:11Z</time>
  <course>188.46</course>
  <speed>0.0</speed>
  <fix>3d</fix>
</trkpt>
<trkpt lat="33.810313" lon="-118.393867">
  <ele>-0.13</ele>
  <time>2026-09-01T01:13:11Z</time>
  <course>0.0</course>
  <speed>0.0</speed>
  <fix>3d</fix>
</trkpt>
<trkpt lat="33.810313" lon="-118.393867">
  <ele>0.0</ele>
  <time>2026-09-01T01:13:11Z</time>
  <course>188.48</course>
  <speed>0.0</speed>
  <fix>3d</fix>
</trkpt>
<trkpt lat="33.810313" lon="-118.393867">
  <ele>-0.13</ele>
  <time>2026-09-01T01:13:11Z</time>
  <course>0.0</course>
  <speed>0.0</speed>
  <fix>3d</fix>
</trkpt>
<trkpt lat="33.810313" lon="-118.393867">
  <ele>0.0</ele>
  <time>2026-09-01T01:13:11Z</time>
  <course>188.49</course>
  <speed>0.0</speed>
  <fix>3d</fix>
</trkpt>
<trkpt lat="33.810313" lon="-118.393867">
  <ele>-0.13</ele>
  <time>2026-09-01T01:13:11Z</time>
  <course>0.0</course>
  <speed>0.0</speed>
  <fix>3d</fix>
</trkpt>
<trkpt lat="33.810313" lon="-118.393867">
  <ele>0.0</ele>
  <time>2026-09-01T01:13:11Z</time>
  <course>188.49</course>
  <speed>0.0</speed>
  <fix>3d</fix>
</trkpt>
<trkpt lat="33.810313" lon="-118.393867">
  <ele>-0.13</ele>
  <time>2026-09-01T01:13:11Z</time>
  <course>0.0</course>
  <speed>0.0</speed>
  <fix>3d</fix>
</trkpt>
<trkpt lat="33.810313" lon="-118.393867">
  <ele>0.0</ele>
  <time>2026-09-01T01:13:11Z</time>
  <course>188.5</course>
  <speed>0.0</speed>
  <fix>3d</fix>
</trkpt>
<trkpt lat="33.810313" lon="-118.393867">
  <ele>-0.13</ele>
  <time>2026-09-01T01:13:11Z</time>
  <course>0.0</course>
  <speed>0.0</speed>
  <fix>3d</fix>
</trkpt>
<trkpt lat="33.810313" lon="-118.393867">
  <ele>0.0</ele>
  <time>2026-09-01T01:13:11Z</time>
  <course>188.51</course>
  <speed>0.0</speed>
  <fix>3d</fix>
</trkpt>
<trkpt lat="33.810313" lon="-118.393867">
  <ele>-0.12</ele>
  <time>2026-09-01T01:13:11Z</time>
  <course>0.0</course>
  <speed>0.0</speed>
  <fix>3d</fix>
</trkpt>
<trkpt lat="33.810313" lon="-118.393867">
  <ele>0.0</ele>
  <time>2026-09-01T01:13:11Z</time>
  <course>188.52</course>
  <speed>0.0</speed>
  <fix>3d</fix>
</trkpt>
<trkpt lat="33.810313" lon="-118.393867">
  <ele>-0.12</ele>
  <time>2026-09-01T01:13:11Z</time>
  <course>0.0</course>
  <speed>0.0</speed>
  <fix>3d</fix>
</trkpt>
<trkpt lat="33.810313" lon="-118.393867">
  <ele>0.0</ele>
  <time>2026-09-01T01:13:11Z</time>
  <course>188.53</course>
  <speed>0.0</speed>
  <fix>3d</fix>
</trkpt>
<trkpt lat="33.810313" lon="-118.393867">
  <ele>-0.12</ele>
  <time>2026-09-01T01:13:11Z</time>
  <course>0.0</course>
  <speed>0.0</speed>
  <fix>3d</fix>
</trkpt>
<trkpt lat="33.810313" lon="-118.393867">
  <ele>0.0</ele>
  <time>2026-09-01T01:13:11Z</time>
  <course>188.53</course>
  <speed>0.0</speed>
  <fix>3d</fix>
</trkpt>
<trkpt lat="33.810313" lon="-118.393867">
  <ele>-0.12</ele>
  <time>2026-09-01T01:13:11Z</time>
  <course>0.0</course>
  <speed>0.0</speed>
  <fix>3d</fix>
</trkpt>
<trkpt lat="33.810313" lon="-118.393867">
  <ele>0.0</ele>
  <time>2026-09-01T01:13:11Z</time>
  <course>188.54</course>
  <speed>0.0</speed>
  <fix>3d</fix>
</trkpt>
<trkpt lat="33.810313" lon="-118.393867">
  <ele>-0.12</ele>
  <time>2026-09-01T01:13:11Z</time>
  <course>0.0</course>
  <speed>0.0</speed>
  <fix>3d</fix>
</trkpt>
<trkpt lat="33.810313" lon="-118.393867">
  <ele>0.0</ele>
  <time>2026-09-01T01:13:11Z</time>
  <course>188.54</course>
  <speed>0.0</speed>
  <fix>3d</fix>
</trkpt>
<trkpt lat="33.810313" lon="-118.393867">
  <ele>-0.12</ele>
  <time>2026-09-01T01:13:11Z</time>
  <course>0.0</course>
  <speed>0.0</speed>
  <fix>3d</fix>
</trkpt>
<trkpt lat="33.810313" lon="-118.393867">
  <ele>0.0</ele>
  <time>2026-09-01T01:13:11Z</time>
  <course>188.54</course>
  <speed>0.0</speed>
  <fix>3d</fix>
</trkpt>
<trkpt lat="33.810313" lon="-118.393867">
  <ele>-0.12</ele>
  <time>2026-09-01T01:13:11Z</time>
  <course>0.0</course>
  <speed>0.0</speed>
  <fix>3d</fix>
</trkpt>
<trkpt lat="33.810313" lon="-118.393867">
  <ele>0.0</ele>
  <time>2026-09-01T01:13:11Z</time>
  <course>188.55</course>
  <speed>0.0</speed>
  <fix>3d</fix>
</trkpt>
<trkpt lat="33.810313" lon="-118.393867">
  <ele>-0.12</ele>
  <time>2026-09-01T01:13:11Z</time>
  <course>0.0</course>
  <speed>0.0</speed>
  <fix>3d</fix>
</trkpt>
<trkpt lat="33.810313" lon="-118.393867">
  <ele>0.0</ele>
  <time>2026-09-01T01:13:11Z</time>
  <course>188.55</course>
  <speed>0.0</speed>
  <fix>3d</fix>
</trkpt>
<trkpt lat="33.810313" lon="-118.393867">
  <ele>-0.12</ele>
  <time>2026-09-01T01:13:11Z</time>
  <course>0.0</course>
  <speed>0.0</speed>
  <fix>3d</fix>
</trkpt>
<trkpt lat="33.810313" lon="-118.393867">
  <ele>0.0</ele>
  <time>2026-09-01T01:13:11Z</time>
  <course>188.55</course>
  <speed>0.0</speed>
  <fix>3d</fix>
</trkpt>
<trkpt lat="33.810313" lon="-118.393867">
  <ele>-0.12</ele>
  <time>2026-09-01T01:13:11Z</time>
  <course>0.0</course>
  <speed>0.0</speed>
  <fix>3d</fix>
</trkpt>
<trkpt lat="33.810313" lon="-118.393867">
  <ele>-0.126</ele>
  <time>2026-09-01T01:13:11Z</time>
  <course>188.55</course>
  <speed>0.0</speed>
  <fix>3d</fix>
</trkpt>
<trkpt lat="33.810313" lon="-118.393867">
  <ele>-0.13</ele>
  <time>2026-09-01T01:13:11Z</time>
  <course>0.0</course>
  <speed>0.0</speed>
  <fix>3d</fix>
</trkpt>
<trkpt lat="33.810313" lon="-118.393867">
  <ele>-0.126</ele>
  <time>2026-09-01T01:13:11Z</time>
  <course>188.56</course>
  <speed>0.0</speed>
  <fix>3d</fix>
</trkpt>
<trkpt lat="33.810313" lon="-118.393867">
  <ele>-0.13</ele>
  <time>2026-09-01T01:13:11Z</time>
  <course>0.0</course>
  <speed>0.0</speed>
  <fix>3d</fix>
</trkpt>
<trkpt lat="33.810313" lon="-118.393867">
  <ele>-0.124</ele>
  <time>2026-09-01T01:13:11Z</time>
  <course>188.56</course>
  <speed>0.0</speed>
  <fix>3d</fix>
</trkpt>
<trkpt lat="33.810313" lon="-118.393867">
  <ele>-0.13</ele>
  <time>2026-09-01T01:13:11Z</time>
  <course>0.0</course>
  <speed>0.0</speed>
  <fix>3d</fix>
</trkpt>
<trkpt lat="33.810313" lon="-118.393867">
  <ele>-0.123</ele>
  <time>2026-09-01T01:13:11Z</time>
  <course>188.56</course>
  <speed>0.0</speed>
  <fix>3d</fix>
</trkpt>
<trkpt lat="33.810313" lon="-118.393867">
  <ele>-0.13</ele>
  <time>2026-09-01T01:13:11Z</time>
  <course>0.0</course>
  <speed>0.0</speed>
  <fix>3d</fix>
</trkpt>
<trkpt lat="33.810313" lon="-118.393867">
  <ele>-0.121</ele>
  <time>2026-09-01T01:13:11Z</time>
  <course>188.56</course>
  <speed>0.0</speed>
  <fix>3d</fix>
</trkpt>
<trkpt lat="33.810313" lon="-118.393867">
  <ele>-0.12</ele>
  <time>2026-09-01T01:13:11Z</time>
  <course>0.0</course>
  <speed>0.0</speed>
  <fix>3d</fix>
</trkpt>
<trkpt lat="33.810313" lon="-118.393867">
  <ele>-0.12</ele>
  <time>2026-09-01T01:13:11Z</time>
  <course>188.56</course>
  <speed>0.0</speed>
  <fix>3d</fix>
</trkpt>
<trkpt lat="33.810313" lon="-118.393867">
  <ele>-0.12</ele>
  <time>2026-09-01T01:13:11Z</time>
  <course>0.0</course>
  <speed>0.0</speed>
  <fix>3d</fix>
</trkpt>
<trkpt lat="33.810313" lon="-118.393867">
  <ele>-0.119</ele>
  <time>2026-09-01T01:13:11Z</time>
  <course>188.56</course>
  <speed>0.0</speed>
  <fix>3d</fix>
</trkpt>
<trkpt lat="33.810313" lon="-118.393867">
  <ele>-0.12</ele>
  <time>2026-09-01T01:13:11Z</time>
  <course>0.0</course>
  <speed>0.0</speed>
  <fix>3d</fix>
</trkpt>
<trkpt lat="33.810313" lon="-118.393867">
  <ele>-0.12</ele>
  <time>2026-09-01T01:13:11Z</time>
  <course>188.56</course>
  <speed>0.0</speed>
  <fix>3d</fix>
</trkpt>
<trkpt lat="33.810313" lon="-118.393867">
  <ele>-0.12</ele>
  <time>2026-09-01T01:13:11Z</time>
  <course>0.0</course>
  <speed>0.0</speed>
  <fix>3d</fix>
</trkpt>
<trkpt lat="33.810313" lon="-118.393867">
  <ele>-0.124</ele>
  <time>2026-09-01T01:13:11Z</time>
  <course>188.55</course>
  <speed>0.0</speed>
  <fix>3d</fix>
</trkpt>
<trkpt lat="33.810313" lon="-118.393867">
  <ele>-0.12</ele>
  <time>2026-09-01T01:13:11Z</time>
  <course>0.0</course>
  <speed>0.0</speed>
  <fix>3d</fix>
</trkpt>
<trkpt lat="33.810313" lon="-118.393867">
  <ele>-0.127</ele>
  <time>2026-09-01T01:13:11Z</time>
  <course>188.55</course>
  <speed>0.0</speed>
  <fix>3d</fix>
</trkpt>
<trkpt lat="33.810313" lon="-118.393867">
  <ele>-0.12</ele>
  <time>2026-09-01T01:13:11Z</time>
  <course>0.0</course>
  <speed>0.0</speed>
  <fix>3d</fix>
</trkpt>
<trkpt lat="33.810313" lon="-118.393867">
  <ele>-0.13</ele>
  <time>2026-09-01T01:13:11Z</time>
  <course>188.55</course>
  <speed>0.0</speed>
  <fix>3d</fix>
</trkpt>
<trkpt lat="33.810313" lon="-118.393867">
  <ele>-0.12</ele>
  <time>2026-09-01T01:13:11Z</time>
  <course>0.0</course>
  <speed>0.0</speed>
  <fix>3d</fix>
</trkpt>
<trkpt lat="33.810313" lon="-118.393867">
  <ele>-0.132</ele>
  <time>2026-09-01T01:13:11Z</time>
  <course>188.55</course>
  <speed>0.0</speed>
  <fix>3d</fix>
</trkpt>
<trkpt lat="33.810313" lon="-118.393867">
  <ele>-0.12</ele>
  <time>2026-09-01T01:13:11Z</time>
  <course>0.0</course>
  <speed>0.0</speed>
  <fix>3d</fix>
</trkpt>
<trkpt lat="33.810313" lon="-118.393867">
  <ele>-0.132</ele>
  <time>2026-09-01T01:13:11Z</time>
  <course>188.55</course>
  <speed>0.0</speed>
  <fix>3d</fix>
</trkpt>
<trkpt lat="33.810313" lon="-118.393867">
  <ele>-0.12</ele>
  <time>2026-09-01T01:13:11Z</time>
  <course>0.0</course>
  <speed>0.0</speed>
  <fix>3d</fix>
</trkpt>
<trkpt lat="33.810313" lon="-118.393867">
  <ele>-0.132</ele>
  <time>2026-09-01T01:13:11Z</time>
  <course>188.55</course>
  <speed>0.0</speed>
  <fix>3d</fix>
</trkpt>
<trkpt lat="33.810313" lon="-118.393867">
  <ele>-0.12</ele>
  <time>2026-09-01T01:13:11Z</time>
  <course>0.0</course>
  <speed>0.0</speed>
  <fix>3d</fix>
</trkpt>
<trkpt lat="33.810313" lon="-118.393867">
  <ele>-0.132</ele>
  <time>2026-09-01T01:13:11Z</time>
  <course>188.55</course>
  <speed>0.0</speed>
  <fix>3d</fix>
</trkpt>
<trkpt lat="33.810313" lon="-118.393867">
  <ele>-0.12</ele>
  <time>2026-09-01T01:13:11Z</time>
  <course>0.0</course>
  <speed>0.0</speed>
  <fix>3d</fix>
</trkpt>
<trkpt lat="33.810313" lon="-118.393867">
  <ele>-0.131</ele>
  <time>2026-09-01T01:13:11Z</time>
  <course>188.55</course>
  <speed>0.0</speed>
  <fix>3d</fix>
</trkpt>
<trkpt lat="33.810313" lon="-118.393867">
  <ele>-0.12</ele>
  <time>2026-09-01T01:13:11Z</time>
  <course>0.0</course>
  <speed>0.0</speed>
  <fix>3d</fix>
</trkpt>
<trkpt lat="33.810313" lon="-118.393867">
  <ele>-0.129</ele>
  <time>2026-09-01T01:13:11Z</time>
  <course>188.54</course>
  <speed>0.0</speed>
  <fix>3d</fix>
</trkpt>
<trkpt lat="33.810313" lon="-118.393867">
  <ele>-0.13</ele>
  <time>2026-09-01T01:13:11Z</time>
  <course>0.0</course>
  <speed>0.0</speed>
  <fix>3d</fix>
</trkpt>
<trkpt lat="33.810313" lon="-118.393867">
  <ele>-0.128</ele>
  <time>2026-09-01T01:13:11Z</time>
  <course>188.54</course>
  <speed>0.0</speed>
  <fix>3d</fix>
</trkpt>
<trkpt lat="33.810313" lon="-118.393867">
  <ele>-0.13</ele>
  <time>2026-09-01T01:13:11Z</time>
  <course>0.0</course>
  <speed>0.0</speed>
  <fix>3d</fix>
</trkpt>
<trkpt lat="33.810313" lon="-118.393867">
  <ele>-0.125</ele>
  <time>2026-09-01T01:13:11Z</time>
  <course>188.53</course>
  <speed>0.0</speed>
  <fix>3d</fix>
</trkpt>
<trkpt lat="33.810313" lon="-118.393867">
  <ele>-0.12</ele>
  <time>2026-09-01T01:13:11Z</time>
  <course>0.0</course>
  <speed>0.0</speed>
  <fix>3d</fix>
</trkpt>
<trkpt lat="33.810313" lon="-118.393867">
  <ele>-0.123</ele>
  <time>2026-09-01T01:13:11Z</time>
  <course>188.53</course>
  <speed>0.0</speed>
  <fix>3d</fix>
</trkpt>
<trkpt lat="33.810313" lon="-118.393867">
  <ele>-0.12</ele>
  <time>2026-09-01T01:13:11Z</time>
  <course>0.0</course>
  <speed>0.0</speed>
  <fix>3d</fix>
</trkpt>
<trkpt lat="33.810313" lon="-118.393867">
  <ele>-0.121</ele>
  <time>2026-09-01T01:13:11Z</time>
  <course>188.52</course>
  <speed>0.0</speed>
  <fix>3d</fix>
</trkpt>
<trkpt lat="33.810313" lon="-118.393867">
  <ele>-0.12</ele>
  <time>2026-09-01T01:13:11Z</time>
  <course>0.0</course>
  <speed>0.0</speed>
  <fix>3d</fix>
</trkpt>
<trkpt lat="33.810313" lon="-118.393867">
  <ele>-0.121</ele>
  <time>2026-09-01T01:13:11Z</time>
  <course>188.52</course>
  <speed>0.0</speed>
  <fix>3d</fix>
</trkpt>
<trkpt lat="33.810313" lon="-118.393867">
  <ele>-0.12</ele>
  <time>2026-09-01T01:13:11Z</time>
  <course>0.0</course>
  <speed>0.0</speed>
  <fix>3d</fix>
</trkpt>
<trkpt lat="33.810313" lon="-118.393867">
  <ele>-0.122</ele>
  <time>2026-09-01T01:13:11Z</time>
  <course>188.51</course>
  <speed>0.0</speed>
  <fix>3d</fix>
</trkpt>
<trkpt lat="33.810313" lon="-118.393867">
  <ele>-0.12</ele>
  <time>2026-09-01T01:13:11Z</time>
  <course>0.0</course>
  <speed>0.0</speed>
  <fix>3d</fix>
</trkpt>
<trkpt lat="33.810313" lon="-118.393867">
  <ele>-0.123</ele>
  <time>2026-09-01T01:13:11Z</time>
  <course>188.51</course>
  <speed>0.0</speed>
  <fix>3d</fix>
</trkpt>
<trkpt lat="33.810313" lon="-118.393867">
  <ele>-0.12</ele>
  <time>2026-09-01T01:13:11Z</time>
  <course>0.0</course>
  <speed>0.0</speed>
  <fix>3d</fix>
</trkpt>
<trkpt lat="33.810313" lon="-118.393867">
  <ele>-0.126</ele>
  <time>2026-09-01T01:13:11Z</time>
  <course>188.5</course>
  <speed>0.0</speed>
  <fix>3d</fix>
</trkpt>
<trkpt lat="33.810313" lon="-118.393867">
  <ele>-0.12</ele>
  <time>2026-09-01T01:13:11Z</time>
  <course>0.0</course>
  <speed>0.0</speed>
  <fix>3d</fix>
</trkpt>
<trkpt lat="33.810313" lon="-118.393867">
  <ele>-0.127</ele>
  <time>2026-09-01T01:13:11Z</time>
  <course>188.5</course>
  <speed>0.0</speed>
  <fix>3d</fix>
</trkpt>
<trkpt lat="33.810313" lon="-118.393867">
  <ele>-0.12</ele>
  <time>2026-09-01T01:13:11Z</time>
  <course>0.0</course>
  <speed>0.0</speed>
  <fix>3d</fix>
</trkpt>
<trkpt lat="33.810313" lon="-118.393867">
  <ele>-0.128</ele>
  <time>2026-09-01T01:13:11Z</time>
  <course>188.49</course>
  <speed>0.0</speed>
  <fix>3d</fix>
</trkpt>
<trkpt lat="33.810313" lon="-118.393867">
  <ele>-0.12</ele>
  <time>2026-09-01T01:13:11Z</time>
  <course>0.0</course>
  <speed>0.0</speed>
  <fix>3d</fix>
</trkpt>
<trkpt lat="33.810313" lon="-118.393867">
  <ele>-0.127</ele>
  <time>2026-09-01T01:13:11Z</time>
  <course>188.48</course>
  <speed>0.0</speed>
  <fix>3d</fix>
</trkpt>
<trkpt lat="33.810313" lon="-118.393867">
  <ele>-0.12</ele>
  <time>2026-09-01T01:13:11Z</time>
  <course>0.0</course>
  <speed>0.0</speed>
  <fix>3d</fix>
</trkpt>
<trkpt lat="33.810313" lon="-118.393867">
  <ele>-0.127</ele>
  <time>2026-09-01T01:13:11Z</time>
  <course>188.48</course>
  <speed>0.0</speed>
  <fix>3d</fix>
</trkpt>
<trkpt lat="33.810313" lon="-118.393867">
  <ele>-0.12</ele>
  <time>2026-09-01T01:13:11Z</time>
  <course>0.0</course>
  <speed>0.0</speed>
  <fix>3d</fix>
</trkpt>
<trkpt lat="33.810313" lon="-118.393867">
  <ele>-0.127</ele>
  <time>2026-09-01T01:13:11Z</time>
  <course>188.47</course>
  <speed>0.01</speed>
  <fix>3d</fix>
</trkpt>
<trkpt lat="33.810313" lon="-118.393867">
  <ele>-0.12</ele>
  <time>2026-09-01T01:13:11Z</time>
  <course>0.0</course>
  <speed>0.0</speed>
  <fix>3d</fix>
</trkpt>
<trkpt lat="33.810313" lon="-118.393867">
  <ele>-0.127</ele>
  <time>2026-09-01T01:13:11Z</time>
  <course>188.47</course>
  <speed>0.01</speed>
  <fix>3d</fix>
</trkpt>
<trkpt lat="33.810313" lon="-118.393867">
  <ele>-0.12</ele>
  <time>2026-09-01T01:13:11Z</time>
  <course>0.0</course>
  <speed>0.0</speed>
  <fix>3d</fix>
</trkpt>
<trkpt lat="33.810313" lon="-118.393867">
  <ele>-0.126</ele>
  <time>2026-09-01T01:13:11Z</time>
  <course>188.46</course>
  <speed>0.01</speed>
  <fix>3d</fix>
</trkpt>
<trkpt lat="33.810313" lon="-118.393867">
  <ele>-0.12</ele>
  <time>2026-09-01T01:13:11Z</time>
  <course>0.0</course>
  <speed>0.0</speed>
  <fix>3d</fix>
</trkpt>
<trkpt lat="33.810313" lon="-118.393867">
  <ele>-0.126</ele>
  <time>2026-09-01T01:13:11Z</time>
  <course>188.45</course>
  <speed>0.01</speed>
  <fix>3d</fix>
</trkpt>
<trkpt lat="33.810313" lon="-118.393867">
  <ele>-0.12</ele>
  <time>2026-09-01T01:13:11Z</time>
  <course>0.0</course>
  <speed>0.0</speed>
  <fix>3d</fix>
</trkpt>
<trkpt lat="33.810313" lon="-118.393867">
  <ele>-0.126</ele>
  <time>2026-09-01T01:13:11Z</time>
  <course>188.45</course>
  <speed>0.01</speed>
  <fix>3d</fix>
</trkpt>
<trkpt lat="33.810313" lon="-118.393867">
  <ele>-0.12</ele>
  <time>2026-09-01T01:13:11Z</time>
  <course>0.0</course>
  <speed>0.0</speed>
  <fix>3d</fix>
</trkpt>
<trkpt lat="33.810313" lon="-118.393867">
  <ele>-0.125</ele>
  <time>2026-09-01T01:13:11Z</time>
  <course>188.44</course>
  <speed>0.01</speed>
  <fix>3d</fix>
</trkpt>
<trkpt lat="33.810313" lon="-118.393867">
  <ele>-0.12</ele>
  <time>2026-09-01T01:13:11Z</time>
  <course>0.0</course>
  <speed>0.0</speed>
  <fix>3d</fix>
</trkpt>
<trkpt lat="33.810313" lon="-118.393867">
  <ele>-0.126</ele>
  <time>2026-09-01T01:13:11Z</time>
  <course>188.43</course>
  <speed>0.01</speed>
  <fix>3d</fix>
</trkpt>
<trkpt lat="33.810313" lon="-118.393867">
  <ele>-0.12</ele>
  <time>2026-09-01T01:13:11Z</time>
  <course>0.0</course>
  <speed>0.0</speed>
  <fix>3d</fix>
</trkpt>
<trkpt lat="33.810313" lon="-118.393867">
  <ele>-0.127</ele>
  <time>2026-09-01T01:13:11Z</time>
  <course>188.42</course>
  <speed>0.01</speed>
  <fix>3d</fix>
</trkpt>
<trkpt lat="33.810313" lon="-118.393867">
  <ele>-0.12</ele>
  <time>2026-09-01T01:13:11Z</time>
  <course>0.0</course>
  <speed>0.0</speed>
  <fix>3d</fix>
</trkpt>
<trkpt lat="33.810313" lon="-118.393867">
  <ele>-0.128</ele>
  <time>2026-09-01T01:13:11Z</time>
  <course>188.42</course>
  <speed>0.01</speed>
  <fix>3d</fix>
</trkpt>
<trkpt lat="33.810313" lon="-118.393867">
  <ele>-0.12</ele>
  <time>2026-09-01T01:13:11Z</time>
  <course>0.0</course>
  <speed>0.0</speed>
  <fix>3d</fix>
</trkpt>
<trkpt lat="33.810313" lon="-118.393867">
  <ele>-0.129</ele>
  <time>2026-09-01T01:13:11Z</time>
  <course>188.41</course>
  <speed>0.01</speed>
  <fix>3d</fix>
</trkpt>
<trkpt lat="33.810313" lon="-118.393867">
  <ele>-0.12</ele>
  <time>2026-09-01T01:13:11Z</time>
  <course>0.0</course>
  <speed>0.0</speed>
  <fix>3d</fix>
</trkpt>
<trkpt lat="33.810313" lon="-118.393867">
  <ele>-0.129</ele>
  <time>2026-09-01T01:13:11Z</time>
  <course>188.4</course>
  <speed>0.01</speed>
  <fix>3d</fix>
</trkpt>
<trkpt lat="33.810313" lon="-118.393867">
  <ele>-0.12</ele>
  <time>2026-09-01T01:13:11Z</time>
  <course>0.0</course>
  <speed>0.0</speed>
  <fix>3d</fix>
</trkpt>
<trkpt lat="33.810313" lon="-118.393867">
  <ele>-0.13</ele>
  <time>2026-09-01T01:13:11Z</time>
  <course>188.4</course>
  <speed>0.01414213562373095</speed>
  <fix>3d</fix>
</trkpt>
<trkpt lat="33.810313" lon="-118.393867">
  <ele>-0.12</ele>
  <time>2026-09-01T01:13:11Z</time>
  <course>0.0</course>
  <speed>0.0</speed>
  <fix>3d</fix>
</trkpt>
<trkpt lat="33.810313" lon="-118.393867">
  <ele>-0.13</ele>
  <time>2026-09-01T01:13:11Z</time>
  <course>188.39</course>
  <speed>0.01414213562373095</speed>
  <fix>3d</fix>
</trkpt>
<trkpt lat="33.810313" lon="-118.393867">
  <ele>-0.12</ele>
  <time>2026-09-01T01:13:11Z</time>
  <course>0.0</course>
  <speed>0.0</speed>
  <fix>3d</fix>
</trkpt>
<trkpt lat="33.810313" lon="-118.393867">
  <ele>-0.13</ele>
  <time>2026-09-01T01:13:11Z</time>
  <course>188.38</course>
  <speed>0.01414213562373095</speed>
  <fix>3d</fix>
</trkpt>
<trkpt lat="33.810313" lon="-118.393867">
  <ele>-0.12</ele>
  <time>2026-09-01T01:13:11Z</time>
  <course>0.0</course>
  <speed>0.0</speed>
  <fix>3d</fix>
</trkpt>
<trkpt lat="33.810313" lon="-118.393867">
  <ele>-0.129</ele>
  <time>2026-09-01T01:13:11Z</time>
  <course>188.37</course>
  <speed>0.01414213562373095</speed>
  <fix>3d</fix>
</trkpt>
<trkpt lat="33.810313" lon="-118.393867">
  <ele>-0.12</ele>
  <time>2026-09-01T01:13:11Z</time>
  <course>0.0</course>
  <speed>0.0</speed>
  <fix>3d</fix>
</trkpt>
<trkpt lat="33.810313" lon="-118.393867">
  <ele>-0.128</ele>
  <time>2026-09-01T01:13:11Z</time>
  <course>188.37</course>
  <speed>0.01414213562373095</speed>
  <fix>3d</fix>
</trkpt>
<trkpt lat="33.810313" lon="-118.393867">
  <ele>-0.12</ele>
  <time>2026-09-01T01:13:11Z</time>
  <course>0.0</course>
  <speed>0.0</speed>
  <fix>3d</fix>
</trkpt>
<trkpt lat="33.810313" lon="-118.393867">
  <ele>-0.126</ele>
  <time>2026-09-01T01:13:11Z</time>
  <course>188.36</course>
  <speed>0.01414213562373095</speed>
  <fix>3d</fix>
</trkpt>
<trkpt lat="33.810313" lon="-118.393867">
  <ele>-0.12</ele>
  <time>2026-09-01T01:13:11Z</time>
  <course>0.0</course>
  <speed>0.0</speed>
  <fix>3d</fix>
</trkpt>
<trkpt lat="33.810313" lon="-118.393867">
  <ele>-0.124</ele>
  <time>2026-09-01T01:13:11Z</time>
  <course>188.35</course>
  <speed>0.01414213562373095</speed>
  <fix>3d</fix>
</trkpt>
<trkpt lat="33.810313" lon="-118.393867">
  <ele>-0.12</ele>
  <time>2026-09-01T01:13:11Z</time>
  <course>0.0</course>
  <speed>0.0</speed>
  <fix>3d</fix>
</trkpt>
<trkpt lat="33.810313" lon="-118.393867">
  <ele>-0.122</ele>
  <time>2026-09-01T01:13:11Z</time>
  <course>188.34</course>
  <speed>0.01414213562373095</speed>
  <fix>3d</fix>
</trkpt>
<trkpt lat="33.810313" lon="-118.393867">
  <ele>-0.12</ele>
  <time>2026-09-01T01:13:11Z</time>
  <course>0.0</course>
  <speed>0.0</speed>
  <fix>3d</fix>
</trkpt>
<trkpt lat="33.810313" lon="-118.393867">
  <ele>-0.123</ele>
  <time>2026-09-01T01:13:11Z</time>
  <course>188.33</course>
  <speed>0.01414213562373095</speed>
  <fix>3d</fix>
</trkpt>
<trkpt lat="33.810313" lon="-118.393867">
  <ele>-0.12</ele>
  <time>2026-09-01T01:13:11Z</time>
  <course>0.0</course>
  <speed>0.0</speed>
  <fix>3d</fix>
</trkpt>
<trkpt lat="33.810313" lon="-118.393867">
  <ele>-0.125</ele>
  <time>2026-09-01T01:13:11Z</time>
  <course>188.33</course>
  <speed>0.01414213562373095</speed>
  <fix>3d</fix>
</trkpt>
<trkpt lat="33.810313" lon="-118.393867">
  <ele>-0.12</ele>
  <time>2026-09-01T01:13:11Z</time>
  <course>0.0</course>
  <speed>0.0</speed>
  <fix>3d</fix>
</trkpt>
<trkpt lat="33.810313" lon="-118.393867">
  <ele>-0.128</ele>
  <time>2026-09-01T01:13:11Z</time>
  <course>188.32</course>
  <speed>0.01414213562373095</speed>
  <fix>3d</fix>
</trkpt>
<trkpt lat="33.810313" lon="-118.393867">
  <ele>-0.12</ele>
  <time>2026-09-01T01:13:11Z</time>
  <course>0.0</course>
  <speed>0.0</speed>
  <fix>3d</fix>
</trkpt>
<trkpt lat="33.810313" lon="-118.393867">
  <ele>-0.132</ele>
  <time>2026-09-01T01:13:11Z</time>
  <course>188.31</course>
  <speed>0.01414213562373095</speed>
  <fix>3d</fix>
</trkpt>
<trkpt lat="33.810313" lon="-118.393867">
  <ele>-0.12</ele>
  <time>2026-09-01T01:13:11Z</time>
  <course>0.0</course>
  <speed>0.0</speed>
  <fix>3d</fix>
</trkpt>
<trkpt lat="33.810313" lon="-118.393867">
  <ele>-0.135</ele>
  <time>2026-09-01T01:13:11Z</time>
  <course>188.3</course>
  <speed>0.01414213562373095</speed>
  <fix>3d</fix>
</trkpt>
<trkpt lat="33.810313" lon="-118.393867">
  <ele>-0.12</ele>
  <time>2026-09-01T01:13:11Z</time>
  <course>0.0</course>
  <speed>0.0</speed>
  <fix>3d</fix>
</trkpt>
<trkpt lat="33.810313" lon="-118.393867">
  <ele>-0.135</ele>
  <time>2026-09-01T01:13:11Z</time>
  <course>188.3</course>
  <speed>0.01414213562373095</speed>
  <fix>3d</fix>
</trkpt>
<trkpt lat="33.810313" lon="-118.393867">
  <ele>-0.12</ele>
  <time>2026-09-01T01:13:11Z</time>
  <course>0.0</course>
  <speed>0.0</speed>
  <fix>3d</fix>
</trkpt>
<trkpt lat="33.810313" lon="-118.393867">
  <ele>-0.134</ele>
  <time>2026-09-01T01:13:11Z</time>
  <course>188.29</course>
  <speed>0.01414213562373095</speed>
  <fix>3d</fix>
</trkpt>
<trkpt lat="33.810313" lon="-118.393867">
  <ele>-0.12</ele>
  <time>2026-09-01T01:13:11Z</time>
  <course>0.0</course>
  <speed>0.0</speed>
  <fix>3d</fix>
</trkpt>
<trkpt lat="33.810313" lon="-118.393867">
  <ele>-0.132</ele>
  <time>2026-09-01T01:13:11Z</time>
  <course>188.28</course>
  <speed>0.01414213562373095</speed>
  <fix>3d</fix>
</trkpt>
<trkpt lat="33.810313" lon="-118.393867">
  <ele>-0.12</ele>
  <time>2026-09-01T01:13:11Z</time>
  <course>0.0</course>
  <speed>0.0</speed>
  <fix>3d</fix>
</trkpt>
<trkpt lat="33.810313" lon="-118.393867">
  <ele>-0.129</ele>
  <time>2026-09-01T01:13:11Z</time>
  <course>188.27</course>
  <speed>0.01414213562373095</speed>
  <fix>3d</fix>
</trkpt>
<trkpt lat="33.810313" lon="-118.393867">
  <ele>-0.12</ele>
  <time>2026-09-01T01:13:11Z</time>
  <course>0.0</course>
  <speed>0.0</speed>
  <fix>3d</fix>
</trkpt>
<trkpt lat="33.810313" lon="-118.393867">
  <ele>-0.127</ele>
  <time>2026-09-01T01:13:11Z</time>
  <course>188.26</course>
  <speed>0.01414213562373095</speed>
  <fix>3d</fix>
</trkpt>
<trkpt lat="33.810313" lon="-118.393867">
  <ele>-0.12</ele>
  <time>2026-09-01T01:13:11Z</time>
  <course>0.0</course>
  <speed>0.0</speed>
  <fix>3d</fix>
</trkpt>
<trkpt lat="33.810313" lon="-118.393867">
  <ele>-0.124</ele>
  <time>2026-09-01T01:13:11Z</time>
  <course>188.25</course>
  <speed>0.01414213562373095</speed>
  <fix>3d</fix>
</trkpt>
<trkpt lat="33.810313" lon="-118.393867">
  <ele>-0.12</ele>
  <time>2026-09-01T01:13:11Z</time>
  <course>0.0</course>
  <speed>0.0</speed>
  <fix>3d</fix>
</trkpt>
<trkpt lat="33.810313" lon="-118.393867">
  <ele>-0.123</ele>
  <time>2026-09-01T01:13:11Z</time>
  <course>188.25</course>
  <speed>0.01414213562373095</speed>
  <fix>3d</fix>
</trkpt>
<trkpt lat="33.810313" lon="-118.393867">
  <ele>-0.12</ele>
  <time>2026-09-01T01:13:11Z</time>
  <course>0.0</course>
  <speed>0.0</speed>
  <fix>3d</fix>
</trkpt>
<trkpt lat="33.810313" lon="-118.393867">
  <ele>-0.124</ele>
  <time>2026-09-01T01:13:11Z</time>
  <course>188.24</course>
  <speed>0.01414213562373095</speed>
  <fix>3d</fix>
</trkpt>
<trkpt lat="33.810313" lon="-118.393867">
  <ele>-0.12</ele>
  <time>2026-09-01T01:13:11Z</time>
  <course>0.0</course>
  <speed>0.0</speed>
  <fix>3d</fix>
</trkpt>
<trkpt lat="33.810313" lon="-118.393867">
  <ele>-0.126</ele>
  <time>2026-09-01T01:13:11Z</time>
  <course>188.23</course>
  <speed>0.01414213562373095</speed>
  <fix>3d</fix>
</trkpt>
<trkpt lat="33.810313" lon="-118.393867">
  <ele>-0.12</ele>
  <time>2026-09-01T01:13:11Z</time>
  <course>0.0</course>
  <speed>0.0</speed>
  <fix>3d</fix>
</trkpt>
<trkpt lat="33.810313" lon="-118.393867">
  <ele>-0.127</ele>
  <time>2026-09-01T01:13:11Z</time>
  <course>188.22</course>
  <speed>0.01414213562373095</speed>
  <fix>3d</fix>
</trkpt>
<trkpt lat="33.810313" lon="-118.393867">
  <ele>-0.12</ele>
  <time>2026-09-01T01:13:11Z</time>
  <course>0.0</course>
  <speed>0.0</speed>
  <fix>3d</fix>
</trkpt>
<trkpt lat="33.810313" lon="-118.393867">
  <ele>-0.129</ele>
  <time>2026-09-01T01:13:11Z</time>
  <course>188.21</course>
  <speed>0.01414213562373095</speed>
  <fix>3d</fix>
</trkpt>
<trkpt lat="33.810313" lon="-118.393867">
  <ele>-0.12</ele>
  <time>2026-09-01T01:13:11Z</time>
  <course>0.0</course>
  <speed>0.0</speed>
  <fix>3d</fix>
</trkpt>
<trkpt lat="33.810313" lon="-118.393867">
  <ele>-0.129</ele>
  <time>2026-09-01T01:13:11Z</time>
  <course>188.21</course>
  <speed>0.01414213562373095</speed>
  <fix>3d</fix>
</trkpt>
<trkpt lat="33.810313" lon="-118.393867">
  <ele>-0.12</ele>
  <time>2026-09-01T01:13:11Z</time>
  <course>0.0</course>
  <speed>0.0</speed>
  <fix>3d</fix>
</trkpt>
<trkpt lat="33.810313" lon="-118.393867">
  <ele>-0.129</ele>
  <time>2026-09-01T01:13:11Z</time>
  <course>188.2</course>
  <speed>0.01414213562373095</speed>
  <fix>3d</fix>
</trkpt>
<trkpt lat="33.810313" lon="-118.393867">
  <ele>-0.12</ele>
  <time>2026-09-01T01:13:11Z</time>
  <course>0.0</course>
  <speed>0.0</speed>
  <fix>3d</fix>
</trkpt>
<trkpt lat="33.810313" lon="-118.393867">
  <ele>-0.128</ele>
  <time>2026-09-01T01:13:11Z</time>
  <course>188.19</course>
  <speed>0.01414213562373095</speed>
  <fix>3d</fix>
</trkpt>
<trkpt lat="33.810313" lon="-118.393867">
  <ele>-0.12</ele>
  <time>2026-09-01T01:13:11Z</time>
  <course>0.0</course>
  <speed>0.0</speed>
  <fix>3d</fix>
</trkpt>
<trkpt lat="33.810313" lon="-118.393867">
  <ele>-0.128</ele>
  <time>2026-09-01T01:13:11Z</time>
  <course>188.18</course>
  <speed>0.01414213562373095</speed>
  <fix>3d</fix>
</trkpt>
<trkpt lat="33.810313" lon="-118.393867">
  <ele>-0.12</ele>
  <time>2026-09-01T01:13:11Z</time>
  <course>0.0</course>
  <speed>0.0</speed>
  <fix>3d</fix>
</trkpt>
<trkpt lat="33.810313" lon="-118.393867">
  <ele>-0.127</ele>
  <time>2026-09-01T01:13:11Z</time>
  <course>188.17</course>
  <speed>0.01414213562373095</speed>
  <fix>3d</fix>
</trkpt>
<trkpt lat="33.810313" lon="-118.393867">
  <ele>-0.12</ele>
  <time>2026-09-01T01:13:11Z</time>
  <course>0.0</course>
  <speed>0.0</speed>
  <fix>3d</fix>
</trkpt>
<trkpt lat="33.810313" lon="-118.393867">
  <ele>-0.127</ele>
  <time>2026-09-01T01:13:11Z</time>
  <course>188.16</course>
  <speed>0.01414213562373095</speed>
  <fix>3d</fix>
</trkpt>
<trkpt lat="33.810313" lon="-118.393867">
  <ele>-0.12</ele>
  <time>2026-09-01T01:13:11Z</time>
  <course>0.0</course>
  <speed>0.0</speed>
  <fix>3d</fix>
</trkpt>
<trkpt lat="33.810313" lon="-118.393867">
  <ele>-0.128</ele>
  <time>2026-09-01T01:13:11Z</time>
  <course>188.16</course>
  <speed>0.01414213562373095</speed>
  <fix>3d</fix>
</trkpt>
<trkpt lat="33.810313" lon="-118.393867">
  <ele>-0.12</ele>
  <time>2026-09-01T01:13:11Z</time>
  <course>0.0</course>
  <speed>0.0</speed>
  <fix>3d</fix>
</trkpt>
<trkpt lat="33.810313" lon="-118.393867">
  <ele>-0.129</ele>
  <time>2026-09-01T01:13:11Z</time>
  <course>188.15</course>
  <speed>0.01414213562373095</speed>
  <fix>3d</fix>
</trkpt>
<trkpt lat="33.810313" lon="-118.393867">
  <ele>-0.12</ele>
  <time>2026-09-01T01:13:11Z</time>
  <course>0.0</course>
  <speed>0.0</speed>
  <fix>3d</fix>
</trkpt>
<trkpt lat="33.810313" lon="-118.393867">
  <ele>-0.131</ele>
  <time>2026-09-01T01:13:11Z</time>
  <course>188.14</course>
  <speed>0.01414213562373095</speed>
  <fix>3d</fix>
</trkpt>
<trkpt lat="33.810313" lon="-118.393867">
  <ele>-0.12</ele>
  <time>2026-09-01T01:13:11Z</time>
  <course>0.0</course>
  <speed>0.0</speed>
  <fix>3d</fix>
</trkpt>
<trkpt lat="33.810313" lon="-118.393867">
  <ele>-0.133</ele>
  <time>2026-09-01T01:13:11Z</time>
  <course>188.13</course>
  <speed>0.01414213562373095</speed>
  <fix>3d</fix>
</trkpt>
<trkpt lat="33.810313" lon="-118.393867">
  <ele>-0.12</ele>
  <time>2026-09-01T01:13:11Z</time>
  <course>0.0</course>
  <speed>0.0</speed>
  <fix>3d</fix>
</trkpt>
<trkpt lat="33.810313" lon="-118.393867">
  <ele>-0.135</ele>
  <time>2026-09-01T01:13:12Z</time>
  <course>188.12</course>
  <speed>0.01414213562373095</speed>
  <fix>3d</fix>
</trkpt>
<trkpt lat="33.810313" lon="-118.393867">
  <ele>-0.12</ele>
  <time>2026-09-01T01:13:12Z</time>
  <course>0.0</course>
  <speed>0.0</speed>
  <fix>3d</fix>
</trkpt>
<trkpt lat="33.810313" lon="-118.393867">
  <ele>-0.136</ele>
  <time>2026-09-01T01:13:12Z</time>
  <course>188.12</course>
  <speed>0.01414213562373095</speed>
  <fix>3d</fix>
</trkpt>
<trkpt lat="33.810313" lon="-118.393867">
  <ele>-0.12</ele>
  <time>2026-09-01T01:13:12Z</time>
  <course>0.0</course>
  <speed>0.0</speed>
  <fix>3d</fix>
</trkpt>
<trkpt lat="33.810313" lon="-118.393867">
  <ele>-0.136</ele>
  <time>2026-09-01T01:13:12Z</time>
  <course>188.11</course>
  <speed>0.01414213562373095</speed>
  <fix>3d</fix>
</trkpt>
<trkpt lat="33.810313" lon="-118.393867">
  <ele>-0.12</ele>
  <time>2026-09-01T01:13:12Z</time>
  <course>0.0</course>
  <speed>0.0</speed>
  <fix>3d</fix>
</trkpt>
<trkpt lat="33.810313" lon="-118.393867">
  <ele>-0.136</ele>
  <time>2026-09-01T01:13:12Z</time>
  <course>188.1</course>
  <speed>0.01414213562373095</speed>
  <fix>3d</fix>
</trkpt>
<trkpt lat="33.810313" lon="-118.393867">
  <ele>-0.12</ele>
  <time>2026-09-01T01:13:12Z</time>
  <course>0.0</course>
  <speed>0.0</speed>
  <fix>3d</fix>
</trkpt>
<trkpt lat="33.810313" lon="-118.393867">
  <ele>-0.135</ele>
  <time>2026-09-01T01:13:12Z</time>
  <course>188.09</course>
  <speed>0.01414213562373095</speed>
  <fix>3d</fix>
</trkpt>
<trkpt lat="33.810313" lon="-118.393867">
  <ele>-0.12</ele>
  <time>2026-09-01T01:13:12Z</time>
  <course>0.0</course>
  <speed>0.0</speed>
  <fix>3d</fix>
</trkpt>
<trkpt lat="33.810313" lon="-118.393867">
  <ele>-0.134</ele>
  <time>2026-09-01T01:13:12Z</time>
  <course>188.08</course>
  <speed>0.01414213562373095</speed>
  <fix>3d</fix>
</trkpt>
<trkpt lat="33.810313" lon="-118.393867">
  <ele>-0.12</ele>
  <time>2026-09-01T01:13:12Z</time>
  <course>0.0</course>
  <speed>0.0</speed>
  <fix>3d</fix>
</trkpt>
<trkpt lat="33.810313" lon="-118.393867">
  <ele>-0.131</ele>
  <time>2026-09-01T01:13:12Z</time>
  <course>188.07</course>
  <speed>0.022360679774997897</speed>
  <fix>3d</fix>
</trkpt>
<trkpt lat="33.810313" lon="-118.393867">
  <ele>-0.12</ele>
  <time>2026-09-01T01:13:12Z</time>
  <course>0.0</course>
  <speed>0.0</speed>
  <fix>3d</fix>
</trkpt>
<trkpt lat="33.810313" lon="-118.393867">
  <ele>-0.128</ele>
  <time>2026-09-01T01:13:12Z</time>
  <course>188.07</course>
  <speed>0.022360679774997897</speed>
  <fix>3d</fix>
</trkpt>
<trkpt lat="33.810313" lon="-118.393867">
  <ele>-0.12</ele>
  <time>2026-09-01T01:13:12Z</time>
  <course>0.0</course>
  <speed>0.0</speed>
  <fix>3d</fix>
</trkpt>
<trkpt lat="33.810313" lon="-118.393867">
  <ele>-0.126</ele>
  <time>2026-09-01T01:13:12Z</time>
  <course>188.06</course>
  <speed>0.022360679774997897</speed>
  <fix>3d</fix>
</trkpt>
<trkpt lat="33.810313" lon="-118.393867">
  <ele>-0.12</ele>
  <time>2026-09-01T01:13:12Z</time>
  <course>0.0</course>
  <speed>0.0</speed>
  <fix>3d</fix>
</trkpt>
<trkpt lat="33.810313" lon="-118.393867">
  <ele>-0.126</ele>
  <time>2026-09-01T01:13:12Z</time>
  <course>188.05</course>
  <speed>0.022360679774997897</speed>
  <fix>3d</fix>
</trkpt>
<trkpt lat="33.810313" lon="-118.393867">
  <ele>-0.12</ele>
  <time>2026-09-01T01:13:12Z</time>
  <course>0.0</course>
  <speed>0.0</speed>
  <fix>3d</fix>
</trkpt>
<trkpt lat="33.810313" lon="-118.393867">
  <ele>-0.126</ele>
  <time>2026-09-01T01:13:12Z</time>
  <course>188.04</course>
  <speed>0.022360679774997897</speed>
  <fix>3d</fix>
</trkpt>
<trkpt lat="33.810313" lon="-118.393867">
  <ele>-0.12</ele>
  <time>2026-09-01T01:13:12Z</time>
  <course>0.0</course>
  <speed>0.0</speed>
  <fix>3d</fix>
</trkpt>
<trkpt lat="33.810313" lon="-118.393867">
  <ele>-0.127</ele>
  <time>2026-09-01T01:13:12Z</time>
  <course>188.03</course>
  <speed>0.022360679774997897</speed>
  <fix>3d</fix>
</trkpt>
<trkpt lat="33.810313" lon="-118.393867">
  <ele>-0.12</ele>
  <time>2026-09-01T01:13:12Z</time>
  <course>0.0</course>
  <speed>0.0</speed>
  <fix>3d</fix>
</trkpt>
<trkpt lat="33.810313" lon="-118.393867">
  <ele>-0.127</ele>
  <time>2026-09-01T01:13:12Z</time>
  <course>188.03</course>
  <speed>0.022360679774997897</speed>
  <fix>3d</fix>
</trkpt>
<trkpt lat="33.810313" lon="-118.393867">
  <ele>-0.12</ele>
  <time>2026-09-01T01:13:12Z</time>
  <course>0.0</course>
  <speed>0.0</speed>
  <fix>3d</fix>
</trkpt>
<trkpt lat="33.810313" lon="-118.393867">
  <ele>-0.127</ele>
  <time>2026-09-01T01:13:12Z</time>
  <course>188.02</course>
  <speed>0.022360679774997897</speed>
  <fix>3d</fix>
</trkpt>
<trkpt lat="33.810313" lon="-118.393867">
  <ele>-0.12</ele>
  <time>2026-09-01T01:13:12Z</time>
  <course>0.0</course>
  <speed>0.0</speed>
  <fix>3d</fix>
</trkpt>
<trkpt lat="33.810313" lon="-118.393867">
  <ele>-0.128</ele>
  <time>2026-09-01T01:13:12Z</time>
  <course>188.01</course>
  <speed>0.022360679774997897</speed>
  <fix>3d</fix>
</trkpt>
<trkpt lat="33.810313" lon="-118.393867">
  <ele>-0.12</ele>
  <time>2026-09-01T01:13:12Z</time>
  <course>0.0</course>
  <speed>0.0</speed>
  <fix>3d</fix>
</trkpt>
<trkpt lat="33.810313" lon="-118.393867">
  <ele>-0.128</ele>
  <time>2026-09-01T01:13:12Z</time>
  <course>188.0</course>
  <speed>0.022360679774997897</speed>
  <fix>3d</fix>
</trkpt>
<trkpt lat="33.810313" lon="-118.393867">
  <ele>-0.12</ele>
  <time>2026-09-01T01:13:12Z</time>
  <course>0.0</course>
  <speed>0.0</speed>
  <fix>3d</fix>
</trkpt>
<trkpt lat="33.810313" lon="-118.393867">
  <ele>-0.127</ele>
  <time>2026-09-01T01:13:12Z</time>
  <course>187.99</course>
  <speed>0.022360679774997897</speed>
  <fix>3d</fix>
</trkpt>
<trkpt lat="33.810313" lon="-118.393867">
  <ele>-0.12</ele>
  <time>2026-09-01T01:13:12Z</time>
  <course>0.0</course>
  <speed>0.0</speed>
  <fix>3d</fix>
</trkpt>
<trkpt lat="33.810313" lon="-118.393867">
  <ele>-0.126</ele>
  <time>2026-09-01T01:13:12Z</time>
  <course>187.98</course>
  <speed>0.022360679774997897</speed>
  <fix>3d</fix>
</trkpt>
<trkpt lat="33.810313" lon="-118.393867">
  <ele>-0.12</ele>
  <time>2026-09-01T01:13:12Z</time>
  <course>0.0</course>
  <speed>0.0</speed>
  <fix>3d</fix>
</trkpt>
<trkpt lat="33.810313" lon="-118.393867">
  <ele>-0.123</ele>
  <time>2026-09-01T01:13:12Z</time>
  <course>187.98</course>
  <speed>0.022360679774997897</speed>
  <fix>3d</fix>
</trkpt>
<trkpt lat="33.810313" lon="-118.393867">
  <ele>-0.12</ele>
  <time>2026-09-01T01:13:12Z</time>
  <course>0.0</course>
  <speed>0.0</speed>
  <fix>3d</fix>
</trkpt>
<trkpt lat="33.810313" lon="-118.393867">
  <ele>-0.121</ele>
  <time>2026-09-01T01:13:12Z</time>
  <course>187.97</course>
  <speed>0.022360679774997897</speed>
  <fix>3d</fix>
</trkpt>
<trkpt lat="33.810313" lon="-118.393867">
  <ele>-0.12</ele>
  <time>2026-09-01T01:13:12Z</time>
  <course>0.0</course>
  <speed>0.0</speed>
  <fix>3d</fix>
</trkpt>
<trkpt lat="33.810313" lon="-118.393867">
  <ele>-0.12</ele>
  <time>2026-09-01T01:13:12Z</time>
  <course>187.96</course>
  <speed>0.022360679774997897</speed>
  <fix>3d</fix>
</trkpt>
<trkpt lat="33.810313" lon="-118.393867">
  <ele>-0.12</ele>
  <time>2026-09-01T01:13:12Z</time>
  <course>0.0</course>
  <speed>0.0</speed>
  <fix>3d</fix>
</trkpt>
<trkpt lat="33.810313" lon="-118.393867">
  <ele>-0.12</ele>
  <time>2026-09-01T01:13:12Z</time>
  <course>187.95</course>
  <speed>0.022360679774997897</speed>
  <fix>3d</fix>
</trkpt>
<trkpt lat="33.810313" lon="-118.393867">
  <ele>-0.12</ele>
  <time>2026-09-01T01:13:12Z</time>
  <course>0.0</course>
  <speed>0.0</speed>
  <fix>3d</fix>
</trkpt>
<trkpt lat="33.810313" lon="-118.393867">
  <ele>-0.122</ele>
  <time>2026-09-01T01:13:12Z</time>
  <course>187.94</course>
  <speed>0.022360679774997897</speed>
  <fix>3d</fix>
</trkpt>
<trkpt lat="33.810313" lon="-118.393867">
  <ele>-0.12</ele>
  <time>2026-09-01T01:13:12Z</time>
  <course>0.0</course>
  <speed>0.0</speed>
  <fix>3d</fix>
</trkpt>
<trkpt lat="33.810313" lon="-118.393867">
  <ele>-0.125</ele>
  <time>2026-09-01T01:13:12Z</time>
  <course>187.94</course>
  <speed>0.022360679774997897</speed>
  <fix>3d</fix>
</trkpt>
<trkpt lat="33.810313" lon="-118.393867">
  <ele>-0.12</ele>
  <time>2026-09-01T01:13:12Z</time>
  <course>0.0</course>
  <speed>0.0</speed>
  <fix>3d</fix>
</trkpt>
<trkpt lat="33.810313" lon="-118.393867">
  <ele>-0.129</ele>
  <time>2026-09-01T01:13:12Z</time>
  <course>187.93</course>
  <speed>0.022360679774997897</speed>
  <fix>3d</fix>
</trkpt>
<trkpt lat="33.810313" lon="-118.393867">
  <ele>-0.12</ele>
  <time>2026-09-01T01:13:12Z</time>
  <course>0.0</course>
  <speed>0.0</speed>
  <fix>3d</fix>
</trkpt>
<trkpt lat="33.810313" lon="-118.393867">
  <ele>-0.131</ele>
  <time>2026-09-01T01:13:12Z</time>
  <course>187.92</course>
  <speed>0.022360679774997897</speed>
  <fix>3d</fix>
</trkpt>
<trkpt lat="33.810313" lon="-118.393867">
  <ele>-0.12</ele>
  <time>2026-09-01T01:13:12Z</time>
  <course>0.0</course>
  <speed>0.0</speed>
  <fix>3d</fix>
</trkpt>
<trkpt lat="33.810313" lon="-118.393867">
  <ele>-0.132</ele>
  <time>2026-09-01T01:13:12Z</time>
  <course>187.91</course>
  <speed>0.022360679774997897</speed>
  <fix>3d</fix>
</trkpt>
<trkpt lat="33.810313" lon="-118.393867">
  <ele>-0.12</ele>
  <time>2026-09-01T01:13:12Z</time>
  <course>0.0</course>
  <speed>0.0</speed>
  <fix>3d</fix>
</trkpt>
<trkpt lat="33.810313" lon="-118.393867">
  <ele>-0.132</ele>
  <time>2026-09-01T01:13:12Z</time>
  <course>187.9</course>
  <speed>0.022360679774997897</speed>
  <fix>3d</fix>
</trkpt>
<trkpt lat="33.810313" lon="-118.393867">
  <ele>-0.12</ele>
  <time>2026-09-01T01:13:12Z</time>
  <course>0.0</course>
  <speed>0.0</speed>
  <fix>3d</fix>
</trkpt>
<trkpt lat="33.810313" lon="-118.393867">
  <ele>-0.132</ele>
  <time>2026-09-01T01:13:12Z</time>
  <course>187.9</course>
  <speed>0.022360679774997897</speed>
  <fix>3d</fix>
</trkpt>
<trkpt lat="33.810313" lon="-118.393867">
  <ele>-0.12</ele>
  <time>2026-09-01T01:13:12Z</time>
  <course>0.0</course>
  <speed>0.0</speed>
  <fix>3d</fix>
</trkpt>
<trkpt lat="33.810313" lon="-118.393867">
  <ele>-0.13</ele>
  <time>2026-09-01T01:13:12Z</time>
  <course>187.89</course>
  <speed>0.022360679774997897</speed>
  <fix>3d</fix>
</trkpt>
<trkpt lat="33.810313" lon="-118.393867">
  <ele>-0.12</ele>
  <time>2026-09-01T01:13:12Z</time>
  <course>0.0</course>
  <speed>0.0</speed>
  <fix>3d</fix>
</trkpt>
<trkpt lat="33.810313" lon="-118.393867">
  <ele>-0.127</ele>
  <time>2026-09-01T01:13:12Z</time>
  <course>187.88</course>
  <speed>0.022360679774997897</speed>
  <fix>3d</fix>
</trkpt>
<trkpt lat="33.810313" lon="-118.393867">
  <ele>-0.12</ele>
  <time>2026-09-01T01:13:12Z</time>
  <course>0.0</course>
  <speed>0.0</speed>
  <fix>3d</fix>
</trkpt>
<trkpt lat="33.810313" lon="-118.393867">
  <ele>-0.123</ele>
  <time>2026-09-01T01:13:12Z</time>
  <course>187.87</course>
  <speed>0.022360679774997897</speed>
  <fix>3d</fix>
</trkpt>
<trkpt lat="33.810313" lon="-118.393867">
  <ele>-0.12</ele>
  <time>2026-09-01T01:13:12Z</time>
  <course>0.0</course>
  <speed>0.0</speed>
  <fix>3d</fix>
</trkpt>
<trkpt lat="33.810313" lon="-118.393867">
  <ele>-0.121</ele>
  <time>2026-09-01T01:13:12Z</time>
  <course>187.87</course>
  <speed>0.022360679774997897</speed>
  <fix>3d</fix>
</trkpt>
<trkpt lat="33.810313" lon="-118.393867">
  <ele>-0.12</ele>
  <time>2026-09-01T01:13:12Z</time>
  <course>0.0</course>
  <speed>0.0</speed>
  <fix>3d</fix>
</trkpt>
<trkpt lat="33.810313" lon="-118.393867">
  <ele>-0.121</ele>
  <time>2026-09-01T01:13:12Z</time>
  <course>187.86</course>
  <speed>0.022360679774997897</speed>
  <fix>3d</fix>
</trkpt>
<trkpt lat="33.810313" lon="-118.393867">
  <ele>-0.12</ele>
  <time>2026-09-01T01:13:12Z</time>
  <course>0.0</course>
  <speed>0.0</speed>
  <fix>3d</fix>
</trkpt>
<trkpt lat="33.810313" lon="-118.393867">
  <ele>-0.123</ele>
  <time>2026-09-01T01:13:12Z</time>
  <course>187.85</course>
  <speed>0.022360679774997897</speed>
  <fix>3d</fix>
</trkpt>
<trkpt lat="33.810313" lon="-118.393867">
  <ele>-0.12</ele>
  <time>2026-09-01T01:13:12Z</time>
  <course>0.0</course>
  <speed>0.0</speed>
  <fix>3d</fix>
</trkpt>
<trkpt lat="33.810313" lon="-118.393867">
  <ele>-0.124</ele>
  <time>2026-09-01T01:13:12Z</time>
  <course>187.84</course>
  <speed>0.022360679774997897</speed>
  <fix>3d</fix>
</trkpt>
<trkpt lat="33.810313" lon="-118.393867">
  <ele>-0.12</ele>
  <time>2026-09-01T01:13:12Z</time>
  <course>0.0</course>
  <speed>0.0</speed>
  <fix>3d</fix>
</trkpt>
<trkpt lat="33.810313" lon="-118.393867">
  <ele>-0.126</ele>
  <time>2026-09-01T01:13:12Z</time>
  <course>187.83</course>
  <speed>0.022360679774997897</speed>
  <fix>3d</fix>
</trkpt>
<trkpt lat="33.810313" lon="-118.393867">
  <ele>-0.12</ele>
  <time>2026-09-01T01:13:12Z</time>
  <course>0.0</course>
  <speed>0.0</speed>
  <fix>3d</fix>
</trkpt>
<trkpt lat="33.810313" lon="-118.393867">
  <ele>-0.127</ele>
  <time>2026-09-01T01:13:12Z</time>
  <course>187.83</course>
  <speed>0.022360679774997897</speed>
  <fix>3d</fix>
</trkpt>
<trkpt lat="33.810313" lon="-118.393867">
  <ele>-0.12</ele>
  <time>2026-09-01T01:13:12Z</time>
  <course>0.0</course>
  <speed>0.0</speed>
  <fix>3d</fix>
</trkpt>
<trkpt lat="33.810313" lon="-118.393867">
  <ele>-0.127</ele>
  <time>2026-09-01T01:13:12Z</time>
  <course>187.82</course>
  <speed>0.022360679774997897</speed>
  <fix>3d</fix>
</trkpt>
<trkpt lat="33.810313" lon="-118.393867">
  <ele>-0.12</ele>
  <time>2026-09-01T01:13:12Z</time>
  <course>0.0</course>
  <speed>0.0</speed>
  <fix>3d</fix>
</trkpt>
<trkpt lat="33.810313" lon="-118.393867">
  <ele>-0.127</ele>
  <time>2026-09-01T01:13:12Z</time>
  <course>187.81</course>
  <speed>0.022360679774997897</speed>
  <fix>3d</fix>
</trkpt>
<trkpt lat="33.810313" lon="-118.393867">
  <ele>-0.12</ele>
  <time>2026-09-01T01:13:12Z</time>
  <course>0.0</course>
  <speed>0.0</speed>
  <fix>3d</fix>
</trkpt>
<trkpt lat="33.810313" lon="-118.393867">
  <ele>-0.126</ele>
  <time>2026-09-01T01:13:12Z</time>
  <course>187.8</course>
  <speed>0.022360679774997897</speed>
  <fix>3d</fix>
</trkpt>
<trkpt lat="33.810313" lon="-118.393867">
  <ele>-0.12</ele>
  <time>2026-09-01T01:13:12Z</time>
  <course>0.0</course>
  <speed>0.0</speed>
  <fix>3d</fix>
</trkpt>
<trkpt lat="33.810313" lon="-118.393867">
  <ele>-0.124</ele>
  <time>2026-09-01T01:13:12Z</time>
  <course>187.8</course>
  <speed>0.022360679774997897</speed>
  <fix>3d</fix>
</trkpt>
<trkpt lat="33.810313" lon="-118.393867">
  <ele>-0.12</ele>
  <time>2026-09-01T01:13:12Z</time>
  <course>0.0</course>
  <speed>0.0</speed>
  <fix>3d</fix>
</trkpt>
<trkpt lat="33.810313" lon="-118.393867">
  <ele>-0.121</ele>
  <time>2026-09-01T01:13:12Z</time>
  <course>187.79</course>
  <speed>0.022360679774997897</speed>
  <fix>3d</fix>
</trkpt>
<trkpt lat="33.810313" lon="-118.393867">
  <ele>-0.12</ele>
  <time>2026-09-01T01:13:12Z</time>
  <course>0.0</course>
  <speed>0.0</speed>
  <fix>3d</fix>
</trkpt>
<trkpt lat="33.810313" lon="-118.393867">
  <ele>-0.119</ele>
  <time>2026-09-01T01:13:12Z</time>
  <course>187.78</course>
  <speed>0.022360679774997897</speed>
  <fix>3d</fix>
</trkpt>
<trkpt lat="33.810313" lon="-118.393867">
  <ele>-0.12</ele>
  <time>2026-09-01T01:13:12Z</time>
  <course>0.0</course>
  <speed>0.0</speed>
  <fix>3d</fix>
</trkpt>
<trkpt lat="33.810313" lon="-118.393867">
  <ele>-0.118</ele>
  <time>2026-09-01T01:13:12Z</time>
  <course>187.77</course>
  <speed>0.022360679774997897</speed>
  <fix>3d</fix>
</trkpt>
<trkpt lat="33.810313" lon="-118.393867">
  <ele>-0.12</ele>
  <time>2026-09-01T01:13:12Z</time>
  <course>0.0</course>
  <speed>0.0</speed>
  <fix>3d</fix>
</trkpt>
<trkpt lat="33.810313" lon="-118.393867">
  <ele>-0.118</ele>
  <time>2026-09-01T01:13:12Z</time>
  <course>187.76</course>
  <speed>0.022360679774997897</speed>
  <fix>3d</fix>
</trkpt>
<trkpt lat="33.810313" lon="-118.393867">
  <ele>-0.12</ele>
  <time>2026-09-01T01:13:12Z</time>
  <course>0.0</course>
  <speed>0.0</speed>
  <fix>3d</fix>
</trkpt>
<trkpt lat="33.810313" lon="-118.393867">
  <ele>-0.119</ele>
  <time>2026-09-01T01:13:12Z</time>
  <course>187.76</course>
  <speed>0.022360679774997897</speed>
  <fix>3d</fix>
</trkpt>
<trkpt lat="33.810313" lon="-118.393867">
  <ele>-0.12</ele>
  <time>2026-09-01T01:13:12Z</time>
  <course>0.0</course>
  <speed>0.0</speed>
  <fix>3d</fix>
</trkpt>
<trkpt lat="33.810313" lon="-118.393867">
  <ele>-0.12</ele>
  <time>2026-09-01T01:13:12Z</time>
  <course>187.75</course>
  <speed>0.022360679774997897</speed>
  <fix>3d</fix>
</trkpt>
<trkpt lat="33.810313" lon="-118.393867">
  <ele>-0.12</ele>
  <time>2026-09-01T01:13:12Z</time>
  <course>0.0</course>
  <speed>0.0</speed>
  <fix>3d</fix>
</trkpt>
<trkpt lat="33.810313" lon="-118.393867">
  <ele>-0.12</ele>
  <time>2026-09-01T01:13:12Z</time>
  <course>187.74</course>
  <speed>0.0282842712474619</speed>
  <fix>3d</fix>
</trkpt>
<trkpt lat="33.810313" lon="-118.393867">
  <ele>-0.12</ele>
  <time>2026-09-01T01:13:12Z</time>
  <course>0.0</course>
  <speed>0.0</speed>
  <fix>3d</fix>
</trkpt>
<trkpt lat="33.810313" lon="-118.393867">
  <ele>-0.12</ele>
  <time>2026-09-01T01:13:12Z</time>
  <course>187.74</course>
  <speed>0.0282842712474619</speed>
  <fix>3d</fix>
</trkpt>
<trkpt lat="33.810313" lon="-118.393867">
  <ele>-0.12</ele>
  <time>2026-09-01T01:13:12Z</time>
  <course>0.0</course>
  <speed>0.0</speed>
  <fix>3d</fix>
</trkpt>
<trkpt lat="33.810313" lon="-118.393867">
  <ele>-0.119</ele>
  <time>2026-09-01T01:13:12Z</time>
  <course>187.73</course>
  <speed>0.0282842712474619</speed>
  <fix>3d</fix>
</trkpt>
<trkpt lat="33.810313" lon="-118.393867">
  <ele>-0.12</ele>
  <time>2026-09-01T01:13:12Z</time>
  <course>0.0</course>
  <speed>0.0</speed>
  <fix>3d</fix>
</trkpt>
<trkpt lat="33.810313" lon="-118.393867">
  <ele>-0.118</ele>
  <time>2026-09-01T01:13:12Z</time>
  <course>187.72</course>
  <speed>0.0282842712474619</speed>
  <fix>3d</fix>
</trkpt>
<trkpt lat="33.810313" lon="-118.393867">
  <ele>-0.12</ele>
  <time>2026-09-01T01:13:12Z</time>
  <course>0.0</course>
  <speed>0.0</speed>
  <fix>3d</fix>
</trkpt>
<trkpt lat="33.810313" lon="-118.393867">
  <ele>-0.116</ele>
  <time>2026-09-01T01:13:12Z</time>
  <course>187.71</course>
  <speed>0.0282842712474619</speed>
  <fix>3d</fix>
</trkpt>
<trkpt lat="33.810313" lon="-118.393867">
  <ele>-0.12</ele>
  <time>2026-09-01T01:13:12Z</time>
  <course>0.0</course>
  <speed>0.0</speed>
  <fix>3d</fix>
</trkpt>
<trkpt lat="33.810313" lon="-118.393867">
  <ele>-0.113</ele>
  <time>2026-09-01T01:13:12Z</time>
  <course>187.71</course>
  <speed>0.0282842712474619</speed>
  <fix>3d</fix>
</trkpt>
<trkpt lat="33.810313" lon="-118.393867">
  <ele>-0.12</ele>
  <time>2026-09-01T01:13:12Z</time>
  <course>0.0</course>
  <speed>0.0</speed>
  <fix>3d</fix>
</trkpt>
<trkpt lat="33.810313" lon="-118.393867">
  <ele>-0.112</ele>
  <time>2026-09-01T01:13:12Z</time>
  <course>187.7</course>
  <speed>0.0282842712474619</speed>
  <fix>3d</fix>
</trkpt>
<trkpt lat="33.810313" lon="-118.393867">
  <ele>-0.12</ele>
  <time>2026-09-01T01:13:12Z</time>
  <course>0.0</course>
  <speed>0.0</speed>
  <fix>3d</fix>
</trkpt>
<trkpt lat="33.810313" lon="-118.393867">
  <ele>-0.113</ele>
  <time>2026-09-01T01:13:12Z</time>
  <course>187.69</course>
  <speed>0.0282842712474619</speed>
  <fix>3d</fix>
</trkpt>
<trkpt lat="33.810313" lon="-118.393867">
  <ele>-0.12</ele>
  <time>2026-09-01T01:13:12Z</time>
  <course>0.0</course>
  <speed>0.0</speed>
  <fix>3d</fix>
</trkpt>
<trkpt lat="33.810313" lon="-118.393867">
  <ele>-0.115</ele>
  <time>2026-09-01T01:13:12Z</time>
  <course>187.68</course>
  <speed>0.0282842712474619</speed>
  <fix>3d</fix>
</trkpt>
<trkpt lat="33.810313" lon="-118.393867">
  <ele>-0.12</ele>
  <time>2026-09-01T01:13:12Z</time>
  <course>0.0</course>
  <speed>0.0</speed>
  <fix>3d</fix>
</trkpt>
<trkpt lat="33.810313" lon="-118.393867">
  <ele>-0.119</ele>
  <time>2026-09-01T01:13:12Z</time>
  <course>187.68</course>
  <speed>0.0282842712474619</speed>
  <fix>3d</fix>
</trkpt>
<trkpt lat="33.810313" lon="-118.393867">
  <ele>-0.12</ele>
  <time>2026-09-01T01:13:12Z</time>
  <course>0.0</course>
  <speed>0.0</speed>
  <fix>3d</fix>
</trkpt>
<trkpt lat="33.810313" lon="-118.393867">
  <ele>-0.124</ele>
  <time>2026-09-01T01:13:12Z</time>
  <course>187.67</course>
  <speed>0.0282842712474619</speed>
  <fix>3d</fix>
</trkpt>
<trkpt lat="33.810313" lon="-118.393867">
  <ele>-0.12</ele>
  <time>2026-09-01T01:13:12Z</time>
  <course>0.0</course>
  <speed>0.0</speed>
  <fix>3d</fix>
</trkpt>
<trkpt lat="33.810313" lon="-118.393867">
  <ele>-0.129</ele>
  <time>2026-09-01T01:13:12Z</time>
  <course>187.66</course>
  <speed>0.0282842712474619</speed>
  <fix>3d</fix>
</trkpt>
<trkpt lat="33.810313" lon="-118.393867">
  <ele>-0.12</ele>
  <time>2026-09-01T01:13:12Z</time>
  <course>0.0</course>
  <speed>0.0</speed>
  <fix>3d</fix>
</trkpt>
<trkpt lat="33.810313" lon="-118.393867">
  <ele>-0.133</ele>
  <time>2026-09-01T01:13:12Z</time>
  <course>187.66</course>
  <speed>0.0282842712474619</speed>
  <fix>3d</fix>
</trkpt>
<trkpt lat="33.810313" lon="-118.393867">
  <ele>-0.12</ele>
  <time>2026-09-01T01:13:12Z</time>
  <course>0.0</course>
  <speed>0.0</speed>
  <fix>3d</fix>
</trkpt>
<trkpt lat="33.810313" lon="-118.393867">
  <ele>-0.135</ele>
  <time>2026-09-01T01:13:12Z</time>
  <course>187.65</course>
  <speed>0.0282842712474619</speed>
  <fix>3d</fix>
</trkpt>
<trkpt lat="33.810313" lon="-118.393867">
  <ele>-0.12</ele>
  <time>2026-09-01T01:13:12Z</time>
  <course>0.0</course>
  <speed>0.0</speed>
  <fix>3d</fix>
</trkpt>
<trkpt lat="33.810313" lon="-118.393867">
  <ele>-0.135</ele>
  <time>2026-09-01T01:13:12Z</time>
  <course>187.64</course>
  <speed>0.0282842712474619</speed>
  <fix>3d</fix>
</trkpt>
<trkpt lat="33.810313" lon="-118.393867">
  <ele>-0.12</ele>
  <time>2026-09-01T01:13:12Z</time>
  <course>0.0</course>
  <speed>0.0</speed>
  <fix>3d</fix>
</trkpt>
<trkpt lat="33.810313" lon="-118.393867">
  <ele>-0.135</ele>
  <time>2026-09-01T01:13:12Z</time>
  <course>187.64</course>
  <speed>0.0282842712474619</speed>
  <fix>3d</fix>
</trkpt>
<trkpt lat="33.810313" lon="-118.393867">
  <ele>-0.12</ele>
  <time>2026-09-01T01:13:12Z</time>
  <course>0.0</course>
  <speed>0.0</speed>
  <fix>3d</fix>
</trkpt>
<trkpt lat="33.810313" lon="-118.393867">
  <ele>-0.133</ele>
  <time>2026-09-01T01:13:12Z</time>
  <course>187.63</course>
  <speed>0.0282842712474619</speed>
  <fix>3d</fix>
</trkpt>
<trkpt lat="33.810313" lon="-118.393867">
  <ele>-0.12</ele>
  <time>2026-09-01T01:13:12Z</time>
  <course>0.0</course>
  <speed>0.0</speed>
  <fix>3d</fix>
</trkpt>
<trkpt lat="33.810313" lon="-118.393867">
  <ele>-0.132</ele>
  <time>2026-09-01T01:13:12Z</time>
  <course>187.63</course>
  <speed>0.03605551275463989</speed>
  <fix>3d</fix>
</trkpt>
<trkpt lat="33.810313" lon="-118.393867">
  <ele>-0.12</ele>
  <time>2026-09-01T01:13:12Z</time>
  <course>0.0</course>
  <speed>0.0</speed>
  <fix>3d</fix>
</trkpt>
<trkpt lat="33.810313" lon="-118.393867">
  <ele>-0.132</ele>
  <time>2026-09-01T01:13:12Z</time>
  <course>187.62</course>
  <speed>0.03605551275463989</speed>
  <fix>3d</fix>
</trkpt>
<trkpt lat="33.810313" lon="-118.393867">
  <ele>-0.12</ele>
  <time>2026-09-01T01:13:12Z</time>
  <course>0.0</course>
  <speed>0.0</speed>
  <fix>3d</fix>
</trkpt>
<trkpt lat="33.810313" lon="-118.393867">
  <ele>-0.133</ele>
  <time>2026-09-01T01:13:12Z</time>
  <course>187.61</course>
  <speed>0.03605551275463989</speed>
  <fix>3d</fix>
</trkpt>
<trkpt lat="33.810313" lon="-118.393867">
  <ele>-0.12</ele>
  <time>2026-09-01T01:13:12Z</time>
  <course>0.0</course>
  <speed>0.0</speed>
  <fix>3d</fix>
</trkpt>
<trkpt lat="33.810313" lon="-118.393867">
  <ele>-0.134</ele>
  <time>2026-09-01T01:13:12Z</time>
  <course>187.6</course>
  <speed>0.03605551275463989</speed>
  <fix>3d</fix>
</trkpt>
<trkpt lat="33.810313" lon="-118.393867">
  <ele>-0.12</ele>
  <time>2026-09-01T01:13:12Z</time>
  <course>0.0</course>
  <speed>0.0</speed>
  <fix>3d</fix>
</trkpt>
<trkpt lat="33.810313" lon="-118.393867">
  <ele>-0.134</ele>
  <time>2026-09-01T01:13:12Z</time>
  <course>187.6</course>
  <speed>0.03605551275463989</speed>
  <fix>3d</fix>
</trkpt>
<trkpt lat="33.810313" lon="-118.393867">
  <ele>-0.12</ele>
  <time>2026-09-01T01:13:12Z</time>
  <course>0.0</course>
  <speed>0.0</speed>
  <fix>3d</fix>
</trkpt>
<trkpt lat="33.810313" lon="-118.393867">
  <ele>-0.134</ele>
  <time>2026-09-01T01:13:12Z</time>
  <course>187.59</course>
  <speed>0.03605551275463989</speed>
  <fix>3d</fix>
</trkpt>
<trkpt lat="33.810313" lon="-118.393867">
  <ele>-0.12</ele>
  <time>2026-09-01T01:13:12Z</time>
  <course>0.0</course>
  <speed>0.0</speed>
  <fix>3d</fix>
</trkpt>
<trkpt lat="33.810313" lon="-118.393867">
  <ele>-0.132</ele>
  <time>2026-09-01T01:13:12Z</time>
  <course>187.58</course>
  <speed>0.03605551275463989</speed>
  <fix>3d</fix>
</trkpt>
<trkpt lat="33.810313" lon="-118.393867">
  <ele>-0.12</ele>
  <time>2026-09-01T01:13:12Z</time>
  <course>0.0</course>
  <speed>0.0</speed>
  <fix>3d</fix>
</trkpt>
<trkpt lat="33.810313" lon="-118.393867">
  <ele>-0.129</ele>
  <time>2026-09-01T01:13:12Z</time>
  <course>187.58</course>
  <speed>0.03605551275463989</speed>
  <fix>3d</fix>
</trkpt>
<trkpt lat="33.810313" lon="-118.393867">
  <ele>-0.12</ele>
  <time>2026-09-01T01:13:12Z</time>
  <course>0.0</course>
  <speed>0.0</speed>
  <fix>3d</fix>
</trkpt>
<trkpt lat="33.810313" lon="-118.393867">
  <ele>-0.127</ele>
  <time>2026-09-01T01:13:12Z</time>
  <course>187.57</course>
  <speed>0.03605551275463989</speed>
  <fix>3d</fix>
</trkpt>
<trkpt lat="33.810313" lon="-118.393867">
  <ele>-0.12</ele>
  <time>2026-09-01T01:13:12Z</time>
  <course>0.0</course>
  <speed>0.0</speed>
  <fix>3d</fix>
</trkpt>
<trkpt lat="33.810313" lon="-118.393867">
  <ele>-0.125</ele>
  <time>2026-09-01T01:13:12Z</time>
  <course>187.56</course>
  <speed>0.03605551275463989</speed>
  <fix>3d</fix>
</trkpt>
<trkpt lat="33.810313" lon="-118.393867">
  <ele>-0.12</ele>
  <time>2026-09-01T01:13:12Z</time>
  <course>0.0</course>
  <speed>0.0</speed>
  <fix>3d</fix>
</trkpt>
<trkpt lat="33.810313" lon="-118.393867">
  <ele>-0.122</ele>
  <time>2026-09-01T01:13:12Z</time>
  <course>187.56</course>
  <speed>0.03605551275463989</speed>
  <fix>3d</fix>
</trkpt>
<trkpt lat="33.810313" lon="-118.393867">
  <ele>-0.12</ele>
  <time>2026-09-01T01:13:12Z</time>
  <course>0.0</course>
  <speed>0.0</speed>
  <fix>3d</fix>
</trkpt>
<trkpt lat="33.810313" lon="-118.393867">
  <ele>-0.119</ele>
  <time>2026-09-01T01:13:12Z</time>
  <course>187.55</course>
  <speed>0.03605551275463989</speed>
  <fix>3d</fix>
</trkpt>
<trkpt lat="33.810313" lon="-118.393867">
  <ele>-0.12</ele>
  <time>2026-09-01T01:13:12Z</time>
  <course>0.0</course>
  <speed>0.0</speed>
  <fix>3d</fix>
</trkpt>
<trkpt lat="33.810313" lon="-118.393867">
  <ele>-0.117</ele>
  <time>2026-09-01T01:13:12Z</time>
  <course>187.54</course>
  <speed>0.03605551275463989</speed>
  <fix>3d</fix>
</trkpt>
<trkpt lat="33.810313" lon="-118.393867">
  <ele>-0.12</ele>
  <time>2026-09-01T01:13:12Z</time>
  <course>0.0</course>
  <speed>0.0</speed>
  <fix>3d</fix>
</trkpt>
<trkpt lat="33.810313" lon="-118.393867">
  <ele>-0.117</ele>
  <time>2026-09-01T01:13:12Z</time>
  <course>187.54</course>
  <speed>0.03605551275463989</speed>
  <fix>3d</fix>
</trkpt>
<trkpt lat="33.810313" lon="-118.393867">
  <ele>-0.12</ele>
  <time>2026-09-01T01:13:12Z</time>
  <course>0.0</course>
  <speed>0.0</speed>
  <fix>3d</fix>
</trkpt>
<trkpt lat="33.810313" lon="-118.393867">
  <ele>-0.118</ele>
  <time>2026-09-01T01:13:12Z</time>
  <course>187.53</course>
  <speed>0.03605551275463989</speed>
  <fix>3d</fix>
</trkpt>
<trkpt lat="33.810313" lon="-118.393867">
  <ele>-0.12</ele>
  <time>2026-09-01T01:13:12Z</time>
  <course>0.0</course>
  <speed>0.0</speed>
  <fix>3d</fix>
</trkpt>
<trkpt lat="33.810313" lon="-118.393867">
  <ele>-0.119</ele>
  <time>2026-09-01T01:13:12Z</time>
  <course>187.52</course>
  <speed>0.03605551275463989</speed>
  <fix>3d</fix>
</trkpt>
<trkpt lat="33.810313" lon="-118.393867">
  <ele>-0.12</ele>
  <time>2026-09-01T01:13:12Z</time>
  <course>0.0</course>
  <speed>0.0</speed>
  <fix>3d</fix>
</trkpt>
<trkpt lat="33.810313" lon="-118.393867">
  <ele>-0.12</ele>
  <time>2026-09-01T01:13:12Z</time>
  <course>187.52</course>
  <speed>0.03605551275463989</speed>
  <fix>3d</fix>
</trkpt>
<trkpt lat="33.810313" lon="-118.393867">
  <ele>-0.12</ele>
  <time>2026-09-01T01:13:12Z</time>
  <course>0.0</course>
  <speed>0.0</speed>
  <fix>3d</fix>
</trkpt>
<trkpt lat="33.810313" lon="-118.393867">
  <ele>-0.121</ele>
  <time>2026-09-01T01:13:12Z</time>
  <course>187.51</course>
  <speed>0.03605551275463989</speed>
  <fix>3d</fix>
</trkpt>
<trkpt lat="33.810313" lon="-118.393867">
  <ele>-0.12</ele>
  <time>2026-09-01T01:13:12Z</time>
  <course>0.0</course>
  <speed>0.0</speed>
  <fix>3d</fix>
</trkpt>
<trkpt lat="33.810313" lon="-118.393867">
  <ele>-0.121</ele>
  <time>2026-09-01T01:13:12Z</time>
  <course>187.51</course>
  <speed>0.03605551275463989</speed>
  <fix>3d</fix>
</trkpt>
<trkpt lat="33.810313" lon="-118.393867">
  <ele>-0.12</ele>
  <time>2026-09-01T01:13:12Z</time>
  <course>0.0</course>
  <speed>0.0</speed>
  <fix>3d</fix>
</trkpt>
<trkpt lat="33.810313" lon="-118.393867">
  <ele>-0.121</ele>
  <time>2026-09-01T01:13:12Z</time>
  <course>187.5</course>
  <speed>0.03605551275463989</speed>
  <fix>3d</fix>
</trkpt>
<trkpt lat="33.810313" lon="-118.393867">
  <ele>-0.12</ele>
  <time>2026-09-01T01:13:12Z</time>
  <course>0.0</course>
  <speed>0.0</speed>
  <fix>3d</fix>
</trkpt>
<trkpt lat="33.810313" lon="-118.393867">
  <ele>-0.121</ele>
  <time>2026-09-01T01:13:12Z</time>
  <course>187.49</course>
  <speed>0.03605551275463989</speed>
  <fix>3d</fix>
</trkpt>
<trkpt lat="33.810313" lon="-118.393867">
  <ele>-0.12</ele>
  <time>2026-09-01T01:13:12Z</time>
  <course>0.0</course>
  <speed>0.0</speed>
  <fix>3d</fix>
</trkpt>
<trkpt lat="33.810313" lon="-118.393867">
  <ele>-0.121</ele>
  <time>2026-09-01T01:13:12Z</time>
  <course>187.49</course>
  <speed>0.03605551275463989</speed>
  <fix>3d</fix>
</trkpt>
<trkpt lat="33.810313" lon="-118.393867">
  <ele>-0.12</ele>
  <time>2026-09-01T01:13:12Z</time>
  <course>0.0</course>
  <speed>0.0</speed>
  <fix>3d</fix>
</trkpt>
<trkpt lat="33.810313" lon="-118.393867">
  <ele>-0.121</ele>
  <time>2026-09-01T01:13:12Z</time>
  <course>187.48</course>
  <speed>0.03605551275463989</speed>
  <fix>3d</fix>
</trkpt>
<trkpt lat="33.810313" lon="-118.393867">
  <ele>-0.12</ele>
  <time>2026-09-01T01:13:12Z</time>
  <course>0.0</course>
  <speed>0.0</speed>
  <fix>3d</fix>
</trkpt>
<trkpt lat="33.810313" lon="-118.393867">
  <ele>-0.122</ele>
  <time>2026-09-01T01:13:12Z</time>
  <course>187.47</course>
  <speed>0.03605551275463989</speed>
  <fix>3d</fix>
</trkpt>
<trkpt lat="33.810313" lon="-118.393867">
  <ele>-0.12</ele>
  <time>2026-09-01T01:13:12Z</time>
  <course>0.0</course>
  <speed>0.0</speed>
  <fix>3d</fix>
</trkpt>
<trkpt lat="33.810313" lon="-118.393867">
  <ele>-0.124</ele>
  <time>2026-09-01T01:13:12Z</time>
  <course>187.47</course>
  <speed>0.03605551275463989</speed>
  <fix>3d</fix>
</trkpt>
<trkpt lat="33.810313" lon="-118.393867">
  <ele>-0.12</ele>
  <time>2026-09-01T01:13:12Z</time>
  <course>0.0</course>
  <speed>0.0</speed>
  <fix>3d</fix>
</trkpt>
<trkpt lat="33.810313" lon="-118.393867">
  <ele>-0.127</ele>
  <time>2026-09-01T01:13:12Z</time>
  <course>187.46</course>
  <speed>0.03605551275463989</speed>
  <fix>3d</fix>
</trkpt>
<trkpt lat="33.810313" lon="-118.393867">
  <ele>-0.12</ele>
  <time>2026-09-01T01:13:12Z</time>
  <course>0.0</course>
  <speed>0.0</speed>
  <fix>3d</fix>
</trkpt>
<trkpt lat="33.810313" lon="-118.393867">
  <ele>-0.129</ele>
  <time>2026-09-01T01:13:12Z</time>
  <course>187.45</course>
  <speed>0.03605551275463989</speed>
  <fix>3d</fix>
</trkpt>
<trkpt lat="33.810313" lon="-118.393867">
  <ele>-0.12</ele>
  <time>2026-09-01T01:13:12Z</time>
  <course>0.0</course>
  <speed>0.0</speed>
  <fix>3d</fix>
</trkpt>
<trkpt lat="33.810313" lon="-118.393867">
  <ele>-0.131</ele>
  <time>2026-09-01T01:13:12Z</time>
  <course>187.45</course>
  <speed>0.03605551275463989</speed>
  <fix>3d</fix>
</trkpt>
<trkpt lat="33.810313" lon="-118.393867">
  <ele>-0.12</ele>
  <time>2026-09-01T01:13:12Z</time>
  <course>0.0</course>
  <speed>0.0</speed>
  <fix>3d</fix>
</trkpt>
<trkpt lat="33.810313" lon="-118.393867">
  <ele>-0.132</ele>
  <time>2026-09-01T01:13:12Z</time>
  <course>187.44</course>
  <speed>0.03605551275463989</speed>
  <fix>3d</fix>
</trkpt>
<trkpt lat="33.810313" lon="-118.393867">
  <ele>-0.12</ele>
  <time>2026-09-01T01:13:12Z</time>
  <course>0.0</course>
  <speed>0.0</speed>
  <fix>3d</fix>
</trkpt>
<trkpt lat="33.810313" lon="-118.393867">
  <ele>-0.132</ele>
  <time>2026-09-01T01:13:12Z</time>
  <course>187.44</course>
  <speed>0.03605551275463989</speed>
  <fix>3d</fix>
</trkpt>
<trkpt lat="33.810313" lon="-118.393867">
  <ele>-0.12</ele>
  <time>2026-09-01T01:13:12Z</time>
  <course>0.0</course>
  <speed>0.0</speed>
  <fix>3d</fix>
</trkpt>
<trkpt lat="33.810313" lon="-118.393867">
  <ele>-0.132</ele>
  <time>2026-09-01T01:13:12Z</time>
  <course>187.43</course>
  <speed>0.03605551275463989</speed>
  <fix>3d</fix>
</trkpt>
<trkpt lat="33.810313" lon="-118.393867">
  <ele>-0.12</ele>
  <time>2026-09-01T01:13:12Z</time>
  <course>0.0</course>
  <speed>0.0</speed>
  <fix>3d</fix>
</trkpt>
<trkpt lat="33.810313" lon="-118.393867">
  <ele>-0.132</ele>
  <time>2026-09-01T01:13:12Z</time>
  <course>187.42</course>
  <speed>0.03605551275463989</speed>
  <fix>3d</fix>
</trkpt>
<trkpt lat="33.810313" lon="-118.393867">
  <ele>-0.12</ele>
  <time>2026-09-01T01:13:12Z</time>
  <course>0.0</course>
  <speed>0.0</speed>
  <fix>3d</fix>
</trkpt>
<trkpt lat="33.810313" lon="-118.393867">
  <ele>-0.131</ele>
  <time>2026-09-01T01:13:12Z</time>
  <course>187.42</course>
  <speed>0.03605551275463989</speed>
  <fix>3d</fix>
</trkpt>
<trkpt lat="33.810313" lon="-118.393867">
  <ele>-0.12</ele>
  <time>2026-09-01T01:13:12Z</time>
  <course>0.0</course>
  <speed>0.0</speed>
  <fix>3d</fix>
</trkpt>
<trkpt lat="33.810313" lon="-118.393867">
  <ele>-0.131</ele>
  <time>2026-09-01T01:13:12Z</time>
  <course>187.41</course>
  <speed>0.03605551275463989</speed>
  <fix>3d</fix>
</trkpt>
<trkpt lat="33.810313" lon="-118.393867">
  <ele>-0.12</ele>
  <time>2026-09-01T01:13:12Z</time>
  <course>0.0</course>
  <speed>0.0</speed>
  <fix>3d</fix>
</trkpt>
<trkpt lat="33.810313" lon="-118.393867">
  <ele>-0.132</ele>
  <time>2026-09-01T01:13:12Z</time>
  <course>187.41</course>
  <speed>0.03605551275463989</speed>
  <fix>3d</fix>
</trkpt>
<trkpt lat="33.810313" lon="-118.393867">
  <ele>-0.12</ele>
  <time>2026-09-01T01:13:12Z</time>
  <course>0.0</course>
  <speed>0.0</speed>
  <fix>3d</fix>
</trkpt>
<trkpt lat="33.810313" lon="-118.393867">
  <ele>-0.134</ele>
  <time>2026-09-01T01:13:12Z</time>
  <course>187.4</course>
  <speed>0.03605551275463989</speed>
  <fix>3d</fix>
</trkpt>
<trkpt lat="33.810313" lon="-118.393867">
  <ele>-0.12</ele>
  <time>2026-09-01T01:13:12Z</time>
  <course>0.0</course>
  <speed>0.0</speed>
  <fix>3d</fix>
</trkpt>
<trkpt lat="33.810313" lon="-118.393867">
  <ele>-0.137</ele>
  <time>2026-09-01T01:13:12Z</time>
  <course>187.39</course>
  <speed>0.03605551275463989</speed>
  <fix>3d</fix>
</trkpt>
<trkpt lat="33.810313" lon="-118.393867">
  <ele>-0.12</ele>
  <time>2026-09-01T01:13:12Z</time>
  <course>0.0</course>
  <speed>0.0</speed>
  <fix>3d</fix>
</trkpt>
<trkpt lat="33.810313" lon="-118.393867">
  <ele>-0.139</ele>
  <time>2026-09-01T01:13:12Z</time>
  <course>187.39</course>
  <speed>0.03605551275463989</speed>
  <fix>3d</fix>
</trkpt>
<trkpt lat="33.810313" lon="-118.393867">
  <ele>-0.12</ele>
  <time>2026-09-01T01:13:12Z</time>
  <course>0.0</course>
  <speed>0.0</speed>
  <fix>3d</fix>
</trkpt>
<trkpt lat="33.810313" lon="-118.393867">
  <ele>-0.141</ele>
  <time>2026-09-01T01:13:12Z</time>
  <course>187.38</course>
  <speed>0.03605551275463989</speed>
  <fix>3d</fix>
</trkpt>
<trkpt lat="33.810313" lon="-118.393867">
  <ele>-0.12</ele>
  <time>2026-09-01T01:13:12Z</time>
  <course>0.0</course>
  <speed>0.0</speed>
  <fix>3d</fix>
</trkpt>
<trkpt lat="33.810313" lon="-118.393867">
  <ele>-0.141</ele>
  <time>2026-09-01T01:13:12Z</time>
  <course>187.38</course>
  <speed>0.03605551275463989</speed>
  <fix>3d</fix>
</trkpt>
<trkpt lat="33.810313" lon="-118.393867">
  <ele>-0.12</ele>
  <time>2026-09-01T01:13:12Z</time>
  <course>0.0</course>
  <speed>0.0</speed>
  <fix>3d</fix>
</trkpt>
<trkpt lat="33.810313" lon="-118.393867">
  <ele>-0.139</ele>
  <time>2026-09-01T01:13:12Z</time>
  <course>187.37</course>
  <speed>0.03605551275463989</speed>
  <fix>3d</fix>
</trkpt>
<trkpt lat="33.810313" lon="-118.393867">
  <ele>-0.12</ele>
  <time>2026-09-01T01:13:12Z</time>
  <course>0.0</course>
  <speed>0.0</speed>
  <fix>3d</fix>
</trkpt>
<trkpt lat="33.810313" lon="-118.393867">
  <ele>-0.136</ele>
  <time>2026-09-01T01:13:12Z</time>
  <course>187.36</course>
  <speed>0.03605551275463989</speed>
  <fix>3d</fix>
</trkpt>
<trkpt lat="33.810313" lon="-118.393867">
  <ele>-0.12</ele>
  <time>2026-09-01T01:13:12Z</time>
  <course>0.0</course>
  <speed>0.0</speed>
  <fix>3d</fix>
</trkpt>
<trkpt lat="33.810313" lon="-118.393867">
  <ele>-0.132</ele>
  <time>2026-09-01T01:13:12Z</time>
  <course>187.36</course>
  <speed>0.03605551275463989</speed>
  <fix>3d</fix>
</trkpt>
<trkpt lat="33.810313" lon="-118.393867">
  <ele>-0.12</ele>
  <time>2026-09-01T01:13:12Z</time>
  <course>0.0</course>
  <speed>0.0</speed>
  <fix>3d</fix>
</trkpt>
<trkpt lat="33.810313" lon="-118.393867">
  <ele>-0.129</ele>
  <time>2026-09-01T01:13:12Z</time>
  <course>187.35</course>
  <speed>0.03605551275463989</speed>
  <fix>3d</fix>
</trkpt>
<trkpt lat="33.810313" lon="-118.393867">
  <ele>-0.12</ele>
  <time>2026-09-01T01:13:12Z</time>
  <course>0.0</course>
  <speed>0.0</speed>
  <fix>3d</fix>
</trkpt>
<trkpt lat="33.810313" lon="-118.393867">
  <ele>-0.127</ele>
  <time>2026-09-01T01:13:12Z</time>
  <course>187.35</course>
  <speed>0.03605551275463989</speed>
  <fix>3d</fix>
</trkpt>
<trkpt lat="33.810313" lon="-118.393867">
  <ele>-0.12</ele>
  <time>2026-09-01T01:13:12Z</time>
  <course>0.0</course>
  <speed>0.0</speed>
  <fix>3d</fix>
</trkpt>
<trkpt lat="33.810313" lon="-118.393867">
  <ele>-0.126</ele>
  <time>2026-09-01T01:13:12Z</time>
  <course>187.34</course>
  <speed>0.03605551275463989</speed>
  <fix>3d</fix>
</trkpt>
<trkpt lat="33.810313" lon="-118.393867">
  <ele>-0.12</ele>
  <time>2026-09-01T01:13:12Z</time>
  <course>0.0</course>
  <speed>0.0</speed>
  <fix>3d</fix>
</trkpt>
<trkpt lat="33.810313" lon="-118.393867">
  <ele>-0.126</ele>
  <time>2026-09-01T01:13:12Z</time>
  <course>187.33</course>
  <speed>0.03605551275463989</speed>
  <fix>3d</fix>
</trkpt>
<trkpt lat="33.810313" lon="-118.393867">
  <ele>-0.12</ele>
  <time>2026-09-01T01:13:12Z</time>
  <course>0.0</course>
  <speed>0.0</speed>
  <fix>3d</fix>
</trkpt>
<trkpt lat="33.810313" lon="-118.393867">
  <ele>-0.127</ele>
  <time>2026-09-01T01:13:12Z</time>
  <course>187.33</course>
  <speed>0.03605551275463989</speed>
  <fix>3d</fix>
</trkpt>
<trkpt lat="33.810313" lon="-118.393867">
  <ele>-0.12</ele>
  <time>2026-09-01T01:13:12Z</time>
  <course>0.0</course>
  <speed>0.0</speed>
  <fix>3d</fix>
</trkpt>
<trkpt lat="33.810313" lon="-118.393867">
  <ele>-0.126</ele>
  <time>2026-09-01T01:13:12Z</time>
  <course>187.32</course>
  <speed>0.03605551275463989</speed>
  <fix>3d</fix>
</trkpt>
<trkpt lat="33.810313" lon="-118.393867">
  <ele>-0.12</ele>
  <time>2026-09-01T01:13:12Z</time>
  <course>0.0</course>
  <speed>0.0</speed>
  <fix>3d</fix>
</trkpt>
<trkpt lat="33.810313" lon="-118.393867">
  <ele>-0.126</ele>
  <time>2026-09-01T01:13:12Z</time>
  <course>187.32</course>
  <speed>0.03605551275463989</speed>
  <fix>3d</fix>
</trkpt>
<trkpt lat="33.810313" lon="-118.393867">
  <ele>-0.12</ele>
  <time>2026-09-01T01:13:12Z</time>
  <course>0.0</course>
  <speed>0.0</speed>
  <fix>3d</fix>
</trkpt>
<trkpt lat="33.810313" lon="-118.393867">
  <ele>-0.125</ele>
  <time>2026-09-01T01:13:12Z</time>
  <course>187.31</course>
  <speed>0.03605551275463989</speed>
  <fix>3d</fix>
</trkpt>
<trkpt lat="33.810313" lon="-118.393867">
  <ele>-0.12</ele>
  <time>2026-09-01T01:13:12Z</time>
  <course>0.0</course>
  <speed>0.0</speed>
  <fix>3d</fix>
</trkpt>
<trkpt lat="33.810313" lon="-118.393867">
  <ele>-0.124</ele>
  <time>2026-09-01T01:13:12Z</time>
  <course>187.31</course>
  <speed>0.03605551275463989</speed>
  <fix>3d</fix>
</trkpt>
<trkpt lat="33.810313" lon="-118.393867">
  <ele>-0.12</ele>
  <time>2026-09-01T01:13:12Z</time>
  <course>0.0</course>
  <speed>0.0</speed>
  <fix>3d</fix>
</trkpt>
<trkpt lat="33.810313" lon="-118.393867">
  <ele>-0.122</ele>
  <time>2026-09-01T01:13:12Z</time>
  <course>187.3</course>
  <speed>0.03605551275463989</speed>
  <fix>3d</fix>
</trkpt>
<trkpt lat="33.810313" lon="-118.393867">
  <ele>-0.12</ele>
  <time>2026-09-01T01:13:12Z</time>
  <course>0.0</course>
  <speed>0.0</speed>
  <fix>3d</fix>
</trkpt>
<trkpt lat="33.810313" lon="-118.393867">
  <ele>-0.121</ele>
  <time>2026-09-01T01:13:12Z</time>
  <course>187.29</course>
  <speed>0.03605551275463989</speed>
  <fix>3d</fix>
</trkpt>
<trkpt lat="33.810313" lon="-118.393867">
  <ele>-0.12</ele>
  <time>2026-09-01T01:13:12Z</time>
  <course>0.0</course>
  <speed>0.0</speed>
  <fix>3d</fix>
</trkpt>
<trkpt lat="33.810313" lon="-118.393867">
  <ele>-0.122</ele>
  <time>2026-09-01T01:13:12Z</time>
  <course>187.29</course>
  <speed>0.03605551275463989</speed>
  <fix>3d</fix>
</trkpt>
<trkpt lat="33.810313" lon="-118.393867">
  <ele>-0.12</ele>
  <time>2026-09-01T01:13:12Z</time>
  <course>0.0</course>
  <speed>0.0</speed>
  <fix>3d</fix>
</trkpt>
<trkpt lat="33.810313" lon="-118.393867">
  <ele>-0.124</ele>
  <time>2026-09-01T01:13:12Z</time>
  <course>187.28</course>
  <speed>0.03605551275463989</speed>
  <fix>3d</fix>
</trkpt>
<trkpt lat="33.810313" lon="-118.393867">
  <ele>-0.12</ele>
  <time>2026-09-01T01:13:12Z</time>
  <course>0.0</course>
  <speed>0.0</speed>
  <fix>3d</fix>
</trkpt>
<trkpt lat="33.810313" lon="-118.393867">
  <ele>-0.128</ele>
  <time>2026-09-01T01:13:12Z</time>
  <course>187.28</course>
  <speed>0.03605551275463989</speed>
  <fix>3d</fix>
</trkpt>
<trkpt lat="33.810313" lon="-118.393867">
  <ele>-0.12</ele>
  <time>2026-09-01T01:13:12Z</time>
  <course>0.0</course>
  <speed>0.0</speed>
  <fix>3d</fix>
</trkpt>
<trkpt lat="33.810313" lon="-118.393867">
  <ele>-0.13</ele>
  <time>2026-09-01T01:13:12Z</time>
  <course>187.27</course>
  <speed>0.03605551275463989</speed>
  <fix>3d</fix>
</trkpt>
<trkpt lat="33.810313" lon="-118.393867">
  <ele>-0.12</ele>
  <time>2026-09-01T01:13:12Z</time>
  <course>0.0</course>
  <speed>0.0</speed>
  <fix>3d</fix>
</trkpt>
<trkpt lat="33.810313" lon="-118.393867">
  <ele>-0.133</ele>
  <time>2026-09-01T01:13:12Z</time>
  <course>187.27</course>
  <speed>0.03605551275463989</speed>
  <fix>3d</fix>
</trkpt>
<trkpt lat="33.810313" lon="-118.393867">
  <ele>-0.12</ele>
  <time>2026-09-01T01:13:12Z</time>
  <course>0.0</course>
  <speed>0.0</speed>
  <fix>3d</fix>
</trkpt>
<trkpt lat="33.810313" lon="-118.393867">
  <ele>-0.135</ele>
  <time>2026-09-01T01:13:12Z</time>
  <course>187.26</course>
  <speed>0.03605551275463989</speed>
  <fix>3d</fix>
</trkpt>
<trkpt lat="33.810313" lon="-118.393867">
  <ele>-0.12</ele>
  <time>2026-09-01T01:13:12Z</time>
  <course>0.0</course>
  <speed>0.0</speed>
  <fix>3d</fix>
</trkpt>
<trkpt lat="33.810313" lon="-118.393867">
  <ele>-0.136</ele>
  <time>2026-09-01T01:13:12Z</time>
  <course>187.26</course>
  <speed>0.03605551275463989</speed>
  <fix>3d</fix>
</trkpt>
<trkpt lat="33.810313" lon="-118.393867">
  <ele>-0.12</ele>
  <time>2026-09-01T01:13:12Z</time>
  <course>0.0</course>
  <speed>0.0</speed>
  <fix>3d</fix>
</trkpt>
<trkpt lat="33.810313" lon="-118.393867">
  <ele>-0.136</ele>
  <time>2026-09-01T01:13:12Z</time>
  <course>187.25</course>
  <speed>0.03605551275463989</speed>
  <fix>3d</fix>
</trkpt>
<trkpt lat="33.810313" lon="-118.393867">
  <ele>-0.12</ele>
  <time>2026-09-01T01:13:12Z</time>
  <course>0.0</course>
  <speed>0.0</speed>
  <fix>3d</fix>
</trkpt>
<trkpt lat="33.810313" lon="-118.393867">
  <ele>-0.135</ele>
  <time>2026-09-01T01:13:12Z</time>
  <course>187.25</course>
  <speed>0.03605551275463989</speed>
  <fix>3d</fix>
</trkpt>
<trkpt lat="33.810313" lon="-118.393867">
  <ele>-0.12</ele>
  <time>2026-09-01T01:13:12Z</time>
  <course>0.0</course>
  <speed>0.0</speed>
  <fix>3d</fix>
</trkpt>
<trkpt lat="33.810313" lon="-118.393867">
  <ele>-0.134</ele>
  <time>2026-09-01T01:13:12Z</time>
  <course>187.24</course>
  <speed>0.03605551275463989</speed>
  <fix>3d</fix>
</trkpt>
<trkpt lat="33.810313" lon="-118.393867">
  <ele>-0.12</ele>
  <time>2026-09-01T01:13:12Z</time>
  <course>0.0</course>
  <speed>0.0</speed>
  <fix>3d</fix>
</trkpt>
<trkpt lat="33.810313" lon="-118.393867">
  <ele>-0.132</ele>
  <time>2026-09-01T01:13:12Z</time>
  <course>187.24</course>
  <speed>0.03605551275463989</speed>
  <fix>3d</fix>
</trkpt>
<trkpt lat="33.810313" lon="-118.393867">
  <ele>-0.12</ele>
  <time>2026-09-01T01:13:12Z</time>
  <course>0.0</course>
  <speed>0.0</speed>
  <fix>3d</fix>
</trkpt>
<trkpt lat="33.810313" lon="-118.393867">
  <ele>-0.131</ele>
  <time>2026-09-01T01:13:12Z</time>
  <course>187.23</course>
  <speed>0.03605551275463989</speed>
  <fix>3d</fix>
</trkpt>
<trkpt lat="33.810313" lon="-118.393867">
  <ele>-0.12</ele>
  <time>2026-09-01T01:13:12Z</time>
  <course>0.0</course>
  <speed>0.0</speed>
  <fix>3d</fix>
</trkpt>
<trkpt lat="33.810313" lon="-118.393867">
  <ele>-0.131</ele>
  <time>2026-09-01T01:13:12Z</time>
  <course>187.22</course>
  <speed>0.03605551275463989</speed>
  <fix>3d</fix>
</trkpt>
<trkpt lat="33.810313" lon="-118.393867">
  <ele>-0.12</ele>
  <time>2026-09-01T01:13:12Z</time>
  <course>0.0</course>
  <speed>0.0</speed>
  <fix>3d</fix>
</trkpt>
<trkpt lat="33.810313" lon="-118.393867">
  <ele>-0.132</ele>
  <time>2026-09-01T01:13:12Z</time>
  <course>187.22</course>
  <speed>0.03605551275463989</speed>
  <fix>3d</fix>
</trkpt>
<trkpt lat="33.810313" lon="-118.393867">
  <ele>-0.12</ele>
  <time>2026-09-01T01:13:12Z</time>
  <course>0.0</course>
  <speed>0.0</speed>
  <fix>3d</fix>
</trkpt>
<trkpt lat="33.810313" lon="-118.393867">
  <ele>-0.132</ele>
  <time>2026-09-01T01:13:12Z</time>
  <course>187.21</course>
  <speed>0.03605551275463989</speed>
  <fix>3d</fix>
</trkpt>
<trkpt lat="33.810313" lon="-118.393867">
  <ele>-0.12</ele>
  <time>2026-09-01T01:13:12Z</time>
  <course>0.0</course>
  <speed>0.0</speed>
  <fix>3d</fix>
</trkpt>
<trkpt lat="33.810313" lon="-118.393867">
  <ele>-0.133</ele>
  <time>2026-09-01T01:13:12Z</time>
  <course>187.21</course>
  <speed>0.03605551275463989</speed>
  <fix>3d</fix>
</trkpt>
<trkpt lat="33.810313" lon="-118.393867">
  <ele>-0.12</ele>
  <time>2026-09-01T01:13:12Z</time>
  <course>0.0</course>
  <speed>0.0</speed>
  <fix>3d</fix>
</trkpt>
<trkpt lat="33.810313" lon="-118.393867">
  <ele>-0.132</ele>
  <time>2026-09-01T01:13:12Z</time>
  <course>187.2</course>
  <speed>0.03605551275463989</speed>
  <fix>3d</fix>
</trkpt>
<trkpt lat="33.810313" lon="-118.393867">
  <ele>-0.12</ele>
  <time>2026-09-01T01:13:12Z</time>
  <course>0.0</course>
  <speed>0.0</speed>
  <fix>3d</fix>
</trkpt>
<trkpt lat="33.810313" lon="-118.393867">
  <ele>-0.131</ele>
  <time>2026-09-01T01:13:12Z</time>
  <course>187.2</course>
  <speed>0.03605551275463989</speed>
  <fix>3d</fix>
</trkpt>
<trkpt lat="33.810313" lon="-118.393867">
  <ele>-0.12</ele>
  <time>2026-09-01T01:13:12Z</time>
  <course>0.0</course>
  <speed>0.0</speed>
  <fix>3d</fix>
</trkpt>
<trkpt lat="33.810313" lon="-118.393867">
  <ele>-0.129</ele>
  <time>2026-09-01T01:13:12Z</time>
  <course>187.19</course>
  <speed>0.03605551275463989</speed>
  <fix>3d</fix>
</trkpt>
<trkpt lat="33.810313" lon="-118.393867">
  <ele>-0.12</ele>
  <time>2026-09-01T01:13:12Z</time>
  <course>0.0</course>
  <speed>0.0</speed>
  <fix>3d</fix>
</trkpt>
<trkpt lat="33.810313" lon="-118.393867">
  <ele>-0.126</ele>
  <time>2026-09-01T01:13:12Z</time>
  <course>187.19</course>
  <speed>0.03605551275463989</speed>
  <fix>3d</fix>
</trkpt>
<trkpt lat="33.810313" lon="-118.393867">
  <ele>-0.12</ele>
  <time>2026-09-01T01:13:12Z</time>
  <course>0.0</course>
  <speed>0.0</speed>
  <fix>3d</fix>
</trkpt>
<trkpt lat="33.810313" lon="-118.393867">
  <ele>-0.124</ele>
  <time>2026-09-01T01:13:12Z</time>
  <course>187.18</course>
  <speed>0.03605551275463989</speed>
  <fix>3d</fix>
</trkpt>
<trkpt lat="33.810313" lon="-118.393867">
  <ele>-0.12</ele>
  <time>2026-09-01T01:13:12Z</time>
  <course>0.0</course>
  <speed>0.0</speed>
  <fix>3d</fix>
</trkpt>
<trkpt lat="33.810313" lon="-118.393867">
  <ele>-0.123</ele>
  <time>2026-09-01T01:13:12Z</time>
  <course>187.18</course>
  <speed>0.03605551275463989</speed>
  <fix>3d</fix>
</trkpt>
<trkpt lat="33.810313" lon="-118.393867">
  <ele>-0.12</ele>
  <time>2026-09-01T01:13:12Z</time>
  <course>0.0</course>
  <speed>0.0</speed>
  <fix>3d</fix>
</trkpt>
<trkpt lat="33.810313" lon="-118.393867">
  <ele>-0.123</ele>
  <time>2026-09-01T01:13:12Z</time>
  <course>187.17</course>
  <speed>0.03605551275463989</speed>
  <fix>3d</fix>
</trkpt>
<trkpt lat="33.810313" lon="-118.393867">
  <ele>-0.12</ele>
  <time>2026-09-01T01:13:12Z</time>
  <course>0.0</course>
  <speed>0.0</speed>
  <fix>3d</fix>
</trkpt>
<trkpt lat="33.810313" lon="-118.393867">
  <ele>-0.122</ele>
  <time>2026-09-01T01:13:12Z</time>
  <course>187.17</course>
  <speed>0.0</speed>
  <fix>3d</fix>
</trkpt>
<trkpt lat="33.810313" lon="-118.393867">
  <ele>-0.12</ele>
  <time>2026-09-01T01:13:12Z</time>
  <course>0.0</course>
  <speed>0.0</speed>
  <fix>3d</fix>
</trkpt>
<trkpt lat="33.810313" lon="-118.393867">
  <ele>-0.121</ele>
  <time>2026-09-01T01:13:12Z</time>
  <course>187.16</course>
  <speed>0.0</speed>
  <fix>3d</fix>
</trkpt>
<trkpt lat="33.810313" lon="-118.393867">
  <ele>-0.12</ele>
  <time>2026-09-01T01:13:12Z</time>
  <course>0.0</course>
  <speed>0.0</speed>
  <fix>3d</fix>
</trkpt>
<trkpt lat="33.810313" lon="-118.393867">
  <ele>-0.12</ele>
  <time>2026-09-01T01:13:12Z</time>
  <course>187.16</course>
  <speed>0.0</speed>
  <fix>3d</fix>
</trkpt>
<trkpt lat="33.810313" lon="-118.393867">
  <ele>-0.12</ele>
  <time>2026-09-01T01:13:12Z</time>
  <course>0.0</course>
  <speed>0.0</speed>
  <fix>3d</fix>
</trkpt>
<trkpt lat="33.810313" lon="-118.393867">
  <ele>-0.119</ele>
  <time>2026-09-01T01:13:12Z</time>
  <course>187.15</course>
  <speed>0.0</speed>
  <fix>3d</fix>
</trkpt>
<trkpt lat="33.810313" lon="-118.393867">
  <ele>-0.12</ele>
  <time>2026-09-01T01:13:12Z</time>
  <course>0.0</course>
  <speed>0.0</speed>
  <fix>3d</fix>
</trkpt>
<trkpt lat="33.810313" lon="-118.393867">
  <ele>-0.116</ele>
  <time>2026-09-01T01:13:12Z</time>
  <course>187.15</course>
  <speed>0.0</speed>
  <fix>3d</fix>
</trkpt>
<trkpt lat="33.810313" lon="-118.393867">
  <ele>-0.12</ele>
  <time>2026-09-01T01:13:12Z</time>
  <course>0.0</course>
  <speed>0.0</speed>
  <fix>3d</fix>
</trkpt>
<trkpt lat="33.810313" lon="-118.393867">
  <ele>-0.114</ele>
  <time>2026-09-01T01:13:12Z</time>
  <course>187.14</course>
  <speed>0.0</speed>
  <fix>3d</fix>
</trkpt>
<trkpt lat="33.810313" lon="-118.393867">
  <ele>-0.12</ele>
  <time>2026-09-01T01:13:12Z</time>
  <course>0.0</course>
  <speed>0.0</speed>
  <fix>3d</fix>
</trkpt>
<trkpt lat="33.810313" lon="-118.393867">
  <ele>-0.113</ele>
  <time>2026-09-01T01:13:12Z</time>
  <course>187.14</course>
  <speed>0.0</speed>
  <fix>3d</fix>
</trkpt>
<trkpt lat="33.810313" lon="-118.393867">
  <ele>-0.12</ele>
  <time>2026-09-01T01:13:12Z</time>
  <course>0.0</course>
  <speed>0.0</speed>
  <fix>3d</fix>
</trkpt>
<trkpt lat="33.810313" lon="-118.393867">
  <ele>-0.112</ele>
  <time>2026-09-01T01:13:12Z</time>
  <course>187.13</course>
  <speed>0.0</speed>
  <fix>3d</fix>
</trkpt>
<trkpt lat="33.810313" lon="-118.393867">
  <ele>-0.12</ele>
  <time>2026-09-01T01:13:12Z</time>
  <course>0.0</course>
  <speed>0.0</speed>
  <fix>3d</fix>
</trkpt>
<trkpt lat="33.810313" lon="-118.393867">
  <ele>-0.113</ele>
  <time>2026-09-01T01:13:12Z</time>
  <course>187.13</course>
  <speed>0.0</speed>
  <fix>3d</fix>
</trkpt>
<trkpt lat="33.810313" lon="-118.393867">
  <ele>-0.12</ele>
  <time>2026-09-01T01:13:12Z</time>
  <course>0.0</course>
  <speed>0.0</speed>
  <fix>3d</fix>
</trkpt>
<trkpt lat="33.810313" lon="-118.393867">
  <ele>-0.114</ele>
  <time>2026-09-01T01:13:12Z</time>
  <course>187.12</course>
  <speed>0.0</speed>
  <fix>3d</fix>
</trkpt>
<trkpt lat="33.810313" lon="-118.393867">
  <ele>-0.12</ele>
  <time>2026-09-01T01:13:12Z</time>
  <course>0.0</course>
  <speed>0.0</speed>
  <fix>3d</fix>
</trkpt>
<trkpt lat="33.810313" lon="-118.393867">
  <ele>-0.117</ele>
  <time>2026-09-01T01:13:12Z</time>
  <course>187.12</course>
  <speed>0.0</speed>
  <fix>3d</fix>
</trkpt>
<trkpt lat="33.810313" lon="-118.393867">
  <ele>-0.12</ele>
  <time>2026-09-01T01:13:12Z</time>
  <course>0.0</course>
  <speed>0.0</speed>
  <fix>3d</fix>
</trkpt>
<trkpt lat="33.810313" lon="-118.393867">
  <ele>-0.119</ele>
  <time>2026-09-01T01:13:12Z</time>
  <course>187.11</course>
  <speed>0.01</speed>
  <fix>3d</fix>
</trkpt>
<trkpt lat="33.810313" lon="-118.393867">
  <ele>-0.12</ele>
  <time>2026-09-01T01:13:12Z</time>
  <course>0.0</course>
  <speed>0.0</speed>
  <fix>3d</fix>
</trkpt>
<trkpt lat="33.810313" lon="-118.393867">
  <ele>-0.12</ele>
  <time>2026-09-01T01:13:12Z</time>
  <course>187.11</course>
  <speed>0.01</speed>
  <fix>3d</fix>
</trkpt>
<trkpt lat="33.810313" lon="-118.393867">
  <ele>-0.12</ele>
  <time>2026-09-01T01:13:12Z</time>
  <course>0.0</course>
  <speed>0.0</speed>
  <fix>3d</fix>
</trkpt>
<trkpt lat="33.810313" lon="-118.393867">
  <ele>-0.121</ele>
  <time>2026-09-01T01:13:12Z</time>
  <course>187.1</course>
  <speed>0.01</speed>
  <fix>3d</fix>
</trkpt>
<trkpt lat="33.810313" lon="-118.393867">
  <ele>-0.12</ele>
  <time>2026-09-01T01:13:12Z</time>
  <course>0.0</course>
  <speed>0.0</speed>
  <fix>3d</fix>
</trkpt>
<trkpt lat="33.810313" lon="-118.393867">
  <ele>-0.122</ele>
  <time>2026-09-01T01:13:12Z</time>
  <course>187.1</course>
  <speed>0.01414213562373095</speed>
  <fix>3d</fix>
</trkpt>
<trkpt lat="33.810313" lon="-118.393867">
  <ele>-0.12</ele>
  <time>2026-09-01T01:13:12Z</time>
  <course>0.0</course>
  <speed>0.0</speed>
  <fix>3d</fix>
</trkpt>
<trkpt lat="33.810313" lon="-118.393867">
  <ele>-0.122</ele>
  <time>2026-09-01T01:13:12Z</time>
  <course>187.09</course>
  <speed>0.01414213562373095</speed>
  <fix>3d</fix>
</trkpt>
<trkpt lat="33.810313" lon="-118.393867">
  <ele>-0.12</ele>
  <time>2026-09-01T01:13:12Z</time>
  <course>0.0</course>
  <speed>0.0</speed>
  <fix>3d</fix>
</trkpt>
<trkpt lat="33.810313" lon="-118.393867">
  <ele>-0.123</ele>
  <time>2026-09-01T01:13:12Z</time>
  <course>187.09</course>
  <speed>0.01414213562373095</speed>
  <fix>3d</fix>
</trkpt>
<trkpt lat="33.810313" lon="-118.393867">
  <ele>-0.12</ele>
  <time>2026-09-01T01:13:12Z</time>
  <course>0.0</course>
  <speed>0.0</speed>
  <fix>3d</fix>
</trkpt>
<trkpt lat="33.810313" lon="-118.393867">
  <ele>-0.124</ele>
  <time>2026-09-01T01:13:12Z</time>
  <course>187.08</course>
  <speed>0.01414213562373095</speed>
  <fix>3d</fix>
</trkpt>
<trkpt lat="33.810313" lon="-118.393867">
  <ele>-0.12</ele>
  <time>2026-09-01T01:13:12Z</time>
  <course>0.0</course>
  <speed>0.0</speed>
  <fix>3d</fix>
</trkpt>
<trkpt lat="33.810313" lon="-118.393867">
  <ele>-0.126</ele>
  <time>2026-09-01T01:13:12Z</time>
  <course>187.08</course>
  <speed>0.01414213562373095</speed>
  <fix>3d</fix>
</trkpt>
<trkpt lat="33.810313" lon="-118.393867">
  <ele>-0.12</ele>
  <time>2026-09-01T01:13:12Z</time>
  <course>0.0</course>
  <speed>0.0</speed>
  <fix>3d</fix>
</trkpt>
<trkpt lat="33.810313" lon="-118.393867">
  <ele>-0.128</ele>
  <time>2026-09-01T01:13:12Z</time>
  <course>187.07</course>
  <speed>0.01414213562373095</speed>
  <fix>3d</fix>
</trkpt>
<trkpt lat="33.810313" lon="-118.393867">
  <ele>-0.12</ele>
  <time>2026-09-01T01:13:12Z</time>
  <course>0.0</course>
  <speed>0.0</speed>
  <fix>3d</fix>
</trkpt>
<trkpt lat="33.810313" lon="-118.393867">
  <ele>-0.131</ele>
  <time>2026-09-01T01:13:12Z</time>
  <course>187.07</course>
  <speed>0.01414213562373095</speed>
  <fix>3d</fix>
</trkpt>
<trkpt lat="33.810313" lon="-118.393867">
  <ele>-0.12</ele>
  <time>2026-09-01T01:13:12Z</time>
  <course>0.0</course>
  <speed>0.0</speed>
  <fix>3d</fix>
</trkpt>
<trkpt lat="33.810313" lon="-118.393867">
  <ele>-0.134</ele>
  <time>2026-09-01T01:13:12Z</time>
  <course>187.06</course>
  <speed>0.01414213562373095</speed>
  <fix>3d</fix>
</trkpt>
<trkpt lat="33.810313" lon="-118.393867">
  <ele>-0.12</ele>
  <time>2026-09-01T01:13:12Z</time>
  <course>0.0</course>
  <speed>0.0</speed>
  <fix>3d</fix>
</trkpt>
<trkpt lat="33.810313" lon="-118.393867">
  <ele>-0.136</ele>
  <time>2026-09-01T01:13:12Z</time>
  <course>187.06</course>
  <speed>0.01414213562373095</speed>
  <fix>3d</fix>
</trkpt>
<trkpt lat="33.810313" lon="-118.393867">
  <ele>-0.12</ele>
  <time>2026-09-01T01:13:12Z</time>
  <course>0.0</course>
  <speed>0.0</speed>
  <fix>3d</fix>
</trkpt>
<trkpt lat="33.810313" lon="-118.393867">
  <ele>-0.137</ele>
  <time>2026-09-01T01:13:12Z</time>
  <course>187.06</course>
  <speed>0.01414213562373095</speed>
  <fix>3d</fix>
</trkpt>
<trkpt lat="33.810313" lon="-118.393867">
  <ele>-0.12</ele>
  <time>2026-09-01T01:13:12Z</time>
  <course>0.0</course>
  <speed>0.0</speed>
  <fix>3d</fix>
</trkpt>
<trkpt lat="33.810313" lon="-118.393867">
  <ele>-0.137</ele>
  <time>2026-09-01T01:13:12Z</time>
  <course>187.05</course>
  <speed>0.01414213562373095</speed>
  <fix>3d</fix>
</trkpt>
<trkpt lat="33.810313" lon="-118.393867">
  <ele>-0.12</ele>
  <time>2026-09-01T01:13:12Z</time>
  <course>0.0</course>
  <speed>0.0</speed>
  <fix>3d</fix>
</trkpt>
<trkpt lat="33.810313" lon="-118.393867">
  <ele>-0.135</ele>
  <time>2026-09-01T01:13:12Z</time>
  <course>187.05</course>
  <speed>0.01414213562373095</speed>
  <fix>3d</fix>
</trkpt>
<trkpt lat="33.810313" lon="-118.393867">
  <ele>-0.12</ele>
  <time>2026-09-01T01:13:12Z</time>
  <course>0.0</course>
  <speed>0.0</speed>
  <fix>3d</fix>
</trkpt>
<trkpt lat="33.810313" lon="-118.393867">
  <ele>-0.133</ele>
  <time>2026-09-01T01:13:12Z</time>
  <course>187.04</course>
  <speed>0.01414213562373095</speed>
  <fix>3d</fix>
</trkpt>
<trkpt lat="33.810313" lon="-118.393867">
  <ele>-0.12</ele>
  <time>2026-09-01T01:13:12Z</time>
  <course>0.0</course>
  <speed>0.0</speed>
  <fix>3d</fix>
</trkpt>
<trkpt lat="33.810313" lon="-118.393867">
  <ele>-0.131</ele>
  <time>2026-09-01T01:13:12Z</time>
  <course>187.04</course>
  <speed>0.01414213562373095</speed>
  <fix>3d</fix>
</trkpt>
<trkpt lat="33.810313" lon="-118.393867">
  <ele>-0.12</ele>
  <time>2026-09-01T01:13:12Z</time>
  <course>0.0</course>
  <speed>0.0</speed>
  <fix>3d</fix>
</trkpt>
<trkpt lat="33.810313" lon="-118.393867">
  <ele>-0.129</ele>
  <time>2026-09-01T01:13:12Z</time>
  <course>187.03</course>
  <speed>0.01414213562373095</speed>
  <fix>3d</fix>
</trkpt>
<trkpt lat="33.810313" lon="-118.393867">
  <ele>-0.12</ele>
  <time>2026-09-01T01:13:12Z</time>
  <course>0.0</course>
  <speed>0.0</speed>
  <fix>3d</fix>
</trkpt>
<trkpt lat="33.810313" lon="-118.393867">
  <ele>-0.129</ele>
  <time>2026-09-01T01:13:12Z</time>
  <course>187.03</course>
  <speed>0.01</speed>
  <fix>3d</fix>
</trkpt>
<trkpt lat="33.810313" lon="-118.393867">
  <ele>-0.12</ele>
  <time>2026-09-01T01:13:12Z</time>
  <course>0.0</course>
  <speed>0.0</speed>
  <fix>3d</fix>
</trkpt>
<trkpt lat="33.810313" lon="-118.393867">
  <ele>-0.128</ele>
  <time>2026-09-01T01:13:13Z</time>
  <course>187.02</course>
  <speed>0.01</speed>
  <fix>3d</fix>
</trkpt>
<trkpt lat="33.810313" lon="-118.393867">
  <ele>-0.12</ele>
  <time>2026-09-01T01:13:13Z</time>
  <course>0.0</course>
  <speed>0.0</speed>
  <fix>3d</fix>
</trkpt>
<trkpt lat="33.810313" lon="-118.393867">
  <ele>-0.129</ele>
  <time>2026-09-01T01:13:13Z</time>
  <course>187.02</course>
  <speed>0.01</speed>
  <fix>3d</fix>
</trkpt>
<trkpt lat="33.810313" lon="-118.393867">
  <ele>-0.12</ele>
  <time>2026-09-01T01:13:13Z</time>
  <course>0.0</course>
  <speed>0.0</speed>
  <fix>3d</fix>
</trkpt>
<trkpt lat="33.810313" lon="-118.393867">
  <ele>-0.13</ele>
  <time>2026-09-01T01:13:13Z</time>
  <course>187.01</course>
  <speed>0.01</speed>
  <fix>3d</fix>
</trkpt>
<trkpt lat="33.810313" lon="-118.393867">
  <ele>-0.12</ele>
  <time>2026-09-01T01:13:13Z</time>
  <course>0.0</course>
  <speed>0.0</speed>
  <fix>3d</fix>
</trkpt>
<trkpt lat="33.810313" lon="-118.393867">
  <ele>-0.131</ele>
  <time>2026-09-01T01:13:13Z</time>
  <course>187.01</course>
  <speed>0.01</speed>
  <fix>3d</fix>
</trkpt>
<trkpt lat="33.810313" lon="-118.393867">
  <ele>-0.12</ele>
  <time>2026-09-01T01:13:13Z</time>
  <course>0.0</course>
  <speed>0.0</speed>
  <fix>3d</fix>
</trkpt>
<trkpt lat="33.810313" lon="-118.393867">
  <ele>-0.13</ele>
  <time>2026-09-01T01:13:13Z</time>
  <course>187.0</course>
  <speed>0.0</speed>
  <fix>3d</fix>
</trkpt>
<trkpt lat="33.810313" lon="-118.393867">
  <ele>-0.12</ele>
  <time>2026-09-01T01:13:13Z</time>
  <course>0.0</course>
  <speed>0.0</speed>
  <fix>3d</fix>
</trkpt>
<trkpt lat="33.810313" lon="-118.393867">
  <ele>-0.13</ele>
  <time>2026-09-01T01:13:13Z</time>
  <course>187.0</course>
  <speed>0.0</speed>
  <fix>3d</fix>
</trkpt>
<trkpt lat="33.810313" lon="-118.393867">
  <ele>-0.12</ele>
  <time>2026-09-01T01:13:13Z</time>
  <course>0.0</course>
  <speed>0.0</speed>
  <fix>3d</fix>
</trkpt>
<trkpt lat="33.810313" lon="-118.393867">
  <ele>-0.129</ele>
  <time>2026-09-01T01:13:13Z</time>
  <course>186.99</course>
  <speed>0.0</speed>
  <fix>3d</fix>
</trkpt>
<trkpt lat="33.810313" lon="-118.393867">
  <ele>-0.12</ele>
  <time>2026-09-01T01:13:13Z</time>
  <course>0.0</course>
  <speed>0.0</speed>
  <fix>3d</fix>
</trkpt>
<trkpt lat="33.810313" lon="-118.393867">
  <ele>-0.128</ele>
  <time>2026-09-01T01:13:13Z</time>
  <course>186.99</course>
  <speed>0.0</speed>
  <fix>3d</fix>
</trkpt>
<trkpt lat="33.810313" lon="-118.393867">
  <ele>-0.12</ele>
  <time>2026-09-01T01:13:13Z</time>
  <course>0.0</course>
  <speed>0.0</speed>
  <fix>3d</fix>
</trkpt>
<trkpt lat="33.810313" lon="-118.393867">
  <ele>-0.128</ele>
  <time>2026-09-01T01:13:13Z</time>
  <course>186.98</course>
  <speed>0.0</speed>
  <fix>3d</fix>
</trkpt>
<trkpt lat="33.810313" lon="-118.393867">
  <ele>-0.12</ele>
  <time>2026-09-01T01:13:13Z</time>
  <course>0.0</course>
  <speed>0.0</speed>
  <fix>3d</fix>
</trkpt>
<trkpt lat="33.810313" lon="-118.393867">
  <ele>-0.128</ele>
  <time>2026-09-01T01:13:13Z</time>
  <course>186.98</course>
  <speed>0.0</speed>
  <fix>3d</fix>
</trkpt>
<trkpt lat="33.810313" lon="-118.393867">
  <ele>-0.12</ele>
  <time>2026-09-01T01:13:13Z</time>
  <course>0.0</course>
  <speed>0.0</speed>
  <fix>3d</fix>
</trkpt>
<trkpt lat="33.810313" lon="-118.393867">
  <ele>-0.129</ele>
  <time>2026-09-01T01:13:13Z</time>
  <course>186.97</course>
  <speed>0.0</speed>
  <fix>3d</fix>
</trkpt>
<trkpt lat="33.810313" lon="-118.393867">
  <ele>-0.12</ele>
  <time>2026-09-01T01:13:13Z</time>
  <course>0.0</course>
  <speed>0.0</speed>
  <fix>3d</fix>
</trkpt>
<trkpt lat="33.810313" lon="-118.393867">
  <ele>-0.132</ele>
  <time>2026-09-01T01:13:13Z</time>
  <course>186.97</course>
  <speed>0.0</speed>
  <fix>3d</fix>
</trkpt>
<trkpt lat="33.810313" lon="-118.393867">
  <ele>-0.12</ele>
  <time>2026-09-01T01:13:13Z</time>
  <course>0.0</course>
  <speed>0.0</speed>
  <fix>3d</fix>
</trkpt>
<trkpt lat="33.810313" lon="-118.393867">
  <ele>-0.133</ele>
  <time>2026-09-01T01:13:13Z</time>
  <course>186.96</course>
  <speed>0.0</speed>
  <fix>3d</fix>
</trkpt>
<trkpt lat="33.810313" lon="-118.393867">
  <ele>-0.12</ele>
  <time>2026-09-01T01:13:13Z</time>
  <course>0.0</course>
  <speed>0.0</speed>
  <fix>3d</fix>
</trkpt>
<trkpt lat="33.810313" lon="-118.393867">
  <ele>-0.134</ele>
  <time>2026-09-01T01:13:13Z</time>
  <course>186.96</course>
  <speed>0.0</speed>
  <fix>3d</fix>
</trkpt>
<trkpt lat="33.810313" lon="-118.393867">
  <ele>-0.12</ele>
  <time>2026-09-01T01:13:13Z</time>
  <course>0.0</course>
  <speed>0.0</speed>
  <fix>3d</fix>
</trkpt>
<trkpt lat="33.810313" lon="-118.393867">
  <ele>-0.132</ele>
  <time>2026-09-01T01:13:13Z</time>
  <course>186.95</course>
  <speed>0.0</speed>
  <fix>3d</fix>
</trkpt>
<trkpt lat="33.810313" lon="-118.393867">
  <ele>-0.12</ele>
  <time>2026-09-01T01:13:13Z</time>
  <course>0.0</course>
  <speed>0.0</speed>
  <fix>3d</fix>
</trkpt>
<trkpt lat="33.810313" lon="-118.393867">
  <ele>-0.131</ele>
  <time>2026-09-01T01:13:13Z</time>
  <course>186.95</course>
  <speed>0.0</speed>
  <fix>3d</fix>
</trkpt>
<trkpt lat="33.810313" lon="-118.393867">
  <ele>-0.12</ele>
  <time>2026-09-01T01:13:13Z</time>
  <course>0.0</course>
  <speed>0.0</speed>
  <fix>3d</fix>
</trkpt>
<trkpt lat="33.810313" lon="-118.393867">
  <ele>-0.13</ele>
  <time>2026-09-01T01:13:13Z</time>
  <course>186.94</course>
  <speed>0.0</speed>
  <fix>3d</fix>
</trkpt>
<trkpt lat="33.810313" lon="-118.393867">
  <ele>-0.12</ele>
  <time>2026-09-01T01:13:13Z</time>
  <course>0.0</course>
  <speed>0.0</speed>
  <fix>3d</fix>
</trkpt>
<trkpt lat="33.810313" lon="-118.393867">
  <ele>-0.129</ele>
  <time>2026-09-01T01:13:13Z</time>
  <course>186.94</course>
  <speed>0.0</speed>
  <fix>3d</fix>
</trkpt>
<trkpt lat="33.810313" lon="-118.393867">
  <ele>-0.12</ele>
  <time>2026-09-01T01:13:13Z</time>
  <course>0.0</course>
  <speed>0.0</speed>
  <fix>3d</fix>
</trkpt>
<trkpt lat="33.810313" lon="-118.393867">
  <ele>-0.128</ele>
  <time>2026-09-01T01:13:13Z</time>
  <course>186.93</course>
  <speed>0.0</speed>
  <fix>3d</fix>
</trkpt>
<trkpt lat="33.810313" lon="-118.393867">
  <ele>-0.12</ele>
  <time>2026-09-01T01:13:13Z</time>
  <course>0.0</course>
  <speed>0.0</speed>
  <fix>3d</fix>
</trkpt>
<trkpt lat="33.810313" lon="-118.393867">
  <ele>-0.128</ele>
  <time>2026-09-01T01:13:13Z</time>
  <course>186.93</course>
  <speed>0.0</speed>
  <fix>3d</fix>
</trkpt>
<trkpt lat="33.810313" lon="-118.393867">
  <ele>-0.12</ele>
  <time>2026-09-01T01:13:13Z</time>
  <course>0.0</course>
  <speed>0.0</speed>
  <fix>3d</fix>
</trkpt>
<trkpt lat="33.810313" lon="-118.393867">
  <ele>-0.127</ele>
  <time>2026-09-01T01:13:13Z</time>
  <course>186.92</course>
  <speed>0.0</speed>
  <fix>3d</fix>
</trkpt>
<trkpt lat="33.810313" lon="-118.393867">
  <ele>-0.12</ele>
  <time>2026-09-01T01:13:13Z</time>
  <course>0.0</course>
  <speed>0.0</speed>
  <fix>3d</fix>
</trkpt>
<trkpt lat="33.810313" lon="-118.393867">
  <ele>-0.128</ele>
  <time>2026-09-01T01:13:13Z</time>
  <course>186.92</course>
  <speed>0.0</speed>
  <fix>3d</fix>
</trkpt>
<trkpt lat="33.810313" lon="-118.393867">
  <ele>-0.12</ele>
  <time>2026-09-01T01:13:13Z</time>
  <course>0.0</course>
  <speed>0.0</speed>
  <fix>3d</fix>
</trkpt>
<trkpt lat="33.810313" lon="-118.393867">
  <ele>-0.128</ele>
  <time>2026-09-01T01:13:13Z</time>
  <course>186.91</course>
  <speed>0.0</speed>
  <fix>3d</fix>
</trkpt>
<trkpt lat="33.810313" lon="-118.393867">
  <ele>-0.12</ele>
  <time>2026-09-01T01:13:13Z</time>
  <course>0.0</course>
  <speed>0.0</speed>
  <fix>3d</fix>
</trkpt>
<trkpt lat="33.810313" lon="-118.393867">
  <ele>-0.127</ele>
  <time>2026-09-01T01:13:13Z</time>
  <course>186.91</course>
  <speed>0.0</speed>
  <fix>3d</fix>
</trkpt>
<trkpt lat="33.810313" lon="-118.393867">
  <ele>-0.12</ele>
  <time>2026-09-01T01:13:13Z</time>
  <course>0.0</course>
  <speed>0.0</speed>
  <fix>3d</fix>
</trkpt>
<trkpt lat="33.810313" lon="-118.393867">
  <ele>-0.127</ele>
  <time>2026-09-01T01:13:13Z</time>
  <course>186.91</course>
  <speed>0.0</speed>
  <fix>3d</fix>
</trkpt>
<trkpt lat="33.810313" lon="-118.393867">
  <ele>-0.12</ele>
  <time>2026-09-01T01:13:13Z</time>
  <course>0.0</course>
  <speed>0.0</speed>
  <fix>3d</fix>
</trkpt>
<trkpt lat="33.810313" lon="-118.393867">
  <ele>-0.125</ele>
  <time>2026-09-01T01:13:13Z</time>
  <course>186.9</course>
  <speed>0.0</speed>
  <fix>3d</fix>
</trkpt>
<trkpt lat="33.810313" lon="-118.393867">
  <ele>-0.12</ele>
  <time>2026-09-01T01:13:13Z</time>
  <course>0.0</course>
  <speed>0.0</speed>
  <fix>3d</fix>
</trkpt>
<trkpt lat="33.810313" lon="-118.393867">
  <ele>-0.124</ele>
  <time>2026-09-01T01:13:13Z</time>
  <course>186.9</course>
  <speed>0.0</speed>
  <fix>3d</fix>
</trkpt>
<trkpt lat="33.810313" lon="-118.393867">
  <ele>-0.12</ele>
  <time>2026-09-01T01:13:13Z</time>
  <course>0.0</course>
  <speed>0.0</speed>
  <fix>3d</fix>
</trkpt>
<trkpt lat="33.810313" lon="-118.393867">
  <ele>-0.122</ele>
  <time>2026-09-01T01:13:13Z</time>
  <course>186.89</course>
  <speed>0.0</speed>
  <fix>3d</fix>
</trkpt>
<trkpt lat="33.810313" lon="-118.393867">
  <ele>-0.12</ele>
  <time>2026-09-01T01:13:13Z</time>
  <course>0.0</course>
  <speed>0.0</speed>
  <fix>3d</fix>
</trkpt>
<trkpt lat="33.810313" lon="-118.393867">
  <ele>-0.121</ele>
  <time>2026-09-01T01:13:13Z</time>
  <course>186.89</course>
  <speed>0.0</speed>
  <fix>3d</fix>
</trkpt>
<trkpt lat="33.810313" lon="-118.393867">
  <ele>-0.12</ele>
  <time>2026-09-01T01:13:13Z</time>
  <course>0.0</course>
  <speed>0.0</speed>
  <fix>3d</fix>
</trkpt>
<trkpt lat="33.810313" lon="-118.393867">
  <ele>-0.12</ele>
  <time>2026-09-01T01:13:13Z</time>
  <course>186.88</course>
  <speed>0.01</speed>
  <fix>3d</fix>
</trkpt>
<trkpt lat="33.810313" lon="-118.393867">
  <ele>-0.12</ele>
  <time>2026-09-01T01:13:13Z</time>
  <course>0.0</course>
  <speed>0.0</speed>
  <fix>3d</fix>
</trkpt>
<trkpt lat="33.810313" lon="-118.393867">
  <ele>-0.119</ele>
  <time>2026-09-01T01:13:13Z</time>
  <course>186.88</course>
  <speed>0.01</speed>
  <fix>3d</fix>
</trkpt>
<trkpt lat="33.810313" lon="-118.393867">
  <ele>-0.12</ele>
  <time>2026-09-01T01:13:13Z</time>
  <course>0.0</course>
  <speed>0.0</speed>
  <fix>3d</fix>
</trkpt>
<trkpt lat="33.810313" lon="-118.393867">
  <ele>-0.119</ele>
  <time>2026-09-01T01:13:13Z</time>
  <course>186.87</course>
  <speed>0.01</speed>
  <fix>3d</fix>
</trkpt>
<trkpt lat="33.810313" lon="-118.393867">
  <ele>-0.12</ele>
  <time>2026-09-01T01:13:13Z</time>
  <course>0.0</course>
  <speed>0.0</speed>
  <fix>3d</fix>
</trkpt>
<trkpt lat="33.810313" lon="-118.393867">
  <ele>-0.119</ele>
  <time>2026-09-01T01:13:13Z</time>
  <course>186.87</course>
  <speed>0.01</speed>
  <fix>3d</fix>
</trkpt>
<trkpt lat="33.810313" lon="-118.393867">
  <ele>-0.12</ele>
  <time>2026-09-01T01:13:13Z</time>
  <course>0.0</course>
  <speed>0.0</speed>
  <fix>3d</fix>
</trkpt>
<trkpt lat="33.810313" lon="-118.393867">
  <ele>-0.119</ele>
  <time>2026-09-01T01:13:13Z</time>
  <course>186.86</course>
  <speed>0.01</speed>
  <fix>3d</fix>
</trkpt>
<trkpt lat="33.810313" lon="-118.393867">
  <ele>-0.12</ele>
  <time>2026-09-01T01:13:13Z</time>
  <course>0.0</course>
  <speed>0.0</speed>
  <fix>3d</fix>
</trkpt>
<trkpt lat="33.810313" lon="-118.393867">
  <ele>-0.119</ele>
  <time>2026-09-01T01:13:13Z</time>
  <course>186.86</course>
  <speed>0.01</speed>
  <fix>3d</fix>
</trkpt>
<trkpt lat="33.810313" lon="-118.393867">
  <ele>-0.12</ele>
  <time>2026-09-01T01:13:13Z</time>
  <course>0.0</course>
  <speed>0.0</speed>
  <fix>3d</fix>
</trkpt>
<trkpt lat="33.810313" lon="-118.393867">
  <ele>-0.119</ele>
  <time>2026-09-01T01:13:13Z</time>
  <course>186.85</course>
  <speed>0.01</speed>
  <fix>3d</fix>
</trkpt>
<trkpt lat="33.810313" lon="-118.393867">
  <ele>-0.12</ele>
  <time>2026-09-01T01:13:13Z</time>
  <course>0.0</course>
  <speed>0.0</speed>
  <fix>3d</fix>
</trkpt>
<trkpt lat="33.810313" lon="-118.393867">
  <ele>-0.119</ele>
  <time>2026-09-01T01:13:13Z</time>
  <course>186.85</course>
  <speed>0.01</speed>
  <fix>3d</fix>
</trkpt>
<trkpt lat="33.810313" lon="-118.393867">
  <ele>-0.12</ele>
  <time>2026-09-01T01:13:13Z</time>
  <course>0.0</course>
  <speed>0.0</speed>
  <fix>3d</fix>
</trkpt>
<trkpt lat="33.810313" lon="-118.393867">
  <ele>-0.12</ele>
  <time>2026-09-01T01:13:13Z</time>
  <course>186.84</course>
  <speed>0.01414213562373095</speed>
  <fix>3d</fix>
</trkpt>
<trkpt lat="33.810313" lon="-118.393867">
  <ele>-0.12</ele>
  <time>2026-09-01T01:13:13Z</time>
  <course>0.0</course>
  <speed>0.0</speed>
  <fix>3d</fix>
</trkpt>
<trkpt lat="33.810313" lon="-118.393867">
  <ele>-0.125</ele>
  <time>2026-09-01T01:13:13Z</time>
  <course>186.84</course>
  <speed>0.01414213562373095</speed>
  <fix>3d</fix>
</trkpt>
<trkpt lat="33.810313" lon="-118.393867">
  <ele>-0.12</ele>
  <time>2026-09-01T01:13:13Z</time>
  <course>95.0</course>
  <speed>0.0</speed>
  <fix>3d</fix>
</trkpt>
<trkpt lat="33.810313" lon="-118.393867">
  <ele>-0.146</ele>
  <time>2026-09-01T01:13:13Z</time>
  <course>186.83</course>
  <speed>0.01414213562373095</speed>
  <fix>3d</fix>
</trkpt>
<trkpt lat="33.810313" lon="-118.393867">
  <ele>-0.12</ele>
  <time>2026-09-01T01:13:13Z</time>
  <course>95.0</course>
  <speed>0.0</speed>
  <fix>3d</fix>
</trkpt>
<trkpt lat="33.810313" lon="-118.393867">
  <ele>-0.171</ele>
  <time>2026-09-01T01:13:14Z</time>
  <course>186.83</course>
  <speed>0.01414213562373095</speed>
  <fix>3d</fix>
</trkpt>
<trkpt lat="33.810313" lon="-118.393867">
  <ele>-0.13</ele>
  <time>2026-09-01T01:13:14Z</time>
  <course>275.0</course>
  <speed>0.0</speed>
  <fix>3d</fix>
</trkpt>
<trkpt lat="33.810313" lon="-118.393867">
  <ele>-0.194</ele>
  <time>2026-09-01T01:13:14Z</time>
  <course>186.82</course>
  <speed>0.01414213562373095</speed>
  <fix>3d</fix>
</trkpt>
<trkpt lat="33.810313" lon="-118.393867">
  <ele>-0.13</ele>
  <time>2026-09-01T01:13:14Z</time>
  <course>275.0</course>
  <speed>0.0</speed>
  <fix>3d</fix>
</trkpt>
<trkpt lat="33.810313" lon="-118.393867">
  <ele>-0.216</ele>
  <time>2026-09-01T01:13:14Z</time>
  <course>186.82</course>
  <speed>0.01414213562373095</speed>
  <fix>3d</fix>
</trkpt>
<trkpt lat="33.810313" lon="-118.393867">
  <ele>-0.17</ele>
  <time>2026-09-01T01:13:14Z</time>
  <course>275.0</course>
  <speed>0.0</speed>
  <fix>3d</fix>
</trkpt>
<trkpt lat="33.810313" lon="-118.393867">
  <ele>-0.235</ele>
  <time>2026-09-01T01:13:14Z</time>
  <course>186.81</course>
  <speed>0.01414213562373095</speed>
  <fix>3d</fix>
</trkpt>
<trkpt lat="33.810313" lon="-118.393867">
  <ele>-0.17</ele>
  <time>2026-09-01T01:13:14Z</time>
  <course>275.0</course>
  <speed>0.0</speed>
  <fix>3d</fix>
</trkpt>
<trkpt lat="33.810313" lon="-118.393867">
  <ele>-0.251</ele>
  <time>2026-09-01T01:13:14Z</time>
  <course>186.81</course>
  <speed>0.01414213562373095</speed>
  <fix>3d</fix>
</trkpt>
<trkpt lat="33.810313" lon="-118.393867">
  <ele>-0.2</ele>
  <time>2026-09-01T01:13:14Z</time>
  <course>95.0</course>
  <speed>0.0</speed>
  <fix>3d</fix>
</trkpt>
<trkpt lat="33.810313" lon="-118.393867">
  <ele>-0.264</ele>
  <time>2026-09-01T01:13:14Z</time>
  <course>186.81</course>
  <speed>0.01414213562373095</speed>
  <fix>3d</fix>
</trkpt>
<trkpt lat="33.810313" lon="-118.393867">
  <ele>-0.2</ele>
  <time>2026-09-01T01:13:14Z</time>
  <course>95.0</course>
  <speed>0.0</speed>
  <fix>3d</fix>
</trkpt>
<trkpt lat="33.810313" lon="-118.393867">
  <ele>-0.276</ele>
  <time>2026-09-01T01:13:14Z</time>
  <course>186.8</course>
  <speed>0.01414213562373095</speed>
  <fix>3d</fix>
</trkpt>
<trkpt lat="33.810313" lon="-118.393867">
  <ele>-0.23</ele>
  <time>2026-09-01T01:13:14Z</time>
  <course>95.0</course>
  <speed>0.0</speed>
  <fix>3d</fix>
</trkpt>
<trkpt lat="33.810313" lon="-118.393867">
  <ele>-0.286</ele>
  <time>2026-09-01T01:13:14Z</time>
  <course>186.8</course>
  <speed>0.01414213562373095</speed>
  <fix>3d</fix>
</trkpt>
<trkpt lat="33.810313" lon="-118.393867">
  <ele>-0.23</ele>
  <time>2026-09-01T01:13:14Z</time>
  <course>95.0</course>
  <speed>0.0</speed>
  <fix>3d</fix>
</trkpt>
<trkpt lat="33.8103131" lon="-118.393867">
  <ele>-0.295</ele>
  <time>2026-09-01T01:13:14Z</time>
  <course>186.79</course>
  <speed>0.01414213562373095</speed>
  <fix>3d</fix>
</trkpt>
<trkpt lat="33.810313" lon="-118.393867">
  <ele>-0.26</ele>
  <time>2026-09-01T01:13:14Z</time>
  <course>95.0</course>
  <speed>0.0</speed>
  <fix>3d</fix>
</trkpt>
<trkpt lat="33.8103131" lon="-118.393867">
  <ele>-0.303</ele>
  <time>2026-09-01T01:13:14Z</time>
  <course>186.79</course>
  <speed>0.01414213562373095</speed>
  <fix>3d</fix>
</trkpt>
<trkpt lat="33.810313" lon="-118.393867">
  <ele>-0.26</ele>
  <time>2026-09-01T01:13:14Z</time>
  <course>95.0</course>
  <speed>0.0</speed>
  <fix>3d</fix>
</trkpt>
<trkpt lat="33.8103131" lon="-118.3938671">
  <ele>-0.309</ele>
  <time>2026-09-01T01:13:14Z</time>
  <course>186.78</course>
  <speed>0.01414213562373095</speed>
  <fix>3d</fix>
</trkpt>
<trkpt lat="33.810313" lon="-118.393867">
  <ele>-0.27</ele>
  <time>2026-09-01T01:13:14Z</time>
  <course>95.0</course>
  <speed>0.0</speed>
  <fix>3d</fix>
</trkpt>
<trkpt lat="33.8103131" lon="-118.3938671">
  <ele>-0.314</ele>
  <time>2026-09-01T01:13:14Z</time>
  <course>186.78</course>
  <speed>0.01414213562373095</speed>
  <fix>3d</fix>
</trkpt>
<trkpt lat="33.810313" lon="-118.393867">
  <ele>-0.27</ele>
  <time>2026-09-01T01:13:14Z</time>
  <course>95.0</course>
  <speed>0.0</speed>
  <fix>3d</fix>
</trkpt>
<trkpt lat="33.8103131" lon="-118.3938671">
  <ele>-0.318</ele>
  <time>2026-09-01T01:13:14Z</time>
  <course>186.77</course>
  <speed>0.01414213562373095</speed>
  <fix>3d</fix>
</trkpt>
<trkpt lat="33.810313" lon="-118.393867">
  <ele>-0.28</ele>
  <time>2026-09-01T01:13:14Z</time>
  <course>95.0</course>
  <speed>0.0</speed>
  <fix>3d</fix>
</trkpt>
<trkpt lat="33.8103131" lon="-118.3938671">
  <ele>-0.32</ele>
  <time>2026-09-01T01:13:14Z</time>
  <course>186.77</course>
  <speed>0.022360679774997897</speed>
  <fix>3d</fix>
</trkpt>
<trkpt lat="33.810313" lon="-118.393867">
  <ele>-0.28</ele>
  <time>2026-09-01T01:13:14Z</time>
  <course>95.0</course>
  <speed>0.0</speed>
  <fix>3d</fix>
</trkpt>
<trkpt lat="33.8103131" lon="-118.3938671">
  <ele>-0.322</ele>
  <time>2026-09-01T01:13:14Z</time>
  <course>186.76</course>
  <speed>0.022360679774997897</speed>
  <fix>3d</fix>
</trkpt>
<trkpt lat="33.810313" lon="-118.393867">
  <ele>-0.29</ele>
  <time>2026-09-01T01:13:14Z</time>
  <course>95.0</course>
  <speed>0.0</speed>
  <fix>3d</fix>
</trkpt>
<trkpt lat="33.8103131" lon="-118.3938671">
  <ele>-0.324</ele>
  <time>2026-09-01T01:13:14Z</time>
  <course>186.76</course>
  <speed>0.022360679774997897</speed>
  <fix>3d</fix>
</trkpt>
<trkpt lat="33.810313" lon="-118.393867">
  <ele>-0.29</ele>
  <time>2026-09-01T01:13:14Z</time>
  <course>95.0</course>
  <speed>0.0</speed>
  <fix>3d</fix>
</trkpt>
<trkpt lat="33.8103131" lon="-118.3938671">
  <ele>-0.326</ele>
  <time>2026-09-01T01:13:14Z</time>
  <course>186.75</course>
  <speed>0.022360679774997897</speed>
  <fix>3d</fix>
</trkpt>
<trkpt lat="33.810313" lon="-118.393867">
  <ele>-0.3</ele>
  <time>2026-09-01T01:13:14Z</time>
  <course>95.0</course>
  <speed>0.0</speed>
  <fix>3d</fix>
</trkpt>
<trkpt lat="33.8103131" lon="-118.3938671">
  <ele>-0.326</ele>
  <time>2026-09-01T01:13:14Z</time>
  <course>186.75</course>
  <speed>0.022360679774997897</speed>
  <fix>3d</fix>
</trkpt>
<trkpt lat="33.810313" lon="-118.393867">
  <ele>-0.3</ele>
  <time>2026-09-01T01:13:14Z</time>
  <course>95.0</course>
  <speed>0.0</speed>
  <fix>3d</fix>
</trkpt>
<trkpt lat="33.8103131" lon="-118.3938671">
  <ele>-0.327</ele>
  <time>2026-09-01T01:13:14Z</time>
  <course>186.74</course>
  <speed>0.022360679774997897</speed>
  <fix>3d</fix>
</trkpt>
<trkpt lat="33.810313" lon="-118.393867">
  <ele>-0.31</ele>
  <time>2026-09-01T01:13:14Z</time>
  <course>95.0</course>
  <speed>0.0</speed>
  <fix>3d</fix>
</trkpt>
<trkpt lat="33.8103131" lon="-118.3938671">
  <ele>-0.326</ele>
  <time>2026-09-01T01:13:14Z</time>
  <course>186.74</course>
  <speed>0.022360679774997897</speed>
  <fix>3d</fix>
</trkpt>
<trkpt lat="33.810313" lon="-118.393867">
  <ele>-0.31</ele>
  <time>2026-09-01T01:13:14Z</time>
  <course>95.0</course>
  <speed>0.0</speed>
  <fix>3d</fix>
</trkpt>
<trkpt lat="33.8103131" lon="-118.3938671">
  <ele>-0.324</ele>
  <time>2026-09-01T01:13:14Z</time>
  <course>186.73</course>
  <speed>0.022360679774997897</speed>
  <fix>3d</fix>
</trkpt>
<trkpt lat="33.810313" lon="-118.393867">
  <ele>-0.31</ele>
  <time>2026-09-01T01:13:14Z</time>
  <course>95.0</course>
  <speed>0.0</speed>
  <fix>3d</fix>
</trkpt>
<trkpt lat="33.8103131" lon="-118.3938671">
  <ele>-0.321</ele>
  <time>2026-09-01T01:13:14Z</time>
  <course>186.73</course>
  <speed>0.022360679774997897</speed>
  <fix>3d</fix>
</trkpt>
<trkpt lat="33.810313" lon="-118.393867">
  <ele>-0.31</ele>
  <time>2026-09-01T01:13:14Z</time>
  <course>95.0</course>
  <speed>0.0</speed>
  <fix>3d</fix>
</trkpt>
<trkpt lat="33.8103131" lon="-118.3938671">
  <ele>-0.318</ele>
  <time>2026-09-01T01:13:14Z</time>
  <course>186.73</course>
  <speed>0.022360679774997897</speed>
  <fix>3d</fix>
</trkpt>
<trkpt lat="33.810313" lon="-118.393867">
  <ele>-0.31</ele>
  <time>2026-09-01T01:13:14Z</time>
  <course>95.0</course>
  <speed>0.0</speed>
  <fix>3d</fix>
</trkpt>
<trkpt lat="33.8103131" lon="-118.3938671">
  <ele>-0.315</ele>
  <time>2026-09-01T01:13:14Z</time>
  <course>186.72</course>
  <speed>0.022360679774997897</speed>
  <fix>3d</fix>
</trkpt>
<trkpt lat="33.810313" lon="-118.393867">
  <ele>-0.31</ele>
  <time>2026-09-01T01:13:14Z</time>
  <course>95.0</course>
  <speed>0.0</speed>
  <fix>3d</fix>
</trkpt>
<trkpt lat="33.8103131" lon="-118.3938671">
  <ele>-0.311</ele>
  <time>2026-09-01T01:13:14Z</time>
  <course>186.72</course>
  <speed>0.01414213562373095</speed>
  <fix>3d</fix>
</trkpt>
<trkpt lat="33.810313" lon="-118.393867">
  <ele>-0.31</ele>
  <time>2026-09-01T01:13:14Z</time>
  <course>95.0</course>
  <speed>0.0</speed>
  <fix>3d</fix>
</trkpt>
<trkpt lat="33.8103131" lon="-118.3938671">
  <ele>-0.308</ele>
  <time>2026-09-01T01:13:14Z</time>
  <course>186.71</course>
  <speed>0.01414213562373095</speed>
  <fix>3d</fix>
</trkpt>
<trkpt lat="33.810313" lon="-118.393867">
  <ele>-0.31</ele>
  <time>2026-09-01T01:13:14Z</time>
  <course>95.0</course>
  <speed>0.0</speed>
  <fix>3d</fix>
</trkpt>
<trkpt lat="33.8103131" lon="-118.3938671">
  <ele>-0.303</ele>
  <time>2026-09-01T01:13:14Z</time>
  <course>186.71</course>
  <speed>0.01414213562373095</speed>
  <fix>3d</fix>
</trkpt>
<trkpt lat="33.810313" lon="-118.393867">
  <ele>-0.3</ele>
  <time>2026-09-01T01:13:14Z</time>
  <course>95.0</course>
  <speed>0.0</speed>
  <fix>3d</fix>
</trkpt>
<trkpt lat="33.8103131" lon="-118.3938671">
  <ele>-0.298</ele>
  <time>2026-09-01T01:13:14Z</time>
  <course>186.7</course>
  <speed>0.01414213562373095</speed>
  <fix>3d</fix>
</trkpt>
<trkpt lat="33.810313" lon="-118.393867">
  <ele>-0.3</ele>
  <time>2026-09-01T01:13:14Z</time>
  <course>95.0</course>
  <speed>0.0</speed>
  <fix>3d</fix>
</trkpt>
<trkpt lat="33.8103131" lon="-118.3938671">
  <ele>-0.293</ele>
  <time>2026-09-01T01:13:14Z</time>
  <course>186.7</course>
  <speed>0.01414213562373095</speed>
  <fix>3d</fix>
</trkpt>
<trkpt lat="33.810313" lon="-118.393867">
  <ele>-0.29</ele>
  <time>2026-09-01T01:13:14Z</time>
  <course>95.0</course>
  <speed>0.0</speed>
  <fix>3d</fix>
</trkpt>
<trkpt lat="33.8103131" lon="-118.3938671">
  <ele>-0.287</ele>
  <time>2026-09-01T01:13:14Z</time>
  <course>186.7</course>
  <speed>0.01414213562373095</speed>
  <fix>3d</fix>
</trkpt>
<trkpt lat="33.810313" lon="-118.393867">
  <ele>-0.29</ele>
  <time>2026-09-01T01:13:14Z</time>
  <course>95.0</course>
  <speed>0.0</speed>
  <fix>3d</fix>
</trkpt>
<trkpt lat="33.8103131" lon="-118.3938671">
  <ele>-0.282</ele>
  <time>2026-09-01T01:13:14Z</time>
  <course>186.69</course>
  <speed>0.01414213562373095</speed>
  <fix>3d</fix>
</trkpt>
<trkpt lat="33.810313" lon="-118.393867">
  <ele>-0.28</ele>
  <time>2026-09-01T01:13:14Z</time>
  <course>95.0</course>
  <speed>0.0</speed>
  <fix>3d</fix>
</trkpt>
<trkpt lat="33.8103131" lon="-118.3938671">
  <ele>-0.277</ele>
  <time>2026-09-01T01:13:14Z</time>
  <course>186.69</course>
  <speed>0.01414213562373095</speed>
  <fix>3d</fix>
</trkpt>
<trkpt lat="33.810313" lon="-118.393867">
  <ele>-0.28</ele>
  <time>2026-09-01T01:13:14Z</time>
  <course>95.0</course>
  <speed>0.0</speed>
  <fix>3d</fix>
</trkpt>
<trkpt lat="33.8103131" lon="-118.3938671">
  <ele>-0.25</ele>
  <time>2026-09-01T01:13:14Z</time>
  <course>186.67</course>
  <speed>0.01414213562373095</speed>
  <fix>3d</fix>
</trkpt>
<trkpt lat="33.810313" lon="-118.393867">
  <ele>-0.26</ele>
  <time>2026-09-01T01:13:14Z</time>
  <course>95.0</course>
  <speed>0.0</speed>
  <fix>3d</fix>
</trkpt>
<trkpt lat="33.8103131" lon="-118.3938671">
  <ele>-0.223</ele>
  <time>2026-09-01T01:13:14Z</time>
  <course>186.66</course>
  <speed>0.01414213562373095</speed>
  <fix>3d</fix>
</trkpt>
<trkpt lat="33.810313" lon="-118.393867">
  <ele>-0.23</ele>
  <time>2026-09-01T01:13:14Z</time>
  <course>95.0</course>
  <speed>0.0</speed>
  <fix>3d</fix>
</trkpt>
<trkpt lat="33.8103131" lon="-118.3938671">
  <ele>-0.214</ele>
  <time>2026-09-01T01:13:14Z</time>
  <course>186.66</course>
  <speed>0.01414213562373095</speed>
  <fix>3d</fix>
</trkpt>
<trkpt lat="33.810313" lon="-118.393867">
  <ele>-0.23</ele>
  <time>2026-09-01T01:13:14Z</time>
  <course>95.0</course>
  <speed>0.0</speed>
  <fix>3d</fix>
</trkpt>
<trkpt lat="33.8103131" lon="-118.3938671">
  <ele>-0.193</ele>
  <time>2026-09-01T01:13:14Z</time>
  <course>186.65</course>
  <speed>0.01414213562373095</speed>
  <fix>3d</fix>
</trkpt>
<trkpt lat="33.810313" lon="-118.393867">
  <ele>-0.22</ele>
  <time>2026-09-01T01:13:14Z</time>
  <course>95.0</course>
  <speed>0.0</speed>
  <fix>3d</fix>
</trkpt>
<trkpt lat="33.8103131" lon="-118.3938671">
  <ele>-0.183</ele>
  <time>2026-09-01T01:13:14Z</time>
  <course>186.64</course>
  <speed>0.01414213562373095</speed>
  <fix>3d</fix>
</trkpt>
<trkpt lat="33.810313" lon="-118.393867">
  <ele>-0.19</ele>
  <time>2026-09-01T01:13:14Z</time>
  <course>95.0</course>
  <speed>0.0</speed>
  <fix>3d</fix>
</trkpt>
<trkpt lat="33.8103131" lon="-118.3938671">
  <ele>-0.175</ele>
  <time>2026-09-01T01:13:14Z</time>
  <course>186.64</course>
  <speed>0.01414213562373095</speed>
  <fix>3d</fix>
</trkpt>
<trkpt lat="33.810313" lon="-118.393867">
  <ele>-0.19</ele>
  <time>2026-09-01T01:13:14Z</time>
  <course>95.0</course>
  <speed>0.0</speed>
  <fix>3d</fix>
</trkpt>
<trkpt lat="33.8103131" lon="-118.3938671">
  <ele>-0.166</ele>
  <time>2026-09-01T01:13:14Z</time>
  <course>186.64</course>
  <speed>0.01414213562373095</speed>
  <fix>3d</fix>
</trkpt>
<trkpt lat="33.810313" lon="-118.393867">
  <ele>-0.18</ele>
  <time>2026-09-01T01:13:14Z</time>
  <course>95.0</course>
  <speed>0.0</speed>
  <fix>3d</fix>
</trkpt>
<trkpt lat="33.8103131" lon="-118.3938671">
  <ele>-0.156</ele>
  <time>2026-09-01T01:13:14Z</time>
  <course>186.63</course>
  <speed>0.01414213562373095</speed>
  <fix>3d</fix>
</trkpt>
<trkpt lat="33.810313" lon="-118.393867">
  <ele>-0.18</ele>
  <time>2026-09-01T01:13:14Z</time>
  <course>95.0</course>
  <speed>0.0</speed>
  <fix>3d</fix>
</trkpt>
<trkpt lat="33.8103131" lon="-118.3938671">
  <ele>-0.147</ele>
  <time>2026-09-01T01:13:14Z</time>
  <course>186.63</course>
  <speed>0.01414213562373095</speed>
  <fix>3d</fix>
</trkpt>
<trkpt lat="33.810313" lon="-118.393867">
  <ele>-0.17</ele>
  <time>2026-09-01T01:13:14Z</time>
  <course>95.0</course>
  <speed>0.0</speed>
  <fix>3d</fix>
</trkpt>
<trkpt lat="33.8103131" lon="-118.3938671">
  <ele>-0.138</ele>
  <time>2026-09-01T01:13:14Z</time>
  <course>186.63</course>
  <speed>0.01414213562373095</speed>
  <fix>3d</fix>
</trkpt>
<trkpt lat="33.810313" lon="-118.393867">
  <ele>-0.17</ele>
  <time>2026-09-01T01:13:14Z</time>
  <course>95.0</course>
  <speed>0.0</speed>
  <fix>3d</fix>
</trkpt>
<trkpt lat="33.8103131" lon="-118.3938671">
  <ele>-0.129</ele>
  <time>2026-09-01T01:13:14Z</time>
  <course>186.62</course>
  <speed>0.01414213562373095</speed>
  <fix>3d</fix>
</trkpt>
<trkpt lat="33.810313" lon="-118.393867">
  <ele>-0.15</ele>
  <time>2026-09-01T01:13:14Z</time>
  <course>95.0</course>
  <speed>0.0</speed>
  <fix>3d</fix>
</trkpt>
<trkpt lat="33.8103131" lon="-118.3938671">
  <ele>-0.121</ele>
  <time>2026-09-01T01:13:14Z</time>
  <course>186.62</course>
  <speed>0.01414213562373095</speed>
  <fix>3d</fix>
</trkpt>
<trkpt lat="33.810313" lon="-118.393867">
  <ele>-0.15</ele>
  <time>2026-09-01T01:13:14Z</time>
  <course>95.0</course>
  <speed>0.0</speed>
  <fix>3d</fix>
</trkpt>
<trkpt lat="33.8103131" lon="-118.3938671">
  <ele>-0.113</ele>
  <time>2026-09-01T01:13:14Z</time>
  <course>186.62</course>
  <speed>0.01414213562373095</speed>
  <fix>3d</fix>
</trkpt>
<trkpt lat="33.810313" lon="-118.393867">
  <ele>-0.13</ele>
  <time>2026-09-01T01:13:14Z</time>
  <course>95.0</course>
  <speed>0.0</speed>
  <fix>3d</fix>
</trkpt>
<trkpt lat="33.8103131" lon="-118.3938671">
  <ele>-0.106</ele>
  <time>2026-09-01T01:13:14Z</time>
  <course>186.61</course>
  <speed>0.01414213562373095</speed>
  <fix>3d</fix>
</trkpt>
<trkpt lat="33.810313" lon="-118.393867">
  <ele>-0.13</ele>
  <time>2026-09-01T01:13:14Z</time>
  <course>95.0</course>
  <speed>0.0</speed>
  <fix>3d</fix>
</trkpt>
<trkpt lat="33.8103131" lon="-118.3938671">
  <ele>-0.104</ele>
  <time>2026-09-01T01:13:14Z</time>
  <course>186.61</course>
  <speed>0.01414213562373095</speed>
  <fix>3d</fix>
</trkpt>
<trkpt lat="33.810313" lon="-118.393867">
  <ele>-0.11</ele>
  <time>2026-09-01T01:13:14Z</time>
  <course>95.0</course>
  <speed>0.0</speed>
  <fix>3d</fix>
</trkpt>
<trkpt lat="33.8103131" lon="-118.3938671">
  <ele>-0.107</ele>
  <time>2026-09-01T01:13:14Z</time>
  <course>186.6</course>
  <speed>0.01414213562373095</speed>
  <fix>3d</fix>
</trkpt>
<trkpt lat="33.810313" lon="-118.393867">
  <ele>-0.11</ele>
  <time>2026-09-01T01:13:14Z</time>
  <course>95.0</course>
  <speed>0.0</speed>
  <fix>3d</fix>
</trkpt>
<trkpt lat="33.8103131" lon="-118.3938671">
  <ele>-0.114</ele>
  <time>2026-09-01T01:13:14Z</time>
  <course>186.6</course>
  <speed>0.01414213562373095</speed>
  <fix>3d</fix>
</trkpt>
<trkpt lat="33.810313" lon="-118.393867">
  <ele>-0.11</ele>
  <time>2026-09-01T01:13:14Z</time>
  <course>95.0</course>
  <speed>0.0</speed>
  <fix>3d</fix>
</trkpt>
<trkpt lat="33.8103131" lon="-118.3938671">
  <ele>-0.124</ele>
  <time>2026-09-01T01:13:14Z</time>
  <course>186.6</course>
  <speed>0.01414213562373095</speed>
  <fix>3d</fix>
</trkpt>
<trkpt lat="33.810313" lon="-118.393867">
  <ele>-0.11</ele>
  <time>2026-09-01T01:13:14Z</time>
  <course>95.0</course>
  <speed>0.0</speed>
  <fix>3d</fix>
</trkpt>
<trkpt lat="33.8103131" lon="-118.3938671">
  <ele>-0.131</ele>
  <time>2026-09-01T01:13:14Z</time>
  <course>186.59</course>
  <speed>0.01414213562373095</speed>
  <fix>3d</fix>
</trkpt>
<trkpt lat="33.810313" lon="-118.393867">
  <ele>-0.11</ele>
  <time>2026-09-01T01:13:14Z</time>
  <course>95.0</course>
  <speed>0.0</speed>
  <fix>3d</fix>
</trkpt>
<trkpt lat="33.8103131" lon="-118.3938671">
  <ele>-0.139</ele>
  <time>2026-09-01T01:13:14Z</time>
  <course>186.59</course>
  <speed>0.01414213562373095</speed>
  <fix>3d</fix>
</trkpt>
<trkpt lat="33.810313" lon="-118.393867">
  <ele>-0.11</ele>
  <time>2026-09-01T01:13:14Z</time>
  <course>95.0</course>
  <speed>0.0</speed>
  <fix>3d</fix>
</trkpt>
<trkpt lat="33.8103131" lon="-118.3938671">
  <ele>-0.147</ele>
  <time>2026-09-01T01:13:14Z</time>
  <course>186.59</course>
  <speed>0.01414213562373095</speed>
  <fix>3d</fix>
</trkpt>
<trkpt lat="33.810313" lon="-118.393867">
  <ele>-0.13</ele>
  <time>2026-09-01T01:13:14Z</time>
  <course>95.0</course>
  <speed>0.0</speed>
  <fix>3d</fix>
</trkpt>
<trkpt lat="33.8103131" lon="-118.3938671">
  <ele>-0.154</ele>
  <time>2026-09-01T01:13:14Z</time>
  <course>186.58</course>
  <speed>0.01414213562373095</speed>
  <fix>3d</fix>
</trkpt>
<trkpt lat="33.810313" lon="-118.393867">
  <ele>-0.13</ele>
  <time>2026-09-01T01:13:14Z</time>
  <course>95.0</course>
  <speed>0.0</speed>
  <fix>3d</fix>
</trkpt>
<trkpt lat="33.8103131" lon="-118.3938671">
  <ele>-0.161</ele>
  <time>2026-09-01T01:13:14Z</time>
  <course>186.58</course>
  <speed>0.01414213562373095</speed>
  <fix>3d</fix>
</trkpt>
<trkpt lat="33.810313" lon="-118.393867">
  <ele>-0.14</ele>
  <time>2026-09-01T01:13:14Z</time>
  <course>95.0</course>
  <speed>0.0</speed>
  <fix>3d</fix>
</trkpt>
<trkpt lat="33.8103131" lon="-118.3938671">
  <ele>-0.167</ele>
  <time>2026-09-01T01:13:14Z</time>
  <course>186.58</course>
  <speed>0.01414213562373095</speed>
  <fix>3d</fix>
</trkpt>
<trkpt lat="33.810313" lon="-118.393867">
  <ele>-0.14</ele>
  <time>2026-09-01T01:13:14Z</time>
  <course>95.0</course>
  <speed>0.0</speed>
  <fix>3d</fix>
</trkpt>
<trkpt lat="33.8103131" lon="-118.3938671">
  <ele>-0.172</ele>
  <time>2026-09-01T01:13:14Z</time>
  <course>186.57</course>
  <speed>0.01414213562373095</speed>
  <fix>3d</fix>
</trkpt>
<trkpt lat="33.810313" lon="-118.393867">
  <ele>-0.15</ele>
  <time>2026-09-01T01:13:14Z</time>
  <course>95.0</course>
  <speed>0.0</speed>
  <fix>3d</fix>
</trkpt>
<trkpt lat="33.8103131" lon="-118.3938671">
  <ele>-0.174</ele>
  <time>2026-09-01T01:13:14Z</time>
  <course>186.57</course>
  <speed>0.01414213562373095</speed>
  <fix>3d</fix>
</trkpt>
<trkpt lat="33.810313" lon="-118.393867">
  <ele>-0.15</ele>
  <time>2026-09-01T01:13:14Z</time>
  <course>95.0</course>
  <speed>0.0</speed>
  <fix>3d</fix>
</trkpt>
<trkpt lat="33.8103131" lon="-118.3938671">
  <ele>-0.175</ele>
  <time>2026-09-01T01:13:14Z</time>
  <course>186.56</course>
  <speed>0.01414213562373095</speed>
  <fix>3d</fix>
</trkpt>
<trkpt lat="33.810313" lon="-118.393867">
  <ele>-0.16</ele>
  <time>2026-09-01T01:13:14Z</time>
  <course>95.0</course>
  <speed>0.0</speed>
  <fix>3d</fix>
</trkpt>
<trkpt lat="33.8103131" lon="-118.3938671">
  <ele>-0.177</ele>
  <time>2026-09-01T01:13:14Z</time>
  <course>186.56</course>
  <speed>0.01414213562373095</speed>
  <fix>3d</fix>
</trkpt>
<trkpt lat="33.810313" lon="-118.393867">
  <ele>-0.16</ele>
  <time>2026-09-01T01:13:14Z</time>
  <course>95.0</course>
  <speed>0.0</speed>
  <fix>3d</fix>
</trkpt>
<trkpt lat="33.8103131" lon="-118.3938671">
  <ele>-0.177</ele>
  <time>2026-09-01T01:13:15Z</time>
  <course>186.56</course>
  <speed>0.01414213562373095</speed>
  <fix>3d</fix>
</trkpt>
<trkpt lat="33.810313" lon="-118.393867">
  <ele>-0.16</ele>
  <time>2026-09-01T01:13:15Z</time>
  <course>95.0</course>
  <speed>0.0</speed>
  <fix>3d</fix>
</trkpt>
<trkpt lat="33.8103131" lon="-118.3938671">
  <ele>-0.177</ele>
  <time>2026-09-01T01:13:15Z</time>
  <course>186.55</course>
  <speed>0.01414213562373095</speed>
  <fix>3d</fix>
</trkpt>
<trkpt lat="33.810313" lon="-118.393867">
  <ele>-0.16</ele>
  <time>2026-09-01T01:13:15Z</time>
  <course>95.0</course>
  <speed>0.0</speed>
  <fix>3d</fix>
</trkpt>
<trkpt lat="33.8103131" lon="-118.3938671">
  <ele>-0.176</ele>
  <time>2026-09-01T01:13:15Z</time>
  <course>186.55</course>
  <speed>0.01414213562373095</speed>
  <fix>3d</fix>
</trkpt>
<trkpt lat="33.810313" lon="-118.393867">
  <ele>-0.16</ele>
  <time>2026-09-01T01:13:15Z</time>
  <course>95.0</course>
  <speed>0.0</speed>
  <fix>3d</fix>
</trkpt>
<trkpt lat="33.8103131" lon="-118.3938671">
  <ele>-0.174</ele>
  <time>2026-09-01T01:13:15Z</time>
  <course>186.55</course>
  <speed>0.01414213562373095</speed>
  <fix>3d</fix>
</trkpt>
<trkpt lat="33.810313" lon="-118.393867">
  <ele>-0.16</ele>
  <time>2026-09-01T01:13:15Z</time>
  <course>95.0</course>
  <speed>0.0</speed>
  <fix>3d</fix>
</trkpt>
<trkpt lat="33.8103131" lon="-118.3938671">
  <ele>-0.171</ele>
  <time>2026-09-01T01:13:15Z</time>
  <course>186.54</course>
  <speed>0.022360679774997897</speed>
  <fix>3d</fix>
</trkpt>
<trkpt lat="33.810313" lon="-118.393867">
  <ele>-0.16</ele>
  <time>2026-09-01T01:13:15Z</time>
  <course>95.0</course>
  <speed>0.0</speed>
  <fix>3d</fix>
</trkpt>
<trkpt lat="33.8103131" lon="-118.3938671">
  <ele>-0.168</ele>
  <time>2026-09-01T01:13:15Z</time>
  <course>186.54</course>
  <speed>0.022360679774997897</speed>
  <fix>3d</fix>
</trkpt>
<trkpt lat="33.810313" lon="-118.393867">
  <ele>-0.16</ele>
  <time>2026-09-01T01:13:15Z</time>
  <course>95.0</course>
  <speed>0.0</speed>
  <fix>3d</fix>
</trkpt>
<trkpt lat="33.8103131" lon="-118.3938671">
  <ele>-0.164</ele>
  <time>2026-09-01T01:13:15Z</time>
  <course>186.54</course>
  <speed>0.022360679774997897</speed>
  <fix>3d</fix>
</trkpt>
<trkpt lat="33.810313" lon="-118.393867">
  <ele>-0.15</ele>
  <time>2026-09-01T01:13:15Z</time>
  <course>95.0</course>
  <speed>0.0</speed>
  <fix>3d</fix>
</trkpt>
<trkpt lat="33.8103131" lon="-118.3938671">
  <ele>-0.158</ele>
  <time>2026-09-01T01:13:15Z</time>
  <course>186.53</course>
  <speed>0.022360679774997897</speed>
  <fix>3d</fix>
</trkpt>
<trkpt lat="33.810313" lon="-118.393867">
  <ele>-0.15</ele>
  <time>2026-09-01T01:13:15Z</time>
  <course>95.0</course>
  <speed>0.0</speed>
  <fix>3d</fix>
</trkpt>
<trkpt lat="33.8103131" lon="-118.3938671">
  <ele>-0.152</ele>
  <time>2026-09-01T01:13:15Z</time>
  <course>186.53</course>
  <speed>0.022360679774997897</speed>
  <fix>3d</fix>
</trkpt>
<trkpt lat="33.810313" lon="-118.393867">
  <ele>-0.15</ele>
  <time>2026-09-01T01:13:15Z</time>
  <course>95.0</course>
  <speed>0.0</speed>
  <fix>3d</fix>
</trkpt>
<trkpt lat="33.8103131" lon="-118.3938671">
  <ele>-0.146</ele>
  <time>2026-09-01T01:13:15Z</time>
  <course>186.53</course>
  <speed>0.022360679774997897</speed>
  <fix>3d</fix>
</trkpt>
<trkpt lat="33.810313" lon="-118.393867">
  <ele>-0.15</ele>
  <time>2026-09-01T01:13:15Z</time>
  <course>95.0</course>
  <speed>0.0</speed>
  <fix>3d</fix>
</trkpt>
<trkpt lat="33.8103131" lon="-118.3938671">
  <ele>-0.139</ele>
  <time>2026-09-01T01:13:15Z</time>
  <course>186.52</course>
  <speed>0.022360679774997897</speed>
  <fix>3d</fix>
</trkpt>
<trkpt lat="33.810313" lon="-118.393867">
  <ele>-0.14</ele>
  <time>2026-09-01T01:13:15Z</time>
  <course>95.0</course>
  <speed>0.0</speed>
  <fix>3d</fix>
</trkpt>
<trkpt lat="33.8103131" lon="-118.3938671">
  <ele>-0.131</ele>
  <time>2026-09-01T01:13:15Z</time>
  <course>186.52</course>
  <speed>0.022360679774997897</speed>
  <fix>3d</fix>
</trkpt>
<trkpt lat="33.810313" lon="-118.393867">
  <ele>-0.14</ele>
  <time>2026-09-01T01:13:15Z</time>
  <course>95.0</course>
  <speed>0.0</speed>
  <fix>3d</fix>
</trkpt>
<trkpt lat="33.8103131" lon="-118.3938671">
  <ele>-0.125</ele>
  <time>2026-09-01T01:13:15Z</time>
  <course>186.52</course>
  <speed>0.022360679774997897</speed>
  <fix>3d</fix>
</trkpt>
<trkpt lat="33.810313" lon="-118.393867">
  <ele>-0.13</ele>
  <time>2026-09-01T01:13:15Z</time>
  <course>95.0</course>
  <speed>0.0</speed>
  <fix>3d</fix>
</trkpt>
<trkpt lat="33.8103131" lon="-118.3938671">
  <ele>-0.119</ele>
  <time>2026-09-01T01:13:15Z</time>
  <course>186.51</course>
  <speed>0.022360679774997897</speed>
  <fix>3d</fix>
</trkpt>
<trkpt lat="33.810313" lon="-118.393867">
  <ele>-0.13</ele>
  <time>2026-09-01T01:13:15Z</time>
  <course>95.0</course>
  <speed>0.0</speed>
  <fix>3d</fix>
</trkpt>
<trkpt lat="33.8103131" lon="-118.3938671">
  <ele>-0.116</ele>
  <time>2026-09-01T01:13:15Z</time>
  <course>186.51</course>
  <speed>0.022360679774997897</speed>
  <fix>3d</fix>
</trkpt>
<trkpt lat="33.810313" lon="-118.393867">
  <ele>-0.12</ele>
  <time>2026-09-01T01:13:15Z</time>
  <course>95.0</course>
  <speed>0.0</speed>
  <fix>3d</fix>
</trkpt>
<trkpt lat="33.8103131" lon="-118.3938671">
  <ele>-0.116</ele>
  <time>2026-09-01T01:13:15Z</time>
  <course>186.51</course>
  <speed>0.022360679774997897</speed>
  <fix>3d</fix>
</trkpt>
<trkpt lat="33.810313" lon="-118.393867">
  <ele>-0.12</ele>
  <time>2026-09-01T01:13:15Z</time>
  <course>95.0</course>
  <speed>0.0</speed>
  <fix>3d</fix>
</trkpt>
<trkpt lat="33.8103131" lon="-118.3938671">
  <ele>-0.119</ele>
  <time>2026-09-01T01:13:15Z</time>
  <course>186.5</course>
  <speed>0.022360679774997897</speed>
  <fix>3d</fix>
</trkpt>
<trkpt lat="33.810313" lon="-118.393867">
  <ele>-0.11</ele>
  <time>2026-09-01T01:13:15Z</time>
  <course>95.0</course>
  <speed>0.0</speed>
  <fix>3d</fix>
</trkpt>
<trkpt lat="33.8103131" lon="-118.3938671">
  <ele>-0.124</ele>
  <time>2026-09-01T01:13:15Z</time>
  <course>186.5</course>
  <speed>0.0282842712474619</speed>
  <fix>3d</fix>
</trkpt>
<trkpt lat="33.810313" lon="-118.393867">
  <ele>-0.11</ele>
  <time>2026-09-01T01:13:15Z</time>
  <course>95.0</course>
  <speed>0.0</speed>
  <fix>3d</fix>
</trkpt>
<trkpt lat="33.8103131" lon="-118.3938671">
  <ele>-0.13</ele>
  <time>2026-09-01T01:13:15Z</time>
  <course>186.5</course>
  <speed>0.0282842712474619</speed>
  <fix>3d</fix>
</trkpt>
<trkpt lat="33.810313" lon="-118.393867">
  <ele>-0.11</ele>
  <time>2026-09-01T01:13:15Z</time>
  <course>95.0</course>
  <speed>0.0</speed>
  <fix>3d</fix>
</trkpt>
<trkpt lat="33.8103131" lon="-118.3938671">
  <ele>-0.135</ele>
  <time>2026-09-01T01:13:15Z</time>
  <course>186.49</course>
  <speed>0.0282842712474619</speed>
  <fix>3d</fix>
</trkpt>
<trkpt lat="33.810313" lon="-118.393867">
  <ele>-0.11</ele>
  <time>2026-09-01T01:13:15Z</time>
  <course>95.0</course>
  <speed>0.0</speed>
  <fix>3d</fix>
</trkpt>
<trkpt lat="33.8103131" lon="-118.3938671">
  <ele>-0.139</ele>
  <time>2026-09-01T01:13:15Z</time>
  <course>186.49</course>
  <speed>0.0282842712474619</speed>
  <fix>3d</fix>
</trkpt>
<trkpt lat="33.810313" lon="-118.393867">
  <ele>-0.12</ele>
  <time>2026-09-01T01:13:15Z</time>
  <course>95.0</course>
  <speed>0.0</speed>
  <fix>3d</fix>
</trkpt>
<trkpt lat="33.8103131" lon="-118.3938671">
  <ele>-0.142</ele>
  <time>2026-09-01T01:13:15Z</time>
  <course>186.49</course>
  <speed>0.0282842712474619</speed>
  <fix>3d</fix>
</trkpt>
<trkpt lat="33.810313" lon="-118.393867">
  <ele>-0.12</ele>
  <time>2026-09-01T01:13:15Z</time>
  <course>95.0</course>
  <speed>0.0</speed>
  <fix>3d</fix>
</trkpt>
<trkpt lat="33.8103131" lon="-118.3938671">
  <ele>-0.145</ele>
  <time>2026-09-01T01:13:15Z</time>
  <course>186.48</course>
  <speed>0.0282842712474619</speed>
  <fix>3d</fix>
</trkpt>
<trkpt lat="33.810313" lon="-118.393867">
  <ele>-0.13</ele>
  <time>2026-09-01T01:13:15Z</time>
  <course>95.0</course>
  <speed>0.0</speed>
  <fix>3d</fix>
</trkpt>
<trkpt lat="33.8103131" lon="-118.3938671">
  <ele>-0.148</ele>
  <time>2026-09-01T01:13:15Z</time>
  <course>186.48</course>
  <speed>0.0282842712474619</speed>
  <fix>3d</fix>
</trkpt>
<trkpt lat="33.810313" lon="-118.393867">
  <ele>-0.13</ele>
  <time>2026-09-01T01:13:15Z</time>
  <course>95.0</course>
  <speed>0.0</speed>
  <fix>3d</fix>
</trkpt>
<trkpt lat="33.8103131" lon="-118.3938671">
  <ele>-0.15</ele>
  <time>2026-09-01T01:13:15Z</time>
  <course>186.48</course>
  <speed>0.0282842712474619</speed>
  <fix>3d</fix>
</trkpt>
<trkpt lat="33.810313" lon="-118.393867">
  <ele>-0.14</ele>
  <time>2026-09-01T01:13:15Z</time>
  <course>95.0</course>
  <speed>0.0</speed>
  <fix>3d</fix>
</trkpt>
<trkpt lat="33.8103132" lon="-118.3938671">
  <ele>-0.151</ele>
  <time>2026-09-01T01:13:15Z</time>
  <course>186.47</course>
  <speed>0.0282842712474619</speed>
  <fix>3d</fix>
</trkpt>
<trkpt lat="33.810313" lon="-118.393867">
  <ele>-0.14</ele>
  <time>2026-09-01T01:13:15Z</time>
  <course>95.0</course>
  <speed>0.0</speed>
  <fix>3d</fix>
</trkpt>
<trkpt lat="33.8103132" lon="-118.3938672">
  <ele>-0.146</ele>
  <time>2026-09-01T01:13:15Z</time>
  <course>186.46</course>
  <speed>0.0282842712474619</speed>
  <fix>3d</fix>
</trkpt>
<trkpt lat="33.810313" lon="-118.393867">
  <ele>-0.14</ele>
  <time>2026-09-01T01:13:15Z</time>
  <course>95.0</course>
  <speed>0.0</speed>
  <fix>3d</fix>
</trkpt>
<trkpt lat="33.8103132" lon="-118.3938672">
  <ele>-0.138</ele>
  <time>2026-09-01T01:13:15Z</time>
  <course>186.45</course>
  <speed>0.0282842712474619</speed>
  <fix>3d</fix>
</trkpt>
<trkpt lat="33.810313" lon="-118.393867">
  <ele>-0.14</ele>
  <time>2026-09-01T01:13:15Z</time>
  <course>95.0</course>
  <speed>0.0</speed>
  <fix>3d</fix>
</trkpt>
<trkpt lat="33.8103132" lon="-118.3938672">
  <ele>-0.134</ele>
  <time>2026-09-01T01:13:15Z</time>
  <course>186.45</course>
  <speed>0.0282842712474619</speed>
  <fix>3d</fix>
</trkpt>
<trkpt lat="33.810313" lon="-118.393867">
  <ele>-0.14</ele>
  <time>2026-09-01T01:13:15Z</time>
  <course>95.0</course>
  <speed>0.0</speed>
  <fix>3d</fix>
</trkpt>
<trkpt lat="33.8103132" lon="-118.3938672">
  <ele>-0.131</ele>
  <time>2026-09-01T01:13:15Z</time>
  <course>186.45</course>
  <speed>0.0282842712474619</speed>
  <fix>3d</fix>
</trkpt>
<trkpt lat="33.810313" lon="-118.393867">
  <ele>-0.13</ele>
  <time>2026-09-01T01:13:15Z</time>
  <course>95.0</course>
  <speed>0.0</speed>
  <fix>3d</fix>
</trkpt>
<trkpt lat="33.8103132" lon="-118.3938672">
  <ele>-0.122</ele>
  <time>2026-09-01T01:13:15Z</time>
  <course>186.44</course>
  <speed>0.03605551275463989</speed>
  <fix>3d</fix>
</trkpt>
<trkpt lat="33.810313" lon="-118.393867">
  <ele>-0.12</ele>
  <time>2026-09-01T01:13:15Z</time>
  <course>95.0</course>
  <speed>0.0</speed>
  <fix>3d</fix>
</trkpt>
<trkpt lat="33.8103132" lon="-118.3938672">
  <ele>-0.121</ele>
  <time>2026-09-01T01:13:15Z</time>
  <course>186.44</course>
  <speed>0.03605551275463989</speed>
  <fix>3d</fix>
</trkpt>
<trkpt lat="33.810313" lon="-118.393867">
  <ele>-0.12</ele>
  <time>2026-09-01T01:13:15Z</time>
  <course>95.0</course>
  <speed>0.0</speed>
  <fix>3d</fix>
</trkpt>
<trkpt lat="33.8103132" lon="-118.3938672">
  <ele>-0.123</ele>
  <time>2026-09-01T01:13:15Z</time>
  <course>186.43</course>
  <speed>0.03605551275463989</speed>
  <fix>3d</fix>
</trkpt>
<trkpt lat="33.810313" lon="-118.393867">
  <ele>-0.11</ele>
  <time>2026-09-01T01:13:15Z</time>
  <course>95.0</course>
  <speed>0.0</speed>
  <fix>3d</fix>
</trkpt>
<trkpt lat="33.8103132" lon="-118.3938672">
  <ele>-0.126</ele>
  <time>2026-09-01T01:13:15Z</time>
  <course>186.43</course>
  <speed>0.03605551275463989</speed>
  <fix>3d</fix>
</trkpt>
<trkpt lat="33.810313" lon="-118.393867">
  <ele>-0.11</ele>
  <time>2026-09-01T01:13:15Z</time>
  <course>95.0</course>
  <speed>0.0</speed>
  <fix>3d</fix>
</trkpt>
<trkpt lat="33.8103132" lon="-118.3938672">
  <ele>-0.13</ele>
  <time>2026-09-01T01:13:15Z</time>
  <course>186.43</course>
  <speed>0.03605551275463989</speed>
  <fix>3d</fix>
</trkpt>
<trkpt lat="33.810313" lon="-118.393867">
  <ele>-0.11</ele>
  <time>2026-09-01T01:13:15Z</time>
  <course>95.0</course>
  <speed>0.0</speed>
  <fix>3d</fix>
</trkpt>
<trkpt lat="33.8103132" lon="-118.3938672">
  <ele>-0.134</ele>
  <time>2026-09-01T01:13:15Z</time>
  <course>186.42</course>
  <speed>0.03605551275463989</speed>
  <fix>3d</fix>
</trkpt>
<trkpt lat="33.810313" lon="-118.393867">
  <ele>-0.11</ele>
  <time>2026-09-01T01:13:15Z</time>
  <course>95.0</course>
  <speed>0.0</speed>
  <fix>3d</fix>
</trkpt>
<trkpt lat="33.8103132" lon="-118.3938672">
  <ele>-0.137</ele>
  <time>2026-09-01T01:13:15Z</time>
  <course>186.42</course>
  <speed>0.03605551275463989</speed>
  <fix>3d</fix>
</trkpt>
<trkpt lat="33.810313" lon="-118.393867">
  <ele>-0.12</ele>
  <time>2026-09-01T01:13:15Z</time>
  <course>95.0</course>
  <speed>0.0</speed>
  <fix>3d</fix>
</trkpt>
<trkpt lat="33.8103132" lon="-118.3938672">
  <ele>-0.141</ele>
  <time>2026-09-01T01:13:15Z</time>
  <course>186.42</course>
  <speed>0.03605551275463989</speed>
  <fix>3d</fix>
</trkpt>
<trkpt lat="33.810313" lon="-118.393867">
  <ele>-0.12</ele>
  <time>2026-09-01T01:13:15Z</time>
  <course>95.0</course>
  <speed>0.0</speed>
  <fix>3d</fix>
</trkpt>
<trkpt lat="33.8103132" lon="-118.3938672">
  <ele>-0.145</ele>
  <time>2026-09-01T01:13:15Z</time>
  <course>186.42</course>
  <speed>0.03605551275463989</speed>
  <fix>3d</fix>
</trkpt>
<trkpt lat="33.810313" lon="-118.393867">
  <ele>-0.13</ele>
  <time>2026-09-01T01:13:15Z</time>
  <course>95.0</course>
  <speed>0.0</speed>
  <fix>3d</fix>
</trkpt>
<trkpt lat="33.8103132" lon="-118.3938672">
  <ele>-0.147</ele>
  <time>2026-09-01T01:13:15Z</time>
  <course>186.41</course>
  <speed>0.03605551275463989</speed>
  <fix>3d</fix>
</trkpt>
<trkpt lat="33.810313" lon="-118.393867">
  <ele>-0.13</ele>
  <time>2026-09-01T01:13:15Z</time>
  <course>95.0</course>
  <speed>0.0</speed>
  <fix>3d</fix>
</trkpt>
<trkpt lat="33.8103132" lon="-118.3938672">
  <ele>-0.148</ele>
  <time>2026-09-01T01:13:15Z</time>
  <course>186.41</course>
  <speed>0.03605551275463989</speed>
  <fix>3d</fix>
</trkpt>
<trkpt lat="33.810313" lon="-118.393867">
  <ele>-0.13</ele>
  <time>2026-09-01T01:13:15Z</time>
  <course>95.0</course>
  <speed>0.0</speed>
  <fix>3d</fix>
</trkpt>
<trkpt lat="33.8103132" lon="-118.3938672">
  <ele>-0.148</ele>
  <time>2026-09-01T01:13:15Z</time>
  <course>186.41</course>
  <speed>0.03605551275463989</speed>
  <fix>3d</fix>
</trkpt>
<trkpt lat="33.810313" lon="-118.393867">
  <ele>-0.13</ele>
  <time>2026-09-01T01:13:15Z</time>
  <course>95.0</course>
  <speed>0.0</speed>
  <fix>3d</fix>
</trkpt>
<trkpt lat="33.8103132" lon="-118.3938672">
  <ele>-0.147</ele>
  <time>2026-09-01T01:13:15Z</time>
  <course>186.4</course>
  <speed>0.03605551275463989</speed>
  <fix>3d</fix>
</trkpt>
<trkpt lat="33.810313" lon="-118.393867">
  <ele>-0.14</ele>
  <time>2026-09-01T01:13:15Z</time>
  <course>95.0</course>
  <speed>0.0</speed>
  <fix>3d</fix>
</trkpt>
<trkpt lat="33.8103132" lon="-118.3938672">
  <ele>-0.146</ele>
  <time>2026-09-01T01:13:15Z</time>
  <course>186.4</course>
  <speed>0.03605551275463989</speed>
  <fix>3d</fix>
</trkpt>
<trkpt lat="33.810313" lon="-118.393867">
  <ele>-0.14</ele>
  <time>2026-09-01T01:13:15Z</time>
  <course>95.0</course>
  <speed>0.0</speed>
  <fix>3d</fix>
</trkpt>
<trkpt lat="33.8103132" lon="-118.3938672">
  <ele>-0.143</ele>
  <time>2026-09-01T01:13:15Z</time>
  <course>186.4</course>
  <speed>0.03605551275463989</speed>
  <fix>3d</fix>
</trkpt>
<trkpt lat="33.810313" lon="-118.393867">
  <ele>-0.14</ele>
  <time>2026-09-01T01:13:15Z</time>
  <course>95.0</course>
  <speed>0.0</speed>
  <fix>3d</fix>
</trkpt>
<trkpt lat="33.8103132" lon="-118.3938672">
  <ele>-0.14</ele>
  <time>2026-09-01T01:13:15Z</time>
  <course>186.4</course>
  <speed>0.03605551275463989</speed>
  <fix>3d</fix>
</trkpt>
<trkpt lat="33.810313" lon="-118.393867">
  <ele>-0.14</ele>
  <time>2026-09-01T01:13:15Z</time>
  <course>95.0</course>
  <speed>0.0</speed>
  <fix>3d</fix>
</trkpt>
<trkpt lat="33.8103132" lon="-118.3938672">
  <ele>-0.137</ele>
  <time>2026-09-01T01:13:15Z</time>
  <course>186.39</course>
  <speed>0.03605551275463989</speed>
  <fix>3d</fix>
</trkpt>
<trkpt lat="33.810313" lon="-118.393867">
  <ele>-0.13</ele>
  <time>2026-09-01T01:13:15Z</time>
  <course>95.0</course>
  <speed>0.0</speed>
  <fix>3d</fix>
</trkpt>
<trkpt lat="33.8103132" lon="-118.3938672">
  <ele>-0.135</ele>
  <time>2026-09-01T01:13:15Z</time>
  <course>186.39</course>
  <speed>0.03605551275463989</speed>
  <fix>3d</fix>
</trkpt>
<trkpt lat="33.810313" lon="-118.393867">
  <ele>-0.13</ele>
  <time>2026-09-01T01:13:15Z</time>
  <course>95.0</course>
  <speed>0.0</speed>
  <fix>3d</fix>
</trkpt>
<trkpt lat="33.8103132" lon="-118.3938672">
  <ele>-0.132</ele>
  <time>2026-09-01T01:13:15Z</time>
  <course>186.39</course>
  <speed>0.03605551275463989</speed>
  <fix>3d</fix>
</trkpt>
<trkpt lat="33.810313" lon="-118.393867">
  <ele>-0.13</ele>
  <time>2026-09-01T01:13:15Z</time>
  <course>95.0</course>
  <speed>0.0</speed>
  <fix>3d</fix>
</trkpt>
<trkpt lat="33.8103132" lon="-118.3938672">
  <ele>-0.127</ele>
  <time>2026-09-01T01:13:15Z</time>
  <course>186.38</course>
  <speed>0.03605551275463989</speed>
  <fix>3d</fix>
</trkpt>
<trkpt lat="33.810313" lon="-118.393867">
  <ele>-0.13</ele>
  <time>2026-09-01T01:13:15Z</time>
  <course>95.0</course>
  <speed>0.0</speed>
  <fix>3d</fix>
</trkpt>
<trkpt lat="33.8103132" lon="-118.3938672">
  <ele>-0.123</ele>
  <time>2026-09-01T01:13:15Z</time>
  <course>186.38</course>
  <speed>0.03605551275463989</speed>
  <fix>3d</fix>
</trkpt>
<trkpt lat="33.810313" lon="-118.393867">
  <ele>-0.12</ele>
  <time>2026-09-01T01:13:15Z</time>
  <course>95.0</course>
  <speed>0.0</speed>
  <fix>3d</fix>
</trkpt>
<trkpt lat="33.8103132" lon="-118.3938672">
  <ele>-0.121</ele>
  <time>2026-09-01T01:13:15Z</time>
  <course>186.38</course>
  <speed>0.03605551275463989</speed>
  <fix>3d</fix>
</trkpt>
<trkpt lat="33.810313" lon="-118.393867">
  <ele>-0.12</ele>
  <time>2026-09-01T01:13:15Z</time>
  <course>95.0</course>
  <speed>0.0</speed>
  <fix>3d</fix>
</trkpt>
<trkpt lat="33.8103132" lon="-118.3938672">
  <ele>-0.12</ele>
  <time>2026-09-01T01:13:15Z</time>
  <course>186.38</course>
  <speed>0.03605551275463989</speed>
  <fix>3d</fix>
</trkpt>
<trkpt lat="33.810313" lon="-118.393867">
  <ele>-0.11</ele>
  <time>2026-09-01T01:13:15Z</time>
  <course>95.0</course>
  <speed>0.0</speed>
  <fix>3d</fix>
</trkpt>
<trkpt lat="33.8103132" lon="-118.3938672">
  <ele>-0.122</ele>
  <time>2026-09-01T01:13:15Z</time>
  <course>186.37</course>
  <speed>0.03605551275463989</speed>
  <fix>3d</fix>
</trkpt>
<trkpt lat="33.810313" lon="-118.393867">
  <ele>-0.11</ele>
  <time>2026-09-01T01:13:15Z</time>
  <course>95.0</course>
  <speed>0.0</speed>
  <fix>3d</fix>
</trkpt>
<trkpt lat="33.8103132" lon="-118.3938672">
  <ele>-0.126</ele>
  <time>2026-09-01T01:13:15Z</time>
  <course>186.37</course>
  <speed>0.03605551275463989</speed>
  <fix>3d</fix>
</trkpt>
<trkpt lat="33.810313" lon="-118.393867">
  <ele>-0.11</ele>
  <time>2026-09-01T01:13:15Z</time>
  <course>95.0</course>
  <speed>0.0</speed>
  <fix>3d</fix>
</trkpt>
<trkpt lat="33.8103132" lon="-118.3938672">
  <ele>-0.131</ele>
  <time>2026-09-01T01:13:15Z</time>
  <course>186.37</course>
  <speed>0.03605551275463989</speed>
  <fix>3d</fix>
</trkpt>
<trkpt lat="33.810313" lon="-118.393867">
  <ele>-0.11</ele>
  <time>2026-09-01T01:13:15Z</time>
  <course>95.0</course>
  <speed>0.0</speed>
  <fix>3d</fix>
</trkpt>
<trkpt lat="33.8103132" lon="-118.3938672">
  <ele>-0.134</ele>
  <time>2026-09-01T01:13:15Z</time>
  <course>186.36</course>
  <speed>0.03605551275463989</speed>
  <fix>3d</fix>
</trkpt>
<trkpt lat="33.810313" lon="-118.393867">
  <ele>-0.12</ele>
  <time>2026-09-01T01:13:15Z</time>
  <course>95.0</course>
  <speed>0.0</speed>
  <fix>3d</fix>
</trkpt>
<trkpt lat="33.8103132" lon="-118.3938672">
  <ele>-0.137</ele>
  <time>2026-09-01T01:13:15Z</time>
  <course>186.36</course>
  <speed>0.03605551275463989</speed>
  <fix>3d</fix>
</trkpt>
<trkpt lat="33.810313" lon="-118.393867">
  <ele>-0.12</ele>
  <time>2026-09-01T01:13:15Z</time>
  <course>95.0</course>
  <speed>0.0</speed>
  <fix>3d</fix>
</trkpt>
<trkpt lat="33.8103132" lon="-118.3938672">
  <ele>-0.139</ele>
  <time>2026-09-01T01:13:15Z</time>
  <course>186.36</course>
  <speed>0.03605551275463989</speed>
  <fix>3d</fix>
</trkpt>
<trkpt lat="33.810313" lon="-118.393867">
  <ele>-0.13</ele>
  <time>2026-09-01T01:13:15Z</time>
  <course>95.0</course>
  <speed>0.0</speed>
  <fix>3d</fix>
</trkpt>
<trkpt lat="33.8103132" lon="-118.3938672">
  <ele>-0.14</ele>
  <time>2026-09-01T01:13:15Z</time>
  <course>186.36</course>
  <speed>0.03605551275463989</speed>
  <fix>3d</fix>
</trkpt>
<trkpt lat="33.810313" lon="-118.393867">
  <ele>-0.13</ele>
  <time>2026-09-01T01:13:15Z</time>
  <course>95.0</course>
  <speed>0.0</speed>
  <fix>3d</fix>
</trkpt>
<trkpt lat="33.8103132" lon="-118.3938672">
  <ele>-0.14</ele>
  <time>2026-09-01T01:13:15Z</time>
  <course>186.35</course>
  <speed>0.03605551275463989</speed>
  <fix>3d</fix>
</trkpt>
<trkpt lat="33.810313" lon="-118.393867">
  <ele>-0.13</ele>
  <time>2026-09-01T01:13:15Z</time>
  <course>95.0</course>
  <speed>0.0</speed>
  <fix>3d</fix>
</trkpt>
<trkpt lat="33.8103132" lon="-118.3938672">
  <ele>-0.14</ele>
  <time>2026-09-01T01:13:15Z</time>
  <course>186.35</course>
  <speed>0.03605551275463989</speed>
  <fix>3d</fix>
</trkpt>
<trkpt lat="33.810313" lon="-118.393867">
  <ele>-0.13</ele>
  <time>2026-09-01T01:13:15Z</time>
  <course>95.0</course>
  <speed>0.0</speed>
  <fix>3d</fix>
</trkpt>
<trkpt lat="33.8103132" lon="-118.3938672">
  <ele>-0.138</ele>
  <time>2026-09-01T01:13:15Z</time>
  <course>186.35</course>
  <speed>0.03605551275463989</speed>
  <fix>3d</fix>
</trkpt>
<trkpt lat="33.810313" lon="-118.393867">
  <ele>-0.13</ele>
  <time>2026-09-01T01:13:15Z</time>
  <course>95.0</course>
  <speed>0.0</speed>
  <fix>3d</fix>
</trkpt>
<trkpt lat="33.8103132" lon="-118.3938672">
  <ele>-0.135</ele>
  <time>2026-09-01T01:13:15Z</time>
  <course>186.35</course>
  <speed>0.03605551275463989</speed>
  <fix>3d</fix>
</trkpt>
<trkpt lat="33.810313" lon="-118.393867">
  <ele>-0.13</ele>
  <time>2026-09-01T01:13:15Z</time>
  <course>95.0</course>
  <speed>0.0</speed>
  <fix>3d</fix>
</trkpt>
<trkpt lat="33.8103132" lon="-118.3938672">
  <ele>-0.132</ele>
  <time>2026-09-01T01:13:15Z</time>
  <course>186.34</course>
  <speed>0.03605551275463989</speed>
  <fix>3d</fix>
</trkpt>
<trkpt lat="33.810313" lon="-118.393867">
  <ele>-0.13</ele>
  <time>2026-09-01T01:13:15Z</time>
  <course>95.0</course>
  <speed>0.0</speed>
  <fix>3d</fix>
</trkpt>
<trkpt lat="33.8103132" lon="-118.3938672">
  <ele>-0.129</ele>
  <time>2026-09-01T01:13:15Z</time>
  <course>186.34</course>
  <speed>0.03605551275463989</speed>
  <fix>3d</fix>
</trkpt>
<trkpt lat="33.810313" lon="-118.393867">
  <ele>-0.13</ele>
  <time>2026-09-01T01:13:15Z</time>
  <course>95.0</course>
  <speed>0.0</speed>
  <fix>3d</fix>
</trkpt>
<trkpt lat="33.8103132" lon="-118.3938672">
  <ele>-0.124</ele>
  <time>2026-09-01T01:13:15Z</time>
  <course>186.34</course>
  <speed>0.03605551275463989</speed>
  <fix>3d</fix>
</trkpt>
<trkpt lat="33.810313" lon="-118.393867">
  <ele>-0.12</ele>
  <time>2026-09-01T01:13:15Z</time>
  <course>95.0</course>
  <speed>0.0</speed>
  <fix>3d</fix>
</trkpt>
<trkpt lat="33.8103132" lon="-118.3938672">
  <ele>-0.119</ele>
  <time>2026-09-01T01:13:15Z</time>
  <course>186.34</course>
  <speed>0.03605551275463989</speed>
  <fix>3d</fix>
</trkpt>
<trkpt lat="33.810313" lon="-118.393867">
  <ele>-0.12</ele>
  <time>2026-09-01T01:13:15Z</time>
  <course>95.0</course>
  <speed>0.0</speed>
  <fix>3d</fix>
</trkpt>
<trkpt lat="33.8103132" lon="-118.3938672">
  <ele>-0.116</ele>
  <time>2026-09-01T01:13:15Z</time>
  <course>186.33</course>
  <speed>0.03605551275463989</speed>
  <fix>3d</fix>
</trkpt>
<trkpt lat="33.810313" lon="-118.393867">
  <ele>-0.12</ele>
  <time>2026-09-01T01:13:15Z</time>
  <course>95.0</course>
  <speed>0.0</speed>
  <fix>3d</fix>
</trkpt>
<trkpt lat="33.8103132" lon="-118.3938672">
  <ele>-0.115</ele>
  <time>2026-09-01T01:13:15Z</time>
  <course>186.33</course>
  <speed>0.03605551275463989</speed>
  <fix>3d</fix>
</trkpt>
<trkpt lat="33.810313" lon="-118.393867">
  <ele>-0.12</ele>
  <time>2026-09-01T01:13:15Z</time>
  <course>95.0</course>
  <speed>0.0</speed>
  <fix>3d</fix>
</trkpt>
<trkpt lat="33.8103132" lon="-118.3938672">
  <ele>-0.115</ele>
  <time>2026-09-01T01:13:15Z</time>
  <course>186.33</course>
  <speed>0.03605551275463989</speed>
  <fix>3d</fix>
</trkpt>
<trkpt lat="33.810313" lon="-118.393867">
  <ele>-0.12</ele>
  <time>2026-09-01T01:13:15Z</time>
  <course>95.0</course>
  <speed>0.0</speed>
  <fix>3d</fix>
</trkpt>
<trkpt lat="33.8103132" lon="-118.3938672">
  <ele>-0.118</ele>
  <time>2026-09-01T01:13:15Z</time>
  <course>186.33</course>
  <speed>0.03605551275463989</speed>
  <fix>3d</fix>
</trkpt>
<trkpt lat="33.810313" lon="-118.393867">
  <ele>-0.12</ele>
  <time>2026-09-01T01:13:15Z</time>
  <course>95.0</course>
  <speed>0.0</speed>
  <fix>3d</fix>
</trkpt>
<trkpt lat="33.8103132" lon="-118.3938672">
  <ele>-0.122</ele>
  <time>2026-09-01T01:13:15Z</time>
  <course>186.33</course>
  <speed>0.03605551275463989</speed>
  <fix>3d</fix>
</trkpt>
<trkpt lat="33.810313" lon="-118.393867">
  <ele>-0.12</ele>
  <time>2026-09-01T01:13:15Z</time>
  <course>95.0</course>
  <speed>0.0</speed>
  <fix>3d</fix>
</trkpt>
<trkpt lat="33.8103132" lon="-118.3938672">
  <ele>-0.125</ele>
  <time>2026-09-01T01:13:15Z</time>
  <course>186.32</course>
  <speed>0.03605551275463989</speed>
  <fix>3d</fix>
</trkpt>
<trkpt lat="33.810313" lon="-118.393867">
  <ele>-0.12</ele>
  <time>2026-09-01T01:13:15Z</time>
  <course>95.0</course>
  <speed>0.0</speed>
  <fix>3d</fix>
</trkpt>
<trkpt lat="33.8103132" lon="-118.3938672">
  <ele>-0.128</ele>
  <time>2026-09-01T01:13:15Z</time>
  <course>186.32</course>
  <speed>0.03605551275463989</speed>
  <fix>3d</fix>
</trkpt>
<trkpt lat="33.810313" lon="-118.393867">
  <ele>-0.12</ele>
  <time>2026-09-01T01:13:15Z</time>
  <course>95.0</course>
  <speed>0.0</speed>
  <fix>3d</fix>
</trkpt>
<trkpt lat="33.8103132" lon="-118.3938672">
  <ele>-0.131</ele>
  <time>2026-09-01T01:13:15Z</time>
  <course>186.32</course>
  <speed>0.0282842712474619</speed>
  <fix>3d</fix>
</trkpt>
<trkpt lat="33.810313" lon="-118.393867">
  <ele>-0.12</ele>
  <time>2026-09-01T01:13:15Z</time>
  <course>95.0</course>
  <speed>0.0</speed>
  <fix>3d</fix>
</trkpt>
<trkpt lat="33.8103132" lon="-118.3938672">
  <ele>-0.132</ele>
  <time>2026-09-01T01:13:15Z</time>
  <course>186.32</course>
  <speed>0.0282842712474619</speed>
  <fix>3d</fix>
</trkpt>
<trkpt lat="33.810313" lon="-118.393867">
  <ele>-0.13</ele>
  <time>2026-09-01T01:13:15Z</time>
  <course>95.0</course>
  <speed>0.0</speed>
  <fix>3d</fix>
</trkpt>
<trkpt lat="33.8103132" lon="-118.3938672">
  <ele>-0.151</ele>
  <time>2026-09-01T01:13:15Z</time>
  <course>186.31</course>
  <speed>0.0282842712474619</speed>
  <fix>3d</fix>
</trkpt>
<trkpt lat="33.810313" lon="-118.393867">
  <ele>-0.13</ele>
  <time>2026-09-01T01:13:15Z</time>
  <course>95.0</course>
  <speed>0.0</speed>
  <fix>3d</fix>
</trkpt>
<trkpt lat="33.8103132" lon="-118.3938672">
  <ele>-0.177</ele>
  <time>2026-09-01T01:13:15Z</time>
  <course>186.31</course>
  <speed>0.0282842712474619</speed>
  <fix>3d</fix>
</trkpt>
<trkpt lat="33.810313" lon="-118.393867">
  <ele>-0.14</ele>
  <time>2026-09-01T01:13:15Z</time>
  <course>275.0</course>
  <speed>0.0</speed>
  <fix>3d</fix>
</trkpt>
<trkpt lat="33.8103132" lon="-118.3938672">
  <ele>-0.201</ele>
  <time>2026-09-01T01:13:15Z</time>
  <course>186.31</course>
  <speed>0.0282842712474619</speed>
  <fix>3d</fix>
</trkpt>
<trkpt lat="33.810313" lon="-118.393867">
  <ele>-0.14</ele>
  <time>2026-09-01T01:13:15Z</time>
  <course>275.0</course>
  <speed>0.0</speed>
  <fix>3d</fix>
</trkpt>
<trkpt lat="33.8103132" lon="-118.3938672">
  <ele>-0.22</ele>
  <time>2026-09-01T01:13:15Z</time>
  <course>186.31</course>
  <speed>0.0282842712474619</speed>
  <fix>3d</fix>
</trkpt>
<trkpt lat="33.810313" lon="-118.393867">
  <ele>-0.17</ele>
  <time>2026-09-01T01:13:15Z</time>
  <course>275.0</course>
  <speed>0.0</speed>
  <fix>3d</fix>
</trkpt>
<trkpt lat="33.8103132" lon="-118.3938672">
  <ele>-0.221</ele>
  <time>2026-09-01T01:13:15Z</time>
  <course>186.31</course>
  <speed>0.0282842712474619</speed>
  <fix>3d</fix>
</trkpt>
<trkpt lat="33.8103132" lon="-118.3938672">
  <ele>-0.234</ele>
  <time>2026-09-01T01:13:15Z</time>
  <course>186.3</course>
  <speed>0.0282842712474619</speed>
  <fix>3d</fix>
</trkpt>
<trkpt lat="33.810313" lon="-118.393867">
  <ele>-0.17</ele>
  <time>2026-09-01T01:13:15Z</time>
  <course>275.0</course>
  <speed>0.0</speed>
  <fix>3d</fix>
</trkpt>
<trkpt lat="33.8103132" lon="-118.3938672">
  <ele>-0.244</ele>
  <time>2026-09-01T01:13:15Z</time>
  <course>186.3</course>
  <speed>0.0282842712474619</speed>
  <fix>3d</fix>
</trkpt>
<trkpt lat="33.810313" lon="-118.393867">
  <ele>-0.21</ele>
  <time>2026-09-01T01:13:15Z</time>
  <course>94.99</course>
  <speed>0.0</speed>
  <fix>3d</fix>
</trkpt>
<trkpt lat="33.8103132" lon="-118.3938672">
  <ele>-0.26</ele>
  <time>2026-09-01T01:13:15Z</time>
  <course>186.3</course>
  <speed>0.0282842712474619</speed>
  <fix>3d</fix>
</trkpt>
<trkpt lat="33.810313" lon="-118.393867">
  <ele>-0.21</ele>
  <time>2026-09-01T01:13:15Z</time>
  <course>94.99</course>
  <speed>0.0</speed>
  <fix>3d</fix>
</trkpt>
<trkpt lat="33.8103132" lon="-118.3938672">
  <ele>-0.295</ele>
  <time>2026-09-01T01:13:15Z</time>
  <course>186.3</course>
  <speed>0.0282842712474619</speed>
  <fix>3d</fix>
</trkpt>
<trkpt lat="33.810313" lon="-118.393867">
  <ele>-0.23</ele>
  <time>2026-09-01T01:13:15Z</time>
  <course>275.0</course>
  <speed>0.0</speed>
  <fix>3d</fix>
</trkpt>
<trkpt lat="33.8103132" lon="-118.3938672">
  <ele>-0.296</ele>
  <time>2026-09-01T01:13:15Z</time>
  <course>186.3</course>
  <speed>0.0282842712474619</speed>
  <fix>3d</fix>
</trkpt>
<trkpt lat="33.8103132" lon="-118.3938672">
  <ele>-0.349</ele>
  <time>2026-09-01T01:13:15Z</time>
  <course>186.29</course>
  <speed>0.0282842712474619</speed>
  <fix>3d</fix>
</trkpt>
<trkpt lat="33.810313" lon="-118.393867">
  <ele>-0.23</ele>
  <time>2026-09-01T01:13:15Z</time>
  <course>275.0</course>
  <speed>0.0</speed>
  <fix>3d</fix>
</trkpt>
<trkpt lat="33.8103132" lon="-118.3938672">
  <ele>-0.351</ele>
  <time>2026-09-01T01:13:15Z</time>
  <course>186.29</course>
  <speed>0.0282842712474619</speed>
  <fix>3d</fix>
</trkpt>
<trkpt lat="33.8103132" lon="-118.3938672">
  <ele>-0.417</ele>
  <time>2026-09-01T01:13:15Z</time>
  <course>186.29</course>
  <speed>0.0282842712474619</speed>
  <fix>3d</fix>
</trkpt>
<trkpt lat="33.810313" lon="-118.393867">
  <ele>-0.29</ele>
  <time>2026-09-01T01:13:15Z</time>
  <course>275.0</course>
  <speed>0.0</speed>
  <fix>3d</fix>
</trkpt>
<trkpt lat="33.8103132" lon="-118.3938672">
  <ele>-0.439</ele>
  <time>2026-09-01T01:13:15Z</time>
  <course>186.29</course>
  <speed>0.0282842712474619</speed>
  <fix>3d</fix>
</trkpt>
<trkpt lat="33.8103132" lon="-118.3938672">
  <ele>-0.494</ele>
  <time>2026-09-01T01:13:15Z</time>
  <course>186.29</course>
  <speed>0.0282842712474619</speed>
  <fix>3d</fix>
</trkpt>
<trkpt lat="33.810313" lon="-118.393867">
  <ele>-0.29</ele>
  <time>2026-09-01T01:13:15Z</time>
  <course>275.0</course>
  <speed>0.0</speed>
  <fix>3d</fix>
</trkpt>
<trkpt lat="33.8103132" lon="-118.3938672">
  <ele>-0.519</ele>
  <time>2026-09-01T01:13:15Z</time>
  <course>186.29</course>
  <speed>0.0282842712474619</speed>
  <fix>3d</fix>
</trkpt>
<trkpt lat="33.8103132" lon="-118.3938672">
  <ele>-0.579</ele>
  <time>2026-09-01T01:13:15Z</time>
  <course>186.29</course>
  <speed>0.0282842712474619</speed>
  <fix>3d</fix>
</trkpt>
<trkpt lat="33.810313" lon="-118.393867">
  <ele>-0.41</ele>
  <time>2026-09-01T01:13:15Z</time>
  <course>275.0</course>
  <speed>0.0</speed>
  <fix>3d</fix>
</trkpt>
<trkpt lat="33.8103132" lon="-118.3938672">
  <ele>-0.606</ele>
  <time>2026-09-01T01:13:15Z</time>
  <course>186.29</course>
  <speed>0.022360679774997897</speed>
  <fix>3d</fix>
</trkpt>
<trkpt lat="33.8103132" lon="-118.3938672">
  <ele>-0.669</ele>
  <time>2026-09-01T01:13:15Z</time>
  <course>186.29</course>
  <speed>0.022360679774997897</speed>
  <fix>3d</fix>
</trkpt>
<trkpt lat="33.810313" lon="-118.393867">
  <ele>-0.41</ele>
  <time>2026-09-01T01:13:15Z</time>
  <course>275.0</course>
  <speed>0.0</speed>
  <fix>3d</fix>
</trkpt>
<trkpt lat="33.8103132" lon="-118.3938672">
  <ele>-0.706</ele>
  <time>2026-09-01T01:13:15Z</time>
  <course>186.29</course>
  <speed>0.022360679774997897</speed>
  <fix>3d</fix>
</trkpt>
<trkpt lat="33.8103132" lon="-118.3938672">
  <ele>-0.761</ele>
  <time>2026-09-01T01:13:15Z</time>
  <course>184.66</course>
  <speed>0.022360679774997897</speed>
  <fix>3d</fix>
</trkpt>
<trkpt lat="33.810313" lon="-118.393867">
  <ele>-0.56</ele>
  <time>2026-09-01T01:13:15Z</time>
  <course>275.0</course>
  <speed>0.0</speed>
  <fix>3d</fix>
</trkpt>
<trkpt lat="33.8103132" lon="-118.3938672">
  <ele>-0.764</ele>
  <time>2026-09-01T01:13:15Z</time>
  <course>184.66</course>
  <speed>0.022360679774997897</speed>
  <fix>3d</fix>
</trkpt>
<trkpt lat="33.8103132" lon="-118.3938672">
  <ele>-0.857</ele>
  <time>2026-09-01T01:13:15Z</time>
  <course>184.65</course>
  <speed>0.01414213562373095</speed>
  <fix>3d</fix>
</trkpt>
<trkpt lat="33.810313" lon="-118.393867">
  <ele>-0.56</ele>
  <time>2026-09-01T01:13:15Z</time>
  <course>275.0</course>
  <speed>0.0</speed>
  <fix>3d</fix>
</trkpt>
<trkpt lat="33.8103132" lon="-118.3938672">
  <ele>-0.86</ele>
  <time>2026-09-01T01:13:15Z</time>
  <course>184.65</course>
  <speed>0.01414213562373095</speed>
  <fix>3d</fix>
</trkpt>
<trkpt lat="33.8103132" lon="-118.3938672">
  <ele>-0.954</ele>
  <time>2026-09-01T01:13:15Z</time>
  <course>184.65</course>
  <speed>0.01414213562373095</speed>
  <fix>3d</fix>
</trkpt>
<trkpt lat="33.810313" lon="-118.393867">
  <ele>-0.73</ele>
  <time>2026-09-01T01:13:15Z</time>
  <course>275.0</course>
  <speed>0.0</speed>
  <fix>3d</fix>
</trkpt>
<trkpt lat="33.8103132" lon="-118.3938672">
  <ele>-0.957</ele>
  <time>2026-09-01T01:13:15Z</time>
  <course>184.65</course>
  <speed>0.01414213562373095</speed>
  <fix>3d</fix>
</trkpt>
<trkpt lat="33.8103132" lon="-118.3938672">
  <ele>-1.051</ele>
  <time>2026-09-01T01:13:15Z</time>
  <course>184.65</course>
  <speed>0.01414213562373095</speed>
  <fix>3d</fix>
</trkpt>
<trkpt lat="33.810313" lon="-118.393867">
  <ele>-0.73</ele>
  <time>2026-09-01T01:13:15Z</time>
  <course>275.0</course>
  <speed>0.0</speed>
  <fix>3d</fix>
</trkpt>
<trkpt lat="33.8103132" lon="-118.3938672">
  <ele>-1.054</ele>
  <time>2026-09-01T01:13:15Z</time>
  <course>184.65</course>
  <speed>0.01414213562373095</speed>
  <fix>3d</fix>
</trkpt>
<trkpt lat="33.8103132" lon="-118.3938672">
  <ele>-1.148</ele>
  <time>2026-09-01T01:13:15Z</time>
  <course>184.65</course>
  <speed>0.01414213562373095</speed>
  <fix>3d</fix>
</trkpt>
<trkpt lat="33.810313" lon="-118.393867">
  <ele>-0.91</ele>
  <time>2026-09-01T01:13:15Z</time>
  <course>275.0</course>
  <speed>0.0</speed>
  <fix>3d</fix>
</trkpt>
<trkpt lat="33.8103132" lon="-118.3938672">
  <ele>-1.153</ele>
  <time>2026-09-01T01:13:15Z</time>
  <course>184.65</course>
  <speed>0.01414213562373095</speed>
  <fix>3d</fix>
</trkpt>
<trkpt lat="33.8103132" lon="-118.3938672">
  <ele>-1.246</ele>
  <time>2026-09-01T01:13:15Z</time>
  <course>184.64</course>
  <speed>0.01414213562373095</speed>
  <fix>3d</fix>
</trkpt>
<trkpt lat="33.810313" lon="-118.393867">
  <ele>-0.91</ele>
  <time>2026-09-01T01:13:15Z</time>
  <course>275.0</course>
  <speed>0.0</speed>
  <fix>3d</fix>
</trkpt>
<trkpt lat="33.8103132" lon="-118.3938672">
  <ele>-1.251</ele>
  <time>2026-09-01T01:13:15Z</time>
  <course>184.64</course>
  <speed>0.01414213562373095</speed>
  <fix>3d</fix>
</trkpt>
<trkpt lat="33.8103132" lon="-118.3938672">
  <ele>-1.343</ele>
  <time>2026-09-01T01:13:15Z</time>
  <course>184.64</course>
  <speed>0.01414213562373095</speed>
  <fix>3d</fix>
</trkpt>
<trkpt lat="33.810313" lon="-118.393867">
  <ele>-1.1</ele>
  <time>2026-09-01T01:13:15Z</time>
  <course>275.0</course>
  <speed>0.0</speed>
  <fix>3d</fix>
</trkpt>
<trkpt lat="33.8103132" lon="-118.3938672">
  <ele>-1.346</ele>
  <time>2026-09-01T01:13:15Z</time>
  <course>184.64</course>
  <speed>0.01414213562373095</speed>
  <fix>3d</fix>
</trkpt>
<trkpt lat="33.8103132" lon="-118.3938672">
  <ele>-1.442</ele>
  <time>2026-09-01T01:13:15Z</time>
  <course>184.63</course>
  <speed>0.01414213562373095</speed>
  <fix>3d</fix>
</trkpt>
<trkpt lat="33.810313" lon="-118.393867">
  <ele>-1.1</ele>
  <time>2026-09-01T01:13:15Z</time>
  <course>275.0</course>
  <speed>0.0</speed>
  <fix>3d</fix>
</trkpt>
<trkpt lat="33.8103132" lon="-118.3938672">
  <ele>-1.445</ele>
  <time>2026-09-01T01:13:15Z</time>
  <course>184.63</course>
  <speed>0.01414213562373095</speed>
  <fix>3d</fix>
</trkpt>
<trkpt lat="33.8103132" lon="-118.3938672">
  <ele>-1.542</ele>
  <time>2026-09-01T01:13:15Z</time>
  <course>184.63</course>
  <speed>0.01414213562373095</speed>
  <fix>3d</fix>
</trkpt>
<trkpt lat="33.810313" lon="-118.393867">
  <ele>-1.28</ele>
  <time>2026-09-01T01:13:15Z</time>
  <course>275.0</course>
  <speed>0.0</speed>
  <fix>3d</fix>
</trkpt>
<trkpt lat="33.8103132" lon="-118.3938672">
  <ele>-1.544</ele>
  <time>2026-09-01T01:13:15Z</time>
  <course>184.63</course>
  <speed>0.01414213562373095</speed>
  <fix>3d</fix>
</trkpt>
<trkpt lat="33.8103132" lon="-118.3938672">
  <ele>-1.641</ele>
  <time>2026-09-01T01:13:15Z</time>
  <course>184.63</course>
  <speed>0.01414213562373095</speed>
  <fix>3d</fix>
</trkpt>
<trkpt lat="33.810313" lon="-118.393867">
  <ele>-1.28</ele>
  <time>2026-09-01T01:13:15Z</time>
  <course>275.0</course>
  <speed>0.0</speed>
  <fix>3d</fix>
</trkpt>
<trkpt lat="33.8103132" lon="-118.3938672">
  <ele>-1.643</ele>
  <time>2026-09-01T01:13:15Z</time>
  <course>184.63</course>
  <speed>0.01414213562373095</speed>
  <fix>3d</fix>
</trkpt>
<trkpt lat="33.8103132" lon="-118.3938672">
  <ele>-1.739</ele>
  <time>2026-09-01T01:13:15Z</time>
  <course>184.62</course>
  <speed>0.01414213562373095</speed>
  <fix>3d</fix>
</trkpt>
<trkpt lat="33.810313" lon="-118.393867">
  <ele>-1.47</ele>
  <time>2026-09-01T01:13:15Z</time>
  <course>275.0</course>
  <speed>0.0</speed>
  <fix>3d</fix>
</trkpt>
<trkpt lat="33.8103132" lon="-118.3938672">
  <ele>-1.741</ele>
  <time>2026-09-01T01:13:15Z</time>
  <course>184.62</course>
  <speed>0.01414213562373095</speed>
  <fix>3d</fix>
</trkpt>
<trkpt lat="33.8103132" lon="-118.3938672">
  <ele>-1.837</ele>
  <time>2026-09-01T01:13:15Z</time>
  <course>184.62</course>
  <speed>0.01414213562373095</speed>
  <fix>3d</fix>
</trkpt>
<trkpt lat="33.810313" lon="-118.393867">
  <ele>-1.47</ele>
  <time>2026-09-01T01:13:15Z</time>
  <course>275.0</course>
  <speed>0.0</speed>
  <fix>3d</fix>
</trkpt>
<trkpt lat="33.8103132" lon="-118.3938672">
  <ele>-1.839</ele>
  <time>2026-09-01T01:13:15Z</time>
  <course>184.62</course>
  <speed>0.01414213562373095</speed>
  <fix>3d</fix>
</trkpt>
<trkpt lat="33.8103132" lon="-118.3938672">
  <ele>-1.934</ele>
  <time>2026-09-01T01:13:15Z</time>
  <course>184.62</course>
  <speed>0.01414213562373095</speed>
  <fix>3d</fix>
</trkpt>
<trkpt lat="33.810313" lon="-118.393867">
  <ele>-1.66</ele>
  <time>2026-09-01T01:13:15Z</time>
  <course>275.0</course>
  <speed>0.0</speed>
  <fix>3d</fix>
</trkpt>
<trkpt lat="33.8103132" lon="-118.3938672">
  <ele>-1.968</ele>
  <time>2026-09-01T01:13:15Z</time>
  <course>184.62</course>
  <speed>0.01414213562373095</speed>
  <fix>3d</fix>
</trkpt>
<trkpt lat="33.8103132" lon="-118.3938672">
  <ele>-2.032</ele>
  <time>2026-09-01T01:13:15Z</time>
  <course>184.62</course>
  <speed>0.01414213562373095</speed>
  <fix>3d</fix>
</trkpt>
<trkpt lat="33.810313" lon="-118.393867">
  <ele>-1.66</ele>
  <time>2026-09-01T01:13:15Z</time>
  <course>275.0</course>
  <speed>0.0</speed>
  <fix>3d</fix>
</trkpt>
<trkpt lat="33.8103132" lon="-118.3938672">
  <ele>-2.062</ele>
  <time>2026-09-01T01:13:15Z</time>
  <course>184.62</course>
  <speed>0.01414213562373095</speed>
  <fix>3d</fix>
</trkpt>
<trkpt lat="33.8103132" lon="-118.3938672">
  <ele>-2.13</ele>
  <time>2026-09-01T01:13:15Z</time>
  <course>184.62</course>
  <speed>0.01414213562373095</speed>
  <fix>3d</fix>
</trkpt>
<trkpt lat="33.810313" lon="-118.393867">
  <ele>-1.84</ele>
  <time>2026-09-01T01:13:15Z</time>
  <course>275.0</course>
  <speed>0.0</speed>
  <fix>3d</fix>
</trkpt>
<trkpt lat="33.8103132" lon="-118.3938672">
  <ele>-2.16</ele>
  <time>2026-09-01T01:13:15Z</time>
  <course>184.63</course>
  <speed>0.01414213562373095</speed>
  <fix>3d</fix>
</trkpt>
<trkpt lat="33.8103132" lon="-118.3938672">
  <ele>-2.228</ele>
  <time>2026-09-01T01:13:15Z</time>
  <course>184.63</course>
  <speed>0.01414213562373095</speed>
  <fix>3d</fix>
</trkpt>
<trkpt lat="33.810313" lon="-118.393867">
  <ele>-1.84</ele>
  <time>2026-09-01T01:13:15Z</time>
  <course>275.0</course>
  <speed>0.0</speed>
  <fix>3d</fix>
</trkpt>
<trkpt lat="33.8103132" lon="-118.3938672">
  <ele>-2.257</ele>
  <time>2026-09-01T01:13:15Z</time>
  <course>184.63</course>
  <speed>0.01414213562373095</speed>
  <fix>3d</fix>
</trkpt>
<trkpt lat="33.8103132" lon="-118.3938672">
  <ele>-2.325</ele>
  <time>2026-09-01T01:13:15Z</time>
  <course>184.64</course>
  <speed>0.01414213562373095</speed>
  <fix>3d</fix>
</trkpt>
<trkpt lat="33.810313" lon="-118.393867">
  <ele>-2.03</ele>
  <time>2026-09-01T01:13:15Z</time>
  <course>275.0</course>
  <speed>0.0</speed>
  <fix>3d</fix>
</trkpt>
<trkpt lat="33.8103132" lon="-118.3938672">
  <ele>-2.327</ele>
  <time>2026-09-01T01:13:15Z</time>
  <course>184.64</course>
  <speed>0.01414213562373095</speed>
  <fix>3d</fix>
</trkpt>
<trkpt lat="33.8103132" lon="-118.3938672">
  <ele>-2.421</ele>
  <time>2026-09-01T01:13:15Z</time>
  <course>184.64</course>
  <speed>0.01414213562373095</speed>
  <fix>3d</fix>
</trkpt>
<trkpt lat="33.810313" lon="-118.393867">
  <ele>-2.03</ele>
  <time>2026-09-01T01:13:15Z</time>
  <course>275.0</course>
  <speed>0.0</speed>
  <fix>3d</fix>
</trkpt>
<trkpt lat="33.8103132" lon="-118.3938672">
  <ele>-2.45</ele>
  <time>2026-09-01T01:13:15Z</time>
  <course>184.64</course>
  <speed>0.01414213562373095</speed>
  <fix>3d</fix>
</trkpt>
<trkpt lat="33.8103132" lon="-118.3938672">
  <ele>-2.519</ele>
  <time>2026-09-01T01:13:15Z</time>
  <course>184.65</course>
  <speed>0.01414213562373095</speed>
  <fix>3d</fix>
</trkpt>
<trkpt lat="33.810313" lon="-118.393867">
  <ele>-2.22</ele>
  <time>2026-09-01T01:13:15Z</time>
  <course>275.0</course>
  <speed>0.0</speed>
  <fix>3d</fix>
</trkpt>
<trkpt lat="33.8103132" lon="-118.3938672">
  <ele>-2.548</ele>
  <time>2026-09-01T01:13:15Z</time>
  <course>184.65</course>
  <speed>0.01414213562373095</speed>
  <fix>3d</fix>
</trkpt>
<trkpt lat="33.8103132" lon="-118.3938672">
  <ele>-2.616</ele>
  <time>2026-09-01T01:13:15Z</time>
  <course>184.65</course>
  <speed>0.01414213562373095</speed>
  <fix>3d</fix>
</trkpt>
<trkpt lat="33.810313" lon="-118.393867">
  <ele>-2.22</ele>
  <time>2026-09-01T01:13:15Z</time>
  <course>275.0</course>
  <speed>0.0</speed>
  <fix>3d</fix>
</trkpt>
<trkpt lat="33.8103132" lon="-118.3938672">
  <ele>-2.646</ele>
  <time>2026-09-01T01:13:15Z</time>
  <course>184.65</course>
  <speed>0.01414213562373095</speed>
  <fix>3d</fix>
</trkpt>
<trkpt lat="33.8103132" lon="-118.3938672">
  <ele>-2.714</ele>
  <time>2026-09-01T01:13:15Z</time>
  <course>184.66</course>
  <speed>0.01414213562373095</speed>
  <fix>3d</fix>
</trkpt>
<trkpt lat="33.810313" lon="-118.393867">
  <ele>-2.41</ele>
  <time>2026-09-01T01:13:15Z</time>
  <course>275.0</course>
  <speed>0.0</speed>
  <fix>3d</fix>
</trkpt>
<trkpt lat="33.8103132" lon="-118.3938672">
  <ele>-2.743</ele>
  <time>2026-09-01T01:13:15Z</time>
  <course>184.66</course>
  <speed>0.01414213562373095</speed>
  <fix>3d</fix>
</trkpt>
<trkpt lat="33.8103132" lon="-118.3938672">
  <ele>-2.812</ele>
  <time>2026-09-01T01:13:15Z</time>
  <course>184.66</course>
  <speed>0.01414213562373095</speed>
  <fix>3d</fix>
</trkpt>
<trkpt lat="33.810313" lon="-118.393867">
  <ele>-2.41</ele>
  <time>2026-09-01T01:13:15Z</time>
  <course>275.0</course>
  <speed>0.0</speed>
  <fix>3d</fix>
</trkpt>
<trkpt lat="33.8103132" lon="-118.3938672">
  <ele>-2.842</ele>
  <time>2026-09-01T01:13:15Z</time>
  <course>184.66</course>
  <speed>0.01414213562373095</speed>
  <fix>3d</fix>
</trkpt>
<trkpt lat="33.8103132" lon="-118.3938672">
  <ele>-2.911</ele>
  <time>2026-09-01T01:13:15Z</time>
  <course>184.66</course>
  <speed>0.01414213562373095</speed>
  <fix>3d</fix>
</trkpt>
<trkpt lat="33.810313" lon="-118.393867">
  <ele>-2.6</ele>
  <time>2026-09-01T01:13:15Z</time>
  <course>275.0</course>
  <speed>0.0</speed>
  <fix>3d</fix>
</trkpt>
<trkpt lat="33.8103132" lon="-118.3938672">
  <ele>-2.94</ele>
  <time>2026-09-01T01:13:15Z</time>
  <course>184.66</course>
  <speed>0.01414213562373095</speed>
  <fix>3d</fix>
</trkpt>
<trkpt lat="33.8103132" lon="-118.3938672">
  <ele>-3.008</ele>
  <time>2026-09-01T01:13:15Z</time>
  <course>184.67</course>
  <speed>0.01414213562373095</speed>
  <fix>3d</fix>
</trkpt>
<trkpt lat="33.810313" lon="-118.393867">
  <ele>-2.6</ele>
  <time>2026-09-01T01:13:15Z</time>
  <course>275.0</course>
  <speed>0.0</speed>
  <fix>3d</fix>
</trkpt>
<trkpt lat="33.8103132" lon="-118.3938672">
  <ele>-3.037</ele>
  <time>2026-09-01T01:13:15Z</time>
  <course>184.67</course>
  <speed>0.01414213562373095</speed>
  <fix>3d</fix>
</trkpt>
<trkpt lat="33.8103132" lon="-118.3938672">
  <ele>-3.104</ele>
  <time>2026-09-01T01:13:15Z</time>
  <course>184.67</course>
  <speed>0.01414213562373095</speed>
  <fix>3d</fix>
</trkpt>
<trkpt lat="33.810313" lon="-118.393867">
  <ele>-2.79</ele>
  <time>2026-09-01T01:13:15Z</time>
  <course>275.0</course>
  <speed>0.0</speed>
  <fix>3d</fix>
</trkpt>
<trkpt lat="33.8103132" lon="-118.3938672">
  <ele>-3.133</ele>
  <time>2026-09-01T01:13:15Z</time>
  <course>184.67</course>
  <speed>0.01414213562373095</speed>
  <fix>3d</fix>
</trkpt>
<trkpt lat="33.8103132" lon="-118.3938672">
  <ele>-3.199</ele>
  <time>2026-09-01T01:13:15Z</time>
  <course>184.67</course>
  <speed>0.01414213562373095</speed>
  <fix>3d</fix>
</trkpt>
<trkpt lat="33.810313" lon="-118.393867">
  <ele>-2.79</ele>
  <time>2026-09-01T01:13:15Z</time>
  <course>275.0</course>
  <speed>0.0</speed>
  <fix>3d</fix>
</trkpt>
<trkpt lat="33.8103132" lon="-118.3938672">
  <ele>-3.231</ele>
  <time>2026-09-01T01:13:15Z</time>
  <course>184.68</course>
  <speed>0.01414213562373095</speed>
  <fix>3d</fix>
</trkpt>
<trkpt lat="33.8103132" lon="-118.3938672">
  <ele>-3.295</ele>
  <time>2026-09-01T01:13:15Z</time>
  <course>184.68</course>
  <speed>0.01414213562373095</speed>
  <fix>3d</fix>
</trkpt>
<trkpt lat="33.810313" lon="-118.393867">
  <ele>-2.98</ele>
  <time>2026-09-01T01:13:15Z</time>
  <course>275.0</course>
  <speed>0.0</speed>
  <fix>3d</fix>
</trkpt>
<trkpt lat="33.8103132" lon="-118.3938672">
  <ele>-3.298</ele>
  <time>2026-09-01T01:13:15Z</time>
  <course>184.68</course>
  <speed>0.01414213562373095</speed>
  <fix>3d</fix>
</trkpt>
<trkpt lat="33.8103132" lon="-118.3938672">
  <ele>-3.392</ele>
  <time>2026-09-01T01:13:15Z</time>
  <course>184.68</course>
  <speed>0.01414213562373095</speed>
  <fix>3d</fix>
</trkpt>
<trkpt lat="33.810313" lon="-118.393867">
  <ele>-2.98</ele>
  <time>2026-09-01T01:13:15Z</time>
  <course>275.0</course>
  <speed>0.0</speed>
  <fix>3d</fix>
</trkpt>
<trkpt lat="33.8103132" lon="-118.3938672">
  <ele>-3.421</ele>
  <time>2026-09-01T01:13:15Z</time>
  <course>184.68</course>
  <speed>0.01414213562373095</speed>
  <fix>3d</fix>
</trkpt>
<trkpt lat="33.8103132" lon="-118.3938672">
  <ele>-3.489</ele>
  <time>2026-09-01T01:13:15Z</time>
  <course>184.68</course>
  <speed>0.01414213562373095</speed>
  <fix>3d</fix>
</trkpt>
<trkpt lat="33.810313" lon="-118.393867">
  <ele>-3.17</ele>
  <time>2026-09-01T01:13:15Z</time>
  <course>275.0</course>
  <speed>0.0</speed>
  <fix>3d</fix>
</trkpt>
<trkpt lat="33.8103132" lon="-118.3938672">
  <ele>-3.519</ele>
  <time>2026-09-01T01:13:15Z</time>
  <course>184.69</course>
  <speed>0.01414213562373095</speed>
  <fix>3d</fix>
</trkpt>
<trkpt lat="33.8103132" lon="-118.3938672">
  <ele>-3.587</ele>
  <time>2026-09-01T01:13:15Z</time>
  <course>184.69</course>
  <speed>0.01414213562373095</speed>
  <fix>3d</fix>
</trkpt>
<trkpt lat="33.810313" lon="-118.393867">
  <ele>-3.17</ele>
  <time>2026-09-01T01:13:15Z</time>
  <course>275.0</course>
  <speed>0.0</speed>
  <fix>3d</fix>
</trkpt>
<trkpt lat="33.8103132" lon="-118.3938672">
  <ele>-3.617</ele>
  <time>2026-09-01T01:13:15Z</time>
  <course>184.69</course>
  <speed>0.01414213562373095</speed>
  <fix>3d</fix>
</trkpt>
<trkpt lat="33.8103132" lon="-118.3938672">
  <ele>-3.685</ele>
  <time>2026-09-01T01:13:15Z</time>
  <course>184.69</course>
  <speed>0.01414213562373095</speed>
  <fix>3d</fix>
</trkpt>
<trkpt lat="33.810313" lon="-118.393867">
  <ele>-3.37</ele>
  <time>2026-09-01T01:13:15Z</time>
  <course>275.0</course>
  <speed>0.0</speed>
  <fix>3d</fix>
</trkpt>
<trkpt lat="33.8103132" lon="-118.3938672">
  <ele>-3.687</ele>
  <time>2026-09-01T01:13:15Z</time>
  <course>184.69</course>
  <speed>0.01414213562373095</speed>
  <fix>3d</fix>
</trkpt>
<trkpt lat="33.8103131" lon="-118.3938672">
  <ele>-3.784</ele>
  <time>2026-09-01T01:13:15Z</time>
  <course>184.69</course>
  <speed>0.01414213562373095</speed>
  <fix>3d</fix>
</trkpt>
<trkpt lat="33.810313" lon="-118.393867">
  <ele>-3.37</ele>
  <time>2026-09-01T01:13:15Z</time>
  <course>275.0</course>
  <speed>0.0</speed>
  <fix>3d</fix>
</trkpt>
<trkpt lat="33.8103132" lon="-118.3938672">
  <ele>-3.814</ele>
  <time>2026-09-01T01:13:15Z</time>
  <course>184.7</course>
  <speed>0.01414213562373095</speed>
  <fix>3d</fix>
</trkpt>
<trkpt lat="33.8103131" lon="-118.3938672">
  <ele>-3.884</ele>
  <time>2026-09-01T01:13:15Z</time>
  <course>184.7</course>
  <speed>0.01414213562373095</speed>
  <fix>3d</fix>
</trkpt>
<trkpt lat="33.810313" lon="-118.3938671">
  <ele>-3.57</ele>
  <time>2026-09-01T01:13:15Z</time>
  <course>275.0</course>
  <speed>0.0</speed>
  <fix>3d</fix>
</trkpt>
<trkpt lat="33.8103131" lon="-118.3938672">
  <ele>-3.914</ele>
  <time>2026-09-01T01:13:15Z</time>
  <course>184.7</course>
  <speed>0.01414213562373095</speed>
  <fix>3d</fix>
</trkpt>
<trkpt lat="33.8103131" lon="-118.3938672">
  <ele>-3.984</ele>
  <time>2026-09-01T01:13:15Z</time>
  <course>184.7</course>
  <speed>0.01414213562373095</speed>
  <fix>3d</fix>
</trkpt>
<trkpt lat="33.810313" lon="-118.3938671">
  <ele>-3.57</ele>
  <time>2026-09-01T01:13:15Z</time>
  <course>275.0</course>
  <speed>0.0</speed>
  <fix>3d</fix>
</trkpt>
<trkpt lat="33.8103131" lon="-118.3938672">
  <ele>-4.014</ele>
  <time>2026-09-01T01:13:15Z</time>
  <course>184.7</course>
  <speed>0.01414213562373095</speed>
  <fix>3d</fix>
</trkpt>
<trkpt lat="33.8103131" lon="-118.3938672">
  <ele>-4.083</ele>
  <time>2026-09-01T01:13:15Z</time>
  <course>184.71</course>
  <speed>0.01414213562373095</speed>
  <fix>3d</fix>
</trkpt>
<trkpt lat="33.810313" lon="-118.3938671">
  <ele>-3.76</ele>
  <time>2026-09-01T01:13:15Z</time>
  <course>275.0</course>
  <speed>0.0</speed>
  <fix>3d</fix>
</trkpt>
<trkpt lat="33.8103131" lon="-118.3938672">
  <ele>-4.115</ele>
  <time>2026-09-01T01:13:15Z</time>
  <course>184.71</course>
  <speed>0.01414213562373095</speed>
  <fix>3d</fix>
</trkpt>
<trkpt lat="33.8103131" lon="-118.3938672">
  <ele>-4.182</ele>
  <time>2026-09-01T01:13:15Z</time>
  <course>184.71</course>
  <speed>0.01414213562373095</speed>
  <fix>3d</fix>
</trkpt>
<trkpt lat="33.810313" lon="-118.3938671">
  <ele>-3.76</ele>
  <time>2026-09-01T01:13:15Z</time>
  <course>275.0</course>
  <speed>0.0</speed>
  <fix>3d</fix>
</trkpt>
<trkpt lat="33.8103131" lon="-118.3938672">
  <ele>-4.212</ele>
  <time>2026-09-01T01:13:15Z</time>
  <course>184.71</course>
  <speed>0.01414213562373095</speed>
  <fix>3d</fix>
</trkpt>
<trkpt lat="33.8103131" lon="-118.3938672">
  <ele>-4.282</ele>
  <time>2026-09-01T01:13:16Z</time>
  <course>184.71</course>
  <speed>0.01414213562373095</speed>
  <fix>3d</fix>
</trkpt>
<trkpt lat="33.810313" lon="-118.3938671">
  <ele>-3.96</ele>
  <time>2026-09-01T01:13:16Z</time>
  <course>275.0</course>
  <speed>0.0</speed>
  <fix>3d</fix>
</trkpt>
<trkpt lat="33.8103131" lon="-118.3938672">
  <ele>-4.307</ele>
  <time>2026-09-01T01:13:16Z</time>
  <course>184.71</course>
  <speed>0.01414213562373095</speed>
  <fix>3d</fix>
</trkpt>
<trkpt lat="33.8103131" lon="-118.3938672">
  <ele>-4.382</ele>
  <time>2026-09-01T01:13:16Z</time>
  <course>184.72</course>
  <speed>0.01414213562373095</speed>
  <fix>3d</fix>
</trkpt>
<trkpt lat="33.810313" lon="-118.3938671">
  <ele>-3.96</ele>
  <time>2026-09-01T01:13:16Z</time>
  <course>275.0</course>
  <speed>0.0</speed>
  <fix>3d</fix>
</trkpt>
<trkpt lat="33.8103131" lon="-118.3938672">
  <ele>-4.384</ele>
  <time>2026-09-01T01:13:16Z</time>
  <course>184.72</course>
  <speed>0.01414213562373095</speed>
  <fix>3d</fix>
</trkpt>
<trkpt lat="33.8103131" lon="-118.3938672">
  <ele>-4.481</ele>
  <time>2026-09-01T01:13:16Z</time>
  <course>184.72</course>
  <speed>0.01414213562373095</speed>
  <fix>3d</fix>
</trkpt>
<trkpt lat="33.810313" lon="-118.3938671">
  <ele>-4.15</ele>
  <time>2026-09-01T01:13:16Z</time>
  <course>275.0</course>
  <speed>0.0</speed>
  <fix>3d</fix>
</trkpt>
<trkpt lat="33.8103131" lon="-118.3938672">
  <ele>-4.51</ele>
  <time>2026-09-01T01:13:16Z</time>
  <course>184.72</course>
  <speed>0.01414213562373095</speed>
  <fix>3d</fix>
</trkpt>
<trkpt lat="33.8103131" lon="-118.3938672">
  <ele>-4.58</ele>
  <time>2026-09-01T01:13:16Z</time>
  <course>184.72</course>
  <speed>0.01414213562373095</speed>
  <fix>3d</fix>
</trkpt>
<trkpt lat="33.810313" lon="-118.3938671">
  <ele>-4.15</ele>
  <time>2026-09-01T01:13:16Z</time>
  <course>275.0</course>
  <speed>0.0</speed>
  <fix>3d</fix>
</trkpt>
<trkpt lat="33.8103131" lon="-118.3938672">
  <ele>-4.612</ele>
  <time>2026-09-01T01:13:16Z</time>
  <course>184.72</course>
  <speed>0.01414213562373095</speed>
  <fix>3d</fix>
</trkpt>
<trkpt lat="33.8103131" lon="-118.3938672">
  <ele>-4.678</ele>
  <time>2026-09-01T01:13:16Z</time>
  <course>184.73</course>
  <speed>0.01414213562373095</speed>
  <fix>3d</fix>
</trkpt>
<trkpt lat="33.810313" lon="-118.3938671">
  <ele>-4.35</ele>
  <time>2026-09-01T01:13:16Z</time>
  <course>275.0</course>
  <speed>0.0</speed>
  <fix>3d</fix>
</trkpt>
<trkpt lat="33.8103131" lon="-118.3938672">
  <ele>-4.707</ele>
  <time>2026-09-01T01:13:16Z</time>
  <course>184.73</course>
  <speed>0.01414213562373095</speed>
  <fix>3d</fix>
</trkpt>
<trkpt lat="33.8103131" lon="-118.3938672">
  <ele>-4.774</ele>
  <time>2026-09-01T01:13:16Z</time>
  <course>184.73</course>
  <speed>0.01414213562373095</speed>
  <fix>3d</fix>
</trkpt>
<trkpt lat="33.810313" lon="-118.3938671">
  <ele>-4.35</ele>
  <time>2026-09-01T01:13:16Z</time>
  <course>275.0</course>
  <speed>0.0</speed>
  <fix>3d</fix>
</trkpt>
<trkpt lat="33.8103131" lon="-118.3938672">
  <ele>-4.808</ele>
  <time>2026-09-01T01:13:16Z</time>
  <course>184.73</course>
  <speed>0.01414213562373095</speed>
  <fix>3d</fix>
</trkpt>
<trkpt lat="33.8103131" lon="-118.3938672">
  <ele>-4.871</ele>
  <time>2026-09-01T01:13:16Z</time>
  <course>184.73</course>
  <speed>0.01414213562373095</speed>
  <fix>3d</fix>
</trkpt>
<trkpt lat="33.810313" lon="-118.3938671">
  <ele>-4.54</ele>
  <time>2026-09-01T01:13:16Z</time>
  <course>275.0</course>
  <speed>0.0</speed>
  <fix>3d</fix>
</trkpt>
<trkpt lat="33.8103131" lon="-118.3938672">
  <ele>-4.903</ele>
  <time>2026-09-01T01:13:16Z</time>
  <course>184.73</course>
  <speed>0.01414213562373095</speed>
  <fix>3d</fix>
</trkpt>
<trkpt lat="33.8103131" lon="-118.3938672">
  <ele>-4.969</ele>
  <time>2026-09-01T01:13:16Z</time>
  <course>184.74</course>
  <speed>0.01414213562373095</speed>
  <fix>3d</fix>
</trkpt>
<trkpt lat="33.810313" lon="-118.3938671">
  <ele>-4.54</ele>
  <time>2026-09-01T01:13:16Z</time>
  <course>275.0</course>
  <speed>0.0</speed>
  <fix>3d</fix>
</trkpt>
<trkpt lat="33.8103131" lon="-118.3938672">
  <ele>-4.972</ele>
  <time>2026-09-01T01:13:16Z</time>
  <course>184.74</course>
  <speed>0.01414213562373095</speed>
  <fix>3d</fix>
</trkpt>
<trkpt lat="33.8103131" lon="-118.3938672">
  <ele>-5.065</ele>
  <time>2026-09-01T01:13:16Z</time>
  <course>184.74</course>
  <speed>0.01414213562373095</speed>
  <fix>3d</fix>
</trkpt>
<trkpt lat="33.810313" lon="-118.3938671">
  <ele>-4.73</ele>
  <time>2026-09-01T01:13:16Z</time>
  <course>275.0</course>
  <speed>0.0</speed>
  <fix>3d</fix>
</trkpt>
<trkpt lat="33.8103131" lon="-118.3938672">
  <ele>-5.097</ele>
  <time>2026-09-01T01:13:16Z</time>
  <course>184.74</course>
  <speed>0.01414213562373095</speed>
  <fix>3d</fix>
</trkpt>
<trkpt lat="33.8103131" lon="-118.3938672">
  <ele>-5.162</ele>
  <time>2026-09-01T01:13:16Z</time>
  <course>184.74</course>
  <speed>0.01414213562373095</speed>
  <fix>3d</fix>
</trkpt>
<trkpt lat="33.810313" lon="-118.3938671">
  <ele>-4.73</ele>
  <time>2026-09-01T01:13:16Z</time>
  <course>275.0</course>
  <speed>0.0</speed>
  <fix>3d</fix>
</trkpt>
<trkpt lat="33.8103131" lon="-118.3938672">
  <ele>-5.256</ele>
  <time>2026-09-01T01:13:16Z</time>
  <course>184.75</course>
  <speed>0.01414213562373095</speed>
  <fix>3d</fix>
</trkpt>
<trkpt lat="33.810313" lon="-118.3938671">
  <ele>-4.92</ele>
  <time>2026-09-01T01:13:16Z</time>
  <course>275.0</course>
  <speed>0.0</speed>
  <fix>3d</fix>
</trkpt>
<trkpt lat="33.8103132" lon="-118.3938672">
  <ele>-5.341</ele>
  <time>2026-09-01T01:13:16Z</time>
  <course>184.75</course>
  <speed>0.01414213562373095</speed>
  <fix>3d</fix>
</trkpt>
<trkpt lat="33.810313" lon="-118.3938671">
  <ele>-4.92</ele>
  <time>2026-09-01T01:13:16Z</time>
  <course>275.0</course>
  <speed>0.0</speed>
  <fix>3d</fix>
</trkpt>
<trkpt lat="33.8103132" lon="-118.3938672">
  <ele>-5.409</ele>
  <time>2026-09-01T01:13:16Z</time>
  <course>184.75</course>
  <speed>0.01414213562373095</speed>
  <fix>3d</fix>
</trkpt>
<trkpt lat="33.810313" lon="-118.3938671">
  <ele>-5.1</ele>
  <time>2026-09-01T01:13:16Z</time>
  <course>275.0</course>
  <speed>0.0</speed>
  <fix>3d</fix>
</trkpt>
<trkpt lat="33.8103132" lon="-118.3938672">
  <ele>-5.461</ele>
  <time>2026-09-01T01:13:16Z</time>
  <course>184.76</course>
  <speed>0.01414213562373095</speed>
  <fix>3d</fix>
</trkpt>
<trkpt lat="33.810313" lon="-118.3938671">
  <ele>-5.1</ele>
  <time>2026-09-01T01:13:16Z</time>
  <course>275.0</course>
  <speed>0.0</speed>
  <fix>3d</fix>
</trkpt>
<trkpt lat="33.8103132" lon="-118.3938672">
  <ele>-5.499</ele>
  <time>2026-09-01T01:13:16Z</time>
  <course>184.76</course>
  <speed>0.022360679774997897</speed>
  <fix>3d</fix>
</trkpt>
<trkpt lat="33.810313" lon="-118.3938671">
  <ele>-5.24</ele>
  <time>2026-09-01T01:13:16Z</time>
  <course>274.99</course>
  <speed>0.0</speed>
  <fix>3d</fix>
</trkpt>
<trkpt lat="33.8103132" lon="-118.3938672">
  <ele>-5.528</ele>
  <time>2026-09-01T01:13:16Z</time>
  <course>184.77</course>
  <speed>0.022360679774997897</speed>
  <fix>3d</fix>
</trkpt>
<trkpt lat="33.810313" lon="-118.3938671">
  <ele>-5.24</ele>
  <time>2026-09-01T01:13:16Z</time>
  <course>274.99</course>
  <speed>0.0</speed>
  <fix>3d</fix>
</trkpt>
<trkpt lat="33.8103132" lon="-118.3938672">
  <ele>-5.546</ele>
  <time>2026-09-01T01:13:16Z</time>
  <course>184.77</course>
  <speed>0.022360679774997897</speed>
  <fix>3d</fix>
</trkpt>
<trkpt lat="33.810313" lon="-118.3938671">
  <ele>-5.33</ele>
  <time>2026-09-01T01:13:16Z</time>
  <course>274.99</course>
  <speed>0.0</speed>
  <fix>3d</fix>
</trkpt>
<trkpt lat="33.8103132" lon="-118.3938672">
  <ele>-5.556</ele>
  <time>2026-09-01T01:13:16Z</time>
  <course>184.77</course>
  <speed>0.022360679774997897</speed>
  <fix>3d</fix>
</trkpt>
<trkpt lat="33.810313" lon="-118.3938671">
  <ele>-5.33</ele>
  <time>2026-09-01T01:13:16Z</time>
  <course>274.99</course>
  <speed>0.0</speed>
  <fix>3d</fix>
</trkpt>
<trkpt lat="33.8103132" lon="-118.3938672">
  <ele>-5.559</ele>
  <time>2026-09-01T01:13:16Z</time>
  <course>184.78</course>
  <speed>0.022360679774997897</speed>
  <fix>3d</fix>
</trkpt>
<trkpt lat="33.810313" lon="-118.3938671">
  <ele>-5.37</ele>
  <time>2026-09-01T01:13:16Z</time>
  <course>274.99</course>
  <speed>0.0</speed>
  <fix>3d</fix>
</trkpt>
<trkpt lat="33.8103132" lon="-118.3938672">
  <ele>-5.559</ele>
  <time>2026-09-01T01:13:16Z</time>
  <course>184.78</course>
  <speed>0.022360679774997897</speed>
  <fix>3d</fix>
</trkpt>
<trkpt lat="33.810313" lon="-118.3938671">
  <ele>-5.37</ele>
  <time>2026-09-01T01:13:16Z</time>
  <course>274.99</course>
  <speed>0.0</speed>
  <fix>3d</fix>
</trkpt>
<trkpt lat="33.8103132" lon="-118.3938672">
  <ele>-5.555</ele>
  <time>2026-09-01T01:13:16Z</time>
  <course>184.78</course>
  <speed>0.022360679774997897</speed>
  <fix>3d</fix>
</trkpt>
<trkpt lat="33.810313" lon="-118.3938671">
  <ele>-5.39</ele>
  <time>2026-09-01T01:13:16Z</time>
  <course>274.99</course>
  <speed>0.0</speed>
  <fix>3d</fix>
</trkpt>
<trkpt lat="33.8103132" lon="-118.3938672">
  <ele>-5.551</ele>
  <time>2026-09-01T01:13:16Z</time>
  <course>184.79</course>
  <speed>0.022360679774997897</speed>
  <fix>3d</fix>
</trkpt>
<trkpt lat="33.810313" lon="-118.3938671">
  <ele>-5.39</ele>
  <time>2026-09-01T01:13:16Z</time>
  <course>274.99</course>
  <speed>0.0</speed>
  <fix>3d</fix>
</trkpt>
<trkpt lat="33.8103132" lon="-118.3938672">
  <ele>-5.544</ele>
  <time>2026-09-01T01:13:16Z</time>
  <course>184.79</course>
  <speed>0.022360679774997897</speed>
  <fix>3d</fix>
</trkpt>
<trkpt lat="33.810313" lon="-118.3938671">
  <ele>-5.39</ele>
  <time>2026-09-01T01:13:16Z</time>
  <course>274.99</course>
  <speed>0.0</speed>
  <fix>3d</fix>
</trkpt>
<trkpt lat="33.8103132" lon="-118.3938672">
  <ele>-5.538</ele>
  <time>2026-09-01T01:13:16Z</time>
  <course>184.8</course>
  <speed>0.022360679774997897</speed>
  <fix>3d</fix>
</trkpt>
<trkpt lat="33.810313" lon="-118.3938671">
  <ele>-5.39</ele>
  <time>2026-09-01T01:13:16Z</time>
  <course>274.99</course>
  <speed>0.0</speed>
  <fix>3d</fix>
</trkpt>
<trkpt lat="33.8103132" lon="-118.3938672">
  <ele>-5.535</ele>
  <time>2026-09-01T01:13:16Z</time>
  <course>184.8</course>
  <speed>0.022360679774997897</speed>
  <fix>3d</fix>
</trkpt>
<trkpt lat="33.810313" lon="-118.3938671">
  <ele>-5.39</ele>
  <time>2026-09-01T01:13:16Z</time>
  <course>274.99</course>
  <speed>0.0</speed>
  <fix>3d</fix>
</trkpt>
<trkpt lat="33.8103132" lon="-118.3938672">
  <ele>-5.534</ele>
  <time>2026-09-01T01:13:16Z</time>
  <course>184.8</course>
  <speed>0.022360679774997897</speed>
  <fix>3d</fix>
</trkpt>
<trkpt lat="33.810313" lon="-118.3938671">
  <ele>-5.39</ele>
  <time>2026-09-01T01:13:16Z</time>
  <course>274.99</course>
  <speed>0.0</speed>
  <fix>3d</fix>
</trkpt>
<trkpt lat="33.8103132" lon="-118.3938672">
  <ele>-5.536</ele>
  <time>2026-09-01T01:13:16Z</time>
  <course>184.81</course>
  <speed>0.022360679774997897</speed>
  <fix>3d</fix>
</trkpt>
<trkpt lat="33.810313" lon="-118.3938671">
  <ele>-5.39</ele>
  <time>2026-09-01T01:13:16Z</time>
  <course>274.99</course>
  <speed>0.0</speed>
  <fix>3d</fix>
</trkpt>
<trkpt lat="33.8103132" lon="-118.3938672">
  <ele>-5.538</ele>
  <time>2026-09-01T01:13:16Z</time>
  <course>184.81</course>
  <speed>0.022360679774997897</speed>
  <fix>3d</fix>
</trkpt>
<trkpt lat="33.810313" lon="-118.3938671">
  <ele>-5.39</ele>
  <time>2026-09-01T01:13:16Z</time>
  <course>274.99</course>
  <speed>0.0</speed>
  <fix>3d</fix>
</trkpt>
<trkpt lat="33.8103132" lon="-118.3938672">
  <ele>-5.54</ele>
  <time>2026-09-01T01:13:16Z</time>
  <course>184.82</course>
  <speed>0.022360679774997897</speed>
  <fix>3d</fix>
</trkpt>
<trkpt lat="33.810313" lon="-118.3938671">
  <ele>-5.4</ele>
  <time>2026-09-01T01:13:16Z</time>
  <course>274.99</course>
  <speed>0.0</speed>
  <fix>3d</fix>
</trkpt>
<trkpt lat="33.8103132" lon="-118.3938672">
  <ele>-5.543</ele>
  <time>2026-09-01T01:13:16Z</time>
  <course>184.82</course>
  <speed>0.022360679774997897</speed>
  <fix>3d</fix>
</trkpt>
<trkpt lat="33.810313" lon="-118.3938671">
  <ele>-5.4</ele>
  <time>2026-09-01T01:13:16Z</time>
  <course>274.99</course>
  <speed>0.0</speed>
  <fix>3d</fix>
</trkpt>
<trkpt lat="33.8103132" lon="-118.3938672">
  <ele>-5.546</ele>
  <time>2026-09-01T01:13:16Z</time>
  <course>184.82</course>
  <speed>0.0282842712474619</speed>
  <fix>3d</fix>
</trkpt>
<trkpt lat="33.810313" lon="-118.3938671">
  <ele>-5.4</ele>
  <time>2026-09-01T01:13:16Z</time>
  <course>274.99</course>
  <speed>0.0</speed>
  <fix>3d</fix>
</trkpt>
<trkpt lat="33.8103132" lon="-118.3938672">
  <ele>-5.549</ele>
  <time>2026-09-01T01:13:16Z</time>
  <course>184.83</course>
  <speed>0.0282842712474619</speed>
  <fix>3d</fix>
</trkpt>
<trkpt lat="33.810313" lon="-118.3938671">
  <ele>-5.4</ele>
  <time>2026-09-01T01:13:16Z</time>
  <course>274.99</course>
  <speed>0.0</speed>
  <fix>3d</fix>
</trkpt>
<trkpt lat="33.8103132" lon="-118.3938672">
  <ele>-5.553</ele>
  <time>2026-09-01T01:13:16Z</time>
  <course>184.83</course>
  <speed>0.0282842712474619</speed>
  <fix>3d</fix>
</trkpt>
<trkpt lat="33.810313" lon="-118.3938671">
  <ele>-5.41</ele>
  <time>2026-09-01T01:13:16Z</time>
  <course>274.99</course>
  <speed>0.0</speed>
  <fix>3d</fix>
</trkpt>
<trkpt lat="33.8103132" lon="-118.3938672">
  <ele>-5.556</ele>
  <time>2026-09-01T01:13:16Z</time>
  <course>184.84</course>
  <speed>0.0282842712474619</speed>
  <fix>3d</fix>
</trkpt>
<trkpt lat="33.810313" lon="-118.3938671">
  <ele>-5.41</ele>
  <time>2026-09-01T01:13:16Z</time>
  <course>274.99</course>
  <speed>0.0</speed>
  <fix>3d</fix>
</trkpt>
<trkpt lat="33.8103132" lon="-118.3938672">
  <ele>-5.557</ele>
  <time>2026-09-01T01:13:16Z</time>
  <course>184.84</course>
  <speed>0.0282842712474619</speed>
  <fix>3d</fix>
</trkpt>
<trkpt lat="33.810313" lon="-118.3938671">
  <ele>-5.42</ele>
  <time>2026-09-01T01:13:16Z</time>
  <course>274.99</course>
  <speed>0.0</speed>
  <fix>3d</fix>
</trkpt>
<trkpt lat="33.8103132" lon="-118.3938672">
  <ele>-5.558</ele>
  <time>2026-09-01T01:13:16Z</time>
  <course>184.85</course>
  <speed>0.0282842712474619</speed>
  <fix>3d</fix>
</trkpt>
<trkpt lat="33.810313" lon="-118.3938671">
  <ele>-5.42</ele>
  <time>2026-09-01T01:13:16Z</time>
  <course>274.99</course>
  <speed>0.0</speed>
  <fix>3d</fix>
</trkpt>
<trkpt lat="33.8103132" lon="-118.3938672">
  <ele>-5.557</ele>
  <time>2026-09-01T01:13:16Z</time>
  <course>184.85</course>
  <speed>0.0282842712474619</speed>
  <fix>3d</fix>
</trkpt>
<trkpt lat="33.810313" lon="-118.3938671">
  <ele>-5.42</ele>
  <time>2026-09-01T01:13:16Z</time>
  <course>274.99</course>
  <speed>0.0</speed>
  <fix>3d</fix>
</trkpt>
<trkpt lat="33.8103132" lon="-118.3938672">
  <ele>-5.554</ele>
  <time>2026-09-01T01:13:16Z</time>
  <course>184.86</course>
  <speed>0.0282842712474619</speed>
  <fix>3d</fix>
</trkpt>
<trkpt lat="33.810313" lon="-118.3938671">
  <ele>-5.42</ele>
  <time>2026-09-01T01:13:16Z</time>
  <course>274.99</course>
  <speed>0.0</speed>
  <fix>3d</fix>
</trkpt>
<trkpt lat="33.8103132" lon="-118.3938672">
  <ele>-5.55</ele>
  <time>2026-09-01T01:13:16Z</time>
  <course>184.86</course>
  <speed>0.0282842712474619</speed>
  <fix>3d</fix>
</trkpt>
<trkpt lat="33.810313" lon="-118.3938672">
  <ele>-5.42</ele>
  <time>2026-09-01T01:13:16Z</time>
  <course>274.99</course>
  <speed>0.0</speed>
  <fix>3d</fix>
</trkpt>
<trkpt lat="33.8103132" lon="-118.3938672">
  <ele>-5.546</ele>
  <time>2026-09-01T01:13:16Z</time>
  <course>184.86</course>
  <speed>0.0282842712474619</speed>
  <fix>3d</fix>
</trkpt>
<trkpt lat="33.810313" lon="-118.3938672">
  <ele>-5.42</ele>
  <time>2026-09-01T01:13:16Z</time>
  <course>274.99</course>
  <speed>0.0</speed>
  <fix>3d</fix>
</trkpt>
<trkpt lat="33.8103132" lon="-118.3938673">
  <ele>-5.542</ele>
  <time>2026-09-01T01:13:16Z</time>
  <course>184.87</course>
  <speed>0.0282842712474619</speed>
  <fix>3d</fix>
</trkpt>
<trkpt lat="33.810313" lon="-118.3938672">
  <ele>-5.41</ele>
  <time>2026-09-01T01:13:16Z</time>
  <course>274.99</course>
  <speed>0.0</speed>
  <fix>3d</fix>
</trkpt>
<trkpt lat="33.8103132" lon="-118.3938673">
  <ele>-5.54</ele>
  <time>2026-09-01T01:13:16Z</time>
  <course>184.87</course>
  <speed>0.0282842712474619</speed>
  <fix>3d</fix>
</trkpt>
<trkpt lat="33.810313" lon="-118.3938672">
  <ele>-5.41</ele>
  <time>2026-09-01T01:13:16Z</time>
  <course>274.99</course>
  <speed>0.0</speed>
  <fix>3d</fix>
</trkpt>
<trkpt lat="33.8103132" lon="-118.3938673">
  <ele>-5.54</ele>
  <time>2026-09-01T01:13:16Z</time>
  <course>184.88</course>
  <speed>0.0282842712474619</speed>
  <fix>3d</fix>
</trkpt>
<trkpt lat="33.810313" lon="-118.3938672">
  <ele>-5.41</ele>
  <time>2026-09-01T01:13:16Z</time>
  <course>274.99</course>
  <speed>0.0</speed>
  <fix>3d</fix>
</trkpt>
<trkpt lat="33.8103132" lon="-118.3938673">
  <ele>-5.541</ele>
  <time>2026-09-01T01:13:16Z</time>
  <course>184.88</course>
  <speed>0.0282842712474619</speed>
  <fix>3d</fix>
</trkpt>
<trkpt lat="33.810313" lon="-118.3938672">
  <ele>-5.41</ele>
  <time>2026-09-01T01:13:16Z</time>
  <course>274.99</course>
  <speed>0.0</speed>
  <fix>3d</fix>
</trkpt>
<trkpt lat="33.8103132" lon="-118.3938673">
  <ele>-5.543</ele>
  <time>2026-09-01T01:13:16Z</time>
  <course>184.89</course>
  <speed>0.0282842712474619</speed>
  <fix>3d</fix>
</trkpt>
<trkpt lat="33.810313" lon="-118.3938672">
  <ele>-5.41</ele>
  <time>2026-09-01T01:13:16Z</time>
  <course>274.99</course>
  <speed>0.0</speed>
  <fix>3d</fix>
</trkpt>
<trkpt lat="33.8103132" lon="-118.3938673">
  <ele>-5.544</ele>
  <time>2026-09-01T01:13:16Z</time>
  <course>184.89</course>
  <speed>0.0282842712474619</speed>
  <fix>3d</fix>
</trkpt>
<trkpt lat="33.810313" lon="-118.3938672">
  <ele>-5.41</ele>
  <time>2026-09-01T01:13:16Z</time>
  <course>274.99</course>
  <speed>0.0</speed>
  <fix>3d</fix>
</trkpt>
<trkpt lat="33.8103132" lon="-118.3938673">
  <ele>-5.544</ele>
  <time>2026-09-01T01:13:16Z</time>
  <course>184.9</course>
  <speed>0.0282842712474619</speed>
  <fix>3d</fix>
</trkpt>
<trkpt lat="33.810313" lon="-118.3938672">
  <ele>-5.41</ele>
  <time>2026-09-01T01:13:16Z</time>
  <course>274.99</course>
  <speed>0.0</speed>
  <fix>3d</fix>
</trkpt>
<trkpt lat="33.8103132" lon="-118.3938673">
  <ele>-5.545</ele>
  <time>2026-09-01T01:13:16Z</time>
  <course>184.9</course>
  <speed>0.0282842712474619</speed>
  <fix>3d</fix>
</trkpt>
<trkpt lat="33.810313" lon="-118.3938672">
  <ele>-5.41</ele>
  <time>2026-09-01T01:13:16Z</time>
  <course>274.99</course>
  <speed>0.0</speed>
  <fix>3d</fix>
</trkpt>
<trkpt lat="33.8103132" lon="-118.3938673">
  <ele>-5.545</ele>
  <time>2026-09-01T01:13:16Z</time>
  <course>184.91</course>
  <speed>0.0282842712474619</speed>
  <fix>3d</fix>
</trkpt>
<trkpt lat="33.810313" lon="-118.3938672">
  <ele>-5.41</ele>
  <time>2026-09-01T01:13:16Z</time>
  <course>274.99</course>
  <speed>0.0</speed>
  <fix>3d</fix>
</trkpt>
<trkpt lat="33.8103132" lon="-118.3938673">
  <ele>-5.546</ele>
  <time>2026-09-01T01:13:16Z</time>
  <course>184.91</course>
  <speed>0.03605551275463989</speed>
  <fix>3d</fix>
</trkpt>
<trkpt lat="33.810313" lon="-118.3938672">
  <ele>-5.41</ele>
  <time>2026-09-01T01:13:16Z</time>
  <course>274.99</course>
  <speed>0.0</speed>
  <fix>3d</fix>
</trkpt>
<trkpt lat="33.8103132" lon="-118.3938673">
  <ele>-5.546</ele>
  <time>2026-09-01T01:13:16Z</time>
  <course>184.92</course>
  <speed>0.03605551275463989</speed>
  <fix>3d</fix>
</trkpt>
<trkpt lat="33.810313" lon="-118.3938672">
  <ele>-5.41</ele>
  <time>2026-09-01T01:13:16Z</time>
  <course>274.99</course>
  <speed>0.0</speed>
  <fix>3d</fix>
</trkpt>
<trkpt lat="33.8103132" lon="-118.3938674">
  <ele>-5.546</ele>
  <time>2026-09-01T01:13:16Z</time>
  <course>184.92</course>
  <speed>0.03605551275463989</speed>
  <fix>3d</fix>
</trkpt>
<trkpt lat="33.810313" lon="-118.3938672">
  <ele>-5.41</ele>
  <time>2026-09-01T01:13:16Z</time>
  <course>274.99</course>
  <speed>0.0</speed>
  <fix>3d</fix>
</trkpt>
<trkpt lat="33.8103132" lon="-118.3938674">
  <ele>-5.545</ele>
  <time>2026-09-01T01:13:16Z</time>
  <course>184.93</course>
  <speed>0.03605551275463989</speed>
  <fix>3d</fix>
</trkpt>
<trkpt lat="33.810313" lon="-118.3938672">
  <ele>-5.41</ele>
  <time>2026-09-01T01:13:16Z</time>
  <course>274.99</course>
  <speed>0.0</speed>
  <fix>3d</fix>
</trkpt>
<trkpt lat="33.8103132" lon="-118.3938674">
  <ele>-5.544</ele>
  <time>2026-09-01T01:13:16Z</time>
  <course>184.93</course>
  <speed>0.03605551275463989</speed>
  <fix>3d</fix>
</trkpt>
<trkpt lat="33.810313" lon="-118.3938672">
  <ele>-5.41</ele>
  <time>2026-09-01T01:13:16Z</time>
  <course>274.99</course>
  <speed>0.0</speed>
  <fix>3d</fix>
</trkpt>
<trkpt lat="33.8103132" lon="-118.3938674">
  <ele>-5.544</ele>
  <time>2026-09-01T01:13:16Z</time>
  <course>184.94</course>
  <speed>0.03605551275463989</speed>
  <fix>3d</fix>
</trkpt>
<trkpt lat="33.810313" lon="-118.3938672">
  <ele>-5.41</ele>
  <time>2026-09-01T01:13:16Z</time>
  <course>274.99</course>
  <speed>0.0</speed>
  <fix>3d</fix>
</trkpt>
<trkpt lat="33.8103132" lon="-118.3938674">
  <ele>-5.544</ele>
  <time>2026-09-01T01:13:16Z</time>
  <course>184.95</course>
  <speed>0.03605551275463989</speed>
  <fix>3d</fix>
</trkpt>
<trkpt lat="33.810313" lon="-118.3938672">
  <ele>-5.41</ele>
  <time>2026-09-01T01:13:16Z</time>
  <course>274.99</course>
  <speed>0.0</speed>
  <fix>3d</fix>
</trkpt>
<trkpt lat="33.8103132" lon="-118.3938674">
  <ele>-5.545</ele>
  <time>2026-09-01T01:13:16Z</time>
  <course>184.95</course>
  <speed>0.03605551275463989</speed>
  <fix>3d</fix>
</trkpt>
<trkpt lat="33.810313" lon="-118.3938672">
  <ele>-5.41</ele>
  <time>2026-09-01T01:13:16Z</time>
  <course>274.99</course>
  <speed>0.0</speed>
  <fix>3d</fix>
</trkpt>
<trkpt lat="33.8103132" lon="-118.3938674">
  <ele>-5.545</ele>
  <time>2026-09-01T01:13:16Z</time>
  <course>184.96</course>
  <speed>0.03605551275463989</speed>
  <fix>3d</fix>
</trkpt>
<trkpt lat="33.810313" lon="-118.3938672">
  <ele>-5.41</ele>
  <time>2026-09-01T01:13:16Z</time>
  <course>274.99</course>
  <speed>0.0</speed>
  <fix>3d</fix>
</trkpt>
<trkpt lat="33.8103132" lon="-118.3938674">
  <ele>-5.545</ele>
  <time>2026-09-01T01:13:16Z</time>
  <course>184.96</course>
  <speed>0.03605551275463989</speed>
  <fix>3d</fix>
</trkpt>
<trkpt lat="33.810313" lon="-118.3938672">
  <ele>-5.4</ele>
  <time>2026-09-01T01:13:16Z</time>
  <course>274.99</course>
  <speed>0.0</speed>
  <fix>3d</fix>
</trkpt>
<trkpt lat="33.8103132" lon="-118.3938674">
  <ele>-5.544</ele>
  <time>2026-09-01T01:13:16Z</time>
  <course>184.97</course>
  <speed>0.03605551275463989</speed>
  <fix>3d</fix>
</trkpt>
<trkpt lat="33.810313" lon="-118.3938672">
  <ele>-5.4</ele>
  <time>2026-09-01T01:13:16Z</time>
  <course>274.99</course>
  <speed>0.0</speed>
  <fix>3d</fix>
</trkpt>
<trkpt lat="33.8103132" lon="-118.3938674">
  <ele>-5.543</ele>
  <time>2026-09-01T01:13:16Z</time>
  <course>184.98</course>
  <speed>0.03605551275463989</speed>
  <fix>3d</fix>
</trkpt>
<trkpt lat="33.810313" lon="-118.3938672">
  <ele>-5.4</ele>
  <time>2026-09-01T01:13:16Z</time>
  <course>274.99</course>
  <speed>0.0</speed>
  <fix>3d</fix>
</trkpt>
<trkpt lat="33.8103132" lon="-118.3938674">
  <ele>-5.542</ele>
  <time>2026-09-01T01:13:16Z</time>
  <course>184.98</course>
  <speed>0.03605551275463989</speed>
  <fix>3d</fix>
</trkpt>
<trkpt lat="33.810313" lon="-118.3938672">
  <ele>-5.4</ele>
  <time>2026-09-01T01:13:16Z</time>
  <course>274.99</course>
  <speed>0.0</speed>
  <fix>3d</fix>
</trkpt>
<trkpt lat="33.8103132" lon="-118.3938674">
  <ele>-5.54</ele>
  <time>2026-09-01T01:13:16Z</time>
  <course>184.99</course>
  <speed>0.03605551275463989</speed>
  <fix>3d</fix>
</trkpt>
<trkpt lat="33.810313" lon="-118.3938672">
  <ele>-5.4</ele>
  <time>2026-09-01T01:13:16Z</time>
  <course>274.99</course>
  <speed>0.0</speed>
  <fix>3d</fix>
</trkpt>
<trkpt lat="33.8103132" lon="-118.3938674">
  <ele>-5.538</ele>
  <time>2026-09-01T01:13:16Z</time>
  <course>184.99</course>
  <speed>0.03605551275463989</speed>
  <fix>3d</fix>
</trkpt>
<trkpt lat="33.810313" lon="-118.3938672">
  <ele>-5.4</ele>
  <time>2026-09-01T01:13:16Z</time>
  <course>274.99</course>
  <speed>0.0</speed>
  <fix>3d</fix>
</trkpt>
<trkpt lat="33.8103132" lon="-118.3938674">
  <ele>-5.536</ele>
  <time>2026-09-01T01:13:16Z</time>
  <course>185.0</course>
  <speed>0.03605551275463989</speed>
  <fix>3d</fix>
</trkpt>
<trkpt lat="33.810313" lon="-118.3938672">
  <ele>-5.4</ele>
  <time>2026-09-01T01:13:16Z</time>
  <course>274.99</course>
  <speed>0.0</speed>
  <fix>3d</fix>
</trkpt>
<trkpt lat="33.8103132" lon="-118.3938674">
  <ele>-5.536</ele>
  <time>2026-09-01T01:13:16Z</time>
  <course>185.01</course>
  <speed>0.03605551275463989</speed>
  <fix>3d</fix>
</trkpt>
<trkpt lat="33.810313" lon="-118.3938672">
  <ele>-5.4</ele>
  <time>2026-09-01T01:13:16Z</time>
  <course>274.99</course>
  <speed>0.0</speed>
  <fix>3d</fix>
</trkpt>
<trkpt lat="33.8103132" lon="-118.3938674">
  <ele>-5.538</ele>
  <time>2026-09-01T01:13:16Z</time>
  <course>185.01</course>
  <speed>0.03605551275463989</speed>
  <fix>3d</fix>
</trkpt>
<trkpt lat="33.810313" lon="-118.3938672">
  <ele>-5.4</ele>
  <time>2026-09-01T01:13:16Z</time>
  <course>274.99</course>
  <speed>0.0</speed>
  <fix>3d</fix>
</trkpt>
<trkpt lat="33.8103132" lon="-118.3938674">
  <ele>-5.541</ele>
  <time>2026-09-01T01:13:16Z</time>
  <course>185.02</course>
  <speed>0.03605551275463989</speed>
  <fix>3d</fix>
</trkpt>
<trkpt lat="33.810313" lon="-118.3938672">
  <ele>-5.4</ele>
  <time>2026-09-01T01:13:16Z</time>
  <course>274.99</course>
  <speed>0.0</speed>
  <fix>3d</fix>
</trkpt>
<trkpt lat="33.8103132" lon="-118.3938674">
  <ele>-5.543</ele>
  <time>2026-09-01T01:13:16Z</time>
  <course>185.03</course>
  <speed>0.03605551275463989</speed>
  <fix>3d</fix>
</trkpt>
<trkpt lat="33.810313" lon="-118.3938672">
  <ele>-5.41</ele>
  <time>2026-09-01T01:13:16Z</time>
  <course>274.99</course>
  <speed>0.0</speed>
  <fix>3d</fix>
</trkpt>
<trkpt lat="33.8103132" lon="-118.3938674">
  <ele>-5.545</ele>
  <time>2026-09-01T01:13:16Z</time>
  <course>185.03</course>
  <speed>0.03605551275463989</speed>
  <fix>3d</fix>
</trkpt>
<trkpt lat="33.810313" lon="-118.3938672">
  <ele>-5.41</ele>
  <time>2026-09-01T01:13:16Z</time>
  <course>274.99</course>
  <speed>0.0</speed>
  <fix>3d</fix>
</trkpt>
<trkpt lat="33.8103132" lon="-118.3938674">
  <ele>-5.547</ele>
  <time>2026-09-01T01:13:16Z</time>
  <course>185.04</course>
  <speed>0.03605551275463989</speed>
  <fix>3d</fix>
</trkpt>
<trkpt lat="33.810313" lon="-118.3938672">
  <ele>-5.41</ele>
  <time>2026-09-01T01:13:16Z</time>
  <course>274.99</course>
  <speed>0.0</speed>
  <fix>3d</fix>
</trkpt>
<trkpt lat="33.8103132" lon="-118.3938674">
  <ele>-5.549</ele>
  <time>2026-09-01T01:13:16Z</time>
  <course>185.05</course>
  <speed>0.03605551275463989</speed>
  <fix>3d</fix>
</trkpt>
<trkpt lat="33.810313" lon="-118.3938672">
  <ele>-5.41</ele>
  <time>2026-09-01T01:13:16Z</time>
  <course>274.99</course>
  <speed>0.0</speed>
  <fix>3d</fix>
</trkpt>
<trkpt lat="33.8103132" lon="-118.3938674">
  <ele>-5.551</ele>
  <time>2026-09-01T01:13:16Z</time>
  <course>185.05</course>
  <speed>0.03605551275463989</speed>
  <fix>3d</fix>
</trkpt>
<trkpt lat="33.810313" lon="-118.3938672">
  <ele>-5.42</ele>
  <time>2026-09-01T01:13:16Z</time>
  <course>274.99</course>
  <speed>0.0</speed>
  <fix>3d</fix>
</trkpt>
<trkpt lat="33.8103132" lon="-118.3938674">
  <ele>-5.553</ele>
  <time>2026-09-01T01:13:16Z</time>
  <course>185.06</course>
  <speed>0.03605551275463989</speed>
  <fix>3d</fix>
</trkpt>
<trkpt lat="33.810313" lon="-118.3938672">
  <ele>-5.42</ele>
  <time>2026-09-01T01:13:16Z</time>
  <course>274.99</course>
  <speed>0.0</speed>
  <fix>3d</fix>
</trkpt>
<trkpt lat="33.8103132" lon="-118.3938674">
  <ele>-5.557</ele>
  <time>2026-09-01T01:13:16Z</time>
  <course>185.07</course>
  <speed>0.03605551275463989</speed>
  <fix>3d</fix>
</trkpt>
<trkpt lat="33.810313" lon="-118.3938672">
  <ele>-5.42</ele>
  <time>2026-09-01T01:13:16Z</time>
  <course>274.99</course>
  <speed>0.0</speed>
  <fix>3d</fix>
</trkpt>
<trkpt lat="33.8103132" lon="-118.3938674">
  <ele>-5.575</ele>
  <time>2026-09-01T01:13:16Z</time>
  <course>185.07</course>
  <speed>0.03605551275463989</speed>
  <fix>3d</fix>
</trkpt>
<trkpt lat="33.810313" lon="-118.3938672">
  <ele>-5.42</ele>
  <time>2026-09-01T01:13:16Z</time>
  <course>274.99</course>
  <speed>0.0</speed>
  <fix>3d</fix>
</trkpt>
<trkpt lat="33.8103132" lon="-118.3938674">
  <ele>-5.614</ele>
  <time>2026-09-01T01:13:16Z</time>
  <course>185.08</course>
  <speed>0.03605551275463989</speed>
  <fix>3d</fix>
</trkpt>
<trkpt lat="33.810313" lon="-118.3938672">
  <ele>-5.43</ele>
  <time>2026-09-01T01:13:16Z</time>
  <course>274.99</course>
  <speed>0.0</speed>
  <fix>3d</fix>
</trkpt>
<trkpt lat="33.8103132" lon="-118.3938674">
  <ele>-5.616</ele>
  <time>2026-09-01T01:13:16Z</time>
  <course>185.08</course>
  <speed>0.03605551275463989</speed>
  <fix>3d</fix>
</trkpt>
<trkpt lat="33.8103132" lon="-118.3938674">
  <ele>-5.674</ele>
  <time>2026-09-01T01:13:16Z</time>
  <course>185.09</course>
  <speed>0.03605551275463989</speed>
  <fix>3d</fix>
</trkpt>
<trkpt lat="33.810313" lon="-118.3938672">
  <ele>-5.43</ele>
  <time>2026-09-01T01:13:16Z</time>
  <course>274.99</course>
  <speed>0.0</speed>
  <fix>3d</fix>
</trkpt>
<trkpt lat="33.8103132" lon="-118.3938674">
  <ele>-5.675</ele>
  <time>2026-09-01T01:13:16Z</time>
  <course>185.09</course>
  <speed>0.03605551275463989</speed>
  <fix>3d</fix>
</trkpt>
<trkpt lat="33.8103132" lon="-118.3938674">
  <ele>-5.753</ele>
  <time>2026-09-01T01:13:16Z</time>
  <course>185.09</course>
  <speed>0.03605551275463989</speed>
  <fix>3d</fix>
</trkpt>
<trkpt lat="33.810313" lon="-118.3938672">
  <ele>-5.5</ele>
  <time>2026-09-01T01:13:16Z</time>
  <course>274.99</course>
  <speed>0.0</speed>
  <fix>3d</fix>
</trkpt>
<trkpt lat="33.8103132" lon="-118.3938674">
  <ele>-5.783</ele>
  <time>2026-09-01T01:13:16Z</time>
  <course>185.09</course>
  <speed>0.03605551275463989</speed>
  <fix>3d</fix>
</trkpt>
<trkpt lat="33.8103132" lon="-118.3938674">
  <ele>-5.854</ele>
  <time>2026-09-01T01:13:16Z</time>
  <course>185.1</course>
  <speed>0.03605551275463989</speed>
  <fix>3d</fix>
</trkpt>
<trkpt lat="33.810313" lon="-118.3938672">
  <ele>-5.5</ele>
  <time>2026-09-01T01:13:16Z</time>
  <course>274.99</course>
  <speed>0.0</speed>
  <fix>3d</fix>
</trkpt>
<trkpt lat="33.8103132" lon="-118.3938674">
  <ele>-5.89</ele>
  <time>2026-09-01T01:13:16Z</time>
  <course>185.1</course>
  <speed>0.03605551275463989</speed>
  <fix>3d</fix>
</trkpt>
<trkpt lat="33.8103132" lon="-118.3938674">
  <ele>-5.973</ele>
  <time>2026-09-01T01:13:16Z</time>
  <course>185.11</course>
  <speed>0.03605551275463989</speed>
  <fix>3d</fix>
</trkpt>
<trkpt lat="33.810313" lon="-118.3938672">
  <ele>-5.64</ele>
  <time>2026-09-01T01:13:16Z</time>
  <course>274.99</course>
  <speed>0.0</speed>
  <fix>3d</fix>
</trkpt>
<trkpt lat="33.8103132" lon="-118.3938674">
  <ele>-5.999</ele>
  <time>2026-09-01T01:13:16Z</time>
  <course>185.11</course>
  <speed>0.03605551275463989</speed>
  <fix>3d</fix>
</trkpt>
<trkpt lat="33.8103132" lon="-118.3938675">
  <ele>-6.102</ele>
  <time>2026-09-01T01:13:16Z</time>
  <course>185.11</course>
  <speed>0.03605551275463989</speed>
  <fix>3d</fix>
</trkpt>
<trkpt lat="33.810313" lon="-118.3938672">
  <ele>-5.64</ele>
  <time>2026-09-01T01:13:16Z</time>
  <course>274.99</course>
  <speed>0.0</speed>
  <fix>3d</fix>
</trkpt>
<trkpt lat="33.8103132" lon="-118.3938675">
  <ele>-6.135</ele>
  <time>2026-09-01T01:13:16Z</time>
  <course>185.11</course>
  <speed>0.03605551275463989</speed>
  <fix>3d</fix>
</trkpt>
<trkpt lat="33.8103132" lon="-118.3938675">
  <ele>-6.233</ele>
  <time>2026-09-01T01:13:16Z</time>
  <course>185.12</course>
  <speed>0.03605551275463989</speed>
  <fix>3d</fix>
</trkpt>
<trkpt lat="33.810313" lon="-118.3938672">
  <ele>-5.84</ele>
  <time>2026-09-01T01:13:16Z</time>
  <course>274.99</course>
  <speed>0.01</speed>
  <fix>3d</fix>
</trkpt>
<trkpt lat="33.8103132" lon="-118.3938675">
  <ele>-6.273</ele>
  <time>2026-09-01T01:13:16Z</time>
  <course>185.12</course>
  <speed>0.03605551275463989</speed>
  <fix>3d</fix>
</trkpt>
<trkpt lat="33.8103132" lon="-118.3938675">
  <ele>-6.366</ele>
  <time>2026-09-01T01:13:16Z</time>
  <course>185.12</course>
  <speed>0.03605551275463989</speed>
  <fix>3d</fix>
</trkpt>
<trkpt lat="33.810313" lon="-118.3938672">
  <ele>-5.84</ele>
  <time>2026-09-01T01:13:16Z</time>
  <course>274.99</course>
  <speed>0.01</speed>
  <fix>3d</fix>
</trkpt>
<trkpt lat="33.8103132" lon="-118.3938675">
  <ele>-6.399</ele>
  <time>2026-09-01T01:13:16Z</time>
  <course>185.13</course>
  <speed>0.03605551275463989</speed>
  <fix>3d</fix>
</trkpt>
<trkpt lat="33.8103132" lon="-118.3938675">
  <ele>-6.498</ele>
  <time>2026-09-01T01:13:16Z</time>
  <course>185.13</course>
  <speed>0.03605551275463989</speed>
  <fix>3d</fix>
</trkpt>
<trkpt lat="33.810313" lon="-118.3938673">
  <ele>-6.08</ele>
  <time>2026-09-01T01:13:16Z</time>
  <course>274.99</course>
  <speed>0.01</speed>
  <fix>3d</fix>
</trkpt>
<trkpt lat="33.8103132" lon="-118.3938675">
  <ele>-6.528</ele>
  <time>2026-09-01T01:13:16Z</time>
  <course>185.13</course>
  <speed>0.03605551275463989</speed>
  <fix>3d</fix>
</trkpt>
<trkpt lat="33.8103132" lon="-118.3938675">
  <ele>-6.63</ele>
  <time>2026-09-01T01:13:16Z</time>
  <course>185.14</course>
  <speed>0.03605551275463989</speed>
  <fix>3d</fix>
</trkpt>
<trkpt lat="33.810313" lon="-118.3938673">
  <ele>-6.08</ele>
  <time>2026-09-01T01:13:16Z</time>
  <course>274.99</course>
  <speed>0.01</speed>
  <fix>3d</fix>
</trkpt>
<trkpt lat="33.8103132" lon="-118.3938675">
  <ele>-6.634</ele>
  <time>2026-09-01T01:13:16Z</time>
  <course>185.14</course>
  <speed>0.03605551275463989</speed>
  <fix>3d</fix>
</trkpt>
<trkpt lat="33.8103132" lon="-118.3938675">
  <ele>-6.763</ele>
  <time>2026-09-01T01:13:16Z</time>
  <course>185.14</course>
  <speed>0.03605551275463989</speed>
  <fix>3d</fix>
</trkpt>
<trkpt lat="33.810313" lon="-118.3938673">
  <ele>-6.33</ele>
  <time>2026-09-01T01:13:16Z</time>
  <course>274.99</course>
  <speed>0.01</speed>
  <fix>3d</fix>
</trkpt>
<trkpt lat="33.8103132" lon="-118.3938675">
  <ele>-6.796</ele>
  <time>2026-09-01T01:13:16Z</time>
  <course>185.14</course>
  <speed>0.03605551275463989</speed>
  <fix>3d</fix>
</trkpt>
<trkpt lat="33.8103132" lon="-118.3938675">
  <ele>-6.894</ele>
  <time>2026-09-01T01:13:16Z</time>
  <course>185.15</course>
  <speed>0.04242640687119285</speed>
  <fix>3d</fix>
</trkpt>
<trkpt lat="33.810313" lon="-118.3938673">
  <ele>-6.33</ele>
  <time>2026-09-01T01:13:16Z</time>
  <course>274.99</course>
  <speed>0.01</speed>
  <fix>3d</fix>
</trkpt>
<trkpt lat="33.8103132" lon="-118.3938675">
  <ele>-6.926</ele>
  <time>2026-09-01T01:13:16Z</time>
  <course>185.15</course>
  <speed>0.04242640687119285</speed>
  <fix>3d</fix>
</trkpt>
<trkpt lat="33.8103132" lon="-118.3938675">
  <ele>-7.024</ele>
  <time>2026-09-01T01:13:16Z</time>
  <course>185.15</course>
  <speed>0.04242640687119285</speed>
  <fix>3d</fix>
</trkpt>
<trkpt lat="33.810313" lon="-118.3938673">
  <ele>-6.56</ele>
  <time>2026-09-01T01:13:16Z</time>
  <course>274.99</course>
  <speed>0.01</speed>
  <fix>3d</fix>
</trkpt>
<trkpt lat="33.8103132" lon="-118.3938675">
  <ele>-7.028</ele>
  <time>2026-09-01T01:13:16Z</time>
  <course>185.15</course>
  <speed>0.04242640687119285</speed>
  <fix>3d</fix>
</trkpt>
<trkpt lat="33.8103132" lon="-118.3938675">
  <ele>-7.154</ele>
  <time>2026-09-01T01:13:16Z</time>
  <course>185.16</course>
  <speed>0.04242640687119285</speed>
  <fix>3d</fix>
</trkpt>
<trkpt lat="33.810313" lon="-118.3938673">
  <ele>-6.56</ele>
  <time>2026-09-01T01:13:16Z</time>
  <course>274.99</course>
  <speed>0.01</speed>
  <fix>3d</fix>
</trkpt>
<trkpt lat="33.8103132" lon="-118.3938675">
  <ele>-7.184</ele>
  <time>2026-09-01T01:13:16Z</time>
  <course>185.16</course>
  <speed>0.04242640687119285</speed>
  <fix>3d</fix>
</trkpt>
<trkpt lat="33.8103132" lon="-118.3938675">
  <ele>-7.285</ele>
  <time>2026-09-01T01:13:16Z</time>
  <course>185.17</course>
  <speed>0.04242640687119285</speed>
  <fix>3d</fix>
</trkpt>
<trkpt lat="33.810313" lon="-118.3938673">
  <ele>-6.81</ele>
  <time>2026-09-01T01:13:16Z</time>
  <course>274.99</course>
  <speed>0.01</speed>
  <fix>3d</fix>
</trkpt>
<trkpt lat="33.8103132" lon="-118.3938675">
  <ele>-7.311</ele>
  <time>2026-09-01T01:13:16Z</time>
  <course>185.17</course>
  <speed>0.04242640687119285</speed>
  <fix>3d</fix>
</trkpt>
<trkpt lat="33.8103132" lon="-118.3938675">
  <ele>-7.414</ele>
  <time>2026-09-01T01:13:16Z</time>
  <course>185.17</course>
  <speed>0.04242640687119285</speed>
  <fix>3d</fix>
</trkpt>
<trkpt lat="33.810313" lon="-118.3938673">
  <ele>-6.81</ele>
  <time>2026-09-01T01:13:16Z</time>
  <course>274.99</course>
  <speed>0.01</speed>
  <fix>3d</fix>
</trkpt>
<trkpt lat="33.8103132" lon="-118.3938675">
  <ele>-7.443</ele>
  <time>2026-09-01T01:13:16Z</time>
  <course>185.17</course>
  <speed>0.04242640687119285</speed>
  <fix>3d</fix>
</trkpt>
<trkpt lat="33.8103132" lon="-118.3938676">
  <ele>-7.542</ele>
  <time>2026-09-01T01:13:16Z</time>
  <course>185.18</course>
  <speed>0.04242640687119285</speed>
  <fix>3d</fix>
</trkpt>
<trkpt lat="33.810313" lon="-118.3938674">
  <ele>-7.06</ele>
  <time>2026-09-01T01:13:16Z</time>
  <course>274.99</course>
  <speed>0.01</speed>
  <fix>3d</fix>
</trkpt>
<trkpt lat="33.8103132" lon="-118.3938676">
  <ele>-7.571</ele>
  <time>2026-09-01T01:13:16Z</time>
  <course>185.18</course>
  <speed>0.04242640687119285</speed>
  <fix>3d</fix>
</trkpt>
<trkpt lat="33.8103132" lon="-118.3938676">
  <ele>-7.669</ele>
  <time>2026-09-01T01:13:16Z</time>
  <course>185.18</course>
  <speed>0.04242640687119285</speed>
  <fix>3d</fix>
</trkpt>
<trkpt lat="33.810313" lon="-118.3938674">
  <ele>-7.06</ele>
  <time>2026-09-01T01:13:16Z</time>
  <course>274.99</course>
  <speed>0.01</speed>
  <fix>3d</fix>
</trkpt>
<trkpt lat="33.8103132" lon="-118.3938676">
  <ele>-7.701</ele>
  <time>2026-09-01T01:13:16Z</time>
  <course>185.19</course>
  <speed>0.04242640687119285</speed>
  <fix>3d</fix>
</trkpt>
<trkpt lat="33.8103132" lon="-118.3938676">
  <ele>-7.797</ele>
  <time>2026-09-01T01:13:16Z</time>
  <course>185.19</course>
  <speed>0.04242640687119285</speed>
  <fix>3d</fix>
</trkpt>
<trkpt lat="33.810313" lon="-118.3938674">
  <ele>-7.3</ele>
  <time>2026-09-01T01:13:16Z</time>
  <course>274.99</course>
  <speed>0.01</speed>
  <fix>3d</fix>
</trkpt>
<trkpt lat="33.8103132" lon="-118.3938676">
  <ele>-7.825</ele>
  <time>2026-09-01T01:13:16Z</time>
  <course>185.19</course>
  <speed>0.04242640687119285</speed>
  <fix>3d</fix>
</trkpt>
<trkpt lat="33.8103132" lon="-118.3938676">
  <ele>-7.924</ele>
  <time>2026-09-01T01:13:16Z</time>
  <course>185.2</course>
  <speed>0.04242640687119285</speed>
  <fix>3d</fix>
</trkpt>
<trkpt lat="33.810313" lon="-118.3938674">
  <ele>-7.3</ele>
  <time>2026-09-01T01:13:16Z</time>
  <course>274.99</course>
  <speed>0.01</speed>
  <fix>3d</fix>
</trkpt>
<trkpt lat="33.8103132" lon="-118.3938676">
  <ele>-7.949</ele>
  <time>2026-09-01T01:13:16Z</time>
  <course>185.2</course>
  <speed>0.04242640687119285</speed>
  <fix>3d</fix>
</trkpt>
<trkpt lat="33.8103132" lon="-118.3938676">
  <ele>-8.05</ele>
  <time>2026-09-01T01:13:16Z</time>
  <course>185.2</course>
  <speed>0.04242640687119285</speed>
  <fix>3d</fix>
</trkpt>
<trkpt lat="33.810313" lon="-118.3938674">
  <ele>-7.54</ele>
  <time>2026-09-01T01:13:16Z</time>
  <course>274.99</course>
  <speed>0.01</speed>
  <fix>3d</fix>
</trkpt>
<trkpt lat="33.8103132" lon="-118.3938676">
  <ele>-8.053</ele>
  <time>2026-09-01T01:13:16Z</time>
  <course>185.2</course>
  <speed>0.04242640687119285</speed>
  <fix>3d</fix>
</trkpt>
<trkpt lat="33.8103132" lon="-118.3938676">
  <ele>-8.177</ele>
  <time>2026-09-01T01:13:16Z</time>
  <course>185.21</course>
  <speed>0.04242640687119285</speed>
  <fix>3d</fix>
</trkpt>
<trkpt lat="33.810313" lon="-118.3938674">
  <ele>-7.54</ele>
  <time>2026-09-01T01:13:16Z</time>
  <course>274.99</course>
  <speed>0.01</speed>
  <fix>3d</fix>
</trkpt>
<trkpt lat="33.8103132" lon="-118.3938676">
  <ele>-8.18</ele>
  <time>2026-09-01T01:13:16Z</time>
  <course>185.21</course>
  <speed>0.04242640687119285</speed>
  <fix>3d</fix>
</trkpt>
<trkpt lat="33.8103132" lon="-118.3938676">
  <ele>-8.302</ele>
  <time>2026-09-01T01:13:16Z</time>
  <course>185.21</course>
  <speed>0.04242640687119285</speed>
  <fix>3d</fix>
</trkpt>
<trkpt lat="33.810313" lon="-118.3938674">
  <ele>-7.79</ele>
  <time>2026-09-01T01:13:16Z</time>
  <course>274.99</course>
  <speed>0.01</speed>
  <fix>3d</fix>
</trkpt>
<trkpt lat="33.8103132" lon="-118.3938676">
  <ele>-8.339</ele>
  <time>2026-09-01T01:13:16Z</time>
  <course>185.22</course>
  <speed>0.04242640687119285</speed>
  <fix>3d</fix>
</trkpt>
<trkpt lat="33.8103132" lon="-118.3938676">
  <ele>-8.427</ele>
  <time>2026-09-01T01:13:16Z</time>
  <course>185.22</course>
  <speed>0.04242640687119285</speed>
  <fix>3d</fix>
</trkpt>
<trkpt lat="33.810313" lon="-118.3938674">
  <ele>-7.79</ele>
  <time>2026-09-01T01:13:16Z</time>
  <course>274.99</course>
  <speed>0.01</speed>
  <fix>3d</fix>
</trkpt>
<trkpt lat="33.8103132" lon="-118.3938676">
  <ele>-8.428</ele>
  <time>2026-09-01T01:13:16Z</time>
  <course>185.22</course>
  <speed>0.04242640687119285</speed>
  <fix>3d</fix>
</trkpt>
<trkpt lat="33.8103132" lon="-118.3938677">
  <ele>-8.55</ele>
  <time>2026-09-01T01:13:16Z</time>
  <course>185.23</course>
  <speed>0.04242640687119285</speed>
  <fix>3d</fix>
</trkpt>
<trkpt lat="33.810313" lon="-118.3938675">
  <ele>-8.02</ele>
  <time>2026-09-01T01:13:16Z</time>
  <course>274.99</course>
  <speed>0.01</speed>
  <fix>3d</fix>
</trkpt>
<trkpt lat="33.8103132" lon="-118.3938677">
  <ele>-8.587</ele>
  <time>2026-09-01T01:13:16Z</time>
  <course>185.23</course>
  <speed>0.04242640687119285</speed>
  <fix>3d</fix>
</trkpt>
<trkpt lat="33.8103132" lon="-118.3938677">
  <ele>-8.674</ele>
  <time>2026-09-01T01:13:16Z</time>
  <course>185.23</course>
  <speed>0.04242640687119285</speed>
  <fix>3d</fix>
</trkpt>
<trkpt lat="33.810313" lon="-118.3938675">
  <ele>-8.02</ele>
  <time>2026-09-01T01:13:16Z</time>
  <course>274.99</course>
  <speed>0.01</speed>
  <fix>3d</fix>
</trkpt>
<trkpt lat="33.8103132" lon="-118.3938677">
  <ele>-8.714</ele>
  <time>2026-09-01T01:13:16Z</time>
  <course>185.23</course>
  <speed>0.04242640687119285</speed>
  <fix>3d</fix>
</trkpt>
<trkpt lat="33.8103132" lon="-118.3938677">
  <ele>-8.798</ele>
  <time>2026-09-01T01:13:16Z</time>
  <course>185.24</course>
  <speed>0.04242640687119285</speed>
  <fix>3d</fix>
</trkpt>
<trkpt lat="33.810313" lon="-118.3938675">
  <ele>-8.27</ele>
  <time>2026-09-01T01:13:16Z</time>
  <course>274.99</course>
  <speed>0.01</speed>
  <fix>3d</fix>
</trkpt>
<trkpt lat="33.8103132" lon="-118.3938677">
  <ele>-8.839</ele>
  <time>2026-09-01T01:13:16Z</time>
  <course>185.24</course>
  <speed>0.04242640687119285</speed>
  <fix>3d</fix>
</trkpt>
<trkpt lat="33.8103132" lon="-118.3938677">
  <ele>-8.923</ele>
  <time>2026-09-01T01:13:16Z</time>
  <course>185.24</course>
  <speed>0.04242640687119285</speed>
  <fix>3d</fix>
</trkpt>
<trkpt lat="33.810313" lon="-118.3938675">
  <ele>-8.27</ele>
  <time>2026-09-01T01:13:16Z</time>
  <course>274.99</course>
  <speed>0.01</speed>
  <fix>3d</fix>
</trkpt>
<trkpt lat="33.8103132" lon="-118.3938677">
  <ele>-8.963</ele>
  <time>2026-09-01T01:13:16Z</time>
  <course>185.24</course>
  <speed>0.04242640687119285</speed>
  <fix>3d</fix>
</trkpt>
<trkpt lat="33.8103132" lon="-118.3938677">
  <ele>-9.048</ele>
  <time>2026-09-01T01:13:16Z</time>
  <course>185.25</course>
  <speed>0.04242640687119285</speed>
  <fix>3d</fix>
</trkpt>
<trkpt lat="33.810313" lon="-118.3938675">
  <ele>-8.52</ele>
  <time>2026-09-01T01:13:16Z</time>
  <course>274.99</course>
  <speed>0.01</speed>
  <fix>3d</fix>
</trkpt>
<trkpt lat="33.8103132" lon="-118.3938677">
  <ele>-9.089</ele>
  <time>2026-09-01T01:13:16Z</time>
  <course>185.25</course>
  <speed>0.04242640687119285</speed>
  <fix>3d</fix>
</trkpt>
<trkpt lat="33.8103132" lon="-118.3938677">
  <ele>-9.173</ele>
  <time>2026-09-01T01:13:16Z</time>
  <course>185.25</course>
  <speed>0.04242640687119285</speed>
  <fix>3d</fix>
</trkpt>
<trkpt lat="33.810313" lon="-118.3938675">
  <ele>-8.52</ele>
  <time>2026-09-01T01:13:16Z</time>
  <course>274.99</course>
  <speed>0.01</speed>
  <fix>3d</fix>
</trkpt>
<trkpt lat="33.8103132" lon="-118.3938677">
  <ele>-9.213</ele>
  <time>2026-09-01T01:13:16Z</time>
  <course>185.26</course>
  <speed>0.04242640687119285</speed>
  <fix>3d</fix>
</trkpt>
<trkpt lat="33.8103132" lon="-118.3938677">
  <ele>-9.296</ele>
  <time>2026-09-01T01:13:16Z</time>
  <course>185.26</course>
  <speed>0.04242640687119285</speed>
  <fix>3d</fix>
</trkpt>
<trkpt lat="33.810313" lon="-118.3938675">
  <ele>-8.76</ele>
  <time>2026-09-01T01:13:16Z</time>
  <course>274.99</course>
  <speed>0.01</speed>
  <fix>3d</fix>
</trkpt>
<trkpt lat="33.8103132" lon="-118.3938677">
  <ele>-9.333</ele>
  <time>2026-09-01T01:13:16Z</time>
  <course>185.26</course>
  <speed>0.04242640687119285</speed>
  <fix>3d</fix>
</trkpt>
<trkpt lat="33.8103132" lon="-118.3938677">
  <ele>-9.42</ele>
  <time>2026-09-01T01:13:16Z</time>
  <course>185.27</course>
  <speed>0.04242640687119285</speed>
  <fix>3d</fix>
</trkpt>
<trkpt lat="33.810313" lon="-118.3938675">
  <ele>-8.76</ele>
  <time>2026-09-01T01:13:16Z</time>
  <course>274.99</course>
  <speed>0.01</speed>
  <fix>3d</fix>
</trkpt>
<trkpt lat="33.8103132" lon="-118.3938677">
  <ele>-9.46</ele>
  <time>2026-09-01T01:13:16Z</time>
  <course>185.27</course>
  <speed>0.04242640687119285</speed>
  <fix>3d</fix>
</trkpt>
<trkpt lat="33.8103132" lon="-118.3938678">
  <ele>-9.543</ele>
  <time>2026-09-01T01:13:16Z</time>
  <course>185.27</course>
  <speed>0.04242640687119285</speed>
  <fix>3d</fix>
</trkpt>
<trkpt lat="33.810313" lon="-118.3938676">
  <ele>-9.0</ele>
  <time>2026-09-01T01:13:16Z</time>
  <course>274.99</course>
  <speed>0.01</speed>
  <fix>3d</fix>
</trkpt>
<trkpt lat="33.8103132" lon="-118.3938678">
  <ele>-9.583</ele>
  <time>2026-09-01T01:13:16Z</time>
  <course>185.28</course>
  <speed>0.04242640687119285</speed>
  <fix>3d</fix>
</trkpt>
<trkpt lat="33.8103132" lon="-118.3938678">
  <ele>-9.666</ele>
  <time>2026-09-01T01:13:16Z</time>
  <course>185.28</course>
  <speed>0.04242640687119285</speed>
  <fix>3d</fix>
</trkpt>
<trkpt lat="33.810313" lon="-118.3938676">
  <ele>-9.0</ele>
  <time>2026-09-01T01:13:16Z</time>
  <course>274.99</course>
  <speed>0.01</speed>
  <fix>3d</fix>
</trkpt>
<trkpt lat="33.8103132" lon="-118.3938678">
  <ele>-9.703</ele>
  <time>2026-09-01T01:13:16Z</time>
  <course>185.28</course>
  <speed>0.04242640687119285</speed>
  <fix>3d</fix>
</trkpt>
<trkpt lat="33.8103132" lon="-118.3938678">
  <ele>-9.789</ele>
  <time>2026-09-01T01:13:16Z</time>
  <course>185.28</course>
  <speed>0.04242640687119285</speed>
  <fix>3d</fix>
</trkpt>
<trkpt lat="33.810313" lon="-118.3938676">
  <ele>-9.25</ele>
  <time>2026-09-01T01:13:16Z</time>
  <course>274.99</course>
  <speed>0.01</speed>
  <fix>3d</fix>
</trkpt>
<trkpt lat="33.8103132" lon="-118.3938678">
  <ele>-9.792</ele>
  <time>2026-09-01T01:13:16Z</time>
  <course>185.29</course>
  <speed>0.04242640687119285</speed>
  <fix>3d</fix>
</trkpt>
<trkpt lat="33.8103132" lon="-118.3938678">
  <ele>-9.912</ele>
  <time>2026-09-01T01:13:16Z</time>
  <course>185.29</course>
  <speed>0.04242640687119285</speed>
  <fix>3d</fix>
</trkpt>
<trkpt lat="33.810313" lon="-118.3938676">
  <ele>-9.25</ele>
  <time>2026-09-01T01:13:16Z</time>
  <course>274.99</course>
  <speed>0.01</speed>
  <fix>3d</fix>
</trkpt>
<trkpt lat="33.8103132" lon="-118.3938678">
  <ele>-9.952</ele>
  <time>2026-09-01T01:13:16Z</time>
  <course>185.29</course>
  <speed>0.04242640687119285</speed>
  <fix>3d</fix>
</trkpt>
<trkpt lat="33.8103132" lon="-118.3938678">
  <ele>-10.035</ele>
  <time>2026-09-01T01:13:16Z</time>
  <course>185.3</course>
  <speed>0.04242640687119285</speed>
  <fix>3d</fix>
</trkpt>
<trkpt lat="33.810313" lon="-118.3938676">
  <ele>-9.49</ele>
  <time>2026-09-01T01:13:16Z</time>
  <course>274.99</course>
  <speed>0.01</speed>
  <fix>3d</fix>
</trkpt>
<trkpt lat="33.8103132" lon="-118.3938678">
  <ele>-10.084</ele>
  <time>2026-09-01T01:13:16Z</time>
  <course>185.3</course>
  <speed>0.04242640687119285</speed>
  <fix>3d</fix>
</trkpt>
<trkpt lat="33.8103132" lon="-118.3938678">
  <ele>-10.158</ele>
  <time>2026-09-01T01:13:16Z</time>
  <course>185.3</course>
  <speed>0.04242640687119285</speed>
  <fix>3d</fix>
</trkpt>
<trkpt lat="33.810313" lon="-118.3938676">
  <ele>-9.49</ele>
  <time>2026-09-01T01:13:16Z</time>
  <course>274.99</course>
  <speed>0.01</speed>
  <fix>3d</fix>
</trkpt>
<trkpt lat="33.8103132" lon="-118.3938678">
  <ele>-10.198</ele>
  <time>2026-09-01T01:13:16Z</time>
  <course>185.3</course>
  <speed>0.04242640687119285</speed>
  <fix>3d</fix>
</trkpt>
<trkpt lat="33.8103132" lon="-118.3938678">
  <ele>-10.281</ele>
  <time>2026-09-01T01:13:16Z</time>
  <course>185.31</course>
  <speed>0.04242640687119285</speed>
  <fix>3d</fix>
</trkpt>
<trkpt lat="33.810313" lon="-118.3938676">
  <ele>-9.73</ele>
  <time>2026-09-01T01:13:16Z</time>
  <course>274.99</course>
  <speed>0.01</speed>
  <fix>3d</fix>
</trkpt>
<trkpt lat="33.8103132" lon="-118.3938678">
  <ele>-10.318</ele>
  <time>2026-09-01T01:13:16Z</time>
  <course>185.31</course>
  <speed>0.04242640687119285</speed>
  <fix>3d</fix>
</trkpt>
<trkpt lat="33.8103132" lon="-118.3938678">
  <ele>-10.404</ele>
  <time>2026-09-01T01:13:16Z</time>
  <course>185.32</course>
  <speed>0.04242640687119285</speed>
  <fix>3d</fix>
</trkpt>
<trkpt lat="33.810313" lon="-118.3938676">
  <ele>-9.73</ele>
  <time>2026-09-01T01:13:16Z</time>
  <course>274.99</course>
  <speed>0.01</speed>
  <fix>3d</fix>
</trkpt>
<trkpt lat="33.8103132" lon="-118.3938678">
  <ele>-10.441</ele>
  <time>2026-09-01T01:13:16Z</time>
  <course>185.32</course>
  <speed>0.04242640687119285</speed>
  <fix>3d</fix>
</trkpt>
<trkpt lat="33.8103132" lon="-118.3938678">
  <ele>-10.527</ele>
  <time>2026-09-01T01:13:16Z</time>
  <course>185.32</course>
  <speed>0.04242640687119285</speed>
  <fix>3d</fix>
</trkpt>
<trkpt lat="33.810313" lon="-118.3938677">
  <ele>-9.98</ele>
  <time>2026-09-01T01:13:16Z</time>
  <course>274.99</course>
  <speed>0.01</speed>
  <fix>3d</fix>
</trkpt>
<trkpt lat="33.8103132" lon="-118.3938679">
  <ele>-10.567</ele>
  <time>2026-09-01T01:13:16Z</time>
  <course>185.32</course>
  <speed>0.04242640687119285</speed>
  <fix>3d</fix>
</trkpt>
<trkpt lat="33.8103132" lon="-118.3938679">
  <ele>-10.649</ele>
  <time>2026-09-01T01:13:16Z</time>
  <course>185.33</course>
  <speed>0.04242640687119285</speed>
  <fix>3d</fix>
</trkpt>
<trkpt lat="33.810313" lon="-118.3938677">
  <ele>-9.98</ele>
  <time>2026-09-01T01:13:16Z</time>
  <course>274.99</course>
  <speed>0.01</speed>
  <fix>3d</fix>
</trkpt>
<trkpt lat="33.8103132" lon="-118.3938679">
  <ele>-10.686</ele>
  <time>2026-09-01T01:13:16Z</time>
  <course>185.33</course>
  <speed>0.04242640687119285</speed>
  <fix>3d</fix>
</trkpt>
<trkpt lat="33.8103132" lon="-118.3938679">
  <ele>-10.771</ele>
  <time>2026-09-01T01:13:16Z</time>
  <course>185.33</course>
  <speed>0.04242640687119285</speed>
  <fix>3d</fix>
</trkpt>
<trkpt lat="33.810313" lon="-118.3938677">
  <ele>-10.22</ele>
  <time>2026-09-01T01:13:16Z</time>
  <course>274.99</course>
  <speed>0.01</speed>
  <fix>3d</fix>
</trkpt>
<trkpt lat="33.8103132" lon="-118.3938679">
  <ele>-10.808</ele>
  <time>2026-09-01T01:13:16Z</time>
  <course>185.34</course>
  <speed>0.04242640687119285</speed>
  <fix>3d</fix>
</trkpt>
<trkpt lat="33.8103132" lon="-118.3938679">
  <ele>-10.893</ele>
  <time>2026-09-01T01:13:16Z</time>
  <course>185.34</course>
  <speed>0.04242640687119285</speed>
  <fix>3d</fix>
</trkpt>
<trkpt lat="33.810313" lon="-118.3938677">
  <ele>-10.22</ele>
  <time>2026-09-01T01:13:16Z</time>
  <course>274.99</course>
  <speed>0.01</speed>
  <fix>3d</fix>
</trkpt>
<trkpt lat="33.8103132" lon="-118.3938679">
  <ele>-10.932</ele>
  <time>2026-09-01T01:13:16Z</time>
  <course>185.34</course>
  <speed>0.04242640687119285</speed>
  <fix>3d</fix>
</trkpt>
<trkpt lat="33.8103132" lon="-118.3938679">
  <ele>-11.017</ele>
  <time>2026-09-01T01:13:16Z</time>
  <course>185.34</course>
  <speed>0.04242640687119285</speed>
  <fix>3d</fix>
</trkpt>
<trkpt lat="33.810313" lon="-118.3938677">
  <ele>-10.46</ele>
  <time>2026-09-01T01:13:16Z</time>
  <course>274.99</course>
  <speed>0.01</speed>
  <fix>3d</fix>
</trkpt>
<trkpt lat="33.8103132" lon="-118.3938679">
  <ele>-11.048</ele>
  <time>2026-09-01T01:13:16Z</time>
  <course>185.35</course>
  <speed>0.04242640687119285</speed>
  <fix>3d</fix>
</trkpt>
<trkpt lat="33.8103132" lon="-118.3938679">
  <ele>-11.14</ele>
  <time>2026-09-01T01:13:16Z</time>
  <course>185.35</course>
  <speed>0.04242640687119285</speed>
  <fix>3d</fix>
</trkpt>
<trkpt lat="33.810313" lon="-118.3938677">
  <ele>-10.46</ele>
  <time>2026-09-01T01:13:16Z</time>
  <course>274.99</course>
  <speed>0.01</speed>
  <fix>3d</fix>
</trkpt>
<trkpt lat="33.8103132" lon="-118.3938679">
  <ele>-11.142</ele>
  <time>2026-09-01T01:13:16Z</time>
  <course>185.35</course>
  <speed>0.04242640687119285</speed>
  <fix>3d</fix>
</trkpt>
<trkpt lat="33.8103132" lon="-118.3938679">
  <ele>-11.263</ele>
  <time>2026-09-01T01:13:16Z</time>
  <course>185.36</course>
  <speed>0.04242640687119285</speed>
  <fix>3d</fix>
</trkpt>
<trkpt lat="33.810313" lon="-118.3938677">
  <ele>-10.7</ele>
  <time>2026-09-01T01:13:16Z</time>
  <course>274.99</course>
  <speed>0.01</speed>
  <fix>3d</fix>
</trkpt>
<trkpt lat="33.8103132" lon="-118.3938679">
  <ele>-11.265</ele>
  <time>2026-09-01T01:13:16Z</time>
  <course>185.36</course>
  <speed>0.04242640687119285</speed>
  <fix>3d</fix>
</trkpt>
<trkpt lat="33.8103132" lon="-118.3938679">
  <ele>-11.387</ele>
  <time>2026-09-01T01:13:16Z</time>
  <course>185.36</course>
  <speed>0.04242640687119285</speed>
  <fix>3d</fix>
</trkpt>
<trkpt lat="33.810313" lon="-118.3938677">
  <ele>-10.7</ele>
  <time>2026-09-01T01:13:16Z</time>
  <course>274.99</course>
  <speed>0.01</speed>
  <fix>3d</fix>
</trkpt>
<trkpt lat="33.8103132" lon="-118.3938679">
  <ele>-11.389</ele>
  <time>2026-09-01T01:13:16Z</time>
  <course>185.36</course>
  <speed>0.04242640687119285</speed>
  <fix>3d</fix>
</trkpt>
<trkpt lat="33.8103132" lon="-118.3938679">
  <ele>-11.511</ele>
  <time>2026-09-01T01:13:16Z</time>
  <course>185.37</course>
  <speed>0.04242640687119285</speed>
  <fix>3d</fix>
</trkpt>
<trkpt lat="33.810313" lon="-118.3938678">
  <ele>-10.95</ele>
  <time>2026-09-01T01:13:16Z</time>
  <course>274.99</course>
  <speed>0.01</speed>
  <fix>3d</fix>
</trkpt>
<trkpt lat="33.8103132" lon="-118.393868">
  <ele>-11.548</ele>
  <time>2026-09-01T01:13:16Z</time>
  <course>185.37</course>
  <speed>0.04242640687119285</speed>
  <fix>3d</fix>
</trkpt>
<trkpt lat="33.8103132" lon="-118.393868">
  <ele>-11.635</ele>
  <time>2026-09-01T01:13:16Z</time>
  <course>185.38</course>
  <speed>0.04242640687119285</speed>
  <fix>3d</fix>
</trkpt>
<trkpt lat="33.810313" lon="-118.3938678">
  <ele>-10.95</ele>
  <time>2026-09-01T01:13:16Z</time>
  <course>274.99</course>
  <speed>0.01</speed>
  <fix>3d</fix>
</trkpt>
<trkpt lat="33.8103132" lon="-118.393868">
  <ele>-11.673</ele>
  <time>2026-09-01T01:13:16Z</time>
  <course>185.38</course>
  <speed>0.04242640687119285</speed>
  <fix>3d</fix>
</trkpt>
<trkpt lat="33.8103132" lon="-118.393868">
  <ele>-11.761</ele>
  <time>2026-09-01T01:13:16Z</time>
  <course>185.38</course>
  <speed>0.04242640687119285</speed>
  <fix>3d</fix>
</trkpt>
<trkpt lat="33.810313" lon="-118.3938678">
  <ele>-11.19</ele>
  <time>2026-09-01T01:13:16Z</time>
  <course>274.99</course>
  <speed>0.01</speed>
  <fix>3d</fix>
</trkpt>
<trkpt lat="33.8103132" lon="-118.393868">
  <ele>-11.799</ele>
  <time>2026-09-01T01:13:16Z</time>
  <course>185.38</course>
  <speed>0.04242640687119285</speed>
  <fix>3d</fix>
</trkpt>
<trkpt lat="33.8103132" lon="-118.393868">
  <ele>-11.887</ele>
  <time>2026-09-01T01:13:16Z</time>
  <course>185.39</course>
  <speed>0.04242640687119285</speed>
  <fix>3d</fix>
</trkpt>
<trkpt lat="33.810313" lon="-118.3938678">
  <ele>-11.19</ele>
  <time>2026-09-01T01:13:16Z</time>
  <course>274.99</course>
  <speed>0.01</speed>
  <fix>3d</fix>
</trkpt>
<trkpt lat="33.8103132" lon="-118.393868">
  <ele>-11.928</ele>
  <time>2026-09-01T01:13:16Z</time>
  <course>185.39</course>
  <speed>0.04242640687119285</speed>
  <fix>3d</fix>
</trkpt>
<trkpt lat="33.8103132" lon="-118.393868">
  <ele>-12.013</ele>
  <time>2026-09-01T01:13:16Z</time>
  <course>185.39</course>
  <speed>0.04242640687119285</speed>
  <fix>3d</fix>
</trkpt>
<trkpt lat="33.810313" lon="-118.3938678">
  <ele>-11.43</ele>
  <time>2026-09-01T01:13:16Z</time>
  <course>274.99</course>
  <speed>0.01</speed>
  <fix>3d</fix>
</trkpt>
<trkpt lat="33.8103132" lon="-118.393868">
  <ele>-12.054</ele>
  <time>2026-09-01T01:13:16Z</time>
  <course>185.4</course>
  <speed>0.04242640687119285</speed>
  <fix>3d</fix>
</trkpt>
<trkpt lat="33.8103132" lon="-118.393868">
  <ele>-12.139</ele>
  <time>2026-09-01T01:13:16Z</time>
  <course>185.4</course>
  <speed>0.04242640687119285</speed>
  <fix>3d</fix>
</trkpt>
<trkpt lat="33.810313" lon="-118.3938678">
  <ele>-11.43</ele>
  <time>2026-09-01T01:13:16Z</time>
  <course>274.99</course>
  <speed>0.01</speed>
  <fix>3d</fix>
</trkpt>
<trkpt lat="33.8103132" lon="-118.393868">
  <ele>-12.174</ele>
  <time>2026-09-01T01:13:16Z</time>
  <course>185.4</course>
  <speed>0.04242640687119285</speed>
  <fix>3d</fix>
</trkpt>
<trkpt lat="33.8103132" lon="-118.393868">
  <ele>-12.264</ele>
  <time>2026-09-01T01:13:16Z</time>
  <course>185.41</course>
  <speed>0.04242640687119285</speed>
  <fix>3d</fix>
</trkpt>
<trkpt lat="33.810313" lon="-118.3938678">
  <ele>-11.68</ele>
  <time>2026-09-01T01:13:16Z</time>
  <course>274.99</course>
  <speed>0.01</speed>
  <fix>3d</fix>
</trkpt>
<trkpt lat="33.8103132" lon="-118.393868">
  <ele>-12.307</ele>
  <time>2026-09-01T01:13:16Z</time>
  <course>185.41</course>
  <speed>0.04242640687119285</speed>
  <fix>3d</fix>
</trkpt>
<trkpt lat="33.8103132" lon="-118.393868">
  <ele>-12.388</ele>
  <time>2026-09-01T01:13:16Z</time>
  <course>185.41</course>
  <speed>0.04242640687119285</speed>
  <fix>3d</fix>
</trkpt>
<trkpt lat="33.810313" lon="-118.3938678">
  <ele>-11.68</ele>
  <time>2026-09-01T01:13:16Z</time>
  <course>274.99</course>
  <speed>0.01</speed>
  <fix>3d</fix>
</trkpt>
<trkpt lat="33.8103132" lon="-118.393868">
  <ele>-12.432</ele>
  <time>2026-09-01T01:13:16Z</time>
  <course>185.42</course>
  <speed>0.04242640687119285</speed>
  <fix>3d</fix>
</trkpt>
<trkpt lat="33.8103132" lon="-118.393868">
  <ele>-12.514</ele>
  <time>2026-09-01T01:13:16Z</time>
  <course>185.42</course>
  <speed>0.04242640687119285</speed>
  <fix>3d</fix>
</trkpt>
<trkpt lat="33.810313" lon="-118.3938679">
  <ele>-11.92</ele>
  <time>2026-09-01T01:13:16Z</time>
  <course>274.99</course>
  <speed>0.01</speed>
  <fix>3d</fix>
</trkpt>
<trkpt lat="33.8103132" lon="-118.393868">
  <ele>-12.517</ele>
  <time>2026-09-01T01:13:16Z</time>
  <course>185.42</course>
  <speed>0.04242640687119285</speed>
  <fix>3d</fix>
</trkpt>
<trkpt lat="33.8103132" lon="-118.3938681">
  <ele>-12.64</ele>
  <time>2026-09-01T01:13:16Z</time>
  <course>185.42</course>
  <speed>0.04242640687119285</speed>
  <fix>3d</fix>
</trkpt>
<trkpt lat="33.810313" lon="-118.3938679">
  <ele>-11.92</ele>
  <time>2026-09-01T01:13:16Z</time>
  <course>274.99</course>
  <speed>0.01</speed>
  <fix>3d</fix>
</trkpt>
<trkpt lat="33.8103132" lon="-118.3938681">
  <ele>-12.681</ele>
  <time>2026-09-01T01:13:16Z</time>
  <course>185.43</course>
  <speed>0.04242640687119285</speed>
  <fix>3d</fix>
</trkpt>
<trkpt lat="33.8103132" lon="-118.3938681">
  <ele>-12.765</ele>
  <time>2026-09-01T01:13:16Z</time>
  <course>185.43</course>
  <speed>0.04242640687119285</speed>
  <fix>3d</fix>
</trkpt>
<trkpt lat="33.810313" lon="-118.3938679">
  <ele>-12.17</ele>
  <time>2026-09-01T01:13:16Z</time>
  <course>274.99</course>
  <speed>0.01</speed>
  <fix>3d</fix>
</trkpt>
<trkpt lat="33.8103132" lon="-118.3938681">
  <ele>-12.768</ele>
  <time>2026-09-01T01:13:16Z</time>
  <course>185.43</course>
  <speed>0.04242640687119285</speed>
  <fix>3d</fix>
</trkpt>
<trkpt lat="33.8103132" lon="-118.3938681">
  <ele>-12.889</ele>
  <time>2026-09-01T01:13:16Z</time>
  <course>185.44</course>
  <speed>0.04242640687119285</speed>
  <fix>3d</fix>
</trkpt>
<trkpt lat="33.810313" lon="-118.3938679">
  <ele>-12.17</ele>
  <time>2026-09-01T01:13:16Z</time>
  <course>274.99</course>
  <speed>0.01</speed>
  <fix>3d</fix>
</trkpt>
<trkpt lat="33.8103132" lon="-118.3938681">
  <ele>-12.892</ele>
  <time>2026-09-01T01:13:16Z</time>
  <course>185.44</course>
  <speed>0.04242640687119285</speed>
  <fix>3d</fix>
</trkpt>
<trkpt lat="33.8103132" lon="-118.3938681">
  <ele>-13.011</ele>
  <time>2026-09-01T01:13:16Z</time>
  <course>185.44</course>
  <speed>0.04242640687119285</speed>
  <fix>3d</fix>
</trkpt>
<trkpt lat="33.810313" lon="-118.3938679">
  <ele>-12.41</ele>
  <time>2026-09-01T01:13:16Z</time>
  <course>274.99</course>
  <speed>0.01</speed>
  <fix>3d</fix>
</trkpt>
<trkpt lat="33.8103132" lon="-118.3938681">
  <ele>-13.048</ele>
  <time>2026-09-01T01:13:16Z</time>
  <course>185.44</course>
  <speed>0.04242640687119285</speed>
  <fix>3d</fix>
</trkpt>
<trkpt lat="33.8103132" lon="-118.3938681">
  <ele>-13.133</ele>
  <time>2026-09-01T01:13:16Z</time>
  <course>185.45</course>
  <speed>0.04242640687119285</speed>
  <fix>3d</fix>
</trkpt>
<trkpt lat="33.810313" lon="-118.3938679">
  <ele>-12.41</ele>
  <time>2026-09-01T01:13:16Z</time>
  <course>274.99</course>
  <speed>0.01</speed>
  <fix>3d</fix>
</trkpt>
<trkpt lat="33.8103132" lon="-118.3938681">
  <ele>-13.169</ele>
  <time>2026-09-01T01:13:16Z</time>
  <course>185.45</course>
  <speed>0.04242640687119285</speed>
  <fix>3d</fix>
</trkpt>
<trkpt lat="33.8103132" lon="-118.3938681">
  <ele>-13.253</ele>
  <time>2026-09-01T01:13:16Z</time>
  <course>185.45</course>
  <speed>0.04242640687119285</speed>
  <fix>3d</fix>
</trkpt>
<trkpt lat="33.810313" lon="-118.393868">
  <ele>-12.65</ele>
  <time>2026-09-01T01:13:16Z</time>
  <course>274.99</course>
  <speed>0.01</speed>
  <fix>3d</fix>
</trkpt>
<trkpt lat="33.8103132" lon="-118.3938681">
  <ele>-13.293</ele>
  <time>2026-09-01T01:13:16Z</time>
  <course>185.46</course>
  <speed>0.04242640687119285</speed>
  <fix>3d</fix>
</trkpt>
<trkpt lat="33.8103132" lon="-118.3938681">
  <ele>-13.374</ele>
  <time>2026-09-01T01:13:16Z</time>
  <course>185.46</course>
  <speed>0.03605551275463989</speed>
  <fix>3d</fix>
</trkpt>
<trkpt lat="33.810313" lon="-118.393868">
  <ele>-12.65</ele>
  <time>2026-09-01T01:13:16Z</time>
  <course>274.99</course>
  <speed>0.01</speed>
  <fix>3d</fix>
</trkpt>
<trkpt lat="33.8103132" lon="-118.3938681">
  <ele>-13.414</ele>
  <time>2026-09-01T01:13:16Z</time>
  <course>185.46</course>
  <speed>0.04242640687119285</speed>
  <fix>3d</fix>
</trkpt>
<trkpt lat="33.8103132" lon="-118.3938681">
  <ele>-13.495</ele>
  <time>2026-09-01T01:13:16Z</time>
  <course>185.47</course>
  <speed>0.03605551275463989</speed>
  <fix>3d</fix>
</trkpt>
<trkpt lat="33.810313" lon="-118.393868">
  <ele>-12.89</ele>
  <time>2026-09-01T01:13:16Z</time>
  <course>274.99</course>
  <speed>0.01</speed>
  <fix>3d</fix>
</trkpt>
<trkpt lat="33.8103132" lon="-118.3938682">
  <ele>-13.532</ele>
  <time>2026-09-01T01:13:16Z</time>
  <course>185.47</course>
  <speed>0.03605551275463989</speed>
  <fix>3d</fix>
</trkpt>
<trkpt lat="33.8103132" lon="-118.3938682">
  <ele>-13.616</ele>
  <time>2026-09-01T01:13:16Z</time>
  <course>185.47</course>
  <speed>0.03605551275463989</speed>
  <fix>3d</fix>
</trkpt>
<trkpt lat="33.810313" lon="-118.393868">
  <ele>-12.89</ele>
  <time>2026-09-01T01:13:16Z</time>
  <course>274.99</course>
  <speed>0.01</speed>
  <fix>3d</fix>
</trkpt>
<trkpt lat="33.8103132" lon="-118.3938682">
  <ele>-13.653</ele>
  <time>2026-09-01T01:13:16Z</time>
  <course>185.47</course>
  <speed>0.03605551275463989</speed>
  <fix>3d</fix>
</trkpt>
<trkpt lat="33.8103132" lon="-118.3938682">
  <ele>-13.737</ele>
  <time>2026-09-01T01:13:16Z</time>
  <course>185.48</course>
  <speed>0.03605551275463989</speed>
  <fix>3d</fix>
</trkpt>
<trkpt lat="33.810313" lon="-118.393868">
  <ele>-13.14</ele>
  <time>2026-09-01T01:13:16Z</time>
  <course>274.99</course>
  <speed>0.01</speed>
  <fix>3d</fix>
</trkpt>
<trkpt lat="33.8103132" lon="-118.3938682">
  <ele>-13.776</ele>
  <time>2026-09-01T01:13:16Z</time>
  <course>185.48</course>
  <speed>0.03605551275463989</speed>
  <fix>3d</fix>
</trkpt>
<trkpt lat="33.8103132" lon="-118.3938682">
  <ele>-13.859</ele>
  <time>2026-09-01T01:13:16Z</time>
  <course>185.48</course>
  <speed>0.03605551275463989</speed>
  <fix>3d</fix>
</trkpt>
<trkpt lat="33.810313" lon="-118.393868">
  <ele>-13.14</ele>
  <time>2026-09-01T01:13:16Z</time>
  <course>274.99</course>
  <speed>0.01</speed>
  <fix>3d</fix>
</trkpt>
<trkpt lat="33.8103132" lon="-118.3938682">
  <ele>-13.861</ele>
  <time>2026-09-01T01:13:16Z</time>
  <course>185.48</course>
  <speed>0.03605551275463989</speed>
  <fix>3d</fix>
</trkpt>
<trkpt lat="33.8103132" lon="-118.3938682">
  <ele>-13.981</ele>
  <time>2026-09-01T01:13:16Z</time>
  <course>185.49</course>
  <speed>0.03605551275463989</speed>
  <fix>3d</fix>
</trkpt>
<trkpt lat="33.810313" lon="-118.393868">
  <ele>-13.38</ele>
  <time>2026-09-01T01:13:16Z</time>
  <course>274.99</course>
  <speed>0.01</speed>
  <fix>3d</fix>
</trkpt>
<trkpt lat="33.8103132" lon="-118.3938682">
  <ele>-14.018</ele>
  <time>2026-09-01T01:13:16Z</time>
  <course>185.49</course>
  <speed>0.03605551275463989</speed>
  <fix>3d</fix>
</trkpt>
<trkpt lat="33.8103132" lon="-118.3938682">
  <ele>-14.104</ele>
  <time>2026-09-01T01:13:16Z</time>
  <course>185.5</course>
  <speed>0.03605551275463989</speed>
  <fix>3d</fix>
</trkpt>
<trkpt lat="33.810313" lon="-118.393868">
  <ele>-13.38</ele>
  <time>2026-09-01T01:13:16Z</time>
  <course>274.99</course>
  <speed>0.01</speed>
  <fix>3d</fix>
</trkpt>
<trkpt lat="33.8103132" lon="-118.3938682">
  <ele>-14.141</ele>
  <time>2026-09-01T01:13:16Z</time>
  <course>185.5</course>
  <speed>0.03605551275463989</speed>
  <fix>3d</fix>
</trkpt>
<trkpt lat="33.8103132" lon="-118.3938682">
  <ele>-14.228</ele>
  <time>2026-09-01T01:13:16Z</time>
  <course>185.5</course>
  <speed>0.03605551275463989</speed>
  <fix>3d</fix>
</trkpt>
<trkpt lat="33.810313" lon="-118.3938681">
  <ele>-13.62</ele>
  <time>2026-09-01T01:13:16Z</time>
  <course>274.99</course>
  <speed>0.01</speed>
  <fix>3d</fix>
</trkpt>
<trkpt lat="33.8103132" lon="-118.3938682">
  <ele>-14.264</ele>
  <time>2026-09-01T01:13:16Z</time>
  <course>185.5</course>
  <speed>0.03605551275463989</speed>
  <fix>3d</fix>
</trkpt>
<trkpt lat="33.8103132" lon="-118.3938682">
  <ele>-14.351</ele>
  <time>2026-09-01T01:13:16Z</time>
  <course>185.51</course>
  <speed>0.03605551275463989</speed>
  <fix>3d</fix>
</trkpt>
<trkpt lat="33.810313" lon="-118.3938681">
  <ele>-13.62</ele>
  <time>2026-09-01T01:13:16Z</time>
  <course>274.99</course>
  <speed>0.01</speed>
  <fix>3d</fix>
</trkpt>
<trkpt lat="33.8103132" lon="-118.3938682">
  <ele>-14.387</ele>
  <time>2026-09-01T01:13:16Z</time>
  <course>185.51</course>
  <speed>0.03605551275463989</speed>
  <fix>3d</fix>
</trkpt>
<trkpt lat="33.8103132" lon="-118.3938682">
  <ele>-14.474</ele>
  <time>2026-09-01T01:13:16Z</time>
  <course>185.51</course>
  <speed>0.03605551275463989</speed>
  <fix>3d</fix>
</trkpt>
<trkpt lat="33.810313" lon="-118.3938681">
  <ele>-13.87</ele>
  <time>2026-09-01T01:13:16Z</time>
  <course>274.99</course>
  <speed>0.01</speed>
  <fix>3d</fix>
</trkpt>
<trkpt lat="33.8103132" lon="-118.3938683">
  <ele>-14.511</ele>
  <time>2026-09-01T01:13:16Z</time>
  <course>185.51</course>
  <speed>0.03605551275463989</speed>
  <fix>3d</fix>
</trkpt>
<trkpt lat="33.8103132" lon="-118.3938683">
  <ele>-14.598</ele>
  <time>2026-09-01T01:13:16Z</time>
  <course>185.52</course>
  <speed>0.03605551275463989</speed>
  <fix>3d</fix>
</trkpt>
<trkpt lat="33.810313" lon="-118.3938681">
  <ele>-13.87</ele>
  <time>2026-09-01T01:13:16Z</time>
  <course>274.99</course>
  <speed>0.01</speed>
  <fix>3d</fix>
</trkpt>
<trkpt lat="33.8103132" lon="-118.3938683">
  <ele>-14.635</ele>
  <time>2026-09-01T01:13:16Z</time>
  <course>185.52</course>
  <speed>0.03605551275463989</speed>
  <fix>3d</fix>
</trkpt>
<trkpt lat="33.8103132" lon="-118.3938683">
  <ele>-14.722</ele>
  <time>2026-09-01T01:13:16Z</time>
  <course>185.52</course>
  <speed>0.03605551275463989</speed>
  <fix>3d</fix>
</trkpt>
<trkpt lat="33.810313" lon="-118.3938681">
  <ele>-14.11</ele>
  <time>2026-09-01T01:13:16Z</time>
  <course>274.99</course>
  <speed>0.01</speed>
  <fix>3d</fix>
</trkpt>
<trkpt lat="33.8103132" lon="-118.3938683">
  <ele>-14.762</ele>
  <time>2026-09-01T01:13:16Z</time>
  <course>185.52</course>
  <speed>0.03605551275463989</speed>
  <fix>3d</fix>
</trkpt>
<trkpt lat="33.8103132" lon="-118.3938683">
  <ele>-14.847</ele>
  <time>2026-09-01T01:13:16Z</time>
  <course>185.53</course>
  <speed>0.03605551275463989</speed>
  <fix>3d</fix>
</trkpt>
<trkpt lat="33.810313" lon="-118.3938681">
  <ele>-14.11</ele>
  <time>2026-09-01T01:13:16Z</time>
  <course>274.99</course>
  <speed>0.01</speed>
  <fix>3d</fix>
</trkpt>
<trkpt lat="33.8103132" lon="-118.3938683">
  <ele>-14.885</ele>
  <time>2026-09-01T01:13:16Z</time>
  <course>185.53</course>
  <speed>0.03605551275463989</speed>
  <fix>3d</fix>
</trkpt>
<trkpt lat="33.8103132" lon="-118.3938683">
  <ele>-14.972</ele>
  <time>2026-09-01T01:13:16Z</time>
  <course>185.53</course>
  <speed>0.03605551275463989</speed>
  <fix>3d</fix>
</trkpt>
<trkpt lat="33.810313" lon="-118.3938681">
  <ele>-14.35</ele>
  <time>2026-09-01T01:13:16Z</time>
  <course>274.99</course>
  <speed>0.01</speed>
  <fix>3d</fix>
</trkpt>
<trkpt lat="33.8103132" lon="-118.3938683">
  <ele>-15.011</ele>
  <time>2026-09-01T01:13:16Z</time>
  <course>185.54</course>
  <speed>0.03605551275463989</speed>
  <fix>3d</fix>
</trkpt>
<trkpt lat="33.8103132" lon="-118.3938683">
  <ele>-15.099</ele>
  <time>2026-09-01T01:13:16Z</time>
  <course>185.54</course>
  <speed>0.03605551275463989</speed>
  <fix>3d</fix>
</trkpt>
<trkpt lat="33.810313" lon="-118.3938681">
  <ele>-14.35</ele>
  <time>2026-09-01T01:13:16Z</time>
  <course>274.99</course>
  <speed>0.01</speed>
  <fix>3d</fix>
</trkpt>
<trkpt lat="33.8103132" lon="-118.3938683">
  <ele>-15.13</ele>
  <time>2026-09-01T01:13:16Z</time>
  <course>185.54</course>
  <speed>0.03605551275463989</speed>
  <fix>3d</fix>
</trkpt>
<trkpt lat="33.8103132" lon="-118.3938683">
  <ele>-15.224</ele>
  <time>2026-09-01T01:13:16Z</time>
  <course>185.54</course>
  <speed>0.03605551275463989</speed>
  <fix>3d</fix>
</trkpt>
<trkpt lat="33.810313" lon="-118.3938682">
  <ele>-14.6</ele>
  <time>2026-09-01T01:13:16Z</time>
  <course>274.99</course>
  <speed>0.01</speed>
  <fix>3d</fix>
</trkpt>
<trkpt lat="33.8103132" lon="-118.3938683">
  <ele>-15.227</ele>
  <time>2026-09-01T01:13:16Z</time>
  <course>185.55</course>
  <speed>0.03605551275463989</speed>
  <fix>3d</fix>
</trkpt>
<trkpt lat="33.8103132" lon="-118.3938683">
  <ele>-15.35</ele>
  <time>2026-09-01T01:13:16Z</time>
  <course>185.55</course>
  <speed>0.03605551275463989</speed>
  <fix>3d</fix>
</trkpt>
<trkpt lat="33.810313" lon="-118.3938682">
  <ele>-14.6</ele>
  <time>2026-09-01T01:13:16Z</time>
  <course>274.99</course>
  <speed>0.01</speed>
  <fix>3d</fix>
</trkpt>
<trkpt lat="33.8103132" lon="-118.3938683">
  <ele>-15.39</ele>
  <time>2026-09-01T01:13:16Z</time>
  <course>185.55</course>
  <speed>0.03605551275463989</speed>
  <fix>3d</fix>
</trkpt>
<trkpt lat="33.8103132" lon="-118.3938683">
  <ele>-15.475</ele>
  <time>2026-09-01T01:13:16Z</time>
  <course>185.56</course>
  <speed>0.03605551275463989</speed>
  <fix>3d</fix>
</trkpt>
<trkpt lat="33.810313" lon="-118.3938682">
  <ele>-14.84</ele>
  <time>2026-09-01T01:13:16Z</time>
  <course>274.99</course>
  <speed>0.01</speed>
  <fix>3d</fix>
</trkpt>
<trkpt lat="33.8103132" lon="-118.3938684">
  <ele>-15.513</ele>
  <time>2026-09-01T01:13:16Z</time>
  <course>185.56</course>
  <speed>0.03605551275463989</speed>
  <fix>3d</fix>
</trkpt>
<trkpt lat="33.8103132" lon="-118.3938684">
  <ele>-15.601</ele>
  <time>2026-09-01T01:13:16Z</time>
  <course>185.56</course>
  <speed>0.03605551275463989</speed>
  <fix>3d</fix>
</trkpt>
<trkpt lat="33.810313" lon="-118.3938682">
  <ele>-14.84</ele>
  <time>2026-09-01T01:13:16Z</time>
  <course>274.99</course>
  <speed>0.01</speed>
  <fix>3d</fix>
</trkpt>
<trkpt lat="33.8103132" lon="-118.3938684">
  <ele>-15.642</ele>
  <time>2026-09-01T01:13:16Z</time>
  <course>185.56</course>
  <speed>0.03605551275463989</speed>
  <fix>3d</fix>
</trkpt>
<trkpt lat="33.8103132" lon="-118.3938684">
  <ele>-15.726</ele>
  <time>2026-09-01T01:13:16Z</time>
  <course>185.57</course>
  <speed>0.03605551275463989</speed>
  <fix>3d</fix>
</trkpt>
<trkpt lat="33.810313" lon="-118.3938682">
  <ele>-15.08</ele>
  <time>2026-09-01T01:13:16Z</time>
  <course>274.99</course>
  <speed>0.01</speed>
  <fix>3d</fix>
</trkpt>
<trkpt lat="33.8103132" lon="-118.3938684">
  <ele>-15.767</ele>
  <time>2026-09-01T01:13:16Z</time>
  <course>185.57</course>
  <speed>0.03605551275463989</speed>
  <fix>3d</fix>
</trkpt>
<trkpt lat="33.8103132" lon="-118.3938684">
  <ele>-15.852</ele>
  <time>2026-09-01T01:13:16Z</time>
  <course>185.57</course>
  <speed>0.03605551275463989</speed>
  <fix>3d</fix>
</trkpt>
<trkpt lat="33.810313" lon="-118.3938682">
  <ele>-15.08</ele>
  <time>2026-09-01T01:13:16Z</time>
  <course>274.99</course>
  <speed>0.01</speed>
  <fix>3d</fix>
</trkpt>
<trkpt lat="33.8103132" lon="-118.3938684">
  <ele>-15.893</ele>
  <time>2026-09-01T01:13:16Z</time>
  <course>185.57</course>
  <speed>0.03605551275463989</speed>
  <fix>3d</fix>
</trkpt>
<trkpt lat="33.8103132" lon="-118.3938684">
  <ele>-15.977</ele>
  <time>2026-09-01T01:13:16Z</time>
  <course>185.58</course>
  <speed>0.03605551275463989</speed>
  <fix>3d</fix>
</trkpt>
<trkpt lat="33.810313" lon="-118.3938683">
  <ele>-15.33</ele>
  <time>2026-09-01T01:13:16Z</time>
  <course>274.99</course>
  <speed>0.01</speed>
  <fix>3d</fix>
</trkpt>
<trkpt lat="33.8103132" lon="-118.3938684">
  <ele>-15.98</ele>
  <time>2026-09-01T01:13:16Z</time>
  <course>185.58</course>
  <speed>0.03605551275463989</speed>
  <fix>3d</fix>
</trkpt>
<trkpt lat="33.8103132" lon="-118.3938684">
  <ele>-16.103</ele>
  <time>2026-09-01T01:13:16Z</time>
  <course>185.58</course>
  <speed>0.03605551275463989</speed>
  <fix>3d</fix>
</trkpt>
<trkpt lat="33.810313" lon="-118.3938683">
  <ele>-15.33</ele>
  <time>2026-09-01T01:13:16Z</time>
  <course>274.99</course>
  <speed>0.01</speed>
  <fix>3d</fix>
</trkpt>
<trkpt lat="33.8103132" lon="-118.3938684">
  <ele>-16.141</ele>
  <time>2026-09-01T01:13:16Z</time>
  <course>185.58</course>
  <speed>0.03605551275463989</speed>
  <fix>3d</fix>
</trkpt>
<trkpt lat="33.8103132" lon="-118.3938684">
  <ele>-16.229</ele>
  <time>2026-09-01T01:13:16Z</time>
  <course>185.59</course>
  <speed>0.03605551275463989</speed>
  <fix>3d</fix>
</trkpt>
<trkpt lat="33.810313" lon="-118.3938683">
  <ele>-15.57</ele>
  <time>2026-09-01T01:13:16Z</time>
  <course>274.99</course>
  <speed>0.01</speed>
  <fix>3d</fix>
</trkpt>
<trkpt lat="33.8103132" lon="-118.3938684">
  <ele>-16.266</ele>
  <time>2026-09-01T01:13:16Z</time>
  <course>185.59</course>
  <speed>0.03605551275463989</speed>
  <fix>3d</fix>
</trkpt>
<trkpt lat="33.8103132" lon="-118.3938684">
  <ele>-16.354</ele>
  <time>2026-09-01T01:13:16Z</time>
  <course>185.59</course>
  <speed>0.03605551275463989</speed>
  <fix>3d</fix>
</trkpt>
<trkpt lat="33.810313" lon="-118.3938683">
  <ele>-15.57</ele>
  <time>2026-09-01T01:13:16Z</time>
  <course>274.99</course>
  <speed>0.01</speed>
  <fix>3d</fix>
</trkpt>
<trkpt lat="33.8103132" lon="-118.3938684">
  <ele>-16.397</ele>
  <time>2026-09-01T01:13:16Z</time>
  <course>185.59</course>
  <speed>0.03605551275463989</speed>
  <fix>3d</fix>
</trkpt>
<trkpt lat="33.8103132" lon="-118.3938685">
  <ele>-16.479</ele>
  <time>2026-09-01T01:13:16Z</time>
  <course>185.6</course>
  <speed>0.03605551275463989</speed>
  <fix>3d</fix>
</trkpt>
<trkpt lat="33.810313" lon="-118.3938683">
  <ele>-15.81</ele>
  <time>2026-09-01T01:13:16Z</time>
  <course>274.99</course>
  <speed>0.01</speed>
  <fix>3d</fix>
</trkpt>
<trkpt lat="33.8103132" lon="-118.3938685">
  <ele>-16.516</ele>
  <time>2026-09-01T01:13:16Z</time>
  <course>185.6</course>
  <speed>0.03605551275463989</speed>
  <fix>3d</fix>
</trkpt>
<trkpt lat="33.8103132" lon="-118.3938685">
  <ele>-16.604</ele>
  <time>2026-09-01T01:13:16Z</time>
  <course>185.6</course>
  <speed>0.03605551275463989</speed>
  <fix>3d</fix>
</trkpt>
<trkpt lat="33.810313" lon="-118.3938683">
  <ele>-15.81</ele>
  <time>2026-09-01T01:13:16Z</time>
  <course>274.99</course>
  <speed>0.01</speed>
  <fix>3d</fix>
</trkpt>
<trkpt lat="33.8103132" lon="-118.3938685">
  <ele>-16.607</ele>
  <time>2026-09-01T01:13:16Z</time>
  <course>185.6</course>
  <speed>0.03605551275463989</speed>
  <fix>3d</fix>
</trkpt>
<trkpt lat="33.8103132" lon="-118.3938685">
  <ele>-16.729</ele>
  <time>2026-09-01T01:13:16Z</time>
  <course>185.61</course>
  <speed>0.03605551275463989</speed>
  <fix>3d</fix>
</trkpt>
<trkpt lat="33.8103131" lon="-118.3938683">
  <ele>-16.05</ele>
  <time>2026-09-01T01:13:16Z</time>
  <course>274.99</course>
  <speed>0.01</speed>
  <fix>3d</fix>
</trkpt>
<trkpt lat="33.8103132" lon="-118.3938685">
  <ele>-16.766</ele>
  <time>2026-09-01T01:13:16Z</time>
  <course>185.61</course>
  <speed>0.03605551275463989</speed>
  <fix>3d</fix>
</trkpt>
<trkpt lat="33.8103132" lon="-118.3938685">
  <ele>-16.853</ele>
  <time>2026-09-01T01:13:16Z</time>
  <course>185.61</course>
  <speed>0.03605551275463989</speed>
  <fix>3d</fix>
</trkpt>
<trkpt lat="33.8103131" lon="-118.3938683">
  <ele>-16.05</ele>
  <time>2026-09-01T01:13:16Z</time>
  <course>274.99</course>
  <speed>0.01</speed>
  <fix>3d</fix>
</trkpt>
<trkpt lat="33.8103132" lon="-118.3938685">
  <ele>-16.891</ele>
  <time>2026-09-01T01:13:16Z</time>
  <course>185.61</course>
  <speed>0.03605551275463989</speed>
  <fix>3d</fix>
</trkpt>
<trkpt lat="33.8103132" lon="-118.3938685">
  <ele>-16.978</ele>
  <time>2026-09-01T01:13:16Z</time>
  <course>185.62</course>
  <speed>0.03605551275463989</speed>
  <fix>3d</fix>
</trkpt>
<trkpt lat="33.8103131" lon="-118.3938684">
  <ele>-16.29</ele>
  <time>2026-09-01T01:13:16Z</time>
  <course>274.99</course>
  <speed>0.01</speed>
  <fix>3d</fix>
</trkpt>
<trkpt lat="33.8103132" lon="-118.3938685">
  <ele>-17.019</ele>
  <time>2026-09-01T01:13:16Z</time>
  <course>185.62</course>
  <speed>0.03605551275463989</speed>
  <fix>3d</fix>
</trkpt>
<trkpt lat="33.8103132" lon="-118.3938685">
  <ele>-17.103</ele>
  <time>2026-09-01T01:13:16Z</time>
  <course>185.62</course>
  <speed>0.03605551275463989</speed>
  <fix>3d</fix>
</trkpt>
<trkpt lat="33.8103131" lon="-118.3938684">
  <ele>-16.29</ele>
  <time>2026-09-01T01:13:16Z</time>
  <course>274.99</course>
  <speed>0.01</speed>
  <fix>3d</fix>
</trkpt>
<trkpt lat="33.8103132" lon="-118.3938685">
  <ele>-17.14</ele>
  <time>2026-09-01T01:13:16Z</time>
  <course>185.62</course>
  <speed>0.03605551275463989</speed>
  <fix>3d</fix>
</trkpt>
<trkpt lat="33.8103132" lon="-118.3938685">
  <ele>-17.227</ele>
  <time>2026-09-01T01:13:16Z</time>
  <course>185.63</course>
  <speed>0.03605551275463989</speed>
  <fix>3d</fix>
</trkpt>
<trkpt lat="33.8103131" lon="-118.3938684">
  <ele>-16.54</ele>
  <time>2026-09-01T01:13:16Z</time>
  <course>274.99</course>
  <speed>0.01</speed>
  <fix>3d</fix>
</trkpt>
<trkpt lat="33.8103132" lon="-118.3938685">
  <ele>-17.264</ele>
  <time>2026-09-01T01:13:16Z</time>
  <course>185.63</course>
  <speed>0.03605551275463989</speed>
  <fix>3d</fix>
</trkpt>
<trkpt lat="33.8103132" lon="-118.3938685">
  <ele>-17.352</ele>
  <time>2026-09-01T01:13:16Z</time>
  <course>185.63</course>
  <speed>0.03605551275463989</speed>
  <fix>3d</fix>
</trkpt>
<trkpt lat="33.8103131" lon="-118.3938684">
  <ele>-16.54</ele>
  <time>2026-09-01T01:13:16Z</time>
  <course>274.99</course>
  <speed>0.01</speed>
  <fix>3d</fix>
</trkpt>
<trkpt lat="33.8103132" lon="-118.3938685">
  <ele>-17.392</ele>
  <time>2026-09-01T01:13:16Z</time>
  <course>185.63</course>
  <speed>0.03605551275463989</speed>
  <fix>3d</fix>
</trkpt>
<trkpt lat="33.8103132" lon="-118.3938686">
  <ele>-17.476</ele>
  <time>2026-09-01T01:13:16Z</time>
  <course>185.64</course>
  <speed>0.03605551275463989</speed>
  <fix>3d</fix>
</trkpt>
<trkpt lat="33.8103131" lon="-118.3938684">
  <ele>-16.79</ele>
  <time>2026-09-01T01:13:16Z</time>
  <course>274.99</course>
  <speed>0.01</speed>
  <fix>3d</fix>
</trkpt>
<trkpt lat="33.8103132" lon="-118.3938686">
  <ele>-17.513</ele>
  <time>2026-09-01T01:13:16Z</time>
  <course>185.64</course>
  <speed>0.03605551275463989</speed>
  <fix>3d</fix>
</trkpt>
<trkpt lat="33.8103132" lon="-118.3938686">
  <ele>-17.6</ele>
  <time>2026-09-01T01:13:16Z</time>
  <course>185.64</course>
  <speed>0.03605551275463989</speed>
  <fix>3d</fix>
</trkpt>
<trkpt lat="33.8103131" lon="-118.3938684">
  <ele>-16.79</ele>
  <time>2026-09-01T01:13:16Z</time>
  <course>274.99</course>
  <speed>0.01</speed>
  <fix>3d</fix>
</trkpt>
<trkpt lat="33.8103132" lon="-118.3938686">
  <ele>-17.651</ele>
  <time>2026-09-01T01:13:16Z</time>
  <course>185.64</course>
  <speed>0.03605551275463989</speed>
  <fix>3d</fix>
</trkpt>
<trkpt lat="33.8103132" lon="-118.3938686">
  <ele>-17.726</ele>
  <time>2026-09-01T01:13:16Z</time>
  <course>185.64</course>
  <speed>0.0282842712474619</speed>
  <fix>3d</fix>
</trkpt>
<trkpt lat="33.8103131" lon="-118.3938684">
  <ele>-17.02</ele>
  <time>2026-09-01T01:13:16Z</time>
  <course>274.99</course>
  <speed>0.01</speed>
  <fix>3d</fix>
</trkpt>
<trkpt lat="33.8103132" lon="-118.3938686">
  <ele>-17.764</ele>
  <time>2026-09-01T01:13:16Z</time>
  <course>185.65</course>
  <speed>0.0282842712474619</speed>
  <fix>3d</fix>
</trkpt>
<trkpt lat="33.8103132" lon="-118.3938686">
  <ele>-17.851</ele>
  <time>2026-09-01T01:13:16Z</time>
  <course>185.65</course>
  <speed>0.0282842712474619</speed>
  <fix>3d</fix>
</trkpt>
<trkpt lat="33.8103131" lon="-118.3938684">
  <ele>-17.02</ele>
  <time>2026-09-01T01:13:16Z</time>
  <course>274.99</course>
  <speed>0.01</speed>
  <fix>3d</fix>
</trkpt>
<trkpt lat="33.8103132" lon="-118.3938686">
  <ele>-17.854</ele>
  <time>2026-09-01T01:13:16Z</time>
  <course>185.65</course>
  <speed>0.0282842712474619</speed>
  <fix>3d</fix>
</trkpt>
<trkpt lat="33.8103132" lon="-118.3938686">
  <ele>-17.976</ele>
  <time>2026-09-01T01:13:16Z</time>
  <course>185.65</course>
  <speed>0.0282842712474619</speed>
  <fix>3d</fix>
</trkpt>
<trkpt lat="33.8103131" lon="-118.3938685">
  <ele>-17.27</ele>
  <time>2026-09-01T01:13:16Z</time>
  <course>274.99</course>
  <speed>0.01</speed>
  <fix>3d</fix>
</trkpt>
<trkpt lat="33.8103132" lon="-118.3938686">
  <ele>-18.014</ele>
  <time>2026-09-01T01:13:16Z</time>
  <course>185.66</course>
  <speed>0.0282842712474619</speed>
  <fix>3d</fix>
</trkpt>
<trkpt lat="33.8103133" lon="-118.3938686">
  <ele>-18.103</ele>
  <time>2026-09-01T01:13:16Z</time>
  <course>185.66</course>
  <speed>0.0282842712474619</speed>
  <fix>3d</fix>
</trkpt>
<trkpt lat="33.8103131" lon="-118.3938685">
  <ele>-17.27</ele>
  <time>2026-09-01T01:13:16Z</time>
  <course>274.99</course>
  <speed>0.01</speed>
  <fix>3d</fix>
</trkpt>
<trkpt lat="33.8103133" lon="-118.3938686">
  <ele>-18.14</ele>
  <time>2026-09-01T01:13:16Z</time>
  <course>185.66</course>
  <speed>0.0282842712474619</speed>
  <fix>3d</fix>
</trkpt>
<trkpt lat="33.8103133" lon="-118.3938686">
  <ele>-18.229</ele>
  <time>2026-09-01T01:13:16Z</time>
  <course>185.66</course>
  <speed>0.0282842712474619</speed>
  <fix>3d</fix>
</trkpt>
<trkpt lat="33.8103131" lon="-118.3938685">
  <ele>-17.52</ele>
  <time>2026-09-01T01:13:16Z</time>
  <course>274.99</course>
  <speed>0.01</speed>
  <fix>3d</fix>
</trkpt>
<trkpt lat="33.8103133" lon="-118.3938686">
  <ele>-18.27</ele>
  <time>2026-09-01T01:13:16Z</time>
  <course>185.66</course>
  <speed>0.0282842712474619</speed>
  <fix>3d</fix>
</trkpt>
<trkpt lat="33.8103133" lon="-118.3938686">
  <ele>-18.355</ele>
  <time>2026-09-01T01:13:16Z</time>
  <course>185.67</course>
  <speed>0.0282842712474619</speed>
  <fix>3d</fix>
</trkpt>
<trkpt lat="33.8103131" lon="-118.3938685">
  <ele>-17.52</ele>
  <time>2026-09-01T01:13:16Z</time>
  <course>274.99</course>
  <speed>0.01</speed>
  <fix>3d</fix>
</trkpt>
<trkpt lat="33.8103133" lon="-118.3938686">
  <ele>-18.396</ele>
  <time>2026-09-01T01:13:16Z</time>
  <course>185.67</course>
  <speed>0.0282842712474619</speed>
  <fix>3d</fix>
</trkpt>
<trkpt lat="33.8103133" lon="-118.3938687">
  <ele>-18.481</ele>
  <time>2026-09-01T01:13:16Z</time>
  <course>185.67</course>
  <speed>0.0282842712474619</speed>
  <fix>3d</fix>
</trkpt>
<trkpt lat="33.8103131" lon="-118.3938685">
  <ele>-17.75</ele>
  <time>2026-09-01T01:13:16Z</time>
  <course>274.99</course>
  <speed>0.01</speed>
  <fix>3d</fix>
</trkpt>
<trkpt lat="33.8103133" lon="-118.3938687">
  <ele>-18.519</ele>
  <time>2026-09-01T01:13:16Z</time>
  <course>185.67</course>
  <speed>0.0282842712474619</speed>
  <fix>3d</fix>
</trkpt>
<trkpt lat="33.8103133" lon="-118.3938687">
  <ele>-18.607</ele>
  <time>2026-09-01T01:13:16Z</time>
  <course>185.68</course>
  <speed>0.0282842712474619</speed>
  <fix>3d</fix>
</trkpt>
<trkpt lat="33.8103131" lon="-118.3938685">
  <ele>-17.75</ele>
  <time>2026-09-01T01:13:16Z</time>
  <course>274.99</course>
  <speed>0.01</speed>
  <fix>3d</fix>
</trkpt>
<trkpt lat="33.8103133" lon="-118.3938687">
  <ele>-18.648</ele>
  <time>2026-09-01T01:13:16Z</time>
  <course>185.68</course>
  <speed>0.0282842712474619</speed>
  <fix>3d</fix>
</trkpt>
<trkpt lat="33.8103133" lon="-118.3938687">
  <ele>-18.733</ele>
  <time>2026-09-01T01:13:16Z</time>
  <course>185.68</course>
  <speed>0.0282842712474619</speed>
  <fix>3d</fix>
</trkpt>
<trkpt lat="33.8103131" lon="-118.3938685">
  <ele>-18.0</ele>
  <time>2026-09-01T01:13:16Z</time>
  <course>274.99</course>
  <speed>0.01</speed>
  <fix>3d</fix>
</trkpt>
<trkpt lat="33.8103133" lon="-118.3938687">
  <ele>-18.771</ele>
  <time>2026-09-01T01:13:16Z</time>
  <course>185.68</course>
  <speed>0.0282842712474619</speed>
  <fix>3d</fix>
</trkpt>
<trkpt lat="33.8103133" lon="-118.3938687">
  <ele>-18.86</ele>
  <time>2026-09-01T01:13:16Z</time>
  <course>185.69</course>
  <speed>0.0282842712474619</speed>
  <fix>3d</fix>
</trkpt>
<trkpt lat="33.8103131" lon="-118.3938685">
  <ele>-18.0</ele>
  <time>2026-09-01T01:13:16Z</time>
  <course>274.99</course>
  <speed>0.01</speed>
  <fix>3d</fix>
</trkpt>
<trkpt lat="33.8103133" lon="-118.3938687">
  <ele>-18.9</ele>
  <time>2026-09-01T01:13:16Z</time>
  <course>185.69</course>
  <speed>0.0282842712474619</speed>
  <fix>3d</fix>
</trkpt>
<trkpt lat="33.8103133" lon="-118.3938687">
  <ele>-18.986</ele>
  <time>2026-09-01T01:13:16Z</time>
  <course>185.69</course>
  <speed>0.0282842712474619</speed>
  <fix>3d</fix>
</trkpt>
<trkpt lat="33.8103131" lon="-118.3938686">
  <ele>-18.25</ele>
  <time>2026-09-01T01:13:16Z</time>
  <course>274.99</course>
  <speed>0.01</speed>
  <fix>3d</fix>
</trkpt>
<trkpt lat="33.8103133" lon="-118.3938687">
  <ele>-19.026</ele>
  <time>2026-09-01T01:13:16Z</time>
  <course>185.69</course>
  <speed>0.0282842712474619</speed>
  <fix>3d</fix>
</trkpt>
<trkpt lat="33.8103133" lon="-118.3938687">
  <ele>-19.111</ele>
  <time>2026-09-01T01:13:16Z</time>
  <course>185.69</course>
  <speed>0.0282842712474619</speed>
  <fix>3d</fix>
</trkpt>
<trkpt lat="33.8103131" lon="-118.3938686">
  <ele>-18.25</ele>
  <time>2026-09-01T01:13:16Z</time>
  <course>274.99</course>
  <speed>0.01</speed>
  <fix>3d</fix>
</trkpt>
<trkpt lat="33.8103133" lon="-118.3938687">
  <ele>-19.236</ele>
  <time>2026-09-01T01:13:16Z</time>
  <course>185.7</course>
  <speed>0.0282842712474619</speed>
  <fix>3d</fix>
</trkpt>
<trkpt lat="33.8103131" lon="-118.3938686">
  <ele>-18.49</ele>
  <time>2026-09-01T01:13:16Z</time>
  <course>274.99</course>
  <speed>0.01</speed>
  <fix>3d</fix>
</trkpt>
<trkpt lat="33.8103133" lon="-118.3938687">
  <ele>-19.361</ele>
  <time>2026-09-01T01:13:16Z</time>
  <course>185.7</course>
  <speed>0.0282842712474619</speed>
  <fix>3d</fix>
</trkpt>
<trkpt lat="33.8103131" lon="-118.3938686">
  <ele>-18.49</ele>
  <time>2026-09-01T01:13:16Z</time>
  <course>274.99</course>
  <speed>0.01</speed>
  <fix>3d</fix>
</trkpt>
<trkpt lat="33.8103133" lon="-118.3938687">
  <ele>-19.484</ele>
  <time>2026-09-01T01:13:16Z</time>
  <course>185.71</course>
  <speed>0.0282842712474619</speed>
  <fix>3d</fix>
</trkpt>
<trkpt lat="33.8103131" lon="-118.3938686">
  <ele>-18.73</ele>
  <time>2026-09-01T01:13:16Z</time>
  <course>274.99</course>
  <speed>0.01</speed>
  <fix>3d</fix>
</trkpt>
<trkpt lat="33.8103133" lon="-118.3938688">
  <ele>-19.603</ele>
  <time>2026-09-01T01:13:16Z</time>
  <course>185.71</course>
  <speed>0.0282842712474619</speed>
  <fix>3d</fix>
</trkpt>
<trkpt lat="33.8103131" lon="-118.3938686">
  <ele>-18.73</ele>
  <time>2026-09-01T01:13:16Z</time>
  <course>274.99</course>
  <speed>0.01</speed>
  <fix>3d</fix>
</trkpt>
<trkpt lat="33.8103133" lon="-118.3938688">
  <ele>-19.713</ele>
  <time>2026-09-01T01:13:16Z</time>
  <course>185.71</course>
  <speed>0.0282842712474619</speed>
  <fix>3d</fix>
</trkpt>
<trkpt lat="33.8103131" lon="-118.3938686">
  <ele>-18.97</ele>
  <time>2026-09-01T01:13:16Z</time>
  <course>274.99</course>
  <speed>0.01</speed>
  <fix>3d</fix>
</trkpt>
<trkpt lat="33.8103133" lon="-118.3938688">
  <ele>-19.808</ele>
  <time>2026-09-01T01:13:16Z</time>
  <course>185.72</course>
  <speed>0.03605551275463989</speed>
  <fix>3d</fix>
</trkpt>
<trkpt lat="33.8103131" lon="-118.3938686">
  <ele>-18.97</ele>
  <time>2026-09-01T01:13:16Z</time>
  <course>274.99</course>
  <speed>0.01</speed>
  <fix>3d</fix>
</trkpt>
<trkpt lat="33.8103133" lon="-118.3938688">
  <ele>-19.886</ele>
  <time>2026-09-01T01:13:16Z</time>
  <course>185.74</course>
  <speed>0.03605551275463989</speed>
  <fix>3d</fix>
</trkpt>
<trkpt lat="33.8103131" lon="-118.3938687">
  <ele>-19.18</ele>
  <time>2026-09-01T01:13:16Z</time>
  <course>274.99</course>
  <speed>0.01</speed>
  <fix>3d</fix>
</trkpt>
<trkpt lat="33.8103133" lon="-118.3938688">
  <ele>-19.949</ele>
  <time>2026-09-01T01:13:16Z</time>
  <course>185.75</course>
  <speed>0.03605551275463989</speed>
  <fix>3d</fix>
</trkpt>
<trkpt lat="33.8103131" lon="-118.3938687">
  <ele>-19.18</ele>
  <time>2026-09-01T01:13:16Z</time>
  <course>274.99</course>
  <speed>0.01</speed>
  <fix>3d</fix>
</trkpt>
<trkpt lat="33.8103133" lon="-118.3938688">
  <ele>-19.995</ele>
  <time>2026-09-01T01:13:16Z</time>
  <course>185.77</course>
  <speed>0.03605551275463989</speed>
  <fix>3d</fix>
</trkpt>
<trkpt lat="33.8103131" lon="-118.3938687">
  <ele>-19.34</ele>
  <time>2026-09-01T01:13:16Z</time>
  <course>274.99</course>
  <speed>0.01</speed>
  <fix>3d</fix>
</trkpt>
<trkpt lat="33.8103133" lon="-118.3938688">
  <ele>-20.029</ele>
  <time>2026-09-01T01:13:16Z</time>
  <course>185.78</course>
  <speed>0.03605551275463989</speed>
  <fix>3d</fix>
</trkpt>
<trkpt lat="33.8103131" lon="-118.3938687">
  <ele>-19.34</ele>
  <time>2026-09-01T01:13:16Z</time>
  <course>274.99</course>
  <speed>0.01</speed>
  <fix>3d</fix>
</trkpt>
<trkpt lat="33.8103133" lon="-118.3938688">
  <ele>-20.055</ele>
  <time>2026-09-01T01:13:16Z</time>
  <course>185.8</course>
  <speed>0.03605551275463989</speed>
  <fix>3d</fix>
</trkpt>
<trkpt lat="33.8103131" lon="-118.3938687">
  <ele>-19.45</ele>
  <time>2026-09-01T01:13:16Z</time>
  <course>274.99</course>
  <speed>0.0</speed>
  <fix>3d</fix>
</trkpt>
<trkpt lat="33.8103133" lon="-118.3938688">
  <ele>-20.073</ele>
  <time>2026-09-01T01:13:16Z</time>
  <course>185.81</course>
  <speed>0.03605551275463989</speed>
  <fix>3d</fix>
</trkpt>
<trkpt lat="33.8103131" lon="-118.3938687">
  <ele>-19.45</ele>
  <time>2026-09-01T01:13:16Z</time>
  <course>274.99</course>
  <speed>0.0</speed>
  <fix>3d</fix>
</trkpt>
<trkpt lat="33.8103133" lon="-118.3938689">
  <ele>-20.084</ele>
  <time>2026-09-01T01:13:16Z</time>
  <course>185.83</course>
  <speed>0.03605551275463989</speed>
  <fix>3d</fix>
</trkpt>
<trkpt lat="33.8103131" lon="-118.3938687">
  <ele>-19.51</ele>
  <time>2026-09-01T01:13:16Z</time>
  <course>274.99</course>
  <speed>0.0</speed>
  <fix>3d</fix>
</trkpt>
<trkpt lat="33.8103133" lon="-118.3938689">
  <ele>-20.088</ele>
  <time>2026-09-01T01:13:16Z</time>
  <course>185.84</course>
  <speed>0.03605551275463989</speed>
  <fix>3d</fix>
</trkpt>
<trkpt lat="33.8103131" lon="-118.3938687">
  <ele>-19.51</ele>
  <time>2026-09-01T01:13:16Z</time>
  <course>274.99</course>
  <speed>0.0</speed>
  <fix>3d</fix>
</trkpt>
<trkpt lat="33.8103133" lon="-118.3938689">
  <ele>-20.089</ele>
  <time>2026-09-01T01:13:16Z</time>
  <course>185.86</course>
  <speed>0.03605551275463989</speed>
  <fix>3d</fix>
</trkpt>
<trkpt lat="33.8103131" lon="-118.3938688">
  <ele>-19.55</ele>
  <time>2026-09-01T01:13:16Z</time>
  <course>274.99</course>
  <speed>0.0</speed>
  <fix>3d</fix>
</trkpt>
<trkpt lat="33.8103133" lon="-118.3938689">
  <ele>-20.088</ele>
  <time>2026-09-01T01:13:16Z</time>
  <course>185.87</course>
  <speed>0.03605551275463989</speed>
  <fix>3d</fix>
</trkpt>
<trkpt lat="33.8103131" lon="-118.3938688">
  <ele>-19.55</ele>
  <time>2026-09-01T01:13:16Z</time>
  <course>274.99</course>
  <speed>0.0</speed>
  <fix>3d</fix>
</trkpt>
<trkpt lat="33.8103133" lon="-118.3938689">
  <ele>-20.086</ele>
  <time>2026-09-01T01:13:16Z</time>
  <course>185.89</course>
  <speed>0.03605551275463989</speed>
  <fix>3d</fix>
</trkpt>
<trkpt lat="33.8103131" lon="-118.3938688">
  <ele>-19.56</ele>
  <time>2026-09-01T01:13:16Z</time>
  <course>274.99</course>
  <speed>0.0</speed>
  <fix>3d</fix>
</trkpt>
<trkpt lat="33.8103133" lon="-118.3938689">
  <ele>-20.084</ele>
  <time>2026-09-01T01:13:16Z</time>
  <course>185.9</course>
  <speed>0.03605551275463989</speed>
  <fix>3d</fix>
</trkpt>
<trkpt lat="33.8103131" lon="-118.3938688">
  <ele>-19.56</ele>
  <time>2026-09-01T01:13:16Z</time>
  <course>274.99</course>
  <speed>0.0</speed>
  <fix>3d</fix>
</trkpt>
<trkpt lat="33.8103133" lon="-118.3938689">
  <ele>-20.081</ele>
  <time>2026-09-01T01:13:16Z</time>
  <course>185.92</course>
  <speed>0.0282842712474619</speed>
  <fix>3d</fix>
</trkpt>
<trkpt lat="33.8103131" lon="-118.3938688">
  <ele>-19.57</ele>
  <time>2026-09-01T01:13:16Z</time>
  <course>274.99</course>
  <speed>0.0</speed>
  <fix>3d</fix>
</trkpt>
<trkpt lat="33.8103133" lon="-118.3938689">
  <ele>-20.077</ele>
  <time>2026-09-01T01:13:16Z</time>
  <course>185.93</course>
  <speed>0.0282842712474619</speed>
  <fix>3d</fix>
</trkpt>
<trkpt lat="33.8103131" lon="-118.3938688">
  <ele>-19.57</ele>
  <time>2026-09-01T01:13:16Z</time>
  <course>274.99</course>
  <speed>0.0</speed>
  <fix>3d</fix>
</trkpt>
<trkpt lat="33.8103133" lon="-118.3938689">
  <ele>-20.075</ele>
  <time>2026-09-01T01:13:16Z</time>
  <course>185.95</course>
  <speed>0.0282842712474619</speed>
  <fix>3d</fix>
</trkpt>
<trkpt lat="33.8103131" lon="-118.3938688">
  <ele>-19.57</ele>
  <time>2026-09-01T01:13:16Z</time>
  <course>274.98</course>
  <speed>0.0</speed>
  <fix>3d</fix>
</trkpt>
<trkpt lat="33.8103133" lon="-118.3938689">
  <ele>-20.074</ele>
  <time>2026-09-01T01:13:16Z</time>
  <course>185.96</course>
  <speed>0.0282842712474619</speed>
  <fix>3d</fix>
</trkpt>
<trkpt lat="33.8103131" lon="-118.3938688">
  <ele>-19.57</ele>
  <time>2026-09-01T01:13:16Z</time>
  <course>274.98</course>
  <speed>0.0</speed>
  <fix>3d</fix>
</trkpt>
<trkpt lat="33.8103133" lon="-118.393869">
  <ele>-20.075</ele>
  <time>2026-09-01T01:13:16Z</time>
  <course>185.97</course>
  <speed>0.0282842712474619</speed>
  <fix>3d</fix>
</trkpt>
<trkpt lat="33.8103131" lon="-118.3938688">
  <ele>-19.57</ele>
  <time>2026-09-01T01:13:16Z</time>
  <course>274.98</course>
  <speed>0.0</speed>
  <fix>3d</fix>
</trkpt>
<trkpt lat="33.8103133" lon="-118.393869">
  <ele>-20.075</ele>
  <time>2026-09-01T01:13:16Z</time>
  <course>185.99</course>
  <speed>0.0282842712474619</speed>
  <fix>3d</fix>
</trkpt>
<trkpt lat="33.8103131" lon="-118.3938688">
  <ele>-19.57</ele>
  <time>2026-09-01T01:13:16Z</time>
  <course>274.98</course>
  <speed>0.0</speed>
  <fix>3d</fix>
</trkpt>
<trkpt lat="33.8103133" lon="-118.393869">
  <ele>-20.076</ele>
  <time>2026-09-01T01:13:16Z</time>
  <course>186.0</course>
  <speed>0.0282842712474619</speed>
  <fix>3d</fix>
</trkpt>
<trkpt lat="33.8103131" lon="-118.3938688">
  <ele>-19.58</ele>
  <time>2026-09-01T01:13:16Z</time>
  <course>274.98</course>
  <speed>0.0</speed>
  <fix>3d</fix>
</trkpt>
<trkpt lat="33.8103133" lon="-118.393869">
  <ele>-20.078</ele>
  <time>2026-09-01T01:13:16Z</time>
  <course>186.02</course>
  <speed>0.0282842712474619</speed>
  <fix>3d</fix>
</trkpt>
<trkpt lat="33.8103131" lon="-118.3938688">
  <ele>-19.58</ele>
  <time>2026-09-01T01:13:16Z</time>
  <course>274.98</course>
  <speed>0.0</speed>
  <fix>3d</fix>
</trkpt>
<trkpt lat="33.8103133" lon="-118.393869">
  <ele>-20.079</ele>
  <time>2026-09-01T01:13:16Z</time>
  <course>186.03</course>
  <speed>0.0282842712474619</speed>
  <fix>3d</fix>
</trkpt>
<trkpt lat="33.8103131" lon="-118.3938689">
  <ele>-19.59</ele>
  <time>2026-09-01T01:13:16Z</time>
  <course>274.98</course>
  <speed>0.0</speed>
  <fix>3d</fix>
</trkpt>
<trkpt lat="33.8103133" lon="-118.393869">
  <ele>-20.081</ele>
  <time>2026-09-01T01:13:16Z</time>
  <course>186.05</course>
  <speed>0.0282842712474619</speed>
  <fix>3d</fix>
</trkpt>
<trkpt lat="33.8103131" lon="-118.3938689">
  <ele>-19.59</ele>
  <time>2026-09-01T01:13:16Z</time>
  <course>274.98</course>
  <speed>0.0</speed>
  <fix>3d</fix>
</trkpt>
<trkpt lat="33.8103133" lon="-118.393869">
  <ele>-20.084</ele>
  <time>2026-09-01T01:13:16Z</time>
  <course>186.06</course>
  <speed>0.0282842712474619</speed>
  <fix>3d</fix>
</trkpt>
<trkpt lat="33.8103131" lon="-118.3938689">
  <ele>-19.6</ele>
  <time>2026-09-01T01:13:16Z</time>
  <course>274.98</course>
  <speed>0.0</speed>
  <fix>3d</fix>
</trkpt>
<trkpt lat="33.8103133" lon="-118.393869">
  <ele>-20.089</ele>
  <time>2026-09-01T01:13:16Z</time>
  <course>186.07</course>
  <speed>0.0282842712474619</speed>
  <fix>3d</fix>
</trkpt>
<trkpt lat="33.8103131" lon="-118.3938689">
  <ele>-19.6</ele>
  <time>2026-09-01T01:13:16Z</time>
  <course>274.98</course>
  <speed>0.0</speed>
  <fix>3d</fix>
</trkpt>
<trkpt lat="33.8103133" lon="-118.393869">
  <ele>-20.094</ele>
  <time>2026-09-01T01:13:16Z</time>
  <course>186.09</course>
  <speed>0.0282842712474619</speed>
  <fix>3d</fix>
</trkpt>
<trkpt lat="33.8103131" lon="-118.3938689">
  <ele>-19.61</ele>
  <time>2026-09-01T01:13:16Z</time>
  <course>274.98</course>
  <speed>0.0</speed>
  <fix>3d</fix>
</trkpt>
<trkpt lat="33.8103133" lon="-118.393869">
  <ele>-20.097</ele>
  <time>2026-09-01T01:13:16Z</time>
  <course>186.1</course>
  <speed>0.0282842712474619</speed>
  <fix>3d</fix>
</trkpt>
<trkpt lat="33.8103131" lon="-118.3938689">
  <ele>-19.61</ele>
  <time>2026-09-01T01:13:16Z</time>
  <course>274.98</course>
  <speed>0.0</speed>
  <fix>3d</fix>
</trkpt>
<trkpt lat="33.8103133" lon="-118.393869">
  <ele>-20.1</ele>
  <time>2026-09-01T01:13:16Z</time>
  <course>186.11</course>
  <speed>0.0282842712474619</speed>
  <fix>3d</fix>
</trkpt>
<trkpt lat="33.8103131" lon="-118.3938689">
  <ele>-19.62</ele>
  <time>2026-09-01T01:13:16Z</time>
  <course>274.98</course>
  <speed>0.0</speed>
  <fix>3d</fix>
</trkpt>
<trkpt lat="33.8103133" lon="-118.393869">
  <ele>-20.102</ele>
  <time>2026-09-01T01:13:16Z</time>
  <course>186.13</course>
  <speed>0.0282842712474619</speed>
  <fix>3d</fix>
</trkpt>
<trkpt lat="33.8103131" lon="-118.3938689">
  <ele>-19.62</ele>
  <time>2026-09-01T01:13:16Z</time>
  <course>274.98</course>
  <speed>0.0</speed>
  <fix>3d</fix>
</trkpt>
<trkpt lat="33.8103133" lon="-118.393869">
  <ele>-20.102</ele>
  <time>2026-09-01T01:13:16Z</time>
  <course>186.14</course>
  <speed>0.0282842712474619</speed>
  <fix>3d</fix>
</trkpt>
<trkpt lat="33.8103131" lon="-118.3938689">
  <ele>-19.63</ele>
  <time>2026-09-01T01:13:16Z</time>
  <course>274.97</course>
  <speed>0.0</speed>
  <fix>3d</fix>
</trkpt>
<trkpt lat="33.8103133" lon="-118.393869">
  <ele>-20.102</ele>
  <time>2026-09-01T01:13:16Z</time>
  <course>186.16</course>
  <speed>0.0282842712474619</speed>
  <fix>3d</fix>
</trkpt>
<trkpt lat="33.8103131" lon="-118.3938689">
  <ele>-19.63</ele>
  <time>2026-09-01T01:13:16Z</time>
  <course>274.97</course>
  <speed>0.0</speed>
  <fix>3d</fix>
</trkpt>
<trkpt lat="33.8103133" lon="-118.393869">
  <ele>-20.1</ele>
  <time>2026-09-01T01:13:16Z</time>
  <course>186.17</course>
  <speed>0.0282842712474619</speed>
  <fix>3d</fix>
</trkpt>
<trkpt lat="33.8103131" lon="-118.3938689">
  <ele>-19.63</ele>
  <time>2026-09-01T01:13:16Z</time>
  <course>274.97</course>
  <speed>0.0</speed>
  <fix>3d</fix>
</trkpt>
<trkpt lat="33.8103133" lon="-118.3938691">
  <ele>-20.097</ele>
  <time>2026-09-01T01:13:16Z</time>
  <course>186.18</course>
  <speed>0.0282842712474619</speed>
  <fix>3d</fix>
</trkpt>
<trkpt lat="33.8103131" lon="-118.3938689">
  <ele>-19.63</ele>
  <time>2026-09-01T01:13:16Z</time>
  <course>274.97</course>
  <speed>0.0</speed>
  <fix>3d</fix>
</trkpt>
<trkpt lat="33.8103133" lon="-118.3938691">
  <ele>-20.094</ele>
  <time>2026-09-01T01:13:16Z</time>
  <course>186.19</course>
  <speed>0.0282842712474619</speed>
  <fix>3d</fix>
</trkpt>
<trkpt lat="33.8103131" lon="-118.393869">
  <ele>-19.62</ele>
  <time>2026-09-01T01:13:16Z</time>
  <course>274.97</course>
  <speed>0.0</speed>
  <fix>3d</fix>
</trkpt>
<trkpt lat="33.8103133" lon="-118.3938691">
  <ele>-20.09</ele>
  <time>2026-09-01T01:13:16Z</time>
  <course>186.21</course>
  <speed>0.0282842712474619</speed>
  <fix>3d</fix>
</trkpt>
<trkpt lat="33.8103131" lon="-118.393869">
  <ele>-19.62</ele>
  <time>2026-09-01T01:13:16Z</time>
  <course>274.97</course>
  <speed>0.0</speed>
  <fix>3d</fix>
</trkpt>
<trkpt lat="33.8103133" lon="-118.3938691">
  <ele>-20.088</ele>
  <time>2026-09-01T01:13:16Z</time>
  <course>186.22</course>
  <speed>0.0282842712474619</speed>
  <fix>3d</fix>
</trkpt>
<trkpt lat="33.8103131" lon="-118.393869">
  <ele>-19.62</ele>
  <time>2026-09-01T01:13:16Z</time>
  <course>274.96</course>
  <speed>0.0</speed>
  <fix>3d</fix>
</trkpt>
<trkpt lat="33.8103133" lon="-118.3938691">
  <ele>-20.087</ele>
  <time>2026-09-01T01:13:16Z</time>
  <course>186.23</course>
  <speed>0.0282842712474619</speed>
  <fix>3d</fix>
</trkpt>
<trkpt lat="33.8103131" lon="-118.393869">
  <ele>-19.62</ele>
  <time>2026-09-01T01:13:16Z</time>
  <course>274.96</course>
  <speed>0.0</speed>
  <fix>3d</fix>
</trkpt>
<trkpt lat="33.8103133" lon="-118.3938691">
  <ele>-20.086</ele>
  <time>2026-09-01T01:13:16Z</time>
  <course>186.25</course>
  <speed>0.0282842712474619</speed>
  <fix>3d</fix>
</trkpt>
<trkpt lat="33.8103131" lon="-118.393869">
  <ele>-19.61</ele>
  <time>2026-09-01T01:13:16Z</time>
  <course>274.96</course>
  <speed>0.0</speed>
  <fix>3d</fix>
</trkpt>
<trkpt lat="33.8103133" lon="-118.3938691">
  <ele>-20.086</ele>
  <time>2026-09-01T01:13:16Z</time>
  <course>186.26</course>
  <speed>0.0282842712474619</speed>
  <fix>3d</fix>
</trkpt>
<trkpt lat="33.8103131" lon="-118.393869">
  <ele>-19.61</ele>
  <time>2026-09-01T01:13:16Z</time>
  <course>274.96</course>
  <speed>0.0</speed>
  <fix>3d</fix>
</trkpt>
<trkpt lat="33.8103133" lon="-118.3938691">
  <ele>-20.087</ele>
  <time>2026-09-01T01:13:17Z</time>
  <course>186.27</course>
  <speed>0.0282842712474619</speed>
  <fix>3d</fix>
</trkpt>
<trkpt lat="33.8103131" lon="-118.393869">
  <ele>-19.61</ele>
  <time>2026-09-01T01:13:17Z</time>
  <course>274.96</course>
  <speed>0.0</speed>
  <fix>3d</fix>
</trkpt>
<trkpt lat="33.8103133" lon="-118.3938691">
  <ele>-20.088</ele>
  <time>2026-09-01T01:13:17Z</time>
  <course>186.28</course>
  <speed>0.0282842712474619</speed>
  <fix>3d</fix>
</trkpt>
<trkpt lat="33.8103131" lon="-118.393869">
  <ele>-19.61</ele>
  <time>2026-09-01T01:13:17Z</time>
  <course>274.96</course>
  <speed>0.0</speed>
  <fix>3d</fix>
</trkpt>
<trkpt lat="33.8103133" lon="-118.3938691">
  <ele>-20.088</ele>
  <time>2026-09-01T01:13:17Z</time>
  <course>186.3</course>
  <speed>0.0282842712474619</speed>
  <fix>3d</fix>
</trkpt>
<trkpt lat="33.8103131" lon="-118.393869">
  <ele>-19.61</ele>
  <time>2026-09-01T01:13:17Z</time>
  <course>274.96</course>
  <speed>0.0</speed>
  <fix>3d</fix>
</trkpt>
<trkpt lat="33.8103133" lon="-118.3938691">
  <ele>-20.089</ele>
  <time>2026-09-01T01:13:17Z</time>
  <course>186.31</course>
  <speed>0.0282842712474619</speed>
  <fix>3d</fix>
</trkpt>
<trkpt lat="33.8103131" lon="-118.393869">
  <ele>-19.61</ele>
  <time>2026-09-01T01:13:17Z</time>
  <course>274.96</course>
  <speed>0.0</speed>
  <fix>3d</fix>
</trkpt>
<trkpt lat="33.8103133" lon="-118.3938691">
  <ele>-20.089</ele>
  <time>2026-09-01T01:13:17Z</time>
  <course>186.32</course>
  <speed>0.0282842712474619</speed>
  <fix>3d</fix>
</trkpt>
<trkpt lat="33.8103131" lon="-118.393869">
  <ele>-19.61</ele>
  <time>2026-09-01T01:13:17Z</time>
  <course>274.96</course>
  <speed>0.0</speed>
  <fix>3d</fix>
</trkpt>
<trkpt lat="33.8103133" lon="-118.3938691">
  <ele>-20.088</ele>
  <time>2026-09-01T01:13:17Z</time>
  <course>186.34</course>
  <speed>0.0282842712474619</speed>
  <fix>3d</fix>
</trkpt>
<trkpt lat="33.8103131" lon="-118.393869">
  <ele>-19.61</ele>
  <time>2026-09-01T01:13:17Z</time>
  <course>274.96</course>
  <speed>0.0</speed>
  <fix>3d</fix>
</trkpt>
<trkpt lat="33.8103133" lon="-118.3938691">
  <ele>-20.087</ele>
  <time>2026-09-01T01:13:17Z</time>
  <course>186.35</course>
  <speed>0.0282842712474619</speed>
  <fix>3d</fix>
</trkpt>
<trkpt lat="33.8103131" lon="-118.3938691">
  <ele>-19.61</ele>
  <time>2026-09-01T01:13:17Z</time>
  <course>274.96</course>
  <speed>0.0</speed>
  <fix>3d</fix>
</trkpt>
<trkpt lat="33.8103133" lon="-118.3938691">
  <ele>-20.086</ele>
  <time>2026-09-01T01:13:17Z</time>
  <course>186.36</course>
  <speed>0.0282842712474619</speed>
  <fix>3d</fix>
</trkpt>
<trkpt lat="33.8103131" lon="-118.3938691">
  <ele>-19.61</ele>
  <time>2026-09-01T01:13:17Z</time>
  <course>274.96</course>
  <speed>0.0</speed>
  <fix>3d</fix>
</trkpt>
<trkpt lat="33.8103133" lon="-118.3938692">
  <ele>-20.087</ele>
  <time>2026-09-01T01:13:17Z</time>
  <course>186.37</course>
  <speed>0.0282842712474619</speed>
  <fix>3d</fix>
</trkpt>
<trkpt lat="33.8103131" lon="-118.3938691">
  <ele>-19.61</ele>
  <time>2026-09-01T01:13:17Z</time>
  <course>274.96</course>
  <speed>0.0</speed>
  <fix>3d</fix>
</trkpt>
<trkpt lat="33.8103133" lon="-118.3938692">
  <ele>-20.09</ele>
  <time>2026-09-01T01:13:17Z</time>
  <course>186.39</course>
  <speed>0.0282842712474619</speed>
  <fix>3d</fix>
</trkpt>
<trkpt lat="33.8103131" lon="-118.3938691">
  <ele>-19.61</ele>
  <time>2026-09-01T01:13:17Z</time>
  <course>274.96</course>
  <speed>0.0</speed>
  <fix>3d</fix>
</trkpt>
<trkpt lat="33.8103133" lon="-118.3938692">
  <ele>-20.092</ele>
  <time>2026-09-01T01:13:17Z</time>
  <course>186.4</course>
  <speed>0.0282842712474619</speed>
  <fix>3d</fix>
</trkpt>
<trkpt lat="33.8103131" lon="-118.3938691">
  <ele>-19.61</ele>
  <time>2026-09-01T01:13:17Z</time>
  <course>274.96</course>
  <speed>0.0</speed>
  <fix>3d</fix>
</trkpt>
<trkpt lat="33.8103133" lon="-118.3938692">
  <ele>-20.094</ele>
  <time>2026-09-01T01:13:17Z</time>
  <course>186.41</course>
  <speed>0.0282842712474619</speed>
  <fix>3d</fix>
</trkpt>
<trkpt lat="33.8103131" lon="-118.3938691">
  <ele>-19.61</ele>
  <time>2026-09-01T01:13:17Z</time>
  <course>274.96</course>
  <speed>0.0</speed>
  <fix>3d</fix>
</trkpt>
<trkpt lat="33.8103133" lon="-118.3938692">
  <ele>-20.094</ele>
  <time>2026-09-01T01:13:17Z</time>
  <course>186.42</course>
  <speed>0.0282842712474619</speed>
  <fix>3d</fix>
</trkpt>
<trkpt lat="33.8103131" lon="-118.3938691">
  <ele>-19.61</ele>
  <time>2026-09-01T01:13:17Z</time>
  <course>274.95</course>
  <speed>0.0</speed>
  <fix>3d</fix>
</trkpt>
<trkpt lat="33.8103133" lon="-118.3938692">
  <ele>-20.092</ele>
  <time>2026-09-01T01:13:17Z</time>
  <course>186.43</course>
  <speed>0.0282842712474619</speed>
  <fix>3d</fix>
</trkpt>
<trkpt lat="33.8103131" lon="-118.3938691">
  <ele>-19.61</ele>
  <time>2026-09-01T01:13:17Z</time>
  <course>274.95</course>
  <speed>0.0</speed>
  <fix>3d</fix>
</trkpt>
<trkpt lat="33.8103133" lon="-118.3938692">
  <ele>-20.09</ele>
  <time>2026-09-01T01:13:17Z</time>
  <course>186.45</course>
  <speed>0.0282842712474619</speed>
  <fix>3d</fix>
</trkpt>
<trkpt lat="33.8103131" lon="-118.3938691">
  <ele>-19.61</ele>
  <time>2026-09-01T01:13:17Z</time>
  <course>274.95</course>
  <speed>0.0</speed>
  <fix>3d</fix>
</trkpt>
<trkpt lat="33.8103133" lon="-118.3938692">
  <ele>-20.089</ele>
  <time>2026-09-01T01:13:17Z</time>
  <course>186.46</course>
  <speed>0.0282842712474619</speed>
  <fix>3d</fix>
</trkpt>
<trkpt lat="33.8103131" lon="-118.3938691">
  <ele>-19.61</ele>
  <time>2026-09-01T01:13:17Z</time>
  <course>274.95</course>
  <speed>0.0</speed>
  <fix>3d</fix>
</trkpt>
<trkpt lat="33.8103133" lon="-118.3938692">
  <ele>-20.088</ele>
  <time>2026-09-01T01:13:17Z</time>
  <course>186.47</course>
  <speed>0.0282842712474619</speed>
  <fix>3d</fix>
</trkpt>
<trkpt lat="33.8103131" lon="-118.3938691">
  <ele>-19.61</ele>
  <time>2026-09-01T01:13:17Z</time>
  <course>274.95</course>
  <speed>0.0</speed>
  <fix>3d</fix>
</trkpt>
<trkpt lat="33.8103133" lon="-118.3938692">
  <ele>-20.087</ele>
  <time>2026-09-01T01:13:17Z</time>
  <course>186.48</course>
  <speed>0.0282842712474619</speed>
  <fix>3d</fix>
</trkpt>
<trkpt lat="33.8103131" lon="-118.3938691">
  <ele>-19.61</ele>
  <time>2026-09-01T01:13:17Z</time>
  <course>274.95</course>
  <speed>0.0</speed>
  <fix>3d</fix>
</trkpt>
<trkpt lat="33.8103133" lon="-118.3938692">
  <ele>-20.086</ele>
  <time>2026-09-01T01:13:17Z</time>
  <course>186.49</course>
  <speed>0.0282842712474619</speed>
  <fix>3d</fix>
</trkpt>
<trkpt lat="33.8103131" lon="-118.3938692">
  <ele>-19.6</ele>
  <time>2026-09-01T01:13:17Z</time>
  <course>274.94</course>
  <speed>0.0</speed>
  <fix>3d</fix>
</trkpt>
<trkpt lat="33.8103133" lon="-118.3938692">
  <ele>-20.087</ele>
  <time>2026-09-01T01:13:17Z</time>
  <course>186.5</course>
  <speed>0.0282842712474619</speed>
  <fix>3d</fix>
</trkpt>
<trkpt lat="33.8103131" lon="-118.3938692">
  <ele>-19.6</ele>
  <time>2026-09-01T01:13:17Z</time>
  <course>274.94</course>
  <speed>0.0</speed>
  <fix>3d</fix>
</trkpt>
<trkpt lat="33.8103133" lon="-118.3938692">
  <ele>-20.087</ele>
  <time>2026-09-01T01:13:17Z</time>
  <course>186.52</course>
  <speed>0.0282842712474619</speed>
  <fix>3d</fix>
</trkpt>
<trkpt lat="33.8103131" lon="-118.3938692">
  <ele>-19.6</ele>
  <time>2026-09-01T01:13:17Z</time>
  <course>274.94</course>
  <speed>0.0</speed>
  <fix>3d</fix>
</trkpt>
<trkpt lat="33.8103133" lon="-118.3938693">
  <ele>-20.086</ele>
  <time>2026-09-01T01:13:17Z</time>
  <course>186.53</course>
  <speed>0.0282842712474619</speed>
  <fix>3d</fix>
</trkpt>
<trkpt lat="33.8103131" lon="-118.3938692">
  <ele>-19.6</ele>
  <time>2026-09-01T01:13:17Z</time>
  <course>274.94</course>
  <speed>0.0</speed>
  <fix>3d</fix>
</trkpt>
<trkpt lat="33.8103133" lon="-118.3938693">
  <ele>-20.069</ele>
  <time>2026-09-01T01:13:17Z</time>
  <course>186.54</course>
  <speed>0.0282842712474619</speed>
  <fix>3d</fix>
</trkpt>
<trkpt lat="33.8103131" lon="-118.3938692">
  <ele>-19.6</ele>
  <time>2026-09-01T01:13:17Z</time>
  <course>274.92</course>
  <speed>0.0</speed>
  <fix>3d</fix>
</trkpt>
<trkpt lat="33.8103133" lon="-118.3938693">
  <ele>-20.03</ele>
  <time>2026-09-01T01:13:17Z</time>
  <course>186.55</course>
  <speed>0.022360679774997897</speed>
  <fix>3d</fix>
</trkpt>
<trkpt lat="33.8103131" lon="-118.3938692">
  <ele>-19.6</ele>
  <time>2026-09-01T01:13:17Z</time>
  <course>274.92</course>
  <speed>0.0</speed>
  <fix>3d</fix>
</trkpt>
<trkpt lat="33.8103133" lon="-118.3938693">
  <ele>-20.029</ele>
  <time>2026-09-01T01:13:17Z</time>
  <course>186.55</course>
  <speed>0.022360679774997897</speed>
  <fix>3d</fix>
</trkpt>
<trkpt lat="33.8103133" lon="-118.3938693">
  <ele>-19.971</ele>
  <time>2026-09-01T01:13:17Z</time>
  <course>186.56</course>
  <speed>0.022360679774997897</speed>
  <fix>3d</fix>
</trkpt>
<trkpt lat="33.8103131" lon="-118.3938692">
  <ele>-19.56</ele>
  <time>2026-09-01T01:13:17Z</time>
  <course>274.73</course>
  <speed>0.0</speed>
  <fix>3d</fix>
</trkpt>
<trkpt lat="33.8103133" lon="-118.3938693">
  <ele>-19.969</ele>
  <time>2026-09-01T01:13:17Z</time>
  <course>186.56</course>
  <speed>0.022360679774997897</speed>
  <fix>3d</fix>
</trkpt>
<trkpt lat="33.8103133" lon="-118.3938693">
  <ele>-19.891</ele>
  <time>2026-09-01T01:13:17Z</time>
  <course>186.58</course>
  <speed>0.022360679774997897</speed>
  <fix>3d</fix>
</trkpt>
<trkpt lat="33.8103131" lon="-118.3938692">
  <ele>-19.56</ele>
  <time>2026-09-01T01:13:17Z</time>
  <course>274.73</course>
  <speed>0.0</speed>
  <fix>3d</fix>
</trkpt>
<trkpt lat="33.8103133" lon="-118.3938693">
  <ele>-19.863</ele>
  <time>2026-09-01T01:13:17Z</time>
  <course>186.58</course>
  <speed>0.022360679774997897</speed>
  <fix>3d</fix>
</trkpt>
<trkpt lat="33.8103133" lon="-118.3938693">
  <ele>-19.791</ele>
  <time>2026-09-01T01:13:17Z</time>
  <course>186.59</course>
  <speed>0.022360679774997897</speed>
  <fix>3d</fix>
</trkpt>
<trkpt lat="33.8103131" lon="-118.3938692">
  <ele>-19.46</ele>
  <time>2026-09-01T01:13:17Z</time>
  <course>273.96</course>
  <speed>0.0</speed>
  <fix>3d</fix>
</trkpt>
<trkpt lat="33.8103133" lon="-118.3938693">
  <ele>-19.754</ele>
  <time>2026-09-01T01:13:17Z</time>
  <course>186.59</course>
  <speed>0.022360679774997897</speed>
  <fix>3d</fix>
</trkpt>
<trkpt lat="33.8103133" lon="-118.3938693">
  <ele>-19.67</ele>
  <time>2026-09-01T01:13:17Z</time>
  <course>186.6</course>
  <speed>0.022360679774997897</speed>
  <fix>3d</fix>
</trkpt>
<trkpt lat="33.8103131" lon="-118.3938692">
  <ele>-19.46</ele>
  <time>2026-09-01T01:13:17Z</time>
  <course>273.96</course>
  <speed>0.0</speed>
  <fix>3d</fix>
</trkpt>
<trkpt lat="33.8103133" lon="-118.3938693">
  <ele>-19.629</ele>
  <time>2026-09-01T01:13:17Z</time>
  <course>186.6</course>
  <speed>0.022360679774997897</speed>
  <fix>3d</fix>
</trkpt>
<trkpt lat="33.8103133" lon="-118.3938693">
  <ele>-19.54</ele>
  <time>2026-09-01T01:13:17Z</time>
  <course>186.61</course>
  <speed>0.022360679774997897</speed>
  <fix>3d</fix>
</trkpt>
<trkpt lat="33.8103131" lon="-118.3938692">
  <ele>-19.27</ele>
  <time>2026-09-01T01:13:17Z</time>
  <course>267.18</course>
  <speed>0.0</speed>
  <fix>3d</fix>
</trkpt>
<trkpt lat="33.8103133" lon="-118.3938693">
  <ele>-19.501</ele>
  <time>2026-09-01T01:13:17Z</time>
  <course>186.62</course>
  <speed>0.022360679774997897</speed>
  <fix>3d</fix>
</trkpt>
<trkpt lat="33.8103133" lon="-118.3938693">
  <ele>-19.408</ele>
  <time>2026-09-01T01:13:17Z</time>
  <course>186.62</course>
  <speed>0.022360679774997897</speed>
  <fix>3d</fix>
</trkpt>
<trkpt lat="33.8103131" lon="-118.3938692">
  <ele>-19.27</ele>
  <time>2026-09-01T01:13:17Z</time>
  <course>267.18</course>
  <speed>0.0</speed>
  <fix>3d</fix>
</trkpt>
<trkpt lat="33.8103133" lon="-118.3938693">
  <ele>-19.365</ele>
  <time>2026-09-01T01:13:17Z</time>
  <course>186.63</course>
  <speed>0.022360679774997897</speed>
  <fix>3d</fix>
</trkpt>
<trkpt lat="33.8103133" lon="-118.3938693">
  <ele>-19.274</ele>
  <time>2026-09-01T01:13:17Z</time>
  <course>186.64</course>
  <speed>0.022360679774997897</speed>
  <fix>3d</fix>
</trkpt>
<trkpt lat="33.8103131" lon="-118.3938692">
  <ele>-19.05</ele>
  <time>2026-09-01T01:13:17Z</time>
  <course>105.13</course>
  <speed>0.0</speed>
  <fix>3d</fix>
</trkpt>
<trkpt lat="33.8103133" lon="-118.3938693">
  <ele>-19.235</ele>
  <time>2026-09-01T01:13:17Z</time>
  <course>186.64</course>
  <speed>0.022360679774997897</speed>
  <fix>3d</fix>
</trkpt>
<trkpt lat="33.8103133" lon="-118.3938693">
  <ele>-19.14</ele>
  <time>2026-09-01T01:13:17Z</time>
  <course>186.65</course>
  <speed>0.022360679774997897</speed>
  <fix>3d</fix>
</trkpt>
<trkpt lat="33.8103131" lon="-118.3938692">
  <ele>-19.05</ele>
  <time>2026-09-01T01:13:17Z</time>
  <course>105.13</course>
  <speed>0.0</speed>
  <fix>3d</fix>
</trkpt>
<trkpt lat="33.8103133" lon="-118.3938693">
  <ele>-19.09</ele>
  <time>2026-09-01T01:13:17Z</time>
  <course>186.65</course>
  <speed>0.022360679774997897</speed>
  <fix>3d</fix>
</trkpt>
<trkpt lat="33.8103133" lon="-118.3938693">
  <ele>-19.006</ele>
  <time>2026-09-01T01:13:17Z</time>
  <course>186.66</course>
  <speed>0.022360679774997897</speed>
  <fix>3d</fix>
</trkpt>
<trkpt lat="33.8103131" lon="-118.3938692">
  <ele>-18.8</ele>
  <time>2026-09-01T01:13:17Z</time>
  <course>104.27</course>
  <speed>0.0</speed>
  <fix>3d</fix>
</trkpt>
<trkpt lat="33.8103133" lon="-118.3938693">
  <ele>-19.003</ele>
  <time>2026-09-01T01:13:17Z</time>
  <course>186.66</course>
  <speed>0.022360679774997897</speed>
  <fix>3d</fix>
</trkpt>
<trkpt lat="33.8103133" lon="-118.3938693">
  <ele>-18.872</ele>
  <time>2026-09-01T01:13:17Z</time>
  <course>186.67</course>
  <speed>0.022360679774997897</speed>
  <fix>3d</fix>
</trkpt>
<trkpt lat="33.8103131" lon="-118.3938692">
  <ele>-18.8</ele>
  <time>2026-09-01T01:13:17Z</time>
  <course>104.27</course>
  <speed>0.0</speed>
  <fix>3d</fix>
</trkpt>
<trkpt lat="33.8103133" lon="-118.3938693">
  <ele>-18.869</ele>
  <time>2026-09-01T01:13:17Z</time>
  <course>186.67</course>
  <speed>0.022360679774997897</speed>
  <fix>3d</fix>
</trkpt>
<trkpt lat="33.8103133" lon="-118.3938693">
  <ele>-18.74</ele>
  <time>2026-09-01T01:13:17Z</time>
  <course>186.68</course>
  <speed>0.022360679774997897</speed>
  <fix>3d</fix>
</trkpt>
<trkpt lat="33.8103131" lon="-118.3938692">
  <ele>-18.56</ele>
  <time>2026-09-01T01:13:17Z</time>
  <course>104.61</course>
  <speed>0.0</speed>
  <fix>3d</fix>
</trkpt>
<trkpt lat="33.8103133" lon="-118.3938693">
  <ele>-18.7</ele>
  <time>2026-09-01T01:13:17Z</time>
  <course>186.69</course>
  <speed>0.022360679774997897</speed>
  <fix>3d</fix>
</trkpt>
<trkpt lat="33.8103133" lon="-118.3938693">
  <ele>-18.609</ele>
  <time>2026-09-01T01:13:17Z</time>
  <course>186.69</course>
  <speed>0.022360679774997897</speed>
  <fix>3d</fix>
</trkpt>
<trkpt lat="33.8103131" lon="-118.3938692">
  <ele>-18.56</ele>
  <time>2026-09-01T01:13:17Z</time>
  <course>104.61</course>
  <speed>0.0</speed>
  <fix>3d</fix>
</trkpt>
<trkpt lat="33.8103133" lon="-118.3938693">
  <ele>-18.606</ele>
  <time>2026-09-01T01:13:17Z</time>
  <course>186.7</course>
  <speed>0.022360679774997897</speed>
  <fix>3d</fix>
</trkpt>
<trkpt lat="33.8103133" lon="-118.3938693">
  <ele>-18.478</ele>
  <time>2026-09-01T01:13:17Z</time>
  <course>186.71</course>
  <speed>0.022360679774997897</speed>
  <fix>3d</fix>
</trkpt>
<trkpt lat="33.8103131" lon="-118.3938692">
  <ele>-18.31</ele>
  <time>2026-09-01T01:13:17Z</time>
  <course>105.02</course>
  <speed>0.0</speed>
  <fix>3d</fix>
</trkpt>
<trkpt lat="33.8103133" lon="-118.3938693">
  <ele>-18.436</ele>
  <time>2026-09-01T01:13:17Z</time>
  <course>186.71</course>
  <speed>0.022360679774997897</speed>
  <fix>3d</fix>
</trkpt>
<trkpt lat="33.8103133" lon="-118.3938693">
  <ele>-18.347</ele>
  <time>2026-09-01T01:13:17Z</time>
  <course>186.72</course>
  <speed>0.022360679774997897</speed>
  <fix>3d</fix>
</trkpt>
<trkpt lat="33.8103131" lon="-118.3938692">
  <ele>-18.31</ele>
  <time>2026-09-01T01:13:17Z</time>
  <course>105.02</course>
  <speed>0.0</speed>
  <fix>3d</fix>
</trkpt>
<trkpt lat="33.8103133" lon="-118.3938693">
  <ele>-18.308</ele>
  <time>2026-09-01T01:13:17Z</time>
  <course>186.72</course>
  <speed>0.022360679774997897</speed>
  <fix>3d</fix>
</trkpt>
<trkpt lat="33.8103133" lon="-118.3938693">
  <ele>-18.217</ele>
  <time>2026-09-01T01:13:17Z</time>
  <course>186.73</course>
  <speed>0.022360679774997897</speed>
  <fix>3d</fix>
</trkpt>
<trkpt lat="33.8103131" lon="-118.3938692">
  <ele>-18.07</ele>
  <time>2026-09-01T01:13:17Z</time>
  <course>105.46</course>
  <speed>0.0</speed>
  <fix>3d</fix>
</trkpt>
<trkpt lat="33.8103133" lon="-118.3938693">
  <ele>-18.184</ele>
  <time>2026-09-01T01:13:17Z</time>
  <course>186.73</course>
  <speed>0.022360679774997897</speed>
  <fix>3d</fix>
</trkpt>
<trkpt lat="33.8103133" lon="-118.3938693">
  <ele>-18.088</ele>
  <time>2026-09-01T01:13:17Z</time>
  <course>186.74</course>
  <speed>0.022360679774997897</speed>
  <fix>3d</fix>
</trkpt>
<trkpt lat="33.8103131" lon="-118.3938692">
  <ele>-18.07</ele>
  <time>2026-09-01T01:13:17Z</time>
  <course>105.46</course>
  <speed>0.0</speed>
  <fix>3d</fix>
</trkpt>
<trkpt lat="33.8103133" lon="-118.3938693">
  <ele>-18.049</ele>
  <time>2026-09-01T01:13:17Z</time>
  <course>186.74</course>
  <speed>0.022360679774997897</speed>
  <fix>3d</fix>
</trkpt>
<trkpt lat="33.8103133" lon="-118.3938693">
  <ele>-17.958</ele>
  <time>2026-09-01T01:13:17Z</time>
  <course>186.75</course>
  <speed>0.022360679774997897</speed>
  <fix>3d</fix>
</trkpt>
<trkpt lat="33.8103131" lon="-118.3938692">
  <ele>-17.82</ele>
  <time>2026-09-01T01:13:17Z</time>
  <course>105.95</course>
  <speed>0.0</speed>
  <fix>3d</fix>
</trkpt>
<trkpt lat="33.8103133" lon="-118.3938693">
  <ele>-17.92</ele>
  <time>2026-09-01T01:13:17Z</time>
  <course>186.76</course>
  <speed>0.022360679774997897</speed>
  <fix>3d</fix>
</trkpt>
<trkpt lat="33.8103133" lon="-118.3938693">
  <ele>-17.829</ele>
  <time>2026-09-01T01:13:17Z</time>
  <course>186.76</course>
  <speed>0.022360679774997897</speed>
  <fix>3d</fix>
</trkpt>
<trkpt lat="33.8103131" lon="-118.3938692">
  <ele>-17.82</ele>
  <time>2026-09-01T01:13:17Z</time>
  <course>105.95</course>
  <speed>0.0</speed>
  <fix>3d</fix>
</trkpt>
<trkpt lat="33.8103133" lon="-118.3938693">
  <ele>-17.79</ele>
  <time>2026-09-01T01:13:17Z</time>
  <course>186.77</course>
  <speed>0.022360679774997897</speed>
  <fix>3d</fix>
</trkpt>
<trkpt lat="33.8103133" lon="-118.3938693">
  <ele>-17.7</ele>
  <time>2026-09-01T01:13:17Z</time>
  <course>186.77</course>
  <speed>0.022360679774997897</speed>
  <fix>3d</fix>
</trkpt>
<trkpt lat="33.8103131" lon="-118.3938692">
  <ele>-17.58</ele>
  <time>2026-09-01T01:13:17Z</time>
  <course>106.47</course>
  <speed>0.0</speed>
  <fix>3d</fix>
</trkpt>
<trkpt lat="33.8103133" lon="-118.3938693">
  <ele>-17.662</ele>
  <time>2026-09-01T01:13:17Z</time>
  <course>186.78</course>
  <speed>0.022360679774997897</speed>
  <fix>3d</fix>
</trkpt>
<trkpt lat="33.8103133" lon="-118.3938693">
  <ele>-17.572</ele>
  <time>2026-09-01T01:13:17Z</time>
  <course>186.79</course>
  <speed>0.022360679774997897</speed>
  <fix>3d</fix>
</trkpt>
<trkpt lat="33.8103131" lon="-118.3938692">
  <ele>-17.58</ele>
  <time>2026-09-01T01:13:17Z</time>
  <course>106.47</course>
  <speed>0.0</speed>
  <fix>3d</fix>
</trkpt>
<trkpt lat="33.8103133" lon="-118.3938693">
  <ele>-17.531</ele>
  <time>2026-09-01T01:13:17Z</time>
  <course>186.79</course>
  <speed>0.022360679774997897</speed>
  <fix>3d</fix>
</trkpt>
<trkpt lat="33.8103133" lon="-118.3938693">
  <ele>-17.444</ele>
  <time>2026-09-01T01:13:17Z</time>
  <course>186.8</course>
  <speed>0.022360679774997897</speed>
  <fix>3d</fix>
</trkpt>
<trkpt lat="33.8103131" lon="-118.3938692">
  <ele>-17.33</ele>
  <time>2026-09-01T01:13:17Z</time>
  <course>107.06</course>
  <speed>0.0</speed>
  <fix>3d</fix>
</trkpt>
<trkpt lat="33.8103133" lon="-118.3938693">
  <ele>-17.399</ele>
  <time>2026-09-01T01:13:17Z</time>
  <course>186.8</course>
  <speed>0.022360679774997897</speed>
  <fix>3d</fix>
</trkpt>
<trkpt lat="33.8103133" lon="-118.3938693">
  <ele>-17.317</ele>
  <time>2026-09-01T01:13:17Z</time>
  <course>186.81</course>
  <speed>0.022360679774997897</speed>
  <fix>3d</fix>
</trkpt>
<trkpt lat="33.8103131" lon="-118.3938692">
  <ele>-17.33</ele>
  <time>2026-09-01T01:13:17Z</time>
  <course>107.06</course>
  <speed>0.0</speed>
  <fix>3d</fix>
</trkpt>
<trkpt lat="33.8103133" lon="-118.3938693">
  <ele>-17.279</ele>
  <time>2026-09-01T01:13:17Z</time>
  <course>186.81</course>
  <speed>0.022360679774997897</speed>
  <fix>3d</fix>
</trkpt>
<trkpt lat="33.8103133" lon="-118.3938693">
  <ele>-17.191</ele>
  <time>2026-09-01T01:13:17Z</time>
  <course>186.82</course>
  <speed>0.022360679774997897</speed>
  <fix>3d</fix>
</trkpt>
<trkpt lat="33.8103131" lon="-118.3938692">
  <ele>-17.09</ele>
  <time>2026-09-01T01:13:17Z</time>
  <course>107.71</course>
  <speed>0.0</speed>
  <fix>3d</fix>
</trkpt>
<trkpt lat="33.8103133" lon="-118.3938693">
  <ele>-17.188</ele>
  <time>2026-09-01T01:13:17Z</time>
  <course>186.82</course>
  <speed>0.022360679774997897</speed>
  <fix>3d</fix>
</trkpt>
<trkpt lat="33.8103133" lon="-118.3938693">
  <ele>-17.066</ele>
  <time>2026-09-01T01:13:17Z</time>
  <course>186.83</course>
  <speed>0.022360679774997897</speed>
  <fix>3d</fix>
</trkpt>
<trkpt lat="33.8103131" lon="-118.3938692">
  <ele>-17.09</ele>
  <time>2026-09-01T01:13:17Z</time>
  <course>107.71</course>
  <speed>0.0</speed>
  <fix>3d</fix>
</trkpt>
<trkpt lat="33.8103133" lon="-118.3938693">
  <ele>-17.012</ele>
  <time>2026-09-01T01:13:17Z</time>
  <course>186.84</course>
  <speed>0.022360679774997897</speed>
  <fix>3d</fix>
</trkpt>
<trkpt lat="33.8103133" lon="-118.3938693">
  <ele>-16.941</ele>
  <time>2026-09-01T01:13:17Z</time>
  <course>186.84</course>
  <speed>0.022360679774997897</speed>
  <fix>3d</fix>
</trkpt>
<trkpt lat="33.8103131" lon="-118.3938692">
  <ele>-16.84</ele>
  <time>2026-09-01T01:13:17Z</time>
  <course>108.42</course>
  <speed>0.0</speed>
  <fix>3d</fix>
</trkpt>
<trkpt lat="33.8103133" lon="-118.3938693">
  <ele>-16.888</ele>
  <time>2026-09-01T01:13:17Z</time>
  <course>186.85</course>
  <speed>0.022360679774997897</speed>
  <fix>3d</fix>
</trkpt>
<trkpt lat="33.8103133" lon="-118.3938693">
  <ele>-16.818</ele>
  <time>2026-09-01T01:13:17Z</time>
  <course>186.85</course>
  <speed>0.022360679774997897</speed>
  <fix>3d</fix>
</trkpt>
<trkpt lat="33.8103131" lon="-118.3938692">
  <ele>-16.84</ele>
  <time>2026-09-01T01:13:17Z</time>
  <course>108.42</course>
  <speed>0.0</speed>
  <fix>3d</fix>
</trkpt>
<trkpt lat="33.8103133" lon="-118.3938693">
  <ele>-16.762</ele>
  <time>2026-09-01T01:13:17Z</time>
  <course>186.86</course>
  <speed>0.022360679774997897</speed>
  <fix>3d</fix>
</trkpt>
<trkpt lat="33.8103133" lon="-118.3938693">
  <ele>-16.696</ele>
  <time>2026-09-01T01:13:17Z</time>
  <course>186.86</course>
  <speed>0.022360679774997897</speed>
  <fix>3d</fix>
</trkpt>
<trkpt lat="33.8103131" lon="-118.3938692">
  <ele>-16.59</ele>
  <time>2026-09-01T01:13:17Z</time>
  <course>109.23</course>
  <speed>0.0</speed>
  <fix>3d</fix>
</trkpt>
<trkpt lat="33.8103133" lon="-118.3938693">
  <ele>-16.641</ele>
  <time>2026-09-01T01:13:17Z</time>
  <course>186.87</course>
  <speed>0.022360679774997897</speed>
  <fix>3d</fix>
</trkpt>
<trkpt lat="33.8103133" lon="-118.3938693">
  <ele>-16.575</ele>
  <time>2026-09-01T01:13:17Z</time>
  <course>186.87</course>
  <speed>0.022360679774997897</speed>
  <fix>3d</fix>
</trkpt>
<trkpt lat="33.8103131" lon="-118.3938692">
  <ele>-16.59</ele>
  <time>2026-09-01T01:13:17Z</time>
  <course>109.23</course>
  <speed>0.0</speed>
  <fix>3d</fix>
</trkpt>
<trkpt lat="33.8103133" lon="-118.3938693">
  <ele>-16.524</ele>
  <time>2026-09-01T01:13:17Z</time>
  <course>186.88</course>
  <speed>0.022360679774997897</speed>
  <fix>3d</fix>
</trkpt>
<trkpt lat="33.8103133" lon="-118.3938693">
  <ele>-16.455</ele>
  <time>2026-09-01T01:13:17Z</time>
  <course>186.88</course>
  <speed>0.022360679774997897</speed>
  <fix>3d</fix>
</trkpt>
<trkpt lat="33.8103131" lon="-118.3938692">
  <ele>-16.35</ele>
  <time>2026-09-01T01:13:17Z</time>
  <course>110.13</course>
  <speed>0.0</speed>
  <fix>3d</fix>
</trkpt>
<trkpt lat="33.8103133" lon="-118.3938693">
  <ele>-16.4</ele>
  <time>2026-09-01T01:13:17Z</time>
  <course>186.89</course>
  <speed>0.022360679774997897</speed>
  <fix>3d</fix>
</trkpt>
<trkpt lat="33.8103133" lon="-118.3938693">
  <ele>-16.334</ele>
  <time>2026-09-01T01:13:17Z</time>
  <course>186.9</course>
  <speed>0.022360679774997897</speed>
  <fix>3d</fix>
</trkpt>
<trkpt lat="33.8103131" lon="-118.3938692">
  <ele>-16.35</ele>
  <time>2026-09-01T01:13:17Z</time>
  <course>110.13</course>
  <speed>0.0</speed>
  <fix>3d</fix>
</trkpt>
<trkpt lat="33.8103133" lon="-118.3938693">
  <ele>-16.277</ele>
  <time>2026-09-01T01:13:17Z</time>
  <course>186.9</course>
  <speed>0.022360679774997897</speed>
  <fix>3d</fix>
</trkpt>
<trkpt lat="33.8103133" lon="-118.3938693">
  <ele>-16.213</ele>
  <time>2026-09-01T01:13:17Z</time>
  <course>186.91</course>
  <speed>0.022360679774997897</speed>
  <fix>3d</fix>
</trkpt>
<trkpt lat="33.8103131" lon="-118.3938692">
  <ele>-16.11</ele>
  <time>2026-09-01T01:13:17Z</time>
  <course>111.13</course>
  <speed>0.0</speed>
  <fix>3d</fix>
</trkpt>
<trkpt lat="33.8103133" lon="-118.3938693">
  <ele>-16.161</ele>
  <time>2026-09-01T01:13:17Z</time>
  <course>186.91</course>
  <speed>0.022360679774997897</speed>
  <fix>3d</fix>
</trkpt>
<trkpt lat="33.8103133" lon="-118.3938693">
  <ele>-16.092</ele>
  <time>2026-09-01T01:13:17Z</time>
  <course>186.92</course>
  <speed>0.022360679774997897</speed>
  <fix>3d</fix>
</trkpt>
<trkpt lat="33.8103131" lon="-118.3938692">
  <ele>-16.11</ele>
  <time>2026-09-01T01:13:17Z</time>
  <course>111.13</course>
  <speed>0.0</speed>
  <fix>3d</fix>
</trkpt>
<trkpt lat="33.8103133" lon="-118.3938693">
  <ele>-16.04</ele>
  <time>2026-09-01T01:13:17Z</time>
  <course>186.92</course>
  <speed>0.022360679774997897</speed>
  <fix>3d</fix>
</trkpt>
<trkpt lat="33.8103133" lon="-118.3938693">
  <ele>-15.97</ele>
  <time>2026-09-01T01:13:17Z</time>
  <course>186.93</course>
  <speed>0.022360679774997897</speed>
  <fix>3d</fix>
</trkpt>
<trkpt lat="33.8103131" lon="-118.3938692">
  <ele>-15.86</ele>
  <time>2026-09-01T01:13:17Z</time>
  <course>112.26</course>
  <speed>0.0</speed>
  <fix>3d</fix>
</trkpt>
<trkpt lat="33.8103133" lon="-118.3938693">
  <ele>-15.918</ele>
  <time>2026-09-01T01:13:17Z</time>
  <course>186.93</course>
  <speed>0.022360679774997897</speed>
  <fix>3d</fix>
</trkpt>
<trkpt lat="33.8103133" lon="-118.3938693">
  <ele>-15.848</ele>
  <time>2026-09-01T01:13:17Z</time>
  <course>186.94</course>
  <speed>0.022360679774997897</speed>
  <fix>3d</fix>
</trkpt>
<trkpt lat="33.8103131" lon="-118.3938692">
  <ele>-15.86</ele>
  <time>2026-09-01T01:13:17Z</time>
  <course>112.26</course>
  <speed>0.0</speed>
  <fix>3d</fix>
</trkpt>
<trkpt lat="33.8103133" lon="-118.3938693">
  <ele>-15.841</ele>
  <time>2026-09-01T01:13:17Z</time>
  <course>186.94</course>
  <speed>0.022360679774997897</speed>
  <fix>3d</fix>
</trkpt>
<trkpt lat="33.8103133" lon="-118.3938693">
  <ele>-15.726</ele>
  <time>2026-09-01T01:13:17Z</time>
  <course>186.95</course>
  <speed>0.022360679774997897</speed>
  <fix>3d</fix>
</trkpt>
<trkpt lat="33.8103131" lon="-118.3938692">
  <ele>-15.62</ele>
  <time>2026-09-01T01:13:17Z</time>
  <course>113.56</course>
  <speed>0.0</speed>
  <fix>3d</fix>
</trkpt>
<trkpt lat="33.8103133" lon="-118.3938693">
  <ele>-15.67</ele>
  <time>2026-09-01T01:13:17Z</time>
  <course>186.95</course>
  <speed>0.022360679774997897</speed>
  <fix>3d</fix>
</trkpt>
<trkpt lat="33.8103133" lon="-118.3938693">
  <ele>-15.603</ele>
  <time>2026-09-01T01:13:17Z</time>
  <course>186.96</course>
  <speed>0.022360679774997897</speed>
  <fix>3d</fix>
</trkpt>
<trkpt lat="33.8103131" lon="-118.3938692">
  <ele>-15.62</ele>
  <time>2026-09-01T01:13:17Z</time>
  <course>113.56</course>
  <speed>0.0</speed>
  <fix>3d</fix>
</trkpt>
<trkpt lat="33.8103133" lon="-118.3938693">
  <ele>-15.547</ele>
  <time>2026-09-01T01:13:17Z</time>
  <course>186.96</course>
  <speed>0.022360679774997897</speed>
  <fix>3d</fix>
</trkpt>
<trkpt lat="33.8103133" lon="-118.3938693">
  <ele>-15.48</ele>
  <time>2026-09-01T01:13:17Z</time>
  <course>186.97</course>
  <speed>0.022360679774997897</speed>
  <fix>3d</fix>
</trkpt>
<trkpt lat="33.8103131" lon="-118.3938692">
  <ele>-15.37</ele>
  <time>2026-09-01T01:13:17Z</time>
  <course>115.07</course>
  <speed>0.0</speed>
  <fix>3d</fix>
</trkpt>
<trkpt lat="33.8103133" lon="-118.3938693">
  <ele>-15.428</ele>
  <time>2026-09-01T01:13:17Z</time>
  <course>186.97</course>
  <speed>0.022360679774997897</speed>
  <fix>3d</fix>
</trkpt>
<trkpt lat="33.8103133" lon="-118.3938693">
  <ele>-15.357</ele>
  <time>2026-09-01T01:13:17Z</time>
  <course>186.98</course>
  <speed>0.022360679774997897</speed>
  <fix>3d</fix>
</trkpt>
<trkpt lat="33.8103131" lon="-118.3938692">
  <ele>-15.37</ele>
  <time>2026-09-01T01:13:17Z</time>
  <course>115.07</course>
  <speed>0.0</speed>
  <fix>3d</fix>
</trkpt>
<trkpt lat="33.8103133" lon="-118.3938693">
  <ele>-15.302</ele>
  <time>2026-09-01T01:13:17Z</time>
  <course>186.98</course>
  <speed>0.022360679774997897</speed>
  <fix>3d</fix>
</trkpt>
<trkpt lat="33.8103133" lon="-118.3938693">
  <ele>-15.235</ele>
  <time>2026-09-01T01:13:17Z</time>
  <course>186.99</course>
  <speed>0.022360679774997897</speed>
  <fix>3d</fix>
</trkpt>
<trkpt lat="33.8103131" lon="-118.3938692">
  <ele>-15.13</ele>
  <time>2026-09-01T01:13:17Z</time>
  <course>116.82</course>
  <speed>0.0</speed>
  <fix>3d</fix>
</trkpt>
<trkpt lat="33.8103133" lon="-118.3938693">
  <ele>-15.183</ele>
  <time>2026-09-01T01:13:17Z</time>
  <course>186.99</course>
  <speed>0.022360679774997897</speed>
  <fix>3d</fix>
</trkpt>
<trkpt lat="33.8103133" lon="-118.3938693">
  <ele>-15.113</ele>
  <time>2026-09-01T01:13:17Z</time>
  <course>187.0</course>
  <speed>0.022360679774997897</speed>
  <fix>3d</fix>
</trkpt>
<trkpt lat="33.8103131" lon="-118.3938692">
  <ele>-15.13</ele>
  <time>2026-09-01T01:13:17Z</time>
  <course>116.82</course>
  <speed>0.0</speed>
  <fix>3d</fix>
</trkpt>
<trkpt lat="33.8103133" lon="-118.3938693">
  <ele>-15.058</ele>
  <time>2026-09-01T01:13:17Z</time>
  <course>187.0</course>
  <speed>0.022360679774997897</speed>
  <fix>3d</fix>
</trkpt>
<trkpt lat="33.8103133" lon="-118.3938693">
  <ele>-14.99</ele>
  <time>2026-09-01T01:13:17Z</time>
  <course>187.01</course>
  <speed>0.022360679774997897</speed>
  <fix>3d</fix>
</trkpt>
<trkpt lat="33.8103131" lon="-118.3938692">
  <ele>-14.88</ele>
  <time>2026-09-01T01:13:17Z</time>
  <course>118.86</course>
  <speed>0.0</speed>
  <fix>3d</fix>
</trkpt>
<trkpt lat="33.8103133" lon="-118.3938693">
  <ele>-14.938</ele>
  <time>2026-09-01T01:13:17Z</time>
  <course>187.01</course>
  <speed>0.022360679774997897</speed>
  <fix>3d</fix>
</trkpt>
<trkpt lat="33.8103133" lon="-118.3938693">
  <ele>-14.867</ele>
  <time>2026-09-01T01:13:17Z</time>
  <course>187.02</course>
  <speed>0.022360679774997897</speed>
  <fix>3d</fix>
</trkpt>
<trkpt lat="33.8103131" lon="-118.3938692">
  <ele>-14.88</ele>
  <time>2026-09-01T01:13:17Z</time>
  <course>118.86</course>
  <speed>0.0</speed>
  <fix>3d</fix>
</trkpt>
<trkpt lat="33.8103133" lon="-118.3938693">
  <ele>-14.814</ele>
  <time>2026-09-01T01:13:17Z</time>
  <course>187.02</course>
  <speed>0.022360679774997897</speed>
  <fix>3d</fix>
</trkpt>
<trkpt lat="33.8103133" lon="-118.3938693">
  <ele>-14.742</ele>
  <time>2026-09-01T01:13:17Z</time>
  <course>187.03</course>
  <speed>0.022360679774997897</speed>
  <fix>3d</fix>
</trkpt>
<trkpt lat="33.8103131" lon="-118.3938692">
  <ele>-14.64</ele>
  <time>2026-09-01T01:13:17Z</time>
  <course>121.32</course>
  <speed>0.0</speed>
  <fix>3d</fix>
</trkpt>
<trkpt lat="33.8103133" lon="-118.3938693">
  <ele>-14.686</ele>
  <time>2026-09-01T01:13:17Z</time>
  <course>187.03</course>
  <speed>0.022360679774997897</speed>
  <fix>3d</fix>
</trkpt>
<trkpt lat="33.8103133" lon="-118.3938693">
  <ele>-14.618</ele>
  <time>2026-09-01T01:13:17Z</time>
  <course>187.04</course>
  <speed>0.022360679774997897</speed>
  <fix>3d</fix>
</trkpt>
<trkpt lat="33.8103131" lon="-118.3938692">
  <ele>-14.64</ele>
  <time>2026-09-01T01:13:17Z</time>
  <course>121.32</course>
  <speed>0.0</speed>
  <fix>3d</fix>
</trkpt>
<trkpt lat="33.8103133" lon="-118.3938693">
  <ele>-14.565</ele>
  <time>2026-09-01T01:13:17Z</time>
  <course>187.04</course>
  <speed>0.022360679774997897</speed>
  <fix>3d</fix>
</trkpt>
<trkpt lat="33.8103133" lon="-118.3938693">
  <ele>-14.495</ele>
  <time>2026-09-01T01:13:17Z</time>
  <course>187.05</course>
  <speed>0.022360679774997897</speed>
  <fix>3d</fix>
</trkpt>
<trkpt lat="33.8103131" lon="-118.3938692">
  <ele>-14.39</ele>
  <time>2026-09-01T01:13:17Z</time>
  <course>124.28</course>
  <speed>0.0</speed>
  <fix>3d</fix>
</trkpt>
<trkpt lat="33.8103133" lon="-118.3938693">
  <ele>-14.49</ele>
  <time>2026-09-01T01:13:17Z</time>
  <course>187.05</course>
  <speed>0.022360679774997897</speed>
  <fix>3d</fix>
</trkpt>
<trkpt lat="33.8103133" lon="-118.3938693">
  <ele>-14.369</ele>
  <time>2026-09-01T01:13:17Z</time>
  <course>187.06</course>
  <speed>0.022360679774997897</speed>
  <fix>3d</fix>
</trkpt>
<trkpt lat="33.8103131" lon="-118.3938692">
  <ele>-14.39</ele>
  <time>2026-09-01T01:13:17Z</time>
  <course>124.28</course>
  <speed>0.0</speed>
  <fix>3d</fix>
</trkpt>
<trkpt lat="33.8103133" lon="-118.3938693">
  <ele>-14.353</ele>
  <time>2026-09-01T01:13:17Z</time>
  <course>187.06</course>
  <speed>0.022360679774997897</speed>
  <fix>3d</fix>
</trkpt>
<trkpt lat="33.8103133" lon="-118.3938693">
  <ele>-14.243</ele>
  <time>2026-09-01T01:13:17Z</time>
  <course>187.07</course>
  <speed>0.022360679774997897</speed>
  <fix>3d</fix>
</trkpt>
<trkpt lat="33.8103131" lon="-118.3938692">
  <ele>-14.15</ele>
  <time>2026-09-01T01:13:17Z</time>
  <course>127.85</course>
  <speed>0.0</speed>
  <fix>3d</fix>
</trkpt>
<trkpt lat="33.8103133" lon="-118.3938693">
  <ele>-14.187</ele>
  <time>2026-09-01T01:13:17Z</time>
  <course>187.07</course>
  <speed>0.022360679774997897</speed>
  <fix>3d</fix>
</trkpt>
<trkpt lat="33.8103133" lon="-118.3938693">
  <ele>-14.118</ele>
  <time>2026-09-01T01:13:17Z</time>
  <course>187.08</course>
  <speed>0.022360679774997897</speed>
  <fix>3d</fix>
</trkpt>
<trkpt lat="33.8103131" lon="-118.3938692">
  <ele>-14.15</ele>
  <time>2026-09-01T01:13:17Z</time>
  <course>127.85</course>
  <speed>0.0</speed>
  <fix>3d</fix>
</trkpt>
<trkpt lat="33.8103133" lon="-118.3938693">
  <ele>-14.064</ele>
  <time>2026-09-01T01:13:17Z</time>
  <course>187.08</course>
  <speed>0.022360679774997897</speed>
  <fix>3d</fix>
</trkpt>
<trkpt lat="33.8103133" lon="-118.3938693">
  <ele>-13.991</ele>
  <time>2026-09-01T01:13:17Z</time>
  <course>187.09</course>
  <speed>0.022360679774997897</speed>
  <fix>3d</fix>
</trkpt>
<trkpt lat="33.8103131" lon="-118.3938692">
  <ele>-13.9</ele>
  <time>2026-09-01T01:13:17Z</time>
  <course>132.32</course>
  <speed>0.0</speed>
  <fix>3d</fix>
</trkpt>
<trkpt lat="33.8103133" lon="-118.3938693">
  <ele>-13.947</ele>
  <time>2026-09-01T01:13:17Z</time>
  <course>187.09</course>
  <speed>0.022360679774997897</speed>
  <fix>3d</fix>
</trkpt>
<trkpt lat="33.8103133" lon="-118.3938693">
  <ele>-13.865</ele>
  <time>2026-09-01T01:13:17Z</time>
  <course>187.1</course>
  <speed>0.022360679774997897</speed>
  <fix>3d</fix>
</trkpt>
<trkpt lat="33.8103131" lon="-118.3938692">
  <ele>-13.9</ele>
  <time>2026-09-01T01:13:17Z</time>
  <course>132.32</course>
  <speed>0.0</speed>
  <fix>3d</fix>
</trkpt>
<trkpt lat="33.8103133" lon="-118.3938693">
  <ele>-13.738</ele>
  <time>2026-09-01T01:13:17Z</time>
  <course>187.11</course>
  <speed>0.022360679774997897</speed>
  <fix>3d</fix>
</trkpt>
<trkpt lat="33.8103131" lon="-118.3938692">
  <ele>-13.66</ele>
  <time>2026-09-01T01:13:17Z</time>
  <course>137.9</course>
  <speed>0.0</speed>
  <fix>3d</fix>
</trkpt>
<trkpt lat="33.8103133" lon="-118.3938693">
  <ele>-13.612</ele>
  <time>2026-09-01T01:13:17Z</time>
  <course>187.12</course>
  <speed>0.022360679774997897</speed>
  <fix>3d</fix>
</trkpt>
<trkpt lat="33.8103131" lon="-118.3938692">
  <ele>-13.66</ele>
  <time>2026-09-01T01:13:17Z</time>
  <course>137.9</course>
  <speed>0.0</speed>
  <fix>3d</fix>
</trkpt>
<trkpt lat="33.8103133" lon="-118.3938693">
  <ele>-13.487</ele>
  <time>2026-09-01T01:13:17Z</time>
  <course>187.13</course>
  <speed>0.022360679774997897</speed>
  <fix>3d</fix>
</trkpt>
<trkpt lat="33.8103131" lon="-118.3938692">
  <ele>-13.41</ele>
  <time>2026-09-01T01:13:17Z</time>
  <course>152.13</course>
  <speed>0.0</speed>
  <fix>3d</fix>
</trkpt>
<trkpt lat="33.8103133" lon="-118.3938693">
  <ele>-13.365</ele>
  <time>2026-09-01T01:13:17Z</time>
  <course>187.14</course>
  <speed>0.022360679774997897</speed>
  <fix>3d</fix>
</trkpt>
<trkpt lat="33.8103131" lon="-118.3938692">
  <ele>-13.41</ele>
  <time>2026-09-01T01:13:17Z</time>
  <course>152.13</course>
  <speed>0.0</speed>
  <fix>3d</fix>
</trkpt>
<trkpt lat="33.8103133" lon="-118.3938693">
  <ele>-13.251</ele>
  <time>2026-09-01T01:13:17Z</time>
  <course>187.15</course>
  <speed>0.022360679774997897</speed>
  <fix>3d</fix>
</trkpt>
<trkpt lat="33.8103131" lon="-118.3938692">
  <ele>-13.17</ele>
  <time>2026-09-01T01:13:17Z</time>
  <course>255.57</course>
  <speed>0.0</speed>
  <fix>3d</fix>
</trkpt>
<trkpt lat="33.8103133" lon="-118.3938693">
  <ele>-13.151</ele>
  <time>2026-09-01T01:13:17Z</time>
  <course>187.15</course>
  <speed>0.022360679774997897</speed>
  <fix>3d</fix>
</trkpt>
<trkpt lat="33.8103131" lon="-118.3938692">
  <ele>-13.17</ele>
  <time>2026-09-01T01:13:17Z</time>
  <course>255.57</course>
  <speed>0.0</speed>
  <fix>3d</fix>
</trkpt>
<trkpt lat="33.8103133" lon="-118.3938693">
  <ele>-13.068</ele>
  <time>2026-09-01T01:13:17Z</time>
  <course>187.16</course>
  <speed>0.022360679774997897</speed>
  <fix>3d</fix>
</trkpt>
<trkpt lat="33.8103131" lon="-118.3938692">
  <ele>-12.96</ele>
  <time>2026-09-01T01:13:17Z</time>
  <course>272.35</course>
  <speed>0.0</speed>
  <fix>3d</fix>
</trkpt>
<trkpt lat="33.8103133" lon="-118.3938693">
  <ele>-13.002</ele>
  <time>2026-09-01T01:13:17Z</time>
  <course>187.17</course>
  <speed>0.01414213562373095</speed>
  <fix>3d</fix>
</trkpt>
<trkpt lat="33.8103131" lon="-118.3938692">
  <ele>-12.96</ele>
  <time>2026-09-01T01:13:17Z</time>
  <course>272.35</course>
  <speed>0.0</speed>
  <fix>3d</fix>
</trkpt>
<trkpt lat="33.8103133" lon="-118.3938693">
  <ele>-12.952</ele>
  <time>2026-09-01T01:13:17Z</time>
  <course>187.18</course>
  <speed>0.01414213562373095</speed>
  <fix>3d</fix>
</trkpt>
<trkpt lat="33.8103131" lon="-118.3938692">
  <ele>-12.79</ele>
  <time>2026-09-01T01:13:17Z</time>
  <course>274.44</course>
  <speed>0.0</speed>
  <fix>3d</fix>
</trkpt>
<trkpt lat="33.8103133" lon="-118.3938693">
  <ele>-12.914</ele>
  <time>2026-09-01T01:13:17Z</time>
  <course>187.19</course>
  <speed>0.01414213562373095</speed>
  <fix>3d</fix>
</trkpt>
<trkpt lat="33.8103131" lon="-118.3938692">
  <ele>-12.79</ele>
  <time>2026-09-01T01:13:17Z</time>
  <course>274.44</course>
  <speed>0.0</speed>
  <fix>3d</fix>
</trkpt>
<trkpt lat="33.8103133" lon="-118.3938693">
  <ele>-12.886</ele>
  <time>2026-09-01T01:13:17Z</time>
  <course>187.2</course>
  <speed>0.01414213562373095</speed>
  <fix>3d</fix>
</trkpt>
<trkpt lat="33.8103131" lon="-118.3938692">
  <ele>-12.68</ele>
  <time>2026-09-01T01:13:17Z</time>
  <course>274.94</course>
  <speed>0.0</speed>
  <fix>3d</fix>
</trkpt>
<trkpt lat="33.8103133" lon="-118.3938693">
  <ele>-12.868</ele>
  <time>2026-09-01T01:13:17Z</time>
  <course>187.21</course>
  <speed>0.01414213562373095</speed>
  <fix>3d</fix>
</trkpt>
<trkpt lat="33.8103131" lon="-118.3938692">
  <ele>-12.68</ele>
  <time>2026-09-01T01:13:17Z</time>
  <course>274.94</course>
  <speed>0.0</speed>
  <fix>3d</fix>
</trkpt>
<trkpt lat="33.8103133" lon="-118.3938693">
  <ele>-12.858</ele>
  <time>2026-09-01T01:13:17Z</time>
  <course>187.22</course>
  <speed>0.01414213562373095</speed>
  <fix>3d</fix>
</trkpt>
<trkpt lat="33.8103131" lon="-118.3938692">
  <ele>-12.62</ele>
  <time>2026-09-01T01:13:17Z</time>
  <course>275.09</course>
  <speed>0.0</speed>
  <fix>3d</fix>
</trkpt>
<trkpt lat="33.8103133" lon="-118.3938693">
  <ele>-12.855</ele>
  <time>2026-09-01T01:13:17Z</time>
  <course>187.23</course>
  <speed>0.01414213562373095</speed>
  <fix>3d</fix>
</trkpt>
<trkpt lat="33.8103131" lon="-118.3938692">
  <ele>-12.62</ele>
  <time>2026-09-01T01:13:17Z</time>
  <course>275.09</course>
  <speed>0.0</speed>
  <fix>3d</fix>
</trkpt>
<trkpt lat="33.8103133" lon="-118.3938693">
  <ele>-12.856</ele>
  <time>2026-09-01T01:13:17Z</time>
  <course>187.24</course>
  <speed>0.01414213562373095</speed>
  <fix>3d</fix>
</trkpt>
<trkpt lat="33.8103131" lon="-118.3938692">
  <ele>-12.59</ele>
  <time>2026-09-01T01:13:17Z</time>
  <course>275.17</course>
  <speed>0.0</speed>
  <fix>3d</fix>
</trkpt>
<trkpt lat="33.8103133" lon="-118.3938693">
  <ele>-12.859</ele>
  <time>2026-09-01T01:13:17Z</time>
  <course>187.25</course>
  <speed>0.01414213562373095</speed>
  <fix>3d</fix>
</trkpt>
<trkpt lat="33.8103131" lon="-118.3938692">
  <ele>-12.59</ele>
  <time>2026-09-01T01:13:17Z</time>
  <course>275.17</course>
  <speed>0.0</speed>
  <fix>3d</fix>
</trkpt>
<trkpt lat="33.8103133" lon="-118.3938693">
  <ele>-12.863</ele>
  <time>2026-09-01T01:13:17Z</time>
  <course>187.26</course>
  <speed>0.01414213562373095</speed>
  <fix>3d</fix>
</trkpt>
<trkpt lat="33.8103131" lon="-118.3938692">
  <ele>-12.58</ele>
  <time>2026-09-01T01:13:17Z</time>
  <course>275.21</course>
  <speed>0.0</speed>
  <fix>3d</fix>
</trkpt>
<trkpt lat="33.8103133" lon="-118.3938693">
  <ele>-12.866</ele>
  <time>2026-09-01T01:13:17Z</time>
  <course>187.27</course>
  <speed>0.01414213562373095</speed>
  <fix>3d</fix>
</trkpt>
<trkpt lat="33.8103131" lon="-118.3938692">
  <ele>-12.58</ele>
  <time>2026-09-01T01:13:17Z</time>
  <course>275.21</course>
  <speed>0.0</speed>
  <fix>3d</fix>
</trkpt>
<trkpt lat="33.8103133" lon="-118.3938693">
  <ele>-12.869</ele>
  <time>2026-09-01T01:13:17Z</time>
  <course>187.27</course>
  <speed>0.01414213562373095</speed>
  <fix>3d</fix>
</trkpt>
<trkpt lat="33.8103131" lon="-118.3938693">
  <ele>-12.58</ele>
  <time>2026-09-01T01:13:17Z</time>
  <course>275.22</course>
  <speed>0.0</speed>
  <fix>3d</fix>
</trkpt>
<trkpt lat="33.8103133" lon="-118.3938693">
  <ele>-12.871</ele>
  <time>2026-09-01T01:13:17Z</time>
  <course>187.28</course>
  <speed>0.022360679774997897</speed>
  <fix>3d</fix>
</trkpt>
<trkpt lat="33.8103131" lon="-118.3938693">
  <ele>-12.58</ele>
  <time>2026-09-01T01:13:17Z</time>
  <course>275.22</course>
  <speed>0.0</speed>
  <fix>3d</fix>
</trkpt>
<trkpt lat="33.8103133" lon="-118.3938693">
  <ele>-12.872</ele>
  <time>2026-09-01T01:13:17Z</time>
  <course>187.29</course>
  <speed>0.022360679774997897</speed>
  <fix>3d</fix>
</trkpt>
<trkpt lat="33.8103131" lon="-118.3938693">
  <ele>-12.58</ele>
  <time>2026-09-01T01:13:17Z</time>
  <course>275.22</course>
  <speed>0.0</speed>
  <fix>3d</fix>
</trkpt>
<trkpt lat="33.8103133" lon="-118.3938693">
  <ele>-12.873</ele>
  <time>2026-09-01T01:13:17Z</time>
  <course>187.3</course>
  <speed>0.022360679774997897</speed>
  <fix>3d</fix>
</trkpt>
<trkpt lat="33.8103131" lon="-118.3938693">
  <ele>-12.58</ele>
  <time>2026-09-01T01:13:17Z</time>
  <course>275.22</course>
  <speed>0.0</speed>
  <fix>3d</fix>
</trkpt>
<trkpt lat="33.8103133" lon="-118.3938693">
  <ele>-12.873</ele>
  <time>2026-09-01T01:13:17Z</time>
  <course>187.31</course>
  <speed>0.022360679774997897</speed>
  <fix>3d</fix>
</trkpt>
<trkpt lat="33.8103131" lon="-118.3938693">
  <ele>-12.57</ele>
  <time>2026-09-01T01:13:17Z</time>
  <course>275.21</course>
  <speed>0.0</speed>
  <fix>3d</fix>
</trkpt>
<trkpt lat="33.8103133" lon="-118.3938693">
  <ele>-12.871</ele>
  <time>2026-09-01T01:13:17Z</time>
  <course>187.32</course>
  <speed>0.022360679774997897</speed>
  <fix>3d</fix>
</trkpt>
<trkpt lat="33.8103131" lon="-118.3938693">
  <ele>-12.57</ele>
  <time>2026-09-01T01:13:17Z</time>
  <course>275.21</course>
  <speed>0.0</speed>
  <fix>3d</fix>
</trkpt>
<trkpt lat="33.8103133" lon="-118.3938693">
  <ele>-12.868</ele>
  <time>2026-09-01T01:13:17Z</time>
  <course>187.33</course>
  <speed>0.022360679774997897</speed>
  <fix>3d</fix>
</trkpt>
<trkpt lat="33.8103131" lon="-118.3938693">
  <ele>-12.56</ele>
  <time>2026-09-01T01:13:17Z</time>
  <course>275.21</course>
  <speed>0.0</speed>
  <fix>3d</fix>
</trkpt>
<trkpt lat="33.8103133" lon="-118.3938694">
  <ele>-12.864</ele>
  <time>2026-09-01T01:13:17Z</time>
  <course>187.33</course>
  <speed>0.022360679774997897</speed>
  <fix>3d</fix>
</trkpt>
<trkpt lat="33.8103131" lon="-118.3938693">
  <ele>-12.56</ele>
  <time>2026-09-01T01:13:17Z</time>
  <course>275.21</course>
  <speed>0.0</speed>
  <fix>3d</fix>
</trkpt>
<trkpt lat="33.8103133" lon="-118.3938694">
  <ele>-12.86</ele>
  <time>2026-09-01T01:13:17Z</time>
  <course>187.34</course>
  <speed>0.022360679774997897</speed>
  <fix>3d</fix>
</trkpt>
<trkpt lat="33.8103131" lon="-118.3938693">
  <ele>-12.55</ele>
  <time>2026-09-01T01:13:17Z</time>
  <course>275.2</course>
  <speed>0.0</speed>
  <fix>3d</fix>
</trkpt>
<trkpt lat="33.8103133" lon="-118.3938694">
  <ele>-12.857</ele>
  <time>2026-09-01T01:13:17Z</time>
  <course>187.35</course>
  <speed>0.022360679774997897</speed>
  <fix>3d</fix>
</trkpt>
<trkpt lat="33.8103131" lon="-118.3938693">
  <ele>-12.55</ele>
  <time>2026-09-01T01:13:17Z</time>
  <course>275.2</course>
  <speed>0.0</speed>
  <fix>3d</fix>
</trkpt>
<trkpt lat="33.8103133" lon="-118.3938694">
  <ele>-12.856</ele>
  <time>2026-09-01T01:13:17Z</time>
  <course>187.36</course>
  <speed>0.022360679774997897</speed>
  <fix>3d</fix>
</trkpt>
<trkpt lat="33.8103131" lon="-118.3938693">
  <ele>-12.54</ele>
  <time>2026-09-01T01:13:17Z</time>
  <course>275.2</course>
  <speed>0.0</speed>
  <fix>3d</fix>
</trkpt>
<trkpt lat="33.8103133" lon="-118.3938694">
  <ele>-12.855</ele>
  <time>2026-09-01T01:13:17Z</time>
  <course>187.37</course>
  <speed>0.022360679774997897</speed>
  <fix>3d</fix>
</trkpt>
<trkpt lat="33.8103131" lon="-118.3938693">
  <ele>-12.54</ele>
  <time>2026-09-01T01:13:17Z</time>
  <course>275.2</course>
  <speed>0.0</speed>
  <fix>3d</fix>
</trkpt>
<trkpt lat="33.8103133" lon="-118.3938694">
  <ele>-12.856</ele>
  <time>2026-09-01T01:13:17Z</time>
  <course>187.38</course>
  <speed>0.022360679774997897</speed>
  <fix>3d</fix>
</trkpt>
<trkpt lat="33.8103131" lon="-118.3938693">
  <ele>-12.54</ele>
  <time>2026-09-01T01:13:17Z</time>
  <course>275.22</course>
  <speed>0.0</speed>
  <fix>3d</fix>
</trkpt>
<trkpt lat="33.8103133" lon="-118.3938694">
  <ele>-12.856</ele>
  <time>2026-09-01T01:13:17Z</time>
  <course>187.38</course>
  <speed>0.022360679774997897</speed>
  <fix>3d</fix>
</trkpt>
<trkpt lat="33.8103131" lon="-118.3938693">
  <ele>-12.54</ele>
  <time>2026-09-01T01:13:17Z</time>
  <course>275.22</course>
  <speed>0.0</speed>
  <fix>3d</fix>
</trkpt>
<trkpt lat="33.8103133" lon="-118.3938694">
  <ele>-12.858</ele>
  <time>2026-09-01T01:13:17Z</time>
  <course>187.39</course>
  <speed>0.022360679774997897</speed>
  <fix>3d</fix>
</trkpt>
<trkpt lat="33.8103131" lon="-118.3938693">
  <ele>-12.54</ele>
  <time>2026-09-01T01:13:17Z</time>
  <course>275.24</course>
  <speed>0.0</speed>
  <fix>3d</fix>
</trkpt>
<trkpt lat="33.8103133" lon="-118.3938694">
  <ele>-12.859</ele>
  <time>2026-09-01T01:13:17Z</time>
  <course>187.4</course>
  <speed>0.022360679774997897</speed>
  <fix>3d</fix>
</trkpt>
<trkpt lat="33.8103131" lon="-118.3938693">
  <ele>-12.54</ele>
  <time>2026-09-01T01:13:17Z</time>
  <course>275.24</course>
  <speed>0.0</speed>
  <fix>3d</fix>
</trkpt>
<trkpt lat="33.8103133" lon="-118.3938694">
  <ele>-12.86</ele>
  <time>2026-09-01T01:13:17Z</time>
  <course>187.41</course>
  <speed>0.022360679774997897</speed>
  <fix>3d</fix>
</trkpt>
<trkpt lat="33.8103131" lon="-118.3938694">
  <ele>-12.54</ele>
  <time>2026-09-01T01:13:17Z</time>
  <course>275.25</course>
  <speed>0.0</speed>
  <fix>3d</fix>
</trkpt>
<trkpt lat="33.8103133" lon="-118.3938694">
  <ele>-12.86</ele>
  <time>2026-09-01T01:13:17Z</time>
  <course>187.42</course>
  <speed>0.022360679774997897</speed>
  <fix>3d</fix>
</trkpt>
<trkpt lat="33.8103131" lon="-118.3938694">
  <ele>-12.54</ele>
  <time>2026-09-01T01:13:17Z</time>
  <course>275.25</course>
  <speed>0.0</speed>
  <fix>3d</fix>
</trkpt>
<trkpt lat="33.8103133" lon="-118.3938694">
  <ele>-12.861</ele>
  <time>2026-09-01T01:13:17Z</time>
  <course>187.43</course>
  <speed>0.022360679774997897</speed>
  <fix>3d</fix>
</trkpt>
<trkpt lat="33.8103131" lon="-118.3938694">
  <ele>-12.54</ele>
  <time>2026-09-01T01:13:17Z</time>
  <course>275.25</course>
  <speed>0.0</speed>
  <fix>3d</fix>
</trkpt>
<trkpt lat="33.8103133" lon="-118.3938694">
  <ele>-12.862</ele>
  <time>2026-09-01T01:13:17Z</time>
  <course>187.44</course>
  <speed>0.022360679774997897</speed>
  <fix>3d</fix>
</trkpt>
<trkpt lat="33.8103131" lon="-118.3938694">
  <ele>-12.54</ele>
  <time>2026-09-01T01:13:17Z</time>
  <course>275.25</course>
  <speed>0.0</speed>
  <fix>3d</fix>
</trkpt>
<trkpt lat="33.8103133" lon="-118.3938694">
  <ele>-12.863</ele>
  <time>2026-09-01T01:13:17Z</time>
  <course>187.44</course>
  <speed>0.022360679774997897</speed>
  <fix>3d</fix>
</trkpt>
<trkpt lat="33.8103131" lon="-118.3938694">
  <ele>-12.54</ele>
  <time>2026-09-01T01:13:17Z</time>
  <course>275.25</course>
  <speed>0.0</speed>
  <fix>3d</fix>
</trkpt>
<trkpt lat="33.8103133" lon="-118.3938695">
  <ele>-12.864</ele>
  <time>2026-09-01T01:13:17Z</time>
  <course>187.45</course>
  <speed>0.022360679774997897</speed>
  <fix>3d</fix>
</trkpt>
<trkpt lat="33.8103131" lon="-118.3938694">
  <ele>-12.54</ele>
  <time>2026-09-01T01:13:17Z</time>
  <course>275.25</course>
  <speed>0.0</speed>
  <fix>3d</fix>
</trkpt>
<trkpt lat="33.8103133" lon="-118.3938695">
  <ele>-12.864</ele>
  <time>2026-09-01T01:13:17Z</time>
  <course>187.46</course>
  <speed>0.022360679774997897</speed>
  <fix>3d</fix>
</trkpt>
<trkpt lat="33.8103131" lon="-118.3938694">
  <ele>-12.54</ele>
  <time>2026-09-01T01:13:17Z</time>
  <course>275.25</course>
  <speed>0.0</speed>
  <fix>3d</fix>
</trkpt>
<trkpt lat="33.8103133" lon="-118.3938695">
  <ele>-12.862</ele>
  <time>2026-09-01T01:13:17Z</time>
  <course>187.47</course>
  <speed>0.022360679774997897</speed>
  <fix>3d</fix>
</trkpt>
<trkpt lat="33.8103131" lon="-118.3938694">
  <ele>-12.54</ele>
  <time>2026-09-01T01:13:17Z</time>
  <course>275.25</course>
  <speed>0.0</speed>
  <fix>3d</fix>
</trkpt>
<trkpt lat="33.8103133" lon="-118.3938695">
  <ele>-12.861</ele>
  <time>2026-09-01T01:13:17Z</time>
  <course>187.48</course>
  <speed>0.0282842712474619</speed>
  <fix>3d</fix>
</trkpt>
<trkpt lat="33.8103131" lon="-118.3938694">
  <ele>-12.54</ele>
  <time>2026-09-01T01:13:17Z</time>
  <course>275.25</course>
  <speed>0.0</speed>
  <fix>3d</fix>
</trkpt>
<trkpt lat="33.8103133" lon="-118.3938695">
  <ele>-12.859</ele>
  <time>2026-09-01T01:13:17Z</time>
  <course>187.48</course>
  <speed>0.0282842712474619</speed>
  <fix>3d</fix>
</trkpt>
<trkpt lat="33.8103131" lon="-118.3938694">
  <ele>-12.54</ele>
  <time>2026-09-01T01:13:17Z</time>
  <course>275.25</course>
  <speed>0.0</speed>
  <fix>3d</fix>
</trkpt>
<trkpt lat="33.8103133" lon="-118.3938695">
  <ele>-12.856</ele>
  <time>2026-09-01T01:13:17Z</time>
  <course>187.49</course>
  <speed>0.0282842712474619</speed>
  <fix>3d</fix>
</trkpt>
<trkpt lat="33.8103131" lon="-118.3938694">
  <ele>-12.54</ele>
  <time>2026-09-01T01:13:17Z</time>
  <course>275.25</course>
  <speed>0.0</speed>
  <fix>3d</fix>
</trkpt>
<trkpt lat="33.8103133" lon="-118.3938695">
  <ele>-12.855</ele>
  <time>2026-09-01T01:13:17Z</time>
  <course>187.5</course>
  <speed>0.0282842712474619</speed>
  <fix>3d</fix>
</trkpt>
<trkpt lat="33.8103131" lon="-118.3938694">
  <ele>-12.54</ele>
  <time>2026-09-01T01:13:17Z</time>
  <course>275.25</course>
  <speed>0.0</speed>
  <fix>3d</fix>
</trkpt>
<trkpt lat="33.8103133" lon="-118.3938695">
  <ele>-12.854</ele>
  <time>2026-09-01T01:13:17Z</time>
  <course>187.51</course>
  <speed>0.0282842712474619</speed>
  <fix>3d</fix>
</trkpt>
<trkpt lat="33.8103131" lon="-118.3938694">
  <ele>-12.54</ele>
  <time>2026-09-01T01:13:17Z</time>
  <course>275.26</course>
  <speed>0.0</speed>
  <fix>3d</fix>
</trkpt>
<trkpt lat="33.8103133" lon="-118.3938695">
  <ele>-12.855</ele>
  <time>2026-09-01T01:13:17Z</time>
  <course>187.52</course>
  <speed>0.0282842712474619</speed>
  <fix>3d</fix>
</trkpt>
<trkpt lat="33.8103131" lon="-118.3938694">
  <ele>-12.54</ele>
  <time>2026-09-01T01:13:17Z</time>
  <course>275.26</course>
  <speed>0.0</speed>
  <fix>3d</fix>
</trkpt>
<trkpt lat="33.8103133" lon="-118.3938695">
  <ele>-12.857</ele>
  <time>2026-09-01T01:13:17Z</time>
  <course>187.53</course>
  <speed>0.0282842712474619</speed>
  <fix>3d</fix>
</trkpt>
<trkpt lat="33.8103131" lon="-118.3938694">
  <ele>-12.54</ele>
  <time>2026-09-01T01:13:17Z</time>
  <course>275.27</course>
  <speed>0.0</speed>
  <fix>3d</fix>
</trkpt>
<trkpt lat="33.8103133" lon="-118.3938695">
  <ele>-12.858</ele>
  <time>2026-09-01T01:13:17Z</time>
  <course>187.53</course>
  <speed>0.0282842712474619</speed>
  <fix>3d</fix>
</trkpt>
<trkpt lat="33.8103131" lon="-118.3938694">
  <ele>-12.54</ele>
  <time>2026-09-01T01:13:17Z</time>
  <course>275.27</course>
  <speed>0.0</speed>
  <fix>3d</fix>
</trkpt>
<trkpt lat="33.8103133" lon="-118.3938695">
  <ele>-12.858</ele>
  <time>2026-09-01T01:13:17Z</time>
  <course>187.54</course>
  <speed>0.0282842712474619</speed>
  <fix>3d</fix>
</trkpt>
<trkpt lat="33.8103131" lon="-118.3938695">
  <ele>-12.54</ele>
  <time>2026-09-01T01:13:17Z</time>
  <course>275.27</course>
  <speed>0.0</speed>
  <fix>3d</fix>
</trkpt>
<trkpt lat="33.8103133" lon="-118.3938695">
  <ele>-12.859</ele>
  <time>2026-09-01T01:13:17Z</time>
  <course>187.55</course>
  <speed>0.0282842712474619</speed>
  <fix>3d</fix>
</trkpt>
<trkpt lat="33.8103131" lon="-118.3938695">
  <ele>-12.54</ele>
  <time>2026-09-01T01:13:17Z</time>
  <course>275.27</course>
  <speed>0.0</speed>
  <fix>3d</fix>
</trkpt>
<trkpt lat="33.8103133" lon="-118.3938696">
  <ele>-12.859</ele>
  <time>2026-09-01T01:13:17Z</time>
  <course>187.56</course>
  <speed>0.0282842712474619</speed>
  <fix>3d</fix>
</trkpt>
<trkpt lat="33.8103131" lon="-118.3938695">
  <ele>-12.54</ele>
  <time>2026-09-01T01:13:17Z</time>
  <course>275.27</course>
  <speed>0.0</speed>
  <fix>3d</fix>
</trkpt>
<trkpt lat="33.8103133" lon="-118.3938696">
  <ele>-12.859</ele>
  <time>2026-09-01T01:13:17Z</time>
  <course>187.57</course>
  <speed>0.0282842712474619</speed>
  <fix>3d</fix>
</trkpt>
<trkpt lat="33.8103131" lon="-118.3938695">
  <ele>-12.54</ele>
  <time>2026-09-01T01:13:17Z</time>
  <course>275.27</course>
  <speed>0.0</speed>
  <fix>3d</fix>
</trkpt>
<trkpt lat="33.8103133" lon="-118.3938696">
  <ele>-12.86</ele>
  <time>2026-09-01T01:13:17Z</time>
  <course>187.57</course>
  <speed>0.0282842712474619</speed>
  <fix>3d</fix>
</trkpt>
<trkpt lat="33.8103131" lon="-118.3938695">
  <ele>-12.55</ele>
  <time>2026-09-01T01:13:17Z</time>
  <course>275.27</course>
  <speed>0.0</speed>
  <fix>3d</fix>
</trkpt>
<trkpt lat="33.8103133" lon="-118.3938696">
  <ele>-12.861</ele>
  <time>2026-09-01T01:13:17Z</time>
  <course>187.58</course>
  <speed>0.0282842712474619</speed>
  <fix>3d</fix>
</trkpt>
<trkpt lat="33.8103131" lon="-118.3938695">
  <ele>-12.55</ele>
  <time>2026-09-01T01:13:17Z</time>
  <course>275.27</course>
  <speed>0.0</speed>
  <fix>3d</fix>
</trkpt>
<trkpt lat="33.8103133" lon="-118.3938696">
  <ele>-12.861</ele>
  <time>2026-09-01T01:13:17Z</time>
  <course>187.59</course>
  <speed>0.0282842712474619</speed>
  <fix>3d</fix>
</trkpt>
<trkpt lat="33.8103131" lon="-118.3938695">
  <ele>-12.55</ele>
  <time>2026-09-01T01:13:17Z</time>
  <course>275.28</course>
  <speed>0.0</speed>
  <fix>3d</fix>
</trkpt>
<trkpt lat="33.8103133" lon="-118.3938696">
  <ele>-12.862</ele>
  <time>2026-09-01T01:13:17Z</time>
  <course>187.6</course>
  <speed>0.0282842712474619</speed>
  <fix>3d</fix>
</trkpt>
<trkpt lat="33.8103131" lon="-118.3938695">
  <ele>-12.55</ele>
  <time>2026-09-01T01:13:17Z</time>
  <course>275.28</course>
  <speed>0.0</speed>
  <fix>3d</fix>
</trkpt>
<trkpt lat="33.8103133" lon="-118.3938696">
  <ele>-12.863</ele>
  <time>2026-09-01T01:13:17Z</time>
  <course>187.6</course>
  <speed>0.0282842712474619</speed>
  <fix>3d</fix>
</trkpt>
<trkpt lat="33.8103131" lon="-118.3938695">
  <ele>-12.55</ele>
  <time>2026-09-01T01:13:17Z</time>
  <course>275.27</course>
  <speed>0.0</speed>
  <fix>3d</fix>
</trkpt>
<trkpt lat="33.8103133" lon="-118.3938696">
  <ele>-12.864</ele>
  <time>2026-09-01T01:13:17Z</time>
  <course>187.61</course>
  <speed>0.0282842712474619</speed>
  <fix>3d</fix>
</trkpt>
<trkpt lat="33.8103131" lon="-118.3938695">
  <ele>-12.55</ele>
  <time>2026-09-01T01:13:17Z</time>
  <course>275.27</course>
  <speed>0.0</speed>
  <fix>3d</fix>
</trkpt>
<trkpt lat="33.8103133" lon="-118.3938696">
  <ele>-12.866</ele>
  <time>2026-09-01T01:13:17Z</time>
  <course>187.62</course>
  <speed>0.0282842712474619</speed>
  <fix>3d</fix>
</trkpt>
<trkpt lat="33.8103131" lon="-118.3938695">
  <ele>-12.56</ele>
  <time>2026-09-01T01:13:17Z</time>
  <course>275.27</course>
  <speed>0.0</speed>
  <fix>3d</fix>
</trkpt>
<trkpt lat="33.8103133" lon="-118.3938696">
  <ele>-12.867</ele>
  <time>2026-09-01T01:13:17Z</time>
  <course>187.63</course>
  <speed>0.0282842712474619</speed>
  <fix>3d</fix>
</trkpt>
<trkpt lat="33.8103131" lon="-118.3938695">
  <ele>-12.56</ele>
  <time>2026-09-01T01:13:17Z</time>
  <course>275.27</course>
  <speed>0.0</speed>
  <fix>3d</fix>
</trkpt>
<trkpt lat="33.8103133" lon="-118.3938696">
  <ele>-12.867</ele>
  <time>2026-09-01T01:13:17Z</time>
  <course>187.64</course>
  <speed>0.0282842712474619</speed>
  <fix>3d</fix>
</trkpt>
<trkpt lat="33.8103131" lon="-118.3938695">
  <ele>-12.56</ele>
  <time>2026-09-01T01:13:17Z</time>
  <course>275.26</course>
  <speed>0.0</speed>
  <fix>3d</fix>
</trkpt>
<trkpt lat="33.8103133" lon="-118.3938696">
  <ele>-12.867</ele>
  <time>2026-09-01T01:13:17Z</time>
  <course>187.64</course>
  <speed>0.0282842712474619</speed>
  <fix>3d</fix>
</trkpt>
<trkpt lat="33.8103131" lon="-118.3938695">
  <ele>-12.56</ele>
  <time>2026-09-01T01:13:17Z</time>
  <course>275.26</course>
  <speed>0.0</speed>
  <fix>3d</fix>
</trkpt>
<trkpt lat="33.8103133" lon="-118.3938696">
  <ele>-12.866</ele>
  <time>2026-09-01T01:13:17Z</time>
  <course>187.65</course>
  <speed>0.0282842712474619</speed>
  <fix>3d</fix>
</trkpt>
<trkpt lat="33.8103131" lon="-118.3938695">
  <ele>-12.56</ele>
  <time>2026-09-01T01:13:17Z</time>
  <course>275.25</course>
  <speed>0.0</speed>
  <fix>3d</fix>
</trkpt>
<trkpt lat="33.8103133" lon="-118.3938696">
  <ele>-12.863</ele>
  <time>2026-09-01T01:13:17Z</time>
  <course>187.66</course>
  <speed>0.0282842712474619</speed>
  <fix>3d</fix>
</trkpt>
<trkpt lat="33.8103131" lon="-118.3938695">
  <ele>-12.56</ele>
  <time>2026-09-01T01:13:17Z</time>
  <course>275.25</course>
  <speed>0.0</speed>
  <fix>3d</fix>
</trkpt>
<trkpt lat="33.8103133" lon="-118.3938696">
  <ele>-12.844</ele>
  <time>2026-09-01T01:13:17Z</time>
  <course>187.67</course>
  <speed>0.0282842712474619</speed>
  <fix>3d</fix>
</trkpt>
<trkpt lat="33.8103131" lon="-118.3938695">
  <ele>-12.55</ele>
  <time>2026-09-01T01:13:17Z</time>
  <course>275.19</course>
  <speed>0.0</speed>
  <fix>3d</fix>
</trkpt>
<trkpt lat="33.8103133" lon="-118.3938696">
  <ele>-12.803</ele>
  <time>2026-09-01T01:13:17Z</time>
  <course>187.67</course>
  <speed>0.0282842712474619</speed>
  <fix>3d</fix>
</trkpt>
<trkpt lat="33.8103131" lon="-118.3938695">
  <ele>-12.55</ele>
  <time>2026-09-01T01:13:17Z</time>
  <course>275.19</course>
  <speed>0.0</speed>
  <fix>3d</fix>
</trkpt>
<trkpt lat="33.8103133" lon="-118.3938696">
  <ele>-12.802</ele>
  <time>2026-09-01T01:13:17Z</time>
  <course>187.67</course>
  <speed>0.022360679774997897</speed>
  <fix>3d</fix>
</trkpt>
<trkpt lat="33.8103133" lon="-118.3938696">
  <ele>-12.742</ele>
  <time>2026-09-01T01:13:17Z</time>
  <course>187.68</course>
  <speed>0.022360679774997897</speed>
  <fix>3d</fix>
</trkpt>
<trkpt lat="33.8103131" lon="-118.3938695">
  <ele>-12.51</ele>
  <time>2026-09-01T01:13:17Z</time>
  <course>274.81</course>
  <speed>0.0</speed>
  <fix>3d</fix>
</trkpt>
<trkpt lat="33.8103133" lon="-118.3938696">
  <ele>-12.741</ele>
  <time>2026-09-01T01:13:17Z</time>
  <course>187.68</course>
  <speed>0.022360679774997897</speed>
  <fix>3d</fix>
</trkpt>
<trkpt lat="33.8103133" lon="-118.3938696">
  <ele>-12.66</ele>
  <time>2026-09-01T01:13:17Z</time>
  <course>187.69</course>
  <speed>0.022360679774997897</speed>
  <fix>3d</fix>
</trkpt>
<trkpt lat="33.8103131" lon="-118.3938695">
  <ele>-12.51</ele>
  <time>2026-09-01T01:13:17Z</time>
  <course>274.81</course>
  <speed>0.0</speed>
  <fix>3d</fix>
</trkpt>
<trkpt lat="33.8103133" lon="-118.3938696">
  <ele>-12.617</ele>
  <time>2026-09-01T01:13:17Z</time>
  <course>187.69</course>
  <speed>0.022360679774997897</speed>
  <fix>3d</fix>
</trkpt>
<trkpt lat="33.8103133" lon="-118.3938696">
  <ele>-12.558</ele>
  <time>2026-09-01T01:13:17Z</time>
  <course>187.7</course>
  <speed>0.022360679774997897</speed>
  <fix>3d</fix>
</trkpt>
<trkpt lat="33.8103131" lon="-118.3938695">
  <ele>-12.4</ele>
  <time>2026-09-01T01:13:17Z</time>
  <course>272.93</course>
  <speed>0.0</speed>
  <fix>3d</fix>
</trkpt>
<trkpt lat="33.8103133" lon="-118.3938696">
  <ele>-12.509</ele>
  <time>2026-09-01T01:13:17Z</time>
  <course>187.7</course>
  <speed>0.022360679774997897</speed>
  <fix>3d</fix>
</trkpt>
<trkpt lat="33.8103133" lon="-118.3938696">
  <ele>-12.438</ele>
  <time>2026-09-01T01:13:17Z</time>
  <course>187.7</course>
  <speed>0.022360679774997897</speed>
  <fix>3d</fix>
</trkpt>
<trkpt lat="33.8103131" lon="-118.3938695">
  <ele>-12.4</ele>
  <time>2026-09-01T01:13:17Z</time>
  <course>272.93</course>
  <speed>0.0</speed>
  <fix>3d</fix>
</trkpt>
<trkpt lat="33.8103133" lon="-118.3938696">
  <ele>-12.384</ele>
  <time>2026-09-01T01:13:17Z</time>
  <course>187.71</course>
  <speed>0.022360679774997897</speed>
  <fix>3d</fix>
</trkpt>
<trkpt lat="33.8103133" lon="-118.3938696">
  <ele>-12.311</ele>
  <time>2026-09-01T01:13:17Z</time>
  <course>187.71</course>
  <speed>0.022360679774997897</speed>
  <fix>3d</fix>
</trkpt>
<trkpt lat="33.8103131" lon="-118.3938695">
  <ele>-12.21</ele>
  <time>2026-09-01T01:13:17Z</time>
  <course>132.3</course>
  <speed>0.0</speed>
  <fix>3d</fix>
</trkpt>
<trkpt lat="33.8103133" lon="-118.3938696">
  <ele>-12.256</ele>
  <time>2026-09-01T01:13:17Z</time>
  <course>187.72</course>
  <speed>0.022360679774997897</speed>
  <fix>3d</fix>
</trkpt>
<trkpt lat="33.8103133" lon="-118.3938696">
  <ele>-12.181</ele>
  <time>2026-09-01T01:13:17Z</time>
  <course>187.72</course>
  <speed>0.022360679774997897</speed>
  <fix>3d</fix>
</trkpt>
<trkpt lat="33.8103131" lon="-118.3938695">
  <ele>-12.21</ele>
  <time>2026-09-01T01:13:17Z</time>
  <course>132.3</course>
  <speed>0.0</speed>
  <fix>3d</fix>
</trkpt>
<trkpt lat="33.8103133" lon="-118.3938696">
  <ele>-12.125</ele>
  <time>2026-09-01T01:13:17Z</time>
  <course>187.72</course>
  <speed>0.022360679774997897</speed>
  <fix>3d</fix>
</trkpt>
<trkpt lat="33.8103133" lon="-118.3938696">
  <ele>-12.049</ele>
  <time>2026-09-01T01:13:17Z</time>
  <course>187.73</course>
  <speed>0.022360679774997897</speed>
  <fix>3d</fix>
</trkpt>
<trkpt lat="33.8103131" lon="-118.3938695">
  <ele>-11.99</ele>
  <time>2026-09-01T01:13:17Z</time>
  <course>102.7</course>
  <speed>0.0</speed>
  <fix>3d</fix>
</trkpt>
<trkpt lat="33.8103133" lon="-118.3938696">
  <ele>-11.993</ele>
  <time>2026-09-01T01:13:17Z</time>
  <course>187.73</course>
  <speed>0.022360679774997897</speed>
  <fix>3d</fix>
</trkpt>
<trkpt lat="33.8103133" lon="-118.3938696">
  <ele>-11.917</ele>
  <time>2026-09-01T01:13:17Z</time>
  <course>187.74</course>
  <speed>0.022360679774997897</speed>
  <fix>3d</fix>
</trkpt>
<trkpt lat="33.8103131" lon="-118.3938695">
  <ele>-11.99</ele>
  <time>2026-09-01T01:13:17Z</time>
  <course>102.7</course>
  <speed>0.0</speed>
  <fix>3d</fix>
</trkpt>
<trkpt lat="33.8103133" lon="-118.3938696">
  <ele>-11.859</ele>
  <time>2026-09-01T01:13:17Z</time>
  <course>187.74</course>
  <speed>0.022360679774997897</speed>
  <fix>3d</fix>
</trkpt>
<trkpt lat="33.8103133" lon="-118.3938696">
  <ele>-11.783</ele>
  <time>2026-09-01T01:13:17Z</time>
  <course>187.74</course>
  <speed>0.022360679774997897</speed>
  <fix>3d</fix>
</trkpt>
<trkpt lat="33.8103131" lon="-118.3938695">
  <ele>-11.74</ele>
  <time>2026-09-01T01:13:17Z</time>
  <course>102.56</course>
  <speed>0.0</speed>
  <fix>3d</fix>
</trkpt>
<trkpt lat="33.8103133" lon="-118.3938696">
  <ele>-11.726</ele>
  <time>2026-09-01T01:13:17Z</time>
  <course>187.75</course>
  <speed>0.022360679774997897</speed>
  <fix>3d</fix>
</trkpt>
<trkpt lat="33.8103133" lon="-118.3938696">
  <ele>-11.65</ele>
  <time>2026-09-01T01:13:17Z</time>
  <course>187.75</course>
  <speed>0.022360679774997897</speed>
  <fix>3d</fix>
</trkpt>
<trkpt lat="33.8103131" lon="-118.3938695">
  <ele>-11.74</ele>
  <time>2026-09-01T01:13:17Z</time>
  <course>102.56</course>
  <speed>0.0</speed>
  <fix>3d</fix>
</trkpt>
<trkpt lat="33.8103133" lon="-118.3938696">
  <ele>-11.592</ele>
  <time>2026-09-01T01:13:17Z</time>
  <course>187.75</course>
  <speed>0.022360679774997897</speed>
  <fix>3d</fix>
</trkpt>
<trkpt lat="33.8103133" lon="-118.3938696">
  <ele>-11.516</ele>
  <time>2026-09-01T01:13:17Z</time>
  <course>187.76</course>
  <speed>0.022360679774997897</speed>
  <fix>3d</fix>
</trkpt>
<trkpt lat="33.8103131" lon="-118.3938695">
  <ele>-11.5</ele>
  <time>2026-09-01T01:13:17Z</time>
  <course>102.72</course>
  <speed>0.0</speed>
  <fix>3d</fix>
</trkpt>
<trkpt lat="33.8103133" lon="-118.3938696">
  <ele>-11.46</ele>
  <time>2026-09-01T01:13:17Z</time>
  <course>187.76</course>
  <speed>0.022360679774997897</speed>
  <fix>3d</fix>
</trkpt>
<trkpt lat="33.8103133" lon="-118.3938696">
  <ele>-11.382</ele>
  <time>2026-09-01T01:13:17Z</time>
  <course>187.76</course>
  <speed>0.022360679774997897</speed>
  <fix>3d</fix>
</trkpt>
<trkpt lat="33.8103131" lon="-118.3938695">
  <ele>-11.5</ele>
  <time>2026-09-01T01:13:17Z</time>
  <course>102.72</course>
  <speed>0.0</speed>
  <fix>3d</fix>
</trkpt>
<trkpt lat="33.8103133" lon="-118.3938696">
  <ele>-11.379</ele>
  <time>2026-09-01T01:13:17Z</time>
  <course>187.77</course>
  <speed>0.022360679774997897</speed>
  <fix>3d</fix>
</trkpt>
<trkpt lat="33.8103133" lon="-118.3938696">
  <ele>-11.25</ele>
  <time>2026-09-01T01:13:17Z</time>
  <course>187.77</course>
  <speed>0.022360679774997897</speed>
  <fix>3d</fix>
</trkpt>
<trkpt lat="33.8103131" lon="-118.3938695">
  <ele>-11.25</ele>
  <time>2026-09-01T01:13:17Z</time>
  <course>102.9</course>
  <speed>0.0</speed>
  <fix>3d</fix>
</trkpt>
<trkpt lat="33.8103133" lon="-118.3938696">
  <ele>-11.194</ele>
  <time>2026-09-01T01:13:17Z</time>
  <course>187.78</course>
  <speed>0.022360679774997897</speed>
  <fix>3d</fix>
</trkpt>
<trkpt lat="33.8103133" lon="-118.3938696">
  <ele>-11.118</ele>
  <time>2026-09-01T01:13:17Z</time>
  <course>187.78</course>
  <speed>0.022360679774997897</speed>
  <fix>3d</fix>
</trkpt>
<trkpt lat="33.8103131" lon="-118.3938695">
  <ele>-11.25</ele>
  <time>2026-09-01T01:13:17Z</time>
  <course>102.9</course>
  <speed>0.0</speed>
  <fix>3d</fix>
</trkpt>
<trkpt lat="33.8103133" lon="-118.3938696">
  <ele>-11.063</ele>
  <time>2026-09-01T01:13:17Z</time>
  <course>187.78</course>
  <speed>0.022360679774997897</speed>
  <fix>3d</fix>
</trkpt>
<trkpt lat="33.8103133" lon="-118.3938696">
  <ele>-10.987</ele>
  <time>2026-09-01T01:13:17Z</time>
  <course>187.79</course>
  <speed>0.022360679774997897</speed>
  <fix>3d</fix>
</trkpt>
<trkpt lat="33.8103131" lon="-118.3938695">
  <ele>-11.01</ele>
  <time>2026-09-01T01:13:17Z</time>
  <course>103.09</course>
  <speed>0.0</speed>
  <fix>3d</fix>
</trkpt>
<trkpt lat="33.8103133" lon="-118.3938696">
  <ele>-10.932</ele>
  <time>2026-09-01T01:13:17Z</time>
  <course>187.79</course>
  <speed>0.022360679774997897</speed>
  <fix>3d</fix>
</trkpt>
<trkpt lat="33.8103133" lon="-118.3938696">
  <ele>-10.858</ele>
  <time>2026-09-01T01:13:17Z</time>
  <course>187.79</course>
  <speed>0.022360679774997897</speed>
  <fix>3d</fix>
</trkpt>
<trkpt lat="33.8103131" lon="-118.3938695">
  <ele>-11.01</ele>
  <time>2026-09-01T01:13:17Z</time>
  <course>103.09</course>
  <speed>0.0</speed>
  <fix>3d</fix>
</trkpt>
<trkpt lat="33.8103133" lon="-118.3938696">
  <ele>-10.803</ele>
  <time>2026-09-01T01:13:17Z</time>
  <course>187.8</course>
  <speed>0.022360679774997897</speed>
  <fix>3d</fix>
</trkpt>
<trkpt lat="33.8103133" lon="-118.3938696">
  <ele>-10.729</ele>
  <time>2026-09-01T01:13:17Z</time>
  <course>187.8</course>
  <speed>0.022360679774997897</speed>
  <fix>3d</fix>
</trkpt>
<trkpt lat="33.8103131" lon="-118.3938695">
  <ele>-10.76</ele>
  <time>2026-09-01T01:13:17Z</time>
  <course>103.29</course>
  <speed>0.0</speed>
  <fix>3d</fix>
</trkpt>
<trkpt lat="33.8103133" lon="-118.3938696">
  <ele>-10.674</ele>
  <time>2026-09-01T01:13:17Z</time>
  <course>187.8</course>
  <speed>0.022360679774997897</speed>
  <fix>3d</fix>
</trkpt>
<trkpt lat="33.8103133" lon="-118.3938696">
  <ele>-10.6</ele>
  <time>2026-09-01T01:13:17Z</time>
  <course>187.81</course>
  <speed>0.022360679774997897</speed>
  <fix>3d</fix>
</trkpt>
<trkpt lat="33.8103131" lon="-118.3938695">
  <ele>-10.76</ele>
  <time>2026-09-01T01:13:17Z</time>
  <course>103.29</course>
  <speed>0.0</speed>
  <fix>3d</fix>
</trkpt>
<trkpt lat="33.8103133" lon="-118.3938696">
  <ele>-10.546</ele>
  <time>2026-09-01T01:13:17Z</time>
  <course>187.81</course>
  <speed>0.022360679774997897</speed>
  <fix>3d</fix>
</trkpt>
<trkpt lat="33.8103133" lon="-118.3938696">
  <ele>-10.473</ele>
  <time>2026-09-01T01:13:17Z</time>
  <course>187.82</course>
  <speed>0.022360679774997897</speed>
  <fix>3d</fix>
</trkpt>
<trkpt lat="33.8103131" lon="-118.3938695">
  <ele>-10.52</ele>
  <time>2026-09-01T01:13:17Z</time>
  <course>103.5</course>
  <speed>0.0</speed>
  <fix>3d</fix>
</trkpt>
<trkpt lat="33.8103133" lon="-118.3938696">
  <ele>-10.458</ele>
  <time>2026-09-01T01:13:17Z</time>
  <course>187.82</course>
  <speed>0.022360679774997897</speed>
  <fix>3d</fix>
</trkpt>
<trkpt lat="33.8103133" lon="-118.3938696">
  <ele>-10.345</ele>
  <time>2026-09-01T01:13:17Z</time>
  <course>187.82</course>
  <speed>0.022360679774997897</speed>
  <fix>3d</fix>
</trkpt>
<trkpt lat="33.8103131" lon="-118.3938695">
  <ele>-10.52</ele>
  <time>2026-09-01T01:13:17Z</time>
  <course>103.5</course>
  <speed>0.0</speed>
  <fix>3d</fix>
</trkpt>
<trkpt lat="33.8103133" lon="-118.3938696">
  <ele>-10.291</ele>
  <time>2026-09-01T01:13:17Z</time>
  <course>187.83</course>
  <speed>0.022360679774997897</speed>
  <fix>3d</fix>
</trkpt>
<trkpt lat="33.8103133" lon="-118.3938696">
  <ele>-10.216</ele>
  <time>2026-09-01T01:13:17Z</time>
  <course>187.83</course>
  <speed>0.022360679774997897</speed>
  <fix>3d</fix>
</trkpt>
<trkpt lat="33.8103131" lon="-118.3938695">
  <ele>-10.27</ele>
  <time>2026-09-01T01:13:17Z</time>
  <course>103.71</course>
  <speed>0.0</speed>
  <fix>3d</fix>
</trkpt>
<trkpt lat="33.8103133" lon="-118.3938696">
  <ele>-10.162</ele>
  <time>2026-09-01T01:13:17Z</time>
  <course>187.83</course>
  <speed>0.022360679774997897</speed>
  <fix>3d</fix>
</trkpt>
<trkpt lat="33.8103133" lon="-118.3938696">
  <ele>-10.088</ele>
  <time>2026-09-01T01:13:17Z</time>
  <course>187.84</course>
  <speed>0.022360679774997897</speed>
  <fix>3d</fix>
</trkpt>
<trkpt lat="33.8103131" lon="-118.3938695">
  <ele>-10.27</ele>
  <time>2026-09-01T01:13:17Z</time>
  <course>103.71</course>
  <speed>0.0</speed>
  <fix>3d</fix>
</trkpt>
<trkpt lat="33.8103133" lon="-118.3938696">
  <ele>-10.03</ele>
  <time>2026-09-01T01:13:17Z</time>
  <course>187.84</course>
  <speed>0.022360679774997897</speed>
  <fix>3d</fix>
</trkpt>
<trkpt lat="33.8103133" lon="-118.3938696">
  <ele>-9.96</ele>
  <time>2026-09-01T01:13:17Z</time>
  <course>187.84</course>
  <speed>0.022360679774997897</speed>
  <fix>3d</fix>
</trkpt>
<trkpt lat="33.8103131" lon="-118.3938695">
  <ele>-10.03</ele>
  <time>2026-09-01T01:13:17Z</time>
  <course>103.94</course>
  <speed>0.0</speed>
  <fix>3d</fix>
</trkpt>
<trkpt lat="33.8103133" lon="-118.3938696">
  <ele>-9.833</ele>
  <time>2026-09-01T01:13:17Z</time>
  <course>187.85</course>
  <speed>0.022360679774997897</speed>
  <fix>3d</fix>
</trkpt>
<trkpt lat="33.8103131" lon="-118.3938695">
  <ele>-10.03</ele>
  <time>2026-09-01T01:13:17Z</time>
  <course>103.94</course>
  <speed>0.0</speed>
  <fix>3d</fix>
</trkpt>
<trkpt lat="33.8103133" lon="-118.3938696">
  <ele>-9.83</ele>
  <time>2026-09-01T01:13:17Z</time>
  <course>187.85</course>
  <speed>0.022360679774997897</speed>
  <fix>3d</fix>
</trkpt>
<trkpt lat="33.8103133" lon="-118.3938696">
  <ele>-9.706</ele>
  <time>2026-09-01T01:13:17Z</time>
  <course>187.86</course>
  <speed>0.022360679774997897</speed>
  <fix>3d</fix>
</trkpt>
<trkpt lat="33.8103131" lon="-118.3938695">
  <ele>-9.78</ele>
  <time>2026-09-01T01:13:17Z</time>
  <course>104.17</course>
  <speed>0.0</speed>
  <fix>3d</fix>
</trkpt>
<trkpt lat="33.8103133" lon="-118.3938696">
  <ele>-9.646</ele>
  <time>2026-09-01T01:13:17Z</time>
  <course>187.86</course>
  <speed>0.022360679774997897</speed>
  <fix>3d</fix>
</trkpt>
<trkpt lat="33.8103133" lon="-118.3938696">
  <ele>-9.58</ele>
  <time>2026-09-01T01:13:17Z</time>
  <course>187.86</course>
  <speed>0.022360679774997897</speed>
  <fix>3d</fix>
</trkpt>
<trkpt lat="33.8103131" lon="-118.3938695">
  <ele>-9.78</ele>
  <time>2026-09-01T01:13:17Z</time>
  <course>104.17</course>
  <speed>0.0</speed>
  <fix>3d</fix>
</trkpt>
<trkpt lat="33.8103133" lon="-118.3938696">
  <ele>-9.523</ele>
  <time>2026-09-01T01:13:17Z</time>
  <course>187.87</course>
  <speed>0.022360679774997897</speed>
  <fix>3d</fix>
</trkpt>
<trkpt lat="33.8103133" lon="-118.3938696">
  <ele>-9.454</ele>
  <time>2026-09-01T01:13:17Z</time>
  <course>187.87</course>
  <speed>0.022360679774997897</speed>
  <fix>3d</fix>
</trkpt>
<trkpt lat="33.8103131" lon="-118.3938695">
  <ele>-9.54</ele>
  <time>2026-09-01T01:13:17Z</time>
  <course>104.43</course>
  <speed>0.0</speed>
  <fix>3d</fix>
</trkpt>
<trkpt lat="33.8103133" lon="-118.3938696">
  <ele>-9.401</ele>
  <time>2026-09-01T01:13:17Z</time>
  <course>187.87</course>
  <speed>0.022360679774997897</speed>
  <fix>3d</fix>
</trkpt>
<trkpt lat="33.8103133" lon="-118.3938696">
  <ele>-9.329</ele>
  <time>2026-09-01T01:13:17Z</time>
  <course>187.88</course>
  <speed>0.022360679774997897</speed>
  <fix>3d</fix>
</trkpt>
<trkpt lat="33.8103131" lon="-118.3938695">
  <ele>-9.54</ele>
  <time>2026-09-01T01:13:17Z</time>
  <course>104.43</course>
  <speed>0.0</speed>
  <fix>3d</fix>
</trkpt>
<trkpt lat="33.8103133" lon="-118.3938696">
  <ele>-9.272</ele>
  <time>2026-09-01T01:13:17Z</time>
  <course>187.88</course>
  <speed>0.022360679774997897</speed>
  <fix>3d</fix>
</trkpt>
<trkpt lat="33.8103133" lon="-118.3938696">
  <ele>-9.204</ele>
  <time>2026-09-01T01:13:17Z</time>
  <course>187.88</course>
  <speed>0.022360679774997897</speed>
  <fix>3d</fix>
</trkpt>
<trkpt lat="33.8103131" lon="-118.3938695">
  <ele>-9.29</ele>
  <time>2026-09-01T01:13:17Z</time>
  <course>104.69</course>
  <speed>0.0</speed>
  <fix>3d</fix>
</trkpt>
<trkpt lat="33.8103133" lon="-118.3938696">
  <ele>-9.151</ele>
  <time>2026-09-01T01:13:17Z</time>
  <course>187.89</course>
  <speed>0.022360679774997897</speed>
  <fix>3d</fix>
</trkpt>
<trkpt lat="33.8103133" lon="-118.3938696">
  <ele>-9.079</ele>
  <time>2026-09-01T01:13:17Z</time>
  <course>187.89</course>
  <speed>0.022360679774997897</speed>
  <fix>3d</fix>
</trkpt>
<trkpt lat="33.8103131" lon="-118.3938695">
  <ele>-9.29</ele>
  <time>2026-09-01T01:13:17Z</time>
  <course>104.69</course>
  <speed>0.0</speed>
  <fix>3d</fix>
</trkpt>
<trkpt lat="33.8103133" lon="-118.3938696">
  <ele>-9.026</ele>
  <time>2026-09-01T01:13:17Z</time>
  <course>187.89</course>
  <speed>0.022360679774997897</speed>
  <fix>3d</fix>
</trkpt>
<trkpt lat="33.8103133" lon="-118.3938696">
  <ele>-8.955</ele>
  <time>2026-09-01T01:13:17Z</time>
  <course>187.9</course>
  <speed>0.022360679774997897</speed>
  <fix>3d</fix>
</trkpt>
<trkpt lat="33.8103131" lon="-118.3938695">
  <ele>-9.05</ele>
  <time>2026-09-01T01:13:17Z</time>
  <course>104.98</course>
  <speed>0.0</speed>
  <fix>3d</fix>
</trkpt>
<trkpt lat="33.8103133" lon="-118.3938696">
  <ele>-8.898</ele>
  <time>2026-09-01T01:13:17Z</time>
  <course>187.9</course>
  <speed>0.022360679774997897</speed>
  <fix>3d</fix>
</trkpt>
<trkpt lat="33.8103133" lon="-118.3938696">
  <ele>-8.83</ele>
  <time>2026-09-01T01:13:17Z</time>
  <course>187.9</course>
  <speed>0.022360679774997897</speed>
  <fix>3d</fix>
</trkpt>
<trkpt lat="33.8103131" lon="-118.3938695">
  <ele>-9.05</ele>
  <time>2026-09-01T01:13:17Z</time>
  <course>104.98</course>
  <speed>0.0</speed>
  <fix>3d</fix>
</trkpt>
<trkpt lat="33.8103133" lon="-118.3938696">
  <ele>-8.773</ele>
  <time>2026-09-01T01:13:17Z</time>
  <course>187.9</course>
  <speed>0.022360679774997897</speed>
  <fix>3d</fix>
</trkpt>
<trkpt lat="33.8103133" lon="-118.3938696">
  <ele>-8.706</ele>
  <time>2026-09-01T01:13:17Z</time>
  <course>187.91</course>
  <speed>0.022360679774997897</speed>
  <fix>3d</fix>
</trkpt>
<trkpt lat="33.8103131" lon="-118.3938695">
  <ele>-8.8</ele>
  <time>2026-09-01T01:13:17Z</time>
  <course>105.28</course>
  <speed>0.0</speed>
  <fix>3d</fix>
</trkpt>
<trkpt lat="33.8103133" lon="-118.3938696">
  <ele>-8.702</ele>
  <time>2026-09-01T01:13:17Z</time>
  <course>187.91</course>
  <speed>0.022360679774997897</speed>
  <fix>3d</fix>
</trkpt>
<trkpt lat="33.8103133" lon="-118.3938696">
  <ele>-8.583</ele>
  <time>2026-09-01T01:13:17Z</time>
  <course>187.91</course>
  <speed>0.022360679774997897</speed>
  <fix>3d</fix>
</trkpt>
<trkpt lat="33.8103131" lon="-118.3938695">
  <ele>-8.8</ele>
  <time>2026-09-01T01:13:17Z</time>
  <course>105.28</course>
  <speed>0.0</speed>
  <fix>3d</fix>
</trkpt>
<trkpt lat="33.8103133" lon="-118.3938696">
  <ele>-8.531</ele>
  <time>2026-09-01T01:13:17Z</time>
  <course>187.92</course>
  <speed>0.022360679774997897</speed>
  <fix>3d</fix>
</trkpt>
<trkpt lat="33.8103133" lon="-118.3938696">
  <ele>-8.461</ele>
  <time>2026-09-01T01:13:17Z</time>
  <course>187.92</course>
  <speed>0.022360679774997897</speed>
  <fix>3d</fix>
</trkpt>
<trkpt lat="33.8103131" lon="-118.3938695">
  <ele>-8.55</ele>
  <time>2026-09-01T01:13:17Z</time>
  <course>105.59</course>
  <speed>0.0</speed>
  <fix>3d</fix>
</trkpt>
<trkpt lat="33.8103133" lon="-118.3938696">
  <ele>-8.406</ele>
  <time>2026-09-01T01:13:17Z</time>
  <course>187.92</course>
  <speed>0.022360679774997897</speed>
  <fix>3d</fix>
</trkpt>
<trkpt lat="33.8103133" lon="-118.3938696">
  <ele>-8.34</ele>
  <time>2026-09-01T01:13:17Z</time>
  <course>187.93</course>
  <speed>0.022360679774997897</speed>
  <fix>3d</fix>
</trkpt>
<trkpt lat="33.8103131" lon="-118.3938695">
  <ele>-8.55</ele>
  <time>2026-09-01T01:13:17Z</time>
  <course>105.59</course>
  <speed>0.0</speed>
  <fix>3d</fix>
</trkpt>
<trkpt lat="33.8103133" lon="-118.3938696">
  <ele>-8.285</ele>
  <time>2026-09-01T01:13:17Z</time>
  <course>187.93</course>
  <speed>0.022360679774997897</speed>
  <fix>3d</fix>
</trkpt>
<trkpt lat="33.8103133" lon="-118.3938696">
  <ele>-8.22</ele>
  <time>2026-09-01T01:13:17Z</time>
  <course>187.93</course>
  <speed>0.022360679774997897</speed>
  <fix>3d</fix>
</trkpt>
<trkpt lat="33.8103131" lon="-118.3938695">
  <ele>-8.31</ele>
  <time>2026-09-01T01:13:17Z</time>
  <course>105.93</course>
  <speed>0.0</speed>
  <fix>3d</fix>
</trkpt>
<trkpt lat="33.8103133" lon="-118.3938696">
  <ele>-8.169</ele>
  <time>2026-09-01T01:13:17Z</time>
  <course>187.93</course>
  <speed>0.022360679774997897</speed>
  <fix>3d</fix>
</trkpt>
<trkpt lat="33.8103133" lon="-118.3938696">
  <ele>-8.101</ele>
  <time>2026-09-01T01:13:17Z</time>
  <course>187.94</course>
  <speed>0.022360679774997897</speed>
  <fix>3d</fix>
</trkpt>
<trkpt lat="33.8103131" lon="-118.3938695">
  <ele>-8.31</ele>
  <time>2026-09-01T01:13:17Z</time>
  <course>105.93</course>
  <speed>0.0</speed>
  <fix>3d</fix>
</trkpt>
<trkpt lat="33.8103133" lon="-118.3938696">
  <ele>-8.047</ele>
  <time>2026-09-01T01:13:17Z</time>
  <course>187.94</course>
  <speed>0.022360679774997897</speed>
  <fix>3d</fix>
</trkpt>
<trkpt lat="33.8103133" lon="-118.3938696">
  <ele>-7.981</ele>
  <time>2026-09-01T01:13:17Z</time>
  <course>187.94</course>
  <speed>0.022360679774997897</speed>
  <fix>3d</fix>
</trkpt>
<trkpt lat="33.8103131" lon="-118.3938695">
  <ele>-8.06</ele>
  <time>2026-09-01T01:13:17Z</time>
  <course>106.28</course>
  <speed>0.0</speed>
  <fix>3d</fix>
</trkpt>
<trkpt lat="33.8103133" lon="-118.3938696">
  <ele>-7.931</ele>
  <time>2026-09-01T01:13:17Z</time>
  <course>187.95</course>
  <speed>0.022360679774997897</speed>
  <fix>3d</fix>
</trkpt>
<trkpt lat="33.8103133" lon="-118.3938696">
  <ele>-7.861</ele>
  <time>2026-09-01T01:13:17Z</time>
  <course>187.95</course>
  <speed>0.022360679774997897</speed>
  <fix>3d</fix>
</trkpt>
<trkpt lat="33.8103131" lon="-118.3938695">
  <ele>-8.06</ele>
  <time>2026-09-01T01:13:17Z</time>
  <course>106.28</course>
  <speed>0.0</speed>
  <fix>3d</fix>
</trkpt>
<trkpt lat="33.8103133" lon="-118.3938696">
  <ele>-7.81</ele>
  <time>2026-09-01T01:13:17Z</time>
  <course>187.95</course>
  <speed>0.022360679774997897</speed>
  <fix>3d</fix>
</trkpt>
<trkpt lat="33.8103133" lon="-118.3938696">
  <ele>-7.739</ele>
  <time>2026-09-01T01:13:17Z</time>
  <course>187.96</course>
  <speed>0.022360679774997897</speed>
  <fix>3d</fix>
</trkpt>
<trkpt lat="33.8103131" lon="-118.3938695">
  <ele>-7.82</ele>
  <time>2026-09-01T01:13:17Z</time>
  <course>106.66</course>
  <speed>0.0</speed>
  <fix>3d</fix>
</trkpt>
<trkpt lat="33.8103133" lon="-118.3938696">
  <ele>-7.683</ele>
  <time>2026-09-01T01:13:17Z</time>
  <course>187.96</course>
  <speed>0.022360679774997897</speed>
  <fix>3d</fix>
</trkpt>
<trkpt lat="33.8103133" lon="-118.3938696">
  <ele>-7.616</ele>
  <time>2026-09-01T01:13:17Z</time>
  <course>187.96</course>
  <speed>0.022360679774997897</speed>
  <fix>3d</fix>
</trkpt>
<trkpt lat="33.8103131" lon="-118.3938695">
  <ele>-7.82</ele>
  <time>2026-09-01T01:13:17Z</time>
  <course>106.66</course>
  <speed>0.0</speed>
  <fix>3d</fix>
</trkpt>
<trkpt lat="33.8103133" lon="-118.3938696">
  <ele>-7.56</ele>
  <time>2026-09-01T01:13:17Z</time>
  <course>187.96</course>
  <speed>0.022360679774997897</speed>
  <fix>3d</fix>
</trkpt>
<trkpt lat="33.8103133" lon="-118.3938696">
  <ele>-7.492</ele>
  <time>2026-09-01T01:13:17Z</time>
  <course>187.97</course>
  <speed>0.022360679774997897</speed>
  <fix>3d</fix>
</trkpt>
<trkpt lat="33.8103131" lon="-118.3938695">
  <ele>-7.58</ele>
  <time>2026-09-01T01:13:17Z</time>
  <course>107.07</course>
  <speed>0.0</speed>
  <fix>3d</fix>
</trkpt>
<trkpt lat="33.8103133" lon="-118.3938696">
  <ele>-7.44</ele>
  <time>2026-09-01T01:13:17Z</time>
  <course>187.97</course>
  <speed>0.022360679774997897</speed>
  <fix>3d</fix>
</trkpt>
<trkpt lat="33.8103133" lon="-118.3938696">
  <ele>-7.368</ele>
  <time>2026-09-01T01:13:17Z</time>
  <course>187.97</course>
  <speed>0.022360679774997897</speed>
  <fix>3d</fix>
</trkpt>
<trkpt lat="33.8103131" lon="-118.3938695">
  <ele>-7.58</ele>
  <time>2026-09-01T01:13:17Z</time>
  <course>107.07</course>
  <speed>0.0</speed>
  <fix>3d</fix>
</trkpt>
<trkpt lat="33.8103133" lon="-118.3938696">
  <ele>-7.362</ele>
  <time>2026-09-01T01:13:17Z</time>
  <course>187.97</course>
  <speed>0.022360679774997897</speed>
  <fix>3d</fix>
</trkpt>
<trkpt lat="33.8103133" lon="-118.3938696">
  <ele>-7.244</ele>
  <time>2026-09-01T01:13:17Z</time>
  <course>187.98</course>
  <speed>0.022360679774997897</speed>
  <fix>3d</fix>
</trkpt>
<trkpt lat="33.8103131" lon="-118.3938695">
  <ele>-7.33</ele>
  <time>2026-09-01T01:13:17Z</time>
  <course>107.51</course>
  <speed>0.0</speed>
  <fix>3d</fix>
</trkpt>
<trkpt lat="33.8103133" lon="-118.3938696">
  <ele>-7.188</ele>
  <time>2026-09-01T01:13:17Z</time>
  <course>187.98</course>
  <speed>0.022360679774997897</speed>
  <fix>3d</fix>
</trkpt>
<trkpt lat="33.8103133" lon="-118.3938696">
  <ele>-7.12</ele>
  <time>2026-09-01T01:13:17Z</time>
  <course>187.98</course>
  <speed>0.022360679774997897</speed>
  <fix>3d</fix>
</trkpt>
<trkpt lat="33.8103131" lon="-118.3938695">
  <ele>-7.33</ele>
  <time>2026-09-01T01:13:17Z</time>
  <course>107.51</course>
  <speed>0.0</speed>
  <fix>3d</fix>
</trkpt>
<trkpt lat="33.8103133" lon="-118.3938696">
  <ele>-7.067</ele>
  <time>2026-09-01T01:13:17Z</time>
  <course>187.99</course>
  <speed>0.022360679774997897</speed>
  <fix>3d</fix>
</trkpt>
<trkpt lat="33.8103133" lon="-118.3938696">
  <ele>-6.996</ele>
  <time>2026-09-01T01:13:17Z</time>
  <course>187.99</course>
  <speed>0.022360679774997897</speed>
  <fix>3d</fix>
</trkpt>
<trkpt lat="33.8103131" lon="-118.3938695">
  <ele>-7.09</ele>
  <time>2026-09-01T01:13:17Z</time>
  <course>107.98</course>
  <speed>0.0</speed>
  <fix>3d</fix>
</trkpt>
<trkpt lat="33.8103133" lon="-118.3938696">
  <ele>-6.944</ele>
  <time>2026-09-01T01:13:17Z</time>
  <course>187.99</course>
  <speed>0.022360679774997897</speed>
  <fix>3d</fix>
</trkpt>
<trkpt lat="33.8103133" lon="-118.3938696">
  <ele>-6.873</ele>
  <time>2026-09-01T01:13:17Z</time>
  <course>187.99</course>
  <speed>0.022360679774997897</speed>
  <fix>3d</fix>
</trkpt>
<trkpt lat="33.8103131" lon="-118.3938695">
  <ele>-7.09</ele>
  <time>2026-09-01T01:13:17Z</time>
  <course>107.98</course>
  <speed>0.0</speed>
  <fix>3d</fix>
</trkpt>
<trkpt lat="33.8103133" lon="-118.3938696">
  <ele>-6.817</ele>
  <time>2026-09-01T01:13:17Z</time>
  <course>188.0</course>
  <speed>0.022360679774997897</speed>
  <fix>3d</fix>
</trkpt>
<trkpt lat="33.8103133" lon="-118.3938696">
  <ele>-6.749</ele>
  <time>2026-09-01T01:13:17Z</time>
  <course>188.0</course>
  <speed>0.022360679774997897</speed>
  <fix>3d</fix>
</trkpt>
<trkpt lat="33.8103131" lon="-118.3938695">
  <ele>-6.84</ele>
  <time>2026-09-01T01:13:17Z</time>
  <course>108.48</course>
  <speed>0.0</speed>
  <fix>3d</fix>
</trkpt>
<trkpt lat="33.8103133" lon="-118.3938696">
  <ele>-6.696</ele>
  <time>2026-09-01T01:13:17Z</time>
  <course>188.0</course>
  <speed>0.022360679774997897</speed>
  <fix>3d</fix>
</trkpt>
<trkpt lat="33.8103133" lon="-118.3938696">
  <ele>-6.626</ele>
  <time>2026-09-01T01:13:17Z</time>
  <course>188.0</course>
  <speed>0.022360679774997897</speed>
  <fix>3d</fix>
</trkpt>
<trkpt lat="33.8103131" lon="-118.3938695">
  <ele>-6.84</ele>
  <time>2026-09-01T01:13:17Z</time>
  <course>108.48</course>
  <speed>0.0</speed>
  <fix>3d</fix>
</trkpt>
<trkpt lat="33.8103133" lon="-118.3938696">
  <ele>-6.573</ele>
  <time>2026-09-01T01:13:17Z</time>
  <course>188.01</course>
  <speed>0.022360679774997897</speed>
  <fix>3d</fix>
</trkpt>
<trkpt lat="33.8103133" lon="-118.3938696">
  <ele>-6.502</ele>
  <time>2026-09-01T01:13:17Z</time>
  <course>188.01</course>
  <speed>0.022360679774997897</speed>
  <fix>3d</fix>
</trkpt>
<trkpt lat="33.8103131" lon="-118.3938695">
  <ele>-6.6</ele>
  <time>2026-09-01T01:13:17Z</time>
  <course>109.02</course>
  <speed>0.0</speed>
  <fix>3d</fix>
</trkpt>
<trkpt lat="33.8103133" lon="-118.3938696">
  <ele>-6.446</ele>
  <time>2026-09-01T01:13:17Z</time>
  <course>188.01</course>
  <speed>0.022360679774997897</speed>
  <fix>3d</fix>
</trkpt>
<trkpt lat="33.8103133" lon="-118.3938696">
  <ele>-6.377</ele>
  <time>2026-09-01T01:13:17Z</time>
  <course>188.02</course>
  <speed>0.022360679774997897</speed>
  <fix>3d</fix>
</trkpt>
<trkpt lat="33.8103131" lon="-118.3938695">
  <ele>-6.6</ele>
  <time>2026-09-01T01:13:17Z</time>
  <course>109.02</course>
  <speed>0.0</speed>
  <fix>3d</fix>
</trkpt>
<trkpt lat="33.8103133" lon="-118.3938696">
  <ele>-6.374</ele>
  <time>2026-09-01T01:13:17Z</time>
  <course>188.02</course>
  <speed>0.022360679774997897</speed>
  <fix>3d</fix>
</trkpt>
<trkpt lat="33.8103133" lon="-118.3938696">
  <ele>-6.252</ele>
  <time>2026-09-01T01:13:17Z</time>
  <course>188.02</course>
  <speed>0.022360679774997897</speed>
  <fix>3d</fix>
</trkpt>
<trkpt lat="33.8103131" lon="-118.3938695">
  <ele>-6.35</ele>
  <time>2026-09-01T01:13:17Z</time>
  <course>109.61</course>
  <speed>0.0</speed>
  <fix>3d</fix>
</trkpt>
<trkpt lat="33.8103133" lon="-118.3938696">
  <ele>-6.199</ele>
  <time>2026-09-01T01:13:17Z</time>
  <course>188.02</course>
  <speed>0.022360679774997897</speed>
  <fix>3d</fix>
</trkpt>
<trkpt lat="33.8103133" lon="-118.3938696">
  <ele>-6.127</ele>
  <time>2026-09-01T01:13:17Z</time>
  <course>188.03</course>
  <speed>0.022360679774997897</speed>
  <fix>3d</fix>
</trkpt>
<trkpt lat="33.8103131" lon="-118.3938695">
  <ele>-6.35</ele>
  <time>2026-09-01T01:13:17Z</time>
  <course>109.61</course>
  <speed>0.0</speed>
  <fix>3d</fix>
</trkpt>
<trkpt lat="33.8103133" lon="-118.3938696">
  <ele>-6.124</ele>
  <time>2026-09-01T01:13:17Z</time>
  <course>188.03</course>
  <speed>0.022360679774997897</speed>
  <fix>3d</fix>
</trkpt>
<trkpt lat="33.8103133" lon="-118.3938696">
  <ele>-6.003</ele>
  <time>2026-09-01T01:13:17Z</time>
  <course>188.03</course>
  <speed>0.022360679774997897</speed>
  <fix>3d</fix>
</trkpt>
<trkpt lat="33.8103131" lon="-118.3938695">
  <ele>-6.1</ele>
  <time>2026-09-01T01:13:17Z</time>
  <course>110.25</course>
  <speed>0.0</speed>
  <fix>3d</fix>
</trkpt>
<trkpt lat="33.8103133" lon="-118.3938696">
  <ele>-5.948</ele>
  <time>2026-09-01T01:13:17Z</time>
  <course>188.03</course>
  <speed>0.022360679774997897</speed>
  <fix>3d</fix>
</trkpt>
<trkpt lat="33.8103133" lon="-118.3938696">
  <ele>-5.88</ele>
  <time>2026-09-01T01:13:17Z</time>
  <course>188.04</course>
  <speed>0.022360679774997897</speed>
  <fix>3d</fix>
</trkpt>
<trkpt lat="33.8103131" lon="-118.3938695">
  <ele>-6.1</ele>
  <time>2026-09-01T01:13:17Z</time>
  <course>110.25</course>
  <speed>0.0</speed>
  <fix>3d</fix>
</trkpt>
<trkpt lat="33.8103133" lon="-118.3938696">
  <ele>-5.827</ele>
  <time>2026-09-01T01:13:17Z</time>
  <course>188.04</course>
  <speed>0.022360679774997897</speed>
  <fix>3d</fix>
</trkpt>
<trkpt lat="33.8103133" lon="-118.3938696">
  <ele>-5.756</ele>
  <time>2026-09-01T01:13:17Z</time>
  <course>188.04</course>
  <speed>0.022360679774997897</speed>
  <fix>3d</fix>
</trkpt>
<trkpt lat="33.8103131" lon="-118.3938695">
  <ele>-5.86</ele>
  <time>2026-09-01T01:13:17Z</time>
  <course>110.96</course>
  <speed>0.0</speed>
  <fix>3d</fix>
</trkpt>
<trkpt lat="33.8103133" lon="-118.3938696">
  <ele>-5.75</ele>
  <time>2026-09-01T01:13:17Z</time>
  <course>188.04</course>
  <speed>0.022360679774997897</speed>
  <fix>3d</fix>
</trkpt>
<trkpt lat="33.8103133" lon="-118.3938696">
  <ele>-5.631</ele>
  <time>2026-09-01T01:13:17Z</time>
  <course>188.05</course>
  <speed>0.022360679774997897</speed>
  <fix>3d</fix>
</trkpt>
<trkpt lat="33.8103131" lon="-118.3938695">
  <ele>-5.86</ele>
  <time>2026-09-01T01:13:17Z</time>
  <course>110.96</course>
  <speed>0.0</speed>
  <fix>3d</fix>
</trkpt>
<trkpt lat="33.8103133" lon="-118.3938696">
  <ele>-5.579</ele>
  <time>2026-09-01T01:13:17Z</time>
  <course>188.05</course>
  <speed>0.022360679774997897</speed>
  <fix>3d</fix>
</trkpt>
<trkpt lat="33.8103133" lon="-118.3938696">
  <ele>-5.506</ele>
  <time>2026-09-01T01:13:17Z</time>
  <course>188.05</course>
  <speed>0.022360679774997897</speed>
  <fix>3d</fix>
</trkpt>
<trkpt lat="33.8103131" lon="-118.3938695">
  <ele>-5.62</ele>
  <time>2026-09-01T01:13:17Z</time>
  <course>111.73</course>
  <speed>0.0</speed>
  <fix>3d</fix>
</trkpt>
<trkpt lat="33.8103133" lon="-118.3938696">
  <ele>-5.456</ele>
  <time>2026-09-01T01:13:17Z</time>
  <course>188.05</course>
  <speed>0.022360679774997897</speed>
  <fix>3d</fix>
</trkpt>
<trkpt lat="33.8103133" lon="-118.3938696">
  <ele>-5.38</ele>
  <time>2026-09-01T01:13:17Z</time>
  <course>188.06</course>
  <speed>0.022360679774997897</speed>
  <fix>3d</fix>
</trkpt>
<trkpt lat="33.8103131" lon="-118.3938695">
  <ele>-5.62</ele>
  <time>2026-09-01T01:13:17Z</time>
  <course>111.73</course>
  <speed>0.0</speed>
  <fix>3d</fix>
</trkpt>
<trkpt lat="33.8103133" lon="-118.3938696">
  <ele>-5.323</ele>
  <time>2026-09-01T01:13:17Z</time>
  <course>188.06</course>
  <speed>0.022360679774997897</speed>
  <fix>3d</fix>
</trkpt>
<trkpt lat="33.8103133" lon="-118.3938696">
  <ele>-5.254</ele>
  <time>2026-09-01T01:13:17Z</time>
  <course>188.06</course>
  <speed>0.022360679774997897</speed>
  <fix>3d</fix>
</trkpt>
<trkpt lat="33.8103131" lon="-118.3938695">
  <ele>-5.37</ele>
  <time>2026-09-01T01:13:17Z</time>
  <course>112.57</course>
  <speed>0.0</speed>
  <fix>3d</fix>
</trkpt>
<trkpt lat="33.8103133" lon="-118.3938696">
  <ele>-5.198</ele>
  <time>2026-09-01T01:13:17Z</time>
  <course>188.06</course>
  <speed>0.022360679774997897</speed>
  <fix>3d</fix>
</trkpt>
<trkpt lat="33.8103133" lon="-118.3938696">
  <ele>-5.128</ele>
  <time>2026-09-01T01:13:17Z</time>
  <course>188.07</course>
  <speed>0.022360679774997897</speed>
  <fix>3d</fix>
</trkpt>
<trkpt lat="33.8103131" lon="-118.3938695">
  <ele>-5.37</ele>
  <time>2026-09-01T01:13:17Z</time>
  <course>112.57</course>
  <speed>0.0</speed>
  <fix>3d</fix>
</trkpt>
<trkpt lat="33.8103133" lon="-118.3938696">
  <ele>-5.071</ele>
  <time>2026-09-01T01:13:17Z</time>
  <course>188.07</course>
  <speed>0.022360679774997897</speed>
  <fix>3d</fix>
</trkpt>
<trkpt lat="33.8103133" lon="-118.3938696">
  <ele>-5.001</ele>
  <time>2026-09-01T01:13:17Z</time>
  <course>188.07</course>
  <speed>0.022360679774997897</speed>
  <fix>3d</fix>
</trkpt>
<trkpt lat="33.8103131" lon="-118.3938695">
  <ele>-5.13</ele>
  <time>2026-09-01T01:13:17Z</time>
  <course>113.48</course>
  <speed>0.0</speed>
  <fix>3d</fix>
</trkpt>
<trkpt lat="33.8103133" lon="-118.3938696">
  <ele>-4.945</ele>
  <time>2026-09-01T01:13:17Z</time>
  <course>188.07</course>
  <speed>0.022360679774997897</speed>
  <fix>3d</fix>
</trkpt>
<trkpt lat="33.8103133" lon="-118.3938696">
  <ele>-4.875</ele>
  <time>2026-09-01T01:13:17Z</time>
  <course>188.08</course>
  <speed>0.022360679774997897</speed>
  <fix>3d</fix>
</trkpt>
<trkpt lat="33.8103131" lon="-118.3938695">
  <ele>-5.13</ele>
  <time>2026-09-01T01:13:17Z</time>
  <course>113.48</course>
  <speed>0.0</speed>
  <fix>3d</fix>
</trkpt>
<trkpt lat="33.8103133" lon="-118.3938696">
  <ele>-4.747</ele>
  <time>2026-09-01T01:13:18Z</time>
  <course>188.08</course>
  <speed>0.022360679774997897</speed>
  <fix>3d</fix>
</trkpt>
<trkpt lat="33.8103131" lon="-118.3938695">
  <ele>-4.88</ele>
  <time>2026-09-01T01:13:18Z</time>
  <course>114.49</course>
  <speed>0.0</speed>
  <fix>3d</fix>
</trkpt>
<trkpt lat="33.8103133" lon="-118.3938696">
  <ele>-4.619</ele>
  <time>2026-09-01T01:13:18Z</time>
  <course>188.09</course>
  <speed>0.022360679774997897</speed>
  <fix>3d</fix>
</trkpt>
<trkpt lat="33.8103131" lon="-118.3938695">
  <ele>-4.88</ele>
  <time>2026-09-01T01:13:18Z</time>
  <course>114.49</course>
  <speed>0.0</speed>
  <fix>3d</fix>
</trkpt>
<trkpt lat="33.8103133" lon="-118.3938696">
  <ele>-4.493</ele>
  <time>2026-09-01T01:13:18Z</time>
  <course>188.09</course>
  <speed>0.022360679774997897</speed>
  <fix>3d</fix>
</trkpt>
<trkpt lat="33.8103131" lon="-118.3938695">
  <ele>-4.64</ele>
  <time>2026-09-01T01:13:18Z</time>
  <course>116.36</course>
  <speed>0.0</speed>
  <fix>3d</fix>
</trkpt>
<trkpt lat="33.8103133" lon="-118.3938696">
  <ele>-4.372</ele>
  <time>2026-09-01T01:13:18Z</time>
  <course>188.1</course>
  <speed>0.022360679774997897</speed>
  <fix>3d</fix>
</trkpt>
<trkpt lat="33.8103131" lon="-118.3938695">
  <ele>-4.64</ele>
  <time>2026-09-01T01:13:18Z</time>
  <course>116.36</course>
  <speed>0.0</speed>
  <fix>3d</fix>
</trkpt>
<trkpt lat="33.8103133" lon="-118.3938696">
  <ele>-4.259</ele>
  <time>2026-09-01T01:13:18Z</time>
  <course>188.1</course>
  <speed>0.022360679774997897</speed>
  <fix>3d</fix>
</trkpt>
<trkpt lat="33.8103131" lon="-118.3938695">
  <ele>-4.4</ele>
  <time>2026-09-01T01:13:18Z</time>
  <course>165.66</course>
  <speed>0.0</speed>
  <fix>3d</fix>
</trkpt>
<trkpt lat="33.8103133" lon="-118.3938696">
  <ele>-4.159</ele>
  <time>2026-09-01T01:13:18Z</time>
  <course>188.11</course>
  <speed>0.022360679774997897</speed>
  <fix>3d</fix>
</trkpt>
<trkpt lat="33.8103131" lon="-118.3938695">
  <ele>-4.4</ele>
  <time>2026-09-01T01:13:18Z</time>
  <course>165.66</course>
  <speed>0.0</speed>
  <fix>3d</fix>
</trkpt>
<trkpt lat="33.8103133" lon="-118.3938696">
  <ele>-4.075</ele>
  <time>2026-09-01T01:13:18Z</time>
  <course>188.11</course>
  <speed>0.022360679774997897</speed>
  <fix>3d</fix>
</trkpt>
<trkpt lat="33.8103131" lon="-118.3938695">
  <ele>-4.18</ele>
  <time>2026-09-01T01:13:18Z</time>
  <course>270.21</course>
  <speed>0.0</speed>
  <fix>3d</fix>
</trkpt>
<trkpt lat="33.8103133" lon="-118.3938696">
  <ele>-4.007</ele>
  <time>2026-09-01T01:13:18Z</time>
  <course>188.11</course>
  <speed>0.022360679774997897</speed>
  <fix>3d</fix>
</trkpt>
<trkpt lat="33.8103131" lon="-118.3938695">
  <ele>-4.18</ele>
  <time>2026-09-01T01:13:18Z</time>
  <course>270.21</course>
  <speed>0.0</speed>
  <fix>3d</fix>
</trkpt>
<trkpt lat="33.8103133" lon="-118.3938696">
  <ele>-3.954</ele>
  <time>2026-09-01T01:13:18Z</time>
  <course>188.12</course>
  <speed>0.01414213562373095</speed>
  <fix>3d</fix>
</trkpt>
<trkpt lat="33.8103131" lon="-118.3938695">
  <ele>-4.01</ele>
  <time>2026-09-01T01:13:18Z</time>
  <course>274.32</course>
  <speed>0.0</speed>
  <fix>3d</fix>
</trkpt>
<trkpt lat="33.8103133" lon="-118.3938696">
  <ele>-3.916</ele>
  <time>2026-09-01T01:13:18Z</time>
  <course>188.12</course>
  <speed>0.01414213562373095</speed>
  <fix>3d</fix>
</trkpt>
<trkpt lat="33.8103131" lon="-118.3938695">
  <ele>-4.01</ele>
  <time>2026-09-01T01:13:18Z</time>
  <course>274.32</course>
  <speed>0.0</speed>
  <fix>3d</fix>
</trkpt>
<trkpt lat="33.8103133" lon="-118.3938696">
  <ele>-3.887</ele>
  <time>2026-09-01T01:13:18Z</time>
  <course>188.13</course>
  <speed>0.01414213562373095</speed>
  <fix>3d</fix>
</trkpt>
<trkpt lat="33.8103131" lon="-118.3938695">
  <ele>-3.9</ele>
  <time>2026-09-01T01:13:18Z</time>
  <course>275.18</course>
  <speed>0.0</speed>
  <fix>3d</fix>
</trkpt>
<trkpt lat="33.8103133" lon="-118.3938696">
  <ele>-3.868</ele>
  <time>2026-09-01T01:13:18Z</time>
  <course>188.13</course>
  <speed>0.01414213562373095</speed>
  <fix>3d</fix>
</trkpt>
<trkpt lat="33.8103131" lon="-118.3938695">
  <ele>-3.9</ele>
  <time>2026-09-01T01:13:18Z</time>
  <course>275.18</course>
  <speed>0.0</speed>
  <fix>3d</fix>
</trkpt>
<trkpt lat="33.8103133" lon="-118.3938696">
  <ele>-3.858</ele>
  <time>2026-09-01T01:13:18Z</time>
  <course>188.14</course>
  <speed>0.01414213562373095</speed>
  <fix>3d</fix>
</trkpt>
<trkpt lat="33.8103131" lon="-118.3938695">
  <ele>-3.83</ele>
  <time>2026-09-01T01:13:18Z</time>
  <course>275.44</course>
  <speed>0.0</speed>
  <fix>3d</fix>
</trkpt>
<trkpt lat="33.8103133" lon="-118.3938696">
  <ele>-3.855</ele>
  <time>2026-09-01T01:13:18Z</time>
  <course>188.14</course>
  <speed>0.01414213562373095</speed>
  <fix>3d</fix>
</trkpt>
<trkpt lat="33.8103131" lon="-118.3938695">
  <ele>-3.83</ele>
  <time>2026-09-01T01:13:18Z</time>
  <course>275.44</course>
  <speed>0.0</speed>
  <fix>3d</fix>
</trkpt>
<trkpt lat="33.8103133" lon="-118.3938696">
  <ele>-3.855</ele>
  <time>2026-09-01T01:13:18Z</time>
  <course>188.15</course>
  <speed>0.01414213562373095</speed>
  <fix>3d</fix>
</trkpt>
<trkpt lat="33.8103131" lon="-118.3938695">
  <ele>-3.8</ele>
  <time>2026-09-01T01:13:18Z</time>
  <course>275.55</course>
  <speed>0.0</speed>
  <fix>3d</fix>
</trkpt>
<trkpt lat="33.8103133" lon="-118.3938696">
  <ele>-3.857</ele>
  <time>2026-09-01T01:13:18Z</time>
  <course>188.15</course>
  <speed>0.01414213562373095</speed>
  <fix>3d</fix>
</trkpt>
<trkpt lat="33.8103131" lon="-118.3938695">
  <ele>-3.8</ele>
  <time>2026-09-01T01:13:18Z</time>
  <course>275.55</course>
  <speed>0.0</speed>
  <fix>3d</fix>
</trkpt>
<trkpt lat="33.8103133" lon="-118.3938696">
  <ele>-3.859</ele>
  <time>2026-09-01T01:13:18Z</time>
  <course>188.16</course>
  <speed>0.01414213562373095</speed>
  <fix>3d</fix>
</trkpt>
<trkpt lat="33.8103131" lon="-118.3938695">
  <ele>-3.79</ele>
  <time>2026-09-01T01:13:18Z</time>
  <course>275.61</course>
  <speed>0.0</speed>
  <fix>3d</fix>
</trkpt>
<trkpt lat="33.8103133" lon="-118.3938696">
  <ele>-3.861</ele>
  <time>2026-09-01T01:13:18Z</time>
  <course>188.16</course>
  <speed>0.01414213562373095</speed>
  <fix>3d</fix>
</trkpt>
<trkpt lat="33.8103131" lon="-118.3938695">
  <ele>-3.79</ele>
  <time>2026-09-01T01:13:18Z</time>
  <course>275.61</course>
  <speed>0.0</speed>
  <fix>3d</fix>
</trkpt>
<trkpt lat="33.8103133" lon="-118.3938696">
  <ele>-3.861</ele>
  <time>2026-09-01T01:13:18Z</time>
  <course>188.16</course>
  <speed>0.01414213562373095</speed>
  <fix>3d</fix>
</trkpt>
<trkpt lat="33.8103131" lon="-118.3938695">
  <ele>-3.79</ele>
  <time>2026-09-01T01:13:18Z</time>
  <course>275.63</course>
  <speed>0.0</speed>
  <fix>3d</fix>
</trkpt>
<trkpt lat="33.8103133" lon="-118.3938696">
  <ele>-3.862</ele>
  <time>2026-09-01T01:13:18Z</time>
  <course>188.17</course>
  <speed>0.01414213562373095</speed>
  <fix>3d</fix>
</trkpt>
<trkpt lat="33.8103131" lon="-118.3938695">
  <ele>-3.79</ele>
  <time>2026-09-01T01:13:18Z</time>
  <course>275.63</course>
  <speed>0.0</speed>
  <fix>3d</fix>
</trkpt>
<trkpt lat="33.8103133" lon="-118.3938696">
  <ele>-3.862</ele>
  <time>2026-09-01T01:13:18Z</time>
  <course>188.17</course>
  <speed>0.022360679774997897</speed>
  <fix>3d</fix>
</trkpt>
<trkpt lat="33.8103131" lon="-118.3938695">
  <ele>-3.78</ele>
  <time>2026-09-01T01:13:18Z</time>
  <course>275.63</course>
  <speed>0.0</speed>
  <fix>3d</fix>
</trkpt>
<trkpt lat="33.8103133" lon="-118.3938696">
  <ele>-3.862</ele>
  <time>2026-09-01T01:13:18Z</time>
  <course>188.18</course>
  <speed>0.022360679774997897</speed>
  <fix>3d</fix>
</trkpt>
<trkpt lat="33.8103131" lon="-118.3938695">
  <ele>-3.78</ele>
  <time>2026-09-01T01:13:18Z</time>
  <course>275.63</course>
  <speed>0.0</speed>
  <fix>3d</fix>
</trkpt>
<trkpt lat="33.8103133" lon="-118.3938696">
  <ele>-3.861</ele>
  <time>2026-09-01T01:13:18Z</time>
  <course>188.18</course>
  <speed>0.022360679774997897</speed>
  <fix>3d</fix>
</trkpt>
<trkpt lat="33.8103131" lon="-118.3938695">
  <ele>-3.77</ele>
  <time>2026-09-01T01:13:18Z</time>
  <course>275.62</course>
  <speed>0.0</speed>
  <fix>3d</fix>
</trkpt>
<trkpt lat="33.8103133" lon="-118.3938696">
  <ele>-3.859</ele>
  <time>2026-09-01T01:13:18Z</time>
  <course>188.19</course>
  <speed>0.022360679774997897</speed>
  <fix>3d</fix>
</trkpt>
<trkpt lat="33.8103131" lon="-118.3938695">
  <ele>-3.77</ele>
  <time>2026-09-01T01:13:18Z</time>
  <course>275.62</course>
  <speed>0.0</speed>
  <fix>3d</fix>
</trkpt>
<trkpt lat="33.8103133" lon="-118.3938696">
  <ele>-3.859</ele>
  <time>2026-09-01T01:13:18Z</time>
  <course>188.19</course>
  <speed>0.022360679774997897</speed>
  <fix>3d</fix>
</trkpt>
<trkpt lat="33.8103131" lon="-118.3938695">
  <ele>-3.77</ele>
  <time>2026-09-01T01:13:18Z</time>
  <course>275.63</course>
  <speed>0.0</speed>
  <fix>3d</fix>
</trkpt>
<trkpt lat="33.8103133" lon="-118.3938696">
  <ele>-3.859</ele>
  <time>2026-09-01T01:13:18Z</time>
  <course>188.19</course>
  <speed>0.022360679774997897</speed>
  <fix>3d</fix>
</trkpt>
<trkpt lat="33.8103131" lon="-118.3938695">
  <ele>-3.77</ele>
  <time>2026-09-01T01:13:18Z</time>
  <course>275.63</course>
  <speed>0.0</speed>
  <fix>3d</fix>
</trkpt>
<trkpt lat="33.8103133" lon="-118.3938696">
  <ele>-3.858</ele>
  <time>2026-09-01T01:13:18Z</time>
  <course>188.2</course>
  <speed>0.022360679774997897</speed>
  <fix>3d</fix>
</trkpt>
<trkpt lat="33.8103131" lon="-118.3938695">
  <ele>-3.76</ele>
  <time>2026-09-01T01:13:18Z</time>
  <course>275.63</course>
  <speed>0.0</speed>
  <fix>3d</fix>
</trkpt>
<trkpt lat="33.8103133" lon="-118.3938696">
  <ele>-3.858</ele>
  <time>2026-09-01T01:13:18Z</time>
  <course>188.2</course>
  <speed>0.022360679774997897</speed>
  <fix>3d</fix>
</trkpt>
<trkpt lat="33.8103131" lon="-118.3938695">
  <ele>-3.76</ele>
  <time>2026-09-01T01:13:18Z</time>
  <course>275.63</course>
  <speed>0.0</speed>
  <fix>3d</fix>
</trkpt>
<trkpt lat="33.8103133" lon="-118.3938696">
  <ele>-3.859</ele>
  <time>2026-09-01T01:13:18Z</time>
  <course>188.21</course>
  <speed>0.022360679774997897</speed>
  <fix>3d</fix>
</trkpt>
<trkpt lat="33.8103131" lon="-118.3938695">
  <ele>-3.76</ele>
  <time>2026-09-01T01:13:18Z</time>
  <course>275.63</course>
  <speed>0.0</speed>
  <fix>3d</fix>
</trkpt>
<trkpt lat="33.8103133" lon="-118.3938696">
  <ele>-3.86</ele>
  <time>2026-09-01T01:13:18Z</time>
  <course>188.21</course>
  <speed>0.022360679774997897</speed>
  <fix>3d</fix>
</trkpt>
<trkpt lat="33.8103131" lon="-118.3938695">
  <ele>-3.76</ele>
  <time>2026-09-01T01:13:18Z</time>
  <course>275.63</course>
  <speed>0.0</speed>
  <fix>3d</fix>
</trkpt>
<trkpt lat="33.8103133" lon="-118.3938696">
  <ele>-3.86</ele>
  <time>2026-09-01T01:13:18Z</time>
  <course>188.22</course>
  <speed>0.022360679774997897</speed>
  <fix>3d</fix>
</trkpt>
<trkpt lat="33.8103131" lon="-118.3938696">
  <ele>-3.75</ele>
  <time>2026-09-01T01:13:18Z</time>
  <course>275.64</course>
  <speed>0.0</speed>
  <fix>3d</fix>
</trkpt>
<trkpt lat="33.8103133" lon="-118.3938696">
  <ele>-3.859</ele>
  <time>2026-09-01T01:13:18Z</time>
  <course>188.22</course>
  <speed>0.022360679774997897</speed>
  <fix>3d</fix>
</trkpt>
<trkpt lat="33.8103131" lon="-118.3938696">
  <ele>-3.75</ele>
  <time>2026-09-01T01:13:18Z</time>
  <course>275.64</course>
  <speed>0.0</speed>
  <fix>3d</fix>
</trkpt>
<trkpt lat="33.8103133" lon="-118.3938696">
  <ele>-3.857</ele>
  <time>2026-09-01T01:13:18Z</time>
  <course>188.22</course>
  <speed>0.022360679774997897</speed>
  <fix>3d</fix>
</trkpt>
<trkpt lat="33.8103131" lon="-118.3938697">
  <ele>-3.75</ele>
  <time>2026-09-01T01:13:18Z</time>
  <course>275.63</course>
  <speed>0.0</speed>
  <fix>3d</fix>
</trkpt>
<trkpt lat="33.8103133" lon="-118.3938697">
  <ele>-3.854</ele>
  <time>2026-09-01T01:13:18Z</time>
  <course>188.23</course>
  <speed>0.022360679774997897</speed>
  <fix>3d</fix>
</trkpt>
<trkpt lat="33.8103131" lon="-118.3938697">
  <ele>-3.75</ele>
  <time>2026-09-01T01:13:18Z</time>
  <course>275.63</course>
  <speed>0.0</speed>
  <fix>3d</fix>
</trkpt>
<trkpt lat="33.8103133" lon="-118.3938697">
  <ele>-3.851</ele>
  <time>2026-09-01T01:13:18Z</time>
  <course>188.23</course>
  <speed>0.022360679774997897</speed>
  <fix>3d</fix>
</trkpt>
<trkpt lat="33.8103131" lon="-118.3938697">
  <ele>-3.75</ele>
  <time>2026-09-01T01:13:18Z</time>
  <course>275.64</course>
  <speed>0.0</speed>
  <fix>3d</fix>
</trkpt>
<trkpt lat="33.8103133" lon="-118.3938697">
  <ele>-3.85</ele>
  <time>2026-09-01T01:13:18Z</time>
  <course>188.24</course>
  <speed>0.022360679774997897</speed>
  <fix>3d</fix>
</trkpt>
<trkpt lat="33.8103131" lon="-118.3938697">
  <ele>-3.75</ele>
  <time>2026-09-01T01:13:18Z</time>
  <course>275.64</course>
  <speed>0.0</speed>
  <fix>3d</fix>
</trkpt>
<trkpt lat="33.8103133" lon="-118.3938697">
  <ele>-3.849</ele>
  <time>2026-09-01T01:13:18Z</time>
  <course>188.24</course>
  <speed>0.022360679774997897</speed>
  <fix>3d</fix>
</trkpt>
<trkpt lat="33.8103131" lon="-118.3938697">
  <ele>-3.75</ele>
  <time>2026-09-01T01:13:18Z</time>
  <course>275.65</course>
  <speed>0.0</speed>
  <fix>3d</fix>
</trkpt>
<trkpt lat="33.8103133" lon="-118.3938697">
  <ele>-3.85</ele>
  <time>2026-09-01T01:13:18Z</time>
  <course>188.24</course>
  <speed>0.022360679774997897</speed>
  <fix>3d</fix>
</trkpt>
<trkpt lat="33.8103131" lon="-118.3938697">
  <ele>-3.75</ele>
  <time>2026-09-01T01:13:18Z</time>
  <course>275.65</course>
  <speed>0.0</speed>
  <fix>3d</fix>
</trkpt>
<trkpt lat="33.8103133" lon="-118.3938697">
  <ele>-3.852</ele>
  <time>2026-09-01T01:13:18Z</time>
  <course>188.25</course>
  <speed>0.022360679774997897</speed>
  <fix>3d</fix>
</trkpt>
<trkpt lat="33.8103131" lon="-118.3938697">
  <ele>-3.75</ele>
  <time>2026-09-01T01:13:18Z</time>
  <course>275.67</course>
  <speed>0.0</speed>
  <fix>3d</fix>
</trkpt>
<trkpt lat="33.8103133" lon="-118.3938697">
  <ele>-3.854</ele>
  <time>2026-09-01T01:13:18Z</time>
  <course>188.25</course>
  <speed>0.022360679774997897</speed>
  <fix>3d</fix>
</trkpt>
<trkpt lat="33.8103131" lon="-118.3938697">
  <ele>-3.75</ele>
  <time>2026-09-01T01:13:18Z</time>
  <course>275.67</course>
  <speed>0.0</speed>
  <fix>3d</fix>
</trkpt>
<trkpt lat="33.8103133" lon="-118.3938697">
  <ele>-3.855</ele>
  <time>2026-09-01T01:13:18Z</time>
  <course>188.25</course>
  <speed>0.022360679774997897</speed>
  <fix>3d</fix>
</trkpt>
<trkpt lat="33.8103131" lon="-118.3938697">
  <ele>-3.75</ele>
  <time>2026-09-01T01:13:18Z</time>
  <course>275.67</course>
  <speed>0.0</speed>
  <fix>3d</fix>
</trkpt>
<trkpt lat="33.8103133" lon="-118.3938698">
  <ele>-3.856</ele>
  <time>2026-09-01T01:13:18Z</time>
  <course>188.26</course>
  <speed>0.0282842712474619</speed>
  <fix>3d</fix>
</trkpt>
<trkpt lat="33.8103131" lon="-118.3938697">
  <ele>-3.75</ele>
  <time>2026-09-01T01:13:18Z</time>
  <course>275.67</course>
  <speed>0.0</speed>
  <fix>3d</fix>
</trkpt>
<trkpt lat="33.8103133" lon="-118.3938698">
  <ele>-3.857</ele>
  <time>2026-09-01T01:13:18Z</time>
  <course>188.26</course>
  <speed>0.0282842712474619</speed>
  <fix>3d</fix>
</trkpt>
<trkpt lat="33.8103131" lon="-118.3938697">
  <ele>-3.75</ele>
  <time>2026-09-01T01:13:18Z</time>
  <course>275.67</course>
  <speed>0.0</speed>
  <fix>3d</fix>
</trkpt>
<trkpt lat="33.8103133" lon="-118.3938698">
  <ele>-3.858</ele>
  <time>2026-09-01T01:13:18Z</time>
  <course>188.27</course>
  <speed>0.0282842712474619</speed>
  <fix>3d</fix>
</trkpt>
<trkpt lat="33.8103131" lon="-118.3938697">
  <ele>-3.75</ele>
  <time>2026-09-01T01:13:18Z</time>
  <course>275.67</course>
  <speed>0.0</speed>
  <fix>3d</fix>
</trkpt>
<trkpt lat="33.8103133" lon="-118.3938698">
  <ele>-3.858</ele>
  <time>2026-09-01T01:13:18Z</time>
  <course>188.27</course>
  <speed>0.0282842712474619</speed>
  <fix>3d</fix>
</trkpt>
<trkpt lat="33.8103131" lon="-118.3938697">
  <ele>-3.76</ele>
  <time>2026-09-01T01:13:18Z</time>
  <course>275.66</course>
  <speed>0.0</speed>
  <fix>3d</fix>
</trkpt>
<trkpt lat="33.8103133" lon="-118.3938698">
  <ele>-3.859</ele>
  <time>2026-09-01T01:13:18Z</time>
  <course>188.27</course>
  <speed>0.0282842712474619</speed>
  <fix>3d</fix>
</trkpt>
<trkpt lat="33.8103131" lon="-118.3938697">
  <ele>-3.76</ele>
  <time>2026-09-01T01:13:18Z</time>
  <course>275.66</course>
  <speed>0.0</speed>
  <fix>3d</fix>
</trkpt>
<trkpt lat="33.8103133" lon="-118.3938698">
  <ele>-3.859</ele>
  <time>2026-09-01T01:13:18Z</time>
  <course>188.28</course>
  <speed>0.0282842712474619</speed>
  <fix>3d</fix>
</trkpt>
<trkpt lat="33.8103131" lon="-118.3938697">
  <ele>-3.76</ele>
  <time>2026-09-01T01:13:18Z</time>
  <course>275.67</course>
  <speed>0.0</speed>
  <fix>3d</fix>
</trkpt>
<trkpt lat="33.8103133" lon="-118.3938698">
  <ele>-3.859</ele>
  <time>2026-09-01T01:13:18Z</time>
  <course>188.28</course>
  <speed>0.0282842712474619</speed>
  <fix>3d</fix>
</trkpt>
<trkpt lat="33.8103131" lon="-118.3938697">
  <ele>-3.76</ele>
  <time>2026-09-01T01:13:18Z</time>
  <course>275.67</course>
  <speed>0.0</speed>
  <fix>3d</fix>
</trkpt>
<trkpt lat="33.8103133" lon="-118.3938698">
  <ele>-3.859</ele>
  <time>2026-09-01T01:13:18Z</time>
  <course>188.29</course>
  <speed>0.0282842712474619</speed>
  <fix>3d</fix>
</trkpt>
<trkpt lat="33.8103131" lon="-118.3938698">
  <ele>-3.76</ele>
  <time>2026-09-01T01:13:18Z</time>
  <course>275.67</course>
  <speed>0.0</speed>
  <fix>3d</fix>
</trkpt>
<trkpt lat="33.8103133" lon="-118.3938698">
  <ele>-3.859</ele>
  <time>2026-09-01T01:13:18Z</time>
  <course>188.29</course>
  <speed>0.0282842712474619</speed>
  <fix>3d</fix>
</trkpt>
<trkpt lat="33.8103131" lon="-118.3938698">
  <ele>-3.76</ele>
  <time>2026-09-01T01:13:18Z</time>
  <course>275.67</course>
  <speed>0.0</speed>
  <fix>3d</fix>
</trkpt>
<trkpt lat="33.8103133" lon="-118.3938698">
  <ele>-3.858</ele>
  <time>2026-09-01T01:13:18Z</time>
  <course>188.29</course>
  <speed>0.0282842712474619</speed>
  <fix>3d</fix>
</trkpt>
<trkpt lat="33.8103131" lon="-118.3938698">
  <ele>-3.76</ele>
  <time>2026-09-01T01:13:18Z</time>
  <course>275.67</course>
  <speed>0.0</speed>
  <fix>3d</fix>
</trkpt>
<trkpt lat="33.8103133" lon="-118.3938699">
  <ele>-3.857</ele>
  <time>2026-09-01T01:13:18Z</time>
  <course>188.3</course>
  <speed>0.0282842712474619</speed>
  <fix>3d</fix>
</trkpt>
<trkpt lat="33.8103131" lon="-118.3938698">
  <ele>-3.76</ele>
  <time>2026-09-01T01:13:18Z</time>
  <course>275.67</course>
  <speed>0.0</speed>
  <fix>3d</fix>
</trkpt>
<trkpt lat="33.8103133" lon="-118.3938699">
  <ele>-3.857</ele>
  <time>2026-09-01T01:13:18Z</time>
  <course>188.3</course>
  <speed>0.0282842712474619</speed>
  <fix>3d</fix>
</trkpt>
<trkpt lat="33.8103131" lon="-118.3938698">
  <ele>-3.76</ele>
  <time>2026-09-01T01:13:18Z</time>
  <course>275.67</course>
  <speed>0.0</speed>
  <fix>3d</fix>
</trkpt>
<trkpt lat="33.8103133" lon="-118.3938699">
  <ele>-3.857</ele>
  <time>2026-09-01T01:13:18Z</time>
  <course>188.3</course>
  <speed>0.0282842712474619</speed>
  <fix>3d</fix>
</trkpt>
<trkpt lat="33.8103131" lon="-118.3938698">
  <ele>-3.76</ele>
  <time>2026-09-01T01:13:18Z</time>
  <course>275.67</course>
  <speed>0.0</speed>
  <fix>3d</fix>
</trkpt>
<trkpt lat="33.8103133" lon="-118.3938699">
  <ele>-3.857</ele>
  <time>2026-09-01T01:13:18Z</time>
  <course>188.31</course>
  <speed>0.0282842712474619</speed>
  <fix>3d</fix>
</trkpt>
<trkpt lat="33.8103131" lon="-118.3938698">
  <ele>-3.76</ele>
  <time>2026-09-01T01:13:18Z</time>
  <course>275.67</course>
  <speed>0.0</speed>
  <fix>3d</fix>
</trkpt>
<trkpt lat="33.8103133" lon="-118.3938699">
  <ele>-3.858</ele>
  <time>2026-09-01T01:13:18Z</time>
  <course>188.31</course>
  <speed>0.0282842712474619</speed>
  <fix>3d</fix>
</trkpt>
<trkpt lat="33.8103131" lon="-118.3938698">
  <ele>-3.76</ele>
  <time>2026-09-01T01:13:18Z</time>
  <course>275.67</course>
  <speed>0.0</speed>
  <fix>3d</fix>
</trkpt>
<trkpt lat="33.8103133" lon="-118.3938699">
  <ele>-3.859</ele>
  <time>2026-09-01T01:13:18Z</time>
  <course>188.32</course>
  <speed>0.0282842712474619</speed>
  <fix>3d</fix>
</trkpt>
<trkpt lat="33.8103131" lon="-118.3938698">
  <ele>-3.76</ele>
  <time>2026-09-01T01:13:18Z</time>
  <course>275.67</course>
  <speed>0.0</speed>
  <fix>3d</fix>
</trkpt>
<trkpt lat="33.8103133" lon="-118.3938699">
  <ele>-3.86</ele>
  <time>2026-09-01T01:13:18Z</time>
  <course>188.32</course>
  <speed>0.0282842712474619</speed>
  <fix>3d</fix>
</trkpt>
<trkpt lat="33.8103131" lon="-118.3938698">
  <ele>-3.76</ele>
  <time>2026-09-01T01:13:18Z</time>
  <course>275.67</course>
  <speed>0.0</speed>
  <fix>3d</fix>
</trkpt>
<trkpt lat="33.8103133" lon="-118.3938699">
  <ele>-3.861</ele>
  <time>2026-09-01T01:13:18Z</time>
  <course>188.32</course>
  <speed>0.0282842712474619</speed>
  <fix>3d</fix>
</trkpt>
<trkpt lat="33.8103131" lon="-118.3938698">
  <ele>-3.76</ele>
  <time>2026-09-01T01:13:18Z</time>
  <course>275.67</course>
  <speed>0.0</speed>
  <fix>3d</fix>
</trkpt>
<trkpt lat="33.8103133" lon="-118.3938699">
  <ele>-3.862</ele>
  <time>2026-09-01T01:13:18Z</time>
  <course>188.33</course>
  <speed>0.0282842712474619</speed>
  <fix>3d</fix>
</trkpt>
<trkpt lat="33.8103131" lon="-118.3938698">
  <ele>-3.76</ele>
  <time>2026-09-01T01:13:18Z</time>
  <course>275.67</course>
  <speed>0.0</speed>
  <fix>3d</fix>
</trkpt>
<trkpt lat="33.8103133" lon="-118.3938699">
  <ele>-3.863</ele>
  <time>2026-09-01T01:13:18Z</time>
  <course>188.33</course>
  <speed>0.0282842712474619</speed>
  <fix>3d</fix>
</trkpt>
<trkpt lat="33.8103131" lon="-118.3938698">
  <ele>-3.76</ele>
  <time>2026-09-01T01:13:18Z</time>
  <course>275.66</course>
  <speed>0.0</speed>
  <fix>3d</fix>
</trkpt>
<trkpt lat="33.8103133" lon="-118.3938699">
  <ele>-3.861</ele>
  <time>2026-09-01T01:13:18Z</time>
  <course>188.33</course>
  <speed>0.0282842712474619</speed>
  <fix>3d</fix>
</trkpt>
<trkpt lat="33.8103131" lon="-118.3938698">
  <ele>-3.76</ele>
  <time>2026-09-01T01:13:18Z</time>
  <course>275.66</course>
  <speed>0.0</speed>
  <fix>3d</fix>
</trkpt>
<trkpt lat="33.8103133" lon="-118.3938699">
  <ele>-3.859</ele>
  <time>2026-09-01T01:13:18Z</time>
  <course>188.34</course>
  <speed>0.0282842712474619</speed>
  <fix>3d</fix>
</trkpt>
<trkpt lat="33.8103131" lon="-118.3938698">
  <ele>-3.75</ele>
  <time>2026-09-01T01:13:18Z</time>
  <course>275.66</course>
  <speed>0.0</speed>
  <fix>3d</fix>
</trkpt>
<trkpt lat="33.8103133" lon="-118.3938699">
  <ele>-3.858</ele>
  <time>2026-09-01T01:13:18Z</time>
  <course>188.34</course>
  <speed>0.0282842712474619</speed>
  <fix>3d</fix>
</trkpt>
<trkpt lat="33.8103131" lon="-118.3938698">
  <ele>-3.75</ele>
  <time>2026-09-01T01:13:18Z</time>
  <course>275.66</course>
  <speed>0.0</speed>
  <fix>3d</fix>
</trkpt>
<trkpt lat="33.8103133" lon="-118.39387">
  <ele>-3.856</ele>
  <time>2026-09-01T01:13:18Z</time>
  <course>188.35</course>
  <speed>0.0282842712474619</speed>
  <fix>3d</fix>
</trkpt>
<trkpt lat="33.8103131" lon="-118.3938698">
  <ele>-3.75</ele>
  <time>2026-09-01T01:13:18Z</time>
  <course>275.67</course>
  <speed>0.0</speed>
  <fix>3d</fix>
</trkpt>
<trkpt lat="33.8103133" lon="-118.39387">
  <ele>-3.852</ele>
  <time>2026-09-01T01:13:18Z</time>
  <course>188.35</course>
  <speed>0.0282842712474619</speed>
  <fix>3d</fix>
</trkpt>
<trkpt lat="33.8103131" lon="-118.3938698">
  <ele>-3.75</ele>
  <time>2026-09-01T01:13:18Z</time>
  <course>275.67</course>
  <speed>0.0</speed>
  <fix>3d</fix>
</trkpt>
<trkpt lat="33.8103133" lon="-118.39387">
  <ele>-3.848</ele>
  <time>2026-09-01T01:13:18Z</time>
  <course>188.35</course>
  <speed>0.0282842712474619</speed>
  <fix>3d</fix>
</trkpt>
<trkpt lat="33.8103131" lon="-118.3938699">
  <ele>-3.75</ele>
  <time>2026-09-01T01:13:18Z</time>
  <course>275.69</course>
  <speed>0.0</speed>
  <fix>3d</fix>
</trkpt>
<trkpt lat="33.8103133" lon="-118.39387">
  <ele>-3.846</ele>
  <time>2026-09-01T01:13:18Z</time>
  <course>188.36</course>
  <speed>0.0282842712474619</speed>
  <fix>3d</fix>
</trkpt>
<trkpt lat="33.8103131" lon="-118.3938699">
  <ele>-3.75</ele>
  <time>2026-09-01T01:13:18Z</time>
  <course>275.69</course>
  <speed>0.0</speed>
  <fix>3d</fix>
</trkpt>
<trkpt lat="33.8103133" lon="-118.39387">
  <ele>-3.846</ele>
  <time>2026-09-01T01:13:18Z</time>
  <course>188.36</course>
  <speed>0.0282842712474619</speed>
  <fix>3d</fix>
</trkpt>
<trkpt lat="33.8103131" lon="-118.3938699">
  <ele>-3.74</ele>
  <time>2026-09-01T01:13:18Z</time>
  <course>275.76</course>
  <speed>0.0</speed>
  <fix>3d</fix>
</trkpt>
<trkpt lat="33.8103133" lon="-118.39387">
  <ele>-3.847</ele>
  <time>2026-09-01T01:13:18Z</time>
  <course>188.36</course>
  <speed>0.0282842712474619</speed>
  <fix>3d</fix>
</trkpt>
<trkpt lat="33.8103131" lon="-118.3938699">
  <ele>-3.74</ele>
  <time>2026-09-01T01:13:18Z</time>
  <course>275.76</course>
  <speed>0.0</speed>
  <fix>3d</fix>
</trkpt>
<trkpt lat="33.8103133" lon="-118.39387">
  <ele>-3.849</ele>
  <time>2026-09-01T01:13:18Z</time>
  <course>188.37</course>
  <speed>0.0282842712474619</speed>
  <fix>3d</fix>
</trkpt>
<trkpt lat="33.8103131" lon="-118.3938699">
  <ele>-3.74</ele>
  <time>2026-09-01T01:13:18Z</time>
  <course>275.88</course>
  <speed>0.0</speed>
  <fix>3d</fix>
</trkpt>
<trkpt lat="33.8103133" lon="-118.39387">
  <ele>-3.85</ele>
  <time>2026-09-01T01:13:18Z</time>
  <course>188.37</course>
  <speed>0.0282842712474619</speed>
  <fix>3d</fix>
</trkpt>
<trkpt lat="33.8103131" lon="-118.3938699">
  <ele>-3.74</ele>
  <time>2026-09-01T01:13:18Z</time>
  <course>275.88</course>
  <speed>0.0</speed>
  <fix>3d</fix>
</trkpt>
<trkpt lat="33.8103133" lon="-118.39387">
  <ele>-3.851</ele>
  <time>2026-09-01T01:13:18Z</time>
  <course>188.37</course>
  <speed>0.0282842712474619</speed>
  <fix>3d</fix>
</trkpt>
<trkpt lat="33.8103131" lon="-118.3938699">
  <ele>-3.75</ele>
  <time>2026-09-01T01:13:18Z</time>
  <course>275.99</course>
  <speed>0.0</speed>
  <fix>3d</fix>
</trkpt>
<trkpt lat="33.8103133" lon="-118.39387">
  <ele>-3.852</ele>
  <time>2026-09-01T01:13:18Z</time>
  <course>188.38</course>
  <speed>0.0282842712474619</speed>
  <fix>3d</fix>
</trkpt>
<trkpt lat="33.8103131" lon="-118.3938699">
  <ele>-3.75</ele>
  <time>2026-09-01T01:13:18Z</time>
  <course>275.99</course>
  <speed>0.0</speed>
  <fix>3d</fix>
</trkpt>
<trkpt lat="33.8103133" lon="-118.39387">
  <ele>-3.854</ele>
  <time>2026-09-01T01:13:18Z</time>
  <course>188.38</course>
  <speed>0.0282842712474619</speed>
  <fix>3d</fix>
</trkpt>
<trkpt lat="33.8103131" lon="-118.3938699">
  <ele>-3.75</ele>
  <time>2026-09-01T01:13:18Z</time>
  <course>276.07</course>
  <speed>0.0</speed>
  <fix>3d</fix>
</trkpt>
<trkpt lat="33.8103133" lon="-118.39387">
  <ele>-3.856</ele>
  <time>2026-09-01T01:13:18Z</time>
  <course>188.38</course>
  <speed>0.0282842712474619</speed>
  <fix>3d</fix>
</trkpt>
<trkpt lat="33.8103131" lon="-118.3938699">
  <ele>-3.75</ele>
  <time>2026-09-01T01:13:18Z</time>
  <course>276.07</course>
  <speed>0.0</speed>
  <fix>3d</fix>
</trkpt>
<trkpt lat="33.8103133" lon="-118.39387">
  <ele>-3.857</ele>
  <time>2026-09-01T01:13:18Z</time>
  <course>188.39</course>
  <speed>0.0282842712474619</speed>
  <fix>3d</fix>
</trkpt>
<trkpt lat="33.8103131" lon="-118.3938699">
  <ele>-3.75</ele>
  <time>2026-09-01T01:13:18Z</time>
  <course>276.14</course>
  <speed>0.0</speed>
  <fix>3d</fix>
</trkpt>
<trkpt lat="33.8103133" lon="-118.3938701">
  <ele>-3.857</ele>
  <time>2026-09-01T01:13:18Z</time>
  <course>188.39</course>
  <speed>0.0282842712474619</speed>
  <fix>3d</fix>
</trkpt>
<trkpt lat="33.8103131" lon="-118.3938699">
  <ele>-3.75</ele>
  <time>2026-09-01T01:13:18Z</time>
  <course>276.14</course>
  <speed>0.0</speed>
  <fix>3d</fix>
</trkpt>
<trkpt lat="33.8103133" lon="-118.3938701">
  <ele>-3.857</ele>
  <time>2026-09-01T01:13:18Z</time>
  <course>188.39</course>
  <speed>0.0282842712474619</speed>
  <fix>3d</fix>
</trkpt>
<trkpt lat="33.8103131" lon="-118.3938699">
  <ele>-3.76</ele>
  <time>2026-09-01T01:13:18Z</time>
  <course>276.19</course>
  <speed>0.0</speed>
  <fix>3d</fix>
</trkpt>
<trkpt lat="33.8103133" lon="-118.3938701">
  <ele>-3.857</ele>
  <time>2026-09-01T01:13:18Z</time>
  <course>188.4</course>
  <speed>0.0282842712474619</speed>
  <fix>3d</fix>
</trkpt>
<trkpt lat="33.8103131" lon="-118.3938699">
  <ele>-3.76</ele>
  <time>2026-09-01T01:13:18Z</time>
  <course>276.19</course>
  <speed>0.0</speed>
  <fix>3d</fix>
</trkpt>
<trkpt lat="33.8103133" lon="-118.3938701">
  <ele>-3.858</ele>
  <time>2026-09-01T01:13:18Z</time>
  <course>188.4</course>
  <speed>0.0282842712474619</speed>
  <fix>3d</fix>
</trkpt>
<trkpt lat="33.8103131" lon="-118.39387">
  <ele>-3.76</ele>
  <time>2026-09-01T01:13:18Z</time>
  <course>276.25</course>
  <speed>0.0</speed>
  <fix>3d</fix>
</trkpt>
<trkpt lat="33.8103133" lon="-118.3938701">
  <ele>-3.858</ele>
  <time>2026-09-01T01:13:18Z</time>
  <course>188.4</course>
  <speed>0.0282842712474619</speed>
  <fix>3d</fix>
</trkpt>
<trkpt lat="33.8103131" lon="-118.39387">
  <ele>-3.76</ele>
  <time>2026-09-01T01:13:18Z</time>
  <course>276.25</course>
  <speed>0.0</speed>
  <fix>3d</fix>
</trkpt>
<trkpt lat="33.8103133" lon="-118.3938701">
  <ele>-3.858</ele>
  <time>2026-09-01T01:13:18Z</time>
  <course>188.41</course>
  <speed>0.0282842712474619</speed>
  <fix>3d</fix>
</trkpt>
<trkpt lat="33.8103131" lon="-118.39387">
  <ele>-3.76</ele>
  <time>2026-09-01T01:13:18Z</time>
  <course>276.29</course>
  <speed>0.0</speed>
  <fix>3d</fix>
</trkpt>
<trkpt lat="33.8103133" lon="-118.3938701">
  <ele>-3.858</ele>
  <time>2026-09-01T01:13:18Z</time>
  <course>188.41</course>
  <speed>0.0282842712474619</speed>
  <fix>3d</fix>
</trkpt>
<trkpt lat="33.8103131" lon="-118.39387">
  <ele>-3.76</ele>
  <time>2026-09-01T01:13:18Z</time>
  <course>276.29</course>
  <speed>0.0</speed>
  <fix>3d</fix>
</trkpt>
<trkpt lat="33.8103133" lon="-118.3938701">
  <ele>-3.859</ele>
  <time>2026-09-01T01:13:18Z</time>
  <course>188.41</course>
  <speed>0.0282842712474619</speed>
  <fix>3d</fix>
</trkpt>
<trkpt lat="33.8103131" lon="-118.39387">
  <ele>-3.76</ele>
  <time>2026-09-01T01:13:18Z</time>
  <course>276.33</course>
  <speed>0.0</speed>
  <fix>3d</fix>
</trkpt>
<trkpt lat="33.8103133" lon="-118.3938701">
  <ele>-3.859</ele>
  <time>2026-09-01T01:13:18Z</time>
  <course>188.41</course>
  <speed>0.0282842712474619</speed>
  <fix>3d</fix>
</trkpt>
<trkpt lat="33.8103131" lon="-118.39387">
  <ele>-3.76</ele>
  <time>2026-09-01T01:13:18Z</time>
  <course>276.33</course>
  <speed>0.0</speed>
  <fix>3d</fix>
</trkpt>
<trkpt lat="33.8103133" lon="-118.3938701">
  <ele>-3.86</ele>
  <time>2026-09-01T01:13:18Z</time>
  <course>188.42</course>
  <speed>0.0282842712474619</speed>
  <fix>3d</fix>
</trkpt>
<trkpt lat="33.8103131" lon="-118.39387">
  <ele>-3.76</ele>
  <time>2026-09-01T01:13:18Z</time>
  <course>276.36</course>
  <speed>0.01</speed>
  <fix>3d</fix>
</trkpt>
<trkpt lat="33.8103133" lon="-118.3938701">
  <ele>-3.861</ele>
  <time>2026-09-01T01:13:18Z</time>
  <course>188.42</course>
  <speed>0.0282842712474619</speed>
  <fix>3d</fix>
</trkpt>
<trkpt lat="33.8103131" lon="-118.39387">
  <ele>-3.76</ele>
  <time>2026-09-01T01:13:18Z</time>
  <course>276.36</course>
  <speed>0.01</speed>
  <fix>3d</fix>
</trkpt>
<trkpt lat="33.8103133" lon="-118.3938702">
  <ele>-3.861</ele>
  <time>2026-09-01T01:13:18Z</time>
  <course>188.42</course>
  <speed>0.0282842712474619</speed>
  <fix>3d</fix>
</trkpt>
<trkpt lat="33.8103131" lon="-118.39387">
  <ele>-3.76</ele>
  <time>2026-09-01T01:13:18Z</time>
  <course>276.39</course>
  <speed>0.01</speed>
  <fix>3d</fix>
</trkpt>
<trkpt lat="33.8103133" lon="-118.3938702">
  <ele>-3.861</ele>
  <time>2026-09-01T01:13:18Z</time>
  <course>188.43</course>
  <speed>0.0282842712474619</speed>
  <fix>3d</fix>
</trkpt>
<trkpt lat="33.8103131" lon="-118.39387">
  <ele>-3.76</ele>
  <time>2026-09-01T01:13:18Z</time>
  <course>276.39</course>
  <speed>0.01</speed>
  <fix>3d</fix>
</trkpt>
<trkpt lat="33.8103133" lon="-118.3938702">
  <ele>-3.861</ele>
  <time>2026-09-01T01:13:18Z</time>
  <course>188.43</course>
  <speed>0.0282842712474619</speed>
  <fix>3d</fix>
</trkpt>
<trkpt lat="33.8103131" lon="-118.3938701">
  <ele>-3.76</ele>
  <time>2026-09-01T01:13:18Z</time>
  <course>276.42</course>
  <speed>0.01</speed>
  <fix>3d</fix>
</trkpt>
<trkpt lat="33.8103133" lon="-118.3938702">
  <ele>-3.861</ele>
  <time>2026-09-01T01:13:18Z</time>
  <course>188.43</course>
  <speed>0.0282842712474619</speed>
  <fix>3d</fix>
</trkpt>
<trkpt lat="33.8103131" lon="-118.3938701">
  <ele>-3.76</ele>
  <time>2026-09-01T01:13:18Z</time>
  <course>276.42</course>
  <speed>0.01</speed>
  <fix>3d</fix>
</trkpt>
<trkpt lat="33.8103133" lon="-118.3938702">
  <ele>-3.861</ele>
  <time>2026-09-01T01:13:18Z</time>
  <course>188.43</course>
  <speed>0.0282842712474619</speed>
  <fix>3d</fix>
</trkpt>
<trkpt lat="33.8103131" lon="-118.3938701">
  <ele>-3.76</ele>
  <time>2026-09-01T01:13:18Z</time>
  <course>276.45</course>
  <speed>0.01</speed>
  <fix>3d</fix>
</trkpt>
<trkpt lat="33.8103133" lon="-118.3938702">
  <ele>-3.861</ele>
  <time>2026-09-01T01:13:18Z</time>
  <course>188.44</course>
  <speed>0.0282842712474619</speed>
  <fix>3d</fix>
</trkpt>
<trkpt lat="33.8103131" lon="-118.3938701">
  <ele>-3.76</ele>
  <time>2026-09-01T01:13:18Z</time>
  <course>276.45</course>
  <speed>0.01</speed>
  <fix>3d</fix>
</trkpt>
<trkpt lat="33.8103133" lon="-118.3938702">
  <ele>-3.86</ele>
  <time>2026-09-01T01:13:18Z</time>
  <course>188.44</course>
  <speed>0.0282842712474619</speed>
  <fix>3d</fix>
</trkpt>
<trkpt lat="33.8103131" lon="-118.3938701">
  <ele>-3.75</ele>
  <time>2026-09-01T01:13:18Z</time>
  <course>276.48</course>
  <speed>0.01</speed>
  <fix>3d</fix>
</trkpt>
<trkpt lat="33.8103133" lon="-118.3938702">
  <ele>-3.857</ele>
  <time>2026-09-01T01:13:18Z</time>
  <course>188.44</course>
  <speed>0.0282842712474619</speed>
  <fix>3d</fix>
</trkpt>
<trkpt lat="33.8103131" lon="-118.3938701">
  <ele>-3.75</ele>
  <time>2026-09-01T01:13:18Z</time>
  <course>276.48</course>
  <speed>0.01</speed>
  <fix>3d</fix>
</trkpt>
<trkpt lat="33.8103133" lon="-118.3938702">
  <ele>-3.855</ele>
  <time>2026-09-01T01:13:18Z</time>
  <course>188.44</course>
  <speed>0.0282842712474619</speed>
  <fix>3d</fix>
</trkpt>
<trkpt lat="33.8103131" lon="-118.3938701">
  <ele>-3.75</ele>
  <time>2026-09-01T01:13:18Z</time>
  <course>276.5</course>
  <speed>0.01</speed>
  <fix>3d</fix>
</trkpt>
<trkpt lat="33.8103133" lon="-118.3938703">
  <ele>-3.854</ele>
  <time>2026-09-01T01:13:18Z</time>
  <course>188.45</course>
  <speed>0.0282842712474619</speed>
  <fix>3d</fix>
</trkpt>
<trkpt lat="33.8103131" lon="-118.3938701">
  <ele>-3.75</ele>
  <time>2026-09-01T01:13:18Z</time>
  <course>276.5</course>
  <speed>0.01</speed>
  <fix>3d</fix>
</trkpt>
<trkpt lat="33.8103133" lon="-118.3938703">
  <ele>-3.854</ele>
  <time>2026-09-01T01:13:18Z</time>
  <course>188.45</course>
  <speed>0.0282842712474619</speed>
  <fix>3d</fix>
</trkpt>
<trkpt lat="33.8103131" lon="-118.3938702">
  <ele>-3.75</ele>
  <time>2026-09-01T01:13:18Z</time>
  <course>276.52</course>
  <speed>0.01</speed>
  <fix>3d</fix>
</trkpt>
<trkpt lat="33.8103133" lon="-118.3938703">
  <ele>-3.855</ele>
  <time>2026-09-01T01:13:18Z</time>
  <course>188.45</course>
  <speed>0.0282842712474619</speed>
  <fix>3d</fix>
</trkpt>
<trkpt lat="33.8103131" lon="-118.3938702">
  <ele>-3.75</ele>
  <time>2026-09-01T01:13:18Z</time>
  <course>276.52</course>
  <speed>0.01</speed>
  <fix>3d</fix>
</trkpt>
<trkpt lat="33.8103133" lon="-118.3938703">
  <ele>-3.857</ele>
  <time>2026-09-01T01:13:18Z</time>
  <course>188.44</course>
  <speed>0.0282842712474619</speed>
  <fix>3d</fix>
</trkpt>
<trkpt lat="33.8103131" lon="-118.3938702">
  <ele>-3.75</ele>
  <time>2026-09-01T01:13:18Z</time>
  <course>276.54</course>
  <speed>0.01</speed>
  <fix>3d</fix>
</trkpt>
<trkpt lat="33.8103133" lon="-118.3938703">
  <ele>-3.858</ele>
  <time>2026-09-01T01:13:18Z</time>
  <course>188.43</course>
  <speed>0.0282842712474619</speed>
  <fix>3d</fix>
</trkpt>
<trkpt lat="33.8103131" lon="-118.3938702">
  <ele>-3.75</ele>
  <time>2026-09-01T01:13:18Z</time>
  <course>276.54</course>
  <speed>0.01</speed>
  <fix>3d</fix>
</trkpt>
<trkpt lat="33.8103133" lon="-118.3938703">
  <ele>-3.859</ele>
  <time>2026-09-01T01:13:18Z</time>
  <course>188.41</course>
  <speed>0.0282842712474619</speed>
  <fix>3d</fix>
</trkpt>
<trkpt lat="33.8103131" lon="-118.3938702">
  <ele>-3.76</ele>
  <time>2026-09-01T01:13:18Z</time>
  <course>276.55</course>
  <speed>0.01</speed>
  <fix>3d</fix>
</trkpt>
<trkpt lat="33.8103133" lon="-118.3938703">
  <ele>-3.86</ele>
  <time>2026-09-01T01:13:18Z</time>
  <course>188.4</course>
  <speed>0.0282842712474619</speed>
  <fix>3d</fix>
</trkpt>
<trkpt lat="33.8103131" lon="-118.3938702">
  <ele>-3.76</ele>
  <time>2026-09-01T01:13:18Z</time>
  <course>276.55</course>
  <speed>0.01</speed>
  <fix>3d</fix>
</trkpt>
<trkpt lat="33.8103133" lon="-118.3938704">
  <ele>-3.86</ele>
  <time>2026-09-01T01:13:18Z</time>
  <course>188.37</course>
  <speed>0.0282842712474619</speed>
  <fix>3d</fix>
</trkpt>
<trkpt lat="33.8103131" lon="-118.3938703">
  <ele>-3.76</ele>
  <time>2026-09-01T01:13:18Z</time>
  <course>276.57</course>
  <speed>0.01</speed>
  <fix>3d</fix>
</trkpt>
<trkpt lat="33.8103133" lon="-118.3938704">
  <ele>-3.859</ele>
  <time>2026-09-01T01:13:18Z</time>
  <course>188.35</course>
  <speed>0.0282842712474619</speed>
  <fix>3d</fix>
</trkpt>
<trkpt lat="33.8103131" lon="-118.3938703">
  <ele>-3.76</ele>
  <time>2026-09-01T01:13:18Z</time>
  <course>276.57</course>
  <speed>0.01</speed>
  <fix>3d</fix>
</trkpt>
<trkpt lat="33.8103133" lon="-118.3938704">
  <ele>-3.858</ele>
  <time>2026-09-01T01:13:18Z</time>
  <course>188.32</course>
  <speed>0.0282842712474619</speed>
  <fix>3d</fix>
</trkpt>
<trkpt lat="33.8103131" lon="-118.3938703">
  <ele>-3.76</ele>
  <time>2026-09-01T01:13:18Z</time>
  <course>276.59</course>
  <speed>0.01</speed>
  <fix>3d</fix>
</trkpt>
<trkpt lat="33.8103133" lon="-118.3938704">
  <ele>-3.857</ele>
  <time>2026-09-01T01:13:18Z</time>
  <course>188.29</course>
  <speed>0.0282842712474619</speed>
  <fix>3d</fix>
</trkpt>
<trkpt lat="33.8103131" lon="-118.3938703">
  <ele>-3.76</ele>
  <time>2026-09-01T01:13:18Z</time>
  <course>276.59</course>
  <speed>0.01</speed>
  <fix>3d</fix>
</trkpt>
<trkpt lat="33.8103133" lon="-118.3938704">
  <ele>-3.857</ele>
  <time>2026-09-01T01:13:18Z</time>
  <course>188.27</course>
  <speed>0.0282842712474619</speed>
  <fix>3d</fix>
</trkpt>
<trkpt lat="33.8103131" lon="-118.3938703">
  <ele>-3.76</ele>
  <time>2026-09-01T01:13:18Z</time>
  <course>276.6</course>
  <speed>0.01</speed>
  <fix>3d</fix>
</trkpt>
<trkpt lat="33.8103133" lon="-118.3938704">
  <ele>-3.858</ele>
  <time>2026-09-01T01:13:18Z</time>
  <course>188.24</course>
  <speed>0.0282842712474619</speed>
  <fix>3d</fix>
</trkpt>
<trkpt lat="33.8103131" lon="-118.3938703">
  <ele>-3.76</ele>
  <time>2026-09-01T01:13:18Z</time>
  <course>276.6</course>
  <speed>0.01</speed>
  <fix>3d</fix>
</trkpt>
<trkpt lat="33.8103133" lon="-118.3938704">
  <ele>-3.859</ele>
  <time>2026-09-01T01:13:18Z</time>
  <course>188.22</course>
  <speed>0.0282842712474619</speed>
  <fix>3d</fix>
</trkpt>
<trkpt lat="33.8103131" lon="-118.3938703">
  <ele>-3.76</ele>
  <time>2026-09-01T01:13:18Z</time>
  <course>276.61</course>
  <speed>0.01</speed>
  <fix>3d</fix>
</trkpt>
<trkpt lat="33.8103133" lon="-118.3938705">
  <ele>-3.86</ele>
  <time>2026-09-01T01:13:18Z</time>
  <course>188.19</course>
  <speed>0.0282842712474619</speed>
  <fix>3d</fix>
</trkpt>
<trkpt lat="33.8103131" lon="-118.3938703">
  <ele>-3.76</ele>
  <time>2026-09-01T01:13:18Z</time>
  <course>276.61</course>
  <speed>0.01</speed>
  <fix>3d</fix>
</trkpt>
<trkpt lat="33.8103133" lon="-118.3938705">
  <ele>-3.859</ele>
  <time>2026-09-01T01:13:18Z</time>
  <course>188.17</course>
  <speed>0.0282842712474619</speed>
  <fix>3d</fix>
</trkpt>
<trkpt lat="33.8103131" lon="-118.3938704">
  <ele>-3.76</ele>
  <time>2026-09-01T01:13:18Z</time>
  <course>276.61</course>
  <speed>0.01</speed>
  <fix>3d</fix>
</trkpt>
<trkpt lat="33.8103133" lon="-118.3938705">
  <ele>-3.859</ele>
  <time>2026-09-01T01:13:18Z</time>
  <course>188.15</course>
  <speed>0.0282842712474619</speed>
  <fix>3d</fix>
</trkpt>
<trkpt lat="33.8103131" lon="-118.3938704">
  <ele>-3.76</ele>
  <time>2026-09-01T01:13:18Z</time>
  <course>276.61</course>
  <speed>0.01</speed>
  <fix>3d</fix>
</trkpt>
<trkpt lat="33.8103133" lon="-118.3938705">
  <ele>-3.858</ele>
  <time>2026-09-01T01:13:18Z</time>
  <course>188.12</course>
  <speed>0.0282842712474619</speed>
  <fix>3d</fix>
</trkpt>
<trkpt lat="33.8103131" lon="-118.3938704">
  <ele>-3.76</ele>
  <time>2026-09-01T01:13:18Z</time>
  <course>276.62</course>
  <speed>0.01</speed>
  <fix>3d</fix>
</trkpt>
<trkpt lat="33.8103133" lon="-118.3938705">
  <ele>-3.858</ele>
  <time>2026-09-01T01:13:18Z</time>
  <course>188.1</course>
  <speed>0.0282842712474619</speed>
  <fix>3d</fix>
</trkpt>
<trkpt lat="33.8103131" lon="-118.3938704">
  <ele>-3.76</ele>
  <time>2026-09-01T01:13:18Z</time>
  <course>276.62</course>
  <speed>0.01</speed>
  <fix>3d</fix>
</trkpt>
<trkpt lat="33.8103133" lon="-118.3938705">
  <ele>-3.858</ele>
  <time>2026-09-01T01:13:18Z</time>
  <course>188.07</course>
  <speed>0.0282842712474619</speed>
  <fix>3d</fix>
</trkpt>
<trkpt lat="33.8103131" lon="-118.3938704">
  <ele>-3.76</ele>
  <time>2026-09-01T01:13:18Z</time>
  <course>276.62</course>
  <speed>0.01</speed>
  <fix>3d</fix>
</trkpt>
<trkpt lat="33.8103133" lon="-118.3938706">
  <ele>-3.857</ele>
  <time>2026-09-01T01:13:18Z</time>
  <course>188.05</course>
  <speed>0.0282842712474619</speed>
  <fix>3d</fix>
</trkpt>
<trkpt lat="33.8103131" lon="-118.3938704">
  <ele>-3.76</ele>
  <time>2026-09-01T01:13:18Z</time>
  <course>276.62</course>
  <speed>0.01</speed>
  <fix>3d</fix>
</trkpt>
<trkpt lat="33.8103133" lon="-118.3938706">
  <ele>-3.859</ele>
  <time>2026-09-01T01:13:18Z</time>
  <course>188.03</course>
  <speed>0.0282842712474619</speed>
  <fix>3d</fix>
</trkpt>
<trkpt lat="33.8103131" lon="-118.3938705">
  <ele>-3.76</ele>
  <time>2026-09-01T01:13:18Z</time>
  <course>276.63</course>
  <speed>0.01</speed>
  <fix>3d</fix>
</trkpt>
<trkpt lat="33.8103133" lon="-118.3938706">
  <ele>-3.869</ele>
  <time>2026-09-01T01:13:18Z</time>
  <course>188.0</course>
  <speed>0.0282842712474619</speed>
  <fix>3d</fix>
</trkpt>
<trkpt lat="33.8103131" lon="-118.3938705">
  <ele>-3.76</ele>
  <time>2026-09-01T01:13:18Z</time>
  <course>276.63</course>
  <speed>0.01</speed>
  <fix>3d</fix>
</trkpt>
<trkpt lat="33.8103133" lon="-118.3938706">
  <ele>-3.878</ele>
  <time>2026-09-01T01:13:18Z</time>
  <course>187.98</course>
  <speed>0.0282842712474619</speed>
  <fix>3d</fix>
</trkpt>
<trkpt lat="33.8103131" lon="-118.3938705">
  <ele>-3.77</ele>
  <time>2026-09-01T01:13:18Z</time>
  <course>276.63</course>
  <speed>0.01</speed>
  <fix>3d</fix>
</trkpt>
<trkpt lat="33.8103133" lon="-118.3938706">
  <ele>-3.883</ele>
  <time>2026-09-01T01:13:18Z</time>
  <course>187.96</course>
  <speed>0.0282842712474619</speed>
  <fix>3d</fix>
</trkpt>
<trkpt lat="33.8103131" lon="-118.3938705">
  <ele>-3.77</ele>
  <time>2026-09-01T01:13:18Z</time>
  <course>276.63</course>
  <speed>0.01</speed>
  <fix>3d</fix>
</trkpt>
<trkpt lat="33.8103133" lon="-118.3938706">
  <ele>-3.885</ele>
  <time>2026-09-01T01:13:18Z</time>
  <course>187.94</course>
  <speed>0.0282842712474619</speed>
  <fix>3d</fix>
</trkpt>
<trkpt lat="33.8103131" lon="-118.3938705">
  <ele>-3.78</ele>
  <time>2026-09-01T01:13:18Z</time>
  <course>276.63</course>
  <speed>0.01</speed>
  <fix>3d</fix>
</trkpt>
<trkpt lat="33.8103133" lon="-118.3938706">
  <ele>-3.884</ele>
  <time>2026-09-01T01:13:18Z</time>
  <course>187.91</course>
  <speed>0.0282842712474619</speed>
  <fix>3d</fix>
</trkpt>
<trkpt lat="33.8103131" lon="-118.3938705">
  <ele>-3.78</ele>
  <time>2026-09-01T01:13:18Z</time>
  <course>276.63</course>
  <speed>0.01</speed>
  <fix>3d</fix>
</trkpt>
<trkpt lat="33.8103133" lon="-118.3938707">
  <ele>-3.881</ele>
  <time>2026-09-01T01:13:18Z</time>
  <course>187.89</course>
  <speed>0.0282842712474619</speed>
  <fix>3d</fix>
</trkpt>
<trkpt lat="33.8103131" lon="-118.3938706">
  <ele>-3.79</ele>
  <time>2026-09-01T01:13:18Z</time>
  <course>276.62</course>
  <speed>0.01</speed>
  <fix>3d</fix>
</trkpt>
<trkpt lat="33.8103133" lon="-118.3938707">
  <ele>-3.878</ele>
  <time>2026-09-01T01:13:18Z</time>
  <course>187.87</course>
  <speed>0.0282842712474619</speed>
  <fix>3d</fix>
</trkpt>
<trkpt lat="33.8103131" lon="-118.3938706">
  <ele>-3.79</ele>
  <time>2026-09-01T01:13:18Z</time>
  <course>276.62</course>
  <speed>0.01</speed>
  <fix>3d</fix>
</trkpt>
<trkpt lat="33.8103133" lon="-118.3938707">
  <ele>-3.875</ele>
  <time>2026-09-01T01:13:18Z</time>
  <course>187.85</course>
  <speed>0.0282842712474619</speed>
  <fix>3d</fix>
</trkpt>
<trkpt lat="33.8103131" lon="-118.3938706">
  <ele>-3.78</ele>
  <time>2026-09-01T01:13:18Z</time>
  <course>276.61</course>
  <speed>0.01</speed>
  <fix>3d</fix>
</trkpt>
<trkpt lat="33.8103133" lon="-118.3938707">
  <ele>-3.873</ele>
  <time>2026-09-01T01:13:18Z</time>
  <course>187.83</course>
  <speed>0.0282842712474619</speed>
  <fix>3d</fix>
</trkpt>
<trkpt lat="33.8103131" lon="-118.3938706">
  <ele>-3.78</ele>
  <time>2026-09-01T01:13:18Z</time>
  <course>276.61</course>
  <speed>0.01</speed>
  <fix>3d</fix>
</trkpt>
<trkpt lat="33.8103133" lon="-118.3938707">
  <ele>-3.871</ele>
  <time>2026-09-01T01:13:18Z</time>
  <course>187.8</course>
  <speed>0.0282842712474619</speed>
  <fix>3d</fix>
</trkpt>
<trkpt lat="33.8103131" lon="-118.3938706">
  <ele>-3.78</ele>
  <time>2026-09-01T01:13:18Z</time>
  <course>276.61</course>
  <speed>0.01</speed>
  <fix>3d</fix>
</trkpt>
<trkpt lat="33.8103133" lon="-118.3938707">
  <ele>-3.871</ele>
  <time>2026-09-01T01:13:18Z</time>
  <course>187.78</course>
  <speed>0.0282842712474619</speed>
  <fix>3d</fix>
</trkpt>
<trkpt lat="33.8103131" lon="-118.3938706">
  <ele>-3.78</ele>
  <time>2026-09-01T01:13:18Z</time>
  <course>276.61</course>
  <speed>0.01</speed>
  <fix>3d</fix>
</trkpt>
<trkpt lat="33.8103133" lon="-118.3938707">
  <ele>-3.871</ele>
  <time>2026-09-01T01:13:18Z</time>
  <course>187.76</course>
  <speed>0.0282842712474619</speed>
  <fix>3d</fix>
</trkpt>
<trkpt lat="33.8103131" lon="-118.3938706">
  <ele>-3.78</ele>
  <time>2026-09-01T01:13:18Z</time>
  <course>276.6</course>
  <speed>0.01</speed>
  <fix>3d</fix>
</trkpt>
<trkpt lat="33.8103133" lon="-118.3938707">
  <ele>-3.871</ele>
  <time>2026-09-01T01:13:18Z</time>
  <course>187.74</course>
  <speed>0.0282842712474619</speed>
  <fix>3d</fix>
</trkpt>
<trkpt lat="33.8103131" lon="-118.3938706">
  <ele>-3.78</ele>
  <time>2026-09-01T01:13:18Z</time>
  <course>276.6</course>
  <speed>0.01</speed>
  <fix>3d</fix>
</trkpt>
<trkpt lat="33.8103133" lon="-118.3938708">
  <ele>-3.87</ele>
  <time>2026-09-01T01:13:18Z</time>
  <course>187.72</course>
  <speed>0.0282842712474619</speed>
  <fix>3d</fix>
</trkpt>
<trkpt lat="33.8103131" lon="-118.3938707">
  <ele>-3.77</ele>
  <time>2026-09-01T01:13:18Z</time>
  <course>276.6</course>
  <speed>0.01</speed>
  <fix>3d</fix>
</trkpt>
<trkpt lat="33.8103133" lon="-118.3938708">
  <ele>-3.869</ele>
  <time>2026-09-01T01:13:18Z</time>
  <course>187.7</course>
  <speed>0.0282842712474619</speed>
  <fix>3d</fix>
</trkpt>
<trkpt lat="33.8103131" lon="-118.3938707">
  <ele>-3.77</ele>
  <time>2026-09-01T01:13:18Z</time>
  <course>276.6</course>
  <speed>0.01</speed>
  <fix>3d</fix>
</trkpt>
<trkpt lat="33.8103133" lon="-118.3938708">
  <ele>-3.867</ele>
  <time>2026-09-01T01:13:18Z</time>
  <course>187.68</course>
  <speed>0.0282842712474619</speed>
  <fix>3d</fix>
</trkpt>
<trkpt lat="33.8103131" lon="-118.3938707">
  <ele>-3.77</ele>
  <time>2026-09-01T01:13:18Z</time>
  <course>276.59</course>
  <speed>0.01</speed>
  <fix>3d</fix>
</trkpt>
<trkpt lat="33.8103133" lon="-118.3938708">
  <ele>-3.865</ele>
  <time>2026-09-01T01:13:18Z</time>
  <course>187.66</course>
  <speed>0.0282842712474619</speed>
  <fix>3d</fix>
</trkpt>
<trkpt lat="33.8103131" lon="-118.3938707">
  <ele>-3.77</ele>
  <time>2026-09-01T01:13:18Z</time>
  <course>276.59</course>
  <speed>0.01</speed>
  <fix>3d</fix>
</trkpt>
<trkpt lat="33.8103133" lon="-118.3938708">
  <ele>-3.863</ele>
  <time>2026-09-01T01:13:18Z</time>
  <course>187.64</course>
  <speed>0.0282842712474619</speed>
  <fix>3d</fix>
</trkpt>
<trkpt lat="33.8103131" lon="-118.3938707">
  <ele>-3.76</ele>
  <time>2026-09-01T01:13:18Z</time>
  <course>276.59</course>
  <speed>0.0</speed>
  <fix>3d</fix>
</trkpt>
<trkpt lat="33.8103133" lon="-118.3938708">
  <ele>-3.862</ele>
  <time>2026-09-01T01:13:18Z</time>
  <course>187.62</course>
  <speed>0.0282842712474619</speed>
  <fix>3d</fix>
</trkpt>
<trkpt lat="33.8103131" lon="-118.3938707">
  <ele>-3.76</ele>
  <time>2026-09-01T01:13:18Z</time>
  <course>276.59</course>
  <speed>0.0</speed>
  <fix>3d</fix>
</trkpt>
<trkpt lat="33.8103133" lon="-118.3938708">
  <ele>-3.862</ele>
  <time>2026-09-01T01:13:18Z</time>
  <course>187.6</course>
  <speed>0.0282842712474619</speed>
  <fix>3d</fix>
</trkpt>
<trkpt lat="33.8103131" lon="-118.3938707">
  <ele>-3.76</ele>
  <time>2026-09-01T01:13:18Z</time>
  <course>276.6</course>
  <speed>0.0</speed>
  <fix>3d</fix>
</trkpt>
<trkpt lat="33.8103133" lon="-118.3938708">
  <ele>-3.862</ele>
  <time>2026-09-01T01:13:18Z</time>
  <course>187.58</course>
  <speed>0.0282842712474619</speed>
  <fix>3d</fix>
</trkpt>
<trkpt lat="33.8103131" lon="-118.3938707">
  <ele>-3.76</ele>
  <time>2026-09-01T01:13:18Z</time>
  <course>276.6</course>
  <speed>0.0</speed>
  <fix>3d</fix>
</trkpt>
<trkpt lat="33.8103133" lon="-118.3938708">
  <ele>-3.862</ele>
  <time>2026-09-01T01:13:18Z</time>
  <course>187.56</course>
  <speed>0.0282842712474619</speed>
  <fix>3d</fix>
</trkpt>
<trkpt lat="33.8103131" lon="-118.3938707">
  <ele>-3.76</ele>
  <time>2026-09-01T01:13:18Z</time>
  <course>276.61</course>
  <speed>0.0</speed>
  <fix>3d</fix>
</trkpt>
<trkpt lat="33.8103133" lon="-118.3938708">
  <ele>-3.862</ele>
  <time>2026-09-01T01:13:18Z</time>
  <course>187.54</course>
  <speed>0.0282842712474619</speed>
  <fix>3d</fix>
</trkpt>
<trkpt lat="33.8103131" lon="-118.3938707">
  <ele>-3.76</ele>
  <time>2026-09-01T01:13:18Z</time>
  <course>276.61</course>
  <speed>0.0</speed>
  <fix>3d</fix>
</trkpt>
<trkpt lat="33.8103133" lon="-118.3938708">
  <ele>-3.861</ele>
  <time>2026-09-01T01:13:18Z</time>
  <course>187.52</course>
  <speed>0.0282842712474619</speed>
  <fix>3d</fix>
</trkpt>
<trkpt lat="33.8103131" lon="-118.3938707">
  <ele>-3.76</ele>
  <time>2026-09-01T01:13:18Z</time>
  <course>276.62</course>
  <speed>0.0</speed>
  <fix>3d</fix>
</trkpt>
<trkpt lat="33.8103133" lon="-118.3938708">
  <ele>-3.859</ele>
  <time>2026-09-01T01:13:18Z</time>
  <course>187.5</course>
  <speed>0.0282842712474619</speed>
  <fix>3d</fix>
</trkpt>
<trkpt lat="33.8103131" lon="-118.3938707">
  <ele>-3.76</ele>
  <time>2026-09-01T01:13:18Z</time>
  <course>276.62</course>
  <speed>0.0</speed>
  <fix>3d</fix>
</trkpt>
<trkpt lat="33.8103133" lon="-118.3938709">
  <ele>-3.857</ele>
  <time>2026-09-01T01:13:18Z</time>
  <course>187.48</course>
  <speed>0.022360679774997897</speed>
  <fix>3d</fix>
</trkpt>
<trkpt lat="33.8103131" lon="-118.3938707">
  <ele>-3.76</ele>
  <time>2026-09-01T01:13:18Z</time>
  <course>276.63</course>
  <speed>0.0</speed>
  <fix>3d</fix>
</trkpt>
<trkpt lat="33.8103133" lon="-118.3938709">
  <ele>-3.855</ele>
  <time>2026-09-01T01:13:18Z</time>
  <course>187.46</course>
  <speed>0.022360679774997897</speed>
  <fix>3d</fix>
</trkpt>
<trkpt lat="33.8103131" lon="-118.3938707">
  <ele>-3.76</ele>
  <time>2026-09-01T01:13:18Z</time>
  <course>276.63</course>
  <speed>0.0</speed>
  <fix>3d</fix>
</trkpt>
<trkpt lat="33.8103133" lon="-118.3938709">
  <ele>-3.855</ele>
  <time>2026-09-01T01:13:18Z</time>
  <course>187.44</course>
  <speed>0.022360679774997897</speed>
  <fix>3d</fix>
</trkpt>
<trkpt lat="33.8103131" lon="-118.3938707">
  <ele>-3.76</ele>
  <time>2026-09-01T01:13:18Z</time>
  <course>276.64</course>
  <speed>0.0</speed>
  <fix>3d</fix>
</trkpt>
<trkpt lat="33.8103133" lon="-118.3938709">
  <ele>-3.857</ele>
  <time>2026-09-01T01:13:18Z</time>
  <course>187.43</course>
  <speed>0.022360679774997897</speed>
  <fix>3d</fix>
</trkpt>
<trkpt lat="33.8103131" lon="-118.3938707">
  <ele>-3.76</ele>
  <time>2026-09-01T01:13:18Z</time>
  <course>276.64</course>
  <speed>0.0</speed>
  <fix>3d</fix>
</trkpt>
<trkpt lat="33.8103133" lon="-118.3938709">
  <ele>-3.858</ele>
  <time>2026-09-01T01:13:18Z</time>
  <course>187.41</course>
  <speed>0.022360679774997897</speed>
  <fix>3d</fix>
</trkpt>
<trkpt lat="33.8103131" lon="-118.3938707">
  <ele>-3.76</ele>
  <time>2026-09-01T01:13:18Z</time>
  <course>276.66</course>
  <speed>0.0</speed>
  <fix>3d</fix>
</trkpt>
<trkpt lat="33.8103133" lon="-118.3938709">
  <ele>-3.859</ele>
  <time>2026-09-01T01:13:18Z</time>
  <course>187.39</course>
  <speed>0.022360679774997897</speed>
  <fix>3d</fix>
</trkpt>
<trkpt lat="33.8103131" lon="-118.3938707">
  <ele>-3.76</ele>
  <time>2026-09-01T01:13:18Z</time>
  <course>276.66</course>
  <speed>0.0</speed>
  <fix>3d</fix>
</trkpt>
<trkpt lat="33.8103133" lon="-118.3938709">
  <ele>-3.86</ele>
  <time>2026-09-01T01:13:18Z</time>
  <course>187.37</course>
  <speed>0.022360679774997897</speed>
  <fix>3d</fix>
</trkpt>
<trkpt lat="33.8103131" lon="-118.3938707">
  <ele>-3.76</ele>
  <time>2026-09-01T01:13:18Z</time>
  <course>276.7</course>
  <speed>0.0</speed>
  <fix>3d</fix>
</trkpt>
<trkpt lat="33.8103133" lon="-118.3938709">
  <ele>-3.859</ele>
  <time>2026-09-01T01:13:18Z</time>
  <course>187.35</course>
  <speed>0.022360679774997897</speed>
  <fix>3d</fix>
</trkpt>
<trkpt lat="33.8103131" lon="-118.3938707">
  <ele>-3.76</ele>
  <time>2026-09-01T01:13:18Z</time>
  <course>276.7</course>
  <speed>0.0</speed>
  <fix>3d</fix>
</trkpt>
<trkpt lat="33.8103133" lon="-118.3938709">
  <ele>-3.858</ele>
  <time>2026-09-01T01:13:18Z</time>
  <course>187.33</course>
  <speed>0.022360679774997897</speed>
  <fix>3d</fix>
</trkpt>
<trkpt lat="33.8103131" lon="-118.3938708">
  <ele>-3.76</ele>
  <time>2026-09-01T01:13:18Z</time>
  <course>276.75</course>
  <speed>0.0</speed>
  <fix>3d</fix>
</trkpt>
<trkpt lat="33.8103133" lon="-118.3938709">
  <ele>-3.858</ele>
  <time>2026-09-01T01:13:18Z</time>
  <course>187.32</course>
  <speed>0.022360679774997897</speed>
  <fix>3d</fix>
</trkpt>
<trkpt lat="33.8103131" lon="-118.3938708">
  <ele>-3.76</ele>
  <time>2026-09-01T01:13:18Z</time>
  <course>276.75</course>
  <speed>0.0</speed>
  <fix>3d</fix>
</trkpt>
<trkpt lat="33.8103133" lon="-118.3938709">
  <ele>-3.86</ele>
  <time>2026-09-01T01:13:18Z</time>
  <course>187.3</course>
  <speed>0.022360679774997897</speed>
  <fix>3d</fix>
</trkpt>
<trkpt lat="33.8103131" lon="-118.3938709">
  <ele>-3.77</ele>
  <time>2026-09-01T01:13:18Z</time>
  <course>276.81</course>
  <speed>0.0</speed>
  <fix>3d</fix>
</trkpt>
<trkpt lat="33.8103133" lon="-118.3938709">
  <ele>-3.862</ele>
  <time>2026-09-01T01:13:18Z</time>
  <course>187.28</course>
  <speed>0.022360679774997897</speed>
  <fix>3d</fix>
</trkpt>
<trkpt lat="33.8103131" lon="-118.3938709">
  <ele>-3.77</ele>
  <time>2026-09-01T01:13:18Z</time>
  <course>276.81</course>
  <speed>0.0</speed>
  <fix>3d</fix>
</trkpt>
<trkpt lat="33.8103133" lon="-118.3938709">
  <ele>-3.864</ele>
  <time>2026-09-01T01:13:18Z</time>
  <course>187.26</course>
  <speed>0.022360679774997897</speed>
  <fix>3d</fix>
</trkpt>
<trkpt lat="33.8103131" lon="-118.3938709">
  <ele>-3.77</ele>
  <time>2026-09-01T01:13:18Z</time>
  <course>276.87</course>
  <speed>0.0</speed>
  <fix>3d</fix>
</trkpt>
<trkpt lat="33.8103133" lon="-118.3938709">
  <ele>-3.866</ele>
  <time>2026-09-01T01:13:18Z</time>
  <course>187.24</course>
  <speed>0.022360679774997897</speed>
  <fix>3d</fix>
</trkpt>
<trkpt lat="33.8103131" lon="-118.3938709">
  <ele>-3.77</ele>
  <time>2026-09-01T01:13:18Z</time>
  <course>276.87</course>
  <speed>0.0</speed>
  <fix>3d</fix>
</trkpt>
<trkpt lat="33.8103133" lon="-118.3938709">
  <ele>-3.867</ele>
  <time>2026-09-01T01:13:18Z</time>
  <course>187.22</course>
  <speed>0.022360679774997897</speed>
  <fix>3d</fix>
</trkpt>
<trkpt lat="33.8103131" lon="-118.3938709">
  <ele>-3.77</ele>
  <time>2026-09-01T01:13:18Z</time>
  <course>276.95</course>
  <speed>0.0</speed>
  <fix>3d</fix>
</trkpt>
<trkpt lat="33.8103133" lon="-118.3938709">
  <ele>-3.867</ele>
  <time>2026-09-01T01:13:18Z</time>
  <course>187.21</course>
  <speed>0.022360679774997897</speed>
  <fix>3d</fix>
</trkpt>
<trkpt lat="33.8103131" lon="-118.3938709">
  <ele>-3.77</ele>
  <time>2026-09-01T01:13:18Z</time>
  <course>276.95</course>
  <speed>0.0</speed>
  <fix>3d</fix>
</trkpt>
<trkpt lat="33.8103133" lon="-118.3938709">
  <ele>-3.866</ele>
  <time>2026-09-01T01:13:18Z</time>
  <course>187.19</course>
  <speed>0.022360679774997897</speed>
  <fix>3d</fix>
</trkpt>
<trkpt lat="33.8103132" lon="-118.3938709">
  <ele>-3.76</ele>
  <time>2026-09-01T01:13:18Z</time>
  <course>277.06</course>
  <speed>0.0</speed>
  <fix>3d</fix>
</trkpt>
<trkpt lat="33.8103133" lon="-118.3938709">
  <ele>-3.863</ele>
  <time>2026-09-01T01:13:18Z</time>
  <course>187.17</course>
  <speed>0.022360679774997897</speed>
  <fix>3d</fix>
</trkpt>
<trkpt lat="33.8103132" lon="-118.3938709">
  <ele>-3.76</ele>
  <time>2026-09-01T01:13:18Z</time>
  <course>277.06</course>
  <speed>0.0</speed>
  <fix>3d</fix>
</trkpt>
<trkpt lat="33.8103133" lon="-118.3938709">
  <ele>-3.86</ele>
  <time>2026-09-01T01:13:18Z</time>
  <course>187.15</course>
  <speed>0.022360679774997897</speed>
  <fix>3d</fix>
</trkpt>
<trkpt lat="33.8103133" lon="-118.3938709">
  <ele>-3.76</ele>
  <time>2026-09-01T01:13:18Z</time>
  <course>277.23</course>
  <speed>0.0</speed>
  <fix>3d</fix>
</trkpt>
<trkpt lat="33.8103133" lon="-118.3938709">
  <ele>-3.857</ele>
  <time>2026-09-01T01:13:18Z</time>
  <course>187.13</course>
  <speed>0.022360679774997897</speed>
  <fix>3d</fix>
</trkpt>
<trkpt lat="33.8103133" lon="-118.3938709">
  <ele>-3.76</ele>
  <time>2026-09-01T01:13:18Z</time>
  <course>277.23</course>
  <speed>0.0</speed>
  <fix>3d</fix>
</trkpt>
<trkpt lat="33.8103133" lon="-118.3938709">
  <ele>-3.854</ele>
  <time>2026-09-01T01:13:18Z</time>
  <course>187.12</course>
  <speed>0.022360679774997897</speed>
  <fix>3d</fix>
</trkpt>
<trkpt lat="33.8103133" lon="-118.3938709">
  <ele>-3.75</ele>
  <time>2026-09-01T01:13:18Z</time>
  <course>277.46</course>
  <speed>0.0</speed>
  <fix>3d</fix>
</trkpt>
<trkpt lat="33.8103133" lon="-118.393871">
  <ele>-3.851</ele>
  <time>2026-09-01T01:13:18Z</time>
  <course>187.1</course>
  <speed>0.022360679774997897</speed>
  <fix>3d</fix>
</trkpt>
<trkpt lat="33.8103133" lon="-118.3938709">
  <ele>-3.75</ele>
  <time>2026-09-01T01:13:18Z</time>
  <course>277.46</course>
  <speed>0.0</speed>
  <fix>3d</fix>
</trkpt>
<trkpt lat="33.8103133" lon="-118.393871">
  <ele>-3.85</ele>
  <time>2026-09-01T01:13:18Z</time>
  <course>187.08</course>
  <speed>0.022360679774997897</speed>
  <fix>3d</fix>
</trkpt>
<trkpt lat="33.8103133" lon="-118.3938709">
  <ele>-3.75</ele>
  <time>2026-09-01T01:13:18Z</time>
  <course>277.76</course>
  <speed>0.0</speed>
  <fix>3d</fix>
</trkpt>
<trkpt lat="33.8103133" lon="-118.393871">
  <ele>-3.851</ele>
  <time>2026-09-01T01:13:18Z</time>
  <course>187.06</course>
  <speed>0.022360679774997897</speed>
  <fix>3d</fix>
</trkpt>
<trkpt lat="33.8103133" lon="-118.3938709">
  <ele>-3.75</ele>
  <time>2026-09-01T01:13:18Z</time>
  <course>277.76</course>
  <speed>0.0</speed>
  <fix>3d</fix>
</trkpt>
<trkpt lat="33.8103133" lon="-118.393871">
  <ele>-3.853</ele>
  <time>2026-09-01T01:13:18Z</time>
  <course>187.05</course>
  <speed>0.022360679774997897</speed>
  <fix>3d</fix>
</trkpt>
<trkpt lat="33.8103133" lon="-118.3938709">
  <ele>-3.75</ele>
  <time>2026-09-01T01:13:18Z</time>
  <course>278.2</course>
  <speed>0.0</speed>
  <fix>3d</fix>
</trkpt>
<trkpt lat="33.8103134" lon="-118.393871">
  <ele>-3.855</ele>
  <time>2026-09-01T01:13:18Z</time>
  <course>187.03</course>
  <speed>0.022360679774997897</speed>
  <fix>3d</fix>
</trkpt>
<trkpt lat="33.8103133" lon="-118.3938709">
  <ele>-3.75</ele>
  <time>2026-09-01T01:13:18Z</time>
  <course>278.2</course>
  <speed>0.0</speed>
  <fix>3d</fix>
</trkpt>
<trkpt lat="33.8103134" lon="-118.393871">
  <ele>-3.858</ele>
  <time>2026-09-01T01:13:18Z</time>
  <course>187.01</course>
  <speed>0.022360679774997897</speed>
  <fix>3d</fix>
</trkpt>
<trkpt lat="33.8103133" lon="-118.3938709">
  <ele>-3.76</ele>
  <time>2026-09-01T01:13:18Z</time>
  <course>279.08</course>
  <speed>0.0</speed>
  <fix>3d</fix>
</trkpt>
<trkpt lat="33.8103134" lon="-118.393871">
  <ele>-3.859</ele>
  <time>2026-09-01T01:13:18Z</time>
  <course>187.0</course>
  <speed>0.022360679774997897</speed>
  <fix>3d</fix>
</trkpt>
<trkpt lat="33.8103133" lon="-118.3938709">
  <ele>-3.76</ele>
  <time>2026-09-01T01:13:18Z</time>
  <course>279.08</course>
  <speed>0.0</speed>
  <fix>3d</fix>
</trkpt>
<trkpt lat="33.8103134" lon="-118.393871">
  <ele>-3.857</ele>
  <time>2026-09-01T01:13:18Z</time>
  <course>186.98</course>
  <speed>0.022360679774997897</speed>
  <fix>3d</fix>
</trkpt>
<trkpt lat="33.8103133" lon="-118.3938709">
  <ele>-3.76</ele>
  <time>2026-09-01T01:13:18Z</time>
  <course>281.85</course>
  <speed>0.0</speed>
  <fix>3d</fix>
</trkpt>
<trkpt lat="33.8103134" lon="-118.393871">
  <ele>-3.848</ele>
  <time>2026-09-01T01:13:18Z</time>
  <course>186.96</course>
  <speed>0.022360679774997897</speed>
  <fix>3d</fix>
</trkpt>
<trkpt lat="33.8103133" lon="-118.3938709">
  <ele>-3.76</ele>
  <time>2026-09-01T01:13:18Z</time>
  <course>281.85</course>
  <speed>0.0</speed>
  <fix>3d</fix>
</trkpt>
<trkpt lat="33.8103134" lon="-118.393871">
  <ele>-3.845</ele>
  <time>2026-09-01T01:13:18Z</time>
  <course>186.94</course>
  <speed>0.022360679774997897</speed>
  <fix>3d</fix>
</trkpt>
<trkpt lat="33.8103133" lon="-118.3938709">
  <ele>-3.76</ele>
  <time>2026-09-01T01:13:18Z</time>
  <course>284.54</course>
  <speed>0.0</speed>
  <fix>3d</fix>
</trkpt>
<trkpt lat="33.8103134" lon="-118.393871">
  <ele>-3.858</ele>
  <time>2026-09-01T01:13:18Z</time>
  <course>186.93</course>
  <speed>0.022360679774997897</speed>
  <fix>3d</fix>
</trkpt>
<trkpt lat="33.8103133" lon="-118.3938709">
  <ele>-3.76</ele>
  <time>2026-09-01T01:13:18Z</time>
  <course>284.54</course>
  <speed>0.0</speed>
  <fix>3d</fix>
</trkpt>
<trkpt lat="33.8103134" lon="-118.393871">
  <ele>-3.89</ele>
  <time>2026-09-01T01:13:18Z</time>
  <course>186.91</course>
  <speed>0.022360679774997897</speed>
  <fix>3d</fix>
</trkpt>
<trkpt lat="33.8103133" lon="-118.3938709">
  <ele>-3.76</ele>
  <time>2026-09-01T01:13:18Z</time>
  <course>278.22</course>
  <speed>0.0</speed>
  <fix>3d</fix>
</trkpt>
<trkpt lat="33.8103134" lon="-118.393871">
  <ele>-3.891</ele>
  <time>2026-09-01T01:13:18Z</time>
  <course>186.91</course>
  <speed>0.022360679774997897</speed>
  <fix>3d</fix>
</trkpt>
<trkpt lat="33.8103134" lon="-118.393871">
  <ele>-3.935</ele>
  <time>2026-09-01T01:13:18Z</time>
  <course>186.89</course>
  <speed>0.022360679774997897</speed>
  <fix>3d</fix>
</trkpt>
<trkpt lat="33.8103133" lon="-118.3938709">
  <ele>-3.76</ele>
  <time>2026-09-01T01:13:18Z</time>
  <course>278.22</course>
  <speed>0.0</speed>
  <fix>3d</fix>
</trkpt>
<trkpt lat="33.8103134" lon="-118.393871">
  <ele>-3.936</ele>
  <time>2026-09-01T01:13:18Z</time>
  <course>186.89</course>
  <speed>0.022360679774997897</speed>
  <fix>3d</fix>
</trkpt>
<trkpt lat="33.8103134" lon="-118.393871">
  <ele>-3.989</ele>
  <time>2026-09-01T01:13:18Z</time>
  <course>186.88</course>
  <speed>0.022360679774997897</speed>
  <fix>3d</fix>
</trkpt>
<trkpt lat="33.8103133" lon="-118.3938709">
  <ele>-3.81</ele>
  <time>2026-09-01T01:13:18Z</time>
  <course>276.89</course>
  <speed>0.0</speed>
  <fix>3d</fix>
</trkpt>
<trkpt lat="33.8103134" lon="-118.393871">
  <ele>-4.008</ele>
  <time>2026-09-01T01:13:18Z</time>
  <course>186.87</course>
  <speed>0.022360679774997897</speed>
  <fix>3d</fix>
</trkpt>
<trkpt lat="33.8103134" lon="-118.393871">
  <ele>-4.049</ele>
  <time>2026-09-01T01:13:18Z</time>
  <course>186.86</course>
  <speed>0.022360679774997897</speed>
  <fix>3d</fix>
</trkpt>
<trkpt lat="33.8103133" lon="-118.3938709">
  <ele>-3.81</ele>
  <time>2026-09-01T01:13:18Z</time>
  <course>276.89</course>
  <speed>0.0</speed>
  <fix>3d</fix>
</trkpt>
<trkpt lat="33.8103134" lon="-118.393871">
  <ele>-4.069</ele>
  <time>2026-09-01T01:13:18Z</time>
  <course>186.85</course>
  <speed>0.022360679774997897</speed>
  <fix>3d</fix>
</trkpt>
<trkpt lat="33.8103134" lon="-118.393871">
  <ele>-4.112</ele>
  <time>2026-09-01T01:13:18Z</time>
  <course>186.84</course>
  <speed>0.022360679774997897</speed>
  <fix>3d</fix>
</trkpt>
<trkpt lat="33.8103133" lon="-118.3938709">
  <ele>-3.9</ele>
  <time>2026-09-01T01:13:18Z</time>
  <course>276.57</course>
  <speed>0.0</speed>
  <fix>3d</fix>
</trkpt>
<trkpt lat="33.8103134" lon="-118.393871">
  <ele>-4.138</ele>
  <time>2026-09-01T01:13:18Z</time>
  <course>186.84</course>
  <speed>0.022360679774997897</speed>
  <fix>3d</fix>
</trkpt>
<trkpt lat="33.8103135" lon="-118.393871">
  <ele>-4.177</ele>
  <time>2026-09-01T01:13:18Z</time>
  <course>186.82</course>
  <speed>0.022360679774997897</speed>
  <fix>3d</fix>
</trkpt>
<trkpt lat="33.8103133" lon="-118.3938709">
  <ele>-3.9</ele>
  <time>2026-09-01T01:13:18Z</time>
  <course>276.57</course>
  <speed>0.0</speed>
  <fix>3d</fix>
</trkpt>
<trkpt lat="33.8103135" lon="-118.393871">
  <ele>-4.199</ele>
  <time>2026-09-01T01:13:18Z</time>
  <course>186.82</course>
  <speed>0.022360679774997897</speed>
  <fix>3d</fix>
</trkpt>
<trkpt lat="33.8103135" lon="-118.393871">
  <ele>-4.244</ele>
  <time>2026-09-01T01:13:18Z</time>
  <course>186.81</course>
  <speed>0.022360679774997897</speed>
  <fix>3d</fix>
</trkpt>
<trkpt lat="33.8103133" lon="-118.3938709">
  <ele>-4.02</ele>
  <time>2026-09-01T01:13:18Z</time>
  <course>276.46</course>
  <speed>0.0</speed>
  <fix>3d</fix>
</trkpt>
<trkpt lat="33.8103135" lon="-118.393871">
  <ele>-4.267</ele>
  <time>2026-09-01T01:13:18Z</time>
  <course>186.8</course>
  <speed>0.022360679774997897</speed>
  <fix>3d</fix>
</trkpt>
<trkpt lat="33.8103135" lon="-118.393871">
  <ele>-4.312</ele>
  <time>2026-09-01T01:13:18Z</time>
  <course>186.79</course>
  <speed>0.022360679774997897</speed>
  <fix>3d</fix>
</trkpt>
<trkpt lat="33.8103133" lon="-118.3938709">
  <ele>-4.02</ele>
  <time>2026-09-01T01:13:18Z</time>
  <course>276.46</course>
  <speed>0.0</speed>
  <fix>3d</fix>
</trkpt>
<trkpt lat="33.8103135" lon="-118.393871">
  <ele>-4.332</ele>
  <time>2026-09-01T01:13:18Z</time>
  <course>186.79</course>
  <speed>0.022360679774997897</speed>
  <fix>3d</fix>
</trkpt>
<trkpt lat="33.8103135" lon="-118.393871">
  <ele>-4.379</ele>
  <time>2026-09-01T01:13:18Z</time>
  <course>186.77</course>
  <speed>0.022360679774997897</speed>
  <fix>3d</fix>
</trkpt>
<trkpt lat="33.8103133" lon="-118.3938709">
  <ele>-4.14</ele>
  <time>2026-09-01T01:13:18Z</time>
  <course>276.4</course>
  <speed>0.0</speed>
  <fix>3d</fix>
</trkpt>
<trkpt lat="33.8103135" lon="-118.393871">
  <ele>-4.403</ele>
  <time>2026-09-01T01:13:18Z</time>
  <course>186.77</course>
  <speed>0.022360679774997897</speed>
  <fix>3d</fix>
</trkpt>
<trkpt lat="33.8103135" lon="-118.393871">
  <ele>-4.447</ele>
  <time>2026-09-01T01:13:18Z</time>
  <course>186.76</course>
  <speed>0.022360679774997897</speed>
  <fix>3d</fix>
</trkpt>
<trkpt lat="33.8103133" lon="-118.3938709">
  <ele>-4.14</ele>
  <time>2026-09-01T01:13:18Z</time>
  <course>276.4</course>
  <speed>0.0</speed>
  <fix>3d</fix>
</trkpt>
<trkpt lat="33.8103135" lon="-118.393871">
  <ele>-4.468</ele>
  <time>2026-09-01T01:13:18Z</time>
  <course>186.75</course>
  <speed>0.022360679774997897</speed>
  <fix>3d</fix>
</trkpt>
<trkpt lat="33.8103135" lon="-118.393871">
  <ele>-4.514</ele>
  <time>2026-09-01T01:13:18Z</time>
  <course>186.74</course>
  <speed>0.0282842712474619</speed>
  <fix>3d</fix>
</trkpt>
<trkpt lat="33.8103133" lon="-118.393871">
  <ele>-4.26</ele>
  <time>2026-09-01T01:13:18Z</time>
  <course>276.35</course>
  <speed>0.0</speed>
  <fix>3d</fix>
</trkpt>
<trkpt lat="33.8103135" lon="-118.393871">
  <ele>-4.518</ele>
  <time>2026-09-01T01:13:18Z</time>
  <course>186.74</course>
  <speed>0.022360679774997897</speed>
  <fix>3d</fix>
</trkpt>
<trkpt lat="33.8103135" lon="-118.393871">
  <ele>-4.582</ele>
  <time>2026-09-01T01:13:18Z</time>
  <course>186.72</course>
  <speed>0.0282842712474619</speed>
  <fix>3d</fix>
</trkpt>
<trkpt lat="33.8103133" lon="-118.393871">
  <ele>-4.26</ele>
  <time>2026-09-01T01:13:18Z</time>
  <course>276.35</course>
  <speed>0.0</speed>
  <fix>3d</fix>
</trkpt>
<trkpt lat="33.8103135" lon="-118.393871">
  <ele>-4.584</ele>
  <time>2026-09-01T01:13:18Z</time>
  <course>186.72</course>
  <speed>0.0282842712474619</speed>
  <fix>3d</fix>
</trkpt>
<trkpt lat="33.8103135" lon="-118.393871">
  <ele>-4.65</ele>
  <time>2026-09-01T01:13:18Z</time>
  <course>186.7</course>
  <speed>0.0282842712474619</speed>
  <fix>3d</fix>
</trkpt>
<trkpt lat="33.8103133" lon="-118.393871">
  <ele>-4.39</ele>
  <time>2026-09-01T01:13:18Z</time>
  <course>276.31</course>
  <speed>0.0</speed>
  <fix>3d</fix>
</trkpt>
<trkpt lat="33.8103135" lon="-118.3938711">
  <ele>-4.652</ele>
  <time>2026-09-01T01:13:18Z</time>
  <course>186.7</course>
  <speed>0.0282842712474619</speed>
  <fix>3d</fix>
</trkpt>
<trkpt lat="33.8103135" lon="-118.3938711">
  <ele>-4.718</ele>
  <time>2026-09-01T01:13:18Z</time>
  <course>186.69</course>
  <speed>0.0282842712474619</speed>
  <fix>3d</fix>
</trkpt>
<trkpt lat="33.8103133" lon="-118.393871">
  <ele>-4.39</ele>
  <time>2026-09-01T01:13:18Z</time>
  <course>276.31</course>
  <speed>0.0</speed>
  <fix>3d</fix>
</trkpt>
<trkpt lat="33.8103135" lon="-118.3938711">
  <ele>-4.738</ele>
  <time>2026-09-01T01:13:18Z</time>
  <course>186.68</course>
  <speed>0.0282842712474619</speed>
  <fix>3d</fix>
</trkpt>
<trkpt lat="33.8103135" lon="-118.3938711">
  <ele>-4.785</ele>
  <time>2026-09-01T01:13:18Z</time>
  <course>186.67</course>
  <speed>0.0282842712474619</speed>
  <fix>3d</fix>
</trkpt>
<trkpt lat="33.8103133" lon="-118.393871">
  <ele>-4.52</ele>
  <time>2026-09-01T01:13:18Z</time>
  <course>276.26</course>
  <speed>0.0</speed>
  <fix>3d</fix>
</trkpt>
<trkpt lat="33.8103135" lon="-118.3938711">
  <ele>-4.807</ele>
  <time>2026-09-01T01:13:18Z</time>
  <course>186.66</course>
  <speed>0.0282842712474619</speed>
  <fix>3d</fix>
</trkpt>
<trkpt lat="33.8103135" lon="-118.3938711">
  <ele>-4.852</ele>
  <time>2026-09-01T01:13:18Z</time>
  <course>186.65</course>
  <speed>0.0282842712474619</speed>
  <fix>3d</fix>
</trkpt>
<trkpt lat="33.8103133" lon="-118.393871">
  <ele>-4.52</ele>
  <time>2026-09-01T01:13:18Z</time>
  <course>276.26</course>
  <speed>0.0</speed>
  <fix>3d</fix>
</trkpt>
<trkpt lat="33.8103135" lon="-118.3938711">
  <ele>-4.874</ele>
  <time>2026-09-01T01:13:18Z</time>
  <course>186.65</course>
  <speed>0.0282842712474619</speed>
  <fix>3d</fix>
</trkpt>
<trkpt lat="33.8103135" lon="-118.3938711">
  <ele>-4.919</ele>
  <time>2026-09-01T01:13:18Z</time>
  <course>186.63</course>
  <speed>0.0282842712474619</speed>
  <fix>3d</fix>
</trkpt>
<trkpt lat="33.8103133" lon="-118.393871">
  <ele>-4.64</ele>
  <time>2026-09-01T01:13:18Z</time>
  <course>276.22</course>
  <speed>0.0</speed>
  <fix>3d</fix>
</trkpt>
<trkpt lat="33.8103135" lon="-118.3938711">
  <ele>-4.94</ele>
  <time>2026-09-01T01:13:18Z</time>
  <course>186.63</course>
  <speed>0.0282842712474619</speed>
  <fix>3d</fix>
</trkpt>
<trkpt lat="33.8103135" lon="-118.3938711">
  <ele>-4.985</ele>
  <time>2026-09-01T01:13:18Z</time>
  <course>186.62</course>
  <speed>0.0282842712474619</speed>
  <fix>3d</fix>
</trkpt>
<trkpt lat="33.8103133" lon="-118.393871">
  <ele>-4.64</ele>
  <time>2026-09-01T01:13:18Z</time>
  <course>276.22</course>
  <speed>0.0</speed>
  <fix>3d</fix>
</trkpt>
<trkpt lat="33.8103135" lon="-118.3938711">
  <ele>-5.005</ele>
  <time>2026-09-01T01:13:18Z</time>
  <course>186.61</course>
  <speed>0.0282842712474619</speed>
  <fix>3d</fix>
</trkpt>
<trkpt lat="33.8103135" lon="-118.3938711">
  <ele>-5.053</ele>
  <time>2026-09-01T01:13:18Z</time>
  <course>186.6</course>
  <speed>0.0282842712474619</speed>
  <fix>3d</fix>
</trkpt>
<trkpt lat="33.8103133" lon="-118.393871">
  <ele>-4.77</ele>
  <time>2026-09-01T01:13:18Z</time>
  <course>276.18</course>
  <speed>0.0</speed>
  <fix>3d</fix>
</trkpt>
<trkpt lat="33.8103135" lon="-118.3938711">
  <ele>-5.075</ele>
  <time>2026-09-01T01:13:18Z</time>
  <course>186.59</course>
  <speed>0.0282842712474619</speed>
  <fix>3d</fix>
</trkpt>
<trkpt lat="33.8103135" lon="-118.3938711">
  <ele>-5.12</ele>
  <time>2026-09-01T01:13:19Z</time>
  <course>186.58</course>
  <speed>0.0282842712474619</speed>
  <fix>3d</fix>
</trkpt>
<trkpt lat="33.8103133" lon="-118.393871">
  <ele>-4.77</ele>
  <time>2026-09-01T01:13:19Z</time>
  <course>276.18</course>
  <speed>0.0</speed>
  <fix>3d</fix>
</trkpt>
<trkpt lat="33.8103135" lon="-118.3938711">
  <ele>-5.143</ele>
  <time>2026-09-01T01:13:19Z</time>
  <course>186.58</course>
  <speed>0.0282842712474619</speed>
  <fix>3d</fix>
</trkpt>
<trkpt lat="33.8103135" lon="-118.3938711">
  <ele>-5.188</ele>
  <time>2026-09-01T01:13:19Z</time>
  <course>186.57</course>
  <speed>0.0282842712474619</speed>
  <fix>3d</fix>
</trkpt>
<trkpt lat="33.8103133" lon="-118.393871">
  <ele>-4.9</ele>
  <time>2026-09-01T01:13:19Z</time>
  <course>276.16</course>
  <speed>0.0</speed>
  <fix>3d</fix>
</trkpt>
<trkpt lat="33.8103135" lon="-118.3938711">
  <ele>-5.209</ele>
  <time>2026-09-01T01:13:19Z</time>
  <course>186.56</course>
  <speed>0.0282842712474619</speed>
  <fix>3d</fix>
</trkpt>
<trkpt lat="33.8103135" lon="-118.3938711">
  <ele>-5.255</ele>
  <time>2026-09-01T01:13:19Z</time>
  <course>186.55</course>
  <speed>0.0282842712474619</speed>
  <fix>3d</fix>
</trkpt>
<trkpt lat="33.8103133" lon="-118.393871">
  <ele>-4.9</ele>
  <time>2026-09-01T01:13:19Z</time>
  <course>276.16</course>
  <speed>0.0</speed>
  <fix>3d</fix>
</trkpt>
<trkpt lat="33.8103135" lon="-118.3938711">
  <ele>-5.277</ele>
  <time>2026-09-01T01:13:19Z</time>
  <course>186.54</course>
  <speed>0.0282842712474619</speed>
  <fix>3d</fix>
</trkpt>
<trkpt lat="33.8103135" lon="-118.3938712">
  <ele>-5.323</ele>
  <time>2026-09-01T01:13:19Z</time>
  <course>186.53</course>
  <speed>0.0282842712474619</speed>
  <fix>3d</fix>
</trkpt>
<trkpt lat="33.8103133" lon="-118.3938711">
  <ele>-5.03</ele>
  <time>2026-09-01T01:13:19Z</time>
  <course>276.14</course>
  <speed>0.0</speed>
  <fix>3d</fix>
</trkpt>
<trkpt lat="33.8103135" lon="-118.3938712">
  <ele>-5.325</ele>
  <time>2026-09-01T01:13:19Z</time>
  <course>186.53</course>
  <speed>0.0282842712474619</speed>
  <fix>3d</fix>
</trkpt>
<trkpt lat="33.8103135" lon="-118.3938712">
  <ele>-5.391</ele>
  <time>2026-09-01T01:13:19Z</time>
  <course>186.52</course>
  <speed>0.0282842712474619</speed>
  <fix>3d</fix>
</trkpt>
<trkpt lat="33.8103133" lon="-118.3938711">
  <ele>-5.03</ele>
  <time>2026-09-01T01:13:19Z</time>
  <course>276.14</course>
  <speed>0.0</speed>
  <fix>3d</fix>
</trkpt>
<trkpt lat="33.8103135" lon="-118.3938712">
  <ele>-5.413</ele>
  <time>2026-09-01T01:13:19Z</time>
  <course>186.51</course>
  <speed>0.0282842712474619</speed>
  <fix>3d</fix>
</trkpt>
<trkpt lat="33.8103135" lon="-118.3938712">
  <ele>-5.459</ele>
  <time>2026-09-01T01:13:19Z</time>
  <course>186.5</course>
  <speed>0.0282842712474619</speed>
  <fix>3d</fix>
</trkpt>
<trkpt lat="33.8103133" lon="-118.3938711">
  <ele>-5.16</ele>
  <time>2026-09-01T01:13:19Z</time>
  <course>276.12</course>
  <speed>0.01</speed>
  <fix>3d</fix>
</trkpt>
<trkpt lat="33.8103135" lon="-118.3938712">
  <ele>-5.481</ele>
  <time>2026-09-01T01:13:19Z</time>
  <course>186.49</course>
  <speed>0.0282842712474619</speed>
  <fix>3d</fix>
</trkpt>
<trkpt lat="33.8103135" lon="-118.3938712">
  <ele>-5.527</ele>
  <time>2026-09-01T01:13:19Z</time>
  <course>186.48</course>
  <speed>0.0282842712474619</speed>
  <fix>3d</fix>
</trkpt>
<trkpt lat="33.8103133" lon="-118.3938711">
  <ele>-5.16</ele>
  <time>2026-09-01T01:13:19Z</time>
  <course>276.12</course>
  <speed>0.01</speed>
  <fix>3d</fix>
</trkpt>
<trkpt lat="33.8103135" lon="-118.3938712">
  <ele>-5.547</ele>
  <time>2026-09-01T01:13:19Z</time>
  <course>186.48</course>
  <speed>0.0282842712474619</speed>
  <fix>3d</fix>
</trkpt>
<trkpt lat="33.8103135" lon="-118.3938712">
  <ele>-5.595</ele>
  <time>2026-09-01T01:13:19Z</time>
  <course>186.46</course>
  <speed>0.0282842712474619</speed>
  <fix>3d</fix>
</trkpt>
<trkpt lat="33.8103133" lon="-118.3938711">
  <ele>-5.29</ele>
  <time>2026-09-01T01:13:19Z</time>
  <course>276.1</course>
  <speed>0.01</speed>
  <fix>3d</fix>
</trkpt>
<trkpt lat="33.8103135" lon="-118.3938712">
  <ele>-5.661</ele>
  <time>2026-09-01T01:13:19Z</time>
  <course>186.45</course>
  <speed>0.0282842712474619</speed>
  <fix>3d</fix>
</trkpt>
<trkpt lat="33.8103133" lon="-118.3938711">
  <ele>-5.29</ele>
  <time>2026-09-01T01:13:19Z</time>
  <course>276.1</course>
  <speed>0.01</speed>
  <fix>3d</fix>
</trkpt>
<trkpt lat="33.8103135" lon="-118.3938712">
  <ele>-5.717</ele>
  <time>2026-09-01T01:13:19Z</time>
  <course>186.43</course>
  <speed>0.0282842712474619</speed>
  <fix>3d</fix>
</trkpt>
<trkpt lat="33.8103133" lon="-118.3938711">
  <ele>-5.42</ele>
  <time>2026-09-01T01:13:19Z</time>
  <course>276.09</course>
  <speed>0.01</speed>
  <fix>3d</fix>
</trkpt>
<trkpt lat="33.8103135" lon="-118.3938712">
  <ele>-5.76</ele>
  <time>2026-09-01T01:13:19Z</time>
  <course>186.41</course>
  <speed>0.0282842712474619</speed>
  <fix>3d</fix>
</trkpt>
<trkpt lat="33.8103133" lon="-118.3938711">
  <ele>-5.42</ele>
  <time>2026-09-01T01:13:19Z</time>
  <course>276.09</course>
  <speed>0.01</speed>
  <fix>3d</fix>
</trkpt>
<trkpt lat="33.8103135" lon="-118.3938713">
  <ele>-5.79</ele>
  <time>2026-09-01T01:13:19Z</time>
  <course>186.4</course>
  <speed>0.0282842712474619</speed>
  <fix>3d</fix>
</trkpt>
<trkpt lat="33.8103133" lon="-118.3938711">
  <ele>-5.52</ele>
  <time>2026-09-01T01:13:19Z</time>
  <course>276.1</course>
  <speed>0.01</speed>
  <fix>3d</fix>
</trkpt>
<trkpt lat="33.8103135" lon="-118.3938713">
  <ele>-5.809</ele>
  <time>2026-09-01T01:13:19Z</time>
  <course>186.38</course>
  <speed>0.0282842712474619</speed>
  <fix>3d</fix>
</trkpt>
<trkpt lat="33.8103133" lon="-118.3938711">
  <ele>-5.52</ele>
  <time>2026-09-01T01:13:19Z</time>
  <course>276.1</course>
  <speed>0.01</speed>
  <fix>3d</fix>
</trkpt>
<trkpt lat="33.8103135" lon="-118.3938713">
  <ele>-5.821</ele>
  <time>2026-09-01T01:13:19Z</time>
  <course>186.36</course>
  <speed>0.0282842712474619</speed>
  <fix>3d</fix>
</trkpt>
<trkpt lat="33.8103133" lon="-118.3938712">
  <ele>-5.59</ele>
  <time>2026-09-01T01:13:19Z</time>
  <course>276.13</course>
  <speed>0.01</speed>
  <fix>3d</fix>
</trkpt>
<trkpt lat="33.8103135" lon="-118.3938713">
  <ele>-5.825</ele>
  <time>2026-09-01T01:13:19Z</time>
  <course>186.35</course>
  <speed>0.0282842712474619</speed>
  <fix>3d</fix>
</trkpt>
<trkpt lat="33.8103133" lon="-118.3938712">
  <ele>-5.59</ele>
  <time>2026-09-01T01:13:19Z</time>
  <course>276.13</course>
  <speed>0.01</speed>
  <fix>3d</fix>
</trkpt>
<trkpt lat="33.8103135" lon="-118.3938713">
  <ele>-5.825</ele>
  <time>2026-09-01T01:13:19Z</time>
  <course>186.33</course>
  <speed>0.0282842712474619</speed>
  <fix>3d</fix>
</trkpt>
<trkpt lat="33.8103133" lon="-118.3938712">
  <ele>-5.62</ele>
  <time>2026-09-01T01:13:19Z</time>
  <course>276.14</course>
  <speed>0.0</speed>
  <fix>3d</fix>
</trkpt>
<trkpt lat="33.8103135" lon="-118.3938713">
  <ele>-5.824</ele>
  <time>2026-09-01T01:13:19Z</time>
  <course>186.31</course>
  <speed>0.0282842712474619</speed>
  <fix>3d</fix>
</trkpt>
<trkpt lat="33.8103133" lon="-118.3938712">
  <ele>-5.62</ele>
  <time>2026-09-01T01:13:19Z</time>
  <course>276.14</course>
  <speed>0.0</speed>
  <fix>3d</fix>
</trkpt>
<trkpt lat="33.8103135" lon="-118.3938713">
  <ele>-5.824</ele>
  <time>2026-09-01T01:13:19Z</time>
  <course>186.3</course>
  <speed>0.0282842712474619</speed>
  <fix>3d</fix>
</trkpt>
<trkpt lat="33.8103133" lon="-118.3938712">
  <ele>-5.63</ele>
  <time>2026-09-01T01:13:19Z</time>
  <course>276.14</course>
  <speed>0.0</speed>
  <fix>3d</fix>
</trkpt>
<trkpt lat="33.8103135" lon="-118.3938713">
  <ele>-5.823</ele>
  <time>2026-09-01T01:13:19Z</time>
  <course>186.28</course>
  <speed>0.0282842712474619</speed>
  <fix>3d</fix>
</trkpt>
<trkpt lat="33.8103133" lon="-118.3938712">
  <ele>-5.63</ele>
  <time>2026-09-01T01:13:19Z</time>
  <course>276.14</course>
  <speed>0.0</speed>
  <fix>3d</fix>
</trkpt>
<trkpt lat="33.8103135" lon="-118.3938713">
  <ele>-5.823</ele>
  <time>2026-09-01T01:13:19Z</time>
  <course>186.27</course>
  <speed>0.0282842712474619</speed>
  <fix>3d</fix>
</trkpt>
<trkpt lat="33.8103133" lon="-118.3938712">
  <ele>-5.64</ele>
  <time>2026-09-01T01:13:19Z</time>
  <course>276.12</course>
  <speed>0.01</speed>
  <fix>3d</fix>
</trkpt>
<trkpt lat="33.8103135" lon="-118.3938714">
  <ele>-5.823</ele>
  <time>2026-09-01T01:13:19Z</time>
  <course>186.25</course>
  <speed>0.0282842712474619</speed>
  <fix>3d</fix>
</trkpt>
<trkpt lat="33.8103133" lon="-118.3938712">
  <ele>-5.64</ele>
  <time>2026-09-01T01:13:19Z</time>
  <course>276.12</course>
  <speed>0.01</speed>
  <fix>3d</fix>
</trkpt>
<trkpt lat="33.8103135" lon="-118.3938714">
  <ele>-5.822</ele>
  <time>2026-09-01T01:13:19Z</time>
  <course>186.23</course>
  <speed>0.0282842712474619</speed>
  <fix>3d</fix>
</trkpt>
<trkpt lat="33.8103133" lon="-118.3938713">
  <ele>-5.65</ele>
  <time>2026-09-01T01:13:19Z</time>
  <course>276.1</course>
  <speed>0.01</speed>
  <fix>3d</fix>
</trkpt>
<trkpt lat="33.8103135" lon="-118.3938714">
  <ele>-5.822</ele>
  <time>2026-09-01T01:13:19Z</time>
  <course>186.22</course>
  <speed>0.0282842712474619</speed>
  <fix>3d</fix>
</trkpt>
<trkpt lat="33.8103133" lon="-118.3938713">
  <ele>-5.65</ele>
  <time>2026-09-01T01:13:19Z</time>
  <course>276.1</course>
  <speed>0.01</speed>
  <fix>3d</fix>
</trkpt>
<trkpt lat="33.8103135" lon="-118.3938714">
  <ele>-5.824</ele>
  <time>2026-09-01T01:13:19Z</time>
  <course>186.2</course>
  <speed>0.0282842712474619</speed>
  <fix>3d</fix>
</trkpt>
<trkpt lat="33.8103133" lon="-118.3938713">
  <ele>-5.65</ele>
  <time>2026-09-01T01:13:19Z</time>
  <course>276.07</course>
  <speed>0.01</speed>
  <fix>3d</fix>
</trkpt>
<trkpt lat="33.8103135" lon="-118.3938714">
  <ele>-5.827</ele>
  <time>2026-09-01T01:13:19Z</time>
  <course>186.18</course>
  <speed>0.0282842712474619</speed>
  <fix>3d</fix>
</trkpt>
<trkpt lat="33.8103133" lon="-118.3938713">
  <ele>-5.65</ele>
  <time>2026-09-01T01:13:19Z</time>
  <course>276.07</course>
  <speed>0.01</speed>
  <fix>3d</fix>
</trkpt>
<trkpt lat="33.8103135" lon="-118.3938714">
  <ele>-5.829</ele>
  <time>2026-09-01T01:13:19Z</time>
  <course>186.17</course>
  <speed>0.0282842712474619</speed>
  <fix>3d</fix>
</trkpt>
<trkpt lat="33.8103133" lon="-118.3938713">
  <ele>-5.66</ele>
  <time>2026-09-01T01:13:19Z</time>
  <course>276.05</course>
  <speed>0.01</speed>
  <fix>3d</fix>
</trkpt>
<trkpt lat="33.8103135" lon="-118.3938714">
  <ele>-5.83</ele>
  <time>2026-09-01T01:13:19Z</time>
  <course>186.15</course>
  <speed>0.0282842712474619</speed>
  <fix>3d</fix>
</trkpt>
<trkpt lat="33.8103133" lon="-118.3938713">
  <ele>-5.66</ele>
  <time>2026-09-01T01:13:19Z</time>
  <course>276.05</course>
  <speed>0.01</speed>
  <fix>3d</fix>
</trkpt>
<trkpt lat="33.8103135" lon="-118.3938714">
  <ele>-5.83</ele>
  <time>2026-09-01T01:13:19Z</time>
  <course>186.14</course>
  <speed>0.0282842712474619</speed>
  <fix>3d</fix>
</trkpt>
<trkpt lat="33.8103133" lon="-118.3938713">
  <ele>-5.67</ele>
  <time>2026-09-01T01:13:19Z</time>
  <course>276.03</course>
  <speed>0.01</speed>
  <fix>3d</fix>
</trkpt>
<trkpt lat="33.8103135" lon="-118.3938715">
  <ele>-5.83</ele>
  <time>2026-09-01T01:13:19Z</time>
  <course>186.12</course>
  <speed>0.0282842712474619</speed>
  <fix>3d</fix>
</trkpt>
<trkpt lat="33.8103133" lon="-118.3938713">
  <ele>-5.67</ele>
  <time>2026-09-01T01:13:19Z</time>
  <course>276.03</course>
  <speed>0.01</speed>
  <fix>3d</fix>
</trkpt>
<trkpt lat="33.8103135" lon="-118.3938715">
  <ele>-5.83</ele>
  <time>2026-09-01T01:13:19Z</time>
  <course>186.11</course>
  <speed>0.0282842712474619</speed>
  <fix>3d</fix>
</trkpt>
<trkpt lat="33.8103133" lon="-118.3938714">
  <ele>-5.68</ele>
  <time>2026-09-01T01:13:19Z</time>
  <course>276.02</course>
  <speed>0.01</speed>
  <fix>3d</fix>
</trkpt>
<trkpt lat="33.8103135" lon="-118.3938715">
  <ele>-5.831</ele>
  <time>2026-09-01T01:13:19Z</time>
  <course>186.09</course>
  <speed>0.0282842712474619</speed>
  <fix>3d</fix>
</trkpt>
<trkpt lat="33.8103133" lon="-118.3938714">
  <ele>-5.68</ele>
  <time>2026-09-01T01:13:19Z</time>
  <course>276.02</course>
  <speed>0.01</speed>
  <fix>3d</fix>
</trkpt>
<trkpt lat="33.8103135" lon="-118.3938715">
  <ele>-5.833</ele>
  <time>2026-09-01T01:13:19Z</time>
  <course>186.08</course>
  <speed>0.0282842712474619</speed>
  <fix>3d</fix>
</trkpt>
<trkpt lat="33.8103133" lon="-118.3938714">
  <ele>-5.69</ele>
  <time>2026-09-01T01:13:19Z</time>
  <course>276.01</course>
  <speed>0.01</speed>
  <fix>3d</fix>
</trkpt>
<trkpt lat="33.8103135" lon="-118.3938715">
  <ele>-5.835</ele>
  <time>2026-09-01T01:13:19Z</time>
  <course>186.06</course>
  <speed>0.0282842712474619</speed>
  <fix>3d</fix>
</trkpt>
<trkpt lat="33.8103133" lon="-118.3938714">
  <ele>-5.69</ele>
  <time>2026-09-01T01:13:19Z</time>
  <course>276.01</course>
  <speed>0.01</speed>
  <fix>3d</fix>
</trkpt>
<trkpt lat="33.8103135" lon="-118.3938715">
  <ele>-5.836</ele>
  <time>2026-09-01T01:13:19Z</time>
  <course>186.04</course>
  <speed>0.0282842712474619</speed>
  <fix>3d</fix>
</trkpt>
<trkpt lat="33.8103133" lon="-118.3938714">
  <ele>-5.69</ele>
  <time>2026-09-01T01:13:19Z</time>
  <course>276.0</course>
  <speed>0.01</speed>
  <fix>3d</fix>
</trkpt>
<trkpt lat="33.8103135" lon="-118.3938715">
  <ele>-5.836</ele>
  <time>2026-09-01T01:13:19Z</time>
  <course>186.03</course>
  <speed>0.0282842712474619</speed>
  <fix>3d</fix>
</trkpt>
<trkpt lat="33.8103133" lon="-118.3938714">
  <ele>-5.69</ele>
  <time>2026-09-01T01:13:19Z</time>
  <course>276.0</course>
  <speed>0.01</speed>
  <fix>3d</fix>
</trkpt>
<trkpt lat="33.8103135" lon="-118.3938716">
  <ele>-5.836</ele>
  <time>2026-09-01T01:13:19Z</time>
  <course>186.01</course>
  <speed>0.0282842712474619</speed>
  <fix>3d</fix>
</trkpt>
<trkpt lat="33.8103133" lon="-118.3938714">
  <ele>-5.69</ele>
  <time>2026-09-01T01:13:19Z</time>
  <course>275.98</course>
  <speed>0.01</speed>
  <fix>3d</fix>
</trkpt>
<trkpt lat="33.8103135" lon="-118.3938716">
  <ele>-5.837</ele>
  <time>2026-09-01T01:13:19Z</time>
  <course>186.0</course>
  <speed>0.0282842712474619</speed>
  <fix>3d</fix>
</trkpt>
<trkpt lat="33.8103133" lon="-118.3938714">
  <ele>-5.69</ele>
  <time>2026-09-01T01:13:19Z</time>
  <course>275.98</course>
  <speed>0.01</speed>
  <fix>3d</fix>
</trkpt>
<trkpt lat="33.8103135" lon="-118.3938716">
  <ele>-5.838</ele>
  <time>2026-09-01T01:13:19Z</time>
  <course>185.98</course>
  <speed>0.0282842712474619</speed>
  <fix>3d</fix>
</trkpt>
<trkpt lat="33.8103133" lon="-118.3938715">
  <ele>-5.7</ele>
  <time>2026-09-01T01:13:19Z</time>
  <course>275.96</course>
  <speed>0.01</speed>
  <fix>3d</fix>
</trkpt>
<trkpt lat="33.8103135" lon="-118.3938716">
  <ele>-5.839</ele>
  <time>2026-09-01T01:13:19Z</time>
  <course>185.97</course>
  <speed>0.0282842712474619</speed>
  <fix>3d</fix>
</trkpt>
<trkpt lat="33.8103133" lon="-118.3938715">
  <ele>-5.7</ele>
  <time>2026-09-01T01:13:19Z</time>
  <course>275.96</course>
  <speed>0.01</speed>
  <fix>3d</fix>
</trkpt>
<trkpt lat="33.8103135" lon="-118.3938716">
  <ele>-5.838</ele>
  <time>2026-09-01T01:13:19Z</time>
  <course>185.95</course>
  <speed>0.0282842712474619</speed>
  <fix>3d</fix>
</trkpt>
<trkpt lat="33.8103133" lon="-118.3938715">
  <ele>-5.7</ele>
  <time>2026-09-01T01:13:19Z</time>
  <course>275.95</course>
  <speed>0.01</speed>
  <fix>3d</fix>
</trkpt>
<trkpt lat="33.8103135" lon="-118.3938716">
  <ele>-5.836</ele>
  <time>2026-09-01T01:13:19Z</time>
  <course>185.94</course>
  <speed>0.0282842712474619</speed>
  <fix>3d</fix>
</trkpt>
<trkpt lat="33.8103133" lon="-118.3938715">
  <ele>-5.7</ele>
  <time>2026-09-01T01:13:19Z</time>
  <course>275.95</course>
  <speed>0.01</speed>
  <fix>3d</fix>
</trkpt>
<trkpt lat="33.8103135" lon="-118.3938716">
  <ele>-5.835</ele>
  <time>2026-09-01T01:13:19Z</time>
  <course>185.92</course>
  <speed>0.0282842712474619</speed>
  <fix>3d</fix>
</trkpt>
<trkpt lat="33.8103133" lon="-118.3938715">
  <ele>-5.7</ele>
  <time>2026-09-01T01:13:19Z</time>
  <course>275.94</course>
  <speed>0.01</speed>
  <fix>3d</fix>
</trkpt>
<trkpt lat="33.8103135" lon="-118.3938717">
  <ele>-5.834</ele>
  <time>2026-09-01T01:13:19Z</time>
  <course>185.91</course>
  <speed>0.0282842712474619</speed>
  <fix>3d</fix>
</trkpt>
<trkpt lat="33.8103133" lon="-118.3938715">
  <ele>-5.7</ele>
  <time>2026-09-01T01:13:19Z</time>
  <course>275.94</course>
  <speed>0.01</speed>
  <fix>3d</fix>
</trkpt>
<trkpt lat="33.8103135" lon="-118.3938717">
  <ele>-5.834</ele>
  <time>2026-09-01T01:13:19Z</time>
  <course>185.89</course>
  <speed>0.0282842712474619</speed>
  <fix>3d</fix>
</trkpt>
<trkpt lat="33.8103133" lon="-118.3938715">
  <ele>-5.7</ele>
  <time>2026-09-01T01:13:19Z</time>
  <course>275.93</course>
  <speed>0.01</speed>
  <fix>3d</fix>
</trkpt>
<trkpt lat="33.8103135" lon="-118.3938717">
  <ele>-5.835</ele>
  <time>2026-09-01T01:13:19Z</time>
  <course>185.88</course>
  <speed>0.0282842712474619</speed>
  <fix>3d</fix>
</trkpt>
<trkpt lat="33.8103133" lon="-118.3938715">
  <ele>-5.7</ele>
  <time>2026-09-01T01:13:19Z</time>
  <course>275.93</course>
  <speed>0.01</speed>
  <fix>3d</fix>
</trkpt>
<trkpt lat="33.8103135" lon="-118.3938717">
  <ele>-5.836</ele>
  <time>2026-09-01T01:13:19Z</time>
  <course>185.86</course>
  <speed>0.0282842712474619</speed>
  <fix>3d</fix>
</trkpt>
<trkpt lat="33.8103133" lon="-118.3938716">
  <ele>-5.7</ele>
  <time>2026-09-01T01:13:19Z</time>
  <course>275.91</course>
  <speed>0.01</speed>
  <fix>3d</fix>
</trkpt>
<trkpt lat="33.8103135" lon="-118.3938717">
  <ele>-5.838</ele>
  <time>2026-09-01T01:13:19Z</time>
  <course>185.85</course>
  <speed>0.0282842712474619</speed>
  <fix>3d</fix>
</trkpt>
<trkpt lat="33.8103133" lon="-118.3938716">
  <ele>-5.7</ele>
  <time>2026-09-01T01:13:19Z</time>
  <course>275.91</course>
  <speed>0.01</speed>
  <fix>3d</fix>
</trkpt>
<trkpt lat="33.8103135" lon="-118.3938717">
  <ele>-5.839</ele>
  <time>2026-09-01T01:13:19Z</time>
  <course>185.84</course>
  <speed>0.0282842712474619</speed>
  <fix>3d</fix>
</trkpt>
<trkpt lat="33.8103133" lon="-118.3938716">
  <ele>-5.7</ele>
  <time>2026-09-01T01:13:19Z</time>
  <course>275.9</course>
  <speed>0.01</speed>
  <fix>3d</fix>
</trkpt>
<trkpt lat="33.8103135" lon="-118.3938717">
  <ele>-5.84</ele>
  <time>2026-09-01T01:13:19Z</time>
  <course>185.82</course>
  <speed>0.0282842712474619</speed>
  <fix>3d</fix>
</trkpt>
<trkpt lat="33.8103133" lon="-118.3938716">
  <ele>-5.7</ele>
  <time>2026-09-01T01:13:19Z</time>
  <course>275.9</course>
  <speed>0.01</speed>
  <fix>3d</fix>
</trkpt>
<trkpt lat="33.8103135" lon="-118.3938718">
  <ele>-5.84</ele>
  <time>2026-09-01T01:13:19Z</time>
  <course>185.81</course>
  <speed>0.0282842712474619</speed>
  <fix>3d</fix>
</trkpt>
<trkpt lat="33.8103133" lon="-118.3938716">
  <ele>-5.7</ele>
  <time>2026-09-01T01:13:19Z</time>
  <course>275.89</course>
  <speed>0.01</speed>
  <fix>3d</fix>
</trkpt>
<trkpt lat="33.8103135" lon="-118.3938718">
  <ele>-5.84</ele>
  <time>2026-09-01T01:13:19Z</time>
  <course>185.79</course>
  <speed>0.0282842712474619</speed>
  <fix>3d</fix>
</trkpt>
<trkpt lat="33.8103133" lon="-118.3938716">
  <ele>-5.7</ele>
  <time>2026-09-01T01:13:19Z</time>
  <course>275.89</course>
  <speed>0.01</speed>
  <fix>3d</fix>
</trkpt>
<trkpt lat="33.8103135" lon="-118.3938718">
  <ele>-5.84</ele>
  <time>2026-09-01T01:13:19Z</time>
  <course>185.78</course>
  <speed>0.0282842712474619</speed>
  <fix>3d</fix>
</trkpt>
<trkpt lat="33.8103133" lon="-118.3938717">
  <ele>-5.7</ele>
  <time>2026-09-01T01:13:19Z</time>
  <course>275.88</course>
  <speed>0.01</speed>
  <fix>3d</fix>
</trkpt>
<trkpt lat="33.8103135" lon="-118.3938718">
  <ele>-5.841</ele>
  <time>2026-09-01T01:13:19Z</time>
  <course>185.76</course>
  <speed>0.0282842712474619</speed>
  <fix>3d</fix>
</trkpt>
<trkpt lat="33.8103133" lon="-118.3938717">
  <ele>-5.7</ele>
  <time>2026-09-01T01:13:19Z</time>
  <course>275.88</course>
  <speed>0.01</speed>
  <fix>3d</fix>
</trkpt>
<trkpt lat="33.8103135" lon="-118.3938718">
  <ele>-5.84</ele>
  <time>2026-09-01T01:13:19Z</time>
  <course>185.75</course>
  <speed>0.0282842712474619</speed>
  <fix>3d</fix>
</trkpt>
<trkpt lat="33.8103133" lon="-118.3938717">
  <ele>-5.7</ele>
  <time>2026-09-01T01:13:19Z</time>
  <course>275.87</course>
  <speed>0.01</speed>
  <fix>3d</fix>
</trkpt>
<trkpt lat="33.8103135" lon="-118.3938718">
  <ele>-5.84</ele>
  <time>2026-09-01T01:13:19Z</time>
  <course>185.73</course>
  <speed>0.0282842712474619</speed>
  <fix>3d</fix>
</trkpt>
<trkpt lat="33.8103133" lon="-118.3938717">
  <ele>-5.7</ele>
  <time>2026-09-01T01:13:19Z</time>
  <course>275.87</course>
  <speed>0.01</speed>
  <fix>3d</fix>
</trkpt>
<trkpt lat="33.8103135" lon="-118.3938718">
  <ele>-5.839</ele>
  <time>2026-09-01T01:13:19Z</time>
  <course>185.72</course>
  <speed>0.0282842712474619</speed>
  <fix>3d</fix>
</trkpt>
<trkpt lat="33.8103133" lon="-118.3938717">
  <ele>-5.69</ele>
  <time>2026-09-01T01:13:19Z</time>
  <course>275.86</course>
  <speed>0.01</speed>
  <fix>3d</fix>
</trkpt>
<trkpt lat="33.8103135" lon="-118.3938719">
  <ele>-5.838</ele>
  <time>2026-09-01T01:13:19Z</time>
  <course>185.71</course>
  <speed>0.0282842712474619</speed>
  <fix>3d</fix>
</trkpt>
<trkpt lat="33.8103133" lon="-118.3938717">
  <ele>-5.69</ele>
  <time>2026-09-01T01:13:19Z</time>
  <course>275.86</course>
  <speed>0.01</speed>
  <fix>3d</fix>
</trkpt>
<trkpt lat="33.8103135" lon="-118.3938719">
  <ele>-5.835</ele>
  <time>2026-09-01T01:13:19Z</time>
  <course>185.69</course>
  <speed>0.03605551275463989</speed>
  <fix>3d</fix>
</trkpt>
<trkpt lat="33.8103133" lon="-118.3938718">
  <ele>-5.69</ele>
  <time>2026-09-01T01:13:19Z</time>
  <course>275.86</course>
  <speed>0.01</speed>
  <fix>3d</fix>
</trkpt>
<trkpt lat="33.8103135" lon="-118.3938719">
  <ele>-5.834</ele>
  <time>2026-09-01T01:13:19Z</time>
  <course>185.68</course>
  <speed>0.03605551275463989</speed>
  <fix>3d</fix>
</trkpt>
<trkpt lat="33.8103133" lon="-118.3938718">
  <ele>-5.69</ele>
  <time>2026-09-01T01:13:19Z</time>
  <course>275.86</course>
  <speed>0.01</speed>
  <fix>3d</fix>
</trkpt>
<trkpt lat="33.8103135" lon="-118.3938719">
  <ele>-5.832</ele>
  <time>2026-09-01T01:13:19Z</time>
  <course>185.66</course>
  <speed>0.03605551275463989</speed>
  <fix>3d</fix>
</trkpt>
<trkpt lat="33.8103133" lon="-118.3938718">
  <ele>-5.69</ele>
  <time>2026-09-01T01:13:19Z</time>
  <course>275.84</course>
  <speed>0.01</speed>
  <fix>3d</fix>
</trkpt>
<trkpt lat="33.8103135" lon="-118.3938719">
  <ele>-5.831</ele>
  <time>2026-09-01T01:13:19Z</time>
  <course>185.65</course>
  <speed>0.03605551275463989</speed>
  <fix>3d</fix>
</trkpt>
<trkpt lat="33.8103133" lon="-118.3938718">
  <ele>-5.69</ele>
  <time>2026-09-01T01:13:19Z</time>
  <course>275.84</course>
  <speed>0.01</speed>
  <fix>3d</fix>
</trkpt>
<trkpt lat="33.8103135" lon="-118.3938719">
  <ele>-5.827</ele>
  <time>2026-09-01T01:13:19Z</time>
  <course>185.62</course>
  <speed>0.03605551275463989</speed>
  <fix>3d</fix>
</trkpt>
<trkpt lat="33.8103133" lon="-118.3938718">
  <ele>-5.69</ele>
  <time>2026-09-01T01:13:19Z</time>
  <course>275.83</course>
  <speed>0.01</speed>
  <fix>3d</fix>
</trkpt>
<trkpt lat="33.8103135" lon="-118.393872">
  <ele>-5.818</ele>
  <time>2026-09-01T01:13:19Z</time>
  <course>185.55</course>
  <speed>0.03605551275463989</speed>
  <fix>3d</fix>
</trkpt>
<trkpt lat="33.8103133" lon="-118.3938718">
  <ele>-5.69</ele>
  <time>2026-09-01T01:13:19Z</time>
  <course>275.83</course>
  <speed>0.01</speed>
  <fix>3d</fix>
</trkpt>
<trkpt lat="33.8103135" lon="-118.393872">
  <ele>-5.804</ele>
  <time>2026-09-01T01:13:19Z</time>
  <course>185.47</course>
  <speed>0.03605551275463989</speed>
  <fix>3d</fix>
</trkpt>
<trkpt lat="33.8103133" lon="-118.3938719">
  <ele>-5.68</ele>
  <time>2026-09-01T01:13:19Z</time>
  <course>275.83</course>
  <speed>0.01</speed>
  <fix>3d</fix>
</trkpt>
<trkpt lat="33.8103135" lon="-118.393872">
  <ele>-5.786</ele>
  <time>2026-09-01T01:13:19Z</time>
  <course>185.4</course>
  <speed>0.03605551275463989</speed>
  <fix>3d</fix>
</trkpt>
<trkpt lat="33.8103133" lon="-118.3938719">
  <ele>-5.68</ele>
  <time>2026-09-01T01:13:19Z</time>
  <course>275.83</course>
  <speed>0.01</speed>
  <fix>3d</fix>
</trkpt>
<trkpt lat="33.8103135" lon="-118.393872">
  <ele>-5.764</ele>
  <time>2026-09-01T01:13:19Z</time>
  <course>185.34</course>
  <speed>0.03605551275463989</speed>
  <fix>3d</fix>
</trkpt>
<trkpt lat="33.8103133" lon="-118.3938719">
  <ele>-5.65</ele>
  <time>2026-09-01T01:13:19Z</time>
  <course>275.85</course>
  <speed>0.01</speed>
  <fix>3d</fix>
</trkpt>
<trkpt lat="33.8103135" lon="-118.393872">
  <ele>-5.739</ele>
  <time>2026-09-01T01:13:19Z</time>
  <course>185.29</course>
  <speed>0.03605551275463989</speed>
  <fix>3d</fix>
</trkpt>
<trkpt lat="33.8103133" lon="-118.3938719">
  <ele>-5.65</ele>
  <time>2026-09-01T01:13:19Z</time>
  <course>275.85</course>
  <speed>0.01</speed>
  <fix>3d</fix>
</trkpt>
<trkpt lat="33.8103135" lon="-118.3938721">
  <ele>-5.711</ele>
  <time>2026-09-01T01:13:19Z</time>
  <course>185.24</course>
  <speed>0.03605551275463989</speed>
  <fix>3d</fix>
</trkpt>
<trkpt lat="33.8103133" lon="-118.3938719">
  <ele>-5.62</ele>
  <time>2026-09-01T01:13:19Z</time>
  <course>275.86</course>
  <speed>0.01</speed>
  <fix>3d</fix>
</trkpt>
<trkpt lat="33.8103135" lon="-118.3938721">
  <ele>-5.682</ele>
  <time>2026-09-01T01:13:19Z</time>
  <course>185.2</course>
  <speed>0.03605551275463989</speed>
  <fix>3d</fix>
</trkpt>
<trkpt lat="33.8103133" lon="-118.3938719">
  <ele>-5.62</ele>
  <time>2026-09-01T01:13:19Z</time>
  <course>275.86</course>
  <speed>0.01</speed>
  <fix>3d</fix>
</trkpt>
<trkpt lat="33.8103135" lon="-118.3938721">
  <ele>-5.652</ele>
  <time>2026-09-01T01:13:19Z</time>
  <course>185.17</course>
  <speed>0.0282842712474619</speed>
  <fix>3d</fix>
</trkpt>
<trkpt lat="33.8103133" lon="-118.3938719">
  <ele>-5.56</ele>
  <time>2026-09-01T01:13:19Z</time>
  <course>275.89</course>
  <speed>0.01</speed>
  <fix>3d</fix>
</trkpt>
<trkpt lat="33.8103135" lon="-118.3938721">
  <ele>-5.622</ele>
  <time>2026-09-01T01:13:19Z</time>
  <course>185.13</course>
  <speed>0.0282842712474619</speed>
  <fix>3d</fix>
</trkpt>
<trkpt lat="33.8103133" lon="-118.3938719">
  <ele>-5.56</ele>
  <time>2026-09-01T01:13:19Z</time>
  <course>275.89</course>
  <speed>0.01</speed>
  <fix>3d</fix>
</trkpt>
<trkpt lat="33.8103135" lon="-118.3938721">
  <ele>-5.591</ele>
  <time>2026-09-01T01:13:19Z</time>
  <course>185.1</course>
  <speed>0.0282842712474619</speed>
  <fix>3d</fix>
</trkpt>
<trkpt lat="33.8103133" lon="-118.3938719">
  <ele>-5.51</ele>
  <time>2026-09-01T01:13:19Z</time>
  <course>275.93</course>
  <speed>0.01</speed>
  <fix>3d</fix>
</trkpt>
<trkpt lat="33.8103135" lon="-118.3938721">
  <ele>-5.56</ele>
  <time>2026-09-01T01:13:19Z</time>
  <course>185.07</course>
  <speed>0.0282842712474619</speed>
  <fix>3d</fix>
</trkpt>
<trkpt lat="33.8103133" lon="-118.3938719">
  <ele>-5.51</ele>
  <time>2026-09-01T01:13:19Z</time>
  <course>275.93</course>
  <speed>0.01</speed>
  <fix>3d</fix>
</trkpt>
<trkpt lat="33.8103135" lon="-118.3938721">
  <ele>-5.528</ele>
  <time>2026-09-01T01:13:19Z</time>
  <course>185.04</course>
  <speed>0.0282842712474619</speed>
  <fix>3d</fix>
</trkpt>
<trkpt lat="33.8103133" lon="-118.3938719">
  <ele>-5.46</ele>
  <time>2026-09-01T01:13:19Z</time>
  <course>275.94</course>
  <speed>0.01</speed>
  <fix>3d</fix>
</trkpt>
<trkpt lat="33.8103135" lon="-118.3938721">
  <ele>-5.496</ele>
  <time>2026-09-01T01:13:19Z</time>
  <course>185.01</course>
  <speed>0.0282842712474619</speed>
  <fix>3d</fix>
</trkpt>
<trkpt lat="33.8103133" lon="-118.3938719">
  <ele>-5.46</ele>
  <time>2026-09-01T01:13:19Z</time>
  <course>275.94</course>
  <speed>0.01</speed>
  <fix>3d</fix>
</trkpt>
<trkpt lat="33.8103135" lon="-118.3938721">
  <ele>-5.468</ele>
  <time>2026-09-01T01:13:19Z</time>
  <course>184.99</course>
  <speed>0.0282842712474619</speed>
  <fix>3d</fix>
</trkpt>
<trkpt lat="33.8103134" lon="-118.393872">
  <ele>-5.39</ele>
  <time>2026-09-01T01:13:19Z</time>
  <course>275.94</course>
  <speed>0.01</speed>
  <fix>3d</fix>
</trkpt>
<trkpt lat="33.8103135" lon="-118.3938722">
  <ele>-5.443</ele>
  <time>2026-09-01T01:13:19Z</time>
  <course>184.97</course>
  <speed>0.0282842712474619</speed>
  <fix>3d</fix>
</trkpt>
<trkpt lat="33.8103134" lon="-118.393872">
  <ele>-5.39</ele>
  <time>2026-09-01T01:13:19Z</time>
  <course>275.94</course>
  <speed>0.01</speed>
  <fix>3d</fix>
</trkpt>
<trkpt lat="33.8103135" lon="-118.3938722">
  <ele>-5.421</ele>
  <time>2026-09-01T01:13:19Z</time>
  <course>184.95</course>
  <speed>0.0282842712474619</speed>
  <fix>3d</fix>
</trkpt>
<trkpt lat="33.8103134" lon="-118.3938721">
  <ele>-5.35</ele>
  <time>2026-09-01T01:13:19Z</time>
  <course>275.94</course>
  <speed>0.01</speed>
  <fix>3d</fix>
</trkpt>
<trkpt lat="33.8103135" lon="-118.3938722">
  <ele>-5.4</ele>
  <time>2026-09-01T01:13:19Z</time>
  <course>184.93</course>
  <speed>0.0282842712474619</speed>
  <fix>3d</fix>
</trkpt>
<trkpt lat="33.8103134" lon="-118.3938721">
  <ele>-5.35</ele>
  <time>2026-09-01T01:13:19Z</time>
  <course>275.94</course>
  <speed>0.01</speed>
  <fix>3d</fix>
</trkpt>
<trkpt lat="33.8103135" lon="-118.3938722">
  <ele>-5.381</ele>
  <time>2026-09-01T01:13:19Z</time>
  <course>184.91</course>
  <speed>0.0282842712474619</speed>
  <fix>3d</fix>
</trkpt>
<trkpt lat="33.8103134" lon="-118.3938721">
  <ele>-5.31</ele>
  <time>2026-09-01T01:13:19Z</time>
  <course>275.95</course>
  <speed>0.01</speed>
  <fix>3d</fix>
</trkpt>
<trkpt lat="33.8103135" lon="-118.3938722">
  <ele>-5.365</ele>
  <time>2026-09-01T01:13:19Z</time>
  <course>184.89</course>
  <speed>0.0282842712474619</speed>
  <fix>3d</fix>
</trkpt>
<trkpt lat="33.8103134" lon="-118.3938721">
  <ele>-5.31</ele>
  <time>2026-09-01T01:13:19Z</time>
  <course>275.95</course>
  <speed>0.01</speed>
  <fix>3d</fix>
</trkpt>
<trkpt lat="33.8103135" lon="-118.3938722">
  <ele>-5.349</ele>
  <time>2026-09-01T01:13:19Z</time>
  <course>184.87</course>
  <speed>0.0282842712474619</speed>
  <fix>3d</fix>
</trkpt>
<trkpt lat="33.8103134" lon="-118.3938721">
  <ele>-5.27</ele>
  <time>2026-09-01T01:13:19Z</time>
  <course>275.97</course>
  <speed>0.01</speed>
  <fix>3d</fix>
</trkpt>
<trkpt lat="33.8103135" lon="-118.3938722">
  <ele>-5.336</ele>
  <time>2026-09-01T01:13:19Z</time>
  <course>184.85</course>
  <speed>0.0282842712474619</speed>
  <fix>3d</fix>
</trkpt>
<trkpt lat="33.8103134" lon="-118.3938721">
  <ele>-5.27</ele>
  <time>2026-09-01T01:13:19Z</time>
  <course>275.97</course>
  <speed>0.01</speed>
  <fix>3d</fix>
</trkpt>
<trkpt lat="33.8103135" lon="-118.3938723">
  <ele>-5.289</ele>
  <time>2026-09-01T01:13:19Z</time>
  <course>184.79</course>
  <speed>0.0282842712474619</speed>
  <fix>3d</fix>
</trkpt>
<trkpt lat="33.8103134" lon="-118.3938722">
  <ele>-5.21</ele>
  <time>2026-09-01T01:13:19Z</time>
  <course>276.01</course>
  <speed>0.01</speed>
  <fix>3d</fix>
</trkpt>
<trkpt lat="33.8103135" lon="-118.3938723">
  <ele>-5.262</ele>
  <time>2026-09-01T01:13:19Z</time>
  <course>184.75</course>
  <speed>0.0282842712474619</speed>
  <fix>3d</fix>
</trkpt>
<trkpt lat="33.8103134" lon="-118.3938722">
  <ele>-5.17</ele>
  <time>2026-09-01T01:13:19Z</time>
  <course>276.05</course>
  <speed>0.01</speed>
  <fix>3d</fix>
</trkpt>
<trkpt lat="33.8103135" lon="-118.3938724">
  <ele>-5.252</ele>
  <time>2026-09-01T01:13:19Z</time>
  <course>184.73</course>
  <speed>0.0282842712474619</speed>
  <fix>3d</fix>
</trkpt>
<trkpt lat="33.8103134" lon="-118.3938722">
  <ele>-5.17</ele>
  <time>2026-09-01T01:13:19Z</time>
  <course>276.05</course>
  <speed>0.01</speed>
  <fix>3d</fix>
</trkpt>
<trkpt lat="33.8103135" lon="-118.3938724">
  <ele>-5.232</ele>
  <time>2026-09-01T01:13:19Z</time>
  <course>184.71</course>
  <speed>0.0282842712474619</speed>
  <fix>3d</fix>
</trkpt>
<trkpt lat="33.8103134" lon="-118.3938723">
  <ele>-5.14</ele>
  <time>2026-09-01T01:13:19Z</time>
  <course>276.06</course>
  <speed>0.01</speed>
  <fix>3d</fix>
</trkpt>
<trkpt lat="33.8103135" lon="-118.3938724">
  <ele>-5.224</ele>
  <time>2026-09-01T01:13:19Z</time>
  <course>184.7</course>
  <speed>0.0282842712474619</speed>
  <fix>3d</fix>
</trkpt>
<trkpt lat="33.8103134" lon="-118.3938723">
  <ele>-5.12</ele>
  <time>2026-09-01T01:13:19Z</time>
  <course>276.08</course>
  <speed>0.01</speed>
  <fix>3d</fix>
</trkpt>
<trkpt lat="33.8103135" lon="-118.3938724">
  <ele>-5.214</ele>
  <time>2026-09-01T01:13:19Z</time>
  <course>184.68</course>
  <speed>0.0282842712474619</speed>
  <fix>3d</fix>
</trkpt>
<trkpt lat="33.8103134" lon="-118.3938723">
  <ele>-5.12</ele>
  <time>2026-09-01T01:13:19Z</time>
  <course>276.08</course>
  <speed>0.01</speed>
  <fix>3d</fix>
</trkpt>
<trkpt lat="33.8103135" lon="-118.3938724">
  <ele>-5.205</ele>
  <time>2026-09-01T01:13:19Z</time>
  <course>184.67</course>
  <speed>0.0282842712474619</speed>
  <fix>3d</fix>
</trkpt>
<trkpt lat="33.8103134" lon="-118.3938723">
  <ele>-5.1</ele>
  <time>2026-09-01T01:13:19Z</time>
  <course>276.1</course>
  <speed>0.01</speed>
  <fix>3d</fix>
</trkpt>
<trkpt lat="33.8103135" lon="-118.3938724">
  <ele>-5.195</ele>
  <time>2026-09-01T01:13:19Z</time>
  <course>184.66</course>
  <speed>0.0282842712474619</speed>
  <fix>3d</fix>
</trkpt>
<trkpt lat="33.8103134" lon="-118.3938723">
  <ele>-5.1</ele>
  <time>2026-09-01T01:13:19Z</time>
  <course>276.1</course>
  <speed>0.01</speed>
  <fix>3d</fix>
</trkpt>
<trkpt lat="33.8103135" lon="-118.3938724">
  <ele>-5.186</ele>
  <time>2026-09-01T01:13:19Z</time>
  <course>184.65</course>
  <speed>0.0282842712474619</speed>
  <fix>3d</fix>
</trkpt>
<trkpt lat="33.8103134" lon="-118.3938723">
  <ele>-5.08</ele>
  <time>2026-09-01T01:13:19Z</time>
  <course>276.12</course>
  <speed>0.01</speed>
  <fix>3d</fix>
</trkpt>
<trkpt lat="33.8103135" lon="-118.3938725">
  <ele>-5.177</ele>
  <time>2026-09-01T01:13:19Z</time>
  <course>184.64</course>
  <speed>0.0282842712474619</speed>
  <fix>3d</fix>
</trkpt>
<trkpt lat="33.8103134" lon="-118.3938723">
  <ele>-5.08</ele>
  <time>2026-09-01T01:13:19Z</time>
  <course>276.12</course>
  <speed>0.01</speed>
  <fix>3d</fix>
</trkpt>
<trkpt lat="33.8103135" lon="-118.3938725">
  <ele>-5.168</ele>
  <time>2026-09-01T01:13:19Z</time>
  <course>184.63</course>
  <speed>0.0282842712474619</speed>
  <fix>3d</fix>
</trkpt>
<trkpt lat="33.8103134" lon="-118.3938724">
  <ele>-5.06</ele>
  <time>2026-09-01T01:13:19Z</time>
  <course>276.14</course>
  <speed>0.01</speed>
  <fix>3d</fix>
</trkpt>
<trkpt lat="33.8103135" lon="-118.3938725">
  <ele>-5.159</ele>
  <time>2026-09-01T01:13:19Z</time>
  <course>184.62</course>
  <speed>0.0282842712474619</speed>
  <fix>3d</fix>
</trkpt>
<trkpt lat="33.8103134" lon="-118.3938724">
  <ele>-5.06</ele>
  <time>2026-09-01T01:13:19Z</time>
  <course>276.14</course>
  <speed>0.01</speed>
  <fix>3d</fix>
</trkpt>
<trkpt lat="33.8103135" lon="-118.3938725">
  <ele>-5.152</ele>
  <time>2026-09-01T01:13:19Z</time>
  <course>184.61</course>
  <speed>0.0282842712474619</speed>
  <fix>3d</fix>
</trkpt>
<trkpt lat="33.8103134" lon="-118.3938724">
  <ele>-5.04</ele>
  <time>2026-09-01T01:13:19Z</time>
  <course>276.16</course>
  <speed>0.01</speed>
  <fix>3d</fix>
</trkpt>
<trkpt lat="33.8103135" lon="-118.3938725">
  <ele>-5.144</ele>
  <time>2026-09-01T01:13:19Z</time>
  <course>184.6</course>
  <speed>0.0282842712474619</speed>
  <fix>3d</fix>
</trkpt>
<trkpt lat="33.8103134" lon="-118.3938724">
  <ele>-5.04</ele>
  <time>2026-09-01T01:13:19Z</time>
  <course>276.16</course>
  <speed>0.01</speed>
  <fix>3d</fix>
</trkpt>
<trkpt lat="33.8103135" lon="-118.3938725">
  <ele>-5.136</ele>
  <time>2026-09-01T01:13:19Z</time>
  <course>184.59</course>
  <speed>0.0282842712474619</speed>
  <fix>3d</fix>
</trkpt>
<trkpt lat="33.8103134" lon="-118.3938724">
  <ele>-5.02</ele>
  <time>2026-09-01T01:13:19Z</time>
  <course>276.18</course>
  <speed>0.01</speed>
  <fix>3d</fix>
</trkpt>
<trkpt lat="33.8103135" lon="-118.3938725">
  <ele>-5.128</ele>
  <time>2026-09-01T01:13:19Z</time>
  <course>184.58</course>
  <speed>0.0282842712474619</speed>
  <fix>3d</fix>
</trkpt>
<trkpt lat="33.8103134" lon="-118.3938724">
  <ele>-5.02</ele>
  <time>2026-09-01T01:13:19Z</time>
  <course>276.18</course>
  <speed>0.01</speed>
  <fix>3d</fix>
</trkpt>
<trkpt lat="33.8103135" lon="-118.3938725">
  <ele>-5.12</ele>
  <time>2026-09-01T01:13:19Z</time>
  <course>184.57</course>
  <speed>0.0282842712474619</speed>
  <fix>3d</fix>
</trkpt>
<trkpt lat="33.8103134" lon="-118.3938724">
  <ele>-5.0</ele>
  <time>2026-09-01T01:13:19Z</time>
  <course>276.19</course>
  <speed>0.01</speed>
  <fix>3d</fix>
</trkpt>
<trkpt lat="33.8103135" lon="-118.3938725">
  <ele>-5.112</ele>
  <time>2026-09-01T01:13:19Z</time>
  <course>184.56</course>
  <speed>0.0282842712474619</speed>
  <fix>3d</fix>
</trkpt>
<trkpt lat="33.8103134" lon="-118.3938724">
  <ele>-5.0</ele>
  <time>2026-09-01T01:13:19Z</time>
  <course>276.19</course>
  <speed>0.01</speed>
  <fix>3d</fix>
</trkpt>
<trkpt lat="33.8103135" lon="-118.3938726">
  <ele>-5.103</ele>
  <time>2026-09-01T01:13:19Z</time>
  <course>184.55</course>
  <speed>0.0282842712474619</speed>
  <fix>3d</fix>
</trkpt>
<trkpt lat="33.8103134" lon="-118.3938725">
  <ele>-4.98</ele>
  <time>2026-09-01T01:13:19Z</time>
  <course>276.21</course>
  <speed>0.01</speed>
  <fix>3d</fix>
</trkpt>
<trkpt lat="33.8103135" lon="-118.3938726">
  <ele>-5.093</ele>
  <time>2026-09-01T01:13:19Z</time>
  <course>184.54</course>
  <speed>0.0282842712474619</speed>
  <fix>3d</fix>
</trkpt>
<trkpt lat="33.8103134" lon="-118.3938725">
  <ele>-4.98</ele>
  <time>2026-09-01T01:13:19Z</time>
  <course>276.21</course>
  <speed>0.01</speed>
  <fix>3d</fix>
</trkpt>
<trkpt lat="33.8103135" lon="-118.3938726">
  <ele>-5.084</ele>
  <time>2026-09-01T01:13:19Z</time>
  <course>184.53</course>
  <speed>0.0282842712474619</speed>
  <fix>3d</fix>
</trkpt>
<trkpt lat="33.8103134" lon="-118.3938725">
  <ele>-4.97</ele>
  <time>2026-09-01T01:13:19Z</time>
  <course>276.23</course>
  <speed>0.01</speed>
  <fix>3d</fix>
</trkpt>
<trkpt lat="33.8103135" lon="-118.3938726">
  <ele>-5.074</ele>
  <time>2026-09-01T01:13:19Z</time>
  <course>184.53</course>
  <speed>0.0282842712474619</speed>
  <fix>3d</fix>
</trkpt>
<trkpt lat="33.8103134" lon="-118.3938725">
  <ele>-4.97</ele>
  <time>2026-09-01T01:13:19Z</time>
  <course>276.23</course>
  <speed>0.01</speed>
  <fix>3d</fix>
</trkpt>
<trkpt lat="33.8103135" lon="-118.3938726">
  <ele>-5.064</ele>
  <time>2026-09-01T01:13:19Z</time>
  <course>184.52</course>
  <speed>0.0282842712474619</speed>
  <fix>3d</fix>
</trkpt>
<trkpt lat="33.8103134" lon="-118.3938725">
  <ele>-4.95</ele>
  <time>2026-09-01T01:13:19Z</time>
  <course>276.26</course>
  <speed>0.01</speed>
  <fix>3d</fix>
</trkpt>
<trkpt lat="33.8103135" lon="-118.3938726">
  <ele>-5.054</ele>
  <time>2026-09-01T01:13:19Z</time>
  <course>184.51</course>
  <speed>0.0282842712474619</speed>
  <fix>3d</fix>
</trkpt>
<trkpt lat="33.8103134" lon="-118.3938725">
  <ele>-4.95</ele>
  <time>2026-09-01T01:13:19Z</time>
  <course>276.26</course>
  <speed>0.01</speed>
  <fix>3d</fix>
</trkpt>
<trkpt lat="33.8103135" lon="-118.3938726">
  <ele>-5.044</ele>
  <time>2026-09-01T01:13:19Z</time>
  <course>184.5</course>
  <speed>0.0282842712474619</speed>
  <fix>3d</fix>
</trkpt>
<trkpt lat="33.8103134" lon="-118.3938725">
  <ele>-4.93</ele>
  <time>2026-09-01T01:13:19Z</time>
  <course>276.28</course>
  <speed>0.01</speed>
  <fix>3d</fix>
</trkpt>
<trkpt lat="33.8103135" lon="-118.3938726">
  <ele>-5.034</ele>
  <time>2026-09-01T01:13:19Z</time>
  <course>184.49</course>
  <speed>0.0282842712474619</speed>
  <fix>3d</fix>
</trkpt>
<trkpt lat="33.8103134" lon="-118.3938725">
  <ele>-4.93</ele>
  <time>2026-09-01T01:13:19Z</time>
  <course>276.28</course>
  <speed>0.01</speed>
  <fix>3d</fix>
</trkpt>
<trkpt lat="33.8103135" lon="-118.3938727">
  <ele>-5.023</ele>
  <time>2026-09-01T01:13:19Z</time>
  <course>184.48</course>
  <speed>0.0282842712474619</speed>
  <fix>3d</fix>
</trkpt>
<trkpt lat="33.8103134" lon="-118.3938726">
  <ele>-4.91</ele>
  <time>2026-09-01T01:13:19Z</time>
  <course>276.3</course>
  <speed>0.01</speed>
  <fix>3d</fix>
</trkpt>
<trkpt lat="33.8103135" lon="-118.3938727">
  <ele>-5.012</ele>
  <time>2026-09-01T01:13:19Z</time>
  <course>184.47</course>
  <speed>0.0282842712474619</speed>
  <fix>3d</fix>
</trkpt>
<trkpt lat="33.8103134" lon="-118.3938726">
  <ele>-4.91</ele>
  <time>2026-09-01T01:13:19Z</time>
  <course>276.3</course>
  <speed>0.01</speed>
  <fix>3d</fix>
</trkpt>
<trkpt lat="33.8103135" lon="-118.3938727">
  <ele>-5.001</ele>
  <time>2026-09-01T01:13:19Z</time>
  <course>184.47</course>
  <speed>0.0282842712474619</speed>
  <fix>3d</fix>
</trkpt>
<trkpt lat="33.8103134" lon="-118.3938726">
  <ele>-4.89</ele>
  <time>2026-09-01T01:13:19Z</time>
  <course>276.31</course>
  <speed>0.01</speed>
  <fix>3d</fix>
</trkpt>
<trkpt lat="33.8103135" lon="-118.3938727">
  <ele>-4.99</ele>
  <time>2026-09-01T01:13:19Z</time>
  <course>184.46</course>
  <speed>0.0282842712474619</speed>
  <fix>3d</fix>
</trkpt>
<trkpt lat="33.8103134" lon="-118.3938726">
  <ele>-4.89</ele>
  <time>2026-09-01T01:13:19Z</time>
  <course>276.31</course>
  <speed>0.01</speed>
  <fix>3d</fix>
</trkpt>
<trkpt lat="33.8103135" lon="-118.3938727">
  <ele>-4.979</ele>
  <time>2026-09-01T01:13:19Z</time>
  <course>184.45</course>
  <speed>0.0282842712474619</speed>
  <fix>3d</fix>
</trkpt>
<trkpt lat="33.8103134" lon="-118.3938726">
  <ele>-4.87</ele>
  <time>2026-09-01T01:13:19Z</time>
  <course>276.33</course>
  <speed>0.01</speed>
  <fix>3d</fix>
</trkpt>
<trkpt lat="33.8103135" lon="-118.3938727">
  <ele>-4.968</ele>
  <time>2026-09-01T01:13:19Z</time>
  <course>184.44</course>
  <speed>0.0282842712474619</speed>
  <fix>3d</fix>
</trkpt>
<trkpt lat="33.8103134" lon="-118.3938726">
  <ele>-4.87</ele>
  <time>2026-09-01T01:13:19Z</time>
  <course>276.33</course>
  <speed>0.01</speed>
  <fix>3d</fix>
</trkpt>
<trkpt lat="33.8103135" lon="-118.3938727">
  <ele>-4.956</ele>
  <time>2026-09-01T01:13:19Z</time>
  <course>184.44</course>
  <speed>0.0282842712474619</speed>
  <fix>3d</fix>
</trkpt>
<trkpt lat="33.8103134" lon="-118.3938726">
  <ele>-4.85</ele>
  <time>2026-09-01T01:13:19Z</time>
  <course>276.35</course>
  <speed>0.01</speed>
  <fix>3d</fix>
</trkpt>
<trkpt lat="33.8103135" lon="-118.3938728">
  <ele>-4.944</ele>
  <time>2026-09-01T01:13:19Z</time>
  <course>184.43</course>
  <speed>0.0282842712474619</speed>
  <fix>3d</fix>
</trkpt>
<trkpt lat="33.8103134" lon="-118.3938726">
  <ele>-4.85</ele>
  <time>2026-09-01T01:13:19Z</time>
  <course>276.35</course>
  <speed>0.01</speed>
  <fix>3d</fix>
</trkpt>
<trkpt lat="33.8103135" lon="-118.3938728">
  <ele>-4.933</ele>
  <time>2026-09-01T01:13:19Z</time>
  <course>184.42</course>
  <speed>0.0282842712474619</speed>
  <fix>3d</fix>
</trkpt>
<trkpt lat="33.8103134" lon="-118.3938726">
  <ele>-4.83</ele>
  <time>2026-09-01T01:13:19Z</time>
  <course>276.38</course>
  <speed>0.0</speed>
  <fix>3d</fix>
</trkpt>
<trkpt lat="33.8103135" lon="-118.3938728">
  <ele>-4.921</ele>
  <time>2026-09-01T01:13:19Z</time>
  <course>184.41</course>
  <speed>0.0282842712474619</speed>
  <fix>3d</fix>
</trkpt>
<trkpt lat="33.8103134" lon="-118.3938726">
  <ele>-4.83</ele>
  <time>2026-09-01T01:13:19Z</time>
  <course>276.38</course>
  <speed>0.0</speed>
  <fix>3d</fix>
</trkpt>
<trkpt lat="33.8103135" lon="-118.3938728">
  <ele>-4.91</ele>
  <time>2026-09-01T01:13:19Z</time>
  <course>184.41</course>
  <speed>0.0282842712474619</speed>
  <fix>3d</fix>
</trkpt>
<trkpt lat="33.8103134" lon="-118.3938727">
  <ele>-4.81</ele>
  <time>2026-09-01T01:13:19Z</time>
  <course>276.4</course>
  <speed>0.0</speed>
  <fix>3d</fix>
</trkpt>
<trkpt lat="33.8103135" lon="-118.3938728">
  <ele>-4.899</ele>
  <time>2026-09-01T01:13:19Z</time>
  <course>184.4</course>
  <speed>0.0282842712474619</speed>
  <fix>3d</fix>
</trkpt>
<trkpt lat="33.8103134" lon="-118.3938727">
  <ele>-4.81</ele>
  <time>2026-09-01T01:13:19Z</time>
  <course>276.4</course>
  <speed>0.0</speed>
  <fix>3d</fix>
</trkpt>
<trkpt lat="33.8103135" lon="-118.3938728">
  <ele>-4.889</ele>
  <time>2026-09-01T01:13:19Z</time>
  <course>184.39</course>
  <speed>0.0282842712474619</speed>
  <fix>3d</fix>
</trkpt>
<trkpt lat="33.8103134" lon="-118.3938727">
  <ele>-4.79</ele>
  <time>2026-09-01T01:13:19Z</time>
  <course>276.42</course>
  <speed>0.0</speed>
  <fix>3d</fix>
</trkpt>
<trkpt lat="33.8103135" lon="-118.3938728">
  <ele>-4.88</ele>
  <time>2026-09-01T01:13:19Z</time>
  <course>184.38</course>
  <speed>0.0282842712474619</speed>
  <fix>3d</fix>
</trkpt>
<trkpt lat="33.8103134" lon="-118.3938727">
  <ele>-4.79</ele>
  <time>2026-09-01T01:13:19Z</time>
  <course>276.42</course>
  <speed>0.0</speed>
  <fix>3d</fix>
</trkpt>
<trkpt lat="33.8103135" lon="-118.3938728">
  <ele>-4.871</ele>
  <time>2026-09-01T01:13:19Z</time>
  <course>184.38</course>
  <speed>0.0282842712474619</speed>
  <fix>3d</fix>
</trkpt>
<trkpt lat="33.8103134" lon="-118.3938727">
  <ele>-4.77</ele>
  <time>2026-09-01T01:13:19Z</time>
  <course>276.44</course>
  <speed>0.0</speed>
  <fix>3d</fix>
</trkpt>
<trkpt lat="33.8103135" lon="-118.3938728">
  <ele>-4.862</ele>
  <time>2026-09-01T01:13:19Z</time>
  <course>184.37</course>
  <speed>0.0282842712474619</speed>
  <fix>3d</fix>
</trkpt>
<trkpt lat="33.8103134" lon="-118.3938727">
  <ele>-4.77</ele>
  <time>2026-09-01T01:13:19Z</time>
  <course>276.44</course>
  <speed>0.0</speed>
  <fix>3d</fix>
</trkpt>
<trkpt lat="33.8103135" lon="-118.3938729">
  <ele>-4.853</ele>
  <time>2026-09-01T01:13:19Z</time>
  <course>184.36</course>
  <speed>0.0282842712474619</speed>
  <fix>3d</fix>
</trkpt>
<trkpt lat="33.8103134" lon="-118.3938727">
  <ele>-4.75</ele>
  <time>2026-09-01T01:13:19Z</time>
  <course>276.46</course>
  <speed>0.0</speed>
  <fix>3d</fix>
</trkpt>
<trkpt lat="33.8103135" lon="-118.3938729">
  <ele>-4.844</ele>
  <time>2026-09-01T01:13:19Z</time>
  <course>184.36</course>
  <speed>0.0282842712474619</speed>
  <fix>3d</fix>
</trkpt>
<trkpt lat="33.8103134" lon="-118.3938727">
  <ele>-4.75</ele>
  <time>2026-09-01T01:13:19Z</time>
  <course>276.46</course>
  <speed>0.0</speed>
  <fix>3d</fix>
</trkpt>
<trkpt lat="33.8103135" lon="-118.3938729">
  <ele>-4.835</ele>
  <time>2026-09-01T01:13:19Z</time>
  <course>184.35</course>
  <speed>0.0282842712474619</speed>
  <fix>3d</fix>
</trkpt>
<trkpt lat="33.8103134" lon="-118.3938728">
  <ele>-4.74</ele>
  <time>2026-09-01T01:13:19Z</time>
  <course>276.48</course>
  <speed>0.0</speed>
  <fix>3d</fix>
</trkpt>
<trkpt lat="33.8103135" lon="-118.3938729">
  <ele>-4.826</ele>
  <time>2026-09-01T01:13:19Z</time>
  <course>184.34</course>
  <speed>0.0282842712474619</speed>
  <fix>3d</fix>
</trkpt>
<trkpt lat="33.8103134" lon="-118.3938728">
  <ele>-4.74</ele>
  <time>2026-09-01T01:13:19Z</time>
  <course>276.48</course>
  <speed>0.0</speed>
  <fix>3d</fix>
</trkpt>
<trkpt lat="33.8103135" lon="-118.3938729">
  <ele>-4.817</ele>
  <time>2026-09-01T01:13:19Z</time>
  <course>184.34</course>
  <speed>0.0282842712474619</speed>
  <fix>3d</fix>
</trkpt>
<trkpt lat="33.8103134" lon="-118.3938728">
  <ele>-4.72</ele>
  <time>2026-09-01T01:13:19Z</time>
  <course>276.5</course>
  <speed>0.0</speed>
  <fix>3d</fix>
</trkpt>
<trkpt lat="33.8103135" lon="-118.3938729">
  <ele>-4.808</ele>
  <time>2026-09-01T01:13:19Z</time>
  <course>184.33</course>
  <speed>0.0282842712474619</speed>
  <fix>3d</fix>
</trkpt>
<trkpt lat="33.8103134" lon="-118.3938728">
  <ele>-4.72</ele>
  <time>2026-09-01T01:13:19Z</time>
  <course>276.5</course>
  <speed>0.0</speed>
  <fix>3d</fix>
</trkpt>
<trkpt lat="33.8103135" lon="-118.3938729">
  <ele>-4.798</ele>
  <time>2026-09-01T01:13:19Z</time>
  <course>184.32</course>
  <speed>0.0282842712474619</speed>
  <fix>3d</fix>
</trkpt>
<trkpt lat="33.8103134" lon="-118.3938728">
  <ele>-4.7</ele>
  <time>2026-09-01T01:13:19Z</time>
  <course>276.53</course>
  <speed>0.0</speed>
  <fix>3d</fix>
</trkpt>
<trkpt lat="33.8103135" lon="-118.393873">
  <ele>-4.789</ele>
  <time>2026-09-01T01:13:19Z</time>
  <course>184.32</course>
  <speed>0.0282842712474619</speed>
  <fix>3d</fix>
</trkpt>
<trkpt lat="33.8103134" lon="-118.3938728">
  <ele>-4.7</ele>
  <time>2026-09-01T01:13:19Z</time>
  <course>276.53</course>
  <speed>0.0</speed>
  <fix>3d</fix>
</trkpt>
<trkpt lat="33.8103135" lon="-118.393873">
  <ele>-4.779</ele>
  <time>2026-09-01T01:13:19Z</time>
  <course>184.31</course>
  <speed>0.0282842712474619</speed>
  <fix>3d</fix>
</trkpt>
<trkpt lat="33.8103134" lon="-118.3938728">
  <ele>-4.68</ele>
  <time>2026-09-01T01:13:19Z</time>
  <course>276.55</course>
  <speed>0.0</speed>
  <fix>3d</fix>
</trkpt>
<trkpt lat="33.8103135" lon="-118.393873">
  <ele>-4.769</ele>
  <time>2026-09-01T01:13:19Z</time>
  <course>184.3</course>
  <speed>0.0282842712474619</speed>
  <fix>3d</fix>
</trkpt>
<trkpt lat="33.8103134" lon="-118.3938728">
  <ele>-4.68</ele>
  <time>2026-09-01T01:13:19Z</time>
  <course>276.55</course>
  <speed>0.0</speed>
  <fix>3d</fix>
</trkpt>
<trkpt lat="33.8103136" lon="-118.393873">
  <ele>-4.758</ele>
  <time>2026-09-01T01:13:19Z</time>
  <course>184.3</course>
  <speed>0.0282842712474619</speed>
  <fix>3d</fix>
</trkpt>
<trkpt lat="33.8103134" lon="-118.3938728">
  <ele>-4.66</ele>
  <time>2026-09-01T01:13:19Z</time>
  <course>276.57</course>
  <speed>0.0</speed>
  <fix>3d</fix>
</trkpt>
<trkpt lat="33.8103136" lon="-118.393873">
  <ele>-4.747</ele>
  <time>2026-09-01T01:13:19Z</time>
  <course>184.29</course>
  <speed>0.0282842712474619</speed>
  <fix>3d</fix>
</trkpt>
<trkpt lat="33.8103134" lon="-118.3938728">
  <ele>-4.66</ele>
  <time>2026-09-01T01:13:19Z</time>
  <course>276.57</course>
  <speed>0.0</speed>
  <fix>3d</fix>
</trkpt>
<trkpt lat="33.8103136" lon="-118.393873">
  <ele>-4.736</ele>
  <time>2026-09-01T01:13:19Z</time>
  <course>184.28</course>
  <speed>0.0282842712474619</speed>
  <fix>3d</fix>
</trkpt>
<trkpt lat="33.8103134" lon="-118.3938728">
  <ele>-4.64</ele>
  <time>2026-09-01T01:13:19Z</time>
  <course>276.59</course>
  <speed>0.0</speed>
  <fix>3d</fix>
</trkpt>
<trkpt lat="33.8103136" lon="-118.393873">
  <ele>-4.736</ele>
  <time>2026-09-01T01:13:19Z</time>
  <course>184.28</course>
  <speed>0.0282842712474619</speed>
  <fix>3d</fix>
</trkpt>
<trkpt lat="33.8103136" lon="-118.393873">
  <ele>-4.729</ele>
  <time>2026-09-01T01:13:19Z</time>
  <course>184.28</course>
  <speed>0.0282842712474619</speed>
  <fix>3d</fix>
</trkpt>
<trkpt lat="33.8103134" lon="-118.3938728">
  <ele>-4.64</ele>
  <time>2026-09-01T01:13:19Z</time>
  <course>276.59</course>
  <speed>0.0</speed>
  <fix>3d</fix>
</trkpt>
<trkpt lat="33.8103136" lon="-118.393873">
  <ele>-4.743</ele>
  <time>2026-09-01T01:13:19Z</time>
  <course>184.27</course>
  <speed>0.0282842712474619</speed>
  <fix>3d</fix>
</trkpt>
<trkpt lat="33.8103134" lon="-118.3938729">
  <ele>-4.62</ele>
  <time>2026-09-01T01:13:19Z</time>
  <course>276.62</course>
  <speed>0.0</speed>
  <fix>3d</fix>
</trkpt>
<trkpt lat="33.8103136" lon="-118.393873">
  <ele>-4.777</ele>
  <time>2026-09-01T01:13:19Z</time>
  <course>184.27</course>
  <speed>0.0282842712474619</speed>
  <fix>3d</fix>
</trkpt>
<trkpt lat="33.8103134" lon="-118.3938729">
  <ele>-4.62</ele>
  <time>2026-09-01T01:13:19Z</time>
  <course>276.62</course>
  <speed>0.0</speed>
  <fix>3d</fix>
</trkpt>
<trkpt lat="33.8103136" lon="-118.393873">
  <ele>-4.825</ele>
  <time>2026-09-01T01:13:19Z</time>
  <course>184.26</course>
  <speed>0.0282842712474619</speed>
  <fix>3d</fix>
</trkpt>
<trkpt lat="33.8103134" lon="-118.3938729">
  <ele>-4.64</ele>
  <time>2026-09-01T01:13:19Z</time>
  <course>276.7</course>
  <speed>0.0</speed>
  <fix>3d</fix>
</trkpt>
<trkpt lat="33.8103136" lon="-118.393873">
  <ele>-4.826</ele>
  <time>2026-09-01T01:13:19Z</time>
  <course>184.26</course>
  <speed>0.0282842712474619</speed>
  <fix>3d</fix>
</trkpt>
<trkpt lat="33.8103136" lon="-118.3938731">
  <ele>-4.881</ele>
  <time>2026-09-01T01:13:19Z</time>
  <course>184.26</course>
  <speed>0.0282842712474619</speed>
  <fix>3d</fix>
</trkpt>
<trkpt lat="33.8103134" lon="-118.3938729">
  <ele>-4.64</ele>
  <time>2026-09-01T01:13:19Z</time>
  <course>276.7</course>
  <speed>0.0</speed>
  <fix>3d</fix>
</trkpt>
<trkpt lat="33.8103136" lon="-118.3938731">
  <ele>-4.882</ele>
  <time>2026-09-01T01:13:19Z</time>
  <course>184.26</course>
  <speed>0.0282842712474619</speed>
  <fix>3d</fix>
</trkpt>
<trkpt lat="33.8103136" lon="-118.3938731">
  <ele>-4.942</ele>
  <time>2026-09-01T01:13:19Z</time>
  <course>184.25</course>
  <speed>0.0282842712474619</speed>
  <fix>3d</fix>
</trkpt>
<trkpt lat="33.8103134" lon="-118.3938729">
  <ele>-4.73</ele>
  <time>2026-09-01T01:13:19Z</time>
  <course>276.81</course>
  <speed>0.0</speed>
  <fix>3d</fix>
</trkpt>
<trkpt lat="33.8103135" lon="-118.3938731">
  <ele>-4.967</ele>
  <time>2026-09-01T01:13:19Z</time>
  <course>184.25</course>
  <speed>0.0282842712474619</speed>
  <fix>3d</fix>
</trkpt>
<trkpt lat="33.8103136" lon="-118.3938731">
  <ele>-5.006</ele>
  <time>2026-09-01T01:13:19Z</time>
  <course>184.24</course>
  <speed>0.0282842712474619</speed>
  <fix>3d</fix>
</trkpt>
<trkpt lat="33.8103134" lon="-118.3938729">
  <ele>-4.73</ele>
  <time>2026-09-01T01:13:19Z</time>
  <course>276.81</course>
  <speed>0.0</speed>
  <fix>3d</fix>
</trkpt>
<trkpt lat="33.8103136" lon="-118.3938731">
  <ele>-5.027</ele>
  <time>2026-09-01T01:13:19Z</time>
  <course>184.24</course>
  <speed>0.0282842712474619</speed>
  <fix>3d</fix>
</trkpt>
<trkpt lat="33.8103135" lon="-118.3938731">
  <ele>-5.07</ele>
  <time>2026-09-01T01:13:19Z</time>
  <course>184.24</course>
  <speed>0.0282842712474619</speed>
  <fix>3d</fix>
</trkpt>
<trkpt lat="33.8103134" lon="-118.3938729">
  <ele>-4.84</ele>
  <time>2026-09-01T01:13:19Z</time>
  <course>276.86</course>
  <speed>0.0</speed>
  <fix>3d</fix>
</trkpt>
<trkpt lat="33.8103135" lon="-118.3938731">
  <ele>-5.122</ele>
  <time>2026-09-01T01:13:19Z</time>
  <course>184.23</course>
  <speed>0.0282842712474619</speed>
  <fix>3d</fix>
</trkpt>
<trkpt lat="33.8103134" lon="-118.3938729">
  <ele>-4.84</ele>
  <time>2026-09-01T01:13:19Z</time>
  <course>276.86</course>
  <speed>0.0</speed>
  <fix>3d</fix>
</trkpt>
<trkpt lat="33.8103135" lon="-118.3938731">
  <ele>-5.164</ele>
  <time>2026-09-01T01:13:19Z</time>
  <course>184.23</course>
  <speed>0.0282842712474619</speed>
  <fix>3d</fix>
</trkpt>
<trkpt lat="33.8103134" lon="-118.3938729">
  <ele>-4.95</ele>
  <time>2026-09-01T01:13:19Z</time>
  <course>276.91</course>
  <speed>0.0</speed>
  <fix>3d</fix>
</trkpt>
<trkpt lat="33.8103135" lon="-118.3938731">
  <ele>-5.197</ele>
  <time>2026-09-01T01:13:19Z</time>
  <course>184.22</course>
  <speed>0.0282842712474619</speed>
  <fix>3d</fix>
</trkpt>
<trkpt lat="33.8103134" lon="-118.3938729">
  <ele>-4.95</ele>
  <time>2026-09-01T01:13:19Z</time>
  <course>276.91</course>
  <speed>0.0</speed>
  <fix>3d</fix>
</trkpt>
<trkpt lat="33.8103135" lon="-118.3938731">
  <ele>-5.225</ele>
  <time>2026-09-01T01:13:19Z</time>
  <course>184.21</course>
  <speed>0.0282842712474619</speed>
  <fix>3d</fix>
</trkpt>
<trkpt lat="33.8103134" lon="-118.393873">
  <ele>-5.02</ele>
  <time>2026-09-01T01:13:19Z</time>
  <course>276.99</course>
  <speed>0.0</speed>
  <fix>3d</fix>
</trkpt>
<trkpt lat="33.8103135" lon="-118.3938731">
  <ele>-5.248</ele>
  <time>2026-09-01T01:13:19Z</time>
  <course>184.21</course>
  <speed>0.0282842712474619</speed>
  <fix>3d</fix>
</trkpt>
<trkpt lat="33.8103134" lon="-118.393873">
  <ele>-5.02</ele>
  <time>2026-09-01T01:13:19Z</time>
  <course>276.99</course>
  <speed>0.0</speed>
  <fix>3d</fix>
</trkpt>
<trkpt lat="33.8103135" lon="-118.3938731">
  <ele>-5.267</ele>
  <time>2026-09-01T01:13:19Z</time>
  <course>184.2</course>
  <speed>0.0282842712474619</speed>
  <fix>3d</fix>
</trkpt>
<trkpt lat="33.8103134" lon="-118.393873">
  <ele>-5.07</ele>
  <time>2026-09-01T01:13:19Z</time>
  <course>277.04</course>
  <speed>0.0</speed>
  <fix>3d</fix>
</trkpt>
<trkpt lat="33.8103135" lon="-118.3938731">
  <ele>-5.282</ele>
  <time>2026-09-01T01:13:19Z</time>
  <course>184.2</course>
  <speed>0.0282842712474619</speed>
  <fix>3d</fix>
</trkpt>
<trkpt lat="33.8103134" lon="-118.393873">
  <ele>-5.07</ele>
  <time>2026-09-01T01:13:19Z</time>
  <course>277.04</course>
  <speed>0.0</speed>
  <fix>3d</fix>
</trkpt>
<trkpt lat="33.8103135" lon="-118.3938731">
  <ele>-5.295</ele>
  <time>2026-09-01T01:13:19Z</time>
  <course>184.19</course>
  <speed>0.0282842712474619</speed>
  <fix>3d</fix>
</trkpt>
<trkpt lat="33.8103134" lon="-118.393873">
  <ele>-5.11</ele>
  <time>2026-09-01T01:13:19Z</time>
  <course>277.06</course>
  <speed>0.0</speed>
  <fix>3d</fix>
</trkpt>
<trkpt lat="33.8103135" lon="-118.3938732">
  <ele>-5.305</ele>
  <time>2026-09-01T01:13:19Z</time>
  <course>184.19</course>
  <speed>0.0282842712474619</speed>
  <fix>3d</fix>
</trkpt>
<trkpt lat="33.8103134" lon="-118.393873">
  <ele>-5.11</ele>
  <time>2026-09-01T01:13:19Z</time>
  <course>277.06</course>
  <speed>0.0</speed>
  <fix>3d</fix>
</trkpt>
<trkpt lat="33.8103135" lon="-118.3938732">
  <ele>-5.313</ele>
  <time>2026-09-01T01:13:19Z</time>
  <course>184.18</course>
  <speed>0.0282842712474619</speed>
  <fix>3d</fix>
</trkpt>
<trkpt lat="33.8103134" lon="-118.393873">
  <ele>-5.14</ele>
  <time>2026-09-01T01:13:19Z</time>
  <course>277.08</course>
  <speed>0.0</speed>
  <fix>3d</fix>
</trkpt>
<trkpt lat="33.8103135" lon="-118.3938732">
  <ele>-5.32</ele>
  <time>2026-09-01T01:13:19Z</time>
  <course>184.18</course>
  <speed>0.0282842712474619</speed>
  <fix>3d</fix>
</trkpt>
<trkpt lat="33.8103134" lon="-118.393873">
  <ele>-5.14</ele>
  <time>2026-09-01T01:13:19Z</time>
  <course>277.08</course>
  <speed>0.0</speed>
  <fix>3d</fix>
</trkpt>
<trkpt lat="33.8103135" lon="-118.3938732">
  <ele>-5.325</ele>
  <time>2026-09-01T01:13:19Z</time>
  <course>184.17</course>
  <speed>0.0282842712474619</speed>
  <fix>3d</fix>
</trkpt>
<trkpt lat="33.8103134" lon="-118.393873">
  <ele>-5.16</ele>
  <time>2026-09-01T01:13:19Z</time>
  <course>277.1</course>
  <speed>0.0</speed>
  <fix>3d</fix>
</trkpt>
<trkpt lat="33.8103135" lon="-118.3938732">
  <ele>-5.33</ele>
  <time>2026-09-01T01:13:19Z</time>
  <course>184.17</course>
  <speed>0.0282842712474619</speed>
  <fix>3d</fix>
</trkpt>
<trkpt lat="33.8103134" lon="-118.393873">
  <ele>-5.16</ele>
  <time>2026-09-01T01:13:19Z</time>
  <course>277.1</course>
  <speed>0.0</speed>
  <fix>3d</fix>
</trkpt>
<trkpt lat="33.8103135" lon="-118.3938732">
  <ele>-5.333</ele>
  <time>2026-09-01T01:13:19Z</time>
  <course>184.16</course>
  <speed>0.0282842712474619</speed>
  <fix>3d</fix>
</trkpt>
<trkpt lat="33.8103134" lon="-118.393873">
  <ele>-5.17</ele>
  <time>2026-09-01T01:13:19Z</time>
  <course>277.12</course>
  <speed>0.0</speed>
  <fix>3d</fix>
</trkpt>
<trkpt lat="33.8103135" lon="-118.3938732">
  <ele>-5.336</ele>
  <time>2026-09-01T01:13:19Z</time>
  <course>184.15</course>
  <speed>0.0282842712474619</speed>
  <fix>3d</fix>
</trkpt>
<trkpt lat="33.8103134" lon="-118.393873">
  <ele>-5.17</ele>
  <time>2026-09-01T01:13:19Z</time>
  <course>277.12</course>
  <speed>0.0</speed>
  <fix>3d</fix>
</trkpt>
<trkpt lat="33.8103135" lon="-118.3938732">
  <ele>-5.338</ele>
  <time>2026-09-01T01:13:19Z</time>
  <course>184.15</course>
  <speed>0.0282842712474619</speed>
  <fix>3d</fix>
</trkpt>
<trkpt lat="33.8103134" lon="-118.393873">
  <ele>-5.18</ele>
  <time>2026-09-01T01:13:19Z</time>
  <course>277.15</course>
  <speed>0.0</speed>
  <fix>3d</fix>
</trkpt>
<trkpt lat="33.8103135" lon="-118.3938732">
  <ele>-5.339</ele>
  <time>2026-09-01T01:13:19Z</time>
  <course>184.14</course>
  <speed>0.0282842712474619</speed>
  <fix>3d</fix>
</trkpt>
<trkpt lat="33.8103134" lon="-118.393873">
  <ele>-5.18</ele>
  <time>2026-09-01T01:13:19Z</time>
  <course>277.15</course>
  <speed>0.0</speed>
  <fix>3d</fix>
</trkpt>
<trkpt lat="33.8103135" lon="-118.3938732">
  <ele>-5.339</ele>
  <time>2026-09-01T01:13:19Z</time>
  <course>184.14</course>
  <speed>0.0282842712474619</speed>
  <fix>3d</fix>
</trkpt>
<trkpt lat="33.8103134" lon="-118.3938731">
  <ele>-5.19</ele>
  <time>2026-09-01T01:13:19Z</time>
  <course>277.18</course>
  <speed>0.0</speed>
  <fix>3d</fix>
</trkpt>
<trkpt lat="33.8103135" lon="-118.3938732">
  <ele>-5.339</ele>
  <time>2026-09-01T01:13:19Z</time>
  <course>184.13</course>
  <speed>0.0282842712474619</speed>
  <fix>3d</fix>
</trkpt>
<trkpt lat="33.8103134" lon="-118.3938731">
  <ele>-5.19</ele>
  <time>2026-09-01T01:13:19Z</time>
  <course>277.18</course>
  <speed>0.0</speed>
  <fix>3d</fix>
</trkpt>
<trkpt lat="33.8103135" lon="-118.3938732">
  <ele>-5.339</ele>
  <time>2026-09-01T01:13:19Z</time>
  <course>184.13</course>
  <speed>0.0282842712474619</speed>
  <fix>3d</fix>
</trkpt>
<trkpt lat="33.8103134" lon="-118.3938731">
  <ele>-5.2</ele>
  <time>2026-09-01T01:13:19Z</time>
  <course>277.2</course>
  <speed>0.0</speed>
  <fix>3d</fix>
</trkpt>
<trkpt lat="33.8103135" lon="-118.3938732">
  <ele>-5.338</ele>
  <time>2026-09-01T01:13:19Z</time>
  <course>184.12</course>
  <speed>0.0282842712474619</speed>
  <fix>3d</fix>
</trkpt>
<trkpt lat="33.8103134" lon="-118.3938731">
  <ele>-5.2</ele>
  <time>2026-09-01T01:13:19Z</time>
  <course>277.2</course>
  <speed>0.0</speed>
  <fix>3d</fix>
</trkpt>
<trkpt lat="33.8103135" lon="-118.3938732">
  <ele>-5.338</ele>
  <time>2026-09-01T01:13:19Z</time>
  <course>184.12</course>
  <speed>0.0282842712474619</speed>
  <fix>3d</fix>
</trkpt>
<trkpt lat="33.8103134" lon="-118.3938731">
  <ele>-5.2</ele>
  <time>2026-09-01T01:13:19Z</time>
  <course>277.22</course>
  <speed>0.0</speed>
  <fix>3d</fix>
</trkpt>
<trkpt lat="33.8103135" lon="-118.3938732">
  <ele>-5.339</ele>
  <time>2026-09-01T01:13:19Z</time>
  <course>184.11</course>
  <speed>0.0282842712474619</speed>
  <fix>3d</fix>
</trkpt>
<trkpt lat="33.8103134" lon="-118.3938731">
  <ele>-5.2</ele>
  <time>2026-09-01T01:13:19Z</time>
  <course>277.22</course>
  <speed>0.0</speed>
  <fix>3d</fix>
</trkpt>
<trkpt lat="33.8103135" lon="-118.3938732">
  <ele>-5.34</ele>
  <time>2026-09-01T01:13:20Z</time>
  <course>183.74</course>
  <speed>0.0282842712474619</speed>
  <fix>3d</fix>
</trkpt>
<trkpt lat="33.8103135" lon="-118.3938731">
  <ele>-5.2</ele>
  <time>2026-09-01T01:13:20Z</time>
  <course>277.24</course>
  <speed>0.0</speed>
  <fix>3d</fix>
</trkpt>
<trkpt lat="33.8103135" lon="-118.3938732">
  <ele>-5.341</ele>
  <time>2026-09-01T01:13:20Z</time>
  <course>183.73</course>
  <speed>0.0282842712474619</speed>
  <fix>3d</fix>
</trkpt>
<trkpt lat="33.8103135" lon="-118.3938731">
  <ele>-5.2</ele>
  <time>2026-09-01T01:13:20Z</time>
  <course>277.24</course>
  <speed>0.0</speed>
  <fix>3d</fix>
</trkpt>
<trkpt lat="33.8103135" lon="-118.3938733">
  <ele>-5.342</ele>
  <time>2026-09-01T01:13:20Z</time>
  <course>183.72</course>
  <speed>0.0282842712474619</speed>
  <fix>3d</fix>
</trkpt>
<trkpt lat="33.8103135" lon="-118.3938731">
  <ele>-5.21</ele>
  <time>2026-09-01T01:13:20Z</time>
  <course>277.26</course>
  <speed>0.0</speed>
  <fix>3d</fix>
</trkpt>
<trkpt lat="33.8103135" lon="-118.3938733">
  <ele>-5.345</ele>
  <time>2026-09-01T01:13:20Z</time>
  <course>183.71</course>
  <speed>0.0282842712474619</speed>
  <fix>3d</fix>
</trkpt>
<trkpt lat="33.8103135" lon="-118.3938731">
  <ele>-5.21</ele>
  <time>2026-09-01T01:13:20Z</time>
  <course>277.26</course>
  <speed>0.0</speed>
  <fix>3d</fix>
</trkpt>
<trkpt lat="33.8103135" lon="-118.3938733">
  <ele>-5.346</ele>
  <time>2026-09-01T01:13:20Z</time>
  <course>183.7</course>
  <speed>0.0282842712474619</speed>
  <fix>3d</fix>
</trkpt>
<trkpt lat="33.8103135" lon="-118.3938731">
  <ele>-5.21</ele>
  <time>2026-09-01T01:13:20Z</time>
  <course>277.27</course>
  <speed>0.0</speed>
  <fix>3d</fix>
</trkpt>
<trkpt lat="33.8103136" lon="-118.3938733">
  <ele>-5.348</ele>
  <time>2026-09-01T01:13:20Z</time>
  <course>183.7</course>
  <speed>0.0282842712474619</speed>
  <fix>3d</fix>
</trkpt>
<trkpt lat="33.8103135" lon="-118.3938731">
  <ele>-5.21</ele>
  <time>2026-09-01T01:13:20Z</time>
  <course>277.27</course>
  <speed>0.0</speed>
  <fix>3d</fix>
</trkpt>
<trkpt lat="33.8103136" lon="-118.3938733">
  <ele>-5.349</ele>
  <time>2026-09-01T01:13:20Z</time>
  <course>183.68</course>
  <speed>0.0282842712474619</speed>
  <fix>3d</fix>
</trkpt>
<trkpt lat="33.8103135" lon="-118.3938732">
  <ele>-5.21</ele>
  <time>2026-09-01T01:13:20Z</time>
  <course>277.28</course>
  <speed>0.0</speed>
  <fix>3d</fix>
</trkpt>
<trkpt lat="33.8103136" lon="-118.3938733">
  <ele>-5.35</ele>
  <time>2026-09-01T01:13:20Z</time>
  <course>183.68</course>
  <speed>0.0282842712474619</speed>
  <fix>3d</fix>
</trkpt>
<trkpt lat="33.8103135" lon="-118.3938732">
  <ele>-5.21</ele>
  <time>2026-09-01T01:13:20Z</time>
  <course>277.28</course>
  <speed>0.0</speed>
  <fix>3d</fix>
</trkpt>
<trkpt lat="33.8103136" lon="-118.3938733">
  <ele>-5.351</ele>
  <time>2026-09-01T01:13:20Z</time>
  <course>183.66</course>
  <speed>0.0282842712474619</speed>
  <fix>3d</fix>
</trkpt>
<trkpt lat="33.8103135" lon="-118.3938732">
  <ele>-5.22</ele>
  <time>2026-09-01T01:13:20Z</time>
  <course>277.3</course>
  <speed>0.0</speed>
  <fix>3d</fix>
</trkpt>
<trkpt lat="33.8103136" lon="-118.3938733">
  <ele>-5.351</ele>
  <time>2026-09-01T01:13:20Z</time>
  <course>183.65</course>
  <speed>0.0282842712474619</speed>
  <fix>3d</fix>
</trkpt>
<trkpt lat="33.8103135" lon="-118.3938732">
  <ele>-5.22</ele>
  <time>2026-09-01T01:13:20Z</time>
  <course>277.3</course>
  <speed>0.0</speed>
  <fix>3d</fix>
</trkpt>
<trkpt lat="33.8103136" lon="-118.3938733">
  <ele>-5.35</ele>
  <time>2026-09-01T01:13:20Z</time>
  <course>183.65</course>
  <speed>0.0282842712474619</speed>
  <fix>3d</fix>
</trkpt>
<trkpt lat="33.8103135" lon="-118.3938732">
  <ele>-5.21</ele>
  <time>2026-09-01T01:13:20Z</time>
  <course>277.32</course>
  <speed>0.0</speed>
  <fix>3d</fix>
</trkpt>
<trkpt lat="33.8103136" lon="-118.3938733">
  <ele>-5.349</ele>
  <time>2026-09-01T01:13:20Z</time>
  <course>183.64</course>
  <speed>0.0282842712474619</speed>
  <fix>3d</fix>
</trkpt>
<trkpt lat="33.8103135" lon="-118.3938732">
  <ele>-5.21</ele>
  <time>2026-09-01T01:13:20Z</time>
  <course>277.32</course>
  <speed>0.0</speed>
  <fix>3d</fix>
</trkpt>
<trkpt lat="33.8103136" lon="-118.3938733">
  <ele>-5.347</ele>
  <time>2026-09-01T01:13:20Z</time>
  <course>183.63</course>
  <speed>0.0282842712474619</speed>
  <fix>3d</fix>
</trkpt>
<trkpt lat="33.8103135" lon="-118.3938732">
  <ele>-5.21</ele>
  <time>2026-09-01T01:13:20Z</time>
  <course>277.33</course>
  <speed>0.0</speed>
  <fix>3d</fix>
</trkpt>
<trkpt lat="33.8103136" lon="-118.3938734">
  <ele>-5.345</ele>
  <time>2026-09-01T01:13:20Z</time>
  <course>183.62</course>
  <speed>0.0282842712474619</speed>
  <fix>3d</fix>
</trkpt>
<trkpt lat="33.8103135" lon="-118.3938732">
  <ele>-5.21</ele>
  <time>2026-09-01T01:13:20Z</time>
  <course>277.33</course>
  <speed>0.0</speed>
  <fix>3d</fix>
</trkpt>
<trkpt lat="33.8103136" lon="-118.3938734">
  <ele>-5.343</ele>
  <time>2026-09-01T01:13:20Z</time>
  <course>183.61</course>
  <speed>0.0282842712474619</speed>
  <fix>3d</fix>
</trkpt>
<trkpt lat="33.8103135" lon="-118.3938732">
  <ele>-5.21</ele>
  <time>2026-09-01T01:13:20Z</time>
  <course>277.32</course>
  <speed>0.0</speed>
  <fix>3d</fix>
</trkpt>
<trkpt lat="33.8103136" lon="-118.3938734">
  <ele>-5.343</ele>
  <time>2026-09-01T01:13:20Z</time>
  <course>183.6</course>
  <speed>0.0282842712474619</speed>
  <fix>3d</fix>
</trkpt>
<trkpt lat="33.8103135" lon="-118.3938732">
  <ele>-5.21</ele>
  <time>2026-09-01T01:13:20Z</time>
  <course>277.32</course>
  <speed>0.0</speed>
  <fix>3d</fix>
</trkpt>
<trkpt lat="33.8103136" lon="-118.3938734">
  <ele>-5.343</ele>
  <time>2026-09-01T01:13:20Z</time>
  <course>183.64</course>
  <speed>0.0282842712474619</speed>
  <fix>3d</fix>
</trkpt>
<trkpt lat="33.8103135" lon="-118.3938732">
  <ele>-5.21</ele>
  <time>2026-09-01T01:13:20Z</time>
  <course>277.31</course>
  <speed>0.0</speed>
  <fix>3d</fix>
</trkpt>
<trkpt lat="33.8103136" lon="-118.3938734">
  <ele>-5.344</ele>
  <time>2026-09-01T01:13:20Z</time>
  <course>183.73</course>
  <speed>0.0282842712474619</speed>
  <fix>3d</fix>
</trkpt>
<trkpt lat="33.8103135" lon="-118.3938732">
  <ele>-5.21</ele>
  <time>2026-09-01T01:13:20Z</time>
  <course>277.31</course>
  <speed>0.0</speed>
  <fix>3d</fix>
</trkpt>
<trkpt lat="33.8103137" lon="-118.3938734">
  <ele>-5.344</ele>
  <time>2026-09-01T01:13:20Z</time>
  <course>183.79</course>
  <speed>0.0282842712474619</speed>
  <fix>3d</fix>
</trkpt>
<trkpt lat="33.8103135" lon="-118.3938732">
  <ele>-5.21</ele>
  <time>2026-09-01T01:13:20Z</time>
  <course>277.31</course>
  <speed>0.0</speed>
  <fix>3d</fix>
</trkpt>
<trkpt lat="33.8103137" lon="-118.3938734">
  <ele>-5.346</ele>
  <time>2026-09-01T01:13:20Z</time>
  <course>183.82</course>
  <speed>0.03605551275463989</speed>
  <fix>3d</fix>
</trkpt>
<trkpt lat="33.8103135" lon="-118.3938732">
  <ele>-5.21</ele>
  <time>2026-09-01T01:13:20Z</time>
  <course>277.31</course>
  <speed>0.0</speed>
  <fix>3d</fix>
</trkpt>
<trkpt lat="33.8103137" lon="-118.3938734">
  <ele>-5.347</ele>
  <time>2026-09-01T01:13:20Z</time>
  <course>183.82</course>
  <speed>0.03605551275463989</speed>
  <fix>3d</fix>
</trkpt>
<trkpt lat="33.8103135" lon="-118.3938732">
  <ele>-5.21</ele>
  <time>2026-09-01T01:13:20Z</time>
  <course>277.32</course>
  <speed>0.0</speed>
  <fix>3d</fix>
</trkpt>
<trkpt lat="33.8103137" lon="-118.3938734">
  <ele>-5.348</ele>
  <time>2026-09-01T01:13:20Z</time>
  <course>183.82</course>
  <speed>0.04242640687119285</speed>
  <fix>3d</fix>
</trkpt>
<trkpt lat="33.8103135" lon="-118.3938732">
  <ele>-5.21</ele>
  <time>2026-09-01T01:13:20Z</time>
  <course>277.32</course>
  <speed>0.0</speed>
  <fix>3d</fix>
</trkpt>
<trkpt lat="33.8103137" lon="-118.3938734">
  <ele>-5.349</ele>
  <time>2026-09-01T01:13:20Z</time>
  <course>183.82</course>
  <speed>0.04242640687119285</speed>
  <fix>3d</fix>
</trkpt>
<trkpt lat="33.8103135" lon="-118.3938733">
  <ele>-5.22</ele>
  <time>2026-09-01T01:13:20Z</time>
  <course>277.33</course>
  <speed>0.0</speed>
  <fix>3d</fix>
</trkpt>
<trkpt lat="33.8103137" lon="-118.3938735">
  <ele>-5.35</ele>
  <time>2026-09-01T01:13:20Z</time>
  <course>183.82</course>
  <speed>0.04242640687119285</speed>
  <fix>3d</fix>
</trkpt>
<trkpt lat="33.8103135" lon="-118.3938733">
  <ele>-5.22</ele>
  <time>2026-09-01T01:13:20Z</time>
  <course>277.33</course>
  <speed>0.0</speed>
  <fix>3d</fix>
</trkpt>
<trkpt lat="33.8103137" lon="-118.3938735">
  <ele>-5.35</ele>
  <time>2026-09-01T01:13:20Z</time>
  <course>183.82</course>
  <speed>0.04242640687119285</speed>
  <fix>3d</fix>
</trkpt>
<trkpt lat="33.8103135" lon="-118.3938733">
  <ele>-5.22</ele>
  <time>2026-09-01T01:13:20Z</time>
  <course>277.35</course>
  <speed>0.0</speed>
  <fix>3d</fix>
</trkpt>
<trkpt lat="33.8103137" lon="-118.3938735">
  <ele>-5.351</ele>
  <time>2026-09-01T01:13:20Z</time>
  <course>183.82</course>
  <speed>0.04242640687119285</speed>
  <fix>3d</fix>
</trkpt>
<trkpt lat="33.8103135" lon="-118.3938733">
  <ele>-5.22</ele>
  <time>2026-09-01T01:13:20Z</time>
  <course>277.35</course>
  <speed>0.0</speed>
  <fix>3d</fix>
</trkpt>
<trkpt lat="33.8103137" lon="-118.3938735">
  <ele>-5.351</ele>
  <time>2026-09-01T01:13:20Z</time>
  <course>183.82</course>
  <speed>0.04242640687119285</speed>
  <fix>3d</fix>
</trkpt>
<trkpt lat="33.8103135" lon="-118.3938733">
  <ele>-5.22</ele>
  <time>2026-09-01T01:13:20Z</time>
  <course>277.36</course>
  <speed>0.0</speed>
  <fix>3d</fix>
</trkpt>
<trkpt lat="33.8103137" lon="-118.3938735">
  <ele>-5.35</ele>
  <time>2026-09-01T01:13:20Z</time>
  <course>183.82</course>
  <speed>0.04242640687119285</speed>
  <fix>3d</fix>
</trkpt>
<trkpt lat="33.8103135" lon="-118.3938733">
  <ele>-5.22</ele>
  <time>2026-09-01T01:13:20Z</time>
  <course>277.36</course>
  <speed>0.0</speed>
  <fix>3d</fix>
</trkpt>
<trkpt lat="33.8103137" lon="-118.3938735">
  <ele>-5.35</ele>
  <time>2026-09-01T01:13:20Z</time>
  <course>183.82</course>
  <speed>0.04242640687119285</speed>
  <fix>3d</fix>
</trkpt>
<trkpt lat="33.8103135" lon="-118.3938733">
  <ele>-5.22</ele>
  <time>2026-09-01T01:13:20Z</time>
  <course>277.35</course>
  <speed>0.0</speed>
  <fix>3d</fix>
</trkpt>
<trkpt lat="33.8103137" lon="-118.3938735">
  <ele>-5.349</ele>
  <time>2026-09-01T01:13:20Z</time>
  <course>183.82</course>
  <speed>0.03605551275463989</speed>
  <fix>3d</fix>
</trkpt>
<trkpt lat="33.8103135" lon="-118.3938733">
  <ele>-5.22</ele>
  <time>2026-09-01T01:13:20Z</time>
  <course>277.35</course>
  <speed>0.0</speed>
  <fix>3d</fix>
</trkpt>
<trkpt lat="33.8103137" lon="-118.3938735">
  <ele>-5.349</ele>
  <time>2026-09-01T01:13:20Z</time>
  <course>183.82</course>
  <speed>0.0282842712474619</speed>
  <fix>3d</fix>
</trkpt>
<trkpt lat="33.8103135" lon="-118.3938733">
  <ele>-5.22</ele>
  <time>2026-09-01T01:13:20Z</time>
  <course>277.35</course>
  <speed>0.0</speed>
  <fix>3d</fix>
</trkpt>
<trkpt lat="33.8103137" lon="-118.3938735">
  <ele>-5.349</ele>
  <time>2026-09-01T01:13:20Z</time>
  <course>183.82</course>
  <speed>0.0282842712474619</speed>
  <fix>3d</fix>
</trkpt>
<trkpt lat="33.8103135" lon="-118.3938733">
  <ele>-5.22</ele>
  <time>2026-09-01T01:13:20Z</time>
  <course>277.35</course>
  <speed>0.0</speed>
  <fix>3d</fix>
</trkpt>
<trkpt lat="33.8103137" lon="-118.3938735">
  <ele>-5.349</ele>
  <time>2026-09-01T01:13:20Z</time>
  <course>183.82</course>
  <speed>0.0282842712474619</speed>
  <fix>3d</fix>
</trkpt>
<trkpt lat="33.8103135" lon="-118.3938733">
  <ele>-5.22</ele>
  <time>2026-09-01T01:13:20Z</time>
  <course>277.35</course>
  <speed>0.0</speed>
  <fix>3d</fix>
</trkpt>
<trkpt lat="33.8103137" lon="-118.3938735">
  <ele>-5.35</ele>
  <time>2026-09-01T01:13:20Z</time>
  <course>183.82</course>
  <speed>0.0282842712474619</speed>
  <fix>3d</fix>
</trkpt>
<trkpt lat="33.8103135" lon="-118.3938733">
  <ele>-5.22</ele>
  <time>2026-09-01T01:13:20Z</time>
  <course>277.35</course>
  <speed>0.0</speed>
  <fix>3d</fix>
</trkpt>
<trkpt lat="33.8103137" lon="-118.3938735">
  <ele>-5.35</ele>
  <time>2026-09-01T01:13:20Z</time>
  <course>183.82</course>
  <speed>0.0282842712474619</speed>
  <fix>3d</fix>
</trkpt>
<trkpt lat="33.8103135" lon="-118.3938733">
  <ele>-5.22</ele>
  <time>2026-09-01T01:13:20Z</time>
  <course>277.37</course>
  <speed>0.0</speed>
  <fix>3d</fix>
</trkpt>
<trkpt lat="33.8103137" lon="-118.3938735">
  <ele>-5.35</ele>
  <time>2026-09-01T01:13:20Z</time>
  <course>183.82</course>
  <speed>0.0282842712474619</speed>
  <fix>3d</fix>
</trkpt>
<trkpt lat="33.8103135" lon="-118.3938733">
  <ele>-5.22</ele>
  <time>2026-09-01T01:13:20Z</time>
  <course>277.37</course>
  <speed>0.0</speed>
  <fix>3d</fix>
</trkpt>
<trkpt lat="33.8103137" lon="-118.3938735">
  <ele>-5.349</ele>
  <time>2026-09-01T01:13:20Z</time>
  <course>183.82</course>
  <speed>0.0282842712474619</speed>
  <fix>3d</fix>
</trkpt>
<trkpt lat="33.8103135" lon="-118.3938734">
  <ele>-5.21</ele>
  <time>2026-09-01T01:13:20Z</time>
  <course>277.38</course>
  <speed>0.0</speed>
  <fix>3d</fix>
</trkpt>
<trkpt lat="33.8103137" lon="-118.3938735">
  <ele>-5.347</ele>
  <time>2026-09-01T01:13:20Z</time>
  <course>183.82</course>
  <speed>0.0282842712474619</speed>
  <fix>3d</fix>
</trkpt>
<trkpt lat="33.8103135" lon="-118.3938734">
  <ele>-5.21</ele>
  <time>2026-09-01T01:13:20Z</time>
  <course>277.38</course>
  <speed>0.0</speed>
  <fix>3d</fix>
</trkpt>
<trkpt lat="33.8103137" lon="-118.3938735">
  <ele>-5.346</ele>
  <time>2026-09-01T01:13:20Z</time>
  <course>183.82</course>
  <speed>0.0282842712474619</speed>
  <fix>3d</fix>
</trkpt>
<trkpt lat="33.8103135" lon="-118.3938734">
  <ele>-5.21</ele>
  <time>2026-09-01T01:13:20Z</time>
  <course>277.38</course>
  <speed>0.0</speed>
  <fix>3d</fix>
</trkpt>
<trkpt lat="33.8103137" lon="-118.3938735">
  <ele>-5.346</ele>
  <time>2026-09-01T01:13:20Z</time>
  <course>183.82</course>
  <speed>0.0282842712474619</speed>
  <fix>3d</fix>
</trkpt>
<trkpt lat="33.8103135" lon="-118.3938734">
  <ele>-5.21</ele>
  <time>2026-09-01T01:13:20Z</time>
  <course>277.38</course>
  <speed>0.0</speed>
  <fix>3d</fix>
</trkpt>
<trkpt lat="33.8103137" lon="-118.3938735">
  <ele>-5.346</ele>
  <time>2026-09-01T01:13:20Z</time>
  <course>183.81</course>
  <speed>0.022360679774997897</speed>
  <fix>3d</fix>
</trkpt>
<trkpt lat="33.8103135" lon="-118.3938734">
  <ele>-5.21</ele>
  <time>2026-09-01T01:13:20Z</time>
  <course>277.37</course>
  <speed>0.0</speed>
  <fix>3d</fix>
</trkpt>
<trkpt lat="33.8103137" lon="-118.3938735">
  <ele>-5.346</ele>
  <time>2026-09-01T01:13:20Z</time>
  <course>183.81</course>
  <speed>0.022360679774997897</speed>
  <fix>3d</fix>
</trkpt>
<trkpt lat="33.8103135" lon="-118.3938734">
  <ele>-5.21</ele>
  <time>2026-09-01T01:13:20Z</time>
  <course>277.37</course>
  <speed>0.0</speed>
  <fix>3d</fix>
</trkpt>
<trkpt lat="33.8103137" lon="-118.3938735">
  <ele>-5.347</ele>
  <time>2026-09-01T01:13:20Z</time>
  <course>183.81</course>
  <speed>0.022360679774997897</speed>
  <fix>3d</fix>
</trkpt>
<trkpt lat="33.8103135" lon="-118.3938734">
  <ele>-5.21</ele>
  <time>2026-09-01T01:13:20Z</time>
  <course>277.36</course>
  <speed>0.0</speed>
  <fix>3d</fix>
</trkpt>
<trkpt lat="33.8103137" lon="-118.3938735">
  <ele>-5.347</ele>
  <time>2026-09-01T01:13:20Z</time>
  <course>183.81</course>
  <speed>0.022360679774997897</speed>
  <fix>3d</fix>
</trkpt>
<trkpt lat="33.8103135" lon="-118.3938734">
  <ele>-5.21</ele>
  <time>2026-09-01T01:13:20Z</time>
  <course>277.36</course>
  <speed>0.0</speed>
  <fix>3d</fix>
</trkpt>
<trkpt lat="33.8103137" lon="-118.3938735">
  <ele>-5.348</ele>
  <time>2026-09-01T01:13:20Z</time>
  <course>183.81</course>
  <speed>0.01414213562373095</speed>
  <fix>3d</fix>
</trkpt>
<trkpt lat="33.8103135" lon="-118.3938734">
  <ele>-5.21</ele>
  <time>2026-09-01T01:13:20Z</time>
  <course>277.36</course>
  <speed>0.0</speed>
  <fix>3d</fix>
</trkpt>
<trkpt lat="33.8103137" lon="-118.3938735">
  <ele>-5.348</ele>
  <time>2026-09-01T01:13:20Z</time>
  <course>183.81</course>
  <speed>0.01414213562373095</speed>
  <fix>3d</fix>
</trkpt>
<trkpt lat="33.8103135" lon="-118.3938734">
  <ele>-5.21</ele>
  <time>2026-09-01T01:13:20Z</time>
  <course>277.36</course>
  <speed>0.0</speed>
  <fix>3d</fix>
</trkpt>
<trkpt lat="33.8103137" lon="-118.3938735">
  <ele>-5.348</ele>
  <time>2026-09-01T01:13:20Z</time>
  <course>183.8</course>
  <speed>0.01414213562373095</speed>
  <fix>3d</fix>
</trkpt>
<trkpt lat="33.8103135" lon="-118.3938734">
  <ele>-5.21</ele>
  <time>2026-09-01T01:13:20Z</time>
  <course>277.36</course>
  <speed>0.0</speed>
  <fix>3d</fix>
</trkpt>
<trkpt lat="33.8103137" lon="-118.3938735">
  <ele>-5.349</ele>
  <time>2026-09-01T01:13:20Z</time>
  <course>183.8</course>
  <speed>0.01414213562373095</speed>
  <fix>3d</fix>
</trkpt>
<trkpt lat="33.8103135" lon="-118.3938734">
  <ele>-5.21</ele>
  <time>2026-09-01T01:13:20Z</time>
  <course>277.36</course>
  <speed>0.0</speed>
  <fix>3d</fix>
</trkpt>
<trkpt lat="33.8103137" lon="-118.3938735">
  <ele>-5.35</ele>
  <time>2026-09-01T01:13:20Z</time>
  <course>183.8</course>
  <speed>0.01414213562373095</speed>
  <fix>3d</fix>
</trkpt>
<trkpt lat="33.8103135" lon="-118.3938734">
  <ele>-5.22</ele>
  <time>2026-09-01T01:13:20Z</time>
  <course>277.37</course>
  <speed>0.0</speed>
  <fix>3d</fix>
</trkpt>
<trkpt lat="33.8103137" lon="-118.3938735">
  <ele>-5.351</ele>
  <time>2026-09-01T01:13:20Z</time>
  <course>183.8</course>
  <speed>0.01414213562373095</speed>
  <fix>3d</fix>
</trkpt>
<trkpt lat="33.8103135" lon="-118.3938734">
  <ele>-5.22</ele>
  <time>2026-09-01T01:13:20Z</time>
  <course>277.37</course>
  <speed>0.0</speed>
  <fix>3d</fix>
</trkpt>
<trkpt lat="33.8103137" lon="-118.3938735">
  <ele>-5.356</ele>
  <time>2026-09-01T01:13:20Z</time>
  <course>183.8</course>
  <speed>0.01414213562373095</speed>
  <fix>3d</fix>
</trkpt>
<trkpt lat="33.8103135" lon="-118.3938735">
  <ele>-5.22</ele>
  <time>2026-09-01T01:13:20Z</time>
  <course>277.35</course>
  <speed>0.0</speed>
  <fix>3d</fix>
</trkpt>
<trkpt lat="33.8103137" lon="-118.3938735">
  <ele>-5.379</ele>
  <time>2026-09-01T01:13:20Z</time>
  <course>183.79</course>
  <speed>0.01414213562373095</speed>
  <fix>3d</fix>
</trkpt>
<trkpt lat="33.8103135" lon="-118.3938735">
  <ele>-5.22</ele>
  <time>2026-09-01T01:13:20Z</time>
  <course>277.35</course>
  <speed>0.0</speed>
  <fix>3d</fix>
</trkpt>
<trkpt lat="33.8103137" lon="-118.3938735">
  <ele>-5.422</ele>
  <time>2026-09-01T01:13:20Z</time>
  <course>183.79</course>
  <speed>0.01</speed>
  <fix>3d</fix>
</trkpt>
<trkpt lat="33.8103135" lon="-118.3938735">
  <ele>-5.23</ele>
  <time>2026-09-01T01:13:20Z</time>
  <course>276.83</course>
  <speed>0.0</speed>
  <fix>3d</fix>
</trkpt>
<trkpt lat="33.8103137" lon="-118.3938735">
  <ele>-5.423</ele>
  <time>2026-09-01T01:13:20Z</time>
  <course>183.79</course>
  <speed>0.01</speed>
  <fix>3d</fix>
</trkpt>
<trkpt lat="33.8103137" lon="-118.3938735">
  <ele>-5.481</ele>
  <time>2026-09-01T01:13:20Z</time>
  <course>183.79</course>
  <speed>0.01</speed>
  <fix>3d</fix>
</trkpt>
<trkpt lat="33.8103135" lon="-118.3938735">
  <ele>-5.23</ele>
  <time>2026-09-01T01:13:20Z</time>
  <course>276.83</course>
  <speed>0.0</speed>
  <fix>3d</fix>
</trkpt>
<trkpt lat="33.8103137" lon="-118.3938735">
  <ele>-5.483</ele>
  <time>2026-09-01T01:13:20Z</time>
  <course>183.79</course>
  <speed>0.01</speed>
  <fix>3d</fix>
</trkpt>
<trkpt lat="33.8103136" lon="-118.3938735">
  <ele>-5.552</ele>
  <time>2026-09-01T01:13:20Z</time>
  <course>183.79</course>
  <speed>0.01</speed>
  <fix>3d</fix>
</trkpt>
<trkpt lat="33.8103135" lon="-118.3938735">
  <ele>-5.3</ele>
  <time>2026-09-01T01:13:20Z</time>
  <course>276.15</course>
  <speed>0.0</speed>
  <fix>3d</fix>
</trkpt>
<trkpt lat="33.8103136" lon="-118.3938736">
  <ele>-5.575</ele>
  <time>2026-09-01T01:13:20Z</time>
  <course>183.79</course>
  <speed>0.01</speed>
  <fix>3d</fix>
</trkpt>
<trkpt lat="33.8103136" lon="-118.3938736">
  <ele>-5.631</ele>
  <time>2026-09-01T01:13:20Z</time>
  <course>183.78</course>
  <speed>0.01</speed>
  <fix>3d</fix>
</trkpt>
<trkpt lat="33.8103135" lon="-118.3938735">
  <ele>-5.3</ele>
  <time>2026-09-01T01:13:20Z</time>
  <course>276.15</course>
  <speed>0.0</speed>
  <fix>3d</fix>
</trkpt>
<trkpt lat="33.8103136" lon="-118.3938736">
  <ele>-5.656</ele>
  <time>2026-09-01T01:13:20Z</time>
  <course>183.78</course>
  <speed>0.01</speed>
  <fix>3d</fix>
</trkpt>
<trkpt lat="33.8103136" lon="-118.3938736">
  <ele>-5.717</ele>
  <time>2026-09-01T01:13:20Z</time>
  <course>183.78</course>
  <speed>0.01</speed>
  <fix>3d</fix>
</trkpt>
<trkpt lat="33.8103135" lon="-118.3938735">
  <ele>-5.43</ele>
  <time>2026-09-01T01:13:20Z</time>
  <course>275.8</course>
  <speed>0.01</speed>
  <fix>3d</fix>
</trkpt>
<trkpt lat="33.8103136" lon="-118.3938736">
  <ele>-5.748</ele>
  <time>2026-09-01T01:13:20Z</time>
  <course>183.78</course>
  <speed>0.01</speed>
  <fix>3d</fix>
</trkpt>
<trkpt lat="33.8103136" lon="-118.3938736">
  <ele>-5.807</ele>
  <time>2026-09-01T01:13:20Z</time>
  <course>183.78</course>
  <speed>0.01</speed>
  <fix>3d</fix>
</trkpt>
<trkpt lat="33.8103135" lon="-118.3938735">
  <ele>-5.43</ele>
  <time>2026-09-01T01:13:20Z</time>
  <course>275.8</course>
  <speed>0.01</speed>
  <fix>3d</fix>
</trkpt>
<trkpt lat="33.8103136" lon="-118.3938736">
  <ele>-5.838</ele>
  <time>2026-09-01T01:13:20Z</time>
  <course>183.78</course>
  <speed>0.01</speed>
  <fix>3d</fix>
</trkpt>
<trkpt lat="33.8103136" lon="-118.3938736">
  <ele>-5.901</ele>
  <time>2026-09-01T01:13:20Z</time>
  <course>183.78</course>
  <speed>0.01</speed>
  <fix>3d</fix>
</trkpt>
<trkpt lat="33.8103135" lon="-118.3938735">
  <ele>-5.59</ele>
  <time>2026-09-01T01:13:20Z</time>
  <course>275.67</course>
  <speed>0.01</speed>
  <fix>3d</fix>
</trkpt>
<trkpt lat="33.8103136" lon="-118.3938736">
  <ele>-5.932</ele>
  <time>2026-09-01T01:13:20Z</time>
  <course>183.78</course>
  <speed>0.01</speed>
  <fix>3d</fix>
</trkpt>
<trkpt lat="33.8103136" lon="-118.3938736">
  <ele>-5.996</ele>
  <time>2026-09-01T01:13:20Z</time>
  <course>183.77</course>
  <speed>0.02</speed>
  <fix>3d</fix>
</trkpt>
<trkpt lat="33.8103135" lon="-118.3938735">
  <ele>-5.59</ele>
  <time>2026-09-01T01:13:20Z</time>
  <course>275.67</course>
  <speed>0.01</speed>
  <fix>3d</fix>
</trkpt>
<trkpt lat="33.8103136" lon="-118.3938736">
  <ele>-6.025</ele>
  <time>2026-09-01T01:13:20Z</time>
  <course>183.77</course>
  <speed>0.02</speed>
  <fix>3d</fix>
</trkpt>
<trkpt lat="33.8103136" lon="-118.3938736">
  <ele>-6.093</ele>
  <time>2026-09-01T01:13:20Z</time>
  <course>183.77</course>
  <speed>0.02</speed>
  <fix>3d</fix>
</trkpt>
<trkpt lat="33.8103135" lon="-118.3938736">
  <ele>-5.76</ele>
  <time>2026-09-01T01:13:20Z</time>
  <course>275.6</course>
  <speed>0.01</speed>
  <fix>3d</fix>
</trkpt>
<trkpt lat="33.8103136" lon="-118.3938736">
  <ele>-6.122</ele>
  <time>2026-09-01T01:13:20Z</time>
  <course>183.77</course>
  <speed>0.02</speed>
  <fix>3d</fix>
</trkpt>
<trkpt lat="33.8103136" lon="-118.3938736">
  <ele>-6.191</ele>
  <time>2026-09-01T01:13:20Z</time>
  <course>183.77</course>
  <speed>0.02</speed>
  <fix>3d</fix>
</trkpt>
<trkpt lat="33.8103135" lon="-118.3938736">
  <ele>-5.76</ele>
  <time>2026-09-01T01:13:20Z</time>
  <course>275.6</course>
  <speed>0.01</speed>
  <fix>3d</fix>
</trkpt>
<trkpt lat="33.8103136" lon="-118.3938736">
  <ele>-6.223</ele>
  <time>2026-09-01T01:13:20Z</time>
  <course>183.77</course>
  <speed>0.02</speed>
  <fix>3d</fix>
</trkpt>
<trkpt lat="33.8103136" lon="-118.3938736">
  <ele>-6.289</ele>
  <time>2026-09-01T01:13:20Z</time>
  <course>183.76</course>
  <speed>0.02</speed>
  <fix>3d</fix>
</trkpt>
<trkpt lat="33.8103135" lon="-118.3938736">
  <ele>-5.94</ele>
  <time>2026-09-01T01:13:20Z</time>
  <course>275.58</course>
  <speed>0.01</speed>
  <fix>3d</fix>
</trkpt>
<trkpt lat="33.8103136" lon="-118.3938736">
  <ele>-6.318</ele>
  <time>2026-09-01T01:13:20Z</time>
  <course>183.76</course>
  <speed>0.02</speed>
  <fix>3d</fix>
</trkpt>
<trkpt lat="33.8103136" lon="-118.3938736">
  <ele>-6.387</ele>
  <time>2026-09-01T01:13:20Z</time>
  <course>183.76</course>
  <speed>0.022360679774997897</speed>
  <fix>3d</fix>
</trkpt>
<trkpt lat="33.8103135" lon="-118.3938736">
  <ele>-5.94</ele>
  <time>2026-09-01T01:13:20Z</time>
  <course>275.58</course>
  <speed>0.01</speed>
  <fix>3d</fix>
</trkpt>
<trkpt lat="33.8103136" lon="-118.3938737">
  <ele>-6.418</ele>
  <time>2026-09-01T01:13:20Z</time>
  <course>183.76</course>
  <speed>0.022360679774997897</speed>
  <fix>3d</fix>
</trkpt>
<trkpt lat="33.8103136" lon="-118.3938737">
  <ele>-6.485</ele>
  <time>2026-09-01T01:13:20Z</time>
  <course>183.76</course>
  <speed>0.022360679774997897</speed>
  <fix>3d</fix>
</trkpt>
<trkpt lat="33.8103135" lon="-118.3938736">
  <ele>-6.13</ele>
  <time>2026-09-01T01:13:20Z</time>
  <course>275.56</course>
  <speed>0.01</speed>
  <fix>3d</fix>
</trkpt>
<trkpt lat="33.8103136" lon="-118.3938737">
  <ele>-6.486</ele>
  <time>2026-09-01T01:13:20Z</time>
  <course>183.76</course>
  <speed>0.022360679774997897</speed>
  <fix>3d</fix>
</trkpt>
<trkpt lat="33.8103136" lon="-118.3938737">
  <ele>-6.583</ele>
  <time>2026-09-01T01:13:20Z</time>
  <course>183.76</course>
  <speed>0.022360679774997897</speed>
  <fix>3d</fix>
</trkpt>
<trkpt lat="33.8103135" lon="-118.3938736">
  <ele>-6.13</ele>
  <time>2026-09-01T01:13:20Z</time>
  <course>275.56</course>
  <speed>0.01</speed>
  <fix>3d</fix>
</trkpt>
<trkpt lat="33.8103136" lon="-118.3938737">
  <ele>-6.614</ele>
  <time>2026-09-01T01:13:20Z</time>
  <course>183.76</course>
  <speed>0.022360679774997897</speed>
  <fix>3d</fix>
</trkpt>
<trkpt lat="33.8103136" lon="-118.3938737">
  <ele>-6.681</ele>
  <time>2026-09-01T01:13:20Z</time>
  <course>183.75</course>
  <speed>0.022360679774997897</speed>
  <fix>3d</fix>
</trkpt>
<trkpt lat="33.8103135" lon="-118.3938736">
  <ele>-6.31</ele>
  <time>2026-09-01T01:13:20Z</time>
  <course>275.55</course>
  <speed>0.01</speed>
  <fix>3d</fix>
</trkpt>
<trkpt lat="33.8103136" lon="-118.3938737">
  <ele>-6.713</ele>
  <time>2026-09-01T01:13:20Z</time>
  <course>183.75</course>
  <speed>0.022360679774997897</speed>
  <fix>3d</fix>
</trkpt>
<trkpt lat="33.8103136" lon="-118.3938737">
  <ele>-6.78</ele>
  <time>2026-09-01T01:13:20Z</time>
  <course>183.75</course>
  <speed>0.022360679774997897</speed>
  <fix>3d</fix>
</trkpt>
<trkpt lat="33.8103135" lon="-118.3938736">
  <ele>-6.31</ele>
  <time>2026-09-01T01:13:20Z</time>
  <course>275.55</course>
  <speed>0.01</speed>
  <fix>3d</fix>
</trkpt>
<trkpt lat="33.8103136" lon="-118.3938737">
  <ele>-6.814</ele>
  <time>2026-09-01T01:13:20Z</time>
  <course>183.75</course>
  <speed>0.022360679774997897</speed>
  <fix>3d</fix>
</trkpt>
<trkpt lat="33.8103136" lon="-118.3938737">
  <ele>-6.878</ele>
  <time>2026-09-01T01:13:20Z</time>
  <course>183.75</course>
  <speed>0.022360679774997897</speed>
  <fix>3d</fix>
</trkpt>
<trkpt lat="33.8103135" lon="-118.3938737">
  <ele>-6.5</ele>
  <time>2026-09-01T01:13:20Z</time>
  <course>275.55</course>
  <speed>0.01</speed>
  <fix>3d</fix>
</trkpt>
<trkpt lat="33.8103136" lon="-118.3938737">
  <ele>-6.908</ele>
  <time>2026-09-01T01:13:20Z</time>
  <course>183.75</course>
  <speed>0.022360679774997897</speed>
  <fix>3d</fix>
</trkpt>
<trkpt lat="33.8103136" lon="-118.3938737">
  <ele>-6.977</ele>
  <time>2026-09-01T01:13:20Z</time>
  <course>183.75</course>
  <speed>0.022360679774997897</speed>
  <fix>3d</fix>
</trkpt>
<trkpt lat="33.8103135" lon="-118.3938737">
  <ele>-6.5</ele>
  <time>2026-09-01T01:13:20Z</time>
  <course>275.55</course>
  <speed>0.01</speed>
  <fix>3d</fix>
</trkpt>
<trkpt lat="33.8103136" lon="-118.3938737">
  <ele>-7.009</ele>
  <time>2026-09-01T01:13:20Z</time>
  <course>183.74</course>
  <speed>0.022360679774997897</speed>
  <fix>3d</fix>
</trkpt>
<trkpt lat="33.8103136" lon="-118.3938738">
  <ele>-7.075</ele>
  <time>2026-09-01T01:13:20Z</time>
  <course>183.74</course>
  <speed>0.022360679774997897</speed>
  <fix>3d</fix>
</trkpt>
<trkpt lat="33.8103135" lon="-118.3938737">
  <ele>-6.69</ele>
  <time>2026-09-01T01:13:20Z</time>
  <course>275.54</course>
  <speed>0.01</speed>
  <fix>3d</fix>
</trkpt>
<trkpt lat="33.8103136" lon="-118.3938738">
  <ele>-7.104</ele>
  <time>2026-09-01T01:13:20Z</time>
  <course>183.74</course>
  <speed>0.022360679774997897</speed>
  <fix>3d</fix>
</trkpt>
<trkpt lat="33.8103136" lon="-118.3938738">
  <ele>-7.172</ele>
  <time>2026-09-01T01:13:20Z</time>
  <course>183.74</course>
  <speed>0.022360679774997897</speed>
  <fix>3d</fix>
</trkpt>
<trkpt lat="33.8103135" lon="-118.3938737">
  <ele>-6.69</ele>
  <time>2026-09-01T01:13:20Z</time>
  <course>275.54</course>
  <speed>0.01</speed>
  <fix>3d</fix>
</trkpt>
<trkpt lat="33.8103136" lon="-118.3938738">
  <ele>-7.203</ele>
  <time>2026-09-01T01:13:20Z</time>
  <course>183.74</course>
  <speed>0.022360679774997897</speed>
  <fix>3d</fix>
</trkpt>
<trkpt lat="33.8103136" lon="-118.3938738">
  <ele>-7.269</ele>
  <time>2026-09-01T01:13:20Z</time>
  <course>183.74</course>
  <speed>0.022360679774997897</speed>
  <fix>3d</fix>
</trkpt>
<trkpt lat="33.8103135" lon="-118.3938737">
  <ele>-6.87</ele>
  <time>2026-09-01T01:13:20Z</time>
  <course>275.54</course>
  <speed>0.01</speed>
  <fix>3d</fix>
</trkpt>
<trkpt lat="33.8103136" lon="-118.3938738">
  <ele>-7.301</ele>
  <time>2026-09-01T01:13:20Z</time>
  <course>183.74</course>
  <speed>0.022360679774997897</speed>
  <fix>3d</fix>
</trkpt>
<trkpt lat="33.8103136" lon="-118.3938738">
  <ele>-7.367</ele>
  <time>2026-09-01T01:13:20Z</time>
  <course>183.73</course>
  <speed>0.022360679774997897</speed>
  <fix>3d</fix>
</trkpt>
<trkpt lat="33.8103135" lon="-118.3938737">
  <ele>-6.87</ele>
  <time>2026-09-01T01:13:20Z</time>
  <course>275.54</course>
  <speed>0.01</speed>
  <fix>3d</fix>
</trkpt>
<trkpt lat="33.8103136" lon="-118.3938738">
  <ele>-7.396</ele>
  <time>2026-09-01T01:13:20Z</time>
  <course>183.73</course>
  <speed>0.022360679774997897</speed>
  <fix>3d</fix>
</trkpt>
<trkpt lat="33.8103136" lon="-118.3938738">
  <ele>-7.464</ele>
  <time>2026-09-01T01:13:20Z</time>
  <course>183.73</course>
  <speed>0.022360679774997897</speed>
  <fix>3d</fix>
</trkpt>
<trkpt lat="33.8103135" lon="-118.3938738">
  <ele>-7.06</ele>
  <time>2026-09-01T01:13:20Z</time>
  <course>275.54</course>
  <speed>0.01</speed>
  <fix>3d</fix>
</trkpt>
<trkpt lat="33.8103136" lon="-118.3938738">
  <ele>-7.5</ele>
  <time>2026-09-01T01:13:20Z</time>
  <course>183.73</course>
  <speed>0.022360679774997897</speed>
  <fix>3d</fix>
</trkpt>
<trkpt lat="33.8103136" lon="-118.3938738">
  <ele>-7.56</ele>
  <time>2026-09-01T01:13:20Z</time>
  <course>183.73</course>
  <speed>0.022360679774997897</speed>
  <fix>3d</fix>
</trkpt>
<trkpt lat="33.8103135" lon="-118.3938738">
  <ele>-7.06</ele>
  <time>2026-09-01T01:13:20Z</time>
  <course>275.54</course>
  <speed>0.01</speed>
  <fix>3d</fix>
</trkpt>
<trkpt lat="33.8103136" lon="-118.3938738">
  <ele>-7.563</ele>
  <time>2026-09-01T01:13:20Z</time>
  <course>183.73</course>
  <speed>0.022360679774997897</speed>
  <fix>3d</fix>
</trkpt>
<trkpt lat="33.8103136" lon="-118.3938739">
  <ele>-7.658</ele>
  <time>2026-09-01T01:13:20Z</time>
  <course>183.73</course>
  <speed>0.022360679774997897</speed>
  <fix>3d</fix>
</trkpt>
<trkpt lat="33.8103135" lon="-118.3938738">
  <ele>-7.25</ele>
  <time>2026-09-01T01:13:20Z</time>
  <course>275.53</course>
  <speed>0.01</speed>
  <fix>3d</fix>
</trkpt>
<trkpt lat="33.8103136" lon="-118.3938739">
  <ele>-7.66</ele>
  <time>2026-09-01T01:13:20Z</time>
  <course>183.73</course>
  <speed>0.022360679774997897</speed>
  <fix>3d</fix>
</trkpt>
<trkpt lat="33.8103136" lon="-118.3938739">
  <ele>-7.755</ele>
  <time>2026-09-01T01:13:20Z</time>
  <course>183.72</course>
  <speed>0.022360679774997897</speed>
  <fix>3d</fix>
</trkpt>
<trkpt lat="33.8103135" lon="-118.3938738">
  <ele>-7.25</ele>
  <time>2026-09-01T01:13:20Z</time>
  <course>275.53</course>
  <speed>0.01</speed>
  <fix>3d</fix>
</trkpt>
<trkpt lat="33.8103136" lon="-118.3938739">
  <ele>-7.786</ele>
  <time>2026-09-01T01:13:20Z</time>
  <course>183.72</course>
  <speed>0.0316227766016838</speed>
  <fix>3d</fix>
</trkpt>
<trkpt lat="33.8103136" lon="-118.3938739">
  <ele>-7.851</ele>
  <time>2026-09-01T01:13:20Z</time>
  <course>183.72</course>
  <speed>0.0316227766016838</speed>
  <fix>3d</fix>
</trkpt>
<trkpt lat="33.8103135" lon="-118.3938738">
  <ele>-7.44</ele>
  <time>2026-09-01T01:13:20Z</time>
  <course>275.53</course>
  <speed>0.01</speed>
  <fix>3d</fix>
</trkpt>
<trkpt lat="33.8103136" lon="-118.3938739">
  <ele>-7.885</ele>
  <time>2026-09-01T01:13:20Z</time>
  <course>183.72</course>
  <speed>0.0316227766016838</speed>
  <fix>3d</fix>
</trkpt>
<trkpt lat="33.8103136" lon="-118.3938739">
  <ele>-7.948</ele>
  <time>2026-09-01T01:13:20Z</time>
  <course>183.72</course>
  <speed>0.03605551275463989</speed>
  <fix>3d</fix>
</trkpt>
<trkpt lat="33.8103135" lon="-118.3938738">
  <ele>-7.44</ele>
  <time>2026-09-01T01:13:20Z</time>
  <course>275.53</course>
  <speed>0.01</speed>
  <fix>3d</fix>
</trkpt>
<trkpt lat="33.8103136" lon="-118.3938739">
  <ele>-7.98</ele>
  <time>2026-09-01T01:13:20Z</time>
  <course>183.72</course>
  <speed>0.03605551275463989</speed>
  <fix>3d</fix>
</trkpt>
<trkpt lat="33.8103136" lon="-118.3938739">
  <ele>-8.046</ele>
  <time>2026-09-01T01:13:20Z</time>
  <course>183.72</course>
  <speed>0.03605551275463989</speed>
  <fix>3d</fix>
</trkpt>
<trkpt lat="33.8103135" lon="-118.3938738">
  <ele>-7.62</ele>
  <time>2026-09-01T01:13:20Z</time>
  <course>275.52</course>
  <speed>0.01</speed>
  <fix>3d</fix>
</trkpt>
<trkpt lat="33.8103136" lon="-118.3938739">
  <ele>-8.077</ele>
  <time>2026-09-01T01:13:20Z</time>
  <course>183.72</course>
  <speed>0.03605551275463989</speed>
  <fix>3d</fix>
</trkpt>
<trkpt lat="33.8103136" lon="-118.393874">
  <ele>-8.143</ele>
  <time>2026-09-01T01:13:20Z</time>
  <course>183.72</course>
  <speed>0.03605551275463989</speed>
  <fix>3d</fix>
</trkpt>
<trkpt lat="33.8103135" lon="-118.3938738">
  <ele>-7.62</ele>
  <time>2026-09-01T01:13:20Z</time>
  <course>275.52</course>
  <speed>0.01</speed>
  <fix>3d</fix>
</trkpt>
<trkpt lat="33.8103136" lon="-118.393874">
  <ele>-8.197</ele>
  <time>2026-09-01T01:13:20Z</time>
  <course>183.71</course>
  <speed>0.03605551275463989</speed>
  <fix>3d</fix>
</trkpt>
<trkpt lat="33.8103136" lon="-118.393874">
  <ele>-8.241</ele>
  <time>2026-09-01T01:13:20Z</time>
  <course>183.71</course>
  <speed>0.03605551275463989</speed>
  <fix>3d</fix>
</trkpt>
<trkpt lat="33.8103135" lon="-118.3938739">
  <ele>-7.81</ele>
  <time>2026-09-01T01:13:20Z</time>
  <course>275.51</course>
  <speed>0.01</speed>
  <fix>3d</fix>
</trkpt>
<trkpt lat="33.8103136" lon="-118.393874">
  <ele>-8.28</ele>
  <time>2026-09-01T01:13:20Z</time>
  <course>183.71</course>
  <speed>0.03605551275463989</speed>
  <fix>3d</fix>
</trkpt>
<trkpt lat="33.8103136" lon="-118.393874">
  <ele>-8.339</ele>
  <time>2026-09-01T01:13:20Z</time>
  <course>183.71</course>
  <speed>0.03605551275463989</speed>
  <fix>3d</fix>
</trkpt>
<trkpt lat="33.8103135" lon="-118.3938739">
  <ele>-7.81</ele>
  <time>2026-09-01T01:13:20Z</time>
  <course>275.51</course>
  <speed>0.01</speed>
  <fix>3d</fix>
</trkpt>
<trkpt lat="33.8103136" lon="-118.393874">
  <ele>-8.361</ele>
  <time>2026-09-01T01:13:20Z</time>
  <course>183.71</course>
  <speed>0.03605551275463989</speed>
  <fix>3d</fix>
</trkpt>
<trkpt lat="33.8103136" lon="-118.393874">
  <ele>-8.436</ele>
  <time>2026-09-01T01:13:20Z</time>
  <course>183.71</course>
  <speed>0.03605551275463989</speed>
  <fix>3d</fix>
</trkpt>
<trkpt lat="33.8103135" lon="-118.3938739">
  <ele>-8.01</ele>
  <time>2026-09-01T01:13:20Z</time>
  <course>275.51</course>
  <speed>0.01</speed>
  <fix>3d</fix>
</trkpt>
<trkpt lat="33.8103136" lon="-118.393874">
  <ele>-8.461</ele>
  <time>2026-09-01T01:13:20Z</time>
  <course>183.71</course>
  <speed>0.03605551275463989</speed>
  <fix>3d</fix>
</trkpt>
<trkpt lat="33.8103136" lon="-118.393874">
  <ele>-8.534</ele>
  <time>2026-09-01T01:13:20Z</time>
  <course>183.71</course>
  <speed>0.03605551275463989</speed>
  <fix>3d</fix>
</trkpt>
<trkpt lat="33.8103135" lon="-118.3938739">
  <ele>-8.01</ele>
  <time>2026-09-01T01:13:20Z</time>
  <course>275.51</course>
  <speed>0.01</speed>
  <fix>3d</fix>
</trkpt>
<trkpt lat="33.8103136" lon="-118.393874">
  <ele>-8.559</ele>
  <time>2026-09-01T01:13:20Z</time>
  <course>183.71</course>
  <speed>0.03605551275463989</speed>
  <fix>3d</fix>
</trkpt>
<trkpt lat="33.8103136" lon="-118.3938741">
  <ele>-8.632</ele>
  <time>2026-09-01T01:13:20Z</time>
  <course>183.71</course>
  <speed>0.03605551275463989</speed>
  <fix>3d</fix>
</trkpt>
<trkpt lat="33.8103135" lon="-118.3938739">
  <ele>-8.2</ele>
  <time>2026-09-01T01:13:20Z</time>
  <course>275.5</course>
  <speed>0.01</speed>
  <fix>3d</fix>
</trkpt>
<trkpt lat="33.8103136" lon="-118.3938741">
  <ele>-8.634</ele>
  <time>2026-09-01T01:13:20Z</time>
  <course>183.71</course>
  <speed>0.03605551275463989</speed>
  <fix>3d</fix>
</trkpt>
<trkpt lat="33.8103136" lon="-118.3938741">
  <ele>-8.731</ele>
  <time>2026-09-01T01:13:20Z</time>
  <course>183.7</course>
  <speed>0.03605551275463989</speed>
  <fix>3d</fix>
</trkpt>
<trkpt lat="33.8103135" lon="-118.3938739">
  <ele>-8.2</ele>
  <time>2026-09-01T01:13:20Z</time>
  <course>275.5</course>
  <speed>0.01</speed>
  <fix>3d</fix>
</trkpt>
<trkpt lat="33.8103136" lon="-118.3938741">
  <ele>-8.755</ele>
  <time>2026-09-01T01:13:20Z</time>
  <course>183.7</course>
  <speed>0.03605551275463989</speed>
  <fix>3d</fix>
</trkpt>
<trkpt lat="33.8103136" lon="-118.3938741">
  <ele>-8.829</ele>
  <time>2026-09-01T01:13:20Z</time>
  <course>183.7</course>
  <speed>0.03605551275463989</speed>
  <fix>3d</fix>
</trkpt>
<trkpt lat="33.8103135" lon="-118.393874">
  <ele>-8.39</ele>
  <time>2026-09-01T01:13:20Z</time>
  <course>275.5</course>
  <speed>0.01</speed>
  <fix>3d</fix>
</trkpt>
<trkpt lat="33.8103136" lon="-118.3938741">
  <ele>-8.861</ele>
  <time>2026-09-01T01:13:20Z</time>
  <course>183.7</course>
  <speed>0.03605551275463989</speed>
  <fix>3d</fix>
</trkpt>
<trkpt lat="33.8103136" lon="-118.3938741">
  <ele>-8.927</ele>
  <time>2026-09-01T01:13:20Z</time>
  <course>183.7</course>
  <speed>0.03605551275463989</speed>
  <fix>3d</fix>
</trkpt>
<trkpt lat="33.8103135" lon="-118.393874">
  <ele>-8.39</ele>
  <time>2026-09-01T01:13:20Z</time>
  <course>275.5</course>
  <speed>0.01</speed>
  <fix>3d</fix>
</trkpt>
<trkpt lat="33.8103136" lon="-118.3938741">
  <ele>-8.93</ele>
  <time>2026-09-01T01:13:20Z</time>
  <course>183.7</course>
  <speed>0.03605551275463989</speed>
  <fix>3d</fix>
</trkpt>
<trkpt lat="33.8103136" lon="-118.3938741">
  <ele>-9.025</ele>
  <time>2026-09-01T01:13:20Z</time>
  <course>183.7</course>
  <speed>0.03605551275463989</speed>
  <fix>3d</fix>
</trkpt>
<trkpt lat="33.8103135" lon="-118.393874">
  <ele>-8.58</ele>
  <time>2026-09-01T01:13:20Z</time>
  <course>275.5</course>
  <speed>0.01</speed>
  <fix>3d</fix>
</trkpt>
<trkpt lat="33.8103136" lon="-118.3938741">
  <ele>-9.055</ele>
  <time>2026-09-01T01:13:20Z</time>
  <course>183.7</course>
  <speed>0.03605551275463989</speed>
  <fix>3d</fix>
</trkpt>
<trkpt lat="33.8103136" lon="-118.3938742">
  <ele>-9.124</ele>
  <time>2026-09-01T01:13:20Z</time>
  <course>183.7</course>
  <speed>0.03605551275463989</speed>
  <fix>3d</fix>
</trkpt>
<trkpt lat="33.8103135" lon="-118.393874">
  <ele>-8.58</ele>
  <time>2026-09-01T01:13:20Z</time>
  <course>275.5</course>
  <speed>0.01</speed>
  <fix>3d</fix>
</trkpt>
<trkpt lat="33.8103136" lon="-118.3938742">
  <ele>-9.165</ele>
  <time>2026-09-01T01:13:20Z</time>
  <course>183.7</course>
  <speed>0.03605551275463989</speed>
  <fix>3d</fix>
</trkpt>
<trkpt lat="33.8103136" lon="-118.3938742">
  <ele>-9.222</ele>
  <time>2026-09-01T01:13:20Z</time>
  <course>183.7</course>
  <speed>0.03605551275463989</speed>
  <fix>3d</fix>
</trkpt>
<trkpt lat="33.8103135" lon="-118.393874">
  <ele>-8.78</ele>
  <time>2026-09-01T01:13:20Z</time>
  <course>275.5</course>
  <speed>0.01</speed>
  <fix>3d</fix>
</trkpt>
<trkpt lat="33.8103136" lon="-118.3938742">
  <ele>-9.251</ele>
  <time>2026-09-01T01:13:20Z</time>
  <course>183.7</course>
  <speed>0.03605551275463989</speed>
  <fix>3d</fix>
</trkpt>
<trkpt lat="33.8103136" lon="-118.3938742">
  <ele>-9.32</ele>
  <time>2026-09-01T01:13:20Z</time>
  <course>183.7</course>
  <speed>0.03605551275463989</speed>
  <fix>3d</fix>
</trkpt>
<trkpt lat="33.8103135" lon="-118.393874">
  <ele>-8.78</ele>
  <time>2026-09-01T01:13:20Z</time>
  <course>275.5</course>
  <speed>0.01</speed>
  <fix>3d</fix>
</trkpt>
<trkpt lat="33.8103136" lon="-118.3938742">
  <ele>-9.357</ele>
  <time>2026-09-01T01:13:20Z</time>
  <course>183.69</course>
  <speed>0.03605551275463989</speed>
  <fix>3d</fix>
</trkpt>
<trkpt lat="33.8103136" lon="-118.3938742">
  <ele>-9.418</ele>
  <time>2026-09-01T01:13:20Z</time>
  <course>183.69</course>
  <speed>0.03605551275463989</speed>
  <fix>3d</fix>
</trkpt>
<trkpt lat="33.8103135" lon="-118.393874">
  <ele>-8.97</ele>
  <time>2026-09-01T01:13:20Z</time>
  <course>275.51</course>
  <speed>0.01</speed>
  <fix>3d</fix>
</trkpt>
<trkpt lat="33.8103136" lon="-118.3938742">
  <ele>-9.453</ele>
  <time>2026-09-01T01:13:20Z</time>
  <course>183.69</course>
  <speed>0.03605551275463989</speed>
  <fix>3d</fix>
</trkpt>
<trkpt lat="33.8103137" lon="-118.3938742">
  <ele>-9.517</ele>
  <time>2026-09-01T01:13:20Z</time>
  <course>183.69</course>
  <speed>0.03605551275463989</speed>
  <fix>3d</fix>
</trkpt>
<trkpt lat="33.8103135" lon="-118.393874">
  <ele>-8.97</ele>
  <time>2026-09-01T01:13:20Z</time>
  <course>275.51</course>
  <speed>0.01</speed>
  <fix>3d</fix>
</trkpt>
<trkpt lat="33.8103137" lon="-118.3938742">
  <ele>-9.546</ele>
  <time>2026-09-01T01:13:20Z</time>
  <course>183.69</course>
  <speed>0.03605551275463989</speed>
  <fix>3d</fix>
</trkpt>
<trkpt lat="33.8103137" lon="-118.3938743">
  <ele>-9.616</ele>
  <time>2026-09-01T01:13:20Z</time>
  <course>183.69</course>
  <speed>0.03605551275463989</speed>
  <fix>3d</fix>
</trkpt>
<trkpt lat="33.8103135" lon="-118.3938741">
  <ele>-9.16</ele>
  <time>2026-09-01T01:13:20Z</time>
  <course>275.51</course>
  <speed>0.01</speed>
  <fix>3d</fix>
</trkpt>
<trkpt lat="33.8103137" lon="-118.3938743">
  <ele>-9.645</ele>
  <time>2026-09-01T01:13:20Z</time>
  <course>183.69</course>
  <speed>0.03605551275463989</speed>
  <fix>3d</fix>
</trkpt>
<trkpt lat="33.8103137" lon="-118.3938743">
  <ele>-9.714</ele>
  <time>2026-09-01T01:13:20Z</time>
  <course>183.69</course>
  <speed>0.04242640687119285</speed>
  <fix>3d</fix>
</trkpt>
<trkpt lat="33.8103135" lon="-118.3938741">
  <ele>-9.16</ele>
  <time>2026-09-01T01:13:20Z</time>
  <course>275.51</course>
  <speed>0.01</speed>
  <fix>3d</fix>
</trkpt>
<trkpt lat="33.8103137" lon="-118.3938743">
  <ele>-9.716</ele>
  <time>2026-09-01T01:13:20Z</time>
  <course>183.69</course>
  <speed>0.04242640687119285</speed>
  <fix>3d</fix>
</trkpt>
<trkpt lat="33.8103137" lon="-118.3938743">
  <ele>-9.813</ele>
  <time>2026-09-01T01:13:20Z</time>
  <course>183.69</course>
  <speed>0.04242640687119285</speed>
  <fix>3d</fix>
</trkpt>
<trkpt lat="33.8103135" lon="-118.3938741">
  <ele>-9.35</ele>
  <time>2026-09-01T01:13:20Z</time>
  <course>275.51</course>
  <speed>0.01</speed>
  <fix>3d</fix>
</trkpt>
<trkpt lat="33.8103137" lon="-118.3938743">
  <ele>-9.845</ele>
  <time>2026-09-01T01:13:20Z</time>
  <course>183.69</course>
  <speed>0.04242640687119285</speed>
  <fix>3d</fix>
</trkpt>
<trkpt lat="33.8103137" lon="-118.3938743">
  <ele>-9.911</ele>
  <time>2026-09-01T01:13:20Z</time>
  <course>183.69</course>
  <speed>0.04242640687119285</speed>
  <fix>3d</fix>
</trkpt>
<trkpt lat="33.8103135" lon="-118.3938741">
  <ele>-9.35</ele>
  <time>2026-09-01T01:13:20Z</time>
  <course>275.51</course>
  <speed>0.01</speed>
  <fix>3d</fix>
</trkpt>
<trkpt lat="33.8103137" lon="-118.3938743">
  <ele>-9.943</ele>
  <time>2026-09-01T01:13:20Z</time>
  <course>183.69</course>
  <speed>0.04242640687119285</speed>
  <fix>3d</fix>
</trkpt>
<trkpt lat="33.8103137" lon="-118.3938743">
  <ele>-10.01</ele>
  <time>2026-09-01T01:13:20Z</time>
  <course>183.69</course>
  <speed>0.04242640687119285</speed>
  <fix>3d</fix>
</trkpt>
<trkpt lat="33.8103135" lon="-118.3938741">
  <ele>-9.54</ele>
  <time>2026-09-01T01:13:20Z</time>
  <course>275.51</course>
  <speed>0.01</speed>
  <fix>3d</fix>
</trkpt>
<trkpt lat="33.8103137" lon="-118.3938743">
  <ele>-10.015</ele>
  <time>2026-09-01T01:13:20Z</time>
  <course>183.69</course>
  <speed>0.04242640687119285</speed>
  <fix>3d</fix>
</trkpt>
<trkpt lat="33.8103137" lon="-118.3938743">
  <ele>-10.108</ele>
  <time>2026-09-01T01:13:20Z</time>
  <course>183.69</course>
  <speed>0.04242640687119285</speed>
  <fix>3d</fix>
</trkpt>
<trkpt lat="33.8103135" lon="-118.3938741">
  <ele>-9.54</ele>
  <time>2026-09-01T01:13:20Z</time>
  <course>275.51</course>
  <speed>0.01</speed>
  <fix>3d</fix>
</trkpt>
<trkpt lat="33.8103137" lon="-118.3938744">
  <ele>-10.14</ele>
  <time>2026-09-01T01:13:20Z</time>
  <course>183.69</course>
  <speed>0.05</speed>
  <fix>3d</fix>
</trkpt>
<trkpt lat="33.8103137" lon="-118.3938744">
  <ele>-10.205</ele>
  <time>2026-09-01T01:13:20Z</time>
  <course>183.69</course>
  <speed>0.05</speed>
  <fix>3d</fix>
</trkpt>
<trkpt lat="33.8103135" lon="-118.3938742">
  <ele>-9.73</ele>
  <time>2026-09-01T01:13:20Z</time>
  <course>275.52</course>
  <speed>0.01</speed>
  <fix>3d</fix>
</trkpt>
<trkpt lat="33.8103137" lon="-118.3938744">
  <ele>-10.234</ele>
  <time>2026-09-01T01:13:20Z</time>
  <course>183.69</course>
  <speed>0.05</speed>
  <fix>3d</fix>
</trkpt>
<trkpt lat="33.8103137" lon="-118.3938744">
  <ele>-10.302</ele>
  <time>2026-09-01T01:13:20Z</time>
  <course>183.69</course>
  <speed>0.05</speed>
  <fix>3d</fix>
</trkpt>
<trkpt lat="33.8103135" lon="-118.3938742">
  <ele>-9.73</ele>
  <time>2026-09-01T01:13:20Z</time>
  <course>275.52</course>
  <speed>0.01</speed>
  <fix>3d</fix>
</trkpt>
<trkpt lat="33.8103137" lon="-118.3938744">
  <ele>-10.333</ele>
  <time>2026-09-01T01:13:20Z</time>
  <course>183.68</course>
  <speed>0.05</speed>
  <fix>3d</fix>
</trkpt>
<trkpt lat="33.8103137" lon="-118.3938744">
  <ele>-10.398</ele>
  <time>2026-09-01T01:13:20Z</time>
  <course>183.68</course>
  <speed>0.05</speed>
  <fix>3d</fix>
</trkpt>
<trkpt lat="33.8103135" lon="-118.3938742">
  <ele>-9.92</ele>
  <time>2026-09-01T01:13:20Z</time>
  <course>275.52</course>
  <speed>0.01</speed>
  <fix>3d</fix>
</trkpt>
<trkpt lat="33.8103137" lon="-118.3938744">
  <ele>-10.427</ele>
  <time>2026-09-01T01:13:20Z</time>
  <course>183.68</course>
  <speed>0.05</speed>
  <fix>3d</fix>
</trkpt>
<trkpt lat="33.8103137" lon="-118.3938744">
  <ele>-10.495</ele>
  <time>2026-09-01T01:13:20Z</time>
  <course>183.68</course>
  <speed>0.05</speed>
  <fix>3d</fix>
</trkpt>
<trkpt lat="33.8103135" lon="-118.3938742">
  <ele>-9.92</ele>
  <time>2026-09-01T01:13:20Z</time>
  <course>275.52</course>
  <speed>0.01</speed>
  <fix>3d</fix>
</trkpt>
<trkpt lat="33.8103137" lon="-118.3938744">
  <ele>-10.53</ele>
  <time>2026-09-01T01:13:20Z</time>
  <course>183.68</course>
  <speed>0.05</speed>
  <fix>3d</fix>
</trkpt>
<trkpt lat="33.8103137" lon="-118.3938744">
  <ele>-10.592</ele>
  <time>2026-09-01T01:13:20Z</time>
  <course>183.68</course>
  <speed>0.05</speed>
  <fix>3d</fix>
</trkpt>
<trkpt lat="33.8103136" lon="-118.3938742">
  <ele>-10.1</ele>
  <time>2026-09-01T01:13:20Z</time>
  <course>275.52</course>
  <speed>0.01</speed>
  <fix>3d</fix>
</trkpt>
<trkpt lat="33.8103137" lon="-118.3938744">
  <ele>-10.621</ele>
  <time>2026-09-01T01:13:20Z</time>
  <course>183.68</course>
  <speed>0.05</speed>
  <fix>3d</fix>
</trkpt>
<trkpt lat="33.8103137" lon="-118.3938745">
  <ele>-10.689</ele>
  <time>2026-09-01T01:13:20Z</time>
  <course>183.68</course>
  <speed>0.05</speed>
  <fix>3d</fix>
</trkpt>
<trkpt lat="33.8103136" lon="-118.3938742">
  <ele>-10.1</ele>
  <time>2026-09-01T01:13:20Z</time>
  <course>275.52</course>
  <speed>0.01</speed>
  <fix>3d</fix>
</trkpt>
<trkpt lat="33.8103137" lon="-118.3938745">
  <ele>-10.725</ele>
  <time>2026-09-01T01:13:20Z</time>
  <course>183.68</course>
  <speed>0.05</speed>
  <fix>3d</fix>
</trkpt>
<trkpt lat="33.8103137" lon="-118.3938745">
  <ele>-10.787</ele>
  <time>2026-09-01T01:13:20Z</time>
  <course>183.68</course>
  <speed>0.05</speed>
  <fix>3d</fix>
</trkpt>
<trkpt lat="33.8103136" lon="-118.3938743">
  <ele>-10.29</ele>
  <time>2026-09-01T01:13:20Z</time>
  <course>275.52</course>
  <speed>0.01</speed>
  <fix>3d</fix>
</trkpt>
<trkpt lat="33.8103137" lon="-118.3938745">
  <ele>-10.788</ele>
  <time>2026-09-01T01:13:20Z</time>
  <course>183.68</course>
  <speed>0.05</speed>
  <fix>3d</fix>
</trkpt>
<trkpt lat="33.8103137" lon="-118.3938745">
  <ele>-10.884</ele>
  <time>2026-09-01T01:13:20Z</time>
  <course>183.68</course>
  <speed>0.05</speed>
  <fix>3d</fix>
</trkpt>
<trkpt lat="33.8103136" lon="-118.3938743">
  <ele>-10.29</ele>
  <time>2026-09-01T01:13:20Z</time>
  <course>275.52</course>
  <speed>0.01</speed>
  <fix>3d</fix>
</trkpt>
<trkpt lat="33.8103137" lon="-118.3938745">
  <ele>-10.913</ele>
  <time>2026-09-01T01:13:20Z</time>
  <course>183.68</course>
  <speed>0.05</speed>
  <fix>3d</fix>
</trkpt>
<trkpt lat="33.8103137" lon="-118.3938745">
  <ele>-10.982</ele>
  <time>2026-09-01T01:13:20Z</time>
  <course>183.68</course>
  <speed>0.05</speed>
  <fix>3d</fix>
</trkpt>
<trkpt lat="33.8103136" lon="-118.3938743">
  <ele>-10.48</ele>
  <time>2026-09-01T01:13:20Z</time>
  <course>275.52</course>
  <speed>0.01</speed>
  <fix>3d</fix>
</trkpt>
<trkpt lat="33.8103137" lon="-118.3938745">
  <ele>-11.018</ele>
  <time>2026-09-01T01:13:20Z</time>
  <course>183.68</course>
  <speed>0.05</speed>
  <fix>3d</fix>
</trkpt>
<trkpt lat="33.8103137" lon="-118.3938745">
  <ele>-11.079</ele>
  <time>2026-09-01T01:13:20Z</time>
  <course>183.68</course>
  <speed>0.05</speed>
  <fix>3d</fix>
</trkpt>
<trkpt lat="33.8103136" lon="-118.3938743">
  <ele>-10.48</ele>
  <time>2026-09-01T01:13:20Z</time>
  <course>275.52</course>
  <speed>0.01</speed>
  <fix>3d</fix>
</trkpt>
<trkpt lat="33.8103138" lon="-118.3938745">
  <ele>-11.111</ele>
  <time>2026-09-01T01:13:20Z</time>
  <course>183.68</course>
  <speed>0.05</speed>
  <fix>3d</fix>
</trkpt>
<trkpt lat="33.8103138" lon="-118.3938745">
  <ele>-11.177</ele>
  <time>2026-09-01T01:13:20Z</time>
  <course>183.68</course>
  <speed>0.05</speed>
  <fix>3d</fix>
</trkpt>
<trkpt lat="33.8103136" lon="-118.3938743">
  <ele>-10.67</ele>
  <time>2026-09-01T01:13:20Z</time>
  <course>275.51</course>
  <speed>0.01</speed>
  <fix>3d</fix>
</trkpt>
<trkpt lat="33.8103138" lon="-118.3938746">
  <ele>-11.211</ele>
  <time>2026-09-01T01:13:20Z</time>
  <course>183.68</course>
  <speed>0.05</speed>
  <fix>3d</fix>
</trkpt>
<trkpt lat="33.8103138" lon="-118.3938746">
  <ele>-11.274</ele>
  <time>2026-09-01T01:13:20Z</time>
  <course>183.68</course>
  <speed>0.05</speed>
  <fix>3d</fix>
</trkpt>
<trkpt lat="33.8103136" lon="-118.3938743">
  <ele>-10.67</ele>
  <time>2026-09-01T01:13:20Z</time>
  <course>275.51</course>
  <speed>0.01</speed>
  <fix>3d</fix>
</trkpt>
<trkpt lat="33.8103138" lon="-118.3938746">
  <ele>-11.276</ele>
  <time>2026-09-01T01:13:20Z</time>
  <course>183.68</course>
  <speed>0.05</speed>
  <fix>3d</fix>
</trkpt>
<trkpt lat="33.8103138" lon="-118.3938746">
  <ele>-11.371</ele>
  <time>2026-09-01T01:13:20Z</time>
  <course>183.68</course>
  <speed>0.05</speed>
  <fix>3d</fix>
</trkpt>
<trkpt lat="33.8103136" lon="-118.3938743">
  <ele>-10.86</ele>
  <time>2026-09-01T01:13:20Z</time>
  <course>275.51</course>
  <speed>0.01</speed>
  <fix>3d</fix>
</trkpt>
<trkpt lat="33.8103138" lon="-118.3938746">
  <ele>-11.376</ele>
  <time>2026-09-01T01:13:20Z</time>
  <course>183.68</course>
  <speed>0.05</speed>
  <fix>3d</fix>
</trkpt>
<trkpt lat="33.8103138" lon="-118.3938746">
  <ele>-11.469</ele>
  <time>2026-09-01T01:13:20Z</time>
  <course>183.68</course>
  <speed>0.05</speed>
  <fix>3d</fix>
</trkpt>
<trkpt lat="33.8103136" lon="-118.3938743">
  <ele>-10.86</ele>
  <time>2026-09-01T01:13:20Z</time>
  <course>275.51</course>
  <speed>0.01</speed>
  <fix>3d</fix>
</trkpt>
<trkpt lat="33.8103138" lon="-118.3938746">
  <ele>-11.5</ele>
  <time>2026-09-01T01:13:20Z</time>
  <course>183.68</course>
  <speed>0.05</speed>
  <fix>3d</fix>
</trkpt>
<trkpt lat="33.8103138" lon="-118.3938746">
  <ele>-11.566</ele>
  <time>2026-09-01T01:13:20Z</time>
  <course>183.68</course>
  <speed>0.05</speed>
  <fix>3d</fix>
</trkpt>
<trkpt lat="33.8103136" lon="-118.3938744">
  <ele>-11.05</ele>
  <time>2026-09-01T01:13:20Z</time>
  <course>275.51</course>
  <speed>0.01</speed>
  <fix>3d</fix>
</trkpt>
<trkpt lat="33.8103138" lon="-118.3938746">
  <ele>-11.595</ele>
  <time>2026-09-01T01:13:20Z</time>
  <course>183.68</course>
  <speed>0.05</speed>
  <fix>3d</fix>
</trkpt>
<trkpt lat="33.8103138" lon="-118.3938746">
  <ele>-11.664</ele>
  <time>2026-09-01T01:13:20Z</time>
  <course>183.68</course>
  <speed>0.05</speed>
  <fix>3d</fix>
</trkpt>
<trkpt lat="33.8103136" lon="-118.3938744">
  <ele>-11.05</ele>
  <time>2026-09-01T01:13:20Z</time>
  <course>275.51</course>
  <speed>0.01</speed>
  <fix>3d</fix>
</trkpt>
<trkpt lat="33.8103138" lon="-118.3938746">
  <ele>-11.696</ele>
  <time>2026-09-01T01:13:20Z</time>
  <course>183.68</course>
  <speed>0.05</speed>
  <fix>3d</fix>
</trkpt>
<trkpt lat="33.8103138" lon="-118.3938746">
  <ele>-11.762</ele>
  <time>2026-09-01T01:13:20Z</time>
  <course>183.68</course>
  <speed>0.05</speed>
  <fix>3d</fix>
</trkpt>
<trkpt lat="33.8103136" lon="-118.3938744">
  <ele>-11.24</ele>
  <time>2026-09-01T01:13:20Z</time>
  <course>275.51</course>
  <speed>0.01</speed>
  <fix>3d</fix>
</trkpt>
<trkpt lat="33.8103138" lon="-118.3938746">
  <ele>-11.764</ele>
  <time>2026-09-01T01:13:20Z</time>
  <course>183.68</course>
  <speed>0.05</speed>
  <fix>3d</fix>
</trkpt>
<trkpt lat="33.8103138" lon="-118.3938747">
  <ele>-11.86</ele>
  <time>2026-09-01T01:13:20Z</time>
  <course>183.68</course>
  <speed>0.05</speed>
  <fix>3d</fix>
</trkpt>
<trkpt lat="33.8103136" lon="-118.3938744">
  <ele>-11.24</ele>
  <time>2026-09-01T01:13:20Z</time>
  <course>275.51</course>
  <speed>0.01</speed>
  <fix>3d</fix>
</trkpt>
<trkpt lat="33.8103138" lon="-118.3938747">
  <ele>-11.879</ele>
  <time>2026-09-01T01:13:20Z</time>
  <course>183.68</course>
  <speed>0.05</speed>
  <fix>3d</fix>
</trkpt>
<trkpt lat="33.8103138" lon="-118.3938747">
  <ele>-11.958</ele>
  <time>2026-09-01T01:13:20Z</time>
  <course>183.68</course>
  <speed>0.05</speed>
  <fix>3d</fix>
</trkpt>
<trkpt lat="33.8103136" lon="-118.3938744">
  <ele>-11.43</ele>
  <time>2026-09-01T01:13:20Z</time>
  <course>275.51</course>
  <speed>0.01</speed>
  <fix>3d</fix>
</trkpt>
<trkpt lat="33.8103138" lon="-118.3938747">
  <ele>-11.987</ele>
  <time>2026-09-01T01:13:20Z</time>
  <course>183.68</course>
  <speed>0.05</speed>
  <fix>3d</fix>
</trkpt>
<trkpt lat="33.8103138" lon="-118.3938747">
  <ele>-12.056</ele>
  <time>2026-09-01T01:13:20Z</time>
  <course>183.68</course>
  <speed>0.05</speed>
  <fix>3d</fix>
</trkpt>
<trkpt lat="33.8103136" lon="-118.3938744">
  <ele>-11.43</ele>
  <time>2026-09-01T01:13:20Z</time>
  <course>275.51</course>
  <speed>0.01</speed>
  <fix>3d</fix>
</trkpt>
<trkpt lat="33.8103138" lon="-118.3938747">
  <ele>-12.095</ele>
  <time>2026-09-01T01:13:20Z</time>
  <course>183.68</course>
  <speed>0.05</speed>
  <fix>3d</fix>
</trkpt>
<trkpt lat="33.8103138" lon="-118.3938747">
  <ele>-12.154</ele>
  <time>2026-09-01T01:13:20Z</time>
  <course>183.68</course>
  <speed>0.05</speed>
  <fix>3d</fix>
</trkpt>
<trkpt lat="33.8103136" lon="-118.3938745">
  <ele>-11.62</ele>
  <time>2026-09-01T01:13:20Z</time>
  <course>275.51</course>
  <speed>0.01</speed>
  <fix>3d</fix>
</trkpt>
<trkpt lat="33.8103138" lon="-118.3938747">
  <ele>-12.183</ele>
  <time>2026-09-01T01:13:20Z</time>
  <course>183.68</course>
  <speed>0.05</speed>
  <fix>3d</fix>
</trkpt>
<trkpt lat="33.8103138" lon="-118.3938747">
  <ele>-12.251</ele>
  <time>2026-09-01T01:13:20Z</time>
  <course>183.68</course>
  <speed>0.05</speed>
  <fix>3d</fix>
</trkpt>
<trkpt lat="33.8103136" lon="-118.3938745">
  <ele>-11.62</ele>
  <time>2026-09-01T01:13:20Z</time>
  <course>275.51</course>
  <speed>0.01</speed>
  <fix>3d</fix>
</trkpt>
<trkpt lat="33.8103138" lon="-118.3938747">
  <ele>-12.285</ele>
  <time>2026-09-01T01:13:20Z</time>
  <course>183.68</course>
  <speed>0.05</speed>
  <fix>3d</fix>
</trkpt>
<trkpt lat="33.8103138" lon="-118.3938747">
  <ele>-12.348</ele>
  <time>2026-09-01T01:13:20Z</time>
  <course>183.68</course>
  <speed>0.05</speed>
  <fix>3d</fix>
</trkpt>
<trkpt lat="33.8103136" lon="-118.3938745">
  <ele>-11.81</ele>
  <time>2026-09-01T01:13:20Z</time>
  <course>275.51</course>
  <speed>0.01</speed>
  <fix>3d</fix>
</trkpt>
<trkpt lat="33.8103138" lon="-118.3938747">
  <ele>-12.379</ele>
  <time>2026-09-01T01:13:20Z</time>
  <course>183.68</course>
  <speed>0.05</speed>
  <fix>3d</fix>
</trkpt>
<trkpt lat="33.8103138" lon="-118.3938748">
  <ele>-12.444</ele>
  <time>2026-09-01T01:13:20Z</time>
  <course>183.68</course>
  <speed>0.05</speed>
  <fix>3d</fix>
</trkpt>
<trkpt lat="33.8103136" lon="-118.3938745">
  <ele>-11.81</ele>
  <time>2026-09-01T01:13:20Z</time>
  <course>275.51</course>
  <speed>0.01</speed>
  <fix>3d</fix>
</trkpt>
<trkpt lat="33.8103138" lon="-118.3938748">
  <ele>-12.48</ele>
  <time>2026-09-01T01:13:20Z</time>
  <course>183.68</course>
  <speed>0.05</speed>
  <fix>3d</fix>
</trkpt>
<trkpt lat="33.8103138" lon="-118.3938748">
  <ele>-12.542</ele>
  <time>2026-09-01T01:13:20Z</time>
  <course>183.68</course>
  <speed>0.05</speed>
  <fix>3d</fix>
</trkpt>
<trkpt lat="33.8103136" lon="-118.3938745">
  <ele>-12.0</ele>
  <time>2026-09-01T01:13:20Z</time>
  <course>275.51</course>
  <speed>0.01</speed>
  <fix>3d</fix>
</trkpt>
<trkpt lat="33.8103138" lon="-118.3938748">
  <ele>-12.586</ele>
  <time>2026-09-01T01:13:20Z</time>
  <course>183.68</course>
  <speed>0.05</speed>
  <fix>3d</fix>
</trkpt>
<trkpt lat="33.8103138" lon="-118.3938748">
  <ele>-12.639</ele>
  <time>2026-09-01T01:13:20Z</time>
  <course>183.68</course>
  <speed>0.05</speed>
  <fix>3d</fix>
</trkpt>
<trkpt lat="33.8103136" lon="-118.3938745">
  <ele>-12.0</ele>
  <time>2026-09-01T01:13:20Z</time>
  <course>275.51</course>
  <speed>0.01</speed>
  <fix>3d</fix>
</trkpt>
<trkpt lat="33.8103138" lon="-118.3938748">
  <ele>-12.67</ele>
  <time>2026-09-01T01:13:20Z</time>
  <course>183.68</course>
  <speed>0.05</speed>
  <fix>3d</fix>
</trkpt>
<trkpt lat="33.8103138" lon="-118.3938748">
  <ele>-12.737</ele>
  <time>2026-09-01T01:13:20Z</time>
  <course>183.68</course>
  <speed>0.05</speed>
  <fix>3d</fix>
</trkpt>
<trkpt lat="33.8103136" lon="-118.3938745">
  <ele>-12.19</ele>
  <time>2026-09-01T01:13:20Z</time>
  <course>275.51</course>
  <speed>0.01</speed>
  <fix>3d</fix>
</trkpt>
<trkpt lat="33.8103138" lon="-118.3938748">
  <ele>-12.771</ele>
  <time>2026-09-01T01:13:20Z</time>
  <course>183.68</course>
  <speed>0.05</speed>
  <fix>3d</fix>
</trkpt>
<trkpt lat="33.8103138" lon="-118.3938748">
  <ele>-12.835</ele>
  <time>2026-09-01T01:13:20Z</time>
  <course>183.68</course>
  <speed>0.05</speed>
  <fix>3d</fix>
</trkpt>
<trkpt lat="33.8103136" lon="-118.3938745">
  <ele>-12.19</ele>
  <time>2026-09-01T01:13:20Z</time>
  <course>275.51</course>
  <speed>0.01</speed>
  <fix>3d</fix>
</trkpt>
<trkpt lat="33.8103138" lon="-118.3938748">
  <ele>-12.837</ele>
  <time>2026-09-01T01:13:20Z</time>
  <course>183.68</course>
  <speed>0.05</speed>
  <fix>3d</fix>
</trkpt>
<trkpt lat="33.8103139" lon="-118.3938748">
  <ele>-12.933</ele>
  <time>2026-09-01T01:13:20Z</time>
  <course>183.68</course>
  <speed>0.05</speed>
  <fix>3d</fix>
</trkpt>
<trkpt lat="33.8103136" lon="-118.3938746">
  <ele>-12.38</ele>
  <time>2026-09-01T01:13:20Z</time>
  <course>275.51</course>
  <speed>0.01</speed>
  <fix>3d</fix>
</trkpt>
<trkpt lat="33.8103138" lon="-118.3938748">
  <ele>-12.97</ele>
  <time>2026-09-01T01:13:20Z</time>
  <course>183.68</course>
  <speed>0.05</speed>
  <fix>3d</fix>
</trkpt>
<trkpt lat="33.8103139" lon="-118.3938748">
  <ele>-13.032</ele>
  <time>2026-09-01T01:13:20Z</time>
  <course>183.68</course>
  <speed>0.05</speed>
  <fix>3d</fix>
</trkpt>
<trkpt lat="33.8103136" lon="-118.3938746">
  <ele>-12.38</ele>
  <time>2026-09-01T01:13:20Z</time>
  <course>275.51</course>
  <speed>0.01</speed>
  <fix>3d</fix>
</trkpt>
<trkpt lat="33.8103139" lon="-118.3938748">
  <ele>-13.061</ele>
  <time>2026-09-01T01:13:20Z</time>
  <course>183.68</course>
  <speed>0.05</speed>
  <fix>3d</fix>
</trkpt>
<trkpt lat="33.8103139" lon="-118.3938749">
  <ele>-13.13</ele>
  <time>2026-09-01T01:13:20Z</time>
  <course>183.68</course>
  <speed>0.05</speed>
  <fix>3d</fix>
</trkpt>
<trkpt lat="33.8103136" lon="-118.3938746">
  <ele>-12.58</ele>
  <time>2026-09-01T01:13:20Z</time>
  <course>275.51</course>
  <speed>0.01</speed>
  <fix>3d</fix>
</trkpt>
<trkpt lat="33.8103139" lon="-118.3938749">
  <ele>-13.167</ele>
  <time>2026-09-01T01:13:20Z</time>
  <course>183.68</course>
  <speed>0.05</speed>
  <fix>3d</fix>
</trkpt>
<trkpt lat="33.8103139" lon="-118.3938749">
  <ele>-13.228</ele>
  <time>2026-09-01T01:13:20Z</time>
  <course>183.68</course>
  <speed>0.05</speed>
  <fix>3d</fix>
</trkpt>
<trkpt lat="33.8103136" lon="-118.3938746">
  <ele>-12.58</ele>
  <time>2026-09-01T01:13:20Z</time>
  <course>275.51</course>
  <speed>0.01</speed>
  <fix>3d</fix>
</trkpt>
<trkpt lat="33.8103139" lon="-118.3938749">
  <ele>-13.26</ele>
  <time>2026-09-01T01:13:20Z</time>
  <course>183.68</course>
  <speed>0.05</speed>
  <fix>3d</fix>
</trkpt>
<trkpt lat="33.8103139" lon="-118.3938749">
  <ele>-13.326</ele>
  <time>2026-09-01T01:13:20Z</time>
  <course>183.68</course>
  <speed>0.05</speed>
  <fix>3d</fix>
</trkpt>
<trkpt lat="33.8103136" lon="-118.3938746">
  <ele>-12.77</ele>
  <time>2026-09-01T01:13:20Z</time>
  <course>275.52</course>
  <speed>0.01</speed>
  <fix>3d</fix>
</trkpt>
<trkpt lat="33.8103139" lon="-118.3938749">
  <ele>-13.363</ele>
  <time>2026-09-01T01:13:20Z</time>
  <course>183.68</course>
  <speed>0.05</speed>
  <fix>3d</fix>
</trkpt>
<trkpt lat="33.8103139" lon="-118.3938749">
  <ele>-13.424</ele>
  <time>2026-09-01T01:13:20Z</time>
  <course>183.68</course>
  <speed>0.05</speed>
  <fix>3d</fix>
</trkpt>
<trkpt lat="33.8103136" lon="-118.3938746">
  <ele>-12.77</ele>
  <time>2026-09-01T01:13:20Z</time>
  <course>275.52</course>
  <speed>0.01</speed>
  <fix>3d</fix>
</trkpt>
<trkpt lat="33.8103139" lon="-118.3938749">
  <ele>-13.456</ele>
  <time>2026-09-01T01:13:20Z</time>
  <course>183.68</course>
  <speed>0.05</speed>
  <fix>3d</fix>
</trkpt>
<trkpt lat="33.8103139" lon="-118.3938749">
  <ele>-13.522</ele>
  <time>2026-09-01T01:13:20Z</time>
  <course>183.68</course>
  <speed>0.05</speed>
  <fix>3d</fix>
</trkpt>
<trkpt lat="33.8103136" lon="-118.3938747">
  <ele>-12.96</ele>
  <time>2026-09-01T01:13:20Z</time>
  <course>275.52</course>
  <speed>0.01</speed>
  <fix>3d</fix>
</trkpt>
<trkpt lat="33.8103139" lon="-118.3938749">
  <ele>-13.554</ele>
  <time>2026-09-01T01:13:20Z</time>
  <course>183.68</course>
  <speed>0.05</speed>
  <fix>3d</fix>
</trkpt>
<trkpt lat="33.8103139" lon="-118.3938749">
  <ele>-13.619</ele>
  <time>2026-09-01T01:13:20Z</time>
  <course>183.68</course>
  <speed>0.05</speed>
  <fix>3d</fix>
</trkpt>
<trkpt lat="33.8103136" lon="-118.3938747">
  <ele>-12.96</ele>
  <time>2026-09-01T01:13:20Z</time>
  <course>275.52</course>
  <speed>0.01</speed>
  <fix>3d</fix>
</trkpt>
<trkpt lat="33.8103139" lon="-118.3938749">
  <ele>-13.653</ele>
  <time>2026-09-01T01:13:20Z</time>
  <course>183.67</course>
  <speed>0.05</speed>
  <fix>3d</fix>
</trkpt>
<trkpt lat="33.8103139" lon="-118.3938749">
  <ele>-13.717</ele>
  <time>2026-09-01T01:13:20Z</time>
  <course>183.67</course>
  <speed>0.05</speed>
  <fix>3d</fix>
</trkpt>
<trkpt lat="33.8103136" lon="-118.3938747">
  <ele>-13.15</ele>
  <time>2026-09-01T01:13:20Z</time>
  <course>275.52</course>
  <speed>0.01</speed>
  <fix>3d</fix>
</trkpt>
<trkpt lat="33.8103139" lon="-118.3938749">
  <ele>-13.749</ele>
  <time>2026-09-01T01:13:20Z</time>
  <course>183.67</course>
  <speed>0.05</speed>
  <fix>3d</fix>
</trkpt>
<trkpt lat="33.8103139" lon="-118.3938749">
  <ele>-13.815</ele>
  <time>2026-09-01T01:13:20Z</time>
  <course>183.67</course>
  <speed>0.05</speed>
  <fix>3d</fix>
</trkpt>
<trkpt lat="33.8103136" lon="-118.3938747">
  <ele>-13.15</ele>
  <time>2026-09-01T01:13:20Z</time>
  <course>275.52</course>
  <speed>0.01</speed>
  <fix>3d</fix>
</trkpt>
<trkpt lat="33.8103139" lon="-118.3938749">
  <ele>-13.817</ele>
  <time>2026-09-01T01:13:20Z</time>
  <course>183.67</course>
  <speed>0.05</speed>
  <fix>3d</fix>
</trkpt>
<trkpt lat="33.8103139" lon="-118.393875">
  <ele>-13.912</ele>
  <time>2026-09-01T01:13:20Z</time>
  <course>183.67</course>
  <speed>0.05</speed>
  <fix>3d</fix>
</trkpt>
<trkpt lat="33.8103136" lon="-118.3938747">
  <ele>-13.34</ele>
  <time>2026-09-01T01:13:20Z</time>
  <course>275.52</course>
  <speed>0.01</speed>
  <fix>3d</fix>
</trkpt>
<trkpt lat="33.8103139" lon="-118.393875">
  <ele>-13.944</ele>
  <time>2026-09-01T01:13:20Z</time>
  <course>183.67</course>
  <speed>0.05</speed>
  <fix>3d</fix>
</trkpt>
<trkpt lat="33.8103139" lon="-118.393875">
  <ele>-14.01</ele>
  <time>2026-09-01T01:13:20Z</time>
  <course>183.67</course>
  <speed>0.05</speed>
  <fix>3d</fix>
</trkpt>
<trkpt lat="33.8103136" lon="-118.3938747">
  <ele>-13.34</ele>
  <time>2026-09-01T01:13:20Z</time>
  <course>275.52</course>
  <speed>0.01</speed>
  <fix>3d</fix>
</trkpt>
<trkpt lat="33.8103139" lon="-118.393875">
  <ele>-14.04</ele>
  <time>2026-09-01T01:13:20Z</time>
  <course>183.67</course>
  <speed>0.05</speed>
  <fix>3d</fix>
</trkpt>
<trkpt lat="33.8103138" lon="-118.393875">
  <ele>-14.109</ele>
  <time>2026-09-01T01:13:20Z</time>
  <course>183.67</course>
  <speed>0.05</speed>
  <fix>3d</fix>
</trkpt>
<trkpt lat="33.8103136" lon="-118.3938747">
  <ele>-13.53</ele>
  <time>2026-09-01T01:13:20Z</time>
  <course>275.52</course>
  <speed>0.01</speed>
  <fix>3d</fix>
</trkpt>
<trkpt lat="33.8103138" lon="-118.393875">
  <ele>-14.145</ele>
  <time>2026-09-01T01:13:20Z</time>
  <course>183.67</course>
  <speed>0.04242640687119285</speed>
  <fix>3d</fix>
</trkpt>
<trkpt lat="33.8103138" lon="-118.393875">
  <ele>-14.206</ele>
  <time>2026-09-01T01:13:20Z</time>
  <course>183.67</course>
  <speed>0.04242640687119285</speed>
  <fix>3d</fix>
</trkpt>
<trkpt lat="33.8103136" lon="-118.3938747">
  <ele>-13.53</ele>
  <time>2026-09-01T01:13:20Z</time>
  <course>275.52</course>
  <speed>0.01</speed>
  <fix>3d</fix>
</trkpt>
<trkpt lat="33.8103139" lon="-118.393875">
  <ele>-14.236</ele>
  <time>2026-09-01T01:13:20Z</time>
  <course>183.67</course>
  <speed>0.05</speed>
  <fix>3d</fix>
</trkpt>
<trkpt lat="33.8103138" lon="-118.393875">
  <ele>-14.304</ele>
  <time>2026-09-01T01:13:20Z</time>
  <course>183.67</course>
  <speed>0.04242640687119285</speed>
  <fix>3d</fix>
</trkpt>
<trkpt lat="33.8103136" lon="-118.3938748">
  <ele>-13.72</ele>
  <time>2026-09-01T01:13:20Z</time>
  <course>275.52</course>
  <speed>0.01</speed>
  <fix>3d</fix>
</trkpt>
<trkpt lat="33.8103138" lon="-118.393875">
  <ele>-14.333</ele>
  <time>2026-09-01T01:13:20Z</time>
  <course>183.67</course>
  <speed>0.04242640687119285</speed>
  <fix>3d</fix>
</trkpt>
<trkpt lat="33.8103138" lon="-118.393875">
  <ele>-14.401</ele>
  <time>2026-09-01T01:13:20Z</time>
  <course>183.67</course>
  <speed>0.04242640687119285</speed>
  <fix>3d</fix>
</trkpt>
<trkpt lat="33.8103136" lon="-118.3938748">
  <ele>-13.72</ele>
  <time>2026-09-01T01:13:20Z</time>
  <course>275.52</course>
  <speed>0.01</speed>
  <fix>3d</fix>
</trkpt>
<trkpt lat="33.8103139" lon="-118.393875">
  <ele>-14.436</ele>
  <time>2026-09-01T01:13:20Z</time>
  <course>183.67</course>
  <speed>0.04242640687119285</speed>
  <fix>3d</fix>
</trkpt>
<trkpt lat="33.8103138" lon="-118.393875">
  <ele>-14.499</ele>
  <time>2026-09-01T01:13:20Z</time>
  <course>183.67</course>
  <speed>0.04242640687119285</speed>
  <fix>3d</fix>
</trkpt>
<trkpt lat="33.8103136" lon="-118.3938748">
  <ele>-13.91</ele>
  <time>2026-09-01T01:13:20Z</time>
  <course>275.53</course>
  <speed>0.01</speed>
  <fix>3d</fix>
</trkpt>
<trkpt lat="33.8103138" lon="-118.393875">
  <ele>-14.53</ele>
  <time>2026-09-01T01:13:20Z</time>
  <course>183.67</course>
  <speed>0.04242640687119285</speed>
  <fix>3d</fix>
</trkpt>
<trkpt lat="33.8103138" lon="-118.393875">
  <ele>-14.597</ele>
  <time>2026-09-01T01:13:20Z</time>
  <course>183.67</course>
  <speed>0.04242640687119285</speed>
  <fix>3d</fix>
</trkpt>
<trkpt lat="33.8103136" lon="-118.3938748">
  <ele>-13.91</ele>
  <time>2026-09-01T01:13:20Z</time>
  <course>275.53</course>
  <speed>0.01</speed>
  <fix>3d</fix>
</trkpt>
<trkpt lat="33.8103138" lon="-118.3938751">
  <ele>-14.628</ele>
  <time>2026-09-01T01:13:20Z</time>
  <course>183.67</course>
  <speed>0.04242640687119285</speed>
  <fix>3d</fix>
</trkpt>
<trkpt lat="33.8103138" lon="-118.3938751">
  <ele>-14.695</ele>
  <time>2026-09-01T01:13:20Z</time>
  <course>183.67</course>
  <speed>0.04242640687119285</speed>
  <fix>3d</fix>
</trkpt>
<trkpt lat="33.8103136" lon="-118.3938748">
  <ele>-14.1</ele>
  <time>2026-09-01T01:13:20Z</time>
  <course>275.53</course>
  <speed>0.01</speed>
  <fix>3d</fix>
</trkpt>
<trkpt lat="33.8103138" lon="-118.3938751">
  <ele>-14.726</ele>
  <time>2026-09-01T01:13:20Z</time>
  <course>183.67</course>
  <speed>0.04242640687119285</speed>
  <fix>3d</fix>
</trkpt>
<trkpt lat="33.8103138" lon="-118.3938751">
  <ele>-14.794</ele>
  <time>2026-09-01T01:13:20Z</time>
  <course>183.67</course>
  <speed>0.04242640687119285</speed>
  <fix>3d</fix>
</trkpt>
<trkpt lat="33.8103136" lon="-118.3938748">
  <ele>-14.1</ele>
  <time>2026-09-01T01:13:20Z</time>
  <course>275.53</course>
  <speed>0.01</speed>
  <fix>3d</fix>
</trkpt>
<trkpt lat="33.8103138" lon="-118.3938751">
  <ele>-14.823</ele>
  <time>2026-09-01T01:13:20Z</time>
  <course>183.67</course>
  <speed>0.04242640687119285</speed>
  <fix>3d</fix>
</trkpt>
<trkpt lat="33.8103138" lon="-118.3938751">
  <ele>-14.891</ele>
  <time>2026-09-01T01:13:20Z</time>
  <course>183.67</course>
  <speed>0.04242640687119285</speed>
  <fix>3d</fix>
</trkpt>
<trkpt lat="33.8103136" lon="-118.3938749">
  <ele>-14.29</ele>
  <time>2026-09-01T01:13:20Z</time>
  <course>275.53</course>
  <speed>0.01</speed>
  <fix>3d</fix>
</trkpt>
<trkpt lat="33.8103138" lon="-118.3938751">
  <ele>-14.896</ele>
  <time>2026-09-01T01:13:20Z</time>
  <course>183.67</course>
  <speed>0.04242640687119285</speed>
  <fix>3d</fix>
</trkpt>
<trkpt lat="33.8103138" lon="-118.3938751">
  <ele>-14.989</ele>
  <time>2026-09-01T01:13:20Z</time>
  <course>183.67</course>
  <speed>0.04242640687119285</speed>
  <fix>3d</fix>
</trkpt>
<trkpt lat="33.8103136" lon="-118.3938749">
  <ele>-14.29</ele>
  <time>2026-09-01T01:13:20Z</time>
  <course>275.53</course>
  <speed>0.01</speed>
  <fix>3d</fix>
</trkpt>
<trkpt lat="33.8103138" lon="-118.3938751">
  <ele>-15.021</ele>
  <time>2026-09-01T01:13:20Z</time>
  <course>183.67</course>
  <speed>0.04242640687119285</speed>
  <fix>3d</fix>
</trkpt>
<trkpt lat="33.8103138" lon="-118.3938751">
  <ele>-15.086</ele>
  <time>2026-09-01T01:13:20Z</time>
  <course>183.67</course>
  <speed>0.04242640687119285</speed>
  <fix>3d</fix>
</trkpt>
<trkpt lat="33.8103136" lon="-118.3938749">
  <ele>-14.48</ele>
  <time>2026-09-01T01:13:20Z</time>
  <course>275.54</course>
  <speed>0.01</speed>
  <fix>3d</fix>
</trkpt>
<trkpt lat="33.8103138" lon="-118.3938751">
  <ele>-15.115</ele>
  <time>2026-09-01T01:13:20Z</time>
  <course>183.67</course>
  <speed>0.04242640687119285</speed>
  <fix>3d</fix>
</trkpt>
<trkpt lat="33.8103138" lon="-118.3938751">
  <ele>-15.183</ele>
  <time>2026-09-01T01:13:20Z</time>
  <course>183.67</course>
  <speed>0.04242640687119285</speed>
  <fix>3d</fix>
</trkpt>
<trkpt lat="33.8103136" lon="-118.3938749">
  <ele>-14.48</ele>
  <time>2026-09-01T01:13:20Z</time>
  <course>275.54</course>
  <speed>0.01</speed>
  <fix>3d</fix>
</trkpt>
<trkpt lat="33.8103138" lon="-118.3938751">
  <ele>-15.215</ele>
  <time>2026-09-01T01:13:20Z</time>
  <course>183.67</course>
  <speed>0.04242640687119285</speed>
  <fix>3d</fix>
</trkpt>
<trkpt lat="33.8103138" lon="-118.3938751">
  <ele>-15.281</ele>
  <time>2026-09-01T01:13:20Z</time>
  <course>183.67</course>
  <speed>0.04242640687119285</speed>
  <fix>3d</fix>
</trkpt>
<trkpt lat="33.8103136" lon="-118.3938749">
  <ele>-14.67</ele>
  <time>2026-09-01T01:13:20Z</time>
  <course>275.54</course>
  <speed>0.01</speed>
  <fix>3d</fix>
</trkpt>
<trkpt lat="33.8103138" lon="-118.3938751">
  <ele>-15.317</ele>
  <time>2026-09-01T01:13:20Z</time>
  <course>183.67</course>
  <speed>0.04242640687119285</speed>
  <fix>3d</fix>
</trkpt>
<trkpt lat="33.8103138" lon="-118.3938752">
  <ele>-15.378</ele>
  <time>2026-09-01T01:13:20Z</time>
  <course>183.67</course>
  <speed>0.04242640687119285</speed>
  <fix>3d</fix>
</trkpt>
<trkpt lat="33.8103136" lon="-118.3938749">
  <ele>-14.67</ele>
  <time>2026-09-01T01:13:20Z</time>
  <course>275.54</course>
  <speed>0.01</speed>
  <fix>3d</fix>
</trkpt>
<trkpt lat="33.8103138" lon="-118.3938752">
  <ele>-15.407</ele>
  <time>2026-09-01T01:13:20Z</time>
  <course>183.67</course>
  <speed>0.04242640687119285</speed>
  <fix>3d</fix>
</trkpt>
<trkpt lat="33.8103138" lon="-118.3938752">
  <ele>-15.475</ele>
  <time>2026-09-01T01:13:20Z</time>
  <course>183.67</course>
  <speed>0.04242640687119285</speed>
  <fix>3d</fix>
</trkpt>
<trkpt lat="33.8103136" lon="-118.3938749">
  <ele>-14.86</ele>
  <time>2026-09-01T01:13:20Z</time>
  <course>275.54</course>
  <speed>0.01</speed>
  <fix>3d</fix>
</trkpt>
<trkpt lat="33.8103138" lon="-118.3938752">
  <ele>-15.514</ele>
  <time>2026-09-01T01:13:20Z</time>
  <course>183.67</course>
  <speed>0.04242640687119285</speed>
  <fix>3d</fix>
</trkpt>
<trkpt lat="33.8103138" lon="-118.3938752">
  <ele>-15.572</ele>
  <time>2026-09-01T01:13:20Z</time>
  <course>183.67</course>
  <speed>0.04242640687119285</speed>
  <fix>3d</fix>
</trkpt>
<trkpt lat="33.8103136" lon="-118.3938749">
  <ele>-14.86</ele>
  <time>2026-09-01T01:13:20Z</time>
  <course>275.54</course>
  <speed>0.01</speed>
  <fix>3d</fix>
</trkpt>
<trkpt lat="33.8103138" lon="-118.3938752">
  <ele>-15.604</ele>
  <time>2026-09-01T01:13:20Z</time>
  <course>183.67</course>
  <speed>0.04242640687119285</speed>
  <fix>3d</fix>
</trkpt>
<trkpt lat="33.8103138" lon="-118.3938752">
  <ele>-15.67</ele>
  <time>2026-09-01T01:13:20Z</time>
  <course>183.67</course>
  <speed>0.04242640687119285</speed>
  <fix>3d</fix>
</trkpt>
<trkpt lat="33.8103136" lon="-118.393875">
  <ele>-15.05</ele>
  <time>2026-09-01T01:13:20Z</time>
  <course>275.54</course>
  <speed>0.01</speed>
  <fix>3d</fix>
</trkpt>
<trkpt lat="33.8103138" lon="-118.3938752">
  <ele>-15.701</ele>
  <time>2026-09-01T01:13:20Z</time>
  <course>183.67</course>
  <speed>0.04242640687119285</speed>
  <fix>3d</fix>
</trkpt>
<trkpt lat="33.8103138" lon="-118.3938752">
  <ele>-15.768</ele>
  <time>2026-09-01T01:13:20Z</time>
  <course>183.67</course>
  <speed>0.04242640687119285</speed>
  <fix>3d</fix>
</trkpt>
<trkpt lat="33.8103136" lon="-118.393875">
  <ele>-15.05</ele>
  <time>2026-09-01T01:13:20Z</time>
  <course>275.54</course>
  <speed>0.01</speed>
  <fix>3d</fix>
</trkpt>
<trkpt lat="33.8103138" lon="-118.3938752">
  <ele>-15.799</ele>
  <time>2026-09-01T01:13:20Z</time>
  <course>183.66</course>
  <speed>0.04242640687119285</speed>
  <fix>3d</fix>
</trkpt>
<trkpt lat="33.8103138" lon="-118.3938752">
  <ele>-15.865</ele>
  <time>2026-09-01T01:13:20Z</time>
  <course>183.66</course>
  <speed>0.04242640687119285</speed>
  <fix>3d</fix>
</trkpt>
<trkpt lat="33.8103136" lon="-118.393875">
  <ele>-15.24</ele>
  <time>2026-09-01T01:13:20Z</time>
  <course>275.54</course>
  <speed>0.01</speed>
  <fix>3d</fix>
</trkpt>
<trkpt lat="33.8103138" lon="-118.3938752">
  <ele>-15.867</ele>
  <time>2026-09-01T01:13:20Z</time>
  <course>183.66</course>
  <speed>0.04242640687119285</speed>
  <fix>3d</fix>
</trkpt>
<trkpt lat="33.8103138" lon="-118.3938752">
  <ele>-15.961</ele>
  <time>2026-09-01T01:13:20Z</time>
  <course>183.66</course>
  <speed>0.04242640687119285</speed>
  <fix>3d</fix>
</trkpt>
<trkpt lat="33.8103136" lon="-118.393875">
  <ele>-15.24</ele>
  <time>2026-09-01T01:13:20Z</time>
  <course>275.54</course>
  <speed>0.01</speed>
  <fix>3d</fix>
</trkpt>
<trkpt lat="33.8103138" lon="-118.3938752">
  <ele>-15.997</ele>
  <time>2026-09-01T01:13:20Z</time>
  <course>183.66</course>
  <speed>0.04242640687119285</speed>
  <fix>3d</fix>
</trkpt>
<trkpt lat="33.8103138" lon="-118.3938752">
  <ele>-16.057</ele>
  <time>2026-09-01T01:13:20Z</time>
  <course>183.66</course>
  <speed>0.03605551275463989</speed>
  <fix>3d</fix>
</trkpt>
<trkpt lat="33.8103136" lon="-118.393875">
  <ele>-15.43</ele>
  <time>2026-09-01T01:13:20Z</time>
  <course>275.54</course>
  <speed>0.01</speed>
  <fix>3d</fix>
</trkpt>
<trkpt lat="33.8103138" lon="-118.3938752">
  <ele>-16.09</ele>
  <time>2026-09-01T01:13:20Z</time>
  <course>183.66</course>
  <speed>0.03605551275463989</speed>
  <fix>3d</fix>
</trkpt>
<trkpt lat="33.8103138" lon="-118.3938753">
  <ele>-16.153</ele>
  <time>2026-09-01T01:13:20Z</time>
  <course>183.66</course>
  <speed>0.03605551275463989</speed>
  <fix>3d</fix>
</trkpt>
<trkpt lat="33.8103136" lon="-118.393875">
  <ele>-15.43</ele>
  <time>2026-09-01T01:13:20Z</time>
  <course>275.54</course>
  <speed>0.01</speed>
  <fix>3d</fix>
</trkpt>
<trkpt lat="33.8103138" lon="-118.3938753">
  <ele>-16.189</ele>
  <time>2026-09-01T01:13:20Z</time>
  <course>183.66</course>
  <speed>0.03605551275463989</speed>
  <fix>3d</fix>
</trkpt>
<trkpt lat="33.8103138" lon="-118.3938753">
  <ele>-16.249</ele>
  <time>2026-09-01T01:13:20Z</time>
  <course>183.66</course>
  <speed>0.03605551275463989</speed>
  <fix>3d</fix>
</trkpt>
<trkpt lat="33.8103136" lon="-118.3938751">
  <ele>-15.62</ele>
  <time>2026-09-01T01:13:20Z</time>
  <course>275.53</course>
  <speed>0.01</speed>
  <fix>3d</fix>
</trkpt>
<trkpt lat="33.8103138" lon="-118.3938753">
  <ele>-16.278</ele>
  <time>2026-09-01T01:13:20Z</time>
  <course>183.66</course>
  <speed>0.03605551275463989</speed>
  <fix>3d</fix>
</trkpt>
<trkpt lat="33.8103138" lon="-118.3938753">
  <ele>-16.346</ele>
  <time>2026-09-01T01:13:20Z</time>
  <course>183.66</course>
  <speed>0.03605551275463989</speed>
  <fix>3d</fix>
</trkpt>
<trkpt lat="33.8103136" lon="-118.3938751">
  <ele>-15.62</ele>
  <time>2026-09-01T01:13:20Z</time>
  <course>275.53</course>
  <speed>0.01</speed>
  <fix>3d</fix>
</trkpt>
<trkpt lat="33.8103138" lon="-118.3938753">
  <ele>-16.38</ele>
  <time>2026-09-01T01:13:20Z</time>
  <course>183.66</course>
  <speed>0.03605551275463989</speed>
  <fix>3d</fix>
</trkpt>
<trkpt lat="33.8103138" lon="-118.3938753">
  <ele>-16.443</ele>
  <time>2026-09-01T01:13:20Z</time>
  <course>183.66</course>
  <speed>0.03605551275463989</speed>
  <fix>3d</fix>
</trkpt>
<trkpt lat="33.8103136" lon="-118.3938751">
  <ele>-15.82</ele>
  <time>2026-09-01T01:13:20Z</time>
  <course>275.53</course>
  <speed>0.01</speed>
  <fix>3d</fix>
</trkpt>
<trkpt lat="33.8103138" lon="-118.3938753">
  <ele>-16.48</ele>
  <time>2026-09-01T01:13:20Z</time>
  <course>183.66</course>
  <speed>0.03605551275463989</speed>
  <fix>3d</fix>
</trkpt>
<trkpt lat="33.8103138" lon="-118.3938753">
  <ele>-16.541</ele>
  <time>2026-09-01T01:13:20Z</time>
  <course>183.66</course>
  <speed>0.03605551275463989</speed>
  <fix>3d</fix>
</trkpt>
<trkpt lat="33.8103136" lon="-118.3938751">
  <ele>-15.82</ele>
  <time>2026-09-01T01:13:20Z</time>
  <course>275.53</course>
  <speed>0.01</speed>
  <fix>3d</fix>
</trkpt>
<trkpt lat="33.8103138" lon="-118.3938753">
  <ele>-16.583</ele>
  <time>2026-09-01T01:13:20Z</time>
  <course>183.66</course>
  <speed>0.03605551275463989</speed>
  <fix>3d</fix>
</trkpt>
<trkpt lat="33.8103138" lon="-118.3938753">
  <ele>-16.64</ele>
  <time>2026-09-01T01:13:20Z</time>
  <course>183.66</course>
  <speed>0.03605551275463989</speed>
  <fix>3d</fix>
</trkpt>
<trkpt lat="33.8103136" lon="-118.3938751">
  <ele>-16.02</ele>
  <time>2026-09-01T01:13:20Z</time>
  <course>275.52</course>
  <speed>0.01</speed>
  <fix>3d</fix>
</trkpt>
<trkpt lat="33.8103138" lon="-118.3938753">
  <ele>-16.67</ele>
  <time>2026-09-01T01:13:20Z</time>
  <course>183.66</course>
  <speed>0.03605551275463989</speed>
  <fix>3d</fix>
</trkpt>
<trkpt lat="33.8103138" lon="-118.3938753">
  <ele>-16.739</ele>
  <time>2026-09-01T01:13:20Z</time>
  <course>183.66</course>
  <speed>0.03605551275463989</speed>
  <fix>3d</fix>
</trkpt>
<trkpt lat="33.8103136" lon="-118.3938751">
  <ele>-16.02</ele>
  <time>2026-09-01T01:13:20Z</time>
  <course>275.52</course>
  <speed>0.01</speed>
  <fix>3d</fix>
</trkpt>
<trkpt lat="33.8103138" lon="-118.3938753">
  <ele>-16.775</ele>
  <time>2026-09-01T01:13:20Z</time>
  <course>183.66</course>
  <speed>0.03605551275463989</speed>
  <fix>3d</fix>
</trkpt>
<trkpt lat="33.8103138" lon="-118.3938754">
  <ele>-16.837</ele>
  <time>2026-09-01T01:13:20Z</time>
  <course>183.66</course>
  <speed>0.03605551275463989</speed>
  <fix>3d</fix>
</trkpt>
<trkpt lat="33.8103136" lon="-118.3938751">
  <ele>-16.21</ele>
  <time>2026-09-01T01:13:20Z</time>
  <course>275.52</course>
  <speed>0.01</speed>
  <fix>3d</fix>
</trkpt>
<trkpt lat="33.8103138" lon="-118.3938754">
  <ele>-16.867</ele>
  <time>2026-09-01T01:13:20Z</time>
  <course>183.66</course>
  <speed>0.03605551275463989</speed>
  <fix>3d</fix>
</trkpt>
<trkpt lat="33.8103138" lon="-118.3938754">
  <ele>-16.936</ele>
  <time>2026-09-01T01:13:20Z</time>
  <course>183.66</course>
  <speed>0.03605551275463989</speed>
  <fix>3d</fix>
</trkpt>
<trkpt lat="33.8103136" lon="-118.3938751">
  <ele>-16.21</ele>
  <time>2026-09-01T01:13:20Z</time>
  <course>275.52</course>
  <speed>0.01</speed>
  <fix>3d</fix>
</trkpt>
<trkpt lat="33.8103138" lon="-118.3938754">
  <ele>-16.939</ele>
  <time>2026-09-01T01:13:20Z</time>
  <course>183.66</course>
  <speed>0.03605551275463989</speed>
  <fix>3d</fix>
</trkpt>
<trkpt lat="33.8103138" lon="-118.3938754">
  <ele>-17.034</ele>
  <time>2026-09-01T01:13:20Z</time>
  <course>183.66</course>
  <speed>0.03605551275463989</speed>
  <fix>3d</fix>
</trkpt>
<trkpt lat="33.8103136" lon="-118.3938752">
  <ele>-16.41</ele>
  <time>2026-09-01T01:13:20Z</time>
  <course>275.53</course>
  <speed>0.01</speed>
  <fix>3d</fix>
</trkpt>
<trkpt lat="33.8103138" lon="-118.3938754">
  <ele>-17.076</ele>
  <time>2026-09-01T01:13:20Z</time>
  <course>183.66</course>
  <speed>0.03605551275463989</speed>
  <fix>3d</fix>
</trkpt>
<trkpt lat="33.8103138" lon="-118.3938754">
  <ele>-17.133</ele>
  <time>2026-09-01T01:13:20Z</time>
  <course>183.66</course>
  <speed>0.03605551275463989</speed>
  <fix>3d</fix>
</trkpt>
<trkpt lat="33.8103136" lon="-118.3938752">
  <ele>-16.41</ele>
  <time>2026-09-01T01:13:20Z</time>
  <course>275.53</course>
  <speed>0.01</speed>
  <fix>3d</fix>
</trkpt>
<trkpt lat="33.8103138" lon="-118.3938754">
  <ele>-17.165</ele>
  <time>2026-09-01T01:13:20Z</time>
  <course>183.65</course>
  <speed>0.03605551275463989</speed>
  <fix>3d</fix>
</trkpt>
<trkpt lat="33.8103138" lon="-118.3938754">
  <ele>-17.232</ele>
  <time>2026-09-01T01:13:20Z</time>
  <course>183.65</course>
  <speed>0.03605551275463989</speed>
  <fix>3d</fix>
</trkpt>
<trkpt lat="33.8103136" lon="-118.3938752">
  <ele>-16.61</ele>
  <time>2026-09-01T01:13:20Z</time>
  <course>275.53</course>
  <speed>0.01</speed>
  <fix>3d</fix>
</trkpt>
<trkpt lat="33.8103138" lon="-118.3938754">
  <ele>-17.261</ele>
  <time>2026-09-01T01:13:20Z</time>
  <course>183.65</course>
  <speed>0.03605551275463989</speed>
  <fix>3d</fix>
</trkpt>
<trkpt lat="33.8103138" lon="-118.3938754">
  <ele>-17.33</ele>
  <time>2026-09-01T01:13:20Z</time>
  <course>183.65</course>
  <speed>0.03605551275463989</speed>
  <fix>3d</fix>
</trkpt>
<trkpt lat="33.8103136" lon="-118.3938752">
  <ele>-16.61</ele>
  <time>2026-09-01T01:13:20Z</time>
  <course>275.53</course>
  <speed>0.01</speed>
  <fix>3d</fix>
</trkpt>
<trkpt lat="33.8103138" lon="-118.3938754">
  <ele>-17.365</ele>
  <time>2026-09-01T01:13:20Z</time>
  <course>183.65</course>
  <speed>0.03605551275463989</speed>
  <fix>3d</fix>
</trkpt>
<trkpt lat="33.8103138" lon="-118.3938754">
  <ele>-17.429</ele>
  <time>2026-09-01T01:13:20Z</time>
  <course>183.65</course>
  <speed>0.03605551275463989</speed>
  <fix>3d</fix>
</trkpt>
<trkpt lat="33.8103136" lon="-118.3938752">
  <ele>-16.8</ele>
  <time>2026-09-01T01:13:20Z</time>
  <course>275.54</course>
  <speed>0.01</speed>
  <fix>3d</fix>
</trkpt>
<trkpt lat="33.8103138" lon="-118.3938754">
  <ele>-17.458</ele>
  <time>2026-09-01T01:13:20Z</time>
  <course>183.65</course>
  <speed>0.03605551275463989</speed>
  <fix>3d</fix>
</trkpt>
<trkpt lat="33.8103138" lon="-118.3938754">
  <ele>-17.528</ele>
  <time>2026-09-01T01:13:20Z</time>
  <course>183.65</course>
  <speed>0.03605551275463989</speed>
  <fix>3d</fix>
</trkpt>
<trkpt lat="33.8103136" lon="-118.3938752">
  <ele>-16.8</ele>
  <time>2026-09-01T01:13:20Z</time>
  <course>275.54</course>
  <speed>0.01</speed>
  <fix>3d</fix>
</trkpt>
<trkpt lat="33.8103138" lon="-118.3938754">
  <ele>-17.562</ele>
  <time>2026-09-01T01:13:20Z</time>
  <course>183.65</course>
  <speed>0.03605551275463989</speed>
  <fix>3d</fix>
</trkpt>
<trkpt lat="33.8103138" lon="-118.3938755">
  <ele>-17.627</ele>
  <time>2026-09-01T01:13:20Z</time>
  <course>183.65</course>
  <speed>0.03605551275463989</speed>
  <fix>3d</fix>
</trkpt>
<trkpt lat="33.8103136" lon="-118.3938753">
  <ele>-16.99</ele>
  <time>2026-09-01T01:13:20Z</time>
  <course>275.54</course>
  <speed>0.01</speed>
  <fix>3d</fix>
</trkpt>
<trkpt lat="33.8103138" lon="-118.3938755">
  <ele>-17.658</ele>
  <time>2026-09-01T01:13:20Z</time>
  <course>183.65</course>
  <speed>0.03605551275463989</speed>
  <fix>3d</fix>
</trkpt>
<trkpt lat="33.8103138" lon="-118.3938755">
  <ele>-17.725</ele>
  <time>2026-09-01T01:13:20Z</time>
  <course>183.65</course>
  <speed>0.03605551275463989</speed>
  <fix>3d</fix>
</trkpt>
<trkpt lat="33.8103136" lon="-118.3938753">
  <ele>-16.99</ele>
  <time>2026-09-01T01:13:20Z</time>
  <course>275.54</course>
  <speed>0.01</speed>
  <fix>3d</fix>
</trkpt>
<trkpt lat="33.8103138" lon="-118.3938755">
  <ele>-17.767</ele>
  <time>2026-09-01T01:13:20Z</time>
  <course>183.65</course>
  <speed>0.03605551275463989</speed>
  <fix>3d</fix>
</trkpt>
<trkpt lat="33.8103138" lon="-118.3938755">
  <ele>-17.823</ele>
  <time>2026-09-01T01:13:20Z</time>
  <course>183.65</course>
  <speed>0.03605551275463989</speed>
  <fix>3d</fix>
</trkpt>
<trkpt lat="33.8103136" lon="-118.3938753">
  <ele>-17.19</ele>
  <time>2026-09-01T01:13:20Z</time>
  <course>275.55</course>
  <speed>0.01</speed>
  <fix>3d</fix>
</trkpt>
<trkpt lat="33.8103138" lon="-118.3938755">
  <ele>-17.855</ele>
  <time>2026-09-01T01:13:20Z</time>
  <course>183.65</course>
  <speed>0.03605551275463989</speed>
  <fix>3d</fix>
</trkpt>
<trkpt lat="33.8103138" lon="-118.3938755">
  <ele>-17.92</ele>
  <time>2026-09-01T01:13:20Z</time>
  <course>183.65</course>
  <speed>0.03605551275463989</speed>
  <fix>3d</fix>
</trkpt>
<trkpt lat="33.8103136" lon="-118.3938753">
  <ele>-17.19</ele>
  <time>2026-09-01T01:13:20Z</time>
  <course>275.55</course>
  <speed>0.01</speed>
  <fix>3d</fix>
</trkpt>
<trkpt lat="33.8103138" lon="-118.3938755">
  <ele>-17.923</ele>
  <time>2026-09-01T01:13:20Z</time>
  <course>183.65</course>
  <speed>0.03605551275463989</speed>
  <fix>3d</fix>
</trkpt>
<trkpt lat="33.8103138" lon="-118.3938755">
  <ele>-18.018</ele>
  <time>2026-09-01T01:13:20Z</time>
  <course>183.65</course>
  <speed>0.03605551275463989</speed>
  <fix>3d</fix>
</trkpt>
<trkpt lat="33.8103136" lon="-118.3938753">
  <ele>-17.38</ele>
  <time>2026-09-01T01:13:20Z</time>
  <course>275.56</course>
  <speed>0.01</speed>
  <fix>3d</fix>
</trkpt>
<trkpt lat="33.8103138" lon="-118.3938755">
  <ele>-18.057</ele>
  <time>2026-09-01T01:13:20Z</time>
  <course>183.65</course>
  <speed>0.03605551275463989</speed>
  <fix>3d</fix>
</trkpt>
<trkpt lat="33.8103138" lon="-118.3938755">
  <ele>-18.116</ele>
  <time>2026-09-01T01:13:20Z</time>
  <course>183.65</course>
  <speed>0.03605551275463989</speed>
  <fix>3d</fix>
</trkpt>
<trkpt lat="33.8103136" lon="-118.3938753">
  <ele>-17.38</ele>
  <time>2026-09-01T01:13:20Z</time>
  <course>275.56</course>
  <speed>0.01</speed>
  <fix>3d</fix>
</trkpt>
<trkpt lat="33.8103138" lon="-118.3938755">
  <ele>-18.146</ele>
  <time>2026-09-01T01:13:20Z</time>
  <course>183.65</course>
  <speed>0.03605551275463989</speed>
  <fix>3d</fix>
</trkpt>
<trkpt lat="33.8103138" lon="-118.3938755">
  <ele>-18.215</ele>
  <time>2026-09-01T01:13:20Z</time>
  <course>183.65</course>
  <speed>0.03605551275463989</speed>
  <fix>3d</fix>
</trkpt>
<trkpt lat="33.8103136" lon="-118.3938753">
  <ele>-17.57</ele>
  <time>2026-09-01T01:13:20Z</time>
  <course>275.56</course>
  <speed>0.01</speed>
  <fix>3d</fix>
</trkpt>
<trkpt lat="33.8103138" lon="-118.3938755">
  <ele>-18.247</ele>
  <time>2026-09-01T01:13:20Z</time>
  <course>183.65</course>
  <speed>0.03605551275463989</speed>
  <fix>3d</fix>
</trkpt>
<trkpt lat="33.8103138" lon="-118.3938755">
  <ele>-18.314</ele>
  <time>2026-09-01T01:13:20Z</time>
  <course>183.64</course>
  <speed>0.03605551275463989</speed>
  <fix>3d</fix>
</trkpt>
<trkpt lat="33.8103136" lon="-118.3938753">
  <ele>-17.57</ele>
  <time>2026-09-01T01:13:20Z</time>
  <course>275.56</course>
  <speed>0.01</speed>
  <fix>3d</fix>
</trkpt>
<trkpt lat="33.8103138" lon="-118.3938755">
  <ele>-18.346</ele>
  <time>2026-09-01T01:13:20Z</time>
  <course>183.64</course>
  <speed>0.03605551275463989</speed>
  <fix>3d</fix>
</trkpt>
<trkpt lat="33.8103138" lon="-118.3938756">
  <ele>-18.412</ele>
  <time>2026-09-01T01:13:20Z</time>
  <course>183.64</course>
  <speed>0.03605551275463989</speed>
  <fix>3d</fix>
</trkpt>
<trkpt lat="33.8103136" lon="-118.3938754">
  <ele>-17.76</ele>
  <time>2026-09-01T01:13:20Z</time>
  <course>275.57</course>
  <speed>0.01</speed>
  <fix>3d</fix>
</trkpt>
<trkpt lat="33.8103138" lon="-118.3938756">
  <ele>-18.442</ele>
  <time>2026-09-01T01:13:20Z</time>
  <course>183.64</course>
  <speed>0.03605551275463989</speed>
  <fix>3d</fix>
</trkpt>
<trkpt lat="33.8103138" lon="-118.3938756">
  <ele>-18.51</ele>
  <time>2026-09-01T01:13:20Z</time>
  <course>183.64</course>
  <speed>0.03605551275463989</speed>
  <fix>3d</fix>
</trkpt>
<trkpt lat="33.8103136" lon="-118.3938754">
  <ele>-17.76</ele>
  <time>2026-09-01T01:13:20Z</time>
  <course>275.57</course>
  <speed>0.01</speed>
  <fix>3d</fix>
</trkpt>
<trkpt lat="33.8103138" lon="-118.3938756">
  <ele>-18.547</ele>
  <time>2026-09-01T01:13:20Z</time>
  <course>183.64</course>
  <speed>0.03605551275463989</speed>
  <fix>3d</fix>
</trkpt>
<trkpt lat="33.8103138" lon="-118.3938756">
  <ele>-18.608</ele>
  <time>2026-09-01T01:13:20Z</time>
  <course>183.64</course>
  <speed>0.03605551275463989</speed>
  <fix>3d</fix>
</trkpt>
<trkpt lat="33.8103136" lon="-118.3938754">
  <ele>-17.95</ele>
  <time>2026-09-01T01:13:20Z</time>
  <course>275.58</course>
  <speed>0.01</speed>
  <fix>3d</fix>
</trkpt>
<trkpt lat="33.8103138" lon="-118.3938756">
  <ele>-18.639</ele>
  <time>2026-09-01T01:13:20Z</time>
  <course>183.64</course>
  <speed>0.03605551275463989</speed>
  <fix>3d</fix>
</trkpt>
<trkpt lat="33.8103138" lon="-118.3938756">
  <ele>-18.706</ele>
  <time>2026-09-01T01:13:20Z</time>
  <course>183.64</course>
  <speed>0.03605551275463989</speed>
  <fix>3d</fix>
</trkpt>
<trkpt lat="33.8103136" lon="-118.3938754">
  <ele>-17.95</ele>
  <time>2026-09-01T01:13:20Z</time>
  <course>275.58</course>
  <speed>0.01</speed>
  <fix>3d</fix>
</trkpt>
<trkpt lat="33.8103138" lon="-118.3938756">
  <ele>-18.737</ele>
  <time>2026-09-01T01:13:20Z</time>
  <course>183.64</course>
  <speed>0.03605551275463989</speed>
  <fix>3d</fix>
</trkpt>
<trkpt lat="33.8103138" lon="-118.3938756">
  <ele>-18.803</ele>
  <time>2026-09-01T01:13:20Z</time>
  <course>183.64</course>
  <speed>0.03605551275463989</speed>
  <fix>3d</fix>
</trkpt>
<trkpt lat="33.8103136" lon="-118.3938754">
  <ele>-18.14</ele>
  <time>2026-09-01T01:13:20Z</time>
  <course>275.58</course>
  <speed>0.01</speed>
  <fix>3d</fix>
</trkpt>
<trkpt lat="33.8103138" lon="-118.3938756">
  <ele>-18.834</ele>
  <time>2026-09-01T01:13:20Z</time>
  <course>183.64</course>
  <speed>0.03605551275463989</speed>
  <fix>3d</fix>
</trkpt>
<trkpt lat="33.8103138" lon="-118.3938756">
  <ele>-18.901</ele>
  <time>2026-09-01T01:13:20Z</time>
  <course>183.64</course>
  <speed>0.03605551275463989</speed>
  <fix>3d</fix>
</trkpt>
<trkpt lat="33.8103136" lon="-118.3938754">
  <ele>-18.14</ele>
  <time>2026-09-01T01:13:20Z</time>
  <course>275.58</course>
  <speed>0.01</speed>
  <fix>3d</fix>
</trkpt>
<trkpt lat="33.8103138" lon="-118.3938756">
  <ele>-18.93</ele>
  <time>2026-09-01T01:13:20Z</time>
  <course>183.64</course>
  <speed>0.03605551275463989</speed>
  <fix>3d</fix>
</trkpt>
<trkpt lat="33.8103138" lon="-118.3938756">
  <ele>-18.998</ele>
  <time>2026-09-01T01:13:20Z</time>
  <course>183.64</course>
  <speed>0.03605551275463989</speed>
  <fix>3d</fix>
</trkpt>
<trkpt lat="33.8103136" lon="-118.3938754">
  <ele>-18.33</ele>
  <time>2026-09-01T01:13:20Z</time>
  <course>275.59</course>
  <speed>0.01</speed>
  <fix>3d</fix>
</trkpt>
<trkpt lat="33.8103138" lon="-118.3938756">
  <ele>-19.0</ele>
  <time>2026-09-01T01:13:20Z</time>
  <course>183.64</course>
  <speed>0.03605551275463989</speed>
  <fix>3d</fix>
</trkpt>
<trkpt lat="33.8103138" lon="-118.3938756">
  <ele>-19.095</ele>
  <time>2026-09-01T01:13:20Z</time>
  <course>183.64</course>
  <speed>0.03605551275463989</speed>
  <fix>3d</fix>
</trkpt>
<trkpt lat="33.8103136" lon="-118.3938754">
  <ele>-18.33</ele>
  <time>2026-09-01T01:13:20Z</time>
  <course>275.59</course>
  <speed>0.01</speed>
  <fix>3d</fix>
</trkpt>
<trkpt lat="33.8103138" lon="-118.3938756">
  <ele>-19.127</ele>
  <time>2026-09-01T01:13:20Z</time>
  <course>183.64</course>
  <speed>0.03605551275463989</speed>
  <fix>3d</fix>
</trkpt>
<trkpt lat="33.8103138" lon="-118.3938757">
  <ele>-19.192</ele>
  <time>2026-09-01T01:13:20Z</time>
  <course>183.64</course>
  <speed>0.03605551275463989</speed>
  <fix>3d</fix>
</trkpt>
<trkpt lat="33.8103137" lon="-118.3938755">
  <ele>-18.52</ele>
  <time>2026-09-01T01:13:20Z</time>
  <course>275.59</course>
  <speed>0.01</speed>
  <fix>3d</fix>
</trkpt>
<trkpt lat="33.8103138" lon="-118.3938757">
  <ele>-19.223</ele>
  <time>2026-09-01T01:13:20Z</time>
  <course>183.64</course>
  <speed>0.03605551275463989</speed>
  <fix>3d</fix>
</trkpt>
<trkpt lat="33.8103138" lon="-118.3938757">
  <ele>-19.289</ele>
  <time>2026-09-01T01:13:20Z</time>
  <course>183.64</course>
  <speed>0.03605551275463989</speed>
  <fix>3d</fix>
</trkpt>
<trkpt lat="33.8103137" lon="-118.3938755">
  <ele>-18.52</ele>
  <time>2026-09-01T01:13:20Z</time>
  <course>275.59</course>
  <speed>0.01</speed>
  <fix>3d</fix>
</trkpt>
<trkpt lat="33.8103138" lon="-118.3938757">
  <ele>-19.318</ele>
  <time>2026-09-01T01:13:20Z</time>
  <course>183.64</course>
  <speed>0.03605551275463989</speed>
  <fix>3d</fix>
</trkpt>
<trkpt lat="33.8103138" lon="-118.3938757">
  <ele>-19.386</ele>
  <time>2026-09-01T01:13:20Z</time>
  <course>183.63</course>
  <speed>0.03605551275463989</speed>
  <fix>3d</fix>
</trkpt>
<trkpt lat="33.8103137" lon="-118.3938755">
  <ele>-18.7</ele>
  <time>2026-09-01T01:13:20Z</time>
  <course>275.59</course>
  <speed>0.01</speed>
  <fix>3d</fix>
</trkpt>
<trkpt lat="33.8103138" lon="-118.3938757">
  <ele>-19.417</ele>
  <time>2026-09-01T01:13:20Z</time>
  <course>183.63</course>
  <speed>0.03605551275463989</speed>
  <fix>3d</fix>
</trkpt>
<trkpt lat="33.8103138" lon="-118.3938757">
  <ele>-19.483</ele>
  <time>2026-09-01T01:13:20Z</time>
  <course>183.63</course>
  <speed>0.03605551275463989</speed>
  <fix>3d</fix>
</trkpt>
<trkpt lat="33.8103137" lon="-118.3938755">
  <ele>-18.7</ele>
  <time>2026-09-01T01:13:20Z</time>
  <course>275.59</course>
  <speed>0.01</speed>
  <fix>3d</fix>
</trkpt>
<trkpt lat="33.8103138" lon="-118.3938757">
  <ele>-19.516</ele>
  <time>2026-09-01T01:13:20Z</time>
  <course>183.63</course>
  <speed>0.03605551275463989</speed>
  <fix>3d</fix>
</trkpt>
<trkpt lat="33.8103138" lon="-118.3938757">
  <ele>-19.579</ele>
  <time>2026-09-01T01:13:20Z</time>
  <course>183.63</course>
  <speed>0.03605551275463989</speed>
  <fix>3d</fix>
</trkpt>
<trkpt lat="33.8103137" lon="-118.3938755">
  <ele>-18.89</ele>
  <time>2026-09-01T01:13:20Z</time>
  <course>275.6</course>
  <speed>0.01</speed>
  <fix>3d</fix>
</trkpt>
<trkpt lat="33.8103138" lon="-118.3938757">
  <ele>-19.608</ele>
  <time>2026-09-01T01:13:20Z</time>
  <course>183.63</course>
  <speed>0.03605551275463989</speed>
  <fix>3d</fix>
</trkpt>
<trkpt lat="33.8103138" lon="-118.3938757">
  <ele>-19.676</ele>
  <time>2026-09-01T01:13:20Z</time>
  <course>183.63</course>
  <speed>0.03605551275463989</speed>
  <fix>3d</fix>
</trkpt>
<trkpt lat="33.8103137" lon="-118.3938755">
  <ele>-18.89</ele>
  <time>2026-09-01T01:13:20Z</time>
  <course>275.6</course>
  <speed>0.01</speed>
  <fix>3d</fix>
</trkpt>
<trkpt lat="33.8103138" lon="-118.3938757">
  <ele>-19.708</ele>
  <time>2026-09-01T01:13:20Z</time>
  <course>183.63</course>
  <speed>0.03605551275463989</speed>
  <fix>3d</fix>
</trkpt>
<trkpt lat="33.8103138" lon="-118.3938757">
  <ele>-19.774</ele>
  <time>2026-09-01T01:13:20Z</time>
  <course>183.63</course>
  <speed>0.03605551275463989</speed>
  <fix>3d</fix>
</trkpt>
<trkpt lat="33.8103137" lon="-118.3938756">
  <ele>-19.08</ele>
  <time>2026-09-01T01:13:20Z</time>
  <course>275.59</course>
  <speed>0.01</speed>
  <fix>3d</fix>
</trkpt>
<trkpt lat="33.8103138" lon="-118.3938757">
  <ele>-19.791</ele>
  <time>2026-09-01T01:13:20Z</time>
  <course>183.63</course>
  <speed>0.03605551275463989</speed>
  <fix>3d</fix>
</trkpt>
<trkpt lat="33.8103138" lon="-118.3938757">
  <ele>-19.872</ele>
  <time>2026-09-01T01:13:20Z</time>
  <course>183.63</course>
  <speed>0.03605551275463989</speed>
  <fix>3d</fix>
</trkpt>
<trkpt lat="33.8103137" lon="-118.3938756">
  <ele>-19.08</ele>
  <time>2026-09-01T01:13:20Z</time>
  <course>275.59</course>
  <speed>0.01</speed>
  <fix>3d</fix>
</trkpt>
<trkpt lat="33.8103138" lon="-118.3938757">
  <ele>-19.874</ele>
  <time>2026-09-01T01:13:20Z</time>
  <course>183.63</course>
  <speed>0.03605551275463989</speed>
  <fix>3d</fix>
</trkpt>
<trkpt lat="33.8103138" lon="-118.3938758">
  <ele>-19.97</ele>
  <time>2026-09-01T01:13:20Z</time>
  <course>183.63</course>
  <speed>0.03605551275463989</speed>
  <fix>3d</fix>
</trkpt>
<trkpt lat="33.8103137" lon="-118.3938756">
  <ele>-19.27</ele>
  <time>2026-09-01T01:13:20Z</time>
  <course>275.59</course>
  <speed>0.01</speed>
  <fix>3d</fix>
</trkpt>
<trkpt lat="33.8103138" lon="-118.3938758">
  <ele>-19.972</ele>
  <time>2026-09-01T01:13:20Z</time>
  <course>183.63</course>
  <speed>0.03605551275463989</speed>
  <fix>3d</fix>
</trkpt>
<trkpt lat="33.8103138" lon="-118.3938758">
  <ele>-20.067</ele>
  <time>2026-09-01T01:13:20Z</time>
  <course>183.63</course>
  <speed>0.03605551275463989</speed>
  <fix>3d</fix>
</trkpt>
<trkpt lat="33.8103137" lon="-118.3938756">
  <ele>-19.27</ele>
  <time>2026-09-01T01:13:20Z</time>
  <course>275.59</course>
  <speed>0.01</speed>
  <fix>3d</fix>
</trkpt>
<trkpt lat="33.8103138" lon="-118.3938758">
  <ele>-20.099</ele>
  <time>2026-09-01T01:13:20Z</time>
  <course>183.63</course>
  <speed>0.03605551275463989</speed>
  <fix>3d</fix>
</trkpt>
<trkpt lat="33.8103138" lon="-118.3938758">
  <ele>-20.165</ele>
  <time>2026-09-01T01:13:20Z</time>
  <course>183.63</course>
  <speed>0.03605551275463989</speed>
  <fix>3d</fix>
</trkpt>
<trkpt lat="33.8103137" lon="-118.3938756">
  <ele>-19.46</ele>
  <time>2026-09-01T01:13:20Z</time>
  <course>275.6</course>
  <speed>0.01</speed>
  <fix>3d</fix>
</trkpt>
<trkpt lat="33.8103138" lon="-118.3938758">
  <ele>-20.191</ele>
  <time>2026-09-01T01:13:20Z</time>
  <course>183.63</course>
  <speed>0.03605551275463989</speed>
  <fix>3d</fix>
</trkpt>
<trkpt lat="33.8103138" lon="-118.3938758">
  <ele>-20.262</ele>
  <time>2026-09-01T01:13:20Z</time>
  <course>183.62</course>
  <speed>0.03605551275463989</speed>
  <fix>3d</fix>
</trkpt>
<trkpt lat="33.8103137" lon="-118.3938756">
  <ele>-19.46</ele>
  <time>2026-09-01T01:13:20Z</time>
  <course>275.6</course>
  <speed>0.01</speed>
  <fix>3d</fix>
</trkpt>
<trkpt lat="33.8103138" lon="-118.3938758">
  <ele>-20.293</ele>
  <time>2026-09-01T01:13:20Z</time>
  <course>183.62</course>
  <speed>0.03605551275463989</speed>
  <fix>3d</fix>
</trkpt>
<trkpt lat="33.8103138" lon="-118.3938758">
  <ele>-20.359</ele>
  <time>2026-09-01T01:13:20Z</time>
  <course>183.62</course>
  <speed>0.03605551275463989</speed>
  <fix>3d</fix>
</trkpt>
<trkpt lat="33.8103137" lon="-118.3938756">
  <ele>-19.65</ele>
  <time>2026-09-01T01:13:20Z</time>
  <course>275.6</course>
  <speed>0.01</speed>
  <fix>3d</fix>
</trkpt>
<trkpt lat="33.8103138" lon="-118.3938758">
  <ele>-20.398</ele>
  <time>2026-09-01T01:13:20Z</time>
  <course>183.62</course>
  <speed>0.03605551275463989</speed>
  <fix>3d</fix>
</trkpt>
<trkpt lat="33.8103138" lon="-118.3938758">
  <ele>-20.457</ele>
  <time>2026-09-01T01:13:20Z</time>
  <course>183.62</course>
  <speed>0.03605551275463989</speed>
  <fix>3d</fix>
</trkpt>
<trkpt lat="33.8103137" lon="-118.3938756">
  <ele>-19.65</ele>
  <time>2026-09-01T01:13:20Z</time>
  <course>275.6</course>
  <speed>0.01</speed>
  <fix>3d</fix>
</trkpt>
<trkpt lat="33.8103138" lon="-118.3938758">
  <ele>-20.492</ele>
  <time>2026-09-01T01:13:20Z</time>
  <course>183.62</course>
  <speed>0.03605551275463989</speed>
  <fix>3d</fix>
</trkpt>
<trkpt lat="33.8103139" lon="-118.3938758">
  <ele>-20.555</ele>
  <time>2026-09-01T01:13:20Z</time>
  <course>183.62</course>
  <speed>0.03605551275463989</speed>
  <fix>3d</fix>
</trkpt>
<trkpt lat="33.8103137" lon="-118.3938757">
  <ele>-19.84</ele>
  <time>2026-09-01T01:13:20Z</time>
  <course>275.6</course>
  <speed>0.01</speed>
  <fix>3d</fix>
</trkpt>
<trkpt lat="33.8103138" lon="-118.3938758">
  <ele>-20.587</ele>
  <time>2026-09-01T01:13:20Z</time>
  <course>183.62</course>
  <speed>0.03605551275463989</speed>
  <fix>3d</fix>
</trkpt>
<trkpt lat="33.8103139" lon="-118.3938758">
  <ele>-20.653</ele>
  <time>2026-09-01T01:13:20Z</time>
  <course>183.62</course>
  <speed>0.03605551275463989</speed>
  <fix>3d</fix>
</trkpt>
<trkpt lat="33.8103137" lon="-118.3938757">
  <ele>-19.84</ele>
  <time>2026-09-01T01:13:20Z</time>
  <course>275.6</course>
  <speed>0.01</speed>
  <fix>3d</fix>
</trkpt>
<trkpt lat="33.8103139" lon="-118.3938758">
  <ele>-20.683</ele>
  <time>2026-09-01T01:13:20Z</time>
  <course>183.62</course>
  <speed>0.03605551275463989</speed>
  <fix>3d</fix>
</trkpt>
<trkpt lat="33.8103139" lon="-118.3938759">
  <ele>-20.751</ele>
  <time>2026-09-01T01:13:20Z</time>
  <course>183.62</course>
  <speed>0.03605551275463989</speed>
  <fix>3d</fix>
</trkpt>
<trkpt lat="33.8103137" lon="-118.3938757">
  <ele>-20.03</ele>
  <time>2026-09-01T01:13:20Z</time>
  <course>275.6</course>
  <speed>0.01</speed>
  <fix>3d</fix>
</trkpt>
<trkpt lat="33.8103139" lon="-118.3938759">
  <ele>-20.781</ele>
  <time>2026-09-01T01:13:20Z</time>
  <course>183.62</course>
  <speed>0.03605551275463989</speed>
  <fix>3d</fix>
</trkpt>
<trkpt lat="33.8103139" lon="-118.3938759">
  <ele>-20.848</ele>
  <time>2026-09-01T01:13:20Z</time>
  <course>183.62</course>
  <speed>0.03605551275463989</speed>
  <fix>3d</fix>
</trkpt>
<trkpt lat="33.8103137" lon="-118.3938757">
  <ele>-20.03</ele>
  <time>2026-09-01T01:13:20Z</time>
  <course>275.6</course>
  <speed>0.01</speed>
  <fix>3d</fix>
</trkpt>
<trkpt lat="33.8103139" lon="-118.3938759">
  <ele>-20.877</ele>
  <time>2026-09-01T01:13:20Z</time>
  <course>183.62</course>
  <speed>0.03605551275463989</speed>
  <fix>3d</fix>
</trkpt>
<trkpt lat="33.8103139" lon="-118.3938759">
  <ele>-20.945</ele>
  <time>2026-09-01T01:13:20Z</time>
  <course>183.62</course>
  <speed>0.03605551275463989</speed>
  <fix>3d</fix>
</trkpt>
<trkpt lat="33.8103137" lon="-118.3938757">
  <ele>-20.22</ele>
  <time>2026-09-01T01:13:20Z</time>
  <course>275.61</course>
  <speed>0.01</speed>
  <fix>3d</fix>
</trkpt>
<trkpt lat="33.8103139" lon="-118.3938759">
  <ele>-20.947</ele>
  <time>2026-09-01T01:13:20Z</time>
  <course>183.62</course>
  <speed>0.03605551275463989</speed>
  <fix>3d</fix>
</trkpt>
<trkpt lat="33.8103139" lon="-118.3938759">
  <ele>-21.043</ele>
  <time>2026-09-01T01:13:20Z</time>
  <course>183.61</course>
  <speed>0.03605551275463989</speed>
  <fix>3d</fix>
</trkpt>
<trkpt lat="33.8103137" lon="-118.3938757">
  <ele>-20.22</ele>
  <time>2026-09-01T01:13:20Z</time>
  <course>275.61</course>
  <speed>0.01</speed>
  <fix>3d</fix>
</trkpt>
<trkpt lat="33.8103139" lon="-118.3938759">
  <ele>-21.045</ele>
  <time>2026-09-01T01:13:20Z</time>
  <course>183.61</course>
  <speed>0.03605551275463989</speed>
  <fix>3d</fix>
</trkpt>
<trkpt lat="33.8103139" lon="-118.3938759">
  <ele>-21.14</ele>
  <time>2026-09-01T01:13:20Z</time>
  <course>183.61</course>
  <speed>0.03605551275463989</speed>
  <fix>3d</fix>
</trkpt>
<trkpt lat="33.8103137" lon="-118.3938757">
  <ele>-20.41</ele>
  <time>2026-09-01T01:13:20Z</time>
  <course>275.61</course>
  <speed>0.01</speed>
  <fix>3d</fix>
</trkpt>
<trkpt lat="33.8103139" lon="-118.3938759">
  <ele>-21.169</ele>
  <time>2026-09-01T01:13:20Z</time>
  <course>183.61</course>
  <speed>0.03605551275463989</speed>
  <fix>3d</fix>
</trkpt>
<trkpt lat="33.8103139" lon="-118.3938759">
  <ele>-21.237</ele>
  <time>2026-09-01T01:13:20Z</time>
  <course>183.61</course>
  <speed>0.03605551275463989</speed>
  <fix>3d</fix>
</trkpt>
<trkpt lat="33.8103137" lon="-118.3938757">
  <ele>-20.41</ele>
  <time>2026-09-01T01:13:20Z</time>
  <course>275.61</course>
  <speed>0.01</speed>
  <fix>3d</fix>
</trkpt>
<trkpt lat="33.8103139" lon="-118.3938759">
  <ele>-21.269</ele>
  <time>2026-09-01T01:13:20Z</time>
  <course>183.61</course>
  <speed>0.03605551275463989</speed>
  <fix>3d</fix>
</trkpt>
<trkpt lat="33.8103139" lon="-118.3938759">
  <ele>-21.335</ele>
  <time>2026-09-01T01:13:20Z</time>
  <course>183.61</course>
  <speed>0.03605551275463989</speed>
  <fix>3d</fix>
</trkpt>
<trkpt lat="33.8103137" lon="-118.3938758">
  <ele>-20.6</ele>
  <time>2026-09-01T01:13:20Z</time>
  <course>275.61</course>
  <speed>0.01</speed>
  <fix>3d</fix>
</trkpt>
<trkpt lat="33.8103139" lon="-118.3938759">
  <ele>-21.364</ele>
  <time>2026-09-01T01:13:20Z</time>
  <course>183.61</course>
  <speed>0.03605551275463989</speed>
  <fix>3d</fix>
</trkpt>
<trkpt lat="33.8103139" lon="-118.3938759">
  <ele>-21.432</ele>
  <time>2026-09-01T01:13:20Z</time>
  <course>183.61</course>
  <speed>0.03605551275463989</speed>
  <fix>3d</fix>
</trkpt>
<trkpt lat="33.8103137" lon="-118.3938758">
  <ele>-20.6</ele>
  <time>2026-09-01T01:13:20Z</time>
  <course>275.61</course>
  <speed>0.01</speed>
  <fix>3d</fix>
</trkpt>
<trkpt lat="33.8103139" lon="-118.3938759">
  <ele>-21.468</ele>
  <time>2026-09-01T01:13:20Z</time>
  <course>183.61</course>
  <speed>0.03605551275463989</speed>
  <fix>3d</fix>
</trkpt>
<trkpt lat="33.8103139" lon="-118.393876">
  <ele>-21.529</ele>
  <time>2026-09-01T01:13:20Z</time>
  <course>183.61</course>
  <speed>0.03605551275463989</speed>
  <fix>3d</fix>
</trkpt>
<trkpt lat="33.8103137" lon="-118.3938758">
  <ele>-20.79</ele>
  <time>2026-09-01T01:13:20Z</time>
  <course>275.61</course>
  <speed>0.01</speed>
  <fix>3d</fix>
</trkpt>
<trkpt lat="33.8103139" lon="-118.393876">
  <ele>-21.559</ele>
  <time>2026-09-01T01:13:20Z</time>
  <course>183.61</course>
  <speed>0.03605551275463989</speed>
  <fix>3d</fix>
</trkpt>
<trkpt lat="33.8103139" lon="-118.393876">
  <ele>-21.627</ele>
  <time>2026-09-01T01:13:20Z</time>
  <course>183.61</course>
  <speed>0.03605551275463989</speed>
  <fix>3d</fix>
</trkpt>
<trkpt lat="33.8103137" lon="-118.3938758">
  <ele>-20.79</ele>
  <time>2026-09-01T01:13:20Z</time>
  <course>275.61</course>
  <speed>0.01</speed>
  <fix>3d</fix>
</trkpt>
<trkpt lat="33.8103139" lon="-118.393876">
  <ele>-21.656</ele>
  <time>2026-09-01T01:13:20Z</time>
  <course>183.61</course>
  <speed>0.03605551275463989</speed>
  <fix>3d</fix>
</trkpt>
<trkpt lat="33.8103139" lon="-118.393876">
  <ele>-21.725</ele>
  <time>2026-09-01T01:13:20Z</time>
  <course>183.61</course>
  <speed>0.03605551275463989</speed>
  <fix>3d</fix>
</trkpt>
<trkpt lat="33.8103137" lon="-118.3938758">
  <ele>-20.98</ele>
  <time>2026-09-01T01:13:20Z</time>
  <course>275.61</course>
  <speed>0.01</speed>
  <fix>3d</fix>
</trkpt>
<trkpt lat="33.8103139" lon="-118.393876">
  <ele>-21.755</ele>
  <time>2026-09-01T01:13:20Z</time>
  <course>183.61</course>
  <speed>0.03605551275463989</speed>
  <fix>3d</fix>
</trkpt>
<trkpt lat="33.8103139" lon="-118.393876">
  <ele>-21.824</ele>
  <time>2026-09-01T01:13:20Z</time>
  <course>183.61</course>
  <speed>0.03605551275463989</speed>
  <fix>3d</fix>
</trkpt>
<trkpt lat="33.8103137" lon="-118.3938758">
  <ele>-20.98</ele>
  <time>2026-09-01T01:13:20Z</time>
  <course>275.61</course>
  <speed>0.01</speed>
  <fix>3d</fix>
</trkpt>
<trkpt lat="33.8103139" lon="-118.393876">
  <ele>-21.853</ele>
  <time>2026-09-01T01:13:20Z</time>
  <course>183.61</course>
  <speed>0.03605551275463989</speed>
  <fix>3d</fix>
</trkpt>
<trkpt lat="33.8103139" lon="-118.393876">
  <ele>-21.921</ele>
  <time>2026-09-01T01:13:20Z</time>
  <course>183.6</course>
  <speed>0.03605551275463989</speed>
  <fix>3d</fix>
</trkpt>
<trkpt lat="33.8103137" lon="-118.3938759">
  <ele>-21.17</ele>
  <time>2026-09-01T01:13:20Z</time>
  <course>275.61</course>
  <speed>0.01</speed>
  <fix>3d</fix>
</trkpt>
<trkpt lat="33.8103139" lon="-118.393876">
  <ele>-21.95</ele>
  <time>2026-09-01T01:13:20Z</time>
  <course>183.6</course>
  <speed>0.03605551275463989</speed>
  <fix>3d</fix>
</trkpt>
<trkpt lat="33.8103139" lon="-118.393876">
  <ele>-22.018</ele>
  <time>2026-09-01T01:13:20Z</time>
  <course>183.6</course>
  <speed>0.03605551275463989</speed>
  <fix>3d</fix>
</trkpt>
<trkpt lat="33.8103137" lon="-118.3938759">
  <ele>-21.17</ele>
  <time>2026-09-01T01:13:20Z</time>
  <course>275.61</course>
  <speed>0.01</speed>
  <fix>3d</fix>
</trkpt>
<trkpt lat="33.8103139" lon="-118.393876">
  <ele>-22.02</ele>
  <time>2026-09-01T01:13:20Z</time>
  <course>183.6</course>
  <speed>0.03605551275463989</speed>
  <fix>3d</fix>
</trkpt>
<trkpt lat="33.8103139" lon="-118.393876">
  <ele>-22.115</ele>
  <time>2026-09-01T01:13:20Z</time>
  <course>183.6</course>
  <speed>0.03605551275463989</speed>
  <fix>3d</fix>
</trkpt>
<trkpt lat="33.8103137" lon="-118.3938759">
  <ele>-21.36</ele>
  <time>2026-09-01T01:13:20Z</time>
  <course>275.62</course>
  <speed>0.01</speed>
  <fix>3d</fix>
</trkpt>
<trkpt lat="33.8103139" lon="-118.393876">
  <ele>-22.166</ele>
  <time>2026-09-01T01:13:20Z</time>
  <course>183.6</course>
  <speed>0.03605551275463989</speed>
  <fix>3d</fix>
</trkpt>
<trkpt lat="33.8103139" lon="-118.393876">
  <ele>-22.213</ele>
  <time>2026-09-01T01:13:20Z</time>
  <course>183.6</course>
  <speed>0.03605551275463989</speed>
  <fix>3d</fix>
</trkpt>
<trkpt lat="33.8103137" lon="-118.3938759">
  <ele>-21.36</ele>
  <time>2026-09-01T01:13:20Z</time>
  <course>275.62</course>
  <speed>0.01</speed>
  <fix>3d</fix>
</trkpt>
<trkpt lat="33.8103139" lon="-118.3938761">
  <ele>-22.243</ele>
  <time>2026-09-01T01:13:20Z</time>
  <course>183.6</course>
  <speed>0.03605551275463989</speed>
  <fix>3d</fix>
</trkpt>
<trkpt lat="33.8103139" lon="-118.3938761">
  <ele>-22.311</ele>
  <time>2026-09-01T01:13:20Z</time>
  <course>183.6</course>
  <speed>0.03605551275463989</speed>
  <fix>3d</fix>
</trkpt>
<trkpt lat="33.8103137" lon="-118.3938759">
  <ele>-21.55</ele>
  <time>2026-09-01T01:13:20Z</time>
  <course>275.61</course>
  <speed>0.01</speed>
  <fix>3d</fix>
</trkpt>
<trkpt lat="33.8103139" lon="-118.3938761">
  <ele>-22.314</ele>
  <time>2026-09-01T01:13:20Z</time>
  <course>183.6</course>
  <speed>0.03605551275463989</speed>
  <fix>3d</fix>
</trkpt>
<trkpt lat="33.8103139" lon="-118.3938761">
  <ele>-22.41</ele>
  <time>2026-09-01T01:13:20Z</time>
  <course>183.6</course>
  <speed>0.03605551275463989</speed>
  <fix>3d</fix>
</trkpt>
<trkpt lat="33.8103137" lon="-118.3938759">
  <ele>-21.55</ele>
  <time>2026-09-01T01:13:20Z</time>
  <course>275.61</course>
  <speed>0.01</speed>
  <fix>3d</fix>
</trkpt>
<trkpt lat="33.8103139" lon="-118.3938761">
  <ele>-22.439</ele>
  <time>2026-09-01T01:13:20Z</time>
  <course>183.6</course>
  <speed>0.03605551275463989</speed>
  <fix>3d</fix>
</trkpt>
<trkpt lat="33.8103139" lon="-118.3938761">
  <ele>-22.507</ele>
  <time>2026-09-01T01:13:20Z</time>
  <course>183.6</course>
  <speed>0.03605551275463989</speed>
  <fix>3d</fix>
</trkpt>
<trkpt lat="33.8103137" lon="-118.3938759">
  <ele>-21.75</ele>
  <time>2026-09-01T01:13:20Z</time>
  <course>275.62</course>
  <speed>0.01</speed>
  <fix>3d</fix>
</trkpt>
<trkpt lat="33.8103139" lon="-118.3938761">
  <ele>-22.537</ele>
  <time>2026-09-01T01:13:20Z</time>
  <course>183.6</course>
  <speed>0.03605551275463989</speed>
  <fix>3d</fix>
</trkpt>
<trkpt lat="33.8103139" lon="-118.3938761">
  <ele>-22.605</ele>
  <time>2026-09-01T01:13:20Z</time>
  <course>183.6</course>
  <speed>0.03605551275463989</speed>
  <fix>3d</fix>
</trkpt>
<trkpt lat="33.8103137" lon="-118.3938759">
  <ele>-21.75</ele>
  <time>2026-09-01T01:13:20Z</time>
  <course>275.62</course>
  <speed>0.01</speed>
  <fix>3d</fix>
</trkpt>
<trkpt lat="33.8103139" lon="-118.3938761">
  <ele>-22.635</ele>
  <time>2026-09-01T01:13:20Z</time>
  <course>183.6</course>
  <speed>0.03605551275463989</speed>
  <fix>3d</fix>
</trkpt>
<trkpt lat="33.8103139" lon="-118.3938761">
  <ele>-22.703</ele>
  <time>2026-09-01T01:13:20Z</time>
  <course>183.59</course>
  <speed>0.03605551275463989</speed>
  <fix>3d</fix>
</trkpt>
<trkpt lat="33.8103137" lon="-118.393876">
  <ele>-21.94</ele>
  <time>2026-09-01T01:13:20Z</time>
  <course>275.62</course>
  <speed>0.01</speed>
  <fix>3d</fix>
</trkpt>
<trkpt lat="33.8103139" lon="-118.3938761">
  <ele>-22.738</ele>
  <time>2026-09-01T01:13:20Z</time>
  <course>183.59</course>
  <speed>0.03605551275463989</speed>
  <fix>3d</fix>
</trkpt>
<trkpt lat="33.8103139" lon="-118.3938761">
  <ele>-22.802</ele>
  <time>2026-09-01T01:13:20Z</time>
  <course>183.59</course>
  <speed>0.03605551275463989</speed>
  <fix>3d</fix>
</trkpt>
<trkpt lat="33.8103137" lon="-118.393876">
  <ele>-21.94</ele>
  <time>2026-09-01T01:13:20Z</time>
  <course>275.62</course>
  <speed>0.01</speed>
  <fix>3d</fix>
</trkpt>
<trkpt lat="33.8103139" lon="-118.3938761">
  <ele>-22.833</ele>
  <time>2026-09-01T01:13:20Z</time>
  <course>183.59</course>
  <speed>0.03605551275463989</speed>
  <fix>3d</fix>
</trkpt>
<trkpt lat="33.8103139" lon="-118.3938761">
  <ele>-22.9</ele>
  <time>2026-09-01T01:13:20Z</time>
  <course>183.59</course>
  <speed>0.03605551275463989</speed>
  <fix>3d</fix>
</trkpt>
<trkpt lat="33.8103137" lon="-118.393876">
  <ele>-22.13</ele>
  <time>2026-09-01T01:13:20Z</time>
  <course>275.62</course>
  <speed>0.01</speed>
  <fix>3d</fix>
</trkpt>
<trkpt lat="33.8103139" lon="-118.3938761">
  <ele>-22.934</ele>
  <time>2026-09-01T01:13:20Z</time>
  <course>183.59</course>
  <speed>0.03605551275463989</speed>
  <fix>3d</fix>
</trkpt>
<trkpt lat="33.8103139" lon="-118.3938762">
  <ele>-22.997</ele>
  <time>2026-09-01T01:13:20Z</time>
  <course>183.59</course>
  <speed>0.03605551275463989</speed>
  <fix>3d</fix>
</trkpt>
<trkpt lat="33.8103137" lon="-118.393876">
  <ele>-22.13</ele>
  <time>2026-09-01T01:13:20Z</time>
  <course>275.62</course>
  <speed>0.01</speed>
  <fix>3d</fix>
</trkpt>
<trkpt lat="33.8103139" lon="-118.3938762">
  <ele>-23.026</ele>
  <time>2026-09-01T01:13:20Z</time>
  <course>183.59</course>
  <speed>0.03605551275463989</speed>
  <fix>3d</fix>
</trkpt>
<trkpt lat="33.8103139" lon="-118.3938762">
  <ele>-23.094</ele>
  <time>2026-09-01T01:13:20Z</time>
  <course>183.59</course>
  <speed>0.03605551275463989</speed>
  <fix>3d</fix>
</trkpt>
<trkpt lat="33.8103137" lon="-118.393876">
  <ele>-22.32</ele>
  <time>2026-09-01T01:13:20Z</time>
  <course>275.63</course>
  <speed>0.01</speed>
  <fix>3d</fix>
</trkpt>
<trkpt lat="33.8103139" lon="-118.3938762">
  <ele>-23.097</ele>
  <time>2026-09-01T01:13:20Z</time>
  <course>183.59</course>
  <speed>0.03605551275463989</speed>
  <fix>3d</fix>
</trkpt>
<trkpt lat="33.8103139" lon="-118.3938762">
  <ele>-23.192</ele>
  <time>2026-09-01T01:13:20Z</time>
  <course>183.59</course>
  <speed>0.03605551275463989</speed>
  <fix>3d</fix>
</trkpt>
<trkpt lat="33.8103137" lon="-118.393876">
  <ele>-22.32</ele>
  <time>2026-09-01T01:13:20Z</time>
  <course>275.63</course>
  <speed>0.01</speed>
  <fix>3d</fix>
</trkpt>
<trkpt lat="33.8103139" lon="-118.3938762">
  <ele>-23.221</ele>
  <time>2026-09-01T01:13:20Z</time>
  <course>183.59</course>
  <speed>0.03605551275463989</speed>
  <fix>3d</fix>
</trkpt>
<trkpt lat="33.8103139" lon="-118.3938762">
  <ele>-23.289</ele>
  <time>2026-09-01T01:13:20Z</time>
  <course>183.59</course>
  <speed>0.03605551275463989</speed>
  <fix>3d</fix>
</trkpt>
<trkpt lat="33.8103137" lon="-118.393876">
  <ele>-22.51</ele>
  <time>2026-09-01T01:13:20Z</time>
  <course>275.63</course>
  <speed>0.01</speed>
  <fix>3d</fix>
</trkpt>
<trkpt lat="33.8103139" lon="-118.3938762">
  <ele>-23.321</ele>
  <time>2026-09-01T01:13:20Z</time>
  <course>183.59</course>
  <speed>0.03605551275463989</speed>
  <fix>3d</fix>
</trkpt>
<trkpt lat="33.8103139" lon="-118.3938762">
  <ele>-23.387</ele>
  <time>2026-09-01T01:13:20Z</time>
  <course>183.59</course>
  <speed>0.03605551275463989</speed>
  <fix>3d</fix>
</trkpt>
<trkpt lat="33.8103137" lon="-118.393876">
  <ele>-22.51</ele>
  <time>2026-09-01T01:13:20Z</time>
  <course>275.63</course>
  <speed>0.01</speed>
  <fix>3d</fix>
</trkpt>
<trkpt lat="33.8103139" lon="-118.3938762">
  <ele>-23.39</ele>
  <time>2026-09-01T01:13:20Z</time>
  <course>183.59</course>
  <speed>0.03605551275463989</speed>
  <fix>3d</fix>
</trkpt>
<trkpt lat="33.8103139" lon="-118.3938762">
  <ele>-23.485</ele>
  <time>2026-09-01T01:13:20Z</time>
  <course>183.58</course>
  <speed>0.0282842712474619</speed>
  <fix>3d</fix>
</trkpt>
<trkpt lat="33.8103137" lon="-118.3938761">
  <ele>-22.7</ele>
  <time>2026-09-01T01:13:20Z</time>
  <course>275.63</course>
  <speed>0.01</speed>
  <fix>3d</fix>
</trkpt>
<trkpt lat="33.8103139" lon="-118.3938762">
  <ele>-23.488</ele>
  <time>2026-09-01T01:13:20Z</time>
  <course>183.58</course>
  <speed>0.0282842712474619</speed>
  <fix>3d</fix>
</trkpt>
<trkpt lat="33.8103139" lon="-118.3938762">
  <ele>-23.583</ele>
  <time>2026-09-01T01:13:20Z</time>
  <course>183.58</course>
  <speed>0.0282842712474619</speed>
  <fix>3d</fix>
</trkpt>
<trkpt lat="33.8103137" lon="-118.3938761">
  <ele>-22.7</ele>
  <time>2026-09-01T01:13:20Z</time>
  <course>275.63</course>
  <speed>0.01</speed>
  <fix>3d</fix>
</trkpt>
<trkpt lat="33.8103139" lon="-118.3938762">
  <ele>-23.613</ele>
  <time>2026-09-01T01:13:20Z</time>
  <course>183.58</course>
  <speed>0.0282842712474619</speed>
  <fix>3d</fix>
</trkpt>
<trkpt lat="33.8103139" lon="-118.3938762">
  <ele>-23.681</ele>
  <time>2026-09-01T01:13:20Z</time>
  <course>183.58</course>
  <speed>0.0282842712474619</speed>
  <fix>3d</fix>
</trkpt>
<trkpt lat="33.8103137" lon="-118.3938761">
  <ele>-22.89</ele>
  <time>2026-09-01T01:13:20Z</time>
  <course>275.64</course>
  <speed>0.01</speed>
  <fix>3d</fix>
</trkpt>
<trkpt lat="33.8103139" lon="-118.3938762">
  <ele>-23.712</ele>
  <time>2026-09-01T01:13:20Z</time>
  <course>183.58</course>
  <speed>0.0282842712474619</speed>
  <fix>3d</fix>
</trkpt>
<trkpt lat="33.8103139" lon="-118.3938762">
  <ele>-23.778</ele>
  <time>2026-09-01T01:13:20Z</time>
  <course>183.58</course>
  <speed>0.0282842712474619</speed>
  <fix>3d</fix>
</trkpt>
<trkpt lat="33.8103137" lon="-118.3938761">
  <ele>-22.89</ele>
  <time>2026-09-01T01:13:20Z</time>
  <course>275.64</course>
  <speed>0.01</speed>
  <fix>3d</fix>
</trkpt>
<trkpt lat="33.8103139" lon="-118.3938763">
  <ele>-23.81</ele>
  <time>2026-09-01T01:13:20Z</time>
  <course>183.58</course>
  <speed>0.0282842712474619</speed>
  <fix>3d</fix>
</trkpt>
<trkpt lat="33.8103139" lon="-118.3938763">
  <ele>-23.876</ele>
  <time>2026-09-01T01:13:20Z</time>
  <course>183.58</course>
  <speed>0.0282842712474619</speed>
  <fix>3d</fix>
</trkpt>
<trkpt lat="33.8103137" lon="-118.3938761">
  <ele>-23.08</ele>
  <time>2026-09-01T01:13:20Z</time>
  <course>275.64</course>
  <speed>0.01</speed>
  <fix>3d</fix>
</trkpt>
<trkpt lat="33.8103139" lon="-118.3938763">
  <ele>-23.906</ele>
  <time>2026-09-01T01:13:20Z</time>
  <course>183.58</course>
  <speed>0.0282842712474619</speed>
  <fix>3d</fix>
</trkpt>
<trkpt lat="33.8103139" lon="-118.3938763">
  <ele>-23.975</ele>
  <time>2026-09-01T01:13:20Z</time>
  <course>183.58</course>
  <speed>0.0282842712474619</speed>
  <fix>3d</fix>
</trkpt>
<trkpt lat="33.8103137" lon="-118.3938761">
  <ele>-23.08</ele>
  <time>2026-09-01T01:13:20Z</time>
  <course>275.64</course>
  <speed>0.01</speed>
  <fix>3d</fix>
</trkpt>
<trkpt lat="33.8103139" lon="-118.3938763">
  <ele>-24.004</ele>
  <time>2026-09-01T01:13:20Z</time>
  <course>183.58</course>
  <speed>0.0282842712474619</speed>
  <fix>3d</fix>
</trkpt>
<trkpt lat="33.8103139" lon="-118.3938763">
  <ele>-24.073</ele>
  <time>2026-09-01T01:13:21Z</time>
  <course>183.58</course>
  <speed>0.0282842712474619</speed>
  <fix>3d</fix>
</trkpt>
<trkpt lat="33.8103137" lon="-118.3938761">
  <ele>-23.27</ele>
  <time>2026-09-01T01:13:21Z</time>
  <course>275.64</course>
  <speed>0.01</speed>
  <fix>3d</fix>
</trkpt>
<trkpt lat="33.8103139" lon="-118.3938763">
  <ele>-24.076</ele>
  <time>2026-09-01T01:13:21Z</time>
  <course>183.58</course>
  <speed>0.0282842712474619</speed>
  <fix>3d</fix>
</trkpt>
<trkpt lat="33.8103139" lon="-118.3938763">
  <ele>-24.172</ele>
  <time>2026-09-01T01:13:21Z</time>
  <course>183.57</course>
  <speed>0.0282842712474619</speed>
  <fix>3d</fix>
</trkpt>
<trkpt lat="33.8103137" lon="-118.3938761">
  <ele>-23.27</ele>
  <time>2026-09-01T01:13:21Z</time>
  <course>275.64</course>
  <speed>0.01</speed>
  <fix>3d</fix>
</trkpt>
<trkpt lat="33.8103139" lon="-118.3938763">
  <ele>-24.201</ele>
  <time>2026-09-01T01:13:21Z</time>
  <course>183.57</course>
  <speed>0.0282842712474619</speed>
  <fix>3d</fix>
</trkpt>
<trkpt lat="33.8103139" lon="-118.3938763">
  <ele>-24.27</ele>
  <time>2026-09-01T01:13:21Z</time>
  <course>183.57</course>
  <speed>0.0282842712474619</speed>
  <fix>3d</fix>
</trkpt>
<trkpt lat="33.8103137" lon="-118.3938762">
  <ele>-23.46</ele>
  <time>2026-09-01T01:13:21Z</time>
  <course>275.65</course>
  <speed>0.01</speed>
  <fix>3d</fix>
</trkpt>
<trkpt lat="33.8103139" lon="-118.3938763">
  <ele>-24.304</ele>
  <time>2026-09-01T01:13:21Z</time>
  <course>183.57</course>
  <speed>0.0282842712474619</speed>
  <fix>3d</fix>
</trkpt>
<trkpt lat="33.8103139" lon="-118.3938763">
  <ele>-24.368</ele>
  <time>2026-09-01T01:13:21Z</time>
  <course>183.57</course>
  <speed>0.0282842712474619</speed>
  <fix>3d</fix>
</trkpt>
<trkpt lat="33.8103137" lon="-118.3938762">
  <ele>-23.46</ele>
  <time>2026-09-01T01:13:21Z</time>
  <course>275.65</course>
  <speed>0.01</speed>
  <fix>3d</fix>
</trkpt>
<trkpt lat="33.8103139" lon="-118.3938763">
  <ele>-24.4</ele>
  <time>2026-09-01T01:13:21Z</time>
  <course>183.57</course>
  <speed>0.0282842712474619</speed>
  <fix>3d</fix>
</trkpt>
<trkpt lat="33.8103139" lon="-118.3938763">
  <ele>-24.466</ele>
  <time>2026-09-01T01:13:21Z</time>
  <course>183.57</course>
  <speed>0.0282842712474619</speed>
  <fix>3d</fix>
</trkpt>
<trkpt lat="33.8103137" lon="-118.3938762">
  <ele>-23.65</ele>
  <time>2026-09-01T01:13:21Z</time>
  <course>275.66</course>
  <speed>0.01</speed>
  <fix>3d</fix>
</trkpt>
<trkpt lat="33.8103139" lon="-118.3938763">
  <ele>-24.495</ele>
  <time>2026-09-01T01:13:21Z</time>
  <course>183.57</course>
  <speed>0.0282842712474619</speed>
  <fix>3d</fix>
</trkpt>
<trkpt lat="33.8103139" lon="-118.3938763">
  <ele>-24.563</ele>
  <time>2026-09-01T01:13:21Z</time>
  <course>183.57</course>
  <speed>0.0282842712474619</speed>
  <fix>3d</fix>
</trkpt>
<trkpt lat="33.8103137" lon="-118.3938762">
  <ele>-23.65</ele>
  <time>2026-09-01T01:13:21Z</time>
  <course>275.66</course>
  <speed>0.01</speed>
  <fix>3d</fix>
</trkpt>
<trkpt lat="33.8103139" lon="-118.3938764">
  <ele>-24.592</ele>
  <time>2026-09-01T01:13:21Z</time>
  <course>183.57</course>
  <speed>0.0282842712474619</speed>
  <fix>3d</fix>
</trkpt>
<trkpt lat="33.8103139" lon="-118.3938764">
  <ele>-24.661</ele>
  <time>2026-09-01T01:13:21Z</time>
  <course>183.57</course>
  <speed>0.0282842712474619</speed>
  <fix>3d</fix>
</trkpt>
<trkpt lat="33.8103137" lon="-118.3938762">
  <ele>-23.84</ele>
  <time>2026-09-01T01:13:21Z</time>
  <course>275.66</course>
  <speed>0.01</speed>
  <fix>3d</fix>
</trkpt>
<trkpt lat="33.8103139" lon="-118.3938764">
  <ele>-24.695</ele>
  <time>2026-09-01T01:13:21Z</time>
  <course>183.57</course>
  <speed>0.0282842712474619</speed>
  <fix>3d</fix>
</trkpt>
<trkpt lat="33.8103139" lon="-118.3938764">
  <ele>-24.759</ele>
  <time>2026-09-01T01:13:21Z</time>
  <course>183.57</course>
  <speed>0.0282842712474619</speed>
  <fix>3d</fix>
</trkpt>
<trkpt lat="33.8103137" lon="-118.3938762">
  <ele>-23.84</ele>
  <time>2026-09-01T01:13:21Z</time>
  <course>275.66</course>
  <speed>0.01</speed>
  <fix>3d</fix>
</trkpt>
<trkpt lat="33.8103139" lon="-118.3938764">
  <ele>-24.761</ele>
  <time>2026-09-01T01:13:21Z</time>
  <course>183.57</course>
  <speed>0.0282842712474619</speed>
  <fix>3d</fix>
</trkpt>
<trkpt lat="33.8103139" lon="-118.3938764">
  <ele>-24.857</ele>
  <time>2026-09-01T01:13:21Z</time>
  <course>183.56</course>
  <speed>0.0282842712474619</speed>
  <fix>3d</fix>
</trkpt>
<trkpt lat="33.8103137" lon="-118.3938762">
  <ele>-24.03</ele>
  <time>2026-09-01T01:13:21Z</time>
  <course>275.67</course>
  <speed>0.01</speed>
  <fix>3d</fix>
</trkpt>
<trkpt lat="33.8103139" lon="-118.3938764">
  <ele>-24.886</ele>
  <time>2026-09-01T01:13:21Z</time>
  <course>183.56</course>
  <speed>0.0282842712474619</speed>
  <fix>3d</fix>
</trkpt>
<trkpt lat="33.8103139" lon="-118.3938764">
  <ele>-24.954</ele>
  <time>2026-09-01T01:13:21Z</time>
  <course>183.56</course>
  <speed>0.0282842712474619</speed>
  <fix>3d</fix>
</trkpt>
<trkpt lat="33.8103137" lon="-118.3938762">
  <ele>-24.03</ele>
  <time>2026-09-01T01:13:21Z</time>
  <course>275.67</course>
  <speed>0.01</speed>
  <fix>3d</fix>
</trkpt>
<trkpt lat="33.8103139" lon="-118.3938764">
  <ele>-24.985</ele>
  <time>2026-09-01T01:13:21Z</time>
  <course>183.56</course>
  <speed>0.0282842712474619</speed>
  <fix>3d</fix>
</trkpt>
<trkpt lat="33.8103139" lon="-118.3938764">
  <ele>-25.051</ele>
  <time>2026-09-01T01:13:21Z</time>
  <course>183.56</course>
  <speed>0.0282842712474619</speed>
  <fix>3d</fix>
</trkpt>
<trkpt lat="33.8103137" lon="-118.3938762">
  <ele>-24.22</ele>
  <time>2026-09-01T01:13:21Z</time>
  <course>275.67</course>
  <speed>0.01</speed>
  <fix>3d</fix>
</trkpt>
<trkpt lat="33.8103139" lon="-118.3938764">
  <ele>-25.1</ele>
  <time>2026-09-01T01:13:21Z</time>
  <course>183.56</course>
  <speed>0.0282842712474619</speed>
  <fix>3d</fix>
</trkpt>
<trkpt lat="33.8103139" lon="-118.3938764">
  <ele>-25.148</ele>
  <time>2026-09-01T01:13:21Z</time>
  <course>183.56</course>
  <speed>0.0282842712474619</speed>
  <fix>3d</fix>
</trkpt>
<trkpt lat="33.8103137" lon="-118.3938762">
  <ele>-24.22</ele>
  <time>2026-09-01T01:13:21Z</time>
  <course>275.67</course>
  <speed>0.01</speed>
  <fix>3d</fix>
</trkpt>
<trkpt lat="33.8103139" lon="-118.3938764">
  <ele>-25.242</ele>
  <time>2026-09-01T01:13:21Z</time>
  <course>183.56</course>
  <speed>0.0282842712474619</speed>
  <fix>3d</fix>
</trkpt>
<trkpt lat="33.8103137" lon="-118.3938762">
  <ele>-24.4</ele>
  <time>2026-09-01T01:13:21Z</time>
  <course>275.67</course>
  <speed>0.01</speed>
  <fix>3d</fix>
</trkpt>
<trkpt lat="33.8103139" lon="-118.3938764">
  <ele>-25.325</ele>
  <time>2026-09-01T01:13:21Z</time>
  <course>183.56</course>
  <speed>0.0282842712474619</speed>
  <fix>3d</fix>
</trkpt>
<trkpt lat="33.8103137" lon="-118.3938762">
  <ele>-24.4</ele>
  <time>2026-09-01T01:13:21Z</time>
  <course>275.67</course>
  <speed>0.01</speed>
  <fix>3d</fix>
</trkpt>
<trkpt lat="33.8103139" lon="-118.3938764">
  <ele>-25.392</ele>
  <time>2026-09-01T01:13:21Z</time>
  <course>183.56</course>
  <speed>0.0282842712474619</speed>
  <fix>3d</fix>
</trkpt>
<trkpt lat="33.8103137" lon="-118.3938763">
  <ele>-24.58</ele>
  <time>2026-09-01T01:13:21Z</time>
  <course>275.8</course>
  <speed>0.01</speed>
  <fix>3d</fix>
</trkpt>
<trkpt lat="33.8103139" lon="-118.3938764">
  <ele>-25.442</ele>
  <time>2026-09-01T01:13:21Z</time>
  <course>183.55</course>
  <speed>0.0282842712474619</speed>
  <fix>3d</fix>
</trkpt>
<trkpt lat="33.8103137" lon="-118.3938763">
  <ele>-24.58</ele>
  <time>2026-09-01T01:13:21Z</time>
  <course>275.8</course>
  <speed>0.01</speed>
  <fix>3d</fix>
</trkpt>
<trkpt lat="33.8103139" lon="-118.3938765">
  <ele>-25.474</ele>
  <time>2026-09-01T01:13:21Z</time>
  <course>183.55</course>
  <speed>0.0282842712474619</speed>
  <fix>3d</fix>
</trkpt>
<trkpt lat="33.8103137" lon="-118.3938764">
  <ele>-24.71</ele>
  <time>2026-09-01T01:13:21Z</time>
  <course>276.12</course>
  <speed>0.01</speed>
  <fix>3d</fix>
</trkpt>
<trkpt lat="33.8103139" lon="-118.3938765">
  <ele>-25.487</ele>
  <time>2026-09-01T01:13:21Z</time>
  <course>183.55</course>
  <speed>0.0282842712474619</speed>
  <fix>3d</fix>
</trkpt>
<trkpt lat="33.8103137" lon="-118.3938764">
  <ele>-24.71</ele>
  <time>2026-09-01T01:13:21Z</time>
  <course>276.12</course>
  <speed>0.01</speed>
  <fix>3d</fix>
</trkpt>
<trkpt lat="33.8103139" lon="-118.3938765">
  <ele>-25.482</ele>
  <time>2026-09-01T01:13:21Z</time>
  <course>183.55</course>
  <speed>0.0282842712474619</speed>
  <fix>3d</fix>
</trkpt>
<trkpt lat="33.8103137" lon="-118.3938764">
  <ele>-24.79</ele>
  <time>2026-09-01T01:13:21Z</time>
  <course>276.56</course>
  <speed>0.0</speed>
  <fix>3d</fix>
</trkpt>
<trkpt lat="33.8103139" lon="-118.3938765">
  <ele>-25.458</ele>
  <time>2026-09-01T01:13:21Z</time>
  <course>183.55</course>
  <speed>0.0282842712474619</speed>
  <fix>3d</fix>
</trkpt>
<trkpt lat="33.8103137" lon="-118.3938764">
  <ele>-24.79</ele>
  <time>2026-09-01T01:13:21Z</time>
  <course>276.56</course>
  <speed>0.0</speed>
  <fix>3d</fix>
</trkpt>
<trkpt lat="33.8103139" lon="-118.3938765">
  <ele>-25.422</ele>
  <time>2026-09-01T01:13:21Z</time>
  <course>183.55</course>
  <speed>0.0282842712474619</speed>
  <fix>3d</fix>
</trkpt>
<trkpt lat="33.8103137" lon="-118.3938764">
  <ele>-24.79</ele>
  <time>2026-09-01T01:13:21Z</time>
  <course>277.11</course>
  <speed>0.0</speed>
  <fix>3d</fix>
</trkpt>
<trkpt lat="33.8103139" lon="-118.3938765">
  <ele>-25.375</ele>
  <time>2026-09-01T01:13:21Z</time>
  <course>183.54</course>
  <speed>0.0282842712474619</speed>
  <fix>3d</fix>
</trkpt>
<trkpt lat="33.8103137" lon="-118.3938764">
  <ele>-24.79</ele>
  <time>2026-09-01T01:13:21Z</time>
  <course>277.11</course>
  <speed>0.0</speed>
  <fix>3d</fix>
</trkpt>
<trkpt lat="33.8103139" lon="-118.3938765">
  <ele>-25.32</ele>
  <time>2026-09-01T01:13:21Z</time>
  <course>183.54</course>
  <speed>0.0282842712474619</speed>
  <fix>3d</fix>
</trkpt>
<trkpt lat="33.8103137" lon="-118.3938764">
  <ele>-24.74</ele>
  <time>2026-09-01T01:13:21Z</time>
  <course>277.71</course>
  <speed>0.0</speed>
  <fix>3d</fix>
</trkpt>
<trkpt lat="33.8103139" lon="-118.3938765">
  <ele>-25.26</ele>
  <time>2026-09-01T01:13:21Z</time>
  <course>183.54</course>
  <speed>0.0282842712474619</speed>
  <fix>3d</fix>
</trkpt>
<trkpt lat="33.8103137" lon="-118.3938764">
  <ele>-24.74</ele>
  <time>2026-09-01T01:13:21Z</time>
  <course>277.71</course>
  <speed>0.0</speed>
  <fix>3d</fix>
</trkpt>
<trkpt lat="33.8103139" lon="-118.3938765">
  <ele>-25.197</ele>
  <time>2026-09-01T01:13:21Z</time>
  <course>183.54</course>
  <speed>0.0282842712474619</speed>
  <fix>3d</fix>
</trkpt>
<trkpt lat="33.8103137" lon="-118.3938764">
  <ele>-24.66</ele>
  <time>2026-09-01T01:13:21Z</time>
  <course>278.16</course>
  <speed>0.0</speed>
  <fix>3d</fix>
</trkpt>
<trkpt lat="33.8103139" lon="-118.3938766">
  <ele>-25.131</ele>
  <time>2026-09-01T01:13:21Z</time>
  <course>183.54</course>
  <speed>0.0282842712474619</speed>
  <fix>3d</fix>
</trkpt>
<trkpt lat="33.8103137" lon="-118.3938764">
  <ele>-24.66</ele>
  <time>2026-09-01T01:13:21Z</time>
  <course>278.16</course>
  <speed>0.0</speed>
  <fix>3d</fix>
</trkpt>
<trkpt lat="33.8103139" lon="-118.3938766">
  <ele>-25.065</ele>
  <time>2026-09-01T01:13:21Z</time>
  <course>183.54</course>
  <speed>0.0282842712474619</speed>
  <fix>3d</fix>
</trkpt>
<trkpt lat="33.8103137" lon="-118.3938764">
  <ele>-24.55</ele>
  <time>2026-09-01T01:13:21Z</time>
  <course>278.4</course>
  <speed>0.0</speed>
  <fix>3d</fix>
</trkpt>
<trkpt lat="33.8103139" lon="-118.3938766">
  <ele>-25.0</ele>
  <time>2026-09-01T01:13:21Z</time>
  <course>183.54</course>
  <speed>0.0282842712474619</speed>
  <fix>3d</fix>
</trkpt>
<trkpt lat="33.8103137" lon="-118.3938764">
  <ele>-24.55</ele>
  <time>2026-09-01T01:13:21Z</time>
  <course>278.4</course>
  <speed>0.0</speed>
  <fix>3d</fix>
</trkpt>
<trkpt lat="33.8103139" lon="-118.3938766">
  <ele>-24.937</ele>
  <time>2026-09-01T01:13:21Z</time>
  <course>183.54</course>
  <speed>0.0282842712474619</speed>
  <fix>3d</fix>
</trkpt>
<trkpt lat="33.8103137" lon="-118.3938765">
  <ele>-24.44</ele>
  <time>2026-09-01T01:13:21Z</time>
  <course>278.45</course>
  <speed>0.0</speed>
  <fix>3d</fix>
</trkpt>
<trkpt lat="33.8103139" lon="-118.3938766">
  <ele>-24.878</ele>
  <time>2026-09-01T01:13:21Z</time>
  <course>183.54</course>
  <speed>0.0282842712474619</speed>
  <fix>3d</fix>
</trkpt>
<trkpt lat="33.8103137" lon="-118.3938765">
  <ele>-24.44</ele>
  <time>2026-09-01T01:13:21Z</time>
  <course>278.45</course>
  <speed>0.0</speed>
  <fix>3d</fix>
</trkpt>
<trkpt lat="33.8103139" lon="-118.3938766">
  <ele>-24.822</ele>
  <time>2026-09-01T01:13:21Z</time>
  <course>183.54</course>
  <speed>0.0282842712474619</speed>
  <fix>3d</fix>
</trkpt>
<trkpt lat="33.8103137" lon="-118.3938765">
  <ele>-24.34</ele>
  <time>2026-09-01T01:13:21Z</time>
  <course>278.33</course>
  <speed>0.0</speed>
  <fix>3d</fix>
</trkpt>
<trkpt lat="33.8103139" lon="-118.3938766">
  <ele>-24.773</ele>
  <time>2026-09-01T01:13:21Z</time>
  <course>183.53</course>
  <speed>0.0282842712474619</speed>
  <fix>3d</fix>
</trkpt>
<trkpt lat="33.8103137" lon="-118.3938765">
  <ele>-24.34</ele>
  <time>2026-09-01T01:13:21Z</time>
  <course>278.33</course>
  <speed>0.0</speed>
  <fix>3d</fix>
</trkpt>
<trkpt lat="33.8103139" lon="-118.3938766">
  <ele>-24.729</ele>
  <time>2026-09-01T01:13:21Z</time>
  <course>183.53</course>
  <speed>0.0282842712474619</speed>
  <fix>3d</fix>
</trkpt>
<trkpt lat="33.8103137" lon="-118.3938765">
  <ele>-24.24</ele>
  <time>2026-09-01T01:13:21Z</time>
  <course>278.09</course>
  <speed>0.0</speed>
  <fix>3d</fix>
</trkpt>
<trkpt lat="33.8103139" lon="-118.3938766">
  <ele>-24.693</ele>
  <time>2026-09-01T01:13:21Z</time>
  <course>183.53</course>
  <speed>0.0282842712474619</speed>
  <fix>3d</fix>
</trkpt>
<trkpt lat="33.8103137" lon="-118.3938765">
  <ele>-24.24</ele>
  <time>2026-09-01T01:13:21Z</time>
  <course>278.09</course>
  <speed>0.0</speed>
  <fix>3d</fix>
</trkpt>
<trkpt lat="33.8103139" lon="-118.3938766">
  <ele>-24.663</ele>
  <time>2026-09-01T01:13:21Z</time>
  <course>183.53</course>
  <speed>0.0282842712474619</speed>
  <fix>3d</fix>
</trkpt>
<trkpt lat="33.8103137" lon="-118.3938765">
  <ele>-24.16</ele>
  <time>2026-09-01T01:13:21Z</time>
  <course>277.8</course>
  <speed>0.0</speed>
  <fix>3d</fix>
</trkpt>
<trkpt lat="33.8103139" lon="-118.3938766">
  <ele>-24.64</ele>
  <time>2026-09-01T01:13:21Z</time>
  <course>183.53</course>
  <speed>0.0282842712474619</speed>
  <fix>3d</fix>
</trkpt>
<trkpt lat="33.8103137" lon="-118.3938765">
  <ele>-24.16</ele>
  <time>2026-09-01T01:13:21Z</time>
  <course>277.8</course>
  <speed>0.0</speed>
  <fix>3d</fix>
</trkpt>
<trkpt lat="33.8103139" lon="-118.3938766">
  <ele>-24.623</ele>
  <time>2026-09-01T01:13:21Z</time>
  <course>183.53</course>
  <speed>0.0282842712474619</speed>
  <fix>3d</fix>
</trkpt>
<trkpt lat="33.8103137" lon="-118.3938765">
  <ele>-24.1</ele>
  <time>2026-09-01T01:13:21Z</time>
  <course>277.58</course>
  <speed>0.0</speed>
  <fix>3d</fix>
</trkpt>
<trkpt lat="33.8103139" lon="-118.3938766">
  <ele>-24.615</ele>
  <time>2026-09-01T01:13:21Z</time>
  <course>183.52</course>
  <speed>0.0282842712474619</speed>
  <fix>3d</fix>
</trkpt>
<trkpt lat="33.8103137" lon="-118.3938765">
  <ele>-24.1</ele>
  <time>2026-09-01T01:13:21Z</time>
  <course>277.58</course>
  <speed>0.0</speed>
  <fix>3d</fix>
</trkpt>
<trkpt lat="33.8103139" lon="-118.3938767">
  <ele>-24.613</ele>
  <time>2026-09-01T01:13:21Z</time>
  <course>183.52</course>
  <speed>0.0282842712474619</speed>
  <fix>3d</fix>
</trkpt>
<trkpt lat="33.8103137" lon="-118.3938765">
  <ele>-24.07</ele>
  <time>2026-09-01T01:13:21Z</time>
  <course>277.41</course>
  <speed>0.0</speed>
  <fix>3d</fix>
</trkpt>
<trkpt lat="33.8103139" lon="-118.3938767">
  <ele>-24.617</ele>
  <time>2026-09-01T01:13:21Z</time>
  <course>183.52</course>
  <speed>0.0282842712474619</speed>
  <fix>3d</fix>
</trkpt>
<trkpt lat="33.8103137" lon="-118.3938765">
  <ele>-24.07</ele>
  <time>2026-09-01T01:13:21Z</time>
  <course>277.41</course>
  <speed>0.0</speed>
  <fix>3d</fix>
</trkpt>
<trkpt lat="33.8103138" lon="-118.3938767">
  <ele>-24.628</ele>
  <time>2026-09-01T01:13:21Z</time>
  <course>183.52</course>
  <speed>0.0282842712474619</speed>
  <fix>3d</fix>
</trkpt>
<trkpt lat="33.8103137" lon="-118.3938765">
  <ele>-24.06</ele>
  <time>2026-09-01T01:13:21Z</time>
  <course>277.21</course>
  <speed>0.0</speed>
  <fix>3d</fix>
</trkpt>
<trkpt lat="33.8103138" lon="-118.3938767">
  <ele>-24.642</ele>
  <time>2026-09-01T01:13:21Z</time>
  <course>183.52</course>
  <speed>0.0282842712474619</speed>
  <fix>3d</fix>
</trkpt>
<trkpt lat="33.8103137" lon="-118.3938765">
  <ele>-24.06</ele>
  <time>2026-09-01T01:13:21Z</time>
  <course>277.21</course>
  <speed>0.0</speed>
  <fix>3d</fix>
</trkpt>
<trkpt lat="33.8103138" lon="-118.3938767">
  <ele>-24.66</ele>
  <time>2026-09-01T01:13:21Z</time>
  <course>183.51</course>
  <speed>0.0282842712474619</speed>
  <fix>3d</fix>
</trkpt>
<trkpt lat="33.8103137" lon="-118.3938766">
  <ele>-24.07</ele>
  <time>2026-09-01T01:13:21Z</time>
  <course>277.02</course>
  <speed>0.0</speed>
  <fix>3d</fix>
</trkpt>
<trkpt lat="33.8103138" lon="-118.3938767">
  <ele>-24.68</ele>
  <time>2026-09-01T01:13:21Z</time>
  <course>183.51</course>
  <speed>0.0282842712474619</speed>
  <fix>3d</fix>
</trkpt>
<trkpt lat="33.8103137" lon="-118.3938766">
  <ele>-24.07</ele>
  <time>2026-09-01T01:13:21Z</time>
  <course>277.02</course>
  <speed>0.0</speed>
  <fix>3d</fix>
</trkpt>
<trkpt lat="33.8103138" lon="-118.3938767">
  <ele>-24.701</ele>
  <time>2026-09-01T01:13:21Z</time>
  <course>183.51</course>
  <speed>0.022360679774997897</speed>
  <fix>3d</fix>
</trkpt>
<trkpt lat="33.8103137" lon="-118.3938766">
  <ele>-24.09</ele>
  <time>2026-09-01T01:13:21Z</time>
  <course>276.92</course>
  <speed>0.0</speed>
  <fix>3d</fix>
</trkpt>
<trkpt lat="33.8103138" lon="-118.3938767">
  <ele>-24.724</ele>
  <time>2026-09-01T01:13:21Z</time>
  <course>183.51</course>
  <speed>0.022360679774997897</speed>
  <fix>3d</fix>
</trkpt>
<trkpt lat="33.8103137" lon="-118.3938766">
  <ele>-24.09</ele>
  <time>2026-09-01T01:13:21Z</time>
  <course>276.92</course>
  <speed>0.0</speed>
  <fix>3d</fix>
</trkpt>
<trkpt lat="33.8103138" lon="-118.3938767">
  <ele>-24.746</ele>
  <time>2026-09-01T01:13:21Z</time>
  <course>183.51</course>
  <speed>0.022360679774997897</speed>
  <fix>3d</fix>
</trkpt>
<trkpt lat="33.8103137" lon="-118.3938766">
  <ele>-24.13</ele>
  <time>2026-09-01T01:13:21Z</time>
  <course>276.88</course>
  <speed>0.0</speed>
  <fix>3d</fix>
</trkpt>
<trkpt lat="33.8103138" lon="-118.3938767">
  <ele>-24.768</ele>
  <time>2026-09-01T01:13:21Z</time>
  <course>183.5</course>
  <speed>0.022360679774997897</speed>
  <fix>3d</fix>
</trkpt>
<trkpt lat="33.8103137" lon="-118.3938766">
  <ele>-24.13</ele>
  <time>2026-09-01T01:13:21Z</time>
  <course>276.88</course>
  <speed>0.0</speed>
  <fix>3d</fix>
</trkpt>
<trkpt lat="33.8103138" lon="-118.3938767">
  <ele>-24.789</ele>
  <time>2026-09-01T01:13:21Z</time>
  <course>183.5</course>
  <speed>0.022360679774997897</speed>
  <fix>3d</fix>
</trkpt>
<trkpt lat="33.8103137" lon="-118.3938766">
  <ele>-24.16</ele>
  <time>2026-09-01T01:13:21Z</time>
  <course>276.87</course>
  <speed>0.0</speed>
  <fix>3d</fix>
</trkpt>
<trkpt lat="33.8103138" lon="-118.3938767">
  <ele>-24.81</ele>
  <time>2026-09-01T01:13:21Z</time>
  <course>183.5</course>
  <speed>0.0282842712474619</speed>
  <fix>3d</fix>
</trkpt>
<trkpt lat="33.8103137" lon="-118.3938766">
  <ele>-24.16</ele>
  <time>2026-09-01T01:13:21Z</time>
  <course>276.87</course>
  <speed>0.0</speed>
  <fix>3d</fix>
</trkpt>
<trkpt lat="33.8103138" lon="-118.3938767">
  <ele>-24.83</ele>
  <time>2026-09-01T01:13:21Z</time>
  <course>183.5</course>
  <speed>0.0282842712474619</speed>
  <fix>3d</fix>
</trkpt>
<trkpt lat="33.8103137" lon="-118.3938766">
  <ele>-24.2</ele>
  <time>2026-09-01T01:13:21Z</time>
  <course>276.9</course>
  <speed>0.0</speed>
  <fix>3d</fix>
</trkpt>
<trkpt lat="33.8103138" lon="-118.3938767">
  <ele>-24.849</ele>
  <time>2026-09-01T01:13:21Z</time>
  <course>183.49</course>
  <speed>0.0282842712474619</speed>
  <fix>3d</fix>
</trkpt>
<trkpt lat="33.8103137" lon="-118.3938766">
  <ele>-24.2</ele>
  <time>2026-09-01T01:13:21Z</time>
  <course>276.9</course>
  <speed>0.0</speed>
  <fix>3d</fix>
</trkpt>
<trkpt lat="33.8103138" lon="-118.3938768">
  <ele>-24.866</ele>
  <time>2026-09-01T01:13:21Z</time>
  <course>183.49</course>
  <speed>0.0282842712474619</speed>
  <fix>3d</fix>
</trkpt>
<trkpt lat="33.8103137" lon="-118.3938766">
  <ele>-24.23</ele>
  <time>2026-09-01T01:13:21Z</time>
  <course>276.94</course>
  <speed>0.0</speed>
  <fix>3d</fix>
</trkpt>
<trkpt lat="33.8103138" lon="-118.3938768">
  <ele>-24.881</ele>
  <time>2026-09-01T01:13:21Z</time>
  <course>183.49</course>
  <speed>0.0282842712474619</speed>
  <fix>3d</fix>
</trkpt>
<trkpt lat="33.8103137" lon="-118.3938766">
  <ele>-24.23</ele>
  <time>2026-09-01T01:13:21Z</time>
  <course>276.94</course>
  <speed>0.0</speed>
  <fix>3d</fix>
</trkpt>
<trkpt lat="33.8103138" lon="-118.3938768">
  <ele>-24.895</ele>
  <time>2026-09-01T01:13:21Z</time>
  <course>183.49</course>
  <speed>0.0282842712474619</speed>
  <fix>3d</fix>
</trkpt>
<trkpt lat="33.8103137" lon="-118.3938767">
  <ele>-24.26</ele>
  <time>2026-09-01T01:13:21Z</time>
  <course>276.99</course>
  <speed>0.0</speed>
  <fix>3d</fix>
</trkpt>
<trkpt lat="33.8103138" lon="-118.3938768">
  <ele>-24.905</ele>
  <time>2026-09-01T01:13:21Z</time>
  <course>183.48</course>
  <speed>0.0282842712474619</speed>
  <fix>3d</fix>
</trkpt>
<trkpt lat="33.8103137" lon="-118.3938767">
  <ele>-24.26</ele>
  <time>2026-09-01T01:13:21Z</time>
  <course>276.99</course>
  <speed>0.0</speed>
  <fix>3d</fix>
</trkpt>
<trkpt lat="33.8103138" lon="-118.3938768">
  <ele>-24.914</ele>
  <time>2026-09-01T01:13:21Z</time>
  <course>183.48</course>
  <speed>0.0282842712474619</speed>
  <fix>3d</fix>
</trkpt>
<trkpt lat="33.8103137" lon="-118.3938767">
  <ele>-24.28</ele>
  <time>2026-09-01T01:13:21Z</time>
  <course>277.04</course>
  <speed>0.0</speed>
  <fix>3d</fix>
</trkpt>
<trkpt lat="33.8103138" lon="-118.3938768">
  <ele>-24.92</ele>
  <time>2026-09-01T01:13:21Z</time>
  <course>183.48</course>
  <speed>0.0282842712474619</speed>
  <fix>3d</fix>
</trkpt>
<trkpt lat="33.8103137" lon="-118.3938767">
  <ele>-24.28</ele>
  <time>2026-09-01T01:13:21Z</time>
  <course>277.04</course>
  <speed>0.0</speed>
  <fix>3d</fix>
</trkpt>
<trkpt lat="33.8103138" lon="-118.3938768">
  <ele>-24.923</ele>
  <time>2026-09-01T01:13:21Z</time>
  <course>183.48</course>
  <speed>0.0282842712474619</speed>
  <fix>3d</fix>
</trkpt>
<trkpt lat="33.8103137" lon="-118.3938767">
  <ele>-24.29</ele>
  <time>2026-09-01T01:13:21Z</time>
  <course>277.09</course>
  <speed>0.0</speed>
  <fix>3d</fix>
</trkpt>
<trkpt lat="33.8103138" lon="-118.3938768">
  <ele>-24.925</ele>
  <time>2026-09-01T01:13:21Z</time>
  <course>183.47</course>
  <speed>0.0282842712474619</speed>
  <fix>3d</fix>
</trkpt>
<trkpt lat="33.8103137" lon="-118.3938767">
  <ele>-24.29</ele>
  <time>2026-09-01T01:13:21Z</time>
  <course>277.09</course>
  <speed>0.0</speed>
  <fix>3d</fix>
</trkpt>
<trkpt lat="33.8103138" lon="-118.3938768">
  <ele>-24.924</ele>
  <time>2026-09-01T01:13:21Z</time>
  <course>183.47</course>
  <speed>0.0282842712474619</speed>
  <fix>3d</fix>
</trkpt>
<trkpt lat="33.8103137" lon="-118.3938767">
  <ele>-24.3</ele>
  <time>2026-09-01T01:13:21Z</time>
  <course>277.17</course>
  <speed>0.0</speed>
  <fix>3d</fix>
</trkpt>
<trkpt lat="33.8103138" lon="-118.3938768">
  <ele>-24.922</ele>
  <time>2026-09-01T01:13:21Z</time>
  <course>183.47</course>
  <speed>0.0282842712474619</speed>
  <fix>3d</fix>
</trkpt>
<trkpt lat="33.8103137" lon="-118.3938767">
  <ele>-24.3</ele>
  <time>2026-09-01T01:13:21Z</time>
  <course>277.17</course>
  <speed>0.0</speed>
  <fix>3d</fix>
</trkpt>
<trkpt lat="33.8103138" lon="-118.3938768">
  <ele>-24.918</ele>
  <time>2026-09-01T01:13:21Z</time>
  <course>183.47</course>
  <speed>0.0282842712474619</speed>
  <fix>3d</fix>
</trkpt>
<trkpt lat="33.8103137" lon="-118.3938767">
  <ele>-24.3</ele>
  <time>2026-09-01T01:13:21Z</time>
  <course>277.27</course>
  <speed>0.0</speed>
  <fix>3d</fix>
</trkpt>
<trkpt lat="33.8103138" lon="-118.3938768">
  <ele>-24.912</ele>
  <time>2026-09-01T01:13:21Z</time>
  <course>183.46</course>
  <speed>0.0282842712474619</speed>
  <fix>3d</fix>
</trkpt>
<trkpt lat="33.8103137" lon="-118.3938767">
  <ele>-24.3</ele>
  <time>2026-09-01T01:13:21Z</time>
  <course>277.27</course>
  <speed>0.0</speed>
  <fix>3d</fix>
</trkpt>
<trkpt lat="33.8103138" lon="-118.3938768">
  <ele>-24.905</ele>
  <time>2026-09-01T01:13:21Z</time>
  <course>183.46</course>
  <speed>0.0282842712474619</speed>
  <fix>3d</fix>
</trkpt>
<trkpt lat="33.8103137" lon="-118.3938767">
  <ele>-24.29</ele>
  <time>2026-09-01T01:13:21Z</time>
  <course>277.34</course>
  <speed>0.0</speed>
  <fix>3d</fix>
</trkpt>
<trkpt lat="33.8103138" lon="-118.3938769">
  <ele>-24.897</ele>
  <time>2026-09-01T01:13:21Z</time>
  <course>183.46</course>
  <speed>0.0282842712474619</speed>
  <fix>3d</fix>
</trkpt>
<trkpt lat="33.8103137" lon="-118.3938767">
  <ele>-24.29</ele>
  <time>2026-09-01T01:13:21Z</time>
  <course>277.34</course>
  <speed>0.0</speed>
  <fix>3d</fix>
</trkpt>
<trkpt lat="33.8103138" lon="-118.3938769">
  <ele>-24.89</ele>
  <time>2026-09-01T01:13:21Z</time>
  <course>183.45</course>
  <speed>0.0282842712474619</speed>
  <fix>3d</fix>
</trkpt>
<trkpt lat="33.8103137" lon="-118.3938768">
  <ele>-24.28</ele>
  <time>2026-09-01T01:13:21Z</time>
  <course>277.37</course>
  <speed>0.0</speed>
  <fix>3d</fix>
</trkpt>
<trkpt lat="33.8103138" lon="-118.3938769">
  <ele>-24.882</ele>
  <time>2026-09-01T01:13:21Z</time>
  <course>183.45</course>
  <speed>0.0282842712474619</speed>
  <fix>3d</fix>
</trkpt>
<trkpt lat="33.8103137" lon="-118.3938768">
  <ele>-24.28</ele>
  <time>2026-09-01T01:13:21Z</time>
  <course>277.37</course>
  <speed>0.0</speed>
  <fix>3d</fix>
</trkpt>
<trkpt lat="33.8103138" lon="-118.3938769">
  <ele>-24.873</ele>
  <time>2026-09-01T01:13:21Z</time>
  <course>183.45</course>
  <speed>0.0282842712474619</speed>
  <fix>3d</fix>
</trkpt>
<trkpt lat="33.8103137" lon="-118.3938768">
  <ele>-24.27</ele>
  <time>2026-09-01T01:13:21Z</time>
  <course>277.4</course>
  <speed>0.0</speed>
  <fix>3d</fix>
</trkpt>
<trkpt lat="33.8103138" lon="-118.3938769">
  <ele>-24.864</ele>
  <time>2026-09-01T01:13:21Z</time>
  <course>183.45</course>
  <speed>0.0282842712474619</speed>
  <fix>3d</fix>
</trkpt>
<trkpt lat="33.8103137" lon="-118.3938768">
  <ele>-24.27</ele>
  <time>2026-09-01T01:13:21Z</time>
  <course>277.4</course>
  <speed>0.0</speed>
  <fix>3d</fix>
</trkpt>
<trkpt lat="33.8103138" lon="-118.3938769">
  <ele>-24.855</ele>
  <time>2026-09-01T01:13:21Z</time>
  <course>183.44</course>
  <speed>0.0282842712474619</speed>
  <fix>3d</fix>
</trkpt>
<trkpt lat="33.8103137" lon="-118.3938768">
  <ele>-24.26</ele>
  <time>2026-09-01T01:13:21Z</time>
  <course>277.43</course>
  <speed>0.0</speed>
  <fix>3d</fix>
</trkpt>
<trkpt lat="33.8103138" lon="-118.3938769">
  <ele>-24.848</ele>
  <time>2026-09-01T01:13:21Z</time>
  <course>183.44</course>
  <speed>0.0282842712474619</speed>
  <fix>3d</fix>
</trkpt>
<trkpt lat="33.8103137" lon="-118.3938768">
  <ele>-24.26</ele>
  <time>2026-09-01T01:13:21Z</time>
  <course>277.43</course>
  <speed>0.0</speed>
  <fix>3d</fix>
</trkpt>
<trkpt lat="33.8103138" lon="-118.3938769">
  <ele>-24.841</ele>
  <time>2026-09-01T01:13:21Z</time>
  <course>183.44</course>
  <speed>0.0282842712474619</speed>
  <fix>3d</fix>
</trkpt>
<trkpt lat="33.8103137" lon="-118.3938768">
  <ele>-24.25</ele>
  <time>2026-09-01T01:13:21Z</time>
  <course>277.47</course>
  <speed>0.0</speed>
  <fix>3d</fix>
</trkpt>
<trkpt lat="33.8103138" lon="-118.3938769">
  <ele>-24.836</ele>
  <time>2026-09-01T01:13:21Z</time>
  <course>183.43</course>
  <speed>0.0282842712474619</speed>
  <fix>3d</fix>
</trkpt>
<trkpt lat="33.8103137" lon="-118.3938768">
  <ele>-24.25</ele>
  <time>2026-09-01T01:13:21Z</time>
  <course>277.47</course>
  <speed>0.0</speed>
  <fix>3d</fix>
</trkpt>
<trkpt lat="33.8103138" lon="-118.3938769">
  <ele>-24.833</ele>
  <time>2026-09-01T01:13:21Z</time>
  <course>183.43</course>
  <speed>0.0282842712474619</speed>
  <fix>3d</fix>
</trkpt>
<trkpt lat="33.8103137" lon="-118.3938768">
  <ele>-24.24</ele>
  <time>2026-09-01T01:13:21Z</time>
  <course>277.47</course>
  <speed>0.0</speed>
  <fix>3d</fix>
</trkpt>
<trkpt lat="33.8103138" lon="-118.3938769">
  <ele>-24.83</ele>
  <time>2026-09-01T01:13:21Z</time>
  <course>183.43</course>
  <speed>0.0282842712474619</speed>
  <fix>3d</fix>
</trkpt>
<trkpt lat="33.8103137" lon="-118.3938768">
  <ele>-24.24</ele>
  <time>2026-09-01T01:13:21Z</time>
  <course>277.47</course>
  <speed>0.0</speed>
  <fix>3d</fix>
</trkpt>
<trkpt lat="33.8103138" lon="-118.3938769">
  <ele>-24.829</ele>
  <time>2026-09-01T01:13:21Z</time>
  <course>183.43</course>
  <speed>0.0282842712474619</speed>
  <fix>3d</fix>
</trkpt>
<trkpt lat="33.8103137" lon="-118.3938768">
  <ele>-24.23</ele>
  <time>2026-09-01T01:13:21Z</time>
  <course>277.4</course>
  <speed>0.0</speed>
  <fix>3d</fix>
</trkpt>
<trkpt lat="33.8103138" lon="-118.3938769">
  <ele>-24.828</ele>
  <time>2026-09-01T01:13:21Z</time>
  <course>183.42</course>
  <speed>0.0282842712474619</speed>
  <fix>3d</fix>
</trkpt>
<trkpt lat="33.8103137" lon="-118.3938768">
  <ele>-24.23</ele>
  <time>2026-09-01T01:13:21Z</time>
  <course>277.4</course>
  <speed>0.0</speed>
  <fix>3d</fix>
</trkpt>
<trkpt lat="33.8103138" lon="-118.393877">
  <ele>-24.828</ele>
  <time>2026-09-01T01:13:21Z</time>
  <course>183.42</course>
  <speed>0.0282842712474619</speed>
  <fix>3d</fix>
</trkpt>
<trkpt lat="33.8103137" lon="-118.3938769">
  <ele>-24.23</ele>
  <time>2026-09-01T01:13:21Z</time>
  <course>277.32</course>
  <speed>0.0</speed>
  <fix>3d</fix>
</trkpt>
<trkpt lat="33.8103138" lon="-118.393877">
  <ele>-24.829</ele>
  <time>2026-09-01T01:13:21Z</time>
  <course>183.42</course>
  <speed>0.0282842712474619</speed>
  <fix>3d</fix>
</trkpt>
<trkpt lat="33.8103137" lon="-118.3938769">
  <ele>-24.23</ele>
  <time>2026-09-01T01:13:21Z</time>
  <course>277.32</course>
  <speed>0.0</speed>
  <fix>3d</fix>
</trkpt>
<trkpt lat="33.8103138" lon="-118.393877">
  <ele>-24.83</ele>
  <time>2026-09-01T01:13:21Z</time>
  <course>183.41</course>
  <speed>0.0282842712474619</speed>
  <fix>3d</fix>
</trkpt>
<trkpt lat="33.8103137" lon="-118.3938769">
  <ele>-24.23</ele>
  <time>2026-09-01T01:13:21Z</time>
  <course>277.3</course>
  <speed>0.0</speed>
  <fix>3d</fix>
</trkpt>
<trkpt lat="33.8103138" lon="-118.393877">
  <ele>-24.831</ele>
  <time>2026-09-01T01:13:21Z</time>
  <course>183.41</course>
  <speed>0.0282842712474619</speed>
  <fix>3d</fix>
</trkpt>
<trkpt lat="33.8103137" lon="-118.3938769">
  <ele>-24.23</ele>
  <time>2026-09-01T01:13:21Z</time>
  <course>277.3</course>
  <speed>0.0</speed>
  <fix>3d</fix>
</trkpt>
<trkpt lat="33.8103138" lon="-118.393877">
  <ele>-24.833</ele>
  <time>2026-09-01T01:13:21Z</time>
  <course>183.41</course>
  <speed>0.0282842712474619</speed>
  <fix>3d</fix>
</trkpt>
<trkpt lat="33.8103137" lon="-118.3938769">
  <ele>-24.23</ele>
  <time>2026-09-01T01:13:21Z</time>
  <course>277.3</course>
  <speed>0.0</speed>
  <fix>3d</fix>
</trkpt>
<trkpt lat="33.8103138" lon="-118.393877">
  <ele>-24.835</ele>
  <time>2026-09-01T01:13:21Z</time>
  <course>183.4</course>
  <speed>0.0282842712474619</speed>
  <fix>3d</fix>
</trkpt>
<trkpt lat="33.8103137" lon="-118.3938769">
  <ele>-24.23</ele>
  <time>2026-09-01T01:13:21Z</time>
  <course>277.3</course>
  <speed>0.0</speed>
  <fix>3d</fix>
</trkpt>
<trkpt lat="33.8103138" lon="-118.393877">
  <ele>-24.837</ele>
  <time>2026-09-01T01:13:21Z</time>
  <course>183.4</course>
  <speed>0.0282842712474619</speed>
  <fix>3d</fix>
</trkpt>
<trkpt lat="33.8103137" lon="-118.3938769">
  <ele>-24.23</ele>
  <time>2026-09-01T01:13:21Z</time>
  <course>277.3</course>
  <speed>0.0</speed>
  <fix>3d</fix>
</trkpt>
<trkpt lat="33.8103138" lon="-118.393877">
  <ele>-24.839</ele>
  <time>2026-09-01T01:13:21Z</time>
  <course>183.4</course>
  <speed>0.0282842712474619</speed>
  <fix>3d</fix>
</trkpt>
<trkpt lat="33.8103137" lon="-118.3938769">
  <ele>-24.23</ele>
  <time>2026-09-01T01:13:21Z</time>
  <course>277.3</course>
  <speed>0.0</speed>
  <fix>3d</fix>
</trkpt>
<trkpt lat="33.8103138" lon="-118.393877">
  <ele>-24.841</ele>
  <time>2026-09-01T01:13:21Z</time>
  <course>183.4</course>
  <speed>0.0282842712474619</speed>
  <fix>3d</fix>
</trkpt>
<trkpt lat="33.8103137" lon="-118.3938769">
  <ele>-24.24</ele>
  <time>2026-09-01T01:13:21Z</time>
  <course>277.3</course>
  <speed>0.0</speed>
  <fix>3d</fix>
</trkpt>
<trkpt lat="33.8103138" lon="-118.393877">
  <ele>-24.844</ele>
  <time>2026-09-01T01:13:21Z</time>
  <course>183.39</course>
  <speed>0.0282842712474619</speed>
  <fix>3d</fix>
</trkpt>
<trkpt lat="33.8103137" lon="-118.3938769">
  <ele>-24.24</ele>
  <time>2026-09-01T01:13:21Z</time>
  <course>277.3</course>
  <speed>0.0</speed>
  <fix>3d</fix>
</trkpt>
<trkpt lat="33.8103138" lon="-118.393877">
  <ele>-24.846</ele>
  <time>2026-09-01T01:13:21Z</time>
  <course>183.39</course>
  <speed>0.0282842712474619</speed>
  <fix>3d</fix>
</trkpt>
<trkpt lat="33.8103137" lon="-118.3938769">
  <ele>-24.24</ele>
  <time>2026-09-01T01:13:21Z</time>
  <course>277.3</course>
  <speed>0.0</speed>
  <fix>3d</fix>
</trkpt>
<trkpt lat="33.8103138" lon="-118.393877">
  <ele>-24.849</ele>
  <time>2026-09-01T01:13:21Z</time>
  <course>183.39</course>
  <speed>0.0282842712474619</speed>
  <fix>3d</fix>
</trkpt>
<trkpt lat="33.8103137" lon="-118.3938769">
  <ele>-24.24</ele>
  <time>2026-09-01T01:13:21Z</time>
  <course>277.3</course>
  <speed>0.0</speed>
  <fix>3d</fix>
</trkpt>
<trkpt lat="33.8103138" lon="-118.393877">
  <ele>-24.852</ele>
  <time>2026-09-01T01:13:21Z</time>
  <course>183.38</course>
  <speed>0.0282842712474619</speed>
  <fix>3d</fix>
</trkpt>
<trkpt lat="33.8103137" lon="-118.3938769">
  <ele>-24.24</ele>
  <time>2026-09-01T01:13:21Z</time>
  <course>277.31</course>
  <speed>0.0</speed>
  <fix>3d</fix>
</trkpt>
<trkpt lat="33.8103138" lon="-118.3938771">
  <ele>-24.854</ele>
  <time>2026-09-01T01:13:21Z</time>
  <course>183.38</course>
  <speed>0.0282842712474619</speed>
  <fix>3d</fix>
</trkpt>
<trkpt lat="33.8103137" lon="-118.3938769">
  <ele>-24.24</ele>
  <time>2026-09-01T01:13:21Z</time>
  <course>277.31</course>
  <speed>0.0</speed>
  <fix>3d</fix>
</trkpt>
<trkpt lat="33.8103138" lon="-118.3938771">
  <ele>-24.856</ele>
  <time>2026-09-01T01:13:21Z</time>
  <course>183.38</course>
  <speed>0.0282842712474619</speed>
  <fix>3d</fix>
</trkpt>
<trkpt lat="33.8103137" lon="-118.393877">
  <ele>-24.25</ele>
  <time>2026-09-01T01:13:21Z</time>
  <course>277.33</course>
  <speed>0.0</speed>
  <fix>3d</fix>
</trkpt>
<trkpt lat="33.8103138" lon="-118.3938771">
  <ele>-24.857</ele>
  <time>2026-09-01T01:13:21Z</time>
  <course>183.37</course>
  <speed>0.0282842712474619</speed>
  <fix>3d</fix>
</trkpt>
<trkpt lat="33.8103137" lon="-118.393877">
  <ele>-24.25</ele>
  <time>2026-09-01T01:13:21Z</time>
  <course>277.33</course>
  <speed>0.0</speed>
  <fix>3d</fix>
</trkpt>
<trkpt lat="33.8103138" lon="-118.3938771">
  <ele>-24.857</ele>
  <time>2026-09-01T01:13:21Z</time>
  <course>183.37</course>
  <speed>0.0282842712474619</speed>
  <fix>3d</fix>
</trkpt>
<trkpt lat="33.8103137" lon="-118.393877">
  <ele>-24.25</ele>
  <time>2026-09-01T01:13:21Z</time>
  <course>277.35</course>
  <speed>0.0</speed>
  <fix>3d</fix>
</trkpt>
<trkpt lat="33.8103138" lon="-118.3938771">
  <ele>-24.857</ele>
  <time>2026-09-01T01:13:21Z</time>
  <course>183.37</course>
  <speed>0.0282842712474619</speed>
  <fix>3d</fix>
</trkpt>
<trkpt lat="33.8103137" lon="-118.393877">
  <ele>-24.25</ele>
  <time>2026-09-01T01:13:21Z</time>
  <course>277.35</course>
  <speed>0.0</speed>
  <fix>3d</fix>
</trkpt>
<trkpt lat="33.8103138" lon="-118.3938771">
  <ele>-24.858</ele>
  <time>2026-09-01T01:13:21Z</time>
  <course>183.37</course>
  <speed>0.0282842712474619</speed>
  <fix>3d</fix>
</trkpt>
<trkpt lat="33.8103137" lon="-118.393877">
  <ele>-24.25</ele>
  <time>2026-09-01T01:13:21Z</time>
  <course>277.36</course>
  <speed>0.0</speed>
  <fix>3d</fix>
</trkpt>
<trkpt lat="33.8103138" lon="-118.3938771">
  <ele>-24.858</ele>
  <time>2026-09-01T01:13:21Z</time>
  <course>183.36</course>
  <speed>0.0282842712474619</speed>
  <fix>3d</fix>
</trkpt>
<trkpt lat="33.8103137" lon="-118.393877">
  <ele>-24.25</ele>
  <time>2026-09-01T01:13:21Z</time>
  <course>277.36</course>
  <speed>0.0</speed>
  <fix>3d</fix>
</trkpt>
<trkpt lat="33.8103138" lon="-118.3938771">
  <ele>-24.858</ele>
  <time>2026-09-01T01:13:21Z</time>
  <course>183.36</course>
  <speed>0.0282842712474619</speed>
  <fix>3d</fix>
</trkpt>
<trkpt lat="33.8103137" lon="-118.393877">
  <ele>-24.25</ele>
  <time>2026-09-01T01:13:21Z</time>
  <course>277.36</course>
  <speed>0.0</speed>
  <fix>3d</fix>
</trkpt>
<trkpt lat="33.8103138" lon="-118.3938771">
  <ele>-24.858</ele>
  <time>2026-09-01T01:13:21Z</time>
  <course>183.36</course>
  <speed>0.0282842712474619</speed>
  <fix>3d</fix>
</trkpt>
<trkpt lat="33.8103137" lon="-118.393877">
  <ele>-24.25</ele>
  <time>2026-09-01T01:13:21Z</time>
  <course>277.36</course>
  <speed>0.0</speed>
  <fix>3d</fix>
</trkpt>
<trkpt lat="33.8103138" lon="-118.3938771">
  <ele>-24.857</ele>
  <time>2026-09-01T01:13:21Z</time>
  <course>183.35</course>
  <speed>0.0282842712474619</speed>
  <fix>3d</fix>
</trkpt>
<trkpt lat="33.8103137" lon="-118.393877">
  <ele>-24.25</ele>
  <time>2026-09-01T01:13:21Z</time>
  <course>277.36</course>
  <speed>0.0</speed>
  <fix>3d</fix>
</trkpt>
<trkpt lat="33.8103138" lon="-118.3938771">
  <ele>-24.856</ele>
  <time>2026-09-01T01:13:21Z</time>
  <course>183.35</course>
  <speed>0.0282842712474619</speed>
  <fix>3d</fix>
</trkpt>
<trkpt lat="33.8103137" lon="-118.393877">
  <ele>-24.25</ele>
  <time>2026-09-01T01:13:21Z</time>
  <course>277.36</course>
  <speed>0.0</speed>
  <fix>3d</fix>
</trkpt>
<trkpt lat="33.8103138" lon="-118.3938771">
  <ele>-24.855</ele>
  <time>2026-09-01T01:13:21Z</time>
  <course>183.35</course>
  <speed>0.0282842712474619</speed>
  <fix>3d</fix>
</trkpt>
<trkpt lat="33.8103137" lon="-118.393877">
  <ele>-24.25</ele>
  <time>2026-09-01T01:13:21Z</time>
  <course>277.38</course>
  <speed>0.0</speed>
  <fix>3d</fix>
</trkpt>
<trkpt lat="33.8103138" lon="-118.3938771">
  <ele>-24.853</ele>
  <time>2026-09-01T01:13:21Z</time>
  <course>183.34</course>
  <speed>0.0282842712474619</speed>
  <fix>3d</fix>
</trkpt>
<trkpt lat="33.8103137" lon="-118.393877">
  <ele>-24.25</ele>
  <time>2026-09-01T01:13:21Z</time>
  <course>277.38</course>
  <speed>0.0</speed>
  <fix>3d</fix>
</trkpt>
<trkpt lat="33.8103138" lon="-118.3938772">
  <ele>-24.852</ele>
  <time>2026-09-01T01:13:21Z</time>
  <course>183.34</course>
  <speed>0.0282842712474619</speed>
  <fix>3d</fix>
</trkpt>
<trkpt lat="33.8103137" lon="-118.3938771">
  <ele>-24.25</ele>
  <time>2026-09-01T01:13:21Z</time>
  <course>277.39</course>
  <speed>0.0</speed>
  <fix>3d</fix>
</trkpt>
<trkpt lat="33.8103138" lon="-118.3938772">
  <ele>-24.85</ele>
  <time>2026-09-01T01:13:21Z</time>
  <course>183.34</course>
  <speed>0.0282842712474619</speed>
  <fix>3d</fix>
</trkpt>
<trkpt lat="33.8103137" lon="-118.3938771">
  <ele>-24.25</ele>
  <time>2026-09-01T01:13:21Z</time>
  <course>277.39</course>
  <speed>0.0</speed>
  <fix>3d</fix>
</trkpt>
<trkpt lat="33.8103138" lon="-118.3938772">
  <ele>-24.849</ele>
  <time>2026-09-01T01:13:21Z</time>
  <course>183.33</course>
  <speed>0.0282842712474619</speed>
  <fix>3d</fix>
</trkpt>
<trkpt lat="33.8103137" lon="-118.3938771">
  <ele>-24.25</ele>
  <time>2026-09-01T01:13:21Z</time>
  <course>277.4</course>
  <speed>0.0</speed>
  <fix>3d</fix>
</trkpt>
<trkpt lat="33.8103138" lon="-118.3938772">
  <ele>-24.849</ele>
  <time>2026-09-01T01:13:21Z</time>
  <course>183.33</course>
  <speed>0.0282842712474619</speed>
  <fix>3d</fix>
</trkpt>
<trkpt lat="33.8103137" lon="-118.3938771">
  <ele>-24.25</ele>
  <time>2026-09-01T01:13:21Z</time>
  <course>277.4</course>
  <speed>0.0</speed>
  <fix>3d</fix>
</trkpt>
<trkpt lat="33.8103138" lon="-118.3938772">
  <ele>-24.85</ele>
  <time>2026-09-01T01:13:21Z</time>
  <course>183.33</course>
  <speed>0.0282842712474619</speed>
  <fix>3d</fix>
</trkpt>
<trkpt lat="33.8103137" lon="-118.3938771">
  <ele>-24.25</ele>
  <time>2026-09-01T01:13:21Z</time>
  <course>277.39</course>
  <speed>0.0</speed>
  <fix>3d</fix>
</trkpt>
<trkpt lat="33.8103138" lon="-118.3938772">
  <ele>-24.851</ele>
  <time>2026-09-01T01:13:21Z</time>
  <course>183.32</course>
  <speed>0.0282842712474619</speed>
  <fix>3d</fix>
</trkpt>
<trkpt lat="33.8103137" lon="-118.3938771">
  <ele>-24.25</ele>
  <time>2026-09-01T01:13:21Z</time>
  <course>277.39</course>
  <speed>0.0</speed>
  <fix>3d</fix>
</trkpt>
<trkpt lat="33.8103138" lon="-118.3938772">
  <ele>-24.852</ele>
  <time>2026-09-01T01:13:21Z</time>
  <course>183.32</course>
  <speed>0.0282842712474619</speed>
  <fix>3d</fix>
</trkpt>
<trkpt lat="33.8103137" lon="-118.3938771">
  <ele>-24.25</ele>
  <time>2026-09-01T01:13:21Z</time>
  <course>277.39</course>
  <speed>0.0</speed>
  <fix>3d</fix>
</trkpt>
<trkpt lat="33.8103138" lon="-118.3938772">
  <ele>-24.853</ele>
  <time>2026-09-01T01:13:21Z</time>
  <course>183.32</course>
  <speed>0.0282842712474619</speed>
  <fix>3d</fix>
</trkpt>
<trkpt lat="33.8103137" lon="-118.3938771">
  <ele>-24.25</ele>
  <time>2026-09-01T01:13:21Z</time>
  <course>277.39</course>
  <speed>0.0</speed>
  <fix>3d</fix>
</trkpt>
<trkpt lat="33.8103138" lon="-118.3938772">
  <ele>-24.853</ele>
  <time>2026-09-01T01:13:21Z</time>
  <course>183.31</course>
  <speed>0.0282842712474619</speed>
  <fix>3d</fix>
</trkpt>
<trkpt lat="33.8103137" lon="-118.3938771">
  <ele>-24.25</ele>
  <time>2026-09-01T01:13:21Z</time>
  <course>277.39</course>
  <speed>0.0</speed>
  <fix>3d</fix>
</trkpt>
<trkpt lat="33.8103138" lon="-118.3938772">
  <ele>-24.854</ele>
  <time>2026-09-01T01:13:21Z</time>
  <course>183.31</course>
  <speed>0.0282842712474619</speed>
  <fix>3d</fix>
</trkpt>
<trkpt lat="33.8103137" lon="-118.3938771">
  <ele>-24.25</ele>
  <time>2026-09-01T01:13:21Z</time>
  <course>277.39</course>
  <speed>0.0</speed>
  <fix>3d</fix>
</trkpt>
<trkpt lat="33.8103138" lon="-118.3938772">
  <ele>-24.854</ele>
  <time>2026-09-01T01:13:21Z</time>
  <course>183.31</course>
  <speed>0.0282842712474619</speed>
  <fix>3d</fix>
</trkpt>
<trkpt lat="33.8103137" lon="-118.3938771">
  <ele>-24.25</ele>
  <time>2026-09-01T01:13:21Z</time>
  <course>277.4</course>
  <speed>0.0</speed>
  <fix>3d</fix>
</trkpt>
<trkpt lat="33.8103138" lon="-118.3938772">
  <ele>-24.854</ele>
  <time>2026-09-01T01:13:21Z</time>
  <course>183.3</course>
  <speed>0.0282842712474619</speed>
  <fix>3d</fix>
</trkpt>
<trkpt lat="33.8103137" lon="-118.3938771">
  <ele>-24.25</ele>
  <time>2026-09-01T01:13:21Z</time>
  <course>277.4</course>
  <speed>0.0</speed>
  <fix>3d</fix>
</trkpt>
<trkpt lat="33.8103138" lon="-118.3938773">
  <ele>-24.853</ele>
  <time>2026-09-01T01:13:21Z</time>
  <course>183.3</course>
  <speed>0.0282842712474619</speed>
  <fix>3d</fix>
</trkpt>
<trkpt lat="33.8103137" lon="-118.3938772">
  <ele>-24.25</ele>
  <time>2026-09-01T01:13:21Z</time>
  <course>277.41</course>
  <speed>0.0</speed>
  <fix>3d</fix>
</trkpt>
<trkpt lat="33.8103138" lon="-118.3938773">
  <ele>-24.853</ele>
  <time>2026-09-01T01:13:21Z</time>
  <course>183.3</course>
  <speed>0.0282842712474619</speed>
  <fix>3d</fix>
</trkpt>
<trkpt lat="33.8103137" lon="-118.3938772">
  <ele>-24.25</ele>
  <time>2026-09-01T01:13:21Z</time>
  <course>277.41</course>
  <speed>0.0</speed>
  <fix>3d</fix>
</trkpt>
<trkpt lat="33.8103138" lon="-118.3938773">
  <ele>-24.852</ele>
  <time>2026-09-01T01:13:21Z</time>
  <course>183.29</course>
  <speed>0.0282842712474619</speed>
  <fix>3d</fix>
</trkpt>
<trkpt lat="33.8103137" lon="-118.3938772">
  <ele>-24.25</ele>
  <time>2026-09-01T01:13:21Z</time>
  <course>277.42</course>
  <speed>0.0</speed>
  <fix>3d</fix>
</trkpt>
<trkpt lat="33.8103138" lon="-118.3938773">
  <ele>-24.851</ele>
  <time>2026-09-01T01:13:21Z</time>
  <course>183.29</course>
  <speed>0.0282842712474619</speed>
  <fix>3d</fix>
</trkpt>
<trkpt lat="33.8103137" lon="-118.3938772">
  <ele>-24.25</ele>
  <time>2026-09-01T01:13:21Z</time>
  <course>277.42</course>
  <speed>0.0</speed>
  <fix>3d</fix>
</trkpt>
<trkpt lat="33.8103138" lon="-118.3938773">
  <ele>-24.851</ele>
  <time>2026-09-01T01:13:21Z</time>
  <course>183.29</course>
  <speed>0.0282842712474619</speed>
  <fix>3d</fix>
</trkpt>
<trkpt lat="33.8103137" lon="-118.3938772">
  <ele>-24.25</ele>
  <time>2026-09-01T01:13:21Z</time>
  <course>277.43</course>
  <speed>0.0</speed>
  <fix>3d</fix>
</trkpt>
<trkpt lat="33.8103138" lon="-118.3938773">
  <ele>-24.851</ele>
  <time>2026-09-01T01:13:21Z</time>
  <course>183.28</course>
  <speed>0.0282842712474619</speed>
  <fix>3d</fix>
</trkpt>
<trkpt lat="33.8103137" lon="-118.3938772">
  <ele>-24.25</ele>
  <time>2026-09-01T01:13:21Z</time>
  <course>277.43</course>
  <speed>0.0</speed>
  <fix>3d</fix>
</trkpt>
<trkpt lat="33.8103138" lon="-118.3938773">
  <ele>-24.85</ele>
  <time>2026-09-01T01:13:21Z</time>
  <course>183.28</course>
  <speed>0.0282842712474619</speed>
  <fix>3d</fix>
</trkpt>
<trkpt lat="33.8103137" lon="-118.3938772">
  <ele>-24.25</ele>
  <time>2026-09-01T01:13:21Z</time>
  <course>277.44</course>
  <speed>0.0</speed>
  <fix>3d</fix>
</trkpt>
<trkpt lat="33.8103138" lon="-118.3938773">
  <ele>-24.85</ele>
  <time>2026-09-01T01:13:21Z</time>
  <course>183.28</course>
  <speed>0.0282842712474619</speed>
  <fix>3d</fix>
</trkpt>
<trkpt lat="33.8103137" lon="-118.3938772">
  <ele>-24.25</ele>
  <time>2026-09-01T01:13:21Z</time>
  <course>277.44</course>
  <speed>0.0</speed>
  <fix>3d</fix>
</trkpt>
<trkpt lat="33.8103138" lon="-118.3938773">
  <ele>-24.85</ele>
  <time>2026-09-01T01:13:21Z</time>
  <course>183.27</course>
  <speed>0.0282842712474619</speed>
  <fix>3d</fix>
</trkpt>
<trkpt lat="33.8103137" lon="-118.3938772">
  <ele>-24.25</ele>
  <time>2026-09-01T01:13:21Z</time>
  <course>277.46</course>
  <speed>0.0</speed>
  <fix>3d</fix>
</trkpt>
<trkpt lat="33.8103138" lon="-118.3938773">
  <ele>-24.85</ele>
  <time>2026-09-01T01:13:21Z</time>
  <course>183.27</course>
  <speed>0.0282842712474619</speed>
  <fix>3d</fix>
</trkpt>
<trkpt lat="33.8103137" lon="-118.3938772">
  <ele>-24.25</ele>
  <time>2026-09-01T01:13:21Z</time>
  <course>277.46</course>
  <speed>0.0</speed>
  <fix>3d</fix>
</trkpt>
<trkpt lat="33.8103138" lon="-118.3938773">
  <ele>-24.849</ele>
  <time>2026-09-01T01:13:21Z</time>
  <course>183.27</course>
  <speed>0.0282842712474619</speed>
  <fix>3d</fix>
</trkpt>
<trkpt lat="33.8103137" lon="-118.3938772">
  <ele>-24.25</ele>
  <time>2026-09-01T01:13:21Z</time>
  <course>277.47</course>
  <speed>0.0</speed>
  <fix>3d</fix>
</trkpt>
<trkpt lat="33.8103138" lon="-118.3938773">
  <ele>-24.849</ele>
  <time>2026-09-01T01:13:21Z</time>
  <course>183.26</course>
  <speed>0.0282842712474619</speed>
  <fix>3d</fix>
</trkpt>
<trkpt lat="33.8103137" lon="-118.3938772">
  <ele>-24.25</ele>
  <time>2026-09-01T01:13:21Z</time>
  <course>277.47</course>
  <speed>0.0</speed>
  <fix>3d</fix>
</trkpt>
<trkpt lat="33.8103138" lon="-118.3938774">
  <ele>-24.848</ele>
  <time>2026-09-01T01:13:21Z</time>
  <course>183.26</course>
  <speed>0.0282842712474619</speed>
  <fix>3d</fix>
</trkpt>
<trkpt lat="33.8103137" lon="-118.3938772">
  <ele>-24.25</ele>
  <time>2026-09-01T01:13:21Z</time>
  <course>277.46</course>
  <speed>0.0</speed>
  <fix>3d</fix>
</trkpt>
<trkpt lat="33.8103138" lon="-118.3938774">
  <ele>-24.847</ele>
  <time>2026-09-01T01:13:21Z</time>
  <course>183.26</course>
  <speed>0.0282842712474619</speed>
  <fix>3d</fix>
</trkpt>
<trkpt lat="33.8103137" lon="-118.3938772">
  <ele>-24.25</ele>
  <time>2026-09-01T01:13:21Z</time>
  <course>277.46</course>
  <speed>0.0</speed>
  <fix>3d</fix>
</trkpt>
<trkpt lat="33.8103138" lon="-118.3938774">
  <ele>-24.847</ele>
  <time>2026-09-01T01:13:21Z</time>
  <course>183.25</course>
  <speed>0.0282842712474619</speed>
  <fix>3d</fix>
</trkpt>
<trkpt lat="33.8103137" lon="-118.3938773">
  <ele>-24.25</ele>
  <time>2026-09-01T01:13:21Z</time>
  <course>277.45</course>
  <speed>0.0</speed>
  <fix>3d</fix>
</trkpt>
<trkpt lat="33.8103138" lon="-118.3938774">
  <ele>-24.847</ele>
  <time>2026-09-01T01:13:21Z</time>
  <course>183.25</course>
  <speed>0.0282842712474619</speed>
  <fix>3d</fix>
</trkpt>
<trkpt lat="33.8103137" lon="-118.3938773">
  <ele>-24.25</ele>
  <time>2026-09-01T01:13:21Z</time>
  <course>277.45</course>
  <speed>0.0</speed>
  <fix>3d</fix>
</trkpt>
<trkpt lat="33.8103138" lon="-118.3938774">
  <ele>-24.848</ele>
  <time>2026-09-01T01:13:21Z</time>
  <course>183.25</course>
  <speed>0.0282842712474619</speed>
  <fix>3d</fix>
</trkpt>
<trkpt lat="33.8103137" lon="-118.3938773">
  <ele>-24.25</ele>
  <time>2026-09-01T01:13:21Z</time>
  <course>277.45</course>
  <speed>0.0</speed>
  <fix>3d</fix>
</trkpt>
<trkpt lat="33.8103138" lon="-118.3938774">
  <ele>-24.85</ele>
  <time>2026-09-01T01:13:21Z</time>
  <course>183.24</course>
  <speed>0.0282842712474619</speed>
  <fix>3d</fix>
</trkpt>
<trkpt lat="33.8103137" lon="-118.3938773">
  <ele>-24.25</ele>
  <time>2026-09-01T01:13:21Z</time>
  <course>277.45</course>
  <speed>0.0</speed>
  <fix>3d</fix>
</trkpt>
<trkpt lat="33.8103138" lon="-118.3938774">
  <ele>-24.851</ele>
  <time>2026-09-01T01:13:21Z</time>
  <course>183.24</course>
  <speed>0.0282842712474619</speed>
  <fix>3d</fix>
</trkpt>
<trkpt lat="33.8103137" lon="-118.3938773">
  <ele>-24.25</ele>
  <time>2026-09-01T01:13:21Z</time>
  <course>277.45</course>
  <speed>0.0</speed>
  <fix>3d</fix>
</trkpt>
<trkpt lat="33.8103138" lon="-118.3938774">
  <ele>-24.852</ele>
  <time>2026-09-01T01:13:21Z</time>
  <course>183.23</course>
  <speed>0.0282842712474619</speed>
  <fix>3d</fix>
</trkpt>
<trkpt lat="33.8103137" lon="-118.3938773">
  <ele>-24.25</ele>
  <time>2026-09-01T01:13:21Z</time>
  <course>277.45</course>
  <speed>0.0</speed>
  <fix>3d</fix>
</trkpt>
<trkpt lat="33.8103138" lon="-118.3938774">
  <ele>-24.853</ele>
  <time>2026-09-01T01:13:21Z</time>
  <course>183.23</course>
  <speed>0.0282842712474619</speed>
  <fix>3d</fix>
</trkpt>
<trkpt lat="33.8103137" lon="-118.3938773">
  <ele>-24.25</ele>
  <time>2026-09-01T01:13:21Z</time>
  <course>277.45</course>
  <speed>0.0</speed>
  <fix>3d</fix>
</trkpt>
<trkpt lat="33.8103138" lon="-118.3938774">
  <ele>-24.855</ele>
  <time>2026-09-01T01:13:21Z</time>
  <course>183.23</course>
  <speed>0.0282842712474619</speed>
  <fix>3d</fix>
</trkpt>
<trkpt lat="33.8103137" lon="-118.3938773">
  <ele>-24.25</ele>
  <time>2026-09-01T01:13:21Z</time>
  <course>277.45</course>
  <speed>0.0</speed>
  <fix>3d</fix>
</trkpt>
<trkpt lat="33.8103138" lon="-118.3938774">
  <ele>-24.856</ele>
  <time>2026-09-01T01:13:21Z</time>
  <course>183.22</course>
  <speed>0.0282842712474619</speed>
  <fix>3d</fix>
</trkpt>
<trkpt lat="33.8103137" lon="-118.3938773">
  <ele>-24.25</ele>
  <time>2026-09-01T01:13:21Z</time>
  <course>277.46</course>
  <speed>0.0</speed>
  <fix>3d</fix>
</trkpt>
<trkpt lat="33.8103138" lon="-118.3938774">
  <ele>-24.856</ele>
  <time>2026-09-01T01:13:21Z</time>
  <course>183.22</course>
  <speed>0.0282842712474619</speed>
  <fix>3d</fix>
</trkpt>
<trkpt lat="33.8103137" lon="-118.3938773">
  <ele>-24.25</ele>
  <time>2026-09-01T01:13:21Z</time>
  <course>277.46</course>
  <speed>0.0</speed>
  <fix>3d</fix>
</trkpt>
<trkpt lat="33.8103138" lon="-118.3938774">
  <ele>-24.857</ele>
  <time>2026-09-01T01:13:21Z</time>
  <course>183.22</course>
  <speed>0.0282842712474619</speed>
  <fix>3d</fix>
</trkpt>
<trkpt lat="33.8103137" lon="-118.3938773">
  <ele>-24.25</ele>
  <time>2026-09-01T01:13:21Z</time>
  <course>277.46</course>
  <speed>0.0</speed>
  <fix>3d</fix>
</trkpt>
<trkpt lat="33.8103138" lon="-118.3938775">
  <ele>-24.857</ele>
  <time>2026-09-01T01:13:21Z</time>
  <course>183.21</course>
  <speed>0.0282842712474619</speed>
  <fix>3d</fix>
</trkpt>
<trkpt lat="33.8103137" lon="-118.3938773">
  <ele>-24.25</ele>
  <time>2026-09-01T01:13:21Z</time>
  <course>277.46</course>
  <speed>0.0</speed>
  <fix>3d</fix>
</trkpt>
<trkpt lat="33.8103138" lon="-118.3938775">
  <ele>-24.857</ele>
  <time>2026-09-01T01:13:21Z</time>
  <course>183.21</course>
  <speed>0.0282842712474619</speed>
  <fix>3d</fix>
</trkpt>
<trkpt lat="33.8103137" lon="-118.3938773">
  <ele>-24.25</ele>
  <time>2026-09-01T01:13:21Z</time>
  <course>277.47</course>
  <speed>0.0</speed>
  <fix>3d</fix>
</trkpt>
<trkpt lat="33.8103138" lon="-118.3938775">
  <ele>-24.857</ele>
  <time>2026-09-01T01:13:21Z</time>
  <course>183.21</course>
  <speed>0.0282842712474619</speed>
  <fix>3d</fix>
</trkpt>
<trkpt lat="33.8103137" lon="-118.3938773">
  <ele>-24.25</ele>
  <time>2026-09-01T01:13:21Z</time>
  <course>277.47</course>
  <speed>0.0</speed>
  <fix>3d</fix>
</trkpt>
<trkpt lat="33.8103138" lon="-118.3938775">
  <ele>-24.857</ele>
  <time>2026-09-01T01:13:21Z</time>
  <course>183.2</course>
  <speed>0.0282842712474619</speed>
  <fix>3d</fix>
</trkpt>
<trkpt lat="33.8103137" lon="-118.3938774">
  <ele>-24.25</ele>
  <time>2026-09-01T01:13:21Z</time>
  <course>277.48</course>
  <speed>0.0</speed>
  <fix>3d</fix>
</trkpt>
<trkpt lat="33.8103138" lon="-118.3938775">
  <ele>-24.858</ele>
  <time>2026-09-01T01:13:21Z</time>
  <course>183.2</course>
  <speed>0.0282842712474619</speed>
  <fix>3d</fix>
</trkpt>
<trkpt lat="33.8103137" lon="-118.3938774">
  <ele>-24.25</ele>
  <time>2026-09-01T01:13:21Z</time>
  <course>277.48</course>
  <speed>0.0</speed>
  <fix>3d</fix>
</trkpt>
<trkpt lat="33.8103138" lon="-118.3938775">
  <ele>-24.859</ele>
  <time>2026-09-01T01:13:21Z</time>
  <course>183.19</course>
  <speed>0.0282842712474619</speed>
  <fix>3d</fix>
</trkpt>
<trkpt lat="33.8103137" lon="-118.3938774">
  <ele>-24.25</ele>
  <time>2026-09-01T01:13:21Z</time>
  <course>277.47</course>
  <speed>0.0</speed>
  <fix>3d</fix>
</trkpt>
<trkpt lat="33.8103138" lon="-118.3938775">
  <ele>-24.859</ele>
  <time>2026-09-01T01:13:21Z</time>
  <course>183.19</course>
  <speed>0.0282842712474619</speed>
  <fix>3d</fix>
</trkpt>
<trkpt lat="33.8103137" lon="-118.3938774">
  <ele>-24.25</ele>
  <time>2026-09-01T01:13:21Z</time>
  <course>277.47</course>
  <speed>0.0</speed>
  <fix>3d</fix>
</trkpt>
<trkpt lat="33.8103139" lon="-118.3938775">
  <ele>-24.859</ele>
  <time>2026-09-01T01:13:21Z</time>
  <course>183.19</course>
  <speed>0.0282842712474619</speed>
  <fix>3d</fix>
</trkpt>
<trkpt lat="33.8103137" lon="-118.3938774">
  <ele>-24.25</ele>
  <time>2026-09-01T01:13:21Z</time>
  <course>277.47</course>
  <speed>0.0</speed>
  <fix>3d</fix>
</trkpt>
<trkpt lat="33.8103138" lon="-118.3938775">
  <ele>-24.859</ele>
  <time>2026-09-01T01:13:21Z</time>
  <course>183.18</course>
  <speed>0.0282842712474619</speed>
  <fix>3d</fix>
</trkpt>
<trkpt lat="33.8103137" lon="-118.3938774">
  <ele>-24.25</ele>
  <time>2026-09-01T01:13:21Z</time>
  <course>277.47</course>
  <speed>0.0</speed>
  <fix>3d</fix>
</trkpt>
<trkpt lat="33.8103139" lon="-118.3938775">
  <ele>-24.858</ele>
  <time>2026-09-01T01:13:21Z</time>
  <course>183.18</course>
  <speed>0.0282842712474619</speed>
  <fix>3d</fix>
</trkpt>
<trkpt lat="33.8103137" lon="-118.3938774">
  <ele>-24.25</ele>
  <time>2026-09-01T01:13:21Z</time>
  <course>277.48</course>
  <speed>0.0</speed>
  <fix>3d</fix>
</trkpt>
<trkpt lat="33.8103138" lon="-118.3938775">
  <ele>-24.856</ele>
  <time>2026-09-01T01:13:21Z</time>
  <course>183.18</course>
  <speed>0.0282842712474619</speed>
  <fix>3d</fix>
</trkpt>
<trkpt lat="33.8103137" lon="-118.3938774">
  <ele>-24.25</ele>
  <time>2026-09-01T01:13:21Z</time>
  <course>277.48</course>
  <speed>0.0</speed>
  <fix>3d</fix>
</trkpt>
<trkpt lat="33.8103139" lon="-118.3938775">
  <ele>-24.855</ele>
  <time>2026-09-01T01:13:21Z</time>
  <course>183.17</course>
  <speed>0.0282842712474619</speed>
  <fix>3d</fix>
</trkpt>
<trkpt lat="33.8103137" lon="-118.3938774">
  <ele>-24.25</ele>
  <time>2026-09-01T01:13:21Z</time>
  <course>277.49</course>
  <speed>0.0</speed>
  <fix>3d</fix>
</trkpt>
<trkpt lat="33.8103138" lon="-118.3938775">
  <ele>-24.854</ele>
  <time>2026-09-01T01:13:21Z</time>
  <course>183.17</course>
  <speed>0.0282842712474619</speed>
  <fix>3d</fix>
</trkpt>
<trkpt lat="33.8103137" lon="-118.3938774">
  <ele>-24.25</ele>
  <time>2026-09-01T01:13:21Z</time>
  <course>277.49</course>
  <speed>0.0</speed>
  <fix>3d</fix>
</trkpt>
<trkpt lat="33.8103138" lon="-118.3938775">
  <ele>-24.853</ele>
  <time>2026-09-01T01:13:21Z</time>
  <course>183.17</course>
  <speed>0.0282842712474619</speed>
  <fix>3d</fix>
</trkpt>
<trkpt lat="33.8103137" lon="-118.3938774">
  <ele>-24.25</ele>
  <time>2026-09-01T01:13:21Z</time>
  <course>277.48</course>
  <speed>0.0</speed>
  <fix>3d</fix>
</trkpt>
<trkpt lat="33.8103138" lon="-118.3938775">
  <ele>-24.853</ele>
  <time>2026-09-01T01:13:21Z</time>
  <course>183.18</course>
  <speed>0.0282842712474619</speed>
  <fix>3d</fix>
</trkpt>
<trkpt lat="33.8103137" lon="-118.3938774">
  <ele>-24.25</ele>
  <time>2026-09-01T01:13:21Z</time>
  <course>277.48</course>
  <speed>0.0</speed>
  <fix>3d</fix>
</trkpt>
<trkpt lat="33.8103138" lon="-118.3938776">
  <ele>-24.852</ele>
  <time>2026-09-01T01:13:21Z</time>
  <course>183.19</course>
  <speed>0.0282842712474619</speed>
  <fix>3d</fix>
</trkpt>
<trkpt lat="33.8103137" lon="-118.3938774">
  <ele>-24.25</ele>
  <time>2026-09-01T01:13:21Z</time>
  <course>277.48</course>
  <speed>0.0</speed>
  <fix>3d</fix>
</trkpt>
<trkpt lat="33.8103138" lon="-118.3938776">
  <ele>-24.851</ele>
  <time>2026-09-01T01:13:21Z</time>
  <course>183.2</course>
  <speed>0.0282842712474619</speed>
  <fix>3d</fix>
</trkpt>
<trkpt lat="33.8103137" lon="-118.3938774">
  <ele>-24.25</ele>
  <time>2026-09-01T01:13:21Z</time>
  <course>277.48</course>
  <speed>0.0</speed>
  <fix>3d</fix>
</trkpt>
<trkpt lat="33.8103138" lon="-118.3938776">
  <ele>-24.85</ele>
  <time>2026-09-01T01:13:21Z</time>
  <course>183.2</course>
  <speed>0.0282842712474619</speed>
  <fix>3d</fix>
</trkpt>
<trkpt lat="33.8103137" lon="-118.3938774">
  <ele>-24.25</ele>
  <time>2026-09-01T01:13:21Z</time>
  <course>277.49</course>
  <speed>0.0</speed>
  <fix>3d</fix>
</trkpt>
<trkpt lat="33.8103138" lon="-118.3938776">
  <ele>-24.849</ele>
  <time>2026-09-01T01:13:21Z</time>
  <course>183.21</course>
  <speed>0.0282842712474619</speed>
  <fix>3d</fix>
</trkpt>
<trkpt lat="33.8103137" lon="-118.3938774">
  <ele>-24.25</ele>
  <time>2026-09-01T01:13:21Z</time>
  <course>277.49</course>
  <speed>0.0</speed>
  <fix>3d</fix>
</trkpt>
<trkpt lat="33.8103138" lon="-118.3938776">
  <ele>-24.848</ele>
  <time>2026-09-01T01:13:21Z</time>
  <course>183.22</course>
  <speed>0.0282842712474619</speed>
  <fix>3d</fix>
</trkpt>
<trkpt lat="33.8103137" lon="-118.3938774">
  <ele>-24.25</ele>
  <time>2026-09-01T01:13:21Z</time>
  <course>277.51</course>
  <speed>0.0</speed>
  <fix>3d</fix>
</trkpt>
<trkpt lat="33.8103138" lon="-118.3938776">
  <ele>-24.847</ele>
  <time>2026-09-01T01:13:21Z</time>
  <course>183.23</course>
  <speed>0.0282842712474619</speed>
  <fix>3d</fix>
</trkpt>
<trkpt lat="33.8103137" lon="-118.3938774">
  <ele>-24.25</ele>
  <time>2026-09-01T01:13:21Z</time>
  <course>277.51</course>
  <speed>0.0</speed>
  <fix>3d</fix>
</trkpt>
<trkpt lat="33.8103138" lon="-118.3938776">
  <ele>-24.847</ele>
  <time>2026-09-01T01:13:21Z</time>
  <course>183.24</course>
  <speed>0.0282842712474619</speed>
  <fix>3d</fix>
</trkpt>
<trkpt lat="33.8103137" lon="-118.3938774">
  <ele>-24.25</ele>
  <time>2026-09-01T01:13:21Z</time>
  <course>277.5</course>
  <speed>0.0</speed>
  <fix>3d</fix>
</trkpt>
<trkpt lat="33.8103138" lon="-118.3938776">
  <ele>-24.847</ele>
  <time>2026-09-01T01:13:21Z</time>
  <course>183.26</course>
  <speed>0.0282842712474619</speed>
  <fix>3d</fix>
</trkpt>
<trkpt lat="33.8103137" lon="-118.3938774">
  <ele>-24.25</ele>
  <time>2026-09-01T01:13:21Z</time>
  <course>277.5</course>
  <speed>0.0</speed>
  <fix>3d</fix>
</trkpt>
<trkpt lat="33.8103138" lon="-118.3938776">
  <ele>-24.848</ele>
  <time>2026-09-01T01:13:21Z</time>
  <course>183.28</course>
  <speed>0.0282842712474619</speed>
  <fix>3d</fix>
</trkpt>
<trkpt lat="33.8103138" lon="-118.3938774">
  <ele>-24.25</ele>
  <time>2026-09-01T01:13:21Z</time>
  <course>277.49</course>
  <speed>0.0</speed>
  <fix>3d</fix>
</trkpt>
<trkpt lat="33.8103139" lon="-118.3938776">
  <ele>-24.849</ele>
  <time>2026-09-01T01:13:21Z</time>
  <course>183.3</course>
  <speed>0.0282842712474619</speed>
  <fix>3d</fix>
</trkpt>
<trkpt lat="33.8103138" lon="-118.3938774">
  <ele>-24.25</ele>
  <time>2026-09-01T01:13:21Z</time>
  <course>277.49</course>
  <speed>0.0</speed>
  <fix>3d</fix>
</trkpt>
<trkpt lat="33.8103139" lon="-118.3938776">
  <ele>-24.85</ele>
  <time>2026-09-01T01:13:21Z</time>
  <course>183.32</course>
  <speed>0.0282842712474619</speed>
  <fix>3d</fix>
</trkpt>
<trkpt lat="33.8103139" lon="-118.3938774">
  <ele>-24.25</ele>
  <time>2026-09-01T01:13:21Z</time>
  <course>277.48</course>
  <speed>0.0</speed>
  <fix>3d</fix>
</trkpt>
<trkpt lat="33.8103139" lon="-118.3938776">
  <ele>-24.851</ele>
  <time>2026-09-01T01:13:21Z</time>
  <course>183.34</course>
  <speed>0.0282842712474619</speed>
  <fix>3d</fix>
</trkpt>
<trkpt lat="33.8103139" lon="-118.3938774">
  <ele>-24.25</ele>
  <time>2026-09-01T01:13:21Z</time>
  <course>277.48</course>
  <speed>0.0</speed>
  <fix>3d</fix>
</trkpt>
<trkpt lat="33.8103139" lon="-118.3938776">
  <ele>-24.852</ele>
  <time>2026-09-01T01:13:21Z</time>
  <course>183.35</course>
  <speed>0.0282842712474619</speed>
  <fix>3d</fix>
</trkpt>
<trkpt lat="33.8103139" lon="-118.3938775">
  <ele>-24.25</ele>
  <time>2026-09-01T01:13:21Z</time>
  <course>277.49</course>
  <speed>0.0</speed>
  <fix>3d</fix>
</trkpt>
<trkpt lat="33.8103139" lon="-118.3938776">
  <ele>-24.853</ele>
  <time>2026-09-01T01:13:21Z</time>
  <course>183.37</course>
  <speed>0.0282842712474619</speed>
  <fix>3d</fix>
</trkpt>
<trkpt lat="33.8103139" lon="-118.3938775">
  <ele>-24.25</ele>
  <time>2026-09-01T01:13:21Z</time>
  <course>277.49</course>
  <speed>0.0</speed>
  <fix>3d</fix>
</trkpt>
<trkpt lat="33.8103139" lon="-118.3938776">
  <ele>-24.853</ele>
  <time>2026-09-01T01:13:21Z</time>
  <course>183.39</course>
  <speed>0.0282842712474619</speed>
  <fix>3d</fix>
</trkpt>
<trkpt lat="33.8103139" lon="-118.3938776">
  <ele>-24.25</ele>
  <time>2026-09-01T01:13:21Z</time>
  <course>277.49</course>
  <speed>0.0</speed>
  <fix>3d</fix>
</trkpt>
<trkpt lat="33.8103139" lon="-118.3938776">
  <ele>-24.853</ele>
  <time>2026-09-01T01:13:21Z</time>
  <course>183.41</course>
  <speed>0.0282842712474619</speed>
  <fix>3d</fix>
</trkpt>
<trkpt lat="33.8103139" lon="-118.3938776">
  <ele>-24.25</ele>
  <time>2026-09-01T01:13:21Z</time>
  <course>277.49</course>
  <speed>0.0</speed>
  <fix>3d</fix>
</trkpt>
<trkpt lat="33.8103139" lon="-118.3938776">
  <ele>-24.853</ele>
  <time>2026-09-01T01:13:21Z</time>
  <course>183.42</course>
  <speed>0.0282842712474619</speed>
  <fix>3d</fix>
</trkpt>
<trkpt lat="33.8103139" lon="-118.3938776">
  <ele>-24.25</ele>
  <time>2026-09-01T01:13:21Z</time>
  <course>277.5</course>
  <speed>0.0</speed>
  <fix>3d</fix>
</trkpt>
<trkpt lat="33.8103139" lon="-118.3938776">
  <ele>-24.853</ele>
  <time>2026-09-01T01:13:21Z</time>
  <course>183.44</course>
  <speed>0.0282842712474619</speed>
  <fix>3d</fix>
</trkpt>
<trkpt lat="33.8103139" lon="-118.3938776">
  <ele>-24.25</ele>
  <time>2026-09-01T01:13:21Z</time>
  <course>277.5</course>
  <speed>0.0</speed>
  <fix>3d</fix>
</trkpt>
<trkpt lat="33.810314" lon="-118.3938776">
  <ele>-24.857</ele>
  <time>2026-09-01T01:13:21Z</time>
  <course>183.46</course>
  <speed>0.0282842712474619</speed>
  <fix>3d</fix>
</trkpt>
<trkpt lat="33.8103139" lon="-118.3938776">
  <ele>-24.25</ele>
  <time>2026-09-01T01:13:21Z</time>
  <course>277.48</course>
  <speed>0.0</speed>
  <fix>3d</fix>
</trkpt>
<trkpt lat="33.810314" lon="-118.3938777">
  <ele>-24.875</ele>
  <time>2026-09-01T01:13:21Z</time>
  <course>183.47</course>
  <speed>0.0282842712474619</speed>
  <fix>3d</fix>
</trkpt>
<trkpt lat="33.8103139" lon="-118.3938776">
  <ele>-24.25</ele>
  <time>2026-09-01T01:13:21Z</time>
  <course>277.48</course>
  <speed>0.0</speed>
  <fix>3d</fix>
</trkpt>
<trkpt lat="33.810314" lon="-118.3938777">
  <ele>-24.913</ele>
  <time>2026-09-01T01:13:21Z</time>
  <course>183.49</course>
  <speed>0.0282842712474619</speed>
  <fix>3d</fix>
</trkpt>
<trkpt lat="33.8103139" lon="-118.3938776">
  <ele>-24.26</ele>
  <time>2026-09-01T01:13:21Z</time>
  <course>276.94</course>
  <speed>0.0</speed>
  <fix>3d</fix>
</trkpt>
<trkpt lat="33.810314" lon="-118.3938777">
  <ele>-24.913</ele>
  <time>2026-09-01T01:13:21Z</time>
  <course>183.49</course>
  <speed>0.0282842712474619</speed>
  <fix>3d</fix>
</trkpt>
<trkpt lat="33.810314" lon="-118.3938777">
  <ele>-24.969</ele>
  <time>2026-09-01T01:13:21Z</time>
  <course>183.51</course>
  <speed>0.0282842712474619</speed>
  <fix>3d</fix>
</trkpt>
<trkpt lat="33.8103139" lon="-118.3938776">
  <ele>-24.26</ele>
  <time>2026-09-01T01:13:21Z</time>
  <course>276.94</course>
  <speed>0.0</speed>
  <fix>3d</fix>
</trkpt>
<trkpt lat="33.810314" lon="-118.3938777">
  <ele>-24.971</ele>
  <time>2026-09-01T01:13:21Z</time>
  <course>183.51</course>
  <speed>0.0282842712474619</speed>
  <fix>3d</fix>
</trkpt>
<trkpt lat="33.810314" lon="-118.3938777">
  <ele>-25.038</ele>
  <time>2026-09-01T01:13:21Z</time>
  <course>183.52</course>
  <speed>0.0282842712474619</speed>
  <fix>3d</fix>
</trkpt>
<trkpt lat="33.8103139" lon="-118.3938776">
  <ele>-24.32</ele>
  <time>2026-09-01T01:13:21Z</time>
  <course>276.04</course>
  <speed>0.01</speed>
  <fix>3d</fix>
</trkpt>
<trkpt lat="33.810314" lon="-118.3938777">
  <ele>-25.061</ele>
  <time>2026-09-01T01:13:21Z</time>
  <course>183.53</course>
  <speed>0.0282842712474619</speed>
  <fix>3d</fix>
</trkpt>
<trkpt lat="33.810314" lon="-118.3938777">
  <ele>-25.116</ele>
  <time>2026-09-01T01:13:21Z</time>
  <course>183.54</course>
  <speed>0.0282842712474619</speed>
  <fix>3d</fix>
</trkpt>
<trkpt lat="33.8103139" lon="-118.3938776">
  <ele>-24.32</ele>
  <time>2026-09-01T01:13:21Z</time>
  <course>276.04</course>
  <speed>0.01</speed>
  <fix>3d</fix>
</trkpt>
<trkpt lat="33.810314" lon="-118.3938777">
  <ele>-25.143</ele>
  <time>2026-09-01T01:13:21Z</time>
  <course>183.54</course>
  <speed>0.0282842712474619</speed>
  <fix>3d</fix>
</trkpt>
<trkpt lat="33.810314" lon="-118.3938777">
  <ele>-25.201</ele>
  <time>2026-09-01T01:13:21Z</time>
  <course>183.56</course>
  <speed>0.0282842712474619</speed>
  <fix>3d</fix>
</trkpt>
<trkpt lat="33.8103139" lon="-118.3938776">
  <ele>-24.44</ele>
  <time>2026-09-01T01:13:21Z</time>
  <course>275.51</course>
  <speed>0.01</speed>
  <fix>3d</fix>
</trkpt>
<trkpt lat="33.810314" lon="-118.3938777">
  <ele>-25.227</ele>
  <time>2026-09-01T01:13:21Z</time>
  <course>183.56</course>
  <speed>0.0282842712474619</speed>
  <fix>3d</fix>
</trkpt>
<trkpt lat="33.810314" lon="-118.3938777">
  <ele>-25.29</ele>
  <time>2026-09-01T01:13:21Z</time>
  <course>183.57</course>
  <speed>0.0282842712474619</speed>
  <fix>3d</fix>
</trkpt>
<trkpt lat="33.8103139" lon="-118.3938776">
  <ele>-24.44</ele>
  <time>2026-09-01T01:13:21Z</time>
  <course>275.51</course>
  <speed>0.01</speed>
  <fix>3d</fix>
</trkpt>
<trkpt lat="33.810314" lon="-118.3938777">
  <ele>-25.317</ele>
  <time>2026-09-01T01:13:21Z</time>
  <course>183.58</course>
  <speed>0.0282842712474619</speed>
  <fix>3d</fix>
</trkpt>
<trkpt lat="33.810314" lon="-118.3938777">
  <ele>-25.384</ele>
  <time>2026-09-01T01:13:21Z</time>
  <course>183.59</course>
  <speed>0.0282842712474619</speed>
  <fix>3d</fix>
</trkpt>
<trkpt lat="33.8103139" lon="-118.3938777">
  <ele>-24.6</ele>
  <time>2026-09-01T01:13:21Z</time>
  <course>275.3</course>
  <speed>0.01</speed>
  <fix>3d</fix>
</trkpt>
<trkpt lat="33.810314" lon="-118.3938778">
  <ele>-25.419</ele>
  <time>2026-09-01T01:13:21Z</time>
  <course>183.59</course>
  <speed>0.0282842712474619</speed>
  <fix>3d</fix>
</trkpt>
<trkpt lat="33.810314" lon="-118.3938778">
  <ele>-25.479</ele>
  <time>2026-09-01T01:13:21Z</time>
  <course>183.6</course>
  <speed>0.0282842712474619</speed>
  <fix>3d</fix>
</trkpt>
<trkpt lat="33.8103139" lon="-118.3938777">
  <ele>-24.6</ele>
  <time>2026-09-01T01:13:21Z</time>
  <course>275.3</course>
  <speed>0.01</speed>
  <fix>3d</fix>
</trkpt>
<trkpt lat="33.810314" lon="-118.3938778">
  <ele>-25.51</ele>
  <time>2026-09-01T01:13:21Z</time>
  <course>183.61</course>
  <speed>0.0282842712474619</speed>
  <fix>3d</fix>
</trkpt>
<trkpt lat="33.810314" lon="-118.3938778">
  <ele>-25.577</ele>
  <time>2026-09-01T01:13:21Z</time>
  <course>183.62</course>
  <speed>0.0282842712474619</speed>
  <fix>3d</fix>
</trkpt>
<trkpt lat="33.8103139" lon="-118.3938777">
  <ele>-24.77</ele>
  <time>2026-09-01T01:13:21Z</time>
  <course>275.21</course>
  <speed>0.01</speed>
  <fix>3d</fix>
</trkpt>
<trkpt lat="33.810314" lon="-118.3938778">
  <ele>-25.608</ele>
  <time>2026-09-01T01:13:21Z</time>
  <course>183.62</course>
  <speed>0.0282842712474619</speed>
  <fix>3d</fix>
</trkpt>
<trkpt lat="33.810314" lon="-118.3938778">
  <ele>-25.675</ele>
  <time>2026-09-01T01:13:21Z</time>
  <course>183.63</course>
  <speed>0.0282842712474619</speed>
  <fix>3d</fix>
</trkpt>
<trkpt lat="33.8103139" lon="-118.3938777">
  <ele>-24.77</ele>
  <time>2026-09-01T01:13:21Z</time>
  <course>275.21</course>
  <speed>0.01</speed>
  <fix>3d</fix>
</trkpt>
<trkpt lat="33.810314" lon="-118.3938778">
  <ele>-25.705</ele>
  <time>2026-09-01T01:13:21Z</time>
  <course>183.64</course>
  <speed>0.0282842712474619</speed>
  <fix>3d</fix>
</trkpt>
<trkpt lat="33.810314" lon="-118.3938778">
  <ele>-25.774</ele>
  <time>2026-09-01T01:13:21Z</time>
  <course>183.65</course>
  <speed>0.0282842712474619</speed>
  <fix>3d</fix>
</trkpt>
<trkpt lat="33.8103139" lon="-118.3938777">
  <ele>-24.95</ele>
  <time>2026-09-01T01:13:21Z</time>
  <course>275.18</course>
  <speed>0.01</speed>
  <fix>3d</fix>
</trkpt>
<trkpt lat="33.810314" lon="-118.3938778">
  <ele>-25.803</ele>
  <time>2026-09-01T01:13:21Z</time>
  <course>183.65</course>
  <speed>0.0282842712474619</speed>
  <fix>3d</fix>
</trkpt>
<trkpt lat="33.810314" lon="-118.3938778">
  <ele>-25.871</ele>
  <time>2026-09-01T01:13:21Z</time>
  <course>183.66</course>
  <speed>0.0282842712474619</speed>
  <fix>3d</fix>
</trkpt>
<trkpt lat="33.8103139" lon="-118.3938777">
  <ele>-24.95</ele>
  <time>2026-09-01T01:13:21Z</time>
  <course>275.18</course>
  <speed>0.01</speed>
  <fix>3d</fix>
</trkpt>
<trkpt lat="33.810314" lon="-118.3938778">
  <ele>-25.873</ele>
  <time>2026-09-01T01:13:21Z</time>
  <course>183.66</course>
  <speed>0.0282842712474619</speed>
  <fix>3d</fix>
</trkpt>
<trkpt lat="33.810314" lon="-118.3938778">
  <ele>-25.967</ele>
  <time>2026-09-01T01:13:21Z</time>
  <course>183.68</course>
  <speed>0.0282842712474619</speed>
  <fix>3d</fix>
</trkpt>
<trkpt lat="33.8103139" lon="-118.3938778">
  <ele>-25.13</ele>
  <time>2026-09-01T01:13:21Z</time>
  <course>275.17</course>
  <speed>0.01</speed>
  <fix>3d</fix>
</trkpt>
<trkpt lat="33.810314" lon="-118.3938779">
  <ele>-25.996</ele>
  <time>2026-09-01T01:13:21Z</time>
  <course>183.68</course>
  <speed>0.0282842712474619</speed>
  <fix>3d</fix>
</trkpt>
<trkpt lat="33.810314" lon="-118.3938779">
  <ele>-26.062</ele>
  <time>2026-09-01T01:13:21Z</time>
  <course>183.69</course>
  <speed>0.0282842712474619</speed>
  <fix>3d</fix>
</trkpt>
<trkpt lat="33.8103139" lon="-118.3938778">
  <ele>-25.13</ele>
  <time>2026-09-01T01:13:21Z</time>
  <course>275.17</course>
  <speed>0.01</speed>
  <fix>3d</fix>
</trkpt>
<trkpt lat="33.810314" lon="-118.3938779">
  <ele>-26.065</ele>
  <time>2026-09-01T01:13:21Z</time>
  <course>183.69</course>
  <speed>0.0282842712474619</speed>
  <fix>3d</fix>
</trkpt>
<trkpt lat="33.810314" lon="-118.3938779">
  <ele>-26.157</ele>
  <time>2026-09-01T01:13:21Z</time>
  <course>183.71</course>
  <speed>0.0282842712474619</speed>
  <fix>3d</fix>
</trkpt>
<trkpt lat="33.8103139" lon="-118.3938778">
  <ele>-25.31</ele>
  <time>2026-09-01T01:13:21Z</time>
  <course>275.16</course>
  <speed>0.01</speed>
  <fix>3d</fix>
</trkpt>
<trkpt lat="33.810314" lon="-118.3938779">
  <ele>-26.188</ele>
  <time>2026-09-01T01:13:21Z</time>
  <course>183.71</course>
  <speed>0.0282842712474619</speed>
  <fix>3d</fix>
</trkpt>
<trkpt lat="33.810314" lon="-118.3938779">
  <ele>-26.253</ele>
  <time>2026-09-01T01:13:21Z</time>
  <course>183.72</course>
  <speed>0.0282842712474619</speed>
  <fix>3d</fix>
</trkpt>
<trkpt lat="33.8103139" lon="-118.3938778">
  <ele>-25.31</ele>
  <time>2026-09-01T01:13:21Z</time>
  <course>275.16</course>
  <speed>0.01</speed>
  <fix>3d</fix>
</trkpt>
<trkpt lat="33.8103141" lon="-118.3938779">
  <ele>-26.281</ele>
  <time>2026-09-01T01:13:21Z</time>
  <course>183.73</course>
  <speed>0.0282842712474619</speed>
  <fix>3d</fix>
</trkpt>
<trkpt lat="33.8103141" lon="-118.3938779">
  <ele>-26.349</ele>
  <time>2026-09-01T01:13:21Z</time>
  <course>183.74</course>
  <speed>0.0282842712474619</speed>
  <fix>3d</fix>
</trkpt>
<trkpt lat="33.8103139" lon="-118.3938778">
  <ele>-25.49</ele>
  <time>2026-09-01T01:13:21Z</time>
  <course>275.14</course>
  <speed>0.01</speed>
  <fix>3d</fix>
</trkpt>
<trkpt lat="33.8103141" lon="-118.3938779">
  <ele>-26.378</ele>
  <time>2026-09-01T01:13:21Z</time>
  <course>183.74</course>
  <speed>0.0282842712474619</speed>
  <fix>3d</fix>
</trkpt>
<trkpt lat="33.8103141" lon="-118.3938779">
  <ele>-26.445</ele>
  <time>2026-09-01T01:13:21Z</time>
  <course>183.75</course>
  <speed>0.03605551275463989</speed>
  <fix>3d</fix>
</trkpt>
<trkpt lat="33.8103139" lon="-118.3938778">
  <ele>-25.49</ele>
  <time>2026-09-01T01:13:21Z</time>
  <course>275.14</course>
  <speed>0.01</speed>
  <fix>3d</fix>
</trkpt>
<trkpt lat="33.8103141" lon="-118.3938779">
  <ele>-26.477</ele>
  <time>2026-09-01T01:13:21Z</time>
  <course>183.76</course>
  <speed>0.03605551275463989</speed>
  <fix>3d</fix>
</trkpt>
<trkpt lat="33.8103141" lon="-118.393878">
  <ele>-26.543</ele>
  <time>2026-09-01T01:13:21Z</time>
  <course>183.77</course>
  <speed>0.03605551275463989</speed>
  <fix>3d</fix>
</trkpt>
<trkpt lat="33.8103139" lon="-118.3938778">
  <ele>-25.68</ele>
  <time>2026-09-01T01:13:21Z</time>
  <course>275.12</course>
  <speed>0.01</speed>
  <fix>3d</fix>
</trkpt>
<trkpt lat="33.8103141" lon="-118.393878">
  <ele>-26.572</ele>
  <time>2026-09-01T01:13:21Z</time>
  <course>183.77</course>
  <speed>0.03605551275463989</speed>
  <fix>3d</fix>
</trkpt>
<trkpt lat="33.8103141" lon="-118.393878">
  <ele>-26.641</ele>
  <time>2026-09-01T01:13:21Z</time>
  <course>183.78</course>
  <speed>0.03605551275463989</speed>
  <fix>3d</fix>
</trkpt>
<trkpt lat="33.8103139" lon="-118.3938778">
  <ele>-25.68</ele>
  <time>2026-09-01T01:13:21Z</time>
  <course>275.12</course>
  <speed>0.01</speed>
  <fix>3d</fix>
</trkpt>
<trkpt lat="33.8103141" lon="-118.393878">
  <ele>-26.672</ele>
  <time>2026-09-01T01:13:21Z</time>
  <course>183.79</course>
  <speed>0.03605551275463989</speed>
  <fix>3d</fix>
</trkpt>
<trkpt lat="33.8103141" lon="-118.393878">
  <ele>-26.739</ele>
  <time>2026-09-01T01:13:21Z</time>
  <course>183.8</course>
  <speed>0.03605551275463989</speed>
  <fix>3d</fix>
</trkpt>
<trkpt lat="33.8103139" lon="-118.3938779">
  <ele>-25.87</ele>
  <time>2026-09-01T01:13:21Z</time>
  <course>275.1</course>
  <speed>0.01</speed>
  <fix>3d</fix>
</trkpt>
<trkpt lat="33.8103141" lon="-118.393878">
  <ele>-26.769</ele>
  <time>2026-09-01T01:13:21Z</time>
  <course>183.8</course>
  <speed>0.03605551275463989</speed>
  <fix>3d</fix>
</trkpt>
<trkpt lat="33.8103141" lon="-118.393878">
  <ele>-26.838</ele>
  <time>2026-09-01T01:13:21Z</time>
  <course>183.81</course>
  <speed>0.03605551275463989</speed>
  <fix>3d</fix>
</trkpt>
<trkpt lat="33.8103139" lon="-118.3938779">
  <ele>-25.87</ele>
  <time>2026-09-01T01:13:21Z</time>
  <course>275.1</course>
  <speed>0.01</speed>
  <fix>3d</fix>
</trkpt>
<trkpt lat="33.8103141" lon="-118.393878">
  <ele>-26.867</ele>
  <time>2026-09-01T01:13:21Z</time>
  <course>183.81</course>
  <speed>0.03605551275463989</speed>
  <fix>3d</fix>
</trkpt>
<trkpt lat="33.8103141" lon="-118.393878">
  <ele>-26.936</ele>
  <time>2026-09-01T01:13:21Z</time>
  <course>183.82</course>
  <speed>0.03605551275463989</speed>
  <fix>3d</fix>
</trkpt>
<trkpt lat="33.8103139" lon="-118.3938779">
  <ele>-26.06</ele>
  <time>2026-09-01T01:13:21Z</time>
  <course>275.1</course>
  <speed>0.01</speed>
  <fix>3d</fix>
</trkpt>
<trkpt lat="33.8103141" lon="-118.393878">
  <ele>-26.939</ele>
  <time>2026-09-01T01:13:21Z</time>
  <course>183.82</course>
  <speed>0.03605551275463989</speed>
  <fix>3d</fix>
</trkpt>
<trkpt lat="33.8103141" lon="-118.393878">
  <ele>-27.035</ele>
  <time>2026-09-01T01:13:21Z</time>
  <course>183.84</course>
  <speed>0.03605551275463989</speed>
  <fix>3d</fix>
</trkpt>
<trkpt lat="33.8103139" lon="-118.3938779">
  <ele>-26.06</ele>
  <time>2026-09-01T01:13:21Z</time>
  <course>275.1</course>
  <speed>0.01</speed>
  <fix>3d</fix>
</trkpt>
<trkpt lat="33.8103141" lon="-118.393878">
  <ele>-27.064</ele>
  <time>2026-09-01T01:13:22Z</time>
  <course>183.84</course>
  <speed>0.03605551275463989</speed>
  <fix>3d</fix>
</trkpt>
<trkpt lat="33.8103141" lon="-118.3938781">
  <ele>-27.133</ele>
  <time>2026-09-01T01:13:22Z</time>
  <course>183.85</course>
  <speed>0.03605551275463989</speed>
  <fix>3d</fix>
</trkpt>
<trkpt lat="33.8103139" lon="-118.3938779">
  <ele>-26.26</ele>
  <time>2026-09-01T01:13:22Z</time>
  <course>275.1</course>
  <speed>0.01</speed>
  <fix>3d</fix>
</trkpt>
<trkpt lat="33.8103141" lon="-118.3938781">
  <ele>-27.136</ele>
  <time>2026-09-01T01:13:22Z</time>
  <course>183.85</course>
  <speed>0.03605551275463989</speed>
  <fix>3d</fix>
</trkpt>
<trkpt lat="33.8103141" lon="-118.3938781">
  <ele>-27.231</ele>
  <time>2026-09-01T01:13:22Z</time>
  <course>183.87</course>
  <speed>0.03605551275463989</speed>
  <fix>3d</fix>
</trkpt>
<trkpt lat="33.8103139" lon="-118.3938779">
  <ele>-26.26</ele>
  <time>2026-09-01T01:13:22Z</time>
  <course>275.1</course>
  <speed>0.01</speed>
  <fix>3d</fix>
</trkpt>
<trkpt lat="33.8103141" lon="-118.3938781">
  <ele>-27.234</ele>
  <time>2026-09-01T01:13:22Z</time>
  <course>183.87</course>
  <speed>0.03605551275463989</speed>
  <fix>3d</fix>
</trkpt>
<trkpt lat="33.8103141" lon="-118.3938781">
  <ele>-27.33</ele>
  <time>2026-09-01T01:13:22Z</time>
  <course>183.88</course>
  <speed>0.03605551275463989</speed>
  <fix>3d</fix>
</trkpt>
<trkpt lat="33.8103139" lon="-118.393878">
  <ele>-26.45</ele>
  <time>2026-09-01T01:13:22Z</time>
  <course>275.1</course>
  <speed>0.01</speed>
  <fix>3d</fix>
</trkpt>
<trkpt lat="33.8103141" lon="-118.3938781">
  <ele>-27.364</ele>
  <time>2026-09-01T01:13:22Z</time>
  <course>183.89</course>
  <speed>0.03605551275463989</speed>
  <fix>3d</fix>
</trkpt>
<trkpt lat="33.8103141" lon="-118.3938781">
  <ele>-27.429</ele>
  <time>2026-09-01T01:13:22Z</time>
  <course>183.89</course>
  <speed>0.03605551275463989</speed>
  <fix>3d</fix>
</trkpt>
<trkpt lat="33.8103139" lon="-118.393878">
  <ele>-26.45</ele>
  <time>2026-09-01T01:13:22Z</time>
  <course>275.1</course>
  <speed>0.01</speed>
  <fix>3d</fix>
</trkpt>
<trkpt lat="33.8103141" lon="-118.3938781">
  <ele>-27.461</ele>
  <time>2026-09-01T01:13:22Z</time>
  <course>183.9</course>
  <speed>0.03605551275463989</speed>
  <fix>3d</fix>
</trkpt>
<trkpt lat="33.8103141" lon="-118.3938781">
  <ele>-27.527</ele>
  <time>2026-09-01T01:13:22Z</time>
  <course>183.91</course>
  <speed>0.03605551275463989</speed>
  <fix>3d</fix>
</trkpt>
<trkpt lat="33.8103139" lon="-118.393878">
  <ele>-26.64</ele>
  <time>2026-09-01T01:13:22Z</time>
  <course>275.1</course>
  <speed>0.01</speed>
  <fix>3d</fix>
</trkpt>
<trkpt lat="33.8103141" lon="-118.3938781">
  <ele>-27.556</ele>
  <time>2026-09-01T01:13:22Z</time>
  <course>183.91</course>
  <speed>0.03605551275463989</speed>
  <fix>3d</fix>
</trkpt>
<trkpt lat="33.8103141" lon="-118.3938781">
  <ele>-27.625</ele>
  <time>2026-09-01T01:13:22Z</time>
  <course>183.92</course>
  <speed>0.03605551275463989</speed>
  <fix>3d</fix>
</trkpt>
<trkpt lat="33.8103139" lon="-118.393878">
  <ele>-26.64</ele>
  <time>2026-09-01T01:13:22Z</time>
  <course>275.1</course>
  <speed>0.01</speed>
  <fix>3d</fix>
</trkpt>
<trkpt lat="33.8103141" lon="-118.3938781">
  <ele>-27.657</ele>
  <time>2026-09-01T01:13:22Z</time>
  <course>183.93</course>
  <speed>0.03605551275463989</speed>
  <fix>3d</fix>
</trkpt>
<trkpt lat="33.8103141" lon="-118.3938782">
  <ele>-27.724</ele>
  <time>2026-09-01T01:13:22Z</time>
  <course>183.94</course>
  <speed>0.03605551275463989</speed>
  <fix>3d</fix>
</trkpt>
<trkpt lat="33.8103139" lon="-118.393878">
  <ele>-26.84</ele>
  <time>2026-09-01T01:13:22Z</time>
  <course>275.11</course>
  <speed>0.01</speed>
  <fix>3d</fix>
</trkpt>
<trkpt lat="33.8103141" lon="-118.3938782">
  <ele>-27.756</ele>
  <time>2026-09-01T01:13:22Z</time>
  <course>183.94</course>
  <speed>0.03605551275463989</speed>
  <fix>3d</fix>
</trkpt>
<trkpt lat="33.8103141" lon="-118.3938782">
  <ele>-27.822</ele>
  <time>2026-09-01T01:13:22Z</time>
  <course>183.95</course>
  <speed>0.03605551275463989</speed>
  <fix>3d</fix>
</trkpt>
<trkpt lat="33.8103139" lon="-118.393878">
  <ele>-26.84</ele>
  <time>2026-09-01T01:13:22Z</time>
  <course>275.11</course>
  <speed>0.01</speed>
  <fix>3d</fix>
</trkpt>
<trkpt lat="33.8103141" lon="-118.3938782">
  <ele>-27.854</ele>
  <time>2026-09-01T01:13:22Z</time>
  <course>183.95</course>
  <speed>0.03605551275463989</speed>
  <fix>3d</fix>
</trkpt>
<trkpt lat="33.8103141" lon="-118.3938782">
  <ele>-27.92</ele>
  <time>2026-09-01T01:13:22Z</time>
  <course>183.96</course>
  <speed>0.03605551275463989</speed>
  <fix>3d</fix>
</trkpt>
<trkpt lat="33.8103139" lon="-118.3938781">
  <ele>-27.03</ele>
  <time>2026-09-01T01:13:22Z</time>
  <course>275.11</course>
  <speed>0.01</speed>
  <fix>3d</fix>
</trkpt>
<trkpt lat="33.8103141" lon="-118.3938782">
  <ele>-27.922</ele>
  <time>2026-09-01T01:13:22Z</time>
  <course>183.96</course>
  <speed>0.03605551275463989</speed>
  <fix>3d</fix>
</trkpt>
<trkpt lat="33.8103141" lon="-118.3938782">
  <ele>-28.018</ele>
  <time>2026-09-01T01:13:22Z</time>
  <course>183.98</course>
  <speed>0.03605551275463989</speed>
  <fix>3d</fix>
</trkpt>
<trkpt lat="33.8103139" lon="-118.3938781">
  <ele>-27.03</ele>
  <time>2026-09-01T01:13:22Z</time>
  <course>275.11</course>
  <speed>0.01</speed>
  <fix>3d</fix>
</trkpt>
<trkpt lat="33.8103141" lon="-118.3938782">
  <ele>-28.049</ele>
  <time>2026-09-01T01:13:22Z</time>
  <course>183.98</course>
  <speed>0.03605551275463989</speed>
  <fix>3d</fix>
</trkpt>
<trkpt lat="33.8103141" lon="-118.3938782">
  <ele>-28.116</ele>
  <time>2026-09-01T01:13:22Z</time>
  <course>183.99</course>
  <speed>0.03605551275463989</speed>
  <fix>3d</fix>
</trkpt>
<trkpt lat="33.8103139" lon="-118.3938781">
  <ele>-27.22</ele>
  <time>2026-09-01T01:13:22Z</time>
  <course>275.11</course>
  <speed>0.01</speed>
  <fix>3d</fix>
</trkpt>
<trkpt lat="33.8103141" lon="-118.3938782">
  <ele>-28.145</ele>
  <time>2026-09-01T01:13:22Z</time>
  <course>183.99</course>
  <speed>0.03605551275463989</speed>
  <fix>3d</fix>
</trkpt>
<trkpt lat="33.8103141" lon="-118.3938782">
  <ele>-28.214</ele>
  <time>2026-09-01T01:13:22Z</time>
  <course>184.0</course>
  <speed>0.03605551275463989</speed>
  <fix>3d</fix>
</trkpt>
<trkpt lat="33.8103139" lon="-118.3938781">
  <ele>-27.22</ele>
  <time>2026-09-01T01:13:22Z</time>
  <course>275.11</course>
  <speed>0.01</speed>
  <fix>3d</fix>
</trkpt>
<trkpt lat="33.8103141" lon="-118.3938782">
  <ele>-28.245</ele>
  <time>2026-09-01T01:13:22Z</time>
  <course>184.01</course>
  <speed>0.03605551275463989</speed>
  <fix>3d</fix>
</trkpt>
<trkpt lat="33.8103141" lon="-118.3938783">
  <ele>-28.311</ele>
  <time>2026-09-01T01:13:22Z</time>
  <course>184.02</course>
  <speed>0.03605551275463989</speed>
  <fix>3d</fix>
</trkpt>
<trkpt lat="33.8103139" lon="-118.3938781">
  <ele>-27.41</ele>
  <time>2026-09-01T01:13:22Z</time>
  <course>275.12</course>
  <speed>0.01</speed>
  <fix>3d</fix>
</trkpt>
<trkpt lat="33.8103141" lon="-118.3938783">
  <ele>-28.34</ele>
  <time>2026-09-01T01:13:22Z</time>
  <course>184.02</course>
  <speed>0.03605551275463989</speed>
  <fix>3d</fix>
</trkpt>
<trkpt lat="33.8103141" lon="-118.3938783">
  <ele>-28.409</ele>
  <time>2026-09-01T01:13:22Z</time>
  <course>184.03</course>
  <speed>0.03605551275463989</speed>
  <fix>3d</fix>
</trkpt>
<trkpt lat="33.8103139" lon="-118.3938781">
  <ele>-27.41</ele>
  <time>2026-09-01T01:13:22Z</time>
  <course>275.12</course>
  <speed>0.01</speed>
  <fix>3d</fix>
</trkpt>
<trkpt lat="33.8103141" lon="-118.3938783">
  <ele>-28.44</ele>
  <time>2026-09-01T01:13:22Z</time>
  <course>184.04</course>
  <speed>0.03605551275463989</speed>
  <fix>3d</fix>
</trkpt>
<trkpt lat="33.8103141" lon="-118.3938783">
  <ele>-28.506</ele>
  <time>2026-09-01T01:13:22Z</time>
  <course>184.04</course>
  <speed>0.03605551275463989</speed>
  <fix>3d</fix>
</trkpt>
<trkpt lat="33.8103139" lon="-118.3938782">
  <ele>-27.6</ele>
  <time>2026-09-01T01:13:22Z</time>
  <course>275.12</course>
  <speed>0.01</speed>
  <fix>3d</fix>
</trkpt>
<trkpt lat="33.8103141" lon="-118.3938783">
  <ele>-28.509</ele>
  <time>2026-09-01T01:13:22Z</time>
  <course>184.05</course>
  <speed>0.03605551275463989</speed>
  <fix>3d</fix>
</trkpt>
<trkpt lat="33.8103141" lon="-118.3938783">
  <ele>-28.604</ele>
  <time>2026-09-01T01:13:22Z</time>
  <course>184.06</course>
  <speed>0.03605551275463989</speed>
  <fix>3d</fix>
</trkpt>
<trkpt lat="33.8103139" lon="-118.3938782">
  <ele>-27.6</ele>
  <time>2026-09-01T01:13:22Z</time>
  <course>275.12</course>
  <speed>0.01</speed>
  <fix>3d</fix>
</trkpt>
<trkpt lat="33.8103141" lon="-118.3938783">
  <ele>-28.633</ele>
  <time>2026-09-01T01:13:22Z</time>
  <course>184.06</course>
  <speed>0.03605551275463989</speed>
  <fix>3d</fix>
</trkpt>
<trkpt lat="33.8103141" lon="-118.3938783">
  <ele>-28.702</ele>
  <time>2026-09-01T01:13:22Z</time>
  <course>184.07</course>
  <speed>0.03605551275463989</speed>
  <fix>3d</fix>
</trkpt>
<trkpt lat="33.8103139" lon="-118.3938782">
  <ele>-27.79</ele>
  <time>2026-09-01T01:13:22Z</time>
  <course>275.12</course>
  <speed>0.01</speed>
  <fix>3d</fix>
</trkpt>
<trkpt lat="33.8103141" lon="-118.3938783">
  <ele>-28.732</ele>
  <time>2026-09-01T01:13:22Z</time>
  <course>184.08</course>
  <speed>0.03605551275463989</speed>
  <fix>3d</fix>
</trkpt>
<trkpt lat="33.8103141" lon="-118.3938783">
  <ele>-28.799</ele>
  <time>2026-09-01T01:13:22Z</time>
  <course>184.09</course>
  <speed>0.03605551275463989</speed>
  <fix>3d</fix>
</trkpt>
<trkpt lat="33.8103139" lon="-118.3938782">
  <ele>-27.79</ele>
  <time>2026-09-01T01:13:22Z</time>
  <course>275.12</course>
  <speed>0.01</speed>
  <fix>3d</fix>
</trkpt>
<trkpt lat="33.8103141" lon="-118.3938783">
  <ele>-28.823</ele>
  <time>2026-09-01T01:13:22Z</time>
  <course>184.09</course>
  <speed>0.03605551275463989</speed>
  <fix>3d</fix>
</trkpt>
<trkpt lat="33.8103141" lon="-118.3938784">
  <ele>-28.896</ele>
  <time>2026-09-01T01:13:22Z</time>
  <course>184.1</course>
  <speed>0.03605551275463989</speed>
  <fix>3d</fix>
</trkpt>
<trkpt lat="33.8103139" lon="-118.3938782">
  <ele>-27.98</ele>
  <time>2026-09-01T01:13:22Z</time>
  <course>275.13</course>
  <speed>0.01</speed>
  <fix>3d</fix>
</trkpt>
<trkpt lat="33.8103141" lon="-118.3938784">
  <ele>-28.926</ele>
  <time>2026-09-01T01:13:22Z</time>
  <course>184.1</course>
  <speed>0.03605551275463989</speed>
  <fix>3d</fix>
</trkpt>
<trkpt lat="33.8103141" lon="-118.3938784">
  <ele>-28.994</ele>
  <time>2026-09-01T01:13:22Z</time>
  <course>184.11</course>
  <speed>0.03605551275463989</speed>
  <fix>3d</fix>
</trkpt>
<trkpt lat="33.8103139" lon="-118.3938782">
  <ele>-27.98</ele>
  <time>2026-09-01T01:13:22Z</time>
  <course>275.13</course>
  <speed>0.01</speed>
  <fix>3d</fix>
</trkpt>
<trkpt lat="33.8103141" lon="-118.3938784">
  <ele>-28.996</ele>
  <time>2026-09-01T01:13:22Z</time>
  <course>184.11</course>
  <speed>0.03605551275463989</speed>
  <fix>3d</fix>
</trkpt>
<trkpt lat="33.8103141" lon="-118.3938784">
  <ele>-29.092</ele>
  <time>2026-09-01T01:13:22Z</time>
  <course>184.13</course>
  <speed>0.03605551275463989</speed>
  <fix>3d</fix>
</trkpt>
<trkpt lat="33.8103139" lon="-118.3938782">
  <ele>-28.17</ele>
  <time>2026-09-01T01:13:22Z</time>
  <course>275.13</course>
  <speed>0.01</speed>
  <fix>3d</fix>
</trkpt>
<trkpt lat="33.8103141" lon="-118.3938784">
  <ele>-29.124</ele>
  <time>2026-09-01T01:13:22Z</time>
  <course>184.13</course>
  <speed>0.03605551275463989</speed>
  <fix>3d</fix>
</trkpt>
<trkpt lat="33.8103141" lon="-118.3938784">
  <ele>-29.19</ele>
  <time>2026-09-01T01:13:22Z</time>
  <course>184.14</course>
  <speed>0.03605551275463989</speed>
  <fix>3d</fix>
</trkpt>
<trkpt lat="33.8103139" lon="-118.3938782">
  <ele>-28.17</ele>
  <time>2026-09-01T01:13:22Z</time>
  <course>275.13</course>
  <speed>0.01</speed>
  <fix>3d</fix>
</trkpt>
<trkpt lat="33.8103141" lon="-118.3938784">
  <ele>-29.219</ele>
  <time>2026-09-01T01:13:22Z</time>
  <course>184.14</course>
  <speed>0.03605551275463989</speed>
  <fix>3d</fix>
</trkpt>
<trkpt lat="33.8103141" lon="-118.3938784">
  <ele>-29.287</ele>
  <time>2026-09-01T01:13:22Z</time>
  <course>184.15</course>
  <speed>0.03605551275463989</speed>
  <fix>3d</fix>
</trkpt>
<trkpt lat="33.8103139" lon="-118.3938783">
  <ele>-28.36</ele>
  <time>2026-09-01T01:13:22Z</time>
  <course>275.13</course>
  <speed>0.01</speed>
  <fix>3d</fix>
</trkpt>
<trkpt lat="33.8103141" lon="-118.3938784">
  <ele>-29.317</ele>
  <time>2026-09-01T01:13:22Z</time>
  <course>184.16</course>
  <speed>0.03605551275463989</speed>
  <fix>3d</fix>
</trkpt>
<trkpt lat="33.8103141" lon="-118.3938784">
  <ele>-29.386</ele>
  <time>2026-09-01T01:13:22Z</time>
  <course>184.17</course>
  <speed>0.03605551275463989</speed>
  <fix>3d</fix>
</trkpt>
<trkpt lat="33.8103139" lon="-118.3938783">
  <ele>-28.36</ele>
  <time>2026-09-01T01:13:22Z</time>
  <course>275.13</course>
  <speed>0.01</speed>
  <fix>3d</fix>
</trkpt>
<trkpt lat="33.8103141" lon="-118.3938784">
  <ele>-29.42</ele>
  <time>2026-09-01T01:13:22Z</time>
  <course>184.17</course>
  <speed>0.03605551275463989</speed>
  <fix>3d</fix>
</trkpt>
<trkpt lat="33.8103141" lon="-118.3938785">
  <ele>-29.484</ele>
  <time>2026-09-01T01:13:22Z</time>
  <course>184.18</course>
  <speed>0.03605551275463989</speed>
  <fix>3d</fix>
</trkpt>
<trkpt lat="33.8103139" lon="-118.3938783">
  <ele>-28.56</ele>
  <time>2026-09-01T01:13:22Z</time>
  <course>275.13</course>
  <speed>0.01</speed>
  <fix>3d</fix>
</trkpt>
<trkpt lat="33.8103141" lon="-118.3938785">
  <ele>-29.513</ele>
  <time>2026-09-01T01:13:22Z</time>
  <course>184.18</course>
  <speed>0.03605551275463989</speed>
  <fix>3d</fix>
</trkpt>
<trkpt lat="33.8103141" lon="-118.3938785">
  <ele>-29.582</ele>
  <time>2026-09-01T01:13:22Z</time>
  <course>184.19</course>
  <speed>0.03605551275463989</speed>
  <fix>3d</fix>
</trkpt>
<trkpt lat="33.8103139" lon="-118.3938783">
  <ele>-28.56</ele>
  <time>2026-09-01T01:13:22Z</time>
  <course>275.13</course>
  <speed>0.01</speed>
  <fix>3d</fix>
</trkpt>
<trkpt lat="33.8103141" lon="-118.3938785">
  <ele>-29.585</ele>
  <time>2026-09-01T01:13:22Z</time>
  <course>184.19</course>
  <speed>0.03605551275463989</speed>
  <fix>3d</fix>
</trkpt>
<trkpt lat="33.8103141" lon="-118.3938785">
  <ele>-29.68</ele>
  <time>2026-09-01T01:13:22Z</time>
  <course>184.2</course>
  <speed>0.03605551275463989</speed>
  <fix>3d</fix>
</trkpt>
<trkpt lat="33.8103139" lon="-118.3938783">
  <ele>-28.75</ele>
  <time>2026-09-01T01:13:22Z</time>
  <course>275.14</course>
  <speed>0.01</speed>
  <fix>3d</fix>
</trkpt>
<trkpt lat="33.8103141" lon="-118.3938785">
  <ele>-29.683</ele>
  <time>2026-09-01T01:13:22Z</time>
  <course>184.2</course>
  <speed>0.03605551275463989</speed>
  <fix>3d</fix>
</trkpt>
<trkpt lat="33.8103141" lon="-118.3938785">
  <ele>-29.778</ele>
  <time>2026-09-01T01:13:22Z</time>
  <course>184.22</course>
  <speed>0.03605551275463989</speed>
  <fix>3d</fix>
</trkpt>
<trkpt lat="33.8103139" lon="-118.3938783">
  <ele>-28.75</ele>
  <time>2026-09-01T01:13:22Z</time>
  <course>275.14</course>
  <speed>0.01</speed>
  <fix>3d</fix>
</trkpt>
<trkpt lat="33.8103141" lon="-118.3938785">
  <ele>-29.807</ele>
  <time>2026-09-01T01:13:22Z</time>
  <course>184.22</course>
  <speed>0.03605551275463989</speed>
  <fix>3d</fix>
</trkpt>
<trkpt lat="33.8103141" lon="-118.3938785">
  <ele>-29.875</ele>
  <time>2026-09-01T01:13:22Z</time>
  <course>184.23</course>
  <speed>0.03605551275463989</speed>
  <fix>3d</fix>
</trkpt>
<trkpt lat="33.8103139" lon="-118.3938784">
  <ele>-28.94</ele>
  <time>2026-09-01T01:13:22Z</time>
  <course>275.15</course>
  <speed>0.01</speed>
  <fix>3d</fix>
</trkpt>
<trkpt lat="33.8103141" lon="-118.3938785">
  <ele>-29.907</ele>
  <time>2026-09-01T01:13:22Z</time>
  <course>184.24</course>
  <speed>0.03605551275463989</speed>
  <fix>3d</fix>
</trkpt>
<trkpt lat="33.8103141" lon="-118.3938785">
  <ele>-29.973</ele>
  <time>2026-09-01T01:13:22Z</time>
  <course>184.24</course>
  <speed>0.03605551275463989</speed>
  <fix>3d</fix>
</trkpt>
<trkpt lat="33.8103139" lon="-118.3938784">
  <ele>-28.94</ele>
  <time>2026-09-01T01:13:22Z</time>
  <course>275.15</course>
  <speed>0.01</speed>
  <fix>3d</fix>
</trkpt>
<trkpt lat="33.8103141" lon="-118.3938785">
  <ele>-29.975</ele>
  <time>2026-09-01T01:13:22Z</time>
  <course>184.24</course>
  <speed>0.03605551275463989</speed>
  <fix>3d</fix>
</trkpt>
<trkpt lat="33.8103141" lon="-118.3938785">
  <ele>-30.071</ele>
  <time>2026-09-01T01:13:22Z</time>
  <course>184.26</course>
  <speed>0.03605551275463989</speed>
  <fix>3d</fix>
</trkpt>
<trkpt lat="33.8103139" lon="-118.3938784">
  <ele>-29.13</ele>
  <time>2026-09-01T01:13:22Z</time>
  <course>275.15</course>
  <speed>0.01</speed>
  <fix>3d</fix>
</trkpt>
<trkpt lat="33.8103141" lon="-118.3938785">
  <ele>-30.103</ele>
  <time>2026-09-01T01:13:22Z</time>
  <course>184.26</course>
  <speed>0.03605551275463989</speed>
  <fix>3d</fix>
</trkpt>
<trkpt lat="33.8103141" lon="-118.3938786">
  <ele>-30.169</ele>
  <time>2026-09-01T01:13:22Z</time>
  <course>184.27</course>
  <speed>0.03605551275463989</speed>
  <fix>3d</fix>
</trkpt>
<trkpt lat="33.8103139" lon="-118.3938784">
  <ele>-29.13</ele>
  <time>2026-09-01T01:13:22Z</time>
  <course>275.15</course>
  <speed>0.01</speed>
  <fix>3d</fix>
</trkpt>
<trkpt lat="33.8103141" lon="-118.3938786">
  <ele>-30.266</ele>
  <time>2026-09-01T01:13:22Z</time>
  <course>184.28</course>
  <speed>0.03605551275463989</speed>
  <fix>3d</fix>
</trkpt>
<trkpt lat="33.8103139" lon="-118.3938784">
  <ele>-29.32</ele>
  <time>2026-09-01T01:13:22Z</time>
  <course>275.15</course>
  <speed>0.01</speed>
  <fix>3d</fix>
</trkpt>
<trkpt lat="33.8103141" lon="-118.3938786">
  <ele>-30.364</ele>
  <time>2026-09-01T01:13:22Z</time>
  <course>184.3</course>
  <speed>0.03605551275463989</speed>
  <fix>3d</fix>
</trkpt>
<trkpt lat="33.8103139" lon="-118.3938784">
  <ele>-29.32</ele>
  <time>2026-09-01T01:13:22Z</time>
  <course>275.15</course>
  <speed>0.01</speed>
  <fix>3d</fix>
</trkpt>
<trkpt lat="33.8103141" lon="-118.3938786">
  <ele>-30.462</ele>
  <time>2026-09-01T01:13:22Z</time>
  <course>184.31</course>
  <speed>0.03605551275463989</speed>
  <fix>3d</fix>
</trkpt>
<trkpt lat="33.8103139" lon="-118.3938785">
  <ele>-29.51</ele>
  <time>2026-09-01T01:13:22Z</time>
  <course>275.16</course>
  <speed>0.01</speed>
  <fix>3d</fix>
</trkpt>
<trkpt lat="33.8103141" lon="-118.3938786">
  <ele>-30.558</ele>
  <time>2026-09-01T01:13:22Z</time>
  <course>184.32</course>
  <speed>0.03605551275463989</speed>
  <fix>3d</fix>
</trkpt>
<trkpt lat="33.8103139" lon="-118.3938785">
  <ele>-29.51</ele>
  <time>2026-09-01T01:13:22Z</time>
  <course>275.16</course>
  <speed>0.01</speed>
  <fix>3d</fix>
</trkpt>
<trkpt lat="33.8103141" lon="-118.3938786">
  <ele>-30.649</ele>
  <time>2026-09-01T01:13:22Z</time>
  <course>184.33</course>
  <speed>0.03605551275463989</speed>
  <fix>3d</fix>
</trkpt>
<trkpt lat="33.8103139" lon="-118.3938785">
  <ele>-29.7</ele>
  <time>2026-09-01T01:13:22Z</time>
  <course>275.18</course>
  <speed>0.01</speed>
  <fix>3d</fix>
</trkpt>
<trkpt lat="33.8103141" lon="-118.3938786">
  <ele>-30.733</ele>
  <time>2026-09-01T01:13:22Z</time>
  <course>184.35</course>
  <speed>0.03605551275463989</speed>
  <fix>3d</fix>
</trkpt>
<trkpt lat="33.8103139" lon="-118.3938785">
  <ele>-29.7</ele>
  <time>2026-09-01T01:13:22Z</time>
  <course>275.18</course>
  <speed>0.01</speed>
  <fix>3d</fix>
</trkpt>
<trkpt lat="33.8103141" lon="-118.3938787">
  <ele>-30.804</ele>
  <time>2026-09-01T01:13:22Z</time>
  <course>184.36</course>
  <speed>0.03605551275463989</speed>
  <fix>3d</fix>
</trkpt>
<trkpt lat="33.8103139" lon="-118.3938785">
  <ele>-29.88</ele>
  <time>2026-09-01T01:13:22Z</time>
  <course>275.24</course>
  <speed>0.01</speed>
  <fix>3d</fix>
</trkpt>
<trkpt lat="33.8103141" lon="-118.3938787">
  <ele>-30.859</ele>
  <time>2026-09-01T01:13:22Z</time>
  <course>184.37</course>
  <speed>0.03605551275463989</speed>
  <fix>3d</fix>
</trkpt>
<trkpt lat="33.8103139" lon="-118.3938785">
  <ele>-29.88</ele>
  <time>2026-09-01T01:13:22Z</time>
  <course>275.24</course>
  <speed>0.01</speed>
  <fix>3d</fix>
</trkpt>
<trkpt lat="33.8103141" lon="-118.3938787">
  <ele>-30.897</ele>
  <time>2026-09-01T01:13:22Z</time>
  <course>184.38</course>
  <speed>0.03605551275463989</speed>
  <fix>3d</fix>
</trkpt>
<trkpt lat="33.8103139" lon="-118.3938785">
  <ele>-30.02</ele>
  <time>2026-09-01T01:13:22Z</time>
  <course>275.36</course>
  <speed>0.01</speed>
  <fix>3d</fix>
</trkpt>
<trkpt lat="33.8103141" lon="-118.3938787">
  <ele>-30.916</ele>
  <time>2026-09-01T01:13:22Z</time>
  <course>184.4</course>
  <speed>0.03605551275463989</speed>
  <fix>3d</fix>
</trkpt>
<trkpt lat="33.8103139" lon="-118.3938785">
  <ele>-30.02</ele>
  <time>2026-09-01T01:13:22Z</time>
  <course>275.36</course>
  <speed>0.01</speed>
  <fix>3d</fix>
</trkpt>
<trkpt lat="33.8103141" lon="-118.3938787">
  <ele>-30.913</ele>
  <time>2026-09-01T01:13:22Z</time>
  <course>184.41</course>
  <speed>0.03605551275463989</speed>
  <fix>3d</fix>
</trkpt>
<trkpt lat="33.8103139" lon="-118.3938786">
  <ele>-30.1</ele>
  <time>2026-09-01T01:13:22Z</time>
  <course>275.54</course>
  <speed>0.01</speed>
  <fix>3d</fix>
</trkpt>
<trkpt lat="33.8103141" lon="-118.3938787">
  <ele>-30.89</ele>
  <time>2026-09-01T01:13:22Z</time>
  <course>184.42</course>
  <speed>0.03605551275463989</speed>
  <fix>3d</fix>
</trkpt>
<trkpt lat="33.8103139" lon="-118.3938786">
  <ele>-30.1</ele>
  <time>2026-09-01T01:13:22Z</time>
  <course>275.54</course>
  <speed>0.01</speed>
  <fix>3d</fix>
</trkpt>
<trkpt lat="33.8103141" lon="-118.3938787">
  <ele>-30.853</ele>
  <time>2026-09-01T01:13:22Z</time>
  <course>184.44</course>
  <speed>0.03605551275463989</speed>
  <fix>3d</fix>
</trkpt>
<trkpt lat="33.8103139" lon="-118.3938786">
  <ele>-30.11</ele>
  <time>2026-09-01T01:13:22Z</time>
  <course>275.79</course>
  <speed>0.0</speed>
  <fix>3d</fix>
</trkpt>
<trkpt lat="33.8103141" lon="-118.3938787">
  <ele>-30.806</ele>
  <time>2026-09-01T01:13:22Z</time>
  <course>184.45</course>
  <speed>0.03605551275463989</speed>
  <fix>3d</fix>
</trkpt>
<trkpt lat="33.8103139" lon="-118.3938786">
  <ele>-30.11</ele>
  <time>2026-09-01T01:13:22Z</time>
  <course>275.79</course>
  <speed>0.0</speed>
  <fix>3d</fix>
</trkpt>
<trkpt lat="33.8103141" lon="-118.3938788">
  <ele>-30.751</ele>
  <time>2026-09-01T01:13:22Z</time>
  <course>184.46</course>
  <speed>0.03605551275463989</speed>
  <fix>3d</fix>
</trkpt>
<trkpt lat="33.8103139" lon="-118.3938786">
  <ele>-30.06</ele>
  <time>2026-09-01T01:13:22Z</time>
  <course>276.06</course>
  <speed>0.0</speed>
  <fix>3d</fix>
</trkpt>
<trkpt lat="33.8103141" lon="-118.3938788">
  <ele>-30.69</ele>
  <time>2026-09-01T01:13:22Z</time>
  <course>184.47</course>
  <speed>0.03605551275463989</speed>
  <fix>3d</fix>
</trkpt>
<trkpt lat="33.8103139" lon="-118.3938786">
  <ele>-30.06</ele>
  <time>2026-09-01T01:13:22Z</time>
  <course>276.06</course>
  <speed>0.0</speed>
  <fix>3d</fix>
</trkpt>
<trkpt lat="33.8103141" lon="-118.3938788">
  <ele>-30.625</ele>
  <time>2026-09-01T01:13:22Z</time>
  <course>184.49</course>
  <speed>0.0282842712474619</speed>
  <fix>3d</fix>
</trkpt>
<trkpt lat="33.8103139" lon="-118.3938786">
  <ele>-29.96</ele>
  <time>2026-09-01T01:13:22Z</time>
  <course>276.25</course>
  <speed>0.0</speed>
  <fix>3d</fix>
</trkpt>
<trkpt lat="33.8103141" lon="-118.3938788">
  <ele>-30.559</ele>
  <time>2026-09-01T01:13:22Z</time>
  <course>184.5</course>
  <speed>0.0282842712474619</speed>
  <fix>3d</fix>
</trkpt>
<trkpt lat="33.8103139" lon="-118.3938786">
  <ele>-29.96</ele>
  <time>2026-09-01T01:13:22Z</time>
  <course>276.25</course>
  <speed>0.0</speed>
  <fix>3d</fix>
</trkpt>
<trkpt lat="33.8103141" lon="-118.3938788">
  <ele>-30.491</ele>
  <time>2026-09-01T01:13:22Z</time>
  <course>184.51</course>
  <speed>0.0282842712474619</speed>
  <fix>3d</fix>
</trkpt>
<trkpt lat="33.8103139" lon="-118.3938786">
  <ele>-29.85</ele>
  <time>2026-09-01T01:13:22Z</time>
  <course>276.37</course>
  <speed>0.0</speed>
  <fix>3d</fix>
</trkpt>
<trkpt lat="33.8103141" lon="-118.3938788">
  <ele>-30.424</ele>
  <time>2026-09-01T01:13:22Z</time>
  <course>184.53</course>
  <speed>0.0282842712474619</speed>
  <fix>3d</fix>
</trkpt>
<trkpt lat="33.8103139" lon="-118.3938786">
  <ele>-29.85</ele>
  <time>2026-09-01T01:13:22Z</time>
  <course>276.37</course>
  <speed>0.0</speed>
  <fix>3d</fix>
</trkpt>
<trkpt lat="33.8103141" lon="-118.3938788">
  <ele>-30.359</ele>
  <time>2026-09-01T01:13:22Z</time>
  <course>184.54</course>
  <speed>0.0282842712474619</speed>
  <fix>3d</fix>
</trkpt>
<trkpt lat="33.8103139" lon="-118.3938786">
  <ele>-29.74</ele>
  <time>2026-09-01T01:13:22Z</time>
  <course>276.4</course>
  <speed>0.0</speed>
  <fix>3d</fix>
</trkpt>
<trkpt lat="33.8103141" lon="-118.3938788">
  <ele>-30.297</ele>
  <time>2026-09-01T01:13:22Z</time>
  <course>184.55</course>
  <speed>0.0282842712474619</speed>
  <fix>3d</fix>
</trkpt>
<trkpt lat="33.8103139" lon="-118.3938786">
  <ele>-29.74</ele>
  <time>2026-09-01T01:13:22Z</time>
  <course>276.4</course>
  <speed>0.0</speed>
  <fix>3d</fix>
</trkpt>
<trkpt lat="33.8103141" lon="-118.3938788">
  <ele>-30.24</ele>
  <time>2026-09-01T01:13:22Z</time>
  <course>184.57</course>
  <speed>0.0282842712474619</speed>
  <fix>3d</fix>
</trkpt>
<trkpt lat="33.8103139" lon="-118.3938786">
  <ele>-29.62</ele>
  <time>2026-09-01T01:13:22Z</time>
  <course>276.37</course>
  <speed>0.0</speed>
  <fix>3d</fix>
</trkpt>
<trkpt lat="33.8103141" lon="-118.3938788">
  <ele>-30.188</ele>
  <time>2026-09-01T01:13:22Z</time>
  <course>184.58</course>
  <speed>0.0282842712474619</speed>
  <fix>3d</fix>
</trkpt>
<trkpt lat="33.8103139" lon="-118.3938786">
  <ele>-29.62</ele>
  <time>2026-09-01T01:13:22Z</time>
  <course>276.37</course>
  <speed>0.0</speed>
  <fix>3d</fix>
</trkpt>
<trkpt lat="33.8103141" lon="-118.3938788">
  <ele>-30.142</ele>
  <time>2026-09-01T01:13:22Z</time>
  <course>184.59</course>
  <speed>0.0282842712474619</speed>
  <fix>3d</fix>
</trkpt>
<trkpt lat="33.8103139" lon="-118.3938786">
  <ele>-29.52</ele>
  <time>2026-09-01T01:13:22Z</time>
  <course>276.28</course>
  <speed>0.0</speed>
  <fix>3d</fix>
</trkpt>
<trkpt lat="33.8103141" lon="-118.3938788">
  <ele>-30.103</ele>
  <time>2026-09-01T01:13:22Z</time>
  <course>184.6</course>
  <speed>0.0282842712474619</speed>
  <fix>3d</fix>
</trkpt>
<trkpt lat="33.8103139" lon="-118.3938786">
  <ele>-29.52</ele>
  <time>2026-09-01T01:13:22Z</time>
  <course>276.28</course>
  <speed>0.0</speed>
  <fix>3d</fix>
</trkpt>
<trkpt lat="33.8103141" lon="-118.3938788">
  <ele>-30.071</ele>
  <time>2026-09-01T01:13:22Z</time>
  <course>184.62</course>
  <speed>0.0282842712474619</speed>
  <fix>3d</fix>
</trkpt>
<trkpt lat="33.8103139" lon="-118.3938786">
  <ele>-29.43</ele>
  <time>2026-09-01T01:13:22Z</time>
  <course>276.17</course>
  <speed>0.0</speed>
  <fix>3d</fix>
</trkpt>
<trkpt lat="33.8103141" lon="-118.3938788">
  <ele>-30.047</ele>
  <time>2026-09-01T01:13:22Z</time>
  <course>184.63</course>
  <speed>0.0282842712474619</speed>
  <fix>3d</fix>
</trkpt>
<trkpt lat="33.8103139" lon="-118.3938786">
  <ele>-29.43</ele>
  <time>2026-09-01T01:13:22Z</time>
  <course>276.17</course>
  <speed>0.0</speed>
  <fix>3d</fix>
</trkpt>
<trkpt lat="33.8103141" lon="-118.3938788">
  <ele>-30.031</ele>
  <time>2026-09-01T01:13:22Z</time>
  <course>184.64</course>
  <speed>0.0282842712474619</speed>
  <fix>3d</fix>
</trkpt>
<trkpt lat="33.8103139" lon="-118.3938786">
  <ele>-29.37</ele>
  <time>2026-09-01T01:13:22Z</time>
  <course>276.07</course>
  <speed>0.0</speed>
  <fix>3d</fix>
</trkpt>
<trkpt lat="33.8103141" lon="-118.3938788">
  <ele>-30.023</ele>
  <time>2026-09-01T01:13:22Z</time>
  <course>184.65</course>
  <speed>0.0282842712474619</speed>
  <fix>3d</fix>
</trkpt>
<trkpt lat="33.8103139" lon="-118.3938786">
  <ele>-29.37</ele>
  <time>2026-09-01T01:13:22Z</time>
  <course>276.07</course>
  <speed>0.0</speed>
  <fix>3d</fix>
</trkpt>
<trkpt lat="33.8103141" lon="-118.3938788">
  <ele>-30.022</ele>
  <time>2026-09-01T01:13:22Z</time>
  <course>184.67</course>
  <speed>0.0282842712474619</speed>
  <fix>3d</fix>
</trkpt>
<trkpt lat="33.8103139" lon="-118.3938787">
  <ele>-29.34</ele>
  <time>2026-09-01T01:13:22Z</time>
  <course>276.0</course>
  <speed>0.0</speed>
  <fix>3d</fix>
</trkpt>
<trkpt lat="33.8103141" lon="-118.3938788">
  <ele>-30.026</ele>
  <time>2026-09-01T01:13:22Z</time>
  <course>184.68</course>
  <speed>0.022360679774997897</speed>
  <fix>3d</fix>
</trkpt>
<trkpt lat="33.8103139" lon="-118.3938787">
  <ele>-29.34</ele>
  <time>2026-09-01T01:13:22Z</time>
  <course>276.0</course>
  <speed>0.0</speed>
  <fix>3d</fix>
</trkpt>
<trkpt lat="33.8103141" lon="-118.3938788">
  <ele>-30.037</ele>
  <time>2026-09-01T01:13:22Z</time>
  <course>184.69</course>
  <speed>0.022360679774997897</speed>
  <fix>3d</fix>
</trkpt>
<trkpt lat="33.8103139" lon="-118.3938788">
  <ele>-29.33</ele>
  <time>2026-09-01T01:13:22Z</time>
  <course>275.92</course>
  <speed>0.0</speed>
  <fix>3d</fix>
</trkpt>
<trkpt lat="33.8103141" lon="-118.3938788">
  <ele>-30.052</ele>
  <time>2026-09-01T01:13:22Z</time>
  <course>184.7</course>
  <speed>0.022360679774997897</speed>
  <fix>3d</fix>
</trkpt>
<trkpt lat="33.8103139" lon="-118.3938788">
  <ele>-29.33</ele>
  <time>2026-09-01T01:13:22Z</time>
  <course>275.92</course>
  <speed>0.0</speed>
  <fix>3d</fix>
</trkpt>
<trkpt lat="33.8103141" lon="-118.3938788">
  <ele>-30.071</ele>
  <time>2026-09-01T01:13:22Z</time>
  <course>184.71</course>
  <speed>0.022360679774997897</speed>
  <fix>3d</fix>
</trkpt>
<trkpt lat="33.810314" lon="-118.3938788">
  <ele>-29.35</ele>
  <time>2026-09-01T01:13:22Z</time>
  <course>275.85</course>
  <speed>0.0</speed>
  <fix>3d</fix>
</trkpt>
<trkpt lat="33.8103141" lon="-118.3938789">
  <ele>-30.092</ele>
  <time>2026-09-01T01:13:22Z</time>
  <course>184.72</course>
  <speed>0.022360679774997897</speed>
  <fix>3d</fix>
</trkpt>
<trkpt lat="33.810314" lon="-118.3938788">
  <ele>-29.35</ele>
  <time>2026-09-01T01:13:22Z</time>
  <course>275.85</course>
  <speed>0.0</speed>
  <fix>3d</fix>
</trkpt>
<trkpt lat="33.8103141" lon="-118.3938789">
  <ele>-30.115</ele>
  <time>2026-09-01T01:13:22Z</time>
  <course>184.74</course>
  <speed>0.022360679774997897</speed>
  <fix>3d</fix>
</trkpt>
<trkpt lat="33.810314" lon="-118.3938788">
  <ele>-29.37</ele>
  <time>2026-09-01T01:13:22Z</time>
  <course>275.82</course>
  <speed>0.0</speed>
  <fix>3d</fix>
</trkpt>
<trkpt lat="33.8103141" lon="-118.3938789">
  <ele>-30.139</ele>
  <time>2026-09-01T01:13:22Z</time>
  <course>184.75</course>
  <speed>0.022360679774997897</speed>
  <fix>3d</fix>
</trkpt>
<trkpt lat="33.810314" lon="-118.3938788">
  <ele>-29.37</ele>
  <time>2026-09-01T01:13:22Z</time>
  <course>275.82</course>
  <speed>0.0</speed>
  <fix>3d</fix>
</trkpt>
<trkpt lat="33.8103141" lon="-118.3938789">
  <ele>-30.163</ele>
  <time>2026-09-01T01:13:22Z</time>
  <course>184.76</course>
  <speed>0.022360679774997897</speed>
  <fix>3d</fix>
</trkpt>
<trkpt lat="33.810314" lon="-118.3938788">
  <ele>-29.41</ele>
  <time>2026-09-01T01:13:22Z</time>
  <course>275.81</course>
  <speed>0.0</speed>
  <fix>3d</fix>
</trkpt>
<trkpt lat="33.8103141" lon="-118.3938789">
  <ele>-30.188</ele>
  <time>2026-09-01T01:13:22Z</time>
  <course>184.77</course>
  <speed>0.022360679774997897</speed>
  <fix>3d</fix>
</trkpt>
<trkpt lat="33.810314" lon="-118.3938788">
  <ele>-29.41</ele>
  <time>2026-09-01T01:13:22Z</time>
  <course>275.81</course>
  <speed>0.0</speed>
  <fix>3d</fix>
</trkpt>
<trkpt lat="33.8103141" lon="-118.3938789">
  <ele>-30.212</ele>
  <time>2026-09-01T01:13:22Z</time>
  <course>184.78</course>
  <speed>0.0282842712474619</speed>
  <fix>3d</fix>
</trkpt>
<trkpt lat="33.810314" lon="-118.3938788">
  <ele>-29.45</ele>
  <time>2026-09-01T01:13:22Z</time>
  <course>275.81</course>
  <speed>0.0</speed>
  <fix>3d</fix>
</trkpt>
<trkpt lat="33.8103141" lon="-118.3938789">
  <ele>-30.234</ele>
  <time>2026-09-01T01:13:22Z</time>
  <course>184.79</course>
  <speed>0.0282842712474619</speed>
  <fix>3d</fix>
</trkpt>
<trkpt lat="33.810314" lon="-118.3938788">
  <ele>-29.45</ele>
  <time>2026-09-01T01:13:22Z</time>
  <course>275.81</course>
  <speed>0.0</speed>
  <fix>3d</fix>
</trkpt>
<trkpt lat="33.8103141" lon="-118.3938789">
  <ele>-30.256</ele>
  <time>2026-09-01T01:13:22Z</time>
  <course>184.81</course>
  <speed>0.0282842712474619</speed>
  <fix>3d</fix>
</trkpt>
<trkpt lat="33.810314" lon="-118.3938789">
  <ele>-29.49</ele>
  <time>2026-09-01T01:13:22Z</time>
  <course>275.83</course>
  <speed>0.0</speed>
  <fix>3d</fix>
</trkpt>
<trkpt lat="33.8103141" lon="-118.3938789">
  <ele>-30.276</ele>
  <time>2026-09-01T01:13:22Z</time>
  <course>184.82</course>
  <speed>0.0282842712474619</speed>
  <fix>3d</fix>
</trkpt>
<trkpt lat="33.810314" lon="-118.3938789">
  <ele>-29.49</ele>
  <time>2026-09-01T01:13:22Z</time>
  <course>275.83</course>
  <speed>0.0</speed>
  <fix>3d</fix>
</trkpt>
<trkpt lat="33.8103141" lon="-118.393879">
  <ele>-30.294</ele>
  <time>2026-09-01T01:13:22Z</time>
  <course>184.83</course>
  <speed>0.0282842712474619</speed>
  <fix>3d</fix>
</trkpt>
<trkpt lat="33.810314" lon="-118.3938789">
  <ele>-29.52</ele>
  <time>2026-09-01T01:13:22Z</time>
  <course>275.85</course>
  <speed>0.0</speed>
  <fix>3d</fix>
</trkpt>
<trkpt lat="33.8103141" lon="-118.393879">
  <ele>-30.309</ele>
  <time>2026-09-01T01:13:22Z</time>
  <course>184.84</course>
  <speed>0.0282842712474619</speed>
  <fix>3d</fix>
</trkpt>
<trkpt lat="33.810314" lon="-118.3938789">
  <ele>-29.52</ele>
  <time>2026-09-01T01:13:22Z</time>
  <course>275.85</course>
  <speed>0.0</speed>
  <fix>3d</fix>
</trkpt>
<trkpt lat="33.8103141" lon="-118.393879">
  <ele>-30.323</ele>
  <time>2026-09-01T01:13:22Z</time>
  <course>184.85</course>
  <speed>0.0282842712474619</speed>
  <fix>3d</fix>
</trkpt>
<trkpt lat="33.810314" lon="-118.3938789">
  <ele>-29.55</ele>
  <time>2026-09-01T01:13:22Z</time>
  <course>275.87</course>
  <speed>0.0</speed>
  <fix>3d</fix>
</trkpt>
<trkpt lat="33.8103141" lon="-118.393879">
  <ele>-30.335</ele>
  <time>2026-09-01T01:13:22Z</time>
  <course>184.86</course>
  <speed>0.0282842712474619</speed>
  <fix>3d</fix>
</trkpt>
<trkpt lat="33.810314" lon="-118.3938789">
  <ele>-29.55</ele>
  <time>2026-09-01T01:13:22Z</time>
  <course>275.87</course>
  <speed>0.0</speed>
  <fix>3d</fix>
</trkpt>
<trkpt lat="33.8103141" lon="-118.393879">
  <ele>-30.344</ele>
  <time>2026-09-01T01:13:22Z</time>
  <course>184.87</course>
  <speed>0.0282842712474619</speed>
  <fix>3d</fix>
</trkpt>
<trkpt lat="33.810314" lon="-118.3938789">
  <ele>-29.58</ele>
  <time>2026-09-01T01:13:22Z</time>
  <course>275.89</course>
  <speed>0.0</speed>
  <fix>3d</fix>
</trkpt>
<trkpt lat="33.8103141" lon="-118.393879">
  <ele>-30.349</ele>
  <time>2026-09-01T01:13:22Z</time>
  <course>184.89</course>
  <speed>0.0282842712474619</speed>
  <fix>3d</fix>
</trkpt>
<trkpt lat="33.810314" lon="-118.3938789">
  <ele>-29.58</ele>
  <time>2026-09-01T01:13:22Z</time>
  <course>275.89</course>
  <speed>0.0</speed>
  <fix>3d</fix>
</trkpt>
<trkpt lat="33.8103141" lon="-118.393879">
  <ele>-30.352</ele>
  <time>2026-09-01T01:13:22Z</time>
  <course>184.9</course>
  <speed>0.0282842712474619</speed>
  <fix>3d</fix>
</trkpt>
<trkpt lat="33.810314" lon="-118.3938789">
  <ele>-29.59</ele>
  <time>2026-09-01T01:13:22Z</time>
  <course>275.91</course>
  <speed>0.0</speed>
  <fix>3d</fix>
</trkpt>
<trkpt lat="33.8103141" lon="-118.393879">
  <ele>-30.352</ele>
  <time>2026-09-01T01:13:22Z</time>
  <course>184.91</course>
  <speed>0.0282842712474619</speed>
  <fix>3d</fix>
</trkpt>
<trkpt lat="33.810314" lon="-118.3938789">
  <ele>-29.59</ele>
  <time>2026-09-01T01:13:22Z</time>
  <course>275.91</course>
  <speed>0.0</speed>
  <fix>3d</fix>
</trkpt>
<trkpt lat="33.8103141" lon="-118.393879">
  <ele>-30.35</ele>
  <time>2026-09-01T01:13:22Z</time>
  <course>184.92</course>
  <speed>0.0282842712474619</speed>
  <fix>3d</fix>
</trkpt>
<trkpt lat="33.810314" lon="-118.393879">
  <ele>-29.6</ele>
  <time>2026-09-01T01:13:22Z</time>
  <course>275.95</course>
  <speed>0.0</speed>
  <fix>3d</fix>
</trkpt>
<trkpt lat="33.8103141" lon="-118.3938791">
  <ele>-30.346</ele>
  <time>2026-09-01T01:13:22Z</time>
  <course>184.93</course>
  <speed>0.0282842712474619</speed>
  <fix>3d</fix>
</trkpt>
<trkpt lat="33.810314" lon="-118.393879">
  <ele>-29.6</ele>
  <time>2026-09-01T01:13:22Z</time>
  <course>275.95</course>
  <speed>0.0</speed>
  <fix>3d</fix>
</trkpt>
<trkpt lat="33.8103141" lon="-118.3938791">
  <ele>-30.341</ele>
  <time>2026-09-01T01:13:22Z</time>
  <course>184.94</course>
  <speed>0.0282842712474619</speed>
  <fix>3d</fix>
</trkpt>
<trkpt lat="33.810314" lon="-118.393879">
  <ele>-29.6</ele>
  <time>2026-09-01T01:13:22Z</time>
  <course>275.99</course>
  <speed>0.0</speed>
  <fix>3d</fix>
</trkpt>
<trkpt lat="33.8103141" lon="-118.3938791">
  <ele>-30.335</ele>
  <time>2026-09-01T01:13:22Z</time>
  <course>184.95</course>
  <speed>0.0282842712474619</speed>
  <fix>3d</fix>
</trkpt>
<trkpt lat="33.810314" lon="-118.393879">
  <ele>-29.6</ele>
  <time>2026-09-01T01:13:22Z</time>
  <course>275.99</course>
  <speed>0.0</speed>
  <fix>3d</fix>
</trkpt>
<trkpt lat="33.8103141" lon="-118.3938791">
  <ele>-30.328</ele>
  <time>2026-09-01T01:13:22Z</time>
  <course>184.96</course>
  <speed>0.0282842712474619</speed>
  <fix>3d</fix>
</trkpt>
<trkpt lat="33.810314" lon="-118.393879">
  <ele>-29.59</ele>
  <time>2026-09-01T01:13:22Z</time>
  <course>276.02</course>
  <speed>0.0</speed>
  <fix>3d</fix>
</trkpt>
<trkpt lat="33.8103141" lon="-118.3938791">
  <ele>-30.321</ele>
  <time>2026-09-01T01:13:22Z</time>
  <course>184.97</course>
  <speed>0.0282842712474619</speed>
  <fix>3d</fix>
</trkpt>
<trkpt lat="33.810314" lon="-118.393879">
  <ele>-29.59</ele>
  <time>2026-09-01T01:13:22Z</time>
  <course>276.02</course>
  <speed>0.0</speed>
  <fix>3d</fix>
</trkpt>
<trkpt lat="33.8103141" lon="-118.3938791">
  <ele>-30.313</ele>
  <time>2026-09-01T01:13:22Z</time>
  <course>184.99</course>
  <speed>0.0282842712474619</speed>
  <fix>3d</fix>
</trkpt>
<trkpt lat="33.810314" lon="-118.393879">
  <ele>-29.58</ele>
  <time>2026-09-01T01:13:22Z</time>
  <course>276.03</course>
  <speed>0.0</speed>
  <fix>3d</fix>
</trkpt>
<trkpt lat="33.8103141" lon="-118.3938791">
  <ele>-30.304</ele>
  <time>2026-09-01T01:13:22Z</time>
  <course>185.0</course>
  <speed>0.0282842712474619</speed>
  <fix>3d</fix>
</trkpt>
<trkpt lat="33.810314" lon="-118.393879">
  <ele>-29.58</ele>
  <time>2026-09-01T01:13:22Z</time>
  <course>276.03</course>
  <speed>0.0</speed>
  <fix>3d</fix>
</trkpt>
<trkpt lat="33.8103141" lon="-118.3938791">
  <ele>-30.295</ele>
  <time>2026-09-01T01:13:22Z</time>
  <course>185.01</course>
  <speed>0.0282842712474619</speed>
  <fix>3d</fix>
</trkpt>
<trkpt lat="33.810314" lon="-118.393879">
  <ele>-29.56</ele>
  <time>2026-09-01T01:13:22Z</time>
  <course>276.04</course>
  <speed>0.0</speed>
  <fix>3d</fix>
</trkpt>
<trkpt lat="33.8103141" lon="-118.3938791">
  <ele>-30.286</ele>
  <time>2026-09-01T01:13:22Z</time>
  <course>185.02</course>
  <speed>0.0282842712474619</speed>
  <fix>3d</fix>
</trkpt>
<trkpt lat="33.810314" lon="-118.393879">
  <ele>-29.56</ele>
  <time>2026-09-01T01:13:22Z</time>
  <course>276.04</course>
  <speed>0.0</speed>
  <fix>3d</fix>
</trkpt>
<trkpt lat="33.8103141" lon="-118.3938792">
  <ele>-30.277</ele>
  <time>2026-09-01T01:13:22Z</time>
  <course>185.03</course>
  <speed>0.0282842712474619</speed>
  <fix>3d</fix>
</trkpt>
<trkpt lat="33.810314" lon="-118.393879">
  <ele>-29.55</ele>
  <time>2026-09-01T01:13:22Z</time>
  <course>276.06</course>
  <speed>0.0</speed>
  <fix>3d</fix>
</trkpt>
<trkpt lat="33.8103141" lon="-118.3938792">
  <ele>-30.269</ele>
  <time>2026-09-01T01:13:22Z</time>
  <course>185.04</course>
  <speed>0.0282842712474619</speed>
  <fix>3d</fix>
</trkpt>
<trkpt lat="33.810314" lon="-118.393879">
  <ele>-29.55</ele>
  <time>2026-09-01T01:13:22Z</time>
  <course>276.06</course>
  <speed>0.0</speed>
  <fix>3d</fix>
</trkpt>
<trkpt lat="33.8103141" lon="-118.3938792">
  <ele>-30.262</ele>
  <time>2026-09-01T01:13:22Z</time>
  <course>185.05</course>
  <speed>0.0282842712474619</speed>
  <fix>3d</fix>
</trkpt>
<trkpt lat="33.810314" lon="-118.3938791">
  <ele>-29.54</ele>
  <time>2026-09-01T01:13:22Z</time>
  <course>276.07</course>
  <speed>0.0</speed>
  <fix>3d</fix>
</trkpt>
<trkpt lat="33.8103141" lon="-118.3938792">
  <ele>-30.256</ele>
  <time>2026-09-01T01:13:22Z</time>
  <course>185.06</course>
  <speed>0.0282842712474619</speed>
  <fix>3d</fix>
</trkpt>
<trkpt lat="33.810314" lon="-118.3938791">
  <ele>-29.54</ele>
  <time>2026-09-01T01:13:22Z</time>
  <course>276.07</course>
  <speed>0.0</speed>
  <fix>3d</fix>
</trkpt>
<trkpt lat="33.8103141" lon="-118.3938792">
  <ele>-30.252</ele>
  <time>2026-09-01T01:13:22Z</time>
  <course>185.07</course>
  <speed>0.0282842712474619</speed>
  <fix>3d</fix>
</trkpt>
<trkpt lat="33.810314" lon="-118.3938791">
  <ele>-29.52</ele>
  <time>2026-09-01T01:13:22Z</time>
  <course>276.08</course>
  <speed>0.0</speed>
  <fix>3d</fix>
</trkpt>
<trkpt lat="33.8103141" lon="-118.3938792">
  <ele>-30.249</ele>
  <time>2026-09-01T01:13:22Z</time>
  <course>185.08</course>
  <speed>0.0282842712474619</speed>
  <fix>3d</fix>
</trkpt>
<trkpt lat="33.810314" lon="-118.3938791">
  <ele>-29.52</ele>
  <time>2026-09-01T01:13:22Z</time>
  <course>276.08</course>
  <speed>0.0</speed>
  <fix>3d</fix>
</trkpt>
<trkpt lat="33.8103141" lon="-118.3938792">
  <ele>-30.247</ele>
  <time>2026-09-01T01:13:22Z</time>
  <course>185.09</course>
  <speed>0.0282842712474619</speed>
  <fix>3d</fix>
</trkpt>
<trkpt lat="33.810314" lon="-118.3938791">
  <ele>-29.52</ele>
  <time>2026-09-01T01:13:22Z</time>
  <course>276.06</course>
  <speed>0.0</speed>
  <fix>3d</fix>
</trkpt>
<trkpt lat="33.8103141" lon="-118.3938792">
  <ele>-30.246</ele>
  <time>2026-09-01T01:13:22Z</time>
  <course>185.1</course>
  <speed>0.0282842712474619</speed>
  <fix>3d</fix>
</trkpt>
<trkpt lat="33.810314" lon="-118.3938791">
  <ele>-29.52</ele>
  <time>2026-09-01T01:13:22Z</time>
  <course>276.06</course>
  <speed>0.0</speed>
  <fix>3d</fix>
</trkpt>
<trkpt lat="33.8103141" lon="-118.3938792">
  <ele>-30.246</ele>
  <time>2026-09-01T01:13:22Z</time>
  <course>185.11</course>
  <speed>0.0282842712474619</speed>
  <fix>3d</fix>
</trkpt>
<trkpt lat="33.810314" lon="-118.3938791">
  <ele>-29.52</ele>
  <time>2026-09-01T01:13:22Z</time>
  <course>276.04</course>
  <speed>0.0</speed>
  <fix>3d</fix>
</trkpt>
<trkpt lat="33.8103141" lon="-118.3938792">
  <ele>-30.246</ele>
  <time>2026-09-01T01:13:22Z</time>
  <course>185.13</course>
  <speed>0.0282842712474619</speed>
  <fix>3d</fix>
</trkpt>
<trkpt lat="33.810314" lon="-118.3938791">
  <ele>-29.52</ele>
  <time>2026-09-01T01:13:22Z</time>
  <course>276.04</course>
  <speed>0.0</speed>
  <fix>3d</fix>
</trkpt>
<trkpt lat="33.8103141" lon="-118.3938792">
  <ele>-30.248</ele>
  <time>2026-09-01T01:13:22Z</time>
  <course>185.14</course>
  <speed>0.0282842712474619</speed>
  <fix>3d</fix>
</trkpt>
<trkpt lat="33.810314" lon="-118.3938791">
  <ele>-29.52</ele>
  <time>2026-09-01T01:13:22Z</time>
  <course>276.03</course>
  <speed>0.0</speed>
  <fix>3d</fix>
</trkpt>
<trkpt lat="33.8103141" lon="-118.3938792">
  <ele>-30.25</ele>
  <time>2026-09-01T01:13:22Z</time>
  <course>185.15</course>
  <speed>0.0282842712474619</speed>
  <fix>3d</fix>
</trkpt>
<trkpt lat="33.810314" lon="-118.3938791">
  <ele>-29.52</ele>
  <time>2026-09-01T01:13:22Z</time>
  <course>276.03</course>
  <speed>0.0</speed>
  <fix>3d</fix>
</trkpt>
<trkpt lat="33.8103141" lon="-118.3938793">
  <ele>-30.252</ele>
  <time>2026-09-01T01:13:22Z</time>
  <course>185.16</course>
  <speed>0.0282842712474619</speed>
  <fix>3d</fix>
</trkpt>
<trkpt lat="33.810314" lon="-118.3938792">
  <ele>-29.52</ele>
  <time>2026-09-01T01:13:22Z</time>
  <course>276.03</course>
  <speed>0.0</speed>
  <fix>3d</fix>
</trkpt>
<trkpt lat="33.8103141" lon="-118.3938793">
  <ele>-30.254</ele>
  <time>2026-09-01T01:13:22Z</time>
  <course>185.17</course>
  <speed>0.0282842712474619</speed>
  <fix>3d</fix>
</trkpt>
<trkpt lat="33.810314" lon="-118.3938792">
  <ele>-29.52</ele>
  <time>2026-09-01T01:13:22Z</time>
  <course>276.03</course>
  <speed>0.0</speed>
  <fix>3d</fix>
</trkpt>
<trkpt lat="33.8103141" lon="-118.3938793">
  <ele>-30.257</ele>
  <time>2026-09-01T01:13:22Z</time>
  <course>185.18</course>
  <speed>0.0282842712474619</speed>
  <fix>3d</fix>
</trkpt>
<trkpt lat="33.810314" lon="-118.3938792">
  <ele>-29.52</ele>
  <time>2026-09-01T01:13:22Z</time>
  <course>276.03</course>
  <speed>0.0</speed>
  <fix>3d</fix>
</trkpt>
<trkpt lat="33.8103141" lon="-118.3938793">
  <ele>-30.26</ele>
  <time>2026-09-01T01:13:22Z</time>
  <course>185.19</course>
  <speed>0.0282842712474619</speed>
  <fix>3d</fix>
</trkpt>
<trkpt lat="33.810314" lon="-118.3938792">
  <ele>-29.52</ele>
  <time>2026-09-01T01:13:22Z</time>
  <course>276.03</course>
  <speed>0.0</speed>
  <fix>3d</fix>
</trkpt>
<trkpt lat="33.8103141" lon="-118.3938793">
  <ele>-30.262</ele>
  <time>2026-09-01T01:13:22Z</time>
  <course>185.2</course>
  <speed>0.0282842712474619</speed>
  <fix>3d</fix>
</trkpt>
<trkpt lat="33.810314" lon="-118.3938792">
  <ele>-29.53</ele>
  <time>2026-09-01T01:13:22Z</time>
  <course>276.04</course>
  <speed>0.0</speed>
  <fix>3d</fix>
</trkpt>
<trkpt lat="33.8103141" lon="-118.3938793">
  <ele>-30.265</ele>
  <time>2026-09-01T01:13:22Z</time>
  <course>185.21</course>
  <speed>0.0282842712474619</speed>
  <fix>3d</fix>
</trkpt>
<trkpt lat="33.810314" lon="-118.3938792">
  <ele>-29.53</ele>
  <time>2026-09-01T01:13:22Z</time>
  <course>276.04</course>
  <speed>0.0</speed>
  <fix>3d</fix>
</trkpt>
<trkpt lat="33.8103141" lon="-118.3938793">
  <ele>-30.268</ele>
  <time>2026-09-01T01:13:22Z</time>
  <course>185.22</course>
  <speed>0.0282842712474619</speed>
  <fix>3d</fix>
</trkpt>
<trkpt lat="33.810314" lon="-118.3938792">
  <ele>-29.53</ele>
  <time>2026-09-01T01:13:22Z</time>
  <course>276.05</course>
  <speed>0.0</speed>
  <fix>3d</fix>
</trkpt>
<trkpt lat="33.8103141" lon="-118.3938793">
  <ele>-30.27</ele>
  <time>2026-09-01T01:13:22Z</time>
  <course>185.23</course>
  <speed>0.0282842712474619</speed>
  <fix>3d</fix>
</trkpt>
<trkpt lat="33.810314" lon="-118.3938792">
  <ele>-29.53</ele>
  <time>2026-09-01T01:13:22Z</time>
  <course>276.05</course>
  <speed>0.0</speed>
  <fix>3d</fix>
</trkpt>
<trkpt lat="33.8103141" lon="-118.3938793">
  <ele>-30.272</ele>
  <time>2026-09-01T01:13:22Z</time>
  <course>185.24</course>
  <speed>0.0282842712474619</speed>
  <fix>3d</fix>
</trkpt>
<trkpt lat="33.810314" lon="-118.3938792">
  <ele>-29.54</ele>
  <time>2026-09-01T01:13:22Z</time>
  <course>276.05</course>
  <speed>0.0</speed>
  <fix>3d</fix>
</trkpt>
<trkpt lat="33.8103141" lon="-118.3938793">
  <ele>-30.273</ele>
  <time>2026-09-01T01:13:22Z</time>
  <course>185.25</course>
  <speed>0.0282842712474619</speed>
  <fix>3d</fix>
</trkpt>
<trkpt lat="33.810314" lon="-118.3938792">
  <ele>-29.54</ele>
  <time>2026-09-01T01:13:22Z</time>
  <course>276.05</course>
  <speed>0.0</speed>
  <fix>3d</fix>
</trkpt>
<trkpt lat="33.8103141" lon="-118.3938793">
  <ele>-30.275</ele>
  <time>2026-09-01T01:13:22Z</time>
  <course>185.26</course>
  <speed>0.0282842712474619</speed>
  <fix>3d</fix>
</trkpt>
<trkpt lat="33.810314" lon="-118.3938792">
  <ele>-29.54</ele>
  <time>2026-09-01T01:13:22Z</time>
  <course>276.06</course>
  <speed>0.0</speed>
  <fix>3d</fix>
</trkpt>
<trkpt lat="33.8103141" lon="-118.3938794">
  <ele>-30.277</ele>
  <time>2026-09-01T01:13:22Z</time>
  <course>185.27</course>
  <speed>0.0282842712474619</speed>
  <fix>3d</fix>
</trkpt>
<trkpt lat="33.810314" lon="-118.3938792">
  <ele>-29.54</ele>
  <time>2026-09-01T01:13:22Z</time>
  <course>276.06</course>
  <speed>0.0</speed>
  <fix>3d</fix>
</trkpt>
<trkpt lat="33.8103141" lon="-118.3938794">
  <ele>-30.278</ele>
  <time>2026-09-01T01:13:22Z</time>
  <course>185.28</course>
  <speed>0.0282842712474619</speed>
  <fix>3d</fix>
</trkpt>
<trkpt lat="33.810314" lon="-118.3938793">
  <ele>-29.54</ele>
  <time>2026-09-01T01:13:22Z</time>
  <course>276.07</course>
  <speed>0.0</speed>
  <fix>3d</fix>
</trkpt>
<trkpt lat="33.8103141" lon="-118.3938794">
  <ele>-30.278</ele>
  <time>2026-09-01T01:13:22Z</time>
  <course>185.29</course>
  <speed>0.0282842712474619</speed>
  <fix>3d</fix>
</trkpt>
<trkpt lat="33.810314" lon="-118.3938793">
  <ele>-29.54</ele>
  <time>2026-09-01T01:13:22Z</time>
  <course>276.07</course>
  <speed>0.0</speed>
  <fix>3d</fix>
</trkpt>
<trkpt lat="33.8103141" lon="-118.3938794">
  <ele>-30.278</ele>
  <time>2026-09-01T01:13:22Z</time>
  <course>185.3</course>
  <speed>0.0282842712474619</speed>
  <fix>3d</fix>
</trkpt>
<trkpt lat="33.810314" lon="-118.3938793">
  <ele>-29.54</ele>
  <time>2026-09-01T01:13:22Z</time>
  <course>276.08</course>
  <speed>0.0</speed>
  <fix>3d</fix>
</trkpt>
<trkpt lat="33.8103141" lon="-118.3938794">
  <ele>-30.277</ele>
  <time>2026-09-01T01:13:22Z</time>
  <course>185.31</course>
  <speed>0.0282842712474619</speed>
  <fix>3d</fix>
</trkpt>
<trkpt lat="33.810314" lon="-118.3938793">
  <ele>-29.54</ele>
  <time>2026-09-01T01:13:22Z</time>
  <course>276.08</course>
  <speed>0.0</speed>
  <fix>3d</fix>
</trkpt>
<trkpt lat="33.8103141" lon="-118.3938794">
  <ele>-30.277</ele>
  <time>2026-09-01T01:13:22Z</time>
  <course>185.33</course>
  <speed>0.0282842712474619</speed>
  <fix>3d</fix>
</trkpt>
<trkpt lat="33.810314" lon="-118.3938793">
  <ele>-29.54</ele>
  <time>2026-09-01T01:13:22Z</time>
  <course>276.08</course>
  <speed>0.0</speed>
  <fix>3d</fix>
</trkpt>
<trkpt lat="33.8103141" lon="-118.3938794">
  <ele>-30.276</ele>
  <time>2026-09-01T01:13:22Z</time>
  <course>185.34</course>
  <speed>0.0282842712474619</speed>
  <fix>3d</fix>
</trkpt>
<trkpt lat="33.810314" lon="-118.3938793">
  <ele>-29.54</ele>
  <time>2026-09-01T01:13:22Z</time>
  <course>276.08</course>
  <speed>0.0</speed>
  <fix>3d</fix>
</trkpt>
<trkpt lat="33.8103141" lon="-118.3938794">
  <ele>-30.275</ele>
  <time>2026-09-01T01:13:22Z</time>
  <course>185.35</course>
  <speed>0.0282842712474619</speed>
  <fix>3d</fix>
</trkpt>
<trkpt lat="33.810314" lon="-118.3938793">
  <ele>-29.54</ele>
  <time>2026-09-01T01:13:22Z</time>
  <course>276.08</course>
  <speed>0.0</speed>
  <fix>3d</fix>
</trkpt>
<trkpt lat="33.8103141" lon="-118.3938794">
  <ele>-30.274</ele>
  <time>2026-09-01T01:13:22Z</time>
  <course>185.36</course>
  <speed>0.0282842712474619</speed>
  <fix>3d</fix>
</trkpt>
<trkpt lat="33.810314" lon="-118.3938793">
  <ele>-29.54</ele>
  <time>2026-09-01T01:13:22Z</time>
  <course>276.08</course>
  <speed>0.0</speed>
  <fix>3d</fix>
</trkpt>
<trkpt lat="33.8103141" lon="-118.3938794">
  <ele>-30.273</ele>
  <time>2026-09-01T01:13:22Z</time>
  <course>185.37</course>
  <speed>0.0282842712474619</speed>
  <fix>3d</fix>
</trkpt>
<trkpt lat="33.810314" lon="-118.3938793">
  <ele>-29.54</ele>
  <time>2026-09-01T01:13:22Z</time>
  <course>276.09</course>
  <speed>0.0</speed>
  <fix>3d</fix>
</trkpt>
<trkpt lat="33.8103141" lon="-118.3938794">
  <ele>-30.273</ele>
  <time>2026-09-01T01:13:22Z</time>
  <course>185.38</course>
  <speed>0.0282842712474619</speed>
  <fix>3d</fix>
</trkpt>
<trkpt lat="33.810314" lon="-118.3938793">
  <ele>-29.54</ele>
  <time>2026-09-01T01:13:22Z</time>
  <course>276.09</course>
  <speed>0.0</speed>
  <fix>3d</fix>
</trkpt>
<trkpt lat="33.8103141" lon="-118.3938794">
  <ele>-30.273</ele>
  <time>2026-09-01T01:13:22Z</time>
  <course>185.39</course>
  <speed>0.0282842712474619</speed>
  <fix>3d</fix>
</trkpt>
<trkpt lat="33.810314" lon="-118.3938793">
  <ele>-29.54</ele>
  <time>2026-09-01T01:13:22Z</time>
  <course>276.1</course>
  <speed>0.0</speed>
  <fix>3d</fix>
</trkpt>
<trkpt lat="33.8103141" lon="-118.3938795">
  <ele>-30.274</ele>
  <time>2026-09-01T01:13:22Z</time>
  <course>185.4</course>
  <speed>0.0282842712474619</speed>
  <fix>3d</fix>
</trkpt>
<trkpt lat="33.810314" lon="-118.3938793">
  <ele>-29.54</ele>
  <time>2026-09-01T01:13:22Z</time>
  <course>276.1</course>
  <speed>0.0</speed>
  <fix>3d</fix>
</trkpt>
<trkpt lat="33.8103141" lon="-118.3938795">
  <ele>-30.274</ele>
  <time>2026-09-01T01:13:22Z</time>
  <course>185.41</course>
  <speed>0.0282842712474619</speed>
  <fix>3d</fix>
</trkpt>
<trkpt lat="33.810314" lon="-118.3938794">
  <ele>-29.54</ele>
  <time>2026-09-01T01:13:22Z</time>
  <course>276.1</course>
  <speed>0.0</speed>
  <fix>3d</fix>
</trkpt>
<trkpt lat="33.8103141" lon="-118.3938795">
  <ele>-30.274</ele>
  <time>2026-09-01T01:13:22Z</time>
  <course>185.42</course>
  <speed>0.0282842712474619</speed>
  <fix>3d</fix>
</trkpt>
<trkpt lat="33.810314" lon="-118.3938794">
  <ele>-29.54</ele>
  <time>2026-09-01T01:13:22Z</time>
  <course>276.1</course>
  <speed>0.0</speed>
  <fix>3d</fix>
</trkpt>
<trkpt lat="33.8103141" lon="-118.3938795">
  <ele>-30.274</ele>
  <time>2026-09-01T01:13:22Z</time>
  <course>185.43</course>
  <speed>0.0282842712474619</speed>
  <fix>3d</fix>
</trkpt>
<trkpt lat="33.810314" lon="-118.3938794">
  <ele>-29.54</ele>
  <time>2026-09-01T01:13:22Z</time>
  <course>276.11</course>
  <speed>0.0</speed>
  <fix>3d</fix>
</trkpt>
<trkpt lat="33.8103141" lon="-118.3938795">
  <ele>-30.274</ele>
  <time>2026-09-01T01:13:22Z</time>
  <course>185.44</course>
  <speed>0.0282842712474619</speed>
  <fix>3d</fix>
</trkpt>
<trkpt lat="33.810314" lon="-118.3938794">
  <ele>-29.54</ele>
  <time>2026-09-01T01:13:22Z</time>
  <course>276.11</course>
  <speed>0.0</speed>
  <fix>3d</fix>
</trkpt>
<trkpt lat="33.8103141" lon="-118.3938795">
  <ele>-30.273</ele>
  <time>2026-09-01T01:13:22Z</time>
  <course>185.45</course>
  <speed>0.0282842712474619</speed>
  <fix>3d</fix>
</trkpt>
<trkpt lat="33.810314" lon="-118.3938794">
  <ele>-29.54</ele>
  <time>2026-09-01T01:13:22Z</time>
  <course>276.11</course>
  <speed>0.0</speed>
  <fix>3d</fix>
</trkpt>
<trkpt lat="33.8103141" lon="-118.3938795">
  <ele>-30.272</ele>
  <time>2026-09-01T01:13:22Z</time>
  <course>185.46</course>
  <speed>0.0282842712474619</speed>
  <fix>3d</fix>
</trkpt>
<trkpt lat="33.810314" lon="-118.3938794">
  <ele>-29.54</ele>
  <time>2026-09-01T01:13:22Z</time>
  <course>276.11</course>
  <speed>0.0</speed>
  <fix>3d</fix>
</trkpt>
<trkpt lat="33.8103141" lon="-118.3938795">
  <ele>-30.271</ele>
  <time>2026-09-01T01:13:22Z</time>
  <course>185.47</course>
  <speed>0.0282842712474619</speed>
  <fix>3d</fix>
</trkpt>
<trkpt lat="33.810314" lon="-118.3938794">
  <ele>-29.54</ele>
  <time>2026-09-01T01:13:22Z</time>
  <course>276.12</course>
  <speed>0.0</speed>
  <fix>3d</fix>
</trkpt>
<trkpt lat="33.8103141" lon="-118.3938795">
  <ele>-30.271</ele>
  <time>2026-09-01T01:13:22Z</time>
  <course>185.48</course>
  <speed>0.0282842712474619</speed>
  <fix>3d</fix>
</trkpt>
<trkpt lat="33.810314" lon="-118.3938794">
  <ele>-29.54</ele>
  <time>2026-09-01T01:13:22Z</time>
  <course>276.12</course>
  <speed>0.0</speed>
  <fix>3d</fix>
</trkpt>
<trkpt lat="33.8103141" lon="-118.3938795">
  <ele>-30.27</ele>
  <time>2026-09-01T01:13:22Z</time>
  <course>185.49</course>
  <speed>0.0282842712474619</speed>
  <fix>3d</fix>
</trkpt>
<trkpt lat="33.810314" lon="-118.3938794">
  <ele>-29.54</ele>
  <time>2026-09-01T01:13:22Z</time>
  <course>276.12</course>
  <speed>0.0</speed>
  <fix>3d</fix>
</trkpt>
<trkpt lat="33.8103141" lon="-118.3938795">
  <ele>-30.27</ele>
  <time>2026-09-01T01:13:22Z</time>
  <course>185.5</course>
  <speed>0.0282842712474619</speed>
  <fix>3d</fix>
</trkpt>
<trkpt lat="33.810314" lon="-118.3938794">
  <ele>-29.54</ele>
  <time>2026-09-01T01:13:22Z</time>
  <course>276.12</course>
  <speed>0.0</speed>
  <fix>3d</fix>
</trkpt>
<trkpt lat="33.8103141" lon="-118.3938795">
  <ele>-30.27</ele>
  <time>2026-09-01T01:13:22Z</time>
  <course>185.51</course>
  <speed>0.0282842712474619</speed>
  <fix>3d</fix>
</trkpt>
<trkpt lat="33.810314" lon="-118.3938794">
  <ele>-29.54</ele>
  <time>2026-09-01T01:13:22Z</time>
  <course>276.13</course>
  <speed>0.0</speed>
  <fix>3d</fix>
</trkpt>
<trkpt lat="33.8103141" lon="-118.3938796">
  <ele>-30.27</ele>
  <time>2026-09-01T01:13:22Z</time>
  <course>185.52</course>
  <speed>0.0282842712474619</speed>
  <fix>3d</fix>
</trkpt>
<trkpt lat="33.810314" lon="-118.3938794">
  <ele>-29.54</ele>
  <time>2026-09-01T01:13:22Z</time>
  <course>276.13</course>
  <speed>0.0</speed>
  <fix>3d</fix>
</trkpt>
<trkpt lat="33.8103141" lon="-118.3938796">
  <ele>-30.271</ele>
  <time>2026-09-01T01:13:22Z</time>
  <course>185.53</course>
  <speed>0.0282842712474619</speed>
  <fix>3d</fix>
</trkpt>
<trkpt lat="33.810314" lon="-118.3938795">
  <ele>-29.54</ele>
  <time>2026-09-01T01:13:22Z</time>
  <course>276.13</course>
  <speed>0.0</speed>
  <fix>3d</fix>
</trkpt>
<trkpt lat="33.8103141" lon="-118.3938796">
  <ele>-30.271</ele>
  <time>2026-09-01T01:13:22Z</time>
  <course>185.54</course>
  <speed>0.0282842712474619</speed>
  <fix>3d</fix>
</trkpt>
<trkpt lat="33.810314" lon="-118.3938795">
  <ele>-29.54</ele>
  <time>2026-09-01T01:13:22Z</time>
  <course>276.13</course>
  <speed>0.0</speed>
  <fix>3d</fix>
</trkpt>
<trkpt lat="33.8103141" lon="-118.3938796">
  <ele>-30.27</ele>
  <time>2026-09-01T01:13:22Z</time>
  <course>185.55</course>
  <speed>0.0282842712474619</speed>
  <fix>3d</fix>
</trkpt>
<trkpt lat="33.810314" lon="-118.3938795">
  <ele>-29.54</ele>
  <time>2026-09-01T01:13:22Z</time>
  <course>276.13</course>
  <speed>0.0</speed>
  <fix>3d</fix>
</trkpt>
<trkpt lat="33.8103141" lon="-118.3938796">
  <ele>-30.269</ele>
  <time>2026-09-01T01:13:22Z</time>
  <course>185.56</course>
  <speed>0.0282842712474619</speed>
  <fix>3d</fix>
</trkpt>
<trkpt lat="33.810314" lon="-118.3938795">
  <ele>-29.54</ele>
  <time>2026-09-01T01:13:22Z</time>
  <course>276.13</course>
  <speed>0.0</speed>
  <fix>3d</fix>
</trkpt>
<trkpt lat="33.8103141" lon="-118.3938796">
  <ele>-30.269</ele>
  <time>2026-09-01T01:13:22Z</time>
  <course>185.57</course>
  <speed>0.0282842712474619</speed>
  <fix>3d</fix>
</trkpt>
<trkpt lat="33.810314" lon="-118.3938795">
  <ele>-29.54</ele>
  <time>2026-09-01T01:13:22Z</time>
  <course>276.14</course>
  <speed>0.0</speed>
  <fix>3d</fix>
</trkpt>
<trkpt lat="33.8103141" lon="-118.3938796">
  <ele>-30.268</ele>
  <time>2026-09-01T01:13:22Z</time>
  <course>185.58</course>
  <speed>0.0282842712474619</speed>
  <fix>3d</fix>
</trkpt>
<trkpt lat="33.810314" lon="-118.3938795">
  <ele>-29.54</ele>
  <time>2026-09-01T01:13:22Z</time>
  <course>276.14</course>
  <speed>0.0</speed>
  <fix>3d</fix>
</trkpt>
<trkpt lat="33.8103141" lon="-118.3938796">
  <ele>-30.267</ele>
  <time>2026-09-01T01:13:22Z</time>
  <course>185.59</course>
  <speed>0.0282842712474619</speed>
  <fix>3d</fix>
</trkpt>
<trkpt lat="33.810314" lon="-118.3938795">
  <ele>-29.54</ele>
  <time>2026-09-01T01:13:22Z</time>
  <course>276.14</course>
  <speed>0.0</speed>
  <fix>3d</fix>
</trkpt>
<trkpt lat="33.8103141" lon="-118.3938796">
  <ele>-30.267</ele>
  <time>2026-09-01T01:13:22Z</time>
  <course>185.6</course>
  <speed>0.0282842712474619</speed>
  <fix>3d</fix>
</trkpt>
<trkpt lat="33.810314" lon="-118.3938795">
  <ele>-29.54</ele>
  <time>2026-09-01T01:13:22Z</time>
  <course>276.14</course>
  <speed>0.0</speed>
  <fix>3d</fix>
</trkpt>
<trkpt lat="33.8103141" lon="-118.3938796">
  <ele>-30.267</ele>
  <time>2026-09-01T01:13:22Z</time>
  <course>185.61</course>
  <speed>0.0282842712474619</speed>
  <fix>3d</fix>
</trkpt>
<trkpt lat="33.810314" lon="-118.3938795">
  <ele>-29.54</ele>
  <time>2026-09-01T01:13:22Z</time>
  <course>276.15</course>
  <speed>0.0</speed>
  <fix>3d</fix>
</trkpt>
<trkpt lat="33.8103141" lon="-118.3938796">
  <ele>-30.268</ele>
  <time>2026-09-01T01:13:22Z</time>
  <course>185.62</course>
  <speed>0.0282842712474619</speed>
  <fix>3d</fix>
</trkpt>
<trkpt lat="33.810314" lon="-118.3938795">
  <ele>-29.54</ele>
  <time>2026-09-01T01:13:22Z</time>
  <course>276.15</course>
  <speed>0.0</speed>
  <fix>3d</fix>
</trkpt>
<trkpt lat="33.8103141" lon="-118.3938796">
  <ele>-30.268</ele>
  <time>2026-09-01T01:13:22Z</time>
  <course>185.63</course>
  <speed>0.0282842712474619</speed>
  <fix>3d</fix>
</trkpt>
<trkpt lat="33.810314" lon="-118.3938795">
  <ele>-29.54</ele>
  <time>2026-09-01T01:13:22Z</time>
  <course>276.15</course>
  <speed>0.0</speed>
  <fix>3d</fix>
</trkpt>
<trkpt lat="33.8103141" lon="-118.3938797">
  <ele>-30.268</ele>
  <time>2026-09-01T01:13:22Z</time>
  <course>185.64</course>
  <speed>0.0282842712474619</speed>
  <fix>3d</fix>
</trkpt>
<trkpt lat="33.810314" lon="-118.3938795">
  <ele>-29.54</ele>
  <time>2026-09-01T01:13:22Z</time>
  <course>276.15</course>
  <speed>0.0</speed>
  <fix>3d</fix>
</trkpt>
<trkpt lat="33.8103141" lon="-118.3938797">
  <ele>-30.269</ele>
  <time>2026-09-01T01:13:22Z</time>
  <course>185.65</course>
  <speed>0.0282842712474619</speed>
  <fix>3d</fix>
</trkpt>
<trkpt lat="33.810314" lon="-118.3938796">
  <ele>-29.54</ele>
  <time>2026-09-01T01:13:22Z</time>
  <course>276.16</course>
  <speed>0.0</speed>
  <fix>3d</fix>
</trkpt>
<trkpt lat="33.8103141" lon="-118.3938797">
  <ele>-30.27</ele>
  <time>2026-09-01T01:13:22Z</time>
  <course>185.66</course>
  <speed>0.0282842712474619</speed>
  <fix>3d</fix>
</trkpt>
<trkpt lat="33.810314" lon="-118.3938796">
  <ele>-29.54</ele>
  <time>2026-09-01T01:13:22Z</time>
  <course>276.16</course>
  <speed>0.0</speed>
  <fix>3d</fix>
</trkpt>
<trkpt lat="33.8103141" lon="-118.3938797">
  <ele>-30.27</ele>
  <time>2026-09-01T01:13:22Z</time>
  <course>185.67</course>
  <speed>0.0282842712474619</speed>
  <fix>3d</fix>
</trkpt>
<trkpt lat="33.810314" lon="-118.3938796">
  <ele>-29.53</ele>
  <time>2026-09-01T01:13:22Z</time>
  <course>276.16</course>
  <speed>0.0</speed>
  <fix>3d</fix>
</trkpt>
<trkpt lat="33.8103141" lon="-118.3938797">
  <ele>-30.27</ele>
  <time>2026-09-01T01:13:22Z</time>
  <course>185.68</course>
  <speed>0.0282842712474619</speed>
  <fix>3d</fix>
</trkpt>
<trkpt lat="33.810314" lon="-118.3938796">
  <ele>-29.53</ele>
  <time>2026-09-01T01:13:22Z</time>
  <course>276.16</course>
  <speed>0.0</speed>
  <fix>3d</fix>
</trkpt>
<trkpt lat="33.8103141" lon="-118.3938797">
  <ele>-30.269</ele>
  <time>2026-09-01T01:13:22Z</time>
  <course>185.69</course>
  <speed>0.0282842712474619</speed>
  <fix>3d</fix>
</trkpt>
<trkpt lat="33.810314" lon="-118.3938796">
  <ele>-29.53</ele>
  <time>2026-09-01T01:13:22Z</time>
  <course>276.17</course>
  <speed>0.0</speed>
  <fix>3d</fix>
</trkpt>
<trkpt lat="33.8103141" lon="-118.3938797">
  <ele>-30.268</ele>
  <time>2026-09-01T01:13:22Z</time>
  <course>185.7</course>
  <speed>0.0282842712474619</speed>
  <fix>3d</fix>
</trkpt>
<trkpt lat="33.810314" lon="-118.3938796">
  <ele>-29.53</ele>
  <time>2026-09-01T01:13:22Z</time>
  <course>276.17</course>
  <speed>0.0</speed>
  <fix>3d</fix>
</trkpt>
<trkpt lat="33.8103141" lon="-118.3938797">
  <ele>-30.267</ele>
  <time>2026-09-01T01:13:22Z</time>
  <course>185.71</course>
  <speed>0.0282842712474619</speed>
  <fix>3d</fix>
</trkpt>
<trkpt lat="33.810314" lon="-118.3938796">
  <ele>-29.53</ele>
  <time>2026-09-01T01:13:22Z</time>
  <course>276.16</course>
  <speed>0.0</speed>
  <fix>3d</fix>
</trkpt>
<trkpt lat="33.8103141" lon="-118.3938797">
  <ele>-30.267</ele>
  <time>2026-09-01T01:13:22Z</time>
  <course>185.71</course>
  <speed>0.0282842712474619</speed>
  <fix>3d</fix>
</trkpt>
<trkpt lat="33.810314" lon="-118.3938796">
  <ele>-29.53</ele>
  <time>2026-09-01T01:13:22Z</time>
  <course>276.16</course>
  <speed>0.0</speed>
  <fix>3d</fix>
</trkpt>
<trkpt lat="33.8103141" lon="-118.3938797">
  <ele>-30.267</ele>
  <time>2026-09-01T01:13:22Z</time>
  <course>185.72</course>
  <speed>0.0282842712474619</speed>
  <fix>3d</fix>
</trkpt>
<trkpt lat="33.810314" lon="-118.3938796">
  <ele>-29.53</ele>
  <time>2026-09-01T01:13:22Z</time>
  <course>276.16</course>
  <speed>0.0</speed>
  <fix>3d</fix>
</trkpt>
<trkpt lat="33.8103141" lon="-118.3938797">
  <ele>-30.267</ele>
  <time>2026-09-01T01:13:22Z</time>
  <course>185.73</course>
  <speed>0.0282842712474619</speed>
  <fix>3d</fix>
</trkpt>
<trkpt lat="33.810314" lon="-118.3938796">
  <ele>-29.53</ele>
  <time>2026-09-01T01:13:22Z</time>
  <course>276.16</course>
  <speed>0.0</speed>
  <fix>3d</fix>
</trkpt>
<trkpt lat="33.8103141" lon="-118.3938797">
  <ele>-30.268</ele>
  <time>2026-09-01T01:13:22Z</time>
  <course>185.74</course>
  <speed>0.0282842712474619</speed>
  <fix>3d</fix>
</trkpt>
<trkpt lat="33.810314" lon="-118.3938796">
  <ele>-29.53</ele>
  <time>2026-09-01T01:13:22Z</time>
  <course>276.16</course>
  <speed>0.0</speed>
  <fix>3d</fix>
</trkpt>
<trkpt lat="33.8103141" lon="-118.3938798">
  <ele>-30.269</ele>
  <time>2026-09-01T01:13:22Z</time>
  <course>185.75</course>
  <speed>0.0282842712474619</speed>
  <fix>3d</fix>
</trkpt>
<trkpt lat="33.810314" lon="-118.3938796">
  <ele>-29.53</ele>
  <time>2026-09-01T01:13:22Z</time>
  <course>276.16</course>
  <speed>0.0</speed>
  <fix>3d</fix>
</trkpt>
<trkpt lat="33.8103141" lon="-118.3938798">
  <ele>-30.271</ele>
  <time>2026-09-01T01:13:22Z</time>
  <course>185.76</course>
  <speed>0.0282842712474619</speed>
  <fix>3d</fix>
</trkpt>
<trkpt lat="33.810314" lon="-118.3938797">
  <ele>-29.53</ele>
  <time>2026-09-01T01:13:22Z</time>
  <course>276.16</course>
  <speed>0.0</speed>
  <fix>3d</fix>
</trkpt>
<trkpt lat="33.8103141" lon="-118.3938798">
  <ele>-30.273</ele>
  <time>2026-09-01T01:13:22Z</time>
  <course>185.77</course>
  <speed>0.0282842712474619</speed>
  <fix>3d</fix>
</trkpt>
<trkpt lat="33.810314" lon="-118.3938797">
  <ele>-29.53</ele>
  <time>2026-09-01T01:13:22Z</time>
  <course>276.16</course>
  <speed>0.0</speed>
  <fix>3d</fix>
</trkpt>
<trkpt lat="33.8103141" lon="-118.3938798">
  <ele>-30.275</ele>
  <time>2026-09-01T01:13:22Z</time>
  <course>185.78</course>
  <speed>0.0282842712474619</speed>
  <fix>3d</fix>
</trkpt>
<trkpt lat="33.810314" lon="-118.3938797">
  <ele>-29.53</ele>
  <time>2026-09-01T01:13:22Z</time>
  <course>276.16</course>
  <speed>0.0</speed>
  <fix>3d</fix>
</trkpt>
<trkpt lat="33.8103141" lon="-118.3938798">
  <ele>-30.277</ele>
  <time>2026-09-01T01:13:22Z</time>
  <course>185.79</course>
  <speed>0.0282842712474619</speed>
  <fix>3d</fix>
</trkpt>
<trkpt lat="33.810314" lon="-118.3938797">
  <ele>-29.53</ele>
  <time>2026-09-01T01:13:22Z</time>
  <course>276.16</course>
  <speed>0.0</speed>
  <fix>3d</fix>
</trkpt>
<trkpt lat="33.8103141" lon="-118.3938798">
  <ele>-30.278</ele>
  <time>2026-09-01T01:13:22Z</time>
  <course>185.8</course>
  <speed>0.0282842712474619</speed>
  <fix>3d</fix>
</trkpt>
<trkpt lat="33.810314" lon="-118.3938797">
  <ele>-29.54</ele>
  <time>2026-09-01T01:13:22Z</time>
  <course>276.16</course>
  <speed>0.0</speed>
  <fix>3d</fix>
</trkpt>
<trkpt lat="33.8103141" lon="-118.3938798">
  <ele>-30.279</ele>
  <time>2026-09-01T01:13:22Z</time>
  <course>185.81</course>
  <speed>0.0282842712474619</speed>
  <fix>3d</fix>
</trkpt>
<trkpt lat="33.810314" lon="-118.3938797">
  <ele>-29.54</ele>
  <time>2026-09-01T01:13:22Z</time>
  <course>276.16</course>
  <speed>0.0</speed>
  <fix>3d</fix>
</trkpt>
<trkpt lat="33.8103141" lon="-118.3938798">
  <ele>-30.279</ele>
  <time>2026-09-01T01:13:22Z</time>
  <course>185.82</course>
  <speed>0.0282842712474619</speed>
  <fix>3d</fix>
</trkpt>
<trkpt lat="33.810314" lon="-118.3938797">
  <ele>-29.54</ele>
  <time>2026-09-01T01:13:22Z</time>
  <course>276.17</course>
  <speed>0.0</speed>
  <fix>3d</fix>
</trkpt>
<trkpt lat="33.8103141" lon="-118.3938798">
  <ele>-30.279</ele>
  <time>2026-09-01T01:13:22Z</time>
  <course>185.83</course>
  <speed>0.0282842712474619</speed>
  <fix>3d</fix>
</trkpt>
<trkpt lat="33.810314" lon="-118.3938797">
  <ele>-29.54</ele>
  <time>2026-09-01T01:13:22Z</time>
  <course>276.17</course>
  <speed>0.0</speed>
  <fix>3d</fix>
</trkpt>
<trkpt lat="33.8103141" lon="-118.3938798">
  <ele>-30.279</ele>
  <time>2026-09-01T01:13:22Z</time>
  <course>185.84</course>
  <speed>0.0282842712474619</speed>
  <fix>3d</fix>
</trkpt>
<trkpt lat="33.810314" lon="-118.3938797">
  <ele>-29.54</ele>
  <time>2026-09-01T01:13:22Z</time>
  <course>276.17</course>
  <speed>0.0</speed>
  <fix>3d</fix>
</trkpt>
<trkpt lat="33.8103141" lon="-118.3938798">
  <ele>-30.279</ele>
  <time>2026-09-01T01:13:22Z</time>
  <course>185.85</course>
  <speed>0.0282842712474619</speed>
  <fix>3d</fix>
</trkpt>
<trkpt lat="33.810314" lon="-118.3938797">
  <ele>-29.54</ele>
  <time>2026-09-01T01:13:22Z</time>
  <course>276.17</course>
  <speed>0.0</speed>
  <fix>3d</fix>
</trkpt>
<trkpt lat="33.8103141" lon="-118.3938798">
  <ele>-30.278</ele>
  <time>2026-09-01T01:13:22Z</time>
  <course>185.86</course>
  <speed>0.0282842712474619</speed>
  <fix>3d</fix>
</trkpt>
<trkpt lat="33.810314" lon="-118.3938797">
  <ele>-29.54</ele>
  <time>2026-09-01T01:13:22Z</time>
  <course>276.17</course>
  <speed>0.0</speed>
  <fix>3d</fix>
</trkpt>
<trkpt lat="33.8103141" lon="-118.3938799">
  <ele>-30.277</ele>
  <time>2026-09-01T01:13:22Z</time>
  <course>185.87</course>
  <speed>0.0282842712474619</speed>
  <fix>3d</fix>
</trkpt>
<trkpt lat="33.810314" lon="-118.3938797">
  <ele>-29.54</ele>
  <time>2026-09-01T01:13:22Z</time>
  <course>276.17</course>
  <speed>0.0</speed>
  <fix>3d</fix>
</trkpt>
<trkpt lat="33.8103141" lon="-118.3938799">
  <ele>-30.277</ele>
  <time>2026-09-01T01:13:22Z</time>
  <course>185.88</course>
  <speed>0.0282842712474619</speed>
  <fix>3d</fix>
</trkpt>
<trkpt lat="33.810314" lon="-118.3938797">
  <ele>-29.54</ele>
  <time>2026-09-01T01:13:22Z</time>
  <course>276.17</course>
  <speed>0.0</speed>
  <fix>3d</fix>
</trkpt>
<trkpt lat="33.8103141" lon="-118.3938799">
  <ele>-30.276</ele>
  <time>2026-09-01T01:13:22Z</time>
  <course>185.89</course>
  <speed>0.0282842712474619</speed>
  <fix>3d</fix>
</trkpt>
<trkpt lat="33.810314" lon="-118.3938797">
  <ele>-29.54</ele>
  <time>2026-09-01T01:13:22Z</time>
  <course>276.17</course>
  <speed>0.0</speed>
  <fix>3d</fix>
</trkpt>
<trkpt lat="33.8103141" lon="-118.3938799">
  <ele>-30.276</ele>
  <time>2026-09-01T01:13:22Z</time>
  <course>185.9</course>
  <speed>0.0282842712474619</speed>
  <fix>3d</fix>
</trkpt>
<trkpt lat="33.810314" lon="-118.3938798">
  <ele>-29.54</ele>
  <time>2026-09-01T01:13:22Z</time>
  <course>276.18</course>
  <speed>0.0</speed>
  <fix>3d</fix>
</trkpt>
<trkpt lat="33.8103141" lon="-118.3938799">
  <ele>-30.275</ele>
  <time>2026-09-01T01:13:22Z</time>
  <course>185.91</course>
  <speed>0.0282842712474619</speed>
  <fix>3d</fix>
</trkpt>
<trkpt lat="33.810314" lon="-118.3938798">
  <ele>-29.54</ele>
  <time>2026-09-01T01:13:22Z</time>
  <course>276.18</course>
  <speed>0.0</speed>
  <fix>3d</fix>
</trkpt>
<trkpt lat="33.8103141" lon="-118.3938799">
  <ele>-30.275</ele>
  <time>2026-09-01T01:13:22Z</time>
  <course>185.91</course>
  <speed>0.0282842712474619</speed>
  <fix>3d</fix>
</trkpt>
<trkpt lat="33.810314" lon="-118.3938798">
  <ele>-29.54</ele>
  <time>2026-09-01T01:13:22Z</time>
  <course>276.18</course>
  <speed>0.0</speed>
  <fix>3d</fix>
</trkpt>
<trkpt lat="33.8103141" lon="-118.3938799">
  <ele>-30.274</ele>
  <time>2026-09-01T01:13:22Z</time>
  <course>185.92</course>
  <speed>0.0282842712474619</speed>
  <fix>3d</fix>
</trkpt>
<trkpt lat="33.810314" lon="-118.3938798">
  <ele>-29.54</ele>
  <time>2026-09-01T01:13:22Z</time>
  <course>276.18</course>
  <speed>0.0</speed>
  <fix>3d</fix>
</trkpt>
<trkpt lat="33.8103141" lon="-118.3938799">
  <ele>-30.274</ele>
  <time>2026-09-01T01:13:22Z</time>
  <course>185.93</course>
  <speed>0.0282842712474619</speed>
  <fix>3d</fix>
</trkpt>
<trkpt lat="33.810314" lon="-118.3938798">
  <ele>-29.54</ele>
  <time>2026-09-01T01:13:22Z</time>
  <course>276.19</course>
  <speed>0.0</speed>
  <fix>3d</fix>
</trkpt>
<trkpt lat="33.8103141" lon="-118.3938799">
  <ele>-30.273</ele>
  <time>2026-09-01T01:13:22Z</time>
  <course>185.94</course>
  <speed>0.0282842712474619</speed>
  <fix>3d</fix>
</trkpt>
<trkpt lat="33.810314" lon="-118.3938798">
  <ele>-29.54</ele>
  <time>2026-09-01T01:13:22Z</time>
  <course>276.19</course>
  <speed>0.0</speed>
  <fix>3d</fix>
</trkpt>
<trkpt lat="33.8103141" lon="-118.3938799">
  <ele>-30.273</ele>
  <time>2026-09-01T01:13:22Z</time>
  <course>185.95</course>
  <speed>0.0282842712474619</speed>
  <fix>3d</fix>
</trkpt>
<trkpt lat="33.810314" lon="-118.3938798">
  <ele>-29.54</ele>
  <time>2026-09-01T01:13:22Z</time>
  <course>276.18</course>
  <speed>0.0</speed>
  <fix>3d</fix>
</trkpt>
<trkpt lat="33.8103141" lon="-118.3938799">
  <ele>-30.273</ele>
  <time>2026-09-01T01:13:22Z</time>
  <course>185.96</course>
  <speed>0.0282842712474619</speed>
  <fix>3d</fix>
</trkpt>
<trkpt lat="33.810314" lon="-118.3938798">
  <ele>-29.54</ele>
  <time>2026-09-01T01:13:22Z</time>
  <course>276.18</course>
  <speed>0.0</speed>
  <fix>3d</fix>
</trkpt>
<trkpt lat="33.8103141" lon="-118.3938799">
  <ele>-30.273</ele>
  <time>2026-09-01T01:13:22Z</time>
  <course>185.97</course>
  <speed>0.0282842712474619</speed>
  <fix>3d</fix>
</trkpt>
<trkpt lat="33.810314" lon="-118.3938798">
  <ele>-29.54</ele>
  <time>2026-09-01T01:13:22Z</time>
  <course>276.19</course>
  <speed>0.0</speed>
  <fix>3d</fix>
</trkpt>
<trkpt lat="33.8103141" lon="-118.3938799">
  <ele>-30.273</ele>
  <time>2026-09-01T01:13:22Z</time>
  <course>185.98</course>
  <speed>0.0282842712474619</speed>
  <fix>3d</fix>
</trkpt>
<trkpt lat="33.810314" lon="-118.3938798">
  <ele>-29.54</ele>
  <time>2026-09-01T01:13:22Z</time>
  <course>276.19</course>
  <speed>0.0</speed>
  <fix>3d</fix>
</trkpt>
<trkpt lat="33.8103141" lon="-118.3938799">
  <ele>-30.273</ele>
  <time>2026-09-01T01:13:22Z</time>
  <course>185.95</course>
  <speed>0.0282842712474619</speed>
  <fix>3d</fix>
</trkpt>
<trkpt lat="33.810314" lon="-118.3938798">
  <ele>-29.53</ele>
  <time>2026-09-01T01:13:22Z</time>
  <course>276.19</course>
  <speed>0.0</speed>
  <fix>3d</fix>
</trkpt>
<trkpt lat="33.8103141" lon="-118.39388">
  <ele>-30.272</ele>
  <time>2026-09-01T01:13:22Z</time>
  <course>185.87</course>
  <speed>0.0282842712474619</speed>
  <fix>3d</fix>
</trkpt>
<trkpt lat="33.810314" lon="-118.3938798">
  <ele>-29.53</ele>
  <time>2026-09-01T01:13:22Z</time>
  <course>276.19</course>
  <speed>0.0</speed>
  <fix>3d</fix>
</trkpt>
<trkpt lat="33.8103141" lon="-118.39388">
  <ele>-30.269</ele>
  <time>2026-09-01T01:13:22Z</time>
  <course>185.76</course>
  <speed>0.0282842712474619</speed>
  <fix>3d</fix>
</trkpt>
<trkpt lat="33.810314" lon="-118.3938799">
  <ele>-29.53</ele>
  <time>2026-09-01T01:13:22Z</time>
  <course>276.2</course>
  <speed>0.0</speed>
  <fix>3d</fix>
</trkpt>
<trkpt lat="33.8103141" lon="-118.39388">
  <ele>-30.266</ele>
  <time>2026-09-01T01:13:22Z</time>
  <course>185.67</course>
  <speed>0.0282842712474619</speed>
  <fix>3d</fix>
</trkpt>
<trkpt lat="33.810314" lon="-118.3938799">
  <ele>-29.53</ele>
  <time>2026-09-01T01:13:22Z</time>
  <course>276.2</course>
  <speed>0.0</speed>
  <fix>3d</fix>
</trkpt>
<trkpt lat="33.8103141" lon="-118.39388">
  <ele>-30.261</ele>
  <time>2026-09-01T01:13:22Z</time>
  <course>185.6</course>
  <speed>0.0282842712474619</speed>
  <fix>3d</fix>
</trkpt>
<trkpt lat="33.810314" lon="-118.3938799">
  <ele>-29.53</ele>
  <time>2026-09-01T01:13:22Z</time>
  <course>276.21</course>
  <speed>0.0</speed>
  <fix>3d</fix>
</trkpt>
<trkpt lat="33.8103141" lon="-118.39388">
  <ele>-30.257</ele>
  <time>2026-09-01T01:13:22Z</time>
  <course>185.54</course>
  <speed>0.0282842712474619</speed>
  <fix>3d</fix>
</trkpt>
<trkpt lat="33.810314" lon="-118.3938799">
  <ele>-29.53</ele>
  <time>2026-09-01T01:13:22Z</time>
  <course>276.21</course>
  <speed>0.0</speed>
  <fix>3d</fix>
</trkpt>
<trkpt lat="33.8103141" lon="-118.39388">
  <ele>-30.252</ele>
  <time>2026-09-01T01:13:22Z</time>
  <course>185.49</course>
  <speed>0.0282842712474619</speed>
  <fix>3d</fix>
</trkpt>
<trkpt lat="33.810314" lon="-118.3938799">
  <ele>-29.52</ele>
  <time>2026-09-01T01:13:22Z</time>
  <course>276.21</course>
  <speed>0.0</speed>
  <fix>3d</fix>
</trkpt>
<trkpt lat="33.8103141" lon="-118.39388">
  <ele>-30.247</ele>
  <time>2026-09-01T01:13:22Z</time>
  <course>185.45</course>
  <speed>0.0282842712474619</speed>
  <fix>3d</fix>
</trkpt>
<trkpt lat="33.810314" lon="-118.3938799">
  <ele>-29.52</ele>
  <time>2026-09-01T01:13:22Z</time>
  <course>276.21</course>
  <speed>0.0</speed>
  <fix>3d</fix>
</trkpt>
<trkpt lat="33.8103141" lon="-118.39388">
  <ele>-30.242</ele>
  <time>2026-09-01T01:13:22Z</time>
  <course>185.42</course>
  <speed>0.0282842712474619</speed>
  <fix>3d</fix>
</trkpt>
<trkpt lat="33.810314" lon="-118.3938799">
  <ele>-29.51</ele>
  <time>2026-09-01T01:13:22Z</time>
  <course>276.22</course>
  <speed>0.0</speed>
  <fix>3d</fix>
</trkpt>
<trkpt lat="33.8103141" lon="-118.39388">
  <ele>-30.236</ele>
  <time>2026-09-01T01:13:22Z</time>
  <course>185.39</course>
  <speed>0.0282842712474619</speed>
  <fix>3d</fix>
</trkpt>
<trkpt lat="33.810314" lon="-118.3938799">
  <ele>-29.51</ele>
  <time>2026-09-01T01:13:22Z</time>
  <course>276.22</course>
  <speed>0.0</speed>
  <fix>3d</fix>
</trkpt>
<trkpt lat="33.8103142" lon="-118.39388">
  <ele>-30.229</ele>
  <time>2026-09-01T01:13:22Z</time>
  <course>185.36</course>
  <speed>0.0282842712474619</speed>
  <fix>3d</fix>
</trkpt>
<trkpt lat="33.8103141" lon="-118.3938799">
  <ele>-29.5</ele>
  <time>2026-09-01T01:13:22Z</time>
  <course>276.23</course>
  <speed>0.0</speed>
  <fix>3d</fix>
</trkpt>
<trkpt lat="33.8103142" lon="-118.3938801">
  <ele>-30.222</ele>
  <time>2026-09-01T01:13:22Z</time>
  <course>185.34</course>
  <speed>0.0282842712474619</speed>
  <fix>3d</fix>
</trkpt>
<trkpt lat="33.8103141" lon="-118.3938799">
  <ele>-29.5</ele>
  <time>2026-09-01T01:13:22Z</time>
  <course>276.23</course>
  <speed>0.0</speed>
  <fix>3d</fix>
</trkpt>
<trkpt lat="33.8103142" lon="-118.3938801">
  <ele>-30.214</ele>
  <time>2026-09-01T01:13:22Z</time>
  <course>185.32</course>
  <speed>0.0282842712474619</speed>
  <fix>3d</fix>
</trkpt>
<trkpt lat="33.8103141" lon="-118.3938799">
  <ele>-29.49</ele>
  <time>2026-09-01T01:13:22Z</time>
  <course>276.24</course>
  <speed>0.0</speed>
  <fix>3d</fix>
</trkpt>
<trkpt lat="33.8103142" lon="-118.3938801">
  <ele>-30.206</ele>
  <time>2026-09-01T01:13:22Z</time>
  <course>185.3</course>
  <speed>0.0282842712474619</speed>
  <fix>3d</fix>
</trkpt>
<trkpt lat="33.8103141" lon="-118.3938799">
  <ele>-29.49</ele>
  <time>2026-09-01T01:13:22Z</time>
  <course>276.24</course>
  <speed>0.0</speed>
  <fix>3d</fix>
</trkpt>
<trkpt lat="33.8103142" lon="-118.3938801">
  <ele>-30.198</ele>
  <time>2026-09-01T01:13:22Z</time>
  <course>185.29</course>
  <speed>0.0282842712474619</speed>
  <fix>3d</fix>
</trkpt>
<trkpt lat="33.8103141" lon="-118.3938799">
  <ele>-29.48</ele>
  <time>2026-09-01T01:13:22Z</time>
  <course>276.25</course>
  <speed>0.0</speed>
  <fix>3d</fix>
</trkpt>
<trkpt lat="33.8103142" lon="-118.3938801">
  <ele>-30.19</ele>
  <time>2026-09-01T01:13:22Z</time>
  <course>185.27</course>
  <speed>0.0282842712474619</speed>
  <fix>3d</fix>
</trkpt>
<trkpt lat="33.8103141" lon="-118.3938799">
  <ele>-29.48</ele>
  <time>2026-09-01T01:13:22Z</time>
  <course>276.25</course>
  <speed>0.0</speed>
  <fix>3d</fix>
</trkpt>
<trkpt lat="33.8103142" lon="-118.3938801">
  <ele>-30.181</ele>
  <time>2026-09-01T01:13:22Z</time>
  <course>185.26</course>
  <speed>0.0282842712474619</speed>
  <fix>3d</fix>
</trkpt>
<trkpt lat="33.8103141" lon="-118.39388">
  <ele>-29.47</ele>
  <time>2026-09-01T01:13:22Z</time>
  <course>276.26</course>
  <speed>0.0</speed>
  <fix>3d</fix>
</trkpt>
<trkpt lat="33.8103142" lon="-118.3938801">
  <ele>-30.172</ele>
  <time>2026-09-01T01:13:22Z</time>
  <course>185.25</course>
  <speed>0.0282842712474619</speed>
  <fix>3d</fix>
</trkpt>
<trkpt lat="33.8103141" lon="-118.39388">
  <ele>-29.47</ele>
  <time>2026-09-01T01:13:22Z</time>
  <course>276.26</course>
  <speed>0.0</speed>
  <fix>3d</fix>
</trkpt>
<trkpt lat="33.8103142" lon="-118.3938801">
  <ele>-30.163</ele>
  <time>2026-09-01T01:13:22Z</time>
  <course>185.24</course>
  <speed>0.0282842712474619</speed>
  <fix>3d</fix>
</trkpt>
<trkpt lat="33.8103141" lon="-118.39388">
  <ele>-29.45</ele>
  <time>2026-09-01T01:13:22Z</time>
  <course>276.26</course>
  <speed>0.0</speed>
  <fix>3d</fix>
</trkpt>
<trkpt lat="33.8103142" lon="-118.3938801">
  <ele>-30.154</ele>
  <time>2026-09-01T01:13:22Z</time>
  <course>185.24</course>
  <speed>0.0282842712474619</speed>
  <fix>3d</fix>
</trkpt>
<trkpt lat="33.8103141" lon="-118.39388">
  <ele>-29.45</ele>
  <time>2026-09-01T01:13:22Z</time>
  <course>276.26</course>
  <speed>0.0</speed>
  <fix>3d</fix>
</trkpt>
<trkpt lat="33.8103142" lon="-118.3938801">
  <ele>-30.145</ele>
  <time>2026-09-01T01:13:22Z</time>
  <course>185.23</course>
  <speed>0.0282842712474619</speed>
  <fix>3d</fix>
</trkpt>
<trkpt lat="33.8103141" lon="-118.39388">
  <ele>-29.44</ele>
  <time>2026-09-01T01:13:22Z</time>
  <course>276.27</course>
  <speed>0.0</speed>
  <fix>3d</fix>
</trkpt>
<trkpt lat="33.8103142" lon="-118.3938801">
  <ele>-30.135</ele>
  <time>2026-09-01T01:13:22Z</time>
  <course>185.23</course>
  <speed>0.0282842712474619</speed>
  <fix>3d</fix>
</trkpt>
<trkpt lat="33.8103141" lon="-118.39388">
  <ele>-29.44</ele>
  <time>2026-09-01T01:13:22Z</time>
  <course>276.27</course>
  <speed>0.0</speed>
  <fix>3d</fix>
</trkpt>
<trkpt lat="33.8103142" lon="-118.3938801">
  <ele>-30.126</ele>
  <time>2026-09-01T01:13:22Z</time>
  <course>185.22</course>
  <speed>0.0282842712474619</speed>
  <fix>3d</fix>
</trkpt>
<trkpt lat="33.8103141" lon="-118.39388">
  <ele>-29.42</ele>
  <time>2026-09-01T01:13:22Z</time>
  <course>276.28</course>
  <speed>0.0</speed>
  <fix>3d</fix>
</trkpt>
<trkpt lat="33.8103142" lon="-118.3938801">
  <ele>-30.117</ele>
  <time>2026-09-01T01:13:22Z</time>
  <course>185.22</course>
  <speed>0.0282842712474619</speed>
  <fix>3d</fix>
</trkpt>
<trkpt lat="33.8103141" lon="-118.39388">
  <ele>-29.42</ele>
  <time>2026-09-01T01:13:22Z</time>
  <course>276.28</course>
  <speed>0.0</speed>
  <fix>3d</fix>
</trkpt>
<trkpt lat="33.8103142" lon="-118.3938801">
  <ele>-30.108</ele>
  <time>2026-09-01T01:13:22Z</time>
  <course>185.21</course>
  <speed>0.0282842712474619</speed>
  <fix>3d</fix>
</trkpt>
<trkpt lat="33.8103141" lon="-118.39388">
  <ele>-29.4</ele>
  <time>2026-09-01T01:13:22Z</time>
  <course>276.29</course>
  <speed>0.0</speed>
  <fix>3d</fix>
</trkpt>
<trkpt lat="33.8103142" lon="-118.3938801">
  <ele>-30.1</ele>
  <time>2026-09-01T01:13:22Z</time>
  <course>185.21</course>
  <speed>0.0282842712474619</speed>
  <fix>3d</fix>
</trkpt>
<trkpt lat="33.8103141" lon="-118.39388">
  <ele>-29.4</ele>
  <time>2026-09-01T01:13:22Z</time>
  <course>276.29</course>
  <speed>0.0</speed>
  <fix>3d</fix>
</trkpt>
<trkpt lat="33.8103142" lon="-118.3938802">
  <ele>-30.092</ele>
  <time>2026-09-01T01:13:22Z</time>
  <course>185.21</course>
  <speed>0.0282842712474619</speed>
  <fix>3d</fix>
</trkpt>
<trkpt lat="33.8103141" lon="-118.39388">
  <ele>-29.39</ele>
  <time>2026-09-01T01:13:22Z</time>
  <course>276.3</course>
  <speed>0.0</speed>
  <fix>3d</fix>
</trkpt>
<trkpt lat="33.8103142" lon="-118.3938802">
  <ele>-30.083</ele>
  <time>2026-09-01T01:13:22Z</time>
  <course>185.21</course>
  <speed>0.0282842712474619</speed>
  <fix>3d</fix>
</trkpt>
<trkpt lat="33.8103141" lon="-118.39388">
  <ele>-29.39</ele>
  <time>2026-09-01T01:13:22Z</time>
  <course>276.3</course>
  <speed>0.0</speed>
  <fix>3d</fix>
</trkpt>
<trkpt lat="33.8103142" lon="-118.3938802">
  <ele>-30.074</ele>
  <time>2026-09-01T01:13:22Z</time>
  <course>185.21</course>
  <speed>0.0282842712474619</speed>
  <fix>3d</fix>
</trkpt>
<trkpt lat="33.8103141" lon="-118.39388">
  <ele>-29.36</ele>
  <time>2026-09-01T01:13:22Z</time>
  <course>276.31</course>
  <speed>0.0</speed>
  <fix>3d</fix>
</trkpt>
<trkpt lat="33.8103142" lon="-118.3938802">
  <ele>-30.064</ele>
  <time>2026-09-01T01:13:22Z</time>
  <course>185.21</course>
  <speed>0.0282842712474619</speed>
  <fix>3d</fix>
</trkpt>
<trkpt lat="33.8103141" lon="-118.39388">
  <ele>-29.36</ele>
  <time>2026-09-01T01:13:22Z</time>
  <course>276.31</course>
  <speed>0.0</speed>
  <fix>3d</fix>
</trkpt>
<trkpt lat="33.8103142" lon="-118.3938802">
  <ele>-30.054</ele>
  <time>2026-09-01T01:13:22Z</time>
  <course>185.21</course>
  <speed>0.0282842712474619</speed>
  <fix>3d</fix>
</trkpt>
<trkpt lat="33.8103141" lon="-118.3938801">
  <ele>-29.35</ele>
  <time>2026-09-01T01:13:22Z</time>
  <course>276.31</course>
  <speed>0.0</speed>
  <fix>3d</fix>
</trkpt>
<trkpt lat="33.8103142" lon="-118.3938802">
  <ele>-30.044</ele>
  <time>2026-09-01T01:13:22Z</time>
  <course>185.21</course>
  <speed>0.0282842712474619</speed>
  <fix>3d</fix>
</trkpt>
<trkpt lat="33.8103141" lon="-118.3938801">
  <ele>-29.35</ele>
  <time>2026-09-01T01:13:22Z</time>
  <course>276.31</course>
  <speed>0.0</speed>
  <fix>3d</fix>
</trkpt>
<trkpt lat="33.8103142" lon="-118.3938802">
  <ele>-30.034</ele>
  <time>2026-09-01T01:13:22Z</time>
  <course>185.21</course>
  <speed>0.0282842712474619</speed>
  <fix>3d</fix>
</trkpt>
<trkpt lat="33.8103141" lon="-118.3938801">
  <ele>-29.33</ele>
  <time>2026-09-01T01:13:23Z</time>
  <course>276.32</course>
  <speed>0.0</speed>
  <fix>3d</fix>
</trkpt>
<trkpt lat="33.8103142" lon="-118.3938802">
  <ele>-30.024</ele>
  <time>2026-09-01T01:13:23Z</time>
  <course>185.21</course>
  <speed>0.0282842712474619</speed>
  <fix>3d</fix>
</trkpt>
<trkpt lat="33.8103141" lon="-118.3938801">
  <ele>-29.33</ele>
  <time>2026-09-01T01:13:23Z</time>
  <course>276.32</course>
  <speed>0.0</speed>
  <fix>3d</fix>
</trkpt>
<trkpt lat="33.8103142" lon="-118.3938802">
  <ele>-30.015</ele>
  <time>2026-09-01T01:13:23Z</time>
  <course>185.21</course>
  <speed>0.0282842712474619</speed>
  <fix>3d</fix>
</trkpt>
<trkpt lat="33.8103141" lon="-118.3938801">
  <ele>-29.31</ele>
  <time>2026-09-01T01:13:23Z</time>
  <course>276.33</course>
  <speed>0.0</speed>
  <fix>3d</fix>
</trkpt>
<trkpt lat="33.8103142" lon="-118.3938802">
  <ele>-30.006</ele>
  <time>2026-09-01T01:13:23Z</time>
  <course>185.21</course>
  <speed>0.0282842712474619</speed>
  <fix>3d</fix>
</trkpt>
<trkpt lat="33.8103141" lon="-118.3938801">
  <ele>-29.31</ele>
  <time>2026-09-01T01:13:23Z</time>
  <course>276.33</course>
  <speed>0.0</speed>
  <fix>3d</fix>
</trkpt>
<trkpt lat="33.8103142" lon="-118.3938802">
  <ele>-29.997</ele>
  <time>2026-09-01T01:13:23Z</time>
  <course>185.22</course>
  <speed>0.0282842712474619</speed>
  <fix>3d</fix>
</trkpt>
<trkpt lat="33.8103141" lon="-118.3938801">
  <ele>-29.3</ele>
  <time>2026-09-01T01:13:23Z</time>
  <course>276.34</course>
  <speed>0.0</speed>
  <fix>3d</fix>
</trkpt>
<trkpt lat="33.8103142" lon="-118.3938802">
  <ele>-29.988</ele>
  <time>2026-09-01T01:13:23Z</time>
  <course>185.22</course>
  <speed>0.0282842712474619</speed>
  <fix>3d</fix>
</trkpt>
<trkpt lat="33.8103141" lon="-118.3938801">
  <ele>-29.3</ele>
  <time>2026-09-01T01:13:23Z</time>
  <course>276.34</course>
  <speed>0.0</speed>
  <fix>3d</fix>
</trkpt>
<trkpt lat="33.8103142" lon="-118.3938802">
  <ele>-29.979</ele>
  <time>2026-09-01T01:13:23Z</time>
  <course>185.22</course>
  <speed>0.0282842712474619</speed>
  <fix>3d</fix>
</trkpt>
<trkpt lat="33.8103141" lon="-118.3938801">
  <ele>-29.28</ele>
  <time>2026-09-01T01:13:23Z</time>
  <course>276.35</course>
  <speed>0.0</speed>
  <fix>3d</fix>
</trkpt>
<trkpt lat="33.8103142" lon="-118.3938802">
  <ele>-29.97</ele>
  <time>2026-09-01T01:13:23Z</time>
  <course>185.22</course>
  <speed>0.0282842712474619</speed>
  <fix>3d</fix>
</trkpt>
<trkpt lat="33.8103141" lon="-118.3938801">
  <ele>-29.28</ele>
  <time>2026-09-01T01:13:23Z</time>
  <course>276.35</course>
  <speed>0.0</speed>
  <fix>3d</fix>
</trkpt>
<trkpt lat="33.8103142" lon="-118.3938802">
  <ele>-29.96</ele>
  <time>2026-09-01T01:13:23Z</time>
  <course>185.23</course>
  <speed>0.0282842712474619</speed>
  <fix>3d</fix>
</trkpt>
<trkpt lat="33.8103141" lon="-118.3938801">
  <ele>-29.26</ele>
  <time>2026-09-01T01:13:23Z</time>
  <course>276.36</course>
  <speed>0.0</speed>
  <fix>3d</fix>
</trkpt>
<trkpt lat="33.8103142" lon="-118.3938802">
  <ele>-29.95</ele>
  <time>2026-09-01T01:13:23Z</time>
  <course>185.23</course>
  <speed>0.0282842712474619</speed>
  <fix>3d</fix>
</trkpt>
<trkpt lat="33.8103141" lon="-118.3938801">
  <ele>-29.26</ele>
  <time>2026-09-01T01:13:23Z</time>
  <course>276.36</course>
  <speed>0.0</speed>
  <fix>3d</fix>
</trkpt>
<trkpt lat="33.8103142" lon="-118.3938802">
  <ele>-29.94</ele>
  <time>2026-09-01T01:13:23Z</time>
  <course>185.23</course>
  <speed>0.0282842712474619</speed>
  <fix>3d</fix>
</trkpt>
<trkpt lat="33.8103141" lon="-118.3938801">
  <ele>-29.24</ele>
  <time>2026-09-01T01:13:23Z</time>
  <course>276.36</course>
  <speed>0.0</speed>
  <fix>3d</fix>
</trkpt>
<trkpt lat="33.8103142" lon="-118.3938803">
  <ele>-29.93</ele>
  <time>2026-09-01T01:13:23Z</time>
  <course>185.23</course>
  <speed>0.0282842712474619</speed>
  <fix>3d</fix>
</trkpt>
<trkpt lat="33.8103141" lon="-118.3938801">
  <ele>-29.24</ele>
  <time>2026-09-01T01:13:23Z</time>
  <course>276.36</course>
  <speed>0.0</speed>
  <fix>3d</fix>
</trkpt>
<trkpt lat="33.8103142" lon="-118.3938803">
  <ele>-29.92</ele>
  <time>2026-09-01T01:13:23Z</time>
  <course>185.24</course>
  <speed>0.0282842712474619</speed>
  <fix>3d</fix>
</trkpt>
<trkpt lat="33.8103141" lon="-118.3938802">
  <ele>-29.22</ele>
  <time>2026-09-01T01:13:23Z</time>
  <course>276.37</course>
  <speed>0.0</speed>
  <fix>3d</fix>
</trkpt>
<trkpt lat="33.8103142" lon="-118.3938803">
  <ele>-29.91</ele>
  <time>2026-09-01T01:13:23Z</time>
  <course>185.24</course>
  <speed>0.0282842712474619</speed>
  <fix>3d</fix>
</trkpt>
<trkpt lat="33.8103141" lon="-118.3938802">
  <ele>-29.22</ele>
  <time>2026-09-01T01:13:23Z</time>
  <course>276.37</course>
  <speed>0.0</speed>
  <fix>3d</fix>
</trkpt>
<trkpt lat="33.8103142" lon="-118.3938803">
  <ele>-29.901</ele>
  <time>2026-09-01T01:13:23Z</time>
  <course>185.25</course>
  <speed>0.0282842712474619</speed>
  <fix>3d</fix>
</trkpt>
<trkpt lat="33.8103141" lon="-118.3938802">
  <ele>-29.2</ele>
  <time>2026-09-01T01:13:23Z</time>
  <course>276.37</course>
  <speed>0.0</speed>
  <fix>3d</fix>
</trkpt>
<trkpt lat="33.8103142" lon="-118.3938803">
  <ele>-29.892</ele>
  <time>2026-09-01T01:13:23Z</time>
  <course>185.25</course>
  <speed>0.0282842712474619</speed>
  <fix>3d</fix>
</trkpt>
<trkpt lat="33.8103141" lon="-118.3938802">
  <ele>-29.2</ele>
  <time>2026-09-01T01:13:23Z</time>
  <course>276.37</course>
  <speed>0.0</speed>
  <fix>3d</fix>
</trkpt>
<trkpt lat="33.8103142" lon="-118.3938803">
  <ele>-29.882</ele>
  <time>2026-09-01T01:13:23Z</time>
  <course>185.25</course>
  <speed>0.0282842712474619</speed>
  <fix>3d</fix>
</trkpt>
<trkpt lat="33.8103141" lon="-118.3938802">
  <ele>-29.18</ele>
  <time>2026-09-01T01:13:23Z</time>
  <course>276.38</course>
  <speed>0.0</speed>
  <fix>3d</fix>
</trkpt>
<trkpt lat="33.8103142" lon="-118.3938803">
  <ele>-29.874</ele>
  <time>2026-09-01T01:13:23Z</time>
  <course>185.26</course>
  <speed>0.0282842712474619</speed>
  <fix>3d</fix>
</trkpt>
<trkpt lat="33.8103141" lon="-118.3938802">
  <ele>-29.18</ele>
  <time>2026-09-01T01:13:23Z</time>
  <course>276.38</course>
  <speed>0.0</speed>
  <fix>3d</fix>
</trkpt>
<trkpt lat="33.8103142" lon="-118.3938803">
  <ele>-29.865</ele>
  <time>2026-09-01T01:13:23Z</time>
  <course>185.26</course>
  <speed>0.0282842712474619</speed>
  <fix>3d</fix>
</trkpt>
<trkpt lat="33.8103141" lon="-118.3938802">
  <ele>-29.16</ele>
  <time>2026-09-01T01:13:23Z</time>
  <course>276.39</course>
  <speed>0.0</speed>
  <fix>3d</fix>
</trkpt>
<trkpt lat="33.8103142" lon="-118.3938803">
  <ele>-29.856</ele>
  <time>2026-09-01T01:13:23Z</time>
  <course>185.27</course>
  <speed>0.0282842712474619</speed>
  <fix>3d</fix>
</trkpt>
<trkpt lat="33.8103141" lon="-118.3938802">
  <ele>-29.16</ele>
  <time>2026-09-01T01:13:23Z</time>
  <course>276.39</course>
  <speed>0.0</speed>
  <fix>3d</fix>
</trkpt>
<trkpt lat="33.8103142" lon="-118.3938803">
  <ele>-29.848</ele>
  <time>2026-09-01T01:13:23Z</time>
  <course>185.27</course>
  <speed>0.0282842712474619</speed>
  <fix>3d</fix>
</trkpt>
<trkpt lat="33.8103141" lon="-118.3938802">
  <ele>-29.14</ele>
  <time>2026-09-01T01:13:23Z</time>
  <course>276.4</course>
  <speed>0.0</speed>
  <fix>3d</fix>
</trkpt>
<trkpt lat="33.8103142" lon="-118.3938803">
  <ele>-29.839</ele>
  <time>2026-09-01T01:13:23Z</time>
  <course>185.28</course>
  <speed>0.0282842712474619</speed>
  <fix>3d</fix>
</trkpt>
<trkpt lat="33.8103141" lon="-118.3938802">
  <ele>-29.14</ele>
  <time>2026-09-01T01:13:23Z</time>
  <course>276.4</course>
  <speed>0.0</speed>
  <fix>3d</fix>
</trkpt>
<trkpt lat="33.8103142" lon="-118.3938803">
  <ele>-29.83</ele>
  <time>2026-09-01T01:13:23Z</time>
  <course>185.28</course>
  <speed>0.0282842712474619</speed>
  <fix>3d</fix>
</trkpt>
<trkpt lat="33.8103141" lon="-118.3938802">
  <ele>-29.13</ele>
  <time>2026-09-01T01:13:23Z</time>
  <course>276.41</course>
  <speed>0.0</speed>
  <fix>3d</fix>
</trkpt>
<trkpt lat="33.8103142" lon="-118.3938803">
  <ele>-29.82</ele>
  <time>2026-09-01T01:13:23Z</time>
  <course>185.28</course>
  <speed>0.0282842712474619</speed>
  <fix>3d</fix>
</trkpt>
<trkpt lat="33.8103141" lon="-118.3938802">
  <ele>-29.13</ele>
  <time>2026-09-01T01:13:23Z</time>
  <course>276.41</course>
  <speed>0.0</speed>
  <fix>3d</fix>
</trkpt>
<trkpt lat="33.8103142" lon="-118.3938803">
  <ele>-29.81</ele>
  <time>2026-09-01T01:13:23Z</time>
  <course>185.29</course>
  <speed>0.0282842712474619</speed>
  <fix>3d</fix>
</trkpt>
<trkpt lat="33.8103141" lon="-118.3938802">
  <ele>-29.11</ele>
  <time>2026-09-01T01:13:23Z</time>
  <course>276.41</course>
  <speed>0.0</speed>
  <fix>3d</fix>
</trkpt>
<trkpt lat="33.8103142" lon="-118.3938804">
  <ele>-29.8</ele>
  <time>2026-09-01T01:13:23Z</time>
  <course>185.29</course>
  <speed>0.0282842712474619</speed>
  <fix>3d</fix>
</trkpt>
<trkpt lat="33.8103141" lon="-118.3938802">
  <ele>-29.11</ele>
  <time>2026-09-01T01:13:23Z</time>
  <course>276.41</course>
  <speed>0.0</speed>
  <fix>3d</fix>
</trkpt>
<trkpt lat="33.8103142" lon="-118.3938804">
  <ele>-29.791</ele>
  <time>2026-09-01T01:13:23Z</time>
  <course>185.3</course>
  <speed>0.0282842712474619</speed>
  <fix>3d</fix>
</trkpt>
<trkpt lat="33.8103141" lon="-118.3938802">
  <ele>-29.09</ele>
  <time>2026-09-01T01:13:23Z</time>
  <course>276.41</course>
  <speed>0.0</speed>
  <fix>3d</fix>
</trkpt>
<trkpt lat="33.8103142" lon="-118.3938804">
  <ele>-29.781</ele>
  <time>2026-09-01T01:13:23Z</time>
  <course>185.3</course>
  <speed>0.0282842712474619</speed>
  <fix>3d</fix>
</trkpt>
<trkpt lat="33.8103141" lon="-118.3938802">
  <ele>-29.09</ele>
  <time>2026-09-01T01:13:23Z</time>
  <course>276.41</course>
  <speed>0.0</speed>
  <fix>3d</fix>
</trkpt>
<trkpt lat="33.8103142" lon="-118.3938804">
  <ele>-29.772</ele>
  <time>2026-09-01T01:13:23Z</time>
  <course>185.31</course>
  <speed>0.0282842712474619</speed>
  <fix>3d</fix>
</trkpt>
<trkpt lat="33.8103141" lon="-118.3938803">
  <ele>-29.07</ele>
  <time>2026-09-01T01:13:23Z</time>
  <course>276.42</course>
  <speed>0.0</speed>
  <fix>3d</fix>
</trkpt>
<trkpt lat="33.8103142" lon="-118.3938804">
  <ele>-29.762</ele>
  <time>2026-09-01T01:13:23Z</time>
  <course>185.31</course>
  <speed>0.0282842712474619</speed>
  <fix>3d</fix>
</trkpt>
<trkpt lat="33.8103141" lon="-118.3938803">
  <ele>-29.07</ele>
  <time>2026-09-01T01:13:23Z</time>
  <course>276.42</course>
  <speed>0.0</speed>
  <fix>3d</fix>
</trkpt>
<trkpt lat="33.8103142" lon="-118.3938804">
  <ele>-29.753</ele>
  <time>2026-09-01T01:13:23Z</time>
  <course>185.32</course>
  <speed>0.0282842712474619</speed>
  <fix>3d</fix>
</trkpt>
<trkpt lat="33.8103141" lon="-118.3938803">
  <ele>-29.05</ele>
  <time>2026-09-01T01:13:23Z</time>
  <course>276.43</course>
  <speed>0.0</speed>
  <fix>3d</fix>
</trkpt>
<trkpt lat="33.8103142" lon="-118.3938804">
  <ele>-29.756</ele>
  <time>2026-09-01T01:13:23Z</time>
  <course>185.33</course>
  <speed>0.0282842712474619</speed>
  <fix>3d</fix>
</trkpt>
<trkpt lat="33.8103141" lon="-118.3938803">
  <ele>-29.05</ele>
  <time>2026-09-01T01:13:23Z</time>
  <course>276.43</course>
  <speed>0.0</speed>
  <fix>3d</fix>
</trkpt>
<trkpt lat="33.8103142" lon="-118.3938804">
  <ele>-29.762</ele>
  <time>2026-09-01T01:13:23Z</time>
  <course>185.33</course>
  <speed>0.0282842712474619</speed>
  <fix>3d</fix>
</trkpt>
<trkpt lat="33.8103141" lon="-118.3938803">
  <ele>-29.04</ele>
  <time>2026-09-01T01:13:23Z</time>
  <course>276.45</course>
  <speed>0.0</speed>
  <fix>3d</fix>
</trkpt>
<trkpt lat="33.8103142" lon="-118.3938804">
  <ele>-29.769</ele>
  <time>2026-09-01T01:13:23Z</time>
  <course>185.34</course>
  <speed>0.0282842712474619</speed>
  <fix>3d</fix>
</trkpt>
<trkpt lat="33.8103141" lon="-118.3938803">
  <ele>-29.04</ele>
  <time>2026-09-01T01:13:23Z</time>
  <course>276.45</course>
  <speed>0.0</speed>
  <fix>3d</fix>
</trkpt>
<trkpt lat="33.8103142" lon="-118.3938804">
  <ele>-29.777</ele>
  <time>2026-09-01T01:13:23Z</time>
  <course>185.34</course>
  <speed>0.0282842712474619</speed>
  <fix>3d</fix>
</trkpt>
<trkpt lat="33.8103141" lon="-118.3938803">
  <ele>-29.04</ele>
  <time>2026-09-01T01:13:23Z</time>
  <course>276.46</course>
  <speed>0.0</speed>
  <fix>3d</fix>
</trkpt>
<trkpt lat="33.8103142" lon="-118.3938804">
  <ele>-29.787</ele>
  <time>2026-09-01T01:13:23Z</time>
  <course>185.35</course>
  <speed>0.0282842712474619</speed>
  <fix>3d</fix>
</trkpt>
<trkpt lat="33.8103141" lon="-118.3938803">
  <ele>-29.04</ele>
  <time>2026-09-01T01:13:23Z</time>
  <course>276.46</course>
  <speed>0.0</speed>
  <fix>3d</fix>
</trkpt>
<trkpt lat="33.8103142" lon="-118.3938804">
  <ele>-29.797</ele>
  <time>2026-09-01T01:13:23Z</time>
  <course>185.35</course>
  <speed>0.0282842712474619</speed>
  <fix>3d</fix>
</trkpt>
<trkpt lat="33.8103141" lon="-118.3938803">
  <ele>-29.06</ele>
  <time>2026-09-01T01:13:23Z</time>
  <course>276.45</course>
  <speed>0.0</speed>
  <fix>3d</fix>
</trkpt>
<trkpt lat="33.8103142" lon="-118.3938804">
  <ele>-29.808</ele>
  <time>2026-09-01T01:13:23Z</time>
  <course>185.36</course>
  <speed>0.0282842712474619</speed>
  <fix>3d</fix>
</trkpt>
<trkpt lat="33.8103141" lon="-118.3938803">
  <ele>-29.06</ele>
  <time>2026-09-01T01:13:23Z</time>
  <course>276.45</course>
  <speed>0.0</speed>
  <fix>3d</fix>
</trkpt>
<trkpt lat="33.8103142" lon="-118.3938804">
  <ele>-29.819</ele>
  <time>2026-09-01T01:13:23Z</time>
  <course>185.36</course>
  <speed>0.0282842712474619</speed>
  <fix>3d</fix>
</trkpt>
<trkpt lat="33.8103141" lon="-118.3938803">
  <ele>-29.08</ele>
  <time>2026-09-01T01:13:23Z</time>
  <course>276.44</course>
  <speed>0.0</speed>
  <fix>3d</fix>
</trkpt>
<trkpt lat="33.8103142" lon="-118.3938805">
  <ele>-29.829</ele>
  <time>2026-09-01T01:13:23Z</time>
  <course>185.37</course>
  <speed>0.0282842712474619</speed>
  <fix>3d</fix>
</trkpt>
<trkpt lat="33.8103141" lon="-118.3938803">
  <ele>-29.08</ele>
  <time>2026-09-01T01:13:23Z</time>
  <course>276.44</course>
  <speed>0.0</speed>
  <fix>3d</fix>
</trkpt>
<trkpt lat="33.8103142" lon="-118.3938805">
  <ele>-29.837</ele>
  <time>2026-09-01T01:13:23Z</time>
  <course>185.37</course>
  <speed>0.0282842712474619</speed>
  <fix>3d</fix>
</trkpt>
<trkpt lat="33.8103141" lon="-118.3938803">
  <ele>-29.1</ele>
  <time>2026-09-01T01:13:23Z</time>
  <course>276.44</course>
  <speed>0.0</speed>
  <fix>3d</fix>
</trkpt>
<trkpt lat="33.8103142" lon="-118.3938805">
  <ele>-29.845</ele>
  <time>2026-09-01T01:13:23Z</time>
  <course>185.38</course>
  <speed>0.0282842712474619</speed>
  <fix>3d</fix>
</trkpt>
<trkpt lat="33.8103141" lon="-118.3938803">
  <ele>-29.1</ele>
  <time>2026-09-01T01:13:23Z</time>
  <course>276.44</course>
  <speed>0.0</speed>
  <fix>3d</fix>
</trkpt>
<trkpt lat="33.8103142" lon="-118.3938805">
  <ele>-29.853</ele>
  <time>2026-09-01T01:13:23Z</time>
  <course>185.39</course>
  <speed>0.0282842712474619</speed>
  <fix>3d</fix>
</trkpt>
<trkpt lat="33.8103141" lon="-118.3938803">
  <ele>-29.11</ele>
  <time>2026-09-01T01:13:23Z</time>
  <course>276.44</course>
  <speed>0.0</speed>
  <fix>3d</fix>
</trkpt>
<trkpt lat="33.8103142" lon="-118.3938805">
  <ele>-29.859</ele>
  <time>2026-09-01T01:13:23Z</time>
  <course>185.39</course>
  <speed>0.0282842712474619</speed>
  <fix>3d</fix>
</trkpt>
<trkpt lat="33.8103141" lon="-118.3938803">
  <ele>-29.11</ele>
  <time>2026-09-01T01:13:23Z</time>
  <course>276.44</course>
  <speed>0.0</speed>
  <fix>3d</fix>
</trkpt>
<trkpt lat="33.8103142" lon="-118.3938805">
  <ele>-29.864</ele>
  <time>2026-09-01T01:13:23Z</time>
  <course>185.4</course>
  <speed>0.0282842712474619</speed>
  <fix>3d</fix>
</trkpt>
<trkpt lat="33.8103141" lon="-118.3938804">
  <ele>-29.12</ele>
  <time>2026-09-01T01:13:23Z</time>
  <course>276.45</course>
  <speed>0.0</speed>
  <fix>3d</fix>
</trkpt>
<trkpt lat="33.8103142" lon="-118.3938805">
  <ele>-29.868</ele>
  <time>2026-09-01T01:13:23Z</time>
  <course>185.4</course>
  <speed>0.0282842712474619</speed>
  <fix>3d</fix>
</trkpt>
<trkpt lat="33.8103141" lon="-118.3938804">
  <ele>-29.12</ele>
  <time>2026-09-01T01:13:23Z</time>
  <course>276.45</course>
  <speed>0.0</speed>
  <fix>3d</fix>
</trkpt>
<trkpt lat="33.8103142" lon="-118.3938805">
  <ele>-29.872</ele>
  <time>2026-09-01T01:13:23Z</time>
  <course>185.41</course>
  <speed>0.0282842712474619</speed>
  <fix>3d</fix>
</trkpt>
<trkpt lat="33.8103141" lon="-118.3938804">
  <ele>-29.13</ele>
  <time>2026-09-01T01:13:23Z</time>
  <course>276.46</course>
  <speed>0.0</speed>
  <fix>3d</fix>
</trkpt>
<trkpt lat="33.8103142" lon="-118.3938805">
  <ele>-29.876</ele>
  <time>2026-09-01T01:13:23Z</time>
  <course>185.41</course>
  <speed>0.0282842712474619</speed>
  <fix>3d</fix>
</trkpt>
<trkpt lat="33.8103141" lon="-118.3938804">
  <ele>-29.13</ele>
  <time>2026-09-01T01:13:23Z</time>
  <course>276.46</course>
  <speed>0.0</speed>
  <fix>3d</fix>
</trkpt>
<trkpt lat="33.8103142" lon="-118.3938805">
  <ele>-29.879</ele>
  <time>2026-09-01T01:13:23Z</time>
  <course>185.42</course>
  <speed>0.0282842712474619</speed>
  <fix>3d</fix>
</trkpt>
<trkpt lat="33.8103141" lon="-118.3938804">
  <ele>-29.14</ele>
  <time>2026-09-01T01:13:23Z</time>
  <course>276.46</course>
  <speed>0.0</speed>
  <fix>3d</fix>
</trkpt>
<trkpt lat="33.8103142" lon="-118.3938805">
  <ele>-29.881</ele>
  <time>2026-09-01T01:13:23Z</time>
  <course>185.43</course>
  <speed>0.0282842712474619</speed>
  <fix>3d</fix>
</trkpt>
<trkpt lat="33.8103141" lon="-118.3938804">
  <ele>-29.14</ele>
  <time>2026-09-01T01:13:23Z</time>
  <course>276.46</course>
  <speed>0.0</speed>
  <fix>3d</fix>
</trkpt>
<trkpt lat="33.8103142" lon="-118.3938805">
  <ele>-29.883</ele>
  <time>2026-09-01T01:13:23Z</time>
  <course>185.43</course>
  <speed>0.0282842712474619</speed>
  <fix>3d</fix>
</trkpt>
<trkpt lat="33.8103141" lon="-118.3938804">
  <ele>-29.15</ele>
  <time>2026-09-01T01:13:23Z</time>
  <course>276.46</course>
  <speed>0.0</speed>
  <fix>3d</fix>
</trkpt>
<trkpt lat="33.8103142" lon="-118.3938805">
  <ele>-29.884</ele>
  <time>2026-09-01T01:13:23Z</time>
  <course>185.44</course>
  <speed>0.0282842712474619</speed>
  <fix>3d</fix>
</trkpt>
<trkpt lat="33.8103141" lon="-118.3938804">
  <ele>-29.15</ele>
  <time>2026-09-01T01:13:23Z</time>
  <course>276.46</course>
  <speed>0.0</speed>
  <fix>3d</fix>
</trkpt>
<trkpt lat="33.8103142" lon="-118.3938805">
  <ele>-29.884</ele>
  <time>2026-09-01T01:13:23Z</time>
  <course>185.44</course>
  <speed>0.0282842712474619</speed>
  <fix>3d</fix>
</trkpt>
<trkpt lat="33.8103141" lon="-118.3938804">
  <ele>-29.15</ele>
  <time>2026-09-01T01:13:23Z</time>
  <course>276.47</course>
  <speed>0.0</speed>
  <fix>3d</fix>
</trkpt>
<trkpt lat="33.8103142" lon="-118.3938805">
  <ele>-29.883</ele>
  <time>2026-09-01T01:13:23Z</time>
  <course>185.45</course>
  <speed>0.0282842712474619</speed>
  <fix>3d</fix>
</trkpt>
<trkpt lat="33.8103141" lon="-118.3938804">
  <ele>-29.15</ele>
  <time>2026-09-01T01:13:23Z</time>
  <course>276.47</course>
  <speed>0.0</speed>
  <fix>3d</fix>
</trkpt>
<trkpt lat="33.8103142" lon="-118.3938806">
  <ele>-29.88</ele>
  <time>2026-09-01T01:13:23Z</time>
  <course>185.45</course>
  <speed>0.0282842712474619</speed>
  <fix>3d</fix>
</trkpt>
<trkpt lat="33.8103141" lon="-118.3938804">
  <ele>-29.15</ele>
  <time>2026-09-01T01:13:23Z</time>
  <course>276.48</course>
  <speed>0.0</speed>
  <fix>3d</fix>
</trkpt>
<trkpt lat="33.8103142" lon="-118.3938806">
  <ele>-29.878</ele>
  <time>2026-09-01T01:13:23Z</time>
  <course>185.46</course>
  <speed>0.0282842712474619</speed>
  <fix>3d</fix>
</trkpt>
<trkpt lat="33.8103141" lon="-118.3938804">
  <ele>-29.15</ele>
  <time>2026-09-01T01:13:23Z</time>
  <course>276.48</course>
  <speed>0.0</speed>
  <fix>3d</fix>
</trkpt>
<trkpt lat="33.8103142" lon="-118.3938806">
  <ele>-29.874</ele>
  <time>2026-09-01T01:13:23Z</time>
  <course>185.47</course>
  <speed>0.0282842712474619</speed>
  <fix>3d</fix>
</trkpt>
<trkpt lat="33.8103141" lon="-118.3938804">
  <ele>-29.15</ele>
  <time>2026-09-01T01:13:23Z</time>
  <course>276.49</course>
  <speed>0.0</speed>
  <fix>3d</fix>
</trkpt>
<trkpt lat="33.8103142" lon="-118.3938806">
  <ele>-29.87</ele>
  <time>2026-09-01T01:13:23Z</time>
  <course>185.47</course>
  <speed>0.0282842712474619</speed>
  <fix>3d</fix>
</trkpt>
<trkpt lat="33.8103141" lon="-118.3938804">
  <ele>-29.15</ele>
  <time>2026-09-01T01:13:23Z</time>
  <course>276.49</course>
  <speed>0.0</speed>
  <fix>3d</fix>
</trkpt>
<trkpt lat="33.8103142" lon="-118.3938806">
  <ele>-29.865</ele>
  <time>2026-09-01T01:13:23Z</time>
  <course>185.48</course>
  <speed>0.0282842712474619</speed>
  <fix>3d</fix>
</trkpt>
<trkpt lat="33.8103141" lon="-118.3938804">
  <ele>-29.14</ele>
  <time>2026-09-01T01:13:23Z</time>
  <course>276.5</course>
  <speed>0.0</speed>
  <fix>3d</fix>
</trkpt>
<trkpt lat="33.8103142" lon="-118.3938806">
  <ele>-29.86</ele>
  <time>2026-09-01T01:13:23Z</time>
  <course>185.48</course>
  <speed>0.0282842712474619</speed>
  <fix>3d</fix>
</trkpt>
<trkpt lat="33.8103141" lon="-118.3938804">
  <ele>-29.14</ele>
  <time>2026-09-01T01:13:23Z</time>
  <course>276.5</course>
  <speed>0.0</speed>
  <fix>3d</fix>
</trkpt>
<trkpt lat="33.8103142" lon="-118.3938806">
  <ele>-29.855</ele>
  <time>2026-09-01T01:13:23Z</time>
  <course>185.49</course>
  <speed>0.0282842712474619</speed>
  <fix>3d</fix>
</trkpt>
<trkpt lat="33.8103141" lon="-118.3938805">
  <ele>-29.13</ele>
  <time>2026-09-01T01:13:23Z</time>
  <course>276.5</course>
  <speed>0.0</speed>
  <fix>3d</fix>
</trkpt>
<trkpt lat="33.8103142" lon="-118.3938806">
  <ele>-29.85</ele>
  <time>2026-09-01T01:13:23Z</time>
  <course>185.5</course>
  <speed>0.0282842712474619</speed>
  <fix>3d</fix>
</trkpt>
<trkpt lat="33.8103141" lon="-118.3938805">
  <ele>-29.13</ele>
  <time>2026-09-01T01:13:23Z</time>
  <course>276.5</course>
  <speed>0.0</speed>
  <fix>3d</fix>
</trkpt>
<trkpt lat="33.8103142" lon="-118.3938806">
  <ele>-29.847</ele>
  <time>2026-09-01T01:13:23Z</time>
  <course>185.5</course>
  <speed>0.0282842712474619</speed>
  <fix>3d</fix>
</trkpt>
<trkpt lat="33.8103141" lon="-118.3938805">
  <ele>-29.12</ele>
  <time>2026-09-01T01:13:23Z</time>
  <course>276.5</course>
  <speed>0.0</speed>
  <fix>3d</fix>
</trkpt>
<trkpt lat="33.8103142" lon="-118.3938806">
  <ele>-29.844</ele>
  <time>2026-09-01T01:13:23Z</time>
  <course>185.51</course>
  <speed>0.0282842712474619</speed>
  <fix>3d</fix>
</trkpt>
<trkpt lat="33.8103141" lon="-118.3938805">
  <ele>-29.12</ele>
  <time>2026-09-01T01:13:23Z</time>
  <course>276.5</course>
  <speed>0.0</speed>
  <fix>3d</fix>
</trkpt>
<trkpt lat="33.8103142" lon="-118.3938806">
  <ele>-29.842</ele>
  <time>2026-09-01T01:13:23Z</time>
  <course>185.51</course>
  <speed>0.0282842712474619</speed>
  <fix>3d</fix>
</trkpt>
<trkpt lat="33.8103141" lon="-118.3938805">
  <ele>-29.12</ele>
  <time>2026-09-01T01:13:23Z</time>
  <course>276.5</course>
  <speed>0.0</speed>
  <fix>3d</fix>
</trkpt>
<trkpt lat="33.8103142" lon="-118.3938806">
  <ele>-29.841</ele>
  <time>2026-09-01T01:13:23Z</time>
  <course>185.52</course>
  <speed>0.0282842712474619</speed>
  <fix>3d</fix>
</trkpt>
<trkpt lat="33.8103141" lon="-118.3938805">
  <ele>-29.12</ele>
  <time>2026-09-01T01:13:23Z</time>
  <course>276.5</course>
  <speed>0.0</speed>
  <fix>3d</fix>
</trkpt>
<trkpt lat="33.8103142" lon="-118.3938806">
  <ele>-29.839</ele>
  <time>2026-09-01T01:13:23Z</time>
  <course>185.53</course>
  <speed>0.0282842712474619</speed>
  <fix>3d</fix>
</trkpt>
<trkpt lat="33.8103141" lon="-118.3938805">
  <ele>-29.11</ele>
  <time>2026-09-01T01:13:23Z</time>
  <course>276.5</course>
  <speed>0.0</speed>
  <fix>3d</fix>
</trkpt>
<trkpt lat="33.8103142" lon="-118.3938806">
  <ele>-29.838</ele>
  <time>2026-09-01T01:13:23Z</time>
  <course>185.53</course>
  <speed>0.0282842712474619</speed>
  <fix>3d</fix>
</trkpt>
<trkpt lat="33.8103141" lon="-118.3938805">
  <ele>-29.11</ele>
  <time>2026-09-01T01:13:23Z</time>
  <course>276.5</course>
  <speed>0.0</speed>
  <fix>3d</fix>
</trkpt>
<trkpt lat="33.8103142" lon="-118.3938806">
  <ele>-29.836</ele>
  <time>2026-09-01T01:13:23Z</time>
  <course>185.54</course>
  <speed>0.0282842712474619</speed>
  <fix>3d</fix>
</trkpt>
<trkpt lat="33.8103141" lon="-118.3938805">
  <ele>-29.11</ele>
  <time>2026-09-01T01:13:23Z</time>
  <course>276.48</course>
  <speed>0.0</speed>
  <fix>3d</fix>
</trkpt>
<trkpt lat="33.8103142" lon="-118.3938806">
  <ele>-29.835</ele>
  <time>2026-09-01T01:13:23Z</time>
  <course>185.54</course>
  <speed>0.0282842712474619</speed>
  <fix>3d</fix>
</trkpt>
<trkpt lat="33.8103141" lon="-118.3938805">
  <ele>-29.11</ele>
  <time>2026-09-01T01:13:23Z</time>
  <course>276.48</course>
  <speed>0.0</speed>
  <fix>3d</fix>
</trkpt>
<trkpt lat="33.8103142" lon="-118.3938807">
  <ele>-29.835</ele>
  <time>2026-09-01T01:13:23Z</time>
  <course>185.55</course>
  <speed>0.0282842712474619</speed>
  <fix>3d</fix>
</trkpt>
<trkpt lat="33.8103141" lon="-118.3938805">
  <ele>-29.11</ele>
  <time>2026-09-01T01:13:23Z</time>
  <course>276.47</course>
  <speed>0.0</speed>
  <fix>3d</fix>
</trkpt>
<trkpt lat="33.8103142" lon="-118.3938807">
  <ele>-29.835</ele>
  <time>2026-09-01T01:13:23Z</time>
  <course>185.56</course>
  <speed>0.0282842712474619</speed>
  <fix>3d</fix>
</trkpt>
<trkpt lat="33.8103141" lon="-118.3938805">
  <ele>-29.11</ele>
  <time>2026-09-01T01:13:23Z</time>
  <course>276.47</course>
  <speed>0.0</speed>
  <fix>3d</fix>
</trkpt>
<trkpt lat="33.8103142" lon="-118.3938807">
  <ele>-29.836</ele>
  <time>2026-09-01T01:13:23Z</time>
  <course>185.56</course>
  <speed>0.0282842712474619</speed>
  <fix>3d</fix>
</trkpt>
<trkpt lat="33.8103141" lon="-118.3938805">
  <ele>-29.11</ele>
  <time>2026-09-01T01:13:23Z</time>
  <course>276.46</course>
  <speed>0.0</speed>
  <fix>3d</fix>
</trkpt>
<trkpt lat="33.8103142" lon="-118.3938807">
  <ele>-29.837</ele>
  <time>2026-09-01T01:13:23Z</time>
  <course>185.57</course>
  <speed>0.0282842712474619</speed>
  <fix>3d</fix>
</trkpt>
<trkpt lat="33.8103141" lon="-118.3938805">
  <ele>-29.11</ele>
  <time>2026-09-01T01:13:23Z</time>
  <course>276.46</course>
  <speed>0.0</speed>
  <fix>3d</fix>
</trkpt>
<trkpt lat="33.8103142" lon="-118.3938807">
  <ele>-29.838</ele>
  <time>2026-09-01T01:13:23Z</time>
  <course>185.57</course>
  <speed>0.0282842712474619</speed>
  <fix>3d</fix>
</trkpt>
<trkpt lat="33.8103141" lon="-118.3938805">
  <ele>-29.11</ele>
  <time>2026-09-01T01:13:23Z</time>
  <course>276.46</course>
  <speed>0.0</speed>
  <fix>3d</fix>
</trkpt>
<trkpt lat="33.8103142" lon="-118.3938807">
  <ele>-29.838</ele>
  <time>2026-09-01T01:13:23Z</time>
  <course>185.58</course>
  <speed>0.0282842712474619</speed>
  <fix>3d</fix>
</trkpt>
<trkpt lat="33.8103141" lon="-118.3938805">
  <ele>-29.11</ele>
  <time>2026-09-01T01:13:23Z</time>
  <course>276.46</course>
  <speed>0.0</speed>
  <fix>3d</fix>
</trkpt>
<trkpt lat="33.8103142" lon="-118.3938807">
  <ele>-29.839</ele>
  <time>2026-09-01T01:13:23Z</time>
  <course>185.59</course>
  <speed>0.0282842712474619</speed>
  <fix>3d</fix>
</trkpt>
<trkpt lat="33.8103141" lon="-118.3938805">
  <ele>-29.11</ele>
  <time>2026-09-01T01:13:23Z</time>
  <course>276.46</course>
  <speed>0.0</speed>
  <fix>3d</fix>
</trkpt>
<trkpt lat="33.8103142" lon="-118.3938807">
  <ele>-29.84</ele>
  <time>2026-09-01T01:13:23Z</time>
  <course>185.59</course>
  <speed>0.0282842712474619</speed>
  <fix>3d</fix>
</trkpt>
<trkpt lat="33.8103141" lon="-118.3938805">
  <ele>-29.11</ele>
  <time>2026-09-01T01:13:23Z</time>
  <course>276.46</course>
  <speed>0.0</speed>
  <fix>3d</fix>
</trkpt>
<trkpt lat="33.8103142" lon="-118.3938807">
  <ele>-29.841</ele>
  <time>2026-09-01T01:13:23Z</time>
  <course>185.6</course>
  <speed>0.0282842712474619</speed>
  <fix>3d</fix>
</trkpt>
<trkpt lat="33.8103141" lon="-118.3938806">
  <ele>-29.12</ele>
  <time>2026-09-01T01:13:23Z</time>
  <course>276.45</course>
  <speed>0.0</speed>
  <fix>3d</fix>
</trkpt>
<trkpt lat="33.8103142" lon="-118.3938807">
  <ele>-29.843</ele>
  <time>2026-09-01T01:13:23Z</time>
  <course>185.6</course>
  <speed>0.0282842712474619</speed>
  <fix>3d</fix>
</trkpt>
<trkpt lat="33.8103141" lon="-118.3938806">
  <ele>-29.12</ele>
  <time>2026-09-01T01:13:23Z</time>
  <course>276.45</course>
  <speed>0.0</speed>
  <fix>3d</fix>
</trkpt>
<trkpt lat="33.8103142" lon="-118.3938807">
  <ele>-29.845</ele>
  <time>2026-09-01T01:13:23Z</time>
  <course>185.61</course>
  <speed>0.0282842712474619</speed>
  <fix>3d</fix>
</trkpt>
<trkpt lat="33.8103141" lon="-118.3938806">
  <ele>-29.12</ele>
  <time>2026-09-01T01:13:23Z</time>
  <course>276.45</course>
  <speed>0.0</speed>
  <fix>3d</fix>
</trkpt>
<trkpt lat="33.8103142" lon="-118.3938807">
  <ele>-29.847</ele>
  <time>2026-09-01T01:13:23Z</time>
  <course>185.61</course>
  <speed>0.0282842712474619</speed>
  <fix>3d</fix>
</trkpt>
<trkpt lat="33.8103141" lon="-118.3938806">
  <ele>-29.12</ele>
  <time>2026-09-01T01:13:23Z</time>
  <course>276.45</course>
  <speed>0.0</speed>
  <fix>3d</fix>
</trkpt>
<trkpt lat="33.8103142" lon="-118.3938807">
  <ele>-29.848</ele>
  <time>2026-09-01T01:13:23Z</time>
  <course>185.62</course>
  <speed>0.0282842712474619</speed>
  <fix>3d</fix>
</trkpt>
<trkpt lat="33.8103141" lon="-118.3938806">
  <ele>-29.12</ele>
  <time>2026-09-01T01:13:23Z</time>
  <course>276.45</course>
  <speed>0.0</speed>
  <fix>3d</fix>
</trkpt>
<trkpt lat="33.8103142" lon="-118.3938807">
  <ele>-29.849</ele>
  <time>2026-09-01T01:13:23Z</time>
  <course>185.63</course>
  <speed>0.0282842712474619</speed>
  <fix>3d</fix>
</trkpt>
<trkpt lat="33.8103141" lon="-118.3938806">
  <ele>-29.12</ele>
  <time>2026-09-01T01:13:23Z</time>
  <course>276.45</course>
  <speed>0.0</speed>
  <fix>3d</fix>
</trkpt>
<trkpt lat="33.8103142" lon="-118.3938807">
  <ele>-29.851</ele>
  <time>2026-09-01T01:13:23Z</time>
  <course>185.63</course>
  <speed>0.0282842712474619</speed>
  <fix>3d</fix>
</trkpt>
<trkpt lat="33.8103141" lon="-118.3938806">
  <ele>-29.12</ele>
  <time>2026-09-01T01:13:23Z</time>
  <course>276.45</course>
  <speed>0.0</speed>
  <fix>3d</fix>
</trkpt>
<trkpt lat="33.8103142" lon="-118.3938807">
  <ele>-29.853</ele>
  <time>2026-09-01T01:13:23Z</time>
  <course>185.64</course>
  <speed>0.0282842712474619</speed>
  <fix>3d</fix>
</trkpt>
<trkpt lat="33.8103141" lon="-118.3938806">
  <ele>-29.12</ele>
  <time>2026-09-01T01:13:23Z</time>
  <course>276.45</course>
  <speed>0.0</speed>
  <fix>3d</fix>
</trkpt>
<trkpt lat="33.8103142" lon="-118.3938807">
  <ele>-29.854</ele>
  <time>2026-09-01T01:13:23Z</time>
  <course>185.65</course>
  <speed>0.0282842712474619</speed>
  <fix>3d</fix>
</trkpt>
<trkpt lat="33.8103141" lon="-118.3938806">
  <ele>-29.13</ele>
  <time>2026-09-01T01:13:23Z</time>
  <course>276.45</course>
  <speed>0.0</speed>
  <fix>3d</fix>
</trkpt>
<trkpt lat="33.8103142" lon="-118.3938808">
  <ele>-29.854</ele>
  <time>2026-09-01T01:13:23Z</time>
  <course>185.65</course>
  <speed>0.0282842712474619</speed>
  <fix>3d</fix>
</trkpt>
<trkpt lat="33.8103141" lon="-118.3938806">
  <ele>-29.13</ele>
  <time>2026-09-01T01:13:23Z</time>
  <course>276.45</course>
  <speed>0.0</speed>
  <fix>3d</fix>
</trkpt>
<trkpt lat="33.8103142" lon="-118.3938808">
  <ele>-29.853</ele>
  <time>2026-09-01T01:13:23Z</time>
  <course>185.66</course>
  <speed>0.0282842712474619</speed>
  <fix>3d</fix>
</trkpt>
<trkpt lat="33.8103141" lon="-118.3938806">
  <ele>-29.13</ele>
  <time>2026-09-01T01:13:23Z</time>
  <course>276.45</course>
  <speed>0.0</speed>
  <fix>3d</fix>
</trkpt>
<trkpt lat="33.8103142" lon="-118.3938808">
  <ele>-29.853</ele>
  <time>2026-09-01T01:13:23Z</time>
  <course>185.66</course>
  <speed>0.0282842712474619</speed>
  <fix>3d</fix>
</trkpt>
<trkpt lat="33.8103141" lon="-118.3938806">
  <ele>-29.13</ele>
  <time>2026-09-01T01:13:23Z</time>
  <course>276.45</course>
  <speed>0.0</speed>
  <fix>3d</fix>
</trkpt>
<trkpt lat="33.8103142" lon="-118.3938808">
  <ele>-29.852</ele>
  <time>2026-09-01T01:13:23Z</time>
  <course>185.67</course>
  <speed>0.0282842712474619</speed>
  <fix>3d</fix>
</trkpt>
<trkpt lat="33.8103141" lon="-118.3938806">
  <ele>-29.13</ele>
  <time>2026-09-01T01:13:23Z</time>
  <course>276.44</course>
  <speed>0.0</speed>
  <fix>3d</fix>
</trkpt>
<trkpt lat="33.8103142" lon="-118.3938808">
  <ele>-29.851</ele>
  <time>2026-09-01T01:13:23Z</time>
  <course>185.68</course>
  <speed>0.0282842712474619</speed>
  <fix>3d</fix>
</trkpt>
<trkpt lat="33.8103141" lon="-118.3938806">
  <ele>-29.13</ele>
  <time>2026-09-01T01:13:23Z</time>
  <course>276.44</course>
  <speed>0.0</speed>
  <fix>3d</fix>
</trkpt>
<trkpt lat="33.8103142" lon="-118.3938808">
  <ele>-29.851</ele>
  <time>2026-09-01T01:13:23Z</time>
  <course>185.68</course>
  <speed>0.0282842712474619</speed>
  <fix>3d</fix>
</trkpt>
<trkpt lat="33.8103141" lon="-118.3938806">
  <ele>-29.13</ele>
  <time>2026-09-01T01:13:23Z</time>
  <course>276.44</course>
  <speed>0.0</speed>
  <fix>3d</fix>
</trkpt>
<trkpt lat="33.8103142" lon="-118.3938808">
  <ele>-29.851</ele>
  <time>2026-09-01T01:13:23Z</time>
  <course>185.69</course>
  <speed>0.0282842712474619</speed>
  <fix>3d</fix>
</trkpt>
<trkpt lat="33.8103141" lon="-118.3938806">
  <ele>-29.13</ele>
  <time>2026-09-01T01:13:23Z</time>
  <course>276.44</course>
  <speed>0.0</speed>
  <fix>3d</fix>
</trkpt>
<trkpt lat="33.8103142" lon="-118.3938808">
  <ele>-29.852</ele>
  <time>2026-09-01T01:13:23Z</time>
  <course>185.69</course>
  <speed>0.0282842712474619</speed>
  <fix>3d</fix>
</trkpt>
<trkpt lat="33.8103141" lon="-118.3938807">
  <ele>-29.13</ele>
  <time>2026-09-01T01:13:23Z</time>
  <course>276.44</course>
  <speed>0.0</speed>
  <fix>3d</fix>
</trkpt>
<trkpt lat="33.8103142" lon="-118.3938808">
  <ele>-29.852</ele>
  <time>2026-09-01T01:13:23Z</time>
  <course>185.7</course>
  <speed>0.0282842712474619</speed>
  <fix>3d</fix>
</trkpt>
<trkpt lat="33.8103141" lon="-118.3938807">
  <ele>-29.13</ele>
  <time>2026-09-01T01:13:23Z</time>
  <course>276.44</course>
  <speed>0.0</speed>
  <fix>3d</fix>
</trkpt>
<trkpt lat="33.8103142" lon="-118.3938808">
  <ele>-29.852</ele>
  <time>2026-09-01T01:13:23Z</time>
  <course>185.71</course>
  <speed>0.0282842712474619</speed>
  <fix>3d</fix>
</trkpt>
<trkpt lat="33.8103141" lon="-118.3938807">
  <ele>-29.13</ele>
  <time>2026-09-01T01:13:23Z</time>
  <course>276.44</course>
  <speed>0.0</speed>
  <fix>3d</fix>
</trkpt>
<trkpt lat="33.8103142" lon="-118.3938808">
  <ele>-29.852</ele>
  <time>2026-09-01T01:13:23Z</time>
  <course>185.71</course>
  <speed>0.0282842712474619</speed>
  <fix>3d</fix>
</trkpt>
<trkpt lat="33.8103141" lon="-118.3938807">
  <ele>-29.13</ele>
  <time>2026-09-01T01:13:23Z</time>
  <course>276.44</course>
  <speed>0.0</speed>
  <fix>3d</fix>
</trkpt>
<trkpt lat="33.8103143" lon="-118.3938808">
  <ele>-29.852</ele>
  <time>2026-09-01T01:13:23Z</time>
  <course>185.72</course>
  <speed>0.0282842712474619</speed>
  <fix>3d</fix>
</trkpt>
<trkpt lat="33.8103141" lon="-118.3938807">
  <ele>-29.13</ele>
  <time>2026-09-01T01:13:23Z</time>
  <course>276.44</course>
  <speed>0.0</speed>
  <fix>3d</fix>
</trkpt>
<trkpt lat="33.8103143" lon="-118.3938808">
  <ele>-29.851</ele>
  <time>2026-09-01T01:13:23Z</time>
  <course>185.72</course>
  <speed>0.0282842712474619</speed>
  <fix>3d</fix>
</trkpt>
<trkpt lat="33.8103141" lon="-118.3938807">
  <ele>-29.13</ele>
  <time>2026-09-01T01:13:23Z</time>
  <course>276.44</course>
  <speed>0.0</speed>
  <fix>3d</fix>
</trkpt>
<trkpt lat="33.8103143" lon="-118.3938809">
  <ele>-29.851</ele>
  <time>2026-09-01T01:13:23Z</time>
  <course>185.73</course>
  <speed>0.0282842712474619</speed>
  <fix>3d</fix>
</trkpt>
<trkpt lat="33.8103141" lon="-118.3938807">
  <ele>-29.12</ele>
  <time>2026-09-01T01:13:23Z</time>
  <course>276.44</course>
  <speed>0.0</speed>
  <fix>3d</fix>
</trkpt>
<trkpt lat="33.8103143" lon="-118.3938809">
  <ele>-29.85</ele>
  <time>2026-09-01T01:13:23Z</time>
  <course>185.74</course>
  <speed>0.0282842712474619</speed>
  <fix>3d</fix>
</trkpt>
<trkpt lat="33.8103141" lon="-118.3938807">
  <ele>-29.12</ele>
  <time>2026-09-01T01:13:23Z</time>
  <course>276.44</course>
  <speed>0.0</speed>
  <fix>3d</fix>
</trkpt>
<trkpt lat="33.8103143" lon="-118.3938809">
  <ele>-29.849</ele>
  <time>2026-09-01T01:13:23Z</time>
  <course>185.74</course>
  <speed>0.0282842712474619</speed>
  <fix>3d</fix>
</trkpt>
<trkpt lat="33.8103141" lon="-118.3938807">
  <ele>-29.12</ele>
  <time>2026-09-01T01:13:23Z</time>
  <course>276.44</course>
  <speed>0.0</speed>
  <fix>3d</fix>
</trkpt>
<trkpt lat="33.8103143" lon="-118.3938809">
  <ele>-29.848</ele>
  <time>2026-09-01T01:13:23Z</time>
  <course>185.75</course>
  <speed>0.0282842712474619</speed>
  <fix>3d</fix>
</trkpt>
<trkpt lat="33.8103141" lon="-118.3938807">
  <ele>-29.12</ele>
  <time>2026-09-01T01:13:23Z</time>
  <course>276.44</course>
  <speed>0.0</speed>
  <fix>3d</fix>
</trkpt>
<trkpt lat="33.8103143" lon="-118.3938809">
  <ele>-29.847</ele>
  <time>2026-09-01T01:13:23Z</time>
  <course>185.75</course>
  <speed>0.0282842712474619</speed>
  <fix>3d</fix>
</trkpt>
<trkpt lat="33.8103141" lon="-118.3938807">
  <ele>-29.12</ele>
  <time>2026-09-01T01:13:23Z</time>
  <course>276.44</course>
  <speed>0.0</speed>
  <fix>3d</fix>
</trkpt>
<trkpt lat="33.8103143" lon="-118.3938809">
  <ele>-29.846</ele>
  <time>2026-09-01T01:13:23Z</time>
  <course>185.76</course>
  <speed>0.0282842712474619</speed>
  <fix>3d</fix>
</trkpt>
<trkpt lat="33.8103141" lon="-118.3938807">
  <ele>-29.12</ele>
  <time>2026-09-01T01:13:23Z</time>
  <course>276.44</course>
  <speed>0.0</speed>
  <fix>3d</fix>
</trkpt>
<trkpt lat="33.8103143" lon="-118.3938809">
  <ele>-29.845</ele>
  <time>2026-09-01T01:13:23Z</time>
  <course>185.77</course>
  <speed>0.0282842712474619</speed>
  <fix>3d</fix>
</trkpt>
<trkpt lat="33.8103141" lon="-118.3938807">
  <ele>-29.12</ele>
  <time>2026-09-01T01:13:23Z</time>
  <course>276.43</course>
  <speed>0.0</speed>
  <fix>3d</fix>
</trkpt>
<trkpt lat="33.8103143" lon="-118.3938809">
  <ele>-29.845</ele>
  <time>2026-09-01T01:13:23Z</time>
  <course>185.77</course>
  <speed>0.0282842712474619</speed>
  <fix>3d</fix>
</trkpt>
<trkpt lat="33.8103141" lon="-118.3938807">
  <ele>-29.12</ele>
  <time>2026-09-01T01:13:23Z</time>
  <course>276.43</course>
  <speed>0.0</speed>
  <fix>3d</fix>
</trkpt>
<trkpt lat="33.8103143" lon="-118.3938809">
  <ele>-29.845</ele>
  <time>2026-09-01T01:13:23Z</time>
  <course>185.78</course>
  <speed>0.0282842712474619</speed>
  <fix>3d</fix>
</trkpt>
<trkpt lat="33.8103141" lon="-118.3938807">
  <ele>-29.12</ele>
  <time>2026-09-01T01:13:23Z</time>
  <course>276.43</course>
  <speed>0.0</speed>
  <fix>3d</fix>
</trkpt>
<trkpt lat="33.8103143" lon="-118.3938809">
  <ele>-29.846</ele>
  <time>2026-09-01T01:13:23Z</time>
  <course>185.79</course>
  <speed>0.0282842712474619</speed>
  <fix>3d</fix>
</trkpt>
<trkpt lat="33.8103141" lon="-118.3938807">
  <ele>-29.12</ele>
  <time>2026-09-01T01:13:23Z</time>
  <course>276.43</course>
  <speed>0.0</speed>
  <fix>3d</fix>
</trkpt>
<trkpt lat="33.8103143" lon="-118.3938809">
  <ele>-29.847</ele>
  <time>2026-09-01T01:13:23Z</time>
  <course>185.79</course>
  <speed>0.0282842712474619</speed>
  <fix>3d</fix>
</trkpt>
<trkpt lat="33.8103141" lon="-118.3938808">
  <ele>-29.12</ele>
  <time>2026-09-01T01:13:23Z</time>
  <course>276.42</course>
  <speed>0.0</speed>
  <fix>3d</fix>
</trkpt>
<trkpt lat="33.8103143" lon="-118.3938809">
  <ele>-29.847</ele>
  <time>2026-09-01T01:13:23Z</time>
  <course>185.8</course>
  <speed>0.0282842712474619</speed>
  <fix>3d</fix>
</trkpt>
<trkpt lat="33.8103141" lon="-118.3938808">
  <ele>-29.12</ele>
  <time>2026-09-01T01:13:23Z</time>
  <course>276.42</course>
  <speed>0.0</speed>
  <fix>3d</fix>
</trkpt>
<trkpt lat="33.8103143" lon="-118.3938809">
  <ele>-29.848</ele>
  <time>2026-09-01T01:13:23Z</time>
  <course>185.8</course>
  <speed>0.0282842712474619</speed>
  <fix>3d</fix>
</trkpt>
<trkpt lat="33.8103141" lon="-118.3938808">
  <ele>-29.12</ele>
  <time>2026-09-01T01:13:23Z</time>
  <course>276.42</course>
  <speed>0.0</speed>
  <fix>3d</fix>
</trkpt>
<trkpt lat="33.8103143" lon="-118.3938809">
  <ele>-29.849</ele>
  <time>2026-09-01T01:13:23Z</time>
  <course>185.81</course>
  <speed>0.0282842712474619</speed>
  <fix>3d</fix>
</trkpt>
<trkpt lat="33.8103141" lon="-118.3938808">
  <ele>-29.12</ele>
  <time>2026-09-01T01:13:23Z</time>
  <course>276.42</course>
  <speed>0.0</speed>
  <fix>3d</fix>
</trkpt>
<trkpt lat="33.8103143" lon="-118.393881">
  <ele>-29.85</ele>
  <time>2026-09-01T01:13:23Z</time>
  <course>185.82</course>
  <speed>0.0282842712474619</speed>
  <fix>3d</fix>
</trkpt>
<trkpt lat="33.8103141" lon="-118.3938808">
  <ele>-29.13</ele>
  <time>2026-09-01T01:13:23Z</time>
  <course>276.42</course>
  <speed>0.0</speed>
  <fix>3d</fix>
</trkpt>
<trkpt lat="33.8103143" lon="-118.393881">
  <ele>-29.851</ele>
  <time>2026-09-01T01:13:23Z</time>
  <course>185.82</course>
  <speed>0.0282842712474619</speed>
  <fix>3d</fix>
</trkpt>
<trkpt lat="33.8103141" lon="-118.3938808">
  <ele>-29.13</ele>
  <time>2026-09-01T01:13:23Z</time>
  <course>276.42</course>
  <speed>0.0</speed>
  <fix>3d</fix>
</trkpt>
<trkpt lat="33.8103143" lon="-118.393881">
  <ele>-29.851</ele>
  <time>2026-09-01T01:13:23Z</time>
  <course>185.83</course>
  <speed>0.0282842712474619</speed>
  <fix>3d</fix>
</trkpt>
<trkpt lat="33.8103141" lon="-118.3938808">
  <ele>-29.13</ele>
  <time>2026-09-01T01:13:23Z</time>
  <course>276.42</course>
  <speed>0.0</speed>
  <fix>3d</fix>
</trkpt>
<trkpt lat="33.8103143" lon="-118.393881">
  <ele>-29.851</ele>
  <time>2026-09-01T01:13:23Z</time>
  <course>185.83</course>
  <speed>0.0282842712474619</speed>
  <fix>3d</fix>
</trkpt>
<trkpt lat="33.8103141" lon="-118.3938808">
  <ele>-29.13</ele>
  <time>2026-09-01T01:13:23Z</time>
  <course>276.42</course>
  <speed>0.0</speed>
  <fix>3d</fix>
</trkpt>
<trkpt lat="33.8103143" lon="-118.393881">
  <ele>-29.851</ele>
  <time>2026-09-01T01:13:23Z</time>
  <course>185.84</course>
  <speed>0.0282842712474619</speed>
  <fix>3d</fix>
</trkpt>
<trkpt lat="33.8103141" lon="-118.3938808">
  <ele>-29.13</ele>
  <time>2026-09-01T01:13:23Z</time>
  <course>276.42</course>
  <speed>0.0</speed>
  <fix>3d</fix>
</trkpt>
<trkpt lat="33.8103143" lon="-118.393881">
  <ele>-29.851</ele>
  <time>2026-09-01T01:13:23Z</time>
  <course>185.85</course>
  <speed>0.0282842712474619</speed>
  <fix>3d</fix>
</trkpt>
<trkpt lat="33.8103141" lon="-118.3938808">
  <ele>-29.13</ele>
  <time>2026-09-01T01:13:23Z</time>
  <course>276.42</course>
  <speed>0.0</speed>
  <fix>3d</fix>
</trkpt>
<trkpt lat="33.8103143" lon="-118.393881">
  <ele>-29.851</ele>
  <time>2026-09-01T01:13:23Z</time>
  <course>185.85</course>
  <speed>0.0282842712474619</speed>
  <fix>3d</fix>
</trkpt>
<trkpt lat="33.8103141" lon="-118.3938808">
  <ele>-29.13</ele>
  <time>2026-09-01T01:13:23Z</time>
  <course>276.42</course>
  <speed>0.0</speed>
  <fix>3d</fix>
</trkpt>
<trkpt lat="33.8103143" lon="-118.393881">
  <ele>-29.851</ele>
  <time>2026-09-01T01:13:23Z</time>
  <course>185.86</course>
  <speed>0.0282842712474619</speed>
  <fix>3d</fix>
</trkpt>
<trkpt lat="33.8103141" lon="-118.3938808">
  <ele>-29.13</ele>
  <time>2026-09-01T01:13:23Z</time>
  <course>276.42</course>
  <speed>0.0</speed>
  <fix>3d</fix>
</trkpt>
<trkpt lat="33.8103143" lon="-118.393881">
  <ele>-29.851</ele>
  <time>2026-09-01T01:13:23Z</time>
  <course>185.87</course>
  <speed>0.0282842712474619</speed>
  <fix>3d</fix>
</trkpt>
<trkpt lat="33.8103141" lon="-118.3938808">
  <ele>-29.13</ele>
  <time>2026-09-01T01:13:23Z</time>
  <course>276.41</course>
  <speed>0.0</speed>
  <fix>3d</fix>
</trkpt>
<trkpt lat="33.8103143" lon="-118.393881">
  <ele>-29.851</ele>
  <time>2026-09-01T01:13:23Z</time>
  <course>185.87</course>
  <speed>0.0282842712474619</speed>
  <fix>3d</fix>
</trkpt>
<trkpt lat="33.8103141" lon="-118.3938808">
  <ele>-29.13</ele>
  <time>2026-09-01T01:13:23Z</time>
  <course>276.41</course>
  <speed>0.0</speed>
  <fix>3d</fix>
</trkpt>
<trkpt lat="33.8103143" lon="-118.393881">
  <ele>-29.852</ele>
  <time>2026-09-01T01:13:23Z</time>
  <course>185.88</course>
  <speed>0.0282842712474619</speed>
  <fix>3d</fix>
</trkpt>
<trkpt lat="33.8103141" lon="-118.3938808">
  <ele>-29.13</ele>
  <time>2026-09-01T01:13:23Z</time>
  <course>276.42</course>
  <speed>0.0</speed>
  <fix>3d</fix>
</trkpt>
<trkpt lat="33.8103143" lon="-118.393881">
  <ele>-29.851</ele>
  <time>2026-09-01T01:13:23Z</time>
  <course>185.88</course>
  <speed>0.0282842712474619</speed>
  <fix>3d</fix>
</trkpt>
<trkpt lat="33.8103141" lon="-118.3938808">
  <ele>-29.13</ele>
  <time>2026-09-01T01:13:23Z</time>
  <course>276.42</course>
  <speed>0.0</speed>
  <fix>3d</fix>
</trkpt>
<trkpt lat="33.8103143" lon="-118.393881">
  <ele>-29.851</ele>
  <time>2026-09-01T01:13:23Z</time>
  <course>185.89</course>
  <speed>0.0282842712474619</speed>
  <fix>3d</fix>
</trkpt>
<trkpt lat="33.8103141" lon="-118.3938809">
  <ele>-29.13</ele>
  <time>2026-09-01T01:13:23Z</time>
  <course>276.42</course>
  <speed>0.0</speed>
  <fix>3d</fix>
</trkpt>
<trkpt lat="33.8103143" lon="-118.393881">
  <ele>-29.851</ele>
  <time>2026-09-01T01:13:23Z</time>
  <course>185.9</course>
  <speed>0.0282842712474619</speed>
  <fix>3d</fix>
</trkpt>
<trkpt lat="33.8103141" lon="-118.3938809">
  <ele>-29.13</ele>
  <time>2026-09-01T01:13:23Z</time>
  <course>276.42</course>
  <speed>0.0</speed>
  <fix>3d</fix>
</trkpt>
<trkpt lat="33.8103143" lon="-118.393881">
  <ele>-29.852</ele>
  <time>2026-09-01T01:13:23Z</time>
  <course>185.9</course>
  <speed>0.0282842712474619</speed>
  <fix>3d</fix>
</trkpt>
<trkpt lat="33.8103141" lon="-118.3938809">
  <ele>-29.13</ele>
  <time>2026-09-01T01:13:23Z</time>
  <course>276.42</course>
  <speed>0.0</speed>
  <fix>3d</fix>
</trkpt>
<trkpt lat="33.8103143" lon="-118.3938811">
  <ele>-29.851</ele>
  <time>2026-09-01T01:13:23Z</time>
  <course>185.91</course>
  <speed>0.0282842712474619</speed>
  <fix>3d</fix>
</trkpt>
<trkpt lat="33.8103141" lon="-118.3938809">
  <ele>-29.13</ele>
  <time>2026-09-01T01:13:23Z</time>
  <course>276.42</course>
  <speed>0.0</speed>
  <fix>3d</fix>
</trkpt>
<trkpt lat="33.8103143" lon="-118.3938811">
  <ele>-29.85</ele>
  <time>2026-09-01T01:13:23Z</time>
  <course>185.91</course>
  <speed>0.0282842712474619</speed>
  <fix>3d</fix>
</trkpt>
<trkpt lat="33.8103141" lon="-118.3938809">
  <ele>-29.12</ele>
  <time>2026-09-01T01:13:23Z</time>
  <course>276.42</course>
  <speed>0.0</speed>
  <fix>3d</fix>
</trkpt>
<trkpt lat="33.8103143" lon="-118.3938811">
  <ele>-29.849</ele>
  <time>2026-09-01T01:13:23Z</time>
  <course>185.92</course>
  <speed>0.0282842712474619</speed>
  <fix>3d</fix>
</trkpt>
<trkpt lat="33.8103141" lon="-118.3938809">
  <ele>-29.12</ele>
  <time>2026-09-01T01:13:23Z</time>
  <course>276.42</course>
  <speed>0.0</speed>
  <fix>3d</fix>
</trkpt>
<trkpt lat="33.8103143" lon="-118.3938811">
  <ele>-29.847</ele>
  <time>2026-09-01T01:13:23Z</time>
  <course>185.93</course>
  <speed>0.0282842712474619</speed>
  <fix>3d</fix>
</trkpt>
<trkpt lat="33.8103141" lon="-118.3938809">
  <ele>-29.12</ele>
  <time>2026-09-01T01:13:23Z</time>
  <course>276.42</course>
  <speed>0.0</speed>
  <fix>3d</fix>
</trkpt>
<trkpt lat="33.8103143" lon="-118.3938811">
  <ele>-29.845</ele>
  <time>2026-09-01T01:13:23Z</time>
  <course>185.93</course>
  <speed>0.0282842712474619</speed>
  <fix>3d</fix>
</trkpt>
<trkpt lat="33.8103141" lon="-118.3938809">
  <ele>-29.12</ele>
  <time>2026-09-01T01:13:23Z</time>
  <course>276.42</course>
  <speed>0.0</speed>
  <fix>3d</fix>
</trkpt>
<trkpt lat="33.8103143" lon="-118.3938811">
  <ele>-29.845</ele>
  <time>2026-09-01T01:13:23Z</time>
  <course>185.94</course>
  <speed>0.0282842712474619</speed>
  <fix>3d</fix>
</trkpt>
<trkpt lat="33.8103141" lon="-118.3938809">
  <ele>-29.12</ele>
  <time>2026-09-01T01:13:23Z</time>
  <course>276.41</course>
  <speed>0.0</speed>
  <fix>3d</fix>
</trkpt>
<trkpt lat="33.8103143" lon="-118.3938811">
  <ele>-29.844</ele>
  <time>2026-09-01T01:13:23Z</time>
  <course>185.94</course>
  <speed>0.0282842712474619</speed>
  <fix>3d</fix>
</trkpt>
<trkpt lat="33.8103141" lon="-118.3938809">
  <ele>-29.12</ele>
  <time>2026-09-01T01:13:23Z</time>
  <course>276.41</course>
  <speed>0.0</speed>
  <fix>3d</fix>
</trkpt>
<trkpt lat="33.8103143" lon="-118.3938811">
  <ele>-29.844</ele>
  <time>2026-09-01T01:13:23Z</time>
  <course>185.95</course>
  <speed>0.0282842712474619</speed>
  <fix>3d</fix>
</trkpt>
<trkpt lat="33.8103141" lon="-118.3938809">
  <ele>-29.12</ele>
  <time>2026-09-01T01:13:23Z</time>
  <course>276.41</course>
  <speed>0.0</speed>
  <fix>3d</fix>
</trkpt>
<trkpt lat="33.8103143" lon="-118.3938811">
  <ele>-29.844</ele>
  <time>2026-09-01T01:13:23Z</time>
  <course>185.96</course>
  <speed>0.0282842712474619</speed>
  <fix>3d</fix>
</trkpt>
<trkpt lat="33.8103141" lon="-118.3938809">
  <ele>-29.12</ele>
  <time>2026-09-01T01:13:23Z</time>
  <course>276.41</course>
  <speed>0.0</speed>
  <fix>3d</fix>
</trkpt>
<trkpt lat="33.8103143" lon="-118.3938811">
  <ele>-29.844</ele>
  <time>2026-09-01T01:13:23Z</time>
  <course>185.96</course>
  <speed>0.0282842712474619</speed>
  <fix>3d</fix>
</trkpt>
<trkpt lat="33.8103141" lon="-118.3938809">
  <ele>-29.12</ele>
  <time>2026-09-01T01:13:23Z</time>
  <course>276.41</course>
  <speed>0.0</speed>
  <fix>3d</fix>
</trkpt>
<trkpt lat="33.8103143" lon="-118.3938811">
  <ele>-29.844</ele>
  <time>2026-09-01T01:13:23Z</time>
  <course>185.97</course>
  <speed>0.0282842712474619</speed>
  <fix>3d</fix>
</trkpt>
<trkpt lat="33.8103141" lon="-118.3938809">
  <ele>-29.12</ele>
  <time>2026-09-01T01:13:23Z</time>
  <course>276.41</course>
  <speed>0.0</speed>
  <fix>3d</fix>
</trkpt>
<trkpt lat="33.8103143" lon="-118.3938811">
  <ele>-29.845</ele>
  <time>2026-09-01T01:13:23Z</time>
  <course>185.98</course>
  <speed>0.0282842712474619</speed>
  <fix>3d</fix>
</trkpt>
<trkpt lat="33.8103141" lon="-118.393881">
  <ele>-29.12</ele>
  <time>2026-09-01T01:13:23Z</time>
  <course>276.41</course>
  <speed>0.0</speed>
  <fix>3d</fix>
</trkpt>
<trkpt lat="33.8103143" lon="-118.3938811">
  <ele>-29.846</ele>
  <time>2026-09-01T01:13:23Z</time>
  <course>185.98</course>
  <speed>0.0282842712474619</speed>
  <fix>3d</fix>
</trkpt>
<trkpt lat="33.8103141" lon="-118.393881">
  <ele>-29.12</ele>
  <time>2026-09-01T01:13:23Z</time>
  <course>276.41</course>
  <speed>0.0</speed>
  <fix>3d</fix>
</trkpt>
<trkpt lat="33.8103143" lon="-118.3938812">
  <ele>-29.848</ele>
  <time>2026-09-01T01:13:23Z</time>
  <course>185.99</course>
  <speed>0.0282842712474619</speed>
  <fix>3d</fix>
</trkpt>
<trkpt lat="33.8103141" lon="-118.393881">
  <ele>-29.12</ele>
  <time>2026-09-01T01:13:23Z</time>
  <course>276.41</course>
  <speed>0.0</speed>
  <fix>3d</fix>
</trkpt>
<trkpt lat="33.8103143" lon="-118.3938812">
  <ele>-29.848</ele>
  <time>2026-09-01T01:13:23Z</time>
  <course>186.0</course>
  <speed>0.0282842712474619</speed>
  <fix>3d</fix>
</trkpt>
<trkpt lat="33.8103141" lon="-118.393881">
  <ele>-29.12</ele>
  <time>2026-09-01T01:13:23Z</time>
  <course>276.41</course>
  <speed>0.0</speed>
  <fix>3d</fix>
</trkpt>
<trkpt lat="33.8103143" lon="-118.3938812">
  <ele>-29.849</ele>
  <time>2026-09-01T01:13:23Z</time>
  <course>186.0</course>
  <speed>0.0282842712474619</speed>
  <fix>3d</fix>
</trkpt>
<trkpt lat="33.8103142" lon="-118.393881">
  <ele>-29.13</ele>
  <time>2026-09-01T01:13:23Z</time>
  <course>276.41</course>
  <speed>0.0</speed>
  <fix>3d</fix>
</trkpt>
<trkpt lat="33.8103143" lon="-118.3938812">
  <ele>-29.85</ele>
  <time>2026-09-01T01:13:23Z</time>
  <course>186.01</course>
  <speed>0.0282842712474619</speed>
  <fix>3d</fix>
</trkpt>
<trkpt lat="33.8103142" lon="-118.393881">
  <ele>-29.13</ele>
  <time>2026-09-01T01:13:23Z</time>
  <course>276.41</course>
  <speed>0.0</speed>
  <fix>3d</fix>
</trkpt>
<trkpt lat="33.8103143" lon="-118.3938812">
  <ele>-29.849</ele>
  <time>2026-09-01T01:13:23Z</time>
  <course>186.01</course>
  <speed>0.0282842712474619</speed>
  <fix>3d</fix>
</trkpt>
<trkpt lat="33.8103142" lon="-118.393881">
  <ele>-29.13</ele>
  <time>2026-09-01T01:13:23Z</time>
  <course>276.41</course>
  <speed>0.0</speed>
  <fix>3d</fix>
</trkpt>
<trkpt lat="33.8103143" lon="-118.3938812">
  <ele>-29.849</ele>
  <time>2026-09-01T01:13:23Z</time>
  <course>186.02</course>
  <speed>0.0282842712474619</speed>
  <fix>3d</fix>
</trkpt>
<trkpt lat="33.8103142" lon="-118.393881">
  <ele>-29.13</ele>
  <time>2026-09-01T01:13:23Z</time>
  <course>276.41</course>
  <speed>0.0</speed>
  <fix>3d</fix>
</trkpt>
<trkpt lat="33.8103143" lon="-118.3938812">
  <ele>-29.848</ele>
  <time>2026-09-01T01:13:23Z</time>
  <course>186.03</course>
  <speed>0.0282842712474619</speed>
  <fix>3d</fix>
</trkpt>
<trkpt lat="33.8103142" lon="-118.393881">
  <ele>-29.13</ele>
  <time>2026-09-01T01:13:23Z</time>
  <course>276.41</course>
  <speed>0.0</speed>
  <fix>3d</fix>
</trkpt>
<trkpt lat="33.8103143" lon="-118.3938812">
  <ele>-29.845</ele>
  <time>2026-09-01T01:13:23Z</time>
  <course>186.03</course>
  <speed>0.0282842712474619</speed>
  <fix>3d</fix>
</trkpt>
<trkpt lat="33.8103142" lon="-118.393881">
  <ele>-29.13</ele>
  <time>2026-09-01T01:13:23Z</time>
  <course>276.41</course>
  <speed>0.0</speed>
  <fix>3d</fix>
</trkpt>
<trkpt lat="33.8103143" lon="-118.3938812">
  <ele>-29.842</ele>
  <time>2026-09-01T01:13:23Z</time>
  <course>186.04</course>
  <speed>0.0282842712474619</speed>
  <fix>3d</fix>
</trkpt>
<trkpt lat="33.8103142" lon="-118.393881">
  <ele>-29.12</ele>
  <time>2026-09-01T01:13:23Z</time>
  <course>276.41</course>
  <speed>0.0</speed>
  <fix>3d</fix>
</trkpt>
<trkpt lat="33.8103143" lon="-118.3938812">
  <ele>-29.838</ele>
  <time>2026-09-01T01:13:23Z</time>
  <course>186.04</course>
  <speed>0.0282842712474619</speed>
  <fix>3d</fix>
</trkpt>
<trkpt lat="33.8103142" lon="-118.393881">
  <ele>-29.12</ele>
  <time>2026-09-01T01:13:23Z</time>
  <course>276.41</course>
  <speed>0.0</speed>
  <fix>3d</fix>
</trkpt>
<trkpt lat="33.8103143" lon="-118.3938812">
  <ele>-29.833</ele>
  <time>2026-09-01T01:13:23Z</time>
  <course>186.05</course>
  <speed>0.0282842712474619</speed>
  <fix>3d</fix>
</trkpt>
<trkpt lat="33.8103142" lon="-118.393881">
  <ele>-29.11</ele>
  <time>2026-09-01T01:13:23Z</time>
  <course>276.41</course>
  <speed>0.0</speed>
  <fix>3d</fix>
</trkpt>
<trkpt lat="33.8103143" lon="-118.3938812">
  <ele>-29.828</ele>
  <time>2026-09-01T01:13:23Z</time>
  <course>186.06</course>
  <speed>0.0282842712474619</speed>
  <fix>3d</fix>
</trkpt>
<trkpt lat="33.8103142" lon="-118.393881">
  <ele>-29.11</ele>
  <time>2026-09-01T01:13:23Z</time>
  <course>276.41</course>
  <speed>0.0</speed>
  <fix>3d</fix>
</trkpt>
<trkpt lat="33.8103144" lon="-118.3938812">
  <ele>-29.822</ele>
  <time>2026-09-01T01:13:23Z</time>
  <course>186.06</course>
  <speed>0.0282842712474619</speed>
  <fix>3d</fix>
</trkpt>
<trkpt lat="33.8103142" lon="-118.393881">
  <ele>-29.1</ele>
  <time>2026-09-01T01:13:23Z</time>
  <course>276.42</course>
  <speed>0.0</speed>
  <fix>3d</fix>
</trkpt>
<trkpt lat="33.8103144" lon="-118.3938812">
  <ele>-29.815</ele>
  <time>2026-09-01T01:13:23Z</time>
  <course>186.07</course>
  <speed>0.0282842712474619</speed>
  <fix>3d</fix>
</trkpt>
<trkpt lat="33.8103142" lon="-118.393881">
  <ele>-29.1</ele>
  <time>2026-09-01T01:13:23Z</time>
  <course>276.42</course>
  <speed>0.0</speed>
  <fix>3d</fix>
</trkpt>
<trkpt lat="33.8103144" lon="-118.3938812">
  <ele>-29.808</ele>
  <time>2026-09-01T01:13:23Z</time>
  <course>186.08</course>
  <speed>0.0282842712474619</speed>
  <fix>3d</fix>
</trkpt>
<trkpt lat="33.8103142" lon="-118.3938811">
  <ele>-29.09</ele>
  <time>2026-09-01T01:13:23Z</time>
  <course>276.42</course>
  <speed>0.0</speed>
  <fix>3d</fix>
</trkpt>
<trkpt lat="33.8103144" lon="-118.3938812">
  <ele>-29.802</ele>
  <time>2026-09-01T01:13:23Z</time>
  <course>186.08</course>
  <speed>0.0282842712474619</speed>
  <fix>3d</fix>
</trkpt>
<trkpt lat="33.8103142" lon="-118.3938811">
  <ele>-29.09</ele>
  <time>2026-09-01T01:13:23Z</time>
  <course>276.42</course>
  <speed>0.0</speed>
  <fix>3d</fix>
</trkpt>
<trkpt lat="33.8103144" lon="-118.3938813">
  <ele>-29.795</ele>
  <time>2026-09-01T01:13:23Z</time>
  <course>186.09</course>
  <speed>0.0282842712474619</speed>
  <fix>3d</fix>
</trkpt>
<trkpt lat="33.8103142" lon="-118.3938811">
  <ele>-29.08</ele>
  <time>2026-09-01T01:13:23Z</time>
  <course>276.42</course>
  <speed>0.0</speed>
  <fix>3d</fix>
</trkpt>
<trkpt lat="33.8103144" lon="-118.3938813">
  <ele>-29.788</ele>
  <time>2026-09-01T01:13:23Z</time>
  <course>186.09</course>
  <speed>0.0282842712474619</speed>
  <fix>3d</fix>
</trkpt>
<trkpt lat="33.8103142" lon="-118.3938811">
  <ele>-29.08</ele>
  <time>2026-09-01T01:13:23Z</time>
  <course>276.42</course>
  <speed>0.0</speed>
  <fix>3d</fix>
</trkpt>
<trkpt lat="33.8103144" lon="-118.3938813">
  <ele>-29.78</ele>
  <time>2026-09-01T01:13:23Z</time>
  <course>186.1</course>
  <speed>0.0282842712474619</speed>
  <fix>3d</fix>
</trkpt>
<trkpt lat="33.8103142" lon="-118.3938811">
  <ele>-29.07</ele>
  <time>2026-09-01T01:13:23Z</time>
  <course>276.42</course>
  <speed>0.0</speed>
  <fix>3d</fix>
</trkpt>
<trkpt lat="33.8103144" lon="-118.3938813">
  <ele>-29.773</ele>
  <time>2026-09-01T01:13:23Z</time>
  <course>186.11</course>
  <speed>0.0282842712474619</speed>
  <fix>3d</fix>
</trkpt>
<trkpt lat="33.8103142" lon="-118.3938811">
  <ele>-29.07</ele>
  <time>2026-09-01T01:13:23Z</time>
  <course>276.42</course>
  <speed>0.0</speed>
  <fix>3d</fix>
</trkpt>
<trkpt lat="33.8103144" lon="-118.3938813">
  <ele>-29.765</ele>
  <time>2026-09-01T01:13:23Z</time>
  <course>186.11</course>
  <speed>0.0282842712474619</speed>
  <fix>3d</fix>
</trkpt>
<trkpt lat="33.8103142" lon="-118.3938811">
  <ele>-29.06</ele>
  <time>2026-09-01T01:13:23Z</time>
  <course>276.42</course>
  <speed>0.0</speed>
  <fix>3d</fix>
</trkpt>
<trkpt lat="33.8103144" lon="-118.3938813">
  <ele>-29.758</ele>
  <time>2026-09-01T01:13:23Z</time>
  <course>186.12</course>
  <speed>0.0282842712474619</speed>
  <fix>3d</fix>
</trkpt>
<trkpt lat="33.8103142" lon="-118.3938811">
  <ele>-29.06</ele>
  <time>2026-09-01T01:13:23Z</time>
  <course>276.42</course>
  <speed>0.0</speed>
  <fix>3d</fix>
</trkpt>
<trkpt lat="33.8103144" lon="-118.3938813">
  <ele>-29.75</ele>
  <time>2026-09-01T01:13:23Z</time>
  <course>186.13</course>
  <speed>0.0282842712474619</speed>
  <fix>3d</fix>
</trkpt>
<trkpt lat="33.8103142" lon="-118.3938811">
  <ele>-29.04</ele>
  <time>2026-09-01T01:13:23Z</time>
  <course>276.43</course>
  <speed>0.0</speed>
  <fix>3d</fix>
</trkpt>
<trkpt lat="33.8103144" lon="-118.3938813">
  <ele>-29.742</ele>
  <time>2026-09-01T01:13:23Z</time>
  <course>186.13</course>
  <speed>0.0282842712474619</speed>
  <fix>3d</fix>
</trkpt>
<trkpt lat="33.8103142" lon="-118.3938811">
  <ele>-29.04</ele>
  <time>2026-09-01T01:13:23Z</time>
  <course>276.43</course>
  <speed>0.0</speed>
  <fix>3d</fix>
</trkpt>
<trkpt lat="33.8103144" lon="-118.3938813">
  <ele>-29.734</ele>
  <time>2026-09-01T01:13:23Z</time>
  <course>186.14</course>
  <speed>0.0282842712474619</speed>
  <fix>3d</fix>
</trkpt>
<trkpt lat="33.8103142" lon="-118.3938811">
  <ele>-29.03</ele>
  <time>2026-09-01T01:13:23Z</time>
  <course>276.43</course>
  <speed>0.0</speed>
  <fix>3d</fix>
</trkpt>
<trkpt lat="33.8103144" lon="-118.3938813">
  <ele>-29.726</ele>
  <time>2026-09-01T01:13:23Z</time>
  <course>186.14</course>
  <speed>0.0282842712474619</speed>
  <fix>3d</fix>
</trkpt>
<trkpt lat="33.8103142" lon="-118.3938811">
  <ele>-29.03</ele>
  <time>2026-09-01T01:13:23Z</time>
  <course>276.43</course>
  <speed>0.0</speed>
  <fix>3d</fix>
</trkpt>
<trkpt lat="33.8103144" lon="-118.3938813">
  <ele>-29.718</ele>
  <time>2026-09-01T01:13:23Z</time>
  <course>186.15</course>
  <speed>0.0282842712474619</speed>
  <fix>3d</fix>
</trkpt>
<trkpt lat="33.8103142" lon="-118.3938811">
  <ele>-29.01</ele>
  <time>2026-09-01T01:13:23Z</time>
  <course>276.44</course>
  <speed>0.0</speed>
  <fix>3d</fix>
</trkpt>
<trkpt lat="33.8103144" lon="-118.3938813">
  <ele>-29.71</ele>
  <time>2026-09-01T01:13:23Z</time>
  <course>186.16</course>
  <speed>0.0282842712474619</speed>
  <fix>3d</fix>
</trkpt>
<trkpt lat="33.8103142" lon="-118.3938811">
  <ele>-29.01</ele>
  <time>2026-09-01T01:13:23Z</time>
  <course>276.44</course>
  <speed>0.0</speed>
  <fix>3d</fix>
</trkpt>
<trkpt lat="33.8103144" lon="-118.3938813">
  <ele>-29.703</ele>
  <time>2026-09-01T01:13:23Z</time>
  <course>186.16</course>
  <speed>0.0282842712474619</speed>
  <fix>3d</fix>
</trkpt>
<trkpt lat="33.8103142" lon="-118.3938811">
  <ele>-28.99</ele>
  <time>2026-09-01T01:13:23Z</time>
  <course>276.44</course>
  <speed>0.0</speed>
  <fix>3d</fix>
</trkpt>
<trkpt lat="33.8103144" lon="-118.3938813">
  <ele>-29.694</ele>
  <time>2026-09-01T01:13:23Z</time>
  <course>186.17</course>
  <speed>0.0282842712474619</speed>
  <fix>3d</fix>
</trkpt>
<trkpt lat="33.8103142" lon="-118.3938811">
  <ele>-28.99</ele>
  <time>2026-09-01T01:13:23Z</time>
  <course>276.44</course>
  <speed>0.0</speed>
  <fix>3d</fix>
</trkpt>
<trkpt lat="33.8103144" lon="-118.3938813">
  <ele>-29.654</ele>
  <time>2026-09-01T01:13:23Z</time>
  <course>186.19</course>
  <speed>0.0282842712474619</speed>
  <fix>3d</fix>
</trkpt>
<trkpt lat="33.8103142" lon="-118.3938812">
  <ele>-28.96</ele>
  <time>2026-09-01T01:13:23Z</time>
  <course>276.44</course>
  <speed>0.0</speed>
  <fix>3d</fix>
</trkpt>
<trkpt lat="33.8103144" lon="-118.3938813">
  <ele>-29.62</ele>
  <time>2026-09-01T01:13:24Z</time>
  <course>186.21</course>
  <speed>0.0282842712474619</speed>
  <fix>3d</fix>
</trkpt>
<trkpt lat="33.8103142" lon="-118.3938812">
  <ele>-28.92</ele>
  <time>2026-09-01T01:13:24Z</time>
  <course>276.44</course>
  <speed>0.0</speed>
  <fix>3d</fix>
</trkpt>
<trkpt lat="33.8103143" lon="-118.3938813">
  <ele>-29.608</ele>
  <time>2026-09-01T01:13:24Z</time>
  <course>186.22</course>
  <speed>0.0282842712474619</speed>
  <fix>3d</fix>
</trkpt>
<trkpt lat="33.8103142" lon="-118.3938812">
  <ele>-28.92</ele>
  <time>2026-09-01T01:13:24Z</time>
  <course>276.44</course>
  <speed>0.0</speed>
  <fix>3d</fix>
</trkpt>
<trkpt lat="33.8103143" lon="-118.3938813">
  <ele>-29.596</ele>
  <time>2026-09-01T01:13:24Z</time>
  <course>186.23</course>
  <speed>0.0282842712474619</speed>
  <fix>3d</fix>
</trkpt>
<trkpt lat="33.8103142" lon="-118.3938812">
  <ele>-28.9</ele>
  <time>2026-09-01T01:13:24Z</time>
  <course>276.45</course>
  <speed>0.0</speed>
  <fix>3d</fix>
</trkpt>
<trkpt lat="33.8103143" lon="-118.3938813">
  <ele>-29.585</ele>
  <time>2026-09-01T01:13:24Z</time>
  <course>186.23</course>
  <speed>0.0282842712474619</speed>
  <fix>3d</fix>
</trkpt>
<trkpt lat="33.8103142" lon="-118.3938812">
  <ele>-28.9</ele>
  <time>2026-09-01T01:13:24Z</time>
  <course>276.45</course>
  <speed>0.0</speed>
  <fix>3d</fix>
</trkpt>
<trkpt lat="33.8103143" lon="-118.3938813">
  <ele>-29.573</ele>
  <time>2026-09-01T01:13:24Z</time>
  <course>186.24</course>
  <speed>0.0282842712474619</speed>
  <fix>3d</fix>
</trkpt>
<trkpt lat="33.8103142" lon="-118.3938812">
  <ele>-28.89</ele>
  <time>2026-09-01T01:13:24Z</time>
  <course>276.45</course>
  <speed>0.0</speed>
  <fix>3d</fix>
</trkpt>
<trkpt lat="33.8103143" lon="-118.3938814">
  <ele>-29.564</ele>
  <time>2026-09-01T01:13:24Z</time>
  <course>186.24</course>
  <speed>0.0282842712474619</speed>
  <fix>3d</fix>
</trkpt>
<trkpt lat="33.8103142" lon="-118.3938812">
  <ele>-28.89</ele>
  <time>2026-09-01T01:13:24Z</time>
  <course>276.45</course>
  <speed>0.0</speed>
  <fix>3d</fix>
</trkpt>
<trkpt lat="33.8103143" lon="-118.3938814">
  <ele>-29.555</ele>
  <time>2026-09-01T01:13:24Z</time>
  <course>186.25</course>
  <speed>0.0282842712474619</speed>
  <fix>3d</fix>
</trkpt>
<trkpt lat="33.8103142" lon="-118.3938812">
  <ele>-28.86</ele>
  <time>2026-09-01T01:13:24Z</time>
  <course>276.45</course>
  <speed>0.0</speed>
  <fix>3d</fix>
</trkpt>
<trkpt lat="33.8103143" lon="-118.3938814">
  <ele>-29.546</ele>
  <time>2026-09-01T01:13:24Z</time>
  <course>186.26</course>
  <speed>0.0282842712474619</speed>
  <fix>3d</fix>
</trkpt>
<trkpt lat="33.8103142" lon="-118.3938812">
  <ele>-28.86</ele>
  <time>2026-09-01T01:13:24Z</time>
  <course>276.45</course>
  <speed>0.0</speed>
  <fix>3d</fix>
</trkpt>
<trkpt lat="33.8103143" lon="-118.3938814">
  <ele>-29.536</ele>
  <time>2026-09-01T01:13:24Z</time>
  <course>186.26</course>
  <speed>0.0282842712474619</speed>
  <fix>3d</fix>
</trkpt>
<trkpt lat="33.8103142" lon="-118.3938812">
  <ele>-28.85</ele>
  <time>2026-09-01T01:13:24Z</time>
  <course>276.45</course>
  <speed>0.0</speed>
  <fix>3d</fix>
</trkpt>
<trkpt lat="33.8103143" lon="-118.3938814">
  <ele>-29.525</ele>
  <time>2026-09-01T01:13:24Z</time>
  <course>186.27</course>
  <speed>0.0282842712474619</speed>
  <fix>3d</fix>
</trkpt>
<trkpt lat="33.8103142" lon="-118.3938812">
  <ele>-28.85</ele>
  <time>2026-09-01T01:13:24Z</time>
  <course>276.45</course>
  <speed>0.0</speed>
  <fix>3d</fix>
</trkpt>
<trkpt lat="33.8103143" lon="-118.3938814">
  <ele>-29.515</ele>
  <time>2026-09-01T01:13:24Z</time>
  <course>186.28</course>
  <speed>0.0282842712474619</speed>
  <fix>3d</fix>
</trkpt>
<trkpt lat="33.8103142" lon="-118.3938813">
  <ele>-28.83</ele>
  <time>2026-09-01T01:13:24Z</time>
  <course>276.45</course>
  <speed>0.0</speed>
  <fix>3d</fix>
</trkpt>
<trkpt lat="33.8103143" lon="-118.3938814">
  <ele>-29.505</ele>
  <time>2026-09-01T01:13:24Z</time>
  <course>186.28</course>
  <speed>0.0282842712474619</speed>
  <fix>3d</fix>
</trkpt>
<trkpt lat="33.8103142" lon="-118.3938813">
  <ele>-28.83</ele>
  <time>2026-09-01T01:13:24Z</time>
  <course>276.45</course>
  <speed>0.0</speed>
  <fix>3d</fix>
</trkpt>
<trkpt lat="33.8103143" lon="-118.3938814">
  <ele>-29.494</ele>
  <time>2026-09-01T01:13:24Z</time>
  <course>186.29</course>
  <speed>0.0282842712474619</speed>
  <fix>3d</fix>
</trkpt>
<trkpt lat="33.8103142" lon="-118.3938813">
  <ele>-28.81</ele>
  <time>2026-09-01T01:13:24Z</time>
  <course>276.45</course>
  <speed>0.0</speed>
  <fix>3d</fix>
</trkpt>
<trkpt lat="33.8103143" lon="-118.3938814">
  <ele>-29.483</ele>
  <time>2026-09-01T01:13:24Z</time>
  <course>186.29</course>
  <speed>0.0282842712474619</speed>
  <fix>3d</fix>
</trkpt>
<trkpt lat="33.8103142" lon="-118.3938813">
  <ele>-28.81</ele>
  <time>2026-09-01T01:13:24Z</time>
  <course>276.45</course>
  <speed>0.0</speed>
  <fix>3d</fix>
</trkpt>
<trkpt lat="33.8103143" lon="-118.3938814">
  <ele>-29.473</ele>
  <time>2026-09-01T01:13:24Z</time>
  <course>186.3</course>
  <speed>0.0282842712474619</speed>
  <fix>3d</fix>
</trkpt>
<trkpt lat="33.8103142" lon="-118.3938813">
  <ele>-28.79</ele>
  <time>2026-09-01T01:13:24Z</time>
  <course>276.46</course>
  <speed>0.0</speed>
  <fix>3d</fix>
</trkpt>
<trkpt lat="33.8103143" lon="-118.3938814">
  <ele>-29.464</ele>
  <time>2026-09-01T01:13:24Z</time>
  <course>186.31</course>
  <speed>0.0282842712474619</speed>
  <fix>3d</fix>
</trkpt>
<trkpt lat="33.8103142" lon="-118.3938813">
  <ele>-28.79</ele>
  <time>2026-09-01T01:13:24Z</time>
  <course>276.46</course>
  <speed>0.0</speed>
  <fix>3d</fix>
</trkpt>
<trkpt lat="33.8103143" lon="-118.3938814">
  <ele>-29.456</ele>
  <time>2026-09-01T01:13:24Z</time>
  <course>186.31</course>
  <speed>0.0282842712474619</speed>
  <fix>3d</fix>
</trkpt>
<trkpt lat="33.8103142" lon="-118.3938813">
  <ele>-28.77</ele>
  <time>2026-09-01T01:13:24Z</time>
  <course>276.46</course>
  <speed>0.0</speed>
  <fix>3d</fix>
</trkpt>
<trkpt lat="33.8103143" lon="-118.3938814">
  <ele>-29.448</ele>
  <time>2026-09-01T01:13:24Z</time>
  <course>186.32</course>
  <speed>0.0282842712474619</speed>
  <fix>3d</fix>
</trkpt>
<trkpt lat="33.8103142" lon="-118.3938813">
  <ele>-28.77</ele>
  <time>2026-09-01T01:13:24Z</time>
  <course>276.46</course>
  <speed>0.0</speed>
  <fix>3d</fix>
</trkpt>
<trkpt lat="33.8103143" lon="-118.3938814">
  <ele>-29.44</ele>
  <time>2026-09-01T01:13:24Z</time>
  <course>186.33</course>
  <speed>0.0282842712474619</speed>
  <fix>3d</fix>
</trkpt>
<trkpt lat="33.8103142" lon="-118.3938813">
  <ele>-28.75</ele>
  <time>2026-09-01T01:13:24Z</time>
  <course>276.46</course>
  <speed>0.0</speed>
  <fix>3d</fix>
</trkpt>
<trkpt lat="33.8103143" lon="-118.3938814">
  <ele>-29.432</ele>
  <time>2026-09-01T01:13:24Z</time>
  <course>186.33</course>
  <speed>0.0282842712474619</speed>
  <fix>3d</fix>
</trkpt>
<trkpt lat="33.8103142" lon="-118.3938813">
  <ele>-28.75</ele>
  <time>2026-09-01T01:13:24Z</time>
  <course>276.46</course>
  <speed>0.0</speed>
  <fix>3d</fix>
</trkpt>
<trkpt lat="33.8103143" lon="-118.3938814">
  <ele>-29.425</ele>
  <time>2026-09-01T01:13:24Z</time>
  <course>186.34</course>
  <speed>0.0282842712474619</speed>
  <fix>3d</fix>
</trkpt>
<trkpt lat="33.8103142" lon="-118.3938813">
  <ele>-28.74</ele>
  <time>2026-09-01T01:13:24Z</time>
  <course>276.46</course>
  <speed>0.0</speed>
  <fix>3d</fix>
</trkpt>
<trkpt lat="33.8103143" lon="-118.3938814">
  <ele>-29.417</ele>
  <time>2026-09-01T01:13:24Z</time>
  <course>186.34</course>
  <speed>0.0282842712474619</speed>
  <fix>3d</fix>
</trkpt>
<trkpt lat="33.8103142" lon="-118.3938813">
  <ele>-28.74</ele>
  <time>2026-09-01T01:13:24Z</time>
  <course>276.46</course>
  <speed>0.0</speed>
  <fix>3d</fix>
</trkpt>
<trkpt lat="33.8103143" lon="-118.3938814">
  <ele>-29.41</ele>
  <time>2026-09-01T01:13:24Z</time>
  <course>186.35</course>
  <speed>0.0282842712474619</speed>
  <fix>3d</fix>
</trkpt>
<trkpt lat="33.8103142" lon="-118.3938813">
  <ele>-28.72</ele>
  <time>2026-09-01T01:13:24Z</time>
  <course>276.46</course>
  <speed>0.0</speed>
  <fix>3d</fix>
</trkpt>
<trkpt lat="33.8103143" lon="-118.3938814">
  <ele>-29.402</ele>
  <time>2026-09-01T01:13:24Z</time>
  <course>186.36</course>
  <speed>0.0282842712474619</speed>
  <fix>3d</fix>
</trkpt>
<trkpt lat="33.8103142" lon="-118.3938813">
  <ele>-28.72</ele>
  <time>2026-09-01T01:13:24Z</time>
  <course>276.46</course>
  <speed>0.0</speed>
  <fix>3d</fix>
</trkpt>
<trkpt lat="33.8103143" lon="-118.3938815">
  <ele>-29.394</ele>
  <time>2026-09-01T01:13:24Z</time>
  <course>186.36</course>
  <speed>0.0282842712474619</speed>
  <fix>3d</fix>
</trkpt>
<trkpt lat="33.8103142" lon="-118.3938813">
  <ele>-28.7</ele>
  <time>2026-09-01T01:13:24Z</time>
  <course>276.46</course>
  <speed>0.0</speed>
  <fix>3d</fix>
</trkpt>
<trkpt lat="33.8103143" lon="-118.3938815">
  <ele>-29.385</ele>
  <time>2026-09-01T01:13:24Z</time>
  <course>186.37</course>
  <speed>0.0282842712474619</speed>
  <fix>3d</fix>
</trkpt>
<trkpt lat="33.8103142" lon="-118.3938813">
  <ele>-28.7</ele>
  <time>2026-09-01T01:13:24Z</time>
  <course>276.46</course>
  <speed>0.0</speed>
  <fix>3d</fix>
</trkpt>
<trkpt lat="33.8103143" lon="-118.3938815">
  <ele>-29.376</ele>
  <time>2026-09-01T01:13:24Z</time>
  <course>186.38</course>
  <speed>0.0282842712474619</speed>
  <fix>3d</fix>
</trkpt>
<trkpt lat="33.8103142" lon="-118.3938813">
  <ele>-28.68</ele>
  <time>2026-09-01T01:13:24Z</time>
  <course>276.46</course>
  <speed>0.0</speed>
  <fix>3d</fix>
</trkpt>
<trkpt lat="33.4368002" lon="-117.0859339">
  <ele>-0.11</ele>
  <time>2026-09-01T01:13:24Z</time>
  <course>0.0</course>
  <speed>0.0</speed>
  <fix>3d</fix>
</trkpt>
<trkpt lat="33.4368002" lon="-117.0859339">
  <ele>-0.11</ele>
  <time>2026-09-01T01:13:24Z</time>
  <course>0.0</course>
  <speed>0.0</speed>
  <fix>3d</fix>
</trkpt>
<trkpt lat="33.810313" lon="-118.393867">
  <ele>0.0</ele>
  <time>2026-09-01T01:13:24Z</time>
  <course>173.5</course>
  <speed>0.0</speed>
  <fix>3d</fix>
</trkpt>
<trkpt lat="33.810313" lon="-118.393867">
  <ele>-0.11</ele>
  <time>2026-09-01T01:13:24Z</time>
  <course>0.0</course>
  <speed>0.0</speed>
  <fix>3d</fix>
</trkpt>
<trkpt lat="33.810313" lon="-118.393867">
  <ele>0.0</ele>
  <time>2026-09-01T01:13:24Z</time>
  <course>173.61</course>
  <speed>0.0</speed>
  <fix>3d</fix>
</trkpt>
<trkpt lat="33.810313" lon="-118.393867">
  <ele>-0.11</ele>
  <time>2026-09-01T01:13:24Z</time>
  <course>0.0</course>
  <speed>0.0</speed>
  <fix>3d</fix>
</trkpt>
<trkpt lat="33.810313" lon="-118.393867">
  <ele>0.0</ele>
  <time>2026-09-01T01:13:24Z</time>
  <course>173.98</course>
  <speed>0.0</speed>
  <fix>3d</fix>
</trkpt>
<trkpt lat="33.810313" lon="-118.393867">
  <ele>-0.11</ele>
  <time>2026-09-01T01:13:24Z</time>
  <course>0.0</course>
  <speed>0.0</speed>
  <fix>3d</fix>
</trkpt>
<trkpt lat="33.810313" lon="-118.393867">
  <ele>0.0</ele>
  <time>2026-09-01T01:13:24Z</time>
  <course>174.51</course>
  <speed>0.0</speed>
  <fix>3d</fix>
</trkpt>
<trkpt lat="33.810313" lon="-118.393867">
  <ele>-0.11</ele>
  <time>2026-09-01T01:13:24Z</time>
  <course>0.0</course>
  <speed>0.0</speed>
  <fix>3d</fix>
</trkpt>
<trkpt lat="33.810313" lon="-118.393867">
  <ele>0.0</ele>
  <time>2026-09-01T01:13:24Z</time>
  <course>175.07</course>
  <speed>0.0</speed>
  <fix>3d</fix>
</trkpt>
<trkpt lat="33.810313" lon="-118.393867">
  <ele>-0.12</ele>
  <time>2026-09-01T01:13:24Z</time>
  <course>0.0</course>
  <speed>0.0</speed>
  <fix>3d</fix>
</trkpt>
<trkpt lat="33.810313" lon="-118.393867">
  <ele>0.0</ele>
  <time>2026-09-01T01:13:24Z</time>
  <course>175.61</course>
  <speed>0.0</speed>
  <fix>3d</fix>
</trkpt>
<trkpt lat="33.810313" lon="-118.393867">
  <ele>-0.12</ele>
  <time>2026-09-01T01:13:24Z</time>
  <course>0.0</course>
  <speed>0.0</speed>
  <fix>3d</fix>
</trkpt>
<trkpt lat="33.810313" lon="-118.393867">
  <ele>0.0</ele>
  <time>2026-09-01T01:13:24Z</time>
  <course>176.12</course>
  <speed>0.0</speed>
  <fix>3d</fix>
</trkpt>
<trkpt lat="33.810313" lon="-118.393867">
  <ele>-0.13</ele>
  <time>2026-09-01T01:13:24Z</time>
  <course>0.0</course>
  <speed>0.0</speed>
  <fix>3d</fix>
</trkpt>
<trkpt lat="33.810313" lon="-118.393867">
  <ele>0.0</ele>
  <time>2026-09-01T01:13:24Z</time>
  <course>176.6</course>
  <speed>0.0</speed>
  <fix>3d</fix>
</trkpt>
<trkpt lat="33.810313" lon="-118.393867">
  <ele>-0.13</ele>
  <time>2026-09-01T01:13:24Z</time>
  <course>0.0</course>
  <speed>0.0</speed>
  <fix>3d</fix>
</trkpt>
<trkpt lat="33.810313" lon="-118.393867">
  <ele>0.0</ele>
  <time>2026-09-01T01:13:24Z</time>
  <course>177.07</course>
  <speed>0.0</speed>
  <fix>3d</fix>
</trkpt>
<trkpt lat="33.810313" lon="-118.393867">
  <ele>-0.13</ele>
  <time>2026-09-01T01:13:24Z</time>
  <course>0.0</course>
  <speed>0.0</speed>
  <fix>3d</fix>
</trkpt>
<trkpt lat="33.810313" lon="-118.393867">
  <ele>0.0</ele>
  <time>2026-09-01T01:13:24Z</time>
  <course>177.53</course>
  <speed>0.0</speed>
  <fix>3d</fix>
</trkpt>
<trkpt lat="33.810313" lon="-118.393867">
  <ele>-0.13</ele>
  <time>2026-09-01T01:13:24Z</time>
  <course>0.0</course>
  <speed>0.0</speed>
  <fix>3d</fix>
</trkpt>
<trkpt lat="33.810313" lon="-118.393867">
  <ele>0.0</ele>
  <time>2026-09-01T01:13:24Z</time>
  <course>177.97</course>
  <speed>0.0</speed>
  <fix>3d</fix>
</trkpt>
<trkpt lat="33.810313" lon="-118.393867">
  <ele>-0.14</ele>
  <time>2026-09-01T01:13:24Z</time>
  <course>0.0</course>
  <speed>0.0</speed>
  <fix>3d</fix>
</trkpt>
<trkpt lat="33.810313" lon="-118.393867">
  <ele>0.0</ele>
  <time>2026-09-01T01:13:24Z</time>
  <course>178.4</course>
  <speed>0.0</speed>
  <fix>3d</fix>
</trkpt>
<trkpt lat="33.810313" lon="-118.393867">
  <ele>-0.14</ele>
  <time>2026-09-01T01:13:24Z</time>
  <course>0.0</course>
  <speed>0.0</speed>
  <fix>3d</fix>
</trkpt>
<trkpt lat="33.810313" lon="-118.393867">
  <ele>0.0</ele>
  <time>2026-09-01T01:13:24Z</time>
  <course>178.82</course>
  <speed>0.0</speed>
  <fix>3d</fix>
</trkpt>
<trkpt lat="33.810313" lon="-118.393867">
  <ele>-0.14</ele>
  <time>2026-09-01T01:13:24Z</time>
  <course>0.0</course>
  <speed>0.0</speed>
  <fix>3d</fix>
</trkpt>
<trkpt lat="33.810313" lon="-118.393867">
  <ele>0.0</ele>
  <time>2026-09-01T01:13:24Z</time>
  <course>179.23</course>
  <speed>0.0</speed>
  <fix>3d</fix>
</trkpt>
<trkpt lat="33.810313" lon="-118.393867">
  <ele>-0.14</ele>
  <time>2026-09-01T01:13:24Z</time>
  <course>0.0</course>
  <speed>0.0</speed>
  <fix>3d</fix>
</trkpt>
<trkpt lat="33.810313" lon="-118.393867">
  <ele>0.0</ele>
  <time>2026-09-01T01:13:24Z</time>
  <course>179.62</course>
  <speed>0.0</speed>
  <fix>3d</fix>
</trkpt>
<trkpt lat="33.810313" lon="-118.393867">
  <ele>-0.14</ele>
  <time>2026-09-01T01:13:24Z</time>
  <course>0.0</course>
  <speed>0.0</speed>
  <fix>3d</fix>
</trkpt>
<trkpt lat="33.810313" lon="-118.393867">
  <ele>0.0</ele>
  <time>2026-09-01T01:13:24Z</time>
  <course>180.01</course>
  <speed>0.0</speed>
  <fix>3d</fix>
</trkpt>
<trkpt lat="33.810313" lon="-118.393867">
  <ele>-0.14</ele>
  <time>2026-09-01T01:13:24Z</time>
  <course>0.0</course>
  <speed>0.0</speed>
  <fix>3d</fix>
</trkpt>
<trkpt lat="33.810313" lon="-118.393867">
  <ele>0.0</ele>
  <time>2026-09-01T01:13:24Z</time>
  <course>180.37</course>
  <speed>0.0</speed>
  <fix>3d</fix>
</trkpt>
<trkpt lat="33.810313" lon="-118.393867">
  <ele>-0.14</ele>
  <time>2026-09-01T01:13:24Z</time>
  <course>0.0</course>
  <speed>0.0</speed>
  <fix>3d</fix>
</trkpt>
<trkpt lat="33.810313" lon="-118.393867">
  <ele>0.0</ele>
  <time>2026-09-01T01:13:24Z</time>
  <course>180.73</course>
  <speed>0.0</speed>
  <fix>3d</fix>
</trkpt>
<trkpt lat="33.810313" lon="-118.393867">
  <ele>-0.14</ele>
  <time>2026-09-01T01:13:24Z</time>
  <course>0.0</course>
  <speed>0.0</speed>
  <fix>3d</fix>
</trkpt>
<trkpt lat="33.810313" lon="-118.393867">
  <ele>0.0</ele>
  <time>2026-09-01T01:13:24Z</time>
  <course>181.07</course>
  <speed>0.0</speed>
  <fix>3d</fix>
</trkpt>
<trkpt lat="33.810313" lon="-118.393867">
  <ele>-0.13</ele>
  <time>2026-09-01T01:13:24Z</time>
  <course>0.0</course>
  <speed>0.0</speed>
  <fix>3d</fix>
</trkpt>
<trkpt lat="33.810313" lon="-118.393867">
  <ele>0.0</ele>
  <time>2026-09-01T01:13:24Z</time>
  <course>181.4</course>
  <speed>0.0</speed>
  <fix>3d</fix>
</trkpt>
<trkpt lat="33.810313" lon="-118.393867">
  <ele>-0.13</ele>
  <time>2026-09-01T01:13:24Z</time>
  <course>0.0</course>
  <speed>0.0</speed>
  <fix>3d</fix>
</trkpt>
<trkpt lat="33.810313" lon="-118.393867">
  <ele>0.0</ele>
  <time>2026-09-01T01:13:24Z</time>
  <course>181.72</course>
  <speed>0.0</speed>
  <fix>3d</fix>
</trkpt>
<trkpt lat="33.810313" lon="-118.393867">
  <ele>-0.12</ele>
  <time>2026-09-01T01:13:24Z</time>
  <course>0.0</course>
  <speed>0.0</speed>
  <fix>3d</fix>
</trkpt>
<trkpt lat="33.810313" lon="-118.393867">
  <ele>0.0</ele>
  <time>2026-09-01T01:13:24Z</time>
  <course>182.02</course>
  <speed>0.0</speed>
  <fix>3d</fix>
</trkpt>
<trkpt lat="33.810313" lon="-118.393867">
  <ele>-0.12</ele>
  <time>2026-09-01T01:13:24Z</time>
  <course>0.0</course>
  <speed>0.0</speed>
  <fix>3d</fix>
</trkpt>
<trkpt lat="33.810313" lon="-118.393867">
  <ele>0.0</ele>
  <time>2026-09-01T01:13:24Z</time>
  <course>182.32</course>
  <speed>0.0</speed>
  <fix>3d</fix>
</trkpt>
<trkpt lat="33.810313" lon="-118.393867">
  <ele>-0.12</ele>
  <time>2026-09-01T01:13:24Z</time>
  <course>0.0</course>
  <speed>0.0</speed>
  <fix>3d</fix>
</trkpt>
<trkpt lat="33.810313" lon="-118.393867">
  <ele>0.0</ele>
  <time>2026-09-01T01:13:24Z</time>
  <course>182.6</course>
  <speed>0.0</speed>
  <fix>3d</fix>
</trkpt>
<trkpt lat="33.810313" lon="-118.393867">
  <ele>-0.12</ele>
  <time>2026-09-01T01:13:24Z</time>
  <course>0.0</course>
  <speed>0.0</speed>
  <fix>3d</fix>
</trkpt>
<trkpt lat="33.810313" lon="-118.393867">
  <ele>0.0</ele>
  <time>2026-09-01T01:13:24Z</time>
  <course>182.87</course>
  <speed>0.0</speed>
  <fix>3d</fix>
</trkpt>
<trkpt lat="33.810313" lon="-118.393867">
  <ele>-0.11</ele>
  <time>2026-09-01T01:13:24Z</time>
  <course>0.0</course>
  <speed>0.0</speed>
  <fix>3d</fix>
</trkpt>
<trkpt lat="33.810313" lon="-118.393867">
  <ele>0.0</ele>
  <time>2026-09-01T01:13:24Z</time>
  <course>183.13</course>
  <speed>0.0</speed>
  <fix>3d</fix>
</trkpt>
<trkpt lat="33.810313" lon="-118.393867">
  <ele>-0.11</ele>
  <time>2026-09-01T01:13:24Z</time>
  <course>0.0</course>
  <speed>0.0</speed>
  <fix>3d</fix>
</trkpt>
<trkpt lat="33.810313" lon="-118.393867">
  <ele>0.0</ele>
  <time>2026-09-01T01:13:24Z</time>
  <course>183.39</course>
  <speed>0.0</speed>
  <fix>3d</fix>
</trkpt>
<trkpt lat="33.810313" lon="-118.393867">
  <ele>-0.11</ele>
  <time>2026-09-01T01:13:24Z</time>
  <course>0.0</course>
  <speed>0.0</speed>
  <fix>3d</fix>
</trkpt>
<trkpt lat="33.810313" lon="-118.393867">
  <ele>0.0</ele>
  <time>2026-09-01T01:13:24Z</time>
  <course>183.63</course>
  <speed>0.0</speed>
  <fix>3d</fix>
</trkpt>
<trkpt lat="33.810313" lon="-118.393867">
  <ele>-0.11</ele>
  <time>2026-09-01T01:13:24Z</time>
  <course>0.0</course>
  <speed>0.0</speed>
  <fix>3d</fix>
</trkpt>
<trkpt lat="33.810313" lon="-118.393867">
  <ele>0.0</ele>
  <time>2026-09-01T01:13:24Z</time>
  <course>183.86</course>
  <speed>0.0</speed>
  <fix>3d</fix>
</trkpt>
<trkpt lat="33.810313" lon="-118.393867">
  <ele>-0.12</ele>
  <time>2026-09-01T01:13:24Z</time>
  <course>0.0</course>
  <speed>0.0</speed>
  <fix>3d</fix>
</trkpt>
<trkpt lat="33.810313" lon="-118.393867">
  <ele>0.0</ele>
  <time>2026-09-01T01:13:24Z</time>
  <course>184.08</course>
  <speed>0.0</speed>
  <fix>3d</fix>
</trkpt>
<trkpt lat="33.810313" lon="-118.393867">
  <ele>-0.12</ele>
  <time>2026-09-01T01:13:24Z</time>
  <course>0.0</course>
  <speed>0.0</speed>
  <fix>3d</fix>
</trkpt>
<trkpt lat="33.810313" lon="-118.393867">
  <ele>0.0</ele>
  <time>2026-09-01T01:13:24Z</time>
  <course>184.3</course>
  <speed>0.0</speed>
  <fix>3d</fix>
</trkpt>
<trkpt lat="33.810313" lon="-118.393867">
  <ele>-0.13</ele>
  <time>2026-09-01T01:13:24Z</time>
  <course>0.0</course>
  <speed>0.0</speed>
  <fix>3d</fix>
</trkpt>
<trkpt lat="33.810313" lon="-118.393867">
  <ele>0.0</ele>
  <time>2026-09-01T01:13:24Z</time>
  <course>184.5</course>
  <speed>0.0</speed>
  <fix>3d</fix>
</trkpt>
<trkpt lat="33.810313" lon="-118.393867">
  <ele>-0.13</ele>
  <time>2026-09-01T01:13:24Z</time>
  <course>0.0</course>
  <speed>0.0</speed>
  <fix>3d</fix>
</trkpt>
<trkpt lat="33.810313" lon="-118.393867">
  <ele>0.0</ele>
  <time>2026-09-01T01:13:24Z</time>
  <course>184.7</course>
  <speed>0.0</speed>
  <fix>3d</fix>
</trkpt>
<trkpt lat="33.810313" lon="-118.393867">
  <ele>-0.13</ele>
  <time>2026-09-01T01:13:24Z</time>
  <course>0.0</course>
  <speed>0.0</speed>
  <fix>3d</fix>
</trkpt>
<trkpt lat="33.810313" lon="-118.393867">
  <ele>0.0</ele>
  <time>2026-09-01T01:13:24Z</time>
  <course>184.89</course>
  <speed>0.0</speed>
  <fix>3d</fix>
</trkpt>
<trkpt lat="33.810313" lon="-118.393867">
  <ele>-0.13</ele>
  <time>2026-09-01T01:13:24Z</time>
  <course>0.0</course>
  <speed>0.0</speed>
  <fix>3d</fix>
</trkpt>
<trkpt lat="33.810313" lon="-118.393867">
  <ele>0.0</ele>
  <time>2026-09-01T01:13:24Z</time>
  <course>185.07</course>
  <speed>0.0</speed>
  <fix>3d</fix>
</trkpt>
<trkpt lat="33.810313" lon="-118.393867">
  <ele>-0.14</ele>
  <time>2026-09-01T01:13:24Z</time>
  <course>0.0</course>
  <speed>0.0</speed>
  <fix>3d</fix>
</trkpt>
<trkpt lat="33.810313" lon="-118.393867">
  <ele>0.0</ele>
  <time>2026-09-01T01:13:24Z</time>
  <course>185.24</course>
  <speed>0.0</speed>
  <fix>3d</fix>
</trkpt>
<trkpt lat="33.810313" lon="-118.393867">
  <ele>-0.14</ele>
  <time>2026-09-01T01:13:24Z</time>
  <course>0.0</course>
  <speed>0.0</speed>
  <fix>3d</fix>
</trkpt>
<trkpt lat="33.810313" lon="-118.393867">
  <ele>0.0</ele>
  <time>2026-09-01T01:13:24Z</time>
  <course>185.41</course>
  <speed>0.0</speed>
  <fix>3d</fix>
</trkpt>
<trkpt lat="33.810313" lon="-118.393867">
  <ele>-0.13</ele>
  <time>2026-09-01T01:13:24Z</time>
  <course>0.0</course>
  <speed>0.0</speed>
  <fix>3d</fix>
</trkpt>
<trkpt lat="33.810313" lon="-118.393867">
  <ele>0.0</ele>
  <time>2026-09-01T01:13:24Z</time>
  <course>185.57</course>
  <speed>0.0</speed>
  <fix>3d</fix>
</trkpt>
<trkpt lat="33.810313" lon="-118.393867">
  <ele>-0.13</ele>
  <time>2026-09-01T01:13:24Z</time>
  <course>0.0</course>
  <speed>0.0</speed>
  <fix>3d</fix>
</trkpt>
<trkpt lat="33.810313" lon="-118.393867">
  <ele>0.0</ele>
  <time>2026-09-01T01:13:24Z</time>
  <course>185.72</course>
  <speed>0.0</speed>
  <fix>3d</fix>
</trkpt>
<trkpt lat="33.810313" lon="-118.393867">
  <ele>-0.13</ele>
  <time>2026-09-01T01:13:24Z</time>
  <course>0.0</course>
  <speed>0.0</speed>
  <fix>3d</fix>
</trkpt>
<trkpt lat="33.810313" lon="-118.393867">
  <ele>0.0</ele>
  <time>2026-09-01T01:13:24Z</time>
  <course>185.86</course>
  <speed>0.0</speed>
  <fix>3d</fix>
</trkpt>
<trkpt lat="33.810313" lon="-118.393867">
  <ele>-0.13</ele>
  <time>2026-09-01T01:13:24Z</time>
  <course>0.0</course>
  <speed>0.0</speed>
  <fix>3d</fix>
</trkpt>
<trkpt lat="33.810313" lon="-118.393867">
  <ele>0.0</ele>
  <time>2026-09-01T01:13:24Z</time>
  <course>186.0</course>
  <speed>0.0</speed>
  <fix>3d</fix>
</trkpt>
<trkpt lat="33.810313" lon="-118.393867">
  <ele>-0.12</ele>
  <time>2026-09-01T01:13:24Z</time>
  <course>0.0</course>
  <speed>0.0</speed>
  <fix>3d</fix>
</trkpt>
<trkpt lat="33.810313" lon="-118.393867">
  <ele>0.0</ele>
  <time>2026-09-01T01:13:24Z</time>
  <course>186.13</course>
  <speed>0.0</speed>
  <fix>3d</fix>
</trkpt>
<trkpt lat="33.810313" lon="-118.393867">
  <ele>-0.12</ele>
  <time>2026-09-01T01:13:24Z</time>
  <course>0.0</course>
  <speed>0.0</speed>
  <fix>3d</fix>
</trkpt>
<trkpt lat="33.810313" lon="-118.393867">
  <ele>0.0</ele>
  <time>2026-09-01T01:13:24Z</time>
  <course>186.26</course>
  <speed>0.0</speed>
  <fix>3d</fix>
</trkpt>
<trkpt lat="33.810313" lon="-118.393867">
  <ele>-0.12</ele>
  <time>2026-09-01T01:13:24Z</time>
  <course>0.0</course>
  <speed>0.0</speed>
  <fix>3d</fix>
</trkpt>
<trkpt lat="33.810313" lon="-118.393867">
  <ele>0.0</ele>
  <time>2026-09-01T01:13:24Z</time>
  <course>186.38</course>
  <speed>0.0</speed>
  <fix>3d</fix>
</trkpt>
<trkpt lat="33.810313" lon="-118.393867">
  <ele>-0.12</ele>
  <time>2026-09-01T01:13:24Z</time>
  <course>0.0</course>
  <speed>0.0</speed>
  <fix>3d</fix>
</trkpt>
<trkpt lat="33.810313" lon="-118.393867">
  <ele>0.0</ele>
  <time>2026-09-01T01:13:24Z</time>
  <course>186.49</course>
  <speed>0.0</speed>
  <fix>3d</fix>
</trkpt>
<trkpt lat="33.810313" lon="-118.393867">
  <ele>-0.12</ele>
  <time>2026-09-01T01:13:24Z</time>
  <course>0.0</course>
  <speed>0.0</speed>
  <fix>3d</fix>
</trkpt>
<trkpt lat="33.810313" lon="-118.393867">
  <ele>0.0</ele>
  <time>2026-09-01T01:13:24Z</time>
  <course>186.6</course>
  <speed>0.0</speed>
  <fix>3d</fix>
</trkpt>
<trkpt lat="33.810313" lon="-118.393867">
  <ele>-0.12</ele>
  <time>2026-09-01T01:13:24Z</time>
  <course>0.0</course>
  <speed>0.0</speed>
  <fix>3d</fix>
</trkpt>
<trkpt lat="33.810313" lon="-118.393867">
  <ele>0.0</ele>
  <time>2026-09-01T01:13:24Z</time>
  <course>186.71</course>
  <speed>0.0</speed>
  <fix>3d</fix>
</trkpt>
<trkpt lat="33.810313" lon="-118.393867">
  <ele>-0.12</ele>
  <time>2026-09-01T01:13:24Z</time>
  <course>0.0</course>
  <speed>0.0</speed>
  <fix>3d</fix>
</trkpt>
<trkpt lat="33.810313" lon="-118.393867">
  <ele>0.0</ele>
  <time>2026-09-01T01:13:24Z</time>
  <course>186.81</course>
  <speed>0.0</speed>
  <fix>3d</fix>
</trkpt>
<trkpt lat="33.810313" lon="-118.393867">
  <ele>-0.12</ele>
  <time>2026-09-01T01:13:24Z</time>
  <course>0.0</course>
  <speed>0.0</speed>
  <fix>3d</fix>
</trkpt>
<trkpt lat="33.810313" lon="-118.393867">
  <ele>0.0</ele>
  <time>2026-09-01T01:13:24Z</time>
  <course>186.91</course>
  <speed>0.0</speed>
  <fix>3d</fix>
</trkpt>
<trkpt lat="33.810313" lon="-118.393867">
  <ele>-0.12</ele>
  <time>2026-09-01T01:13:24Z</time>
  <course>0.0</course>
  <speed>0.0</speed>
  <fix>3d</fix>
</trkpt>
<trkpt lat="33.810313" lon="-118.393867">
  <ele>0.0</ele>
  <time>2026-09-01T01:13:24Z</time>
  <course>187.0</course>
  <speed>0.0</speed>
  <fix>3d</fix>
</trkpt>
<trkpt lat="33.810313" lon="-118.393867">
  <ele>-0.12</ele>
  <time>2026-09-01T01:13:24Z</time>
  <course>0.0</course>
  <speed>0.0</speed>
  <fix>3d</fix>
</trkpt>
<trkpt lat="33.810313" lon="-118.393867">
  <ele>0.0</ele>
  <time>2026-09-01T01:13:24Z</time>
  <course>187.08</course>
  <speed>0.0</speed>
  <fix>3d</fix>
</trkpt>
<trkpt lat="33.810313" lon="-118.393867">
  <ele>-0.13</ele>
  <time>2026-09-01T01:13:24Z</time>
  <course>0.0</course>
  <speed>0.0</speed>
  <fix>3d</fix>
</trkpt>
<trkpt lat="33.810313" lon="-118.393867">
  <ele>0.0</ele>
  <time>2026-09-01T01:13:24Z</time>
  <course>187.17</course>
  <speed>0.0</speed>
  <fix>3d</fix>
</trkpt>
<trkpt lat="33.810313" lon="-118.393867">
  <ele>-0.13</ele>
  <time>2026-09-01T01:13:24Z</time>
  <course>0.0</course>
  <speed>0.0</speed>
  <fix>3d</fix>
</trkpt>
<trkpt lat="33.810313" lon="-118.393867">
  <ele>0.0</ele>
  <time>2026-09-01T01:13:24Z</time>
  <course>187.25</course>
  <speed>0.0</speed>
  <fix>3d</fix>
</trkpt>
<trkpt lat="33.810313" lon="-118.393867">
  <ele>-0.13</ele>
  <time>2026-09-01T01:13:24Z</time>
  <course>0.0</course>
  <speed>0.0</speed>
  <fix>3d</fix>
</trkpt>
<trkpt lat="33.810313" lon="-118.393867">
  <ele>0.0</ele>
  <time>2026-09-01T01:13:24Z</time>
  <course>187.32</course>
  <speed>0.0</speed>
  <fix>3d</fix>
</trkpt>
<trkpt lat="33.810313" lon="-118.393867">
  <ele>-0.13</ele>
  <time>2026-09-01T01:13:24Z</time>
  <course>0.0</course>
  <speed>0.0</speed>
  <fix>3d</fix>
</trkpt>
<trkpt lat="33.810313" lon="-118.393867">
  <ele>0.0</ele>
  <time>2026-09-01T01:13:24Z</time>
  <course>187.39</course>
  <speed>0.0</speed>
  <fix>3d</fix>
</trkpt>
<trkpt lat="33.810313" lon="-118.393867">
  <ele>-0.13</ele>
  <time>2026-09-01T01:13:24Z</time>
  <course>0.0</course>
  <speed>0.0</speed>
  <fix>3d</fix>
</trkpt>
<trkpt lat="33.810313" lon="-118.393867">
  <ele>0.0</ele>
  <time>2026-09-01T01:13:24Z</time>
  <course>187.46</course>
  <speed>0.0</speed>
  <fix>3d</fix>
</trkpt>
<trkpt lat="33.810313" lon="-118.393867">
  <ele>-0.13</ele>
  <time>2026-09-01T01:13:24Z</time>
  <course>0.0</course>
  <speed>0.0</speed>
  <fix>3d</fix>
</trkpt>
<trkpt lat="33.810313" lon="-118.393867">
  <ele>0.0</ele>
  <time>2026-09-01T01:13:24Z</time>
  <course>187.53</course>
  <speed>0.0</speed>
  <fix>3d</fix>
</trkpt>
<trkpt lat="33.810313" lon="-118.393867">
  <ele>-0.13</ele>
  <time>2026-09-01T01:13:24Z</time>
  <course>0.0</course>
  <speed>0.0</speed>
  <fix>3d</fix>
</trkpt>
<trkpt lat="33.810313" lon="-118.393867">
  <ele>0.0</ele>
  <time>2026-09-01T01:13:24Z</time>
  <course>187.59</course>
  <speed>0.0</speed>
  <fix>3d</fix>
</trkpt>
<trkpt lat="33.810313" lon="-118.393867">
  <ele>-0.13</ele>
  <time>2026-09-01T01:13:24Z</time>
  <course>0.0</course>
  <speed>0.0</speed>
  <fix>3d</fix>
</trkpt>
<trkpt lat="33.810313" lon="-118.393867">
  <ele>0.0</ele>
  <time>2026-09-01T01:13:24Z</time>
  <course>187.65</course>
  <speed>0.0</speed>
  <fix>3d</fix>
</trkpt>
<trkpt lat="33.810313" lon="-118.393867">
  <ele>-0.12</ele>
  <time>2026-09-01T01:13:24Z</time>
  <course>0.0</course>
  <speed>0.0</speed>
  <fix>3d</fix>
</trkpt>
<trkpt lat="33.810313" lon="-118.393867">
  <ele>0.0</ele>
  <time>2026-09-01T01:13:24Z</time>
  <course>187.7</course>
  <speed>0.0</speed>
  <fix>3d</fix>
</trkpt>
<trkpt lat="33.810313" lon="-118.393867">
  <ele>-0.12</ele>
  <time>2026-09-01T01:13:24Z</time>
  <course>0.0</course>
  <speed>0.0</speed>
  <fix>3d</fix>
</trkpt>
<trkpt lat="33.810313" lon="-118.393867">
  <ele>0.0</ele>
  <time>2026-09-01T01:13:24Z</time>
  <course>187.76</course>
  <speed>0.0</speed>
  <fix>3d</fix>
</trkpt>
<trkpt lat="33.810313" lon="-118.393867">
  <ele>-0.12</ele>
  <time>2026-09-01T01:13:24Z</time>
  <course>0.0</course>
  <speed>0.0</speed>
  <fix>3d</fix>
</trkpt>
<trkpt lat="33.810313" lon="-118.393867">
  <ele>0.0</ele>
  <time>2026-09-01T01:13:24Z</time>
  <course>187.81</course>
  <speed>0.0</speed>
  <fix>3d</fix>
</trkpt>
<trkpt lat="33.810313" lon="-118.393867">
  <ele>-0.12</ele>
  <time>2026-09-01T01:13:24Z</time>
  <course>0.0</course>
  <speed>0.0</speed>
  <fix>3d</fix>
</trkpt>
<trkpt lat="33.810313" lon="-118.393867">
  <ele>0.0</ele>
  <time>2026-09-01T01:13:24Z</time>
  <course>187.86</course>
  <speed>0.0</speed>
  <fix>3d</fix>
</trkpt>
<trkpt lat="33.810313" lon="-118.393867">
  <ele>-0.12</ele>
  <time>2026-09-01T01:13:24Z</time>
  <course>0.0</course>
  <speed>0.0</speed>
  <fix>3d</fix>
</trkpt>
<trkpt lat="33.810313" lon="-118.393867">
  <ele>0.0</ele>
  <time>2026-09-01T01:13:24Z</time>
  <course>187.9</course>
  <speed>0.0</speed>
  <fix>3d</fix>
</trkpt>
<trkpt lat="33.810313" lon="-118.393867">
  <ele>-0.12</ele>
  <time>2026-09-01T01:13:24Z</time>
  <course>0.0</course>
  <speed>0.0</speed>
  <fix>3d</fix>
</trkpt>
<trkpt lat="33.810313" lon="-118.393867">
  <ele>0.0</ele>
  <time>2026-09-01T01:13:24Z</time>
  <course>187.95</course>
  <speed>0.0</speed>
  <fix>3d</fix>
</trkpt>
<trkpt lat="33.810313" lon="-118.393867">
  <ele>-0.12</ele>
  <time>2026-09-01T01:13:24Z</time>
  <course>0.0</course>
  <speed>0.0</speed>
  <fix>3d</fix>
</trkpt>
<trkpt lat="33.810313" lon="-118.393867">
  <ele>0.0</ele>
  <time>2026-09-01T01:13:24Z</time>
  <course>187.99</course>
  <speed>0.0</speed>
  <fix>3d</fix>
</trkpt>
<trkpt lat="33.810313" lon="-118.393867">
  <ele>-0.12</ele>
  <time>2026-09-01T01:13:24Z</time>
  <course>0.0</course>
  <speed>0.0</speed>
  <fix>3d</fix>
</trkpt>
<trkpt lat="33.810313" lon="-118.393867">
  <ele>0.0</ele>
  <time>2026-09-01T01:13:24Z</time>
  <course>188.03</course>
  <speed>0.0</speed>
  <fix>3d</fix>
</trkpt>
<trkpt lat="33.810313" lon="-118.393867">
  <ele>-0.12</ele>
  <time>2026-09-01T01:13:24Z</time>
  <course>0.0</course>
  <speed>0.0</speed>
  <fix>3d</fix>
</trkpt>
<trkpt lat="33.810313" lon="-118.393867">
  <ele>0.0</ele>
  <time>2026-09-01T01:13:24Z</time>
  <course>188.06</course>
  <speed>0.0</speed>
  <fix>3d</fix>
</trkpt>
<trkpt lat="33.810313" lon="-118.393867">
  <ele>-0.12</ele>
  <time>2026-09-01T01:13:24Z</time>
  <course>0.0</course>
  <speed>0.0</speed>
  <fix>3d</fix>
</trkpt>
<trkpt lat="33.810313" lon="-118.393867">
  <ele>0.0</ele>
  <time>2026-09-01T01:13:24Z</time>
  <course>188.1</course>
  <speed>0.0</speed>
  <fix>3d</fix>
</trkpt>
<trkpt lat="33.810313" lon="-118.393867">
  <ele>-0.13</ele>
  <time>2026-09-01T01:13:24Z</time>
  <course>0.0</course>
  <speed>0.0</speed>
  <fix>3d</fix>
</trkpt>
<trkpt lat="33.810313" lon="-118.393867">
  <ele>0.0</ele>
  <time>2026-09-01T01:13:24Z</time>
  <course>188.13</course>
  <speed>0.0</speed>
  <fix>3d</fix>
</trkpt>
<trkpt lat="33.810313" lon="-118.393867">
  <ele>-0.13</ele>
  <time>2026-09-01T01:13:24Z</time>
  <course>0.0</course>
  <speed>0.0</speed>
  <fix>3d</fix>
</trkpt>
<trkpt lat="33.810313" lon="-118.393867">
  <ele>0.0</ele>
  <time>2026-09-01T01:13:24Z</time>
  <course>188.16</course>
  <speed>0.0</speed>
  <fix>3d</fix>
</trkpt>
<trkpt lat="33.810313" lon="-118.393867">
  <ele>-0.13</ele>
  <time>2026-09-01T01:13:24Z</time>
  <course>0.0</course>
  <speed>0.0</speed>
  <fix>3d</fix>
</trkpt>
<trkpt lat="33.810313" lon="-118.393867">
  <ele>0.0</ele>
  <time>2026-09-01T01:13:24Z</time>
  <course>188.19</course>
  <speed>0.0</speed>
  <fix>3d</fix>
</trkpt>
<trkpt lat="33.810313" lon="-118.393867">
  <ele>-0.13</ele>
  <time>2026-09-01T01:13:24Z</time>
  <course>0.0</course>
  <speed>0.0</speed>
  <fix>3d</fix>
</trkpt>
<trkpt lat="33.810313" lon="-118.393867">
  <ele>0.0</ele>
  <time>2026-09-01T01:13:24Z</time>
  <course>188.22</course>
  <speed>0.0</speed>
  <fix>3d</fix>
</trkpt>
<trkpt lat="33.810313" lon="-118.393867">
  <ele>-0.13</ele>
  <time>2026-09-01T01:13:24Z</time>
  <course>0.0</course>
  <speed>0.0</speed>
  <fix>3d</fix>
</trkpt>
<trkpt lat="33.810313" lon="-118.393867">
  <ele>0.0</ele>
  <time>2026-09-01T01:13:24Z</time>
  <course>188.25</course>
  <speed>0.0</speed>
  <fix>3d</fix>
</trkpt>
<trkpt lat="33.810313" lon="-118.393867">
  <ele>-0.13</ele>
  <time>2026-09-01T01:13:24Z</time>
  <course>0.0</course>
  <speed>0.0</speed>
  <fix>3d</fix>
</trkpt>
<trkpt lat="33.810313" lon="-118.393867">
  <ele>0.0</ele>
  <time>2026-09-01T01:13:24Z</time>
  <course>188.27</course>
  <speed>0.0</speed>
  <fix>3d</fix>
</trkpt>
<trkpt lat="33.810313" lon="-118.393867">
  <ele>-0.12</ele>
  <time>2026-09-01T01:13:24Z</time>
  <course>0.0</course>
  <speed>0.0</speed>
  <fix>3d</fix>
</trkpt>
<trkpt lat="33.810313" lon="-118.393867">
  <ele>0.0</ele>
  <time>2026-09-01T01:13:24Z</time>
  <course>188.29</course>
  <speed>0.0</speed>
  <fix>3d</fix>
</trkpt>
<trkpt lat="33.810313" lon="-118.393867">
  <ele>-0.12</ele>
  <time>2026-09-01T01:13:24Z</time>
  <course>0.0</course>
  <speed>0.0</speed>
  <fix>3d</fix>
</trkpt>
<trkpt lat="33.810313" lon="-118.393867">
  <ele>0.0</ele>
  <time>2026-09-01T01:13:24Z</time>
  <course>188.32</course>
  <speed>0.0</speed>
  <fix>3d</fix>
</trkpt>
<trkpt lat="33.810313" lon="-118.393867">
  <ele>-0.12</ele>
  <time>2026-09-01T01:13:24Z</time>
  <course>0.0</course>
  <speed>0.0</speed>
  <fix>3d</fix>
</trkpt>
<trkpt lat="33.810313" lon="-118.393867">
  <ele>0.0</ele>
  <time>2026-09-01T01:13:24Z</time>
  <course>188.34</course>
  <speed>0.0</speed>
  <fix>3d</fix>
</trkpt>
<trkpt lat="33.810313" lon="-118.393867">
  <ele>-0.12</ele>
  <time>2026-09-01T01:13:24Z</time>
  <course>0.0</course>
  <speed>0.0</speed>
  <fix>3d</fix>
</trkpt>
<trkpt lat="33.810313" lon="-118.393867">
  <ele>0.0</ele>
  <time>2026-09-01T01:13:24Z</time>
  <course>188.36</course>
  <speed>0.0</speed>
  <fix>3d</fix>
</trkpt>
<trkpt lat="33.810313" lon="-118.393867">
  <ele>-0.12</ele>
  <time>2026-09-01T01:13:24Z</time>
  <course>0.0</course>
  <speed>0.0</speed>
  <fix>3d</fix>
</trkpt>
<trkpt lat="33.810313" lon="-118.393867">
  <ele>0.0</ele>
  <time>2026-09-01T01:13:24Z</time>
  <course>188.38</course>
  <speed>0.0</speed>
  <fix>3d</fix>
</trkpt>
<trkpt lat="33.810313" lon="-118.393867">
  <ele>-0.12</ele>
  <time>2026-09-01T01:13:24Z</time>
  <course>0.0</course>
  <speed>0.0</speed>
  <fix>3d</fix>
</trkpt>
<trkpt lat="33.810313" lon="-118.393867">
  <ele>0.0</ele>
  <time>2026-09-01T01:13:24Z</time>
  <course>188.39</course>
  <speed>0.0</speed>
  <fix>3d</fix>
</trkpt>
<trkpt lat="33.810313" lon="-118.393867">
  <ele>-0.12</ele>
  <time>2026-09-01T01:13:24Z</time>
  <course>0.0</course>
  <speed>0.0</speed>
  <fix>3d</fix>
</trkpt>
<trkpt lat="33.810313" lon="-118.393867">
  <ele>0.0</ele>
  <time>2026-09-01T01:13:24Z</time>
  <course>188.41</course>
  <speed>0.0</speed>
  <fix>3d</fix>
</trkpt>
<trkpt lat="33.810313" lon="-118.393867">
  <ele>-0.12</ele>
  <time>2026-09-01T01:13:25Z</time>
  <course>0.0</course>
  <speed>0.0</speed>
  <fix>3d</fix>
</trkpt>
<trkpt lat="33.810313" lon="-118.393867">
  <ele>0.0</ele>
  <time>2026-09-01T01:13:25Z</time>
  <course>188.42</course>
  <speed>0.0</speed>
  <fix>3d</fix>
</trkpt>
<trkpt lat="33.810313" lon="-118.393867">
  <ele>-0.12</ele>
  <time>2026-09-01T01:13:25Z</time>
  <course>0.0</course>
  <speed>0.0</speed>
  <fix>3d</fix>
</trkpt>
<trkpt lat="33.810313" lon="-118.393867">
  <ele>0.0</ele>
  <time>2026-09-01T01:13:25Z</time>
  <course>188.44</course>
  <speed>0.0</speed>
  <fix>3d</fix>
</trkpt>
<trkpt lat="33.810313" lon="-118.393867">
  <ele>-0.12</ele>
  <time>2026-09-01T01:13:25Z</time>
  <course>0.0</course>
  <speed>0.0</speed>
  <fix>3d</fix>
</trkpt>
<trkpt lat="33.810313" lon="-118.393867">
  <ele>0.0</ele>
  <time>2026-09-01T01:13:25Z</time>
  <course>188.45</course>
  <speed>0.0</speed>
  <fix>3d</fix>
</trkpt>
<trkpt lat="33.810313" lon="-118.393867">
  <ele>-0.13</ele>
  <time>2026-09-01T01:13:25Z</time>
  <course>0.0</course>
  <speed>0.0</speed>
  <fix>3d</fix>
</trkpt>
<trkpt lat="33.810313" lon="-118.393867">
  <ele>0.0</ele>
  <time>2026-09-01T01:13:25Z</time>
  <course>188.46</course>
  <speed>0.0</speed>
  <fix>3d</fix>
</trkpt>
<trkpt lat="33.810313" lon="-118.393867">
  <ele>-0.13</ele>
  <time>2026-09-01T01:13:25Z</time>
  <course>0.0</course>
  <speed>0.0</speed>
  <fix>3d</fix>
</trkpt>
<trkpt lat="33.810313" lon="-118.393867">
  <ele>0.0</ele>
  <time>2026-09-01T01:13:25Z</time>
  <course>188.47</course>
  <speed>0.0</speed>
  <fix>3d</fix>
</trkpt>
<trkpt lat="33.810313" lon="-118.393867">
  <ele>-0.13</ele>
  <time>2026-09-01T01:13:25Z</time>
  <course>0.0</course>
  <speed>0.0</speed>
  <fix>3d</fix>
</trkpt>
<trkpt lat="33.810313" lon="-118.393867">
  <ele>0.0</ele>
  <time>2026-09-01T01:13:25Z</time>
  <course>188.48</course>
  <speed>0.0</speed>
  <fix>3d</fix>
</trkpt>
<trkpt lat="33.810313" lon="-118.393867">
  <ele>-0.13</ele>
  <time>2026-09-01T01:13:25Z</time>
  <course>0.0</course>
  <speed>0.0</speed>
  <fix>3d</fix>
</trkpt>
<trkpt lat="33.810313" lon="-118.393867">
  <ele>0.0</ele>
  <time>2026-09-01T01:13:25Z</time>
  <course>188.49</course>
  <speed>0.0</speed>
  <fix>3d</fix>
</trkpt>
<trkpt lat="33.810313" lon="-118.393867">
  <ele>-0.13</ele>
  <time>2026-09-01T01:13:25Z</time>
  <course>0.0</course>
  <speed>0.0</speed>
  <fix>3d</fix>
</trkpt>
<trkpt lat="33.810313" lon="-118.393867">
  <ele>0.0</ele>
  <time>2026-09-01T01:13:25Z</time>
  <course>188.5</course>
  <speed>0.0</speed>
  <fix>3d</fix>
</trkpt>
<trkpt lat="33.810313" lon="-118.393867">
  <ele>-0.13</ele>
  <time>2026-09-01T01:13:25Z</time>
  <course>0.0</course>
  <speed>0.0</speed>
  <fix>3d</fix>
</trkpt>
<trkpt lat="33.810313" lon="-118.393867">
  <ele>0.0</ele>
  <time>2026-09-01T01:13:25Z</time>
  <course>188.51</course>
  <speed>0.0</speed>
  <fix>3d</fix>
</trkpt>
<trkpt lat="33.810313" lon="-118.393867">
  <ele>-0.12</ele>
  <time>2026-09-01T01:13:25Z</time>
  <course>0.0</course>
  <speed>0.0</speed>
  <fix>3d</fix>
</trkpt>
<trkpt lat="33.810313" lon="-118.393867">
  <ele>0.0</ele>
  <time>2026-09-01T01:13:25Z</time>
  <course>188.52</course>
  <speed>0.0</speed>
  <fix>3d</fix>
</trkpt>
<trkpt lat="33.810313" lon="-118.393867">
  <ele>-0.12</ele>
  <time>2026-09-01T01:13:25Z</time>
  <course>0.0</course>
  <speed>0.0</speed>
  <fix>3d</fix>
</trkpt>
<trkpt lat="33.810313" lon="-118.393867">
  <ele>0.0</ele>
  <time>2026-09-01T01:13:25Z</time>
  <course>188.53</course>
  <speed>0.0</speed>
  <fix>3d</fix>
</trkpt>
<trkpt lat="33.810313" lon="-118.393867">
  <ele>-0.12</ele>
  <time>2026-09-01T01:13:25Z</time>
  <course>0.0</course>
  <speed>0.0</speed>
  <fix>3d</fix>
</trkpt>
<trkpt lat="33.810313" lon="-118.393867">
  <ele>0.0</ele>
  <time>2026-09-01T01:13:25Z</time>
  <course>188.53</course>
  <speed>0.0</speed>
  <fix>3d</fix>
</trkpt>
<trkpt lat="33.810313" lon="-118.393867">
  <ele>-0.12</ele>
  <time>2026-09-01T01:13:25Z</time>
  <course>0.0</course>
  <speed>0.0</speed>
  <fix>3d</fix>
</trkpt>
<trkpt lat="33.810313" lon="-118.393867">
  <ele>0.0</ele>
  <time>2026-09-01T01:13:25Z</time>
  <course>188.53</course>
  <speed>0.0</speed>
  <fix>3d</fix>
</trkpt>
<trkpt lat="33.810313" lon="-118.393867">
  <ele>-0.12</ele>
  <time>2026-09-01T01:13:25Z</time>
  <course>0.0</course>
  <speed>0.0</speed>
  <fix>3d</fix>
</trkpt>
<trkpt lat="33.810313" lon="-118.393867">
  <ele>0.0</ele>
  <time>2026-09-01T01:13:25Z</time>
  <course>188.54</course>
  <speed>0.0</speed>
  <fix>3d</fix>
</trkpt>
<trkpt lat="33.810313" lon="-118.393867">
  <ele>-0.12</ele>
  <time>2026-09-01T01:13:25Z</time>
  <course>0.0</course>
  <speed>0.0</speed>
  <fix>3d</fix>
</trkpt>
<trkpt lat="33.810313" lon="-118.393867">
  <ele>0.0</ele>
  <time>2026-09-01T01:13:25Z</time>
  <course>188.54</course>
  <speed>0.0</speed>
  <fix>3d</fix>
</trkpt>
<trkpt lat="33.810313" lon="-118.393867">
  <ele>-0.12</ele>
  <time>2026-09-01T01:13:25Z</time>
  <course>0.0</course>
  <speed>0.0</speed>
  <fix>3d</fix>
</trkpt>
<trkpt lat="33.810313" lon="-118.393867">
  <ele>0.0</ele>
  <time>2026-09-01T01:13:25Z</time>
  <course>188.55</course>
  <speed>0.0</speed>
  <fix>3d</fix>
</trkpt>
<trkpt lat="33.810313" lon="-118.393867">
  <ele>-0.12</ele>
  <time>2026-09-01T01:13:25Z</time>
  <course>0.0</course>
  <speed>0.0</speed>
  <fix>3d</fix>
</trkpt>
<trkpt lat="33.810313" lon="-118.393867">
  <ele>0.0</ele>
  <time>2026-09-01T01:13:25Z</time>
  <course>188.55</course>
  <speed>0.0</speed>
  <fix>3d</fix>
</trkpt>
<trkpt lat="33.810313" lon="-118.393867">
  <ele>-0.12</ele>
  <time>2026-09-01T01:13:25Z</time>
  <course>0.0</course>
  <speed>0.0</speed>
  <fix>3d</fix>
</trkpt>
<trkpt lat="33.810313" lon="-118.393867">
  <ele>0.0</ele>
  <time>2026-09-01T01:13:25Z</time>
  <course>188.55</course>
  <speed>0.0</speed>
  <fix>3d</fix>
</trkpt>
<trkpt lat="33.810313" lon="-118.393867">
  <ele>-0.12</ele>
  <time>2026-09-01T01:13:25Z</time>
  <course>0.0</course>
  <speed>0.0</speed>
  <fix>3d</fix>
</trkpt>
<trkpt lat="33.810313" lon="-118.393867">
  <ele>-0.122</ele>
  <time>2026-09-01T01:13:25Z</time>
  <course>188.55</course>
  <speed>0.0</speed>
  <fix>3d</fix>
</trkpt>
<trkpt lat="33.810313" lon="-118.393867">
  <ele>-0.13</ele>
  <time>2026-09-01T01:13:25Z</time>
  <course>0.0</course>
  <speed>0.0</speed>
  <fix>3d</fix>
</trkpt>
<trkpt lat="33.810313" lon="-118.393867">
  <ele>-0.121</ele>
  <time>2026-09-01T01:13:25Z</time>
  <course>188.55</course>
  <speed>0.0</speed>
  <fix>3d</fix>
</trkpt>
<trkpt lat="33.810313" lon="-118.393867">
  <ele>-0.13</ele>
  <time>2026-09-01T01:13:25Z</time>
  <course>0.0</course>
  <speed>0.0</speed>
  <fix>3d</fix>
</trkpt>
<trkpt lat="33.810313" lon="-118.393867">
  <ele>-0.12</ele>
  <time>2026-09-01T01:13:25Z</time>
  <course>188.55</course>
  <speed>0.0</speed>
  <fix>3d</fix>
</trkpt>
<trkpt lat="33.810313" lon="-118.393867">
  <ele>-0.13</ele>
  <time>2026-09-01T01:13:25Z</time>
  <course>0.0</course>
  <speed>0.0</speed>
  <fix>3d</fix>
</trkpt>
<trkpt lat="33.810313" lon="-118.393867">
  <ele>-0.118</ele>
  <time>2026-09-01T01:13:25Z</time>
  <course>188.56</course>
  <speed>0.0</speed>
  <fix>3d</fix>
</trkpt>
<trkpt lat="33.810313" lon="-118.393867">
  <ele>-0.13</ele>
  <time>2026-09-01T01:13:25Z</time>
  <course>0.0</course>
  <speed>0.0</speed>
  <fix>3d</fix>
</trkpt>
<trkpt lat="33.810313" lon="-118.393867">
  <ele>-0.116</ele>
  <time>2026-09-01T01:13:25Z</time>
  <course>188.56</course>
  <speed>0.0</speed>
  <fix>3d</fix>
</trkpt>
<trkpt lat="33.810313" lon="-118.393867">
  <ele>-0.12</ele>
  <time>2026-09-01T01:13:25Z</time>
  <course>0.0</course>
  <speed>0.0</speed>
  <fix>3d</fix>
</trkpt>
<trkpt lat="33.810313" lon="-118.393867">
  <ele>-0.113</ele>
  <time>2026-09-01T01:13:25Z</time>
  <course>188.56</course>
  <speed>0.0</speed>
  <fix>3d</fix>
</trkpt>
<trkpt lat="33.810313" lon="-118.393867">
  <ele>-0.12</ele>
  <time>2026-09-01T01:13:25Z</time>
  <course>0.0</course>
  <speed>0.0</speed>
  <fix>3d</fix>
</trkpt>
<trkpt lat="33.810313" lon="-118.393867">
  <ele>-0.111</ele>
  <time>2026-09-01T01:13:25Z</time>
  <course>188.55</course>
  <speed>0.0</speed>
  <fix>3d</fix>
</trkpt>
<trkpt lat="33.810313" lon="-118.393867">
  <ele>-0.12</ele>
  <time>2026-09-01T01:13:25Z</time>
  <course>0.0</course>
  <speed>0.0</speed>
  <fix>3d</fix>
</trkpt>
<trkpt lat="33.810313" lon="-118.393867">
  <ele>-0.11</ele>
  <time>2026-09-01T01:13:25Z</time>
  <course>188.55</course>
  <speed>0.0</speed>
  <fix>3d</fix>
</trkpt>
<trkpt lat="33.810313" lon="-118.393867">
  <ele>-0.12</ele>
  <time>2026-09-01T01:13:25Z</time>
  <course>0.0</course>
  <speed>0.0</speed>
  <fix>3d</fix>
</trkpt>
<trkpt lat="33.810313" lon="-118.393867">
  <ele>-0.113</ele>
  <time>2026-09-01T01:13:25Z</time>
  <course>188.55</course>
  <speed>0.0</speed>
  <fix>3d</fix>
</trkpt>
<trkpt lat="33.810313" lon="-118.393867">
  <ele>-0.12</ele>
  <time>2026-09-01T01:13:25Z</time>
  <course>0.0</course>
  <speed>0.0</speed>
  <fix>3d</fix>
</trkpt>
<trkpt lat="33.810313" lon="-118.393867">
  <ele>-0.116</ele>
  <time>2026-09-01T01:13:25Z</time>
  <course>188.55</course>
  <speed>0.0</speed>
  <fix>3d</fix>
</trkpt>
<trkpt lat="33.810313" lon="-118.393867">
  <ele>-0.12</ele>
  <time>2026-09-01T01:13:25Z</time>
  <course>0.0</course>
  <speed>0.0</speed>
  <fix>3d</fix>
</trkpt>
<trkpt lat="33.810313" lon="-118.393867">
  <ele>-0.119</ele>
  <time>2026-09-01T01:13:25Z</time>
  <course>188.55</course>
  <speed>0.0</speed>
  <fix>3d</fix>
</trkpt>
<trkpt lat="33.810313" lon="-118.393867">
  <ele>-0.12</ele>
  <time>2026-09-01T01:13:25Z</time>
  <course>0.0</course>
  <speed>0.0</speed>
  <fix>3d</fix>
</trkpt>
<trkpt lat="33.810313" lon="-118.393867">
  <ele>-0.122</ele>
  <time>2026-09-01T01:13:25Z</time>
  <course>188.55</course>
  <speed>0.0</speed>
  <fix>3d</fix>
</trkpt>
<trkpt lat="33.810313" lon="-118.393867">
  <ele>-0.12</ele>
  <time>2026-09-01T01:13:25Z</time>
  <course>0.0</course>
  <speed>0.0</speed>
  <fix>3d</fix>
</trkpt>
<trkpt lat="33.810313" lon="-118.393867">
  <ele>-0.123</ele>
  <time>2026-09-01T01:13:25Z</time>
  <course>188.54</course>
  <speed>0.0</speed>
  <fix>3d</fix>
</trkpt>
<trkpt lat="33.810313" lon="-118.393867">
  <ele>-0.12</ele>
  <time>2026-09-01T01:13:25Z</time>
  <course>0.0</course>
  <speed>0.0</speed>
  <fix>3d</fix>
</trkpt>
<trkpt lat="33.810313" lon="-118.393867">
  <ele>-0.124</ele>
  <time>2026-09-01T01:13:25Z</time>
  <course>188.55</course>
  <speed>0.0</speed>
  <fix>3d</fix>
</trkpt>
<trkpt lat="33.810313" lon="-118.393867">
  <ele>-0.12</ele>
  <time>2026-09-01T01:13:25Z</time>
  <course>0.0</course>
  <speed>0.0</speed>
  <fix>3d</fix>
</trkpt>
<trkpt lat="33.810313" lon="-118.393867">
  <ele>-0.125</ele>
  <time>2026-09-01T01:13:25Z</time>
  <course>188.55</course>
  <speed>0.0</speed>
  <fix>3d</fix>
</trkpt>
<trkpt lat="33.810313" lon="-118.393867">
  <ele>-0.12</ele>
  <time>2026-09-01T01:13:25Z</time>
  <course>0.0</course>
  <speed>0.0</speed>
  <fix>3d</fix>
</trkpt>
<trkpt lat="33.810313" lon="-118.393867">
  <ele>-0.124</ele>
  <time>2026-09-01T01:13:25Z</time>
  <course>188.54</course>
  <speed>0.0</speed>
  <fix>3d</fix>
</trkpt>
<trkpt lat="33.810313" lon="-118.393867">
  <ele>-0.12</ele>
  <time>2026-09-01T01:13:25Z</time>
  <course>0.0</course>
  <speed>0.0</speed>
  <fix>3d</fix>
</trkpt>
<trkpt lat="33.810313" lon="-118.393867">
  <ele>-0.123</ele>
  <time>2026-09-01T01:13:25Z</time>
  <course>188.54</course>
  <speed>0.0</speed>
  <fix>3d</fix>
</trkpt>
<trkpt lat="33.810313" lon="-118.393867">
  <ele>-0.13</ele>
  <time>2026-09-01T01:13:25Z</time>
  <course>0.0</course>
  <speed>0.0</speed>
  <fix>3d</fix>
</trkpt>
<trkpt lat="33.810313" lon="-118.393867">
  <ele>-0.121</ele>
  <time>2026-09-01T01:13:25Z</time>
  <course>188.54</course>
  <speed>0.0</speed>
  <fix>3d</fix>
</trkpt>
<trkpt lat="33.810313" lon="-118.393867">
  <ele>-0.13</ele>
  <time>2026-09-01T01:13:25Z</time>
  <course>0.0</course>
  <speed>0.0</speed>
  <fix>3d</fix>
</trkpt>
<trkpt lat="33.810313" lon="-118.393867">
  <ele>-0.118</ele>
  <time>2026-09-01T01:13:25Z</time>
  <course>188.53</course>
  <speed>0.0</speed>
  <fix>3d</fix>
</trkpt>
<trkpt lat="33.810313" lon="-118.393867">
  <ele>-0.12</ele>
  <time>2026-09-01T01:13:25Z</time>
  <course>0.0</course>
  <speed>0.0</speed>
  <fix>3d</fix>
</trkpt>
<trkpt lat="33.810313" lon="-118.393867">
  <ele>-0.115</ele>
  <time>2026-09-01T01:13:25Z</time>
  <course>188.53</course>
  <speed>0.0</speed>
  <fix>3d</fix>
</trkpt>
<trkpt lat="33.810313" lon="-118.393867">
  <ele>-0.12</ele>
  <time>2026-09-01T01:13:25Z</time>
  <course>0.0</course>
  <speed>0.0</speed>
  <fix>3d</fix>
</trkpt>
<trkpt lat="33.810313" lon="-118.393867">
  <ele>-0.112</ele>
  <time>2026-09-01T01:13:25Z</time>
  <course>188.52</course>
  <speed>0.0</speed>
  <fix>3d</fix>
</trkpt>
<trkpt lat="33.810313" lon="-118.393867">
  <ele>-0.12</ele>
  <time>2026-09-01T01:13:25Z</time>
  <course>0.0</course>
  <speed>0.0</speed>
  <fix>3d</fix>
</trkpt>
<trkpt lat="33.810313" lon="-118.393867">
  <ele>-0.112</ele>
  <time>2026-09-01T01:13:25Z</time>
  <course>188.52</course>
  <speed>0.0</speed>
  <fix>3d</fix>
</trkpt>
<trkpt lat="33.810313" lon="-118.393867">
  <ele>-0.12</ele>
  <time>2026-09-01T01:13:25Z</time>
  <course>0.0</course>
  <speed>0.0</speed>
  <fix>3d</fix>
</trkpt>
<trkpt lat="33.810313" lon="-118.393867">
  <ele>-0.113</ele>
  <time>2026-09-01T01:13:25Z</time>
  <course>188.51</course>
  <speed>0.0</speed>
  <fix>3d</fix>
</trkpt>
<trkpt lat="33.810313" lon="-118.393867">
  <ele>-0.12</ele>
  <time>2026-09-01T01:13:25Z</time>
  <course>0.0</course>
  <speed>0.0</speed>
  <fix>3d</fix>
</trkpt>
<trkpt lat="33.810313" lon="-118.393867">
  <ele>-0.114</ele>
  <time>2026-09-01T01:13:25Z</time>
  <course>188.51</course>
  <speed>0.0</speed>
  <fix>3d</fix>
</trkpt>
<trkpt lat="33.810313" lon="-118.393867">
  <ele>-0.12</ele>
  <time>2026-09-01T01:13:25Z</time>
  <course>0.0</course>
  <speed>0.0</speed>
  <fix>3d</fix>
</trkpt>
<trkpt lat="33.810313" lon="-118.393867">
  <ele>-0.114</ele>
  <time>2026-09-01T01:13:25Z</time>
  <course>188.5</course>
  <speed>0.0</speed>
  <fix>3d</fix>
</trkpt>
<trkpt lat="33.810313" lon="-118.393867">
  <ele>-0.12</ele>
  <time>2026-09-01T01:13:25Z</time>
  <course>0.0</course>
  <speed>0.0</speed>
  <fix>3d</fix>
</trkpt>
<trkpt lat="33.810313" lon="-118.393867">
  <ele>-0.114</ele>
  <time>2026-09-01T01:13:25Z</time>
  <course>188.5</course>
  <speed>0.0</speed>
  <fix>3d</fix>
</trkpt>
<trkpt lat="33.810313" lon="-118.393867">
  <ele>-0.12</ele>
  <time>2026-09-01T01:13:25Z</time>
  <course>0.0</course>
  <speed>0.0</speed>
  <fix>3d</fix>
</trkpt>
<trkpt lat="33.810313" lon="-118.393867">
  <ele>-0.114</ele>
  <time>2026-09-01T01:13:25Z</time>
  <course>188.49</course>
  <speed>0.0</speed>
  <fix>3d</fix>
</trkpt>
<trkpt lat="33.810313" lon="-118.393867">
  <ele>-0.12</ele>
  <time>2026-09-01T01:13:25Z</time>
  <course>0.0</course>
  <speed>0.0</speed>
  <fix>3d</fix>
</trkpt>
<trkpt lat="33.810313" lon="-118.393867">
  <ele>-0.113</ele>
  <time>2026-09-01T01:13:25Z</time>
  <course>188.48</course>
  <speed>0.0</speed>
  <fix>3d</fix>
</trkpt>
<trkpt lat="33.810313" lon="-118.393867">
  <ele>-0.12</ele>
  <time>2026-09-01T01:13:25Z</time>
  <course>0.0</course>
  <speed>0.0</speed>
  <fix>3d</fix>
</trkpt>
<trkpt lat="33.810313" lon="-118.393867">
  <ele>-0.112</ele>
  <time>2026-09-01T01:13:25Z</time>
  <course>188.48</course>
  <speed>0.01</speed>
  <fix>3d</fix>
</trkpt>
<trkpt lat="33.810313" lon="-118.393867">
  <ele>-0.12</ele>
  <time>2026-09-01T01:13:25Z</time>
  <course>0.0</course>
  <speed>0.0</speed>
  <fix>3d</fix>
</trkpt>
<trkpt lat="33.810313" lon="-118.393867">
  <ele>-0.111</ele>
  <time>2026-09-01T01:13:25Z</time>
  <course>188.47</course>
  <speed>0.01</speed>
  <fix>3d</fix>
</trkpt>
<trkpt lat="33.810313" lon="-118.393867">
  <ele>-0.12</ele>
  <time>2026-09-01T01:13:25Z</time>
  <course>0.0</course>
  <speed>0.0</speed>
  <fix>3d</fix>
</trkpt>
<trkpt lat="33.810313" lon="-118.393867">
  <ele>-0.11</ele>
  <time>2026-09-01T01:13:25Z</time>
  <course>188.46</course>
  <speed>0.01</speed>
  <fix>3d</fix>
</trkpt>
<trkpt lat="33.810313" lon="-118.393867">
  <ele>-0.12</ele>
  <time>2026-09-01T01:13:25Z</time>
  <course>0.0</course>
  <speed>0.0</speed>
  <fix>3d</fix>
</trkpt>
<trkpt lat="33.810313" lon="-118.393867">
  <ele>-0.107</ele>
  <time>2026-09-01T01:13:25Z</time>
  <course>188.46</course>
  <speed>0.01</speed>
  <fix>3d</fix>
</trkpt>
<trkpt lat="33.810313" lon="-118.393867">
  <ele>-0.12</ele>
  <time>2026-09-01T01:13:25Z</time>
  <course>0.0</course>
  <speed>0.0</speed>
  <fix>3d</fix>
</trkpt>
<trkpt lat="33.810313" lon="-118.393867">
  <ele>-0.105</ele>
  <time>2026-09-01T01:13:25Z</time>
  <course>188.45</course>
  <speed>0.01414213562373095</speed>
  <fix>3d</fix>
</trkpt>
<trkpt lat="33.810313" lon="-118.393867">
  <ele>-0.12</ele>
  <time>2026-09-01T01:13:25Z</time>
  <course>0.0</course>
  <speed>0.0</speed>
  <fix>3d</fix>
</trkpt>
<trkpt lat="33.810313" lon="-118.393867">
  <ele>-0.103</ele>
  <time>2026-09-01T01:13:25Z</time>
  <course>188.44</course>
  <speed>0.01414213562373095</speed>
  <fix>3d</fix>
</trkpt>
<trkpt lat="33.810313" lon="-118.393867">
  <ele>-0.12</ele>
  <time>2026-09-01T01:13:25Z</time>
  <course>0.0</course>
  <speed>0.0</speed>
  <fix>3d</fix>
</trkpt>
<trkpt lat="33.810313" lon="-118.393867">
  <ele>-0.103</ele>
  <time>2026-09-01T01:13:25Z</time>
  <course>188.44</course>
  <speed>0.01414213562373095</speed>
  <fix>3d</fix>
</trkpt>
<trkpt lat="33.810313" lon="-118.393867">
  <ele>-0.12</ele>
  <time>2026-09-01T01:13:25Z</time>
  <course>0.0</course>
  <speed>0.0</speed>
  <fix>3d</fix>
</trkpt>
<trkpt lat="33.810313" lon="-118.393867">
  <ele>-0.104</ele>
  <time>2026-09-01T01:13:25Z</time>
  <course>188.43</course>
  <speed>0.01414213562373095</speed>
  <fix>3d</fix>
</trkpt>
<trkpt lat="33.810313" lon="-118.393867">
  <ele>-0.12</ele>
  <time>2026-09-01T01:13:25Z</time>
  <course>0.0</course>
  <speed>0.0</speed>
  <fix>3d</fix>
</trkpt>
<trkpt lat="33.810313" lon="-118.393867">
  <ele>-0.108</ele>
  <time>2026-09-01T01:13:25Z</time>
  <course>188.42</course>
  <speed>0.01414213562373095</speed>
  <fix>3d</fix>
</trkpt>
<trkpt lat="33.810313" lon="-118.393867">
  <ele>-0.12</ele>
  <time>2026-09-01T01:13:25Z</time>
  <course>0.0</course>
  <speed>0.0</speed>
  <fix>3d</fix>
</trkpt>
<trkpt lat="33.810313" lon="-118.393867">
  <ele>-0.112</ele>
  <time>2026-09-01T01:13:25Z</time>
  <course>188.42</course>
  <speed>0.01414213562373095</speed>
  <fix>3d</fix>
</trkpt>
<trkpt lat="33.810313" lon="-118.393867">
  <ele>-0.12</ele>
  <time>2026-09-01T01:13:25Z</time>
  <course>0.0</course>
  <speed>0.0</speed>
  <fix>3d</fix>
</trkpt>
<trkpt lat="33.810313" lon="-118.393867">
  <ele>-0.117</ele>
  <time>2026-09-01T01:13:25Z</time>
  <course>188.41</course>
  <speed>0.01414213562373095</speed>
  <fix>3d</fix>
</trkpt>
<trkpt lat="33.810313" lon="-118.393867">
  <ele>-0.12</ele>
  <time>2026-09-01T01:13:25Z</time>
  <course>0.0</course>
  <speed>0.0</speed>
  <fix>3d</fix>
</trkpt>
<trkpt lat="33.810313" lon="-118.393867">
  <ele>-0.119</ele>
  <time>2026-09-01T01:13:25Z</time>
  <course>188.4</course>
  <speed>0.01414213562373095</speed>
  <fix>3d</fix>
</trkpt>
<trkpt lat="33.810313" lon="-118.393867">
  <ele>-0.12</ele>
  <time>2026-09-01T01:13:25Z</time>
  <course>0.0</course>
  <speed>0.0</speed>
  <fix>3d</fix>
</trkpt>
<trkpt lat="33.810313" lon="-118.393867">
  <ele>-0.12</ele>
  <time>2026-09-01T01:13:25Z</time>
  <course>188.4</course>
  <speed>0.01414213562373095</speed>
  <fix>3d</fix>
</trkpt>
<trkpt lat="33.810313" lon="-118.393867">
  <ele>-0.12</ele>
  <time>2026-09-01T01:13:25Z</time>
  <course>0.0</course>
  <speed>0.0</speed>
  <fix>3d</fix>
</trkpt>
<trkpt lat="33.810313" lon="-118.393867">
  <ele>-0.12</ele>
  <time>2026-09-01T01:13:25Z</time>
  <course>188.39</course>
  <speed>0.01414213562373095</speed>
  <fix>3d</fix>
</trkpt>
<trkpt lat="33.810313" lon="-118.393867">
  <ele>-0.12</ele>
  <time>2026-09-01T01:13:25Z</time>
  <course>0.0</course>
  <speed>0.0</speed>
  <fix>3d</fix>
</trkpt>
<trkpt lat="33.810313" lon="-118.393867">
  <ele>-0.119</ele>
  <time>2026-09-01T01:13:25Z</time>
  <course>188.38</course>
  <speed>0.01414213562373095</speed>
  <fix>3d</fix>
</trkpt>
<trkpt lat="33.810313" lon="-118.393867">
  <ele>-0.12</ele>
  <time>2026-09-01T01:13:25Z</time>
  <course>0.0</course>
  <speed>0.0</speed>
  <fix>3d</fix>
</trkpt>
<trkpt lat="33.810313" lon="-118.393867">
  <ele>-0.118</ele>
  <time>2026-09-01T01:13:25Z</time>
  <course>188.37</course>
  <speed>0.01414213562373095</speed>
  <fix>3d</fix>
</trkpt>
<trkpt lat="33.810313" lon="-118.393867">
  <ele>-0.12</ele>
  <time>2026-09-01T01:13:25Z</time>
  <course>0.0</course>
  <speed>0.0</speed>
  <fix>3d</fix>
</trkpt>
<trkpt lat="33.810313" lon="-118.393867">
  <ele>-0.116</ele>
  <time>2026-09-01T01:13:25Z</time>
  <course>188.37</course>
  <speed>0.01414213562373095</speed>
  <fix>3d</fix>
</trkpt>
<trkpt lat="33.810313" lon="-118.393867">
  <ele>-0.12</ele>
  <time>2026-09-01T01:13:25Z</time>
  <course>0.0</course>
  <speed>0.0</speed>
  <fix>3d</fix>
</trkpt>
<trkpt lat="33.810313" lon="-118.393867">
  <ele>-0.114</ele>
  <time>2026-09-01T01:13:25Z</time>
  <course>188.36</course>
  <speed>0.01414213562373095</speed>
  <fix>3d</fix>
</trkpt>
<trkpt lat="33.810313" lon="-118.393867">
  <ele>-0.12</ele>
  <time>2026-09-01T01:13:25Z</time>
  <course>0.0</course>
  <speed>0.0</speed>
  <fix>3d</fix>
</trkpt>
<trkpt lat="33.810313" lon="-118.393867">
  <ele>-0.113</ele>
  <time>2026-09-01T01:13:25Z</time>
  <course>188.35</course>
  <speed>0.01414213562373095</speed>
  <fix>3d</fix>
</trkpt>
<trkpt lat="33.810313" lon="-118.393867">
  <ele>-0.12</ele>
  <time>2026-09-01T01:13:25Z</time>
  <course>0.0</course>
  <speed>0.0</speed>
  <fix>3d</fix>
</trkpt>
<trkpt lat="33.810313" lon="-118.393867">
  <ele>-0.113</ele>
  <time>2026-09-01T01:13:25Z</time>
  <course>188.34</course>
  <speed>0.01414213562373095</speed>
  <fix>3d</fix>
</trkpt>
<trkpt lat="33.810313" lon="-118.393867">
  <ele>-0.12</ele>
  <time>2026-09-01T01:13:25Z</time>
  <course>0.0</course>
  <speed>0.0</speed>
  <fix>3d</fix>
</trkpt>
<trkpt lat="33.810313" lon="-118.393867">
  <ele>-0.115</ele>
  <time>2026-09-01T01:13:25Z</time>
  <course>188.33</course>
  <speed>0.01414213562373095</speed>
  <fix>3d</fix>
</trkpt>
<trkpt lat="33.810313" lon="-118.393867">
  <ele>-0.12</ele>
  <time>2026-09-01T01:13:25Z</time>
  <course>0.0</course>
  <speed>0.0</speed>
  <fix>3d</fix>
</trkpt>
<trkpt lat="33.810313" lon="-118.393867">
  <ele>-0.118</ele>
  <time>2026-09-01T01:13:25Z</time>
  <course>188.33</course>
  <speed>0.01414213562373095</speed>
  <fix>3d</fix>
</trkpt>
<trkpt lat="33.810313" lon="-118.393867">
  <ele>-0.12</ele>
  <time>2026-09-01T01:13:25Z</time>
  <course>0.0</course>
  <speed>0.0</speed>
  <fix>3d</fix>
</trkpt>
<trkpt lat="33.810313" lon="-118.393867">
  <ele>-0.121</ele>
  <time>2026-09-01T01:13:25Z</time>
  <course>188.32</course>
  <speed>0.01414213562373095</speed>
  <fix>3d</fix>
</trkpt>
<trkpt lat="33.810313" lon="-118.393867">
  <ele>-0.12</ele>
  <time>2026-09-01T01:13:25Z</time>
  <course>0.0</course>
  <speed>0.0</speed>
  <fix>3d</fix>
</trkpt>
<trkpt lat="33.810313" lon="-118.393867">
  <ele>-0.122</ele>
  <time>2026-09-01T01:13:25Z</time>
  <course>188.31</course>
  <speed>0.01414213562373095</speed>
  <fix>3d</fix>
</trkpt>
<trkpt lat="33.810313" lon="-118.393867">
  <ele>-0.12</ele>
  <time>2026-09-01T01:13:25Z</time>
  <course>0.0</course>
  <speed>0.0</speed>
  <fix>3d</fix>
</trkpt>
<trkpt lat="33.810313" lon="-118.393867">
  <ele>-0.123</ele>
  <time>2026-09-01T01:13:25Z</time>
  <course>188.3</course>
  <speed>0.01414213562373095</speed>
  <fix>3d</fix>
</trkpt>
<trkpt lat="33.810313" lon="-118.393867">
  <ele>-0.12</ele>
  <time>2026-09-01T01:13:25Z</time>
  <course>0.0</course>
  <speed>0.0</speed>
  <fix>3d</fix>
</trkpt>
<trkpt lat="33.810313" lon="-118.393867">
  <ele>-0.123</ele>
  <time>2026-09-01T01:13:25Z</time>
  <course>188.29</course>
  <speed>0.01414213562373095</speed>
  <fix>3d</fix>
</trkpt>
<trkpt lat="33.810313" lon="-118.393867">
  <ele>-0.12</ele>
  <time>2026-09-01T01:13:25Z</time>
  <course>0.0</course>
  <speed>0.0</speed>
  <fix>3d</fix>
</trkpt>
<trkpt lat="33.810313" lon="-118.393867">
  <ele>-0.123</ele>
  <time>2026-09-01T01:13:25Z</time>
  <course>188.29</course>
  <speed>0.01414213562373095</speed>
  <fix>3d</fix>
</trkpt>
<trkpt lat="33.810313" lon="-118.393867">
  <ele>-0.12</ele>
  <time>2026-09-01T01:13:25Z</time>
  <course>0.0</course>
  <speed>0.0</speed>
  <fix>3d</fix>
</trkpt>
<trkpt lat="33.810313" lon="-118.393867">
  <ele>-0.122</ele>
  <time>2026-09-01T01:13:25Z</time>
  <course>188.28</course>
  <speed>0.01414213562373095</speed>
  <fix>3d</fix>
</trkpt>
<trkpt lat="33.810313" lon="-118.393867">
  <ele>-0.12</ele>
  <time>2026-09-01T01:13:25Z</time>
  <course>0.0</course>
  <speed>0.0</speed>
  <fix>3d</fix>
</trkpt>
<trkpt lat="33.810313" lon="-118.393867">
  <ele>-0.121</ele>
  <time>2026-09-01T01:13:25Z</time>
  <course>188.27</course>
  <speed>0.01414213562373095</speed>
  <fix>3d</fix>
</trkpt>
<trkpt lat="33.810313" lon="-118.393867">
  <ele>-0.12</ele>
  <time>2026-09-01T01:13:25Z</time>
  <course>0.0</course>
  <speed>0.0</speed>
  <fix>3d</fix>
</trkpt>
<trkpt lat="33.810313" lon="-118.393867">
  <ele>-0.119</ele>
  <time>2026-09-01T01:13:25Z</time>
  <course>188.26</course>
  <speed>0.01414213562373095</speed>
  <fix>3d</fix>
</trkpt>
<trkpt lat="33.810313" lon="-118.393867">
  <ele>-0.12</ele>
  <time>2026-09-01T01:13:25Z</time>
  <course>0.0</course>
  <speed>0.0</speed>
  <fix>3d</fix>
</trkpt>
<trkpt lat="33.810313" lon="-118.393867">
  <ele>-0.118</ele>
  <time>2026-09-01T01:13:25Z</time>
  <course>188.25</course>
  <speed>0.01414213562373095</speed>
  <fix>3d</fix>
</trkpt>
<trkpt lat="33.810313" lon="-118.393867">
  <ele>-0.12</ele>
  <time>2026-09-01T01:13:25Z</time>
  <course>0.0</course>
  <speed>0.0</speed>
  <fix>3d</fix>
</trkpt>
<trkpt lat="33.810313" lon="-118.393867">
  <ele>-0.117</ele>
  <time>2026-09-01T01:13:25Z</time>
  <course>188.25</course>
  <speed>0.01414213562373095</speed>
  <fix>3d</fix>
</trkpt>
<trkpt lat="33.810313" lon="-118.393867">
  <ele>-0.12</ele>
  <time>2026-09-01T01:13:25Z</time>
  <course>0.0</course>
  <speed>0.0</speed>
  <fix>3d</fix>
</trkpt>
<trkpt lat="33.810313" lon="-118.393867">
  <ele>-0.117</ele>
  <time>2026-09-01T01:13:25Z</time>
  <course>188.24</course>
  <speed>0.01414213562373095</speed>
  <fix>3d</fix>
</trkpt>
<trkpt lat="33.810313" lon="-118.393867">
  <ele>-0.12</ele>
  <time>2026-09-01T01:13:25Z</time>
  <course>0.0</course>
  <speed>0.0</speed>
  <fix>3d</fix>
</trkpt>
<trkpt lat="33.810313" lon="-118.393867">
  <ele>-0.118</ele>
  <time>2026-09-01T01:13:25Z</time>
  <course>188.23</course>
  <speed>0.01414213562373095</speed>
  <fix>3d</fix>
</trkpt>
<trkpt lat="33.810313" lon="-118.393867">
  <ele>-0.12</ele>
  <time>2026-09-01T01:13:25Z</time>
  <course>0.0</course>
  <speed>0.0</speed>
  <fix>3d</fix>
</trkpt>
<trkpt lat="33.810313" lon="-118.393867">
  <ele>-0.119</ele>
  <time>2026-09-01T01:13:25Z</time>
  <course>188.22</course>
  <speed>0.01414213562373095</speed>
  <fix>3d</fix>
</trkpt>
<trkpt lat="33.810313" lon="-118.393867">
  <ele>-0.12</ele>
  <time>2026-09-01T01:13:25Z</time>
  <course>0.0</course>
  <speed>0.0</speed>
  <fix>3d</fix>
</trkpt>
<trkpt lat="33.810313" lon="-118.393867">
  <ele>-0.119</ele>
  <time>2026-09-01T01:13:25Z</time>
  <course>188.21</course>
  <speed>0.01414213562373095</speed>
  <fix>3d</fix>
</trkpt>
<trkpt lat="33.810313" lon="-118.393867">
  <ele>-0.12</ele>
  <time>2026-09-01T01:13:25Z</time>
  <course>0.0</course>
  <speed>0.0</speed>
  <fix>3d</fix>
</trkpt>
<trkpt lat="33.810313" lon="-118.393867">
  <ele>-0.118</ele>
  <time>2026-09-01T01:13:25Z</time>
  <course>188.2</course>
  <speed>0.01414213562373095</speed>
  <fix>3d</fix>
</trkpt>
<trkpt lat="33.810313" lon="-118.393867">
  <ele>-0.12</ele>
  <time>2026-09-01T01:13:25Z</time>
  <course>0.0</course>
  <speed>0.0</speed>
  <fix>3d</fix>
</trkpt>
<trkpt lat="33.810313" lon="-118.393867">
  <ele>-0.117</ele>
  <time>2026-09-01T01:13:25Z</time>
  <course>188.2</course>
  <speed>0.01414213562373095</speed>
  <fix>3d</fix>
</trkpt>
<trkpt lat="33.810313" lon="-118.393867">
  <ele>-0.12</ele>
  <time>2026-09-01T01:13:25Z</time>
  <course>0.0</course>
  <speed>0.0</speed>
  <fix>3d</fix>
</trkpt>
<trkpt lat="33.810313" lon="-118.393867">
  <ele>-0.115</ele>
  <time>2026-09-01T01:13:25Z</time>
  <course>188.19</course>
  <speed>0.01414213562373095</speed>
  <fix>3d</fix>
</trkpt>
<trkpt lat="33.810313" lon="-118.393867">
  <ele>-0.12</ele>
  <time>2026-09-01T01:13:25Z</time>
  <course>0.0</course>
  <speed>0.0</speed>
  <fix>3d</fix>
</trkpt>
<trkpt lat="33.810313" lon="-118.393867">
  <ele>-0.114</ele>
  <time>2026-09-01T01:13:25Z</time>
  <course>188.18</course>
  <speed>0.01414213562373095</speed>
  <fix>3d</fix>
</trkpt>
<trkpt lat="33.810313" lon="-118.393867">
  <ele>-0.12</ele>
  <time>2026-09-01T01:13:25Z</time>
  <course>0.0</course>
  <speed>0.0</speed>
  <fix>3d</fix>
</trkpt>
<trkpt lat="33.810313" lon="-118.393867">
  <ele>-0.113</ele>
  <time>2026-09-01T01:13:25Z</time>
  <course>188.17</course>
  <speed>0.01414213562373095</speed>
  <fix>3d</fix>
</trkpt>
<trkpt lat="33.810313" lon="-118.393867">
  <ele>-0.12</ele>
  <time>2026-09-01T01:13:25Z</time>
  <course>0.0</course>
  <speed>0.0</speed>
  <fix>3d</fix>
</trkpt>
<trkpt lat="33.810313" lon="-118.393867">
  <ele>-0.111</ele>
  <time>2026-09-01T01:13:25Z</time>
  <course>188.16</course>
  <speed>0.01414213562373095</speed>
  <fix>3d</fix>
</trkpt>
<trkpt lat="33.810313" lon="-118.393867">
  <ele>-0.12</ele>
  <time>2026-09-01T01:13:25Z</time>
  <course>0.0</course>
  <speed>0.0</speed>
  <fix>3d</fix>
</trkpt>
<trkpt lat="33.810313" lon="-118.393867">
  <ele>-0.109</ele>
  <time>2026-09-01T01:13:25Z</time>
  <course>188.16</course>
  <speed>0.01414213562373095</speed>
  <fix>3d</fix>
</trkpt>
<trkpt lat="33.810313" lon="-118.393867">
  <ele>-0.12</ele>
  <time>2026-09-01T01:13:25Z</time>
  <course>0.0</course>
  <speed>0.0</speed>
  <fix>3d</fix>
</trkpt>
<trkpt lat="33.810313" lon="-118.393867">
  <ele>-0.108</ele>
  <time>2026-09-01T01:13:25Z</time>
  <course>188.15</course>
  <speed>0.01414213562373095</speed>
  <fix>3d</fix>
</trkpt>
<trkpt lat="33.810313" lon="-118.393867">
  <ele>-0.12</ele>
  <time>2026-09-01T01:13:25Z</time>
  <course>0.0</course>
  <speed>0.0</speed>
  <fix>3d</fix>
</trkpt>
<trkpt lat="33.810313" lon="-118.393867">
  <ele>-0.109</ele>
  <time>2026-09-01T01:13:25Z</time>
  <course>188.14</course>
  <speed>0.01414213562373095</speed>
  <fix>3d</fix>
</trkpt>
<trkpt lat="33.810313" lon="-118.393867">
  <ele>-0.12</ele>
  <time>2026-09-01T01:13:25Z</time>
  <course>0.0</course>
  <speed>0.0</speed>
  <fix>3d</fix>
</trkpt>
<trkpt lat="33.810313" lon="-118.393867">
  <ele>-0.11</ele>
  <time>2026-09-01T01:13:25Z</time>
  <course>188.13</course>
  <speed>0.01414213562373095</speed>
  <fix>3d</fix>
</trkpt>
<trkpt lat="33.810313" lon="-118.393867">
  <ele>-0.12</ele>
  <time>2026-09-01T01:13:25Z</time>
  <course>0.0</course>
  <speed>0.0</speed>
  <fix>3d</fix>
</trkpt>
<trkpt lat="33.810313" lon="-118.393867">
  <ele>-0.113</ele>
  <time>2026-09-01T01:13:25Z</time>
  <course>188.12</course>
  <speed>0.01414213562373095</speed>
  <fix>3d</fix>
</trkpt>
<trkpt lat="33.810313" lon="-118.393867">
  <ele>-0.12</ele>
  <time>2026-09-01T01:13:25Z</time>
  <course>0.0</course>
  <speed>0.0</speed>
  <fix>3d</fix>
</trkpt>
<trkpt lat="33.810313" lon="-118.393867">
  <ele>-0.115</ele>
  <time>2026-09-01T01:13:25Z</time>
  <course>188.12</course>
  <speed>0.01414213562373095</speed>
  <fix>3d</fix>
</trkpt>
<trkpt lat="33.810313" lon="-118.393867">
  <ele>-0.12</ele>
  <time>2026-09-01T01:13:25Z</time>
  <course>0.0</course>
  <speed>0.0</speed>
  <fix>3d</fix>
</trkpt>
<trkpt lat="33.810313" lon="-118.393867">
  <ele>-0.116</ele>
  <time>2026-09-01T01:13:25Z</time>
  <course>188.11</course>
  <speed>0.01414213562373095</speed>
  <fix>3d</fix>
</trkpt>
<trkpt lat="33.810313" lon="-118.393867">
  <ele>-0.12</ele>
  <time>2026-09-01T01:13:25Z</time>
  <course>0.0</course>
  <speed>0.0</speed>
  <fix>3d</fix>
</trkpt>
<trkpt lat="33.810313" lon="-118.393867">
  <ele>-0.116</ele>
  <time>2026-09-01T01:13:25Z</time>
  <course>188.1</course>
  <speed>0.01414213562373095</speed>
  <fix>3d</fix>
</trkpt>
<trkpt lat="33.810313" lon="-118.393867">
  <ele>-0.12</ele>
  <time>2026-09-01T01:13:25Z</time>
  <course>0.0</course>
  <speed>0.0</speed>
  <fix>3d</fix>
</trkpt>
<trkpt lat="33.810313" lon="-118.393867">
  <ele>-0.116</ele>
  <time>2026-09-01T01:13:25Z</time>
  <course>188.09</course>
  <speed>0.01414213562373095</speed>
  <fix>3d</fix>
</trkpt>
<trkpt lat="33.810313" lon="-118.393867">
  <ele>-0.12</ele>
  <time>2026-09-01T01:13:25Z</time>
  <course>0.0</course>
  <speed>0.0</speed>
  <fix>3d</fix>
</trkpt>
<trkpt lat="33.810313" lon="-118.393867">
  <ele>-0.115</ele>
  <time>2026-09-01T01:13:25Z</time>
  <course>188.08</course>
  <speed>0.01414213562373095</speed>
  <fix>3d</fix>
</trkpt>
<trkpt lat="33.810313" lon="-118.393867">
  <ele>-0.12</ele>
  <time>2026-09-01T01:13:25Z</time>
  <course>0.0</course>
  <speed>0.0</speed>
  <fix>3d</fix>
</trkpt>
<trkpt lat="33.810313" lon="-118.393867">
  <ele>-0.115</ele>
  <time>2026-09-01T01:13:25Z</time>
  <course>188.07</course>
  <speed>0.01414213562373095</speed>
  <fix>3d</fix>
</trkpt>
<trkpt lat="33.810313" lon="-118.393867">
  <ele>-0.12</ele>
  <time>2026-09-01T01:13:25Z</time>
  <course>0.0</course>
  <speed>0.0</speed>
  <fix>3d</fix>
</trkpt>
<trkpt lat="33.810313" lon="-118.393867">
  <ele>-0.114</ele>
  <time>2026-09-01T01:13:25Z</time>
  <course>188.07</course>
  <speed>0.01414213562373095</speed>
  <fix>3d</fix>
</trkpt>
<trkpt lat="33.810313" lon="-118.393867">
  <ele>-0.12</ele>
  <time>2026-09-01T01:13:25Z</time>
  <course>0.0</course>
  <speed>0.0</speed>
  <fix>3d</fix>
</trkpt>
<trkpt lat="33.810313" lon="-118.393867">
  <ele>-0.112</ele>
  <time>2026-09-01T01:13:25Z</time>
  <course>188.06</course>
  <speed>0.01414213562373095</speed>
  <fix>3d</fix>
</trkpt>
<trkpt lat="33.810313" lon="-118.393867">
  <ele>-0.12</ele>
  <time>2026-09-01T01:13:25Z</time>
  <course>0.0</course>
  <speed>0.0</speed>
  <fix>3d</fix>
</trkpt>
<trkpt lat="33.810313" lon="-118.393867">
  <ele>-0.11</ele>
  <time>2026-09-01T01:13:25Z</time>
  <course>188.05</course>
  <speed>0.01414213562373095</speed>
  <fix>3d</fix>
</trkpt>
<trkpt lat="33.810313" lon="-118.393867">
  <ele>-0.12</ele>
  <time>2026-09-01T01:13:25Z</time>
  <course>0.0</course>
  <speed>0.0</speed>
  <fix>3d</fix>
</trkpt>
<trkpt lat="33.810313" lon="-118.393867">
  <ele>-0.109</ele>
  <time>2026-09-01T01:13:25Z</time>
  <course>188.04</course>
  <speed>0.01414213562373095</speed>
  <fix>3d</fix>
</trkpt>
<trkpt lat="33.810313" lon="-118.393867">
  <ele>-0.12</ele>
  <time>2026-09-01T01:13:25Z</time>
  <course>0.0</course>
  <speed>0.0</speed>
  <fix>3d</fix>
</trkpt>
<trkpt lat="33.810313" lon="-118.393867">
  <ele>-0.11</ele>
  <time>2026-09-01T01:13:25Z</time>
  <course>188.03</course>
  <speed>0.01414213562373095</speed>
  <fix>3d</fix>
</trkpt>
<trkpt lat="33.810313" lon="-118.393867">
  <ele>-0.12</ele>
  <time>2026-09-01T01:13:25Z</time>
  <course>0.0</course>
  <speed>0.0</speed>
  <fix>3d</fix>
</trkpt>
<trkpt lat="33.810313" lon="-118.393867">
  <ele>-0.112</ele>
  <time>2026-09-01T01:13:25Z</time>
  <course>188.03</course>
  <speed>0.022360679774997897</speed>
  <fix>3d</fix>
</trkpt>
<trkpt lat="33.810313" lon="-118.393867">
  <ele>-0.12</ele>
  <time>2026-09-01T01:13:25Z</time>
  <course>0.0</course>
  <speed>0.0</speed>
  <fix>3d</fix>
</trkpt>
<trkpt lat="33.810313" lon="-118.393867">
  <ele>-0.115</ele>
  <time>2026-09-01T01:13:25Z</time>
  <course>188.02</course>
  <speed>0.022360679774997897</speed>
  <fix>3d</fix>
</trkpt>
<trkpt lat="33.810313" lon="-118.393867">
  <ele>-0.12</ele>
  <time>2026-09-01T01:13:25Z</time>
  <course>0.0</course>
  <speed>0.0</speed>
  <fix>3d</fix>
</trkpt>
<trkpt lat="33.810313" lon="-118.393867">
  <ele>-0.118</ele>
  <time>2026-09-01T01:13:25Z</time>
  <course>188.01</course>
  <speed>0.022360679774997897</speed>
  <fix>3d</fix>
</trkpt>
<trkpt lat="33.810313" lon="-118.393867">
  <ele>-0.12</ele>
  <time>2026-09-01T01:13:25Z</time>
  <course>0.0</course>
  <speed>0.0</speed>
  <fix>3d</fix>
</trkpt>
<trkpt lat="33.810313" lon="-118.393867">
  <ele>-0.12</ele>
  <time>2026-09-01T01:13:25Z</time>
  <course>188.0</course>
  <speed>0.022360679774997897</speed>
  <fix>3d</fix>
</trkpt>
<trkpt lat="33.810313" lon="-118.393867">
  <ele>-0.12</ele>
  <time>2026-09-01T01:13:25Z</time>
  <course>0.0</course>
  <speed>0.0</speed>
  <fix>3d</fix>
</trkpt>
<trkpt lat="33.810313" lon="-118.393867">
  <ele>-0.123</ele>
  <time>2026-09-01T01:13:25Z</time>
  <course>187.99</course>
  <speed>0.022360679774997897</speed>
  <fix>3d</fix>
</trkpt>
<trkpt lat="33.810313" lon="-118.393867">
  <ele>-0.12</ele>
  <time>2026-09-01T01:13:25Z</time>
  <course>0.0</course>
  <speed>0.0</speed>
  <fix>3d</fix>
</trkpt>
<trkpt lat="33.810313" lon="-118.393867">
  <ele>-0.124</ele>
  <time>2026-09-01T01:13:25Z</time>
  <course>187.98</course>
  <speed>0.022360679774997897</speed>
  <fix>3d</fix>
</trkpt>
<trkpt lat="33.810313" lon="-118.393867">
  <ele>-0.12</ele>
  <time>2026-09-01T01:13:25Z</time>
  <course>0.0</course>
  <speed>0.0</speed>
  <fix>3d</fix>
</trkpt>
<trkpt lat="33.810313" lon="-118.393867">
  <ele>-0.122</ele>
  <time>2026-09-01T01:13:25Z</time>
  <course>187.98</course>
  <speed>0.022360679774997897</speed>
  <fix>3d</fix>
</trkpt>
<trkpt lat="33.810313" lon="-118.393867">
  <ele>-0.12</ele>
  <time>2026-09-01T01:13:25Z</time>
  <course>0.0</course>
  <speed>0.0</speed>
  <fix>3d</fix>
</trkpt>
<trkpt lat="33.810313" lon="-118.393867">
  <ele>-0.119</ele>
  <time>2026-09-01T01:13:25Z</time>
  <course>187.97</course>
  <speed>0.022360679774997897</speed>
  <fix>3d</fix>
</trkpt>
<trkpt lat="33.810313" lon="-118.393867">
  <ele>-0.12</ele>
  <time>2026-09-01T01:13:25Z</time>
  <course>0.0</course>
  <speed>0.0</speed>
  <fix>3d</fix>
</trkpt>
<trkpt lat="33.810313" lon="-118.393867">
  <ele>-0.116</ele>
  <time>2026-09-01T01:13:25Z</time>
  <course>187.96</course>
  <speed>0.022360679774997897</speed>
  <fix>3d</fix>
</trkpt>
<trkpt lat="33.810313" lon="-118.393867">
  <ele>-0.12</ele>
  <time>2026-09-01T01:13:25Z</time>
  <course>0.0</course>
  <speed>0.0</speed>
  <fix>3d</fix>
</trkpt>
<trkpt lat="33.810313" lon="-118.393867">
  <ele>-0.115</ele>
  <time>2026-09-01T01:13:25Z</time>
  <course>187.95</course>
  <speed>0.022360679774997897</speed>
  <fix>3d</fix>
</trkpt>
<trkpt lat="33.810313" lon="-118.393867">
  <ele>-0.12</ele>
  <time>2026-09-01T01:13:25Z</time>
  <course>0.0</course>
  <speed>0.0</speed>
  <fix>3d</fix>
</trkpt>
<trkpt lat="33.810313" lon="-118.393867">
  <ele>-0.116</ele>
  <time>2026-09-01T01:13:25Z</time>
  <course>187.94</course>
  <speed>0.022360679774997897</speed>
  <fix>3d</fix>
</trkpt>
<trkpt lat="33.810313" lon="-118.393867">
  <ele>-0.12</ele>
  <time>2026-09-01T01:13:25Z</time>
  <course>0.0</course>
  <speed>0.0</speed>
  <fix>3d</fix>
</trkpt>
<trkpt lat="33.810313" lon="-118.393867">
  <ele>-0.118</ele>
  <time>2026-09-01T01:13:25Z</time>
  <course>187.94</course>
  <speed>0.022360679774997897</speed>
  <fix>3d</fix>
</trkpt>
<trkpt lat="33.810313" lon="-118.393867">
  <ele>-0.12</ele>
  <time>2026-09-01T01:13:25Z</time>
  <course>0.0</course>
  <speed>0.0</speed>
  <fix>3d</fix>
</trkpt>
<trkpt lat="33.810313" lon="-118.393867">
  <ele>-0.12</ele>
  <time>2026-09-01T01:13:25Z</time>
  <course>187.93</course>
  <speed>0.022360679774997897</speed>
  <fix>3d</fix>
</trkpt>
<trkpt lat="33.810313" lon="-118.393867">
  <ele>-0.12</ele>
  <time>2026-09-01T01:13:25Z</time>
  <course>0.0</course>
  <speed>0.0</speed>
  <fix>3d</fix>
</trkpt>
<trkpt lat="33.810313" lon="-118.393867">
  <ele>-0.12</ele>
  <time>2026-09-01T01:13:25Z</time>
  <course>187.92</course>
  <speed>0.022360679774997897</speed>
  <fix>3d</fix>
</trkpt>
<trkpt lat="33.810313" lon="-118.393867">
  <ele>-0.12</ele>
  <time>2026-09-01T01:13:25Z</time>
  <course>0.0</course>
  <speed>0.0</speed>
  <fix>3d</fix>
</trkpt>
<trkpt lat="33.810313" lon="-118.393867">
  <ele>-0.12</ele>
  <time>2026-09-01T01:13:25Z</time>
  <course>187.91</course>
  <speed>0.022360679774997897</speed>
  <fix>3d</fix>
</trkpt>
<trkpt lat="33.810313" lon="-118.393867">
  <ele>-0.12</ele>
  <time>2026-09-01T01:13:25Z</time>
  <course>0.0</course>
  <speed>0.0</speed>
  <fix>3d</fix>
</trkpt>
<trkpt lat="33.810313" lon="-118.393867">
  <ele>-0.12</ele>
  <time>2026-09-01T01:13:25Z</time>
  <course>187.9</course>
  <speed>0.022360679774997897</speed>
  <fix>3d</fix>
</trkpt>
<trkpt lat="33.810313" lon="-118.393867">
  <ele>-0.12</ele>
  <time>2026-09-01T01:13:25Z</time>
  <course>0.0</course>
  <speed>0.0</speed>
  <fix>3d</fix>
</trkpt>
<trkpt lat="33.810313" lon="-118.393867">
  <ele>-0.119</ele>
  <time>2026-09-01T01:13:25Z</time>
  <course>187.9</course>
  <speed>0.022360679774997897</speed>
  <fix>3d</fix>
</trkpt>
<trkpt lat="33.810313" lon="-118.393867">
  <ele>-0.12</ele>
  <time>2026-09-01T01:13:25Z</time>
  <course>0.0</course>
  <speed>0.0</speed>
  <fix>3d</fix>
</trkpt>
<trkpt lat="33.810313" lon="-118.393867">
  <ele>-0.119</ele>
  <time>2026-09-01T01:13:25Z</time>
  <course>187.89</course>
  <speed>0.022360679774997897</speed>
  <fix>3d</fix>
</trkpt>
<trkpt lat="33.810313" lon="-118.393867">
  <ele>-0.12</ele>
  <time>2026-09-01T01:13:25Z</time>
  <course>0.0</course>
  <speed>0.0</speed>
  <fix>3d</fix>
</trkpt>
<trkpt lat="33.810313" lon="-118.393867">
  <ele>-0.119</ele>
  <time>2026-09-01T01:13:25Z</time>
  <course>187.88</course>
  <speed>0.022360679774997897</speed>
  <fix>3d</fix>
</trkpt>
<trkpt lat="33.810313" lon="-118.393867">
  <ele>-0.12</ele>
  <time>2026-09-01T01:13:25Z</time>
  <course>0.0</course>
  <speed>0.0</speed>
  <fix>3d</fix>
</trkpt>
<trkpt lat="33.810313" lon="-118.393867">
  <ele>-0.118</ele>
  <time>2026-09-01T01:13:25Z</time>
  <course>187.87</course>
  <speed>0.022360679774997897</speed>
  <fix>3d</fix>
</trkpt>
<trkpt lat="33.810313" lon="-118.393867">
  <ele>-0.12</ele>
  <time>2026-09-01T01:13:25Z</time>
  <course>0.0</course>
  <speed>0.0</speed>
  <fix>3d</fix>
</trkpt>
<trkpt lat="33.810313" lon="-118.393867">
  <ele>-0.119</ele>
  <time>2026-09-01T01:13:25Z</time>
  <course>187.87</course>
  <speed>0.022360679774997897</speed>
  <fix>3d</fix>
</trkpt>
<trkpt lat="33.810313" lon="-118.393867">
  <ele>-0.12</ele>
  <time>2026-09-01T01:13:25Z</time>
  <course>0.0</course>
  <speed>0.0</speed>
  <fix>3d</fix>
</trkpt>
<trkpt lat="33.810313" lon="-118.393867">
  <ele>-0.12</ele>
  <time>2026-09-01T01:13:25Z</time>
  <course>187.86</course>
  <speed>0.022360679774997897</speed>
  <fix>3d</fix>
</trkpt>
<trkpt lat="33.810313" lon="-118.393867">
  <ele>-0.12</ele>
  <time>2026-09-01T01:13:25Z</time>
  <course>0.0</course>
  <speed>0.0</speed>
  <fix>3d</fix>
</trkpt>
<trkpt lat="33.810313" lon="-118.393867">
  <ele>-0.121</ele>
  <time>2026-09-01T01:13:25Z</time>
  <course>187.85</course>
  <speed>0.022360679774997897</speed>
  <fix>3d</fix>
</trkpt>
<trkpt lat="33.810313" lon="-118.393867">
  <ele>-0.12</ele>
  <time>2026-09-01T01:13:25Z</time>
  <course>0.0</course>
  <speed>0.0</speed>
  <fix>3d</fix>
</trkpt>
<trkpt lat="33.810313" lon="-118.393867">
  <ele>-0.123</ele>
  <time>2026-09-01T01:13:25Z</time>
  <course>187.84</course>
  <speed>0.022360679774997897</speed>
  <fix>3d</fix>
</trkpt>
<trkpt lat="33.810313" lon="-118.393867">
  <ele>-0.12</ele>
  <time>2026-09-01T01:13:25Z</time>
  <course>0.0</course>
  <speed>0.0</speed>
  <fix>3d</fix>
</trkpt>
<trkpt lat="33.810313" lon="-118.393867">
  <ele>-0.125</ele>
  <time>2026-09-01T01:13:25Z</time>
  <course>187.83</course>
  <speed>0.022360679774997897</speed>
  <fix>3d</fix>
</trkpt>
<trkpt lat="33.810313" lon="-118.393867">
  <ele>-0.12</ele>
  <time>2026-09-01T01:13:25Z</time>
  <course>0.0</course>
  <speed>0.0</speed>
  <fix>3d</fix>
</trkpt>
<trkpt lat="33.810313" lon="-118.393867">
  <ele>-0.126</ele>
  <time>2026-09-01T01:13:25Z</time>
  <course>187.83</course>
  <speed>0.022360679774997897</speed>
  <fix>3d</fix>
</trkpt>
<trkpt lat="33.810313" lon="-118.393867">
  <ele>-0.12</ele>
  <time>2026-09-01T01:13:25Z</time>
  <course>0.0</course>
  <speed>0.0</speed>
  <fix>3d</fix>
</trkpt>
<trkpt lat="33.810313" lon="-118.393867">
  <ele>-0.125</ele>
  <time>2026-09-01T01:13:25Z</time>
  <course>187.82</course>
  <speed>0.022360679774997897</speed>
  <fix>3d</fix>
</trkpt>
<trkpt lat="33.810313" lon="-118.393867">
  <ele>-0.12</ele>
  <time>2026-09-01T01:13:25Z</time>
  <course>0.0</course>
  <speed>0.0</speed>
  <fix>3d</fix>
</trkpt>
<trkpt lat="33.810313" lon="-118.393867">
  <ele>-0.123</ele>
  <time>2026-09-01T01:13:25Z</time>
  <course>187.81</course>
  <speed>0.022360679774997897</speed>
  <fix>3d</fix>
</trkpt>
<trkpt lat="33.810313" lon="-118.393867">
  <ele>-0.12</ele>
  <time>2026-09-01T01:13:25Z</time>
  <course>0.0</course>
  <speed>0.0</speed>
  <fix>3d</fix>
</trkpt>
<trkpt lat="33.810313" lon="-118.393867">
  <ele>-0.12</ele>
  <time>2026-09-01T01:13:25Z</time>
  <course>187.8</course>
  <speed>0.022360679774997897</speed>
  <fix>3d</fix>
</trkpt>
<trkpt lat="33.810313" lon="-118.393867">
  <ele>-0.12</ele>
  <time>2026-09-01T01:13:25Z</time>
  <course>0.0</course>
  <speed>0.0</speed>
  <fix>3d</fix>
</trkpt>
<trkpt lat="33.810313" lon="-118.393867">
  <ele>-0.117</ele>
  <time>2026-09-01T01:13:25Z</time>
  <course>187.8</course>
  <speed>0.022360679774997897</speed>
  <fix>3d</fix>
</trkpt>
<trkpt lat="33.810313" lon="-118.393867">
  <ele>-0.12</ele>
  <time>2026-09-01T01:13:25Z</time>
  <course>0.0</course>
  <speed>0.0</speed>
  <fix>3d</fix>
</trkpt>
<trkpt lat="33.810313" lon="-118.393867">
  <ele>-0.116</ele>
  <time>2026-09-01T01:13:25Z</time>
  <course>187.79</course>
  <speed>0.022360679774997897</speed>
  <fix>3d</fix>
</trkpt>
<trkpt lat="33.810313" lon="-118.393867">
  <ele>-0.12</ele>
  <time>2026-09-01T01:13:25Z</time>
  <course>0.0</course>
  <speed>0.0</speed>
  <fix>3d</fix>
</trkpt>
<trkpt lat="33.810313" lon="-118.393867">
  <ele>-0.116</ele>
  <time>2026-09-01T01:13:25Z</time>
  <course>187.78</course>
  <speed>0.022360679774997897</speed>
  <fix>3d</fix>
</trkpt>
<trkpt lat="33.810313" lon="-118.393867">
  <ele>-0.12</ele>
  <time>2026-09-01T01:13:25Z</time>
  <course>0.0</course>
  <speed>0.0</speed>
  <fix>3d</fix>
</trkpt>
<trkpt lat="33.810313" lon="-118.393867">
  <ele>-0.116</ele>
  <time>2026-09-01T01:13:25Z</time>
  <course>187.77</course>
  <speed>0.022360679774997897</speed>
  <fix>3d</fix>
</trkpt>
<trkpt lat="33.810313" lon="-118.393867">
  <ele>-0.12</ele>
  <time>2026-09-01T01:13:25Z</time>
  <course>0.0</course>
  <speed>0.0</speed>
  <fix>3d</fix>
</trkpt>
<trkpt lat="33.810313" lon="-118.393867">
  <ele>-0.116</ele>
  <time>2026-09-01T01:13:25Z</time>
  <course>187.77</course>
  <speed>0.022360679774997897</speed>
  <fix>3d</fix>
</trkpt>
<trkpt lat="33.810313" lon="-118.393867">
  <ele>-0.12</ele>
  <time>2026-09-01T01:13:25Z</time>
  <course>0.0</course>
  <speed>0.0</speed>
  <fix>3d</fix>
</trkpt>
<trkpt lat="33.810313" lon="-118.393867">
  <ele>-0.118</ele>
  <time>2026-09-01T01:13:25Z</time>
  <course>187.76</course>
  <speed>0.022360679774997897</speed>
  <fix>3d</fix>
</trkpt>
<trkpt lat="33.810313" lon="-118.393867">
  <ele>-0.12</ele>
  <time>2026-09-01T01:13:25Z</time>
  <course>0.0</course>
  <speed>0.0</speed>
  <fix>3d</fix>
</trkpt>
<trkpt lat="33.810313" lon="-118.393867">
  <ele>-0.12</ele>
  <time>2026-09-01T01:13:25Z</time>
  <course>187.75</course>
  <speed>0.022360679774997897</speed>
  <fix>3d</fix>
</trkpt>
<trkpt lat="33.810313" lon="-118.393867">
  <ele>-0.12</ele>
  <time>2026-09-01T01:13:25Z</time>
  <course>0.0</course>
  <speed>0.0</speed>
  <fix>3d</fix>
</trkpt>
<trkpt lat="33.810313" lon="-118.393867">
  <ele>-0.121</ele>
  <time>2026-09-01T01:13:25Z</time>
  <course>187.74</course>
  <speed>0.022360679774997897</speed>
  <fix>3d</fix>
</trkpt>
<trkpt lat="33.810313" lon="-118.393867">
  <ele>-0.12</ele>
  <time>2026-09-01T01:13:25Z</time>
  <course>0.0</course>
  <speed>0.0</speed>
  <fix>3d</fix>
</trkpt>
<trkpt lat="33.810313" lon="-118.393867">
  <ele>-0.12</ele>
  <time>2026-09-01T01:13:25Z</time>
  <course>187.74</course>
  <speed>0.022360679774997897</speed>
  <fix>3d</fix>
</trkpt>
<trkpt lat="33.810313" lon="-118.393867">
  <ele>-0.12</ele>
  <time>2026-09-01T01:13:25Z</time>
  <course>0.0</course>
  <speed>0.0</speed>
  <fix>3d</fix>
</trkpt>
<trkpt lat="33.810313" lon="-118.393867">
  <ele>-0.118</ele>
  <time>2026-09-01T01:13:25Z</time>
  <course>187.73</course>
  <speed>0.022360679774997897</speed>
  <fix>3d</fix>
</trkpt>
<trkpt lat="33.810313" lon="-118.393867">
  <ele>-0.12</ele>
  <time>2026-09-01T01:13:25Z</time>
  <course>0.0</course>
  <speed>0.0</speed>
  <fix>3d</fix>
</trkpt>
<trkpt lat="33.810313" lon="-118.393867">
  <ele>-0.117</ele>
  <time>2026-09-01T01:13:25Z</time>
  <course>187.72</course>
  <speed>0.022360679774997897</speed>
  <fix>3d</fix>
</trkpt>
<trkpt lat="33.810313" lon="-118.393867">
  <ele>-0.12</ele>
  <time>2026-09-01T01:13:25Z</time>
  <course>0.0</course>
  <speed>0.0</speed>
  <fix>3d</fix>
</trkpt>
<trkpt lat="33.810313" lon="-118.393867">
  <ele>-0.115</ele>
  <time>2026-09-01T01:13:25Z</time>
  <course>187.71</course>
  <speed>0.022360679774997897</speed>
  <fix>3d</fix>
</trkpt>
<trkpt lat="33.810313" lon="-118.393867">
  <ele>-0.12</ele>
  <time>2026-09-01T01:13:25Z</time>
  <course>0.0</course>
  <speed>0.0</speed>
  <fix>3d</fix>
</trkpt>
<trkpt lat="33.810313" lon="-118.393867">
  <ele>-0.114</ele>
  <time>2026-09-01T01:13:25Z</time>
  <course>187.71</course>
  <speed>0.022360679774997897</speed>
  <fix>3d</fix>
</trkpt>
<trkpt lat="33.810313" lon="-118.393867">
  <ele>-0.12</ele>
  <time>2026-09-01T01:13:25Z</time>
  <course>0.0</course>
  <speed>0.0</speed>
  <fix>3d</fix>
</trkpt>
<trkpt lat="33.810313" lon="-118.393867">
  <ele>-0.114</ele>
  <time>2026-09-01T01:13:25Z</time>
  <course>187.7</course>
  <speed>0.022360679774997897</speed>
  <fix>3d</fix>
</trkpt>
<trkpt lat="33.810313" lon="-118.393867">
  <ele>-0.12</ele>
  <time>2026-09-01T01:13:25Z</time>
  <course>0.0</course>
  <speed>0.0</speed>
  <fix>3d</fix>
</trkpt>
<trkpt lat="33.810313" lon="-118.393867">
  <ele>-0.115</ele>
  <time>2026-09-01T01:13:25Z</time>
  <course>187.69</course>
  <speed>0.0282842712474619</speed>
  <fix>3d</fix>
</trkpt>
<trkpt lat="33.810313" lon="-118.393867">
  <ele>-0.12</ele>
  <time>2026-09-01T01:13:25Z</time>
  <course>0.0</course>
  <speed>0.0</speed>
  <fix>3d</fix>
</trkpt>
<trkpt lat="33.810313" lon="-118.393867">
  <ele>-0.116</ele>
  <time>2026-09-01T01:13:25Z</time>
  <course>187.69</course>
  <speed>0.0282842712474619</speed>
  <fix>3d</fix>
</trkpt>
<trkpt lat="33.810313" lon="-118.393867">
  <ele>-0.12</ele>
  <time>2026-09-01T01:13:25Z</time>
  <course>0.0</course>
  <speed>0.0</speed>
  <fix>3d</fix>
</trkpt>
<trkpt lat="33.810313" lon="-118.393867">
  <ele>-0.118</ele>
  <time>2026-09-01T01:13:25Z</time>
  <course>187.68</course>
  <speed>0.0282842712474619</speed>
  <fix>3d</fix>
</trkpt>
<trkpt lat="33.810313" lon="-118.393867">
  <ele>-0.12</ele>
  <time>2026-09-01T01:13:25Z</time>
  <course>0.0</course>
  <speed>0.0</speed>
  <fix>3d</fix>
</trkpt>
<trkpt lat="33.810313" lon="-118.393867">
  <ele>-0.12</ele>
  <time>2026-09-01T01:13:25Z</time>
  <course>187.67</course>
  <speed>0.0282842712474619</speed>
  <fix>3d</fix>
</trkpt>
<trkpt lat="33.810313" lon="-118.393867">
  <ele>-0.12</ele>
  <time>2026-09-01T01:13:25Z</time>
  <course>0.0</course>
  <speed>0.0</speed>
  <fix>3d</fix>
</trkpt>
<trkpt lat="33.810313" lon="-118.393867">
  <ele>-0.122</ele>
  <time>2026-09-01T01:13:25Z</time>
  <course>187.66</course>
  <speed>0.0282842712474619</speed>
  <fix>3d</fix>
</trkpt>
<trkpt lat="33.810313" lon="-118.393867">
  <ele>-0.12</ele>
  <time>2026-09-01T01:13:25Z</time>
  <course>0.0</course>
  <speed>0.0</speed>
  <fix>3d</fix>
</trkpt>
<trkpt lat="33.810313" lon="-118.393867">
  <ele>-0.123</ele>
  <time>2026-09-01T01:13:25Z</time>
  <course>187.66</course>
  <speed>0.0282842712474619</speed>
  <fix>3d</fix>
</trkpt>
<trkpt lat="33.810313" lon="-118.393867">
  <ele>-0.12</ele>
  <time>2026-09-01T01:13:25Z</time>
  <course>0.0</course>
  <speed>0.0</speed>
  <fix>3d</fix>
</trkpt>
<trkpt lat="33.810313" lon="-118.393867">
  <ele>-0.123</ele>
  <time>2026-09-01T01:13:25Z</time>
  <course>187.65</course>
  <speed>0.0282842712474619</speed>
  <fix>3d</fix>
</trkpt>
<trkpt lat="33.810313" lon="-118.393867">
  <ele>-0.12</ele>
  <time>2026-09-01T01:13:25Z</time>
  <course>0.0</course>
  <speed>0.0</speed>
  <fix>3d</fix>
</trkpt>
<trkpt lat="33.810313" lon="-118.393867">
  <ele>-0.123</ele>
  <time>2026-09-01T01:13:25Z</time>
  <course>187.64</course>
  <speed>0.03605551275463989</speed>
  <fix>3d</fix>
</trkpt>
<trkpt lat="33.810313" lon="-118.393867">
  <ele>-0.12</ele>
  <time>2026-09-01T01:13:25Z</time>
  <course>0.0</course>
  <speed>0.0</speed>
  <fix>3d</fix>
</trkpt>
<trkpt lat="33.810313" lon="-118.393867">
  <ele>-0.121</ele>
  <time>2026-09-01T01:13:25Z</time>
  <course>187.64</course>
  <speed>0.03605551275463989</speed>
  <fix>3d</fix>
</trkpt>
<trkpt lat="33.810313" lon="-118.393867">
  <ele>-0.12</ele>
  <time>2026-09-01T01:13:25Z</time>
  <course>0.0</course>
  <speed>0.0</speed>
  <fix>3d</fix>
</trkpt>
<trkpt lat="33.810313" lon="-118.393867">
  <ele>-0.12</ele>
  <time>2026-09-01T01:13:25Z</time>
  <course>187.63</course>
  <speed>0.03605551275463989</speed>
  <fix>3d</fix>
</trkpt>
<trkpt lat="33.810313" lon="-118.393867">
  <ele>-0.12</ele>
  <time>2026-09-01T01:13:25Z</time>
  <course>0.0</course>
  <speed>0.0</speed>
  <fix>3d</fix>
</trkpt>
<trkpt lat="33.810313" lon="-118.393867">
  <ele>-0.118</ele>
  <time>2026-09-01T01:13:25Z</time>
  <course>187.63</course>
  <speed>0.03605551275463989</speed>
  <fix>3d</fix>
</trkpt>
<trkpt lat="33.810313" lon="-118.393867">
  <ele>-0.12</ele>
  <time>2026-09-01T01:13:25Z</time>
  <course>0.0</course>
  <speed>0.0</speed>
  <fix>3d</fix>
</trkpt>
<trkpt lat="33.810313" lon="-118.393867">
  <ele>-0.118</ele>
  <time>2026-09-01T01:13:25Z</time>
  <course>187.62</course>
  <speed>0.03605551275463989</speed>
  <fix>3d</fix>
</trkpt>
<trkpt lat="33.810313" lon="-118.393867">
  <ele>-0.12</ele>
  <time>2026-09-01T01:13:25Z</time>
  <course>0.0</course>
  <speed>0.0</speed>
  <fix>3d</fix>
</trkpt>
<trkpt lat="33.810313" lon="-118.393867">
  <ele>-0.117</ele>
  <time>2026-09-01T01:13:25Z</time>
  <course>187.61</course>
  <speed>0.03605551275463989</speed>
  <fix>3d</fix>
</trkpt>
<trkpt lat="33.810313" lon="-118.393867">
  <ele>-0.12</ele>
  <time>2026-09-01T01:13:25Z</time>
  <course>0.0</course>
  <speed>0.0</speed>
  <fix>3d</fix>
</trkpt>
<trkpt lat="33.810313" lon="-118.393867">
  <ele>-0.118</ele>
  <time>2026-09-01T01:13:25Z</time>
  <course>187.61</course>
  <speed>0.03605551275463989</speed>
  <fix>3d</fix>
</trkpt>
<trkpt lat="33.810313" lon="-118.393867">
  <ele>-0.12</ele>
  <time>2026-09-01T01:13:25Z</time>
  <course>0.0</course>
  <speed>0.0</speed>
  <fix>3d</fix>
</trkpt>
<trkpt lat="33.810313" lon="-118.393867">
  <ele>-0.119</ele>
  <time>2026-09-01T01:13:25Z</time>
  <course>187.6</course>
  <speed>0.03605551275463989</speed>
  <fix>3d</fix>
</trkpt>
<trkpt lat="33.810313" lon="-118.393867">
  <ele>-0.12</ele>
  <time>2026-09-01T01:13:25Z</time>
  <course>0.0</course>
  <speed>0.0</speed>
  <fix>3d</fix>
</trkpt>
<trkpt lat="33.810313" lon="-118.393867">
  <ele>-0.119</ele>
  <time>2026-09-01T01:13:25Z</time>
  <course>187.59</course>
  <speed>0.03605551275463989</speed>
  <fix>3d</fix>
</trkpt>
<trkpt lat="33.810313" lon="-118.393867">
  <ele>-0.12</ele>
  <time>2026-09-01T01:13:25Z</time>
  <course>0.0</course>
  <speed>0.0</speed>
  <fix>3d</fix>
</trkpt>
<trkpt lat="33.810313" lon="-118.393867">
  <ele>-0.12</ele>
  <time>2026-09-01T01:13:25Z</time>
  <course>187.59</course>
  <speed>0.03605551275463989</speed>
  <fix>3d</fix>
</trkpt>
<trkpt lat="33.810313" lon="-118.393867">
  <ele>-0.12</ele>
  <time>2026-09-01T01:13:25Z</time>
  <course>0.0</course>
  <speed>0.0</speed>
  <fix>3d</fix>
</trkpt>
<trkpt lat="33.810313" lon="-118.393867">
  <ele>-0.12</ele>
  <time>2026-09-01T01:13:25Z</time>
  <course>187.58</course>
  <speed>0.03605551275463989</speed>
  <fix>3d</fix>
</trkpt>
<trkpt lat="33.810313" lon="-118.393867">
  <ele>-0.12</ele>
  <time>2026-09-01T01:13:25Z</time>
  <course>0.0</course>
  <speed>0.0</speed>
  <fix>3d</fix>
</trkpt>
<trkpt lat="33.810313" lon="-118.393867">
  <ele>-0.12</ele>
  <time>2026-09-01T01:13:25Z</time>
  <course>187.57</course>
  <speed>0.03605551275463989</speed>
  <fix>3d</fix>
</trkpt>
<trkpt lat="33.810313" lon="-118.393867">
  <ele>-0.12</ele>
  <time>2026-09-01T01:13:25Z</time>
  <course>0.0</course>
  <speed>0.0</speed>
  <fix>3d</fix>
</trkpt>
<trkpt lat="33.810313" lon="-118.393867">
  <ele>-0.12</ele>
  <time>2026-09-01T01:13:25Z</time>
  <course>187.57</course>
  <speed>0.03605551275463989</speed>
  <fix>3d</fix>
</trkpt>
<trkpt lat="33.810313" lon="-118.393867">
  <ele>-0.12</ele>
  <time>2026-09-01T01:13:25Z</time>
  <course>0.0</course>
  <speed>0.0</speed>
  <fix>3d</fix>
</trkpt>
<trkpt lat="33.810313" lon="-118.393867">
  <ele>-0.12</ele>
  <time>2026-09-01T01:13:25Z</time>
  <course>187.56</course>
  <speed>0.03605551275463989</speed>
  <fix>3d</fix>
</trkpt>
<trkpt lat="33.810313" lon="-118.393867">
  <ele>-0.12</ele>
  <time>2026-09-01T01:13:25Z</time>
  <course>0.0</course>
  <speed>0.0</speed>
  <fix>3d</fix>
</trkpt>
<trkpt lat="33.810313" lon="-118.393867">
  <ele>-0.121</ele>
  <time>2026-09-01T01:13:25Z</time>
  <course>187.55</course>
  <speed>0.03605551275463989</speed>
  <fix>3d</fix>
</trkpt>
<trkpt lat="33.810313" lon="-118.393867">
  <ele>-0.12</ele>
  <time>2026-09-01T01:13:25Z</time>
  <course>0.0</course>
  <speed>0.0</speed>
  <fix>3d</fix>
</trkpt>
<trkpt lat="33.810313" lon="-118.393867">
  <ele>-0.123</ele>
  <time>2026-09-01T01:13:25Z</time>
  <course>187.55</course>
  <speed>0.03605551275463989</speed>
  <fix>3d</fix>
</trkpt>
<trkpt lat="33.810313" lon="-118.393867">
  <ele>-0.12</ele>
  <time>2026-09-01T01:13:25Z</time>
  <course>0.0</course>
  <speed>0.0</speed>
  <fix>3d</fix>
</trkpt>
<trkpt lat="33.810313" lon="-118.393867">
  <ele>-0.124</ele>
  <time>2026-09-01T01:13:25Z</time>
  <course>187.54</course>
  <speed>0.03605551275463989</speed>
  <fix>3d</fix>
</trkpt>
<trkpt lat="33.810313" lon="-118.393867">
  <ele>-0.12</ele>
  <time>2026-09-01T01:13:25Z</time>
  <course>0.0</course>
  <speed>0.0</speed>
  <fix>3d</fix>
</trkpt>
<trkpt lat="33.810313" lon="-118.393867">
  <ele>-0.126</ele>
  <time>2026-09-01T01:13:25Z</time>
  <course>187.53</course>
  <speed>0.03605551275463989</speed>
  <fix>3d</fix>
</trkpt>
<trkpt lat="33.810313" lon="-118.393867">
  <ele>-0.12</ele>
  <time>2026-09-01T01:13:25Z</time>
  <course>0.0</course>
  <speed>0.0</speed>
  <fix>3d</fix>
</trkpt>
<trkpt lat="33.810313" lon="-118.393867">
  <ele>-0.127</ele>
  <time>2026-09-01T01:13:25Z</time>
  <course>187.53</course>
  <speed>0.03605551275463989</speed>
  <fix>3d</fix>
</trkpt>
<trkpt lat="33.810313" lon="-118.393867">
  <ele>-0.12</ele>
  <time>2026-09-01T01:13:25Z</time>
  <course>0.0</course>
  <speed>0.0</speed>
  <fix>3d</fix>
</trkpt>
<trkpt lat="33.810313" lon="-118.393867">
  <ele>-0.127</ele>
  <time>2026-09-01T01:13:25Z</time>
  <course>187.52</course>
  <speed>0.03605551275463989</speed>
  <fix>3d</fix>
</trkpt>
<trkpt lat="33.810313" lon="-118.393867">
  <ele>-0.12</ele>
  <time>2026-09-01T01:13:25Z</time>
  <course>0.0</course>
  <speed>0.0</speed>
  <fix>3d</fix>
</trkpt>
<trkpt lat="33.810313" lon="-118.393867">
  <ele>-0.126</ele>
  <time>2026-09-01T01:13:25Z</time>
  <course>187.51</course>
  <speed>0.03605551275463989</speed>
  <fix>3d</fix>
</trkpt>
<trkpt lat="33.810313" lon="-118.393867">
  <ele>-0.12</ele>
  <time>2026-09-01T01:13:25Z</time>
  <course>0.0</course>
  <speed>0.0</speed>
  <fix>3d</fix>
</trkpt>
<trkpt lat="33.810313" lon="-118.393867">
  <ele>-0.124</ele>
  <time>2026-09-01T01:13:25Z</time>
  <course>187.51</course>
  <speed>0.03605551275463989</speed>
  <fix>3d</fix>
</trkpt>
<trkpt lat="33.810313" lon="-118.393867">
  <ele>-0.12</ele>
  <time>2026-09-01T01:13:25Z</time>
  <course>0.0</course>
  <speed>0.0</speed>
  <fix>3d</fix>
</trkpt>
<trkpt lat="33.810313" lon="-118.393867">
  <ele>-0.121</ele>
  <time>2026-09-01T01:13:25Z</time>
  <course>187.5</course>
  <speed>0.03605551275463989</speed>
  <fix>3d</fix>
</trkpt>
<trkpt lat="33.810313" lon="-118.393867">
  <ele>-0.12</ele>
  <time>2026-09-01T01:13:25Z</time>
  <course>0.0</course>
  <speed>0.0</speed>
  <fix>3d</fix>
</trkpt>
<trkpt lat="33.810313" lon="-118.393867">
  <ele>-0.118</ele>
  <time>2026-09-01T01:13:25Z</time>
  <course>187.5</course>
  <speed>0.03605551275463989</speed>
  <fix>3d</fix>
</trkpt>
<trkpt lat="33.810313" lon="-118.393867">
  <ele>-0.12</ele>
  <time>2026-09-01T01:13:25Z</time>
  <course>0.0</course>
  <speed>0.0</speed>
  <fix>3d</fix>
</trkpt>
<trkpt lat="33.810313" lon="-118.393867">
  <ele>-0.115</ele>
  <time>2026-09-01T01:13:25Z</time>
  <course>187.49</course>
  <speed>0.03605551275463989</speed>
  <fix>3d</fix>
</trkpt>
<trkpt lat="33.810313" lon="-118.393867">
  <ele>-0.12</ele>
  <time>2026-09-01T01:13:25Z</time>
  <course>0.0</course>
  <speed>0.0</speed>
  <fix>3d</fix>
</trkpt>
<trkpt lat="33.810313" lon="-118.393867">
  <ele>-0.114</ele>
  <time>2026-09-01T01:13:25Z</time>
  <course>187.48</course>
  <speed>0.03605551275463989</speed>
  <fix>3d</fix>
</trkpt>
<trkpt lat="33.810313" lon="-118.393867">
  <ele>-0.12</ele>
  <time>2026-09-01T01:13:25Z</time>
  <course>0.0</course>
  <speed>0.0</speed>
  <fix>3d</fix>
</trkpt>
<trkpt lat="33.810313" lon="-118.393867">
  <ele>-0.113</ele>
  <time>2026-09-01T01:13:25Z</time>
  <course>187.48</course>
  <speed>0.03605551275463989</speed>
  <fix>3d</fix>
</trkpt>
<trkpt lat="33.810313" lon="-118.393867">
  <ele>-0.12</ele>
  <time>2026-09-01T01:13:25Z</time>
  <course>0.0</course>
  <speed>0.0</speed>
  <fix>3d</fix>
</trkpt>
<trkpt lat="33.810313" lon="-118.393867">
  <ele>-0.113</ele>
  <time>2026-09-01T01:13:25Z</time>
  <course>187.47</course>
  <speed>0.03605551275463989</speed>
  <fix>3d</fix>
</trkpt>
<trkpt lat="33.810313" lon="-118.393867">
  <ele>-0.12</ele>
  <time>2026-09-01T01:13:25Z</time>
  <course>0.0</course>
  <speed>0.0</speed>
  <fix>3d</fix>
</trkpt>
<trkpt lat="33.810313" lon="-118.393867">
  <ele>-0.113</ele>
  <time>2026-09-01T01:13:25Z</time>
  <course>187.46</course>
  <speed>0.03605551275463989</speed>
  <fix>3d</fix>
</trkpt>
<trkpt lat="33.810313" lon="-118.393867">
  <ele>-0.12</ele>
  <time>2026-09-01T01:13:25Z</time>
  <course>0.0</course>
  <speed>0.0</speed>
  <fix>3d</fix>
</trkpt>
<trkpt lat="33.810313" lon="-118.393867">
  <ele>-0.114</ele>
  <time>2026-09-01T01:13:25Z</time>
  <course>187.46</course>
  <speed>0.03605551275463989</speed>
  <fix>3d</fix>
</trkpt>
<trkpt lat="33.810313" lon="-118.393867">
  <ele>-0.12</ele>
  <time>2026-09-01T01:13:25Z</time>
  <course>0.0</course>
  <speed>0.0</speed>
  <fix>3d</fix>
</trkpt>
<trkpt lat="33.810313" lon="-118.393867">
  <ele>-0.114</ele>
  <time>2026-09-01T01:13:25Z</time>
  <course>187.45</course>
  <speed>0.03605551275463989</speed>
  <fix>3d</fix>
</trkpt>
<trkpt lat="33.810313" lon="-118.393867">
  <ele>-0.12</ele>
  <time>2026-09-01T01:13:25Z</time>
  <course>0.0</course>
  <speed>0.0</speed>
  <fix>3d</fix>
</trkpt>
<trkpt lat="33.810313" lon="-118.393867">
  <ele>-0.113</ele>
  <time>2026-09-01T01:13:25Z</time>
  <course>187.44</course>
  <speed>0.03605551275463989</speed>
  <fix>3d</fix>
</trkpt>
<trkpt lat="33.810313" lon="-118.393867">
  <ele>-0.12</ele>
  <time>2026-09-01T01:13:25Z</time>
  <course>0.0</course>
  <speed>0.0</speed>
  <fix>3d</fix>
</trkpt>
<trkpt lat="33.810313" lon="-118.393867">
  <ele>-0.11</ele>
  <time>2026-09-01T01:13:25Z</time>
  <course>187.44</course>
  <speed>0.03605551275463989</speed>
  <fix>3d</fix>
</trkpt>
<trkpt lat="33.810313" lon="-118.393867">
  <ele>-0.12</ele>
  <time>2026-09-01T01:13:25Z</time>
  <course>0.0</course>
  <speed>0.0</speed>
  <fix>3d</fix>
</trkpt>
<trkpt lat="33.810313" lon="-118.393867">
  <ele>-0.107</ele>
  <time>2026-09-01T01:13:25Z</time>
  <course>187.43</course>
  <speed>0.03605551275463989</speed>
  <fix>3d</fix>
</trkpt>
<trkpt lat="33.810313" lon="-118.393867">
  <ele>-0.12</ele>
  <time>2026-09-01T01:13:25Z</time>
  <course>0.0</course>
  <speed>0.0</speed>
  <fix>3d</fix>
</trkpt>
<trkpt lat="33.810313" lon="-118.393867">
  <ele>-0.106</ele>
  <time>2026-09-01T01:13:25Z</time>
  <course>187.43</course>
  <speed>0.03605551275463989</speed>
  <fix>3d</fix>
</trkpt>
<trkpt lat="33.810313" lon="-118.393867">
  <ele>-0.12</ele>
  <time>2026-09-01T01:13:25Z</time>
  <course>0.0</course>
  <speed>0.0</speed>
  <fix>3d</fix>
</trkpt>
<trkpt lat="33.810313" lon="-118.393867">
  <ele>-0.106</ele>
  <time>2026-09-01T01:13:25Z</time>
  <course>187.42</course>
  <speed>0.03605551275463989</speed>
  <fix>3d</fix>
</trkpt>
<trkpt lat="33.810313" lon="-118.393867">
  <ele>-0.12</ele>
  <time>2026-09-01T01:13:25Z</time>
  <course>0.0</course>
  <speed>0.0</speed>
  <fix>3d</fix>
</trkpt>
<trkpt lat="33.810313" lon="-118.393867">
  <ele>-0.106</ele>
  <time>2026-09-01T01:13:25Z</time>
  <course>187.41</course>
  <speed>0.03605551275463989</speed>
  <fix>3d</fix>
</trkpt>
<trkpt lat="33.810313" lon="-118.393867">
  <ele>-0.12</ele>
  <time>2026-09-01T01:13:25Z</time>
  <course>0.0</course>
  <speed>0.0</speed>
  <fix>3d</fix>
</trkpt>
<trkpt lat="33.810313" lon="-118.393867">
  <ele>-0.109</ele>
  <time>2026-09-01T01:13:25Z</time>
  <course>187.41</course>
  <speed>0.03605551275463989</speed>
  <fix>3d</fix>
</trkpt>
<trkpt lat="33.810313" lon="-118.393867">
  <ele>-0.12</ele>
  <time>2026-09-01T01:13:25Z</time>
  <course>0.0</course>
  <speed>0.0</speed>
  <fix>3d</fix>
</trkpt>
<trkpt lat="33.810313" lon="-118.393867">
  <ele>-0.112</ele>
  <time>2026-09-01T01:13:25Z</time>
  <course>187.4</course>
  <speed>0.03605551275463989</speed>
  <fix>3d</fix>
</trkpt>
<trkpt lat="33.810313" lon="-118.393867">
  <ele>-0.12</ele>
  <time>2026-09-01T01:13:25Z</time>
  <course>0.0</course>
  <speed>0.0</speed>
  <fix>3d</fix>
</trkpt>
<trkpt lat="33.810313" lon="-118.393867">
  <ele>-0.115</ele>
  <time>2026-09-01T01:13:25Z</time>
  <course>187.4</course>
  <speed>0.03605551275463989</speed>
  <fix>3d</fix>
</trkpt>
<trkpt lat="33.810313" lon="-118.393867">
  <ele>-0.12</ele>
  <time>2026-09-01T01:13:25Z</time>
  <course>0.0</course>
  <speed>0.0</speed>
  <fix>3d</fix>
</trkpt>
<trkpt lat="33.810313" lon="-118.393867">
  <ele>-0.118</ele>
  <time>2026-09-01T01:13:25Z</time>
  <course>187.39</course>
  <speed>0.03605551275463989</speed>
  <fix>3d</fix>
</trkpt>
<trkpt lat="33.810313" lon="-118.393867">
  <ele>-0.12</ele>
  <time>2026-09-01T01:13:25Z</time>
  <course>0.0</course>
  <speed>0.0</speed>
  <fix>3d</fix>
</trkpt>
<trkpt lat="33.810313" lon="-118.393867">
  <ele>-0.12</ele>
  <time>2026-09-01T01:13:25Z</time>
  <course>187.38</course>
  <speed>0.03605551275463989</speed>
  <fix>3d</fix>
</trkpt>
<trkpt lat="33.810313" lon="-118.393867">
  <ele>-0.12</ele>
  <time>2026-09-01T01:13:25Z</time>
  <course>0.0</course>
  <speed>0.0</speed>
  <fix>3d</fix>
</trkpt>
<trkpt lat="33.810313" lon="-118.393867">
  <ele>-0.121</ele>
  <time>2026-09-01T01:13:25Z</time>
  <course>187.38</course>
  <speed>0.03605551275463989</speed>
  <fix>3d</fix>
</trkpt>
<trkpt lat="33.810313" lon="-118.393867">
  <ele>-0.12</ele>
  <time>2026-09-01T01:13:25Z</time>
  <course>0.0</course>
  <speed>0.0</speed>
  <fix>3d</fix>
</trkpt>
<trkpt lat="33.810313" lon="-118.393867">
  <ele>-0.121</ele>
  <time>2026-09-01T01:13:25Z</time>
  <course>187.37</course>
  <speed>0.03605551275463989</speed>
  <fix>3d</fix>
</trkpt>
<trkpt lat="33.810313" lon="-118.393867">
  <ele>-0.12</ele>
  <time>2026-09-01T01:13:25Z</time>
  <course>0.0</course>
  <speed>0.0</speed>
  <fix>3d</fix>
</trkpt>
<trkpt lat="33.810313" lon="-118.393867">
  <ele>-0.119</ele>
  <time>2026-09-01T01:13:25Z</time>
  <course>187.37</course>
  <speed>0.03605551275463989</speed>
  <fix>3d</fix>
</trkpt>
<trkpt lat="33.810313" lon="-118.393867">
  <ele>-0.12</ele>
  <time>2026-09-01T01:13:25Z</time>
  <course>0.0</course>
  <speed>0.0</speed>
  <fix>3d</fix>
</trkpt>
<trkpt lat="33.810313" lon="-118.393867">
  <ele>-0.116</ele>
  <time>2026-09-01T01:13:25Z</time>
  <course>187.36</course>
  <speed>0.03605551275463989</speed>
  <fix>3d</fix>
</trkpt>
<trkpt lat="33.810313" lon="-118.393867">
  <ele>-0.12</ele>
  <time>2026-09-01T01:13:25Z</time>
  <course>0.0</course>
  <speed>0.0</speed>
  <fix>3d</fix>
</trkpt>
<trkpt lat="33.810313" lon="-118.393867">
  <ele>-0.115</ele>
  <time>2026-09-01T01:13:25Z</time>
  <course>187.35</course>
  <speed>0.03605551275463989</speed>
  <fix>3d</fix>
</trkpt>
<trkpt lat="33.810313" lon="-118.393867">
  <ele>-0.12</ele>
  <time>2026-09-01T01:13:25Z</time>
  <course>0.0</course>
  <speed>0.0</speed>
  <fix>3d</fix>
</trkpt>
<trkpt lat="33.810313" lon="-118.393867">
  <ele>-0.115</ele>
  <time>2026-09-01T01:13:25Z</time>
  <course>187.35</course>
  <speed>0.03605551275463989</speed>
  <fix>3d</fix>
</trkpt>
<trkpt lat="33.810313" lon="-118.393867">
  <ele>-0.12</ele>
  <time>2026-09-01T01:13:25Z</time>
  <course>0.0</course>
  <speed>0.0</speed>
  <fix>3d</fix>
</trkpt>
<trkpt lat="33.810313" lon="-118.393867">
  <ele>-0.115</ele>
  <time>2026-09-01T01:13:25Z</time>
  <course>187.34</course>
  <speed>0.03605551275463989</speed>
  <fix>3d</fix>
</trkpt>
<trkpt lat="33.810313" lon="-118.393867">
  <ele>-0.12</ele>
  <time>2026-09-01T01:13:25Z</time>
  <course>0.0</course>
  <speed>0.0</speed>
  <fix>3d</fix>
</trkpt>
<trkpt lat="33.810313" lon="-118.393867">
  <ele>-0.116</ele>
  <time>2026-09-01T01:13:25Z</time>
  <course>187.34</course>
  <speed>0.03605551275463989</speed>
  <fix>3d</fix>
</trkpt>
<trkpt lat="33.810313" lon="-118.393867">
  <ele>-0.12</ele>
  <time>2026-09-01T01:13:25Z</time>
  <course>0.0</course>
  <speed>0.0</speed>
  <fix>3d</fix>
</trkpt>
<trkpt lat="33.810313" lon="-118.393867">
  <ele>-0.118</ele>
  <time>2026-09-01T01:13:25Z</time>
  <course>187.33</course>
  <speed>0.03605551275463989</speed>
  <fix>3d</fix>
</trkpt>
<trkpt lat="33.810313" lon="-118.393867">
  <ele>-0.12</ele>
  <time>2026-09-01T01:13:25Z</time>
  <course>0.0</course>
  <speed>0.0</speed>
  <fix>3d</fix>
</trkpt>
<trkpt lat="33.810313" lon="-118.393867">
  <ele>-0.118</ele>
  <time>2026-09-01T01:13:25Z</time>
  <course>187.33</course>
  <speed>0.03605551275463989</speed>
  <fix>3d</fix>
</trkpt>
<trkpt lat="33.810313" lon="-118.393867">
  <ele>-0.12</ele>
  <time>2026-09-01T01:13:25Z</time>
  <course>0.0</course>
  <speed>0.0</speed>
  <fix>3d</fix>
</trkpt>
<trkpt lat="33.810313" lon="-118.393867">
  <ele>-0.118</ele>
  <time>2026-09-01T01:13:26Z</time>
  <course>187.32</course>
  <speed>0.03605551275463989</speed>
  <fix>3d</fix>
</trkpt>
<trkpt lat="33.810313" lon="-118.393867">
  <ele>-0.12</ele>
  <time>2026-09-01T01:13:26Z</time>
  <course>0.0</course>
  <speed>0.0</speed>
  <fix>3d</fix>
</trkpt>
<trkpt lat="33.810313" lon="-118.393867">
  <ele>-0.116</ele>
  <time>2026-09-01T01:13:26Z</time>
  <course>187.32</course>
  <speed>0.03605551275463989</speed>
  <fix>3d</fix>
</trkpt>
<trkpt lat="33.810313" lon="-118.393867">
  <ele>-0.12</ele>
  <time>2026-09-01T01:13:26Z</time>
  <course>0.0</course>
  <speed>0.0</speed>
  <fix>3d</fix>
</trkpt>
<trkpt lat="33.810313" lon="-118.393867">
  <ele>-0.114</ele>
  <time>2026-09-01T01:13:26Z</time>
  <course>187.31</course>
  <speed>0.03605551275463989</speed>
  <fix>3d</fix>
</trkpt>
<trkpt lat="33.810313" lon="-118.393867">
  <ele>-0.12</ele>
  <time>2026-09-01T01:13:26Z</time>
  <course>0.0</course>
  <speed>0.0</speed>
  <fix>3d</fix>
</trkpt>
<trkpt lat="33.810313" lon="-118.393867">
  <ele>-0.114</ele>
  <time>2026-09-01T01:13:26Z</time>
  <course>187.3</course>
  <speed>0.03605551275463989</speed>
  <fix>3d</fix>
</trkpt>
<trkpt lat="33.810313" lon="-118.393867">
  <ele>-0.12</ele>
  <time>2026-09-01T01:13:26Z</time>
  <course>0.0</course>
  <speed>0.0</speed>
  <fix>3d</fix>
</trkpt>
<trkpt lat="33.810313" lon="-118.393867">
  <ele>-0.114</ele>
  <time>2026-09-01T01:13:26Z</time>
  <course>187.3</course>
  <speed>0.03605551275463989</speed>
  <fix>3d</fix>
</trkpt>
<trkpt lat="33.810313" lon="-118.393867">
  <ele>-0.12</ele>
  <time>2026-09-01T01:13:26Z</time>
  <course>0.0</course>
  <speed>0.0</speed>
  <fix>3d</fix>
</trkpt>
<trkpt lat="33.810313" lon="-118.393867">
  <ele>-0.113</ele>
  <time>2026-09-01T01:13:26Z</time>
  <course>187.29</course>
  <speed>0.03605551275463989</speed>
  <fix>3d</fix>
</trkpt>
<trkpt lat="33.810313" lon="-118.393867">
  <ele>-0.12</ele>
  <time>2026-09-01T01:13:26Z</time>
  <course>0.0</course>
  <speed>0.0</speed>
  <fix>3d</fix>
</trkpt>
<trkpt lat="33.810313" lon="-118.393867">
  <ele>-0.114</ele>
  <time>2026-09-01T01:13:26Z</time>
  <course>187.29</course>
  <speed>0.03605551275463989</speed>
  <fix>3d</fix>
</trkpt>
<trkpt lat="33.810313" lon="-118.393867">
  <ele>-0.12</ele>
  <time>2026-09-01T01:13:26Z</time>
  <course>0.0</course>
  <speed>0.0</speed>
  <fix>3d</fix>
</trkpt>
<trkpt lat="33.810313" lon="-118.393867">
  <ele>-0.116</ele>
  <time>2026-09-01T01:13:26Z</time>
  <course>187.28</course>
  <speed>0.03605551275463989</speed>
  <fix>3d</fix>
</trkpt>
<trkpt lat="33.810313" lon="-118.393867">
  <ele>-0.12</ele>
  <time>2026-09-01T01:13:26Z</time>
  <course>0.0</course>
  <speed>0.0</speed>
  <fix>3d</fix>
</trkpt>
<trkpt lat="33.810313" lon="-118.393867">
  <ele>-0.118</ele>
  <time>2026-09-01T01:13:26Z</time>
  <course>187.28</course>
  <speed>0.03605551275463989</speed>
  <fix>3d</fix>
</trkpt>
<trkpt lat="33.810313" lon="-118.393867">
  <ele>-0.12</ele>
  <time>2026-09-01T01:13:26Z</time>
  <course>0.0</course>
  <speed>0.0</speed>
  <fix>3d</fix>
</trkpt>
<trkpt lat="33.810313" lon="-118.393867">
  <ele>-0.119</ele>
  <time>2026-09-01T01:13:26Z</time>
  <course>187.27</course>
  <speed>0.03605551275463989</speed>
  <fix>3d</fix>
</trkpt>
<trkpt lat="33.810313" lon="-118.393867">
  <ele>-0.12</ele>
  <time>2026-09-01T01:13:26Z</time>
  <course>0.0</course>
  <speed>0.0</speed>
  <fix>3d</fix>
</trkpt>
<trkpt lat="33.810313" lon="-118.393867">
  <ele>-0.12</ele>
  <time>2026-09-01T01:13:26Z</time>
  <course>187.27</course>
  <speed>0.03605551275463989</speed>
  <fix>3d</fix>
</trkpt>
<trkpt lat="33.810313" lon="-118.393867">
  <ele>-0.12</ele>
  <time>2026-09-01T01:13:26Z</time>
  <course>0.0</course>
  <speed>0.0</speed>
  <fix>3d</fix>
</trkpt>
<trkpt lat="33.810313" lon="-118.393867">
  <ele>-0.118</ele>
  <time>2026-09-01T01:13:26Z</time>
  <course>187.26</course>
  <speed>0.03605551275463989</speed>
  <fix>3d</fix>
</trkpt>
<trkpt lat="33.810313" lon="-118.393867">
  <ele>-0.12</ele>
  <time>2026-09-01T01:13:26Z</time>
  <course>0.0</course>
  <speed>0.0</speed>
  <fix>3d</fix>
</trkpt>
<trkpt lat="33.810313" lon="-118.393867">
  <ele>-0.116</ele>
  <time>2026-09-01T01:13:26Z</time>
  <course>187.25</course>
  <speed>0.03605551275463989</speed>
  <fix>3d</fix>
</trkpt>
<trkpt lat="33.810313" lon="-118.393867">
  <ele>-0.12</ele>
  <time>2026-09-01T01:13:26Z</time>
  <course>0.0</course>
  <speed>0.0</speed>
  <fix>3d</fix>
</trkpt>
<trkpt lat="33.810313" lon="-118.393867">
  <ele>-0.114</ele>
  <time>2026-09-01T01:13:26Z</time>
  <course>187.25</course>
  <speed>0.03605551275463989</speed>
  <fix>3d</fix>
</trkpt>
<trkpt lat="33.810313" lon="-118.393867">
  <ele>-0.12</ele>
  <time>2026-09-01T01:13:26Z</time>
  <course>0.0</course>
  <speed>0.0</speed>
  <fix>3d</fix>
</trkpt>
<trkpt lat="33.810313" lon="-118.393867">
  <ele>-0.112</ele>
  <time>2026-09-01T01:13:26Z</time>
  <course>187.24</course>
  <speed>0.03605551275463989</speed>
  <fix>3d</fix>
</trkpt>
<trkpt lat="33.810313" lon="-118.393867">
  <ele>-0.12</ele>
  <time>2026-09-01T01:13:26Z</time>
  <course>0.0</course>
  <speed>0.0</speed>
  <fix>3d</fix>
</trkpt>
<trkpt lat="33.810313" lon="-118.393867">
  <ele>-0.111</ele>
  <time>2026-09-01T01:13:26Z</time>
  <course>187.24</course>
  <speed>0.03605551275463989</speed>
  <fix>3d</fix>
</trkpt>
<trkpt lat="33.810313" lon="-118.393867">
  <ele>-0.12</ele>
  <time>2026-09-01T01:13:26Z</time>
  <course>0.0</course>
  <speed>0.0</speed>
  <fix>3d</fix>
</trkpt>
<trkpt lat="33.810313" lon="-118.393867">
  <ele>-0.111</ele>
  <time>2026-09-01T01:13:26Z</time>
  <course>187.23</course>
  <speed>0.03605551275463989</speed>
  <fix>3d</fix>
</trkpt>
<trkpt lat="33.810313" lon="-118.393867">
  <ele>-0.12</ele>
  <time>2026-09-01T01:13:26Z</time>
  <course>0.0</course>
  <speed>0.0</speed>
  <fix>3d</fix>
</trkpt>
<trkpt lat="33.810313" lon="-118.393867">
  <ele>-0.111</ele>
  <time>2026-09-01T01:13:26Z</time>
  <course>187.23</course>
  <speed>0.03605551275463989</speed>
  <fix>3d</fix>
</trkpt>
<trkpt lat="33.810313" lon="-118.393867">
  <ele>-0.12</ele>
  <time>2026-09-01T01:13:26Z</time>
  <course>0.0</course>
  <speed>0.0</speed>
  <fix>3d</fix>
</trkpt>
<trkpt lat="33.810313" lon="-118.393867">
  <ele>-0.111</ele>
  <time>2026-09-01T01:13:26Z</time>
  <course>187.22</course>
  <speed>0.03605551275463989</speed>
  <fix>3d</fix>
</trkpt>
<trkpt lat="33.810313" lon="-118.393867">
  <ele>-0.12</ele>
  <time>2026-09-01T01:13:26Z</time>
  <course>0.0</course>
  <speed>0.0</speed>
  <fix>3d</fix>
</trkpt>
<trkpt lat="33.810313" lon="-118.393867">
  <ele>-0.111</ele>
  <time>2026-09-01T01:13:26Z</time>
  <course>187.22</course>
  <speed>0.03605551275463989</speed>
  <fix>3d</fix>
</trkpt>
<trkpt lat="33.810313" lon="-118.393867">
  <ele>-0.12</ele>
  <time>2026-09-01T01:13:26Z</time>
  <course>0.0</course>
  <speed>0.0</speed>
  <fix>3d</fix>
</trkpt>
<trkpt lat="33.810313" lon="-118.393867">
  <ele>-0.112</ele>
  <time>2026-09-01T01:13:26Z</time>
  <course>187.21</course>
  <speed>0.03605551275463989</speed>
  <fix>3d</fix>
</trkpt>
<trkpt lat="33.810313" lon="-118.393867">
  <ele>-0.12</ele>
  <time>2026-09-01T01:13:26Z</time>
  <course>0.0</course>
  <speed>0.0</speed>
  <fix>3d</fix>
</trkpt>
<trkpt lat="33.810313" lon="-118.393867">
  <ele>-0.113</ele>
  <time>2026-09-01T01:13:26Z</time>
  <course>187.21</course>
  <speed>0.03605551275463989</speed>
  <fix>3d</fix>
</trkpt>
<trkpt lat="33.810313" lon="-118.393867">
  <ele>-0.12</ele>
  <time>2026-09-01T01:13:26Z</time>
  <course>0.0</course>
  <speed>0.0</speed>
  <fix>3d</fix>
</trkpt>
<trkpt lat="33.810313" lon="-118.393867">
  <ele>-0.112</ele>
  <time>2026-09-01T01:13:26Z</time>
  <course>187.2</course>
  <speed>0.03605551275463989</speed>
  <fix>3d</fix>
</trkpt>
<trkpt lat="33.810313" lon="-118.393867">
  <ele>-0.12</ele>
  <time>2026-09-01T01:13:26Z</time>
  <course>0.0</course>
  <speed>0.0</speed>
  <fix>3d</fix>
</trkpt>
<trkpt lat="33.810313" lon="-118.393867">
  <ele>-0.111</ele>
  <time>2026-09-01T01:13:26Z</time>
  <course>187.2</course>
  <speed>0.03605551275463989</speed>
  <fix>3d</fix>
</trkpt>
<trkpt lat="33.810313" lon="-118.393867">
  <ele>-0.12</ele>
  <time>2026-09-01T01:13:26Z</time>
  <course>0.0</course>
  <speed>0.0</speed>
  <fix>3d</fix>
</trkpt>
<trkpt lat="33.810313" lon="-118.393867">
  <ele>-0.111</ele>
  <time>2026-09-01T01:13:26Z</time>
  <course>187.19</course>
  <speed>0.03605551275463989</speed>
  <fix>3d</fix>
</trkpt>
<trkpt lat="33.810313" lon="-118.393867">
  <ele>-0.12</ele>
  <time>2026-09-01T01:13:26Z</time>
  <course>0.0</course>
  <speed>0.0</speed>
  <fix>3d</fix>
</trkpt>
<trkpt lat="33.810313" lon="-118.393867">
  <ele>-0.11</ele>
  <time>2026-09-01T01:13:26Z</time>
  <course>187.19</course>
  <speed>0.03605551275463989</speed>
  <fix>3d</fix>
</trkpt>
<trkpt lat="33.810313" lon="-118.393867">
  <ele>-0.12</ele>
  <time>2026-09-01T01:13:26Z</time>
  <course>0.0</course>
  <speed>0.0</speed>
  <fix>3d</fix>
</trkpt>
<trkpt lat="33.810313" lon="-118.393867">
  <ele>-0.11</ele>
  <time>2026-09-01T01:13:26Z</time>
  <course>187.18</course>
  <speed>0.03605551275463989</speed>
  <fix>3d</fix>
</trkpt>
<trkpt lat="33.810313" lon="-118.393867">
  <ele>-0.12</ele>
  <time>2026-09-01T01:13:26Z</time>
  <course>0.0</course>
  <speed>0.0</speed>
  <fix>3d</fix>
</trkpt>
<trkpt lat="33.810313" lon="-118.393867">
  <ele>-0.112</ele>
  <time>2026-09-01T01:13:26Z</time>
  <course>187.18</course>
  <speed>0.03605551275463989</speed>
  <fix>3d</fix>
</trkpt>
<trkpt lat="33.810313" lon="-118.393867">
  <ele>-0.12</ele>
  <time>2026-09-01T01:13:26Z</time>
  <course>0.0</course>
  <speed>0.0</speed>
  <fix>3d</fix>
</trkpt>
<trkpt lat="33.810313" lon="-118.393867">
  <ele>-0.114</ele>
  <time>2026-09-01T01:13:26Z</time>
  <course>187.17</course>
  <speed>0.0</speed>
  <fix>3d</fix>
</trkpt>
<trkpt lat="33.810313" lon="-118.393867">
  <ele>-0.12</ele>
  <time>2026-09-01T01:13:26Z</time>
  <course>0.0</course>
  <speed>0.0</speed>
  <fix>3d</fix>
</trkpt>
<trkpt lat="33.810313" lon="-118.393867">
  <ele>-0.117</ele>
  <time>2026-09-01T01:13:26Z</time>
  <course>187.17</course>
  <speed>0.0</speed>
  <fix>3d</fix>
</trkpt>
<trkpt lat="33.810313" lon="-118.393867">
  <ele>-0.12</ele>
  <time>2026-09-01T01:13:26Z</time>
  <course>0.0</course>
  <speed>0.0</speed>
  <fix>3d</fix>
</trkpt>
<trkpt lat="33.810313" lon="-118.393867">
  <ele>-0.119</ele>
  <time>2026-09-01T01:13:26Z</time>
  <course>187.16</course>
  <speed>0.0</speed>
  <fix>3d</fix>
</trkpt>
<trkpt lat="33.810313" lon="-118.393867">
  <ele>-0.12</ele>
  <time>2026-09-01T01:13:26Z</time>
  <course>0.0</course>
  <speed>0.0</speed>
  <fix>3d</fix>
</trkpt>
<trkpt lat="33.810313" lon="-118.393867">
  <ele>-0.119</ele>
  <time>2026-09-01T01:13:26Z</time>
  <course>187.16</course>
  <speed>0.0</speed>
  <fix>3d</fix>
</trkpt>
<trkpt lat="33.810313" lon="-118.393867">
  <ele>-0.12</ele>
  <time>2026-09-01T01:13:26Z</time>
  <course>0.0</course>
  <speed>0.0</speed>
  <fix>3d</fix>
</trkpt>
<trkpt lat="33.810313" lon="-118.393867">
  <ele>-0.119</ele>
  <time>2026-09-01T01:13:26Z</time>
  <course>187.15</course>
  <speed>0.0</speed>
  <fix>3d</fix>
</trkpt>
<trkpt lat="33.810313" lon="-118.393867">
  <ele>-0.12</ele>
  <time>2026-09-01T01:13:26Z</time>
  <course>0.0</course>
  <speed>0.0</speed>
  <fix>3d</fix>
</trkpt>
<trkpt lat="33.810313" lon="-118.393867">
  <ele>-0.117</ele>
  <time>2026-09-01T01:13:26Z</time>
  <course>187.15</course>
  <speed>0.0</speed>
  <fix>3d</fix>
</trkpt>
<trkpt lat="33.810313" lon="-118.393867">
  <ele>-0.12</ele>
  <time>2026-09-01T01:13:26Z</time>
  <course>0.0</course>
  <speed>0.0</speed>
  <fix>3d</fix>
</trkpt>
<trkpt lat="33.810313" lon="-118.393867">
  <ele>-0.116</ele>
  <time>2026-09-01T01:13:26Z</time>
  <course>187.14</course>
  <speed>0.0</speed>
  <fix>3d</fix>
</trkpt>
<trkpt lat="33.810313" lon="-118.393867">
  <ele>-0.12</ele>
  <time>2026-09-01T01:13:26Z</time>
  <course>0.0</course>
  <speed>0.0</speed>
  <fix>3d</fix>
</trkpt>
<trkpt lat="33.810313" lon="-118.393867">
  <ele>-0.115</ele>
  <time>2026-09-01T01:13:26Z</time>
  <course>187.14</course>
  <speed>0.0</speed>
  <fix>3d</fix>
</trkpt>
<trkpt lat="33.810313" lon="-118.393867">
  <ele>-0.12</ele>
  <time>2026-09-01T01:13:26Z</time>
  <course>0.0</course>
  <speed>0.0</speed>
  <fix>3d</fix>
</trkpt>
<trkpt lat="33.810313" lon="-118.393867">
  <ele>-0.116</ele>
  <time>2026-09-01T01:13:26Z</time>
  <course>187.13</course>
  <speed>0.0</speed>
  <fix>3d</fix>
</trkpt>
<trkpt lat="33.810313" lon="-118.393867">
  <ele>-0.12</ele>
  <time>2026-09-01T01:13:26Z</time>
  <course>0.0</course>
  <speed>0.0</speed>
  <fix>3d</fix>
</trkpt>
<trkpt lat="33.810313" lon="-118.393867">
  <ele>-0.116</ele>
  <time>2026-09-01T01:13:26Z</time>
  <course>187.13</course>
  <speed>0.0</speed>
  <fix>3d</fix>
</trkpt>
<trkpt lat="33.810313" lon="-118.393867">
  <ele>-0.12</ele>
  <time>2026-09-01T01:13:26Z</time>
  <course>0.0</course>
  <speed>0.0</speed>
  <fix>3d</fix>
</trkpt>
<trkpt lat="33.810313" lon="-118.393867">
  <ele>-0.117</ele>
  <time>2026-09-01T01:13:26Z</time>
  <course>187.12</course>
  <speed>0.0</speed>
  <fix>3d</fix>
</trkpt>
<trkpt lat="33.810313" lon="-118.393867">
  <ele>-0.12</ele>
  <time>2026-09-01T01:13:26Z</time>
  <course>0.0</course>
  <speed>0.0</speed>
  <fix>3d</fix>
</trkpt>
<trkpt lat="33.810313" lon="-118.393867">
  <ele>-0.118</ele>
  <time>2026-09-01T01:13:26Z</time>
  <course>187.12</course>
  <speed>0.01</speed>
  <fix>3d</fix>
</trkpt>
<trkpt lat="33.810313" lon="-118.393867">
  <ele>-0.12</ele>
  <time>2026-09-01T01:13:26Z</time>
  <course>0.0</course>
  <speed>0.0</speed>
  <fix>3d</fix>
</trkpt>
<trkpt lat="33.810313" lon="-118.393867">
  <ele>-0.119</ele>
  <time>2026-09-01T01:13:26Z</time>
  <course>187.11</course>
  <speed>0.01</speed>
  <fix>3d</fix>
</trkpt>
<trkpt lat="33.810313" lon="-118.393867">
  <ele>-0.12</ele>
  <time>2026-09-01T01:13:26Z</time>
  <course>0.0</course>
  <speed>0.0</speed>
  <fix>3d</fix>
</trkpt>
<trkpt lat="33.810313" lon="-118.393867">
  <ele>-0.119</ele>
  <time>2026-09-01T01:13:26Z</time>
  <course>187.11</course>
  <speed>0.01</speed>
  <fix>3d</fix>
</trkpt>
<trkpt lat="33.810313" lon="-118.393867">
  <ele>-0.12</ele>
  <time>2026-09-01T01:13:26Z</time>
  <course>0.0</course>
  <speed>0.0</speed>
  <fix>3d</fix>
</trkpt>
<trkpt lat="33.810313" lon="-118.393867">
  <ele>-0.118</ele>
  <time>2026-09-01T01:13:26Z</time>
  <course>187.1</course>
  <speed>0.01414213562373095</speed>
  <fix>3d</fix>
</trkpt>
<trkpt lat="33.810313" lon="-118.393867">
  <ele>-0.12</ele>
  <time>2026-09-01T01:13:26Z</time>
  <course>0.0</course>
  <speed>0.0</speed>
  <fix>3d</fix>
</trkpt>
<trkpt lat="33.810313" lon="-118.393867">
  <ele>-0.117</ele>
  <time>2026-09-01T01:13:26Z</time>
  <course>187.1</course>
  <speed>0.01414213562373095</speed>
  <fix>3d</fix>
</trkpt>
<trkpt lat="33.810313" lon="-118.393867">
  <ele>-0.12</ele>
  <time>2026-09-01T01:13:26Z</time>
  <course>0.0</course>
  <speed>0.0</speed>
  <fix>3d</fix>
</trkpt>
<trkpt lat="33.810313" lon="-118.393867">
  <ele>-0.116</ele>
  <time>2026-09-01T01:13:26Z</time>
  <course>187.09</course>
  <speed>0.01414213562373095</speed>
  <fix>3d</fix>
</trkpt>
<trkpt lat="33.810313" lon="-118.393867">
  <ele>-0.12</ele>
  <time>2026-09-01T01:13:26Z</time>
  <course>0.0</course>
  <speed>0.0</speed>
  <fix>3d</fix>
</trkpt>
<trkpt lat="33.810313" lon="-118.393867">
  <ele>-0.115</ele>
  <time>2026-09-01T01:13:26Z</time>
  <course>187.09</course>
  <speed>0.01414213562373095</speed>
  <fix>3d</fix>
</trkpt>
<trkpt lat="33.810313" lon="-118.393867">
  <ele>-0.12</ele>
  <time>2026-09-01T01:13:26Z</time>
  <course>0.0</course>
  <speed>0.0</speed>
  <fix>3d</fix>
</trkpt>
<trkpt lat="33.810313" lon="-118.393867">
  <ele>-0.115</ele>
  <time>2026-09-01T01:13:26Z</time>
  <course>187.08</course>
  <speed>0.01414213562373095</speed>
  <fix>3d</fix>
</trkpt>
<trkpt lat="33.810313" lon="-118.393867">
  <ele>-0.12</ele>
  <time>2026-09-01T01:13:26Z</time>
  <course>0.0</course>
  <speed>0.0</speed>
  <fix>3d</fix>
</trkpt>
<trkpt lat="33.810313" lon="-118.393867">
  <ele>-0.116</ele>
  <time>2026-09-01T01:13:26Z</time>
  <course>187.08</course>
  <speed>0.01414213562373095</speed>
  <fix>3d</fix>
</trkpt>
<trkpt lat="33.810313" lon="-118.393867">
  <ele>-0.12</ele>
  <time>2026-09-01T01:13:26Z</time>
  <course>0.0</course>
  <speed>0.0</speed>
  <fix>3d</fix>
</trkpt>
<trkpt lat="33.810313" lon="-118.393867">
  <ele>-0.118</ele>
  <time>2026-09-01T01:13:26Z</time>
  <course>187.07</course>
  <speed>0.01414213562373095</speed>
  <fix>3d</fix>
</trkpt>
<trkpt lat="33.810313" lon="-118.393867">
  <ele>-0.12</ele>
  <time>2026-09-01T01:13:26Z</time>
  <course>0.0</course>
  <speed>0.0</speed>
  <fix>3d</fix>
</trkpt>
<trkpt lat="33.810313" lon="-118.393867">
  <ele>-0.12</ele>
  <time>2026-09-01T01:13:26Z</time>
  <course>187.07</course>
  <speed>0.022360679774997897</speed>
  <fix>3d</fix>
</trkpt>
<trkpt lat="33.810313" lon="-118.393867">
  <ele>-0.12</ele>
  <time>2026-09-01T01:13:26Z</time>
  <course>0.0</course>
  <speed>0.0</speed>
  <fix>3d</fix>
</trkpt>
<trkpt lat="33.810313" lon="-118.393867">
  <ele>-0.122</ele>
  <time>2026-09-01T01:13:26Z</time>
  <course>187.06</course>
  <speed>0.022360679774997897</speed>
  <fix>3d</fix>
</trkpt>
<trkpt lat="33.810313" lon="-118.393867">
  <ele>-0.12</ele>
  <time>2026-09-01T01:13:26Z</time>
  <course>0.0</course>
  <speed>0.0</speed>
  <fix>3d</fix>
</trkpt>
<trkpt lat="33.810313" lon="-118.393867">
  <ele>-0.123</ele>
  <time>2026-09-01T01:13:26Z</time>
  <course>187.06</course>
  <speed>0.022360679774997897</speed>
  <fix>3d</fix>
</trkpt>
<trkpt lat="33.810313" lon="-118.393867">
  <ele>-0.12</ele>
  <time>2026-09-01T01:13:26Z</time>
  <course>0.0</course>
  <speed>0.0</speed>
  <fix>3d</fix>
</trkpt>
<trkpt lat="33.810313" lon="-118.393867">
  <ele>-0.122</ele>
  <time>2026-09-01T01:13:26Z</time>
  <course>187.05</course>
  <speed>0.022360679774997897</speed>
  <fix>3d</fix>
</trkpt>
<trkpt lat="33.810313" lon="-118.393867">
  <ele>-0.12</ele>
  <time>2026-09-01T01:13:26Z</time>
  <course>0.0</course>
  <speed>0.0</speed>
  <fix>3d</fix>
</trkpt>
<trkpt lat="33.810313" lon="-118.393867">
  <ele>-0.121</ele>
  <time>2026-09-01T01:13:26Z</time>
  <course>187.05</course>
  <speed>0.022360679774997897</speed>
  <fix>3d</fix>
</trkpt>
<trkpt lat="33.810313" lon="-118.393867">
  <ele>-0.12</ele>
  <time>2026-09-01T01:13:26Z</time>
  <course>0.0</course>
  <speed>0.0</speed>
  <fix>3d</fix>
</trkpt>
<trkpt lat="33.8103131" lon="-118.393867">
  <ele>-0.119</ele>
  <time>2026-09-01T01:13:26Z</time>
  <course>187.04</course>
  <speed>0.022360679774997897</speed>
  <fix>3d</fix>
</trkpt>
<trkpt lat="33.810313" lon="-118.393867">
  <ele>-0.12</ele>
  <time>2026-09-01T01:13:26Z</time>
  <course>0.0</course>
  <speed>0.0</speed>
  <fix>3d</fix>
</trkpt>
<trkpt lat="33.8103131" lon="-118.3938671">
  <ele>-0.118</ele>
  <time>2026-09-01T01:13:26Z</time>
  <course>187.04</course>
  <speed>0.022360679774997897</speed>
  <fix>3d</fix>
</trkpt>
<trkpt lat="33.810313" lon="-118.393867">
  <ele>-0.12</ele>
  <time>2026-09-01T01:13:26Z</time>
  <course>0.0</course>
  <speed>0.0</speed>
  <fix>3d</fix>
</trkpt>
<trkpt lat="33.8103131" lon="-118.3938671">
  <ele>-0.118</ele>
  <time>2026-09-01T01:13:26Z</time>
  <course>187.03</course>
  <speed>0.0282842712474619</speed>
  <fix>3d</fix>
</trkpt>
<trkpt lat="33.810313" lon="-118.393867">
  <ele>-0.12</ele>
  <time>2026-09-01T01:13:26Z</time>
  <course>0.0</course>
  <speed>0.0</speed>
  <fix>3d</fix>
</trkpt>
<trkpt lat="33.8103131" lon="-118.3938671">
  <ele>-0.119</ele>
  <time>2026-09-01T01:13:26Z</time>
  <course>187.03</course>
  <speed>0.0282842712474619</speed>
  <fix>3d</fix>
</trkpt>
<trkpt lat="33.810313" lon="-118.393867">
  <ele>-0.12</ele>
  <time>2026-09-01T01:13:26Z</time>
  <course>0.0</course>
  <speed>0.0</speed>
  <fix>3d</fix>
</trkpt>
<trkpt lat="33.8103131" lon="-118.3938671">
  <ele>-0.12</ele>
  <time>2026-09-01T01:13:26Z</time>
  <course>187.02</course>
  <speed>0.0282842712474619</speed>
  <fix>3d</fix>
</trkpt>
<trkpt lat="33.810313" lon="-118.393867">
  <ele>-0.12</ele>
  <time>2026-09-01T01:13:26Z</time>
  <course>0.0</course>
  <speed>0.0</speed>
  <fix>3d</fix>
</trkpt>
<trkpt lat="33.8103131" lon="-118.3938671">
  <ele>-0.12</ele>
  <time>2026-09-01T01:13:26Z</time>
  <course>187.02</course>
  <speed>0.0282842712474619</speed>
  <fix>3d</fix>
</trkpt>
<trkpt lat="33.810313" lon="-118.393867">
  <ele>-0.12</ele>
  <time>2026-09-01T01:13:26Z</time>
  <course>0.0</course>
  <speed>0.0</speed>
  <fix>3d</fix>
</trkpt>
<trkpt lat="33.8103131" lon="-118.3938671">
  <ele>-0.12</ele>
  <time>2026-09-01T01:13:26Z</time>
  <course>187.01</course>
  <speed>0.0282842712474619</speed>
  <fix>3d</fix>
</trkpt>
<trkpt lat="33.810313" lon="-118.393867">
  <ele>-0.12</ele>
  <time>2026-09-01T01:13:26Z</time>
  <course>0.0</course>
  <speed>0.0</speed>
  <fix>3d</fix>
</trkpt>
<trkpt lat="33.8103131" lon="-118.3938671">
  <ele>-0.12</ele>
  <time>2026-09-01T01:13:26Z</time>
  <course>187.01</course>
  <speed>0.0282842712474619</speed>
  <fix>3d</fix>
</trkpt>
<trkpt lat="33.810313" lon="-118.393867">
  <ele>-0.12</ele>
  <time>2026-09-01T01:13:26Z</time>
  <course>0.0</course>
  <speed>0.0</speed>
  <fix>3d</fix>
</trkpt>
<trkpt lat="33.8103131" lon="-118.3938671">
  <ele>-0.119</ele>
  <time>2026-09-01T01:13:26Z</time>
  <course>187.0</course>
  <speed>0.0282842712474619</speed>
  <fix>3d</fix>
</trkpt>
<trkpt lat="33.810313" lon="-118.393867">
  <ele>-0.12</ele>
  <time>2026-09-01T01:13:26Z</time>
  <course>0.0</course>
  <speed>0.0</speed>
  <fix>3d</fix>
</trkpt>
<trkpt lat="33.8103131" lon="-118.3938671">
  <ele>-0.118</ele>
  <time>2026-09-01T01:13:26Z</time>
  <course>187.0</course>
  <speed>0.03605551275463989</speed>
  <fix>3d</fix>
</trkpt>
<trkpt lat="33.810313" lon="-118.393867">
  <ele>-0.12</ele>
  <time>2026-09-01T01:13:26Z</time>
  <course>0.0</course>
  <speed>0.0</speed>
  <fix>3d</fix>
</trkpt>
<trkpt lat="33.8103131" lon="-118.3938671">
  <ele>-0.116</ele>
  <time>2026-09-01T01:13:26Z</time>
  <course>186.99</course>
  <speed>0.03605551275463989</speed>
  <fix>3d</fix>
</trkpt>
<trkpt lat="33.810313" lon="-118.393867">
  <ele>-0.12</ele>
  <time>2026-09-01T01:13:26Z</time>
  <course>0.0</course>
  <speed>0.0</speed>
  <fix>3d</fix>
</trkpt>
<trkpt lat="33.8103131" lon="-118.3938671">
  <ele>-0.114</ele>
  <time>2026-09-01T01:13:26Z</time>
  <course>186.99</course>
  <speed>0.03605551275463989</speed>
  <fix>3d</fix>
</trkpt>
<trkpt lat="33.810313" lon="-118.393867">
  <ele>-0.12</ele>
  <time>2026-09-01T01:13:26Z</time>
  <course>0.0</course>
  <speed>0.0</speed>
  <fix>3d</fix>
</trkpt>
<trkpt lat="33.8103131" lon="-118.3938671">
  <ele>-0.113</ele>
  <time>2026-09-01T01:13:26Z</time>
  <course>186.98</course>
  <speed>0.03605551275463989</speed>
  <fix>3d</fix>
</trkpt>
<trkpt lat="33.810313" lon="-118.393867">
  <ele>-0.12</ele>
  <time>2026-09-01T01:13:26Z</time>
  <course>0.0</course>
  <speed>0.0</speed>
  <fix>3d</fix>
</trkpt>
<trkpt lat="33.8103131" lon="-118.3938671">
  <ele>-0.111</ele>
  <time>2026-09-01T01:13:26Z</time>
  <course>186.98</course>
  <speed>0.03605551275463989</speed>
  <fix>3d</fix>
</trkpt>
<trkpt lat="33.810313" lon="-118.393867">
  <ele>-0.12</ele>
  <time>2026-09-01T01:13:26Z</time>
  <course>0.0</course>
  <speed>0.0</speed>
  <fix>3d</fix>
</trkpt>
<trkpt lat="33.8103131" lon="-118.3938671">
  <ele>-0.11</ele>
  <time>2026-09-01T01:13:26Z</time>
  <course>186.98</course>
  <speed>0.0282842712474619</speed>
  <fix>3d</fix>
</trkpt>
<trkpt lat="33.810313" lon="-118.393867">
  <ele>-0.12</ele>
  <time>2026-09-01T01:13:26Z</time>
  <course>0.0</course>
  <speed>0.0</speed>
  <fix>3d</fix>
</trkpt>
<trkpt lat="33.8103131" lon="-118.3938671">
  <ele>-0.11</ele>
  <time>2026-09-01T01:13:26Z</time>
  <course>186.97</course>
  <speed>0.0282842712474619</speed>
  <fix>3d</fix>
</trkpt>
<trkpt lat="33.810313" lon="-118.393867">
  <ele>-0.12</ele>
  <time>2026-09-01T01:13:26Z</time>
  <course>0.0</course>
  <speed>0.0</speed>
  <fix>3d</fix>
</trkpt>
<trkpt lat="33.8103131" lon="-118.3938671">
  <ele>-0.112</ele>
  <time>2026-09-01T01:13:26Z</time>
  <course>186.97</course>
  <speed>0.0282842712474619</speed>
  <fix>3d</fix>
</trkpt>
<trkpt lat="33.810313" lon="-118.393867">
  <ele>-0.12</ele>
  <time>2026-09-01T01:13:26Z</time>
  <course>0.0</course>
  <speed>0.0</speed>
  <fix>3d</fix>
</trkpt>
<trkpt lat="33.8103131" lon="-118.3938671">
  <ele>-0.112</ele>
  <time>2026-09-01T01:13:26Z</time>
  <course>186.97</course>
  <speed>0.0282842712474619</speed>
  <fix>3d</fix>
</trkpt>
<trkpt lat="33.8103131" lon="-118.3938671">
  <ele>-0.117</ele>
  <time>2026-09-01T01:13:26Z</time>
  <course>186.96</course>
  <speed>0.022360679774997897</speed>
  <fix>3d</fix>
</trkpt>
<trkpt lat="33.810313" lon="-118.393867">
  <ele>-0.12</ele>
  <time>2026-09-01T01:13:26Z</time>
  <course>0.0</course>
  <speed>0.0</speed>
  <fix>3d</fix>
</trkpt>
<trkpt lat="33.8103131" lon="-118.3938671">
  <ele>-0.143</ele>
  <time>2026-09-01T01:13:26Z</time>
  <course>186.96</course>
  <speed>0.022360679774997897</speed>
  <fix>3d</fix>
</trkpt>
<trkpt lat="33.810313" lon="-118.393867">
  <ele>-0.12</ele>
  <time>2026-09-01T01:13:26Z</time>
  <course>0.0</course>
  <speed>0.0</speed>
  <fix>3d</fix>
</trkpt>
<trkpt lat="33.8103131" lon="-118.3938671">
  <ele>-0.185</ele>
  <time>2026-09-01T01:13:26Z</time>
  <course>186.95</course>
  <speed>0.022360679774997897</speed>
  <fix>3d</fix>
</trkpt>
<trkpt lat="33.810313" lon="-118.393867">
  <ele>-0.12</ele>
  <time>2026-09-01T01:13:26Z</time>
  <course>0.0</course>
  <speed>0.0</speed>
  <fix>3d</fix>
</trkpt>
<trkpt lat="33.8103131" lon="-118.3938671">
  <ele>-0.239</ele>
  <time>2026-09-01T01:13:26Z</time>
  <course>186.95</course>
  <speed>0.022360679774997897</speed>
  <fix>3d</fix>
</trkpt>
<trkpt lat="33.810313" lon="-118.393867">
  <ele>-0.16</ele>
  <time>2026-09-01T01:13:26Z</time>
  <course>0.0</course>
  <speed>0.0</speed>
  <fix>3d</fix>
</trkpt>
<trkpt lat="33.8103131" lon="-118.3938671">
  <ele>-0.241</ele>
  <time>2026-09-01T01:13:26Z</time>
  <course>186.95</course>
  <speed>0.022360679774997897</speed>
  <fix>3d</fix>
</trkpt>
<trkpt lat="33.8103131" lon="-118.3938671">
  <ele>-0.299</ele>
  <time>2026-09-01T01:13:26Z</time>
  <course>186.95</course>
  <speed>0.01414213562373095</speed>
  <fix>3d</fix>
</trkpt>
<trkpt lat="33.810313" lon="-118.393867">
  <ele>-0.16</ele>
  <time>2026-09-01T01:13:26Z</time>
  <course>0.0</course>
  <speed>0.0</speed>
  <fix>3d</fix>
</trkpt>
<trkpt lat="33.8103131" lon="-118.3938671">
  <ele>-0.301</ele>
  <time>2026-09-01T01:13:26Z</time>
  <course>186.95</course>
  <speed>0.01414213562373095</speed>
  <fix>3d</fix>
</trkpt>
<trkpt lat="33.8103131" lon="-118.3938671">
  <ele>-0.362</ele>
  <time>2026-09-01T01:13:26Z</time>
  <course>186.94</course>
  <speed>0.01414213562373095</speed>
  <fix>3d</fix>
</trkpt>
<trkpt lat="33.810313" lon="-118.393867">
  <ele>-0.26</ele>
  <time>2026-09-01T01:13:26Z</time>
  <course>0.0</course>
  <speed>0.0</speed>
  <fix>3d</fix>
</trkpt>
<trkpt lat="33.8103131" lon="-118.3938671">
  <ele>-0.364</ele>
  <time>2026-09-01T01:13:26Z</time>
  <course>186.94</course>
  <speed>0.01414213562373095</speed>
  <fix>3d</fix>
</trkpt>
<trkpt lat="33.8103131" lon="-118.3938671">
  <ele>-0.427</ele>
  <time>2026-09-01T01:13:26Z</time>
  <course>186.94</course>
  <speed>0.01414213562373095</speed>
  <fix>3d</fix>
</trkpt>
<trkpt lat="33.810313" lon="-118.393867">
  <ele>-0.26</ele>
  <time>2026-09-01T01:13:26Z</time>
  <course>0.0</course>
  <speed>0.0</speed>
  <fix>3d</fix>
</trkpt>
<trkpt lat="33.8103131" lon="-118.3938671">
  <ele>-0.448</ele>
  <time>2026-09-01T01:13:26Z</time>
  <course>186.94</course>
  <speed>0.01414213562373095</speed>
  <fix>3d</fix>
</trkpt>
<trkpt lat="33.8103131" lon="-118.3938671">
  <ele>-0.495</ele>
  <time>2026-09-01T01:13:26Z</time>
  <course>186.93</course>
  <speed>0.01</speed>
  <fix>3d</fix>
</trkpt>
<trkpt lat="33.810313" lon="-118.393867">
  <ele>-0.37</ele>
  <time>2026-09-01T01:13:26Z</time>
  <course>0.0</course>
  <speed>0.0</speed>
  <fix>3d</fix>
</trkpt>
<trkpt lat="33.8103131" lon="-118.3938671">
  <ele>-0.517</ele>
  <time>2026-09-01T01:13:26Z</time>
  <course>186.93</course>
  <speed>0.01</speed>
  <fix>3d</fix>
</trkpt>
<trkpt lat="33.8103131" lon="-118.3938671">
  <ele>-0.561</ele>
  <time>2026-09-01T01:13:26Z</time>
  <course>186.93</course>
  <speed>0.01</speed>
  <fix>3d</fix>
</trkpt>
<trkpt lat="33.810313" lon="-118.393867">
  <ele>-0.37</ele>
  <time>2026-09-01T01:13:26Z</time>
  <course>0.0</course>
  <speed>0.0</speed>
  <fix>3d</fix>
</trkpt>
<trkpt lat="33.8103131" lon="-118.3938671">
  <ele>-0.581</ele>
  <time>2026-09-01T01:13:26Z</time>
  <course>186.93</course>
  <speed>0.0</speed>
  <fix>3d</fix>
</trkpt>
<trkpt lat="33.8103131" lon="-118.3938671">
  <ele>-0.627</ele>
  <time>2026-09-01T01:13:26Z</time>
  <course>186.93</course>
  <speed>0.0</speed>
  <fix>3d</fix>
</trkpt>
<trkpt lat="33.810313" lon="-118.393867">
  <ele>-0.49</ele>
  <time>2026-09-01T01:13:26Z</time>
  <course>0.0</course>
  <speed>0.0</speed>
  <fix>3d</fix>
</trkpt>
<trkpt lat="33.8103131" lon="-118.3938671">
  <ele>-0.649</ele>
  <time>2026-09-01T01:13:26Z</time>
  <course>186.92</course>
  <speed>0.0</speed>
  <fix>3d</fix>
</trkpt>
<trkpt lat="33.8103131" lon="-118.3938671">
  <ele>-0.693</ele>
  <time>2026-09-01T01:13:26Z</time>
  <course>186.92</course>
  <speed>0.0</speed>
  <fix>3d</fix>
</trkpt>
<trkpt lat="33.810313" lon="-118.393867">
  <ele>-0.49</ele>
  <time>2026-09-01T01:13:26Z</time>
  <course>0.0</course>
  <speed>0.0</speed>
  <fix>3d</fix>
</trkpt>
<trkpt lat="33.8103131" lon="-118.3938671">
  <ele>-0.695</ele>
  <time>2026-09-01T01:13:26Z</time>
  <course>186.92</course>
  <speed>0.0</speed>
  <fix>3d</fix>
</trkpt>
<trkpt lat="33.8103131" lon="-118.3938671">
  <ele>-0.76</ele>
  <time>2026-09-01T01:13:26Z</time>
  <course>184.85</course>
  <speed>0.0</speed>
  <fix>3d</fix>
</trkpt>
<trkpt lat="33.810313" lon="-118.393867">
  <ele>-0.61</ele>
  <time>2026-09-01T01:13:26Z</time>
  <course>0.0</course>
  <speed>0.0</speed>
  <fix>3d</fix>
</trkpt>
<trkpt lat="33.8103131" lon="-118.3938671">
  <ele>-0.779</ele>
  <time>2026-09-01T01:13:26Z</time>
  <course>184.85</course>
  <speed>0.0</speed>
  <fix>3d</fix>
</trkpt>
<trkpt lat="33.8103131" lon="-118.3938671">
  <ele>-0.825</ele>
  <time>2026-09-01T01:13:26Z</time>
  <course>184.84</course>
  <speed>0.0</speed>
  <fix>3d</fix>
</trkpt>
<trkpt lat="33.810313" lon="-118.393867">
  <ele>-0.61</ele>
  <time>2026-09-01T01:13:26Z</time>
  <course>0.0</course>
  <speed>0.0</speed>
  <fix>3d</fix>
</trkpt>
<trkpt lat="33.8103131" lon="-118.3938671">
  <ele>-0.826</ele>
  <time>2026-09-01T01:13:26Z</time>
  <course>184.84</course>
  <speed>0.0</speed>
  <fix>3d</fix>
</trkpt>
<trkpt lat="33.8103131" lon="-118.3938671">
  <ele>-0.889</ele>
  <time>2026-09-01T01:13:26Z</time>
  <course>184.85</course>
  <speed>0.0</speed>
  <fix>3d</fix>
</trkpt>
<trkpt lat="33.810313" lon="-118.393867">
  <ele>-0.73</ele>
  <time>2026-09-01T01:13:26Z</time>
  <course>0.0</course>
  <speed>0.0</speed>
  <fix>3d</fix>
</trkpt>
<trkpt lat="33.8103131" lon="-118.3938671">
  <ele>-0.909</ele>
  <time>2026-09-01T01:13:26Z</time>
  <course>184.85</course>
  <speed>0.0</speed>
  <fix>3d</fix>
</trkpt>
<trkpt lat="33.8103131" lon="-118.3938671">
  <ele>-0.953</ele>
  <time>2026-09-01T01:13:26Z</time>
  <course>184.86</course>
  <speed>0.0</speed>
  <fix>3d</fix>
</trkpt>
<trkpt lat="33.810313" lon="-118.393867">
  <ele>-0.73</ele>
  <time>2026-09-01T01:13:26Z</time>
  <course>0.0</course>
  <speed>0.0</speed>
  <fix>3d</fix>
</trkpt>
<trkpt lat="33.8103131" lon="-118.3938671">
  <ele>-0.973</ele>
  <time>2026-09-01T01:13:26Z</time>
  <course>184.86</course>
  <speed>0.0</speed>
  <fix>3d</fix>
</trkpt>
<trkpt lat="33.8103131" lon="-118.3938671">
  <ele>-1.016</ele>
  <time>2026-09-01T01:13:26Z</time>
  <course>184.87</course>
  <speed>0.0</speed>
  <fix>3d</fix>
</trkpt>
<trkpt lat="33.810313" lon="-118.393867">
  <ele>-0.86</ele>
  <time>2026-09-01T01:13:26Z</time>
  <course>0.0</course>
  <speed>0.0</speed>
  <fix>3d</fix>
</trkpt>
<trkpt lat="33.8103131" lon="-118.3938671">
  <ele>-1.017</ele>
  <time>2026-09-01T01:13:26Z</time>
  <course>184.87</course>
  <speed>0.0</speed>
  <fix>3d</fix>
</trkpt>
<trkpt lat="33.8103131" lon="-118.3938671">
  <ele>-1.078</ele>
  <time>2026-09-01T01:13:26Z</time>
  <course>184.88</course>
  <speed>0.0</speed>
  <fix>3d</fix>
</trkpt>
<trkpt lat="33.810313" lon="-118.393867">
  <ele>-0.86</ele>
  <time>2026-09-01T01:13:26Z</time>
  <course>0.0</course>
  <speed>0.0</speed>
  <fix>3d</fix>
</trkpt>
<trkpt lat="33.8103131" lon="-118.3938671">
  <ele>-1.08</ele>
  <time>2026-09-01T01:13:26Z</time>
  <course>184.88</course>
  <speed>0.0</speed>
  <fix>3d</fix>
</trkpt>
<trkpt lat="33.8103131" lon="-118.3938671">
  <ele>-1.141</ele>
  <time>2026-09-01T01:13:26Z</time>
  <course>184.89</course>
  <speed>0.0</speed>
  <fix>3d</fix>
</trkpt>
<trkpt lat="33.810313" lon="-118.393867">
  <ele>-0.98</ele>
  <time>2026-09-01T01:13:26Z</time>
  <course>0.0</course>
  <speed>0.0</speed>
  <fix>3d</fix>
</trkpt>
<trkpt lat="33.8103131" lon="-118.3938671">
  <ele>-1.156</ele>
  <time>2026-09-01T01:13:26Z</time>
  <course>184.89</course>
  <speed>0.0</speed>
  <fix>3d</fix>
</trkpt>
<trkpt lat="33.8103131" lon="-118.3938671">
  <ele>-1.203</ele>
  <time>2026-09-01T01:13:26Z</time>
  <course>184.9</course>
  <speed>0.0</speed>
  <fix>3d</fix>
</trkpt>
<trkpt lat="33.810313" lon="-118.393867">
  <ele>-0.98</ele>
  <time>2026-09-01T01:13:26Z</time>
  <course>0.0</course>
  <speed>0.0</speed>
  <fix>3d</fix>
</trkpt>
<trkpt lat="33.8103131" lon="-118.3938671">
  <ele>-1.224</ele>
  <time>2026-09-01T01:13:26Z</time>
  <course>184.9</course>
  <speed>0.0</speed>
  <fix>3d</fix>
</trkpt>
<trkpt lat="33.8103131" lon="-118.3938671">
  <ele>-1.264</ele>
  <time>2026-09-01T01:13:26Z</time>
  <course>184.91</course>
  <speed>0.0</speed>
  <fix>3d</fix>
</trkpt>
<trkpt lat="33.810313" lon="-118.393867">
  <ele>-1.09</ele>
  <time>2026-09-01T01:13:26Z</time>
  <course>0.0</course>
  <speed>0.0</speed>
  <fix>3d</fix>
</trkpt>
<trkpt lat="33.8103131" lon="-118.3938671">
  <ele>-1.282</ele>
  <time>2026-09-01T01:13:26Z</time>
  <course>184.91</course>
  <speed>0.0</speed>
  <fix>3d</fix>
</trkpt>
<trkpt lat="33.8103131" lon="-118.3938671">
  <ele>-1.324</ele>
  <time>2026-09-01T01:13:26Z</time>
  <course>184.92</course>
  <speed>0.0</speed>
  <fix>3d</fix>
</trkpt>
<trkpt lat="33.810313" lon="-118.393867">
  <ele>-1.09</ele>
  <time>2026-09-01T01:13:26Z</time>
  <course>0.0</course>
  <speed>0.0</speed>
  <fix>3d</fix>
</trkpt>
<trkpt lat="33.8103131" lon="-118.3938671">
  <ele>-1.342</ele>
  <time>2026-09-01T01:13:26Z</time>
  <course>184.92</course>
  <speed>0.0</speed>
  <fix>3d</fix>
</trkpt>
<trkpt lat="33.8103131" lon="-118.3938671">
  <ele>-1.385</ele>
  <time>2026-09-01T01:13:26Z</time>
  <course>184.93</course>
  <speed>0.0</speed>
  <fix>3d</fix>
</trkpt>
<trkpt lat="33.810313" lon="-118.393867">
  <ele>-1.22</ele>
  <time>2026-09-01T01:13:26Z</time>
  <course>0.0</course>
  <speed>0.0</speed>
  <fix>3d</fix>
</trkpt>
<trkpt lat="33.8103131" lon="-118.3938671">
  <ele>-1.404</ele>
  <time>2026-09-01T01:13:26Z</time>
  <course>184.93</course>
  <speed>0.0</speed>
  <fix>3d</fix>
</trkpt>
<trkpt lat="33.8103131" lon="-118.3938671">
  <ele>-1.446</ele>
  <time>2026-09-01T01:13:26Z</time>
  <course>184.94</course>
  <speed>0.0</speed>
  <fix>3d</fix>
</trkpt>
<trkpt lat="33.810313" lon="-118.393867">
  <ele>-1.22</ele>
  <time>2026-09-01T01:13:26Z</time>
  <course>0.0</course>
  <speed>0.0</speed>
  <fix>3d</fix>
</trkpt>
<trkpt lat="33.8103131" lon="-118.3938671">
  <ele>-1.467</ele>
  <time>2026-09-01T01:13:26Z</time>
  <course>184.94</course>
  <speed>0.0</speed>
  <fix>3d</fix>
</trkpt>
<trkpt lat="33.810313" lon="-118.3938671">
  <ele>-1.506</ele>
  <time>2026-09-01T01:13:26Z</time>
  <course>184.95</course>
  <speed>0.0</speed>
  <fix>3d</fix>
</trkpt>
<trkpt lat="33.810313" lon="-118.393867">
  <ele>-1.33</ele>
  <time>2026-09-01T01:13:26Z</time>
  <course>0.0</course>
  <speed>0.0</speed>
  <fix>3d</fix>
</trkpt>
<trkpt lat="33.810313" lon="-118.3938671">
  <ele>-1.507</ele>
  <time>2026-09-01T01:13:26Z</time>
  <course>184.95</course>
  <speed>0.0</speed>
  <fix>3d</fix>
</trkpt>
<trkpt lat="33.810313" lon="-118.393867">
  <ele>-1.568</ele>
  <time>2026-09-01T01:13:26Z</time>
  <course>184.96</course>
  <speed>0.0</speed>
  <fix>3d</fix>
</trkpt>
<trkpt lat="33.810313" lon="-118.393867">
  <ele>-1.33</ele>
  <time>2026-09-01T01:13:26Z</time>
  <course>0.0</course>
  <speed>0.0</speed>
  <fix>3d</fix>
</trkpt>
<trkpt lat="33.810313" lon="-118.393867">
  <ele>-1.569</ele>
  <time>2026-09-01T01:13:26Z</time>
  <course>184.96</course>
  <speed>0.0</speed>
  <fix>3d</fix>
</trkpt>
<trkpt lat="33.810313" lon="-118.393867">
  <ele>-1.629</ele>
  <time>2026-09-01T01:13:26Z</time>
  <course>184.97</course>
  <speed>0.0</speed>
  <fix>3d</fix>
</trkpt>
<trkpt lat="33.810313" lon="-118.393867">
  <ele>-1.46</ele>
  <time>2026-09-01T01:13:26Z</time>
  <course>0.0</course>
  <speed>0.0</speed>
  <fix>3d</fix>
</trkpt>
<trkpt lat="33.810313" lon="-118.393867">
  <ele>-1.631</ele>
  <time>2026-09-01T01:13:26Z</time>
  <course>184.97</course>
  <speed>0.0</speed>
  <fix>3d</fix>
</trkpt>
<trkpt lat="33.810313" lon="-118.393867">
  <ele>-1.691</ele>
  <time>2026-09-01T01:13:26Z</time>
  <course>184.98</course>
  <speed>0.0</speed>
  <fix>3d</fix>
</trkpt>
<trkpt lat="33.810313" lon="-118.393867">
  <ele>-1.46</ele>
  <time>2026-09-01T01:13:26Z</time>
  <course>0.0</course>
  <speed>0.0</speed>
  <fix>3d</fix>
</trkpt>
<trkpt lat="33.810313" lon="-118.393867">
  <ele>-1.692</ele>
  <time>2026-09-01T01:13:26Z</time>
  <course>184.98</course>
  <speed>0.0</speed>
  <fix>3d</fix>
</trkpt>
<trkpt lat="33.810313" lon="-118.393867">
  <ele>-1.752</ele>
  <time>2026-09-01T01:13:26Z</time>
  <course>184.99</course>
  <speed>0.0</speed>
  <fix>3d</fix>
</trkpt>
<trkpt lat="33.810313" lon="-118.393867">
  <ele>-1.57</ele>
  <time>2026-09-01T01:13:26Z</time>
  <course>0.0</course>
  <speed>0.0</speed>
  <fix>3d</fix>
</trkpt>
<trkpt lat="33.810313" lon="-118.393867">
  <ele>-1.77</ele>
  <time>2026-09-01T01:13:26Z</time>
  <course>184.99</course>
  <speed>0.0</speed>
  <fix>3d</fix>
</trkpt>
<trkpt lat="33.810313" lon="-118.393867">
  <ele>-1.813</ele>
  <time>2026-09-01T01:13:26Z</time>
  <course>184.99</course>
  <speed>0.0</speed>
  <fix>3d</fix>
</trkpt>
<trkpt lat="33.810313" lon="-118.393867">
  <ele>-1.57</ele>
  <time>2026-09-01T01:13:26Z</time>
  <course>0.0</course>
  <speed>0.0</speed>
  <fix>3d</fix>
</trkpt>
<trkpt lat="33.810313" lon="-118.393867">
  <ele>-1.835</ele>
  <time>2026-09-01T01:13:26Z</time>
  <course>185.0</course>
  <speed>0.0</speed>
  <fix>3d</fix>
</trkpt>
<trkpt lat="33.810313" lon="-118.393867">
  <ele>-1.875</ele>
  <time>2026-09-01T01:13:26Z</time>
  <course>185.0</course>
  <speed>0.0</speed>
  <fix>3d</fix>
</trkpt>
<trkpt lat="33.810313" lon="-118.393867">
  <ele>-1.7</ele>
  <time>2026-09-01T01:13:26Z</time>
  <course>0.0</course>
  <speed>0.0</speed>
  <fix>3d</fix>
</trkpt>
<trkpt lat="33.810313" lon="-118.393867">
  <ele>-1.894</ele>
  <time>2026-09-01T01:13:26Z</time>
  <course>185.01</course>
  <speed>0.0</speed>
  <fix>3d</fix>
</trkpt>
<trkpt lat="33.810313" lon="-118.393867">
  <ele>-1.938</ele>
  <time>2026-09-01T01:13:26Z</time>
  <course>185.01</course>
  <speed>0.0</speed>
  <fix>3d</fix>
</trkpt>
<trkpt lat="33.810313" lon="-118.393867">
  <ele>-1.7</ele>
  <time>2026-09-01T01:13:26Z</time>
  <course>0.0</course>
  <speed>0.0</speed>
  <fix>3d</fix>
</trkpt>
<trkpt lat="33.810313" lon="-118.393867">
  <ele>-1.958</ele>
  <time>2026-09-01T01:13:26Z</time>
  <course>185.02</course>
  <speed>0.0</speed>
  <fix>3d</fix>
</trkpt>
<trkpt lat="33.810313" lon="-118.393867">
  <ele>-2.0</ele>
  <time>2026-09-01T01:13:26Z</time>
  <course>185.02</course>
  <speed>0.0</speed>
  <fix>3d</fix>
</trkpt>
<trkpt lat="33.810313" lon="-118.393867">
  <ele>-1.81</ele>
  <time>2026-09-01T01:13:26Z</time>
  <course>0.0</course>
  <speed>0.0</speed>
  <fix>3d</fix>
</trkpt>
<trkpt lat="33.810313" lon="-118.393867">
  <ele>-2.019</ele>
  <time>2026-09-01T01:13:26Z</time>
  <course>185.03</course>
  <speed>0.0</speed>
  <fix>3d</fix>
</trkpt>
<trkpt lat="33.810313" lon="-118.393867">
  <ele>-2.062</ele>
  <time>2026-09-01T01:13:26Z</time>
  <course>185.03</course>
  <speed>0.0</speed>
  <fix>3d</fix>
</trkpt>
<trkpt lat="33.810313" lon="-118.393867">
  <ele>-1.81</ele>
  <time>2026-09-01T01:13:26Z</time>
  <course>0.0</course>
  <speed>0.0</speed>
  <fix>3d</fix>
</trkpt>
<trkpt lat="33.810313" lon="-118.393867">
  <ele>-2.084</ele>
  <time>2026-09-01T01:13:26Z</time>
  <course>185.04</course>
  <speed>0.0</speed>
  <fix>3d</fix>
</trkpt>
<trkpt lat="33.810313" lon="-118.393867">
  <ele>-2.125</ele>
  <time>2026-09-01T01:13:26Z</time>
  <course>185.04</course>
  <speed>0.0</speed>
  <fix>3d</fix>
</trkpt>
<trkpt lat="33.810313" lon="-118.393867">
  <ele>-1.94</ele>
  <time>2026-09-01T01:13:26Z</time>
  <course>0.0</course>
  <speed>0.0</speed>
  <fix>3d</fix>
</trkpt>
<trkpt lat="33.810313" lon="-118.393867">
  <ele>-2.144</ele>
  <time>2026-09-01T01:13:26Z</time>
  <course>185.04</course>
  <speed>0.0</speed>
  <fix>3d</fix>
</trkpt>
<trkpt lat="33.810313" lon="-118.393867">
  <ele>-2.186</ele>
  <time>2026-09-01T01:13:26Z</time>
  <course>185.05</course>
  <speed>0.0</speed>
  <fix>3d</fix>
</trkpt>
<trkpt lat="33.810313" lon="-118.393867">
  <ele>-1.94</ele>
  <time>2026-09-01T01:13:26Z</time>
  <course>0.0</course>
  <speed>0.0</speed>
  <fix>3d</fix>
</trkpt>
<trkpt lat="33.810313" lon="-118.393867">
  <ele>-2.211</ele>
  <time>2026-09-01T01:13:26Z</time>
  <course>185.05</course>
  <speed>0.0</speed>
  <fix>3d</fix>
</trkpt>
<trkpt lat="33.810313" lon="-118.393867">
  <ele>-2.249</ele>
  <time>2026-09-01T01:13:26Z</time>
  <course>185.06</course>
  <speed>0.0</speed>
  <fix>3d</fix>
</trkpt>
<trkpt lat="33.810313" lon="-118.393867">
  <ele>-2.06</ele>
  <time>2026-09-01T01:13:26Z</time>
  <course>0.0</course>
  <speed>0.0</speed>
  <fix>3d</fix>
</trkpt>
<trkpt lat="33.810313" lon="-118.393867">
  <ele>-2.268</ele>
  <time>2026-09-01T01:13:26Z</time>
  <course>185.06</course>
  <speed>0.0</speed>
  <fix>3d</fix>
</trkpt>
<trkpt lat="33.810313" lon="-118.393867">
  <ele>-2.311</ele>
  <time>2026-09-01T01:13:26Z</time>
  <course>185.07</course>
  <speed>0.0</speed>
  <fix>3d</fix>
</trkpt>
<trkpt lat="33.810313" lon="-118.393867">
  <ele>-2.06</ele>
  <time>2026-09-01T01:13:26Z</time>
  <course>0.0</course>
  <speed>0.0</speed>
  <fix>3d</fix>
</trkpt>
<trkpt lat="33.810313" lon="-118.393867">
  <ele>-2.312</ele>
  <time>2026-09-01T01:13:26Z</time>
  <course>185.07</course>
  <speed>0.0</speed>
  <fix>3d</fix>
</trkpt>
<trkpt lat="33.810313" lon="-118.393867">
  <ele>-2.372</ele>
  <time>2026-09-01T01:13:26Z</time>
  <course>185.08</course>
  <speed>0.0</speed>
  <fix>3d</fix>
</trkpt>
<trkpt lat="33.810313" lon="-118.393867">
  <ele>-2.17</ele>
  <time>2026-09-01T01:13:26Z</time>
  <course>0.0</course>
  <speed>0.0</speed>
  <fix>3d</fix>
</trkpt>
<trkpt lat="33.810313" lon="-118.393867">
  <ele>-2.396</ele>
  <time>2026-09-01T01:13:26Z</time>
  <course>185.08</course>
  <speed>0.0</speed>
  <fix>3d</fix>
</trkpt>
<trkpt lat="33.810313" lon="-118.3938671">
  <ele>-2.435</ele>
  <time>2026-09-01T01:13:26Z</time>
  <course>185.09</course>
  <speed>0.0</speed>
  <fix>3d</fix>
</trkpt>
<trkpt lat="33.810313" lon="-118.393867">
  <ele>-2.17</ele>
  <time>2026-09-01T01:13:26Z</time>
  <course>0.0</course>
  <speed>0.0</speed>
  <fix>3d</fix>
</trkpt>
<trkpt lat="33.810313" lon="-118.3938671">
  <ele>-2.454</ele>
  <time>2026-09-01T01:13:26Z</time>
  <course>185.09</course>
  <speed>0.0</speed>
  <fix>3d</fix>
</trkpt>
<trkpt lat="33.810313" lon="-118.3938671">
  <ele>-2.498</ele>
  <time>2026-09-01T01:13:26Z</time>
  <course>185.1</course>
  <speed>0.0</speed>
  <fix>3d</fix>
</trkpt>
<trkpt lat="33.810313" lon="-118.393867">
  <ele>-2.3</ele>
  <time>2026-09-01T01:13:26Z</time>
  <course>0.0</course>
  <speed>0.0</speed>
  <fix>3d</fix>
</trkpt>
<trkpt lat="33.810313" lon="-118.3938671">
  <ele>-2.517</ele>
  <time>2026-09-01T01:13:26Z</time>
  <course>185.1</course>
  <speed>0.0</speed>
  <fix>3d</fix>
</trkpt>
<trkpt lat="33.8103131" lon="-118.3938671">
  <ele>-2.56</ele>
  <time>2026-09-01T01:13:26Z</time>
  <course>185.11</course>
  <speed>0.0</speed>
  <fix>3d</fix>
</trkpt>
<trkpt lat="33.810313" lon="-118.393867">
  <ele>-2.3</ele>
  <time>2026-09-01T01:13:26Z</time>
  <course>0.0</course>
  <speed>0.0</speed>
  <fix>3d</fix>
</trkpt>
<trkpt lat="33.8103131" lon="-118.3938671">
  <ele>-2.58</ele>
  <time>2026-09-01T01:13:26Z</time>
  <course>185.11</course>
  <speed>0.0</speed>
  <fix>3d</fix>
</trkpt>
<trkpt lat="33.8103131" lon="-118.3938671">
  <ele>-2.621</ele>
  <time>2026-09-01T01:13:26Z</time>
  <course>185.12</course>
  <speed>0.0</speed>
  <fix>3d</fix>
</trkpt>
<trkpt lat="33.810313" lon="-118.393867">
  <ele>-2.42</ele>
  <time>2026-09-01T01:13:26Z</time>
  <course>0.0</course>
  <speed>0.0</speed>
  <fix>3d</fix>
</trkpt>
<trkpt lat="33.8103131" lon="-118.3938671">
  <ele>-2.64</ele>
  <time>2026-09-01T01:13:26Z</time>
  <course>185.12</course>
  <speed>0.0</speed>
  <fix>3d</fix>
</trkpt>
<trkpt lat="33.8103131" lon="-118.3938671">
  <ele>-2.683</ele>
  <time>2026-09-01T01:13:26Z</time>
  <course>185.13</course>
  <speed>0.0</speed>
  <fix>3d</fix>
</trkpt>
<trkpt lat="33.810313" lon="-118.393867">
  <ele>-2.42</ele>
  <time>2026-09-01T01:13:26Z</time>
  <course>0.0</course>
  <speed>0.0</speed>
  <fix>3d</fix>
</trkpt>
<trkpt lat="33.8103131" lon="-118.3938671">
  <ele>-2.702</ele>
  <time>2026-09-01T01:13:26Z</time>
  <course>185.13</course>
  <speed>0.0</speed>
  <fix>3d</fix>
</trkpt>
<trkpt lat="33.8103131" lon="-118.3938671">
  <ele>-2.745</ele>
  <time>2026-09-01T01:13:26Z</time>
  <course>185.14</course>
  <speed>0.0</speed>
  <fix>3d</fix>
</trkpt>
<trkpt lat="33.810313" lon="-118.393867">
  <ele>-2.54</ele>
  <time>2026-09-01T01:13:26Z</time>
  <course>0.0</course>
  <speed>0.0</speed>
  <fix>3d</fix>
</trkpt>
<trkpt lat="33.8103131" lon="-118.3938671">
  <ele>-2.765</ele>
  <time>2026-09-01T01:13:26Z</time>
  <course>185.14</course>
  <speed>0.0</speed>
  <fix>3d</fix>
</trkpt>
<trkpt lat="33.8103131" lon="-118.3938671">
  <ele>-2.806</ele>
  <time>2026-09-01T01:13:26Z</time>
  <course>185.15</course>
  <speed>0.0</speed>
  <fix>3d</fix>
</trkpt>
<trkpt lat="33.810313" lon="-118.393867">
  <ele>-2.54</ele>
  <time>2026-09-01T01:13:26Z</time>
  <course>0.0</course>
  <speed>0.0</speed>
  <fix>3d</fix>
</trkpt>
<trkpt lat="33.8103131" lon="-118.3938671">
  <ele>-2.827</ele>
  <time>2026-09-01T01:13:26Z</time>
  <course>185.15</course>
  <speed>0.0</speed>
  <fix>3d</fix>
</trkpt>
<trkpt lat="33.8103131" lon="-118.3938671">
  <ele>-2.869</ele>
  <time>2026-09-01T01:13:26Z</time>
  <course>185.16</course>
  <speed>0.0</speed>
  <fix>3d</fix>
</trkpt>
<trkpt lat="33.810313" lon="-118.393867">
  <ele>-2.67</ele>
  <time>2026-09-01T01:13:26Z</time>
  <course>0.0</course>
  <speed>0.0</speed>
  <fix>3d</fix>
</trkpt>
<trkpt lat="33.8103131" lon="-118.3938671">
  <ele>-2.889</ele>
  <time>2026-09-01T01:13:26Z</time>
  <course>185.16</course>
  <speed>0.0</speed>
  <fix>3d</fix>
</trkpt>
<trkpt lat="33.8103131" lon="-118.3938671">
  <ele>-2.931</ele>
  <time>2026-09-01T01:13:26Z</time>
  <course>185.17</course>
  <speed>0.0</speed>
  <fix>3d</fix>
</trkpt>
<trkpt lat="33.810313" lon="-118.393867">
  <ele>-2.67</ele>
  <time>2026-09-01T01:13:26Z</time>
  <course>0.0</course>
  <speed>0.0</speed>
  <fix>3d</fix>
</trkpt>
<trkpt lat="33.8103131" lon="-118.3938671">
  <ele>-2.933</ele>
  <time>2026-09-01T01:13:26Z</time>
  <course>185.17</course>
  <speed>0.0</speed>
  <fix>3d</fix>
</trkpt>
<trkpt lat="33.8103131" lon="-118.3938671">
  <ele>-2.994</ele>
  <time>2026-09-01T01:13:26Z</time>
  <course>185.18</course>
  <speed>0.0</speed>
  <fix>3d</fix>
</trkpt>
<trkpt lat="33.810313" lon="-118.393867">
  <ele>-2.79</ele>
  <time>2026-09-01T01:13:26Z</time>
  <course>0.0</course>
  <speed>0.0</speed>
  <fix>3d</fix>
</trkpt>
<trkpt lat="33.8103131" lon="-118.3938671">
  <ele>-3.014</ele>
  <time>2026-09-01T01:13:26Z</time>
  <course>185.18</course>
  <speed>0.0</speed>
  <fix>3d</fix>
</trkpt>
<trkpt lat="33.8103131" lon="-118.3938671">
  <ele>-3.055</ele>
  <time>2026-09-01T01:13:26Z</time>
  <course>185.18</course>
  <speed>0.0</speed>
  <fix>3d</fix>
</trkpt>
<trkpt lat="33.810313" lon="-118.393867">
  <ele>-2.79</ele>
  <time>2026-09-01T01:13:26Z</time>
  <course>0.0</course>
  <speed>0.0</speed>
  <fix>3d</fix>
</trkpt>
<trkpt lat="33.8103131" lon="-118.3938671">
  <ele>-3.058</ele>
  <time>2026-09-01T01:13:26Z</time>
  <course>185.19</course>
  <speed>0.0</speed>
  <fix>3d</fix>
</trkpt>
<trkpt lat="33.8103131" lon="-118.3938671">
  <ele>-3.117</ele>
  <time>2026-09-01T01:13:26Z</time>
  <course>185.19</course>
  <speed>0.0</speed>
  <fix>3d</fix>
</trkpt>
<trkpt lat="33.810313" lon="-118.393867">
  <ele>-2.9</ele>
  <time>2026-09-01T01:13:26Z</time>
  <course>0.0</course>
  <speed>0.0</speed>
  <fix>3d</fix>
</trkpt>
<trkpt lat="33.8103131" lon="-118.3938671">
  <ele>-3.118</ele>
  <time>2026-09-01T01:13:26Z</time>
  <course>185.19</course>
  <speed>0.0</speed>
  <fix>3d</fix>
</trkpt>
<trkpt lat="33.8103131" lon="-118.3938671">
  <ele>-3.178</ele>
  <time>2026-09-01T01:13:26Z</time>
  <course>185.2</course>
  <speed>0.0</speed>
  <fix>3d</fix>
</trkpt>
<trkpt lat="33.810313" lon="-118.393867">
  <ele>-2.9</ele>
  <time>2026-09-01T01:13:26Z</time>
  <course>0.0</course>
  <speed>0.0</speed>
  <fix>3d</fix>
</trkpt>
<trkpt lat="33.8103131" lon="-118.3938671">
  <ele>-3.201</ele>
  <time>2026-09-01T01:13:26Z</time>
  <course>185.21</course>
  <speed>0.0</speed>
  <fix>3d</fix>
</trkpt>
<trkpt lat="33.8103131" lon="-118.3938671">
  <ele>-3.24</ele>
  <time>2026-09-01T01:13:26Z</time>
  <course>185.21</course>
  <speed>0.0</speed>
  <fix>3d</fix>
</trkpt>
<trkpt lat="33.810313" lon="-118.393867">
  <ele>-3.03</ele>
  <time>2026-09-01T01:13:26Z</time>
  <course>0.0</course>
  <speed>0.0</speed>
  <fix>3d</fix>
</trkpt>
<trkpt lat="33.8103131" lon="-118.3938671">
  <ele>-3.242</ele>
  <time>2026-09-01T01:13:26Z</time>
  <course>185.21</course>
  <speed>0.0</speed>
  <fix>3d</fix>
</trkpt>
<trkpt lat="33.8103131" lon="-118.3938671">
  <ele>-3.303</ele>
  <time>2026-09-01T01:13:26Z</time>
  <course>185.22</course>
  <speed>0.0</speed>
  <fix>3d</fix>
</trkpt>
<trkpt lat="33.810313" lon="-118.393867">
  <ele>-3.03</ele>
  <time>2026-09-01T01:13:26Z</time>
  <course>0.0</course>
  <speed>0.0</speed>
  <fix>3d</fix>
</trkpt>
<trkpt lat="33.8103131" lon="-118.3938671">
  <ele>-3.323</ele>
  <time>2026-09-01T01:13:26Z</time>
  <course>185.23</course>
  <speed>0.0</speed>
  <fix>3d</fix>
</trkpt>
<trkpt lat="33.8103131" lon="-118.3938671">
  <ele>-3.365</ele>
  <time>2026-09-01T01:13:26Z</time>
  <course>185.23</course>
  <speed>0.0</speed>
  <fix>3d</fix>
</trkpt>
<trkpt lat="33.810313" lon="-118.393867">
  <ele>-3.15</ele>
  <time>2026-09-01T01:13:26Z</time>
  <course>0.0</course>
  <speed>0.0</speed>
  <fix>3d</fix>
</trkpt>
<trkpt lat="33.8103131" lon="-118.3938671">
  <ele>-3.387</ele>
  <time>2026-09-01T01:13:26Z</time>
  <course>185.24</course>
  <speed>0.0</speed>
  <fix>3d</fix>
</trkpt>
<trkpt lat="33.8103131" lon="-118.3938671">
  <ele>-3.428</ele>
  <time>2026-09-01T01:13:26Z</time>
  <course>185.24</course>
  <speed>0.01</speed>
  <fix>3d</fix>
</trkpt>
<trkpt lat="33.810313" lon="-118.393867">
  <ele>-3.15</ele>
  <time>2026-09-01T01:13:26Z</time>
  <course>0.0</course>
  <speed>0.0</speed>
  <fix>3d</fix>
</trkpt>
<trkpt lat="33.8103131" lon="-118.3938671">
  <ele>-3.447</ele>
  <time>2026-09-01T01:13:26Z</time>
  <course>185.25</course>
  <speed>0.01</speed>
  <fix>3d</fix>
</trkpt>
<trkpt lat="33.8103131" lon="-118.3938671">
  <ele>-3.49</ele>
  <time>2026-09-01T01:13:26Z</time>
  <course>185.25</course>
  <speed>0.01</speed>
  <fix>3d</fix>
</trkpt>
<trkpt lat="33.810313" lon="-118.393867">
  <ele>-3.27</ele>
  <time>2026-09-01T01:13:26Z</time>
  <course>0.0</course>
  <speed>0.0</speed>
  <fix>3d</fix>
</trkpt>
<trkpt lat="33.8103131" lon="-118.3938671">
  <ele>-3.509</ele>
  <time>2026-09-01T01:13:26Z</time>
  <course>185.26</course>
  <speed>0.01</speed>
  <fix>3d</fix>
</trkpt>
<trkpt lat="33.8103131" lon="-118.3938671">
  <ele>-3.552</ele>
  <time>2026-09-01T01:13:26Z</time>
  <course>185.26</course>
  <speed>0.01</speed>
  <fix>3d</fix>
</trkpt>
<trkpt lat="33.810313" lon="-118.393867">
  <ele>-3.27</ele>
  <time>2026-09-01T01:13:26Z</time>
  <course>0.0</course>
  <speed>0.0</speed>
  <fix>3d</fix>
</trkpt>
<trkpt lat="33.8103131" lon="-118.3938671">
  <ele>-3.553</ele>
  <time>2026-09-01T01:13:26Z</time>
  <course>185.26</course>
  <speed>0.01</speed>
  <fix>3d</fix>
</trkpt>
<trkpt lat="33.8103131" lon="-118.3938671">
  <ele>-3.613</ele>
  <time>2026-09-01T01:13:26Z</time>
  <course>185.27</course>
  <speed>0.01</speed>
  <fix>3d</fix>
</trkpt>
<trkpt lat="33.810313" lon="-118.393867">
  <ele>-3.38</ele>
  <time>2026-09-01T01:13:26Z</time>
  <course>0.0</course>
  <speed>0.0</speed>
  <fix>3d</fix>
</trkpt>
<trkpt lat="33.8103131" lon="-118.3938671">
  <ele>-3.615</ele>
  <time>2026-09-01T01:13:26Z</time>
  <course>185.27</course>
  <speed>0.01</speed>
  <fix>3d</fix>
</trkpt>
<trkpt lat="33.8103131" lon="-118.3938671">
  <ele>-3.674</ele>
  <time>2026-09-01T01:13:26Z</time>
  <course>185.28</course>
  <speed>0.01414213562373095</speed>
  <fix>3d</fix>
</trkpt>
<trkpt lat="33.810313" lon="-118.393867">
  <ele>-3.38</ele>
  <time>2026-09-01T01:13:26Z</time>
  <course>0.0</course>
  <speed>0.0</speed>
  <fix>3d</fix>
</trkpt>
<trkpt lat="33.8103131" lon="-118.3938671">
  <ele>-3.694</ele>
  <time>2026-09-01T01:13:26Z</time>
  <course>185.29</course>
  <speed>0.01414213562373095</speed>
  <fix>3d</fix>
</trkpt>
<trkpt lat="33.8103131" lon="-118.3938671">
  <ele>-3.735</ele>
  <time>2026-09-01T01:13:26Z</time>
  <course>185.29</course>
  <speed>0.01414213562373095</speed>
  <fix>3d</fix>
</trkpt>
<trkpt lat="33.810313" lon="-118.393867">
  <ele>-3.51</ele>
  <time>2026-09-01T01:13:26Z</time>
  <course>0.0</course>
  <speed>0.0</speed>
  <fix>3d</fix>
</trkpt>
<trkpt lat="33.8103131" lon="-118.3938671">
  <ele>-3.755</ele>
  <time>2026-09-01T01:13:26Z</time>
  <course>185.3</course>
  <speed>0.01414213562373095</speed>
  <fix>3d</fix>
</trkpt>
<trkpt lat="33.8103131" lon="-118.3938671">
  <ele>-3.797</ele>
  <time>2026-09-01T01:13:26Z</time>
  <course>185.3</course>
  <speed>0.01414213562373095</speed>
  <fix>3d</fix>
</trkpt>
<trkpt lat="33.810313" lon="-118.393867">
  <ele>-3.51</ele>
  <time>2026-09-01T01:13:26Z</time>
  <course>0.0</course>
  <speed>0.0</speed>
  <fix>3d</fix>
</trkpt>
<trkpt lat="33.8103131" lon="-118.3938671">
  <ele>-3.817</ele>
  <time>2026-09-01T01:13:26Z</time>
  <course>185.31</course>
  <speed>0.01414213562373095</speed>
  <fix>3d</fix>
</trkpt>
<trkpt lat="33.8103131" lon="-118.3938671">
  <ele>-3.859</ele>
  <time>2026-09-01T01:13:26Z</time>
  <course>185.31</course>
  <speed>0.01414213562373095</speed>
  <fix>3d</fix>
</trkpt>
<trkpt lat="33.810313" lon="-118.393867">
  <ele>-3.63</ele>
  <time>2026-09-01T01:13:26Z</time>
  <course>0.0</course>
  <speed>0.0</speed>
  <fix>3d</fix>
</trkpt>
<trkpt lat="33.8103131" lon="-118.3938671">
  <ele>-3.861</ele>
  <time>2026-09-01T01:13:26Z</time>
  <course>185.31</course>
  <speed>0.01414213562373095</speed>
  <fix>3d</fix>
</trkpt>
<trkpt lat="33.8103131" lon="-118.3938671">
  <ele>-3.921</ele>
  <time>2026-09-01T01:13:26Z</time>
  <course>185.32</course>
  <speed>0.01414213562373095</speed>
  <fix>3d</fix>
</trkpt>
<trkpt lat="33.810313" lon="-118.393867">
  <ele>-3.63</ele>
  <time>2026-09-01T01:13:26Z</time>
  <course>0.0</course>
  <speed>0.0</speed>
  <fix>3d</fix>
</trkpt>
<trkpt lat="33.8103131" lon="-118.3938671">
  <ele>-3.946</ele>
  <time>2026-09-01T01:13:26Z</time>
  <course>185.33</course>
  <speed>0.01414213562373095</speed>
  <fix>3d</fix>
</trkpt>
<trkpt lat="33.8103131" lon="-118.3938671">
  <ele>-3.983</ele>
  <time>2026-09-01T01:13:26Z</time>
  <course>185.33</course>
  <speed>0.01414213562373095</speed>
  <fix>3d</fix>
</trkpt>
<trkpt lat="33.810313" lon="-118.393867">
  <ele>-3.75</ele>
  <time>2026-09-01T01:13:26Z</time>
  <course>0.0</course>
  <speed>0.0</speed>
  <fix>3d</fix>
</trkpt>
<trkpt lat="33.8103131" lon="-118.3938671">
  <ele>-4.002</ele>
  <time>2026-09-01T01:13:26Z</time>
  <course>185.34</course>
  <speed>0.01414213562373095</speed>
  <fix>3d</fix>
</trkpt>
<trkpt lat="33.8103131" lon="-118.3938671">
  <ele>-4.045</ele>
  <time>2026-09-01T01:13:26Z</time>
  <course>185.34</course>
  <speed>0.01414213562373095</speed>
  <fix>3d</fix>
</trkpt>
<trkpt lat="33.810313" lon="-118.393867">
  <ele>-3.75</ele>
  <time>2026-09-01T01:13:26Z</time>
  <course>0.0</course>
  <speed>0.0</speed>
  <fix>3d</fix>
</trkpt>
<trkpt lat="33.8103131" lon="-118.3938671">
  <ele>-4.067</ele>
  <time>2026-09-01T01:13:26Z</time>
  <course>185.35</course>
  <speed>0.01414213562373095</speed>
  <fix>3d</fix>
</trkpt>
<trkpt lat="33.8103131" lon="-118.3938671">
  <ele>-4.109</ele>
  <time>2026-09-01T01:13:26Z</time>
  <course>185.35</course>
  <speed>0.01414213562373095</speed>
  <fix>3d</fix>
</trkpt>
<trkpt lat="33.810313" lon="-118.393867">
  <ele>-3.87</ele>
  <time>2026-09-01T01:13:26Z</time>
  <course>0.0</course>
  <speed>0.0</speed>
  <fix>3d</fix>
</trkpt>
<trkpt lat="33.8103131" lon="-118.3938671">
  <ele>-4.128</ele>
  <time>2026-09-01T01:13:26Z</time>
  <course>185.36</course>
  <speed>0.01414213562373095</speed>
  <fix>3d</fix>
</trkpt>
<trkpt lat="33.8103131" lon="-118.3938671">
  <ele>-4.171</ele>
  <time>2026-09-01T01:13:26Z</time>
  <course>185.36</course>
  <speed>0.01414213562373095</speed>
  <fix>3d</fix>
</trkpt>
<trkpt lat="33.810313" lon="-118.393867">
  <ele>-3.87</ele>
  <time>2026-09-01T01:13:26Z</time>
  <course>0.0</course>
  <speed>0.0</speed>
  <fix>3d</fix>
</trkpt>
<trkpt lat="33.8103131" lon="-118.3938671">
  <ele>-4.173</ele>
  <time>2026-09-01T01:13:26Z</time>
  <course>185.37</course>
  <speed>0.01414213562373095</speed>
  <fix>3d</fix>
</trkpt>
<trkpt lat="33.8103131" lon="-118.3938671">
  <ele>-4.233</ele>
  <time>2026-09-01T01:13:26Z</time>
  <course>185.37</course>
  <speed>0.01414213562373095</speed>
  <fix>3d</fix>
</trkpt>
<trkpt lat="33.810313" lon="-118.393867">
  <ele>-3.99</ele>
  <time>2026-09-01T01:13:26Z</time>
  <course>0.0</course>
  <speed>0.0</speed>
  <fix>3d</fix>
</trkpt>
<trkpt lat="33.8103131" lon="-118.3938671">
  <ele>-4.235</ele>
  <time>2026-09-01T01:13:26Z</time>
  <course>185.38</course>
  <speed>0.01414213562373095</speed>
  <fix>3d</fix>
</trkpt>
<trkpt lat="33.8103131" lon="-118.3938671">
  <ele>-4.296</ele>
  <time>2026-09-01T01:13:26Z</time>
  <course>185.39</course>
  <speed>0.01414213562373095</speed>
  <fix>3d</fix>
</trkpt>
<trkpt lat="33.810313" lon="-118.393867">
  <ele>-3.99</ele>
  <time>2026-09-01T01:13:26Z</time>
  <course>0.0</course>
  <speed>0.0</speed>
  <fix>3d</fix>
</trkpt>
<trkpt lat="33.8103131" lon="-118.3938671">
  <ele>-4.316</ele>
  <time>2026-09-01T01:13:26Z</time>
  <course>185.39</course>
  <speed>0.01414213562373095</speed>
  <fix>3d</fix>
</trkpt>
<trkpt lat="33.8103131" lon="-118.3938671">
  <ele>-4.358</ele>
  <time>2026-09-01T01:13:26Z</time>
  <course>185.4</course>
  <speed>0.01414213562373095</speed>
  <fix>3d</fix>
</trkpt>
<trkpt lat="33.810313" lon="-118.393867">
  <ele>-4.11</ele>
  <time>2026-09-01T01:13:26Z</time>
  <course>0.0</course>
  <speed>0.0</speed>
  <fix>3d</fix>
</trkpt>
<trkpt lat="33.8103131" lon="-118.3938671">
  <ele>-4.378</ele>
  <time>2026-09-01T01:13:26Z</time>
  <course>185.4</course>
  <speed>0.01414213562373095</speed>
  <fix>3d</fix>
</trkpt>
<trkpt lat="33.8103131" lon="-118.3938671">
  <ele>-4.42</ele>
  <time>2026-09-01T01:13:26Z</time>
  <course>185.41</course>
  <speed>0.01414213562373095</speed>
  <fix>3d</fix>
</trkpt>
<trkpt lat="33.810313" lon="-118.393867">
  <ele>-4.11</ele>
  <time>2026-09-01T01:13:26Z</time>
  <course>0.0</course>
  <speed>0.0</speed>
  <fix>3d</fix>
</trkpt>
<trkpt lat="33.8103131" lon="-118.3938671">
  <ele>-4.439</ele>
  <time>2026-09-01T01:13:26Z</time>
  <course>185.41</course>
  <speed>0.01414213562373095</speed>
  <fix>3d</fix>
</trkpt>
<trkpt lat="33.8103131" lon="-118.3938671">
  <ele>-4.482</ele>
  <time>2026-09-01T01:13:26Z</time>
  <course>185.42</course>
  <speed>0.01414213562373095</speed>
  <fix>3d</fix>
</trkpt>
<trkpt lat="33.810313" lon="-118.393867">
  <ele>-4.23</ele>
  <time>2026-09-01T01:13:26Z</time>
  <course>0.0</course>
  <speed>0.0</speed>
  <fix>3d</fix>
</trkpt>
<trkpt lat="33.8103131" lon="-118.3938671">
  <ele>-4.484</ele>
  <time>2026-09-01T01:13:26Z</time>
  <course>185.42</course>
  <speed>0.01414213562373095</speed>
  <fix>3d</fix>
</trkpt>
<trkpt lat="33.8103131" lon="-118.3938671">
  <ele>-4.544</ele>
  <time>2026-09-01T01:13:26Z</time>
  <course>185.43</course>
  <speed>0.01414213562373095</speed>
  <fix>3d</fix>
</trkpt>
<trkpt lat="33.810313" lon="-118.393867">
  <ele>-4.23</ele>
  <time>2026-09-01T01:13:26Z</time>
  <course>0.0</course>
  <speed>0.0</speed>
  <fix>3d</fix>
</trkpt>
<trkpt lat="33.8103131" lon="-118.3938671">
  <ele>-4.568</ele>
  <time>2026-09-01T01:13:26Z</time>
  <course>185.43</course>
  <speed>0.01414213562373095</speed>
  <fix>3d</fix>
</trkpt>
<trkpt lat="33.8103131" lon="-118.3938671">
  <ele>-4.607</ele>
  <time>2026-09-01T01:13:26Z</time>
  <course>185.44</course>
  <speed>0.022360679774997897</speed>
  <fix>3d</fix>
</trkpt>
<trkpt lat="33.810313" lon="-118.393867">
  <ele>-4.35</ele>
  <time>2026-09-01T01:13:26Z</time>
  <course>0.0</course>
  <speed>0.0</speed>
  <fix>3d</fix>
</trkpt>
<trkpt lat="33.8103131" lon="-118.3938671">
  <ele>-4.609</ele>
  <time>2026-09-01T01:13:26Z</time>
  <course>185.44</course>
  <speed>0.022360679774997897</speed>
  <fix>3d</fix>
</trkpt>
<trkpt lat="33.8103131" lon="-118.3938671">
  <ele>-4.669</ele>
  <time>2026-09-01T01:13:26Z</time>
  <course>185.45</course>
  <speed>0.022360679774997897</speed>
  <fix>3d</fix>
</trkpt>
<trkpt lat="33.810313" lon="-118.393867">
  <ele>-4.35</ele>
  <time>2026-09-01T01:13:26Z</time>
  <course>0.0</course>
  <speed>0.0</speed>
  <fix>3d</fix>
</trkpt>
<trkpt lat="33.8103131" lon="-118.3938671">
  <ele>-4.689</ele>
  <time>2026-09-01T01:13:26Z</time>
  <course>185.45</course>
  <speed>0.022360679774997897</speed>
  <fix>3d</fix>
</trkpt>
<trkpt lat="33.8103131" lon="-118.3938671">
  <ele>-4.73</ele>
  <time>2026-09-01T01:13:26Z</time>
  <course>185.46</course>
  <speed>0.022360679774997897</speed>
  <fix>3d</fix>
</trkpt>
<trkpt lat="33.810313" lon="-118.393867">
  <ele>-4.48</ele>
  <time>2026-09-01T01:13:26Z</time>
  <course>0.0</course>
  <speed>0.0</speed>
  <fix>3d</fix>
</trkpt>
<trkpt lat="33.8103131" lon="-118.3938671">
  <ele>-4.75</ele>
  <time>2026-09-01T01:13:26Z</time>
  <course>185.46</course>
  <speed>0.022360679774997897</speed>
  <fix>3d</fix>
</trkpt>
<trkpt lat="33.8103131" lon="-118.3938671">
  <ele>-4.791</ele>
  <time>2026-09-01T01:13:26Z</time>
  <course>185.47</course>
  <speed>0.022360679774997897</speed>
  <fix>3d</fix>
</trkpt>
<trkpt lat="33.810313" lon="-118.393867">
  <ele>-4.48</ele>
  <time>2026-09-01T01:13:26Z</time>
  <course>0.0</course>
  <speed>0.0</speed>
  <fix>3d</fix>
</trkpt>
<trkpt lat="33.8103131" lon="-118.3938671">
  <ele>-4.792</ele>
  <time>2026-09-01T01:13:26Z</time>
  <course>185.47</course>
  <speed>0.022360679774997897</speed>
  <fix>3d</fix>
</trkpt>
<trkpt lat="33.8103131" lon="-118.3938671">
  <ele>-4.853</ele>
  <time>2026-09-01T01:13:26Z</time>
  <course>185.48</course>
  <speed>0.022360679774997897</speed>
  <fix>3d</fix>
</trkpt>
<trkpt lat="33.810313" lon="-118.393867">
  <ele>-4.6</ele>
  <time>2026-09-01T01:13:26Z</time>
  <course>0.0</course>
  <speed>0.0</speed>
  <fix>3d</fix>
</trkpt>
<trkpt lat="33.8103131" lon="-118.3938671">
  <ele>-4.872</ele>
  <time>2026-09-01T01:13:26Z</time>
  <course>185.48</course>
  <speed>0.022360679774997897</speed>
  <fix>3d</fix>
</trkpt>
<trkpt lat="33.8103131" lon="-118.3938671">
  <ele>-4.913</ele>
  <time>2026-09-01T01:13:26Z</time>
  <course>185.49</course>
  <speed>0.022360679774997897</speed>
  <fix>3d</fix>
</trkpt>
<trkpt lat="33.810313" lon="-118.393867">
  <ele>-4.6</ele>
  <time>2026-09-01T01:13:26Z</time>
  <course>0.0</course>
  <speed>0.0</speed>
  <fix>3d</fix>
</trkpt>
<trkpt lat="33.8103131" lon="-118.3938671">
  <ele>-4.915</ele>
  <time>2026-09-01T01:13:26Z</time>
  <course>185.49</course>
  <speed>0.022360679774997897</speed>
  <fix>3d</fix>
</trkpt>
<trkpt lat="33.8103131" lon="-118.3938671">
  <ele>-4.974</ele>
  <time>2026-09-01T01:13:26Z</time>
  <course>185.5</course>
  <speed>0.022360679774997897</speed>
  <fix>3d</fix>
</trkpt>
<trkpt lat="33.810313" lon="-118.393867">
  <ele>-4.72</ele>
  <time>2026-09-01T01:13:26Z</time>
  <course>0.0</course>
  <speed>0.0</speed>
  <fix>3d</fix>
</trkpt>
<trkpt lat="33.8103131" lon="-118.3938671">
  <ele>-4.975</ele>
  <time>2026-09-01T01:13:26Z</time>
  <course>185.5</course>
  <speed>0.022360679774997897</speed>
  <fix>3d</fix>
</trkpt>
<trkpt lat="33.8103131" lon="-118.3938671">
  <ele>-5.034</ele>
  <time>2026-09-01T01:13:26Z</time>
  <course>185.51</course>
  <speed>0.022360679774997897</speed>
  <fix>3d</fix>
</trkpt>
<trkpt lat="33.810313" lon="-118.393867">
  <ele>-4.72</ele>
  <time>2026-09-01T01:13:26Z</time>
  <course>0.0</course>
  <speed>0.0</speed>
  <fix>3d</fix>
</trkpt>
<trkpt lat="33.8103131" lon="-118.3938671">
  <ele>-5.054</ele>
  <time>2026-09-01T01:13:26Z</time>
  <course>185.51</course>
  <speed>0.022360679774997897</speed>
  <fix>3d</fix>
</trkpt>
<trkpt lat="33.8103131" lon="-118.3938671">
  <ele>-5.093</ele>
  <time>2026-09-01T01:13:26Z</time>
  <course>185.52</course>
  <speed>0.022360679774997897</speed>
  <fix>3d</fix>
</trkpt>
<trkpt lat="33.810313" lon="-118.393867">
  <ele>-4.84</ele>
  <time>2026-09-01T01:13:26Z</time>
  <course>0.0</course>
  <speed>0.0</speed>
  <fix>3d</fix>
</trkpt>
<trkpt lat="33.8103131" lon="-118.3938671">
  <ele>-5.094</ele>
  <time>2026-09-01T01:13:26Z</time>
  <course>185.52</course>
  <speed>0.022360679774997897</speed>
  <fix>3d</fix>
</trkpt>
<trkpt lat="33.8103131" lon="-118.3938671">
  <ele>-5.153</ele>
  <time>2026-09-01T01:13:26Z</time>
  <course>185.53</course>
  <speed>0.022360679774997897</speed>
  <fix>3d</fix>
</trkpt>
<trkpt lat="33.810313" lon="-118.393867">
  <ele>-4.84</ele>
  <time>2026-09-01T01:13:26Z</time>
  <course>0.0</course>
  <speed>0.0</speed>
  <fix>3d</fix>
</trkpt>
<trkpt lat="33.8103131" lon="-118.3938671">
  <ele>-5.171</ele>
  <time>2026-09-01T01:13:26Z</time>
  <course>185.53</course>
  <speed>0.022360679774997897</speed>
  <fix>3d</fix>
</trkpt>
<trkpt lat="33.8103131" lon="-118.3938671">
  <ele>-5.213</ele>
  <time>2026-09-01T01:13:26Z</time>
  <course>185.54</course>
  <speed>0.022360679774997897</speed>
  <fix>3d</fix>
</trkpt>
<trkpt lat="33.810313" lon="-118.393867">
  <ele>-4.96</ele>
  <time>2026-09-01T01:13:26Z</time>
  <course>0.0</course>
  <speed>0.0</speed>
  <fix>3d</fix>
</trkpt>
<trkpt lat="33.8103131" lon="-118.3938671">
  <ele>-5.234</ele>
  <time>2026-09-01T01:13:26Z</time>
  <course>185.54</course>
  <speed>0.022360679774997897</speed>
  <fix>3d</fix>
</trkpt>
<trkpt lat="33.8103131" lon="-118.3938671">
  <ele>-5.274</ele>
  <time>2026-09-01T01:13:26Z</time>
  <course>185.55</course>
  <speed>0.022360679774997897</speed>
  <fix>3d</fix>
</trkpt>
<trkpt lat="33.810313" lon="-118.393867">
  <ele>-4.96</ele>
  <time>2026-09-01T01:13:26Z</time>
  <course>0.0</course>
  <speed>0.0</speed>
  <fix>3d</fix>
</trkpt>
<trkpt lat="33.8103131" lon="-118.3938671">
  <ele>-5.293</ele>
  <time>2026-09-01T01:13:26Z</time>
  <course>185.55</course>
  <speed>0.0282842712474619</speed>
  <fix>3d</fix>
</trkpt>
<trkpt lat="33.8103131" lon="-118.3938671">
  <ele>-5.335</ele>
  <time>2026-09-01T01:13:26Z</time>
  <course>185.56</course>
  <speed>0.0282842712474619</speed>
  <fix>3d</fix>
</trkpt>
<trkpt lat="33.810313" lon="-118.393867">
  <ele>-5.08</ele>
  <time>2026-09-01T01:13:26Z</time>
  <course>0.0</course>
  <speed>0.0</speed>
  <fix>3d</fix>
</trkpt>
<trkpt lat="33.8103131" lon="-118.3938671">
  <ele>-5.354</ele>
  <time>2026-09-01T01:13:26Z</time>
  <course>185.56</course>
  <speed>0.0282842712474619</speed>
  <fix>3d</fix>
</trkpt>
<trkpt lat="33.8103131" lon="-118.3938671">
  <ele>-5.398</ele>
  <time>2026-09-01T01:13:26Z</time>
  <course>185.57</course>
  <speed>0.0282842712474619</speed>
  <fix>3d</fix>
</trkpt>
<trkpt lat="33.810313" lon="-118.393867">
  <ele>-5.08</ele>
  <time>2026-09-01T01:13:26Z</time>
  <course>0.0</course>
  <speed>0.0</speed>
  <fix>3d</fix>
</trkpt>
<trkpt lat="33.8103131" lon="-118.3938671">
  <ele>-5.399</ele>
  <time>2026-09-01T01:13:26Z</time>
  <course>185.57</course>
  <speed>0.0282842712474619</speed>
  <fix>3d</fix>
</trkpt>
<trkpt lat="33.8103131" lon="-118.3938671">
  <ele>-5.46</ele>
  <time>2026-09-01T01:13:26Z</time>
  <course>185.58</course>
  <speed>0.0282842712474619</speed>
  <fix>3d</fix>
</trkpt>
<trkpt lat="33.810313" lon="-118.393867">
  <ele>-5.2</ele>
  <time>2026-09-01T01:13:26Z</time>
  <course>0.0</course>
  <speed>0.0</speed>
  <fix>3d</fix>
</trkpt>
<trkpt lat="33.8103131" lon="-118.3938671">
  <ele>-5.478</ele>
  <time>2026-09-01T01:13:26Z</time>
  <course>185.59</course>
  <speed>0.0282842712474619</speed>
  <fix>3d</fix>
</trkpt>
<trkpt lat="33.8103131" lon="-118.3938671">
  <ele>-5.522</ele>
  <time>2026-09-01T01:13:26Z</time>
  <course>185.59</course>
  <speed>0.0282842712474619</speed>
  <fix>3d</fix>
</trkpt>
<trkpt lat="33.810313" lon="-118.393867">
  <ele>-5.2</ele>
  <time>2026-09-01T01:13:26Z</time>
  <course>0.0</course>
  <speed>0.0</speed>
  <fix>3d</fix>
</trkpt>
<trkpt lat="33.8103131" lon="-118.3938671">
  <ele>-5.523</ele>
  <time>2026-09-01T01:13:26Z</time>
  <course>185.59</course>
  <speed>0.0282842712474619</speed>
  <fix>3d</fix>
</trkpt>
<trkpt lat="33.8103131" lon="-118.3938671">
  <ele>-5.583</ele>
  <time>2026-09-01T01:13:26Z</time>
  <course>185.6</course>
  <speed>0.0282842712474619</speed>
  <fix>3d</fix>
</trkpt>
<trkpt lat="33.810313" lon="-118.393867">
  <ele>-5.32</ele>
  <time>2026-09-01T01:13:26Z</time>
  <course>0.0</course>
  <speed>0.0</speed>
  <fix>3d</fix>
</trkpt>
<trkpt lat="33.8103131" lon="-118.3938671">
  <ele>-5.585</ele>
  <time>2026-09-01T01:13:26Z</time>
  <course>185.6</course>
  <speed>0.0282842712474619</speed>
  <fix>3d</fix>
</trkpt>
<trkpt lat="33.8103131" lon="-118.3938671">
  <ele>-5.645</ele>
  <time>2026-09-01T01:13:26Z</time>
  <course>185.61</course>
  <speed>0.0282842712474619</speed>
  <fix>3d</fix>
</trkpt>
<trkpt lat="33.810313" lon="-118.393867">
  <ele>-5.32</ele>
  <time>2026-09-01T01:13:26Z</time>
  <course>0.0</course>
  <speed>0.0</speed>
  <fix>3d</fix>
</trkpt>
<trkpt lat="33.8103131" lon="-118.3938671">
  <ele>-5.663</ele>
  <time>2026-09-01T01:13:26Z</time>
  <course>185.62</course>
  <speed>0.0282842712474619</speed>
  <fix>3d</fix>
</trkpt>
<trkpt lat="33.8103131" lon="-118.3938671">
  <ele>-5.706</ele>
  <time>2026-09-01T01:13:26Z</time>
  <course>185.62</course>
  <speed>0.0282842712474619</speed>
  <fix>3d</fix>
</trkpt>
<trkpt lat="33.810313" lon="-118.393867">
  <ele>-5.44</ele>
  <time>2026-09-01T01:13:26Z</time>
  <course>0.0</course>
  <speed>0.0</speed>
  <fix>3d</fix>
</trkpt>
<trkpt lat="33.8103131" lon="-118.3938671">
  <ele>-5.708</ele>
  <time>2026-09-01T01:13:26Z</time>
  <course>185.62</course>
  <speed>0.0282842712474619</speed>
  <fix>3d</fix>
</trkpt>
<trkpt lat="33.8103132" lon="-118.3938671">
  <ele>-5.768</ele>
  <time>2026-09-01T01:13:26Z</time>
  <course>185.64</course>
  <speed>0.0282842712474619</speed>
  <fix>3d</fix>
</trkpt>
<trkpt lat="33.810313" lon="-118.393867">
  <ele>-5.44</ele>
  <time>2026-09-01T01:13:26Z</time>
  <course>0.0</course>
  <speed>0.0</speed>
  <fix>3d</fix>
</trkpt>
<trkpt lat="33.8103132" lon="-118.3938671">
  <ele>-5.787</ele>
  <time>2026-09-01T01:13:26Z</time>
  <course>185.64</course>
  <speed>0.0282842712474619</speed>
  <fix>3d</fix>
</trkpt>
<trkpt lat="33.8103132" lon="-118.3938671">
  <ele>-5.828</ele>
  <time>2026-09-01T01:13:26Z</time>
  <course>185.65</course>
  <speed>0.0282842712474619</speed>
  <fix>3d</fix>
</trkpt>
<trkpt lat="33.810313" lon="-118.393867">
  <ele>-5.56</ele>
  <time>2026-09-01T01:13:26Z</time>
  <course>0.0</course>
  <speed>0.0</speed>
  <fix>3d</fix>
</trkpt>
<trkpt lat="33.8103132" lon="-118.3938671">
  <ele>-5.849</ele>
  <time>2026-09-01T01:13:26Z</time>
  <course>185.65</course>
  <speed>0.0282842712474619</speed>
  <fix>3d</fix>
</trkpt>
<trkpt lat="33.8103132" lon="-118.3938671">
  <ele>-5.888</ele>
  <time>2026-09-01T01:13:26Z</time>
  <course>185.66</course>
  <speed>0.0282842712474619</speed>
  <fix>3d</fix>
</trkpt>
<trkpt lat="33.810313" lon="-118.393867">
  <ele>-5.56</ele>
  <time>2026-09-01T01:13:26Z</time>
  <course>0.0</course>
  <speed>0.0</speed>
  <fix>3d</fix>
</trkpt>
<trkpt lat="33.8103132" lon="-118.3938671">
  <ele>-5.908</ele>
  <time>2026-09-01T01:13:26Z</time>
  <course>185.66</course>
  <speed>0.0282842712474619</speed>
  <fix>3d</fix>
</trkpt>
<trkpt lat="33.8103132" lon="-118.3938671">
  <ele>-5.949</ele>
  <time>2026-09-01T01:13:26Z</time>
  <course>185.67</course>
  <speed>0.0282842712474619</speed>
  <fix>3d</fix>
</trkpt>
<trkpt lat="33.810313" lon="-118.393867">
  <ele>-5.68</ele>
  <time>2026-09-01T01:13:26Z</time>
  <course>0.0</course>
  <speed>0.0</speed>
  <fix>3d</fix>
</trkpt>
<trkpt lat="33.8103132" lon="-118.3938671">
  <ele>-5.971</ele>
  <time>2026-09-01T01:13:26Z</time>
  <course>185.67</course>
  <speed>0.0282842712474619</speed>
  <fix>3d</fix>
</trkpt>
<trkpt lat="33.8103132" lon="-118.3938671">
  <ele>-6.011</ele>
  <time>2026-09-01T01:13:26Z</time>
  <course>185.68</course>
  <speed>0.0282842712474619</speed>
  <fix>3d</fix>
</trkpt>
<trkpt lat="33.810313" lon="-118.393867">
  <ele>-5.68</ele>
  <time>2026-09-01T01:13:26Z</time>
  <course>0.0</course>
  <speed>0.0</speed>
  <fix>3d</fix>
</trkpt>
<trkpt lat="33.8103132" lon="-118.3938672">
  <ele>-6.012</ele>
  <time>2026-09-01T01:13:26Z</time>
  <course>185.68</course>
  <speed>0.0282842712474619</speed>
  <fix>3d</fix>
</trkpt>
<trkpt lat="33.8103132" lon="-118.3938672">
  <ele>-6.071</ele>
  <time>2026-09-01T01:13:26Z</time>
  <course>185.69</course>
  <speed>0.0282842712474619</speed>
  <fix>3d</fix>
</trkpt>
<trkpt lat="33.810313" lon="-118.393867">
  <ele>-5.8</ele>
  <time>2026-09-01T01:13:26Z</time>
  <course>0.0</course>
  <speed>0.0</speed>
  <fix>3d</fix>
</trkpt>
<trkpt lat="33.8103132" lon="-118.3938672">
  <ele>-6.073</ele>
  <time>2026-09-01T01:13:26Z</time>
  <course>185.69</course>
  <speed>0.0282842712474619</speed>
  <fix>3d</fix>
</trkpt>
<trkpt lat="33.8103132" lon="-118.3938672">
  <ele>-6.132</ele>
  <time>2026-09-01T01:13:26Z</time>
  <course>185.7</course>
  <speed>0.0282842712474619</speed>
  <fix>3d</fix>
</trkpt>
<trkpt lat="33.810313" lon="-118.393867">
  <ele>-5.8</ele>
  <time>2026-09-01T01:13:26Z</time>
  <course>0.0</course>
  <speed>0.0</speed>
  <fix>3d</fix>
</trkpt>
<trkpt lat="33.8103132" lon="-118.3938672">
  <ele>-6.15</ele>
  <time>2026-09-01T01:13:26Z</time>
  <course>185.7</course>
  <speed>0.0282842712474619</speed>
  <fix>3d</fix>
</trkpt>
<trkpt lat="33.8103132" lon="-118.3938672">
  <ele>-6.192</ele>
  <time>2026-09-01T01:13:26Z</time>
  <course>185.71</course>
  <speed>0.0282842712474619</speed>
  <fix>3d</fix>
</trkpt>
<trkpt lat="33.810313" lon="-118.393867">
  <ele>-5.92</ele>
  <time>2026-09-01T01:13:26Z</time>
  <course>0.0</course>
  <speed>0.0</speed>
  <fix>3d</fix>
</trkpt>
<trkpt lat="33.8103132" lon="-118.3938672">
  <ele>-6.194</ele>
  <time>2026-09-01T01:13:26Z</time>
  <course>185.71</course>
  <speed>0.0282842712474619</speed>
  <fix>3d</fix>
</trkpt>
<trkpt lat="33.8103132" lon="-118.3938672">
  <ele>-6.252</ele>
  <time>2026-09-01T01:13:26Z</time>
  <course>185.72</course>
  <speed>0.0282842712474619</speed>
  <fix>3d</fix>
</trkpt>
<trkpt lat="33.810313" lon="-118.393867">
  <ele>-5.92</ele>
  <time>2026-09-01T01:13:26Z</time>
  <course>0.0</course>
  <speed>0.0</speed>
  <fix>3d</fix>
</trkpt>
<trkpt lat="33.8103132" lon="-118.3938672">
  <ele>-6.273</ele>
  <time>2026-09-01T01:13:26Z</time>
  <course>185.72</course>
  <speed>0.0282842712474619</speed>
  <fix>3d</fix>
</trkpt>
<trkpt lat="33.8103132" lon="-118.3938672">
  <ele>-6.312</ele>
  <time>2026-09-01T01:13:26Z</time>
  <course>185.73</course>
  <speed>0.0282842712474619</speed>
  <fix>3d</fix>
</trkpt>
<trkpt lat="33.810313" lon="-118.393867">
  <ele>-6.04</ele>
  <time>2026-09-01T01:13:26Z</time>
  <course>0.0</course>
  <speed>0.0</speed>
  <fix>3d</fix>
</trkpt>
<trkpt lat="33.8103132" lon="-118.3938672">
  <ele>-6.314</ele>
  <time>2026-09-01T01:13:26Z</time>
  <course>185.73</course>
  <speed>0.03605551275463989</speed>
  <fix>3d</fix>
</trkpt>
<trkpt lat="33.8103132" lon="-118.3938672">
  <ele>-6.373</ele>
  <time>2026-09-01T01:13:26Z</time>
  <course>185.74</course>
  <speed>0.03605551275463989</speed>
  <fix>3d</fix>
</trkpt>
<trkpt lat="33.810313" lon="-118.393867">
  <ele>-6.04</ele>
  <time>2026-09-01T01:13:26Z</time>
  <course>0.0</course>
  <speed>0.0</speed>
  <fix>3d</fix>
</trkpt>
<trkpt lat="33.8103132" lon="-118.3938672">
  <ele>-6.393</ele>
  <time>2026-09-01T01:13:26Z</time>
  <course>185.74</course>
  <speed>0.03605551275463989</speed>
  <fix>3d</fix>
</trkpt>
<trkpt lat="33.8103132" lon="-118.3938672">
  <ele>-6.435</ele>
  <time>2026-09-01T01:13:26Z</time>
  <course>185.75</course>
  <speed>0.03605551275463989</speed>
  <fix>3d</fix>
</trkpt>
<trkpt lat="33.810313" lon="-118.393867">
  <ele>-6.16</ele>
  <time>2026-09-01T01:13:26Z</time>
  <course>0.0</course>
  <speed>0.0</speed>
  <fix>3d</fix>
</trkpt>
<trkpt lat="33.8103132" lon="-118.3938672">
  <ele>-6.455</ele>
  <time>2026-09-01T01:13:26Z</time>
  <course>185.75</course>
  <speed>0.03605551275463989</speed>
  <fix>3d</fix>
</trkpt>
<trkpt lat="33.8103132" lon="-118.3938672">
  <ele>-6.496</ele>
  <time>2026-09-01T01:13:26Z</time>
  <course>185.76</course>
  <speed>0.03605551275463989</speed>
  <fix>3d</fix>
</trkpt>
<trkpt lat="33.810313" lon="-118.393867">
  <ele>-6.16</ele>
  <time>2026-09-01T01:13:26Z</time>
  <course>0.0</course>
  <speed>0.0</speed>
  <fix>3d</fix>
</trkpt>
<trkpt lat="33.8103132" lon="-118.3938672">
  <ele>-6.516</ele>
  <time>2026-09-01T01:13:26Z</time>
  <course>185.76</course>
  <speed>0.03605551275463989</speed>
  <fix>3d</fix>
</trkpt>
<trkpt lat="33.8103132" lon="-118.3938672">
  <ele>-6.557</ele>
  <time>2026-09-01T01:13:26Z</time>
  <course>185.77</course>
  <speed>0.03605551275463989</speed>
  <fix>3d</fix>
</trkpt>
<trkpt lat="33.810313" lon="-118.393867">
  <ele>-6.29</ele>
  <time>2026-09-01T01:13:26Z</time>
  <course>0.0</course>
  <speed>0.0</speed>
  <fix>3d</fix>
</trkpt>
<trkpt lat="33.8103132" lon="-118.3938672">
  <ele>-6.577</ele>
  <time>2026-09-01T01:13:26Z</time>
  <course>185.77</course>
  <speed>0.03605551275463989</speed>
  <fix>3d</fix>
</trkpt>
<trkpt lat="33.8103132" lon="-118.3938672">
  <ele>-6.618</ele>
  <time>2026-09-01T01:13:26Z</time>
  <course>185.78</course>
  <speed>0.03605551275463989</speed>
  <fix>3d</fix>
</trkpt>
<trkpt lat="33.810313" lon="-118.393867">
  <ele>-6.29</ele>
  <time>2026-09-01T01:13:26Z</time>
  <course>0.0</course>
  <speed>0.0</speed>
  <fix>3d</fix>
</trkpt>
<trkpt lat="33.8103132" lon="-118.3938672">
  <ele>-6.62</ele>
  <time>2026-09-01T01:13:26Z</time>
  <course>185.78</course>
  <speed>0.03605551275463989</speed>
  <fix>3d</fix>
</trkpt>
<trkpt lat="33.8103132" lon="-118.3938672">
  <ele>-6.68</ele>
  <time>2026-09-01T01:13:26Z</time>
  <course>185.79</course>
  <speed>0.03605551275463989</speed>
  <fix>3d</fix>
</trkpt>
<trkpt lat="33.810313" lon="-118.393867">
  <ele>-6.41</ele>
  <time>2026-09-01T01:13:26Z</time>
  <course>0.0</course>
  <speed>0.0</speed>
  <fix>3d</fix>
</trkpt>
<trkpt lat="33.8103132" lon="-118.3938672">
  <ele>-6.702</ele>
  <time>2026-09-01T01:13:26Z</time>
  <course>185.8</course>
  <speed>0.03605551275463989</speed>
  <fix>3d</fix>
</trkpt>
<trkpt lat="33.8103132" lon="-118.3938672">
  <ele>-6.742</ele>
  <time>2026-09-01T01:13:26Z</time>
  <course>185.8</course>
  <speed>0.03605551275463989</speed>
  <fix>3d</fix>
</trkpt>
<trkpt lat="33.810313" lon="-118.393867">
  <ele>-6.41</ele>
  <time>2026-09-01T01:13:26Z</time>
  <course>0.0</course>
  <speed>0.0</speed>
  <fix>3d</fix>
</trkpt>
<trkpt lat="33.8103132" lon="-118.3938672">
  <ele>-6.761</ele>
  <time>2026-09-01T01:13:26Z</time>
  <course>185.8</course>
  <speed>0.03605551275463989</speed>
  <fix>3d</fix>
</trkpt>
<trkpt lat="33.8103132" lon="-118.3938672">
  <ele>-6.804</ele>
  <time>2026-09-01T01:13:26Z</time>
  <course>185.81</course>
  <speed>0.03605551275463989</speed>
  <fix>3d</fix>
</trkpt>
<trkpt lat="33.810313" lon="-118.393867">
  <ele>-6.52</ele>
  <time>2026-09-01T01:13:26Z</time>
  <course>0.0</course>
  <speed>0.0</speed>
  <fix>3d</fix>
</trkpt>
<trkpt lat="33.8103132" lon="-118.3938672">
  <ele>-6.805</ele>
  <time>2026-09-01T01:13:26Z</time>
  <course>185.81</course>
  <speed>0.03605551275463989</speed>
  <fix>3d</fix>
</trkpt>
<trkpt lat="33.8103132" lon="-118.3938672">
  <ele>-6.866</ele>
  <time>2026-09-01T01:13:26Z</time>
  <course>185.82</course>
  <speed>0.03605551275463989</speed>
  <fix>3d</fix>
</trkpt>
<trkpt lat="33.810313" lon="-118.393867">
  <ele>-6.52</ele>
  <time>2026-09-01T01:13:26Z</time>
  <course>0.0</course>
  <speed>0.0</speed>
  <fix>3d</fix>
</trkpt>
<trkpt lat="33.8103132" lon="-118.3938672">
  <ele>-6.889</ele>
  <time>2026-09-01T01:13:26Z</time>
  <course>185.83</course>
  <speed>0.03605551275463989</speed>
  <fix>3d</fix>
</trkpt>
<trkpt lat="33.8103132" lon="-118.3938672">
  <ele>-6.928</ele>
  <time>2026-09-01T01:13:26Z</time>
  <course>185.83</course>
  <speed>0.03605551275463989</speed>
  <fix>3d</fix>
</trkpt>
<trkpt lat="33.810313" lon="-118.393867">
  <ele>-6.65</ele>
  <time>2026-09-01T01:13:26Z</time>
  <course>0.0</course>
  <speed>0.0</speed>
  <fix>3d</fix>
</trkpt>
<trkpt lat="33.8103132" lon="-118.3938672">
  <ele>-6.929</ele>
  <time>2026-09-01T01:13:26Z</time>
  <course>185.83</course>
  <speed>0.03605551275463989</speed>
  <fix>3d</fix>
</trkpt>
<trkpt lat="33.8103132" lon="-118.3938672">
  <ele>-6.99</ele>
  <time>2026-09-01T01:13:26Z</time>
  <course>185.84</course>
  <speed>0.03605551275463989</speed>
  <fix>3d</fix>
</trkpt>
<trkpt lat="33.810313" lon="-118.393867">
  <ele>-6.65</ele>
  <time>2026-09-01T01:13:26Z</time>
  <course>0.0</course>
  <speed>0.0</speed>
  <fix>3d</fix>
</trkpt>
<trkpt lat="33.8103132" lon="-118.3938672">
  <ele>-7.01</ele>
  <time>2026-09-01T01:13:26Z</time>
  <course>185.85</course>
  <speed>0.03605551275463989</speed>
  <fix>3d</fix>
</trkpt>
<trkpt lat="33.8103132" lon="-118.3938672">
  <ele>-7.053</ele>
  <time>2026-09-01T01:13:26Z</time>
  <course>185.85</course>
  <speed>0.03605551275463989</speed>
  <fix>3d</fix>
</trkpt>
<trkpt lat="33.810313" lon="-118.393867">
  <ele>-6.77</ele>
  <time>2026-09-01T01:13:26Z</time>
  <course>0.0</course>
  <speed>0.0</speed>
  <fix>3d</fix>
</trkpt>
<trkpt lat="33.8103132" lon="-118.3938672">
  <ele>-7.073</ele>
  <time>2026-09-01T01:13:26Z</time>
  <course>185.86</course>
  <speed>0.03605551275463989</speed>
  <fix>3d</fix>
</trkpt>
<trkpt lat="33.8103132" lon="-118.3938672">
  <ele>-7.116</ele>
  <time>2026-09-01T01:13:26Z</time>
  <course>185.86</course>
  <speed>0.03605551275463989</speed>
  <fix>3d</fix>
</trkpt>
<trkpt lat="33.810313" lon="-118.393867">
  <ele>-6.77</ele>
  <time>2026-09-01T01:13:26Z</time>
  <course>0.0</course>
  <speed>0.0</speed>
  <fix>3d</fix>
</trkpt>
<trkpt lat="33.8103132" lon="-118.3938672">
  <ele>-7.136</ele>
  <time>2026-09-01T01:13:26Z</time>
  <course>185.86</course>
  <speed>0.03605551275463989</speed>
  <fix>3d</fix>
</trkpt>
<trkpt lat="33.8103132" lon="-118.3938672">
  <ele>-7.18</ele>
  <time>2026-09-01T01:13:26Z</time>
  <course>185.87</course>
  <speed>0.03605551275463989</speed>
  <fix>3d</fix>
</trkpt>
<trkpt lat="33.810313" lon="-118.393867">
  <ele>-6.89</ele>
  <time>2026-09-01T01:13:26Z</time>
  <course>0.0</course>
  <speed>0.0</speed>
  <fix>3d</fix>
</trkpt>
<trkpt lat="33.8103132" lon="-118.3938672">
  <ele>-7.2</ele>
  <time>2026-09-01T01:13:26Z</time>
  <course>185.87</course>
  <speed>0.03605551275463989</speed>
  <fix>3d</fix>
</trkpt>
<trkpt lat="33.8103132" lon="-118.3938672">
  <ele>-7.243</ele>
  <time>2026-09-01T01:13:26Z</time>
  <course>185.88</course>
  <speed>0.03605551275463989</speed>
  <fix>3d</fix>
</trkpt>
<trkpt lat="33.810313" lon="-118.393867">
  <ele>-6.89</ele>
  <time>2026-09-01T01:13:26Z</time>
  <course>0.0</course>
  <speed>0.0</speed>
  <fix>3d</fix>
</trkpt>
<trkpt lat="33.8103132" lon="-118.3938672">
  <ele>-7.263</ele>
  <time>2026-09-01T01:13:26Z</time>
  <course>185.88</course>
  <speed>0.03605551275463989</speed>
  <fix>3d</fix>
</trkpt>
<trkpt lat="33.8103132" lon="-118.3938672">
  <ele>-7.307</ele>
  <time>2026-09-01T01:13:26Z</time>
  <course>185.89</course>
  <speed>0.03605551275463989</speed>
  <fix>3d</fix>
</trkpt>
<trkpt lat="33.810313" lon="-118.393867">
  <ele>-7.01</ele>
  <time>2026-09-01T01:13:26Z</time>
  <course>0.0</course>
  <speed>0.0</speed>
  <fix>3d</fix>
</trkpt>
<trkpt lat="33.8103132" lon="-118.3938672">
  <ele>-7.327</ele>
  <time>2026-09-01T01:13:26Z</time>
  <course>185.89</course>
  <speed>0.03605551275463989</speed>
  <fix>3d</fix>
</trkpt>
<trkpt lat="33.8103132" lon="-118.3938672">
  <ele>-7.37</ele>
  <time>2026-09-01T01:13:26Z</time>
  <course>185.9</course>
  <speed>0.03605551275463989</speed>
  <fix>3d</fix>
</trkpt>
<trkpt lat="33.810313" lon="-118.393867">
  <ele>-7.01</ele>
  <time>2026-09-01T01:13:26Z</time>
  <course>0.0</course>
  <speed>0.0</speed>
  <fix>3d</fix>
</trkpt>
<trkpt lat="33.8103132" lon="-118.3938672">
  <ele>-7.388</ele>
  <time>2026-09-01T01:13:26Z</time>
  <course>185.9</course>
  <speed>0.03605551275463989</speed>
  <fix>3d</fix>
</trkpt>
<trkpt lat="33.8103132" lon="-118.3938672">
  <ele>-7.433</ele>
  <time>2026-09-01T01:13:26Z</time>
  <course>185.91</course>
  <speed>0.03605551275463989</speed>
  <fix>3d</fix>
</trkpt>
<trkpt lat="33.810313" lon="-118.393867">
  <ele>-7.13</ele>
  <time>2026-09-01T01:13:26Z</time>
  <course>0.0</course>
  <speed>0.0</speed>
  <fix>3d</fix>
</trkpt>
<trkpt lat="33.8103132" lon="-118.3938672">
  <ele>-7.458</ele>
  <time>2026-09-01T01:13:26Z</time>
  <course>185.91</course>
  <speed>0.03605551275463989</speed>
  <fix>3d</fix>
</trkpt>
<trkpt lat="33.8103132" lon="-118.3938672">
  <ele>-7.496</ele>
  <time>2026-09-01T01:13:26Z</time>
  <course>185.92</course>
  <speed>0.03605551275463989</speed>
  <fix>3d</fix>
</trkpt>
<trkpt lat="33.810313" lon="-118.393867">
  <ele>-7.13</ele>
  <time>2026-09-01T01:13:26Z</time>
  <course>0.0</course>
  <speed>0.0</speed>
  <fix>3d</fix>
</trkpt>
<trkpt lat="33.8103132" lon="-118.3938672">
  <ele>-7.498</ele>
  <time>2026-09-01T01:13:26Z</time>
  <course>185.92</course>
  <speed>0.03605551275463989</speed>
  <fix>3d</fix>
</trkpt>
<trkpt lat="33.8103132" lon="-118.3938672">
  <ele>-7.559</ele>
  <time>2026-09-01T01:13:26Z</time>
  <course>185.93</course>
  <speed>0.03605551275463989</speed>
  <fix>3d</fix>
</trkpt>
<trkpt lat="33.810313" lon="-118.393867">
  <ele>-7.25</ele>
  <time>2026-09-01T01:13:26Z</time>
  <course>0.0</course>
  <speed>0.0</speed>
  <fix>3d</fix>
</trkpt>
<trkpt lat="33.8103132" lon="-118.3938672">
  <ele>-7.579</ele>
  <time>2026-09-01T01:13:26Z</time>
  <course>185.93</course>
  <speed>0.0282842712474619</speed>
  <fix>3d</fix>
</trkpt>
<trkpt lat="33.8103132" lon="-118.3938672">
  <ele>-7.623</ele>
  <time>2026-09-01T01:13:26Z</time>
  <course>185.94</course>
  <speed>0.0282842712474619</speed>
  <fix>3d</fix>
</trkpt>
<trkpt lat="33.810313" lon="-118.393867">
  <ele>-7.25</ele>
  <time>2026-09-01T01:13:26Z</time>
  <course>0.0</course>
  <speed>0.0</speed>
  <fix>3d</fix>
</trkpt>
<trkpt lat="33.8103132" lon="-118.3938672">
  <ele>-7.642</ele>
  <time>2026-09-01T01:13:26Z</time>
  <course>185.94</course>
  <speed>0.0282842712474619</speed>
  <fix>3d</fix>
</trkpt>
<trkpt lat="33.8103132" lon="-118.3938672">
  <ele>-7.686</ele>
  <time>2026-09-01T01:13:26Z</time>
  <course>185.95</course>
  <speed>0.0282842712474619</speed>
  <fix>3d</fix>
</trkpt>
<trkpt lat="33.810313" lon="-118.393867">
  <ele>-7.37</ele>
  <time>2026-09-01T01:13:26Z</time>
  <course>0.0</course>
  <speed>0.0</speed>
  <fix>3d</fix>
</trkpt>
<trkpt lat="33.8103132" lon="-118.3938672">
  <ele>-7.706</ele>
  <time>2026-09-01T01:13:26Z</time>
  <course>185.95</course>
  <speed>0.0282842712474619</speed>
  <fix>3d</fix>
</trkpt>
<trkpt lat="33.8103132" lon="-118.3938672">
  <ele>-7.748</ele>
  <time>2026-09-01T01:13:26Z</time>
  <course>185.96</course>
  <speed>0.0282842712474619</speed>
  <fix>3d</fix>
</trkpt>
<trkpt lat="33.810313" lon="-118.393867">
  <ele>-7.37</ele>
  <time>2026-09-01T01:13:26Z</time>
  <course>0.0</course>
  <speed>0.0</speed>
  <fix>3d</fix>
</trkpt>
<trkpt lat="33.8103132" lon="-118.3938672">
  <ele>-7.769</ele>
  <time>2026-09-01T01:13:26Z</time>
  <course>185.96</course>
  <speed>0.0282842712474619</speed>
  <fix>3d</fix>
</trkpt>
<trkpt lat="33.8103132" lon="-118.3938672">
  <ele>-7.811</ele>
  <time>2026-09-01T01:13:26Z</time>
  <course>185.96</course>
  <speed>0.0282842712474619</speed>
  <fix>3d</fix>
</trkpt>
<trkpt lat="33.810313" lon="-118.393867">
  <ele>-7.49</ele>
  <time>2026-09-01T01:13:26Z</time>
  <course>0.0</course>
  <speed>0.0</speed>
  <fix>3d</fix>
</trkpt>
<trkpt lat="33.8103132" lon="-118.3938672">
  <ele>-7.829</ele>
  <time>2026-09-01T01:13:26Z</time>
  <course>185.97</course>
  <speed>0.0282842712474619</speed>
  <fix>3d</fix>
</trkpt>
<trkpt lat="33.8103132" lon="-118.3938672">
  <ele>-7.872</ele>
  <time>2026-09-01T01:13:26Z</time>
  <course>185.97</course>
  <speed>0.0282842712474619</speed>
  <fix>3d</fix>
</trkpt>
<trkpt lat="33.810313" lon="-118.393867">
  <ele>-7.49</ele>
  <time>2026-09-01T01:13:26Z</time>
  <course>0.0</course>
  <speed>0.0</speed>
  <fix>3d</fix>
</trkpt>
<trkpt lat="33.8103132" lon="-118.3938672">
  <ele>-7.892</ele>
  <time>2026-09-01T01:13:26Z</time>
  <course>185.98</course>
  <speed>0.0282842712474619</speed>
  <fix>3d</fix>
</trkpt>
<trkpt lat="33.8103132" lon="-118.3938672">
  <ele>-7.933</ele>
  <time>2026-09-01T01:13:26Z</time>
  <course>185.98</course>
  <speed>0.0282842712474619</speed>
  <fix>3d</fix>
</trkpt>
<trkpt lat="33.810313" lon="-118.393867">
  <ele>-7.61</ele>
  <time>2026-09-01T01:13:26Z</time>
  <course>0.0</course>
  <speed>0.0</speed>
  <fix>3d</fix>
</trkpt>
<trkpt lat="33.8103132" lon="-118.3938672">
  <ele>-7.952</ele>
  <time>2026-09-01T01:13:26Z</time>
  <course>185.99</course>
  <speed>0.0282842712474619</speed>
  <fix>3d</fix>
</trkpt>
<trkpt lat="33.8103132" lon="-118.3938672">
  <ele>-7.995</ele>
  <time>2026-09-01T01:13:26Z</time>
  <course>185.99</course>
  <speed>0.0282842712474619</speed>
  <fix>3d</fix>
</trkpt>
<trkpt lat="33.810313" lon="-118.393867">
  <ele>-7.61</ele>
  <time>2026-09-01T01:13:26Z</time>
  <course>0.0</course>
  <speed>0.0</speed>
  <fix>3d</fix>
</trkpt>
<trkpt lat="33.8103132" lon="-118.3938672">
  <ele>-8.014</ele>
  <time>2026-09-01T01:13:26Z</time>
  <course>185.99</course>
  <speed>0.0282842712474619</speed>
  <fix>3d</fix>
</trkpt>
<trkpt lat="33.8103132" lon="-118.3938672">
  <ele>-8.055</ele>
  <time>2026-09-01T01:13:26Z</time>
  <course>186.0</course>
  <speed>0.022360679774997897</speed>
  <fix>3d</fix>
</trkpt>
<trkpt lat="33.810313" lon="-118.393867">
  <ele>-7.73</ele>
  <time>2026-09-01T01:13:26Z</time>
  <course>0.0</course>
  <speed>0.0</speed>
  <fix>3d</fix>
</trkpt>
<trkpt lat="33.8103132" lon="-118.3938671">
  <ele>-8.074</ele>
  <time>2026-09-01T01:13:26Z</time>
  <course>186.0</course>
  <speed>0.022360679774997897</speed>
  <fix>3d</fix>
</trkpt>
<trkpt lat="33.8103132" lon="-118.3938671">
  <ele>-8.116</ele>
  <time>2026-09-01T01:13:26Z</time>
  <course>186.01</course>
  <speed>0.022360679774997897</speed>
  <fix>3d</fix>
</trkpt>
<trkpt lat="33.810313" lon="-118.393867">
  <ele>-7.73</ele>
  <time>2026-09-01T01:13:26Z</time>
  <course>0.0</course>
  <speed>0.0</speed>
  <fix>3d</fix>
</trkpt>
<trkpt lat="33.8103132" lon="-118.3938671">
  <ele>-8.118</ele>
  <time>2026-09-01T01:13:26Z</time>
  <course>186.01</course>
  <speed>0.022360679774997897</speed>
  <fix>3d</fix>
</trkpt>
<trkpt lat="33.8103132" lon="-118.3938671">
  <ele>-8.178</ele>
  <time>2026-09-01T01:13:26Z</time>
  <course>186.02</course>
  <speed>0.022360679774997897</speed>
  <fix>3d</fix>
</trkpt>
<trkpt lat="33.810313" lon="-118.393867">
  <ele>-7.85</ele>
  <time>2026-09-01T01:13:26Z</time>
  <course>0.0</course>
  <speed>0.0</speed>
  <fix>3d</fix>
</trkpt>
<trkpt lat="33.8103132" lon="-118.3938671">
  <ele>-8.199</ele>
  <time>2026-09-01T01:13:26Z</time>
  <course>186.02</course>
  <speed>0.022360679774997897</speed>
  <fix>3d</fix>
</trkpt>
<trkpt lat="33.8103132" lon="-118.3938671">
  <ele>-8.239</ele>
  <time>2026-09-01T01:13:26Z</time>
  <course>186.03</course>
  <speed>0.022360679774997897</speed>
  <fix>3d</fix>
</trkpt>
<trkpt lat="33.810313" lon="-118.393867">
  <ele>-7.85</ele>
  <time>2026-09-01T01:13:26Z</time>
  <course>0.0</course>
  <speed>0.0</speed>
  <fix>3d</fix>
</trkpt>
<trkpt lat="33.8103132" lon="-118.3938671">
  <ele>-8.259</ele>
  <time>2026-09-01T01:13:26Z</time>
  <course>186.03</course>
  <speed>0.022360679774997897</speed>
  <fix>3d</fix>
</trkpt>
<trkpt lat="33.8103132" lon="-118.3938671">
  <ele>-8.3</ele>
  <time>2026-09-01T01:13:26Z</time>
  <course>186.03</course>
  <speed>0.022360679774997897</speed>
  <fix>3d</fix>
</trkpt>
<trkpt lat="33.810313" lon="-118.393867">
  <ele>-7.98</ele>
  <time>2026-09-01T01:13:26Z</time>
  <course>0.0</course>
  <speed>0.0</speed>
  <fix>3d</fix>
</trkpt>
<trkpt lat="33.8103132" lon="-118.3938671">
  <ele>-8.322</ele>
  <time>2026-09-01T01:13:26Z</time>
  <course>186.04</course>
  <speed>0.022360679774997897</speed>
  <fix>3d</fix>
</trkpt>
<trkpt lat="33.8103132" lon="-118.3938671">
  <ele>-8.362</ele>
  <time>2026-09-01T01:13:26Z</time>
  <course>186.04</course>
  <speed>0.022360679774997897</speed>
  <fix>3d</fix>
</trkpt>
<trkpt lat="33.810313" lon="-118.393867">
  <ele>-7.98</ele>
  <time>2026-09-01T01:13:26Z</time>
  <course>0.0</course>
  <speed>0.0</speed>
  <fix>3d</fix>
</trkpt>
<trkpt lat="33.8103132" lon="-118.3938671">
  <ele>-8.364</ele>
  <time>2026-09-01T01:13:26Z</time>
  <course>186.04</course>
  <speed>0.022360679774997897</speed>
  <fix>3d</fix>
</trkpt>
<trkpt lat="33.8103132" lon="-118.3938671">
  <ele>-8.424</ele>
  <time>2026-09-01T01:13:26Z</time>
  <course>186.05</course>
  <speed>0.022360679774997897</speed>
  <fix>3d</fix>
</trkpt>
<trkpt lat="33.810313" lon="-118.393867">
  <ele>-8.1</ele>
  <time>2026-09-01T01:13:26Z</time>
  <course>0.0</course>
  <speed>0.0</speed>
  <fix>3d</fix>
</trkpt>
<trkpt lat="33.8103132" lon="-118.3938671">
  <ele>-8.443</ele>
  <time>2026-09-01T01:13:26Z</time>
  <course>186.05</course>
  <speed>0.022360679774997897</speed>
  <fix>3d</fix>
</trkpt>
<trkpt lat="33.8103132" lon="-118.3938671">
  <ele>-8.486</ele>
  <time>2026-09-01T01:13:26Z</time>
  <course>186.06</course>
  <speed>0.022360679774997897</speed>
  <fix>3d</fix>
</trkpt>
<trkpt lat="33.810313" lon="-118.393867">
  <ele>-8.1</ele>
  <time>2026-09-01T01:13:26Z</time>
  <course>0.0</course>
  <speed>0.0</speed>
  <fix>3d</fix>
</trkpt>
<trkpt lat="33.8103132" lon="-118.3938671">
  <ele>-8.505</ele>
  <time>2026-09-01T01:13:26Z</time>
  <course>186.06</course>
  <speed>0.022360679774997897</speed>
  <fix>3d</fix>
</trkpt>
<trkpt lat="33.8103132" lon="-118.3938671">
  <ele>-8.547</ele>
  <time>2026-09-01T01:13:26Z</time>
  <course>186.07</course>
  <speed>0.022360679774997897</speed>
  <fix>3d</fix>
</trkpt>
<trkpt lat="33.810313" lon="-118.393867">
  <ele>-8.21</ele>
  <time>2026-09-01T01:13:26Z</time>
  <course>0.0</course>
  <speed>0.0</speed>
  <fix>3d</fix>
</trkpt>
<trkpt lat="33.8103132" lon="-118.3938671">
  <ele>-8.565</ele>
  <time>2026-09-01T01:13:26Z</time>
  <course>186.07</course>
  <speed>0.022360679774997897</speed>
  <fix>3d</fix>
</trkpt>
<trkpt lat="33.8103132" lon="-118.3938671">
  <ele>-8.608</ele>
  <time>2026-09-01T01:13:26Z</time>
  <course>186.07</course>
  <speed>0.022360679774997897</speed>
  <fix>3d</fix>
</trkpt>
<trkpt lat="33.810313" lon="-118.393867">
  <ele>-8.21</ele>
  <time>2026-09-01T01:13:26Z</time>
  <course>0.0</course>
  <speed>0.0</speed>
  <fix>3d</fix>
</trkpt>
<trkpt lat="33.8103132" lon="-118.3938671">
  <ele>-8.629</ele>
  <time>2026-09-01T01:13:26Z</time>
  <course>186.08</course>
  <speed>0.022360679774997897</speed>
  <fix>3d</fix>
</trkpt>
<trkpt lat="33.8103132" lon="-118.3938671">
  <ele>-8.668</ele>
  <time>2026-09-01T01:13:26Z</time>
  <course>186.08</course>
  <speed>0.022360679774997897</speed>
  <fix>3d</fix>
</trkpt>
<trkpt lat="33.810313" lon="-118.393867">
  <ele>-8.34</ele>
  <time>2026-09-01T01:13:26Z</time>
  <course>0.0</course>
  <speed>0.0</speed>
  <fix>3d</fix>
</trkpt>
<trkpt lat="33.8103132" lon="-118.3938671">
  <ele>-8.687</ele>
  <time>2026-09-01T01:13:26Z</time>
  <course>186.08</course>
  <speed>0.022360679774997897</speed>
  <fix>3d</fix>
</trkpt>
<trkpt lat="33.8103132" lon="-118.3938671">
  <ele>-8.729</ele>
  <time>2026-09-01T01:13:26Z</time>
  <course>186.09</course>
  <speed>0.022360679774997897</speed>
  <fix>3d</fix>
</trkpt>
<trkpt lat="33.810313" lon="-118.393867">
  <ele>-8.34</ele>
  <time>2026-09-01T01:13:26Z</time>
  <course>0.0</course>
  <speed>0.0</speed>
  <fix>3d</fix>
</trkpt>
<trkpt lat="33.8103132" lon="-118.3938671">
  <ele>-8.753</ele>
  <time>2026-09-01T01:13:26Z</time>
  <course>186.09</course>
  <speed>0.022360679774997897</speed>
  <fix>3d</fix>
</trkpt>
<trkpt lat="33.8103132" lon="-118.3938671">
  <ele>-8.789</ele>
  <time>2026-09-01T01:13:26Z</time>
  <course>186.1</course>
  <speed>0.022360679774997897</speed>
  <fix>3d</fix>
</trkpt>
<trkpt lat="33.810313" lon="-118.393867">
  <ele>-8.46</ele>
  <time>2026-09-01T01:13:26Z</time>
  <course>0.0</course>
  <speed>0.0</speed>
  <fix>3d</fix>
</trkpt>
<trkpt lat="33.8103132" lon="-118.3938671">
  <ele>-8.791</ele>
  <time>2026-09-01T01:13:26Z</time>
  <course>186.1</course>
  <speed>0.022360679774997897</speed>
  <fix>3d</fix>
</trkpt>
<trkpt lat="33.8103132" lon="-118.3938671">
  <ele>-8.851</ele>
  <time>2026-09-01T01:13:26Z</time>
  <course>186.11</course>
  <speed>0.022360679774997897</speed>
  <fix>3d</fix>
</trkpt>
<trkpt lat="33.810313" lon="-118.393867">
  <ele>-8.46</ele>
  <time>2026-09-01T01:13:26Z</time>
  <course>0.0</course>
  <speed>0.0</speed>
  <fix>3d</fix>
</trkpt>
<trkpt lat="33.8103132" lon="-118.3938671">
  <ele>-8.853</ele>
  <time>2026-09-01T01:13:26Z</time>
  <course>186.11</course>
  <speed>0.022360679774997897</speed>
  <fix>3d</fix>
</trkpt>
<trkpt lat="33.8103132" lon="-118.3938671">
  <ele>-8.914</ele>
  <time>2026-09-01T01:13:26Z</time>
  <course>186.11</course>
  <speed>0.022360679774997897</speed>
  <fix>3d</fix>
</trkpt>
<trkpt lat="33.810313" lon="-118.393867">
  <ele>-8.58</ele>
  <time>2026-09-01T01:13:26Z</time>
  <course>0.0</course>
  <speed>0.0</speed>
  <fix>3d</fix>
</trkpt>
<trkpt lat="33.8103132" lon="-118.3938671">
  <ele>-8.934</ele>
  <time>2026-09-01T01:13:26Z</time>
  <course>186.11</course>
  <speed>0.022360679774997897</speed>
  <fix>3d</fix>
</trkpt>
<trkpt lat="33.8103132" lon="-118.3938671">
  <ele>-8.977</ele>
  <time>2026-09-01T01:13:26Z</time>
  <course>186.12</course>
  <speed>0.022360679774997897</speed>
  <fix>3d</fix>
</trkpt>
<trkpt lat="33.810313" lon="-118.393867">
  <ele>-8.58</ele>
  <time>2026-09-01T01:13:26Z</time>
  <course>0.0</course>
  <speed>0.0</speed>
  <fix>3d</fix>
</trkpt>
<trkpt lat="33.8103132" lon="-118.3938671">
  <ele>-9.0</ele>
  <time>2026-09-01T01:13:26Z</time>
  <course>186.12</course>
  <speed>0.022360679774997897</speed>
  <fix>3d</fix>
</trkpt>
<trkpt lat="33.8103132" lon="-118.3938671">
  <ele>-9.039</ele>
  <time>2026-09-01T01:13:26Z</time>
  <course>186.13</course>
  <speed>0.022360679774997897</speed>
  <fix>3d</fix>
</trkpt>
<trkpt lat="33.810313" lon="-118.393867">
  <ele>-8.7</ele>
  <time>2026-09-01T01:13:26Z</time>
  <course>0.0</course>
  <speed>0.0</speed>
  <fix>3d</fix>
</trkpt>
<trkpt lat="33.8103132" lon="-118.3938671">
  <ele>-9.069</ele>
  <time>2026-09-01T01:13:26Z</time>
  <course>186.13</course>
  <speed>0.022360679774997897</speed>
  <fix>3d</fix>
</trkpt>
<trkpt lat="33.8103132" lon="-118.3938671">
  <ele>-9.102</ele>
  <time>2026-09-01T01:13:26Z</time>
  <course>186.13</course>
  <speed>0.022360679774997897</speed>
  <fix>3d</fix>
</trkpt>
<trkpt lat="33.810313" lon="-118.393867">
  <ele>-8.7</ele>
  <time>2026-09-01T01:13:26Z</time>
  <course>0.0</course>
  <speed>0.0</speed>
  <fix>3d</fix>
</trkpt>
<trkpt lat="33.8103132" lon="-118.3938671">
  <ele>-9.105</ele>
  <time>2026-09-01T01:13:26Z</time>
  <course>186.13</course>
  <speed>0.022360679774997897</speed>
  <fix>3d</fix>
</trkpt>
<trkpt lat="33.8103132" lon="-118.3938671">
  <ele>-9.164</ele>
  <time>2026-09-01T01:13:26Z</time>
  <course>186.14</course>
  <speed>0.022360679774997897</speed>
  <fix>3d</fix>
</trkpt>
<trkpt lat="33.810313" lon="-118.393867">
  <ele>-8.82</ele>
  <time>2026-09-01T01:13:26Z</time>
  <course>0.0</course>
  <speed>0.0</speed>
  <fix>3d</fix>
</trkpt>
<trkpt lat="33.8103132" lon="-118.3938671">
  <ele>-9.166</ele>
  <time>2026-09-01T01:13:26Z</time>
  <course>186.14</course>
  <speed>0.022360679774997897</speed>
  <fix>3d</fix>
</trkpt>
<trkpt lat="33.8103132" lon="-118.3938671">
  <ele>-9.226</ele>
  <time>2026-09-01T01:13:26Z</time>
  <course>186.15</course>
  <speed>0.022360679774997897</speed>
  <fix>3d</fix>
</trkpt>
<trkpt lat="33.810313" lon="-118.393867">
  <ele>-8.82</ele>
  <time>2026-09-01T01:13:26Z</time>
  <course>0.0</course>
  <speed>0.0</speed>
  <fix>3d</fix>
</trkpt>
<trkpt lat="33.8103132" lon="-118.3938671">
  <ele>-9.227</ele>
  <time>2026-09-01T01:13:26Z</time>
  <course>186.15</course>
  <speed>0.022360679774997897</speed>
  <fix>3d</fix>
</trkpt>
<trkpt lat="33.8103132" lon="-118.3938671">
  <ele>-9.288</ele>
  <time>2026-09-01T01:13:26Z</time>
  <course>186.16</course>
  <speed>0.022360679774997897</speed>
  <fix>3d</fix>
</trkpt>
<trkpt lat="33.810313" lon="-118.393867">
  <ele>-8.94</ele>
  <time>2026-09-01T01:13:26Z</time>
  <course>0.0</course>
  <speed>0.0</speed>
  <fix>3d</fix>
</trkpt>
<trkpt lat="33.8103132" lon="-118.3938671">
  <ele>-9.289</ele>
  <time>2026-09-01T01:13:26Z</time>
  <course>186.16</course>
  <speed>0.022360679774997897</speed>
  <fix>3d</fix>
</trkpt>
<trkpt lat="33.8103132" lon="-118.3938671">
  <ele>-9.349</ele>
  <time>2026-09-01T01:13:26Z</time>
  <course>186.16</course>
  <speed>0.022360679774997897</speed>
  <fix>3d</fix>
</trkpt>
<trkpt lat="33.810313" lon="-118.393867">
  <ele>-8.94</ele>
  <time>2026-09-01T01:13:26Z</time>
  <course>0.0</course>
  <speed>0.0</speed>
  <fix>3d</fix>
</trkpt>
<trkpt lat="33.8103132" lon="-118.3938671">
  <ele>-9.368</ele>
  <time>2026-09-01T01:13:26Z</time>
  <course>186.16</course>
  <speed>0.022360679774997897</speed>
  <fix>3d</fix>
</trkpt>
<trkpt lat="33.8103132" lon="-118.3938671">
  <ele>-9.409</ele>
  <time>2026-09-01T01:13:26Z</time>
  <course>186.17</course>
  <speed>0.022360679774997897</speed>
  <fix>3d</fix>
</trkpt>
<trkpt lat="33.810313" lon="-118.393867">
  <ele>-9.05</ele>
  <time>2026-09-01T01:13:26Z</time>
  <course>0.0</course>
  <speed>0.0</speed>
  <fix>3d</fix>
</trkpt>
<trkpt lat="33.8103132" lon="-118.3938671">
  <ele>-9.411</ele>
  <time>2026-09-01T01:13:26Z</time>
  <course>186.17</course>
  <speed>0.022360679774997897</speed>
  <fix>3d</fix>
</trkpt>
<trkpt lat="33.8103132" lon="-118.3938671">
  <ele>-9.47</ele>
  <time>2026-09-01T01:13:26Z</time>
  <course>186.18</course>
  <speed>0.022360679774997897</speed>
  <fix>3d</fix>
</trkpt>
<trkpt lat="33.810313" lon="-118.393867">
  <ele>-9.05</ele>
  <time>2026-09-01T01:13:26Z</time>
  <course>0.0</course>
  <speed>0.0</speed>
  <fix>3d</fix>
</trkpt>
<trkpt lat="33.8103132" lon="-118.3938671">
  <ele>-9.471</ele>
  <time>2026-09-01T01:13:26Z</time>
  <course>186.18</course>
  <speed>0.022360679774997897</speed>
  <fix>3d</fix>
</trkpt>
<trkpt lat="33.8103132" lon="-118.3938671">
  <ele>-9.531</ele>
  <time>2026-09-01T01:13:26Z</time>
  <course>186.18</course>
  <speed>0.022360679774997897</speed>
  <fix>3d</fix>
</trkpt>
<trkpt lat="33.810313" lon="-118.393867">
  <ele>-9.18</ele>
  <time>2026-09-01T01:13:26Z</time>
  <course>0.0</course>
  <speed>0.0</speed>
  <fix>3d</fix>
</trkpt>
<trkpt lat="33.8103132" lon="-118.3938671">
  <ele>-9.548</ele>
  <time>2026-09-01T01:13:26Z</time>
  <course>186.18</course>
  <speed>0.022360679774997897</speed>
  <fix>3d</fix>
</trkpt>
<trkpt lat="33.8103132" lon="-118.3938671">
  <ele>-9.593</ele>
  <time>2026-09-01T01:13:26Z</time>
  <course>186.19</course>
  <speed>0.022360679774997897</speed>
  <fix>3d</fix>
</trkpt>
<trkpt lat="33.810313" lon="-118.393867">
  <ele>-9.18</ele>
  <time>2026-09-01T01:13:26Z</time>
  <course>0.0</course>
  <speed>0.0</speed>
  <fix>3d</fix>
</trkpt>
<trkpt lat="33.8103132" lon="-118.3938671">
  <ele>-9.617</ele>
  <time>2026-09-01T01:13:26Z</time>
  <course>186.19</course>
  <speed>0.022360679774997897</speed>
  <fix>3d</fix>
</trkpt>
<trkpt lat="33.8103132" lon="-118.3938671">
  <ele>-9.655</ele>
  <time>2026-09-01T01:13:26Z</time>
  <course>186.19</course>
  <speed>0.022360679774997897</speed>
  <fix>3d</fix>
</trkpt>
<trkpt lat="33.810313" lon="-118.393867">
  <ele>-9.29</ele>
  <time>2026-09-01T01:13:26Z</time>
  <course>0.0</course>
  <speed>0.0</speed>
  <fix>3d</fix>
</trkpt>
<trkpt lat="33.8103132" lon="-118.3938671">
  <ele>-9.67</ele>
  <time>2026-09-01T01:13:26Z</time>
  <course>186.2</course>
  <speed>0.022360679774997897</speed>
  <fix>3d</fix>
</trkpt>
<trkpt lat="33.8103132" lon="-118.3938671">
  <ele>-9.717</ele>
  <time>2026-09-01T01:13:26Z</time>
  <course>186.2</course>
  <speed>0.022360679774997897</speed>
  <fix>3d</fix>
</trkpt>
<trkpt lat="33.810313" lon="-118.393867">
  <ele>-9.29</ele>
  <time>2026-09-01T01:13:26Z</time>
  <course>0.0</course>
  <speed>0.0</speed>
  <fix>3d</fix>
</trkpt>
<trkpt lat="33.8103132" lon="-118.3938671">
  <ele>-9.73</ele>
  <time>2026-09-01T01:13:26Z</time>
  <course>186.2</course>
  <speed>0.022360679774997897</speed>
  <fix>3d</fix>
</trkpt>
<trkpt lat="33.8103132" lon="-118.3938671">
  <ele>-9.78</ele>
  <time>2026-09-01T01:13:26Z</time>
  <course>186.21</course>
  <speed>0.022360679774997897</speed>
  <fix>3d</fix>
</trkpt>
<trkpt lat="33.810313" lon="-118.393867">
  <ele>-9.42</ele>
  <time>2026-09-01T01:13:26Z</time>
  <course>0.0</course>
  <speed>0.0</speed>
  <fix>3d</fix>
</trkpt>
<trkpt lat="33.8103132" lon="-118.3938671">
  <ele>-9.783</ele>
  <time>2026-09-01T01:13:26Z</time>
  <course>186.21</course>
  <speed>0.022360679774997897</speed>
  <fix>3d</fix>
</trkpt>
<trkpt lat="33.8103132" lon="-118.3938671">
  <ele>-9.843</ele>
  <time>2026-09-01T01:13:26Z</time>
  <course>186.21</course>
  <speed>0.022360679774997897</speed>
  <fix>3d</fix>
</trkpt>
<trkpt lat="33.810313" lon="-118.393867">
  <ele>-9.42</ele>
  <time>2026-09-01T01:13:26Z</time>
  <course>0.0</course>
  <speed>0.0</speed>
  <fix>3d</fix>
</trkpt>
<trkpt lat="33.8103132" lon="-118.3938671">
  <ele>-9.844</ele>
  <time>2026-09-01T01:13:26Z</time>
  <course>186.21</course>
  <speed>0.022360679774997897</speed>
  <fix>3d</fix>
</trkpt>
<trkpt lat="33.8103132" lon="-118.3938671">
  <ele>-9.906</ele>
  <time>2026-09-01T01:13:26Z</time>
  <course>186.22</course>
  <speed>0.022360679774997897</speed>
  <fix>3d</fix>
</trkpt>
<trkpt lat="33.810313" lon="-118.393867">
  <ele>-9.54</ele>
  <time>2026-09-01T01:13:26Z</time>
  <course>0.0</course>
  <speed>0.0</speed>
  <fix>3d</fix>
</trkpt>
<trkpt lat="33.8103132" lon="-118.3938671">
  <ele>-9.907</ele>
  <time>2026-09-01T01:13:26Z</time>
  <course>186.22</course>
  <speed>0.022360679774997897</speed>
  <fix>3d</fix>
</trkpt>
<trkpt lat="33.8103132" lon="-118.3938671">
  <ele>-9.969</ele>
  <time>2026-09-01T01:13:26Z</time>
  <course>186.23</course>
  <speed>0.022360679774997897</speed>
  <fix>3d</fix>
</trkpt>
<trkpt lat="33.810313" lon="-118.393867">
  <ele>-9.54</ele>
  <time>2026-09-01T01:13:26Z</time>
  <course>0.0</course>
  <speed>0.0</speed>
  <fix>3d</fix>
</trkpt>
<trkpt lat="33.8103132" lon="-118.3938671">
  <ele>-9.988</ele>
  <time>2026-09-01T01:13:26Z</time>
  <course>186.23</course>
  <speed>0.022360679774997897</speed>
  <fix>3d</fix>
</trkpt>
<trkpt lat="33.8103132" lon="-118.3938671">
  <ele>-10.031</ele>
  <time>2026-09-01T01:13:26Z</time>
  <course>186.23</course>
  <speed>0.022360679774997897</speed>
  <fix>3d</fix>
</trkpt>
<trkpt lat="33.810313" lon="-118.393867">
  <ele>-9.66</ele>
  <time>2026-09-01T01:13:26Z</time>
  <course>0.0</course>
  <speed>0.0</speed>
  <fix>3d</fix>
</trkpt>
<trkpt lat="33.8103132" lon="-118.3938671">
  <ele>-10.052</ele>
  <time>2026-09-01T01:13:26Z</time>
  <course>186.23</course>
  <speed>0.022360679774997897</speed>
  <fix>3d</fix>
</trkpt>
<trkpt lat="33.8103132" lon="-118.3938671">
  <ele>-10.094</ele>
  <time>2026-09-01T01:13:26Z</time>
  <course>186.24</course>
  <speed>0.022360679774997897</speed>
  <fix>3d</fix>
</trkpt>
<trkpt lat="33.810313" lon="-118.393867">
  <ele>-9.66</ele>
  <time>2026-09-01T01:13:26Z</time>
  <course>0.0</course>
  <speed>0.0</speed>
  <fix>3d</fix>
</trkpt>
<trkpt lat="33.8103132" lon="-118.3938671">
  <ele>-10.095</ele>
  <time>2026-09-01T01:13:26Z</time>
  <course>186.24</course>
  <speed>0.022360679774997897</speed>
  <fix>3d</fix>
</trkpt>
<trkpt lat="33.8103132" lon="-118.3938671">
  <ele>-10.155</ele>
  <time>2026-09-01T01:13:26Z</time>
  <course>186.24</course>
  <speed>0.022360679774997897</speed>
  <fix>3d</fix>
</trkpt>
<trkpt lat="33.810313" lon="-118.393867">
  <ele>-9.79</ele>
  <time>2026-09-01T01:13:26Z</time>
  <course>0.0</course>
  <speed>0.0</speed>
  <fix>3d</fix>
</trkpt>
<trkpt lat="33.8103132" lon="-118.3938671">
  <ele>-10.177</ele>
  <time>2026-09-01T01:13:26Z</time>
  <course>186.25</course>
  <speed>0.022360679774997897</speed>
  <fix>3d</fix>
</trkpt>
<trkpt lat="33.8103132" lon="-118.3938671">
  <ele>-10.217</ele>
  <time>2026-09-01T01:13:26Z</time>
  <course>186.25</course>
  <speed>0.022360679774997897</speed>
  <fix>3d</fix>
</trkpt>
<trkpt lat="33.810313" lon="-118.393867">
  <ele>-9.79</ele>
  <time>2026-09-01T01:13:26Z</time>
  <course>0.0</course>
  <speed>0.0</speed>
  <fix>3d</fix>
</trkpt>
<trkpt lat="33.8103132" lon="-118.3938671">
  <ele>-10.238</ele>
  <time>2026-09-01T01:13:26Z</time>
  <course>186.25</course>
  <speed>0.022360679774997897</speed>
  <fix>3d</fix>
</trkpt>
<trkpt lat="33.8103132" lon="-118.3938671">
  <ele>-10.277</ele>
  <time>2026-09-01T01:13:26Z</time>
  <course>186.25</course>
  <speed>0.022360679774997897</speed>
  <fix>3d</fix>
</trkpt>
<trkpt lat="33.810313" lon="-118.393867">
  <ele>-9.91</ele>
  <time>2026-09-01T01:13:26Z</time>
  <course>0.0</course>
  <speed>0.0</speed>
  <fix>3d</fix>
</trkpt>
<trkpt lat="33.8103132" lon="-118.3938671">
  <ele>-10.296</ele>
  <time>2026-09-01T01:13:26Z</time>
  <course>186.26</course>
  <speed>0.022360679774997897</speed>
  <fix>3d</fix>
</trkpt>
<trkpt lat="33.8103132" lon="-118.3938671">
  <ele>-10.337</ele>
  <time>2026-09-01T01:13:26Z</time>
  <course>186.26</course>
  <speed>0.022360679774997897</speed>
  <fix>3d</fix>
</trkpt>
<trkpt lat="33.810313" lon="-118.393867">
  <ele>-9.91</ele>
  <time>2026-09-01T01:13:26Z</time>
  <course>0.0</course>
  <speed>0.0</speed>
  <fix>3d</fix>
</trkpt>
<trkpt lat="33.8103132" lon="-118.3938671">
  <ele>-10.357</ele>
  <time>2026-09-01T01:13:26Z</time>
  <course>186.26</course>
  <speed>0.022360679774997897</speed>
  <fix>3d</fix>
</trkpt>
<trkpt lat="33.8103132" lon="-118.3938671">
  <ele>-10.398</ele>
  <time>2026-09-01T01:13:26Z</time>
  <course>186.26</course>
  <speed>0.022360679774997897</speed>
  <fix>3d</fix>
</trkpt>
<trkpt lat="33.810313" lon="-118.393867">
  <ele>-10.03</ele>
  <time>2026-09-01T01:13:26Z</time>
  <course>0.0</course>
  <speed>0.0</speed>
  <fix>3d</fix>
</trkpt>
<trkpt lat="33.8103132" lon="-118.3938671">
  <ele>-10.399</ele>
  <time>2026-09-01T01:13:26Z</time>
  <course>186.27</course>
  <speed>0.022360679774997897</speed>
  <fix>3d</fix>
</trkpt>
<trkpt lat="33.8103132" lon="-118.3938671">
  <ele>-10.46</ele>
  <time>2026-09-01T01:13:27Z</time>
  <course>186.27</course>
  <speed>0.022360679774997897</speed>
  <fix>3d</fix>
</trkpt>
<trkpt lat="33.810313" lon="-118.393867">
  <ele>-10.03</ele>
  <time>2026-09-01T01:13:27Z</time>
  <course>0.0</course>
  <speed>0.0</speed>
  <fix>3d</fix>
</trkpt>
<trkpt lat="33.8103132" lon="-118.3938671">
  <ele>-10.481</ele>
  <time>2026-09-01T01:13:27Z</time>
  <course>186.27</course>
  <speed>0.022360679774997897</speed>
  <fix>3d</fix>
</trkpt>
<trkpt lat="33.8103132" lon="-118.3938671">
  <ele>-10.521</ele>
  <time>2026-09-01T01:13:27Z</time>
  <course>186.28</course>
  <speed>0.022360679774997897</speed>
  <fix>3d</fix>
</trkpt>
<trkpt lat="33.810313" lon="-118.393867">
  <ele>-10.15</ele>
  <time>2026-09-01T01:13:27Z</time>
  <course>0.0</course>
  <speed>0.0</speed>
  <fix>3d</fix>
</trkpt>
<trkpt lat="33.8103132" lon="-118.3938671">
  <ele>-10.541</ele>
  <time>2026-09-01T01:13:27Z</time>
  <course>186.28</course>
  <speed>0.022360679774997897</speed>
  <fix>3d</fix>
</trkpt>
<trkpt lat="33.8103132" lon="-118.3938671">
  <ele>-10.582</ele>
  <time>2026-09-01T01:13:27Z</time>
  <course>186.28</course>
  <speed>0.022360679774997897</speed>
  <fix>3d</fix>
</trkpt>
<trkpt lat="33.810313" lon="-118.393867">
  <ele>-10.15</ele>
  <time>2026-09-01T01:13:27Z</time>
  <course>0.0</course>
  <speed>0.0</speed>
  <fix>3d</fix>
</trkpt>
<trkpt lat="33.8103132" lon="-118.3938671">
  <ele>-10.601</ele>
  <time>2026-09-01T01:13:27Z</time>
  <course>186.28</course>
  <speed>0.022360679774997897</speed>
  <fix>3d</fix>
</trkpt>
<trkpt lat="33.8103132" lon="-118.3938671">
  <ele>-10.644</ele>
  <time>2026-09-01T01:13:27Z</time>
  <course>186.29</course>
  <speed>0.022360679774997897</speed>
  <fix>3d</fix>
</trkpt>
<trkpt lat="33.810313" lon="-118.393867">
  <ele>-10.27</ele>
  <time>2026-09-01T01:13:27Z</time>
  <course>0.0</course>
  <speed>0.0</speed>
  <fix>3d</fix>
</trkpt>
<trkpt lat="33.8103132" lon="-118.3938671">
  <ele>-10.664</ele>
  <time>2026-09-01T01:13:27Z</time>
  <course>186.29</course>
  <speed>0.022360679774997897</speed>
  <fix>3d</fix>
</trkpt>
<trkpt lat="33.8103132" lon="-118.3938671">
  <ele>-10.705</ele>
  <time>2026-09-01T01:13:27Z</time>
  <course>186.29</course>
  <speed>0.022360679774997897</speed>
  <fix>3d</fix>
</trkpt>
<trkpt lat="33.810313" lon="-118.393867">
  <ele>-10.27</ele>
  <time>2026-09-01T01:13:27Z</time>
  <course>0.0</course>
  <speed>0.0</speed>
  <fix>3d</fix>
</trkpt>
<trkpt lat="33.8103132" lon="-118.3938671">
  <ele>-10.707</ele>
  <time>2026-09-01T01:13:27Z</time>
  <course>186.29</course>
  <speed>0.022360679774997897</speed>
  <fix>3d</fix>
</trkpt>
<trkpt lat="33.8103132" lon="-118.3938671">
  <ele>-10.767</ele>
  <time>2026-09-01T01:13:27Z</time>
  <course>186.3</course>
  <speed>0.022360679774997897</speed>
  <fix>3d</fix>
</trkpt>
<trkpt lat="33.810313" lon="-118.393867">
  <ele>-10.38</ele>
  <time>2026-09-01T01:13:27Z</time>
  <course>0.0</course>
  <speed>0.0</speed>
  <fix>3d</fix>
</trkpt>
<trkpt lat="33.8103132" lon="-118.3938671">
  <ele>-10.786</ele>
  <time>2026-09-01T01:13:27Z</time>
  <course>186.3</course>
  <speed>0.022360679774997897</speed>
  <fix>3d</fix>
</trkpt>
<trkpt lat="33.8103132" lon="-118.3938671">
  <ele>-10.831</ele>
  <time>2026-09-01T01:13:27Z</time>
  <course>186.3</course>
  <speed>0.022360679774997897</speed>
  <fix>3d</fix>
</trkpt>
<trkpt lat="33.810313" lon="-118.393867">
  <ele>-10.38</ele>
  <time>2026-09-01T01:13:27Z</time>
  <course>0.0</course>
  <speed>0.0</speed>
  <fix>3d</fix>
</trkpt>
<trkpt lat="33.8103132" lon="-118.3938671">
  <ele>-10.853</ele>
  <time>2026-09-01T01:13:27Z</time>
  <course>186.3</course>
  <speed>0.022360679774997897</speed>
  <fix>3d</fix>
</trkpt>
<trkpt lat="33.8103132" lon="-118.3938671">
  <ele>-10.894</ele>
  <time>2026-09-01T01:13:27Z</time>
  <course>186.31</course>
  <speed>0.022360679774997897</speed>
  <fix>3d</fix>
</trkpt>
<trkpt lat="33.810313" lon="-118.393867">
  <ele>-10.51</ele>
  <time>2026-09-01T01:13:27Z</time>
  <course>0.0</course>
  <speed>0.0</speed>
  <fix>3d</fix>
</trkpt>
<trkpt lat="33.8103132" lon="-118.3938671">
  <ele>-10.913</ele>
  <time>2026-09-01T01:13:27Z</time>
  <course>186.31</course>
  <speed>0.022360679774997897</speed>
  <fix>3d</fix>
</trkpt>
<trkpt lat="33.8103132" lon="-118.3938671">
  <ele>-10.957</ele>
  <time>2026-09-01T01:13:27Z</time>
  <course>186.31</course>
  <speed>0.022360679774997897</speed>
  <fix>3d</fix>
</trkpt>
<trkpt lat="33.810313" lon="-118.393867">
  <ele>-10.51</ele>
  <time>2026-09-01T01:13:27Z</time>
  <course>0.0</course>
  <speed>0.0</speed>
  <fix>3d</fix>
</trkpt>
<trkpt lat="33.8103132" lon="-118.3938671">
  <ele>-10.978</ele>
  <time>2026-09-01T01:13:27Z</time>
  <course>186.31</course>
  <speed>0.022360679774997897</speed>
  <fix>3d</fix>
</trkpt>
<trkpt lat="33.8103132" lon="-118.3938671">
  <ele>-11.021</ele>
  <time>2026-09-01T01:13:27Z</time>
  <course>186.32</course>
  <speed>0.022360679774997897</speed>
  <fix>3d</fix>
</trkpt>
<trkpt lat="33.810313" lon="-118.393867">
  <ele>-10.62</ele>
  <time>2026-09-01T01:13:27Z</time>
  <course>0.0</course>
  <speed>0.0</speed>
  <fix>3d</fix>
</trkpt>
<trkpt lat="33.8103132" lon="-118.3938671">
  <ele>-11.022</ele>
  <time>2026-09-01T01:13:27Z</time>
  <course>186.32</course>
  <speed>0.022360679774997897</speed>
  <fix>3d</fix>
</trkpt>
<trkpt lat="33.8103132" lon="-118.3938671">
  <ele>-11.084</ele>
  <time>2026-09-01T01:13:27Z</time>
  <course>186.32</course>
  <speed>0.022360679774997897</speed>
  <fix>3d</fix>
</trkpt>
<trkpt lat="33.810313" lon="-118.393867">
  <ele>-10.62</ele>
  <time>2026-09-01T01:13:27Z</time>
  <course>0.0</course>
  <speed>0.0</speed>
  <fix>3d</fix>
</trkpt>
<trkpt lat="33.8103132" lon="-118.3938671">
  <ele>-11.104</ele>
  <time>2026-09-01T01:13:27Z</time>
  <course>186.32</course>
  <speed>0.022360679774997897</speed>
  <fix>3d</fix>
</trkpt>
<trkpt lat="33.8103132" lon="-118.3938671">
  <ele>-11.149</ele>
  <time>2026-09-01T01:13:27Z</time>
  <course>186.32</course>
  <speed>0.022360679774997897</speed>
  <fix>3d</fix>
</trkpt>
<trkpt lat="33.810313" lon="-118.393867">
  <ele>-10.75</ele>
  <time>2026-09-01T01:13:27Z</time>
  <course>0.0</course>
  <speed>0.0</speed>
  <fix>3d</fix>
</trkpt>
<trkpt lat="33.8103132" lon="-118.3938671">
  <ele>-11.17</ele>
  <time>2026-09-01T01:13:27Z</time>
  <course>186.33</course>
  <speed>0.022360679774997897</speed>
  <fix>3d</fix>
</trkpt>
<trkpt lat="33.8103132" lon="-118.3938671">
  <ele>-11.214</ele>
  <time>2026-09-01T01:13:27Z</time>
  <course>186.33</course>
  <speed>0.022360679774997897</speed>
  <fix>3d</fix>
</trkpt>
<trkpt lat="33.810313" lon="-118.393867">
  <ele>-10.75</ele>
  <time>2026-09-01T01:13:27Z</time>
  <course>0.0</course>
  <speed>0.0</speed>
  <fix>3d</fix>
</trkpt>
<trkpt lat="33.8103132" lon="-118.3938671">
  <ele>-11.234</ele>
  <time>2026-09-01T01:13:27Z</time>
  <course>186.33</course>
  <speed>0.022360679774997897</speed>
  <fix>3d</fix>
</trkpt>
<trkpt lat="33.8103132" lon="-118.3938671">
  <ele>-11.278</ele>
  <time>2026-09-01T01:13:27Z</time>
  <course>186.33</course>
  <speed>0.022360679774997897</speed>
  <fix>3d</fix>
</trkpt>
<trkpt lat="33.810313" lon="-118.393867">
  <ele>-10.87</ele>
  <time>2026-09-01T01:13:27Z</time>
  <course>0.0</course>
  <speed>0.0</speed>
  <fix>3d</fix>
</trkpt>
<trkpt lat="33.8103132" lon="-118.3938671">
  <ele>-11.279</ele>
  <time>2026-09-01T01:13:27Z</time>
  <course>186.33</course>
  <speed>0.022360679774997897</speed>
  <fix>3d</fix>
</trkpt>
<trkpt lat="33.8103132" lon="-118.3938671">
  <ele>-11.34</ele>
  <time>2026-09-01T01:13:27Z</time>
  <course>186.34</course>
  <speed>0.022360679774997897</speed>
  <fix>3d</fix>
</trkpt>
<trkpt lat="33.810313" lon="-118.393867">
  <ele>-10.87</ele>
  <time>2026-09-01T01:13:27Z</time>
  <course>0.0</course>
  <speed>0.0</speed>
  <fix>3d</fix>
</trkpt>
<trkpt lat="33.8103132" lon="-118.3938671">
  <ele>-11.342</ele>
  <time>2026-09-01T01:13:27Z</time>
  <course>186.34</course>
  <speed>0.022360679774997897</speed>
  <fix>3d</fix>
</trkpt>
<trkpt lat="33.8103132" lon="-118.3938671">
  <ele>-11.404</ele>
  <time>2026-09-01T01:13:27Z</time>
  <course>186.34</course>
  <speed>0.022360679774997897</speed>
  <fix>3d</fix>
</trkpt>
<trkpt lat="33.810313" lon="-118.393867">
  <ele>-10.99</ele>
  <time>2026-09-01T01:13:27Z</time>
  <course>0.0</course>
  <speed>0.0</speed>
  <fix>3d</fix>
</trkpt>
<trkpt lat="33.8103132" lon="-118.3938671">
  <ele>-11.405</ele>
  <time>2026-09-01T01:13:27Z</time>
  <course>186.34</course>
  <speed>0.022360679774997897</speed>
  <fix>3d</fix>
</trkpt>
<trkpt lat="33.8103132" lon="-118.3938671">
  <ele>-11.467</ele>
  <time>2026-09-01T01:13:27Z</time>
  <course>186.35</course>
  <speed>0.022360679774997897</speed>
  <fix>3d</fix>
</trkpt>
<trkpt lat="33.810313" lon="-118.393867">
  <ele>-10.99</ele>
  <time>2026-09-01T01:13:27Z</time>
  <course>0.0</course>
  <speed>0.0</speed>
  <fix>3d</fix>
</trkpt>
<trkpt lat="33.8103132" lon="-118.3938671">
  <ele>-11.49</ele>
  <time>2026-09-01T01:13:27Z</time>
  <course>186.35</course>
  <speed>0.022360679774997897</speed>
  <fix>3d</fix>
</trkpt>
<trkpt lat="33.8103132" lon="-118.3938671">
  <ele>-11.531</ele>
  <time>2026-09-01T01:13:27Z</time>
  <course>186.35</course>
  <speed>0.022360679774997897</speed>
  <fix>3d</fix>
</trkpt>
<trkpt lat="33.810313" lon="-118.393867">
  <ele>-11.11</ele>
  <time>2026-09-01T01:13:27Z</time>
  <course>0.0</course>
  <speed>0.0</speed>
  <fix>3d</fix>
</trkpt>
<trkpt lat="33.8103132" lon="-118.3938671">
  <ele>-11.551</ele>
  <time>2026-09-01T01:13:27Z</time>
  <course>186.35</course>
  <speed>0.022360679774997897</speed>
  <fix>3d</fix>
</trkpt>
<trkpt lat="33.8103132" lon="-118.3938671">
  <ele>-11.595</ele>
  <time>2026-09-01T01:13:27Z</time>
  <course>186.35</course>
  <speed>0.022360679774997897</speed>
  <fix>3d</fix>
</trkpt>
<trkpt lat="33.810313" lon="-118.393867">
  <ele>-11.11</ele>
  <time>2026-09-01T01:13:27Z</time>
  <course>0.0</course>
  <speed>0.0</speed>
  <fix>3d</fix>
</trkpt>
<trkpt lat="33.8103132" lon="-118.3938671">
  <ele>-11.616</ele>
  <time>2026-09-01T01:13:27Z</time>
  <course>186.36</course>
  <speed>0.022360679774997897</speed>
  <fix>3d</fix>
</trkpt>
<trkpt lat="33.8103132" lon="-118.3938671">
  <ele>-11.659</ele>
  <time>2026-09-01T01:13:27Z</time>
  <course>186.36</course>
  <speed>0.022360679774997897</speed>
  <fix>3d</fix>
</trkpt>
<trkpt lat="33.810313" lon="-118.393867">
  <ele>-11.23</ele>
  <time>2026-09-01T01:13:27Z</time>
  <course>0.0</course>
  <speed>0.0</speed>
  <fix>3d</fix>
</trkpt>
<trkpt lat="33.8103132" lon="-118.3938671">
  <ele>-11.66</ele>
  <time>2026-09-01T01:13:27Z</time>
  <course>186.36</course>
  <speed>0.022360679774997897</speed>
  <fix>3d</fix>
</trkpt>
<trkpt lat="33.8103132" lon="-118.3938671">
  <ele>-11.72</ele>
  <time>2026-09-01T01:13:27Z</time>
  <course>186.36</course>
  <speed>0.022360679774997897</speed>
  <fix>3d</fix>
</trkpt>
<trkpt lat="33.810313" lon="-118.393867">
  <ele>-11.23</ele>
  <time>2026-09-01T01:13:27Z</time>
  <course>0.0</course>
  <speed>0.0</speed>
  <fix>3d</fix>
</trkpt>
<trkpt lat="33.8103132" lon="-118.3938671">
  <ele>-11.738</ele>
  <time>2026-09-01T01:13:27Z</time>
  <course>186.36</course>
  <speed>0.022360679774997897</speed>
  <fix>3d</fix>
</trkpt>
<trkpt lat="33.8103132" lon="-118.3938671">
  <ele>-11.781</ele>
  <time>2026-09-01T01:13:27Z</time>
  <course>186.37</course>
  <speed>0.022360679774997897</speed>
  <fix>3d</fix>
</trkpt>
<trkpt lat="33.810313" lon="-118.393867">
  <ele>-11.35</ele>
  <time>2026-09-01T01:13:27Z</time>
  <course>0.0</course>
  <speed>0.0</speed>
  <fix>3d</fix>
</trkpt>
<trkpt lat="33.8103132" lon="-118.3938671">
  <ele>-11.801</ele>
  <time>2026-09-01T01:13:27Z</time>
  <course>186.37</course>
  <speed>0.022360679774997897</speed>
  <fix>3d</fix>
</trkpt>
<trkpt lat="33.8103132" lon="-118.3938671">
  <ele>-11.843</ele>
  <time>2026-09-01T01:13:27Z</time>
  <course>186.37</course>
  <speed>0.022360679774997897</speed>
  <fix>3d</fix>
</trkpt>
<trkpt lat="33.810313" lon="-118.393867">
  <ele>-11.35</ele>
  <time>2026-09-01T01:13:27Z</time>
  <course>0.0</course>
  <speed>0.0</speed>
  <fix>3d</fix>
</trkpt>
<trkpt lat="33.8103132" lon="-118.3938671">
  <ele>-11.861</ele>
  <time>2026-09-01T01:13:27Z</time>
  <course>186.37</course>
  <speed>0.022360679774997897</speed>
  <fix>3d</fix>
</trkpt>
<trkpt lat="33.8103132" lon="-118.3938671">
  <ele>-11.903</ele>
  <time>2026-09-01T01:13:27Z</time>
  <course>186.37</course>
  <speed>0.022360679774997897</speed>
  <fix>3d</fix>
</trkpt>
<trkpt lat="33.810313" lon="-118.393867">
  <ele>-11.47</ele>
  <time>2026-09-01T01:13:27Z</time>
  <course>0.0</course>
  <speed>0.0</speed>
  <fix>3d</fix>
</trkpt>
<trkpt lat="33.8103132" lon="-118.3938671">
  <ele>-11.926</ele>
  <time>2026-09-01T01:13:27Z</time>
  <course>186.37</course>
  <speed>0.022360679774997897</speed>
  <fix>3d</fix>
</trkpt>
<trkpt lat="33.8103132" lon="-118.3938671">
  <ele>-11.964</ele>
  <time>2026-09-01T01:13:27Z</time>
  <course>186.38</course>
  <speed>0.022360679774997897</speed>
  <fix>3d</fix>
</trkpt>
<trkpt lat="33.810313" lon="-118.393867">
  <ele>-11.47</ele>
  <time>2026-09-01T01:13:27Z</time>
  <course>0.0</course>
  <speed>0.0</speed>
  <fix>3d</fix>
</trkpt>
<trkpt lat="33.8103132" lon="-118.3938671">
  <ele>-11.965</ele>
  <time>2026-09-01T01:13:27Z</time>
  <course>186.38</course>
  <speed>0.022360679774997897</speed>
  <fix>3d</fix>
</trkpt>
<trkpt lat="33.8103132" lon="-118.3938671">
  <ele>-12.024</ele>
  <time>2026-09-01T01:13:27Z</time>
  <course>186.38</course>
  <speed>0.022360679774997897</speed>
  <fix>3d</fix>
</trkpt>
<trkpt lat="33.810313" lon="-118.393867">
  <ele>-11.6</ele>
  <time>2026-09-01T01:13:27Z</time>
  <course>0.0</course>
  <speed>0.0</speed>
  <fix>3d</fix>
</trkpt>
<trkpt lat="33.8103132" lon="-118.3938671">
  <ele>-12.026</ele>
  <time>2026-09-01T01:13:27Z</time>
  <course>186.38</course>
  <speed>0.022360679774997897</speed>
  <fix>3d</fix>
</trkpt>
<trkpt lat="33.8103132" lon="-118.3938671">
  <ele>-12.085</ele>
  <time>2026-09-01T01:13:27Z</time>
  <course>186.38</course>
  <speed>0.022360679774997897</speed>
  <fix>3d</fix>
</trkpt>
<trkpt lat="33.810313" lon="-118.393867">
  <ele>-11.6</ele>
  <time>2026-09-01T01:13:27Z</time>
  <course>0.0</course>
  <speed>0.0</speed>
  <fix>3d</fix>
</trkpt>
<trkpt lat="33.8103132" lon="-118.3938671">
  <ele>-12.102</ele>
  <time>2026-09-01T01:13:27Z</time>
  <course>186.38</course>
  <speed>0.022360679774997897</speed>
  <fix>3d</fix>
</trkpt>
<trkpt lat="33.8103132" lon="-118.3938671">
  <ele>-12.146</ele>
  <time>2026-09-01T01:13:27Z</time>
  <course>186.39</course>
  <speed>0.022360679774997897</speed>
  <fix>3d</fix>
</trkpt>
<trkpt lat="33.810313" lon="-118.393867">
  <ele>-11.71</ele>
  <time>2026-09-01T01:13:27Z</time>
  <course>0.0</course>
  <speed>0.0</speed>
  <fix>3d</fix>
</trkpt>
<trkpt lat="33.8103132" lon="-118.3938671">
  <ele>-12.164</ele>
  <time>2026-09-01T01:13:27Z</time>
  <course>186.39</course>
  <speed>0.022360679774997897</speed>
  <fix>3d</fix>
</trkpt>
<trkpt lat="33.8103132" lon="-118.3938671">
  <ele>-12.207</ele>
  <time>2026-09-01T01:13:27Z</time>
  <course>186.39</course>
  <speed>0.022360679774997897</speed>
  <fix>3d</fix>
</trkpt>
<trkpt lat="33.810313" lon="-118.393867">
  <ele>-11.71</ele>
  <time>2026-09-01T01:13:27Z</time>
  <course>0.0</course>
  <speed>0.0</speed>
  <fix>3d</fix>
</trkpt>
<trkpt lat="33.8103132" lon="-118.3938671">
  <ele>-12.215</ele>
  <time>2026-09-01T01:13:27Z</time>
  <course>186.39</course>
  <speed>0.022360679774997897</speed>
  <fix>3d</fix>
</trkpt>
<trkpt lat="33.8103132" lon="-118.3938671">
  <ele>-12.268</ele>
  <time>2026-09-01T01:13:27Z</time>
  <course>186.39</course>
  <speed>0.022360679774997897</speed>
  <fix>3d</fix>
</trkpt>
<trkpt lat="33.810313" lon="-118.393867">
  <ele>-11.84</ele>
  <time>2026-09-01T01:13:27Z</time>
  <course>0.0</course>
  <speed>0.0</speed>
  <fix>3d</fix>
</trkpt>
<trkpt lat="33.8103132" lon="-118.3938671">
  <ele>-12.289</ele>
  <time>2026-09-01T01:13:27Z</time>
  <course>186.39</course>
  <speed>0.022360679774997897</speed>
  <fix>3d</fix>
</trkpt>
<trkpt lat="33.8103132" lon="-118.3938671">
  <ele>-12.329</ele>
  <time>2026-09-01T01:13:27Z</time>
  <course>186.39</course>
  <speed>0.022360679774997897</speed>
  <fix>3d</fix>
</trkpt>
<trkpt lat="33.810313" lon="-118.393867">
  <ele>-11.84</ele>
  <time>2026-09-01T01:13:27Z</time>
  <course>0.0</course>
  <speed>0.0</speed>
  <fix>3d</fix>
</trkpt>
<trkpt lat="33.8103132" lon="-118.3938671">
  <ele>-12.348</ele>
  <time>2026-09-01T01:13:27Z</time>
  <course>186.4</course>
  <speed>0.022360679774997897</speed>
  <fix>3d</fix>
</trkpt>
<trkpt lat="33.8103132" lon="-118.3938671">
  <ele>-12.39</ele>
  <time>2026-09-01T01:13:27Z</time>
  <course>186.4</course>
  <speed>0.022360679774997897</speed>
  <fix>3d</fix>
</trkpt>
<trkpt lat="33.810313" lon="-118.393867">
  <ele>-11.96</ele>
  <time>2026-09-01T01:13:27Z</time>
  <course>0.0</course>
  <speed>0.0</speed>
  <fix>3d</fix>
</trkpt>
<trkpt lat="33.8103132" lon="-118.3938671">
  <ele>-12.409</ele>
  <time>2026-09-01T01:13:27Z</time>
  <course>186.4</course>
  <speed>0.022360679774997897</speed>
  <fix>3d</fix>
</trkpt>
<trkpt lat="33.8103132" lon="-118.3938671">
  <ele>-12.45</ele>
  <time>2026-09-01T01:13:27Z</time>
  <course>186.4</course>
  <speed>0.022360679774997897</speed>
  <fix>3d</fix>
</trkpt>
<trkpt lat="33.810313" lon="-118.393867">
  <ele>-11.96</ele>
  <time>2026-09-01T01:13:27Z</time>
  <course>0.0</course>
  <speed>0.0</speed>
  <fix>3d</fix>
</trkpt>
<trkpt lat="33.8103132" lon="-118.3938671">
  <ele>-12.468</ele>
  <time>2026-09-01T01:13:27Z</time>
  <course>186.4</course>
  <speed>0.022360679774997897</speed>
  <fix>3d</fix>
</trkpt>
<trkpt lat="33.8103132" lon="-118.3938671">
  <ele>-12.51</ele>
  <time>2026-09-01T01:13:27Z</time>
  <course>186.4</course>
  <speed>0.022360679774997897</speed>
  <fix>3d</fix>
</trkpt>
<trkpt lat="33.810313" lon="-118.393867">
  <ele>-12.08</ele>
  <time>2026-09-01T01:13:27Z</time>
  <course>0.0</course>
  <speed>0.0</speed>
  <fix>3d</fix>
</trkpt>
<trkpt lat="33.8103132" lon="-118.3938671">
  <ele>-12.53</ele>
  <time>2026-09-01T01:13:27Z</time>
  <course>186.4</course>
  <speed>0.022360679774997897</speed>
  <fix>3d</fix>
</trkpt>
<trkpt lat="33.8103132" lon="-118.3938671">
  <ele>-12.571</ele>
  <time>2026-09-01T01:13:27Z</time>
  <course>186.41</course>
  <speed>0.022360679774997897</speed>
  <fix>3d</fix>
</trkpt>
<trkpt lat="33.810313" lon="-118.393867">
  <ele>-12.08</ele>
  <time>2026-09-01T01:13:27Z</time>
  <course>0.0</course>
  <speed>0.0</speed>
  <fix>3d</fix>
</trkpt>
<trkpt lat="33.8103132" lon="-118.3938671">
  <ele>-12.59</ele>
  <time>2026-09-01T01:13:27Z</time>
  <course>186.41</course>
  <speed>0.022360679774997897</speed>
  <fix>3d</fix>
</trkpt>
<trkpt lat="33.8103132" lon="-118.3938671">
  <ele>-12.632</ele>
  <time>2026-09-01T01:13:27Z</time>
  <course>186.41</course>
  <speed>0.022360679774997897</speed>
  <fix>3d</fix>
</trkpt>
<trkpt lat="33.810313" lon="-118.393867">
  <ele>-12.2</ele>
  <time>2026-09-01T01:13:27Z</time>
  <course>0.0</course>
  <speed>0.0</speed>
  <fix>3d</fix>
</trkpt>
<trkpt lat="33.8103132" lon="-118.3938671">
  <ele>-12.655</ele>
  <time>2026-09-01T01:13:27Z</time>
  <course>186.41</course>
  <speed>0.022360679774997897</speed>
  <fix>3d</fix>
</trkpt>
<trkpt lat="33.8103132" lon="-118.3938671">
  <ele>-12.694</ele>
  <time>2026-09-01T01:13:27Z</time>
  <course>186.41</course>
  <speed>0.022360679774997897</speed>
  <fix>3d</fix>
</trkpt>
<trkpt lat="33.810313" lon="-118.393867">
  <ele>-12.2</ele>
  <time>2026-09-01T01:13:27Z</time>
  <course>0.0</course>
  <speed>0.0</speed>
  <fix>3d</fix>
</trkpt>
<trkpt lat="33.8103132" lon="-118.3938671">
  <ele>-12.696</ele>
  <time>2026-09-01T01:13:27Z</time>
  <course>186.41</course>
  <speed>0.022360679774997897</speed>
  <fix>3d</fix>
</trkpt>
<trkpt lat="33.8103132" lon="-118.3938671">
  <ele>-12.756</ele>
  <time>2026-09-01T01:13:27Z</time>
  <course>186.41</course>
  <speed>0.022360679774997897</speed>
  <fix>3d</fix>
</trkpt>
<trkpt lat="33.810313" lon="-118.393867">
  <ele>-12.32</ele>
  <time>2026-09-01T01:13:27Z</time>
  <course>0.0</course>
  <speed>0.0</speed>
  <fix>3d</fix>
</trkpt>
<trkpt lat="33.8103132" lon="-118.3938671">
  <ele>-12.775</ele>
  <time>2026-09-01T01:13:27Z</time>
  <course>186.41</course>
  <speed>0.022360679774997897</speed>
  <fix>3d</fix>
</trkpt>
<trkpt lat="33.8103132" lon="-118.3938671">
  <ele>-12.819</ele>
  <time>2026-09-01T01:13:27Z</time>
  <course>186.41</course>
  <speed>0.022360679774997897</speed>
  <fix>3d</fix>
</trkpt>
<trkpt lat="33.810313" lon="-118.393867">
  <ele>-12.32</ele>
  <time>2026-09-01T01:13:27Z</time>
  <course>0.0</course>
  <speed>0.0</speed>
  <fix>3d</fix>
</trkpt>
<trkpt lat="33.8103132" lon="-118.3938671">
  <ele>-12.839</ele>
  <time>2026-09-01T01:13:27Z</time>
  <course>186.42</course>
  <speed>0.022360679774997897</speed>
  <fix>3d</fix>
</trkpt>
<trkpt lat="33.8103132" lon="-118.3938671">
  <ele>-12.882</ele>
  <time>2026-09-01T01:13:27Z</time>
  <course>186.42</course>
  <speed>0.022360679774997897</speed>
  <fix>3d</fix>
</trkpt>
<trkpt lat="33.810313" lon="-118.393867">
  <ele>-12.44</ele>
  <time>2026-09-01T01:13:27Z</time>
  <course>0.0</course>
  <speed>0.0</speed>
  <fix>3d</fix>
</trkpt>
<trkpt lat="33.8103132" lon="-118.3938671">
  <ele>-12.884</ele>
  <time>2026-09-01T01:13:27Z</time>
  <course>186.42</course>
  <speed>0.022360679774997897</speed>
  <fix>3d</fix>
</trkpt>
<trkpt lat="33.8103132" lon="-118.3938671">
  <ele>-12.945</ele>
  <time>2026-09-01T01:13:27Z</time>
  <course>186.42</course>
  <speed>0.022360679774997897</speed>
  <fix>3d</fix>
</trkpt>
<trkpt lat="33.810313" lon="-118.393867">
  <ele>-12.44</ele>
  <time>2026-09-01T01:13:27Z</time>
  <course>0.0</course>
  <speed>0.0</speed>
  <fix>3d</fix>
</trkpt>
<trkpt lat="33.8103132" lon="-118.3938671">
  <ele>-12.946</ele>
  <time>2026-09-01T01:13:27Z</time>
  <course>186.42</course>
  <speed>0.022360679774997897</speed>
  <fix>3d</fix>
</trkpt>
<trkpt lat="33.8103132" lon="-118.3938671">
  <ele>-13.007</ele>
  <time>2026-09-01T01:13:27Z</time>
  <course>186.42</course>
  <speed>0.022360679774997897</speed>
  <fix>3d</fix>
</trkpt>
<trkpt lat="33.810313" lon="-118.393867">
  <ele>-12.55</ele>
  <time>2026-09-01T01:13:27Z</time>
  <course>0.0</course>
  <speed>0.0</speed>
  <fix>3d</fix>
</trkpt>
<trkpt lat="33.8103132" lon="-118.3938671">
  <ele>-13.008</ele>
  <time>2026-09-01T01:13:27Z</time>
  <course>186.42</course>
  <speed>0.022360679774997897</speed>
  <fix>3d</fix>
</trkpt>
<trkpt lat="33.8103132" lon="-118.3938671">
  <ele>-13.069</ele>
  <time>2026-09-01T01:13:27Z</time>
  <course>186.42</course>
  <speed>0.022360679774997897</speed>
  <fix>3d</fix>
</trkpt>
<trkpt lat="33.810313" lon="-118.393867">
  <ele>-12.55</ele>
  <time>2026-09-01T01:13:27Z</time>
  <course>0.0</course>
  <speed>0.0</speed>
  <fix>3d</fix>
</trkpt>
<trkpt lat="33.8103132" lon="-118.3938671">
  <ele>-13.088</ele>
  <time>2026-09-01T01:13:27Z</time>
  <course>186.42</course>
  <speed>0.022360679774997897</speed>
  <fix>3d</fix>
</trkpt>
<trkpt lat="33.8103132" lon="-118.3938671">
  <ele>-13.132</ele>
  <time>2026-09-01T01:13:27Z</time>
  <course>186.42</course>
  <speed>0.022360679774997897</speed>
  <fix>3d</fix>
</trkpt>
<trkpt lat="33.810313" lon="-118.393867">
  <ele>-12.68</ele>
  <time>2026-09-01T01:13:27Z</time>
  <course>0.0</course>
  <speed>0.0</speed>
  <fix>3d</fix>
</trkpt>
<trkpt lat="33.8103132" lon="-118.3938671">
  <ele>-13.153</ele>
  <time>2026-09-01T01:13:27Z</time>
  <course>186.43</course>
  <speed>0.022360679774997897</speed>
  <fix>3d</fix>
</trkpt>
<trkpt lat="33.8103132" lon="-118.3938671">
  <ele>-13.193</ele>
  <time>2026-09-01T01:13:27Z</time>
  <course>186.43</course>
  <speed>0.022360679774997897</speed>
  <fix>3d</fix>
</trkpt>
<trkpt lat="33.810313" lon="-118.393867">
  <ele>-12.68</ele>
  <time>2026-09-01T01:13:27Z</time>
  <course>0.0</course>
  <speed>0.0</speed>
  <fix>3d</fix>
</trkpt>
<trkpt lat="33.8103132" lon="-118.3938671">
  <ele>-13.212</ele>
  <time>2026-09-01T01:13:27Z</time>
  <course>186.43</course>
  <speed>0.022360679774997897</speed>
  <fix>3d</fix>
</trkpt>
<trkpt lat="33.8103132" lon="-118.3938671">
  <ele>-13.255</ele>
  <time>2026-09-01T01:13:27Z</time>
  <course>186.43</course>
  <speed>0.022360679774997897</speed>
  <fix>3d</fix>
</trkpt>
<trkpt lat="33.810313" lon="-118.393867">
  <ele>-12.79</ele>
  <time>2026-09-01T01:13:27Z</time>
  <course>0.0</course>
  <speed>0.0</speed>
  <fix>3d</fix>
</trkpt>
<trkpt lat="33.8103132" lon="-118.3938671">
  <ele>-13.278</ele>
  <time>2026-09-01T01:13:27Z</time>
  <course>186.43</course>
  <speed>0.022360679774997897</speed>
  <fix>3d</fix>
</trkpt>
<trkpt lat="33.8103132" lon="-118.3938671">
  <ele>-13.315</ele>
  <time>2026-09-01T01:13:27Z</time>
  <course>186.43</course>
  <speed>0.022360679774997897</speed>
  <fix>3d</fix>
</trkpt>
<trkpt lat="33.810313" lon="-118.393867">
  <ele>-12.79</ele>
  <time>2026-09-01T01:13:27Z</time>
  <course>0.0</course>
  <speed>0.0</speed>
  <fix>3d</fix>
</trkpt>
<trkpt lat="33.8103132" lon="-118.3938671">
  <ele>-13.317</ele>
  <time>2026-09-01T01:13:27Z</time>
  <course>186.43</course>
  <speed>0.022360679774997897</speed>
  <fix>3d</fix>
</trkpt>
<trkpt lat="33.8103132" lon="-118.3938671">
  <ele>-13.376</ele>
  <time>2026-09-01T01:13:27Z</time>
  <course>186.43</course>
  <speed>0.022360679774997897</speed>
  <fix>3d</fix>
</trkpt>
<trkpt lat="33.810313" lon="-118.393867">
  <ele>-12.92</ele>
  <time>2026-09-01T01:13:27Z</time>
  <course>0.0</course>
  <speed>0.0</speed>
  <fix>3d</fix>
</trkpt>
<trkpt lat="33.8103132" lon="-118.3938671">
  <ele>-13.394</ele>
  <time>2026-09-01T01:13:27Z</time>
  <course>186.43</course>
  <speed>0.022360679774997897</speed>
  <fix>3d</fix>
</trkpt>
<trkpt lat="33.8103132" lon="-118.3938671">
  <ele>-13.437</ele>
  <time>2026-09-01T01:13:27Z</time>
  <course>186.43</course>
  <speed>0.022360679774997897</speed>
  <fix>3d</fix>
</trkpt>
<trkpt lat="33.810313" lon="-118.393867">
  <ele>-12.92</ele>
  <time>2026-09-01T01:13:27Z</time>
  <course>0.0</course>
  <speed>0.0</speed>
  <fix>3d</fix>
</trkpt>
<trkpt lat="33.8103132" lon="-118.3938671">
  <ele>-13.461</ele>
  <time>2026-09-01T01:13:27Z</time>
  <course>186.43</course>
  <speed>0.022360679774997897</speed>
  <fix>3d</fix>
</trkpt>
<trkpt lat="33.8103132" lon="-118.3938671">
  <ele>-13.498</ele>
  <time>2026-09-01T01:13:27Z</time>
  <course>186.43</course>
  <speed>0.022360679774997897</speed>
  <fix>3d</fix>
</trkpt>
<trkpt lat="33.810313" lon="-118.393867">
  <ele>-13.04</ele>
  <time>2026-09-01T01:13:27Z</time>
  <course>0.0</course>
  <speed>0.0</speed>
  <fix>3d</fix>
</trkpt>
<trkpt lat="33.8103132" lon="-118.3938671">
  <ele>-13.516</ele>
  <time>2026-09-01T01:13:27Z</time>
  <course>186.44</course>
  <speed>0.022360679774997897</speed>
  <fix>3d</fix>
</trkpt>
<trkpt lat="33.8103132" lon="-118.3938671">
  <ele>-13.558</ele>
  <time>2026-09-01T01:13:27Z</time>
  <course>186.44</course>
  <speed>0.022360679774997897</speed>
  <fix>3d</fix>
</trkpt>
<trkpt lat="33.810313" lon="-118.393867">
  <ele>-13.04</ele>
  <time>2026-09-01T01:13:27Z</time>
  <course>0.0</course>
  <speed>0.0</speed>
  <fix>3d</fix>
</trkpt>
<trkpt lat="33.8103132" lon="-118.3938671">
  <ele>-13.56</ele>
  <time>2026-09-01T01:13:27Z</time>
  <course>186.44</course>
  <speed>0.022360679774997897</speed>
  <fix>3d</fix>
</trkpt>
<trkpt lat="33.8103132" lon="-118.3938671">
  <ele>-13.619</ele>
  <time>2026-09-01T01:13:27Z</time>
  <course>186.44</course>
  <speed>0.022360679774997897</speed>
  <fix>3d</fix>
</trkpt>
<trkpt lat="33.810313" lon="-118.393867">
  <ele>-13.16</ele>
  <time>2026-09-01T01:13:27Z</time>
  <course>0.0</course>
  <speed>0.0</speed>
  <fix>3d</fix>
</trkpt>
<trkpt lat="33.8103132" lon="-118.3938671">
  <ele>-13.62</ele>
  <time>2026-09-01T01:13:27Z</time>
  <course>186.44</course>
  <speed>0.022360679774997897</speed>
  <fix>3d</fix>
</trkpt>
<trkpt lat="33.8103132" lon="-118.3938671">
  <ele>-13.679</ele>
  <time>2026-09-01T01:13:27Z</time>
  <course>186.44</course>
  <speed>0.022360679774997897</speed>
  <fix>3d</fix>
</trkpt>
<trkpt lat="33.810313" lon="-118.393867">
  <ele>-13.16</ele>
  <time>2026-09-01T01:13:27Z</time>
  <course>0.0</course>
  <speed>0.0</speed>
  <fix>3d</fix>
</trkpt>
<trkpt lat="33.8103132" lon="-118.3938671">
  <ele>-13.698</ele>
  <time>2026-09-01T01:13:27Z</time>
  <course>186.44</course>
  <speed>0.022360679774997897</speed>
  <fix>3d</fix>
</trkpt>
<trkpt lat="33.8103132" lon="-118.3938671">
  <ele>-13.739</ele>
  <time>2026-09-01T01:13:27Z</time>
  <course>186.44</course>
  <speed>0.022360679774997897</speed>
  <fix>3d</fix>
</trkpt>
<trkpt lat="33.810313" lon="-118.393867">
  <ele>-13.28</ele>
  <time>2026-09-01T01:13:27Z</time>
  <course>0.0</course>
  <speed>0.0</speed>
  <fix>3d</fix>
</trkpt>
<trkpt lat="33.8103132" lon="-118.3938671">
  <ele>-13.764</ele>
  <time>2026-09-01T01:13:27Z</time>
  <course>186.44</course>
  <speed>0.022360679774997897</speed>
  <fix>3d</fix>
</trkpt>
<trkpt lat="33.8103132" lon="-118.3938671">
  <ele>-13.8</ele>
  <time>2026-09-01T01:13:27Z</time>
  <course>186.44</course>
  <speed>0.022360679774997897</speed>
  <fix>3d</fix>
</trkpt>
<trkpt lat="33.810313" lon="-118.393867">
  <ele>-13.28</ele>
  <time>2026-09-01T01:13:27Z</time>
  <course>0.0</course>
  <speed>0.0</speed>
  <fix>3d</fix>
</trkpt>
<trkpt lat="33.8103132" lon="-118.3938671">
  <ele>-13.82</ele>
  <time>2026-09-01T01:13:27Z</time>
  <course>186.44</course>
  <speed>0.022360679774997897</speed>
  <fix>3d</fix>
</trkpt>
<trkpt lat="33.8103132" lon="-118.3938671">
  <ele>-13.861</ele>
  <time>2026-09-01T01:13:27Z</time>
  <course>186.44</course>
  <speed>0.022360679774997897</speed>
  <fix>3d</fix>
</trkpt>
<trkpt lat="33.810313" lon="-118.393867">
  <ele>-13.41</ele>
  <time>2026-09-01T01:13:27Z</time>
  <course>0.0</course>
  <speed>0.0</speed>
  <fix>3d</fix>
</trkpt>
<trkpt lat="33.8103132" lon="-118.3938671">
  <ele>-13.862</ele>
  <time>2026-09-01T01:13:27Z</time>
  <course>186.44</course>
  <speed>0.022360679774997897</speed>
  <fix>3d</fix>
</trkpt>
<trkpt lat="33.8103132" lon="-118.3938671">
  <ele>-13.922</ele>
  <time>2026-09-01T01:13:27Z</time>
  <course>186.44</course>
  <speed>0.022360679774997897</speed>
  <fix>3d</fix>
</trkpt>
<trkpt lat="33.810313" lon="-118.393867">
  <ele>-13.41</ele>
  <time>2026-09-01T01:13:27Z</time>
  <course>0.0</course>
  <speed>0.0</speed>
  <fix>3d</fix>
</trkpt>
<trkpt lat="33.8103132" lon="-118.3938671">
  <ele>-13.943</ele>
  <time>2026-09-01T01:13:27Z</time>
  <course>186.44</course>
  <speed>0.022360679774997897</speed>
  <fix>3d</fix>
</trkpt>
<trkpt lat="33.8103132" lon="-118.3938671">
  <ele>-13.983</ele>
  <time>2026-09-01T01:13:27Z</time>
  <course>186.44</course>
  <speed>0.022360679774997897</speed>
  <fix>3d</fix>
</trkpt>
<trkpt lat="33.810313" lon="-118.393867">
  <ele>-13.53</ele>
  <time>2026-09-01T01:13:27Z</time>
  <course>0.0</course>
  <speed>0.0</speed>
  <fix>3d</fix>
</trkpt>
<trkpt lat="33.8103132" lon="-118.3938671">
  <ele>-13.984</ele>
  <time>2026-09-01T01:13:27Z</time>
  <course>186.44</course>
  <speed>0.022360679774997897</speed>
  <fix>3d</fix>
</trkpt>
<trkpt lat="33.8103132" lon="-118.3938671">
  <ele>-14.044</ele>
  <time>2026-09-01T01:13:27Z</time>
  <course>186.44</course>
  <speed>0.022360679774997897</speed>
  <fix>3d</fix>
</trkpt>
<trkpt lat="33.810313" lon="-118.393867">
  <ele>-13.53</ele>
  <time>2026-09-01T01:13:27Z</time>
  <course>0.0</course>
  <speed>0.0</speed>
  <fix>3d</fix>
</trkpt>
<trkpt lat="33.8103132" lon="-118.3938671">
  <ele>-14.062</ele>
  <time>2026-09-01T01:13:27Z</time>
  <course>186.44</course>
  <speed>0.022360679774997897</speed>
  <fix>3d</fix>
</trkpt>
<trkpt lat="33.8103132" lon="-118.3938671">
  <ele>-14.104</ele>
  <time>2026-09-01T01:13:27Z</time>
  <course>186.44</course>
  <speed>0.022360679774997897</speed>
  <fix>3d</fix>
</trkpt>
<trkpt lat="33.810313" lon="-118.393867">
  <ele>-13.65</ele>
  <time>2026-09-01T01:13:27Z</time>
  <course>0.0</course>
  <speed>0.0</speed>
  <fix>3d</fix>
</trkpt>
<trkpt lat="33.8103132" lon="-118.3938671">
  <ele>-14.126</ele>
  <time>2026-09-01T01:13:27Z</time>
  <course>186.45</course>
  <speed>0.022360679774997897</speed>
  <fix>3d</fix>
</trkpt>
<trkpt lat="33.8103132" lon="-118.3938671">
  <ele>-14.164</ele>
  <time>2026-09-01T01:13:27Z</time>
  <course>186.45</course>
  <speed>0.022360679774997897</speed>
  <fix>3d</fix>
</trkpt>
<trkpt lat="33.810313" lon="-118.393867">
  <ele>-13.65</ele>
  <time>2026-09-01T01:13:27Z</time>
  <course>0.0</course>
  <speed>0.0</speed>
  <fix>3d</fix>
</trkpt>
<trkpt lat="33.8103132" lon="-118.3938671">
  <ele>-14.165</ele>
  <time>2026-09-01T01:13:27Z</time>
  <course>186.45</course>
  <speed>0.022360679774997897</speed>
  <fix>3d</fix>
</trkpt>
<trkpt lat="33.8103132" lon="-118.3938671">
  <ele>-14.223</ele>
  <time>2026-09-01T01:13:27Z</time>
  <course>186.45</course>
  <speed>0.022360679774997897</speed>
  <fix>3d</fix>
</trkpt>
<trkpt lat="33.810313" lon="-118.393867">
  <ele>-13.77</ele>
  <time>2026-09-01T01:13:27Z</time>
  <course>0.0</course>
  <speed>0.0</speed>
  <fix>3d</fix>
</trkpt>
<trkpt lat="33.8103132" lon="-118.3938671">
  <ele>-14.225</ele>
  <time>2026-09-01T01:13:27Z</time>
  <course>186.45</course>
  <speed>0.022360679774997897</speed>
  <fix>3d</fix>
</trkpt>
<trkpt lat="33.8103132" lon="-118.3938671">
  <ele>-14.284</ele>
  <time>2026-09-01T01:13:27Z</time>
  <course>186.45</course>
  <speed>0.022360679774997897</speed>
  <fix>3d</fix>
</trkpt>
<trkpt lat="33.810313" lon="-118.393867">
  <ele>-13.77</ele>
  <time>2026-09-01T01:13:27Z</time>
  <course>0.0</course>
  <speed>0.0</speed>
  <fix>3d</fix>
</trkpt>
<trkpt lat="33.8103132" lon="-118.3938671">
  <ele>-14.303</ele>
  <time>2026-09-01T01:13:27Z</time>
  <course>186.45</course>
  <speed>0.022360679774997897</speed>
  <fix>3d</fix>
</trkpt>
<trkpt lat="33.8103132" lon="-118.3938671">
  <ele>-14.345</ele>
  <time>2026-09-01T01:13:27Z</time>
  <course>186.45</course>
  <speed>0.022360679774997897</speed>
  <fix>3d</fix>
</trkpt>
<trkpt lat="33.810313" lon="-118.393867">
  <ele>-13.88</ele>
  <time>2026-09-01T01:13:27Z</time>
  <course>0.0</course>
  <speed>0.0</speed>
  <fix>3d</fix>
</trkpt>
<trkpt lat="33.8103132" lon="-118.3938671">
  <ele>-14.365</ele>
  <time>2026-09-01T01:13:27Z</time>
  <course>186.45</course>
  <speed>0.022360679774997897</speed>
  <fix>3d</fix>
</trkpt>
<trkpt lat="33.8103132" lon="-118.3938671">
  <ele>-14.408</ele>
  <time>2026-09-01T01:13:27Z</time>
  <course>186.45</course>
  <speed>0.022360679774997897</speed>
  <fix>3d</fix>
</trkpt>
<trkpt lat="33.810313" lon="-118.393867">
  <ele>-13.88</ele>
  <time>2026-09-01T01:13:27Z</time>
  <course>0.0</course>
  <speed>0.0</speed>
  <fix>3d</fix>
</trkpt>
<trkpt lat="33.8103132" lon="-118.3938671">
  <ele>-14.428</ele>
  <time>2026-09-01T01:13:27Z</time>
  <course>186.45</course>
  <speed>0.022360679774997897</speed>
  <fix>3d</fix>
</trkpt>
<trkpt lat="33.8103132" lon="-118.3938671">
  <ele>-14.469</ele>
  <time>2026-09-01T01:13:27Z</time>
  <course>186.45</course>
  <speed>0.022360679774997897</speed>
  <fix>3d</fix>
</trkpt>
<trkpt lat="33.810313" lon="-118.393867">
  <ele>-14.01</ele>
  <time>2026-09-01T01:13:27Z</time>
  <course>0.0</course>
  <speed>0.0</speed>
  <fix>3d</fix>
</trkpt>
<trkpt lat="33.8103132" lon="-118.3938671">
  <ele>-14.471</ele>
  <time>2026-09-01T01:13:27Z</time>
  <course>186.45</course>
  <speed>0.022360679774997897</speed>
  <fix>3d</fix>
</trkpt>
<trkpt lat="33.8103132" lon="-118.3938671">
  <ele>-14.531</ele>
  <time>2026-09-01T01:13:27Z</time>
  <course>186.45</course>
  <speed>0.022360679774997897</speed>
  <fix>3d</fix>
</trkpt>
<trkpt lat="33.810313" lon="-118.393867">
  <ele>-14.01</ele>
  <time>2026-09-01T01:13:27Z</time>
  <course>0.0</course>
  <speed>0.0</speed>
  <fix>3d</fix>
</trkpt>
<trkpt lat="33.8103132" lon="-118.3938671">
  <ele>-14.551</ele>
  <time>2026-09-01T01:13:27Z</time>
  <course>186.45</course>
  <speed>0.022360679774997897</speed>
  <fix>3d</fix>
</trkpt>
<trkpt lat="33.8103132" lon="-118.3938671">
  <ele>-14.593</ele>
  <time>2026-09-01T01:13:27Z</time>
  <course>186.45</course>
  <speed>0.022360679774997897</speed>
  <fix>3d</fix>
</trkpt>
<trkpt lat="33.810313" lon="-118.393867">
  <ele>-14.12</ele>
  <time>2026-09-01T01:13:27Z</time>
  <course>0.0</course>
  <speed>0.0</speed>
  <fix>3d</fix>
</trkpt>
<trkpt lat="33.8103132" lon="-118.3938671">
  <ele>-14.595</ele>
  <time>2026-09-01T01:13:27Z</time>
  <course>186.45</course>
  <speed>0.022360679774997897</speed>
  <fix>3d</fix>
</trkpt>
<trkpt lat="33.8103132" lon="-118.3938671">
  <ele>-14.656</ele>
  <time>2026-09-01T01:13:27Z</time>
  <course>186.45</course>
  <speed>0.022360679774997897</speed>
  <fix>3d</fix>
</trkpt>
<trkpt lat="33.810313" lon="-118.393867">
  <ele>-14.12</ele>
  <time>2026-09-01T01:13:27Z</time>
  <course>0.0</course>
  <speed>0.0</speed>
  <fix>3d</fix>
</trkpt>
<trkpt lat="33.8103132" lon="-118.3938671">
  <ele>-14.68</ele>
  <time>2026-09-01T01:13:27Z</time>
  <course>186.45</course>
  <speed>0.022360679774997897</speed>
  <fix>3d</fix>
</trkpt>
<trkpt lat="33.8103132" lon="-118.3938671">
  <ele>-14.72</ele>
  <time>2026-09-01T01:13:27Z</time>
  <course>186.45</course>
  <speed>0.022360679774997897</speed>
  <fix>3d</fix>
</trkpt>
<trkpt lat="33.810313" lon="-118.393867">
  <ele>-14.25</ele>
  <time>2026-09-01T01:13:27Z</time>
  <course>0.0</course>
  <speed>0.0</speed>
  <fix>3d</fix>
</trkpt>
<trkpt lat="33.8103132" lon="-118.3938671">
  <ele>-14.741</ele>
  <time>2026-09-01T01:13:27Z</time>
  <course>186.45</course>
  <speed>0.022360679774997897</speed>
  <fix>3d</fix>
</trkpt>
<trkpt lat="33.8103132" lon="-118.3938671">
  <ele>-14.784</ele>
  <time>2026-09-01T01:13:27Z</time>
  <course>186.45</course>
  <speed>0.022360679774997897</speed>
  <fix>3d</fix>
</trkpt>
<trkpt lat="33.810313" lon="-118.393867">
  <ele>-14.25</ele>
  <time>2026-09-01T01:13:27Z</time>
  <course>0.0</course>
  <speed>0.0</speed>
  <fix>3d</fix>
</trkpt>
<trkpt lat="33.8103132" lon="-118.3938671">
  <ele>-14.786</ele>
  <time>2026-09-01T01:13:27Z</time>
  <course>186.45</course>
  <speed>0.022360679774997897</speed>
  <fix>3d</fix>
</trkpt>
<trkpt lat="33.8103132" lon="-118.3938671">
  <ele>-14.849</ele>
  <time>2026-09-01T01:13:27Z</time>
  <course>186.45</course>
  <speed>0.022360679774997897</speed>
  <fix>3d</fix>
</trkpt>
<trkpt lat="33.810313" lon="-118.393867">
  <ele>-14.37</ele>
  <time>2026-09-01T01:13:27Z</time>
  <course>0.0</course>
  <speed>0.0</speed>
  <fix>3d</fix>
</trkpt>
<trkpt lat="33.8103132" lon="-118.3938671">
  <ele>-14.851</ele>
  <time>2026-09-01T01:13:27Z</time>
  <course>186.45</course>
  <speed>0.022360679774997897</speed>
  <fix>3d</fix>
</trkpt>
<trkpt lat="33.8103132" lon="-118.3938671">
  <ele>-14.913</ele>
  <time>2026-09-01T01:13:27Z</time>
  <course>186.45</course>
  <speed>0.022360679774997897</speed>
  <fix>3d</fix>
</trkpt>
<trkpt lat="33.810313" lon="-118.393867">
  <ele>-14.37</ele>
  <time>2026-09-01T01:13:27Z</time>
  <course>0.0</course>
  <speed>0.0</speed>
  <fix>3d</fix>
</trkpt>
<trkpt lat="33.8103132" lon="-118.3938671">
  <ele>-14.934</ele>
  <time>2026-09-01T01:13:27Z</time>
  <course>186.45</course>
  <speed>0.022360679774997897</speed>
  <fix>3d</fix>
</trkpt>
<trkpt lat="33.8103132" lon="-118.3938671">
  <ele>-14.977</ele>
  <time>2026-09-01T01:13:27Z</time>
  <course>186.45</course>
  <speed>0.022360679774997897</speed>
  <fix>3d</fix>
</trkpt>
<trkpt lat="33.810313" lon="-118.393867">
  <ele>-14.49</ele>
  <time>2026-09-01T01:13:27Z</time>
  <course>0.0</course>
  <speed>0.0</speed>
  <fix>3d</fix>
</trkpt>
<trkpt lat="33.8103132" lon="-118.3938671">
  <ele>-15.0</ele>
  <time>2026-09-01T01:13:27Z</time>
  <course>186.45</course>
  <speed>0.022360679774997897</speed>
  <fix>3d</fix>
</trkpt>
<trkpt lat="33.8103132" lon="-118.3938671">
  <ele>-15.041</ele>
  <time>2026-09-01T01:13:27Z</time>
  <course>186.45</course>
  <speed>0.022360679774997897</speed>
  <fix>3d</fix>
</trkpt>
<trkpt lat="33.810313" lon="-118.393867">
  <ele>-14.49</ele>
  <time>2026-09-01T01:13:27Z</time>
  <course>0.0</course>
  <speed>0.0</speed>
  <fix>3d</fix>
</trkpt>
<trkpt lat="33.8103132" lon="-118.3938671">
  <ele>-15.06</ele>
  <time>2026-09-01T01:13:27Z</time>
  <course>186.45</course>
  <speed>0.022360679774997897</speed>
  <fix>3d</fix>
</trkpt>
<trkpt lat="33.8103132" lon="-118.3938671">
  <ele>-15.105</ele>
  <time>2026-09-01T01:13:27Z</time>
  <course>186.45</course>
  <speed>0.022360679774997897</speed>
  <fix>3d</fix>
</trkpt>
<trkpt lat="33.810313" lon="-118.393867">
  <ele>-14.61</ele>
  <time>2026-09-01T01:13:27Z</time>
  <course>0.0</course>
  <speed>0.0</speed>
  <fix>3d</fix>
</trkpt>
<trkpt lat="33.8103132" lon="-118.3938671">
  <ele>-15.106</ele>
  <time>2026-09-01T01:13:27Z</time>
  <course>186.45</course>
  <speed>0.022360679774997897</speed>
  <fix>3d</fix>
</trkpt>
<trkpt lat="33.8103132" lon="-118.3938671">
  <ele>-15.167</ele>
  <time>2026-09-01T01:13:27Z</time>
  <course>186.44</course>
  <speed>0.022360679774997897</speed>
  <fix>3d</fix>
</trkpt>
<trkpt lat="33.810313" lon="-118.393867">
  <ele>-14.61</ele>
  <time>2026-09-01T01:13:27Z</time>
  <course>0.0</course>
  <speed>0.0</speed>
  <fix>3d</fix>
</trkpt>
<trkpt lat="33.8103132" lon="-118.3938671">
  <ele>-15.187</ele>
  <time>2026-09-01T01:13:27Z</time>
  <course>186.44</course>
  <speed>0.022360679774997897</speed>
  <fix>3d</fix>
</trkpt>
<trkpt lat="33.8103132" lon="-118.3938671">
  <ele>-15.228</ele>
  <time>2026-09-01T01:13:27Z</time>
  <course>186.44</course>
  <speed>0.022360679774997897</speed>
  <fix>3d</fix>
</trkpt>
<trkpt lat="33.810313" lon="-118.393867">
  <ele>-14.73</ele>
  <time>2026-09-01T01:13:27Z</time>
  <course>0.0</course>
  <speed>0.0</speed>
  <fix>3d</fix>
</trkpt>
<trkpt lat="33.8103132" lon="-118.3938671">
  <ele>-15.248</ele>
  <time>2026-09-01T01:13:27Z</time>
  <course>186.44</course>
  <speed>0.022360679774997897</speed>
  <fix>3d</fix>
</trkpt>
<trkpt lat="33.8103132" lon="-118.3938671">
  <ele>-15.289</ele>
  <time>2026-09-01T01:13:27Z</time>
  <course>186.44</course>
  <speed>0.022360679774997897</speed>
  <fix>3d</fix>
</trkpt>
<trkpt lat="33.810313" lon="-118.393867">
  <ele>-14.73</ele>
  <time>2026-09-01T01:13:27Z</time>
  <course>0.0</course>
  <speed>0.0</speed>
  <fix>3d</fix>
</trkpt>
<trkpt lat="33.8103132" lon="-118.3938671">
  <ele>-15.291</ele>
  <time>2026-09-01T01:13:27Z</time>
  <course>186.44</course>
  <speed>0.022360679774997897</speed>
  <fix>3d</fix>
</trkpt>
<trkpt lat="33.8103132" lon="-118.3938671">
  <ele>-15.349</ele>
  <time>2026-09-01T01:13:27Z</time>
  <course>186.44</course>
  <speed>0.022360679774997897</speed>
  <fix>3d</fix>
</trkpt>
<trkpt lat="33.810313" lon="-118.393867">
  <ele>-14.85</ele>
  <time>2026-09-01T01:13:27Z</time>
  <course>0.0</course>
  <speed>0.0</speed>
  <fix>3d</fix>
</trkpt>
<trkpt lat="33.8103132" lon="-118.3938671">
  <ele>-15.368</ele>
  <time>2026-09-01T01:13:27Z</time>
  <course>186.44</course>
  <speed>0.022360679774997897</speed>
  <fix>3d</fix>
</trkpt>
<trkpt lat="33.8103132" lon="-118.3938671">
  <ele>-15.408</ele>
  <time>2026-09-01T01:13:27Z</time>
  <course>186.44</course>
  <speed>0.022360679774997897</speed>
  <fix>3d</fix>
</trkpt>
<trkpt lat="33.810313" lon="-118.393867">
  <ele>-14.85</ele>
  <time>2026-09-01T01:13:27Z</time>
  <course>0.0</course>
  <speed>0.0</speed>
  <fix>3d</fix>
</trkpt>
<trkpt lat="33.8103132" lon="-118.3938671">
  <ele>-15.41</ele>
  <time>2026-09-01T01:13:27Z</time>
  <course>186.44</course>
  <speed>0.022360679774997897</speed>
  <fix>3d</fix>
</trkpt>
<trkpt lat="33.8103132" lon="-118.3938671">
  <ele>-15.468</ele>
  <time>2026-09-01T01:13:27Z</time>
  <course>186.44</course>
  <speed>0.022360679774997897</speed>
  <fix>3d</fix>
</trkpt>
<trkpt lat="33.810313" lon="-118.393867">
  <ele>-14.97</ele>
  <time>2026-09-01T01:13:27Z</time>
  <course>0.0</course>
  <speed>0.0</speed>
  <fix>3d</fix>
</trkpt>
<trkpt lat="33.8103132" lon="-118.3938671">
  <ele>-15.47</ele>
  <time>2026-09-01T01:13:27Z</time>
  <course>186.44</course>
  <speed>0.022360679774997897</speed>
  <fix>3d</fix>
</trkpt>
<trkpt lat="33.8103132" lon="-118.3938671">
  <ele>-15.529</ele>
  <time>2026-09-01T01:13:27Z</time>
  <course>186.44</course>
  <speed>0.022360679774997897</speed>
  <fix>3d</fix>
</trkpt>
<trkpt lat="33.810313" lon="-118.393867">
  <ele>-14.97</ele>
  <time>2026-09-01T01:13:27Z</time>
  <course>0.0</course>
  <speed>0.0</speed>
  <fix>3d</fix>
</trkpt>
<trkpt lat="33.8103132" lon="-118.3938671">
  <ele>-15.554</ele>
  <time>2026-09-01T01:13:27Z</time>
  <course>186.44</course>
  <speed>0.022360679774997897</speed>
  <fix>3d</fix>
</trkpt>
<trkpt lat="33.8103132" lon="-118.3938671">
  <ele>-15.59</ele>
  <time>2026-09-01T01:13:27Z</time>
  <course>186.44</course>
  <speed>0.022360679774997897</speed>
  <fix>3d</fix>
</trkpt>
<trkpt lat="33.810313" lon="-118.393867">
  <ele>-15.1</ele>
  <time>2026-09-01T01:13:27Z</time>
  <course>0.0</course>
  <speed>0.0</speed>
  <fix>3d</fix>
</trkpt>
<trkpt lat="33.8103132" lon="-118.3938671">
  <ele>-15.609</ele>
  <time>2026-09-01T01:13:27Z</time>
  <course>186.44</course>
  <speed>0.022360679774997897</speed>
  <fix>3d</fix>
</trkpt>
<trkpt lat="33.8103132" lon="-118.3938671">
  <ele>-15.651</ele>
  <time>2026-09-01T01:13:27Z</time>
  <course>186.44</course>
  <speed>0.022360679774997897</speed>
  <fix>3d</fix>
</trkpt>
<trkpt lat="33.810313" lon="-118.393867">
  <ele>-15.1</ele>
  <time>2026-09-01T01:13:27Z</time>
  <course>0.0</course>
  <speed>0.0</speed>
  <fix>3d</fix>
</trkpt>
<trkpt lat="33.8103132" lon="-118.3938671">
  <ele>-15.671</ele>
  <time>2026-09-01T01:13:27Z</time>
  <course>186.44</course>
  <speed>0.022360679774997897</speed>
  <fix>3d</fix>
</trkpt>
<trkpt lat="33.8103132" lon="-118.3938671">
  <ele>-15.712</ele>
  <time>2026-09-01T01:13:27Z</time>
  <course>186.44</course>
  <speed>0.022360679774997897</speed>
  <fix>3d</fix>
</trkpt>
<trkpt lat="33.810313" lon="-118.393867">
  <ele>-15.21</ele>
  <time>2026-09-01T01:13:27Z</time>
  <course>0.0</course>
  <speed>0.0</speed>
  <fix>3d</fix>
</trkpt>
<trkpt lat="33.8103132" lon="-118.3938671">
  <ele>-15.713</ele>
  <time>2026-09-01T01:13:27Z</time>
  <course>186.44</course>
  <speed>0.022360679774997897</speed>
  <fix>3d</fix>
</trkpt>
<trkpt lat="33.8103132" lon="-118.3938671">
  <ele>-15.773</ele>
  <time>2026-09-01T01:13:27Z</time>
  <course>186.44</course>
  <speed>0.022360679774997897</speed>
  <fix>3d</fix>
</trkpt>
<trkpt lat="33.810313" lon="-118.393867">
  <ele>-15.21</ele>
  <time>2026-09-01T01:13:27Z</time>
  <course>0.0</course>
  <speed>0.0</speed>
  <fix>3d</fix>
</trkpt>
<trkpt lat="33.8103132" lon="-118.3938671">
  <ele>-15.775</ele>
  <time>2026-09-01T01:13:27Z</time>
  <course>186.44</course>
  <speed>0.022360679774997897</speed>
  <fix>3d</fix>
</trkpt>
<trkpt lat="33.8103132" lon="-118.3938671">
  <ele>-15.835</ele>
  <time>2026-09-01T01:13:27Z</time>
  <course>186.44</course>
  <speed>0.022360679774997897</speed>
  <fix>3d</fix>
</trkpt>
<trkpt lat="33.810313" lon="-118.393867">
  <ele>-15.34</ele>
  <time>2026-09-01T01:13:27Z</time>
  <course>0.0</course>
  <speed>0.0</speed>
  <fix>3d</fix>
</trkpt>
<trkpt lat="33.8103132" lon="-118.3938671">
  <ele>-15.837</ele>
  <time>2026-09-01T01:13:27Z</time>
  <course>186.44</course>
  <speed>0.022360679774997897</speed>
  <fix>3d</fix>
</trkpt>
<trkpt lat="33.8103132" lon="-118.3938671">
  <ele>-15.897</ele>
  <time>2026-09-01T01:13:27Z</time>
  <course>186.43</course>
  <speed>0.022360679774997897</speed>
  <fix>3d</fix>
</trkpt>
<trkpt lat="33.810313" lon="-118.393867">
  <ele>-15.34</ele>
  <time>2026-09-01T01:13:27Z</time>
  <course>0.0</course>
  <speed>0.0</speed>
  <fix>3d</fix>
</trkpt>
<trkpt lat="33.8103132" lon="-118.3938671">
  <ele>-15.899</ele>
  <time>2026-09-01T01:13:27Z</time>
  <course>186.43</course>
  <speed>0.022360679774997897</speed>
  <fix>3d</fix>
</trkpt>
<trkpt lat="33.8103132" lon="-118.3938671">
  <ele>-15.958</ele>
  <time>2026-09-01T01:13:27Z</time>
  <course>186.43</course>
  <speed>0.022360679774997897</speed>
  <fix>3d</fix>
</trkpt>
<trkpt lat="33.810313" lon="-118.393867">
  <ele>-15.46</ele>
  <time>2026-09-01T01:13:27Z</time>
  <course>0.0</course>
  <speed>0.0</speed>
  <fix>3d</fix>
</trkpt>
<trkpt lat="33.8103132" lon="-118.3938671">
  <ele>-15.978</ele>
  <time>2026-09-01T01:13:27Z</time>
  <course>186.43</course>
  <speed>0.022360679774997897</speed>
  <fix>3d</fix>
</trkpt>
<trkpt lat="33.8103132" lon="-118.3938671">
  <ele>-16.019</ele>
  <time>2026-09-01T01:13:27Z</time>
  <course>186.43</course>
  <speed>0.022360679774997897</speed>
  <fix>3d</fix>
</trkpt>
<trkpt lat="33.810313" lon="-118.393867">
  <ele>-15.46</ele>
  <time>2026-09-01T01:13:27Z</time>
  <course>0.0</course>
  <speed>0.0</speed>
  <fix>3d</fix>
</trkpt>
<trkpt lat="33.8103132" lon="-118.3938671">
  <ele>-16.027</ele>
  <time>2026-09-01T01:13:27Z</time>
  <course>186.43</course>
  <speed>0.022360679774997897</speed>
  <fix>3d</fix>
</trkpt>
<trkpt lat="33.8103132" lon="-118.3938671">
  <ele>-16.082</ele>
  <time>2026-09-01T01:13:27Z</time>
  <course>186.43</course>
  <speed>0.022360679774997897</speed>
  <fix>3d</fix>
</trkpt>
<trkpt lat="33.810313" lon="-118.393867">
  <ele>-15.58</ele>
  <time>2026-09-01T01:13:27Z</time>
  <course>0.0</course>
  <speed>0.0</speed>
  <fix>3d</fix>
</trkpt>
<trkpt lat="33.8103132" lon="-118.3938671">
  <ele>-16.102</ele>
  <time>2026-09-01T01:13:27Z</time>
  <course>186.43</course>
  <speed>0.022360679774997897</speed>
  <fix>3d</fix>
</trkpt>
<trkpt lat="33.8103132" lon="-118.3938671">
  <ele>-16.144</ele>
  <time>2026-09-01T01:13:27Z</time>
  <course>186.43</course>
  <speed>0.022360679774997897</speed>
  <fix>3d</fix>
</trkpt>
<trkpt lat="33.810313" lon="-118.393867">
  <ele>-15.58</ele>
  <time>2026-09-01T01:13:27Z</time>
  <course>0.0</course>
  <speed>0.0</speed>
  <fix>3d</fix>
</trkpt>
<trkpt lat="33.8103132" lon="-118.3938671">
  <ele>-16.166</ele>
  <time>2026-09-01T01:13:27Z</time>
  <course>186.43</course>
  <speed>0.022360679774997897</speed>
  <fix>3d</fix>
</trkpt>
<trkpt lat="33.8103132" lon="-118.3938671">
  <ele>-16.207</ele>
  <time>2026-09-01T01:13:27Z</time>
  <course>186.43</course>
  <speed>0.022360679774997897</speed>
  <fix>3d</fix>
</trkpt>
<trkpt lat="33.810313" lon="-118.393867">
  <ele>-15.7</ele>
  <time>2026-09-01T01:13:27Z</time>
  <course>0.0</course>
  <speed>0.0</speed>
  <fix>3d</fix>
</trkpt>
<trkpt lat="33.8103132" lon="-118.3938671">
  <ele>-16.227</ele>
  <time>2026-09-01T01:13:27Z</time>
  <course>186.43</course>
  <speed>0.022360679774997897</speed>
  <fix>3d</fix>
</trkpt>
<trkpt lat="33.8103132" lon="-118.3938671">
  <ele>-16.271</ele>
  <time>2026-09-01T01:13:27Z</time>
  <course>186.43</course>
  <speed>0.022360679774997897</speed>
  <fix>3d</fix>
</trkpt>
<trkpt lat="33.810313" lon="-118.393867">
  <ele>-15.7</ele>
  <time>2026-09-01T01:13:27Z</time>
  <course>0.0</course>
  <speed>0.0</speed>
  <fix>3d</fix>
</trkpt>
<trkpt lat="33.8103132" lon="-118.3938671">
  <ele>-16.293</ele>
  <time>2026-09-01T01:13:27Z</time>
  <course>186.43</course>
  <speed>0.022360679774997897</speed>
  <fix>3d</fix>
</trkpt>
<trkpt lat="33.8103132" lon="-118.3938671">
  <ele>-16.335</ele>
  <time>2026-09-01T01:13:27Z</time>
  <course>186.42</course>
  <speed>0.022360679774997897</speed>
  <fix>3d</fix>
</trkpt>
<trkpt lat="33.810313" lon="-118.393867">
  <ele>-15.82</ele>
  <time>2026-09-01T01:13:27Z</time>
  <course>0.0</course>
  <speed>0.0</speed>
  <fix>3d</fix>
</trkpt>
<trkpt lat="33.8103132" lon="-118.3938671">
  <ele>-16.355</ele>
  <time>2026-09-01T01:13:27Z</time>
  <course>186.42</course>
  <speed>0.022360679774997897</speed>
  <fix>3d</fix>
</trkpt>
<trkpt lat="33.8103132" lon="-118.3938671">
  <ele>-16.399</ele>
  <time>2026-09-01T01:13:27Z</time>
  <course>186.42</course>
  <speed>0.022360679774997897</speed>
  <fix>3d</fix>
</trkpt>
<trkpt lat="33.810313" lon="-118.393867">
  <ele>-15.82</ele>
  <time>2026-09-01T01:13:27Z</time>
  <course>0.0</course>
  <speed>0.0</speed>
  <fix>3d</fix>
</trkpt>
<trkpt lat="33.8103132" lon="-118.3938671">
  <ele>-16.421</ele>
  <time>2026-09-01T01:13:27Z</time>
  <course>186.42</course>
  <speed>0.022360679774997897</speed>
  <fix>3d</fix>
</trkpt>
<trkpt lat="33.8103132" lon="-118.3938671">
  <ele>-16.462</ele>
  <time>2026-09-01T01:13:27Z</time>
  <course>186.42</course>
  <speed>0.022360679774997897</speed>
  <fix>3d</fix>
</trkpt>
<trkpt lat="33.810313" lon="-118.393867">
  <ele>-15.94</ele>
  <time>2026-09-01T01:13:27Z</time>
  <course>0.0</course>
  <speed>0.0</speed>
  <fix>3d</fix>
</trkpt>
<trkpt lat="33.8103132" lon="-118.3938671">
  <ele>-16.494</ele>
  <time>2026-09-01T01:13:27Z</time>
  <course>186.42</course>
  <speed>0.022360679774997897</speed>
  <fix>3d</fix>
</trkpt>
<trkpt lat="33.8103132" lon="-118.3938671">
  <ele>-16.526</ele>
  <time>2026-09-01T01:13:27Z</time>
  <course>186.42</course>
  <speed>0.022360679774997897</speed>
  <fix>3d</fix>
</trkpt>
<trkpt lat="33.810313" lon="-118.393867">
  <ele>-15.94</ele>
  <time>2026-09-01T01:13:27Z</time>
  <course>0.0</course>
  <speed>0.0</speed>
  <fix>3d</fix>
</trkpt>
<trkpt lat="33.8103132" lon="-118.3938671">
  <ele>-16.546</ele>
  <time>2026-09-01T01:13:27Z</time>
  <course>186.42</course>
  <speed>0.022360679774997897</speed>
  <fix>3d</fix>
</trkpt>
<trkpt lat="33.8103132" lon="-118.3938671">
  <ele>-16.589</ele>
  <time>2026-09-01T01:13:27Z</time>
  <course>186.42</course>
  <speed>0.022360679774997897</speed>
  <fix>3d</fix>
</trkpt>
<trkpt lat="33.810313" lon="-118.393867">
  <ele>-16.06</ele>
  <time>2026-09-01T01:13:27Z</time>
  <course>0.0</course>
  <speed>0.0</speed>
  <fix>3d</fix>
</trkpt>
<trkpt lat="33.8103132" lon="-118.3938671">
  <ele>-16.59</ele>
  <time>2026-09-01T01:13:27Z</time>
  <course>186.42</course>
  <speed>0.022360679774997897</speed>
  <fix>3d</fix>
</trkpt>
<trkpt lat="33.8103132" lon="-118.3938671">
  <ele>-16.651</ele>
  <time>2026-09-01T01:13:27Z</time>
  <course>186.41</course>
  <speed>0.022360679774997897</speed>
  <fix>3d</fix>
</trkpt>
<trkpt lat="33.810313" lon="-118.393867">
  <ele>-16.06</ele>
  <time>2026-09-01T01:13:27Z</time>
  <course>0.0</course>
  <speed>0.0</speed>
  <fix>3d</fix>
</trkpt>
<trkpt lat="33.8103132" lon="-118.3938671">
  <ele>-16.67</ele>
  <time>2026-09-01T01:13:27Z</time>
  <course>186.41</course>
  <speed>0.022360679774997897</speed>
  <fix>3d</fix>
</trkpt>
<trkpt lat="33.8103132" lon="-118.3938671">
  <ele>-16.714</ele>
  <time>2026-09-01T01:13:27Z</time>
  <course>186.41</course>
  <speed>0.022360679774997897</speed>
  <fix>3d</fix>
</trkpt>
<trkpt lat="33.810313" lon="-118.393867">
  <ele>-16.18</ele>
  <time>2026-09-01T01:13:27Z</time>
  <course>0.0</course>
  <speed>0.0</speed>
  <fix>3d</fix>
</trkpt>
<trkpt lat="33.8103132" lon="-118.3938671">
  <ele>-16.734</ele>
  <time>2026-09-01T01:13:27Z</time>
  <course>186.41</course>
  <speed>0.022360679774997897</speed>
  <fix>3d</fix>
</trkpt>
<trkpt lat="33.8103132" lon="-118.3938671">
  <ele>-16.776</ele>
  <time>2026-09-01T01:13:27Z</time>
  <course>186.41</course>
  <speed>0.022360679774997897</speed>
  <fix>3d</fix>
</trkpt>
<trkpt lat="33.810313" lon="-118.393867">
  <ele>-16.18</ele>
  <time>2026-09-01T01:13:27Z</time>
  <course>0.0</course>
  <speed>0.0</speed>
  <fix>3d</fix>
</trkpt>
<trkpt lat="33.8103132" lon="-118.3938671">
  <ele>-16.795</ele>
  <time>2026-09-01T01:13:27Z</time>
  <course>186.41</course>
  <speed>0.022360679774997897</speed>
  <fix>3d</fix>
</trkpt>
<trkpt lat="33.8103132" lon="-118.3938671">
  <ele>-16.837</ele>
  <time>2026-09-01T01:13:27Z</time>
  <course>186.41</course>
  <speed>0.022360679774997897</speed>
  <fix>3d</fix>
</trkpt>
<trkpt lat="33.810313" lon="-118.393867">
  <ele>-16.29</ele>
  <time>2026-09-01T01:13:27Z</time>
  <course>0.0</course>
  <speed>0.0</speed>
  <fix>3d</fix>
</trkpt>
<trkpt lat="33.8103132" lon="-118.3938671">
  <ele>-16.857</ele>
  <time>2026-09-01T01:13:27Z</time>
  <course>186.41</course>
  <speed>0.022360679774997897</speed>
  <fix>3d</fix>
</trkpt>
<trkpt lat="33.8103132" lon="-118.3938671">
  <ele>-16.899</ele>
  <time>2026-09-01T01:13:27Z</time>
  <course>186.41</course>
  <speed>0.022360679774997897</speed>
  <fix>3d</fix>
</trkpt>
<trkpt lat="33.810313" lon="-118.393867">
  <ele>-16.29</ele>
  <time>2026-09-01T01:13:27Z</time>
  <course>0.0</course>
  <speed>0.0</speed>
  <fix>3d</fix>
</trkpt>
<trkpt lat="33.8103132" lon="-118.3938671">
  <ele>-16.918</ele>
  <time>2026-09-01T01:13:27Z</time>
  <course>186.41</course>
  <speed>0.022360679774997897</speed>
  <fix>3d</fix>
</trkpt>
<trkpt lat="33.8103132" lon="-118.3938671">
  <ele>-16.959</ele>
  <time>2026-09-01T01:13:27Z</time>
  <course>186.4</course>
  <speed>0.022360679774997897</speed>
  <fix>3d</fix>
</trkpt>
<trkpt lat="33.810313" lon="-118.393867">
  <ele>-16.42</ele>
  <time>2026-09-01T01:13:27Z</time>
  <course>0.0</course>
  <speed>0.0</speed>
  <fix>3d</fix>
</trkpt>
<trkpt lat="33.8103132" lon="-118.3938671">
  <ele>-16.981</ele>
  <time>2026-09-01T01:13:27Z</time>
  <course>186.4</course>
  <speed>0.022360679774997897</speed>
  <fix>3d</fix>
</trkpt>
<trkpt lat="33.8103132" lon="-118.3938671">
  <ele>-17.02</ele>
  <time>2026-09-01T01:13:27Z</time>
  <course>186.4</course>
  <speed>0.022360679774997897</speed>
  <fix>3d</fix>
</trkpt>
<trkpt lat="33.810313" lon="-118.393867">
  <ele>-16.42</ele>
  <time>2026-09-01T01:13:27Z</time>
  <course>0.0</course>
  <speed>0.0</speed>
  <fix>3d</fix>
</trkpt>
<trkpt lat="33.8103132" lon="-118.3938671">
  <ele>-17.022</ele>
  <time>2026-09-01T01:13:27Z</time>
  <course>186.4</course>
  <speed>0.022360679774997897</speed>
  <fix>3d</fix>
</trkpt>
<trkpt lat="33.8103132" lon="-118.3938671">
  <ele>-17.081</ele>
  <time>2026-09-01T01:13:27Z</time>
  <course>186.4</course>
  <speed>0.022360679774997897</speed>
  <fix>3d</fix>
</trkpt>
<trkpt lat="33.810313" lon="-118.393867">
  <ele>-16.54</ele>
  <time>2026-09-01T01:13:27Z</time>
  <course>0.0</course>
  <speed>0.0</speed>
  <fix>3d</fix>
</trkpt>
<trkpt lat="33.8103132" lon="-118.3938671">
  <ele>-17.1</ele>
  <time>2026-09-01T01:13:27Z</time>
  <course>186.4</course>
  <speed>0.022360679774997897</speed>
  <fix>3d</fix>
</trkpt>
<trkpt lat="33.8103132" lon="-118.3938671">
  <ele>-17.141</ele>
  <time>2026-09-01T01:13:27Z</time>
  <course>186.4</course>
  <speed>0.022360679774997897</speed>
  <fix>3d</fix>
</trkpt>
<trkpt lat="33.810313" lon="-118.393867">
  <ele>-16.54</ele>
  <time>2026-09-01T01:13:27Z</time>
  <course>0.0</course>
  <speed>0.0</speed>
  <fix>3d</fix>
</trkpt>
<trkpt lat="33.8103132" lon="-118.3938671">
  <ele>-17.161</ele>
  <time>2026-09-01T01:13:27Z</time>
  <course>186.4</course>
  <speed>0.022360679774997897</speed>
  <fix>3d</fix>
</trkpt>
<trkpt lat="33.8103132" lon="-118.3938671">
  <ele>-17.201</ele>
  <time>2026-09-01T01:13:27Z</time>
  <course>186.4</course>
  <speed>0.022360679774997897</speed>
  <fix>3d</fix>
</trkpt>
<trkpt lat="33.810313" lon="-118.393867">
  <ele>-16.66</ele>
  <time>2026-09-01T01:13:27Z</time>
  <course>0.0</course>
  <speed>0.0</speed>
  <fix>3d</fix>
</trkpt>
<trkpt lat="33.8103132" lon="-118.3938671">
  <ele>-17.202</ele>
  <time>2026-09-01T01:13:27Z</time>
  <course>186.4</course>
  <speed>0.022360679774997897</speed>
  <fix>3d</fix>
</trkpt>
<trkpt lat="33.8103132" lon="-118.3938671">
  <ele>-17.261</ele>
  <time>2026-09-01T01:13:27Z</time>
  <course>186.39</course>
  <speed>0.022360679774997897</speed>
  <fix>3d</fix>
</trkpt>
<trkpt lat="33.810313" lon="-118.393867">
  <ele>-16.66</ele>
  <time>2026-09-01T01:13:27Z</time>
  <course>0.0</course>
  <speed>0.0</speed>
  <fix>3d</fix>
</trkpt>
<trkpt lat="33.8103132" lon="-118.3938671">
  <ele>-17.281</ele>
  <time>2026-09-01T01:13:27Z</time>
  <course>186.39</course>
  <speed>0.022360679774997897</speed>
  <fix>3d</fix>
</trkpt>
<trkpt lat="33.8103132" lon="-118.3938671">
  <ele>-17.322</ele>
  <time>2026-09-01T01:13:27Z</time>
  <course>186.39</course>
  <speed>0.022360679774997897</speed>
  <fix>3d</fix>
</trkpt>
<trkpt lat="33.810313" lon="-118.393867">
  <ele>-16.78</ele>
  <time>2026-09-01T01:13:27Z</time>
  <course>0.0</course>
  <speed>0.0</speed>
  <fix>3d</fix>
</trkpt>
<trkpt lat="33.8103132" lon="-118.3938671">
  <ele>-17.325</ele>
  <time>2026-09-01T01:13:27Z</time>
  <course>186.39</course>
  <speed>0.022360679774997897</speed>
  <fix>3d</fix>
</trkpt>
<trkpt lat="33.8103132" lon="-118.3938671">
  <ele>-17.384</ele>
  <time>2026-09-01T01:13:27Z</time>
  <course>186.39</course>
  <speed>0.022360679774997897</speed>
  <fix>3d</fix>
</trkpt>
<trkpt lat="33.810313" lon="-118.393867">
  <ele>-16.78</ele>
  <time>2026-09-01T01:13:27Z</time>
  <course>0.0</course>
  <speed>0.0</speed>
  <fix>3d</fix>
</trkpt>
<trkpt lat="33.8103132" lon="-118.3938671">
  <ele>-17.405</ele>
  <time>2026-09-01T01:13:27Z</time>
  <course>186.39</course>
  <speed>0.022360679774997897</speed>
  <fix>3d</fix>
</trkpt>
<trkpt lat="33.8103132" lon="-118.3938671">
  <ele>-17.445</ele>
  <time>2026-09-01T01:13:27Z</time>
  <course>186.39</course>
  <speed>0.022360679774997897</speed>
  <fix>3d</fix>
</trkpt>
<trkpt lat="33.810313" lon="-118.393867">
  <ele>-16.91</ele>
  <time>2026-09-01T01:13:27Z</time>
  <course>0.0</course>
  <speed>0.0</speed>
  <fix>3d</fix>
</trkpt>
<trkpt lat="33.8103132" lon="-118.3938671">
  <ele>-17.465</ele>
  <time>2026-09-01T01:13:27Z</time>
  <course>186.38</course>
  <speed>0.022360679774997897</speed>
  <fix>3d</fix>
</trkpt>
<trkpt lat="33.8103132" lon="-118.3938671">
  <ele>-17.507</ele>
  <time>2026-09-01T01:13:27Z</time>
  <course>186.38</course>
  <speed>0.022360679774997897</speed>
  <fix>3d</fix>
</trkpt>
<trkpt lat="33.810313" lon="-118.393867">
  <ele>-16.91</ele>
  <time>2026-09-01T01:13:27Z</time>
  <course>0.0</course>
  <speed>0.0</speed>
  <fix>3d</fix>
</trkpt>
<trkpt lat="33.8103132" lon="-118.3938671">
  <ele>-17.527</ele>
  <time>2026-09-01T01:13:27Z</time>
  <course>186.38</course>
  <speed>0.022360679774997897</speed>
  <fix>3d</fix>
</trkpt>
<trkpt lat="33.8103132" lon="-118.3938671">
  <ele>-17.569</ele>
  <time>2026-09-01T01:13:27Z</time>
  <course>186.38</course>
  <speed>0.022360679774997897</speed>
  <fix>3d</fix>
</trkpt>
<trkpt lat="33.810313" lon="-118.393867">
  <ele>-17.02</ele>
  <time>2026-09-01T01:13:27Z</time>
  <course>0.0</course>
  <speed>0.0</speed>
  <fix>3d</fix>
</trkpt>
<trkpt lat="33.8103132" lon="-118.3938671">
  <ele>-17.592</ele>
  <time>2026-09-01T01:13:27Z</time>
  <course>186.38</course>
  <speed>0.022360679774997897</speed>
  <fix>3d</fix>
</trkpt>
<trkpt lat="33.8103132" lon="-118.3938671">
  <ele>-17.631</ele>
  <time>2026-09-01T01:13:27Z</time>
  <course>186.38</course>
  <speed>0.022360679774997897</speed>
  <fix>3d</fix>
</trkpt>
<trkpt lat="33.810313" lon="-118.393867">
  <ele>-17.02</ele>
  <time>2026-09-01T01:13:27Z</time>
  <course>0.0</course>
  <speed>0.0</speed>
  <fix>3d</fix>
</trkpt>
<trkpt lat="33.8103132" lon="-118.3938671">
  <ele>-17.632</ele>
  <time>2026-09-01T01:13:27Z</time>
  <course>186.38</course>
  <speed>0.022360679774997897</speed>
  <fix>3d</fix>
</trkpt>
<trkpt lat="33.8103132" lon="-118.3938671">
  <ele>-17.692</ele>
  <time>2026-09-01T01:13:27Z</time>
  <course>186.37</course>
  <speed>0.022360679774997897</speed>
  <fix>3d</fix>
</trkpt>
<trkpt lat="33.810313" lon="-118.393867">
  <ele>-17.15</ele>
  <time>2026-09-01T01:13:27Z</time>
  <course>0.0</course>
  <speed>0.0</speed>
  <fix>3d</fix>
</trkpt>
<trkpt lat="33.8103132" lon="-118.3938671">
  <ele>-17.712</ele>
  <time>2026-09-01T01:13:27Z</time>
  <course>186.37</course>
  <speed>0.022360679774997897</speed>
  <fix>3d</fix>
</trkpt>
<trkpt lat="33.8103132" lon="-118.3938671">
  <ele>-17.754</ele>
  <time>2026-09-01T01:13:27Z</time>
  <course>186.37</course>
  <speed>0.022360679774997897</speed>
  <fix>3d</fix>
</trkpt>
<trkpt lat="33.810313" lon="-118.393867">
  <ele>-17.15</ele>
  <time>2026-09-01T01:13:27Z</time>
  <course>0.0</course>
  <speed>0.0</speed>
  <fix>3d</fix>
</trkpt>
<trkpt lat="33.8103132" lon="-118.3938671">
  <ele>-17.774</ele>
  <time>2026-09-01T01:13:27Z</time>
  <course>186.37</course>
  <speed>0.022360679774997897</speed>
  <fix>3d</fix>
</trkpt>
<trkpt lat="33.8103132" lon="-118.3938671">
  <ele>-17.815</ele>
  <time>2026-09-01T01:13:27Z</time>
  <course>186.37</course>
  <speed>0.022360679774997897</speed>
  <fix>3d</fix>
</trkpt>
<trkpt lat="33.810313" lon="-118.393867">
  <ele>-17.27</ele>
  <time>2026-09-01T01:13:27Z</time>
  <course>0.0</course>
  <speed>0.0</speed>
  <fix>3d</fix>
</trkpt>
<trkpt lat="33.8103132" lon="-118.3938671">
  <ele>-17.837</ele>
  <time>2026-09-01T01:13:27Z</time>
  <course>186.37</course>
  <speed>0.022360679774997897</speed>
  <fix>3d</fix>
</trkpt>
<trkpt lat="33.8103132" lon="-118.3938671">
  <ele>-17.877</ele>
  <time>2026-09-01T01:13:27Z</time>
  <course>186.37</course>
  <speed>0.022360679774997897</speed>
  <fix>3d</fix>
</trkpt>
<trkpt lat="33.810313" lon="-118.393867">
  <ele>-17.27</ele>
  <time>2026-09-01T01:13:27Z</time>
  <course>0.0</course>
  <speed>0.0</speed>
  <fix>3d</fix>
</trkpt>
<trkpt lat="33.8103132" lon="-118.3938671">
  <ele>-17.878</ele>
  <time>2026-09-01T01:13:27Z</time>
  <course>186.37</course>
  <speed>0.022360679774997897</speed>
  <fix>3d</fix>
</trkpt>
<trkpt lat="33.8103132" lon="-118.3938671">
  <ele>-17.938</ele>
  <time>2026-09-01T01:13:27Z</time>
  <course>186.36</course>
  <speed>0.022360679774997897</speed>
  <fix>3d</fix>
</trkpt>
<trkpt lat="33.810313" lon="-118.393867">
  <ele>-17.39</ele>
  <time>2026-09-01T01:13:27Z</time>
  <course>0.0</course>
  <speed>0.0</speed>
  <fix>3d</fix>
</trkpt>
<trkpt lat="33.8103132" lon="-118.3938671">
  <ele>-17.939</ele>
  <time>2026-09-01T01:13:27Z</time>
  <course>186.36</course>
  <speed>0.022360679774997897</speed>
  <fix>3d</fix>
</trkpt>
<trkpt lat="33.8103132" lon="-118.3938671">
  <ele>-17.998</ele>
  <time>2026-09-01T01:13:27Z</time>
  <course>186.36</course>
  <speed>0.022360679774997897</speed>
  <fix>3d</fix>
</trkpt>
<trkpt lat="33.810313" lon="-118.393867">
  <ele>-17.39</ele>
  <time>2026-09-01T01:13:27Z</time>
  <course>0.0</course>
  <speed>0.0</speed>
  <fix>3d</fix>
</trkpt>
<trkpt lat="33.8103132" lon="-118.3938671">
  <ele>-18.018</ele>
  <time>2026-09-01T01:13:27Z</time>
  <course>186.36</course>
  <speed>0.022360679774997897</speed>
  <fix>3d</fix>
</trkpt>
<trkpt lat="33.8103132" lon="-118.3938671">
  <ele>-18.06</ele>
  <time>2026-09-01T01:13:27Z</time>
  <course>186.36</course>
  <speed>0.022360679774997897</speed>
  <fix>3d</fix>
</trkpt>
<trkpt lat="33.810313" lon="-118.393867">
  <ele>-17.51</ele>
  <time>2026-09-01T01:13:27Z</time>
  <course>0.0</course>
  <speed>0.0</speed>
  <fix>3d</fix>
</trkpt>
<trkpt lat="33.8103132" lon="-118.3938671">
  <ele>-18.08</ele>
  <time>2026-09-01T01:13:27Z</time>
  <course>186.36</course>
  <speed>0.022360679774997897</speed>
  <fix>3d</fix>
</trkpt>
<trkpt lat="33.8103132" lon="-118.3938671">
  <ele>-18.122</ele>
  <time>2026-09-01T01:13:27Z</time>
  <course>186.35</course>
  <speed>0.022360679774997897</speed>
  <fix>3d</fix>
</trkpt>
<trkpt lat="33.810313" lon="-118.393867">
  <ele>-17.51</ele>
  <time>2026-09-01T01:13:27Z</time>
  <course>0.0</course>
  <speed>0.0</speed>
  <fix>3d</fix>
</trkpt>
<trkpt lat="33.8103132" lon="-118.3938671">
  <ele>-18.123</ele>
  <time>2026-09-01T01:13:27Z</time>
  <course>186.35</course>
  <speed>0.022360679774997897</speed>
  <fix>3d</fix>
</trkpt>
<trkpt lat="33.8103132" lon="-118.3938671">
  <ele>-18.183</ele>
  <time>2026-09-01T01:13:27Z</time>
  <course>186.35</course>
  <speed>0.022360679774997897</speed>
  <fix>3d</fix>
</trkpt>
<trkpt lat="33.810313" lon="-118.393867">
  <ele>-17.63</ele>
  <time>2026-09-01T01:13:27Z</time>
  <course>0.0</course>
  <speed>0.0</speed>
  <fix>3d</fix>
</trkpt>
<trkpt lat="33.8103132" lon="-118.3938671">
  <ele>-18.205</ele>
  <time>2026-09-01T01:13:27Z</time>
  <course>186.35</course>
  <speed>0.022360679774997897</speed>
  <fix>3d</fix>
</trkpt>
<trkpt lat="33.8103132" lon="-118.3938671">
  <ele>-18.245</ele>
  <time>2026-09-01T01:13:27Z</time>
  <course>186.35</course>
  <speed>0.022360679774997897</speed>
  <fix>3d</fix>
</trkpt>
<trkpt lat="33.810313" lon="-118.393867">
  <ele>-17.63</ele>
  <time>2026-09-01T01:13:27Z</time>
  <course>0.0</course>
  <speed>0.0</speed>
  <fix>3d</fix>
</trkpt>
<trkpt lat="33.8103132" lon="-118.3938671">
  <ele>-18.247</ele>
  <time>2026-09-01T01:13:27Z</time>
  <course>186.35</course>
  <speed>0.022360679774997897</speed>
  <fix>3d</fix>
</trkpt>
<trkpt lat="33.8103132" lon="-118.3938671">
  <ele>-18.309</ele>
  <time>2026-09-01T01:13:27Z</time>
  <course>186.35</course>
  <speed>0.022360679774997897</speed>
  <fix>3d</fix>
</trkpt>
<trkpt lat="33.810313" lon="-118.393867">
  <ele>-17.75</ele>
  <time>2026-09-01T01:13:27Z</time>
  <course>0.0</course>
  <speed>0.0</speed>
  <fix>3d</fix>
</trkpt>
<trkpt lat="33.8103132" lon="-118.3938671">
  <ele>-18.331</ele>
  <time>2026-09-01T01:13:27Z</time>
  <course>186.35</course>
  <speed>0.022360679774997897</speed>
  <fix>3d</fix>
</trkpt>
<trkpt lat="33.8103132" lon="-118.3938671">
  <ele>-18.373</ele>
  <time>2026-09-01T01:13:27Z</time>
  <course>186.34</course>
  <speed>0.022360679774997897</speed>
  <fix>3d</fix>
</trkpt>
<trkpt lat="33.810313" lon="-118.393867">
  <ele>-17.75</ele>
  <time>2026-09-01T01:13:27Z</time>
  <course>0.0</course>
  <speed>0.0</speed>
  <fix>3d</fix>
</trkpt>
<trkpt lat="33.8103132" lon="-118.3938671">
  <ele>-18.395</ele>
  <time>2026-09-01T01:13:27Z</time>
  <course>186.34</course>
  <speed>0.022360679774997897</speed>
  <fix>3d</fix>
</trkpt>
<trkpt lat="33.8103132" lon="-118.3938671">
  <ele>-18.438</ele>
  <time>2026-09-01T01:13:27Z</time>
  <course>186.34</course>
  <speed>0.022360679774997897</speed>
  <fix>3d</fix>
</trkpt>
<trkpt lat="33.810313" lon="-118.393867">
  <ele>-17.86</ele>
  <time>2026-09-01T01:13:27Z</time>
  <course>0.0</course>
  <speed>0.0</speed>
  <fix>3d</fix>
</trkpt>
<trkpt lat="33.8103132" lon="-118.3938671">
  <ele>-18.459</ele>
  <time>2026-09-01T01:13:27Z</time>
  <course>186.34</course>
  <speed>0.022360679774997897</speed>
  <fix>3d</fix>
</trkpt>
<trkpt lat="33.8103132" lon="-118.3938671">
  <ele>-18.503</ele>
  <time>2026-09-01T01:13:27Z</time>
  <course>186.34</course>
  <speed>0.022360679774997897</speed>
  <fix>3d</fix>
</trkpt>
<trkpt lat="33.810313" lon="-118.393867">
  <ele>-17.86</ele>
  <time>2026-09-01T01:13:27Z</time>
  <course>0.0</course>
  <speed>0.0</speed>
  <fix>3d</fix>
</trkpt>
<trkpt lat="33.8103132" lon="-118.3938671">
  <ele>-18.505</ele>
  <time>2026-09-01T01:13:27Z</time>
  <course>186.34</course>
  <speed>0.022360679774997897</speed>
  <fix>3d</fix>
</trkpt>
<trkpt lat="33.8103132" lon="-118.3938671">
  <ele>-18.568</ele>
  <time>2026-09-01T01:13:27Z</time>
  <course>186.33</course>
  <speed>0.022360679774997897</speed>
  <fix>3d</fix>
</trkpt>
<trkpt lat="33.810313" lon="-118.393867">
  <ele>-17.99</ele>
  <time>2026-09-01T01:13:27Z</time>
  <course>0.0</course>
  <speed>0.0</speed>
  <fix>3d</fix>
</trkpt>
<trkpt lat="33.8103132" lon="-118.3938671">
  <ele>-18.57</ele>
  <time>2026-09-01T01:13:27Z</time>
  <course>186.33</course>
  <speed>0.022360679774997897</speed>
  <fix>3d</fix>
</trkpt>
<trkpt lat="33.8103132" lon="-118.3938671">
  <ele>-18.633</ele>
  <time>2026-09-01T01:13:27Z</time>
  <course>186.33</course>
  <speed>0.022360679774997897</speed>
  <fix>3d</fix>
</trkpt>
<trkpt lat="33.810313" lon="-118.393867">
  <ele>-17.99</ele>
  <time>2026-09-01T01:13:27Z</time>
  <course>0.0</course>
  <speed>0.0</speed>
  <fix>3d</fix>
</trkpt>
<trkpt lat="33.8103132" lon="-118.3938671">
  <ele>-18.656</ele>
  <time>2026-09-01T01:13:27Z</time>
  <course>186.33</course>
  <speed>0.022360679774997897</speed>
  <fix>3d</fix>
</trkpt>
<trkpt lat="33.8103132" lon="-118.3938671">
  <ele>-18.699</ele>
  <time>2026-09-01T01:13:27Z</time>
  <course>186.33</course>
  <speed>0.022360679774997897</speed>
  <fix>3d</fix>
</trkpt>
<trkpt lat="33.810313" lon="-118.393867">
  <ele>-18.11</ele>
  <time>2026-09-01T01:13:27Z</time>
  <course>0.0</course>
  <speed>0.0</speed>
  <fix>3d</fix>
</trkpt>
<trkpt lat="33.8103132" lon="-118.3938671">
  <ele>-18.721</ele>
  <time>2026-09-01T01:13:27Z</time>
  <course>186.33</course>
  <speed>0.022360679774997897</speed>
  <fix>3d</fix>
</trkpt>
<trkpt lat="33.8103132" lon="-118.3938671">
  <ele>-18.762</ele>
  <time>2026-09-01T01:13:27Z</time>
  <course>186.32</course>
  <speed>0.022360679774997897</speed>
  <fix>3d</fix>
</trkpt>
<trkpt lat="33.810313" lon="-118.393867">
  <ele>-18.11</ele>
  <time>2026-09-01T01:13:27Z</time>
  <course>0.0</course>
  <speed>0.0</speed>
  <fix>3d</fix>
</trkpt>
<trkpt lat="33.8103132" lon="-118.3938671">
  <ele>-18.783</ele>
  <time>2026-09-01T01:13:27Z</time>
  <course>186.32</course>
  <speed>0.022360679774997897</speed>
  <fix>3d</fix>
</trkpt>
<trkpt lat="33.8103132" lon="-118.3938671">
  <ele>-18.826</ele>
  <time>2026-09-01T01:13:27Z</time>
  <course>186.32</course>
  <speed>0.022360679774997897</speed>
  <fix>3d</fix>
</trkpt>
<trkpt lat="33.810313" lon="-118.393867">
  <ele>-18.23</ele>
  <time>2026-09-01T01:13:27Z</time>
  <course>0.0</course>
  <speed>0.0</speed>
  <fix>3d</fix>
</trkpt>
<trkpt lat="33.8103132" lon="-118.3938671">
  <ele>-18.852</ele>
  <time>2026-09-01T01:13:27Z</time>
  <course>186.32</course>
  <speed>0.022360679774997897</speed>
  <fix>3d</fix>
</trkpt>
<trkpt lat="33.8103132" lon="-118.3938671">
  <ele>-18.889</ele>
  <time>2026-09-01T01:13:27Z</time>
  <course>186.32</course>
  <speed>0.022360679774997897</speed>
  <fix>3d</fix>
</trkpt>
<trkpt lat="33.810313" lon="-118.393867">
  <ele>-18.23</ele>
  <time>2026-09-01T01:13:27Z</time>
  <course>0.0</course>
  <speed>0.0</speed>
  <fix>3d</fix>
</trkpt>
<trkpt lat="33.8103132" lon="-118.3938671">
  <ele>-18.89</ele>
  <time>2026-09-01T01:13:27Z</time>
  <course>186.32</course>
  <speed>0.022360679774997897</speed>
  <fix>3d</fix>
</trkpt>
<trkpt lat="33.8103132" lon="-118.3938671">
  <ele>-18.952</ele>
  <time>2026-09-01T01:13:27Z</time>
  <course>186.31</course>
  <speed>0.022360679774997897</speed>
  <fix>3d</fix>
</trkpt>
<trkpt lat="33.810313" lon="-118.393867">
  <ele>-18.35</ele>
  <time>2026-09-01T01:13:27Z</time>
  <course>0.0</course>
  <speed>0.0</speed>
  <fix>3d</fix>
</trkpt>
<trkpt lat="33.8103132" lon="-118.3938671">
  <ele>-18.972</ele>
  <time>2026-09-01T01:13:27Z</time>
  <course>186.31</course>
  <speed>0.022360679774997897</speed>
  <fix>3d</fix>
</trkpt>
<trkpt lat="33.8103132" lon="-118.3938671">
  <ele>-19.014</ele>
  <time>2026-09-01T01:13:27Z</time>
  <course>186.31</course>
  <speed>0.022360679774997897</speed>
  <fix>3d</fix>
</trkpt>
<trkpt lat="33.810313" lon="-118.393867">
  <ele>-18.35</ele>
  <time>2026-09-01T01:13:27Z</time>
  <course>0.0</course>
  <speed>0.0</speed>
  <fix>3d</fix>
</trkpt>
<trkpt lat="33.8103132" lon="-118.3938671">
  <ele>-19.032</ele>
  <time>2026-09-01T01:13:27Z</time>
  <course>186.31</course>
  <speed>0.022360679774997897</speed>
  <fix>3d</fix>
</trkpt>
<trkpt lat="33.8103132" lon="-118.3938671">
  <ele>-19.075</ele>
  <time>2026-09-01T01:13:27Z</time>
  <course>186.31</course>
  <speed>0.022360679774997897</speed>
  <fix>3d</fix>
</trkpt>
<trkpt lat="33.810313" lon="-118.393867">
  <ele>-18.47</ele>
  <time>2026-09-01T01:13:27Z</time>
  <course>0.0</course>
  <speed>0.0</speed>
  <fix>3d</fix>
</trkpt>
<trkpt lat="33.8103132" lon="-118.3938671">
  <ele>-19.098</ele>
  <time>2026-09-01T01:13:27Z</time>
  <course>186.31</course>
  <speed>0.022360679774997897</speed>
  <fix>3d</fix>
</trkpt>
<trkpt lat="33.8103132" lon="-118.3938671">
  <ele>-19.136</ele>
  <time>2026-09-01T01:13:27Z</time>
  <course>186.3</course>
  <speed>0.022360679774997897</speed>
  <fix>3d</fix>
</trkpt>
<trkpt lat="33.810313" lon="-118.393867">
  <ele>-18.47</ele>
  <time>2026-09-01T01:13:27Z</time>
  <course>0.0</course>
  <speed>0.0</speed>
  <fix>3d</fix>
</trkpt>
<trkpt lat="33.8103132" lon="-118.3938671">
  <ele>-19.158</ele>
  <time>2026-09-01T01:13:27Z</time>
  <course>186.3</course>
  <speed>0.022360679774997897</speed>
  <fix>3d</fix>
</trkpt>
<trkpt lat="33.8103132" lon="-118.3938671">
  <ele>-19.197</ele>
  <time>2026-09-01T01:13:27Z</time>
  <course>186.3</course>
  <speed>0.022360679774997897</speed>
  <fix>3d</fix>
</trkpt>
<trkpt lat="33.810313" lon="-118.393867">
  <ele>-18.59</ele>
  <time>2026-09-01T01:13:27Z</time>
  <course>0.0</course>
  <speed>0.0</speed>
  <fix>3d</fix>
</trkpt>
<trkpt lat="33.8103132" lon="-118.3938671">
  <ele>-19.198</ele>
  <time>2026-09-01T01:13:27Z</time>
  <course>186.3</course>
  <speed>0.022360679774997897</speed>
  <fix>3d</fix>
</trkpt>
<trkpt lat="33.8103132" lon="-118.3938671">
  <ele>-19.257</ele>
  <time>2026-09-01T01:13:27Z</time>
  <course>186.3</course>
  <speed>0.022360679774997897</speed>
  <fix>3d</fix>
</trkpt>
<trkpt lat="33.810313" lon="-118.393867">
  <ele>-18.59</ele>
  <time>2026-09-01T01:13:27Z</time>
  <course>0.0</course>
  <speed>0.0</speed>
  <fix>3d</fix>
</trkpt>
<trkpt lat="33.8103132" lon="-118.3938671">
  <ele>-19.276</ele>
  <time>2026-09-01T01:13:27Z</time>
  <course>186.3</course>
  <speed>0.022360679774997897</speed>
  <fix>3d</fix>
</trkpt>
<trkpt lat="33.8103132" lon="-118.3938671">
  <ele>-19.316</ele>
  <time>2026-09-01T01:13:27Z</time>
  <course>186.29</course>
  <speed>0.022360679774997897</speed>
  <fix>3d</fix>
</trkpt>
<trkpt lat="33.810313" lon="-118.393867">
  <ele>-18.72</ele>
  <time>2026-09-01T01:13:27Z</time>
  <course>0.0</course>
  <speed>0.0</speed>
  <fix>3d</fix>
</trkpt>
<trkpt lat="33.8103132" lon="-118.3938671">
  <ele>-19.336</ele>
  <time>2026-09-01T01:13:27Z</time>
  <course>186.29</course>
  <speed>0.022360679774997897</speed>
  <fix>3d</fix>
</trkpt>
<trkpt lat="33.8103132" lon="-118.3938671">
  <ele>-19.377</ele>
  <time>2026-09-01T01:13:27Z</time>
  <course>186.29</course>
  <speed>0.022360679774997897</speed>
  <fix>3d</fix>
</trkpt>
<trkpt lat="33.810313" lon="-118.393867">
  <ele>-18.72</ele>
  <time>2026-09-01T01:13:27Z</time>
  <course>0.0</course>
  <speed>0.0</speed>
  <fix>3d</fix>
</trkpt>
<trkpt lat="33.8103132" lon="-118.3938671">
  <ele>-19.399</ele>
  <time>2026-09-01T01:13:27Z</time>
  <course>186.29</course>
  <speed>0.022360679774997897</speed>
  <fix>3d</fix>
</trkpt>
<trkpt lat="33.8103132" lon="-118.3938671">
  <ele>-19.438</ele>
  <time>2026-09-01T01:13:27Z</time>
  <course>186.29</course>
  <speed>0.022360679774997897</speed>
  <fix>3d</fix>
</trkpt>
<trkpt lat="33.810313" lon="-118.393867">
  <ele>-18.84</ele>
  <time>2026-09-01T01:13:27Z</time>
  <course>0.0</course>
  <speed>0.0</speed>
  <fix>3d</fix>
</trkpt>
<trkpt lat="33.8103132" lon="-118.3938671">
  <ele>-19.46</ele>
  <time>2026-09-01T01:13:27Z</time>
  <course>186.28</course>
  <speed>0.022360679774997897</speed>
  <fix>3d</fix>
</trkpt>
<trkpt lat="33.8103132" lon="-118.3938671">
  <ele>-19.5</ele>
  <time>2026-09-01T01:13:27Z</time>
  <course>186.28</course>
  <speed>0.022360679774997897</speed>
  <fix>3d</fix>
</trkpt>
<trkpt lat="33.810313" lon="-118.393867">
  <ele>-18.84</ele>
  <time>2026-09-01T01:13:27Z</time>
  <course>0.0</course>
  <speed>0.0</speed>
  <fix>3d</fix>
</trkpt>
<trkpt lat="33.8103132" lon="-118.3938671">
  <ele>-19.502</ele>
  <time>2026-09-01T01:13:27Z</time>
  <course>186.28</course>
  <speed>0.022360679774997897</speed>
  <fix>3d</fix>
</trkpt>
<trkpt lat="33.8103132" lon="-118.3938671">
  <ele>-19.562</ele>
  <time>2026-09-01T01:13:27Z</time>
  <course>186.28</course>
  <speed>0.022360679774997897</speed>
  <fix>3d</fix>
</trkpt>
<trkpt lat="33.810313" lon="-118.393867">
  <ele>-18.96</ele>
  <time>2026-09-01T01:13:27Z</time>
  <course>0.0</course>
  <speed>0.0</speed>
  <fix>3d</fix>
</trkpt>
<trkpt lat="33.8103132" lon="-118.3938671">
  <ele>-19.584</ele>
  <time>2026-09-01T01:13:27Z</time>
  <course>186.28</course>
  <speed>0.022360679774997897</speed>
  <fix>3d</fix>
</trkpt>
<trkpt lat="33.8103132" lon="-118.3938671">
  <ele>-19.623</ele>
  <time>2026-09-01T01:13:27Z</time>
  <course>186.28</course>
  <speed>0.022360679774997897</speed>
  <fix>3d</fix>
</trkpt>
<trkpt lat="33.810313" lon="-118.393867">
  <ele>-18.96</ele>
  <time>2026-09-01T01:13:27Z</time>
  <course>0.0</course>
  <speed>0.0</speed>
  <fix>3d</fix>
</trkpt>
<trkpt lat="33.8103132" lon="-118.3938671">
  <ele>-19.643</ele>
  <time>2026-09-01T01:13:27Z</time>
  <course>186.27</course>
  <speed>0.022360679774997897</speed>
  <fix>3d</fix>
</trkpt>
<trkpt lat="33.8103132" lon="-118.3938671">
  <ele>-19.683</ele>
  <time>2026-09-01T01:13:27Z</time>
  <course>186.27</course>
  <speed>0.022360679774997897</speed>
  <fix>3d</fix>
</trkpt>
<trkpt lat="33.810313" lon="-118.393867">
  <ele>-19.08</ele>
  <time>2026-09-01T01:13:27Z</time>
  <course>0.0</course>
  <speed>0.0</speed>
  <fix>3d</fix>
</trkpt>
<trkpt lat="33.8103132" lon="-118.3938671">
  <ele>-19.704</ele>
  <time>2026-09-01T01:13:27Z</time>
  <course>186.27</course>
  <speed>0.022360679774997897</speed>
  <fix>3d</fix>
</trkpt>
<trkpt lat="33.8103132" lon="-118.3938671">
  <ele>-19.744</ele>
  <time>2026-09-01T01:13:27Z</time>
  <course>186.27</course>
  <speed>0.022360679774997897</speed>
  <fix>3d</fix>
</trkpt>
<trkpt lat="33.810313" lon="-118.393867">
  <ele>-19.08</ele>
  <time>2026-09-01T01:13:27Z</time>
  <course>0.0</course>
  <speed>0.0</speed>
  <fix>3d</fix>
</trkpt>
<trkpt lat="33.8103132" lon="-118.3938671">
  <ele>-19.764</ele>
  <time>2026-09-01T01:13:27Z</time>
  <course>186.27</course>
  <speed>0.022360679774997897</speed>
  <fix>3d</fix>
</trkpt>
<trkpt lat="33.8103132" lon="-118.3938671">
  <ele>-19.806</ele>
  <time>2026-09-01T01:13:27Z</time>
  <course>186.26</course>
  <speed>0.022360679774997897</speed>
  <fix>3d</fix>
</trkpt>
<trkpt lat="33.810313" lon="-118.393867">
  <ele>-19.2</ele>
  <time>2026-09-01T01:13:27Z</time>
  <course>0.0</course>
  <speed>0.0</speed>
  <fix>3d</fix>
</trkpt>
<trkpt lat="33.8103132" lon="-118.3938671">
  <ele>-19.807</ele>
  <time>2026-09-01T01:13:27Z</time>
  <course>186.26</course>
  <speed>0.022360679774997897</speed>
  <fix>3d</fix>
</trkpt>
<trkpt lat="33.8103132" lon="-118.3938671">
  <ele>-19.868</ele>
  <time>2026-09-01T01:13:27Z</time>
  <course>186.26</course>
  <speed>0.022360679774997897</speed>
  <fix>3d</fix>
</trkpt>
<trkpt lat="33.810313" lon="-118.393867">
  <ele>-19.2</ele>
  <time>2026-09-01T01:13:27Z</time>
  <course>0.0</course>
  <speed>0.0</speed>
  <fix>3d</fix>
</trkpt>
<trkpt lat="33.8103132" lon="-118.3938671">
  <ele>-19.888</ele>
  <time>2026-09-01T01:13:27Z</time>
  <course>186.26</course>
  <speed>0.022360679774997897</speed>
  <fix>3d</fix>
</trkpt>
<trkpt lat="33.8103132" lon="-118.3938671">
  <ele>-19.929</ele>
  <time>2026-09-01T01:13:27Z</time>
  <course>186.26</course>
  <speed>0.022360679774997897</speed>
  <fix>3d</fix>
</trkpt>
<trkpt lat="33.810313" lon="-118.393867">
  <ele>-19.32</ele>
  <time>2026-09-01T01:13:27Z</time>
  <course>0.0</course>
  <speed>0.0</speed>
  <fix>3d</fix>
</trkpt>
<trkpt lat="33.8103132" lon="-118.3938671">
  <ele>-19.953</ele>
  <time>2026-09-01T01:13:27Z</time>
  <course>186.26</course>
  <speed>0.022360679774997897</speed>
  <fix>3d</fix>
</trkpt>
<trkpt lat="33.8103132" lon="-118.3938671">
  <ele>-19.991</ele>
  <time>2026-09-01T01:13:27Z</time>
  <course>186.25</course>
  <speed>0.022360679774997897</speed>
  <fix>3d</fix>
</trkpt>
<trkpt lat="33.810313" lon="-118.393867">
  <ele>-19.32</ele>
  <time>2026-09-01T01:13:27Z</time>
  <course>0.0</course>
  <speed>0.0</speed>
  <fix>3d</fix>
</trkpt>
<trkpt lat="33.8103132" lon="-118.3938671">
  <ele>-20.011</ele>
  <time>2026-09-01T01:13:27Z</time>
  <course>186.25</course>
  <speed>0.022360679774997897</speed>
  <fix>3d</fix>
</trkpt>
<trkpt lat="33.8103132" lon="-118.3938671">
  <ele>-20.054</ele>
  <time>2026-09-01T01:13:27Z</time>
  <course>186.25</course>
  <speed>0.022360679774997897</speed>
  <fix>3d</fix>
</trkpt>
<trkpt lat="33.810313" lon="-118.393867">
  <ele>-19.43</ele>
  <time>2026-09-01T01:13:27Z</time>
  <course>0.0</course>
  <speed>0.0</speed>
  <fix>3d</fix>
</trkpt>
<trkpt lat="33.8103132" lon="-118.3938671">
  <ele>-20.073</ele>
  <time>2026-09-01T01:13:27Z</time>
  <course>186.25</course>
  <speed>0.022360679774997897</speed>
  <fix>3d</fix>
</trkpt>
<trkpt lat="33.8103132" lon="-118.3938671">
  <ele>-20.117</ele>
  <time>2026-09-01T01:13:27Z</time>
  <course>186.25</course>
  <speed>0.022360679774997897</speed>
  <fix>3d</fix>
</trkpt>
<trkpt lat="33.810313" lon="-118.393867">
  <ele>-19.43</ele>
  <time>2026-09-01T01:13:27Z</time>
  <course>0.0</course>
  <speed>0.0</speed>
  <fix>3d</fix>
</trkpt>
<trkpt lat="33.8103132" lon="-118.3938671">
  <ele>-20.118</ele>
  <time>2026-09-01T01:13:27Z</time>
  <course>186.24</course>
  <speed>0.022360679774997897</speed>
  <fix>3d</fix>
</trkpt>
<trkpt lat="33.8103132" lon="-118.3938671">
  <ele>-20.18</ele>
  <time>2026-09-01T01:13:27Z</time>
  <course>186.24</course>
  <speed>0.022360679774997897</speed>
  <fix>3d</fix>
</trkpt>
<trkpt lat="33.810313" lon="-118.393867">
  <ele>-19.56</ele>
  <time>2026-09-01T01:13:27Z</time>
  <course>0.0</course>
  <speed>0.0</speed>
  <fix>3d</fix>
</trkpt>
<trkpt lat="33.8103132" lon="-118.3938671">
  <ele>-20.199</ele>
  <time>2026-09-01T01:13:27Z</time>
  <course>186.24</course>
  <speed>0.022360679774997897</speed>
  <fix>3d</fix>
</trkpt>
<trkpt lat="33.8103132" lon="-118.3938671">
  <ele>-20.242</ele>
  <time>2026-09-01T01:13:27Z</time>
  <course>186.24</course>
  <speed>0.022360679774997897</speed>
  <fix>3d</fix>
</trkpt>
<trkpt lat="33.810313" lon="-118.393867">
  <ele>-19.56</ele>
  <time>2026-09-01T01:13:27Z</time>
  <course>0.0</course>
  <speed>0.0</speed>
  <fix>3d</fix>
</trkpt>
<trkpt lat="33.8103132" lon="-118.3938671">
  <ele>-20.264</ele>
  <time>2026-09-01T01:13:27Z</time>
  <course>186.24</course>
  <speed>0.022360679774997897</speed>
  <fix>3d</fix>
</trkpt>
<trkpt lat="33.8103132" lon="-118.3938671">
  <ele>-20.305</ele>
  <time>2026-09-01T01:13:27Z</time>
  <course>186.23</course>
  <speed>0.022360679774997897</speed>
  <fix>3d</fix>
</trkpt>
<trkpt lat="33.810313" lon="-118.393867">
  <ele>-19.68</ele>
  <time>2026-09-01T01:13:27Z</time>
  <course>0.0</course>
  <speed>0.0</speed>
  <fix>3d</fix>
</trkpt>
<trkpt lat="33.8103132" lon="-118.3938671">
  <ele>-20.306</ele>
  <time>2026-09-01T01:13:27Z</time>
  <course>186.23</course>
  <speed>0.022360679774997897</speed>
  <fix>3d</fix>
</trkpt>
<trkpt lat="33.8103132" lon="-118.3938671">
  <ele>-20.368</ele>
  <time>2026-09-01T01:13:27Z</time>
  <course>186.23</course>
  <speed>0.022360679774997897</speed>
  <fix>3d</fix>
</trkpt>
<trkpt lat="33.810313" lon="-118.393867">
  <ele>-19.68</ele>
  <time>2026-09-01T01:13:27Z</time>
  <course>0.0</course>
  <speed>0.0</speed>
  <fix>3d</fix>
</trkpt>
<trkpt lat="33.8103132" lon="-118.3938671">
  <ele>-20.369</ele>
  <time>2026-09-01T01:13:27Z</time>
  <course>186.23</course>
  <speed>0.022360679774997897</speed>
  <fix>3d</fix>
</trkpt>
<trkpt lat="33.8103132" lon="-118.3938671">
  <ele>-20.43</ele>
  <time>2026-09-01T01:13:27Z</time>
  <course>186.23</course>
  <speed>0.022360679774997897</speed>
  <fix>3d</fix>
</trkpt>
<trkpt lat="33.810313" lon="-118.393867">
  <ele>-19.8</ele>
  <time>2026-09-01T01:13:27Z</time>
  <course>0.0</course>
  <speed>0.0</speed>
  <fix>3d</fix>
</trkpt>
<trkpt lat="33.8103132" lon="-118.3938671">
  <ele>-20.431</ele>
  <time>2026-09-01T01:13:27Z</time>
  <course>186.23</course>
  <speed>0.022360679774997897</speed>
  <fix>3d</fix>
</trkpt>
<trkpt lat="33.8103132" lon="-118.3938671">
  <ele>-20.492</ele>
  <time>2026-09-01T01:13:27Z</time>
  <course>186.22</course>
  <speed>0.022360679774997897</speed>
  <fix>3d</fix>
</trkpt>
<trkpt lat="33.810313" lon="-118.393867">
  <ele>-19.8</ele>
  <time>2026-09-01T01:13:27Z</time>
  <course>0.0</course>
  <speed>0.0</speed>
  <fix>3d</fix>
</trkpt>
<trkpt lat="33.8103132" lon="-118.3938671">
  <ele>-20.493</ele>
  <time>2026-09-01T01:13:27Z</time>
  <course>186.22</course>
  <speed>0.022360679774997897</speed>
  <fix>3d</fix>
</trkpt>
<trkpt lat="33.8103132" lon="-118.3938671">
  <ele>-20.553</ele>
  <time>2026-09-01T01:13:27Z</time>
  <course>186.22</course>
  <speed>0.022360679774997897</speed>
  <fix>3d</fix>
</trkpt>
<trkpt lat="33.810313" lon="-118.393867">
  <ele>-19.92</ele>
  <time>2026-09-01T01:13:27Z</time>
  <course>0.0</course>
  <speed>0.0</speed>
  <fix>3d</fix>
</trkpt>
<trkpt lat="33.8103132" lon="-118.3938671">
  <ele>-20.573</ele>
  <time>2026-09-01T01:13:27Z</time>
  <course>186.22</course>
  <speed>0.022360679774997897</speed>
  <fix>3d</fix>
</trkpt>
<trkpt lat="33.8103132" lon="-118.3938671">
  <ele>-20.613</ele>
  <time>2026-09-01T01:13:27Z</time>
  <course>186.21</course>
  <speed>0.022360679774997897</speed>
  <fix>3d</fix>
</trkpt>
<trkpt lat="33.810313" lon="-118.393867">
  <ele>-19.92</ele>
  <time>2026-09-01T01:13:27Z</time>
  <course>0.0</course>
  <speed>0.0</speed>
  <fix>3d</fix>
</trkpt>
<trkpt lat="33.8103132" lon="-118.3938671">
  <ele>-20.633</ele>
  <time>2026-09-01T01:13:27Z</time>
  <course>186.21</course>
  <speed>0.022360679774997897</speed>
  <fix>3d</fix>
</trkpt>
<trkpt lat="33.8103132" lon="-118.3938671">
  <ele>-20.674</ele>
  <time>2026-09-01T01:13:27Z</time>
  <course>186.21</course>
  <speed>0.022360679774997897</speed>
  <fix>3d</fix>
</trkpt>
<trkpt lat="33.810313" lon="-118.393867">
  <ele>-20.04</ele>
  <time>2026-09-01T01:13:27Z</time>
  <course>0.0</course>
  <speed>0.0</speed>
  <fix>3d</fix>
</trkpt>
<trkpt lat="33.8103132" lon="-118.3938671">
  <ele>-20.696</ele>
  <time>2026-09-01T01:13:27Z</time>
  <course>186.21</course>
  <speed>0.022360679774997897</speed>
  <fix>3d</fix>
</trkpt>
<trkpt lat="33.8103132" lon="-118.3938671">
  <ele>-20.735</ele>
  <time>2026-09-01T01:13:27Z</time>
  <course>186.21</course>
  <speed>0.022360679774997897</speed>
  <fix>3d</fix>
</trkpt>
<trkpt lat="33.810313" lon="-118.393867">
  <ele>-20.04</ele>
  <time>2026-09-01T01:13:27Z</time>
  <course>0.0</course>
  <speed>0.0</speed>
  <fix>3d</fix>
</trkpt>
<trkpt lat="33.8103132" lon="-118.3938671">
  <ele>-20.757</ele>
  <time>2026-09-01T01:13:27Z</time>
  <course>186.2</course>
  <speed>0.022360679774997897</speed>
  <fix>3d</fix>
</trkpt>
<trkpt lat="33.8103132" lon="-118.3938671">
  <ele>-20.796</ele>
  <time>2026-09-01T01:13:27Z</time>
  <course>186.2</course>
  <speed>0.022360679774997897</speed>
  <fix>3d</fix>
</trkpt>
<trkpt lat="33.810313" lon="-118.393867">
  <ele>-20.16</ele>
  <time>2026-09-01T01:13:27Z</time>
  <course>0.0</course>
  <speed>0.0</speed>
  <fix>3d</fix>
</trkpt>
<trkpt lat="33.8103132" lon="-118.3938671">
  <ele>-20.824</ele>
  <time>2026-09-01T01:13:27Z</time>
  <course>186.2</course>
  <speed>0.022360679774997897</speed>
  <fix>3d</fix>
</trkpt>
<trkpt lat="33.8103132" lon="-118.3938671">
  <ele>-20.858</ele>
  <time>2026-09-01T01:13:27Z</time>
  <course>186.2</course>
  <speed>0.022360679774997897</speed>
  <fix>3d</fix>
</trkpt>
<trkpt lat="33.810313" lon="-118.393867">
  <ele>-20.16</ele>
  <time>2026-09-01T01:13:27Z</time>
  <course>0.0</course>
  <speed>0.0</speed>
  <fix>3d</fix>
</trkpt>
<trkpt lat="33.8103132" lon="-118.3938671">
  <ele>-20.883</ele>
  <time>2026-09-01T01:13:27Z</time>
  <course>186.2</course>
  <speed>0.022360679774997897</speed>
  <fix>3d</fix>
</trkpt>
<trkpt lat="33.8103132" lon="-118.3938671">
  <ele>-20.92</ele>
  <time>2026-09-01T01:13:27Z</time>
  <course>186.19</course>
  <speed>0.022360679774997897</speed>
  <fix>3d</fix>
</trkpt>
<trkpt lat="33.810313" lon="-118.393867">
  <ele>-20.27</ele>
  <time>2026-09-01T01:13:27Z</time>
  <course>0.0</course>
  <speed>0.0</speed>
  <fix>3d</fix>
</trkpt>
<trkpt lat="33.8103132" lon="-118.3938671">
  <ele>-20.941</ele>
  <time>2026-09-01T01:13:27Z</time>
  <course>186.19</course>
  <speed>0.022360679774997897</speed>
  <fix>3d</fix>
</trkpt>
<trkpt lat="33.8103132" lon="-118.3938671">
  <ele>-20.982</ele>
  <time>2026-09-01T01:13:27Z</time>
  <course>186.19</course>
  <speed>0.022360679774997897</speed>
  <fix>3d</fix>
</trkpt>
<trkpt lat="33.810313" lon="-118.393867">
  <ele>-20.27</ele>
  <time>2026-09-01T01:13:27Z</time>
  <course>0.0</course>
  <speed>0.0</speed>
  <fix>3d</fix>
</trkpt>
<trkpt lat="33.8103132" lon="-118.3938671">
  <ele>-21.004</ele>
  <time>2026-09-01T01:13:27Z</time>
  <course>186.19</course>
  <speed>0.022360679774997897</speed>
  <fix>3d</fix>
</trkpt>
<trkpt lat="33.8103132" lon="-118.3938671">
  <ele>-21.044</ele>
  <time>2026-09-01T01:13:27Z</time>
  <course>186.19</course>
  <speed>0.022360679774997897</speed>
  <fix>3d</fix>
</trkpt>
<trkpt lat="33.810313" lon="-118.393867">
  <ele>-20.4</ele>
  <time>2026-09-01T01:13:27Z</time>
  <course>0.0</course>
  <speed>0.0</speed>
  <fix>3d</fix>
</trkpt>
<trkpt lat="33.8103132" lon="-118.3938671">
  <ele>-21.063</ele>
  <time>2026-09-01T01:13:27Z</time>
  <course>186.19</course>
  <speed>0.022360679774997897</speed>
  <fix>3d</fix>
</trkpt>
<trkpt lat="33.8103132" lon="-118.3938671">
  <ele>-21.104</ele>
  <time>2026-09-01T01:13:27Z</time>
  <course>186.18</course>
  <speed>0.022360679774997897</speed>
  <fix>3d</fix>
</trkpt>
<trkpt lat="33.810313" lon="-118.393867">
  <ele>-20.4</ele>
  <time>2026-09-01T01:13:27Z</time>
  <course>0.0</course>
  <speed>0.0</speed>
  <fix>3d</fix>
</trkpt>
<trkpt lat="33.8103132" lon="-118.3938671">
  <ele>-21.106</ele>
  <time>2026-09-01T01:13:27Z</time>
  <course>186.18</course>
  <speed>0.022360679774997897</speed>
  <fix>3d</fix>
</trkpt>
<trkpt lat="33.8103132" lon="-118.3938671">
  <ele>-21.166</ele>
  <time>2026-09-01T01:13:27Z</time>
  <course>186.18</course>
  <speed>0.022360679774997897</speed>
  <fix>3d</fix>
</trkpt>
<trkpt lat="33.810313" lon="-118.393867">
  <ele>-20.52</ele>
  <time>2026-09-01T01:13:27Z</time>
  <course>0.0</course>
  <speed>0.0</speed>
  <fix>3d</fix>
</trkpt>
<trkpt lat="33.8103132" lon="-118.3938671">
  <ele>-21.189</ele>
  <time>2026-09-01T01:13:27Z</time>
  <course>186.18</course>
  <speed>0.022360679774997897</speed>
  <fix>3d</fix>
</trkpt>
<trkpt lat="33.8103132" lon="-118.3938671">
  <ele>-21.227</ele>
  <time>2026-09-01T01:13:27Z</time>
  <course>186.17</course>
  <speed>0.022360679774997897</speed>
  <fix>3d</fix>
</trkpt>
<trkpt lat="33.810313" lon="-118.393867">
  <ele>-20.52</ele>
  <time>2026-09-01T01:13:27Z</time>
  <course>0.0</course>
  <speed>0.0</speed>
  <fix>3d</fix>
</trkpt>
<trkpt lat="33.8103132" lon="-118.3938671">
  <ele>-21.247</ele>
  <time>2026-09-01T01:13:27Z</time>
  <course>186.17</course>
  <speed>0.022360679774997897</speed>
  <fix>3d</fix>
</trkpt>
<trkpt lat="33.8103132" lon="-118.3938671">
  <ele>-21.288</ele>
  <time>2026-09-01T01:13:27Z</time>
  <course>186.17</course>
  <speed>0.022360679774997897</speed>
  <fix>3d</fix>
</trkpt>
<trkpt lat="33.810313" lon="-118.393867">
  <ele>-20.65</ele>
  <time>2026-09-01T01:13:27Z</time>
  <course>0.0</course>
  <speed>0.0</speed>
  <fix>3d</fix>
</trkpt>
<trkpt lat="33.8103132" lon="-118.3938671">
  <ele>-21.311</ele>
  <time>2026-09-01T01:13:27Z</time>
  <course>186.17</course>
  <speed>0.022360679774997897</speed>
  <fix>3d</fix>
</trkpt>
<trkpt lat="33.8103132" lon="-118.3938671">
  <ele>-21.349</ele>
  <time>2026-09-01T01:13:27Z</time>
  <course>186.17</course>
  <speed>0.022360679774997897</speed>
  <fix>3d</fix>
</trkpt>
<trkpt lat="33.810313" lon="-118.393867">
  <ele>-20.65</ele>
  <time>2026-09-01T01:13:27Z</time>
  <course>0.0</course>
  <speed>0.0</speed>
  <fix>3d</fix>
</trkpt>
<trkpt lat="33.8103132" lon="-118.3938671">
  <ele>-21.368</ele>
  <time>2026-09-01T01:13:27Z</time>
  <course>186.17</course>
  <speed>0.022360679774997897</speed>
  <fix>3d</fix>
</trkpt>
<trkpt lat="33.8103132" lon="-118.3938671">
  <ele>-21.409</ele>
  <time>2026-09-01T01:13:27Z</time>
  <course>186.16</course>
  <speed>0.022360679774997897</speed>
  <fix>3d</fix>
</trkpt>
<trkpt lat="33.810313" lon="-118.393867">
  <ele>-20.77</ele>
  <time>2026-09-01T01:13:27Z</time>
  <course>0.0</course>
  <speed>0.0</speed>
  <fix>3d</fix>
</trkpt>
<trkpt lat="33.8103132" lon="-118.3938671">
  <ele>-21.427</ele>
  <time>2026-09-01T01:13:27Z</time>
  <course>186.16</course>
  <speed>0.022360679774997897</speed>
  <fix>3d</fix>
</trkpt>
<trkpt lat="33.8103132" lon="-118.3938671">
  <ele>-21.47</ele>
  <time>2026-09-01T01:13:27Z</time>
  <course>186.16</course>
  <speed>0.022360679774997897</speed>
  <fix>3d</fix>
</trkpt>
<trkpt lat="33.810313" lon="-118.393867">
  <ele>-20.77</ele>
  <time>2026-09-01T01:13:27Z</time>
  <course>0.0</course>
  <speed>0.0</speed>
  <fix>3d</fix>
</trkpt>
<trkpt lat="33.8103132" lon="-118.3938671">
  <ele>-21.488</ele>
  <time>2026-09-01T01:13:27Z</time>
  <course>186.16</course>
  <speed>0.022360679774997897</speed>
  <fix>3d</fix>
</trkpt>
<trkpt lat="33.8103132" lon="-118.3938671">
  <ele>-21.531</ele>
  <time>2026-09-01T01:13:27Z</time>
  <course>186.15</course>
  <speed>0.022360679774997897</speed>
  <fix>3d</fix>
</trkpt>
<trkpt lat="33.810313" lon="-118.393867">
  <ele>-20.89</ele>
  <time>2026-09-01T01:13:27Z</time>
  <course>0.0</course>
  <speed>0.0</speed>
  <fix>3d</fix>
</trkpt>
<trkpt lat="33.8103132" lon="-118.3938671">
  <ele>-21.553</ele>
  <time>2026-09-01T01:13:27Z</time>
  <course>186.15</course>
  <speed>0.022360679774997897</speed>
  <fix>3d</fix>
</trkpt>
<trkpt lat="33.8103132" lon="-118.3938671">
  <ele>-21.594</ele>
  <time>2026-09-01T01:13:27Z</time>
  <course>186.15</course>
  <speed>0.022360679774997897</speed>
  <fix>3d</fix>
</trkpt>
<trkpt lat="33.810313" lon="-118.393867">
  <ele>-20.89</ele>
  <time>2026-09-01T01:13:27Z</time>
  <course>0.0</course>
  <speed>0.0</speed>
  <fix>3d</fix>
</trkpt>
<trkpt lat="33.8103132" lon="-118.3938671">
  <ele>-21.595</ele>
  <time>2026-09-01T01:13:27Z</time>
  <course>186.15</course>
  <speed>0.022360679774997897</speed>
  <fix>3d</fix>
</trkpt>
<trkpt lat="33.8103132" lon="-118.3938671">
  <ele>-21.657</ele>
  <time>2026-09-01T01:13:27Z</time>
  <course>186.15</course>
  <speed>0.022360679774997897</speed>
  <fix>3d</fix>
</trkpt>
<trkpt lat="33.810313" lon="-118.393867">
  <ele>-21.01</ele>
  <time>2026-09-01T01:13:27Z</time>
  <course>0.0</course>
  <speed>0.0</speed>
  <fix>3d</fix>
</trkpt>
<trkpt lat="33.8103132" lon="-118.3938671">
  <ele>-21.659</ele>
  <time>2026-09-01T01:13:27Z</time>
  <course>186.15</course>
  <speed>0.022360679774997897</speed>
  <fix>3d</fix>
</trkpt>
<trkpt lat="33.8103132" lon="-118.3938671">
  <ele>-21.72</ele>
  <time>2026-09-01T01:13:27Z</time>
  <course>186.14</course>
  <speed>0.022360679774997897</speed>
  <fix>3d</fix>
</trkpt>
<trkpt lat="33.810313" lon="-118.393867">
  <ele>-21.01</ele>
  <time>2026-09-01T01:13:27Z</time>
  <course>0.0</course>
  <speed>0.0</speed>
  <fix>3d</fix>
</trkpt>
<trkpt lat="33.8103132" lon="-118.3938671">
  <ele>-21.722</ele>
  <time>2026-09-01T01:13:27Z</time>
  <course>186.14</course>
  <speed>0.022360679774997897</speed>
  <fix>3d</fix>
</trkpt>
<trkpt lat="33.8103132" lon="-118.3938671">
  <ele>-21.784</ele>
  <time>2026-09-01T01:13:27Z</time>
  <course>186.14</course>
  <speed>0.022360679774997897</speed>
  <fix>3d</fix>
</trkpt>
<trkpt lat="33.810313" lon="-118.393867">
  <ele>-21.13</ele>
  <time>2026-09-01T01:13:27Z</time>
  <course>0.0</course>
  <speed>0.0</speed>
  <fix>3d</fix>
</trkpt>
<trkpt lat="33.8103132" lon="-118.3938671">
  <ele>-21.786</ele>
  <time>2026-09-01T01:13:27Z</time>
  <course>186.14</course>
  <speed>0.022360679774997897</speed>
  <fix>3d</fix>
</trkpt>
<trkpt lat="33.8103132" lon="-118.3938671">
  <ele>-21.848</ele>
  <time>2026-09-01T01:13:27Z</time>
  <course>186.13</course>
  <speed>0.022360679774997897</speed>
  <fix>3d</fix>
</trkpt>
<trkpt lat="33.810313" lon="-118.393867">
  <ele>-21.13</ele>
  <time>2026-09-01T01:13:27Z</time>
  <course>0.0</course>
  <speed>0.0</speed>
  <fix>3d</fix>
</trkpt>
<trkpt lat="33.8103132" lon="-118.3938671">
  <ele>-21.868</ele>
  <time>2026-09-01T01:13:27Z</time>
  <course>186.13</course>
  <speed>0.022360679774997897</speed>
  <fix>3d</fix>
</trkpt>
<trkpt lat="33.8103132" lon="-118.3938671">
  <ele>-21.911</ele>
  <time>2026-09-01T01:13:27Z</time>
  <course>186.13</course>
  <speed>0.022360679774997897</speed>
  <fix>3d</fix>
</trkpt>
<trkpt lat="33.810313" lon="-118.393867">
  <ele>-21.25</ele>
  <time>2026-09-01T01:13:27Z</time>
  <course>0.0</course>
  <speed>0.0</speed>
  <fix>3d</fix>
</trkpt>
<trkpt lat="33.8103132" lon="-118.3938671">
  <ele>-21.931</ele>
  <time>2026-09-01T01:13:27Z</time>
  <course>186.13</course>
  <speed>0.022360679774997897</speed>
  <fix>3d</fix>
</trkpt>
<trkpt lat="33.8103132" lon="-118.3938671">
  <ele>-21.974</ele>
  <time>2026-09-01T01:13:27Z</time>
  <course>186.13</course>
  <speed>0.022360679774997897</speed>
  <fix>3d</fix>
</trkpt>
<trkpt lat="33.810313" lon="-118.393867">
  <ele>-21.25</ele>
  <time>2026-09-01T01:13:27Z</time>
  <course>0.0</course>
  <speed>0.0</speed>
  <fix>3d</fix>
</trkpt>
<trkpt lat="33.8103132" lon="-118.3938671">
  <ele>-21.993</ele>
  <time>2026-09-01T01:13:27Z</time>
  <course>186.13</course>
  <speed>0.022360679774997897</speed>
  <fix>3d</fix>
</trkpt>
<trkpt lat="33.8103132" lon="-118.3938671">
  <ele>-22.037</ele>
  <time>2026-09-01T01:13:27Z</time>
  <course>186.12</course>
  <speed>0.022360679774997897</speed>
  <fix>3d</fix>
</trkpt>
<trkpt lat="33.810313" lon="-118.393867">
  <ele>-21.36</ele>
  <time>2026-09-01T01:13:27Z</time>
  <course>0.0</course>
  <speed>0.0</speed>
  <fix>3d</fix>
</trkpt>
<trkpt lat="33.8103132" lon="-118.3938671">
  <ele>-22.063</ele>
  <time>2026-09-01T01:13:27Z</time>
  <course>186.12</course>
  <speed>0.022360679774997897</speed>
  <fix>3d</fix>
</trkpt>
<trkpt lat="33.8103132" lon="-118.3938671">
  <ele>-22.1</ele>
  <time>2026-09-01T01:13:27Z</time>
  <course>186.12</course>
  <speed>0.022360679774997897</speed>
  <fix>3d</fix>
</trkpt>
<trkpt lat="33.810313" lon="-118.393867">
  <ele>-21.36</ele>
  <time>2026-09-01T01:13:27Z</time>
  <course>0.0</course>
  <speed>0.0</speed>
  <fix>3d</fix>
</trkpt>
<trkpt lat="33.8103132" lon="-118.3938671">
  <ele>-22.122</ele>
  <time>2026-09-01T01:13:27Z</time>
  <course>186.12</course>
  <speed>0.022360679774997897</speed>
  <fix>3d</fix>
</trkpt>
<trkpt lat="33.8103132" lon="-118.3938671">
  <ele>-22.163</ele>
  <time>2026-09-01T01:13:27Z</time>
  <course>186.11</course>
  <speed>0.022360679774997897</speed>
  <fix>3d</fix>
</trkpt>
<trkpt lat="33.810313" lon="-118.393867">
  <ele>-21.49</ele>
  <time>2026-09-01T01:13:27Z</time>
  <course>0.0</course>
  <speed>0.0</speed>
  <fix>3d</fix>
</trkpt>
<trkpt lat="33.8103132" lon="-118.3938671">
  <ele>-22.187</ele>
  <time>2026-09-01T01:13:27Z</time>
  <course>186.11</course>
  <speed>0.022360679774997897</speed>
  <fix>3d</fix>
</trkpt>
<trkpt lat="33.8103132" lon="-118.3938671">
  <ele>-22.225</ele>
  <time>2026-09-01T01:13:27Z</time>
  <course>186.11</course>
  <speed>0.022360679774997897</speed>
  <fix>3d</fix>
</trkpt>
<trkpt lat="33.810313" lon="-118.393867">
  <ele>-21.49</ele>
  <time>2026-09-01T01:13:27Z</time>
  <course>0.0</course>
  <speed>0.0</speed>
  <fix>3d</fix>
</trkpt>
<trkpt lat="33.8103132" lon="-118.3938671">
  <ele>-22.245</ele>
  <time>2026-09-01T01:13:27Z</time>
  <course>186.11</course>
  <speed>0.022360679774997897</speed>
  <fix>3d</fix>
</trkpt>
<trkpt lat="33.8103132" lon="-118.3938671">
  <ele>-22.286</ele>
  <time>2026-09-01T01:13:27Z</time>
  <course>186.1</course>
  <speed>0.022360679774997897</speed>
  <fix>3d</fix>
</trkpt>
<trkpt lat="33.810313" lon="-118.393867">
  <ele>-21.61</ele>
  <time>2026-09-01T01:13:27Z</time>
  <course>0.0</course>
  <speed>0.0</speed>
  <fix>3d</fix>
</trkpt>
<trkpt lat="33.8103132" lon="-118.3938671">
  <ele>-22.306</ele>
  <time>2026-09-01T01:13:27Z</time>
  <course>186.1</course>
  <speed>0.022360679774997897</speed>
  <fix>3d</fix>
</trkpt>
<trkpt lat="33.8103132" lon="-118.3938671">
  <ele>-22.346</ele>
  <time>2026-09-01T01:13:27Z</time>
  <course>186.1</course>
  <speed>0.022360679774997897</speed>
  <fix>3d</fix>
</trkpt>
<trkpt lat="33.810313" lon="-118.393867">
  <ele>-21.61</ele>
  <time>2026-09-01T01:13:27Z</time>
  <course>0.0</course>
  <speed>0.0</speed>
  <fix>3d</fix>
</trkpt>
<trkpt lat="33.8103132" lon="-118.3938671">
  <ele>-22.365</ele>
  <time>2026-09-01T01:13:27Z</time>
  <course>186.1</course>
  <speed>0.022360679774997897</speed>
  <fix>3d</fix>
</trkpt>
<trkpt lat="33.8103132" lon="-118.3938671">
  <ele>-22.406</ele>
  <time>2026-09-01T01:13:27Z</time>
  <course>186.1</course>
  <speed>0.022360679774997897</speed>
  <fix>3d</fix>
</trkpt>
<trkpt lat="33.810313" lon="-118.393867">
  <ele>-21.73</ele>
  <time>2026-09-01T01:13:27Z</time>
  <course>0.0</course>
  <speed>0.0</speed>
  <fix>3d</fix>
</trkpt>
<trkpt lat="33.8103132" lon="-118.3938671">
  <ele>-22.426</ele>
  <time>2026-09-01T01:13:27Z</time>
  <course>186.1</course>
  <speed>0.022360679774997897</speed>
  <fix>3d</fix>
</trkpt>
<trkpt lat="33.8103132" lon="-118.3938671">
  <ele>-22.465</ele>
  <time>2026-09-01T01:13:27Z</time>
  <course>186.09</course>
  <speed>0.022360679774997897</speed>
  <fix>3d</fix>
</trkpt>
<trkpt lat="33.810313" lon="-118.393867">
  <ele>-21.73</ele>
  <time>2026-09-01T01:13:27Z</time>
  <course>0.0</course>
  <speed>0.0</speed>
  <fix>3d</fix>
</trkpt>
<trkpt lat="33.8103132" lon="-118.3938671">
  <ele>-22.467</ele>
  <time>2026-09-01T01:13:27Z</time>
  <course>186.09</course>
  <speed>0.022360679774997897</speed>
  <fix>3d</fix>
</trkpt>
<trkpt lat="33.8103132" lon="-118.3938671">
  <ele>-22.525</ele>
  <time>2026-09-01T01:13:27Z</time>
  <course>186.09</course>
  <speed>0.022360679774997897</speed>
  <fix>3d</fix>
</trkpt>
<trkpt lat="33.810313" lon="-118.393867">
  <ele>-21.85</ele>
  <time>2026-09-01T01:13:27Z</time>
  <course>0.0</course>
  <speed>0.0</speed>
  <fix>3d</fix>
</trkpt>
<trkpt lat="33.8103132" lon="-118.3938671">
  <ele>-22.544</ele>
  <time>2026-09-01T01:13:27Z</time>
  <course>186.09</course>
  <speed>0.022360679774997897</speed>
  <fix>3d</fix>
</trkpt>
<trkpt lat="33.8103132" lon="-118.3938671">
  <ele>-22.585</ele>
  <time>2026-09-01T01:13:27Z</time>
  <course>186.08</course>
  <speed>0.022360679774997897</speed>
  <fix>3d</fix>
</trkpt>
<trkpt lat="33.810313" lon="-118.393867">
  <ele>-21.85</ele>
  <time>2026-09-01T01:13:27Z</time>
  <course>0.0</course>
  <speed>0.0</speed>
  <fix>3d</fix>
</trkpt>
<trkpt lat="33.8103132" lon="-118.3938671">
  <ele>-22.609</ele>
  <time>2026-09-01T01:13:27Z</time>
  <course>186.08</course>
  <speed>0.022360679774997897</speed>
  <fix>3d</fix>
</trkpt>
<trkpt lat="33.8103132" lon="-118.3938671">
  <ele>-22.645</ele>
  <time>2026-09-01T01:13:27Z</time>
  <course>186.08</course>
  <speed>0.022360679774997897</speed>
  <fix>3d</fix>
</trkpt>
<trkpt lat="33.810313" lon="-118.393867">
  <ele>-21.97</ele>
  <time>2026-09-01T01:13:27Z</time>
  <course>0.0</course>
  <speed>0.0</speed>
  <fix>3d</fix>
</trkpt>
<trkpt lat="33.8103132" lon="-118.3938671">
  <ele>-22.646</ele>
  <time>2026-09-01T01:13:27Z</time>
  <course>186.08</course>
  <speed>0.022360679774997897</speed>
  <fix>3d</fix>
</trkpt>
<trkpt lat="33.8103132" lon="-118.3938671">
  <ele>-22.706</ele>
  <time>2026-09-01T01:13:27Z</time>
  <course>186.08</course>
  <speed>0.022360679774997897</speed>
  <fix>3d</fix>
</trkpt>
<trkpt lat="33.810313" lon="-118.393867">
  <ele>-21.97</ele>
  <time>2026-09-01T01:13:27Z</time>
  <course>0.0</course>
  <speed>0.0</speed>
  <fix>3d</fix>
</trkpt>
<trkpt lat="33.8103132" lon="-118.3938671">
  <ele>-22.725</ele>
  <time>2026-09-01T01:13:27Z</time>
  <course>186.07</course>
  <speed>0.022360679774997897</speed>
  <fix>3d</fix>
</trkpt>
<trkpt lat="33.8103132" lon="-118.3938671">
  <ele>-22.767</ele>
  <time>2026-09-01T01:13:27Z</time>
  <course>186.07</course>
  <speed>0.022360679774997897</speed>
  <fix>3d</fix>
</trkpt>
<trkpt lat="33.810313" lon="-118.393867">
  <ele>-22.09</ele>
  <time>2026-09-01T01:13:27Z</time>
  <course>0.0</course>
  <speed>0.0</speed>
  <fix>3d</fix>
</trkpt>
<trkpt lat="33.8103132" lon="-118.3938671">
  <ele>-22.786</ele>
  <time>2026-09-01T01:13:27Z</time>
  <course>186.07</course>
  <speed>0.022360679774997897</speed>
  <fix>3d</fix>
</trkpt>
<trkpt lat="33.8103132" lon="-118.3938671">
  <ele>-22.828</ele>
  <time>2026-09-01T01:13:27Z</time>
  <course>186.07</course>
  <speed>0.022360679774997897</speed>
  <fix>3d</fix>
</trkpt>
<trkpt lat="33.810313" lon="-118.393867">
  <ele>-22.09</ele>
  <time>2026-09-01T01:13:27Z</time>
  <course>0.0</course>
  <speed>0.0</speed>
  <fix>3d</fix>
</trkpt>
<trkpt lat="33.8103132" lon="-118.3938671">
  <ele>-22.848</ele>
  <time>2026-09-01T01:13:27Z</time>
  <course>186.07</course>
  <speed>0.022360679774997897</speed>
  <fix>3d</fix>
</trkpt>
<trkpt lat="33.8103132" lon="-118.3938671">
  <ele>-22.89</ele>
  <time>2026-09-01T01:13:27Z</time>
  <course>186.06</course>
  <speed>0.022360679774997897</speed>
  <fix>3d</fix>
</trkpt>
<trkpt lat="33.810313" lon="-118.393867">
  <ele>-22.21</ele>
  <time>2026-09-01T01:13:27Z</time>
  <course>0.0</course>
  <speed>0.0</speed>
  <fix>3d</fix>
</trkpt>
<trkpt lat="33.8103132" lon="-118.3938671">
  <ele>-22.911</ele>
  <time>2026-09-01T01:13:27Z</time>
  <course>186.06</course>
  <speed>0.022360679774997897</speed>
  <fix>3d</fix>
</trkpt>
<trkpt lat="33.8103132" lon="-118.3938671">
  <ele>-22.95</ele>
  <time>2026-09-01T01:13:27Z</time>
  <course>186.06</course>
  <speed>0.022360679774997897</speed>
  <fix>3d</fix>
</trkpt>
<trkpt lat="33.810313" lon="-118.393867">
  <ele>-22.21</ele>
  <time>2026-09-01T01:13:27Z</time>
  <course>0.0</course>
  <speed>0.0</speed>
  <fix>3d</fix>
</trkpt>
<trkpt lat="33.8103132" lon="-118.3938671">
  <ele>-22.952</ele>
  <time>2026-09-01T01:13:27Z</time>
  <course>186.06</course>
  <speed>0.022360679774997897</speed>
  <fix>3d</fix>
</trkpt>
<trkpt lat="33.8103132" lon="-118.3938671">
  <ele>-23.011</ele>
  <time>2026-09-01T01:13:27Z</time>
  <course>186.05</course>
  <speed>0.022360679774997897</speed>
  <fix>3d</fix>
</trkpt>
<trkpt lat="33.810313" lon="-118.393867">
  <ele>-22.34</ele>
  <time>2026-09-01T01:13:27Z</time>
  <course>0.0</course>
  <speed>0.0</speed>
  <fix>3d</fix>
</trkpt>
<trkpt lat="33.8103132" lon="-118.3938671">
  <ele>-23.032</ele>
  <time>2026-09-01T01:13:27Z</time>
  <course>186.05</course>
  <speed>0.022360679774997897</speed>
  <fix>3d</fix>
</trkpt>
<trkpt lat="33.8103132" lon="-118.3938671">
  <ele>-23.072</ele>
  <time>2026-09-01T01:13:27Z</time>
  <course>186.05</course>
  <speed>0.022360679774997897</speed>
  <fix>3d</fix>
</trkpt>
<trkpt lat="33.810313" lon="-118.393867">
  <ele>-22.34</ele>
  <time>2026-09-01T01:13:27Z</time>
  <course>0.0</course>
  <speed>0.0</speed>
  <fix>3d</fix>
</trkpt>
<trkpt lat="33.8103132" lon="-118.3938671">
  <ele>-23.093</ele>
  <time>2026-09-01T01:13:27Z</time>
  <course>186.05</course>
  <speed>0.022360679774997897</speed>
  <fix>3d</fix>
</trkpt>
<trkpt lat="33.8103132" lon="-118.3938671">
  <ele>-23.132</ele>
  <time>2026-09-01T01:13:27Z</time>
  <course>186.05</course>
  <speed>0.022360679774997897</speed>
  <fix>3d</fix>
</trkpt>
<trkpt lat="33.810313" lon="-118.393867">
  <ele>-22.46</ele>
  <time>2026-09-01T01:13:27Z</time>
  <course>0.0</course>
  <speed>0.0</speed>
  <fix>3d</fix>
</trkpt>
<trkpt lat="33.8103132" lon="-118.3938671">
  <ele>-23.134</ele>
  <time>2026-09-01T01:13:27Z</time>
  <course>186.05</course>
  <speed>0.022360679774997897</speed>
  <fix>3d</fix>
</trkpt>
<trkpt lat="33.8103132" lon="-118.3938671">
  <ele>-23.193</ele>
  <time>2026-09-01T01:13:27Z</time>
  <course>186.04</course>
  <speed>0.022360679774997897</speed>
  <fix>3d</fix>
</trkpt>
<trkpt lat="33.810313" lon="-118.393867">
  <ele>-22.46</ele>
  <time>2026-09-01T01:13:27Z</time>
  <course>0.0</course>
  <speed>0.0</speed>
  <fix>3d</fix>
</trkpt>
<trkpt lat="33.8103132" lon="-118.3938671">
  <ele>-23.213</ele>
  <time>2026-09-01T01:13:27Z</time>
  <course>186.04</course>
  <speed>0.022360679774997897</speed>
  <fix>3d</fix>
</trkpt>
<trkpt lat="33.8103132" lon="-118.3938671">
  <ele>-23.255</ele>
  <time>2026-09-01T01:13:27Z</time>
  <course>186.04</course>
  <speed>0.022360679774997897</speed>
  <fix>3d</fix>
</trkpt>
<trkpt lat="33.810313" lon="-118.393867">
  <ele>-22.58</ele>
  <time>2026-09-01T01:13:27Z</time>
  <course>0.0</course>
  <speed>0.0</speed>
  <fix>3d</fix>
</trkpt>
<trkpt lat="33.8103132" lon="-118.3938671">
  <ele>-23.256</ele>
  <time>2026-09-01T01:13:27Z</time>
  <course>186.04</course>
  <speed>0.022360679774997897</speed>
  <fix>3d</fix>
</trkpt>
<trkpt lat="33.8103132" lon="-118.3938671">
  <ele>-23.317</ele>
  <time>2026-09-01T01:13:27Z</time>
  <course>186.03</course>
  <speed>0.022360679774997897</speed>
  <fix>3d</fix>
</trkpt>
<trkpt lat="33.810313" lon="-118.393867">
  <ele>-22.58</ele>
  <time>2026-09-01T01:13:27Z</time>
  <course>0.0</course>
  <speed>0.0</speed>
  <fix>3d</fix>
</trkpt>
<trkpt lat="33.8103132" lon="-118.3938671">
  <ele>-23.318</ele>
  <time>2026-09-01T01:13:27Z</time>
  <course>186.03</course>
  <speed>0.022360679774997897</speed>
  <fix>3d</fix>
</trkpt>
<trkpt lat="33.8103132" lon="-118.3938671">
  <ele>-23.378</ele>
  <time>2026-09-01T01:13:27Z</time>
  <course>186.03</course>
  <speed>0.022360679774997897</speed>
  <fix>3d</fix>
</trkpt>
<trkpt lat="33.810313" lon="-118.393867">
  <ele>-22.7</ele>
  <time>2026-09-01T01:13:27Z</time>
  <course>0.0</course>
  <speed>0.0</speed>
  <fix>3d</fix>
</trkpt>
<trkpt lat="33.8103132" lon="-118.3938671">
  <ele>-23.383</ele>
  <time>2026-09-01T01:13:27Z</time>
  <course>186.03</course>
  <speed>0.022360679774997897</speed>
  <fix>3d</fix>
</trkpt>
<trkpt lat="33.8103132" lon="-118.3938671">
  <ele>-23.44</ele>
  <time>2026-09-01T01:13:27Z</time>
  <course>186.03</course>
  <speed>0.022360679774997897</speed>
  <fix>3d</fix>
</trkpt>
<trkpt lat="33.810313" lon="-118.393867">
  <ele>-22.7</ele>
  <time>2026-09-01T01:13:27Z</time>
  <course>0.0</course>
  <speed>0.0</speed>
  <fix>3d</fix>
</trkpt>
<trkpt lat="33.8103132" lon="-118.3938671">
  <ele>-23.459</ele>
  <time>2026-09-01T01:13:27Z</time>
  <course>186.02</course>
  <speed>0.022360679774997897</speed>
  <fix>3d</fix>
</trkpt>
<trkpt lat="33.8103132" lon="-118.3938671">
  <ele>-23.501</ele>
  <time>2026-09-01T01:13:27Z</time>
  <course>186.02</course>
  <speed>0.022360679774997897</speed>
  <fix>3d</fix>
</trkpt>
<trkpt lat="33.810313" lon="-118.393867">
  <ele>-22.82</ele>
  <time>2026-09-01T01:13:27Z</time>
  <course>0.0</course>
  <speed>0.0</speed>
  <fix>3d</fix>
</trkpt>
<trkpt lat="33.8103132" lon="-118.3938671">
  <ele>-23.521</ele>
  <time>2026-09-01T01:13:27Z</time>
  <course>186.02</course>
  <speed>0.022360679774997897</speed>
  <fix>3d</fix>
</trkpt>
<trkpt lat="33.8103132" lon="-118.3938671">
  <ele>-23.563</ele>
  <time>2026-09-01T01:13:27Z</time>
  <course>186.02</course>
  <speed>0.022360679774997897</speed>
  <fix>3d</fix>
</trkpt>
<trkpt lat="33.810313" lon="-118.393867">
  <ele>-22.82</ele>
  <time>2026-09-01T01:13:27Z</time>
  <course>0.0</course>
  <speed>0.0</speed>
  <fix>3d</fix>
</trkpt>
<trkpt lat="33.8103132" lon="-118.3938671">
  <ele>-23.564</ele>
  <time>2026-09-01T01:13:27Z</time>
  <course>186.02</course>
  <speed>0.022360679774997897</speed>
  <fix>3d</fix>
</trkpt>
<trkpt lat="33.8103132" lon="-118.3938671">
  <ele>-23.625</ele>
  <time>2026-09-01T01:13:27Z</time>
  <course>186.01</course>
  <speed>0.022360679774997897</speed>
  <fix>3d</fix>
</trkpt>
<trkpt lat="33.810313" lon="-118.393867">
  <ele>-22.93</ele>
  <time>2026-09-01T01:13:27Z</time>
  <course>0.0</course>
  <speed>0.0</speed>
  <fix>3d</fix>
</trkpt>
<trkpt lat="33.8103132" lon="-118.3938671">
  <ele>-23.648</ele>
  <time>2026-09-01T01:13:27Z</time>
  <course>186.01</course>
  <speed>0.022360679774997897</speed>
  <fix>3d</fix>
</trkpt>
<trkpt lat="33.8103132" lon="-118.3938671">
  <ele>-23.687</ele>
  <time>2026-09-01T01:13:27Z</time>
  <course>186.01</course>
  <speed>0.022360679774997897</speed>
  <fix>3d</fix>
</trkpt>
<trkpt lat="33.810313" lon="-118.393867">
  <ele>-22.93</ele>
  <time>2026-09-01T01:13:27Z</time>
  <course>0.0</course>
  <speed>0.0</speed>
  <fix>3d</fix>
</trkpt>
<trkpt lat="33.8103132" lon="-118.3938671">
  <ele>-23.707</ele>
  <time>2026-09-01T01:13:27Z</time>
  <course>186.01</course>
  <speed>0.022360679774997897</speed>
  <fix>3d</fix>
</trkpt>
<trkpt lat="33.8103132" lon="-118.3938671">
  <ele>-23.749</ele>
  <time>2026-09-01T01:13:27Z</time>
  <course>186.0</course>
  <speed>0.022360679774997897</speed>
  <fix>3d</fix>
</trkpt>
<trkpt lat="33.810313" lon="-118.393867">
  <ele>-23.06</ele>
  <time>2026-09-01T01:13:27Z</time>
  <course>0.0</course>
  <speed>0.0</speed>
  <fix>3d</fix>
</trkpt>
<trkpt lat="33.8103132" lon="-118.3938671">
  <ele>-23.769</ele>
  <time>2026-09-01T01:13:27Z</time>
  <course>186.0</course>
  <speed>0.022360679774997897</speed>
  <fix>3d</fix>
</trkpt>
<trkpt lat="33.8103132" lon="-118.3938671">
  <ele>-23.811</ele>
  <time>2026-09-01T01:13:27Z</time>
  <course>186.0</course>
  <speed>0.022360679774997897</speed>
  <fix>3d</fix>
</trkpt>
<trkpt lat="33.810313" lon="-118.393867">
  <ele>-23.06</ele>
  <time>2026-09-01T01:13:27Z</time>
  <course>0.0</course>
  <speed>0.0</speed>
  <fix>3d</fix>
</trkpt>
<trkpt lat="33.8103132" lon="-118.3938671">
  <ele>-23.813</ele>
  <time>2026-09-01T01:13:27Z</time>
  <course>186.0</course>
  <speed>0.022360679774997897</speed>
  <fix>3d</fix>
</trkpt>
<trkpt lat="33.8103132" lon="-118.3938671">
  <ele>-23.873</ele>
  <time>2026-09-01T01:13:27Z</time>
  <course>186.0</course>
  <speed>0.022360679774997897</speed>
  <fix>3d</fix>
</trkpt>
<trkpt lat="33.810313" lon="-118.393867">
  <ele>-23.18</ele>
  <time>2026-09-01T01:13:27Z</time>
  <course>0.0</course>
  <speed>0.0</speed>
  <fix>3d</fix>
</trkpt>
<trkpt lat="33.8103132" lon="-118.3938671">
  <ele>-23.875</ele>
  <time>2026-09-01T01:13:27Z</time>
  <course>186.0</course>
  <speed>0.022360679774997897</speed>
  <fix>3d</fix>
</trkpt>
<trkpt lat="33.8103132" lon="-118.3938671">
  <ele>-23.936</ele>
  <time>2026-09-01T01:13:27Z</time>
  <course>185.99</course>
  <speed>0.022360679774997897</speed>
  <fix>3d</fix>
</trkpt>
<trkpt lat="33.810313" lon="-118.393867">
  <ele>-23.18</ele>
  <time>2026-09-01T01:13:27Z</time>
  <course>0.0</course>
  <speed>0.0</speed>
  <fix>3d</fix>
</trkpt>
<trkpt lat="33.8103132" lon="-118.3938671">
  <ele>-23.958</ele>
  <time>2026-09-01T01:13:27Z</time>
  <course>185.99</course>
  <speed>0.022360679774997897</speed>
  <fix>3d</fix>
</trkpt>
<trkpt lat="33.8103132" lon="-118.3938671">
  <ele>-23.998</ele>
  <time>2026-09-01T01:13:27Z</time>
  <course>185.99</course>
  <speed>0.022360679774997897</speed>
  <fix>3d</fix>
</trkpt>
<trkpt lat="33.810313" lon="-118.393867">
  <ele>-23.3</ele>
  <time>2026-09-01T01:13:27Z</time>
  <course>0.0</course>
  <speed>0.0</speed>
  <fix>3d</fix>
</trkpt>
<trkpt lat="33.8103132" lon="-118.3938671">
  <ele>-24.02</ele>
  <time>2026-09-01T01:13:27Z</time>
  <course>185.99</course>
  <speed>0.022360679774997897</speed>
  <fix>3d</fix>
</trkpt>
<trkpt lat="33.8103132" lon="-118.3938671">
  <ele>-24.059</ele>
  <time>2026-09-01T01:13:27Z</time>
  <course>185.98</course>
  <speed>0.022360679774997897</speed>
  <fix>3d</fix>
</trkpt>
<trkpt lat="33.810313" lon="-118.393867">
  <ele>-23.3</ele>
  <time>2026-09-01T01:13:27Z</time>
  <course>0.0</course>
  <speed>0.0</speed>
  <fix>3d</fix>
</trkpt>
<trkpt lat="33.8103132" lon="-118.3938671">
  <ele>-24.081</ele>
  <time>2026-09-01T01:13:27Z</time>
  <course>185.98</course>
  <speed>0.022360679774997897</speed>
  <fix>3d</fix>
</trkpt>
<trkpt lat="33.8103132" lon="-118.3938671">
  <ele>-24.121</ele>
  <time>2026-09-01T01:13:27Z</time>
  <course>185.98</course>
  <speed>0.022360679774997897</speed>
  <fix>3d</fix>
</trkpt>
<trkpt lat="33.810313" lon="-118.393867">
  <ele>-23.42</ele>
  <time>2026-09-01T01:13:27Z</time>
  <course>0.0</course>
  <speed>0.0</speed>
  <fix>3d</fix>
</trkpt>
<trkpt lat="33.8103132" lon="-118.3938671">
  <ele>-24.141</ele>
  <time>2026-09-01T01:13:27Z</time>
  <course>185.98</course>
  <speed>0.022360679774997897</speed>
  <fix>3d</fix>
</trkpt>
<trkpt lat="33.8103132" lon="-118.3938671">
  <ele>-24.184</ele>
  <time>2026-09-01T01:13:27Z</time>
  <course>185.97</course>
  <speed>0.022360679774997897</speed>
  <fix>3d</fix>
</trkpt>
<trkpt lat="33.810313" lon="-118.393867">
  <ele>-23.42</ele>
  <time>2026-09-01T01:13:27Z</time>
  <course>0.0</course>
  <speed>0.0</speed>
  <fix>3d</fix>
</trkpt>
<trkpt lat="33.8103132" lon="-118.3938671">
  <ele>-24.185</ele>
  <time>2026-09-01T01:13:27Z</time>
  <course>185.97</course>
  <speed>0.022360679774997897</speed>
  <fix>3d</fix>
</trkpt>
<trkpt lat="33.8103132" lon="-118.3938671">
  <ele>-24.246</ele>
  <time>2026-09-01T01:13:27Z</time>
  <course>185.97</course>
  <speed>0.022360679774997897</speed>
  <fix>3d</fix>
</trkpt>
<trkpt lat="33.810313" lon="-118.393867">
  <ele>-23.54</ele>
  <time>2026-09-01T01:13:27Z</time>
  <course>0.0</course>
  <speed>0.0</speed>
  <fix>3d</fix>
</trkpt>
<trkpt lat="33.8103132" lon="-118.3938671">
  <ele>-24.27</ele>
  <time>2026-09-01T01:13:27Z</time>
  <course>185.97</course>
  <speed>0.022360679774997897</speed>
  <fix>3d</fix>
</trkpt>
<trkpt lat="33.8103132" lon="-118.3938671">
  <ele>-24.309</ele>
  <time>2026-09-01T01:13:27Z</time>
  <course>185.97</course>
  <speed>0.022360679774997897</speed>
  <fix>3d</fix>
</trkpt>
<trkpt lat="33.810313" lon="-118.393867">
  <ele>-23.54</ele>
  <time>2026-09-01T01:13:27Z</time>
  <course>0.0</course>
  <speed>0.0</speed>
  <fix>3d</fix>
</trkpt>
<trkpt lat="33.8103132" lon="-118.3938671">
  <ele>-24.33</ele>
  <time>2026-09-01T01:13:27Z</time>
  <course>185.97</course>
  <speed>0.022360679774997897</speed>
  <fix>3d</fix>
</trkpt>
<trkpt lat="33.8103132" lon="-118.3938671">
  <ele>-24.372</ele>
  <time>2026-09-01T01:13:27Z</time>
  <course>185.96</course>
  <speed>0.022360679774997897</speed>
  <fix>3d</fix>
</trkpt>
<trkpt lat="33.810313" lon="-118.393867">
  <ele>-23.66</ele>
  <time>2026-09-01T01:13:27Z</time>
  <course>0.0</course>
  <speed>0.0</speed>
  <fix>3d</fix>
</trkpt>
<trkpt lat="33.8103132" lon="-118.3938671">
  <ele>-24.392</ele>
  <time>2026-09-01T01:13:27Z</time>
  <course>185.96</course>
  <speed>0.022360679774997897</speed>
  <fix>3d</fix>
</trkpt>
<trkpt lat="33.8103132" lon="-118.3938671">
  <ele>-24.433</ele>
  <time>2026-09-01T01:13:27Z</time>
  <course>185.96</course>
  <speed>0.022360679774997897</speed>
  <fix>3d</fix>
</trkpt>
<trkpt lat="33.810313" lon="-118.393867">
  <ele>-23.66</ele>
  <time>2026-09-01T01:13:27Z</time>
  <course>0.0</course>
  <speed>0.0</speed>
  <fix>3d</fix>
</trkpt>
<trkpt lat="33.8103132" lon="-118.3938671">
  <ele>-24.453</ele>
  <time>2026-09-01T01:13:27Z</time>
  <course>185.96</course>
  <speed>0.022360679774997897</speed>
  <fix>3d</fix>
</trkpt>
<trkpt lat="33.8103132" lon="-118.3938671">
  <ele>-24.495</ele>
  <time>2026-09-01T01:13:27Z</time>
  <course>185.95</course>
  <speed>0.022360679774997897</speed>
  <fix>3d</fix>
</trkpt>
<trkpt lat="33.810313" lon="-118.393867">
  <ele>-23.77</ele>
  <time>2026-09-01T01:13:27Z</time>
  <course>0.0</course>
  <speed>0.0</speed>
  <fix>3d</fix>
</trkpt>
<trkpt lat="33.8103132" lon="-118.3938671">
  <ele>-24.496</ele>
  <time>2026-09-01T01:13:27Z</time>
  <course>185.95</course>
  <speed>0.022360679774997897</speed>
  <fix>3d</fix>
</trkpt>
<trkpt lat="33.8103132" lon="-118.3938671">
  <ele>-24.558</ele>
  <time>2026-09-01T01:13:27Z</time>
  <course>185.95</course>
  <speed>0.022360679774997897</speed>
  <fix>3d</fix>
</trkpt>
<trkpt lat="33.810313" lon="-118.393867">
  <ele>-23.77</ele>
  <time>2026-09-01T01:13:27Z</time>
  <course>0.0</course>
  <speed>0.0</speed>
  <fix>3d</fix>
</trkpt>
<trkpt lat="33.8103132" lon="-118.3938671">
  <ele>-24.577</ele>
  <time>2026-09-01T01:13:27Z</time>
  <course>185.95</course>
  <speed>0.022360679774997897</speed>
  <fix>3d</fix>
</trkpt>
<trkpt lat="33.8103132" lon="-118.3938671">
  <ele>-24.621</ele>
  <time>2026-09-01T01:13:27Z</time>
  <course>185.95</course>
  <speed>0.022360679774997897</speed>
  <fix>3d</fix>
</trkpt>
<trkpt lat="33.810313" lon="-118.393867">
  <ele>-23.9</ele>
  <time>2026-09-01T01:13:27Z</time>
  <course>0.0</course>
  <speed>0.0</speed>
  <fix>3d</fix>
</trkpt>
<trkpt lat="33.8103132" lon="-118.3938671">
  <ele>-24.643</ele>
  <time>2026-09-01T01:13:27Z</time>
  <course>185.94</course>
  <speed>0.022360679774997897</speed>
  <fix>3d</fix>
</trkpt>
<trkpt lat="33.8103132" lon="-118.3938671">
  <ele>-24.684</ele>
  <time>2026-09-01T01:13:27Z</time>
  <course>185.94</course>
  <speed>0.022360679774997897</speed>
  <fix>3d</fix>
</trkpt>
<trkpt lat="33.810313" lon="-118.393867">
  <ele>-23.9</ele>
  <time>2026-09-01T01:13:27Z</time>
  <course>0.0</course>
  <speed>0.0</speed>
  <fix>3d</fix>
</trkpt>
<trkpt lat="33.8103132" lon="-118.3938671">
  <ele>-24.703</ele>
  <time>2026-09-01T01:13:27Z</time>
  <course>185.94</course>
  <speed>0.022360679774997897</speed>
  <fix>3d</fix>
</trkpt>
<trkpt lat="33.8103132" lon="-118.3938671">
  <ele>-24.747</ele>
  <time>2026-09-01T01:13:27Z</time>
  <course>185.94</course>
  <speed>0.022360679774997897</speed>
  <fix>3d</fix>
</trkpt>
<trkpt lat="33.810313" lon="-118.393867">
  <ele>-24.02</ele>
  <time>2026-09-01T01:13:27Z</time>
  <course>0.0</course>
  <speed>0.0</speed>
  <fix>3d</fix>
</trkpt>
<trkpt lat="33.8103132" lon="-118.3938671">
  <ele>-24.767</ele>
  <time>2026-09-01T01:13:27Z</time>
  <course>185.94</course>
  <speed>0.022360679774997897</speed>
  <fix>3d</fix>
</trkpt>
<trkpt lat="33.8103132" lon="-118.3938671">
  <ele>-24.809</ele>
  <time>2026-09-01T01:13:27Z</time>
  <course>185.93</course>
  <speed>0.022360679774997897</speed>
  <fix>3d</fix>
</trkpt>
<trkpt lat="33.810313" lon="-118.393867">
  <ele>-24.02</ele>
  <time>2026-09-01T01:13:27Z</time>
  <course>0.0</course>
  <speed>0.0</speed>
  <fix>3d</fix>
</trkpt>
<trkpt lat="33.8103132" lon="-118.3938671">
  <ele>-24.812</ele>
  <time>2026-09-01T01:13:27Z</time>
  <course>185.93</course>
  <speed>0.022360679774997897</speed>
  <fix>3d</fix>
</trkpt>
<trkpt lat="33.8103132" lon="-118.3938671">
  <ele>-24.87</ele>
  <time>2026-09-01T01:13:27Z</time>
  <course>185.93</course>
  <speed>0.022360679774997897</speed>
  <fix>3d</fix>
</trkpt>
<trkpt lat="33.810313" lon="-118.393867">
  <ele>-24.15</ele>
  <time>2026-09-01T01:13:27Z</time>
  <course>0.0</course>
  <speed>0.0</speed>
  <fix>3d</fix>
</trkpt>
<trkpt lat="33.8103132" lon="-118.3938671">
  <ele>-24.89</ele>
  <time>2026-09-01T01:13:27Z</time>
  <course>185.93</course>
  <speed>0.022360679774997897</speed>
  <fix>3d</fix>
</trkpt>
<trkpt lat="33.8103132" lon="-118.3938671">
  <ele>-24.931</ele>
  <time>2026-09-01T01:13:27Z</time>
  <course>185.92</course>
  <speed>0.022360679774997897</speed>
  <fix>3d</fix>
</trkpt>
<trkpt lat="33.810313" lon="-118.393867">
  <ele>-24.15</ele>
  <time>2026-09-01T01:13:27Z</time>
  <course>0.0</course>
  <speed>0.0</speed>
  <fix>3d</fix>
</trkpt>
<trkpt lat="33.8103132" lon="-118.3938671">
  <ele>-24.952</ele>
  <time>2026-09-01T01:13:27Z</time>
  <course>185.92</course>
  <speed>0.022360679774997897</speed>
  <fix>3d</fix>
</trkpt>
<trkpt lat="33.8103132" lon="-118.3938671">
  <ele>-24.991</ele>
  <time>2026-09-01T01:13:27Z</time>
  <course>185.92</course>
  <speed>0.022360679774997897</speed>
  <fix>3d</fix>
</trkpt>
<trkpt lat="33.810313" lon="-118.393867">
  <ele>-24.27</ele>
  <time>2026-09-01T01:13:27Z</time>
  <course>0.0</course>
  <speed>0.0</speed>
  <fix>3d</fix>
</trkpt>
<trkpt lat="33.8103132" lon="-118.3938671">
  <ele>-25.011</ele>
  <time>2026-09-01T01:13:27Z</time>
  <course>185.92</course>
  <speed>0.022360679774997897</speed>
  <fix>3d</fix>
</trkpt>
<trkpt lat="33.8103132" lon="-118.3938671">
  <ele>-25.052</ele>
  <time>2026-09-01T01:13:27Z</time>
  <course>185.92</course>
  <speed>0.022360679774997897</speed>
  <fix>3d</fix>
</trkpt>
<trkpt lat="33.810313" lon="-118.393867">
  <ele>-24.27</ele>
  <time>2026-09-01T01:13:27Z</time>
  <course>0.0</course>
  <speed>0.0</speed>
  <fix>3d</fix>
</trkpt>
<trkpt lat="33.8103132" lon="-118.3938671">
  <ele>-25.073</ele>
  <time>2026-09-01T01:13:27Z</time>
  <course>185.92</course>
  <speed>0.022360679774997897</speed>
  <fix>3d</fix>
</trkpt>
<trkpt lat="33.8103132" lon="-118.3938671">
  <ele>-25.113</ele>
  <time>2026-09-01T01:13:27Z</time>
  <course>185.91</course>
  <speed>0.022360679774997897</speed>
  <fix>3d</fix>
</trkpt>
<trkpt lat="33.810313" lon="-118.393867">
  <ele>-24.39</ele>
  <time>2026-09-01T01:13:27Z</time>
  <course>0.0</course>
  <speed>0.0</speed>
  <fix>3d</fix>
</trkpt>
<trkpt lat="33.8103132" lon="-118.3938671">
  <ele>-25.115</ele>
  <time>2026-09-01T01:13:27Z</time>
  <course>185.91</course>
  <speed>0.022360679774997897</speed>
  <fix>3d</fix>
</trkpt>
<trkpt lat="33.8103132" lon="-118.3938671">
  <ele>-25.176</ele>
  <time>2026-09-01T01:13:27Z</time>
  <course>185.91</course>
  <speed>0.022360679774997897</speed>
  <fix>3d</fix>
</trkpt>
<trkpt lat="33.810313" lon="-118.393867">
  <ele>-24.39</ele>
  <time>2026-09-01T01:13:27Z</time>
  <course>0.0</course>
  <speed>0.0</speed>
  <fix>3d</fix>
</trkpt>
<trkpt lat="33.8103132" lon="-118.3938671">
  <ele>-25.177</ele>
  <time>2026-09-01T01:13:27Z</time>
  <course>185.91</course>
  <speed>0.022360679774997897</speed>
  <fix>3d</fix>
</trkpt>
<trkpt lat="33.8103132" lon="-118.3938671">
  <ele>-25.239</ele>
  <time>2026-09-01T01:13:27Z</time>
  <course>185.9</course>
  <speed>0.022360679774997897</speed>
  <fix>3d</fix>
</trkpt>
<trkpt lat="33.810313" lon="-118.393867">
  <ele>-24.51</ele>
  <time>2026-09-01T01:13:27Z</time>
  <course>0.0</course>
  <speed>0.0</speed>
  <fix>3d</fix>
</trkpt>
<trkpt lat="33.8103132" lon="-118.3938671">
  <ele>-25.259</ele>
  <time>2026-09-01T01:13:27Z</time>
  <course>185.9</course>
  <speed>0.022360679774997897</speed>
  <fix>3d</fix>
</trkpt>
<trkpt lat="33.8103132" lon="-118.3938671">
  <ele>-25.301</ele>
  <time>2026-09-01T01:13:27Z</time>
  <course>185.9</course>
  <speed>0.022360679774997897</speed>
  <fix>3d</fix>
</trkpt>
<trkpt lat="33.810313" lon="-118.393867">
  <ele>-24.51</ele>
  <time>2026-09-01T01:13:27Z</time>
  <course>0.0</course>
  <speed>0.0</speed>
  <fix>3d</fix>
</trkpt>
<trkpt lat="33.8103132" lon="-118.3938671">
  <ele>-25.321</ele>
  <time>2026-09-01T01:13:27Z</time>
  <course>185.9</course>
  <speed>0.022360679774997897</speed>
  <fix>3d</fix>
</trkpt>
<trkpt lat="33.8103132" lon="-118.3938671">
  <ele>-25.363</ele>
  <time>2026-09-01T01:13:27Z</time>
  <course>185.9</course>
  <speed>0.022360679774997897</speed>
  <fix>3d</fix>
</trkpt>
<trkpt lat="33.810313" lon="-118.393867">
  <ele>-24.63</ele>
  <time>2026-09-01T01:13:27Z</time>
  <course>0.0</course>
  <speed>0.0</speed>
  <fix>3d</fix>
</trkpt>
<trkpt lat="33.8103132" lon="-118.3938671">
  <ele>-25.382</ele>
  <time>2026-09-01T01:13:27Z</time>
  <course>185.9</course>
  <speed>0.022360679774997897</speed>
  <fix>3d</fix>
</trkpt>
<trkpt lat="33.8103132" lon="-118.3938671">
  <ele>-25.425</ele>
  <time>2026-09-01T01:13:27Z</time>
  <course>185.89</course>
  <speed>0.022360679774997897</speed>
  <fix>3d</fix>
</trkpt>
<trkpt lat="33.810313" lon="-118.393867">
  <ele>-24.63</ele>
  <time>2026-09-01T01:13:27Z</time>
  <course>0.0</course>
  <speed>0.0</speed>
  <fix>3d</fix>
</trkpt>
<trkpt lat="33.8103132" lon="-118.3938671">
  <ele>-25.426</ele>
  <time>2026-09-01T01:13:27Z</time>
  <course>185.89</course>
  <speed>0.022360679774997897</speed>
  <fix>3d</fix>
</trkpt>
<trkpt lat="33.8103132" lon="-118.3938671">
  <ele>-25.487</ele>
  <time>2026-09-01T01:13:27Z</time>
  <course>185.89</course>
  <speed>0.022360679774997897</speed>
  <fix>3d</fix>
</trkpt>
<trkpt lat="33.810313" lon="-118.393867">
  <ele>-24.75</ele>
  <time>2026-09-01T01:13:27Z</time>
  <course>0.0</course>
  <speed>0.0</speed>
  <fix>3d</fix>
</trkpt>
<trkpt lat="33.8103132" lon="-118.3938671">
  <ele>-25.512</ele>
  <time>2026-09-01T01:13:27Z</time>
  <course>185.89</course>
  <speed>0.022360679774997897</speed>
  <fix>3d</fix>
</trkpt>
<trkpt lat="33.8103132" lon="-118.3938671">
  <ele>-25.549</ele>
  <time>2026-09-01T01:13:27Z</time>
  <course>185.88</course>
  <speed>0.022360679774997897</speed>
  <fix>3d</fix>
</trkpt>
<trkpt lat="33.810313" lon="-118.393867">
  <ele>-24.75</ele>
  <time>2026-09-01T01:13:27Z</time>
  <course>0.0</course>
  <speed>0.0</speed>
  <fix>3d</fix>
</trkpt>
<trkpt lat="33.8103132" lon="-118.3938671">
  <ele>-25.551</ele>
  <time>2026-09-01T01:13:27Z</time>
  <course>185.88</course>
  <speed>0.022360679774997897</speed>
  <fix>3d</fix>
</trkpt>
<trkpt lat="33.8103132" lon="-118.3938671">
  <ele>-25.612</ele>
  <time>2026-09-01T01:13:27Z</time>
  <course>185.88</course>
  <speed>0.022360679774997897</speed>
  <fix>3d</fix>
</trkpt>
<trkpt lat="33.810313" lon="-118.393867">
  <ele>-24.86</ele>
  <time>2026-09-01T01:13:27Z</time>
  <course>0.0</course>
  <speed>0.0</speed>
  <fix>3d</fix>
</trkpt>
<trkpt lat="33.8103132" lon="-118.3938671">
  <ele>-25.613</ele>
  <time>2026-09-01T01:13:27Z</time>
  <course>185.88</course>
  <speed>0.022360679774997897</speed>
  <fix>3d</fix>
</trkpt>
<trkpt lat="33.8103132" lon="-118.3938671">
  <ele>-25.674</ele>
  <time>2026-09-01T01:13:27Z</time>
  <course>185.88</course>
  <speed>0.022360679774997897</speed>
  <fix>3d</fix>
</trkpt>
<trkpt lat="33.810313" lon="-118.393867">
  <ele>-24.86</ele>
  <time>2026-09-01T01:13:27Z</time>
  <course>0.0</course>
  <speed>0.0</speed>
  <fix>3d</fix>
</trkpt>
<trkpt lat="33.8103132" lon="-118.3938671">
  <ele>-25.694</ele>
  <time>2026-09-01T01:13:27Z</time>
  <course>185.87</course>
  <speed>0.022360679774997897</speed>
  <fix>3d</fix>
</trkpt>
<trkpt lat="33.8103132" lon="-118.3938671">
  <ele>-25.737</ele>
  <time>2026-09-01T01:13:27Z</time>
  <course>185.87</course>
  <speed>0.022360679774997897</speed>
  <fix>3d</fix>
</trkpt>
<trkpt lat="33.810313" lon="-118.393867">
  <ele>-24.99</ele>
  <time>2026-09-01T01:13:27Z</time>
  <course>0.0</course>
  <speed>0.0</speed>
  <fix>3d</fix>
</trkpt>
<trkpt lat="33.8103132" lon="-118.3938671">
  <ele>-25.738</ele>
  <time>2026-09-01T01:13:27Z</time>
  <course>185.87</course>
  <speed>0.022360679774997897</speed>
  <fix>3d</fix>
</trkpt>
<trkpt lat="33.8103132" lon="-118.3938671">
  <ele>-25.799</ele>
  <time>2026-09-01T01:13:27Z</time>
  <course>185.87</course>
  <speed>0.022360679774997897</speed>
  <fix>3d</fix>
</trkpt>
<trkpt lat="33.810313" lon="-118.393867">
  <ele>-24.99</ele>
  <time>2026-09-01T01:13:27Z</time>
  <course>0.0</course>
  <speed>0.0</speed>
  <fix>3d</fix>
</trkpt>
<trkpt lat="33.8103132" lon="-118.3938671">
  <ele>-25.819</ele>
  <time>2026-09-01T01:13:27Z</time>
  <course>185.87</course>
  <speed>0.022360679774997897</speed>
  <fix>3d</fix>
</trkpt>
<trkpt lat="33.8103132" lon="-118.3938671">
  <ele>-25.861</ele>
  <time>2026-09-01T01:13:27Z</time>
  <course>185.86</course>
  <speed>0.022360679774997897</speed>
  <fix>3d</fix>
</trkpt>
<trkpt lat="33.810313" lon="-118.393867">
  <ele>-25.11</ele>
  <time>2026-09-01T01:13:27Z</time>
  <course>0.0</course>
  <speed>0.0</speed>
  <fix>3d</fix>
</trkpt>
<trkpt lat="33.8103132" lon="-118.3938671">
  <ele>-25.862</ele>
  <time>2026-09-01T01:13:27Z</time>
  <course>185.86</course>
  <speed>0.022360679774997897</speed>
  <fix>3d</fix>
</trkpt>
<trkpt lat="33.8103132" lon="-118.3938671">
  <ele>-25.923</ele>
  <time>2026-09-01T01:13:27Z</time>
  <course>185.86</course>
  <speed>0.022360679774997897</speed>
  <fix>3d</fix>
</trkpt>
<trkpt lat="33.810313" lon="-118.393867">
  <ele>-25.11</ele>
  <time>2026-09-01T01:13:27Z</time>
  <course>0.0</course>
  <speed>0.0</speed>
  <fix>3d</fix>
</trkpt>
<trkpt lat="33.8103132" lon="-118.3938671">
  <ele>-25.944</ele>
  <time>2026-09-01T01:13:27Z</time>
  <course>185.86</course>
  <speed>0.022360679774997897</speed>
  <fix>3d</fix>
</trkpt>
<trkpt lat="33.8103132" lon="-118.3938671">
  <ele>-25.987</ele>
  <time>2026-09-01T01:13:27Z</time>
  <course>185.86</course>
  <speed>0.022360679774997897</speed>
  <fix>3d</fix>
</trkpt>
<trkpt lat="33.810313" lon="-118.393867">
  <ele>-25.23</ele>
  <time>2026-09-01T01:13:27Z</time>
  <course>0.0</course>
  <speed>0.0</speed>
  <fix>3d</fix>
</trkpt>
<trkpt lat="33.8103132" lon="-118.3938671">
  <ele>-26.011</ele>
  <time>2026-09-01T01:13:27Z</time>
  <course>185.85</course>
  <speed>0.022360679774997897</speed>
  <fix>3d</fix>
</trkpt>
<trkpt lat="33.8103132" lon="-118.3938671">
  <ele>-26.05</ele>
  <time>2026-09-01T01:13:27Z</time>
  <course>185.85</course>
  <speed>0.022360679774997897</speed>
  <fix>3d</fix>
</trkpt>
<trkpt lat="33.810313" lon="-118.393867">
  <ele>-25.23</ele>
  <time>2026-09-01T01:13:27Z</time>
  <course>0.0</course>
  <speed>0.0</speed>
  <fix>3d</fix>
</trkpt>
<trkpt lat="33.8103132" lon="-118.3938671">
  <ele>-26.052</ele>
  <time>2026-09-01T01:13:27Z</time>
  <course>185.85</course>
  <speed>0.022360679774997897</speed>
  <fix>3d</fix>
</trkpt>
<trkpt lat="33.8103132" lon="-118.3938671">
  <ele>-26.113</ele>
  <time>2026-09-01T01:13:27Z</time>
  <course>185.85</course>
  <speed>0.022360679774997897</speed>
  <fix>3d</fix>
</trkpt>
<trkpt lat="33.810313" lon="-118.393867">
  <ele>-25.35</ele>
  <time>2026-09-01T01:13:27Z</time>
  <course>0.0</course>
  <speed>0.0</speed>
  <fix>3d</fix>
</trkpt>
<trkpt lat="33.8103132" lon="-118.3938671">
  <ele>-26.134</ele>
  <time>2026-09-01T01:13:27Z</time>
  <course>185.85</course>
  <speed>0.022360679774997897</speed>
  <fix>3d</fix>
</trkpt>
<trkpt lat="33.8103132" lon="-118.3938671">
  <ele>-26.176</ele>
  <time>2026-09-01T01:13:27Z</time>
  <course>185.84</course>
  <speed>0.022360679774997897</speed>
  <fix>3d</fix>
</trkpt>
<trkpt lat="33.810313" lon="-118.393867">
  <ele>-25.35</ele>
  <time>2026-09-01T01:13:27Z</time>
  <course>0.0</course>
  <speed>0.0</speed>
  <fix>3d</fix>
</trkpt>
<trkpt lat="33.8103132" lon="-118.3938671">
  <ele>-26.198</ele>
  <time>2026-09-01T01:13:27Z</time>
  <course>185.84</course>
  <speed>0.022360679774997897</speed>
  <fix>3d</fix>
</trkpt>
<trkpt lat="33.8103132" lon="-118.3938671">
  <ele>-26.239</ele>
  <time>2026-09-01T01:13:27Z</time>
  <course>185.84</course>
  <speed>0.022360679774997897</speed>
  <fix>3d</fix>
</trkpt>
<trkpt lat="33.810313" lon="-118.393867">
  <ele>-25.47</ele>
  <time>2026-09-01T01:13:27Z</time>
  <course>0.0</course>
  <speed>0.0</speed>
  <fix>3d</fix>
</trkpt>
<trkpt lat="33.8103132" lon="-118.3938671">
  <ele>-26.259</ele>
  <time>2026-09-01T01:13:27Z</time>
  <course>185.84</course>
  <speed>0.022360679774997897</speed>
  <fix>3d</fix>
</trkpt>
<trkpt lat="33.8103132" lon="-118.3938671">
  <ele>-26.302</ele>
  <time>2026-09-01T01:13:27Z</time>
  <course>185.84</course>
  <speed>0.022360679774997897</speed>
  <fix>3d</fix>
</trkpt>
<trkpt lat="33.810313" lon="-118.393867">
  <ele>-25.47</ele>
  <time>2026-09-01T01:13:27Z</time>
  <course>0.0</course>
  <speed>0.0</speed>
  <fix>3d</fix>
</trkpt>
<trkpt lat="33.8103132" lon="-118.3938671">
  <ele>-26.323</ele>
  <time>2026-09-01T01:13:27Z</time>
  <course>185.83</course>
  <speed>0.022360679774997897</speed>
  <fix>3d</fix>
</trkpt>
<trkpt lat="33.8103132" lon="-118.3938671">
  <ele>-26.364</ele>
  <time>2026-09-01T01:13:27Z</time>
  <course>185.83</course>
  <speed>0.022360679774997897</speed>
  <fix>3d</fix>
</trkpt>
<trkpt lat="33.810313" lon="-118.393867">
  <ele>-25.59</ele>
  <time>2026-09-01T01:13:27Z</time>
  <course>0.0</course>
  <speed>0.0</speed>
  <fix>3d</fix>
</trkpt>
<trkpt lat="33.8103132" lon="-118.3938671">
  <ele>-26.367</ele>
  <time>2026-09-01T01:13:27Z</time>
  <course>185.83</course>
  <speed>0.022360679774997897</speed>
  <fix>3d</fix>
</trkpt>
<trkpt lat="33.8103132" lon="-118.3938671">
  <ele>-26.425</ele>
  <time>2026-09-01T01:13:27Z</time>
  <course>185.83</course>
  <speed>0.022360679774997897</speed>
  <fix>3d</fix>
</trkpt>
<trkpt lat="33.810313" lon="-118.393867">
  <ele>-25.59</ele>
  <time>2026-09-01T01:13:27Z</time>
  <course>0.0</course>
  <speed>0.0</speed>
  <fix>3d</fix>
</trkpt>
<trkpt lat="33.8103132" lon="-118.3938671">
  <ele>-26.444</ele>
  <time>2026-09-01T01:13:27Z</time>
  <course>185.83</course>
  <speed>0.022360679774997897</speed>
  <fix>3d</fix>
</trkpt>
<trkpt lat="33.8103132" lon="-118.3938671">
  <ele>-26.487</ele>
  <time>2026-09-01T01:13:27Z</time>
  <course>185.82</course>
  <speed>0.022360679774997897</speed>
  <fix>3d</fix>
</trkpt>
<trkpt lat="33.810313" lon="-118.393867">
  <ele>-25.71</ele>
  <time>2026-09-01T01:13:27Z</time>
  <course>0.0</course>
  <speed>0.0</speed>
  <fix>3d</fix>
</trkpt>
<trkpt lat="33.8103132" lon="-118.3938671">
  <ele>-26.509</ele>
  <time>2026-09-01T01:13:27Z</time>
  <course>185.82</course>
  <speed>0.022360679774997897</speed>
  <fix>3d</fix>
</trkpt>
<trkpt lat="33.8103132" lon="-118.3938671">
  <ele>-26.548</ele>
  <time>2026-09-01T01:13:28Z</time>
  <course>185.82</course>
  <speed>0.022360679774997897</speed>
  <fix>3d</fix>
</trkpt>
<trkpt lat="33.810313" lon="-118.393867">
  <ele>-25.71</ele>
  <time>2026-09-01T01:13:28Z</time>
  <course>0.0</course>
  <speed>0.0</speed>
  <fix>3d</fix>
</trkpt>
<trkpt lat="33.8103132" lon="-118.3938671">
  <ele>-26.549</ele>
  <time>2026-09-01T01:13:28Z</time>
  <course>185.82</course>
  <speed>0.022360679774997897</speed>
  <fix>3d</fix>
</trkpt>
<trkpt lat="33.8103132" lon="-118.3938671">
  <ele>-26.609</ele>
  <time>2026-09-01T01:13:28Z</time>
  <course>185.82</course>
  <speed>0.022360679774997897</speed>
  <fix>3d</fix>
</trkpt>
<trkpt lat="33.810313" lon="-118.393867">
  <ele>-25.84</ele>
  <time>2026-09-01T01:13:28Z</time>
  <course>0.0</course>
  <speed>0.0</speed>
  <fix>3d</fix>
</trkpt>
<trkpt lat="33.8103132" lon="-118.3938671">
  <ele>-26.61</ele>
  <time>2026-09-01T01:13:28Z</time>
  <course>185.82</course>
  <speed>0.022360679774997897</speed>
  <fix>3d</fix>
</trkpt>
<trkpt lat="33.8103132" lon="-118.3938671">
  <ele>-26.67</ele>
  <time>2026-09-01T01:13:28Z</time>
  <course>185.81</course>
  <speed>0.022360679774997897</speed>
  <fix>3d</fix>
</trkpt>
<trkpt lat="33.810313" lon="-118.393867">
  <ele>-25.84</ele>
  <time>2026-09-01T01:13:28Z</time>
  <course>0.0</course>
  <speed>0.0</speed>
  <fix>3d</fix>
</trkpt>
<trkpt lat="33.8103132" lon="-118.3938671">
  <ele>-26.671</ele>
  <time>2026-09-01T01:13:28Z</time>
  <course>185.81</course>
  <speed>0.022360679774997897</speed>
  <fix>3d</fix>
</trkpt>
<trkpt lat="33.8103132" lon="-118.3938671">
  <ele>-26.732</ele>
  <time>2026-09-01T01:13:28Z</time>
  <course>185.81</course>
  <speed>0.022360679774997897</speed>
  <fix>3d</fix>
</trkpt>
<trkpt lat="33.810313" lon="-118.393867">
  <ele>-25.96</ele>
  <time>2026-09-01T01:13:28Z</time>
  <course>0.0</course>
  <speed>0.0</speed>
  <fix>3d</fix>
</trkpt>
<trkpt lat="33.8103132" lon="-118.3938671">
  <ele>-26.753</ele>
  <time>2026-09-01T01:13:28Z</time>
  <course>185.81</course>
  <speed>0.022360679774997897</speed>
  <fix>3d</fix>
</trkpt>
<trkpt lat="33.8103132" lon="-118.3938671">
  <ele>-26.793</ele>
  <time>2026-09-01T01:13:28Z</time>
  <course>185.8</course>
  <speed>0.022360679774997897</speed>
  <fix>3d</fix>
</trkpt>
<trkpt lat="33.810313" lon="-118.393867">
  <ele>-25.96</ele>
  <time>2026-09-01T01:13:28Z</time>
  <course>0.0</course>
  <speed>0.0</speed>
  <fix>3d</fix>
</trkpt>
<trkpt lat="33.8103132" lon="-118.3938671">
  <ele>-26.813</ele>
  <time>2026-09-01T01:13:28Z</time>
  <course>185.8</course>
  <speed>0.022360679774997897</speed>
  <fix>3d</fix>
</trkpt>
<trkpt lat="33.8103132" lon="-118.3938671">
  <ele>-26.855</ele>
  <time>2026-09-01T01:13:28Z</time>
  <course>185.8</course>
  <speed>0.022360679774997897</speed>
  <fix>3d</fix>
</trkpt>
<trkpt lat="33.810313" lon="-118.393867">
  <ele>-26.08</ele>
  <time>2026-09-01T01:13:28Z</time>
  <course>0.0</course>
  <speed>0.0</speed>
  <fix>3d</fix>
</trkpt>
<trkpt lat="33.8103132" lon="-118.3938671">
  <ele>-26.879</ele>
  <time>2026-09-01T01:13:28Z</time>
  <course>185.8</course>
  <speed>0.022360679774997897</speed>
  <fix>3d</fix>
</trkpt>
<trkpt lat="33.8103132" lon="-118.3938671">
  <ele>-26.915</ele>
  <time>2026-09-01T01:13:28Z</time>
  <course>185.8</course>
  <speed>0.022360679774997897</speed>
  <fix>3d</fix>
</trkpt>
<trkpt lat="33.810313" lon="-118.393867">
  <ele>-26.08</ele>
  <time>2026-09-01T01:13:28Z</time>
  <course>0.0</course>
  <speed>0.0</speed>
  <fix>3d</fix>
</trkpt>
<trkpt lat="33.8103132" lon="-118.3938671">
  <ele>-26.935</ele>
  <time>2026-09-01T01:13:28Z</time>
  <course>185.79</course>
  <speed>0.022360679774997897</speed>
  <fix>3d</fix>
</trkpt>
<trkpt lat="33.8103132" lon="-118.3938671">
  <ele>-26.976</ele>
  <time>2026-09-01T01:13:28Z</time>
  <course>185.79</course>
  <speed>0.022360679774997897</speed>
  <fix>3d</fix>
</trkpt>
<trkpt lat="33.810313" lon="-118.393867">
  <ele>-26.2</ele>
  <time>2026-09-01T01:13:28Z</time>
  <course>0.0</course>
  <speed>0.0</speed>
  <fix>3d</fix>
</trkpt>
<trkpt lat="33.8103132" lon="-118.3938671">
  <ele>-26.977</ele>
  <time>2026-09-01T01:13:28Z</time>
  <course>185.79</course>
  <speed>0.022360679774997897</speed>
  <fix>3d</fix>
</trkpt>
<trkpt lat="33.8103132" lon="-118.3938671">
  <ele>-27.036</ele>
  <time>2026-09-01T01:13:28Z</time>
  <course>185.79</course>
  <speed>0.022360679774997897</speed>
  <fix>3d</fix>
</trkpt>
<trkpt lat="33.810313" lon="-118.393867">
  <ele>-26.2</ele>
  <time>2026-09-01T01:13:28Z</time>
  <course>0.0</course>
  <speed>0.0</speed>
  <fix>3d</fix>
</trkpt>
<trkpt lat="33.8103132" lon="-118.3938671">
  <ele>-27.06</ele>
  <time>2026-09-01T01:13:28Z</time>
  <course>185.79</course>
  <speed>0.022360679774997897</speed>
  <fix>3d</fix>
</trkpt>
<trkpt lat="33.8103132" lon="-118.3938671">
  <ele>-27.097</ele>
  <time>2026-09-01T01:13:28Z</time>
  <course>185.78</course>
  <speed>0.022360679774997897</speed>
  <fix>3d</fix>
</trkpt>
<trkpt lat="33.810313" lon="-118.393867">
  <ele>-26.32</ele>
  <time>2026-09-01T01:13:28Z</time>
  <course>0.0</course>
  <speed>0.0</speed>
  <fix>3d</fix>
</trkpt>
<trkpt lat="33.8103132" lon="-118.3938671">
  <ele>-27.117</ele>
  <time>2026-09-01T01:13:28Z</time>
  <course>185.78</course>
  <speed>0.022360679774997897</speed>
  <fix>3d</fix>
</trkpt>
<trkpt lat="33.8103132" lon="-118.3938671">
  <ele>-27.159</ele>
  <time>2026-09-01T01:13:28Z</time>
  <course>185.78</course>
  <speed>0.022360679774997897</speed>
  <fix>3d</fix>
</trkpt>
<trkpt lat="33.810313" lon="-118.393867">
  <ele>-26.32</ele>
  <time>2026-09-01T01:13:28Z</time>
  <course>0.0</course>
  <speed>0.0</speed>
  <fix>3d</fix>
</trkpt>
<trkpt lat="33.8103132" lon="-118.3938671">
  <ele>-27.16</ele>
  <time>2026-09-01T01:13:28Z</time>
  <course>185.78</course>
  <speed>0.022360679774997897</speed>
  <fix>3d</fix>
</trkpt>
<trkpt lat="33.8103132" lon="-118.3938671">
  <ele>-27.222</ele>
  <time>2026-09-01T01:13:28Z</time>
  <course>185.78</course>
  <speed>0.022360679774997897</speed>
  <fix>3d</fix>
</trkpt>
<trkpt lat="33.810313" lon="-118.393867">
  <ele>-26.43</ele>
  <time>2026-09-01T01:13:28Z</time>
  <course>0.0</course>
  <speed>0.0</speed>
  <fix>3d</fix>
</trkpt>
<trkpt lat="33.8103132" lon="-118.3938671">
  <ele>-27.223</ele>
  <time>2026-09-01T01:13:28Z</time>
  <course>185.78</course>
  <speed>0.022360679774997897</speed>
  <fix>3d</fix>
</trkpt>
<trkpt lat="33.8103132" lon="-118.3938671">
  <ele>-27.286</ele>
  <time>2026-09-01T01:13:28Z</time>
  <course>185.77</course>
  <speed>0.022360679774997897</speed>
  <fix>3d</fix>
</trkpt>
<trkpt lat="33.810313" lon="-118.393867">
  <ele>-26.43</ele>
  <time>2026-09-01T01:13:28Z</time>
  <course>0.0</course>
  <speed>0.0</speed>
  <fix>3d</fix>
</trkpt>
<trkpt lat="33.8103132" lon="-118.3938671">
  <ele>-27.287</ele>
  <time>2026-09-01T01:13:28Z</time>
  <course>185.77</course>
  <speed>0.022360679774997897</speed>
  <fix>3d</fix>
</trkpt>
<trkpt lat="33.8103132" lon="-118.3938671">
  <ele>-27.348</ele>
  <time>2026-09-01T01:13:28Z</time>
  <course>185.77</course>
  <speed>0.022360679774997897</speed>
  <fix>3d</fix>
</trkpt>
<trkpt lat="33.810313" lon="-118.393867">
  <ele>-26.56</ele>
  <time>2026-09-01T01:13:28Z</time>
  <course>0.0</course>
  <speed>0.0</speed>
  <fix>3d</fix>
</trkpt>
<trkpt lat="33.8103132" lon="-118.3938671">
  <ele>-27.369</ele>
  <time>2026-09-01T01:13:28Z</time>
  <course>185.77</course>
  <speed>0.022360679774997897</speed>
  <fix>3d</fix>
</trkpt>
<trkpt lat="33.8103132" lon="-118.3938671">
  <ele>-27.412</ele>
  <time>2026-09-01T01:13:28Z</time>
  <course>185.77</course>
  <speed>0.022360679774997897</speed>
  <fix>3d</fix>
</trkpt>
<trkpt lat="33.810313" lon="-118.393867">
  <ele>-26.56</ele>
  <time>2026-09-01T01:13:28Z</time>
  <course>0.0</course>
  <speed>0.0</speed>
  <fix>3d</fix>
</trkpt>
<trkpt lat="33.8103132" lon="-118.3938671">
  <ele>-27.432</ele>
  <time>2026-09-01T01:13:28Z</time>
  <course>185.76</course>
  <speed>0.022360679774997897</speed>
  <fix>3d</fix>
</trkpt>
<trkpt lat="33.8103132" lon="-118.3938671">
  <ele>-27.475</ele>
  <time>2026-09-01T01:13:28Z</time>
  <course>185.76</course>
  <speed>0.022360679774997897</speed>
  <fix>3d</fix>
</trkpt>
<trkpt lat="33.810313" lon="-118.393867">
  <ele>-26.68</ele>
  <time>2026-09-01T01:13:28Z</time>
  <course>0.0</course>
  <speed>0.0</speed>
  <fix>3d</fix>
</trkpt>
<trkpt lat="33.8103132" lon="-118.3938671">
  <ele>-27.495</ele>
  <time>2026-09-01T01:13:28Z</time>
  <course>185.76</course>
  <speed>0.022360679774997897</speed>
  <fix>3d</fix>
</trkpt>
<trkpt lat="33.8103132" lon="-118.3938671">
  <ele>-27.538</ele>
  <time>2026-09-01T01:13:28Z</time>
  <course>185.76</course>
  <speed>0.022360679774997897</speed>
  <fix>3d</fix>
</trkpt>
<trkpt lat="33.810313" lon="-118.393867">
  <ele>-26.68</ele>
  <time>2026-09-01T01:13:28Z</time>
  <course>0.0</course>
  <speed>0.0</speed>
  <fix>3d</fix>
</trkpt>
<trkpt lat="33.8103132" lon="-118.3938671">
  <ele>-27.561</ele>
  <time>2026-09-01T01:13:28Z</time>
  <course>185.76</course>
  <speed>0.022360679774997897</speed>
  <fix>3d</fix>
</trkpt>
<trkpt lat="33.8103132" lon="-118.3938671">
  <ele>-27.601</ele>
  <time>2026-09-01T01:13:28Z</time>
  <course>185.75</course>
  <speed>0.022360679774997897</speed>
  <fix>3d</fix>
</trkpt>
<trkpt lat="33.810313" lon="-118.393867">
  <ele>-26.8</ele>
  <time>2026-09-01T01:13:28Z</time>
  <course>0.0</course>
  <speed>0.0</speed>
  <fix>3d</fix>
</trkpt>
<trkpt lat="33.8103132" lon="-118.3938671">
  <ele>-27.621</ele>
  <time>2026-09-01T01:13:28Z</time>
  <course>185.75</course>
  <speed>0.022360679774997897</speed>
  <fix>3d</fix>
</trkpt>
<trkpt lat="33.8103132" lon="-118.3938671">
  <ele>-27.664</ele>
  <time>2026-09-01T01:13:28Z</time>
  <course>185.75</course>
  <speed>0.022360679774997897</speed>
  <fix>3d</fix>
</trkpt>
<trkpt lat="33.810313" lon="-118.393867">
  <ele>-26.8</ele>
  <time>2026-09-01T01:13:28Z</time>
  <course>0.0</course>
  <speed>0.0</speed>
  <fix>3d</fix>
</trkpt>
<trkpt lat="33.8103132" lon="-118.3938671">
  <ele>-27.688</ele>
  <time>2026-09-01T01:13:28Z</time>
  <course>185.75</course>
  <speed>0.022360679774997897</speed>
  <fix>3d</fix>
</trkpt>
<trkpt lat="33.8103132" lon="-118.3938671">
  <ele>-27.727</ele>
  <time>2026-09-01T01:13:28Z</time>
  <course>185.75</course>
  <speed>0.022360679774997897</speed>
  <fix>3d</fix>
</trkpt>
<trkpt lat="33.810313" lon="-118.393867">
  <ele>-26.92</ele>
  <time>2026-09-01T01:13:28Z</time>
  <course>0.0</course>
  <speed>0.0</speed>
  <fix>3d</fix>
</trkpt>
<trkpt lat="33.8103132" lon="-118.3938671">
  <ele>-27.747</ele>
  <time>2026-09-01T01:13:28Z</time>
  <course>185.75</course>
  <speed>0.022360679774997897</speed>
  <fix>3d</fix>
</trkpt>
<trkpt lat="33.8103132" lon="-118.3938671">
  <ele>-27.79</ele>
  <time>2026-09-01T01:13:28Z</time>
  <course>185.74</course>
  <speed>0.022360679774997897</speed>
  <fix>3d</fix>
</trkpt>
<trkpt lat="33.810313" lon="-118.393867">
  <ele>-26.92</ele>
  <time>2026-09-01T01:13:28Z</time>
  <course>0.0</course>
  <speed>0.0</speed>
  <fix>3d</fix>
</trkpt>
<trkpt lat="33.8103132" lon="-118.3938671">
  <ele>-27.792</ele>
  <time>2026-09-01T01:13:28Z</time>
  <course>185.74</course>
  <speed>0.022360679774997897</speed>
  <fix>3d</fix>
</trkpt>
<trkpt lat="33.8103132" lon="-118.3938671">
  <ele>-27.853</ele>
  <time>2026-09-01T01:13:28Z</time>
  <course>185.74</course>
  <speed>0.022360679774997897</speed>
  <fix>3d</fix>
</trkpt>
<trkpt lat="33.810313" lon="-118.393867">
  <ele>-27.04</ele>
  <time>2026-09-01T01:13:28Z</time>
  <course>0.0</course>
  <speed>0.0</speed>
  <fix>3d</fix>
</trkpt>
<trkpt lat="33.8103132" lon="-118.3938671">
  <ele>-27.856</ele>
  <time>2026-09-01T01:13:28Z</time>
  <course>185.74</course>
  <speed>0.022360679774997897</speed>
  <fix>3d</fix>
</trkpt>
<trkpt lat="33.8103132" lon="-118.3938671">
  <ele>-27.916</ele>
  <time>2026-09-01T01:13:28Z</time>
  <course>185.74</course>
  <speed>0.022360679774997897</speed>
  <fix>3d</fix>
</trkpt>
<trkpt lat="33.810313" lon="-118.393867">
  <ele>-27.04</ele>
  <time>2026-09-01T01:13:28Z</time>
  <course>0.0</course>
  <speed>0.0</speed>
  <fix>3d</fix>
</trkpt>
<trkpt lat="33.8103132" lon="-118.3938671">
  <ele>-27.917</ele>
  <time>2026-09-01T01:13:28Z</time>
  <course>185.74</course>
  <speed>0.022360679774997897</speed>
  <fix>3d</fix>
</trkpt>
<trkpt lat="33.8103132" lon="-118.3938671">
  <ele>-27.979</ele>
  <time>2026-09-01T01:13:28Z</time>
  <course>185.73</course>
  <speed>0.022360679774997897</speed>
  <fix>3d</fix>
</trkpt>
<trkpt lat="33.810313" lon="-118.393867">
  <ele>-27.16</ele>
  <time>2026-09-01T01:13:28Z</time>
  <course>0.0</course>
  <speed>0.0</speed>
  <fix>3d</fix>
</trkpt>
<trkpt lat="33.8103132" lon="-118.3938671">
  <ele>-27.98</ele>
  <time>2026-09-01T01:13:28Z</time>
  <course>185.73</course>
  <speed>0.022360679774997897</speed>
  <fix>3d</fix>
</trkpt>
<trkpt lat="33.8103132" lon="-118.3938671">
  <ele>-28.042</ele>
  <time>2026-09-01T01:13:28Z</time>
  <course>185.73</course>
  <speed>0.022360679774997897</speed>
  <fix>3d</fix>
</trkpt>
<trkpt lat="33.810313" lon="-118.393867">
  <ele>-27.16</ele>
  <time>2026-09-01T01:13:28Z</time>
  <course>0.0</course>
  <speed>0.0</speed>
  <fix>3d</fix>
</trkpt>
<trkpt lat="33.8103132" lon="-118.3938671">
  <ele>-28.064</ele>
  <time>2026-09-01T01:13:28Z</time>
  <course>185.73</course>
  <speed>0.022360679774997897</speed>
  <fix>3d</fix>
</trkpt>
<trkpt lat="33.8103132" lon="-118.3938671">
  <ele>-28.104</ele>
  <time>2026-09-01T01:13:28Z</time>
  <course>185.72</course>
  <speed>0.022360679774997897</speed>
  <fix>3d</fix>
</trkpt>
<trkpt lat="33.810313" lon="-118.393867">
  <ele>-27.27</ele>
  <time>2026-09-01T01:13:28Z</time>
  <course>0.0</course>
  <speed>0.0</speed>
  <fix>3d</fix>
</trkpt>
<trkpt lat="33.8103132" lon="-118.3938671">
  <ele>-28.126</ele>
  <time>2026-09-01T01:13:28Z</time>
  <course>185.72</course>
  <speed>0.022360679774997897</speed>
  <fix>3d</fix>
</trkpt>
<trkpt lat="33.8103132" lon="-118.3938671">
  <ele>-28.166</ele>
  <time>2026-09-01T01:13:28Z</time>
  <course>185.72</course>
  <speed>0.022360679774997897</speed>
  <fix>3d</fix>
</trkpt>
<trkpt lat="33.810313" lon="-118.393867">
  <ele>-27.27</ele>
  <time>2026-09-01T01:13:28Z</time>
  <course>0.0</course>
  <speed>0.0</speed>
  <fix>3d</fix>
</trkpt>
<trkpt lat="33.8103132" lon="-118.3938671">
  <ele>-28.186</ele>
  <time>2026-09-01T01:13:28Z</time>
  <course>185.72</course>
  <speed>0.022360679774997897</speed>
  <fix>3d</fix>
</trkpt>
<trkpt lat="33.8103132" lon="-118.3938671">
  <ele>-28.227</ele>
  <time>2026-09-01T01:13:28Z</time>
  <course>185.72</course>
  <speed>0.022360679774997897</speed>
  <fix>3d</fix>
</trkpt>
<trkpt lat="33.810313" lon="-118.393867">
  <ele>-27.4</ele>
  <time>2026-09-01T01:13:28Z</time>
  <course>0.0</course>
  <speed>0.0</speed>
  <fix>3d</fix>
</trkpt>
<trkpt lat="33.8103132" lon="-118.3938671">
  <ele>-28.249</ele>
  <time>2026-09-01T01:13:28Z</time>
  <course>185.72</course>
  <speed>0.022360679774997897</speed>
  <fix>3d</fix>
</trkpt>
<trkpt lat="33.8103132" lon="-118.3938671">
  <ele>-28.289</ele>
  <time>2026-09-01T01:13:28Z</time>
  <course>185.71</course>
  <speed>0.022360679774997897</speed>
  <fix>3d</fix>
</trkpt>
<trkpt lat="33.810313" lon="-118.393867">
  <ele>-27.4</ele>
  <time>2026-09-01T01:13:28Z</time>
  <course>0.0</course>
  <speed>0.0</speed>
  <fix>3d</fix>
</trkpt>
<trkpt lat="33.8103132" lon="-118.3938671">
  <ele>-28.309</ele>
  <time>2026-09-01T01:13:28Z</time>
  <course>185.71</course>
  <speed>0.022360679774997897</speed>
  <fix>3d</fix>
</trkpt>
<trkpt lat="33.8103132" lon="-118.3938671">
  <ele>-28.35</ele>
  <time>2026-09-01T01:13:28Z</time>
  <course>185.71</course>
  <speed>0.022360679774997897</speed>
  <fix>3d</fix>
</trkpt>
<trkpt lat="33.810313" lon="-118.393867">
  <ele>-27.52</ele>
  <time>2026-09-01T01:13:28Z</time>
  <course>0.0</course>
  <speed>0.0</speed>
  <fix>3d</fix>
</trkpt>
<trkpt lat="33.8103132" lon="-118.3938671">
  <ele>-28.37</ele>
  <time>2026-09-01T01:13:28Z</time>
  <course>185.71</course>
  <speed>0.022360679774997897</speed>
  <fix>3d</fix>
</trkpt>
<trkpt lat="33.8103132" lon="-118.3938671">
  <ele>-28.411</ele>
  <time>2026-09-01T01:13:28Z</time>
  <course>185.71</course>
  <speed>0.022360679774997897</speed>
  <fix>3d</fix>
</trkpt>
<trkpt lat="33.810313" lon="-118.393867">
  <ele>-27.52</ele>
  <time>2026-09-01T01:13:28Z</time>
  <course>0.0</course>
  <speed>0.0</speed>
  <fix>3d</fix>
</trkpt>
<trkpt lat="33.8103132" lon="-118.3938671">
  <ele>-28.431</ele>
  <time>2026-09-01T01:13:28Z</time>
  <course>185.71</course>
  <speed>0.022360679774997897</speed>
  <fix>3d</fix>
</trkpt>
<trkpt lat="33.8103132" lon="-118.3938671">
  <ele>-28.473</ele>
  <time>2026-09-01T01:13:28Z</time>
  <course>185.7</course>
  <speed>0.022360679774997897</speed>
  <fix>3d</fix>
</trkpt>
<trkpt lat="33.810313" lon="-118.393867">
  <ele>-27.65</ele>
  <time>2026-09-01T01:13:28Z</time>
  <course>0.0</course>
  <speed>0.0</speed>
  <fix>3d</fix>
</trkpt>
<trkpt lat="33.8103132" lon="-118.3938671">
  <ele>-28.494</ele>
  <time>2026-09-01T01:13:28Z</time>
  <course>185.7</course>
  <speed>0.022360679774997897</speed>
  <fix>3d</fix>
</trkpt>
<trkpt lat="33.8103132" lon="-118.3938671">
  <ele>-28.534</ele>
  <time>2026-09-01T01:13:28Z</time>
  <course>185.7</course>
  <speed>0.022360679774997897</speed>
  <fix>3d</fix>
</trkpt>
<trkpt lat="33.810313" lon="-118.393867">
  <ele>-27.65</ele>
  <time>2026-09-01T01:13:28Z</time>
  <course>0.0</course>
  <speed>0.0</speed>
  <fix>3d</fix>
</trkpt>
<trkpt lat="33.8103132" lon="-118.3938671">
  <ele>-28.554</ele>
  <time>2026-09-01T01:13:28Z</time>
  <course>185.7</course>
  <speed>0.022360679774997897</speed>
  <fix>3d</fix>
</trkpt>
<trkpt lat="33.8103132" lon="-118.3938671">
  <ele>-28.596</ele>
  <time>2026-09-01T01:13:28Z</time>
  <course>185.7</course>
  <speed>0.022360679774997897</speed>
  <fix>3d</fix>
</trkpt>
<trkpt lat="33.810313" lon="-118.393867">
  <ele>-27.77</ele>
  <time>2026-09-01T01:13:28Z</time>
  <course>0.0</course>
  <speed>0.0</speed>
  <fix>3d</fix>
</trkpt>
<trkpt lat="33.8103132" lon="-118.3938671">
  <ele>-28.597</ele>
  <time>2026-09-01T01:13:28Z</time>
  <course>185.7</course>
  <speed>0.022360679774997897</speed>
  <fix>3d</fix>
</trkpt>
<trkpt lat="33.8103132" lon="-118.3938671">
  <ele>-28.656</ele>
  <time>2026-09-01T01:13:28Z</time>
  <course>185.69</course>
  <speed>0.022360679774997897</speed>
  <fix>3d</fix>
</trkpt>
<trkpt lat="33.810313" lon="-118.393867">
  <ele>-27.77</ele>
  <time>2026-09-01T01:13:28Z</time>
  <course>0.0</course>
  <speed>0.0</speed>
  <fix>3d</fix>
</trkpt>
<trkpt lat="33.8103132" lon="-118.3938671">
  <ele>-28.677</ele>
  <time>2026-09-01T01:13:28Z</time>
  <course>185.69</course>
  <speed>0.022360679774997897</speed>
  <fix>3d</fix>
</trkpt>
<trkpt lat="33.8103132" lon="-118.3938671">
  <ele>-28.715</ele>
  <time>2026-09-01T01:13:28Z</time>
  <course>185.69</course>
  <speed>0.022360679774997897</speed>
  <fix>3d</fix>
</trkpt>
<trkpt lat="33.810313" lon="-118.393867">
  <ele>-27.89</ele>
  <time>2026-09-01T01:13:28Z</time>
  <course>0.0</course>
  <speed>0.0</speed>
  <fix>3d</fix>
</trkpt>
<trkpt lat="33.8103132" lon="-118.3938671">
  <ele>-28.735</ele>
  <time>2026-09-01T01:13:28Z</time>
  <course>185.69</course>
  <speed>0.022360679774997897</speed>
  <fix>3d</fix>
</trkpt>
<trkpt lat="33.8103132" lon="-118.3938671">
  <ele>-28.774</ele>
  <time>2026-09-01T01:13:28Z</time>
  <course>185.69</course>
  <speed>0.022360679774997897</speed>
  <fix>3d</fix>
</trkpt>
<trkpt lat="33.810313" lon="-118.393867">
  <ele>-27.89</ele>
  <time>2026-09-01T01:13:28Z</time>
  <course>0.0</course>
  <speed>0.0</speed>
  <fix>3d</fix>
</trkpt>
<trkpt lat="33.8103132" lon="-118.3938671">
  <ele>-28.798</ele>
  <time>2026-09-01T01:13:28Z</time>
  <course>185.68</course>
  <speed>0.022360679774997897</speed>
  <fix>3d</fix>
</trkpt>
<trkpt lat="33.8103132" lon="-118.3938671">
  <ele>-28.833</ele>
  <time>2026-09-01T01:13:28Z</time>
  <course>185.68</course>
  <speed>0.022360679774997897</speed>
  <fix>3d</fix>
</trkpt>
<trkpt lat="33.810313" lon="-118.393867">
  <ele>-28.01</ele>
  <time>2026-09-01T01:13:28Z</time>
  <course>0.0</course>
  <speed>0.0</speed>
  <fix>3d</fix>
</trkpt>
<trkpt lat="33.8103132" lon="-118.3938671">
  <ele>-28.85</ele>
  <time>2026-09-01T01:13:28Z</time>
  <course>185.68</course>
  <speed>0.022360679774997897</speed>
  <fix>3d</fix>
</trkpt>
<trkpt lat="33.8103132" lon="-118.3938671">
  <ele>-28.893</ele>
  <time>2026-09-01T01:13:28Z</time>
  <course>185.68</course>
  <speed>0.022360679774997897</speed>
  <fix>3d</fix>
</trkpt>
<trkpt lat="33.810313" lon="-118.393867">
  <ele>-28.01</ele>
  <time>2026-09-01T01:13:28Z</time>
  <course>0.0</course>
  <speed>0.0</speed>
  <fix>3d</fix>
</trkpt>
<trkpt lat="33.8103132" lon="-118.3938671">
  <ele>-28.895</ele>
  <time>2026-09-01T01:13:28Z</time>
  <course>185.68</course>
  <speed>0.022360679774997897</speed>
  <fix>3d</fix>
</trkpt>
<trkpt lat="33.8103132" lon="-118.3938671">
  <ele>-28.954</ele>
  <time>2026-09-01T01:13:28Z</time>
  <course>185.68</course>
  <speed>0.022360679774997897</speed>
  <fix>3d</fix>
</trkpt>
<trkpt lat="33.810313" lon="-118.393867">
  <ele>-28.13</ele>
  <time>2026-09-01T01:13:28Z</time>
  <course>0.0</course>
  <speed>0.0</speed>
  <fix>3d</fix>
</trkpt>
<trkpt lat="33.8103132" lon="-118.3938671">
  <ele>-28.977</ele>
  <time>2026-09-01T01:13:28Z</time>
  <course>185.67</course>
  <speed>0.022360679774997897</speed>
  <fix>3d</fix>
</trkpt>
<trkpt lat="33.8103132" lon="-118.3938671">
  <ele>-29.016</ele>
  <time>2026-09-01T01:13:28Z</time>
  <course>185.67</course>
  <speed>0.022360679774997897</speed>
  <fix>3d</fix>
</trkpt>
<trkpt lat="33.810313" lon="-118.393867">
  <ele>-28.13</ele>
  <time>2026-09-01T01:13:28Z</time>
  <course>0.0</course>
  <speed>0.0</speed>
  <fix>3d</fix>
</trkpt>
<trkpt lat="33.8103132" lon="-118.3938671">
  <ele>-29.036</ele>
  <time>2026-09-01T01:13:28Z</time>
  <course>185.67</course>
  <speed>0.022360679774997897</speed>
  <fix>3d</fix>
</trkpt>
<trkpt lat="33.8103132" lon="-118.3938671">
  <ele>-29.078</ele>
  <time>2026-09-01T01:13:28Z</time>
  <course>185.67</course>
  <speed>0.022360679774997897</speed>
  <fix>3d</fix>
</trkpt>
<trkpt lat="33.810313" lon="-118.393867">
  <ele>-28.25</ele>
  <time>2026-09-01T01:13:28Z</time>
  <course>0.0</course>
  <speed>0.0</speed>
  <fix>3d</fix>
</trkpt>
<trkpt lat="33.8103132" lon="-118.3938671">
  <ele>-29.1</ele>
  <time>2026-09-01T01:13:28Z</time>
  <course>185.67</course>
  <speed>0.022360679774997897</speed>
  <fix>3d</fix>
</trkpt>
<trkpt lat="33.8103132" lon="-118.3938671">
  <ele>-29.14</ele>
  <time>2026-09-01T01:13:28Z</time>
  <course>185.67</course>
  <speed>0.022360679774997897</speed>
  <fix>3d</fix>
</trkpt>
<trkpt lat="33.810313" lon="-118.393867">
  <ele>-28.25</ele>
  <time>2026-09-01T01:13:28Z</time>
  <course>0.0</course>
  <speed>0.0</speed>
  <fix>3d</fix>
</trkpt>
<trkpt lat="33.8103132" lon="-118.3938671">
  <ele>-29.161</ele>
  <time>2026-09-01T01:13:28Z</time>
  <course>185.66</course>
  <speed>0.022360679774997897</speed>
  <fix>3d</fix>
</trkpt>
<trkpt lat="33.8103132" lon="-118.3938671">
  <ele>-29.201</ele>
  <time>2026-09-01T01:13:28Z</time>
  <course>185.66</course>
  <speed>0.022360679774997897</speed>
  <fix>3d</fix>
</trkpt>
<trkpt lat="33.810313" lon="-118.393867">
  <ele>-28.36</ele>
  <time>2026-09-01T01:13:28Z</time>
  <course>0.0</course>
  <speed>0.0</speed>
  <fix>3d</fix>
</trkpt>
<trkpt lat="33.8103132" lon="-118.3938671">
  <ele>-29.202</ele>
  <time>2026-09-01T01:13:28Z</time>
  <course>185.66</course>
  <speed>0.022360679774997897</speed>
  <fix>3d</fix>
</trkpt>
<trkpt lat="33.8103132" lon="-118.3938671">
  <ele>-29.262</ele>
  <time>2026-09-01T01:13:28Z</time>
  <course>185.66</course>
  <speed>0.022360679774997897</speed>
  <fix>3d</fix>
</trkpt>
<trkpt lat="33.810313" lon="-118.393867">
  <ele>-28.36</ele>
  <time>2026-09-01T01:13:28Z</time>
  <course>0.0</course>
  <speed>0.0</speed>
  <fix>3d</fix>
</trkpt>
<trkpt lat="33.8103132" lon="-118.3938671">
  <ele>-29.263</ele>
  <time>2026-09-01T01:13:28Z</time>
  <course>185.66</course>
  <speed>0.022360679774997897</speed>
  <fix>3d</fix>
</trkpt>
<trkpt lat="33.8103132" lon="-118.3938671">
  <ele>-29.323</ele>
  <time>2026-09-01T01:13:28Z</time>
  <course>185.66</course>
  <speed>0.022360679774997897</speed>
  <fix>3d</fix>
</trkpt>
<trkpt lat="33.810313" lon="-118.393867">
  <ele>-28.49</ele>
  <time>2026-09-01T01:13:28Z</time>
  <course>0.0</course>
  <speed>0.0</speed>
  <fix>3d</fix>
</trkpt>
<trkpt lat="33.8103132" lon="-118.3938671">
  <ele>-29.343</ele>
  <time>2026-09-01T01:13:28Z</time>
  <course>185.65</course>
  <speed>0.022360679774997897</speed>
  <fix>3d</fix>
</trkpt>
<trkpt lat="33.8103132" lon="-118.3938671">
  <ele>-29.384</ele>
  <time>2026-09-01T01:13:28Z</time>
  <course>185.65</course>
  <speed>0.022360679774997897</speed>
  <fix>3d</fix>
</trkpt>
<trkpt lat="33.810313" lon="-118.393867">
  <ele>-28.49</ele>
  <time>2026-09-01T01:13:28Z</time>
  <course>0.0</course>
  <speed>0.0</speed>
  <fix>3d</fix>
</trkpt>
<trkpt lat="33.8103132" lon="-118.3938671">
  <ele>-29.404</ele>
  <time>2026-09-01T01:13:28Z</time>
  <course>185.65</course>
  <speed>0.022360679774997897</speed>
  <fix>3d</fix>
</trkpt>
<trkpt lat="33.8103132" lon="-118.3938671">
  <ele>-29.446</ele>
  <time>2026-09-01T01:13:28Z</time>
  <course>185.65</course>
  <speed>0.022360679774997897</speed>
  <fix>3d</fix>
</trkpt>
<trkpt lat="33.810313" lon="-118.393867">
  <ele>-28.61</ele>
  <time>2026-09-01T01:13:28Z</time>
  <course>0.0</course>
  <speed>0.0</speed>
  <fix>3d</fix>
</trkpt>
<trkpt lat="33.8103132" lon="-118.3938671">
  <ele>-29.466</ele>
  <time>2026-09-01T01:13:28Z</time>
  <course>185.65</course>
  <speed>0.022360679774997897</speed>
  <fix>3d</fix>
</trkpt>
<trkpt lat="33.8103132" lon="-118.3938671">
  <ele>-29.507</ele>
  <time>2026-09-01T01:13:28Z</time>
  <course>185.65</course>
  <speed>0.022360679774997897</speed>
  <fix>3d</fix>
</trkpt>
<trkpt lat="33.810313" lon="-118.393867">
  <ele>-28.61</ele>
  <time>2026-09-01T01:13:28Z</time>
  <course>0.0</course>
  <speed>0.0</speed>
  <fix>3d</fix>
</trkpt>
<trkpt lat="33.8103132" lon="-118.3938671">
  <ele>-29.509</ele>
  <time>2026-09-01T01:13:28Z</time>
  <course>185.65</course>
  <speed>0.022360679774997897</speed>
  <fix>3d</fix>
</trkpt>
<trkpt lat="33.8103132" lon="-118.3938671">
  <ele>-29.569</ele>
  <time>2026-09-01T01:13:28Z</time>
  <course>185.64</course>
  <speed>0.022360679774997897</speed>
  <fix>3d</fix>
</trkpt>
<trkpt lat="33.810313" lon="-118.393867">
  <ele>-28.73</ele>
  <time>2026-09-01T01:13:28Z</time>
  <course>0.0</course>
  <speed>0.0</speed>
  <fix>3d</fix>
</trkpt>
<trkpt lat="33.8103132" lon="-118.3938671">
  <ele>-29.595</ele>
  <time>2026-09-01T01:13:28Z</time>
  <course>185.64</course>
  <speed>0.022360679774997897</speed>
  <fix>3d</fix>
</trkpt>
<trkpt lat="33.8103132" lon="-118.3938671">
  <ele>-29.631</ele>
  <time>2026-09-01T01:13:28Z</time>
  <course>185.64</course>
  <speed>0.022360679774997897</speed>
  <fix>3d</fix>
</trkpt>
<trkpt lat="33.810313" lon="-118.393867">
  <ele>-28.73</ele>
  <time>2026-09-01T01:13:28Z</time>
  <course>0.0</course>
  <speed>0.0</speed>
  <fix>3d</fix>
</trkpt>
<trkpt lat="33.8103132" lon="-118.3938671">
  <ele>-29.652</ele>
  <time>2026-09-01T01:13:28Z</time>
  <course>185.64</course>
  <speed>0.022360679774997897</speed>
  <fix>3d</fix>
</trkpt>
<trkpt lat="33.8103132" lon="-118.3938671">
  <ele>-29.693</ele>
  <time>2026-09-01T01:13:28Z</time>
  <course>185.64</course>
  <speed>0.022360679774997897</speed>
  <fix>3d</fix>
</trkpt>
<trkpt lat="33.810313" lon="-118.393867">
  <ele>-28.85</ele>
  <time>2026-09-01T01:13:28Z</time>
  <course>0.0</course>
  <speed>0.0</speed>
  <fix>3d</fix>
</trkpt>
<trkpt lat="33.8103132" lon="-118.3938671">
  <ele>-29.715</ele>
  <time>2026-09-01T01:13:28Z</time>
  <course>185.64</course>
  <speed>0.022360679774997897</speed>
  <fix>3d</fix>
</trkpt>
<trkpt lat="33.8103132" lon="-118.3938671">
  <ele>-29.756</ele>
  <time>2026-09-01T01:13:28Z</time>
  <course>185.63</course>
  <speed>0.022360679774997897</speed>
  <fix>3d</fix>
</trkpt>
<trkpt lat="33.810313" lon="-118.393867">
  <ele>-28.85</ele>
  <time>2026-09-01T01:13:28Z</time>
  <course>0.0</course>
  <speed>0.0</speed>
  <fix>3d</fix>
</trkpt>
<trkpt lat="33.8103132" lon="-118.3938671">
  <ele>-29.776</ele>
  <time>2026-09-01T01:13:28Z</time>
  <course>185.63</course>
  <speed>0.022360679774997897</speed>
  <fix>3d</fix>
</trkpt>
<trkpt lat="33.8103132" lon="-118.3938671">
  <ele>-29.818</ele>
  <time>2026-09-01T01:13:28Z</time>
  <course>185.63</course>
  <speed>0.022360679774997897</speed>
  <fix>3d</fix>
</trkpt>
<trkpt lat="33.810313" lon="-118.393867">
  <ele>-28.97</ele>
  <time>2026-09-01T01:13:28Z</time>
  <course>0.0</course>
  <speed>0.0</speed>
  <fix>3d</fix>
</trkpt>
<trkpt lat="33.8103132" lon="-118.3938671">
  <ele>-29.82</ele>
  <time>2026-09-01T01:13:28Z</time>
  <course>185.63</course>
  <speed>0.022360679774997897</speed>
  <fix>3d</fix>
</trkpt>
<trkpt lat="33.8103132" lon="-118.3938671">
  <ele>-29.881</ele>
  <time>2026-09-01T01:13:28Z</time>
  <course>185.63</course>
  <speed>0.022360679774997897</speed>
  <fix>3d</fix>
</trkpt>
<trkpt lat="33.810313" lon="-118.393867">
  <ele>-28.97</ele>
  <time>2026-09-01T01:13:28Z</time>
  <course>0.0</course>
  <speed>0.0</speed>
  <fix>3d</fix>
</trkpt>
<trkpt lat="33.8103132" lon="-118.3938671">
  <ele>-29.901</ele>
  <time>2026-09-01T01:13:28Z</time>
  <course>185.63</course>
  <speed>0.022360679774997897</speed>
  <fix>3d</fix>
</trkpt>
<trkpt lat="33.8103132" lon="-118.3938671">
  <ele>-29.944</ele>
  <time>2026-09-01T01:13:28Z</time>
  <course>185.62</course>
  <speed>0.022360679774997897</speed>
  <fix>3d</fix>
</trkpt>
<trkpt lat="33.810313" lon="-118.393867">
  <ele>-29.09</ele>
  <time>2026-09-01T01:13:28Z</time>
  <course>0.0</course>
  <speed>0.0</speed>
  <fix>3d</fix>
</trkpt>
<trkpt lat="33.8103132" lon="-118.3938671">
  <ele>-29.946</ele>
  <time>2026-09-01T01:13:28Z</time>
  <course>185.62</course>
  <speed>0.022360679774997897</speed>
  <fix>3d</fix>
</trkpt>
<trkpt lat="33.8103132" lon="-118.3938671">
  <ele>-30.007</ele>
  <time>2026-09-01T01:13:28Z</time>
  <course>185.62</course>
  <speed>0.022360679774997897</speed>
  <fix>3d</fix>
</trkpt>
<trkpt lat="33.810313" lon="-118.393867">
  <ele>-29.09</ele>
  <time>2026-09-01T01:13:28Z</time>
  <course>0.0</course>
  <speed>0.0</speed>
  <fix>3d</fix>
</trkpt>
<trkpt lat="33.8103132" lon="-118.3938671">
  <ele>-30.027</ele>
  <time>2026-09-01T01:13:28Z</time>
  <course>185.62</course>
  <speed>0.022360679774997897</speed>
  <fix>3d</fix>
</trkpt>
<trkpt lat="33.8103132" lon="-118.3938671">
  <ele>-30.069</ele>
  <time>2026-09-01T01:13:28Z</time>
  <course>185.62</course>
  <speed>0.022360679774997897</speed>
  <fix>3d</fix>
</trkpt>
<trkpt lat="33.810313" lon="-118.393867">
  <ele>-29.21</ele>
  <time>2026-09-01T01:13:28Z</time>
  <course>0.0</course>
  <speed>0.0</speed>
  <fix>3d</fix>
</trkpt>
<trkpt lat="33.8103132" lon="-118.3938671">
  <ele>-30.071</ele>
  <time>2026-09-01T01:13:28Z</time>
  <course>185.62</course>
  <speed>0.022360679774997897</speed>
  <fix>3d</fix>
</trkpt>
<trkpt lat="33.8103132" lon="-118.3938671">
  <ele>-30.131</ele>
  <time>2026-09-01T01:13:28Z</time>
  <course>185.61</course>
  <speed>0.022360679774997897</speed>
  <fix>3d</fix>
</trkpt>
<trkpt lat="33.810313" lon="-118.393867">
  <ele>-29.21</ele>
  <time>2026-09-01T01:13:28Z</time>
  <course>0.0</course>
  <speed>0.0</speed>
  <fix>3d</fix>
</trkpt>
<trkpt lat="33.8103132" lon="-118.3938671">
  <ele>-30.133</ele>
  <time>2026-09-01T01:13:28Z</time>
  <course>185.61</course>
  <speed>0.022360679774997897</speed>
  <fix>3d</fix>
</trkpt>
<trkpt lat="33.8103132" lon="-118.3938671">
  <ele>-30.194</ele>
  <time>2026-09-01T01:13:28Z</time>
  <course>185.61</course>
  <speed>0.022360679774997897</speed>
  <fix>3d</fix>
</trkpt>
<trkpt lat="33.810313" lon="-118.393867">
  <ele>-29.33</ele>
  <time>2026-09-01T01:13:28Z</time>
  <course>0.0</course>
  <speed>0.0</speed>
  <fix>3d</fix>
</trkpt>
<trkpt lat="33.8103132" lon="-118.3938671">
  <ele>-30.216</ele>
  <time>2026-09-01T01:13:28Z</time>
  <course>185.61</course>
  <speed>0.022360679774997897</speed>
  <fix>3d</fix>
</trkpt>
<trkpt lat="33.8103132" lon="-118.3938671">
  <ele>-30.257</ele>
  <time>2026-09-01T01:13:28Z</time>
  <course>185.61</course>
  <speed>0.022360679774997897</speed>
  <fix>3d</fix>
</trkpt>
<trkpt lat="33.810313" lon="-118.393867">
  <ele>-29.33</ele>
  <time>2026-09-01T01:13:28Z</time>
  <course>0.0</course>
  <speed>0.0</speed>
  <fix>3d</fix>
</trkpt>
<trkpt lat="33.8103132" lon="-118.3938671">
  <ele>-30.276</ele>
  <time>2026-09-01T01:13:28Z</time>
  <course>185.61</course>
  <speed>0.022360679774997897</speed>
  <fix>3d</fix>
</trkpt>
<trkpt lat="33.8103132" lon="-118.3938671">
  <ele>-30.319</ele>
  <time>2026-09-01T01:13:28Z</time>
  <course>185.6</course>
  <speed>0.022360679774997897</speed>
  <fix>3d</fix>
</trkpt>
<trkpt lat="33.810313" lon="-118.393867">
  <ele>-29.46</ele>
  <time>2026-09-01T01:13:28Z</time>
  <course>0.0</course>
  <speed>0.0</speed>
  <fix>3d</fix>
</trkpt>
<trkpt lat="33.8103132" lon="-118.3938671">
  <ele>-30.34</ele>
  <time>2026-09-01T01:13:28Z</time>
  <course>185.6</course>
  <speed>0.022360679774997897</speed>
  <fix>3d</fix>
</trkpt>
<trkpt lat="33.8103132" lon="-118.3938671">
  <ele>-30.381</ele>
  <time>2026-09-01T01:13:28Z</time>
  <course>185.6</course>
  <speed>0.022360679774997897</speed>
  <fix>3d</fix>
</trkpt>
<trkpt lat="33.810313" lon="-118.393867">
  <ele>-29.46</ele>
  <time>2026-09-01T01:13:28Z</time>
  <course>0.0</course>
  <speed>0.0</speed>
  <fix>3d</fix>
</trkpt>
<trkpt lat="33.8103132" lon="-118.3938671">
  <ele>-30.4</ele>
  <time>2026-09-01T01:13:28Z</time>
  <course>185.6</course>
  <speed>0.022360679774997897</speed>
  <fix>3d</fix>
</trkpt>
<trkpt lat="33.8103132" lon="-118.3938671">
  <ele>-30.443</ele>
  <time>2026-09-01T01:13:28Z</time>
  <course>185.6</course>
  <speed>0.022360679774997897</speed>
  <fix>3d</fix>
</trkpt>
<trkpt lat="33.810313" lon="-118.393867">
  <ele>-29.58</ele>
  <time>2026-09-01T01:13:28Z</time>
  <course>0.0</course>
  <speed>0.0</speed>
  <fix>3d</fix>
</trkpt>
<trkpt lat="33.8103132" lon="-118.3938671">
  <ele>-30.444</ele>
  <time>2026-09-01T01:13:28Z</time>
  <course>185.6</course>
  <speed>0.022360679774997897</speed>
  <fix>3d</fix>
</trkpt>
<trkpt lat="33.8103132" lon="-118.3938671">
  <ele>-30.504</ele>
  <time>2026-09-01T01:13:28Z</time>
  <course>185.59</course>
  <speed>0.022360679774997897</speed>
  <fix>3d</fix>
</trkpt>
<trkpt lat="33.810313" lon="-118.393867">
  <ele>-29.58</ele>
  <time>2026-09-01T01:13:28Z</time>
  <course>0.0</course>
  <speed>0.0</speed>
  <fix>3d</fix>
</trkpt>
<trkpt lat="33.8103132" lon="-118.3938671">
  <ele>-30.529</ele>
  <time>2026-09-01T01:13:28Z</time>
  <course>185.59</course>
  <speed>0.022360679774997897</speed>
  <fix>3d</fix>
</trkpt>
<trkpt lat="33.8103132" lon="-118.3938671">
  <ele>-30.565</ele>
  <time>2026-09-01T01:13:28Z</time>
  <course>185.59</course>
  <speed>0.022360679774997897</speed>
  <fix>3d</fix>
</trkpt>
<trkpt lat="33.810313" lon="-118.393867">
  <ele>-29.7</ele>
  <time>2026-09-01T01:13:28Z</time>
  <course>0.0</course>
  <speed>0.0</speed>
  <fix>3d</fix>
</trkpt>
<trkpt lat="33.8103132" lon="-118.3938671">
  <ele>-30.585</ele>
  <time>2026-09-01T01:13:28Z</time>
  <course>185.59</course>
  <speed>0.022360679774997897</speed>
  <fix>3d</fix>
</trkpt>
<trkpt lat="33.8103132" lon="-118.3938671">
  <ele>-30.627</ele>
  <time>2026-09-01T01:13:28Z</time>
  <course>185.59</course>
  <speed>0.022360679774997897</speed>
  <fix>3d</fix>
</trkpt>
<trkpt lat="33.810313" lon="-118.393867">
  <ele>-29.7</ele>
  <time>2026-09-01T01:13:28Z</time>
  <course>0.0</course>
  <speed>0.0</speed>
  <fix>3d</fix>
</trkpt>
<trkpt lat="33.8103132" lon="-118.3938671">
  <ele>-30.628</ele>
  <time>2026-09-01T01:13:28Z</time>
  <course>185.59</course>
  <speed>0.022360679774997897</speed>
  <fix>3d</fix>
</trkpt>
<trkpt lat="33.8103132" lon="-118.3938671">
  <ele>-30.688</ele>
  <time>2026-09-01T01:13:28Z</time>
  <course>185.58</course>
  <speed>0.022360679774997897</speed>
  <fix>3d</fix>
</trkpt>
<trkpt lat="33.810313" lon="-118.393867">
  <ele>-29.82</ele>
  <time>2026-09-01T01:13:28Z</time>
  <course>0.0</course>
  <speed>0.0</speed>
  <fix>3d</fix>
</trkpt>
<trkpt lat="33.8103132" lon="-118.3938671">
  <ele>-30.709</ele>
  <time>2026-09-01T01:13:28Z</time>
  <course>185.58</course>
  <speed>0.022360679774997897</speed>
  <fix>3d</fix>
</trkpt>
<trkpt lat="33.8103132" lon="-118.3938671">
  <ele>-30.748</ele>
  <time>2026-09-01T01:13:28Z</time>
  <course>185.58</course>
  <speed>0.022360679774997897</speed>
  <fix>3d</fix>
</trkpt>
<trkpt lat="33.810313" lon="-118.393867">
  <ele>-29.82</ele>
  <time>2026-09-01T01:13:28Z</time>
  <course>0.0</course>
  <speed>0.0</speed>
  <fix>3d</fix>
</trkpt>
<trkpt lat="33.8103132" lon="-118.3938671">
  <ele>-30.75</ele>
  <time>2026-09-01T01:13:28Z</time>
  <course>185.58</course>
  <speed>0.022360679774997897</speed>
  <fix>3d</fix>
</trkpt>
<trkpt lat="33.8103132" lon="-118.3938671">
  <ele>-30.809</ele>
  <time>2026-09-01T01:13:28Z</time>
  <course>185.58</course>
  <speed>0.022360679774997897</speed>
  <fix>3d</fix>
</trkpt>
<trkpt lat="33.810313" lon="-118.393867">
  <ele>-29.93</ele>
  <time>2026-09-01T01:13:28Z</time>
  <course>0.0</course>
  <speed>0.0</speed>
  <fix>3d</fix>
</trkpt>
<trkpt lat="33.8103132" lon="-118.3938671">
  <ele>-30.81</ele>
  <time>2026-09-01T01:13:28Z</time>
  <course>185.58</course>
  <speed>0.022360679774997897</speed>
  <fix>3d</fix>
</trkpt>
<trkpt lat="33.8103132" lon="-118.3938671">
  <ele>-30.869</ele>
  <time>2026-09-01T01:13:28Z</time>
  <course>185.58</course>
  <speed>0.022360679774997897</speed>
  <fix>3d</fix>
</trkpt>
<trkpt lat="33.810313" lon="-118.393867">
  <ele>-29.93</ele>
  <time>2026-09-01T01:13:28Z</time>
  <course>0.0</course>
  <speed>0.0</speed>
  <fix>3d</fix>
</trkpt>
<trkpt lat="33.8103132" lon="-118.3938671">
  <ele>-30.87</ele>
  <time>2026-09-01T01:13:28Z</time>
  <course>185.57</course>
  <speed>0.022360679774997897</speed>
  <fix>3d</fix>
</trkpt>
<trkpt lat="33.8103132" lon="-118.3938671">
  <ele>-30.93</ele>
  <time>2026-09-01T01:13:28Z</time>
  <course>185.57</course>
  <speed>0.022360679774997897</speed>
  <fix>3d</fix>
</trkpt>
<trkpt lat="33.810313" lon="-118.393867">
  <ele>-30.06</ele>
  <time>2026-09-01T01:13:28Z</time>
  <course>0.0</course>
  <speed>0.0</speed>
  <fix>3d</fix>
</trkpt>
<trkpt lat="33.8103132" lon="-118.3938671">
  <ele>-30.931</ele>
  <time>2026-09-01T01:13:28Z</time>
  <course>185.57</course>
  <speed>0.022360679774997897</speed>
  <fix>3d</fix>
</trkpt>
<trkpt lat="33.8103132" lon="-118.3938671">
  <ele>-30.99</ele>
  <time>2026-09-01T01:13:28Z</time>
  <course>185.57</course>
  <speed>0.022360679774997897</speed>
  <fix>3d</fix>
</trkpt>
<trkpt lat="33.810313" lon="-118.393867">
  <ele>-30.06</ele>
  <time>2026-09-01T01:13:28Z</time>
  <course>0.0</course>
  <speed>0.0</speed>
  <fix>3d</fix>
</trkpt>
<trkpt lat="33.8103132" lon="-118.3938671">
  <ele>-31.01</ele>
  <time>2026-09-01T01:13:28Z</time>
  <course>185.57</course>
  <speed>0.022360679774997897</speed>
  <fix>3d</fix>
</trkpt>
<trkpt lat="33.8103132" lon="-118.3938671">
  <ele>-31.052</ele>
  <time>2026-09-01T01:13:28Z</time>
  <course>185.57</course>
  <speed>0.022360679774997897</speed>
  <fix>3d</fix>
</trkpt>
<trkpt lat="33.810313" lon="-118.393867">
  <ele>-30.18</ele>
  <time>2026-09-01T01:13:28Z</time>
  <course>0.0</course>
  <speed>0.0</speed>
  <fix>3d</fix>
</trkpt>
<trkpt lat="33.8103132" lon="-118.3938671">
  <ele>-31.053</ele>
  <time>2026-09-01T01:13:28Z</time>
  <course>185.57</course>
  <speed>0.022360679774997897</speed>
  <fix>3d</fix>
</trkpt>
<trkpt lat="33.8103132" lon="-118.3938671">
  <ele>-31.114</ele>
  <time>2026-09-01T01:13:28Z</time>
  <course>185.56</course>
  <speed>0.022360679774997897</speed>
  <fix>3d</fix>
</trkpt>
<trkpt lat="33.810313" lon="-118.393867">
  <ele>-30.18</ele>
  <time>2026-09-01T01:13:28Z</time>
  <course>0.0</course>
  <speed>0.0</speed>
  <fix>3d</fix>
</trkpt>
<trkpt lat="33.8103132" lon="-118.3938671">
  <ele>-31.135</ele>
  <time>2026-09-01T01:13:28Z</time>
  <course>185.56</course>
  <speed>0.022360679774997897</speed>
  <fix>3d</fix>
</trkpt>
<trkpt lat="33.8103132" lon="-118.3938671">
  <ele>-31.176</ele>
  <time>2026-09-01T01:13:28Z</time>
  <course>185.56</course>
  <speed>0.022360679774997897</speed>
  <fix>3d</fix>
</trkpt>
<trkpt lat="33.810313" lon="-118.393867">
  <ele>-30.3</ele>
  <time>2026-09-01T01:13:28Z</time>
  <course>0.0</course>
  <speed>0.0</speed>
  <fix>3d</fix>
</trkpt>
<trkpt lat="33.8103132" lon="-118.3938671">
  <ele>-31.198</ele>
  <time>2026-09-01T01:13:28Z</time>
  <course>185.56</course>
  <speed>0.022360679774997897</speed>
  <fix>3d</fix>
</trkpt>
<trkpt lat="33.8103132" lon="-118.3938671">
  <ele>-31.238</ele>
  <time>2026-09-01T01:13:28Z</time>
  <course>185.56</course>
  <speed>0.022360679774997897</speed>
  <fix>3d</fix>
</trkpt>
<trkpt lat="33.810313" lon="-118.393867">
  <ele>-30.3</ele>
  <time>2026-09-01T01:13:28Z</time>
  <course>0.0</course>
  <speed>0.0</speed>
  <fix>3d</fix>
</trkpt>
<trkpt lat="33.8103132" lon="-118.3938671">
  <ele>-31.239</ele>
  <time>2026-09-01T01:13:28Z</time>
  <course>185.56</course>
  <speed>0.022360679774997897</speed>
  <fix>3d</fix>
</trkpt>
<trkpt lat="33.8103132" lon="-118.3938671">
  <ele>-31.299</ele>
  <time>2026-09-01T01:13:28Z</time>
  <course>185.55</course>
  <speed>0.022360679774997897</speed>
  <fix>3d</fix>
</trkpt>
<trkpt lat="33.810313" lon="-118.393867">
  <ele>-30.42</ele>
  <time>2026-09-01T01:13:28Z</time>
  <course>0.0</course>
  <speed>0.0</speed>
  <fix>3d</fix>
</trkpt>
<trkpt lat="33.8103132" lon="-118.3938671">
  <ele>-31.319</ele>
  <time>2026-09-01T01:13:28Z</time>
  <course>185.55</course>
  <speed>0.022360679774997897</speed>
  <fix>3d</fix>
</trkpt>
<trkpt lat="33.8103132" lon="-118.3938671">
  <ele>-31.36</ele>
  <time>2026-09-01T01:13:28Z</time>
  <course>185.55</course>
  <speed>0.022360679774997897</speed>
  <fix>3d</fix>
</trkpt>
<trkpt lat="33.810313" lon="-118.393867">
  <ele>-30.42</ele>
  <time>2026-09-01T01:13:28Z</time>
  <course>0.0</course>
  <speed>0.0</speed>
  <fix>3d</fix>
</trkpt>
<trkpt lat="33.8103132" lon="-118.3938671">
  <ele>-31.361</ele>
  <time>2026-09-01T01:13:28Z</time>
  <course>185.55</course>
  <speed>0.022360679774997897</speed>
  <fix>3d</fix>
</trkpt>
<trkpt lat="33.8103132" lon="-118.3938671">
  <ele>-31.421</ele>
  <time>2026-09-01T01:13:28Z</time>
  <course>185.55</course>
  <speed>0.022360679774997897</speed>
  <fix>3d</fix>
</trkpt>
<trkpt lat="33.810313" lon="-118.393867">
  <ele>-30.54</ele>
  <time>2026-09-01T01:13:28Z</time>
  <course>0.0</course>
  <speed>0.0</speed>
  <fix>3d</fix>
</trkpt>
<trkpt lat="33.8103132" lon="-118.3938671">
  <ele>-31.441</ele>
  <time>2026-09-01T01:13:28Z</time>
  <course>185.55</course>
  <speed>0.022360679774997897</speed>
  <fix>3d</fix>
</trkpt>
<trkpt lat="33.8103132" lon="-118.3938671">
  <ele>-31.483</ele>
  <time>2026-09-01T01:13:28Z</time>
  <course>185.54</course>
  <speed>0.022360679774997897</speed>
  <fix>3d</fix>
</trkpt>
<trkpt lat="33.810313" lon="-118.393867">
  <ele>-30.54</ele>
  <time>2026-09-01T01:13:28Z</time>
  <course>0.0</course>
  <speed>0.0</speed>
  <fix>3d</fix>
</trkpt>
<trkpt lat="33.8103132" lon="-118.3938671">
  <ele>-31.503</ele>
  <time>2026-09-01T01:13:28Z</time>
  <course>185.54</course>
  <speed>0.022360679774997897</speed>
  <fix>3d</fix>
</trkpt>
<trkpt lat="33.8103132" lon="-118.3938671">
  <ele>-31.545</ele>
  <time>2026-09-01T01:13:28Z</time>
  <course>185.54</course>
  <speed>0.022360679774997897</speed>
  <fix>3d</fix>
</trkpt>
<trkpt lat="33.810313" lon="-118.393867">
  <ele>-30.66</ele>
  <time>2026-09-01T01:13:28Z</time>
  <course>0.0</course>
  <speed>0.0</speed>
  <fix>3d</fix>
</trkpt>
<trkpt lat="33.8103132" lon="-118.3938671">
  <ele>-31.565</ele>
  <time>2026-09-01T01:13:28Z</time>
  <course>185.54</course>
  <speed>0.022360679774997897</speed>
  <fix>3d</fix>
</trkpt>
<trkpt lat="33.8103132" lon="-118.3938671">
  <ele>-31.607</ele>
  <time>2026-09-01T01:13:28Z</time>
  <course>185.54</course>
  <speed>0.022360679774997897</speed>
  <fix>3d</fix>
</trkpt>
<trkpt lat="33.810313" lon="-118.393867">
  <ele>-30.66</ele>
  <time>2026-09-01T01:13:28Z</time>
  <course>0.0</course>
  <speed>0.0</speed>
  <fix>3d</fix>
</trkpt>
<trkpt lat="33.8103132" lon="-118.3938671">
  <ele>-31.628</ele>
  <time>2026-09-01T01:13:28Z</time>
  <course>185.54</course>
  <speed>0.022360679774997897</speed>
  <fix>3d</fix>
</trkpt>
<trkpt lat="33.8103132" lon="-118.3938671">
  <ele>-31.668</ele>
  <time>2026-09-01T01:13:28Z</time>
  <course>185.54</course>
  <speed>0.022360679774997897</speed>
  <fix>3d</fix>
</trkpt>
<trkpt lat="33.810313" lon="-118.393867">
  <ele>-30.77</ele>
  <time>2026-09-01T01:13:28Z</time>
  <course>0.0</course>
  <speed>0.0</speed>
  <fix>3d</fix>
</trkpt>
<trkpt lat="33.8103132" lon="-118.3938671">
  <ele>-31.669</ele>
  <time>2026-09-01T01:13:28Z</time>
  <course>185.54</course>
  <speed>0.022360679774997897</speed>
  <fix>3d</fix>
</trkpt>
<trkpt lat="33.8103132" lon="-118.3938671">
  <ele>-31.73</ele>
  <time>2026-09-01T01:13:28Z</time>
  <course>185.53</course>
  <speed>0.022360679774997897</speed>
  <fix>3d</fix>
</trkpt>
<trkpt lat="33.810313" lon="-118.393867">
  <ele>-30.77</ele>
  <time>2026-09-01T01:13:28Z</time>
  <course>0.0</course>
  <speed>0.0</speed>
  <fix>3d</fix>
</trkpt>
<trkpt lat="33.8103132" lon="-118.3938671">
  <ele>-31.75</ele>
  <time>2026-09-01T01:13:28Z</time>
  <course>185.53</course>
  <speed>0.022360679774997897</speed>
  <fix>3d</fix>
</trkpt>
<trkpt lat="33.8103132" lon="-118.3938671">
  <ele>-31.792</ele>
  <time>2026-09-01T01:13:28Z</time>
  <course>185.53</course>
  <speed>0.022360679774997897</speed>
  <fix>3d</fix>
</trkpt>
<trkpt lat="33.810313" lon="-118.393867">
  <ele>-30.9</ele>
  <time>2026-09-01T01:13:28Z</time>
  <course>0.0</course>
  <speed>0.0</speed>
  <fix>3d</fix>
</trkpt>
<trkpt lat="33.8103132" lon="-118.3938671">
  <ele>-31.813</ele>
  <time>2026-09-01T01:13:28Z</time>
  <course>185.53</course>
  <speed>0.022360679774997897</speed>
  <fix>3d</fix>
</trkpt>
<trkpt lat="33.8103132" lon="-118.3938671">
  <ele>-31.853</ele>
  <time>2026-09-01T01:13:28Z</time>
  <course>185.53</course>
  <speed>0.022360679774997897</speed>
  <fix>3d</fix>
</trkpt>
<trkpt lat="33.810313" lon="-118.393867">
  <ele>-30.9</ele>
  <time>2026-09-01T01:13:28Z</time>
  <course>0.0</course>
  <speed>0.0</speed>
  <fix>3d</fix>
</trkpt>
<trkpt lat="33.8103132" lon="-118.3938671">
  <ele>-31.872</ele>
  <time>2026-09-01T01:13:28Z</time>
  <course>185.53</course>
  <speed>0.022360679774997897</speed>
  <fix>3d</fix>
</trkpt>
<trkpt lat="33.8103132" lon="-118.3938671">
  <ele>-31.914</ele>
  <time>2026-09-01T01:13:28Z</time>
  <course>185.52</course>
  <speed>0.022360679774997897</speed>
  <fix>3d</fix>
</trkpt>
<trkpt lat="33.810313" lon="-118.393867">
  <ele>-31.02</ele>
  <time>2026-09-01T01:13:28Z</time>
  <course>0.0</course>
  <speed>0.0</speed>
  <fix>3d</fix>
</trkpt>
<trkpt lat="33.8103132" lon="-118.3938671">
  <ele>-31.915</ele>
  <time>2026-09-01T01:13:28Z</time>
  <course>185.52</course>
  <speed>0.022360679774997897</speed>
  <fix>3d</fix>
</trkpt>
<trkpt lat="33.8103132" lon="-118.3938671">
  <ele>-31.974</ele>
  <time>2026-09-01T01:13:28Z</time>
  <course>185.52</course>
  <speed>0.022360679774997897</speed>
  <fix>3d</fix>
</trkpt>
<trkpt lat="33.810313" lon="-118.393867">
  <ele>-31.02</ele>
  <time>2026-09-01T01:13:28Z</time>
  <course>0.0</course>
  <speed>0.0</speed>
  <fix>3d</fix>
</trkpt>
<trkpt lat="33.8103132" lon="-118.3938671">
  <ele>-31.976</ele>
  <time>2026-09-01T01:13:28Z</time>
  <course>185.52</course>
  <speed>0.022360679774997897</speed>
  <fix>3d</fix>
</trkpt>
<trkpt lat="33.8103132" lon="-118.3938671">
  <ele>-32.035</ele>
  <time>2026-09-01T01:13:28Z</time>
  <course>185.52</course>
  <speed>0.022360679774997897</speed>
  <fix>3d</fix>
</trkpt>
<trkpt lat="33.810313" lon="-118.393867">
  <ele>-31.14</ele>
  <time>2026-09-01T01:13:28Z</time>
  <course>0.0</course>
  <speed>0.0</speed>
  <fix>3d</fix>
</trkpt>
<trkpt lat="33.8103132" lon="-118.3938671">
  <ele>-32.054</ele>
  <time>2026-09-01T01:13:28Z</time>
  <course>185.52</course>
  <speed>0.022360679774997897</speed>
  <fix>3d</fix>
</trkpt>
<trkpt lat="33.8103132" lon="-118.3938671">
  <ele>-32.096</ele>
  <time>2026-09-01T01:13:28Z</time>
  <course>185.52</course>
  <speed>0.022360679774997897</speed>
  <fix>3d</fix>
</trkpt>
<trkpt lat="33.810313" lon="-118.393867">
  <ele>-31.14</ele>
  <time>2026-09-01T01:13:28Z</time>
  <course>0.0</course>
  <speed>0.0</speed>
  <fix>3d</fix>
</trkpt>
<trkpt lat="33.8103132" lon="-118.3938671">
  <ele>-32.116</ele>
  <time>2026-09-01T01:13:28Z</time>
  <course>185.52</course>
  <speed>0.022360679774997897</speed>
  <fix>3d</fix>
</trkpt>
<trkpt lat="33.8103132" lon="-118.3938671">
  <ele>-32.158</ele>
  <time>2026-09-01T01:13:28Z</time>
  <course>185.51</course>
  <speed>0.022360679774997897</speed>
  <fix>3d</fix>
</trkpt>
<trkpt lat="33.810313" lon="-118.393867">
  <ele>-31.27</ele>
  <time>2026-09-01T01:13:28Z</time>
  <course>0.0</course>
  <speed>0.0</speed>
  <fix>3d</fix>
</trkpt>
<trkpt lat="33.8103132" lon="-118.3938671">
  <ele>-32.179</ele>
  <time>2026-09-01T01:13:28Z</time>
  <course>185.51</course>
  <speed>0.022360679774997897</speed>
  <fix>3d</fix>
</trkpt>
<trkpt lat="33.8103132" lon="-118.3938671">
  <ele>-32.221</ele>
  <time>2026-09-01T01:13:28Z</time>
  <course>185.51</course>
  <speed>0.022360679774997897</speed>
  <fix>3d</fix>
</trkpt>
<trkpt lat="33.810313" lon="-118.393867">
  <ele>-31.27</ele>
  <time>2026-09-01T01:13:28Z</time>
  <course>0.0</course>
  <speed>0.0</speed>
  <fix>3d</fix>
</trkpt>
<trkpt lat="33.8103132" lon="-118.3938671">
  <ele>-32.24</ele>
  <time>2026-09-01T01:13:28Z</time>
  <course>185.51</course>
  <speed>0.022360679774997897</speed>
  <fix>3d</fix>
</trkpt>
<trkpt lat="33.8103132" lon="-118.3938671">
  <ele>-32.284</ele>
  <time>2026-09-01T01:13:28Z</time>
  <course>185.51</course>
  <speed>0.022360679774997897</speed>
  <fix>3d</fix>
</trkpt>
<trkpt lat="33.810313" lon="-118.393867">
  <ele>-31.39</ele>
  <time>2026-09-01T01:13:28Z</time>
  <course>0.0</course>
  <speed>0.0</speed>
  <fix>3d</fix>
</trkpt>
<trkpt lat="33.8103132" lon="-118.3938671">
  <ele>-32.285</ele>
  <time>2026-09-01T01:13:28Z</time>
  <course>185.51</course>
  <speed>0.022360679774997897</speed>
  <fix>3d</fix>
</trkpt>
<trkpt lat="33.8103132" lon="-118.3938671">
  <ele>-32.346</ele>
  <time>2026-09-01T01:13:28Z</time>
  <course>185.51</course>
  <speed>0.022360679774997897</speed>
  <fix>3d</fix>
</trkpt>
<trkpt lat="33.810313" lon="-118.393867">
  <ele>-31.39</ele>
  <time>2026-09-01T01:13:28Z</time>
  <course>0.0</course>
  <speed>0.0</speed>
  <fix>3d</fix>
</trkpt>
<trkpt lat="33.8103132" lon="-118.3938671">
  <ele>-32.367</ele>
  <time>2026-09-01T01:13:28Z</time>
  <course>185.5</course>
  <speed>0.022360679774997897</speed>
  <fix>3d</fix>
</trkpt>
<trkpt lat="33.8103132" lon="-118.3938671">
  <ele>-32.408</ele>
  <time>2026-09-01T01:13:28Z</time>
  <course>185.5</course>
  <speed>0.022360679774997897</speed>
  <fix>3d</fix>
</trkpt>
<trkpt lat="33.810313" lon="-118.393867">
  <ele>-31.51</ele>
  <time>2026-09-01T01:13:28Z</time>
  <course>0.0</course>
  <speed>0.0</speed>
  <fix>3d</fix>
</trkpt>
<trkpt lat="33.8103132" lon="-118.3938671">
  <ele>-32.41</ele>
  <time>2026-09-01T01:13:28Z</time>
  <course>185.5</course>
  <speed>0.022360679774997897</speed>
  <fix>3d</fix>
</trkpt>
<trkpt lat="33.8103132" lon="-118.3938671">
  <ele>-32.469</ele>
  <time>2026-09-01T01:13:28Z</time>
  <course>185.5</course>
  <speed>0.022360679774997897</speed>
  <fix>3d</fix>
</trkpt>
<trkpt lat="33.810313" lon="-118.393867">
  <ele>-31.51</ele>
  <time>2026-09-01T01:13:28Z</time>
  <course>0.0</course>
  <speed>0.0</speed>
  <fix>3d</fix>
</trkpt>
<trkpt lat="33.8103132" lon="-118.3938671">
  <ele>-32.489</ele>
  <time>2026-09-01T01:13:28Z</time>
  <course>185.5</course>
  <speed>0.022360679774997897</speed>
  <fix>3d</fix>
</trkpt>
<trkpt lat="33.8103132" lon="-118.3938671">
  <ele>-32.53</ele>
  <time>2026-09-01T01:13:28Z</time>
  <course>185.5</course>
  <speed>0.022360679774997897</speed>
  <fix>3d</fix>
</trkpt>
<trkpt lat="33.810313" lon="-118.393867">
  <ele>-31.63</ele>
  <time>2026-09-01T01:13:28Z</time>
  <course>0.0</course>
  <speed>0.0</speed>
  <fix>3d</fix>
</trkpt>
<trkpt lat="33.8103132" lon="-118.3938671">
  <ele>-32.532</ele>
  <time>2026-09-01T01:13:28Z</time>
  <course>185.5</course>
  <speed>0.022360679774997897</speed>
  <fix>3d</fix>
</trkpt>
<trkpt lat="33.8103132" lon="-118.3938671">
  <ele>-32.591</ele>
  <time>2026-09-01T01:13:28Z</time>
  <course>185.49</course>
  <speed>0.022360679774997897</speed>
  <fix>3d</fix>
</trkpt>
<trkpt lat="33.810313" lon="-118.393867">
  <ele>-31.63</ele>
  <time>2026-09-01T01:13:28Z</time>
  <course>0.0</course>
  <speed>0.0</speed>
  <fix>3d</fix>
</trkpt>
<trkpt lat="33.8103132" lon="-118.3938671">
  <ele>-32.593</ele>
  <time>2026-09-01T01:13:28Z</time>
  <course>185.49</course>
  <speed>0.022360679774997897</speed>
  <fix>3d</fix>
</trkpt>
<trkpt lat="33.8103132" lon="-118.3938671">
  <ele>-32.653</ele>
  <time>2026-09-01T01:13:28Z</time>
  <course>185.49</course>
  <speed>0.022360679774997897</speed>
  <fix>3d</fix>
</trkpt>
<trkpt lat="33.810313" lon="-118.393867">
  <ele>-31.75</ele>
  <time>2026-09-01T01:13:28Z</time>
  <course>0.0</course>
  <speed>0.0</speed>
  <fix>3d</fix>
</trkpt>
<trkpt lat="33.8103132" lon="-118.3938671">
  <ele>-32.673</ele>
  <time>2026-09-01T01:13:28Z</time>
  <course>185.49</course>
  <speed>0.022360679774997897</speed>
  <fix>3d</fix>
</trkpt>
<trkpt lat="33.8103132" lon="-118.3938671">
  <ele>-32.714</ele>
  <time>2026-09-01T01:13:28Z</time>
  <course>185.49</course>
  <speed>0.022360679774997897</speed>
  <fix>3d</fix>
</trkpt>
<trkpt lat="33.810313" lon="-118.393867">
  <ele>-31.75</ele>
  <time>2026-09-01T01:13:28Z</time>
  <course>0.0</course>
  <speed>0.0</speed>
  <fix>3d</fix>
</trkpt>
<trkpt lat="33.8103132" lon="-118.3938671">
  <ele>-32.739</ele>
  <time>2026-09-01T01:13:28Z</time>
  <course>185.49</course>
  <speed>0.022360679774997897</speed>
  <fix>3d</fix>
</trkpt>
<trkpt lat="33.8103132" lon="-118.3938671">
  <ele>-32.776</ele>
  <time>2026-09-01T01:13:28Z</time>
  <course>185.49</course>
  <speed>0.022360679774997897</speed>
  <fix>3d</fix>
</trkpt>
<trkpt lat="33.810313" lon="-118.393867">
  <ele>-31.86</ele>
  <time>2026-09-01T01:13:28Z</time>
  <course>0.0</course>
  <speed>0.0</speed>
  <fix>3d</fix>
</trkpt>
<trkpt lat="33.8103132" lon="-118.3938671">
  <ele>-32.796</ele>
  <time>2026-09-01T01:13:28Z</time>
  <course>185.49</course>
  <speed>0.022360679774997897</speed>
  <fix>3d</fix>
</trkpt>
<trkpt lat="33.8103132" lon="-118.3938671">
  <ele>-32.837</ele>
  <time>2026-09-01T01:13:28Z</time>
  <course>185.48</course>
  <speed>0.022360679774997897</speed>
  <fix>3d</fix>
</trkpt>
<trkpt lat="33.810313" lon="-118.393867">
  <ele>-31.86</ele>
  <time>2026-09-01T01:13:28Z</time>
  <course>0.0</course>
  <speed>0.0</speed>
  <fix>3d</fix>
</trkpt>
<trkpt lat="33.8103132" lon="-118.3938671">
  <ele>-32.859</ele>
  <time>2026-09-01T01:13:28Z</time>
  <course>185.48</course>
  <speed>0.022360679774997897</speed>
  <fix>3d</fix>
</trkpt>
<trkpt lat="33.8103132" lon="-118.3938671">
  <ele>-32.9</ele>
  <time>2026-09-01T01:13:28Z</time>
  <course>185.48</course>
  <speed>0.022360679774997897</speed>
  <fix>3d</fix>
</trkpt>
<trkpt lat="33.810313" lon="-118.393867">
  <ele>-31.99</ele>
  <time>2026-09-01T01:13:28Z</time>
  <course>0.0</course>
  <speed>0.0</speed>
  <fix>3d</fix>
</trkpt>
<trkpt lat="33.8103132" lon="-118.3938671">
  <ele>-32.901</ele>
  <time>2026-09-01T01:13:28Z</time>
  <course>185.48</course>
  <speed>0.022360679774997897</speed>
  <fix>3d</fix>
</trkpt>
<trkpt lat="33.8103132" lon="-118.3938671">
  <ele>-32.963</ele>
  <time>2026-09-01T01:13:28Z</time>
  <course>185.48</course>
  <speed>0.022360679774997897</speed>
  <fix>3d</fix>
</trkpt>
<trkpt lat="33.810313" lon="-118.393867">
  <ele>-31.99</ele>
  <time>2026-09-01T01:13:28Z</time>
  <course>0.0</course>
  <speed>0.0</speed>
  <fix>3d</fix>
</trkpt>
<trkpt lat="33.8103132" lon="-118.3938671">
  <ele>-32.983</ele>
  <time>2026-09-01T01:13:28Z</time>
  <course>185.48</course>
  <speed>0.022360679774997897</speed>
  <fix>3d</fix>
</trkpt>
<trkpt lat="33.8103132" lon="-118.3938671">
  <ele>-33.026</ele>
  <time>2026-09-01T01:13:28Z</time>
  <course>185.48</course>
  <speed>0.022360679774997897</speed>
  <fix>3d</fix>
</trkpt>
<trkpt lat="33.810313" lon="-118.393867">
  <ele>-32.11</ele>
  <time>2026-09-01T01:13:28Z</time>
  <course>0.0</course>
  <speed>0.0</speed>
  <fix>3d</fix>
</trkpt>
<trkpt lat="33.8103132" lon="-118.3938671">
  <ele>-33.048</ele>
  <time>2026-09-01T01:13:28Z</time>
  <course>185.48</course>
  <speed>0.022360679774997897</speed>
  <fix>3d</fix>
</trkpt>
<trkpt lat="33.8103132" lon="-118.3938671">
  <ele>-33.09</ele>
  <time>2026-09-01T01:13:28Z</time>
  <course>185.47</course>
  <speed>0.022360679774997897</speed>
  <fix>3d</fix>
</trkpt>
<trkpt lat="33.810313" lon="-118.393867">
  <ele>-32.11</ele>
  <time>2026-09-01T01:13:28Z</time>
  <course>0.0</course>
  <speed>0.0</speed>
  <fix>3d</fix>
</trkpt>
<trkpt lat="33.8103132" lon="-118.3938671">
  <ele>-33.11</ele>
  <time>2026-09-01T01:13:28Z</time>
  <course>185.47</course>
  <speed>0.022360679774997897</speed>
  <fix>3d</fix>
</trkpt>
<trkpt lat="33.8103132" lon="-118.3938671">
  <ele>-33.154</ele>
  <time>2026-09-01T01:13:28Z</time>
  <course>185.47</course>
  <speed>0.022360679774997897</speed>
  <fix>3d</fix>
</trkpt>
<trkpt lat="33.810313" lon="-118.393867">
  <ele>-32.23</ele>
  <time>2026-09-01T01:13:28Z</time>
  <course>0.0</course>
  <speed>0.0</speed>
  <fix>3d</fix>
</trkpt>
<trkpt lat="33.8103132" lon="-118.3938671">
  <ele>-33.155</ele>
  <time>2026-09-01T01:13:28Z</time>
  <course>185.47</course>
  <speed>0.022360679774997897</speed>
  <fix>3d</fix>
</trkpt>
<trkpt lat="33.8103132" lon="-118.3938671">
  <ele>-33.217</ele>
  <time>2026-09-01T01:13:28Z</time>
  <course>185.47</course>
  <speed>0.022360679774997897</speed>
  <fix>3d</fix>
</trkpt>
<trkpt lat="33.810313" lon="-118.393867">
  <ele>-32.23</ele>
  <time>2026-09-01T01:13:28Z</time>
  <course>0.0</course>
  <speed>0.0</speed>
  <fix>3d</fix>
</trkpt>
<trkpt lat="33.8103132" lon="-118.3938671">
  <ele>-33.219</ele>
  <time>2026-09-01T01:13:28Z</time>
  <course>185.47</course>
  <speed>0.022360679774997897</speed>
  <fix>3d</fix>
</trkpt>
<trkpt lat="33.8103132" lon="-118.3938671">
  <ele>-33.28</ele>
  <time>2026-09-01T01:13:28Z</time>
  <course>185.47</course>
  <speed>0.022360679774997897</speed>
  <fix>3d</fix>
</trkpt>
<trkpt lat="33.810313" lon="-118.393867">
  <ele>-32.34</ele>
  <time>2026-09-01T01:13:28Z</time>
  <course>0.0</course>
  <speed>0.0</speed>
  <fix>3d</fix>
</trkpt>
<trkpt lat="33.8103132" lon="-118.3938671">
  <ele>-33.303</ele>
  <time>2026-09-01T01:13:28Z</time>
  <course>185.46</course>
  <speed>0.022360679774997897</speed>
  <fix>3d</fix>
</trkpt>
<trkpt lat="33.8103132" lon="-118.3938671">
  <ele>-33.341</ele>
  <time>2026-09-01T01:13:28Z</time>
  <course>185.46</course>
  <speed>0.022360679774997897</speed>
  <fix>3d</fix>
</trkpt>
<trkpt lat="33.810313" lon="-118.393867">
  <ele>-32.34</ele>
  <time>2026-09-01T01:13:28Z</time>
  <course>0.0</course>
  <speed>0.0</speed>
  <fix>3d</fix>
</trkpt>
<trkpt lat="33.8103132" lon="-118.3938671">
  <ele>-33.359</ele>
  <time>2026-09-01T01:13:28Z</time>
  <course>185.46</course>
  <speed>0.022360679774997897</speed>
  <fix>3d</fix>
</trkpt>
<trkpt lat="33.8103132" lon="-118.3938671">
  <ele>-33.402</ele>
  <time>2026-09-01T01:13:28Z</time>
  <course>185.46</course>
  <speed>0.022360679774997897</speed>
  <fix>3d</fix>
</trkpt>
<trkpt lat="33.810313" lon="-118.393867">
  <ele>-32.47</ele>
  <time>2026-09-01T01:13:28Z</time>
  <course>0.0</course>
  <speed>0.0</speed>
  <fix>3d</fix>
</trkpt>
<trkpt lat="33.8103132" lon="-118.3938671">
  <ele>-33.422</ele>
  <time>2026-09-01T01:13:28Z</time>
  <course>185.46</course>
  <speed>0.022360679774997897</speed>
  <fix>3d</fix>
</trkpt>
<trkpt lat="33.8103132" lon="-118.3938671">
  <ele>-33.462</ele>
  <time>2026-09-01T01:13:28Z</time>
  <course>185.46</course>
  <speed>0.022360679774997897</speed>
  <fix>3d</fix>
</trkpt>
<trkpt lat="33.810313" lon="-118.393867">
  <ele>-32.47</ele>
  <time>2026-09-01T01:13:28Z</time>
  <course>0.0</course>
  <speed>0.0</speed>
  <fix>3d</fix>
</trkpt>
<trkpt lat="33.8103132" lon="-118.3938671">
  <ele>-33.482</ele>
  <time>2026-09-01T01:13:28Z</time>
  <course>185.46</course>
  <speed>0.022360679774997897</speed>
  <fix>3d</fix>
</trkpt>
<trkpt lat="33.8103132" lon="-118.3938671">
  <ele>-33.522</ele>
  <time>2026-09-01T01:13:28Z</time>
  <course>185.46</course>
  <speed>0.022360679774997897</speed>
  <fix>3d</fix>
</trkpt>
<trkpt lat="33.810313" lon="-118.393867">
  <ele>-32.59</ele>
  <time>2026-09-01T01:13:28Z</time>
  <course>0.0</course>
  <speed>0.0</speed>
  <fix>3d</fix>
</trkpt>
<trkpt lat="33.8103132" lon="-118.3938671">
  <ele>-33.524</ele>
  <time>2026-09-01T01:13:28Z</time>
  <course>185.46</course>
  <speed>0.022360679774997897</speed>
  <fix>3d</fix>
</trkpt>
<trkpt lat="33.8103132" lon="-118.3938671">
  <ele>-33.582</ele>
  <time>2026-09-01T01:13:28Z</time>
  <course>185.45</course>
  <speed>0.022360679774997897</speed>
  <fix>3d</fix>
</trkpt>
<trkpt lat="33.810313" lon="-118.393867">
  <ele>-32.59</ele>
  <time>2026-09-01T01:13:28Z</time>
  <course>0.0</course>
  <speed>0.0</speed>
  <fix>3d</fix>
</trkpt>
<trkpt lat="33.8103132" lon="-118.3938671">
  <ele>-33.607</ele>
  <time>2026-09-01T01:13:28Z</time>
  <course>185.45</course>
  <speed>0.022360679774997897</speed>
  <fix>3d</fix>
</trkpt>
<trkpt lat="33.8103132" lon="-118.3938671">
  <ele>-33.643</ele>
  <time>2026-09-01T01:13:28Z</time>
  <course>185.45</course>
  <speed>0.022360679774997897</speed>
  <fix>3d</fix>
</trkpt>
<trkpt lat="33.810313" lon="-118.393867">
  <ele>-32.71</ele>
  <time>2026-09-01T01:13:28Z</time>
  <course>0.0</course>
  <speed>0.0</speed>
  <fix>3d</fix>
</trkpt>
<trkpt lat="33.8103132" lon="-118.3938671">
  <ele>-33.663</ele>
  <time>2026-09-01T01:13:28Z</time>
  <course>185.45</course>
  <speed>0.022360679774997897</speed>
  <fix>3d</fix>
</trkpt>
<trkpt lat="33.8103132" lon="-118.3938671">
  <ele>-33.705</ele>
  <time>2026-09-01T01:13:28Z</time>
  <course>185.45</course>
  <speed>0.022360679774997897</speed>
  <fix>3d</fix>
</trkpt>
<trkpt lat="33.810313" lon="-118.393867">
  <ele>-32.71</ele>
  <time>2026-09-01T01:13:28Z</time>
  <course>0.0</course>
  <speed>0.0</speed>
  <fix>3d</fix>
</trkpt>
<trkpt lat="33.8103132" lon="-118.3938671">
  <ele>-33.724</ele>
  <time>2026-09-01T01:13:28Z</time>
  <course>185.45</course>
  <speed>0.022360679774997897</speed>
  <fix>3d</fix>
</trkpt>
<trkpt lat="33.8103132" lon="-118.3938671">
  <ele>-33.765</ele>
  <time>2026-09-01T01:13:28Z</time>
  <course>185.45</course>
  <speed>0.022360679774997897</speed>
  <fix>3d</fix>
</trkpt>
<trkpt lat="33.810313" lon="-118.393867">
  <ele>-32.83</ele>
  <time>2026-09-01T01:13:28Z</time>
  <course>0.0</course>
  <speed>0.0</speed>
  <fix>3d</fix>
</trkpt>
<trkpt lat="33.8103132" lon="-118.3938671">
  <ele>-33.785</ele>
  <time>2026-09-01T01:13:28Z</time>
  <course>185.45</course>
  <speed>0.022360679774997897</speed>
  <fix>3d</fix>
</trkpt>
<trkpt lat="33.8103132" lon="-118.3938671">
  <ele>-33.825</ele>
  <time>2026-09-01T01:13:28Z</time>
  <course>185.44</course>
  <speed>0.022360679774997897</speed>
  <fix>3d</fix>
</trkpt>
<trkpt lat="33.810313" lon="-118.393867">
  <ele>-32.83</ele>
  <time>2026-09-01T01:13:28Z</time>
  <course>0.0</course>
  <speed>0.0</speed>
  <fix>3d</fix>
</trkpt>
<trkpt lat="33.8103132" lon="-118.3938671">
  <ele>-33.828</ele>
  <time>2026-09-01T01:13:28Z</time>
  <course>185.44</course>
  <speed>0.022360679774997897</speed>
  <fix>3d</fix>
</trkpt>
<trkpt lat="33.8103132" lon="-118.3938671">
  <ele>-33.886</ele>
  <time>2026-09-01T01:13:28Z</time>
  <course>185.44</course>
  <speed>0.022360679774997897</speed>
  <fix>3d</fix>
</trkpt>
<trkpt lat="33.810313" lon="-118.393867">
  <ele>-32.96</ele>
  <time>2026-09-01T01:13:28Z</time>
  <course>0.0</course>
  <speed>0.0</speed>
  <fix>3d</fix>
</trkpt>
<trkpt lat="33.8103132" lon="-118.3938671">
  <ele>-33.907</ele>
  <time>2026-09-01T01:13:28Z</time>
  <course>185.44</course>
  <speed>0.022360679774997897</speed>
  <fix>3d</fix>
</trkpt>
<trkpt lat="33.8103132" lon="-118.3938671">
  <ele>-33.947</ele>
  <time>2026-09-01T01:13:28Z</time>
  <course>185.44</course>
  <speed>0.022360679774997897</speed>
  <fix>3d</fix>
</trkpt>
<trkpt lat="33.810313" lon="-118.393867">
  <ele>-32.96</ele>
  <time>2026-09-01T01:13:28Z</time>
  <course>0.0</course>
  <speed>0.0</speed>
  <fix>3d</fix>
</trkpt>
<trkpt lat="33.8103132" lon="-118.3938671">
  <ele>-33.966</ele>
  <time>2026-09-01T01:13:28Z</time>
  <course>185.44</course>
  <speed>0.022360679774997897</speed>
  <fix>3d</fix>
</trkpt>
<trkpt lat="33.8103132" lon="-118.3938671">
  <ele>-34.01</ele>
  <time>2026-09-01T01:13:28Z</time>
  <course>185.44</course>
  <speed>0.022360679774997897</speed>
  <fix>3d</fix>
</trkpt>
<trkpt lat="33.810313" lon="-118.393867">
  <ele>-33.08</ele>
  <time>2026-09-01T01:13:28Z</time>
  <course>0.0</course>
  <speed>0.0</speed>
  <fix>3d</fix>
</trkpt>
<trkpt lat="33.8103132" lon="-118.3938671">
  <ele>-34.032</ele>
  <time>2026-09-01T01:13:28Z</time>
  <course>185.44</course>
  <speed>0.022360679774997897</speed>
  <fix>3d</fix>
</trkpt>
<trkpt lat="33.8103132" lon="-118.3938671">
  <ele>-34.074</ele>
  <time>2026-09-01T01:13:28Z</time>
  <course>185.43</course>
  <speed>0.022360679774997897</speed>
  <fix>3d</fix>
</trkpt>
<trkpt lat="33.810313" lon="-118.393867">
  <ele>-33.08</ele>
  <time>2026-09-01T01:13:28Z</time>
  <course>0.0</course>
  <speed>0.0</speed>
  <fix>3d</fix>
</trkpt>
<trkpt lat="33.8103132" lon="-118.3938671">
  <ele>-34.094</ele>
  <time>2026-09-01T01:13:28Z</time>
  <course>185.43</course>
  <speed>0.022360679774997897</speed>
  <fix>3d</fix>
</trkpt>
<trkpt lat="33.8103132" lon="-118.3938671">
  <ele>-34.137</ele>
  <time>2026-09-01T01:13:28Z</time>
  <course>185.43</course>
  <speed>0.022360679774997897</speed>
  <fix>3d</fix>
</trkpt>
<trkpt lat="33.810313" lon="-118.393867">
  <ele>-33.19</ele>
  <time>2026-09-01T01:13:28Z</time>
  <course>0.0</course>
  <speed>0.0</speed>
  <fix>3d</fix>
</trkpt>
<trkpt lat="33.8103132" lon="-118.3938671">
  <ele>-34.139</ele>
  <time>2026-09-01T01:13:28Z</time>
  <course>185.43</course>
  <speed>0.022360679774997897</speed>
  <fix>3d</fix>
</trkpt>
<trkpt lat="33.8103132" lon="-118.3938671">
  <ele>-34.2</ele>
  <time>2026-09-01T01:13:28Z</time>
  <course>185.43</course>
  <speed>0.022360679774997897</speed>
  <fix>3d</fix>
</trkpt>
<trkpt lat="33.810313" lon="-118.393867">
  <ele>-33.19</ele>
  <time>2026-09-01T01:13:28Z</time>
  <course>0.0</course>
  <speed>0.0</speed>
  <fix>3d</fix>
</trkpt>
<trkpt lat="33.8103132" lon="-118.3938671">
  <ele>-34.219</ele>
  <time>2026-09-01T01:13:28Z</time>
  <course>185.43</course>
  <speed>0.022360679774997897</speed>
  <fix>3d</fix>
</trkpt>
<trkpt lat="33.8103132" lon="-118.3938671">
  <ele>-34.262</ele>
  <time>2026-09-01T01:13:28Z</time>
  <course>185.43</course>
  <speed>0.022360679774997897</speed>
  <fix>3d</fix>
</trkpt>
<trkpt lat="33.810313" lon="-118.393867">
  <ele>-33.32</ele>
  <time>2026-09-01T01:13:28Z</time>
  <course>0.0</course>
  <speed>0.0</speed>
  <fix>3d</fix>
</trkpt>
<trkpt lat="33.8103132" lon="-118.3938671">
  <ele>-34.284</ele>
  <time>2026-09-01T01:13:28Z</time>
  <course>185.43</course>
  <speed>0.022360679774997897</speed>
  <fix>3d</fix>
</trkpt>
<trkpt lat="33.8103132" lon="-118.3938671">
  <ele>-34.323</ele>
  <time>2026-09-01T01:13:28Z</time>
  <course>185.42</course>
  <speed>0.022360679774997897</speed>
  <fix>3d</fix>
</trkpt>
<trkpt lat="33.810313" lon="-118.393867">
  <ele>-33.32</ele>
  <time>2026-09-01T01:13:28Z</time>
  <course>0.0</course>
  <speed>0.0</speed>
  <fix>3d</fix>
</trkpt>
<trkpt lat="33.8103132" lon="-118.3938671">
  <ele>-34.342</ele>
  <time>2026-09-01T01:13:28Z</time>
  <course>185.42</course>
  <speed>0.022360679774997897</speed>
  <fix>3d</fix>
</trkpt>
<trkpt lat="33.8103132" lon="-118.3938671">
  <ele>-34.383</ele>
  <time>2026-09-01T01:13:28Z</time>
  <course>185.42</course>
  <speed>0.022360679774997897</speed>
  <fix>3d</fix>
</trkpt>
<trkpt lat="33.810313" lon="-118.393867">
  <ele>-33.44</ele>
  <time>2026-09-01T01:13:28Z</time>
  <course>0.0</course>
  <speed>0.0</speed>
  <fix>3d</fix>
</trkpt>
<trkpt lat="33.8103132" lon="-118.3938671">
  <ele>-34.405</ele>
  <time>2026-09-01T01:13:28Z</time>
  <course>185.42</course>
  <speed>0.022360679774997897</speed>
  <fix>3d</fix>
</trkpt>
<trkpt lat="33.8103132" lon="-118.3938671">
  <ele>-34.444</ele>
  <time>2026-09-01T01:13:28Z</time>
  <course>185.42</course>
  <speed>0.022360679774997897</speed>
  <fix>3d</fix>
</trkpt>
<trkpt lat="33.810313" lon="-118.393867">
  <ele>-33.44</ele>
  <time>2026-09-01T01:13:28Z</time>
  <course>0.0</course>
  <speed>0.0</speed>
  <fix>3d</fix>
</trkpt>
<trkpt lat="33.8103132" lon="-118.3938671">
  <ele>-34.446</ele>
  <time>2026-09-01T01:13:28Z</time>
  <course>185.42</course>
  <speed>0.022360679774997897</speed>
  <fix>3d</fix>
</trkpt>
<trkpt lat="33.8103132" lon="-118.3938671">
  <ele>-34.507</ele>
  <time>2026-09-01T01:13:28Z</time>
  <course>185.42</course>
  <speed>0.022360679774997897</speed>
  <fix>3d</fix>
</trkpt>
<trkpt lat="33.810313" lon="-118.393867">
  <ele>-33.55</ele>
  <time>2026-09-01T01:13:28Z</time>
  <course>0.0</course>
  <speed>0.0</speed>
  <fix>3d</fix>
</trkpt>
<trkpt lat="33.8103132" lon="-118.3938671">
  <ele>-34.509</ele>
  <time>2026-09-01T01:13:28Z</time>
  <course>185.42</course>
  <speed>0.022360679774997897</speed>
  <fix>3d</fix>
</trkpt>
<trkpt lat="33.8103132" lon="-118.3938671">
  <ele>-34.57</ele>
  <time>2026-09-01T01:13:28Z</time>
  <course>185.42</course>
  <speed>0.022360679774997897</speed>
  <fix>3d</fix>
</trkpt>
<trkpt lat="33.810313" lon="-118.393867">
  <ele>-33.55</ele>
  <time>2026-09-01T01:13:28Z</time>
  <course>0.0</course>
  <speed>0.0</speed>
  <fix>3d</fix>
</trkpt>
<trkpt lat="33.8103132" lon="-118.3938671">
  <ele>-34.593</ele>
  <time>2026-09-01T01:13:28Z</time>
  <course>185.41</course>
  <speed>0.022360679774997897</speed>
  <fix>3d</fix>
</trkpt>
<trkpt lat="33.8103132" lon="-118.3938671">
  <ele>-34.634</ele>
  <time>2026-09-01T01:13:28Z</time>
  <course>185.41</course>
  <speed>0.022360679774997897</speed>
  <fix>3d</fix>
</trkpt>
<trkpt lat="33.810313" lon="-118.393867">
  <ele>-33.68</ele>
  <time>2026-09-01T01:13:28Z</time>
  <course>0.0</course>
  <speed>0.0</speed>
  <fix>3d</fix>
</trkpt>
<trkpt lat="33.8103132" lon="-118.3938671">
  <ele>-34.655</ele>
  <time>2026-09-01T01:13:28Z</time>
  <course>185.41</course>
  <speed>0.022360679774997897</speed>
  <fix>3d</fix>
</trkpt>
<trkpt lat="33.8103132" lon="-118.3938671">
  <ele>-34.697</ele>
  <time>2026-09-01T01:13:28Z</time>
  <course>185.41</course>
  <speed>0.022360679774997897</speed>
  <fix>3d</fix>
</trkpt>
<trkpt lat="33.810313" lon="-118.393867">
  <ele>-33.68</ele>
  <time>2026-09-01T01:13:28Z</time>
  <course>0.0</course>
  <speed>0.0</speed>
  <fix>3d</fix>
</trkpt>
<trkpt lat="33.8103132" lon="-118.3938671">
  <ele>-34.718</ele>
  <time>2026-09-01T01:13:28Z</time>
  <course>185.41</course>
  <speed>0.022360679774997897</speed>
  <fix>3d</fix>
</trkpt>
<trkpt lat="33.8103132" lon="-118.3938671">
  <ele>-34.761</ele>
  <time>2026-09-01T01:13:28Z</time>
  <course>185.41</course>
  <speed>0.022360679774997897</speed>
  <fix>3d</fix>
</trkpt>
<trkpt lat="33.810313" lon="-118.393867">
  <ele>-33.8</ele>
  <time>2026-09-01T01:13:28Z</time>
  <course>0.0</course>
  <speed>0.0</speed>
  <fix>3d</fix>
</trkpt>
<trkpt lat="33.8103132" lon="-118.3938671">
  <ele>-34.781</ele>
  <time>2026-09-01T01:13:28Z</time>
  <course>185.41</course>
  <speed>0.022360679774997897</speed>
  <fix>3d</fix>
</trkpt>
<trkpt lat="33.8103132" lon="-118.3938671">
  <ele>-34.824</ele>
  <time>2026-09-01T01:13:28Z</time>
  <course>185.41</course>
  <speed>0.022360679774997897</speed>
  <fix>3d</fix>
</trkpt>
<trkpt lat="33.810313" lon="-118.393867">
  <ele>-33.8</ele>
  <time>2026-09-01T01:13:28Z</time>
  <course>0.0</course>
  <speed>0.0</speed>
  <fix>3d</fix>
</trkpt>
<trkpt lat="33.8103132" lon="-118.3938671">
  <ele>-34.847</ele>
  <time>2026-09-01T01:13:28Z</time>
  <course>185.41</course>
  <speed>0.022360679774997897</speed>
  <fix>3d</fix>
</trkpt>
<trkpt lat="33.8103132" lon="-118.3938671">
  <ele>-34.888</ele>
  <time>2026-09-01T01:13:28Z</time>
  <course>185.4</course>
  <speed>0.022360679774997897</speed>
  <fix>3d</fix>
</trkpt>
<trkpt lat="33.810313" lon="-118.393867">
  <ele>-33.92</ele>
  <time>2026-09-01T01:13:28Z</time>
  <course>0.0</course>
  <speed>0.0</speed>
  <fix>3d</fix>
</trkpt>
<trkpt lat="33.8103132" lon="-118.3938671">
  <ele>-34.909</ele>
  <time>2026-09-01T01:13:28Z</time>
  <course>185.4</course>
  <speed>0.022360679774997897</speed>
  <fix>3d</fix>
</trkpt>
<trkpt lat="33.8103132" lon="-118.3938671">
  <ele>-34.951</ele>
  <time>2026-09-01T01:13:28Z</time>
  <course>185.4</course>
  <speed>0.022360679774997897</speed>
  <fix>3d</fix>
</trkpt>
<trkpt lat="33.810313" lon="-118.393867">
  <ele>-33.92</ele>
  <time>2026-09-01T01:13:28Z</time>
  <course>0.0</course>
  <speed>0.0</speed>
  <fix>3d</fix>
</trkpt>
<trkpt lat="33.8103132" lon="-118.3938671">
  <ele>-34.972</ele>
  <time>2026-09-01T01:13:28Z</time>
  <course>185.4</course>
  <speed>0.022360679774997897</speed>
  <fix>3d</fix>
</trkpt>
<trkpt lat="33.8103132" lon="-118.3938671">
  <ele>-35.015</ele>
  <time>2026-09-01T01:13:28Z</time>
  <course>185.4</course>
  <speed>0.022360679774997897</speed>
  <fix>3d</fix>
</trkpt>
<trkpt lat="33.810313" lon="-118.393867">
  <ele>-34.04</ele>
  <time>2026-09-01T01:13:28Z</time>
  <course>0.0</course>
  <speed>0.0</speed>
  <fix>3d</fix>
</trkpt>
<trkpt lat="33.8103132" lon="-118.3938671">
  <ele>-35.036</ele>
  <time>2026-09-01T01:13:28Z</time>
  <course>185.4</course>
  <speed>0.022360679774997897</speed>
  <fix>3d</fix>
</trkpt>
<trkpt lat="33.8103132" lon="-118.3938671">
  <ele>-35.078</ele>
  <time>2026-09-01T01:13:28Z</time>
  <course>185.4</course>
  <speed>0.022360679774997897</speed>
  <fix>3d</fix>
</trkpt>
<trkpt lat="33.810313" lon="-118.393867">
  <ele>-34.04</ele>
  <time>2026-09-01T01:13:28Z</time>
  <course>0.0</course>
  <speed>0.0</speed>
  <fix>3d</fix>
</trkpt>
<trkpt lat="33.8103132" lon="-118.3938671">
  <ele>-35.129</ele>
  <time>2026-09-01T01:13:28Z</time>
  <course>185.4</course>
  <speed>0.022360679774997897</speed>
  <fix>3d</fix>
</trkpt>
<trkpt lat="33.810313" lon="-118.393867">
  <ele>-34.16</ele>
  <time>2026-09-01T01:13:28Z</time>
  <course>0.0</course>
  <speed>0.0</speed>
  <fix>3d</fix>
</trkpt>
<trkpt lat="33.8103132" lon="-118.3938671">
  <ele>-35.166</ele>
  <time>2026-09-01T01:13:28Z</time>
  <course>185.39</course>
  <speed>0.022360679774997897</speed>
  <fix>3d</fix>
</trkpt>
<trkpt lat="33.810313" lon="-118.393867">
  <ele>-34.16</ele>
  <time>2026-09-01T01:13:28Z</time>
  <course>0.0</course>
  <speed>0.0</speed>
  <fix>3d</fix>
</trkpt>
<trkpt lat="33.8103132" lon="-118.3938671">
  <ele>-35.195</ele>
  <time>2026-09-01T01:13:28Z</time>
  <course>185.39</course>
  <speed>0.022360679774997897</speed>
  <fix>3d</fix>
</trkpt>
<trkpt lat="33.810313" lon="-118.393867">
  <ele>-34.25</ele>
  <time>2026-09-01T01:13:28Z</time>
  <course>0.0</course>
  <speed>0.0</speed>
  <fix>3d</fix>
</trkpt>
<trkpt lat="33.8103132" lon="-118.3938671">
  <ele>-35.218</ele>
  <time>2026-09-01T01:13:28Z</time>
  <course>185.39</course>
  <speed>0.022360679774997897</speed>
  <fix>3d</fix>
</trkpt>
<trkpt lat="33.810313" lon="-118.393867">
  <ele>-34.25</ele>
  <time>2026-09-01T01:13:28Z</time>
  <course>0.0</course>
  <speed>0.0</speed>
  <fix>3d</fix>
</trkpt>
<trkpt lat="33.8103132" lon="-118.3938671">
  <ele>-35.237</ele>
  <time>2026-09-01T01:13:28Z</time>
  <course>185.39</course>
  <speed>0.022360679774997897</speed>
  <fix>3d</fix>
</trkpt>
<trkpt lat="33.810313" lon="-118.393867">
  <ele>-34.31</ele>
  <time>2026-09-01T01:13:28Z</time>
  <course>0.0</course>
  <speed>0.0</speed>
  <fix>3d</fix>
</trkpt>
<trkpt lat="33.8103132" lon="-118.3938671">
  <ele>-35.253</ele>
  <time>2026-09-01T01:13:28Z</time>
  <course>185.38</course>
  <speed>0.022360679774997897</speed>
  <fix>3d</fix>
</trkpt>
<trkpt lat="33.810313" lon="-118.393867">
  <ele>-34.31</ele>
  <time>2026-09-01T01:13:28Z</time>
  <course>0.0</course>
  <speed>0.0</speed>
  <fix>3d</fix>
</trkpt>
<trkpt lat="33.8103132" lon="-118.3938671">
  <ele>-35.265</ele>
  <time>2026-09-01T01:13:28Z</time>
  <course>185.38</course>
  <speed>0.022360679774997897</speed>
  <fix>3d</fix>
</trkpt>
<trkpt lat="33.810313" lon="-118.393867">
  <ele>-34.36</ele>
  <time>2026-09-01T01:13:28Z</time>
  <course>0.0</course>
  <speed>0.0</speed>
  <fix>3d</fix>
</trkpt>
<trkpt lat="33.8103132" lon="-118.3938671">
  <ele>-35.275</ele>
  <time>2026-09-01T01:13:28Z</time>
  <course>185.38</course>
  <speed>0.022360679774997897</speed>
  <fix>3d</fix>
</trkpt>
<trkpt lat="33.810313" lon="-118.393867">
  <ele>-34.36</ele>
  <time>2026-09-01T01:13:28Z</time>
  <course>0.0</course>
  <speed>0.0</speed>
  <fix>3d</fix>
</trkpt>
<trkpt lat="33.8103132" lon="-118.3938671">
  <ele>-35.283</ele>
  <time>2026-09-01T01:13:28Z</time>
  <course>185.38</course>
  <speed>0.022360679774997897</speed>
  <fix>3d</fix>
</trkpt>
<trkpt lat="33.810313" lon="-118.393867">
  <ele>-34.39</ele>
  <time>2026-09-01T01:13:28Z</time>
  <course>0.0</course>
  <speed>0.0</speed>
  <fix>3d</fix>
</trkpt>
<trkpt lat="33.8103132" lon="-118.3938671">
  <ele>-35.29</ele>
  <time>2026-09-01T01:13:28Z</time>
  <course>185.38</course>
  <speed>0.022360679774997897</speed>
  <fix>3d</fix>
</trkpt>
<trkpt lat="33.810313" lon="-118.393867">
  <ele>-34.39</ele>
  <time>2026-09-01T01:13:28Z</time>
  <course>0.0</course>
  <speed>0.0</speed>
  <fix>3d</fix>
</trkpt>
<trkpt lat="33.8103132" lon="-118.3938671">
  <ele>-35.296</ele>
  <time>2026-09-01T01:13:28Z</time>
  <course>185.37</course>
  <speed>0.022360679774997897</speed>
  <fix>3d</fix>
</trkpt>
<trkpt lat="33.810313" lon="-118.393867">
  <ele>-34.41</ele>
  <time>2026-09-01T01:13:28Z</time>
  <course>0.0</course>
  <speed>0.0</speed>
  <fix>3d</fix>
</trkpt>
<trkpt lat="33.8103132" lon="-118.3938671">
  <ele>-35.301</ele>
  <time>2026-09-01T01:13:28Z</time>
  <course>185.37</course>
  <speed>0.022360679774997897</speed>
  <fix>3d</fix>
</trkpt>
<trkpt lat="33.810313" lon="-118.393867">
  <ele>-34.41</ele>
  <time>2026-09-01T01:13:28Z</time>
  <course>0.0</course>
  <speed>0.0</speed>
  <fix>3d</fix>
</trkpt>
<trkpt lat="33.8103132" lon="-118.3938671">
  <ele>-35.305</ele>
  <time>2026-09-01T01:13:28Z</time>
  <course>185.37</course>
  <speed>0.022360679774997897</speed>
  <fix>3d</fix>
</trkpt>
<trkpt lat="33.810313" lon="-118.393867">
  <ele>-34.43</ele>
  <time>2026-09-01T01:13:28Z</time>
  <course>0.0</course>
  <speed>0.0</speed>
  <fix>3d</fix>
</trkpt>
<trkpt lat="33.8103132" lon="-118.3938671">
  <ele>-35.308</ele>
  <time>2026-09-01T01:13:28Z</time>
  <course>185.37</course>
  <speed>0.022360679774997897</speed>
  <fix>3d</fix>
</trkpt>
<trkpt lat="33.810313" lon="-118.393867">
  <ele>-34.43</ele>
  <time>2026-09-01T01:13:28Z</time>
  <course>0.0</course>
  <speed>0.0</speed>
  <fix>3d</fix>
</trkpt>
<trkpt lat="33.8103132" lon="-118.3938671">
  <ele>-35.311</ele>
  <time>2026-09-01T01:13:28Z</time>
  <course>185.37</course>
  <speed>0.022360679774997897</speed>
  <fix>3d</fix>
</trkpt>
<trkpt lat="33.810313" lon="-118.393867">
  <ele>-34.44</ele>
  <time>2026-09-01T01:13:28Z</time>
  <course>0.0</course>
  <speed>0.0</speed>
  <fix>3d</fix>
</trkpt>
<trkpt lat="33.8103132" lon="-118.3938671">
  <ele>-35.309</ele>
  <time>2026-09-01T01:13:28Z</time>
  <course>185.36</course>
  <speed>0.022360679774997897</speed>
  <fix>3d</fix>
</trkpt>
<trkpt lat="33.810313" lon="-118.393867">
  <ele>-34.44</ele>
  <time>2026-09-01T01:13:28Z</time>
  <course>0.0</course>
  <speed>0.0</speed>
  <fix>3d</fix>
</trkpt>
<trkpt lat="33.8103132" lon="-118.3938671">
  <ele>-35.291</ele>
  <time>2026-09-01T01:13:28Z</time>
  <course>185.36</course>
  <speed>0.022360679774997897</speed>
  <fix>3d</fix>
</trkpt>
<trkpt lat="33.810313" lon="-118.393867">
  <ele>-34.45</ele>
  <time>2026-09-01T01:13:28Z</time>
  <course>95.0</course>
  <speed>0.0</speed>
  <fix>3d</fix>
</trkpt>
<trkpt lat="33.8103132" lon="-118.3938671">
  <ele>-35.257</ele>
  <time>2026-09-01T01:13:28Z</time>
  <course>185.36</course>
  <speed>0.022360679774997897</speed>
  <fix>3d</fix>
</trkpt>
<trkpt lat="33.810313" lon="-118.393867">
  <ele>-34.45</ele>
  <time>2026-09-01T01:13:28Z</time>
  <course>95.0</course>
  <speed>0.0</speed>
  <fix>3d</fix>
</trkpt>
<trkpt lat="33.8103132" lon="-118.3938671">
  <ele>-35.216</ele>
  <time>2026-09-01T01:13:28Z</time>
  <course>185.36</course>
  <speed>0.022360679774997897</speed>
  <fix>3d</fix>
</trkpt>
<trkpt lat="33.810313" lon="-118.393867">
  <ele>-34.42</ele>
  <time>2026-09-01T01:13:28Z</time>
  <course>95.0</course>
  <speed>0.0</speed>
  <fix>3d</fix>
</trkpt>
<trkpt lat="33.8103132" lon="-118.3938671">
  <ele>-35.173</ele>
  <time>2026-09-01T01:13:28Z</time>
  <course>185.36</course>
  <speed>0.022360679774997897</speed>
  <fix>3d</fix>
</trkpt>
<trkpt lat="33.810313" lon="-118.393867">
  <ele>-34.42</ele>
  <time>2026-09-01T01:13:28Z</time>
  <course>95.0</course>
  <speed>0.0</speed>
  <fix>3d</fix>
</trkpt>
<trkpt lat="33.8103132" lon="-118.3938671">
  <ele>-35.129</ele>
  <time>2026-09-01T01:13:28Z</time>
  <course>185.36</course>
  <speed>0.022360679774997897</speed>
  <fix>3d</fix>
</trkpt>
<trkpt lat="33.810313" lon="-118.393867">
  <ele>-34.35</ele>
  <time>2026-09-01T01:13:28Z</time>
  <course>95.0</course>
  <speed>0.0</speed>
  <fix>3d</fix>
</trkpt>
<trkpt lat="33.8103132" lon="-118.3938671">
  <ele>-35.086</ele>
  <time>2026-09-01T01:13:28Z</time>
  <course>185.35</course>
  <speed>0.022360679774997897</speed>
  <fix>3d</fix>
</trkpt>
<trkpt lat="33.810313" lon="-118.393867">
  <ele>-34.35</ele>
  <time>2026-09-01T01:13:28Z</time>
  <course>95.0</course>
  <speed>0.0</speed>
  <fix>3d</fix>
</trkpt>
<trkpt lat="33.8103132" lon="-118.3938671">
  <ele>-35.043</ele>
  <time>2026-09-01T01:13:28Z</time>
  <course>185.35</course>
  <speed>0.022360679774997897</speed>
  <fix>3d</fix>
</trkpt>
<trkpt lat="33.810313" lon="-118.393867">
  <ele>-34.28</ele>
  <time>2026-09-01T01:13:28Z</time>
  <course>94.99</course>
  <speed>0.0</speed>
  <fix>3d</fix>
</trkpt>
<trkpt lat="33.8103132" lon="-118.3938671">
  <ele>-35.004</ele>
  <time>2026-09-01T01:13:28Z</time>
  <course>185.71</course>
  <speed>0.022360679774997897</speed>
  <fix>3d</fix>
</trkpt>
<trkpt lat="33.810313" lon="-118.393867">
  <ele>-34.28</ele>
  <time>2026-09-01T01:13:28Z</time>
  <course>94.99</course>
  <speed>0.0</speed>
  <fix>3d</fix>
</trkpt>
<trkpt lat="33.8103132" lon="-118.3938671">
  <ele>-34.969</ele>
  <time>2026-09-01T01:13:28Z</time>
  <course>186.84</course>
  <speed>0.022360679774997897</speed>
  <fix>3d</fix>
</trkpt>
<trkpt lat="33.810313" lon="-118.393867">
  <ele>-34.2</ele>
  <time>2026-09-01T01:13:28Z</time>
  <course>94.98</course>
  <speed>0.0</speed>
  <fix>3d</fix>
</trkpt>
<trkpt lat="33.8103132" lon="-118.3938671">
  <ele>-34.94</ele>
  <time>2026-09-01T01:13:28Z</time>
  <course>188.4</course>
  <speed>0.022360679774997897</speed>
  <fix>3d</fix>
</trkpt>
<trkpt lat="33.810313" lon="-118.393867">
  <ele>-34.2</ele>
  <time>2026-09-01T01:13:28Z</time>
  <course>94.98</course>
  <speed>0.0</speed>
  <fix>3d</fix>
</trkpt>
<trkpt lat="33.8103132" lon="-118.3938671">
  <ele>-34.914</ele>
  <time>2026-09-01T01:13:28Z</time>
  <course>190.14</course>
  <speed>0.022360679774997897</speed>
  <fix>3d</fix>
</trkpt>
<trkpt lat="33.810313" lon="-118.393867">
  <ele>-34.14</ele>
  <time>2026-09-01T01:13:28Z</time>
  <course>94.78</course>
  <speed>0.0</speed>
  <fix>3d</fix>
</trkpt>
<trkpt lat="33.8103132" lon="-118.3938671">
  <ele>-34.892</ele>
  <time>2026-09-01T01:13:28Z</time>
  <course>192.0</course>
  <speed>0.022360679774997897</speed>
  <fix>3d</fix>
</trkpt>
<trkpt lat="33.810313" lon="-118.393867">
  <ele>-34.14</ele>
  <time>2026-09-01T01:13:28Z</time>
  <course>94.78</course>
  <speed>0.0</speed>
  <fix>3d</fix>
</trkpt>
<trkpt lat="33.8103132" lon="-118.3938671">
  <ele>-34.876</ele>
  <time>2026-09-01T01:13:28Z</time>
  <course>193.94</course>
  <speed>0.022360679774997897</speed>
  <fix>3d</fix>
</trkpt>
<trkpt lat="33.810313" lon="-118.393867">
  <ele>-34.1</ele>
  <time>2026-09-01T01:13:28Z</time>
  <course>90.39</course>
  <speed>0.0</speed>
  <fix>3d</fix>
</trkpt>
<trkpt lat="33.8103132" lon="-118.3938671">
  <ele>-34.865</ele>
  <time>2026-09-01T01:13:28Z</time>
  <course>195.94</course>
  <speed>0.022360679774997897</speed>
  <fix>3d</fix>
</trkpt>
<trkpt lat="33.810313" lon="-118.393867">
  <ele>-34.1</ele>
  <time>2026-09-01T01:13:28Z</time>
  <course>90.39</course>
  <speed>0.0</speed>
  <fix>3d</fix>
</trkpt>
<trkpt lat="33.8103132" lon="-118.3938671">
  <ele>-34.86</ele>
  <time>2026-09-01T01:13:28Z</time>
  <course>198.01</course>
  <speed>0.022360679774997897</speed>
  <fix>3d</fix>
</trkpt>
<trkpt lat="33.810313" lon="-118.393867">
  <ele>-34.07</ele>
  <time>2026-09-01T01:13:28Z</time>
  <course>283.09</course>
  <speed>0.0</speed>
  <fix>3d</fix>
</trkpt>
<trkpt lat="33.8103132" lon="-118.3938671">
  <ele>-34.859</ele>
  <time>2026-09-01T01:13:28Z</time>
  <course>200.13</course>
  <speed>0.022360679774997897</speed>
  <fix>3d</fix>
</trkpt>
<trkpt lat="33.810313" lon="-118.393867">
  <ele>-34.07</ele>
  <time>2026-09-01T01:13:28Z</time>
  <course>283.09</course>
  <speed>0.0</speed>
  <fix>3d</fix>
</trkpt>
<trkpt lat="33.8103132" lon="-118.3938671">
  <ele>-34.862</ele>
  <time>2026-09-01T01:13:28Z</time>
  <course>202.29</course>
  <speed>0.022360679774997897</speed>
  <fix>3d</fix>
</trkpt>
<trkpt lat="33.810313" lon="-118.393867">
  <ele>-34.06</ele>
  <time>2026-09-01T01:13:28Z</time>
  <course>284.48</course>
  <speed>0.0</speed>
  <fix>3d</fix>
</trkpt>
<trkpt lat="33.8103132" lon="-118.3938671">
  <ele>-34.869</ele>
  <time>2026-09-01T01:13:28Z</time>
  <course>204.49</course>
  <speed>0.022360679774997897</speed>
  <fix>3d</fix>
</trkpt>
<trkpt lat="33.810313" lon="-118.393867">
  <ele>-34.06</ele>
  <time>2026-09-01T01:13:28Z</time>
  <course>284.48</course>
  <speed>0.0</speed>
  <fix>3d</fix>
</trkpt>
<trkpt lat="33.8103132" lon="-118.3938671">
  <ele>-34.88</ele>
  <time>2026-09-01T01:13:28Z</time>
  <course>206.72</course>
  <speed>0.022360679774997897</speed>
  <fix>3d</fix>
</trkpt>
<trkpt lat="33.810313" lon="-118.393867">
  <ele>-34.06</ele>
  <time>2026-09-01T01:13:28Z</time>
  <course>286.48</course>
  <speed>0.0</speed>
  <fix>3d</fix>
</trkpt>
<trkpt lat="33.8103132" lon="-118.3938671">
  <ele>-34.895</ele>
  <time>2026-09-01T01:13:28Z</time>
  <course>208.98</course>
  <speed>0.022360679774997897</speed>
  <fix>3d</fix>
</trkpt>
<trkpt lat="33.810313" lon="-118.393867">
  <ele>-34.06</ele>
  <time>2026-09-01T01:13:28Z</time>
  <course>286.48</course>
  <speed>0.0</speed>
  <fix>3d</fix>
</trkpt>
<trkpt lat="33.8103132" lon="-118.3938671">
  <ele>-34.914</ele>
  <time>2026-09-01T01:13:28Z</time>
  <course>211.27</course>
  <speed>0.022360679774997897</speed>
  <fix>3d</fix>
</trkpt>
<trkpt lat="33.810313" lon="-118.393867">
  <ele>-34.08</ele>
  <time>2026-09-01T01:13:28Z</time>
  <course>288.44</course>
  <speed>0.0</speed>
  <fix>3d</fix>
</trkpt>
<trkpt lat="33.8103132" lon="-118.3938671">
  <ele>-34.935</ele>
  <time>2026-09-01T01:13:28Z</time>
  <course>213.58</course>
  <speed>0.022360679774997897</speed>
  <fix>3d</fix>
</trkpt>
<trkpt lat="33.810313" lon="-118.393867">
  <ele>-34.08</ele>
  <time>2026-09-01T01:13:28Z</time>
  <course>288.44</course>
  <speed>0.0</speed>
  <fix>3d</fix>
</trkpt>
<trkpt lat="33.8103132" lon="-118.3938671">
  <ele>-34.956</ele>
  <time>2026-09-01T01:13:28Z</time>
  <course>215.91</course>
  <speed>0.022360679774997897</speed>
  <fix>3d</fix>
</trkpt>
<trkpt lat="33.810313" lon="-118.393867">
  <ele>-34.11</ele>
  <time>2026-09-01T01:13:28Z</time>
  <course>289.95</course>
  <speed>0.0</speed>
  <fix>3d</fix>
</trkpt>
<trkpt lat="33.8103132" lon="-118.3938671">
  <ele>-34.978</ele>
  <time>2026-09-01T01:13:28Z</time>
  <course>218.26</course>
  <speed>0.01414213562373095</speed>
  <fix>3d</fix>
</trkpt>
<trkpt lat="33.810313" lon="-118.393867">
  <ele>-34.11</ele>
  <time>2026-09-01T01:13:28Z</time>
  <course>289.95</course>
  <speed>0.0</speed>
  <fix>3d</fix>
</trkpt>
<trkpt lat="33.8103132" lon="-118.3938671">
  <ele>-35.0</ele>
  <time>2026-09-01T01:13:28Z</time>
  <course>220.65</course>
  <speed>0.022360679774997897</speed>
  <fix>3d</fix>
</trkpt>
<trkpt lat="33.810313" lon="-118.393867">
  <ele>-34.14</ele>
  <time>2026-09-01T01:13:28Z</time>
  <course>290.81</course>
  <speed>0.0</speed>
  <fix>3d</fix>
</trkpt>
<trkpt lat="33.8103132" lon="-118.3938671">
  <ele>-35.019</ele>
  <time>2026-09-01T01:13:28Z</time>
  <course>223.03</course>
  <speed>0.022360679774997897</speed>
  <fix>3d</fix>
</trkpt>
<trkpt lat="33.810313" lon="-118.393867">
  <ele>-34.14</ele>
  <time>2026-09-01T01:13:28Z</time>
  <course>290.81</course>
  <speed>0.0</speed>
  <fix>3d</fix>
</trkpt>
<trkpt lat="33.8103132" lon="-118.3938671">
  <ele>-35.037</ele>
  <time>2026-09-01T01:13:28Z</time>
  <course>225.44</course>
  <speed>0.022360679774997897</speed>
  <fix>3d</fix>
</trkpt>
<trkpt lat="33.810313" lon="-118.393867">
  <ele>-34.17</ele>
  <time>2026-09-01T01:13:28Z</time>
  <course>290.6</course>
  <speed>0.0</speed>
  <fix>3d</fix>
</trkpt>
<trkpt lat="33.8103132" lon="-118.3938671">
  <ele>-35.052</ele>
  <time>2026-09-01T01:13:28Z</time>
  <course>227.85</course>
  <speed>0.022360679774997897</speed>
  <fix>3d</fix>
</trkpt>
<trkpt lat="33.810313" lon="-118.393867">
  <ele>-34.17</ele>
  <time>2026-09-01T01:13:28Z</time>
  <course>290.6</course>
  <speed>0.0</speed>
  <fix>3d</fix>
</trkpt>
<trkpt lat="33.8103132" lon="-118.3938671">
  <ele>-35.064</ele>
  <time>2026-09-01T01:13:28Z</time>
  <course>230.27</course>
  <speed>0.022360679774997897</speed>
  <fix>3d</fix>
</trkpt>
<trkpt lat="33.810313" lon="-118.393867">
  <ele>-34.2</ele>
  <time>2026-09-01T01:13:28Z</time>
  <course>289.6</course>
  <speed>0.0</speed>
  <fix>3d</fix>
</trkpt>
<trkpt lat="33.8103132" lon="-118.3938671">
  <ele>-35.072</ele>
  <time>2026-09-01T01:13:28Z</time>
  <course>232.71</course>
  <speed>0.022360679774997897</speed>
  <fix>3d</fix>
</trkpt>
<trkpt lat="33.810313" lon="-118.393867">
  <ele>-34.2</ele>
  <time>2026-09-01T01:13:28Z</time>
  <course>289.6</course>
  <speed>0.0</speed>
  <fix>3d</fix>
</trkpt>
<trkpt lat="33.8103132" lon="-118.3938672">
  <ele>-35.077</ele>
  <time>2026-09-01T01:13:28Z</time>
  <course>235.16</course>
  <speed>0.022360679774997897</speed>
  <fix>3d</fix>
</trkpt>
<trkpt lat="33.810313" lon="-118.393867">
  <ele>-34.22</ele>
  <time>2026-09-01T01:13:28Z</time>
  <course>287.93</course>
  <speed>0.0</speed>
  <fix>3d</fix>
</trkpt>
<trkpt lat="33.8103132" lon="-118.3938672">
  <ele>-35.078</ele>
  <time>2026-09-01T01:13:28Z</time>
  <course>237.61</course>
  <speed>0.022360679774997897</speed>
  <fix>3d</fix>
</trkpt>
<trkpt lat="33.810313" lon="-118.393867">
  <ele>-34.22</ele>
  <time>2026-09-01T01:13:28Z</time>
  <course>287.93</course>
  <speed>0.0</speed>
  <fix>3d</fix>
</trkpt>
<trkpt lat="33.8103132" lon="-118.3938672">
  <ele>-35.079</ele>
  <time>2026-09-01T01:13:28Z</time>
  <course>240.06</course>
  <speed>0.022360679774997897</speed>
  <fix>3d</fix>
</trkpt>
<trkpt lat="33.810313" lon="-118.393867">
  <ele>-34.23</ele>
  <time>2026-09-01T01:13:28Z</time>
  <course>284.23</course>
  <speed>0.0</speed>
  <fix>3d</fix>
</trkpt>
<trkpt lat="33.8103132" lon="-118.3938672">
  <ele>-35.078</ele>
  <time>2026-09-01T01:13:28Z</time>
  <course>242.54</course>
  <speed>0.022360679774997897</speed>
  <fix>3d</fix>
</trkpt>
<trkpt lat="33.810313" lon="-118.393867">
  <ele>-34.23</ele>
  <time>2026-09-01T01:13:28Z</time>
  <course>284.23</course>
  <speed>0.0</speed>
  <fix>3d</fix>
</trkpt>
<trkpt lat="33.8103132" lon="-118.3938672">
  <ele>-35.075</ele>
  <time>2026-09-01T01:13:28Z</time>
  <course>245.03</course>
  <speed>0.022360679774997897</speed>
  <fix>3d</fix>
</trkpt>
<trkpt lat="33.810313" lon="-118.393867">
  <ele>-34.22</ele>
  <time>2026-09-01T01:13:28Z</time>
  <course>281.66</course>
  <speed>0.0</speed>
  <fix>3d</fix>
</trkpt>
<trkpt lat="33.8103132" lon="-118.3938672">
  <ele>-35.072</ele>
  <time>2026-09-01T01:13:28Z</time>
  <course>247.51</course>
  <speed>0.022360679774997897</speed>
  <fix>3d</fix>
</trkpt>
<trkpt lat="33.810313" lon="-118.393867">
  <ele>-34.22</ele>
  <time>2026-09-01T01:13:28Z</time>
  <course>281.66</course>
  <speed>0.0</speed>
  <fix>3d</fix>
</trkpt>
<trkpt lat="33.8103132" lon="-118.3938672">
  <ele>-35.067</ele>
  <time>2026-09-01T01:13:28Z</time>
  <course>250.0</course>
  <speed>0.022360679774997897</speed>
  <fix>3d</fix>
</trkpt>
<trkpt lat="33.810313" lon="-118.393867">
  <ele>-34.22</ele>
  <time>2026-09-01T01:13:28Z</time>
  <course>282.56</course>
  <speed>0.0</speed>
  <fix>3d</fix>
</trkpt>
<trkpt lat="33.8103132" lon="-118.3938672">
  <ele>-35.06</ele>
  <time>2026-09-01T01:13:28Z</time>
  <course>252.49</course>
  <speed>0.022360679774997897</speed>
  <fix>3d</fix>
</trkpt>
<trkpt lat="33.810313" lon="-118.393867">
  <ele>-34.22</ele>
  <time>2026-09-01T01:13:28Z</time>
  <course>282.56</course>
  <speed>0.0</speed>
  <fix>3d</fix>
</trkpt>
<trkpt lat="33.8103132" lon="-118.3938672">
  <ele>-35.052</ele>
  <time>2026-09-01T01:13:28Z</time>
  <course>254.98</course>
  <speed>0.022360679774997897</speed>
  <fix>3d</fix>
</trkpt>
<trkpt lat="33.810313" lon="-118.393867">
  <ele>-34.21</ele>
  <time>2026-09-01T01:13:28Z</time>
  <course>283.46</course>
  <speed>0.0</speed>
  <fix>3d</fix>
</trkpt>
<trkpt lat="33.8103132" lon="-118.3938672">
  <ele>-35.042</ele>
  <time>2026-09-01T01:13:28Z</time>
  <course>257.47</course>
  <speed>0.022360679774997897</speed>
  <fix>3d</fix>
</trkpt>
<trkpt lat="33.810313" lon="-118.393867">
  <ele>-34.21</ele>
  <time>2026-09-01T01:13:28Z</time>
  <course>283.46</course>
  <speed>0.0</speed>
  <fix>3d</fix>
</trkpt>
<trkpt lat="33.8103132" lon="-118.3938672">
  <ele>-35.032</ele>
  <time>2026-09-01T01:13:28Z</time>
  <course>259.97</course>
  <speed>0.022360679774997897</speed>
  <fix>3d</fix>
</trkpt>
<trkpt lat="33.810313" lon="-118.393867">
  <ele>-34.2</ele>
  <time>2026-09-01T01:13:28Z</time>
  <course>283.48</course>
  <speed>0.0</speed>
  <fix>3d</fix>
</trkpt>
<trkpt lat="33.8103132" lon="-118.3938672">
  <ele>-35.024</ele>
  <time>2026-09-01T01:13:28Z</time>
  <course>262.46</course>
  <speed>0.022360679774997897</speed>
  <fix>3d</fix>
</trkpt>
<trkpt lat="33.810313" lon="-118.393867">
  <ele>-34.2</ele>
  <time>2026-09-01T01:13:28Z</time>
  <course>283.48</course>
  <speed>0.0</speed>
  <fix>3d</fix>
</trkpt>
<trkpt lat="33.8103132" lon="-118.3938672">
  <ele>-35.018</ele>
  <time>2026-09-01T01:13:28Z</time>
  <course>264.96</course>
  <speed>0.022360679774997897</speed>
  <fix>3d</fix>
</trkpt>
<trkpt lat="33.810313" lon="-118.393867">
  <ele>-34.19</ele>
  <time>2026-09-01T01:13:28Z</time>
  <course>286.67</course>
  <speed>0.0</speed>
  <fix>3d</fix>
</trkpt>
<trkpt lat="33.8103132" lon="-118.3938672">
  <ele>-35.013</ele>
  <time>2026-09-01T01:13:28Z</time>
  <course>267.46</course>
  <speed>0.022360679774997897</speed>
  <fix>3d</fix>
</trkpt>
<trkpt lat="33.810313" lon="-118.393867">
  <ele>-34.19</ele>
  <time>2026-09-01T01:13:28Z</time>
  <course>286.67</course>
  <speed>0.0</speed>
  <fix>3d</fix>
</trkpt>
<trkpt lat="33.8103132" lon="-118.3938672">
  <ele>-35.009</ele>
  <time>2026-09-01T01:13:28Z</time>
  <course>269.96</course>
  <speed>0.022360679774997897</speed>
  <fix>3d</fix>
</trkpt>
<trkpt lat="33.810313" lon="-118.393867">
  <ele>-34.17</ele>
  <time>2026-09-01T01:13:28Z</time>
  <course>292.94</course>
  <speed>0.0</speed>
  <fix>3d</fix>
</trkpt>
<trkpt lat="33.8103132" lon="-118.3938672">
  <ele>-35.008</ele>
  <time>2026-09-01T01:13:28Z</time>
  <course>272.49</course>
  <speed>0.022360679774997897</speed>
  <fix>3d</fix>
</trkpt>
<trkpt lat="33.810313" lon="-118.393867">
  <ele>-34.17</ele>
  <time>2026-09-01T01:13:28Z</time>
  <course>292.94</course>
  <speed>0.0</speed>
  <fix>3d</fix>
</trkpt>
<trkpt lat="33.8103132" lon="-118.3938672">
  <ele>-35.008</ele>
  <time>2026-09-01T01:13:28Z</time>
  <course>275.0</course>
  <speed>0.022360679774997897</speed>
  <fix>3d</fix>
</trkpt>
<trkpt lat="33.810313" lon="-118.393867">
  <ele>-34.17</ele>
  <time>2026-09-01T01:13:28Z</time>
  <course>299.66</course>
  <speed>0.0</speed>
  <fix>3d</fix>
</trkpt>
<trkpt lat="33.8103132" lon="-118.3938672">
  <ele>-35.009</ele>
  <time>2026-09-01T01:13:28Z</time>
  <course>277.51</course>
  <speed>0.022360679774997897</speed>
  <fix>3d</fix>
</trkpt>
<trkpt lat="33.810313" lon="-118.393867">
  <ele>-34.17</ele>
  <time>2026-09-01T01:13:28Z</time>
  <course>299.66</course>
  <speed>0.0</speed>
  <fix>3d</fix>
</trkpt>
<trkpt lat="33.8103132" lon="-118.3938672">
  <ele>-35.01</ele>
  <time>2026-09-01T01:13:28Z</time>
  <course>280.01</course>
  <speed>0.022360679774997897</speed>
  <fix>3d</fix>
</trkpt>
<trkpt lat="33.810313" lon="-118.393867">
  <ele>-34.17</ele>
  <time>2026-09-01T01:13:28Z</time>
  <course>303.87</course>
  <speed>0.0</speed>
  <fix>3d</fix>
</trkpt>
<trkpt lat="33.8103132" lon="-118.3938672">
  <ele>-35.01</ele>
  <time>2026-09-01T01:13:28Z</time>
  <course>282.52</course>
  <speed>0.022360679774997897</speed>
  <fix>3d</fix>
</trkpt>
<trkpt lat="33.810313" lon="-118.393867">
  <ele>-34.17</ele>
  <time>2026-09-01T01:13:28Z</time>
  <course>303.87</course>
  <speed>0.0</speed>
  <fix>3d</fix>
</trkpt>
<trkpt lat="33.8103132" lon="-118.3938672">
  <ele>-35.008</ele>
  <time>2026-09-01T01:13:28Z</time>
  <course>285.02</course>
  <speed>0.022360679774997897</speed>
  <fix>3d</fix>
</trkpt>
<trkpt lat="33.810313" lon="-118.393867">
  <ele>-34.17</ele>
  <time>2026-09-01T01:13:28Z</time>
  <course>304.56</course>
  <speed>0.0</speed>
  <fix>3d</fix>
</trkpt>
<trkpt lat="33.8103132" lon="-118.3938672">
  <ele>-35.006</ele>
  <time>2026-09-01T01:13:28Z</time>
  <course>287.53</course>
  <speed>0.022360679774997897</speed>
  <fix>3d</fix>
</trkpt>
<trkpt lat="33.810313" lon="-118.393867">
  <ele>-34.17</ele>
  <time>2026-09-01T01:13:28Z</time>
  <course>304.56</course>
  <speed>0.0</speed>
  <fix>3d</fix>
</trkpt>
<trkpt lat="33.8103132" lon="-118.3938672">
  <ele>-35.004</ele>
  <time>2026-09-01T01:13:28Z</time>
  <course>290.03</course>
  <speed>0.022360679774997897</speed>
  <fix>3d</fix>
</trkpt>
<trkpt lat="33.810313" lon="-118.393867">
  <ele>-34.17</ele>
  <time>2026-09-01T01:13:28Z</time>
  <course>304.75</course>
  <speed>0.0</speed>
  <fix>3d</fix>
</trkpt>
<trkpt lat="33.8103132" lon="-118.3938672">
  <ele>-35.001</ele>
  <time>2026-09-01T01:13:28Z</time>
  <course>292.52</course>
  <speed>0.022360679774997897</speed>
  <fix>3d</fix>
</trkpt>
<trkpt lat="33.810313" lon="-118.393867">
  <ele>-34.17</ele>
  <time>2026-09-01T01:13:28Z</time>
  <course>304.75</course>
  <speed>0.0</speed>
  <fix>3d</fix>
</trkpt>
<trkpt lat="33.8103132" lon="-118.3938672">
  <ele>-34.998</ele>
  <time>2026-09-01T01:13:28Z</time>
  <course>295.02</course>
  <speed>0.022360679774997897</speed>
  <fix>3d</fix>
</trkpt>
<trkpt lat="33.810313" lon="-118.393867">
  <ele>-34.16</ele>
  <time>2026-09-01T01:13:28Z</time>
  <course>305.27</course>
  <speed>0.0</speed>
  <fix>3d</fix>
</trkpt>
<trkpt lat="33.8103132" lon="-118.3938672">
  <ele>-34.994</ele>
  <time>2026-09-01T01:13:28Z</time>
  <course>297.52</course>
  <speed>0.022360679774997897</speed>
  <fix>3d</fix>
</trkpt>
<trkpt lat="33.810313" lon="-118.393867">
  <ele>-34.16</ele>
  <time>2026-09-01T01:13:28Z</time>
  <course>305.27</course>
  <speed>0.0</speed>
  <fix>3d</fix>
</trkpt>
<trkpt lat="33.8103132" lon="-118.3938672">
  <ele>-34.991</ele>
  <time>2026-09-01T01:13:28Z</time>
  <course>300.01</course>
  <speed>0.022360679774997897</speed>
  <fix>3d</fix>
</trkpt>
<trkpt lat="33.810313" lon="-118.393867">
  <ele>-34.15</ele>
  <time>2026-09-01T01:13:28Z</time>
  <course>304.84</course>
  <speed>0.0</speed>
  <fix>3d</fix>
</trkpt>
<trkpt lat="33.8103132" lon="-118.3938672">
  <ele>-34.989</ele>
  <time>2026-09-01T01:13:28Z</time>
  <course>302.51</course>
  <speed>0.022360679774997897</speed>
  <fix>3d</fix>
</trkpt>
<trkpt lat="33.810313" lon="-118.393867">
  <ele>-34.15</ele>
  <time>2026-09-01T01:13:28Z</time>
  <course>304.84</course>
  <speed>0.0</speed>
  <fix>3d</fix>
</trkpt>
<trkpt lat="33.8103131" lon="-118.3938672">
  <ele>-34.99</ele>
  <time>2026-09-01T01:13:28Z</time>
  <course>305.0</course>
  <speed>0.01</speed>
  <fix>3d</fix>
</trkpt>
<trkpt lat="33.810313" lon="-118.393867">
  <ele>-34.15</ele>
  <time>2026-09-01T01:13:28Z</time>
  <course>304.93</course>
  <speed>0.0</speed>
  <fix>3d</fix>
</trkpt>
<trkpt lat="33.8103131" lon="-118.3938672">
  <ele>-34.99</ele>
  <time>2026-09-01T01:13:28Z</time>
  <course>307.5</course>
  <speed>0.01</speed>
  <fix>3d</fix>
</trkpt>
<trkpt lat="33.810313" lon="-118.393867">
  <ele>-34.15</ele>
  <time>2026-09-01T01:13:28Z</time>
  <course>304.93</course>
  <speed>0.0</speed>
  <fix>3d</fix>
</trkpt>
<trkpt lat="33.8103131" lon="-118.3938672">
  <ele>-34.993</ele>
  <time>2026-09-01T01:13:28Z</time>
  <course>309.99</course>
  <speed>0.01</speed>
  <fix>3d</fix>
</trkpt>
<trkpt lat="33.810313" lon="-118.393867">
  <ele>-34.15</ele>
  <time>2026-09-01T01:13:28Z</time>
  <course>309.04</course>
  <speed>0.0</speed>
  <fix>3d</fix>
</trkpt>
<trkpt lat="33.8103131" lon="-118.3938672">
  <ele>-34.998</ele>
  <time>2026-09-01T01:13:28Z</time>
  <course>312.49</course>
  <speed>0.01</speed>
  <fix>3d</fix>
</trkpt>
<trkpt lat="33.810313" lon="-118.393867">
  <ele>-34.15</ele>
  <time>2026-09-01T01:13:28Z</time>
  <course>309.04</course>
  <speed>0.0</speed>
  <fix>3d</fix>
</trkpt>
<trkpt lat="33.8103131" lon="-118.3938672">
  <ele>-35.004</ele>
  <time>2026-09-01T01:13:28Z</time>
  <course>314.98</course>
  <speed>0.01</speed>
  <fix>3d</fix>
</trkpt>
<trkpt lat="33.810313" lon="-118.393867">
  <ele>-34.15</ele>
  <time>2026-09-01T01:13:28Z</time>
  <course>316.5</course>
  <speed>0.0</speed>
  <fix>3d</fix>
</trkpt>
<trkpt lat="33.8103131" lon="-118.3938672">
  <ele>-35.011</ele>
  <time>2026-09-01T01:13:28Z</time>
  <course>317.48</course>
  <speed>0.01</speed>
  <fix>3d</fix>
</trkpt>
<trkpt lat="33.810313" lon="-118.393867">
  <ele>-34.15</ele>
  <time>2026-09-01T01:13:28Z</time>
  <course>316.5</course>
  <speed>0.0</speed>
  <fix>3d</fix>
</trkpt>
<trkpt lat="33.8103131" lon="-118.3938672">
  <ele>-35.02</ele>
  <time>2026-09-01T01:13:28Z</time>
  <course>319.97</course>
  <speed>0.01</speed>
  <fix>3d</fix>
</trkpt>
<trkpt lat="33.810313" lon="-118.393867">
  <ele>-34.16</ele>
  <time>2026-09-01T01:13:28Z</time>
  <course>322.87</course>
  <speed>0.0</speed>
  <fix>3d</fix>
</trkpt>
<trkpt lat="33.8103131" lon="-118.3938672">
  <ele>-35.03</ele>
  <time>2026-09-01T01:13:28Z</time>
  <course>322.47</course>
  <speed>0.01</speed>
  <fix>3d</fix>
</trkpt>
<trkpt lat="33.810313" lon="-118.393867">
  <ele>-34.16</ele>
  <time>2026-09-01T01:13:28Z</time>
  <course>322.87</course>
  <speed>0.0</speed>
  <fix>3d</fix>
</trkpt>
<trkpt lat="33.8103131" lon="-118.3938672">
  <ele>-35.038</ele>
  <time>2026-09-01T01:13:28Z</time>
  <course>324.98</course>
  <speed>0.01</speed>
  <fix>3d</fix>
</trkpt>
<trkpt lat="33.810313" lon="-118.393867">
  <ele>-34.18</ele>
  <time>2026-09-01T01:13:28Z</time>
  <course>326.02</course>
  <speed>0.0</speed>
  <fix>3d</fix>
</trkpt>
<trkpt lat="33.8103131" lon="-118.3938672">
  <ele>-35.045</ele>
  <time>2026-09-01T01:13:28Z</time>
  <course>327.47</course>
  <speed>0.01</speed>
  <fix>3d</fix>
</trkpt>
<trkpt lat="33.810313" lon="-118.393867">
  <ele>-34.18</ele>
  <time>2026-09-01T01:13:28Z</time>
  <course>326.02</course>
  <speed>0.0</speed>
  <fix>3d</fix>
</trkpt>
<trkpt lat="33.8103131" lon="-118.3938672">
  <ele>-35.052</ele>
  <time>2026-09-01T01:13:28Z</time>
  <course>329.94</course>
  <speed>0.01</speed>
  <fix>3d</fix>
</trkpt>
<trkpt lat="33.810313" lon="-118.393867">
  <ele>-34.19</ele>
  <time>2026-09-01T01:13:28Z</time>
  <course>326.79</course>
  <speed>0.0</speed>
  <fix>3d</fix>
</trkpt>
<trkpt lat="33.8103131" lon="-118.3938672">
  <ele>-35.057</ele>
  <time>2026-09-01T01:13:28Z</time>
  <course>332.42</course>
  <speed>0.01</speed>
  <fix>3d</fix>
</trkpt>
<trkpt lat="33.810313" lon="-118.393867">
  <ele>-34.19</ele>
  <time>2026-09-01T01:13:28Z</time>
  <course>326.79</course>
  <speed>0.0</speed>
  <fix>3d</fix>
</trkpt>
<trkpt lat="33.8103131" lon="-118.3938672">
  <ele>-35.06</ele>
  <time>2026-09-01T01:13:28Z</time>
  <course>334.89</course>
  <speed>0.01</speed>
  <fix>3d</fix>
</trkpt>
<trkpt lat="33.810313" lon="-118.393867">
  <ele>-34.2</ele>
  <time>2026-09-01T01:13:28Z</time>
  <course>326.16</course>
  <speed>0.0</speed>
  <fix>3d</fix>
</trkpt>
<trkpt lat="33.8103131" lon="-118.3938672">
  <ele>-35.061</ele>
  <time>2026-09-01T01:13:28Z</time>
  <course>337.35</course>
  <speed>0.01</speed>
  <fix>3d</fix>
</trkpt>
<trkpt lat="33.810313" lon="-118.393867">
  <ele>-34.2</ele>
  <time>2026-09-01T01:13:28Z</time>
  <course>326.16</course>
  <speed>0.0</speed>
  <fix>3d</fix>
</trkpt>
<trkpt lat="33.8103131" lon="-118.3938672">
  <ele>-35.061</ele>
  <time>2026-09-01T01:13:28Z</time>
  <course>339.82</course>
  <speed>0.01</speed>
  <fix>3d</fix>
</trkpt>
<trkpt lat="33.810313" lon="-118.393867">
  <ele>-34.21</ele>
  <time>2026-09-01T01:13:28Z</time>
  <course>325.15</course>
  <speed>0.0</speed>
  <fix>3d</fix>
</trkpt>
<trkpt lat="33.8103131" lon="-118.3938672">
  <ele>-35.06</ele>
  <time>2026-09-01T01:13:28Z</time>
  <course>342.28</course>
  <speed>0.01</speed>
  <fix>3d</fix>
</trkpt>
<trkpt lat="33.810313" lon="-118.393867">
  <ele>-34.21</ele>
  <time>2026-09-01T01:13:28Z</time>
  <course>325.15</course>
  <speed>0.0</speed>
  <fix>3d</fix>
</trkpt>
<trkpt lat="33.8103131" lon="-118.3938672">
  <ele>-35.056</ele>
  <time>2026-09-01T01:13:28Z</time>
  <course>344.74</course>
  <speed>0.0</speed>
  <fix>3d</fix>
</trkpt>
<trkpt lat="33.810313" lon="-118.393867">
  <ele>-34.21</ele>
  <time>2026-09-01T01:13:28Z</time>
  <course>322.47</course>
  <speed>0.0</speed>
  <fix>3d</fix>
</trkpt>
<trkpt lat="33.8103131" lon="-118.3938672">
  <ele>-35.049</ele>
  <time>2026-09-01T01:13:28Z</time>
  <course>347.2</course>
  <speed>0.0</speed>
  <fix>3d</fix>
</trkpt>
<trkpt lat="33.810313" lon="-118.393867">
  <ele>-34.21</ele>
  <time>2026-09-01T01:13:28Z</time>
  <course>322.47</course>
  <speed>0.0</speed>
  <fix>3d</fix>
</trkpt>
<trkpt lat="33.8103131" lon="-118.3938671">
  <ele>-35.04</ele>
  <time>2026-09-01T01:13:28Z</time>
  <course>349.66</course>
  <speed>0.0</speed>
  <fix>3d</fix>
</trkpt>
<trkpt lat="33.810313" lon="-118.393867">
  <ele>-34.2</ele>
  <time>2026-09-01T01:13:28Z</time>
  <course>318.72</course>
  <speed>0.0</speed>
  <fix>3d</fix>
</trkpt>
<trkpt lat="33.8103131" lon="-118.3938671">
  <ele>-35.029</ele>
  <time>2026-09-01T01:13:28Z</time>
  <course>352.11</course>
  <speed>0.0</speed>
  <fix>3d</fix>
</trkpt>
<trkpt lat="33.810313" lon="-118.393867">
  <ele>-34.2</ele>
  <time>2026-09-01T01:13:28Z</time>
  <course>318.72</course>
  <speed>0.0</speed>
  <fix>3d</fix>
</trkpt>
<trkpt lat="33.8103131" lon="-118.3938671">
  <ele>-35.017</ele>
  <time>2026-09-01T01:13:28Z</time>
  <course>354.57</course>
  <speed>0.0</speed>
  <fix>3d</fix>
</trkpt>
<trkpt lat="33.810313" lon="-118.393867">
  <ele>-34.19</ele>
  <time>2026-09-01T01:13:28Z</time>
  <course>316.73</course>
  <speed>0.0</speed>
  <fix>3d</fix>
</trkpt>
<trkpt lat="33.8103131" lon="-118.3938671">
  <ele>-35.004</ele>
  <time>2026-09-01T01:13:28Z</time>
  <course>357.02</course>
  <speed>0.0</speed>
  <fix>3d</fix>
</trkpt>
<trkpt lat="33.810313" lon="-118.393867">
  <ele>-34.19</ele>
  <time>2026-09-01T01:13:28Z</time>
  <course>316.73</course>
  <speed>0.0</speed>
  <fix>3d</fix>
</trkpt>
<trkpt lat="33.8103131" lon="-118.3938671">
  <ele>-34.99</ele>
  <time>2026-09-01T01:13:28Z</time>
  <course>359.48</course>
  <speed>0.0</speed>
  <fix>3d</fix>
</trkpt>
<trkpt lat="33.810313" lon="-118.393867">
  <ele>-34.17</ele>
  <time>2026-09-01T01:13:28Z</time>
  <course>316.45</course>
  <speed>0.0</speed>
  <fix>3d</fix>
</trkpt>
<trkpt lat="33.8103131" lon="-118.3938671">
  <ele>-34.976</ele>
  <time>2026-09-01T01:13:29Z</time>
  <course>1.92</course>
  <speed>0.0</speed>
  <fix>3d</fix>
</trkpt>
<trkpt lat="33.810313" lon="-118.393867">
  <ele>-34.17</ele>
  <time>2026-09-01T01:13:29Z</time>
  <course>316.45</course>
  <speed>0.0</speed>
  <fix>3d</fix>
</trkpt>
<trkpt lat="33.8103131" lon="-118.3938671">
  <ele>-34.962</ele>
  <time>2026-09-01T01:13:29Z</time>
  <course>4.38</course>
  <speed>0.0</speed>
  <fix>3d</fix>
</trkpt>
<trkpt lat="33.810313" lon="-118.393867">
  <ele>-34.14</ele>
  <time>2026-09-01T01:13:29Z</time>
  <course>316.69</course>
  <speed>0.0</speed>
  <fix>3d</fix>
</trkpt>
<trkpt lat="33.8103131" lon="-118.3938671">
  <ele>-34.952</ele>
  <time>2026-09-01T01:13:29Z</time>
  <course>6.83</course>
  <speed>0.0</speed>
  <fix>3d</fix>
</trkpt>
<trkpt lat="33.810313" lon="-118.393867">
  <ele>-34.14</ele>
  <time>2026-09-01T01:13:29Z</time>
  <course>316.69</course>
  <speed>0.0</speed>
  <fix>3d</fix>
</trkpt>
<trkpt lat="33.8103131" lon="-118.3938671">
  <ele>-34.943</ele>
  <time>2026-09-01T01:13:29Z</time>
  <course>9.29</course>
  <speed>0.0</speed>
  <fix>3d</fix>
</trkpt>
<trkpt lat="33.810313" lon="-118.393867">
  <ele>-34.12</ele>
  <time>2026-09-01T01:13:29Z</time>
  <course>317.47</course>
  <speed>0.0</speed>
  <fix>3d</fix>
</trkpt>
<trkpt lat="33.8103131" lon="-118.3938671">
  <ele>-34.936</ele>
  <time>2026-09-01T01:13:29Z</time>
  <course>11.74</course>
  <speed>0.0</speed>
  <fix>3d</fix>
</trkpt>
<trkpt lat="33.810313" lon="-118.393867">
  <ele>-34.12</ele>
  <time>2026-09-01T01:13:29Z</time>
  <course>317.47</course>
  <speed>0.0</speed>
  <fix>3d</fix>
</trkpt>
<trkpt lat="33.8103131" lon="-118.3938671">
  <ele>-34.931</ele>
  <time>2026-09-01T01:13:29Z</time>
  <course>14.22</course>
  <speed>0.0</speed>
  <fix>3d</fix>
</trkpt>
<trkpt lat="33.810313" lon="-118.393867">
  <ele>-34.1</ele>
  <time>2026-09-01T01:13:29Z</time>
  <course>320.24</course>
  <speed>0.0</speed>
  <fix>3d</fix>
</trkpt>
<trkpt lat="33.8103131" lon="-118.3938671">
  <ele>-34.928</ele>
  <time>2026-09-01T01:13:29Z</time>
  <course>16.68</course>
  <speed>0.0</speed>
  <fix>3d</fix>
</trkpt>
<trkpt lat="33.810313" lon="-118.393867">
  <ele>-34.1</ele>
  <time>2026-09-01T01:13:29Z</time>
  <course>320.24</course>
  <speed>0.0</speed>
  <fix>3d</fix>
</trkpt>
<trkpt lat="33.8103131" lon="-118.3938671">
  <ele>-34.929</ele>
  <time>2026-09-01T01:13:29Z</time>
  <course>19.13</course>
  <speed>0.0</speed>
  <fix>3d</fix>
</trkpt>
<trkpt lat="33.810313" lon="-118.393867">
  <ele>-34.1</ele>
  <time>2026-09-01T01:13:29Z</time>
  <course>326.41</course>
  <speed>0.0</speed>
  <fix>3d</fix>
</trkpt>
<trkpt lat="33.8103131" lon="-118.3938671">
  <ele>-34.936</ele>
  <time>2026-09-01T01:13:29Z</time>
  <course>21.59</course>
  <speed>0.0</speed>
  <fix>3d</fix>
</trkpt>
<trkpt lat="33.810313" lon="-118.393867">
  <ele>-34.1</ele>
  <time>2026-09-01T01:13:29Z</time>
  <course>326.41</course>
  <speed>0.0</speed>
  <fix>3d</fix>
</trkpt>
<trkpt lat="33.8103131" lon="-118.3938671">
  <ele>-34.944</ele>
  <time>2026-09-01T01:13:29Z</time>
  <course>24.04</course>
  <speed>0.0</speed>
  <fix>3d</fix>
</trkpt>
<trkpt lat="33.810313" lon="-118.393867">
  <ele>-34.1</ele>
  <time>2026-09-01T01:13:29Z</time>
  <course>334.96</course>
  <speed>0.0</speed>
  <fix>3d</fix>
</trkpt>
<trkpt lat="33.8103131" lon="-118.3938671">
  <ele>-34.954</ele>
  <time>2026-09-01T01:13:29Z</time>
  <course>26.48</course>
  <speed>0.0</speed>
  <fix>3d</fix>
</trkpt>
<trkpt lat="33.810313" lon="-118.393867">
  <ele>-34.1</ele>
  <time>2026-09-01T01:13:29Z</time>
  <course>334.96</course>
  <speed>0.0</speed>
  <fix>3d</fix>
</trkpt>
<trkpt lat="33.8103131" lon="-118.3938671">
  <ele>-34.965</ele>
  <time>2026-09-01T01:13:29Z</time>
  <course>28.93</course>
  <speed>0.0</speed>
  <fix>3d</fix>
</trkpt>
<trkpt lat="33.810313" lon="-118.393867">
  <ele>-34.12</ele>
  <time>2026-09-01T01:13:29Z</time>
  <course>340.56</course>
  <speed>0.0</speed>
  <fix>3d</fix>
</trkpt>
<trkpt lat="33.8103131" lon="-118.3938671">
  <ele>-34.976</ele>
  <time>2026-09-01T01:13:29Z</time>
  <course>31.36</course>
  <speed>0.0</speed>
  <fix>3d</fix>
</trkpt>
<trkpt lat="33.810313" lon="-118.393867">
  <ele>-34.12</ele>
  <time>2026-09-01T01:13:29Z</time>
  <course>340.56</course>
  <speed>0.0</speed>
  <fix>3d</fix>
</trkpt>
<trkpt lat="33.8103131" lon="-118.3938671">
  <ele>-34.987</ele>
  <time>2026-09-01T01:13:29Z</time>
  <course>33.8</course>
  <speed>0.0</speed>
  <fix>3d</fix>
</trkpt>
<trkpt lat="33.810313" lon="-118.393867">
  <ele>-34.15</ele>
  <time>2026-09-01T01:13:29Z</time>
  <course>341.72</course>
  <speed>0.0</speed>
  <fix>3d</fix>
</trkpt>
<trkpt lat="33.8103131" lon="-118.3938671">
  <ele>-34.997</ele>
  <time>2026-09-01T01:13:29Z</time>
  <course>36.24</course>
  <speed>0.0</speed>
  <fix>3d</fix>
</trkpt>
<trkpt lat="33.810313" lon="-118.393867">
  <ele>-34.15</ele>
  <time>2026-09-01T01:13:29Z</time>
  <course>341.72</course>
  <speed>0.0</speed>
  <fix>3d</fix>
</trkpt>
<trkpt lat="33.810313" lon="-118.3938671">
  <ele>-35.005</ele>
  <time>2026-09-01T01:13:29Z</time>
  <course>38.67</course>
  <speed>0.0</speed>
  <fix>3d</fix>
</trkpt>
<trkpt lat="33.810313" lon="-118.393867">
  <ele>-34.16</ele>
  <time>2026-09-01T01:13:29Z</time>
  <course>341.84</course>
  <speed>0.0</speed>
  <fix>3d</fix>
</trkpt>
<trkpt lat="33.810313" lon="-118.3938671">
  <ele>-35.013</ele>
  <time>2026-09-01T01:13:29Z</time>
  <course>41.11</course>
  <speed>0.0</speed>
  <fix>3d</fix>
</trkpt>
<trkpt lat="33.810313" lon="-118.393867">
  <ele>-34.16</ele>
  <time>2026-09-01T01:13:29Z</time>
  <course>341.84</course>
  <speed>0.0</speed>
  <fix>3d</fix>
</trkpt>
<trkpt lat="33.810313" lon="-118.3938671">
  <ele>-35.021</ele>
  <time>2026-09-01T01:13:29Z</time>
  <course>43.54</course>
  <speed>0.0</speed>
  <fix>3d</fix>
</trkpt>
<trkpt lat="33.810313" lon="-118.393867">
  <ele>-34.18</ele>
  <time>2026-09-01T01:13:29Z</time>
  <course>341.73</course>
  <speed>0.0</speed>
  <fix>3d</fix>
</trkpt>
<trkpt lat="33.810313" lon="-118.3938671">
  <ele>-35.03</ele>
  <time>2026-09-01T01:13:29Z</time>
  <course>45.97</course>
  <speed>0.0</speed>
  <fix>3d</fix>
</trkpt>
<trkpt lat="33.810313" lon="-118.393867">
  <ele>-34.18</ele>
  <time>2026-09-01T01:13:29Z</time>
  <course>341.73</course>
  <speed>0.0</speed>
  <fix>3d</fix>
</trkpt>
<trkpt lat="33.810313" lon="-118.3938671">
  <ele>-35.038</ele>
  <time>2026-09-01T01:13:29Z</time>
  <course>48.4</course>
  <speed>0.0</speed>
  <fix>3d</fix>
</trkpt>
<trkpt lat="33.810313" lon="-118.393867">
  <ele>-34.19</ele>
  <time>2026-09-01T01:13:29Z</time>
  <course>341.98</course>
  <speed>0.0</speed>
  <fix>3d</fix>
</trkpt>
<trkpt lat="33.810313" lon="-118.3938671">
  <ele>-35.046</ele>
  <time>2026-09-01T01:13:29Z</time>
  <course>50.82</course>
  <speed>0.0</speed>
  <fix>3d</fix>
</trkpt>
<trkpt lat="33.810313" lon="-118.393867">
  <ele>-34.19</ele>
  <time>2026-09-01T01:13:29Z</time>
  <course>341.98</course>
  <speed>0.0</speed>
  <fix>3d</fix>
</trkpt>
<trkpt lat="33.810313" lon="-118.3938671">
  <ele>-35.054</ele>
  <time>2026-09-01T01:13:29Z</time>
  <course>53.25</course>
  <speed>0.0</speed>
  <fix>3d</fix>
</trkpt>
<trkpt lat="33.810313" lon="-118.393867">
  <ele>-34.21</ele>
  <time>2026-09-01T01:13:29Z</time>
  <course>342.55</course>
  <speed>0.0</speed>
  <fix>3d</fix>
</trkpt>
<trkpt lat="33.810313" lon="-118.3938671">
  <ele>-35.06</ele>
  <time>2026-09-01T01:13:29Z</time>
  <course>55.68</course>
  <speed>0.0</speed>
  <fix>3d</fix>
</trkpt>
<trkpt lat="33.810313" lon="-118.393867">
  <ele>-34.21</ele>
  <time>2026-09-01T01:13:29Z</time>
  <course>342.55</course>
  <speed>0.0</speed>
  <fix>3d</fix>
</trkpt>
<trkpt lat="33.810313" lon="-118.3938671">
  <ele>-35.065</ele>
  <time>2026-09-01T01:13:29Z</time>
  <course>58.1</course>
  <speed>0.0</speed>
  <fix>3d</fix>
</trkpt>
<trkpt lat="33.810313" lon="-118.393867">
  <ele>-34.22</ele>
  <time>2026-09-01T01:13:29Z</time>
  <course>342.94</course>
  <speed>0.0</speed>
  <fix>3d</fix>
</trkpt>
<trkpt lat="33.810313" lon="-118.3938671">
  <ele>-35.07</ele>
  <time>2026-09-01T01:13:29Z</time>
  <course>60.53</course>
  <speed>0.0</speed>
  <fix>3d</fix>
</trkpt>
<trkpt lat="33.810313" lon="-118.393867">
  <ele>-34.22</ele>
  <time>2026-09-01T01:13:29Z</time>
  <course>342.94</course>
  <speed>0.0</speed>
  <fix>3d</fix>
</trkpt>
<trkpt lat="33.810313" lon="-118.3938671">
  <ele>-35.073</ele>
  <time>2026-09-01T01:13:29Z</time>
  <course>62.96</course>
  <speed>0.0</speed>
  <fix>3d</fix>
</trkpt>
<trkpt lat="33.810313" lon="-118.393867">
  <ele>-34.23</ele>
  <time>2026-09-01T01:13:29Z</time>
  <course>343.54</course>
  <speed>0.0</speed>
  <fix>3d</fix>
</trkpt>
<trkpt lat="33.810313" lon="-118.3938671">
  <ele>-35.074</ele>
  <time>2026-09-01T01:13:29Z</time>
  <course>65.4</course>
  <speed>0.0</speed>
  <fix>3d</fix>
</trkpt>
<trkpt lat="33.810313" lon="-118.393867">
  <ele>-34.23</ele>
  <time>2026-09-01T01:13:29Z</time>
  <course>343.54</course>
  <speed>0.0</speed>
  <fix>3d</fix>
</trkpt>
<trkpt lat="33.810313" lon="-118.3938671">
  <ele>-35.074</ele>
  <time>2026-09-01T01:13:29Z</time>
  <course>67.83</course>
  <speed>0.0</speed>
  <fix>3d</fix>
</trkpt>
<trkpt lat="33.810313" lon="-118.393867">
  <ele>-34.24</ele>
  <time>2026-09-01T01:13:29Z</time>
  <course>344.77</course>
  <speed>0.0</speed>
  <fix>3d</fix>
</trkpt>
<trkpt lat="33.810313" lon="-118.3938671">
  <ele>-35.07</ele>
  <time>2026-09-01T01:13:29Z</time>
  <course>70.26</course>
  <speed>0.0</speed>
  <fix>3d</fix>
</trkpt>
<trkpt lat="33.810313" lon="-118.393867">
  <ele>-34.24</ele>
  <time>2026-09-01T01:13:29Z</time>
  <course>344.77</course>
  <speed>0.0</speed>
  <fix>3d</fix>
</trkpt>
<trkpt lat="33.810313" lon="-118.3938671">
  <ele>-35.064</ele>
  <time>2026-09-01T01:13:29Z</time>
  <course>72.68</course>
  <speed>0.0</speed>
  <fix>3d</fix>
</trkpt>
<trkpt lat="33.810313" lon="-118.393867">
  <ele>-34.23</ele>
  <time>2026-09-01T01:13:29Z</time>
  <course>345.61</course>
  <speed>0.0</speed>
  <fix>3d</fix>
</trkpt>
<trkpt lat="33.810313" lon="-118.3938671">
  <ele>-35.057</ele>
  <time>2026-09-01T01:13:29Z</time>
  <course>75.11</course>
  <speed>0.0</speed>
  <fix>3d</fix>
</trkpt>
<trkpt lat="33.810313" lon="-118.393867">
  <ele>-34.23</ele>
  <time>2026-09-01T01:13:29Z</time>
  <course>345.61</course>
  <speed>0.0</speed>
  <fix>3d</fix>
</trkpt>
<trkpt lat="33.810313" lon="-118.3938671">
  <ele>-35.05</ele>
  <time>2026-09-01T01:13:29Z</time>
  <course>77.53</course>
  <speed>0.0</speed>
  <fix>3d</fix>
</trkpt>
<trkpt lat="33.810313" lon="-118.393867">
  <ele>-34.22</ele>
  <time>2026-09-01T01:13:29Z</time>
  <course>345.44</course>
  <speed>0.0</speed>
  <fix>3d</fix>
</trkpt>
<trkpt lat="33.810313" lon="-118.3938671">
  <ele>-35.042</ele>
  <time>2026-09-01T01:13:29Z</time>
  <course>79.96</course>
  <speed>0.0</speed>
  <fix>3d</fix>
</trkpt>
<trkpt lat="33.810313" lon="-118.393867">
  <ele>-34.22</ele>
  <time>2026-09-01T01:13:29Z</time>
  <course>345.44</course>
  <speed>0.0</speed>
  <fix>3d</fix>
</trkpt>
<trkpt lat="33.810313" lon="-118.3938671">
  <ele>-35.034</ele>
  <time>2026-09-01T01:13:29Z</time>
  <course>82.38</course>
  <speed>0.0</speed>
  <fix>3d</fix>
</trkpt>
<trkpt lat="33.810313" lon="-118.393867">
  <ele>-34.21</ele>
  <time>2026-09-01T01:13:29Z</time>
  <course>345.5</course>
  <speed>0.0</speed>
  <fix>3d</fix>
</trkpt>
<trkpt lat="33.810313" lon="-118.3938671">
  <ele>-35.029</ele>
  <time>2026-09-01T01:13:29Z</time>
  <course>84.81</course>
  <speed>0.0</speed>
  <fix>3d</fix>
</trkpt>
<trkpt lat="33.810313" lon="-118.393867">
  <ele>-34.21</ele>
  <time>2026-09-01T01:13:29Z</time>
  <course>345.5</course>
  <speed>0.0</speed>
  <fix>3d</fix>
</trkpt>
<trkpt lat="33.810313" lon="-118.3938671">
  <ele>-35.024</ele>
  <time>2026-09-01T01:13:29Z</time>
  <course>87.23</course>
  <speed>0.0</speed>
  <fix>3d</fix>
</trkpt>
<trkpt lat="33.810313" lon="-118.393867">
  <ele>-34.19</ele>
  <time>2026-09-01T01:13:29Z</time>
  <course>346.82</course>
  <speed>0.0</speed>
  <fix>3d</fix>
</trkpt>
<trkpt lat="33.810313" lon="-118.3938671">
  <ele>-35.022</ele>
  <time>2026-09-01T01:13:29Z</time>
  <course>89.66</course>
  <speed>0.0</speed>
  <fix>3d</fix>
</trkpt>
<trkpt lat="33.810313" lon="-118.393867">
  <ele>-34.19</ele>
  <time>2026-09-01T01:13:29Z</time>
  <course>346.82</course>
  <speed>0.0</speed>
  <fix>3d</fix>
</trkpt>
<trkpt lat="33.810313" lon="-118.3938671">
  <ele>-35.022</ele>
  <time>2026-09-01T01:13:29Z</time>
  <course>92.08</course>
  <speed>0.0</speed>
  <fix>3d</fix>
</trkpt>
<trkpt lat="33.810313" lon="-118.393867">
  <ele>-34.19</ele>
  <time>2026-09-01T01:13:29Z</time>
  <course>347.57</course>
  <speed>0.0</speed>
  <fix>3d</fix>
</trkpt>
<trkpt lat="33.810313" lon="-118.3938671">
  <ele>-35.024</ele>
  <time>2026-09-01T01:13:29Z</time>
  <course>94.51</course>
  <speed>0.0</speed>
  <fix>3d</fix>
</trkpt>
<trkpt lat="33.810313" lon="-118.393867">
  <ele>-34.19</ele>
  <time>2026-09-01T01:13:29Z</time>
  <course>347.57</course>
  <speed>0.0</speed>
  <fix>3d</fix>
</trkpt>
<trkpt lat="33.810313" lon="-118.3938671">
  <ele>-35.027</ele>
  <time>2026-09-01T01:13:29Z</time>
  <course>96.93</course>
  <speed>0.0</speed>
  <fix>3d</fix>
</trkpt>
<trkpt lat="33.810313" lon="-118.393867">
  <ele>-34.19</ele>
  <time>2026-09-01T01:13:29Z</time>
  <course>344.9</course>
  <speed>0.0</speed>
  <fix>3d</fix>
</trkpt>
<trkpt lat="33.810313" lon="-118.3938671">
  <ele>-35.03</ele>
  <time>2026-09-01T01:13:29Z</time>
  <course>99.35</course>
  <speed>0.0</speed>
  <fix>3d</fix>
</trkpt>
<trkpt lat="33.810313" lon="-118.393867">
  <ele>-34.19</ele>
  <time>2026-09-01T01:13:29Z</time>
  <course>344.9</course>
  <speed>0.0</speed>
  <fix>3d</fix>
</trkpt>
<trkpt lat="33.810313" lon="-118.3938671">
  <ele>-35.034</ele>
  <time>2026-09-01T01:13:29Z</time>
  <course>101.77</course>
  <speed>0.0</speed>
  <fix>3d</fix>
</trkpt>
<trkpt lat="33.810313" lon="-118.393867">
  <ele>-34.19</ele>
  <time>2026-09-01T01:13:29Z</time>
  <course>340.38</course>
  <speed>0.0</speed>
  <fix>3d</fix>
</trkpt>
<trkpt lat="33.810313" lon="-118.3938671">
  <ele>-35.039</ele>
  <time>2026-09-01T01:13:29Z</time>
  <course>104.19</course>
  <speed>0.0</speed>
  <fix>3d</fix>
</trkpt>
<trkpt lat="33.810313" lon="-118.393867">
  <ele>-34.19</ele>
  <time>2026-09-01T01:13:29Z</time>
  <course>340.38</course>
  <speed>0.0</speed>
  <fix>3d</fix>
</trkpt>
<trkpt lat="33.810313" lon="-118.3938671">
  <ele>-35.042</ele>
  <time>2026-09-01T01:13:29Z</time>
  <course>106.61</course>
  <speed>0.0</speed>
  <fix>3d</fix>
</trkpt>
<trkpt lat="33.810313" lon="-118.393867">
  <ele>-34.19</ele>
  <time>2026-09-01T01:13:29Z</time>
  <course>337.58</course>
  <speed>0.0</speed>
  <fix>3d</fix>
</trkpt>
<trkpt lat="33.810313" lon="-118.3938671">
  <ele>-35.045</ele>
  <time>2026-09-01T01:13:29Z</time>
  <course>109.03</course>
  <speed>0.0</speed>
  <fix>3d</fix>
</trkpt>
<trkpt lat="33.810313" lon="-118.393867">
  <ele>-34.19</ele>
  <time>2026-09-01T01:13:29Z</time>
  <course>337.58</course>
  <speed>0.0</speed>
  <fix>3d</fix>
</trkpt>
<trkpt lat="33.810313" lon="-118.3938671">
  <ele>-35.047</ele>
  <time>2026-09-01T01:13:29Z</time>
  <course>111.45</course>
  <speed>0.0</speed>
  <fix>3d</fix>
</trkpt>
<trkpt lat="33.810313" lon="-118.393867">
  <ele>-34.2</ele>
  <time>2026-09-01T01:13:29Z</time>
  <course>336.43</course>
  <speed>0.0</speed>
  <fix>3d</fix>
</trkpt>
<trkpt lat="33.810313" lon="-118.3938671">
  <ele>-35.049</ele>
  <time>2026-09-01T01:13:29Z</time>
  <course>113.87</course>
  <speed>0.0</speed>
  <fix>3d</fix>
</trkpt>
<trkpt lat="33.810313" lon="-118.393867">
  <ele>-34.2</ele>
  <time>2026-09-01T01:13:29Z</time>
  <course>336.43</course>
  <speed>0.0</speed>
  <fix>3d</fix>
</trkpt>
<trkpt lat="33.810313" lon="-118.3938671">
  <ele>-35.049</ele>
  <time>2026-09-01T01:13:29Z</time>
  <course>116.31</course>
  <speed>0.0</speed>
  <fix>3d</fix>
</trkpt>
<trkpt lat="33.810313" lon="-118.393867">
  <ele>-34.2</ele>
  <time>2026-09-01T01:13:29Z</time>
  <course>335.77</course>
  <speed>0.0</speed>
  <fix>3d</fix>
</trkpt>
<trkpt lat="33.810313" lon="-118.3938671">
  <ele>-35.049</ele>
  <time>2026-09-01T01:13:29Z</time>
  <course>118.73</course>
  <speed>0.0</speed>
  <fix>3d</fix>
</trkpt>
<trkpt lat="33.810313" lon="-118.393867">
  <ele>-34.2</ele>
  <time>2026-09-01T01:13:29Z</time>
  <course>335.77</course>
  <speed>0.0</speed>
  <fix>3d</fix>
</trkpt>
<trkpt lat="33.810313" lon="-118.3938671">
  <ele>-35.048</ele>
  <time>2026-09-01T01:13:29Z</time>
  <course>121.15</course>
  <speed>0.0</speed>
  <fix>3d</fix>
</trkpt>
<trkpt lat="33.810313" lon="-118.393867">
  <ele>-34.21</ele>
  <time>2026-09-01T01:13:29Z</time>
  <course>335.59</course>
  <speed>0.0</speed>
  <fix>3d</fix>
</trkpt>
<trkpt lat="33.810313" lon="-118.3938671">
  <ele>-35.046</ele>
  <time>2026-09-01T01:13:29Z</time>
  <course>123.57</course>
  <speed>0.0</speed>
  <fix>3d</fix>
</trkpt>
<trkpt lat="33.810313" lon="-118.393867">
  <ele>-34.21</ele>
  <time>2026-09-01T01:13:29Z</time>
  <course>335.59</course>
  <speed>0.0</speed>
  <fix>3d</fix>
</trkpt>
<trkpt lat="33.810313" lon="-118.3938671">
  <ele>-35.044</ele>
  <time>2026-09-01T01:13:29Z</time>
  <course>125.99</course>
  <speed>0.0</speed>
  <fix>3d</fix>
</trkpt>
<trkpt lat="33.810313" lon="-118.393867">
  <ele>-34.2</ele>
  <time>2026-09-01T01:13:29Z</time>
  <course>336.48</course>
  <speed>0.0</speed>
  <fix>3d</fix>
</trkpt>
<trkpt lat="33.810313" lon="-118.3938671">
  <ele>-35.04</ele>
  <time>2026-09-01T01:13:29Z</time>
  <course>128.41</course>
  <speed>0.0</speed>
  <fix>3d</fix>
</trkpt>
<trkpt lat="33.810313" lon="-118.393867">
  <ele>-34.2</ele>
  <time>2026-09-01T01:13:29Z</time>
  <course>336.48</course>
  <speed>0.0</speed>
  <fix>3d</fix>
</trkpt>
<trkpt lat="33.810313" lon="-118.3938671">
  <ele>-35.036</ele>
  <time>2026-09-01T01:13:29Z</time>
  <course>130.83</course>
  <speed>0.0</speed>
  <fix>3d</fix>
</trkpt>
<trkpt lat="33.810313" lon="-118.393867">
  <ele>-34.2</ele>
  <time>2026-09-01T01:13:29Z</time>
  <course>337.72</course>
  <speed>0.0</speed>
  <fix>3d</fix>
</trkpt>
<trkpt lat="33.810313" lon="-118.3938671">
  <ele>-35.031</ele>
  <time>2026-09-01T01:13:29Z</time>
  <course>133.25</course>
  <speed>0.0</speed>
  <fix>3d</fix>
</trkpt>
<trkpt lat="33.810313" lon="-118.393867">
  <ele>-34.2</ele>
  <time>2026-09-01T01:13:29Z</time>
  <course>337.72</course>
  <speed>0.0</speed>
  <fix>3d</fix>
</trkpt>
<trkpt lat="33.810313" lon="-118.3938671">
  <ele>-35.025</ele>
  <time>2026-09-01T01:13:29Z</time>
  <course>135.66</course>
  <speed>0.0</speed>
  <fix>3d</fix>
</trkpt>
<trkpt lat="33.810313" lon="-118.393867">
  <ele>-34.19</ele>
  <time>2026-09-01T01:13:29Z</time>
  <course>338.2</course>
  <speed>0.0</speed>
  <fix>3d</fix>
</trkpt>
<trkpt lat="33.810313" lon="-118.3938671">
  <ele>-35.018</ele>
  <time>2026-09-01T01:13:29Z</time>
  <course>138.09</course>
  <speed>0.0</speed>
  <fix>3d</fix>
</trkpt>
<trkpt lat="33.810313" lon="-118.393867">
  <ele>-34.19</ele>
  <time>2026-09-01T01:13:29Z</time>
  <course>338.2</course>
  <speed>0.0</speed>
  <fix>3d</fix>
</trkpt>
<trkpt lat="33.810313" lon="-118.3938671">
  <ele>-35.01</ele>
  <time>2026-09-01T01:13:29Z</time>
  <course>140.51</course>
  <speed>0.0</speed>
  <fix>3d</fix>
</trkpt>
<trkpt lat="33.810313" lon="-118.393867">
  <ele>-34.18</ele>
  <time>2026-09-01T01:13:29Z</time>
  <course>337.23</course>
  <speed>0.0</speed>
  <fix>3d</fix>
</trkpt>
<trkpt lat="33.810313" lon="-118.3938671">
  <ele>-35.004</ele>
  <time>2026-09-01T01:13:29Z</time>
  <course>142.93</course>
  <speed>0.0</speed>
  <fix>3d</fix>
</trkpt>
<trkpt lat="33.810313" lon="-118.393867">
  <ele>-34.18</ele>
  <time>2026-09-01T01:13:29Z</time>
  <course>337.23</course>
  <speed>0.0</speed>
  <fix>3d</fix>
</trkpt>
<trkpt lat="33.810313" lon="-118.3938671">
  <ele>-35.001</ele>
  <time>2026-09-01T01:13:29Z</time>
  <course>145.35</course>
  <speed>0.0</speed>
  <fix>3d</fix>
</trkpt>
<trkpt lat="33.810313" lon="-118.393867">
  <ele>-34.17</ele>
  <time>2026-09-01T01:13:29Z</time>
  <course>335.71</course>
  <speed>0.0</speed>
  <fix>3d</fix>
</trkpt>
<trkpt lat="33.810313" lon="-118.3938671">
  <ele>-35.002</ele>
  <time>2026-09-01T01:13:29Z</time>
  <course>147.76</course>
  <speed>0.0</speed>
  <fix>3d</fix>
</trkpt>
<trkpt lat="33.810313" lon="-118.393867">
  <ele>-34.17</ele>
  <time>2026-09-01T01:13:29Z</time>
  <course>335.71</course>
  <speed>0.0</speed>
  <fix>3d</fix>
</trkpt>
<trkpt lat="33.810313" lon="-118.3938671">
  <ele>-35.008</ele>
  <time>2026-09-01T01:13:29Z</time>
  <course>150.18</course>
  <speed>0.0</speed>
  <fix>3d</fix>
</trkpt>
<trkpt lat="33.810313" lon="-118.393867">
  <ele>-34.17</ele>
  <time>2026-09-01T01:13:29Z</time>
  <course>328.63</course>
  <speed>0.0</speed>
  <fix>3d</fix>
</trkpt>
<trkpt lat="33.810313" lon="-118.3938671">
  <ele>-35.017</ele>
  <time>2026-09-01T01:13:29Z</time>
  <course>152.59</course>
  <speed>0.0</speed>
  <fix>3d</fix>
</trkpt>
<trkpt lat="33.810313" lon="-118.393867">
  <ele>-34.17</ele>
  <time>2026-09-01T01:13:29Z</time>
  <course>328.63</course>
  <speed>0.0</speed>
  <fix>3d</fix>
</trkpt>
<trkpt lat="33.810313" lon="-118.3938671">
  <ele>-35.027</ele>
  <time>2026-09-01T01:13:29Z</time>
  <course>155.01</course>
  <speed>0.0</speed>
  <fix>3d</fix>
</trkpt>
<trkpt lat="33.810313" lon="-118.393867">
  <ele>-34.18</ele>
  <time>2026-09-01T01:13:29Z</time>
  <course>314.38</course>
  <speed>0.0</speed>
  <fix>3d</fix>
</trkpt>
<trkpt lat="33.810313" lon="-118.3938671">
  <ele>-35.037</ele>
  <time>2026-09-01T01:13:29Z</time>
  <course>157.42</course>
  <speed>0.0</speed>
  <fix>3d</fix>
</trkpt>
<trkpt lat="33.810313" lon="-118.393867">
  <ele>-34.18</ele>
  <time>2026-09-01T01:13:29Z</time>
  <course>314.38</course>
  <speed>0.0</speed>
  <fix>3d</fix>
</trkpt>
<trkpt lat="33.810313" lon="-118.3938671">
  <ele>-35.045</ele>
  <time>2026-09-01T01:13:29Z</time>
  <course>159.84</course>
  <speed>0.0</speed>
  <fix>3d</fix>
</trkpt>
<trkpt lat="33.810313" lon="-118.393867">
  <ele>-34.19</ele>
  <time>2026-09-01T01:13:29Z</time>
  <course>307.24</course>
  <speed>0.0</speed>
  <fix>3d</fix>
</trkpt>
<trkpt lat="33.810313" lon="-118.3938671">
  <ele>-35.053</ele>
  <time>2026-09-01T01:13:29Z</time>
  <course>162.25</course>
  <speed>0.0</speed>
  <fix>3d</fix>
</trkpt>
<trkpt lat="33.810313" lon="-118.393867">
  <ele>-34.19</ele>
  <time>2026-09-01T01:13:29Z</time>
  <course>307.24</course>
  <speed>0.0</speed>
  <fix>3d</fix>
</trkpt>
<trkpt lat="33.810313" lon="-118.3938671">
  <ele>-35.06</ele>
  <time>2026-09-01T01:13:29Z</time>
  <course>164.67</course>
  <speed>0.0</speed>
  <fix>3d</fix>
</trkpt>
<trkpt lat="33.810313" lon="-118.393867">
  <ele>-34.21</ele>
  <time>2026-09-01T01:13:29Z</time>
  <course>306.44</course>
  <speed>0.0</speed>
  <fix>3d</fix>
</trkpt>
<trkpt lat="33.810313" lon="-118.3938671">
  <ele>-35.065</ele>
  <time>2026-09-01T01:13:29Z</time>
  <course>167.11</course>
  <speed>0.0</speed>
  <fix>3d</fix>
</trkpt>
<trkpt lat="33.810313" lon="-118.393867">
  <ele>-34.21</ele>
  <time>2026-09-01T01:13:29Z</time>
  <course>306.44</course>
  <speed>0.0</speed>
  <fix>3d</fix>
</trkpt>
<trkpt lat="33.810313" lon="-118.3938671">
  <ele>-35.069</ele>
  <time>2026-09-01T01:13:29Z</time>
  <course>169.52</course>
  <speed>0.0</speed>
  <fix>3d</fix>
</trkpt>
<trkpt lat="33.810313" lon="-118.393867">
  <ele>-34.22</ele>
  <time>2026-09-01T01:13:29Z</time>
  <course>305.36</course>
  <speed>0.0</speed>
  <fix>3d</fix>
</trkpt>
<trkpt lat="33.810313" lon="-118.3938671">
  <ele>-35.071</ele>
  <time>2026-09-01T01:13:29Z</time>
  <course>171.94</course>
  <speed>0.0</speed>
  <fix>3d</fix>
</trkpt>
<trkpt lat="33.810313" lon="-118.393867">
  <ele>-34.22</ele>
  <time>2026-09-01T01:13:29Z</time>
  <course>305.36</course>
  <speed>0.0</speed>
  <fix>3d</fix>
</trkpt>
<trkpt lat="33.810313" lon="-118.3938671">
  <ele>-35.071</ele>
  <time>2026-09-01T01:13:29Z</time>
  <course>174.35</course>
  <speed>0.0</speed>
  <fix>3d</fix>
</trkpt>
<trkpt lat="33.810313" lon="-118.393867">
  <ele>-34.23</ele>
  <time>2026-09-01T01:13:29Z</time>
  <course>305.89</course>
  <speed>0.0</speed>
  <fix>3d</fix>
</trkpt>
<trkpt lat="33.810313" lon="-118.3938671">
  <ele>-35.066</ele>
  <time>2026-09-01T01:13:29Z</time>
  <course>176.77</course>
  <speed>0.0</speed>
  <fix>3d</fix>
</trkpt>
<trkpt lat="33.810313" lon="-118.393867">
  <ele>-34.23</ele>
  <time>2026-09-01T01:13:29Z</time>
  <course>305.89</course>
  <speed>0.0</speed>
  <fix>3d</fix>
</trkpt>
<trkpt lat="33.810313" lon="-118.3938671">
  <ele>-35.059</ele>
  <time>2026-09-01T01:13:29Z</time>
  <course>179.08</course>
  <speed>0.0</speed>
  <fix>3d</fix>
</trkpt>
<trkpt lat="33.810313" lon="-118.393867">
  <ele>-34.22</ele>
  <time>2026-09-01T01:13:29Z</time>
  <course>311.56</course>
  <speed>0.0</speed>
  <fix>3d</fix>
</trkpt>
<trkpt lat="33.810313" lon="-118.3938671">
  <ele>-35.05</ele>
  <time>2026-09-01T01:13:29Z</time>
  <course>180.8</course>
  <speed>0.0</speed>
  <fix>3d</fix>
</trkpt>
<trkpt lat="33.810313" lon="-118.393867">
  <ele>-34.22</ele>
  <time>2026-09-01T01:13:29Z</time>
  <course>311.56</course>
  <speed>0.0</speed>
  <fix>3d</fix>
</trkpt>
<trkpt lat="33.8103129" lon="-118.3938671">
  <ele>-35.041</ele>
  <time>2026-09-01T01:13:29Z</time>
  <course>182.72</course>
  <speed>0.2102379604162864</speed>
  <fix>3d</fix>
</trkpt>
<trkpt lat="33.810313" lon="-118.393867">
  <ele>-34.21</ele>
  <time>2026-09-01T01:13:29Z</time>
  <course>181.91</course>
  <speed>0.01</speed>
  <fix>3d</fix>
</trkpt>
<trkpt lat="33.8103126" lon="-118.3938671">
  <ele>-35.032</ele>
  <time>2026-09-01T01:13:29Z</time>
  <course>184.67</course>
  <speed>0.44045431091090476</speed>
  <fix>3d</fix>
</trkpt>
<trkpt lat="33.810313" lon="-118.393867">
  <ele>-34.21</ele>
  <time>2026-09-01T01:13:29Z</time>
  <course>181.91</course>
  <speed>0.01</speed>
  <fix>3d</fix>
</trkpt>
<trkpt lat="33.8103122" lon="-118.3938671">
  <ele>-35.024</ele>
  <time>2026-09-01T01:13:29Z</time>
  <course>186.31</course>
  <speed>0.5913543776789008</speed>
  <fix>3d</fix>
</trkpt>
<trkpt lat="33.8103128" lon="-118.393867">
  <ele>-34.19</ele>
  <time>2026-09-01T01:13:29Z</time>
  <course>182.53</course>
  <speed>0.26</speed>
  <fix>3d</fix>
</trkpt>
<trkpt lat="33.8103116" lon="-118.3938671">
  <ele>-35.017</ele>
  <time>2026-09-01T01:13:29Z</time>
  <course>187.47</course>
  <speed>0.671863081289633</speed>
  <fix>3d</fix>
</trkpt>
<trkpt lat="33.8103128" lon="-118.393867">
  <ele>-34.19</ele>
  <time>2026-09-01T01:13:29Z</time>
  <course>182.53</course>
  <speed>0.26</speed>
  <fix>3d</fix>
</trkpt>
<trkpt lat="33.810311" lon="-118.3938672">
  <ele>-35.009</ele>
  <time>2026-09-01T01:13:29Z</time>
  <course>188.2</course>
  <speed>0.7224956747275377</speed>
  <fix>3d</fix>
</trkpt>
<trkpt lat="33.810312" lon="-118.393867">
  <ele>-34.18</ele>
  <time>2026-09-01T01:13:29Z</time>
  <course>183.23</course>
  <speed>0.59</speed>
  <fix>3d</fix>
</trkpt>
<trkpt lat="33.8103104" lon="-118.3938672">
  <ele>-35.003</ele>
  <time>2026-09-01T01:13:29Z</time>
  <course>188.63</course>
  <speed>0.7424284477308234</speed>
  <fix>3d</fix>
</trkpt>
<trkpt lat="33.810312" lon="-118.393867">
  <ele>-34.18</ele>
  <time>2026-09-01T01:13:29Z</time>
  <course>183.23</course>
  <speed>0.59</speed>
  <fix>3d</fix>
</trkpt>
<trkpt lat="33.8103098" lon="-118.3938673">
  <ele>-34.997</ele>
  <time>2026-09-01T01:13:29Z</time>
  <course>188.86</course>
  <speed>0.7532595834106592</speed>
  <fix>3d</fix>
</trkpt>
<trkpt lat="33.8103108" lon="-118.3938671">
  <ele>-34.17</ele>
  <time>2026-09-01T01:13:29Z</time>
  <course>183.95</course>
  <speed>0.72</speed>
  <fix>3d</fix>
</trkpt>
<trkpt lat="33.8103091" lon="-118.3938673">
  <ele>-34.992</ele>
  <time>2026-09-01T01:13:29Z</time>
  <course>188.96</course>
  <speed>0.7632168761236874</speed>
  <fix>3d</fix>
</trkpt>
<trkpt lat="33.8103108" lon="-118.3938671">
  <ele>-34.17</ele>
  <time>2026-09-01T01:13:29Z</time>
  <course>183.95</course>
  <speed>0.72</speed>
  <fix>3d</fix>
</trkpt>
<trkpt lat="33.8103084" lon="-118.3938674">
  <ele>-34.989</ele>
  <time>2026-09-01T01:13:29Z</time>
  <course>188.95</course>
  <speed>0.7632168761236874</speed>
  <fix>3d</fix>
</trkpt>
<trkpt lat="33.8103095" lon="-118.3938672">
  <ele>-34.16</ele>
  <time>2026-09-01T01:13:29Z</time>
  <course>184.37</course>
  <speed>0.76</speed>
  <fix>3d</fix>
</trkpt>
<trkpt lat="33.8103078" lon="-118.3938675">
  <ele>-34.987</ele>
  <time>2026-09-01T01:13:29Z</time>
  <course>188.9</course>
  <speed>0.7632168761236874</speed>
  <fix>3d</fix>
</trkpt>
<trkpt lat="33.8103095" lon="-118.3938672">
  <ele>-34.16</ele>
  <time>2026-09-01T01:13:29Z</time>
  <course>184.37</course>
  <speed>0.76</speed>
  <fix>3d</fix>
</trkpt>
<trkpt lat="33.8103071" lon="-118.3938675">
  <ele>-34.984</ele>
  <time>2026-09-01T01:13:29Z</time>
  <course>188.82</course>
  <speed>0.7632168761236874</speed>
  <fix>3d</fix>
</trkpt>
<trkpt lat="33.8103081" lon="-118.3938674">
  <ele>-34.15</ele>
  <time>2026-09-01T01:13:29Z</time>
  <course>184.65</course>
  <speed>0.77</speed>
  <fix>3d</fix>
</trkpt>
<trkpt lat="33.8103065" lon="-118.3938676">
  <ele>-34.983</ele>
  <time>2026-09-01T01:13:29Z</time>
  <course>188.74</course>
  <speed>0.7532595834106592</speed>
  <fix>3d</fix>
</trkpt>
<trkpt lat="33.8103081" lon="-118.3938674">
  <ele>-34.15</ele>
  <time>2026-09-01T01:13:29Z</time>
  <course>184.65</course>
  <speed>0.77</speed>
  <fix>3d</fix>
</trkpt>
<trkpt lat="33.8103058" lon="-118.3938677">
  <ele>-34.983</ele>
  <time>2026-09-01T01:13:29Z</time>
  <course>188.65</course>
  <speed>0.754254598925323</speed>
  <fix>3d</fix>
</trkpt>
<trkpt lat="33.8103067" lon="-118.3938675">
  <ele>-34.15</ele>
  <time>2026-09-01T01:13:29Z</time>
  <course>184.87</course>
  <speed>0.77</speed>
  <fix>3d</fix>
</trkpt>
<trkpt lat="33.8103051" lon="-118.3938677">
  <ele>-34.984</ele>
  <time>2026-09-01T01:13:29Z</time>
  <course>188.55</course>
  <speed>0.754254598925323</speed>
  <fix>3d</fix>
</trkpt>
<trkpt lat="33.8103067" lon="-118.3938675">
  <ele>-34.15</ele>
  <time>2026-09-01T01:13:29Z</time>
  <course>184.87</course>
  <speed>0.77</speed>
  <fix>3d</fix>
</trkpt>
<trkpt lat="33.8103044" lon="-118.3938678">
  <ele>-34.988</ele>
  <time>2026-09-01T01:13:29Z</time>
  <course>188.46</course>
  <speed>0.754254598925323</speed>
  <fix>3d</fix>
</trkpt>
<trkpt lat="33.8103052" lon="-118.3938676">
  <ele>-34.15</ele>
  <time>2026-09-01T01:13:29Z</time>
  <course>185.05</course>
  <speed>0.77</speed>
  <fix>3d</fix>
</trkpt>
<trkpt lat="33.8103038" lon="-118.3938679">
  <ele>-34.991</ele>
  <time>2026-09-01T01:13:29Z</time>
  <course>188.36</course>
  <speed>0.754254598925323</speed>
  <fix>3d</fix>
</trkpt>
<trkpt lat="33.8103052" lon="-118.3938676">
  <ele>-34.15</ele>
  <time>2026-09-01T01:13:29Z</time>
  <course>185.05</course>
  <speed>0.77</speed>
  <fix>3d</fix>
</trkpt>
<trkpt lat="33.8103031" lon="-118.393868">
  <ele>-34.994</ele>
  <time>2026-09-01T01:13:29Z</time>
  <course>188.27</course>
  <speed>0.754254598925323</speed>
  <fix>3d</fix>
</trkpt>
<trkpt lat="33.8103039" lon="-118.3938678">
  <ele>-34.15</ele>
  <time>2026-09-01T01:13:29Z</time>
  <course>185.18</course>
  <speed>0.77</speed>
  <fix>3d</fix>
</trkpt>
<trkpt lat="33.8103024" lon="-118.393868">
  <ele>-34.997</ele>
  <time>2026-09-01T01:13:29Z</time>
  <course>188.18</course>
  <speed>0.754254598925323</speed>
  <fix>3d</fix>
</trkpt>
<trkpt lat="33.8103039" lon="-118.3938678">
  <ele>-34.15</ele>
  <time>2026-09-01T01:13:29Z</time>
  <course>185.18</course>
  <speed>0.77</speed>
  <fix>3d</fix>
</trkpt>
<trkpt lat="33.8103017" lon="-118.3938681">
  <ele>-35.0</ele>
  <time>2026-09-01T01:13:29Z</time>
  <course>188.09</course>
  <speed>0.754254598925323</speed>
  <fix>3d</fix>
</trkpt>
<trkpt lat="33.8103026" lon="-118.393868">
  <ele>-34.16</ele>
  <time>2026-09-01T01:13:29Z</time>
  <course>185.29</course>
  <speed>0.77</speed>
  <fix>3d</fix>
</trkpt>
<trkpt lat="33.810301" lon="-118.3938682">
  <ele>-35.004</ele>
  <time>2026-09-01T01:13:29Z</time>
  <course>188.0</course>
  <speed>0.754254598925323</speed>
  <fix>3d</fix>
</trkpt>
<trkpt lat="33.8103026" lon="-118.393868">
  <ele>-34.16</ele>
  <time>2026-09-01T01:13:29Z</time>
  <course>185.29</course>
  <speed>0.77</speed>
  <fix>3d</fix>
</trkpt>
<trkpt lat="33.8103004" lon="-118.3938683">
  <ele>-35.008</ele>
  <time>2026-09-01T01:13:29Z</time>
  <course>187.91</course>
  <speed>0.754254598925323</speed>
  <fix>3d</fix>
</trkpt>
<trkpt lat="33.8103012" lon="-118.3938681">
  <ele>-34.17</ele>
  <time>2026-09-01T01:13:29Z</time>
  <course>185.37</course>
  <speed>0.77</speed>
  <fix>3d</fix>
</trkpt>
<trkpt lat="33.8102997" lon="-118.3938684">
  <ele>-35.012</ele>
  <time>2026-09-01T01:13:29Z</time>
  <course>187.82</course>
  <speed>0.754254598925323</speed>
  <fix>3d</fix>
</trkpt>
<trkpt lat="33.8103012" lon="-118.3938681">
  <ele>-34.17</ele>
  <time>2026-09-01T01:13:29Z</time>
  <course>185.37</course>
  <speed>0.77</speed>
  <fix>3d</fix>
</trkpt>
<trkpt lat="33.810299" lon="-118.3938684">
  <ele>-35.015</ele>
  <time>2026-09-01T01:13:29Z</time>
  <course>187.74</course>
  <speed>0.7443117626371358</speed>
  <fix>3d</fix>
</trkpt>
<trkpt lat="33.8102997" lon="-118.3938683">
  <ele>-34.18</ele>
  <time>2026-09-01T01:13:29Z</time>
  <course>185.44</course>
  <speed>0.77</speed>
  <fix>3d</fix>
</trkpt>
<trkpt lat="33.8102983" lon="-118.3938685">
  <ele>-35.018</ele>
  <time>2026-09-01T01:13:29Z</time>
  <course>187.65</course>
  <speed>0.7443117626371358</speed>
  <fix>3d</fix>
</trkpt>
<trkpt lat="33.8102997" lon="-118.3938683">
  <ele>-34.18</ele>
  <time>2026-09-01T01:13:29Z</time>
  <course>185.44</course>
  <speed>0.77</speed>
  <fix>3d</fix>
</trkpt>
<trkpt lat="33.8102976" lon="-118.3938686">
  <ele>-35.021</ele>
  <time>2026-09-01T01:13:29Z</time>
  <course>187.57</course>
  <speed>0.7443117626371358</speed>
  <fix>3d</fix>
</trkpt>
<trkpt lat="33.8102984" lon="-118.3938685">
  <ele>-34.18</ele>
  <time>2026-09-01T01:13:29Z</time>
  <course>185.49</course>
  <speed>0.77</speed>
  <fix>3d</fix>
</trkpt>
<trkpt lat="33.810297" lon="-118.3938687">
  <ele>-35.022</ele>
  <time>2026-09-01T01:13:29Z</time>
  <course>187.49</course>
  <speed>0.7443117626371358</speed>
  <fix>3d</fix>
</trkpt>
<trkpt lat="33.8102984" lon="-118.3938685">
  <ele>-34.18</ele>
  <time>2026-09-01T01:13:29Z</time>
  <course>185.49</course>
  <speed>0.77</speed>
  <fix>3d</fix>
</trkpt>
<trkpt lat="33.8102963" lon="-118.3938688">
  <ele>-35.022</ele>
  <time>2026-09-01T01:13:29Z</time>
  <course>187.41</course>
  <speed>0.7443117626371358</speed>
  <fix>3d</fix>
</trkpt>
<trkpt lat="33.810297" lon="-118.3938686">
  <ele>-34.19</ele>
  <time>2026-09-01T01:13:29Z</time>
  <course>185.53</course>
  <speed>0.77</speed>
  <fix>3d</fix>
</trkpt>
<trkpt lat="33.8102956" lon="-118.3938688">
  <ele>-35.02</ele>
  <time>2026-09-01T01:13:29Z</time>
  <course>187.33</course>
  <speed>0.7443117626371358</speed>
  <fix>3d</fix>
</trkpt>
<trkpt lat="33.810297" lon="-118.3938686">
  <ele>-34.19</ele>
  <time>2026-09-01T01:13:29Z</time>
  <course>185.53</course>
  <speed>0.77</speed>
  <fix>3d</fix>
</trkpt>
<trkpt lat="33.8102949" lon="-118.3938689">
  <ele>-35.016</ele>
  <time>2026-09-01T01:13:29Z</time>
  <course>187.26</course>
  <speed>0.7443117626371358</speed>
  <fix>3d</fix>
</trkpt>
<trkpt lat="33.8102955" lon="-118.3938688">
  <ele>-34.18</ele>
  <time>2026-09-01T01:13:29Z</time>
  <course>185.56</course>
  <speed>0.77</speed>
  <fix>3d</fix>
</trkpt>
<trkpt lat="33.8102942" lon="-118.393869">
  <ele>-35.011</ele>
  <time>2026-09-01T01:13:29Z</time>
  <course>187.18</course>
  <speed>0.7454528824815153</speed>
  <fix>3d</fix>
</trkpt>
<trkpt lat="33.8102955" lon="-118.3938688">
  <ele>-34.18</ele>
  <time>2026-09-01T01:13:29Z</time>
  <course>185.56</course>
  <speed>0.77</speed>
  <fix>3d</fix>
</trkpt>
<trkpt lat="33.8102935" lon="-118.3938691">
  <ele>-35.004</ele>
  <time>2026-09-01T01:13:29Z</time>
  <course>187.11</course>
  <speed>0.7454528824815153</speed>
  <fix>3d</fix>
</trkpt>
<trkpt lat="33.8102942" lon="-118.3938689">
  <ele>-34.17</ele>
  <time>2026-09-01T01:13:29Z</time>
  <course>185.58</course>
  <speed>0.77</speed>
  <fix>3d</fix>
</trkpt>
<trkpt lat="33.8102928" lon="-118.3938692">
  <ele>-34.997</ele>
  <time>2026-09-01T01:13:29Z</time>
  <course>187.04</course>
  <speed>0.7454528824815153</speed>
  <fix>3d</fix>
</trkpt>
<trkpt lat="33.8102942" lon="-118.3938689">
  <ele>-34.17</ele>
  <time>2026-09-01T01:13:29Z</time>
  <course>185.58</course>
  <speed>0.77</speed>
  <fix>3d</fix>
</trkpt>
<trkpt lat="33.8102922" lon="-118.3938693">
  <ele>-34.989</ele>
  <time>2026-09-01T01:13:29Z</time>
  <course>186.97</course>
  <speed>0.7454528824815153</speed>
  <fix>3d</fix>
</trkpt>
<trkpt lat="33.8102929" lon="-118.3938691">
  <ele>-34.16</ele>
  <time>2026-09-01T01:13:29Z</time>
  <course>185.6</course>
  <speed>0.77</speed>
  <fix>3d</fix>
</trkpt>
<trkpt lat="33.8102915" lon="-118.3938694">
  <ele>-34.983</ele>
  <time>2026-09-01T01:13:29Z</time>
  <course>186.9</course>
  <speed>0.7454528824815153</speed>
  <fix>3d</fix>
</trkpt>
<trkpt lat="33.8102929" lon="-118.3938691">
  <ele>-34.16</ele>
  <time>2026-09-01T01:13:29Z</time>
  <course>185.6</course>
  <speed>0.77</speed>
  <fix>3d</fix>
</trkpt>
<trkpt lat="33.8102908" lon="-118.3938694">
  <ele>-34.978</ele>
  <time>2026-09-01T01:13:29Z</time>
  <course>186.84</course>
  <speed>0.7454528824815153</speed>
  <fix>3d</fix>
</trkpt>
<trkpt lat="33.8102915" lon="-118.3938693">
  <ele>-34.15</ele>
  <time>2026-09-01T01:13:29Z</time>
  <course>185.62</course>
  <speed>0.77</speed>
  <fix>3d</fix>
</trkpt>
<trkpt lat="33.8102901" lon="-118.3938695">
  <ele>-34.975</ele>
  <time>2026-09-01T01:13:29Z</time>
  <course>186.77</course>
  <speed>0.7454528824815153</speed>
  <fix>3d</fix>
</trkpt>
<trkpt lat="33.8102915" lon="-118.3938693">
  <ele>-34.15</ele>
  <time>2026-09-01T01:13:29Z</time>
  <course>185.62</course>
  <speed>0.77</speed>
  <fix>3d</fix>
</trkpt>
<trkpt lat="33.8102894" lon="-118.3938696">
  <ele>-34.976</ele>
  <time>2026-09-01T01:13:29Z</time>
  <course>186.71</course>
  <speed>0.7454528824815153</speed>
  <fix>3d</fix>
</trkpt>
<trkpt lat="33.81029" lon="-118.3938694">
  <ele>-34.14</ele>
  <time>2026-09-01T01:13:29Z</time>
  <course>185.63</course>
  <speed>0.77</speed>
  <fix>3d</fix>
</trkpt>
<trkpt lat="33.8102887" lon="-118.3938697">
  <ele>-34.98</ele>
  <time>2026-09-01T01:13:29Z</time>
  <course>186.65</course>
  <speed>0.7454528824815153</speed>
  <fix>3d</fix>
</trkpt>
<trkpt lat="33.81029" lon="-118.3938694">
  <ele>-34.14</ele>
  <time>2026-09-01T01:13:29Z</time>
  <course>185.63</course>
  <speed>0.77</speed>
  <fix>3d</fix>
</trkpt>
<trkpt lat="33.810288" lon="-118.3938698">
  <ele>-34.985</ele>
  <time>2026-09-01T01:13:29Z</time>
  <course>186.59</course>
  <speed>0.7454528824815153</speed>
  <fix>3d</fix>
</trkpt>
<trkpt lat="33.8102887" lon="-118.3938695">
  <ele>-34.14</ele>
  <time>2026-09-01T01:13:29Z</time>
  <course>185.65</course>
  <speed>0.77</speed>
  <fix>3d</fix>
</trkpt>
<trkpt lat="33.8102873" lon="-118.3938699">
  <ele>-34.99</ele>
  <time>2026-09-01T01:13:29Z</time>
  <course>186.53</course>
  <speed>0.7454528824815153</speed>
  <fix>3d</fix>
</trkpt>
<trkpt lat="33.8102887" lon="-118.3938695">
  <ele>-34.14</ele>
  <time>2026-09-01T01:13:29Z</time>
  <course>185.65</course>
  <speed>0.77</speed>
  <fix>3d</fix>
</trkpt>
<trkpt lat="33.8102867" lon="-118.3938699">
  <ele>-34.994</ele>
  <time>2026-09-01T01:13:29Z</time>
  <course>186.47</course>
  <speed>0.7454528824815153</speed>
  <fix>3d</fix>
</trkpt>
<trkpt lat="33.8102873" lon="-118.3938698">
  <ele>-34.15</ele>
  <time>2026-09-01T01:13:29Z</time>
  <course>185.65</course>
  <speed>0.77</speed>
  <fix>3d</fix>
</trkpt>
<trkpt lat="33.810286" lon="-118.39387">
  <ele>-34.998</ele>
  <time>2026-09-01T01:13:29Z</time>
  <course>186.41</course>
  <speed>0.7454528824815153</speed>
  <fix>3d</fix>
</trkpt>
<trkpt lat="33.8102873" lon="-118.3938698">
  <ele>-34.15</ele>
  <time>2026-09-01T01:13:29Z</time>
  <course>185.65</course>
  <speed>0.77</speed>
  <fix>3d</fix>
</trkpt>
<trkpt lat="33.8102853" lon="-118.3938701">
  <ele>-35.002</ele>
  <time>2026-09-01T01:13:29Z</time>
  <course>186.35</course>
  <speed>0.7454528824815153</speed>
  <fix>3d</fix>
</trkpt>
<trkpt lat="33.8102859" lon="-118.3938699">
  <ele>-34.16</ele>
  <time>2026-09-01T01:13:29Z</time>
  <course>185.66</course>
  <speed>0.77</speed>
  <fix>3d</fix>
</trkpt>
<trkpt lat="33.8102846" lon="-118.3938702">
  <ele>-35.005</ele>
  <time>2026-09-01T01:13:29Z</time>
  <course>186.3</course>
  <speed>0.7454528824815153</speed>
  <fix>3d</fix>
</trkpt>
<trkpt lat="33.8102859" lon="-118.3938699">
  <ele>-34.16</ele>
  <time>2026-09-01T01:13:29Z</time>
  <course>185.66</course>
  <speed>0.77</speed>
  <fix>3d</fix>
</trkpt>
<trkpt lat="33.8102839" lon="-118.3938703">
  <ele>-35.006</ele>
  <time>2026-09-01T01:13:29Z</time>
  <course>186.24</course>
  <speed>0.7454528824815153</speed>
  <fix>3d</fix>
</trkpt>
<trkpt lat="33.8102846" lon="-118.39387">
  <ele>-34.16</ele>
  <time>2026-09-01T01:13:29Z</time>
  <course>185.66</course>
  <speed>0.77</speed>
  <fix>3d</fix>
</trkpt>
<trkpt lat="33.8102832" lon="-118.3938704">
  <ele>-35.008</ele>
  <time>2026-09-01T01:13:29Z</time>
  <course>186.19</course>
  <speed>0.7454528824815153</speed>
  <fix>3d</fix>
</trkpt>
<trkpt lat="33.8102846" lon="-118.39387">
  <ele>-34.16</ele>
  <time>2026-09-01T01:13:29Z</time>
  <course>185.66</course>
  <speed>0.77</speed>
  <fix>3d</fix>
</trkpt>
<trkpt lat="33.8102825" lon="-118.3938705">
  <ele>-35.008</ele>
  <time>2026-09-01T01:13:29Z</time>
  <course>186.14</course>
  <speed>0.7355270219373317</speed>
  <fix>3d</fix>
</trkpt>
<trkpt lat="33.8102832" lon="-118.3938703">
  <ele>-34.16</ele>
  <time>2026-09-01T01:13:29Z</time>
  <course>185.66</course>
  <speed>0.77</speed>
  <fix>3d</fix>
</trkpt>
<trkpt lat="33.8102819" lon="-118.3938705">
  <ele>-35.007</ele>
  <time>2026-09-01T01:13:29Z</time>
  <course>186.09</course>
  <speed>0.7355270219373317</speed>
  <fix>3d</fix>
</trkpt>
<trkpt lat="33.8102832" lon="-118.3938703">
  <ele>-34.16</ele>
  <time>2026-09-01T01:13:29Z</time>
  <course>185.66</course>
  <speed>0.77</speed>
  <fix>3d</fix>
</trkpt>
<trkpt lat="33.8102812" lon="-118.3938706">
  <ele>-35.003</ele>
  <time>2026-09-01T01:13:29Z</time>
  <course>186.04</course>
  <speed>0.7355270219373317</speed>
  <fix>3d</fix>
</trkpt>
<trkpt lat="33.8102818" lon="-118.3938704">
  <ele>-34.16</ele>
  <time>2026-09-01T01:13:29Z</time>
  <course>185.66</course>
  <speed>0.77</speed>
  <fix>3d</fix>
</trkpt>
<trkpt lat="33.8102805" lon="-118.3938707">
  <ele>-34.999</ele>
  <time>2026-09-01T01:13:29Z</time>
  <course>185.99</course>
  <speed>0.7355270219373317</speed>
  <fix>3d</fix>
</trkpt>
<trkpt lat="33.8102818" lon="-118.3938704">
  <ele>-34.16</ele>
  <time>2026-09-01T01:13:29Z</time>
  <course>185.66</course>
  <speed>0.77</speed>
  <fix>3d</fix>
</trkpt>
<trkpt lat="33.8102798" lon="-118.3938708">
  <ele>-34.993</ele>
  <time>2026-09-01T01:13:29Z</time>
  <course>185.94</course>
  <speed>0.7355270219373317</speed>
  <fix>3d</fix>
</trkpt>
<trkpt lat="33.8102803" lon="-118.3938705">
  <ele>-34.16</ele>
  <time>2026-09-01T01:13:29Z</time>
  <course>185.66</course>
  <speed>0.77</speed>
  <fix>3d</fix>
</trkpt>
<trkpt lat="33.8102791" lon="-118.3938709">
  <ele>-34.988</ele>
  <time>2026-09-01T01:13:29Z</time>
  <course>185.9</course>
  <speed>0.7355270219373317</speed>
  <fix>3d</fix>
</trkpt>
<trkpt lat="33.8102803" lon="-118.3938705">
  <ele>-34.16</ele>
  <time>2026-09-01T01:13:29Z</time>
  <course>185.66</course>
  <speed>0.77</speed>
  <fix>3d</fix>
</trkpt>
<trkpt lat="33.8102784" lon="-118.393871">
  <ele>-34.984</ele>
  <time>2026-09-01T01:13:29Z</time>
  <course>185.85</course>
  <speed>0.7355270219373317</speed>
  <fix>3d</fix>
</trkpt>
<trkpt lat="33.8102789" lon="-118.3938708">
  <ele>-34.15</ele>
  <time>2026-09-01T01:13:29Z</time>
  <course>185.66</course>
  <speed>0.77</speed>
  <fix>3d</fix>
</trkpt>
<trkpt lat="33.8102777" lon="-118.3938711">
  <ele>-34.979</ele>
  <time>2026-09-01T01:13:29Z</time>
  <course>185.8</course>
  <speed>0.7355270219373317</speed>
  <fix>3d</fix>
</trkpt>
<trkpt lat="33.8102789" lon="-118.3938708">
  <ele>-34.15</ele>
  <time>2026-09-01T01:13:29Z</time>
  <course>185.66</course>
  <speed>0.77</speed>
  <fix>3d</fix>
</trkpt>
<trkpt lat="33.810277" lon="-118.3938711">
  <ele>-34.976</ele>
  <time>2026-09-01T01:13:29Z</time>
  <course>185.76</course>
  <speed>0.7355270219373317</speed>
  <fix>3d</fix>
</trkpt>
<trkpt lat="33.8102776" lon="-118.3938709">
  <ele>-34.14</ele>
  <time>2026-09-01T01:13:29Z</time>
  <course>185.66</course>
  <speed>0.77</speed>
  <fix>3d</fix>
</trkpt>
<trkpt lat="33.8102763" lon="-118.3938712">
  <ele>-34.975</ele>
  <time>2026-09-01T01:13:29Z</time>
  <course>185.72</course>
  <speed>0.7355270219373317</speed>
  <fix>3d</fix>
</trkpt>
<trkpt lat="33.8102776" lon="-118.3938709">
  <ele>-34.14</ele>
  <time>2026-09-01T01:13:29Z</time>
  <course>185.66</course>
  <speed>0.77</speed>
  <fix>3d</fix>
</trkpt>
<trkpt lat="33.8102756" lon="-118.3938713">
  <ele>-34.976</ele>
  <time>2026-09-01T01:13:29Z</time>
  <course>185.67</course>
  <speed>0.7355270219373317</speed>
  <fix>3d</fix>
</trkpt>
<trkpt lat="33.8102762" lon="-118.393871">
  <ele>-34.14</ele>
  <time>2026-09-01T01:13:29Z</time>
  <course>185.66</course>
  <speed>0.77</speed>
  <fix>3d</fix>
</trkpt>
<trkpt lat="33.8102749" lon="-118.3938714">
  <ele>-34.98</ele>
  <time>2026-09-01T01:13:29Z</time>
  <course>185.63</course>
  <speed>0.7355270219373317</speed>
  <fix>3d</fix>
</trkpt>
<trkpt lat="33.8102762" lon="-118.393871">
  <ele>-34.14</ele>
  <time>2026-09-01T01:13:29Z</time>
  <course>185.66</course>
  <speed>0.77</speed>
  <fix>3d</fix>
</trkpt>
<trkpt lat="33.8102742" lon="-118.3938715">
  <ele>-34.985</ele>
  <time>2026-09-01T01:13:29Z</time>
  <course>185.59</course>
  <speed>0.7368174807915459</speed>
  <fix>3d</fix>
</trkpt>
<trkpt lat="33.8102748" lon="-118.3938712">
  <ele>-34.14</ele>
  <time>2026-09-01T01:13:29Z</time>
  <course>185.67</course>
  <speed>0.77</speed>
  <fix>3d</fix>
</trkpt>
<trkpt lat="33.8102736" lon="-118.3938716">
  <ele>-34.992</ele>
  <time>2026-09-01T01:13:29Z</time>
  <course>185.55</course>
  <speed>0.7368174807915459</speed>
  <fix>3d</fix>
</trkpt>
<trkpt lat="33.8102748" lon="-118.3938712">
  <ele>-34.14</ele>
  <time>2026-09-01T01:13:29Z</time>
  <course>185.67</course>
  <speed>0.77</speed>
  <fix>3d</fix>
</trkpt>
<trkpt lat="33.8102729" lon="-118.3938717">
  <ele>-35.0</ele>
  <time>2026-09-01T01:13:29Z</time>
  <course>185.51</course>
  <speed>0.7368174807915459</speed>
  <fix>3d</fix>
</trkpt>
<trkpt lat="33.8102734" lon="-118.3938714">
  <ele>-34.15</ele>
  <time>2026-09-01T01:13:29Z</time>
  <course>185.68</course>
  <speed>0.77</speed>
  <fix>3d</fix>
</trkpt>
<trkpt lat="33.8102722" lon="-118.3938717">
  <ele>-35.007</ele>
  <time>2026-09-01T01:13:29Z</time>
  <course>185.47</course>
  <speed>0.7368174807915459</speed>
  <fix>3d</fix>
</trkpt>
<trkpt lat="33.8102734" lon="-118.3938714">
  <ele>-34.15</ele>
  <time>2026-09-01T01:13:29Z</time>
  <course>185.68</course>
  <speed>0.77</speed>
  <fix>3d</fix>
</trkpt>
<trkpt lat="33.8102715" lon="-118.3938718">
  <ele>-35.013</ele>
  <time>2026-09-01T01:13:29Z</time>
  <course>185.44</course>
  <speed>0.7368174807915459</speed>
  <fix>3d</fix>
</trkpt>
<trkpt lat="33.8102721" lon="-118.3938715">
  <ele>-34.16</ele>
  <time>2026-09-01T01:13:29Z</time>
  <course>185.68</course>
  <speed>0.77</speed>
  <fix>3d</fix>
</trkpt>
<trkpt lat="33.8102708" lon="-118.3938719">
  <ele>-35.02</ele>
  <time>2026-09-01T01:13:29Z</time>
  <course>185.4</course>
  <speed>0.7368174807915459</speed>
  <fix>3d</fix>
</trkpt>
<trkpt lat="33.8102721" lon="-118.3938715">
  <ele>-34.16</ele>
  <time>2026-09-01T01:13:29Z</time>
  <course>185.68</course>
  <speed>0.77</speed>
  <fix>3d</fix>
</trkpt>
<trkpt lat="33.8102701" lon="-118.393872">
  <ele>-35.025</ele>
  <time>2026-09-01T01:13:29Z</time>
  <course>185.37</course>
  <speed>0.7368174807915459</speed>
  <fix>3d</fix>
</trkpt>
<trkpt lat="33.8102706" lon="-118.3938717">
  <ele>-34.17</ele>
  <time>2026-09-01T01:13:29Z</time>
  <course>185.68</course>
  <speed>0.77</speed>
  <fix>3d</fix>
</trkpt>
<trkpt lat="33.8102694" lon="-118.3938721">
  <ele>-35.03</ele>
  <time>2026-09-01T01:13:29Z</time>
  <course>185.33</course>
  <speed>0.7368174807915459</speed>
  <fix>3d</fix>
</trkpt>
<trkpt lat="33.8102706" lon="-118.3938717">
  <ele>-34.17</ele>
  <time>2026-09-01T01:13:29Z</time>
  <course>185.68</course>
  <speed>0.77</speed>
  <fix>3d</fix>
</trkpt>
<trkpt lat="33.8102687" lon="-118.3938722">
  <ele>-35.034</ele>
  <time>2026-09-01T01:13:29Z</time>
  <course>185.3</course>
  <speed>0.7368174807915459</speed>
  <fix>3d</fix>
</trkpt>
<trkpt lat="33.8102693" lon="-118.3938719">
  <ele>-34.18</ele>
  <time>2026-09-01T01:13:29Z</time>
  <course>185.67</course>
  <speed>0.77</speed>
  <fix>3d</fix>
</trkpt>
<trkpt lat="33.810268" lon="-118.3938722">
  <ele>-35.037</ele>
  <time>2026-09-01T01:13:29Z</time>
  <course>185.26</course>
  <speed>0.7368174807915459</speed>
  <fix>3d</fix>
</trkpt>
<trkpt lat="33.8102693" lon="-118.3938719">
  <ele>-34.18</ele>
  <time>2026-09-01T01:13:29Z</time>
  <course>185.67</course>
  <speed>0.77</speed>
  <fix>3d</fix>
</trkpt>
<trkpt lat="33.8102673" lon="-118.3938723">
  <ele>-35.04</ele>
  <time>2026-09-01T01:13:29Z</time>
  <course>185.23</course>
  <speed>0.7368174807915459</speed>
  <fix>3d</fix>
</trkpt>
<trkpt lat="33.8102679" lon="-118.393872">
  <ele>-34.19</ele>
  <time>2026-09-01T01:13:29Z</time>
  <course>185.65</course>
  <speed>0.77</speed>
  <fix>3d</fix>
</trkpt>
<trkpt lat="33.8102666" lon="-118.3938724">
  <ele>-35.042</ele>
  <time>2026-09-01T01:13:29Z</time>
  <course>185.2</course>
  <speed>0.7368174807915459</speed>
  <fix>3d</fix>
</trkpt>
<trkpt lat="33.8102679" lon="-118.393872">
  <ele>-34.19</ele>
  <time>2026-09-01T01:13:29Z</time>
  <course>185.65</course>
  <speed>0.77</speed>
  <fix>3d</fix>
</trkpt>
<trkpt lat="33.8102659" lon="-118.3938725">
  <ele>-35.043</ele>
  <time>2026-09-01T01:13:29Z</time>
  <course>185.17</course>
  <speed>0.7368174807915459</speed>
  <fix>3d</fix>
</trkpt>
<trkpt lat="33.8102666" lon="-118.3938722">
  <ele>-34.2</ele>
  <time>2026-09-01T01:13:29Z</time>
  <course>185.64</course>
  <speed>0.77</speed>
  <fix>3d</fix>
</trkpt>
<trkpt lat="33.8102652" lon="-118.3938726">
  <ele>-35.043</ele>
  <time>2026-09-01T01:13:29Z</time>
  <course>185.14</course>
  <speed>0.7368174807915459</speed>
  <fix>3d</fix>
</trkpt>
<trkpt lat="33.8102666" lon="-118.3938722">
  <ele>-34.2</ele>
  <time>2026-09-01T01:13:29Z</time>
  <course>185.64</course>
  <speed>0.77</speed>
  <fix>3d</fix>
</trkpt>
<trkpt lat="33.8102646" lon="-118.3938727">
  <ele>-35.039</ele>
  <time>2026-09-01T01:13:29Z</time>
  <course>185.1</course>
  <speed>0.7368174807915459</speed>
  <fix>3d</fix>
</trkpt>
<trkpt lat="33.8102651" lon="-118.3938724">
  <ele>-34.2</ele>
  <time>2026-09-01T01:13:29Z</time>
  <course>185.62</course>
  <speed>0.77</speed>
  <fix>3d</fix>
</trkpt>
<trkpt lat="33.8102639" lon="-118.3938727">
  <ele>-35.033</ele>
  <time>2026-09-01T01:13:29Z</time>
  <course>185.07</course>
  <speed>0.7368174807915459</speed>
  <fix>3d</fix>
</trkpt>
<trkpt lat="33.8102651" lon="-118.3938724">
  <ele>-34.2</ele>
  <time>2026-09-01T01:13:29Z</time>
  <course>185.62</course>
  <speed>0.77</speed>
  <fix>3d</fix>
</trkpt>
<trkpt lat="33.8102632" lon="-118.3938728">
  <ele>-35.024</ele>
  <time>2026-09-01T01:13:29Z</time>
  <course>185.04</course>
  <speed>0.7368174807915459</speed>
  <fix>3d</fix>
</trkpt>
<trkpt lat="33.8102638" lon="-118.3938726">
  <ele>-34.19</ele>
  <time>2026-09-01T01:13:29Z</time>
  <course>185.6</course>
  <speed>0.77</speed>
  <fix>3d</fix>
</trkpt>
<trkpt lat="33.8102625" lon="-118.3938729">
  <ele>-35.012</ele>
  <time>2026-09-01T01:13:29Z</time>
  <course>185.01</course>
  <speed>0.7368174807915459</speed>
  <fix>3d</fix>
</trkpt>
<trkpt lat="33.8102638" lon="-118.3938726">
  <ele>-34.19</ele>
  <time>2026-09-01T01:13:29Z</time>
  <course>185.6</course>
  <speed>0.77</speed>
  <fix>3d</fix>
</trkpt>
<trkpt lat="33.8102618" lon="-118.393873">
  <ele>-34.998</ele>
  <time>2026-09-01T01:13:29Z</time>
  <course>184.98</course>
  <speed>0.7368174807915459</speed>
  <fix>3d</fix>
</trkpt>
<trkpt lat="33.8102624" lon="-118.3938727">
  <ele>-34.18</ele>
  <time>2026-09-01T01:13:29Z</time>
  <course>185.57</course>
  <speed>0.77</speed>
  <fix>3d</fix>
</trkpt>
<trkpt lat="33.8102611" lon="-118.3938731">
  <ele>-34.981</ele>
  <time>2026-09-01T01:13:29Z</time>
  <course>184.95</course>
  <speed>0.7368174807915459</speed>
  <fix>3d</fix>
</trkpt>
<trkpt lat="33.8102624" lon="-118.3938727">
  <ele>-34.18</ele>
  <time>2026-09-01T01:13:29Z</time>
  <course>185.57</course>
  <speed>0.77</speed>
  <fix>3d</fix>
</trkpt>
<trkpt lat="33.8102604" lon="-118.3938732">
  <ele>-34.959</ele>
  <time>2026-09-01T01:13:29Z</time>
  <course>184.92</course>
  <speed>0.7368174807915459</speed>
  <fix>3d</fix>
</trkpt>
<trkpt lat="33.8102609" lon="-118.3938729">
  <ele>-34.15</ele>
  <time>2026-09-01T01:13:29Z</time>
  <course>185.53</course>
  <speed>0.77</speed>
  <fix>3d</fix>
</trkpt>
<trkpt lat="33.8102597" lon="-118.3938732">
  <ele>-34.931</ele>
  <time>2026-09-01T01:13:29Z</time>
  <course>184.89</course>
  <speed>0.7368174807915459</speed>
  <fix>3d</fix>
</trkpt>
<trkpt lat="33.8102609" lon="-118.3938729">
  <ele>-34.15</ele>
  <time>2026-09-01T01:13:29Z</time>
  <course>185.53</course>
  <speed>0.77</speed>
  <fix>3d</fix>
</trkpt>
<trkpt lat="33.810259" lon="-118.3938733">
  <ele>-34.898</ele>
  <time>2026-09-01T01:13:29Z</time>
  <course>184.86</course>
  <speed>0.7368174807915459</speed>
  <fix>3d</fix>
</trkpt>
<trkpt lat="33.8102595" lon="-118.3938731">
  <ele>-34.11</ele>
  <time>2026-09-01T01:13:29Z</time>
  <course>185.48</course>
  <speed>0.77</speed>
  <fix>3d</fix>
</trkpt>
<trkpt lat="33.8102583" lon="-118.3938734">
  <ele>-34.861</ele>
  <time>2026-09-01T01:13:29Z</time>
  <course>184.83</course>
  <speed>0.7368174807915459</speed>
  <fix>3d</fix>
</trkpt>
<trkpt lat="33.8102595" lon="-118.3938731">
  <ele>-34.11</ele>
  <time>2026-09-01T01:13:29Z</time>
  <course>185.48</course>
  <speed>0.77</speed>
  <fix>3d</fix>
</trkpt>
<trkpt lat="33.8102576" lon="-118.3938735">
  <ele>-34.822</ele>
  <time>2026-09-01T01:13:29Z</time>
  <course>184.8</course>
  <speed>0.7368174807915459</speed>
  <fix>3d</fix>
</trkpt>
<trkpt lat="33.8102582" lon="-118.3938732">
  <ele>-34.05</ele>
  <time>2026-09-01T01:13:29Z</time>
  <course>185.44</course>
  <speed>0.77</speed>
  <fix>3d</fix>
</trkpt>
<trkpt lat="33.8102569" lon="-118.3938736">
  <ele>-34.779</ele>
  <time>2026-09-01T01:13:29Z</time>
  <course>184.77</course>
  <speed>0.7355270219373317</speed>
  <fix>3d</fix>
</trkpt>
<trkpt lat="33.8102582" lon="-118.3938732">
  <ele>-34.05</ele>
  <time>2026-09-01T01:13:29Z</time>
  <course>185.44</course>
  <speed>0.77</speed>
  <fix>3d</fix>
</trkpt>
<trkpt lat="33.8102562" lon="-118.3938737">
  <ele>-34.733</ele>
  <time>2026-09-01T01:13:29Z</time>
  <course>184.75</course>
  <speed>0.7355270219373317</speed>
  <fix>3d</fix>
</trkpt>
<trkpt lat="33.8102569" lon="-118.3938734">
  <ele>-33.98</ele>
  <time>2026-09-01T01:13:29Z</time>
  <course>185.39</course>
  <speed>0.77</speed>
  <fix>3d</fix>
</trkpt>
<trkpt lat="33.8102556" lon="-118.3938737">
  <ele>-34.685</ele>
  <time>2026-09-01T01:13:29Z</time>
  <course>184.72</course>
  <speed>0.7355270219373317</speed>
  <fix>3d</fix>
</trkpt>
<trkpt lat="33.8102569" lon="-118.3938734">
  <ele>-33.98</ele>
  <time>2026-09-01T01:13:29Z</time>
  <course>185.39</course>
  <speed>0.77</speed>
  <fix>3d</fix>
</trkpt>
<trkpt lat="33.8102549" lon="-118.3938738">
  <ele>-34.636</ele>
  <time>2026-09-01T01:13:29Z</time>
  <course>184.69</course>
  <speed>0.7355270219373317</speed>
  <fix>3d</fix>
</trkpt>
<trkpt lat="33.8102554" lon="-118.3938735">
  <ele>-33.89</ele>
  <time>2026-09-01T01:13:29Z</time>
  <course>185.35</course>
  <speed>0.77</speed>
  <fix>3d</fix>
</trkpt>
<trkpt lat="33.8102542" lon="-118.3938739">
  <ele>-34.586</ele>
  <time>2026-09-01T01:13:29Z</time>
  <course>184.66</course>
  <speed>0.7355270219373317</speed>
  <fix>3d</fix>
</trkpt>
<trkpt lat="33.8102554" lon="-118.3938735">
  <ele>-33.89</ele>
  <time>2026-09-01T01:13:29Z</time>
  <course>185.35</course>
  <speed>0.77</speed>
  <fix>3d</fix>
</trkpt>
<trkpt lat="33.8102535" lon="-118.393874">
  <ele>-34.535</ele>
  <time>2026-09-01T01:13:29Z</time>
  <course>184.64</course>
  <speed>0.7355270219373317</speed>
  <fix>3d</fix>
</trkpt>
<trkpt lat="33.810254" lon="-118.3938737">
  <ele>-33.8</ele>
  <time>2026-09-01T01:13:29Z</time>
  <course>185.32</course>
  <speed>0.77</speed>
  <fix>3d</fix>
</trkpt>
<trkpt lat="33.8102528" lon="-118.3938741">
  <ele>-34.486</ele>
  <time>2026-09-01T01:13:29Z</time>
  <course>184.61</course>
  <speed>0.7355270219373317</speed>
  <fix>3d</fix>
</trkpt>
<trkpt lat="33.810254" lon="-118.3938737">
  <ele>-33.8</ele>
  <time>2026-09-01T01:13:29Z</time>
  <course>185.32</course>
  <speed>0.77</speed>
  <fix>3d</fix>
</trkpt>
<trkpt lat="33.8102521" lon="-118.3938741">
  <ele>-34.437</ele>
  <time>2026-09-01T01:13:29Z</time>
  <course>184.58</course>
  <speed>0.7355270219373317</speed>
  <fix>3d</fix>
</trkpt>
<trkpt lat="33.8102527" lon="-118.3938738">
  <ele>-33.71</ele>
  <time>2026-09-01T01:13:29Z</time>
  <course>185.3</course>
  <speed>0.77</speed>
  <fix>3d</fix>
</trkpt>
<trkpt lat="33.8102514" lon="-118.3938742">
  <ele>-34.391</ele>
  <time>2026-09-01T01:13:29Z</time>
  <course>184.56</course>
  <speed>0.7355270219373317</speed>
  <fix>3d</fix>
</trkpt>
<trkpt lat="33.8102527" lon="-118.3938738">
  <ele>-33.71</ele>
  <time>2026-09-01T01:13:29Z</time>
  <course>185.3</course>
  <speed>0.77</speed>
  <fix>3d</fix>
</trkpt>
<trkpt lat="33.8102507" lon="-118.3938743">
  <ele>-34.349</ele>
  <time>2026-09-01T01:13:29Z</time>
  <course>184.53</course>
  <speed>0.7355270219373317</speed>
  <fix>3d</fix>
</trkpt>
<trkpt lat="33.8102513" lon="-118.3938739">
  <ele>-33.62</ele>
  <time>2026-09-01T01:13:29Z</time>
  <course>185.28</course>
  <speed>0.77</speed>
  <fix>3d</fix>
</trkpt>
<trkpt lat="33.81025" lon="-118.3938744">
  <ele>-34.312</ele>
  <time>2026-09-01T01:13:29Z</time>
  <course>184.51</course>
  <speed>0.7355270219373317</speed>
  <fix>3d</fix>
</trkpt>
<trkpt lat="33.8102513" lon="-118.3938739">
  <ele>-33.62</ele>
  <time>2026-09-01T01:13:29Z</time>
  <course>185.28</course>
  <speed>0.77</speed>
  <fix>3d</fix>
</trkpt>
<trkpt lat="33.8102493" lon="-118.3938744">
  <ele>-34.28</ele>
  <time>2026-09-01T01:13:29Z</time>
  <course>184.48</course>
  <speed>0.7355270219373317</speed>
  <fix>3d</fix>
</trkpt>
<trkpt lat="33.8102499" lon="-118.3938741">
  <ele>-33.54</ele>
  <time>2026-09-01T01:13:29Z</time>
  <course>185.27</course>
  <speed>0.77</speed>
  <fix>3d</fix>
</trkpt>
<trkpt lat="33.8102486" lon="-118.3938745">
  <ele>-34.25</ele>
  <time>2026-09-01T01:13:29Z</time>
  <course>184.46</course>
  <speed>0.7355270219373317</speed>
  <fix>3d</fix>
</trkpt>
<trkpt lat="33.8102499" lon="-118.3938741">
  <ele>-33.54</ele>
  <time>2026-09-01T01:13:29Z</time>
  <course>185.27</course>
  <speed>0.77</speed>
  <fix>3d</fix>
</trkpt>
<trkpt lat="33.8102479" lon="-118.3938746">
  <ele>-34.22</ele>
  <time>2026-09-01T01:13:29Z</time>
  <course>184.43</course>
  <speed>0.7355270219373317</speed>
  <fix>3d</fix>
</trkpt>
<trkpt lat="33.8102485" lon="-118.3938743">
  <ele>-33.47</ele>
  <time>2026-09-01T01:13:29Z</time>
  <course>185.26</course>
  <speed>0.77</speed>
  <fix>3d</fix>
</trkpt>
<trkpt lat="33.8102472" lon="-118.3938747">
  <ele>-34.189</ele>
  <time>2026-09-01T01:13:29Z</time>
  <course>184.4</course>
  <speed>0.7355270219373317</speed>
  <fix>3d</fix>
</trkpt>
<trkpt lat="33.8102485" lon="-118.3938743">
  <ele>-33.47</ele>
  <time>2026-09-01T01:13:29Z</time>
  <course>185.26</course>
  <speed>0.77</speed>
  <fix>3d</fix>
</trkpt>
<trkpt lat="33.8102465" lon="-118.3938747">
  <ele>-34.159</ele>
  <time>2026-09-01T01:13:29Z</time>
  <course>184.38</course>
  <speed>0.7355270219373317</speed>
  <fix>3d</fix>
</trkpt>
<trkpt lat="33.8102472" lon="-118.3938745">
  <ele>-33.41</ele>
  <time>2026-09-01T01:13:29Z</time>
  <course>185.23</course>
  <speed>0.77</speed>
  <fix>3d</fix>
</trkpt>
<trkpt lat="33.8102458" lon="-118.3938748">
  <ele>-34.13</ele>
  <time>2026-09-01T01:13:29Z</time>
  <course>184.36</course>
  <speed>0.7355270219373317</speed>
  <fix>3d</fix>
</trkpt>
<trkpt lat="33.8102472" lon="-118.3938745">
  <ele>-33.41</ele>
  <time>2026-09-01T01:13:29Z</time>
  <course>185.23</course>
  <speed>0.77</speed>
  <fix>3d</fix>
</trkpt>
<trkpt lat="33.8102452" lon="-118.3938749">
  <ele>-34.103</ele>
  <time>2026-09-01T01:13:29Z</time>
  <course>184.33</course>
  <speed>0.7355270219373317</speed>
  <fix>3d</fix>
</trkpt>
<trkpt lat="33.8102457" lon="-118.3938746">
  <ele>-33.35</ele>
  <time>2026-09-01T01:13:29Z</time>
  <course>185.2</course>
  <speed>0.77</speed>
  <fix>3d</fix>
</trkpt>
<trkpt lat="33.8102445" lon="-118.393875">
  <ele>-34.08</ele>
  <time>2026-09-01T01:13:29Z</time>
  <course>184.31</course>
  <speed>0.7355270219373317</speed>
  <fix>3d</fix>
</trkpt>
<trkpt lat="33.8102457" lon="-118.3938746">
  <ele>-33.35</ele>
  <time>2026-09-01T01:13:29Z</time>
  <course>185.2</course>
  <speed>0.77</speed>
  <fix>3d</fix>
</trkpt>
<trkpt lat="33.8102438" lon="-118.393875">
  <ele>-34.059</ele>
  <time>2026-09-01T01:13:29Z</time>
  <course>184.29</course>
  <speed>0.7355270219373317</speed>
  <fix>3d</fix>
</trkpt>
<trkpt lat="33.8102444" lon="-118.3938748">
  <ele>-33.3</ele>
  <time>2026-09-01T01:13:29Z</time>
  <course>185.18</course>
  <speed>0.77</speed>
  <fix>3d</fix>
</trkpt>
<trkpt lat="33.8102431" lon="-118.3938751">
  <ele>-34.039</ele>
  <time>2026-09-01T01:13:29Z</time>
  <course>184.26</course>
  <speed>0.7355270219373317</speed>
  <fix>3d</fix>
</trkpt>
<trkpt lat="33.8102444" lon="-118.3938748">
  <ele>-33.3</ele>
  <time>2026-09-01T01:13:29Z</time>
  <course>185.18</course>
  <speed>0.77</speed>
  <fix>3d</fix>
</trkpt>
<trkpt lat="33.8102424" lon="-118.3938752">
  <ele>-34.017</ele>
  <time>2026-09-01T01:13:29Z</time>
  <course>184.24</course>
  <speed>0.7355270219373317</speed>
  <fix>3d</fix>
</trkpt>
<trkpt lat="33.810243" lon="-118.3938749">
  <ele>-33.25</ele>
  <time>2026-09-01T01:13:29Z</time>
  <course>185.16</course>
  <speed>0.77</speed>
  <fix>3d</fix>
</trkpt>
<trkpt lat="33.8102417" lon="-118.3938753">
  <ele>-33.993</ele>
  <time>2026-09-01T01:13:29Z</time>
  <course>184.22</course>
  <speed>0.7355270219373317</speed>
  <fix>3d</fix>
</trkpt>
<trkpt lat="33.810243" lon="-118.3938749">
  <ele>-33.25</ele>
  <time>2026-09-01T01:13:29Z</time>
  <course>185.16</course>
  <speed>0.77</speed>
  <fix>3d</fix>
</trkpt>
<trkpt lat="33.810241" lon="-118.3938753">
  <ele>-33.967</ele>
  <time>2026-09-01T01:13:29Z</time>
  <course>184.2</course>
  <speed>0.7355270219373317</speed>
  <fix>3d</fix>
</trkpt>
<trkpt lat="33.8102416" lon="-118.3938751">
  <ele>-33.2</ele>
  <time>2026-09-01T01:13:29Z</time>
  <course>185.12</course>
  <speed>0.77</speed>
  <fix>3d</fix>
</trkpt>
<trkpt lat="33.8102403" lon="-118.3938754">
  <ele>-33.94</ele>
  <time>2026-09-01T01:13:29Z</time>
  <course>184.17</course>
  <speed>0.7355270219373317</speed>
  <fix>3d</fix>
</trkpt>
<trkpt lat="33.8102416" lon="-118.3938751">
  <ele>-33.2</ele>
  <time>2026-09-01T01:13:29Z</time>
  <course>185.12</course>
  <speed>0.77</speed>
  <fix>3d</fix>
</trkpt>
<trkpt lat="33.8102396" lon="-118.3938755">
  <ele>-33.912</ele>
  <time>2026-09-01T01:13:29Z</time>
  <course>184.15</course>
  <speed>0.7355270219373317</speed>
  <fix>3d</fix>
</trkpt>
<trkpt lat="33.8102401" lon="-118.3938752">
  <ele>-33.15</ele>
  <time>2026-09-01T01:13:29Z</time>
  <course>185.08</course>
  <speed>0.77</speed>
  <fix>3d</fix>
</trkpt>
<trkpt lat="33.8102389" lon="-118.3938756">
  <ele>-33.886</ele>
  <time>2026-09-01T01:13:29Z</time>
  <course>184.13</course>
  <speed>0.7355270219373317</speed>
  <fix>3d</fix>
</trkpt>
<trkpt lat="33.8102401" lon="-118.3938752">
  <ele>-33.15</ele>
  <time>2026-09-01T01:13:29Z</time>
  <course>185.08</course>
  <speed>0.77</speed>
  <fix>3d</fix>
</trkpt>
<trkpt lat="33.8102382" lon="-118.3938756">
  <ele>-33.86</ele>
  <time>2026-09-01T01:13:29Z</time>
  <course>184.11</course>
  <speed>0.7355270219373317</speed>
  <fix>3d</fix>
</trkpt>
<trkpt lat="33.8102388" lon="-118.3938753">
  <ele>-33.1</ele>
  <time>2026-09-01T01:13:29Z</time>
  <course>185.05</course>
  <speed>0.77</speed>
  <fix>3d</fix>
</trkpt>
<trkpt lat="33.8102375" lon="-118.3938757">
  <ele>-33.834</ele>
  <time>2026-09-01T01:13:29Z</time>
  <course>184.09</course>
  <speed>0.7355270219373317</speed>
  <fix>3d</fix>
</trkpt>
<trkpt lat="33.8102388" lon="-118.3938753">
  <ele>-33.1</ele>
  <time>2026-09-01T01:13:29Z</time>
  <course>185.05</course>
  <speed>0.77</speed>
  <fix>3d</fix>
</trkpt>
<trkpt lat="33.8102368" lon="-118.3938758">
  <ele>-33.807</ele>
  <time>2026-09-01T01:13:29Z</time>
  <course>184.07</course>
  <speed>0.7355270219373317</speed>
  <fix>3d</fix>
</trkpt>
<trkpt lat="33.8102375" lon="-118.3938755">
  <ele>-33.05</ele>
  <time>2026-09-01T01:13:29Z</time>
  <course>185.02</course>
  <speed>0.77</speed>
  <fix>3d</fix>
</trkpt>
<trkpt lat="33.8102361" lon="-118.3938758">
  <ele>-33.778</ele>
  <time>2026-09-01T01:13:29Z</time>
  <course>184.04</course>
  <speed>0.7355270219373317</speed>
  <fix>3d</fix>
</trkpt>
<trkpt lat="33.8102375" lon="-118.3938755">
  <ele>-33.05</ele>
  <time>2026-09-01T01:13:29Z</time>
  <course>185.02</course>
  <speed>0.77</speed>
  <fix>3d</fix>
</trkpt>
<trkpt lat="33.8102354" lon="-118.3938759">
  <ele>-33.746</ele>
  <time>2026-09-01T01:13:29Z</time>
  <course>184.02</course>
  <speed>0.7355270219373317</speed>
  <fix>3d</fix>
</trkpt>
<trkpt lat="33.8102361" lon="-118.3938756">
  <ele>-33.0</ele>
  <time>2026-09-01T01:13:29Z</time>
  <course>184.98</course>
  <speed>0.77</speed>
  <fix>3d</fix>
</trkpt>
<trkpt lat="33.8102347" lon="-118.393876">
  <ele>-33.713</ele>
  <time>2026-09-01T01:13:29Z</time>
  <course>184.0</course>
  <speed>0.7343704787094864</speed>
  <fix>3d</fix>
</trkpt>
<trkpt lat="33.8102361" lon="-118.3938756">
  <ele>-33.0</ele>
  <time>2026-09-01T01:13:29Z</time>
  <course>184.98</course>
  <speed>0.77</speed>
  <fix>3d</fix>
</trkpt>
<trkpt lat="33.8102341" lon="-118.3938761">
  <ele>-33.678</ele>
  <time>2026-09-01T01:13:29Z</time>
  <course>183.98</course>
  <speed>0.7343704787094864</speed>
  <fix>3d</fix>
</trkpt>
<trkpt lat="33.8102346" lon="-118.3938758">
  <ele>-32.94</ele>
  <time>2026-09-01T01:13:29Z</time>
  <course>184.93</course>
  <speed>0.77</speed>
  <fix>3d</fix>
</trkpt>
<trkpt lat="33.8102334" lon="-118.3938761">
  <ele>-33.643</ele>
  <time>2026-09-01T01:13:29Z</time>
  <course>183.96</course>
  <speed>0.7343704787094864</speed>
  <fix>3d</fix>
</trkpt>
<trkpt lat="33.8102346" lon="-118.3938758">
  <ele>-32.94</ele>
  <time>2026-09-01T01:13:29Z</time>
  <course>184.93</course>
  <speed>0.77</speed>
  <fix>3d</fix>
</trkpt>
<trkpt lat="33.8102327" lon="-118.3938762">
  <ele>-33.607</ele>
  <time>2026-09-01T01:13:29Z</time>
  <course>183.94</course>
  <speed>0.7343704787094864</speed>
  <fix>3d</fix>
</trkpt>
<trkpt lat="33.8102333" lon="-118.3938759">
  <ele>-32.87</ele>
  <time>2026-09-01T01:13:29Z</time>
  <course>184.89</course>
  <speed>0.77</speed>
  <fix>3d</fix>
</trkpt>
<trkpt lat="33.810232" lon="-118.3938763">
  <ele>-33.571</ele>
  <time>2026-09-01T01:13:29Z</time>
  <course>183.92</course>
  <speed>0.7343704787094864</speed>
  <fix>3d</fix>
</trkpt>
<trkpt lat="33.8102333" lon="-118.3938759">
  <ele>-32.87</ele>
  <time>2026-09-01T01:13:29Z</time>
  <course>184.89</course>
  <speed>0.77</speed>
  <fix>3d</fix>
</trkpt>
<trkpt lat="33.8102313" lon="-118.3938763">
  <ele>-33.535</ele>
  <time>2026-09-01T01:13:29Z</time>
  <course>183.9</course>
  <speed>0.7343704787094864</speed>
  <fix>3d</fix>
</trkpt>
<trkpt lat="33.8102319" lon="-118.3938761">
  <ele>-32.8</ele>
  <time>2026-09-01T01:13:29Z</time>
  <course>184.86</course>
  <speed>0.77</speed>
  <fix>3d</fix>
</trkpt>
<trkpt lat="33.8102306" lon="-118.3938764">
  <ele>-33.499</ele>
  <time>2026-09-01T01:13:29Z</time>
  <course>183.88</course>
  <speed>0.7343704787094864</speed>
  <fix>3d</fix>
</trkpt>
<trkpt lat="33.8102319" lon="-118.3938761">
  <ele>-32.8</ele>
  <time>2026-09-01T01:13:29Z</time>
  <course>184.86</course>
  <speed>0.77</speed>
  <fix>3d</fix>
</trkpt>
<trkpt lat="33.8102299" lon="-118.3938765">
  <ele>-33.463</ele>
  <time>2026-09-01T01:13:29Z</time>
  <course>183.86</course>
  <speed>0.7343704787094864</speed>
  <fix>3d</fix>
</trkpt>
<trkpt lat="33.8102305" lon="-118.3938762">
  <ele>-32.73</ele>
  <time>2026-09-01T01:13:29Z</time>
  <course>184.82</course>
  <speed>0.77</speed>
  <fix>3d</fix>
</trkpt>
<trkpt lat="33.8102292" lon="-118.3938765">
  <ele>-33.428</ele>
  <time>2026-09-01T01:13:29Z</time>
  <course>183.84</course>
  <speed>0.7343704787094864</speed>
  <fix>3d</fix>
</trkpt>
<trkpt lat="33.8102305" lon="-118.3938762">
  <ele>-32.73</ele>
  <time>2026-09-01T01:13:29Z</time>
  <course>184.82</course>
  <speed>0.77</speed>
  <fix>3d</fix>
</trkpt>
<trkpt lat="33.8102285" lon="-118.3938766">
  <ele>-33.393</ele>
  <time>2026-09-01T01:13:29Z</time>
  <course>183.83</course>
  <speed>0.7343704787094864</speed>
  <fix>3d</fix>
</trkpt>
<trkpt lat="33.8102291" lon="-118.3938763">
  <ele>-32.66</ele>
  <time>2026-09-01T01:13:29Z</time>
  <course>184.78</course>
  <speed>0.77</speed>
  <fix>3d</fix>
</trkpt>
<trkpt lat="33.8102278" lon="-118.3938767">
  <ele>-33.359</ele>
  <time>2026-09-01T01:13:29Z</time>
  <course>183.81</course>
  <speed>0.7343704787094864</speed>
  <fix>3d</fix>
</trkpt>
<trkpt lat="33.8102291" lon="-118.3938763">
  <ele>-32.66</ele>
  <time>2026-09-01T01:13:29Z</time>
  <course>184.78</course>
  <speed>0.77</speed>
  <fix>3d</fix>
</trkpt>
<trkpt lat="33.8102271" lon="-118.3938767">
  <ele>-33.326</ele>
  <time>2026-09-01T01:13:29Z</time>
  <course>183.79</course>
  <speed>0.7343704787094864</speed>
  <fix>3d</fix>
</trkpt>
<trkpt lat="33.8102277" lon="-118.3938765">
  <ele>-32.6</ele>
  <time>2026-09-01T01:13:29Z</time>
  <course>184.75</course>
  <speed>0.77</speed>
  <fix>3d</fix>
</trkpt>
<trkpt lat="33.8102264" lon="-118.3938768">
  <ele>-33.293</ele>
  <time>2026-09-01T01:13:29Z</time>
  <course>183.77</course>
  <speed>0.7343704787094864</speed>
  <fix>3d</fix>
</trkpt>
<trkpt lat="33.8102277" lon="-118.3938765">
  <ele>-32.6</ele>
  <time>2026-09-01T01:13:29Z</time>
  <course>184.75</course>
  <speed>0.77</speed>
  <fix>3d</fix>
</trkpt>
<trkpt lat="33.8102258" lon="-118.3938769">
  <ele>-33.262</ele>
  <time>2026-09-01T01:13:29Z</time>
  <course>183.75</course>
  <speed>0.7343704787094864</speed>
  <fix>3d</fix>
</trkpt>
<trkpt lat="33.8102264" lon="-118.3938766">
  <ele>-32.54</ele>
  <time>2026-09-01T01:13:29Z</time>
  <course>184.72</course>
  <speed>0.77</speed>
  <fix>3d</fix>
</trkpt>
<trkpt lat="33.8102251" lon="-118.3938769">
  <ele>-33.232</ele>
  <time>2026-09-01T01:13:29Z</time>
  <course>183.74</course>
  <speed>0.7343704787094864</speed>
  <fix>3d</fix>
</trkpt>
<trkpt lat="33.8102264" lon="-118.3938766">
  <ele>-32.54</ele>
  <time>2026-09-01T01:13:29Z</time>
  <course>184.72</course>
  <speed>0.77</speed>
  <fix>3d</fix>
</trkpt>
<trkpt lat="33.8102244" lon="-118.393877">
  <ele>-33.205</ele>
  <time>2026-09-01T01:13:29Z</time>
  <course>183.72</course>
  <speed>0.7343704787094864</speed>
  <fix>3d</fix>
</trkpt>
<trkpt lat="33.810225" lon="-118.3938767">
  <ele>-32.48</ele>
  <time>2026-09-01T01:13:29Z</time>
  <course>184.69</course>
  <speed>0.77</speed>
  <fix>3d</fix>
</trkpt>
<trkpt lat="33.8102237" lon="-118.3938771">
  <ele>-33.179</ele>
  <time>2026-09-01T01:13:29Z</time>
  <course>183.7</course>
  <speed>0.7343704787094864</speed>
  <fix>3d</fix>
</trkpt>
<trkpt lat="33.810225" lon="-118.3938767">
  <ele>-32.48</ele>
  <time>2026-09-01T01:13:29Z</time>
  <course>184.69</course>
  <speed>0.77</speed>
  <fix>3d</fix>
</trkpt>
<trkpt lat="33.810223" lon="-118.3938771">
  <ele>-33.153</ele>
  <time>2026-09-01T01:13:29Z</time>
  <course>183.68</course>
  <speed>0.7343704787094864</speed>
  <fix>3d</fix>
</trkpt>
<trkpt lat="33.8102236" lon="-118.3938769">
  <ele>-32.42</ele>
  <time>2026-09-01T01:13:29Z</time>
  <course>184.65</course>
  <speed>0.77</speed>
  <fix>3d</fix>
</trkpt>
<trkpt lat="33.8102223" lon="-118.3938772">
  <ele>-33.129</ele>
  <time>2026-09-01T01:13:29Z</time>
  <course>183.67</course>
  <speed>0.7343704787094864</speed>
  <fix>3d</fix>
</trkpt>
<trkpt lat="33.8102236" lon="-118.3938769">
  <ele>-32.42</ele>
  <time>2026-09-01T01:13:29Z</time>
  <course>184.65</course>
  <speed>0.77</speed>
  <fix>3d</fix>
</trkpt>
<trkpt lat="33.8102216" lon="-118.3938773">
  <ele>-33.104</ele>
  <time>2026-09-01T01:13:29Z</time>
  <course>183.65</course>
  <speed>0.7343704787094864</speed>
  <fix>3d</fix>
</trkpt>
<trkpt lat="33.8102222" lon="-118.393877">
  <ele>-32.37</ele>
  <time>2026-09-01T01:13:29Z</time>
  <course>184.62</course>
  <speed>0.77</speed>
  <fix>3d</fix>
</trkpt>
<trkpt lat="33.8102209" lon="-118.3938773">
  <ele>-33.08</ele>
  <time>2026-09-01T01:13:29Z</time>
  <course>183.63</course>
  <speed>0.7343704787094864</speed>
  <fix>3d</fix>
</trkpt>
<trkpt lat="33.8102222" lon="-118.393877">
  <ele>-32.37</ele>
  <time>2026-09-01T01:13:29Z</time>
  <course>184.62</course>
  <speed>0.77</speed>
  <fix>3d</fix>
</trkpt>
<trkpt lat="33.8102202" lon="-118.3938774">
  <ele>-33.055</ele>
  <time>2026-09-01T01:13:29Z</time>
  <course>183.62</course>
  <speed>0.7343704787094864</speed>
  <fix>3d</fix>
</trkpt>
<trkpt lat="33.8102207" lon="-118.3938772">
  <ele>-32.32</ele>
  <time>2026-09-01T01:13:29Z</time>
  <course>184.58</course>
  <speed>0.77</speed>
  <fix>3d</fix>
</trkpt>
<trkpt lat="33.8102195" lon="-118.3938774">
  <ele>-33.031</ele>
  <time>2026-09-01T01:13:29Z</time>
  <course>183.6</course>
  <speed>0.7343704787094864</speed>
  <fix>3d</fix>
</trkpt>
<trkpt lat="33.8102207" lon="-118.3938772">
  <ele>-32.32</ele>
  <time>2026-09-01T01:13:29Z</time>
  <course>184.58</course>
  <speed>0.77</speed>
  <fix>3d</fix>
</trkpt>
<trkpt lat="33.8102188" lon="-118.3938775">
  <ele>-33.008</ele>
  <time>2026-09-01T01:13:29Z</time>
  <course>183.58</course>
  <speed>0.7443117626371358</speed>
  <fix>3d</fix>
</trkpt>
<trkpt lat="33.8102193" lon="-118.3938773">
  <ele>-32.27</ele>
  <time>2026-09-01T01:13:29Z</time>
  <course>184.55</course>
  <speed>0.77</speed>
  <fix>3d</fix>
</trkpt>
<trkpt lat="33.8102181" lon="-118.3938776">
  <ele>-32.985</ele>
  <time>2026-09-01T01:13:30Z</time>
  <course>183.56</course>
  <speed>0.7443117626371358</speed>
  <fix>3d</fix>
</trkpt>
<trkpt lat="33.8102193" lon="-118.3938773">
  <ele>-32.27</ele>
  <time>2026-09-01T01:13:30Z</time>
  <course>184.55</course>
  <speed>0.77</speed>
  <fix>3d</fix>
</trkpt>
<trkpt lat="33.8102174" lon="-118.3938776">
  <ele>-32.962</ele>
  <time>2026-09-01T01:13:30Z</time>
  <course>183.55</course>
  <speed>0.7433034373659253</speed>
  <fix>3d</fix>
</trkpt>
<trkpt lat="33.810218" lon="-118.3938774">
  <ele>-32.22</ele>
  <time>2026-09-01T01:13:30Z</time>
  <course>184.51</course>
  <speed>0.77</speed>
  <fix>3d</fix>
</trkpt>
<trkpt lat="33.8102167" lon="-118.3938777">
  <ele>-32.937</ele>
  <time>2026-09-01T01:13:30Z</time>
  <course>183.54</course>
  <speed>0.7433034373659253</speed>
  <fix>3d</fix>
</trkpt>
<trkpt lat="33.810218" lon="-118.3938774">
  <ele>-32.22</ele>
  <time>2026-09-01T01:13:30Z</time>
  <course>184.51</course>
  <speed>0.77</speed>
  <fix>3d</fix>
</trkpt>
<trkpt lat="33.8102161" lon="-118.3938778">
  <ele>-32.911</ele>
  <time>2026-09-01T01:13:30Z</time>
  <course>183.52</course>
  <speed>0.7433034373659253</speed>
  <fix>3d</fix>
</trkpt>
<trkpt lat="33.8102166" lon="-118.3938776">
  <ele>-32.17</ele>
  <time>2026-09-01T01:13:30Z</time>
  <course>184.48</course>
  <speed>0.77</speed>
  <fix>3d</fix>
</trkpt>
<trkpt lat="33.8102154" lon="-118.3938778">
  <ele>-32.882</ele>
  <time>2026-09-01T01:13:30Z</time>
  <course>183.5</course>
  <speed>0.7433034373659253</speed>
  <fix>3d</fix>
</trkpt>
<trkpt lat="33.8102166" lon="-118.3938776">
  <ele>-32.17</ele>
  <time>2026-09-01T01:13:30Z</time>
  <course>184.48</course>
  <speed>0.77</speed>
  <fix>3d</fix>
</trkpt>
<trkpt lat="33.8102147" lon="-118.3938779">
  <ele>-32.852</ele>
  <time>2026-09-01T01:13:30Z</time>
  <course>183.49</course>
  <speed>0.7433034373659253</speed>
  <fix>3d</fix>
</trkpt>
<trkpt lat="33.8102152" lon="-118.3938777">
  <ele>-32.12</ele>
  <time>2026-09-01T01:13:30Z</time>
  <course>184.44</course>
  <speed>0.77</speed>
  <fix>3d</fix>
</trkpt>
<trkpt lat="33.810214" lon="-118.393878">
  <ele>-32.822</ele>
  <time>2026-09-01T01:13:30Z</time>
  <course>183.47</course>
  <speed>0.7433034373659253</speed>
  <fix>3d</fix>
</trkpt>
<trkpt lat="33.8102152" lon="-118.3938777">
  <ele>-32.12</ele>
  <time>2026-09-01T01:13:30Z</time>
  <course>184.44</course>
  <speed>0.77</speed>
  <fix>3d</fix>
</trkpt>
<trkpt lat="33.8102133" lon="-118.393878">
  <ele>-32.79</ele>
  <time>2026-09-01T01:13:30Z</time>
  <course>183.46</course>
  <speed>0.7433034373659253</speed>
  <fix>3d</fix>
</trkpt>
<trkpt lat="33.8102139" lon="-118.3938778">
  <ele>-32.07</ele>
  <time>2026-09-01T01:13:30Z</time>
  <course>184.4</course>
  <speed>0.77</speed>
  <fix>3d</fix>
</trkpt>
<trkpt lat="33.8102126" lon="-118.3938781">
  <ele>-32.757</ele>
  <time>2026-09-01T01:13:30Z</time>
  <course>183.44</course>
  <speed>0.7433034373659253</speed>
  <fix>3d</fix>
</trkpt>
<trkpt lat="33.8102139" lon="-118.3938778">
  <ele>-32.07</ele>
  <time>2026-09-01T01:13:30Z</time>
  <course>184.4</course>
  <speed>0.77</speed>
  <fix>3d</fix>
</trkpt>
<trkpt lat="33.8102119" lon="-118.3938782">
  <ele>-32.721</ele>
  <time>2026-09-01T01:13:30Z</time>
  <course>183.43</course>
  <speed>0.7433034373659253</speed>
  <fix>3d</fix>
</trkpt>
<trkpt lat="33.8102125" lon="-118.393878">
  <ele>-32.01</ele>
  <time>2026-09-01T01:13:30Z</time>
  <course>184.36</course>
  <speed>0.77</speed>
  <fix>3d</fix>
</trkpt>
<trkpt lat="33.8102112" lon="-118.3938782">
  <ele>-32.683</ele>
  <time>2026-09-01T01:13:30Z</time>
  <course>183.41</course>
  <speed>0.7433034373659253</speed>
  <fix>3d</fix>
</trkpt>
<trkpt lat="33.8102125" lon="-118.393878">
  <ele>-32.01</ele>
  <time>2026-09-01T01:13:30Z</time>
  <course>184.36</course>
  <speed>0.77</speed>
  <fix>3d</fix>
</trkpt>
<trkpt lat="33.8102105" lon="-118.3938783">
  <ele>-32.642</ele>
  <time>2026-09-01T01:13:30Z</time>
  <course>183.4</course>
  <speed>0.7433034373659253</speed>
  <fix>3d</fix>
</trkpt>
<trkpt lat="33.810211" lon="-118.3938781">
  <ele>-31.94</ele>
  <time>2026-09-01T01:13:30Z</time>
  <course>184.31</course>
  <speed>0.77</speed>
  <fix>3d</fix>
</trkpt>
<trkpt lat="33.8102098" lon="-118.3938784">
  <ele>-32.601</ele>
  <time>2026-09-01T01:13:30Z</time>
  <course>183.38</course>
  <speed>0.7433034373659253</speed>
  <fix>3d</fix>
</trkpt>
<trkpt lat="33.810211" lon="-118.3938781">
  <ele>-31.94</ele>
  <time>2026-09-01T01:13:30Z</time>
  <course>184.31</course>
  <speed>0.77</speed>
  <fix>3d</fix>
</trkpt>
<trkpt lat="33.8102091" lon="-118.3938784">
  <ele>-32.558</ele>
  <time>2026-09-01T01:13:30Z</time>
  <course>183.37</course>
  <speed>0.7433034373659253</speed>
  <fix>3d</fix>
</trkpt>
<trkpt lat="33.8102097" lon="-118.3938782">
  <ele>-31.86</ele>
  <time>2026-09-01T01:13:30Z</time>
  <course>184.27</course>
  <speed>0.77</speed>
  <fix>3d</fix>
</trkpt>
<trkpt lat="33.8102084" lon="-118.3938785">
  <ele>-32.516</ele>
  <time>2026-09-01T01:13:30Z</time>
  <course>183.36</course>
  <speed>0.7433034373659253</speed>
  <fix>3d</fix>
</trkpt>
<trkpt lat="33.8102097" lon="-118.3938782">
  <ele>-31.86</ele>
  <time>2026-09-01T01:13:30Z</time>
  <course>184.27</course>
  <speed>0.77</speed>
  <fix>3d</fix>
</trkpt>
<trkpt lat="33.8102077" lon="-118.3938785">
  <ele>-32.474</ele>
  <time>2026-09-01T01:13:30Z</time>
  <course>183.34</course>
  <speed>0.7433034373659253</speed>
  <fix>3d</fix>
</trkpt>
<trkpt lat="33.8102083" lon="-118.3938783">
  <ele>-31.78</ele>
  <time>2026-09-01T01:13:30Z</time>
  <course>184.24</course>
  <speed>0.77</speed>
  <fix>3d</fix>
</trkpt>
<trkpt lat="33.810207" lon="-118.3938786">
  <ele>-32.432</ele>
  <time>2026-09-01T01:13:30Z</time>
  <course>183.33</course>
  <speed>0.7433034373659253</speed>
  <fix>3d</fix>
</trkpt>
<trkpt lat="33.8102083" lon="-118.3938783">
  <ele>-31.78</ele>
  <time>2026-09-01T01:13:30Z</time>
  <course>184.24</course>
  <speed>0.77</speed>
  <fix>3d</fix>
</trkpt>
<trkpt lat="33.8102063" lon="-118.3938787">
  <ele>-32.392</ele>
  <time>2026-09-01T01:13:30Z</time>
  <course>183.32</course>
  <speed>0.7433034373659253</speed>
  <fix>3d</fix>
</trkpt>
<trkpt lat="33.8102069" lon="-118.3938785">
  <ele>-31.7</ele>
  <time>2026-09-01T01:13:30Z</time>
  <course>184.2</course>
  <speed>0.77</speed>
  <fix>3d</fix>
</trkpt>
<trkpt lat="33.8102056" lon="-118.3938787">
  <ele>-32.352</ele>
  <time>2026-09-01T01:13:30Z</time>
  <course>183.3</course>
  <speed>0.7433034373659253</speed>
  <fix>3d</fix>
</trkpt>
<trkpt lat="33.8102069" lon="-118.3938785">
  <ele>-31.7</ele>
  <time>2026-09-01T01:13:30Z</time>
  <course>184.2</course>
  <speed>0.77</speed>
  <fix>3d</fix>
</trkpt>
<trkpt lat="33.8102049" lon="-118.3938788">
  <ele>-32.313</ele>
  <time>2026-09-01T01:13:30Z</time>
  <course>183.29</course>
  <speed>0.7433034373659253</speed>
  <fix>3d</fix>
</trkpt>
<trkpt lat="33.8102055" lon="-118.3938786">
  <ele>-31.62</ele>
  <time>2026-09-01T01:13:30Z</time>
  <course>184.17</course>
  <speed>0.77</speed>
  <fix>3d</fix>
</trkpt>
<trkpt lat="33.8102042" lon="-118.3938789">
  <ele>-32.274</ele>
  <time>2026-09-01T01:13:30Z</time>
  <course>183.27</course>
  <speed>0.7433034373659253</speed>
  <fix>3d</fix>
</trkpt>
<trkpt lat="33.8102055" lon="-118.3938786">
  <ele>-31.62</ele>
  <time>2026-09-01T01:13:30Z</time>
  <course>184.17</course>
  <speed>0.77</speed>
  <fix>3d</fix>
</trkpt>
<trkpt lat="33.8102035" lon="-118.3938789">
  <ele>-32.24</ele>
  <time>2026-09-01T01:13:30Z</time>
  <course>183.26</course>
  <speed>0.7433034373659253</speed>
  <fix>3d</fix>
</trkpt>
<trkpt lat="33.8102042" lon="-118.3938787">
  <ele>-31.55</ele>
  <time>2026-09-01T01:13:30Z</time>
  <course>184.14</course>
  <speed>0.77</speed>
  <fix>3d</fix>
</trkpt>
<trkpt lat="33.8102028" lon="-118.393879">
  <ele>-32.209</ele>
  <time>2026-09-01T01:13:30Z</time>
  <course>183.25</course>
  <speed>0.7433034373659253</speed>
  <fix>3d</fix>
</trkpt>
<trkpt lat="33.8102042" lon="-118.3938787">
  <ele>-31.55</ele>
  <time>2026-09-01T01:13:30Z</time>
  <course>184.14</course>
  <speed>0.77</speed>
  <fix>3d</fix>
</trkpt>
<trkpt lat="33.8102022" lon="-118.393879">
  <ele>-32.179</ele>
  <time>2026-09-01T01:13:30Z</time>
  <course>183.24</course>
  <speed>0.7433034373659253</speed>
  <fix>3d</fix>
</trkpt>
<trkpt lat="33.8102028" lon="-118.3938788">
  <ele>-31.48</ele>
  <time>2026-09-01T01:13:30Z</time>
  <course>184.11</course>
  <speed>0.77</speed>
  <fix>3d</fix>
</trkpt>
<trkpt lat="33.8102015" lon="-118.3938791">
  <ele>-32.151</ele>
  <time>2026-09-01T01:13:30Z</time>
  <course>183.22</course>
  <speed>0.7433034373659253</speed>
  <fix>3d</fix>
</trkpt>
<trkpt lat="33.8102028" lon="-118.3938788">
  <ele>-31.48</ele>
  <time>2026-09-01T01:13:30Z</time>
  <course>184.11</course>
  <speed>0.77</speed>
  <fix>3d</fix>
</trkpt>
<trkpt lat="33.8102008" lon="-118.3938791">
  <ele>-32.126</ele>
  <time>2026-09-01T01:13:30Z</time>
  <course>183.21</course>
  <speed>0.7433034373659253</speed>
  <fix>3d</fix>
</trkpt>
<trkpt lat="33.8102013" lon="-118.3938789">
  <ele>-31.42</ele>
  <time>2026-09-01T01:13:30Z</time>
  <course>184.09</course>
  <speed>0.77</speed>
  <fix>3d</fix>
</trkpt>
<trkpt lat="33.8102001" lon="-118.3938792">
  <ele>-32.103</ele>
  <time>2026-09-01T01:13:30Z</time>
  <course>183.2</course>
  <speed>0.7433034373659253</speed>
  <fix>3d</fix>
</trkpt>
<trkpt lat="33.8102013" lon="-118.3938789">
  <ele>-31.42</ele>
  <time>2026-09-01T01:13:30Z</time>
  <course>184.09</course>
  <speed>0.77</speed>
  <fix>3d</fix>
</trkpt>
<trkpt lat="33.8101994" lon="-118.3938793">
  <ele>-32.081</ele>
  <time>2026-09-01T01:13:30Z</time>
  <course>183.19</course>
  <speed>0.7433034373659253</speed>
  <fix>3d</fix>
</trkpt>
<trkpt lat="33.8101999" lon="-118.3938791">
  <ele>-31.36</ele>
  <time>2026-09-01T01:13:30Z</time>
  <course>184.06</course>
  <speed>0.77</speed>
  <fix>3d</fix>
</trkpt>
<trkpt lat="33.8101987" lon="-118.3938793">
  <ele>-32.058</ele>
  <time>2026-09-01T01:13:30Z</time>
  <course>183.17</course>
  <speed>0.7433034373659253</speed>
  <fix>3d</fix>
</trkpt>
<trkpt lat="33.8101999" lon="-118.3938791">
  <ele>-31.36</ele>
  <time>2026-09-01T01:13:30Z</time>
  <course>184.06</course>
  <speed>0.77</speed>
  <fix>3d</fix>
</trkpt>
<trkpt lat="33.810198" lon="-118.3938794">
  <ele>-32.034</ele>
  <time>2026-09-01T01:13:30Z</time>
  <course>183.16</course>
  <speed>0.7433034373659253</speed>
  <fix>3d</fix>
</trkpt>
<trkpt lat="33.8101986" lon="-118.3938792">
  <ele>-31.32</ele>
  <time>2026-09-01T01:13:30Z</time>
  <course>184.03</course>
  <speed>0.77</speed>
  <fix>3d</fix>
</trkpt>
<trkpt lat="33.8101973" lon="-118.3938794">
  <ele>-32.006</ele>
  <time>2026-09-01T01:13:30Z</time>
  <course>183.15</course>
  <speed>0.7433034373659253</speed>
  <fix>3d</fix>
</trkpt>
<trkpt lat="33.8101986" lon="-118.3938792">
  <ele>-31.32</ele>
  <time>2026-09-01T01:13:30Z</time>
  <course>184.03</course>
  <speed>0.77</speed>
  <fix>3d</fix>
</trkpt>
<trkpt lat="33.8101966" lon="-118.3938795">
  <ele>-31.977</ele>
  <time>2026-09-01T01:13:30Z</time>
  <course>183.14</course>
  <speed>0.7433034373659253</speed>
  <fix>3d</fix>
</trkpt>
<trkpt lat="33.8101972" lon="-118.3938793">
  <ele>-31.27</ele>
  <time>2026-09-01T01:13:30Z</time>
  <course>183.99</course>
  <speed>0.77</speed>
  <fix>3d</fix>
</trkpt>
<trkpt lat="33.8101959" lon="-118.3938796">
  <ele>-31.948</ele>
  <time>2026-09-01T01:13:30Z</time>
  <course>183.13</course>
  <speed>0.7433034373659253</speed>
  <fix>3d</fix>
</trkpt>
<trkpt lat="33.8101972" lon="-118.3938793">
  <ele>-31.27</ele>
  <time>2026-09-01T01:13:30Z</time>
  <course>183.99</course>
  <speed>0.77</speed>
  <fix>3d</fix>
</trkpt>
<trkpt lat="33.8101952" lon="-118.3938796">
  <ele>-31.918</ele>
  <time>2026-09-01T01:13:30Z</time>
  <course>183.11</course>
  <speed>0.7433034373659253</speed>
  <fix>3d</fix>
</trkpt>
<trkpt lat="33.8101958" lon="-118.3938794">
  <ele>-31.22</ele>
  <time>2026-09-01T01:13:30Z</time>
  <course>183.96</course>
  <speed>0.77</speed>
  <fix>3d</fix>
</trkpt>
<trkpt lat="33.8101945" lon="-118.3938797">
  <ele>-31.889</ele>
  <time>2026-09-01T01:13:30Z</time>
  <course>183.1</course>
  <speed>0.7433034373659253</speed>
  <fix>3d</fix>
</trkpt>
<trkpt lat="33.8101958" lon="-118.3938794">
  <ele>-31.22</ele>
  <time>2026-09-01T01:13:30Z</time>
  <course>183.96</course>
  <speed>0.77</speed>
  <fix>3d</fix>
</trkpt>
<trkpt lat="33.8101938" lon="-118.3938797">
  <ele>-31.859</ele>
  <time>2026-09-01T01:13:30Z</time>
  <course>183.09</course>
  <speed>0.7433034373659253</speed>
  <fix>3d</fix>
</trkpt>
<trkpt lat="33.8101944" lon="-118.3938795">
  <ele>-31.16</ele>
  <time>2026-09-01T01:13:30Z</time>
  <course>183.92</course>
  <speed>0.77</speed>
  <fix>3d</fix>
</trkpt>
<trkpt lat="33.8101931" lon="-118.3938798">
  <ele>-31.829</ele>
  <time>2026-09-01T01:13:30Z</time>
  <course>183.08</course>
  <speed>0.7433034373659253</speed>
  <fix>3d</fix>
</trkpt>
<trkpt lat="33.8101944" lon="-118.3938795">
  <ele>-31.16</ele>
  <time>2026-09-01T01:13:30Z</time>
  <course>183.92</course>
  <speed>0.77</speed>
  <fix>3d</fix>
</trkpt>
<trkpt lat="33.8101924" lon="-118.3938798">
  <ele>-31.8</ele>
  <time>2026-09-01T01:13:30Z</time>
  <course>183.07</course>
  <speed>0.7433034373659253</speed>
  <fix>3d</fix>
</trkpt>
<trkpt lat="33.8101931" lon="-118.3938796">
  <ele>-31.09</ele>
  <time>2026-09-01T01:13:30Z</time>
  <course>183.89</course>
  <speed>0.77</speed>
  <fix>3d</fix>
</trkpt>
<trkpt lat="33.8101917" lon="-118.3938799">
  <ele>-31.77</ele>
  <time>2026-09-01T01:13:30Z</time>
  <course>183.06</course>
  <speed>0.7433034373659253</speed>
  <fix>3d</fix>
</trkpt>
<trkpt lat="33.8101931" lon="-118.3938796">
  <ele>-31.09</ele>
  <time>2026-09-01T01:13:30Z</time>
  <course>183.89</course>
  <speed>0.77</speed>
  <fix>3d</fix>
</trkpt>
<trkpt lat="33.810191" lon="-118.3938799">
  <ele>-31.74</ele>
  <time>2026-09-01T01:13:30Z</time>
  <course>183.05</course>
  <speed>0.7433034373659253</speed>
  <fix>3d</fix>
</trkpt>
<trkpt lat="33.8101917" lon="-118.3938797">
  <ele>-31.04</ele>
  <time>2026-09-01T01:13:30Z</time>
  <course>183.86</course>
  <speed>0.77</speed>
  <fix>3d</fix>
</trkpt>
<trkpt lat="33.8101903" lon="-118.39388">
  <ele>-31.711</ele>
  <time>2026-09-01T01:13:30Z</time>
  <course>183.03</course>
  <speed>0.7424284477308234</speed>
  <fix>3d</fix>
</trkpt>
<trkpt lat="33.8101917" lon="-118.3938797">
  <ele>-31.04</ele>
  <time>2026-09-01T01:13:30Z</time>
  <course>183.86</course>
  <speed>0.77</speed>
  <fix>3d</fix>
</trkpt>
<trkpt lat="33.8101897" lon="-118.3938801">
  <ele>-31.681</ele>
  <time>2026-09-01T01:13:30Z</time>
  <course>183.02</course>
  <speed>0.7424284477308234</speed>
  <fix>3d</fix>
</trkpt>
<trkpt lat="33.8101903" lon="-118.3938799">
  <ele>-30.98</ele>
  <time>2026-09-01T01:13:30Z</time>
  <course>183.83</course>
  <speed>0.77</speed>
  <fix>3d</fix>
</trkpt>
<trkpt lat="33.810189" lon="-118.3938801">
  <ele>-31.653</ele>
  <time>2026-09-01T01:13:30Z</time>
  <course>183.02</course>
  <speed>0.7424284477308234</speed>
  <fix>3d</fix>
</trkpt>
<trkpt lat="33.8101903" lon="-118.3938799">
  <ele>-30.98</ele>
  <time>2026-09-01T01:13:30Z</time>
  <course>183.83</course>
  <speed>0.77</speed>
  <fix>3d</fix>
</trkpt>
<trkpt lat="33.8101883" lon="-118.3938802">
  <ele>-31.624</ele>
  <time>2026-09-01T01:13:30Z</time>
  <course>183.0</course>
  <speed>0.7424284477308234</speed>
  <fix>3d</fix>
</trkpt>
<trkpt lat="33.8101889" lon="-118.39388">
  <ele>-30.92</ele>
  <time>2026-09-01T01:13:30Z</time>
  <course>183.81</course>
  <speed>0.77</speed>
  <fix>3d</fix>
</trkpt>
<trkpt lat="33.8101876" lon="-118.3938802">
  <ele>-31.593</ele>
  <time>2026-09-01T01:13:30Z</time>
  <course>182.99</course>
  <speed>0.7424284477308234</speed>
  <fix>3d</fix>
</trkpt>
<trkpt lat="33.8101889" lon="-118.39388">
  <ele>-30.92</ele>
  <time>2026-09-01T01:13:30Z</time>
  <course>183.81</course>
  <speed>0.77</speed>
  <fix>3d</fix>
</trkpt>
<trkpt lat="33.8101869" lon="-118.3938803">
  <ele>-31.561</ele>
  <time>2026-09-01T01:13:30Z</time>
  <course>182.98</course>
  <speed>0.7424284477308234</speed>
  <fix>3d</fix>
</trkpt>
<trkpt lat="33.8101875" lon="-118.3938801">
  <ele>-30.86</ele>
  <time>2026-09-01T01:13:30Z</time>
  <course>183.77</course>
  <speed>0.77</speed>
  <fix>3d</fix>
</trkpt>
<trkpt lat="33.8101862" lon="-118.3938803">
  <ele>-31.531</ele>
  <time>2026-09-01T01:13:30Z</time>
  <course>182.97</course>
  <speed>0.7424284477308234</speed>
  <fix>3d</fix>
</trkpt>
<trkpt lat="33.8101875" lon="-118.3938801">
  <ele>-30.86</ele>
  <time>2026-09-01T01:13:30Z</time>
  <course>183.77</course>
  <speed>0.77</speed>
  <fix>3d</fix>
</trkpt>
<trkpt lat="33.8101855" lon="-118.3938804">
  <ele>-31.502</ele>
  <time>2026-09-01T01:13:30Z</time>
  <course>182.96</course>
  <speed>0.7424284477308234</speed>
  <fix>3d</fix>
</trkpt>
<trkpt lat="33.810186" lon="-118.3938802">
  <ele>-30.81</ele>
  <time>2026-09-01T01:13:30Z</time>
  <course>183.74</course>
  <speed>0.77</speed>
  <fix>3d</fix>
</trkpt>
<trkpt lat="33.8101848" lon="-118.3938804">
  <ele>-31.472</ele>
  <time>2026-09-01T01:13:30Z</time>
  <course>182.95</course>
  <speed>0.7424284477308234</speed>
  <fix>3d</fix>
</trkpt>
<trkpt lat="33.810186" lon="-118.3938802">
  <ele>-30.81</ele>
  <time>2026-09-01T01:13:30Z</time>
  <course>183.74</course>
  <speed>0.77</speed>
  <fix>3d</fix>
</trkpt>
<trkpt lat="33.8101841" lon="-118.3938805">
  <ele>-31.44</ele>
  <time>2026-09-01T01:13:30Z</time>
  <course>182.94</course>
  <speed>0.7424284477308234</speed>
  <fix>3d</fix>
</trkpt>
<trkpt lat="33.8101847" lon="-118.3938803">
  <ele>-30.75</ele>
  <time>2026-09-01T01:13:30Z</time>
  <course>183.71</course>
  <speed>0.77</speed>
  <fix>3d</fix>
</trkpt>
<trkpt lat="33.8101834" lon="-118.3938806">
  <ele>-31.407</ele>
  <time>2026-09-01T01:13:30Z</time>
  <course>182.93</course>
  <speed>0.7424284477308234</speed>
  <fix>3d</fix>
</trkpt>
<trkpt lat="33.8101847" lon="-118.3938803">
  <ele>-30.75</ele>
  <time>2026-09-01T01:13:30Z</time>
  <course>183.71</course>
  <speed>0.77</speed>
  <fix>3d</fix>
</trkpt>
<trkpt lat="33.8101827" lon="-118.3938806">
  <ele>-31.377</ele>
  <time>2026-09-01T01:13:30Z</time>
  <course>182.92</course>
  <speed>0.7424284477308234</speed>
  <fix>3d</fix>
</trkpt>
<trkpt lat="33.8101833" lon="-118.3938804">
  <ele>-30.68</ele>
  <time>2026-09-01T01:13:30Z</time>
  <course>183.68</course>
  <speed>0.77</speed>
  <fix>3d</fix>
</trkpt>
<trkpt lat="33.810182" lon="-118.3938807">
  <ele>-31.349</ele>
  <time>2026-09-01T01:13:30Z</time>
  <course>182.91</course>
  <speed>0.7424284477308234</speed>
  <fix>3d</fix>
</trkpt>
<trkpt lat="33.8101833" lon="-118.3938804">
  <ele>-30.68</ele>
  <time>2026-09-01T01:13:30Z</time>
  <course>183.68</course>
  <speed>0.77</speed>
  <fix>3d</fix>
</trkpt>
<trkpt lat="33.8101813" lon="-118.3938807">
  <ele>-31.322</ele>
  <time>2026-09-01T01:13:30Z</time>
  <course>182.9</course>
  <speed>0.7424284477308234</speed>
  <fix>3d</fix>
</trkpt>
<trkpt lat="33.8101819" lon="-118.3938805">
  <ele>-30.63</ele>
  <time>2026-09-01T01:13:30Z</time>
  <course>183.66</course>
  <speed>0.77</speed>
  <fix>3d</fix>
</trkpt>
<trkpt lat="33.8101806" lon="-118.3938808">
  <ele>-31.293</ele>
  <time>2026-09-01T01:13:30Z</time>
  <course>182.89</course>
  <speed>0.7424284477308234</speed>
  <fix>3d</fix>
</trkpt>
<trkpt lat="33.8101819" lon="-118.3938805">
  <ele>-30.63</ele>
  <time>2026-09-01T01:13:30Z</time>
  <course>183.66</course>
  <speed>0.77</speed>
  <fix>3d</fix>
</trkpt>
<trkpt lat="33.8101799" lon="-118.3938808">
  <ele>-31.261</ele>
  <time>2026-09-01T01:13:30Z</time>
  <course>182.88</course>
  <speed>0.7424284477308234</speed>
  <fix>3d</fix>
</trkpt>
<trkpt lat="33.8101805" lon="-118.3938806">
  <ele>-30.57</ele>
  <time>2026-09-01T01:13:30Z</time>
  <course>183.63</course>
  <speed>0.77</speed>
  <fix>3d</fix>
</trkpt>
<trkpt lat="33.8101792" lon="-118.3938809">
  <ele>-31.23</ele>
  <time>2026-09-01T01:13:30Z</time>
  <course>182.88</course>
  <speed>0.7424284477308234</speed>
  <fix>3d</fix>
</trkpt>
<trkpt lat="33.8101805" lon="-118.3938806">
  <ele>-30.57</ele>
  <time>2026-09-01T01:13:30Z</time>
  <course>183.63</course>
  <speed>0.77</speed>
  <fix>3d</fix>
</trkpt>
<trkpt lat="33.8101785" lon="-118.3938809">
  <ele>-31.199</ele>
  <time>2026-09-01T01:13:30Z</time>
  <course>182.87</course>
  <speed>0.7424284477308234</speed>
  <fix>3d</fix>
</trkpt>
<trkpt lat="33.8101792" lon="-118.3938807">
  <ele>-30.51</ele>
  <time>2026-09-01T01:13:30Z</time>
  <course>183.6</course>
  <speed>0.77</speed>
  <fix>3d</fix>
</trkpt>
<trkpt lat="33.8101778" lon="-118.393881">
  <ele>-31.169</ele>
  <time>2026-09-01T01:13:30Z</time>
  <course>182.86</course>
  <speed>0.7424284477308234</speed>
  <fix>3d</fix>
</trkpt>
<trkpt lat="33.8101792" lon="-118.3938807">
  <ele>-30.51</ele>
  <time>2026-09-01T01:13:30Z</time>
  <course>183.6</course>
  <speed>0.77</speed>
  <fix>3d</fix>
</trkpt>
<trkpt lat="33.8101771" lon="-118.393881">
  <ele>-31.137</ele>
  <time>2026-09-01T01:13:30Z</time>
  <course>182.85</course>
  <speed>0.7424284477308234</speed>
  <fix>3d</fix>
</trkpt>
<trkpt lat="33.8101778" lon="-118.3938808">
  <ele>-30.45</ele>
  <time>2026-09-01T01:13:30Z</time>
  <course>183.58</course>
  <speed>0.77</speed>
  <fix>3d</fix>
</trkpt>
<trkpt lat="33.8101764" lon="-118.3938811">
  <ele>-31.104</ele>
  <time>2026-09-01T01:13:30Z</time>
  <course>182.84</course>
  <speed>0.7424284477308234</speed>
  <fix>3d</fix>
</trkpt>
<trkpt lat="33.8101778" lon="-118.3938808">
  <ele>-30.45</ele>
  <time>2026-09-01T01:13:30Z</time>
  <course>183.58</course>
  <speed>0.77</speed>
  <fix>3d</fix>
</trkpt>
<trkpt lat="33.8101757" lon="-118.3938811">
  <ele>-31.07</ele>
  <time>2026-09-01T01:13:30Z</time>
  <course>182.83</course>
  <speed>0.7424284477308234</speed>
  <fix>3d</fix>
</trkpt>
<trkpt lat="33.8101763" lon="-118.3938809">
  <ele>-30.38</ele>
  <time>2026-09-01T01:13:30Z</time>
  <course>183.55</course>
  <speed>0.77</speed>
  <fix>3d</fix>
</trkpt>
<trkpt lat="33.810175" lon="-118.3938812">
  <ele>-31.035</ele>
  <time>2026-09-01T01:13:30Z</time>
  <course>182.82</course>
  <speed>0.7424284477308234</speed>
  <fix>3d</fix>
</trkpt>
<trkpt lat="33.8101763" lon="-118.3938809">
  <ele>-30.38</ele>
  <time>2026-09-01T01:13:30Z</time>
  <course>183.55</course>
  <speed>0.77</speed>
  <fix>3d</fix>
</trkpt>
<trkpt lat="33.8101743" lon="-118.3938812">
  <ele>-31.0</ele>
  <time>2026-09-01T01:13:30Z</time>
  <course>182.81</course>
  <speed>0.7424284477308234</speed>
  <fix>3d</fix>
</trkpt>
<trkpt lat="33.810175" lon="-118.393881">
  <ele>-30.31</ele>
  <time>2026-09-01T01:13:30Z</time>
  <course>183.52</course>
  <speed>0.77</speed>
  <fix>3d</fix>
</trkpt>
<trkpt lat="33.8101736" lon="-118.3938813">
  <ele>-30.965</ele>
  <time>2026-09-01T01:13:30Z</time>
  <course>182.81</course>
  <speed>0.7424284477308234</speed>
  <fix>3d</fix>
</trkpt>
<trkpt lat="33.810175" lon="-118.393881">
  <ele>-30.31</ele>
  <time>2026-09-01T01:13:30Z</time>
  <course>183.52</course>
  <speed>0.77</speed>
  <fix>3d</fix>
</trkpt>
<trkpt lat="33.810173" lon="-118.3938813">
  <ele>-30.93</ele>
  <time>2026-09-01T01:13:30Z</time>
  <course>182.8</course>
  <speed>0.7424284477308234</speed>
  <fix>3d</fix>
</trkpt>
<trkpt lat="33.8101736" lon="-118.3938811">
  <ele>-30.24</ele>
  <time>2026-09-01T01:13:30Z</time>
  <course>183.49</course>
  <speed>0.77</speed>
  <fix>3d</fix>
</trkpt>
<trkpt lat="33.8101723" lon="-118.3938814">
  <ele>-30.893</ele>
  <time>2026-09-01T01:13:30Z</time>
  <course>182.79</course>
  <speed>0.7424284477308234</speed>
  <fix>3d</fix>
</trkpt>
<trkpt lat="33.8101736" lon="-118.3938811">
  <ele>-30.24</ele>
  <time>2026-09-01T01:13:30Z</time>
  <course>183.49</course>
  <speed>0.77</speed>
  <fix>3d</fix>
</trkpt>
<trkpt lat="33.8101716" lon="-118.3938814">
  <ele>-30.857</ele>
  <time>2026-09-01T01:13:30Z</time>
  <course>182.78</course>
  <speed>0.7424284477308234</speed>
  <fix>3d</fix>
</trkpt>
<trkpt lat="33.8101721" lon="-118.3938812">
  <ele>-30.17</ele>
  <time>2026-09-01T01:13:30Z</time>
  <course>183.47</course>
  <speed>0.77</speed>
  <fix>3d</fix>
</trkpt>
<trkpt lat="33.8101709" lon="-118.3938815">
  <ele>-30.822</ele>
  <time>2026-09-01T01:13:30Z</time>
  <course>182.77</course>
  <speed>0.7424284477308234</speed>
  <fix>3d</fix>
</trkpt>
<trkpt lat="33.8101721" lon="-118.3938812">
  <ele>-30.17</ele>
  <time>2026-09-01T01:13:30Z</time>
  <course>183.47</course>
  <speed>0.77</speed>
  <fix>3d</fix>
</trkpt>
<trkpt lat="33.8101702" lon="-118.3938815">
  <ele>-30.789</ele>
  <time>2026-09-01T01:13:30Z</time>
  <course>182.77</course>
  <speed>0.7424284477308234</speed>
  <fix>3d</fix>
</trkpt>
<trkpt lat="33.8101707" lon="-118.3938813">
  <ele>-30.11</ele>
  <time>2026-09-01T01:13:30Z</time>
  <course>183.44</course>
  <speed>0.77</speed>
  <fix>3d</fix>
</trkpt>
<trkpt lat="33.8101695" lon="-118.3938816">
  <ele>-30.757</ele>
  <time>2026-09-01T01:13:30Z</time>
  <course>182.76</course>
  <speed>0.7424284477308234</speed>
  <fix>3d</fix>
</trkpt>
<trkpt lat="33.8101707" lon="-118.3938813">
  <ele>-30.11</ele>
  <time>2026-09-01T01:13:30Z</time>
  <course>183.44</course>
  <speed>0.77</speed>
  <fix>3d</fix>
</trkpt>
<trkpt lat="33.8101688" lon="-118.3938816">
  <ele>-30.724</ele>
  <time>2026-09-01T01:13:30Z</time>
  <course>182.75</course>
  <speed>0.7523961722390672</speed>
  <fix>3d</fix>
</trkpt>
<trkpt lat="33.8101694" lon="-118.3938814">
  <ele>-30.05</ele>
  <time>2026-09-01T01:13:30Z</time>
  <course>183.42</course>
  <speed>0.77</speed>
  <fix>3d</fix>
</trkpt>
<trkpt lat="33.8101681" lon="-118.3938816">
  <ele>-30.691</ele>
  <time>2026-09-01T01:13:30Z</time>
  <course>182.74</course>
  <speed>0.7523961722390672</speed>
  <fix>3d</fix>
</trkpt>
<trkpt lat="33.8101694" lon="-118.3938814">
  <ele>-30.05</ele>
  <time>2026-09-01T01:13:30Z</time>
  <course>183.42</course>
  <speed>0.77</speed>
  <fix>3d</fix>
</trkpt>
<trkpt lat="33.8101674" lon="-118.3938817">
  <ele>-30.656</ele>
  <time>2026-09-01T01:13:30Z</time>
  <course>182.73</course>
  <speed>0.7523961722390672</speed>
  <fix>3d</fix>
</trkpt>
<trkpt lat="33.8101681" lon="-118.3938815">
  <ele>-29.99</ele>
  <time>2026-09-01T01:13:30Z</time>
  <course>183.39</course>
  <speed>0.77</speed>
  <fix>3d</fix>
</trkpt>
<trkpt lat="33.8101667" lon="-118.3938817">
  <ele>-30.621</ele>
  <time>2026-09-01T01:13:30Z</time>
  <course>182.73</course>
  <speed>0.7523961722390672</speed>
  <fix>3d</fix>
</trkpt>
<trkpt lat="33.8101681" lon="-118.3938815">
  <ele>-29.99</ele>
  <time>2026-09-01T01:13:30Z</time>
  <course>183.39</course>
  <speed>0.77</speed>
  <fix>3d</fix>
</trkpt>
<trkpt lat="33.810166" lon="-118.3938818">
  <ele>-30.587</ele>
  <time>2026-09-01T01:13:30Z</time>
  <course>182.72</course>
  <speed>0.7523961722390672</speed>
  <fix>3d</fix>
</trkpt>
<trkpt lat="33.8101666" lon="-118.3938816">
  <ele>-29.92</ele>
  <time>2026-09-01T01:13:30Z</time>
  <course>183.37</course>
  <speed>0.77</speed>
  <fix>3d</fix>
</trkpt>
<trkpt lat="33.8101653" lon="-118.3938818">
  <ele>-30.558</ele>
  <time>2026-09-01T01:13:30Z</time>
  <course>182.71</course>
  <speed>0.7523961722390672</speed>
  <fix>3d</fix>
</trkpt>
<trkpt lat="33.8101666" lon="-118.3938816">
  <ele>-29.92</ele>
  <time>2026-09-01T01:13:30Z</time>
  <course>183.37</course>
  <speed>0.77</speed>
  <fix>3d</fix>
</trkpt>
<trkpt lat="33.8101646" lon="-118.3938819">
  <ele>-30.53</ele>
  <time>2026-09-01T01:13:30Z</time>
  <course>182.7</course>
  <speed>0.7523961722390672</speed>
  <fix>3d</fix>
</trkpt>
<trkpt lat="33.8101652" lon="-118.3938817">
  <ele>-29.86</ele>
  <time>2026-09-01T01:13:30Z</time>
  <course>183.35</course>
  <speed>0.77</speed>
  <fix>3d</fix>
</trkpt>
<trkpt lat="33.8101639" lon="-118.3938819">
  <ele>-30.503</ele>
  <time>2026-09-01T01:13:30Z</time>
  <course>182.7</course>
  <speed>0.7523961722390672</speed>
  <fix>3d</fix>
</trkpt>
<trkpt lat="33.8101652" lon="-118.3938817">
  <ele>-29.86</ele>
  <time>2026-09-01T01:13:30Z</time>
  <course>183.35</course>
  <speed>0.77</speed>
  <fix>3d</fix>
</trkpt>
<trkpt lat="33.8101632" lon="-118.393882">
  <ele>-30.478</ele>
  <time>2026-09-01T01:13:30Z</time>
  <course>182.69</course>
  <speed>0.7523961722390672</speed>
  <fix>3d</fix>
</trkpt>
<trkpt lat="33.8101639" lon="-118.3938818">
  <ele>-29.8</ele>
  <time>2026-09-01T01:13:30Z</time>
  <course>183.33</course>
  <speed>0.77</speed>
  <fix>3d</fix>
</trkpt>
<trkpt lat="33.8101625" lon="-118.393882">
  <ele>-30.453</ele>
  <time>2026-09-01T01:13:30Z</time>
  <course>182.68</course>
  <speed>0.7523961722390672</speed>
  <fix>3d</fix>
</trkpt>
<trkpt lat="33.8101639" lon="-118.3938818">
  <ele>-29.8</ele>
  <time>2026-09-01T01:13:30Z</time>
  <course>183.33</course>
  <speed>0.77</speed>
  <fix>3d</fix>
</trkpt>
<trkpt lat="33.8101618" lon="-118.3938821">
  <ele>-30.428</ele>
  <time>2026-09-01T01:13:30Z</time>
  <course>182.67</course>
  <speed>0.7523961722390672</speed>
  <fix>3d</fix>
</trkpt>
<trkpt lat="33.8101624" lon="-118.3938819">
  <ele>-29.76</ele>
  <time>2026-09-01T01:13:30Z</time>
  <course>183.31</course>
  <speed>0.77</speed>
  <fix>3d</fix>
</trkpt>
<trkpt lat="33.8101611" lon="-118.3938821">
  <ele>-30.404</ele>
  <time>2026-09-01T01:13:30Z</time>
  <course>182.67</course>
  <speed>0.7523961722390672</speed>
  <fix>3d</fix>
</trkpt>
<trkpt lat="33.8101624" lon="-118.3938819">
  <ele>-29.76</ele>
  <time>2026-09-01T01:13:30Z</time>
  <course>183.31</course>
  <speed>0.77</speed>
  <fix>3d</fix>
</trkpt>
<trkpt lat="33.8101604" lon="-118.3938822">
  <ele>-30.378</ele>
  <time>2026-09-01T01:13:30Z</time>
  <course>182.66</course>
  <speed>0.7523961722390672</speed>
  <fix>3d</fix>
</trkpt>
<trkpt lat="33.8101611" lon="-118.393882">
  <ele>-29.71</ele>
  <time>2026-09-01T01:13:30Z</time>
  <course>183.28</course>
  <speed>0.77</speed>
  <fix>3d</fix>
</trkpt>
<trkpt lat="33.8101597" lon="-118.3938822">
  <ele>-30.348</ele>
  <time>2026-09-01T01:13:30Z</time>
  <course>182.65</course>
  <speed>0.7523961722390672</speed>
  <fix>3d</fix>
</trkpt>
<trkpt lat="33.8101611" lon="-118.393882">
  <ele>-29.71</ele>
  <time>2026-09-01T01:13:30Z</time>
  <course>183.28</course>
  <speed>0.77</speed>
  <fix>3d</fix>
</trkpt>
<trkpt lat="33.810159" lon="-118.3938823">
  <ele>-30.315</ele>
  <time>2026-09-01T01:13:30Z</time>
  <course>182.64</course>
  <speed>0.7523961722390672</speed>
  <fix>3d</fix>
</trkpt>
<trkpt lat="33.8101597" lon="-118.3938821">
  <ele>-29.66</ele>
  <time>2026-09-01T01:13:30Z</time>
  <course>183.26</course>
  <speed>0.77</speed>
  <fix>3d</fix>
</trkpt>
<trkpt lat="33.8101583" lon="-118.3938823">
  <ele>-30.281</ele>
  <time>2026-09-01T01:13:30Z</time>
  <course>182.64</course>
  <speed>0.7523961722390672</speed>
  <fix>3d</fix>
</trkpt>
<trkpt lat="33.8101597" lon="-118.3938821">
  <ele>-29.66</ele>
  <time>2026-09-01T01:13:30Z</time>
  <course>183.26</course>
  <speed>0.77</speed>
  <fix>3d</fix>
</trkpt>
<trkpt lat="33.8101576" lon="-118.3938824">
  <ele>-30.248</ele>
  <time>2026-09-01T01:13:30Z</time>
  <course>182.63</course>
  <speed>0.7523961722390672</speed>
  <fix>3d</fix>
</trkpt>
<trkpt lat="33.8101583" lon="-118.3938822">
  <ele>-29.59</ele>
  <time>2026-09-01T01:13:30Z</time>
  <course>183.23</course>
  <speed>0.77</speed>
  <fix>3d</fix>
</trkpt>
<trkpt lat="33.8101569" lon="-118.3938824">
  <ele>-30.215</ele>
  <time>2026-09-01T01:13:30Z</time>
  <course>182.62</course>
  <speed>0.7523961722390672</speed>
  <fix>3d</fix>
</trkpt>
<trkpt lat="33.8101583" lon="-118.3938822">
  <ele>-29.59</ele>
  <time>2026-09-01T01:13:30Z</time>
  <course>183.23</course>
  <speed>0.77</speed>
  <fix>3d</fix>
</trkpt>
<trkpt lat="33.8101562" lon="-118.3938825">
  <ele>-30.181</ele>
  <time>2026-09-01T01:13:30Z</time>
  <course>182.62</course>
  <speed>0.7523961722390672</speed>
  <fix>3d</fix>
</trkpt>
<trkpt lat="33.8101568" lon="-118.3938823">
  <ele>-29.53</ele>
  <time>2026-09-01T01:13:30Z</time>
  <course>183.21</course>
  <speed>0.77</speed>
  <fix>3d</fix>
</trkpt>
<trkpt lat="33.8101555" lon="-118.3938825">
  <ele>-30.148</ele>
  <time>2026-09-01T01:13:30Z</time>
  <course>182.61</course>
  <speed>0.7523961722390672</speed>
  <fix>3d</fix>
</trkpt>
<trkpt lat="33.8101568" lon="-118.3938823">
  <ele>-29.53</ele>
  <time>2026-09-01T01:13:30Z</time>
  <course>183.21</course>
  <speed>0.77</speed>
  <fix>3d</fix>
</trkpt>
<trkpt lat="33.8101548" lon="-118.3938826">
  <ele>-30.117</ele>
  <time>2026-09-01T01:13:30Z</time>
  <course>182.6</course>
  <speed>0.7523961722390672</speed>
  <fix>3d</fix>
</trkpt>
<trkpt lat="33.8101555" lon="-118.3938824">
  <ele>-29.47</ele>
  <time>2026-09-01T01:13:30Z</time>
  <course>183.18</course>
  <speed>0.77</speed>
  <fix>3d</fix>
</trkpt>
<trkpt lat="33.8101541" lon="-118.3938826">
  <ele>-30.086</ele>
  <time>2026-09-01T01:13:30Z</time>
  <course>182.6</course>
  <speed>0.7523961722390672</speed>
  <fix>3d</fix>
</trkpt>
<trkpt lat="33.8101555" lon="-118.3938824">
  <ele>-29.47</ele>
  <time>2026-09-01T01:13:30Z</time>
  <course>183.18</course>
  <speed>0.77</speed>
  <fix>3d</fix>
</trkpt>
<trkpt lat="33.8101534" lon="-118.3938826">
  <ele>-30.054</ele>
  <time>2026-09-01T01:13:30Z</time>
  <course>182.59</course>
  <speed>0.7523961722390672</speed>
  <fix>3d</fix>
</trkpt>
<trkpt lat="33.8101542" lon="-118.3938825">
  <ele>-29.41</ele>
  <time>2026-09-01T01:13:30Z</time>
  <course>183.16</course>
  <speed>0.77</speed>
  <fix>3d</fix>
</trkpt>
<trkpt lat="33.8101527" lon="-118.3938827">
  <ele>-30.02</ele>
  <time>2026-09-01T01:13:30Z</time>
  <course>182.58</course>
  <speed>0.7523961722390672</speed>
  <fix>3d</fix>
</trkpt>
<trkpt lat="33.8101542" lon="-118.3938825">
  <ele>-29.41</ele>
  <time>2026-09-01T01:13:30Z</time>
  <course>183.16</course>
  <speed>0.77</speed>
  <fix>3d</fix>
</trkpt>
<trkpt lat="33.810152" lon="-118.3938827">
  <ele>-29.987</ele>
  <time>2026-09-01T01:13:30Z</time>
  <course>182.58</course>
  <speed>0.7523961722390672</speed>
  <fix>3d</fix>
</trkpt>
<trkpt lat="33.8101528" lon="-118.3938826">
  <ele>-29.34</ele>
  <time>2026-09-01T01:13:30Z</time>
  <course>183.14</course>
  <speed>0.77</speed>
  <fix>3d</fix>
</trkpt>
<trkpt lat="33.8101514" lon="-118.3938828">
  <ele>-29.953</ele>
  <time>2026-09-01T01:13:30Z</time>
  <course>182.57</course>
  <speed>0.7523961722390672</speed>
  <fix>3d</fix>
</trkpt>
<trkpt lat="33.8101528" lon="-118.3938826">
  <ele>-29.34</ele>
  <time>2026-09-01T01:13:30Z</time>
  <course>183.14</course>
  <speed>0.77</speed>
  <fix>3d</fix>
</trkpt>
<trkpt lat="33.8101507" lon="-118.3938828">
  <ele>-29.92</ele>
  <time>2026-09-01T01:13:30Z</time>
  <course>182.57</course>
  <speed>0.7523961722390672</speed>
  <fix>3d</fix>
</trkpt>
<trkpt lat="33.8101513" lon="-118.3938827">
  <ele>-29.27</ele>
  <time>2026-09-01T01:13:30Z</time>
  <course>183.12</course>
  <speed>0.77</speed>
  <fix>3d</fix>
</trkpt>
<trkpt lat="33.81015" lon="-118.3938829">
  <ele>-29.888</ele>
  <time>2026-09-01T01:13:30Z</time>
  <course>182.56</course>
  <speed>0.7523961722390672</speed>
  <fix>3d</fix>
</trkpt>
<trkpt lat="33.8101513" lon="-118.3938827">
  <ele>-29.27</ele>
  <time>2026-09-01T01:13:30Z</time>
  <course>183.12</course>
  <speed>0.77</speed>
  <fix>3d</fix>
</trkpt>
<trkpt lat="33.8101493" lon="-118.3938829">
  <ele>-29.855</ele>
  <time>2026-09-01T01:13:30Z</time>
  <course>182.56</course>
  <speed>0.7523961722390672</speed>
  <fix>3d</fix>
</trkpt>
<trkpt lat="33.81015" lon="-118.3938828">
  <ele>-29.21</ele>
  <time>2026-09-01T01:13:30Z</time>
  <course>183.1</course>
  <speed>0.77</speed>
  <fix>3d</fix>
</trkpt>
<trkpt lat="33.8101486" lon="-118.393883">
  <ele>-29.822</ele>
  <time>2026-09-01T01:13:30Z</time>
  <course>182.55</course>
  <speed>0.7523961722390672</speed>
  <fix>3d</fix>
</trkpt>
<trkpt lat="33.81015" lon="-118.3938828">
  <ele>-29.21</ele>
  <time>2026-09-01T01:13:30Z</time>
  <course>183.1</course>
  <speed>0.77</speed>
  <fix>3d</fix>
</trkpt>
<trkpt lat="33.8101479" lon="-118.393883">
  <ele>-29.79</ele>
  <time>2026-09-01T01:13:30Z</time>
  <course>182.54</course>
  <speed>0.7523961722390672</speed>
  <fix>3d</fix>
</trkpt>
<trkpt lat="33.8101486" lon="-118.3938829">
  <ele>-29.15</ele>
  <time>2026-09-01T01:13:30Z</time>
  <course>183.08</course>
  <speed>0.77</speed>
  <fix>3d</fix>
</trkpt>
<trkpt lat="33.8101472" lon="-118.3938831">
  <ele>-29.759</ele>
  <time>2026-09-01T01:13:30Z</time>
  <course>182.54</course>
  <speed>0.7523961722390672</speed>
  <fix>3d</fix>
</trkpt>
<trkpt lat="33.8101486" lon="-118.3938829">
  <ele>-29.15</ele>
  <time>2026-09-01T01:13:30Z</time>
  <course>183.08</course>
  <speed>0.77</speed>
  <fix>3d</fix>
</trkpt>
<trkpt lat="33.8101465" lon="-118.3938831">
  <ele>-29.727</ele>
  <time>2026-09-01T01:13:30Z</time>
  <course>182.53</course>
  <speed>0.7523961722390672</speed>
  <fix>3d</fix>
</trkpt>
<trkpt lat="33.8101472" lon="-118.393883">
  <ele>-29.09</ele>
  <time>2026-09-01T01:13:30Z</time>
  <course>183.06</course>
  <speed>0.77</speed>
  <fix>3d</fix>
</trkpt>
<trkpt lat="33.8101458" lon="-118.3938832">
  <ele>-29.697</ele>
  <time>2026-09-01T01:13:30Z</time>
  <course>182.52</course>
  <speed>0.7523961722390672</speed>
  <fix>3d</fix>
</trkpt>
<trkpt lat="33.8101472" lon="-118.393883">
  <ele>-29.09</ele>
  <time>2026-09-01T01:13:30Z</time>
  <course>183.06</course>
  <speed>0.77</speed>
  <fix>3d</fix>
</trkpt>
<trkpt lat="33.8101451" lon="-118.3938832">
  <ele>-29.667</ele>
  <time>2026-09-01T01:13:30Z</time>
  <course>182.52</course>
  <speed>0.7523961722390672</speed>
  <fix>3d</fix>
</trkpt>
<trkpt lat="33.8101458" lon="-118.393883">
  <ele>-29.02</ele>
  <time>2026-09-01T01:13:30Z</time>
  <course>183.04</course>
  <speed>0.77</speed>
  <fix>3d</fix>
</trkpt>
<trkpt lat="33.8101444" lon="-118.3938833">
  <ele>-29.638</ele>
  <time>2026-09-01T01:13:30Z</time>
  <course>182.52</course>
  <speed>0.7523961722390672</speed>
  <fix>3d</fix>
</trkpt>
<trkpt lat="33.8101458" lon="-118.393883">
  <ele>-29.02</ele>
  <time>2026-09-01T01:13:30Z</time>
  <course>183.04</course>
  <speed>0.77</speed>
  <fix>3d</fix>
</trkpt>
<trkpt lat="33.8101437" lon="-118.3938833">
  <ele>-29.611</ele>
  <time>2026-09-01T01:13:30Z</time>
  <course>182.51</course>
  <speed>0.7523961722390672</speed>
  <fix>3d</fix>
</trkpt>
<trkpt lat="33.8101444" lon="-118.3938831">
  <ele>-28.97</ele>
  <time>2026-09-01T01:13:30Z</time>
  <course>183.02</course>
  <speed>0.77</speed>
  <fix>3d</fix>
</trkpt>
<trkpt lat="33.810143" lon="-118.3938834">
  <ele>-29.587</ele>
  <time>2026-09-01T01:13:30Z</time>
  <course>182.5</course>
  <speed>0.7516648189186453</speed>
  <fix>3d</fix>
</trkpt>
<trkpt lat="33.8101444" lon="-118.3938831">
  <ele>-28.97</ele>
  <time>2026-09-01T01:13:30Z</time>
  <course>183.02</course>
  <speed>0.77</speed>
  <fix>3d</fix>
</trkpt>
<trkpt lat="33.8101423" lon="-118.3938834">
  <ele>-29.565</ele>
  <time>2026-09-01T01:13:30Z</time>
  <course>182.5</course>
  <speed>0.7416872656315463</speed>
  <fix>3d</fix>
</trkpt>
<trkpt lat="33.810143" lon="-118.3938832">
  <ele>-28.91</ele>
  <time>2026-09-01T01:13:30Z</time>
  <course>183.01</course>
  <speed>0.77</speed>
  <fix>3d</fix>
</trkpt>
<trkpt lat="33.8101416" lon="-118.3938834">
  <ele>-29.544</ele>
  <time>2026-09-01T01:13:30Z</time>
  <course>182.49</course>
  <speed>0.7416872656315463</speed>
  <fix>3d</fix>
</trkpt>
<trkpt lat="33.810143" lon="-118.3938832">
  <ele>-28.91</ele>
  <time>2026-09-01T01:13:30Z</time>
  <course>183.01</course>
  <speed>0.77</speed>
  <fix>3d</fix>
</trkpt>
<trkpt lat="33.8101409" lon="-118.3938835">
  <ele>-29.522</ele>
  <time>2026-09-01T01:13:30Z</time>
  <course>182.49</course>
  <speed>0.7416872656315463</speed>
  <fix>3d</fix>
</trkpt>
<trkpt lat="33.8101417" lon="-118.3938833">
  <ele>-28.86</ele>
  <time>2026-09-01T01:13:30Z</time>
  <course>182.99</course>
  <speed>0.77</speed>
  <fix>3d</fix>
</trkpt>
<trkpt lat="33.8101403" lon="-118.3938835">
  <ele>-29.498</ele>
  <time>2026-09-01T01:13:30Z</time>
  <course>182.48</course>
  <speed>0.7416872656315463</speed>
  <fix>3d</fix>
</trkpt>
<trkpt lat="33.8101417" lon="-118.3938833">
  <ele>-28.86</ele>
  <time>2026-09-01T01:13:30Z</time>
  <course>182.99</course>
  <speed>0.77</speed>
  <fix>3d</fix>
</trkpt>
<trkpt lat="33.8101396" lon="-118.3938836">
  <ele>-29.472</ele>
  <time>2026-09-01T01:13:30Z</time>
  <course>182.48</course>
  <speed>0.7416872656315463</speed>
  <fix>3d</fix>
</trkpt>
<trkpt lat="33.8101403" lon="-118.3938834">
  <ele>-28.81</ele>
  <time>2026-09-01T01:13:30Z</time>
  <course>182.97</course>
  <speed>0.77</speed>
  <fix>3d</fix>
</trkpt>
<trkpt lat="33.8101389" lon="-118.3938836">
  <ele>-29.444</ele>
  <time>2026-09-01T01:13:30Z</time>
  <course>182.47</course>
  <speed>0.7416872656315463</speed>
  <fix>3d</fix>
</trkpt>
<trkpt lat="33.8101403" lon="-118.3938834">
  <ele>-28.81</ele>
  <time>2026-09-01T01:13:30Z</time>
  <course>182.97</course>
  <speed>0.77</speed>
  <fix>3d</fix>
</trkpt>
<trkpt lat="33.8101382" lon="-118.3938837">
  <ele>-29.414</ele>
  <time>2026-09-01T01:13:30Z</time>
  <course>182.47</course>
  <speed>0.7416872656315463</speed>
  <fix>3d</fix>
</trkpt>
<trkpt lat="33.8101389" lon="-118.3938835">
  <ele>-28.76</ele>
  <time>2026-09-01T01:13:30Z</time>
  <course>182.95</course>
  <speed>0.77</speed>
  <fix>3d</fix>
</trkpt>
<trkpt lat="33.8101375" lon="-118.3938837">
  <ele>-29.384</ele>
  <time>2026-09-01T01:13:30Z</time>
  <course>182.46</course>
  <speed>0.7416872656315463</speed>
  <fix>3d</fix>
</trkpt>
<trkpt lat="33.8101389" lon="-118.3938835">
  <ele>-28.76</ele>
  <time>2026-09-01T01:13:30Z</time>
  <course>182.95</course>
  <speed>0.77</speed>
  <fix>3d</fix>
</trkpt>
<trkpt lat="33.8101368" lon="-118.3938838">
  <ele>-29.352</ele>
  <time>2026-09-01T01:13:30Z</time>
  <course>182.46</course>
  <speed>0.7416872656315463</speed>
  <fix>3d</fix>
</trkpt>
<trkpt lat="33.8101374" lon="-118.3938836">
  <ele>-28.71</ele>
  <time>2026-09-01T01:13:30Z</time>
  <course>182.93</course>
  <speed>0.77</speed>
  <fix>3d</fix>
</trkpt>
<trkpt lat="33.8101361" lon="-118.3938838">
  <ele>-29.319</ele>
  <time>2026-09-01T01:13:30Z</time>
  <course>182.45</course>
  <speed>0.7416872656315463</speed>
  <fix>3d</fix>
</trkpt>
<trkpt lat="33.8101374" lon="-118.3938836">
  <ele>-28.71</ele>
  <time>2026-09-01T01:13:30Z</time>
  <course>182.93</course>
  <speed>0.77</speed>
  <fix>3d</fix>
</trkpt>
<trkpt lat="33.8101354" lon="-118.3938838">
  <ele>-29.287</ele>
  <time>2026-09-01T01:13:30Z</time>
  <course>182.45</course>
  <speed>0.7416872656315463</speed>
  <fix>3d</fix>
</trkpt>
<trkpt lat="33.810136" lon="-118.3938837">
  <ele>-28.65</ele>
  <time>2026-09-01T01:13:30Z</time>
  <course>182.91</course>
  <speed>0.77</speed>
  <fix>3d</fix>
</trkpt>
<trkpt lat="33.8101347" lon="-118.3938839">
  <ele>-29.255</ele>
  <time>2026-09-01T01:13:30Z</time>
  <course>182.44</course>
  <speed>0.7416872656315463</speed>
  <fix>3d</fix>
</trkpt>
<trkpt lat="33.810136" lon="-118.3938837">
  <ele>-28.65</ele>
  <time>2026-09-01T01:13:30Z</time>
  <course>182.91</course>
  <speed>0.77</speed>
  <fix>3d</fix>
</trkpt>
<trkpt lat="33.810134" lon="-118.3938839">
  <ele>-29.223</ele>
  <time>2026-09-01T01:13:30Z</time>
  <course>182.44</course>
  <speed>0.7416872656315463</speed>
  <fix>3d</fix>
</trkpt>
<trkpt lat="33.8101347" lon="-118.3938837">
  <ele>-28.59</ele>
  <time>2026-09-01T01:13:30Z</time>
  <course>182.89</course>
  <speed>0.77</speed>
  <fix>3d</fix>
</trkpt>
<trkpt lat="33.8101333" lon="-118.393884">
  <ele>-29.189</ele>
  <time>2026-09-01T01:13:30Z</time>
  <course>182.43</course>
  <speed>0.7416872656315463</speed>
  <fix>3d</fix>
</trkpt>
<trkpt lat="33.8101347" lon="-118.3938837">
  <ele>-28.59</ele>
  <time>2026-09-01T01:13:30Z</time>
  <course>182.89</course>
  <speed>0.77</speed>
  <fix>3d</fix>
</trkpt>
<trkpt lat="33.8101326" lon="-118.393884">
  <ele>-29.153</ele>
  <time>2026-09-01T01:13:30Z</time>
  <course>182.43</course>
  <speed>0.7416872656315463</speed>
  <fix>3d</fix>
</trkpt>
<trkpt lat="33.8101332" lon="-118.3938838">
  <ele>-28.52</ele>
  <time>2026-09-01T01:13:30Z</time>
  <course>182.87</course>
  <speed>0.77</speed>
  <fix>3d</fix>
</trkpt>
<trkpt lat="33.8101319" lon="-118.3938841">
  <ele>-29.118</ele>
  <time>2026-09-01T01:13:30Z</time>
  <course>182.42</course>
  <speed>0.7416872656315463</speed>
  <fix>3d</fix>
</trkpt>
<trkpt lat="33.8101332" lon="-118.3938838">
  <ele>-28.52</ele>
  <time>2026-09-01T01:13:30Z</time>
  <course>182.87</course>
  <speed>0.77</speed>
  <fix>3d</fix>
</trkpt>
<trkpt lat="33.8101312" lon="-118.3938841">
  <ele>-29.084</ele>
  <time>2026-09-01T01:13:30Z</time>
  <course>182.42</course>
  <speed>0.7416872656315463</speed>
  <fix>3d</fix>
</trkpt>
<trkpt lat="33.8101319" lon="-118.3938839">
  <ele>-28.45</ele>
  <time>2026-09-01T01:13:30Z</time>
  <course>182.85</course>
  <speed>0.77</speed>
  <fix>3d</fix>
</trkpt>
<trkpt lat="33.8101305" lon="-118.3938841">
  <ele>-29.052</ele>
  <time>2026-09-01T01:13:30Z</time>
  <course>182.41</course>
  <speed>0.7416872656315463</speed>
  <fix>3d</fix>
</trkpt>
<trkpt lat="33.8101319" lon="-118.3938839">
  <ele>-28.45</ele>
  <time>2026-09-01T01:13:30Z</time>
  <course>182.85</course>
  <speed>0.77</speed>
  <fix>3d</fix>
</trkpt>
<trkpt lat="33.8101298" lon="-118.3938842">
  <ele>-29.022</ele>
  <time>2026-09-01T01:13:30Z</time>
  <course>182.41</course>
  <speed>0.7416872656315463</speed>
  <fix>3d</fix>
</trkpt>
<trkpt lat="33.8101305" lon="-118.393884">
  <ele>-28.39</ele>
  <time>2026-09-01T01:13:30Z</time>
  <course>182.84</course>
  <speed>0.77</speed>
  <fix>3d</fix>
</trkpt>
<trkpt lat="33.8101291" lon="-118.3938842">
  <ele>-28.994</ele>
  <time>2026-09-01T01:13:30Z</time>
  <course>182.4</course>
  <speed>0.7416872656315463</speed>
  <fix>3d</fix>
</trkpt>
<trkpt lat="33.8101305" lon="-118.393884">
  <ele>-28.39</ele>
  <time>2026-09-01T01:13:30Z</time>
  <course>182.84</course>
  <speed>0.77</speed>
  <fix>3d</fix>
</trkpt>
<trkpt lat="33.8101284" lon="-118.3938843">
  <ele>-28.965</ele>
  <time>2026-09-01T01:13:30Z</time>
  <course>182.4</course>
  <speed>0.7416872656315463</speed>
  <fix>3d</fix>
</trkpt>
<trkpt lat="33.8101291" lon="-118.3938841">
  <ele>-28.33</ele>
  <time>2026-09-01T01:13:30Z</time>
  <course>182.83</course>
  <speed>0.77</speed>
  <fix>3d</fix>
</trkpt>
<trkpt lat="33.8101278" lon="-118.3938843">
  <ele>-28.936</ele>
  <time>2026-09-01T01:13:30Z</time>
  <course>182.4</course>
  <speed>0.7416872656315463</speed>
  <fix>3d</fix>
</trkpt>
<trkpt lat="33.8101291" lon="-118.3938841">
  <ele>-28.33</ele>
  <time>2026-09-01T01:13:30Z</time>
  <course>182.83</course>
  <speed>0.77</speed>
  <fix>3d</fix>
</trkpt>
<trkpt lat="33.8101271" lon="-118.3938843">
  <ele>-28.907</ele>
  <time>2026-09-01T01:13:30Z</time>
  <course>182.39</course>
  <speed>0.7416872656315463</speed>
  <fix>3d</fix>
</trkpt>
<trkpt lat="33.8101277" lon="-118.3938841">
  <ele>-28.27</ele>
  <time>2026-09-01T01:13:30Z</time>
  <course>182.81</course>
  <speed>0.77</speed>
  <fix>3d</fix>
</trkpt>
<trkpt lat="33.8101264" lon="-118.3938844">
  <ele>-28.878</ele>
  <time>2026-09-01T01:13:30Z</time>
  <course>182.39</course>
  <speed>0.7416872656315463</speed>
  <fix>3d</fix>
</trkpt>
<trkpt lat="33.8101277" lon="-118.3938841">
  <ele>-28.27</ele>
  <time>2026-09-01T01:13:30Z</time>
  <course>182.81</course>
  <speed>0.77</speed>
  <fix>3d</fix>
</trkpt>
<trkpt lat="33.8101257" lon="-118.3938844">
  <ele>-28.849</ele>
  <time>2026-09-01T01:13:30Z</time>
  <course>182.38</course>
  <speed>0.7416872656315463</speed>
  <fix>3d</fix>
</trkpt>
<trkpt lat="33.8101264" lon="-118.3938842">
  <ele>-28.22</ele>
  <time>2026-09-01T01:13:30Z</time>
  <course>182.8</course>
  <speed>0.77</speed>
  <fix>3d</fix>
</trkpt>
<trkpt lat="33.810125" lon="-118.3938845">
  <ele>-28.819</ele>
  <time>2026-09-01T01:13:30Z</time>
  <course>182.38</course>
  <speed>0.7416872656315463</speed>
  <fix>3d</fix>
</trkpt>
<trkpt lat="33.8101264" lon="-118.3938842">
  <ele>-28.22</ele>
  <time>2026-09-01T01:13:30Z</time>
  <course>182.8</course>
  <speed>0.77</speed>
  <fix>3d</fix>
</trkpt>
<trkpt lat="33.8101243" lon="-118.3938845">
  <ele>-28.788</ele>
  <time>2026-09-01T01:13:30Z</time>
  <course>182.37</course>
  <speed>0.7416872656315463</speed>
  <fix>3d</fix>
</trkpt>
<trkpt lat="33.810125" lon="-118.3938843">
  <ele>-28.17</ele>
  <time>2026-09-01T01:13:30Z</time>
  <course>182.78</course>
  <speed>0.77</speed>
  <fix>3d</fix>
</trkpt>
<trkpt lat="33.8101236" lon="-118.3938845">
  <ele>-28.755</ele>
  <time>2026-09-01T01:13:30Z</time>
  <course>182.37</course>
  <speed>0.7416872656315463</speed>
  <fix>3d</fix>
</trkpt>
<trkpt lat="33.810125" lon="-118.3938843">
  <ele>-28.17</ele>
  <time>2026-09-01T01:13:30Z</time>
  <course>182.78</course>
  <speed>0.77</speed>
  <fix>3d</fix>
</trkpt>
<trkpt lat="33.8101229" lon="-118.3938846">
  <ele>-28.722</ele>
  <time>2026-09-01T01:13:30Z</time>
  <course>182.36</course>
  <speed>0.7416872656315463</speed>
  <fix>3d</fix>
</trkpt>
<trkpt lat="33.8101236" lon="-118.3938844">
  <ele>-28.11</ele>
  <time>2026-09-01T01:13:30Z</time>
  <course>182.76</course>
  <speed>0.77</speed>
  <fix>3d</fix>
</trkpt>
<trkpt lat="33.8101222" lon="-118.3938846">
  <ele>-28.688</ele>
  <time>2026-09-01T01:13:30Z</time>
  <course>182.36</course>
  <speed>0.7416872656315463</speed>
  <fix>3d</fix>
</trkpt>
<trkpt lat="33.8101236" lon="-118.3938844">
  <ele>-28.11</ele>
  <time>2026-09-01T01:13:30Z</time>
  <course>182.76</course>
  <speed>0.77</speed>
  <fix>3d</fix>
</trkpt>
<trkpt lat="33.8101216" lon="-118.3938846">
  <ele>-28.654</ele>
  <time>2026-09-01T01:13:30Z</time>
  <course>182.36</course>
  <speed>0.7416872656315463</speed>
  <fix>3d</fix>
</trkpt>
<trkpt lat="33.8101221" lon="-118.3938845">
  <ele>-28.05</ele>
  <time>2026-09-01T01:13:30Z</time>
  <course>182.74</course>
  <speed>0.77</speed>
  <fix>3d</fix>
</trkpt>
<trkpt lat="33.8101209" lon="-118.3938847">
  <ele>-28.62</ele>
  <time>2026-09-01T01:13:30Z</time>
  <course>182.35</course>
  <speed>0.7416872656315463</speed>
  <fix>3d</fix>
</trkpt>
<trkpt lat="33.8101221" lon="-118.3938845">
  <ele>-28.05</ele>
  <time>2026-09-01T01:13:30Z</time>
  <course>182.74</course>
  <speed>0.77</speed>
  <fix>3d</fix>
</trkpt>
<trkpt lat="33.8101202" lon="-118.3938847">
  <ele>-28.587</ele>
  <time>2026-09-01T01:13:30Z</time>
  <course>182.35</course>
  <speed>0.7416872656315463</speed>
  <fix>3d</fix>
</trkpt>
<trkpt lat="33.8101208" lon="-118.3938846">
  <ele>-27.98</ele>
  <time>2026-09-01T01:13:30Z</time>
  <course>182.73</course>
  <speed>0.77</speed>
  <fix>3d</fix>
</trkpt>
<trkpt lat="33.8101195" lon="-118.3938848">
  <ele>-28.555</ele>
  <time>2026-09-01T01:13:30Z</time>
  <course>182.34</course>
  <speed>0.7416872656315463</speed>
  <fix>3d</fix>
</trkpt>
<trkpt lat="33.8101208" lon="-118.3938846">
  <ele>-27.98</ele>
  <time>2026-09-01T01:13:30Z</time>
  <course>182.73</course>
  <speed>0.77</speed>
  <fix>3d</fix>
</trkpt>
<trkpt lat="33.8101188" lon="-118.3938848">
  <ele>-28.523</ele>
  <time>2026-09-01T01:13:30Z</time>
  <course>182.34</course>
  <speed>0.7416872656315463</speed>
  <fix>3d</fix>
</trkpt>
<trkpt lat="33.8101194" lon="-118.3938846">
  <ele>-27.91</ele>
  <time>2026-09-01T01:13:30Z</time>
  <course>182.71</course>
  <speed>0.77</speed>
  <fix>3d</fix>
</trkpt>
<trkpt lat="33.8101181" lon="-118.3938848">
  <ele>-28.493</ele>
  <time>2026-09-01T01:13:30Z</time>
  <course>182.34</course>
  <speed>0.7416872656315463</speed>
  <fix>3d</fix>
</trkpt>
<trkpt lat="33.8101194" lon="-118.3938846">
  <ele>-27.91</ele>
  <time>2026-09-01T01:13:30Z</time>
  <course>182.71</course>
  <speed>0.77</speed>
  <fix>3d</fix>
</trkpt>
<trkpt lat="33.8101174" lon="-118.3938849">
  <ele>-28.461</ele>
  <time>2026-09-01T01:13:30Z</time>
  <course>182.33</course>
  <speed>0.7416872656315463</speed>
  <fix>3d</fix>
</trkpt>
<trkpt lat="33.810118" lon="-118.3938847">
  <ele>-27.84</ele>
  <time>2026-09-01T01:13:30Z</time>
  <course>182.7</course>
  <speed>0.77</speed>
  <fix>3d</fix>
</trkpt>
<trkpt lat="33.8101167" lon="-118.3938849">
  <ele>-28.427</ele>
  <time>2026-09-01T01:13:30Z</time>
  <course>182.33</course>
  <speed>0.7416872656315463</speed>
  <fix>3d</fix>
</trkpt>
<trkpt lat="33.810118" lon="-118.3938847">
  <ele>-27.84</ele>
  <time>2026-09-01T01:13:30Z</time>
  <course>182.7</course>
  <speed>0.77</speed>
  <fix>3d</fix>
</trkpt>
<trkpt lat="33.810116" lon="-118.393885">
  <ele>-28.394</ele>
  <time>2026-09-01T01:13:30Z</time>
  <course>182.33</course>
  <speed>0.7416872656315463</speed>
  <fix>3d</fix>
</trkpt>
<trkpt lat="33.8101166" lon="-118.3938848">
  <ele>-27.78</ele>
  <time>2026-09-01T01:13:30Z</time>
  <course>182.68</course>
  <speed>0.77</speed>
  <fix>3d</fix>
</trkpt>
<trkpt lat="33.8101153" lon="-118.393885">
  <ele>-28.361</ele>
  <time>2026-09-01T01:13:30Z</time>
  <course>182.32</course>
  <speed>0.7416872656315463</speed>
  <fix>3d</fix>
</trkpt>
<trkpt lat="33.8101166" lon="-118.3938848">
  <ele>-27.78</ele>
  <time>2026-09-01T01:13:30Z</time>
  <course>182.68</course>
  <speed>0.77</speed>
  <fix>3d</fix>
</trkpt>
<trkpt lat="33.8101146" lon="-118.393885">
  <ele>-28.329</ele>
  <time>2026-09-01T01:13:30Z</time>
  <course>182.32</course>
  <speed>0.7416872656315463</speed>
  <fix>3d</fix>
</trkpt>
<trkpt lat="33.8101152" lon="-118.3938849">
  <ele>-27.72</ele>
  <time>2026-09-01T01:13:30Z</time>
  <course>182.67</course>
  <speed>0.77</speed>
  <fix>3d</fix>
</trkpt>
<trkpt lat="33.8101139" lon="-118.3938851">
  <ele>-28.298</ele>
  <time>2026-09-01T01:13:30Z</time>
  <course>182.32</course>
  <speed>0.7416872656315463</speed>
  <fix>3d</fix>
</trkpt>
<trkpt lat="33.8101152" lon="-118.3938849">
  <ele>-27.72</ele>
  <time>2026-09-01T01:13:30Z</time>
  <course>182.67</course>
  <speed>0.77</speed>
  <fix>3d</fix>
</trkpt>
<trkpt lat="33.8101132" lon="-118.3938851">
  <ele>-28.267</ele>
  <time>2026-09-01T01:13:30Z</time>
  <course>182.31</course>
  <speed>0.7416872656315463</speed>
  <fix>3d</fix>
</trkpt>
<trkpt lat="33.8101139" lon="-118.393885">
  <ele>-27.66</ele>
  <time>2026-09-01T01:13:30Z</time>
  <course>182.65</course>
  <speed>0.77</speed>
  <fix>3d</fix>
</trkpt>
<trkpt lat="33.8101125" lon="-118.3938852">
  <ele>-28.236</ele>
  <time>2026-09-01T01:13:30Z</time>
  <course>182.31</course>
  <speed>0.7416872656315463</speed>
  <fix>3d</fix>
</trkpt>
<trkpt lat="33.8101139" lon="-118.393885">
  <ele>-27.66</ele>
  <time>2026-09-01T01:13:30Z</time>
  <course>182.65</course>
  <speed>0.77</speed>
  <fix>3d</fix>
</trkpt>
<trkpt lat="33.8101118" lon="-118.3938852">
  <ele>-28.204</ele>
  <time>2026-09-01T01:13:30Z</time>
  <course>182.3</course>
  <speed>0.7416872656315463</speed>
  <fix>3d</fix>
</trkpt>
<trkpt lat="33.8101125" lon="-118.393885">
  <ele>-27.59</ele>
  <time>2026-09-01T01:13:30Z</time>
  <course>182.64</course>
  <speed>0.77</speed>
  <fix>3d</fix>
</trkpt>
<trkpt lat="33.8101111" lon="-118.3938852">
  <ele>-28.172</ele>
  <time>2026-09-01T01:13:30Z</time>
  <course>182.3</course>
  <speed>0.7416872656315463</speed>
  <fix>3d</fix>
</trkpt>
<trkpt lat="33.8101125" lon="-118.393885">
  <ele>-27.59</ele>
  <time>2026-09-01T01:13:30Z</time>
  <course>182.64</course>
  <speed>0.77</speed>
  <fix>3d</fix>
</trkpt>
<trkpt lat="33.8101105" lon="-118.3938853">
  <ele>-28.142</ele>
  <time>2026-09-01T01:13:30Z</time>
  <course>182.3</course>
  <speed>0.7416872656315463</speed>
  <fix>3d</fix>
</trkpt>
<trkpt lat="33.8101111" lon="-118.3938851">
  <ele>-27.54</ele>
  <time>2026-09-01T01:13:30Z</time>
  <course>182.63</course>
  <speed>0.77</speed>
  <fix>3d</fix>
</trkpt>
<trkpt lat="33.8101098" lon="-118.3938853">
  <ele>-28.115</ele>
  <time>2026-09-01T01:13:30Z</time>
  <course>182.29</course>
  <speed>0.7416872656315463</speed>
  <fix>3d</fix>
</trkpt>
<trkpt lat="33.8101111" lon="-118.3938851">
  <ele>-27.54</ele>
  <time>2026-09-01T01:13:30Z</time>
  <course>182.63</course>
  <speed>0.77</speed>
  <fix>3d</fix>
</trkpt>
<trkpt lat="33.8101091" lon="-118.3938854">
  <ele>-28.09</ele>
  <time>2026-09-01T01:13:30Z</time>
  <course>182.29</course>
  <speed>0.7416872656315463</speed>
  <fix>3d</fix>
</trkpt>
<trkpt lat="33.8101097" lon="-118.3938852">
  <ele>-27.48</ele>
  <time>2026-09-01T01:13:30Z</time>
  <course>182.62</course>
  <speed>0.77</speed>
  <fix>3d</fix>
</trkpt>
<trkpt lat="33.8101084" lon="-118.3938854">
  <ele>-28.066</ele>
  <time>2026-09-01T01:13:30Z</time>
  <course>182.29</course>
  <speed>0.7416872656315463</speed>
  <fix>3d</fix>
</trkpt>
<trkpt lat="33.8101097" lon="-118.3938852">
  <ele>-27.48</ele>
  <time>2026-09-01T01:13:30Z</time>
  <course>182.62</course>
  <speed>0.77</speed>
  <fix>3d</fix>
</trkpt>
<trkpt lat="33.8101077" lon="-118.3938854">
  <ele>-28.041</ele>
  <time>2026-09-01T01:13:30Z</time>
  <course>182.29</course>
  <speed>0.7416872656315463</speed>
  <fix>3d</fix>
</trkpt>
<trkpt lat="33.8101082" lon="-118.3938853">
  <ele>-27.43</ele>
  <time>2026-09-01T01:13:30Z</time>
  <course>182.61</course>
  <speed>0.77</speed>
  <fix>3d</fix>
</trkpt>
<trkpt lat="33.810107" lon="-118.3938855">
  <ele>-28.015</ele>
  <time>2026-09-01T01:13:30Z</time>
  <course>182.28</course>
  <speed>0.7416872656315463</speed>
  <fix>3d</fix>
</trkpt>
<trkpt lat="33.8101082" lon="-118.3938853">
  <ele>-27.43</ele>
  <time>2026-09-01T01:13:30Z</time>
  <course>182.61</course>
  <speed>0.77</speed>
  <fix>3d</fix>
</trkpt>
<trkpt lat="33.8101063" lon="-118.3938855">
  <ele>-27.987</ele>
  <time>2026-09-01T01:13:30Z</time>
  <course>182.28</course>
  <speed>0.7416872656315463</speed>
  <fix>3d</fix>
</trkpt>
<trkpt lat="33.8101068" lon="-118.3938853">
  <ele>-27.38</ele>
  <time>2026-09-01T01:13:30Z</time>
  <course>182.59</course>
  <speed>0.77</speed>
  <fix>3d</fix>
</trkpt>
<trkpt lat="33.8101056" lon="-118.3938855">
  <ele>-27.958</ele>
  <time>2026-09-01T01:13:30Z</time>
  <course>182.27</course>
  <speed>0.7416872656315463</speed>
  <fix>3d</fix>
</trkpt>
<trkpt lat="33.8101068" lon="-118.3938853">
  <ele>-27.38</ele>
  <time>2026-09-01T01:13:30Z</time>
  <course>182.59</course>
  <speed>0.77</speed>
  <fix>3d</fix>
</trkpt>
<trkpt lat="33.8101049" lon="-118.3938856">
  <ele>-27.928</ele>
  <time>2026-09-01T01:13:30Z</time>
  <course>182.27</course>
  <speed>0.7416872656315463</speed>
  <fix>3d</fix>
</trkpt>
<trkpt lat="33.8101055" lon="-118.3938854">
  <ele>-27.33</ele>
  <time>2026-09-01T01:13:30Z</time>
  <course>182.57</course>
  <speed>0.77</speed>
  <fix>3d</fix>
</trkpt>
<trkpt lat="33.8101042" lon="-118.3938856">
  <ele>-27.897</ele>
  <time>2026-09-01T01:13:30Z</time>
  <course>182.27</course>
  <speed>0.7416872656315463</speed>
  <fix>3d</fix>
</trkpt>
<trkpt lat="33.8101055" lon="-118.3938854">
  <ele>-27.33</ele>
  <time>2026-09-01T01:13:30Z</time>
  <course>182.57</course>
  <speed>0.77</speed>
  <fix>3d</fix>
</trkpt>
<trkpt lat="33.8101035" lon="-118.3938857">
  <ele>-27.867</ele>
  <time>2026-09-01T01:13:30Z</time>
  <course>182.27</course>
  <speed>0.7416872656315463</speed>
  <fix>3d</fix>
</trkpt>
<trkpt lat="33.810104" lon="-118.3938855">
  <ele>-27.27</ele>
  <time>2026-09-01T01:13:30Z</time>
  <course>182.56</course>
  <speed>0.77</speed>
  <fix>3d</fix>
</trkpt>
<trkpt lat="33.8101028" lon="-118.3938857">
  <ele>-27.835</ele>
  <time>2026-09-01T01:13:30Z</time>
  <course>182.26</course>
  <speed>0.7416872656315463</speed>
  <fix>3d</fix>
</trkpt>
<trkpt lat="33.810104" lon="-118.3938855">
  <ele>-27.27</ele>
  <time>2026-09-01T01:13:30Z</time>
  <course>182.56</course>
  <speed>0.77</speed>
  <fix>3d</fix>
</trkpt>
<trkpt lat="33.8101021" lon="-118.3938857">
  <ele>-27.806</ele>
  <time>2026-09-01T01:13:30Z</time>
  <course>182.26</course>
  <speed>0.7416872656315463</speed>
  <fix>3d</fix>
</trkpt>
<trkpt lat="33.8101027" lon="-118.3938856">
  <ele>-27.21</ele>
  <time>2026-09-01T01:13:30Z</time>
  <course>182.55</course>
  <speed>0.77</speed>
  <fix>3d</fix>
</trkpt>
<trkpt lat="33.8101014" lon="-118.3938858">
  <ele>-27.777</ele>
  <time>2026-09-01T01:13:30Z</time>
  <course>182.26</course>
  <speed>0.7516648189186453</speed>
  <fix>3d</fix>
</trkpt>
<trkpt lat="33.8101027" lon="-118.3938856">
  <ele>-27.21</ele>
  <time>2026-09-01T01:13:30Z</time>
  <course>182.55</course>
  <speed>0.77</speed>
  <fix>3d</fix>
</trkpt>
<trkpt lat="33.8101007" lon="-118.3938858">
  <ele>-27.748</ele>
  <time>2026-09-01T01:13:30Z</time>
  <course>182.25</course>
  <speed>0.7516648189186453</speed>
  <fix>3d</fix>
</trkpt>
<trkpt lat="33.8101013" lon="-118.3938856">
  <ele>-27.15</ele>
  <time>2026-09-01T01:13:30Z</time>
  <course>182.54</course>
  <speed>0.77</speed>
  <fix>3d</fix>
</trkpt>
<trkpt lat="33.8101" lon="-118.3938858">
  <ele>-27.719</ele>
  <time>2026-09-01T01:13:30Z</time>
  <course>182.25</course>
  <speed>0.7516648189186453</speed>
  <fix>3d</fix>
</trkpt>
<trkpt lat="33.8101013" lon="-118.3938856">
  <ele>-27.15</ele>
  <time>2026-09-01T01:13:30Z</time>
  <course>182.54</course>
  <speed>0.77</speed>
  <fix>3d</fix>
</trkpt>
<trkpt lat="33.8100993" lon="-118.3938859">
  <ele>-27.689</ele>
  <time>2026-09-01T01:13:30Z</time>
  <course>182.25</course>
  <speed>0.7516648189186453</speed>
  <fix>3d</fix>
</trkpt>
<trkpt lat="33.8101" lon="-118.3938857">
  <ele>-27.09</ele>
  <time>2026-09-01T01:13:30Z</time>
  <course>182.52</course>
  <speed>0.77</speed>
  <fix>3d</fix>
</trkpt>
<trkpt lat="33.8100986" lon="-118.3938859">
  <ele>-27.656</ele>
  <time>2026-09-01T01:13:30Z</time>
  <course>182.25</course>
  <speed>0.7516648189186453</speed>
  <fix>3d</fix>
</trkpt>
<trkpt lat="33.8101" lon="-118.3938857">
  <ele>-27.09</ele>
  <time>2026-09-01T01:13:30Z</time>
  <course>182.52</course>
  <speed>0.77</speed>
  <fix>3d</fix>
</trkpt>
<trkpt lat="33.8100979" lon="-118.3938859">
  <ele>-27.622</ele>
  <time>2026-09-01T01:13:30Z</time>
  <course>182.24</course>
  <speed>0.7516648189186453</speed>
  <fix>3d</fix>
</trkpt>
<trkpt lat="33.8100985" lon="-118.3938858">
  <ele>-27.03</ele>
  <time>2026-09-01T01:13:30Z</time>
  <course>182.51</course>
  <speed>0.77</speed>
  <fix>3d</fix>
</trkpt>
<trkpt lat="33.8100972" lon="-118.393886">
  <ele>-27.586</ele>
  <time>2026-09-01T01:13:30Z</time>
  <course>182.24</course>
  <speed>0.7516648189186453</speed>
  <fix>3d</fix>
</trkpt>
<trkpt lat="33.8100985" lon="-118.3938858">
  <ele>-27.03</ele>
  <time>2026-09-01T01:13:30Z</time>
  <course>182.51</course>
  <speed>0.77</speed>
  <fix>3d</fix>
</trkpt>
<trkpt lat="33.8100965" lon="-118.393886">
  <ele>-27.549</ele>
  <time>2026-09-01T01:13:30Z</time>
  <course>182.24</course>
  <speed>0.7516648189186453</speed>
  <fix>3d</fix>
</trkpt>
<trkpt lat="33.8100972" lon="-118.3938859">
  <ele>-26.96</ele>
  <time>2026-09-01T01:13:30Z</time>
  <course>182.49</course>
  <speed>0.77</speed>
  <fix>3d</fix>
</trkpt>
<trkpt lat="33.8100958" lon="-118.3938861">
  <ele>-27.512</ele>
  <time>2026-09-01T01:13:30Z</time>
  <course>182.23</course>
  <speed>0.7516648189186453</speed>
  <fix>3d</fix>
</trkpt>
<trkpt lat="33.8100972" lon="-118.3938859">
  <ele>-26.96</ele>
  <time>2026-09-01T01:13:30Z</time>
  <course>182.49</course>
  <speed>0.77</speed>
  <fix>3d</fix>
</trkpt>
<trkpt lat="33.8100951" lon="-118.3938861">
  <ele>-27.475</ele>
  <time>2026-09-01T01:13:30Z</time>
  <course>182.23</course>
  <speed>0.7516648189186453</speed>
  <fix>3d</fix>
</trkpt>
<trkpt lat="33.8100958" lon="-118.3938859">
  <ele>-26.89</ele>
  <time>2026-09-01T01:13:30Z</time>
  <course>182.48</course>
  <speed>0.77</speed>
  <fix>3d</fix>
</trkpt>
<trkpt lat="33.8100944" lon="-118.3938861">
  <ele>-27.437</ele>
  <time>2026-09-01T01:13:30Z</time>
  <course>182.23</course>
  <speed>0.7516648189186453</speed>
  <fix>3d</fix>
</trkpt>
<trkpt lat="33.8100958" lon="-118.3938859">
  <ele>-26.89</ele>
  <time>2026-09-01T01:13:30Z</time>
  <course>182.48</course>
  <speed>0.77</speed>
  <fix>3d</fix>
</trkpt>
<trkpt lat="33.8100937" lon="-118.3938862">
  <ele>-27.4</ele>
  <time>2026-09-01T01:13:30Z</time>
  <course>182.23</course>
  <speed>0.7516648189186453</speed>
  <fix>3d</fix>
</trkpt>
<trkpt lat="33.8100943" lon="-118.393886">
  <ele>-26.81</ele>
  <time>2026-09-01T01:13:30Z</time>
  <course>182.47</course>
  <speed>0.77</speed>
  <fix>3d</fix>
</trkpt>
<trkpt lat="33.810093" lon="-118.3938862">
  <ele>-27.363</ele>
  <time>2026-09-01T01:13:30Z</time>
  <course>182.22</course>
  <speed>0.7516648189186453</speed>
  <fix>3d</fix>
</trkpt>
<trkpt lat="33.8100943" lon="-118.393886">
  <ele>-26.81</ele>
  <time>2026-09-01T01:13:30Z</time>
  <course>182.47</course>
  <speed>0.77</speed>
  <fix>3d</fix>
</trkpt>
<trkpt lat="33.8100923" lon="-118.3938862">
  <ele>-27.327</ele>
  <time>2026-09-01T01:13:30Z</time>
  <course>182.22</course>
  <speed>0.7516648189186453</speed>
  <fix>3d</fix>
</trkpt>
<trkpt lat="33.8100929" lon="-118.3938861">
  <ele>-26.74</ele>
  <time>2026-09-01T01:13:30Z</time>
  <course>182.46</course>
  <speed>0.77</speed>
  <fix>3d</fix>
</trkpt>
<trkpt lat="33.8100916" lon="-118.3938863">
  <ele>-27.291</ele>
  <time>2026-09-01T01:13:30Z</time>
  <course>182.22</course>
  <speed>0.7516648189186453</speed>
  <fix>3d</fix>
</trkpt>
<trkpt lat="33.8100929" lon="-118.3938861">
  <ele>-26.74</ele>
  <time>2026-09-01T01:13:30Z</time>
  <course>182.46</course>
  <speed>0.77</speed>
  <fix>3d</fix>
</trkpt>
<trkpt lat="33.8100909" lon="-118.3938863">
  <ele>-27.254</ele>
  <time>2026-09-01T01:13:30Z</time>
  <course>182.22</course>
  <speed>0.7516648189186453</speed>
  <fix>3d</fix>
</trkpt>
<trkpt lat="33.8100916" lon="-118.3938862">
  <ele>-26.67</ele>
  <time>2026-09-01T01:13:30Z</time>
  <course>182.44</course>
  <speed>0.77</speed>
  <fix>3d</fix>
</trkpt>
<trkpt lat="33.8100902" lon="-118.3938864">
  <ele>-27.217</ele>
  <time>2026-09-01T01:13:30Z</time>
  <course>182.21</course>
  <speed>0.7516648189186453</speed>
  <fix>3d</fix>
</trkpt>
<trkpt lat="33.8100916" lon="-118.3938862">
  <ele>-26.67</ele>
  <time>2026-09-01T01:13:30Z</time>
  <course>182.44</course>
  <speed>0.77</speed>
  <fix>3d</fix>
</trkpt>
<trkpt lat="33.8100895" lon="-118.3938864">
  <ele>-27.182</ele>
  <time>2026-09-01T01:13:30Z</time>
  <course>182.21</course>
  <speed>0.7516648189186453</speed>
  <fix>3d</fix>
</trkpt>
<trkpt lat="33.8100902" lon="-118.3938862">
  <ele>-26.6</ele>
  <time>2026-09-01T01:13:30Z</time>
  <course>182.43</course>
  <speed>0.77</speed>
  <fix>3d</fix>
</trkpt>
<trkpt lat="33.8100888" lon="-118.3938864">
  <ele>-27.147</ele>
  <time>2026-09-01T01:13:30Z</time>
  <course>182.21</course>
  <speed>0.7516648189186453</speed>
  <fix>3d</fix>
</trkpt>
<trkpt lat="33.8100902" lon="-118.3938862">
  <ele>-26.6</ele>
  <time>2026-09-01T01:13:30Z</time>
  <course>182.43</course>
  <speed>0.77</speed>
  <fix>3d</fix>
</trkpt>
<trkpt lat="33.8100881" lon="-118.3938865">
  <ele>-27.117</ele>
  <time>2026-09-01T01:13:30Z</time>
  <course>182.2</course>
  <speed>0.7516648189186453</speed>
  <fix>3d</fix>
</trkpt>
<trkpt lat="33.8100888" lon="-118.3938863">
  <ele>-26.53</ele>
  <time>2026-09-01T01:13:30Z</time>
  <course>182.43</course>
  <speed>0.77</speed>
  <fix>3d</fix>
</trkpt>
<trkpt lat="33.8100874" lon="-118.3938865">
  <ele>-27.091</ele>
  <time>2026-09-01T01:13:30Z</time>
  <course>182.2</course>
  <speed>0.7516648189186453</speed>
  <fix>3d</fix>
</trkpt>
<trkpt lat="33.8100888" lon="-118.3938863">
  <ele>-26.53</ele>
  <time>2026-09-01T01:13:30Z</time>
  <course>182.43</course>
  <speed>0.77</speed>
  <fix>3d</fix>
</trkpt>
<trkpt lat="33.8100867" lon="-118.3938865">
  <ele>-27.069</ele>
  <time>2026-09-01T01:13:30Z</time>
  <course>182.2</course>
  <speed>0.7516648189186453</speed>
  <fix>3d</fix>
</trkpt>
<trkpt lat="33.8100874" lon="-118.3938864">
  <ele>-26.47</ele>
  <time>2026-09-01T01:13:30Z</time>
  <course>182.42</course>
  <speed>0.77</speed>
  <fix>3d</fix>
</trkpt>
<trkpt lat="33.8100861" lon="-118.3938866">
  <ele>-27.049</ele>
  <time>2026-09-01T01:13:30Z</time>
  <course>182.2</course>
  <speed>0.7516648189186453</speed>
  <fix>3d</fix>
</trkpt>
<trkpt lat="33.8100874" lon="-118.3938864">
  <ele>-26.47</ele>
  <time>2026-09-01T01:13:30Z</time>
  <course>182.42</course>
  <speed>0.77</speed>
  <fix>3d</fix>
</trkpt>
<trkpt lat="33.8100854" lon="-118.3938866">
  <ele>-27.031</ele>
  <time>2026-09-01T01:13:30Z</time>
  <course>182.19</course>
  <speed>0.7510659092250159</speed>
  <fix>3d</fix>
</trkpt>
<trkpt lat="33.810086" lon="-118.3938864">
  <ele>-26.43</ele>
  <time>2026-09-01T01:13:30Z</time>
  <course>182.41</course>
  <speed>0.77</speed>
  <fix>3d</fix>
</trkpt>
<trkpt lat="33.8100847" lon="-118.3938866">
  <ele>-27.013</ele>
  <time>2026-09-01T01:13:30Z</time>
  <course>182.19</course>
  <speed>0.7510659092250159</speed>
  <fix>3d</fix>
</trkpt>
<trkpt lat="33.810086" lon="-118.3938864">
  <ele>-26.43</ele>
  <time>2026-09-01T01:13:30Z</time>
  <course>182.41</course>
  <speed>0.77</speed>
  <fix>3d</fix>
</trkpt>
<trkpt lat="33.810084" lon="-118.3938867">
  <ele>-26.996</ele>
  <time>2026-09-01T01:13:30Z</time>
  <course>182.19</course>
  <speed>0.7510659092250159</speed>
  <fix>3d</fix>
</trkpt>
<trkpt lat="33.8100847" lon="-118.3938865">
  <ele>-26.39</ele>
  <time>2026-09-01T01:13:30Z</time>
  <course>182.4</course>
  <speed>0.77</speed>
  <fix>3d</fix>
</trkpt>
<trkpt lat="33.8100833" lon="-118.3938867">
  <ele>-26.979</ele>
  <time>2026-09-01T01:13:30Z</time>
  <course>182.19</course>
  <speed>0.7510659092250159</speed>
  <fix>3d</fix>
</trkpt>
<trkpt lat="33.8100847" lon="-118.3938865">
  <ele>-26.39</ele>
  <time>2026-09-01T01:13:30Z</time>
  <course>182.4</course>
  <speed>0.77</speed>
  <fix>3d</fix>
</trkpt>
<trkpt lat="33.8100826" lon="-118.3938867">
  <ele>-26.959</ele>
  <time>2026-09-01T01:13:30Z</time>
  <course>182.18</course>
  <speed>0.7510659092250159</speed>
  <fix>3d</fix>
</trkpt>
<trkpt lat="33.8100833" lon="-118.3938866">
  <ele>-26.35</ele>
  <time>2026-09-01T01:13:30Z</time>
  <course>182.39</course>
  <speed>0.77</speed>
  <fix>3d</fix>
</trkpt>
<trkpt lat="33.8100819" lon="-118.3938868">
  <ele>-26.939</ele>
  <time>2026-09-01T01:13:30Z</time>
  <course>182.18</course>
  <speed>0.7510659092250159</speed>
  <fix>3d</fix>
</trkpt>
<trkpt lat="33.8100833" lon="-118.3938866">
  <ele>-26.35</ele>
  <time>2026-09-01T01:13:30Z</time>
  <course>182.39</course>
  <speed>0.77</speed>
  <fix>3d</fix>
</trkpt>
<trkpt lat="33.8100812" lon="-118.3938868">
  <ele>-26.919</ele>
  <time>2026-09-01T01:13:30Z</time>
  <course>182.18</course>
  <speed>0.7510659092250159</speed>
  <fix>3d</fix>
</trkpt>
<trkpt lat="33.8100819" lon="-118.3938867">
  <ele>-26.32</ele>
  <time>2026-09-01T01:13:30Z</time>
  <course>182.38</course>
  <speed>0.77</speed>
  <fix>3d</fix>
</trkpt>
<trkpt lat="33.8100805" lon="-118.3938868">
  <ele>-26.896</ele>
  <time>2026-09-01T01:13:30Z</time>
  <course>182.18</course>
  <speed>0.7510659092250159</speed>
  <fix>3d</fix>
</trkpt>
<trkpt lat="33.8100819" lon="-118.3938867">
  <ele>-26.32</ele>
  <time>2026-09-01T01:13:30Z</time>
  <course>182.38</course>
  <speed>0.77</speed>
  <fix>3d</fix>
</trkpt>
<trkpt lat="33.8100798" lon="-118.3938869">
  <ele>-26.871</ele>
  <time>2026-09-01T01:13:30Z</time>
  <course>182.18</course>
  <speed>0.7510659092250159</speed>
  <fix>3d</fix>
</trkpt>
<trkpt lat="33.8100805" lon="-118.3938867">
  <ele>-26.27</ele>
  <time>2026-09-01T01:13:30Z</time>
  <course>182.37</course>
  <speed>0.77</speed>
  <fix>3d</fix>
</trkpt>
<trkpt lat="33.8100791" lon="-118.3938869">
  <ele>-26.844</ele>
  <time>2026-09-01T01:13:30Z</time>
  <course>182.18</course>
  <speed>0.7510659092250159</speed>
  <fix>3d</fix>
</trkpt>
<trkpt lat="33.8100805" lon="-118.3938867">
  <ele>-26.27</ele>
  <time>2026-09-01T01:13:30Z</time>
  <course>182.37</course>
  <speed>0.77</speed>
  <fix>3d</fix>
</trkpt>
<trkpt lat="33.8100784" lon="-118.393887">
  <ele>-26.818</ele>
  <time>2026-09-01T01:13:30Z</time>
  <course>182.17</course>
  <speed>0.7510659092250159</speed>
  <fix>3d</fix>
</trkpt>
<trkpt lat="33.810079" lon="-118.3938868">
  <ele>-26.23</ele>
  <time>2026-09-01T01:13:30Z</time>
  <course>182.35</course>
  <speed>0.77</speed>
  <fix>3d</fix>
</trkpt>
<trkpt lat="33.8100777" lon="-118.393887">
  <ele>-26.791</ele>
  <time>2026-09-01T01:13:30Z</time>
  <course>182.17</course>
  <speed>0.7510659092250159</speed>
  <fix>3d</fix>
</trkpt>
<trkpt lat="33.810079" lon="-118.3938868">
  <ele>-26.23</ele>
  <time>2026-09-01T01:13:30Z</time>
  <course>182.35</course>
  <speed>0.77</speed>
  <fix>3d</fix>
</trkpt>
<trkpt lat="33.810077" lon="-118.393887">
  <ele>-26.76</ele>
  <time>2026-09-01T01:13:30Z</time>
  <course>182.17</course>
  <speed>0.7510659092250159</speed>
  <fix>3d</fix>
</trkpt>
<trkpt lat="33.8100777" lon="-118.3938869">
  <ele>-26.17</ele>
  <time>2026-09-01T01:13:30Z</time>
  <course>182.34</course>
  <speed>0.77</speed>
  <fix>3d</fix>
</trkpt>
<trkpt lat="33.8100763" lon="-118.3938871">
  <ele>-26.726</ele>
  <time>2026-09-01T01:13:30Z</time>
  <course>182.16</course>
  <speed>0.7510659092250159</speed>
  <fix>3d</fix>
</trkpt>
<trkpt lat="33.8100777" lon="-118.3938869">
  <ele>-26.17</ele>
  <time>2026-09-01T01:13:30Z</time>
  <course>182.34</course>
  <speed>0.77</speed>
  <fix>3d</fix>
</trkpt>
<trkpt lat="33.8100756" lon="-118.3938871">
  <ele>-26.689</ele>
  <time>2026-09-01T01:13:30Z</time>
  <course>182.16</course>
  <speed>0.7510659092250159</speed>
  <fix>3d</fix>
</trkpt>
<trkpt lat="33.8100763" lon="-118.3938869">
  <ele>-26.11</ele>
  <time>2026-09-01T01:13:30Z</time>
  <course>182.32</course>
  <speed>0.77</speed>
  <fix>3d</fix>
</trkpt>
<trkpt lat="33.8100749" lon="-118.3938871">
  <ele>-26.648</ele>
  <time>2026-09-01T01:13:30Z</time>
  <course>182.16</course>
  <speed>0.7510659092250159</speed>
  <fix>3d</fix>
</trkpt>
<trkpt lat="33.8100763" lon="-118.3938869">
  <ele>-26.11</ele>
  <time>2026-09-01T01:13:30Z</time>
  <course>182.32</course>
  <speed>0.77</speed>
  <fix>3d</fix>
</trkpt>
<trkpt lat="33.8100743" lon="-118.3938872">
  <ele>-26.606</ele>
  <time>2026-09-01T01:13:30Z</time>
  <course>182.16</course>
  <speed>0.7510659092250159</speed>
  <fix>3d</fix>
</trkpt>
<trkpt lat="33.8100748" lon="-118.393887">
  <ele>-26.04</ele>
  <time>2026-09-01T01:13:30Z</time>
  <course>182.31</course>
  <speed>0.77</speed>
  <fix>3d</fix>
</trkpt>
<trkpt lat="33.8100735" lon="-118.3938872">
  <ele>-26.565</ele>
  <time>2026-09-01T01:13:30Z</time>
  <course>182.16</course>
  <speed>0.7510659092250159</speed>
  <fix>3d</fix>
</trkpt>
<trkpt lat="33.8100748" lon="-118.393887">
  <ele>-26.04</ele>
  <time>2026-09-01T01:13:30Z</time>
  <course>182.31</course>
  <speed>0.77</speed>
  <fix>3d</fix>
</trkpt>
<trkpt lat="33.8100728" lon="-118.3938872">
  <ele>-26.523</ele>
  <time>2026-09-01T01:13:30Z</time>
  <course>182.15</course>
  <speed>0.7510659092250159</speed>
  <fix>3d</fix>
</trkpt>
<trkpt lat="33.8100735" lon="-118.3938871">
  <ele>-25.96</ele>
  <time>2026-09-01T01:13:30Z</time>
  <course>182.3</course>
  <speed>0.77</speed>
  <fix>3d</fix>
</trkpt>
<trkpt lat="33.8100721" lon="-118.3938873">
  <ele>-26.48</ele>
  <time>2026-09-01T01:13:30Z</time>
  <course>182.15</course>
  <speed>0.7510659092250159</speed>
  <fix>3d</fix>
</trkpt>
<trkpt lat="33.8100735" lon="-118.3938871">
  <ele>-25.96</ele>
  <time>2026-09-01T01:13:30Z</time>
  <course>182.3</course>
  <speed>0.77</speed>
  <fix>3d</fix>
</trkpt>
<trkpt lat="33.8100715" lon="-118.3938873">
  <ele>-26.438</ele>
  <time>2026-09-01T01:13:30Z</time>
  <course>182.15</course>
  <speed>0.7510659092250159</speed>
  <fix>3d</fix>
</trkpt>
<trkpt lat="33.8100721" lon="-118.3938871">
  <ele>-25.88</ele>
  <time>2026-09-01T01:13:30Z</time>
  <course>182.29</course>
  <speed>0.77</speed>
  <fix>3d</fix>
</trkpt>
<trkpt lat="33.8100708" lon="-118.3938873">
  <ele>-26.396</ele>
  <time>2026-09-01T01:13:30Z</time>
  <course>182.15</course>
  <speed>0.7510659092250159</speed>
  <fix>3d</fix>
</trkpt>
<trkpt lat="33.8100721" lon="-118.3938871">
  <ele>-25.88</ele>
  <time>2026-09-01T01:13:30Z</time>
  <course>182.29</course>
  <speed>0.77</speed>
  <fix>3d</fix>
</trkpt>
<trkpt lat="33.8100701" lon="-118.3938874">
  <ele>-26.354</ele>
  <time>2026-09-01T01:13:30Z</time>
  <course>182.15</course>
  <speed>0.7510659092250159</speed>
  <fix>3d</fix>
</trkpt>
<trkpt lat="33.8100708" lon="-118.3938872">
  <ele>-25.8</ele>
  <time>2026-09-01T01:13:30Z</time>
  <course>182.28</course>
  <speed>0.77</speed>
  <fix>3d</fix>
</trkpt>
<trkpt lat="33.8100694" lon="-118.3938874">
  <ele>-26.312</ele>
  <time>2026-09-01T01:13:30Z</time>
  <course>182.14</course>
  <speed>0.7510659092250159</speed>
  <fix>3d</fix>
</trkpt>
<trkpt lat="33.8100708" lon="-118.3938872">
  <ele>-25.8</ele>
  <time>2026-09-01T01:13:30Z</time>
  <course>182.28</course>
  <speed>0.77</speed>
  <fix>3d</fix>
</trkpt>
<trkpt lat="33.8100687" lon="-118.3938874">
  <ele>-26.271</ele>
  <time>2026-09-01T01:13:30Z</time>
  <course>182.14</course>
  <speed>0.7510659092250159</speed>
  <fix>3d</fix>
</trkpt>
<trkpt lat="33.8100693" lon="-118.3938873">
  <ele>-25.72</ele>
  <time>2026-09-01T01:13:30Z</time>
  <course>182.27</course>
  <speed>0.77</speed>
  <fix>3d</fix>
</trkpt>
<trkpt lat="33.810068" lon="-118.3938875">
  <ele>-26.233</ele>
  <time>2026-09-01T01:13:31Z</time>
  <course>182.14</course>
  <speed>0.7510659092250159</speed>
  <fix>3d</fix>
</trkpt>
<trkpt lat="33.8100693" lon="-118.3938873">
  <ele>-25.72</ele>
  <time>2026-09-01T01:13:31Z</time>
  <course>182.27</course>
  <speed>0.77</speed>
  <fix>3d</fix>
</trkpt>
<trkpt lat="33.8100673" lon="-118.3938875">
  <ele>-26.195</ele>
  <time>2026-09-01T01:13:31Z</time>
  <course>182.14</course>
  <speed>0.7510659092250159</speed>
  <fix>3d</fix>
</trkpt>
<trkpt lat="33.810068" lon="-118.3938873">
  <ele>-25.64</ele>
  <time>2026-09-01T01:13:31Z</time>
  <course>182.26</course>
  <speed>0.77</speed>
  <fix>3d</fix>
</trkpt>
<trkpt lat="33.8100666" lon="-118.3938875">
  <ele>-26.156</ele>
  <time>2026-09-01T01:13:31Z</time>
  <course>182.14</course>
  <speed>0.7510659092250159</speed>
  <fix>3d</fix>
</trkpt>
<trkpt lat="33.810068" lon="-118.3938873">
  <ele>-25.64</ele>
  <time>2026-09-01T01:13:31Z</time>
  <course>182.26</course>
  <speed>0.77</speed>
  <fix>3d</fix>
</trkpt>
<trkpt lat="33.8100659" lon="-118.3938876">
  <ele>-26.119</ele>
  <time>2026-09-01T01:13:31Z</time>
  <course>182.14</course>
  <speed>0.7510659092250159</speed>
  <fix>3d</fix>
</trkpt>
<trkpt lat="33.8100666" lon="-118.3938874">
  <ele>-25.57</ele>
  <time>2026-09-01T01:13:31Z</time>
  <course>182.26</course>
  <speed>0.77</speed>
  <fix>3d</fix>
</trkpt>
<trkpt lat="33.8100652" lon="-118.3938876">
  <ele>-26.084</ele>
  <time>2026-09-01T01:13:31Z</time>
  <course>182.13</course>
  <speed>0.7510659092250159</speed>
  <fix>3d</fix>
</trkpt>
<trkpt lat="33.8100666" lon="-118.3938874">
  <ele>-25.57</ele>
  <time>2026-09-01T01:13:31Z</time>
  <course>182.26</course>
  <speed>0.77</speed>
  <fix>3d</fix>
</trkpt>
<trkpt lat="33.8100645" lon="-118.3938876">
  <ele>-26.052</ele>
  <time>2026-09-01T01:13:31Z</time>
  <course>182.13</course>
  <speed>0.7510659092250159</speed>
  <fix>3d</fix>
</trkpt>
<trkpt lat="33.8100651" lon="-118.3938875">
  <ele>-25.5</ele>
  <time>2026-09-01T01:13:31Z</time>
  <course>182.25</course>
  <speed>0.77</speed>
  <fix>3d</fix>
</trkpt>
<trkpt lat="33.8100638" lon="-118.3938877">
  <ele>-26.022</ele>
  <time>2026-09-01T01:13:31Z</time>
  <course>182.13</course>
  <speed>0.7510659092250159</speed>
  <fix>3d</fix>
</trkpt>
<trkpt lat="33.8100651" lon="-118.3938875">
  <ele>-25.5</ele>
  <time>2026-09-01T01:13:31Z</time>
  <course>182.25</course>
  <speed>0.77</speed>
  <fix>3d</fix>
</trkpt>
<trkpt lat="33.8100631" lon="-118.3938877">
  <ele>-25.992</ele>
  <time>2026-09-01T01:13:31Z</time>
  <course>182.13</course>
  <speed>0.7510659092250159</speed>
  <fix>3d</fix>
</trkpt>
<trkpt lat="33.8100637" lon="-118.3938875">
  <ele>-25.43</ele>
  <time>2026-09-01T01:13:31Z</time>
  <course>182.25</course>
  <speed>0.77</speed>
  <fix>3d</fix>
</trkpt>
<trkpt lat="33.8100624" lon="-118.3938877">
  <ele>-25.965</ele>
  <time>2026-09-01T01:13:31Z</time>
  <course>182.13</course>
  <speed>0.7510659092250159</speed>
  <fix>3d</fix>
</trkpt>
<trkpt lat="33.8100637" lon="-118.3938875">
  <ele>-25.43</ele>
  <time>2026-09-01T01:13:31Z</time>
  <course>182.25</course>
  <speed>0.77</speed>
  <fix>3d</fix>
</trkpt>
<trkpt lat="33.8100617" lon="-118.3938878">
  <ele>-25.939</ele>
  <time>2026-09-01T01:13:31Z</time>
  <course>182.12</course>
  <speed>0.7510659092250159</speed>
  <fix>3d</fix>
</trkpt>
<trkpt lat="33.8100624" lon="-118.3938876">
  <ele>-25.38</ele>
  <time>2026-09-01T01:13:31Z</time>
  <course>182.24</course>
  <speed>0.77</speed>
  <fix>3d</fix>
</trkpt>
<trkpt lat="33.810061" lon="-118.3938878">
  <ele>-25.913</ele>
  <time>2026-09-01T01:13:31Z</time>
  <course>182.12</course>
  <speed>0.7510659092250159</speed>
  <fix>3d</fix>
</trkpt>
<trkpt lat="33.8100624" lon="-118.3938876">
  <ele>-25.38</ele>
  <time>2026-09-01T01:13:31Z</time>
  <course>182.24</course>
  <speed>0.77</speed>
  <fix>3d</fix>
</trkpt>
<trkpt lat="33.8100603" lon="-118.3938878">
  <ele>-25.888</ele>
  <time>2026-09-01T01:13:31Z</time>
  <course>182.12</course>
  <speed>0.7510659092250159</speed>
  <fix>3d</fix>
</trkpt>
<trkpt lat="33.810061" lon="-118.3938877">
  <ele>-25.32</ele>
  <time>2026-09-01T01:13:31Z</time>
  <course>182.23</course>
  <speed>0.77</speed>
  <fix>3d</fix>
</trkpt>
<trkpt lat="33.8100596" lon="-118.3938879">
  <ele>-25.864</ele>
  <time>2026-09-01T01:13:31Z</time>
  <course>182.12</course>
  <speed>0.7510659092250159</speed>
  <fix>3d</fix>
</trkpt>
<trkpt lat="33.810061" lon="-118.3938877">
  <ele>-25.32</ele>
  <time>2026-09-01T01:13:31Z</time>
  <course>182.23</course>
  <speed>0.77</speed>
  <fix>3d</fix>
</trkpt>
<trkpt lat="33.8100589" lon="-118.3938879">
  <ele>-25.842</ele>
  <time>2026-09-01T01:13:31Z</time>
  <course>182.12</course>
  <speed>0.7510659092250159</speed>
  <fix>3d</fix>
</trkpt>
<trkpt lat="33.8100596" lon="-118.3938877">
  <ele>-25.27</ele>
  <time>2026-09-01T01:13:31Z</time>
  <course>182.23</course>
  <speed>0.77</speed>
  <fix>3d</fix>
</trkpt>
<trkpt lat="33.8100582" lon="-118.3938879">
  <ele>-25.823</ele>
  <time>2026-09-01T01:13:31Z</time>
  <course>182.12</course>
  <speed>0.7510659092250159</speed>
  <fix>3d</fix>
</trkpt>
<trkpt lat="33.8100596" lon="-118.3938877">
  <ele>-25.27</ele>
  <time>2026-09-01T01:13:31Z</time>
  <course>182.23</course>
  <speed>0.77</speed>
  <fix>3d</fix>
</trkpt>
<trkpt lat="33.8100575" lon="-118.393888">
  <ele>-25.806</ele>
  <time>2026-09-01T01:13:31Z</time>
  <course>182.12</course>
  <speed>0.7510659092250159</speed>
  <fix>3d</fix>
</trkpt>
<trkpt lat="33.8100582" lon="-118.3938878">
  <ele>-25.23</ele>
  <time>2026-09-01T01:13:31Z</time>
  <course>182.22</course>
  <speed>0.77</speed>
  <fix>3d</fix>
</trkpt>
<trkpt lat="33.8100568" lon="-118.393888">
  <ele>-25.789</ele>
  <time>2026-09-01T01:13:31Z</time>
  <course>182.12</course>
  <speed>0.7510659092250159</speed>
  <fix>3d</fix>
</trkpt>
<trkpt lat="33.8100582" lon="-118.3938878">
  <ele>-25.23</ele>
  <time>2026-09-01T01:13:31Z</time>
  <course>182.22</course>
  <speed>0.77</speed>
  <fix>3d</fix>
</trkpt>
<trkpt lat="33.8100561" lon="-118.393888">
  <ele>-25.772</ele>
  <time>2026-09-01T01:13:31Z</time>
  <course>182.11</course>
  <speed>0.7510659092250159</speed>
  <fix>3d</fix>
</trkpt>
<trkpt lat="33.8100569" lon="-118.3938879">
  <ele>-25.2</ele>
  <time>2026-09-01T01:13:31Z</time>
  <course>182.22</course>
  <speed>0.77</speed>
  <fix>3d</fix>
</trkpt>
<trkpt lat="33.8100554" lon="-118.3938881">
  <ele>-25.754</ele>
  <time>2026-09-01T01:13:31Z</time>
  <course>182.11</course>
  <speed>0.7510659092250159</speed>
  <fix>3d</fix>
</trkpt>
<trkpt lat="33.8100569" lon="-118.3938879">
  <ele>-25.2</ele>
  <time>2026-09-01T01:13:31Z</time>
  <course>182.22</course>
  <speed>0.77</speed>
  <fix>3d</fix>
</trkpt>
<trkpt lat="33.8100547" lon="-118.3938881">
  <ele>-25.734</ele>
  <time>2026-09-01T01:13:31Z</time>
  <course>182.11</course>
  <speed>0.7510659092250159</speed>
  <fix>3d</fix>
</trkpt>
<trkpt lat="33.8100555" lon="-118.3938879">
  <ele>-25.16</ele>
  <time>2026-09-01T01:13:31Z</time>
  <course>182.21</course>
  <speed>0.77</speed>
  <fix>3d</fix>
</trkpt>
<trkpt lat="33.8100541" lon="-118.3938881">
  <ele>-25.713</ele>
  <time>2026-09-01T01:13:31Z</time>
  <course>182.11</course>
  <speed>0.7510659092250159</speed>
  <fix>3d</fix>
</trkpt>
<trkpt lat="33.8100555" lon="-118.3938879">
  <ele>-25.16</ele>
  <time>2026-09-01T01:13:31Z</time>
  <course>182.21</course>
  <speed>0.77</speed>
  <fix>3d</fix>
</trkpt>
<trkpt lat="33.8100534" lon="-118.3938882">
  <ele>-25.689</ele>
  <time>2026-09-01T01:13:31Z</time>
  <course>182.11</course>
  <speed>0.7510659092250159</speed>
  <fix>3d</fix>
</trkpt>
<trkpt lat="33.8100541" lon="-118.393888">
  <ele>-25.11</ele>
  <time>2026-09-01T01:13:31Z</time>
  <course>182.2</course>
  <speed>0.77</speed>
  <fix>3d</fix>
</trkpt>
<trkpt lat="33.8100527" lon="-118.3938882">
  <ele>-25.662</ele>
  <time>2026-09-01T01:13:31Z</time>
  <course>182.11</course>
  <speed>0.7510659092250159</speed>
  <fix>3d</fix>
</trkpt>
<trkpt lat="33.8100541" lon="-118.393888">
  <ele>-25.11</ele>
  <time>2026-09-01T01:13:31Z</time>
  <course>182.2</course>
  <speed>0.77</speed>
  <fix>3d</fix>
</trkpt>
<trkpt lat="33.810052" lon="-118.3938882">
  <ele>-25.631</ele>
  <time>2026-09-01T01:13:31Z</time>
  <course>182.1</course>
  <speed>0.7510659092250159</speed>
  <fix>3d</fix>
</trkpt>
<trkpt lat="33.8100527" lon="-118.3938881">
  <ele>-25.07</ele>
  <time>2026-09-01T01:13:31Z</time>
  <course>182.18</course>
  <speed>0.77</speed>
  <fix>3d</fix>
</trkpt>
<trkpt lat="33.8100513" lon="-118.3938883">
  <ele>-25.6</ele>
  <time>2026-09-01T01:13:31Z</time>
  <course>182.1</course>
  <speed>0.7510659092250159</speed>
  <fix>3d</fix>
</trkpt>
<trkpt lat="33.8100527" lon="-118.3938881">
  <ele>-25.07</ele>
  <time>2026-09-01T01:13:31Z</time>
  <course>182.18</course>
  <speed>0.77</speed>
  <fix>3d</fix>
</trkpt>
<trkpt lat="33.8100506" lon="-118.3938883">
  <ele>-25.566</ele>
  <time>2026-09-01T01:13:31Z</time>
  <course>182.1</course>
  <speed>0.7510659092250159</speed>
  <fix>3d</fix>
</trkpt>
<trkpt lat="33.8100513" lon="-118.3938881">
  <ele>-25.02</ele>
  <time>2026-09-01T01:13:31Z</time>
  <course>182.17</course>
  <speed>0.77</speed>
  <fix>3d</fix>
</trkpt>
<trkpt lat="33.8100499" lon="-118.3938883">
  <ele>-25.532</ele>
  <time>2026-09-01T01:13:31Z</time>
  <course>182.1</course>
  <speed>0.7510659092250159</speed>
  <fix>3d</fix>
</trkpt>
<trkpt lat="33.8100513" lon="-118.3938881">
  <ele>-25.02</ele>
  <time>2026-09-01T01:13:31Z</time>
  <course>182.17</course>
  <speed>0.77</speed>
  <fix>3d</fix>
</trkpt>
<trkpt lat="33.8100492" lon="-118.3938883">
  <ele>-25.496</ele>
  <time>2026-09-01T01:13:31Z</time>
  <course>182.1</course>
  <speed>0.7510659092250159</speed>
  <fix>3d</fix>
</trkpt>
<trkpt lat="33.8100498" lon="-118.3938882">
  <ele>-24.95</ele>
  <time>2026-09-01T01:13:31Z</time>
  <course>182.16</course>
  <speed>0.77</speed>
  <fix>3d</fix>
</trkpt>
<trkpt lat="33.8100485" lon="-118.3938884">
  <ele>-25.459</ele>
  <time>2026-09-01T01:13:31Z</time>
  <course>182.1</course>
  <speed>0.7510659092250159</speed>
  <fix>3d</fix>
</trkpt>
<trkpt lat="33.8100498" lon="-118.3938882">
  <ele>-24.95</ele>
  <time>2026-09-01T01:13:31Z</time>
  <course>182.16</course>
  <speed>0.77</speed>
  <fix>3d</fix>
</trkpt>
<trkpt lat="33.8100478" lon="-118.3938884">
  <ele>-25.422</ele>
  <time>2026-09-01T01:13:31Z</time>
  <course>182.1</course>
  <speed>0.7510659092250159</speed>
  <fix>3d</fix>
</trkpt>
<trkpt lat="33.8100485" lon="-118.3938882">
  <ele>-24.88</ele>
  <time>2026-09-01T01:13:31Z</time>
  <course>182.15</course>
  <speed>0.77</speed>
  <fix>3d</fix>
</trkpt>
<trkpt lat="33.8100471" lon="-118.3938884">
  <ele>-25.387</ele>
  <time>2026-09-01T01:13:31Z</time>
  <course>182.1</course>
  <speed>0.7510659092250159</speed>
  <fix>3d</fix>
</trkpt>
<trkpt lat="33.8100485" lon="-118.3938882">
  <ele>-24.88</ele>
  <time>2026-09-01T01:13:31Z</time>
  <course>182.15</course>
  <speed>0.77</speed>
  <fix>3d</fix>
</trkpt>
<trkpt lat="33.8100464" lon="-118.3938885">
  <ele>-25.353</ele>
  <time>2026-09-01T01:13:31Z</time>
  <course>182.09</course>
  <speed>0.7510659092250159</speed>
  <fix>3d</fix>
</trkpt>
<trkpt lat="33.8100471" lon="-118.3938883">
  <ele>-24.81</ele>
  <time>2026-09-01T01:13:31Z</time>
  <course>182.14</course>
  <speed>0.77</speed>
  <fix>3d</fix>
</trkpt>
<trkpt lat="33.8100457" lon="-118.3938885">
  <ele>-25.319</ele>
  <time>2026-09-01T01:13:31Z</time>
  <course>182.09</course>
  <speed>0.7510659092250159</speed>
  <fix>3d</fix>
</trkpt>
<trkpt lat="33.8100471" lon="-118.3938883">
  <ele>-24.81</ele>
  <time>2026-09-01T01:13:31Z</time>
  <course>182.14</course>
  <speed>0.77</speed>
  <fix>3d</fix>
</trkpt>
<trkpt lat="33.810045" lon="-118.3938885">
  <ele>-25.287</ele>
  <time>2026-09-01T01:13:31Z</time>
  <course>182.09</course>
  <speed>0.7510659092250159</speed>
  <fix>3d</fix>
</trkpt>
<trkpt lat="33.8100456" lon="-118.3938884">
  <ele>-24.75</ele>
  <time>2026-09-01T01:13:31Z</time>
  <course>182.14</course>
  <speed>0.77</speed>
  <fix>3d</fix>
</trkpt>
<trkpt lat="33.8100443" lon="-118.3938886">
  <ele>-25.255</ele>
  <time>2026-09-01T01:13:31Z</time>
  <course>182.09</course>
  <speed>0.7510659092250159</speed>
  <fix>3d</fix>
</trkpt>
<trkpt lat="33.8100456" lon="-118.3938884">
  <ele>-24.75</ele>
  <time>2026-09-01T01:13:31Z</time>
  <course>182.14</course>
  <speed>0.77</speed>
  <fix>3d</fix>
</trkpt>
<trkpt lat="33.8100436" lon="-118.3938886">
  <ele>-25.22</ele>
  <time>2026-09-01T01:13:31Z</time>
  <course>182.09</course>
  <speed>0.7510659092250159</speed>
  <fix>3d</fix>
</trkpt>
<trkpt lat="33.8100443" lon="-118.3938884">
  <ele>-24.68</ele>
  <time>2026-09-01T01:13:31Z</time>
  <course>182.13</course>
  <speed>0.77</speed>
  <fix>3d</fix>
</trkpt>
<trkpt lat="33.8100429" lon="-118.3938886">
  <ele>-25.183</ele>
  <time>2026-09-01T01:13:31Z</time>
  <course>182.08</course>
  <speed>0.7510659092250159</speed>
  <fix>3d</fix>
</trkpt>
<trkpt lat="33.8100443" lon="-118.3938884">
  <ele>-24.68</ele>
  <time>2026-09-01T01:13:31Z</time>
  <course>182.13</course>
  <speed>0.77</speed>
  <fix>3d</fix>
</trkpt>
<trkpt lat="33.8100422" lon="-118.3938887">
  <ele>-25.145</ele>
  <time>2026-09-01T01:13:31Z</time>
  <course>182.08</course>
  <speed>0.7510659092250159</speed>
  <fix>3d</fix>
</trkpt>
<trkpt lat="33.8100429" lon="-118.3938885">
  <ele>-24.62</ele>
  <time>2026-09-01T01:13:31Z</time>
  <course>182.12</course>
  <speed>0.77</speed>
  <fix>3d</fix>
</trkpt>
<trkpt lat="33.8100415" lon="-118.3938887">
  <ele>-25.106</ele>
  <time>2026-09-01T01:13:31Z</time>
  <course>182.08</course>
  <speed>0.7510659092250159</speed>
  <fix>3d</fix>
</trkpt>
<trkpt lat="33.8100429" lon="-118.3938885">
  <ele>-24.62</ele>
  <time>2026-09-01T01:13:31Z</time>
  <course>182.12</course>
  <speed>0.77</speed>
  <fix>3d</fix>
</trkpt>
<trkpt lat="33.8100408" lon="-118.3938887">
  <ele>-25.068</ele>
  <time>2026-09-01T01:13:31Z</time>
  <course>182.08</course>
  <speed>0.7510659092250159</speed>
  <fix>3d</fix>
</trkpt>
<trkpt lat="33.8100416" lon="-118.3938886">
  <ele>-24.55</ele>
  <time>2026-09-01T01:13:31Z</time>
  <course>182.11</course>
  <speed>0.77</speed>
  <fix>3d</fix>
</trkpt>
<trkpt lat="33.8100402" lon="-118.3938887">
  <ele>-25.028</ele>
  <time>2026-09-01T01:13:31Z</time>
  <course>182.08</course>
  <speed>0.7510659092250159</speed>
  <fix>3d</fix>
</trkpt>
<trkpt lat="33.8100416" lon="-118.3938886">
  <ele>-24.55</ele>
  <time>2026-09-01T01:13:31Z</time>
  <course>182.11</course>
  <speed>0.77</speed>
  <fix>3d</fix>
</trkpt>
<trkpt lat="33.8100395" lon="-118.3938888">
  <ele>-24.99</ele>
  <time>2026-09-01T01:13:31Z</time>
  <course>182.08</course>
  <speed>0.7510659092250159</speed>
  <fix>3d</fix>
</trkpt>
<trkpt lat="33.8100402" lon="-118.3938886">
  <ele>-24.47</ele>
  <time>2026-09-01T01:13:31Z</time>
  <course>182.11</course>
  <speed>0.77</speed>
  <fix>3d</fix>
</trkpt>
<trkpt lat="33.8100388" lon="-118.3938888">
  <ele>-24.955</ele>
  <time>2026-09-01T01:13:31Z</time>
  <course>182.08</course>
  <speed>0.7510659092250159</speed>
  <fix>3d</fix>
</trkpt>
<trkpt lat="33.8100402" lon="-118.3938886">
  <ele>-24.47</ele>
  <time>2026-09-01T01:13:31Z</time>
  <course>182.11</course>
  <speed>0.77</speed>
  <fix>3d</fix>
</trkpt>
<trkpt lat="33.8100381" lon="-118.3938888">
  <ele>-24.924</ele>
  <time>2026-09-01T01:13:31Z</time>
  <course>182.08</course>
  <speed>0.7510659092250159</speed>
  <fix>3d</fix>
</trkpt>
<trkpt lat="33.8100388" lon="-118.3938887">
  <ele>-24.41</ele>
  <time>2026-09-01T01:13:31Z</time>
  <course>182.1</course>
  <speed>0.77</speed>
  <fix>3d</fix>
</trkpt>
<trkpt lat="33.8100374" lon="-118.3938889">
  <ele>-24.898</ele>
  <time>2026-09-01T01:13:31Z</time>
  <course>182.08</course>
  <speed>0.7510659092250159</speed>
  <fix>3d</fix>
</trkpt>
<trkpt lat="33.8100388" lon="-118.3938887">
  <ele>-24.41</ele>
  <time>2026-09-01T01:13:31Z</time>
  <course>182.1</course>
  <speed>0.77</speed>
  <fix>3d</fix>
</trkpt>
<trkpt lat="33.8100367" lon="-118.3938889">
  <ele>-24.879</ele>
  <time>2026-09-01T01:13:31Z</time>
  <course>182.08</course>
  <speed>0.7510659092250159</speed>
  <fix>3d</fix>
</trkpt>
<trkpt lat="33.8100374" lon="-118.3938887">
  <ele>-24.35</ele>
  <time>2026-09-01T01:13:31Z</time>
  <course>182.11</course>
  <speed>0.77</speed>
  <fix>3d</fix>
</trkpt>
<trkpt lat="33.810036" lon="-118.3938889">
  <ele>-24.868</ele>
  <time>2026-09-01T01:13:31Z</time>
  <course>182.07</course>
  <speed>0.7510659092250159</speed>
  <fix>3d</fix>
</trkpt>
<trkpt lat="33.8100374" lon="-118.3938887">
  <ele>-24.35</ele>
  <time>2026-09-01T01:13:31Z</time>
  <course>182.11</course>
  <speed>0.77</speed>
  <fix>3d</fix>
</trkpt>
<trkpt lat="33.8100353" lon="-118.393889">
  <ele>-24.863</ele>
  <time>2026-09-01T01:13:31Z</time>
  <course>182.07</course>
  <speed>0.7510659092250159</speed>
  <fix>3d</fix>
</trkpt>
<trkpt lat="33.8100359" lon="-118.3938888">
  <ele>-24.31</ele>
  <time>2026-09-01T01:13:31Z</time>
  <course>182.11</course>
  <speed>0.77</speed>
  <fix>3d</fix>
</trkpt>
<trkpt lat="33.8100346" lon="-118.393889">
  <ele>-24.864</ele>
  <time>2026-09-01T01:13:31Z</time>
  <course>182.07</course>
  <speed>0.7510659092250159</speed>
  <fix>3d</fix>
</trkpt>
<trkpt lat="33.8100359" lon="-118.3938888">
  <ele>-24.31</ele>
  <time>2026-09-01T01:13:31Z</time>
  <course>182.11</course>
  <speed>0.77</speed>
  <fix>3d</fix>
</trkpt>
<trkpt lat="33.8100339" lon="-118.393889">
  <ele>-24.869</ele>
  <time>2026-09-01T01:13:31Z</time>
  <course>182.07</course>
  <speed>0.7510659092250159</speed>
  <fix>3d</fix>
</trkpt>
<trkpt lat="33.8100345" lon="-118.3938889">
  <ele>-24.3</ele>
  <time>2026-09-01T01:13:31Z</time>
  <course>182.11</course>
  <speed>0.77</speed>
  <fix>3d</fix>
</trkpt>
<trkpt lat="33.8100332" lon="-118.393889">
  <ele>-24.877</ele>
  <time>2026-09-01T01:13:31Z</time>
  <course>182.07</course>
  <speed>0.7510659092250159</speed>
  <fix>3d</fix>
</trkpt>
<trkpt lat="33.8100345" lon="-118.3938889">
  <ele>-24.3</ele>
  <time>2026-09-01T01:13:31Z</time>
  <course>182.11</course>
  <speed>0.77</speed>
  <fix>3d</fix>
</trkpt>
<trkpt lat="33.8100326" lon="-118.3938891">
  <ele>-24.887</ele>
  <time>2026-09-01T01:13:31Z</time>
  <course>182.07</course>
  <speed>0.7510659092250159</speed>
  <fix>3d</fix>
</trkpt>
<trkpt lat="33.8100332" lon="-118.3938889">
  <ele>-24.3</ele>
  <time>2026-09-01T01:13:31Z</time>
  <course>182.11</course>
  <speed>0.77</speed>
  <fix>3d</fix>
</trkpt>
<trkpt lat="33.8100319" lon="-118.3938891">
  <ele>-24.898</ele>
  <time>2026-09-01T01:13:31Z</time>
  <course>182.07</course>
  <speed>0.7510659092250159</speed>
  <fix>3d</fix>
</trkpt>
<trkpt lat="33.8100332" lon="-118.3938889">
  <ele>-24.3</ele>
  <time>2026-09-01T01:13:31Z</time>
  <course>182.11</course>
  <speed>0.77</speed>
  <fix>3d</fix>
</trkpt>
<trkpt lat="33.8100312" lon="-118.3938891">
  <ele>-24.911</ele>
  <time>2026-09-01T01:13:31Z</time>
  <course>182.06</course>
  <speed>0.7510659092250159</speed>
  <fix>3d</fix>
</trkpt>
<trkpt lat="33.8100318" lon="-118.393889">
  <ele>-24.31</ele>
  <time>2026-09-01T01:13:31Z</time>
  <course>182.11</course>
  <speed>0.77</speed>
  <fix>3d</fix>
</trkpt>
<trkpt lat="33.8100305" lon="-118.3938892">
  <ele>-24.925</ele>
  <time>2026-09-01T01:13:31Z</time>
  <course>182.06</course>
  <speed>0.7510659092250159</speed>
  <fix>3d</fix>
</trkpt>
<trkpt lat="33.8100318" lon="-118.393889">
  <ele>-24.31</ele>
  <time>2026-09-01T01:13:31Z</time>
  <course>182.11</course>
  <speed>0.77</speed>
  <fix>3d</fix>
</trkpt>
<trkpt lat="33.8100298" lon="-118.3938892">
  <ele>-24.939</ele>
  <time>2026-09-01T01:13:31Z</time>
  <course>182.06</course>
  <speed>0.7510659092250159</speed>
  <fix>3d</fix>
</trkpt>
<trkpt lat="33.8100304" lon="-118.3938891">
  <ele>-24.33</ele>
  <time>2026-09-01T01:13:31Z</time>
  <course>182.1</course>
  <speed>0.77</speed>
  <fix>3d</fix>
</trkpt>
<trkpt lat="33.8100291" lon="-118.3938892">
  <ele>-24.953</ele>
  <time>2026-09-01T01:13:31Z</time>
  <course>182.06</course>
  <speed>0.7510659092250159</speed>
  <fix>3d</fix>
</trkpt>
<trkpt lat="33.8100304" lon="-118.3938891">
  <ele>-24.33</ele>
  <time>2026-09-01T01:13:31Z</time>
  <course>182.1</course>
  <speed>0.77</speed>
  <fix>3d</fix>
</trkpt>
<trkpt lat="33.8100284" lon="-118.3938893">
  <ele>-24.967</ele>
  <time>2026-09-01T01:13:31Z</time>
  <course>182.06</course>
  <speed>0.7510659092250159</speed>
  <fix>3d</fix>
</trkpt>
<trkpt lat="33.810029" lon="-118.3938891">
  <ele>-24.36</ele>
  <time>2026-09-01T01:13:31Z</time>
  <course>182.1</course>
  <speed>0.77</speed>
  <fix>3d</fix>
</trkpt>
<trkpt lat="33.8100277" lon="-118.3938893">
  <ele>-24.981</ele>
  <time>2026-09-01T01:13:31Z</time>
  <course>182.06</course>
  <speed>0.7510659092250159</speed>
  <fix>3d</fix>
</trkpt>
<trkpt lat="33.810029" lon="-118.3938891">
  <ele>-24.36</ele>
  <time>2026-09-01T01:13:31Z</time>
  <course>182.1</course>
  <speed>0.77</speed>
  <fix>3d</fix>
</trkpt>
<trkpt lat="33.810027" lon="-118.3938893">
  <ele>-24.996</ele>
  <time>2026-09-01T01:13:31Z</time>
  <course>182.06</course>
  <speed>0.7510659092250159</speed>
  <fix>3d</fix>
</trkpt>
<trkpt lat="33.8100277" lon="-118.3938892">
  <ele>-24.38</ele>
  <time>2026-09-01T01:13:31Z</time>
  <course>182.09</course>
  <speed>0.77</speed>
  <fix>3d</fix>
</trkpt>
<trkpt lat="33.8100263" lon="-118.3938894">
  <ele>-25.01</ele>
  <time>2026-09-01T01:13:31Z</time>
  <course>182.06</course>
  <speed>0.7510659092250159</speed>
  <fix>3d</fix>
</trkpt>
<trkpt lat="33.8100277" lon="-118.3938892">
  <ele>-24.38</ele>
  <time>2026-09-01T01:13:31Z</time>
  <course>182.09</course>
  <speed>0.77</speed>
  <fix>3d</fix>
</trkpt>
<trkpt lat="33.8100256" lon="-118.3938894">
  <ele>-25.024</ele>
  <time>2026-09-01T01:13:31Z</time>
  <course>182.06</course>
  <speed>0.7410802925459562</speed>
  <fix>3d</fix>
</trkpt>
<trkpt lat="33.8100262" lon="-118.3938892">
  <ele>-24.4</ele>
  <time>2026-09-01T01:13:31Z</time>
  <course>182.09</course>
  <speed>0.77</speed>
  <fix>3d</fix>
</trkpt>
<trkpt lat="33.8100249" lon="-118.3938894">
  <ele>-25.039</ele>
  <time>2026-09-01T01:13:31Z</time>
  <course>182.05</course>
  <speed>0.7410802925459562</speed>
  <fix>3d</fix>
</trkpt>
<trkpt lat="33.8100262" lon="-118.3938892">
  <ele>-24.4</ele>
  <time>2026-09-01T01:13:31Z</time>
  <course>182.09</course>
  <speed>0.77</speed>
  <fix>3d</fix>
</trkpt>
<trkpt lat="33.8100242" lon="-118.3938894">
  <ele>-25.052</ele>
  <time>2026-09-01T01:13:31Z</time>
  <course>182.05</course>
  <speed>0.7410802925459562</speed>
  <fix>3d</fix>
</trkpt>
<trkpt lat="33.8100249" lon="-118.3938893">
  <ele>-24.43</ele>
  <time>2026-09-01T01:13:31Z</time>
  <course>182.08</course>
  <speed>0.77</speed>
  <fix>3d</fix>
</trkpt>
<trkpt lat="33.8100235" lon="-118.3938895">
  <ele>-25.063</ele>
  <time>2026-09-01T01:13:31Z</time>
  <course>182.05</course>
  <speed>0.7410802925459562</speed>
  <fix>3d</fix>
</trkpt>
<trkpt lat="33.8100249" lon="-118.3938893">
  <ele>-24.43</ele>
  <time>2026-09-01T01:13:31Z</time>
  <course>182.08</course>
  <speed>0.77</speed>
  <fix>3d</fix>
</trkpt>
<trkpt lat="33.8100228" lon="-118.3938895">
  <ele>-25.073</ele>
  <time>2026-09-01T01:13:31Z</time>
  <course>182.05</course>
  <speed>0.7410802925459562</speed>
  <fix>3d</fix>
</trkpt>
<trkpt lat="33.8100235" lon="-118.3938894">
  <ele>-24.45</ele>
  <time>2026-09-01T01:13:31Z</time>
  <course>182.07</course>
  <speed>0.77</speed>
  <fix>3d</fix>
</trkpt>
<trkpt lat="33.8100222" lon="-118.3938895">
  <ele>-25.082</ele>
  <time>2026-09-01T01:13:31Z</time>
  <course>182.05</course>
  <speed>0.7410802925459562</speed>
  <fix>3d</fix>
</trkpt>
<trkpt lat="33.8100235" lon="-118.3938894">
  <ele>-24.45</ele>
  <time>2026-09-01T01:13:31Z</time>
  <course>182.07</course>
  <speed>0.77</speed>
  <fix>3d</fix>
</trkpt>
<trkpt lat="33.8100215" lon="-118.3938896">
  <ele>-25.09</ele>
  <time>2026-09-01T01:13:31Z</time>
  <course>182.05</course>
  <speed>0.7410802925459562</speed>
  <fix>3d</fix>
</trkpt>
<trkpt lat="33.8100221" lon="-118.3938894">
  <ele>-24.47</ele>
  <time>2026-09-01T01:13:31Z</time>
  <course>182.07</course>
  <speed>0.77</speed>
  <fix>3d</fix>
</trkpt>
<trkpt lat="33.8100208" lon="-118.3938896">
  <ele>-25.095</ele>
  <time>2026-09-01T01:13:31Z</time>
  <course>182.05</course>
  <speed>0.7410802925459562</speed>
  <fix>3d</fix>
</trkpt>
<trkpt lat="33.8100221" lon="-118.3938894">
  <ele>-24.47</ele>
  <time>2026-09-01T01:13:31Z</time>
  <course>182.07</course>
  <speed>0.77</speed>
  <fix>3d</fix>
</trkpt>
<trkpt lat="33.8100201" lon="-118.3938896">
  <ele>-25.095</ele>
  <time>2026-09-01T01:13:31Z</time>
  <course>182.05</course>
  <speed>0.7410802925459562</speed>
  <fix>3d</fix>
</trkpt>
<trkpt lat="33.8100206" lon="-118.3938895">
  <ele>-24.48</ele>
  <time>2026-09-01T01:13:31Z</time>
  <course>182.06</course>
  <speed>0.77</speed>
  <fix>3d</fix>
</trkpt>
<trkpt lat="33.8100194" lon="-118.3938897">
  <ele>-25.093</ele>
  <time>2026-09-01T01:13:31Z</time>
  <course>182.05</course>
  <speed>0.7410802925459562</speed>
  <fix>3d</fix>
</trkpt>
<trkpt lat="33.8100206" lon="-118.3938895">
  <ele>-24.48</ele>
  <time>2026-09-01T01:13:31Z</time>
  <course>182.06</course>
  <speed>0.77</speed>
  <fix>3d</fix>
</trkpt>
<trkpt lat="33.8100187" lon="-118.3938897">
  <ele>-25.086</ele>
  <time>2026-09-01T01:13:31Z</time>
  <course>182.05</course>
  <speed>0.7410802925459562</speed>
  <fix>3d</fix>
</trkpt>
<trkpt lat="33.8100193" lon="-118.3938895">
  <ele>-24.49</ele>
  <time>2026-09-01T01:13:31Z</time>
  <course>182.05</course>
  <speed>0.77</speed>
  <fix>3d</fix>
</trkpt>
<trkpt lat="33.810018" lon="-118.3938897">
  <ele>-25.079</ele>
  <time>2026-09-01T01:13:31Z</time>
  <course>182.05</course>
  <speed>0.7410802925459562</speed>
  <fix>3d</fix>
</trkpt>
<trkpt lat="33.8100193" lon="-118.3938895">
  <ele>-24.49</ele>
  <time>2026-09-01T01:13:31Z</time>
  <course>182.05</course>
  <speed>0.77</speed>
  <fix>3d</fix>
</trkpt>
<trkpt lat="33.8100173" lon="-118.3938897">
  <ele>-25.071</ele>
  <time>2026-09-01T01:13:31Z</time>
  <course>182.05</course>
  <speed>0.7410802925459562</speed>
  <fix>3d</fix>
</trkpt>
<trkpt lat="33.8100179" lon="-118.3938896">
  <ele>-24.48</ele>
  <time>2026-09-01T01:13:31Z</time>
  <course>182.04</course>
  <speed>0.77</speed>
  <fix>3d</fix>
</trkpt>
<trkpt lat="33.8100166" lon="-118.3938898">
  <ele>-25.062</ele>
  <time>2026-09-01T01:13:31Z</time>
  <course>182.04</course>
  <speed>0.7410802925459562</speed>
  <fix>3d</fix>
</trkpt>
<trkpt lat="33.8100179" lon="-118.3938896">
  <ele>-24.48</ele>
  <time>2026-09-01T01:13:31Z</time>
  <course>182.04</course>
  <speed>0.77</speed>
  <fix>3d</fix>
</trkpt>
<trkpt lat="33.8100159" lon="-118.3938898">
  <ele>-25.05</ele>
  <time>2026-09-01T01:13:31Z</time>
  <course>182.04</course>
  <speed>0.7410802925459562</speed>
  <fix>3d</fix>
</trkpt>
<trkpt lat="33.8100164" lon="-118.3938897">
  <ele>-24.46</ele>
  <time>2026-09-01T01:13:31Z</time>
  <course>182.03</course>
  <speed>0.77</speed>
  <fix>3d</fix>
</trkpt>
<trkpt lat="33.8100152" lon="-118.3938898">
  <ele>-25.038</ele>
  <time>2026-09-01T01:13:31Z</time>
  <course>182.04</course>
  <speed>0.7510659092250159</speed>
  <fix>3d</fix>
</trkpt>
<trkpt lat="33.8100164" lon="-118.3938897">
  <ele>-24.46</ele>
  <time>2026-09-01T01:13:31Z</time>
  <course>182.03</course>
  <speed>0.77</speed>
  <fix>3d</fix>
</trkpt>
<trkpt lat="33.8100145" lon="-118.3938899">
  <ele>-25.026</ele>
  <time>2026-09-01T01:13:31Z</time>
  <course>182.04</course>
  <speed>0.7510659092250159</speed>
  <fix>3d</fix>
</trkpt>
<trkpt lat="33.8100151" lon="-118.3938897">
  <ele>-24.45</ele>
  <time>2026-09-01T01:13:31Z</time>
  <course>182.03</course>
  <speed>0.77</speed>
  <fix>3d</fix>
</trkpt>
<trkpt lat="33.8100138" lon="-118.3938899">
  <ele>-25.014</ele>
  <time>2026-09-01T01:13:31Z</time>
  <course>182.04</course>
  <speed>0.7510659092250159</speed>
  <fix>3d</fix>
</trkpt>
<trkpt lat="33.8100151" lon="-118.3938897">
  <ele>-24.45</ele>
  <time>2026-09-01T01:13:31Z</time>
  <course>182.03</course>
  <speed>0.77</speed>
  <fix>3d</fix>
</trkpt>
<trkpt lat="33.8100131" lon="-118.3938899">
  <ele>-25.004</ele>
  <time>2026-09-01T01:13:31Z</time>
  <course>182.04</course>
  <speed>0.7510659092250159</speed>
  <fix>3d</fix>
</trkpt>
<trkpt lat="33.8100137" lon="-118.3938898">
  <ele>-24.43</ele>
  <time>2026-09-01T01:13:31Z</time>
  <course>182.02</course>
  <speed>0.77</speed>
  <fix>3d</fix>
</trkpt>
<trkpt lat="33.8100124" lon="-118.39389">
  <ele>-24.997</ele>
  <time>2026-09-01T01:13:31Z</time>
  <course>182.04</course>
  <speed>0.7510659092250159</speed>
  <fix>3d</fix>
</trkpt>
<trkpt lat="33.8100137" lon="-118.3938898">
  <ele>-24.43</ele>
  <time>2026-09-01T01:13:31Z</time>
  <course>182.02</course>
  <speed>0.77</speed>
  <fix>3d</fix>
</trkpt>
<trkpt lat="33.8100117" lon="-118.39389">
  <ele>-24.992</ele>
  <time>2026-09-01T01:13:31Z</time>
  <course>182.04</course>
  <speed>0.7510659092250159</speed>
  <fix>3d</fix>
</trkpt>
<trkpt lat="33.8100124" lon="-118.3938898">
  <ele>-24.41</ele>
  <time>2026-09-01T01:13:31Z</time>
  <course>182.02</course>
  <speed>0.77</speed>
  <fix>3d</fix>
</trkpt>
<trkpt lat="33.810011" lon="-118.39389">
  <ele>-24.987</ele>
  <time>2026-09-01T01:13:31Z</time>
  <course>182.04</course>
  <speed>0.7510659092250159</speed>
  <fix>3d</fix>
</trkpt>
<trkpt lat="33.8100124" lon="-118.3938898">
  <ele>-24.41</ele>
  <time>2026-09-01T01:13:31Z</time>
  <course>182.02</course>
  <speed>0.77</speed>
  <fix>3d</fix>
</trkpt>
<trkpt lat="33.8100103" lon="-118.39389">
  <ele>-24.984</ele>
  <time>2026-09-01T01:13:31Z</time>
  <course>182.04</course>
  <speed>0.7510659092250159</speed>
  <fix>3d</fix>
</trkpt>
<trkpt lat="33.810011" lon="-118.3938899">
  <ele>-24.4</ele>
  <time>2026-09-01T01:13:31Z</time>
  <course>182.01</course>
  <speed>0.77</speed>
  <fix>3d</fix>
</trkpt>
<trkpt lat="33.8100096" lon="-118.3938901">
  <ele>-24.982</ele>
  <time>2026-09-01T01:13:31Z</time>
  <course>182.04</course>
  <speed>0.7510659092250159</speed>
  <fix>3d</fix>
</trkpt>
<trkpt lat="33.810011" lon="-118.3938899">
  <ele>-24.4</ele>
  <time>2026-09-01T01:13:31Z</time>
  <course>182.01</course>
  <speed>0.77</speed>
  <fix>3d</fix>
</trkpt>
<trkpt lat="33.8100089" lon="-118.3938901">
  <ele>-24.983</ele>
  <time>2026-09-01T01:13:31Z</time>
  <course>182.04</course>
  <speed>0.7510659092250159</speed>
  <fix>3d</fix>
</trkpt>
<trkpt lat="33.8100096" lon="-118.39389">
  <ele>-24.39</ele>
  <time>2026-09-01T01:13:31Z</time>
  <course>182.01</course>
  <speed>0.77</speed>
  <fix>3d</fix>
</trkpt>
<trkpt lat="33.8100082" lon="-118.3938901">
  <ele>-24.985</ele>
  <time>2026-09-01T01:13:31Z</time>
  <course>182.03</course>
  <speed>0.7510659092250159</speed>
  <fix>3d</fix>
</trkpt>
<trkpt lat="33.8100096" lon="-118.39389">
  <ele>-24.39</ele>
  <time>2026-09-01T01:13:31Z</time>
  <course>182.01</course>
  <speed>0.77</speed>
  <fix>3d</fix>
</trkpt>
<trkpt lat="33.8100075" lon="-118.3938902">
  <ele>-24.987</ele>
  <time>2026-09-01T01:13:31Z</time>
  <course>182.03</course>
  <speed>0.7510659092250159</speed>
  <fix>3d</fix>
</trkpt>
<trkpt lat="33.8100082" lon="-118.39389">
  <ele>-24.39</ele>
  <time>2026-09-01T01:13:31Z</time>
  <course>182.01</course>
  <speed>0.77</speed>
  <fix>3d</fix>
</trkpt>
<trkpt lat="33.8100068" lon="-118.3938902">
  <ele>-24.989</ele>
  <time>2026-09-01T01:13:31Z</time>
  <course>182.03</course>
  <speed>0.7510659092250159</speed>
  <fix>3d</fix>
</trkpt>
<trkpt lat="33.8100082" lon="-118.39389">
  <ele>-24.39</ele>
  <time>2026-09-01T01:13:31Z</time>
  <course>182.01</course>
  <speed>0.77</speed>
  <fix>3d</fix>
</trkpt>
<trkpt lat="33.8100062" lon="-118.3938902">
  <ele>-24.993</ele>
  <time>2026-09-01T01:13:31Z</time>
  <course>182.03</course>
  <speed>0.7510659092250159</speed>
  <fix>3d</fix>
</trkpt>
<trkpt lat="33.8100067" lon="-118.3938901">
  <ele>-24.4</ele>
  <time>2026-09-01T01:13:31Z</time>
  <course>182.0</course>
  <speed>0.77</speed>
  <fix>3d</fix>
</trkpt>
<trkpt lat="33.8100055" lon="-118.3938903">
  <ele>-24.998</ele>
  <time>2026-09-01T01:13:31Z</time>
  <course>182.03</course>
  <speed>0.7510659092250159</speed>
  <fix>3d</fix>
</trkpt>
<trkpt lat="33.8100067" lon="-118.3938901">
  <ele>-24.4</ele>
  <time>2026-09-01T01:13:31Z</time>
  <course>182.0</course>
  <speed>0.77</speed>
  <fix>3d</fix>
</trkpt>
<trkpt lat="33.8100048" lon="-118.3938903">
  <ele>-25.003</ele>
  <time>2026-09-01T01:13:31Z</time>
  <course>182.03</course>
  <speed>0.7510659092250159</speed>
  <fix>3d</fix>
</trkpt>
<trkpt lat="33.8100053" lon="-118.3938901">
  <ele>-24.4</ele>
  <time>2026-09-01T01:13:31Z</time>
  <course>182.0</course>
  <speed>0.77</speed>
  <fix>3d</fix>
</trkpt>
<trkpt lat="33.8100041" lon="-118.3938903">
  <ele>-25.008</ele>
  <time>2026-09-01T01:13:31Z</time>
  <course>182.03</course>
  <speed>0.7510659092250159</speed>
  <fix>3d</fix>
</trkpt>
<trkpt lat="33.8100053" lon="-118.3938901">
  <ele>-24.4</ele>
  <time>2026-09-01T01:13:31Z</time>
  <course>182.0</course>
  <speed>0.77</speed>
  <fix>3d</fix>
</trkpt>
<trkpt lat="33.8100034" lon="-118.3938903">
  <ele>-25.011</ele>
  <time>2026-09-01T01:13:31Z</time>
  <course>182.03</course>
  <speed>0.7510659092250159</speed>
  <fix>3d</fix>
</trkpt>
<trkpt lat="33.810004" lon="-118.3938902">
  <ele>-24.41</ele>
  <time>2026-09-01T01:13:31Z</time>
  <course>181.99</course>
  <speed>0.77</speed>
  <fix>3d</fix>
</trkpt>
<trkpt lat="33.8100027" lon="-118.3938904">
  <ele>-25.013</ele>
  <time>2026-09-01T01:13:31Z</time>
  <course>182.03</course>
  <speed>0.7510659092250159</speed>
  <fix>3d</fix>
</trkpt>
<trkpt lat="33.810004" lon="-118.3938902">
  <ele>-24.41</ele>
  <time>2026-09-01T01:13:31Z</time>
  <course>181.99</course>
  <speed>0.77</speed>
  <fix>3d</fix>
</trkpt>
<trkpt lat="33.810002" lon="-118.3938904">
  <ele>-25.013</ele>
  <time>2026-09-01T01:13:31Z</time>
  <course>182.03</course>
  <speed>0.7510659092250159</speed>
  <fix>3d</fix>
</trkpt>
<trkpt lat="33.8100026" lon="-118.3938903">
  <ele>-24.41</ele>
  <time>2026-09-01T01:13:31Z</time>
  <course>181.99</course>
  <speed>0.77</speed>
  <fix>3d</fix>
</trkpt>
<trkpt lat="33.8100013" lon="-118.3938904">
  <ele>-25.013</ele>
  <time>2026-09-01T01:13:31Z</time>
  <course>182.03</course>
  <speed>0.7510659092250159</speed>
  <fix>3d</fix>
</trkpt>
<trkpt lat="33.8100026" lon="-118.3938903">
  <ele>-24.41</ele>
  <time>2026-09-01T01:13:31Z</time>
  <course>181.99</course>
  <speed>0.77</speed>
  <fix>3d</fix>
</trkpt>
<trkpt lat="33.8100006" lon="-118.3938905">
  <ele>-25.012</ele>
  <time>2026-09-01T01:13:31Z</time>
  <course>182.03</course>
  <speed>0.7510659092250159</speed>
  <fix>3d</fix>
</trkpt>
<trkpt lat="33.8100012" lon="-118.3938903">
  <ele>-24.41</ele>
  <time>2026-09-01T01:13:31Z</time>
  <course>181.98</course>
  <speed>0.77</speed>
  <fix>3d</fix>
</trkpt>
<trkpt lat="33.8099999" lon="-118.3938905">
  <ele>-25.013</ele>
  <time>2026-09-01T01:13:31Z</time>
  <course>182.03</course>
  <speed>0.7510659092250159</speed>
  <fix>3d</fix>
</trkpt>
<trkpt lat="33.8100012" lon="-118.3938903">
  <ele>-24.41</ele>
  <time>2026-09-01T01:13:31Z</time>
  <course>181.98</course>
  <speed>0.77</speed>
  <fix>3d</fix>
</trkpt>
<trkpt lat="33.8099992" lon="-118.3938905">
  <ele>-25.014</ele>
  <time>2026-09-01T01:13:31Z</time>
  <course>182.03</course>
  <speed>0.7510659092250159</speed>
  <fix>3d</fix>
</trkpt>
<trkpt lat="33.8099998" lon="-118.3938904">
  <ele>-24.42</ele>
  <time>2026-09-01T01:13:31Z</time>
  <course>181.98</course>
  <speed>0.77</speed>
  <fix>3d</fix>
</trkpt>
<trkpt lat="33.8099985" lon="-118.3938906">
  <ele>-25.014</ele>
  <time>2026-09-01T01:13:31Z</time>
  <course>182.03</course>
  <speed>0.7510659092250159</speed>
  <fix>3d</fix>
</trkpt>
<trkpt lat="33.8099998" lon="-118.3938904">
  <ele>-24.42</ele>
  <time>2026-09-01T01:13:31Z</time>
  <course>181.98</course>
  <speed>0.77</speed>
  <fix>3d</fix>
</trkpt>
<trkpt lat="33.8099978" lon="-118.3938906">
  <ele>-25.014</ele>
  <time>2026-09-01T01:13:31Z</time>
  <course>182.02</course>
  <speed>0.7510659092250159</speed>
  <fix>3d</fix>
</trkpt>
<trkpt lat="33.8099984" lon="-118.3938904">
  <ele>-24.42</ele>
  <time>2026-09-01T01:13:31Z</time>
  <course>181.97</course>
  <speed>0.77</speed>
  <fix>3d</fix>
</trkpt>
<trkpt lat="33.8099971" lon="-118.3938906">
  <ele>-25.014</ele>
  <time>2026-09-01T01:13:31Z</time>
  <course>182.02</course>
  <speed>0.7510659092250159</speed>
  <fix>3d</fix>
</trkpt>
<trkpt lat="33.8099984" lon="-118.3938904">
  <ele>-24.42</ele>
  <time>2026-09-01T01:13:31Z</time>
  <course>181.97</course>
  <speed>0.77</speed>
  <fix>3d</fix>
</trkpt>
<trkpt lat="33.8099964" lon="-118.3938906">
  <ele>-25.014</ele>
  <time>2026-09-01T01:13:31Z</time>
  <course>182.02</course>
  <speed>0.7510659092250159</speed>
  <fix>3d</fix>
</trkpt>
<trkpt lat="33.809997" lon="-118.3938905">
  <ele>-24.42</ele>
  <time>2026-09-01T01:13:31Z</time>
  <course>181.97</course>
  <speed>0.77</speed>
  <fix>3d</fix>
</trkpt>
<trkpt lat="33.8099957" lon="-118.3938907">
  <ele>-25.014</ele>
  <time>2026-09-01T01:13:31Z</time>
  <course>182.02</course>
  <speed>0.7510659092250159</speed>
  <fix>3d</fix>
</trkpt>
<trkpt lat="33.809997" lon="-118.3938905">
  <ele>-24.42</ele>
  <time>2026-09-01T01:13:31Z</time>
  <course>181.97</course>
  <speed>0.77</speed>
  <fix>3d</fix>
</trkpt>
<trkpt lat="33.809995" lon="-118.3938907">
  <ele>-25.016</ele>
  <time>2026-09-01T01:13:31Z</time>
  <course>182.02</course>
  <speed>0.7510659092250159</speed>
  <fix>3d</fix>
</trkpt>
<trkpt lat="33.8099957" lon="-118.3938905">
  <ele>-24.42</ele>
  <time>2026-09-01T01:13:31Z</time>
  <course>181.97</course>
  <speed>0.77</speed>
  <fix>3d</fix>
</trkpt>
<trkpt lat="33.8099943" lon="-118.3938907">
  <ele>-25.017</ele>
  <time>2026-09-01T01:13:31Z</time>
  <course>182.02</course>
  <speed>0.7510659092250159</speed>
  <fix>3d</fix>
</trkpt>
<trkpt lat="33.8099957" lon="-118.3938905">
  <ele>-24.42</ele>
  <time>2026-09-01T01:13:31Z</time>
  <course>181.97</course>
  <speed>0.77</speed>
  <fix>3d</fix>
</trkpt>
<trkpt lat="33.8099936" lon="-118.3938908">
  <ele>-25.019</ele>
  <time>2026-09-01T01:13:31Z</time>
  <course>182.02</course>
  <speed>0.7510659092250159</speed>
  <fix>3d</fix>
</trkpt>
<trkpt lat="33.8099943" lon="-118.3938906">
  <ele>-24.42</ele>
  <time>2026-09-01T01:13:31Z</time>
  <course>181.96</course>
  <speed>0.77</speed>
  <fix>3d</fix>
</trkpt>
<trkpt lat="33.8099929" lon="-118.3938908">
  <ele>-25.019</ele>
  <time>2026-09-01T01:13:31Z</time>
  <course>182.02</course>
  <speed>0.7510659092250159</speed>
  <fix>3d</fix>
</trkpt>
<trkpt lat="33.8099943" lon="-118.3938906">
  <ele>-24.42</ele>
  <time>2026-09-01T01:13:31Z</time>
  <course>181.96</course>
  <speed>0.77</speed>
  <fix>3d</fix>
</trkpt>
<trkpt lat="33.8099922" lon="-118.3938908">
  <ele>-25.02</ele>
  <time>2026-09-01T01:13:31Z</time>
  <course>182.02</course>
  <speed>0.7510659092250159</speed>
  <fix>3d</fix>
</trkpt>
<trkpt lat="33.8099929" lon="-118.3938907">
  <ele>-24.43</ele>
  <time>2026-09-01T01:13:31Z</time>
  <course>181.96</course>
  <speed>0.77</speed>
  <fix>3d</fix>
</trkpt>
<trkpt lat="33.8099915" lon="-118.3938908">
  <ele>-25.021</ele>
  <time>2026-09-01T01:13:31Z</time>
  <course>182.02</course>
  <speed>0.7510659092250159</speed>
  <fix>3d</fix>
</trkpt>
<trkpt lat="33.8099929" lon="-118.3938907">
  <ele>-24.43</ele>
  <time>2026-09-01T01:13:31Z</time>
  <course>181.96</course>
  <speed>0.77</speed>
  <fix>3d</fix>
</trkpt>
<trkpt lat="33.8099908" lon="-118.3938909">
  <ele>-25.021</ele>
  <time>2026-09-01T01:13:31Z</time>
  <course>182.02</course>
  <speed>0.7510659092250159</speed>
  <fix>3d</fix>
</trkpt>
<trkpt lat="33.8099914" lon="-118.3938907">
  <ele>-24.43</ele>
  <time>2026-09-01T01:13:31Z</time>
  <course>181.95</course>
  <speed>0.77</speed>
  <fix>3d</fix>
</trkpt>
<trkpt lat="33.8099901" lon="-118.3938909">
  <ele>-25.019</ele>
  <time>2026-09-01T01:13:31Z</time>
  <course>182.01</course>
  <speed>0.7510659092250159</speed>
  <fix>3d</fix>
</trkpt>
<trkpt lat="33.8099914" lon="-118.3938907">
  <ele>-24.43</ele>
  <time>2026-09-01T01:13:31Z</time>
  <course>181.95</course>
  <speed>0.77</speed>
  <fix>3d</fix>
</trkpt>
<trkpt lat="33.8099894" lon="-118.3938909">
  <ele>-25.016</ele>
  <time>2026-09-01T01:13:31Z</time>
  <course>182.02</course>
  <speed>0.7510659092250159</speed>
  <fix>3d</fix>
</trkpt>
<trkpt lat="33.8099901" lon="-118.3938908">
  <ele>-24.43</ele>
  <time>2026-09-01T01:13:31Z</time>
  <course>181.95</course>
  <speed>0.77</speed>
  <fix>3d</fix>
</trkpt>
<trkpt lat="33.8099887" lon="-118.393891">
  <ele>-25.013</ele>
  <time>2026-09-01T01:13:31Z</time>
  <course>182.02</course>
  <speed>0.7510659092250159</speed>
  <fix>3d</fix>
</trkpt>
<trkpt lat="33.8099901" lon="-118.3938908">
  <ele>-24.43</ele>
  <time>2026-09-01T01:13:31Z</time>
  <course>181.95</course>
  <speed>0.77</speed>
  <fix>3d</fix>
</trkpt>
<trkpt lat="33.809988" lon="-118.393891">
  <ele>-25.009</ele>
  <time>2026-09-01T01:13:31Z</time>
  <course>182.01</course>
  <speed>0.7510659092250159</speed>
  <fix>3d</fix>
</trkpt>
<trkpt lat="33.8099887" lon="-118.3938908">
  <ele>-24.42</ele>
  <time>2026-09-01T01:13:31Z</time>
  <course>181.94</course>
  <speed>0.77</speed>
  <fix>3d</fix>
</trkpt>
<trkpt lat="33.8099873" lon="-118.393891">
  <ele>-25.008</ele>
  <time>2026-09-01T01:13:31Z</time>
  <course>182.01</course>
  <speed>0.7510659092250159</speed>
  <fix>3d</fix>
</trkpt>
<trkpt lat="33.8099887" lon="-118.3938908">
  <ele>-24.42</ele>
  <time>2026-09-01T01:13:31Z</time>
  <course>181.94</course>
  <speed>0.77</speed>
  <fix>3d</fix>
</trkpt>
<trkpt lat="33.8099866" lon="-118.393891">
  <ele>-25.008</ele>
  <time>2026-09-01T01:13:31Z</time>
  <course>182.01</course>
  <speed>0.7510659092250159</speed>
  <fix>3d</fix>
</trkpt>
<trkpt lat="33.8099873" lon="-118.3938909">
  <ele>-24.42</ele>
  <time>2026-09-01T01:13:31Z</time>
  <course>181.94</course>
  <speed>0.77</speed>
  <fix>3d</fix>
</trkpt>
<trkpt lat="33.8099859" lon="-118.3938911">
  <ele>-25.011</ele>
  <time>2026-09-01T01:13:31Z</time>
  <course>182.01</course>
  <speed>0.7510659092250159</speed>
  <fix>3d</fix>
</trkpt>
<trkpt lat="33.8099873" lon="-118.3938909">
  <ele>-24.42</ele>
  <time>2026-09-01T01:13:31Z</time>
  <course>181.94</course>
  <speed>0.77</speed>
  <fix>3d</fix>
</trkpt>
<trkpt lat="33.8099852" lon="-118.3938911">
  <ele>-25.013</ele>
  <time>2026-09-01T01:13:31Z</time>
  <course>182.01</course>
  <speed>0.7510659092250159</speed>
  <fix>3d</fix>
</trkpt>
<trkpt lat="33.8099859" lon="-118.3938909">
  <ele>-24.42</ele>
  <time>2026-09-01T01:13:31Z</time>
  <course>181.94</course>
  <speed>0.77</speed>
  <fix>3d</fix>
</trkpt>
<trkpt lat="33.8099845" lon="-118.3938911">
  <ele>-25.016</ele>
  <time>2026-09-01T01:13:31Z</time>
  <course>182.01</course>
  <speed>0.7510659092250159</speed>
  <fix>3d</fix>
</trkpt>
<trkpt lat="33.8099859" lon="-118.3938909">
  <ele>-24.42</ele>
  <time>2026-09-01T01:13:31Z</time>
  <course>181.94</course>
  <speed>0.77</speed>
  <fix>3d</fix>
</trkpt>
<trkpt lat="33.8099838" lon="-118.3938912">
  <ele>-25.019</ele>
  <time>2026-09-01T01:13:31Z</time>
  <course>182.01</course>
  <speed>0.7510659092250159</speed>
  <fix>3d</fix>
</trkpt>
<trkpt lat="33.8099845" lon="-118.393891">
  <ele>-24.42</ele>
  <time>2026-09-01T01:13:31Z</time>
  <course>181.93</course>
  <speed>0.77</speed>
  <fix>3d</fix>
</trkpt>
<trkpt lat="33.8099831" lon="-118.3938912">
  <ele>-25.025</ele>
  <time>2026-09-01T01:13:31Z</time>
  <course>182.01</course>
  <speed>0.7510659092250159</speed>
  <fix>3d</fix>
</trkpt>
<trkpt lat="33.8099845" lon="-118.393891">
  <ele>-24.42</ele>
  <time>2026-09-01T01:13:31Z</time>
  <course>181.93</course>
  <speed>0.77</speed>
  <fix>3d</fix>
</trkpt>
<trkpt lat="33.8099824" lon="-118.3938912">
  <ele>-25.031</ele>
  <time>2026-09-01T01:13:31Z</time>
  <course>182.01</course>
  <speed>0.7510659092250159</speed>
  <fix>3d</fix>
</trkpt>
<trkpt lat="33.8099832" lon="-118.3938911">
  <ele>-24.43</ele>
  <time>2026-09-01T01:13:31Z</time>
  <course>181.93</course>
  <speed>0.77</speed>
  <fix>3d</fix>
</trkpt>
<trkpt lat="33.8099818" lon="-118.3938912">
  <ele>-25.037</ele>
  <time>2026-09-01T01:13:31Z</time>
  <course>182.01</course>
  <speed>0.7510659092250159</speed>
  <fix>3d</fix>
</trkpt>
<trkpt lat="33.8099832" lon="-118.3938911">
  <ele>-24.43</ele>
  <time>2026-09-01T01:13:31Z</time>
  <course>181.93</course>
  <speed>0.77</speed>
  <fix>3d</fix>
</trkpt>
<trkpt lat="33.8099811" lon="-118.3938913">
  <ele>-25.043</ele>
  <time>2026-09-01T01:13:31Z</time>
  <course>182.01</course>
  <speed>0.7510659092250159</speed>
  <fix>3d</fix>
</trkpt>
<trkpt lat="33.8099818" lon="-118.3938911">
  <ele>-24.44</ele>
  <time>2026-09-01T01:13:31Z</time>
  <course>181.93</course>
  <speed>0.77</speed>
  <fix>3d</fix>
</trkpt>
<trkpt lat="33.8099804" lon="-118.3938913">
  <ele>-25.048</ele>
  <time>2026-09-01T01:13:31Z</time>
  <course>182.01</course>
  <speed>0.7510659092250159</speed>
  <fix>3d</fix>
</trkpt>
<trkpt lat="33.8099818" lon="-118.3938911">
  <ele>-24.44</ele>
  <time>2026-09-01T01:13:31Z</time>
  <course>181.93</course>
  <speed>0.77</speed>
  <fix>3d</fix>
</trkpt>
<trkpt lat="33.8099797" lon="-118.3938913">
  <ele>-25.051</ele>
  <time>2026-09-01T01:13:31Z</time>
  <course>182.01</course>
  <speed>0.7510659092250159</speed>
  <fix>3d</fix>
</trkpt>
<trkpt lat="33.8099804" lon="-118.3938912">
  <ele>-24.45</ele>
  <time>2026-09-01T01:13:31Z</time>
  <course>181.92</course>
  <speed>0.77</speed>
  <fix>3d</fix>
</trkpt>
<trkpt lat="33.809979" lon="-118.3938914">
  <ele>-25.054</ele>
  <time>2026-09-01T01:13:31Z</time>
  <course>182.01</course>
  <speed>0.7510659092250159</speed>
  <fix>3d</fix>
</trkpt>
<trkpt lat="33.8099804" lon="-118.3938912">
  <ele>-24.45</ele>
  <time>2026-09-01T01:13:31Z</time>
  <course>181.92</course>
  <speed>0.77</speed>
  <fix>3d</fix>
</trkpt>
<trkpt lat="33.8099783" lon="-118.3938914">
  <ele>-25.057</ele>
  <time>2026-09-01T01:13:31Z</time>
  <course>182.01</course>
  <speed>0.7510659092250159</speed>
  <fix>3d</fix>
</trkpt>
<trkpt lat="33.809979" lon="-118.3938912">
  <ele>-24.45</ele>
  <time>2026-09-01T01:13:31Z</time>
  <course>181.92</course>
  <speed>0.77</speed>
  <fix>3d</fix>
</trkpt>
<trkpt lat="33.8099776" lon="-118.3938914">
  <ele>-25.058</ele>
  <time>2026-09-01T01:13:31Z</time>
  <course>182.01</course>
  <speed>0.7510659092250159</speed>
  <fix>3d</fix>
</trkpt>
<trkpt lat="33.809979" lon="-118.3938912">
  <ele>-24.45</ele>
  <time>2026-09-01T01:13:31Z</time>
  <course>181.92</course>
  <speed>0.77</speed>
  <fix>3d</fix>
</trkpt>
<trkpt lat="33.8099769" lon="-118.3938914">
  <ele>-25.056</ele>
  <time>2026-09-01T01:13:31Z</time>
  <course>182.0</course>
  <speed>0.7510659092250159</speed>
  <fix>3d</fix>
</trkpt>
<trkpt lat="33.8099775" lon="-118.3938913">
  <ele>-24.46</ele>
  <time>2026-09-01T01:13:31Z</time>
  <course>181.91</course>
  <speed>0.77</speed>
  <fix>3d</fix>
</trkpt>
<trkpt lat="33.8099762" lon="-118.3938915">
  <ele>-25.051</ele>
  <time>2026-09-01T01:13:31Z</time>
  <course>182.0</course>
  <speed>0.7510659092250159</speed>
  <fix>3d</fix>
</trkpt>
<trkpt lat="33.8099775" lon="-118.3938913">
  <ele>-24.46</ele>
  <time>2026-09-01T01:13:31Z</time>
  <course>181.91</course>
  <speed>0.77</speed>
  <fix>3d</fix>
</trkpt>
<trkpt lat="33.8099755" lon="-118.3938915">
  <ele>-25.044</ele>
  <time>2026-09-01T01:13:31Z</time>
  <course>182.0</course>
  <speed>0.7510659092250159</speed>
  <fix>3d</fix>
</trkpt>
<trkpt lat="33.8099761" lon="-118.3938913">
  <ele>-24.45</ele>
  <time>2026-09-01T01:13:31Z</time>
  <course>181.9</course>
  <speed>0.77</speed>
  <fix>3d</fix>
</trkpt>
<trkpt lat="33.8099748" lon="-118.3938915">
  <ele>-25.034</ele>
  <time>2026-09-01T01:13:31Z</time>
  <course>182.0</course>
  <speed>0.7510659092250159</speed>
  <fix>3d</fix>
</trkpt>
<trkpt lat="33.8099761" lon="-118.3938913">
  <ele>-24.45</ele>
  <time>2026-09-01T01:13:31Z</time>
  <course>181.9</course>
  <speed>0.77</speed>
  <fix>3d</fix>
</trkpt>
<trkpt lat="33.8099741" lon="-118.3938915">
  <ele>-25.022</ele>
  <time>2026-09-01T01:13:31Z</time>
  <course>182.0</course>
  <speed>0.7510659092250159</speed>
  <fix>3d</fix>
</trkpt>
<trkpt lat="33.8099748" lon="-118.3938914">
  <ele>-24.44</ele>
  <time>2026-09-01T01:13:31Z</time>
  <course>181.89</course>
  <speed>0.77</speed>
  <fix>3d</fix>
</trkpt>
<trkpt lat="33.8099734" lon="-118.3938916">
  <ele>-25.009</ele>
  <time>2026-09-01T01:13:31Z</time>
  <course>182.0</course>
  <speed>0.7510659092250159</speed>
  <fix>3d</fix>
</trkpt>
<trkpt lat="33.8099748" lon="-118.3938914">
  <ele>-24.44</ele>
  <time>2026-09-01T01:13:31Z</time>
  <course>181.89</course>
  <speed>0.77</speed>
  <fix>3d</fix>
</trkpt>
<trkpt lat="33.8099727" lon="-118.3938916">
  <ele>-24.996</ele>
  <time>2026-09-01T01:13:31Z</time>
  <course>182.0</course>
  <speed>0.7510659092250159</speed>
  <fix>3d</fix>
</trkpt>
<trkpt lat="33.8099733" lon="-118.3938914">
  <ele>-24.42</ele>
  <time>2026-09-01T01:13:31Z</time>
  <course>181.89</course>
  <speed>0.77</speed>
  <fix>3d</fix>
</trkpt>
<trkpt lat="33.809972" lon="-118.3938916">
  <ele>-24.982</ele>
  <time>2026-09-01T01:13:31Z</time>
  <course>182.0</course>
  <speed>0.7510659092250159</speed>
  <fix>3d</fix>
</trkpt>
<trkpt lat="33.8099733" lon="-118.3938914">
  <ele>-24.42</ele>
  <time>2026-09-01T01:13:31Z</time>
  <course>181.89</course>
  <speed>0.77</speed>
  <fix>3d</fix>
</trkpt>
<trkpt lat="33.8099713" lon="-118.3938917">
  <ele>-24.968</ele>
  <time>2026-09-01T01:13:31Z</time>
  <course>182.0</course>
  <speed>0.7510659092250159</speed>
  <fix>3d</fix>
</trkpt>
<trkpt lat="33.809972" lon="-118.3938915">
  <ele>-24.39</ele>
  <time>2026-09-01T01:13:31Z</time>
  <course>181.88</course>
  <speed>0.77</speed>
  <fix>3d</fix>
</trkpt>
<trkpt lat="33.8099706" lon="-118.3938917">
  <ele>-24.954</ele>
  <time>2026-09-01T01:13:31Z</time>
  <course>182.0</course>
  <speed>0.7510659092250159</speed>
  <fix>3d</fix>
</trkpt>
<trkpt lat="33.809972" lon="-118.3938915">
  <ele>-24.39</ele>
  <time>2026-09-01T01:13:31Z</time>
  <course>181.88</course>
  <speed>0.77</speed>
  <fix>3d</fix>
</trkpt>
<trkpt lat="33.8099699" lon="-118.3938917">
  <ele>-24.941</ele>
  <time>2026-09-01T01:13:31Z</time>
  <course>182.0</course>
  <speed>0.7510659092250159</speed>
  <fix>3d</fix>
</trkpt>
<trkpt lat="33.8099706" lon="-118.3938916">
  <ele>-24.36</ele>
  <time>2026-09-01T01:13:31Z</time>
  <course>181.88</course>
  <speed>0.77</speed>
  <fix>3d</fix>
</trkpt>
<trkpt lat="33.8099692" lon="-118.3938917">
  <ele>-24.931</ele>
  <time>2026-09-01T01:13:31Z</time>
  <course>182.0</course>
  <speed>0.7510659092250159</speed>
  <fix>3d</fix>
</trkpt>
<trkpt lat="33.8099706" lon="-118.3938916">
  <ele>-24.36</ele>
  <time>2026-09-01T01:13:31Z</time>
  <course>181.88</course>
  <speed>0.77</speed>
  <fix>3d</fix>
</trkpt>
<trkpt lat="33.8099685" lon="-118.3938918">
  <ele>-24.924</ele>
  <time>2026-09-01T01:13:31Z</time>
  <course>182.0</course>
  <speed>0.7510659092250159</speed>
  <fix>3d</fix>
</trkpt>
<trkpt lat="33.8099692" lon="-118.3938916">
  <ele>-24.35</ele>
  <time>2026-09-01T01:13:31Z</time>
  <course>181.88</course>
  <speed>0.77</speed>
  <fix>3d</fix>
</trkpt>
<trkpt lat="33.8099678" lon="-118.3938918">
  <ele>-24.92</ele>
  <time>2026-09-01T01:13:31Z</time>
  <course>182.0</course>
  <speed>0.7510659092250159</speed>
  <fix>3d</fix>
</trkpt>
<trkpt lat="33.8099692" lon="-118.3938916">
  <ele>-24.35</ele>
  <time>2026-09-01T01:13:31Z</time>
  <course>181.88</course>
  <speed>0.77</speed>
  <fix>3d</fix>
</trkpt>
<trkpt lat="33.8099671" lon="-118.3938918">
  <ele>-24.919</ele>
  <time>2026-09-01T01:13:31Z</time>
  <course>182.0</course>
  <speed>0.7510659092250159</speed>
  <fix>3d</fix>
</trkpt>
<trkpt lat="33.8099678" lon="-118.3938917">
  <ele>-24.33</ele>
  <time>2026-09-01T01:13:31Z</time>
  <course>181.88</course>
  <speed>0.77</speed>
  <fix>3d</fix>
</trkpt>
<trkpt lat="33.8099664" lon="-118.3938918">
  <ele>-24.921</ele>
  <time>2026-09-01T01:13:31Z</time>
  <course>182.0</course>
  <speed>0.7510659092250159</speed>
  <fix>3d</fix>
</trkpt>
<trkpt lat="33.8099678" lon="-118.3938917">
  <ele>-24.33</ele>
  <time>2026-09-01T01:13:31Z</time>
  <course>181.88</course>
  <speed>0.77</speed>
  <fix>3d</fix>
</trkpt>
<trkpt lat="33.8099657" lon="-118.3938919">
  <ele>-24.926</ele>
  <time>2026-09-01T01:13:31Z</time>
  <course>182.0</course>
  <speed>0.7510659092250159</speed>
  <fix>3d</fix>
</trkpt>
<trkpt lat="33.8099665" lon="-118.3938917">
  <ele>-24.33</ele>
  <time>2026-09-01T01:13:31Z</time>
  <course>181.88</course>
  <speed>0.77</speed>
  <fix>3d</fix>
</trkpt>
<trkpt lat="33.809965" lon="-118.3938919">
  <ele>-24.933</ele>
  <time>2026-09-01T01:13:31Z</time>
  <course>182.0</course>
  <speed>0.7510659092250159</speed>
  <fix>3d</fix>
</trkpt>
<trkpt lat="33.8099665" lon="-118.3938917">
  <ele>-24.33</ele>
  <time>2026-09-01T01:13:31Z</time>
  <course>181.88</course>
  <speed>0.77</speed>
  <fix>3d</fix>
</trkpt>
<trkpt lat="33.8099643" lon="-118.3938919">
  <ele>-24.94</ele>
  <time>2026-09-01T01:13:31Z</time>
  <course>182.0</course>
  <speed>0.7510659092250159</speed>
  <fix>3d</fix>
</trkpt>
<trkpt lat="33.8099651" lon="-118.3938918">
  <ele>-24.33</ele>
  <time>2026-09-01T01:13:31Z</time>
  <course>181.89</course>
  <speed>0.77</speed>
  <fix>3d</fix>
</trkpt>
<trkpt lat="33.8099637" lon="-118.393892">
  <ele>-24.949</ele>
  <time>2026-09-01T01:13:31Z</time>
  <course>182.0</course>
  <speed>0.7510659092250159</speed>
  <fix>3d</fix>
</trkpt>
<trkpt lat="33.8099651" lon="-118.3938918">
  <ele>-24.33</ele>
  <time>2026-09-01T01:13:31Z</time>
  <course>181.89</course>
  <speed>0.77</speed>
  <fix>3d</fix>
</trkpt>
<trkpt lat="33.809963" lon="-118.393892">
  <ele>-24.958</ele>
  <time>2026-09-01T01:13:31Z</time>
  <course>182.0</course>
  <speed>0.7510659092250159</speed>
  <fix>3d</fix>
</trkpt>
<trkpt lat="33.8099637" lon="-118.3938918">
  <ele>-24.35</ele>
  <time>2026-09-01T01:13:31Z</time>
  <course>181.89</course>
  <speed>0.77</speed>
  <fix>3d</fix>
</trkpt>
<trkpt lat="33.8099623" lon="-118.393892">
  <ele>-24.968</ele>
  <time>2026-09-01T01:13:31Z</time>
  <course>182.0</course>
  <speed>0.7510659092250159</speed>
  <fix>3d</fix>
</trkpt>
<trkpt lat="33.8099637" lon="-118.3938918">
  <ele>-24.35</ele>
  <time>2026-09-01T01:13:31Z</time>
  <course>181.89</course>
  <speed>0.77</speed>
  <fix>3d</fix>
</trkpt>
<trkpt lat="33.8099616" lon="-118.393892">
  <ele>-24.979</ele>
  <time>2026-09-01T01:13:31Z</time>
  <course>182.0</course>
  <speed>0.7510659092250159</speed>
  <fix>3d</fix>
</trkpt>
<trkpt lat="33.8099622" lon="-118.3938919">
  <ele>-24.36</ele>
  <time>2026-09-01T01:13:31Z</time>
  <course>181.88</course>
  <speed>0.77</speed>
  <fix>3d</fix>
</trkpt>
<trkpt lat="33.8099609" lon="-118.3938921">
  <ele>-24.989</ele>
  <time>2026-09-01T01:13:31Z</time>
  <course>181.99</course>
  <speed>0.7510659092250159</speed>
  <fix>3d</fix>
</trkpt>
<trkpt lat="33.8099622" lon="-118.3938919">
  <ele>-24.36</ele>
  <time>2026-09-01T01:13:31Z</time>
  <course>181.88</course>
  <speed>0.77</speed>
  <fix>3d</fix>
</trkpt>
<trkpt lat="33.8099602" lon="-118.3938921">
  <ele>-24.998</ele>
  <time>2026-09-01T01:13:31Z</time>
  <course>181.99</course>
  <speed>0.7510659092250159</speed>
  <fix>3d</fix>
</trkpt>
<trkpt lat="33.8099609" lon="-118.3938919">
  <ele>-24.38</ele>
  <time>2026-09-01T01:13:31Z</time>
  <course>181.88</course>
  <speed>0.77</speed>
  <fix>3d</fix>
</trkpt>
<trkpt lat="33.8099595" lon="-118.3938921">
  <ele>-25.006</ele>
  <time>2026-09-01T01:13:31Z</time>
  <course>182.0</course>
  <speed>0.7510659092250159</speed>
  <fix>3d</fix>
</trkpt>
<trkpt lat="33.8099609" lon="-118.3938919">
  <ele>-24.38</ele>
  <time>2026-09-01T01:13:31Z</time>
  <course>181.88</course>
  <speed>0.77</speed>
  <fix>3d</fix>
</trkpt>
<trkpt lat="33.8099588" lon="-118.3938921">
  <ele>-25.013</ele>
  <time>2026-09-01T01:13:31Z</time>
  <course>182.0</course>
  <speed>0.7510659092250159</speed>
  <fix>3d</fix>
</trkpt>
<trkpt lat="33.8099595" lon="-118.393892">
  <ele>-24.4</ele>
  <time>2026-09-01T01:13:31Z</time>
  <course>181.88</course>
  <speed>0.77</speed>
  <fix>3d</fix>
</trkpt>
<trkpt lat="33.8099581" lon="-118.3938922">
  <ele>-25.018</ele>
  <time>2026-09-01T01:13:31Z</time>
  <course>181.99</course>
  <speed>0.7510659092250159</speed>
  <fix>3d</fix>
</trkpt>
<trkpt lat="33.8099595" lon="-118.393892">
  <ele>-24.4</ele>
  <time>2026-09-01T01:13:31Z</time>
  <course>181.88</course>
  <speed>0.77</speed>
  <fix>3d</fix>
</trkpt>
<trkpt lat="33.8099574" lon="-118.3938922">
  <ele>-25.021</ele>
  <time>2026-09-01T01:13:31Z</time>
  <course>181.99</course>
  <speed>0.7510659092250159</speed>
  <fix>3d</fix>
</trkpt>
<trkpt lat="33.8099581" lon="-118.393892">
  <ele>-24.41</ele>
  <time>2026-09-01T01:13:31Z</time>
  <course>181.87</course>
  <speed>0.77</speed>
  <fix>3d</fix>
</trkpt>
<trkpt lat="33.8099567" lon="-118.3938922">
  <ele>-25.024</ele>
  <time>2026-09-01T01:13:31Z</time>
  <course>181.99</course>
  <speed>0.7510659092250159</speed>
  <fix>3d</fix>
</trkpt>
<trkpt lat="33.8099581" lon="-118.393892">
  <ele>-24.41</ele>
  <time>2026-09-01T01:13:31Z</time>
  <course>181.87</course>
  <speed>0.77</speed>
  <fix>3d</fix>
</trkpt>
<trkpt lat="33.809956" lon="-118.3938923">
  <ele>-25.026</ele>
  <time>2026-09-01T01:13:31Z</time>
  <course>181.99</course>
  <speed>0.7510659092250159</speed>
  <fix>3d</fix>
</trkpt>
<trkpt lat="33.8099567" lon="-118.3938921">
  <ele>-24.42</ele>
  <time>2026-09-01T01:13:31Z</time>
  <course>181.87</course>
  <speed>0.77</speed>
  <fix>3d</fix>
</trkpt>
<trkpt lat="33.8099553" lon="-118.3938923">
  <ele>-25.026</ele>
  <time>2026-09-01T01:13:31Z</time>
  <course>181.99</course>
  <speed>0.7510659092250159</speed>
  <fix>3d</fix>
</trkpt>
<trkpt lat="33.8099567" lon="-118.3938921">
  <ele>-24.42</ele>
  <time>2026-09-01T01:13:31Z</time>
  <course>181.87</course>
  <speed>0.77</speed>
  <fix>3d</fix>
</trkpt>
<trkpt lat="33.8099546" lon="-118.3938923">
  <ele>-25.027</ele>
  <time>2026-09-01T01:13:31Z</time>
  <course>181.99</course>
  <speed>0.7510659092250159</speed>
  <fix>3d</fix>
</trkpt>
<trkpt lat="33.8099553" lon="-118.3938922">
  <ele>-24.42</ele>
  <time>2026-09-01T01:13:31Z</time>
  <course>181.86</course>
  <speed>0.77</speed>
  <fix>3d</fix>
</trkpt>
<trkpt lat="33.8099539" lon="-118.3938923">
  <ele>-25.029</ele>
  <time>2026-09-01T01:13:31Z</time>
  <course>181.99</course>
  <speed>0.7510659092250159</speed>
  <fix>3d</fix>
</trkpt>
<trkpt lat="33.8099553" lon="-118.3938922">
  <ele>-24.42</ele>
  <time>2026-09-01T01:13:31Z</time>
  <course>181.86</course>
  <speed>0.77</speed>
  <fix>3d</fix>
</trkpt>
<trkpt lat="33.8099532" lon="-118.3938924">
  <ele>-25.03</ele>
  <time>2026-09-01T01:13:31Z</time>
  <course>181.99</course>
  <speed>0.7510659092250159</speed>
  <fix>3d</fix>
</trkpt>
<trkpt lat="33.8099539" lon="-118.3938922">
  <ele>-24.43</ele>
  <time>2026-09-01T01:13:31Z</time>
  <course>181.86</course>
  <speed>0.77</speed>
  <fix>3d</fix>
</trkpt>
<trkpt lat="33.8099525" lon="-118.3938924">
  <ele>-25.03</ele>
  <time>2026-09-01T01:13:31Z</time>
  <course>181.99</course>
  <speed>0.7510659092250159</speed>
  <fix>3d</fix>
</trkpt>
<trkpt lat="33.8099539" lon="-118.3938922">
  <ele>-24.43</ele>
  <time>2026-09-01T01:13:31Z</time>
  <course>181.86</course>
  <speed>0.77</speed>
  <fix>3d</fix>
</trkpt>
<trkpt lat="33.8099518" lon="-118.3938924">
  <ele>-25.029</ele>
  <time>2026-09-01T01:13:31Z</time>
  <course>181.99</course>
  <speed>0.7510659092250159</speed>
  <fix>3d</fix>
</trkpt>
<trkpt lat="33.8099526" lon="-118.3938923">
  <ele>-24.43</ele>
  <time>2026-09-01T01:13:31Z</time>
  <course>181.86</course>
  <speed>0.77</speed>
  <fix>3d</fix>
</trkpt>
<trkpt lat="33.8099511" lon="-118.3938924">
  <ele>-25.029</ele>
  <time>2026-09-01T01:13:31Z</time>
  <course>181.99</course>
  <speed>0.7510659092250159</speed>
  <fix>3d</fix>
</trkpt>
<trkpt lat="33.8099526" lon="-118.3938923">
  <ele>-24.43</ele>
  <time>2026-09-01T01:13:31Z</time>
  <course>181.86</course>
  <speed>0.77</speed>
  <fix>3d</fix>
</trkpt>
<trkpt lat="33.8099505" lon="-118.3938925">
  <ele>-25.033</ele>
  <time>2026-09-01T01:13:31Z</time>
  <course>181.99</course>
  <speed>0.7510659092250159</speed>
  <fix>3d</fix>
</trkpt>
<trkpt lat="33.8099512" lon="-118.3938923">
  <ele>-24.43</ele>
  <time>2026-09-01T01:13:31Z</time>
  <course>181.85</course>
  <speed>0.77</speed>
  <fix>3d</fix>
</trkpt>
<trkpt lat="33.8099498" lon="-118.3938925">
  <ele>-25.045</ele>
  <time>2026-09-01T01:13:31Z</time>
  <course>181.99</course>
  <speed>0.7510659092250159</speed>
  <fix>3d</fix>
</trkpt>
<trkpt lat="33.8099512" lon="-118.3938923">
  <ele>-24.43</ele>
  <time>2026-09-01T01:13:31Z</time>
  <course>181.85</course>
  <speed>0.77</speed>
  <fix>3d</fix>
</trkpt>
<trkpt lat="33.8099491" lon="-118.3938925">
  <ele>-25.064</ele>
  <time>2026-09-01T01:13:31Z</time>
  <course>181.99</course>
  <speed>0.7510659092250159</speed>
  <fix>3d</fix>
</trkpt>
<trkpt lat="33.8099498" lon="-118.3938924">
  <ele>-24.44</ele>
  <time>2026-09-01T01:13:31Z</time>
  <course>181.86</course>
  <speed>0.77</speed>
  <fix>3d</fix>
</trkpt>
<trkpt lat="33.8099484" lon="-118.3938926">
  <ele>-25.092</ele>
  <time>2026-09-01T01:13:31Z</time>
  <course>181.99</course>
  <speed>0.7510659092250159</speed>
  <fix>3d</fix>
</trkpt>
<trkpt lat="33.8099498" lon="-118.3938924">
  <ele>-24.44</ele>
  <time>2026-09-01T01:13:31Z</time>
  <course>181.86</course>
  <speed>0.77</speed>
  <fix>3d</fix>
</trkpt>
<trkpt lat="33.8099477" lon="-118.3938926">
  <ele>-25.128</ele>
  <time>2026-09-01T01:13:31Z</time>
  <course>181.99</course>
  <speed>0.7510659092250159</speed>
  <fix>3d</fix>
</trkpt>
<trkpt lat="33.8099483" lon="-118.3938924">
  <ele>-24.47</ele>
  <time>2026-09-01T01:13:31Z</time>
  <course>181.87</course>
  <speed>0.77</speed>
  <fix>3d</fix>
</trkpt>
<trkpt lat="33.809947" lon="-118.3938926">
  <ele>-25.173</ele>
  <time>2026-09-01T01:13:31Z</time>
  <course>181.99</course>
  <speed>0.7510659092250159</speed>
  <fix>3d</fix>
</trkpt>
<trkpt lat="33.8099483" lon="-118.3938924">
  <ele>-24.47</ele>
  <time>2026-09-01T01:13:31Z</time>
  <course>181.87</course>
  <speed>0.77</speed>
  <fix>3d</fix>
</trkpt>
<trkpt lat="33.8099463" lon="-118.3938926">
  <ele>-25.228</ele>
  <time>2026-09-01T01:13:31Z</time>
  <course>181.99</course>
  <speed>0.7510659092250159</speed>
  <fix>3d</fix>
</trkpt>
<trkpt lat="33.8099469" lon="-118.3938925">
  <ele>-24.54</ele>
  <time>2026-09-01T01:13:31Z</time>
  <course>181.9</course>
  <speed>0.77</speed>
  <fix>3d</fix>
</trkpt>
<trkpt lat="33.8099456" lon="-118.3938927">
  <ele>-25.289</ele>
  <time>2026-09-01T01:13:31Z</time>
  <course>181.99</course>
  <speed>0.7510659092250159</speed>
  <fix>3d</fix>
</trkpt>
<trkpt lat="33.8099469" lon="-118.3938925">
  <ele>-24.54</ele>
  <time>2026-09-01T01:13:31Z</time>
  <course>181.9</course>
  <speed>0.77</speed>
  <fix>3d</fix>
</trkpt>
<trkpt lat="33.8099449" lon="-118.3938927">
  <ele>-25.359</ele>
  <time>2026-09-01T01:13:31Z</time>
  <course>181.99</course>
  <speed>0.7510659092250159</speed>
  <fix>3d</fix>
</trkpt>
<trkpt lat="33.8099456" lon="-118.3938925">
  <ele>-24.64</ele>
  <time>2026-09-01T01:13:31Z</time>
  <course>181.93</course>
  <speed>0.77</speed>
  <fix>3d</fix>
</trkpt>
<trkpt lat="33.8099442" lon="-118.3938927">
  <ele>-25.433</ele>
  <time>2026-09-01T01:13:31Z</time>
  <course>181.99</course>
  <speed>0.7510659092250159</speed>
  <fix>3d</fix>
</trkpt>
<trkpt lat="33.8099456" lon="-118.3938925">
  <ele>-24.64</ele>
  <time>2026-09-01T01:13:31Z</time>
  <course>181.93</course>
  <speed>0.77</speed>
  <fix>3d</fix>
</trkpt>
<trkpt lat="33.8099435" lon="-118.3938927">
  <ele>-25.514</ele>
  <time>2026-09-01T01:13:31Z</time>
  <course>181.99</course>
  <speed>0.7310950690573697</speed>
  <fix>3d</fix>
</trkpt>
<trkpt lat="33.8099441" lon="-118.3938926">
  <ele>-24.77</ele>
  <time>2026-09-01T01:13:31Z</time>
  <course>181.94</course>
  <speed>0.77</speed>
  <fix>3d</fix>
</trkpt>
<trkpt lat="33.8099428" lon="-118.3938928">
  <ele>-25.599</ele>
  <time>2026-09-01T01:13:31Z</time>
  <course>181.99</course>
  <speed>0.711125867902441</speed>
  <fix>3d</fix>
</trkpt>
<trkpt lat="33.8099441" lon="-118.3938926">
  <ele>-24.77</ele>
  <time>2026-09-01T01:13:31Z</time>
  <course>181.94</course>
  <speed>0.77</speed>
  <fix>3d</fix>
</trkpt>
<trkpt lat="33.8099422" lon="-118.3938928">
  <ele>-25.688</ele>
  <time>2026-09-01T01:13:31Z</time>
  <course>181.99</course>
  <speed>0.6911584478250989</speed>
  <fix>3d</fix>
</trkpt>
<trkpt lat="33.8099428" lon="-118.3938927">
  <ele>-24.92</ele>
  <time>2026-09-01T01:13:31Z</time>
  <course>181.98</course>
  <speed>0.74</speed>
  <fix>3d</fix>
</trkpt>
<trkpt lat="33.8099415" lon="-118.3938928">
  <ele>-25.78</ele>
  <time>2026-09-01T01:13:31Z</time>
  <course>181.99</course>
  <speed>0.6711929677819934</speed>
  <fix>3d</fix>
</trkpt>
<trkpt lat="33.8099428" lon="-118.3938927">
  <ele>-24.92</ele>
  <time>2026-09-01T01:13:31Z</time>
  <course>181.98</course>
  <speed>0.74</speed>
  <fix>3d</fix>
</trkpt>
<trkpt lat="33.8099409" lon="-118.3938929">
  <ele>-25.874</ele>
  <time>2026-09-01T01:13:31Z</time>
  <course>181.98</course>
  <speed>0.6612110101926616</speed>
  <fix>3d</fix>
</trkpt>
<trkpt lat="33.8099415" lon="-118.3938927">
  <ele>-25.08</ele>
  <time>2026-09-01T01:13:31Z</time>
  <course>182.02</course>
  <speed>0.71</speed>
  <fix>3d</fix>
</trkpt>
<trkpt lat="33.8099403" lon="-118.3938929">
  <ele>-25.97</ele>
  <time>2026-09-01T01:13:31Z</time>
  <course>181.99</course>
  <speed>0.6512296062065974</speed>
  <fix>3d</fix>
</trkpt>
<trkpt lat="33.8099415" lon="-118.3938927">
  <ele>-25.08</ele>
  <time>2026-09-01T01:13:31Z</time>
  <course>182.02</course>
  <speed>0.71</speed>
  <fix>3d</fix>
</trkpt>
<trkpt lat="33.8099397" lon="-118.3938929">
  <ele>-26.068</ele>
  <time>2026-09-01T01:13:31Z</time>
  <course>181.99</course>
  <speed>0.6407027391856539</speed>
  <fix>3d</fix>
</trkpt>
<trkpt lat="33.8099403" lon="-118.3938928">
  <ele>-25.26</ele>
  <time>2026-09-01T01:13:31Z</time>
  <course>182.05</course>
  <speed>0.68</speed>
  <fix>3d</fix>
</trkpt>
<trkpt lat="33.8099391" lon="-118.3938929">
  <ele>-26.167</ele>
  <time>2026-09-01T01:13:31Z</time>
  <course>181.98</course>
  <speed>0.6312685640834652</speed>
  <fix>3d</fix>
</trkpt>
<trkpt lat="33.8099403" lon="-118.3938928">
  <ele>-25.26</ele>
  <time>2026-09-01T01:13:31Z</time>
  <course>182.05</course>
  <speed>0.68</speed>
  <fix>3d</fix>
</trkpt>
<trkpt lat="33.8099385" lon="-118.393893">
  <ele>-26.265</ele>
  <time>2026-09-01T01:13:31Z</time>
  <course>181.98</course>
  <speed>0.6307138812488592</speed>
  <fix>3d</fix>
</trkpt>
<trkpt lat="33.8099391" lon="-118.3938928">
  <ele>-25.44</ele>
  <time>2026-09-01T01:13:31Z</time>
  <course>182.07</course>
  <speed>0.66</speed>
  <fix>3d</fix>
</trkpt>
<trkpt lat="33.8099379" lon="-118.393893">
  <ele>-26.363</ele>
  <time>2026-09-01T01:13:31Z</time>
  <course>181.98</course>
  <speed>0.6307138812488592</speed>
  <fix>3d</fix>
</trkpt>
<trkpt lat="33.8099391" lon="-118.3938928">
  <ele>-25.44</ele>
  <time>2026-09-01T01:13:31Z</time>
  <course>182.07</course>
  <speed>0.66</speed>
  <fix>3d</fix>
</trkpt>
<trkpt lat="33.8099373" lon="-118.393893">
  <ele>-26.461</ele>
  <time>2026-09-01T01:13:31Z</time>
  <course>181.98</course>
  <speed>0.6312685640834652</speed>
  <fix>3d</fix>
</trkpt>
<trkpt lat="33.8099379" lon="-118.3938929">
  <ele>-25.61</ele>
  <time>2026-09-01T01:13:31Z</time>
  <course>182.07</course>
  <speed>0.65</speed>
  <fix>3d</fix>
</trkpt>
<trkpt lat="33.8099368" lon="-118.393893">
  <ele>-26.557</ele>
  <time>2026-09-01T01:13:31Z</time>
  <course>181.98</course>
  <speed>0.6412487816752559</speed>
  <fix>3d</fix>
</trkpt>
<trkpt lat="33.8099379" lon="-118.3938929">
  <ele>-25.61</ele>
  <time>2026-09-01T01:13:31Z</time>
  <course>182.07</course>
  <speed>0.65</speed>
  <fix>3d</fix>
</trkpt>
<trkpt lat="33.8099362" lon="-118.3938931">
  <ele>-26.65</ele>
  <time>2026-09-01T01:13:31Z</time>
  <course>181.98</course>
  <speed>0.6512296062065974</speed>
  <fix>3d</fix>
</trkpt>
<trkpt lat="33.8099367" lon="-118.3938929">
  <ele>-25.8</ele>
  <time>2026-09-01T01:13:31Z</time>
  <course>182.06</course>
  <speed>0.66</speed>
  <fix>3d</fix>
</trkpt>
<trkpt lat="33.8099355" lon="-118.3938931">
  <ele>-26.74</ele>
  <time>2026-09-01T01:13:31Z</time>
  <course>181.98</course>
  <speed>0.6711929677819934</speed>
  <fix>3d</fix>
</trkpt>
<trkpt lat="33.8099367" lon="-118.3938929">
  <ele>-25.8</ele>
  <time>2026-09-01T01:13:31Z</time>
  <course>182.06</course>
  <speed>0.66</speed>
  <fix>3d</fix>
</trkpt>
<trkpt lat="33.8099349" lon="-118.3938931">
  <ele>-26.825</ele>
  <time>2026-09-01T01:13:31Z</time>
  <course>181.98</course>
  <speed>0.6911584478250989</speed>
  <fix>3d</fix>
</trkpt>
<trkpt lat="33.8099355" lon="-118.393893">
  <ele>-25.97</ele>
  <time>2026-09-01T01:13:31Z</time>
  <course>182.02</course>
  <speed>0.68</speed>
  <fix>3d</fix>
</trkpt>
<trkpt lat="33.8099342" lon="-118.3938931">
  <ele>-26.906</ele>
  <time>2026-09-01T01:13:31Z</time>
  <course>181.98</course>
  <speed>0.7211102550927978</speed>
  <fix>3d</fix>
</trkpt>
<trkpt lat="33.8099355" lon="-118.393893">
  <ele>-25.97</ele>
  <time>2026-09-01T01:13:31Z</time>
  <course>182.02</course>
  <speed>0.68</speed>
  <fix>3d</fix>
</trkpt>
<trkpt lat="33.8099336" lon="-118.3938932">
  <ele>-26.983</ele>
  <time>2026-09-01T01:13:31Z</time>
  <course>181.98</course>
  <speed>0.7310950690573697</speed>
  <fix>3d</fix>
</trkpt>
<trkpt lat="33.8099342" lon="-118.393893">
  <ele>-26.14</ele>
  <time>2026-09-01T01:13:31Z</time>
  <course>181.97</course>
  <speed>0.72</speed>
  <fix>3d</fix>
</trkpt>
<trkpt lat="33.8099329" lon="-118.3938932">
  <ele>-27.057</ele>
  <time>2026-09-01T01:13:31Z</time>
  <course>181.98</course>
  <speed>0.7410802925459562</speed>
  <fix>3d</fix>
</trkpt>
<trkpt lat="33.8099342" lon="-118.393893">
  <ele>-26.14</ele>
  <time>2026-09-01T01:13:31Z</time>
  <course>181.97</course>
  <speed>0.72</speed>
  <fix>3d</fix>
</trkpt>
<trkpt lat="33.8099322" lon="-118.3938932">
  <ele>-27.131</ele>
  <time>2026-09-01T01:13:31Z</time>
  <course>181.98</course>
  <speed>0.7410802925459562</speed>
  <fix>3d</fix>
</trkpt>
<trkpt lat="33.8099329" lon="-118.3938931">
  <ele>-26.29</ele>
  <time>2026-09-01T01:13:31Z</time>
  <course>181.93</course>
  <speed>0.76</speed>
  <fix>3d</fix>
</trkpt>
<trkpt lat="33.8099315" lon="-118.3938933">
  <ele>-27.203</ele>
  <time>2026-09-01T01:13:31Z</time>
  <course>181.98</course>
  <speed>0.7410802925459562</speed>
  <fix>3d</fix>
</trkpt>
<trkpt lat="33.8099329" lon="-118.3938931">
  <ele>-26.29</ele>
  <time>2026-09-01T01:13:31Z</time>
  <course>181.93</course>
  <speed>0.76</speed>
  <fix>3d</fix>
</trkpt>
<trkpt lat="33.8099308" lon="-118.3938933">
  <ele>-27.272</ele>
  <time>2026-09-01T01:13:31Z</time>
  <course>181.98</course>
  <speed>0.7410802925459562</speed>
  <fix>3d</fix>
</trkpt>
<trkpt lat="33.8099315" lon="-118.3938931">
  <ele>-26.44</ele>
  <time>2026-09-01T01:13:31Z</time>
  <course>181.91</course>
  <speed>0.77</speed>
  <fix>3d</fix>
</trkpt>
<trkpt lat="33.8099301" lon="-118.3938933">
  <ele>-27.341</ele>
  <time>2026-09-01T01:13:31Z</time>
  <course>181.98</course>
  <speed>0.7410802925459562</speed>
  <fix>3d</fix>
</trkpt>
<trkpt lat="33.8099315" lon="-118.3938931">
  <ele>-26.44</ele>
  <time>2026-09-01T01:13:31Z</time>
  <course>181.91</course>
  <speed>0.77</speed>
  <fix>3d</fix>
</trkpt>
<trkpt lat="33.8099295" lon="-118.3938933">
  <ele>-27.408</ele>
  <time>2026-09-01T01:13:31Z</time>
  <course>181.98</course>
  <speed>0.7410802925459562</speed>
  <fix>3d</fix>
</trkpt>
<trkpt lat="33.8099301" lon="-118.3938932">
  <ele>-26.57</ele>
  <time>2026-09-01T01:13:31Z</time>
  <course>181.91</course>
  <speed>0.77</speed>
  <fix>3d</fix>
</trkpt>
<trkpt lat="33.8099288" lon="-118.3938934">
  <ele>-27.476</ele>
  <time>2026-09-01T01:13:31Z</time>
  <course>181.98</course>
  <speed>0.7410802925459562</speed>
  <fix>3d</fix>
</trkpt>
<trkpt lat="33.8099301" lon="-118.3938932">
  <ele>-26.57</ele>
  <time>2026-09-01T01:13:31Z</time>
  <course>181.91</course>
  <speed>0.77</speed>
  <fix>3d</fix>
</trkpt>
<trkpt lat="33.8099281" lon="-118.3938934">
  <ele>-27.545</ele>
  <time>2026-09-01T01:13:31Z</time>
  <course>181.98</course>
  <speed>0.7410802925459562</speed>
  <fix>3d</fix>
</trkpt>
<trkpt lat="33.8099287" lon="-118.3938932">
  <ele>-26.71</ele>
  <time>2026-09-01T01:13:31Z</time>
  <course>181.9</course>
  <speed>0.77</speed>
  <fix>3d</fix>
</trkpt>
<trkpt lat="33.8099274" lon="-118.3938934">
  <ele>-27.613</ele>
  <time>2026-09-01T01:13:31Z</time>
  <course>181.98</course>
  <speed>0.7410802925459562</speed>
  <fix>3d</fix>
</trkpt>
<trkpt lat="33.8099287" lon="-118.3938932">
  <ele>-26.71</ele>
  <time>2026-09-01T01:13:31Z</time>
  <course>181.9</course>
  <speed>0.77</speed>
  <fix>3d</fix>
</trkpt>
<trkpt lat="33.8099267" lon="-118.3938935">
  <ele>-27.681</ele>
  <time>2026-09-01T01:13:31Z</time>
  <course>181.98</course>
  <speed>0.7410802925459562</speed>
  <fix>3d</fix>
</trkpt>
<trkpt lat="33.8099273" lon="-118.3938933">
  <ele>-26.85</ele>
  <time>2026-09-01T01:13:31Z</time>
  <course>181.9</course>
  <speed>0.77</speed>
  <fix>3d</fix>
</trkpt>
<trkpt lat="33.809926" lon="-118.3938935">
  <ele>-27.75</ele>
  <time>2026-09-01T01:13:31Z</time>
  <course>181.98</course>
  <speed>0.7410802925459562</speed>
  <fix>3d</fix>
</trkpt>
<trkpt lat="33.8099273" lon="-118.3938933">
  <ele>-26.85</ele>
  <time>2026-09-01T01:13:31Z</time>
  <course>181.9</course>
  <speed>0.77</speed>
  <fix>3d</fix>
</trkpt>
<trkpt lat="33.8099253" lon="-118.3938935">
  <ele>-27.818</ele>
  <time>2026-09-01T01:13:31Z</time>
  <course>181.98</course>
  <speed>0.7410802925459562</speed>
  <fix>3d</fix>
</trkpt>
<trkpt lat="33.8099259" lon="-118.3938934">
  <ele>-26.99</ele>
  <time>2026-09-01T01:13:31Z</time>
  <course>181.9</course>
  <speed>0.77</speed>
  <fix>3d</fix>
</trkpt>
<trkpt lat="33.8099246" lon="-118.3938935">
  <ele>-27.888</ele>
  <time>2026-09-01T01:13:31Z</time>
  <course>181.98</course>
  <speed>0.7410802925459562</speed>
  <fix>3d</fix>
</trkpt>
<trkpt lat="33.8099259" lon="-118.3938934">
  <ele>-26.99</ele>
  <time>2026-09-01T01:13:31Z</time>
  <course>181.9</course>
  <speed>0.77</speed>
  <fix>3d</fix>
</trkpt>
<trkpt lat="33.8099239" lon="-118.3938936">
  <ele>-27.959</ele>
  <time>2026-09-01T01:13:31Z</time>
  <course>181.98</course>
  <speed>0.7410802925459562</speed>
  <fix>3d</fix>
</trkpt>
<trkpt lat="33.8099246" lon="-118.3938934">
  <ele>-27.13</ele>
  <time>2026-09-01T01:13:31Z</time>
  <course>181.9</course>
  <speed>0.77</speed>
  <fix>3d</fix>
</trkpt>
<trkpt lat="33.8099232" lon="-118.3938936">
  <ele>-28.029</ele>
  <time>2026-09-01T01:13:31Z</time>
  <course>181.98</course>
  <speed>0.7410802925459562</speed>
  <fix>3d</fix>
</trkpt>
<trkpt lat="33.8099246" lon="-118.3938934">
  <ele>-27.13</ele>
  <time>2026-09-01T01:13:31Z</time>
  <course>181.9</course>
  <speed>0.77</speed>
  <fix>3d</fix>
</trkpt>
<trkpt lat="33.8099225" lon="-118.3938936">
  <ele>-28.099</ele>
  <time>2026-09-01T01:13:31Z</time>
  <course>181.98</course>
  <speed>0.7410802925459562</speed>
  <fix>3d</fix>
</trkpt>
<trkpt lat="33.8099232" lon="-118.3938935">
  <ele>-27.27</ele>
  <time>2026-09-01T01:13:31Z</time>
  <course>181.89</course>
  <speed>0.77</speed>
  <fix>3d</fix>
</trkpt>
<trkpt lat="33.8099218" lon="-118.3938937">
  <ele>-28.172</ele>
  <time>2026-09-01T01:13:31Z</time>
  <course>181.98</course>
  <speed>0.7410802925459562</speed>
  <fix>3d</fix>
</trkpt>
<trkpt lat="33.8099232" lon="-118.3938935">
  <ele>-27.27</ele>
  <time>2026-09-01T01:13:31Z</time>
  <course>181.89</course>
  <speed>0.77</speed>
  <fix>3d</fix>
</trkpt>
<trkpt lat="33.8099211" lon="-118.3938937">
  <ele>-28.245</ele>
  <time>2026-09-01T01:13:31Z</time>
  <course>181.98</course>
  <speed>0.7410802925459562</speed>
  <fix>3d</fix>
</trkpt>
<trkpt lat="33.8099218" lon="-118.3938935">
  <ele>-27.41</ele>
  <time>2026-09-01T01:13:31Z</time>
  <course>181.89</course>
  <speed>0.77</speed>
  <fix>3d</fix>
</trkpt>
<trkpt lat="33.8099204" lon="-118.3938937">
  <ele>-28.319</ele>
  <time>2026-09-01T01:13:31Z</time>
  <course>181.98</course>
  <speed>0.7410802925459562</speed>
  <fix>3d</fix>
</trkpt>
<trkpt lat="33.8099218" lon="-118.3938935">
  <ele>-27.41</ele>
  <time>2026-09-01T01:13:31Z</time>
  <course>181.89</course>
  <speed>0.77</speed>
  <fix>3d</fix>
</trkpt>
<trkpt lat="33.8099198" lon="-118.3938937">
  <ele>-28.395</ele>
  <time>2026-09-01T01:13:31Z</time>
  <course>181.98</course>
  <speed>0.7410802925459562</speed>
  <fix>3d</fix>
</trkpt>
<trkpt lat="33.8099203" lon="-118.3938936">
  <ele>-27.55</ele>
  <time>2026-09-01T01:13:31Z</time>
  <course>181.89</course>
  <speed>0.77</speed>
  <fix>3d</fix>
</trkpt>
<trkpt lat="33.8099191" lon="-118.3938938">
  <ele>-28.471</ele>
  <time>2026-09-01T01:13:31Z</time>
  <course>181.98</course>
  <speed>0.7410802925459562</speed>
  <fix>3d</fix>
</trkpt>
<trkpt lat="33.8099203" lon="-118.3938936">
  <ele>-27.55</ele>
  <time>2026-09-01T01:13:31Z</time>
  <course>181.89</course>
  <speed>0.77</speed>
  <fix>3d</fix>
</trkpt>
<trkpt lat="33.8099184" lon="-118.3938938">
  <ele>-28.548</ele>
  <time>2026-09-01T01:13:31Z</time>
  <course>181.98</course>
  <speed>0.7410802925459562</speed>
  <fix>3d</fix>
</trkpt>
<trkpt lat="33.809919" lon="-118.3938936">
  <ele>-27.7</ele>
  <time>2026-09-01T01:13:31Z</time>
  <course>181.89</course>
  <speed>0.77</speed>
  <fix>3d</fix>
</trkpt>
<trkpt lat="33.8099177" lon="-118.3938938">
  <ele>-28.625</ele>
  <time>2026-09-01T01:13:31Z</time>
  <course>181.98</course>
  <speed>0.7410802925459562</speed>
  <fix>3d</fix>
</trkpt>
<trkpt lat="33.809919" lon="-118.3938936">
  <ele>-27.7</ele>
  <time>2026-09-01T01:13:31Z</time>
  <course>181.89</course>
  <speed>0.77</speed>
  <fix>3d</fix>
</trkpt>
<trkpt lat="33.809917" lon="-118.3938938">
  <ele>-28.702</ele>
  <time>2026-09-01T01:13:31Z</time>
  <course>181.98</course>
  <speed>0.7410802925459562</speed>
  <fix>3d</fix>
</trkpt>
<trkpt lat="33.8099176" lon="-118.3938937">
  <ele>-27.84</ele>
  <time>2026-09-01T01:13:31Z</time>
  <course>181.88</course>
  <speed>0.77</speed>
  <fix>3d</fix>
</trkpt>
<trkpt lat="33.8099163" lon="-118.3938939">
  <ele>-28.779</ele>
  <time>2026-09-01T01:13:31Z</time>
  <course>181.98</course>
  <speed>0.7410802925459562</speed>
  <fix>3d</fix>
</trkpt>
<trkpt lat="33.8099176" lon="-118.3938937">
  <ele>-27.84</ele>
  <time>2026-09-01T01:13:32Z</time>
  <course>181.88</course>
  <speed>0.77</speed>
  <fix>3d</fix>
</trkpt>
<trkpt lat="33.8099156" lon="-118.3938939">
  <ele>-28.855</ele>
  <time>2026-09-01T01:13:32Z</time>
  <course>181.98</course>
  <speed>0.7410802925459562</speed>
  <fix>3d</fix>
</trkpt>
<trkpt lat="33.8099161" lon="-118.3938938">
  <ele>-27.99</ele>
  <time>2026-09-01T01:13:32Z</time>
  <course>181.87</course>
  <speed>0.77</speed>
  <fix>3d</fix>
</trkpt>
<trkpt lat="33.8099149" lon="-118.3938939">
  <ele>-28.93</ele>
  <time>2026-09-01T01:13:32Z</time>
  <course>181.98</course>
  <speed>0.7410802925459562</speed>
  <fix>3d</fix>
</trkpt>
<trkpt lat="33.8099161" lon="-118.3938938">
  <ele>-27.99</ele>
  <time>2026-09-01T01:13:32Z</time>
  <course>181.87</course>
  <speed>0.77</speed>
  <fix>3d</fix>
</trkpt>
<trkpt lat="33.8099142" lon="-118.393894">
  <ele>-29.006</ele>
  <time>2026-09-01T01:13:32Z</time>
  <course>181.98</course>
  <speed>0.7510659092250159</speed>
  <fix>3d</fix>
</trkpt>
<trkpt lat="33.8099148" lon="-118.3938938">
  <ele>-28.14</ele>
  <time>2026-09-01T01:13:32Z</time>
  <course>181.87</course>
  <speed>0.77</speed>
  <fix>3d</fix>
</trkpt>
<trkpt lat="33.8099135" lon="-118.393894">
  <ele>-29.082</ele>
  <time>2026-09-01T01:13:32Z</time>
  <course>181.98</course>
  <speed>0.7510659092250159</speed>
  <fix>3d</fix>
</trkpt>
<trkpt lat="33.8099148" lon="-118.3938938">
  <ele>-28.14</ele>
  <time>2026-09-01T01:13:32Z</time>
  <course>181.87</course>
  <speed>0.77</speed>
  <fix>3d</fix>
</trkpt>
<trkpt lat="33.8099128" lon="-118.393894">
  <ele>-29.157</ele>
  <time>2026-09-01T01:13:32Z</time>
  <course>181.98</course>
  <speed>0.7410802925459562</speed>
  <fix>3d</fix>
</trkpt>
<trkpt lat="33.8099134" lon="-118.3938939">
  <ele>-28.29</ele>
  <time>2026-09-01T01:13:32Z</time>
  <course>181.86</course>
  <speed>0.77</speed>
  <fix>3d</fix>
</trkpt>
<trkpt lat="33.8099121" lon="-118.393894">
  <ele>-29.235</ele>
  <time>2026-09-01T01:13:32Z</time>
  <course>181.98</course>
  <speed>0.7410802925459562</speed>
  <fix>3d</fix>
</trkpt>
<trkpt lat="33.8099134" lon="-118.3938939">
  <ele>-28.29</ele>
  <time>2026-09-01T01:13:32Z</time>
  <course>181.86</course>
  <speed>0.77</speed>
  <fix>3d</fix>
</trkpt>
<trkpt lat="33.8099114" lon="-118.3938941">
  <ele>-29.315</ele>
  <time>2026-09-01T01:13:32Z</time>
  <course>181.97</course>
  <speed>0.7310950690573697</speed>
  <fix>3d</fix>
</trkpt>
<trkpt lat="33.809912" lon="-118.3938939">
  <ele>-28.44</ele>
  <time>2026-09-01T01:13:32Z</time>
  <course>181.86</course>
  <speed>0.76</speed>
  <fix>3d</fix>
</trkpt>
<trkpt lat="33.8099107" lon="-118.3938941">
  <ele>-29.395</ele>
  <time>2026-09-01T01:13:32Z</time>
  <course>181.97</course>
  <speed>0.7310950690573697</speed>
  <fix>3d</fix>
</trkpt>
<trkpt lat="33.809912" lon="-118.3938939">
  <ele>-28.44</ele>
  <time>2026-09-01T01:13:32Z</time>
  <course>181.86</course>
  <speed>0.76</speed>
  <fix>3d</fix>
</trkpt>
<trkpt lat="33.80991" lon="-118.3938941">
  <ele>-29.476</ele>
  <time>2026-09-01T01:13:32Z</time>
  <course>181.98</course>
  <speed>0.7310950690573697</speed>
  <fix>3d</fix>
</trkpt>
<trkpt lat="33.8099106" lon="-118.393894">
  <ele>-28.6</ele>
  <time>2026-09-01T01:13:32Z</time>
  <course>181.87</course>
  <speed>0.75</speed>
  <fix>3d</fix>
</trkpt>
<trkpt lat="33.8099094" lon="-118.3938942">
  <ele>-29.557</ele>
  <time>2026-09-01T01:13:32Z</time>
  <course>181.97</course>
  <speed>0.7310950690573697</speed>
  <fix>3d</fix>
</trkpt>
<trkpt lat="33.8099106" lon="-118.393894">
  <ele>-28.6</ele>
  <time>2026-09-01T01:13:32Z</time>
  <course>181.87</course>
  <speed>0.75</speed>
  <fix>3d</fix>
</trkpt>
<trkpt lat="33.8099087" lon="-118.3938942">
  <ele>-29.637</ele>
  <time>2026-09-01T01:13:32Z</time>
  <course>181.97</course>
  <speed>0.7410802925459562</speed>
  <fix>3d</fix>
</trkpt>
<trkpt lat="33.8099093" lon="-118.393894">
  <ele>-28.75</ele>
  <time>2026-09-01T01:13:32Z</time>
  <course>181.87</course>
  <speed>0.75</speed>
  <fix>3d</fix>
</trkpt>
<trkpt lat="33.809908" lon="-118.3938942">
  <ele>-29.715</ele>
  <time>2026-09-01T01:13:32Z</time>
  <course>181.98</course>
  <speed>0.7410802925459562</speed>
  <fix>3d</fix>
</trkpt>
<trkpt lat="33.8099093" lon="-118.393894">
  <ele>-28.75</ele>
  <time>2026-09-01T01:13:32Z</time>
  <course>181.87</course>
  <speed>0.75</speed>
  <fix>3d</fix>
</trkpt>
<trkpt lat="33.8099073" lon="-118.3938942">
  <ele>-29.792</ele>
  <time>2026-09-01T01:13:32Z</time>
  <course>181.97</course>
  <speed>0.7410802925459562</speed>
  <fix>3d</fix>
</trkpt>
<trkpt lat="33.8099079" lon="-118.3938941">
  <ele>-28.91</ele>
  <time>2026-09-01T01:13:32Z</time>
  <course>181.86</course>
  <speed>0.76</speed>
  <fix>3d</fix>
</trkpt>
<trkpt lat="33.8099066" lon="-118.3938943">
  <ele>-29.868</ele>
  <time>2026-09-01T01:13:32Z</time>
  <course>181.97</course>
  <speed>0.7510659092250159</speed>
  <fix>3d</fix>
</trkpt>
<trkpt lat="33.8099079" lon="-118.3938941">
  <ele>-28.91</ele>
  <time>2026-09-01T01:13:32Z</time>
  <course>181.86</course>
  <speed>0.76</speed>
  <fix>3d</fix>
</trkpt>
<trkpt lat="33.8099059" lon="-118.3938943">
  <ele>-29.94</ele>
  <time>2026-09-01T01:13:32Z</time>
  <course>181.97</course>
  <speed>0.7510659092250159</speed>
  <fix>3d</fix>
</trkpt>
<trkpt lat="33.8099066" lon="-118.3938941">
  <ele>-29.06</ele>
  <time>2026-09-01T01:13:32Z</time>
  <course>181.85</course>
  <speed>0.77</speed>
  <fix>3d</fix>
</trkpt>
<trkpt lat="33.8099052" lon="-118.3938943">
  <ele>-30.013</ele>
  <time>2026-09-01T01:13:32Z</time>
  <course>181.97</course>
  <speed>0.7510659092250159</speed>
  <fix>3d</fix>
</trkpt>
<trkpt lat="33.8099066" lon="-118.3938941">
  <ele>-29.06</ele>
  <time>2026-09-01T01:13:32Z</time>
  <course>181.85</course>
  <speed>0.77</speed>
  <fix>3d</fix>
</trkpt>
<trkpt lat="33.8099045" lon="-118.3938943">
  <ele>-30.087</ele>
  <time>2026-09-01T01:13:32Z</time>
  <course>181.97</course>
  <speed>0.7510659092250159</speed>
  <fix>3d</fix>
</trkpt>
<trkpt lat="33.8099052" lon="-118.3938942">
  <ele>-29.21</ele>
  <time>2026-09-01T01:13:32Z</time>
  <course>181.84</course>
  <speed>0.77</speed>
  <fix>3d</fix>
</trkpt>
<trkpt lat="33.8099038" lon="-118.3938944">
  <ele>-30.165</ele>
  <time>2026-09-01T01:13:32Z</time>
  <course>181.97</course>
  <speed>0.7510659092250159</speed>
  <fix>3d</fix>
</trkpt>
<trkpt lat="33.8099052" lon="-118.3938942">
  <ele>-29.21</ele>
  <time>2026-09-01T01:13:32Z</time>
  <course>181.84</course>
  <speed>0.77</speed>
  <fix>3d</fix>
</trkpt>
<trkpt lat="33.8099031" lon="-118.3938944">
  <ele>-30.241</ele>
  <time>2026-09-01T01:13:32Z</time>
  <course>181.97</course>
  <speed>0.7510659092250159</speed>
  <fix>3d</fix>
</trkpt>
<trkpt lat="33.8099038" lon="-118.3938942">
  <ele>-29.35</ele>
  <time>2026-09-01T01:13:32Z</time>
  <course>181.84</course>
  <speed>0.77</speed>
  <fix>3d</fix>
</trkpt>
<trkpt lat="33.8099024" lon="-118.3938944">
  <ele>-30.316</ele>
  <time>2026-09-01T01:13:32Z</time>
  <course>181.97</course>
  <speed>0.7510659092250159</speed>
  <fix>3d</fix>
</trkpt>
<trkpt lat="33.8099038" lon="-118.3938942">
  <ele>-29.35</ele>
  <time>2026-09-01T01:13:32Z</time>
  <course>181.84</course>
  <speed>0.77</speed>
  <fix>3d</fix>
</trkpt>
<trkpt lat="33.8099017" lon="-118.3938944">
  <ele>-30.389</ele>
  <time>2026-09-01T01:13:32Z</time>
  <course>181.97</course>
  <speed>0.7510659092250159</speed>
  <fix>3d</fix>
</trkpt>
<trkpt lat="33.8099024" lon="-118.3938943">
  <ele>-29.5</ele>
  <time>2026-09-01T01:13:32Z</time>
  <course>181.84</course>
  <speed>0.77</speed>
  <fix>3d</fix>
</trkpt>
<trkpt lat="33.809901" lon="-118.3938945">
  <ele>-30.463</ele>
  <time>2026-09-01T01:13:32Z</time>
  <course>181.97</course>
  <speed>0.7510659092250159</speed>
  <fix>3d</fix>
</trkpt>
<trkpt lat="33.8099024" lon="-118.3938943">
  <ele>-29.5</ele>
  <time>2026-09-01T01:13:32Z</time>
  <course>181.84</course>
  <speed>0.77</speed>
  <fix>3d</fix>
</trkpt>
<trkpt lat="33.8099003" lon="-118.3938945">
  <ele>-30.537</ele>
  <time>2026-09-01T01:13:32Z</time>
  <course>181.97</course>
  <speed>0.7510659092250159</speed>
  <fix>3d</fix>
</trkpt>
<trkpt lat="33.8099009" lon="-118.3938943">
  <ele>-29.64</ele>
  <time>2026-09-01T01:13:32Z</time>
  <course>181.84</course>
  <speed>0.77</speed>
  <fix>3d</fix>
</trkpt>
<trkpt lat="33.8098996" lon="-118.3938945">
  <ele>-30.61</ele>
  <time>2026-09-01T01:13:32Z</time>
  <course>181.97</course>
  <speed>0.7510659092250159</speed>
  <fix>3d</fix>
</trkpt>
<trkpt lat="33.8099009" lon="-118.3938943">
  <ele>-29.64</ele>
  <time>2026-09-01T01:13:32Z</time>
  <course>181.84</course>
  <speed>0.77</speed>
  <fix>3d</fix>
</trkpt>
<trkpt lat="33.8098989" lon="-118.3938945">
  <ele>-30.683</ele>
  <time>2026-09-01T01:13:32Z</time>
  <course>181.97</course>
  <speed>0.7510659092250159</speed>
  <fix>3d</fix>
</trkpt>
<trkpt lat="33.8098995" lon="-118.3938944">
  <ele>-29.79</ele>
  <time>2026-09-01T01:13:32Z</time>
  <course>181.84</course>
  <speed>0.77</speed>
  <fix>3d</fix>
</trkpt>
<trkpt lat="33.8098982" lon="-118.3938946">
  <ele>-30.757</ele>
  <time>2026-09-01T01:13:32Z</time>
  <course>181.97</course>
  <speed>0.7510659092250159</speed>
  <fix>3d</fix>
</trkpt>
<trkpt lat="33.8098995" lon="-118.3938944">
  <ele>-29.79</ele>
  <time>2026-09-01T01:13:32Z</time>
  <course>181.84</course>
  <speed>0.77</speed>
  <fix>3d</fix>
</trkpt>
<trkpt lat="33.8098975" lon="-118.3938946">
  <ele>-30.833</ele>
  <time>2026-09-01T01:13:32Z</time>
  <course>181.97</course>
  <speed>0.7410802925459562</speed>
  <fix>3d</fix>
</trkpt>
<trkpt lat="33.8098982" lon="-118.3938944">
  <ele>-29.93</ele>
  <time>2026-09-01T01:13:32Z</time>
  <course>181.83</course>
  <speed>0.77</speed>
  <fix>3d</fix>
</trkpt>
<trkpt lat="33.8098969" lon="-118.3938946">
  <ele>-30.91</ele>
  <time>2026-09-01T01:13:32Z</time>
  <course>181.97</course>
  <speed>0.7410802925459562</speed>
  <fix>3d</fix>
</trkpt>
<trkpt lat="33.8098982" lon="-118.3938944">
  <ele>-29.93</ele>
  <time>2026-09-01T01:13:32Z</time>
  <course>181.83</course>
  <speed>0.77</speed>
  <fix>3d</fix>
</trkpt>
<trkpt lat="33.8098962" lon="-118.3938946">
  <ele>-30.988</ele>
  <time>2026-09-01T01:13:32Z</time>
  <course>181.97</course>
  <speed>0.7310950690573697</speed>
  <fix>3d</fix>
</trkpt>
<trkpt lat="33.8098968" lon="-118.3938945">
  <ele>-30.08</ele>
  <time>2026-09-01T01:13:32Z</time>
  <course>181.82</course>
  <speed>0.76</speed>
  <fix>3d</fix>
</trkpt>
<trkpt lat="33.8098955" lon="-118.3938947">
  <ele>-31.068</ele>
  <time>2026-09-01T01:13:32Z</time>
  <course>181.97</course>
  <speed>0.6906518659932803</speed>
  <fix>3d</fix>
</trkpt>
<trkpt lat="33.8098968" lon="-118.3938945">
  <ele>-30.08</ele>
  <time>2026-09-01T01:13:32Z</time>
  <course>181.82</course>
  <speed>0.76</speed>
  <fix>3d</fix>
</trkpt>
<trkpt lat="33.8098949" lon="-118.3938947">
  <ele>-31.15</ele>
  <time>2026-09-01T01:13:32Z</time>
  <course>181.98</course>
  <speed>0.5108815909777921</speed>
  <fix>3d</fix>
</trkpt>
<trkpt lat="33.8098954" lon="-118.3938946">
  <ele>-30.24</ele>
  <time>2026-09-01T01:13:32Z</time>
  <course>181.88</course>
  <speed>0.7</speed>
  <fix>3d</fix>
</trkpt>
<trkpt lat="33.8098945" lon="-118.3938947">
  <ele>-31.231</ele>
  <time>2026-09-01T01:13:32Z</time>
  <course>181.99</course>
  <speed>0.4004996878900158</speed>
  <fix>3d</fix>
</trkpt>
<trkpt lat="33.8098954" lon="-118.3938946">
  <ele>-30.24</ele>
  <time>2026-09-01T01:13:32Z</time>
  <course>181.88</course>
  <speed>0.7</speed>
  <fix>3d</fix>
</trkpt>
<trkpt lat="33.8098942" lon="-118.3938947">
  <ele>-31.313</ele>
  <time>2026-09-01T01:13:32Z</time>
  <course>182.49</course>
  <speed>0.3306055050963308</speed>
  <fix>3d</fix>
</trkpt>
<trkpt lat="33.8098943" lon="-118.3938946">
  <ele>-30.4</ele>
  <time>2026-09-01T01:13:32Z</time>
  <course>182.08</course>
  <speed>0.52</speed>
  <fix>3d</fix>
</trkpt>
<trkpt lat="33.8098938" lon="-118.3938947">
  <ele>-31.394</ele>
  <time>2026-09-01T01:13:32Z</time>
  <course>183.72</course>
  <speed>0.280713376952364</speed>
  <fix>3d</fix>
</trkpt>
<trkpt lat="33.8098943" lon="-118.3938946">
  <ele>-30.4</ele>
  <time>2026-09-01T01:13:32Z</time>
  <course>182.08</course>
  <speed>0.52</speed>
  <fix>3d</fix>
</trkpt>
<trkpt lat="33.8098936" lon="-118.3938947">
  <ele>-31.473</ele>
  <time>2026-09-01T01:13:32Z</time>
  <course>185.32</course>
  <speed>0.24083189157584592</speed>
  <fix>3d</fix>
</trkpt>
<trkpt lat="33.8098935" lon="-118.3938947">
  <ele>-30.56</ele>
  <time>2026-09-01T01:13:32Z</time>
  <course>182.31</course>
  <speed>0.35</speed>
  <fix>3d</fix>
</trkpt>
<trkpt lat="33.8098933" lon="-118.3938948">
  <ele>-31.55</ele>
  <time>2026-09-01T01:13:32Z</time>
  <course>187.09</course>
  <speed>0.22022715545545238</speed>
  <fix>3d</fix>
</trkpt>
<trkpt lat="33.8098935" lon="-118.3938947">
  <ele>-30.56</ele>
  <time>2026-09-01T01:13:32Z</time>
  <course>182.31</course>
  <speed>0.35</speed>
  <fix>3d</fix>
</trkpt>
<trkpt lat="33.8098931" lon="-118.3938948">
  <ele>-31.625</ele>
  <time>2026-09-01T01:13:32Z</time>
  <course>188.96</course>
  <speed>0.19026297590440447</speed>
  <fix>3d</fix>
</trkpt>
<trkpt lat="33.809893" lon="-118.3938947">
  <ele>-30.71</ele>
  <time>2026-09-01T01:13:32Z</time>
  <course>182.02</course>
  <speed>0.26</speed>
  <fix>3d</fix>
</trkpt>
<trkpt lat="33.8098929" lon="-118.3938948">
  <ele>-31.697</ele>
  <time>2026-09-01T01:13:32Z</time>
  <course>190.91</course>
  <speed>0.18027756377319945</speed>
  <fix>3d</fix>
</trkpt>
<trkpt lat="33.809893" lon="-118.3938947">
  <ele>-30.71</ele>
  <time>2026-09-01T01:13:32Z</time>
  <course>182.02</course>
  <speed>0.26</speed>
  <fix>3d</fix>
</trkpt>
<trkpt lat="33.8098927" lon="-118.3938948">
  <ele>-31.766</ele>
  <time>2026-09-01T01:13:32Z</time>
  <course>192.93</course>
  <speed>0.16031219541881397</speed>
  <fix>3d</fix>
</trkpt>
<trkpt lat="33.8098926" lon="-118.3938947">
  <ele>-30.86</ele>
  <time>2026-09-01T01:13:32Z</time>
  <course>181.08</course>
  <speed>0.21</speed>
  <fix>3d</fix>
</trkpt>
<trkpt lat="33.8098925" lon="-118.3938948">
  <ele>-31.83</ele>
  <time>2026-09-01T01:13:32Z</time>
  <course>195.0</course>
  <speed>0.15033296378372907</speed>
  <fix>3d</fix>
</trkpt>
<trkpt lat="33.8098926" lon="-118.3938947">
  <ele>-30.86</ele>
  <time>2026-09-01T01:13:32Z</time>
  <course>181.08</course>
  <speed>0.21</speed>
  <fix>3d</fix>
</trkpt>
<trkpt lat="33.8098924" lon="-118.3938948">
  <ele>-31.889</ele>
  <time>2026-09-01T01:13:32Z</time>
  <course>197.12</course>
  <speed>0.14</speed>
  <fix>3d</fix>
</trkpt>
<trkpt lat="33.8098923" lon="-118.3938947">
  <ele>-30.99</ele>
  <time>2026-09-01T01:13:32Z</time>
  <course>179.76</course>
  <speed>0.17</speed>
  <fix>3d</fix>
</trkpt>
<trkpt lat="33.8098922" lon="-118.3938948">
  <ele>-31.942</ele>
  <time>2026-09-01T01:13:32Z</time>
  <course>199.29</course>
  <speed>0.13</speed>
  <fix>3d</fix>
</trkpt>
<trkpt lat="33.8098923" lon="-118.3938947">
  <ele>-30.99</ele>
  <time>2026-09-01T01:13:32Z</time>
  <course>179.76</course>
  <speed>0.17</speed>
  <fix>3d</fix>
</trkpt>
<trkpt lat="33.8098921" lon="-118.3938948">
  <ele>-31.99</ele>
  <time>2026-09-01T01:13:32Z</time>
  <course>201.51</course>
  <speed>0.12</speed>
  <fix>3d</fix>
</trkpt>
<trkpt lat="33.809892" lon="-118.3938947">
  <ele>-31.1</ele>
  <time>2026-09-01T01:13:32Z</time>
  <course>178.37</course>
  <speed>0.15</speed>
  <fix>3d</fix>
</trkpt>
<trkpt lat="33.8098919" lon="-118.3938948">
  <ele>-32.03</ele>
  <time>2026-09-01T01:13:32Z</time>
  <course>203.75</course>
  <speed>0.11</speed>
  <fix>3d</fix>
</trkpt>
<trkpt lat="33.809892" lon="-118.3938947">
  <ele>-31.1</ele>
  <time>2026-09-01T01:13:32Z</time>
  <course>178.37</course>
  <speed>0.15</speed>
  <fix>3d</fix>
</trkpt>
<trkpt lat="33.8098918" lon="-118.3938948">
  <ele>-32.062</ele>
  <time>2026-09-01T01:13:32Z</time>
  <course>206.01</course>
  <speed>0.11</speed>
  <fix>3d</fix>
</trkpt>
<trkpt lat="33.8098917" lon="-118.3938947">
  <ele>-31.2</ele>
  <time>2026-09-01T01:13:32Z</time>
  <course>177.16</course>
  <speed>0.13</speed>
  <fix>3d</fix>
</trkpt>
<trkpt lat="33.8098917" lon="-118.3938948">
  <ele>-32.086</ele>
  <time>2026-09-01T01:13:32Z</time>
  <course>208.3</course>
  <speed>0.1</speed>
  <fix>3d</fix>
</trkpt>
<trkpt lat="33.8098917" lon="-118.3938947">
  <ele>-31.2</ele>
  <time>2026-09-01T01:13:32Z</time>
  <course>177.16</course>
  <speed>0.13</speed>
  <fix>3d</fix>
</trkpt>
<trkpt lat="33.8098916" lon="-118.3938948">
  <ele>-32.105</ele>
  <time>2026-09-01T01:13:32Z</time>
  <course>210.62</course>
  <speed>0.1</speed>
  <fix>3d</fix>
</trkpt>
<trkpt lat="33.8098915" lon="-118.3938947">
  <ele>-31.27</ele>
  <time>2026-09-01T01:13:32Z</time>
  <course>176.28</course>
  <speed>0.12</speed>
  <fix>3d</fix>
</trkpt>
<trkpt lat="33.8098915" lon="-118.3938948">
  <ele>-32.119</ele>
  <time>2026-09-01T01:13:32Z</time>
  <course>212.96</course>
  <speed>0.09</speed>
  <fix>3d</fix>
</trkpt>
<trkpt lat="33.8098915" lon="-118.3938947">
  <ele>-31.27</ele>
  <time>2026-09-01T01:13:32Z</time>
  <course>176.28</course>
  <speed>0.12</speed>
  <fix>3d</fix>
</trkpt>
<trkpt lat="33.8098914" lon="-118.3938948">
  <ele>-32.126</ele>
  <time>2026-09-01T01:13:32Z</time>
  <course>215.32</course>
  <speed>0.09</speed>
  <fix>3d</fix>
</trkpt>
<trkpt lat="33.8098912" lon="-118.3938947">
  <ele>-31.31</ele>
  <time>2026-09-01T01:13:32Z</time>
  <course>175.82</course>
  <speed>0.11</speed>
  <fix>3d</fix>
</trkpt>
<trkpt lat="33.8098913" lon="-118.3938948">
  <ele>-32.129</ele>
  <time>2026-09-01T01:13:32Z</time>
  <course>217.7</course>
  <speed>0.08</speed>
  <fix>3d</fix>
</trkpt>
<trkpt lat="33.8098912" lon="-118.3938947">
  <ele>-31.31</ele>
  <time>2026-09-01T01:13:32Z</time>
  <course>175.82</course>
  <speed>0.11</speed>
  <fix>3d</fix>
</trkpt>
<trkpt lat="33.8098912" lon="-118.3938948">
  <ele>-32.127</ele>
  <time>2026-09-01T01:13:32Z</time>
  <course>220.09</course>
  <speed>0.08</speed>
  <fix>3d</fix>
</trkpt>
<trkpt lat="33.8098911" lon="-118.3938947">
  <ele>-31.33</ele>
  <time>2026-09-01T01:13:32Z</time>
  <course>175.74</course>
  <speed>0.1</speed>
  <fix>3d</fix>
</trkpt>
<trkpt lat="33.8098911" lon="-118.3938948">
  <ele>-32.119</ele>
  <time>2026-09-01T01:13:32Z</time>
  <course>222.5</course>
  <speed>0.08062257748298549</speed>
  <fix>3d</fix>
</trkpt>
<trkpt lat="33.8098911" lon="-118.3938947">
  <ele>-31.33</ele>
  <time>2026-09-01T01:13:32Z</time>
  <course>175.74</course>
  <speed>0.1</speed>
  <fix>3d</fix>
</trkpt>
<trkpt lat="33.809891" lon="-118.3938948">
  <ele>-32.109</ele>
  <time>2026-09-01T01:13:32Z</time>
  <course>224.92</course>
  <speed>0.07071067811865475</speed>
  <fix>3d</fix>
</trkpt>
<trkpt lat="33.8098909" lon="-118.3938947">
  <ele>-31.33</ele>
  <time>2026-09-01T01:13:32Z</time>
  <course>175.99</course>
  <speed>0.09</speed>
  <fix>3d</fix>
</trkpt>
<trkpt lat="33.8098909" lon="-118.3938948">
  <ele>-32.095</ele>
  <time>2026-09-01T01:13:32Z</time>
  <course>227.34</course>
  <speed>0.07071067811865475</speed>
  <fix>3d</fix>
</trkpt>
<trkpt lat="33.8098909" lon="-118.3938947">
  <ele>-31.33</ele>
  <time>2026-09-01T01:13:32Z</time>
  <course>175.99</course>
  <speed>0.09</speed>
  <fix>3d</fix>
</trkpt>
<trkpt lat="33.8098908" lon="-118.3938948">
  <ele>-32.078</ele>
  <time>2026-09-01T01:13:32Z</time>
  <course>229.79</course>
  <speed>0.07071067811865475</speed>
  <fix>3d</fix>
</trkpt>
<trkpt lat="33.8098907" lon="-118.3938947">
  <ele>-31.32</ele>
  <time>2026-09-01T01:13:32Z</time>
  <course>176.52</course>
  <speed>0.09</speed>
  <fix>3d</fix>
</trkpt>
<trkpt lat="33.8098907" lon="-118.3938948">
  <ele>-32.061</ele>
  <time>2026-09-01T01:13:32Z</time>
  <course>232.24</course>
  <speed>0.07071067811865475</speed>
  <fix>3d</fix>
</trkpt>
<trkpt lat="33.8098907" lon="-118.3938947">
  <ele>-31.32</ele>
  <time>2026-09-01T01:13:32Z</time>
  <course>176.52</course>
  <speed>0.09</speed>
  <fix>3d</fix>
</trkpt>
<trkpt lat="33.8098907" lon="-118.3938948">
  <ele>-32.042</ele>
  <time>2026-09-01T01:13:32Z</time>
  <course>234.7</course>
  <speed>0.06082762530298219</speed>
  <fix>3d</fix>
</trkpt>
<trkpt lat="33.8098906" lon="-118.3938947">
  <ele>-31.29</ele>
  <time>2026-09-01T01:13:32Z</time>
  <course>177.29</course>
  <speed>0.08</speed>
  <fix>3d</fix>
</trkpt>
<trkpt lat="33.8098906" lon="-118.3938948">
  <ele>-32.024</ele>
  <time>2026-09-01T01:13:32Z</time>
  <course>237.15</course>
  <speed>0.06082762530298219</speed>
  <fix>3d</fix>
</trkpt>
<trkpt lat="33.8098906" lon="-118.3938947">
  <ele>-31.29</ele>
  <time>2026-09-01T01:13:32Z</time>
  <course>177.29</course>
  <speed>0.08</speed>
  <fix>3d</fix>
</trkpt>
<trkpt lat="33.8098905" lon="-118.3938948">
  <ele>-32.005</ele>
  <time>2026-09-01T01:13:32Z</time>
  <course>239.62</course>
  <speed>0.06082762530298219</speed>
  <fix>3d</fix>
</trkpt>
<trkpt lat="33.8098904" lon="-118.3938947">
  <ele>-31.26</ele>
  <time>2026-09-01T01:13:32Z</time>
  <course>178.23</course>
  <speed>0.07</speed>
  <fix>3d</fix>
</trkpt>
<trkpt lat="33.8098904" lon="-118.3938948">
  <ele>-31.988</ele>
  <time>2026-09-01T01:13:32Z</time>
  <course>242.11</course>
  <speed>0.05099019513592785</speed>
  <fix>3d</fix>
</trkpt>
<trkpt lat="33.8098904" lon="-118.3938947">
  <ele>-31.26</ele>
  <time>2026-09-01T01:13:32Z</time>
  <course>178.23</course>
  <speed>0.07</speed>
  <fix>3d</fix>
</trkpt>
<trkpt lat="33.8098904" lon="-118.3938948">
  <ele>-31.974</ele>
  <time>2026-09-01T01:13:32Z</time>
  <course>244.6</course>
  <speed>0.05099019513592785</speed>
  <fix>3d</fix>
</trkpt>
<trkpt lat="33.8098903" lon="-118.3938947">
  <ele>-31.23</ele>
  <time>2026-09-01T01:13:32Z</time>
  <course>179.26</course>
  <speed>0.07</speed>
  <fix>3d</fix>
</trkpt>
<trkpt lat="33.8098903" lon="-118.3938948">
  <ele>-31.964</ele>
  <time>2026-09-01T01:13:32Z</time>
  <course>247.09</course>
  <speed>0.053851648071345036</speed>
  <fix>3d</fix>
</trkpt>
<trkpt lat="33.8098903" lon="-118.3938947">
  <ele>-31.23</ele>
  <time>2026-09-01T01:13:32Z</time>
  <course>179.26</course>
  <speed>0.07</speed>
  <fix>3d</fix>
</trkpt>
<trkpt lat="33.8098902" lon="-118.3938948">
  <ele>-31.958</ele>
  <time>2026-09-01T01:13:32Z</time>
  <course>249.6</course>
  <speed>0.053851648071345036</speed>
  <fix>3d</fix>
</trkpt>
<trkpt lat="33.8098901" lon="-118.3938947">
  <ele>-31.21</ele>
  <time>2026-09-01T01:13:32Z</time>
  <course>180.32</course>
  <speed>0.06</speed>
  <fix>3d</fix>
</trkpt>
<trkpt lat="33.8098902" lon="-118.3938948">
  <ele>-31.957</ele>
  <time>2026-09-01T01:13:32Z</time>
  <course>252.09</course>
  <speed>0.044721359549995794</speed>
  <fix>3d</fix>
</trkpt>
<trkpt lat="33.8098901" lon="-118.3938947">
  <ele>-31.21</ele>
  <time>2026-09-01T01:13:32Z</time>
  <course>180.32</course>
  <speed>0.06</speed>
  <fix>3d</fix>
</trkpt>
<trkpt lat="33.8098901" lon="-118.3938948">
  <ele>-31.957</ele>
  <time>2026-09-01T01:13:32Z</time>
  <course>254.58</course>
  <speed>0.044721359549995794</speed>
  <fix>3d</fix>
</trkpt>
<trkpt lat="33.80989" lon="-118.3938947">
  <ele>-31.2</ele>
  <time>2026-09-01T01:13:32Z</time>
  <course>181.35</course>
  <speed>0.06</speed>
  <fix>3d</fix>
</trkpt>
<trkpt lat="33.8098901" lon="-118.3938948">
  <ele>-31.959</ele>
  <time>2026-09-01T01:13:32Z</time>
  <course>257.07</course>
  <speed>0.044721359549995794</speed>
  <fix>3d</fix>
</trkpt>
<trkpt lat="33.80989" lon="-118.3938947">
  <ele>-31.2</ele>
  <time>2026-09-01T01:13:32Z</time>
  <course>181.35</course>
  <speed>0.06</speed>
  <fix>3d</fix>
</trkpt>
<trkpt lat="33.80989" lon="-118.3938948">
  <ele>-31.964</ele>
  <time>2026-09-01T01:13:32Z</time>
  <course>259.57</course>
  <speed>0.044721359549995794</speed>
  <fix>3d</fix>
</trkpt>
<trkpt lat="33.8098899" lon="-118.3938947">
  <ele>-31.2</ele>
  <time>2026-09-01T01:13:32Z</time>
  <course>182.3</course>
  <speed>0.06</speed>
  <fix>3d</fix>
</trkpt>
<trkpt lat="33.80989" lon="-118.3938948">
  <ele>-31.971</ele>
  <time>2026-09-01T01:13:32Z</time>
  <course>262.06</course>
  <speed>0.044721359549995794</speed>
  <fix>3d</fix>
</trkpt>
<trkpt lat="33.8098899" lon="-118.3938947">
  <ele>-31.2</ele>
  <time>2026-09-01T01:13:32Z</time>
  <course>182.3</course>
  <speed>0.06</speed>
  <fix>3d</fix>
</trkpt>
<trkpt lat="33.8098899" lon="-118.3938948">
  <ele>-31.984</ele>
  <time>2026-09-01T01:13:32Z</time>
  <course>264.55</course>
  <speed>0.03605551275463989</speed>
  <fix>3d</fix>
</trkpt>
<trkpt lat="33.8098898" lon="-118.3938947">
  <ele>-31.21</ele>
  <time>2026-09-01T01:13:32Z</time>
  <course>183.11</course>
  <speed>0.05</speed>
  <fix>3d</fix>
</trkpt>
<trkpt lat="33.8098899" lon="-118.3938948">
  <ele>-32.0</ele>
  <time>2026-09-01T01:13:32Z</time>
  <course>267.05</course>
  <speed>0.03605551275463989</speed>
  <fix>3d</fix>
</trkpt>
<trkpt lat="33.8098898" lon="-118.3938947">
  <ele>-31.21</ele>
  <time>2026-09-01T01:13:32Z</time>
  <course>183.11</course>
  <speed>0.05</speed>
  <fix>3d</fix>
</trkpt>
<trkpt lat="33.8098898" lon="-118.3938948">
  <ele>-32.018</ele>
  <time>2026-09-01T01:13:32Z</time>
  <course>269.43</course>
  <speed>0.03605551275463989</speed>
  <fix>3d</fix>
</trkpt>
<trkpt lat="33.8098897" lon="-118.3938947">
  <ele>-31.23</ele>
  <time>2026-09-01T01:13:32Z</time>
  <course>183.72</course>
  <speed>0.05</speed>
  <fix>3d</fix>
</trkpt>
<trkpt lat="33.8098898" lon="-118.3938948">
  <ele>-32.037</ele>
  <time>2026-09-01T01:13:32Z</time>
  <course>271.24</course>
  <speed>0.03605551275463989</speed>
  <fix>3d</fix>
</trkpt>
<trkpt lat="33.8098897" lon="-118.3938947">
  <ele>-31.23</ele>
  <time>2026-09-01T01:13:32Z</time>
  <course>183.72</course>
  <speed>0.05</speed>
  <fix>3d</fix>
</trkpt>
<trkpt lat="33.8098897" lon="-118.3938949">
  <ele>-32.057</ele>
  <time>2026-09-01T01:13:32Z</time>
  <course>273.56</course>
  <speed>0.24083189157584592</speed>
  <fix>3d</fix>
</trkpt>
<trkpt lat="33.8098896" lon="-118.3938947">
  <ele>-31.26</ele>
  <time>2026-09-01T01:13:32Z</time>
  <course>207.92</course>
  <speed>0.05</speed>
  <fix>3d</fix>
</trkpt>
<trkpt lat="33.8098897" lon="-118.3938953">
  <ele>-32.077</ele>
  <time>2026-09-01T01:13:32Z</time>
  <course>275.18</course>
  <speed>0.46</speed>
  <fix>3d</fix>
</trkpt>
<trkpt lat="33.8098896" lon="-118.3938947">
  <ele>-31.26</ele>
  <time>2026-09-01T01:13:32Z</time>
  <course>207.92</course>
  <speed>0.05</speed>
  <fix>3d</fix>
</trkpt>
<trkpt lat="33.8098897" lon="-118.3938959">
  <ele>-32.095</ele>
  <time>2026-09-01T01:13:32Z</time>
  <course>275.44</course>
  <speed>0.6100819617067857</speed>
  <fix>3d</fix>
</trkpt>
<trkpt lat="33.8098895" lon="-118.3938949">
  <ele>-31.29</ele>
  <time>2026-09-01T01:13:32Z</time>
  <course>263.16</course>
  <speed>0.27</speed>
  <fix>3d</fix>
</trkpt>
<trkpt lat="33.8098897" lon="-118.3938966">
  <ele>-32.112</ele>
  <time>2026-09-01T01:13:32Z</time>
  <course>275.21</course>
  <speed>0.6902897942168927</speed>
  <fix>3d</fix>
</trkpt>
<trkpt lat="33.8098895" lon="-118.3938949">
  <ele>-31.29</ele>
  <time>2026-09-01T01:13:32Z</time>
  <course>263.16</course>
  <speed>0.27</speed>
  <fix>3d</fix>
</trkpt>
<trkpt lat="33.8098897" lon="-118.3938973">
  <ele>-32.128</ele>
  <time>2026-09-01T01:13:32Z</time>
  <course>275.03</course>
  <speed>0.740607858451421</speed>
  <fix>3d</fix>
</trkpt>
<trkpt lat="33.8098895" lon="-118.3938959">
  <ele>-31.33</ele>
  <time>2026-09-01T01:13:32Z</time>
  <course>269.18</course>
  <speed>0.6</speed>
  <fix>3d</fix>
</trkpt>
<trkpt lat="33.8098897" lon="-118.393898">
  <ele>-32.144</ele>
  <time>2026-09-01T01:13:32Z</time>
  <course>274.96</course>
  <speed>0.7605918747922567</speed>
  <fix>3d</fix>
</trkpt>
<trkpt lat="33.8098895" lon="-118.3938959">
  <ele>-31.33</ele>
  <time>2026-09-01T01:13:32Z</time>
  <course>269.18</course>
  <speed>0.6</speed>
  <fix>3d</fix>
</trkpt>
<trkpt lat="33.8098897" lon="-118.3938988">
  <ele>-32.158</ele>
  <time>2026-09-01T01:13:32Z</time>
  <course>274.95</course>
  <speed>0.7705841939723393</speed>
  <fix>3d</fix>
</trkpt>
<trkpt lat="33.8098895" lon="-118.3938973">
  <ele>-31.36</ele>
  <time>2026-09-01T01:13:32Z</time>
  <course>270.39</course>
  <speed>0.72</speed>
  <fix>3d</fix>
</trkpt>
<trkpt lat="33.8098897" lon="-118.3938996">
  <ele>-32.171</ele>
  <time>2026-09-01T01:13:32Z</time>
  <course>274.94</course>
  <speed>0.7705841939723393</speed>
  <fix>3d</fix>
</trkpt>
<trkpt lat="33.8098895" lon="-118.3938973">
  <ele>-31.36</ele>
  <time>2026-09-01T01:13:32Z</time>
  <course>270.39</course>
  <speed>0.72</speed>
  <fix>3d</fix>
</trkpt>
<trkpt lat="33.8098897" lon="-118.3939004">
  <ele>-32.181</ele>
  <time>2026-09-01T01:13:32Z</time>
  <course>274.93</course>
  <speed>0.7705841939723393</speed>
  <fix>3d</fix>
</trkpt>
<trkpt lat="33.8098895" lon="-118.393899">
  <ele>-31.39</ele>
  <time>2026-09-01T01:13:32Z</time>
  <course>270.78</course>
  <speed>0.76</speed>
  <fix>3d</fix>
</trkpt>
<trkpt lat="33.8098897" lon="-118.3939012">
  <ele>-32.188</ele>
  <time>2026-09-01T01:13:32Z</time>
  <course>274.91</course>
  <speed>0.7705841939723393</speed>
  <fix>3d</fix>
</trkpt>
<trkpt lat="33.8098895" lon="-118.393899">
  <ele>-31.39</ele>
  <time>2026-09-01T01:13:32Z</time>
  <course>270.78</course>
  <speed>0.76</speed>
  <fix>3d</fix>
</trkpt>
<trkpt lat="33.8098897" lon="-118.393902">
  <ele>-32.193</ele>
  <time>2026-09-01T01:13:32Z</time>
  <course>274.89</course>
  <speed>0.7705841939723393</speed>
  <fix>3d</fix>
</trkpt>
<trkpt lat="33.8098895" lon="-118.3939007">
  <ele>-31.41</ele>
  <time>2026-09-01T01:13:32Z</time>
  <course>271.0</course>
  <speed>0.77</speed>
  <fix>3d</fix>
</trkpt>
<trkpt lat="33.8098897" lon="-118.3939028">
  <ele>-32.195</ele>
  <time>2026-09-01T01:13:32Z</time>
  <course>274.87</course>
  <speed>0.7710382610480494</speed>
  <fix>3d</fix>
</trkpt>
<trkpt lat="33.8098895" lon="-118.3939007">
  <ele>-31.41</ele>
  <time>2026-09-01T01:13:32Z</time>
  <course>271.0</course>
  <speed>0.77</speed>
  <fix>3d</fix>
</trkpt>
<trkpt lat="33.8098897" lon="-118.3939036">
  <ele>-32.196</ele>
  <time>2026-09-01T01:13:32Z</time>
  <course>274.85</course>
  <speed>0.7710382610480494</speed>
  <fix>3d</fix>
</trkpt>
<trkpt lat="33.8098895" lon="-118.3939023">
  <ele>-31.42</ele>
  <time>2026-09-01T01:13:32Z</time>
  <course>271.16</course>
  <speed>0.77</speed>
  <fix>3d</fix>
</trkpt>
<trkpt lat="33.8098897" lon="-118.3939044">
  <ele>-32.197</ele>
  <time>2026-09-01T01:13:32Z</time>
  <course>274.83</course>
  <speed>0.7610519036176179</speed>
  <fix>3d</fix>
</trkpt>
<trkpt lat="33.8098895" lon="-118.3939023">
  <ele>-31.42</ele>
  <time>2026-09-01T01:13:32Z</time>
  <course>271.16</course>
  <speed>0.77</speed>
  <fix>3d</fix>
</trkpt>
<trkpt lat="33.8098897" lon="-118.3939052">
  <ele>-32.196</ele>
  <time>2026-09-01T01:13:32Z</time>
  <course>274.8</course>
  <speed>0.7610519036176179</speed>
  <fix>3d</fix>
</trkpt>
<trkpt lat="33.8098895" lon="-118.393904">
  <ele>-31.42</ele>
  <time>2026-09-01T01:13:32Z</time>
  <course>271.31</course>
  <speed>0.77</speed>
  <fix>3d</fix>
</trkpt>
<trkpt lat="33.8098897" lon="-118.393906">
  <ele>-32.196</ele>
  <time>2026-09-01T01:13:32Z</time>
  <course>274.78</course>
  <speed>0.7610519036176179</speed>
  <fix>3d</fix>
</trkpt>
<trkpt lat="33.8098895" lon="-118.393904">
  <ele>-31.42</ele>
  <time>2026-09-01T01:13:32Z</time>
  <course>271.31</course>
  <speed>0.77</speed>
  <fix>3d</fix>
</trkpt>
<trkpt lat="33.8098898" lon="-118.3939069">
  <ele>-32.197</ele>
  <time>2026-09-01T01:13:32Z</time>
  <course>274.76</course>
  <speed>0.7610519036176179</speed>
  <fix>3d</fix>
</trkpt>
<trkpt lat="33.8098895" lon="-118.3939057">
  <ele>-31.42</ele>
  <time>2026-09-01T01:13:32Z</time>
  <course>271.43</course>
  <speed>0.77</speed>
  <fix>3d</fix>
</trkpt>
<trkpt lat="33.8098898" lon="-118.3939077">
  <ele>-32.2</ele>
  <time>2026-09-01T01:13:32Z</time>
  <course>274.74</course>
  <speed>0.7610519036176179</speed>
  <fix>3d</fix>
</trkpt>
<trkpt lat="33.8098895" lon="-118.3939057">
  <ele>-31.42</ele>
  <time>2026-09-01T01:13:32Z</time>
  <course>271.43</course>
  <speed>0.77</speed>
  <fix>3d</fix>
</trkpt>
<trkpt lat="33.8098898" lon="-118.3939085">
  <ele>-32.205</ele>
  <time>2026-09-01T01:13:32Z</time>
  <course>274.72</course>
  <speed>0.7610519036176179</speed>
  <fix>3d</fix>
</trkpt>
<trkpt lat="33.8098896" lon="-118.3939074">
  <ele>-31.42</ele>
  <time>2026-09-01T01:13:32Z</time>
  <course>271.55</course>
  <speed>0.77</speed>
  <fix>3d</fix>
</trkpt>
<trkpt lat="33.8098898" lon="-118.3939093">
  <ele>-32.209</ele>
  <time>2026-09-01T01:13:32Z</time>
  <course>274.69</course>
  <speed>0.7610519036176179</speed>
  <fix>3d</fix>
</trkpt>
<trkpt lat="33.8098896" lon="-118.3939074">
  <ele>-31.42</ele>
  <time>2026-09-01T01:13:32Z</time>
  <course>271.55</course>
  <speed>0.77</speed>
  <fix>3d</fix>
</trkpt>
<trkpt lat="33.8098898" lon="-118.3939101">
  <ele>-32.212</ele>
  <time>2026-09-01T01:13:32Z</time>
  <course>274.67</course>
  <speed>0.7610519036176179</speed>
  <fix>3d</fix>
</trkpt>
<trkpt lat="33.8098896" lon="-118.393909">
  <ele>-31.43</ele>
  <time>2026-09-01T01:13:32Z</time>
  <course>271.65</course>
  <speed>0.77</speed>
  <fix>3d</fix>
</trkpt>
<trkpt lat="33.8098898" lon="-118.393911">
  <ele>-32.213</ele>
  <time>2026-09-01T01:13:32Z</time>
  <course>274.65</course>
  <speed>0.7610519036176179</speed>
  <fix>3d</fix>
</trkpt>
<trkpt lat="33.8098896" lon="-118.393909">
  <ele>-31.43</ele>
  <time>2026-09-01T01:13:32Z</time>
  <course>271.65</course>
  <speed>0.77</speed>
  <fix>3d</fix>
</trkpt>
<trkpt lat="33.8098898" lon="-118.3939118">
  <ele>-32.211</ele>
  <time>2026-09-01T01:13:32Z</time>
  <course>274.63</course>
  <speed>0.7510659092250159</speed>
  <fix>3d</fix>
</trkpt>
<trkpt lat="33.8098896" lon="-118.3939107">
  <ele>-31.44</ele>
  <time>2026-09-01T01:13:32Z</time>
  <course>271.73</course>
  <speed>0.77</speed>
  <fix>3d</fix>
</trkpt>
<trkpt lat="33.8098898" lon="-118.3939126">
  <ele>-32.206</ele>
  <time>2026-09-01T01:13:32Z</time>
  <course>274.61</course>
  <speed>0.7510659092250159</speed>
  <fix>3d</fix>
</trkpt>
<trkpt lat="33.8098896" lon="-118.3939107">
  <ele>-31.44</ele>
  <time>2026-09-01T01:13:32Z</time>
  <course>271.73</course>
  <speed>0.77</speed>
  <fix>3d</fix>
</trkpt>
<trkpt lat="33.8098899" lon="-118.3939134">
  <ele>-32.199</ele>
  <time>2026-09-01T01:13:32Z</time>
  <course>274.59</course>
  <speed>0.7510659092250159</speed>
  <fix>3d</fix>
</trkpt>
<trkpt lat="33.8098897" lon="-118.3939124">
  <ele>-31.43</ele>
  <time>2026-09-01T01:13:32Z</time>
  <course>271.81</course>
  <speed>0.77</speed>
  <fix>3d</fix>
</trkpt>
<trkpt lat="33.8098899" lon="-118.3939142">
  <ele>-32.19</ele>
  <time>2026-09-01T01:13:32Z</time>
  <course>274.57</course>
  <speed>0.7510659092250159</speed>
  <fix>3d</fix>
</trkpt>
<trkpt lat="33.8098897" lon="-118.3939124">
  <ele>-31.43</ele>
  <time>2026-09-01T01:13:32Z</time>
  <course>271.81</course>
  <speed>0.77</speed>
  <fix>3d</fix>
</trkpt>
<trkpt lat="33.8098899" lon="-118.3939151">
  <ele>-32.18</ele>
  <time>2026-09-01T01:13:32Z</time>
  <course>274.55</course>
  <speed>0.7510659092250159</speed>
  <fix>3d</fix>
</trkpt>
<trkpt lat="33.8098897" lon="-118.3939141">
  <ele>-31.42</ele>
  <time>2026-09-01T01:13:32Z</time>
  <course>271.88</course>
  <speed>0.77</speed>
  <fix>3d</fix>
</trkpt>
<trkpt lat="33.8098899" lon="-118.3939159">
  <ele>-32.167</ele>
  <time>2026-09-01T01:13:32Z</time>
  <course>274.53</course>
  <speed>0.7510659092250159</speed>
  <fix>3d</fix>
</trkpt>
<trkpt lat="33.8098897" lon="-118.3939141">
  <ele>-31.42</ele>
  <time>2026-09-01T01:13:32Z</time>
  <course>271.88</course>
  <speed>0.77</speed>
  <fix>3d</fix>
</trkpt>
<trkpt lat="33.8098899" lon="-118.3939167">
  <ele>-32.154</ele>
  <time>2026-09-01T01:13:32Z</time>
  <course>274.51</course>
  <speed>0.7510659092250159</speed>
  <fix>3d</fix>
</trkpt>
<trkpt lat="33.8098898" lon="-118.3939157">
  <ele>-31.4</ele>
  <time>2026-09-01T01:13:32Z</time>
  <course>271.95</course>
  <speed>0.77</speed>
  <fix>3d</fix>
</trkpt>
<trkpt lat="33.8098899" lon="-118.3939175">
  <ele>-32.14</ele>
  <time>2026-09-01T01:13:32Z</time>
  <course>274.49</course>
  <speed>0.7510659092250159</speed>
  <fix>3d</fix>
</trkpt>
<trkpt lat="33.8098898" lon="-118.3939157">
  <ele>-31.4</ele>
  <time>2026-09-01T01:13:32Z</time>
  <course>271.95</course>
  <speed>0.77</speed>
  <fix>3d</fix>
</trkpt>
<trkpt lat="33.80989" lon="-118.3939184">
  <ele>-32.127</ele>
  <time>2026-09-01T01:13:32Z</time>
  <course>274.47</course>
  <speed>0.7510659092250159</speed>
  <fix>3d</fix>
</trkpt>
<trkpt lat="33.8098898" lon="-118.3939174">
  <ele>-31.38</ele>
  <time>2026-09-01T01:13:32Z</time>
  <course>272.01</course>
  <speed>0.77</speed>
  <fix>3d</fix>
</trkpt>
<trkpt lat="33.80989" lon="-118.3939192">
  <ele>-32.115</ele>
  <time>2026-09-01T01:13:32Z</time>
  <course>274.45</course>
  <speed>0.7510659092250159</speed>
  <fix>3d</fix>
</trkpt>
<trkpt lat="33.8098898" lon="-118.3939174">
  <ele>-31.38</ele>
  <time>2026-09-01T01:13:32Z</time>
  <course>272.01</course>
  <speed>0.77</speed>
  <fix>3d</fix>
</trkpt>
<trkpt lat="33.80989" lon="-118.39392">
  <ele>-32.104</ele>
  <time>2026-09-01T01:13:32Z</time>
  <course>274.43</course>
  <speed>0.7510659092250159</speed>
  <fix>3d</fix>
</trkpt>
<trkpt lat="33.8098899" lon="-118.3939191">
  <ele>-31.36</ele>
  <time>2026-09-01T01:13:32Z</time>
  <course>272.06</course>
  <speed>0.77</speed>
  <fix>3d</fix>
</trkpt>
<trkpt lat="33.80989" lon="-118.3939209">
  <ele>-32.096</ele>
  <time>2026-09-01T01:13:32Z</time>
  <course>274.41</course>
  <speed>0.7510659092250159</speed>
  <fix>3d</fix>
</trkpt>
<trkpt lat="33.8098899" lon="-118.3939191">
  <ele>-31.36</ele>
  <time>2026-09-01T01:13:32Z</time>
  <course>272.06</course>
  <speed>0.77</speed>
  <fix>3d</fix>
</trkpt>
<trkpt lat="33.80989" lon="-118.3939217">
  <ele>-32.089</ele>
  <time>2026-09-01T01:13:32Z</time>
  <course>274.39</course>
  <speed>0.7510659092250159</speed>
  <fix>3d</fix>
</trkpt>
<trkpt lat="33.8098899" lon="-118.3939208">
  <ele>-31.34</ele>
  <time>2026-09-01T01:13:32Z</time>
  <course>272.11</course>
  <speed>0.77</speed>
  <fix>3d</fix>
</trkpt>
<trkpt lat="33.8098901" lon="-118.3939225">
  <ele>-32.083</ele>
  <time>2026-09-01T01:13:32Z</time>
  <course>274.37</course>
  <speed>0.7510659092250159</speed>
  <fix>3d</fix>
</trkpt>
<trkpt lat="33.8098899" lon="-118.3939208">
  <ele>-31.34</ele>
  <time>2026-09-01T01:13:32Z</time>
  <course>272.11</course>
  <speed>0.77</speed>
  <fix>3d</fix>
</trkpt>
<trkpt lat="33.8098901" lon="-118.3939233">
  <ele>-32.078</ele>
  <time>2026-09-01T01:13:32Z</time>
  <course>274.35</course>
  <speed>0.7510659092250159</speed>
  <fix>3d</fix>
</trkpt>
<trkpt lat="33.8098899" lon="-118.3939224">
  <ele>-31.32</ele>
  <time>2026-09-01T01:13:32Z</time>
  <course>272.15</course>
  <speed>0.77</speed>
  <fix>3d</fix>
</trkpt>
<trkpt lat="33.8098901" lon="-118.3939242">
  <ele>-32.074</ele>
  <time>2026-09-01T01:13:32Z</time>
  <course>274.33</course>
  <speed>0.7510659092250159</speed>
  <fix>3d</fix>
</trkpt>
<trkpt lat="33.8098899" lon="-118.3939224">
  <ele>-31.32</ele>
  <time>2026-09-01T01:13:32Z</time>
  <course>272.15</course>
  <speed>0.77</speed>
  <fix>3d</fix>
</trkpt>
<trkpt lat="33.8098901" lon="-118.393925">
  <ele>-32.072</ele>
  <time>2026-09-01T01:13:32Z</time>
  <course>274.32</course>
  <speed>0.7510659092250159</speed>
  <fix>3d</fix>
</trkpt>
<trkpt lat="33.80989" lon="-118.3939241">
  <ele>-31.31</ele>
  <time>2026-09-01T01:13:32Z</time>
  <course>272.2</course>
  <speed>0.77</speed>
  <fix>3d</fix>
</trkpt>
<trkpt lat="33.8098901" lon="-118.3939258">
  <ele>-32.072</ele>
  <time>2026-09-01T01:13:32Z</time>
  <course>274.3</course>
  <speed>0.7510659092250159</speed>
  <fix>3d</fix>
</trkpt>
<trkpt lat="33.80989" lon="-118.3939241">
  <ele>-31.31</ele>
  <time>2026-09-01T01:13:32Z</time>
  <course>272.2</course>
  <speed>0.77</speed>
  <fix>3d</fix>
</trkpt>
<trkpt lat="33.8098902" lon="-118.3939266">
  <ele>-32.076</ele>
  <time>2026-09-01T01:13:32Z</time>
  <course>274.28</course>
  <speed>0.7510659092250159</speed>
  <fix>3d</fix>
</trkpt>
<trkpt lat="33.80989" lon="-118.3939258">
  <ele>-31.31</ele>
  <time>2026-09-01T01:13:32Z</time>
  <course>272.24</course>
  <speed>0.77</speed>
  <fix>3d</fix>
</trkpt>
<trkpt lat="33.8098902" lon="-118.3939275">
  <ele>-32.081</ele>
  <time>2026-09-01T01:13:32Z</time>
  <course>274.26</course>
  <speed>0.7510659092250159</speed>
  <fix>3d</fix>
</trkpt>
<trkpt lat="33.80989" lon="-118.3939258">
  <ele>-31.31</ele>
  <time>2026-09-01T01:13:32Z</time>
  <course>272.24</course>
  <speed>0.77</speed>
  <fix>3d</fix>
</trkpt>
<trkpt lat="33.8098902" lon="-118.3939283">
  <ele>-32.088</ele>
  <time>2026-09-01T01:13:32Z</time>
  <course>274.25</course>
  <speed>0.7510659092250159</speed>
  <fix>3d</fix>
</trkpt>
<trkpt lat="33.8098901" lon="-118.3939275">
  <ele>-31.31</ele>
  <time>2026-09-01T01:13:32Z</time>
  <course>272.28</course>
  <speed>0.77</speed>
  <fix>3d</fix>
</trkpt>
<trkpt lat="33.8098902" lon="-118.3939291">
  <ele>-32.096</ele>
  <time>2026-09-01T01:13:32Z</time>
  <course>274.23</course>
  <speed>0.7510659092250159</speed>
  <fix>3d</fix>
</trkpt>
<trkpt lat="33.8098901" lon="-118.3939275">
  <ele>-31.31</ele>
  <time>2026-09-01T01:13:32Z</time>
  <course>272.28</course>
  <speed>0.77</speed>
  <fix>3d</fix>
</trkpt>
<trkpt lat="33.8098903" lon="-118.39393">
  <ele>-32.102</ele>
  <time>2026-09-01T01:13:32Z</time>
  <course>274.21</course>
  <speed>0.7510659092250159</speed>
  <fix>3d</fix>
</trkpt>
<trkpt lat="33.8098902" lon="-118.3939291">
  <ele>-31.32</ele>
  <time>2026-09-01T01:13:32Z</time>
  <course>272.31</course>
  <speed>0.77</speed>
  <fix>3d</fix>
</trkpt>
<trkpt lat="33.8098903" lon="-118.3939308">
  <ele>-32.107</ele>
  <time>2026-09-01T01:13:32Z</time>
  <course>274.2</course>
  <speed>0.7410802925459562</speed>
  <fix>3d</fix>
</trkpt>
<trkpt lat="33.8098902" lon="-118.3939291">
  <ele>-31.32</ele>
  <time>2026-09-01T01:13:32Z</time>
  <course>272.31</course>
  <speed>0.77</speed>
  <fix>3d</fix>
</trkpt>
<trkpt lat="33.8098903" lon="-118.3939316">
  <ele>-32.111</ele>
  <time>2026-09-01T01:13:32Z</time>
  <course>274.18</course>
  <speed>0.7410802925459562</speed>
  <fix>3d</fix>
</trkpt>
<trkpt lat="33.8098902" lon="-118.3939308">
  <ele>-31.33</ele>
  <time>2026-09-01T01:13:32Z</time>
  <course>272.34</course>
  <speed>0.77</speed>
  <fix>3d</fix>
</trkpt>
<trkpt lat="33.8098903" lon="-118.3939324">
  <ele>-32.113</ele>
  <time>2026-09-01T01:13:32Z</time>
  <course>274.17</course>
  <speed>0.7410802925459562</speed>
  <fix>3d</fix>
</trkpt>
<trkpt lat="33.8098902" lon="-118.3939308">
  <ele>-31.33</ele>
  <time>2026-09-01T01:13:32Z</time>
  <course>272.34</course>
  <speed>0.77</speed>
  <fix>3d</fix>
</trkpt>
<trkpt lat="33.8098904" lon="-118.3939333">
  <ele>-32.114</ele>
  <time>2026-09-01T01:13:32Z</time>
  <course>274.15</course>
  <speed>0.7410802925459562</speed>
  <fix>3d</fix>
</trkpt>
<trkpt lat="33.8098903" lon="-118.3939325">
  <ele>-31.34</ele>
  <time>2026-09-01T01:13:32Z</time>
  <course>272.36</course>
  <speed>0.77</speed>
  <fix>3d</fix>
</trkpt>
<trkpt lat="33.8098904" lon="-118.3939341">
  <ele>-32.111</ele>
  <time>2026-09-01T01:13:32Z</time>
  <course>274.13</course>
  <speed>0.7410802925459562</speed>
  <fix>3d</fix>
</trkpt>
<trkpt lat="33.8098903" lon="-118.3939325">
  <ele>-31.34</ele>
  <time>2026-09-01T01:13:32Z</time>
  <course>272.36</course>
  <speed>0.77</speed>
  <fix>3d</fix>
</trkpt>
<trkpt lat="33.8098904" lon="-118.3939349">
  <ele>-32.106</ele>
  <time>2026-09-01T01:13:32Z</time>
  <course>274.12</course>
  <speed>0.7410802925459562</speed>
  <fix>3d</fix>
</trkpt>
<trkpt lat="33.8098904" lon="-118.3939342">
  <ele>-31.34</ele>
  <time>2026-09-01T01:13:32Z</time>
  <course>272.38</course>
  <speed>0.77</speed>
  <fix>3d</fix>
</trkpt>
<trkpt lat="33.8098905" lon="-118.3939358">
  <ele>-32.1</ele>
  <time>2026-09-01T01:13:32Z</time>
  <course>274.1</course>
  <speed>0.7410802925459562</speed>
  <fix>3d</fix>
</trkpt>
<trkpt lat="33.8098904" lon="-118.3939342">
  <ele>-31.34</ele>
  <time>2026-09-01T01:13:32Z</time>
  <course>272.38</course>
  <speed>0.77</speed>
  <fix>3d</fix>
</trkpt>
<trkpt lat="33.8098905" lon="-118.3939366">
  <ele>-32.093</ele>
  <time>2026-09-01T01:13:32Z</time>
  <course>274.08</course>
  <speed>0.7410802925459562</speed>
  <fix>3d</fix>
</trkpt>
<trkpt lat="33.8098904" lon="-118.3939358">
  <ele>-31.33</ele>
  <time>2026-09-01T01:13:32Z</time>
  <course>272.4</course>
  <speed>0.77</speed>
  <fix>3d</fix>
</trkpt>
<trkpt lat="33.8098905" lon="-118.3939374">
  <ele>-32.085</ele>
  <time>2026-09-01T01:13:32Z</time>
  <course>274.07</course>
  <speed>0.7410802925459562</speed>
  <fix>3d</fix>
</trkpt>
<trkpt lat="33.8098904" lon="-118.3939358">
  <ele>-31.33</ele>
  <time>2026-09-01T01:13:32Z</time>
  <course>272.4</course>
  <speed>0.77</speed>
  <fix>3d</fix>
</trkpt>
<trkpt lat="33.8098905" lon="-118.3939383">
  <ele>-32.075</ele>
  <time>2026-09-01T01:13:32Z</time>
  <course>274.06</course>
  <speed>0.6711929677819934</speed>
  <fix>3d</fix>
</trkpt>
<trkpt lat="33.8098905" lon="-118.3939375">
  <ele>-31.32</ele>
  <time>2026-09-01T01:13:32Z</time>
  <course>272.42</course>
  <speed>0.77</speed>
  <fix>3d</fix>
</trkpt>
<trkpt lat="33.8098906" lon="-118.3939389">
  <ele>-32.066</ele>
  <time>2026-09-01T01:13:32Z</time>
  <course>274.05</course>
  <speed>0.5003998401278722</speed>
  <fix>3d</fix>
</trkpt>
<trkpt lat="33.8098905" lon="-118.3939375">
  <ele>-31.32</ele>
  <time>2026-09-01T01:13:32Z</time>
  <course>272.42</course>
  <speed>0.77</speed>
  <fix>3d</fix>
</trkpt>
<trkpt lat="33.8098906" lon="-118.3939394">
  <ele>-32.055</ele>
  <time>2026-09-01T01:13:32Z</time>
  <course>274.05</course>
  <speed>0.4004996878900158</speed>
  <fix>3d</fix>
</trkpt>
<trkpt lat="33.8098905" lon="-118.3939391">
  <ele>-31.31</ele>
  <time>2026-09-01T01:13:32Z</time>
  <course>272.2</course>
  <speed>0.63</speed>
  <fix>3d</fix>
</trkpt>
<trkpt lat="33.8098906" lon="-118.3939399">
  <ele>-32.045</ele>
  <time>2026-09-01T01:13:32Z</time>
  <course>274.52</course>
  <speed>0.3301514803843835</speed>
  <fix>3d</fix>
</trkpt>
<trkpt lat="33.8098905" lon="-118.3939391">
  <ele>-31.31</ele>
  <time>2026-09-01T01:13:32Z</time>
  <course>272.2</course>
  <speed>0.63</speed>
  <fix>3d</fix>
</trkpt>
<trkpt lat="33.8098906" lon="-118.3939402">
  <ele>-32.034</ele>
  <time>2026-09-01T01:13:32Z</time>
  <course>275.73</course>
  <speed>0.280178514522438</speed>
  <fix>3d</fix>
</trkpt>
<trkpt lat="33.8098905" lon="-118.3939402">
  <ele>-31.29</ele>
  <time>2026-09-01T01:13:32Z</time>
  <course>271.55</course>
  <speed>0.41</speed>
  <fix>3d</fix>
</trkpt>
<trkpt lat="33.8098906" lon="-118.3939406">
  <ele>-32.024</ele>
  <time>2026-09-01T01:13:32Z</time>
  <course>277.34</course>
  <speed>0.24</speed>
  <fix>3d</fix>
</trkpt>
<trkpt lat="33.8098905" lon="-118.3939402">
  <ele>-31.29</ele>
  <time>2026-09-01T01:13:32Z</time>
  <course>271.55</course>
  <speed>0.41</speed>
  <fix>3d</fix>
</trkpt>
<trkpt lat="33.8098906" lon="-118.3939409">
  <ele>-32.014</ele>
  <time>2026-09-01T01:13:32Z</time>
  <course>279.15</course>
  <speed>0.21</speed>
  <fix>3d</fix>
</trkpt>
<trkpt lat="33.8098905" lon="-118.3939409">
  <ele>-31.27</ele>
  <time>2026-09-01T01:13:32Z</time>
  <course>270.6</course>
  <speed>0.29</speed>
  <fix>3d</fix>
</trkpt>
<trkpt lat="33.8098906" lon="-118.3939411">
  <ele>-32.005</ele>
  <time>2026-09-01T01:13:32Z</time>
  <course>281.08</course>
  <speed>0.19</speed>
  <fix>3d</fix>
</trkpt>
<trkpt lat="33.8098905" lon="-118.3939409">
  <ele>-31.27</ele>
  <time>2026-09-01T01:13:32Z</time>
  <course>270.6</course>
  <speed>0.29</speed>
  <fix>3d</fix>
</trkpt>
<trkpt lat="33.8098906" lon="-118.3939414">
  <ele>-31.995</ele>
  <time>2026-09-01T01:13:32Z</time>
  <course>283.1</course>
  <speed>0.17</speed>
  <fix>3d</fix>
</trkpt>
<trkpt lat="33.8098905" lon="-118.3939415">
  <ele>-31.25</ele>
  <time>2026-09-01T01:13:32Z</time>
  <course>269.21</course>
  <speed>0.23</speed>
  <fix>3d</fix>
</trkpt>
<trkpt lat="33.8098906" lon="-118.3939416">
  <ele>-31.988</ele>
  <time>2026-09-01T01:13:32Z</time>
  <course>285.19</course>
  <speed>0.16</speed>
  <fix>3d</fix>
</trkpt>
<trkpt lat="33.8098905" lon="-118.3939415">
  <ele>-31.25</ele>
  <time>2026-09-01T01:13:32Z</time>
  <course>269.21</course>
  <speed>0.23</speed>
  <fix>3d</fix>
</trkpt>
<trkpt lat="33.8098906" lon="-118.3939418">
  <ele>-31.984</ele>
  <time>2026-09-01T01:13:32Z</time>
  <course>287.33</course>
  <speed>0.15</speed>
  <fix>3d</fix>
</trkpt>
<trkpt lat="33.8098905" lon="-118.393942">
  <ele>-31.23</ele>
  <time>2026-09-01T01:13:32Z</time>
  <course>267.61</course>
  <speed>0.19</speed>
  <fix>3d</fix>
</trkpt>
<trkpt lat="33.8098906" lon="-118.393942">
  <ele>-31.983</ele>
  <time>2026-09-01T01:13:32Z</time>
  <course>289.52</course>
  <speed>0.14</speed>
  <fix>3d</fix>
</trkpt>
<trkpt lat="33.8098905" lon="-118.393942">
  <ele>-31.23</ele>
  <time>2026-09-01T01:13:32Z</time>
  <course>267.61</course>
  <speed>0.19</speed>
  <fix>3d</fix>
</trkpt>
<trkpt lat="33.8098906" lon="-118.3939422">
  <ele>-31.985</ele>
  <time>2026-09-01T01:13:32Z</time>
  <course>291.74</course>
  <speed>0.13</speed>
  <fix>3d</fix>
</trkpt>
<trkpt lat="33.8098905" lon="-118.3939423">
  <ele>-31.23</ele>
  <time>2026-09-01T01:13:32Z</time>
  <course>266.13</course>
  <speed>0.16</speed>
  <fix>3d</fix>
</trkpt>
<trkpt lat="33.8098906" lon="-118.3939424">
  <ele>-31.99</ele>
  <time>2026-09-01T01:13:32Z</time>
  <course>293.99</course>
  <speed>0.12</speed>
  <fix>3d</fix>
</trkpt>
<trkpt lat="33.8098905" lon="-118.3939423">
  <ele>-31.23</ele>
  <time>2026-09-01T01:13:32Z</time>
  <course>266.13</course>
  <speed>0.16</speed>
  <fix>3d</fix>
</trkpt>
<trkpt lat="33.8098906" lon="-118.3939425">
  <ele>-31.997</ele>
  <time>2026-09-01T01:13:32Z</time>
  <course>296.28</course>
  <speed>0.11</speed>
  <fix>3d</fix>
</trkpt>
<trkpt lat="33.8098905" lon="-118.3939427">
  <ele>-31.23</ele>
  <time>2026-09-01T01:13:32Z</time>
  <course>264.98</course>
  <speed>0.14</speed>
  <fix>3d</fix>
</trkpt>
<trkpt lat="33.8098906" lon="-118.3939427">
  <ele>-32.005</ele>
  <time>2026-09-01T01:13:32Z</time>
  <course>298.59</course>
  <speed>0.11</speed>
  <fix>3d</fix>
</trkpt>
<trkpt lat="33.8098905" lon="-118.3939427">
  <ele>-31.23</ele>
  <time>2026-09-01T01:13:32Z</time>
  <course>264.98</course>
  <speed>0.14</speed>
  <fix>3d</fix>
</trkpt>
<trkpt lat="33.8098906" lon="-118.3939428">
  <ele>-32.013</ele>
  <time>2026-09-01T01:13:32Z</time>
  <course>300.92</course>
  <speed>0.1</speed>
  <fix>3d</fix>
</trkpt>
<trkpt lat="33.8098905" lon="-118.393943">
  <ele>-31.24</ele>
  <time>2026-09-01T01:13:32Z</time>
  <course>264.26</course>
  <speed>0.13</speed>
  <fix>3d</fix>
</trkpt>
<trkpt lat="33.8098906" lon="-118.393943">
  <ele>-32.022</ele>
  <time>2026-09-01T01:13:32Z</time>
  <course>303.27</course>
  <speed>0.1</speed>
  <fix>3d</fix>
</trkpt>
<trkpt lat="33.8098905" lon="-118.393943">
  <ele>-31.24</ele>
  <time>2026-09-01T01:13:32Z</time>
  <course>264.26</course>
  <speed>0.13</speed>
  <fix>3d</fix>
</trkpt>
<trkpt lat="33.8098906" lon="-118.3939431">
  <ele>-32.03</ele>
  <time>2026-09-01T01:13:32Z</time>
  <course>305.64</course>
  <speed>0.09</speed>
  <fix>3d</fix>
</trkpt>
<trkpt lat="33.8098905" lon="-118.3939433">
  <ele>-31.25</ele>
  <time>2026-09-01T01:13:32Z</time>
  <course>263.98</course>
  <speed>0.12</speed>
  <fix>3d</fix>
</trkpt>
<trkpt lat="33.8098906" lon="-118.3939432">
  <ele>-32.038</ele>
  <time>2026-09-01T01:13:32Z</time>
  <course>308.02</course>
  <speed>0.09</speed>
  <fix>3d</fix>
</trkpt>
<trkpt lat="33.8098905" lon="-118.3939433">
  <ele>-31.25</ele>
  <time>2026-09-01T01:13:32Z</time>
  <course>263.98</course>
  <speed>0.12</speed>
  <fix>3d</fix>
</trkpt>
<trkpt lat="33.8098906" lon="-118.3939434">
  <ele>-32.044</ele>
  <time>2026-09-01T01:13:32Z</time>
  <course>310.44</course>
  <speed>0.09</speed>
  <fix>3d</fix>
</trkpt>
<trkpt lat="33.8098905" lon="-118.3939435">
  <ele>-31.26</ele>
  <time>2026-09-01T01:13:32Z</time>
  <course>264.1</course>
  <speed>0.11</speed>
  <fix>3d</fix>
</trkpt>
<trkpt lat="33.8098906" lon="-118.3939435">
  <ele>-32.049</ele>
  <time>2026-09-01T01:13:32Z</time>
  <course>312.85</course>
  <speed>0.08</speed>
  <fix>3d</fix>
</trkpt>
<trkpt lat="33.8098905" lon="-118.3939435">
  <ele>-31.26</ele>
  <time>2026-09-01T01:13:32Z</time>
  <course>264.1</course>
  <speed>0.11</speed>
  <fix>3d</fix>
</trkpt>
<trkpt lat="33.8098906" lon="-118.3939436">
  <ele>-32.055</ele>
  <time>2026-09-01T01:13:32Z</time>
  <course>315.26</course>
  <speed>0.08</speed>
  <fix>3d</fix>
</trkpt>
<trkpt lat="33.8098905" lon="-118.3939438">
  <ele>-31.27</ele>
  <time>2026-09-01T01:13:32Z</time>
  <course>264.58</course>
  <speed>0.1</speed>
  <fix>3d</fix>
</trkpt>
<trkpt lat="33.8098906" lon="-118.3939437">
  <ele>-32.06</ele>
  <time>2026-09-01T01:13:32Z</time>
  <course>317.68</course>
  <speed>0.08</speed>
  <fix>3d</fix>
</trkpt>
<trkpt lat="33.8098905" lon="-118.3939438">
  <ele>-31.27</ele>
  <time>2026-09-01T01:13:32Z</time>
  <course>264.58</course>
  <speed>0.1</speed>
  <fix>3d</fix>
</trkpt>
<trkpt lat="33.8098906" lon="-118.3939438">
  <ele>-32.066</ele>
  <time>2026-09-01T01:13:32Z</time>
  <course>320.11</course>
  <speed>0.07</speed>
  <fix>3d</fix>
</trkpt>
<trkpt lat="33.8098905" lon="-118.393944">
  <ele>-31.28</ele>
  <time>2026-09-01T01:13:32Z</time>
  <course>265.32</course>
  <speed>0.09</speed>
  <fix>3d</fix>
</trkpt>
<trkpt lat="33.8098906" lon="-118.3939439">
  <ele>-32.071</ele>
  <time>2026-09-01T01:13:32Z</time>
  <course>322.56</course>
  <speed>0.07071067811865475</speed>
  <fix>3d</fix>
</trkpt>
<trkpt lat="33.8098905" lon="-118.393944">
  <ele>-31.28</ele>
  <time>2026-09-01T01:13:32Z</time>
  <course>265.32</course>
  <speed>0.09</speed>
  <fix>3d</fix>
</trkpt>
<trkpt lat="33.8098906" lon="-118.393944">
  <ele>-32.076</ele>
  <time>2026-09-01T01:13:32Z</time>
  <course>325.02</course>
  <speed>0.07071067811865475</speed>
  <fix>3d</fix>
</trkpt>
<trkpt lat="33.8098905" lon="-118.3939442">
  <ele>-31.29</ele>
  <time>2026-09-01T01:13:32Z</time>
  <course>266.26</course>
  <speed>0.08</speed>
  <fix>3d</fix>
</trkpt>
<trkpt lat="33.8098906" lon="-118.3939441">
  <ele>-32.079</ele>
  <time>2026-09-01T01:13:32Z</time>
  <course>327.47</course>
  <speed>0.06082762530298219</speed>
  <fix>3d</fix>
</trkpt>
<trkpt lat="33.8098905" lon="-118.3939442">
  <ele>-31.29</ele>
  <time>2026-09-01T01:13:32Z</time>
  <course>266.26</course>
  <speed>0.08</speed>
  <fix>3d</fix>
</trkpt>
<trkpt lat="33.8098906" lon="-118.3939442">
  <ele>-32.083</ele>
  <time>2026-09-01T01:13:32Z</time>
  <course>329.92</course>
  <speed>0.06082762530298219</speed>
  <fix>3d</fix>
</trkpt>
<trkpt lat="33.8098905" lon="-118.3939443">
  <ele>-31.3</ele>
  <time>2026-09-01T01:13:32Z</time>
  <course>267.31</course>
  <speed>0.08</speed>
  <fix>3d</fix>
</trkpt>
<trkpt lat="33.8098906" lon="-118.3939443">
  <ele>-32.086</ele>
  <time>2026-09-01T01:13:32Z</time>
  <course>332.38</course>
  <speed>0.06082762530298219</speed>
  <fix>3d</fix>
</trkpt>
<trkpt lat="33.8098905" lon="-118.3939443">
  <ele>-31.3</ele>
  <time>2026-09-01T01:13:32Z</time>
  <course>267.31</course>
  <speed>0.08</speed>
  <fix>3d</fix>
</trkpt>
<trkpt lat="33.8098906" lon="-118.3939444">
  <ele>-32.09</ele>
  <time>2026-09-01T01:13:32Z</time>
  <course>334.83</course>
  <speed>0.06082762530298219</speed>
  <fix>3d</fix>
</trkpt>
<trkpt lat="33.8098905" lon="-118.3939445">
  <ele>-31.31</ele>
  <time>2026-09-01T01:13:32Z</time>
  <course>268.41</course>
  <speed>0.07</speed>
  <fix>3d</fix>
</trkpt>
<trkpt lat="33.8098906" lon="-118.3939445">
  <ele>-32.095</ele>
  <time>2026-09-01T01:13:32Z</time>
  <course>337.29</course>
  <speed>0.05099019513592785</speed>
  <fix>3d</fix>
</trkpt>
<trkpt lat="33.8098905" lon="-118.3939445">
  <ele>-31.31</ele>
  <time>2026-09-01T01:13:32Z</time>
  <course>268.41</course>
  <speed>0.07</speed>
  <fix>3d</fix>
</trkpt>
<trkpt lat="33.8098906" lon="-118.3939446">
  <ele>-32.103</ele>
  <time>2026-09-01T01:13:32Z</time>
  <course>339.75</course>
  <speed>0.05099019513592785</speed>
  <fix>3d</fix>
</trkpt>
<trkpt lat="33.8098905" lon="-118.3939447">
  <ele>-31.32</ele>
  <time>2026-09-01T01:13:32Z</time>
  <course>269.51</course>
  <speed>0.07</speed>
  <fix>3d</fix>
</trkpt>
<trkpt lat="33.8098906" lon="-118.3939446">
  <ele>-32.11</ele>
  <time>2026-09-01T01:13:32Z</time>
  <course>342.22</course>
  <speed>0.05099019513592785</speed>
  <fix>3d</fix>
</trkpt>
<trkpt lat="33.8098905" lon="-118.3939447">
  <ele>-31.32</ele>
  <time>2026-09-01T01:13:32Z</time>
  <course>269.51</course>
  <speed>0.07</speed>
  <fix>3d</fix>
</trkpt>
<trkpt lat="33.8098906" lon="-118.3939447">
  <ele>-32.117</ele>
  <time>2026-09-01T01:13:32Z</time>
  <course>344.69</course>
  <speed>0.053851648071345036</speed>
  <fix>3d</fix>
</trkpt>
<trkpt lat="33.8098905" lon="-118.3939448">
  <ele>-31.33</ele>
  <time>2026-09-01T01:13:32Z</time>
  <course>270.55</course>
  <speed>0.06</speed>
  <fix>3d</fix>
</trkpt>
<trkpt lat="33.8098906" lon="-118.3939448">
  <ele>-32.124</ele>
  <time>2026-09-01T01:13:32Z</time>
  <course>347.17</course>
  <speed>0.044721359549995794</speed>
  <fix>3d</fix>
</trkpt>
<trkpt lat="33.8098905" lon="-118.3939448">
  <ele>-31.33</ele>
  <time>2026-09-01T01:13:32Z</time>
  <course>270.55</course>
  <speed>0.06</speed>
  <fix>3d</fix>
</trkpt>
<trkpt lat="33.8098906" lon="-118.3939448">
  <ele>-32.129</ele>
  <time>2026-09-01T01:13:32Z</time>
  <course>349.64</course>
  <speed>0.044721359549995794</speed>
  <fix>3d</fix>
</trkpt>
<trkpt lat="33.8098905" lon="-118.3939449">
  <ele>-31.35</ele>
  <time>2026-09-01T01:13:32Z</time>
  <course>271.48</course>
  <speed>0.06</speed>
  <fix>3d</fix>
</trkpt>
<trkpt lat="33.8098906" lon="-118.3939449">
  <ele>-32.132</ele>
  <time>2026-09-01T01:13:32Z</time>
  <course>352.12</course>
  <speed>0.044721359549995794</speed>
  <fix>3d</fix>
</trkpt>
<trkpt lat="33.8098905" lon="-118.3939449">
  <ele>-31.35</ele>
  <time>2026-09-01T01:13:32Z</time>
  <course>271.48</course>
  <speed>0.06</speed>
  <fix>3d</fix>
</trkpt>
<trkpt lat="33.8098906" lon="-118.393945">
  <ele>-32.133</ele>
  <time>2026-09-01T01:13:32Z</time>
  <course>354.59</course>
  <speed>0.044721359549995794</speed>
  <fix>3d</fix>
</trkpt>
<trkpt lat="33.8098905" lon="-118.3939451">
  <ele>-31.36</ele>
  <time>2026-09-01T01:13:32Z</time>
  <course>272.23</course>
  <speed>0.05</speed>
  <fix>3d</fix>
</trkpt>
<trkpt lat="33.8098906" lon="-118.393945">
  <ele>-32.131</ele>
  <time>2026-09-01T01:13:32Z</time>
  <course>357.07</course>
  <speed>0.03605551275463989</speed>
  <fix>3d</fix>
</trkpt>
<trkpt lat="33.8098905" lon="-118.3939451">
  <ele>-31.36</ele>
  <time>2026-09-01T01:13:32Z</time>
  <course>272.23</course>
  <speed>0.05</speed>
  <fix>3d</fix>
</trkpt>
<trkpt lat="33.8098906" lon="-118.3939451">
  <ele>-32.128</ele>
  <time>2026-09-01T01:13:32Z</time>
  <course>359.54</course>
  <speed>0.03605551275463989</speed>
  <fix>3d</fix>
</trkpt>
<trkpt lat="33.8098905" lon="-118.3939452">
  <ele>-31.36</ele>
  <time>2026-09-01T01:13:32Z</time>
  <course>272.78</course>
  <speed>0.05</speed>
  <fix>3d</fix>
</trkpt>
<trkpt lat="33.8098906" lon="-118.3939451">
  <ele>-32.123</ele>
  <time>2026-09-01T01:13:32Z</time>
  <course>2.03</course>
  <speed>0.03605551275463989</speed>
  <fix>3d</fix>
</trkpt>
<trkpt lat="33.8098905" lon="-118.3939452">
  <ele>-31.36</ele>
  <time>2026-09-01T01:13:32Z</time>
  <course>272.78</course>
  <speed>0.05</speed>
  <fix>3d</fix>
</trkpt>
<trkpt lat="33.8098906" lon="-118.3939452">
  <ele>-32.118</ele>
  <time>2026-09-01T01:13:32Z</time>
  <course>4.5</course>
  <speed>0.03605551275463989</speed>
  <fix>3d</fix>
</trkpt>
<trkpt lat="33.8098905" lon="-118.3939453">
  <ele>-31.35</ele>
  <time>2026-09-01T01:13:32Z</time>
  <course>273.1</course>
  <speed>0.05</speed>
  <fix>3d</fix>
</trkpt>
<trkpt lat="33.8098906" lon="-118.3939452">
  <ele>-32.113</ele>
  <time>2026-09-01T01:13:32Z</time>
  <course>6.97</course>
  <speed>0.03605551275463989</speed>
  <fix>3d</fix>
</trkpt>
<trkpt lat="33.8098905" lon="-118.3939453">
  <ele>-31.35</ele>
  <time>2026-09-01T01:13:32Z</time>
  <course>273.1</course>
  <speed>0.05</speed>
  <fix>3d</fix>
</trkpt>
<trkpt lat="33.8098906" lon="-118.3939453">
  <ele>-32.106</ele>
  <time>2026-09-01T01:13:32Z</time>
  <course>9.44</course>
  <speed>0.0316227766016838</speed>
  <fix>3d</fix>
</trkpt>
<trkpt lat="33.8098905" lon="-118.3939454">
  <ele>-31.34</ele>
  <time>2026-09-01T01:13:32Z</time>
  <course>273.15</course>
  <speed>0.04</speed>
  <fix>3d</fix>
</trkpt>
<trkpt lat="33.8098906" lon="-118.3939453">
  <ele>-32.099</ele>
  <time>2026-09-01T01:13:32Z</time>
  <course>11.9</course>
  <speed>0.022360679774997897</speed>
  <fix>3d</fix>
</trkpt>
<trkpt lat="33.8098905" lon="-118.3939454">
  <ele>-31.34</ele>
  <time>2026-09-01T01:13:32Z</time>
  <course>273.15</course>
  <speed>0.04</speed>
  <fix>3d</fix>
</trkpt>
<trkpt lat="33.8098906" lon="-118.3939454">
  <ele>-32.091</ele>
  <time>2026-09-01T01:13:32Z</time>
  <course>14.37</course>
  <speed>0.022360679774997897</speed>
  <fix>3d</fix>
</trkpt>
<trkpt lat="33.8098905" lon="-118.3939455">
  <ele>-31.33</ele>
  <time>2026-09-01T01:13:32Z</time>
  <course>272.95</course>
  <speed>0.04</speed>
  <fix>3d</fix>
</trkpt>
<trkpt lat="33.8098906" lon="-118.3939454">
  <ele>-32.086</ele>
  <time>2026-09-01T01:13:32Z</time>
  <course>16.83</course>
  <speed>0.022360679774997897</speed>
  <fix>3d</fix>
</trkpt>
<trkpt lat="33.8098905" lon="-118.3939455">
  <ele>-31.33</ele>
  <time>2026-09-01T01:13:32Z</time>
  <course>272.95</course>
  <speed>0.04</speed>
  <fix>3d</fix>
</trkpt>
<trkpt lat="33.8098906" lon="-118.3939455">
  <ele>-32.082</ele>
  <time>2026-09-01T01:13:32Z</time>
  <course>19.3</course>
  <speed>0.022360679774997897</speed>
  <fix>3d</fix>
</trkpt>
<trkpt lat="33.8098905" lon="-118.3939456">
  <ele>-31.32</ele>
  <time>2026-09-01T01:13:32Z</time>
  <course>272.54</course>
  <speed>0.04</speed>
  <fix>3d</fix>
</trkpt>
<trkpt lat="33.8098906" lon="-118.3939455">
  <ele>-32.081</ele>
  <time>2026-09-01T01:13:32Z</time>
  <course>21.76</course>
  <speed>0.022360679774997897</speed>
  <fix>3d</fix>
</trkpt>
<trkpt lat="33.8098905" lon="-118.3939456">
  <ele>-31.32</ele>
  <time>2026-09-01T01:13:32Z</time>
  <course>272.54</course>
  <speed>0.04</speed>
  <fix>3d</fix>
</trkpt>
<trkpt lat="33.8098906" lon="-118.3939455">
  <ele>-32.08</ele>
  <time>2026-09-01T01:13:32Z</time>
  <course>24.22</course>
  <speed>0.022360679774997897</speed>
  <fix>3d</fix>
</trkpt>
<trkpt lat="33.8098905" lon="-118.3939457">
  <ele>-31.32</ele>
  <time>2026-09-01T01:13:32Z</time>
  <course>271.98</course>
  <speed>0.04</speed>
  <fix>3d</fix>
</trkpt>
<trkpt lat="33.8098906" lon="-118.3939456">
  <ele>-32.079</ele>
  <time>2026-09-01T01:13:32Z</time>
  <course>26.68</course>
  <speed>0.022360679774997897</speed>
  <fix>3d</fix>
</trkpt>
<trkpt lat="33.8098905" lon="-118.3939457">
  <ele>-31.32</ele>
  <time>2026-09-01T01:13:32Z</time>
  <course>271.98</course>
  <speed>0.04</speed>
  <fix>3d</fix>
</trkpt>
<trkpt lat="33.8098906" lon="-118.3939456">
  <ele>-32.077</ele>
  <time>2026-09-01T01:13:32Z</time>
  <course>29.14</course>
  <speed>0.022360679774997897</speed>
  <fix>3d</fix>
</trkpt>
<trkpt lat="33.8098905" lon="-118.3939458">
  <ele>-31.32</ele>
  <time>2026-09-01T01:13:32Z</time>
  <course>271.38</course>
  <speed>0.04</speed>
  <fix>3d</fix>
</trkpt>
<trkpt lat="33.8098906" lon="-118.3939457">
  <ele>-32.074</ele>
  <time>2026-09-01T01:13:32Z</time>
  <course>31.6</course>
  <speed>0.022360679774997897</speed>
  <fix>3d</fix>
</trkpt>
<trkpt lat="33.8098905" lon="-118.3939458">
  <ele>-31.32</ele>
  <time>2026-09-01T01:13:32Z</time>
  <course>271.38</course>
  <speed>0.04</speed>
  <fix>3d</fix>
</trkpt>
<trkpt lat="33.8098906" lon="-118.3939457">
  <ele>-32.072</ele>
  <time>2026-09-01T01:13:32Z</time>
  <course>34.05</course>
  <speed>0.022360679774997897</speed>
  <fix>3d</fix>
</trkpt>
<trkpt lat="33.8098905" lon="-118.3939459">
  <ele>-31.31</ele>
  <time>2026-09-01T01:13:32Z</time>
  <course>270.79</course>
  <speed>0.03</speed>
  <fix>3d</fix>
</trkpt>
<trkpt lat="33.8098906" lon="-118.3939457">
  <ele>-32.07</ele>
  <time>2026-09-01T01:13:32Z</time>
  <course>36.5</course>
  <speed>0.02</speed>
  <fix>3d</fix>
</trkpt>
<trkpt lat="33.8098905" lon="-118.3939459">
  <ele>-31.31</ele>
  <time>2026-09-01T01:13:32Z</time>
  <course>270.79</course>
  <speed>0.03</speed>
  <fix>3d</fix>
</trkpt>
<trkpt lat="33.8098906" lon="-118.3939458">
  <ele>-32.066</ele>
  <time>2026-09-01T01:13:32Z</time>
  <course>38.96</course>
  <speed>0.01</speed>
  <fix>3d</fix>
</trkpt>
<trkpt lat="33.8098905" lon="-118.393946">
  <ele>-31.31</ele>
  <time>2026-09-01T01:13:32Z</time>
  <course>270.28</course>
  <speed>0.03</speed>
  <fix>3d</fix>
</trkpt>
<trkpt lat="33.8098906" lon="-118.3939458">
  <ele>-32.061</ele>
  <time>2026-09-01T01:13:32Z</time>
  <course>41.41</course>
  <speed>0.01</speed>
  <fix>3d</fix>
</trkpt>
<trkpt lat="33.8098905" lon="-118.393946">
  <ele>-31.31</ele>
  <time>2026-09-01T01:13:32Z</time>
  <course>270.28</course>
  <speed>0.03</speed>
  <fix>3d</fix>
</trkpt>
<trkpt lat="33.8098906" lon="-118.3939459">
  <ele>-32.057</ele>
  <time>2026-09-01T01:13:32Z</time>
  <course>43.86</course>
  <speed>0.01</speed>
  <fix>3d</fix>
</trkpt>
<trkpt lat="33.8098905" lon="-118.393946">
  <ele>-31.3</ele>
  <time>2026-09-01T01:13:32Z</time>
  <course>269.89</course>
  <speed>0.03</speed>
  <fix>3d</fix>
</trkpt>
<trkpt lat="33.8098906" lon="-118.3939459">
  <ele>-32.052</ele>
  <time>2026-09-01T01:13:32Z</time>
  <course>46.31</course>
  <speed>0.01</speed>
  <fix>3d</fix>
</trkpt>
<trkpt lat="33.8098905" lon="-118.393946">
  <ele>-31.3</ele>
  <time>2026-09-01T01:13:32Z</time>
  <course>269.89</course>
  <speed>0.03</speed>
  <fix>3d</fix>
</trkpt>
<trkpt lat="33.8098906" lon="-118.3939459">
  <ele>-32.046</ele>
  <time>2026-09-01T01:13:32Z</time>
  <course>48.77</course>
  <speed>0.01</speed>
  <fix>3d</fix>
</trkpt>
<trkpt lat="33.8098905" lon="-118.3939461">
  <ele>-31.29</ele>
  <time>2026-09-01T01:13:32Z</time>
  <course>269.64</course>
  <speed>0.03</speed>
  <fix>3d</fix>
</trkpt>
<trkpt lat="33.8098906" lon="-118.393946">
  <ele>-32.041</ele>
  <time>2026-09-01T01:13:32Z</time>
  <course>51.24</course>
  <speed>0.01</speed>
  <fix>3d</fix>
</trkpt>
<trkpt lat="33.8098905" lon="-118.3939461">
  <ele>-31.29</ele>
  <time>2026-09-01T01:13:32Z</time>
  <course>269.64</course>
  <speed>0.03</speed>
  <fix>3d</fix>
</trkpt>
<trkpt lat="33.8098906" lon="-118.393946">
  <ele>-32.035</ele>
  <time>2026-09-01T01:13:32Z</time>
  <course>53.69</course>
  <speed>0.01</speed>
  <fix>3d</fix>
</trkpt>
<trkpt lat="33.8098905" lon="-118.3939462">
  <ele>-31.28</ele>
  <time>2026-09-01T01:13:32Z</time>
  <course>269.5</course>
  <speed>0.03</speed>
  <fix>3d</fix>
</trkpt>
<trkpt lat="33.8098906" lon="-118.3939461">
  <ele>-32.029</ele>
  <time>2026-09-01T01:13:32Z</time>
  <course>56.15</course>
  <speed>0.01</speed>
  <fix>3d</fix>
</trkpt>
<trkpt lat="33.8098905" lon="-118.3939462">
  <ele>-31.28</ele>
  <time>2026-09-01T01:13:32Z</time>
  <course>269.5</course>
  <speed>0.03</speed>
  <fix>3d</fix>
</trkpt>
<trkpt lat="33.8098906" lon="-118.3939461">
  <ele>-32.024</ele>
  <time>2026-09-01T01:13:32Z</time>
  <course>58.6</course>
  <speed>0.01</speed>
  <fix>3d</fix>
</trkpt>
<trkpt lat="33.8098905" lon="-118.3939463">
  <ele>-31.27</ele>
  <time>2026-09-01T01:13:32Z</time>
  <course>269.46</course>
  <speed>0.03</speed>
  <fix>3d</fix>
</trkpt>
<trkpt lat="33.8098906" lon="-118.3939461">
  <ele>-32.021</ele>
  <time>2026-09-01T01:13:32Z</time>
  <course>61.05</course>
  <speed>0.01</speed>
  <fix>3d</fix>
</trkpt>
<trkpt lat="33.8098905" lon="-118.3939463">
  <ele>-31.27</ele>
  <time>2026-09-01T01:13:32Z</time>
  <course>269.46</course>
  <speed>0.03</speed>
  <fix>3d</fix>
</trkpt>
<trkpt lat="33.8098906" lon="-118.3939462">
  <ele>-32.022</ele>
  <time>2026-09-01T01:13:32Z</time>
  <course>63.5</course>
  <speed>0.01</speed>
  <fix>3d</fix>
</trkpt>
<trkpt lat="33.8098905" lon="-118.3939463">
  <ele>-31.26</ele>
  <time>2026-09-01T01:13:32Z</time>
  <course>269.49</course>
  <speed>0.03</speed>
  <fix>3d</fix>
</trkpt>
<trkpt lat="33.8098906" lon="-118.3939462">
  <ele>-32.025</ele>
  <time>2026-09-01T01:13:32Z</time>
  <course>65.96</course>
  <speed>0.01</speed>
  <fix>3d</fix>
</trkpt>
<trkpt lat="33.8098905" lon="-118.3939463">
  <ele>-31.26</ele>
  <time>2026-09-01T01:13:32Z</time>
  <course>269.49</course>
  <speed>0.03</speed>
  <fix>3d</fix>
</trkpt>
<trkpt lat="33.8098906" lon="-118.3939462">
  <ele>-32.028</ele>
  <time>2026-09-01T01:13:32Z</time>
  <course>68.41</course>
  <speed>0.01</speed>
  <fix>3d</fix>
</trkpt>
<trkpt lat="33.8098905" lon="-118.3939464">
  <ele>-31.26</ele>
  <time>2026-09-01T01:13:32Z</time>
  <course>269.55</course>
  <speed>0.03</speed>
  <fix>3d</fix>
</trkpt>
<trkpt lat="33.8098906" lon="-118.3939463">
  <ele>-32.032</ele>
  <time>2026-09-01T01:13:32Z</time>
  <course>70.86</course>
  <speed>0.01</speed>
  <fix>3d</fix>
</trkpt>
<trkpt lat="33.8098905" lon="-118.3939464">
  <ele>-31.26</ele>
  <time>2026-09-01T01:13:32Z</time>
  <course>269.55</course>
  <speed>0.03</speed>
  <fix>3d</fix>
</trkpt>
<trkpt lat="33.8098906" lon="-118.3939463">
  <ele>-32.036</ele>
  <time>2026-09-01T01:13:32Z</time>
  <course>73.32</course>
  <speed>0.01</speed>
  <fix>3d</fix>
</trkpt>
<trkpt lat="33.8098905" lon="-118.3939465">
  <ele>-31.26</ele>
  <time>2026-09-01T01:13:32Z</time>
  <course>269.68</course>
  <speed>0.03</speed>
  <fix>3d</fix>
</trkpt>
<trkpt lat="33.8098906" lon="-118.3939463">
  <ele>-32.042</ele>
  <time>2026-09-01T01:13:32Z</time>
  <course>75.76</course>
  <speed>0.01</speed>
  <fix>3d</fix>
</trkpt>
<trkpt lat="33.8098905" lon="-118.3939465">
  <ele>-31.26</ele>
  <time>2026-09-01T01:13:32Z</time>
  <course>269.68</course>
  <speed>0.03</speed>
  <fix>3d</fix>
</trkpt>
<trkpt lat="33.8098906" lon="-118.3939464">
  <ele>-32.051</ele>
  <time>2026-09-01T01:13:32Z</time>
  <course>78.2</course>
  <speed>0.01</speed>
  <fix>3d</fix>
</trkpt>
<trkpt lat="33.8098905" lon="-118.3939466">
  <ele>-31.27</ele>
  <time>2026-09-01T01:13:32Z</time>
  <course>269.81</course>
  <speed>0.03</speed>
  <fix>3d</fix>
</trkpt>
<trkpt lat="33.8098906" lon="-118.3939464">
  <ele>-32.061</ele>
  <time>2026-09-01T01:13:32Z</time>
  <course>80.64</course>
  <speed>0.01</speed>
  <fix>3d</fix>
</trkpt>
<trkpt lat="33.8098905" lon="-118.3939466">
  <ele>-31.27</ele>
  <time>2026-09-01T01:13:32Z</time>
  <course>269.81</course>
  <speed>0.03</speed>
  <fix>3d</fix>
</trkpt>
<trkpt lat="33.8098906" lon="-118.3939465">
  <ele>-32.072</ele>
  <time>2026-09-01T01:13:32Z</time>
  <course>83.07</course>
  <speed>0.01</speed>
  <fix>3d</fix>
</trkpt>
<trkpt lat="33.8098905" lon="-118.3939466">
  <ele>-31.29</ele>
  <time>2026-09-01T01:13:32Z</time>
  <course>269.92</course>
  <speed>0.02</speed>
  <fix>3d</fix>
</trkpt>
<trkpt lat="33.8098906" lon="-118.3939465">
  <ele>-32.083</ele>
  <time>2026-09-01T01:13:32Z</time>
  <course>85.5</course>
  <speed>0.01</speed>
  <fix>3d</fix>
</trkpt>
<trkpt lat="33.8098905" lon="-118.3939466">
  <ele>-31.29</ele>
  <time>2026-09-01T01:13:32Z</time>
  <course>269.92</course>
  <speed>0.02</speed>
  <fix>3d</fix>
</trkpt>
<trkpt lat="33.8098906" lon="-118.3939465">
  <ele>-32.092</ele>
  <time>2026-09-01T01:13:32Z</time>
  <course>87.93</course>
  <speed>0.01</speed>
  <fix>3d</fix>
</trkpt>
<trkpt lat="33.8098905" lon="-118.3939467">
  <ele>-31.31</ele>
  <time>2026-09-01T01:13:32Z</time>
  <course>270.06</course>
  <speed>0.02</speed>
  <fix>3d</fix>
</trkpt>
<trkpt lat="33.8098905" lon="-118.3939466">
  <ele>-32.1</ele>
  <time>2026-09-01T01:13:32Z</time>
  <course>90.36</course>
  <speed>0.01</speed>
  <fix>3d</fix>
</trkpt>
<trkpt lat="33.8098905" lon="-118.3939467">
  <ele>-31.31</ele>
  <time>2026-09-01T01:13:32Z</time>
  <course>270.06</course>
  <speed>0.02</speed>
  <fix>3d</fix>
</trkpt>
<trkpt lat="33.8098905" lon="-118.3939466">
  <ele>-32.106</ele>
  <time>2026-09-01T01:13:32Z</time>
  <course>92.79</course>
  <speed>0.01</speed>
  <fix>3d</fix>
</trkpt>
<trkpt lat="33.8098905" lon="-118.3939467">
  <ele>-31.32</ele>
  <time>2026-09-01T01:13:32Z</time>
  <course>270.15</course>
  <speed>0.02</speed>
  <fix>3d</fix>
</trkpt>
<trkpt lat="33.8098905" lon="-118.3939466">
  <ele>-32.11</ele>
  <time>2026-09-01T01:13:32Z</time>
  <course>95.22</course>
  <speed>0.01</speed>
  <fix>3d</fix>
</trkpt>
<trkpt lat="33.8098905" lon="-118.3939467">
  <ele>-31.32</ele>
  <time>2026-09-01T01:13:32Z</time>
  <course>270.15</course>
  <speed>0.02</speed>
  <fix>3d</fix>
</trkpt>
<trkpt lat="33.8098905" lon="-118.3939467">
  <ele>-32.111</ele>
  <time>2026-09-01T01:13:32Z</time>
  <course>97.64</course>
  <speed>0.01</speed>
  <fix>3d</fix>
</trkpt>
<trkpt lat="33.8098905" lon="-118.3939468">
  <ele>-31.33</ele>
  <time>2026-09-01T01:13:32Z</time>
  <course>270.17</course>
  <speed>0.02</speed>
  <fix>3d</fix>
</trkpt>
<trkpt lat="33.8098905" lon="-118.3939467">
  <ele>-32.111</ele>
  <time>2026-09-01T01:13:32Z</time>
  <course>100.07</course>
  <speed>0.01</speed>
  <fix>3d</fix>
</trkpt>
<trkpt lat="33.8098905" lon="-118.3939468">
  <ele>-31.33</ele>
  <time>2026-09-01T01:13:32Z</time>
  <course>270.17</course>
  <speed>0.02</speed>
  <fix>3d</fix>
</trkpt>
<trkpt lat="33.8098905" lon="-118.3939467">
  <ele>-32.107</ele>
  <time>2026-09-01T01:13:32Z</time>
  <course>102.52</course>
  <speed>0.01</speed>
  <fix>3d</fix>
</trkpt>
<trkpt lat="33.8098905" lon="-118.3939469">
  <ele>-31.34</ele>
  <time>2026-09-01T01:13:32Z</time>
  <course>270.14</course>
  <speed>0.02</speed>
  <fix>3d</fix>
</trkpt>
<trkpt lat="33.8098905" lon="-118.3939468">
  <ele>-32.102</ele>
  <time>2026-09-01T01:13:32Z</time>
  <course>104.95</course>
  <speed>0.01414213562373095</speed>
  <fix>3d</fix>
</trkpt>
<trkpt lat="33.8098905" lon="-118.3939469">
  <ele>-31.34</ele>
  <time>2026-09-01T01:13:32Z</time>
  <course>270.14</course>
  <speed>0.02</speed>
  <fix>3d</fix>
</trkpt>
<trkpt lat="33.8098905" lon="-118.3939468">
  <ele>-32.097</ele>
  <time>2026-09-01T01:13:32Z</time>
  <course>107.37</course>
  <speed>0.01414213562373095</speed>
  <fix>3d</fix>
</trkpt>
<trkpt lat="33.8098905" lon="-118.3939469">
  <ele>-31.33</ele>
  <time>2026-09-01T01:13:32Z</time>
  <course>270.03</course>
  <speed>0.02</speed>
  <fix>3d</fix>
</trkpt>
<trkpt lat="33.8098905" lon="-118.3939468">
  <ele>-32.093</ele>
  <time>2026-09-01T01:13:32Z</time>
  <course>109.8</course>
  <speed>0.022360679774997897</speed>
  <fix>3d</fix>
</trkpt>
<trkpt lat="33.8098905" lon="-118.3939469">
  <ele>-31.33</ele>
  <time>2026-09-01T01:13:32Z</time>
  <course>270.03</course>
  <speed>0.02</speed>
  <fix>3d</fix>
</trkpt>
<trkpt lat="33.8098905" lon="-118.3939469">
  <ele>-32.092</ele>
  <time>2026-09-01T01:13:32Z</time>
  <course>112.23</course>
  <speed>0.022360679774997897</speed>
  <fix>3d</fix>
</trkpt>
<trkpt lat="33.8098905" lon="-118.393947">
  <ele>-31.32</ele>
  <time>2026-09-01T01:13:32Z</time>
  <course>269.77</course>
  <speed>0.02</speed>
  <fix>3d</fix>
</trkpt>
<trkpt lat="33.8098905" lon="-118.3939469">
  <ele>-32.092</ele>
  <time>2026-09-01T01:13:32Z</time>
  <course>114.65</course>
  <speed>0.022360679774997897</speed>
  <fix>3d</fix>
</trkpt>
<trkpt lat="33.8098905" lon="-118.393947">
  <ele>-31.32</ele>
  <time>2026-09-01T01:13:32Z</time>
  <course>269.77</course>
  <speed>0.02</speed>
  <fix>3d</fix>
</trkpt>
<trkpt lat="33.8098905" lon="-118.3939469">
  <ele>-32.092</ele>
  <time>2026-09-01T01:13:32Z</time>
  <course>117.08</course>
  <speed>0.022360679774997897</speed>
  <fix>3d</fix>
</trkpt>
<trkpt lat="33.8098905" lon="-118.393947">
  <ele>-31.32</ele>
  <time>2026-09-01T01:13:32Z</time>
  <course>269.48</course>
  <speed>0.02</speed>
  <fix>3d</fix>
</trkpt>
<trkpt lat="33.8098905" lon="-118.393947">
  <ele>-32.09</ele>
  <time>2026-09-01T01:13:32Z</time>
  <course>119.5</course>
  <speed>0.022360679774997897</speed>
  <fix>3d</fix>
</trkpt>
<trkpt lat="33.8098905" lon="-118.393947">
  <ele>-31.32</ele>
  <time>2026-09-01T01:13:32Z</time>
  <course>269.48</course>
  <speed>0.02</speed>
  <fix>3d</fix>
</trkpt>
<trkpt lat="33.8098905" lon="-118.393947">
  <ele>-32.088</ele>
  <time>2026-09-01T01:13:32Z</time>
  <course>121.93</course>
  <speed>0.022360679774997897</speed>
  <fix>3d</fix>
</trkpt>
<trkpt lat="33.8098905" lon="-118.3939471">
  <ele>-31.32</ele>
  <time>2026-09-01T01:13:32Z</time>
  <course>269.28</course>
  <speed>0.02</speed>
  <fix>3d</fix>
</trkpt>
<trkpt lat="33.8098905" lon="-118.393947">
  <ele>-32.084</ele>
  <time>2026-09-01T01:13:32Z</time>
  <course>124.36</course>
  <speed>0.022360679774997897</speed>
  <fix>3d</fix>
</trkpt>
<trkpt lat="33.8098905" lon="-118.3939471">
  <ele>-31.32</ele>
  <time>2026-09-01T01:13:32Z</time>
  <course>269.28</course>
  <speed>0.02</speed>
  <fix>3d</fix>
</trkpt>
<trkpt lat="33.8098905" lon="-118.3939471">
  <ele>-32.08</ele>
  <time>2026-09-01T01:13:32Z</time>
  <course>126.78</course>
  <speed>0.022360679774997897</speed>
  <fix>3d</fix>
</trkpt>
<trkpt lat="33.8098905" lon="-118.3939471">
  <ele>-31.31</ele>
  <time>2026-09-01T01:13:32Z</time>
  <course>269.15</course>
  <speed>0.02</speed>
  <fix>3d</fix>
</trkpt>
<trkpt lat="33.8098905" lon="-118.3939471">
  <ele>-32.076</ele>
  <time>2026-09-01T01:13:33Z</time>
  <course>129.21</course>
  <speed>0.022360679774997897</speed>
  <fix>3d</fix>
</trkpt>
<trkpt lat="33.8098905" lon="-118.3939471">
  <ele>-31.31</ele>
  <time>2026-09-01T01:13:33Z</time>
  <course>269.15</course>
  <speed>0.02</speed>
  <fix>3d</fix>
</trkpt>
<trkpt lat="33.8098905" lon="-118.3939471">
  <ele>-32.07</ele>
  <time>2026-09-01T01:13:33Z</time>
  <course>131.63</course>
  <speed>0.022360679774997897</speed>
  <fix>3d</fix>
</trkpt>
<trkpt lat="33.8098905" lon="-118.3939472">
  <ele>-31.3</ele>
  <time>2026-09-01T01:13:33Z</time>
  <course>269.1</course>
  <speed>0.02</speed>
  <fix>3d</fix>
</trkpt>
<trkpt lat="33.8098905" lon="-118.3939471">
  <ele>-32.065</ele>
  <time>2026-09-01T01:13:33Z</time>
  <course>134.05</course>
  <speed>0.022360679774997897</speed>
  <fix>3d</fix>
</trkpt>
<trkpt lat="33.8098905" lon="-118.3939472">
  <ele>-31.3</ele>
  <time>2026-09-01T01:13:33Z</time>
  <course>269.1</course>
  <speed>0.02</speed>
  <fix>3d</fix>
</trkpt>
<trkpt lat="33.8098905" lon="-118.3939472">
  <ele>-32.059</ele>
  <time>2026-09-01T01:13:33Z</time>
  <course>136.47</course>
  <speed>0.022360679774997897</speed>
  <fix>3d</fix>
</trkpt>
<trkpt lat="33.8098905" lon="-118.3939472">
  <ele>-31.29</ele>
  <time>2026-09-01T01:13:33Z</time>
  <course>269.15</course>
  <speed>0.02</speed>
  <fix>3d</fix>
</trkpt>
<trkpt lat="33.8098905" lon="-118.3939472">
  <ele>-32.055</ele>
  <time>2026-09-01T01:13:33Z</time>
  <course>138.89</course>
  <speed>0.022360679774997897</speed>
  <fix>3d</fix>
</trkpt>
<trkpt lat="33.8098905" lon="-118.3939472">
  <ele>-31.29</ele>
  <time>2026-09-01T01:13:33Z</time>
  <course>269.15</course>
  <speed>0.02</speed>
  <fix>3d</fix>
</trkpt>
<trkpt lat="33.8098905" lon="-118.3939472">
  <ele>-32.049</ele>
  <time>2026-09-01T01:13:33Z</time>
  <course>141.32</course>
  <speed>0.022360679774997897</speed>
  <fix>3d</fix>
</trkpt>
<trkpt lat="33.8098905" lon="-118.3939473">
  <ele>-31.28</ele>
  <time>2026-09-01T01:13:33Z</time>
  <course>269.27</course>
  <speed>0.02</speed>
  <fix>3d</fix>
</trkpt>
<trkpt lat="33.8098905" lon="-118.3939473">
  <ele>-32.043</ele>
  <time>2026-09-01T01:13:33Z</time>
  <course>143.74</course>
  <speed>0.022360679774997897</speed>
  <fix>3d</fix>
</trkpt>
<trkpt lat="33.8098905" lon="-118.3939473">
  <ele>-31.28</ele>
  <time>2026-09-01T01:13:33Z</time>
  <course>269.27</course>
  <speed>0.02</speed>
  <fix>3d</fix>
</trkpt>
<trkpt lat="33.8098904" lon="-118.3939473">
  <ele>-32.039</ele>
  <time>2026-09-01T01:13:33Z</time>
  <course>146.16</course>
  <speed>0.022360679774997897</speed>
  <fix>3d</fix>
</trkpt>
<trkpt lat="33.8098905" lon="-118.3939473">
  <ele>-31.27</ele>
  <time>2026-09-01T01:13:33Z</time>
  <course>269.42</course>
  <speed>0.02</speed>
  <fix>3d</fix>
</trkpt>
<trkpt lat="33.8098904" lon="-118.3939473">
  <ele>-32.038</ele>
  <time>2026-09-01T01:13:33Z</time>
  <course>148.58</course>
  <speed>0.022360679774997897</speed>
  <fix>3d</fix>
</trkpt>
<trkpt lat="33.8098905" lon="-118.3939473">
  <ele>-31.27</ele>
  <time>2026-09-01T01:13:33Z</time>
  <course>269.42</course>
  <speed>0.02</speed>
  <fix>3d</fix>
</trkpt>
<trkpt lat="33.8098904" lon="-118.3939474">
  <ele>-32.04</ele>
  <time>2026-09-01T01:13:33Z</time>
  <course>151.0</course>
  <speed>0.022360679774997897</speed>
  <fix>3d</fix>
</trkpt>
<trkpt lat="33.8098905" lon="-118.3939473">
  <ele>-31.27</ele>
  <time>2026-09-01T01:13:33Z</time>
  <course>269.5</course>
  <speed>0.02</speed>
  <fix>3d</fix>
</trkpt>
<trkpt lat="33.8098904" lon="-118.3939474">
  <ele>-32.043</ele>
  <time>2026-09-01T01:13:33Z</time>
  <course>153.44</course>
  <speed>0.022360679774997897</speed>
  <fix>3d</fix>
</trkpt>
<trkpt lat="33.8098905" lon="-118.3939473">
  <ele>-31.27</ele>
  <time>2026-09-01T01:13:33Z</time>
  <course>269.5</course>
  <speed>0.02</speed>
  <fix>3d</fix>
</trkpt>
<trkpt lat="33.8098904" lon="-118.3939474">
  <ele>-32.046</ele>
  <time>2026-09-01T01:13:33Z</time>
  <course>155.86</course>
  <speed>0.022360679774997897</speed>
  <fix>3d</fix>
</trkpt>
<trkpt lat="33.8098905" lon="-118.3939474">
  <ele>-31.27</ele>
  <time>2026-09-01T01:13:33Z</time>
  <course>269.62</course>
  <speed>0.02</speed>
  <fix>3d</fix>
</trkpt>
<trkpt lat="33.8098904" lon="-118.3939474">
  <ele>-32.05</ele>
  <time>2026-09-01T01:13:33Z</time>
  <course>158.28</course>
  <speed>0.022360679774997897</speed>
  <fix>3d</fix>
</trkpt>
<trkpt lat="33.8098905" lon="-118.3939474">
  <ele>-31.27</ele>
  <time>2026-09-01T01:13:33Z</time>
  <course>269.62</course>
  <speed>0.02</speed>
  <fix>3d</fix>
</trkpt>
<trkpt lat="33.8098904" lon="-118.3939475">
  <ele>-32.055</ele>
  <time>2026-09-01T01:13:33Z</time>
  <course>160.7</course>
  <speed>0.022360679774997897</speed>
  <fix>3d</fix>
</trkpt>
<trkpt lat="33.8098905" lon="-118.3939475">
  <ele>-31.28</ele>
  <time>2026-09-01T01:13:33Z</time>
  <course>269.86</course>
  <speed>0.02</speed>
  <fix>3d</fix>
</trkpt>
<trkpt lat="33.8098904" lon="-118.3939475">
  <ele>-32.06</ele>
  <time>2026-09-01T01:13:33Z</time>
  <course>163.12</course>
  <speed>0.022360679774997897</speed>
  <fix>3d</fix>
</trkpt>
<trkpt lat="33.8098905" lon="-118.3939475">
  <ele>-31.28</ele>
  <time>2026-09-01T01:13:33Z</time>
  <course>269.86</course>
  <speed>0.02</speed>
  <fix>3d</fix>
</trkpt>
<trkpt lat="33.8098904" lon="-118.3939475">
  <ele>-32.066</ele>
  <time>2026-09-01T01:13:33Z</time>
  <course>165.54</course>
  <speed>0.022360679774997897</speed>
  <fix>3d</fix>
</trkpt>
<trkpt lat="33.8098905" lon="-118.3939475">
  <ele>-31.29</ele>
  <time>2026-09-01T01:13:33Z</time>
  <course>270.14</course>
  <speed>0.02</speed>
  <fix>3d</fix>
</trkpt>
<trkpt lat="33.8098904" lon="-118.3939475">
  <ele>-32.073</ele>
  <time>2026-09-01T01:13:33Z</time>
  <course>167.96</course>
  <speed>0.022360679774997897</speed>
  <fix>3d</fix>
</trkpt>
<trkpt lat="33.8098905" lon="-118.3939475">
  <ele>-31.29</ele>
  <time>2026-09-01T01:13:33Z</time>
  <course>270.14</course>
  <speed>0.02</speed>
  <fix>3d</fix>
</trkpt>
<trkpt lat="33.8098904" lon="-118.3939476">
  <ele>-32.08</ele>
  <time>2026-09-01T01:13:33Z</time>
  <course>170.38</course>
  <speed>0.022360679774997897</speed>
  <fix>3d</fix>
</trkpt>
<trkpt lat="33.8098905" lon="-118.3939476">
  <ele>-31.3</ele>
  <time>2026-09-01T01:13:33Z</time>
  <course>270.42</course>
  <speed>0.02</speed>
  <fix>3d</fix>
</trkpt>
<trkpt lat="33.8098904" lon="-118.3939476">
  <ele>-32.09</ele>
  <time>2026-09-01T01:13:33Z</time>
  <course>172.8</course>
  <speed>0.0316227766016838</speed>
  <fix>3d</fix>
</trkpt>
<trkpt lat="33.8098905" lon="-118.3939476">
  <ele>-31.3</ele>
  <time>2026-09-01T01:13:33Z</time>
  <course>270.42</course>
  <speed>0.02</speed>
  <fix>3d</fix>
</trkpt>
<trkpt lat="33.8098904" lon="-118.3939476">
  <ele>-32.099</ele>
  <time>2026-09-01T01:13:33Z</time>
  <course>175.22</course>
  <speed>0.0316227766016838</speed>
  <fix>3d</fix>
</trkpt>
<trkpt lat="33.8098905" lon="-118.3939476">
  <ele>-31.31</ele>
  <time>2026-09-01T01:13:33Z</time>
  <course>270.65</course>
  <speed>0.02</speed>
  <fix>3d</fix>
</trkpt>
<trkpt lat="33.8098904" lon="-118.3939477">
  <ele>-32.105</ele>
  <time>2026-09-01T01:13:33Z</time>
  <course>177.59</course>
  <speed>0.0316227766016838</speed>
  <fix>3d</fix>
</trkpt>
<trkpt lat="33.8098905" lon="-118.3939476">
  <ele>-31.31</ele>
  <time>2026-09-01T01:13:33Z</time>
  <course>270.65</course>
  <speed>0.02</speed>
  <fix>3d</fix>
</trkpt>
<trkpt lat="33.8098904" lon="-118.3939477">
  <ele>-32.109</ele>
  <time>2026-09-01T01:13:33Z</time>
  <course>179.39</course>
  <speed>0.0316227766016838</speed>
  <fix>3d</fix>
</trkpt>
<trkpt lat="33.8098905" lon="-118.3939477">
  <ele>-31.33</ele>
  <time>2026-09-01T01:13:33Z</time>
  <course>270.83</course>
  <speed>0.01</speed>
  <fix>3d</fix>
</trkpt>
<trkpt lat="33.8098904" lon="-118.3939477">
  <ele>-32.108</ele>
  <time>2026-09-01T01:13:33Z</time>
  <course>181.23</course>
  <speed>0.1824828759089466</speed>
  <fix>3d</fix>
</trkpt>
<trkpt lat="33.8098905" lon="-118.3939477">
  <ele>-31.33</ele>
  <time>2026-09-01T01:13:33Z</time>
  <course>270.83</course>
  <speed>0.01</speed>
  <fix>3d</fix>
</trkpt>
<trkpt lat="33.8098901" lon="-118.3939477">
  <ele>-32.106</ele>
  <time>2026-09-01T01:13:33Z</time>
  <course>183.19</course>
  <speed>0.4119465984809196</speed>
  <fix>3d</fix>
</trkpt>
<trkpt lat="33.8098904" lon="-118.3939477">
  <ele>-31.34</ele>
  <time>2026-09-01T01:13:33Z</time>
  <course>188.82</course>
  <speed>0.12</speed>
  <fix>3d</fix>
</trkpt>
<trkpt lat="33.8098897" lon="-118.3939478">
  <ele>-32.102</ele>
  <time>2026-09-01T01:13:33Z</time>
  <course>184.78</course>
  <speed>0.5821511831131153</speed>
  <fix>3d</fix>
</trkpt>
<trkpt lat="33.8098904" lon="-118.3939477">
  <ele>-31.34</ele>
  <time>2026-09-01T01:13:33Z</time>
  <course>188.82</course>
  <speed>0.12</speed>
  <fix>3d</fix>
</trkpt>
<trkpt lat="33.8098891" lon="-118.3939478">
  <ele>-32.098</ele>
  <time>2026-09-01T01:13:33Z</time>
  <course>185.88</course>
  <speed>0.6726812023536856</speed>
  <fix>3d</fix>
</trkpt>
<trkpt lat="33.8098899" lon="-118.3939477">
  <ele>-31.33</ele>
  <time>2026-09-01T01:13:33Z</time>
  <course>183.84</course>
  <speed>0.43</speed>
  <fix>3d</fix>
</trkpt>
<trkpt lat="33.8098885" lon="-118.3939479">
  <ele>-32.093</ele>
  <time>2026-09-01T01:13:33Z</time>
  <course>186.56</course>
  <speed>0.723394774656273</speed>
  <fix>3d</fix>
</trkpt>
<trkpt lat="33.8098899" lon="-118.3939477">
  <ele>-31.33</ele>
  <time>2026-09-01T01:13:33Z</time>
  <course>183.84</course>
  <speed>0.43</speed>
  <fix>3d</fix>
</trkpt>
<trkpt lat="33.8098879" lon="-118.393948">
  <ele>-32.086</ele>
  <time>2026-09-01T01:13:33Z</time>
  <course>186.95</course>
  <speed>0.7532595834106592</speed>
  <fix>3d</fix>
</trkpt>
<trkpt lat="33.809889" lon="-118.3939478">
  <ele>-31.32</ele>
  <time>2026-09-01T01:13:33Z</time>
  <course>183.74</course>
  <speed>0.66</speed>
  <fix>3d</fix>
</trkpt>
<trkpt lat="33.8098872" lon="-118.393948">
  <ele>-32.083</ele>
  <time>2026-09-01T01:13:33Z</time>
  <course>187.15</course>
  <speed>0.7632168761236874</speed>
  <fix>3d</fix>
</trkpt>
<trkpt lat="33.809889" lon="-118.3939478">
  <ele>-31.32</ele>
  <time>2026-09-01T01:13:33Z</time>
  <course>183.74</course>
  <speed>0.66</speed>
  <fix>3d</fix>
</trkpt>
<trkpt lat="33.8098866" lon="-118.3939481">
  <ele>-32.086</ele>
  <time>2026-09-01T01:13:33Z</time>
  <course>187.23</course>
  <speed>0.7632168761236874</speed>
  <fix>3d</fix>
</trkpt>
<trkpt lat="33.8098877" lon="-118.3939479">
  <ele>-31.31</ele>
  <time>2026-09-01T01:13:33Z</time>
  <course>183.99</course>
  <speed>0.74</speed>
  <fix>3d</fix>
</trkpt>
<trkpt lat="33.8098859" lon="-118.3939482">
  <ele>-32.099</ele>
  <time>2026-09-01T01:13:33Z</time>
  <course>187.21</course>
  <speed>0.7731752712031082</speed>
  <fix>3d</fix>
</trkpt>
<trkpt lat="33.8098877" lon="-118.3939479">
  <ele>-31.31</ele>
  <time>2026-09-01T01:13:33Z</time>
  <course>183.99</course>
  <speed>0.74</speed>
  <fix>3d</fix>
</trkpt>
<trkpt lat="33.8098853" lon="-118.3939482">
  <ele>-32.122</ele>
  <time>2026-09-01T01:13:33Z</time>
  <course>187.14</course>
  <speed>0.7731752712031082</speed>
  <fix>3d</fix>
</trkpt>
<trkpt lat="33.8098863" lon="-118.393948">
  <ele>-31.32</ele>
  <time>2026-09-01T01:13:33Z</time>
  <course>184.16</course>
  <speed>0.76</speed>
  <fix>3d</fix>
</trkpt>
<trkpt lat="33.8098846" lon="-118.3939483">
  <ele>-32.155</ele>
  <time>2026-09-01T01:13:33Z</time>
  <course>187.07</course>
  <speed>0.7731752712031082</speed>
  <fix>3d</fix>
</trkpt>
<trkpt lat="33.8098863" lon="-118.393948">
  <ele>-31.32</ele>
  <time>2026-09-01T01:13:33Z</time>
  <course>184.16</course>
  <speed>0.76</speed>
  <fix>3d</fix>
</trkpt>
<trkpt lat="33.8098839" lon="-118.3939484">
  <ele>-32.198</ele>
  <time>2026-09-01T01:13:33Z</time>
  <course>186.99</course>
  <speed>0.764198926981712</speed>
  <fix>3d</fix>
</trkpt>
<trkpt lat="33.8098849" lon="-118.3939481">
  <ele>-31.36</ele>
  <time>2026-09-01T01:13:33Z</time>
  <course>184.3</course>
  <speed>0.77</speed>
  <fix>3d</fix>
</trkpt>
<trkpt lat="33.8098832" lon="-118.3939484">
  <ele>-32.249</ele>
  <time>2026-09-01T01:13:33Z</time>
  <course>186.9</course>
  <speed>0.764198926981712</speed>
  <fix>3d</fix>
</trkpt>
<trkpt lat="33.8098849" lon="-118.3939481">
  <ele>-31.36</ele>
  <time>2026-09-01T01:13:33Z</time>
  <course>184.3</course>
  <speed>0.77</speed>
  <fix>3d</fix>
</trkpt>
<trkpt lat="33.8098826" lon="-118.3939485">
  <ele>-32.308</ele>
  <time>2026-09-01T01:13:33Z</time>
  <course>186.82</course>
  <speed>0.764198926981712</speed>
  <fix>3d</fix>
</trkpt>
<trkpt lat="33.8098836" lon="-118.3939483">
  <ele>-31.44</ele>
  <time>2026-09-01T01:13:33Z</time>
  <course>184.41</course>
  <speed>0.77</speed>
  <fix>3d</fix>
</trkpt>
<trkpt lat="33.8098819" lon="-118.3939486">
  <ele>-32.373</ele>
  <time>2026-09-01T01:13:33Z</time>
  <course>186.73</course>
  <speed>0.764198926981712</speed>
  <fix>3d</fix>
</trkpt>
<trkpt lat="33.8098836" lon="-118.3939483">
  <ele>-31.44</ele>
  <time>2026-09-01T01:13:33Z</time>
  <course>184.41</course>
  <speed>0.77</speed>
  <fix>3d</fix>
</trkpt>
<trkpt lat="33.8098812" lon="-118.3939486">
  <ele>-32.444</ele>
  <time>2026-09-01T01:13:33Z</time>
  <course>186.65</course>
  <speed>0.764198926981712</speed>
  <fix>3d</fix>
</trkpt>
<trkpt lat="33.8098821" lon="-118.3939484">
  <ele>-31.55</ele>
  <time>2026-09-01T01:13:33Z</time>
  <course>184.5</course>
  <speed>0.77</speed>
  <fix>3d</fix>
</trkpt>
<trkpt lat="33.8098805" lon="-118.3939487">
  <ele>-32.521</ele>
  <time>2026-09-01T01:13:33Z</time>
  <course>186.56</course>
  <speed>0.754254598925323</speed>
  <fix>3d</fix>
</trkpt>
<trkpt lat="33.8098821" lon="-118.3939484">
  <ele>-31.55</ele>
  <time>2026-09-01T01:13:33Z</time>
  <course>184.5</course>
  <speed>0.77</speed>
  <fix>3d</fix>
</trkpt>
<trkpt lat="33.8098799" lon="-118.3939487">
  <ele>-32.604</ele>
  <time>2026-09-01T01:13:33Z</time>
  <course>186.48</course>
  <speed>0.7333484846919641</speed>
  <fix>3d</fix>
</trkpt>
<trkpt lat="33.8098808" lon="-118.3939485">
  <ele>-31.68</ele>
  <time>2026-09-01T01:13:33Z</time>
  <course>184.55</course>
  <speed>0.76</speed>
  <fix>3d</fix>
</trkpt>
<trkpt lat="33.8098792" lon="-118.3939488">
  <ele>-32.691</ele>
  <time>2026-09-01T01:13:33Z</time>
  <course>186.4</course>
  <speed>0.7134423592694787</speed>
  <fix>3d</fix>
</trkpt>
<trkpt lat="33.8098808" lon="-118.3939485">
  <ele>-31.68</ele>
  <time>2026-09-01T01:13:33Z</time>
  <course>184.55</course>
  <speed>0.76</speed>
  <fix>3d</fix>
</trkpt>
<trkpt lat="33.8098786" lon="-118.3939489">
  <ele>-32.782</ele>
  <time>2026-09-01T01:13:33Z</time>
  <course>186.32</course>
  <speed>0.6835934464285041</speed>
  <fix>3d</fix>
</trkpt>
<trkpt lat="33.8098794" lon="-118.3939487">
  <ele>-31.83</ele>
  <time>2026-09-01T01:13:33Z</time>
  <course>184.55</course>
  <speed>0.73</speed>
  <fix>3d</fix>
</trkpt>
<trkpt lat="33.809878" lon="-118.3939489">
  <ele>-32.875</ele>
  <time>2026-09-01T01:13:33Z</time>
  <course>186.24</course>
  <speed>0.6637017402418047</speed>
  <fix>3d</fix>
</trkpt>
<trkpt lat="33.8098794" lon="-118.3939487">
  <ele>-31.83</ele>
  <time>2026-09-01T01:13:33Z</time>
  <course>184.55</course>
  <speed>0.73</speed>
  <fix>3d</fix>
</trkpt>
<trkpt lat="33.8098774" lon="-118.393949">
  <ele>-32.97</ele>
  <time>2026-09-01T01:13:33Z</time>
  <course>186.16</course>
  <speed>0.6537583651472461</speed>
  <fix>3d</fix>
</trkpt>
<trkpt lat="33.8098781" lon="-118.3939488">
  <ele>-32.0</ele>
  <time>2026-09-01T01:13:33Z</time>
  <course>184.52</course>
  <speed>0.69</speed>
  <fix>3d</fix>
</trkpt>
<trkpt lat="33.8098768" lon="-118.393949">
  <ele>-33.068</ele>
  <time>2026-09-01T01:13:33Z</time>
  <course>186.09</course>
  <speed>0.6428063471995279</speed>
  <fix>3d</fix>
</trkpt>
<trkpt lat="33.8098781" lon="-118.3939488">
  <ele>-32.0</ele>
  <time>2026-09-01T01:13:33Z</time>
  <course>184.52</course>
  <speed>0.69</speed>
  <fix>3d</fix>
</trkpt>
<trkpt lat="33.8098763" lon="-118.3939491">
  <ele>-33.168</ele>
  <time>2026-09-01T01:13:33Z</time>
  <course>186.01</course>
  <speed>0.6328506932918696</speed>
  <fix>3d</fix>
</trkpt>
<trkpt lat="33.8098769" lon="-118.3939489">
  <ele>-32.18</ele>
  <time>2026-09-01T01:13:33Z</time>
  <course>184.5</course>
  <speed>0.66</speed>
  <fix>3d</fix>
</trkpt>
<trkpt lat="33.8098757" lon="-118.3939492">
  <ele>-33.268</ele>
  <time>2026-09-01T01:13:33Z</time>
  <course>185.94</course>
  <speed>0.6328506932918696</speed>
  <fix>3d</fix>
</trkpt>
<trkpt lat="33.8098769" lon="-118.3939489">
  <ele>-32.18</ele>
  <time>2026-09-01T01:13:33Z</time>
  <course>184.5</course>
  <speed>0.66</speed>
  <fix>3d</fix>
</trkpt>
<trkpt lat="33.8098751" lon="-118.3939492">
  <ele>-33.367</ele>
  <time>2026-09-01T01:13:33Z</time>
  <course>185.87</course>
  <speed>0.6328506932918696</speed>
  <fix>3d</fix>
</trkpt>
<trkpt lat="33.8098758" lon="-118.393949">
  <ele>-32.36</ele>
  <time>2026-09-01T01:13:33Z</time>
  <course>184.49</course>
  <speed>0.65</speed>
  <fix>3d</fix>
</trkpt>
<trkpt lat="33.8098745" lon="-118.3939493">
  <ele>-33.466</ele>
  <time>2026-09-01T01:13:33Z</time>
  <course>185.8</course>
  <speed>0.6438167441127949</speed>
  <fix>3d</fix>
</trkpt>
<trkpt lat="33.8098758" lon="-118.393949">
  <ele>-32.36</ele>
  <time>2026-09-01T01:13:33Z</time>
  <course>184.49</course>
  <speed>0.65</speed>
  <fix>3d</fix>
</trkpt>
<trkpt lat="33.8098739" lon="-118.3939493">
  <ele>-33.561</ele>
  <time>2026-09-01T01:13:33Z</time>
  <course>185.73</course>
  <speed>0.6438167441127949</speed>
  <fix>3d</fix>
</trkpt>
<trkpt lat="33.8098746" lon="-118.3939491">
  <ele>-32.55</ele>
  <time>2026-09-01T01:13:33Z</time>
  <course>184.51</course>
  <speed>0.65</speed>
  <fix>3d</fix>
</trkpt>
<trkpt lat="33.8098733" lon="-118.3939494">
  <ele>-33.654</ele>
  <time>2026-09-01T01:13:33Z</time>
  <course>185.67</course>
  <speed>0.6637017402418047</speed>
  <fix>3d</fix>
</trkpt>
<trkpt lat="33.8098746" lon="-118.3939491">
  <ele>-32.55</ele>
  <time>2026-09-01T01:13:33Z</time>
  <course>184.51</course>
  <speed>0.65</speed>
  <fix>3d</fix>
</trkpt>
<trkpt lat="33.8098727" lon="-118.3939494">
  <ele>-33.744</ele>
  <time>2026-09-01T01:13:33Z</time>
  <course>185.6</course>
  <speed>0.6736467917239716</speed>
  <fix>3d</fix>
</trkpt>
<trkpt lat="33.8098734" lon="-118.3939493">
  <ele>-32.73</ele>
  <time>2026-09-01T01:13:33Z</time>
  <course>184.53</course>
  <speed>0.67</speed>
  <fix>3d</fix>
</trkpt>
<trkpt lat="33.8098721" lon="-118.3939495">
  <ele>-33.833</ele>
  <time>2026-09-01T01:13:33Z</time>
  <course>185.54</course>
  <speed>0.6835934464285041</speed>
  <fix>3d</fix>
</trkpt>
<trkpt lat="33.8098734" lon="-118.3939493">
  <ele>-32.73</ele>
  <time>2026-09-01T01:13:33Z</time>
  <course>184.53</course>
  <speed>0.67</speed>
  <fix>3d</fix>
</trkpt>
<trkpt lat="33.8098715" lon="-118.3939496">
  <ele>-33.919</ele>
  <time>2026-09-01T01:13:33Z</time>
  <course>185.47</course>
  <speed>0.6935416353759881</speed>
  <fix>3d</fix>
</trkpt>
<trkpt lat="33.8098722" lon="-118.3939494">
  <ele>-32.9</ele>
  <time>2026-09-01T01:13:33Z</time>
  <course>184.54</course>
  <speed>0.69</speed>
  <fix>3d</fix>
</trkpt>
<trkpt lat="33.8098709" lon="-118.3939496">
  <ele>-34.002</ele>
  <time>2026-09-01T01:13:33Z</time>
  <course>185.41</course>
  <speed>0.7134423592694787</speed>
  <fix>3d</fix>
</trkpt>
<trkpt lat="33.8098722" lon="-118.3939494">
  <ele>-32.9</ele>
  <time>2026-09-01T01:13:33Z</time>
  <course>184.54</course>
  <speed>0.69</speed>
  <fix>3d</fix>
</trkpt>
<trkpt lat="33.8098702" lon="-118.3939497">
  <ele>-34.081</ele>
  <time>2026-09-01T01:13:33Z</time>
  <course>185.35</course>
  <speed>0.7343704787094864</speed>
  <fix>3d</fix>
</trkpt>
<trkpt lat="33.8098709" lon="-118.3939495">
  <ele>-33.07</ele>
  <time>2026-09-01T01:13:33Z</time>
  <course>184.56</course>
  <speed>0.72</speed>
  <fix>3d</fix>
</trkpt>
<trkpt lat="33.8098695" lon="-118.3939498">
  <ele>-34.157</ele>
  <time>2026-09-01T01:13:33Z</time>
  <course>185.29</course>
  <speed>0.7343704787094864</speed>
  <fix>3d</fix>
</trkpt>
<trkpt lat="33.8098709" lon="-118.3939495">
  <ele>-33.07</ele>
  <time>2026-09-01T01:13:33Z</time>
  <course>184.56</course>
  <speed>0.72</speed>
  <fix>3d</fix>
</trkpt>
<trkpt lat="33.8098689" lon="-118.3939498">
  <ele>-34.23</ele>
  <time>2026-09-01T01:13:33Z</time>
  <course>185.24</course>
  <speed>0.7443117626371358</speed>
  <fix>3d</fix>
</trkpt>
<trkpt lat="33.8098696" lon="-118.3939496">
  <ele>-33.22</ele>
  <time>2026-09-01T01:13:33Z</time>
  <course>184.57</course>
  <speed>0.75</speed>
  <fix>3d</fix>
</trkpt>
<trkpt lat="33.8098682" lon="-118.3939499">
  <ele>-34.3</ele>
  <time>2026-09-01T01:13:33Z</time>
  <course>185.18</course>
  <speed>0.7443117626371358</speed>
  <fix>3d</fix>
</trkpt>
<trkpt lat="33.8098696" lon="-118.3939496">
  <ele>-33.22</ele>
  <time>2026-09-01T01:13:33Z</time>
  <course>184.57</course>
  <speed>0.75</speed>
  <fix>3d</fix>
</trkpt>
<trkpt lat="33.8098675" lon="-118.39395">
  <ele>-34.368</ele>
  <time>2026-09-01T01:13:33Z</time>
  <course>185.13</course>
  <speed>0.7443117626371358</speed>
  <fix>3d</fix>
</trkpt>
<trkpt lat="33.8098681" lon="-118.3939498">
  <ele>-33.37</ele>
  <time>2026-09-01T01:13:33Z</time>
  <course>184.57</course>
  <speed>0.76</speed>
  <fix>3d</fix>
</trkpt>
<trkpt lat="33.8098668" lon="-118.3939501">
  <ele>-34.435</ele>
  <time>2026-09-01T01:13:33Z</time>
  <course>185.07</course>
  <speed>0.7443117626371358</speed>
  <fix>3d</fix>
</trkpt>
<trkpt lat="33.8098681" lon="-118.3939498">
  <ele>-33.37</ele>
  <time>2026-09-01T01:13:33Z</time>
  <course>184.57</course>
  <speed>0.76</speed>
  <fix>3d</fix>
</trkpt>
<trkpt lat="33.8098661" lon="-118.3939501">
  <ele>-34.499</ele>
  <time>2026-09-01T01:13:33Z</time>
  <course>185.02</course>
  <speed>0.7443117626371358</speed>
  <fix>3d</fix>
</trkpt>
<trkpt lat="33.8098667" lon="-118.3939499">
  <ele>-33.5</ele>
  <time>2026-09-01T01:13:33Z</time>
  <course>184.56</course>
  <speed>0.77</speed>
  <fix>3d</fix>
</trkpt>
<trkpt lat="33.8098654" lon="-118.3939502">
  <ele>-34.562</ele>
  <time>2026-09-01T01:13:33Z</time>
  <course>184.97</course>
  <speed>0.7443117626371358</speed>
  <fix>3d</fix>
</trkpt>
<trkpt lat="33.8098667" lon="-118.3939499">
  <ele>-33.5</ele>
  <time>2026-09-01T01:13:33Z</time>
  <course>184.56</course>
  <speed>0.77</speed>
  <fix>3d</fix>
</trkpt>
<trkpt lat="33.8098647" lon="-118.3939503">
  <ele>-34.621</ele>
  <time>2026-09-01T01:13:33Z</time>
  <course>184.91</course>
  <speed>0.7443117626371358</speed>
  <fix>3d</fix>
</trkpt>
<trkpt lat="33.8098654" lon="-118.39395">
  <ele>-33.63</ele>
  <time>2026-09-01T01:13:33Z</time>
  <course>184.56</course>
  <speed>0.77</speed>
  <fix>3d</fix>
</trkpt>
<trkpt lat="33.8098641" lon="-118.3939503">
  <ele>-34.679</ele>
  <time>2026-09-01T01:13:33Z</time>
  <course>184.86</course>
  <speed>0.7443117626371358</speed>
  <fix>3d</fix>
</trkpt>
<trkpt lat="33.8098654" lon="-118.39395">
  <ele>-33.63</ele>
  <time>2026-09-01T01:13:33Z</time>
  <course>184.56</course>
  <speed>0.77</speed>
  <fix>3d</fix>
</trkpt>
<trkpt lat="33.8098634" lon="-118.3939504">
  <ele>-34.736</ele>
  <time>2026-09-01T01:13:33Z</time>
  <course>184.82</course>
  <speed>0.7443117626371358</speed>
  <fix>3d</fix>
</trkpt>
<trkpt lat="33.8098641" lon="-118.3939502">
  <ele>-33.75</ele>
  <time>2026-09-01T01:13:33Z</time>
  <course>184.55</course>
  <speed>0.77</speed>
  <fix>3d</fix>
</trkpt>
<trkpt lat="33.8098627" lon="-118.3939505">
  <ele>-34.793</ele>
  <time>2026-09-01T01:13:33Z</time>
  <course>184.77</course>
  <speed>0.7443117626371358</speed>
  <fix>3d</fix>
</trkpt>
<trkpt lat="33.8098641" lon="-118.3939502">
  <ele>-33.75</ele>
  <time>2026-09-01T01:13:33Z</time>
  <course>184.55</course>
  <speed>0.77</speed>
  <fix>3d</fix>
</trkpt>
<trkpt lat="33.809862" lon="-118.3939505">
  <ele>-34.85</ele>
  <time>2026-09-01T01:13:33Z</time>
  <course>184.72</course>
  <speed>0.7443117626371358</speed>
  <fix>3d</fix>
</trkpt>
<trkpt lat="33.8098626" lon="-118.3939503">
  <ele>-33.87</ele>
  <time>2026-09-01T01:13:33Z</time>
  <course>184.55</course>
  <speed>0.77</speed>
  <fix>3d</fix>
</trkpt>
<trkpt lat="33.8098613" lon="-118.3939506">
  <ele>-34.907</ele>
  <time>2026-09-01T01:13:33Z</time>
  <course>184.68</course>
  <speed>0.7443117626371358</speed>
  <fix>3d</fix>
</trkpt>
<trkpt lat="33.8098626" lon="-118.3939503">
  <ele>-33.87</ele>
  <time>2026-09-01T01:13:33Z</time>
  <course>184.55</course>
  <speed>0.77</speed>
  <fix>3d</fix>
</trkpt>
<trkpt lat="33.8098606" lon="-118.3939507">
  <ele>-34.961</ele>
  <time>2026-09-01T01:13:33Z</time>
  <course>184.63</course>
  <speed>0.7443117626371358</speed>
  <fix>3d</fix>
</trkpt>
<trkpt lat="33.8098612" lon="-118.3939504">
  <ele>-33.98</ele>
  <time>2026-09-01T01:13:33Z</time>
  <course>184.55</course>
  <speed>0.77</speed>
  <fix>3d</fix>
</trkpt>
<trkpt lat="33.8098599" lon="-118.3939507">
  <ele>-35.01</ele>
  <time>2026-09-01T01:13:33Z</time>
  <course>184.59</course>
  <speed>0.7443117626371358</speed>
  <fix>3d</fix>
</trkpt>
<trkpt lat="33.8098612" lon="-118.3939504">
  <ele>-33.98</ele>
  <time>2026-09-01T01:13:33Z</time>
  <course>184.55</course>
  <speed>0.77</speed>
  <fix>3d</fix>
</trkpt>
<trkpt lat="33.8098592" lon="-118.3939508">
  <ele>-35.053</ele>
  <time>2026-09-01T01:13:33Z</time>
  <course>184.55</course>
  <speed>0.7443117626371358</speed>
  <fix>3d</fix>
</trkpt>
<trkpt lat="33.8098599" lon="-118.3939505">
  <ele>-34.09</ele>
  <time>2026-09-01T01:13:33Z</time>
  <course>184.54</course>
  <speed>0.77</speed>
  <fix>3d</fix>
</trkpt>
<trkpt lat="33.8098586" lon="-118.3939509">
  <ele>-35.091</ele>
  <time>2026-09-01T01:13:33Z</time>
  <course>184.5</course>
  <speed>0.7443117626371358</speed>
  <fix>3d</fix>
</trkpt>
<trkpt lat="33.8098599" lon="-118.3939505">
  <ele>-34.09</ele>
  <time>2026-09-01T01:13:33Z</time>
  <course>184.54</course>
  <speed>0.77</speed>
  <fix>3d</fix>
</trkpt>
<trkpt lat="33.8098579" lon="-118.3939509">
  <ele>-35.125</ele>
  <time>2026-09-01T01:13:33Z</time>
  <course>184.46</course>
  <speed>0.7443117626371358</speed>
  <fix>3d</fix>
</trkpt>
<trkpt lat="33.8098585" lon="-118.3939507">
  <ele>-34.18</ele>
  <time>2026-09-01T01:13:33Z</time>
  <course>184.52</course>
  <speed>0.77</speed>
  <fix>3d</fix>
</trkpt>
<trkpt lat="33.8098572" lon="-118.393951">
  <ele>-35.153</ele>
  <time>2026-09-01T01:13:33Z</time>
  <course>184.42</course>
  <speed>0.7343704787094864</speed>
  <fix>3d</fix>
</trkpt>
<trkpt lat="33.8098585" lon="-118.3939507">
  <ele>-34.18</ele>
  <time>2026-09-01T01:13:33Z</time>
  <course>184.52</course>
  <speed>0.77</speed>
  <fix>3d</fix>
</trkpt>
<trkpt lat="33.8098565" lon="-118.3939511">
  <ele>-35.175</ele>
  <time>2026-09-01T01:13:33Z</time>
  <course>184.38</course>
  <speed>0.7343704787094864</speed>
  <fix>3d</fix>
</trkpt>
<trkpt lat="33.8098571" lon="-118.3939508">
  <ele>-34.25</ele>
  <time>2026-09-01T01:13:33Z</time>
  <course>184.5</course>
  <speed>0.77</speed>
  <fix>3d</fix>
</trkpt>
<trkpt lat="33.8098558" lon="-118.3939511">
  <ele>-35.193</ele>
  <time>2026-09-01T01:13:33Z</time>
  <course>184.34</course>
  <speed>0.7343704787094864</speed>
  <fix>3d</fix>
</trkpt>
<trkpt lat="33.8098571" lon="-118.3939508">
  <ele>-34.25</ele>
  <time>2026-09-01T01:13:33Z</time>
  <course>184.5</course>
  <speed>0.77</speed>
  <fix>3d</fix>
</trkpt>
<trkpt lat="33.8098551" lon="-118.3939512">
  <ele>-35.206</ele>
  <time>2026-09-01T01:13:33Z</time>
  <course>184.3</course>
  <speed>0.7343704787094864</speed>
  <fix>3d</fix>
</trkpt>
<trkpt lat="33.8098557" lon="-118.3939509">
  <ele>-34.3</ele>
  <time>2026-09-01T01:13:33Z</time>
  <course>184.49</course>
  <speed>0.77</speed>
  <fix>3d</fix>
</trkpt>
<trkpt lat="33.8098544" lon="-118.3939513">
  <ele>-35.214</ele>
  <time>2026-09-01T01:13:33Z</time>
  <course>184.27</course>
  <speed>0.7343704787094864</speed>
  <fix>3d</fix>
</trkpt>
<trkpt lat="33.8098557" lon="-118.3939509">
  <ele>-34.3</ele>
  <time>2026-09-01T01:13:33Z</time>
  <course>184.49</course>
  <speed>0.77</speed>
  <fix>3d</fix>
</trkpt>
<trkpt lat="33.8098537" lon="-118.3939513">
  <ele>-35.218</ele>
  <time>2026-09-01T01:13:33Z</time>
  <course>184.23</course>
  <speed>0.7343704787094864</speed>
  <fix>3d</fix>
</trkpt>
<trkpt lat="33.8098543" lon="-118.3939511">
  <ele>-34.34</ele>
  <time>2026-09-01T01:13:33Z</time>
  <course>184.47</course>
  <speed>0.77</speed>
  <fix>3d</fix>
</trkpt>
<trkpt lat="33.809853" lon="-118.3939514">
  <ele>-35.215</ele>
  <time>2026-09-01T01:13:33Z</time>
  <course>184.19</course>
  <speed>0.7343704787094864</speed>
  <fix>3d</fix>
</trkpt>
<trkpt lat="33.8098543" lon="-118.3939511">
  <ele>-34.34</ele>
  <time>2026-09-01T01:13:33Z</time>
  <course>184.47</course>
  <speed>0.77</speed>
  <fix>3d</fix>
</trkpt>
<trkpt lat="33.8098523" lon="-118.3939515">
  <ele>-35.204</ele>
  <time>2026-09-01T01:13:33Z</time>
  <course>184.16</course>
  <speed>0.7343704787094864</speed>
  <fix>3d</fix>
</trkpt>
<trkpt lat="33.8098529" lon="-118.3939512">
  <ele>-34.35</ele>
  <time>2026-09-01T01:13:33Z</time>
  <course>184.45</course>
  <speed>0.77</speed>
  <fix>3d</fix>
</trkpt>
<trkpt lat="33.8098517" lon="-118.3939515">
  <ele>-35.187</ele>
  <time>2026-09-01T01:13:33Z</time>
  <course>184.12</course>
  <speed>0.7343704787094864</speed>
  <fix>3d</fix>
</trkpt>
<trkpt lat="33.8098529" lon="-118.3939512">
  <ele>-34.35</ele>
  <time>2026-09-01T01:13:33Z</time>
  <course>184.45</course>
  <speed>0.77</speed>
  <fix>3d</fix>
</trkpt>
<trkpt lat="33.809851" lon="-118.3939516">
  <ele>-35.164</ele>
  <time>2026-09-01T01:13:33Z</time>
  <course>184.09</course>
  <speed>0.7343704787094864</speed>
  <fix>3d</fix>
</trkpt>
<trkpt lat="33.8098516" lon="-118.3939513">
  <ele>-34.34</ele>
  <time>2026-09-01T01:13:33Z</time>
  <course>184.42</course>
  <speed>0.77</speed>
  <fix>3d</fix>
</trkpt>
<trkpt lat="33.8098503" lon="-118.3939517">
  <ele>-35.139</ele>
  <time>2026-09-01T01:13:33Z</time>
  <course>184.06</course>
  <speed>0.7343704787094864</speed>
  <fix>3d</fix>
</trkpt>
<trkpt lat="33.8098516" lon="-118.3939513">
  <ele>-34.34</ele>
  <time>2026-09-01T01:13:33Z</time>
  <course>184.42</course>
  <speed>0.77</speed>
  <fix>3d</fix>
</trkpt>
<trkpt lat="33.8098496" lon="-118.3939517">
  <ele>-35.113</ele>
  <time>2026-09-01T01:13:33Z</time>
  <course>184.02</course>
  <speed>0.7343704787094864</speed>
  <fix>3d</fix>
</trkpt>
<trkpt lat="33.8098502" lon="-118.3939514">
  <ele>-34.31</ele>
  <time>2026-09-01T01:13:33Z</time>
  <course>184.39</course>
  <speed>0.77</speed>
  <fix>3d</fix>
</trkpt>
<trkpt lat="33.8098489" lon="-118.3939518">
  <ele>-35.088</ele>
  <time>2026-09-01T01:13:33Z</time>
  <course>183.99</course>
  <speed>0.7343704787094864</speed>
  <fix>3d</fix>
</trkpt>
<trkpt lat="33.8098502" lon="-118.3939514">
  <ele>-34.31</ele>
  <time>2026-09-01T01:13:33Z</time>
  <course>184.39</course>
  <speed>0.77</speed>
  <fix>3d</fix>
</trkpt>
<trkpt lat="33.8098482" lon="-118.3939519">
  <ele>-35.064</ele>
  <time>2026-09-01T01:13:33Z</time>
  <course>183.96</course>
  <speed>0.7343704787094864</speed>
  <fix>3d</fix>
</trkpt>
<trkpt lat="33.8098488" lon="-118.3939516">
  <ele>-34.26</ele>
  <time>2026-09-01T01:13:33Z</time>
  <course>184.38</course>
  <speed>0.77</speed>
  <fix>3d</fix>
</trkpt>
<trkpt lat="33.8098475" lon="-118.3939519">
  <ele>-35.04</ele>
  <time>2026-09-01T01:13:33Z</time>
  <course>183.93</course>
  <speed>0.7343704787094864</speed>
  <fix>3d</fix>
</trkpt>
<trkpt lat="33.8098488" lon="-118.3939516">
  <ele>-34.26</ele>
  <time>2026-09-01T01:13:33Z</time>
  <course>184.38</course>
  <speed>0.77</speed>
  <fix>3d</fix>
</trkpt>
<trkpt lat="33.8098468" lon="-118.393952">
  <ele>-35.017</ele>
  <time>2026-09-01T01:13:33Z</time>
  <course>183.9</course>
  <speed>0.7343704787094864</speed>
  <fix>3d</fix>
</trkpt>
<trkpt lat="33.8098473" lon="-118.3939517">
  <ele>-34.22</ele>
  <time>2026-09-01T01:13:33Z</time>
  <course>184.36</course>
  <speed>0.77</speed>
  <fix>3d</fix>
</trkpt>
<trkpt lat="33.8098461" lon="-118.393952">
  <ele>-34.996</ele>
  <time>2026-09-01T01:13:33Z</time>
  <course>183.87</course>
  <speed>0.7343704787094864</speed>
  <fix>3d</fix>
</trkpt>
<trkpt lat="33.8098473" lon="-118.3939517">
  <ele>-34.22</ele>
  <time>2026-09-01T01:13:33Z</time>
  <course>184.36</course>
  <speed>0.77</speed>
  <fix>3d</fix>
</trkpt>
<trkpt lat="33.8098454" lon="-118.3939521">
  <ele>-34.977</ele>
  <time>2026-09-01T01:13:33Z</time>
  <course>183.84</course>
  <speed>0.7343704787094864</speed>
  <fix>3d</fix>
</trkpt>
<trkpt lat="33.809846" lon="-118.3939519">
  <ele>-34.18</ele>
  <time>2026-09-01T01:13:33Z</time>
  <course>184.35</course>
  <speed>0.77</speed>
  <fix>3d</fix>
</trkpt>
<trkpt lat="33.8098447" lon="-118.3939522">
  <ele>-34.961</ele>
  <time>2026-09-01T01:13:33Z</time>
  <course>183.81</course>
  <speed>0.7343704787094864</speed>
  <fix>3d</fix>
</trkpt>
<trkpt lat="33.809846" lon="-118.3939519">
  <ele>-34.18</ele>
  <time>2026-09-01T01:13:33Z</time>
  <course>184.35</course>
  <speed>0.77</speed>
  <fix>3d</fix>
</trkpt>
<trkpt lat="33.809844" lon="-118.3939522">
  <ele>-34.951</ele>
  <time>2026-09-01T01:13:33Z</time>
  <course>183.78</course>
  <speed>0.7343704787094864</speed>
  <fix>3d</fix>
</trkpt>
<trkpt lat="33.8098446" lon="-118.393952">
  <ele>-34.15</ele>
  <time>2026-09-01T01:13:33Z</time>
  <course>184.34</course>
  <speed>0.77</speed>
  <fix>3d</fix>
</trkpt>
<trkpt lat="33.8098433" lon="-118.3939523">
  <ele>-34.947</ele>
  <time>2026-09-01T01:13:33Z</time>
  <course>183.75</course>
  <speed>0.7343704787094864</speed>
  <fix>3d</fix>
</trkpt>
<trkpt lat="33.8098446" lon="-118.393952">
  <ele>-34.15</ele>
  <time>2026-09-01T01:13:33Z</time>
  <course>184.34</course>
  <speed>0.77</speed>
  <fix>3d</fix>
</trkpt>
<trkpt lat="33.8098427" lon="-118.3939524">
  <ele>-34.946</ele>
  <time>2026-09-01T01:13:33Z</time>
  <course>183.72</course>
  <speed>0.7343704787094864</speed>
  <fix>3d</fix>
</trkpt>
<trkpt lat="33.8098432" lon="-118.3939521">
  <ele>-34.14</ele>
  <time>2026-09-01T01:13:33Z</time>
  <course>184.33</course>
  <speed>0.77</speed>
  <fix>3d</fix>
</trkpt>
<trkpt lat="33.809842" lon="-118.3939524">
  <ele>-34.945</ele>
  <time>2026-09-01T01:13:33Z</time>
  <course>183.69</course>
  <speed>0.7343704787094864</speed>
  <fix>3d</fix>
</trkpt>
<trkpt lat="33.8098432" lon="-118.3939521">
  <ele>-34.14</ele>
  <time>2026-09-01T01:13:33Z</time>
  <course>184.33</course>
  <speed>0.77</speed>
  <fix>3d</fix>
</trkpt>
<trkpt lat="33.8098413" lon="-118.3939525">
  <ele>-34.946</ele>
  <time>2026-09-01T01:13:33Z</time>
  <course>183.66</course>
  <speed>0.7343704787094864</speed>
  <fix>3d</fix>
</trkpt>
<trkpt lat="33.8098418" lon="-118.3939522">
  <ele>-34.14</ele>
  <time>2026-09-01T01:13:33Z</time>
  <course>184.31</course>
  <speed>0.77</speed>
  <fix>3d</fix>
</trkpt>
<trkpt lat="33.8098406" lon="-118.3939526">
  <ele>-34.947</ele>
  <time>2026-09-01T01:13:33Z</time>
  <course>183.63</course>
  <speed>0.7343704787094864</speed>
  <fix>3d</fix>
</trkpt>
<trkpt lat="33.8098418" lon="-118.3939522">
  <ele>-34.14</ele>
  <time>2026-09-01T01:13:33Z</time>
  <course>184.31</course>
  <speed>0.77</speed>
  <fix>3d</fix>
</trkpt>
<trkpt lat="33.8098399" lon="-118.3939526">
  <ele>-34.95</ele>
  <time>2026-09-01T01:13:33Z</time>
  <course>183.6</course>
  <speed>0.7343704787094864</speed>
  <fix>3d</fix>
</trkpt>
<trkpt lat="33.8098405" lon="-118.3939524">
  <ele>-34.13</ele>
  <time>2026-09-01T01:13:33Z</time>
  <course>184.29</course>
  <speed>0.77</speed>
  <fix>3d</fix>
</trkpt>
<trkpt lat="33.8098392" lon="-118.3939527">
  <ele>-34.953</ele>
  <time>2026-09-01T01:13:33Z</time>
  <course>183.57</course>
  <speed>0.7343704787094864</speed>
  <fix>3d</fix>
</trkpt>
<trkpt lat="33.8098405" lon="-118.3939524">
  <ele>-34.13</ele>
  <time>2026-09-01T01:13:33Z</time>
  <course>184.29</course>
  <speed>0.77</speed>
  <fix>3d</fix>
</trkpt>
<trkpt lat="33.8098385" lon="-118.3939528">
  <ele>-34.959</ele>
  <time>2026-09-01T01:13:33Z</time>
  <course>183.54</course>
  <speed>0.7343704787094864</speed>
  <fix>3d</fix>
</trkpt>
<trkpt lat="33.8098391" lon="-118.3939525">
  <ele>-34.13</ele>
  <time>2026-09-01T01:13:33Z</time>
  <course>184.27</course>
  <speed>0.77</speed>
  <fix>3d</fix>
</trkpt>
<trkpt lat="33.8098378" lon="-118.3939528">
  <ele>-34.967</ele>
  <time>2026-09-01T01:13:33Z</time>
  <course>183.52</course>
  <speed>0.7343704787094864</speed>
  <fix>3d</fix>
</trkpt>
<trkpt lat="33.8098391" lon="-118.3939525">
  <ele>-34.13</ele>
  <time>2026-09-01T01:13:33Z</time>
  <course>184.27</course>
  <speed>0.77</speed>
  <fix>3d</fix>
</trkpt>
<trkpt lat="33.8098371" lon="-118.3939529">
  <ele>-34.975</ele>
  <time>2026-09-01T01:13:33Z</time>
  <course>183.49</course>
  <speed>0.7343704787094864</speed>
  <fix>3d</fix>
</trkpt>
<trkpt lat="33.8098377" lon="-118.3939526">
  <ele>-34.14</ele>
  <time>2026-09-01T01:13:33Z</time>
  <course>184.25</course>
  <speed>0.77</speed>
  <fix>3d</fix>
</trkpt>
<trkpt lat="33.8098364" lon="-118.3939529">
  <ele>-34.983</ele>
  <time>2026-09-01T01:13:33Z</time>
  <course>183.47</course>
  <speed>0.7343704787094864</speed>
  <fix>3d</fix>
</trkpt>
<trkpt lat="33.8098377" lon="-118.3939526">
  <ele>-34.14</ele>
  <time>2026-09-01T01:13:33Z</time>
  <course>184.25</course>
  <speed>0.77</speed>
  <fix>3d</fix>
</trkpt>
<trkpt lat="33.8098357" lon="-118.393953">
  <ele>-34.99</ele>
  <time>2026-09-01T01:13:33Z</time>
  <course>183.44</course>
  <speed>0.7343704787094864</speed>
  <fix>3d</fix>
</trkpt>
<trkpt lat="33.8098363" lon="-118.3939527">
  <ele>-34.15</ele>
  <time>2026-09-01T01:13:33Z</time>
  <course>184.22</course>
  <speed>0.77</speed>
  <fix>3d</fix>
</trkpt>
<trkpt lat="33.809835" lon="-118.3939531">
  <ele>-34.997</ele>
  <time>2026-09-01T01:13:33Z</time>
  <course>183.41</course>
  <speed>0.7343704787094864</speed>
  <fix>3d</fix>
</trkpt>
<trkpt lat="33.8098363" lon="-118.3939527">
  <ele>-34.15</ele>
  <time>2026-09-01T01:13:33Z</time>
  <course>184.22</course>
  <speed>0.77</speed>
  <fix>3d</fix>
</trkpt>
<trkpt lat="33.8098343" lon="-118.3939531">
  <ele>-35.002</ele>
  <time>2026-09-01T01:13:33Z</time>
  <course>183.39</course>
  <speed>0.7343704787094864</speed>
  <fix>3d</fix>
</trkpt>
<trkpt lat="33.8098349" lon="-118.3939528">
  <ele>-34.16</ele>
  <time>2026-09-01T01:13:33Z</time>
  <course>184.2</course>
  <speed>0.77</speed>
  <fix>3d</fix>
</trkpt>
<trkpt lat="33.8098336" lon="-118.3939532">
  <ele>-35.006</ele>
  <time>2026-09-01T01:13:33Z</time>
  <course>183.36</course>
  <speed>0.7343704787094864</speed>
  <fix>3d</fix>
</trkpt>
<trkpt lat="33.8098349" lon="-118.3939528">
  <ele>-34.16</ele>
  <time>2026-09-01T01:13:33Z</time>
  <course>184.2</course>
  <speed>0.77</speed>
  <fix>3d</fix>
</trkpt>
<trkpt lat="33.8098329" lon="-118.3939532">
  <ele>-35.011</ele>
  <time>2026-09-01T01:13:33Z</time>
  <course>183.33</course>
  <speed>0.7343704787094864</speed>
  <fix>3d</fix>
</trkpt>
<trkpt lat="33.8098334" lon="-118.393953">
  <ele>-34.17</ele>
  <time>2026-09-01T01:13:33Z</time>
  <course>184.17</course>
  <speed>0.77</speed>
  <fix>3d</fix>
</trkpt>
<trkpt lat="33.8098322" lon="-118.3939533">
  <ele>-35.016</ele>
  <time>2026-09-01T01:13:33Z</time>
  <course>183.31</course>
  <speed>0.7343704787094864</speed>
  <fix>3d</fix>
</trkpt>
<trkpt lat="33.8098334" lon="-118.393953">
  <ele>-34.17</ele>
  <time>2026-09-01T01:13:33Z</time>
  <course>184.17</course>
  <speed>0.77</speed>
  <fix>3d</fix>
</trkpt>
<trkpt lat="33.8098315" lon="-118.3939534">
  <ele>-35.021</ele>
  <time>2026-09-01T01:13:33Z</time>
  <course>183.28</course>
  <speed>0.7343704787094864</speed>
  <fix>3d</fix>
</trkpt>
<trkpt lat="33.8098321" lon="-118.3939531">
  <ele>-34.18</ele>
  <time>2026-09-01T01:13:33Z</time>
  <course>184.13</course>
  <speed>0.77</speed>
  <fix>3d</fix>
</trkpt>
<trkpt lat="33.8098308" lon="-118.3939534">
  <ele>-35.026</ele>
  <time>2026-09-01T01:13:33Z</time>
  <course>183.26</course>
  <speed>0.7343704787094864</speed>
  <fix>3d</fix>
</trkpt>
<trkpt lat="33.8098321" lon="-118.3939531">
  <ele>-34.18</ele>
  <time>2026-09-01T01:13:33Z</time>
  <course>184.13</course>
  <speed>0.77</speed>
  <fix>3d</fix>
</trkpt>
<trkpt lat="33.8098301" lon="-118.3939535">
  <ele>-35.032</ele>
  <time>2026-09-01T01:13:33Z</time>
  <course>183.23</course>
  <speed>0.7333484846919641</speed>
  <fix>3d</fix>
</trkpt>
<trkpt lat="33.8098308" lon="-118.3939532">
  <ele>-34.19</ele>
  <time>2026-09-01T01:13:33Z</time>
  <course>184.1</course>
  <speed>0.77</speed>
  <fix>3d</fix>
</trkpt>
<trkpt lat="33.8098294" lon="-118.3939535">
  <ele>-35.038</ele>
  <time>2026-09-01T01:13:33Z</time>
  <course>183.21</course>
  <speed>0.7333484846919641</speed>
  <fix>3d</fix>
</trkpt>
<trkpt lat="33.8098308" lon="-118.3939532">
  <ele>-34.19</ele>
  <time>2026-09-01T01:13:33Z</time>
  <course>184.1</course>
  <speed>0.77</speed>
  <fix>3d</fix>
</trkpt>
<trkpt lat="33.8098288" lon="-118.3939536">
  <ele>-35.044</ele>
  <time>2026-09-01T01:13:33Z</time>
  <course>183.18</course>
  <speed>0.7333484846919641</speed>
  <fix>3d</fix>
</trkpt>
<trkpt lat="33.8098294" lon="-118.3939533">
  <ele>-34.2</ele>
  <time>2026-09-01T01:13:33Z</time>
  <course>184.07</course>
  <speed>0.77</speed>
  <fix>3d</fix>
</trkpt>
<trkpt lat="33.8098281" lon="-118.3939537">
  <ele>-35.05</ele>
  <time>2026-09-01T01:13:33Z</time>
  <course>183.16</course>
  <speed>0.7333484846919641</speed>
  <fix>3d</fix>
</trkpt>
<trkpt lat="33.8098294" lon="-118.3939533">
  <ele>-34.2</ele>
  <time>2026-09-01T01:13:33Z</time>
  <course>184.07</course>
  <speed>0.77</speed>
  <fix>3d</fix>
</trkpt>
<trkpt lat="33.8098274" lon="-118.3939537">
  <ele>-35.055</ele>
  <time>2026-09-01T01:13:33Z</time>
  <course>183.13</course>
  <speed>0.7333484846919641</speed>
  <fix>3d</fix>
</trkpt>
<trkpt lat="33.8098279" lon="-118.3939535">
  <ele>-34.21</ele>
  <time>2026-09-01T01:13:33Z</time>
  <course>184.04</course>
  <speed>0.77</speed>
  <fix>3d</fix>
</trkpt>
<trkpt lat="33.8098267" lon="-118.3939538">
  <ele>-35.059</ele>
  <time>2026-09-01T01:13:33Z</time>
  <course>183.11</course>
  <speed>0.7333484846919641</speed>
  <fix>3d</fix>
</trkpt>
<trkpt lat="33.8098279" lon="-118.3939535">
  <ele>-34.21</ele>
  <time>2026-09-01T01:13:33Z</time>
  <course>184.04</course>
  <speed>0.77</speed>
  <fix>3d</fix>
</trkpt>
<trkpt lat="33.809826" lon="-118.3939538">
  <ele>-35.061</ele>
  <time>2026-09-01T01:13:33Z</time>
  <course>183.09</course>
  <speed>0.7333484846919641</speed>
  <fix>3d</fix>
</trkpt>
<trkpt lat="33.8098265" lon="-118.3939536">
  <ele>-34.21</ele>
  <time>2026-09-01T01:13:33Z</time>
  <course>184.0</course>
  <speed>0.77</speed>
  <fix>3d</fix>
</trkpt>
<trkpt lat="33.8098253" lon="-118.3939539">
  <ele>-35.061</ele>
  <time>2026-09-01T01:13:33Z</time>
  <course>183.07</course>
  <speed>0.7433034373659253</speed>
  <fix>3d</fix>
</trkpt>
<trkpt lat="33.8098265" lon="-118.3939536">
  <ele>-34.21</ele>
  <time>2026-09-01T01:13:33Z</time>
  <course>184.0</course>
  <speed>0.77</speed>
  <fix>3d</fix>
</trkpt>
<trkpt lat="33.8098246" lon="-118.3939539">
  <ele>-35.061</ele>
  <time>2026-09-01T01:13:33Z</time>
  <course>183.04</course>
  <speed>0.7433034373659253</speed>
  <fix>3d</fix>
</trkpt>
<trkpt lat="33.8098252" lon="-118.3939537">
  <ele>-34.22</ele>
  <time>2026-09-01T01:13:33Z</time>
  <course>183.97</course>
  <speed>0.77</speed>
  <fix>3d</fix>
</trkpt>
<trkpt lat="33.8098239" lon="-118.393954">
  <ele>-35.059</ele>
  <time>2026-09-01T01:13:33Z</time>
  <course>183.02</course>
  <speed>0.7433034373659253</speed>
  <fix>3d</fix>
</trkpt>
<trkpt lat="33.8098252" lon="-118.3939537">
  <ele>-34.22</ele>
  <time>2026-09-01T01:13:33Z</time>
  <course>183.97</course>
  <speed>0.77</speed>
  <fix>3d</fix>
</trkpt>
<trkpt lat="33.8098232" lon="-118.3939541">
  <ele>-35.057</ele>
  <time>2026-09-01T01:13:33Z</time>
  <course>183.0</course>
  <speed>0.7433034373659253</speed>
  <fix>3d</fix>
</trkpt>
<trkpt lat="33.8098237" lon="-118.3939538">
  <ele>-34.21</ele>
  <time>2026-09-01T01:13:33Z</time>
  <course>183.93</course>
  <speed>0.77</speed>
  <fix>3d</fix>
</trkpt>
<trkpt lat="33.8098225" lon="-118.3939541">
  <ele>-35.053</ele>
  <time>2026-09-01T01:13:33Z</time>
  <course>182.98</course>
  <speed>0.7433034373659253</speed>
  <fix>3d</fix>
</trkpt>
<trkpt lat="33.8098237" lon="-118.3939538">
  <ele>-34.21</ele>
  <time>2026-09-01T01:13:33Z</time>
  <course>183.93</course>
  <speed>0.77</speed>
  <fix>3d</fix>
</trkpt>
<trkpt lat="33.8098218" lon="-118.3939542">
  <ele>-35.049</ele>
  <time>2026-09-01T01:13:33Z</time>
  <course>182.96</course>
  <speed>0.7433034373659253</speed>
  <fix>3d</fix>
</trkpt>
<trkpt lat="33.8098224" lon="-118.3939539">
  <ele>-34.21</ele>
  <time>2026-09-01T01:13:33Z</time>
  <course>183.9</course>
  <speed>0.77</speed>
  <fix>3d</fix>
</trkpt>
<trkpt lat="33.8098211" lon="-118.3939542">
  <ele>-35.045</ele>
  <time>2026-09-01T01:13:33Z</time>
  <course>182.93</course>
  <speed>0.7433034373659253</speed>
  <fix>3d</fix>
</trkpt>
<trkpt lat="33.8098224" lon="-118.3939539">
  <ele>-34.21</ele>
  <time>2026-09-01T01:13:33Z</time>
  <course>183.9</course>
  <speed>0.77</speed>
  <fix>3d</fix>
</trkpt>
<trkpt lat="33.8098204" lon="-118.3939543">
  <ele>-35.04</ele>
  <time>2026-09-01T01:13:33Z</time>
  <course>182.91</course>
  <speed>0.7433034373659253</speed>
  <fix>3d</fix>
</trkpt>
<trkpt lat="33.809821" lon="-118.393954">
  <ele>-34.2</ele>
  <time>2026-09-01T01:13:33Z</time>
  <course>183.86</course>
  <speed>0.77</speed>
  <fix>3d</fix>
</trkpt>
<trkpt lat="33.8098197" lon="-118.3939543">
  <ele>-35.037</ele>
  <time>2026-09-01T01:13:33Z</time>
  <course>182.89</course>
  <speed>0.7433034373659253</speed>
  <fix>3d</fix>
</trkpt>
<trkpt lat="33.809821" lon="-118.393954">
  <ele>-34.2</ele>
  <time>2026-09-01T01:13:33Z</time>
  <course>183.86</course>
  <speed>0.77</speed>
  <fix>3d</fix>
</trkpt>
<trkpt lat="33.809819" lon="-118.3939544">
  <ele>-35.035</ele>
  <time>2026-09-01T01:13:33Z</time>
  <course>182.87</course>
  <speed>0.7433034373659253</speed>
  <fix>3d</fix>
</trkpt>
<trkpt lat="33.8098197" lon="-118.3939541">
  <ele>-34.19</ele>
  <time>2026-09-01T01:13:33Z</time>
  <course>183.83</course>
  <speed>0.77</speed>
  <fix>3d</fix>
</trkpt>
<trkpt lat="33.8098183" lon="-118.3939544">
  <ele>-35.036</ele>
  <time>2026-09-01T01:13:33Z</time>
  <course>182.85</course>
  <speed>0.7433034373659253</speed>
  <fix>3d</fix>
</trkpt>
<trkpt lat="33.8098197" lon="-118.3939541">
  <ele>-34.19</ele>
  <time>2026-09-01T01:13:33Z</time>
  <course>183.83</course>
  <speed>0.77</speed>
  <fix>3d</fix>
</trkpt>
<trkpt lat="33.8098176" lon="-118.3939545">
  <ele>-35.038</ele>
  <time>2026-09-01T01:13:33Z</time>
  <course>182.83</course>
  <speed>0.7433034373659253</speed>
  <fix>3d</fix>
</trkpt>
<trkpt lat="33.8098182" lon="-118.3939543">
  <ele>-34.19</ele>
  <time>2026-09-01T01:13:33Z</time>
  <course>183.79</course>
  <speed>0.77</speed>
  <fix>3d</fix>
</trkpt>
<trkpt lat="33.8098169" lon="-118.3939546">
  <ele>-35.039</ele>
  <time>2026-09-01T01:13:33Z</time>
  <course>182.81</course>
  <speed>0.7433034373659253</speed>
  <fix>3d</fix>
</trkpt>
<trkpt lat="33.8098182" lon="-118.3939543">
  <ele>-34.19</ele>
  <time>2026-09-01T01:13:33Z</time>
  <course>183.79</course>
  <speed>0.77</speed>
  <fix>3d</fix>
</trkpt>
<trkpt lat="33.8098162" lon="-118.3939546">
  <ele>-35.038</ele>
  <time>2026-09-01T01:13:33Z</time>
  <course>182.79</course>
  <speed>0.7433034373659253</speed>
  <fix>3d</fix>
</trkpt>
<trkpt lat="33.8098169" lon="-118.3939544">
  <ele>-34.19</ele>
  <time>2026-09-01T01:13:33Z</time>
  <course>183.76</course>
  <speed>0.77</speed>
  <fix>3d</fix>
</trkpt>
<trkpt lat="33.8098155" lon="-118.3939547">
  <ele>-35.037</ele>
  <time>2026-09-01T01:13:33Z</time>
  <course>182.77</course>
  <speed>0.7433034373659253</speed>
  <fix>3d</fix>
</trkpt>
<trkpt lat="33.8098169" lon="-118.3939544">
  <ele>-34.19</ele>
  <time>2026-09-01T01:13:33Z</time>
  <course>183.76</course>
  <speed>0.77</speed>
  <fix>3d</fix>
</trkpt>
<trkpt lat="33.8098149" lon="-118.3939547">
  <ele>-35.034</ele>
  <time>2026-09-01T01:13:33Z</time>
  <course>182.75</course>
  <speed>0.7433034373659253</speed>
  <fix>3d</fix>
</trkpt>
<trkpt lat="33.8098155" lon="-118.3939545">
  <ele>-34.19</ele>
  <time>2026-09-01T01:13:33Z</time>
  <course>183.72</course>
  <speed>0.77</speed>
  <fix>3d</fix>
</trkpt>
<trkpt lat="33.8098142" lon="-118.3939548">
  <ele>-35.029</ele>
  <time>2026-09-01T01:13:33Z</time>
  <course>182.73</course>
  <speed>0.7433034373659253</speed>
  <fix>3d</fix>
</trkpt>
<trkpt lat="33.8098155" lon="-118.3939545">
  <ele>-34.19</ele>
  <time>2026-09-01T01:13:33Z</time>
  <course>183.72</course>
  <speed>0.77</speed>
  <fix>3d</fix>
</trkpt>
<trkpt lat="33.8098135" lon="-118.3939548">
  <ele>-35.025</ele>
  <time>2026-09-01T01:13:33Z</time>
  <course>182.71</course>
  <speed>0.7433034373659253</speed>
  <fix>3d</fix>
</trkpt>
<trkpt lat="33.809814" lon="-118.3939546">
  <ele>-34.19</ele>
  <time>2026-09-01T01:13:33Z</time>
  <course>183.69</course>
  <speed>0.77</speed>
  <fix>3d</fix>
</trkpt>
<trkpt lat="33.8098128" lon="-118.3939549">
  <ele>-35.021</ele>
  <time>2026-09-01T01:13:33Z</time>
  <course>182.69</course>
  <speed>0.7433034373659253</speed>
  <fix>3d</fix>
</trkpt>
<trkpt lat="33.809814" lon="-118.3939546">
  <ele>-34.19</ele>
  <time>2026-09-01T01:13:33Z</time>
  <course>183.69</course>
  <speed>0.77</speed>
  <fix>3d</fix>
</trkpt>
<trkpt lat="33.8098121" lon="-118.3939549">
  <ele>-35.018</ele>
  <time>2026-09-01T01:13:33Z</time>
  <course>182.67</course>
  <speed>0.7433034373659253</speed>
  <fix>3d</fix>
</trkpt>
<trkpt lat="33.8098126" lon="-118.3939547">
  <ele>-34.18</ele>
  <time>2026-09-01T01:13:33Z</time>
  <course>183.65</course>
  <speed>0.77</speed>
  <fix>3d</fix>
</trkpt>
<trkpt lat="33.8098114" lon="-118.393955">
  <ele>-35.016</ele>
  <time>2026-09-01T01:13:33Z</time>
  <course>182.65</course>
  <speed>0.7433034373659253</speed>
  <fix>3d</fix>
</trkpt>
<trkpt lat="33.8098126" lon="-118.3939547">
  <ele>-34.18</ele>
  <time>2026-09-01T01:13:33Z</time>
  <course>183.65</course>
  <speed>0.77</speed>
  <fix>3d</fix>
</trkpt>
<trkpt lat="33.8098107" lon="-118.393955">
  <ele>-35.018</ele>
  <time>2026-09-01T01:13:33Z</time>
  <course>182.63</course>
  <speed>0.7433034373659253</speed>
  <fix>3d</fix>
</trkpt>
<trkpt lat="33.8098113" lon="-118.3939548">
  <ele>-34.18</ele>
  <time>2026-09-01T01:13:33Z</time>
  <course>183.61</course>
  <speed>0.77</speed>
  <fix>3d</fix>
</trkpt>
<trkpt lat="33.80981" lon="-118.3939551">
  <ele>-35.023</ele>
  <time>2026-09-01T01:13:33Z</time>
  <course>182.62</course>
  <speed>0.7433034373659253</speed>
  <fix>3d</fix>
</trkpt>
<trkpt lat="33.8098113" lon="-118.3939548">
  <ele>-34.18</ele>
  <time>2026-09-01T01:13:33Z</time>
  <course>183.61</course>
  <speed>0.77</speed>
  <fix>3d</fix>
</trkpt>
<trkpt lat="33.8098093" lon="-118.3939551">
  <ele>-35.028</ele>
  <time>2026-09-01T01:13:33Z</time>
  <course>182.6</course>
  <speed>0.7433034373659253</speed>
  <fix>3d</fix>
</trkpt>
<trkpt lat="33.8098099" lon="-118.3939549">
  <ele>-34.18</ele>
  <time>2026-09-01T01:13:33Z</time>
  <course>183.58</course>
  <speed>0.77</speed>
  <fix>3d</fix>
</trkpt>
<trkpt lat="33.8098086" lon="-118.3939552">
  <ele>-35.033</ele>
  <time>2026-09-01T01:13:33Z</time>
  <course>182.58</course>
  <speed>0.7433034373659253</speed>
  <fix>3d</fix>
</trkpt>
<trkpt lat="33.8098099" lon="-118.3939549">
  <ele>-34.18</ele>
  <time>2026-09-01T01:13:33Z</time>
  <course>183.58</course>
  <speed>0.77</speed>
  <fix>3d</fix>
</trkpt>
<trkpt lat="33.8098079" lon="-118.3939552">
  <ele>-35.036</ele>
  <time>2026-09-01T01:13:33Z</time>
  <course>182.56</course>
  <speed>0.7424284477308234</speed>
  <fix>3d</fix>
</trkpt>
<trkpt lat="33.8098085" lon="-118.393955">
  <ele>-34.19</ele>
  <time>2026-09-01T01:13:33Z</time>
  <course>183.54</course>
  <speed>0.77</speed>
  <fix>3d</fix>
</trkpt>
<trkpt lat="33.8098072" lon="-118.3939553">
  <ele>-35.036</ele>
  <time>2026-09-01T01:13:33Z</time>
  <course>182.55</course>
  <speed>0.7424284477308234</speed>
  <fix>3d</fix>
</trkpt>
<trkpt lat="33.8098085" lon="-118.393955">
  <ele>-34.19</ele>
  <time>2026-09-01T01:13:33Z</time>
  <course>183.54</course>
  <speed>0.77</speed>
  <fix>3d</fix>
</trkpt>
<trkpt lat="33.8098065" lon="-118.3939553">
  <ele>-35.035</ele>
  <time>2026-09-01T01:13:33Z</time>
  <course>182.53</course>
  <speed>0.7424284477308234</speed>
  <fix>3d</fix>
</trkpt>
<trkpt lat="33.8098071" lon="-118.3939551">
  <ele>-34.2</ele>
  <time>2026-09-01T01:13:33Z</time>
  <course>183.5</course>
  <speed>0.77</speed>
  <fix>3d</fix>
</trkpt>
<trkpt lat="33.8098058" lon="-118.3939554">
  <ele>-35.035</ele>
  <time>2026-09-01T01:13:33Z</time>
  <course>182.51</course>
  <speed>0.7424284477308234</speed>
  <fix>3d</fix>
</trkpt>
<trkpt lat="33.8098071" lon="-118.3939551">
  <ele>-34.2</ele>
  <time>2026-09-01T01:13:33Z</time>
  <course>183.5</course>
  <speed>0.77</speed>
  <fix>3d</fix>
</trkpt>
<trkpt lat="33.8098051" lon="-118.3939554">
  <ele>-35.034</ele>
  <time>2026-09-01T01:13:33Z</time>
  <course>182.49</course>
  <speed>0.7424284477308234</speed>
  <fix>3d</fix>
</trkpt>
<trkpt lat="33.8098058" lon="-118.3939552">
  <ele>-34.2</ele>
  <time>2026-09-01T01:13:33Z</time>
  <course>183.46</course>
  <speed>0.77</speed>
  <fix>3d</fix>
</trkpt>
<trkpt lat="33.8098044" lon="-118.3939555">
  <ele>-35.034</ele>
  <time>2026-09-01T01:13:33Z</time>
  <course>182.48</course>
  <speed>0.7424284477308234</speed>
  <fix>3d</fix>
</trkpt>
<trkpt lat="33.8098058" lon="-118.3939552">
  <ele>-34.2</ele>
  <time>2026-09-01T01:13:33Z</time>
  <course>183.46</course>
  <speed>0.77</speed>
  <fix>3d</fix>
</trkpt>
<trkpt lat="33.8098037" lon="-118.3939555">
  <ele>-35.033</ele>
  <time>2026-09-01T01:13:33Z</time>
  <course>182.46</course>
  <speed>0.7424284477308234</speed>
  <fix>3d</fix>
</trkpt>
<trkpt lat="33.8098044" lon="-118.3939553">
  <ele>-34.2</ele>
  <time>2026-09-01T01:13:33Z</time>
  <course>183.43</course>
  <speed>0.77</speed>
  <fix>3d</fix>
</trkpt>
<trkpt lat="33.809803" lon="-118.3939556">
  <ele>-35.031</ele>
  <time>2026-09-01T01:13:33Z</time>
  <course>182.44</course>
  <speed>0.7424284477308234</speed>
  <fix>3d</fix>
</trkpt>
<trkpt lat="33.8098044" lon="-118.3939553">
  <ele>-34.2</ele>
  <time>2026-09-01T01:13:33Z</time>
  <course>183.43</course>
  <speed>0.77</speed>
  <fix>3d</fix>
</trkpt>
<trkpt lat="33.8098023" lon="-118.3939556">
  <ele>-35.028</ele>
  <time>2026-09-01T01:13:33Z</time>
  <course>182.43</course>
  <speed>0.7424284477308234</speed>
  <fix>3d</fix>
</trkpt>
<trkpt lat="33.809803" lon="-118.3939554">
  <ele>-34.19</ele>
  <time>2026-09-01T01:13:33Z</time>
  <course>183.39</course>
  <speed>0.77</speed>
  <fix>3d</fix>
</trkpt>
<trkpt lat="33.8098016" lon="-118.3939557">
  <ele>-35.024</ele>
  <time>2026-09-01T01:13:33Z</time>
  <course>182.41</course>
  <speed>0.7424284477308234</speed>
  <fix>3d</fix>
</trkpt>
<trkpt lat="33.809803" lon="-118.3939554">
  <ele>-34.19</ele>
  <time>2026-09-01T01:13:33Z</time>
  <course>183.39</course>
  <speed>0.77</speed>
  <fix>3d</fix>
</trkpt>
<trkpt lat="33.8098009" lon="-118.3939557">
  <ele>-35.018</ele>
  <time>2026-09-01T01:13:33Z</time>
  <course>182.39</course>
  <speed>0.7424284477308234</speed>
  <fix>3d</fix>
</trkpt>
<trkpt lat="33.8098016" lon="-118.3939555">
  <ele>-34.18</ele>
  <time>2026-09-01T01:13:33Z</time>
  <course>183.35</course>
  <speed>0.77</speed>
  <fix>3d</fix>
</trkpt>
<trkpt lat="33.8098002" lon="-118.3939558">
  <ele>-35.01</ele>
  <time>2026-09-01T01:13:33Z</time>
  <course>182.38</course>
  <speed>0.7424284477308234</speed>
  <fix>3d</fix>
</trkpt>
<trkpt lat="33.8098016" lon="-118.3939555">
  <ele>-34.18</ele>
  <time>2026-09-01T01:13:33Z</time>
  <course>183.35</course>
  <speed>0.77</speed>
  <fix>3d</fix>
</trkpt>
<trkpt lat="33.8097996" lon="-118.3939558">
  <ele>-35.002</ele>
  <time>2026-09-01T01:13:33Z</time>
  <course>182.36</course>
  <speed>0.7424284477308234</speed>
  <fix>3d</fix>
</trkpt>
<trkpt lat="33.8098002" lon="-118.3939556">
  <ele>-34.17</ele>
  <time>2026-09-01T01:13:33Z</time>
  <course>183.31</course>
  <speed>0.77</speed>
  <fix>3d</fix>
</trkpt>
<trkpt lat="33.8097989" lon="-118.3939559">
  <ele>-34.993</ele>
  <time>2026-09-01T01:13:33Z</time>
  <course>182.35</course>
  <speed>0.7424284477308234</speed>
  <fix>3d</fix>
</trkpt>
<trkpt lat="33.8098002" lon="-118.3939556">
  <ele>-34.17</ele>
  <time>2026-09-01T01:13:33Z</time>
  <course>183.31</course>
  <speed>0.77</speed>
  <fix>3d</fix>
</trkpt>
<trkpt lat="33.8097982" lon="-118.3939559">
  <ele>-34.984</ele>
  <time>2026-09-01T01:13:33Z</time>
  <course>182.33</course>
  <speed>0.7424284477308234</speed>
  <fix>3d</fix>
</trkpt>
<trkpt lat="33.8097987" lon="-118.3939557">
  <ele>-34.16</ele>
  <time>2026-09-01T01:13:33Z</time>
  <course>183.27</course>
  <speed>0.77</speed>
  <fix>3d</fix>
</trkpt>
<trkpt lat="33.8097975" lon="-118.393956">
  <ele>-34.977</ele>
  <time>2026-09-01T01:13:33Z</time>
  <course>182.32</course>
  <speed>0.7424284477308234</speed>
  <fix>3d</fix>
</trkpt>
<trkpt lat="33.8097987" lon="-118.3939557">
  <ele>-34.16</ele>
  <time>2026-09-01T01:13:33Z</time>
  <course>183.27</course>
  <speed>0.77</speed>
  <fix>3d</fix>
</trkpt>
<trkpt lat="33.8097968" lon="-118.393956">
  <ele>-34.974</ele>
  <time>2026-09-01T01:13:33Z</time>
  <course>182.3</course>
  <speed>0.7424284477308234</speed>
  <fix>3d</fix>
</trkpt>
<trkpt lat="33.8097974" lon="-118.3939558">
  <ele>-34.15</ele>
  <time>2026-09-01T01:13:33Z</time>
  <course>183.24</course>
  <speed>0.77</speed>
  <fix>3d</fix>
</trkpt>
<trkpt lat="33.8097961" lon="-118.3939561">
  <ele>-34.973</ele>
  <time>2026-09-01T01:13:33Z</time>
  <course>182.28</course>
  <speed>0.7424284477308234</speed>
  <fix>3d</fix>
</trkpt>
<trkpt lat="33.8097974" lon="-118.3939558">
  <ele>-34.15</ele>
  <time>2026-09-01T01:13:33Z</time>
  <course>183.24</course>
  <speed>0.77</speed>
  <fix>3d</fix>
</trkpt>
<trkpt lat="33.8097954" lon="-118.3939561">
  <ele>-34.974</ele>
  <time>2026-09-01T01:13:33Z</time>
  <course>182.27</course>
  <speed>0.7424284477308234</speed>
  <fix>3d</fix>
</trkpt>
<trkpt lat="33.809796" lon="-118.3939559">
  <ele>-34.14</ele>
  <time>2026-09-01T01:13:33Z</time>
  <course>183.21</course>
  <speed>0.77</speed>
  <fix>3d</fix>
</trkpt>
<trkpt lat="33.8097947" lon="-118.3939561">
  <ele>-34.975</ele>
  <time>2026-09-01T01:13:33Z</time>
  <course>182.26</course>
  <speed>0.7424284477308234</speed>
  <fix>3d</fix>
</trkpt>
<trkpt lat="33.809796" lon="-118.3939559">
  <ele>-34.14</ele>
  <time>2026-09-01T01:13:33Z</time>
  <course>183.21</course>
  <speed>0.77</speed>
  <fix>3d</fix>
</trkpt>
<trkpt lat="33.809794" lon="-118.3939562">
  <ele>-34.975</ele>
  <time>2026-09-01T01:13:33Z</time>
  <course>182.24</course>
  <speed>0.7424284477308234</speed>
  <fix>3d</fix>
</trkpt>
<trkpt lat="33.8097946" lon="-118.393956">
  <ele>-34.14</ele>
  <time>2026-09-01T01:13:33Z</time>
  <course>183.18</course>
  <speed>0.77</speed>
  <fix>3d</fix>
</trkpt>
<trkpt lat="33.8097933" lon="-118.3939562">
  <ele>-34.975</ele>
  <time>2026-09-01T01:13:33Z</time>
  <course>182.22</course>
  <speed>0.7424284477308234</speed>
  <fix>3d</fix>
</trkpt>
<trkpt lat="33.8097946" lon="-118.393956">
  <ele>-34.14</ele>
  <time>2026-09-01T01:13:33Z</time>
  <course>183.18</course>
  <speed>0.77</speed>
  <fix>3d</fix>
</trkpt>
<trkpt lat="33.8097926" lon="-118.3939563">
  <ele>-34.977</ele>
  <time>2026-09-01T01:13:33Z</time>
  <course>182.21</course>
  <speed>0.7424284477308234</speed>
  <fix>3d</fix>
</trkpt>
<trkpt lat="33.8097932" lon="-118.3939561">
  <ele>-34.15</ele>
  <time>2026-09-01T01:13:33Z</time>
  <course>183.14</course>
  <speed>0.77</speed>
  <fix>3d</fix>
</trkpt>
<trkpt lat="33.8097919" lon="-118.3939563">
  <ele>-34.978</ele>
  <time>2026-09-01T01:13:33Z</time>
  <course>182.2</course>
  <speed>0.7424284477308234</speed>
  <fix>3d</fix>
</trkpt>
<trkpt lat="33.8097932" lon="-118.3939561">
  <ele>-34.15</ele>
  <time>2026-09-01T01:13:33Z</time>
  <course>183.14</course>
  <speed>0.77</speed>
  <fix>3d</fix>
</trkpt>
<trkpt lat="33.8097912" lon="-118.3939564">
  <ele>-34.98</ele>
  <time>2026-09-01T01:13:33Z</time>
  <course>182.18</course>
  <speed>0.7424284477308234</speed>
  <fix>3d</fix>
</trkpt>
<trkpt lat="33.8097919" lon="-118.3939562">
  <ele>-34.15</ele>
  <time>2026-09-01T01:13:33Z</time>
  <course>183.11</course>
  <speed>0.77</speed>
  <fix>3d</fix>
</trkpt>
<trkpt lat="33.8097905" lon="-118.3939564">
  <ele>-34.981</ele>
  <time>2026-09-01T01:13:33Z</time>
  <course>182.17</course>
  <speed>0.7424284477308234</speed>
  <fix>3d</fix>
</trkpt>
<trkpt lat="33.8097919" lon="-118.3939562">
  <ele>-34.15</ele>
  <time>2026-09-01T01:13:33Z</time>
  <course>183.11</course>
  <speed>0.77</speed>
  <fix>3d</fix>
</trkpt>
<trkpt lat="33.8097899" lon="-118.3939565">
  <ele>-34.983</ele>
  <time>2026-09-01T01:13:33Z</time>
  <course>182.15</course>
  <speed>0.7424284477308234</speed>
  <fix>3d</fix>
</trkpt>
<trkpt lat="33.8097905" lon="-118.3939563">
  <ele>-34.15</ele>
  <time>2026-09-01T01:13:33Z</time>
  <course>183.07</course>
  <speed>0.77</speed>
  <fix>3d</fix>
</trkpt>
<trkpt lat="33.8097892" lon="-118.3939565">
  <ele>-34.985</ele>
  <time>2026-09-01T01:13:33Z</time>
  <course>182.14</course>
  <speed>0.7424284477308234</speed>
  <fix>3d</fix>
</trkpt>
<trkpt lat="33.8097905" lon="-118.3939563">
  <ele>-34.15</ele>
  <time>2026-09-01T01:13:33Z</time>
  <course>183.07</course>
  <speed>0.77</speed>
  <fix>3d</fix>
</trkpt>
<trkpt lat="33.8097885" lon="-118.3939566">
  <ele>-34.989</ele>
  <time>2026-09-01T01:13:33Z</time>
  <course>182.13</course>
  <speed>0.7424284477308234</speed>
  <fix>3d</fix>
</trkpt>
<trkpt lat="33.809789" lon="-118.3939564">
  <ele>-34.15</ele>
  <time>2026-09-01T01:13:33Z</time>
  <course>183.04</course>
  <speed>0.77</speed>
  <fix>3d</fix>
</trkpt>
<trkpt lat="33.8097878" lon="-118.3939566">
  <ele>-34.993</ele>
  <time>2026-09-01T01:13:33Z</time>
  <course>182.11</course>
  <speed>0.7424284477308234</speed>
  <fix>3d</fix>
</trkpt>
<trkpt lat="33.809789" lon="-118.3939564">
  <ele>-34.15</ele>
  <time>2026-09-01T01:13:33Z</time>
  <course>183.04</course>
  <speed>0.77</speed>
  <fix>3d</fix>
</trkpt>
<trkpt lat="33.8097871" lon="-118.3939567">
  <ele>-34.997</ele>
  <time>2026-09-01T01:13:33Z</time>
  <course>182.1</course>
  <speed>0.7424284477308234</speed>
  <fix>3d</fix>
</trkpt>
<trkpt lat="33.8097877" lon="-118.3939564">
  <ele>-34.16</ele>
  <time>2026-09-01T01:13:33Z</time>
  <course>183.01</course>
  <speed>0.77</speed>
  <fix>3d</fix>
</trkpt>
<trkpt lat="33.8097864" lon="-118.3939567">
  <ele>-35.002</ele>
  <time>2026-09-01T01:13:33Z</time>
  <course>182.09</course>
  <speed>0.7424284477308234</speed>
  <fix>3d</fix>
</trkpt>
<trkpt lat="33.8097877" lon="-118.3939564">
  <ele>-34.16</ele>
  <time>2026-09-01T01:13:33Z</time>
  <course>183.01</course>
  <speed>0.77</speed>
  <fix>3d</fix>
</trkpt>
<trkpt lat="33.8097857" lon="-118.3939567">
  <ele>-35.008</ele>
  <time>2026-09-01T01:13:33Z</time>
  <course>182.07</course>
  <speed>0.7424284477308234</speed>
  <fix>3d</fix>
</trkpt>
<trkpt lat="33.8097863" lon="-118.3939565">
  <ele>-34.16</ele>
  <time>2026-09-01T01:13:33Z</time>
  <course>182.98</course>
  <speed>0.77</speed>
  <fix>3d</fix>
</trkpt>
<trkpt lat="33.809785" lon="-118.3939568">
  <ele>-35.017</ele>
  <time>2026-09-01T01:13:33Z</time>
  <course>182.06</course>
  <speed>0.7424284477308234</speed>
  <fix>3d</fix>
</trkpt>
<trkpt lat="33.8097863" lon="-118.3939565">
  <ele>-34.16</ele>
  <time>2026-09-01T01:13:33Z</time>
  <course>182.98</course>
  <speed>0.77</speed>
  <fix>3d</fix>
</trkpt>
<trkpt lat="33.8097843" lon="-118.3939568">
  <ele>-35.026</ele>
  <time>2026-09-01T01:13:33Z</time>
  <course>182.05</course>
  <speed>0.7416872656315463</speed>
  <fix>3d</fix>
</trkpt>
<trkpt lat="33.8097848" lon="-118.3939566">
  <ele>-34.17</ele>
  <time>2026-09-01T01:13:33Z</time>
  <course>182.95</course>
  <speed>0.77</speed>
  <fix>3d</fix>
</trkpt>
<trkpt lat="33.8097836" lon="-118.3939569">
  <ele>-35.033</ele>
  <time>2026-09-01T01:13:33Z</time>
  <course>182.04</course>
  <speed>0.7416872656315463</speed>
  <fix>3d</fix>
</trkpt>
<trkpt lat="33.8097848" lon="-118.3939566">
  <ele>-34.17</ele>
  <time>2026-09-01T01:13:33Z</time>
  <course>182.95</course>
  <speed>0.77</speed>
  <fix>3d</fix>
</trkpt>
<trkpt lat="33.8097829" lon="-118.3939569">
  <ele>-35.04</ele>
  <time>2026-09-01T01:13:33Z</time>
  <course>182.02</course>
  <speed>0.7416872656315463</speed>
  <fix>3d</fix>
</trkpt>
<trkpt lat="33.8097834" lon="-118.3939567">
  <ele>-34.19</ele>
  <time>2026-09-01T01:13:33Z</time>
  <course>182.92</course>
  <speed>0.77</speed>
  <fix>3d</fix>
</trkpt>
<trkpt lat="33.8097822" lon="-118.3939569">
  <ele>-35.046</ele>
  <time>2026-09-01T01:13:33Z</time>
  <course>182.01</course>
  <speed>0.7416872656315463</speed>
  <fix>3d</fix>
</trkpt>
<trkpt lat="33.8097834" lon="-118.3939567">
  <ele>-34.19</ele>
  <time>2026-09-01T01:13:33Z</time>
  <course>182.92</course>
  <speed>0.77</speed>
  <fix>3d</fix>
</trkpt>
<trkpt lat="33.8097815" lon="-118.393957">
  <ele>-35.052</ele>
  <time>2026-09-01T01:13:33Z</time>
  <course>182.0</course>
  <speed>0.7416872656315463</speed>
  <fix>3d</fix>
</trkpt>
<trkpt lat="33.8097821" lon="-118.3939568">
  <ele>-34.2</ele>
  <time>2026-09-01T01:13:33Z</time>
  <course>182.88</course>
  <speed>0.77</speed>
  <fix>3d</fix>
</trkpt>
<trkpt lat="33.8097808" lon="-118.393957">
  <ele>-35.057</ele>
  <time>2026-09-01T01:13:33Z</time>
  <course>181.99</course>
  <speed>0.7416872656315463</speed>
  <fix>3d</fix>
</trkpt>
<trkpt lat="33.8097821" lon="-118.3939568">
  <ele>-34.2</ele>
  <time>2026-09-01T01:13:33Z</time>
  <course>182.88</course>
  <speed>0.77</speed>
  <fix>3d</fix>
</trkpt>
<trkpt lat="33.8097801" lon="-118.3939571">
  <ele>-35.062</ele>
  <time>2026-09-01T01:13:34Z</time>
  <course>181.98</course>
  <speed>0.7416872656315463</speed>
  <fix>3d</fix>
</trkpt>
<trkpt lat="33.8097807" lon="-118.3939569">
  <ele>-34.21</ele>
  <time>2026-09-01T01:13:34Z</time>
  <course>182.85</course>
  <speed>0.77</speed>
  <fix>3d</fix>
</trkpt>
<trkpt lat="33.8097794" lon="-118.3939571">
  <ele>-35.067</ele>
  <time>2026-09-01T01:13:34Z</time>
  <course>181.96</course>
  <speed>0.7416872656315463</speed>
  <fix>3d</fix>
</trkpt>
<trkpt lat="33.8097807" lon="-118.3939569">
  <ele>-34.21</ele>
  <time>2026-09-01T01:13:34Z</time>
  <course>182.85</course>
  <speed>0.77</speed>
  <fix>3d</fix>
</trkpt>
<trkpt lat="33.8097787" lon="-118.3939571">
  <ele>-35.069</ele>
  <time>2026-09-01T01:13:34Z</time>
  <course>181.95</course>
  <speed>0.7416872656315463</speed>
  <fix>3d</fix>
</trkpt>
<trkpt lat="33.8097793" lon="-118.393957">
  <ele>-34.22</ele>
  <time>2026-09-01T01:13:34Z</time>
  <course>182.82</course>
  <speed>0.77</speed>
  <fix>3d</fix>
</trkpt>
<trkpt lat="33.809778" lon="-118.3939572">
  <ele>-35.072</ele>
  <time>2026-09-01T01:13:34Z</time>
  <course>181.94</course>
  <speed>0.7416872656315463</speed>
  <fix>3d</fix>
</trkpt>
<trkpt lat="33.8097793" lon="-118.393957">
  <ele>-34.22</ele>
  <time>2026-09-01T01:13:34Z</time>
  <course>182.82</course>
  <speed>0.77</speed>
  <fix>3d</fix>
</trkpt>
<trkpt lat="33.8097773" lon="-118.3939572">
  <ele>-35.075</ele>
  <time>2026-09-01T01:13:34Z</time>
  <course>181.93</course>
  <speed>0.7416872656315463</speed>
  <fix>3d</fix>
</trkpt>
<trkpt lat="33.8097779" lon="-118.393957">
  <ele>-34.22</ele>
  <time>2026-09-01T01:13:34Z</time>
  <course>182.78</course>
  <speed>0.77</speed>
  <fix>3d</fix>
</trkpt>
<trkpt lat="33.8097766" lon="-118.3939573">
  <ele>-35.077</ele>
  <time>2026-09-01T01:13:34Z</time>
  <course>181.92</course>
  <speed>0.7416872656315463</speed>
  <fix>3d</fix>
</trkpt>
<trkpt lat="33.8097779" lon="-118.393957">
  <ele>-34.22</ele>
  <time>2026-09-01T01:13:34Z</time>
  <course>182.78</course>
  <speed>0.77</speed>
  <fix>3d</fix>
</trkpt>
<trkpt lat="33.8097759" lon="-118.3939573">
  <ele>-35.078</ele>
  <time>2026-09-01T01:13:34Z</time>
  <course>181.91</course>
  <speed>0.7416872656315463</speed>
  <fix>3d</fix>
</trkpt>
<trkpt lat="33.8097766" lon="-118.3939571">
  <ele>-34.23</ele>
  <time>2026-09-01T01:13:34Z</time>
  <course>182.75</course>
  <speed>0.77</speed>
  <fix>3d</fix>
</trkpt>
<trkpt lat="33.8097752" lon="-118.3939574">
  <ele>-35.079</ele>
  <time>2026-09-01T01:13:34Z</time>
  <course>181.89</course>
  <speed>0.7416872656315463</speed>
  <fix>3d</fix>
</trkpt>
<trkpt lat="33.8097766" lon="-118.3939571">
  <ele>-34.23</ele>
  <time>2026-09-01T01:13:34Z</time>
  <course>182.75</course>
  <speed>0.77</speed>
  <fix>3d</fix>
</trkpt>
<trkpt lat="33.8097745" lon="-118.3939574">
  <ele>-35.081</ele>
  <time>2026-09-01T01:13:34Z</time>
  <course>181.88</course>
  <speed>0.7416872656315463</speed>
  <fix>3d</fix>
</trkpt>
<trkpt lat="33.8097752" lon="-118.3939572">
  <ele>-34.23</ele>
  <time>2026-09-01T01:13:34Z</time>
  <course>182.72</course>
  <speed>0.77</speed>
  <fix>3d</fix>
</trkpt>
<trkpt lat="33.8097738" lon="-118.3939574">
  <ele>-35.082</ele>
  <time>2026-09-01T01:13:34Z</time>
  <course>181.87</course>
  <speed>0.7416872656315463</speed>
  <fix>3d</fix>
</trkpt>
<trkpt lat="33.8097752" lon="-118.3939572">
  <ele>-34.23</ele>
  <time>2026-09-01T01:13:34Z</time>
  <course>182.72</course>
  <speed>0.77</speed>
  <fix>3d</fix>
</trkpt>
<trkpt lat="33.8097732" lon="-118.3939575">
  <ele>-35.083</ele>
  <time>2026-09-01T01:13:34Z</time>
  <course>181.86</course>
  <speed>0.7416872656315463</speed>
  <fix>3d</fix>
</trkpt>
<trkpt lat="33.8097738" lon="-118.3939573">
  <ele>-34.24</ele>
  <time>2026-09-01T01:13:34Z</time>
  <course>182.69</course>
  <speed>0.77</speed>
  <fix>3d</fix>
</trkpt>
<trkpt lat="33.8097725" lon="-118.3939575">
  <ele>-35.083</ele>
  <time>2026-09-01T01:13:34Z</time>
  <course>181.85</course>
  <speed>0.7416872656315463</speed>
  <fix>3d</fix>
</trkpt>
<trkpt lat="33.8097738" lon="-118.3939573">
  <ele>-34.24</ele>
  <time>2026-09-01T01:13:34Z</time>
  <course>182.69</course>
  <speed>0.77</speed>
  <fix>3d</fix>
</trkpt>
<trkpt lat="33.8097718" lon="-118.3939575">
  <ele>-35.082</ele>
  <time>2026-09-01T01:13:34Z</time>
  <course>181.84</course>
  <speed>0.7416872656315463</speed>
  <fix>3d</fix>
</trkpt>
<trkpt lat="33.8097724" lon="-118.3939574">
  <ele>-34.24</ele>
  <time>2026-09-01T01:13:34Z</time>
  <course>182.66</course>
  <speed>0.77</speed>
  <fix>3d</fix>
</trkpt>
<trkpt lat="33.8097711" lon="-118.3939576">
  <ele>-35.08</ele>
  <time>2026-09-01T01:13:34Z</time>
  <course>181.83</course>
  <speed>0.7416872656315463</speed>
  <fix>3d</fix>
</trkpt>
<trkpt lat="33.8097724" lon="-118.3939574">
  <ele>-34.24</ele>
  <time>2026-09-01T01:13:34Z</time>
  <course>182.66</course>
  <speed>0.77</speed>
  <fix>3d</fix>
</trkpt>
<trkpt lat="33.8097704" lon="-118.3939576">
  <ele>-35.076</ele>
  <time>2026-09-01T01:13:34Z</time>
  <course>181.82</course>
  <speed>0.7416872656315463</speed>
  <fix>3d</fix>
</trkpt>
<trkpt lat="33.809771" lon="-118.3939574">
  <ele>-34.24</ele>
  <time>2026-09-01T01:13:34Z</time>
  <course>182.63</course>
  <speed>0.77</speed>
  <fix>3d</fix>
</trkpt>
<trkpt lat="33.8097697" lon="-118.3939577">
  <ele>-35.07</ele>
  <time>2026-09-01T01:13:34Z</time>
  <course>181.81</course>
  <speed>0.7416872656315463</speed>
  <fix>3d</fix>
</trkpt>
<trkpt lat="33.809771" lon="-118.3939574">
  <ele>-34.24</ele>
  <time>2026-09-01T01:13:34Z</time>
  <course>182.63</course>
  <speed>0.77</speed>
  <fix>3d</fix>
</trkpt>
<trkpt lat="33.809769" lon="-118.3939577">
  <ele>-35.062</ele>
  <time>2026-09-01T01:13:34Z</time>
  <course>181.8</course>
  <speed>0.7416872656315463</speed>
  <fix>3d</fix>
</trkpt>
<trkpt lat="33.8097695" lon="-118.3939575">
  <ele>-34.23</ele>
  <time>2026-09-01T01:13:34Z</time>
  <course>182.59</course>
  <speed>0.77</speed>
  <fix>3d</fix>
</trkpt>
<trkpt lat="33.8097683" lon="-118.3939577">
  <ele>-35.051</ele>
  <time>2026-09-01T01:13:34Z</time>
  <course>181.79</course>
  <speed>0.7416872656315463</speed>
  <fix>3d</fix>
</trkpt>
<trkpt lat="33.8097695" lon="-118.3939575">
  <ele>-34.23</ele>
  <time>2026-09-01T01:13:34Z</time>
  <course>182.59</course>
  <speed>0.77</speed>
  <fix>3d</fix>
</trkpt>
<trkpt lat="33.8097676" lon="-118.3939578">
  <ele>-35.037</ele>
  <time>2026-09-01T01:13:34Z</time>
  <course>181.78</course>
  <speed>0.7416872656315463</speed>
  <fix>3d</fix>
</trkpt>
<trkpt lat="33.8097682" lon="-118.3939576">
  <ele>-34.21</ele>
  <time>2026-09-01T01:13:34Z</time>
  <course>182.55</course>
  <speed>0.77</speed>
  <fix>3d</fix>
</trkpt>
<trkpt lat="33.8097669" lon="-118.3939578">
  <ele>-35.022</ele>
  <time>2026-09-01T01:13:34Z</time>
  <course>181.77</course>
  <speed>0.7416872656315463</speed>
  <fix>3d</fix>
</trkpt>
<trkpt lat="33.8097682" lon="-118.3939576">
  <ele>-34.21</ele>
  <time>2026-09-01T01:13:34Z</time>
  <course>182.55</course>
  <speed>0.77</speed>
  <fix>3d</fix>
</trkpt>
<trkpt lat="33.8097662" lon="-118.3939578">
  <ele>-35.007</ele>
  <time>2026-09-01T01:13:34Z</time>
  <course>181.76</course>
  <speed>0.7416872656315463</speed>
  <fix>3d</fix>
</trkpt>
<trkpt lat="33.8097668" lon="-118.3939577">
  <ele>-34.19</ele>
  <time>2026-09-01T01:13:34Z</time>
  <course>182.52</course>
  <speed>0.77</speed>
  <fix>3d</fix>
</trkpt>
<trkpt lat="33.8097655" lon="-118.3939579">
  <ele>-34.992</ele>
  <time>2026-09-01T01:13:34Z</time>
  <course>181.75</course>
  <speed>0.7416872656315463</speed>
  <fix>3d</fix>
</trkpt>
<trkpt lat="33.8097668" lon="-118.3939577">
  <ele>-34.19</ele>
  <time>2026-09-01T01:13:34Z</time>
  <course>182.52</course>
  <speed>0.77</speed>
  <fix>3d</fix>
</trkpt>
<trkpt lat="33.8097648" lon="-118.3939579">
  <ele>-34.978</ele>
  <time>2026-09-01T01:13:34Z</time>
  <course>181.74</course>
  <speed>0.7416872656315463</speed>
  <fix>3d</fix>
</trkpt>
<trkpt lat="33.8097655" lon="-118.3939577">
  <ele>-34.16</ele>
  <time>2026-09-01T01:13:34Z</time>
  <course>182.49</course>
  <speed>0.77</speed>
  <fix>3d</fix>
</trkpt>
<trkpt lat="33.8097641" lon="-118.393958">
  <ele>-34.964</ele>
  <time>2026-09-01T01:13:34Z</time>
  <course>181.73</course>
  <speed>0.7416872656315463</speed>
  <fix>3d</fix>
</trkpt>
<trkpt lat="33.8097655" lon="-118.3939577">
  <ele>-34.16</ele>
  <time>2026-09-01T01:13:34Z</time>
  <course>182.49</course>
  <speed>0.77</speed>
  <fix>3d</fix>
</trkpt>
<trkpt lat="33.8097634" lon="-118.393958">
  <ele>-34.953</ele>
  <time>2026-09-01T01:13:34Z</time>
  <course>181.72</course>
  <speed>0.7416872656315463</speed>
  <fix>3d</fix>
</trkpt>
<trkpt lat="33.809764" lon="-118.3939578">
  <ele>-34.14</ele>
  <time>2026-09-01T01:13:34Z</time>
  <course>182.47</course>
  <speed>0.77</speed>
  <fix>3d</fix>
</trkpt>
<trkpt lat="33.8097627" lon="-118.393958">
  <ele>-34.946</ele>
  <time>2026-09-01T01:13:34Z</time>
  <course>181.71</course>
  <speed>0.7416872656315463</speed>
  <fix>3d</fix>
</trkpt>
<trkpt lat="33.809764" lon="-118.3939578">
  <ele>-34.14</ele>
  <time>2026-09-01T01:13:34Z</time>
  <course>182.47</course>
  <speed>0.77</speed>
  <fix>3d</fix>
</trkpt>
<trkpt lat="33.809762" lon="-118.3939581">
  <ele>-34.943</ele>
  <time>2026-09-01T01:13:34Z</time>
  <course>181.7</course>
  <speed>0.7416872656315463</speed>
  <fix>3d</fix>
</trkpt>
<trkpt lat="33.8097627" lon="-118.3939579">
  <ele>-34.12</ele>
  <time>2026-09-01T01:13:34Z</time>
  <course>182.44</course>
  <speed>0.77</speed>
  <fix>3d</fix>
</trkpt>
<trkpt lat="33.8097613" lon="-118.3939581">
  <ele>-34.943</ele>
  <time>2026-09-01T01:13:34Z</time>
  <course>181.69</course>
  <speed>0.7416872656315463</speed>
  <fix>3d</fix>
</trkpt>
<trkpt lat="33.8097627" lon="-118.3939579">
  <ele>-34.12</ele>
  <time>2026-09-01T01:13:34Z</time>
  <course>182.44</course>
  <speed>0.77</speed>
  <fix>3d</fix>
</trkpt>
<trkpt lat="33.8097606" lon="-118.3939581">
  <ele>-34.946</ele>
  <time>2026-09-01T01:13:34Z</time>
  <course>181.68</course>
  <speed>0.7416872656315463</speed>
  <fix>3d</fix>
</trkpt>
<trkpt lat="33.8097613" lon="-118.393958">
  <ele>-34.12</ele>
  <time>2026-09-01T01:13:34Z</time>
  <course>182.42</course>
  <speed>0.77</speed>
  <fix>3d</fix>
</trkpt>
<trkpt lat="33.8097599" lon="-118.3939582">
  <ele>-34.951</ele>
  <time>2026-09-01T01:13:34Z</time>
  <course>181.68</course>
  <speed>0.7416872656315463</speed>
  <fix>3d</fix>
</trkpt>
<trkpt lat="33.8097613" lon="-118.393958">
  <ele>-34.12</ele>
  <time>2026-09-01T01:13:34Z</time>
  <course>182.42</course>
  <speed>0.77</speed>
  <fix>3d</fix>
</trkpt>
<trkpt lat="33.8097593" lon="-118.3939582">
  <ele>-34.958</ele>
  <time>2026-09-01T01:13:34Z</time>
  <course>181.67</course>
  <speed>0.7416872656315463</speed>
  <fix>3d</fix>
</trkpt>
<trkpt lat="33.8097599" lon="-118.393958">
  <ele>-34.12</ele>
  <time>2026-09-01T01:13:34Z</time>
  <course>182.41</course>
  <speed>0.77</speed>
  <fix>3d</fix>
</trkpt>
<trkpt lat="33.8097586" lon="-118.3939582">
  <ele>-34.968</ele>
  <time>2026-09-01T01:13:34Z</time>
  <course>181.66</course>
  <speed>0.7416872656315463</speed>
  <fix>3d</fix>
</trkpt>
<trkpt lat="33.8097599" lon="-118.393958">
  <ele>-34.12</ele>
  <time>2026-09-01T01:13:34Z</time>
  <course>182.41</course>
  <speed>0.77</speed>
  <fix>3d</fix>
</trkpt>
<trkpt lat="33.8097579" lon="-118.3939583">
  <ele>-34.979</ele>
  <time>2026-09-01T01:13:34Z</time>
  <course>181.65</course>
  <speed>0.7416872656315463</speed>
  <fix>3d</fix>
</trkpt>
<trkpt lat="33.8097585" lon="-118.3939581">
  <ele>-34.13</ele>
  <time>2026-09-01T01:13:34Z</time>
  <course>182.39</course>
  <speed>0.77</speed>
  <fix>3d</fix>
</trkpt>
<trkpt lat="33.8097572" lon="-118.3939583">
  <ele>-34.992</ele>
  <time>2026-09-01T01:13:34Z</time>
  <course>181.64</course>
  <speed>0.7416872656315463</speed>
  <fix>3d</fix>
</trkpt>
<trkpt lat="33.8097585" lon="-118.3939581">
  <ele>-34.13</ele>
  <time>2026-09-01T01:13:34Z</time>
  <course>182.39</course>
  <speed>0.77</speed>
  <fix>3d</fix>
</trkpt>
<trkpt lat="33.8097565" lon="-118.3939583">
  <ele>-35.006</ele>
  <time>2026-09-01T01:13:34Z</time>
  <course>181.63</course>
  <speed>0.7416872656315463</speed>
  <fix>3d</fix>
</trkpt>
<trkpt lat="33.8097571" lon="-118.3939582">
  <ele>-34.15</ele>
  <time>2026-09-01T01:13:34Z</time>
  <course>182.37</course>
  <speed>0.77</speed>
  <fix>3d</fix>
</trkpt>
<trkpt lat="33.8097558" lon="-118.3939584">
  <ele>-35.02</ele>
  <time>2026-09-01T01:13:34Z</time>
  <course>181.62</course>
  <speed>0.7416872656315463</speed>
  <fix>3d</fix>
</trkpt>
<trkpt lat="33.8097571" lon="-118.3939582">
  <ele>-34.15</ele>
  <time>2026-09-01T01:13:34Z</time>
  <course>182.37</course>
  <speed>0.77</speed>
  <fix>3d</fix>
</trkpt>
<trkpt lat="33.8097551" lon="-118.3939584">
  <ele>-35.036</ele>
  <time>2026-09-01T01:13:34Z</time>
  <course>181.62</course>
  <speed>0.7416872656315463</speed>
  <fix>3d</fix>
</trkpt>
<trkpt lat="33.8097556" lon="-118.3939582">
  <ele>-34.18</ele>
  <time>2026-09-01T01:13:34Z</time>
  <course>182.35</course>
  <speed>0.77</speed>
  <fix>3d</fix>
</trkpt>
<trkpt lat="33.8097544" lon="-118.3939584">
  <ele>-35.051</ele>
  <time>2026-09-01T01:13:34Z</time>
  <course>181.61</course>
  <speed>0.7416872656315463</speed>
  <fix>3d</fix>
</trkpt>
<trkpt lat="33.8097556" lon="-118.3939582">
  <ele>-34.18</ele>
  <time>2026-09-01T01:13:34Z</time>
  <course>182.35</course>
  <speed>0.77</speed>
  <fix>3d</fix>
</trkpt>
<trkpt lat="33.8097537" lon="-118.3939585">
  <ele>-35.066</ele>
  <time>2026-09-01T01:13:34Z</time>
  <course>181.6</course>
  <speed>0.7416872656315463</speed>
  <fix>3d</fix>
</trkpt>
<trkpt lat="33.8097542" lon="-118.3939583">
  <ele>-34.2</ele>
  <time>2026-09-01T01:13:34Z</time>
  <course>182.32</course>
  <speed>0.77</speed>
  <fix>3d</fix>
</trkpt>
<trkpt lat="33.809753" lon="-118.3939585">
  <ele>-35.081</ele>
  <time>2026-09-01T01:13:34Z</time>
  <course>181.59</course>
  <speed>0.7416872656315463</speed>
  <fix>3d</fix>
</trkpt>
<trkpt lat="33.8097542" lon="-118.3939583">
  <ele>-34.2</ele>
  <time>2026-09-01T01:13:34Z</time>
  <course>182.32</course>
  <speed>0.77</speed>
  <fix>3d</fix>
</trkpt>
<trkpt lat="33.8097523" lon="-118.3939585">
  <ele>-35.096</ele>
  <time>2026-09-01T01:13:34Z</time>
  <course>181.58</course>
  <speed>0.7510659092250159</speed>
  <fix>3d</fix>
</trkpt>
<trkpt lat="33.8097529" lon="-118.3939584">
  <ele>-34.23</ele>
  <time>2026-09-01T01:13:34Z</time>
  <course>182.3</course>
  <speed>0.77</speed>
  <fix>3d</fix>
</trkpt>
<trkpt lat="33.8097516" lon="-118.3939586">
  <ele>-35.11</ele>
  <time>2026-09-01T01:13:34Z</time>
  <course>181.57</course>
  <speed>0.7510659092250159</speed>
  <fix>3d</fix>
</trkpt>
<trkpt lat="33.8097529" lon="-118.3939584">
  <ele>-34.23</ele>
  <time>2026-09-01T01:13:34Z</time>
  <course>182.3</course>
  <speed>0.77</speed>
  <fix>3d</fix>
</trkpt>
<trkpt lat="33.8097509" lon="-118.3939586">
  <ele>-35.122</ele>
  <time>2026-09-01T01:13:34Z</time>
  <course>181.57</course>
  <speed>0.7510659092250159</speed>
  <fix>3d</fix>
</trkpt>
<trkpt lat="33.8097515" lon="-118.3939584">
  <ele>-34.26</ele>
  <time>2026-09-01T01:13:34Z</time>
  <course>182.27</course>
  <speed>0.77</speed>
  <fix>3d</fix>
</trkpt>
<trkpt lat="33.8097502" lon="-118.3939586">
  <ele>-35.132</ele>
  <time>2026-09-01T01:13:34Z</time>
  <course>181.56</course>
  <speed>0.7510659092250159</speed>
  <fix>3d</fix>
</trkpt>
<trkpt lat="33.8097515" lon="-118.3939584">
  <ele>-34.26</ele>
  <time>2026-09-01T01:13:34Z</time>
  <course>182.27</course>
  <speed>0.77</speed>
  <fix>3d</fix>
</trkpt>
<trkpt lat="33.8097495" lon="-118.3939587">
  <ele>-35.139</ele>
  <time>2026-09-01T01:13:34Z</time>
  <course>181.55</course>
  <speed>0.7510659092250159</speed>
  <fix>3d</fix>
</trkpt>
<trkpt lat="33.8097501" lon="-118.3939585">
  <ele>-34.28</ele>
  <time>2026-09-01T01:13:34Z</time>
  <course>182.24</course>
  <speed>0.77</speed>
  <fix>3d</fix>
</trkpt>
<trkpt lat="33.8097488" lon="-118.3939587">
  <ele>-35.143</ele>
  <time>2026-09-01T01:13:34Z</time>
  <course>181.54</course>
  <speed>0.7510659092250159</speed>
  <fix>3d</fix>
</trkpt>
<trkpt lat="33.8097501" lon="-118.3939585">
  <ele>-34.28</ele>
  <time>2026-09-01T01:13:34Z</time>
  <course>182.24</course>
  <speed>0.77</speed>
  <fix>3d</fix>
</trkpt>
<trkpt lat="33.8097481" lon="-118.3939587">
  <ele>-35.143</ele>
  <time>2026-09-01T01:13:34Z</time>
  <course>181.54</course>
  <speed>0.7510659092250159</speed>
  <fix>3d</fix>
</trkpt>
<trkpt lat="33.8097487" lon="-118.3939586">
  <ele>-34.29</ele>
  <time>2026-09-01T01:13:34Z</time>
  <course>182.21</course>
  <speed>0.77</speed>
  <fix>3d</fix>
</trkpt>
<trkpt lat="33.8097474" lon="-118.3939588">
  <ele>-35.138</ele>
  <time>2026-09-01T01:13:34Z</time>
  <course>181.53</course>
  <speed>0.7510659092250159</speed>
  <fix>3d</fix>
</trkpt>
<trkpt lat="33.8097487" lon="-118.3939586">
  <ele>-34.29</ele>
  <time>2026-09-01T01:13:34Z</time>
  <course>182.21</course>
  <speed>0.77</speed>
  <fix>3d</fix>
</trkpt>
<trkpt lat="33.8097467" lon="-118.3939588">
  <ele>-35.129</ele>
  <time>2026-09-01T01:13:34Z</time>
  <course>181.52</course>
  <speed>0.7510659092250159</speed>
  <fix>3d</fix>
</trkpt>
<trkpt lat="33.8097474" lon="-118.3939586">
  <ele>-34.28</ele>
  <time>2026-09-01T01:13:34Z</time>
  <course>182.18</course>
  <speed>0.77</speed>
  <fix>3d</fix>
</trkpt>
<trkpt lat="33.809746" lon="-118.3939588">
  <ele>-35.119</ele>
  <time>2026-09-01T01:13:34Z</time>
  <course>181.51</course>
  <speed>0.7510659092250159</speed>
  <fix>3d</fix>
</trkpt>
<trkpt lat="33.8097474" lon="-118.3939586">
  <ele>-34.28</ele>
  <time>2026-09-01T01:13:34Z</time>
  <course>182.18</course>
  <speed>0.77</speed>
  <fix>3d</fix>
</trkpt>
<trkpt lat="33.8097453" lon="-118.3939589">
  <ele>-35.107</ele>
  <time>2026-09-01T01:13:34Z</time>
  <course>181.51</course>
  <speed>0.7510659092250159</speed>
  <fix>3d</fix>
</trkpt>
<trkpt lat="33.8097459" lon="-118.3939587">
  <ele>-34.26</ele>
  <time>2026-09-01T01:13:34Z</time>
  <course>182.15</course>
  <speed>0.77</speed>
  <fix>3d</fix>
</trkpt>
<trkpt lat="33.8097446" lon="-118.3939589">
  <ele>-35.093</ele>
  <time>2026-09-01T01:13:34Z</time>
  <course>181.5</course>
  <speed>0.7510659092250159</speed>
  <fix>3d</fix>
</trkpt>
<trkpt lat="33.8097459" lon="-118.3939587">
  <ele>-34.26</ele>
  <time>2026-09-01T01:13:34Z</time>
  <course>182.15</course>
  <speed>0.77</speed>
  <fix>3d</fix>
</trkpt>
<trkpt lat="33.8097439" lon="-118.3939589">
  <ele>-35.075</ele>
  <time>2026-09-01T01:13:34Z</time>
  <course>181.49</course>
  <speed>0.7510659092250159</speed>
  <fix>3d</fix>
</trkpt>
<trkpt lat="33.8097446" lon="-118.3939588">
  <ele>-34.24</ele>
  <time>2026-09-01T01:13:34Z</time>
  <course>182.12</course>
  <speed>0.77</speed>
  <fix>3d</fix>
</trkpt>
<trkpt lat="33.8097432" lon="-118.393959">
  <ele>-35.054</ele>
  <time>2026-09-01T01:13:34Z</time>
  <course>181.49</course>
  <speed>0.7510659092250159</speed>
  <fix>3d</fix>
</trkpt>
<trkpt lat="33.8097446" lon="-118.3939588">
  <ele>-34.24</ele>
  <time>2026-09-01T01:13:34Z</time>
  <course>182.12</course>
  <speed>0.77</speed>
  <fix>3d</fix>
</trkpt>
<trkpt lat="33.8097425" lon="-118.393959">
  <ele>-35.031</ele>
  <time>2026-09-01T01:13:34Z</time>
  <course>181.48</course>
  <speed>0.7510659092250159</speed>
  <fix>3d</fix>
</trkpt>
<trkpt lat="33.8097432" lon="-118.3939588">
  <ele>-34.21</ele>
  <time>2026-09-01T01:13:34Z</time>
  <course>182.09</course>
  <speed>0.77</speed>
  <fix>3d</fix>
</trkpt>
<trkpt lat="33.8097418" lon="-118.393959">
  <ele>-35.009</ele>
  <time>2026-09-01T01:13:34Z</time>
  <course>181.47</course>
  <speed>0.7510659092250159</speed>
  <fix>3d</fix>
</trkpt>
<trkpt lat="33.8097432" lon="-118.3939588">
  <ele>-34.21</ele>
  <time>2026-09-01T01:13:34Z</time>
  <course>182.09</course>
  <speed>0.77</speed>
  <fix>3d</fix>
</trkpt>
<trkpt lat="33.8097411" lon="-118.3939591">
  <ele>-34.988</ele>
  <time>2026-09-01T01:13:34Z</time>
  <course>181.46</course>
  <speed>0.7510659092250159</speed>
  <fix>3d</fix>
</trkpt>
<trkpt lat="33.8097418" lon="-118.3939589">
  <ele>-34.17</ele>
  <time>2026-09-01T01:13:34Z</time>
  <course>182.07</course>
  <speed>0.77</speed>
  <fix>3d</fix>
</trkpt>
<trkpt lat="33.8097404" lon="-118.3939591">
  <ele>-34.969</ele>
  <time>2026-09-01T01:13:34Z</time>
  <course>181.46</course>
  <speed>0.7510659092250159</speed>
  <fix>3d</fix>
</trkpt>
<trkpt lat="33.8097418" lon="-118.3939589">
  <ele>-34.17</ele>
  <time>2026-09-01T01:13:34Z</time>
  <course>182.07</course>
  <speed>0.77</speed>
  <fix>3d</fix>
</trkpt>
<trkpt lat="33.8097397" lon="-118.3939591">
  <ele>-34.954</ele>
  <time>2026-09-01T01:13:34Z</time>
  <course>181.45</course>
  <speed>0.7510659092250159</speed>
  <fix>3d</fix>
</trkpt>
<trkpt lat="33.8097403" lon="-118.3939589">
  <ele>-34.14</ele>
  <time>2026-09-01T01:13:34Z</time>
  <course>182.05</course>
  <speed>0.77</speed>
  <fix>3d</fix>
</trkpt>
<trkpt lat="33.809739" lon="-118.3939591">
  <ele>-34.941</ele>
  <time>2026-09-01T01:13:34Z</time>
  <course>181.44</course>
  <speed>0.7510659092250159</speed>
  <fix>3d</fix>
</trkpt>
<trkpt lat="33.8097403" lon="-118.3939589">
  <ele>-34.14</ele>
  <time>2026-09-01T01:13:34Z</time>
  <course>182.05</course>
  <speed>0.77</speed>
  <fix>3d</fix>
</trkpt>
<trkpt lat="33.8097383" lon="-118.3939592">
  <ele>-34.933</ele>
  <time>2026-09-01T01:13:34Z</time>
  <course>181.44</course>
  <speed>0.7510659092250159</speed>
  <fix>3d</fix>
</trkpt>
<trkpt lat="33.809739" lon="-118.393959">
  <ele>-34.12</ele>
  <time>2026-09-01T01:13:34Z</time>
  <course>182.03</course>
  <speed>0.77</speed>
  <fix>3d</fix>
</trkpt>
<trkpt lat="33.8097376" lon="-118.3939592">
  <ele>-34.929</ele>
  <time>2026-09-01T01:13:34Z</time>
  <course>181.43</course>
  <speed>0.7510659092250159</speed>
  <fix>3d</fix>
</trkpt>
<trkpt lat="33.809739" lon="-118.393959">
  <ele>-34.12</ele>
  <time>2026-09-01T01:13:34Z</time>
  <course>182.03</course>
  <speed>0.77</speed>
  <fix>3d</fix>
</trkpt>
<trkpt lat="33.8097369" lon="-118.3939592">
  <ele>-34.928</ele>
  <time>2026-09-01T01:13:34Z</time>
  <course>181.43</course>
  <speed>0.7510659092250159</speed>
  <fix>3d</fix>
</trkpt>
<trkpt lat="33.8097376" lon="-118.3939591">
  <ele>-34.1</ele>
  <time>2026-09-01T01:13:34Z</time>
  <course>182.02</course>
  <speed>0.77</speed>
  <fix>3d</fix>
</trkpt>
<trkpt lat="33.8097362" lon="-118.3939593">
  <ele>-34.931</ele>
  <time>2026-09-01T01:13:34Z</time>
  <course>181.42</course>
  <speed>0.7510659092250159</speed>
  <fix>3d</fix>
</trkpt>
<trkpt lat="33.8097376" lon="-118.3939591">
  <ele>-34.1</ele>
  <time>2026-09-01T01:13:34Z</time>
  <course>182.02</course>
  <speed>0.77</speed>
  <fix>3d</fix>
</trkpt>
<trkpt lat="33.8097355" lon="-118.3939593">
  <ele>-34.936</ele>
  <time>2026-09-01T01:13:34Z</time>
  <course>181.41</course>
  <speed>0.7510659092250159</speed>
  <fix>3d</fix>
</trkpt>
<trkpt lat="33.8097363" lon="-118.3939591">
  <ele>-34.1</ele>
  <time>2026-09-01T01:13:34Z</time>
  <course>182.0</course>
  <speed>0.77</speed>
  <fix>3d</fix>
</trkpt>
<trkpt lat="33.8097348" lon="-118.3939593">
  <ele>-34.944</ele>
  <time>2026-09-01T01:13:34Z</time>
  <course>181.4</course>
  <speed>0.7510659092250159</speed>
  <fix>3d</fix>
</trkpt>
<trkpt lat="33.8097363" lon="-118.3939591">
  <ele>-34.1</ele>
  <time>2026-09-01T01:13:34Z</time>
  <course>182.0</course>
  <speed>0.77</speed>
  <fix>3d</fix>
</trkpt>
<trkpt lat="33.8097342" lon="-118.3939593">
  <ele>-34.953</ele>
  <time>2026-09-01T01:13:34Z</time>
  <course>181.4</course>
  <speed>0.7510659092250159</speed>
  <fix>3d</fix>
</trkpt>
<trkpt lat="33.8097348" lon="-118.3939592">
  <ele>-34.11</ele>
  <time>2026-09-01T01:13:34Z</time>
  <course>181.99</course>
  <speed>0.77</speed>
  <fix>3d</fix>
</trkpt>
<trkpt lat="33.8097335" lon="-118.3939594">
  <ele>-34.962</ele>
  <time>2026-09-01T01:13:34Z</time>
  <course>181.39</course>
  <speed>0.7510659092250159</speed>
  <fix>3d</fix>
</trkpt>
<trkpt lat="33.8097348" lon="-118.3939592">
  <ele>-34.11</ele>
  <time>2026-09-01T01:13:34Z</time>
  <course>181.99</course>
  <speed>0.77</speed>
  <fix>3d</fix>
</trkpt>
<trkpt lat="33.8097328" lon="-118.3939594">
  <ele>-34.969</ele>
  <time>2026-09-01T01:13:34Z</time>
  <course>181.39</course>
  <speed>0.7510659092250159</speed>
  <fix>3d</fix>
</trkpt>
<trkpt lat="33.8097335" lon="-118.3939592">
  <ele>-34.12</ele>
  <time>2026-09-01T01:13:34Z</time>
  <course>181.97</course>
  <speed>0.77</speed>
  <fix>3d</fix>
</trkpt>
<trkpt lat="33.8097321" lon="-118.3939594">
  <ele>-34.978</ele>
  <time>2026-09-01T01:13:34Z</time>
  <course>181.38</course>
  <speed>0.7510659092250159</speed>
  <fix>3d</fix>
</trkpt>
<trkpt lat="33.8097335" lon="-118.3939592">
  <ele>-34.12</ele>
  <time>2026-09-01T01:13:34Z</time>
  <course>181.97</course>
  <speed>0.77</speed>
  <fix>3d</fix>
</trkpt>
<trkpt lat="33.8097314" lon="-118.3939595">
  <ele>-34.987</ele>
  <time>2026-09-01T01:13:34Z</time>
  <course>181.37</course>
  <speed>0.7510659092250159</speed>
  <fix>3d</fix>
</trkpt>
<trkpt lat="33.8097321" lon="-118.3939593">
  <ele>-34.14</ele>
  <time>2026-09-01T01:13:34Z</time>
  <course>181.95</course>
  <speed>0.77</speed>
  <fix>3d</fix>
</trkpt>
<trkpt lat="33.8097307" lon="-118.3939595">
  <ele>-34.998</ele>
  <time>2026-09-01T01:13:34Z</time>
  <course>181.37</course>
  <speed>0.7510659092250159</speed>
  <fix>3d</fix>
</trkpt>
<trkpt lat="33.8097321" lon="-118.3939593">
  <ele>-34.14</ele>
  <time>2026-09-01T01:13:34Z</time>
  <course>181.95</course>
  <speed>0.77</speed>
  <fix>3d</fix>
</trkpt>
<trkpt lat="33.80973" lon="-118.3939595">
  <ele>-35.011</ele>
  <time>2026-09-01T01:13:34Z</time>
  <course>181.36</course>
  <speed>0.7510659092250159</speed>
  <fix>3d</fix>
</trkpt>
<trkpt lat="33.8097307" lon="-118.3939594">
  <ele>-34.16</ele>
  <time>2026-09-01T01:13:34Z</time>
  <course>181.93</course>
  <speed>0.77</speed>
  <fix>3d</fix>
</trkpt>
<trkpt lat="33.8097293" lon="-118.3939595">
  <ele>-35.022</ele>
  <time>2026-09-01T01:13:34Z</time>
  <course>181.36</course>
  <speed>0.7510659092250159</speed>
  <fix>3d</fix>
</trkpt>
<trkpt lat="33.8097307" lon="-118.3939594">
  <ele>-34.16</ele>
  <time>2026-09-01T01:13:34Z</time>
  <course>181.93</course>
  <speed>0.77</speed>
  <fix>3d</fix>
</trkpt>
<trkpt lat="33.8097286" lon="-118.3939596">
  <ele>-35.034</ele>
  <time>2026-09-01T01:13:34Z</time>
  <course>181.35</course>
  <speed>0.7510659092250159</speed>
  <fix>3d</fix>
</trkpt>
<trkpt lat="33.8097293" lon="-118.3939594">
  <ele>-34.18</ele>
  <time>2026-09-01T01:13:34Z</time>
  <course>181.91</course>
  <speed>0.77</speed>
  <fix>3d</fix>
</trkpt>
<trkpt lat="33.8097279" lon="-118.3939596">
  <ele>-35.045</ele>
  <time>2026-09-01T01:13:34Z</time>
  <course>181.34</course>
  <speed>0.7510659092250159</speed>
  <fix>3d</fix>
</trkpt>
<trkpt lat="33.8097293" lon="-118.3939594">
  <ele>-34.18</ele>
  <time>2026-09-01T01:13:34Z</time>
  <course>181.91</course>
  <speed>0.77</speed>
  <fix>3d</fix>
</trkpt>
<trkpt lat="33.8097272" lon="-118.3939596">
  <ele>-35.055</ele>
  <time>2026-09-01T01:13:34Z</time>
  <course>181.34</course>
  <speed>0.7510659092250159</speed>
  <fix>3d</fix>
</trkpt>
<trkpt lat="33.8097279" lon="-118.3939595">
  <ele>-34.19</ele>
  <time>2026-09-01T01:13:34Z</time>
  <course>181.89</course>
  <speed>0.77</speed>
  <fix>3d</fix>
</trkpt>
<trkpt lat="33.8097265" lon="-118.3939597">
  <ele>-35.065</ele>
  <time>2026-09-01T01:13:34Z</time>
  <course>181.34</course>
  <speed>0.7510659092250159</speed>
  <fix>3d</fix>
</trkpt>
<trkpt lat="33.8097279" lon="-118.3939595">
  <ele>-34.19</ele>
  <time>2026-09-01T01:13:34Z</time>
  <course>181.89</course>
  <speed>0.77</speed>
  <fix>3d</fix>
</trkpt>
<trkpt lat="33.8097258" lon="-118.3939597">
  <ele>-35.074</ele>
  <time>2026-09-01T01:13:34Z</time>
  <course>181.33</course>
  <speed>0.7510659092250159</speed>
  <fix>3d</fix>
</trkpt>
<trkpt lat="33.8097264" lon="-118.3939595">
  <ele>-34.22</ele>
  <time>2026-09-01T01:13:34Z</time>
  <course>181.87</course>
  <speed>0.77</speed>
  <fix>3d</fix>
</trkpt>
<trkpt lat="33.8097251" lon="-118.3939597">
  <ele>-35.083</ele>
  <time>2026-09-01T01:13:34Z</time>
  <course>181.32</course>
  <speed>0.7510659092250159</speed>
  <fix>3d</fix>
</trkpt>
<trkpt lat="33.8097264" lon="-118.3939595">
  <ele>-34.22</ele>
  <time>2026-09-01T01:13:34Z</time>
  <course>181.87</course>
  <speed>0.77</speed>
  <fix>3d</fix>
</trkpt>
<trkpt lat="33.8097244" lon="-118.3939597">
  <ele>-35.091</ele>
  <time>2026-09-01T01:13:34Z</time>
  <course>181.32</course>
  <speed>0.7510659092250159</speed>
  <fix>3d</fix>
</trkpt>
<trkpt lat="33.809725" lon="-118.3939596">
  <ele>-34.23</ele>
  <time>2026-09-01T01:13:34Z</time>
  <course>181.85</course>
  <speed>0.77</speed>
  <fix>3d</fix>
</trkpt>
<trkpt lat="33.8097237" lon="-118.3939598">
  <ele>-35.097</ele>
  <time>2026-09-01T01:13:34Z</time>
  <course>181.31</course>
  <speed>0.7510659092250159</speed>
  <fix>3d</fix>
</trkpt>
<trkpt lat="33.809725" lon="-118.3939596">
  <ele>-34.23</ele>
  <time>2026-09-01T01:13:34Z</time>
  <course>181.85</course>
  <speed>0.77</speed>
  <fix>3d</fix>
</trkpt>
<trkpt lat="33.809723" lon="-118.3939598">
  <ele>-35.101</ele>
  <time>2026-09-01T01:13:34Z</time>
  <course>181.31</course>
  <speed>0.7510659092250159</speed>
  <fix>3d</fix>
</trkpt>
<trkpt lat="33.8097237" lon="-118.3939596">
  <ele>-34.24</ele>
  <time>2026-09-01T01:13:34Z</time>
  <course>181.83</course>
  <speed>0.77</speed>
  <fix>3d</fix>
</trkpt>
<trkpt lat="33.8097223" lon="-118.3939598">
  <ele>-35.102</ele>
  <time>2026-09-01T01:13:34Z</time>
  <course>181.3</course>
  <speed>0.7510659092250159</speed>
  <fix>3d</fix>
</trkpt>
<trkpt lat="33.8097237" lon="-118.3939596">
  <ele>-34.24</ele>
  <time>2026-09-01T01:13:34Z</time>
  <course>181.83</course>
  <speed>0.77</speed>
  <fix>3d</fix>
</trkpt>
<trkpt lat="33.8097216" lon="-118.3939598">
  <ele>-35.097</ele>
  <time>2026-09-01T01:13:34Z</time>
  <course>181.3</course>
  <speed>0.7510659092250159</speed>
  <fix>3d</fix>
</trkpt>
<trkpt lat="33.8097223" lon="-118.3939597">
  <ele>-34.25</ele>
  <time>2026-09-01T01:13:34Z</time>
  <course>181.81</course>
  <speed>0.77</speed>
  <fix>3d</fix>
</trkpt>
<trkpt lat="33.8097209" lon="-118.3939599">
  <ele>-35.091</ele>
  <time>2026-09-01T01:13:34Z</time>
  <course>181.29</course>
  <speed>0.7510659092250159</speed>
  <fix>3d</fix>
</trkpt>
<trkpt lat="33.8097223" lon="-118.3939597">
  <ele>-34.25</ele>
  <time>2026-09-01T01:13:34Z</time>
  <course>181.81</course>
  <speed>0.77</speed>
  <fix>3d</fix>
</trkpt>
<trkpt lat="33.8097202" lon="-118.3939599">
  <ele>-35.082</ele>
  <time>2026-09-01T01:13:34Z</time>
  <course>181.29</course>
  <speed>0.7510659092250159</speed>
  <fix>3d</fix>
</trkpt>
<trkpt lat="33.8097209" lon="-118.3939597">
  <ele>-34.24</ele>
  <time>2026-09-01T01:13:34Z</time>
  <course>181.78</course>
  <speed>0.77</speed>
  <fix>3d</fix>
</trkpt>
<trkpt lat="33.8097195" lon="-118.3939599">
  <ele>-35.072</ele>
  <time>2026-09-01T01:13:34Z</time>
  <course>181.28</course>
  <speed>0.7510659092250159</speed>
  <fix>3d</fix>
</trkpt>
<trkpt lat="33.8097209" lon="-118.3939597">
  <ele>-34.24</ele>
  <time>2026-09-01T01:13:34Z</time>
  <course>181.78</course>
  <speed>0.77</speed>
  <fix>3d</fix>
</trkpt>
<trkpt lat="33.8097188" lon="-118.3939599">
  <ele>-35.061</ele>
  <time>2026-09-01T01:13:34Z</time>
  <course>181.28</course>
  <speed>0.7510659092250159</speed>
  <fix>3d</fix>
</trkpt>
<trkpt lat="33.8097195" lon="-118.3939598">
  <ele>-34.23</ele>
  <time>2026-09-01T01:13:34Z</time>
  <course>181.76</course>
  <speed>0.77</speed>
  <fix>3d</fix>
</trkpt>
<trkpt lat="33.8097181" lon="-118.39396">
  <ele>-35.049</ele>
  <time>2026-09-01T01:13:34Z</time>
  <course>181.27</course>
  <speed>0.7510659092250159</speed>
  <fix>3d</fix>
</trkpt>
<trkpt lat="33.8097195" lon="-118.3939598">
  <ele>-34.23</ele>
  <time>2026-09-01T01:13:34Z</time>
  <course>181.76</course>
  <speed>0.77</speed>
  <fix>3d</fix>
</trkpt>
<trkpt lat="33.8097174" lon="-118.39396">
  <ele>-35.038</ele>
  <time>2026-09-01T01:13:34Z</time>
  <course>181.27</course>
  <speed>0.7510659092250159</speed>
  <fix>3d</fix>
</trkpt>
<trkpt lat="33.8097182" lon="-118.3939598">
  <ele>-34.21</ele>
  <time>2026-09-01T01:13:34Z</time>
  <course>181.74</course>
  <speed>0.77</speed>
  <fix>3d</fix>
</trkpt>
<trkpt lat="33.8097167" lon="-118.39396">
  <ele>-35.028</ele>
  <time>2026-09-01T01:13:34Z</time>
  <course>181.26</course>
  <speed>0.7510659092250159</speed>
  <fix>3d</fix>
</trkpt>
<trkpt lat="33.8097182" lon="-118.3939598">
  <ele>-34.21</ele>
  <time>2026-09-01T01:13:34Z</time>
  <course>181.74</course>
  <speed>0.77</speed>
  <fix>3d</fix>
</trkpt>
<trkpt lat="33.809716" lon="-118.39396">
  <ele>-35.019</ele>
  <time>2026-09-01T01:13:34Z</time>
  <course>181.26</course>
  <speed>0.7510659092250159</speed>
  <fix>3d</fix>
</trkpt>
<trkpt lat="33.8097167" lon="-118.3939599">
  <ele>-34.19</ele>
  <time>2026-09-01T01:13:34Z</time>
  <course>181.72</course>
  <speed>0.77</speed>
  <fix>3d</fix>
</trkpt>
<trkpt lat="33.8097153" lon="-118.3939601">
  <ele>-35.01</ele>
  <time>2026-09-01T01:13:34Z</time>
  <course>181.25</course>
  <speed>0.7510659092250159</speed>
  <fix>3d</fix>
</trkpt>
<trkpt lat="33.8097167" lon="-118.3939599">
  <ele>-34.19</ele>
  <time>2026-09-01T01:13:34Z</time>
  <course>181.72</course>
  <speed>0.77</speed>
  <fix>3d</fix>
</trkpt>
<trkpt lat="33.8097147" lon="-118.3939601">
  <ele>-35.002</ele>
  <time>2026-09-01T01:13:34Z</time>
  <course>181.25</course>
  <speed>0.7510659092250159</speed>
  <fix>3d</fix>
</trkpt>
<trkpt lat="33.8097154" lon="-118.3939599">
  <ele>-34.17</ele>
  <time>2026-09-01T01:13:34Z</time>
  <course>181.71</course>
  <speed>0.77</speed>
  <fix>3d</fix>
</trkpt>
<trkpt lat="33.809714" lon="-118.3939601">
  <ele>-34.994</ele>
  <time>2026-09-01T01:13:34Z</time>
  <course>181.24</course>
  <speed>0.7510659092250159</speed>
  <fix>3d</fix>
</trkpt>
<trkpt lat="33.8097154" lon="-118.3939599">
  <ele>-34.17</ele>
  <time>2026-09-01T01:13:34Z</time>
  <course>181.71</course>
  <speed>0.77</speed>
  <fix>3d</fix>
</trkpt>
<trkpt lat="33.8097133" lon="-118.3939601">
  <ele>-34.988</ele>
  <time>2026-09-01T01:13:34Z</time>
  <course>181.24</course>
  <speed>0.7510659092250159</speed>
  <fix>3d</fix>
</trkpt>
<trkpt lat="33.809714" lon="-118.39396">
  <ele>-34.16</ele>
  <time>2026-09-01T01:13:34Z</time>
  <course>181.69</course>
  <speed>0.77</speed>
  <fix>3d</fix>
</trkpt>
<trkpt lat="33.8097126" lon="-118.3939602">
  <ele>-34.982</ele>
  <time>2026-09-01T01:13:34Z</time>
  <course>181.23</course>
  <speed>0.7510659092250159</speed>
  <fix>3d</fix>
</trkpt>
<trkpt lat="33.809714" lon="-118.39396">
  <ele>-34.16</ele>
  <time>2026-09-01T01:13:34Z</time>
  <course>181.69</course>
  <speed>0.77</speed>
  <fix>3d</fix>
</trkpt>
<trkpt lat="33.8097119" lon="-118.3939602">
  <ele>-34.977</ele>
  <time>2026-09-01T01:13:34Z</time>
  <course>181.23</course>
  <speed>0.7510659092250159</speed>
  <fix>3d</fix>
</trkpt>
<trkpt lat="33.8097126" lon="-118.39396">
  <ele>-34.14</ele>
  <time>2026-09-01T01:13:34Z</time>
  <course>181.68</course>
  <speed>0.77</speed>
  <fix>3d</fix>
</trkpt>
<trkpt lat="33.8097112" lon="-118.3939602">
  <ele>-34.974</ele>
  <time>2026-09-01T01:13:34Z</time>
  <course>181.23</course>
  <speed>0.7505997601918082</speed>
  <fix>3d</fix>
</trkpt>
<trkpt lat="33.8097126" lon="-118.39396">
  <ele>-34.14</ele>
  <time>2026-09-01T01:13:34Z</time>
  <course>181.68</course>
  <speed>0.77</speed>
  <fix>3d</fix>
</trkpt>
<trkpt lat="33.8097105" lon="-118.3939602">
  <ele>-34.974</ele>
  <time>2026-09-01T01:13:34Z</time>
  <course>181.22</course>
  <speed>0.7505997601918082</speed>
  <fix>3d</fix>
</trkpt>
<trkpt lat="33.8097111" lon="-118.3939601">
  <ele>-34.14</ele>
  <time>2026-09-01T01:13:34Z</time>
  <course>181.66</course>
  <speed>0.77</speed>
  <fix>3d</fix>
</trkpt>
<trkpt lat="33.8097098" lon="-118.3939603">
  <ele>-34.976</ele>
  <time>2026-09-01T01:13:34Z</time>
  <course>181.22</course>
  <speed>0.7505997601918082</speed>
  <fix>3d</fix>
</trkpt>
<trkpt lat="33.8097111" lon="-118.3939601">
  <ele>-34.14</ele>
  <time>2026-09-01T01:13:34Z</time>
  <course>181.66</course>
  <speed>0.77</speed>
  <fix>3d</fix>
</trkpt>
<trkpt lat="33.8097091" lon="-118.3939603">
  <ele>-34.98</ele>
  <time>2026-09-01T01:13:34Z</time>
  <course>181.21</course>
  <speed>0.7505997601918082</speed>
  <fix>3d</fix>
</trkpt>
<trkpt lat="33.8097098" lon="-118.3939601">
  <ele>-34.14</ele>
  <time>2026-09-01T01:13:34Z</time>
  <course>181.65</course>
  <speed>0.77</speed>
  <fix>3d</fix>
</trkpt>
<trkpt lat="33.8097084" lon="-118.3939603">
  <ele>-34.987</ele>
  <time>2026-09-01T01:13:34Z</time>
  <course>181.21</course>
  <speed>0.7505997601918082</speed>
  <fix>3d</fix>
</trkpt>
<trkpt lat="33.8097098" lon="-118.3939601">
  <ele>-34.14</ele>
  <time>2026-09-01T01:13:34Z</time>
  <course>181.65</course>
  <speed>0.77</speed>
  <fix>3d</fix>
</trkpt>
<trkpt lat="33.8097077" lon="-118.3939603">
  <ele>-34.995</ele>
  <time>2026-09-01T01:13:34Z</time>
  <course>181.21</course>
  <speed>0.7505997601918082</speed>
  <fix>3d</fix>
</trkpt>
<trkpt lat="33.8097084" lon="-118.3939602">
  <ele>-34.14</ele>
  <time>2026-09-01T01:13:34Z</time>
  <course>181.64</course>
  <speed>0.77</speed>
  <fix>3d</fix>
</trkpt>
<trkpt lat="33.809707" lon="-118.3939603">
  <ele>-35.003</ele>
  <time>2026-09-01T01:13:34Z</time>
  <course>181.2</course>
  <speed>0.7505997601918082</speed>
  <fix>3d</fix>
</trkpt>
<trkpt lat="33.8097084" lon="-118.3939602">
  <ele>-34.14</ele>
  <time>2026-09-01T01:13:34Z</time>
  <course>181.64</course>
  <speed>0.77</speed>
  <fix>3d</fix>
</trkpt>
<trkpt lat="33.8097063" lon="-118.3939604">
  <ele>-35.009</ele>
  <time>2026-09-01T01:13:34Z</time>
  <course>181.2</course>
  <speed>0.7505997601918082</speed>
  <fix>3d</fix>
</trkpt>
<trkpt lat="33.809707" lon="-118.3939602">
  <ele>-34.16</ele>
  <time>2026-09-01T01:13:34Z</time>
  <course>181.63</course>
  <speed>0.77</speed>
  <fix>3d</fix>
</trkpt>
<trkpt lat="33.8097056" lon="-118.3939604">
  <ele>-35.014</ele>
  <time>2026-09-01T01:13:34Z</time>
  <course>181.19</course>
  <speed>0.7505997601918082</speed>
  <fix>3d</fix>
</trkpt>
<trkpt lat="33.809707" lon="-118.3939602">
  <ele>-34.16</ele>
  <time>2026-09-01T01:13:34Z</time>
  <course>181.63</course>
  <speed>0.77</speed>
  <fix>3d</fix>
</trkpt>
<trkpt lat="33.8097049" lon="-118.3939604">
  <ele>-35.017</ele>
  <time>2026-09-01T01:13:34Z</time>
  <course>181.19</course>
  <speed>0.7505997601918082</speed>
  <fix>3d</fix>
</trkpt>
<trkpt lat="33.8097056" lon="-118.3939603">
  <ele>-34.17</ele>
  <time>2026-09-01T01:13:34Z</time>
  <course>181.61</course>
  <speed>0.77</speed>
  <fix>3d</fix>
</trkpt>
<trkpt lat="33.8097042" lon="-118.3939604">
  <ele>-35.02</ele>
  <time>2026-09-01T01:13:34Z</time>
  <course>181.18</course>
  <speed>0.7505997601918082</speed>
  <fix>3d</fix>
</trkpt>
<trkpt lat="33.8097056" lon="-118.3939603">
  <ele>-34.17</ele>
  <time>2026-09-01T01:13:34Z</time>
  <course>181.61</course>
  <speed>0.77</speed>
  <fix>3d</fix>
</trkpt>
<trkpt lat="33.8097035" lon="-118.3939605">
  <ele>-35.024</ele>
  <time>2026-09-01T01:13:34Z</time>
  <course>181.18</course>
  <speed>0.7505997601918082</speed>
  <fix>3d</fix>
</trkpt>
<trkpt lat="33.8097043" lon="-118.3939603">
  <ele>-34.18</ele>
  <time>2026-09-01T01:13:34Z</time>
  <course>181.59</course>
  <speed>0.77</speed>
  <fix>3d</fix>
</trkpt>
<trkpt lat="33.8097028" lon="-118.3939605">
  <ele>-35.029</ele>
  <time>2026-09-01T01:13:34Z</time>
  <course>181.18</course>
  <speed>0.7505997601918082</speed>
  <fix>3d</fix>
</trkpt>
<trkpt lat="33.8097043" lon="-118.3939603">
  <ele>-34.18</ele>
  <time>2026-09-01T01:13:34Z</time>
  <course>181.59</course>
  <speed>0.77</speed>
  <fix>3d</fix>
</trkpt>
<trkpt lat="33.8097021" lon="-118.3939605">
  <ele>-35.034</ele>
  <time>2026-09-01T01:13:34Z</time>
  <course>181.17</course>
  <speed>0.7505997601918082</speed>
  <fix>3d</fix>
</trkpt>
<trkpt lat="33.8097029" lon="-118.3939604">
  <ele>-34.18</ele>
  <time>2026-09-01T01:13:34Z</time>
  <course>181.58</course>
  <speed>0.77</speed>
  <fix>3d</fix>
</trkpt>
<trkpt lat="33.8097015" lon="-118.3939605">
  <ele>-35.04</ele>
  <time>2026-09-01T01:13:34Z</time>
  <course>181.17</course>
  <speed>0.7505997601918082</speed>
  <fix>3d</fix>
</trkpt>
<trkpt lat="33.8097029" lon="-118.3939604">
  <ele>-34.18</ele>
  <time>2026-09-01T01:13:34Z</time>
  <course>181.58</course>
  <speed>0.77</speed>
  <fix>3d</fix>
</trkpt>
<trkpt lat="33.8097008" lon="-118.3939606">
  <ele>-35.045</ele>
  <time>2026-09-01T01:13:34Z</time>
  <course>181.17</course>
  <speed>0.7505997601918082</speed>
  <fix>3d</fix>
</trkpt>
<trkpt lat="33.8097015" lon="-118.3939604">
  <ele>-34.19</ele>
  <time>2026-09-01T01:13:34Z</time>
  <course>181.56</course>
  <speed>0.77</speed>
  <fix>3d</fix>
</trkpt>
<trkpt lat="33.8097001" lon="-118.3939606">
  <ele>-35.05</ele>
  <time>2026-09-01T01:13:34Z</time>
  <course>181.16</course>
  <speed>0.7505997601918082</speed>
  <fix>3d</fix>
</trkpt>
<trkpt lat="33.8097015" lon="-118.3939604">
  <ele>-34.19</ele>
  <time>2026-09-01T01:13:34Z</time>
  <course>181.56</course>
  <speed>0.77</speed>
  <fix>3d</fix>
</trkpt>
<trkpt lat="33.8096994" lon="-118.3939606">
  <ele>-35.054</ele>
  <time>2026-09-01T01:13:34Z</time>
  <course>181.16</course>
  <speed>0.7505997601918082</speed>
  <fix>3d</fix>
</trkpt>
<trkpt lat="33.8097001" lon="-118.3939605">
  <ele>-34.2</ele>
  <time>2026-09-01T01:13:34Z</time>
  <course>181.55</course>
  <speed>0.77</speed>
  <fix>3d</fix>
</trkpt>
<trkpt lat="33.8096987" lon="-118.3939606">
  <ele>-35.057</ele>
  <time>2026-09-01T01:13:34Z</time>
  <course>181.15</course>
  <speed>0.7505997601918082</speed>
  <fix>3d</fix>
</trkpt>
<trkpt lat="33.8097001" lon="-118.3939605">
  <ele>-34.2</ele>
  <time>2026-09-01T01:13:34Z</time>
  <course>181.55</course>
  <speed>0.77</speed>
  <fix>3d</fix>
</trkpt>
<trkpt lat="33.809698" lon="-118.3939607">
  <ele>-35.058</ele>
  <time>2026-09-01T01:13:34Z</time>
  <course>181.15</course>
  <speed>0.7505997601918082</speed>
  <fix>3d</fix>
</trkpt>
<trkpt lat="33.8096987" lon="-118.3939605">
  <ele>-34.21</ele>
  <time>2026-09-01T01:13:34Z</time>
  <course>181.53</course>
  <speed>0.77</speed>
  <fix>3d</fix>
</trkpt>
<trkpt lat="33.8096973" lon="-118.3939607">
  <ele>-35.058</ele>
  <time>2026-09-01T01:13:34Z</time>
  <course>181.14</course>
  <speed>0.740607858451421</speed>
  <fix>3d</fix>
</trkpt>
<trkpt lat="33.8096987" lon="-118.3939605">
  <ele>-34.21</ele>
  <time>2026-09-01T01:13:34Z</time>
  <course>181.53</course>
  <speed>0.77</speed>
  <fix>3d</fix>
</trkpt>
<trkpt lat="33.8096966" lon="-118.3939607">
  <ele>-35.053</ele>
  <time>2026-09-01T01:13:34Z</time>
  <course>181.14</course>
  <speed>0.740607858451421</speed>
  <fix>3d</fix>
</trkpt>
<trkpt lat="33.8096972" lon="-118.3939606">
  <ele>-34.21</ele>
  <time>2026-09-01T01:13:34Z</time>
  <course>181.52</course>
  <speed>0.77</speed>
  <fix>3d</fix>
</trkpt>
<trkpt lat="33.8096959" lon="-118.3939607">
  <ele>-35.046</ele>
  <time>2026-09-01T01:13:34Z</time>
  <course>181.14</course>
  <speed>0.740607858451421</speed>
  <fix>3d</fix>
</trkpt>
<trkpt lat="33.8096972" lon="-118.3939606">
  <ele>-34.21</ele>
  <time>2026-09-01T01:13:34Z</time>
  <course>181.52</course>
  <speed>0.77</speed>
  <fix>3d</fix>
</trkpt>
<trkpt lat="33.8096952" lon="-118.3939608">
  <ele>-35.038</ele>
  <time>2026-09-01T01:13:34Z</time>
  <course>181.13</course>
  <speed>0.740607858451421</speed>
  <fix>3d</fix>
</trkpt>
<trkpt lat="33.8096958" lon="-118.3939606">
  <ele>-34.19</ele>
  <time>2026-09-01T01:13:34Z</time>
  <course>181.5</course>
  <speed>0.77</speed>
  <fix>3d</fix>
</trkpt>
<trkpt lat="33.8096945" lon="-118.3939608">
  <ele>-35.029</ele>
  <time>2026-09-01T01:13:34Z</time>
  <course>181.13</course>
  <speed>0.740607858451421</speed>
  <fix>3d</fix>
</trkpt>
<trkpt lat="33.8096958" lon="-118.3939606">
  <ele>-34.19</ele>
  <time>2026-09-01T01:13:34Z</time>
  <course>181.5</course>
  <speed>0.77</speed>
  <fix>3d</fix>
</trkpt>
<trkpt lat="33.8096938" lon="-118.3939608">
  <ele>-35.021</ele>
  <time>2026-09-01T01:13:34Z</time>
  <course>181.13</course>
  <speed>0.740607858451421</speed>
  <fix>3d</fix>
</trkpt>
<trkpt lat="33.8096945" lon="-118.3939607">
  <ele>-34.18</ele>
  <time>2026-09-01T01:13:34Z</time>
  <course>181.49</course>
  <speed>0.77</speed>
  <fix>3d</fix>
</trkpt>
<trkpt lat="33.8096931" lon="-118.3939608">
  <ele>-35.013</ele>
  <time>2026-09-01T01:13:34Z</time>
  <course>181.12</course>
  <speed>0.740607858451421</speed>
  <fix>3d</fix>
</trkpt>
<trkpt lat="33.8096945" lon="-118.3939607">
  <ele>-34.18</ele>
  <time>2026-09-01T01:13:34Z</time>
  <course>181.49</course>
  <speed>0.77</speed>
  <fix>3d</fix>
</trkpt>
<trkpt lat="33.8096924" lon="-118.3939608">
  <ele>-35.008</ele>
  <time>2026-09-01T01:13:34Z</time>
  <course>181.12</course>
  <speed>0.740607858451421</speed>
  <fix>3d</fix>
</trkpt>
<trkpt lat="33.809693" lon="-118.3939607">
  <ele>-34.17</ele>
  <time>2026-09-01T01:13:34Z</time>
  <course>181.48</course>
  <speed>0.77</speed>
  <fix>3d</fix>
</trkpt>
<trkpt lat="33.8096917" lon="-118.3939609">
  <ele>-35.007</ele>
  <time>2026-09-01T01:13:34Z</time>
  <course>181.12</course>
  <speed>0.740607858451421</speed>
  <fix>3d</fix>
</trkpt>
<trkpt lat="33.809693" lon="-118.3939607">
  <ele>-34.17</ele>
  <time>2026-09-01T01:13:34Z</time>
  <course>181.48</course>
  <speed>0.77</speed>
  <fix>3d</fix>
</trkpt>
<trkpt lat="33.8096911" lon="-118.3939609">
  <ele>-35.008</ele>
  <time>2026-09-01T01:13:34Z</time>
  <course>181.11</course>
  <speed>0.740607858451421</speed>
  <fix>3d</fix>
</trkpt>
<trkpt lat="33.8096917" lon="-118.3939607">
  <ele>-34.17</ele>
  <time>2026-09-01T01:13:34Z</time>
  <course>181.47</course>
  <speed>0.77</speed>
  <fix>3d</fix>
</trkpt>
<trkpt lat="33.8096904" lon="-118.3939609">
  <ele>-35.009</ele>
  <time>2026-09-01T01:13:34Z</time>
  <course>181.11</course>
  <speed>0.7505997601918082</speed>
  <fix>3d</fix>
</trkpt>
<trkpt lat="33.8096917" lon="-118.3939607">
  <ele>-34.17</ele>
  <time>2026-09-01T01:13:34Z</time>
  <course>181.47</course>
  <speed>0.77</speed>
  <fix>3d</fix>
</trkpt>
<trkpt lat="33.8096897" lon="-118.3939609">
  <ele>-35.009</ele>
  <time>2026-09-01T01:13:34Z</time>
  <course>181.11</course>
  <speed>0.740607858451421</speed>
  <fix>3d</fix>
</trkpt>
<trkpt lat="33.8096903" lon="-118.3939607">
  <ele>-34.17</ele>
  <time>2026-09-01T01:13:34Z</time>
  <course>181.46</course>
  <speed>0.77</speed>
  <fix>3d</fix>
</trkpt>
<trkpt lat="33.809689" lon="-118.3939609">
  <ele>-35.009</ele>
  <time>2026-09-01T01:13:34Z</time>
  <course>181.1</course>
  <speed>0.740607858451421</speed>
  <fix>3d</fix>
</trkpt>
<trkpt lat="33.8096903" lon="-118.3939607">
  <ele>-34.17</ele>
  <time>2026-09-01T01:13:34Z</time>
  <course>181.46</course>
  <speed>0.77</speed>
  <fix>3d</fix>
</trkpt>
<trkpt lat="33.8096883" lon="-118.393961">
  <ele>-35.007</ele>
  <time>2026-09-01T01:13:34Z</time>
  <course>181.1</course>
  <speed>0.740607858451421</speed>
  <fix>3d</fix>
</trkpt>
<trkpt lat="33.809689" lon="-118.3939608">
  <ele>-34.17</ele>
  <time>2026-09-01T01:13:34Z</time>
  <course>181.44</course>
  <speed>0.77</speed>
  <fix>3d</fix>
</trkpt>
<trkpt lat="33.8096876" lon="-118.393961">
  <ele>-35.005</ele>
  <time>2026-09-01T01:13:34Z</time>
  <course>181.1</course>
  <speed>0.740607858451421</speed>
  <fix>3d</fix>
</trkpt>
<trkpt lat="33.809689" lon="-118.3939608">
  <ele>-34.17</ele>
  <time>2026-09-01T01:13:34Z</time>
  <course>181.44</course>
  <speed>0.77</speed>
  <fix>3d</fix>
</trkpt>
<trkpt lat="33.8096869" lon="-118.393961">
  <ele>-35.004</ele>
  <time>2026-09-01T01:13:34Z</time>
  <course>181.09</course>
  <speed>0.740607858451421</speed>
  <fix>3d</fix>
</trkpt>
<trkpt lat="33.8096875" lon="-118.3939609">
  <ele>-34.17</ele>
  <time>2026-09-01T01:13:34Z</time>
  <course>181.43</course>
  <speed>0.77</speed>
  <fix>3d</fix>
</trkpt>
<trkpt lat="33.8096862" lon="-118.393961">
  <ele>-35.005</ele>
  <time>2026-09-01T01:13:34Z</time>
  <course>181.09</course>
  <speed>0.740607858451421</speed>
  <fix>3d</fix>
</trkpt>
<trkpt lat="33.8096875" lon="-118.3939609">
  <ele>-34.17</ele>
  <time>2026-09-01T01:13:34Z</time>
  <course>181.43</course>
  <speed>0.77</speed>
  <fix>3d</fix>
</trkpt>
<trkpt lat="33.8096855" lon="-118.393961">
  <ele>-35.007</ele>
  <time>2026-09-01T01:13:34Z</time>
  <course>181.09</course>
  <speed>0.740607858451421</speed>
  <fix>3d</fix>
</trkpt>
<trkpt lat="33.8096862" lon="-118.3939609">
  <ele>-34.17</ele>
  <time>2026-09-01T01:13:34Z</time>
  <course>181.41</course>
  <speed>0.77</speed>
  <fix>3d</fix>
</trkpt>
<trkpt lat="33.8096848" lon="-118.3939611">
  <ele>-35.011</ele>
  <time>2026-09-01T01:13:34Z</time>
  <course>181.09</course>
  <speed>0.740607858451421</speed>
  <fix>3d</fix>
</trkpt>
<trkpt lat="33.8096862" lon="-118.3939609">
  <ele>-34.17</ele>
  <time>2026-09-01T01:13:34Z</time>
  <course>181.41</course>
  <speed>0.77</speed>
  <fix>3d</fix>
</trkpt>
<trkpt lat="33.8096841" lon="-118.3939611">
  <ele>-35.015</ele>
  <time>2026-09-01T01:13:34Z</time>
  <course>181.08</course>
  <speed>0.740607858451421</speed>
  <fix>3d</fix>
</trkpt>
<trkpt lat="33.8096848" lon="-118.393961">
  <ele>-34.17</ele>
  <time>2026-09-01T01:13:34Z</time>
  <course>181.4</course>
  <speed>0.77</speed>
  <fix>3d</fix>
</trkpt>
<trkpt lat="33.8096834" lon="-118.3939611">
  <ele>-35.02</ele>
  <time>2026-09-01T01:13:34Z</time>
  <course>181.08</course>
  <speed>0.740607858451421</speed>
  <fix>3d</fix>
</trkpt>
<trkpt lat="33.8096848" lon="-118.393961">
  <ele>-34.17</ele>
  <time>2026-09-01T01:13:34Z</time>
  <course>181.4</course>
  <speed>0.77</speed>
  <fix>3d</fix>
</trkpt>
<trkpt lat="33.8096827" lon="-118.3939611">
  <ele>-35.027</ele>
  <time>2026-09-01T01:13:34Z</time>
  <course>181.08</course>
  <speed>0.740607858451421</speed>
  <fix>3d</fix>
</trkpt>
<trkpt lat="33.8096834" lon="-118.393961">
  <ele>-34.18</ele>
  <time>2026-09-01T01:13:34Z</time>
  <course>181.39</course>
  <speed>0.77</speed>
  <fix>3d</fix>
</trkpt>
<trkpt lat="33.8096821" lon="-118.3939612">
  <ele>-35.035</ele>
  <time>2026-09-01T01:13:34Z</time>
  <course>181.07</course>
  <speed>0.740607858451421</speed>
  <fix>3d</fix>
</trkpt>
<trkpt lat="33.8096834" lon="-118.393961">
  <ele>-34.18</ele>
  <time>2026-09-01T01:13:34Z</time>
  <course>181.39</course>
  <speed>0.77</speed>
  <fix>3d</fix>
</trkpt>
<trkpt lat="33.8096814" lon="-118.3939612">
  <ele>-35.045</ele>
  <time>2026-09-01T01:13:34Z</time>
  <course>181.07</course>
  <speed>0.740607858451421</speed>
  <fix>3d</fix>
</trkpt>
<trkpt lat="33.8096819" lon="-118.393961">
  <ele>-34.19</ele>
  <time>2026-09-01T01:13:34Z</time>
  <course>181.38</course>
  <speed>0.77</speed>
  <fix>3d</fix>
</trkpt>
<trkpt lat="33.8096807" lon="-118.3939612">
  <ele>-35.057</ele>
  <time>2026-09-01T01:13:34Z</time>
  <course>181.07</course>
  <speed>0.740607858451421</speed>
  <fix>3d</fix>
</trkpt>
<trkpt lat="33.8096819" lon="-118.393961">
  <ele>-34.19</ele>
  <time>2026-09-01T01:13:34Z</time>
  <course>181.38</course>
  <speed>0.77</speed>
  <fix>3d</fix>
</trkpt>
<trkpt lat="33.80968" lon="-118.3939612">
  <ele>-35.071</ele>
  <time>2026-09-01T01:13:34Z</time>
  <course>181.06</course>
  <speed>0.740607858451421</speed>
  <fix>3d</fix>
</trkpt>
<trkpt lat="33.8096806" lon="-118.3939611">
  <ele>-34.22</ele>
  <time>2026-09-01T01:13:34Z</time>
  <course>181.38</course>
  <speed>0.77</speed>
  <fix>3d</fix>
</trkpt>
<trkpt lat="33.8096793" lon="-118.3939612">
  <ele>-35.088</ele>
  <time>2026-09-01T01:13:34Z</time>
  <course>181.06</course>
  <speed>0.740607858451421</speed>
  <fix>3d</fix>
</trkpt>
<trkpt lat="33.8096806" lon="-118.3939611">
  <ele>-34.22</ele>
  <time>2026-09-01T01:13:34Z</time>
  <course>181.38</course>
  <speed>0.77</speed>
  <fix>3d</fix>
</trkpt>
<trkpt lat="33.8096786" lon="-118.3939613">
  <ele>-35.107</ele>
  <time>2026-09-01T01:13:34Z</time>
  <course>181.06</course>
  <speed>0.740607858451421</speed>
  <fix>3d</fix>
</trkpt>
<trkpt lat="33.8096792" lon="-118.3939611">
  <ele>-34.24</ele>
  <time>2026-09-01T01:13:34Z</time>
  <course>181.37</course>
  <speed>0.77</speed>
  <fix>3d</fix>
</trkpt>
<trkpt lat="33.8096779" lon="-118.3939613">
  <ele>-35.131</ele>
  <time>2026-09-01T01:13:34Z</time>
  <course>181.06</course>
  <speed>0.740607858451421</speed>
  <fix>3d</fix>
</trkpt>
<trkpt lat="33.8096792" lon="-118.3939611">
  <ele>-34.24</ele>
  <time>2026-09-01T01:13:34Z</time>
  <course>181.37</course>
  <speed>0.77</speed>
  <fix>3d</fix>
</trkpt>
<trkpt lat="33.8096772" lon="-118.3939613">
  <ele>-35.156</ele>
  <time>2026-09-01T01:13:34Z</time>
  <course>181.05</course>
  <speed>0.740607858451421</speed>
  <fix>3d</fix>
</trkpt>
<trkpt lat="33.8096778" lon="-118.3939612">
  <ele>-34.28</ele>
  <time>2026-09-01T01:13:34Z</time>
  <course>181.37</course>
  <speed>0.77</speed>
  <fix>3d</fix>
</trkpt>
<trkpt lat="33.8096765" lon="-118.3939613">
  <ele>-35.184</ele>
  <time>2026-09-01T01:13:34Z</time>
  <course>181.05</course>
  <speed>0.740607858451421</speed>
  <fix>3d</fix>
</trkpt>
<trkpt lat="33.8096778" lon="-118.3939612">
  <ele>-34.28</ele>
  <time>2026-09-01T01:13:34Z</time>
  <course>181.37</course>
  <speed>0.77</speed>
  <fix>3d</fix>
</trkpt>
<trkpt lat="33.8096758" lon="-118.3939613">
  <ele>-35.217</ele>
  <time>2026-09-01T01:13:34Z</time>
  <course>181.05</course>
  <speed>0.7505997601918082</speed>
  <fix>3d</fix>
</trkpt>
<trkpt lat="33.8096764" lon="-118.3939612">
  <ele>-34.33</ele>
  <time>2026-09-01T01:13:34Z</time>
  <course>181.36</course>
  <speed>0.77</speed>
  <fix>3d</fix>
</trkpt>
<trkpt lat="33.8096751" lon="-118.3939614">
  <ele>-35.255</ele>
  <time>2026-09-01T01:13:34Z</time>
  <course>181.05</course>
  <speed>0.7505997601918082</speed>
  <fix>3d</fix>
</trkpt>
<trkpt lat="33.8096764" lon="-118.3939612">
  <ele>-34.33</ele>
  <time>2026-09-01T01:13:34Z</time>
  <course>181.36</course>
  <speed>0.77</speed>
  <fix>3d</fix>
</trkpt>
<trkpt lat="33.8096744" lon="-118.3939614">
  <ele>-35.296</ele>
  <time>2026-09-01T01:13:34Z</time>
  <course>181.04</course>
  <speed>0.7505997601918082</speed>
  <fix>3d</fix>
</trkpt>
<trkpt lat="33.809675" lon="-118.3939612">
  <ele>-34.39</ele>
  <time>2026-09-01T01:13:34Z</time>
  <course>181.36</course>
  <speed>0.77</speed>
  <fix>3d</fix>
</trkpt>
<trkpt lat="33.8096737" lon="-118.3939614">
  <ele>-35.339</ele>
  <time>2026-09-01T01:13:34Z</time>
  <course>181.04</course>
  <speed>0.7505997601918082</speed>
  <fix>3d</fix>
</trkpt>
<trkpt lat="33.809675" lon="-118.3939612">
  <ele>-34.39</ele>
  <time>2026-09-01T01:13:34Z</time>
  <course>181.36</course>
  <speed>0.77</speed>
  <fix>3d</fix>
</trkpt>
<trkpt lat="33.809673" lon="-118.3939614">
  <ele>-35.383</ele>
  <time>2026-09-01T01:13:34Z</time>
  <course>181.04</course>
  <speed>0.7505997601918082</speed>
  <fix>3d</fix>
</trkpt>
<trkpt lat="33.8096737" lon="-118.3939613">
  <ele>-34.46</ele>
  <time>2026-09-01T01:13:34Z</time>
  <course>181.36</course>
  <speed>0.77</speed>
  <fix>3d</fix>
</trkpt>
<trkpt lat="33.8096723" lon="-118.3939614">
  <ele>-35.428</ele>
  <time>2026-09-01T01:13:34Z</time>
  <course>181.04</course>
  <speed>0.7505997601918082</speed>
  <fix>3d</fix>
</trkpt>
<trkpt lat="33.8096737" lon="-118.3939613">
  <ele>-34.46</ele>
  <time>2026-09-01T01:13:34Z</time>
  <course>181.36</course>
  <speed>0.77</speed>
  <fix>3d</fix>
</trkpt>
<trkpt lat="33.8096716" lon="-118.3939615">
  <ele>-35.473</ele>
  <time>2026-09-01T01:13:34Z</time>
  <course>181.03</course>
  <speed>0.7505997601918082</speed>
  <fix>3d</fix>
</trkpt>
<trkpt lat="33.8096723" lon="-118.3939613">
  <ele>-34.54</ele>
  <time>2026-09-01T01:13:34Z</time>
  <course>181.35</course>
  <speed>0.77</speed>
  <fix>3d</fix>
</trkpt>
<trkpt lat="33.8096709" lon="-118.3939615">
  <ele>-35.518</ele>
  <time>2026-09-01T01:13:34Z</time>
  <course>181.03</course>
  <speed>0.7505997601918082</speed>
  <fix>3d</fix>
</trkpt>
<trkpt lat="33.8096723" lon="-118.3939613">
  <ele>-34.54</ele>
  <time>2026-09-01T01:13:34Z</time>
  <course>181.35</course>
  <speed>0.77</speed>
  <fix>3d</fix>
</trkpt>
<trkpt lat="33.8096702" lon="-118.3939615">
  <ele>-35.563</ele>
  <time>2026-09-01T01:13:34Z</time>
  <course>181.03</course>
  <speed>0.7505997601918082</speed>
  <fix>3d</fix>
</trkpt>
<trkpt lat="33.8096709" lon="-118.3939614">
  <ele>-34.62</ele>
  <time>2026-09-01T01:13:34Z</time>
  <course>181.35</course>
  <speed>0.77</speed>
  <fix>3d</fix>
</trkpt>
<trkpt lat="33.8096695" lon="-118.3939615">
  <ele>-35.607</ele>
  <time>2026-09-01T01:13:34Z</time>
  <course>181.03</course>
  <speed>0.7505997601918082</speed>
  <fix>3d</fix>
</trkpt>
<trkpt lat="33.8096709" lon="-118.3939614">
  <ele>-34.62</ele>
  <time>2026-09-01T01:13:34Z</time>
  <course>181.35</course>
  <speed>0.77</speed>
  <fix>3d</fix>
</trkpt>
<trkpt lat="33.8096688" lon="-118.3939615">
  <ele>-35.652</ele>
  <time>2026-09-01T01:13:34Z</time>
  <course>181.02</course>
  <speed>0.7505997601918082</speed>
  <fix>3d</fix>
</trkpt>
<trkpt lat="33.8096695" lon="-118.3939614">
  <ele>-34.7</ele>
  <time>2026-09-01T01:13:34Z</time>
  <course>181.34</course>
  <speed>0.77</speed>
  <fix>3d</fix>
</trkpt>
<trkpt lat="33.8096681" lon="-118.3939616">
  <ele>-35.698</ele>
  <time>2026-09-01T01:13:34Z</time>
  <course>181.02</course>
  <speed>0.7505997601918082</speed>
  <fix>3d</fix>
</trkpt>
<trkpt lat="33.8096695" lon="-118.3939614">
  <ele>-34.7</ele>
  <time>2026-09-01T01:13:34Z</time>
  <course>181.34</course>
  <speed>0.77</speed>
  <fix>3d</fix>
</trkpt>
<trkpt lat="33.8096675" lon="-118.3939616">
  <ele>-35.744</ele>
  <time>2026-09-01T01:13:34Z</time>
  <course>181.02</course>
  <speed>0.7505997601918082</speed>
  <fix>3d</fix>
</trkpt>
<trkpt lat="33.809668" lon="-118.3939614">
  <ele>-34.79</ele>
  <time>2026-09-01T01:13:34Z</time>
  <course>181.33</course>
  <speed>0.77</speed>
  <fix>3d</fix>
</trkpt>
<trkpt lat="33.8096668" lon="-118.3939616">
  <ele>-35.789</ele>
  <time>2026-09-01T01:13:34Z</time>
  <course>181.02</course>
  <speed>0.7505997601918082</speed>
  <fix>3d</fix>
</trkpt>
<trkpt lat="33.809668" lon="-118.3939614">
  <ele>-34.79</ele>
  <time>2026-09-01T01:13:34Z</time>
  <course>181.33</course>
  <speed>0.77</speed>
  <fix>3d</fix>
</trkpt>
<trkpt lat="33.8096661" lon="-118.3939616">
  <ele>-35.833</ele>
  <time>2026-09-01T01:13:34Z</time>
  <course>181.01</course>
  <speed>0.7505997601918082</speed>
  <fix>3d</fix>
</trkpt>
<trkpt lat="33.8096666" lon="-118.3939615">
  <ele>-34.88</ele>
  <time>2026-09-01T01:13:34Z</time>
  <course>181.32</course>
  <speed>0.77</speed>
  <fix>3d</fix>
</trkpt>
<trkpt lat="33.8096654" lon="-118.3939616">
  <ele>-35.878</ele>
  <time>2026-09-01T01:13:34Z</time>
  <course>181.01</course>
  <speed>0.7505997601918082</speed>
  <fix>3d</fix>
</trkpt>
<trkpt lat="33.8096666" lon="-118.3939615">
  <ele>-34.88</ele>
  <time>2026-09-01T01:13:34Z</time>
  <course>181.32</course>
  <speed>0.77</speed>
  <fix>3d</fix>
</trkpt>
<trkpt lat="33.8096647" lon="-118.3939617">
  <ele>-35.923</ele>
  <time>2026-09-01T01:13:34Z</time>
  <course>181.01</course>
  <speed>0.7505997601918082</speed>
  <fix>3d</fix>
</trkpt>
<trkpt lat="33.8096653" lon="-118.3939615">
  <ele>-34.97</ele>
  <time>2026-09-01T01:13:34Z</time>
  <course>181.31</course>
  <speed>0.77</speed>
  <fix>3d</fix>
</trkpt>
<trkpt lat="33.809664" lon="-118.3939617">
  <ele>-35.968</ele>
  <time>2026-09-01T01:13:34Z</time>
  <course>181.01</course>
  <speed>0.7505997601918082</speed>
  <fix>3d</fix>
</trkpt>
<trkpt lat="33.8096653" lon="-118.3939615">
  <ele>-34.97</ele>
  <time>2026-09-01T01:13:34Z</time>
  <course>181.31</course>
  <speed>0.77</speed>
  <fix>3d</fix>
</trkpt>
<trkpt lat="33.8096633" lon="-118.3939617">
  <ele>-36.014</ele>
  <time>2026-09-01T01:13:34Z</time>
  <course>181.0</course>
  <speed>0.7505997601918082</speed>
  <fix>3d</fix>
</trkpt>
<trkpt lat="33.8096638" lon="-118.3939615">
  <ele>-35.05</ele>
  <time>2026-09-01T01:13:34Z</time>
  <course>181.3</course>
  <speed>0.77</speed>
  <fix>3d</fix>
</trkpt>
<trkpt lat="33.8096625" lon="-118.3939617">
  <ele>-36.06</ele>
  <time>2026-09-01T01:13:34Z</time>
  <course>181.0</course>
  <speed>0.7505997601918082</speed>
  <fix>3d</fix>
</trkpt>
<trkpt lat="33.8096638" lon="-118.3939615">
  <ele>-35.05</ele>
  <time>2026-09-01T01:13:34Z</time>
  <course>181.3</course>
  <speed>0.77</speed>
  <fix>3d</fix>
</trkpt>
<trkpt lat="33.8096618" lon="-118.3939617">
  <ele>-36.102</ele>
  <time>2026-09-01T01:13:34Z</time>
  <course>181.0</course>
  <speed>0.7505997601918082</speed>
  <fix>3d</fix>
</trkpt>
<trkpt lat="33.8096625" lon="-118.3939616">
  <ele>-35.14</ele>
  <time>2026-09-01T01:13:34Z</time>
  <course>181.29</course>
  <speed>0.77</speed>
  <fix>3d</fix>
</trkpt>
<trkpt lat="33.8096611" lon="-118.3939618">
  <ele>-36.143</ele>
  <time>2026-09-01T01:13:34Z</time>
  <course>181.0</course>
  <speed>0.7505997601918082</speed>
  <fix>3d</fix>
</trkpt>
<trkpt lat="33.8096625" lon="-118.3939616">
  <ele>-35.14</ele>
  <time>2026-09-01T01:13:34Z</time>
  <course>181.29</course>
  <speed>0.77</speed>
  <fix>3d</fix>
</trkpt>
<trkpt lat="33.8096605" lon="-118.3939618">
  <ele>-36.184</ele>
  <time>2026-09-01T01:13:34Z</time>
  <course>181.0</course>
  <speed>0.7505997601918082</speed>
  <fix>3d</fix>
</trkpt>
<trkpt lat="33.8096611" lon="-118.3939616">
  <ele>-35.22</ele>
  <time>2026-09-01T01:13:34Z</time>
  <course>181.28</course>
  <speed>0.77</speed>
  <fix>3d</fix>
</trkpt>
<trkpt lat="33.8096598" lon="-118.3939618">
  <ele>-36.222</ele>
  <time>2026-09-01T01:13:34Z</time>
  <course>180.99</course>
  <speed>0.7505997601918082</speed>
  <fix>3d</fix>
</trkpt>
<trkpt lat="33.8096611" lon="-118.3939616">
  <ele>-35.22</ele>
  <time>2026-09-01T01:13:34Z</time>
  <course>181.28</course>
  <speed>0.77</speed>
  <fix>3d</fix>
</trkpt>
<trkpt lat="33.8096591" lon="-118.3939618">
  <ele>-36.256</ele>
  <time>2026-09-01T01:13:34Z</time>
  <course>180.99</course>
  <speed>0.7505997601918082</speed>
  <fix>3d</fix>
</trkpt>
<trkpt lat="33.8096597" lon="-118.3939617">
  <ele>-35.3</ele>
  <time>2026-09-01T01:13:34Z</time>
  <course>181.26</course>
  <speed>0.77</speed>
  <fix>3d</fix>
</trkpt>
<trkpt lat="33.8096584" lon="-118.3939618">
  <ele>-36.291</ele>
  <time>2026-09-01T01:13:34Z</time>
  <course>180.99</course>
  <speed>0.7505997601918082</speed>
  <fix>3d</fix>
</trkpt>
<trkpt lat="33.8096597" lon="-118.3939617">
  <ele>-35.3</ele>
  <time>2026-09-01T01:13:34Z</time>
  <course>181.26</course>
  <speed>0.77</speed>
  <fix>3d</fix>
</trkpt>
<trkpt lat="33.8096577" lon="-118.3939618">
  <ele>-36.327</ele>
  <time>2026-09-01T01:13:34Z</time>
  <course>180.99</course>
  <speed>0.7505997601918082</speed>
  <fix>3d</fix>
</trkpt>
<trkpt lat="33.8096583" lon="-118.3939617">
  <ele>-35.37</ele>
  <time>2026-09-01T01:13:34Z</time>
  <course>181.25</course>
  <speed>0.77</speed>
  <fix>3d</fix>
</trkpt>
<trkpt lat="33.809657" lon="-118.3939619">
  <ele>-36.363</ele>
  <time>2026-09-01T01:13:34Z</time>
  <course>180.99</course>
  <speed>0.7505997601918082</speed>
  <fix>3d</fix>
</trkpt>
<trkpt lat="33.8096583" lon="-118.3939617">
  <ele>-35.37</ele>
  <time>2026-09-01T01:13:34Z</time>
  <course>181.25</course>
  <speed>0.77</speed>
  <fix>3d</fix>
</trkpt>
<trkpt lat="33.8096563" lon="-118.3939619">
  <ele>-36.396</ele>
  <time>2026-09-01T01:13:34Z</time>
  <course>180.98</course>
  <speed>0.7505997601918082</speed>
  <fix>3d</fix>
</trkpt>
<trkpt lat="33.809657" lon="-118.3939617">
  <ele>-35.43</ele>
  <time>2026-09-01T01:13:34Z</time>
  <course>181.24</course>
  <speed>0.77</speed>
  <fix>3d</fix>
</trkpt>
<trkpt lat="33.8096556" lon="-118.3939619">
  <ele>-36.429</ele>
  <time>2026-09-01T01:13:34Z</time>
  <course>180.98</course>
  <speed>0.7505997601918082</speed>
  <fix>3d</fix>
</trkpt>
<trkpt lat="33.809657" lon="-118.3939617">
  <ele>-35.43</ele>
  <time>2026-09-01T01:13:34Z</time>
  <course>181.24</course>
  <speed>0.77</speed>
  <fix>3d</fix>
</trkpt>
<trkpt lat="33.8096549" lon="-118.3939619">
  <ele>-36.462</ele>
  <time>2026-09-01T01:13:34Z</time>
  <course>180.98</course>
  <speed>0.7505997601918082</speed>
  <fix>3d</fix>
</trkpt>
<trkpt lat="33.8096556" lon="-118.3939618">
  <ele>-35.5</ele>
  <time>2026-09-01T01:13:34Z</time>
  <course>181.23</course>
  <speed>0.77</speed>
  <fix>3d</fix>
</trkpt>
<trkpt lat="33.8096542" lon="-118.3939619">
  <ele>-36.495</ele>
  <time>2026-09-01T01:13:34Z</time>
  <course>180.98</course>
  <speed>0.7505997601918082</speed>
  <fix>3d</fix>
</trkpt>
<trkpt lat="33.8096556" lon="-118.3939618">
  <ele>-35.5</ele>
  <time>2026-09-01T01:13:34Z</time>
  <course>181.23</course>
  <speed>0.77</speed>
  <fix>3d</fix>
</trkpt>
<trkpt lat="33.8096535" lon="-118.393962">
  <ele>-36.531</ele>
  <time>2026-09-01T01:13:34Z</time>
  <course>180.98</course>
  <speed>0.7505997601918082</speed>
  <fix>3d</fix>
</trkpt>
<trkpt lat="33.8096542" lon="-118.3939618">
  <ele>-35.57</ele>
  <time>2026-09-01T01:13:34Z</time>
  <course>181.22</course>
  <speed>0.77</speed>
  <fix>3d</fix>
</trkpt>
<trkpt lat="33.8096528" lon="-118.393962">
  <ele>-36.569</ele>
  <time>2026-09-01T01:13:34Z</time>
  <course>180.97</course>
  <speed>0.7505997601918082</speed>
  <fix>3d</fix>
</trkpt>
<trkpt lat="33.8096542" lon="-118.3939618">
  <ele>-35.57</ele>
  <time>2026-09-01T01:13:34Z</time>
  <course>181.22</course>
  <speed>0.77</speed>
  <fix>3d</fix>
</trkpt>
<trkpt lat="33.8096521" lon="-118.393962">
  <ele>-36.607</ele>
  <time>2026-09-01T01:13:34Z</time>
  <course>180.97</course>
  <speed>0.7505997601918082</speed>
  <fix>3d</fix>
</trkpt>
<trkpt lat="33.8096527" lon="-118.3939618">
  <ele>-35.64</ele>
  <time>2026-09-01T01:13:34Z</time>
  <course>181.21</course>
  <speed>0.77</speed>
  <fix>3d</fix>
</trkpt>
<trkpt lat="33.8096514" lon="-118.393962">
  <ele>-36.648</ele>
  <time>2026-09-01T01:13:34Z</time>
  <course>180.97</course>
  <speed>0.7505997601918082</speed>
  <fix>3d</fix>
</trkpt>
<trkpt lat="33.8096527" lon="-118.3939618">
  <ele>-35.64</ele>
  <time>2026-09-01T01:13:34Z</time>
  <course>181.21</course>
  <speed>0.77</speed>
  <fix>3d</fix>
</trkpt>
<trkpt lat="33.8096507" lon="-118.393962">
  <ele>-36.693</ele>
  <time>2026-09-01T01:13:34Z</time>
  <course>180.97</course>
  <speed>0.7505997601918082</speed>
  <fix>3d</fix>
</trkpt>
<trkpt lat="33.8096514" lon="-118.3939619">
  <ele>-35.72</ele>
  <time>2026-09-01T01:13:34Z</time>
  <course>181.21</course>
  <speed>0.77</speed>
  <fix>3d</fix>
</trkpt>
<trkpt lat="33.80965" lon="-118.393962">
  <ele>-36.738</ele>
  <time>2026-09-01T01:13:34Z</time>
  <course>180.97</course>
  <speed>0.7505997601918082</speed>
  <fix>3d</fix>
</trkpt>
<trkpt lat="33.8096514" lon="-118.3939619">
  <ele>-35.72</ele>
  <time>2026-09-01T01:13:34Z</time>
  <course>181.21</course>
  <speed>0.77</speed>
  <fix>3d</fix>
</trkpt>
<trkpt lat="33.8096493" lon="-118.3939621">
  <ele>-36.782</ele>
  <time>2026-09-01T01:13:34Z</time>
  <course>180.96</course>
  <speed>0.7505997601918082</speed>
  <fix>3d</fix>
</trkpt>
<trkpt lat="33.80965" lon="-118.3939619">
  <ele>-35.8</ele>
  <time>2026-09-01T01:13:34Z</time>
  <course>181.2</course>
  <speed>0.77</speed>
  <fix>3d</fix>
</trkpt>
<trkpt lat="33.8096486" lon="-118.3939621">
  <ele>-36.823</ele>
  <time>2026-09-01T01:13:34Z</time>
  <course>180.96</course>
  <speed>0.7505997601918082</speed>
  <fix>3d</fix>
</trkpt>
<trkpt lat="33.80965" lon="-118.3939619">
  <ele>-35.8</ele>
  <time>2026-09-01T01:13:34Z</time>
  <course>181.2</course>
  <speed>0.77</speed>
  <fix>3d</fix>
</trkpt>
<trkpt lat="33.8096479" lon="-118.3939621">
  <ele>-36.865</ele>
  <time>2026-09-01T01:13:34Z</time>
  <course>180.96</course>
  <speed>0.7505997601918082</speed>
  <fix>3d</fix>
</trkpt>
<trkpt lat="33.8096486" lon="-118.3939619">
  <ele>-35.89</ele>
  <time>2026-09-01T01:13:34Z</time>
  <course>181.19</course>
  <speed>0.77</speed>
  <fix>3d</fix>
</trkpt>
<trkpt lat="33.8096472" lon="-118.3939621">
  <ele>-36.905</ele>
  <time>2026-09-01T01:13:34Z</time>
  <course>180.96</course>
  <speed>0.7505997601918082</speed>
  <fix>3d</fix>
</trkpt>
<trkpt lat="33.8096486" lon="-118.3939619">
  <ele>-35.89</ele>
  <time>2026-09-01T01:13:34Z</time>
  <course>181.19</course>
  <speed>0.77</speed>
  <fix>3d</fix>
</trkpt>
<trkpt lat="33.8096465" lon="-118.3939621">
  <ele>-36.946</ele>
  <time>2026-09-01T01:13:34Z</time>
  <course>180.96</course>
  <speed>0.7505997601918082</speed>
  <fix>3d</fix>
</trkpt>
<trkpt lat="33.8096472" lon="-118.3939619">
  <ele>-35.98</ele>
  <time>2026-09-01T01:13:34Z</time>
  <course>181.18</course>
  <speed>0.77</speed>
  <fix>3d</fix>
</trkpt>
<trkpt lat="33.8096458" lon="-118.3939621">
  <ele>-36.985</ele>
  <time>2026-09-01T01:13:34Z</time>
  <course>180.95</course>
  <speed>0.7505997601918082</speed>
  <fix>3d</fix>
</trkpt>
<trkpt lat="33.8096472" lon="-118.3939619">
  <ele>-35.98</ele>
  <time>2026-09-01T01:13:34Z</time>
  <course>181.18</course>
  <speed>0.77</speed>
  <fix>3d</fix>
</trkpt>
<trkpt lat="33.8096451" lon="-118.3939621">
  <ele>-37.025</ele>
  <time>2026-09-01T01:13:34Z</time>
  <course>180.95</course>
  <speed>0.7505997601918082</speed>
  <fix>3d</fix>
</trkpt>
<trkpt lat="33.8096458" lon="-118.393962">
  <ele>-36.05</ele>
  <time>2026-09-01T01:13:34Z</time>
  <course>181.17</course>
  <speed>0.77</speed>
  <fix>3d</fix>
</trkpt>
<trkpt lat="33.8096444" lon="-118.3939622">
  <ele>-37.066</ele>
  <time>2026-09-01T01:13:34Z</time>
  <course>180.95</course>
  <speed>0.7505997601918082</speed>
  <fix>3d</fix>
</trkpt>
<trkpt lat="33.8096458" lon="-118.393962">
  <ele>-36.05</ele>
  <time>2026-09-01T01:13:34Z</time>
  <course>181.17</course>
  <speed>0.77</speed>
  <fix>3d</fix>
</trkpt>
<trkpt lat="33.8096438" lon="-118.3939622">
  <ele>-37.107</ele>
  <time>2026-09-01T01:13:34Z</time>
  <course>180.95</course>
  <speed>0.7505997601918082</speed>
  <fix>3d</fix>
</trkpt>
<trkpt lat="33.8096443" lon="-118.3939621">
  <ele>-36.14</ele>
  <time>2026-09-01T01:13:34Z</time>
  <course>181.16</course>
  <speed>0.77</speed>
  <fix>3d</fix>
</trkpt>
<trkpt lat="33.809643" lon="-118.3939622">
  <ele>-37.148</ele>
  <time>2026-09-01T01:13:34Z</time>
  <course>180.95</course>
  <speed>0.7505997601918082</speed>
  <fix>3d</fix>
</trkpt>
<trkpt lat="33.8096443" lon="-118.3939621">
  <ele>-36.14</ele>
  <time>2026-09-01T01:13:34Z</time>
  <course>181.16</course>
  <speed>0.77</speed>
  <fix>3d</fix>
</trkpt>
<trkpt lat="33.8096424" lon="-118.3939622">
  <ele>-37.188</ele>
  <time>2026-09-01T01:13:34Z</time>
  <course>180.95</course>
  <speed>0.7505997601918082</speed>
  <fix>3d</fix>
</trkpt>
<trkpt lat="33.809643" lon="-118.3939621">
  <ele>-36.22</ele>
  <time>2026-09-01T01:13:34Z</time>
  <course>181.15</course>
  <speed>0.77</speed>
  <fix>3d</fix>
</trkpt>
<trkpt lat="33.8096417" lon="-118.3939622">
  <ele>-37.226</ele>
  <time>2026-09-01T01:13:34Z</time>
  <course>180.94</course>
  <speed>0.7505997601918082</speed>
  <fix>3d</fix>
</trkpt>
<trkpt lat="33.809643" lon="-118.3939621">
  <ele>-36.22</ele>
  <time>2026-09-01T01:13:34Z</time>
  <course>181.15</course>
  <speed>0.77</speed>
  <fix>3d</fix>
</trkpt>
<trkpt lat="33.8096409" lon="-118.3939622">
  <ele>-37.264</ele>
  <time>2026-09-01T01:13:34Z</time>
  <course>180.94</course>
  <speed>0.7505997601918082</speed>
  <fix>3d</fix>
</trkpt>
<trkpt lat="33.8096417" lon="-118.3939621">
  <ele>-36.29</ele>
  <time>2026-09-01T01:13:34Z</time>
  <course>181.15</course>
  <speed>0.77</speed>
  <fix>3d</fix>
</trkpt>
<trkpt lat="33.8096403" lon="-118.3939623">
  <ele>-37.302</ele>
  <time>2026-09-01T01:13:34Z</time>
  <course>180.94</course>
  <speed>0.7505997601918082</speed>
  <fix>3d</fix>
</trkpt>
<trkpt lat="33.8096417" lon="-118.3939621">
  <ele>-36.29</ele>
  <time>2026-09-01T01:13:34Z</time>
  <course>181.15</course>
  <speed>0.77</speed>
  <fix>3d</fix>
</trkpt>
<trkpt lat="33.8096396" lon="-118.3939623">
  <ele>-37.339</ele>
  <time>2026-09-01T01:13:34Z</time>
  <course>180.94</course>
  <speed>0.7505997601918082</speed>
  <fix>3d</fix>
</trkpt>
<trkpt lat="33.8096403" lon="-118.3939622">
  <ele>-36.36</ele>
  <time>2026-09-01T01:13:34Z</time>
  <course>181.14</course>
  <speed>0.77</speed>
  <fix>3d</fix>
</trkpt>
<trkpt lat="33.8096389" lon="-118.3939623">
  <ele>-37.378</ele>
  <time>2026-09-01T01:13:34Z</time>
  <course>180.94</course>
  <speed>0.7505997601918082</speed>
  <fix>3d</fix>
</trkpt>
<trkpt lat="33.8096403" lon="-118.3939622">
  <ele>-36.36</ele>
  <time>2026-09-01T01:13:34Z</time>
  <course>181.14</course>
  <speed>0.77</speed>
  <fix>3d</fix>
</trkpt>
<trkpt lat="33.8096382" lon="-118.3939623">
  <ele>-37.419</ele>
  <time>2026-09-01T01:13:34Z</time>
  <course>180.94</course>
  <speed>0.7505997601918082</speed>
  <fix>3d</fix>
</trkpt>
<trkpt lat="33.8096388" lon="-118.3939622">
  <ele>-36.44</ele>
  <time>2026-09-01T01:13:34Z</time>
  <course>181.13</course>
  <speed>0.77</speed>
  <fix>3d</fix>
</trkpt>
<trkpt lat="33.8096375" lon="-118.3939623">
  <ele>-37.46</ele>
  <time>2026-09-01T01:13:34Z</time>
  <course>180.93</course>
  <speed>0.7505997601918082</speed>
  <fix>3d</fix>
</trkpt>
<trkpt lat="33.8096388" lon="-118.3939622">
  <ele>-36.44</ele>
  <time>2026-09-01T01:13:34Z</time>
  <course>181.13</course>
  <speed>0.77</speed>
  <fix>3d</fix>
</trkpt>
<trkpt lat="33.8096368" lon="-118.3939624">
  <ele>-37.501</ele>
  <time>2026-09-01T01:13:34Z</time>
  <course>180.93</course>
  <speed>0.7505997601918082</speed>
  <fix>3d</fix>
</trkpt>
<trkpt lat="33.8096375" lon="-118.3939622">
  <ele>-36.52</ele>
  <time>2026-09-01T01:13:34Z</time>
  <course>181.12</course>
  <speed>0.77</speed>
  <fix>3d</fix>
</trkpt>
<trkpt lat="33.8096361" lon="-118.3939624">
  <ele>-37.542</ele>
  <time>2026-09-01T01:13:34Z</time>
  <course>180.93</course>
  <speed>0.7505997601918082</speed>
  <fix>3d</fix>
</trkpt>
<trkpt lat="33.8096375" lon="-118.3939622">
  <ele>-36.52</ele>
  <time>2026-09-01T01:13:34Z</time>
  <course>181.12</course>
  <speed>0.77</speed>
  <fix>3d</fix>
</trkpt>
<trkpt lat="33.8096354" lon="-118.3939624">
  <ele>-37.583</ele>
  <time>2026-09-01T01:13:34Z</time>
  <course>180.93</course>
  <speed>0.7505997601918082</speed>
  <fix>3d</fix>
</trkpt>
<trkpt lat="33.8096361" lon="-118.3939623">
  <ele>-36.6</ele>
  <time>2026-09-01T01:13:34Z</time>
  <course>181.12</course>
  <speed>0.77</speed>
  <fix>3d</fix>
</trkpt>
<trkpt lat="33.8096347" lon="-118.3939624">
  <ele>-37.623</ele>
  <time>2026-09-01T01:13:34Z</time>
  <course>180.93</course>
  <speed>0.7505997601918082</speed>
  <fix>3d</fix>
</trkpt>
<trkpt lat="33.8096361" lon="-118.3939623">
  <ele>-36.6</ele>
  <time>2026-09-01T01:13:34Z</time>
  <course>181.12</course>
  <speed>0.77</speed>
  <fix>3d</fix>
</trkpt>
<trkpt lat="33.809634" lon="-118.3939624">
  <ele>-37.662</ele>
  <time>2026-09-01T01:13:34Z</time>
  <course>180.93</course>
  <speed>0.7505997601918082</speed>
  <fix>3d</fix>
</trkpt>
<trkpt lat="33.8096346" lon="-118.3939623">
  <ele>-36.67</ele>
  <time>2026-09-01T01:13:34Z</time>
  <course>181.11</course>
  <speed>0.77</speed>
  <fix>3d</fix>
</trkpt>
<trkpt lat="33.8096333" lon="-118.3939624">
  <ele>-37.698</ele>
  <time>2026-09-01T01:13:34Z</time>
  <course>180.93</course>
  <speed>0.7505997601918082</speed>
  <fix>3d</fix>
</trkpt>
<trkpt lat="33.8096346" lon="-118.3939623">
  <ele>-36.67</ele>
  <time>2026-09-01T01:13:34Z</time>
  <course>181.11</course>
  <speed>0.77</speed>
  <fix>3d</fix>
</trkpt>
<trkpt lat="33.8096326" lon="-118.3939625">
  <ele>-37.732</ele>
  <time>2026-09-01T01:13:34Z</time>
  <course>180.93</course>
  <speed>0.7505997601918082</speed>
  <fix>3d</fix>
</trkpt>
<trkpt lat="33.8096333" lon="-118.3939623">
  <ele>-36.75</ele>
  <time>2026-09-01T01:13:34Z</time>
  <course>181.1</course>
  <speed>0.77</speed>
  <fix>3d</fix>
</trkpt>
<trkpt lat="33.8096319" lon="-118.3939625">
  <ele>-37.767</ele>
  <time>2026-09-01T01:13:34Z</time>
  <course>180.93</course>
  <speed>0.7505997601918082</speed>
  <fix>3d</fix>
</trkpt>
<trkpt lat="33.8096333" lon="-118.3939623">
  <ele>-36.75</ele>
  <time>2026-09-01T01:13:34Z</time>
  <course>181.1</course>
  <speed>0.77</speed>
  <fix>3d</fix>
</trkpt>
<trkpt lat="33.8096312" lon="-118.3939625">
  <ele>-37.802</ele>
  <time>2026-09-01T01:13:34Z</time>
  <course>180.92</course>
  <speed>0.7505997601918082</speed>
  <fix>3d</fix>
</trkpt>
<trkpt lat="33.8096319" lon="-118.3939624">
  <ele>-36.82</ele>
  <time>2026-09-01T01:13:34Z</time>
  <course>181.09</course>
  <speed>0.77</speed>
  <fix>3d</fix>
</trkpt>
<trkpt lat="33.8096305" lon="-118.3939625">
  <ele>-37.837</ele>
  <time>2026-09-01T01:13:34Z</time>
  <course>180.92</course>
  <speed>0.7505997601918082</speed>
  <fix>3d</fix>
</trkpt>
<trkpt lat="33.8096319" lon="-118.3939624">
  <ele>-36.82</ele>
  <time>2026-09-01T01:13:34Z</time>
  <course>181.09</course>
  <speed>0.77</speed>
  <fix>3d</fix>
</trkpt>
<trkpt lat="33.8096298" lon="-118.3939625">
  <ele>-37.871</ele>
  <time>2026-09-01T01:13:34Z</time>
  <course>180.92</course>
  <speed>0.7505997601918082</speed>
  <fix>3d</fix>
</trkpt>
<trkpt lat="33.8096305" lon="-118.3939624">
  <ele>-36.88</ele>
  <time>2026-09-01T01:13:34Z</time>
  <course>181.08</course>
  <speed>0.77</speed>
  <fix>3d</fix>
</trkpt>
<trkpt lat="33.8096291" lon="-118.3939625">
  <ele>-37.903</ele>
  <time>2026-09-01T01:13:34Z</time>
  <course>180.92</course>
  <speed>0.7505997601918082</speed>
  <fix>3d</fix>
</trkpt>
<trkpt lat="33.8096305" lon="-118.3939624">
  <ele>-36.88</ele>
  <time>2026-09-01T01:13:34Z</time>
  <course>181.08</course>
  <speed>0.77</speed>
  <fix>3d</fix>
</trkpt>
<trkpt lat="33.8096284" lon="-118.3939626">
  <ele>-37.934</ele>
  <time>2026-09-01T01:13:34Z</time>
  <course>180.92</course>
  <speed>0.7505997601918082</speed>
  <fix>3d</fix>
</trkpt>
<trkpt lat="33.809629" lon="-118.3939624">
  <ele>-36.95</ele>
  <time>2026-09-01T01:13:34Z</time>
  <course>181.07</course>
  <speed>0.77</speed>
  <fix>3d</fix>
</trkpt>
<trkpt lat="33.8096277" lon="-118.3939626">
  <ele>-37.966</ele>
  <time>2026-09-01T01:13:35Z</time>
  <course>180.92</course>
  <speed>0.7505997601918082</speed>
  <fix>3d</fix>
</trkpt>
<trkpt lat="33.809629" lon="-118.3939624">
  <ele>-36.95</ele>
  <time>2026-09-01T01:13:35Z</time>
  <course>181.07</course>
  <speed>0.77</speed>
  <fix>3d</fix>
</trkpt>
<trkpt lat="33.809627" lon="-118.3939626">
  <ele>-38.001</ele>
  <time>2026-09-01T01:13:35Z</time>
  <course>180.91</course>
  <speed>0.7505997601918082</speed>
  <fix>3d</fix>
</trkpt>
<trkpt lat="33.8096277" lon="-118.3939624">
  <ele>-37.02</ele>
  <time>2026-09-01T01:13:35Z</time>
  <course>181.06</course>
  <speed>0.77</speed>
  <fix>3d</fix>
</trkpt>
<trkpt lat="33.8096263" lon="-118.3939626">
  <ele>-38.036</ele>
  <time>2026-09-01T01:13:35Z</time>
  <course>180.91</course>
  <speed>0.7505997601918082</speed>
  <fix>3d</fix>
</trkpt>
<trkpt lat="33.8096277" lon="-118.3939624">
  <ele>-37.02</ele>
  <time>2026-09-01T01:13:35Z</time>
  <course>181.06</course>
  <speed>0.77</speed>
  <fix>3d</fix>
</trkpt>
<trkpt lat="33.8096256" lon="-118.3939626">
  <ele>-38.068</ele>
  <time>2026-09-01T01:13:35Z</time>
  <course>180.91</course>
  <speed>0.7505997601918082</speed>
  <fix>3d</fix>
</trkpt>
<trkpt lat="33.8096264" lon="-118.3939625">
  <ele>-37.08</ele>
  <time>2026-09-01T01:13:35Z</time>
  <course>181.06</course>
  <speed>0.77</speed>
  <fix>3d</fix>
</trkpt>
<trkpt lat="33.8096249" lon="-118.3939626">
  <ele>-38.095</ele>
  <time>2026-09-01T01:13:35Z</time>
  <course>180.91</course>
  <speed>0.7505997601918082</speed>
  <fix>3d</fix>
</trkpt>
<trkpt lat="33.8096264" lon="-118.3939625">
  <ele>-37.08</ele>
  <time>2026-09-01T01:13:35Z</time>
  <course>181.06</course>
  <speed>0.77</speed>
  <fix>3d</fix>
</trkpt>
<trkpt lat="33.8096242" lon="-118.3939627">
  <ele>-38.122</ele>
  <time>2026-09-01T01:13:35Z</time>
  <course>180.91</course>
  <speed>0.7505997601918082</speed>
  <fix>3d</fix>
</trkpt>
<trkpt lat="33.8096249" lon="-118.3939625">
  <ele>-37.14</ele>
  <time>2026-09-01T01:13:35Z</time>
  <course>181.05</course>
  <speed>0.77</speed>
  <fix>3d</fix>
</trkpt>
<trkpt lat="33.8096235" lon="-118.3939627">
  <ele>-38.15</ele>
  <time>2026-09-01T01:13:35Z</time>
  <course>180.91</course>
  <speed>0.7505997601918082</speed>
  <fix>3d</fix>
</trkpt>
<trkpt lat="33.8096249" lon="-118.3939625">
  <ele>-37.14</ele>
  <time>2026-09-01T01:13:35Z</time>
  <course>181.05</course>
  <speed>0.77</speed>
  <fix>3d</fix>
</trkpt>
<trkpt lat="33.8096228" lon="-118.3939627">
  <ele>-38.18</ele>
  <time>2026-09-01T01:13:35Z</time>
  <course>180.91</course>
  <speed>0.7505997601918082</speed>
  <fix>3d</fix>
</trkpt>
<trkpt lat="33.8096235" lon="-118.3939625">
  <ele>-37.19</ele>
  <time>2026-09-01T01:13:35Z</time>
  <course>181.04</course>
  <speed>0.77</speed>
  <fix>3d</fix>
</trkpt>
<trkpt lat="33.8096221" lon="-118.3939627">
  <ele>-38.212</ele>
  <time>2026-09-01T01:13:35Z</time>
  <course>180.91</course>
  <speed>0.7505997601918082</speed>
  <fix>3d</fix>
</trkpt>
<trkpt lat="33.8096235" lon="-118.3939625">
  <ele>-37.19</ele>
  <time>2026-09-01T01:13:35Z</time>
  <course>181.04</course>
  <speed>0.77</speed>
  <fix>3d</fix>
</trkpt>
<trkpt lat="33.8096214" lon="-118.3939627">
  <ele>-38.247</ele>
  <time>2026-09-01T01:13:35Z</time>
  <course>180.91</course>
  <speed>0.7505997601918082</speed>
  <fix>3d</fix>
</trkpt>
<trkpt lat="33.8096222" lon="-118.3939626">
  <ele>-37.26</ele>
  <time>2026-09-01T01:13:35Z</time>
  <course>181.03</course>
  <speed>0.77</speed>
  <fix>3d</fix>
</trkpt>
<trkpt lat="33.8096207" lon="-118.3939627">
  <ele>-38.284</ele>
  <time>2026-09-01T01:13:35Z</time>
  <course>180.9</course>
  <speed>0.7505997601918082</speed>
  <fix>3d</fix>
</trkpt>
<trkpt lat="33.8096222" lon="-118.3939626">
  <ele>-37.26</ele>
  <time>2026-09-01T01:13:35Z</time>
  <course>181.03</course>
  <speed>0.77</speed>
  <fix>3d</fix>
</trkpt>
<trkpt lat="33.8096201" lon="-118.3939627">
  <ele>-38.323</ele>
  <time>2026-09-01T01:13:35Z</time>
  <course>180.9</course>
  <speed>0.7505997601918082</speed>
  <fix>3d</fix>
</trkpt>
<trkpt lat="33.8096208" lon="-118.3939626">
  <ele>-37.33</ele>
  <time>2026-09-01T01:13:35Z</time>
  <course>181.03</course>
  <speed>0.77</speed>
  <fix>3d</fix>
</trkpt>
<trkpt lat="33.8096194" lon="-118.3939628">
  <ele>-38.363</ele>
  <time>2026-09-01T01:13:35Z</time>
  <course>180.9</course>
  <speed>0.7505997601918082</speed>
  <fix>3d</fix>
</trkpt>
<trkpt lat="33.8096208" lon="-118.3939626">
  <ele>-37.33</ele>
  <time>2026-09-01T01:13:35Z</time>
  <course>181.03</course>
  <speed>0.77</speed>
  <fix>3d</fix>
</trkpt>
<trkpt lat="33.8096187" lon="-118.3939628">
  <ele>-38.404</ele>
  <time>2026-09-01T01:13:35Z</time>
  <course>180.9</course>
  <speed>0.7505997601918082</speed>
  <fix>3d</fix>
</trkpt>
<trkpt lat="33.8096194" lon="-118.3939626">
  <ele>-37.4</ele>
  <time>2026-09-01T01:13:35Z</time>
  <course>181.03</course>
  <speed>0.77</speed>
  <fix>3d</fix>
</trkpt>
<trkpt lat="33.809618" lon="-118.3939628">
  <ele>-38.446</ele>
  <time>2026-09-01T01:13:35Z</time>
  <course>180.9</course>
  <speed>0.7505997601918082</speed>
  <fix>3d</fix>
</trkpt>
<trkpt lat="33.8096194" lon="-118.3939626">
  <ele>-37.4</ele>
  <time>2026-09-01T01:13:35Z</time>
  <course>181.03</course>
  <speed>0.77</speed>
  <fix>3d</fix>
</trkpt>
<trkpt lat="33.8096173" lon="-118.3939628">
  <ele>-38.488</ele>
  <time>2026-09-01T01:13:35Z</time>
  <course>180.9</course>
  <speed>0.7505997601918082</speed>
  <fix>3d</fix>
</trkpt>
<trkpt lat="33.809618" lon="-118.3939627">
  <ele>-37.48</ele>
  <time>2026-09-01T01:13:35Z</time>
  <course>181.02</course>
  <speed>0.77</speed>
  <fix>3d</fix>
</trkpt>
<trkpt lat="33.8096166" lon="-118.3939628">
  <ele>-38.532</ele>
  <time>2026-09-01T01:13:35Z</time>
  <course>180.9</course>
  <speed>0.7505997601918082</speed>
  <fix>3d</fix>
</trkpt>
<trkpt lat="33.809618" lon="-118.3939627">
  <ele>-37.48</ele>
  <time>2026-09-01T01:13:35Z</time>
  <course>181.02</course>
  <speed>0.77</speed>
  <fix>3d</fix>
</trkpt>
<trkpt lat="33.8096159" lon="-118.3939628">
  <ele>-38.58</ele>
  <time>2026-09-01T01:13:35Z</time>
  <course>180.9</course>
  <speed>0.7505997601918082</speed>
  <fix>3d</fix>
</trkpt>
<trkpt lat="33.8096166" lon="-118.3939627">
  <ele>-37.57</ele>
  <time>2026-09-01T01:13:35Z</time>
  <course>181.02</course>
  <speed>0.77</speed>
  <fix>3d</fix>
</trkpt>
<trkpt lat="33.8096152" lon="-118.3939628">
  <ele>-38.629</ele>
  <time>2026-09-01T01:13:35Z</time>
  <course>180.9</course>
  <speed>0.7505997601918082</speed>
  <fix>3d</fix>
</trkpt>
<trkpt lat="33.8096166" lon="-118.3939627">
  <ele>-37.57</ele>
  <time>2026-09-01T01:13:35Z</time>
  <course>181.02</course>
  <speed>0.77</speed>
  <fix>3d</fix>
</trkpt>
<trkpt lat="33.8096145" lon="-118.3939629">
  <ele>-38.679</ele>
  <time>2026-09-01T01:13:35Z</time>
  <course>180.89</course>
  <speed>0.7505997601918082</speed>
  <fix>3d</fix>
</trkpt>
<trkpt lat="33.8096151" lon="-118.3939627">
  <ele>-37.65</ele>
  <time>2026-09-01T01:13:35Z</time>
  <course>181.01</course>
  <speed>0.77</speed>
  <fix>3d</fix>
</trkpt>
<trkpt lat="33.8096138" lon="-118.3939629">
  <ele>-38.729</ele>
  <time>2026-09-01T01:13:35Z</time>
  <course>180.89</course>
  <speed>0.7505997601918082</speed>
  <fix>3d</fix>
</trkpt>
<trkpt lat="33.8096151" lon="-118.3939627">
  <ele>-37.65</ele>
  <time>2026-09-01T01:13:35Z</time>
  <course>181.01</course>
  <speed>0.77</speed>
  <fix>3d</fix>
</trkpt>
<trkpt lat="33.8096131" lon="-118.3939629">
  <ele>-38.779</ele>
  <time>2026-09-01T01:13:35Z</time>
  <course>180.89</course>
  <speed>0.7505997601918082</speed>
  <fix>3d</fix>
</trkpt>
<trkpt lat="33.8096137" lon="-118.3939628">
  <ele>-37.75</ele>
  <time>2026-09-01T01:13:35Z</time>
  <course>181.01</course>
  <speed>0.77</speed>
  <fix>3d</fix>
</trkpt>
<trkpt lat="33.8096124" lon="-118.3939629">
  <ele>-38.826</ele>
  <time>2026-09-01T01:13:35Z</time>
  <course>180.89</course>
  <speed>0.7505997601918082</speed>
  <fix>3d</fix>
</trkpt>
<trkpt lat="33.8096137" lon="-118.3939628">
  <ele>-37.75</ele>
  <time>2026-09-01T01:13:35Z</time>
  <course>181.01</course>
  <speed>0.77</speed>
  <fix>3d</fix>
</trkpt>
<trkpt lat="33.8096117" lon="-118.3939629">
  <ele>-38.87</ele>
  <time>2026-09-01T01:13:35Z</time>
  <course>180.89</course>
  <speed>0.7505997601918082</speed>
  <fix>3d</fix>
</trkpt>
<trkpt lat="33.8096124" lon="-118.3939628">
  <ele>-37.84</ele>
  <time>2026-09-01T01:13:35Z</time>
  <course>181.0</course>
  <speed>0.77</speed>
  <fix>3d</fix>
</trkpt>
<trkpt lat="33.809611" lon="-118.3939629">
  <ele>-38.913</ele>
  <time>2026-09-01T01:13:35Z</time>
  <course>180.89</course>
  <speed>0.7505997601918082</speed>
  <fix>3d</fix>
</trkpt>
<trkpt lat="33.8096124" lon="-118.3939628">
  <ele>-37.84</ele>
  <time>2026-09-01T01:13:35Z</time>
  <course>181.0</course>
  <speed>0.77</speed>
  <fix>3d</fix>
</trkpt>
<trkpt lat="33.8096103" lon="-118.393963">
  <ele>-38.954</ele>
  <time>2026-09-01T01:13:35Z</time>
  <course>180.89</course>
  <speed>0.7505997601918082</speed>
  <fix>3d</fix>
</trkpt>
<trkpt lat="33.809611" lon="-118.3939628">
  <ele>-37.93</ele>
  <time>2026-09-01T01:13:35Z</time>
  <course>180.99</course>
  <speed>0.77</speed>
  <fix>3d</fix>
</trkpt>
<trkpt lat="33.8096096" lon="-118.393963">
  <ele>-38.993</ele>
  <time>2026-09-01T01:13:35Z</time>
  <course>180.89</course>
  <speed>0.7505997601918082</speed>
  <fix>3d</fix>
</trkpt>
<trkpt lat="33.809611" lon="-118.3939628">
  <ele>-37.93</ele>
  <time>2026-09-01T01:13:35Z</time>
  <course>180.99</course>
  <speed>0.77</speed>
  <fix>3d</fix>
</trkpt>
<trkpt lat="33.8096089" lon="-118.393963">
  <ele>-39.031</ele>
  <time>2026-09-01T01:13:35Z</time>
  <course>180.89</course>
  <speed>0.7505997601918082</speed>
  <fix>3d</fix>
</trkpt>
<trkpt lat="33.8096096" lon="-118.3939628">
  <ele>-38.01</ele>
  <time>2026-09-01T01:13:35Z</time>
  <course>180.98</course>
  <speed>0.77</speed>
  <fix>3d</fix>
</trkpt>
<trkpt lat="33.8096082" lon="-118.393963">
  <ele>-39.068</ele>
  <time>2026-09-01T01:13:35Z</time>
  <course>180.88</course>
  <speed>0.7505997601918082</speed>
  <fix>3d</fix>
</trkpt>
<trkpt lat="33.8096096" lon="-118.3939628">
  <ele>-38.01</ele>
  <time>2026-09-01T01:13:35Z</time>
  <course>180.98</course>
  <speed>0.77</speed>
  <fix>3d</fix>
</trkpt>
<trkpt lat="33.8096075" lon="-118.393963">
  <ele>-39.104</ele>
  <time>2026-09-01T01:13:35Z</time>
  <course>180.88</course>
  <speed>0.7505997601918082</speed>
  <fix>3d</fix>
</trkpt>
<trkpt lat="33.8096083" lon="-118.3939629">
  <ele>-38.09</ele>
  <time>2026-09-01T01:13:35Z</time>
  <course>180.98</course>
  <speed>0.77</speed>
  <fix>3d</fix>
</trkpt>
<trkpt lat="33.8096068" lon="-118.393963">
  <ele>-39.139</ele>
  <time>2026-09-01T01:13:35Z</time>
  <course>180.88</course>
  <speed>0.7505997601918082</speed>
  <fix>3d</fix>
</trkpt>
<trkpt lat="33.8096083" lon="-118.3939629">
  <ele>-38.09</ele>
  <time>2026-09-01T01:13:35Z</time>
  <course>180.98</course>
  <speed>0.77</speed>
  <fix>3d</fix>
</trkpt>
<trkpt lat="33.8096062" lon="-118.393963">
  <ele>-39.175</ele>
  <time>2026-09-01T01:13:35Z</time>
  <course>180.88</course>
  <speed>0.7505997601918082</speed>
  <fix>3d</fix>
</trkpt>
<trkpt lat="33.8096069" lon="-118.3939629">
  <ele>-38.16</ele>
  <time>2026-09-01T01:13:35Z</time>
  <course>180.97</course>
  <speed>0.77</speed>
  <fix>3d</fix>
</trkpt>
<trkpt lat="33.8096055" lon="-118.3939631">
  <ele>-39.21</ele>
  <time>2026-09-01T01:13:35Z</time>
  <course>180.88</course>
  <speed>0.7505997601918082</speed>
  <fix>3d</fix>
</trkpt>
<trkpt lat="33.8096069" lon="-118.3939629">
  <ele>-38.16</ele>
  <time>2026-09-01T01:13:35Z</time>
  <course>180.97</course>
  <speed>0.77</speed>
  <fix>3d</fix>
</trkpt>
<trkpt lat="33.8096048" lon="-118.3939631">
  <ele>-39.244</ele>
  <time>2026-09-01T01:13:35Z</time>
  <course>180.88</course>
  <speed>0.7505997601918082</speed>
  <fix>3d</fix>
</trkpt>
<trkpt lat="33.8096054" lon="-118.3939629">
  <ele>-38.23</ele>
  <time>2026-09-01T01:13:35Z</time>
  <course>180.96</course>
  <speed>0.77</speed>
  <fix>3d</fix>
</trkpt>
<trkpt lat="33.8096041" lon="-118.3939631">
  <ele>-39.277</ele>
  <time>2026-09-01T01:13:35Z</time>
  <course>180.88</course>
  <speed>0.7505997601918082</speed>
  <fix>3d</fix>
</trkpt>
<trkpt lat="33.8096054" lon="-118.3939629">
  <ele>-38.23</ele>
  <time>2026-09-01T01:13:35Z</time>
  <course>180.96</course>
  <speed>0.77</speed>
  <fix>3d</fix>
</trkpt>
<trkpt lat="33.8096034" lon="-118.3939631">
  <ele>-39.31</ele>
  <time>2026-09-01T01:13:35Z</time>
  <course>180.87</course>
  <speed>0.7505997601918082</speed>
  <fix>3d</fix>
</trkpt>
<trkpt lat="33.8096041" lon="-118.393963">
  <ele>-38.29</ele>
  <time>2026-09-01T01:13:35Z</time>
  <course>180.95</course>
  <speed>0.77</speed>
  <fix>3d</fix>
</trkpt>
<trkpt lat="33.8096027" lon="-118.3939631">
  <ele>-39.343</ele>
  <time>2026-09-01T01:13:35Z</time>
  <course>180.88</course>
  <speed>0.7505997601918082</speed>
  <fix>3d</fix>
</trkpt>
<trkpt lat="33.8096041" lon="-118.393963">
  <ele>-38.29</ele>
  <time>2026-09-01T01:13:35Z</time>
  <course>180.95</course>
  <speed>0.77</speed>
  <fix>3d</fix>
</trkpt>
<trkpt lat="33.809602" lon="-118.3939631">
  <ele>-39.378</ele>
  <time>2026-09-01T01:13:35Z</time>
  <course>180.88</course>
  <speed>0.7505997601918082</speed>
  <fix>3d</fix>
</trkpt>
<trkpt lat="33.8096027" lon="-118.393963">
  <ele>-38.35</ele>
  <time>2026-09-01T01:13:35Z</time>
  <course>180.95</course>
  <speed>0.77</speed>
  <fix>3d</fix>
</trkpt>
<trkpt lat="33.8096013" lon="-118.3939631">
  <ele>-39.414</ele>
  <time>2026-09-01T01:13:35Z</time>
  <course>180.87</course>
  <speed>0.7505997601918082</speed>
  <fix>3d</fix>
</trkpt>
<trkpt lat="33.8096027" lon="-118.393963">
  <ele>-38.35</ele>
  <time>2026-09-01T01:13:35Z</time>
  <course>180.95</course>
  <speed>0.77</speed>
  <fix>3d</fix>
</trkpt>
<trkpt lat="33.8096006" lon="-118.3939632">
  <ele>-39.448</ele>
  <time>2026-09-01T01:13:35Z</time>
  <course>180.87</course>
  <speed>0.7505997601918082</speed>
  <fix>3d</fix>
</trkpt>
<trkpt lat="33.8096013" lon="-118.393963">
  <ele>-38.42</ele>
  <time>2026-09-01T01:13:35Z</time>
  <course>180.94</course>
  <speed>0.77</speed>
  <fix>3d</fix>
</trkpt>
<trkpt lat="33.8095999" lon="-118.3939632">
  <ele>-39.483</ele>
  <time>2026-09-01T01:13:35Z</time>
  <course>180.87</course>
  <speed>0.7505997601918082</speed>
  <fix>3d</fix>
</trkpt>
<trkpt lat="33.8096013" lon="-118.393963">
  <ele>-38.42</ele>
  <time>2026-09-01T01:13:35Z</time>
  <course>180.94</course>
  <speed>0.77</speed>
  <fix>3d</fix>
</trkpt>
<trkpt lat="33.8095993" lon="-118.3939632">
  <ele>-39.52</ele>
  <time>2026-09-01T01:13:35Z</time>
  <course>180.87</course>
  <speed>0.7505997601918082</speed>
  <fix>3d</fix>
</trkpt>
<trkpt lat="33.8095998" lon="-118.393963">
  <ele>-38.48</ele>
  <time>2026-09-01T01:13:35Z</time>
  <course>180.94</course>
  <speed>0.77</speed>
  <fix>3d</fix>
</trkpt>
<trkpt lat="33.8095986" lon="-118.3939632">
  <ele>-39.561</ele>
  <time>2026-09-01T01:13:35Z</time>
  <course>180.87</course>
  <speed>0.7505997601918082</speed>
  <fix>3d</fix>
</trkpt>
<trkpt lat="33.8095998" lon="-118.393963">
  <ele>-38.48</ele>
  <time>2026-09-01T01:13:35Z</time>
  <course>180.94</course>
  <speed>0.77</speed>
  <fix>3d</fix>
</trkpt>
<trkpt lat="33.8095979" lon="-118.3939632">
  <ele>-39.603</ele>
  <time>2026-09-01T01:13:35Z</time>
  <course>180.87</course>
  <speed>0.7505997601918082</speed>
  <fix>3d</fix>
</trkpt>
<trkpt lat="33.8095985" lon="-118.3939631">
  <ele>-38.55</ele>
  <time>2026-09-01T01:13:35Z</time>
  <course>180.94</course>
  <speed>0.77</speed>
  <fix>3d</fix>
</trkpt>
<trkpt lat="33.8095972" lon="-118.3939632">
  <ele>-39.646</ele>
  <time>2026-09-01T01:13:35Z</time>
  <course>180.87</course>
  <speed>0.7505997601918082</speed>
  <fix>3d</fix>
</trkpt>
<trkpt lat="33.8095985" lon="-118.3939631">
  <ele>-38.55</ele>
  <time>2026-09-01T01:13:35Z</time>
  <course>180.94</course>
  <speed>0.77</speed>
  <fix>3d</fix>
</trkpt>
<trkpt lat="33.8095965" lon="-118.3939632">
  <ele>-39.689</ele>
  <time>2026-09-01T01:13:35Z</time>
  <course>180.87</course>
  <speed>0.7505997601918082</speed>
  <fix>3d</fix>
</trkpt>
<trkpt lat="33.8095971" lon="-118.3939631">
  <ele>-38.64</ele>
  <time>2026-09-01T01:13:35Z</time>
  <course>180.93</course>
  <speed>0.77</speed>
  <fix>3d</fix>
</trkpt>
<trkpt lat="33.8095958" lon="-118.3939632">
  <ele>-39.73</ele>
  <time>2026-09-01T01:13:35Z</time>
  <course>180.87</course>
  <speed>0.7505997601918082</speed>
  <fix>3d</fix>
</trkpt>
<trkpt lat="33.8095971" lon="-118.3939631">
  <ele>-38.64</ele>
  <time>2026-09-01T01:13:35Z</time>
  <course>180.93</course>
  <speed>0.77</speed>
  <fix>3d</fix>
</trkpt>
<trkpt lat="33.8095951" lon="-118.3939633">
  <ele>-39.771</ele>
  <time>2026-09-01T01:13:35Z</time>
  <course>180.87</course>
  <speed>0.7505997601918082</speed>
  <fix>3d</fix>
</trkpt>
<trkpt lat="33.8095957" lon="-118.3939631">
  <ele>-38.72</ele>
  <time>2026-09-01T01:13:35Z</time>
  <course>180.93</course>
  <speed>0.77</speed>
  <fix>3d</fix>
</trkpt>
<trkpt lat="33.8095944" lon="-118.3939633">
  <ele>-39.812</ele>
  <time>2026-09-01T01:13:35Z</time>
  <course>180.86</course>
  <speed>0.7505997601918082</speed>
  <fix>3d</fix>
</trkpt>
<trkpt lat="33.8095957" lon="-118.3939631">
  <ele>-38.72</ele>
  <time>2026-09-01T01:13:35Z</time>
  <course>180.93</course>
  <speed>0.77</speed>
  <fix>3d</fix>
</trkpt>
<trkpt lat="33.8095937" lon="-118.3939633">
  <ele>-39.853</ele>
  <time>2026-09-01T01:13:35Z</time>
  <course>180.86</course>
  <speed>0.7505997601918082</speed>
  <fix>3d</fix>
</trkpt>
<trkpt lat="33.8095943" lon="-118.3939631">
  <ele>-38.8</ele>
  <time>2026-09-01T01:13:35Z</time>
  <course>180.92</course>
  <speed>0.77</speed>
  <fix>3d</fix>
</trkpt>
<trkpt lat="33.809593" lon="-118.3939633">
  <ele>-39.893</ele>
  <time>2026-09-01T01:13:35Z</time>
  <course>180.86</course>
  <speed>0.7502666192761077</speed>
  <fix>3d</fix>
</trkpt>
<trkpt lat="33.8095943" lon="-118.3939631">
  <ele>-38.8</ele>
  <time>2026-09-01T01:13:35Z</time>
  <course>180.92</course>
  <speed>0.77</speed>
  <fix>3d</fix>
</trkpt>
<trkpt lat="33.8095923" lon="-118.3939633">
  <ele>-39.932</ele>
  <time>2026-09-01T01:13:35Z</time>
  <course>180.86</course>
  <speed>0.7502666192761077</speed>
  <fix>3d</fix>
</trkpt>
<trkpt lat="33.809593" lon="-118.3939632">
  <ele>-38.87</ele>
  <time>2026-09-01T01:13:35Z</time>
  <course>180.92</course>
  <speed>0.77</speed>
  <fix>3d</fix>
</trkpt>
<trkpt lat="33.8095916" lon="-118.3939633">
  <ele>-39.971</ele>
  <time>2026-09-01T01:13:35Z</time>
  <course>180.86</course>
  <speed>0.7502666192761077</speed>
  <fix>3d</fix>
</trkpt>
<trkpt lat="33.809593" lon="-118.3939632">
  <ele>-38.87</ele>
  <time>2026-09-01T01:13:35Z</time>
  <course>180.92</course>
  <speed>0.77</speed>
  <fix>3d</fix>
</trkpt>
<trkpt lat="33.8095909" lon="-118.3939633">
  <ele>-40.01</ele>
  <time>2026-09-01T01:13:35Z</time>
  <course>180.86</course>
  <speed>0.7502666192761077</speed>
  <fix>3d</fix>
</trkpt>
<trkpt lat="33.8095916" lon="-118.3939632">
  <ele>-38.95</ele>
  <time>2026-09-01T01:13:35Z</time>
  <course>180.91</course>
  <speed>0.77</speed>
  <fix>3d</fix>
</trkpt>
<trkpt lat="33.8095902" lon="-118.3939633">
  <ele>-40.05</ele>
  <time>2026-09-01T01:13:35Z</time>
  <course>180.86</course>
  <speed>0.7402702209328699</speed>
  <fix>3d</fix>
</trkpt>
<trkpt lat="33.8095916" lon="-118.3939632">
  <ele>-38.95</ele>
  <time>2026-09-01T01:13:35Z</time>
  <course>180.91</course>
  <speed>0.77</speed>
  <fix>3d</fix>
</trkpt>
<trkpt lat="33.8095895" lon="-118.3939634">
  <ele>-40.089</ele>
  <time>2026-09-01T01:13:35Z</time>
  <course>180.86</course>
  <speed>0.7402702209328699</speed>
  <fix>3d</fix>
</trkpt>
<trkpt lat="33.8095902" lon="-118.3939632">
  <ele>-39.03</ele>
  <time>2026-09-01T01:13:35Z</time>
  <course>180.91</course>
  <speed>0.77</speed>
  <fix>3d</fix>
</trkpt>
<trkpt lat="33.8095888" lon="-118.3939634">
  <ele>-40.131</ele>
  <time>2026-09-01T01:13:35Z</time>
  <course>180.86</course>
  <speed>0.7402702209328699</speed>
  <fix>3d</fix>
</trkpt>
<trkpt lat="33.8095902" lon="-118.3939632">
  <ele>-39.03</ele>
  <time>2026-09-01T01:13:35Z</time>
  <course>180.91</course>
  <speed>0.77</speed>
  <fix>3d</fix>
</trkpt>
<trkpt lat="33.8095882" lon="-118.3939634">
  <ele>-40.175</ele>
  <time>2026-09-01T01:13:35Z</time>
  <course>180.86</course>
  <speed>0.7402702209328699</speed>
  <fix>3d</fix>
</trkpt>
<trkpt lat="33.8095888" lon="-118.3939633">
  <ele>-39.11</ele>
  <time>2026-09-01T01:13:35Z</time>
  <course>180.9</course>
  <speed>0.77</speed>
  <fix>3d</fix>
</trkpt>
<trkpt lat="33.8095875" lon="-118.3939634">
  <ele>-40.219</ele>
  <time>2026-09-01T01:13:35Z</time>
  <course>180.86</course>
  <speed>0.7402702209328699</speed>
  <fix>3d</fix>
</trkpt>
<trkpt lat="33.8095888" lon="-118.3939633">
  <ele>-39.11</ele>
  <time>2026-09-01T01:13:35Z</time>
  <course>180.9</course>
  <speed>0.77</speed>
  <fix>3d</fix>
</trkpt>
<trkpt lat="33.8095868" lon="-118.3939634">
  <ele>-40.264</ele>
  <time>2026-09-01T01:13:35Z</time>
  <course>180.86</course>
  <speed>0.7402702209328699</speed>
  <fix>3d</fix>
</trkpt>
<trkpt lat="33.8095874" lon="-118.3939633">
  <ele>-39.19</ele>
  <time>2026-09-01T01:13:35Z</time>
  <course>180.9</course>
  <speed>0.77</speed>
  <fix>3d</fix>
</trkpt>
<trkpt lat="33.8095861" lon="-118.3939634">
  <ele>-40.309</ele>
  <time>2026-09-01T01:13:35Z</time>
  <course>180.86</course>
  <speed>0.7402702209328699</speed>
  <fix>3d</fix>
</trkpt>
<trkpt lat="33.8095874" lon="-118.3939633">
  <ele>-39.19</ele>
  <time>2026-09-01T01:13:35Z</time>
  <course>180.9</course>
  <speed>0.77</speed>
  <fix>3d</fix>
</trkpt>
<trkpt lat="33.8095854" lon="-118.3939634">
  <ele>-40.353</ele>
  <time>2026-09-01T01:13:35Z</time>
  <course>180.86</course>
  <speed>0.7402702209328699</speed>
  <fix>3d</fix>
</trkpt>
<trkpt lat="33.8095859" lon="-118.3939633">
  <ele>-39.28</ele>
  <time>2026-09-01T01:13:35Z</time>
  <course>180.9</course>
  <speed>0.77</speed>
  <fix>3d</fix>
</trkpt>
<trkpt lat="33.8095847" lon="-118.3939635">
  <ele>-40.395</ele>
  <time>2026-09-01T01:13:35Z</time>
  <course>180.86</course>
  <speed>0.7402702209328699</speed>
  <fix>3d</fix>
</trkpt>
<trkpt lat="33.8095859" lon="-118.3939633">
  <ele>-39.28</ele>
  <time>2026-09-01T01:13:35Z</time>
  <course>180.9</course>
  <speed>0.77</speed>
  <fix>3d</fix>
</trkpt>
<trkpt lat="33.809584" lon="-118.3939635">
  <ele>-40.435</ele>
  <time>2026-09-01T01:13:35Z</time>
  <course>180.85</course>
  <speed>0.7402702209328699</speed>
  <fix>3d</fix>
</trkpt>
<trkpt lat="33.8095846" lon="-118.3939633">
  <ele>-39.37</ele>
  <time>2026-09-01T01:13:35Z</time>
  <course>180.89</course>
  <speed>0.77</speed>
  <fix>3d</fix>
</trkpt>
<trkpt lat="33.8095833" lon="-118.3939635">
  <ele>-40.474</ele>
  <time>2026-09-01T01:13:35Z</time>
  <course>180.85</course>
  <speed>0.7502666192761077</speed>
  <fix>3d</fix>
</trkpt>
<trkpt lat="33.8095846" lon="-118.3939633">
  <ele>-39.37</ele>
  <time>2026-09-01T01:13:35Z</time>
  <course>180.89</course>
  <speed>0.77</speed>
  <fix>3d</fix>
</trkpt>
<trkpt lat="33.8095826" lon="-118.3939635">
  <ele>-40.514</ele>
  <time>2026-09-01T01:13:35Z</time>
  <course>180.85</course>
  <speed>0.7502666192761077</speed>
  <fix>3d</fix>
</trkpt>
<trkpt lat="33.8095832" lon="-118.3939634">
  <ele>-39.45</ele>
  <time>2026-09-01T01:13:35Z</time>
  <course>180.88</course>
  <speed>0.77</speed>
  <fix>3d</fix>
</trkpt>
<trkpt lat="33.8095819" lon="-118.3939635">
  <ele>-40.555</ele>
  <time>2026-09-01T01:13:35Z</time>
  <course>180.85</course>
  <speed>0.7502666192761077</speed>
  <fix>3d</fix>
</trkpt>
<trkpt lat="33.8095832" lon="-118.3939634">
  <ele>-39.45</ele>
  <time>2026-09-01T01:13:35Z</time>
  <course>180.88</course>
  <speed>0.77</speed>
  <fix>3d</fix>
</trkpt>
<trkpt lat="33.8095812" lon="-118.3939635">
  <ele>-40.597</ele>
  <time>2026-09-01T01:13:35Z</time>
  <course>180.85</course>
  <speed>0.7502666192761077</speed>
  <fix>3d</fix>
</trkpt>
<trkpt lat="33.8095817" lon="-118.3939634">
  <ele>-39.53</ele>
  <time>2026-09-01T01:13:35Z</time>
  <course>180.88</course>
  <speed>0.77</speed>
  <fix>3d</fix>
</trkpt>
<trkpt lat="33.8095805" lon="-118.3939635">
  <ele>-40.64</ele>
  <time>2026-09-01T01:13:35Z</time>
  <course>180.85</course>
  <speed>0.7502666192761077</speed>
  <fix>3d</fix>
</trkpt>
<trkpt lat="33.8095817" lon="-118.3939634">
  <ele>-39.53</ele>
  <time>2026-09-01T01:13:35Z</time>
  <course>180.88</course>
  <speed>0.77</speed>
  <fix>3d</fix>
</trkpt>
<trkpt lat="33.8095798" lon="-118.3939636">
  <ele>-40.682</ele>
  <time>2026-09-01T01:13:35Z</time>
  <course>180.85</course>
  <speed>0.7502666192761077</speed>
  <fix>3d</fix>
</trkpt>
<trkpt lat="33.8095804" lon="-118.3939634">
  <ele>-39.61</ele>
  <time>2026-09-01T01:13:35Z</time>
  <course>180.87</course>
  <speed>0.77</speed>
  <fix>3d</fix>
</trkpt>
<trkpt lat="33.8095791" lon="-118.3939636">
  <ele>-40.721</ele>
  <time>2026-09-01T01:13:35Z</time>
  <course>180.85</course>
  <speed>0.7502666192761077</speed>
  <fix>3d</fix>
</trkpt>
<trkpt lat="33.8095804" lon="-118.3939634">
  <ele>-39.61</ele>
  <time>2026-09-01T01:13:35Z</time>
  <course>180.87</course>
  <speed>0.77</speed>
  <fix>3d</fix>
</trkpt>
<trkpt lat="33.8095784" lon="-118.3939636">
  <ele>-40.758</ele>
  <time>2026-09-01T01:13:35Z</time>
  <course>180.85</course>
  <speed>0.7502666192761077</speed>
  <fix>3d</fix>
</trkpt>
<trkpt lat="33.8095791" lon="-118.3939634">
  <ele>-39.69</ele>
  <time>2026-09-01T01:13:35Z</time>
  <course>180.87</course>
  <speed>0.77</speed>
  <fix>3d</fix>
</trkpt>
<trkpt lat="33.8095777" lon="-118.3939636">
  <ele>-40.795</ele>
  <time>2026-09-01T01:13:35Z</time>
  <course>180.85</course>
  <speed>0.7502666192761077</speed>
  <fix>3d</fix>
</trkpt>
<trkpt lat="33.8095791" lon="-118.3939634">
  <ele>-39.69</ele>
  <time>2026-09-01T01:13:35Z</time>
  <course>180.87</course>
  <speed>0.77</speed>
  <fix>3d</fix>
</trkpt>
<trkpt lat="33.809577" lon="-118.3939636">
  <ele>-40.833</ele>
  <time>2026-09-01T01:13:35Z</time>
  <course>180.85</course>
  <speed>0.7502666192761077</speed>
  <fix>3d</fix>
</trkpt>
<trkpt lat="33.8095777" lon="-118.3939635">
  <ele>-39.77</ele>
  <time>2026-09-01T01:13:35Z</time>
  <course>180.86</course>
  <speed>0.77</speed>
  <fix>3d</fix>
</trkpt>
<trkpt lat="33.8095763" lon="-118.3939636">
  <ele>-40.871</ele>
  <time>2026-09-01T01:13:35Z</time>
  <course>180.85</course>
  <speed>0.7502666192761077</speed>
  <fix>3d</fix>
</trkpt>
<trkpt lat="33.8095777" lon="-118.3939635">
  <ele>-39.77</ele>
  <time>2026-09-01T01:13:35Z</time>
  <course>180.86</course>
  <speed>0.77</speed>
  <fix>3d</fix>
</trkpt>
<trkpt lat="33.8095756" lon="-118.3939636">
  <ele>-40.91</ele>
  <time>2026-09-01T01:13:35Z</time>
  <course>180.84</course>
  <speed>0.7502666192761077</speed>
  <fix>3d</fix>
</trkpt>
<trkpt lat="33.8095762" lon="-118.3939635">
  <ele>-39.84</ele>
  <time>2026-09-01T01:13:35Z</time>
  <course>180.86</course>
  <speed>0.77</speed>
  <fix>3d</fix>
</trkpt>
<trkpt lat="33.8095749" lon="-118.3939636">
  <ele>-40.948</ele>
  <time>2026-09-01T01:13:35Z</time>
  <course>180.84</course>
  <speed>0.7502666192761077</speed>
  <fix>3d</fix>
</trkpt>
<trkpt lat="33.8095762" lon="-118.3939635">
  <ele>-39.84</ele>
  <time>2026-09-01T01:13:35Z</time>
  <course>180.86</course>
  <speed>0.77</speed>
  <fix>3d</fix>
</trkpt>
<trkpt lat="33.8095742" lon="-118.3939637">
  <ele>-40.985</ele>
  <time>2026-09-01T01:13:35Z</time>
  <course>180.84</course>
  <speed>0.7502666192761077</speed>
  <fix>3d</fix>
</trkpt>
<trkpt lat="33.8095749" lon="-118.3939635">
  <ele>-39.92</ele>
  <time>2026-09-01T01:13:35Z</time>
  <course>180.86</course>
  <speed>0.77</speed>
  <fix>3d</fix>
</trkpt>
<trkpt lat="33.8095735" lon="-118.3939637">
  <ele>-41.021</ele>
  <time>2026-09-01T01:13:35Z</time>
  <course>180.84</course>
  <speed>0.7502666192761077</speed>
  <fix>3d</fix>
</trkpt>
<trkpt lat="33.8095749" lon="-118.3939635">
  <ele>-39.92</ele>
  <time>2026-09-01T01:13:35Z</time>
  <course>180.86</course>
  <speed>0.77</speed>
  <fix>3d</fix>
</trkpt>
<trkpt lat="33.8095728" lon="-118.3939637">
  <ele>-41.057</ele>
  <time>2026-09-01T01:13:35Z</time>
  <course>180.84</course>
  <speed>0.7502666192761077</speed>
  <fix>3d</fix>
</trkpt>
<trkpt lat="33.8095735" lon="-118.3939635">
  <ele>-39.99</ele>
  <time>2026-09-01T01:13:35Z</time>
  <course>180.85</course>
  <speed>0.77</speed>
  <fix>3d</fix>
</trkpt>
<trkpt lat="33.8095721" lon="-118.3939637">
  <ele>-41.093</ele>
  <time>2026-09-01T01:13:35Z</time>
  <course>180.84</course>
  <speed>0.7502666192761077</speed>
  <fix>3d</fix>
</trkpt>
<trkpt lat="33.8095735" lon="-118.3939635">
  <ele>-39.99</ele>
  <time>2026-09-01T01:13:35Z</time>
  <course>180.85</course>
  <speed>0.77</speed>
  <fix>3d</fix>
</trkpt>
<trkpt lat="33.8095714" lon="-118.3939637">
  <ele>-41.129</ele>
  <time>2026-09-01T01:13:35Z</time>
  <course>180.84</course>
  <speed>0.7502666192761077</speed>
  <fix>3d</fix>
</trkpt>
<trkpt lat="33.809572" lon="-118.3939636">
  <ele>-40.06</ele>
  <time>2026-09-01T01:13:35Z</time>
  <course>180.84</course>
  <speed>0.77</speed>
  <fix>3d</fix>
</trkpt>
<trkpt lat="33.8095707" lon="-118.3939637">
  <ele>-41.165</ele>
  <time>2026-09-01T01:13:35Z</time>
  <course>180.84</course>
  <speed>0.7502666192761077</speed>
  <fix>3d</fix>
</trkpt>
<trkpt lat="33.809572" lon="-118.3939636">
  <ele>-40.06</ele>
  <time>2026-09-01T01:13:35Z</time>
  <course>180.84</course>
  <speed>0.77</speed>
  <fix>3d</fix>
</trkpt>
<trkpt lat="33.80957" lon="-118.3939637">
  <ele>-41.202</ele>
  <time>2026-09-01T01:13:35Z</time>
  <course>180.84</course>
  <speed>0.7502666192761077</speed>
  <fix>3d</fix>
</trkpt>
<trkpt lat="33.8095706" lon="-118.3939636">
  <ele>-40.14</ele>
  <time>2026-09-01T01:13:35Z</time>
  <course>180.84</course>
  <speed>0.77</speed>
  <fix>3d</fix>
</trkpt>
<trkpt lat="33.8095693" lon="-118.3939637">
  <ele>-41.241</ele>
  <time>2026-09-01T01:13:35Z</time>
  <course>180.84</course>
  <speed>0.7502666192761077</speed>
  <fix>3d</fix>
</trkpt>
<trkpt lat="33.8095706" lon="-118.3939636">
  <ele>-40.14</ele>
  <time>2026-09-01T01:13:35Z</time>
  <course>180.84</course>
  <speed>0.77</speed>
  <fix>3d</fix>
</trkpt>
<trkpt lat="33.8095686" lon="-118.3939638">
  <ele>-41.281</ele>
  <time>2026-09-01T01:13:35Z</time>
  <course>180.84</course>
  <speed>0.7502666192761077</speed>
  <fix>3d</fix>
</trkpt>
<trkpt lat="33.8095693" lon="-118.3939636">
  <ele>-40.21</ele>
  <time>2026-09-01T01:13:35Z</time>
  <course>180.84</course>
  <speed>0.77</speed>
  <fix>3d</fix>
</trkpt>
<trkpt lat="33.8095679" lon="-118.3939638">
  <ele>-41.319</ele>
  <time>2026-09-01T01:13:35Z</time>
  <course>180.84</course>
  <speed>0.7502666192761077</speed>
  <fix>3d</fix>
</trkpt>
<trkpt lat="33.8095693" lon="-118.3939636">
  <ele>-40.21</ele>
  <time>2026-09-01T01:13:35Z</time>
  <course>180.84</course>
  <speed>0.77</speed>
  <fix>3d</fix>
</trkpt>
<trkpt lat="33.8095672" lon="-118.3939638">
  <ele>-41.356</ele>
  <time>2026-09-01T01:13:35Z</time>
  <course>180.84</course>
  <speed>0.7502666192761077</speed>
  <fix>3d</fix>
</trkpt>
<trkpt lat="33.8095679" lon="-118.3939636">
  <ele>-40.29</ele>
  <time>2026-09-01T01:13:35Z</time>
  <course>180.83</course>
  <speed>0.77</speed>
  <fix>3d</fix>
</trkpt>
<trkpt lat="33.8095665" lon="-118.3939638">
  <ele>-41.392</ele>
  <time>2026-09-01T01:13:35Z</time>
  <course>180.84</course>
  <speed>0.7502666192761077</speed>
  <fix>3d</fix>
</trkpt>
<trkpt lat="33.8095679" lon="-118.3939636">
  <ele>-40.29</ele>
  <time>2026-09-01T01:13:35Z</time>
  <course>180.83</course>
  <speed>0.77</speed>
  <fix>3d</fix>
</trkpt>
<trkpt lat="33.8095658" lon="-118.3939638">
  <ele>-41.429</ele>
  <time>2026-09-01T01:13:35Z</time>
  <course>180.84</course>
  <speed>0.7502666192761077</speed>
  <fix>3d</fix>
</trkpt>
<trkpt lat="33.8095665" lon="-118.3939637">
  <ele>-40.36</ele>
  <time>2026-09-01T01:13:35Z</time>
  <course>180.83</course>
  <speed>0.77</speed>
  <fix>3d</fix>
</trkpt>
<trkpt lat="33.8095651" lon="-118.3939638">
  <ele>-41.466</ele>
  <time>2026-09-01T01:13:35Z</time>
  <course>180.84</course>
  <speed>0.7502666192761077</speed>
  <fix>3d</fix>
</trkpt>
<trkpt lat="33.8095665" lon="-118.3939637">
  <ele>-40.36</ele>
  <time>2026-09-01T01:13:35Z</time>
  <course>180.83</course>
  <speed>0.77</speed>
  <fix>3d</fix>
</trkpt>
<trkpt lat="33.8095645" lon="-118.3939638">
  <ele>-41.502</ele>
  <time>2026-09-01T01:13:35Z</time>
  <course>180.84</course>
  <speed>0.7502666192761077</speed>
  <fix>3d</fix>
</trkpt>
<trkpt lat="33.8095651" lon="-118.3939637">
  <ele>-40.43</ele>
  <time>2026-09-01T01:13:35Z</time>
  <course>180.82</course>
  <speed>0.77</speed>
  <fix>3d</fix>
</trkpt>
<trkpt lat="33.8095638" lon="-118.3939638">
  <ele>-41.537</ele>
  <time>2026-09-01T01:13:35Z</time>
  <course>180.84</course>
  <speed>0.7502666192761077</speed>
  <fix>3d</fix>
</trkpt>
<trkpt lat="33.8095651" lon="-118.3939637">
  <ele>-40.43</ele>
  <time>2026-09-01T01:13:35Z</time>
  <course>180.82</course>
  <speed>0.77</speed>
  <fix>3d</fix>
</trkpt>
<trkpt lat="33.8095631" lon="-118.3939639">
  <ele>-41.572</ele>
  <time>2026-09-01T01:13:35Z</time>
  <course>180.84</course>
  <speed>0.7502666192761077</speed>
  <fix>3d</fix>
</trkpt>
<trkpt lat="33.8095637" lon="-118.3939637">
  <ele>-40.5</ele>
  <time>2026-09-01T01:13:35Z</time>
  <course>180.82</course>
  <speed>0.77</speed>
  <fix>3d</fix>
</trkpt>
<trkpt lat="33.8095624" lon="-118.3939639">
  <ele>-41.604</ele>
  <time>2026-09-01T01:13:35Z</time>
  <course>180.83</course>
  <speed>0.7502666192761077</speed>
  <fix>3d</fix>
</trkpt>
<trkpt lat="33.8095637" lon="-118.3939637">
  <ele>-40.5</ele>
  <time>2026-09-01T01:13:35Z</time>
  <course>180.82</course>
  <speed>0.77</speed>
  <fix>3d</fix>
</trkpt>
<trkpt lat="33.8095617" lon="-118.3939639">
  <ele>-41.635</ele>
  <time>2026-09-01T01:13:35Z</time>
  <course>180.83</course>
  <speed>0.7502666192761077</speed>
  <fix>3d</fix>
</trkpt>
<trkpt lat="33.8095624" lon="-118.3939637">
  <ele>-40.57</ele>
  <time>2026-09-01T01:13:35Z</time>
  <course>180.81</course>
  <speed>0.77</speed>
  <fix>3d</fix>
</trkpt>
<trkpt lat="33.809561" lon="-118.3939639">
  <ele>-41.666</ele>
  <time>2026-09-01T01:13:35Z</time>
  <course>180.83</course>
  <speed>0.7502666192761077</speed>
  <fix>3d</fix>
</trkpt>
<trkpt lat="33.8095624" lon="-118.3939637">
  <ele>-40.57</ele>
  <time>2026-09-01T01:13:35Z</time>
  <course>180.81</course>
  <speed>0.77</speed>
  <fix>3d</fix>
</trkpt>
<trkpt lat="33.8095603" lon="-118.3939639">
  <ele>-41.698</ele>
  <time>2026-09-01T01:13:35Z</time>
  <course>180.83</course>
  <speed>0.7502666192761077</speed>
  <fix>3d</fix>
</trkpt>
<trkpt lat="33.809561" lon="-118.3939638">
  <ele>-40.64</ele>
  <time>2026-09-01T01:13:35Z</time>
  <course>180.81</course>
  <speed>0.77</speed>
  <fix>3d</fix>
</trkpt>
<trkpt lat="33.8095596" lon="-118.3939639">
  <ele>-41.73</ele>
  <time>2026-09-01T01:13:35Z</time>
  <course>180.83</course>
  <speed>0.7502666192761077</speed>
  <fix>3d</fix>
</trkpt>
<trkpt lat="33.809561" lon="-118.3939638">
  <ele>-40.64</ele>
  <time>2026-09-01T01:13:35Z</time>
  <course>180.81</course>
  <speed>0.77</speed>
  <fix>3d</fix>
</trkpt>
<trkpt lat="33.8095589" lon="-118.3939639">
  <ele>-41.761</ele>
  <time>2026-09-01T01:13:35Z</time>
  <course>180.83</course>
  <speed>0.7502666192761077</speed>
  <fix>3d</fix>
</trkpt>
<trkpt lat="33.8095596" lon="-118.3939638">
  <ele>-40.69</ele>
  <time>2026-09-01T01:13:35Z</time>
  <course>180.8</course>
  <speed>0.77</speed>
  <fix>3d</fix>
</trkpt>
<trkpt lat="33.8095582" lon="-118.3939639">
  <ele>-41.794</ele>
  <time>2026-09-01T01:13:35Z</time>
  <course>180.83</course>
  <speed>0.7502666192761077</speed>
  <fix>3d</fix>
</trkpt>
<trkpt lat="33.8095596" lon="-118.3939638">
  <ele>-40.69</ele>
  <time>2026-09-01T01:13:35Z</time>
  <course>180.8</course>
  <speed>0.77</speed>
  <fix>3d</fix>
</trkpt>
<trkpt lat="33.8095575" lon="-118.3939639">
  <ele>-41.831</ele>
  <time>2026-09-01T01:13:35Z</time>
  <course>180.83</course>
  <speed>0.7502666192761077</speed>
  <fix>3d</fix>
</trkpt>
<trkpt lat="33.8095582" lon="-118.3939638">
  <ele>-40.76</ele>
  <time>2026-09-01T01:13:35Z</time>
  <course>180.8</course>
  <speed>0.77</speed>
  <fix>3d</fix>
</trkpt>
<trkpt lat="33.8095568" lon="-118.393964">
  <ele>-41.87</ele>
  <time>2026-09-01T01:13:35Z</time>
  <course>180.83</course>
  <speed>0.7502666192761077</speed>
  <fix>3d</fix>
</trkpt>
<trkpt lat="33.8095582" lon="-118.3939638">
  <ele>-40.76</ele>
  <time>2026-09-01T01:13:35Z</time>
  <course>180.8</course>
  <speed>0.77</speed>
  <fix>3d</fix>
</trkpt>
<trkpt lat="33.8095561" lon="-118.393964">
  <ele>-41.912</ele>
  <time>2026-09-01T01:13:35Z</time>
  <course>180.83</course>
  <speed>0.7502666192761077</speed>
  <fix>3d</fix>
</trkpt>
<trkpt lat="33.8095567" lon="-118.3939638">
  <ele>-40.83</ele>
  <time>2026-09-01T01:13:35Z</time>
  <course>180.8</course>
  <speed>0.77</speed>
  <fix>3d</fix>
</trkpt>
<trkpt lat="33.8095554" lon="-118.393964">
  <ele>-41.954</ele>
  <time>2026-09-01T01:13:35Z</time>
  <course>180.83</course>
  <speed>0.7502666192761077</speed>
  <fix>3d</fix>
</trkpt>
<trkpt lat="33.8095567" lon="-118.3939638">
  <ele>-40.83</ele>
  <time>2026-09-01T01:13:35Z</time>
  <course>180.8</course>
  <speed>0.77</speed>
  <fix>3d</fix>
</trkpt>
<trkpt lat="33.8095547" lon="-118.393964">
  <ele>-41.995</ele>
  <time>2026-09-01T01:13:35Z</time>
  <course>180.83</course>
  <speed>0.7502666192761077</speed>
  <fix>3d</fix>
</trkpt>
<trkpt lat="33.8095554" lon="-118.3939639">
  <ele>-40.91</ele>
  <time>2026-09-01T01:13:35Z</time>
  <course>180.8</course>
  <speed>0.77</speed>
  <fix>3d</fix>
</trkpt>
<trkpt lat="33.809554" lon="-118.393964">
  <ele>-42.037</ele>
  <time>2026-09-01T01:13:35Z</time>
  <course>180.83</course>
  <speed>0.7502666192761077</speed>
  <fix>3d</fix>
</trkpt>
<trkpt lat="33.8095554" lon="-118.3939639">
  <ele>-40.91</ele>
  <time>2026-09-01T01:13:35Z</time>
  <course>180.8</course>
  <speed>0.77</speed>
  <fix>3d</fix>
</trkpt>
<trkpt lat="33.8095533" lon="-118.393964">
  <ele>-42.079</ele>
  <time>2026-09-01T01:13:35Z</time>
  <course>180.83</course>
  <speed>0.7502666192761077</speed>
  <fix>3d</fix>
</trkpt>
<trkpt lat="33.809554" lon="-118.3939639">
  <ele>-40.98</ele>
  <time>2026-09-01T01:13:35Z</time>
  <course>180.8</course>
  <speed>0.77</speed>
  <fix>3d</fix>
</trkpt>
<trkpt lat="33.8095526" lon="-118.393964">
  <ele>-42.121</ele>
  <time>2026-09-01T01:13:35Z</time>
  <course>180.83</course>
  <speed>0.7502666192761077</speed>
  <fix>3d</fix>
</trkpt>
<trkpt lat="33.809554" lon="-118.3939639">
  <ele>-40.98</ele>
  <time>2026-09-01T01:13:35Z</time>
  <course>180.8</course>
  <speed>0.77</speed>
  <fix>3d</fix>
</trkpt>
<trkpt lat="33.8095519" lon="-118.393964">
  <ele>-42.164</ele>
  <time>2026-09-01T01:13:35Z</time>
  <course>180.83</course>
  <speed>0.7502666192761077</speed>
  <fix>3d</fix>
</trkpt>
<trkpt lat="33.8095525" lon="-118.3939639">
  <ele>-41.07</ele>
  <time>2026-09-01T01:13:35Z</time>
  <course>180.79</course>
  <speed>0.77</speed>
  <fix>3d</fix>
</trkpt>
<trkpt lat="33.8095512" lon="-118.3939641">
  <ele>-42.207</ele>
  <time>2026-09-01T01:13:35Z</time>
  <course>180.83</course>
  <speed>0.7502666192761077</speed>
  <fix>3d</fix>
</trkpt>
<trkpt lat="33.8095525" lon="-118.3939639">
  <ele>-41.07</ele>
  <time>2026-09-01T01:13:35Z</time>
  <course>180.79</course>
  <speed>0.77</speed>
  <fix>3d</fix>
</trkpt>
<trkpt lat="33.8095505" lon="-118.3939641">
  <ele>-42.252</ele>
  <time>2026-09-01T01:13:35Z</time>
  <course>180.83</course>
  <speed>0.7502666192761077</speed>
  <fix>3d</fix>
</trkpt>
<trkpt lat="33.8095512" lon="-118.3939639">
  <ele>-41.16</ele>
  <time>2026-09-01T01:13:35Z</time>
  <course>180.79</course>
  <speed>0.77</speed>
  <fix>3d</fix>
</trkpt>
<trkpt lat="33.8095498" lon="-118.3939641">
  <ele>-42.295</ele>
  <time>2026-09-01T01:13:35Z</time>
  <course>180.83</course>
  <speed>0.7502666192761077</speed>
  <fix>3d</fix>
</trkpt>
<trkpt lat="33.8095512" lon="-118.3939639">
  <ele>-41.16</ele>
  <time>2026-09-01T01:13:35Z</time>
  <course>180.79</course>
  <speed>0.77</speed>
  <fix>3d</fix>
</trkpt>
<trkpt lat="33.8095491" lon="-118.3939641">
  <ele>-42.336</ele>
  <time>2026-09-01T01:13:35Z</time>
  <course>180.82</course>
  <speed>0.7502666192761077</speed>
  <fix>3d</fix>
</trkpt>
<trkpt lat="33.8095498" lon="-118.3939639">
  <ele>-41.23</ele>
  <time>2026-09-01T01:13:35Z</time>
  <course>180.79</course>
  <speed>0.77</speed>
  <fix>3d</fix>
</trkpt>
<trkpt lat="33.8095484" lon="-118.3939641">
  <ele>-42.377</ele>
  <time>2026-09-01T01:13:35Z</time>
  <course>180.83</course>
  <speed>0.7502666192761077</speed>
  <fix>3d</fix>
</trkpt>
<trkpt lat="33.8095498" lon="-118.3939639">
  <ele>-41.23</ele>
  <time>2026-09-01T01:13:35Z</time>
  <course>180.79</course>
  <speed>0.77</speed>
  <fix>3d</fix>
</trkpt>
<trkpt lat="33.8095477" lon="-118.3939641">
  <ele>-42.418</ele>
  <time>2026-09-01T01:13:35Z</time>
  <course>180.82</course>
  <speed>0.7502666192761077</speed>
  <fix>3d</fix>
</trkpt>
<trkpt lat="33.8095484" lon="-118.393964">
  <ele>-41.32</ele>
  <time>2026-09-01T01:13:35Z</time>
  <course>180.78</course>
  <speed>0.77</speed>
  <fix>3d</fix>
</trkpt>
<trkpt lat="33.809547" lon="-118.3939641">
  <ele>-42.459</ele>
  <time>2026-09-01T01:13:35Z</time>
  <course>180.82</course>
  <speed>0.7502666192761077</speed>
  <fix>3d</fix>
</trkpt>
<trkpt lat="33.8095484" lon="-118.393964">
  <ele>-41.32</ele>
  <time>2026-09-01T01:13:35Z</time>
  <course>180.78</course>
  <speed>0.77</speed>
  <fix>3d</fix>
</trkpt>
<trkpt lat="33.8095463" lon="-118.3939641">
  <ele>-42.499</ele>
  <time>2026-09-01T01:13:35Z</time>
  <course>180.83</course>
  <speed>0.7502666192761077</speed>
  <fix>3d</fix>
</trkpt>
<trkpt lat="33.809547" lon="-118.393964">
  <ele>-41.4</ele>
  <time>2026-09-01T01:13:35Z</time>
  <course>180.78</course>
  <speed>0.77</speed>
  <fix>3d</fix>
</trkpt>
<trkpt lat="33.8095456" lon="-118.3939641">
  <ele>-42.538</ele>
  <time>2026-09-01T01:13:35Z</time>
  <course>180.82</course>
  <speed>0.7502666192761077</speed>
  <fix>3d</fix>
</trkpt>
<trkpt lat="33.809547" lon="-118.393964">
  <ele>-41.4</ele>
  <time>2026-09-01T01:13:35Z</time>
  <course>180.78</course>
  <speed>0.77</speed>
  <fix>3d</fix>
</trkpt>
<trkpt lat="33.8095449" lon="-118.3939642">
  <ele>-42.577</ele>
  <time>2026-09-01T01:13:35Z</time>
  <course>180.82</course>
  <speed>0.7502666192761077</speed>
  <fix>3d</fix>
</trkpt>
<trkpt lat="33.8095457" lon="-118.393964">
  <ele>-41.47</ele>
  <time>2026-09-01T01:13:35Z</time>
  <course>180.77</course>
  <speed>0.77</speed>
  <fix>3d</fix>
</trkpt>
<trkpt lat="33.8095442" lon="-118.3939642">
  <ele>-42.615</ele>
  <time>2026-09-01T01:13:35Z</time>
  <course>180.82</course>
  <speed>0.7502666192761077</speed>
  <fix>3d</fix>
</trkpt>
<trkpt lat="33.8095457" lon="-118.393964">
  <ele>-41.47</ele>
  <time>2026-09-01T01:13:35Z</time>
  <course>180.77</course>
  <speed>0.77</speed>
  <fix>3d</fix>
</trkpt>
<trkpt lat="33.8095436" lon="-118.3939642">
  <ele>-42.652</ele>
  <time>2026-09-01T01:13:35Z</time>
  <course>180.82</course>
  <speed>0.7502666192761077</speed>
  <fix>3d</fix>
</trkpt>
<trkpt lat="33.8095443" lon="-118.393964">
  <ele>-41.55</ele>
  <time>2026-09-01T01:13:35Z</time>
  <course>180.77</course>
  <speed>0.77</speed>
  <fix>3d</fix>
</trkpt>
<trkpt lat="33.8095429" lon="-118.3939642">
  <ele>-42.69</ele>
  <time>2026-09-01T01:13:35Z</time>
  <course>180.82</course>
  <speed>0.7502666192761077</speed>
  <fix>3d</fix>
</trkpt>
<trkpt lat="33.8095443" lon="-118.393964">
  <ele>-41.55</ele>
  <time>2026-09-01T01:13:35Z</time>
  <course>180.77</course>
  <speed>0.77</speed>
  <fix>3d</fix>
</trkpt>
<trkpt lat="33.8095422" lon="-118.3939642">
  <ele>-42.73</ele>
  <time>2026-09-01T01:13:35Z</time>
  <course>180.82</course>
  <speed>0.7502666192761077</speed>
  <fix>3d</fix>
</trkpt>
<trkpt lat="33.8095428" lon="-118.3939641">
  <ele>-41.62</ele>
  <time>2026-09-01T01:13:35Z</time>
  <course>180.77</course>
  <speed>0.77</speed>
  <fix>3d</fix>
</trkpt>
<trkpt lat="33.8095415" lon="-118.3939642">
  <ele>-42.772</ele>
  <time>2026-09-01T01:13:35Z</time>
  <course>180.82</course>
  <speed>0.7502666192761077</speed>
  <fix>3d</fix>
</trkpt>
<trkpt lat="33.8095428" lon="-118.3939641">
  <ele>-41.62</ele>
  <time>2026-09-01T01:13:35Z</time>
  <course>180.77</course>
  <speed>0.77</speed>
  <fix>3d</fix>
</trkpt>
<trkpt lat="33.8095408" lon="-118.3939642">
  <ele>-42.814</ele>
  <time>2026-09-01T01:13:35Z</time>
  <course>180.82</course>
  <speed>0.7502666192761077</speed>
  <fix>3d</fix>
</trkpt>
<trkpt lat="33.8095414" lon="-118.3939641">
  <ele>-41.7</ele>
  <time>2026-09-01T01:13:35Z</time>
  <course>180.77</course>
  <speed>0.77</speed>
  <fix>3d</fix>
</trkpt>
<trkpt lat="33.8095401" lon="-118.3939642">
  <ele>-42.857</ele>
  <time>2026-09-01T01:13:35Z</time>
  <course>180.82</course>
  <speed>0.7502666192761077</speed>
  <fix>3d</fix>
</trkpt>
<trkpt lat="33.8095414" lon="-118.3939641">
  <ele>-41.7</ele>
  <time>2026-09-01T01:13:35Z</time>
  <course>180.77</course>
  <speed>0.77</speed>
  <fix>3d</fix>
</trkpt>
<trkpt lat="33.8095394" lon="-118.3939642">
  <ele>-42.899</ele>
  <time>2026-09-01T01:13:35Z</time>
  <course>180.82</course>
  <speed>0.7502666192761077</speed>
  <fix>3d</fix>
</trkpt>
<trkpt lat="33.8095401" lon="-118.3939641">
  <ele>-41.78</ele>
  <time>2026-09-01T01:13:35Z</time>
  <course>180.77</course>
  <speed>0.77</speed>
  <fix>3d</fix>
</trkpt>
<trkpt lat="33.8095387" lon="-118.3939643">
  <ele>-42.94</ele>
  <time>2026-09-01T01:13:35Z</time>
  <course>180.82</course>
  <speed>0.7502666192761077</speed>
  <fix>3d</fix>
</trkpt>
<trkpt lat="33.8095401" lon="-118.3939641">
  <ele>-41.78</ele>
  <time>2026-09-01T01:13:35Z</time>
  <course>180.77</course>
  <speed>0.77</speed>
  <fix>3d</fix>
</trkpt>
<trkpt lat="33.809538" lon="-118.3939643">
  <ele>-42.98</ele>
  <time>2026-09-01T01:13:35Z</time>
  <course>180.82</course>
  <speed>0.7502666192761077</speed>
  <fix>3d</fix>
</trkpt>
<trkpt lat="33.8095387" lon="-118.3939641">
  <ele>-41.86</ele>
  <time>2026-09-01T01:13:35Z</time>
  <course>180.76</course>
  <speed>0.77</speed>
  <fix>3d</fix>
</trkpt>
<trkpt lat="33.8095373" lon="-118.3939643">
  <ele>-43.021</ele>
  <time>2026-09-01T01:13:35Z</time>
  <course>180.82</course>
  <speed>0.7502666192761077</speed>
  <fix>3d</fix>
</trkpt>
<trkpt lat="33.8095387" lon="-118.3939641">
  <ele>-41.86</ele>
  <time>2026-09-01T01:13:35Z</time>
  <course>180.76</course>
  <speed>0.77</speed>
  <fix>3d</fix>
</trkpt>
<trkpt lat="33.8095366" lon="-118.3939643">
  <ele>-43.061</ele>
  <time>2026-09-01T01:13:35Z</time>
  <course>180.82</course>
  <speed>0.7502666192761077</speed>
  <fix>3d</fix>
</trkpt>
<trkpt lat="33.8095373" lon="-118.3939642">
  <ele>-41.94</ele>
  <time>2026-09-01T01:13:35Z</time>
  <course>180.76</course>
  <speed>0.77</speed>
  <fix>3d</fix>
</trkpt>
<trkpt lat="33.8095359" lon="-118.3939643">
  <ele>-43.1</ele>
  <time>2026-09-01T01:13:35Z</time>
  <course>180.82</course>
  <speed>0.7502666192761077</speed>
  <fix>3d</fix>
</trkpt>
<trkpt lat="33.8095373" lon="-118.3939642">
  <ele>-41.94</ele>
  <time>2026-09-01T01:13:35Z</time>
  <course>180.76</course>
  <speed>0.77</speed>
  <fix>3d</fix>
</trkpt>
<trkpt lat="33.8095352" lon="-118.3939643">
  <ele>-43.137</ele>
  <time>2026-09-01T01:13:35Z</time>
  <course>180.82</course>
  <speed>0.7502666192761077</speed>
  <fix>3d</fix>
</trkpt>
<trkpt lat="33.8095359" lon="-118.3939642">
  <ele>-42.02</ele>
  <time>2026-09-01T01:13:35Z</time>
  <course>180.75</course>
  <speed>0.77</speed>
  <fix>3d</fix>
</trkpt>
<trkpt lat="33.8095345" lon="-118.3939643">
  <ele>-43.175</ele>
  <time>2026-09-01T01:13:35Z</time>
  <course>180.82</course>
  <speed>0.7502666192761077</speed>
  <fix>3d</fix>
</trkpt>
<trkpt lat="33.8095359" lon="-118.3939642">
  <ele>-42.02</ele>
  <time>2026-09-01T01:13:35Z</time>
  <course>180.75</course>
  <speed>0.77</speed>
  <fix>3d</fix>
</trkpt>
<trkpt lat="33.8095338" lon="-118.3939643">
  <ele>-43.214</ele>
  <time>2026-09-01T01:13:35Z</time>
  <course>180.82</course>
  <speed>0.7502666192761077</speed>
  <fix>3d</fix>
</trkpt>
<trkpt lat="33.8095345" lon="-118.3939642">
  <ele>-42.09</ele>
  <time>2026-09-01T01:13:35Z</time>
  <course>180.75</course>
  <speed>0.77</speed>
  <fix>3d</fix>
</trkpt>
<trkpt lat="33.8095331" lon="-118.3939644">
  <ele>-43.252</ele>
  <time>2026-09-01T01:13:35Z</time>
  <course>180.82</course>
  <speed>0.7502666192761077</speed>
  <fix>3d</fix>
</trkpt>
<trkpt lat="33.8095345" lon="-118.3939642">
  <ele>-42.09</ele>
  <time>2026-09-01T01:13:35Z</time>
  <course>180.75</course>
  <speed>0.77</speed>
  <fix>3d</fix>
</trkpt>
<trkpt lat="33.8095324" lon="-118.3939644">
  <ele>-43.29</ele>
  <time>2026-09-01T01:13:35Z</time>
  <course>180.82</course>
  <speed>0.7502666192761077</speed>
  <fix>3d</fix>
</trkpt>
<trkpt lat="33.809533" lon="-118.3939642">
  <ele>-42.16</ele>
  <time>2026-09-01T01:13:35Z</time>
  <course>180.75</course>
  <speed>0.77</speed>
  <fix>3d</fix>
</trkpt>
<trkpt lat="33.8095317" lon="-118.3939644">
  <ele>-43.327</ele>
  <time>2026-09-01T01:13:35Z</time>
  <course>180.82</course>
  <speed>0.7502666192761077</speed>
  <fix>3d</fix>
</trkpt>
<trkpt lat="33.809533" lon="-118.3939642">
  <ele>-42.16</ele>
  <time>2026-09-01T01:13:35Z</time>
  <course>180.75</course>
  <speed>0.77</speed>
  <fix>3d</fix>
</trkpt>
<trkpt lat="33.809531" lon="-118.3939644">
  <ele>-43.364</ele>
  <time>2026-09-01T01:13:35Z</time>
  <course>180.82</course>
  <speed>0.7502666192761077</speed>
  <fix>3d</fix>
</trkpt>
<trkpt lat="33.8095317" lon="-118.3939642">
  <ele>-42.23</ele>
  <time>2026-09-01T01:13:35Z</time>
  <course>180.74</course>
  <speed>0.77</speed>
  <fix>3d</fix>
</trkpt>
<trkpt lat="33.8095303" lon="-118.3939644">
  <ele>-43.402</ele>
  <time>2026-09-01T01:13:35Z</time>
  <course>180.82</course>
  <speed>0.7502666192761077</speed>
  <fix>3d</fix>
</trkpt>
<trkpt lat="33.8095317" lon="-118.3939642">
  <ele>-42.23</ele>
  <time>2026-09-01T01:13:35Z</time>
  <course>180.74</course>
  <speed>0.77</speed>
  <fix>3d</fix>
</trkpt>
<trkpt lat="33.8095296" lon="-118.3939644">
  <ele>-43.439</ele>
  <time>2026-09-01T01:13:35Z</time>
  <course>180.81</course>
  <speed>0.7502666192761077</speed>
  <fix>3d</fix>
</trkpt>
<trkpt lat="33.8095304" lon="-118.3939643">
  <ele>-42.31</ele>
  <time>2026-09-01T01:13:35Z</time>
  <course>180.74</course>
  <speed>0.77</speed>
  <fix>3d</fix>
</trkpt>
<trkpt lat="33.8095289" lon="-118.3939644">
  <ele>-43.477</ele>
  <time>2026-09-01T01:13:35Z</time>
  <course>180.81</course>
  <speed>0.7502666192761077</speed>
  <fix>3d</fix>
</trkpt>
<trkpt lat="33.8095304" lon="-118.3939643">
  <ele>-42.31</ele>
  <time>2026-09-01T01:13:35Z</time>
  <course>180.74</course>
  <speed>0.77</speed>
  <fix>3d</fix>
</trkpt>
<trkpt lat="33.8095282" lon="-118.3939644">
  <ele>-43.517</ele>
  <time>2026-09-01T01:13:35Z</time>
  <course>180.81</course>
  <speed>0.7502666192761077</speed>
  <fix>3d</fix>
</trkpt>
<trkpt lat="33.809529" lon="-118.3939643">
  <ele>-42.39</ele>
  <time>2026-09-01T01:13:35Z</time>
  <course>180.74</course>
  <speed>0.77</speed>
  <fix>3d</fix>
</trkpt>
<trkpt lat="33.8095275" lon="-118.3939644">
  <ele>-43.556</ele>
  <time>2026-09-01T01:13:35Z</time>
  <course>180.81</course>
  <speed>0.7502666192761077</speed>
  <fix>3d</fix>
</trkpt>
<trkpt lat="33.809529" lon="-118.3939643">
  <ele>-42.39</ele>
  <time>2026-09-01T01:13:35Z</time>
  <course>180.74</course>
  <speed>0.77</speed>
  <fix>3d</fix>
</trkpt>
<trkpt lat="33.8095269" lon="-118.3939644">
  <ele>-43.596</ele>
  <time>2026-09-01T01:13:35Z</time>
  <course>180.81</course>
  <speed>0.7502666192761077</speed>
  <fix>3d</fix>
</trkpt>
<trkpt lat="33.8095275" lon="-118.3939643">
  <ele>-42.47</ele>
  <time>2026-09-01T01:13:35Z</time>
  <course>180.74</course>
  <speed>0.77</speed>
  <fix>3d</fix>
</trkpt>
<trkpt lat="33.8095262" lon="-118.3939645">
  <ele>-43.634</ele>
  <time>2026-09-01T01:13:35Z</time>
  <course>180.81</course>
  <speed>0.7502666192761077</speed>
  <fix>3d</fix>
</trkpt>
<trkpt lat="33.8095275" lon="-118.3939643">
  <ele>-42.47</ele>
  <time>2026-09-01T01:13:35Z</time>
  <course>180.74</course>
  <speed>0.77</speed>
  <fix>3d</fix>
</trkpt>
<trkpt lat="33.8095255" lon="-118.3939645">
  <ele>-43.671</ele>
  <time>2026-09-01T01:13:35Z</time>
  <course>180.81</course>
  <speed>0.7502666192761077</speed>
  <fix>3d</fix>
</trkpt>
<trkpt lat="33.8095262" lon="-118.3939643">
  <ele>-42.55</ele>
  <time>2026-09-01T01:13:35Z</time>
  <course>180.73</course>
  <speed>0.77</speed>
  <fix>3d</fix>
</trkpt>
<trkpt lat="33.8095248" lon="-118.3939645">
  <ele>-43.707</ele>
  <time>2026-09-01T01:13:35Z</time>
  <course>180.81</course>
  <speed>0.7502666192761077</speed>
  <fix>3d</fix>
</trkpt>
<trkpt lat="33.8095262" lon="-118.3939643">
  <ele>-42.55</ele>
  <time>2026-09-01T01:13:35Z</time>
  <course>180.73</course>
  <speed>0.77</speed>
  <fix>3d</fix>
</trkpt>
<trkpt lat="33.8095241" lon="-118.3939645">
  <ele>-43.74</ele>
  <time>2026-09-01T01:13:35Z</time>
  <course>180.81</course>
  <speed>0.7502666192761077</speed>
  <fix>3d</fix>
</trkpt>
<trkpt lat="33.8095248" lon="-118.3939644">
  <ele>-42.62</ele>
  <time>2026-09-01T01:13:35Z</time>
  <course>180.73</course>
  <speed>0.77</speed>
  <fix>3d</fix>
</trkpt>
<trkpt lat="33.8095234" lon="-118.3939645">
  <ele>-43.772</ele>
  <time>2026-09-01T01:13:35Z</time>
  <course>180.81</course>
  <speed>0.7502666192761077</speed>
  <fix>3d</fix>
</trkpt>
<trkpt lat="33.8095248" lon="-118.3939644">
  <ele>-42.62</ele>
  <time>2026-09-01T01:13:35Z</time>
  <course>180.73</course>
  <speed>0.77</speed>
  <fix>3d</fix>
</trkpt>
<trkpt lat="33.8095227" lon="-118.3939645">
  <ele>-43.805</ele>
  <time>2026-09-01T01:13:35Z</time>
  <course>180.81</course>
  <speed>0.7502666192761077</speed>
  <fix>3d</fix>
</trkpt>
<trkpt lat="33.8095233" lon="-118.3939644">
  <ele>-42.69</ele>
  <time>2026-09-01T01:13:35Z</time>
  <course>180.72</course>
  <speed>0.77</speed>
  <fix>3d</fix>
</trkpt>
<trkpt lat="33.809522" lon="-118.3939645">
  <ele>-43.838</ele>
  <time>2026-09-01T01:13:35Z</time>
  <course>180.81</course>
  <speed>0.7502666192761077</speed>
  <fix>3d</fix>
</trkpt>
<trkpt lat="33.8095233" lon="-118.3939644">
  <ele>-42.69</ele>
  <time>2026-09-01T01:13:35Z</time>
  <course>180.72</course>
  <speed>0.77</speed>
  <fix>3d</fix>
</trkpt>
<trkpt lat="33.8095213" lon="-118.3939645">
  <ele>-43.874</ele>
  <time>2026-09-01T01:13:35Z</time>
  <course>180.81</course>
  <speed>0.7502666192761077</speed>
  <fix>3d</fix>
</trkpt>
<trkpt lat="33.809522" lon="-118.3939644">
  <ele>-42.76</ele>
  <time>2026-09-01T01:13:35Z</time>
  <course>180.72</course>
  <speed>0.77</speed>
  <fix>3d</fix>
</trkpt>
<trkpt lat="33.8095206" lon="-118.3939646">
  <ele>-43.91</ele>
  <time>2026-09-01T01:13:35Z</time>
  <course>180.81</course>
  <speed>0.7502666192761077</speed>
  <fix>3d</fix>
</trkpt>
<trkpt lat="33.809522" lon="-118.3939644">
  <ele>-42.76</ele>
  <time>2026-09-01T01:13:35Z</time>
  <course>180.72</course>
  <speed>0.77</speed>
  <fix>3d</fix>
</trkpt>
<trkpt lat="33.8095199" lon="-118.3939646">
  <ele>-43.948</ele>
  <time>2026-09-01T01:13:35Z</time>
  <course>180.81</course>
  <speed>0.7502666192761077</speed>
  <fix>3d</fix>
</trkpt>
<trkpt lat="33.8095206" lon="-118.3939644">
  <ele>-42.82</ele>
  <time>2026-09-01T01:13:35Z</time>
  <course>180.72</course>
  <speed>0.77</speed>
  <fix>3d</fix>
</trkpt>
<trkpt lat="33.8095192" lon="-118.3939646">
  <ele>-43.989</ele>
  <time>2026-09-01T01:13:35Z</time>
  <course>180.81</course>
  <speed>0.7502666192761077</speed>
  <fix>3d</fix>
</trkpt>
<trkpt lat="33.8095206" lon="-118.3939644">
  <ele>-42.82</ele>
  <time>2026-09-01T01:13:35Z</time>
  <course>180.72</course>
  <speed>0.77</speed>
  <fix>3d</fix>
</trkpt>
<trkpt lat="33.8095185" lon="-118.3939646">
  <ele>-44.031</ele>
  <time>2026-09-01T01:13:35Z</time>
  <course>180.81</course>
  <speed>0.7502666192761077</speed>
  <fix>3d</fix>
</trkpt>
<trkpt lat="33.8095191" lon="-118.3939644">
  <ele>-42.9</ele>
  <time>2026-09-01T01:13:35Z</time>
  <course>180.72</course>
  <speed>0.77</speed>
  <fix>3d</fix>
</trkpt>
<trkpt lat="33.8095178" lon="-118.3939646">
  <ele>-44.076</ele>
  <time>2026-09-01T01:13:35Z</time>
  <course>180.81</course>
  <speed>0.7502666192761077</speed>
  <fix>3d</fix>
</trkpt>
<trkpt lat="33.8095191" lon="-118.3939644">
  <ele>-42.9</ele>
  <time>2026-09-01T01:13:35Z</time>
  <course>180.72</course>
  <speed>0.77</speed>
  <fix>3d</fix>
</trkpt>
<trkpt lat="33.8095171" lon="-118.3939646">
  <ele>-44.12</ele>
  <time>2026-09-01T01:13:35Z</time>
  <course>180.81</course>
  <speed>0.7502666192761077</speed>
  <fix>3d</fix>
</trkpt>
<trkpt lat="33.8095177" lon="-118.3939645">
  <ele>-42.98</ele>
  <time>2026-09-01T01:13:35Z</time>
  <course>180.72</course>
  <speed>0.77</speed>
  <fix>3d</fix>
</trkpt>
<trkpt lat="33.8095164" lon="-118.3939646">
  <ele>-44.168</ele>
  <time>2026-09-01T01:13:35Z</time>
  <course>180.81</course>
  <speed>0.7502666192761077</speed>
  <fix>3d</fix>
</trkpt>
<trkpt lat="33.8095177" lon="-118.3939645">
  <ele>-42.98</ele>
  <time>2026-09-01T01:13:35Z</time>
  <course>180.72</course>
  <speed>0.77</speed>
  <fix>3d</fix>
</trkpt>
<trkpt lat="33.8095157" lon="-118.3939646">
  <ele>-44.218</ele>
  <time>2026-09-01T01:13:35Z</time>
  <course>180.81</course>
  <speed>0.7502666192761077</speed>
  <fix>3d</fix>
</trkpt>
<trkpt lat="33.8095164" lon="-118.3939645">
  <ele>-43.07</ele>
  <time>2026-09-01T01:13:35Z</time>
  <course>180.72</course>
  <speed>0.77</speed>
  <fix>3d</fix>
</trkpt>
<trkpt lat="33.809515" lon="-118.3939646">
  <ele>-44.268</ele>
  <time>2026-09-01T01:13:35Z</time>
  <course>180.81</course>
  <speed>0.7502666192761077</speed>
  <fix>3d</fix>
</trkpt>
<trkpt lat="33.8095164" lon="-118.3939645">
  <ele>-43.07</ele>
  <time>2026-09-01T01:13:35Z</time>
  <course>180.72</course>
  <speed>0.77</speed>
  <fix>3d</fix>
</trkpt>
<trkpt lat="33.8095143" lon="-118.3939646">
  <ele>-44.317</ele>
  <time>2026-09-01T01:13:35Z</time>
  <course>180.81</course>
  <speed>0.7502666192761077</speed>
  <fix>3d</fix>
</trkpt>
<trkpt lat="33.8095151" lon="-118.3939645">
  <ele>-43.16</ele>
  <time>2026-09-01T01:13:35Z</time>
  <course>180.72</course>
  <speed>0.77</speed>
  <fix>3d</fix>
</trkpt>
<trkpt lat="33.8095136" lon="-118.3939647">
  <ele>-44.364</ele>
  <time>2026-09-01T01:13:35Z</time>
  <course>180.81</course>
  <speed>0.7502666192761077</speed>
  <fix>3d</fix>
</trkpt>
<trkpt lat="33.8095151" lon="-118.3939645">
  <ele>-43.16</ele>
  <time>2026-09-01T01:13:35Z</time>
  <course>180.72</course>
  <speed>0.77</speed>
  <fix>3d</fix>
</trkpt>
<trkpt lat="33.8095129" lon="-118.3939647">
  <ele>-44.409</ele>
  <time>2026-09-01T01:13:35Z</time>
  <course>180.81</course>
  <speed>0.7502666192761077</speed>
  <fix>3d</fix>
</trkpt>
<trkpt lat="33.8095136" lon="-118.3939645">
  <ele>-43.25</ele>
  <time>2026-09-01T01:13:35Z</time>
  <course>180.72</course>
  <speed>0.77</speed>
  <fix>3d</fix>
</trkpt>
<trkpt lat="33.8095122" lon="-118.3939647">
  <ele>-44.453</ele>
  <time>2026-09-01T01:13:35Z</time>
  <course>180.81</course>
  <speed>0.7502666192761077</speed>
  <fix>3d</fix>
</trkpt>
<trkpt lat="33.8095136" lon="-118.3939645">
  <ele>-43.25</ele>
  <time>2026-09-01T01:13:35Z</time>
  <course>180.72</course>
  <speed>0.77</speed>
  <fix>3d</fix>
</trkpt>
<trkpt lat="33.8095115" lon="-118.3939647">
  <ele>-44.494</ele>
  <time>2026-09-01T01:13:35Z</time>
  <course>180.81</course>
  <speed>0.7502666192761077</speed>
  <fix>3d</fix>
</trkpt>
<trkpt lat="33.8095122" lon="-118.3939645">
  <ele>-43.34</ele>
  <time>2026-09-01T01:13:35Z</time>
  <course>180.71</course>
  <speed>0.77</speed>
  <fix>3d</fix>
</trkpt>
<trkpt lat="33.8095108" lon="-118.3939647">
  <ele>-44.535</ele>
  <time>2026-09-01T01:13:35Z</time>
  <course>180.81</course>
  <speed>0.7502666192761077</speed>
  <fix>3d</fix>
</trkpt>
<trkpt lat="33.8095122" lon="-118.3939645">
  <ele>-43.34</ele>
  <time>2026-09-01T01:13:35Z</time>
  <course>180.71</course>
  <speed>0.77</speed>
  <fix>3d</fix>
</trkpt>
<trkpt lat="33.8095101" lon="-118.3939647">
  <ele>-44.572</ele>
  <time>2026-09-01T01:13:35Z</time>
  <course>180.81</course>
  <speed>0.7502666192761077</speed>
  <fix>3d</fix>
</trkpt>
<trkpt lat="33.8095109" lon="-118.3939646">
  <ele>-43.42</ele>
  <time>2026-09-01T01:13:35Z</time>
  <course>180.71</course>
  <speed>0.77</speed>
  <fix>3d</fix>
</trkpt>
<trkpt lat="33.8095094" lon="-118.3939647">
  <ele>-44.607</ele>
  <time>2026-09-01T01:13:35Z</time>
  <course>180.81</course>
  <speed>0.7502666192761077</speed>
  <fix>3d</fix>
</trkpt>
<trkpt lat="33.8095109" lon="-118.3939646">
  <ele>-43.42</ele>
  <time>2026-09-01T01:13:35Z</time>
  <course>180.71</course>
  <speed>0.77</speed>
  <fix>3d</fix>
</trkpt>
<trkpt lat="33.8095087" lon="-118.3939647">
  <ele>-44.641</ele>
  <time>2026-09-01T01:13:35Z</time>
  <course>180.81</course>
  <speed>0.7502666192761077</speed>
  <fix>3d</fix>
</trkpt>
<trkpt lat="33.8095095" lon="-118.3939646">
  <ele>-43.49</ele>
  <time>2026-09-01T01:13:35Z</time>
  <course>180.7</course>
  <speed>0.77</speed>
  <fix>3d</fix>
</trkpt>
<trkpt lat="33.8095081" lon="-118.3939647">
  <ele>-44.673</ele>
  <time>2026-09-01T01:13:35Z</time>
  <course>180.81</course>
  <speed>0.7502666192761077</speed>
  <fix>3d</fix>
</trkpt>
<trkpt lat="33.8095095" lon="-118.3939646">
  <ele>-43.49</ele>
  <time>2026-09-01T01:13:35Z</time>
  <course>180.7</course>
  <speed>0.77</speed>
  <fix>3d</fix>
</trkpt>
<trkpt lat="33.8095074" lon="-118.3939647">
  <ele>-44.704</ele>
  <time>2026-09-01T01:13:35Z</time>
  <course>180.81</course>
  <speed>0.7502666192761077</speed>
  <fix>3d</fix>
</trkpt>
<trkpt lat="33.8095081" lon="-118.3939646">
  <ele>-43.55</ele>
  <time>2026-09-01T01:13:35Z</time>
  <course>180.69</course>
  <speed>0.77</speed>
  <fix>3d</fix>
</trkpt>
<trkpt lat="33.8095067" lon="-118.3939648">
  <ele>-44.734</ele>
  <time>2026-09-01T01:13:35Z</time>
  <course>180.81</course>
  <speed>0.7502666192761077</speed>
  <fix>3d</fix>
</trkpt>
<trkpt lat="33.8095081" lon="-118.3939646">
  <ele>-43.55</ele>
  <time>2026-09-01T01:13:35Z</time>
  <course>180.69</course>
  <speed>0.77</speed>
  <fix>3d</fix>
</trkpt>
<trkpt lat="33.809506" lon="-118.3939648">
  <ele>-44.762</ele>
  <time>2026-09-01T01:13:35Z</time>
  <course>180.81</course>
  <speed>0.7502666192761077</speed>
  <fix>3d</fix>
</trkpt>
<trkpt lat="33.8095067" lon="-118.3939646">
  <ele>-43.61</ele>
  <time>2026-09-01T01:13:35Z</time>
  <course>180.69</course>
  <speed>0.77</speed>
  <fix>3d</fix>
</trkpt>
<trkpt lat="33.8095053" lon="-118.3939648">
  <ele>-44.789</ele>
  <time>2026-09-01T01:13:35Z</time>
  <course>180.81</course>
  <speed>0.7502666192761077</speed>
  <fix>3d</fix>
</trkpt>
<trkpt lat="33.8095067" lon="-118.3939646">
  <ele>-43.61</ele>
  <time>2026-09-01T01:13:35Z</time>
  <course>180.69</course>
  <speed>0.77</speed>
  <fix>3d</fix>
</trkpt>
<trkpt lat="33.8095046" lon="-118.3939648">
  <ele>-44.818</ele>
  <time>2026-09-01T01:13:35Z</time>
  <course>180.8</course>
  <speed>0.7502666192761077</speed>
  <fix>3d</fix>
</trkpt>
<trkpt lat="33.8095053" lon="-118.3939646">
  <ele>-43.67</ele>
  <time>2026-09-01T01:13:35Z</time>
  <course>180.69</course>
  <speed>0.77</speed>
  <fix>3d</fix>
</trkpt>
<trkpt lat="33.8095039" lon="-118.3939648">
  <ele>-44.85</ele>
  <time>2026-09-01T01:13:35Z</time>
  <course>180.8</course>
  <speed>0.7502666192761077</speed>
  <fix>3d</fix>
</trkpt>
<trkpt lat="33.8095053" lon="-118.3939646">
  <ele>-43.67</ele>
  <time>2026-09-01T01:13:35Z</time>
  <course>180.69</course>
  <speed>0.77</speed>
  <fix>3d</fix>
</trkpt>
<trkpt lat="33.8095032" lon="-118.3939648">
  <ele>-44.882</ele>
  <time>2026-09-01T01:13:35Z</time>
  <course>180.81</course>
  <speed>0.7502666192761077</speed>
  <fix>3d</fix>
</trkpt>
<trkpt lat="33.8095038" lon="-118.3939647">
  <ele>-43.73</ele>
  <time>2026-09-01T01:13:35Z</time>
  <course>180.69</course>
  <speed>0.77</speed>
  <fix>3d</fix>
</trkpt>
<trkpt lat="33.8095025" lon="-118.3939648">
  <ele>-44.913</ele>
  <time>2026-09-01T01:13:35Z</time>
  <course>180.8</course>
  <speed>0.7502666192761077</speed>
  <fix>3d</fix>
</trkpt>
<trkpt lat="33.8095038" lon="-118.3939647">
  <ele>-43.73</ele>
  <time>2026-09-01T01:13:35Z</time>
  <course>180.69</course>
  <speed>0.77</speed>
  <fix>3d</fix>
</trkpt>
<trkpt lat="33.8095019" lon="-118.3939648">
  <ele>-44.944</ele>
  <time>2026-09-01T01:13:35Z</time>
  <course>180.8</course>
  <speed>0.7502666192761077</speed>
  <fix>3d</fix>
</trkpt>
<trkpt lat="33.8095025" lon="-118.3939647">
  <ele>-43.79</ele>
  <time>2026-09-01T01:13:35Z</time>
  <course>180.68</course>
  <speed>0.77</speed>
  <fix>3d</fix>
</trkpt>
<trkpt lat="33.8095012" lon="-118.3939648">
  <ele>-44.973</ele>
  <time>2026-09-01T01:13:35Z</time>
  <course>180.8</course>
  <speed>0.7502666192761077</speed>
  <fix>3d</fix>
</trkpt>
<trkpt lat="33.8095025" lon="-118.3939647">
  <ele>-43.79</ele>
  <time>2026-09-01T01:13:35Z</time>
  <course>180.68</course>
  <speed>0.77</speed>
  <fix>3d</fix>
</trkpt>
<trkpt lat="33.8095005" lon="-118.3939648">
  <ele>-45.0</ele>
  <time>2026-09-01T01:13:35Z</time>
  <course>180.8</course>
  <speed>0.7502666192761077</speed>
  <fix>3d</fix>
</trkpt>
<trkpt lat="33.8095011" lon="-118.3939647">
  <ele>-43.85</ele>
  <time>2026-09-01T01:13:35Z</time>
  <course>180.68</course>
  <speed>0.77</speed>
  <fix>3d</fix>
</trkpt>
<trkpt lat="33.8094998" lon="-118.3939648">
  <ele>-45.024</ele>
  <time>2026-09-01T01:13:35Z</time>
  <course>180.8</course>
  <speed>0.7502666192761077</speed>
  <fix>3d</fix>
</trkpt>
<trkpt lat="33.8095011" lon="-118.3939647">
  <ele>-43.85</ele>
  <time>2026-09-01T01:13:35Z</time>
  <course>180.68</course>
  <speed>0.77</speed>
  <fix>3d</fix>
</trkpt>
<trkpt lat="33.8094991" lon="-118.3939649">
  <ele>-45.046</ele>
  <time>2026-09-01T01:13:35Z</time>
  <course>180.8</course>
  <speed>0.7502666192761077</speed>
  <fix>3d</fix>
</trkpt>
<trkpt lat="33.8094997" lon="-118.3939647">
  <ele>-43.9</ele>
  <time>2026-09-01T01:13:35Z</time>
  <course>180.68</course>
  <speed>0.77</speed>
  <fix>3d</fix>
</trkpt>
<trkpt lat="33.8094984" lon="-118.3939649">
  <ele>-45.065</ele>
  <time>2026-09-01T01:13:35Z</time>
  <course>180.8</course>
  <speed>0.7502666192761077</speed>
  <fix>3d</fix>
</trkpt>
<trkpt lat="33.8094997" lon="-118.3939647">
  <ele>-43.9</ele>
  <time>2026-09-01T01:13:35Z</time>
  <course>180.68</course>
  <speed>0.77</speed>
  <fix>3d</fix>
</trkpt>
<trkpt lat="33.8094977" lon="-118.3939649">
  <ele>-45.079</ele>
  <time>2026-09-01T01:13:35Z</time>
  <course>180.8</course>
  <speed>0.7502666192761077</speed>
  <fix>3d</fix>
</trkpt>
<trkpt lat="33.8094983" lon="-118.3939647">
  <ele>-43.95</ele>
  <time>2026-09-01T01:13:35Z</time>
  <course>180.67</course>
  <speed>0.77</speed>
  <fix>3d</fix>
</trkpt>
<trkpt lat="33.809497" lon="-118.3939649">
  <ele>-45.089</ele>
  <time>2026-09-01T01:13:35Z</time>
  <course>180.8</course>
  <speed>0.7502666192761077</speed>
  <fix>3d</fix>
</trkpt>
<trkpt lat="33.8094983" lon="-118.3939647">
  <ele>-43.95</ele>
  <time>2026-09-01T01:13:35Z</time>
  <course>180.67</course>
  <speed>0.77</speed>
  <fix>3d</fix>
</trkpt>
<trkpt lat="33.8094963" lon="-118.3939649">
  <ele>-45.094</ele>
  <time>2026-09-01T01:13:35Z</time>
  <course>180.8</course>
  <speed>0.7502666192761077</speed>
  <fix>3d</fix>
</trkpt>
<trkpt lat="33.809497" lon="-118.3939648">
  <ele>-43.98</ele>
  <time>2026-09-01T01:13:35Z</time>
  <course>180.66</course>
  <speed>0.77</speed>
  <fix>3d</fix>
</trkpt>
<trkpt lat="33.8094956" lon="-118.3939649">
  <ele>-45.094</ele>
  <time>2026-09-01T01:13:35Z</time>
  <course>180.8</course>
  <speed>0.7502666192761077</speed>
  <fix>3d</fix>
</trkpt>
<trkpt lat="33.809497" lon="-118.3939648">
  <ele>-43.98</ele>
  <time>2026-09-01T01:13:35Z</time>
  <course>180.66</course>
  <speed>0.77</speed>
  <fix>3d</fix>
</trkpt>
<trkpt lat="33.8094949" lon="-118.3939649">
  <ele>-45.088</ele>
  <time>2026-09-01T01:13:35Z</time>
  <course>180.8</course>
  <speed>0.7502666192761077</speed>
  <fix>3d</fix>
</trkpt>
<trkpt lat="33.8094956" lon="-118.3939648">
  <ele>-44.0</ele>
  <time>2026-09-01T01:13:35Z</time>
  <course>180.65</course>
  <speed>0.77</speed>
  <fix>3d</fix>
</trkpt>
<trkpt lat="33.8094942" lon="-118.3939649">
  <ele>-45.078</ele>
  <time>2026-09-01T01:13:35Z</time>
  <course>180.8</course>
  <speed>0.7402702209328699</speed>
  <fix>3d</fix>
</trkpt>
<trkpt lat="33.8094956" lon="-118.3939648">
  <ele>-44.0</ele>
  <time>2026-09-01T01:13:35Z</time>
  <course>180.65</course>
  <speed>0.77</speed>
  <fix>3d</fix>
</trkpt>
<trkpt lat="33.8094935" lon="-118.3939649">
  <ele>-45.066</ele>
  <time>2026-09-01T01:13:35Z</time>
  <course>180.8</course>
  <speed>0.7402702209328699</speed>
  <fix>3d</fix>
</trkpt>
<trkpt lat="33.8094941" lon="-118.3939648">
  <ele>-43.99</ele>
  <time>2026-09-01T01:13:35Z</time>
  <course>180.65</course>
  <speed>0.77</speed>
  <fix>3d</fix>
</trkpt>
<trkpt lat="33.8094928" lon="-118.3939649">
  <ele>-45.054</ele>
  <time>2026-09-01T01:13:35Z</time>
  <course>180.8</course>
  <speed>0.7502666192761077</speed>
  <fix>3d</fix>
</trkpt>
<trkpt lat="33.8094941" lon="-118.3939648">
  <ele>-43.99</ele>
  <time>2026-09-01T01:13:35Z</time>
  <course>180.65</course>
  <speed>0.77</speed>
  <fix>3d</fix>
</trkpt>
<trkpt lat="33.8094921" lon="-118.393965">
  <ele>-45.041</ele>
  <time>2026-09-01T01:13:35Z</time>
  <course>180.8</course>
  <speed>0.7502666192761077</speed>
  <fix>3d</fix>
</trkpt>
<trkpt lat="33.8094928" lon="-118.3939648">
  <ele>-43.98</ele>
  <time>2026-09-01T01:13:35Z</time>
  <course>180.64</course>
  <speed>0.77</speed>
  <fix>3d</fix>
</trkpt>
<trkpt lat="33.8094914" lon="-118.393965">
  <ele>-45.029</ele>
  <time>2026-09-01T01:13:35Z</time>
  <course>180.8</course>
  <speed>0.7502666192761077</speed>
  <fix>3d</fix>
</trkpt>
<trkpt lat="33.8094928" lon="-118.3939648">
  <ele>-43.98</ele>
  <time>2026-09-01T01:13:35Z</time>
  <course>180.64</course>
  <speed>0.77</speed>
  <fix>3d</fix>
</trkpt>
<trkpt lat="33.8094907" lon="-118.393965">
  <ele>-45.018</ele>
  <time>2026-09-01T01:13:35Z</time>
  <course>180.8</course>
  <speed>0.7502666192761077</speed>
  <fix>3d</fix>
</trkpt>
<trkpt lat="33.8094914" lon="-118.3939648">
  <ele>-43.96</ele>
  <time>2026-09-01T01:13:35Z</time>
  <course>180.64</course>
  <speed>0.77</speed>
  <fix>3d</fix>
</trkpt>
<trkpt lat="33.8094901" lon="-118.393965">
  <ele>-45.005</ele>
  <time>2026-09-01T01:13:35Z</time>
  <course>180.8</course>
  <speed>0.7502666192761077</speed>
  <fix>3d</fix>
</trkpt>
<trkpt lat="33.8094914" lon="-118.3939648">
  <ele>-43.96</ele>
  <time>2026-09-01T01:13:35Z</time>
  <course>180.64</course>
  <speed>0.77</speed>
  <fix>3d</fix>
</trkpt>
<trkpt lat="33.8094894" lon="-118.393965">
  <ele>-44.994</ele>
  <time>2026-09-01T01:13:35Z</time>
  <course>180.8</course>
  <speed>0.7502666192761077</speed>
  <fix>3d</fix>
</trkpt>
<trkpt lat="33.8094899" lon="-118.3939649">
  <ele>-43.94</ele>
  <time>2026-09-01T01:13:35Z</time>
  <course>180.64</course>
  <speed>0.77</speed>
  <fix>3d</fix>
</trkpt>
<trkpt lat="33.8094887" lon="-118.393965">
  <ele>-44.986</ele>
  <time>2026-09-01T01:13:35Z</time>
  <course>180.8</course>
  <speed>0.7502666192761077</speed>
  <fix>3d</fix>
</trkpt>
<trkpt lat="33.8094899" lon="-118.3939649">
  <ele>-43.94</ele>
  <time>2026-09-01T01:13:35Z</time>
  <course>180.64</course>
  <speed>0.77</speed>
  <fix>3d</fix>
</trkpt>
<trkpt lat="33.809488" lon="-118.393965">
  <ele>-44.98</ele>
  <time>2026-09-01T01:13:35Z</time>
  <course>180.8</course>
  <speed>0.7502666192761077</speed>
  <fix>3d</fix>
</trkpt>
<trkpt lat="33.8094885" lon="-118.3939649">
  <ele>-43.92</ele>
  <time>2026-09-01T01:13:35Z</time>
  <course>180.63</course>
  <speed>0.77</speed>
  <fix>3d</fix>
</trkpt>
<trkpt lat="33.8094873" lon="-118.393965">
  <ele>-44.976</ele>
  <time>2026-09-01T01:13:35Z</time>
  <course>180.8</course>
  <speed>0.7502666192761077</speed>
  <fix>3d</fix>
</trkpt>
<trkpt lat="33.8094885" lon="-118.3939649">
  <ele>-43.92</ele>
  <time>2026-09-01T01:13:35Z</time>
  <course>180.63</course>
  <speed>0.77</speed>
  <fix>3d</fix>
</trkpt>
<trkpt lat="33.8094866" lon="-118.393965">
  <ele>-44.974</ele>
  <time>2026-09-01T01:13:35Z</time>
  <course>180.8</course>
  <speed>0.7502666192761077</speed>
  <fix>3d</fix>
</trkpt>
<trkpt lat="33.8094872" lon="-118.3939649">
  <ele>-43.9</ele>
  <time>2026-09-01T01:13:35Z</time>
  <course>180.63</course>
  <speed>0.77</speed>
  <fix>3d</fix>
</trkpt>
<trkpt lat="33.8094859" lon="-118.393965">
  <ele>-44.976</ele>
  <time>2026-09-01T01:13:35Z</time>
  <course>180.8</course>
  <speed>0.7502666192761077</speed>
  <fix>3d</fix>
</trkpt>
<trkpt lat="33.8094872" lon="-118.3939649">
  <ele>-43.9</ele>
  <time>2026-09-01T01:13:35Z</time>
  <course>180.63</course>
  <speed>0.77</speed>
  <fix>3d</fix>
</trkpt>
<trkpt lat="33.8094852" lon="-118.393965">
  <ele>-44.982</ele>
  <time>2026-09-01T01:13:35Z</time>
  <course>180.8</course>
  <speed>0.7502666192761077</speed>
  <fix>3d</fix>
</trkpt>
<trkpt lat="33.8094858" lon="-118.3939649">
  <ele>-43.9</ele>
  <time>2026-09-01T01:13:35Z</time>
  <course>180.63</course>
  <speed>0.77</speed>
  <fix>3d</fix>
</trkpt>
<trkpt lat="33.8094845" lon="-118.3939651">
  <ele>-44.991</ele>
  <time>2026-09-01T01:13:35Z</time>
  <course>180.8</course>
  <speed>0.7502666192761077</speed>
  <fix>3d</fix>
</trkpt>
<trkpt lat="33.8094858" lon="-118.3939649">
  <ele>-43.9</ele>
  <time>2026-09-01T01:13:35Z</time>
  <course>180.63</course>
  <speed>0.77</speed>
  <fix>3d</fix>
</trkpt>
<trkpt lat="33.8094838" lon="-118.3939651">
  <ele>-45.0</ele>
  <time>2026-09-01T01:13:35Z</time>
  <course>180.8</course>
  <speed>0.7502666192761077</speed>
  <fix>3d</fix>
</trkpt>
<trkpt lat="33.8094844" lon="-118.3939649">
  <ele>-43.91</ele>
  <time>2026-09-01T01:13:35Z</time>
  <course>180.64</course>
  <speed>0.77</speed>
  <fix>3d</fix>
</trkpt>
<trkpt lat="33.8094831" lon="-118.3939651">
  <ele>-45.009</ele>
  <time>2026-09-01T01:13:36Z</time>
  <course>180.8</course>
  <speed>0.7502666192761077</speed>
  <fix>3d</fix>
</trkpt>
<trkpt lat="33.8094844" lon="-118.3939649">
  <ele>-43.91</ele>
  <time>2026-09-01T01:13:36Z</time>
  <course>180.64</course>
  <speed>0.77</speed>
  <fix>3d</fix>
</trkpt>
<trkpt lat="33.8094824" lon="-118.3939651">
  <ele>-45.018</ele>
  <time>2026-09-01T01:13:36Z</time>
  <course>180.8</course>
  <speed>0.7502666192761077</speed>
  <fix>3d</fix>
</trkpt>
<trkpt lat="33.809483" lon="-118.393965">
  <ele>-43.93</ele>
  <time>2026-09-01T01:13:36Z</time>
  <course>180.64</course>
  <speed>0.77</speed>
  <fix>3d</fix>
</trkpt>
<trkpt lat="33.8094817" lon="-118.3939651">
  <ele>-45.025</ele>
  <time>2026-09-01T01:13:36Z</time>
  <course>180.8</course>
  <speed>0.7502666192761077</speed>
  <fix>3d</fix>
</trkpt>
<trkpt lat="33.809483" lon="-118.393965">
  <ele>-43.93</ele>
  <time>2026-09-01T01:13:36Z</time>
  <course>180.64</course>
  <speed>0.77</speed>
  <fix>3d</fix>
</trkpt>
<trkpt lat="33.809481" lon="-118.3939651">
  <ele>-45.032</ele>
  <time>2026-09-01T01:13:36Z</time>
  <course>180.8</course>
  <speed>0.7502666192761077</speed>
  <fix>3d</fix>
</trkpt>
<trkpt lat="33.8094817" lon="-118.393965">
  <ele>-43.94</ele>
  <time>2026-09-01T01:13:36Z</time>
  <course>180.64</course>
  <speed>0.77</speed>
  <fix>3d</fix>
</trkpt>
<trkpt lat="33.8094803" lon="-118.3939651">
  <ele>-45.038</ele>
  <time>2026-09-01T01:13:36Z</time>
  <course>180.8</course>
  <speed>0.7502666192761077</speed>
  <fix>3d</fix>
</trkpt>
<trkpt lat="33.8094817" lon="-118.393965">
  <ele>-43.94</ele>
  <time>2026-09-01T01:13:36Z</time>
  <course>180.64</course>
  <speed>0.77</speed>
  <fix>3d</fix>
</trkpt>
<trkpt lat="33.8094796" lon="-118.3939651">
  <ele>-45.043</ele>
  <time>2026-09-01T01:13:36Z</time>
  <course>180.8</course>
  <speed>0.7502666192761077</speed>
  <fix>3d</fix>
</trkpt>
<trkpt lat="33.8094803" lon="-118.393965">
  <ele>-43.95</ele>
  <time>2026-09-01T01:13:36Z</time>
  <course>180.63</course>
  <speed>0.77</speed>
  <fix>3d</fix>
</trkpt>
<trkpt lat="33.8094789" lon="-118.3939651">
  <ele>-45.047</ele>
  <time>2026-09-01T01:13:36Z</time>
  <course>180.8</course>
  <speed>0.7502666192761077</speed>
  <fix>3d</fix>
</trkpt>
<trkpt lat="33.8094803" lon="-118.393965">
  <ele>-43.95</ele>
  <time>2026-09-01T01:13:36Z</time>
  <course>180.63</course>
  <speed>0.77</speed>
  <fix>3d</fix>
</trkpt>
<trkpt lat="33.8094782" lon="-118.3939651">
  <ele>-45.049</ele>
  <time>2026-09-01T01:13:36Z</time>
  <course>180.8</course>
  <speed>0.7502666192761077</speed>
  <fix>3d</fix>
</trkpt>
<trkpt lat="33.8094789" lon="-118.393965">
  <ele>-43.96</ele>
  <time>2026-09-01T01:13:36Z</time>
  <course>180.63</course>
  <speed>0.77</speed>
  <fix>3d</fix>
</trkpt>
<trkpt lat="33.8094775" lon="-118.3939652">
  <ele>-45.051</ele>
  <time>2026-09-01T01:13:36Z</time>
  <course>180.8</course>
  <speed>0.7502666192761077</speed>
  <fix>3d</fix>
</trkpt>
<trkpt lat="33.8094789" lon="-118.393965">
  <ele>-43.96</ele>
  <time>2026-09-01T01:13:36Z</time>
  <course>180.63</course>
  <speed>0.77</speed>
  <fix>3d</fix>
</trkpt>
<trkpt lat="33.8094768" lon="-118.3939652">
  <ele>-45.05</ele>
  <time>2026-09-01T01:13:36Z</time>
  <course>180.8</course>
  <speed>0.7502666192761077</speed>
  <fix>3d</fix>
</trkpt>
<trkpt lat="33.8094775" lon="-118.393965">
  <ele>-43.97</ele>
  <time>2026-09-01T01:13:36Z</time>
  <course>180.63</course>
  <speed>0.77</speed>
  <fix>3d</fix>
</trkpt>
<trkpt lat="33.8094761" lon="-118.3939652">
  <ele>-45.048</ele>
  <time>2026-09-01T01:13:36Z</time>
  <course>180.8</course>
  <speed>0.7502666192761077</speed>
  <fix>3d</fix>
</trkpt>
<trkpt lat="33.8094775" lon="-118.393965">
  <ele>-43.97</ele>
  <time>2026-09-01T01:13:36Z</time>
  <course>180.63</course>
  <speed>0.77</speed>
  <fix>3d</fix>
</trkpt>
<trkpt lat="33.8094754" lon="-118.3939652">
  <ele>-45.045</ele>
  <time>2026-09-01T01:13:36Z</time>
  <course>180.8</course>
  <speed>0.7502666192761077</speed>
  <fix>3d</fix>
</trkpt>
<trkpt lat="33.8094761" lon="-118.393965">
  <ele>-43.96</ele>
  <time>2026-09-01T01:13:36Z</time>
  <course>180.62</course>
  <speed>0.77</speed>
  <fix>3d</fix>
</trkpt>
<trkpt lat="33.8094747" lon="-118.3939652">
  <ele>-45.039</ele>
  <time>2026-09-01T01:13:36Z</time>
  <course>180.8</course>
  <speed>0.7502666192761077</speed>
  <fix>3d</fix>
</trkpt>
<trkpt lat="33.8094761" lon="-118.393965">
  <ele>-43.96</ele>
  <time>2026-09-01T01:13:36Z</time>
  <course>180.62</course>
  <speed>0.77</speed>
  <fix>3d</fix>
</trkpt>
<trkpt lat="33.809474" lon="-118.3939652">
  <ele>-45.033</ele>
  <time>2026-09-01T01:13:36Z</time>
  <course>180.8</course>
  <speed>0.7502666192761077</speed>
  <fix>3d</fix>
</trkpt>
<trkpt lat="33.8094746" lon="-118.3939651">
  <ele>-43.96</ele>
  <time>2026-09-01T01:13:36Z</time>
  <course>180.62</course>
  <speed>0.77</speed>
  <fix>3d</fix>
</trkpt>
<trkpt lat="33.8094733" lon="-118.3939652">
  <ele>-45.027</ele>
  <time>2026-09-01T01:13:36Z</time>
  <course>180.8</course>
  <speed>0.7502666192761077</speed>
  <fix>3d</fix>
</trkpt>
<trkpt lat="33.8094746" lon="-118.3939651">
  <ele>-43.96</ele>
  <time>2026-09-01T01:13:36Z</time>
  <course>180.62</course>
  <speed>0.77</speed>
  <fix>3d</fix>
</trkpt>
<trkpt lat="33.8094727" lon="-118.3939652">
  <ele>-45.02</ele>
  <time>2026-09-01T01:13:36Z</time>
  <course>180.8</course>
  <speed>0.7502666192761077</speed>
  <fix>3d</fix>
</trkpt>
<trkpt lat="33.8094733" lon="-118.3939651">
  <ele>-43.94</ele>
  <time>2026-09-01T01:13:36Z</time>
  <course>180.62</course>
  <speed>0.77</speed>
  <fix>3d</fix>
</trkpt>
<trkpt lat="33.8094726" lon="-118.3939652">
  <ele>-45.02</ele>
  <time>2026-09-01T01:13:36Z</time>
  <course>180.8</course>
  <speed>0.7502666192761077</speed>
  <fix>3d</fix>
</trkpt>
<trkpt lat="33.809472" lon="-118.3939652">
  <ele>-45.013</ele>
  <time>2026-09-01T01:13:36Z</time>
  <course>180.8</course>
  <speed>0.620322496770833</speed>
  <fix>3d</fix>
</trkpt>
<trkpt lat="33.8094733" lon="-118.3939651">
  <ele>-43.94</ele>
  <time>2026-09-01T01:13:36Z</time>
  <course>180.62</course>
  <speed>0.77</speed>
  <fix>3d</fix>
</trkpt>
<trkpt lat="33.8094715" lon="-118.3939652">
  <ele>-45.004</ele>
  <time>2026-09-01T01:13:36Z</time>
  <course>180.81</course>
  <speed>0.470425339453563</speed>
  <fix>3d</fix>
</trkpt>
<trkpt lat="33.8094719" lon="-118.3939651">
  <ele>-43.93</ele>
  <time>2026-09-01T01:13:36Z</time>
  <course>180.67</course>
  <speed>0.67</speed>
  <fix>3d</fix>
</trkpt>
<trkpt lat="33.8094711" lon="-118.3939652">
  <ele>-44.996</ele>
  <time>2026-09-01T01:13:36Z</time>
  <course>180.82</course>
  <speed>0.38052595180880894</speed>
  <fix>3d</fix>
</trkpt>
<trkpt lat="33.8094719" lon="-118.3939651">
  <ele>-43.93</ele>
  <time>2026-09-01T01:13:36Z</time>
  <course>180.67</course>
  <speed>0.67</speed>
  <fix>3d</fix>
</trkpt>
<trkpt lat="33.8094707" lon="-118.3939652">
  <ele>-44.988</ele>
  <time>2026-09-01T01:13:36Z</time>
  <course>180.84</course>
  <speed>0.31064449134018135</speed>
  <fix>3d</fix>
</trkpt>
<trkpt lat="33.8094708" lon="-118.3939651">
  <ele>-43.92</ele>
  <time>2026-09-01T01:13:36Z</time>
  <course>180.86</course>
  <speed>0.48</speed>
  <fix>3d</fix>
</trkpt>
<trkpt lat="33.8094704" lon="-118.3939652">
  <ele>-44.98</ele>
  <time>2026-09-01T01:13:36Z</time>
  <course>180.85</course>
  <speed>0.27018512172212594</speed>
  <fix>3d</fix>
</trkpt>
<trkpt lat="33.8094708" lon="-118.3939651">
  <ele>-43.92</ele>
  <time>2026-09-01T01:13:36Z</time>
  <course>180.86</course>
  <speed>0.48</speed>
  <fix>3d</fix>
</trkpt>
<trkpt lat="33.8094702" lon="-118.3939652">
  <ele>-44.972</ele>
  <time>2026-09-01T01:13:36Z</time>
  <course>180.86</course>
  <speed>0.23021728866442676</speed>
  <fix>3d</fix>
</trkpt>
<trkpt lat="33.8094701" lon="-118.3939651">
  <ele>-43.91</ele>
  <time>2026-09-01T01:13:36Z</time>
  <course>181.14</course>
  <speed>0.33</speed>
  <fix>3d</fix>
</trkpt>
<trkpt lat="33.8094699" lon="-118.3939652">
  <ele>-44.965</ele>
  <time>2026-09-01T01:13:36Z</time>
  <course>180.88</course>
  <speed>0.2102379604162864</speed>
  <fix>3d</fix>
</trkpt>
<trkpt lat="33.8094701" lon="-118.3939651">
  <ele>-43.91</ele>
  <time>2026-09-01T01:13:36Z</time>
  <course>181.14</course>
  <speed>0.33</speed>
  <fix>3d</fix>
</trkpt>
<trkpt lat="33.8094697" lon="-118.3939652">
  <ele>-44.956</ele>
  <time>2026-09-01T01:13:36Z</time>
  <course>180.89</course>
  <speed>0.19026297590440447</speed>
  <fix>3d</fix>
</trkpt>
<trkpt lat="33.8094696" lon="-118.3939651">
  <ele>-43.9</ele>
  <time>2026-09-01T01:13:36Z</time>
  <course>181.41</course>
  <speed>0.25</speed>
  <fix>3d</fix>
</trkpt>
<trkpt lat="33.8094695" lon="-118.3939652">
  <ele>-44.948</ele>
  <time>2026-09-01T01:13:36Z</time>
  <course>180.91</course>
  <speed>0.17029386365926402</speed>
  <fix>3d</fix>
</trkpt>
<trkpt lat="33.8094696" lon="-118.3939651">
  <ele>-43.9</ele>
  <time>2026-09-01T01:13:36Z</time>
  <course>181.41</course>
  <speed>0.25</speed>
  <fix>3d</fix>
</trkpt>
<trkpt lat="33.8094693" lon="-118.3939653">
  <ele>-44.94</ele>
  <time>2026-09-01T01:13:36Z</time>
  <course>180.92</course>
  <speed>0.15033296378372907</speed>
  <fix>3d</fix>
</trkpt>
<trkpt lat="33.8094692" lon="-118.3939652">
  <ele>-43.87</ele>
  <time>2026-09-01T01:13:36Z</time>
  <course>181.67</course>
  <speed>0.2</speed>
  <fix>3d</fix>
</trkpt>
<trkpt lat="33.8094692" lon="-118.3939653">
  <ele>-44.933</ele>
  <time>2026-09-01T01:13:36Z</time>
  <course>180.93</course>
  <speed>0.140356688476182</speed>
  <fix>3d</fix>
</trkpt>
<trkpt lat="33.8094692" lon="-118.3939652">
  <ele>-43.87</ele>
  <time>2026-09-01T01:13:36Z</time>
  <course>181.67</course>
  <speed>0.2</speed>
  <fix>3d</fix>
</trkpt>
<trkpt lat="33.809469" lon="-118.3939653">
  <ele>-44.926</ele>
  <time>2026-09-01T01:13:36Z</time>
  <course>180.95</course>
  <speed>0.130384048104053</speed>
  <fix>3d</fix>
</trkpt>
<trkpt lat="33.8094689" lon="-118.3939652">
  <ele>-43.86</ele>
  <time>2026-09-01T01:13:36Z</time>
  <course>181.92</course>
  <speed>0.17</speed>
  <fix>3d</fix>
</trkpt>
<trkpt lat="33.8094689" lon="-118.3939653">
  <ele>-44.919</ele>
  <time>2026-09-01T01:13:36Z</time>
  <course>180.96</course>
  <speed>0.12041594578792296</speed>
  <fix>3d</fix>
</trkpt>
<trkpt lat="33.8094689" lon="-118.3939652">
  <ele>-43.86</ele>
  <time>2026-09-01T01:13:36Z</time>
  <course>181.92</course>
  <speed>0.17</speed>
  <fix>3d</fix>
</trkpt>
<trkpt lat="33.8094687" lon="-118.3939653">
  <ele>-44.912</ele>
  <time>2026-09-01T01:13:36Z</time>
  <course>180.97</course>
  <speed>0.11045361017187261</speed>
  <fix>3d</fix>
</trkpt>
<trkpt lat="33.8094686" lon="-118.3939652">
  <ele>-43.85</ele>
  <time>2026-09-01T01:13:36Z</time>
  <course>182.17</course>
  <speed>0.14</speed>
  <fix>3d</fix>
</trkpt>
<trkpt lat="33.8094686" lon="-118.3939653">
  <ele>-44.904</ele>
  <time>2026-09-01T01:13:36Z</time>
  <course>180.99</course>
  <speed>0.11045361017187261</speed>
  <fix>3d</fix>
</trkpt>
<trkpt lat="33.8094686" lon="-118.3939652">
  <ele>-43.85</ele>
  <time>2026-09-01T01:13:36Z</time>
  <course>182.17</course>
  <speed>0.14</speed>
  <fix>3d</fix>
</trkpt>
<trkpt lat="33.8094685" lon="-118.3939653">
  <ele>-44.894</ele>
  <time>2026-09-01T01:13:36Z</time>
  <course>181.0</course>
  <speed>0.1004987562112089</speed>
  <fix>3d</fix>
</trkpt>
<trkpt lat="33.8094684" lon="-118.3939652">
  <ele>-43.83</ele>
  <time>2026-09-01T01:13:36Z</time>
  <course>182.41</course>
  <speed>0.13</speed>
  <fix>3d</fix>
</trkpt>
<trkpt lat="33.8094684" lon="-118.3939653">
  <ele>-44.884</ele>
  <time>2026-09-01T01:13:36Z</time>
  <course>181.01</course>
  <speed>0.09219544457292887</speed>
  <fix>3d</fix>
</trkpt>
<trkpt lat="33.8094684" lon="-118.3939652">
  <ele>-43.83</ele>
  <time>2026-09-01T01:13:36Z</time>
  <course>182.41</course>
  <speed>0.13</speed>
  <fix>3d</fix>
</trkpt>
<trkpt lat="33.8094683" lon="-118.3939653">
  <ele>-44.874</ele>
  <time>2026-09-01T01:13:36Z</time>
  <course>181.03</course>
  <speed>0.09219544457292887</speed>
  <fix>3d</fix>
</trkpt>
<trkpt lat="33.8094682" lon="-118.3939652">
  <ele>-43.81</ele>
  <time>2026-09-01T01:13:36Z</time>
  <course>182.64</course>
  <speed>0.11</speed>
  <fix>3d</fix>
</trkpt>
<trkpt lat="33.8094682" lon="-118.3939653">
  <ele>-44.864</ele>
  <time>2026-09-01T01:13:36Z</time>
  <course>181.04</course>
  <speed>0.0824621125123532</speed>
  <fix>3d</fix>
</trkpt>
<trkpt lat="33.8094682" lon="-118.3939652">
  <ele>-43.81</ele>
  <time>2026-09-01T01:13:36Z</time>
  <course>182.64</course>
  <speed>0.11</speed>
  <fix>3d</fix>
</trkpt>
<trkpt lat="33.8094681" lon="-118.3939653">
  <ele>-44.855</ele>
  <time>2026-09-01T01:13:36Z</time>
  <course>181.05</course>
  <speed>0.0824621125123532</speed>
  <fix>3d</fix>
</trkpt>
<trkpt lat="33.8094679" lon="-118.3939652">
  <ele>-43.8</ele>
  <time>2026-09-01T01:13:36Z</time>
  <course>182.87</course>
  <speed>0.1</speed>
  <fix>3d</fix>
</trkpt>
<trkpt lat="33.809468" lon="-118.3939653">
  <ele>-44.845</ele>
  <time>2026-09-01T01:13:36Z</time>
  <course>181.07</course>
  <speed>0.0824621125123532</speed>
  <fix>3d</fix>
</trkpt>
<trkpt lat="33.8094679" lon="-118.3939652">
  <ele>-43.8</ele>
  <time>2026-09-01T01:13:36Z</time>
  <course>182.87</course>
  <speed>0.1</speed>
  <fix>3d</fix>
</trkpt>
<trkpt lat="33.8094679" lon="-118.3939653">
  <ele>-44.836</ele>
  <time>2026-09-01T01:13:36Z</time>
  <course>181.08</course>
  <speed>0.07280109889280519</speed>
  <fix>3d</fix>
</trkpt>
<trkpt lat="33.8094678" lon="-118.3939652">
  <ele>-43.78</ele>
  <time>2026-09-01T01:13:36Z</time>
  <course>183.1</course>
  <speed>0.09</speed>
  <fix>3d</fix>
</trkpt>
<trkpt lat="33.8094678" lon="-118.3939653">
  <ele>-44.827</ele>
  <time>2026-09-01T01:13:36Z</time>
  <course>181.09</course>
  <speed>0.07280109889280519</speed>
  <fix>3d</fix>
</trkpt>
<trkpt lat="33.8094678" lon="-118.3939652">
  <ele>-43.78</ele>
  <time>2026-09-01T01:13:36Z</time>
  <course>183.1</course>
  <speed>0.09</speed>
  <fix>3d</fix>
</trkpt>
<trkpt lat="33.8094677" lon="-118.3939653">
  <ele>-44.817</ele>
  <time>2026-09-01T01:13:36Z</time>
  <course>181.11</course>
  <speed>0.07280109889280519</speed>
  <fix>3d</fix>
</trkpt>
<trkpt lat="33.8094676" lon="-118.3939652">
  <ele>-43.76</ele>
  <time>2026-09-01T01:13:36Z</time>
  <course>183.32</course>
  <speed>0.08</speed>
  <fix>3d</fix>
</trkpt>
<trkpt lat="33.8094676" lon="-118.3939654">
  <ele>-44.807</ele>
  <time>2026-09-01T01:13:36Z</time>
  <course>181.12</course>
  <speed>0.0632455532033676</speed>
  <fix>3d</fix>
</trkpt>
<trkpt lat="33.8094676" lon="-118.3939652">
  <ele>-43.76</ele>
  <time>2026-09-01T01:13:36Z</time>
  <course>183.32</course>
  <speed>0.08</speed>
  <fix>3d</fix>
</trkpt>
<trkpt lat="33.8094676" lon="-118.3939654">
  <ele>-44.797</ele>
  <time>2026-09-01T01:13:36Z</time>
  <course>181.13</course>
  <speed>0.0632455532033676</speed>
  <fix>3d</fix>
</trkpt>
<trkpt lat="33.8094674" lon="-118.3939653">
  <ele>-43.73</ele>
  <time>2026-09-01T01:13:36Z</time>
  <course>183.53</course>
  <speed>0.08</speed>
  <fix>3d</fix>
</trkpt>
<trkpt lat="33.8094675" lon="-118.3939654">
  <ele>-44.786</ele>
  <time>2026-09-01T01:13:36Z</time>
  <course>181.15</course>
  <speed>0.0632455532033676</speed>
  <fix>3d</fix>
</trkpt>
<trkpt lat="33.8094674" lon="-118.3939653">
  <ele>-43.73</ele>
  <time>2026-09-01T01:13:36Z</time>
  <course>183.53</course>
  <speed>0.08</speed>
  <fix>3d</fix>
</trkpt>
<trkpt lat="33.8094674" lon="-118.3939654">
  <ele>-44.776</ele>
  <time>2026-09-01T01:13:36Z</time>
  <course>181.16</course>
  <speed>0.053851648071345036</speed>
  <fix>3d</fix>
</trkpt>
<trkpt lat="33.8094673" lon="-118.3939653">
  <ele>-43.72</ele>
  <time>2026-09-01T01:13:36Z</time>
  <course>183.74</course>
  <speed>0.07</speed>
  <fix>3d</fix>
</trkpt>
<trkpt lat="33.8094673" lon="-118.3939654">
  <ele>-44.766</ele>
  <time>2026-09-01T01:13:36Z</time>
  <course>181.17</course>
  <speed>0.053851648071345036</speed>
  <fix>3d</fix>
</trkpt>
<trkpt lat="33.8094673" lon="-118.3939653">
  <ele>-43.72</ele>
  <time>2026-09-01T01:13:36Z</time>
  <course>183.74</course>
  <speed>0.07</speed>
  <fix>3d</fix>
</trkpt>
<trkpt lat="33.4368002" lon="-117.0859339">
  <ele>-0.11</ele>
  <time>2026-09-01T01:13:36Z</time>
  <course>0.0</course>
  <speed>0.0</speed>
  <fix>3d</fix>
</trkpt>
<trkpt lat="33.4368002" lon="-117.0859339">
  <ele>-0.11</ele>
  <time>2026-09-01T01:13:36Z</time>
  <course>0.0</course>
  <speed>0.0</speed>
  <fix>3d</fix>
</trkpt>
<trkpt lat="33.810313" lon="-118.393867">
  <ele>0.0</ele>
  <time>2026-09-01T01:13:36Z</time>
  <course>173.5</course>
  <speed>0.0</speed>
  <fix>3d</fix>
</trkpt>
<trkpt lat="33.810313" lon="-118.393867">
  <ele>-0.11</ele>
  <time>2026-09-01T01:13:36Z</time>
  <course>0.0</course>
  <speed>0.0</speed>
  <fix>3d</fix>
</trkpt>
<trkpt lat="33.4368002" lon="-117.0859339">
  <ele>-0.11</ele>
  <time>2026-09-01T01:13:37Z</time>
  <course>0.0</course>
  <speed>0.0</speed>
  <fix>3d</fix>
</trkpt>
<trkpt lat="33.4368002" lon="-117.0859339">
  <ele>-0.11</ele>
  <time>2026-09-01T01:13:37Z</time>
  <course>0.0</course>
  <speed>0.0</speed>
  <fix>3d</fix>
</trkpt>
<trkpt lat="33.810313" lon="-118.393867">
  <ele>0.0</ele>
  <time>2026-09-01T01:13:37Z</time>
  <course>173.5</course>
  <speed>0.0</speed>
  <fix>3d</fix>
</trkpt>
<trkpt lat="33.810313" lon="-118.393867">
  <ele>-0.11</ele>
  <time>2026-09-01T01:13:37Z</time>
  <course>0.0</course>
  <speed>0.0</speed>
  <fix>3d</fix>
</trkpt>
<trkpt lat="33.810313" lon="-118.393867">
  <ele>0.0</ele>
  <time>2026-09-01T01:13:37Z</time>
  <course>173.61</course>
  <speed>0.0</speed>
  <fix>3d</fix>
</trkpt>
<trkpt lat="33.810313" lon="-118.393867">
  <ele>-0.11</ele>
  <time>2026-09-01T01:13:37Z</time>
  <course>0.0</course>
  <speed>0.0</speed>
  <fix>3d</fix>
</trkpt>
<trkpt lat="33.810313" lon="-118.393867">
  <ele>0.0</ele>
  <time>2026-09-01T01:13:37Z</time>
  <course>173.98</course>
  <speed>0.0</speed>
  <fix>3d</fix>
</trkpt>
<trkpt lat="33.810313" lon="-118.393867">
  <ele>-0.11</ele>
  <time>2026-09-01T01:13:37Z</time>
  <course>0.0</course>
  <speed>0.0</speed>
  <fix>3d</fix>
</trkpt>
<trkpt lat="33.810313" lon="-118.393867">
  <ele>0.0</ele>
  <time>2026-09-01T01:13:37Z</time>
  <course>174.51</course>
  <speed>0.0</speed>
  <fix>3d</fix>
</trkpt>
<trkpt lat="33.810313" lon="-118.393867">
  <ele>-0.11</ele>
  <time>2026-09-01T01:13:37Z</time>
  <course>0.0</course>
  <speed>0.0</speed>
  <fix>3d</fix>
</trkpt>
<trkpt lat="33.810313" lon="-118.393867">
  <ele>0.0</ele>
  <time>2026-09-01T01:13:37Z</time>
  <course>175.07</course>
  <speed>0.0</speed>
  <fix>3d</fix>
</trkpt>
<trkpt lat="33.810313" lon="-118.393867">
  <ele>-0.12</ele>
  <time>2026-09-01T01:13:37Z</time>
  <course>0.0</course>
  <speed>0.0</speed>
  <fix>3d</fix>
</trkpt>
<trkpt lat="33.810313" lon="-118.393867">
  <ele>0.0</ele>
  <time>2026-09-01T01:13:37Z</time>
  <course>175.61</course>
  <speed>0.0</speed>
  <fix>3d</fix>
</trkpt>
<trkpt lat="33.810313" lon="-118.393867">
  <ele>-0.12</ele>
  <time>2026-09-01T01:13:37Z</time>
  <course>0.0</course>
  <speed>0.0</speed>
  <fix>3d</fix>
</trkpt>
<trkpt lat="33.810313" lon="-118.393867">
  <ele>0.0</ele>
  <time>2026-09-01T01:13:37Z</time>
  <course>176.12</course>
  <speed>0.0</speed>
  <fix>3d</fix>
</trkpt>
<trkpt lat="33.810313" lon="-118.393867">
  <ele>-0.13</ele>
  <time>2026-09-01T01:13:37Z</time>
  <course>0.0</course>
  <speed>0.0</speed>
  <fix>3d</fix>
</trkpt>
<trkpt lat="33.810313" lon="-118.393867">
  <ele>0.0</ele>
  <time>2026-09-01T01:13:37Z</time>
  <course>176.6</course>
  <speed>0.0</speed>
  <fix>3d</fix>
</trkpt>
<trkpt lat="33.810313" lon="-118.393867">
  <ele>-0.13</ele>
  <time>2026-09-01T01:13:37Z</time>
  <course>0.0</course>
  <speed>0.0</speed>
  <fix>3d</fix>
</trkpt>
<trkpt lat="33.810313" lon="-118.393867">
  <ele>0.0</ele>
  <time>2026-09-01T01:13:37Z</time>
  <course>177.07</course>
  <speed>0.0</speed>
  <fix>3d</fix>
</trkpt>
<trkpt lat="33.810313" lon="-118.393867">
  <ele>-0.13</ele>
  <time>2026-09-01T01:13:37Z</time>
  <course>0.0</course>
  <speed>0.0</speed>
  <fix>3d</fix>
</trkpt>
<trkpt lat="33.810313" lon="-118.393867">
  <ele>0.0</ele>
  <time>2026-09-01T01:13:37Z</time>
  <course>177.53</course>
  <speed>0.0</speed>
  <fix>3d</fix>
</trkpt>
<trkpt lat="33.810313" lon="-118.393867">
  <ele>-0.13</ele>
  <time>2026-09-01T01:13:37Z</time>
  <course>0.0</course>
  <speed>0.0</speed>
  <fix>3d</fix>
</trkpt>
<trkpt lat="33.810313" lon="-118.393867">
  <ele>0.0</ele>
  <time>2026-09-01T01:13:37Z</time>
  <course>177.97</course>
  <speed>0.0</speed>
  <fix>3d</fix>
</trkpt>
<trkpt lat="33.810313" lon="-118.393867">
  <ele>-0.14</ele>
  <time>2026-09-01T01:13:37Z</time>
  <course>0.0</course>
  <speed>0.0</speed>
  <fix>3d</fix>
</trkpt>
<trkpt lat="33.810313" lon="-118.393867">
  <ele>0.0</ele>
  <time>2026-09-01T01:13:37Z</time>
  <course>178.4</course>
  <speed>0.0</speed>
  <fix>3d</fix>
</trkpt>
<trkpt lat="33.810313" lon="-118.393867">
  <ele>-0.14</ele>
  <time>2026-09-01T01:13:37Z</time>
  <course>0.0</course>
  <speed>0.0</speed>
  <fix>3d</fix>
</trkpt>
<trkpt lat="33.810313" lon="-118.393867">
  <ele>0.0</ele>
  <time>2026-09-01T01:13:37Z</time>
  <course>178.82</course>
  <speed>0.0</speed>
  <fix>3d</fix>
</trkpt>
<trkpt lat="33.810313" lon="-118.393867">
  <ele>-0.14</ele>
  <time>2026-09-01T01:13:37Z</time>
  <course>0.0</course>
  <speed>0.0</speed>
  <fix>3d</fix>
</trkpt>
<trkpt lat="33.810313" lon="-118.393867">
  <ele>0.0</ele>
  <time>2026-09-01T01:13:37Z</time>
  <course>179.23</course>
  <speed>0.0</speed>
  <fix>3d</fix>
</trkpt>
<trkpt lat="33.810313" lon="-118.393867">
  <ele>-0.14</ele>
  <time>2026-09-01T01:13:37Z</time>
  <course>0.0</course>
  <speed>0.0</speed>
  <fix>3d</fix>
</trkpt>
<trkpt lat="33.810313" lon="-118.393867">
  <ele>0.0</ele>
  <time>2026-09-01T01:13:37Z</time>
  <course>179.62</course>
  <speed>0.0</speed>
  <fix>3d</fix>
</trkpt>
<trkpt lat="33.810313" lon="-118.393867">
  <ele>-0.14</ele>
  <time>2026-09-01T01:13:37Z</time>
  <course>0.0</course>
  <speed>0.0</speed>
  <fix>3d</fix>
</trkpt>
<trkpt lat="33.810313" lon="-118.393867">
  <ele>0.0</ele>
  <time>2026-09-01T01:13:37Z</time>
  <course>180.01</course>
  <speed>0.0</speed>
  <fix>3d</fix>
</trkpt>
<trkpt lat="33.810313" lon="-118.393867">
  <ele>-0.14</ele>
  <time>2026-09-01T01:13:37Z</time>
  <course>0.0</course>
  <speed>0.0</speed>
  <fix>3d</fix>
</trkpt>
<trkpt lat="33.810313" lon="-118.393867">
  <ele>0.0</ele>
  <time>2026-09-01T01:13:37Z</time>
  <course>180.37</course>
  <speed>0.0</speed>
  <fix>3d</fix>
</trkpt>
<trkpt lat="33.810313" lon="-118.393867">
  <ele>-0.14</ele>
  <time>2026-09-01T01:13:37Z</time>
  <course>0.0</course>
  <speed>0.0</speed>
  <fix>3d</fix>
</trkpt>
<trkpt lat="33.810313" lon="-118.393867">
  <ele>0.0</ele>
  <time>2026-09-01T01:13:37Z</time>
  <course>180.73</course>
  <speed>0.0</speed>
  <fix>3d</fix>
</trkpt>
<trkpt lat="33.810313" lon="-118.393867">
  <ele>-0.14</ele>
  <time>2026-09-01T01:13:37Z</time>
  <course>0.0</course>
  <speed>0.0</speed>
  <fix>3d</fix>
</trkpt>
<trkpt lat="33.810313" lon="-118.393867">
  <ele>0.0</ele>
  <time>2026-09-01T01:13:37Z</time>
  <course>181.07</course>
  <speed>0.0</speed>
  <fix>3d</fix>
</trkpt>
<trkpt lat="33.810313" lon="-118.393867">
  <ele>-0.13</ele>
  <time>2026-09-01T01:13:37Z</time>
  <course>0.0</course>
  <speed>0.0</speed>
  <fix>3d</fix>
</trkpt>
<trkpt lat="33.810313" lon="-118.393867">
  <ele>0.0</ele>
  <time>2026-09-01T01:13:37Z</time>
  <course>181.4</course>
  <speed>0.0</speed>
  <fix>3d</fix>
</trkpt>
<trkpt lat="33.810313" lon="-118.393867">
  <ele>-0.13</ele>
  <time>2026-09-01T01:13:37Z</time>
  <course>0.0</course>
  <speed>0.0</speed>
  <fix>3d</fix>
</trkpt>
<trkpt lat="33.810313" lon="-118.393867">
  <ele>0.0</ele>
  <time>2026-09-01T01:13:37Z</time>
  <course>181.72</course>
  <speed>0.0</speed>
  <fix>3d</fix>
</trkpt>
<trkpt lat="33.810313" lon="-118.393867">
  <ele>-0.12</ele>
  <time>2026-09-01T01:13:37Z</time>
  <course>0.0</course>
  <speed>0.0</speed>
  <fix>3d</fix>
</trkpt>
<trkpt lat="33.810313" lon="-118.393867">
  <ele>0.0</ele>
  <time>2026-09-01T01:13:37Z</time>
  <course>182.02</course>
  <speed>0.0</speed>
  <fix>3d</fix>
</trkpt>
<trkpt lat="33.810313" lon="-118.393867">
  <ele>-0.12</ele>
  <time>2026-09-01T01:13:37Z</time>
  <course>0.0</course>
  <speed>0.0</speed>
  <fix>3d</fix>
</trkpt>
<trkpt lat="33.810313" lon="-118.393867">
  <ele>0.0</ele>
  <time>2026-09-01T01:13:37Z</time>
  <course>182.32</course>
  <speed>0.0</speed>
  <fix>3d</fix>
</trkpt>
<trkpt lat="33.810313" lon="-118.393867">
  <ele>-0.12</ele>
  <time>2026-09-01T01:13:37Z</time>
  <course>0.0</course>
  <speed>0.0</speed>
  <fix>3d</fix>
</trkpt>
<trkpt lat="33.810313" lon="-118.393867">
  <ele>0.0</ele>
  <time>2026-09-01T01:13:37Z</time>
  <course>182.6</course>
  <speed>0.0</speed>
  <fix>3d</fix>
</trkpt>
<trkpt lat="33.810313" lon="-118.393867">
  <ele>-0.12</ele>
  <time>2026-09-01T01:13:37Z</time>
  <course>0.0</course>
  <speed>0.0</speed>
  <fix>3d</fix>
</trkpt>
<trkpt lat="33.810313" lon="-118.393867">
  <ele>0.0</ele>
  <time>2026-09-01T01:13:37Z</time>
  <course>182.87</course>
  <speed>0.0</speed>
  <fix>3d</fix>
</trkpt>
<trkpt lat="33.810313" lon="-118.393867">
  <ele>-0.11</ele>
  <time>2026-09-01T01:13:37Z</time>
  <course>0.0</course>
  <speed>0.0</speed>
  <fix>3d</fix>
</trkpt>
<trkpt lat="33.810313" lon="-118.393867">
  <ele>0.0</ele>
  <time>2026-09-01T01:13:37Z</time>
  <course>183.13</course>
  <speed>0.0</speed>
  <fix>3d</fix>
</trkpt>
<trkpt lat="33.810313" lon="-118.393867">
  <ele>-0.11</ele>
  <time>2026-09-01T01:13:37Z</time>
  <course>0.0</course>
  <speed>0.0</speed>
  <fix>3d</fix>
</trkpt>
<trkpt lat="33.810313" lon="-118.393867">
  <ele>0.0</ele>
  <time>2026-09-01T01:13:37Z</time>
  <course>183.39</course>
  <speed>0.0</speed>
  <fix>3d</fix>
</trkpt>
<trkpt lat="33.810313" lon="-118.393867">
  <ele>-0.11</ele>
  <time>2026-09-01T01:13:37Z</time>
  <course>0.0</course>
  <speed>0.0</speed>
  <fix>3d</fix>
</trkpt>
<trkpt lat="33.810313" lon="-118.393867">
  <ele>0.0</ele>
  <time>2026-09-01T01:13:37Z</time>
  <course>183.63</course>
  <speed>0.0</speed>
  <fix>3d</fix>
</trkpt>
<trkpt lat="33.810313" lon="-118.393867">
  <ele>-0.11</ele>
  <time>2026-09-01T01:13:37Z</time>
  <course>0.0</course>
  <speed>0.0</speed>
  <fix>3d</fix>
</trkpt>
<trkpt lat="33.810313" lon="-118.393867">
  <ele>0.0</ele>
  <time>2026-09-01T01:13:37Z</time>
  <course>183.86</course>
  <speed>0.0</speed>
  <fix>3d</fix>
</trkpt>
<trkpt lat="33.810313" lon="-118.393867">
  <ele>-0.12</ele>
  <time>2026-09-01T01:13:37Z</time>
  <course>0.0</course>
  <speed>0.0</speed>
  <fix>3d</fix>
</trkpt>
<trkpt lat="33.810313" lon="-118.393867">
  <ele>0.0</ele>
  <time>2026-09-01T01:13:37Z</time>
  <course>184.08</course>
  <speed>0.0</speed>
  <fix>3d</fix>
</trkpt>
<trkpt lat="33.810313" lon="-118.393867">
  <ele>-0.12</ele>
  <time>2026-09-01T01:13:37Z</time>
  <course>0.0</course>
  <speed>0.0</speed>
  <fix>3d</fix>
</trkpt>
<trkpt lat="33.810313" lon="-118.393867">
  <ele>0.0</ele>
  <time>2026-09-01T01:13:37Z</time>
  <course>184.3</course>
  <speed>0.0</speed>
  <fix>3d</fix>
</trkpt>
<trkpt lat="33.810313" lon="-118.393867">
  <ele>-0.13</ele>
  <time>2026-09-01T01:13:37Z</time>
  <course>0.0</course>
  <speed>0.0</speed>
  <fix>3d</fix>
</trkpt>
<trkpt lat="33.810313" lon="-118.393867">
  <ele>0.0</ele>
  <time>2026-09-01T01:13:37Z</time>
  <course>184.5</course>
  <speed>0.0</speed>
  <fix>3d</fix>
</trkpt>
<trkpt lat="33.810313" lon="-118.393867">
  <ele>-0.13</ele>
  <time>2026-09-01T01:13:37Z</time>
  <course>0.0</course>
  <speed>0.0</speed>
  <fix>3d</fix>
</trkpt>
<trkpt lat="33.810313" lon="-118.393867">
  <ele>0.0</ele>
  <time>2026-09-01T01:13:37Z</time>
  <course>184.7</course>
  <speed>0.0</speed>
  <fix>3d</fix>
</trkpt>
<trkpt lat="33.810313" lon="-118.393867">
  <ele>-0.13</ele>
  <time>2026-09-01T01:13:37Z</time>
  <course>0.0</course>
  <speed>0.0</speed>
  <fix>3d</fix>
</trkpt>
<trkpt lat="33.810313" lon="-118.393867">
  <ele>0.0</ele>
  <time>2026-09-01T01:13:37Z</time>
  <course>184.89</course>
  <speed>0.0</speed>
  <fix>3d</fix>
</trkpt>
<trkpt lat="33.810313" lon="-118.393867">
  <ele>-0.13</ele>
  <time>2026-09-01T01:13:37Z</time>
  <course>0.0</course>
  <speed>0.0</speed>
  <fix>3d</fix>
</trkpt>
<trkpt lat="33.810313" lon="-118.393867">
  <ele>0.0</ele>
  <time>2026-09-01T01:13:37Z</time>
  <course>185.07</course>
  <speed>0.0</speed>
  <fix>3d</fix>
</trkpt>
<trkpt lat="33.810313" lon="-118.393867">
  <ele>-0.14</ele>
  <time>2026-09-01T01:13:37Z</time>
  <course>0.0</course>
  <speed>0.0</speed>
  <fix>3d</fix>
</trkpt>
<trkpt lat="33.810313" lon="-118.393867">
  <ele>0.0</ele>
  <time>2026-09-01T01:13:37Z</time>
  <course>185.24</course>
  <speed>0.0</speed>
  <fix>3d</fix>
</trkpt>
<trkpt lat="33.810313" lon="-118.393867">
  <ele>-0.14</ele>
  <time>2026-09-01T01:13:37Z</time>
  <course>0.0</course>
  <speed>0.0</speed>
  <fix>3d</fix>
</trkpt>
<trkpt lat="33.810313" lon="-118.393867">
  <ele>0.0</ele>
  <time>2026-09-01T01:13:37Z</time>
  <course>185.41</course>
  <speed>0.0</speed>
  <fix>3d</fix>
</trkpt>
<trkpt lat="33.810313" lon="-118.393867">
  <ele>-0.13</ele>
  <time>2026-09-01T01:13:37Z</time>
  <course>0.0</course>
  <speed>0.0</speed>
  <fix>3d</fix>
</trkpt>
<trkpt lat="33.810313" lon="-118.393867">
  <ele>0.0</ele>
  <time>2026-09-01T01:13:37Z</time>
  <course>185.57</course>
  <speed>0.0</speed>
  <fix>3d</fix>
</trkpt>
<trkpt lat="33.810313" lon="-118.393867">
  <ele>-0.13</ele>
  <time>2026-09-01T01:13:37Z</time>
  <course>0.0</course>
  <speed>0.0</speed>
  <fix>3d</fix>
</trkpt>
<trkpt lat="33.810313" lon="-118.393867">
  <ele>0.0</ele>
  <time>2026-09-01T01:13:37Z</time>
  <course>185.72</course>
  <speed>0.0</speed>
  <fix>3d</fix>
</trkpt>
<trkpt lat="33.810313" lon="-118.393867">
  <ele>-0.13</ele>
  <time>2026-09-01T01:13:37Z</time>
  <course>0.0</course>
  <speed>0.0</speed>
  <fix>3d</fix>
</trkpt>
<trkpt lat="33.810313" lon="-118.393867">
  <ele>0.0</ele>
  <time>2026-09-01T01:13:37Z</time>
  <course>185.86</course>
  <speed>0.0</speed>
  <fix>3d</fix>
</trkpt>
<trkpt lat="33.810313" lon="-118.393867">
  <ele>-0.13</ele>
  <time>2026-09-01T01:13:37Z</time>
  <course>0.0</course>
  <speed>0.0</speed>
  <fix>3d</fix>
</trkpt>
<trkpt lat="33.810313" lon="-118.393867">
  <ele>0.0</ele>
  <time>2026-09-01T01:13:37Z</time>
  <course>186.0</course>
  <speed>0.0</speed>
  <fix>3d</fix>
</trkpt>
<trkpt lat="33.810313" lon="-118.393867">
  <ele>-0.12</ele>
  <time>2026-09-01T01:13:37Z</time>
  <course>0.0</course>
  <speed>0.0</speed>
  <fix>3d</fix>
</trkpt>
<trkpt lat="33.810313" lon="-118.393867">
  <ele>0.0</ele>
  <time>2026-09-01T01:13:37Z</time>
  <course>186.13</course>
  <speed>0.0</speed>
  <fix>3d</fix>
</trkpt>
<trkpt lat="33.810313" lon="-118.393867">
  <ele>-0.12</ele>
  <time>2026-09-01T01:13:37Z</time>
  <course>0.0</course>
  <speed>0.0</speed>
  <fix>3d</fix>
</trkpt>
<trkpt lat="33.810313" lon="-118.393867">
  <ele>0.0</ele>
  <time>2026-09-01T01:13:37Z</time>
  <course>186.26</course>
  <speed>0.0</speed>
  <fix>3d</fix>
</trkpt>
<trkpt lat="33.810313" lon="-118.393867">
  <ele>-0.12</ele>
  <time>2026-09-01T01:13:37Z</time>
  <course>0.0</course>
  <speed>0.0</speed>
  <fix>3d</fix>
</trkpt>
<trkpt lat="33.810313" lon="-118.393867">
  <ele>0.0</ele>
  <time>2026-09-01T01:13:37Z</time>
  <course>186.38</course>
  <speed>0.0</speed>
  <fix>3d</fix>
</trkpt>
<trkpt lat="33.810313" lon="-118.393867">
  <ele>-0.12</ele>
  <time>2026-09-01T01:13:37Z</time>
  <course>0.0</course>
  <speed>0.0</speed>
  <fix>3d</fix>
</trkpt>
<trkpt lat="33.810313" lon="-118.393867">
  <ele>0.0</ele>
  <time>2026-09-01T01:13:37Z</time>
  <course>186.49</course>
  <speed>0.0</speed>
  <fix>3d</fix>
</trkpt>
<trkpt lat="33.810313" lon="-118.393867">
  <ele>-0.12</ele>
  <time>2026-09-01T01:13:37Z</time>
  <course>0.0</course>
  <speed>0.0</speed>
  <fix>3d</fix>
</trkpt>
<trkpt lat="33.810313" lon="-118.393867">
  <ele>0.0</ele>
  <time>2026-09-01T01:13:37Z</time>
  <course>186.6</course>
  <speed>0.0</speed>
  <fix>3d</fix>
</trkpt>
<trkpt lat="33.810313" lon="-118.393867">
  <ele>-0.12</ele>
  <time>2026-09-01T01:13:37Z</time>
  <course>0.0</course>
  <speed>0.0</speed>
  <fix>3d</fix>
</trkpt>
<trkpt lat="33.810313" lon="-118.393867">
  <ele>0.0</ele>
  <time>2026-09-01T01:13:37Z</time>
  <course>186.71</course>
  <speed>0.0</speed>
  <fix>3d</fix>
</trkpt>
<trkpt lat="33.810313" lon="-118.393867">
  <ele>-0.12</ele>
  <time>2026-09-01T01:13:37Z</time>
  <course>0.0</course>
  <speed>0.0</speed>
  <fix>3d</fix>
</trkpt>
<trkpt lat="33.810313" lon="-118.393867">
  <ele>0.0</ele>
  <time>2026-09-01T01:13:37Z</time>
  <course>186.81</course>
  <speed>0.0</speed>
  <fix>3d</fix>
</trkpt>
<trkpt lat="33.810313" lon="-118.393867">
  <ele>-0.12</ele>
  <time>2026-09-01T01:13:37Z</time>
  <course>0.0</course>
  <speed>0.0</speed>
  <fix>3d</fix>
</trkpt>
<trkpt lat="33.810313" lon="-118.393867">
  <ele>0.0</ele>
  <time>2026-09-01T01:13:37Z</time>
  <course>186.91</course>
  <speed>0.0</speed>
  <fix>3d</fix>
</trkpt>
<trkpt lat="33.810313" lon="-118.393867">
  <ele>-0.12</ele>
  <time>2026-09-01T01:13:37Z</time>
  <course>0.0</course>
  <speed>0.0</speed>
  <fix>3d</fix>
</trkpt>
<trkpt lat="33.810313" lon="-118.393867">
  <ele>0.0</ele>
  <time>2026-09-01T01:13:37Z</time>
  <course>187.0</course>
  <speed>0.0</speed>
  <fix>3d</fix>
</trkpt>
<trkpt lat="33.810313" lon="-118.393867">
  <ele>-0.12</ele>
  <time>2026-09-01T01:13:37Z</time>
  <course>0.0</course>
  <speed>0.0</speed>
  <fix>3d</fix>
</trkpt>
<trkpt lat="33.810313" lon="-118.393867">
  <ele>0.0</ele>
  <time>2026-09-01T01:13:37Z</time>
  <course>187.08</course>
  <speed>0.0</speed>
  <fix>3d</fix>
</trkpt>
<trkpt lat="33.810313" lon="-118.393867">
  <ele>-0.13</ele>
  <time>2026-09-01T01:13:37Z</time>
  <course>0.0</course>
  <speed>0.0</speed>
  <fix>3d</fix>
</trkpt>
<trkpt lat="33.810313" lon="-118.393867">
  <ele>0.0</ele>
  <time>2026-09-01T01:13:37Z</time>
  <course>187.17</course>
  <speed>0.0</speed>
  <fix>3d</fix>
</trkpt>
<trkpt lat="33.810313" lon="-118.393867">
  <ele>-0.13</ele>
  <time>2026-09-01T01:13:37Z</time>
  <course>0.0</course>
  <speed>0.0</speed>
  <fix>3d</fix>
</trkpt>
<trkpt lat="33.810313" lon="-118.393867">
  <ele>0.0</ele>
  <time>2026-09-01T01:13:37Z</time>
  <course>187.25</course>
  <speed>0.0</speed>
  <fix>3d</fix>
</trkpt>
<trkpt lat="33.810313" lon="-118.393867">
  <ele>-0.13</ele>
  <time>2026-09-01T01:13:37Z</time>
  <course>0.0</course>
  <speed>0.0</speed>
  <fix>3d</fix>
</trkpt>
<trkpt lat="33.810313" lon="-118.393867">
  <ele>0.0</ele>
  <time>2026-09-01T01:13:37Z</time>
  <course>187.32</course>
  <speed>0.0</speed>
  <fix>3d</fix>
</trkpt>
<trkpt lat="33.810313" lon="-118.393867">
  <ele>-0.13</ele>
  <time>2026-09-01T01:13:37Z</time>
  <course>0.0</course>
  <speed>0.0</speed>
  <fix>3d</fix>
</trkpt>
<trkpt lat="33.810313" lon="-118.393867">
  <ele>0.0</ele>
  <time>2026-09-01T01:13:37Z</time>
  <course>187.39</course>
  <speed>0.0</speed>
  <fix>3d</fix>
</trkpt>
<trkpt lat="33.810313" lon="-118.393867">
  <ele>-0.13</ele>
  <time>2026-09-01T01:13:37Z</time>
  <course>0.0</course>
  <speed>0.0</speed>
  <fix>3d</fix>
</trkpt>
<trkpt lat="33.810313" lon="-118.393867">
  <ele>0.0</ele>
  <time>2026-09-01T01:13:37Z</time>
  <course>187.46</course>
  <speed>0.0</speed>
  <fix>3d</fix>
</trkpt>
<trkpt lat="33.810313" lon="-118.393867">
  <ele>-0.13</ele>
  <time>2026-09-01T01:13:37Z</time>
  <course>0.0</course>
  <speed>0.0</speed>
  <fix>3d</fix>
</trkpt>
<trkpt lat="33.810313" lon="-118.393867">
  <ele>0.0</ele>
  <time>2026-09-01T01:13:37Z</time>
  <course>187.53</course>
  <speed>0.0</speed>
  <fix>3d</fix>
</trkpt>
<trkpt lat="33.810313" lon="-118.393867">
  <ele>-0.13</ele>
  <time>2026-09-01T01:13:37Z</time>
  <course>0.0</course>
  <speed>0.0</speed>
  <fix>3d</fix>
</trkpt>
<trkpt lat="33.810313" lon="-118.393867">
  <ele>0.0</ele>
  <time>2026-09-01T01:13:37Z</time>
  <course>187.59</course>
  <speed>0.0</speed>
  <fix>3d</fix>
</trkpt>
<trkpt lat="33.810313" lon="-118.393867">
  <ele>-0.13</ele>
  <time>2026-09-01T01:13:37Z</time>
  <course>0.0</course>
  <speed>0.0</speed>
  <fix>3d</fix>
</trkpt>
<trkpt lat="33.810313" lon="-118.393867">
  <ele>0.0</ele>
  <time>2026-09-01T01:13:37Z</time>
  <course>187.65</course>
  <speed>0.0</speed>
  <fix>3d</fix>
</trkpt>
<trkpt lat="33.810313" lon="-118.393867">
  <ele>-0.12</ele>
  <time>2026-09-01T01:13:37Z</time>
  <course>0.0</course>
  <speed>0.0</speed>
  <fix>3d</fix>
</trkpt>
<trkpt lat="33.810313" lon="-118.393867">
  <ele>0.0</ele>
  <time>2026-09-01T01:13:37Z</time>
  <course>187.7</course>
  <speed>0.0</speed>
  <fix>3d</fix>
</trkpt>
<trkpt lat="33.810313" lon="-118.393867">
  <ele>-0.12</ele>
  <time>2026-09-01T01:13:37Z</time>
  <course>0.0</course>
  <speed>0.0</speed>
  <fix>3d</fix>
</trkpt>
<trkpt lat="33.810313" lon="-118.393867">
  <ele>0.0</ele>
  <time>2026-09-01T01:13:37Z</time>
  <course>187.76</course>
  <speed>0.0</speed>
  <fix>3d</fix>
</trkpt>
<trkpt lat="33.810313" lon="-118.393867">
  <ele>-0.12</ele>
  <time>2026-09-01T01:13:37Z</time>
  <course>0.0</course>
  <speed>0.0</speed>
  <fix>3d</fix>
</trkpt>
<trkpt lat="33.810313" lon="-118.393867">
  <ele>0.0</ele>
  <time>2026-09-01T01:13:37Z</time>
  <course>187.81</course>
  <speed>0.0</speed>
  <fix>3d</fix>
</trkpt>
<trkpt lat="33.810313" lon="-118.393867">
  <ele>-0.12</ele>
  <time>2026-09-01T01:13:37Z</time>
  <course>0.0</course>
  <speed>0.0</speed>
  <fix>3d</fix>
</trkpt>
<trkpt lat="33.810313" lon="-118.393867">
  <ele>0.0</ele>
  <time>2026-09-01T01:13:37Z</time>
  <course>187.86</course>
  <speed>0.0</speed>
  <fix>3d</fix>
</trkpt>
<trkpt lat="33.810313" lon="-118.393867">
  <ele>-0.12</ele>
  <time>2026-09-01T01:13:37Z</time>
  <course>0.0</course>
  <speed>0.0</speed>
  <fix>3d</fix>
</trkpt>
<trkpt lat="33.810313" lon="-118.393867">
  <ele>0.0</ele>
  <time>2026-09-01T01:13:37Z</time>
  <course>187.9</course>
  <speed>0.0</speed>
  <fix>3d</fix>
</trkpt>
<trkpt lat="33.810313" lon="-118.393867">
  <ele>-0.12</ele>
  <time>2026-09-01T01:13:37Z</time>
  <course>0.0</course>
  <speed>0.0</speed>
  <fix>3d</fix>
</trkpt>
<trkpt lat="33.810313" lon="-118.393867">
  <ele>0.0</ele>
  <time>2026-09-01T01:13:37Z</time>
  <course>187.95</course>
  <speed>0.0</speed>
  <fix>3d</fix>
</trkpt>
<trkpt lat="33.810313" lon="-118.393867">
  <ele>-0.12</ele>
  <time>2026-09-01T01:13:37Z</time>
  <course>0.0</course>
  <speed>0.0</speed>
  <fix>3d</fix>
</trkpt>
<trkpt lat="33.810313" lon="-118.393867">
  <ele>0.0</ele>
  <time>2026-09-01T01:13:37Z</time>
  <course>187.99</course>
  <speed>0.0</speed>
  <fix>3d</fix>
</trkpt>
<trkpt lat="33.810313" lon="-118.393867">
  <ele>-0.12</ele>
  <time>2026-09-01T01:13:37Z</time>
  <course>0.0</course>
  <speed>0.0</speed>
  <fix>3d</fix>
</trkpt>
<trkpt lat="33.810313" lon="-118.393867">
  <ele>0.0</ele>
  <time>2026-09-01T01:13:37Z</time>
  <course>188.03</course>
  <speed>0.0</speed>
  <fix>3d</fix>
</trkpt>
<trkpt lat="33.810313" lon="-118.393867">
  <ele>-0.12</ele>
  <time>2026-09-01T01:13:37Z</time>
  <course>0.0</course>
  <speed>0.0</speed>
  <fix>3d</fix>
</trkpt>
<trkpt lat="33.810313" lon="-118.393867">
  <ele>0.0</ele>
  <time>2026-09-01T01:13:37Z</time>
  <course>188.06</course>
  <speed>0.0</speed>
  <fix>3d</fix>
</trkpt>
<trkpt lat="33.810313" lon="-118.393867">
  <ele>-0.12</ele>
  <time>2026-09-01T01:13:37Z</time>
  <course>0.0</course>
  <speed>0.0</speed>
  <fix>3d</fix>
</trkpt>
<trkpt lat="33.810313" lon="-118.393867">
  <ele>0.0</ele>
  <time>2026-09-01T01:13:37Z</time>
  <course>188.1</course>
  <speed>0.0</speed>
  <fix>3d</fix>
</trkpt>
<trkpt lat="33.810313" lon="-118.393867">
  <ele>-0.13</ele>
  <time>2026-09-01T01:13:37Z</time>
  <course>0.0</course>
  <speed>0.0</speed>
  <fix>3d</fix>
</trkpt>
<trkpt lat="33.810313" lon="-118.393867">
  <ele>0.0</ele>
  <time>2026-09-01T01:13:37Z</time>
  <course>188.13</course>
  <speed>0.0</speed>
  <fix>3d</fix>
</trkpt>
<trkpt lat="33.810313" lon="-118.393867">
  <ele>-0.13</ele>
  <time>2026-09-01T01:13:37Z</time>
  <course>0.0</course>
  <speed>0.0</speed>
  <fix>3d</fix>
</trkpt>
<trkpt lat="33.810313" lon="-118.393867">
  <ele>0.0</ele>
  <time>2026-09-01T01:13:37Z</time>
  <course>188.16</course>
  <speed>0.0</speed>
  <fix>3d</fix>
</trkpt>
<trkpt lat="33.810313" lon="-118.393867">
  <ele>-0.13</ele>
  <time>2026-09-01T01:13:37Z</time>
  <course>0.0</course>
  <speed>0.0</speed>
  <fix>3d</fix>
</trkpt>
<trkpt lat="33.810313" lon="-118.393867">
  <ele>0.0</ele>
  <time>2026-09-01T01:13:37Z</time>
  <course>188.19</course>
  <speed>0.0</speed>
  <fix>3d</fix>
</trkpt>
<trkpt lat="33.810313" lon="-118.393867">
  <ele>-0.13</ele>
  <time>2026-09-01T01:13:37Z</time>
  <course>0.0</course>
  <speed>0.0</speed>
  <fix>3d</fix>
</trkpt>
<trkpt lat="33.810313" lon="-118.393867">
  <ele>0.0</ele>
  <time>2026-09-01T01:13:37Z</time>
  <course>188.22</course>
  <speed>0.0</speed>
  <fix>3d</fix>
</trkpt>
<trkpt lat="33.810313" lon="-118.393867">
  <ele>-0.13</ele>
  <time>2026-09-01T01:13:37Z</time>
  <course>0.0</course>
  <speed>0.0</speed>
  <fix>3d</fix>
</trkpt>
<trkpt lat="33.810313" lon="-118.393867">
  <ele>0.0</ele>
  <time>2026-09-01T01:13:37Z</time>
  <course>188.25</course>
  <speed>0.0</speed>
  <fix>3d</fix>
</trkpt>
<trkpt lat="33.810313" lon="-118.393867">
  <ele>-0.13</ele>
  <time>2026-09-01T01:13:37Z</time>
  <course>0.0</course>
  <speed>0.0</speed>
  <fix>3d</fix>
</trkpt>
<trkpt lat="33.810313" lon="-118.393867">
  <ele>0.0</ele>
  <time>2026-09-01T01:13:37Z</time>
  <course>188.27</course>
  <speed>0.0</speed>
  <fix>3d</fix>
</trkpt>
<trkpt lat="33.810313" lon="-118.393867">
  <ele>-0.12</ele>
  <time>2026-09-01T01:13:37Z</time>
  <course>0.0</course>
  <speed>0.0</speed>
  <fix>3d</fix>
</trkpt>
<trkpt lat="33.810313" lon="-118.393867">
  <ele>0.0</ele>
  <time>2026-09-01T01:13:37Z</time>
  <course>188.3</course>
  <speed>0.0</speed>
  <fix>3d</fix>
</trkpt>
<trkpt lat="33.810313" lon="-118.393867">
  <ele>-0.12</ele>
  <time>2026-09-01T01:13:37Z</time>
  <course>0.0</course>
  <speed>0.0</speed>
  <fix>3d</fix>
</trkpt>
<trkpt lat="33.810313" lon="-118.393867">
  <ele>0.0</ele>
  <time>2026-09-01T01:13:37Z</time>
  <course>188.32</course>
  <speed>0.0</speed>
  <fix>3d</fix>
</trkpt>
<trkpt lat="33.810313" lon="-118.393867">
  <ele>-0.12</ele>
  <time>2026-09-01T01:13:37Z</time>
  <course>0.0</course>
  <speed>0.0</speed>
  <fix>3d</fix>
</trkpt>
<trkpt lat="33.810313" lon="-118.393867">
  <ele>0.0</ele>
  <time>2026-09-01T01:13:37Z</time>
  <course>188.34</course>
  <speed>0.0</speed>
  <fix>3d</fix>
</trkpt>
<trkpt lat="33.810313" lon="-118.393867">
  <ele>-0.12</ele>
  <time>2026-09-01T01:13:37Z</time>
  <course>0.0</course>
  <speed>0.0</speed>
  <fix>3d</fix>
</trkpt>
<trkpt lat="33.810313" lon="-118.393867">
  <ele>0.0</ele>
  <time>2026-09-01T01:13:37Z</time>
  <course>188.36</course>
  <speed>0.0</speed>
  <fix>3d</fix>
</trkpt>
<trkpt lat="33.810313" lon="-118.393867">
  <ele>-0.12</ele>
  <time>2026-09-01T01:13:37Z</time>
  <course>0.0</course>
  <speed>0.0</speed>
  <fix>3d</fix>
</trkpt>
<trkpt lat="33.810313" lon="-118.393867">
  <ele>0.0</ele>
  <time>2026-09-01T01:13:37Z</time>
  <course>188.38</course>
  <speed>0.0</speed>
  <fix>3d</fix>
</trkpt>
<trkpt lat="33.810313" lon="-118.393867">
  <ele>-0.12</ele>
  <time>2026-09-01T01:13:37Z</time>
  <course>0.0</course>
  <speed>0.0</speed>
  <fix>3d</fix>
</trkpt>
<trkpt lat="33.810313" lon="-118.393867">
  <ele>0.0</ele>
  <time>2026-09-01T01:13:37Z</time>
  <course>188.39</course>
  <speed>0.0</speed>
  <fix>3d</fix>
</trkpt>
<trkpt lat="33.810313" lon="-118.393867">
  <ele>-0.12</ele>
  <time>2026-09-01T01:13:37Z</time>
  <course>0.0</course>
  <speed>0.0</speed>
  <fix>3d</fix>
</trkpt>
<trkpt lat="33.810313" lon="-118.393867">
  <ele>0.0</ele>
  <time>2026-09-01T01:13:37Z</time>
  <course>188.41</course>
  <speed>0.0</speed>
  <fix>3d</fix>
</trkpt>
<trkpt lat="33.810313" lon="-118.393867">
  <ele>-0.12</ele>
  <time>2026-09-01T01:13:37Z</time>
  <course>0.0</course>
  <speed>0.0</speed>
  <fix>3d</fix>
</trkpt>
<trkpt lat="33.810313" lon="-118.393867">
  <ele>0.0</ele>
  <time>2026-09-01T01:13:37Z</time>
  <course>188.43</course>
  <speed>0.0</speed>
  <fix>3d</fix>
</trkpt>
<trkpt lat="33.810313" lon="-118.393867">
  <ele>-0.12</ele>
  <time>2026-09-01T01:13:37Z</time>
  <course>0.0</course>
  <speed>0.0</speed>
  <fix>3d</fix>
</trkpt>
<trkpt lat="33.810313" lon="-118.393867">
  <ele>0.0</ele>
  <time>2026-09-01T01:13:37Z</time>
  <course>188.44</course>
  <speed>0.0</speed>
  <fix>3d</fix>
</trkpt>
<trkpt lat="33.810313" lon="-118.393867">
  <ele>-0.12</ele>
  <time>2026-09-01T01:13:37Z</time>
  <course>0.0</course>
  <speed>0.0</speed>
  <fix>3d</fix>
</trkpt>
<trkpt lat="33.810313" lon="-118.393867">
  <ele>0.0</ele>
  <time>2026-09-01T01:13:37Z</time>
  <course>188.45</course>
  <speed>0.0</speed>
  <fix>3d</fix>
</trkpt>
<trkpt lat="33.810313" lon="-118.393867">
  <ele>-0.13</ele>
  <time>2026-09-01T01:13:37Z</time>
  <course>0.0</course>
  <speed>0.0</speed>
  <fix>3d</fix>
</trkpt>
<trkpt lat="33.810313" lon="-118.393867">
  <ele>0.0</ele>
  <time>2026-09-01T01:13:37Z</time>
  <course>188.46</course>
  <speed>0.0</speed>
  <fix>3d</fix>
</trkpt>
<trkpt lat="33.810313" lon="-118.393867">
  <ele>-0.13</ele>
  <time>2026-09-01T01:13:37Z</time>
  <course>0.0</course>
  <speed>0.0</speed>
  <fix>3d</fix>
</trkpt>
<trkpt lat="33.810313" lon="-118.393867">
  <ele>0.0</ele>
  <time>2026-09-01T01:13:37Z</time>
  <course>188.47</course>
  <speed>0.0</speed>
  <fix>3d</fix>
</trkpt>
<trkpt lat="33.810313" lon="-118.393867">
  <ele>-0.13</ele>
  <time>2026-09-01T01:13:37Z</time>
  <course>0.0</course>
  <speed>0.0</speed>
  <fix>3d</fix>
</trkpt>
<trkpt lat="33.810313" lon="-118.393867">
  <ele>0.0</ele>
  <time>2026-09-01T01:13:37Z</time>
  <course>188.48</course>
  <speed>0.0</speed>
  <fix>3d</fix>
</trkpt>
<trkpt lat="33.810313" lon="-118.393867">
  <ele>-0.13</ele>
  <time>2026-09-01T01:13:37Z</time>
  <course>0.0</course>
  <speed>0.0</speed>
  <fix>3d</fix>
</trkpt>
<trkpt lat="33.810313" lon="-118.393867">
  <ele>0.0</ele>
  <time>2026-09-01T01:13:37Z</time>
  <course>188.49</course>
  <speed>0.0</speed>
  <fix>3d</fix>
</trkpt>
<trkpt lat="33.810313" lon="-118.393867">
  <ele>-0.13</ele>
  <time>2026-09-01T01:13:37Z</time>
  <course>0.0</course>
  <speed>0.0</speed>
  <fix>3d</fix>
</trkpt>
<trkpt lat="33.810313" lon="-118.393867">
  <ele>0.0</ele>
  <time>2026-09-01T01:13:37Z</time>
  <course>188.5</course>
  <speed>0.0</speed>
  <fix>3d</fix>
</trkpt>
<trkpt lat="33.810313" lon="-118.393867">
  <ele>-0.13</ele>
  <time>2026-09-01T01:13:37Z</time>
  <course>0.0</course>
  <speed>0.0</speed>
  <fix>3d</fix>
</trkpt>
<trkpt lat="33.810313" lon="-118.393867">
  <ele>0.0</ele>
  <time>2026-09-01T01:13:37Z</time>
  <course>188.51</course>
  <speed>0.0</speed>
  <fix>3d</fix>
</trkpt>
<trkpt lat="33.810313" lon="-118.393867">
  <ele>-0.12</ele>
  <time>2026-09-01T01:13:37Z</time>
  <course>0.0</course>
  <speed>0.0</speed>
  <fix>3d</fix>
</trkpt>
<trkpt lat="33.810313" lon="-118.393867">
  <ele>0.0</ele>
  <time>2026-09-01T01:13:37Z</time>
  <course>188.52</course>
  <speed>0.0</speed>
  <fix>3d</fix>
</trkpt>
<trkpt lat="33.810313" lon="-118.393867">
  <ele>-0.12</ele>
  <time>2026-09-01T01:13:37Z</time>
  <course>0.0</course>
  <speed>0.0</speed>
  <fix>3d</fix>
</trkpt>
<trkpt lat="33.810313" lon="-118.393867">
  <ele>0.0</ele>
  <time>2026-09-01T01:13:37Z</time>
  <course>188.53</course>
  <speed>0.0</speed>
  <fix>3d</fix>
</trkpt>
<trkpt lat="33.810313" lon="-118.393867">
  <ele>-0.12</ele>
  <time>2026-09-01T01:13:37Z</time>
  <course>0.0</course>
  <speed>0.0</speed>
  <fix>3d</fix>
</trkpt>
<trkpt lat="33.810313" lon="-118.393867">
  <ele>0.0</ele>
  <time>2026-09-01T01:13:37Z</time>
  <course>188.53</course>
  <speed>0.0</speed>
  <fix>3d</fix>
</trkpt>
<trkpt lat="33.810313" lon="-118.393867">
  <ele>-0.12</ele>
  <time>2026-09-01T01:13:37Z</time>
  <course>0.0</course>
  <speed>0.0</speed>
  <fix>3d</fix>
</trkpt>
<trkpt lat="33.810313" lon="-118.393867">
  <ele>0.0</ele>
  <time>2026-09-01T01:13:37Z</time>
  <course>188.54</course>
  <speed>0.0</speed>
  <fix>3d</fix>
</trkpt>
<trkpt lat="33.810313" lon="-118.393867">
  <ele>-0.12</ele>
  <time>2026-09-01T01:13:37Z</time>
  <course>0.0</course>
  <speed>0.0</speed>
  <fix>3d</fix>
</trkpt>
<trkpt lat="33.810313" lon="-118.393867">
  <ele>0.0</ele>
  <time>2026-09-01T01:13:37Z</time>
  <course>188.54</course>
  <speed>0.0</speed>
  <fix>3d</fix>
</trkpt>
<trkpt lat="33.810313" lon="-118.393867">
  <ele>-0.12</ele>
  <time>2026-09-01T01:13:37Z</time>
  <course>0.0</course>
  <speed>0.0</speed>
  <fix>3d</fix>
</trkpt>
<trkpt lat="33.810313" lon="-118.393867">
  <ele>0.0</ele>
  <time>2026-09-01T01:13:37Z</time>
  <course>188.54</course>
  <speed>0.0</speed>
  <fix>3d</fix>
</trkpt>
<trkpt lat="33.810313" lon="-118.393867">
  <ele>-0.12</ele>
  <time>2026-09-01T01:13:37Z</time>
  <course>0.0</course>
  <speed>0.0</speed>
  <fix>3d</fix>
</trkpt>
<trkpt lat="33.810313" lon="-118.393867">
  <ele>0.0</ele>
  <time>2026-09-01T01:13:37Z</time>
  <course>188.55</course>
  <speed>0.0</speed>
  <fix>3d</fix>
</trkpt>
<trkpt lat="33.810313" lon="-118.393867">
  <ele>-0.12</ele>
  <time>2026-09-01T01:13:37Z</time>
  <course>0.0</course>
  <speed>0.0</speed>
  <fix>3d</fix>
</trkpt>
<trkpt lat="33.810313" lon="-118.393867">
  <ele>0.0</ele>
  <time>2026-09-01T01:13:37Z</time>
  <course>188.55</course>
  <speed>0.0</speed>
  <fix>3d</fix>
</trkpt>
<trkpt lat="33.810313" lon="-118.393867">
  <ele>-0.12</ele>
  <time>2026-09-01T01:13:37Z</time>
  <course>0.0</course>
  <speed>0.0</speed>
  <fix>3d</fix>
</trkpt>
<trkpt lat="33.810313" lon="-118.393867">
  <ele>0.0</ele>
  <time>2026-09-01T01:13:37Z</time>
  <course>188.55</course>
  <speed>0.0</speed>
  <fix>3d</fix>
</trkpt>
<trkpt lat="33.810313" lon="-118.393867">
  <ele>-0.12</ele>
  <time>2026-09-01T01:13:37Z</time>
  <course>0.0</course>
  <speed>0.0</speed>
  <fix>3d</fix>
</trkpt>
<trkpt lat="33.810313" lon="-118.393867">
  <ele>-0.125</ele>
  <time>2026-09-01T01:13:37Z</time>
  <course>188.55</course>
  <speed>0.0</speed>
  <fix>3d</fix>
</trkpt>
<trkpt lat="33.810313" lon="-118.393867">
  <ele>-0.13</ele>
  <time>2026-09-01T01:13:37Z</time>
  <course>0.0</course>
  <speed>0.0</speed>
  <fix>3d</fix>
</trkpt>
<trkpt lat="33.810313" lon="-118.393867">
  <ele>-0.125</ele>
  <time>2026-09-01T01:13:37Z</time>
  <course>188.56</course>
  <speed>0.0</speed>
  <fix>3d</fix>
</trkpt>
<trkpt lat="33.810313" lon="-118.393867">
  <ele>-0.13</ele>
  <time>2026-09-01T01:13:37Z</time>
  <course>0.0</course>
  <speed>0.0</speed>
  <fix>3d</fix>
</trkpt>
<trkpt lat="33.810313" lon="-118.393867">
  <ele>-0.125</ele>
  <time>2026-09-01T01:13:37Z</time>
  <course>188.56</course>
  <speed>0.0</speed>
  <fix>3d</fix>
</trkpt>
<trkpt lat="33.810313" lon="-118.393867">
  <ele>-0.13</ele>
  <time>2026-09-01T01:13:37Z</time>
  <course>0.0</course>
  <speed>0.0</speed>
  <fix>3d</fix>
</trkpt>
<trkpt lat="33.810313" lon="-118.393867">
  <ele>-0.125</ele>
  <time>2026-09-01T01:13:37Z</time>
  <course>188.56</course>
  <speed>0.0</speed>
  <fix>3d</fix>
</trkpt>
<trkpt lat="33.810313" lon="-118.393867">
  <ele>-0.13</ele>
  <time>2026-09-01T01:13:37Z</time>
  <course>0.0</course>
  <speed>0.0</speed>
  <fix>3d</fix>
</trkpt>
<trkpt lat="33.810313" lon="-118.393867">
  <ele>-0.122</ele>
  <time>2026-09-01T01:13:37Z</time>
  <course>188.56</course>
  <speed>0.0</speed>
  <fix>3d</fix>
</trkpt>
<trkpt lat="33.810313" lon="-118.393867">
  <ele>-0.12</ele>
  <time>2026-09-01T01:13:37Z</time>
  <course>0.0</course>
  <speed>0.0</speed>
  <fix>3d</fix>
</trkpt>
<trkpt lat="33.810313" lon="-118.393867">
  <ele>-0.119</ele>
  <time>2026-09-01T01:13:37Z</time>
  <course>188.56</course>
  <speed>0.0</speed>
  <fix>3d</fix>
</trkpt>
<trkpt lat="33.810313" lon="-118.393867">
  <ele>-0.12</ele>
  <time>2026-09-01T01:13:37Z</time>
  <course>0.0</course>
  <speed>0.0</speed>
  <fix>3d</fix>
</trkpt>
<trkpt lat="33.810313" lon="-118.393867">
  <ele>-0.117</ele>
  <time>2026-09-01T01:13:37Z</time>
  <course>188.56</course>
  <speed>0.0</speed>
  <fix>3d</fix>
</trkpt>
<trkpt lat="33.810313" lon="-118.393867">
  <ele>-0.12</ele>
  <time>2026-09-01T01:13:37Z</time>
  <course>0.0</course>
  <speed>0.0</speed>
  <fix>3d</fix>
</trkpt>
<trkpt lat="33.810313" lon="-118.393867">
  <ele>-0.117</ele>
  <time>2026-09-01T01:13:37Z</time>
  <course>188.56</course>
  <speed>0.0</speed>
  <fix>3d</fix>
</trkpt>
<trkpt lat="33.810313" lon="-118.393867">
  <ele>-0.12</ele>
  <time>2026-09-01T01:13:37Z</time>
  <course>0.0</course>
  <speed>0.0</speed>
  <fix>3d</fix>
</trkpt>
<trkpt lat="33.810313" lon="-118.393867">
  <ele>-0.118</ele>
  <time>2026-09-01T01:13:37Z</time>
  <course>188.55</course>
  <speed>0.0</speed>
  <fix>3d</fix>
</trkpt>
<trkpt lat="33.810313" lon="-118.393867">
  <ele>-0.12</ele>
  <time>2026-09-01T01:13:37Z</time>
  <course>0.0</course>
  <speed>0.0</speed>
  <fix>3d</fix>
</trkpt>
<trkpt lat="33.810313" lon="-118.393867">
  <ele>-0.12</ele>
  <time>2026-09-01T01:13:37Z</time>
  <course>188.55</course>
  <speed>0.0</speed>
  <fix>3d</fix>
</trkpt>
<trkpt lat="33.810313" lon="-118.393867">
  <ele>-0.12</ele>
  <time>2026-09-01T01:13:37Z</time>
  <course>0.0</course>
  <speed>0.0</speed>
  <fix>3d</fix>
</trkpt>
<trkpt lat="33.810313" lon="-118.393867">
  <ele>-0.123</ele>
  <time>2026-09-01T01:13:37Z</time>
  <course>188.55</course>
  <speed>0.0</speed>
  <fix>3d</fix>
</trkpt>
<trkpt lat="33.810313" lon="-118.393867">
  <ele>-0.12</ele>
  <time>2026-09-01T01:13:37Z</time>
  <course>0.0</course>
  <speed>0.0</speed>
  <fix>3d</fix>
</trkpt>
<trkpt lat="33.810313" lon="-118.393867">
  <ele>-0.124</ele>
  <time>2026-09-01T01:13:37Z</time>
  <course>188.55</course>
  <speed>0.0</speed>
  <fix>3d</fix>
</trkpt>
<trkpt lat="33.810313" lon="-118.393867">
  <ele>-0.12</ele>
  <time>2026-09-01T01:13:37Z</time>
  <course>0.0</course>
  <speed>0.0</speed>
  <fix>3d</fix>
</trkpt>
<trkpt lat="33.810313" lon="-118.393867">
  <ele>-0.124</ele>
  <time>2026-09-01T01:13:37Z</time>
  <course>188.55</course>
  <speed>0.0</speed>
  <fix>3d</fix>
</trkpt>
<trkpt lat="33.810313" lon="-118.393867">
  <ele>-0.12</ele>
  <time>2026-09-01T01:13:37Z</time>
  <course>0.0</course>
  <speed>0.0</speed>
  <fix>3d</fix>
</trkpt>
<trkpt lat="33.810313" lon="-118.393867">
  <ele>-0.125</ele>
  <time>2026-09-01T01:13:37Z</time>
  <course>188.55</course>
  <speed>0.0</speed>
  <fix>3d</fix>
</trkpt>
<trkpt lat="33.810313" lon="-118.393867">
  <ele>-0.12</ele>
  <time>2026-09-01T01:13:37Z</time>
  <course>0.0</course>
  <speed>0.0</speed>
  <fix>3d</fix>
</trkpt>
<trkpt lat="33.810313" lon="-118.393867">
  <ele>-0.125</ele>
  <time>2026-09-01T01:13:37Z</time>
  <course>188.55</course>
  <speed>0.0</speed>
  <fix>3d</fix>
</trkpt>
<trkpt lat="33.810313" lon="-118.393867">
  <ele>-0.12</ele>
  <time>2026-09-01T01:13:37Z</time>
  <course>0.0</course>
  <speed>0.0</speed>
  <fix>3d</fix>
</trkpt>
<trkpt lat="33.810313" lon="-118.393867">
  <ele>-0.125</ele>
  <time>2026-09-01T01:13:37Z</time>
  <course>188.55</course>
  <speed>0.0</speed>
  <fix>3d</fix>
</trkpt>
<trkpt lat="33.810313" lon="-118.393867">
  <ele>-0.12</ele>
  <time>2026-09-01T01:13:37Z</time>
  <course>0.0</course>
  <speed>0.0</speed>
  <fix>3d</fix>
</trkpt>
<trkpt lat="33.810313" lon="-118.393867">
  <ele>-0.125</ele>
  <time>2026-09-01T01:13:37Z</time>
  <course>188.54</course>
  <speed>0.0</speed>
  <fix>3d</fix>
</trkpt>
<trkpt lat="33.810313" lon="-118.393867">
  <ele>-0.13</ele>
  <time>2026-09-01T01:13:37Z</time>
  <course>0.0</course>
  <speed>0.0</speed>
  <fix>3d</fix>
</trkpt>
<trkpt lat="33.810313" lon="-118.393867">
  <ele>-0.124</ele>
  <time>2026-09-01T01:13:37Z</time>
  <course>188.54</course>
  <speed>0.0</speed>
  <fix>3d</fix>
</trkpt>
<trkpt lat="33.810313" lon="-118.393867">
  <ele>-0.13</ele>
  <time>2026-09-01T01:13:37Z</time>
  <course>0.0</course>
  <speed>0.0</speed>
  <fix>3d</fix>
</trkpt>
<trkpt lat="33.810313" lon="-118.393867">
  <ele>-0.122</ele>
  <time>2026-09-01T01:13:37Z</time>
  <course>188.53</course>
  <speed>0.0</speed>
  <fix>3d</fix>
</trkpt>
<trkpt lat="33.810313" lon="-118.393867">
  <ele>-0.12</ele>
  <time>2026-09-01T01:13:37Z</time>
  <course>0.0</course>
  <speed>0.0</speed>
  <fix>3d</fix>
</trkpt>
<trkpt lat="33.810313" lon="-118.393867">
  <ele>-0.119</ele>
  <time>2026-09-01T01:13:37Z</time>
  <course>188.53</course>
  <speed>0.0</speed>
  <fix>3d</fix>
</trkpt>
<trkpt lat="33.810313" lon="-118.393867">
  <ele>-0.12</ele>
  <time>2026-09-01T01:13:37Z</time>
  <course>0.0</course>
  <speed>0.0</speed>
  <fix>3d</fix>
</trkpt>
<trkpt lat="33.810313" lon="-118.393867">
  <ele>-0.117</ele>
  <time>2026-09-01T01:13:37Z</time>
  <course>188.52</course>
  <speed>0.0</speed>
  <fix>3d</fix>
</trkpt>
<trkpt lat="33.810313" lon="-118.393867">
  <ele>-0.12</ele>
  <time>2026-09-01T01:13:37Z</time>
  <course>0.0</course>
  <speed>0.0</speed>
  <fix>3d</fix>
</trkpt>
<trkpt lat="33.810313" lon="-118.393867">
  <ele>-0.116</ele>
  <time>2026-09-01T01:13:37Z</time>
  <course>188.52</course>
  <speed>0.0</speed>
  <fix>3d</fix>
</trkpt>
<trkpt lat="33.810313" lon="-118.393867">
  <ele>-0.12</ele>
  <time>2026-09-01T01:13:37Z</time>
  <course>0.0</course>
  <speed>0.0</speed>
  <fix>3d</fix>
</trkpt>
<trkpt lat="33.810313" lon="-118.393867">
  <ele>-0.118</ele>
  <time>2026-09-01T01:13:37Z</time>
  <course>188.51</course>
  <speed>0.0</speed>
  <fix>3d</fix>
</trkpt>
<trkpt lat="33.810313" lon="-118.393867">
  <ele>-0.12</ele>
  <time>2026-09-01T01:13:37Z</time>
  <course>0.0</course>
  <speed>0.0</speed>
  <fix>3d</fix>
</trkpt>
<trkpt lat="33.810313" lon="-118.393867">
  <ele>-0.12</ele>
  <time>2026-09-01T01:13:37Z</time>
  <course>188.51</course>
  <speed>0.0</speed>
  <fix>3d</fix>
</trkpt>
<trkpt lat="33.810313" lon="-118.393867">
  <ele>-0.12</ele>
  <time>2026-09-01T01:13:37Z</time>
  <course>0.0</course>
  <speed>0.0</speed>
  <fix>3d</fix>
</trkpt>
<trkpt lat="33.810313" lon="-118.393867">
  <ele>-0.121</ele>
  <time>2026-09-01T01:13:37Z</time>
  <course>188.5</course>
  <speed>0.0</speed>
  <fix>3d</fix>
</trkpt>
<trkpt lat="33.810313" lon="-118.393867">
  <ele>-0.12</ele>
  <time>2026-09-01T01:13:37Z</time>
  <course>0.0</course>
  <speed>0.0</speed>
  <fix>3d</fix>
</trkpt>
<trkpt lat="33.810313" lon="-118.393867">
  <ele>-0.123</ele>
  <time>2026-09-01T01:13:37Z</time>
  <course>188.5</course>
  <speed>0.0</speed>
  <fix>3d</fix>
</trkpt>
<trkpt lat="33.810313" lon="-118.393867">
  <ele>-0.12</ele>
  <time>2026-09-01T01:13:37Z</time>
  <course>0.0</course>
  <speed>0.0</speed>
  <fix>3d</fix>
</trkpt>
<trkpt lat="33.810313" lon="-118.393867">
  <ele>-0.123</ele>
  <time>2026-09-01T01:13:37Z</time>
  <course>188.49</course>
  <speed>0.0</speed>
  <fix>3d</fix>
</trkpt>
<trkpt lat="33.810313" lon="-118.393867">
  <ele>-0.12</ele>
  <time>2026-09-01T01:13:37Z</time>
  <course>0.0</course>
  <speed>0.0</speed>
  <fix>3d</fix>
</trkpt>
<trkpt lat="33.810313" lon="-118.393867">
  <ele>-0.123</ele>
  <time>2026-09-01T01:13:37Z</time>
  <course>188.49</course>
  <speed>0.01</speed>
  <fix>3d</fix>
</trkpt>
<trkpt lat="33.810313" lon="-118.393867">
  <ele>-0.12</ele>
  <time>2026-09-01T01:13:37Z</time>
  <course>0.0</course>
  <speed>0.0</speed>
  <fix>3d</fix>
</trkpt>
<trkpt lat="33.810313" lon="-118.393867">
  <ele>-0.122</ele>
  <time>2026-09-01T01:13:37Z</time>
  <course>188.48</course>
  <speed>0.01</speed>
  <fix>3d</fix>
</trkpt>
<trkpt lat="33.810313" lon="-118.393867">
  <ele>-0.12</ele>
  <time>2026-09-01T01:13:37Z</time>
  <course>0.0</course>
  <speed>0.0</speed>
  <fix>3d</fix>
</trkpt>
<trkpt lat="33.810313" lon="-118.393867">
  <ele>-0.121</ele>
  <time>2026-09-01T01:13:37Z</time>
  <course>188.47</course>
  <speed>0.01</speed>
  <fix>3d</fix>
</trkpt>
<trkpt lat="33.810313" lon="-118.393867">
  <ele>-0.12</ele>
  <time>2026-09-01T01:13:37Z</time>
  <course>0.0</course>
  <speed>0.0</speed>
  <fix>3d</fix>
</trkpt>
<trkpt lat="33.810313" lon="-118.393867">
  <ele>-0.119</ele>
  <time>2026-09-01T01:13:37Z</time>
  <course>188.47</course>
  <speed>0.01</speed>
  <fix>3d</fix>
</trkpt>
<trkpt lat="33.810313" lon="-118.393867">
  <ele>-0.12</ele>
  <time>2026-09-01T01:13:37Z</time>
  <course>0.0</course>
  <speed>0.0</speed>
  <fix>3d</fix>
</trkpt>
<trkpt lat="33.810313" lon="-118.393867">
  <ele>-0.116</ele>
  <time>2026-09-01T01:13:37Z</time>
  <course>188.46</course>
  <speed>0.01</speed>
  <fix>3d</fix>
</trkpt>
<trkpt lat="33.810313" lon="-118.393867">
  <ele>-0.12</ele>
  <time>2026-09-01T01:13:37Z</time>
  <course>0.0</course>
  <speed>0.0</speed>
  <fix>3d</fix>
</trkpt>
<trkpt lat="33.810313" lon="-118.393867">
  <ele>-0.115</ele>
  <time>2026-09-01T01:13:37Z</time>
  <course>188.45</course>
  <speed>0.01</speed>
  <fix>3d</fix>
</trkpt>
<trkpt lat="33.810313" lon="-118.393867">
  <ele>-0.12</ele>
  <time>2026-09-01T01:13:37Z</time>
  <course>0.0</course>
  <speed>0.0</speed>
  <fix>3d</fix>
</trkpt>
<trkpt lat="33.810313" lon="-118.393867">
  <ele>-0.114</ele>
  <time>2026-09-01T01:13:37Z</time>
  <course>188.45</course>
  <speed>0.01</speed>
  <fix>3d</fix>
</trkpt>
<trkpt lat="33.810313" lon="-118.393867">
  <ele>-0.12</ele>
  <time>2026-09-01T01:13:37Z</time>
  <course>0.0</course>
  <speed>0.0</speed>
  <fix>3d</fix>
</trkpt>
<trkpt lat="33.810313" lon="-118.393867">
  <ele>-0.113</ele>
  <time>2026-09-01T01:13:37Z</time>
  <course>188.44</course>
  <speed>0.01</speed>
  <fix>3d</fix>
</trkpt>
<trkpt lat="33.810313" lon="-118.393867">
  <ele>-0.12</ele>
  <time>2026-09-01T01:13:37Z</time>
  <course>0.0</course>
  <speed>0.0</speed>
  <fix>3d</fix>
</trkpt>
<trkpt lat="33.810313" lon="-118.393867">
  <ele>-0.113</ele>
  <time>2026-09-01T01:13:37Z</time>
  <course>188.43</course>
  <speed>0.01</speed>
  <fix>3d</fix>
</trkpt>
<trkpt lat="33.810313" lon="-118.393867">
  <ele>-0.12</ele>
  <time>2026-09-01T01:13:37Z</time>
  <course>0.0</course>
  <speed>0.0</speed>
  <fix>3d</fix>
</trkpt>
<trkpt lat="33.810313" lon="-118.393867">
  <ele>-0.115</ele>
  <time>2026-09-01T01:13:37Z</time>
  <course>188.43</course>
  <speed>0.01</speed>
  <fix>3d</fix>
</trkpt>
<trkpt lat="33.810313" lon="-118.393867">
  <ele>-0.12</ele>
  <time>2026-09-01T01:13:37Z</time>
  <course>0.0</course>
  <speed>0.0</speed>
  <fix>3d</fix>
</trkpt>
<trkpt lat="33.810313" lon="-118.393867">
  <ele>-0.117</ele>
  <time>2026-09-01T01:13:37Z</time>
  <course>188.42</course>
  <speed>0.01</speed>
  <fix>3d</fix>
</trkpt>
<trkpt lat="33.810313" lon="-118.393867">
  <ele>-0.12</ele>
  <time>2026-09-01T01:13:37Z</time>
  <course>0.0</course>
  <speed>0.0</speed>
  <fix>3d</fix>
</trkpt>
<trkpt lat="33.810313" lon="-118.393867">
  <ele>-0.118</ele>
  <time>2026-09-01T01:13:37Z</time>
  <course>188.41</course>
  <speed>0.01414213562373095</speed>
  <fix>3d</fix>
</trkpt>
<trkpt lat="33.810313" lon="-118.393867">
  <ele>-0.12</ele>
  <time>2026-09-01T01:13:37Z</time>
  <course>0.0</course>
  <speed>0.0</speed>
  <fix>3d</fix>
</trkpt>
<trkpt lat="33.810313" lon="-118.393867">
  <ele>-0.118</ele>
  <time>2026-09-01T01:13:37Z</time>
  <course>188.4</course>
  <speed>0.01414213562373095</speed>
  <fix>3d</fix>
</trkpt>
<trkpt lat="33.810313" lon="-118.393867">
  <ele>-0.12</ele>
  <time>2026-09-01T01:13:37Z</time>
  <course>0.0</course>
  <speed>0.0</speed>
  <fix>3d</fix>
</trkpt>
<trkpt lat="33.810313" lon="-118.393867">
  <ele>-0.118</ele>
  <time>2026-09-01T01:13:37Z</time>
  <course>188.4</course>
  <speed>0.01414213562373095</speed>
  <fix>3d</fix>
</trkpt>
<trkpt lat="33.810313" lon="-118.393867">
  <ele>-0.12</ele>
  <time>2026-09-01T01:13:37Z</time>
  <course>0.0</course>
  <speed>0.0</speed>
  <fix>3d</fix>
</trkpt>
<trkpt lat="33.810313" lon="-118.393867">
  <ele>-0.118</ele>
  <time>2026-09-01T01:13:37Z</time>
  <course>188.39</course>
  <speed>0.01414213562373095</speed>
  <fix>3d</fix>
</trkpt>
<trkpt lat="33.810313" lon="-118.393867">
  <ele>-0.12</ele>
  <time>2026-09-01T01:13:37Z</time>
  <course>0.0</course>
  <speed>0.0</speed>
  <fix>3d</fix>
</trkpt>
<trkpt lat="33.810313" lon="-118.393867">
  <ele>-0.118</ele>
  <time>2026-09-01T01:13:37Z</time>
  <course>188.38</course>
  <speed>0.01414213562373095</speed>
  <fix>3d</fix>
</trkpt>
<trkpt lat="33.810313" lon="-118.393867">
  <ele>-0.12</ele>
  <time>2026-09-01T01:13:37Z</time>
  <course>0.0</course>
  <speed>0.0</speed>
  <fix>3d</fix>
</trkpt>
<trkpt lat="33.810313" lon="-118.393867">
  <ele>-0.118</ele>
  <time>2026-09-01T01:13:37Z</time>
  <course>188.37</course>
  <speed>0.01414213562373095</speed>
  <fix>3d</fix>
</trkpt>
<trkpt lat="33.810313" lon="-118.393867">
  <ele>-0.12</ele>
  <time>2026-09-01T01:13:37Z</time>
  <course>0.0</course>
  <speed>0.0</speed>
  <fix>3d</fix>
</trkpt>
<trkpt lat="33.810313" lon="-118.393867">
  <ele>-0.117</ele>
  <time>2026-09-01T01:13:37Z</time>
  <course>188.37</course>
  <speed>0.01414213562373095</speed>
  <fix>3d</fix>
</trkpt>
<trkpt lat="33.810313" lon="-118.393867">
  <ele>-0.12</ele>
  <time>2026-09-01T01:13:37Z</time>
  <course>0.0</course>
  <speed>0.0</speed>
  <fix>3d</fix>
</trkpt>
<trkpt lat="33.810313" lon="-118.393867">
  <ele>-0.115</ele>
  <time>2026-09-01T01:13:37Z</time>
  <course>188.36</course>
  <speed>0.01414213562373095</speed>
  <fix>3d</fix>
</trkpt>
<trkpt lat="33.810313" lon="-118.393867">
  <ele>-0.12</ele>
  <time>2026-09-01T01:13:37Z</time>
  <course>0.0</course>
  <speed>0.0</speed>
  <fix>3d</fix>
</trkpt>
<trkpt lat="33.810313" lon="-118.393867">
  <ele>-0.113</ele>
  <time>2026-09-01T01:13:37Z</time>
  <course>188.35</course>
  <speed>0.01414213562373095</speed>
  <fix>3d</fix>
</trkpt>
<trkpt lat="33.810313" lon="-118.393867">
  <ele>-0.12</ele>
  <time>2026-09-01T01:13:37Z</time>
  <course>0.0</course>
  <speed>0.0</speed>
  <fix>3d</fix>
</trkpt>
<trkpt lat="33.810313" lon="-118.393867">
  <ele>-0.111</ele>
  <time>2026-09-01T01:13:37Z</time>
  <course>188.34</course>
  <speed>0.01414213562373095</speed>
  <fix>3d</fix>
</trkpt>
<trkpt lat="33.810313" lon="-118.393867">
  <ele>-0.12</ele>
  <time>2026-09-01T01:13:37Z</time>
  <course>0.0</course>
  <speed>0.0</speed>
  <fix>3d</fix>
</trkpt>
<trkpt lat="33.810313" lon="-118.393867">
  <ele>-0.112</ele>
  <time>2026-09-01T01:13:37Z</time>
  <course>188.34</course>
  <speed>0.01414213562373095</speed>
  <fix>3d</fix>
</trkpt>
<trkpt lat="33.810313" lon="-118.393867">
  <ele>-0.12</ele>
  <time>2026-09-01T01:13:37Z</time>
  <course>0.0</course>
  <speed>0.0</speed>
  <fix>3d</fix>
</trkpt>
<trkpt lat="33.810313" lon="-118.393867">
  <ele>-0.113</ele>
  <time>2026-09-01T01:13:37Z</time>
  <course>188.33</course>
  <speed>0.01414213562373095</speed>
  <fix>3d</fix>
</trkpt>
<trkpt lat="33.810313" lon="-118.393867">
  <ele>-0.12</ele>
  <time>2026-09-01T01:13:37Z</time>
  <course>0.0</course>
  <speed>0.0</speed>
  <fix>3d</fix>
</trkpt>
<trkpt lat="33.810313" lon="-118.393867">
  <ele>-0.114</ele>
  <time>2026-09-01T01:13:37Z</time>
  <course>188.32</course>
  <speed>0.01414213562373095</speed>
  <fix>3d</fix>
</trkpt>
<trkpt lat="33.810313" lon="-118.393867">
  <ele>-0.12</ele>
  <time>2026-09-01T01:13:37Z</time>
  <course>0.0</course>
  <speed>0.0</speed>
  <fix>3d</fix>
</trkpt>
<trkpt lat="33.810313" lon="-118.393867">
  <ele>-0.116</ele>
  <time>2026-09-01T01:13:37Z</time>
  <course>188.31</course>
  <speed>0.01414213562373095</speed>
  <fix>3d</fix>
</trkpt>
<trkpt lat="33.810313" lon="-118.393867">
  <ele>-0.12</ele>
  <time>2026-09-01T01:13:37Z</time>
  <course>0.0</course>
  <speed>0.0</speed>
  <fix>3d</fix>
</trkpt>
<trkpt lat="33.810313" lon="-118.393867">
  <ele>-0.116</ele>
  <time>2026-09-01T01:13:37Z</time>
  <course>188.3</course>
  <speed>0.01414213562373095</speed>
  <fix>3d</fix>
</trkpt>
<trkpt lat="33.810313" lon="-118.393867">
  <ele>-0.12</ele>
  <time>2026-09-01T01:13:37Z</time>
  <course>0.0</course>
  <speed>0.0</speed>
  <fix>3d</fix>
</trkpt>
<trkpt lat="33.810313" lon="-118.393867">
  <ele>-0.117</ele>
  <time>2026-09-01T01:13:37Z</time>
  <course>188.3</course>
  <speed>0.01414213562373095</speed>
  <fix>3d</fix>
</trkpt>
<trkpt lat="33.810313" lon="-118.393867">
  <ele>-0.12</ele>
  <time>2026-09-01T01:13:37Z</time>
  <course>0.0</course>
  <speed>0.0</speed>
  <fix>3d</fix>
</trkpt>
<trkpt lat="33.810313" lon="-118.393867">
  <ele>-0.117</ele>
  <time>2026-09-01T01:13:37Z</time>
  <course>188.29</course>
  <speed>0.01414213562373095</speed>
  <fix>3d</fix>
</trkpt>
<trkpt lat="33.810313" lon="-118.393867">
  <ele>-0.12</ele>
  <time>2026-09-01T01:13:37Z</time>
  <course>0.0</course>
  <speed>0.0</speed>
  <fix>3d</fix>
</trkpt>
<trkpt lat="33.810313" lon="-118.393867">
  <ele>-0.116</ele>
  <time>2026-09-01T01:13:37Z</time>
  <course>188.28</course>
  <speed>0.01414213562373095</speed>
  <fix>3d</fix>
</trkpt>
<trkpt lat="33.810313" lon="-118.393867">
  <ele>-0.12</ele>
  <time>2026-09-01T01:13:37Z</time>
  <course>0.0</course>
  <speed>0.0</speed>
  <fix>3d</fix>
</trkpt>
<trkpt lat="33.810313" lon="-118.393867">
  <ele>-0.116</ele>
  <time>2026-09-01T01:13:37Z</time>
  <course>188.27</course>
  <speed>0.01414213562373095</speed>
  <fix>3d</fix>
</trkpt>
<trkpt lat="33.810313" lon="-118.393867">
  <ele>-0.12</ele>
  <time>2026-09-01T01:13:37Z</time>
  <course>0.0</course>
  <speed>0.0</speed>
  <fix>3d</fix>
</trkpt>
<trkpt lat="33.810313" lon="-118.393867">
  <ele>-0.115</ele>
  <time>2026-09-01T01:13:37Z</time>
  <course>188.26</course>
  <speed>0.01414213562373095</speed>
  <fix>3d</fix>
</trkpt>
<trkpt lat="33.810313" lon="-118.393867">
  <ele>-0.12</ele>
  <time>2026-09-01T01:13:37Z</time>
  <course>0.0</course>
  <speed>0.0</speed>
  <fix>3d</fix>
</trkpt>
<trkpt lat="33.810313" lon="-118.393867">
  <ele>-0.113</ele>
  <time>2026-09-01T01:13:37Z</time>
  <course>188.25</course>
  <speed>0.01414213562373095</speed>
  <fix>3d</fix>
</trkpt>
<trkpt lat="33.810313" lon="-118.393867">
  <ele>-0.12</ele>
  <time>2026-09-01T01:13:37Z</time>
  <course>0.0</course>
  <speed>0.0</speed>
  <fix>3d</fix>
</trkpt>
<trkpt lat="33.810313" lon="-118.393867">
  <ele>-0.113</ele>
  <time>2026-09-01T01:13:37Z</time>
  <course>188.25</course>
  <speed>0.01414213562373095</speed>
  <fix>3d</fix>
</trkpt>
<trkpt lat="33.810313" lon="-118.393867">
  <ele>-0.12</ele>
  <time>2026-09-01T01:13:37Z</time>
  <course>0.0</course>
  <speed>0.0</speed>
  <fix>3d</fix>
</trkpt>
<trkpt lat="33.810313" lon="-118.393867">
  <ele>-0.114</ele>
  <time>2026-09-01T01:13:37Z</time>
  <course>188.24</course>
  <speed>0.01414213562373095</speed>
  <fix>3d</fix>
</trkpt>
<trkpt lat="33.810313" lon="-118.393867">
  <ele>-0.12</ele>
  <time>2026-09-01T01:13:37Z</time>
  <course>0.0</course>
  <speed>0.0</speed>
  <fix>3d</fix>
</trkpt>
<trkpt lat="33.810313" lon="-118.393867">
  <ele>-0.115</ele>
  <time>2026-09-01T01:13:37Z</time>
  <course>188.23</course>
  <speed>0.01414213562373095</speed>
  <fix>3d</fix>
</trkpt>
<trkpt lat="33.810313" lon="-118.393867">
  <ele>-0.12</ele>
  <time>2026-09-01T01:13:37Z</time>
  <course>0.0</course>
  <speed>0.0</speed>
  <fix>3d</fix>
</trkpt>
<trkpt lat="33.810313" lon="-118.393867">
  <ele>-0.117</ele>
  <time>2026-09-01T01:13:37Z</time>
  <course>188.22</course>
  <speed>0.01414213562373095</speed>
  <fix>3d</fix>
</trkpt>
<trkpt lat="33.810313" lon="-118.393867">
  <ele>-0.12</ele>
  <time>2026-09-01T01:13:37Z</time>
  <course>0.0</course>
  <speed>0.0</speed>
  <fix>3d</fix>
</trkpt>
<trkpt lat="33.810313" lon="-118.393867">
  <ele>-0.119</ele>
  <time>2026-09-01T01:13:37Z</time>
  <course>188.21</course>
  <speed>0.01414213562373095</speed>
  <fix>3d</fix>
</trkpt>
<trkpt lat="33.810313" lon="-118.393867">
  <ele>-0.12</ele>
  <time>2026-09-01T01:13:37Z</time>
  <course>0.0</course>
  <speed>0.0</speed>
  <fix>3d</fix>
</trkpt>
<trkpt lat="33.810313" lon="-118.393867">
  <ele>-0.119</ele>
  <time>2026-09-01T01:13:37Z</time>
  <course>188.21</course>
  <speed>0.01414213562373095</speed>
  <fix>3d</fix>
</trkpt>
<trkpt lat="33.810313" lon="-118.393867">
  <ele>-0.12</ele>
  <time>2026-09-01T01:13:37Z</time>
  <course>0.0</course>
  <speed>0.0</speed>
  <fix>3d</fix>
</trkpt>
<trkpt lat="33.810313" lon="-118.393867">
  <ele>-0.118</ele>
  <time>2026-09-01T01:13:37Z</time>
  <course>188.2</course>
  <speed>0.01414213562373095</speed>
  <fix>3d</fix>
</trkpt>
<trkpt lat="33.810313" lon="-118.393867">
  <ele>-0.12</ele>
  <time>2026-09-01T01:13:37Z</time>
  <course>0.0</course>
  <speed>0.0</speed>
  <fix>3d</fix>
</trkpt>
<trkpt lat="33.810313" lon="-118.393867">
  <ele>-0.117</ele>
  <time>2026-09-01T01:13:37Z</time>
  <course>188.19</course>
  <speed>0.01414213562373095</speed>
  <fix>3d</fix>
</trkpt>
<trkpt lat="33.810313" lon="-118.393867">
  <ele>-0.12</ele>
  <time>2026-09-01T01:13:37Z</time>
  <course>0.0</course>
  <speed>0.0</speed>
  <fix>3d</fix>
</trkpt>
<trkpt lat="33.810313" lon="-118.393867">
  <ele>-0.116</ele>
  <time>2026-09-01T01:13:37Z</time>
  <course>188.18</course>
  <speed>0.01414213562373095</speed>
  <fix>3d</fix>
</trkpt>
<trkpt lat="33.810313" lon="-118.393867">
  <ele>-0.12</ele>
  <time>2026-09-01T01:13:37Z</time>
  <course>0.0</course>
  <speed>0.0</speed>
  <fix>3d</fix>
</trkpt>
<trkpt lat="33.810313" lon="-118.393867">
  <ele>-0.115</ele>
  <time>2026-09-01T01:13:37Z</time>
  <course>188.17</course>
  <speed>0.01414213562373095</speed>
  <fix>3d</fix>
</trkpt>
<trkpt lat="33.810313" lon="-118.393867">
  <ele>-0.12</ele>
  <time>2026-09-01T01:13:37Z</time>
  <course>0.0</course>
  <speed>0.0</speed>
  <fix>3d</fix>
</trkpt>
<trkpt lat="33.810313" lon="-118.393867">
  <ele>-0.112</ele>
  <time>2026-09-01T01:13:37Z</time>
  <course>188.17</course>
  <speed>0.01414213562373095</speed>
  <fix>3d</fix>
</trkpt>
<trkpt lat="33.810313" lon="-118.393867">
  <ele>-0.12</ele>
  <time>2026-09-01T01:13:37Z</time>
  <course>0.0</course>
  <speed>0.0</speed>
  <fix>3d</fix>
</trkpt>
<trkpt lat="33.810313" lon="-118.393867">
  <ele>-0.11</ele>
  <time>2026-09-01T01:13:37Z</time>
  <course>188.16</course>
  <speed>0.01414213562373095</speed>
  <fix>3d</fix>
</trkpt>
<trkpt lat="33.810313" lon="-118.393867">
  <ele>-0.12</ele>
  <time>2026-09-01T01:13:37Z</time>
  <course>0.0</course>
  <speed>0.0</speed>
  <fix>3d</fix>
</trkpt>
<trkpt lat="33.810313" lon="-118.393867">
  <ele>-0.11</ele>
  <time>2026-09-01T01:13:37Z</time>
  <course>188.15</course>
  <speed>0.01414213562373095</speed>
  <fix>3d</fix>
</trkpt>
<trkpt lat="33.810313" lon="-118.393867">
  <ele>-0.12</ele>
  <time>2026-09-01T01:13:37Z</time>
  <course>0.0</course>
  <speed>0.0</speed>
  <fix>3d</fix>
</trkpt>
<trkpt lat="33.810313" lon="-118.393867">
  <ele>-0.11</ele>
  <time>2026-09-01T01:13:37Z</time>
  <course>188.14</course>
  <speed>0.01414213562373095</speed>
  <fix>3d</fix>
</trkpt>
<trkpt lat="33.810313" lon="-118.393867">
  <ele>-0.12</ele>
  <time>2026-09-01T01:13:37Z</time>
  <course>0.0</course>
  <speed>0.0</speed>
  <fix>3d</fix>
</trkpt>
<trkpt lat="33.810313" lon="-118.393867">
  <ele>-0.112</ele>
  <time>2026-09-01T01:13:37Z</time>
  <course>188.13</course>
  <speed>0.01414213562373095</speed>
  <fix>3d</fix>
</trkpt>
<trkpt lat="33.810313" lon="-118.393867">
  <ele>-0.12</ele>
  <time>2026-09-01T01:13:37Z</time>
  <course>0.0</course>
  <speed>0.0</speed>
  <fix>3d</fix>
</trkpt>
<trkpt lat="33.810313" lon="-118.393867">
  <ele>-0.114</ele>
  <time>2026-09-01T01:13:37Z</time>
  <course>188.12</course>
  <speed>0.01414213562373095</speed>
  <fix>3d</fix>
</trkpt>
<trkpt lat="33.810313" lon="-118.393867">
  <ele>-0.12</ele>
  <time>2026-09-01T01:13:37Z</time>
  <course>0.0</course>
  <speed>0.0</speed>
  <fix>3d</fix>
</trkpt>
<trkpt lat="33.810313" lon="-118.393867">
  <ele>-0.116</ele>
  <time>2026-09-01T01:13:37Z</time>
  <course>188.12</course>
  <speed>0.01414213562373095</speed>
  <fix>3d</fix>
</trkpt>
<trkpt lat="33.810313" lon="-118.393867">
  <ele>-0.12</ele>
  <time>2026-09-01T01:13:37Z</time>
  <course>0.0</course>
  <speed>0.0</speed>
  <fix>3d</fix>
</trkpt>
<trkpt lat="33.810313" lon="-118.393867">
  <ele>-0.117</ele>
  <time>2026-09-01T01:13:37Z</time>
  <course>188.11</course>
  <speed>0.01414213562373095</speed>
  <fix>3d</fix>
</trkpt>
<trkpt lat="33.810313" lon="-118.393867">
  <ele>-0.12</ele>
  <time>2026-09-01T01:13:37Z</time>
  <course>0.0</course>
  <speed>0.0</speed>
  <fix>3d</fix>
</trkpt>
<trkpt lat="33.810313" lon="-118.393867">
  <ele>-0.117</ele>
  <time>2026-09-01T01:13:37Z</time>
  <course>188.1</course>
  <speed>0.01414213562373095</speed>
  <fix>3d</fix>
</trkpt>
<trkpt lat="33.810313" lon="-118.393867">
  <ele>-0.12</ele>
  <time>2026-09-01T01:13:37Z</time>
  <course>0.0</course>
  <speed>0.0</speed>
  <fix>3d</fix>
</trkpt>
<trkpt lat="33.810313" lon="-118.393867">
  <ele>-0.117</ele>
  <time>2026-09-01T01:13:37Z</time>
  <course>188.09</course>
  <speed>0.01414213562373095</speed>
  <fix>3d</fix>
</trkpt>
<trkpt lat="33.810313" lon="-118.393867">
  <ele>-0.12</ele>
  <time>2026-09-01T01:13:37Z</time>
  <course>0.0</course>
  <speed>0.0</speed>
  <fix>3d</fix>
</trkpt>
<trkpt lat="33.810313" lon="-118.393867">
  <ele>-0.116</ele>
  <time>2026-09-01T01:13:37Z</time>
  <course>188.08</course>
  <speed>0.01414213562373095</speed>
  <fix>3d</fix>
</trkpt>
<trkpt lat="33.810313" lon="-118.393867">
  <ele>-0.12</ele>
  <time>2026-09-01T01:13:37Z</time>
  <course>0.0</course>
  <speed>0.0</speed>
  <fix>3d</fix>
</trkpt>
<trkpt lat="33.810313" lon="-118.393867">
  <ele>-0.115</ele>
  <time>2026-09-01T01:13:37Z</time>
  <course>188.07</course>
  <speed>0.01414213562373095</speed>
  <fix>3d</fix>
</trkpt>
<trkpt lat="33.810313" lon="-118.393867">
  <ele>-0.12</ele>
  <time>2026-09-01T01:13:37Z</time>
  <course>0.0</course>
  <speed>0.0</speed>
  <fix>3d</fix>
</trkpt>
<trkpt lat="33.810313" lon="-118.393867">
  <ele>-0.114</ele>
  <time>2026-09-01T01:13:37Z</time>
  <course>188.07</course>
  <speed>0.01414213562373095</speed>
  <fix>3d</fix>
</trkpt>
<trkpt lat="33.810313" lon="-118.393867">
  <ele>-0.12</ele>
  <time>2026-09-01T01:13:37Z</time>
  <course>0.0</course>
  <speed>0.0</speed>
  <fix>3d</fix>
</trkpt>
<trkpt lat="33.810313" lon="-118.393867">
  <ele>-0.112</ele>
  <time>2026-09-01T01:13:37Z</time>
  <course>188.06</course>
  <speed>0.01414213562373095</speed>
  <fix>3d</fix>
</trkpt>
<trkpt lat="33.810313" lon="-118.393867">
  <ele>-0.12</ele>
  <time>2026-09-01T01:13:37Z</time>
  <course>0.0</course>
  <speed>0.0</speed>
  <fix>3d</fix>
</trkpt>
<trkpt lat="33.810313" lon="-118.393867">
  <ele>-0.11</ele>
  <time>2026-09-01T01:13:37Z</time>
  <course>188.05</course>
  <speed>0.01414213562373095</speed>
  <fix>3d</fix>
</trkpt>
<trkpt lat="33.810313" lon="-118.393867">
  <ele>-0.12</ele>
  <time>2026-09-01T01:13:37Z</time>
  <course>0.0</course>
  <speed>0.0</speed>
  <fix>3d</fix>
</trkpt>
<trkpt lat="33.810313" lon="-118.393867">
  <ele>-0.11</ele>
  <time>2026-09-01T01:13:37Z</time>
  <course>188.04</course>
  <speed>0.022360679774997897</speed>
  <fix>3d</fix>
</trkpt>
<trkpt lat="33.810313" lon="-118.393867">
  <ele>-0.12</ele>
  <time>2026-09-01T01:13:37Z</time>
  <course>0.0</course>
  <speed>0.0</speed>
  <fix>3d</fix>
</trkpt>
<trkpt lat="33.810313" lon="-118.393867">
  <ele>-0.11</ele>
  <time>2026-09-01T01:13:37Z</time>
  <course>188.03</course>
  <speed>0.022360679774997897</speed>
  <fix>3d</fix>
</trkpt>
<trkpt lat="33.810313" lon="-118.393867">
  <ele>-0.12</ele>
  <time>2026-09-01T01:13:37Z</time>
  <course>0.0</course>
  <speed>0.0</speed>
  <fix>3d</fix>
</trkpt>
<trkpt lat="33.810313" lon="-118.393867">
  <ele>-0.112</ele>
  <time>2026-09-01T01:13:37Z</time>
  <course>188.03</course>
  <speed>0.022360679774997897</speed>
  <fix>3d</fix>
</trkpt>
<trkpt lat="33.810313" lon="-118.393867">
  <ele>-0.12</ele>
  <time>2026-09-01T01:13:37Z</time>
  <course>0.0</course>
  <speed>0.0</speed>
  <fix>3d</fix>
</trkpt>
<trkpt lat="33.810313" lon="-118.393867">
  <ele>-0.115</ele>
  <time>2026-09-01T01:13:37Z</time>
  <course>188.02</course>
  <speed>0.022360679774997897</speed>
  <fix>3d</fix>
</trkpt>
<trkpt lat="33.810313" lon="-118.393867">
  <ele>-0.12</ele>
  <time>2026-09-01T01:13:37Z</time>
  <course>0.0</course>
  <speed>0.0</speed>
  <fix>3d</fix>
</trkpt>
<trkpt lat="33.810313" lon="-118.393867">
  <ele>-0.118</ele>
  <time>2026-09-01T01:13:37Z</time>
  <course>188.01</course>
  <speed>0.022360679774997897</speed>
  <fix>3d</fix>
</trkpt>
<trkpt lat="33.810313" lon="-118.393867">
  <ele>-0.12</ele>
  <time>2026-09-01T01:13:37Z</time>
  <course>0.0</course>
  <speed>0.0</speed>
  <fix>3d</fix>
</trkpt>
<trkpt lat="33.810313" lon="-118.393867">
  <ele>-0.121</ele>
  <time>2026-09-01T01:13:37Z</time>
  <course>188.0</course>
  <speed>0.022360679774997897</speed>
  <fix>3d</fix>
</trkpt>
<trkpt lat="33.810313" lon="-118.393867">
  <ele>-0.12</ele>
  <time>2026-09-01T01:13:37Z</time>
  <course>0.0</course>
  <speed>0.0</speed>
  <fix>3d</fix>
</trkpt>
<trkpt lat="33.810313" lon="-118.393867">
  <ele>-0.123</ele>
  <time>2026-09-01T01:13:37Z</time>
  <course>187.99</course>
  <speed>0.022360679774997897</speed>
  <fix>3d</fix>
</trkpt>
<trkpt lat="33.810313" lon="-118.393867">
  <ele>-0.12</ele>
  <time>2026-09-01T01:13:37Z</time>
  <course>0.0</course>
  <speed>0.0</speed>
  <fix>3d</fix>
</trkpt>
<trkpt lat="33.810313" lon="-118.393867">
  <ele>-0.124</ele>
  <time>2026-09-01T01:13:37Z</time>
  <course>187.99</course>
  <speed>0.022360679774997897</speed>
  <fix>3d</fix>
</trkpt>
<trkpt lat="33.810313" lon="-118.393867">
  <ele>-0.12</ele>
  <time>2026-09-01T01:13:37Z</time>
  <course>0.0</course>
  <speed>0.0</speed>
  <fix>3d</fix>
</trkpt>
<trkpt lat="33.810313" lon="-118.393867">
  <ele>-0.124</ele>
  <time>2026-09-01T01:13:37Z</time>
  <course>187.98</course>
  <speed>0.022360679774997897</speed>
  <fix>3d</fix>
</trkpt>
<trkpt lat="33.810313" lon="-118.393867">
  <ele>-0.12</ele>
  <time>2026-09-01T01:13:37Z</time>
  <course>0.0</course>
  <speed>0.0</speed>
  <fix>3d</fix>
</trkpt>
<trkpt lat="33.810313" lon="-118.393867">
  <ele>-0.124</ele>
  <time>2026-09-01T01:13:37Z</time>
  <course>187.97</course>
  <speed>0.022360679774997897</speed>
  <fix>3d</fix>
</trkpt>
<trkpt lat="33.810313" lon="-118.393867">
  <ele>-0.12</ele>
  <time>2026-09-01T01:13:37Z</time>
  <course>0.0</course>
  <speed>0.0</speed>
  <fix>3d</fix>
</trkpt>
<trkpt lat="33.810313" lon="-118.393867">
  <ele>-0.125</ele>
  <time>2026-09-01T01:13:37Z</time>
  <course>187.96</course>
  <speed>0.022360679774997897</speed>
  <fix>3d</fix>
</trkpt>
<trkpt lat="33.810313" lon="-118.393867">
  <ele>-0.12</ele>
  <time>2026-09-01T01:13:37Z</time>
  <course>0.0</course>
  <speed>0.0</speed>
  <fix>3d</fix>
</trkpt>
<trkpt lat="33.810313" lon="-118.393867">
  <ele>-0.125</ele>
  <time>2026-09-01T01:13:37Z</time>
  <course>187.95</course>
  <speed>0.022360679774997897</speed>
  <fix>3d</fix>
</trkpt>
<trkpt lat="33.810313" lon="-118.393867">
  <ele>-0.12</ele>
  <time>2026-09-01T01:13:37Z</time>
  <course>0.0</course>
  <speed>0.0</speed>
  <fix>3d</fix>
</trkpt>
<trkpt lat="33.810313" lon="-118.393867">
  <ele>-0.126</ele>
  <time>2026-09-01T01:13:37Z</time>
  <course>187.94</course>
  <speed>0.022360679774997897</speed>
  <fix>3d</fix>
</trkpt>
<trkpt lat="33.810313" lon="-118.393867">
  <ele>-0.12</ele>
  <time>2026-09-01T01:13:37Z</time>
  <course>0.0</course>
  <speed>0.0</speed>
  <fix>3d</fix>
</trkpt>
<trkpt lat="33.810313" lon="-118.393867">
  <ele>-0.128</ele>
  <time>2026-09-01T01:13:37Z</time>
  <course>187.94</course>
  <speed>0.022360679774997897</speed>
  <fix>3d</fix>
</trkpt>
<trkpt lat="33.810313" lon="-118.393867">
  <ele>-0.12</ele>
  <time>2026-09-01T01:13:37Z</time>
  <course>0.0</course>
  <speed>0.0</speed>
  <fix>3d</fix>
</trkpt>
<trkpt lat="33.810313" lon="-118.393867">
  <ele>-0.131</ele>
  <time>2026-09-01T01:13:38Z</time>
  <course>187.93</course>
  <speed>0.022360679774997897</speed>
  <fix>3d</fix>
</trkpt>
<trkpt lat="33.810313" lon="-118.393867">
  <ele>-0.12</ele>
  <time>2026-09-01T01:13:38Z</time>
  <course>0.0</course>
  <speed>0.0</speed>
  <fix>3d</fix>
</trkpt>
<trkpt lat="33.810313" lon="-118.393867">
  <ele>-0.133</ele>
  <time>2026-09-01T01:13:38Z</time>
  <course>187.92</course>
  <speed>0.022360679774997897</speed>
  <fix>3d</fix>
</trkpt>
<trkpt lat="33.810313" lon="-118.393867">
  <ele>-0.12</ele>
  <time>2026-09-01T01:13:38Z</time>
  <course>0.0</course>
  <speed>0.0</speed>
  <fix>3d</fix>
</trkpt>
<trkpt lat="33.810313" lon="-118.393867">
  <ele>-0.135</ele>
  <time>2026-09-01T01:13:38Z</time>
  <course>187.91</course>
  <speed>0.022360679774997897</speed>
  <fix>3d</fix>
</trkpt>
<trkpt lat="33.810313" lon="-118.393867">
  <ele>-0.12</ele>
  <time>2026-09-01T01:13:38Z</time>
  <course>0.0</course>
  <speed>0.0</speed>
  <fix>3d</fix>
</trkpt>
<trkpt lat="33.810313" lon="-118.393867">
  <ele>-0.135</ele>
  <time>2026-09-01T01:13:38Z</time>
  <course>187.9</course>
  <speed>0.022360679774997897</speed>
  <fix>3d</fix>
</trkpt>
<trkpt lat="33.810313" lon="-118.393867">
  <ele>-0.12</ele>
  <time>2026-09-01T01:13:38Z</time>
  <course>0.0</course>
  <speed>0.0</speed>
  <fix>3d</fix>
</trkpt>
<trkpt lat="33.810313" lon="-118.393867">
  <ele>-0.133</ele>
  <time>2026-09-01T01:13:38Z</time>
  <course>187.9</course>
  <speed>0.022360679774997897</speed>
  <fix>3d</fix>
</trkpt>
<trkpt lat="33.810313" lon="-118.393867">
  <ele>-0.12</ele>
  <time>2026-09-01T01:13:38Z</time>
  <course>0.0</course>
  <speed>0.0</speed>
  <fix>3d</fix>
</trkpt>
<trkpt lat="33.810313" lon="-118.393867">
  <ele>-0.131</ele>
  <time>2026-09-01T01:13:38Z</time>
  <course>187.89</course>
  <speed>0.022360679774997897</speed>
  <fix>3d</fix>
</trkpt>
<trkpt lat="33.810313" lon="-118.393867">
  <ele>-0.12</ele>
  <time>2026-09-01T01:13:38Z</time>
  <course>0.0</course>
  <speed>0.0</speed>
  <fix>3d</fix>
</trkpt>
<trkpt lat="33.810313" lon="-118.393867">
  <ele>-0.128</ele>
  <time>2026-09-01T01:13:38Z</time>
  <course>187.88</course>
  <speed>0.022360679774997897</speed>
  <fix>3d</fix>
</trkpt>
<trkpt lat="33.810313" lon="-118.393867">
  <ele>-0.12</ele>
  <time>2026-09-01T01:13:38Z</time>
  <course>0.0</course>
  <speed>0.0</speed>
  <fix>3d</fix>
</trkpt>
<trkpt lat="33.810313" lon="-118.393867">
  <ele>-0.125</ele>
  <time>2026-09-01T01:13:38Z</time>
  <course>187.87</course>
  <speed>0.022360679774997897</speed>
  <fix>3d</fix>
</trkpt>
<trkpt lat="33.810313" lon="-118.393867">
  <ele>-0.12</ele>
  <time>2026-09-01T01:13:38Z</time>
  <course>0.0</course>
  <speed>0.0</speed>
  <fix>3d</fix>
</trkpt>
<trkpt lat="33.810313" lon="-118.393867">
  <ele>-0.124</ele>
  <time>2026-09-01T01:13:38Z</time>
  <course>187.87</course>
  <speed>0.022360679774997897</speed>
  <fix>3d</fix>
</trkpt>
<trkpt lat="33.810313" lon="-118.393867">
  <ele>-0.12</ele>
  <time>2026-09-01T01:13:38Z</time>
  <course>0.0</course>
  <speed>0.0</speed>
  <fix>3d</fix>
</trkpt>
<trkpt lat="33.810313" lon="-118.393867">
  <ele>-0.124</ele>
  <time>2026-09-01T01:13:38Z</time>
  <course>187.86</course>
  <speed>0.022360679774997897</speed>
  <fix>3d</fix>
</trkpt>
<trkpt lat="33.810313" lon="-118.393867">
  <ele>-0.12</ele>
  <time>2026-09-01T01:13:38Z</time>
  <course>0.0</course>
  <speed>0.0</speed>
  <fix>3d</fix>
</trkpt>
<trkpt lat="33.810313" lon="-118.393867">
  <ele>-0.125</ele>
  <time>2026-09-01T01:13:38Z</time>
  <course>187.85</course>
  <speed>0.022360679774997897</speed>
  <fix>3d</fix>
</trkpt>
<trkpt lat="33.810313" lon="-118.393867">
  <ele>-0.12</ele>
  <time>2026-09-01T01:13:38Z</time>
  <course>0.0</course>
  <speed>0.0</speed>
  <fix>3d</fix>
</trkpt>
<trkpt lat="33.810313" lon="-118.393867">
  <ele>-0.127</ele>
  <time>2026-09-01T01:13:38Z</time>
  <course>187.84</course>
  <speed>0.022360679774997897</speed>
  <fix>3d</fix>
</trkpt>
<trkpt lat="33.810313" lon="-118.393867">
  <ele>-0.12</ele>
  <time>2026-09-01T01:13:38Z</time>
  <course>0.0</course>
  <speed>0.0</speed>
  <fix>3d</fix>
</trkpt>
<trkpt lat="33.810313" lon="-118.393867">
  <ele>-0.128</ele>
  <time>2026-09-01T01:13:38Z</time>
  <course>187.83</course>
  <speed>0.022360679774997897</speed>
  <fix>3d</fix>
</trkpt>
<trkpt lat="33.810313" lon="-118.393867">
  <ele>-0.12</ele>
  <time>2026-09-01T01:13:38Z</time>
  <course>0.0</course>
  <speed>0.0</speed>
  <fix>3d</fix>
</trkpt>
<trkpt lat="33.810313" lon="-118.393867">
  <ele>-0.129</ele>
  <time>2026-09-01T01:13:38Z</time>
  <course>187.83</course>
  <speed>0.022360679774997897</speed>
  <fix>3d</fix>
</trkpt>
<trkpt lat="33.810313" lon="-118.393867">
  <ele>-0.12</ele>
  <time>2026-09-01T01:13:38Z</time>
  <course>0.0</course>
  <speed>0.0</speed>
  <fix>3d</fix>
</trkpt>
<trkpt lat="33.810313" lon="-118.393867">
  <ele>-0.128</ele>
  <time>2026-09-01T01:13:38Z</time>
  <course>187.82</course>
  <speed>0.022360679774997897</speed>
  <fix>3d</fix>
</trkpt>
<trkpt lat="33.810313" lon="-118.393867">
  <ele>-0.12</ele>
  <time>2026-09-01T01:13:38Z</time>
  <course>0.0</course>
  <speed>0.0</speed>
  <fix>3d</fix>
</trkpt>
<trkpt lat="33.810313" lon="-118.393867">
  <ele>-0.126</ele>
  <time>2026-09-01T01:13:38Z</time>
  <course>187.81</course>
  <speed>0.022360679774997897</speed>
  <fix>3d</fix>
</trkpt>
<trkpt lat="33.810313" lon="-118.393867">
  <ele>-0.12</ele>
  <time>2026-09-01T01:13:38Z</time>
  <course>0.0</course>
  <speed>0.0</speed>
  <fix>3d</fix>
</trkpt>
<trkpt lat="33.810313" lon="-118.393867">
  <ele>-0.123</ele>
  <time>2026-09-01T01:13:38Z</time>
  <course>187.8</course>
  <speed>0.022360679774997897</speed>
  <fix>3d</fix>
</trkpt>
<trkpt lat="33.810313" lon="-118.393867">
  <ele>-0.12</ele>
  <time>2026-09-01T01:13:38Z</time>
  <course>0.0</course>
  <speed>0.0</speed>
  <fix>3d</fix>
</trkpt>
<trkpt lat="33.810313" lon="-118.393867">
  <ele>-0.12</ele>
  <time>2026-09-01T01:13:38Z</time>
  <course>187.8</course>
  <speed>0.022360679774997897</speed>
  <fix>3d</fix>
</trkpt>
<trkpt lat="33.810313" lon="-118.393867">
  <ele>-0.12</ele>
  <time>2026-09-01T01:13:38Z</time>
  <course>0.0</course>
  <speed>0.0</speed>
  <fix>3d</fix>
</trkpt>
<trkpt lat="33.810313" lon="-118.393867">
  <ele>-0.118</ele>
  <time>2026-09-01T01:13:38Z</time>
  <course>187.79</course>
  <speed>0.022360679774997897</speed>
  <fix>3d</fix>
</trkpt>
<trkpt lat="33.810313" lon="-118.393867">
  <ele>-0.12</ele>
  <time>2026-09-01T01:13:38Z</time>
  <course>0.0</course>
  <speed>0.0</speed>
  <fix>3d</fix>
</trkpt>
<trkpt lat="33.810313" lon="-118.393867">
  <ele>-0.116</ele>
  <time>2026-09-01T01:13:38Z</time>
  <course>187.78</course>
  <speed>0.022360679774997897</speed>
  <fix>3d</fix>
</trkpt>
<trkpt lat="33.810313" lon="-118.393867">
  <ele>-0.12</ele>
  <time>2026-09-01T01:13:38Z</time>
  <course>0.0</course>
  <speed>0.0</speed>
  <fix>3d</fix>
</trkpt>
<trkpt lat="33.810313" lon="-118.393867">
  <ele>-0.115</ele>
  <time>2026-09-01T01:13:38Z</time>
  <course>187.77</course>
  <speed>0.022360679774997897</speed>
  <fix>3d</fix>
</trkpt>
<trkpt lat="33.810313" lon="-118.393867">
  <ele>-0.12</ele>
  <time>2026-09-01T01:13:38Z</time>
  <course>0.0</course>
  <speed>0.0</speed>
  <fix>3d</fix>
</trkpt>
<trkpt lat="33.810313" lon="-118.393867">
  <ele>-0.115</ele>
  <time>2026-09-01T01:13:38Z</time>
  <course>187.77</course>
  <speed>0.022360679774997897</speed>
  <fix>3d</fix>
</trkpt>
<trkpt lat="33.810313" lon="-118.393867">
  <ele>-0.12</ele>
  <time>2026-09-01T01:13:38Z</time>
  <course>0.0</course>
  <speed>0.0</speed>
  <fix>3d</fix>
</trkpt>
<trkpt lat="33.810313" lon="-118.393867">
  <ele>-0.115</ele>
  <time>2026-09-01T01:13:38Z</time>
  <course>187.76</course>
  <speed>0.0282842712474619</speed>
  <fix>3d</fix>
</trkpt>
<trkpt lat="33.810313" lon="-118.393867">
  <ele>-0.12</ele>
  <time>2026-09-01T01:13:38Z</time>
  <course>0.0</course>
  <speed>0.0</speed>
  <fix>3d</fix>
</trkpt>
<trkpt lat="33.810313" lon="-118.393867">
  <ele>-0.117</ele>
  <time>2026-09-01T01:13:38Z</time>
  <course>187.75</course>
  <speed>0.0282842712474619</speed>
  <fix>3d</fix>
</trkpt>
<trkpt lat="33.810313" lon="-118.393867">
  <ele>-0.12</ele>
  <time>2026-09-01T01:13:38Z</time>
  <course>0.0</course>
  <speed>0.0</speed>
  <fix>3d</fix>
</trkpt>
<trkpt lat="33.810313" lon="-118.393867">
  <ele>-0.118</ele>
  <time>2026-09-01T01:13:38Z</time>
  <course>187.74</course>
  <speed>0.0282842712474619</speed>
  <fix>3d</fix>
</trkpt>
<trkpt lat="33.810313" lon="-118.393867">
  <ele>-0.12</ele>
  <time>2026-09-01T01:13:38Z</time>
  <course>0.0</course>
  <speed>0.0</speed>
  <fix>3d</fix>
</trkpt>
<trkpt lat="33.810313" lon="-118.393867">
  <ele>-0.118</ele>
  <time>2026-09-01T01:13:38Z</time>
  <course>187.74</course>
  <speed>0.0282842712474619</speed>
  <fix>3d</fix>
</trkpt>
<trkpt lat="33.810313" lon="-118.393867">
  <ele>-0.12</ele>
  <time>2026-09-01T01:13:38Z</time>
  <course>0.0</course>
  <speed>0.0</speed>
  <fix>3d</fix>
</trkpt>
<trkpt lat="33.810313" lon="-118.393867">
  <ele>-0.116</ele>
  <time>2026-09-01T01:13:38Z</time>
  <course>187.73</course>
  <speed>0.0282842712474619</speed>
  <fix>3d</fix>
</trkpt>
<trkpt lat="33.810313" lon="-118.393867">
  <ele>-0.12</ele>
  <time>2026-09-01T01:13:38Z</time>
  <course>0.0</course>
  <speed>0.0</speed>
  <fix>3d</fix>
</trkpt>
<trkpt lat="33.810313" lon="-118.393867">
  <ele>-0.114</ele>
  <time>2026-09-01T01:13:38Z</time>
  <course>187.72</course>
  <speed>0.0282842712474619</speed>
  <fix>3d</fix>
</trkpt>
<trkpt lat="33.810313" lon="-118.393867">
  <ele>-0.12</ele>
  <time>2026-09-01T01:13:38Z</time>
  <course>0.0</course>
  <speed>0.0</speed>
  <fix>3d</fix>
</trkpt>
<trkpt lat="33.810313" lon="-118.393867">
  <ele>-0.112</ele>
  <time>2026-09-01T01:13:38Z</time>
  <course>187.71</course>
  <speed>0.0282842712474619</speed>
  <fix>3d</fix>
</trkpt>
<trkpt lat="33.810313" lon="-118.393867">
  <ele>-0.12</ele>
  <time>2026-09-01T01:13:38Z</time>
  <course>0.0</course>
  <speed>0.0</speed>
  <fix>3d</fix>
</trkpt>
<trkpt lat="33.810313" lon="-118.393867">
  <ele>-0.109</ele>
  <time>2026-09-01T01:13:38Z</time>
  <course>187.71</course>
  <speed>0.0282842712474619</speed>
  <fix>3d</fix>
</trkpt>
<trkpt lat="33.810313" lon="-118.393867">
  <ele>-0.12</ele>
  <time>2026-09-01T01:13:38Z</time>
  <course>0.0</course>
  <speed>0.0</speed>
  <fix>3d</fix>
</trkpt>
<trkpt lat="33.810313" lon="-118.393867">
  <ele>-0.106</ele>
  <time>2026-09-01T01:13:38Z</time>
  <course>187.7</course>
  <speed>0.0282842712474619</speed>
  <fix>3d</fix>
</trkpt>
<trkpt lat="33.810313" lon="-118.393867">
  <ele>-0.12</ele>
  <time>2026-09-01T01:13:38Z</time>
  <course>0.0</course>
  <speed>0.0</speed>
  <fix>3d</fix>
</trkpt>
<trkpt lat="33.810313" lon="-118.393867">
  <ele>-0.104</ele>
  <time>2026-09-01T01:13:38Z</time>
  <course>187.69</course>
  <speed>0.0282842712474619</speed>
  <fix>3d</fix>
</trkpt>
<trkpt lat="33.810313" lon="-118.393867">
  <ele>-0.12</ele>
  <time>2026-09-01T01:13:38Z</time>
  <course>0.0</course>
  <speed>0.0</speed>
  <fix>3d</fix>
</trkpt>
<trkpt lat="33.810313" lon="-118.393867">
  <ele>-0.104</ele>
  <time>2026-09-01T01:13:38Z</time>
  <course>187.68</course>
  <speed>0.0282842712474619</speed>
  <fix>3d</fix>
</trkpt>
<trkpt lat="33.810313" lon="-118.393867">
  <ele>-0.12</ele>
  <time>2026-09-01T01:13:38Z</time>
  <course>0.0</course>
  <speed>0.0</speed>
  <fix>3d</fix>
</trkpt>
<trkpt lat="33.810313" lon="-118.393867">
  <ele>-0.105</ele>
  <time>2026-09-01T01:13:38Z</time>
  <course>187.68</course>
  <speed>0.0282842712474619</speed>
  <fix>3d</fix>
</trkpt>
<trkpt lat="33.810313" lon="-118.393867">
  <ele>-0.12</ele>
  <time>2026-09-01T01:13:38Z</time>
  <course>0.0</course>
  <speed>0.0</speed>
  <fix>3d</fix>
</trkpt>
<trkpt lat="33.810313" lon="-118.393867">
  <ele>-0.106</ele>
  <time>2026-09-01T01:13:38Z</time>
  <course>187.67</course>
  <speed>0.0282842712474619</speed>
  <fix>3d</fix>
</trkpt>
<trkpt lat="33.810313" lon="-118.393867">
  <ele>-0.12</ele>
  <time>2026-09-01T01:13:38Z</time>
  <course>0.0</course>
  <speed>0.0</speed>
  <fix>3d</fix>
</trkpt>
<trkpt lat="33.810313" lon="-118.393867">
  <ele>-0.107</ele>
  <time>2026-09-01T01:13:38Z</time>
  <course>187.66</course>
  <speed>0.0282842712474619</speed>
  <fix>3d</fix>
</trkpt>
<trkpt lat="33.810313" lon="-118.393867">
  <ele>-0.12</ele>
  <time>2026-09-01T01:13:38Z</time>
  <course>0.0</course>
  <speed>0.0</speed>
  <fix>3d</fix>
</trkpt>
<trkpt lat="33.810313" lon="-118.393867">
  <ele>-0.109</ele>
  <time>2026-09-01T01:13:38Z</time>
  <course>187.66</course>
  <speed>0.0282842712474619</speed>
  <fix>3d</fix>
</trkpt>
<trkpt lat="33.810313" lon="-118.393867">
  <ele>-0.12</ele>
  <time>2026-09-01T01:13:38Z</time>
  <course>0.0</course>
  <speed>0.0</speed>
  <fix>3d</fix>
</trkpt>
<trkpt lat="33.810313" lon="-118.393867">
  <ele>-0.109</ele>
  <time>2026-09-01T01:13:38Z</time>
  <course>187.65</course>
  <speed>0.0282842712474619</speed>
  <fix>3d</fix>
</trkpt>
<trkpt lat="33.810313" lon="-118.393867">
  <ele>-0.12</ele>
  <time>2026-09-01T01:13:38Z</time>
  <course>0.0</course>
  <speed>0.0</speed>
  <fix>3d</fix>
</trkpt>
<trkpt lat="33.810313" lon="-118.393867">
  <ele>-0.109</ele>
  <time>2026-09-01T01:13:38Z</time>
  <course>187.64</course>
  <speed>0.0282842712474619</speed>
  <fix>3d</fix>
</trkpt>
<trkpt lat="33.810313" lon="-118.393867">
  <ele>-0.12</ele>
  <time>2026-09-01T01:13:38Z</time>
  <course>0.0</course>
  <speed>0.0</speed>
  <fix>3d</fix>
</trkpt>
<trkpt lat="33.810313" lon="-118.393867">
  <ele>-0.11</ele>
  <time>2026-09-01T01:13:38Z</time>
  <course>187.64</course>
  <speed>0.0282842712474619</speed>
  <fix>3d</fix>
</trkpt>
<trkpt lat="33.810313" lon="-118.393867">
  <ele>-0.12</ele>
  <time>2026-09-01T01:13:38Z</time>
  <course>0.0</course>
  <speed>0.0</speed>
  <fix>3d</fix>
</trkpt>
<trkpt lat="33.810313" lon="-118.393867">
  <ele>-0.11</ele>
  <time>2026-09-01T01:13:38Z</time>
  <course>187.63</course>
  <speed>0.0282842712474619</speed>
  <fix>3d</fix>
</trkpt>
<trkpt lat="33.810313" lon="-118.393867">
  <ele>-0.12</ele>
  <time>2026-09-01T01:13:38Z</time>
  <course>0.0</course>
  <speed>0.0</speed>
  <fix>3d</fix>
</trkpt>
<trkpt lat="33.810313" lon="-118.393867">
  <ele>-0.11</ele>
  <time>2026-09-01T01:13:38Z</time>
  <course>187.62</course>
  <speed>0.0282842712474619</speed>
  <fix>3d</fix>
</trkpt>
<trkpt lat="33.810313" lon="-118.393867">
  <ele>-0.12</ele>
  <time>2026-09-01T01:13:38Z</time>
  <course>0.0</course>
  <speed>0.0</speed>
  <fix>3d</fix>
</trkpt>
<trkpt lat="33.810313" lon="-118.393867">
  <ele>-0.111</ele>
  <time>2026-09-01T01:13:38Z</time>
  <course>187.62</course>
  <speed>0.0282842712474619</speed>
  <fix>3d</fix>
</trkpt>
<trkpt lat="33.810313" lon="-118.393867">
  <ele>-0.12</ele>
  <time>2026-09-01T01:13:38Z</time>
  <course>0.0</course>
  <speed>0.0</speed>
  <fix>3d</fix>
</trkpt>
<trkpt lat="33.810313" lon="-118.393867">
  <ele>-0.113</ele>
  <time>2026-09-01T01:13:38Z</time>
  <course>187.61</course>
  <speed>0.0282842712474619</speed>
  <fix>3d</fix>
</trkpt>
<trkpt lat="33.810313" lon="-118.393867">
  <ele>-0.12</ele>
  <time>2026-09-01T01:13:38Z</time>
  <course>0.0</course>
  <speed>0.0</speed>
  <fix>3d</fix>
</trkpt>
<trkpt lat="33.810313" lon="-118.393867">
  <ele>-0.116</ele>
  <time>2026-09-01T01:13:38Z</time>
  <course>187.6</course>
  <speed>0.03605551275463989</speed>
  <fix>3d</fix>
</trkpt>
<trkpt lat="33.810313" lon="-118.393867">
  <ele>-0.12</ele>
  <time>2026-09-01T01:13:38Z</time>
  <course>0.0</course>
  <speed>0.0</speed>
  <fix>3d</fix>
</trkpt>
<trkpt lat="33.810313" lon="-118.393867">
  <ele>-0.119</ele>
  <time>2026-09-01T01:13:38Z</time>
  <course>187.6</course>
  <speed>0.03605551275463989</speed>
  <fix>3d</fix>
</trkpt>
<trkpt lat="33.810313" lon="-118.393867">
  <ele>-0.12</ele>
  <time>2026-09-01T01:13:38Z</time>
  <course>0.0</course>
  <speed>0.0</speed>
  <fix>3d</fix>
</trkpt>
<trkpt lat="33.810313" lon="-118.393867">
  <ele>-0.12</ele>
  <time>2026-09-01T01:13:38Z</time>
  <course>187.59</course>
  <speed>0.03605551275463989</speed>
  <fix>3d</fix>
</trkpt>
<trkpt lat="33.810313" lon="-118.393867">
  <ele>-0.12</ele>
  <time>2026-09-01T01:13:38Z</time>
  <course>0.0</course>
  <speed>0.0</speed>
  <fix>3d</fix>
</trkpt>
<trkpt lat="33.810313" lon="-118.393867">
  <ele>-0.12</ele>
  <time>2026-09-01T01:13:38Z</time>
  <course>187.58</course>
  <speed>0.03605551275463989</speed>
  <fix>3d</fix>
</trkpt>
<trkpt lat="33.810313" lon="-118.393867">
  <ele>-0.12</ele>
  <time>2026-09-01T01:13:38Z</time>
  <course>0.0</course>
  <speed>0.0</speed>
  <fix>3d</fix>
</trkpt>
<trkpt lat="33.810313" lon="-118.393867">
  <ele>-0.121</ele>
  <time>2026-09-01T01:13:38Z</time>
  <course>187.58</course>
  <speed>0.03605551275463989</speed>
  <fix>3d</fix>
</trkpt>
<trkpt lat="33.810313" lon="-118.393867">
  <ele>-0.12</ele>
  <time>2026-09-01T01:13:38Z</time>
  <course>0.0</course>
  <speed>0.0</speed>
  <fix>3d</fix>
</trkpt>
<trkpt lat="33.810313" lon="-118.393867">
  <ele>-0.12</ele>
  <time>2026-09-01T01:13:38Z</time>
  <course>187.57</course>
  <speed>0.03605551275463989</speed>
  <fix>3d</fix>
</trkpt>
<trkpt lat="33.810313" lon="-118.393867">
  <ele>-0.12</ele>
  <time>2026-09-01T01:13:38Z</time>
  <course>0.0</course>
  <speed>0.0</speed>
  <fix>3d</fix>
</trkpt>
<trkpt lat="33.810313" lon="-118.393867">
  <ele>-0.119</ele>
  <time>2026-09-01T01:13:38Z</time>
  <course>187.56</course>
  <speed>0.03605551275463989</speed>
  <fix>3d</fix>
</trkpt>
<trkpt lat="33.810313" lon="-118.393867">
  <ele>-0.12</ele>
  <time>2026-09-01T01:13:38Z</time>
  <course>0.0</course>
  <speed>0.0</speed>
  <fix>3d</fix>
</trkpt>
<trkpt lat="33.810313" lon="-118.393867">
  <ele>-0.118</ele>
  <time>2026-09-01T01:13:38Z</time>
  <course>187.56</course>
  <speed>0.03605551275463989</speed>
  <fix>3d</fix>
</trkpt>
<trkpt lat="33.810313" lon="-118.393867">
  <ele>-0.12</ele>
  <time>2026-09-01T01:13:38Z</time>
  <course>0.0</course>
  <speed>0.0</speed>
  <fix>3d</fix>
</trkpt>
<trkpt lat="33.810313" lon="-118.393867">
  <ele>-0.117</ele>
  <time>2026-09-01T01:13:38Z</time>
  <course>187.55</course>
  <speed>0.03605551275463989</speed>
  <fix>3d</fix>
</trkpt>
<trkpt lat="33.810313" lon="-118.393867">
  <ele>-0.12</ele>
  <time>2026-09-01T01:13:38Z</time>
  <course>0.0</course>
  <speed>0.0</speed>
  <fix>3d</fix>
</trkpt>
<trkpt lat="33.810313" lon="-118.393867">
  <ele>-0.117</ele>
  <time>2026-09-01T01:13:38Z</time>
  <course>187.54</course>
  <speed>0.03605551275463989</speed>
  <fix>3d</fix>
</trkpt>
<trkpt lat="33.810313" lon="-118.393867">
  <ele>-0.12</ele>
  <time>2026-09-01T01:13:38Z</time>
  <course>0.0</course>
  <speed>0.0</speed>
  <fix>3d</fix>
</trkpt>
<trkpt lat="33.810313" lon="-118.393867">
  <ele>-0.117</ele>
  <time>2026-09-01T01:13:38Z</time>
  <course>187.54</course>
  <speed>0.03605551275463989</speed>
  <fix>3d</fix>
</trkpt>
<trkpt lat="33.810313" lon="-118.393867">
  <ele>-0.12</ele>
  <time>2026-09-01T01:13:38Z</time>
  <course>0.0</course>
  <speed>0.0</speed>
  <fix>3d</fix>
</trkpt>
<trkpt lat="33.810313" lon="-118.393867">
  <ele>-0.117</ele>
  <time>2026-09-01T01:13:38Z</time>
  <course>187.53</course>
  <speed>0.03605551275463989</speed>
  <fix>3d</fix>
</trkpt>
<trkpt lat="33.810313" lon="-118.393867">
  <ele>-0.12</ele>
  <time>2026-09-01T01:13:38Z</time>
  <course>0.0</course>
  <speed>0.0</speed>
  <fix>3d</fix>
</trkpt>
<trkpt lat="33.810313" lon="-118.393867">
  <ele>-0.118</ele>
  <time>2026-09-01T01:13:38Z</time>
  <course>187.52</course>
  <speed>0.03605551275463989</speed>
  <fix>3d</fix>
</trkpt>
<trkpt lat="33.810313" lon="-118.393867">
  <ele>-0.12</ele>
  <time>2026-09-01T01:13:38Z</time>
  <course>0.0</course>
  <speed>0.0</speed>
  <fix>3d</fix>
</trkpt>
<trkpt lat="33.810313" lon="-118.393867">
  <ele>-0.119</ele>
  <time>2026-09-01T01:13:38Z</time>
  <course>187.52</course>
  <speed>0.03605551275463989</speed>
  <fix>3d</fix>
</trkpt>
<trkpt lat="33.810313" lon="-118.393867">
  <ele>-0.12</ele>
  <time>2026-09-01T01:13:38Z</time>
  <course>0.0</course>
  <speed>0.0</speed>
  <fix>3d</fix>
</trkpt>
<trkpt lat="33.810313" lon="-118.393867">
  <ele>-0.119</ele>
  <time>2026-09-01T01:13:38Z</time>
  <course>187.51</course>
  <speed>0.03605551275463989</speed>
  <fix>3d</fix>
</trkpt>
<trkpt lat="33.810313" lon="-118.393867">
  <ele>-0.12</ele>
  <time>2026-09-01T01:13:38Z</time>
  <course>0.0</course>
  <speed>0.0</speed>
  <fix>3d</fix>
</trkpt>
<trkpt lat="33.810313" lon="-118.393867">
  <ele>-0.118</ele>
  <time>2026-09-01T01:13:38Z</time>
  <course>187.5</course>
  <speed>0.03605551275463989</speed>
  <fix>3d</fix>
</trkpt>
<trkpt lat="33.810313" lon="-118.393867">
  <ele>-0.12</ele>
  <time>2026-09-01T01:13:38Z</time>
  <course>0.0</course>
  <speed>0.0</speed>
  <fix>3d</fix>
</trkpt>
<trkpt lat="33.810313" lon="-118.393867">
  <ele>-0.116</ele>
  <time>2026-09-01T01:13:38Z</time>
  <course>187.5</course>
  <speed>0.03605551275463989</speed>
  <fix>3d</fix>
</trkpt>
<trkpt lat="33.810313" lon="-118.393867">
  <ele>-0.12</ele>
  <time>2026-09-01T01:13:38Z</time>
  <course>0.0</course>
  <speed>0.0</speed>
  <fix>3d</fix>
</trkpt>
<trkpt lat="33.810313" lon="-118.393867">
  <ele>-0.114</ele>
  <time>2026-09-01T01:13:38Z</time>
  <course>187.49</course>
  <speed>0.03605551275463989</speed>
  <fix>3d</fix>
</trkpt>
<trkpt lat="33.810313" lon="-118.393867">
  <ele>-0.12</ele>
  <time>2026-09-01T01:13:38Z</time>
  <course>0.0</course>
  <speed>0.0</speed>
  <fix>3d</fix>
</trkpt>
<trkpt lat="33.810313" lon="-118.393867">
  <ele>-0.112</ele>
  <time>2026-09-01T01:13:38Z</time>
  <course>187.48</course>
  <speed>0.03605551275463989</speed>
  <fix>3d</fix>
</trkpt>
<trkpt lat="33.810313" lon="-118.393867">
  <ele>-0.12</ele>
  <time>2026-09-01T01:13:38Z</time>
  <course>0.0</course>
  <speed>0.0</speed>
  <fix>3d</fix>
</trkpt>
<trkpt lat="33.810313" lon="-118.393867">
  <ele>-0.11</ele>
  <time>2026-09-01T01:13:38Z</time>
  <course>187.48</course>
  <speed>0.03605551275463989</speed>
  <fix>3d</fix>
</trkpt>
<trkpt lat="33.810313" lon="-118.393867">
  <ele>-0.12</ele>
  <time>2026-09-01T01:13:38Z</time>
  <course>0.0</course>
  <speed>0.0</speed>
  <fix>3d</fix>
</trkpt>
<trkpt lat="33.810313" lon="-118.393867">
  <ele>-0.11</ele>
  <time>2026-09-01T01:13:38Z</time>
  <course>187.47</course>
  <speed>0.03605551275463989</speed>
  <fix>3d</fix>
</trkpt>
<trkpt lat="33.810313" lon="-118.393867">
  <ele>-0.12</ele>
  <time>2026-09-01T01:13:38Z</time>
  <course>0.0</course>
  <speed>0.0</speed>
  <fix>3d</fix>
</trkpt>
<trkpt lat="33.810313" lon="-118.393867">
  <ele>-0.111</ele>
  <time>2026-09-01T01:13:38Z</time>
  <course>187.47</course>
  <speed>0.03605551275463989</speed>
  <fix>3d</fix>
</trkpt>
<trkpt lat="33.810313" lon="-118.393867">
  <ele>-0.12</ele>
  <time>2026-09-01T01:13:38Z</time>
  <course>0.0</course>
  <speed>0.0</speed>
  <fix>3d</fix>
</trkpt>
<trkpt lat="33.810313" lon="-118.393867">
  <ele>-0.111</ele>
  <time>2026-09-01T01:13:38Z</time>
  <course>187.46</course>
  <speed>0.03605551275463989</speed>
  <fix>3d</fix>
</trkpt>
<trkpt lat="33.810313" lon="-118.393867">
  <ele>-0.12</ele>
  <time>2026-09-01T01:13:38Z</time>
  <course>0.0</course>
  <speed>0.0</speed>
  <fix>3d</fix>
</trkpt>
<trkpt lat="33.810313" lon="-118.393867">
  <ele>-0.112</ele>
  <time>2026-09-01T01:13:38Z</time>
  <course>187.45</course>
  <speed>0.03605551275463989</speed>
  <fix>3d</fix>
</trkpt>
<trkpt lat="33.810313" lon="-118.393867">
  <ele>-0.12</ele>
  <time>2026-09-01T01:13:38Z</time>
  <course>0.0</course>
  <speed>0.0</speed>
  <fix>3d</fix>
</trkpt>
<trkpt lat="33.810313" lon="-118.393867">
  <ele>-0.112</ele>
  <time>2026-09-01T01:13:38Z</time>
  <course>187.45</course>
  <speed>0.03605551275463989</speed>
  <fix>3d</fix>
</trkpt>
<trkpt lat="33.810313" lon="-118.393867">
  <ele>-0.12</ele>
  <time>2026-09-01T01:13:38Z</time>
  <course>0.0</course>
  <speed>0.0</speed>
  <fix>3d</fix>
</trkpt>
<trkpt lat="33.810313" lon="-118.393867">
  <ele>-0.112</ele>
  <time>2026-09-01T01:13:38Z</time>
  <course>187.44</course>
  <speed>0.03605551275463989</speed>
  <fix>3d</fix>
</trkpt>
<trkpt lat="33.810313" lon="-118.393867">
  <ele>-0.12</ele>
  <time>2026-09-01T01:13:38Z</time>
  <course>0.0</course>
  <speed>0.0</speed>
  <fix>3d</fix>
</trkpt>
<trkpt lat="33.810313" lon="-118.393867">
  <ele>-0.111</ele>
  <time>2026-09-01T01:13:38Z</time>
  <course>187.43</course>
  <speed>0.03605551275463989</speed>
  <fix>3d</fix>
</trkpt>
<trkpt lat="33.810313" lon="-118.393867">
  <ele>-0.12</ele>
  <time>2026-09-01T01:13:38Z</time>
  <course>0.0</course>
  <speed>0.0</speed>
  <fix>3d</fix>
</trkpt>
<trkpt lat="33.810313" lon="-118.393867">
  <ele>-0.11</ele>
  <time>2026-09-01T01:13:38Z</time>
  <course>187.43</course>
  <speed>0.03605551275463989</speed>
  <fix>3d</fix>
</trkpt>
<trkpt lat="33.810313" lon="-118.393867">
  <ele>-0.12</ele>
  <time>2026-09-01T01:13:38Z</time>
  <course>0.0</course>
  <speed>0.0</speed>
  <fix>3d</fix>
</trkpt>
<trkpt lat="33.810313" lon="-118.393867">
  <ele>-0.11</ele>
  <time>2026-09-01T01:13:38Z</time>
  <course>187.42</course>
  <speed>0.03605551275463989</speed>
  <fix>3d</fix>
</trkpt>
<trkpt lat="33.810313" lon="-118.393867">
  <ele>-0.12</ele>
  <time>2026-09-01T01:13:38Z</time>
  <course>0.0</course>
  <speed>0.0</speed>
  <fix>3d</fix>
</trkpt>
<trkpt lat="33.810313" lon="-118.393867">
  <ele>-0.11</ele>
  <time>2026-09-01T01:13:38Z</time>
  <course>187.42</course>
  <speed>0.03605551275463989</speed>
  <fix>3d</fix>
</trkpt>
<trkpt lat="33.810313" lon="-118.393867">
  <ele>-0.12</ele>
  <time>2026-09-01T01:13:38Z</time>
  <course>0.0</course>
  <speed>0.0</speed>
  <fix>3d</fix>
</trkpt>
<trkpt lat="33.810313" lon="-118.393867">
  <ele>-0.111</ele>
  <time>2026-09-01T01:13:38Z</time>
  <course>187.41</course>
  <speed>0.03605551275463989</speed>
  <fix>3d</fix>
</trkpt>
<trkpt lat="33.810313" lon="-118.393867">
  <ele>-0.12</ele>
  <time>2026-09-01T01:13:38Z</time>
  <course>0.0</course>
  <speed>0.0</speed>
  <fix>3d</fix>
</trkpt>
<trkpt lat="33.810313" lon="-118.393867">
  <ele>-0.113</ele>
  <time>2026-09-01T01:13:38Z</time>
  <course>187.4</course>
  <speed>0.03605551275463989</speed>
  <fix>3d</fix>
</trkpt>
<trkpt lat="33.810313" lon="-118.393867">
  <ele>-0.12</ele>
  <time>2026-09-01T01:13:38Z</time>
  <course>0.0</course>
  <speed>0.0</speed>
  <fix>3d</fix>
</trkpt>
<trkpt lat="33.810313" lon="-118.393867">
  <ele>-0.116</ele>
  <time>2026-09-01T01:13:38Z</time>
  <course>187.4</course>
  <speed>0.03605551275463989</speed>
  <fix>3d</fix>
</trkpt>
<trkpt lat="33.810313" lon="-118.393867">
  <ele>-0.12</ele>
  <time>2026-09-01T01:13:38Z</time>
  <course>0.0</course>
  <speed>0.0</speed>
  <fix>3d</fix>
</trkpt>
<trkpt lat="33.810313" lon="-118.393867">
  <ele>-0.118</ele>
  <time>2026-09-01T01:13:38Z</time>
  <course>187.39</course>
  <speed>0.03605551275463989</speed>
  <fix>3d</fix>
</trkpt>
<trkpt lat="33.810313" lon="-118.393867">
  <ele>-0.12</ele>
  <time>2026-09-01T01:13:38Z</time>
  <course>0.0</course>
  <speed>0.0</speed>
  <fix>3d</fix>
</trkpt>
<trkpt lat="33.810313" lon="-118.393867">
  <ele>-0.12</ele>
  <time>2026-09-01T01:13:38Z</time>
  <course>187.39</course>
  <speed>0.03605551275463989</speed>
  <fix>3d</fix>
</trkpt>
<trkpt lat="33.810313" lon="-118.393867">
  <ele>-0.12</ele>
  <time>2026-09-01T01:13:38Z</time>
  <course>0.0</course>
  <speed>0.0</speed>
  <fix>3d</fix>
</trkpt>
<trkpt lat="33.810313" lon="-118.393867">
  <ele>-0.121</ele>
  <time>2026-09-01T01:13:38Z</time>
  <course>187.38</course>
  <speed>0.03605551275463989</speed>
  <fix>3d</fix>
</trkpt>
<trkpt lat="33.810313" lon="-118.393867">
  <ele>-0.12</ele>
  <time>2026-09-01T01:13:38Z</time>
  <course>0.0</course>
  <speed>0.0</speed>
  <fix>3d</fix>
</trkpt>
<trkpt lat="33.810313" lon="-118.393867">
  <ele>-0.121</ele>
  <time>2026-09-01T01:13:38Z</time>
  <course>187.37</course>
  <speed>0.03605551275463989</speed>
  <fix>3d</fix>
</trkpt>
<trkpt lat="33.810313" lon="-118.393867">
  <ele>-0.12</ele>
  <time>2026-09-01T01:13:38Z</time>
  <course>0.0</course>
  <speed>0.0</speed>
  <fix>3d</fix>
</trkpt>
<trkpt lat="33.810313" lon="-118.393867">
  <ele>-0.121</ele>
  <time>2026-09-01T01:13:38Z</time>
  <course>187.37</course>
  <speed>0.03605551275463989</speed>
  <fix>3d</fix>
</trkpt>
<trkpt lat="33.810313" lon="-118.393867">
  <ele>-0.12</ele>
  <time>2026-09-01T01:13:38Z</time>
  <course>0.0</course>
  <speed>0.0</speed>
  <fix>3d</fix>
</trkpt>
<trkpt lat="33.810313" lon="-118.393867">
  <ele>-0.12</ele>
  <time>2026-09-01T01:13:38Z</time>
  <course>187.36</course>
  <speed>0.03605551275463989</speed>
  <fix>3d</fix>
</trkpt>
<trkpt lat="33.810313" lon="-118.393867">
  <ele>-0.12</ele>
  <time>2026-09-01T01:13:38Z</time>
  <course>0.0</course>
  <speed>0.0</speed>
  <fix>3d</fix>
</trkpt>
<trkpt lat="33.810313" lon="-118.393867">
  <ele>-0.12</ele>
  <time>2026-09-01T01:13:38Z</time>
  <course>187.35</course>
  <speed>0.03605551275463989</speed>
  <fix>3d</fix>
</trkpt>
<trkpt lat="33.810313" lon="-118.393867">
  <ele>-0.12</ele>
  <time>2026-09-01T01:13:38Z</time>
  <course>0.0</course>
  <speed>0.0</speed>
  <fix>3d</fix>
</trkpt>
<trkpt lat="33.810313" lon="-118.393867">
  <ele>-0.12</ele>
  <time>2026-09-01T01:13:38Z</time>
  <course>187.35</course>
  <speed>0.03605551275463989</speed>
  <fix>3d</fix>
</trkpt>
<trkpt lat="33.810313" lon="-118.393867">
  <ele>-0.12</ele>
  <time>2026-09-01T01:13:38Z</time>
  <course>0.0</course>
  <speed>0.0</speed>
  <fix>3d</fix>
</trkpt>
<trkpt lat="33.810313" lon="-118.393867">
  <ele>-0.121</ele>
  <time>2026-09-01T01:13:38Z</time>
  <course>187.34</course>
  <speed>0.03605551275463989</speed>
  <fix>3d</fix>
</trkpt>
<trkpt lat="33.810313" lon="-118.393867">
  <ele>-0.12</ele>
  <time>2026-09-01T01:13:38Z</time>
  <course>0.0</course>
  <speed>0.0</speed>
  <fix>3d</fix>
</trkpt>
<trkpt lat="33.810313" lon="-118.393867">
  <ele>-0.123</ele>
  <time>2026-09-01T01:13:38Z</time>
  <course>187.34</course>
  <speed>0.03605551275463989</speed>
  <fix>3d</fix>
</trkpt>
<trkpt lat="33.810313" lon="-118.393867">
  <ele>-0.12</ele>
  <time>2026-09-01T01:13:38Z</time>
  <course>0.0</course>
  <speed>0.0</speed>
  <fix>3d</fix>
</trkpt>
<trkpt lat="33.810313" lon="-118.393867">
  <ele>-0.125</ele>
  <time>2026-09-01T01:13:38Z</time>
  <course>187.33</course>
  <speed>0.03605551275463989</speed>
  <fix>3d</fix>
</trkpt>
<trkpt lat="33.810313" lon="-118.393867">
  <ele>-0.12</ele>
  <time>2026-09-01T01:13:38Z</time>
  <course>0.0</course>
  <speed>0.0</speed>
  <fix>3d</fix>
</trkpt>
<trkpt lat="33.810313" lon="-118.393867">
  <ele>-0.128</ele>
  <time>2026-09-01T01:13:38Z</time>
  <course>187.33</course>
  <speed>0.03605551275463989</speed>
  <fix>3d</fix>
</trkpt>
<trkpt lat="33.810313" lon="-118.393867">
  <ele>-0.12</ele>
  <time>2026-09-01T01:13:38Z</time>
  <course>0.0</course>
  <speed>0.0</speed>
  <fix>3d</fix>
</trkpt>
<trkpt lat="33.810313" lon="-118.393867">
  <ele>-0.129</ele>
  <time>2026-09-01T01:13:38Z</time>
  <course>187.32</course>
  <speed>0.03605551275463989</speed>
  <fix>3d</fix>
</trkpt>
<trkpt lat="33.810313" lon="-118.393867">
  <ele>-0.12</ele>
  <time>2026-09-01T01:13:38Z</time>
  <course>0.0</course>
  <speed>0.0</speed>
  <fix>3d</fix>
</trkpt>
<trkpt lat="33.810313" lon="-118.393867">
  <ele>-0.13</ele>
  <time>2026-09-01T01:13:38Z</time>
  <course>187.31</course>
  <speed>0.03605551275463989</speed>
  <fix>3d</fix>
</trkpt>
<trkpt lat="33.810313" lon="-118.393867">
  <ele>-0.12</ele>
  <time>2026-09-01T01:13:38Z</time>
  <course>0.0</course>
  <speed>0.0</speed>
  <fix>3d</fix>
</trkpt>
<trkpt lat="33.810313" lon="-118.393867">
  <ele>-0.129</ele>
  <time>2026-09-01T01:13:38Z</time>
  <course>187.31</course>
  <speed>0.03605551275463989</speed>
  <fix>3d</fix>
</trkpt>
<trkpt lat="33.810313" lon="-118.393867">
  <ele>-0.12</ele>
  <time>2026-09-01T01:13:38Z</time>
  <course>0.0</course>
  <speed>0.0</speed>
  <fix>3d</fix>
</trkpt>
<trkpt lat="33.810313" lon="-118.393867">
  <ele>-0.128</ele>
  <time>2026-09-01T01:13:38Z</time>
  <course>187.3</course>
  <speed>0.03605551275463989</speed>
  <fix>3d</fix>
</trkpt>
<trkpt lat="33.810313" lon="-118.393867">
  <ele>-0.12</ele>
  <time>2026-09-01T01:13:38Z</time>
  <course>0.0</course>
  <speed>0.0</speed>
  <fix>3d</fix>
</trkpt>
<trkpt lat="33.810313" lon="-118.393867">
  <ele>-0.127</ele>
  <time>2026-09-01T01:13:38Z</time>
  <course>187.3</course>
  <speed>0.03605551275463989</speed>
  <fix>3d</fix>
</trkpt>
<trkpt lat="33.810313" lon="-118.393867">
  <ele>-0.12</ele>
  <time>2026-09-01T01:13:38Z</time>
  <course>0.0</course>
  <speed>0.0</speed>
  <fix>3d</fix>
</trkpt>
<trkpt lat="33.810313" lon="-118.393867">
  <ele>-0.124</ele>
  <time>2026-09-01T01:13:38Z</time>
  <course>187.29</course>
  <speed>0.03605551275463989</speed>
  <fix>3d</fix>
</trkpt>
<trkpt lat="33.810313" lon="-118.393867">
  <ele>-0.12</ele>
  <time>2026-09-01T01:13:38Z</time>
  <course>0.0</course>
  <speed>0.0</speed>
  <fix>3d</fix>
</trkpt>
<trkpt lat="33.810313" lon="-118.393867">
  <ele>-0.123</ele>
  <time>2026-09-01T01:13:38Z</time>
  <course>187.29</course>
  <speed>0.03605551275463989</speed>
  <fix>3d</fix>
</trkpt>
<trkpt lat="33.810313" lon="-118.393867">
  <ele>-0.12</ele>
  <time>2026-09-01T01:13:38Z</time>
  <course>0.0</course>
  <speed>0.0</speed>
  <fix>3d</fix>
</trkpt>
<trkpt lat="33.810313" lon="-118.393867">
  <ele>-0.123</ele>
  <time>2026-09-01T01:13:38Z</time>
  <course>187.28</course>
  <speed>0.03605551275463989</speed>
  <fix>3d</fix>
</trkpt>
<trkpt lat="33.810313" lon="-118.393867">
  <ele>-0.12</ele>
  <time>2026-09-01T01:13:38Z</time>
  <course>0.0</course>
  <speed>0.0</speed>
  <fix>3d</fix>
</trkpt>
<trkpt lat="33.810313" lon="-118.393867">
  <ele>-0.125</ele>
  <time>2026-09-01T01:13:38Z</time>
  <course>187.28</course>
  <speed>0.03605551275463989</speed>
  <fix>3d</fix>
</trkpt>
<trkpt lat="33.810313" lon="-118.393867">
  <ele>-0.12</ele>
  <time>2026-09-01T01:13:38Z</time>
  <course>0.0</course>
  <speed>0.0</speed>
  <fix>3d</fix>
</trkpt>
<trkpt lat="33.810313" lon="-118.393867">
  <ele>-0.126</ele>
  <time>2026-09-01T01:13:38Z</time>
  <course>187.27</course>
  <speed>0.03605551275463989</speed>
  <fix>3d</fix>
</trkpt>
<trkpt lat="33.810313" lon="-118.393867">
  <ele>-0.12</ele>
  <time>2026-09-01T01:13:38Z</time>
  <course>0.0</course>
  <speed>0.0</speed>
  <fix>3d</fix>
</trkpt>
<trkpt lat="33.810313" lon="-118.393867">
  <ele>-0.126</ele>
  <time>2026-09-01T01:13:38Z</time>
  <course>187.27</course>
  <speed>0.03605551275463989</speed>
  <fix>3d</fix>
</trkpt>
<trkpt lat="33.810313" lon="-118.393867">
  <ele>-0.12</ele>
  <time>2026-09-01T01:13:38Z</time>
  <course>0.0</course>
  <speed>0.0</speed>
  <fix>3d</fix>
</trkpt>
<trkpt lat="33.810313" lon="-118.393867">
  <ele>-0.126</ele>
  <time>2026-09-01T01:13:38Z</time>
  <course>187.26</course>
  <speed>0.03605551275463989</speed>
  <fix>3d</fix>
</trkpt>
<trkpt lat="33.810313" lon="-118.393867">
  <ele>-0.12</ele>
  <time>2026-09-01T01:13:38Z</time>
  <course>0.0</course>
  <speed>0.0</speed>
  <fix>3d</fix>
</trkpt>
<trkpt lat="33.810313" lon="-118.393867">
  <ele>-0.124</ele>
  <time>2026-09-01T01:13:38Z</time>
  <course>187.25</course>
  <speed>0.03605551275463989</speed>
  <fix>3d</fix>
</trkpt>
<trkpt lat="33.810313" lon="-118.393867">
  <ele>-0.12</ele>
  <time>2026-09-01T01:13:38Z</time>
  <course>0.0</course>
  <speed>0.0</speed>
  <fix>3d</fix>
</trkpt>
<trkpt lat="33.810313" lon="-118.393867">
  <ele>-0.121</ele>
  <time>2026-09-01T01:13:38Z</time>
  <course>187.25</course>
  <speed>0.03605551275463989</speed>
  <fix>3d</fix>
</trkpt>
<trkpt lat="33.810313" lon="-118.393867">
  <ele>-0.12</ele>
  <time>2026-09-01T01:13:38Z</time>
  <course>0.0</course>
  <speed>0.0</speed>
  <fix>3d</fix>
</trkpt>
<trkpt lat="33.810313" lon="-118.393867">
  <ele>-0.118</ele>
  <time>2026-09-01T01:13:38Z</time>
  <course>187.24</course>
  <speed>0.03605551275463989</speed>
  <fix>3d</fix>
</trkpt>
<trkpt lat="33.810313" lon="-118.393867">
  <ele>-0.12</ele>
  <time>2026-09-01T01:13:38Z</time>
  <course>0.0</course>
  <speed>0.0</speed>
  <fix>3d</fix>
</trkpt>
<trkpt lat="33.810313" lon="-118.393867">
  <ele>-0.116</ele>
  <time>2026-09-01T01:13:38Z</time>
  <course>187.24</course>
  <speed>0.03605551275463989</speed>
  <fix>3d</fix>
</trkpt>
<trkpt lat="33.810313" lon="-118.393867">
  <ele>-0.12</ele>
  <time>2026-09-01T01:13:38Z</time>
  <course>0.0</course>
  <speed>0.0</speed>
  <fix>3d</fix>
</trkpt>
<trkpt lat="33.810313" lon="-118.393867">
  <ele>-0.115</ele>
  <time>2026-09-01T01:13:38Z</time>
  <course>187.23</course>
  <speed>0.03605551275463989</speed>
  <fix>3d</fix>
</trkpt>
<trkpt lat="33.810313" lon="-118.393867">
  <ele>-0.12</ele>
  <time>2026-09-01T01:13:38Z</time>
  <course>0.0</course>
  <speed>0.0</speed>
  <fix>3d</fix>
</trkpt>
<trkpt lat="33.810313" lon="-118.393867">
  <ele>-0.116</ele>
  <time>2026-09-01T01:13:38Z</time>
  <course>187.23</course>
  <speed>0.03605551275463989</speed>
  <fix>3d</fix>
</trkpt>
<trkpt lat="33.810313" lon="-118.393867">
  <ele>-0.12</ele>
  <time>2026-09-01T01:13:38Z</time>
  <course>0.0</course>
  <speed>0.0</speed>
  <fix>3d</fix>
</trkpt>
<trkpt lat="33.810313" lon="-118.393867">
  <ele>-0.117</ele>
  <time>2026-09-01T01:13:38Z</time>
  <course>187.22</course>
  <speed>0.03605551275463989</speed>
  <fix>3d</fix>
</trkpt>
<trkpt lat="33.810313" lon="-118.393867">
  <ele>-0.12</ele>
  <time>2026-09-01T01:13:38Z</time>
  <course>0.0</course>
  <speed>0.0</speed>
  <fix>3d</fix>
</trkpt>
<trkpt lat="33.810313" lon="-118.393867">
  <ele>-0.119</ele>
  <time>2026-09-01T01:13:38Z</time>
  <course>187.22</course>
  <speed>0.03605551275463989</speed>
  <fix>3d</fix>
</trkpt>
<trkpt lat="33.810313" lon="-118.393867">
  <ele>-0.12</ele>
  <time>2026-09-01T01:13:38Z</time>
  <course>0.0</course>
  <speed>0.0</speed>
  <fix>3d</fix>
</trkpt>
<trkpt lat="33.810313" lon="-118.393867">
  <ele>-0.12</ele>
  <time>2026-09-01T01:13:38Z</time>
  <course>187.21</course>
  <speed>0.03605551275463989</speed>
  <fix>3d</fix>
</trkpt>
<trkpt lat="33.810313" lon="-118.393867">
  <ele>-0.12</ele>
  <time>2026-09-01T01:13:38Z</time>
  <course>0.0</course>
  <speed>0.0</speed>
  <fix>3d</fix>
</trkpt>
<trkpt lat="33.810313" lon="-118.393867">
  <ele>-0.12</ele>
  <time>2026-09-01T01:13:38Z</time>
  <course>187.21</course>
  <speed>0.03605551275463989</speed>
  <fix>3d</fix>
</trkpt>
<trkpt lat="33.810313" lon="-118.393867">
  <ele>-0.12</ele>
  <time>2026-09-01T01:13:38Z</time>
  <course>0.0</course>
  <speed>0.0</speed>
  <fix>3d</fix>
</trkpt>
<trkpt lat="33.810313" lon="-118.393867">
  <ele>-0.119</ele>
  <time>2026-09-01T01:13:38Z</time>
  <course>187.2</course>
  <speed>0.03605551275463989</speed>
  <fix>3d</fix>
</trkpt>
<trkpt lat="33.810313" lon="-118.393867">
  <ele>-0.12</ele>
  <time>2026-09-01T01:13:38Z</time>
  <course>0.0</course>
  <speed>0.0</speed>
  <fix>3d</fix>
</trkpt>
<trkpt lat="33.810313" lon="-118.393867">
  <ele>-0.118</ele>
  <time>2026-09-01T01:13:38Z</time>
  <course>187.2</course>
  <speed>0.03605551275463989</speed>
  <fix>3d</fix>
</trkpt>
<trkpt lat="33.810313" lon="-118.393867">
  <ele>-0.12</ele>
  <time>2026-09-01T01:13:38Z</time>
  <course>0.0</course>
  <speed>0.0</speed>
  <fix>3d</fix>
</trkpt>
<trkpt lat="33.810313" lon="-118.393867">
  <ele>-0.116</ele>
  <time>2026-09-01T01:13:38Z</time>
  <course>187.19</course>
  <speed>0.03605551275463989</speed>
  <fix>3d</fix>
</trkpt>
<trkpt lat="33.810313" lon="-118.393867">
  <ele>-0.12</ele>
  <time>2026-09-01T01:13:38Z</time>
  <course>0.0</course>
  <speed>0.0</speed>
  <fix>3d</fix>
</trkpt>
<trkpt lat="33.810313" lon="-118.393867">
  <ele>-0.114</ele>
  <time>2026-09-01T01:13:38Z</time>
  <course>187.19</course>
  <speed>0.03605551275463989</speed>
  <fix>3d</fix>
</trkpt>
<trkpt lat="33.810313" lon="-118.393867">
  <ele>-0.12</ele>
  <time>2026-09-01T01:13:38Z</time>
  <course>0.0</course>
  <speed>0.0</speed>
  <fix>3d</fix>
</trkpt>
<trkpt lat="33.810313" lon="-118.393867">
  <ele>-0.113</ele>
  <time>2026-09-01T01:13:38Z</time>
  <course>187.18</course>
  <speed>0.03605551275463989</speed>
  <fix>3d</fix>
</trkpt>
<trkpt lat="33.810313" lon="-118.393867">
  <ele>-0.12</ele>
  <time>2026-09-01T01:13:38Z</time>
  <course>0.0</course>
  <speed>0.0</speed>
  <fix>3d</fix>
</trkpt>
<trkpt lat="33.810313" lon="-118.393867">
  <ele>-0.113</ele>
  <time>2026-09-01T01:13:38Z</time>
  <course>187.18</course>
  <speed>0.03605551275463989</speed>
  <fix>3d</fix>
</trkpt>
<trkpt lat="33.810313" lon="-118.393867">
  <ele>-0.12</ele>
  <time>2026-09-01T01:13:38Z</time>
  <course>0.0</course>
  <speed>0.0</speed>
  <fix>3d</fix>
</trkpt>
<trkpt lat="33.810313" lon="-118.393867">
  <ele>-0.113</ele>
  <time>2026-09-01T01:13:38Z</time>
  <course>187.17</course>
  <speed>0.03605551275463989</speed>
  <fix>3d</fix>
</trkpt>
<trkpt lat="33.810313" lon="-118.393867">
  <ele>-0.12</ele>
  <time>2026-09-01T01:13:38Z</time>
  <course>0.0</course>
  <speed>0.0</speed>
  <fix>3d</fix>
</trkpt>
<trkpt lat="33.810313" lon="-118.393867">
  <ele>-0.114</ele>
  <time>2026-09-01T01:13:38Z</time>
  <course>187.17</course>
  <speed>0.0</speed>
  <fix>3d</fix>
</trkpt>
<trkpt lat="33.810313" lon="-118.393867">
  <ele>-0.12</ele>
  <time>2026-09-01T01:13:38Z</time>
  <course>0.0</course>
  <speed>0.0</speed>
  <fix>3d</fix>
</trkpt>
<trkpt lat="33.810313" lon="-118.393867">
  <ele>-0.115</ele>
  <time>2026-09-01T01:13:38Z</time>
  <course>187.16</course>
  <speed>0.0</speed>
  <fix>3d</fix>
</trkpt>
<trkpt lat="33.810313" lon="-118.393867">
  <ele>-0.12</ele>
  <time>2026-09-01T01:13:38Z</time>
  <course>0.0</course>
  <speed>0.0</speed>
  <fix>3d</fix>
</trkpt>
<trkpt lat="33.810313" lon="-118.393867">
  <ele>-0.116</ele>
  <time>2026-09-01T01:13:38Z</time>
  <course>187.16</course>
  <speed>0.0</speed>
  <fix>3d</fix>
</trkpt>
<trkpt lat="33.810313" lon="-118.393867">
  <ele>-0.12</ele>
  <time>2026-09-01T01:13:38Z</time>
  <course>0.0</course>
  <speed>0.0</speed>
  <fix>3d</fix>
</trkpt>
<trkpt lat="33.810313" lon="-118.393867">
  <ele>-0.117</ele>
  <time>2026-09-01T01:13:38Z</time>
  <course>187.15</course>
  <speed>0.0</speed>
  <fix>3d</fix>
</trkpt>
<trkpt lat="33.810313" lon="-118.393867">
  <ele>-0.12</ele>
  <time>2026-09-01T01:13:38Z</time>
  <course>0.0</course>
  <speed>0.0</speed>
  <fix>3d</fix>
</trkpt>
<trkpt lat="33.810313" lon="-118.393867">
  <ele>-0.118</ele>
  <time>2026-09-01T01:13:38Z</time>
  <course>187.15</course>
  <speed>0.0</speed>
  <fix>3d</fix>
</trkpt>
<trkpt lat="33.810313" lon="-118.393867">
  <ele>-0.12</ele>
  <time>2026-09-01T01:13:38Z</time>
  <course>0.0</course>
  <speed>0.0</speed>
  <fix>3d</fix>
</trkpt>
<trkpt lat="33.810313" lon="-118.393867">
  <ele>-0.118</ele>
  <time>2026-09-01T01:13:38Z</time>
  <course>187.14</course>
  <speed>0.0</speed>
  <fix>3d</fix>
</trkpt>
<trkpt lat="33.810313" lon="-118.393867">
  <ele>-0.12</ele>
  <time>2026-09-01T01:13:38Z</time>
  <course>0.0</course>
  <speed>0.0</speed>
  <fix>3d</fix>
</trkpt>
<trkpt lat="33.810313" lon="-118.393867">
  <ele>-0.118</ele>
  <time>2026-09-01T01:13:38Z</time>
  <course>187.14</course>
  <speed>0.0</speed>
  <fix>3d</fix>
</trkpt>
<trkpt lat="33.810313" lon="-118.393867">
  <ele>-0.12</ele>
  <time>2026-09-01T01:13:38Z</time>
  <course>0.0</course>
  <speed>0.0</speed>
  <fix>3d</fix>
</trkpt>
<trkpt lat="33.810313" lon="-118.393867">
  <ele>-0.117</ele>
  <time>2026-09-01T01:13:38Z</time>
  <course>187.13</course>
  <speed>0.0</speed>
  <fix>3d</fix>
</trkpt>
<trkpt lat="33.810313" lon="-118.393867">
  <ele>-0.12</ele>
  <time>2026-09-01T01:13:38Z</time>
  <course>0.0</course>
  <speed>0.0</speed>
  <fix>3d</fix>
</trkpt>
<trkpt lat="33.810313" lon="-118.393867">
  <ele>-0.116</ele>
  <time>2026-09-01T01:13:38Z</time>
  <course>187.13</course>
  <speed>0.0</speed>
  <fix>3d</fix>
</trkpt>
<trkpt lat="33.810313" lon="-118.393867">
  <ele>-0.12</ele>
  <time>2026-09-01T01:13:38Z</time>
  <course>0.0</course>
  <speed>0.0</speed>
  <fix>3d</fix>
</trkpt>
<trkpt lat="33.810313" lon="-118.393867">
  <ele>-0.116</ele>
  <time>2026-09-01T01:13:38Z</time>
  <course>187.12</course>
  <speed>0.0</speed>
  <fix>3d</fix>
</trkpt>
<trkpt lat="33.810313" lon="-118.393867">
  <ele>-0.12</ele>
  <time>2026-09-01T01:13:38Z</time>
  <course>0.0</course>
  <speed>0.0</speed>
  <fix>3d</fix>
</trkpt>
<trkpt lat="33.810313" lon="-118.393867">
  <ele>-0.116</ele>
  <time>2026-09-01T01:13:38Z</time>
  <course>187.12</course>
  <speed>0.0</speed>
  <fix>3d</fix>
</trkpt>
<trkpt lat="33.810313" lon="-118.393867">
  <ele>-0.12</ele>
  <time>2026-09-01T01:13:38Z</time>
  <course>0.0</course>
  <speed>0.0</speed>
  <fix>3d</fix>
</trkpt>
<trkpt lat="33.810313" lon="-118.393867">
  <ele>-0.117</ele>
  <time>2026-09-01T01:13:38Z</time>
  <course>187.11</course>
  <speed>0.01</speed>
  <fix>3d</fix>
</trkpt>
<trkpt lat="33.810313" lon="-118.393867">
  <ele>-0.12</ele>
  <time>2026-09-01T01:13:38Z</time>
  <course>0.0</course>
  <speed>0.0</speed>
  <fix>3d</fix>
</trkpt>
<trkpt lat="33.810313" lon="-118.393867">
  <ele>-0.118</ele>
  <time>2026-09-01T01:13:38Z</time>
  <course>187.11</course>
  <speed>0.01</speed>
  <fix>3d</fix>
</trkpt>
<trkpt lat="33.810313" lon="-118.393867">
  <ele>-0.12</ele>
  <time>2026-09-01T01:13:38Z</time>
  <course>0.0</course>
  <speed>0.0</speed>
  <fix>3d</fix>
</trkpt>
<trkpt lat="33.810313" lon="-118.393867">
  <ele>-0.119</ele>
  <time>2026-09-01T01:13:38Z</time>
  <course>187.1</course>
  <speed>0.01</speed>
  <fix>3d</fix>
</trkpt>
<trkpt lat="33.810313" lon="-118.393867">
  <ele>-0.12</ele>
  <time>2026-09-01T01:13:38Z</time>
  <course>0.0</course>
  <speed>0.0</speed>
  <fix>3d</fix>
</trkpt>
<trkpt lat="33.810313" lon="-118.393867">
  <ele>-0.118</ele>
  <time>2026-09-01T01:13:38Z</time>
  <course>187.1</course>
  <speed>0.01414213562373095</speed>
  <fix>3d</fix>
</trkpt>
<trkpt lat="33.810313" lon="-118.393867">
  <ele>-0.12</ele>
  <time>2026-09-01T01:13:38Z</time>
  <course>0.0</course>
  <speed>0.0</speed>
  <fix>3d</fix>
</trkpt>
<trkpt lat="33.810313" lon="-118.393867">
  <ele>-0.116</ele>
  <time>2026-09-01T01:13:38Z</time>
  <course>187.09</course>
  <speed>0.01414213562373095</speed>
  <fix>3d</fix>
</trkpt>
<trkpt lat="33.810313" lon="-118.393867">
  <ele>-0.12</ele>
  <time>2026-09-01T01:13:38Z</time>
  <course>0.0</course>
  <speed>0.0</speed>
  <fix>3d</fix>
</trkpt>
<trkpt lat="33.810313" lon="-118.393867">
  <ele>-0.115</ele>
  <time>2026-09-01T01:13:38Z</time>
  <course>187.09</course>
  <speed>0.01414213562373095</speed>
  <fix>3d</fix>
</trkpt>
<trkpt lat="33.810313" lon="-118.393867">
  <ele>-0.12</ele>
  <time>2026-09-01T01:13:38Z</time>
  <course>0.0</course>
  <speed>0.0</speed>
  <fix>3d</fix>
</trkpt>
<trkpt lat="33.810313" lon="-118.393867">
  <ele>-0.116</ele>
  <time>2026-09-01T01:13:38Z</time>
  <course>187.08</course>
  <speed>0.01414213562373095</speed>
  <fix>3d</fix>
</trkpt>
<trkpt lat="33.810313" lon="-118.393867">
  <ele>-0.12</ele>
  <time>2026-09-01T01:13:38Z</time>
  <course>0.0</course>
  <speed>0.0</speed>
  <fix>3d</fix>
</trkpt>
<trkpt lat="33.810313" lon="-118.393867">
  <ele>-0.117</ele>
  <time>2026-09-01T01:13:38Z</time>
  <course>187.08</course>
  <speed>0.01414213562373095</speed>
  <fix>3d</fix>
</trkpt>
<trkpt lat="33.810313" lon="-118.393867">
  <ele>-0.12</ele>
  <time>2026-09-01T01:13:38Z</time>
  <course>0.0</course>
  <speed>0.0</speed>
  <fix>3d</fix>
</trkpt>
<trkpt lat="33.810313" lon="-118.393867">
  <ele>-0.118</ele>
  <time>2026-09-01T01:13:38Z</time>
  <course>187.07</course>
  <speed>0.01414213562373095</speed>
  <fix>3d</fix>
</trkpt>
<trkpt lat="33.810313" lon="-118.393867">
  <ele>-0.12</ele>
  <time>2026-09-01T01:13:38Z</time>
  <course>0.0</course>
  <speed>0.0</speed>
  <fix>3d</fix>
</trkpt>
<trkpt lat="33.810313" lon="-118.393867">
  <ele>-0.12</ele>
  <time>2026-09-01T01:13:38Z</time>
  <course>187.07</course>
  <speed>0.01414213562373095</speed>
  <fix>3d</fix>
</trkpt>
<trkpt lat="33.810313" lon="-118.393867">
  <ele>-0.12</ele>
  <time>2026-09-01T01:13:38Z</time>
  <course>0.0</course>
  <speed>0.0</speed>
  <fix>3d</fix>
</trkpt>
<trkpt lat="33.810313" lon="-118.393867">
  <ele>-0.122</ele>
  <time>2026-09-01T01:13:38Z</time>
  <course>187.06</course>
  <speed>0.022360679774997897</speed>
  <fix>3d</fix>
</trkpt>
<trkpt lat="33.810313" lon="-118.393867">
  <ele>-0.12</ele>
  <time>2026-09-01T01:13:38Z</time>
  <course>0.0</course>
  <speed>0.0</speed>
  <fix>3d</fix>
</trkpt>
<trkpt lat="33.810313" lon="-118.393867">
  <ele>-0.123</ele>
  <time>2026-09-01T01:13:38Z</time>
  <course>187.06</course>
  <speed>0.022360679774997897</speed>
  <fix>3d</fix>
</trkpt>
<trkpt lat="33.810313" lon="-118.393867">
  <ele>-0.12</ele>
  <time>2026-09-01T01:13:38Z</time>
  <course>0.0</course>
  <speed>0.0</speed>
  <fix>3d</fix>
</trkpt>
<trkpt lat="33.810313" lon="-118.393867">
  <ele>-0.124</ele>
  <time>2026-09-01T01:13:38Z</time>
  <course>187.05</course>
  <speed>0.022360679774997897</speed>
  <fix>3d</fix>
</trkpt>
<trkpt lat="33.810313" lon="-118.393867">
  <ele>-0.12</ele>
  <time>2026-09-01T01:13:38Z</time>
  <course>0.0</course>
  <speed>0.0</speed>
  <fix>3d</fix>
</trkpt>
<trkpt lat="33.810313" lon="-118.393867">
  <ele>-0.123</ele>
  <time>2026-09-01T01:13:38Z</time>
  <course>187.05</course>
  <speed>0.022360679774997897</speed>
  <fix>3d</fix>
</trkpt>
<trkpt lat="33.810313" lon="-118.393867">
  <ele>-0.12</ele>
  <time>2026-09-01T01:13:38Z</time>
  <course>0.0</course>
  <speed>0.0</speed>
  <fix>3d</fix>
</trkpt>
<trkpt lat="33.810313" lon="-118.393867">
  <ele>-0.12</ele>
  <time>2026-09-01T01:13:38Z</time>
  <course>187.04</course>
  <speed>0.022360679774997897</speed>
  <fix>3d</fix>
</trkpt>
<trkpt lat="33.810313" lon="-118.393867">
  <ele>-0.12</ele>
  <time>2026-09-01T01:13:38Z</time>
  <course>0.0</course>
  <speed>0.0</speed>
  <fix>3d</fix>
</trkpt>
<trkpt lat="33.8103131" lon="-118.393867">
  <ele>-0.117</ele>
  <time>2026-09-01T01:13:38Z</time>
  <course>187.04</course>
  <speed>0.022360679774997897</speed>
  <fix>3d</fix>
</trkpt>
<trkpt lat="33.810313" lon="-118.393867">
  <ele>-0.12</ele>
  <time>2026-09-01T01:13:38Z</time>
  <course>0.0</course>
  <speed>0.0</speed>
  <fix>3d</fix>
</trkpt>
<trkpt lat="33.8103131" lon="-118.393867">
  <ele>-0.116</ele>
  <time>2026-09-01T01:13:38Z</time>
  <course>187.03</course>
  <speed>0.022360679774997897</speed>
  <fix>3d</fix>
</trkpt>
<trkpt lat="33.810313" lon="-118.393867">
  <ele>-0.12</ele>
  <time>2026-09-01T01:13:38Z</time>
  <course>0.0</course>
  <speed>0.0</speed>
  <fix>3d</fix>
</trkpt>
<trkpt lat="33.8103131" lon="-118.3938671">
  <ele>-0.115</ele>
  <time>2026-09-01T01:13:38Z</time>
  <course>187.03</course>
  <speed>0.022360679774997897</speed>
  <fix>3d</fix>
</trkpt>
<trkpt lat="33.810313" lon="-118.393867">
  <ele>-0.12</ele>
  <time>2026-09-01T01:13:38Z</time>
  <course>0.0</course>
  <speed>0.0</speed>
  <fix>3d</fix>
</trkpt>
<trkpt lat="33.8103131" lon="-118.3938671">
  <ele>-0.114</ele>
  <time>2026-09-01T01:13:38Z</time>
  <course>187.02</course>
  <speed>0.0282842712474619</speed>
  <fix>3d</fix>
</trkpt>
<trkpt lat="33.810313" lon="-118.393867">
  <ele>-0.12</ele>
  <time>2026-09-01T01:13:38Z</time>
  <course>0.0</course>
  <speed>0.0</speed>
  <fix>3d</fix>
</trkpt>
<trkpt lat="33.8103131" lon="-118.3938671">
  <ele>-0.115</ele>
  <time>2026-09-01T01:13:38Z</time>
  <course>187.02</course>
  <speed>0.0282842712474619</speed>
  <fix>3d</fix>
</trkpt>
<trkpt lat="33.810313" lon="-118.393867">
  <ele>-0.12</ele>
  <time>2026-09-01T01:13:38Z</time>
  <course>0.0</course>
  <speed>0.0</speed>
  <fix>3d</fix>
</trkpt>
<trkpt lat="33.8103131" lon="-118.3938671">
  <ele>-0.116</ele>
  <time>2026-09-01T01:13:38Z</time>
  <course>187.02</course>
  <speed>0.0282842712474619</speed>
  <fix>3d</fix>
</trkpt>
<trkpt lat="33.810313" lon="-118.393867">
  <ele>-0.12</ele>
  <time>2026-09-01T01:13:38Z</time>
  <course>0.0</course>
  <speed>0.0</speed>
  <fix>3d</fix>
</trkpt>
<trkpt lat="33.8103131" lon="-118.3938671">
  <ele>-0.117</ele>
  <time>2026-09-01T01:13:38Z</time>
  <course>187.01</course>
  <speed>0.0282842712474619</speed>
  <fix>3d</fix>
</trkpt>
<trkpt lat="33.810313" lon="-118.393867">
  <ele>-0.12</ele>
  <time>2026-09-01T01:13:38Z</time>
  <course>0.0</course>
  <speed>0.0</speed>
  <fix>3d</fix>
</trkpt>
<trkpt lat="33.8103131" lon="-118.3938671">
  <ele>-0.117</ele>
  <time>2026-09-01T01:13:38Z</time>
  <course>187.01</course>
  <speed>0.0282842712474619</speed>
  <fix>3d</fix>
</trkpt>
<trkpt lat="33.810313" lon="-118.393867">
  <ele>-0.12</ele>
  <time>2026-09-01T01:13:38Z</time>
  <course>0.0</course>
  <speed>0.0</speed>
  <fix>3d</fix>
</trkpt>
<trkpt lat="33.8103131" lon="-118.3938671">
  <ele>-0.115</ele>
  <time>2026-09-01T01:13:38Z</time>
  <course>187.0</course>
  <speed>0.03605551275463989</speed>
  <fix>3d</fix>
</trkpt>
<trkpt lat="33.810313" lon="-118.393867">
  <ele>-0.12</ele>
  <time>2026-09-01T01:13:38Z</time>
  <course>0.0</course>
  <speed>0.0</speed>
  <fix>3d</fix>
</trkpt>
<trkpt lat="33.8103131" lon="-118.3938671">
  <ele>-0.114</ele>
  <time>2026-09-01T01:13:38Z</time>
  <course>187.0</course>
  <speed>0.03605551275463989</speed>
  <fix>3d</fix>
</trkpt>
<trkpt lat="33.810313" lon="-118.393867">
  <ele>-0.12</ele>
  <time>2026-09-01T01:13:38Z</time>
  <course>0.0</course>
  <speed>0.0</speed>
  <fix>3d</fix>
</trkpt>
<trkpt lat="33.8103131" lon="-118.3938671">
  <ele>-0.113</ele>
  <time>2026-09-01T01:13:38Z</time>
  <course>186.99</course>
  <speed>0.03605551275463989</speed>
  <fix>3d</fix>
</trkpt>
<trkpt lat="33.810313" lon="-118.393867">
  <ele>-0.12</ele>
  <time>2026-09-01T01:13:38Z</time>
  <course>0.0</course>
  <speed>0.0</speed>
  <fix>3d</fix>
</trkpt>
<trkpt lat="33.8103131" lon="-118.3938671">
  <ele>-0.114</ele>
  <time>2026-09-01T01:13:38Z</time>
  <course>186.99</course>
  <speed>0.03605551275463989</speed>
  <fix>3d</fix>
</trkpt>
<trkpt lat="33.810313" lon="-118.393867">
  <ele>-0.12</ele>
  <time>2026-09-01T01:13:38Z</time>
  <course>0.0</course>
  <speed>0.0</speed>
  <fix>3d</fix>
</trkpt>
<trkpt lat="33.8103131" lon="-118.3938671">
  <ele>-0.114</ele>
  <time>2026-09-01T01:13:38Z</time>
  <course>186.98</course>
  <speed>0.03605551275463989</speed>
  <fix>3d</fix>
</trkpt>
<trkpt lat="33.810313" lon="-118.393867">
  <ele>-0.12</ele>
  <time>2026-09-01T01:13:38Z</time>
  <course>0.0</course>
  <speed>0.0</speed>
  <fix>3d</fix>
</trkpt>
<trkpt lat="33.8103131" lon="-118.3938671">
  <ele>-0.115</ele>
  <time>2026-09-01T01:13:38Z</time>
  <course>186.98</course>
  <speed>0.03605551275463989</speed>
  <fix>3d</fix>
</trkpt>
<trkpt lat="33.810313" lon="-118.393867">
  <ele>-0.12</ele>
  <time>2026-09-01T01:13:38Z</time>
  <course>0.0</course>
  <speed>0.0</speed>
  <fix>3d</fix>
</trkpt>
<trkpt lat="33.8103131" lon="-118.3938671">
  <ele>-0.117</ele>
  <time>2026-09-01T01:13:38Z</time>
  <course>186.97</course>
  <speed>0.03605551275463989</speed>
  <fix>3d</fix>
</trkpt>
<trkpt lat="33.810313" lon="-118.393867">
  <ele>-0.12</ele>
  <time>2026-09-01T01:13:38Z</time>
  <course>0.0</course>
  <speed>0.0</speed>
  <fix>3d</fix>
</trkpt>
<trkpt lat="33.8103132" lon="-118.3938671">
  <ele>-0.119</ele>
  <time>2026-09-01T01:13:38Z</time>
  <course>186.97</course>
  <speed>0.03605551275463989</speed>
  <fix>3d</fix>
</trkpt>
<trkpt lat="33.810313" lon="-118.393867">
  <ele>-0.12</ele>
  <time>2026-09-01T01:13:38Z</time>
  <course>0.0</course>
  <speed>0.0</speed>
  <fix>3d</fix>
</trkpt>
<trkpt lat="33.8103132" lon="-118.3938671">
  <ele>-0.121</ele>
  <time>2026-09-01T01:13:38Z</time>
  <course>186.97</course>
  <speed>0.03605551275463989</speed>
  <fix>3d</fix>
</trkpt>
<trkpt lat="33.810313" lon="-118.393867">
  <ele>-0.12</ele>
  <time>2026-09-01T01:13:38Z</time>
  <course>0.0</course>
  <speed>0.0</speed>
  <fix>3d</fix>
</trkpt>
<trkpt lat="33.8103132" lon="-118.3938671">
  <ele>-0.123</ele>
  <time>2026-09-01T01:13:38Z</time>
  <course>186.96</course>
  <speed>0.03605551275463989</speed>
  <fix>3d</fix>
</trkpt>
<trkpt lat="33.810313" lon="-118.393867">
  <ele>-0.12</ele>
  <time>2026-09-01T01:13:38Z</time>
  <course>0.0</course>
  <speed>0.0</speed>
  <fix>3d</fix>
</trkpt>
<trkpt lat="33.8103132" lon="-118.3938671">
  <ele>-0.123</ele>
  <time>2026-09-01T01:13:38Z</time>
  <course>186.96</course>
  <speed>0.03605551275463989</speed>
  <fix>3d</fix>
</trkpt>
<trkpt lat="33.810313" lon="-118.393867">
  <ele>-0.12</ele>
  <time>2026-09-01T01:13:38Z</time>
  <course>0.0</course>
  <speed>0.0</speed>
  <fix>3d</fix>
</trkpt>
<trkpt lat="33.8103132" lon="-118.3938671">
  <ele>-0.123</ele>
  <time>2026-09-01T01:13:38Z</time>
  <course>186.95</course>
  <speed>0.03605551275463989</speed>
  <fix>3d</fix>
</trkpt>
<trkpt lat="33.810313" lon="-118.393867">
  <ele>-0.12</ele>
  <time>2026-09-01T01:13:38Z</time>
  <course>0.0</course>
  <speed>0.0</speed>
  <fix>3d</fix>
</trkpt>
<trkpt lat="33.8103132" lon="-118.3938671">
  <ele>-0.121</ele>
  <time>2026-09-01T01:13:38Z</time>
  <course>186.95</course>
  <speed>0.03605551275463989</speed>
  <fix>3d</fix>
</trkpt>
<trkpt lat="33.810313" lon="-118.393867">
  <ele>-0.12</ele>
  <time>2026-09-01T01:13:38Z</time>
  <course>0.0</course>
  <speed>0.0</speed>
  <fix>3d</fix>
</trkpt>
<trkpt lat="33.8103132" lon="-118.3938672">
  <ele>-0.119</ele>
  <time>2026-09-01T01:13:38Z</time>
  <course>186.94</course>
  <speed>0.03605551275463989</speed>
  <fix>3d</fix>
</trkpt>
<trkpt lat="33.810313" lon="-118.393867">
  <ele>-0.12</ele>
  <time>2026-09-01T01:13:38Z</time>
  <course>0.0</course>
  <speed>0.0</speed>
  <fix>3d</fix>
</trkpt>
<trkpt lat="33.8103132" lon="-118.3938672">
  <ele>-0.117</ele>
  <time>2026-09-01T01:13:38Z</time>
  <course>186.94</course>
  <speed>0.03605551275463989</speed>
  <fix>3d</fix>
</trkpt>
<trkpt lat="33.810313" lon="-118.393867">
  <ele>-0.12</ele>
  <time>2026-09-01T01:13:38Z</time>
  <course>0.0</course>
  <speed>0.0</speed>
  <fix>3d</fix>
</trkpt>
<trkpt lat="33.8103132" lon="-118.3938671">
  <ele>-0.115</ele>
  <time>2026-09-01T01:13:38Z</time>
  <course>186.94</course>
  <speed>0.0282842712474619</speed>
  <fix>3d</fix>
</trkpt>
<trkpt lat="33.810313" lon="-118.393867">
  <ele>-0.12</ele>
  <time>2026-09-01T01:13:38Z</time>
  <course>0.0</course>
  <speed>0.0</speed>
  <fix>3d</fix>
</trkpt>
<trkpt lat="33.8103132" lon="-118.3938671">
  <ele>-0.113</ele>
  <time>2026-09-01T01:13:38Z</time>
  <course>186.93</course>
  <speed>0.0282842712474619</speed>
  <fix>3d</fix>
</trkpt>
<trkpt lat="33.810313" lon="-118.393867">
  <ele>-0.12</ele>
  <time>2026-09-01T01:13:38Z</time>
  <course>0.0</course>
  <speed>0.0</speed>
  <fix>3d</fix>
</trkpt>
<trkpt lat="33.8103132" lon="-118.3938671">
  <ele>-0.112</ele>
  <time>2026-09-01T01:13:38Z</time>
  <course>186.93</course>
  <speed>0.022360679774997897</speed>
  <fix>3d</fix>
</trkpt>
<trkpt lat="33.810313" lon="-118.393867">
  <ele>-0.12</ele>
  <time>2026-09-01T01:13:38Z</time>
  <course>0.0</course>
  <speed>0.0</speed>
  <fix>3d</fix>
</trkpt>
<trkpt lat="33.8103132" lon="-118.3938671">
  <ele>-0.11</ele>
  <time>2026-09-01T01:13:38Z</time>
  <course>186.93</course>
  <speed>0.022360679774997897</speed>
  <fix>3d</fix>
</trkpt>
<trkpt lat="33.810313" lon="-118.393867">
  <ele>-0.12</ele>
  <time>2026-09-01T01:13:38Z</time>
  <course>0.0</course>
  <speed>0.0</speed>
  <fix>3d</fix>
</trkpt>
<trkpt lat="33.8103132" lon="-118.3938671">
  <ele>-0.11</ele>
  <time>2026-09-01T01:13:38Z</time>
  <course>186.93</course>
  <speed>0.022360679774997897</speed>
  <fix>3d</fix>
</trkpt>
<trkpt lat="33.8103132" lon="-118.3938671">
  <ele>-0.114</ele>
  <time>2026-09-01T01:13:38Z</time>
  <course>186.92</course>
  <speed>0.022360679774997897</speed>
  <fix>3d</fix>
</trkpt>
<trkpt lat="33.810313" lon="-118.393867">
  <ele>-0.12</ele>
  <time>2026-09-01T01:13:38Z</time>
  <course>0.0</course>
  <speed>0.0</speed>
  <fix>3d</fix>
</trkpt>
<trkpt lat="33.8103131" lon="-118.3938671">
  <ele>-0.138</ele>
  <time>2026-09-01T01:13:38Z</time>
  <course>186.92</course>
  <speed>0.022360679774997897</speed>
  <fix>3d</fix>
</trkpt>
<trkpt lat="33.810313" lon="-118.393867">
  <ele>-0.12</ele>
  <time>2026-09-01T01:13:38Z</time>
  <course>0.0</course>
  <speed>0.0</speed>
  <fix>3d</fix>
</trkpt>
<trkpt lat="33.8103131" lon="-118.3938671">
  <ele>-0.18</ele>
  <time>2026-09-01T01:13:38Z</time>
  <course>186.91</course>
  <speed>0.01414213562373095</speed>
  <fix>3d</fix>
</trkpt>
<trkpt lat="33.810313" lon="-118.393867">
  <ele>-0.12</ele>
  <time>2026-09-01T01:13:38Z</time>
  <course>0.0</course>
  <speed>0.0</speed>
  <fix>3d</fix>
</trkpt>
<trkpt lat="33.8103131" lon="-118.3938671">
  <ele>-0.233</ele>
  <time>2026-09-01T01:13:38Z</time>
  <course>186.91</course>
  <speed>0.01414213562373095</speed>
  <fix>3d</fix>
</trkpt>
<trkpt lat="33.810313" lon="-118.393867">
  <ele>-0.16</ele>
  <time>2026-09-01T01:13:38Z</time>
  <course>0.0</course>
  <speed>0.0</speed>
  <fix>3d</fix>
</trkpt>
<trkpt lat="33.8103131" lon="-118.3938671">
  <ele>-0.234</ele>
  <time>2026-09-01T01:13:38Z</time>
  <course>186.91</course>
  <speed>0.01414213562373095</speed>
  <fix>3d</fix>
</trkpt>
<trkpt lat="33.8103131" lon="-118.3938671">
  <ele>-0.292</ele>
  <time>2026-09-01T01:13:38Z</time>
  <course>186.91</course>
  <speed>0.01</speed>
  <fix>3d</fix>
</trkpt>
<trkpt lat="33.810313" lon="-118.393867">
  <ele>-0.16</ele>
  <time>2026-09-01T01:13:38Z</time>
  <course>0.0</course>
  <speed>0.0</speed>
  <fix>3d</fix>
</trkpt>
<trkpt lat="33.8103131" lon="-118.3938671">
  <ele>-0.293</ele>
  <time>2026-09-01T01:13:38Z</time>
  <course>186.91</course>
  <speed>0.01</speed>
  <fix>3d</fix>
</trkpt>
<trkpt lat="33.8103131" lon="-118.3938671">
  <ele>-0.354</ele>
  <time>2026-09-01T01:13:38Z</time>
  <course>186.9</course>
  <speed>0.01</speed>
  <fix>3d</fix>
</trkpt>
<trkpt lat="33.810313" lon="-118.393867">
  <ele>-0.25</ele>
  <time>2026-09-01T01:13:38Z</time>
  <course>0.0</course>
  <speed>0.0</speed>
  <fix>3d</fix>
</trkpt>
<trkpt lat="33.8103131" lon="-118.3938671">
  <ele>-0.376</ele>
  <time>2026-09-01T01:13:38Z</time>
  <course>186.9</course>
  <speed>0.01</speed>
  <fix>3d</fix>
</trkpt>
<trkpt lat="33.8103131" lon="-118.3938671">
  <ele>-0.419</ele>
  <time>2026-09-01T01:13:38Z</time>
  <course>186.9</course>
  <speed>0.0</speed>
  <fix>3d</fix>
</trkpt>
<trkpt lat="33.810313" lon="-118.393867">
  <ele>-0.25</ele>
  <time>2026-09-01T01:13:38Z</time>
  <course>0.0</course>
  <speed>0.0</speed>
  <fix>3d</fix>
</trkpt>
<trkpt lat="33.8103131" lon="-118.3938671">
  <ele>-0.437</ele>
  <time>2026-09-01T01:13:38Z</time>
  <course>186.9</course>
  <speed>0.0</speed>
  <fix>3d</fix>
</trkpt>
<trkpt lat="33.8103131" lon="-118.3938671">
  <ele>-0.484</ele>
  <time>2026-09-01T01:13:38Z</time>
  <course>186.9</course>
  <speed>0.0</speed>
  <fix>3d</fix>
</trkpt>
<trkpt lat="33.810313" lon="-118.393867">
  <ele>-0.37</ele>
  <time>2026-09-01T01:13:38Z</time>
  <course>0.0</course>
  <speed>0.0</speed>
  <fix>3d</fix>
</trkpt>
<trkpt lat="33.8103131" lon="-118.3938671">
  <ele>-0.509</ele>
  <time>2026-09-01T01:13:38Z</time>
  <course>186.9</course>
  <speed>0.0</speed>
  <fix>3d</fix>
</trkpt>
<trkpt lat="33.8103131" lon="-118.3938671">
  <ele>-0.549</ele>
  <time>2026-09-01T01:13:38Z</time>
  <course>186.89</course>
  <speed>0.0</speed>
  <fix>3d</fix>
</trkpt>
<trkpt lat="33.810313" lon="-118.393867">
  <ele>-0.37</ele>
  <time>2026-09-01T01:13:38Z</time>
  <course>0.0</course>
  <speed>0.0</speed>
  <fix>3d</fix>
</trkpt>
<trkpt lat="33.8103131" lon="-118.3938671">
  <ele>-0.57</ele>
  <time>2026-09-01T01:13:38Z</time>
  <course>186.89</course>
  <speed>0.0</speed>
  <fix>3d</fix>
</trkpt>
<trkpt lat="33.8103131" lon="-118.3938671">
  <ele>-0.614</ele>
  <time>2026-09-01T01:13:38Z</time>
  <course>186.89</course>
  <speed>0.0</speed>
  <fix>3d</fix>
</trkpt>
<trkpt lat="33.810313" lon="-118.393867">
  <ele>-0.49</ele>
  <time>2026-09-01T01:13:38Z</time>
  <course>0.0</course>
  <speed>0.0</speed>
  <fix>3d</fix>
</trkpt>
<trkpt lat="33.8103131" lon="-118.3938671">
  <ele>-0.616</ele>
  <time>2026-09-01T01:13:38Z</time>
  <course>186.89</course>
  <speed>0.0</speed>
  <fix>3d</fix>
</trkpt>
<trkpt lat="33.8103131" lon="-118.3938671">
  <ele>-0.68</ele>
  <time>2026-09-01T01:13:38Z</time>
  <course>186.88</course>
  <speed>0.0</speed>
  <fix>3d</fix>
</trkpt>
<trkpt lat="33.810313" lon="-118.393867">
  <ele>-0.49</ele>
  <time>2026-09-01T01:13:38Z</time>
  <course>0.0</course>
  <speed>0.0</speed>
  <fix>3d</fix>
</trkpt>
<trkpt lat="33.8103131" lon="-118.3938671">
  <ele>-0.704</ele>
  <time>2026-09-01T01:13:38Z</time>
  <course>186.88</course>
  <speed>0.0</speed>
  <fix>3d</fix>
</trkpt>
<trkpt lat="33.8103131" lon="-118.3938671">
  <ele>-0.747</ele>
  <time>2026-09-01T01:13:38Z</time>
  <course>184.87</course>
  <speed>0.0</speed>
  <fix>3d</fix>
</trkpt>
<trkpt lat="33.810313" lon="-118.393867">
  <ele>-0.61</ele>
  <time>2026-09-01T01:13:38Z</time>
  <course>0.0</course>
  <speed>0.0</speed>
  <fix>3d</fix>
</trkpt>
<trkpt lat="33.8103131" lon="-118.3938671">
  <ele>-0.749</ele>
  <time>2026-09-01T01:13:38Z</time>
  <course>184.87</course>
  <speed>0.0</speed>
  <fix>3d</fix>
</trkpt>
<trkpt lat="33.8103131" lon="-118.3938671">
  <ele>-0.813</ele>
  <time>2026-09-01T01:13:38Z</time>
  <course>184.87</course>
  <speed>0.0</speed>
  <fix>3d</fix>
</trkpt>
<trkpt lat="33.810313" lon="-118.393867">
  <ele>-0.61</ele>
  <time>2026-09-01T01:13:38Z</time>
  <course>0.0</course>
  <speed>0.0</speed>
  <fix>3d</fix>
</trkpt>
<trkpt lat="33.8103131" lon="-118.3938671">
  <ele>-0.834</ele>
  <time>2026-09-01T01:13:38Z</time>
  <course>184.88</course>
  <speed>0.0</speed>
  <fix>3d</fix>
</trkpt>
<trkpt lat="33.8103131" lon="-118.3938671">
  <ele>-0.877</ele>
  <time>2026-09-01T01:13:38Z</time>
  <course>184.88</course>
  <speed>0.0</speed>
  <fix>3d</fix>
</trkpt>
<trkpt lat="33.810313" lon="-118.393867">
  <ele>-0.73</ele>
  <time>2026-09-01T01:13:38Z</time>
  <course>0.0</course>
  <speed>0.0</speed>
  <fix>3d</fix>
</trkpt>
<trkpt lat="33.8103131" lon="-118.3938671">
  <ele>-0.895</ele>
  <time>2026-09-01T01:13:38Z</time>
  <course>184.88</course>
  <speed>0.0</speed>
  <fix>3d</fix>
</trkpt>
<trkpt lat="33.8103131" lon="-118.3938671">
  <ele>-0.941</ele>
  <time>2026-09-01T01:13:38Z</time>
  <course>184.89</course>
  <speed>0.0</speed>
  <fix>3d</fix>
</trkpt>
<trkpt lat="33.810313" lon="-118.393867">
  <ele>-0.73</ele>
  <time>2026-09-01T01:13:38Z</time>
  <course>0.0</course>
  <speed>0.0</speed>
  <fix>3d</fix>
</trkpt>
<trkpt lat="33.8103131" lon="-118.3938671">
  <ele>-0.942</ele>
  <time>2026-09-01T01:13:38Z</time>
  <course>184.89</course>
  <speed>0.0</speed>
  <fix>3d</fix>
</trkpt>
<trkpt lat="33.8103131" lon="-118.3938671">
  <ele>-1.004</ele>
  <time>2026-09-01T01:13:38Z</time>
  <course>184.9</course>
  <speed>0.0</speed>
  <fix>3d</fix>
</trkpt>
<trkpt lat="33.810313" lon="-118.393867">
  <ele>-0.85</ele>
  <time>2026-09-01T01:13:38Z</time>
  <course>0.0</course>
  <speed>0.0</speed>
  <fix>3d</fix>
</trkpt>
<trkpt lat="33.8103131" lon="-118.3938671">
  <ele>-1.006</ele>
  <time>2026-09-01T01:13:38Z</time>
  <course>184.9</course>
  <speed>0.0</speed>
  <fix>3d</fix>
</trkpt>
<trkpt lat="33.8103131" lon="-118.3938671">
  <ele>-1.067</ele>
  <time>2026-09-01T01:13:38Z</time>
  <course>184.91</course>
  <speed>0.0</speed>
  <fix>3d</fix>
</trkpt>
<trkpt lat="33.810313" lon="-118.393867">
  <ele>-0.85</ele>
  <time>2026-09-01T01:13:38Z</time>
  <course>0.0</course>
  <speed>0.0</speed>
  <fix>3d</fix>
</trkpt>
<trkpt lat="33.8103131" lon="-118.3938671">
  <ele>-1.1</ele>
  <time>2026-09-01T01:13:38Z</time>
  <course>184.92</course>
  <speed>0.0</speed>
  <fix>3d</fix>
</trkpt>
<trkpt lat="33.8103131" lon="-118.3938671">
  <ele>-1.131</ele>
  <time>2026-09-01T01:13:38Z</time>
  <course>184.92</course>
  <speed>0.0</speed>
  <fix>3d</fix>
</trkpt>
<trkpt lat="33.810313" lon="-118.393867">
  <ele>-0.97</ele>
  <time>2026-09-01T01:13:38Z</time>
  <course>0.0</course>
  <speed>0.0</speed>
  <fix>3d</fix>
</trkpt>
<trkpt lat="33.8103131" lon="-118.3938671">
  <ele>-1.154</ele>
  <time>2026-09-01T01:13:38Z</time>
  <course>184.92</course>
  <speed>0.0</speed>
  <fix>3d</fix>
</trkpt>
<trkpt lat="33.8103131" lon="-118.3938671">
  <ele>-1.194</ele>
  <time>2026-09-01T01:13:38Z</time>
  <course>184.93</course>
  <speed>0.0</speed>
  <fix>3d</fix>
</trkpt>
<trkpt lat="33.810313" lon="-118.393867">
  <ele>-0.97</ele>
  <time>2026-09-01T01:13:38Z</time>
  <course>0.0</course>
  <speed>0.0</speed>
  <fix>3d</fix>
</trkpt>
<trkpt lat="33.8103131" lon="-118.3938671">
  <ele>-1.216</ele>
  <time>2026-09-01T01:13:38Z</time>
  <course>184.93</course>
  <speed>0.0</speed>
  <fix>3d</fix>
</trkpt>
<trkpt lat="33.8103131" lon="-118.3938671">
  <ele>-1.258</ele>
  <time>2026-09-01T01:13:38Z</time>
  <course>184.94</course>
  <speed>0.0</speed>
  <fix>3d</fix>
</trkpt>
<trkpt lat="33.810313" lon="-118.393867">
  <ele>-1.09</ele>
  <time>2026-09-01T01:13:38Z</time>
  <course>0.0</course>
  <speed>0.0</speed>
  <fix>3d</fix>
</trkpt>
<trkpt lat="33.8103131" lon="-118.393867">
  <ele>-1.28</ele>
  <time>2026-09-01T01:13:38Z</time>
  <course>184.94</course>
  <speed>0.0</speed>
  <fix>3d</fix>
</trkpt>
<trkpt lat="33.810313" lon="-118.393867">
  <ele>-1.322</ele>
  <time>2026-09-01T01:13:38Z</time>
  <course>184.95</course>
  <speed>0.0</speed>
  <fix>3d</fix>
</trkpt>
<trkpt lat="33.810313" lon="-118.393867">
  <ele>-1.09</ele>
  <time>2026-09-01T01:13:38Z</time>
  <course>0.0</course>
  <speed>0.0</speed>
  <fix>3d</fix>
</trkpt>
<trkpt lat="33.810313" lon="-118.393867">
  <ele>-1.324</ele>
  <time>2026-09-01T01:13:38Z</time>
  <course>184.95</course>
  <speed>0.0</speed>
  <fix>3d</fix>
</trkpt>
<trkpt lat="33.810313" lon="-118.393867">
  <ele>-1.386</ele>
  <time>2026-09-01T01:13:38Z</time>
  <course>184.96</course>
  <speed>0.0</speed>
  <fix>3d</fix>
</trkpt>
<trkpt lat="33.810313" lon="-118.393867">
  <ele>-1.22</ele>
  <time>2026-09-01T01:13:38Z</time>
  <course>0.0</course>
  <speed>0.0</speed>
  <fix>3d</fix>
</trkpt>
<trkpt lat="33.810313" lon="-118.393867">
  <ele>-1.409</ele>
  <time>2026-09-01T01:13:38Z</time>
  <course>184.96</course>
  <speed>0.0</speed>
  <fix>3d</fix>
</trkpt>
<trkpt lat="33.810313" lon="-118.393867">
  <ele>-1.45</ele>
  <time>2026-09-01T01:13:38Z</time>
  <course>184.97</course>
  <speed>0.0</speed>
  <fix>3d</fix>
</trkpt>
<trkpt lat="33.810313" lon="-118.393867">
  <ele>-1.22</ele>
  <time>2026-09-01T01:13:38Z</time>
  <course>0.0</course>
  <speed>0.0</speed>
  <fix>3d</fix>
</trkpt>
<trkpt lat="33.810313" lon="-118.393867">
  <ele>-1.47</ele>
  <time>2026-09-01T01:13:38Z</time>
  <course>184.97</course>
  <speed>0.0</speed>
  <fix>3d</fix>
</trkpt>
<trkpt lat="33.810313" lon="-118.393867">
  <ele>-1.514</ele>
  <time>2026-09-01T01:13:38Z</time>
  <course>184.98</course>
  <speed>0.0</speed>
  <fix>3d</fix>
</trkpt>
<trkpt lat="33.810313" lon="-118.393867">
  <ele>-1.33</ele>
  <time>2026-09-01T01:13:38Z</time>
  <course>0.0</course>
  <speed>0.0</speed>
  <fix>3d</fix>
</trkpt>
<trkpt lat="33.810313" lon="-118.393867">
  <ele>-1.536</ele>
  <time>2026-09-01T01:13:38Z</time>
  <course>184.98</course>
  <speed>0.0</speed>
  <fix>3d</fix>
</trkpt>
<trkpt lat="33.810313" lon="-118.393867">
  <ele>-1.577</ele>
  <time>2026-09-01T01:13:38Z</time>
  <course>184.98</course>
  <speed>0.0</speed>
  <fix>3d</fix>
</trkpt>
<trkpt lat="33.810313" lon="-118.393867">
  <ele>-1.33</ele>
  <time>2026-09-01T01:13:38Z</time>
  <course>0.0</course>
  <speed>0.0</speed>
  <fix>3d</fix>
</trkpt>
<trkpt lat="33.810313" lon="-118.393867">
  <ele>-1.597</ele>
  <time>2026-09-01T01:13:38Z</time>
  <course>184.99</course>
  <speed>0.0</speed>
  <fix>3d</fix>
</trkpt>
<trkpt lat="33.810313" lon="-118.393867">
  <ele>-1.639</ele>
  <time>2026-09-01T01:13:38Z</time>
  <course>184.99</course>
  <speed>0.0</speed>
  <fix>3d</fix>
</trkpt>
<trkpt lat="33.810313" lon="-118.393867">
  <ele>-1.46</ele>
  <time>2026-09-01T01:13:38Z</time>
  <course>0.0</course>
  <speed>0.0</speed>
  <fix>3d</fix>
</trkpt>
<trkpt lat="33.810313" lon="-118.393867">
  <ele>-1.641</ele>
  <time>2026-09-01T01:13:38Z</time>
  <course>184.99</course>
  <speed>0.0</speed>
  <fix>3d</fix>
</trkpt>
<trkpt lat="33.810313" lon="-118.393867">
  <ele>-1.702</ele>
  <time>2026-09-01T01:13:38Z</time>
  <course>185.0</course>
  <speed>0.0</speed>
  <fix>3d</fix>
</trkpt>
<trkpt lat="33.810313" lon="-118.393867">
  <ele>-1.46</ele>
  <time>2026-09-01T01:13:38Z</time>
  <course>0.0</course>
  <speed>0.0</speed>
  <fix>3d</fix>
</trkpt>
<trkpt lat="33.810313" lon="-118.393867">
  <ele>-1.705</ele>
  <time>2026-09-01T01:13:38Z</time>
  <course>185.0</course>
  <speed>0.0</speed>
  <fix>3d</fix>
</trkpt>
<trkpt lat="33.810313" lon="-118.393867">
  <ele>-1.765</ele>
  <time>2026-09-01T01:13:38Z</time>
  <course>185.01</course>
  <speed>0.0</speed>
  <fix>3d</fix>
</trkpt>
<trkpt lat="33.810313" lon="-118.393867">
  <ele>-1.57</ele>
  <time>2026-09-01T01:13:38Z</time>
  <course>0.0</course>
  <speed>0.0</speed>
  <fix>3d</fix>
</trkpt>
<trkpt lat="33.810313" lon="-118.393867">
  <ele>-1.786</ele>
  <time>2026-09-01T01:13:38Z</time>
  <course>185.01</course>
  <speed>0.0</speed>
  <fix>3d</fix>
</trkpt>
<trkpt lat="33.810313" lon="-118.393867">
  <ele>-1.826</ele>
  <time>2026-09-01T01:13:38Z</time>
  <course>185.02</course>
  <speed>0.0</speed>
  <fix>3d</fix>
</trkpt>
<trkpt lat="33.810313" lon="-118.393867">
  <ele>-1.57</ele>
  <time>2026-09-01T01:13:38Z</time>
  <course>0.0</course>
  <speed>0.0</speed>
  <fix>3d</fix>
</trkpt>
<trkpt lat="33.810313" lon="-118.393867">
  <ele>-1.846</ele>
  <time>2026-09-01T01:13:38Z</time>
  <course>185.02</course>
  <speed>0.0</speed>
  <fix>3d</fix>
</trkpt>
<trkpt lat="33.810313" lon="-118.393867">
  <ele>-1.888</ele>
  <time>2026-09-01T01:13:38Z</time>
  <course>185.03</course>
  <speed>0.0</speed>
  <fix>3d</fix>
</trkpt>
<trkpt lat="33.810313" lon="-118.393867">
  <ele>-1.7</ele>
  <time>2026-09-01T01:13:38Z</time>
  <course>0.0</course>
  <speed>0.0</speed>
  <fix>3d</fix>
</trkpt>
<trkpt lat="33.810313" lon="-118.393867">
  <ele>-1.908</ele>
  <time>2026-09-01T01:13:38Z</time>
  <course>185.03</course>
  <speed>0.0</speed>
  <fix>3d</fix>
</trkpt>
<trkpt lat="33.810313" lon="-118.393867">
  <ele>-1.95</ele>
  <time>2026-09-01T01:13:38Z</time>
  <course>185.04</course>
  <speed>0.0</speed>
  <fix>3d</fix>
</trkpt>
<trkpt lat="33.810313" lon="-118.393867">
  <ele>-1.7</ele>
  <time>2026-09-01T01:13:38Z</time>
  <course>0.0</course>
  <speed>0.0</speed>
  <fix>3d</fix>
</trkpt>
<trkpt lat="33.810313" lon="-118.393867">
  <ele>-1.952</ele>
  <time>2026-09-01T01:13:38Z</time>
  <course>185.04</course>
  <speed>0.0</speed>
  <fix>3d</fix>
</trkpt>
<trkpt lat="33.810313" lon="-118.393867">
  <ele>-2.013</ele>
  <time>2026-09-01T01:13:38Z</time>
  <course>185.05</course>
  <speed>0.0</speed>
  <fix>3d</fix>
</trkpt>
<trkpt lat="33.810313" lon="-118.393867">
  <ele>-1.81</ele>
  <time>2026-09-01T01:13:38Z</time>
  <course>0.0</course>
  <speed>0.0</speed>
  <fix>3d</fix>
</trkpt>
<trkpt lat="33.810313" lon="-118.393867">
  <ele>-2.031</ele>
  <time>2026-09-01T01:13:38Z</time>
  <course>185.05</course>
  <speed>0.0</speed>
  <fix>3d</fix>
</trkpt>
<trkpt lat="33.810313" lon="-118.393867">
  <ele>-2.074</ele>
  <time>2026-09-01T01:13:38Z</time>
  <course>185.06</course>
  <speed>0.0</speed>
  <fix>3d</fix>
</trkpt>
<trkpt lat="33.810313" lon="-118.393867">
  <ele>-1.81</ele>
  <time>2026-09-01T01:13:38Z</time>
  <course>0.0</course>
  <speed>0.0</speed>
  <fix>3d</fix>
</trkpt>
<trkpt lat="33.810313" lon="-118.393867">
  <ele>-2.099</ele>
  <time>2026-09-01T01:13:38Z</time>
  <course>185.06</course>
  <speed>0.0</speed>
  <fix>3d</fix>
</trkpt>
<trkpt lat="33.810313" lon="-118.393867">
  <ele>-2.136</ele>
  <time>2026-09-01T01:13:38Z</time>
  <course>185.06</course>
  <speed>0.0</speed>
  <fix>3d</fix>
</trkpt>
<trkpt lat="33.810313" lon="-118.393867">
  <ele>-1.94</ele>
  <time>2026-09-01T01:13:38Z</time>
  <course>0.0</course>
  <speed>0.0</speed>
  <fix>3d</fix>
</trkpt>
<trkpt lat="33.810313" lon="-118.393867">
  <ele>-2.156</ele>
  <time>2026-09-01T01:13:38Z</time>
  <course>185.07</course>
  <speed>0.0</speed>
  <fix>3d</fix>
</trkpt>
<trkpt lat="33.810313" lon="-118.393867">
  <ele>-2.197</ele>
  <time>2026-09-01T01:13:38Z</time>
  <course>185.07</course>
  <speed>0.0</speed>
  <fix>3d</fix>
</trkpt>
<trkpt lat="33.810313" lon="-118.393867">
  <ele>-1.94</ele>
  <time>2026-09-01T01:13:38Z</time>
  <course>0.0</course>
  <speed>0.0</speed>
  <fix>3d</fix>
</trkpt>
<trkpt lat="33.810313" lon="-118.393867">
  <ele>-2.216</ele>
  <time>2026-09-01T01:13:38Z</time>
  <course>185.08</course>
  <speed>0.0</speed>
  <fix>3d</fix>
</trkpt>
<trkpt lat="33.810313" lon="-118.393867">
  <ele>-2.258</ele>
  <time>2026-09-01T01:13:38Z</time>
  <course>185.08</course>
  <speed>0.0</speed>
  <fix>3d</fix>
</trkpt>
<trkpt lat="33.810313" lon="-118.393867">
  <ele>-2.06</ele>
  <time>2026-09-01T01:13:38Z</time>
  <course>0.0</course>
  <speed>0.0</speed>
  <fix>3d</fix>
</trkpt>
<trkpt lat="33.810313" lon="-118.393867">
  <ele>-2.26</ele>
  <time>2026-09-01T01:13:38Z</time>
  <course>185.08</course>
  <speed>0.0</speed>
  <fix>3d</fix>
</trkpt>
<trkpt lat="33.810313" lon="-118.393867">
  <ele>-2.32</ele>
  <time>2026-09-01T01:13:38Z</time>
  <course>185.09</course>
  <speed>0.0</speed>
  <fix>3d</fix>
</trkpt>
<trkpt lat="33.810313" lon="-118.393867">
  <ele>-2.06</ele>
  <time>2026-09-01T01:13:38Z</time>
  <course>0.0</course>
  <speed>0.0</speed>
  <fix>3d</fix>
</trkpt>
<trkpt lat="33.810313" lon="-118.393867">
  <ele>-2.321</ele>
  <time>2026-09-01T01:13:38Z</time>
  <course>185.09</course>
  <speed>0.0</speed>
  <fix>3d</fix>
</trkpt>
<trkpt lat="33.810313" lon="-118.393867">
  <ele>-2.381</ele>
  <time>2026-09-01T01:13:38Z</time>
  <course>185.1</course>
  <speed>0.0</speed>
  <fix>3d</fix>
</trkpt>
<trkpt lat="33.810313" lon="-118.393867">
  <ele>-2.17</ele>
  <time>2026-09-01T01:13:38Z</time>
  <course>0.0</course>
  <speed>0.0</speed>
  <fix>3d</fix>
</trkpt>
<trkpt lat="33.810313" lon="-118.393867">
  <ele>-2.401</ele>
  <time>2026-09-01T01:13:38Z</time>
  <course>185.1</course>
  <speed>0.0</speed>
  <fix>3d</fix>
</trkpt>
<trkpt lat="33.810313" lon="-118.393867">
  <ele>-2.442</ele>
  <time>2026-09-01T01:13:38Z</time>
  <course>185.11</course>
  <speed>0.0</speed>
  <fix>3d</fix>
</trkpt>
<trkpt lat="33.810313" lon="-118.393867">
  <ele>-2.17</ele>
  <time>2026-09-01T01:13:38Z</time>
  <course>0.0</course>
  <speed>0.0</speed>
  <fix>3d</fix>
</trkpt>
<trkpt lat="33.810313" lon="-118.393867">
  <ele>-2.446</ele>
  <time>2026-09-01T01:13:38Z</time>
  <course>185.11</course>
  <speed>0.0</speed>
  <fix>3d</fix>
</trkpt>
<trkpt lat="33.810313" lon="-118.393867">
  <ele>-2.504</ele>
  <time>2026-09-01T01:13:38Z</time>
  <course>185.12</course>
  <speed>0.0</speed>
  <fix>3d</fix>
</trkpt>
<trkpt lat="33.810313" lon="-118.393867">
  <ele>-2.3</ele>
  <time>2026-09-01T01:13:38Z</time>
  <course>0.0</course>
  <speed>0.0</speed>
  <fix>3d</fix>
</trkpt>
<trkpt lat="33.810313" lon="-118.393867">
  <ele>-2.505</ele>
  <time>2026-09-01T01:13:38Z</time>
  <course>185.12</course>
  <speed>0.0</speed>
  <fix>3d</fix>
</trkpt>
<trkpt lat="33.810313" lon="-118.3938671">
  <ele>-2.565</ele>
  <time>2026-09-01T01:13:38Z</time>
  <course>185.13</course>
  <speed>0.0</speed>
  <fix>3d</fix>
</trkpt>
<trkpt lat="33.810313" lon="-118.393867">
  <ele>-2.3</ele>
  <time>2026-09-01T01:13:38Z</time>
  <course>0.0</course>
  <speed>0.0</speed>
  <fix>3d</fix>
</trkpt>
<trkpt lat="33.810313" lon="-118.3938671">
  <ele>-2.567</ele>
  <time>2026-09-01T01:13:38Z</time>
  <course>185.13</course>
  <speed>0.0</speed>
  <fix>3d</fix>
</trkpt>
<trkpt lat="33.8103131" lon="-118.3938671">
  <ele>-2.627</ele>
  <time>2026-09-01T01:13:38Z</time>
  <course>185.14</course>
  <speed>0.0</speed>
  <fix>3d</fix>
</trkpt>
<trkpt lat="33.810313" lon="-118.393867">
  <ele>-2.42</ele>
  <time>2026-09-01T01:13:38Z</time>
  <course>0.0</course>
  <speed>0.0</speed>
  <fix>3d</fix>
</trkpt>
<trkpt lat="33.8103131" lon="-118.3938671">
  <ele>-2.647</ele>
  <time>2026-09-01T01:13:38Z</time>
  <course>185.14</course>
  <speed>0.0</speed>
  <fix>3d</fix>
</trkpt>
<trkpt lat="33.8103131" lon="-118.3938671">
  <ele>-2.687</ele>
  <time>2026-09-01T01:13:38Z</time>
  <course>185.15</course>
  <speed>0.0</speed>
  <fix>3d</fix>
</trkpt>
<trkpt lat="33.810313" lon="-118.393867">
  <ele>-2.42</ele>
  <time>2026-09-01T01:13:38Z</time>
  <course>0.0</course>
  <speed>0.0</speed>
  <fix>3d</fix>
</trkpt>
<trkpt lat="33.8103131" lon="-118.3938671">
  <ele>-2.709</ele>
  <time>2026-09-01T01:13:38Z</time>
  <course>185.15</course>
  <speed>0.0</speed>
  <fix>3d</fix>
</trkpt>
<trkpt lat="33.8103131" lon="-118.3938671">
  <ele>-2.748</ele>
  <time>2026-09-01T01:13:38Z</time>
  <course>185.16</course>
  <speed>0.0</speed>
  <fix>3d</fix>
</trkpt>
<trkpt lat="33.810313" lon="-118.393867">
  <ele>-2.54</ele>
  <time>2026-09-01T01:13:38Z</time>
  <course>0.0</course>
  <speed>0.0</speed>
  <fix>3d</fix>
</trkpt>
<trkpt lat="33.8103131" lon="-118.3938671">
  <ele>-2.767</ele>
  <time>2026-09-01T01:13:38Z</time>
  <course>185.16</course>
  <speed>0.0</speed>
  <fix>3d</fix>
</trkpt>
<trkpt lat="33.8103131" lon="-118.3938671">
  <ele>-2.808</ele>
  <time>2026-09-01T01:13:38Z</time>
  <course>185.17</course>
  <speed>0.0</speed>
  <fix>3d</fix>
</trkpt>
<trkpt lat="33.810313" lon="-118.393867">
  <ele>-2.54</ele>
  <time>2026-09-01T01:13:38Z</time>
  <course>0.0</course>
  <speed>0.0</speed>
  <fix>3d</fix>
</trkpt>
<trkpt lat="33.8103131" lon="-118.3938671">
  <ele>-2.828</ele>
  <time>2026-09-01T01:13:38Z</time>
  <course>185.17</course>
  <speed>0.0</speed>
  <fix>3d</fix>
</trkpt>
<trkpt lat="33.8103131" lon="-118.3938671">
  <ele>-2.869</ele>
  <time>2026-09-01T01:13:38Z</time>
  <course>185.18</course>
  <speed>0.0</speed>
  <fix>3d</fix>
</trkpt>
<trkpt lat="33.810313" lon="-118.393867">
  <ele>-2.65</ele>
  <time>2026-09-01T01:13:38Z</time>
  <course>0.0</course>
  <speed>0.0</speed>
  <fix>3d</fix>
</trkpt>
<trkpt lat="33.8103131" lon="-118.3938671">
  <ele>-2.87</ele>
  <time>2026-09-01T01:13:38Z</time>
  <course>185.18</course>
  <speed>0.0</speed>
  <fix>3d</fix>
</trkpt>
<trkpt lat="33.8103131" lon="-118.3938671">
  <ele>-2.931</ele>
  <time>2026-09-01T01:13:38Z</time>
  <course>185.18</course>
  <speed>0.0</speed>
  <fix>3d</fix>
</trkpt>
<trkpt lat="33.810313" lon="-118.393867">
  <ele>-2.65</ele>
  <time>2026-09-01T01:13:38Z</time>
  <course>0.0</course>
  <speed>0.0</speed>
  <fix>3d</fix>
</trkpt>
<trkpt lat="33.8103131" lon="-118.3938671">
  <ele>-2.95</ele>
  <time>2026-09-01T01:13:38Z</time>
  <course>185.19</course>
  <speed>0.0</speed>
  <fix>3d</fix>
</trkpt>
<trkpt lat="33.8103131" lon="-118.3938671">
  <ele>-2.993</ele>
  <time>2026-09-01T01:13:38Z</time>
  <course>185.19</course>
  <speed>0.0</speed>
  <fix>3d</fix>
</trkpt>
<trkpt lat="33.810313" lon="-118.393867">
  <ele>-2.78</ele>
  <time>2026-09-01T01:13:38Z</time>
  <course>0.0</course>
  <speed>0.0</speed>
  <fix>3d</fix>
</trkpt>
<trkpt lat="33.8103131" lon="-118.3938671">
  <ele>-2.994</ele>
  <time>2026-09-01T01:13:38Z</time>
  <course>185.19</course>
  <speed>0.0</speed>
  <fix>3d</fix>
</trkpt>
<trkpt lat="33.8103131" lon="-118.3938671">
  <ele>-3.055</ele>
  <time>2026-09-01T01:13:38Z</time>
  <course>185.2</course>
  <speed>0.0</speed>
  <fix>3d</fix>
</trkpt>
<trkpt lat="33.810313" lon="-118.393867">
  <ele>-2.78</ele>
  <time>2026-09-01T01:13:38Z</time>
  <course>0.0</course>
  <speed>0.0</speed>
  <fix>3d</fix>
</trkpt>
<trkpt lat="33.8103131" lon="-118.3938671">
  <ele>-3.075</ele>
  <time>2026-09-01T01:13:38Z</time>
  <course>185.21</course>
  <speed>0.0</speed>
  <fix>3d</fix>
</trkpt>
<trkpt lat="33.8103131" lon="-118.3938671">
  <ele>-3.117</ele>
  <time>2026-09-01T01:13:38Z</time>
  <course>185.21</course>
  <speed>0.0</speed>
  <fix>3d</fix>
</trkpt>
<trkpt lat="33.810313" lon="-118.393867">
  <ele>-2.9</ele>
  <time>2026-09-01T01:13:38Z</time>
  <course>0.0</course>
  <speed>0.0</speed>
  <fix>3d</fix>
</trkpt>
<trkpt lat="33.8103131" lon="-118.3938671">
  <ele>-3.136</ele>
  <time>2026-09-01T01:13:38Z</time>
  <course>185.21</course>
  <speed>0.0</speed>
  <fix>3d</fix>
</trkpt>
<trkpt lat="33.8103131" lon="-118.3938671">
  <ele>-3.178</ele>
  <time>2026-09-01T01:13:38Z</time>
  <course>185.22</course>
  <speed>0.0</speed>
  <fix>3d</fix>
</trkpt>
<trkpt lat="33.810313" lon="-118.393867">
  <ele>-2.9</ele>
  <time>2026-09-01T01:13:38Z</time>
  <course>0.0</course>
  <speed>0.0</speed>
  <fix>3d</fix>
</trkpt>
<trkpt lat="33.8103131" lon="-118.3938671">
  <ele>-3.181</ele>
  <time>2026-09-01T01:13:38Z</time>
  <course>185.22</course>
  <speed>0.0</speed>
  <fix>3d</fix>
</trkpt>
<trkpt lat="33.8103131" lon="-118.3938671">
  <ele>-3.239</ele>
  <time>2026-09-01T01:13:38Z</time>
  <course>185.23</course>
  <speed>0.0</speed>
  <fix>3d</fix>
</trkpt>
<trkpt lat="33.810313" lon="-118.393867">
  <ele>-3.03</ele>
  <time>2026-09-01T01:13:38Z</time>
  <course>0.0</course>
  <speed>0.0</speed>
  <fix>3d</fix>
</trkpt>
<trkpt lat="33.8103131" lon="-118.3938671">
  <ele>-3.241</ele>
  <time>2026-09-01T01:13:38Z</time>
  <course>185.23</course>
  <speed>0.0</speed>
  <fix>3d</fix>
</trkpt>
<trkpt lat="33.8103131" lon="-118.3938671">
  <ele>-3.3</ele>
  <time>2026-09-01T01:13:38Z</time>
  <course>185.24</course>
  <speed>0.0</speed>
  <fix>3d</fix>
</trkpt>
<trkpt lat="33.810313" lon="-118.393867">
  <ele>-3.03</ele>
  <time>2026-09-01T01:13:38Z</time>
  <course>0.0</course>
  <speed>0.0</speed>
  <fix>3d</fix>
</trkpt>
<trkpt lat="33.8103131" lon="-118.3938671">
  <ele>-3.318</ele>
  <time>2026-09-01T01:13:38Z</time>
  <course>185.24</course>
  <speed>0.0</speed>
  <fix>3d</fix>
</trkpt>
<trkpt lat="33.8103131" lon="-118.3938671">
  <ele>-3.361</ele>
  <time>2026-09-01T01:13:38Z</time>
  <course>185.25</course>
  <speed>0.0</speed>
  <fix>3d</fix>
</trkpt>
<trkpt lat="33.810313" lon="-118.393867">
  <ele>-3.15</ele>
  <time>2026-09-01T01:13:38Z</time>
  <course>0.0</course>
  <speed>0.0</speed>
  <fix>3d</fix>
</trkpt>
<trkpt lat="33.8103131" lon="-118.3938671">
  <ele>-3.38</ele>
  <time>2026-09-01T01:13:38Z</time>
  <course>185.25</course>
  <speed>0.01</speed>
  <fix>3d</fix>
</trkpt>
<trkpt lat="33.8103131" lon="-118.3938671">
  <ele>-3.422</ele>
  <time>2026-09-01T01:13:38Z</time>
  <course>185.26</course>
  <speed>0.01</speed>
  <fix>3d</fix>
</trkpt>
<trkpt lat="33.810313" lon="-118.393867">
  <ele>-3.15</ele>
  <time>2026-09-01T01:13:38Z</time>
  <course>0.0</course>
  <speed>0.0</speed>
  <fix>3d</fix>
</trkpt>
<trkpt lat="33.8103131" lon="-118.3938671">
  <ele>-3.44</ele>
  <time>2026-09-01T01:13:38Z</time>
  <course>185.26</course>
  <speed>0.01</speed>
  <fix>3d</fix>
</trkpt>
<trkpt lat="33.8103131" lon="-118.3938671">
  <ele>-3.484</ele>
  <time>2026-09-01T01:13:38Z</time>
  <course>185.27</course>
  <speed>0.01</speed>
  <fix>3d</fix>
</trkpt>
<trkpt lat="33.810313" lon="-118.393867">
  <ele>-3.27</ele>
  <time>2026-09-01T01:13:38Z</time>
  <course>0.0</course>
  <speed>0.0</speed>
  <fix>3d</fix>
</trkpt>
<trkpt lat="33.8103131" lon="-118.3938671">
  <ele>-3.486</ele>
  <time>2026-09-01T01:13:38Z</time>
  <course>185.27</course>
  <speed>0.01</speed>
  <fix>3d</fix>
</trkpt>
<trkpt lat="33.8103131" lon="-118.3938671">
  <ele>-3.546</ele>
  <time>2026-09-01T01:13:39Z</time>
  <course>185.28</course>
  <speed>0.01</speed>
  <fix>3d</fix>
</trkpt>
<trkpt lat="33.810313" lon="-118.393867">
  <ele>-3.27</ele>
  <time>2026-09-01T01:13:39Z</time>
  <course>0.0</course>
  <speed>0.0</speed>
  <fix>3d</fix>
</trkpt>
<trkpt lat="33.8103131" lon="-118.3938671">
  <ele>-3.565</ele>
  <time>2026-09-01T01:13:39Z</time>
  <course>185.28</course>
  <speed>0.01</speed>
  <fix>3d</fix>
</trkpt>
<trkpt lat="33.8103131" lon="-118.3938671">
  <ele>-3.608</ele>
  <time>2026-09-01T01:13:39Z</time>
  <course>185.29</course>
  <speed>0.01414213562373095</speed>
  <fix>3d</fix>
</trkpt>
<trkpt lat="33.810313" lon="-118.393867">
  <ele>-3.38</ele>
  <time>2026-09-01T01:13:39Z</time>
  <course>0.0</course>
  <speed>0.0</speed>
  <fix>3d</fix>
</trkpt>
<trkpt lat="33.8103131" lon="-118.3938671">
  <ele>-3.609</ele>
  <time>2026-09-01T01:13:39Z</time>
  <course>185.29</course>
  <speed>0.01414213562373095</speed>
  <fix>3d</fix>
</trkpt>
<trkpt lat="33.8103131" lon="-118.3938671">
  <ele>-3.669</ele>
  <time>2026-09-01T01:13:39Z</time>
  <course>185.3</course>
  <speed>0.01414213562373095</speed>
  <fix>3d</fix>
</trkpt>
<trkpt lat="33.810313" lon="-118.393867">
  <ele>-3.38</ele>
  <time>2026-09-01T01:13:39Z</time>
  <course>0.0</course>
  <speed>0.0</speed>
  <fix>3d</fix>
</trkpt>
<trkpt lat="33.8103131" lon="-118.3938671">
  <ele>-3.689</ele>
  <time>2026-09-01T01:13:39Z</time>
  <course>185.3</course>
  <speed>0.01414213562373095</speed>
  <fix>3d</fix>
</trkpt>
<trkpt lat="33.8103131" lon="-118.3938671">
  <ele>-3.732</ele>
  <time>2026-09-01T01:13:39Z</time>
  <course>185.31</course>
  <speed>0.01414213562373095</speed>
  <fix>3d</fix>
</trkpt>
<trkpt lat="33.810313" lon="-118.393867">
  <ele>-3.51</ele>
  <time>2026-09-01T01:13:39Z</time>
  <course>0.0</course>
  <speed>0.0</speed>
  <fix>3d</fix>
</trkpt>
<trkpt lat="33.8103131" lon="-118.3938671">
  <ele>-3.752</ele>
  <time>2026-09-01T01:13:39Z</time>
  <course>185.31</course>
  <speed>0.01414213562373095</speed>
  <fix>3d</fix>
</trkpt>
<trkpt lat="33.8103131" lon="-118.3938671">
  <ele>-3.794</ele>
  <time>2026-09-01T01:13:39Z</time>
  <course>185.32</course>
  <speed>0.01414213562373095</speed>
  <fix>3d</fix>
</trkpt>
<trkpt lat="33.810313" lon="-118.393867">
  <ele>-3.51</ele>
  <time>2026-09-01T01:13:39Z</time>
  <course>0.0</course>
  <speed>0.0</speed>
  <fix>3d</fix>
</trkpt>
<trkpt lat="33.8103131" lon="-118.3938671">
  <ele>-3.796</ele>
  <time>2026-09-01T01:13:39Z</time>
  <course>185.32</course>
  <speed>0.01414213562373095</speed>
  <fix>3d</fix>
</trkpt>
<trkpt lat="33.8103131" lon="-118.3938671">
  <ele>-3.857</ele>
  <time>2026-09-01T01:13:39Z</time>
  <course>185.33</course>
  <speed>0.01414213562373095</speed>
  <fix>3d</fix>
</trkpt>
<trkpt lat="33.810313" lon="-118.393867">
  <ele>-3.63</ele>
  <time>2026-09-01T01:13:39Z</time>
  <course>0.0</course>
  <speed>0.0</speed>
  <fix>3d</fix>
</trkpt>
<trkpt lat="33.8103131" lon="-118.3938671">
  <ele>-3.877</ele>
  <time>2026-09-01T01:13:39Z</time>
  <course>185.33</course>
  <speed>0.01414213562373095</speed>
  <fix>3d</fix>
</trkpt>
<trkpt lat="33.8103131" lon="-118.3938671">
  <ele>-3.92</ele>
  <time>2026-09-01T01:13:39Z</time>
  <course>185.34</course>
  <speed>0.01414213562373095</speed>
  <fix>3d</fix>
</trkpt>
<trkpt lat="33.810313" lon="-118.393867">
  <ele>-3.63</ele>
  <time>2026-09-01T01:13:39Z</time>
  <course>0.0</course>
  <speed>0.0</speed>
  <fix>3d</fix>
</trkpt>
<trkpt lat="33.8103131" lon="-118.3938671">
  <ele>-3.944</ele>
  <time>2026-09-01T01:13:39Z</time>
  <course>185.34</course>
  <speed>0.01414213562373095</speed>
  <fix>3d</fix>
</trkpt>
<trkpt lat="33.8103131" lon="-118.3938671">
  <ele>-3.984</ele>
  <time>2026-09-01T01:13:39Z</time>
  <course>185.35</course>
  <speed>0.01414213562373095</speed>
  <fix>3d</fix>
</trkpt>
<trkpt lat="33.810313" lon="-118.393867">
  <ele>-3.75</ele>
  <time>2026-09-01T01:13:39Z</time>
  <course>0.0</course>
  <speed>0.0</speed>
  <fix>3d</fix>
</trkpt>
<trkpt lat="33.8103131" lon="-118.3938671">
  <ele>-4.004</ele>
  <time>2026-09-01T01:13:39Z</time>
  <course>185.35</course>
  <speed>0.01414213562373095</speed>
  <fix>3d</fix>
</trkpt>
<trkpt lat="33.8103131" lon="-118.3938671">
  <ele>-4.047</ele>
  <time>2026-09-01T01:13:39Z</time>
  <course>185.35</course>
  <speed>0.01414213562373095</speed>
  <fix>3d</fix>
</trkpt>
<trkpt lat="33.810313" lon="-118.393867">
  <ele>-3.75</ele>
  <time>2026-09-01T01:13:39Z</time>
  <course>0.0</course>
  <speed>0.0</speed>
  <fix>3d</fix>
</trkpt>
<trkpt lat="33.8103131" lon="-118.3938671">
  <ele>-4.067</ele>
  <time>2026-09-01T01:13:39Z</time>
  <course>185.36</course>
  <speed>0.01414213562373095</speed>
  <fix>3d</fix>
</trkpt>
<trkpt lat="33.8103131" lon="-118.3938671">
  <ele>-4.11</ele>
  <time>2026-09-01T01:13:39Z</time>
  <course>185.36</course>
  <speed>0.01414213562373095</speed>
  <fix>3d</fix>
</trkpt>
<trkpt lat="33.810313" lon="-118.393867">
  <ele>-3.87</ele>
  <time>2026-09-01T01:13:39Z</time>
  <course>0.0</course>
  <speed>0.0</speed>
  <fix>3d</fix>
</trkpt>
<trkpt lat="33.8103131" lon="-118.3938671">
  <ele>-4.111</ele>
  <time>2026-09-01T01:13:39Z</time>
  <course>185.36</course>
  <speed>0.01414213562373095</speed>
  <fix>3d</fix>
</trkpt>
<trkpt lat="33.8103131" lon="-118.3938671">
  <ele>-4.172</ele>
  <time>2026-09-01T01:13:39Z</time>
  <course>185.37</course>
  <speed>0.01414213562373095</speed>
  <fix>3d</fix>
</trkpt>
<trkpt lat="33.810313" lon="-118.393867">
  <ele>-3.87</ele>
  <time>2026-09-01T01:13:39Z</time>
  <course>0.0</course>
  <speed>0.0</speed>
  <fix>3d</fix>
</trkpt>
<trkpt lat="33.8103131" lon="-118.3938671">
  <ele>-4.194</ele>
  <time>2026-09-01T01:13:39Z</time>
  <course>185.38</course>
  <speed>0.01414213562373095</speed>
  <fix>3d</fix>
</trkpt>
<trkpt lat="33.8103131" lon="-118.3938671">
  <ele>-4.235</ele>
  <time>2026-09-01T01:13:39Z</time>
  <course>185.38</course>
  <speed>0.01414213562373095</speed>
  <fix>3d</fix>
</trkpt>
<trkpt lat="33.810313" lon="-118.393867">
  <ele>-3.99</ele>
  <time>2026-09-01T01:13:39Z</time>
  <course>0.0</course>
  <speed>0.0</speed>
  <fix>3d</fix>
</trkpt>
<trkpt lat="33.8103131" lon="-118.3938671">
  <ele>-4.254</ele>
  <time>2026-09-01T01:13:39Z</time>
  <course>185.39</course>
  <speed>0.01414213562373095</speed>
  <fix>3d</fix>
</trkpt>
<trkpt lat="33.8103131" lon="-118.3938671">
  <ele>-4.297</ele>
  <time>2026-09-01T01:13:39Z</time>
  <course>185.39</course>
  <speed>0.01414213562373095</speed>
  <fix>3d</fix>
</trkpt>
<trkpt lat="33.810313" lon="-118.393867">
  <ele>-3.99</ele>
  <time>2026-09-01T01:13:39Z</time>
  <course>0.0</course>
  <speed>0.0</speed>
  <fix>3d</fix>
</trkpt>
<trkpt lat="33.8103131" lon="-118.3938671">
  <ele>-4.298</ele>
  <time>2026-09-01T01:13:39Z</time>
  <course>185.39</course>
  <speed>0.01414213562373095</speed>
  <fix>3d</fix>
</trkpt>
<trkpt lat="33.8103131" lon="-118.3938671">
  <ele>-4.359</ele>
  <time>2026-09-01T01:13:39Z</time>
  <course>185.4</course>
  <speed>0.01414213562373095</speed>
  <fix>3d</fix>
</trkpt>
<trkpt lat="33.810313" lon="-118.393867">
  <ele>-4.11</ele>
  <time>2026-09-01T01:13:39Z</time>
  <course>0.0</course>
  <speed>0.0</speed>
  <fix>3d</fix>
</trkpt>
<trkpt lat="33.8103131" lon="-118.3938671">
  <ele>-4.36</ele>
  <time>2026-09-01T01:13:39Z</time>
  <course>185.4</course>
  <speed>0.01414213562373095</speed>
  <fix>3d</fix>
</trkpt>
<trkpt lat="33.8103131" lon="-118.3938671">
  <ele>-4.42</ele>
  <time>2026-09-01T01:13:39Z</time>
  <course>185.41</course>
  <speed>0.01414213562373095</speed>
  <fix>3d</fix>
</trkpt>
<trkpt lat="33.810313" lon="-118.393867">
  <ele>-4.11</ele>
  <time>2026-09-01T01:13:39Z</time>
  <course>0.0</course>
  <speed>0.0</speed>
  <fix>3d</fix>
</trkpt>
<trkpt lat="33.8103131" lon="-118.3938671">
  <ele>-4.421</ele>
  <time>2026-09-01T01:13:39Z</time>
  <course>185.41</course>
  <speed>0.01414213562373095</speed>
  <fix>3d</fix>
</trkpt>
<trkpt lat="33.8103131" lon="-118.3938671">
  <ele>-4.48</ele>
  <time>2026-09-01T01:13:39Z</time>
  <course>185.42</course>
  <speed>0.01414213562373095</speed>
  <fix>3d</fix>
</trkpt>
<trkpt lat="33.810313" lon="-118.393867">
  <ele>-4.23</ele>
  <time>2026-09-01T01:13:39Z</time>
  <course>0.0</course>
  <speed>0.0</speed>
  <fix>3d</fix>
</trkpt>
<trkpt lat="33.8103131" lon="-118.3938671">
  <ele>-4.5</ele>
  <time>2026-09-01T01:13:39Z</time>
  <course>185.43</course>
  <speed>0.01414213562373095</speed>
  <fix>3d</fix>
</trkpt>
<trkpt lat="33.8103131" lon="-118.3938671">
  <ele>-4.541</ele>
  <time>2026-09-01T01:13:39Z</time>
  <course>185.43</course>
  <speed>0.022360679774997897</speed>
  <fix>3d</fix>
</trkpt>
<trkpt lat="33.810313" lon="-118.393867">
  <ele>-4.23</ele>
  <time>2026-09-01T01:13:39Z</time>
  <course>0.0</course>
  <speed>0.0</speed>
  <fix>3d</fix>
</trkpt>
<trkpt lat="33.8103131" lon="-118.3938671">
  <ele>-4.559</ele>
  <time>2026-09-01T01:13:39Z</time>
  <course>185.44</course>
  <speed>0.022360679774997897</speed>
  <fix>3d</fix>
</trkpt>
<trkpt lat="33.8103131" lon="-118.3938671">
  <ele>-4.602</ele>
  <time>2026-09-01T01:13:39Z</time>
  <course>185.44</course>
  <speed>0.022360679774997897</speed>
  <fix>3d</fix>
</trkpt>
<trkpt lat="33.810313" lon="-118.393867">
  <ele>-4.35</ele>
  <time>2026-09-01T01:13:39Z</time>
  <course>0.0</course>
  <speed>0.0</speed>
  <fix>3d</fix>
</trkpt>
<trkpt lat="33.8103131" lon="-118.3938671">
  <ele>-4.622</ele>
  <time>2026-09-01T01:13:39Z</time>
  <course>185.45</course>
  <speed>0.022360679774997897</speed>
  <fix>3d</fix>
</trkpt>
<trkpt lat="33.8103131" lon="-118.3938671">
  <ele>-4.663</ele>
  <time>2026-09-01T01:13:39Z</time>
  <course>185.45</course>
  <speed>0.022360679774997897</speed>
  <fix>3d</fix>
</trkpt>
<trkpt lat="33.810313" lon="-118.393867">
  <ele>-4.35</ele>
  <time>2026-09-01T01:13:39Z</time>
  <course>0.0</course>
  <speed>0.0</speed>
  <fix>3d</fix>
</trkpt>
<trkpt lat="33.8103131" lon="-118.3938671">
  <ele>-4.664</ele>
  <time>2026-09-01T01:13:39Z</time>
  <course>185.45</course>
  <speed>0.022360679774997897</speed>
  <fix>3d</fix>
</trkpt>
<trkpt lat="33.8103131" lon="-118.3938671">
  <ele>-4.724</ele>
  <time>2026-09-01T01:13:39Z</time>
  <course>185.46</course>
  <speed>0.022360679774997897</speed>
  <fix>3d</fix>
</trkpt>
<trkpt lat="33.810313" lon="-118.393867">
  <ele>-4.47</ele>
  <time>2026-09-01T01:13:39Z</time>
  <course>0.0</course>
  <speed>0.0</speed>
  <fix>3d</fix>
</trkpt>
<trkpt lat="33.8103131" lon="-118.3938671">
  <ele>-4.726</ele>
  <time>2026-09-01T01:13:39Z</time>
  <course>185.46</course>
  <speed>0.022360679774997897</speed>
  <fix>3d</fix>
</trkpt>
<trkpt lat="33.8103131" lon="-118.3938671">
  <ele>-4.786</ele>
  <time>2026-09-01T01:13:39Z</time>
  <course>185.47</course>
  <speed>0.022360679774997897</speed>
  <fix>3d</fix>
</trkpt>
<trkpt lat="33.810313" lon="-118.393867">
  <ele>-4.47</ele>
  <time>2026-09-01T01:13:39Z</time>
  <course>0.0</course>
  <speed>0.0</speed>
  <fix>3d</fix>
</trkpt>
<trkpt lat="33.8103131" lon="-118.3938671">
  <ele>-4.805</ele>
  <time>2026-09-01T01:13:39Z</time>
  <course>185.48</course>
  <speed>0.022360679774997897</speed>
  <fix>3d</fix>
</trkpt>
<trkpt lat="33.8103131" lon="-118.3938671">
  <ele>-4.847</ele>
  <time>2026-09-01T01:13:39Z</time>
  <course>185.48</course>
  <speed>0.022360679774997897</speed>
  <fix>3d</fix>
</trkpt>
<trkpt lat="33.810313" lon="-118.393867">
  <ele>-4.59</ele>
  <time>2026-09-01T01:13:39Z</time>
  <course>0.0</course>
  <speed>0.0</speed>
  <fix>3d</fix>
</trkpt>
<trkpt lat="33.8103131" lon="-118.3938671">
  <ele>-4.867</ele>
  <time>2026-09-01T01:13:39Z</time>
  <course>185.49</course>
  <speed>0.022360679774997897</speed>
  <fix>3d</fix>
</trkpt>
<trkpt lat="33.8103131" lon="-118.3938671">
  <ele>-4.907</ele>
  <time>2026-09-01T01:13:39Z</time>
  <course>185.49</course>
  <speed>0.022360679774997897</speed>
  <fix>3d</fix>
</trkpt>
<trkpt lat="33.810313" lon="-118.393867">
  <ele>-4.59</ele>
  <time>2026-09-01T01:13:39Z</time>
  <course>0.0</course>
  <speed>0.0</speed>
  <fix>3d</fix>
</trkpt>
<trkpt lat="33.8103131" lon="-118.3938671">
  <ele>-4.909</ele>
  <time>2026-09-01T01:13:39Z</time>
  <course>185.49</course>
  <speed>0.022360679774997897</speed>
  <fix>3d</fix>
</trkpt>
<trkpt lat="33.8103131" lon="-118.3938671">
  <ele>-4.966</ele>
  <time>2026-09-01T01:13:39Z</time>
  <course>185.5</course>
  <speed>0.022360679774997897</speed>
  <fix>3d</fix>
</trkpt>
<trkpt lat="33.810313" lon="-118.393867">
  <ele>-4.72</ele>
  <time>2026-09-01T01:13:39Z</time>
  <course>0.0</course>
  <speed>0.0</speed>
  <fix>3d</fix>
</trkpt>
<trkpt lat="33.8103131" lon="-118.3938671">
  <ele>-4.968</ele>
  <time>2026-09-01T01:13:39Z</time>
  <course>185.5</course>
  <speed>0.022360679774997897</speed>
  <fix>3d</fix>
</trkpt>
<trkpt lat="33.8103131" lon="-118.3938671">
  <ele>-5.025</ele>
  <time>2026-09-01T01:13:39Z</time>
  <course>185.51</course>
  <speed>0.022360679774997897</speed>
  <fix>3d</fix>
</trkpt>
<trkpt lat="33.810313" lon="-118.393867">
  <ele>-4.72</ele>
  <time>2026-09-01T01:13:39Z</time>
  <course>0.0</course>
  <speed>0.0</speed>
  <fix>3d</fix>
</trkpt>
<trkpt lat="33.8103131" lon="-118.3938671">
  <ele>-5.027</ele>
  <time>2026-09-01T01:13:39Z</time>
  <course>185.51</course>
  <speed>0.022360679774997897</speed>
  <fix>3d</fix>
</trkpt>
<trkpt lat="33.8103131" lon="-118.3938671">
  <ele>-5.084</ele>
  <time>2026-09-01T01:13:39Z</time>
  <course>185.52</course>
  <speed>0.022360679774997897</speed>
  <fix>3d</fix>
</trkpt>
<trkpt lat="33.810313" lon="-118.393867">
  <ele>-4.84</ele>
  <time>2026-09-01T01:13:39Z</time>
  <course>0.0</course>
  <speed>0.0</speed>
  <fix>3d</fix>
</trkpt>
<trkpt lat="33.8103131" lon="-118.3938671">
  <ele>-5.105</ele>
  <time>2026-09-01T01:13:39Z</time>
  <course>185.53</course>
  <speed>0.022360679774997897</speed>
  <fix>3d</fix>
</trkpt>
<trkpt lat="33.8103131" lon="-118.3938671">
  <ele>-5.144</ele>
  <time>2026-09-01T01:13:39Z</time>
  <course>185.53</course>
  <speed>0.022360679774997897</speed>
  <fix>3d</fix>
</trkpt>
<trkpt lat="33.810313" lon="-118.393867">
  <ele>-4.84</ele>
  <time>2026-09-01T01:13:39Z</time>
  <course>0.0</course>
  <speed>0.0</speed>
  <fix>3d</fix>
</trkpt>
<trkpt lat="33.8103131" lon="-118.3938671">
  <ele>-5.163</ele>
  <time>2026-09-01T01:13:39Z</time>
  <course>185.54</course>
  <speed>0.022360679774997897</speed>
  <fix>3d</fix>
</trkpt>
<trkpt lat="33.8103131" lon="-118.3938671">
  <ele>-5.203</ele>
  <time>2026-09-01T01:13:39Z</time>
  <course>185.54</course>
  <speed>0.022360679774997897</speed>
  <fix>3d</fix>
</trkpt>
<trkpt lat="33.810313" lon="-118.393867">
  <ele>-4.96</ele>
  <time>2026-09-01T01:13:39Z</time>
  <course>0.0</course>
  <speed>0.0</speed>
  <fix>3d</fix>
</trkpt>
<trkpt lat="33.8103131" lon="-118.3938671">
  <ele>-5.221</ele>
  <time>2026-09-01T01:13:39Z</time>
  <course>185.55</course>
  <speed>0.022360679774997897</speed>
  <fix>3d</fix>
</trkpt>
<trkpt lat="33.8103131" lon="-118.3938671">
  <ele>-5.263</ele>
  <time>2026-09-01T01:13:39Z</time>
  <course>185.55</course>
  <speed>0.022360679774997897</speed>
  <fix>3d</fix>
</trkpt>
<trkpt lat="33.810313" lon="-118.393867">
  <ele>-4.96</ele>
  <time>2026-09-01T01:13:39Z</time>
  <course>0.0</course>
  <speed>0.0</speed>
  <fix>3d</fix>
</trkpt>
<trkpt lat="33.8103131" lon="-118.3938671">
  <ele>-5.282</ele>
  <time>2026-09-01T01:13:39Z</time>
  <course>185.56</course>
  <speed>0.0282842712474619</speed>
  <fix>3d</fix>
</trkpt>
<trkpt lat="33.8103131" lon="-118.3938671">
  <ele>-5.322</ele>
  <time>2026-09-01T01:13:39Z</time>
  <course>185.56</course>
  <speed>0.0282842712474619</speed>
  <fix>3d</fix>
</trkpt>
<trkpt lat="33.810313" lon="-118.393867">
  <ele>-5.08</ele>
  <time>2026-09-01T01:13:39Z</time>
  <course>0.0</course>
  <speed>0.0</speed>
  <fix>3d</fix>
</trkpt>
<trkpt lat="33.8103131" lon="-118.3938671">
  <ele>-5.323</ele>
  <time>2026-09-01T01:13:39Z</time>
  <course>185.56</course>
  <speed>0.0282842712474619</speed>
  <fix>3d</fix>
</trkpt>
<trkpt lat="33.8103131" lon="-118.3938671">
  <ele>-5.381</ele>
  <time>2026-09-01T01:13:39Z</time>
  <course>185.57</course>
  <speed>0.0282842712474619</speed>
  <fix>3d</fix>
</trkpt>
<trkpt lat="33.810313" lon="-118.393867">
  <ele>-5.08</ele>
  <time>2026-09-01T01:13:39Z</time>
  <course>0.0</course>
  <speed>0.0</speed>
  <fix>3d</fix>
</trkpt>
<trkpt lat="33.8103131" lon="-118.3938671">
  <ele>-5.402</ele>
  <time>2026-09-01T01:13:39Z</time>
  <course>185.58</course>
  <speed>0.0282842712474619</speed>
  <fix>3d</fix>
</trkpt>
<trkpt lat="33.8103131" lon="-118.3938671">
  <ele>-5.44</ele>
  <time>2026-09-01T01:13:39Z</time>
  <course>185.58</course>
  <speed>0.0282842712474619</speed>
  <fix>3d</fix>
</trkpt>
<trkpt lat="33.810313" lon="-118.393867">
  <ele>-5.2</ele>
  <time>2026-09-01T01:13:39Z</time>
  <course>0.0</course>
  <speed>0.0</speed>
  <fix>3d</fix>
</trkpt>
<trkpt lat="33.8103131" lon="-118.3938671">
  <ele>-5.458</ele>
  <time>2026-09-01T01:13:39Z</time>
  <course>185.59</course>
  <speed>0.0282842712474619</speed>
  <fix>3d</fix>
</trkpt>
<trkpt lat="33.8103131" lon="-118.3938671">
  <ele>-5.499</ele>
  <time>2026-09-01T01:13:39Z</time>
  <course>185.59</course>
  <speed>0.0282842712474619</speed>
  <fix>3d</fix>
</trkpt>
<trkpt lat="33.810313" lon="-118.393867">
  <ele>-5.2</ele>
  <time>2026-09-01T01:13:39Z</time>
  <course>0.0</course>
  <speed>0.0</speed>
  <fix>3d</fix>
</trkpt>
<trkpt lat="33.8103131" lon="-118.3938671">
  <ele>-5.522</ele>
  <time>2026-09-01T01:13:39Z</time>
  <course>185.6</course>
  <speed>0.0282842712474619</speed>
  <fix>3d</fix>
</trkpt>
<trkpt lat="33.8103131" lon="-118.3938671">
  <ele>-5.56</ele>
  <time>2026-09-01T01:13:39Z</time>
  <course>185.6</course>
  <speed>0.0282842712474619</speed>
  <fix>3d</fix>
</trkpt>
<trkpt lat="33.810313" lon="-118.393867">
  <ele>-5.32</ele>
  <time>2026-09-01T01:13:39Z</time>
  <course>0.0</course>
  <speed>0.0</speed>
  <fix>3d</fix>
</trkpt>
<trkpt lat="33.8103131" lon="-118.3938671">
  <ele>-5.561</ele>
  <time>2026-09-01T01:13:39Z</time>
  <course>185.6</course>
  <speed>0.0282842712474619</speed>
  <fix>3d</fix>
</trkpt>
<trkpt lat="33.8103131" lon="-118.3938671">
  <ele>-5.621</ele>
  <time>2026-09-01T01:13:39Z</time>
  <course>185.61</course>
  <speed>0.0282842712474619</speed>
  <fix>3d</fix>
</trkpt>
<trkpt lat="33.810313" lon="-118.393867">
  <ele>-5.32</ele>
  <time>2026-09-01T01:13:39Z</time>
  <course>0.0</course>
  <speed>0.0</speed>
  <fix>3d</fix>
</trkpt>
<trkpt lat="33.8103131" lon="-118.3938671">
  <ele>-5.622</ele>
  <time>2026-09-01T01:13:39Z</time>
  <course>185.61</course>
  <speed>0.0282842712474619</speed>
  <fix>3d</fix>
</trkpt>
<trkpt lat="33.8103132" lon="-118.3938671">
  <ele>-5.682</ele>
  <time>2026-09-01T01:13:39Z</time>
  <course>185.62</course>
  <speed>0.0282842712474619</speed>
  <fix>3d</fix>
</trkpt>
<trkpt lat="33.810313" lon="-118.393867">
  <ele>-5.44</ele>
  <time>2026-09-01T01:13:39Z</time>
  <course>0.0</course>
  <speed>0.0</speed>
  <fix>3d</fix>
</trkpt>
<trkpt lat="33.8103131" lon="-118.3938671">
  <ele>-5.702</ele>
  <time>2026-09-01T01:13:39Z</time>
  <course>185.63</course>
  <speed>0.0282842712474619</speed>
  <fix>3d</fix>
</trkpt>
<trkpt lat="33.8103132" lon="-118.3938671">
  <ele>-5.744</ele>
  <time>2026-09-01T01:13:39Z</time>
  <course>185.63</course>
  <speed>0.0282842712474619</speed>
  <fix>3d</fix>
</trkpt>
<trkpt lat="33.810313" lon="-118.393867">
  <ele>-5.44</ele>
  <time>2026-09-01T01:13:39Z</time>
  <course>0.0</course>
  <speed>0.0</speed>
  <fix>3d</fix>
</trkpt>
<trkpt lat="33.8103132" lon="-118.3938671">
  <ele>-5.764</ele>
  <time>2026-09-01T01:13:39Z</time>
  <course>185.64</course>
  <speed>0.0282842712474619</speed>
  <fix>3d</fix>
</trkpt>
<trkpt lat="33.8103132" lon="-118.3938671">
  <ele>-5.807</ele>
  <time>2026-09-01T01:13:39Z</time>
  <course>185.64</course>
  <speed>0.0282842712474619</speed>
  <fix>3d</fix>
</trkpt>
<trkpt lat="33.810313" lon="-118.393867">
  <ele>-5.56</ele>
  <time>2026-09-01T01:13:39Z</time>
  <course>0.0</course>
  <speed>0.0</speed>
  <fix>3d</fix>
</trkpt>
<trkpt lat="33.8103132" lon="-118.3938671">
  <ele>-5.827</ele>
  <time>2026-09-01T01:13:39Z</time>
  <course>185.65</course>
  <speed>0.0282842712474619</speed>
  <fix>3d</fix>
</trkpt>
<trkpt lat="33.8103132" lon="-118.3938671">
  <ele>-5.87</ele>
  <time>2026-09-01T01:13:39Z</time>
  <course>185.65</course>
  <speed>0.0282842712474619</speed>
  <fix>3d</fix>
</trkpt>
<trkpt lat="33.810313" lon="-118.393867">
  <ele>-5.56</ele>
  <time>2026-09-01T01:13:39Z</time>
  <course>0.0</course>
  <speed>0.0</speed>
  <fix>3d</fix>
</trkpt>
<trkpt lat="33.8103132" lon="-118.3938671">
  <ele>-5.892</ele>
  <time>2026-09-01T01:13:39Z</time>
  <course>185.66</course>
  <speed>0.0282842712474619</speed>
  <fix>3d</fix>
</trkpt>
<trkpt lat="33.8103132" lon="-118.3938671">
  <ele>-5.934</ele>
  <time>2026-09-01T01:13:39Z</time>
  <course>185.66</course>
  <speed>0.0282842712474619</speed>
  <fix>3d</fix>
</trkpt>
<trkpt lat="33.810313" lon="-118.393867">
  <ele>-5.68</ele>
  <time>2026-09-01T01:13:39Z</time>
  <course>0.0</course>
  <speed>0.0</speed>
  <fix>3d</fix>
</trkpt>
<trkpt lat="33.8103132" lon="-118.3938671">
  <ele>-5.935</ele>
  <time>2026-09-01T01:13:39Z</time>
  <course>185.66</course>
  <speed>0.0282842712474619</speed>
  <fix>3d</fix>
</trkpt>
<trkpt lat="33.8103132" lon="-118.3938671">
  <ele>-5.997</ele>
  <time>2026-09-01T01:13:39Z</time>
  <course>185.67</course>
  <speed>0.0282842712474619</speed>
  <fix>3d</fix>
</trkpt>
<trkpt lat="33.810313" lon="-118.393867">
  <ele>-5.68</ele>
  <time>2026-09-01T01:13:39Z</time>
  <course>0.0</course>
  <speed>0.0</speed>
  <fix>3d</fix>
</trkpt>
<trkpt lat="33.8103132" lon="-118.3938672">
  <ele>-6.018</ele>
  <time>2026-09-01T01:13:39Z</time>
  <course>185.68</course>
  <speed>0.0282842712474619</speed>
  <fix>3d</fix>
</trkpt>
<trkpt lat="33.8103132" lon="-118.3938672">
  <ele>-6.061</ele>
  <time>2026-09-01T01:13:39Z</time>
  <course>185.68</course>
  <speed>0.0282842712474619</speed>
  <fix>3d</fix>
</trkpt>
<trkpt lat="33.810313" lon="-118.393867">
  <ele>-5.8</ele>
  <time>2026-09-01T01:13:39Z</time>
  <course>0.0</course>
  <speed>0.0</speed>
  <fix>3d</fix>
</trkpt>
<trkpt lat="33.8103132" lon="-118.3938672">
  <ele>-6.083</ele>
  <time>2026-09-01T01:13:39Z</time>
  <course>185.69</course>
  <speed>0.0282842712474619</speed>
  <fix>3d</fix>
</trkpt>
<trkpt lat="33.8103132" lon="-118.3938672">
  <ele>-6.124</ele>
  <time>2026-09-01T01:13:39Z</time>
  <course>185.69</course>
  <speed>0.0282842712474619</speed>
  <fix>3d</fix>
</trkpt>
<trkpt lat="33.810313" lon="-118.393867">
  <ele>-5.8</ele>
  <time>2026-09-01T01:13:39Z</time>
  <course>0.0</course>
  <speed>0.0</speed>
  <fix>3d</fix>
</trkpt>
<trkpt lat="33.8103132" lon="-118.3938672">
  <ele>-6.144</ele>
  <time>2026-09-01T01:13:39Z</time>
  <course>185.7</course>
  <speed>0.0282842712474619</speed>
  <fix>3d</fix>
</trkpt>
<trkpt lat="33.8103132" lon="-118.3938672">
  <ele>-6.186</ele>
  <time>2026-09-01T01:13:39Z</time>
  <course>185.7</course>
  <speed>0.0282842712474619</speed>
  <fix>3d</fix>
</trkpt>
<trkpt lat="33.810313" lon="-118.393867">
  <ele>-5.92</ele>
  <time>2026-09-01T01:13:39Z</time>
  <course>0.0</course>
  <speed>0.0</speed>
  <fix>3d</fix>
</trkpt>
<trkpt lat="33.8103132" lon="-118.3938672">
  <ele>-6.189</ele>
  <time>2026-09-01T01:13:39Z</time>
  <course>185.7</course>
  <speed>0.0282842712474619</speed>
  <fix>3d</fix>
</trkpt>
<trkpt lat="33.8103132" lon="-118.3938672">
  <ele>-6.249</ele>
  <time>2026-09-01T01:13:39Z</time>
  <course>185.71</course>
  <speed>0.0282842712474619</speed>
  <fix>3d</fix>
</trkpt>
<trkpt lat="33.810313" lon="-118.393867">
  <ele>-5.92</ele>
  <time>2026-09-01T01:13:39Z</time>
  <course>0.0</course>
  <speed>0.0</speed>
  <fix>3d</fix>
</trkpt>
<trkpt lat="33.8103132" lon="-118.3938672">
  <ele>-6.269</ele>
  <time>2026-09-01T01:13:39Z</time>
  <course>185.72</course>
  <speed>0.0282842712474619</speed>
  <fix>3d</fix>
</trkpt>
<trkpt lat="33.8103132" lon="-118.3938672">
  <ele>-6.312</ele>
  <time>2026-09-01T01:13:39Z</time>
  <course>185.72</course>
  <speed>0.0282842712474619</speed>
  <fix>3d</fix>
</trkpt>
<trkpt lat="33.810313" lon="-118.393867">
  <ele>-6.04</ele>
  <time>2026-09-01T01:13:39Z</time>
  <course>0.0</course>
  <speed>0.0</speed>
  <fix>3d</fix>
</trkpt>
<trkpt lat="33.8103132" lon="-118.3938672">
  <ele>-6.333</ele>
  <time>2026-09-01T01:13:39Z</time>
  <course>185.73</course>
  <speed>0.0282842712474619</speed>
  <fix>3d</fix>
</trkpt>
<trkpt lat="33.8103132" lon="-118.3938672">
  <ele>-6.375</ele>
  <time>2026-09-01T01:13:39Z</time>
  <course>185.73</course>
  <speed>0.0282842712474619</speed>
  <fix>3d</fix>
</trkpt>
<trkpt lat="33.810313" lon="-118.393867">
  <ele>-6.04</ele>
  <time>2026-09-01T01:13:39Z</time>
  <course>0.0</course>
  <speed>0.0</speed>
  <fix>3d</fix>
</trkpt>
<trkpt lat="33.8103132" lon="-118.3938672">
  <ele>-6.397</ele>
  <time>2026-09-01T01:13:39Z</time>
  <course>185.74</course>
  <speed>0.0282842712474619</speed>
  <fix>3d</fix>
</trkpt>
<trkpt lat="33.8103132" lon="-118.3938672">
  <ele>-6.438</ele>
  <time>2026-09-01T01:13:39Z</time>
  <course>185.74</course>
  <speed>0.03605551275463989</speed>
  <fix>3d</fix>
</trkpt>
<trkpt lat="33.810313" lon="-118.393867">
  <ele>-6.16</ele>
  <time>2026-09-01T01:13:39Z</time>
  <course>0.0</course>
  <speed>0.0</speed>
  <fix>3d</fix>
</trkpt>
<trkpt lat="33.8103132" lon="-118.3938672">
  <ele>-6.459</ele>
  <time>2026-09-01T01:13:39Z</time>
  <course>185.75</course>
  <speed>0.0282842712474619</speed>
  <fix>3d</fix>
</trkpt>
<trkpt lat="33.8103132" lon="-118.3938672">
  <ele>-6.501</ele>
  <time>2026-09-01T01:13:39Z</time>
  <course>185.75</course>
  <speed>0.03605551275463989</speed>
  <fix>3d</fix>
</trkpt>
<trkpt lat="33.810313" lon="-118.393867">
  <ele>-6.16</ele>
  <time>2026-09-01T01:13:39Z</time>
  <course>0.0</course>
  <speed>0.0</speed>
  <fix>3d</fix>
</trkpt>
<trkpt lat="33.8103132" lon="-118.3938672">
  <ele>-6.521</ele>
  <time>2026-09-01T01:13:39Z</time>
  <course>185.76</course>
  <speed>0.03605551275463989</speed>
  <fix>3d</fix>
</trkpt>
<trkpt lat="33.8103132" lon="-118.3938672">
  <ele>-6.563</ele>
  <time>2026-09-01T01:13:39Z</time>
  <course>185.76</course>
  <speed>0.03605551275463989</speed>
  <fix>3d</fix>
</trkpt>
<trkpt lat="33.810313" lon="-118.393867">
  <ele>-6.27</ele>
  <time>2026-09-01T01:13:39Z</time>
  <course>0.0</course>
  <speed>0.0</speed>
  <fix>3d</fix>
</trkpt>
<trkpt lat="33.8103132" lon="-118.3938672">
  <ele>-6.584</ele>
  <time>2026-09-01T01:13:39Z</time>
  <course>185.77</course>
  <speed>0.03605551275463989</speed>
  <fix>3d</fix>
</trkpt>
<trkpt lat="33.8103132" lon="-118.3938672">
  <ele>-6.624</ele>
  <time>2026-09-01T01:13:39Z</time>
  <course>185.77</course>
  <speed>0.03605551275463989</speed>
  <fix>3d</fix>
</trkpt>
<trkpt lat="33.810313" lon="-118.393867">
  <ele>-6.27</ele>
  <time>2026-09-01T01:13:39Z</time>
  <course>0.0</course>
  <speed>0.0</speed>
  <fix>3d</fix>
</trkpt>
<trkpt lat="33.8103132" lon="-118.3938672">
  <ele>-6.643</ele>
  <time>2026-09-01T01:13:39Z</time>
  <course>185.78</course>
  <speed>0.03605551275463989</speed>
  <fix>3d</fix>
</trkpt>
<trkpt lat="33.8103132" lon="-118.3938672">
  <ele>-6.685</ele>
  <time>2026-09-01T01:13:39Z</time>
  <course>185.78</course>
  <speed>0.03605551275463989</speed>
  <fix>3d</fix>
</trkpt>
<trkpt lat="33.810313" lon="-118.393867">
  <ele>-6.4</ele>
  <time>2026-09-01T01:13:39Z</time>
  <course>0.0</course>
  <speed>0.0</speed>
  <fix>3d</fix>
</trkpt>
<trkpt lat="33.8103132" lon="-118.3938672">
  <ele>-6.704</ele>
  <time>2026-09-01T01:13:39Z</time>
  <course>185.79</course>
  <speed>0.03605551275463989</speed>
  <fix>3d</fix>
</trkpt>
<trkpt lat="33.8103132" lon="-118.3938672">
  <ele>-6.746</ele>
  <time>2026-09-01T01:13:39Z</time>
  <course>185.79</course>
  <speed>0.03605551275463989</speed>
  <fix>3d</fix>
</trkpt>
<trkpt lat="33.810313" lon="-118.393867">
  <ele>-6.4</ele>
  <time>2026-09-01T01:13:39Z</time>
  <course>0.0</course>
  <speed>0.0</speed>
  <fix>3d</fix>
</trkpt>
<trkpt lat="33.8103132" lon="-118.3938672">
  <ele>-6.765</ele>
  <time>2026-09-01T01:13:39Z</time>
  <course>185.8</course>
  <speed>0.03605551275463989</speed>
  <fix>3d</fix>
</trkpt>
<trkpt lat="33.8103132" lon="-118.3938672">
  <ele>-6.807</ele>
  <time>2026-09-01T01:13:39Z</time>
  <course>185.8</course>
  <speed>0.03605551275463989</speed>
  <fix>3d</fix>
</trkpt>
<trkpt lat="33.810313" lon="-118.393867">
  <ele>-6.52</ele>
  <time>2026-09-01T01:13:39Z</time>
  <course>0.0</course>
  <speed>0.0</speed>
  <fix>3d</fix>
</trkpt>
<trkpt lat="33.8103132" lon="-118.3938672">
  <ele>-6.83</ele>
  <time>2026-09-01T01:13:39Z</time>
  <course>185.81</course>
  <speed>0.03605551275463989</speed>
  <fix>3d</fix>
</trkpt>
<trkpt lat="33.8103132" lon="-118.3938672">
  <ele>-6.868</ele>
  <time>2026-09-01T01:13:39Z</time>
  <course>185.81</course>
  <speed>0.03605551275463989</speed>
  <fix>3d</fix>
</trkpt>
<trkpt lat="33.810313" lon="-118.393867">
  <ele>-6.52</ele>
  <time>2026-09-01T01:13:39Z</time>
  <course>0.0</course>
  <speed>0.0</speed>
  <fix>3d</fix>
</trkpt>
<trkpt lat="33.8103132" lon="-118.3938672">
  <ele>-6.87</ele>
  <time>2026-09-01T01:13:39Z</time>
  <course>185.81</course>
  <speed>0.03605551275463989</speed>
  <fix>3d</fix>
</trkpt>
<trkpt lat="33.8103132" lon="-118.3938672">
  <ele>-6.93</ele>
  <time>2026-09-01T01:13:39Z</time>
  <course>185.82</course>
  <speed>0.03605551275463989</speed>
  <fix>3d</fix>
</trkpt>
<trkpt lat="33.810313" lon="-118.393867">
  <ele>-6.65</ele>
  <time>2026-09-01T01:13:39Z</time>
  <course>0.0</course>
  <speed>0.0</speed>
  <fix>3d</fix>
</trkpt>
<trkpt lat="33.8103132" lon="-118.3938672">
  <ele>-6.933</ele>
  <time>2026-09-01T01:13:39Z</time>
  <course>185.82</course>
  <speed>0.03605551275463989</speed>
  <fix>3d</fix>
</trkpt>
<trkpt lat="33.8103132" lon="-118.3938672">
  <ele>-6.993</ele>
  <time>2026-09-01T01:13:39Z</time>
  <course>185.83</course>
  <speed>0.03605551275463989</speed>
  <fix>3d</fix>
</trkpt>
<trkpt lat="33.810313" lon="-118.393867">
  <ele>-6.65</ele>
  <time>2026-09-01T01:13:39Z</time>
  <course>0.0</course>
  <speed>0.0</speed>
  <fix>3d</fix>
</trkpt>
<trkpt lat="33.8103132" lon="-118.3938672">
  <ele>-6.994</ele>
  <time>2026-09-01T01:13:39Z</time>
  <course>185.83</course>
  <speed>0.03605551275463989</speed>
  <fix>3d</fix>
</trkpt>
<trkpt lat="33.8103132" lon="-118.3938672">
  <ele>-7.055</ele>
  <time>2026-09-01T01:13:39Z</time>
  <course>185.84</course>
  <speed>0.03605551275463989</speed>
  <fix>3d</fix>
</trkpt>
<trkpt lat="33.810313" lon="-118.393867">
  <ele>-6.77</ele>
  <time>2026-09-01T01:13:39Z</time>
  <course>0.0</course>
  <speed>0.0</speed>
  <fix>3d</fix>
</trkpt>
<trkpt lat="33.8103132" lon="-118.3938672">
  <ele>-7.074</ele>
  <time>2026-09-01T01:13:39Z</time>
  <course>185.84</course>
  <speed>0.03605551275463989</speed>
  <fix>3d</fix>
</trkpt>
<trkpt lat="33.8103132" lon="-118.3938672">
  <ele>-7.117</ele>
  <time>2026-09-01T01:13:39Z</time>
  <course>185.85</course>
  <speed>0.03605551275463989</speed>
  <fix>3d</fix>
</trkpt>
<trkpt lat="33.810313" lon="-118.393867">
  <ele>-6.77</ele>
  <time>2026-09-01T01:13:39Z</time>
  <course>0.0</course>
  <speed>0.0</speed>
  <fix>3d</fix>
</trkpt>
<trkpt lat="33.8103132" lon="-118.3938672">
  <ele>-7.137</ele>
  <time>2026-09-01T01:13:39Z</time>
  <course>185.85</course>
  <speed>0.03605551275463989</speed>
  <fix>3d</fix>
</trkpt>
<trkpt lat="33.8103132" lon="-118.3938672">
  <ele>-7.179</ele>
  <time>2026-09-01T01:13:39Z</time>
  <course>185.86</course>
  <speed>0.03605551275463989</speed>
  <fix>3d</fix>
</trkpt>
<trkpt lat="33.810313" lon="-118.393867">
  <ele>-6.89</ele>
  <time>2026-09-01T01:13:39Z</time>
  <course>0.0</course>
  <speed>0.0</speed>
  <fix>3d</fix>
</trkpt>
<trkpt lat="33.8103132" lon="-118.3938672">
  <ele>-7.199</ele>
  <time>2026-09-01T01:13:39Z</time>
  <course>185.86</course>
  <speed>0.03605551275463989</speed>
  <fix>3d</fix>
</trkpt>
<trkpt lat="33.8103132" lon="-118.3938672">
  <ele>-7.242</ele>
  <time>2026-09-01T01:13:39Z</time>
  <course>185.87</course>
  <speed>0.03605551275463989</speed>
  <fix>3d</fix>
</trkpt>
<trkpt lat="33.810313" lon="-118.393867">
  <ele>-6.89</ele>
  <time>2026-09-01T01:13:39Z</time>
  <course>0.0</course>
  <speed>0.0</speed>
  <fix>3d</fix>
</trkpt>
<trkpt lat="33.8103132" lon="-118.3938672">
  <ele>-7.243</ele>
  <time>2026-09-01T01:13:39Z</time>
  <course>185.87</course>
  <speed>0.03605551275463989</speed>
  <fix>3d</fix>
</trkpt>
<trkpt lat="33.8103132" lon="-118.3938672">
  <ele>-7.305</ele>
  <time>2026-09-01T01:13:39Z</time>
  <course>185.88</course>
  <speed>0.03605551275463989</speed>
  <fix>3d</fix>
</trkpt>
<trkpt lat="33.810313" lon="-118.393867">
  <ele>-7.01</ele>
  <time>2026-09-01T01:13:39Z</time>
  <course>0.0</course>
  <speed>0.0</speed>
  <fix>3d</fix>
</trkpt>
<trkpt lat="33.8103132" lon="-118.3938672">
  <ele>-7.329</ele>
  <time>2026-09-01T01:13:39Z</time>
  <course>185.88</course>
  <speed>0.03605551275463989</speed>
  <fix>3d</fix>
</trkpt>
<trkpt lat="33.8103132" lon="-118.3938672">
  <ele>-7.369</ele>
  <time>2026-09-01T01:13:39Z</time>
  <course>185.89</course>
  <speed>0.03605551275463989</speed>
  <fix>3d</fix>
</trkpt>
<trkpt lat="33.810313" lon="-118.393867">
  <ele>-7.01</ele>
  <time>2026-09-01T01:13:39Z</time>
  <course>0.0</course>
  <speed>0.0</speed>
  <fix>3d</fix>
</trkpt>
<trkpt lat="33.8103132" lon="-118.3938672">
  <ele>-7.391</ele>
  <time>2026-09-01T01:13:39Z</time>
  <course>185.89</course>
  <speed>0.03605551275463989</speed>
  <fix>3d</fix>
</trkpt>
<trkpt lat="33.8103132" lon="-118.3938672">
  <ele>-7.433</ele>
  <time>2026-09-01T01:13:39Z</time>
  <course>185.9</course>
  <speed>0.03605551275463989</speed>
  <fix>3d</fix>
</trkpt>
<trkpt lat="33.810313" lon="-118.393867">
  <ele>-7.13</ele>
  <time>2026-09-01T01:13:39Z</time>
  <course>0.0</course>
  <speed>0.0</speed>
  <fix>3d</fix>
</trkpt>
<trkpt lat="33.8103132" lon="-118.3938672">
  <ele>-7.452</ele>
  <time>2026-09-01T01:13:39Z</time>
  <course>185.9</course>
  <speed>0.0282842712474619</speed>
  <fix>3d</fix>
</trkpt>
<trkpt lat="33.8103132" lon="-118.3938672">
  <ele>-7.496</ele>
  <time>2026-09-01T01:13:39Z</time>
  <course>185.91</course>
  <speed>0.03605551275463989</speed>
  <fix>3d</fix>
</trkpt>
<trkpt lat="33.810313" lon="-118.393867">
  <ele>-7.13</ele>
  <time>2026-09-01T01:13:39Z</time>
  <course>0.0</course>
  <speed>0.0</speed>
  <fix>3d</fix>
</trkpt>
<trkpt lat="33.8103132" lon="-118.3938672">
  <ele>-7.498</ele>
  <time>2026-09-01T01:13:39Z</time>
  <course>185.91</course>
  <speed>0.0282842712474619</speed>
  <fix>3d</fix>
</trkpt>
<trkpt lat="33.8103132" lon="-118.3938672">
  <ele>-7.559</ele>
  <time>2026-09-01T01:13:39Z</time>
  <course>185.91</course>
  <speed>0.0282842712474619</speed>
  <fix>3d</fix>
</trkpt>
<trkpt lat="33.810313" lon="-118.393867">
  <ele>-7.25</ele>
  <time>2026-09-01T01:13:39Z</time>
  <course>0.0</course>
  <speed>0.0</speed>
  <fix>3d</fix>
</trkpt>
<trkpt lat="33.8103132" lon="-118.3938672">
  <ele>-7.561</ele>
  <time>2026-09-01T01:13:39Z</time>
  <course>185.91</course>
  <speed>0.0282842712474619</speed>
  <fix>3d</fix>
</trkpt>
<trkpt lat="33.8103132" lon="-118.3938672">
  <ele>-7.622</ele>
  <time>2026-09-01T01:13:39Z</time>
  <course>185.92</course>
  <speed>0.0282842712474619</speed>
  <fix>3d</fix>
</trkpt>
<trkpt lat="33.810313" lon="-118.393867">
  <ele>-7.25</ele>
  <time>2026-09-01T01:13:39Z</time>
  <course>0.0</course>
  <speed>0.0</speed>
  <fix>3d</fix>
</trkpt>
<trkpt lat="33.8103132" lon="-118.3938672">
  <ele>-7.636</ele>
  <time>2026-09-01T01:13:39Z</time>
  <course>185.93</course>
  <speed>0.0282842712474619</speed>
  <fix>3d</fix>
</trkpt>
<trkpt lat="33.8103132" lon="-118.3938672">
  <ele>-7.684</ele>
  <time>2026-09-01T01:13:39Z</time>
  <course>185.93</course>
  <speed>0.0282842712474619</speed>
  <fix>3d</fix>
</trkpt>
<trkpt lat="33.810313" lon="-118.393867">
  <ele>-7.37</ele>
  <time>2026-09-01T01:13:39Z</time>
  <course>0.0</course>
  <speed>0.0</speed>
  <fix>3d</fix>
</trkpt>
<trkpt lat="33.8103132" lon="-118.3938672">
  <ele>-7.704</ele>
  <time>2026-09-01T01:13:39Z</time>
  <course>185.94</course>
  <speed>0.0282842712474619</speed>
  <fix>3d</fix>
</trkpt>
<trkpt lat="33.8103132" lon="-118.3938672">
  <ele>-7.746</ele>
  <time>2026-09-01T01:13:39Z</time>
  <course>185.94</course>
  <speed>0.0282842712474619</speed>
  <fix>3d</fix>
</trkpt>
<trkpt lat="33.810313" lon="-118.393867">
  <ele>-7.37</ele>
  <time>2026-09-01T01:13:39Z</time>
  <course>0.0</course>
  <speed>0.0</speed>
  <fix>3d</fix>
</trkpt>
<trkpt lat="33.8103132" lon="-118.3938672">
  <ele>-7.748</ele>
  <time>2026-09-01T01:13:39Z</time>
  <course>185.94</course>
  <speed>0.0282842712474619</speed>
  <fix>3d</fix>
</trkpt>
<trkpt lat="33.8103132" lon="-118.3938672">
  <ele>-7.808</ele>
  <time>2026-09-01T01:13:39Z</time>
  <course>185.95</course>
  <speed>0.0282842712474619</speed>
  <fix>3d</fix>
</trkpt>
<trkpt lat="33.810313" lon="-118.393867">
  <ele>-7.49</ele>
  <time>2026-09-01T01:13:39Z</time>
  <course>0.0</course>
  <speed>0.0</speed>
  <fix>3d</fix>
</trkpt>
<trkpt lat="33.8103132" lon="-118.3938672">
  <ele>-7.827</ele>
  <time>2026-09-01T01:13:39Z</time>
  <course>185.95</course>
  <speed>0.0282842712474619</speed>
  <fix>3d</fix>
</trkpt>
<trkpt lat="33.8103132" lon="-118.3938672">
  <ele>-7.87</ele>
  <time>2026-09-01T01:13:39Z</time>
  <course>185.96</course>
  <speed>0.0282842712474619</speed>
  <fix>3d</fix>
</trkpt>
<trkpt lat="33.810313" lon="-118.393867">
  <ele>-7.49</ele>
  <time>2026-09-01T01:13:39Z</time>
  <course>0.0</course>
  <speed>0.0</speed>
  <fix>3d</fix>
</trkpt>
<trkpt lat="33.8103132" lon="-118.3938672">
  <ele>-7.871</ele>
  <time>2026-09-01T01:13:39Z</time>
  <course>185.96</course>
  <speed>0.0282842712474619</speed>
  <fix>3d</fix>
</trkpt>
<trkpt lat="33.8103132" lon="-118.3938672">
  <ele>-7.931</ele>
  <time>2026-09-01T01:13:39Z</time>
  <course>185.97</course>
  <speed>0.0282842712474619</speed>
  <fix>3d</fix>
</trkpt>
<trkpt lat="33.810313" lon="-118.393867">
  <ele>-7.61</ele>
  <time>2026-09-01T01:13:39Z</time>
  <course>0.0</course>
  <speed>0.0</speed>
  <fix>3d</fix>
</trkpt>
<trkpt lat="33.8103132" lon="-118.3938671">
  <ele>-7.949</ele>
  <time>2026-09-01T01:13:39Z</time>
  <course>185.97</course>
  <speed>0.022360679774997897</speed>
  <fix>3d</fix>
</trkpt>
<trkpt lat="33.8103132" lon="-118.3938671">
  <ele>-7.992</ele>
  <time>2026-09-01T01:13:39Z</time>
  <course>185.98</course>
  <speed>0.022360679774997897</speed>
  <fix>3d</fix>
</trkpt>
<trkpt lat="33.810313" lon="-118.393867">
  <ele>-7.61</ele>
  <time>2026-09-01T01:13:39Z</time>
  <course>0.0</course>
  <speed>0.0</speed>
  <fix>3d</fix>
</trkpt>
<trkpt lat="33.8103132" lon="-118.3938671">
  <ele>-8.011</ele>
  <time>2026-09-01T01:13:39Z</time>
  <course>185.98</course>
  <speed>0.022360679774997897</speed>
  <fix>3d</fix>
</trkpt>
<trkpt lat="33.8103132" lon="-118.3938671">
  <ele>-8.052</ele>
  <time>2026-09-01T01:13:39Z</time>
  <course>185.98</course>
  <speed>0.022360679774997897</speed>
  <fix>3d</fix>
</trkpt>
<trkpt lat="33.810313" lon="-118.393867">
  <ele>-7.73</ele>
  <time>2026-09-01T01:13:39Z</time>
  <course>0.0</course>
  <speed>0.0</speed>
  <fix>3d</fix>
</trkpt>
<trkpt lat="33.8103132" lon="-118.3938671">
  <ele>-8.073</ele>
  <time>2026-09-01T01:13:39Z</time>
  <course>185.99</course>
  <speed>0.022360679774997897</speed>
  <fix>3d</fix>
</trkpt>
<trkpt lat="33.8103132" lon="-118.3938671">
  <ele>-8.112</ele>
  <time>2026-09-01T01:13:39Z</time>
  <course>185.99</course>
  <speed>0.022360679774997897</speed>
  <fix>3d</fix>
</trkpt>
<trkpt lat="33.810313" lon="-118.393867">
  <ele>-7.73</ele>
  <time>2026-09-01T01:13:39Z</time>
  <course>0.0</course>
  <speed>0.0</speed>
  <fix>3d</fix>
</trkpt>
<trkpt lat="33.8103132" lon="-118.3938671">
  <ele>-8.133</ele>
  <time>2026-09-01T01:13:39Z</time>
  <course>186.0</course>
  <speed>0.022360679774997897</speed>
  <fix>3d</fix>
</trkpt>
<trkpt lat="33.8103132" lon="-118.3938671">
  <ele>-8.172</ele>
  <time>2026-09-01T01:13:39Z</time>
  <course>186.0</course>
  <speed>0.022360679774997897</speed>
  <fix>3d</fix>
</trkpt>
<trkpt lat="33.810313" lon="-118.393867">
  <ele>-7.85</ele>
  <time>2026-09-01T01:13:39Z</time>
  <course>0.0</course>
  <speed>0.0</speed>
  <fix>3d</fix>
</trkpt>
<trkpt lat="33.8103132" lon="-118.3938671">
  <ele>-8.173</ele>
  <time>2026-09-01T01:13:39Z</time>
  <course>186.0</course>
  <speed>0.022360679774997897</speed>
  <fix>3d</fix>
</trkpt>
<trkpt lat="33.8103132" lon="-118.3938671">
  <ele>-8.232</ele>
  <time>2026-09-01T01:13:39Z</time>
  <course>186.01</course>
  <speed>0.022360679774997897</speed>
  <fix>3d</fix>
</trkpt>
<trkpt lat="33.810313" lon="-118.393867">
  <ele>-7.85</ele>
  <time>2026-09-01T01:13:39Z</time>
  <course>0.0</course>
  <speed>0.0</speed>
  <fix>3d</fix>
</trkpt>
<trkpt lat="33.8103132" lon="-118.3938671">
  <ele>-8.254</ele>
  <time>2026-09-01T01:13:39Z</time>
  <course>186.01</course>
  <speed>0.022360679774997897</speed>
  <fix>3d</fix>
</trkpt>
<trkpt lat="33.8103132" lon="-118.3938671">
  <ele>-8.293</ele>
  <time>2026-09-01T01:13:39Z</time>
  <course>186.02</course>
  <speed>0.022360679774997897</speed>
  <fix>3d</fix>
</trkpt>
<trkpt lat="33.810313" lon="-118.393867">
  <ele>-7.97</ele>
  <time>2026-09-01T01:13:39Z</time>
  <course>0.0</course>
  <speed>0.0</speed>
  <fix>3d</fix>
</trkpt>
<trkpt lat="33.8103132" lon="-118.3938671">
  <ele>-8.321</ele>
  <time>2026-09-01T01:13:39Z</time>
  <course>186.02</course>
  <speed>0.022360679774997897</speed>
  <fix>3d</fix>
</trkpt>
<trkpt lat="33.8103132" lon="-118.3938671">
  <ele>-8.354</ele>
  <time>2026-09-01T01:13:39Z</time>
  <course>186.03</course>
  <speed>0.022360679774997897</speed>
  <fix>3d</fix>
</trkpt>
<trkpt lat="33.810313" lon="-118.393867">
  <ele>-7.97</ele>
  <time>2026-09-01T01:13:39Z</time>
  <course>0.0</course>
  <speed>0.0</speed>
  <fix>3d</fix>
</trkpt>
<trkpt lat="33.8103132" lon="-118.3938671">
  <ele>-8.376</ele>
  <time>2026-09-01T01:13:39Z</time>
  <course>186.03</course>
  <speed>0.022360679774997897</speed>
  <fix>3d</fix>
</trkpt>
<trkpt lat="33.8103132" lon="-118.3938671">
  <ele>-8.416</ele>
  <time>2026-09-01T01:13:39Z</time>
  <course>186.03</course>
  <speed>0.022360679774997897</speed>
  <fix>3d</fix>
</trkpt>
<trkpt lat="33.810313" lon="-118.393867">
  <ele>-8.09</ele>
  <time>2026-09-01T01:13:39Z</time>
  <course>0.0</course>
  <speed>0.0</speed>
  <fix>3d</fix>
</trkpt>
<trkpt lat="33.8103132" lon="-118.3938671">
  <ele>-8.434</ele>
  <time>2026-09-01T01:13:39Z</time>
  <course>186.04</course>
  <speed>0.022360679774997897</speed>
  <fix>3d</fix>
</trkpt>
<trkpt lat="33.8103132" lon="-118.3938671">
  <ele>-8.477</ele>
  <time>2026-09-01T01:13:39Z</time>
  <course>186.04</course>
  <speed>0.022360679774997897</speed>
  <fix>3d</fix>
</trkpt>
<trkpt lat="33.810313" lon="-118.393867">
  <ele>-8.09</ele>
  <time>2026-09-01T01:13:39Z</time>
  <course>0.0</course>
  <speed>0.0</speed>
  <fix>3d</fix>
</trkpt>
<trkpt lat="33.8103132" lon="-118.3938671">
  <ele>-8.479</ele>
  <time>2026-09-01T01:13:39Z</time>
  <course>186.04</course>
  <speed>0.022360679774997897</speed>
  <fix>3d</fix>
</trkpt>
<trkpt lat="33.8103132" lon="-118.3938671">
  <ele>-8.539</ele>
  <time>2026-09-01T01:13:39Z</time>
  <course>186.05</course>
  <speed>0.022360679774997897</speed>
  <fix>3d</fix>
</trkpt>
<trkpt lat="33.810313" lon="-118.393867">
  <ele>-8.21</ele>
  <time>2026-09-01T01:13:39Z</time>
  <course>0.0</course>
  <speed>0.0</speed>
  <fix>3d</fix>
</trkpt>
<trkpt lat="33.8103132" lon="-118.3938671">
  <ele>-8.559</ele>
  <time>2026-09-01T01:13:39Z</time>
  <course>186.05</course>
  <speed>0.022360679774997897</speed>
  <fix>3d</fix>
</trkpt>
<trkpt lat="33.8103132" lon="-118.3938671">
  <ele>-8.601</ele>
  <time>2026-09-01T01:13:39Z</time>
  <course>186.06</course>
  <speed>0.022360679774997897</speed>
  <fix>3d</fix>
</trkpt>
<trkpt lat="33.810313" lon="-118.393867">
  <ele>-8.21</ele>
  <time>2026-09-01T01:13:39Z</time>
  <course>0.0</course>
  <speed>0.0</speed>
  <fix>3d</fix>
</trkpt>
<trkpt lat="33.8103132" lon="-118.3938671">
  <ele>-8.603</ele>
  <time>2026-09-01T01:13:39Z</time>
  <course>186.06</course>
  <speed>0.022360679774997897</speed>
  <fix>3d</fix>
</trkpt>
<trkpt lat="33.8103132" lon="-118.3938671">
  <ele>-8.664</ele>
  <time>2026-09-01T01:13:39Z</time>
  <course>186.06</course>
  <speed>0.022360679774997897</speed>
  <fix>3d</fix>
</trkpt>
<trkpt lat="33.810313" lon="-118.393867">
  <ele>-8.34</ele>
  <time>2026-09-01T01:13:39Z</time>
  <course>0.0</course>
  <speed>0.0</speed>
  <fix>3d</fix>
</trkpt>
<trkpt lat="33.8103132" lon="-118.3938671">
  <ele>-8.665</ele>
  <time>2026-09-01T01:13:39Z</time>
  <course>186.07</course>
  <speed>0.022360679774997897</speed>
  <fix>3d</fix>
</trkpt>
<trkpt lat="33.8103132" lon="-118.3938671">
  <ele>-8.726</ele>
  <time>2026-09-01T01:13:39Z</time>
  <course>186.07</course>
  <speed>0.022360679774997897</speed>
  <fix>3d</fix>
</trkpt>
<trkpt lat="33.810313" lon="-118.393867">
  <ele>-8.34</ele>
  <time>2026-09-01T01:13:39Z</time>
  <course>0.0</course>
  <speed>0.0</speed>
  <fix>3d</fix>
</trkpt>
<trkpt lat="33.8103132" lon="-118.3938671">
  <ele>-8.747</ele>
  <time>2026-09-01T01:13:39Z</time>
  <course>186.07</course>
  <speed>0.022360679774997897</speed>
  <fix>3d</fix>
</trkpt>
<trkpt lat="33.8103132" lon="-118.3938671">
  <ele>-8.789</ele>
  <time>2026-09-01T01:13:39Z</time>
  <course>186.08</course>
  <speed>0.022360679774997897</speed>
  <fix>3d</fix>
</trkpt>
<trkpt lat="33.810313" lon="-118.393867">
  <ele>-8.46</ele>
  <time>2026-09-01T01:13:39Z</time>
  <course>0.0</course>
  <speed>0.0</speed>
  <fix>3d</fix>
</trkpt>
<trkpt lat="33.8103132" lon="-118.3938671">
  <ele>-8.79</ele>
  <time>2026-09-01T01:13:39Z</time>
  <course>186.08</course>
  <speed>0.022360679774997897</speed>
  <fix>3d</fix>
</trkpt>
<trkpt lat="33.8103132" lon="-118.3938671">
  <ele>-8.85</ele>
  <time>2026-09-01T01:13:39Z</time>
  <course>186.09</course>
  <speed>0.022360679774997897</speed>
  <fix>3d</fix>
</trkpt>
<trkpt lat="33.810313" lon="-118.393867">
  <ele>-8.46</ele>
  <time>2026-09-01T01:13:39Z</time>
  <course>0.0</course>
  <speed>0.0</speed>
  <fix>3d</fix>
</trkpt>
<trkpt lat="33.8103132" lon="-118.3938671">
  <ele>-8.87</ele>
  <time>2026-09-01T01:13:39Z</time>
  <course>186.09</course>
  <speed>0.022360679774997897</speed>
  <fix>3d</fix>
</trkpt>
<trkpt lat="33.8103132" lon="-118.3938671">
  <ele>-8.912</ele>
  <time>2026-09-01T01:13:39Z</time>
  <course>186.09</course>
  <speed>0.022360679774997897</speed>
  <fix>3d</fix>
</trkpt>
<trkpt lat="33.810313" lon="-118.393867">
  <ele>-8.58</ele>
  <time>2026-09-01T01:13:39Z</time>
  <course>0.0</course>
  <speed>0.0</speed>
  <fix>3d</fix>
</trkpt>
<trkpt lat="33.8103132" lon="-118.3938671">
  <ele>-8.932</ele>
  <time>2026-09-01T01:13:39Z</time>
  <course>186.1</course>
  <speed>0.022360679774997897</speed>
  <fix>3d</fix>
</trkpt>
<trkpt lat="33.8103132" lon="-118.3938671">
  <ele>-8.973</ele>
  <time>2026-09-01T01:13:39Z</time>
  <course>186.1</course>
  <speed>0.022360679774997897</speed>
  <fix>3d</fix>
</trkpt>
<trkpt lat="33.810313" lon="-118.393867">
  <ele>-8.58</ele>
  <time>2026-09-01T01:13:39Z</time>
  <course>0.0</course>
  <speed>0.0</speed>
  <fix>3d</fix>
</trkpt>
<trkpt lat="33.8103132" lon="-118.3938671">
  <ele>-8.994</ele>
  <time>2026-09-01T01:13:39Z</time>
  <course>186.1</course>
  <speed>0.022360679774997897</speed>
  <fix>3d</fix>
</trkpt>
<trkpt lat="33.8103132" lon="-118.3938671">
  <ele>-9.036</ele>
  <time>2026-09-01T01:13:39Z</time>
  <course>186.11</course>
  <speed>0.022360679774997897</speed>
  <fix>3d</fix>
</trkpt>
<trkpt lat="33.810313" lon="-118.393867">
  <ele>-8.7</ele>
  <time>2026-09-01T01:13:39Z</time>
  <course>0.0</course>
  <speed>0.0</speed>
  <fix>3d</fix>
</trkpt>
<trkpt lat="33.8103132" lon="-118.3938671">
  <ele>-9.053</ele>
  <time>2026-09-01T01:13:39Z</time>
  <course>186.11</course>
  <speed>0.022360679774997897</speed>
  <fix>3d</fix>
</trkpt>
<trkpt lat="33.8103132" lon="-118.3938671">
  <ele>-9.097</ele>
  <time>2026-09-01T01:13:39Z</time>
  <course>186.12</course>
  <speed>0.022360679774997897</speed>
  <fix>3d</fix>
</trkpt>
<trkpt lat="33.810313" lon="-118.393867">
  <ele>-8.7</ele>
  <time>2026-09-01T01:13:39Z</time>
  <course>0.0</course>
  <speed>0.0</speed>
  <fix>3d</fix>
</trkpt>
<trkpt lat="33.8103132" lon="-118.3938671">
  <ele>-9.099</ele>
  <time>2026-09-01T01:13:39Z</time>
  <course>186.12</course>
  <speed>0.022360679774997897</speed>
  <fix>3d</fix>
</trkpt>
<trkpt lat="33.8103132" lon="-118.3938671">
  <ele>-9.159</ele>
  <time>2026-09-01T01:13:39Z</time>
  <course>186.12</course>
  <speed>0.022360679774997897</speed>
  <fix>3d</fix>
</trkpt>
<trkpt lat="33.810313" lon="-118.393867">
  <ele>-8.82</ele>
  <time>2026-09-01T01:13:39Z</time>
  <course>0.0</course>
  <speed>0.0</speed>
  <fix>3d</fix>
</trkpt>
<trkpt lat="33.8103132" lon="-118.3938671">
  <ele>-9.178</ele>
  <time>2026-09-01T01:13:39Z</time>
  <course>186.13</course>
  <speed>0.022360679774997897</speed>
  <fix>3d</fix>
</trkpt>
<trkpt lat="33.8103132" lon="-118.3938671">
  <ele>-9.221</ele>
  <time>2026-09-01T01:13:39Z</time>
  <course>186.13</course>
  <speed>0.022360679774997897</speed>
  <fix>3d</fix>
</trkpt>
<trkpt lat="33.810313" lon="-118.393867">
  <ele>-8.82</ele>
  <time>2026-09-01T01:13:39Z</time>
  <course>0.0</course>
  <speed>0.0</speed>
  <fix>3d</fix>
</trkpt>
<trkpt lat="33.8103132" lon="-118.3938671">
  <ele>-9.243</ele>
  <time>2026-09-01T01:13:39Z</time>
  <course>186.13</course>
  <speed>0.022360679774997897</speed>
  <fix>3d</fix>
</trkpt>
<trkpt lat="33.8103132" lon="-118.3938671">
  <ele>-9.283</ele>
  <time>2026-09-01T01:13:39Z</time>
  <course>186.14</course>
  <speed>0.022360679774997897</speed>
  <fix>3d</fix>
</trkpt>
<trkpt lat="33.810313" lon="-118.393867">
  <ele>-8.94</ele>
  <time>2026-09-01T01:13:39Z</time>
  <course>0.0</course>
  <speed>0.0</speed>
  <fix>3d</fix>
</trkpt>
<trkpt lat="33.8103132" lon="-118.3938671">
  <ele>-9.303</ele>
  <time>2026-09-01T01:13:39Z</time>
  <course>186.14</course>
  <speed>0.022360679774997897</speed>
  <fix>3d</fix>
</trkpt>
<trkpt lat="33.8103132" lon="-118.3938671">
  <ele>-9.345</ele>
  <time>2026-09-01T01:13:39Z</time>
  <course>186.14</course>
  <speed>0.022360679774997897</speed>
  <fix>3d</fix>
</trkpt>
<trkpt lat="33.810313" lon="-118.393867">
  <ele>-8.94</ele>
  <time>2026-09-01T01:13:39Z</time>
  <course>0.0</course>
  <speed>0.0</speed>
  <fix>3d</fix>
</trkpt>
<trkpt lat="33.8103132" lon="-118.3938671">
  <ele>-9.375</ele>
  <time>2026-09-01T01:13:39Z</time>
  <course>186.15</course>
  <speed>0.022360679774997897</speed>
  <fix>3d</fix>
</trkpt>
<trkpt lat="33.8103132" lon="-118.3938671">
  <ele>-9.408</ele>
  <time>2026-09-01T01:13:39Z</time>
  <course>186.15</course>
  <speed>0.022360679774997897</speed>
  <fix>3d</fix>
</trkpt>
<trkpt lat="33.810313" lon="-118.393867">
  <ele>-9.05</ele>
  <time>2026-09-01T01:13:39Z</time>
  <course>0.0</course>
  <speed>0.0</speed>
  <fix>3d</fix>
</trkpt>
<trkpt lat="33.8103132" lon="-118.3938671">
  <ele>-9.41</ele>
  <time>2026-09-01T01:13:39Z</time>
  <course>186.15</course>
  <speed>0.022360679774997897</speed>
  <fix>3d</fix>
</trkpt>
<trkpt lat="33.8103132" lon="-118.3938671">
  <ele>-9.472</ele>
  <time>2026-09-01T01:13:39Z</time>
  <course>186.16</course>
  <speed>0.022360679774997897</speed>
  <fix>3d</fix>
</trkpt>
<trkpt lat="33.810313" lon="-118.393867">
  <ele>-9.05</ele>
  <time>2026-09-01T01:13:39Z</time>
  <course>0.0</course>
  <speed>0.0</speed>
  <fix>3d</fix>
</trkpt>
<trkpt lat="33.8103132" lon="-118.3938671">
  <ele>-9.474</ele>
  <time>2026-09-01T01:13:39Z</time>
  <course>186.16</course>
  <speed>0.022360679774997897</speed>
  <fix>3d</fix>
</trkpt>
<trkpt lat="33.8103132" lon="-118.3938671">
  <ele>-9.535</ele>
  <time>2026-09-01T01:13:39Z</time>
  <course>186.16</course>
  <speed>0.022360679774997897</speed>
  <fix>3d</fix>
</trkpt>
<trkpt lat="33.810313" lon="-118.393867">
  <ele>-9.18</ele>
  <time>2026-09-01T01:13:39Z</time>
  <course>0.0</course>
  <speed>0.0</speed>
  <fix>3d</fix>
</trkpt>
<trkpt lat="33.8103132" lon="-118.3938671">
  <ele>-9.556</ele>
  <time>2026-09-01T01:13:39Z</time>
  <course>186.17</course>
  <speed>0.022360679774997897</speed>
  <fix>3d</fix>
</trkpt>
<trkpt lat="33.8103132" lon="-118.3938671">
  <ele>-9.598</ele>
  <time>2026-09-01T01:13:39Z</time>
  <course>186.17</course>
  <speed>0.022360679774997897</speed>
  <fix>3d</fix>
</trkpt>
<trkpt lat="33.810313" lon="-118.393867">
  <ele>-9.18</ele>
  <time>2026-09-01T01:13:39Z</time>
  <course>0.0</course>
  <speed>0.0</speed>
  <fix>3d</fix>
</trkpt>
<trkpt lat="33.8103132" lon="-118.3938671">
  <ele>-9.612</ele>
  <time>2026-09-01T01:13:39Z</time>
  <course>186.17</course>
  <speed>0.022360679774997897</speed>
  <fix>3d</fix>
</trkpt>
<trkpt lat="33.8103132" lon="-118.3938671">
  <ele>-9.661</ele>
  <time>2026-09-01T01:13:39Z</time>
  <course>186.18</course>
  <speed>0.022360679774997897</speed>
  <fix>3d</fix>
</trkpt>
<trkpt lat="33.810313" lon="-118.393867">
  <ele>-9.29</ele>
  <time>2026-09-01T01:13:39Z</time>
  <course>0.0</course>
  <speed>0.0</speed>
  <fix>3d</fix>
</trkpt>
<trkpt lat="33.8103132" lon="-118.3938671">
  <ele>-9.681</ele>
  <time>2026-09-01T01:13:39Z</time>
  <course>186.18</course>
  <speed>0.022360679774997897</speed>
  <fix>3d</fix>
</trkpt>
<trkpt lat="33.8103132" lon="-118.3938671">
  <ele>-9.723</ele>
  <time>2026-09-01T01:13:39Z</time>
  <course>186.18</course>
  <speed>0.022360679774997897</speed>
  <fix>3d</fix>
</trkpt>
<trkpt lat="33.810313" lon="-118.393867">
  <ele>-9.29</ele>
  <time>2026-09-01T01:13:39Z</time>
  <course>0.0</course>
  <speed>0.0</speed>
  <fix>3d</fix>
</trkpt>
<trkpt lat="33.8103132" lon="-118.3938671">
  <ele>-9.725</ele>
  <time>2026-09-01T01:13:39Z</time>
  <course>186.18</course>
  <speed>0.022360679774997897</speed>
  <fix>3d</fix>
</trkpt>
<trkpt lat="33.8103132" lon="-118.3938671">
  <ele>-9.785</ele>
  <time>2026-09-01T01:13:39Z</time>
  <course>186.19</course>
  <speed>0.022360679774997897</speed>
  <fix>3d</fix>
</trkpt>
<trkpt lat="33.810313" lon="-118.393867">
  <ele>-9.42</ele>
  <time>2026-09-01T01:13:39Z</time>
  <course>0.0</course>
  <speed>0.0</speed>
  <fix>3d</fix>
</trkpt>
<trkpt lat="33.8103132" lon="-118.3938671">
  <ele>-9.807</ele>
  <time>2026-09-01T01:13:39Z</time>
  <course>186.19</course>
  <speed>0.022360679774997897</speed>
  <fix>3d</fix>
</trkpt>
<trkpt lat="33.8103132" lon="-118.3938671">
  <ele>-9.847</ele>
  <time>2026-09-01T01:13:39Z</time>
  <course>186.19</course>
  <speed>0.022360679774997897</speed>
  <fix>3d</fix>
</trkpt>
<trkpt lat="33.810313" lon="-118.393867">
  <ele>-9.42</ele>
  <time>2026-09-01T01:13:39Z</time>
  <course>0.0</course>
  <speed>0.0</speed>
  <fix>3d</fix>
</trkpt>
<trkpt lat="33.8103132" lon="-118.3938671">
  <ele>-9.866</ele>
  <time>2026-09-01T01:13:39Z</time>
  <course>186.2</course>
  <speed>0.022360679774997897</speed>
  <fix>3d</fix>
</trkpt>
<trkpt lat="33.8103132" lon="-118.3938671">
  <ele>-9.909</ele>
  <time>2026-09-01T01:13:39Z</time>
  <course>186.2</course>
  <speed>0.022360679774997897</speed>
  <fix>3d</fix>
</trkpt>
<trkpt lat="33.810313" lon="-118.393867">
  <ele>-9.54</ele>
  <time>2026-09-01T01:13:39Z</time>
  <course>0.0</course>
  <speed>0.0</speed>
  <fix>3d</fix>
</trkpt>
<trkpt lat="33.8103132" lon="-118.3938671">
  <ele>-9.91</ele>
  <time>2026-09-01T01:13:39Z</time>
  <course>186.2</course>
  <speed>0.022360679774997897</speed>
  <fix>3d</fix>
</trkpt>
<trkpt lat="33.8103132" lon="-118.3938671">
  <ele>-9.971</ele>
  <time>2026-09-01T01:13:39Z</time>
  <course>186.21</course>
  <speed>0.022360679774997897</speed>
  <fix>3d</fix>
</trkpt>
<trkpt lat="33.810313" lon="-118.393867">
  <ele>-9.54</ele>
  <time>2026-09-01T01:13:39Z</time>
  <course>0.0</course>
  <speed>0.0</speed>
  <fix>3d</fix>
</trkpt>
<trkpt lat="33.8103132" lon="-118.3938671">
  <ele>-9.972</ele>
  <time>2026-09-01T01:13:39Z</time>
  <course>186.21</course>
  <speed>0.022360679774997897</speed>
  <fix>3d</fix>
</trkpt>
<trkpt lat="33.8103132" lon="-118.3938671">
  <ele>-10.032</ele>
  <time>2026-09-01T01:13:39Z</time>
  <course>186.21</course>
  <speed>0.022360679774997897</speed>
  <fix>3d</fix>
</trkpt>
<trkpt lat="33.810313" lon="-118.393867">
  <ele>-9.66</ele>
  <time>2026-09-01T01:13:39Z</time>
  <course>0.0</course>
  <speed>0.0</speed>
  <fix>3d</fix>
</trkpt>
<trkpt lat="33.8103132" lon="-118.3938671">
  <ele>-10.034</ele>
  <time>2026-09-01T01:13:39Z</time>
  <course>186.21</course>
  <speed>0.022360679774997897</speed>
  <fix>3d</fix>
</trkpt>
<trkpt lat="33.8103132" lon="-118.3938671">
  <ele>-10.095</ele>
  <time>2026-09-01T01:13:39Z</time>
  <course>186.22</course>
  <speed>0.022360679774997897</speed>
  <fix>3d</fix>
</trkpt>
<trkpt lat="33.810313" lon="-118.393867">
  <ele>-9.66</ele>
  <time>2026-09-01T01:13:39Z</time>
  <course>0.0</course>
  <speed>0.0</speed>
  <fix>3d</fix>
</trkpt>
<trkpt lat="33.8103132" lon="-118.3938671">
  <ele>-10.097</ele>
  <time>2026-09-01T01:13:39Z</time>
  <course>186.22</course>
  <speed>0.022360679774997897</speed>
  <fix>3d</fix>
</trkpt>
<trkpt lat="33.8103132" lon="-118.3938671">
  <ele>-10.158</ele>
  <time>2026-09-01T01:13:39Z</time>
  <course>186.23</course>
  <speed>0.022360679774997897</speed>
  <fix>3d</fix>
</trkpt>
<trkpt lat="33.810313" lon="-118.393867">
  <ele>-9.78</ele>
  <time>2026-09-01T01:13:39Z</time>
  <course>0.0</course>
  <speed>0.0</speed>
  <fix>3d</fix>
</trkpt>
<trkpt lat="33.8103132" lon="-118.3938671">
  <ele>-10.178</ele>
  <time>2026-09-01T01:13:39Z</time>
  <course>186.23</course>
  <speed>0.022360679774997897</speed>
  <fix>3d</fix>
</trkpt>
<trkpt lat="33.8103132" lon="-118.3938671">
  <ele>-10.221</ele>
  <time>2026-09-01T01:13:39Z</time>
  <course>186.23</course>
  <speed>0.022360679774997897</speed>
  <fix>3d</fix>
</trkpt>
<trkpt lat="33.810313" lon="-118.393867">
  <ele>-9.78</ele>
  <time>2026-09-01T01:13:39Z</time>
  <course>0.0</course>
  <speed>0.0</speed>
  <fix>3d</fix>
</trkpt>
<trkpt lat="33.8103132" lon="-118.3938671">
  <ele>-10.241</ele>
  <time>2026-09-01T01:13:39Z</time>
  <course>186.23</course>
  <speed>0.022360679774997897</speed>
  <fix>3d</fix>
</trkpt>
<trkpt lat="33.8103132" lon="-118.3938671">
  <ele>-10.284</ele>
  <time>2026-09-01T01:13:39Z</time>
  <course>186.24</course>
  <speed>0.022360679774997897</speed>
  <fix>3d</fix>
</trkpt>
<trkpt lat="33.810313" lon="-118.393867">
  <ele>-9.9</ele>
  <time>2026-09-01T01:13:39Z</time>
  <course>0.0</course>
  <speed>0.0</speed>
  <fix>3d</fix>
</trkpt>
<trkpt lat="33.8103132" lon="-118.3938671">
  <ele>-10.305</ele>
  <time>2026-09-01T01:13:39Z</time>
  <course>186.24</course>
  <speed>0.022360679774997897</speed>
  <fix>3d</fix>
</trkpt>
<trkpt lat="33.8103132" lon="-118.3938671">
  <ele>-10.348</ele>
  <time>2026-09-01T01:13:39Z</time>
  <course>186.24</course>
  <speed>0.022360679774997897</speed>
  <fix>3d</fix>
</trkpt>
<trkpt lat="33.810313" lon="-118.393867">
  <ele>-9.9</ele>
  <time>2026-09-01T01:13:39Z</time>
  <course>0.0</course>
  <speed>0.0</speed>
  <fix>3d</fix>
</trkpt>
<trkpt lat="33.8103132" lon="-118.3938671">
  <ele>-10.349</ele>
  <time>2026-09-01T01:13:39Z</time>
  <course>186.24</course>
  <speed>0.022360679774997897</speed>
  <fix>3d</fix>
</trkpt>
<trkpt lat="33.8103132" lon="-118.3938671">
  <ele>-10.411</ele>
  <time>2026-09-01T01:13:39Z</time>
  <course>186.25</course>
  <speed>0.022360679774997897</speed>
  <fix>3d</fix>
</trkpt>
<trkpt lat="33.810313" lon="-118.393867">
  <ele>-10.02</ele>
  <time>2026-09-01T01:13:39Z</time>
  <course>0.0</course>
  <speed>0.0</speed>
  <fix>3d</fix>
</trkpt>
<trkpt lat="33.8103132" lon="-118.3938671">
  <ele>-10.431</ele>
  <time>2026-09-01T01:13:39Z</time>
  <course>186.25</course>
  <speed>0.022360679774997897</speed>
  <fix>3d</fix>
</trkpt>
<trkpt lat="33.8103132" lon="-118.3938671">
  <ele>-10.473</ele>
  <time>2026-09-01T01:13:39Z</time>
  <course>186.25</course>
  <speed>0.022360679774997897</speed>
  <fix>3d</fix>
</trkpt>
<trkpt lat="33.810313" lon="-118.393867">
  <ele>-10.02</ele>
  <time>2026-09-01T01:13:39Z</time>
  <course>0.0</course>
  <speed>0.0</speed>
  <fix>3d</fix>
</trkpt>
<trkpt lat="33.8103132" lon="-118.3938671">
  <ele>-10.492</ele>
  <time>2026-09-01T01:13:39Z</time>
  <course>186.25</course>
  <speed>0.022360679774997897</speed>
  <fix>3d</fix>
</trkpt>
<trkpt lat="33.8103132" lon="-118.3938671">
  <ele>-10.535</ele>
  <time>2026-09-01T01:13:39Z</time>
  <course>186.26</course>
  <speed>0.022360679774997897</speed>
  <fix>3d</fix>
</trkpt>
<trkpt lat="33.810313" lon="-118.393867">
  <ele>-10.15</ele>
  <time>2026-09-01T01:13:39Z</time>
  <course>0.0</course>
  <speed>0.0</speed>
  <fix>3d</fix>
</trkpt>
<trkpt lat="33.8103132" lon="-118.3938671">
  <ele>-10.555</ele>
  <time>2026-09-01T01:13:39Z</time>
  <course>186.26</course>
  <speed>0.022360679774997897</speed>
  <fix>3d</fix>
</trkpt>
<trkpt lat="33.8103132" lon="-118.3938671">
  <ele>-10.598</ele>
  <time>2026-09-01T01:13:39Z</time>
  <course>186.26</course>
  <speed>0.022360679774997897</speed>
  <fix>3d</fix>
</trkpt>
<trkpt lat="33.810313" lon="-118.393867">
  <ele>-10.15</ele>
  <time>2026-09-01T01:13:39Z</time>
  <course>0.0</course>
  <speed>0.0</speed>
  <fix>3d</fix>
</trkpt>
<trkpt lat="33.8103132" lon="-118.3938671">
  <ele>-10.617</ele>
  <time>2026-09-01T01:13:39Z</time>
  <course>186.26</course>
  <speed>0.022360679774997897</speed>
  <fix>3d</fix>
</trkpt>
<trkpt lat="33.8103132" lon="-118.3938671">
  <ele>-10.66</ele>
  <time>2026-09-01T01:13:39Z</time>
  <course>186.27</course>
  <speed>0.022360679774997897</speed>
  <fix>3d</fix>
</trkpt>
<trkpt lat="33.810313" lon="-118.393867">
  <ele>-10.27</ele>
  <time>2026-09-01T01:13:39Z</time>
  <course>0.0</course>
  <speed>0.0</speed>
  <fix>3d</fix>
</trkpt>
<trkpt lat="33.8103132" lon="-118.3938671">
  <ele>-10.661</ele>
  <time>2026-09-01T01:13:39Z</time>
  <course>186.27</course>
  <speed>0.022360679774997897</speed>
  <fix>3d</fix>
</trkpt>
<trkpt lat="33.8103132" lon="-118.3938671">
  <ele>-10.721</ele>
  <time>2026-09-01T01:13:39Z</time>
  <course>186.27</course>
  <speed>0.022360679774997897</speed>
  <fix>3d</fix>
</trkpt>
<trkpt lat="33.810313" lon="-118.393867">
  <ele>-10.27</ele>
  <time>2026-09-01T01:13:39Z</time>
  <course>0.0</course>
  <speed>0.0</speed>
  <fix>3d</fix>
</trkpt>
<trkpt lat="33.8103132" lon="-118.3938671">
  <ele>-10.722</ele>
  <time>2026-09-01T01:13:39Z</time>
  <course>186.27</course>
  <speed>0.022360679774997897</speed>
  <fix>3d</fix>
</trkpt>
<trkpt lat="33.8103132" lon="-118.3938671">
  <ele>-10.782</ele>
  <time>2026-09-01T01:13:39Z</time>
  <course>186.28</course>
  <speed>0.022360679774997897</speed>
  <fix>3d</fix>
</trkpt>
<trkpt lat="33.810313" lon="-118.393867">
  <ele>-10.38</ele>
  <time>2026-09-01T01:13:39Z</time>
  <course>0.0</course>
  <speed>0.0</speed>
  <fix>3d</fix>
</trkpt>
<trkpt lat="33.8103132" lon="-118.3938671">
  <ele>-10.784</ele>
  <time>2026-09-01T01:13:39Z</time>
  <course>186.28</course>
  <speed>0.022360679774997897</speed>
  <fix>3d</fix>
</trkpt>
<trkpt lat="33.8103132" lon="-118.3938671">
  <ele>-10.844</ele>
  <time>2026-09-01T01:13:39Z</time>
  <course>186.28</course>
  <speed>0.022360679774997897</speed>
  <fix>3d</fix>
</trkpt>
<trkpt lat="33.810313" lon="-118.393867">
  <ele>-10.38</ele>
  <time>2026-09-01T01:13:39Z</time>
  <course>0.0</course>
  <speed>0.0</speed>
  <fix>3d</fix>
</trkpt>
<trkpt lat="33.8103132" lon="-118.3938671">
  <ele>-10.864</ele>
  <time>2026-09-01T01:13:39Z</time>
  <course>186.28</course>
  <speed>0.022360679774997897</speed>
  <fix>3d</fix>
</trkpt>
<trkpt lat="33.8103132" lon="-118.3938671">
  <ele>-10.905</ele>
  <time>2026-09-01T01:13:39Z</time>
  <course>186.29</course>
  <speed>0.022360679774997897</speed>
  <fix>3d</fix>
</trkpt>
<trkpt lat="33.810313" lon="-118.393867">
  <ele>-10.51</ele>
  <time>2026-09-01T01:13:39Z</time>
  <course>0.0</course>
  <speed>0.0</speed>
  <fix>3d</fix>
</trkpt>
<trkpt lat="33.8103132" lon="-118.3938671">
  <ele>-10.925</ele>
  <time>2026-09-01T01:13:39Z</time>
  <course>186.29</course>
  <speed>0.022360679774997897</speed>
  <fix>3d</fix>
</trkpt>
<trkpt lat="33.8103132" lon="-118.3938671">
  <ele>-10.966</ele>
  <time>2026-09-01T01:13:39Z</time>
  <course>186.29</course>
  <speed>0.022360679774997897</speed>
  <fix>3d</fix>
</trkpt>
<trkpt lat="33.810313" lon="-118.393867">
  <ele>-10.51</ele>
  <time>2026-09-01T01:13:39Z</time>
  <course>0.0</course>
  <speed>0.0</speed>
  <fix>3d</fix>
</trkpt>
<trkpt lat="33.8103132" lon="-118.3938671">
  <ele>-10.986</ele>
  <time>2026-09-01T01:13:39Z</time>
  <course>186.29</course>
  <speed>0.022360679774997897</speed>
  <fix>3d</fix>
</trkpt>
<trkpt lat="33.8103132" lon="-118.3938671">
  <ele>-11.028</ele>
  <time>2026-09-01T01:13:39Z</time>
  <course>186.3</course>
  <speed>0.022360679774997897</speed>
  <fix>3d</fix>
</trkpt>
<trkpt lat="33.810313" lon="-118.393867">
  <ele>-10.62</ele>
  <time>2026-09-01T01:13:39Z</time>
  <course>0.0</course>
  <speed>0.0</speed>
  <fix>3d</fix>
</trkpt>
<trkpt lat="33.8103132" lon="-118.3938671">
  <ele>-11.048</ele>
  <time>2026-09-01T01:13:39Z</time>
  <course>186.3</course>
  <speed>0.022360679774997897</speed>
  <fix>3d</fix>
</trkpt>
<trkpt lat="33.8103132" lon="-118.3938671">
  <ele>-11.089</ele>
  <time>2026-09-01T01:13:39Z</time>
  <course>186.3</course>
  <speed>0.022360679774997897</speed>
  <fix>3d</fix>
</trkpt>
<trkpt lat="33.810313" lon="-118.393867">
  <ele>-10.62</ele>
  <time>2026-09-01T01:13:39Z</time>
  <course>0.0</course>
  <speed>0.0</speed>
  <fix>3d</fix>
</trkpt>
<trkpt lat="33.8103132" lon="-118.3938671">
  <ele>-11.109</ele>
  <time>2026-09-01T01:13:39Z</time>
  <course>186.3</course>
  <speed>0.022360679774997897</speed>
  <fix>3d</fix>
</trkpt>
<trkpt lat="33.8103132" lon="-118.3938671">
  <ele>-11.149</ele>
  <time>2026-09-01T01:13:39Z</time>
  <course>186.31</course>
  <speed>0.022360679774997897</speed>
  <fix>3d</fix>
</trkpt>
<trkpt lat="33.810313" lon="-118.393867">
  <ele>-10.75</ele>
  <time>2026-09-01T01:13:39Z</time>
  <course>0.0</course>
  <speed>0.0</speed>
  <fix>3d</fix>
</trkpt>
<trkpt lat="33.8103132" lon="-118.3938671">
  <ele>-11.168</ele>
  <time>2026-09-01T01:13:39Z</time>
  <course>186.31</course>
  <speed>0.022360679774997897</speed>
  <fix>3d</fix>
</trkpt>
<trkpt lat="33.8103132" lon="-118.3938671">
  <ele>-11.211</ele>
  <time>2026-09-01T01:13:39Z</time>
  <course>186.31</course>
  <speed>0.022360679774997897</speed>
  <fix>3d</fix>
</trkpt>
<trkpt lat="33.810313" lon="-118.393867">
  <ele>-10.75</ele>
  <time>2026-09-01T01:13:39Z</time>
  <course>0.0</course>
  <speed>0.0</speed>
  <fix>3d</fix>
</trkpt>
<trkpt lat="33.8103132" lon="-118.3938671">
  <ele>-11.229</ele>
  <time>2026-09-01T01:13:39Z</time>
  <course>186.31</course>
  <speed>0.022360679774997897</speed>
  <fix>3d</fix>
</trkpt>
<trkpt lat="33.8103132" lon="-118.3938671">
  <ele>-11.272</ele>
  <time>2026-09-01T01:13:39Z</time>
  <course>186.32</course>
  <speed>0.022360679774997897</speed>
  <fix>3d</fix>
</trkpt>
<trkpt lat="33.810313" lon="-118.393867">
  <ele>-10.87</ele>
  <time>2026-09-01T01:13:39Z</time>
  <course>0.0</course>
  <speed>0.0</speed>
  <fix>3d</fix>
</trkpt>
<trkpt lat="33.8103132" lon="-118.3938671">
  <ele>-11.292</ele>
  <time>2026-09-01T01:13:39Z</time>
  <course>186.32</course>
  <speed>0.022360679774997897</speed>
  <fix>3d</fix>
</trkpt>
<trkpt lat="33.8103132" lon="-118.3938671">
  <ele>-11.334</ele>
  <time>2026-09-01T01:13:39Z</time>
  <course>186.32</course>
  <speed>0.022360679774997897</speed>
  <fix>3d</fix>
</trkpt>
<trkpt lat="33.810313" lon="-118.393867">
  <ele>-10.87</ele>
  <time>2026-09-01T01:13:39Z</time>
  <course>0.0</course>
  <speed>0.0</speed>
  <fix>3d</fix>
</trkpt>
<trkpt lat="33.8103132" lon="-118.3938671">
  <ele>-11.354</ele>
  <time>2026-09-01T01:13:39Z</time>
  <course>186.32</course>
  <speed>0.022360679774997897</speed>
  <fix>3d</fix>
</trkpt>
<trkpt lat="33.8103132" lon="-118.3938671">
  <ele>-11.397</ele>
  <time>2026-09-01T01:13:39Z</time>
  <course>186.32</course>
  <speed>0.022360679774997897</speed>
  <fix>3d</fix>
</trkpt>
<trkpt lat="33.810313" lon="-118.393867">
  <ele>-10.99</ele>
  <time>2026-09-01T01:13:39Z</time>
  <course>0.0</course>
  <speed>0.0</speed>
  <fix>3d</fix>
</trkpt>
<trkpt lat="33.8103132" lon="-118.3938671">
  <ele>-11.398</ele>
  <time>2026-09-01T01:13:39Z</time>
  <course>186.32</course>
  <speed>0.022360679774997897</speed>
  <fix>3d</fix>
</trkpt>
<trkpt lat="33.8103132" lon="-118.3938671">
  <ele>-11.46</ele>
  <time>2026-09-01T01:13:39Z</time>
  <course>186.33</course>
  <speed>0.022360679774997897</speed>
  <fix>3d</fix>
</trkpt>
<trkpt lat="33.810313" lon="-118.393867">
  <ele>-10.99</ele>
  <time>2026-09-01T01:13:39Z</time>
  <course>0.0</course>
  <speed>0.0</speed>
  <fix>3d</fix>
</trkpt>
<trkpt lat="33.8103132" lon="-118.3938671">
  <ele>-11.481</ele>
  <time>2026-09-01T01:13:39Z</time>
  <course>186.33</course>
  <speed>0.022360679774997897</speed>
  <fix>3d</fix>
</trkpt>
<trkpt lat="33.8103132" lon="-118.3938671">
  <ele>-11.523</ele>
  <time>2026-09-01T01:13:39Z</time>
  <course>186.33</course>
  <speed>0.022360679774997897</speed>
  <fix>3d</fix>
</trkpt>
<trkpt lat="33.810313" lon="-118.393867">
  <ele>-11.11</ele>
  <time>2026-09-01T01:13:39Z</time>
  <course>0.0</course>
  <speed>0.0</speed>
  <fix>3d</fix>
</trkpt>
<trkpt lat="33.8103132" lon="-118.3938671">
  <ele>-11.544</ele>
  <time>2026-09-01T01:13:39Z</time>
  <course>186.33</course>
  <speed>0.022360679774997897</speed>
  <fix>3d</fix>
</trkpt>
<trkpt lat="33.8103132" lon="-118.3938671">
  <ele>-11.586</ele>
  <time>2026-09-01T01:13:39Z</time>
  <course>186.34</course>
  <speed>0.022360679774997897</speed>
  <fix>3d</fix>
</trkpt>
<trkpt lat="33.810313" lon="-118.393867">
  <ele>-11.11</ele>
  <time>2026-09-01T01:13:39Z</time>
  <course>0.0</course>
  <speed>0.0</speed>
  <fix>3d</fix>
</trkpt>
<trkpt lat="33.8103132" lon="-118.3938671">
  <ele>-11.606</ele>
  <time>2026-09-01T01:13:39Z</time>
  <course>186.34</course>
  <speed>0.022360679774997897</speed>
  <fix>3d</fix>
</trkpt>
<trkpt lat="33.8103132" lon="-118.3938671">
  <ele>-11.649</ele>
  <time>2026-09-01T01:13:39Z</time>
  <course>186.34</course>
  <speed>0.022360679774997897</speed>
  <fix>3d</fix>
</trkpt>
<trkpt lat="33.810313" lon="-118.393867">
  <ele>-11.23</ele>
  <time>2026-09-01T01:13:39Z</time>
  <course>0.0</course>
  <speed>0.0</speed>
  <fix>3d</fix>
</trkpt>
<trkpt lat="33.8103132" lon="-118.3938671">
  <ele>-11.669</ele>
  <time>2026-09-01T01:13:39Z</time>
  <course>186.34</course>
  <speed>0.022360679774997897</speed>
  <fix>3d</fix>
</trkpt>
<trkpt lat="33.8103132" lon="-118.3938671">
  <ele>-11.711</ele>
  <time>2026-09-01T01:13:39Z</time>
  <course>186.34</course>
  <speed>0.022360679774997897</speed>
  <fix>3d</fix>
</trkpt>
<trkpt lat="33.810313" lon="-118.393867">
  <ele>-11.23</ele>
  <time>2026-09-01T01:13:39Z</time>
  <course>0.0</course>
  <speed>0.0</speed>
  <fix>3d</fix>
</trkpt>
<trkpt lat="33.8103132" lon="-118.3938671">
  <ele>-11.731</ele>
  <time>2026-09-01T01:13:39Z</time>
  <course>186.34</course>
  <speed>0.022360679774997897</speed>
  <fix>3d</fix>
</trkpt>
<trkpt lat="33.8103132" lon="-118.3938671">
  <ele>-11.774</ele>
  <time>2026-09-01T01:13:39Z</time>
  <course>186.35</course>
  <speed>0.022360679774997897</speed>
  <fix>3d</fix>
</trkpt>
<trkpt lat="33.810313" lon="-118.393867">
  <ele>-11.35</ele>
  <time>2026-09-01T01:13:39Z</time>
  <course>0.0</course>
  <speed>0.0</speed>
  <fix>3d</fix>
</trkpt>
<trkpt lat="33.8103132" lon="-118.3938671">
  <ele>-11.794</ele>
  <time>2026-09-01T01:13:39Z</time>
  <course>186.35</course>
  <speed>0.022360679774997897</speed>
  <fix>3d</fix>
</trkpt>
<trkpt lat="33.8103132" lon="-118.3938671">
  <ele>-11.837</ele>
  <time>2026-09-01T01:13:39Z</time>
  <course>186.35</course>
  <speed>0.022360679774997897</speed>
  <fix>3d</fix>
</trkpt>
<trkpt lat="33.810313" lon="-118.393867">
  <ele>-11.35</ele>
  <time>2026-09-01T01:13:39Z</time>
  <course>0.0</course>
  <speed>0.0</speed>
  <fix>3d</fix>
</trkpt>
<trkpt lat="33.8103132" lon="-118.3938671">
  <ele>-11.852</ele>
  <time>2026-09-01T01:13:39Z</time>
  <course>186.35</course>
  <speed>0.022360679774997897</speed>
  <fix>3d</fix>
</trkpt>
<trkpt lat="33.8103132" lon="-118.3938671">
  <ele>-11.899</ele>
  <time>2026-09-01T01:13:39Z</time>
  <course>186.35</course>
  <speed>0.022360679774997897</speed>
  <fix>3d</fix>
</trkpt>
<trkpt lat="33.810313" lon="-118.393867">
  <ele>-11.46</ele>
  <time>2026-09-01T01:13:39Z</time>
  <course>0.0</course>
  <speed>0.0</speed>
  <fix>3d</fix>
</trkpt>
<trkpt lat="33.8103132" lon="-118.3938671">
  <ele>-11.915</ele>
  <time>2026-09-01T01:13:39Z</time>
  <course>186.36</course>
  <speed>0.022360679774997897</speed>
  <fix>3d</fix>
</trkpt>
<trkpt lat="33.8103132" lon="-118.3938671">
  <ele>-11.96</ele>
  <time>2026-09-01T01:13:39Z</time>
  <course>186.36</course>
  <speed>0.022360679774997897</speed>
  <fix>3d</fix>
</trkpt>
<trkpt lat="33.810313" lon="-118.393867">
  <ele>-11.46</ele>
  <time>2026-09-01T01:13:39Z</time>
  <course>0.0</course>
  <speed>0.0</speed>
  <fix>3d</fix>
</trkpt>
<trkpt lat="33.8103132" lon="-118.3938671">
  <ele>-11.961</ele>
  <time>2026-09-01T01:13:39Z</time>
  <course>186.36</course>
  <speed>0.022360679774997897</speed>
  <fix>3d</fix>
</trkpt>
<trkpt lat="33.8103132" lon="-118.3938671">
  <ele>-12.021</ele>
  <time>2026-09-01T01:13:39Z</time>
  <course>186.36</course>
  <speed>0.022360679774997897</speed>
  <fix>3d</fix>
</trkpt>
<trkpt lat="33.810313" lon="-118.393867">
  <ele>-11.59</ele>
  <time>2026-09-01T01:13:39Z</time>
  <course>0.0</course>
  <speed>0.0</speed>
  <fix>3d</fix>
</trkpt>
<trkpt lat="33.8103132" lon="-118.3938671">
  <ele>-12.036</ele>
  <time>2026-09-01T01:13:39Z</time>
  <course>186.36</course>
  <speed>0.022360679774997897</speed>
  <fix>3d</fix>
</trkpt>
<trkpt lat="33.8103132" lon="-118.3938671">
  <ele>-12.082</ele>
  <time>2026-09-01T01:13:39Z</time>
  <course>186.36</course>
  <speed>0.022360679774997897</speed>
  <fix>3d</fix>
</trkpt>
<trkpt lat="33.810313" lon="-118.393867">
  <ele>-11.59</ele>
  <time>2026-09-01T01:13:39Z</time>
  <course>0.0</course>
  <speed>0.0</speed>
  <fix>3d</fix>
</trkpt>
<trkpt lat="33.8103132" lon="-118.3938671">
  <ele>-12.083</ele>
  <time>2026-09-01T01:13:39Z</time>
  <course>186.36</course>
  <speed>0.022360679774997897</speed>
  <fix>3d</fix>
</trkpt>
<trkpt lat="33.8103132" lon="-118.3938671">
  <ele>-12.142</ele>
  <time>2026-09-01T01:13:39Z</time>
  <course>186.37</course>
  <speed>0.022360679774997897</speed>
  <fix>3d</fix>
</trkpt>
<trkpt lat="33.810313" lon="-118.393867">
  <ele>-11.71</ele>
  <time>2026-09-01T01:13:39Z</time>
  <course>0.0</course>
  <speed>0.0</speed>
  <fix>3d</fix>
</trkpt>
<trkpt lat="33.8103132" lon="-118.3938671">
  <ele>-12.155</ele>
  <time>2026-09-01T01:13:39Z</time>
  <course>186.37</course>
  <speed>0.022360679774997897</speed>
  <fix>3d</fix>
</trkpt>
<trkpt lat="33.8103132" lon="-118.3938671">
  <ele>-12.202</ele>
  <time>2026-09-01T01:13:39Z</time>
  <course>186.37</course>
  <speed>0.022360679774997897</speed>
  <fix>3d</fix>
</trkpt>
<trkpt lat="33.810313" lon="-118.393867">
  <ele>-11.71</ele>
  <time>2026-09-01T01:13:39Z</time>
  <course>0.0</course>
  <speed>0.0</speed>
  <fix>3d</fix>
</trkpt>
<trkpt lat="33.8103132" lon="-118.3938671">
  <ele>-12.218</ele>
  <time>2026-09-01T01:13:39Z</time>
  <course>186.37</course>
  <speed>0.022360679774997897</speed>
  <fix>3d</fix>
</trkpt>
<trkpt lat="33.8103132" lon="-118.3938671">
  <ele>-12.263</ele>
  <time>2026-09-01T01:13:39Z</time>
  <course>186.37</course>
  <speed>0.022360679774997897</speed>
  <fix>3d</fix>
</trkpt>
<trkpt lat="33.810313" lon="-118.393867">
  <ele>-11.83</ele>
  <time>2026-09-01T01:13:39Z</time>
  <course>0.0</course>
  <speed>0.0</speed>
  <fix>3d</fix>
</trkpt>
<trkpt lat="33.8103132" lon="-118.3938671">
  <ele>-12.265</ele>
  <time>2026-09-01T01:13:39Z</time>
  <course>186.37</course>
  <speed>0.022360679774997897</speed>
  <fix>3d</fix>
</trkpt>
<trkpt lat="33.8103132" lon="-118.3938671">
  <ele>-12.324</ele>
  <time>2026-09-01T01:13:39Z</time>
  <course>186.38</course>
  <speed>0.022360679774997897</speed>
  <fix>3d</fix>
</trkpt>
<trkpt lat="33.810313" lon="-118.393867">
  <ele>-11.83</ele>
  <time>2026-09-01T01:13:39Z</time>
  <course>0.0</course>
  <speed>0.0</speed>
  <fix>3d</fix>
</trkpt>
<trkpt lat="33.8103132" lon="-118.3938671">
  <ele>-12.34</ele>
  <time>2026-09-01T01:13:39Z</time>
  <course>186.38</course>
  <speed>0.022360679774997897</speed>
  <fix>3d</fix>
</trkpt>
<trkpt lat="33.8103132" lon="-118.3938671">
  <ele>-12.386</ele>
  <time>2026-09-01T01:13:39Z</time>
  <course>186.38</course>
  <speed>0.022360679774997897</speed>
  <fix>3d</fix>
</trkpt>
<trkpt lat="33.810313" lon="-118.393867">
  <ele>-11.96</ele>
  <time>2026-09-01T01:13:39Z</time>
  <course>0.0</course>
  <speed>0.0</speed>
  <fix>3d</fix>
</trkpt>
<trkpt lat="33.8103132" lon="-118.3938671">
  <ele>-12.4</ele>
  <time>2026-09-01T01:13:39Z</time>
  <course>186.38</course>
  <speed>0.022360679774997897</speed>
  <fix>3d</fix>
</trkpt>
<trkpt lat="33.8103132" lon="-118.3938671">
  <ele>-12.447</ele>
  <time>2026-09-01T01:13:39Z</time>
  <course>186.38</course>
  <speed>0.022360679774997897</speed>
  <fix>3d</fix>
</trkpt>
<trkpt lat="33.810313" lon="-118.393867">
  <ele>-11.96</ele>
  <time>2026-09-01T01:13:39Z</time>
  <course>0.0</course>
  <speed>0.0</speed>
  <fix>3d</fix>
</trkpt>
<trkpt lat="33.8103132" lon="-118.3938671">
  <ele>-12.461</ele>
  <time>2026-09-01T01:13:39Z</time>
  <course>186.38</course>
  <speed>0.022360679774997897</speed>
  <fix>3d</fix>
</trkpt>
<trkpt lat="33.8103132" lon="-118.3938671">
  <ele>-12.508</ele>
  <time>2026-09-01T01:13:39Z</time>
  <course>186.39</course>
  <speed>0.022360679774997897</speed>
  <fix>3d</fix>
</trkpt>
<trkpt lat="33.810313" lon="-118.393867">
  <ele>-12.08</ele>
  <time>2026-09-01T01:13:39Z</time>
  <course>0.0</course>
  <speed>0.0</speed>
  <fix>3d</fix>
</trkpt>
<trkpt lat="33.8103132" lon="-118.3938671">
  <ele>-12.522</ele>
  <time>2026-09-01T01:13:39Z</time>
  <course>186.39</course>
  <speed>0.022360679774997897</speed>
  <fix>3d</fix>
</trkpt>
<trkpt lat="33.8103132" lon="-118.3938671">
  <ele>-12.57</ele>
  <time>2026-09-01T01:13:39Z</time>
  <course>186.39</course>
  <speed>0.022360679774997897</speed>
  <fix>3d</fix>
</trkpt>
<trkpt lat="33.810313" lon="-118.393867">
  <ele>-12.08</ele>
  <time>2026-09-01T01:13:39Z</time>
  <course>0.0</course>
  <speed>0.0</speed>
  <fix>3d</fix>
</trkpt>
<trkpt lat="33.8103132" lon="-118.3938671">
  <ele>-12.571</ele>
  <time>2026-09-01T01:13:39Z</time>
  <course>186.39</course>
  <speed>0.022360679774997897</speed>
  <fix>3d</fix>
</trkpt>
<trkpt lat="33.8103132" lon="-118.3938671">
  <ele>-12.631</ele>
  <time>2026-09-01T01:13:39Z</time>
  <course>186.39</course>
  <speed>0.022360679774997897</speed>
  <fix>3d</fix>
</trkpt>
<trkpt lat="33.810313" lon="-118.393867">
  <ele>-12.2</ele>
  <time>2026-09-01T01:13:39Z</time>
  <course>0.0</course>
  <speed>0.0</speed>
  <fix>3d</fix>
</trkpt>
<trkpt lat="33.8103132" lon="-118.3938671">
  <ele>-12.645</ele>
  <time>2026-09-01T01:13:39Z</time>
  <course>186.39</course>
  <speed>0.022360679774997897</speed>
  <fix>3d</fix>
</trkpt>
<trkpt lat="33.8103132" lon="-118.3938671">
  <ele>-12.692</ele>
  <time>2026-09-01T01:13:39Z</time>
  <course>186.39</course>
  <speed>0.022360679774997897</speed>
  <fix>3d</fix>
</trkpt>
<trkpt lat="33.810313" lon="-118.393867">
  <ele>-12.2</ele>
  <time>2026-09-01T01:13:39Z</time>
  <course>0.0</course>
  <speed>0.0</speed>
  <fix>3d</fix>
</trkpt>
<trkpt lat="33.8103132" lon="-118.3938671">
  <ele>-12.694</ele>
  <time>2026-09-01T01:13:39Z</time>
  <course>186.39</course>
  <speed>0.022360679774997897</speed>
  <fix>3d</fix>
</trkpt>
<trkpt lat="33.8103132" lon="-118.3938671">
  <ele>-12.753</ele>
  <time>2026-09-01T01:13:39Z</time>
  <course>186.4</course>
  <speed>0.022360679774997897</speed>
  <fix>3d</fix>
</trkpt>
<trkpt lat="33.810313" lon="-118.393867">
  <ele>-12.32</ele>
  <time>2026-09-01T01:13:39Z</time>
  <course>0.0</course>
  <speed>0.0</speed>
  <fix>3d</fix>
</trkpt>
<trkpt lat="33.8103132" lon="-118.3938671">
  <ele>-12.766</ele>
  <time>2026-09-01T01:13:39Z</time>
  <course>186.4</course>
  <speed>0.022360679774997897</speed>
  <fix>3d</fix>
</trkpt>
<trkpt lat="33.8103132" lon="-118.3938671">
  <ele>-12.813</ele>
  <time>2026-09-01T01:13:39Z</time>
  <course>186.4</course>
  <speed>0.022360679774997897</speed>
  <fix>3d</fix>
</trkpt>
<trkpt lat="33.810313" lon="-118.393867">
  <ele>-12.32</ele>
  <time>2026-09-01T01:13:39Z</time>
  <course>0.0</course>
  <speed>0.0</speed>
  <fix>3d</fix>
</trkpt>
<trkpt lat="33.8103132" lon="-118.3938671">
  <ele>-12.828</ele>
  <time>2026-09-01T01:13:39Z</time>
  <course>186.4</course>
  <speed>0.022360679774997897</speed>
  <fix>3d</fix>
</trkpt>
<trkpt lat="33.8103132" lon="-118.3938671">
  <ele>-12.872</ele>
  <time>2026-09-01T01:13:39Z</time>
  <course>186.4</course>
  <speed>0.022360679774997897</speed>
  <fix>3d</fix>
</trkpt>
<trkpt lat="33.810313" lon="-118.393867">
  <ele>-12.44</ele>
  <time>2026-09-01T01:13:39Z</time>
  <course>0.0</course>
  <speed>0.0</speed>
  <fix>3d</fix>
</trkpt>
<trkpt lat="33.8103132" lon="-118.3938671">
  <ele>-12.874</ele>
  <time>2026-09-01T01:13:39Z</time>
  <course>186.4</course>
  <speed>0.022360679774997897</speed>
  <fix>3d</fix>
</trkpt>
<trkpt lat="33.8103132" lon="-118.3938671">
  <ele>-12.932</ele>
  <time>2026-09-01T01:13:39Z</time>
  <course>186.4</course>
  <speed>0.022360679774997897</speed>
  <fix>3d</fix>
</trkpt>
<trkpt lat="33.810313" lon="-118.393867">
  <ele>-12.44</ele>
  <time>2026-09-01T01:13:39Z</time>
  <course>0.0</course>
  <speed>0.0</speed>
  <fix>3d</fix>
</trkpt>
<trkpt lat="33.8103132" lon="-118.3938671">
  <ele>-12.934</ele>
  <time>2026-09-01T01:13:39Z</time>
  <course>186.4</course>
  <speed>0.022360679774997897</speed>
  <fix>3d</fix>
</trkpt>
<trkpt lat="33.8103132" lon="-118.3938671">
  <ele>-12.992</ele>
  <time>2026-09-01T01:13:39Z</time>
  <course>186.41</course>
  <speed>0.022360679774997897</speed>
  <fix>3d</fix>
</trkpt>
<trkpt lat="33.810313" lon="-118.393867">
  <ele>-12.55</ele>
  <time>2026-09-01T01:13:39Z</time>
  <course>0.0</course>
  <speed>0.0</speed>
  <fix>3d</fix>
</trkpt>
<trkpt lat="33.8103132" lon="-118.3938671">
  <ele>-12.993</ele>
  <time>2026-09-01T01:13:39Z</time>
  <course>186.41</course>
  <speed>0.022360679774997897</speed>
  <fix>3d</fix>
</trkpt>
<trkpt lat="33.8103132" lon="-118.3938671">
  <ele>-13.052</ele>
  <time>2026-09-01T01:13:39Z</time>
  <course>186.41</course>
  <speed>0.022360679774997897</speed>
  <fix>3d</fix>
</trkpt>
<trkpt lat="33.810313" lon="-118.393867">
  <ele>-12.55</ele>
  <time>2026-09-01T01:13:39Z</time>
  <course>0.0</course>
  <speed>0.0</speed>
  <fix>3d</fix>
</trkpt>
<trkpt lat="33.8103132" lon="-118.3938671">
  <ele>-13.065</ele>
  <time>2026-09-01T01:13:39Z</time>
  <course>186.41</course>
  <speed>0.022360679774997897</speed>
  <fix>3d</fix>
</trkpt>
<trkpt lat="33.8103132" lon="-118.3938671">
  <ele>-13.112</ele>
  <time>2026-09-01T01:13:39Z</time>
  <course>186.41</course>
  <speed>0.022360679774997897</speed>
  <fix>3d</fix>
</trkpt>
<trkpt lat="33.810313" lon="-118.393867">
  <ele>-12.68</ele>
  <time>2026-09-01T01:13:39Z</time>
  <course>0.0</course>
  <speed>0.0</speed>
  <fix>3d</fix>
</trkpt>
<trkpt lat="33.8103132" lon="-118.3938671">
  <ele>-13.124</ele>
  <time>2026-09-01T01:13:39Z</time>
  <course>186.41</course>
  <speed>0.022360679774997897</speed>
  <fix>3d</fix>
</trkpt>
<trkpt lat="33.8103132" lon="-118.3938671">
  <ele>-13.171</ele>
  <time>2026-09-01T01:13:39Z</time>
  <course>186.41</course>
  <speed>0.022360679774997897</speed>
  <fix>3d</fix>
</trkpt>
<trkpt lat="33.810313" lon="-118.393867">
  <ele>-12.68</ele>
  <time>2026-09-01T01:13:39Z</time>
  <course>0.0</course>
  <speed>0.0</speed>
  <fix>3d</fix>
</trkpt>
<trkpt lat="33.8103132" lon="-118.3938671">
  <ele>-13.184</ele>
  <time>2026-09-01T01:13:39Z</time>
  <course>186.41</course>
  <speed>0.022360679774997897</speed>
  <fix>3d</fix>
</trkpt>
<trkpt lat="33.8103132" lon="-118.3938671">
  <ele>-13.231</ele>
  <time>2026-09-01T01:13:39Z</time>
  <course>186.41</course>
  <speed>0.022360679774997897</speed>
  <fix>3d</fix>
</trkpt>
<trkpt lat="33.810313" lon="-118.393867">
  <ele>-12.79</ele>
  <time>2026-09-01T01:13:39Z</time>
  <course>0.0</course>
  <speed>0.0</speed>
  <fix>3d</fix>
</trkpt>
<trkpt lat="33.8103132" lon="-118.3938671">
  <ele>-13.245</ele>
  <time>2026-09-01T01:13:39Z</time>
  <course>186.42</course>
  <speed>0.022360679774997897</speed>
  <fix>3d</fix>
</trkpt>
<trkpt lat="33.8103132" lon="-118.3938671">
  <ele>-13.291</ele>
  <time>2026-09-01T01:13:39Z</time>
  <course>186.42</course>
  <speed>0.022360679774997897</speed>
  <fix>3d</fix>
</trkpt>
<trkpt lat="33.810313" lon="-118.393867">
  <ele>-12.79</ele>
  <time>2026-09-01T01:13:39Z</time>
  <course>0.0</course>
  <speed>0.0</speed>
  <fix>3d</fix>
</trkpt>
<trkpt lat="33.8103132" lon="-118.3938671">
  <ele>-13.305</ele>
  <time>2026-09-01T01:13:39Z</time>
  <course>186.42</course>
  <speed>0.022360679774997897</speed>
  <fix>3d</fix>
</trkpt>
<trkpt lat="33.8103132" lon="-118.3938671">
  <ele>-13.351</ele>
  <time>2026-09-01T01:13:39Z</time>
  <course>186.42</course>
  <speed>0.022360679774997897</speed>
  <fix>3d</fix>
</trkpt>
<trkpt lat="33.810313" lon="-118.393867">
  <ele>-12.92</ele>
  <time>2026-09-01T01:13:39Z</time>
  <course>0.0</course>
  <speed>0.0</speed>
  <fix>3d</fix>
</trkpt>
<trkpt lat="33.8103132" lon="-118.3938671">
  <ele>-13.353</ele>
  <time>2026-09-01T01:13:39Z</time>
  <course>186.42</course>
  <speed>0.022360679774997897</speed>
  <fix>3d</fix>
</trkpt>
<trkpt lat="33.8103132" lon="-118.3938671">
  <ele>-13.412</ele>
  <time>2026-09-01T01:13:39Z</time>
  <course>186.42</course>
  <speed>0.022360679774997897</speed>
  <fix>3d</fix>
</trkpt>
<trkpt lat="33.810313" lon="-118.393867">
  <ele>-12.92</ele>
  <time>2026-09-01T01:13:39Z</time>
  <course>0.0</course>
  <speed>0.0</speed>
  <fix>3d</fix>
</trkpt>
<trkpt lat="33.8103132" lon="-118.3938671">
  <ele>-13.426</ele>
  <time>2026-09-01T01:13:39Z</time>
  <course>186.42</course>
  <speed>0.022360679774997897</speed>
  <fix>3d</fix>
</trkpt>
<trkpt lat="33.8103132" lon="-118.3938671">
  <ele>-13.473</ele>
  <time>2026-09-01T01:13:39Z</time>
  <course>186.42</course>
  <speed>0.022360679774997897</speed>
  <fix>3d</fix>
</trkpt>
<trkpt lat="33.810313" lon="-118.393867">
  <ele>-13.04</ele>
  <time>2026-09-01T01:13:39Z</time>
  <course>0.0</course>
  <speed>0.0</speed>
  <fix>3d</fix>
</trkpt>
<trkpt lat="33.8103132" lon="-118.3938671">
  <ele>-13.487</ele>
  <time>2026-09-01T01:13:39Z</time>
  <course>186.42</course>
  <speed>0.022360679774997897</speed>
  <fix>3d</fix>
</trkpt>
<trkpt lat="33.8103132" lon="-118.3938671">
  <ele>-13.535</ele>
  <time>2026-09-01T01:13:39Z</time>
  <course>186.42</course>
  <speed>0.022360679774997897</speed>
  <fix>3d</fix>
</trkpt>
<trkpt lat="33.810313" lon="-118.393867">
  <ele>-13.04</ele>
  <time>2026-09-01T01:13:39Z</time>
  <course>0.0</course>
  <speed>0.0</speed>
  <fix>3d</fix>
</trkpt>
<trkpt lat="33.8103132" lon="-118.3938671">
  <ele>-13.549</ele>
  <time>2026-09-01T01:13:39Z</time>
  <course>186.42</course>
  <speed>0.022360679774997897</speed>
  <fix>3d</fix>
</trkpt>
<trkpt lat="33.8103132" lon="-118.3938671">
  <ele>-13.597</ele>
  <time>2026-09-01T01:13:39Z</time>
  <course>186.42</course>
  <speed>0.022360679774997897</speed>
  <fix>3d</fix>
</trkpt>
<trkpt lat="33.810313" lon="-118.393867">
  <ele>-13.16</ele>
  <time>2026-09-01T01:13:39Z</time>
  <course>0.0</course>
  <speed>0.0</speed>
  <fix>3d</fix>
</trkpt>
<trkpt lat="33.8103132" lon="-118.3938671">
  <ele>-13.612</ele>
  <time>2026-09-01T01:13:39Z</time>
  <course>186.43</course>
  <speed>0.022360679774997897</speed>
  <fix>3d</fix>
</trkpt>
<trkpt lat="33.8103132" lon="-118.3938671">
  <ele>-13.659</ele>
  <time>2026-09-01T01:13:39Z</time>
  <course>186.43</course>
  <speed>0.022360679774997897</speed>
  <fix>3d</fix>
</trkpt>
<trkpt lat="33.810313" lon="-118.393867">
  <ele>-13.16</ele>
  <time>2026-09-01T01:13:39Z</time>
  <course>0.0</course>
  <speed>0.0</speed>
  <fix>3d</fix>
</trkpt>
<trkpt lat="33.8103132" lon="-118.3938671">
  <ele>-13.677</ele>
  <time>2026-09-01T01:13:39Z</time>
  <course>186.43</course>
  <speed>0.022360679774997897</speed>
  <fix>3d</fix>
</trkpt>
<trkpt lat="33.8103132" lon="-118.3938671">
  <ele>-13.722</ele>
  <time>2026-09-01T01:13:39Z</time>
  <course>186.43</course>
  <speed>0.022360679774997897</speed>
  <fix>3d</fix>
</trkpt>
<trkpt lat="33.810313" lon="-118.393867">
  <ele>-13.28</ele>
  <time>2026-09-01T01:13:39Z</time>
  <course>0.0</course>
  <speed>0.0</speed>
  <fix>3d</fix>
</trkpt>
<trkpt lat="33.8103132" lon="-118.3938671">
  <ele>-13.736</ele>
  <time>2026-09-01T01:13:39Z</time>
  <course>186.43</course>
  <speed>0.022360679774997897</speed>
  <fix>3d</fix>
</trkpt>
<trkpt lat="33.8103132" lon="-118.3938671">
  <ele>-13.785</ele>
  <time>2026-09-01T01:13:39Z</time>
  <course>186.43</course>
  <speed>0.022360679774997897</speed>
  <fix>3d</fix>
</trkpt>
<trkpt lat="33.810313" lon="-118.393867">
  <ele>-13.28</ele>
  <time>2026-09-01T01:13:39Z</time>
  <course>0.0</course>
  <speed>0.0</speed>
  <fix>3d</fix>
</trkpt>
<trkpt lat="33.8103132" lon="-118.3938671">
  <ele>-13.799</ele>
  <time>2026-09-01T01:13:39Z</time>
  <course>186.43</course>
  <speed>0.022360679774997897</speed>
  <fix>3d</fix>
</trkpt>
<trkpt lat="33.8103132" lon="-118.3938671">
  <ele>-13.847</ele>
  <time>2026-09-01T01:13:39Z</time>
  <course>186.43</course>
  <speed>0.022360679774997897</speed>
  <fix>3d</fix>
</trkpt>
<trkpt lat="33.810313" lon="-118.393867">
  <ele>-13.4</ele>
  <time>2026-09-01T01:13:39Z</time>
  <course>0.0</course>
  <speed>0.0</speed>
  <fix>3d</fix>
</trkpt>
<trkpt lat="33.8103132" lon="-118.3938671">
  <ele>-13.863</ele>
  <time>2026-09-01T01:13:39Z</time>
  <course>186.43</course>
  <speed>0.022360679774997897</speed>
  <fix>3d</fix>
</trkpt>
<trkpt lat="33.8103132" lon="-118.3938671">
  <ele>-13.909</ele>
  <time>2026-09-01T01:13:39Z</time>
  <course>186.43</course>
  <speed>0.022360679774997897</speed>
  <fix>3d</fix>
</trkpt>
<trkpt lat="33.810313" lon="-118.393867">
  <ele>-13.4</ele>
  <time>2026-09-01T01:13:39Z</time>
  <course>0.0</course>
  <speed>0.0</speed>
  <fix>3d</fix>
</trkpt>
<trkpt lat="33.8103132" lon="-118.3938671">
  <ele>-13.923</ele>
  <time>2026-09-01T01:13:39Z</time>
  <course>186.43</course>
  <speed>0.022360679774997897</speed>
  <fix>3d</fix>
</trkpt>
<trkpt lat="33.8103132" lon="-118.3938671">
  <ele>-13.971</ele>
  <time>2026-09-01T01:13:39Z</time>
  <course>186.43</course>
  <speed>0.022360679774997897</speed>
  <fix>3d</fix>
</trkpt>
<trkpt lat="33.810313" lon="-118.393867">
  <ele>-13.52</ele>
  <time>2026-09-01T01:13:39Z</time>
  <course>0.0</course>
  <speed>0.0</speed>
  <fix>3d</fix>
</trkpt>
<trkpt lat="33.8103132" lon="-118.3938671">
  <ele>-13.973</ele>
  <time>2026-09-01T01:13:39Z</time>
  <course>186.43</course>
  <speed>0.022360679774997897</speed>
  <fix>3d</fix>
</trkpt>
<trkpt lat="33.8103132" lon="-118.3938671">
  <ele>-14.034</ele>
  <time>2026-09-01T01:13:39Z</time>
  <course>186.43</course>
  <speed>0.022360679774997897</speed>
  <fix>3d</fix>
</trkpt>
<trkpt lat="33.810313" lon="-118.393867">
  <ele>-13.52</ele>
  <time>2026-09-01T01:13:39Z</time>
  <course>0.0</course>
  <speed>0.0</speed>
  <fix>3d</fix>
</trkpt>
<trkpt lat="33.8103132" lon="-118.3938671">
  <ele>-14.05</ele>
  <time>2026-09-01T01:13:39Z</time>
  <course>186.43</course>
  <speed>0.022360679774997897</speed>
  <fix>3d</fix>
</trkpt>
<trkpt lat="33.8103132" lon="-118.3938671">
  <ele>-14.097</ele>
  <time>2026-09-01T01:13:39Z</time>
  <course>186.43</course>
  <speed>0.022360679774997897</speed>
  <fix>3d</fix>
</trkpt>
<trkpt lat="33.810313" lon="-118.393867">
  <ele>-13.65</ele>
  <time>2026-09-01T01:13:39Z</time>
  <course>0.0</course>
  <speed>0.0</speed>
  <fix>3d</fix>
</trkpt>
<trkpt lat="33.8103132" lon="-118.3938671">
  <ele>-14.111</ele>
  <time>2026-09-01T01:13:39Z</time>
  <course>186.43</course>
  <speed>0.022360679774997897</speed>
  <fix>3d</fix>
</trkpt>
<trkpt lat="33.8103132" lon="-118.3938671">
  <ele>-14.16</ele>
  <time>2026-09-01T01:13:39Z</time>
  <course>186.43</course>
  <speed>0.022360679774997897</speed>
  <fix>3d</fix>
</trkpt>
<trkpt lat="33.810313" lon="-118.393867">
  <ele>-13.65</ele>
  <time>2026-09-01T01:13:39Z</time>
  <course>0.0</course>
  <speed>0.0</speed>
  <fix>3d</fix>
</trkpt>
<trkpt lat="33.8103132" lon="-118.3938671">
  <ele>-14.174</ele>
  <time>2026-09-01T01:13:39Z</time>
  <course>186.44</course>
  <speed>0.022360679774997897</speed>
  <fix>3d</fix>
</trkpt>
<trkpt lat="33.8103132" lon="-118.3938671">
  <ele>-14.223</ele>
  <time>2026-09-01T01:13:39Z</time>
  <course>186.44</course>
  <speed>0.022360679774997897</speed>
  <fix>3d</fix>
</trkpt>
<trkpt lat="33.810313" lon="-118.393867">
  <ele>-13.77</ele>
  <time>2026-09-01T01:13:39Z</time>
  <course>0.0</course>
  <speed>0.0</speed>
  <fix>3d</fix>
</trkpt>
<trkpt lat="33.8103132" lon="-118.3938671">
  <ele>-14.246</ele>
  <time>2026-09-01T01:13:39Z</time>
  <course>186.44</course>
  <speed>0.022360679774997897</speed>
  <fix>3d</fix>
</trkpt>
<trkpt lat="33.8103132" lon="-118.3938671">
  <ele>-14.287</ele>
  <time>2026-09-01T01:13:39Z</time>
  <course>186.44</course>
  <speed>0.022360679774997897</speed>
  <fix>3d</fix>
</trkpt>
<trkpt lat="33.810313" lon="-118.393867">
  <ele>-13.77</ele>
  <time>2026-09-01T01:13:39Z</time>
  <course>0.0</course>
  <speed>0.0</speed>
  <fix>3d</fix>
</trkpt>
<trkpt lat="33.8103132" lon="-118.3938671">
  <ele>-14.307</ele>
  <time>2026-09-01T01:13:39Z</time>
  <course>186.44</course>
  <speed>0.022360679774997897</speed>
  <fix>3d</fix>
</trkpt>
<trkpt lat="33.8103132" lon="-118.3938671">
  <ele>-14.35</ele>
  <time>2026-09-01T01:13:39Z</time>
  <course>186.44</course>
  <speed>0.022360679774997897</speed>
  <fix>3d</fix>
</trkpt>
<trkpt lat="33.810313" lon="-118.393867">
  <ele>-13.88</ele>
  <time>2026-09-01T01:13:39Z</time>
  <course>0.0</course>
  <speed>0.0</speed>
  <fix>3d</fix>
</trkpt>
<trkpt lat="33.8103132" lon="-118.3938671">
  <ele>-14.37</ele>
  <time>2026-09-01T01:13:39Z</time>
  <course>186.44</course>
  <speed>0.022360679774997897</speed>
  <fix>3d</fix>
</trkpt>
<trkpt lat="33.8103132" lon="-118.3938671">
  <ele>-14.413</ele>
  <time>2026-09-01T01:13:39Z</time>
  <course>186.44</course>
  <speed>0.022360679774997897</speed>
  <fix>3d</fix>
</trkpt>
<trkpt lat="33.810313" lon="-118.393867">
  <ele>-13.88</ele>
  <time>2026-09-01T01:13:39Z</time>
  <course>0.0</course>
  <speed>0.0</speed>
  <fix>3d</fix>
</trkpt>
<trkpt lat="33.8103132" lon="-118.3938671">
  <ele>-14.414</ele>
  <time>2026-09-01T01:13:39Z</time>
  <course>186.44</course>
  <speed>0.022360679774997897</speed>
  <fix>3d</fix>
</trkpt>
<trkpt lat="33.8103132" lon="-118.3938671">
  <ele>-14.475</ele>
  <time>2026-09-01T01:13:39Z</time>
  <course>186.44</course>
  <speed>0.022360679774997897</speed>
  <fix>3d</fix>
</trkpt>
<trkpt lat="33.810313" lon="-118.393867">
  <ele>-14.01</ele>
  <time>2026-09-01T01:13:39Z</time>
  <course>0.0</course>
  <speed>0.0</speed>
  <fix>3d</fix>
</trkpt>
<trkpt lat="33.8103132" lon="-118.3938671">
  <ele>-14.476</ele>
  <time>2026-09-01T01:13:39Z</time>
  <course>186.44</course>
  <speed>0.022360679774997897</speed>
  <fix>3d</fix>
</trkpt>
<trkpt lat="33.8103132" lon="-118.3938671">
  <ele>-14.537</ele>
  <time>2026-09-01T01:13:39Z</time>
  <course>186.44</course>
  <speed>0.022360679774997897</speed>
  <fix>3d</fix>
</trkpt>
<trkpt lat="33.810313" lon="-118.393867">
  <ele>-14.01</ele>
  <time>2026-09-01T01:13:39Z</time>
  <course>0.0</course>
  <speed>0.0</speed>
  <fix>3d</fix>
</trkpt>
<trkpt lat="33.8103132" lon="-118.3938671">
  <ele>-14.552</ele>
  <time>2026-09-01T01:13:39Z</time>
  <course>186.44</course>
  <speed>0.022360679774997897</speed>
  <fix>3d</fix>
</trkpt>
<trkpt lat="33.8103132" lon="-118.3938671">
  <ele>-14.597</ele>
  <time>2026-09-01T01:13:39Z</time>
  <course>186.44</course>
  <speed>0.022360679774997897</speed>
  <fix>3d</fix>
</trkpt>
<trkpt lat="33.810313" lon="-118.393867">
  <ele>-14.12</ele>
  <time>2026-09-01T01:13:39Z</time>
  <course>0.0</course>
  <speed>0.0</speed>
  <fix>3d</fix>
</trkpt>
<trkpt lat="33.8103132" lon="-118.3938671">
  <ele>-14.617</ele>
  <time>2026-09-01T01:13:39Z</time>
  <course>186.44</course>
  <speed>0.022360679774997897</speed>
  <fix>3d</fix>
</trkpt>
<trkpt lat="33.8103132" lon="-118.3938671">
  <ele>-14.658</ele>
  <time>2026-09-01T01:13:39Z</time>
  <course>186.44</course>
  <speed>0.022360679774997897</speed>
  <fix>3d</fix>
</trkpt>
<trkpt lat="33.810313" lon="-118.393867">
  <ele>-14.12</ele>
  <time>2026-09-01T01:13:39Z</time>
  <course>0.0</course>
  <speed>0.0</speed>
  <fix>3d</fix>
</trkpt>
<trkpt lat="33.8103132" lon="-118.3938671">
  <ele>-14.659</ele>
  <time>2026-09-01T01:13:39Z</time>
  <course>186.44</course>
  <speed>0.022360679774997897</speed>
  <fix>3d</fix>
</trkpt>
<trkpt lat="33.8103132" lon="-118.3938671">
  <ele>-14.719</ele>
  <time>2026-09-01T01:13:39Z</time>
  <course>186.44</course>
  <speed>0.022360679774997897</speed>
  <fix>3d</fix>
</trkpt>
<trkpt lat="33.810313" lon="-118.393867">
  <ele>-14.25</ele>
  <time>2026-09-01T01:13:39Z</time>
  <course>0.0</course>
  <speed>0.0</speed>
  <fix>3d</fix>
</trkpt>
<trkpt lat="33.8103132" lon="-118.3938671">
  <ele>-14.741</ele>
  <time>2026-09-01T01:13:39Z</time>
  <course>186.44</course>
  <speed>0.022360679774997897</speed>
  <fix>3d</fix>
</trkpt>
<trkpt lat="33.8103132" lon="-118.3938671">
  <ele>-14.782</ele>
  <time>2026-09-01T01:13:39Z</time>
  <course>186.44</course>
  <speed>0.022360679774997897</speed>
  <fix>3d</fix>
</trkpt>
<trkpt lat="33.810313" lon="-118.393867">
  <ele>-14.25</ele>
  <time>2026-09-01T01:13:39Z</time>
  <course>0.0</course>
  <speed>0.0</speed>
  <fix>3d</fix>
</trkpt>
<trkpt lat="33.8103132" lon="-118.3938671">
  <ele>-14.783</ele>
  <time>2026-09-01T01:13:39Z</time>
  <course>186.44</course>
  <speed>0.022360679774997897</speed>
  <fix>3d</fix>
</trkpt>
<trkpt lat="33.8103132" lon="-118.3938671">
  <ele>-14.844</ele>
  <time>2026-09-01T01:13:39Z</time>
  <course>186.44</course>
  <speed>0.022360679774997897</speed>
  <fix>3d</fix>
</trkpt>
<trkpt lat="33.810313" lon="-118.393867">
  <ele>-14.37</ele>
  <time>2026-09-01T01:13:39Z</time>
  <course>0.0</course>
  <speed>0.0</speed>
  <fix>3d</fix>
</trkpt>
<trkpt lat="33.8103132" lon="-118.3938671">
  <ele>-14.845</ele>
  <time>2026-09-01T01:13:39Z</time>
  <course>186.44</course>
  <speed>0.022360679774997897</speed>
  <fix>3d</fix>
</trkpt>
<trkpt lat="33.8103132" lon="-118.3938671">
  <ele>-14.906</ele>
  <time>2026-09-01T01:13:39Z</time>
  <course>186.44</course>
  <speed>0.022360679774997897</speed>
  <fix>3d</fix>
</trkpt>
<trkpt lat="33.810313" lon="-118.393867">
  <ele>-14.37</ele>
  <time>2026-09-01T01:13:39Z</time>
  <course>0.0</course>
  <speed>0.0</speed>
  <fix>3d</fix>
</trkpt>
<trkpt lat="33.8103132" lon="-118.3938671">
  <ele>-14.927</ele>
  <time>2026-09-01T01:13:39Z</time>
  <course>186.44</course>
  <speed>0.022360679774997897</speed>
  <fix>3d</fix>
</trkpt>
<trkpt lat="33.8103132" lon="-118.3938671">
  <ele>-14.969</ele>
  <time>2026-09-01T01:13:39Z</time>
  <course>186.44</course>
  <speed>0.022360679774997897</speed>
  <fix>3d</fix>
</trkpt>
<trkpt lat="33.810313" lon="-118.393867">
  <ele>-14.49</ele>
  <time>2026-09-01T01:13:39Z</time>
  <course>0.0</course>
  <speed>0.0</speed>
  <fix>3d</fix>
</trkpt>
<trkpt lat="33.8103132" lon="-118.3938671">
  <ele>-14.991</ele>
  <time>2026-09-01T01:13:39Z</time>
  <course>186.44</course>
  <speed>0.022360679774997897</speed>
  <fix>3d</fix>
</trkpt>
<trkpt lat="33.8103132" lon="-118.3938671">
  <ele>-15.032</ele>
  <time>2026-09-01T01:13:39Z</time>
  <course>186.44</course>
  <speed>0.022360679774997897</speed>
  <fix>3d</fix>
</trkpt>
<trkpt lat="33.810313" lon="-118.393867">
  <ele>-14.49</ele>
  <time>2026-09-01T01:13:39Z</time>
  <course>0.0</course>
  <speed>0.0</speed>
  <fix>3d</fix>
</trkpt>
<trkpt lat="33.8103132" lon="-118.3938671">
  <ele>-15.053</ele>
  <time>2026-09-01T01:13:39Z</time>
  <course>186.44</course>
  <speed>0.022360679774997897</speed>
  <fix>3d</fix>
</trkpt>
<trkpt lat="33.8103132" lon="-118.3938671">
  <ele>-15.096</ele>
  <time>2026-09-01T01:13:39Z</time>
  <course>186.44</course>
  <speed>0.022360679774997897</speed>
  <fix>3d</fix>
</trkpt>
<trkpt lat="33.810313" lon="-118.393867">
  <ele>-14.61</ele>
  <time>2026-09-01T01:13:39Z</time>
  <course>0.0</course>
  <speed>0.0</speed>
  <fix>3d</fix>
</trkpt>
<trkpt lat="33.8103132" lon="-118.3938671">
  <ele>-15.098</ele>
  <time>2026-09-01T01:13:39Z</time>
  <course>186.44</course>
  <speed>0.022360679774997897</speed>
  <fix>3d</fix>
</trkpt>
<trkpt lat="33.8103132" lon="-118.3938671">
  <ele>-15.159</ele>
  <time>2026-09-01T01:13:39Z</time>
  <course>186.44</course>
  <speed>0.022360679774997897</speed>
  <fix>3d</fix>
</trkpt>
<trkpt lat="33.810313" lon="-118.393867">
  <ele>-14.61</ele>
  <time>2026-09-01T01:13:39Z</time>
  <course>0.0</course>
  <speed>0.0</speed>
  <fix>3d</fix>
</trkpt>
<trkpt lat="33.8103132" lon="-118.3938671">
  <ele>-15.179</ele>
  <time>2026-09-01T01:13:39Z</time>
  <course>186.44</course>
  <speed>0.022360679774997897</speed>
  <fix>3d</fix>
</trkpt>
<trkpt lat="33.8103132" lon="-118.3938671">
  <ele>-15.22</ele>
  <time>2026-09-01T01:13:39Z</time>
  <course>186.44</course>
  <speed>0.022360679774997897</speed>
  <fix>3d</fix>
</trkpt>
<trkpt lat="33.810313" lon="-118.393867">
  <ele>-14.73</ele>
  <time>2026-09-01T01:13:39Z</time>
  <course>0.0</course>
  <speed>0.0</speed>
  <fix>3d</fix>
</trkpt>
<trkpt lat="33.8103132" lon="-118.3938671">
  <ele>-15.24</ele>
  <time>2026-09-01T01:13:39Z</time>
  <course>186.44</course>
  <speed>0.022360679774997897</speed>
  <fix>3d</fix>
</trkpt>
<trkpt lat="33.8103132" lon="-118.3938671">
  <ele>-15.281</ele>
  <time>2026-09-01T01:13:39Z</time>
  <course>186.44</course>
  <speed>0.022360679774997897</speed>
  <fix>3d</fix>
</trkpt>
<trkpt lat="33.810313" lon="-118.393867">
  <ele>-14.73</ele>
  <time>2026-09-01T01:13:39Z</time>
  <course>0.0</course>
  <speed>0.0</speed>
  <fix>3d</fix>
</trkpt>
<trkpt lat="33.8103132" lon="-118.3938671">
  <ele>-15.283</ele>
  <time>2026-09-01T01:13:39Z</time>
  <course>186.44</course>
  <speed>0.022360679774997897</speed>
  <fix>3d</fix>
</trkpt>
<trkpt lat="33.8103132" lon="-118.3938671">
  <ele>-15.342</ele>
  <time>2026-09-01T01:13:39Z</time>
  <course>186.44</course>
  <speed>0.022360679774997897</speed>
  <fix>3d</fix>
</trkpt>
<trkpt lat="33.810313" lon="-118.393867">
  <ele>-14.85</ele>
  <time>2026-09-01T01:13:39Z</time>
  <course>0.0</course>
  <speed>0.0</speed>
  <fix>3d</fix>
</trkpt>
<trkpt lat="33.8103132" lon="-118.3938671">
  <ele>-15.363</ele>
  <time>2026-09-01T01:13:39Z</time>
  <course>186.44</course>
  <speed>0.022360679774997897</speed>
  <fix>3d</fix>
</trkpt>
<trkpt lat="33.8103132" lon="-118.3938671">
  <ele>-15.402</ele>
  <time>2026-09-01T01:13:39Z</time>
  <course>186.44</course>
  <speed>0.022360679774997897</speed>
  <fix>3d</fix>
</trkpt>
<trkpt lat="33.810313" lon="-118.393867">
  <ele>-14.85</ele>
  <time>2026-09-01T01:13:39Z</time>
  <course>0.0</course>
  <speed>0.0</speed>
  <fix>3d</fix>
</trkpt>
<trkpt lat="33.8103132" lon="-118.3938671">
  <ele>-15.404</ele>
  <time>2026-09-01T01:13:39Z</time>
  <course>186.44</course>
  <speed>0.022360679774997897</speed>
  <fix>3d</fix>
</trkpt>
<trkpt lat="33.8103132" lon="-118.3938671">
  <ele>-15.463</ele>
  <time>2026-09-01T01:13:39Z</time>
  <course>186.44</course>
  <speed>0.022360679774997897</speed>
  <fix>3d</fix>
</trkpt>
<trkpt lat="33.810313" lon="-118.393867">
  <ele>-14.96</ele>
  <time>2026-09-01T01:13:39Z</time>
  <course>0.0</course>
  <speed>0.0</speed>
  <fix>3d</fix>
</trkpt>
<trkpt lat="33.8103132" lon="-118.3938671">
  <ele>-15.465</ele>
  <time>2026-09-01T01:13:39Z</time>
  <course>186.44</course>
  <speed>0.022360679774997897</speed>
  <fix>3d</fix>
</trkpt>
<trkpt lat="33.8103132" lon="-118.3938671">
  <ele>-15.524</ele>
  <time>2026-09-01T01:13:39Z</time>
  <course>186.44</course>
  <speed>0.022360679774997897</speed>
  <fix>3d</fix>
</trkpt>
<trkpt lat="33.810313" lon="-118.393867">
  <ele>-14.96</ele>
  <time>2026-09-01T01:13:39Z</time>
  <course>0.0</course>
  <speed>0.0</speed>
  <fix>3d</fix>
</trkpt>
<trkpt lat="33.8103132" lon="-118.3938671">
  <ele>-15.544</ele>
  <time>2026-09-01T01:13:39Z</time>
  <course>186.44</course>
  <speed>0.022360679774997897</speed>
  <fix>3d</fix>
</trkpt>
<trkpt lat="33.8103132" lon="-118.3938671">
  <ele>-15.586</ele>
  <time>2026-09-01T01:13:39Z</time>
  <course>186.44</course>
  <speed>0.022360679774997897</speed>
  <fix>3d</fix>
</trkpt>
<trkpt lat="33.810313" lon="-118.393867">
  <ele>-15.09</ele>
  <time>2026-09-01T01:13:39Z</time>
  <course>0.0</course>
  <speed>0.0</speed>
  <fix>3d</fix>
</trkpt>
<trkpt lat="33.8103132" lon="-118.3938671">
  <ele>-15.605</ele>
  <time>2026-09-01T01:13:39Z</time>
  <course>186.44</course>
  <speed>0.022360679774997897</speed>
  <fix>3d</fix>
</trkpt>
<trkpt lat="33.8103132" lon="-118.3938671">
  <ele>-15.648</ele>
  <time>2026-09-01T01:13:39Z</time>
  <course>186.44</course>
  <speed>0.022360679774997897</speed>
  <fix>3d</fix>
</trkpt>
<trkpt lat="33.810313" lon="-118.393867">
  <ele>-15.09</ele>
  <time>2026-09-01T01:13:39Z</time>
  <course>0.0</course>
  <speed>0.0</speed>
  <fix>3d</fix>
</trkpt>
<trkpt lat="33.8103132" lon="-118.3938671">
  <ele>-15.668</ele>
  <time>2026-09-01T01:13:39Z</time>
  <course>186.44</course>
  <speed>0.022360679774997897</speed>
  <fix>3d</fix>
</trkpt>
<trkpt lat="33.8103132" lon="-118.3938671">
  <ele>-15.71</ele>
  <time>2026-09-01T01:13:39Z</time>
  <course>186.44</course>
  <speed>0.022360679774997897</speed>
  <fix>3d</fix>
</trkpt>
<trkpt lat="33.810313" lon="-118.393867">
  <ele>-15.21</ele>
  <time>2026-09-01T01:13:39Z</time>
  <course>0.0</course>
  <speed>0.0</speed>
  <fix>3d</fix>
</trkpt>
<trkpt lat="33.8103132" lon="-118.3938671">
  <ele>-15.712</ele>
  <time>2026-09-01T01:13:39Z</time>
  <course>186.44</course>
  <speed>0.022360679774997897</speed>
  <fix>3d</fix>
</trkpt>
<trkpt lat="33.8103132" lon="-118.3938671">
  <ele>-15.773</ele>
  <time>2026-09-01T01:13:39Z</time>
  <course>186.44</course>
  <speed>0.022360679774997897</speed>
  <fix>3d</fix>
</trkpt>
<trkpt lat="33.810313" lon="-118.393867">
  <ele>-15.21</ele>
  <time>2026-09-01T01:13:39Z</time>
  <course>0.0</course>
  <speed>0.0</speed>
  <fix>3d</fix>
</trkpt>
<trkpt lat="33.8103132" lon="-118.3938671">
  <ele>-15.792</ele>
  <time>2026-09-01T01:13:39Z</time>
  <course>186.44</course>
  <speed>0.022360679774997897</speed>
  <fix>3d</fix>
</trkpt>
<trkpt lat="33.8103132" lon="-118.3938671">
  <ele>-15.835</ele>
  <time>2026-09-01T01:13:39Z</time>
  <course>186.43</course>
  <speed>0.022360679774997897</speed>
  <fix>3d</fix>
</trkpt>
<trkpt lat="33.810313" lon="-118.393867">
  <ele>-15.33</ele>
  <time>2026-09-01T01:13:39Z</time>
  <course>0.0</course>
  <speed>0.0</speed>
  <fix>3d</fix>
</trkpt>
<trkpt lat="33.8103132" lon="-118.3938671">
  <ele>-15.855</ele>
  <time>2026-09-01T01:13:39Z</time>
  <course>186.43</course>
  <speed>0.022360679774997897</speed>
  <fix>3d</fix>
</trkpt>
<trkpt lat="33.8103132" lon="-118.3938671">
  <ele>-15.897</ele>
  <time>2026-09-01T01:13:39Z</time>
  <course>186.43</course>
  <speed>0.022360679774997897</speed>
  <fix>3d</fix>
</trkpt>
<trkpt lat="33.810313" lon="-118.393867">
  <ele>-15.33</ele>
  <time>2026-09-01T01:13:39Z</time>
  <course>0.0</course>
  <speed>0.0</speed>
  <fix>3d</fix>
</trkpt>
<trkpt lat="33.8103132" lon="-118.3938671">
  <ele>-15.918</ele>
  <time>2026-09-01T01:13:39Z</time>
  <course>186.43</course>
  <speed>0.022360679774997897</speed>
  <fix>3d</fix>
</trkpt>
<trkpt lat="33.8103132" lon="-118.3938671">
  <ele>-15.959</ele>
  <time>2026-09-01T01:13:39Z</time>
  <course>186.43</course>
  <speed>0.022360679774997897</speed>
  <fix>3d</fix>
</trkpt>
<trkpt lat="33.810313" lon="-118.393867">
  <ele>-15.46</ele>
  <time>2026-09-01T01:13:39Z</time>
  <course>0.0</course>
  <speed>0.0</speed>
  <fix>3d</fix>
</trkpt>
<trkpt lat="33.8103132" lon="-118.3938671">
  <ele>-15.962</ele>
  <time>2026-09-01T01:13:39Z</time>
  <course>186.43</course>
  <speed>0.022360679774997897</speed>
  <fix>3d</fix>
</trkpt>
<trkpt lat="33.8103132" lon="-118.3938671">
  <ele>-16.02</ele>
  <time>2026-09-01T01:13:39Z</time>
  <course>186.43</course>
  <speed>0.022360679774997897</speed>
  <fix>3d</fix>
</trkpt>
<trkpt lat="33.810313" lon="-118.393867">
  <ele>-15.46</ele>
  <time>2026-09-01T01:13:39Z</time>
  <course>0.0</course>
  <speed>0.0</speed>
  <fix>3d</fix>
</trkpt>
<trkpt lat="33.8103132" lon="-118.3938671">
  <ele>-16.022</ele>
  <time>2026-09-01T01:13:39Z</time>
  <course>186.43</course>
  <speed>0.022360679774997897</speed>
  <fix>3d</fix>
</trkpt>
<trkpt lat="33.8103132" lon="-118.3938671">
  <ele>-16.081</ele>
  <time>2026-09-01T01:13:39Z</time>
  <course>186.43</course>
  <speed>0.022360679774997897</speed>
  <fix>3d</fix>
</trkpt>
<trkpt lat="33.810313" lon="-118.393867">
  <ele>-15.58</ele>
  <time>2026-09-01T01:13:39Z</time>
  <course>0.0</course>
  <speed>0.0</speed>
  <fix>3d</fix>
</trkpt>
<trkpt lat="33.8103132" lon="-118.3938671">
  <ele>-16.083</ele>
  <time>2026-09-01T01:13:39Z</time>
  <course>186.43</course>
  <speed>0.022360679774997897</speed>
  <fix>3d</fix>
</trkpt>
<trkpt lat="33.8103132" lon="-118.3938671">
  <ele>-16.143</ele>
  <time>2026-09-01T01:13:39Z</time>
  <course>186.43</course>
  <speed>0.022360679774997897</speed>
  <fix>3d</fix>
</trkpt>
<trkpt lat="33.810313" lon="-118.393867">
  <ele>-15.58</ele>
  <time>2026-09-01T01:13:39Z</time>
  <course>0.0</course>
  <speed>0.0</speed>
  <fix>3d</fix>
</trkpt>
<trkpt lat="33.8103132" lon="-118.3938671">
  <ele>-16.162</ele>
  <time>2026-09-01T01:13:39Z</time>
  <course>186.43</course>
  <speed>0.022360679774997897</speed>
  <fix>3d</fix>
</trkpt>
<trkpt lat="33.8103132" lon="-118.3938671">
  <ele>-16.204</ele>
  <time>2026-09-01T01:13:39Z</time>
  <course>186.43</course>
  <speed>0.022360679774997897</speed>
  <fix>3d</fix>
</trkpt>
<trkpt lat="33.810313" lon="-118.393867">
  <ele>-15.7</ele>
  <time>2026-09-01T01:13:39Z</time>
  <course>0.0</course>
  <speed>0.0</speed>
  <fix>3d</fix>
</trkpt>
<trkpt lat="33.8103132" lon="-118.3938671">
  <ele>-16.224</ele>
  <time>2026-09-01T01:13:39Z</time>
  <course>186.43</course>
  <speed>0.022360679774997897</speed>
  <fix>3d</fix>
</trkpt>
<trkpt lat="33.8103132" lon="-118.3938671">
  <ele>-16.266</ele>
  <time>2026-09-01T01:13:39Z</time>
  <course>186.43</course>
  <speed>0.022360679774997897</speed>
  <fix>3d</fix>
</trkpt>
<trkpt lat="33.810313" lon="-118.393867">
  <ele>-15.7</ele>
  <time>2026-09-01T01:13:39Z</time>
  <course>0.0</course>
  <speed>0.0</speed>
  <fix>3d</fix>
</trkpt>
<trkpt lat="33.8103132" lon="-118.3938671">
  <ele>-16.287</ele>
  <time>2026-09-01T01:13:39Z</time>
  <course>186.43</course>
  <speed>0.022360679774997897</speed>
  <fix>3d</fix>
</trkpt>
<trkpt lat="33.8103132" lon="-118.3938671">
  <ele>-16.327</ele>
  <time>2026-09-01T01:13:39Z</time>
  <course>186.43</course>
  <speed>0.022360679774997897</speed>
  <fix>3d</fix>
</trkpt>
<trkpt lat="33.810313" lon="-118.393867">
  <ele>-15.82</ele>
  <time>2026-09-01T01:13:39Z</time>
  <course>0.0</course>
  <speed>0.0</speed>
  <fix>3d</fix>
</trkpt>
<trkpt lat="33.8103132" lon="-118.3938671">
  <ele>-16.329</ele>
  <time>2026-09-01T01:13:39Z</time>
  <course>186.43</course>
  <speed>0.022360679774997897</speed>
  <fix>3d</fix>
</trkpt>
<trkpt lat="33.8103132" lon="-118.3938671">
  <ele>-16.39</ele>
  <time>2026-09-01T01:13:39Z</time>
  <course>186.42</course>
  <speed>0.022360679774997897</speed>
  <fix>3d</fix>
</trkpt>
<trkpt lat="33.810313" lon="-118.393867">
  <ele>-15.82</ele>
  <time>2026-09-01T01:13:39Z</time>
  <course>0.0</course>
  <speed>0.0</speed>
  <fix>3d</fix>
</trkpt>
<trkpt lat="33.8103132" lon="-118.3938671">
  <ele>-16.411</ele>
  <time>2026-09-01T01:13:39Z</time>
  <course>186.42</course>
  <speed>0.022360679774997897</speed>
  <fix>3d</fix>
</trkpt>
<trkpt lat="33.8103132" lon="-118.3938671">
  <ele>-16.452</ele>
  <time>2026-09-01T01:13:39Z</time>
  <course>186.42</course>
  <speed>0.022360679774997897</speed>
  <fix>3d</fix>
</trkpt>
<trkpt lat="33.810313" lon="-118.393867">
  <ele>-15.94</ele>
  <time>2026-09-01T01:13:39Z</time>
  <course>0.0</course>
  <speed>0.0</speed>
  <fix>3d</fix>
</trkpt>
<trkpt lat="33.8103132" lon="-118.3938671">
  <ele>-16.472</ele>
  <time>2026-09-01T01:13:39Z</time>
  <course>186.42</course>
  <speed>0.022360679774997897</speed>
  <fix>3d</fix>
</trkpt>
<trkpt lat="33.8103132" lon="-118.3938671">
  <ele>-16.514</ele>
  <time>2026-09-01T01:13:39Z</time>
  <course>186.42</course>
  <speed>0.022360679774997897</speed>
  <fix>3d</fix>
</trkpt>
<trkpt lat="33.810313" lon="-118.393867">
  <ele>-15.94</ele>
  <time>2026-09-01T01:13:39Z</time>
  <course>0.0</course>
  <speed>0.0</speed>
  <fix>3d</fix>
</trkpt>
<trkpt lat="33.8103132" lon="-118.3938671">
  <ele>-16.537</ele>
  <time>2026-09-01T01:13:39Z</time>
  <course>186.42</course>
  <speed>0.022360679774997897</speed>
  <fix>3d</fix>
</trkpt>
<trkpt lat="33.8103132" lon="-118.3938671">
  <ele>-16.578</ele>
  <time>2026-09-01T01:13:39Z</time>
  <course>186.42</course>
  <speed>0.022360679774997897</speed>
  <fix>3d</fix>
</trkpt>
<trkpt lat="33.810313" lon="-118.393867">
  <ele>-16.06</ele>
  <time>2026-09-01T01:13:39Z</time>
  <course>0.0</course>
  <speed>0.0</speed>
  <fix>3d</fix>
</trkpt>
<trkpt lat="33.8103132" lon="-118.3938671">
  <ele>-16.58</ele>
  <time>2026-09-01T01:13:39Z</time>
  <course>186.42</course>
  <speed>0.022360679774997897</speed>
  <fix>3d</fix>
</trkpt>
<trkpt lat="33.8103132" lon="-118.3938671">
  <ele>-16.642</ele>
  <time>2026-09-01T01:13:39Z</time>
  <course>186.42</course>
  <speed>0.022360679774997897</speed>
  <fix>3d</fix>
</trkpt>
<trkpt lat="33.810313" lon="-118.393867">
  <ele>-16.06</ele>
  <time>2026-09-01T01:13:39Z</time>
  <course>0.0</course>
  <speed>0.0</speed>
  <fix>3d</fix>
</trkpt>
<trkpt lat="33.8103132" lon="-118.3938671">
  <ele>-16.644</ele>
  <time>2026-09-01T01:13:39Z</time>
  <course>186.42</course>
  <speed>0.022360679774997897</speed>
  <fix>3d</fix>
</trkpt>
<trkpt lat="33.8103132" lon="-118.3938671">
  <ele>-16.707</ele>
  <time>2026-09-01T01:13:39Z</time>
  <course>186.42</course>
  <speed>0.022360679774997897</speed>
  <fix>3d</fix>
</trkpt>
<trkpt lat="33.810313" lon="-118.393867">
  <ele>-16.18</ele>
  <time>2026-09-01T01:13:39Z</time>
  <course>0.0</course>
  <speed>0.0</speed>
  <fix>3d</fix>
</trkpt>
<trkpt lat="33.8103132" lon="-118.3938671">
  <ele>-16.71</ele>
  <time>2026-09-01T01:13:39Z</time>
  <course>186.42</course>
  <speed>0.022360679774997897</speed>
  <fix>3d</fix>
</trkpt>
<trkpt lat="33.8103132" lon="-118.3938671">
  <ele>-16.771</ele>
  <time>2026-09-01T01:13:39Z</time>
  <course>186.42</course>
  <speed>0.022360679774997897</speed>
  <fix>3d</fix>
</trkpt>
<trkpt lat="33.810313" lon="-118.393867">
  <ele>-16.18</ele>
  <time>2026-09-01T01:13:39Z</time>
  <course>0.0</course>
  <speed>0.0</speed>
  <fix>3d</fix>
</trkpt>
<trkpt lat="33.8103132" lon="-118.3938671">
  <ele>-16.772</ele>
  <time>2026-09-01T01:13:39Z</time>
  <course>186.42</course>
  <speed>0.022360679774997897</speed>
  <fix>3d</fix>
</trkpt>
<trkpt lat="33.8103132" lon="-118.3938671">
  <ele>-16.834</ele>
  <time>2026-09-01T01:13:39Z</time>
  <course>186.41</course>
  <speed>0.022360679774997897</speed>
  <fix>3d</fix>
</trkpt>
<trkpt lat="33.810313" lon="-118.393867">
  <ele>-16.29</ele>
  <time>2026-09-01T01:13:39Z</time>
  <course>0.0</course>
  <speed>0.0</speed>
  <fix>3d</fix>
</trkpt>
<trkpt lat="33.8103132" lon="-118.3938671">
  <ele>-16.855</ele>
  <time>2026-09-01T01:13:39Z</time>
  <course>186.41</course>
  <speed>0.022360679774997897</speed>
  <fix>3d</fix>
</trkpt>
<trkpt lat="33.8103132" lon="-118.3938671">
  <ele>-16.898</ele>
  <time>2026-09-01T01:13:39Z</time>
  <course>186.41</course>
  <speed>0.022360679774997897</speed>
  <fix>3d</fix>
</trkpt>
<trkpt lat="33.810313" lon="-118.393867">
  <ele>-16.29</ele>
  <time>2026-09-01T01:13:39Z</time>
  <course>0.0</course>
  <speed>0.0</speed>
  <fix>3d</fix>
</trkpt>
<trkpt lat="33.8103132" lon="-118.3938671">
  <ele>-16.921</ele>
  <time>2026-09-01T01:13:39Z</time>
  <course>186.41</course>
  <speed>0.022360679774997897</speed>
  <fix>3d</fix>
</trkpt>
<trkpt lat="33.8103132" lon="-118.3938671">
  <ele>-16.961</ele>
  <time>2026-09-01T01:13:39Z</time>
  <course>186.41</course>
  <speed>0.022360679774997897</speed>
  <fix>3d</fix>
</trkpt>
<trkpt lat="33.810313" lon="-118.393867">
  <ele>-16.42</ele>
  <time>2026-09-01T01:13:39Z</time>
  <course>0.0</course>
  <speed>0.0</speed>
  <fix>3d</fix>
</trkpt>
<trkpt lat="33.8103132" lon="-118.3938671">
  <ele>-16.962</ele>
  <time>2026-09-01T01:13:39Z</time>
  <course>186.41</course>
  <speed>0.022360679774997897</speed>
  <fix>3d</fix>
</trkpt>
<trkpt lat="33.8103132" lon="-118.3938671">
  <ele>-17.024</ele>
  <time>2026-09-01T01:13:39Z</time>
  <course>186.41</course>
  <speed>0.022360679774997897</speed>
  <fix>3d</fix>
</trkpt>
<trkpt lat="33.810313" lon="-118.393867">
  <ele>-16.42</ele>
  <time>2026-09-01T01:13:39Z</time>
  <course>0.0</course>
  <speed>0.0</speed>
  <fix>3d</fix>
</trkpt>
<trkpt lat="33.8103132" lon="-118.3938671">
  <ele>-17.043</ele>
  <time>2026-09-01T01:13:39Z</time>
  <course>186.41</course>
  <speed>0.022360679774997897</speed>
  <fix>3d</fix>
</trkpt>
<trkpt lat="33.8103132" lon="-118.3938671">
  <ele>-17.086</ele>
  <time>2026-09-01T01:13:39Z</time>
  <course>186.41</course>
  <speed>0.022360679774997897</speed>
  <fix>3d</fix>
</trkpt>
<trkpt lat="33.810313" lon="-118.393867">
  <ele>-16.54</ele>
  <time>2026-09-01T01:13:39Z</time>
  <course>0.0</course>
  <speed>0.0</speed>
  <fix>3d</fix>
</trkpt>
<trkpt lat="33.8103132" lon="-118.3938671">
  <ele>-17.105</ele>
  <time>2026-09-01T01:13:39Z</time>
  <course>186.41</course>
  <speed>0.022360679774997897</speed>
  <fix>3d</fix>
</trkpt>
<trkpt lat="33.8103132" lon="-118.3938671">
  <ele>-17.147</ele>
  <time>2026-09-01T01:13:39Z</time>
  <course>186.4</course>
  <speed>0.022360679774997897</speed>
  <fix>3d</fix>
</trkpt>
<trkpt lat="33.810313" lon="-118.393867">
  <ele>-16.54</ele>
  <time>2026-09-01T01:13:39Z</time>
  <course>0.0</course>
  <speed>0.0</speed>
  <fix>3d</fix>
</trkpt>
<trkpt lat="33.8103132" lon="-118.3938671">
  <ele>-17.167</ele>
  <time>2026-09-01T01:13:39Z</time>
  <course>186.4</course>
  <speed>0.022360679774997897</speed>
  <fix>3d</fix>
</trkpt>
<trkpt lat="33.8103132" lon="-118.3938671">
  <ele>-17.209</ele>
  <time>2026-09-01T01:13:39Z</time>
  <course>186.4</course>
  <speed>0.022360679774997897</speed>
  <fix>3d</fix>
</trkpt>
<trkpt lat="33.810313" lon="-118.393867">
  <ele>-16.66</ele>
  <time>2026-09-01T01:13:39Z</time>
  <course>0.0</course>
  <speed>0.0</speed>
  <fix>3d</fix>
</trkpt>
<trkpt lat="33.8103132" lon="-118.3938671">
  <ele>-17.229</ele>
  <time>2026-09-01T01:13:39Z</time>
  <course>186.4</course>
  <speed>0.022360679774997897</speed>
  <fix>3d</fix>
</trkpt>
<trkpt lat="33.8103132" lon="-118.3938671">
  <ele>-17.27</ele>
  <time>2026-09-01T01:13:39Z</time>
  <course>186.4</course>
  <speed>0.022360679774997897</speed>
  <fix>3d</fix>
</trkpt>
<trkpt lat="33.810313" lon="-118.393867">
  <ele>-16.66</ele>
  <time>2026-09-01T01:13:39Z</time>
  <course>0.0</course>
  <speed>0.0</speed>
  <fix>3d</fix>
</trkpt>
<trkpt lat="33.8103132" lon="-118.3938671">
  <ele>-17.272</ele>
  <time>2026-09-01T01:13:39Z</time>
  <course>186.4</course>
  <speed>0.022360679774997897</speed>
  <fix>3d</fix>
</trkpt>
<trkpt lat="33.8103132" lon="-118.3938671">
  <ele>-17.332</ele>
  <time>2026-09-01T01:13:39Z</time>
  <course>186.4</course>
  <speed>0.022360679774997897</speed>
  <fix>3d</fix>
</trkpt>
<trkpt lat="33.810313" lon="-118.393867">
  <ele>-16.77</ele>
  <time>2026-09-01T01:13:39Z</time>
  <course>0.0</course>
  <speed>0.0</speed>
  <fix>3d</fix>
</trkpt>
<trkpt lat="33.8103132" lon="-118.3938671">
  <ele>-17.334</ele>
  <time>2026-09-01T01:13:39Z</time>
  <course>186.4</course>
  <speed>0.022360679774997897</speed>
  <fix>3d</fix>
</trkpt>
<trkpt lat="33.8103132" lon="-118.3938671">
  <ele>-17.394</ele>
  <time>2026-09-01T01:13:39Z</time>
  <course>186.4</course>
  <speed>0.022360679774997897</speed>
  <fix>3d</fix>
</trkpt>
<trkpt lat="33.810313" lon="-118.393867">
  <ele>-16.77</ele>
  <time>2026-09-01T01:13:39Z</time>
  <course>0.0</course>
  <speed>0.0</speed>
  <fix>3d</fix>
</trkpt>
<trkpt lat="33.8103132" lon="-118.3938671">
  <ele>-17.414</ele>
  <time>2026-09-01T01:13:39Z</time>
  <course>186.4</course>
  <speed>0.022360679774997897</speed>
  <fix>3d</fix>
</trkpt>
<trkpt lat="33.8103132" lon="-118.3938671">
  <ele>-17.455</ele>
  <time>2026-09-01T01:13:39Z</time>
  <course>186.39</course>
  <speed>0.022360679774997897</speed>
  <fix>3d</fix>
</trkpt>
<trkpt lat="33.810313" lon="-118.393867">
  <ele>-16.9</ele>
  <time>2026-09-01T01:13:39Z</time>
  <course>0.0</course>
  <speed>0.0</speed>
  <fix>3d</fix>
</trkpt>
<trkpt lat="33.8103132" lon="-118.3938671">
  <ele>-17.476</ele>
  <time>2026-09-01T01:13:39Z</time>
  <course>186.39</course>
  <speed>0.022360679774997897</speed>
  <fix>3d</fix>
</trkpt>
<trkpt lat="33.8103132" lon="-118.3938671">
  <ele>-17.516</ele>
  <time>2026-09-01T01:13:39Z</time>
  <course>186.39</course>
  <speed>0.022360679774997897</speed>
  <fix>3d</fix>
</trkpt>
<trkpt lat="33.810313" lon="-118.393867">
  <ele>-16.9</ele>
  <time>2026-09-01T01:13:39Z</time>
  <course>0.0</course>
  <speed>0.0</speed>
  <fix>3d</fix>
</trkpt>
<trkpt lat="33.8103132" lon="-118.3938671">
  <ele>-17.517</ele>
  <time>2026-09-01T01:13:39Z</time>
  <course>186.39</course>
  <speed>0.022360679774997897</speed>
  <fix>3d</fix>
</trkpt>
<trkpt lat="33.8103132" lon="-118.3938671">
  <ele>-17.577</ele>
  <time>2026-09-01T01:13:39Z</time>
  <course>186.39</course>
  <speed>0.022360679774997897</speed>
  <fix>3d</fix>
</trkpt>
<trkpt lat="33.810313" lon="-118.393867">
  <ele>-17.02</ele>
  <time>2026-09-01T01:13:39Z</time>
  <course>0.0</course>
  <speed>0.0</speed>
  <fix>3d</fix>
</trkpt>
<trkpt lat="33.8103132" lon="-118.3938671">
  <ele>-17.578</ele>
  <time>2026-09-01T01:13:39Z</time>
  <course>186.39</course>
  <speed>0.022360679774997897</speed>
  <fix>3d</fix>
</trkpt>
<trkpt lat="33.8103132" lon="-118.3938671">
  <ele>-17.636</ele>
  <time>2026-09-01T01:13:39Z</time>
  <course>186.39</course>
  <speed>0.022360679774997897</speed>
  <fix>3d</fix>
</trkpt>
<trkpt lat="33.810313" lon="-118.393867">
  <ele>-17.02</ele>
  <time>2026-09-01T01:13:39Z</time>
  <course>0.0</course>
  <speed>0.0</speed>
  <fix>3d</fix>
</trkpt>
<trkpt lat="33.8103132" lon="-118.3938671">
  <ele>-17.657</ele>
  <time>2026-09-01T01:13:39Z</time>
  <course>186.39</course>
  <speed>0.022360679774997897</speed>
  <fix>3d</fix>
</trkpt>
<trkpt lat="33.8103132" lon="-118.3938671">
  <ele>-17.697</ele>
  <time>2026-09-01T01:13:39Z</time>
  <course>186.39</course>
  <speed>0.022360679774997897</speed>
  <fix>3d</fix>
</trkpt>
<trkpt lat="33.810313" lon="-118.393867">
  <ele>-17.14</ele>
  <time>2026-09-01T01:13:39Z</time>
  <course>0.0</course>
  <speed>0.0</speed>
  <fix>3d</fix>
</trkpt>
<trkpt lat="33.8103132" lon="-118.3938671">
  <ele>-17.717</ele>
  <time>2026-09-01T01:13:39Z</time>
  <course>186.38</course>
  <speed>0.022360679774997897</speed>
  <fix>3d</fix>
</trkpt>
<trkpt lat="33.8103132" lon="-118.3938671">
  <ele>-17.759</ele>
  <time>2026-09-01T01:13:39Z</time>
  <course>186.38</course>
  <speed>0.022360679774997897</speed>
  <fix>3d</fix>
</trkpt>
<trkpt lat="33.810313" lon="-118.393867">
  <ele>-17.14</ele>
  <time>2026-09-01T01:13:39Z</time>
  <course>0.0</course>
  <speed>0.0</speed>
  <fix>3d</fix>
</trkpt>
<trkpt lat="33.8103132" lon="-118.3938671">
  <ele>-17.779</ele>
  <time>2026-09-01T01:13:39Z</time>
  <course>186.38</course>
  <speed>0.022360679774997897</speed>
  <fix>3d</fix>
</trkpt>
<trkpt lat="33.8103132" lon="-118.3938671">
  <ele>-17.82</ele>
  <time>2026-09-01T01:13:39Z</time>
  <course>186.38</course>
  <speed>0.022360679774997897</speed>
  <fix>3d</fix>
</trkpt>
<trkpt lat="33.810313" lon="-118.393867">
  <ele>-17.27</ele>
  <time>2026-09-01T01:13:39Z</time>
  <course>0.0</course>
  <speed>0.0</speed>
  <fix>3d</fix>
</trkpt>
<trkpt lat="33.8103132" lon="-118.3938671">
  <ele>-17.84</ele>
  <time>2026-09-01T01:13:39Z</time>
  <course>186.38</course>
  <speed>0.022360679774997897</speed>
  <fix>3d</fix>
</trkpt>
<trkpt lat="33.8103132" lon="-118.3938671">
  <ele>-17.883</ele>
  <time>2026-09-01T01:13:39Z</time>
  <course>186.38</course>
  <speed>0.022360679774997897</speed>
  <fix>3d</fix>
</trkpt>
<trkpt lat="33.810313" lon="-118.393867">
  <ele>-17.27</ele>
  <time>2026-09-01T01:13:39Z</time>
  <course>0.0</course>
  <speed>0.0</speed>
  <fix>3d</fix>
</trkpt>
<trkpt lat="33.8103132" lon="-118.3938671">
  <ele>-17.884</ele>
  <time>2026-09-01T01:13:39Z</time>
  <course>186.38</course>
  <speed>0.022360679774997897</speed>
  <fix>3d</fix>
</trkpt>
<trkpt lat="33.8103132" lon="-118.3938671">
  <ele>-17.945</ele>
  <time>2026-09-01T01:13:39Z</time>
  <course>186.38</course>
  <speed>0.022360679774997897</speed>
  <fix>3d</fix>
</trkpt>
<trkpt lat="33.810313" lon="-118.393867">
  <ele>-17.39</ele>
  <time>2026-09-01T01:13:39Z</time>
  <course>0.0</course>
  <speed>0.0</speed>
  <fix>3d</fix>
</trkpt>
<trkpt lat="33.8103132" lon="-118.3938671">
  <ele>-17.946</ele>
  <time>2026-09-01T01:13:39Z</time>
  <course>186.38</course>
  <speed>0.022360679774997897</speed>
  <fix>3d</fix>
</trkpt>
<trkpt lat="33.8103132" lon="-118.3938671">
  <ele>-18.006</ele>
  <time>2026-09-01T01:13:39Z</time>
  <course>186.37</course>
  <speed>0.022360679774997897</speed>
  <fix>3d</fix>
</trkpt>
<trkpt lat="33.810313" lon="-118.393867">
  <ele>-17.39</ele>
  <time>2026-09-01T01:13:39Z</time>
  <course>0.0</course>
  <speed>0.0</speed>
  <fix>3d</fix>
</trkpt>
<trkpt lat="33.8103132" lon="-118.3938671">
  <ele>-18.026</ele>
  <time>2026-09-01T01:13:39Z</time>
  <course>186.37</course>
  <speed>0.022360679774997897</speed>
  <fix>3d</fix>
</trkpt>
<trkpt lat="33.8103132" lon="-118.3938671">
  <ele>-18.067</ele>
  <time>2026-09-01T01:13:39Z</time>
  <course>186.37</course>
  <speed>0.022360679774997897</speed>
  <fix>3d</fix>
</trkpt>
<trkpt lat="33.810313" lon="-118.393867">
  <ele>-17.51</ele>
  <time>2026-09-01T01:13:39Z</time>
  <course>0.0</course>
  <speed>0.0</speed>
  <fix>3d</fix>
</trkpt>
<trkpt lat="33.8103132" lon="-118.3938671">
  <ele>-18.089</ele>
  <time>2026-09-01T01:13:39Z</time>
  <course>186.37</course>
  <speed>0.022360679774997897</speed>
  <fix>3d</fix>
</trkpt>
<trkpt lat="33.8103132" lon="-118.3938671">
  <ele>-18.129</ele>
  <time>2026-09-01T01:13:39Z</time>
  <course>186.37</course>
  <speed>0.022360679774997897</speed>
  <fix>3d</fix>
</trkpt>
<trkpt lat="33.810313" lon="-118.393867">
  <ele>-17.51</ele>
  <time>2026-09-01T01:13:39Z</time>
  <course>0.0</course>
  <speed>0.0</speed>
  <fix>3d</fix>
</trkpt>
<trkpt lat="33.8103132" lon="-118.3938671">
  <ele>-18.148</ele>
  <time>2026-09-01T01:13:39Z</time>
  <course>186.37</course>
  <speed>0.022360679774997897</speed>
  <fix>3d</fix>
</trkpt>
<trkpt lat="33.8103132" lon="-118.3938671">
  <ele>-18.191</ele>
  <time>2026-09-01T01:13:39Z</time>
  <course>186.37</course>
  <speed>0.022360679774997897</speed>
  <fix>3d</fix>
</trkpt>
<trkpt lat="33.810313" lon="-118.393867">
  <ele>-17.63</ele>
  <time>2026-09-01T01:13:39Z</time>
  <course>0.0</course>
  <speed>0.0</speed>
  <fix>3d</fix>
</trkpt>
<trkpt lat="33.8103132" lon="-118.3938671">
  <ele>-18.194</ele>
  <time>2026-09-01T01:13:39Z</time>
  <course>186.37</course>
  <speed>0.022360679774997897</speed>
  <fix>3d</fix>
</trkpt>
<trkpt lat="33.8103132" lon="-118.3938671">
  <ele>-18.253</ele>
  <time>2026-09-01T01:13:39Z</time>
  <course>186.36</course>
  <speed>0.022360679774997897</speed>
  <fix>3d</fix>
</trkpt>
<trkpt lat="33.810313" lon="-118.393867">
  <ele>-17.63</ele>
  <time>2026-09-01T01:13:39Z</time>
  <course>0.0</course>
  <speed>0.0</speed>
  <fix>3d</fix>
</trkpt>
<trkpt lat="33.8103132" lon="-118.3938671">
  <ele>-18.273</ele>
  <time>2026-09-01T01:13:39Z</time>
  <course>186.36</course>
  <speed>0.022360679774997897</speed>
  <fix>3d</fix>
</trkpt>
<trkpt lat="33.8103132" lon="-118.3938671">
  <ele>-18.316</ele>
  <time>2026-09-01T01:13:39Z</time>
  <course>186.36</course>
  <speed>0.022360679774997897</speed>
  <fix>3d</fix>
</trkpt>
<trkpt lat="33.810313" lon="-118.393867">
  <ele>-17.75</ele>
  <time>2026-09-01T01:13:39Z</time>
  <course>0.0</course>
  <speed>0.0</speed>
  <fix>3d</fix>
</trkpt>
<trkpt lat="33.8103132" lon="-118.3938671">
  <ele>-18.338</ele>
  <time>2026-09-01T01:13:39Z</time>
  <course>186.36</course>
  <speed>0.022360679774997897</speed>
  <fix>3d</fix>
</trkpt>
<trkpt lat="33.8103132" lon="-118.3938671">
  <ele>-18.38</ele>
  <time>2026-09-01T01:13:39Z</time>
  <course>186.36</course>
  <speed>0.022360679774997897</speed>
  <fix>3d</fix>
</trkpt>
<trkpt lat="33.810313" lon="-118.393867">
  <ele>-17.75</ele>
  <time>2026-09-01T01:13:39Z</time>
  <course>0.0</course>
  <speed>0.0</speed>
  <fix>3d</fix>
</trkpt>
<trkpt lat="33.8103132" lon="-118.3938671">
  <ele>-18.4</ele>
  <time>2026-09-01T01:13:39Z</time>
  <course>186.36</course>
  <speed>0.022360679774997897</speed>
  <fix>3d</fix>
</trkpt>
<trkpt lat="33.8103132" lon="-118.3938671">
  <ele>-18.443</ele>
  <time>2026-09-01T01:13:39Z</time>
  <course>186.35</course>
  <speed>0.022360679774997897</speed>
  <fix>3d</fix>
</trkpt>
<trkpt lat="33.810313" lon="-118.393867">
  <ele>-17.86</ele>
  <time>2026-09-01T01:13:39Z</time>
  <course>0.0</course>
  <speed>0.0</speed>
  <fix>3d</fix>
</trkpt>
<trkpt lat="33.8103132" lon="-118.3938671">
  <ele>-18.465</ele>
  <time>2026-09-01T01:13:39Z</time>
  <course>186.35</course>
  <speed>0.022360679774997897</speed>
  <fix>3d</fix>
</trkpt>
<trkpt lat="33.8103132" lon="-118.3938671">
  <ele>-18.506</ele>
  <time>2026-09-01T01:13:39Z</time>
  <course>186.35</course>
  <speed>0.022360679774997897</speed>
  <fix>3d</fix>
</trkpt>
<trkpt lat="33.810313" lon="-118.393867">
  <ele>-17.86</ele>
  <time>2026-09-01T01:13:39Z</time>
  <course>0.0</course>
  <speed>0.0</speed>
  <fix>3d</fix>
</trkpt>
<trkpt lat="33.8103132" lon="-118.3938671">
  <ele>-18.508</ele>
  <time>2026-09-01T01:13:39Z</time>
  <course>186.35</course>
  <speed>0.022360679774997897</speed>
  <fix>3d</fix>
</trkpt>
<trkpt lat="33.8103132" lon="-118.3938671">
  <ele>-18.568</ele>
  <time>2026-09-01T01:13:39Z</time>
  <course>186.35</course>
  <speed>0.022360679774997897</speed>
  <fix>3d</fix>
</trkpt>
<trkpt lat="33.810313" lon="-118.393867">
  <ele>-17.99</ele>
  <time>2026-09-01T01:13:39Z</time>
  <course>0.0</course>
  <speed>0.0</speed>
  <fix>3d</fix>
</trkpt>
<trkpt lat="33.8103132" lon="-118.3938671">
  <ele>-18.57</ele>
  <time>2026-09-01T01:13:39Z</time>
  <course>186.35</course>
  <speed>0.022360679774997897</speed>
  <fix>3d</fix>
</trkpt>
<trkpt lat="33.8103132" lon="-118.3938671">
  <ele>-18.631</ele>
  <time>2026-09-01T01:13:40Z</time>
  <course>186.35</course>
  <speed>0.022360679774997897</speed>
  <fix>3d</fix>
</trkpt>
<trkpt lat="33.810313" lon="-118.393867">
  <ele>-17.99</ele>
  <time>2026-09-01T01:13:40Z</time>
  <course>0.0</course>
  <speed>0.0</speed>
  <fix>3d</fix>
</trkpt>
<trkpt lat="33.8103132" lon="-118.3938671">
  <ele>-18.652</ele>
  <time>2026-09-01T01:13:40Z</time>
  <course>186.34</course>
  <speed>0.022360679774997897</speed>
  <fix>3d</fix>
</trkpt>
<trkpt lat="33.8103132" lon="-118.3938671">
  <ele>-18.693</ele>
  <time>2026-09-01T01:13:40Z</time>
  <course>186.34</course>
  <speed>0.022360679774997897</speed>
  <fix>3d</fix>
</trkpt>
<trkpt lat="33.810313" lon="-118.393867">
  <ele>-18.11</ele>
  <time>2026-09-01T01:13:40Z</time>
  <course>0.0</course>
  <speed>0.0</speed>
  <fix>3d</fix>
</trkpt>
<trkpt lat="33.8103132" lon="-118.3938671">
  <ele>-18.714</ele>
  <time>2026-09-01T01:13:40Z</time>
  <course>186.34</course>
  <speed>0.022360679774997897</speed>
  <fix>3d</fix>
</trkpt>
<trkpt lat="33.8103132" lon="-118.3938671">
  <ele>-18.756</ele>
  <time>2026-09-01T01:13:40Z</time>
  <course>186.34</course>
  <speed>0.022360679774997897</speed>
  <fix>3d</fix>
</trkpt>
<trkpt lat="33.810313" lon="-118.393867">
  <ele>-18.11</ele>
  <time>2026-09-01T01:13:40Z</time>
  <course>0.0</course>
  <speed>0.0</speed>
  <fix>3d</fix>
</trkpt>
<trkpt lat="33.8103132" lon="-118.3938671">
  <ele>-18.776</ele>
  <time>2026-09-01T01:13:40Z</time>
  <course>186.34</course>
  <speed>0.022360679774997897</speed>
  <fix>3d</fix>
</trkpt>
<trkpt lat="33.8103132" lon="-118.3938671">
  <ele>-18.818</ele>
  <time>2026-09-01T01:13:40Z</time>
  <course>186.34</course>
  <speed>0.022360679774997897</speed>
  <fix>3d</fix>
</trkpt>
<trkpt lat="33.810313" lon="-118.393867">
  <ele>-18.23</ele>
  <time>2026-09-01T01:13:40Z</time>
  <course>0.0</course>
  <speed>0.0</speed>
  <fix>3d</fix>
</trkpt>
<trkpt lat="33.8103132" lon="-118.3938671">
  <ele>-18.82</ele>
  <time>2026-09-01T01:13:40Z</time>
  <course>186.34</course>
  <speed>0.022360679774997897</speed>
  <fix>3d</fix>
</trkpt>
<trkpt lat="33.8103132" lon="-118.3938671">
  <ele>-18.88</ele>
  <time>2026-09-01T01:13:40Z</time>
  <course>186.33</course>
  <speed>0.022360679774997897</speed>
  <fix>3d</fix>
</trkpt>
<trkpt lat="33.810313" lon="-118.393867">
  <ele>-18.23</ele>
  <time>2026-09-01T01:13:40Z</time>
  <course>0.0</course>
  <speed>0.0</speed>
  <fix>3d</fix>
</trkpt>
<trkpt lat="33.8103132" lon="-118.3938671">
  <ele>-18.902</ele>
  <time>2026-09-01T01:13:40Z</time>
  <course>186.33</course>
  <speed>0.022360679774997897</speed>
  <fix>3d</fix>
</trkpt>
<trkpt lat="33.8103132" lon="-118.3938671">
  <ele>-18.942</ele>
  <time>2026-09-01T01:13:40Z</time>
  <course>186.33</course>
  <speed>0.022360679774997897</speed>
  <fix>3d</fix>
</trkpt>
<trkpt lat="33.810313" lon="-118.393867">
  <ele>-18.35</ele>
  <time>2026-09-01T01:13:40Z</time>
  <course>0.0</course>
  <speed>0.0</speed>
  <fix>3d</fix>
</trkpt>
<trkpt lat="33.8103132" lon="-118.3938671">
  <ele>-18.944</ele>
  <time>2026-09-01T01:13:40Z</time>
  <course>186.33</course>
  <speed>0.022360679774997897</speed>
  <fix>3d</fix>
</trkpt>
<trkpt lat="33.8103132" lon="-118.3938671">
  <ele>-19.004</ele>
  <time>2026-09-01T01:13:40Z</time>
  <course>186.33</course>
  <speed>0.022360679774997897</speed>
  <fix>3d</fix>
</trkpt>
<trkpt lat="33.810313" lon="-118.393867">
  <ele>-18.35</ele>
  <time>2026-09-01T01:13:40Z</time>
  <course>0.0</course>
  <speed>0.0</speed>
  <fix>3d</fix>
</trkpt>
<trkpt lat="33.8103132" lon="-118.3938671">
  <ele>-19.006</ele>
  <time>2026-09-01T01:13:40Z</time>
  <course>186.33</course>
  <speed>0.022360679774997897</speed>
  <fix>3d</fix>
</trkpt>
<trkpt lat="33.8103132" lon="-118.3938671">
  <ele>-19.067</ele>
  <time>2026-09-01T01:13:40Z</time>
  <course>186.32</course>
  <speed>0.022360679774997897</speed>
  <fix>3d</fix>
</trkpt>
<trkpt lat="33.810313" lon="-118.393867">
  <ele>-18.47</ele>
  <time>2026-09-01T01:13:40Z</time>
  <course>0.0</course>
  <speed>0.0</speed>
  <fix>3d</fix>
</trkpt>
<trkpt lat="33.8103132" lon="-118.3938671">
  <ele>-19.089</ele>
  <time>2026-09-01T01:13:40Z</time>
  <course>186.32</course>
  <speed>0.022360679774997897</speed>
  <fix>3d</fix>
</trkpt>
<trkpt lat="33.8103132" lon="-118.3938671">
  <ele>-19.13</ele>
  <time>2026-09-01T01:13:40Z</time>
  <course>186.32</course>
  <speed>0.022360679774997897</speed>
  <fix>3d</fix>
</trkpt>
<trkpt lat="33.810313" lon="-118.393867">
  <ele>-18.47</ele>
  <time>2026-09-01T01:13:40Z</time>
  <course>0.0</course>
  <speed>0.0</speed>
  <fix>3d</fix>
</trkpt>
<trkpt lat="33.8103132" lon="-118.3938671">
  <ele>-19.131</ele>
  <time>2026-09-01T01:13:40Z</time>
  <course>186.32</course>
  <speed>0.022360679774997897</speed>
  <fix>3d</fix>
</trkpt>
<trkpt lat="33.8103132" lon="-118.3938671">
  <ele>-19.192</ele>
  <time>2026-09-01T01:13:40Z</time>
  <course>186.32</course>
  <speed>0.022360679774997897</speed>
  <fix>3d</fix>
</trkpt>
<trkpt lat="33.810313" lon="-118.393867">
  <ele>-18.59</ele>
  <time>2026-09-01T01:13:40Z</time>
  <course>0.0</course>
  <speed>0.0</speed>
  <fix>3d</fix>
</trkpt>
<trkpt lat="33.8103132" lon="-118.3938671">
  <ele>-19.193</ele>
  <time>2026-09-01T01:13:40Z</time>
  <course>186.32</course>
  <speed>0.022360679774997897</speed>
  <fix>3d</fix>
</trkpt>
<trkpt lat="33.8103132" lon="-118.3938671">
  <ele>-19.254</ele>
  <time>2026-09-01T01:13:40Z</time>
  <course>186.32</course>
  <speed>0.022360679774997897</speed>
  <fix>3d</fix>
</trkpt>
<trkpt lat="33.810313" lon="-118.393867">
  <ele>-18.59</ele>
  <time>2026-09-01T01:13:40Z</time>
  <course>0.0</course>
  <speed>0.0</speed>
  <fix>3d</fix>
</trkpt>
<trkpt lat="33.8103132" lon="-118.3938671">
  <ele>-19.275</ele>
  <time>2026-09-01T01:13:40Z</time>
  <course>186.31</course>
  <speed>0.022360679774997897</speed>
  <fix>3d</fix>
</trkpt>
<trkpt lat="33.8103132" lon="-118.3938671">
  <ele>-19.316</ele>
  <time>2026-09-01T01:13:40Z</time>
  <course>186.31</course>
  <speed>0.022360679774997897</speed>
  <fix>3d</fix>
</trkpt>
<trkpt lat="33.810313" lon="-118.393867">
  <ele>-18.71</ele>
  <time>2026-09-01T01:13:40Z</time>
  <course>0.0</course>
  <speed>0.0</speed>
  <fix>3d</fix>
</trkpt>
<trkpt lat="33.8103132" lon="-118.3938671">
  <ele>-19.336</ele>
  <time>2026-09-01T01:13:40Z</time>
  <course>186.31</course>
  <speed>0.022360679774997897</speed>
  <fix>3d</fix>
</trkpt>
<trkpt lat="33.8103132" lon="-118.3938671">
  <ele>-19.378</ele>
  <time>2026-09-01T01:13:40Z</time>
  <course>186.31</course>
  <speed>0.022360679774997897</speed>
  <fix>3d</fix>
</trkpt>
<trkpt lat="33.810313" lon="-118.393867">
  <ele>-18.71</ele>
  <time>2026-09-01T01:13:40Z</time>
  <course>0.0</course>
  <speed>0.0</speed>
  <fix>3d</fix>
</trkpt>
<trkpt lat="33.8103132" lon="-118.3938671">
  <ele>-19.399</ele>
  <time>2026-09-01T01:13:40Z</time>
  <course>186.31</course>
  <speed>0.022360679774997897</speed>
  <fix>3d</fix>
</trkpt>
<trkpt lat="33.8103132" lon="-118.3938671">
  <ele>-19.439</ele>
  <time>2026-09-01T01:13:40Z</time>
  <course>186.31</course>
  <speed>0.022360679774997897</speed>
  <fix>3d</fix>
</trkpt>
<trkpt lat="33.810313" lon="-118.393867">
  <ele>-18.83</ele>
  <time>2026-09-01T01:13:40Z</time>
  <course>0.0</course>
  <speed>0.0</speed>
  <fix>3d</fix>
</trkpt>
<trkpt lat="33.8103132" lon="-118.3938671">
  <ele>-19.441</ele>
  <time>2026-09-01T01:13:40Z</time>
  <course>186.31</course>
  <speed>0.022360679774997897</speed>
  <fix>3d</fix>
</trkpt>
<trkpt lat="33.8103132" lon="-118.3938671">
  <ele>-19.5</ele>
  <time>2026-09-01T01:13:40Z</time>
  <course>186.3</course>
  <speed>0.022360679774997897</speed>
  <fix>3d</fix>
</trkpt>
<trkpt lat="33.810313" lon="-118.393867">
  <ele>-18.83</ele>
  <time>2026-09-01T01:13:40Z</time>
  <course>0.0</course>
  <speed>0.0</speed>
  <fix>3d</fix>
</trkpt>
<trkpt lat="33.8103132" lon="-118.3938671">
  <ele>-19.518</ele>
  <time>2026-09-01T01:13:40Z</time>
  <course>186.3</course>
  <speed>0.022360679774997897</speed>
  <fix>3d</fix>
</trkpt>
<trkpt lat="33.8103132" lon="-118.3938671">
  <ele>-19.56</ele>
  <time>2026-09-01T01:13:40Z</time>
  <course>186.3</course>
  <speed>0.022360679774997897</speed>
  <fix>3d</fix>
</trkpt>
<trkpt lat="33.810313" lon="-118.393867">
  <ele>-18.95</ele>
  <time>2026-09-01T01:13:40Z</time>
  <course>0.0</course>
  <speed>0.0</speed>
  <fix>3d</fix>
</trkpt>
<trkpt lat="33.8103132" lon="-118.3938671">
  <ele>-19.582</ele>
  <time>2026-09-01T01:13:40Z</time>
  <course>186.3</course>
  <speed>0.022360679774997897</speed>
  <fix>3d</fix>
</trkpt>
<trkpt lat="33.8103132" lon="-118.3938671">
  <ele>-19.621</ele>
  <time>2026-09-01T01:13:40Z</time>
  <course>186.3</course>
  <speed>0.022360679774997897</speed>
  <fix>3d</fix>
</trkpt>
<trkpt lat="33.810313" lon="-118.393867">
  <ele>-18.95</ele>
  <time>2026-09-01T01:13:40Z</time>
  <course>0.0</course>
  <speed>0.0</speed>
  <fix>3d</fix>
</trkpt>
<trkpt lat="33.8103132" lon="-118.3938671">
  <ele>-19.642</ele>
  <time>2026-09-01T01:13:40Z</time>
  <course>186.29</course>
  <speed>0.022360679774997897</speed>
  <fix>3d</fix>
</trkpt>
<trkpt lat="33.8103132" lon="-118.3938671">
  <ele>-19.681</ele>
  <time>2026-09-01T01:13:40Z</time>
  <course>186.29</course>
  <speed>0.022360679774997897</speed>
  <fix>3d</fix>
</trkpt>
<trkpt lat="33.810313" lon="-118.393867">
  <ele>-19.08</ele>
  <time>2026-09-01T01:13:40Z</time>
  <course>0.0</course>
  <speed>0.0</speed>
  <fix>3d</fix>
</trkpt>
<trkpt lat="33.8103132" lon="-118.3938671">
  <ele>-19.682</ele>
  <time>2026-09-01T01:13:40Z</time>
  <course>186.29</course>
  <speed>0.022360679774997897</speed>
  <fix>3d</fix>
</trkpt>
<trkpt lat="33.8103132" lon="-118.3938671">
  <ele>-19.742</ele>
  <time>2026-09-01T01:13:40Z</time>
  <course>186.29</course>
  <speed>0.022360679774997897</speed>
  <fix>3d</fix>
</trkpt>
<trkpt lat="33.810313" lon="-118.393867">
  <ele>-19.08</ele>
  <time>2026-09-01T01:13:40Z</time>
  <course>0.0</course>
  <speed>0.0</speed>
  <fix>3d</fix>
</trkpt>
<trkpt lat="33.8103132" lon="-118.3938671">
  <ele>-19.743</ele>
  <time>2026-09-01T01:13:40Z</time>
  <course>186.29</course>
  <speed>0.022360679774997897</speed>
  <fix>3d</fix>
</trkpt>
<trkpt lat="33.8103132" lon="-118.3938671">
  <ele>-19.802</ele>
  <time>2026-09-01T01:13:40Z</time>
  <course>186.29</course>
  <speed>0.022360679774997897</speed>
  <fix>3d</fix>
</trkpt>
<trkpt lat="33.810313" lon="-118.393867">
  <ele>-19.2</ele>
  <time>2026-09-01T01:13:40Z</time>
  <course>0.0</course>
  <speed>0.0</speed>
  <fix>3d</fix>
</trkpt>
<trkpt lat="33.8103132" lon="-118.3938671">
  <ele>-19.804</ele>
  <time>2026-09-01T01:13:40Z</time>
  <course>186.29</course>
  <speed>0.022360679774997897</speed>
  <fix>3d</fix>
</trkpt>
<trkpt lat="33.8103132" lon="-118.3938671">
  <ele>-19.863</ele>
  <time>2026-09-01T01:13:40Z</time>
  <course>186.28</course>
  <speed>0.022360679774997897</speed>
  <fix>3d</fix>
</trkpt>
<trkpt lat="33.810313" lon="-118.393867">
  <ele>-19.2</ele>
  <time>2026-09-01T01:13:40Z</time>
  <course>0.0</course>
  <speed>0.0</speed>
  <fix>3d</fix>
</trkpt>
<trkpt lat="33.8103132" lon="-118.3938671">
  <ele>-19.864</ele>
  <time>2026-09-01T01:13:40Z</time>
  <course>186.28</course>
  <speed>0.022360679774997897</speed>
  <fix>3d</fix>
</trkpt>
<trkpt lat="33.8103132" lon="-118.3938671">
  <ele>-19.923</ele>
  <time>2026-09-01T01:13:40Z</time>
  <course>186.28</course>
  <speed>0.022360679774997897</speed>
  <fix>3d</fix>
</trkpt>
<trkpt lat="33.810313" lon="-118.393867">
  <ele>-19.32</ele>
  <time>2026-09-01T01:13:40Z</time>
  <course>0.0</course>
  <speed>0.0</speed>
  <fix>3d</fix>
</trkpt>
<trkpt lat="33.8103132" lon="-118.3938671">
  <ele>-19.944</ele>
  <time>2026-09-01T01:13:40Z</time>
  <course>186.28</course>
  <speed>0.022360679774997897</speed>
  <fix>3d</fix>
</trkpt>
<trkpt lat="33.8103132" lon="-118.3938671">
  <ele>-19.984</ele>
  <time>2026-09-01T01:13:40Z</time>
  <course>186.27</course>
  <speed>0.022360679774997897</speed>
  <fix>3d</fix>
</trkpt>
<trkpt lat="33.810313" lon="-118.393867">
  <ele>-19.32</ele>
  <time>2026-09-01T01:13:40Z</time>
  <course>0.0</course>
  <speed>0.0</speed>
  <fix>3d</fix>
</trkpt>
<trkpt lat="33.8103132" lon="-118.3938671">
  <ele>-20.003</ele>
  <time>2026-09-01T01:13:40Z</time>
  <course>186.27</course>
  <speed>0.022360679774997897</speed>
  <fix>3d</fix>
</trkpt>
<trkpt lat="33.8103132" lon="-118.3938671">
  <ele>-20.045</ele>
  <time>2026-09-01T01:13:40Z</time>
  <course>186.27</course>
  <speed>0.022360679774997897</speed>
  <fix>3d</fix>
</trkpt>
<trkpt lat="33.810313" lon="-118.393867">
  <ele>-19.43</ele>
  <time>2026-09-01T01:13:40Z</time>
  <course>0.0</course>
  <speed>0.0</speed>
  <fix>3d</fix>
</trkpt>
<trkpt lat="33.8103132" lon="-118.3938671">
  <ele>-20.046</ele>
  <time>2026-09-01T01:13:40Z</time>
  <course>186.27</course>
  <speed>0.022360679774997897</speed>
  <fix>3d</fix>
</trkpt>
<trkpt lat="33.8103132" lon="-118.3938671">
  <ele>-20.106</ele>
  <time>2026-09-01T01:13:40Z</time>
  <course>186.27</course>
  <speed>0.022360679774997897</speed>
  <fix>3d</fix>
</trkpt>
<trkpt lat="33.810313" lon="-118.393867">
  <ele>-19.43</ele>
  <time>2026-09-01T01:13:40Z</time>
  <course>0.0</course>
  <speed>0.0</speed>
  <fix>3d</fix>
</trkpt>
<trkpt lat="33.8103132" lon="-118.3938671">
  <ele>-20.133</ele>
  <time>2026-09-01T01:13:40Z</time>
  <course>186.27</course>
  <speed>0.022360679774997897</speed>
  <fix>3d</fix>
</trkpt>
<trkpt lat="33.8103132" lon="-118.3938671">
  <ele>-20.168</ele>
  <time>2026-09-01T01:13:40Z</time>
  <course>186.26</course>
  <speed>0.022360679774997897</speed>
  <fix>3d</fix>
</trkpt>
<trkpt lat="33.810313" lon="-118.393867">
  <ele>-19.56</ele>
  <time>2026-09-01T01:13:40Z</time>
  <course>0.0</course>
  <speed>0.0</speed>
  <fix>3d</fix>
</trkpt>
<trkpt lat="33.8103132" lon="-118.3938671">
  <ele>-20.188</ele>
  <time>2026-09-01T01:13:40Z</time>
  <course>186.26</course>
  <speed>0.022360679774997897</speed>
  <fix>3d</fix>
</trkpt>
<trkpt lat="33.8103132" lon="-118.3938671">
  <ele>-20.231</ele>
  <time>2026-09-01T01:13:40Z</time>
  <course>186.26</course>
  <speed>0.022360679774997897</speed>
  <fix>3d</fix>
</trkpt>
<trkpt lat="33.810313" lon="-118.393867">
  <ele>-19.56</ele>
  <time>2026-09-01T01:13:40Z</time>
  <course>0.0</course>
  <speed>0.0</speed>
  <fix>3d</fix>
</trkpt>
<trkpt lat="33.8103132" lon="-118.3938671">
  <ele>-20.254</ele>
  <time>2026-09-01T01:13:40Z</time>
  <course>186.26</course>
  <speed>0.022360679774997897</speed>
  <fix>3d</fix>
</trkpt>
<trkpt lat="33.8103132" lon="-118.3938671">
  <ele>-20.293</ele>
  <time>2026-09-01T01:13:40Z</time>
  <course>186.26</course>
  <speed>0.022360679774997897</speed>
  <fix>3d</fix>
</trkpt>
<trkpt lat="33.810313" lon="-118.393867">
  <ele>-19.68</ele>
  <time>2026-09-01T01:13:40Z</time>
  <course>0.0</course>
  <speed>0.0</speed>
  <fix>3d</fix>
</trkpt>
<trkpt lat="33.8103132" lon="-118.3938671">
  <ele>-20.315</ele>
  <time>2026-09-01T01:13:40Z</time>
  <course>186.26</course>
  <speed>0.022360679774997897</speed>
  <fix>3d</fix>
</trkpt>
<trkpt lat="33.8103132" lon="-118.3938671">
  <ele>-20.356</ele>
  <time>2026-09-01T01:13:40Z</time>
  <course>186.25</course>
  <speed>0.022360679774997897</speed>
  <fix>3d</fix>
</trkpt>
<trkpt lat="33.810313" lon="-118.393867">
  <ele>-19.68</ele>
  <time>2026-09-01T01:13:40Z</time>
  <course>0.0</course>
  <speed>0.0</speed>
  <fix>3d</fix>
</trkpt>
<trkpt lat="33.8103132" lon="-118.3938671">
  <ele>-20.376</ele>
  <time>2026-09-01T01:13:40Z</time>
  <course>186.25</course>
  <speed>0.022360679774997897</speed>
  <fix>3d</fix>
</trkpt>
<trkpt lat="33.8103132" lon="-118.3938671">
  <ele>-20.419</ele>
  <time>2026-09-01T01:13:40Z</time>
  <course>186.25</course>
  <speed>0.022360679774997897</speed>
  <fix>3d</fix>
</trkpt>
<trkpt lat="33.810313" lon="-118.393867">
  <ele>-19.8</ele>
  <time>2026-09-01T01:13:40Z</time>
  <course>0.0</course>
  <speed>0.0</speed>
  <fix>3d</fix>
</trkpt>
<trkpt lat="33.8103132" lon="-118.3938671">
  <ele>-20.442</ele>
  <time>2026-09-01T01:13:40Z</time>
  <course>186.25</course>
  <speed>0.022360679774997897</speed>
  <fix>3d</fix>
</trkpt>
<trkpt lat="33.8103132" lon="-118.3938671">
  <ele>-20.481</ele>
  <time>2026-09-01T01:13:40Z</time>
  <course>186.25</course>
  <speed>0.022360679774997897</speed>
  <fix>3d</fix>
</trkpt>
<trkpt lat="33.810313" lon="-118.393867">
  <ele>-19.8</ele>
  <time>2026-09-01T01:13:40Z</time>
  <course>0.0</course>
  <speed>0.0</speed>
  <fix>3d</fix>
</trkpt>
<trkpt lat="33.8103132" lon="-118.3938671">
  <ele>-20.484</ele>
  <time>2026-09-01T01:13:40Z</time>
  <course>186.25</course>
  <speed>0.022360679774997897</speed>
  <fix>3d</fix>
</trkpt>
<trkpt lat="33.8103132" lon="-118.3938671">
  <ele>-20.544</ele>
  <time>2026-09-01T01:13:40Z</time>
  <course>186.24</course>
  <speed>0.022360679774997897</speed>
  <fix>3d</fix>
</trkpt>
<trkpt lat="33.810313" lon="-118.393867">
  <ele>-19.92</ele>
  <time>2026-09-01T01:13:40Z</time>
  <course>0.0</course>
  <speed>0.0</speed>
  <fix>3d</fix>
</trkpt>
<trkpt lat="33.8103132" lon="-118.3938671">
  <ele>-20.564</ele>
  <time>2026-09-01T01:13:40Z</time>
  <course>186.24</course>
  <speed>0.022360679774997897</speed>
  <fix>3d</fix>
</trkpt>
<trkpt lat="33.8103132" lon="-118.3938671">
  <ele>-20.607</ele>
  <time>2026-09-01T01:13:40Z</time>
  <course>186.24</course>
  <speed>0.022360679774997897</speed>
  <fix>3d</fix>
</trkpt>
<trkpt lat="33.810313" lon="-118.393867">
  <ele>-19.92</ele>
  <time>2026-09-01T01:13:40Z</time>
  <course>0.0</course>
  <speed>0.0</speed>
  <fix>3d</fix>
</trkpt>
<trkpt lat="33.8103132" lon="-118.3938671">
  <ele>-20.628</ele>
  <time>2026-09-01T01:13:40Z</time>
  <course>186.24</course>
  <speed>0.022360679774997897</speed>
  <fix>3d</fix>
</trkpt>
<trkpt lat="33.8103132" lon="-118.3938671">
  <ele>-20.671</ele>
  <time>2026-09-01T01:13:40Z</time>
  <course>186.24</course>
  <speed>0.022360679774997897</speed>
  <fix>3d</fix>
</trkpt>
<trkpt lat="33.810313" lon="-118.393867">
  <ele>-20.04</ele>
  <time>2026-09-01T01:13:40Z</time>
  <course>0.0</course>
  <speed>0.0</speed>
  <fix>3d</fix>
</trkpt>
<trkpt lat="33.8103132" lon="-118.3938671">
  <ele>-20.691</ele>
  <time>2026-09-01T01:13:40Z</time>
  <course>186.23</course>
  <speed>0.022360679774997897</speed>
  <fix>3d</fix>
</trkpt>
<trkpt lat="33.8103132" lon="-118.3938671">
  <ele>-20.734</ele>
  <time>2026-09-01T01:13:40Z</time>
  <course>186.23</course>
  <speed>0.022360679774997897</speed>
  <fix>3d</fix>
</trkpt>
<trkpt lat="33.810313" lon="-118.393867">
  <ele>-20.04</ele>
  <time>2026-09-01T01:13:40Z</time>
  <course>0.0</course>
  <speed>0.0</speed>
  <fix>3d</fix>
</trkpt>
<trkpt lat="33.8103132" lon="-118.3938671">
  <ele>-20.753</ele>
  <time>2026-09-01T01:13:40Z</time>
  <course>186.23</course>
  <speed>0.022360679774997897</speed>
  <fix>3d</fix>
</trkpt>
<trkpt lat="33.8103132" lon="-118.3938671">
  <ele>-20.796</ele>
  <time>2026-09-01T01:13:40Z</time>
  <course>186.23</course>
  <speed>0.022360679774997897</speed>
  <fix>3d</fix>
</trkpt>
<trkpt lat="33.810313" lon="-118.393867">
  <ele>-20.16</ele>
  <time>2026-09-01T01:13:40Z</time>
  <course>0.0</course>
  <speed>0.0</speed>
  <fix>3d</fix>
</trkpt>
<trkpt lat="33.8103132" lon="-118.3938671">
  <ele>-20.815</ele>
  <time>2026-09-01T01:13:40Z</time>
  <course>186.23</course>
  <speed>0.022360679774997897</speed>
  <fix>3d</fix>
</trkpt>
<trkpt lat="33.8103132" lon="-118.3938671">
  <ele>-20.86</ele>
  <time>2026-09-01T01:13:40Z</time>
  <course>186.22</course>
  <speed>0.022360679774997897</speed>
  <fix>3d</fix>
</trkpt>
<trkpt lat="33.810313" lon="-118.393867">
  <ele>-20.16</ele>
  <time>2026-09-01T01:13:40Z</time>
  <course>0.0</course>
  <speed>0.0</speed>
  <fix>3d</fix>
</trkpt>
<trkpt lat="33.8103132" lon="-118.3938671">
  <ele>-20.882</ele>
  <time>2026-09-01T01:13:40Z</time>
  <course>186.22</course>
  <speed>0.022360679774997897</speed>
  <fix>3d</fix>
</trkpt>
<trkpt lat="33.8103132" lon="-118.3938671">
  <ele>-20.924</ele>
  <time>2026-09-01T01:13:40Z</time>
  <course>186.22</course>
  <speed>0.022360679774997897</speed>
  <fix>3d</fix>
</trkpt>
<trkpt lat="33.810313" lon="-118.393867">
  <ele>-20.27</ele>
  <time>2026-09-01T01:13:40Z</time>
  <course>0.0</course>
  <speed>0.0</speed>
  <fix>3d</fix>
</trkpt>
<trkpt lat="33.8103132" lon="-118.3938671">
  <ele>-20.946</ele>
  <time>2026-09-01T01:13:40Z</time>
  <course>186.22</course>
  <speed>0.022360679774997897</speed>
  <fix>3d</fix>
</trkpt>
<trkpt lat="33.8103132" lon="-118.3938671">
  <ele>-20.988</ele>
  <time>2026-09-01T01:13:40Z</time>
  <course>186.22</course>
  <speed>0.022360679774997897</speed>
  <fix>3d</fix>
</trkpt>
<trkpt lat="33.810313" lon="-118.393867">
  <ele>-20.27</ele>
  <time>2026-09-01T01:13:40Z</time>
  <course>0.0</course>
  <speed>0.0</speed>
  <fix>3d</fix>
</trkpt>
<trkpt lat="33.8103132" lon="-118.3938671">
  <ele>-20.989</ele>
  <time>2026-09-01T01:13:40Z</time>
  <course>186.22</course>
  <speed>0.022360679774997897</speed>
  <fix>3d</fix>
</trkpt>
<trkpt lat="33.8103132" lon="-118.3938671">
  <ele>-21.052</ele>
  <time>2026-09-01T01:13:40Z</time>
  <course>186.21</course>
  <speed>0.022360679774997897</speed>
  <fix>3d</fix>
</trkpt>
<trkpt lat="33.810313" lon="-118.393867">
  <ele>-20.4</ele>
  <time>2026-09-01T01:13:40Z</time>
  <course>0.0</course>
  <speed>0.0</speed>
  <fix>3d</fix>
</trkpt>
<trkpt lat="33.8103132" lon="-118.3938671">
  <ele>-21.054</ele>
  <time>2026-09-01T01:13:40Z</time>
  <course>186.21</course>
  <speed>0.022360679774997897</speed>
  <fix>3d</fix>
</trkpt>
<trkpt lat="33.8103132" lon="-118.3938671">
  <ele>-21.116</ele>
  <time>2026-09-01T01:13:40Z</time>
  <course>186.21</course>
  <speed>0.022360679774997897</speed>
  <fix>3d</fix>
</trkpt>
<trkpt lat="33.810313" lon="-118.393867">
  <ele>-20.4</ele>
  <time>2026-09-01T01:13:40Z</time>
  <course>0.0</course>
  <speed>0.0</speed>
  <fix>3d</fix>
</trkpt>
<trkpt lat="33.8103132" lon="-118.3938671">
  <ele>-21.14</ele>
  <time>2026-09-01T01:13:40Z</time>
  <course>186.21</course>
  <speed>0.022360679774997897</speed>
  <fix>3d</fix>
</trkpt>
<trkpt lat="33.8103132" lon="-118.3938671">
  <ele>-21.18</ele>
  <time>2026-09-01T01:13:40Z</time>
  <course>186.21</course>
  <speed>0.022360679774997897</speed>
  <fix>3d</fix>
</trkpt>
<trkpt lat="33.810313" lon="-118.393867">
  <ele>-20.52</ele>
  <time>2026-09-01T01:13:40Z</time>
  <course>0.0</course>
  <speed>0.0</speed>
  <fix>3d</fix>
</trkpt>
<trkpt lat="33.8103132" lon="-118.3938671">
  <ele>-21.181</ele>
  <time>2026-09-01T01:13:40Z</time>
  <course>186.21</course>
  <speed>0.022360679774997897</speed>
  <fix>3d</fix>
</trkpt>
<trkpt lat="33.8103132" lon="-118.3938671">
  <ele>-21.242</ele>
  <time>2026-09-01T01:13:40Z</time>
  <course>186.2</course>
  <speed>0.022360679774997897</speed>
  <fix>3d</fix>
</trkpt>
<trkpt lat="33.810313" lon="-118.393867">
  <ele>-20.52</ele>
  <time>2026-09-01T01:13:40Z</time>
  <course>0.0</course>
  <speed>0.0</speed>
  <fix>3d</fix>
</trkpt>
<trkpt lat="33.8103132" lon="-118.3938671">
  <ele>-21.263</ele>
  <time>2026-09-01T01:13:40Z</time>
  <course>186.2</course>
  <speed>0.022360679774997897</speed>
  <fix>3d</fix>
</trkpt>
<trkpt lat="33.8103132" lon="-118.3938671">
  <ele>-21.305</ele>
  <time>2026-09-01T01:13:40Z</time>
  <course>186.2</course>
  <speed>0.022360679774997897</speed>
  <fix>3d</fix>
</trkpt>
<trkpt lat="33.810313" lon="-118.393867">
  <ele>-20.64</ele>
  <time>2026-09-01T01:13:40Z</time>
  <course>0.0</course>
  <speed>0.0</speed>
  <fix>3d</fix>
</trkpt>
<trkpt lat="33.8103132" lon="-118.3938671">
  <ele>-21.306</ele>
  <time>2026-09-01T01:13:40Z</time>
  <course>186.2</course>
  <speed>0.022360679774997897</speed>
  <fix>3d</fix>
</trkpt>
<trkpt lat="33.8103132" lon="-118.3938671">
  <ele>-21.367</ele>
  <time>2026-09-01T01:13:40Z</time>
  <course>186.19</course>
  <speed>0.022360679774997897</speed>
  <fix>3d</fix>
</trkpt>
<trkpt lat="33.810313" lon="-118.393867">
  <ele>-20.64</ele>
  <time>2026-09-01T01:13:40Z</time>
  <course>0.0</course>
  <speed>0.0</speed>
  <fix>3d</fix>
</trkpt>
<trkpt lat="33.8103132" lon="-118.3938671">
  <ele>-21.368</ele>
  <time>2026-09-01T01:13:40Z</time>
  <course>186.19</course>
  <speed>0.022360679774997897</speed>
  <fix>3d</fix>
</trkpt>
<trkpt lat="33.8103132" lon="-118.3938671">
  <ele>-21.428</ele>
  <time>2026-09-01T01:13:40Z</time>
  <course>186.19</course>
  <speed>0.022360679774997897</speed>
  <fix>3d</fix>
</trkpt>
<trkpt lat="33.810313" lon="-118.393867">
  <ele>-20.77</ele>
  <time>2026-09-01T01:13:40Z</time>
  <course>0.0</course>
  <speed>0.0</speed>
  <fix>3d</fix>
</trkpt>
<trkpt lat="33.8103132" lon="-118.3938671">
  <ele>-21.448</ele>
  <time>2026-09-01T01:13:40Z</time>
  <course>186.19</course>
  <speed>0.022360679774997897</speed>
  <fix>3d</fix>
</trkpt>
<trkpt lat="33.8103132" lon="-118.3938671">
  <ele>-21.488</ele>
  <time>2026-09-01T01:13:40Z</time>
  <course>186.19</course>
  <speed>0.022360679774997897</speed>
  <fix>3d</fix>
</trkpt>
<trkpt lat="33.810313" lon="-118.393867">
  <ele>-20.77</ele>
  <time>2026-09-01T01:13:40Z</time>
  <course>0.0</course>
  <speed>0.0</speed>
  <fix>3d</fix>
</trkpt>
<trkpt lat="33.8103132" lon="-118.3938671">
  <ele>-21.509</ele>
  <time>2026-09-01T01:13:40Z</time>
  <course>186.19</course>
  <speed>0.022360679774997897</speed>
  <fix>3d</fix>
</trkpt>
<trkpt lat="33.8103132" lon="-118.3938671">
  <ele>-21.548</ele>
  <time>2026-09-01T01:13:40Z</time>
  <course>186.18</course>
  <speed>0.022360679774997897</speed>
  <fix>3d</fix>
</trkpt>
<trkpt lat="33.810313" lon="-118.393867">
  <ele>-20.89</ele>
  <time>2026-09-01T01:13:40Z</time>
  <course>0.0</course>
  <speed>0.0</speed>
  <fix>3d</fix>
</trkpt>
<trkpt lat="33.8103132" lon="-118.3938671">
  <ele>-21.568</ele>
  <time>2026-09-01T01:13:40Z</time>
  <course>186.18</course>
  <speed>0.022360679774997897</speed>
  <fix>3d</fix>
</trkpt>
<trkpt lat="33.8103132" lon="-118.3938671">
  <ele>-21.608</ele>
  <time>2026-09-01T01:13:40Z</time>
  <course>186.18</course>
  <speed>0.022360679774997897</speed>
  <fix>3d</fix>
</trkpt>
<trkpt lat="33.810313" lon="-118.393867">
  <ele>-20.89</ele>
  <time>2026-09-01T01:13:40Z</time>
  <course>0.0</course>
  <speed>0.0</speed>
  <fix>3d</fix>
</trkpt>
<trkpt lat="33.8103132" lon="-118.3938671">
  <ele>-21.651</ele>
  <time>2026-09-01T01:13:40Z</time>
  <course>186.18</course>
  <speed>0.022360679774997897</speed>
  <fix>3d</fix>
</trkpt>
<trkpt lat="33.8103132" lon="-118.3938671">
  <ele>-21.667</ele>
  <time>2026-09-01T01:13:40Z</time>
  <course>186.17</course>
  <speed>0.022360679774997897</speed>
  <fix>3d</fix>
</trkpt>
<trkpt lat="33.810313" lon="-118.393867">
  <ele>-21.01</ele>
  <time>2026-09-01T01:13:40Z</time>
  <course>0.0</course>
  <speed>0.0</speed>
  <fix>3d</fix>
</trkpt>
<trkpt lat="33.8103132" lon="-118.3938671">
  <ele>-21.725</ele>
  <time>2026-09-01T01:13:40Z</time>
  <course>186.17</course>
  <speed>0.022360679774997897</speed>
  <fix>3d</fix>
</trkpt>
<trkpt lat="33.810313" lon="-118.393867">
  <ele>-21.01</ele>
  <time>2026-09-01T01:13:40Z</time>
  <course>0.0</course>
  <speed>0.0</speed>
  <fix>3d</fix>
</trkpt>
<trkpt lat="33.8103132" lon="-118.3938671">
  <ele>-21.727</ele>
  <time>2026-09-01T01:13:40Z</time>
  <course>186.17</course>
  <speed>0.022360679774997897</speed>
  <fix>3d</fix>
</trkpt>
<trkpt lat="33.8103132" lon="-118.3938671">
  <ele>-21.783</ele>
  <time>2026-09-01T01:13:40Z</time>
  <course>186.17</course>
  <speed>0.022360679774997897</speed>
  <fix>3d</fix>
</trkpt>
<trkpt lat="33.810313" lon="-118.393867">
  <ele>-21.13</ele>
  <time>2026-09-01T01:13:40Z</time>
  <course>0.0</course>
  <speed>0.0</speed>
  <fix>3d</fix>
</trkpt>
<trkpt lat="33.8103132" lon="-118.3938671">
  <ele>-21.803</ele>
  <time>2026-09-01T01:13:40Z</time>
  <course>186.17</course>
  <speed>0.022360679774997897</speed>
  <fix>3d</fix>
</trkpt>
<trkpt lat="33.8103132" lon="-118.3938671">
  <ele>-21.841</ele>
  <time>2026-09-01T01:13:40Z</time>
  <course>186.16</course>
  <speed>0.022360679774997897</speed>
  <fix>3d</fix>
</trkpt>
<trkpt lat="33.810313" lon="-118.393867">
  <ele>-21.13</ele>
  <time>2026-09-01T01:13:40Z</time>
  <course>0.0</course>
  <speed>0.0</speed>
  <fix>3d</fix>
</trkpt>
<trkpt lat="33.8103132" lon="-118.3938671">
  <ele>-21.842</ele>
  <time>2026-09-01T01:13:40Z</time>
  <course>186.16</course>
  <speed>0.022360679774997897</speed>
  <fix>3d</fix>
</trkpt>
<trkpt lat="33.8103132" lon="-118.3938671">
  <ele>-21.899</ele>
  <time>2026-09-01T01:13:40Z</time>
  <course>186.16</course>
  <speed>0.022360679774997897</speed>
  <fix>3d</fix>
</trkpt>
<trkpt lat="33.810313" lon="-118.393867">
  <ele>-21.25</ele>
  <time>2026-09-01T01:13:40Z</time>
  <course>0.0</course>
  <speed>0.0</speed>
  <fix>3d</fix>
</trkpt>
<trkpt lat="33.8103132" lon="-118.3938671">
  <ele>-21.917</ele>
  <time>2026-09-01T01:13:40Z</time>
  <course>186.16</course>
  <speed>0.022360679774997897</speed>
  <fix>3d</fix>
</trkpt>
<trkpt lat="33.8103132" lon="-118.3938671">
  <ele>-21.957</ele>
  <time>2026-09-01T01:13:40Z</time>
  <course>186.15</course>
  <speed>0.022360679774997897</speed>
  <fix>3d</fix>
</trkpt>
<trkpt lat="33.810313" lon="-118.393867">
  <ele>-21.25</ele>
  <time>2026-09-01T01:13:40Z</time>
  <course>0.0</course>
  <speed>0.0</speed>
  <fix>3d</fix>
</trkpt>
<trkpt lat="33.8103132" lon="-118.3938671">
  <ele>-21.976</ele>
  <time>2026-09-01T01:13:40Z</time>
  <course>186.15</course>
  <speed>0.022360679774997897</speed>
  <fix>3d</fix>
</trkpt>
<trkpt lat="33.8103132" lon="-118.3938671">
  <ele>-22.016</ele>
  <time>2026-09-01T01:13:40Z</time>
  <course>186.15</course>
  <speed>0.022360679774997897</speed>
  <fix>3d</fix>
</trkpt>
<trkpt lat="33.810313" lon="-118.393867">
  <ele>-21.36</ele>
  <time>2026-09-01T01:13:40Z</time>
  <course>0.0</course>
  <speed>0.0</speed>
  <fix>3d</fix>
</trkpt>
<trkpt lat="33.8103132" lon="-118.3938671">
  <ele>-22.017</ele>
  <time>2026-09-01T01:13:40Z</time>
  <course>186.15</course>
  <speed>0.022360679774997897</speed>
  <fix>3d</fix>
</trkpt>
<trkpt lat="33.8103132" lon="-118.3938671">
  <ele>-22.075</ele>
  <time>2026-09-01T01:13:40Z</time>
  <course>186.15</course>
  <speed>0.022360679774997897</speed>
  <fix>3d</fix>
</trkpt>
<trkpt lat="33.810313" lon="-118.393867">
  <ele>-21.36</ele>
  <time>2026-09-01T01:13:40Z</time>
  <course>0.0</course>
  <speed>0.0</speed>
  <fix>3d</fix>
</trkpt>
<trkpt lat="33.8103132" lon="-118.3938671">
  <ele>-22.096</ele>
  <time>2026-09-01T01:13:40Z</time>
  <course>186.15</course>
  <speed>0.022360679774997897</speed>
  <fix>3d</fix>
</trkpt>
<trkpt lat="33.8103132" lon="-118.3938671">
  <ele>-22.135</ele>
  <time>2026-09-01T01:13:40Z</time>
  <course>186.14</course>
  <speed>0.022360679774997897</speed>
  <fix>3d</fix>
</trkpt>
<trkpt lat="33.810313" lon="-118.393867">
  <ele>-21.49</ele>
  <time>2026-09-01T01:13:40Z</time>
  <course>0.0</course>
  <speed>0.0</speed>
  <fix>3d</fix>
</trkpt>
<trkpt lat="33.8103132" lon="-118.3938671">
  <ele>-22.154</ele>
  <time>2026-09-01T01:13:40Z</time>
  <course>186.14</course>
  <speed>0.022360679774997897</speed>
  <fix>3d</fix>
</trkpt>
<trkpt lat="33.8103132" lon="-118.3938671">
  <ele>-22.195</ele>
  <time>2026-09-01T01:13:40Z</time>
  <course>186.14</course>
  <speed>0.022360679774997897</speed>
  <fix>3d</fix>
</trkpt>
<trkpt lat="33.810313" lon="-118.393867">
  <ele>-21.49</ele>
  <time>2026-09-01T01:13:40Z</time>
  <course>0.0</course>
  <speed>0.0</speed>
  <fix>3d</fix>
</trkpt>
<trkpt lat="33.8103132" lon="-118.3938671">
  <ele>-22.215</ele>
  <time>2026-09-01T01:13:40Z</time>
  <course>186.14</course>
  <speed>0.022360679774997897</speed>
  <fix>3d</fix>
</trkpt>
<trkpt lat="33.8103132" lon="-118.3938671">
  <ele>-22.257</ele>
  <time>2026-09-01T01:13:40Z</time>
  <course>186.13</course>
  <speed>0.022360679774997897</speed>
  <fix>3d</fix>
</trkpt>
<trkpt lat="33.810313" lon="-118.393867">
  <ele>-21.61</ele>
  <time>2026-09-01T01:13:40Z</time>
  <course>0.0</course>
  <speed>0.0</speed>
  <fix>3d</fix>
</trkpt>
<trkpt lat="33.8103132" lon="-118.3938671">
  <ele>-22.278</ele>
  <time>2026-09-01T01:13:40Z</time>
  <course>186.13</course>
  <speed>0.022360679774997897</speed>
  <fix>3d</fix>
</trkpt>
<trkpt lat="33.8103132" lon="-118.3938671">
  <ele>-22.319</ele>
  <time>2026-09-01T01:13:40Z</time>
  <course>186.13</course>
  <speed>0.022360679774997897</speed>
  <fix>3d</fix>
</trkpt>
<trkpt lat="33.810313" lon="-118.393867">
  <ele>-21.61</ele>
  <time>2026-09-01T01:13:40Z</time>
  <course>0.0</course>
  <speed>0.0</speed>
  <fix>3d</fix>
</trkpt>
<trkpt lat="33.8103132" lon="-118.3938671">
  <ele>-22.341</ele>
  <time>2026-09-01T01:13:40Z</time>
  <course>186.13</course>
  <speed>0.022360679774997897</speed>
  <fix>3d</fix>
</trkpt>
<trkpt lat="33.8103132" lon="-118.3938671">
  <ele>-22.383</ele>
  <time>2026-09-01T01:13:40Z</time>
  <course>186.13</course>
  <speed>0.022360679774997897</speed>
  <fix>3d</fix>
</trkpt>
<trkpt lat="33.810313" lon="-118.393867">
  <ele>-21.73</ele>
  <time>2026-09-01T01:13:40Z</time>
  <course>0.0</course>
  <speed>0.0</speed>
  <fix>3d</fix>
</trkpt>
<trkpt lat="33.8103132" lon="-118.3938671">
  <ele>-22.403</ele>
  <time>2026-09-01T01:13:40Z</time>
  <course>186.13</course>
  <speed>0.022360679774997897</speed>
  <fix>3d</fix>
</trkpt>
<trkpt lat="33.8103132" lon="-118.3938671">
  <ele>-22.447</ele>
  <time>2026-09-01T01:13:40Z</time>
  <course>186.12</course>
  <speed>0.022360679774997897</speed>
  <fix>3d</fix>
</trkpt>
<trkpt lat="33.810313" lon="-118.393867">
  <ele>-21.73</ele>
  <time>2026-09-01T01:13:40Z</time>
  <course>0.0</course>
  <speed>0.0</speed>
  <fix>3d</fix>
</trkpt>
<trkpt lat="33.8103132" lon="-118.3938671">
  <ele>-22.468</ele>
  <time>2026-09-01T01:13:40Z</time>
  <course>186.12</course>
  <speed>0.022360679774997897</speed>
  <fix>3d</fix>
</trkpt>
<trkpt lat="33.8103132" lon="-118.3938671">
  <ele>-22.51</ele>
  <time>2026-09-01T01:13:40Z</time>
  <course>186.12</course>
  <speed>0.022360679774997897</speed>
  <fix>3d</fix>
</trkpt>
<trkpt lat="33.810313" lon="-118.393867">
  <ele>-21.85</ele>
  <time>2026-09-01T01:13:40Z</time>
  <course>0.0</course>
  <speed>0.0</speed>
  <fix>3d</fix>
</trkpt>
<trkpt lat="33.8103132" lon="-118.3938671">
  <ele>-22.512</ele>
  <time>2026-09-01T01:13:40Z</time>
  <course>186.12</course>
  <speed>0.022360679774997897</speed>
  <fix>3d</fix>
</trkpt>
<trkpt lat="33.8103132" lon="-118.3938671">
  <ele>-22.572</ele>
  <time>2026-09-01T01:13:40Z</time>
  <course>186.12</course>
  <speed>0.022360679774997897</speed>
  <fix>3d</fix>
</trkpt>
<trkpt lat="33.810313" lon="-118.393867">
  <ele>-21.85</ele>
  <time>2026-09-01T01:13:40Z</time>
  <course>0.0</course>
  <speed>0.0</speed>
  <fix>3d</fix>
</trkpt>
<trkpt lat="33.8103132" lon="-118.3938671">
  <ele>-22.574</ele>
  <time>2026-09-01T01:13:40Z</time>
  <course>186.12</course>
  <speed>0.022360679774997897</speed>
  <fix>3d</fix>
</trkpt>
<trkpt lat="33.8103132" lon="-118.3938671">
  <ele>-22.634</ele>
  <time>2026-09-01T01:13:40Z</time>
  <course>186.11</course>
  <speed>0.022360679774997897</speed>
  <fix>3d</fix>
</trkpt>
<trkpt lat="33.810313" lon="-118.393867">
  <ele>-21.97</ele>
  <time>2026-09-01T01:13:40Z</time>
  <course>0.0</course>
  <speed>0.0</speed>
  <fix>3d</fix>
</trkpt>
<trkpt lat="33.8103132" lon="-118.3938671">
  <ele>-22.654</ele>
  <time>2026-09-01T01:13:40Z</time>
  <course>186.11</course>
  <speed>0.022360679774997897</speed>
  <fix>3d</fix>
</trkpt>
<trkpt lat="33.8103132" lon="-118.3938671">
  <ele>-22.696</ele>
  <time>2026-09-01T01:13:40Z</time>
  <course>186.11</course>
  <speed>0.022360679774997897</speed>
  <fix>3d</fix>
</trkpt>
<trkpt lat="33.810313" lon="-118.393867">
  <ele>-21.97</ele>
  <time>2026-09-01T01:13:40Z</time>
  <course>0.0</course>
  <speed>0.0</speed>
  <fix>3d</fix>
</trkpt>
<trkpt lat="33.8103132" lon="-118.3938671">
  <ele>-22.698</ele>
  <time>2026-09-01T01:13:40Z</time>
  <course>186.11</course>
  <speed>0.022360679774997897</speed>
  <fix>3d</fix>
</trkpt>
<trkpt lat="33.8103132" lon="-118.3938671">
  <ele>-22.758</ele>
  <time>2026-09-01T01:13:40Z</time>
  <course>186.1</course>
  <speed>0.022360679774997897</speed>
  <fix>3d</fix>
</trkpt>
<trkpt lat="33.810313" lon="-118.393867">
  <ele>-22.09</ele>
  <time>2026-09-01T01:13:40Z</time>
  <course>0.0</course>
  <speed>0.0</speed>
  <fix>3d</fix>
</trkpt>
<trkpt lat="33.8103132" lon="-118.3938671">
  <ele>-22.779</ele>
  <time>2026-09-01T01:13:40Z</time>
  <course>186.1</course>
  <speed>0.022360679774997897</speed>
  <fix>3d</fix>
</trkpt>
<trkpt lat="33.8103132" lon="-118.3938671">
  <ele>-22.821</ele>
  <time>2026-09-01T01:13:40Z</time>
  <course>186.1</course>
  <speed>0.022360679774997897</speed>
  <fix>3d</fix>
</trkpt>
<trkpt lat="33.810313" lon="-118.393867">
  <ele>-22.09</ele>
  <time>2026-09-01T01:13:40Z</time>
  <course>0.0</course>
  <speed>0.0</speed>
  <fix>3d</fix>
</trkpt>
<trkpt lat="33.8103132" lon="-118.3938671">
  <ele>-22.843</ele>
  <time>2026-09-01T01:13:40Z</time>
  <course>186.1</course>
  <speed>0.022360679774997897</speed>
  <fix>3d</fix>
</trkpt>
<trkpt lat="33.8103132" lon="-118.3938671">
  <ele>-22.883</ele>
  <time>2026-09-01T01:13:40Z</time>
  <course>186.09</course>
  <speed>0.022360679774997897</speed>
  <fix>3d</fix>
</trkpt>
<trkpt lat="33.810313" lon="-118.393867">
  <ele>-22.21</ele>
  <time>2026-09-01T01:13:40Z</time>
  <course>0.0</course>
  <speed>0.0</speed>
  <fix>3d</fix>
</trkpt>
<trkpt lat="33.8103132" lon="-118.3938671">
  <ele>-22.885</ele>
  <time>2026-09-01T01:13:40Z</time>
  <course>186.09</course>
  <speed>0.022360679774997897</speed>
  <fix>3d</fix>
</trkpt>
<trkpt lat="33.8103132" lon="-118.3938671">
  <ele>-22.945</ele>
  <time>2026-09-01T01:13:40Z</time>
  <course>186.09</course>
  <speed>0.022360679774997897</speed>
  <fix>3d</fix>
</trkpt>
<trkpt lat="33.810313" lon="-118.393867">
  <ele>-22.21</ele>
  <time>2026-09-01T01:13:40Z</time>
  <course>0.0</course>
  <speed>0.0</speed>
  <fix>3d</fix>
</trkpt>
<trkpt lat="33.8103132" lon="-118.3938671">
  <ele>-22.965</ele>
  <time>2026-09-01T01:13:40Z</time>
  <course>186.09</course>
  <speed>0.022360679774997897</speed>
  <fix>3d</fix>
</trkpt>
<trkpt lat="33.8103132" lon="-118.3938671">
  <ele>-23.007</ele>
  <time>2026-09-01T01:13:40Z</time>
  <course>186.09</course>
  <speed>0.022360679774997897</speed>
  <fix>3d</fix>
</trkpt>
<trkpt lat="33.810313" lon="-118.393867">
  <ele>-22.33</ele>
  <time>2026-09-01T01:13:40Z</time>
  <course>0.0</course>
  <speed>0.0</speed>
  <fix>3d</fix>
</trkpt>
<trkpt lat="33.8103132" lon="-118.3938671">
  <ele>-23.026</ele>
  <time>2026-09-01T01:13:40Z</time>
  <course>186.09</course>
  <speed>0.022360679774997897</speed>
  <fix>3d</fix>
</trkpt>
<trkpt lat="33.8103132" lon="-118.3938671">
  <ele>-23.069</ele>
  <time>2026-09-01T01:13:40Z</time>
  <course>186.08</course>
  <speed>0.022360679774997897</speed>
  <fix>3d</fix>
</trkpt>
<trkpt lat="33.810313" lon="-118.393867">
  <ele>-22.33</ele>
  <time>2026-09-01T01:13:40Z</time>
  <course>0.0</course>
  <speed>0.0</speed>
  <fix>3d</fix>
</trkpt>
<trkpt lat="33.8103132" lon="-118.3938671">
  <ele>-23.089</ele>
  <time>2026-09-01T01:13:40Z</time>
  <course>186.08</course>
  <speed>0.022360679774997897</speed>
  <fix>3d</fix>
</trkpt>
<trkpt lat="33.8103132" lon="-118.3938671">
  <ele>-23.131</ele>
  <time>2026-09-01T01:13:40Z</time>
  <course>186.08</course>
  <speed>0.022360679774997897</speed>
  <fix>3d</fix>
</trkpt>
<trkpt lat="33.810313" lon="-118.393867">
  <ele>-22.45</ele>
  <time>2026-09-01T01:13:40Z</time>
  <course>0.0</course>
  <speed>0.0</speed>
  <fix>3d</fix>
</trkpt>
<trkpt lat="33.8103132" lon="-118.3938671">
  <ele>-23.151</ele>
  <time>2026-09-01T01:13:40Z</time>
  <course>186.08</course>
  <speed>0.022360679774997897</speed>
  <fix>3d</fix>
</trkpt>
<trkpt lat="33.8103132" lon="-118.3938671">
  <ele>-23.194</ele>
  <time>2026-09-01T01:13:40Z</time>
  <course>186.07</course>
  <speed>0.022360679774997897</speed>
  <fix>3d</fix>
</trkpt>
<trkpt lat="33.810313" lon="-118.393867">
  <ele>-22.45</ele>
  <time>2026-09-01T01:13:40Z</time>
  <course>0.0</course>
  <speed>0.0</speed>
  <fix>3d</fix>
</trkpt>
<trkpt lat="33.8103132" lon="-118.3938671">
  <ele>-23.195</ele>
  <time>2026-09-01T01:13:40Z</time>
  <course>186.07</course>
  <speed>0.022360679774997897</speed>
  <fix>3d</fix>
</trkpt>
<trkpt lat="33.8103132" lon="-118.3938671">
  <ele>-23.257</ele>
  <time>2026-09-01T01:13:40Z</time>
  <course>186.07</course>
  <speed>0.022360679774997897</speed>
  <fix>3d</fix>
</trkpt>
<trkpt lat="33.810313" lon="-118.393867">
  <ele>-22.58</ele>
  <time>2026-09-01T01:13:40Z</time>
  <course>0.0</course>
  <speed>0.0</speed>
  <fix>3d</fix>
</trkpt>
<trkpt lat="33.8103132" lon="-118.3938671">
  <ele>-23.277</ele>
  <time>2026-09-01T01:13:40Z</time>
  <course>186.07</course>
  <speed>0.022360679774997897</speed>
  <fix>3d</fix>
</trkpt>
<trkpt lat="33.8103132" lon="-118.3938671">
  <ele>-23.32</ele>
  <time>2026-09-01T01:13:40Z</time>
  <course>186.07</course>
  <speed>0.022360679774997897</speed>
  <fix>3d</fix>
</trkpt>
<trkpt lat="33.810313" lon="-118.393867">
  <ele>-22.58</ele>
  <time>2026-09-01T01:13:40Z</time>
  <course>0.0</course>
  <speed>0.0</speed>
  <fix>3d</fix>
</trkpt>
<trkpt lat="33.8103132" lon="-118.3938671">
  <ele>-23.34</ele>
  <time>2026-09-01T01:13:40Z</time>
  <course>186.07</course>
  <speed>0.022360679774997897</speed>
  <fix>3d</fix>
</trkpt>
<trkpt lat="33.8103132" lon="-118.3938671">
  <ele>-23.383</ele>
  <time>2026-09-01T01:13:40Z</time>
  <course>186.06</course>
  <speed>0.022360679774997897</speed>
  <fix>3d</fix>
</trkpt>
<trkpt lat="33.810313" lon="-118.393867">
  <ele>-22.7</ele>
  <time>2026-09-01T01:13:40Z</time>
  <course>0.0</course>
  <speed>0.0</speed>
  <fix>3d</fix>
</trkpt>
<trkpt lat="33.8103132" lon="-118.3938671">
  <ele>-23.405</ele>
  <time>2026-09-01T01:13:40Z</time>
  <course>186.06</course>
  <speed>0.022360679774997897</speed>
  <fix>3d</fix>
</trkpt>
<trkpt lat="33.8103132" lon="-118.3938671">
  <ele>-23.445</ele>
  <time>2026-09-01T01:13:40Z</time>
  <course>186.06</course>
  <speed>0.022360679774997897</speed>
  <fix>3d</fix>
</trkpt>
<trkpt lat="33.810313" lon="-118.393867">
  <ele>-22.7</ele>
  <time>2026-09-01T01:13:40Z</time>
  <course>0.0</course>
  <speed>0.0</speed>
  <fix>3d</fix>
</trkpt>
<trkpt lat="33.8103132" lon="-118.3938671">
  <ele>-23.446</ele>
  <time>2026-09-01T01:13:40Z</time>
  <course>186.06</course>
  <speed>0.022360679774997897</speed>
  <fix>3d</fix>
</trkpt>
<trkpt lat="33.8103132" lon="-118.3938671">
  <ele>-23.508</ele>
  <time>2026-09-01T01:13:40Z</time>
  <course>186.05</course>
  <speed>0.022360679774997897</speed>
  <fix>3d</fix>
</trkpt>
<trkpt lat="33.810313" lon="-118.393867">
  <ele>-22.82</ele>
  <time>2026-09-01T01:13:40Z</time>
  <course>0.0</course>
  <speed>0.0</speed>
  <fix>3d</fix>
</trkpt>
<trkpt lat="33.8103132" lon="-118.3938671">
  <ele>-23.509</ele>
  <time>2026-09-01T01:13:40Z</time>
  <course>186.05</course>
  <speed>0.022360679774997897</speed>
  <fix>3d</fix>
</trkpt>
<trkpt lat="33.8103132" lon="-118.3938671">
  <ele>-23.571</ele>
  <time>2026-09-01T01:13:40Z</time>
  <course>186.05</course>
  <speed>0.022360679774997897</speed>
  <fix>3d</fix>
</trkpt>
<trkpt lat="33.810313" lon="-118.393867">
  <ele>-22.82</ele>
  <time>2026-09-01T01:13:40Z</time>
  <course>0.0</course>
  <speed>0.0</speed>
  <fix>3d</fix>
</trkpt>
<trkpt lat="33.8103132" lon="-118.3938671">
  <ele>-23.59</ele>
  <time>2026-09-01T01:13:40Z</time>
  <course>186.05</course>
  <speed>0.022360679774997897</speed>
  <fix>3d</fix>
</trkpt>
<trkpt lat="33.8103132" lon="-118.3938671">
  <ele>-23.634</ele>
  <time>2026-09-01T01:13:40Z</time>
  <course>186.05</course>
  <speed>0.022360679774997897</speed>
  <fix>3d</fix>
</trkpt>
<trkpt lat="33.810313" lon="-118.393867">
  <ele>-22.93</ele>
  <time>2026-09-01T01:13:40Z</time>
  <course>0.0</course>
  <speed>0.0</speed>
  <fix>3d</fix>
</trkpt>
<trkpt lat="33.8103132" lon="-118.3938671">
  <ele>-23.654</ele>
  <time>2026-09-01T01:13:40Z</time>
  <course>186.04</course>
  <speed>0.022360679774997897</speed>
  <fix>3d</fix>
</trkpt>
<trkpt lat="33.8103132" lon="-118.3938671">
  <ele>-23.696</ele>
  <time>2026-09-01T01:13:40Z</time>
  <course>186.04</course>
  <speed>0.022360679774997897</speed>
  <fix>3d</fix>
</trkpt>
<trkpt lat="33.810313" lon="-118.393867">
  <ele>-22.93</ele>
  <time>2026-09-01T01:13:40Z</time>
  <course>0.0</course>
  <speed>0.0</speed>
  <fix>3d</fix>
</trkpt>
<trkpt lat="33.8103132" lon="-118.3938671">
  <ele>-23.715</ele>
  <time>2026-09-01T01:13:40Z</time>
  <course>186.04</course>
  <speed>0.022360679774997897</speed>
  <fix>3d</fix>
</trkpt>
<trkpt lat="33.8103132" lon="-118.3938671">
  <ele>-23.758</ele>
  <time>2026-09-01T01:13:40Z</time>
  <course>186.04</course>
  <speed>0.022360679774997897</speed>
  <fix>3d</fix>
</trkpt>
<trkpt lat="33.810313" lon="-118.393867">
  <ele>-23.06</ele>
  <time>2026-09-01T01:13:40Z</time>
  <course>0.0</course>
  <speed>0.0</speed>
  <fix>3d</fix>
</trkpt>
<trkpt lat="33.8103132" lon="-118.3938671">
  <ele>-23.779</ele>
  <time>2026-09-01T01:13:40Z</time>
  <course>186.04</course>
  <speed>0.022360679774997897</speed>
  <fix>3d</fix>
</trkpt>
<trkpt lat="33.8103132" lon="-118.3938671">
  <ele>-23.82</ele>
  <time>2026-09-01T01:13:40Z</time>
  <course>186.03</course>
  <speed>0.022360679774997897</speed>
  <fix>3d</fix>
</trkpt>
<trkpt lat="33.810313" lon="-118.393867">
  <ele>-23.06</ele>
  <time>2026-09-01T01:13:40Z</time>
  <course>0.0</course>
  <speed>0.0</speed>
  <fix>3d</fix>
</trkpt>
<trkpt lat="33.8103132" lon="-118.3938671">
  <ele>-23.822</ele>
  <time>2026-09-01T01:13:40Z</time>
  <course>186.03</course>
  <speed>0.022360679774997897</speed>
  <fix>3d</fix>
</trkpt>
<trkpt lat="33.8103132" lon="-118.3938671">
  <ele>-23.882</ele>
  <time>2026-09-01T01:13:40Z</time>
  <course>186.03</course>
  <speed>0.022360679774997897</speed>
  <fix>3d</fix>
</trkpt>
<trkpt lat="33.810313" lon="-118.393867">
  <ele>-23.18</ele>
  <time>2026-09-01T01:13:40Z</time>
  <course>0.0</course>
  <speed>0.0</speed>
  <fix>3d</fix>
</trkpt>
<trkpt lat="33.8103132" lon="-118.3938671">
  <ele>-23.884</ele>
  <time>2026-09-01T01:13:40Z</time>
  <course>186.03</course>
  <speed>0.022360679774997897</speed>
  <fix>3d</fix>
</trkpt>
<trkpt lat="33.8103132" lon="-118.3938671">
  <ele>-23.944</ele>
  <time>2026-09-01T01:13:40Z</time>
  <course>186.03</course>
  <speed>0.022360679774997897</speed>
  <fix>3d</fix>
</trkpt>
<trkpt lat="33.810313" lon="-118.393867">
  <ele>-23.18</ele>
  <time>2026-09-01T01:13:40Z</time>
  <course>0.0</course>
  <speed>0.0</speed>
  <fix>3d</fix>
</trkpt>
<trkpt lat="33.8103132" lon="-118.3938671">
  <ele>-23.964</ele>
  <time>2026-09-01T01:13:40Z</time>
  <course>186.02</course>
  <speed>0.022360679774997897</speed>
  <fix>3d</fix>
</trkpt>
<trkpt lat="33.8103132" lon="-118.3938671">
  <ele>-24.006</ele>
  <time>2026-09-01T01:13:40Z</time>
  <course>186.02</course>
  <speed>0.022360679774997897</speed>
  <fix>3d</fix>
</trkpt>
<trkpt lat="33.810313" lon="-118.393867">
  <ele>-23.3</ele>
  <time>2026-09-01T01:13:40Z</time>
  <course>0.0</course>
  <speed>0.0</speed>
  <fix>3d</fix>
</trkpt>
<trkpt lat="33.8103132" lon="-118.3938671">
  <ele>-24.026</ele>
  <time>2026-09-01T01:13:40Z</time>
  <course>186.02</course>
  <speed>0.022360679774997897</speed>
  <fix>3d</fix>
</trkpt>
<trkpt lat="33.8103132" lon="-118.3938671">
  <ele>-24.068</ele>
  <time>2026-09-01T01:13:40Z</time>
  <course>186.02</course>
  <speed>0.022360679774997897</speed>
  <fix>3d</fix>
</trkpt>
<trkpt lat="33.810313" lon="-118.393867">
  <ele>-23.3</ele>
  <time>2026-09-01T01:13:40Z</time>
  <course>0.0</course>
  <speed>0.0</speed>
  <fix>3d</fix>
</trkpt>
<trkpt lat="33.8103132" lon="-118.3938671">
  <ele>-24.089</ele>
  <time>2026-09-01T01:13:40Z</time>
  <course>186.02</course>
  <speed>0.022360679774997897</speed>
  <fix>3d</fix>
</trkpt>
<trkpt lat="33.8103132" lon="-118.3938671">
  <ele>-24.132</ele>
  <time>2026-09-01T01:13:40Z</time>
  <course>186.01</course>
  <speed>0.022360679774997897</speed>
  <fix>3d</fix>
</trkpt>
<trkpt lat="33.810313" lon="-118.393867">
  <ele>-23.42</ele>
  <time>2026-09-01T01:13:40Z</time>
  <course>0.0</course>
  <speed>0.0</speed>
  <fix>3d</fix>
</trkpt>
<trkpt lat="33.8103132" lon="-118.3938671">
  <ele>-24.133</ele>
  <time>2026-09-01T01:13:40Z</time>
  <course>186.01</course>
  <speed>0.022360679774997897</speed>
  <fix>3d</fix>
</trkpt>
<trkpt lat="33.8103132" lon="-118.3938671">
  <ele>-24.194</ele>
  <time>2026-09-01T01:13:40Z</time>
  <course>186.01</course>
  <speed>0.022360679774997897</speed>
  <fix>3d</fix>
</trkpt>
<trkpt lat="33.810313" lon="-118.393867">
  <ele>-23.42</ele>
  <time>2026-09-01T01:13:40Z</time>
  <course>0.0</course>
  <speed>0.0</speed>
  <fix>3d</fix>
</trkpt>
<trkpt lat="33.8103132" lon="-118.3938671">
  <ele>-24.195</ele>
  <time>2026-09-01T01:13:40Z</time>
  <course>186.01</course>
  <speed>0.022360679774997897</speed>
  <fix>3d</fix>
</trkpt>
<trkpt lat="33.8103132" lon="-118.3938671">
  <ele>-24.256</ele>
  <time>2026-09-01T01:13:40Z</time>
  <course>186.0</course>
  <speed>0.022360679774997897</speed>
  <fix>3d</fix>
</trkpt>
<trkpt lat="33.810313" lon="-118.393867">
  <ele>-23.54</ele>
  <time>2026-09-01T01:13:40Z</time>
  <course>0.0</course>
  <speed>0.0</speed>
  <fix>3d</fix>
</trkpt>
<trkpt lat="33.8103132" lon="-118.3938671">
  <ele>-24.257</ele>
  <time>2026-09-01T01:13:40Z</time>
  <course>186.0</course>
  <speed>0.022360679774997897</speed>
  <fix>3d</fix>
</trkpt>
<trkpt lat="33.8103132" lon="-118.3938671">
  <ele>-24.317</ele>
  <time>2026-09-01T01:13:40Z</time>
  <course>186.0</course>
  <speed>0.022360679774997897</speed>
  <fix>3d</fix>
</trkpt>
<trkpt lat="33.810313" lon="-118.393867">
  <ele>-23.54</ele>
  <time>2026-09-01T01:13:40Z</time>
  <course>0.0</course>
  <speed>0.0</speed>
  <fix>3d</fix>
</trkpt>
<trkpt lat="33.8103132" lon="-118.3938671">
  <ele>-24.337</ele>
  <time>2026-09-01T01:13:40Z</time>
  <course>186.0</course>
  <speed>0.022360679774997897</speed>
  <fix>3d</fix>
</trkpt>
<trkpt lat="33.8103132" lon="-118.3938671">
  <ele>-24.378</ele>
  <time>2026-09-01T01:13:40Z</time>
  <course>186.0</course>
  <speed>0.022360679774997897</speed>
  <fix>3d</fix>
</trkpt>
<trkpt lat="33.810313" lon="-118.393867">
  <ele>-23.66</ele>
  <time>2026-09-01T01:13:40Z</time>
  <course>0.0</course>
  <speed>0.0</speed>
  <fix>3d</fix>
</trkpt>
<trkpt lat="33.8103132" lon="-118.3938671">
  <ele>-24.396</ele>
  <time>2026-09-01T01:13:40Z</time>
  <course>186.0</course>
  <speed>0.022360679774997897</speed>
  <fix>3d</fix>
</trkpt>
<trkpt lat="33.8103132" lon="-118.3938671">
  <ele>-24.438</ele>
  <time>2026-09-01T01:13:40Z</time>
  <course>185.99</course>
  <speed>0.022360679774997897</speed>
  <fix>3d</fix>
</trkpt>
<trkpt lat="33.810313" lon="-118.393867">
  <ele>-23.66</ele>
  <time>2026-09-01T01:13:40Z</time>
  <course>0.0</course>
  <speed>0.0</speed>
  <fix>3d</fix>
</trkpt>
<trkpt lat="33.8103132" lon="-118.3938671">
  <ele>-24.44</ele>
  <time>2026-09-01T01:13:40Z</time>
  <course>185.99</course>
  <speed>0.022360679774997897</speed>
  <fix>3d</fix>
</trkpt>
<trkpt lat="33.8103132" lon="-118.3938671">
  <ele>-24.5</ele>
  <time>2026-09-01T01:13:40Z</time>
  <course>185.99</course>
  <speed>0.022360679774997897</speed>
  <fix>3d</fix>
</trkpt>
<trkpt lat="33.810313" lon="-118.393867">
  <ele>-23.77</ele>
  <time>2026-09-01T01:13:40Z</time>
  <course>0.0</course>
  <speed>0.0</speed>
  <fix>3d</fix>
</trkpt>
<trkpt lat="33.8103132" lon="-118.3938671">
  <ele>-24.518</ele>
  <time>2026-09-01T01:13:40Z</time>
  <course>185.99</course>
  <speed>0.022360679774997897</speed>
  <fix>3d</fix>
</trkpt>
<trkpt lat="33.8103132" lon="-118.3938671">
  <ele>-24.562</ele>
  <time>2026-09-01T01:13:40Z</time>
  <course>185.99</course>
  <speed>0.022360679774997897</speed>
  <fix>3d</fix>
</trkpt>
<trkpt lat="33.810313" lon="-118.393867">
  <ele>-23.77</ele>
  <time>2026-09-01T01:13:40Z</time>
  <course>0.0</course>
  <speed>0.0</speed>
  <fix>3d</fix>
</trkpt>
<trkpt lat="33.8103132" lon="-118.3938671">
  <ele>-24.563</ele>
  <time>2026-09-01T01:13:40Z</time>
  <course>185.99</course>
  <speed>0.022360679774997897</speed>
  <fix>3d</fix>
</trkpt>
<trkpt lat="33.8103132" lon="-118.3938671">
  <ele>-24.624</ele>
  <time>2026-09-01T01:13:40Z</time>
  <course>185.98</course>
  <speed>0.022360679774997897</speed>
  <fix>3d</fix>
</trkpt>
<trkpt lat="33.810313" lon="-118.393867">
  <ele>-23.9</ele>
  <time>2026-09-01T01:13:40Z</time>
  <course>0.0</course>
  <speed>0.0</speed>
  <fix>3d</fix>
</trkpt>
<trkpt lat="33.8103132" lon="-118.3938671">
  <ele>-24.644</ele>
  <time>2026-09-01T01:13:40Z</time>
  <course>185.98</course>
  <speed>0.022360679774997897</speed>
  <fix>3d</fix>
</trkpt>
<trkpt lat="33.8103132" lon="-118.3938671">
  <ele>-24.687</ele>
  <time>2026-09-01T01:13:40Z</time>
  <course>185.98</course>
  <speed>0.022360679774997897</speed>
  <fix>3d</fix>
</trkpt>
<trkpt lat="33.810313" lon="-118.393867">
  <ele>-23.9</ele>
  <time>2026-09-01T01:13:40Z</time>
  <course>0.0</course>
  <speed>0.0</speed>
  <fix>3d</fix>
</trkpt>
<trkpt lat="33.8103132" lon="-118.3938671">
  <ele>-24.706</ele>
  <time>2026-09-01T01:13:40Z</time>
  <course>185.98</course>
  <speed>0.022360679774997897</speed>
  <fix>3d</fix>
</trkpt>
<trkpt lat="33.8103132" lon="-118.3938671">
  <ele>-24.748</ele>
  <time>2026-09-01T01:13:40Z</time>
  <course>185.97</course>
  <speed>0.022360679774997897</speed>
  <fix>3d</fix>
</trkpt>
<trkpt lat="33.810313" lon="-118.393867">
  <ele>-24.02</ele>
  <time>2026-09-01T01:13:40Z</time>
  <course>0.0</course>
  <speed>0.0</speed>
  <fix>3d</fix>
</trkpt>
<trkpt lat="33.8103132" lon="-118.3938671">
  <ele>-24.749</ele>
  <time>2026-09-01T01:13:40Z</time>
  <course>185.97</course>
  <speed>0.022360679774997897</speed>
  <fix>3d</fix>
</trkpt>
<trkpt lat="33.8103132" lon="-118.3938671">
  <ele>-24.809</ele>
  <time>2026-09-01T01:13:40Z</time>
  <course>185.97</course>
  <speed>0.022360679774997897</speed>
  <fix>3d</fix>
</trkpt>
<trkpt lat="33.810313" lon="-118.393867">
  <ele>-24.02</ele>
  <time>2026-09-01T01:13:40Z</time>
  <course>0.0</course>
  <speed>0.0</speed>
  <fix>3d</fix>
</trkpt>
<trkpt lat="33.8103132" lon="-118.3938671">
  <ele>-24.827</ele>
  <time>2026-09-01T01:13:40Z</time>
  <course>185.97</course>
  <speed>0.022360679774997897</speed>
  <fix>3d</fix>
</trkpt>
<trkpt lat="33.8103132" lon="-118.3938671">
  <ele>-24.87</ele>
  <time>2026-09-01T01:13:40Z</time>
  <course>185.96</course>
  <speed>0.022360679774997897</speed>
  <fix>3d</fix>
</trkpt>
<trkpt lat="33.810313" lon="-118.393867">
  <ele>-24.14</ele>
  <time>2026-09-01T01:13:40Z</time>
  <course>0.0</course>
  <speed>0.0</speed>
  <fix>3d</fix>
</trkpt>
<trkpt lat="33.8103132" lon="-118.3938671">
  <ele>-24.892</ele>
  <time>2026-09-01T01:13:40Z</time>
  <course>185.96</course>
  <speed>0.022360679774997897</speed>
  <fix>3d</fix>
</trkpt>
<trkpt lat="33.8103132" lon="-118.3938671">
  <ele>-24.931</ele>
  <time>2026-09-01T01:13:40Z</time>
  <course>185.96</course>
  <speed>0.022360679774997897</speed>
  <fix>3d</fix>
</trkpt>
<trkpt lat="33.810313" lon="-118.393867">
  <ele>-24.14</ele>
  <time>2026-09-01T01:13:40Z</time>
  <course>0.0</course>
  <speed>0.0</speed>
  <fix>3d</fix>
</trkpt>
<trkpt lat="33.8103132" lon="-118.3938671">
  <ele>-24.951</ele>
  <time>2026-09-01T01:13:40Z</time>
  <course>185.96</course>
  <speed>0.022360679774997897</speed>
  <fix>3d</fix>
</trkpt>
<trkpt lat="33.8103132" lon="-118.3938671">
  <ele>-24.992</ele>
  <time>2026-09-01T01:13:40Z</time>
  <course>185.96</course>
  <speed>0.022360679774997897</speed>
  <fix>3d</fix>
</trkpt>
<trkpt lat="33.810313" lon="-118.393867">
  <ele>-24.26</ele>
  <time>2026-09-01T01:13:40Z</time>
  <course>0.0</course>
  <speed>0.0</speed>
  <fix>3d</fix>
</trkpt>
<trkpt lat="33.8103132" lon="-118.3938671">
  <ele>-25.014</ele>
  <time>2026-09-01T01:13:40Z</time>
  <course>185.96</course>
  <speed>0.022360679774997897</speed>
  <fix>3d</fix>
</trkpt>
<trkpt lat="33.8103132" lon="-118.3938671">
  <ele>-25.053</ele>
  <time>2026-09-01T01:13:40Z</time>
  <course>185.95</course>
  <speed>0.022360679774997897</speed>
  <fix>3d</fix>
</trkpt>
<trkpt lat="33.810313" lon="-118.393867">
  <ele>-24.26</ele>
  <time>2026-09-01T01:13:40Z</time>
  <course>0.0</course>
  <speed>0.0</speed>
  <fix>3d</fix>
</trkpt>
<trkpt lat="33.8103132" lon="-118.3938671">
  <ele>-25.055</ele>
  <time>2026-09-01T01:13:40Z</time>
  <course>185.95</course>
  <speed>0.022360679774997897</speed>
  <fix>3d</fix>
</trkpt>
<trkpt lat="33.8103132" lon="-118.3938671">
  <ele>-25.115</ele>
  <time>2026-09-01T01:13:40Z</time>
  <course>185.95</course>
  <speed>0.022360679774997897</speed>
  <fix>3d</fix>
</trkpt>
<trkpt lat="33.810313" lon="-118.393867">
  <ele>-24.39</ele>
  <time>2026-09-01T01:13:40Z</time>
  <course>0.0</course>
  <speed>0.0</speed>
  <fix>3d</fix>
</trkpt>
<trkpt lat="33.8103132" lon="-118.3938671">
  <ele>-25.135</ele>
  <time>2026-09-01T01:13:40Z</time>
  <course>185.95</course>
  <speed>0.022360679774997897</speed>
  <fix>3d</fix>
</trkpt>
<trkpt lat="33.8103132" lon="-118.3938671">
  <ele>-25.176</ele>
  <time>2026-09-01T01:13:40Z</time>
  <course>185.94</course>
  <speed>0.022360679774997897</speed>
  <fix>3d</fix>
</trkpt>
<trkpt lat="33.810313" lon="-118.393867">
  <ele>-24.39</ele>
  <time>2026-09-01T01:13:40Z</time>
  <course>0.0</course>
  <speed>0.0</speed>
  <fix>3d</fix>
</trkpt>
<trkpt lat="33.8103132" lon="-118.3938671">
  <ele>-25.195</ele>
  <time>2026-09-01T01:13:40Z</time>
  <course>185.94</course>
  <speed>0.022360679774997897</speed>
  <fix>3d</fix>
</trkpt>
<trkpt lat="33.8103132" lon="-118.3938671">
  <ele>-25.237</ele>
  <time>2026-09-01T01:13:40Z</time>
  <course>185.94</course>
  <speed>0.022360679774997897</speed>
  <fix>3d</fix>
</trkpt>
<trkpt lat="33.810313" lon="-118.393867">
  <ele>-24.51</ele>
  <time>2026-09-01T01:13:40Z</time>
  <course>0.0</course>
  <speed>0.0</speed>
  <fix>3d</fix>
</trkpt>
<trkpt lat="33.8103132" lon="-118.3938671">
  <ele>-25.239</ele>
  <time>2026-09-01T01:13:40Z</time>
  <course>185.94</course>
  <speed>0.022360679774997897</speed>
  <fix>3d</fix>
</trkpt>
<trkpt lat="33.8103132" lon="-118.3938671">
  <ele>-25.297</ele>
  <time>2026-09-01T01:13:40Z</time>
  <course>185.94</course>
  <speed>0.022360679774997897</speed>
  <fix>3d</fix>
</trkpt>
<trkpt lat="33.810313" lon="-118.393867">
  <ele>-24.51</ele>
  <time>2026-09-01T01:13:40Z</time>
  <course>0.0</course>
  <speed>0.0</speed>
  <fix>3d</fix>
</trkpt>
<trkpt lat="33.8103132" lon="-118.3938671">
  <ele>-25.323</ele>
  <time>2026-09-01T01:13:40Z</time>
  <course>185.94</course>
  <speed>0.022360679774997897</speed>
  <fix>3d</fix>
</trkpt>
<trkpt lat="33.8103132" lon="-118.3938671">
  <ele>-25.357</ele>
  <time>2026-09-01T01:13:40Z</time>
  <course>185.93</course>
  <speed>0.022360679774997897</speed>
  <fix>3d</fix>
</trkpt>
<trkpt lat="33.810313" lon="-118.393867">
  <ele>-24.63</ele>
  <time>2026-09-01T01:13:40Z</time>
  <course>0.0</course>
  <speed>0.0</speed>
  <fix>3d</fix>
</trkpt>
<trkpt lat="33.8103132" lon="-118.3938671">
  <ele>-25.358</ele>
  <time>2026-09-01T01:13:40Z</time>
  <course>185.93</course>
  <speed>0.022360679774997897</speed>
  <fix>3d</fix>
</trkpt>
<trkpt lat="33.8103132" lon="-118.3938671">
  <ele>-25.417</ele>
  <time>2026-09-01T01:13:40Z</time>
  <course>185.93</course>
  <speed>0.022360679774997897</speed>
  <fix>3d</fix>
</trkpt>
<trkpt lat="33.810313" lon="-118.393867">
  <ele>-24.63</ele>
  <time>2026-09-01T01:13:40Z</time>
  <course>0.0</course>
  <speed>0.0</speed>
  <fix>3d</fix>
</trkpt>
<trkpt lat="33.8103132" lon="-118.3938671">
  <ele>-25.435</ele>
  <time>2026-09-01T01:13:40Z</time>
  <course>185.93</course>
  <speed>0.022360679774997897</speed>
  <fix>3d</fix>
</trkpt>
<trkpt lat="33.8103132" lon="-118.3938671">
  <ele>-25.477</ele>
  <time>2026-09-01T01:13:40Z</time>
  <course>185.92</course>
  <speed>0.022360679774997897</speed>
  <fix>3d</fix>
</trkpt>
<trkpt lat="33.810313" lon="-118.393867">
  <ele>-24.75</ele>
  <time>2026-09-01T01:13:40Z</time>
  <course>0.0</course>
  <speed>0.0</speed>
  <fix>3d</fix>
</trkpt>
<trkpt lat="33.8103132" lon="-118.3938671">
  <ele>-25.503</ele>
  <time>2026-09-01T01:13:40Z</time>
  <course>185.92</course>
  <speed>0.022360679774997897</speed>
  <fix>3d</fix>
</trkpt>
<trkpt lat="33.8103132" lon="-118.3938671">
  <ele>-25.538</ele>
  <time>2026-09-01T01:13:40Z</time>
  <course>185.92</course>
  <speed>0.022360679774997897</speed>
  <fix>3d</fix>
</trkpt>
<trkpt lat="33.810313" lon="-118.393867">
  <ele>-24.75</ele>
  <time>2026-09-01T01:13:40Z</time>
  <course>0.0</course>
  <speed>0.0</speed>
  <fix>3d</fix>
</trkpt>
<trkpt lat="33.8103132" lon="-118.3938671">
  <ele>-25.558</ele>
  <time>2026-09-01T01:13:40Z</time>
  <course>185.92</course>
  <speed>0.022360679774997897</speed>
  <fix>3d</fix>
</trkpt>
<trkpt lat="33.8103132" lon="-118.3938671">
  <ele>-25.599</ele>
  <time>2026-09-01T01:13:40Z</time>
  <course>185.92</course>
  <speed>0.022360679774997897</speed>
  <fix>3d</fix>
</trkpt>
<trkpt lat="33.810313" lon="-118.393867">
  <ele>-24.86</ele>
  <time>2026-09-01T01:13:40Z</time>
  <course>0.0</course>
  <speed>0.0</speed>
  <fix>3d</fix>
</trkpt>
<trkpt lat="33.8103132" lon="-118.3938671">
  <ele>-25.62</ele>
  <time>2026-09-01T01:13:40Z</time>
  <course>185.92</course>
  <speed>0.022360679774997897</speed>
  <fix>3d</fix>
</trkpt>
<trkpt lat="33.8103132" lon="-118.3938671">
  <ele>-25.66</ele>
  <time>2026-09-01T01:13:40Z</time>
  <course>185.91</course>
  <speed>0.022360679774997897</speed>
  <fix>3d</fix>
</trkpt>
<trkpt lat="33.810313" lon="-118.393867">
  <ele>-24.86</ele>
  <time>2026-09-01T01:13:40Z</time>
  <course>0.0</course>
  <speed>0.0</speed>
  <fix>3d</fix>
</trkpt>
<trkpt lat="33.8103132" lon="-118.3938671">
  <ele>-25.661</ele>
  <time>2026-09-01T01:13:40Z</time>
  <course>185.91</course>
  <speed>0.022360679774997897</speed>
  <fix>3d</fix>
</trkpt>
<trkpt lat="33.8103132" lon="-118.3938671">
  <ele>-25.722</ele>
  <time>2026-09-01T01:13:40Z</time>
  <course>185.91</course>
  <speed>0.022360679774997897</speed>
  <fix>3d</fix>
</trkpt>
<trkpt lat="33.810313" lon="-118.393867">
  <ele>-24.99</ele>
  <time>2026-09-01T01:13:40Z</time>
  <course>0.0</course>
  <speed>0.0</speed>
  <fix>3d</fix>
</trkpt>
<trkpt lat="33.8103132" lon="-118.3938671">
  <ele>-25.742</ele>
  <time>2026-09-01T01:13:40Z</time>
  <course>185.91</course>
  <speed>0.022360679774997897</speed>
  <fix>3d</fix>
</trkpt>
<trkpt lat="33.8103132" lon="-118.3938671">
  <ele>-25.784</ele>
  <time>2026-09-01T01:13:40Z</time>
  <course>185.9</course>
  <speed>0.022360679774997897</speed>
  <fix>3d</fix>
</trkpt>
<trkpt lat="33.810313" lon="-118.393867">
  <ele>-24.99</ele>
  <time>2026-09-01T01:13:40Z</time>
  <course>0.0</course>
  <speed>0.0</speed>
  <fix>3d</fix>
</trkpt>
<trkpt lat="33.8103132" lon="-118.3938671">
  <ele>-25.786</ele>
  <time>2026-09-01T01:13:40Z</time>
  <course>185.9</course>
  <speed>0.022360679774997897</speed>
  <fix>3d</fix>
</trkpt>
<trkpt lat="33.8103132" lon="-118.3938671">
  <ele>-25.847</ele>
  <time>2026-09-01T01:13:40Z</time>
  <course>185.9</course>
  <speed>0.022360679774997897</speed>
  <fix>3d</fix>
</trkpt>
<trkpt lat="33.810313" lon="-118.393867">
  <ele>-25.11</ele>
  <time>2026-09-01T01:13:40Z</time>
  <course>0.0</course>
  <speed>0.0</speed>
  <fix>3d</fix>
</trkpt>
<trkpt lat="33.8103132" lon="-118.3938671">
  <ele>-25.869</ele>
  <time>2026-09-01T01:13:40Z</time>
  <course>185.9</course>
  <speed>0.022360679774997897</speed>
  <fix>3d</fix>
</trkpt>
<trkpt lat="33.8103132" lon="-118.3938671">
  <ele>-25.91</ele>
  <time>2026-09-01T01:13:40Z</time>
  <course>185.9</course>
  <speed>0.022360679774997897</speed>
  <fix>3d</fix>
</trkpt>
<trkpt lat="33.810313" lon="-118.393867">
  <ele>-25.11</ele>
  <time>2026-09-01T01:13:40Z</time>
  <course>0.0</course>
  <speed>0.0</speed>
  <fix>3d</fix>
</trkpt>
<trkpt lat="33.8103132" lon="-118.3938671">
  <ele>-25.911</ele>
  <time>2026-09-01T01:13:40Z</time>
  <course>185.9</course>
  <speed>0.022360679774997897</speed>
  <fix>3d</fix>
</trkpt>
<trkpt lat="33.8103132" lon="-118.3938671">
  <ele>-25.973</ele>
  <time>2026-09-01T01:13:40Z</time>
  <course>185.89</course>
  <speed>0.022360679774997897</speed>
  <fix>3d</fix>
</trkpt>
<trkpt lat="33.810313" lon="-118.393867">
  <ele>-25.23</ele>
  <time>2026-09-01T01:13:40Z</time>
  <course>0.0</course>
  <speed>0.0</speed>
  <fix>3d</fix>
</trkpt>
<trkpt lat="33.8103132" lon="-118.3938671">
  <ele>-25.974</ele>
  <time>2026-09-01T01:13:40Z</time>
  <course>185.89</course>
  <speed>0.022360679774997897</speed>
  <fix>3d</fix>
</trkpt>
<trkpt lat="33.8103132" lon="-118.3938671">
  <ele>-26.035</ele>
  <time>2026-09-01T01:13:40Z</time>
  <course>185.89</course>
  <speed>0.022360679774997897</speed>
  <fix>3d</fix>
</trkpt>
<trkpt lat="33.810313" lon="-118.393867">
  <ele>-25.23</ele>
  <time>2026-09-01T01:13:40Z</time>
  <course>0.0</course>
  <speed>0.0</speed>
  <fix>3d</fix>
</trkpt>
<trkpt lat="33.8103132" lon="-118.3938671">
  <ele>-26.057</ele>
  <time>2026-09-01T01:13:40Z</time>
  <course>185.89</course>
  <speed>0.022360679774997897</speed>
  <fix>3d</fix>
</trkpt>
<trkpt lat="33.8103132" lon="-118.3938671">
  <ele>-26.098</ele>
  <time>2026-09-01T01:13:40Z</time>
  <course>185.89</course>
  <speed>0.022360679774997897</speed>
  <fix>3d</fix>
</trkpt>
<trkpt lat="33.810313" lon="-118.393867">
  <ele>-25.35</ele>
  <time>2026-09-01T01:13:40Z</time>
  <course>0.0</course>
  <speed>0.0</speed>
  <fix>3d</fix>
</trkpt>
<trkpt lat="33.8103132" lon="-118.3938671">
  <ele>-26.118</ele>
  <time>2026-09-01T01:13:40Z</time>
  <course>185.88</course>
  <speed>0.022360679774997897</speed>
  <fix>3d</fix>
</trkpt>
<trkpt lat="33.8103132" lon="-118.3938671">
  <ele>-26.161</ele>
  <time>2026-09-01T01:13:40Z</time>
  <course>185.88</course>
  <speed>0.022360679774997897</speed>
  <fix>3d</fix>
</trkpt>
<trkpt lat="33.810313" lon="-118.393867">
  <ele>-25.35</ele>
  <time>2026-09-01T01:13:40Z</time>
  <course>0.0</course>
  <speed>0.0</speed>
  <fix>3d</fix>
</trkpt>
<trkpt lat="33.8103132" lon="-118.3938671">
  <ele>-26.183</ele>
  <time>2026-09-01T01:13:40Z</time>
  <course>185.88</course>
  <speed>0.022360679774997897</speed>
  <fix>3d</fix>
</trkpt>
<trkpt lat="33.8103132" lon="-118.3938671">
  <ele>-26.223</ele>
  <time>2026-09-01T01:13:40Z</time>
  <course>185.88</course>
  <speed>0.022360679774997897</speed>
  <fix>3d</fix>
</trkpt>
<trkpt lat="33.810313" lon="-118.393867">
  <ele>-25.47</ele>
  <time>2026-09-01T01:13:40Z</time>
  <course>0.0</course>
  <speed>0.0</speed>
  <fix>3d</fix>
</trkpt>
<trkpt lat="33.8103132" lon="-118.3938671">
  <ele>-26.243</ele>
  <time>2026-09-01T01:13:40Z</time>
  <course>185.88</course>
  <speed>0.022360679774997897</speed>
  <fix>3d</fix>
</trkpt>
<trkpt lat="33.8103132" lon="-118.3938671">
  <ele>-26.286</ele>
  <time>2026-09-01T01:13:40Z</time>
  <course>185.87</course>
  <speed>0.022360679774997897</speed>
  <fix>3d</fix>
</trkpt>
<trkpt lat="33.810313" lon="-118.393867">
  <ele>-25.47</ele>
  <time>2026-09-01T01:13:40Z</time>
  <course>0.0</course>
  <speed>0.0</speed>
  <fix>3d</fix>
</trkpt>
<trkpt lat="33.8103132" lon="-118.3938671">
  <ele>-26.287</ele>
  <time>2026-09-01T01:13:40Z</time>
  <course>185.87</course>
  <speed>0.022360679774997897</speed>
  <fix>3d</fix>
</trkpt>
<trkpt lat="33.8103132" lon="-118.3938671">
  <ele>-26.349</ele>
  <time>2026-09-01T01:13:40Z</time>
  <course>185.87</course>
  <speed>0.022360679774997897</speed>
  <fix>3d</fix>
</trkpt>
<trkpt lat="33.810313" lon="-118.393867">
  <ele>-25.59</ele>
  <time>2026-09-01T01:13:40Z</time>
  <course>0.0</course>
  <speed>0.0</speed>
  <fix>3d</fix>
</trkpt>
<trkpt lat="33.8103132" lon="-118.3938671">
  <ele>-26.369</ele>
  <time>2026-09-01T01:13:40Z</time>
  <course>185.87</course>
  <speed>0.022360679774997897</speed>
  <fix>3d</fix>
</trkpt>
<trkpt lat="33.8103132" lon="-118.3938671">
  <ele>-26.412</ele>
  <time>2026-09-01T01:13:40Z</time>
  <course>185.87</course>
  <speed>0.022360679774997897</speed>
  <fix>3d</fix>
</trkpt>
<trkpt lat="33.810313" lon="-118.393867">
  <ele>-25.59</ele>
  <time>2026-09-01T01:13:40Z</time>
  <course>0.0</course>
  <speed>0.0</speed>
  <fix>3d</fix>
</trkpt>
<trkpt lat="33.8103132" lon="-118.3938671">
  <ele>-26.432</ele>
  <time>2026-09-01T01:13:40Z</time>
  <course>185.86</course>
  <speed>0.022360679774997897</speed>
  <fix>3d</fix>
</trkpt>
<trkpt lat="33.8103132" lon="-118.3938671">
  <ele>-26.475</ele>
  <time>2026-09-01T01:13:40Z</time>
  <course>185.86</course>
  <speed>0.022360679774997897</speed>
  <fix>3d</fix>
</trkpt>
<trkpt lat="33.810313" lon="-118.393867">
  <ele>-25.71</ele>
  <time>2026-09-01T01:13:40Z</time>
  <course>0.0</course>
  <speed>0.0</speed>
  <fix>3d</fix>
</trkpt>
<trkpt lat="33.8103132" lon="-118.3938671">
  <ele>-26.495</ele>
  <time>2026-09-01T01:13:40Z</time>
  <course>185.86</course>
  <speed>0.022360679774997897</speed>
  <fix>3d</fix>
</trkpt>
<trkpt lat="33.8103132" lon="-118.3938671">
  <ele>-26.538</ele>
  <time>2026-09-01T01:13:40Z</time>
  <course>185.86</course>
  <speed>0.022360679774997897</speed>
  <fix>3d</fix>
</trkpt>
<trkpt lat="33.810313" lon="-118.393867">
  <ele>-25.71</ele>
  <time>2026-09-01T01:13:40Z</time>
  <course>0.0</course>
  <speed>0.0</speed>
  <fix>3d</fix>
</trkpt>
<trkpt lat="33.8103132" lon="-118.3938671">
  <ele>-26.539</ele>
  <time>2026-09-01T01:13:40Z</time>
  <course>185.86</course>
  <speed>0.022360679774997897</speed>
  <fix>3d</fix>
</trkpt>
<trkpt lat="33.8103132" lon="-118.3938671">
  <ele>-26.601</ele>
  <time>2026-09-01T01:13:40Z</time>
  <course>185.85</course>
  <speed>0.022360679774997897</speed>
  <fix>3d</fix>
</trkpt>
<trkpt lat="33.810313" lon="-118.393867">
  <ele>-25.83</ele>
  <time>2026-09-01T01:13:40Z</time>
  <course>0.0</course>
  <speed>0.0</speed>
  <fix>3d</fix>
</trkpt>
<trkpt lat="33.8103132" lon="-118.3938671">
  <ele>-26.621</ele>
  <time>2026-09-01T01:13:40Z</time>
  <course>185.85</course>
  <speed>0.022360679774997897</speed>
  <fix>3d</fix>
</trkpt>
<trkpt lat="33.8103132" lon="-118.3938671">
  <ele>-26.663</ele>
  <time>2026-09-01T01:13:40Z</time>
  <course>185.85</course>
  <speed>0.022360679774997897</speed>
  <fix>3d</fix>
</trkpt>
<trkpt lat="33.810313" lon="-118.393867">
  <ele>-25.83</ele>
  <time>2026-09-01T01:13:40Z</time>
  <course>0.0</course>
  <speed>0.0</speed>
  <fix>3d</fix>
</trkpt>
<trkpt lat="33.8103132" lon="-118.3938671">
  <ele>-26.684</ele>
  <time>2026-09-01T01:13:40Z</time>
  <course>185.85</course>
  <speed>0.022360679774997897</speed>
  <fix>3d</fix>
</trkpt>
<trkpt lat="33.8103132" lon="-118.3938671">
  <ele>-26.724</ele>
  <time>2026-09-01T01:13:40Z</time>
  <course>185.85</course>
  <speed>0.022360679774997897</speed>
  <fix>3d</fix>
</trkpt>
<trkpt lat="33.810313" lon="-118.393867">
  <ele>-25.95</ele>
  <time>2026-09-01T01:13:40Z</time>
  <course>0.0</course>
  <speed>0.0</speed>
  <fix>3d</fix>
</trkpt>
<trkpt lat="33.8103132" lon="-118.3938671">
  <ele>-26.746</ele>
  <time>2026-09-01T01:13:40Z</time>
  <course>185.85</course>
  <speed>0.022360679774997897</speed>
  <fix>3d</fix>
</trkpt>
<trkpt lat="33.8103132" lon="-118.3938671">
  <ele>-26.786</ele>
  <time>2026-09-01T01:13:40Z</time>
  <course>185.84</course>
  <speed>0.022360679774997897</speed>
  <fix>3d</fix>
</trkpt>
<trkpt lat="33.810313" lon="-118.393867">
  <ele>-25.95</ele>
  <time>2026-09-01T01:13:40Z</time>
  <course>0.0</course>
  <speed>0.0</speed>
  <fix>3d</fix>
</trkpt>
<trkpt lat="33.8103132" lon="-118.3938671">
  <ele>-26.807</ele>
  <time>2026-09-01T01:13:40Z</time>
  <course>185.84</course>
  <speed>0.022360679774997897</speed>
  <fix>3d</fix>
</trkpt>
<trkpt lat="33.8103132" lon="-118.3938671">
  <ele>-26.846</ele>
  <time>2026-09-01T01:13:40Z</time>
  <course>185.84</course>
  <speed>0.022360679774997897</speed>
  <fix>3d</fix>
</trkpt>
<trkpt lat="33.810313" lon="-118.393867">
  <ele>-26.07</ele>
  <time>2026-09-01T01:13:40Z</time>
  <course>0.0</course>
  <speed>0.0</speed>
  <fix>3d</fix>
</trkpt>
<trkpt lat="33.8103132" lon="-118.3938671">
  <ele>-26.866</ele>
  <time>2026-09-01T01:13:40Z</time>
  <course>185.84</course>
  <speed>0.022360679774997897</speed>
  <fix>3d</fix>
</trkpt>
<trkpt lat="33.8103132" lon="-118.3938671">
  <ele>-26.908</ele>
  <time>2026-09-01T01:13:40Z</time>
  <course>185.84</course>
  <speed>0.022360679774997897</speed>
  <fix>3d</fix>
</trkpt>
<trkpt lat="33.810313" lon="-118.393867">
  <ele>-26.07</ele>
  <time>2026-09-01T01:13:40Z</time>
  <course>0.0</course>
  <speed>0.0</speed>
  <fix>3d</fix>
</trkpt>
<trkpt lat="33.8103132" lon="-118.3938671">
  <ele>-26.91</ele>
  <time>2026-09-01T01:13:40Z</time>
  <course>185.84</course>
  <speed>0.022360679774997897</speed>
  <fix>3d</fix>
</trkpt>
<trkpt lat="33.8103132" lon="-118.3938671">
  <ele>-26.971</ele>
  <time>2026-09-01T01:13:40Z</time>
  <course>185.83</course>
  <speed>0.022360679774997897</speed>
  <fix>3d</fix>
</trkpt>
<trkpt lat="33.810313" lon="-118.393867">
  <ele>-26.2</ele>
  <time>2026-09-01T01:13:40Z</time>
  <course>0.0</course>
  <speed>0.0</speed>
  <fix>3d</fix>
</trkpt>
<trkpt lat="33.8103132" lon="-118.3938671">
  <ele>-26.992</ele>
  <time>2026-09-01T01:13:40Z</time>
  <course>185.83</course>
  <speed>0.022360679774997897</speed>
  <fix>3d</fix>
</trkpt>
<trkpt lat="33.8103132" lon="-118.3938671">
  <ele>-27.034</ele>
  <time>2026-09-01T01:13:40Z</time>
  <course>185.83</course>
  <speed>0.022360679774997897</speed>
  <fix>3d</fix>
</trkpt>
<trkpt lat="33.810313" lon="-118.393867">
  <ele>-26.2</ele>
  <time>2026-09-01T01:13:40Z</time>
  <course>0.0</course>
  <speed>0.0</speed>
  <fix>3d</fix>
</trkpt>
<trkpt lat="33.8103132" lon="-118.3938671">
  <ele>-27.056</ele>
  <time>2026-09-01T01:13:40Z</time>
  <course>185.83</course>
  <speed>0.022360679774997897</speed>
  <fix>3d</fix>
</trkpt>
<trkpt lat="33.8103132" lon="-118.3938671">
  <ele>-27.097</ele>
  <time>2026-09-01T01:13:40Z</time>
  <course>185.82</course>
  <speed>0.022360679774997897</speed>
  <fix>3d</fix>
</trkpt>
<trkpt lat="33.810313" lon="-118.393867">
  <ele>-26.32</ele>
  <time>2026-09-01T01:13:40Z</time>
  <course>0.0</course>
  <speed>0.0</speed>
  <fix>3d</fix>
</trkpt>
<trkpt lat="33.8103132" lon="-118.3938671">
  <ele>-27.117</ele>
  <time>2026-09-01T01:13:40Z</time>
  <course>185.82</course>
  <speed>0.022360679774997897</speed>
  <fix>3d</fix>
</trkpt>
<trkpt lat="33.8103132" lon="-118.3938671">
  <ele>-27.159</ele>
  <time>2026-09-01T01:13:40Z</time>
  <course>185.82</course>
  <speed>0.022360679774997897</speed>
  <fix>3d</fix>
</trkpt>
<trkpt lat="33.810313" lon="-118.393867">
  <ele>-26.32</ele>
  <time>2026-09-01T01:13:40Z</time>
  <course>0.0</course>
  <speed>0.0</speed>
  <fix>3d</fix>
</trkpt>
<trkpt lat="33.8103132" lon="-118.3938671">
  <ele>-27.16</ele>
  <time>2026-09-01T01:13:40Z</time>
  <course>185.82</course>
  <speed>0.022360679774997897</speed>
  <fix>3d</fix>
</trkpt>
<trkpt lat="33.8103132" lon="-118.3938671">
  <ele>-27.222</ele>
  <time>2026-09-01T01:13:40Z</time>
  <course>185.82</course>
  <speed>0.022360679774997897</speed>
  <fix>3d</fix>
</trkpt>
<trkpt lat="33.810313" lon="-118.393867">
  <ele>-26.43</ele>
  <time>2026-09-01T01:13:40Z</time>
  <course>0.0</course>
  <speed>0.0</speed>
  <fix>3d</fix>
</trkpt>
<trkpt lat="33.8103132" lon="-118.3938671">
  <ele>-27.225</ele>
  <time>2026-09-01T01:13:40Z</time>
  <course>185.82</course>
  <speed>0.022360679774997897</speed>
  <fix>3d</fix>
</trkpt>
<trkpt lat="33.8103132" lon="-118.3938671">
  <ele>-27.284</ele>
  <time>2026-09-01T01:13:40Z</time>
  <course>185.81</course>
  <speed>0.022360679774997897</speed>
  <fix>3d</fix>
</trkpt>
<trkpt lat="33.810313" lon="-118.393867">
  <ele>-26.43</ele>
  <time>2026-09-01T01:13:40Z</time>
  <course>0.0</course>
  <speed>0.0</speed>
  <fix>3d</fix>
</trkpt>
<trkpt lat="33.8103132" lon="-118.3938671">
  <ele>-27.285</ele>
  <time>2026-09-01T01:13:40Z</time>
  <course>185.81</course>
  <speed>0.022360679774997897</speed>
  <fix>3d</fix>
</trkpt>
<trkpt lat="33.8103132" lon="-118.3938671">
  <ele>-27.346</ele>
  <time>2026-09-01T01:13:40Z</time>
  <course>185.81</course>
  <speed>0.022360679774997897</speed>
  <fix>3d</fix>
</trkpt>
<trkpt lat="33.810313" lon="-118.393867">
  <ele>-26.56</ele>
  <time>2026-09-01T01:13:40Z</time>
  <course>0.0</course>
  <speed>0.0</speed>
  <fix>3d</fix>
</trkpt>
<trkpt lat="33.8103132" lon="-118.3938671">
  <ele>-27.366</ele>
  <time>2026-09-01T01:13:40Z</time>
  <course>185.81</course>
  <speed>0.022360679774997897</speed>
  <fix>3d</fix>
</trkpt>
<trkpt lat="33.8103132" lon="-118.3938671">
  <ele>-27.408</ele>
  <time>2026-09-01T01:13:40Z</time>
  <course>185.8</course>
  <speed>0.022360679774997897</speed>
  <fix>3d</fix>
</trkpt>
<trkpt lat="33.810313" lon="-118.393867">
  <ele>-26.56</ele>
  <time>2026-09-01T01:13:40Z</time>
  <course>0.0</course>
  <speed>0.0</speed>
  <fix>3d</fix>
</trkpt>
<trkpt lat="33.8103132" lon="-118.3938671">
  <ele>-27.429</ele>
  <time>2026-09-01T01:13:40Z</time>
  <course>185.8</course>
  <speed>0.022360679774997897</speed>
  <fix>3d</fix>
</trkpt>
<trkpt lat="33.8103132" lon="-118.3938671">
  <ele>-27.469</ele>
  <time>2026-09-01T01:13:40Z</time>
  <course>185.8</course>
  <speed>0.022360679774997897</speed>
  <fix>3d</fix>
</trkpt>
<trkpt lat="33.810313" lon="-118.393867">
  <ele>-26.68</ele>
  <time>2026-09-01T01:13:40Z</time>
  <course>0.0</course>
  <speed>0.0</speed>
  <fix>3d</fix>
</trkpt>
<trkpt lat="33.8103132" lon="-118.3938671">
  <ele>-27.49</ele>
  <time>2026-09-01T01:13:40Z</time>
  <course>185.8</course>
  <speed>0.022360679774997897</speed>
  <fix>3d</fix>
</trkpt>
<trkpt lat="33.8103132" lon="-118.3938671">
  <ele>-27.531</ele>
  <time>2026-09-01T01:13:40Z</time>
  <course>185.8</course>
  <speed>0.022360679774997897</speed>
  <fix>3d</fix>
</trkpt>
<trkpt lat="33.810313" lon="-118.393867">
  <ele>-26.68</ele>
  <time>2026-09-01T01:13:40Z</time>
  <course>0.0</course>
  <speed>0.0</speed>
  <fix>3d</fix>
</trkpt>
<trkpt lat="33.8103132" lon="-118.3938671">
  <ele>-27.553</ele>
  <time>2026-09-01T01:13:40Z</time>
  <course>185.8</course>
  <speed>0.022360679774997897</speed>
  <fix>3d</fix>
</trkpt>
<trkpt lat="33.8103132" lon="-118.3938671">
  <ele>-27.593</ele>
  <time>2026-09-01T01:13:40Z</time>
  <course>185.79</course>
  <speed>0.022360679774997897</speed>
  <fix>3d</fix>
</trkpt>
<trkpt lat="33.810313" lon="-118.393867">
  <ele>-26.8</ele>
  <time>2026-09-01T01:13:40Z</time>
  <course>0.0</course>
  <speed>0.0</speed>
  <fix>3d</fix>
</trkpt>
<trkpt lat="33.8103132" lon="-118.3938671">
  <ele>-27.614</ele>
  <time>2026-09-01T01:13:40Z</time>
  <course>185.79</course>
  <speed>0.022360679774997897</speed>
  <fix>3d</fix>
</trkpt>
<trkpt lat="33.8103132" lon="-118.3938671">
  <ele>-27.657</ele>
  <time>2026-09-01T01:13:40Z</time>
  <course>185.79</course>
  <speed>0.022360679774997897</speed>
  <fix>3d</fix>
</trkpt>
<trkpt lat="33.810313" lon="-118.393867">
  <ele>-26.8</ele>
  <time>2026-09-01T01:13:40Z</time>
  <course>0.0</course>
  <speed>0.0</speed>
  <fix>3d</fix>
</trkpt>
<trkpt lat="33.8103132" lon="-118.3938671">
  <ele>-27.677</ele>
  <time>2026-09-01T01:13:40Z</time>
  <course>185.79</course>
  <speed>0.022360679774997897</speed>
  <fix>3d</fix>
</trkpt>
<trkpt lat="33.8103132" lon="-118.3938671">
  <ele>-27.72</ele>
  <time>2026-09-01T01:13:40Z</time>
  <course>185.79</course>
  <speed>0.022360679774997897</speed>
  <fix>3d</fix>
</trkpt>
<trkpt lat="33.810313" lon="-118.393867">
  <ele>-26.92</ele>
  <time>2026-09-01T01:13:40Z</time>
  <course>0.0</course>
  <speed>0.0</speed>
  <fix>3d</fix>
</trkpt>
<trkpt lat="33.8103132" lon="-118.3938671">
  <ele>-27.742</ele>
  <time>2026-09-01T01:13:40Z</time>
  <course>185.78</course>
  <speed>0.022360679774997897</speed>
  <fix>3d</fix>
</trkpt>
<trkpt lat="33.8103132" lon="-118.3938671">
  <ele>-27.784</ele>
  <time>2026-09-01T01:13:40Z</time>
  <course>185.78</course>
  <speed>0.022360679774997897</speed>
  <fix>3d</fix>
</trkpt>
<trkpt lat="33.810313" lon="-118.393867">
  <ele>-26.92</ele>
  <time>2026-09-01T01:13:40Z</time>
  <course>0.0</course>
  <speed>0.0</speed>
  <fix>3d</fix>
</trkpt>
<trkpt lat="33.8103132" lon="-118.3938671">
  <ele>-27.804</ele>
  <time>2026-09-01T01:13:40Z</time>
  <course>185.78</course>
  <speed>0.022360679774997897</speed>
  <fix>3d</fix>
</trkpt>
<trkpt lat="33.8103132" lon="-118.3938671">
  <ele>-27.848</ele>
  <time>2026-09-01T01:13:40Z</time>
  <course>185.78</course>
  <speed>0.022360679774997897</speed>
  <fix>3d</fix>
</trkpt>
<trkpt lat="33.810313" lon="-118.393867">
  <ele>-27.04</ele>
  <time>2026-09-01T01:13:40Z</time>
  <course>0.0</course>
  <speed>0.0</speed>
  <fix>3d</fix>
</trkpt>
<trkpt lat="33.8103132" lon="-118.3938671">
  <ele>-27.864</ele>
  <time>2026-09-01T01:13:40Z</time>
  <course>185.78</course>
  <speed>0.022360679774997897</speed>
  <fix>3d</fix>
</trkpt>
<trkpt lat="33.8103132" lon="-118.3938671">
  <ele>-27.912</ele>
  <time>2026-09-01T01:13:40Z</time>
  <course>185.78</course>
  <speed>0.022360679774997897</speed>
  <fix>3d</fix>
</trkpt>
<trkpt lat="33.810313" lon="-118.393867">
  <ele>-27.04</ele>
  <time>2026-09-01T01:13:40Z</time>
  <course>0.0</course>
  <speed>0.0</speed>
  <fix>3d</fix>
</trkpt>
<trkpt lat="33.8103132" lon="-118.3938671">
  <ele>-27.932</ele>
  <time>2026-09-01T01:13:40Z</time>
  <course>185.77</course>
  <speed>0.022360679774997897</speed>
  <fix>3d</fix>
</trkpt>
<trkpt lat="33.8103132" lon="-118.3938671">
  <ele>-27.975</ele>
  <time>2026-09-01T01:13:40Z</time>
  <course>185.77</course>
  <speed>0.022360679774997897</speed>
  <fix>3d</fix>
</trkpt>
<trkpt lat="33.810313" lon="-118.393867">
  <ele>-27.16</ele>
  <time>2026-09-01T01:13:40Z</time>
  <course>0.0</course>
  <speed>0.0</speed>
  <fix>3d</fix>
</trkpt>
<trkpt lat="33.8103132" lon="-118.3938671">
  <ele>-27.976</ele>
  <time>2026-09-01T01:13:40Z</time>
  <course>185.77</course>
  <speed>0.022360679774997897</speed>
  <fix>3d</fix>
</trkpt>
<trkpt lat="33.8103132" lon="-118.3938671">
  <ele>-28.037</ele>
  <time>2026-09-01T01:13:40Z</time>
  <course>185.77</course>
  <speed>0.022360679774997897</speed>
  <fix>3d</fix>
</trkpt>
<trkpt lat="33.810313" lon="-118.393867">
  <ele>-27.16</ele>
  <time>2026-09-01T01:13:40Z</time>
  <course>0.0</course>
  <speed>0.0</speed>
  <fix>3d</fix>
</trkpt>
<trkpt lat="33.8103132" lon="-118.3938671">
  <ele>-28.058</ele>
  <time>2026-09-01T01:13:40Z</time>
  <course>185.77</course>
  <speed>0.022360679774997897</speed>
  <fix>3d</fix>
</trkpt>
<trkpt lat="33.8103132" lon="-118.3938671">
  <ele>-28.1</ele>
  <time>2026-09-01T01:13:40Z</time>
  <course>185.76</course>
  <speed>0.022360679774997897</speed>
  <fix>3d</fix>
</trkpt>
<trkpt lat="33.810313" lon="-118.393867">
  <ele>-27.27</ele>
  <time>2026-09-01T01:13:40Z</time>
  <course>0.0</course>
  <speed>0.0</speed>
  <fix>3d</fix>
</trkpt>
<trkpt lat="33.8103132" lon="-118.3938671">
  <ele>-28.121</ele>
  <time>2026-09-01T01:13:40Z</time>
  <course>185.76</course>
  <speed>0.022360679774997897</speed>
  <fix>3d</fix>
</trkpt>
<trkpt lat="33.8103132" lon="-118.3938671">
  <ele>-28.162</ele>
  <time>2026-09-01T01:13:40Z</time>
  <course>185.76</course>
  <speed>0.022360679774997897</speed>
  <fix>3d</fix>
</trkpt>
<trkpt lat="33.810313" lon="-118.393867">
  <ele>-27.27</ele>
  <time>2026-09-01T01:13:40Z</time>
  <course>0.0</course>
  <speed>0.0</speed>
  <fix>3d</fix>
</trkpt>
<trkpt lat="33.8103132" lon="-118.3938671">
  <ele>-28.184</ele>
  <time>2026-09-01T01:13:40Z</time>
  <course>185.76</course>
  <speed>0.022360679774997897</speed>
  <fix>3d</fix>
</trkpt>
<trkpt lat="33.8103132" lon="-118.3938671">
  <ele>-28.224</ele>
  <time>2026-09-01T01:13:40Z</time>
  <course>185.76</course>
  <speed>0.022360679774997897</speed>
  <fix>3d</fix>
</trkpt>
<trkpt lat="33.810313" lon="-118.393867">
  <ele>-27.4</ele>
  <time>2026-09-01T01:13:40Z</time>
  <course>0.0</course>
  <speed>0.0</speed>
  <fix>3d</fix>
</trkpt>
<trkpt lat="33.8103132" lon="-118.3938671">
  <ele>-28.287</ele>
  <time>2026-09-01T01:13:40Z</time>
  <course>185.75</course>
  <speed>0.022360679774997897</speed>
  <fix>3d</fix>
</trkpt>
<trkpt lat="33.810313" lon="-118.393867">
  <ele>-27.4</ele>
  <time>2026-09-01T01:13:40Z</time>
  <course>0.0</course>
  <speed>0.0</speed>
  <fix>3d</fix>
</trkpt>
<trkpt lat="33.8103132" lon="-118.3938671">
  <ele>-28.309</ele>
  <time>2026-09-01T01:13:40Z</time>
  <course>185.75</course>
  <speed>0.022360679774997897</speed>
  <fix>3d</fix>
</trkpt>
<trkpt lat="33.8103132" lon="-118.3938671">
  <ele>-28.349</ele>
  <time>2026-09-01T01:13:40Z</time>
  <course>185.75</course>
  <speed>0.022360679774997897</speed>
  <fix>3d</fix>
</trkpt>
<trkpt lat="33.810313" lon="-118.393867">
  <ele>-27.52</ele>
  <time>2026-09-01T01:13:40Z</time>
  <course>0.0</course>
  <speed>0.0</speed>
  <fix>3d</fix>
</trkpt>
<trkpt lat="33.8103132" lon="-118.3938671">
  <ele>-28.371</ele>
  <time>2026-09-01T01:13:40Z</time>
  <course>185.75</course>
  <speed>0.022360679774997897</speed>
  <fix>3d</fix>
</trkpt>
<trkpt lat="33.8103132" lon="-118.3938671">
  <ele>-28.411</ele>
  <time>2026-09-01T01:13:40Z</time>
  <course>185.75</course>
  <speed>0.022360679774997897</speed>
  <fix>3d</fix>
</trkpt>
<trkpt lat="33.810313" lon="-118.393867">
  <ele>-27.52</ele>
  <time>2026-09-01T01:13:40Z</time>
  <course>0.0</course>
  <speed>0.0</speed>
  <fix>3d</fix>
</trkpt>
<trkpt lat="33.8103132" lon="-118.3938671">
  <ele>-28.433</ele>
  <time>2026-09-01T01:13:40Z</time>
  <course>185.75</course>
  <speed>0.022360679774997897</speed>
  <fix>3d</fix>
</trkpt>
<trkpt lat="33.8103132" lon="-118.3938671">
  <ele>-28.473</ele>
  <time>2026-09-01T01:13:40Z</time>
  <course>185.74</course>
  <speed>0.022360679774997897</speed>
  <fix>3d</fix>
</trkpt>
<trkpt lat="33.810313" lon="-118.393867">
  <ele>-27.64</ele>
  <time>2026-09-01T01:13:40Z</time>
  <course>0.0</course>
  <speed>0.0</speed>
  <fix>3d</fix>
</trkpt>
<trkpt lat="33.8103132" lon="-118.3938671">
  <ele>-28.493</ele>
  <time>2026-09-01T01:13:40Z</time>
  <course>185.74</course>
  <speed>0.022360679774997897</speed>
  <fix>3d</fix>
</trkpt>
<trkpt lat="33.8103132" lon="-118.3938671">
  <ele>-28.534</ele>
  <time>2026-09-01T01:13:40Z</time>
  <course>185.74</course>
  <speed>0.022360679774997897</speed>
  <fix>3d</fix>
</trkpt>
<trkpt lat="33.810313" lon="-118.393867">
  <ele>-27.64</ele>
  <time>2026-09-01T01:13:40Z</time>
  <course>0.0</course>
  <speed>0.0</speed>
  <fix>3d</fix>
</trkpt>
<trkpt lat="33.8103132" lon="-118.3938671">
  <ele>-28.554</ele>
  <time>2026-09-01T01:13:40Z</time>
  <course>185.74</course>
  <speed>0.022360679774997897</speed>
  <fix>3d</fix>
</trkpt>
<trkpt lat="33.8103132" lon="-118.3938671">
  <ele>-28.596</ele>
  <time>2026-09-01T01:13:40Z</time>
  <course>185.74</course>
  <speed>0.022360679774997897</speed>
  <fix>3d</fix>
</trkpt>
<trkpt lat="33.810313" lon="-118.393867">
  <ele>-27.76</ele>
  <time>2026-09-01T01:13:40Z</time>
  <course>0.0</course>
  <speed>0.0</speed>
  <fix>3d</fix>
</trkpt>
<trkpt lat="33.8103132" lon="-118.3938671">
  <ele>-28.615</ele>
  <time>2026-09-01T01:13:40Z</time>
  <course>185.73</course>
  <speed>0.022360679774997897</speed>
  <fix>3d</fix>
</trkpt>
<trkpt lat="33.8103132" lon="-118.3938671">
  <ele>-28.657</ele>
  <time>2026-09-01T01:13:40Z</time>
  <course>185.73</course>
  <speed>0.022360679774997897</speed>
  <fix>3d</fix>
</trkpt>
<trkpt lat="33.810313" lon="-118.393867">
  <ele>-27.76</ele>
  <time>2026-09-01T01:13:40Z</time>
  <course>0.0</course>
  <speed>0.0</speed>
  <fix>3d</fix>
</trkpt>
<trkpt lat="33.8103132" lon="-118.3938671">
  <ele>-28.658</ele>
  <time>2026-09-01T01:13:40Z</time>
  <course>185.73</course>
  <speed>0.022360679774997897</speed>
  <fix>3d</fix>
</trkpt>
<trkpt lat="33.8103132" lon="-118.3938671">
  <ele>-28.718</ele>
  <time>2026-09-01T01:13:40Z</time>
  <course>185.73</course>
  <speed>0.022360679774997897</speed>
  <fix>3d</fix>
</trkpt>
<trkpt lat="33.810313" lon="-118.393867">
  <ele>-27.88</ele>
  <time>2026-09-01T01:13:40Z</time>
  <course>0.0</course>
  <speed>0.0</speed>
  <fix>3d</fix>
</trkpt>
<trkpt lat="33.8103132" lon="-118.3938671">
  <ele>-28.719</ele>
  <time>2026-09-01T01:13:40Z</time>
  <course>185.73</course>
  <speed>0.022360679774997897</speed>
  <fix>3d</fix>
</trkpt>
<trkpt lat="33.8103132" lon="-118.3938671">
  <ele>-28.779</ele>
  <time>2026-09-01T01:13:40Z</time>
  <course>185.73</course>
  <speed>0.022360679774997897</speed>
  <fix>3d</fix>
</trkpt>
<trkpt lat="33.810313" lon="-118.393867">
  <ele>-27.88</ele>
  <time>2026-09-01T01:13:40Z</time>
  <course>0.0</course>
  <speed>0.0</speed>
  <fix>3d</fix>
</trkpt>
<trkpt lat="33.8103132" lon="-118.3938671">
  <ele>-28.781</ele>
  <time>2026-09-01T01:13:40Z</time>
  <course>185.73</course>
  <speed>0.022360679774997897</speed>
  <fix>3d</fix>
</trkpt>
<trkpt lat="33.8103132" lon="-118.3938671">
  <ele>-28.841</ele>
  <time>2026-09-01T01:13:40Z</time>
  <course>185.72</course>
  <speed>0.022360679774997897</speed>
  <fix>3d</fix>
</trkpt>
<trkpt lat="33.810313" lon="-118.393867">
  <ele>-28.01</ele>
  <time>2026-09-01T01:13:40Z</time>
  <course>0.0</course>
  <speed>0.0</speed>
  <fix>3d</fix>
</trkpt>
<trkpt lat="33.8103132" lon="-118.3938671">
  <ele>-28.842</ele>
  <time>2026-09-01T01:13:40Z</time>
  <course>185.72</course>
  <speed>0.022360679774997897</speed>
  <fix>3d</fix>
</trkpt>
<trkpt lat="33.8103132" lon="-118.3938671">
  <ele>-28.902</ele>
  <time>2026-09-01T01:13:40Z</time>
  <course>185.72</course>
  <speed>0.022360679774997897</speed>
  <fix>3d</fix>
</trkpt>
<trkpt lat="33.810313" lon="-118.393867">
  <ele>-28.01</ele>
  <time>2026-09-01T01:13:40Z</time>
  <course>0.0</course>
  <speed>0.0</speed>
  <fix>3d</fix>
</trkpt>
<trkpt lat="33.8103132" lon="-118.3938671">
  <ele>-28.922</ele>
  <time>2026-09-01T01:13:40Z</time>
  <course>185.72</course>
  <speed>0.022360679774997897</speed>
  <fix>3d</fix>
</trkpt>
<trkpt lat="33.8103132" lon="-118.3938671">
  <ele>-28.962</ele>
  <time>2026-09-01T01:13:40Z</time>
  <course>185.71</course>
  <speed>0.022360679774997897</speed>
  <fix>3d</fix>
</trkpt>
<trkpt lat="33.810313" lon="-118.393867">
  <ele>-28.13</ele>
  <time>2026-09-01T01:13:40Z</time>
  <course>0.0</course>
  <speed>0.0</speed>
  <fix>3d</fix>
</trkpt>
<trkpt lat="33.8103132" lon="-118.3938671">
  <ele>-28.983</ele>
  <time>2026-09-01T01:13:40Z</time>
  <course>185.71</course>
  <speed>0.022360679774997897</speed>
  <fix>3d</fix>
</trkpt>
<trkpt lat="33.8103132" lon="-118.3938671">
  <ele>-29.021</ele>
  <time>2026-09-01T01:13:40Z</time>
  <course>185.71</course>
  <speed>0.022360679774997897</speed>
  <fix>3d</fix>
</trkpt>
<trkpt lat="33.810313" lon="-118.393867">
  <ele>-28.13</ele>
  <time>2026-09-01T01:13:40Z</time>
  <course>0.0</course>
  <speed>0.0</speed>
  <fix>3d</fix>
</trkpt>
<trkpt lat="33.8103132" lon="-118.3938671">
  <ele>-29.041</ele>
  <time>2026-09-01T01:13:40Z</time>
  <course>185.71</course>
  <speed>0.022360679774997897</speed>
  <fix>3d</fix>
</trkpt>
<trkpt lat="33.8103132" lon="-118.3938671">
  <ele>-29.082</ele>
  <time>2026-09-01T01:13:40Z</time>
  <course>185.71</course>
  <speed>0.022360679774997897</speed>
  <fix>3d</fix>
</trkpt>
<trkpt lat="33.810313" lon="-118.393867">
  <ele>-28.25</ele>
  <time>2026-09-01T01:13:40Z</time>
  <course>0.0</course>
  <speed>0.0</speed>
  <fix>3d</fix>
</trkpt>
<trkpt lat="33.8103132" lon="-118.3938671">
  <ele>-29.106</ele>
  <time>2026-09-01T01:13:40Z</time>
  <course>185.71</course>
  <speed>0.022360679774997897</speed>
  <fix>3d</fix>
</trkpt>
<trkpt lat="33.8103132" lon="-118.3938671">
  <ele>-29.143</ele>
  <time>2026-09-01T01:13:40Z</time>
  <course>185.7</course>
  <speed>0.022360679774997897</speed>
  <fix>3d</fix>
</trkpt>
<trkpt lat="33.810313" lon="-118.393867">
  <ele>-28.25</ele>
  <time>2026-09-01T01:13:40Z</time>
  <course>0.0</course>
  <speed>0.0</speed>
  <fix>3d</fix>
</trkpt>
<trkpt lat="33.8103132" lon="-118.3938671">
  <ele>-29.162</ele>
  <time>2026-09-01T01:13:40Z</time>
  <course>185.7</course>
  <speed>0.022360679774997897</speed>
  <fix>3d</fix>
</trkpt>
<trkpt lat="33.8103132" lon="-118.3938671">
  <ele>-29.204</ele>
  <time>2026-09-01T01:13:40Z</time>
  <course>185.7</course>
  <speed>0.022360679774997897</speed>
  <fix>3d</fix>
</trkpt>
<trkpt lat="33.810313" lon="-118.393867">
  <ele>-28.36</ele>
  <time>2026-09-01T01:13:40Z</time>
  <course>0.0</course>
  <speed>0.0</speed>
  <fix>3d</fix>
</trkpt>
<trkpt lat="33.8103132" lon="-118.3938671">
  <ele>-29.225</ele>
  <time>2026-09-01T01:13:40Z</time>
  <course>185.7</course>
  <speed>0.022360679774997897</speed>
  <fix>3d</fix>
</trkpt>
<trkpt lat="33.8103132" lon="-118.3938671">
  <ele>-29.265</ele>
  <time>2026-09-01T01:13:40Z</time>
  <course>185.7</course>
  <speed>0.022360679774997897</speed>
  <fix>3d</fix>
</trkpt>
<trkpt lat="33.810313" lon="-118.393867">
  <ele>-28.36</ele>
  <time>2026-09-01T01:13:40Z</time>
  <course>0.0</course>
  <speed>0.0</speed>
  <fix>3d</fix>
</trkpt>
<trkpt lat="33.8103132" lon="-118.3938671">
  <ele>-29.285</ele>
  <time>2026-09-01T01:13:40Z</time>
  <course>185.7</course>
  <speed>0.022360679774997897</speed>
  <fix>3d</fix>
</trkpt>
<trkpt lat="33.8103132" lon="-118.3938671">
  <ele>-29.327</ele>
  <time>2026-09-01T01:13:40Z</time>
  <course>185.69</course>
  <speed>0.022360679774997897</speed>
  <fix>3d</fix>
</trkpt>
<trkpt lat="33.810313" lon="-118.393867">
  <ele>-28.49</ele>
  <time>2026-09-01T01:13:40Z</time>
  <course>0.0</course>
  <speed>0.0</speed>
  <fix>3d</fix>
</trkpt>
<trkpt lat="33.8103132" lon="-118.3938671">
  <ele>-29.328</ele>
  <time>2026-09-01T01:13:40Z</time>
  <course>185.69</course>
  <speed>0.022360679774997897</speed>
  <fix>3d</fix>
</trkpt>
<trkpt lat="33.8103132" lon="-118.3938671">
  <ele>-29.389</ele>
  <time>2026-09-01T01:13:40Z</time>
  <course>185.69</course>
  <speed>0.022360679774997897</speed>
  <fix>3d</fix>
</trkpt>
<trkpt lat="33.810313" lon="-118.393867">
  <ele>-28.49</ele>
  <time>2026-09-01T01:13:40Z</time>
  <course>0.0</course>
  <speed>0.0</speed>
  <fix>3d</fix>
</trkpt>
<trkpt lat="33.8103132" lon="-118.3938671">
  <ele>-29.414</ele>
  <time>2026-09-01T01:13:40Z</time>
  <course>185.69</course>
  <speed>0.022360679774997897</speed>
  <fix>3d</fix>
</trkpt>
<trkpt lat="33.8103132" lon="-118.3938671">
  <ele>-29.451</ele>
  <time>2026-09-01T01:13:40Z</time>
  <course>185.69</course>
  <speed>0.022360679774997897</speed>
  <fix>3d</fix>
</trkpt>
<trkpt lat="33.810313" lon="-118.393867">
  <ele>-28.61</ele>
  <time>2026-09-01T01:13:40Z</time>
  <course>0.0</course>
  <speed>0.0</speed>
  <fix>3d</fix>
</trkpt>
<trkpt lat="33.8103132" lon="-118.3938671">
  <ele>-29.471</ele>
  <time>2026-09-01T01:13:40Z</time>
  <course>185.69</course>
  <speed>0.022360679774997897</speed>
  <fix>3d</fix>
</trkpt>
<trkpt lat="33.8103132" lon="-118.3938671">
  <ele>-29.513</ele>
  <time>2026-09-01T01:13:40Z</time>
  <course>185.68</course>
  <speed>0.022360679774997897</speed>
  <fix>3d</fix>
</trkpt>
<trkpt lat="33.810313" lon="-118.393867">
  <ele>-28.61</ele>
  <time>2026-09-01T01:13:40Z</time>
  <course>0.0</course>
  <speed>0.0</speed>
  <fix>3d</fix>
</trkpt>
<trkpt lat="33.8103132" lon="-118.3938671">
  <ele>-29.515</ele>
  <time>2026-09-01T01:13:40Z</time>
  <course>185.68</course>
  <speed>0.022360679774997897</speed>
  <fix>3d</fix>
</trkpt>
<trkpt lat="33.8103132" lon="-118.3938671">
  <ele>-29.577</ele>
  <time>2026-09-01T01:13:40Z</time>
  <course>185.68</course>
  <speed>0.022360679774997897</speed>
  <fix>3d</fix>
</trkpt>
<trkpt lat="33.810313" lon="-118.393867">
  <ele>-28.73</ele>
  <time>2026-09-01T01:13:40Z</time>
  <course>0.0</course>
  <speed>0.0</speed>
  <fix>3d</fix>
</trkpt>
<trkpt lat="33.8103132" lon="-118.3938671">
  <ele>-29.599</ele>
  <time>2026-09-01T01:13:40Z</time>
  <course>185.68</course>
  <speed>0.022360679774997897</speed>
  <fix>3d</fix>
</trkpt>
<trkpt lat="33.8103132" lon="-118.3938671">
  <ele>-29.64</ele>
  <time>2026-09-01T01:13:40Z</time>
  <course>185.68</course>
  <speed>0.022360679774997897</speed>
  <fix>3d</fix>
</trkpt>
<trkpt lat="33.810313" lon="-118.393867">
  <ele>-28.73</ele>
  <time>2026-09-01T01:13:40Z</time>
  <course>0.0</course>
  <speed>0.0</speed>
  <fix>3d</fix>
</trkpt>
<trkpt lat="33.8103132" lon="-118.3938671">
  <ele>-29.66</ele>
  <time>2026-09-01T01:13:40Z</time>
  <course>185.68</course>
  <speed>0.022360679774997897</speed>
  <fix>3d</fix>
</trkpt>
<trkpt lat="33.8103132" lon="-118.3938671">
  <ele>-29.703</ele>
  <time>2026-09-01T01:13:40Z</time>
  <course>185.67</course>
  <speed>0.022360679774997897</speed>
  <fix>3d</fix>
</trkpt>
<trkpt lat="33.810313" lon="-118.393867">
  <ele>-28.85</ele>
  <time>2026-09-01T01:13:40Z</time>
  <course>0.0</course>
  <speed>0.0</speed>
  <fix>3d</fix>
</trkpt>
<trkpt lat="33.8103132" lon="-118.3938671">
  <ele>-29.723</ele>
  <time>2026-09-01T01:13:40Z</time>
  <course>185.67</course>
  <speed>0.022360679774997897</speed>
  <fix>3d</fix>
</trkpt>
<trkpt lat="33.8103132" lon="-118.3938671">
  <ele>-29.765</ele>
  <time>2026-09-01T01:13:40Z</time>
  <course>185.67</course>
  <speed>0.022360679774997897</speed>
  <fix>3d</fix>
</trkpt>
<trkpt lat="33.810313" lon="-118.393867">
  <ele>-28.85</ele>
  <time>2026-09-01T01:13:40Z</time>
  <course>0.0</course>
  <speed>0.0</speed>
  <fix>3d</fix>
</trkpt>
<trkpt lat="33.8103132" lon="-118.3938671">
  <ele>-29.786</ele>
  <time>2026-09-01T01:13:40Z</time>
  <course>185.67</course>
  <speed>0.022360679774997897</speed>
  <fix>3d</fix>
</trkpt>
<trkpt lat="33.8103132" lon="-118.3938671">
  <ele>-29.826</ele>
  <time>2026-09-01T01:13:40Z</time>
  <course>185.67</course>
  <speed>0.022360679774997897</speed>
  <fix>3d</fix>
</trkpt>
<trkpt lat="33.810313" lon="-118.393867">
  <ele>-28.97</ele>
  <time>2026-09-01T01:13:40Z</time>
  <course>0.0</course>
  <speed>0.0</speed>
  <fix>3d</fix>
</trkpt>
<trkpt lat="33.8103132" lon="-118.3938671">
  <ele>-29.848</ele>
  <time>2026-09-01T01:13:40Z</time>
  <course>185.67</course>
  <speed>0.022360679774997897</speed>
  <fix>3d</fix>
</trkpt>
<trkpt lat="33.8103132" lon="-118.3938671">
  <ele>-29.887</ele>
  <time>2026-09-01T01:13:40Z</time>
  <course>185.66</course>
  <speed>0.022360679774997897</speed>
  <fix>3d</fix>
</trkpt>
<trkpt lat="33.810313" lon="-118.393867">
  <ele>-28.97</ele>
  <time>2026-09-01T01:13:40Z</time>
  <course>0.0</course>
  <speed>0.0</speed>
  <fix>3d</fix>
</trkpt>
<trkpt lat="33.8103132" lon="-118.3938671">
  <ele>-29.909</ele>
  <time>2026-09-01T01:13:40Z</time>
  <course>185.66</course>
  <speed>0.022360679774997897</speed>
  <fix>3d</fix>
</trkpt>
<trkpt lat="33.8103132" lon="-118.3938671">
  <ele>-29.948</ele>
  <time>2026-09-01T01:13:40Z</time>
  <course>185.66</course>
  <speed>0.022360679774997897</speed>
  <fix>3d</fix>
</trkpt>
<trkpt lat="33.810313" lon="-118.393867">
  <ele>-29.09</ele>
  <time>2026-09-01T01:13:40Z</time>
  <course>0.0</course>
  <speed>0.0</speed>
  <fix>3d</fix>
</trkpt>
<trkpt lat="33.8103132" lon="-118.3938671">
  <ele>-29.967</ele>
  <time>2026-09-01T01:13:40Z</time>
  <course>185.66</course>
  <speed>0.022360679774997897</speed>
  <fix>3d</fix>
</trkpt>
<trkpt lat="33.8103132" lon="-118.3938671">
  <ele>-30.009</ele>
  <time>2026-09-01T01:13:40Z</time>
  <course>185.66</course>
  <speed>0.022360679774997897</speed>
  <fix>3d</fix>
</trkpt>
<trkpt lat="33.810313" lon="-118.393867">
  <ele>-29.09</ele>
  <time>2026-09-01T01:13:40Z</time>
  <course>0.0</course>
  <speed>0.0</speed>
  <fix>3d</fix>
</trkpt>
<trkpt lat="33.8103132" lon="-118.3938671">
  <ele>-30.011</ele>
  <time>2026-09-01T01:13:40Z</time>
  <course>185.66</course>
  <speed>0.022360679774997897</speed>
  <fix>3d</fix>
</trkpt>
<trkpt lat="33.8103132" lon="-118.3938671">
  <ele>-30.071</ele>
  <time>2026-09-01T01:13:40Z</time>
  <course>185.65</course>
  <speed>0.022360679774997897</speed>
  <fix>3d</fix>
</trkpt>
<trkpt lat="33.810313" lon="-118.393867">
  <ele>-29.21</ele>
  <time>2026-09-01T01:13:40Z</time>
  <course>0.0</course>
  <speed>0.0</speed>
  <fix>3d</fix>
</trkpt>
<trkpt lat="33.8103132" lon="-118.3938671">
  <ele>-30.072</ele>
  <time>2026-09-01T01:13:40Z</time>
  <course>185.65</course>
  <speed>0.022360679774997897</speed>
  <fix>3d</fix>
</trkpt>
<trkpt lat="33.8103132" lon="-118.3938671">
  <ele>-30.133</ele>
  <time>2026-09-01T01:13:40Z</time>
  <course>185.65</course>
  <speed>0.022360679774997897</speed>
  <fix>3d</fix>
</trkpt>
<trkpt lat="33.810313" lon="-118.393867">
  <ele>-29.21</ele>
  <time>2026-09-01T01:13:40Z</time>
  <course>0.0</course>
  <speed>0.0</speed>
  <fix>3d</fix>
</trkpt>
<trkpt lat="33.8103132" lon="-118.3938671">
  <ele>-30.153</ele>
  <time>2026-09-01T01:13:40Z</time>
  <course>185.65</course>
  <speed>0.022360679774997897</speed>
  <fix>3d</fix>
</trkpt>
<trkpt lat="33.8103132" lon="-118.3938671">
  <ele>-30.195</ele>
  <time>2026-09-01T01:13:40Z</time>
  <course>185.65</course>
  <speed>0.022360679774997897</speed>
  <fix>3d</fix>
</trkpt>
<trkpt lat="33.810313" lon="-118.393867">
  <ele>-29.33</ele>
  <time>2026-09-01T01:13:40Z</time>
  <course>0.0</course>
  <speed>0.0</speed>
  <fix>3d</fix>
</trkpt>
<trkpt lat="33.8103132" lon="-118.3938671">
  <ele>-30.217</ele>
  <time>2026-09-01T01:13:40Z</time>
  <course>185.65</course>
  <speed>0.022360679774997897</speed>
  <fix>3d</fix>
</trkpt>
<trkpt lat="33.8103132" lon="-118.3938671">
  <ele>-30.258</ele>
  <time>2026-09-01T01:13:40Z</time>
  <course>185.64</course>
  <speed>0.022360679774997897</speed>
  <fix>3d</fix>
</trkpt>
<trkpt lat="33.810313" lon="-118.393867">
  <ele>-29.33</ele>
  <time>2026-09-01T01:13:40Z</time>
  <course>0.0</course>
  <speed>0.0</speed>
  <fix>3d</fix>
</trkpt>
<trkpt lat="33.8103132" lon="-118.3938671">
  <ele>-30.278</ele>
  <time>2026-09-01T01:13:40Z</time>
  <course>185.64</course>
  <speed>0.022360679774997897</speed>
  <fix>3d</fix>
</trkpt>
<trkpt lat="33.8103132" lon="-118.3938671">
  <ele>-30.321</ele>
  <time>2026-09-01T01:13:40Z</time>
  <course>185.64</course>
  <speed>0.022360679774997897</speed>
  <fix>3d</fix>
</trkpt>
<trkpt lat="33.810313" lon="-118.393867">
  <ele>-29.45</ele>
  <time>2026-09-01T01:13:40Z</time>
  <course>0.0</course>
  <speed>0.0</speed>
  <fix>3d</fix>
</trkpt>
<trkpt lat="33.8103132" lon="-118.3938671">
  <ele>-30.341</ele>
  <time>2026-09-01T01:13:40Z</time>
  <course>185.64</course>
  <speed>0.022360679774997897</speed>
  <fix>3d</fix>
</trkpt>
<trkpt lat="33.8103132" lon="-118.3938671">
  <ele>-30.383</ele>
  <time>2026-09-01T01:13:40Z</time>
  <course>185.64</course>
  <speed>0.022360679774997897</speed>
  <fix>3d</fix>
</trkpt>
<trkpt lat="33.810313" lon="-118.393867">
  <ele>-29.45</ele>
  <time>2026-09-01T01:13:40Z</time>
  <course>0.0</course>
  <speed>0.0</speed>
  <fix>3d</fix>
</trkpt>
<trkpt lat="33.8103132" lon="-118.3938671">
  <ele>-30.385</ele>
  <time>2026-09-01T01:13:40Z</time>
  <course>185.64</course>
  <speed>0.022360679774997897</speed>
  <fix>3d</fix>
</trkpt>
<trkpt lat="33.8103132" lon="-118.3938671">
  <ele>-30.446</ele>
  <time>2026-09-01T01:13:40Z</time>
  <course>185.63</course>
  <speed>0.022360679774997897</speed>
  <fix>3d</fix>
</trkpt>
<trkpt lat="33.810313" lon="-118.393867">
  <ele>-29.57</ele>
  <time>2026-09-01T01:13:40Z</time>
  <course>0.0</course>
  <speed>0.0</speed>
  <fix>3d</fix>
</trkpt>
<trkpt lat="33.8103132" lon="-118.3938671">
  <ele>-30.467</ele>
  <time>2026-09-01T01:13:40Z</time>
  <course>185.63</course>
  <speed>0.022360679774997897</speed>
  <fix>3d</fix>
</trkpt>
<trkpt lat="33.8103132" lon="-118.3938671">
  <ele>-30.508</ele>
  <time>2026-09-01T01:13:40Z</time>
  <course>185.63</course>
  <speed>0.022360679774997897</speed>
  <fix>3d</fix>
</trkpt>
<trkpt lat="33.810313" lon="-118.393867">
  <ele>-29.57</ele>
  <time>2026-09-01T01:13:40Z</time>
  <course>0.0</course>
  <speed>0.0</speed>
  <fix>3d</fix>
</trkpt>
<trkpt lat="33.8103132" lon="-118.3938671">
  <ele>-30.528</ele>
  <time>2026-09-01T01:13:40Z</time>
  <course>185.63</course>
  <speed>0.022360679774997897</speed>
  <fix>3d</fix>
</trkpt>
<trkpt lat="33.8103132" lon="-118.3938671">
  <ele>-30.57</ele>
  <time>2026-09-01T01:13:40Z</time>
  <course>185.63</course>
  <speed>0.022360679774997897</speed>
  <fix>3d</fix>
</trkpt>
<trkpt lat="33.810313" lon="-118.393867">
  <ele>-29.7</ele>
  <time>2026-09-01T01:13:40Z</time>
  <course>0.0</course>
  <speed>0.0</speed>
  <fix>3d</fix>
</trkpt>
<trkpt lat="33.8103132" lon="-118.3938671">
  <ele>-30.59</ele>
  <time>2026-09-01T01:13:40Z</time>
  <course>185.63</course>
  <speed>0.022360679774997897</speed>
  <fix>3d</fix>
</trkpt>
<trkpt lat="33.8103132" lon="-118.3938671">
  <ele>-30.631</ele>
  <time>2026-09-01T01:13:40Z</time>
  <course>185.62</course>
  <speed>0.022360679774997897</speed>
  <fix>3d</fix>
</trkpt>
<trkpt lat="33.810313" lon="-118.393867">
  <ele>-29.7</ele>
  <time>2026-09-01T01:13:40Z</time>
  <course>0.0</course>
  <speed>0.0</speed>
  <fix>3d</fix>
</trkpt>
<trkpt lat="33.8103132" lon="-118.3938671">
  <ele>-30.633</ele>
  <time>2026-09-01T01:13:40Z</time>
  <course>185.62</course>
  <speed>0.022360679774997897</speed>
  <fix>3d</fix>
</trkpt>
<trkpt lat="33.8103132" lon="-118.3938671">
  <ele>-30.692</ele>
  <time>2026-09-01T01:13:40Z</time>
  <course>185.62</course>
  <speed>0.022360679774997897</speed>
  <fix>3d</fix>
</trkpt>
<trkpt lat="33.810313" lon="-118.393867">
  <ele>-29.82</ele>
  <time>2026-09-01T01:13:40Z</time>
  <course>0.0</course>
  <speed>0.0</speed>
  <fix>3d</fix>
</trkpt>
<trkpt lat="33.8103132" lon="-118.3938671">
  <ele>-30.694</ele>
  <time>2026-09-01T01:13:40Z</time>
  <course>185.62</course>
  <speed>0.022360679774997897</speed>
  <fix>3d</fix>
</trkpt>
<trkpt lat="33.8103132" lon="-118.3938671">
  <ele>-30.752</ele>
  <time>2026-09-01T01:13:40Z</time>
  <course>185.62</course>
  <speed>0.022360679774997897</speed>
  <fix>3d</fix>
</trkpt>
<trkpt lat="33.810313" lon="-118.393867">
  <ele>-29.82</ele>
  <time>2026-09-01T01:13:40Z</time>
  <course>0.0</course>
  <speed>0.0</speed>
  <fix>3d</fix>
</trkpt>
<trkpt lat="33.8103132" lon="-118.3938671">
  <ele>-30.773</ele>
  <time>2026-09-01T01:13:40Z</time>
  <course>185.62</course>
  <speed>0.022360679774997897</speed>
  <fix>3d</fix>
</trkpt>
<trkpt lat="33.8103132" lon="-118.3938671">
  <ele>-30.812</ele>
  <time>2026-09-01T01:13:40Z</time>
  <course>185.61</course>
  <speed>0.022360679774997897</speed>
  <fix>3d</fix>
</trkpt>
<trkpt lat="33.810313" lon="-118.393867">
  <ele>-29.93</ele>
  <time>2026-09-01T01:13:40Z</time>
  <course>0.0</course>
  <speed>0.0</speed>
  <fix>3d</fix>
</trkpt>
<trkpt lat="33.8103132" lon="-118.3938671">
  <ele>-30.831</ele>
  <time>2026-09-01T01:13:40Z</time>
  <course>185.61</course>
  <speed>0.022360679774997897</speed>
  <fix>3d</fix>
</trkpt>
<trkpt lat="33.8103132" lon="-118.3938671">
  <ele>-30.871</ele>
  <time>2026-09-01T01:13:40Z</time>
  <course>185.61</course>
  <speed>0.022360679774997897</speed>
  <fix>3d</fix>
</trkpt>
<trkpt lat="33.810313" lon="-118.393867">
  <ele>-29.93</ele>
  <time>2026-09-01T01:13:40Z</time>
  <course>0.0</course>
  <speed>0.0</speed>
  <fix>3d</fix>
</trkpt>
<trkpt lat="33.8103132" lon="-118.3938671">
  <ele>-30.89</ele>
  <time>2026-09-01T01:13:40Z</time>
  <course>185.61</course>
  <speed>0.022360679774997897</speed>
  <fix>3d</fix>
</trkpt>
<trkpt lat="33.8103132" lon="-118.3938671">
  <ele>-30.93</ele>
  <time>2026-09-01T01:13:40Z</time>
  <course>185.61</course>
  <speed>0.022360679774997897</speed>
  <fix>3d</fix>
</trkpt>
<trkpt lat="33.810313" lon="-118.393867">
  <ele>-30.06</ele>
  <time>2026-09-01T01:13:40Z</time>
  <course>0.0</course>
  <speed>0.0</speed>
  <fix>3d</fix>
</trkpt>
<trkpt lat="33.8103132" lon="-118.3938671">
  <ele>-30.951</ele>
  <time>2026-09-01T01:13:40Z</time>
  <course>185.61</course>
  <speed>0.022360679774997897</speed>
  <fix>3d</fix>
</trkpt>
<trkpt lat="33.8103132" lon="-118.3938671">
  <ele>-30.99</ele>
  <time>2026-09-01T01:13:40Z</time>
  <course>185.61</course>
  <speed>0.022360679774997897</speed>
  <fix>3d</fix>
</trkpt>
<trkpt lat="33.810313" lon="-118.393867">
  <ele>-30.06</ele>
  <time>2026-09-01T01:13:40Z</time>
  <course>0.0</course>
  <speed>0.0</speed>
  <fix>3d</fix>
</trkpt>
<trkpt lat="33.8103132" lon="-118.3938671">
  <ele>-30.993</ele>
  <time>2026-09-01T01:13:40Z</time>
  <course>185.61</course>
  <speed>0.022360679774997897</speed>
  <fix>3d</fix>
</trkpt>
<trkpt lat="33.8103132" lon="-118.3938671">
  <ele>-31.049</ele>
  <time>2026-09-01T01:13:40Z</time>
  <course>185.6</course>
  <speed>0.022360679774997897</speed>
  <fix>3d</fix>
</trkpt>
<trkpt lat="33.810313" lon="-118.393867">
  <ele>-30.18</ele>
  <time>2026-09-01T01:13:40Z</time>
  <course>0.0</course>
  <speed>0.0</speed>
  <fix>3d</fix>
</trkpt>
<trkpt lat="33.8103132" lon="-118.3938671">
  <ele>-31.05</ele>
  <time>2026-09-01T01:13:40Z</time>
  <course>185.6</course>
  <speed>0.022360679774997897</speed>
  <fix>3d</fix>
</trkpt>
<trkpt lat="33.8103132" lon="-118.3938671">
  <ele>-31.109</ele>
  <time>2026-09-01T01:13:40Z</time>
  <course>185.6</course>
  <speed>0.022360679774997897</speed>
  <fix>3d</fix>
</trkpt>
<trkpt lat="33.810313" lon="-118.393867">
  <ele>-30.18</ele>
  <time>2026-09-01T01:13:40Z</time>
  <course>0.0</course>
  <speed>0.0</speed>
  <fix>3d</fix>
</trkpt>
<trkpt lat="33.8103132" lon="-118.3938671">
  <ele>-31.128</ele>
  <time>2026-09-01T01:13:40Z</time>
  <course>185.6</course>
  <speed>0.022360679774997897</speed>
  <fix>3d</fix>
</trkpt>
<trkpt lat="33.8103132" lon="-118.3938671">
  <ele>-31.17</ele>
  <time>2026-09-01T01:13:40Z</time>
  <course>185.6</course>
  <speed>0.022360679774997897</speed>
  <fix>3d</fix>
</trkpt>
<trkpt lat="33.810313" lon="-118.393867">
  <ele>-30.3</ele>
  <time>2026-09-01T01:13:40Z</time>
  <course>0.0</course>
  <speed>0.0</speed>
  <fix>3d</fix>
</trkpt>
<trkpt lat="33.8103132" lon="-118.3938671">
  <ele>-31.189</ele>
  <time>2026-09-01T01:13:40Z</time>
  <course>185.6</course>
  <speed>0.022360679774997897</speed>
  <fix>3d</fix>
</trkpt>
<trkpt lat="33.8103132" lon="-118.3938671">
  <ele>-31.231</ele>
  <time>2026-09-01T01:13:40Z</time>
  <course>185.59</course>
  <speed>0.022360679774997897</speed>
  <fix>3d</fix>
</trkpt>
<trkpt lat="33.810313" lon="-118.393867">
  <ele>-30.3</ele>
  <time>2026-09-01T01:13:40Z</time>
  <course>0.0</course>
  <speed>0.0</speed>
  <fix>3d</fix>
</trkpt>
<trkpt lat="33.8103132" lon="-118.3938671">
  <ele>-31.253</ele>
  <time>2026-09-01T01:13:40Z</time>
  <course>185.59</course>
  <speed>0.022360679774997897</speed>
  <fix>3d</fix>
</trkpt>
<trkpt lat="33.8103132" lon="-118.3938671">
  <ele>-31.293</ele>
  <time>2026-09-01T01:13:40Z</time>
  <course>185.59</course>
  <speed>0.022360679774997897</speed>
  <fix>3d</fix>
</trkpt>
<trkpt lat="33.810313" lon="-118.393867">
  <ele>-30.42</ele>
  <time>2026-09-01T01:13:40Z</time>
  <course>0.0</course>
  <speed>0.0</speed>
  <fix>3d</fix>
</trkpt>
<trkpt lat="33.8103132" lon="-118.3938671">
  <ele>-31.294</ele>
  <time>2026-09-01T01:13:40Z</time>
  <course>185.59</course>
  <speed>0.022360679774997897</speed>
  <fix>3d</fix>
</trkpt>
<trkpt lat="33.8103132" lon="-118.3938671">
  <ele>-31.354</ele>
  <time>2026-09-01T01:13:40Z</time>
  <course>185.59</course>
  <speed>0.022360679774997897</speed>
  <fix>3d</fix>
</trkpt>
<trkpt lat="33.810313" lon="-118.393867">
  <ele>-30.42</ele>
  <time>2026-09-01T01:13:40Z</time>
  <course>0.0</course>
  <speed>0.0</speed>
  <fix>3d</fix>
</trkpt>
<trkpt lat="33.8103132" lon="-118.3938671">
  <ele>-31.373</ele>
  <time>2026-09-01T01:13:40Z</time>
  <course>185.59</course>
  <speed>0.022360679774997897</speed>
  <fix>3d</fix>
</trkpt>
<trkpt lat="33.8103132" lon="-118.3938671">
  <ele>-31.415</ele>
  <time>2026-09-01T01:13:40Z</time>
  <course>185.58</course>
  <speed>0.022360679774997897</speed>
  <fix>3d</fix>
</trkpt>
<trkpt lat="33.810313" lon="-118.393867">
  <ele>-30.54</ele>
  <time>2026-09-01T01:13:40Z</time>
  <course>0.0</course>
  <speed>0.0</speed>
  <fix>3d</fix>
</trkpt>
<trkpt lat="33.8103132" lon="-118.3938671">
  <ele>-31.434</ele>
  <time>2026-09-01T01:13:40Z</time>
  <course>185.58</course>
  <speed>0.022360679774997897</speed>
  <fix>3d</fix>
</trkpt>
<trkpt lat="33.8103132" lon="-118.3938671">
  <ele>-31.476</ele>
  <time>2026-09-01T01:13:40Z</time>
  <course>185.58</course>
  <speed>0.022360679774997897</speed>
  <fix>3d</fix>
</trkpt>
<trkpt lat="33.810313" lon="-118.393867">
  <ele>-30.54</ele>
  <time>2026-09-01T01:13:40Z</time>
  <course>0.0</course>
  <speed>0.0</speed>
  <fix>3d</fix>
</trkpt>
<trkpt lat="33.8103132" lon="-118.3938671">
  <ele>-31.496</ele>
  <time>2026-09-01T01:13:40Z</time>
  <course>185.58</course>
  <speed>0.022360679774997897</speed>
  <fix>3d</fix>
</trkpt>
<trkpt lat="33.8103132" lon="-118.3938671">
  <ele>-31.537</ele>
  <time>2026-09-01T01:13:40Z</time>
  <course>185.58</course>
  <speed>0.022360679774997897</speed>
  <fix>3d</fix>
</trkpt>
<trkpt lat="33.810313" lon="-118.393867">
  <ele>-30.66</ele>
  <time>2026-09-01T01:13:40Z</time>
  <course>0.0</course>
  <speed>0.0</speed>
  <fix>3d</fix>
</trkpt>
<trkpt lat="33.8103132" lon="-118.3938671">
  <ele>-31.556</ele>
  <time>2026-09-01T01:13:40Z</time>
  <course>185.58</course>
  <speed>0.022360679774997897</speed>
  <fix>3d</fix>
</trkpt>
<trkpt lat="33.8103132" lon="-118.3938671">
  <ele>-31.597</ele>
  <time>2026-09-01T01:13:40Z</time>
  <course>185.58</course>
  <speed>0.022360679774997897</speed>
  <fix>3d</fix>
</trkpt>
<trkpt lat="33.810313" lon="-118.393867">
  <ele>-30.66</ele>
  <time>2026-09-01T01:13:40Z</time>
  <course>0.0</course>
  <speed>0.0</speed>
  <fix>3d</fix>
</trkpt>
<trkpt lat="33.8103132" lon="-118.3938671">
  <ele>-31.599</ele>
  <time>2026-09-01T01:13:40Z</time>
  <course>185.58</course>
  <speed>0.022360679774997897</speed>
  <fix>3d</fix>
</trkpt>
<trkpt lat="33.8103132" lon="-118.3938671">
  <ele>-31.658</ele>
  <time>2026-09-01T01:13:40Z</time>
  <course>185.57</course>
  <speed>0.022360679774997897</speed>
  <fix>3d</fix>
</trkpt>
<trkpt lat="33.810313" lon="-118.393867">
  <ele>-30.77</ele>
  <time>2026-09-01T01:13:40Z</time>
  <course>0.0</course>
  <speed>0.0</speed>
  <fix>3d</fix>
</trkpt>
<trkpt lat="33.8103132" lon="-118.3938671">
  <ele>-31.676</ele>
  <time>2026-09-01T01:13:40Z</time>
  <course>185.57</course>
  <speed>0.022360679774997897</speed>
  <fix>3d</fix>
</trkpt>
<trkpt lat="33.8103132" lon="-118.3938671">
  <ele>-31.719</ele>
  <time>2026-09-01T01:13:40Z</time>
  <course>185.57</course>
  <speed>0.022360679774997897</speed>
  <fix>3d</fix>
</trkpt>
<trkpt lat="33.810313" lon="-118.393867">
  <ele>-30.77</ele>
  <time>2026-09-01T01:13:40Z</time>
  <course>0.0</course>
  <speed>0.0</speed>
  <fix>3d</fix>
</trkpt>
<trkpt lat="33.8103132" lon="-118.3938671">
  <ele>-31.742</ele>
  <time>2026-09-01T01:13:40Z</time>
  <course>185.57</course>
  <speed>0.022360679774997897</speed>
  <fix>3d</fix>
</trkpt>
<trkpt lat="33.8103132" lon="-118.3938671">
  <ele>-31.78</ele>
  <time>2026-09-01T01:13:40Z</time>
  <course>185.57</course>
  <speed>0.022360679774997897</speed>
  <fix>3d</fix>
</trkpt>
<trkpt lat="33.810313" lon="-118.393867">
  <ele>-30.9</ele>
  <time>2026-09-01T01:13:40Z</time>
  <course>0.0</course>
  <speed>0.0</speed>
  <fix>3d</fix>
</trkpt>
<trkpt lat="33.8103132" lon="-118.3938671">
  <ele>-31.785</ele>
  <time>2026-09-01T01:13:40Z</time>
  <course>185.57</course>
  <speed>0.022360679774997897</speed>
  <fix>3d</fix>
</trkpt>
<trkpt lat="33.8103132" lon="-118.3938671">
  <ele>-31.844</ele>
  <time>2026-09-01T01:13:40Z</time>
  <course>185.56</course>
  <speed>0.022360679774997897</speed>
  <fix>3d</fix>
</trkpt>
<trkpt lat="33.810313" lon="-118.393867">
  <ele>-30.9</ele>
  <time>2026-09-01T01:13:40Z</time>
  <course>0.0</course>
  <speed>0.0</speed>
  <fix>3d</fix>
</trkpt>
<trkpt lat="33.8103132" lon="-118.3938671">
  <ele>-31.872</ele>
  <time>2026-09-01T01:13:40Z</time>
  <course>185.56</course>
  <speed>0.022360679774997897</speed>
  <fix>3d</fix>
</trkpt>
<trkpt lat="33.8103132" lon="-118.3938671">
  <ele>-31.906</ele>
  <time>2026-09-01T01:13:40Z</time>
  <course>185.56</course>
  <speed>0.022360679774997897</speed>
  <fix>3d</fix>
</trkpt>
<trkpt lat="33.810313" lon="-118.393867">
  <ele>-31.02</ele>
  <time>2026-09-01T01:13:40Z</time>
  <course>0.0</course>
  <speed>0.0</speed>
  <fix>3d</fix>
</trkpt>
<trkpt lat="33.8103132" lon="-118.3938671">
  <ele>-31.908</ele>
  <time>2026-09-01T01:13:40Z</time>
  <course>185.56</course>
  <speed>0.022360679774997897</speed>
  <fix>3d</fix>
</trkpt>
<trkpt lat="33.8103132" lon="-118.3938671">
  <ele>-31.969</ele>
  <time>2026-09-01T01:13:40Z</time>
  <course>185.56</course>
  <speed>0.022360679774997897</speed>
  <fix>3d</fix>
</trkpt>
<trkpt lat="33.810313" lon="-118.393867">
  <ele>-31.02</ele>
  <time>2026-09-01T01:13:40Z</time>
  <course>0.0</course>
  <speed>0.0</speed>
  <fix>3d</fix>
</trkpt>
<trkpt lat="33.8103132" lon="-118.3938671">
  <ele>-32.003</ele>
  <time>2026-09-01T01:13:40Z</time>
  <course>185.56</course>
  <speed>0.022360679774997897</speed>
  <fix>3d</fix>
</trkpt>
<trkpt lat="33.8103132" lon="-118.3938671">
  <ele>-32.031</ele>
  <time>2026-09-01T01:13:40Z</time>
  <course>185.56</course>
  <speed>0.022360679774997897</speed>
  <fix>3d</fix>
</trkpt>
<trkpt lat="33.810313" lon="-118.393867">
  <ele>-31.14</ele>
  <time>2026-09-01T01:13:40Z</time>
  <course>0.0</course>
  <speed>0.0</speed>
  <fix>3d</fix>
</trkpt>
<trkpt lat="33.8103132" lon="-118.3938671">
  <ele>-32.061</ele>
  <time>2026-09-01T01:13:40Z</time>
  <course>185.55</course>
  <speed>0.022360679774997897</speed>
  <fix>3d</fix>
</trkpt>
<trkpt lat="33.8103132" lon="-118.3938671">
  <ele>-32.093</ele>
  <time>2026-09-01T01:13:40Z</time>
  <course>185.55</course>
  <speed>0.022360679774997897</speed>
  <fix>3d</fix>
</trkpt>
<trkpt lat="33.810313" lon="-118.393867">
  <ele>-31.14</ele>
  <time>2026-09-01T01:13:40Z</time>
  <course>0.0</course>
  <speed>0.0</speed>
  <fix>3d</fix>
</trkpt>
<trkpt lat="33.8103132" lon="-118.3938671">
  <ele>-32.109</ele>
  <time>2026-09-01T01:13:40Z</time>
  <course>185.55</course>
  <speed>0.022360679774997897</speed>
  <fix>3d</fix>
</trkpt>
<trkpt lat="33.8103132" lon="-118.3938671">
  <ele>-32.156</ele>
  <time>2026-09-01T01:13:40Z</time>
  <course>185.55</course>
  <speed>0.022360679774997897</speed>
  <fix>3d</fix>
</trkpt>
<trkpt lat="33.810313" lon="-118.393867">
  <ele>-31.26</ele>
  <time>2026-09-01T01:13:40Z</time>
  <course>0.0</course>
  <speed>0.0</speed>
  <fix>3d</fix>
</trkpt>
<trkpt lat="33.8103132" lon="-118.3938671">
  <ele>-32.173</ele>
  <time>2026-09-01T01:13:40Z</time>
  <course>185.55</course>
  <speed>0.022360679774997897</speed>
  <fix>3d</fix>
</trkpt>
<trkpt lat="33.8103132" lon="-118.3938671">
  <ele>-32.219</ele>
  <time>2026-09-01T01:13:40Z</time>
  <course>185.55</course>
  <speed>0.022360679774997897</speed>
  <fix>3d</fix>
</trkpt>
<trkpt lat="33.810313" lon="-118.393867">
  <ele>-31.26</ele>
  <time>2026-09-01T01:13:40Z</time>
  <course>0.0</course>
  <speed>0.0</speed>
  <fix>3d</fix>
</trkpt>
<trkpt lat="33.8103132" lon="-118.3938671">
  <ele>-32.221</ele>
  <time>2026-09-01T01:13:40Z</time>
  <course>185.55</course>
  <speed>0.022360679774997897</speed>
  <fix>3d</fix>
</trkpt>
<trkpt lat="33.8103132" lon="-118.3938671">
  <ele>-32.282</ele>
  <time>2026-09-01T01:13:40Z</time>
  <course>185.54</course>
  <speed>0.022360679774997897</speed>
  <fix>3d</fix>
</trkpt>
<trkpt lat="33.810313" lon="-118.393867">
  <ele>-31.38</ele>
  <time>2026-09-01T01:13:40Z</time>
  <course>0.0</course>
  <speed>0.0</speed>
  <fix>3d</fix>
</trkpt>
<trkpt lat="33.8103132" lon="-118.3938671">
  <ele>-32.303</ele>
  <time>2026-09-01T01:13:40Z</time>
  <course>185.54</course>
  <speed>0.022360679774997897</speed>
  <fix>3d</fix>
</trkpt>
<trkpt lat="33.8103132" lon="-118.3938671">
  <ele>-32.345</ele>
  <time>2026-09-01T01:13:40Z</time>
  <course>185.54</course>
  <speed>0.022360679774997897</speed>
  <fix>3d</fix>
</trkpt>
<trkpt lat="33.810313" lon="-118.393867">
  <ele>-31.38</ele>
  <time>2026-09-01T01:13:40Z</time>
  <course>0.0</course>
  <speed>0.0</speed>
  <fix>3d</fix>
</trkpt>
<trkpt lat="33.8103132" lon="-118.3938671">
  <ele>-32.361</ele>
  <time>2026-09-01T01:13:40Z</time>
  <course>185.54</course>
  <speed>0.022360679774997897</speed>
  <fix>3d</fix>
</trkpt>
<trkpt lat="33.8103132" lon="-118.3938671">
  <ele>-32.409</ele>
  <time>2026-09-01T01:13:40Z</time>
  <course>185.54</course>
  <speed>0.022360679774997897</speed>
  <fix>3d</fix>
</trkpt>
<trkpt lat="33.810313" lon="-118.393867">
  <ele>-31.51</ele>
  <time>2026-09-01T01:13:40Z</time>
  <course>0.0</course>
  <speed>0.0</speed>
  <fix>3d</fix>
</trkpt>
<trkpt lat="33.8103132" lon="-118.3938671">
  <ele>-32.429</ele>
  <time>2026-09-01T01:13:40Z</time>
  <course>185.54</course>
  <speed>0.022360679774997897</speed>
  <fix>3d</fix>
</trkpt>
<trkpt lat="33.8103132" lon="-118.3938671">
  <ele>-32.473</ele>
  <time>2026-09-01T01:13:40Z</time>
  <course>185.54</course>
  <speed>0.022360679774997897</speed>
  <fix>3d</fix>
</trkpt>
<trkpt lat="33.810313" lon="-118.393867">
  <ele>-31.51</ele>
  <time>2026-09-01T01:13:40Z</time>
  <course>0.0</course>
  <speed>0.0</speed>
  <fix>3d</fix>
</trkpt>
<trkpt lat="33.8103132" lon="-118.3938671">
  <ele>-32.493</ele>
  <time>2026-09-01T01:13:40Z</time>
  <course>185.54</course>
  <speed>0.022360679774997897</speed>
  <fix>3d</fix>
</trkpt>
<trkpt lat="33.8103132" lon="-118.3938671">
  <ele>-32.535</ele>
  <time>2026-09-01T01:13:40Z</time>
  <course>185.53</course>
  <speed>0.022360679774997897</speed>
  <fix>3d</fix>
</trkpt>
<trkpt lat="33.810313" lon="-118.393867">
  <ele>-31.63</ele>
  <time>2026-09-01T01:13:40Z</time>
  <course>0.0</course>
  <speed>0.0</speed>
  <fix>3d</fix>
</trkpt>
<trkpt lat="33.8103132" lon="-118.3938671">
  <ele>-32.536</ele>
  <time>2026-09-01T01:13:40Z</time>
  <course>185.53</course>
  <speed>0.022360679774997897</speed>
  <fix>3d</fix>
</trkpt>
<trkpt lat="33.8103132" lon="-118.3938671">
  <ele>-32.597</ele>
  <time>2026-09-01T01:13:40Z</time>
  <course>185.53</course>
  <speed>0.022360679774997897</speed>
  <fix>3d</fix>
</trkpt>
<trkpt lat="33.810313" lon="-118.393867">
  <ele>-31.63</ele>
  <time>2026-09-01T01:13:40Z</time>
  <course>0.0</course>
  <speed>0.0</speed>
  <fix>3d</fix>
</trkpt>
<trkpt lat="33.8103132" lon="-118.3938671">
  <ele>-32.598</ele>
  <time>2026-09-01T01:13:40Z</time>
  <course>185.53</course>
  <speed>0.022360679774997897</speed>
  <fix>3d</fix>
</trkpt>
<trkpt lat="33.8103132" lon="-118.3938671">
  <ele>-32.658</ele>
  <time>2026-09-01T01:13:40Z</time>
  <course>185.53</course>
  <speed>0.022360679774997897</speed>
  <fix>3d</fix>
</trkpt>
<trkpt lat="33.810313" lon="-118.393867">
  <ele>-31.75</ele>
  <time>2026-09-01T01:13:40Z</time>
  <course>0.0</course>
  <speed>0.0</speed>
  <fix>3d</fix>
</trkpt>
<trkpt lat="33.8103132" lon="-118.3938671">
  <ele>-32.677</ele>
  <time>2026-09-01T01:13:40Z</time>
  <course>185.53</course>
  <speed>0.022360679774997897</speed>
  <fix>3d</fix>
</trkpt>
<trkpt lat="33.8103132" lon="-118.3938671">
  <ele>-32.718</ele>
  <time>2026-09-01T01:13:40Z</time>
  <course>185.53</course>
  <speed>0.022360679774997897</speed>
  <fix>3d</fix>
</trkpt>
<trkpt lat="33.810313" lon="-118.393867">
  <ele>-31.75</ele>
  <time>2026-09-01T01:13:40Z</time>
  <course>0.0</course>
  <speed>0.0</speed>
  <fix>3d</fix>
</trkpt>
<trkpt lat="33.8103132" lon="-118.3938671">
  <ele>-32.739</ele>
  <time>2026-09-01T01:13:40Z</time>
  <course>185.52</course>
  <speed>0.022360679774997897</speed>
  <fix>3d</fix>
</trkpt>
<trkpt lat="33.8103132" lon="-118.3938671">
  <ele>-32.779</ele>
  <time>2026-09-01T01:13:40Z</time>
  <course>185.52</course>
  <speed>0.022360679774997897</speed>
  <fix>3d</fix>
</trkpt>
<trkpt lat="33.810313" lon="-118.393867">
  <ele>-31.86</ele>
  <time>2026-09-01T01:13:40Z</time>
  <course>0.0</course>
  <speed>0.0</speed>
  <fix>3d</fix>
</trkpt>
<trkpt lat="33.8103132" lon="-118.3938671">
  <ele>-32.802</ele>
  <time>2026-09-01T01:13:40Z</time>
  <course>185.52</course>
  <speed>0.022360679774997897</speed>
  <fix>3d</fix>
</trkpt>
<trkpt lat="33.8103132" lon="-118.3938671">
  <ele>-32.84</ele>
  <time>2026-09-01T01:13:40Z</time>
  <course>185.52</course>
  <speed>0.022360679774997897</speed>
  <fix>3d</fix>
</trkpt>
<trkpt lat="33.810313" lon="-118.393867">
  <ele>-31.86</ele>
  <time>2026-09-01T01:13:40Z</time>
  <course>0.0</course>
  <speed>0.0</speed>
  <fix>3d</fix>
</trkpt>
<trkpt lat="33.8103132" lon="-118.3938671">
  <ele>-32.842</ele>
  <time>2026-09-01T01:13:40Z</time>
  <course>185.52</course>
  <speed>0.022360679774997897</speed>
  <fix>3d</fix>
</trkpt>
<trkpt lat="33.8103132" lon="-118.3938671">
  <ele>-32.901</ele>
  <time>2026-09-01T01:13:40Z</time>
  <course>185.52</course>
  <speed>0.022360679774997897</speed>
  <fix>3d</fix>
</trkpt>
<trkpt lat="33.810313" lon="-118.393867">
  <ele>-31.99</ele>
  <time>2026-09-01T01:13:40Z</time>
  <course>0.0</course>
  <speed>0.0</speed>
  <fix>3d</fix>
</trkpt>
<trkpt lat="33.8103132" lon="-118.3938671">
  <ele>-32.924</ele>
  <time>2026-09-01T01:13:40Z</time>
  <course>185.52</course>
  <speed>0.022360679774997897</speed>
  <fix>3d</fix>
</trkpt>
<trkpt lat="33.8103132" lon="-118.3938671">
  <ele>-32.963</ele>
  <time>2026-09-01T01:13:40Z</time>
  <course>185.51</course>
  <speed>0.022360679774997897</speed>
  <fix>3d</fix>
</trkpt>
<trkpt lat="33.810313" lon="-118.393867">
  <ele>-31.99</ele>
  <time>2026-09-01T01:13:40Z</time>
  <course>0.0</course>
  <speed>0.0</speed>
  <fix>3d</fix>
</trkpt>
<trkpt lat="33.8103132" lon="-118.3938671">
  <ele>-32.989</ele>
  <time>2026-09-01T01:13:40Z</time>
  <course>185.51</course>
  <speed>0.022360679774997897</speed>
  <fix>3d</fix>
</trkpt>
<trkpt lat="33.8103132" lon="-118.3938671">
  <ele>-33.025</ele>
  <time>2026-09-01T01:13:40Z</time>
  <course>185.51</course>
  <speed>0.022360679774997897</speed>
  <fix>3d</fix>
</trkpt>
<trkpt lat="33.810313" lon="-118.393867">
  <ele>-32.11</ele>
  <time>2026-09-01T01:13:40Z</time>
  <course>0.0</course>
  <speed>0.0</speed>
  <fix>3d</fix>
</trkpt>
<trkpt lat="33.8103132" lon="-118.3938671">
  <ele>-33.045</ele>
  <time>2026-09-01T01:13:40Z</time>
  <course>185.51</course>
  <speed>0.022360679774997897</speed>
  <fix>3d</fix>
</trkpt>
<trkpt lat="33.8103132" lon="-118.3938671">
  <ele>-33.088</ele>
  <time>2026-09-01T01:13:40Z</time>
  <course>185.51</course>
  <speed>0.022360679774997897</speed>
  <fix>3d</fix>
</trkpt>
<trkpt lat="33.810313" lon="-118.393867">
  <ele>-32.11</ele>
  <time>2026-09-01T01:13:40Z</time>
  <course>0.0</course>
  <speed>0.0</speed>
  <fix>3d</fix>
</trkpt>
<trkpt lat="33.8103132" lon="-118.3938671">
  <ele>-33.11</ele>
  <time>2026-09-01T01:13:40Z</time>
  <course>185.51</course>
  <speed>0.022360679774997897</speed>
  <fix>3d</fix>
</trkpt>
<trkpt lat="33.8103132" lon="-118.3938671">
  <ele>-33.151</ele>
  <time>2026-09-01T01:13:40Z</time>
  <course>185.51</course>
  <speed>0.022360679774997897</speed>
  <fix>3d</fix>
</trkpt>
<trkpt lat="33.810313" lon="-118.393867">
  <ele>-32.23</ele>
  <time>2026-09-01T01:13:40Z</time>
  <course>0.0</course>
  <speed>0.0</speed>
  <fix>3d</fix>
</trkpt>
<trkpt lat="33.8103132" lon="-118.3938671">
  <ele>-33.153</ele>
  <time>2026-09-01T01:13:40Z</time>
  <course>185.51</course>
  <speed>0.022360679774997897</speed>
  <fix>3d</fix>
</trkpt>
<trkpt lat="33.8103132" lon="-118.3938671">
  <ele>-33.213</ele>
  <time>2026-09-01T01:13:40Z</time>
  <course>185.5</course>
  <speed>0.022360679774997897</speed>
  <fix>3d</fix>
</trkpt>
<trkpt lat="33.810313" lon="-118.393867">
  <ele>-32.23</ele>
  <time>2026-09-01T01:13:40Z</time>
  <course>0.0</course>
  <speed>0.0</speed>
  <fix>3d</fix>
</trkpt>
<trkpt lat="33.8103132" lon="-118.3938671">
  <ele>-33.214</ele>
  <time>2026-09-01T01:13:40Z</time>
  <course>185.5</course>
  <speed>0.022360679774997897</speed>
  <fix>3d</fix>
</trkpt>
<trkpt lat="33.8103132" lon="-118.3938671">
  <ele>-33.274</ele>
  <time>2026-09-01T01:13:40Z</time>
  <course>185.5</course>
  <speed>0.022360679774997897</speed>
  <fix>3d</fix>
</trkpt>
<trkpt lat="33.810313" lon="-118.393867">
  <ele>-32.34</ele>
  <time>2026-09-01T01:13:40Z</time>
  <course>0.0</course>
  <speed>0.0</speed>
  <fix>3d</fix>
</trkpt>
<trkpt lat="33.8103132" lon="-118.3938671">
  <ele>-33.276</ele>
  <time>2026-09-01T01:13:40Z</time>
  <course>185.5</course>
  <speed>0.022360679774997897</speed>
  <fix>3d</fix>
</trkpt>
<trkpt lat="33.8103132" lon="-118.3938671">
  <ele>-33.336</ele>
  <time>2026-09-01T01:13:40Z</time>
  <course>185.5</course>
  <speed>0.022360679774997897</speed>
  <fix>3d</fix>
</trkpt>
<trkpt lat="33.810313" lon="-118.393867">
  <ele>-32.34</ele>
  <time>2026-09-01T01:13:40Z</time>
  <course>0.0</course>
  <speed>0.0</speed>
  <fix>3d</fix>
</trkpt>
<trkpt lat="33.8103132" lon="-118.3938671">
  <ele>-33.356</ele>
  <time>2026-09-01T01:13:40Z</time>
  <course>185.5</course>
  <speed>0.022360679774997897</speed>
  <fix>3d</fix>
</trkpt>
<trkpt lat="33.8103132" lon="-118.3938671">
  <ele>-33.398</ele>
  <time>2026-09-01T01:13:40Z</time>
  <course>185.5</course>
  <speed>0.022360679774997897</speed>
  <fix>3d</fix>
</trkpt>
<trkpt lat="33.810313" lon="-118.393867">
  <ele>-32.47</ele>
  <time>2026-09-01T01:13:40Z</time>
  <course>0.0</course>
  <speed>0.0</speed>
  <fix>3d</fix>
</trkpt>
<trkpt lat="33.8103132" lon="-118.3938671">
  <ele>-33.418</ele>
  <time>2026-09-01T01:13:40Z</time>
  <course>185.49</course>
  <speed>0.022360679774997897</speed>
  <fix>3d</fix>
</trkpt>
<trkpt lat="33.8103132" lon="-118.3938671">
  <ele>-33.46</ele>
  <time>2026-09-01T01:13:40Z</time>
  <course>185.49</course>
  <speed>0.022360679774997897</speed>
  <fix>3d</fix>
</trkpt>
<trkpt lat="33.810313" lon="-118.393867">
  <ele>-32.47</ele>
  <time>2026-09-01T01:13:40Z</time>
  <course>0.0</course>
  <speed>0.0</speed>
  <fix>3d</fix>
</trkpt>
<trkpt lat="33.8103132" lon="-118.3938671">
  <ele>-33.461</ele>
  <time>2026-09-01T01:13:40Z</time>
  <course>185.49</course>
  <speed>0.022360679774997897</speed>
  <fix>3d</fix>
</trkpt>
<trkpt lat="33.8103132" lon="-118.3938671">
  <ele>-33.521</ele>
  <time>2026-09-01T01:13:40Z</time>
  <course>185.49</course>
  <speed>0.022360679774997897</speed>
  <fix>3d</fix>
</trkpt>
<trkpt lat="33.810313" lon="-118.393867">
  <ele>-32.59</ele>
  <time>2026-09-01T01:13:40Z</time>
  <course>0.0</course>
  <speed>0.0</speed>
  <fix>3d</fix>
</trkpt>
<trkpt lat="33.8103132" lon="-118.3938671">
  <ele>-33.541</ele>
  <time>2026-09-01T01:13:40Z</time>
  <course>185.49</course>
  <speed>0.022360679774997897</speed>
  <fix>3d</fix>
</trkpt>
<trkpt lat="33.8103132" lon="-118.3938671">
  <ele>-33.581</ele>
  <time>2026-09-01T01:13:40Z</time>
  <course>185.49</course>
  <speed>0.022360679774997897</speed>
  <fix>3d</fix>
</trkpt>
<trkpt lat="33.810313" lon="-118.393867">
  <ele>-32.59</ele>
  <time>2026-09-01T01:13:40Z</time>
  <course>0.0</course>
  <speed>0.0</speed>
  <fix>3d</fix>
</trkpt>
<trkpt lat="33.8103132" lon="-118.3938671">
  <ele>-33.6</ele>
  <time>2026-09-01T01:13:40Z</time>
  <course>185.49</course>
  <speed>0.022360679774997897</speed>
  <fix>3d</fix>
</trkpt>
<trkpt lat="33.8103132" lon="-118.3938671">
  <ele>-33.642</ele>
  <time>2026-09-01T01:13:40Z</time>
  <course>185.49</course>
  <speed>0.022360679774997897</speed>
  <fix>3d</fix>
</trkpt>
<trkpt lat="33.810313" lon="-118.393867">
  <ele>-32.71</ele>
  <time>2026-09-01T01:13:40Z</time>
  <course>0.0</course>
  <speed>0.0</speed>
  <fix>3d</fix>
</trkpt>
<trkpt lat="33.8103132" lon="-118.3938671">
  <ele>-33.661</ele>
  <time>2026-09-01T01:13:40Z</time>
  <course>185.48</course>
  <speed>0.022360679774997897</speed>
  <fix>3d</fix>
</trkpt>
<trkpt lat="33.8103132" lon="-118.3938671">
  <ele>-33.703</ele>
  <time>2026-09-01T01:13:40Z</time>
  <course>185.48</course>
  <speed>0.022360679774997897</speed>
  <fix>3d</fix>
</trkpt>
<trkpt lat="33.810313" lon="-118.393867">
  <ele>-32.71</ele>
  <time>2026-09-01T01:13:40Z</time>
  <course>0.0</course>
  <speed>0.0</speed>
  <fix>3d</fix>
</trkpt>
<trkpt lat="33.8103132" lon="-118.3938671">
  <ele>-33.724</ele>
  <time>2026-09-01T01:13:40Z</time>
  <course>185.48</course>
  <speed>0.022360679774997897</speed>
  <fix>3d</fix>
</trkpt>
<trkpt lat="33.8103132" lon="-118.3938671">
  <ele>-33.764</ele>
  <time>2026-09-01T01:13:40Z</time>
  <course>185.48</course>
  <speed>0.022360679774997897</speed>
  <fix>3d</fix>
</trkpt>
<trkpt lat="33.810313" lon="-118.393867">
  <ele>-32.83</ele>
  <time>2026-09-01T01:13:40Z</time>
  <course>0.0</course>
  <speed>0.0</speed>
  <fix>3d</fix>
</trkpt>
<trkpt lat="33.8103132" lon="-118.3938671">
  <ele>-33.765</ele>
  <time>2026-09-01T01:13:40Z</time>
  <course>185.48</course>
  <speed>0.022360679774997897</speed>
  <fix>3d</fix>
</trkpt>
<trkpt lat="33.8103132" lon="-118.3938671">
  <ele>-33.825</ele>
  <time>2026-09-01T01:13:40Z</time>
  <course>185.48</course>
  <speed>0.022360679774997897</speed>
  <fix>3d</fix>
</trkpt>
<trkpt lat="33.810313" lon="-118.393867">
  <ele>-32.83</ele>
  <time>2026-09-01T01:13:40Z</time>
  <course>0.0</course>
  <speed>0.0</speed>
  <fix>3d</fix>
</trkpt>
<trkpt lat="33.8103132" lon="-118.3938671">
  <ele>-33.845</ele>
  <time>2026-09-01T01:13:40Z</time>
  <course>185.48</course>
  <speed>0.022360679774997897</speed>
  <fix>3d</fix>
</trkpt>
<trkpt lat="33.8103132" lon="-118.3938671">
  <ele>-33.888</ele>
  <time>2026-09-01T01:13:40Z</time>
  <course>185.47</course>
  <speed>0.022360679774997897</speed>
  <fix>3d</fix>
</trkpt>
<trkpt lat="33.810313" lon="-118.393867">
  <ele>-32.94</ele>
  <time>2026-09-01T01:13:40Z</time>
  <course>0.0</course>
  <speed>0.0</speed>
  <fix>3d</fix>
</trkpt>
<trkpt lat="33.8103132" lon="-118.3938671">
  <ele>-33.89</ele>
  <time>2026-09-01T01:13:40Z</time>
  <course>185.47</course>
  <speed>0.022360679774997897</speed>
  <fix>3d</fix>
</trkpt>
<trkpt lat="33.8103132" lon="-118.3938671">
  <ele>-33.952</ele>
  <time>2026-09-01T01:13:40Z</time>
  <course>185.47</course>
  <speed>0.022360679774997897</speed>
  <fix>3d</fix>
</trkpt>
<trkpt lat="33.810313" lon="-118.393867">
  <ele>-32.94</ele>
  <time>2026-09-01T01:13:40Z</time>
  <course>0.0</course>
  <speed>0.0</speed>
  <fix>3d</fix>
</trkpt>
<trkpt lat="33.8103132" lon="-118.3938671">
  <ele>-33.977</ele>
  <time>2026-09-01T01:13:40Z</time>
  <course>185.47</course>
  <speed>0.022360679774997897</speed>
  <fix>3d</fix>
</trkpt>
<trkpt lat="33.8103132" lon="-118.3938671">
  <ele>-34.015</ele>
  <time>2026-09-01T01:13:40Z</time>
  <course>185.47</course>
  <speed>0.022360679774997897</speed>
  <fix>3d</fix>
</trkpt>
<trkpt lat="33.810313" lon="-118.393867">
  <ele>-33.07</ele>
  <time>2026-09-01T01:13:40Z</time>
  <course>0.0</course>
  <speed>0.0</speed>
  <fix>3d</fix>
</trkpt>
<trkpt lat="33.8103132" lon="-118.3938671">
  <ele>-34.035</ele>
  <time>2026-09-01T01:13:40Z</time>
  <course>185.47</course>
  <speed>0.022360679774997897</speed>
  <fix>3d</fix>
</trkpt>
<trkpt lat="33.8103132" lon="-118.3938671">
  <ele>-34.077</ele>
  <time>2026-09-01T01:13:40Z</time>
  <course>185.47</course>
  <speed>0.022360679774997897</speed>
  <fix>3d</fix>
</trkpt>
<trkpt lat="33.810313" lon="-118.393867">
  <ele>-33.07</ele>
  <time>2026-09-01T01:13:40Z</time>
  <course>0.0</course>
  <speed>0.0</speed>
  <fix>3d</fix>
</trkpt>
<trkpt lat="33.8103132" lon="-118.3938671">
  <ele>-34.078</ele>
  <time>2026-09-01T01:13:40Z</time>
  <course>185.47</course>
  <speed>0.022360679774997897</speed>
  <fix>3d</fix>
</trkpt>
<trkpt lat="33.8103132" lon="-118.3938671">
  <ele>-34.138</ele>
  <time>2026-09-01T01:13:40Z</time>
  <course>185.46</course>
  <speed>0.022360679774997897</speed>
  <fix>3d</fix>
</trkpt>
<trkpt lat="33.810313" lon="-118.393867">
  <ele>-33.19</ele>
  <time>2026-09-01T01:13:40Z</time>
  <course>0.0</course>
  <speed>0.0</speed>
  <fix>3d</fix>
</trkpt>
<trkpt lat="33.8103132" lon="-118.3938671">
  <ele>-34.161</ele>
  <time>2026-09-01T01:13:40Z</time>
  <course>185.46</course>
  <speed>0.022360679774997897</speed>
  <fix>3d</fix>
</trkpt>
<trkpt lat="33.8103132" lon="-118.3938671">
  <ele>-34.199</ele>
  <time>2026-09-01T01:13:40Z</time>
  <course>185.46</course>
  <speed>0.022360679774997897</speed>
  <fix>3d</fix>
</trkpt>
<trkpt lat="33.810313" lon="-118.393867">
  <ele>-33.19</ele>
  <time>2026-09-01T01:13:40Z</time>
  <course>0.0</course>
  <speed>0.0</speed>
  <fix>3d</fix>
</trkpt>
<trkpt lat="33.8103132" lon="-118.3938671">
  <ele>-34.219</ele>
  <time>2026-09-01T01:13:40Z</time>
  <course>185.46</course>
  <speed>0.022360679774997897</speed>
  <fix>3d</fix>
</trkpt>
<trkpt lat="33.8103132" lon="-118.3938671">
  <ele>-34.26</ele>
  <time>2026-09-01T01:13:40Z</time>
  <course>185.46</course>
  <speed>0.022360679774997897</speed>
  <fix>3d</fix>
</trkpt>
<trkpt lat="33.810313" lon="-118.393867">
  <ele>-33.32</ele>
  <time>2026-09-01T01:13:40Z</time>
  <course>0.0</course>
  <speed>0.0</speed>
  <fix>3d</fix>
</trkpt>
<trkpt lat="33.8103132" lon="-118.3938671">
  <ele>-34.28</ele>
  <time>2026-09-01T01:13:40Z</time>
  <course>185.46</course>
  <speed>0.022360679774997897</speed>
  <fix>3d</fix>
</trkpt>
<trkpt lat="33.8103132" lon="-118.3938671">
  <ele>-34.321</ele>
  <time>2026-09-01T01:13:40Z</time>
  <course>185.46</course>
  <speed>0.022360679774997897</speed>
  <fix>3d</fix>
</trkpt>
<trkpt lat="33.810313" lon="-118.393867">
  <ele>-33.32</ele>
  <time>2026-09-01T01:13:40Z</time>
  <course>0.0</course>
  <speed>0.0</speed>
  <fix>3d</fix>
</trkpt>
<trkpt lat="33.8103132" lon="-118.3938671">
  <ele>-34.342</ele>
  <time>2026-09-01T01:13:40Z</time>
  <course>185.46</course>
  <speed>0.022360679774997897</speed>
  <fix>3d</fix>
</trkpt>
<trkpt lat="33.8103132" lon="-118.3938671">
  <ele>-34.382</ele>
  <time>2026-09-01T01:13:40Z</time>
  <course>185.46</course>
  <speed>0.022360679774997897</speed>
  <fix>3d</fix>
</trkpt>
<trkpt lat="33.810313" lon="-118.393867">
  <ele>-33.44</ele>
  <time>2026-09-01T01:13:40Z</time>
  <course>0.0</course>
  <speed>0.0</speed>
  <fix>3d</fix>
</trkpt>
<trkpt lat="33.8103132" lon="-118.3938671">
  <ele>-34.384</ele>
  <time>2026-09-01T01:13:40Z</time>
  <course>185.46</course>
  <speed>0.022360679774997897</speed>
  <fix>3d</fix>
</trkpt>
<trkpt lat="33.8103132" lon="-118.3938671">
  <ele>-34.444</ele>
  <time>2026-09-01T01:13:40Z</time>
  <course>185.45</course>
  <speed>0.022360679774997897</speed>
  <fix>3d</fix>
</trkpt>
<trkpt lat="33.810313" lon="-118.393867">
  <ele>-33.44</ele>
  <time>2026-09-01T01:13:40Z</time>
  <course>0.0</course>
  <speed>0.0</speed>
  <fix>3d</fix>
</trkpt>
<trkpt lat="33.8103132" lon="-118.3938671">
  <ele>-34.466</ele>
  <time>2026-09-01T01:13:40Z</time>
  <course>185.45</course>
  <speed>0.022360679774997897</speed>
  <fix>3d</fix>
</trkpt>
<trkpt lat="33.8103132" lon="-118.3938671">
  <ele>-34.506</ele>
  <time>2026-09-01T01:13:40Z</time>
  <course>185.45</course>
  <speed>0.022360679774997897</speed>
  <fix>3d</fix>
</trkpt>
<trkpt lat="33.810313" lon="-118.393867">
  <ele>-33.55</ele>
  <time>2026-09-01T01:13:40Z</time>
  <course>0.0</course>
  <speed>0.0</speed>
  <fix>3d</fix>
</trkpt>
<trkpt lat="33.8103132" lon="-118.3938671">
  <ele>-34.507</ele>
  <time>2026-09-01T01:13:40Z</time>
  <course>185.45</course>
  <speed>0.022360679774997897</speed>
  <fix>3d</fix>
</trkpt>
<trkpt lat="33.8103132" lon="-118.3938671">
  <ele>-34.567</ele>
  <time>2026-09-01T01:13:40Z</time>
  <course>185.45</course>
  <speed>0.022360679774997897</speed>
  <fix>3d</fix>
</trkpt>
<trkpt lat="33.810313" lon="-118.393867">
  <ele>-33.55</ele>
  <time>2026-09-01T01:13:40Z</time>
  <course>0.0</course>
  <speed>0.0</speed>
  <fix>3d</fix>
</trkpt>
<trkpt lat="33.8103132" lon="-118.3938671">
  <ele>-34.587</ele>
  <time>2026-09-01T01:13:40Z</time>
  <course>185.45</course>
  <speed>0.022360679774997897</speed>
  <fix>3d</fix>
</trkpt>
<trkpt lat="33.8103132" lon="-118.3938671">
  <ele>-34.629</ele>
  <time>2026-09-01T01:13:40Z</time>
  <course>185.45</course>
  <speed>0.022360679774997897</speed>
  <fix>3d</fix>
</trkpt>
<trkpt lat="33.810313" lon="-118.393867">
  <ele>-33.68</ele>
  <time>2026-09-01T01:13:40Z</time>
  <course>0.0</course>
  <speed>0.0</speed>
  <fix>3d</fix>
</trkpt>
<trkpt lat="33.8103132" lon="-118.3938671">
  <ele>-34.65</ele>
  <time>2026-09-01T01:13:40Z</time>
  <course>185.45</course>
  <speed>0.022360679774997897</speed>
  <fix>3d</fix>
</trkpt>
<trkpt lat="33.8103132" lon="-118.3938671">
  <ele>-34.69</ele>
  <time>2026-09-01T01:13:40Z</time>
  <course>185.44</course>
  <speed>0.022360679774997897</speed>
  <fix>3d</fix>
</trkpt>
<trkpt lat="33.810313" lon="-118.393867">
  <ele>-33.68</ele>
  <time>2026-09-01T01:13:40Z</time>
  <course>0.0</course>
  <speed>0.0</speed>
  <fix>3d</fix>
</trkpt>
<trkpt lat="33.8103132" lon="-118.3938671">
  <ele>-34.691</ele>
  <time>2026-09-01T01:13:40Z</time>
  <course>185.44</course>
  <speed>0.022360679774997897</speed>
  <fix>3d</fix>
</trkpt>
<trkpt lat="33.8103132" lon="-118.3938671">
  <ele>-34.751</ele>
  <time>2026-09-01T01:13:40Z</time>
  <course>185.44</course>
  <speed>0.022360679774997897</speed>
  <fix>3d</fix>
</trkpt>
<trkpt lat="33.810313" lon="-118.393867">
  <ele>-33.8</ele>
  <time>2026-09-01T01:13:40Z</time>
  <course>0.0</course>
  <speed>0.0</speed>
  <fix>3d</fix>
</trkpt>
<trkpt lat="33.8103132" lon="-118.3938671">
  <ele>-34.771</ele>
  <time>2026-09-01T01:13:40Z</time>
  <course>185.44</course>
  <speed>0.022360679774997897</speed>
  <fix>3d</fix>
</trkpt>
<trkpt lat="33.8103132" lon="-118.3938671">
  <ele>-34.813</ele>
  <time>2026-09-01T01:13:40Z</time>
  <course>185.44</course>
  <speed>0.022360679774997897</speed>
  <fix>3d</fix>
</trkpt>
<trkpt lat="33.810313" lon="-118.393867">
  <ele>-33.8</ele>
  <time>2026-09-01T01:13:40Z</time>
  <course>0.0</course>
  <speed>0.0</speed>
  <fix>3d</fix>
</trkpt>
<trkpt lat="33.8103132" lon="-118.3938671">
  <ele>-34.834</ele>
  <time>2026-09-01T01:13:40Z</time>
  <course>185.44</course>
  <speed>0.022360679774997897</speed>
  <fix>3d</fix>
</trkpt>
<trkpt lat="33.8103132" lon="-118.3938671">
  <ele>-34.874</ele>
  <time>2026-09-01T01:13:40Z</time>
  <course>185.44</course>
  <speed>0.022360679774997897</speed>
  <fix>3d</fix>
</trkpt>
<trkpt lat="33.810313" lon="-118.393867">
  <ele>-33.92</ele>
  <time>2026-09-01T01:13:40Z</time>
  <course>0.0</course>
  <speed>0.0</speed>
  <fix>3d</fix>
</trkpt>
<trkpt lat="33.8103132" lon="-118.3938671">
  <ele>-34.894</ele>
  <time>2026-09-01T01:13:40Z</time>
  <course>185.44</course>
  <speed>0.022360679774997897</speed>
  <fix>3d</fix>
</trkpt>
<trkpt lat="33.8103132" lon="-118.3938671">
  <ele>-34.936</ele>
  <time>2026-09-01T01:13:41Z</time>
  <course>185.43</course>
  <speed>0.022360679774997897</speed>
  <fix>3d</fix>
</trkpt>
<trkpt lat="33.810313" lon="-118.393867">
  <ele>-33.92</ele>
  <time>2026-09-01T01:13:41Z</time>
  <course>0.0</course>
  <speed>0.0</speed>
  <fix>3d</fix>
</trkpt>
<trkpt lat="33.8103132" lon="-118.3938671">
  <ele>-34.955</ele>
  <time>2026-09-01T01:13:41Z</time>
  <course>185.43</course>
  <speed>0.022360679774997897</speed>
  <fix>3d</fix>
</trkpt>
<trkpt lat="33.8103132" lon="-118.3938671">
  <ele>-34.998</ele>
  <time>2026-09-01T01:13:41Z</time>
  <course>185.43</course>
  <speed>0.022360679774997897</speed>
  <fix>3d</fix>
</trkpt>
<trkpt lat="33.810313" lon="-118.393867">
  <ele>-34.04</ele>
  <time>2026-09-01T01:13:41Z</time>
  <course>0.0</course>
  <speed>0.0</speed>
  <fix>3d</fix>
</trkpt>
<trkpt lat="33.8103132" lon="-118.3938671">
  <ele>-34.999</ele>
  <time>2026-09-01T01:13:41Z</time>
  <course>185.43</course>
  <speed>0.022360679774997897</speed>
  <fix>3d</fix>
</trkpt>
<trkpt lat="33.8103132" lon="-118.3938671">
  <ele>-35.061</ele>
  <time>2026-09-01T01:13:41Z</time>
  <course>185.43</course>
  <speed>0.022360679774997897</speed>
  <fix>3d</fix>
</trkpt>
<trkpt lat="33.810313" lon="-118.393867">
  <ele>-34.04</ele>
  <time>2026-09-01T01:13:41Z</time>
  <course>0.0</course>
  <speed>0.0</speed>
  <fix>3d</fix>
</trkpt>
<trkpt lat="33.8103132" lon="-118.3938671">
  <ele>-35.083</ele>
  <time>2026-09-01T01:13:41Z</time>
  <course>185.43</course>
  <speed>0.022360679774997897</speed>
  <fix>3d</fix>
</trkpt>
<trkpt lat="33.8103132" lon="-118.3938671">
  <ele>-35.124</ele>
  <time>2026-09-01T01:13:41Z</time>
  <course>185.43</course>
  <speed>0.022360679774997897</speed>
  <fix>3d</fix>
</trkpt>
<trkpt lat="33.810313" lon="-118.393867">
  <ele>-34.16</ele>
  <time>2026-09-01T01:13:41Z</time>
  <course>0.0</course>
  <speed>0.0</speed>
  <fix>3d</fix>
</trkpt>
<trkpt lat="33.8103132" lon="-118.3938671">
  <ele>-35.175</ele>
  <time>2026-09-01T01:13:41Z</time>
  <course>185.42</course>
  <speed>0.022360679774997897</speed>
  <fix>3d</fix>
</trkpt>
<trkpt lat="33.810313" lon="-118.393867">
  <ele>-34.16</ele>
  <time>2026-09-01T01:13:41Z</time>
  <course>0.0</course>
  <speed>0.0</speed>
  <fix>3d</fix>
</trkpt>
<trkpt lat="33.8103132" lon="-118.3938671">
  <ele>-35.213</ele>
  <time>2026-09-01T01:13:41Z</time>
  <course>185.42</course>
  <speed>0.022360679774997897</speed>
  <fix>3d</fix>
</trkpt>
<trkpt lat="33.810313" lon="-118.393867">
  <ele>-34.27</ele>
  <time>2026-09-01T01:13:41Z</time>
  <course>0.0</course>
  <speed>0.0</speed>
  <fix>3d</fix>
</trkpt>
<trkpt lat="33.8103132" lon="-118.3938671">
  <ele>-35.243</ele>
  <time>2026-09-01T01:13:41Z</time>
  <course>185.42</course>
  <speed>0.022360679774997897</speed>
  <fix>3d</fix>
</trkpt>
<trkpt lat="33.810313" lon="-118.393867">
  <ele>-34.27</ele>
  <time>2026-09-01T01:13:41Z</time>
  <course>0.0</course>
  <speed>0.0</speed>
  <fix>3d</fix>
</trkpt>
<trkpt lat="33.8103132" lon="-118.3938671">
  <ele>-35.268</ele>
  <time>2026-09-01T01:13:41Z</time>
  <course>185.42</course>
  <speed>0.022360679774997897</speed>
  <fix>3d</fix>
</trkpt>
<trkpt lat="33.810313" lon="-118.393867">
  <ele>-34.35</ele>
  <time>2026-09-01T01:13:41Z</time>
  <course>0.0</course>
  <speed>0.0</speed>
  <fix>3d</fix>
</trkpt>
<trkpt lat="33.8103132" lon="-118.3938671">
  <ele>-35.288</ele>
  <time>2026-09-01T01:13:41Z</time>
  <course>185.42</course>
  <speed>0.022360679774997897</speed>
  <fix>3d</fix>
</trkpt>
<trkpt lat="33.810313" lon="-118.393867">
  <ele>-34.35</ele>
  <time>2026-09-01T01:13:41Z</time>
  <course>0.0</course>
  <speed>0.0</speed>
  <fix>3d</fix>
</trkpt>
<trkpt lat="33.8103132" lon="-118.3938671">
  <ele>-35.305</ele>
  <time>2026-09-01T01:13:41Z</time>
  <course>185.41</course>
  <speed>0.022360679774997897</speed>
  <fix>3d</fix>
</trkpt>
<trkpt lat="33.810313" lon="-118.393867">
  <ele>-34.4</ele>
  <time>2026-09-01T01:13:41Z</time>
  <course>0.0</course>
  <speed>0.0</speed>
  <fix>3d</fix>
</trkpt>
<trkpt lat="33.8103132" lon="-118.3938671">
  <ele>-35.319</ele>
  <time>2026-09-01T01:13:41Z</time>
  <course>185.41</course>
  <speed>0.022360679774997897</speed>
  <fix>3d</fix>
</trkpt>
<trkpt lat="33.810313" lon="-118.393867">
  <ele>-34.4</ele>
  <time>2026-09-01T01:13:41Z</time>
  <course>0.0</course>
  <speed>0.0</speed>
  <fix>3d</fix>
</trkpt>
<trkpt lat="33.8103132" lon="-118.3938671">
  <ele>-35.329</ele>
  <time>2026-09-01T01:13:41Z</time>
  <course>185.41</course>
  <speed>0.022360679774997897</speed>
  <fix>3d</fix>
</trkpt>
<trkpt lat="33.810313" lon="-118.393867">
  <ele>-34.43</ele>
  <time>2026-09-01T01:13:41Z</time>
  <course>0.0</course>
  <speed>0.0</speed>
  <fix>3d</fix>
</trkpt>
<trkpt lat="33.8103132" lon="-118.3938671">
  <ele>-35.338</ele>
  <time>2026-09-01T01:13:41Z</time>
  <course>185.41</course>
  <speed>0.022360679774997897</speed>
  <fix>3d</fix>
</trkpt>
<trkpt lat="33.810313" lon="-118.393867">
  <ele>-34.43</ele>
  <time>2026-09-01T01:13:41Z</time>
  <course>0.0</course>
  <speed>0.0</speed>
  <fix>3d</fix>
</trkpt>
<trkpt lat="33.8103132" lon="-118.3938671">
  <ele>-35.346</ele>
  <time>2026-09-01T01:13:41Z</time>
  <course>185.41</course>
  <speed>0.022360679774997897</speed>
  <fix>3d</fix>
</trkpt>
<trkpt lat="33.810313" lon="-118.393867">
  <ele>-34.46</ele>
  <time>2026-09-01T01:13:41Z</time>
  <course>0.0</course>
  <speed>0.0</speed>
  <fix>3d</fix>
</trkpt>
<trkpt lat="33.8103132" lon="-118.3938671">
  <ele>-35.353</ele>
  <time>2026-09-01T01:13:41Z</time>
  <course>185.4</course>
  <speed>0.022360679774997897</speed>
  <fix>3d</fix>
</trkpt>
<trkpt lat="33.810313" lon="-118.393867">
  <ele>-34.46</ele>
  <time>2026-09-01T01:13:41Z</time>
  <course>0.0</course>
  <speed>0.0</speed>
  <fix>3d</fix>
</trkpt>
<trkpt lat="33.8103132" lon="-118.3938671">
  <ele>-35.358</ele>
  <time>2026-09-01T01:13:41Z</time>
  <course>185.4</course>
  <speed>0.022360679774997897</speed>
  <fix>3d</fix>
</trkpt>
<trkpt lat="33.810313" lon="-118.393867">
  <ele>-34.48</ele>
  <time>2026-09-01T01:13:41Z</time>
  <course>0.0</course>
  <speed>0.0</speed>
  <fix>3d</fix>
</trkpt>
<trkpt lat="33.8103132" lon="-118.3938671">
  <ele>-35.362</ele>
  <time>2026-09-01T01:13:41Z</time>
  <course>185.4</course>
  <speed>0.022360679774997897</speed>
  <fix>3d</fix>
</trkpt>
<trkpt lat="33.810313" lon="-118.393867">
  <ele>-34.48</ele>
  <time>2026-09-01T01:13:41Z</time>
  <course>0.0</course>
  <speed>0.0</speed>
  <fix>3d</fix>
</trkpt>
<trkpt lat="33.8103132" lon="-118.3938671">
  <ele>-35.366</ele>
  <time>2026-09-01T01:13:41Z</time>
  <course>185.4</course>
  <speed>0.022360679774997897</speed>
  <fix>3d</fix>
</trkpt>
<trkpt lat="33.810313" lon="-118.393867">
  <ele>-34.5</ele>
  <time>2026-09-01T01:13:41Z</time>
  <course>0.0</course>
  <speed>0.0</speed>
  <fix>3d</fix>
</trkpt>
<trkpt lat="33.8103132" lon="-118.3938671">
  <ele>-35.37</ele>
  <time>2026-09-01T01:13:41Z</time>
  <course>185.95</course>
  <speed>0.022360679774997897</speed>
  <fix>3d</fix>
</trkpt>
<trkpt lat="33.810313" lon="-118.393867">
  <ele>-34.5</ele>
  <time>2026-09-01T01:13:41Z</time>
  <course>0.0</course>
  <speed>0.0</speed>
  <fix>3d</fix>
</trkpt>
<trkpt lat="33.8103132" lon="-118.3938671">
  <ele>-35.373</ele>
  <time>2026-09-01T01:13:41Z</time>
  <course>188.12</course>
  <speed>0.022360679774997897</speed>
  <fix>3d</fix>
</trkpt>
<trkpt lat="33.810313" lon="-118.393867">
  <ele>-34.51</ele>
  <time>2026-09-01T01:13:41Z</time>
  <course>234.2</course>
  <speed>0.0</speed>
  <fix>3d</fix>
</trkpt>
<trkpt lat="33.8103132" lon="-118.3938671">
  <ele>-35.375</ele>
  <time>2026-09-01T01:13:41Z</time>
  <course>191.16</course>
  <speed>0.03</speed>
  <fix>3d</fix>
</trkpt>
<trkpt lat="33.810313" lon="-118.393867">
  <ele>-34.51</ele>
  <time>2026-09-01T01:13:41Z</time>
  <course>234.2</course>
  <speed>0.0</speed>
  <fix>3d</fix>
</trkpt>
<trkpt lat="33.8103132" lon="-118.3938672">
  <ele>-35.376</ele>
  <time>2026-09-01T01:13:41Z</time>
  <course>194.32</course>
  <speed>0.05830951894845301</speed>
  <fix>3d</fix>
</trkpt>
<trkpt lat="33.810313" lon="-118.393867">
  <ele>-34.52</ele>
  <time>2026-09-01T01:13:41Z</time>
  <course>213.99</course>
  <speed>0.02</speed>
  <fix>3d</fix>
</trkpt>
<trkpt lat="33.8103131" lon="-118.3938672">
  <ele>-35.377</ele>
  <time>2026-09-01T01:13:41Z</time>
  <course>197.09</course>
  <speed>0.09219544457292887</speed>
  <fix>3d</fix>
</trkpt>
<trkpt lat="33.810313" lon="-118.393867">
  <ele>-34.52</ele>
  <time>2026-09-01T01:13:41Z</time>
  <course>213.99</course>
  <speed>0.02</speed>
  <fix>3d</fix>
</trkpt>
<trkpt lat="33.810313" lon="-118.3938673">
  <ele>-35.376</ele>
  <time>2026-09-01T01:13:41Z</time>
  <course>199.53</course>
  <speed>0.12806248474865697</speed>
  <fix>3d</fix>
</trkpt>
<trkpt lat="33.8103129" lon="-118.393867">
  <ele>-34.52</ele>
  <time>2026-09-01T01:13:41Z</time>
  <course>211.09</course>
  <speed>0.07</speed>
  <fix>3d</fix>
</trkpt>
<trkpt lat="33.8103129" lon="-118.3938674">
  <ele>-35.373</ele>
  <time>2026-09-01T01:13:41Z</time>
  <course>202.35</course>
  <speed>0.19209372712298545</speed>
  <fix>3d</fix>
</trkpt>
<trkpt lat="33.8103129" lon="-118.393867">
  <ele>-34.52</ele>
  <time>2026-09-01T01:13:41Z</time>
  <course>211.09</course>
  <speed>0.07</speed>
  <fix>3d</fix>
</trkpt>
<trkpt lat="33.8103127" lon="-118.3938675">
  <ele>-35.366</ele>
  <time>2026-09-01T01:13:41Z</time>
  <course>205.41</course>
  <speed>0.23600847442411893</speed>
  <fix>3d</fix>
</trkpt>
<trkpt lat="33.8103127" lon="-118.3938671">
  <ele>-34.52</ele>
  <time>2026-09-01T01:13:41Z</time>
  <course>210.32</course>
  <speed>0.16</speed>
  <fix>3d</fix>
</trkpt>
<trkpt lat="33.8103125" lon="-118.3938676">
  <ele>-35.349</ele>
  <time>2026-09-01T01:13:41Z</time>
  <course>208.28</course>
  <speed>0.29410882339705485</speed>
  <fix>3d</fix>
</trkpt>
<trkpt lat="33.8103127" lon="-118.3938671">
  <ele>-34.52</ele>
  <time>2026-09-01T01:13:41Z</time>
  <course>210.32</course>
  <speed>0.16</speed>
  <fix>3d</fix>
</trkpt>
<trkpt lat="33.8103122" lon="-118.3938678">
  <ele>-35.326</ele>
  <time>2026-09-01T01:13:41Z</time>
  <course>210.6</course>
  <speed>0.37443290453698114</speed>
  <fix>3d</fix>
</trkpt>
<trkpt lat="33.8103124" lon="-118.3938673">
  <ele>-34.51</ele>
  <time>2026-09-01T01:13:41Z</time>
  <course>210.14</course>
  <speed>0.28</speed>
  <fix>3d</fix>
</trkpt>
<trkpt lat="33.8103119" lon="-118.393868">
  <ele>-35.3</ele>
  <time>2026-09-01T01:13:41Z</time>
  <course>212.1</course>
  <speed>0.44944410108488464</speed>
  <fix>3d</fix>
</trkpt>
<trkpt lat="33.8103124" lon="-118.3938673">
  <ele>-34.51</ele>
  <time>2026-09-01T01:13:41Z</time>
  <course>210.14</course>
  <speed>0.28</speed>
  <fix>3d</fix>
</trkpt>
<trkpt lat="33.8103115" lon="-118.3938683">
  <ele>-35.273</ele>
  <time>2026-09-01T01:13:41Z</time>
  <course>212.77</course>
  <speed>0.53</speed>
  <fix>3d</fix>
</trkpt>
<trkpt lat="33.8103119" lon="-118.3938677">
  <ele>-34.47</ele>
  <time>2026-09-01T01:13:41Z</time>
  <course>209.6</course>
  <speed>0.41</speed>
  <fix>3d</fix>
</trkpt>
<trkpt lat="33.8103111" lon="-118.3938686">
  <ele>-35.248</ele>
  <time>2026-09-01T01:13:41Z</time>
  <course>212.84</course>
  <speed>0.5883026432033092</speed>
  <fix>3d</fix>
</trkpt>
<trkpt lat="33.8103119" lon="-118.3938677">
  <ele>-34.47</ele>
  <time>2026-09-01T01:13:41Z</time>
  <course>209.6</course>
  <speed>0.41</speed>
  <fix>3d</fix>
</trkpt>
<trkpt lat="33.8103106" lon="-118.3938689">
  <ele>-35.226</ele>
  <time>2026-09-01T01:13:41Z</time>
  <course>212.68</course>
  <speed>0.655133574166368</speed>
  <fix>3d</fix>
</trkpt>
<trkpt lat="33.8103111" lon="-118.3938683">
  <ele>-34.43</ele>
  <time>2026-09-01T01:13:41Z</time>
  <course>209.09</course>
  <speed>0.56</speed>
  <fix>3d</fix>
</trkpt>
<trkpt lat="33.8103101" lon="-118.3938692">
  <ele>-35.206</ele>
  <time>2026-09-01T01:13:41Z</time>
  <course>212.5</course>
  <speed>0.6997142273814361</speed>
  <fix>3d</fix>
</trkpt>
<trkpt lat="33.8103111" lon="-118.3938683">
  <ele>-34.43</ele>
  <time>2026-09-01T01:13:41Z</time>
  <course>209.09</course>
  <speed>0.56</speed>
  <fix>3d</fix>
</trkpt>
<trkpt lat="33.8103095" lon="-118.3938696">
  <ele>-35.189</ele>
  <time>2026-09-01T01:13:41Z</time>
  <course>212.38</course>
  <speed>0.7443117626371358</speed>
  <fix>3d</fix>
</trkpt>
<trkpt lat="33.8103101" lon="-118.3938689">
  <ele>-34.39</ele>
  <time>2026-09-01T01:13:41Z</time>
  <course>209.03</course>
  <speed>0.68</speed>
  <fix>3d</fix>
</trkpt>
<trkpt lat="33.8103089" lon="-118.39387">
  <ele>-35.172</ele>
  <time>2026-09-01T01:13:41Z</time>
  <course>212.29</course>
  <speed>0.7803204469959762</speed>
  <fix>3d</fix>
</trkpt>
<trkpt lat="33.8103101" lon="-118.3938689">
  <ele>-34.39</ele>
  <time>2026-09-01T01:13:41Z</time>
  <course>209.03</course>
  <speed>0.68</speed>
  <fix>3d</fix>
</trkpt>
<trkpt lat="33.8103083" lon="-118.3938704">
  <ele>-35.16</ele>
  <time>2026-09-01T01:13:41Z</time>
  <course>212.24</course>
  <speed>0.8077747210701756</speed>
  <fix>3d</fix>
</trkpt>
<trkpt lat="33.8103089" lon="-118.3938697">
  <ele>-34.35</ele>
  <time>2026-09-01T01:13:41Z</time>
  <course>209.17</course>
  <speed>0.77</speed>
  <fix>3d</fix>
</trkpt>
<trkpt lat="33.8103076" lon="-118.3938709">
  <ele>-35.154</ele>
  <time>2026-09-01T01:13:41Z</time>
  <course>212.21</course>
  <speed>0.8215229759416348</speed>
  <fix>3d</fix>
</trkpt>
<trkpt lat="33.8103089" lon="-118.3938697">
  <ele>-34.35</ele>
  <time>2026-09-01T01:13:41Z</time>
  <course>209.17</course>
  <speed>0.77</speed>
  <fix>3d</fix>
</trkpt>
<trkpt lat="33.810307" lon="-118.3938713">
  <ele>-35.157</ele>
  <time>2026-09-01T01:13:41Z</time>
  <course>212.2</course>
  <speed>0.8386298349093002</speed>
  <fix>3d</fix>
</trkpt>
<trkpt lat="33.8103077" lon="-118.3938705">
  <ele>-34.33</ele>
  <time>2026-09-01T01:13:41Z</time>
  <course>209.38</course>
  <speed>0.83</speed>
  <fix>3d</fix>
</trkpt>
<trkpt lat="33.8103063" lon="-118.3938718">
  <ele>-35.17</ele>
  <time>2026-09-01T01:13:41Z</time>
  <course>212.18</course>
  <speed>0.8438009243891595</speed>
  <fix>3d</fix>
</trkpt>
<trkpt lat="33.8103077" lon="-118.3938705">
  <ele>-34.33</ele>
  <time>2026-09-01T01:13:41Z</time>
  <course>209.38</course>
  <speed>0.83</speed>
  <fix>3d</fix>
</trkpt>
<trkpt lat="33.8103057" lon="-118.3938722">
  <ele>-35.191</ele>
  <time>2026-09-01T01:13:41Z</time>
  <course>212.19</course>
  <speed>0.8438009243891595</speed>
  <fix>3d</fix>
</trkpt>
<trkpt lat="33.8103064" lon="-118.3938714">
  <ele>-34.34</ele>
  <time>2026-09-01T01:13:41Z</time>
  <course>209.59</course>
  <speed>0.86</speed>
  <fix>3d</fix>
</trkpt>
<trkpt lat="33.810305" lon="-118.3938727">
  <ele>-35.211</ele>
  <time>2026-09-01T01:13:41Z</time>
  <course>212.18</course>
  <speed>0.8438009243891595</speed>
  <fix>3d</fix>
</trkpt>
<trkpt lat="33.8103064" lon="-118.3938714">
  <ele>-34.34</ele>
  <time>2026-09-01T01:13:41Z</time>
  <course>209.59</course>
  <speed>0.86</speed>
  <fix>3d</fix>
</trkpt>
<trkpt lat="33.8103043" lon="-118.3938731">
  <ele>-35.229</ele>
  <time>2026-09-01T01:13:41Z</time>
  <course>212.2</course>
  <speed>0.8523496934944014</speed>
  <fix>3d</fix>
</trkpt>
<trkpt lat="33.810305" lon="-118.3938724">
  <ele>-34.37</ele>
  <time>2026-09-01T01:13:41Z</time>
  <course>209.76</course>
  <speed>0.87</speed>
  <fix>3d</fix>
</trkpt>
<trkpt lat="33.8103036" lon="-118.3938736">
  <ele>-35.249</ele>
  <time>2026-09-01T01:13:41Z</time>
  <course>212.2</course>
  <speed>0.8575546629807339</speed>
  <fix>3d</fix>
</trkpt>
<trkpt lat="33.810305" lon="-118.3938724">
  <ele>-34.37</ele>
  <time>2026-09-01T01:13:41Z</time>
  <course>209.76</course>
  <speed>0.87</speed>
  <fix>3d</fix>
</trkpt>
<trkpt lat="33.810303" lon="-118.3938741">
  <ele>-35.272</ele>
  <time>2026-09-01T01:13:41Z</time>
  <course>212.2</course>
  <speed>0.8575546629807339</speed>
  <fix>3d</fix>
</trkpt>
<trkpt lat="33.8103036" lon="-118.3938733">
  <ele>-34.4</ele>
  <time>2026-09-01T01:13:41Z</time>
  <course>209.86</course>
  <speed>0.88</speed>
  <fix>3d</fix>
</trkpt>
<trkpt lat="33.8103023" lon="-118.3938745">
  <ele>-35.295</ele>
  <time>2026-09-01T01:13:41Z</time>
  <course>212.18</course>
  <speed>0.8575546629807339</speed>
  <fix>3d</fix>
</trkpt>
<trkpt lat="33.8103036" lon="-118.3938733">
  <ele>-34.4</ele>
  <time>2026-09-01T01:13:41Z</time>
  <course>209.86</course>
  <speed>0.88</speed>
  <fix>3d</fix>
</trkpt>
<trkpt lat="33.8103016" lon="-118.393875">
  <ele>-35.318</ele>
  <time>2026-09-01T01:13:41Z</time>
  <course>212.18</course>
  <speed>0.8523496934944014</speed>
  <fix>3d</fix>
</trkpt>
<trkpt lat="33.8103022" lon="-118.3938743">
  <ele>-34.44</ele>
  <time>2026-09-01T01:13:41Z</time>
  <course>209.92</course>
  <speed>0.88</speed>
  <fix>3d</fix>
</trkpt>
<trkpt lat="33.8103009" lon="-118.3938755">
  <ele>-35.337</ele>
  <time>2026-09-01T01:13:41Z</time>
  <course>212.17</course>
  <speed>0.8438009243891595</speed>
  <fix>3d</fix>
</trkpt>
<trkpt lat="33.8103022" lon="-118.3938743">
  <ele>-34.44</ele>
  <time>2026-09-01T01:13:41Z</time>
  <course>209.92</course>
  <speed>0.88</speed>
  <fix>3d</fix>
</trkpt>
<trkpt lat="33.8103002" lon="-118.3938759">
  <ele>-35.351</ele>
  <time>2026-09-01T01:13:41Z</time>
  <course>212.17</course>
  <speed>0.8438009243891595</speed>
  <fix>3d</fix>
</trkpt>
<trkpt lat="33.8103009" lon="-118.3938752">
  <ele>-34.47</ele>
  <time>2026-09-01T01:13:41Z</time>
  <course>209.96</course>
  <speed>0.87</speed>
  <fix>3d</fix>
</trkpt>
<trkpt lat="33.8102996" lon="-118.3938764">
  <ele>-35.358</ele>
  <time>2026-09-01T01:13:41Z</time>
  <course>212.15</course>
  <speed>0.8215229759416348</speed>
  <fix>3d</fix>
</trkpt>
<trkpt lat="33.8103009" lon="-118.3938752">
  <ele>-34.47</ele>
  <time>2026-09-01T01:13:41Z</time>
  <course>209.96</course>
  <speed>0.87</speed>
  <fix>3d</fix>
</trkpt>
<trkpt lat="33.810299" lon="-118.3938768">
  <ele>-35.364</ele>
  <time>2026-09-01T01:13:41Z</time>
  <course>212.18</course>
  <speed>0.7049113419430842</speed>
  <fix>3d</fix>
</trkpt>
<trkpt lat="33.8102995" lon="-118.3938762">
  <ele>-34.5</ele>
  <time>2026-09-01T01:13:41Z</time>
  <course>209.99</course>
  <speed>0.83</speed>
  <fix>3d</fix>
</trkpt>
<trkpt lat="33.8102984" lon="-118.3938772">
  <ele>-35.366</ele>
  <time>2026-09-01T01:13:41Z</time>
  <course>212.28</course>
  <speed>0.7271863585079137</speed>
  <fix>3d</fix>
</trkpt>
<trkpt lat="33.8102995" lon="-118.3938762">
  <ele>-34.5</ele>
  <time>2026-09-01T01:13:41Z</time>
  <course>209.99</course>
  <speed>0.83</speed>
  <fix>3d</fix>
</trkpt>
<trkpt lat="33.8102978" lon="-118.3938776">
  <ele>-35.365</ele>
  <time>2026-09-01T01:13:41Z</time>
  <course>212.35</course>
  <speed>0.7494664769020694</speed>
  <fix>3d</fix>
</trkpt>
<trkpt lat="33.8102983" lon="-118.3938771">
  <ele>-34.51</ele>
  <time>2026-09-01T01:13:41Z</time>
  <course>210.01</course>
  <speed>0.78</speed>
  <fix>3d</fix>
</trkpt>
<trkpt lat="33.8102972" lon="-118.393878">
  <ele>-35.355</ele>
  <time>2026-09-01T01:13:41Z</time>
  <course>212.33</course>
  <speed>0.7494664769020694</speed>
  <fix>3d</fix>
</trkpt>
<trkpt lat="33.8102983" lon="-118.3938771">
  <ele>-34.51</ele>
  <time>2026-09-01T01:13:41Z</time>
  <course>210.01</course>
  <speed>0.78</speed>
  <fix>3d</fix>
</trkpt>
<trkpt lat="33.8102966" lon="-118.3938785">
  <ele>-35.339</ele>
  <time>2026-09-01T01:13:41Z</time>
  <course>212.24</course>
  <speed>0.7632168761236874</speed>
  <fix>3d</fix>
</trkpt>
<trkpt lat="33.8102971" lon="-118.3938779">
  <ele>-34.51</ele>
  <time>2026-09-01T01:13:41Z</time>
  <course>209.91</course>
  <speed>0.77</speed>
  <fix>3d</fix>
</trkpt>
<trkpt lat="33.810296" lon="-118.3938789">
  <ele>-35.319</ele>
  <time>2026-09-01T01:13:41Z</time>
  <course>212.14</course>
  <speed>0.7717512552629896</speed>
  <fix>3d</fix>
</trkpt>
<trkpt lat="33.8102971" lon="-118.3938779">
  <ele>-34.51</ele>
  <time>2026-09-01T01:13:41Z</time>
  <course>209.91</course>
  <speed>0.77</speed>
  <fix>3d</fix>
</trkpt>
<trkpt lat="33.8102954" lon="-118.3938793">
  <ele>-35.297</ele>
  <time>2026-09-01T01:13:41Z</time>
  <course>212.06</course>
  <speed>0.7717512552629896</speed>
  <fix>3d</fix>
</trkpt>
<trkpt lat="33.8102959" lon="-118.3938787">
  <ele>-34.48</ele>
  <time>2026-09-01T01:13:41Z</time>
  <course>209.76</course>
  <speed>0.78</speed>
  <fix>3d</fix>
</trkpt>
<trkpt lat="33.8102947" lon="-118.3938797">
  <ele>-35.274</ele>
  <time>2026-09-01T01:13:41Z</time>
  <course>211.98</course>
  <speed>0.7717512552629896</speed>
  <fix>3d</fix>
</trkpt>
<trkpt lat="33.8102959" lon="-118.3938787">
  <ele>-34.48</ele>
  <time>2026-09-01T01:13:41Z</time>
  <course>209.76</course>
  <speed>0.78</speed>
  <fix>3d</fix>
</trkpt>
<trkpt lat="33.8102941" lon="-118.3938802">
  <ele>-35.252</ele>
  <time>2026-09-01T01:13:41Z</time>
  <course>211.94</course>
  <speed>0.7717512552629896</speed>
  <fix>3d</fix>
</trkpt>
<trkpt lat="33.8102946" lon="-118.3938796">
  <ele>-34.45</ele>
  <time>2026-09-01T01:13:41Z</time>
  <course>209.69</course>
  <speed>0.79</speed>
  <fix>3d</fix>
</trkpt>
<trkpt lat="33.8102935" lon="-118.3938806">
  <ele>-35.232</ele>
  <time>2026-09-01T01:13:41Z</time>
  <course>211.89</course>
  <speed>0.7717512552629896</speed>
  <fix>3d</fix>
</trkpt>
<trkpt lat="33.8102946" lon="-118.3938796">
  <ele>-34.45</ele>
  <time>2026-09-01T01:13:41Z</time>
  <course>209.69</course>
  <speed>0.79</speed>
  <fix>3d</fix>
</trkpt>
<trkpt lat="33.8102929" lon="-118.393881">
  <ele>-35.214</ele>
  <time>2026-09-01T01:13:41Z</time>
  <course>211.87</course>
  <speed>0.7049113419430842</speed>
  <fix>3d</fix>
</trkpt>
<trkpt lat="33.8102934" lon="-118.3938804">
  <ele>-34.41</ele>
  <time>2026-09-01T01:13:41Z</time>
  <course>209.68</course>
  <speed>0.8</speed>
  <fix>3d</fix>
</trkpt>
<trkpt lat="33.8102923" lon="-118.3938814">
  <ele>-35.201</ele>
  <time>2026-09-01T01:13:41Z</time>
  <course>211.89</course>
  <speed>0.7271863585079137</speed>
  <fix>3d</fix>
</trkpt>
<trkpt lat="33.8102934" lon="-118.3938804">
  <ele>-34.41</ele>
  <time>2026-09-01T01:13:41Z</time>
  <course>209.68</course>
  <speed>0.8</speed>
  <fix>3d</fix>
</trkpt>
<trkpt lat="33.8102917" lon="-118.3938818">
  <ele>-35.191</ele>
  <time>2026-09-01T01:13:41Z</time>
  <course>211.93</course>
  <speed>0.7357309290766564</speed>
  <fix>3d</fix>
</trkpt>
<trkpt lat="33.8102922" lon="-118.3938813">
  <ele>-34.37</ele>
  <time>2026-09-01T01:13:41Z</time>
  <course>209.73</course>
  <speed>0.77</speed>
  <fix>3d</fix>
</trkpt>
<trkpt lat="33.8102911" lon="-118.3938822">
  <ele>-35.18</ele>
  <time>2026-09-01T01:13:41Z</time>
  <course>211.93</course>
  <speed>0.7271863585079137</speed>
  <fix>3d</fix>
</trkpt>
<trkpt lat="33.8102922" lon="-118.3938813">
  <ele>-34.37</ele>
  <time>2026-09-01T01:13:41Z</time>
  <course>209.73</course>
  <speed>0.77</speed>
  <fix>3d</fix>
</trkpt>
<trkpt lat="33.8102906" lon="-118.3938826">
  <ele>-35.17</ele>
  <time>2026-09-01T01:13:41Z</time>
  <course>211.93</course>
  <speed>0.6911584478250989</speed>
  <fix>3d</fix>
</trkpt>
<trkpt lat="33.810291" lon="-118.393882">
  <ele>-34.35</ele>
  <time>2026-09-01T01:13:41Z</time>
  <course>209.75</course>
  <speed>0.73</speed>
  <fix>3d</fix>
</trkpt>
<trkpt lat="33.81029" lon="-118.393883">
  <ele>-35.162</ele>
  <time>2026-09-01T01:13:41Z</time>
  <course>211.95</course>
  <speed>0.7049113419430842</speed>
  <fix>3d</fix>
</trkpt>
<trkpt lat="33.810291" lon="-118.393882">
  <ele>-34.35</ele>
  <time>2026-09-01T01:13:41Z</time>
  <course>209.75</course>
  <speed>0.73</speed>
  <fix>3d</fix>
</trkpt>
<trkpt lat="33.8102894" lon="-118.3938834">
  <ele>-35.155</ele>
  <time>2026-09-01T01:13:41Z</time>
  <course>211.96</course>
  <speed>0.7134423592694787</speed>
  <fix>3d</fix>
</trkpt>
<trkpt lat="33.8102898" lon="-118.3938829">
  <ele>-34.33</ele>
  <time>2026-09-01T01:13:41Z</time>
  <course>209.77</course>
  <speed>0.72</speed>
  <fix>3d</fix>
</trkpt>
<trkpt lat="33.8102888" lon="-118.3938838">
  <ele>-35.153</ele>
  <time>2026-09-01T01:13:41Z</time>
  <course>211.93</course>
  <speed>0.7271863585079137</speed>
  <fix>3d</fix>
</trkpt>
<trkpt lat="33.8102898" lon="-118.3938829">
  <ele>-34.33</ele>
  <time>2026-09-01T01:13:41Z</time>
  <course>209.77</course>
  <speed>0.72</speed>
  <fix>3d</fix>
</trkpt>
<trkpt lat="33.8102882" lon="-118.3938842">
  <ele>-35.161</ele>
  <time>2026-09-01T01:13:41Z</time>
  <course>211.9</course>
  <speed>0.7357309290766564</speed>
  <fix>3d</fix>
</trkpt>
<trkpt lat="33.8102887" lon="-118.3938837">
  <ele>-34.32</ele>
  <time>2026-09-01T01:13:41Z</time>
  <course>209.81</course>
  <speed>0.74</speed>
  <fix>3d</fix>
</trkpt>
<trkpt lat="33.8102877" lon="-118.3938846">
  <ele>-35.176</ele>
  <time>2026-09-01T01:13:41Z</time>
  <course>211.86</course>
  <speed>0.7357309290766564</speed>
  <fix>3d</fix>
</trkpt>
<trkpt lat="33.8102887" lon="-118.3938837">
  <ele>-34.32</ele>
  <time>2026-09-01T01:13:41Z</time>
  <course>209.81</course>
  <speed>0.74</speed>
  <fix>3d</fix>
</trkpt>
<trkpt lat="33.8102871" lon="-118.393885">
  <ele>-35.194</ele>
  <time>2026-09-01T01:13:41Z</time>
  <course>211.81</course>
  <speed>0.7494664769020694</speed>
  <fix>3d</fix>
</trkpt>
<trkpt lat="33.8102875" lon="-118.3938844">
  <ele>-34.33</ele>
  <time>2026-09-01T01:13:41Z</time>
  <course>209.8</course>
  <speed>0.75</speed>
  <fix>3d</fix>
</trkpt>
<trkpt lat="33.8102864" lon="-118.3938854">
  <ele>-35.214</ele>
  <time>2026-09-01T01:13:41Z</time>
  <course>211.77</course>
  <speed>0.7494664769020694</speed>
  <fix>3d</fix>
</trkpt>
<trkpt lat="33.8102875" lon="-118.3938844">
  <ele>-34.33</ele>
  <time>2026-09-01T01:13:41Z</time>
  <course>209.8</course>
  <speed>0.75</speed>
  <fix>3d</fix>
</trkpt>
<trkpt lat="33.8102858" lon="-118.3938858">
  <ele>-35.235</ele>
  <time>2026-09-01T01:13:41Z</time>
  <course>211.75</course>
  <speed>0.758023746329889</speed>
  <fix>3d</fix>
</trkpt>
<trkpt lat="33.8102863" lon="-118.3938853">
  <ele>-34.35</ele>
  <time>2026-09-01T01:13:41Z</time>
  <course>209.81</course>
  <speed>0.76</speed>
  <fix>3d</fix>
</trkpt>
<trkpt lat="33.8102852" lon="-118.3938863">
  <ele>-35.255</ele>
  <time>2026-09-01T01:13:41Z</time>
  <course>211.73</course>
  <speed>0.758023746329889</speed>
  <fix>3d</fix>
</trkpt>
<trkpt lat="33.8102863" lon="-118.3938853">
  <ele>-34.35</ele>
  <time>2026-09-01T01:13:41Z</time>
  <course>209.81</course>
  <speed>0.76</speed>
  <fix>3d</fix>
</trkpt>
<trkpt lat="33.8102846" lon="-118.3938867">
  <ele>-35.276</ele>
  <time>2026-09-01T01:13:41Z</time>
  <course>211.72</course>
  <speed>0.758023746329889</speed>
  <fix>3d</fix>
</trkpt>
<trkpt lat="33.8102851" lon="-118.3938861">
  <ele>-34.39</ele>
  <time>2026-09-01T01:13:41Z</time>
  <course>209.85</course>
  <speed>0.77</speed>
  <fix>3d</fix>
</trkpt>
<trkpt lat="33.810284" lon="-118.3938871">
  <ele>-35.294</ele>
  <time>2026-09-01T01:13:41Z</time>
  <course>211.7</course>
  <speed>0.7632168761236874</speed>
  <fix>3d</fix>
</trkpt>
<trkpt lat="33.8102851" lon="-118.3938861">
  <ele>-34.39</ele>
  <time>2026-09-01T01:13:41Z</time>
  <course>209.85</course>
  <speed>0.77</speed>
  <fix>3d</fix>
</trkpt>
<trkpt lat="33.8102834" lon="-118.3938875">
  <ele>-35.306</ele>
  <time>2026-09-01T01:13:41Z</time>
  <course>211.69</course>
  <speed>0.7632168761236874</speed>
  <fix>3d</fix>
</trkpt>
<trkpt lat="33.8102839" lon="-118.3938869">
  <ele>-34.42</ele>
  <time>2026-09-01T01:13:41Z</time>
  <course>209.87</course>
  <speed>0.78</speed>
  <fix>3d</fix>
</trkpt>
<trkpt lat="33.8102828" lon="-118.393888">
  <ele>-35.314</ele>
  <time>2026-09-01T01:13:41Z</time>
  <course>211.68</course>
  <speed>0.7717512552629896</speed>
  <fix>3d</fix>
</trkpt>
<trkpt lat="33.8102839" lon="-118.3938869">
  <ele>-34.42</ele>
  <time>2026-09-01T01:13:41Z</time>
  <course>209.87</course>
  <speed>0.78</speed>
  <fix>3d</fix>
</trkpt>
<trkpt lat="33.8102821" lon="-118.3938884">
  <ele>-35.319</ele>
  <time>2026-09-01T01:13:41Z</time>
  <course>211.67</course>
  <speed>0.7717512552629896</speed>
  <fix>3d</fix>
</trkpt>
<trkpt lat="33.8102827" lon="-118.3938877">
  <ele>-34.44</ele>
  <time>2026-09-01T01:13:41Z</time>
  <course>209.88</course>
  <speed>0.78</speed>
  <fix>3d</fix>
</trkpt>
<trkpt lat="33.8102815" lon="-118.3938888">
  <ele>-35.322</ele>
  <time>2026-09-01T01:13:41Z</time>
  <course>211.67</course>
  <speed>0.7717512552629896</speed>
  <fix>3d</fix>
</trkpt>
<trkpt lat="33.8102827" lon="-118.3938877">
  <ele>-34.44</ele>
  <time>2026-09-01T01:13:41Z</time>
  <course>209.88</course>
  <speed>0.78</speed>
  <fix>3d</fix>
</trkpt>
<trkpt lat="33.8102809" lon="-118.3938892">
  <ele>-35.318</ele>
  <time>2026-09-01T01:13:41Z</time>
  <course>211.68</course>
  <speed>0.7717512552629896</speed>
  <fix>3d</fix>
</trkpt>
<trkpt lat="33.8102815" lon="-118.3938886">
  <ele>-34.46</ele>
  <time>2026-09-01T01:13:41Z</time>
  <course>209.91</course>
  <speed>0.79</speed>
  <fix>3d</fix>
</trkpt>
<trkpt lat="33.8102803" lon="-118.3938896">
  <ele>-35.306</ele>
  <time>2026-09-01T01:13:41Z</time>
  <course>211.67</course>
  <speed>0.758023746329889</speed>
  <fix>3d</fix>
</trkpt>
<trkpt lat="33.8102815" lon="-118.3938886">
  <ele>-34.46</ele>
  <time>2026-09-01T01:13:41Z</time>
  <course>209.91</course>
  <speed>0.79</speed>
  <fix>3d</fix>
</trkpt>
<trkpt lat="33.8102797" lon="-118.39389">
  <ele>-35.289</ele>
  <time>2026-09-01T01:13:41Z</time>
  <course>211.69</course>
  <speed>0.7134423592694787</speed>
  <fix>3d</fix>
</trkpt>
<trkpt lat="33.8102802" lon="-118.3938895">
  <ele>-34.44</ele>
  <time>2026-09-01T01:13:41Z</time>
  <course>209.95</course>
  <speed>0.76</speed>
  <fix>3d</fix>
</trkpt>
<trkpt lat="33.8102791" lon="-118.3938904">
  <ele>-35.269</ele>
  <time>2026-09-01T01:13:41Z</time>
  <course>211.72</course>
  <speed>0.7271863585079137</speed>
  <fix>3d</fix>
</trkpt>
<trkpt lat="33.8102802" lon="-118.3938895">
  <ele>-34.44</ele>
  <time>2026-09-01T01:13:41Z</time>
  <course>209.95</course>
  <speed>0.76</speed>
  <fix>3d</fix>
</trkpt>
<trkpt lat="33.8102786" lon="-118.3938908">
  <ele>-35.248</ele>
  <time>2026-09-01T01:13:41Z</time>
  <course>211.73</course>
  <speed>0.7357309290766564</speed>
  <fix>3d</fix>
</trkpt>
<trkpt lat="33.810279" lon="-118.3938903">
  <ele>-34.42</ele>
  <time>2026-09-01T01:13:41Z</time>
  <course>209.95</course>
  <speed>0.74</speed>
  <fix>3d</fix>
</trkpt>
<trkpt lat="33.810278" lon="-118.3938913">
  <ele>-35.228</ele>
  <time>2026-09-01T01:13:41Z</time>
  <course>211.69</course>
  <speed>0.7494664769020694</speed>
  <fix>3d</fix>
</trkpt>
<trkpt lat="33.810279" lon="-118.3938903">
  <ele>-34.42</ele>
  <time>2026-09-01T01:13:41Z</time>
  <course>209.95</course>
  <speed>0.74</speed>
  <fix>3d</fix>
</trkpt>
<trkpt lat="33.8102774" lon="-118.3938917">
  <ele>-35.211</ele>
  <time>2026-09-01T01:13:41Z</time>
  <course>211.64</course>
  <speed>0.7494664769020694</speed>
  <fix>3d</fix>
</trkpt>
<trkpt lat="33.8102778" lon="-118.3938911">
  <ele>-34.39</ele>
  <time>2026-09-01T01:13:41Z</time>
  <course>209.92</course>
  <speed>0.76</speed>
  <fix>3d</fix>
</trkpt>
<trkpt lat="33.8102768" lon="-118.3938921">
  <ele>-35.194</ele>
  <time>2026-09-01T01:13:41Z</time>
  <course>211.6</course>
  <speed>0.758023746329889</speed>
  <fix>3d</fix>
</trkpt>
<trkpt lat="33.8102778" lon="-118.3938911">
  <ele>-34.39</ele>
  <time>2026-09-01T01:13:41Z</time>
  <course>209.92</course>
  <speed>0.76</speed>
  <fix>3d</fix>
</trkpt>
<trkpt lat="33.8102761" lon="-118.3938925">
  <ele>-35.179</ele>
  <time>2026-09-01T01:13:41Z</time>
  <course>211.57</course>
  <speed>0.758023746329889</speed>
  <fix>3d</fix>
</trkpt>
<trkpt lat="33.8102766" lon="-118.3938919">
  <ele>-34.36</ele>
  <time>2026-09-01T01:13:41Z</time>
  <course>209.91</course>
  <speed>0.77</speed>
  <fix>3d</fix>
</trkpt>
<trkpt lat="33.8102755" lon="-118.3938929">
  <ele>-35.167</ele>
  <time>2026-09-01T01:13:41Z</time>
  <course>211.55</course>
  <speed>0.758023746329889</speed>
  <fix>3d</fix>
</trkpt>
<trkpt lat="33.8102766" lon="-118.3938919">
  <ele>-34.36</ele>
  <time>2026-09-01T01:13:41Z</time>
  <course>209.91</course>
  <speed>0.77</speed>
  <fix>3d</fix>
</trkpt>
<trkpt lat="33.8102749" lon="-118.3938933">
  <ele>-35.164</ele>
  <time>2026-09-01T01:13:41Z</time>
  <course>211.55</course>
  <speed>0.7717512552629896</speed>
  <fix>3d</fix>
</trkpt>
<trkpt lat="33.8102754" lon="-118.3938928">
  <ele>-34.34</ele>
  <time>2026-09-01T01:13:41Z</time>
  <course>209.95</course>
  <speed>0.78</speed>
  <fix>3d</fix>
</trkpt>
<trkpt lat="33.8102743" lon="-118.3938938">
  <ele>-35.168</ele>
  <time>2026-09-01T01:13:41Z</time>
  <course>211.53</course>
  <speed>0.7717512552629896</speed>
  <fix>3d</fix>
</trkpt>
<trkpt lat="33.8102754" lon="-118.3938928">
  <ele>-34.34</ele>
  <time>2026-09-01T01:13:41Z</time>
  <course>209.95</course>
  <speed>0.78</speed>
  <fix>3d</fix>
</trkpt>
<trkpt lat="33.8102737" lon="-118.3938942">
  <ele>-35.178</ele>
  <time>2026-09-01T01:13:41Z</time>
  <course>211.51</course>
  <speed>0.7717512552629896</speed>
  <fix>3d</fix>
</trkpt>
<trkpt lat="33.8102742" lon="-118.3938936">
  <ele>-34.33</ele>
  <time>2026-09-01T01:13:41Z</time>
  <course>209.98</course>
  <speed>0.78</speed>
  <fix>3d</fix>
</trkpt>
<trkpt lat="33.810273" lon="-118.3938946">
  <ele>-35.192</ele>
  <time>2026-09-01T01:13:41Z</time>
  <course>211.48</course>
  <speed>0.7717512552629896</speed>
  <fix>3d</fix>
</trkpt>
<trkpt lat="33.8102742" lon="-118.3938936">
  <ele>-34.33</ele>
  <time>2026-09-01T01:13:41Z</time>
  <course>209.98</course>
  <speed>0.78</speed>
  <fix>3d</fix>
</trkpt>
<trkpt lat="33.8102724" lon="-118.3938951">
  <ele>-35.207</ele>
  <time>2026-09-01T01:13:41Z</time>
  <course>211.46</course>
  <speed>0.7803204469959762</speed>
  <fix>3d</fix>
</trkpt>
<trkpt lat="33.810273" lon="-118.3938944">
  <ele>-34.34</ele>
  <time>2026-09-01T01:13:41Z</time>
  <course>209.97</course>
  <speed>0.79</speed>
  <fix>3d</fix>
</trkpt>
<trkpt lat="33.8102718" lon="-118.3938955">
  <ele>-35.226</ele>
  <time>2026-09-01T01:13:41Z</time>
  <course>211.43</course>
  <speed>0.7803204469959762</speed>
  <fix>3d</fix>
</trkpt>
<trkpt lat="33.810273" lon="-118.3938944">
  <ele>-34.34</ele>
  <time>2026-09-01T01:13:41Z</time>
  <course>209.97</course>
  <speed>0.79</speed>
  <fix>3d</fix>
</trkpt>
<trkpt lat="33.8102712" lon="-118.3938959">
  <ele>-35.247</ele>
  <time>2026-09-01T01:13:41Z</time>
  <course>211.41</course>
  <speed>0.7803204469959762</speed>
  <fix>3d</fix>
</trkpt>
<trkpt lat="33.8102717" lon="-118.3938953">
  <ele>-34.37</ele>
  <time>2026-09-01T01:13:41Z</time>
  <course>209.95</course>
  <speed>0.8</speed>
  <fix>3d</fix>
</trkpt>
<trkpt lat="33.8102705" lon="-118.3938963">
  <ele>-35.265</ele>
  <time>2026-09-01T01:13:41Z</time>
  <course>211.39</course>
  <speed>0.7803204469959762</speed>
  <fix>3d</fix>
</trkpt>
<trkpt lat="33.8102717" lon="-118.3938953">
  <ele>-34.37</ele>
  <time>2026-09-01T01:13:41Z</time>
  <course>209.95</course>
  <speed>0.8</speed>
  <fix>3d</fix>
</trkpt>
<trkpt lat="33.8102699" lon="-118.3938968">
  <ele>-35.279</ele>
  <time>2026-09-01T01:13:41Z</time>
  <course>211.38</course>
  <speed>0.7803204469959762</speed>
  <fix>3d</fix>
</trkpt>
<trkpt lat="33.8102705" lon="-118.3938962">
  <ele>-34.41</ele>
  <time>2026-09-01T01:13:41Z</time>
  <course>209.95</course>
  <speed>0.8</speed>
  <fix>3d</fix>
</trkpt>
<trkpt lat="33.8102693" lon="-118.3938972">
  <ele>-35.289</ele>
  <time>2026-09-01T01:13:41Z</time>
  <course>211.36</course>
  <speed>0.7803204469959762</speed>
  <fix>3d</fix>
</trkpt>
<trkpt lat="33.8102705" lon="-118.3938962">
  <ele>-34.41</ele>
  <time>2026-09-01T01:13:41Z</time>
  <course>209.95</course>
  <speed>0.8</speed>
  <fix>3d</fix>
</trkpt>
<trkpt lat="33.8102686" lon="-118.3938976">
  <ele>-35.294</ele>
  <time>2026-09-01T01:13:41Z</time>
  <course>211.33</course>
  <speed>0.7889233169326408</speed>
  <fix>3d</fix>
</trkpt>
<trkpt lat="33.8102693" lon="-118.3938971">
  <ele>-34.44</ele>
  <time>2026-09-01T01:13:41Z</time>
  <course>209.92</course>
  <speed>0.8</speed>
  <fix>3d</fix>
</trkpt>
<trkpt lat="33.810268" lon="-118.3938981">
  <ele>-35.294</ele>
  <time>2026-09-01T01:13:41Z</time>
  <course>211.28</course>
  <speed>0.7889233169326408</speed>
  <fix>3d</fix>
</trkpt>
<trkpt lat="33.8102693" lon="-118.3938971">
  <ele>-34.44</ele>
  <time>2026-09-01T01:13:41Z</time>
  <course>209.92</course>
  <speed>0.8</speed>
  <fix>3d</fix>
</trkpt>
<trkpt lat="33.8102674" lon="-118.3938985">
  <ele>-35.29</ele>
  <time>2026-09-01T01:13:41Z</time>
  <course>211.22</course>
  <speed>0.7889233169326408</speed>
  <fix>3d</fix>
</trkpt>
<trkpt lat="33.810268" lon="-118.3938979">
  <ele>-34.45</ele>
  <time>2026-09-01T01:13:41Z</time>
  <course>209.79</course>
  <speed>0.81</speed>
  <fix>3d</fix>
</trkpt>
<trkpt lat="33.8102668" lon="-118.393899">
  <ele>-35.283</ele>
  <time>2026-09-01T01:13:41Z</time>
  <course>211.15</course>
  <speed>0.7940403012442127</speed>
  <fix>3d</fix>
</trkpt>
<trkpt lat="33.810268" lon="-118.3938979">
  <ele>-34.45</ele>
  <time>2026-09-01T01:13:41Z</time>
  <course>209.79</course>
  <speed>0.81</speed>
  <fix>3d</fix>
</trkpt>
<trkpt lat="33.8102661" lon="-118.3938994">
  <ele>-35.274</ele>
  <time>2026-09-01T01:13:41Z</time>
  <course>211.09</course>
  <speed>0.7940403012442127</speed>
  <fix>3d</fix>
</trkpt>
<trkpt lat="33.8102667" lon="-118.3938988">
  <ele>-34.44</ele>
  <time>2026-09-01T01:13:41Z</time>
  <course>209.67</course>
  <speed>0.81</speed>
  <fix>3d</fix>
</trkpt>
<trkpt lat="33.8102655" lon="-118.3938998">
  <ele>-35.261</ele>
  <time>2026-09-01T01:13:41Z</time>
  <course>211.06</course>
  <speed>0.7940403012442127</speed>
  <fix>3d</fix>
</trkpt>
<trkpt lat="33.8102667" lon="-118.3938988">
  <ele>-34.44</ele>
  <time>2026-09-01T01:13:41Z</time>
  <course>209.67</course>
  <speed>0.81</speed>
  <fix>3d</fix>
</trkpt>
<trkpt lat="33.8102648" lon="-118.3939003">
  <ele>-35.242</ele>
  <time>2026-09-01T01:13:41Z</time>
  <course>211.04</course>
  <speed>0.7940403012442127</speed>
  <fix>3d</fix>
</trkpt>
<trkpt lat="33.8102654" lon="-118.3938997">
  <ele>-34.42</ele>
  <time>2026-09-01T01:13:41Z</time>
  <course>209.63</course>
  <speed>0.81</speed>
  <fix>3d</fix>
</trkpt>
<trkpt lat="33.8102642" lon="-118.3939007">
  <ele>-35.217</ele>
  <time>2026-09-01T01:13:41Z</time>
  <course>211.02</course>
  <speed>0.7940403012442127</speed>
  <fix>3d</fix>
</trkpt>
<trkpt lat="33.8102654" lon="-118.3938997">
  <ele>-34.42</ele>
  <time>2026-09-01T01:13:41Z</time>
  <course>209.63</course>
  <speed>0.81</speed>
  <fix>3d</fix>
</trkpt>
<trkpt lat="33.8102636" lon="-118.3939011">
  <ele>-35.189</ele>
  <time>2026-09-01T01:13:41Z</time>
  <course>211.01</course>
  <speed>0.7940403012442127</speed>
  <fix>3d</fix>
</trkpt>
<trkpt lat="33.8102642" lon="-118.3939006">
  <ele>-34.38</ele>
  <time>2026-09-01T01:13:41Z</time>
  <course>209.62</course>
  <speed>0.82</speed>
  <fix>3d</fix>
</trkpt>
<trkpt lat="33.8102629" lon="-118.3939016">
  <ele>-35.158</ele>
  <time>2026-09-01T01:13:41Z</time>
  <course>210.98</course>
  <speed>0.7940403012442127</speed>
  <fix>3d</fix>
</trkpt>
<trkpt lat="33.8102642" lon="-118.3939006">
  <ele>-34.38</ele>
  <time>2026-09-01T01:13:41Z</time>
  <course>209.62</course>
  <speed>0.82</speed>
  <fix>3d</fix>
</trkpt>
<trkpt lat="33.8102623" lon="-118.393902">
  <ele>-35.124</ele>
  <time>2026-09-01T01:13:41Z</time>
  <course>210.95</course>
  <speed>0.8026207074328446</speed>
  <fix>3d</fix>
</trkpt>
<trkpt lat="33.8102629" lon="-118.3939014">
  <ele>-34.33</ele>
  <time>2026-09-01T01:13:41Z</time>
  <course>209.56</course>
  <speed>0.82</speed>
  <fix>3d</fix>
</trkpt>
<trkpt lat="33.8102616" lon="-118.3939025">
  <ele>-35.087</ele>
  <time>2026-09-01T01:13:41Z</time>
  <course>210.92</course>
  <speed>0.8026207074328446</speed>
  <fix>3d</fix>
</trkpt>
<trkpt lat="33.8102629" lon="-118.3939014">
  <ele>-34.33</ele>
  <time>2026-09-01T01:13:41Z</time>
  <course>209.56</course>
  <speed>0.82</speed>
  <fix>3d</fix>
</trkpt>
<trkpt lat="33.810261" lon="-118.3939029">
  <ele>-35.049</ele>
  <time>2026-09-01T01:13:41Z</time>
  <course>210.91</course>
  <speed>0.8026207074328446</speed>
  <fix>3d</fix>
</trkpt>
<trkpt lat="33.8102616" lon="-118.3939023">
  <ele>-34.27</ele>
  <time>2026-09-01T01:13:41Z</time>
  <course>209.51</course>
  <speed>0.82</speed>
  <fix>3d</fix>
</trkpt>
<trkpt lat="33.8102604" lon="-118.3939033">
  <ele>-35.01</ele>
  <time>2026-09-01T01:13:41Z</time>
  <course>210.89</course>
  <speed>0.8026207074328446</speed>
  <fix>3d</fix>
</trkpt>
<trkpt lat="33.8102616" lon="-118.3939023">
  <ele>-34.27</ele>
  <time>2026-09-01T01:13:41Z</time>
  <course>209.51</course>
  <speed>0.82</speed>
  <fix>3d</fix>
</trkpt>
<trkpt lat="33.8102597" lon="-118.3939038">
  <ele>-34.97</ele>
  <time>2026-09-01T01:13:41Z</time>
  <course>210.9</course>
  <speed>0.7803204469959762</speed>
  <fix>3d</fix>
</trkpt>
<trkpt lat="33.8102603" lon="-118.3939032">
  <ele>-34.2</ele>
  <time>2026-09-01T01:13:41Z</time>
  <course>209.51</course>
  <speed>0.82</speed>
  <fix>3d</fix>
</trkpt>
<trkpt lat="33.8102591" lon="-118.3939042">
  <ele>-34.933</ele>
  <time>2026-09-01T01:13:41Z</time>
  <course>210.91</course>
  <speed>0.7443117626371358</speed>
  <fix>3d</fix>
</trkpt>
<trkpt lat="33.8102603" lon="-118.3939032">
  <ele>-34.2</ele>
  <time>2026-09-01T01:13:41Z</time>
  <course>209.51</course>
  <speed>0.82</speed>
  <fix>3d</fix>
</trkpt>
<trkpt lat="33.8102585" lon="-118.3939046">
  <ele>-34.898</ele>
  <time>2026-09-01T01:13:41Z</time>
  <course>210.95</course>
  <speed>0.758023746329889</speed>
  <fix>3d</fix>
</trkpt>
<trkpt lat="33.810259" lon="-118.393904">
  <ele>-34.12</ele>
  <time>2026-09-01T01:13:41Z</time>
  <course>209.53</course>
  <speed>0.8</speed>
  <fix>3d</fix>
</trkpt>
<trkpt lat="33.8102579" lon="-118.393905">
  <ele>-34.862</ele>
  <time>2026-09-01T01:13:41Z</time>
  <course>210.98</course>
  <speed>0.758023746329889</speed>
  <fix>3d</fix>
</trkpt>
<trkpt lat="33.810259" lon="-118.393904">
  <ele>-34.12</ele>
  <time>2026-09-01T01:13:41Z</time>
  <course>209.53</course>
  <speed>0.8</speed>
  <fix>3d</fix>
</trkpt>
<trkpt lat="33.8102573" lon="-118.3939055">
  <ele>-34.826</ele>
  <time>2026-09-01T01:13:41Z</time>
  <course>211.0</course>
  <speed>0.7666159403508382</speed>
  <fix>3d</fix>
</trkpt>
<trkpt lat="33.8102578" lon="-118.3939049">
  <ele>-34.06</ele>
  <time>2026-09-01T01:13:41Z</time>
  <course>209.6</course>
  <speed>0.78</speed>
  <fix>3d</fix>
</trkpt>
<trkpt lat="33.8102566" lon="-118.3939059">
  <ele>-34.793</ele>
  <time>2026-09-01T01:13:41Z</time>
  <course>211.01</course>
  <speed>0.7803204469959762</speed>
  <fix>3d</fix>
</trkpt>
<trkpt lat="33.8102578" lon="-118.3939049">
  <ele>-34.06</ele>
  <time>2026-09-01T01:13:41Z</time>
  <course>209.6</course>
  <speed>0.78</speed>
  <fix>3d</fix>
</trkpt>
<trkpt lat="33.810256" lon="-118.3939063">
  <ele>-34.76</ele>
  <time>2026-09-01T01:13:41Z</time>
  <course>211.02</course>
  <speed>0.7803204469959762</speed>
  <fix>3d</fix>
</trkpt>
<trkpt lat="33.8102565" lon="-118.3939058">
  <ele>-34.0</ele>
  <time>2026-09-01T01:13:41Z</time>
  <course>209.63</course>
  <speed>0.79</speed>
  <fix>3d</fix>
</trkpt>
<trkpt lat="33.8102554" lon="-118.3939068">
  <ele>-34.729</ele>
  <time>2026-09-01T01:13:41Z</time>
  <course>211.02</course>
  <speed>0.7803204469959762</speed>
  <fix>3d</fix>
</trkpt>
<trkpt lat="33.8102565" lon="-118.3939058">
  <ele>-34.0</ele>
  <time>2026-09-01T01:13:41Z</time>
  <course>209.63</course>
  <speed>0.79</speed>
  <fix>3d</fix>
</trkpt>
<trkpt lat="33.8102547" lon="-118.3939072">
  <ele>-34.699</ele>
  <time>2026-09-01T01:13:41Z</time>
  <course>211.01</course>
  <speed>0.7889233169326408</speed>
  <fix>3d</fix>
</trkpt>
<trkpt lat="33.8102553" lon="-118.3939066">
  <ele>-33.94</ele>
  <time>2026-09-01T01:13:41Z</time>
  <course>209.62</course>
  <speed>0.8</speed>
  <fix>3d</fix>
</trkpt>
<trkpt lat="33.8102541" lon="-118.3939076">
  <ele>-34.67</ele>
  <time>2026-09-01T01:13:41Z</time>
  <course>210.99</course>
  <speed>0.7940403012442127</speed>
  <fix>3d</fix>
</trkpt>
<trkpt lat="33.8102553" lon="-118.3939066">
  <ele>-33.94</ele>
  <time>2026-09-01T01:13:41Z</time>
  <course>209.62</course>
  <speed>0.8</speed>
  <fix>3d</fix>
</trkpt>
<trkpt lat="33.8102534" lon="-118.3939081">
  <ele>-34.641</ele>
  <time>2026-09-01T01:13:41Z</time>
  <course>210.97</course>
  <speed>0.8026207074328446</speed>
  <fix>3d</fix>
</trkpt>
<trkpt lat="33.810254" lon="-118.3939075">
  <ele>-33.87</ele>
  <time>2026-09-01T01:13:41Z</time>
  <course>209.6</course>
  <speed>0.81</speed>
  <fix>3d</fix>
</trkpt>
<trkpt lat="33.8102528" lon="-118.3939085">
  <ele>-34.614</ele>
  <time>2026-09-01T01:13:41Z</time>
  <course>210.96</course>
  <speed>0.8026207074328446</speed>
  <fix>3d</fix>
</trkpt>
<trkpt lat="33.810254" lon="-118.3939075">
  <ele>-33.87</ele>
  <time>2026-09-01T01:13:41Z</time>
  <course>209.6</course>
  <speed>0.81</speed>
  <fix>3d</fix>
</trkpt>
<trkpt lat="33.8102521" lon="-118.393909">
  <ele>-34.59</ele>
  <time>2026-09-01T01:13:41Z</time>
  <course>210.95</course>
  <speed>0.8026207074328446</speed>
  <fix>3d</fix>
</trkpt>
<trkpt lat="33.8102528" lon="-118.3939083">
  <ele>-33.82</ele>
  <time>2026-09-01T01:13:41Z</time>
  <course>209.59</course>
  <speed>0.82</speed>
  <fix>3d</fix>
</trkpt>
<trkpt lat="33.8102515" lon="-118.3939094">
  <ele>-34.568</ele>
  <time>2026-09-01T01:13:41Z</time>
  <course>210.93</course>
  <speed>0.8112336284942827</speed>
  <fix>3d</fix>
</trkpt>
<trkpt lat="33.8102528" lon="-118.3939083">
  <ele>-33.82</ele>
  <time>2026-09-01T01:13:41Z</time>
  <course>209.59</course>
  <speed>0.82</speed>
  <fix>3d</fix>
</trkpt>
<trkpt lat="33.8102508" lon="-118.3939098">
  <ele>-34.547</ele>
  <time>2026-09-01T01:13:41Z</time>
  <course>210.93</course>
  <speed>0.816333265278342</speed>
  <fix>3d</fix>
</trkpt>
<trkpt lat="33.8102515" lon="-118.3939092">
  <ele>-33.78</ele>
  <time>2026-09-01T01:13:41Z</time>
  <course>209.57</course>
  <speed>0.83</speed>
  <fix>3d</fix>
</trkpt>
<trkpt lat="33.8102502" lon="-118.3939103">
  <ele>-34.524</ele>
  <time>2026-09-01T01:13:41Z</time>
  <course>210.93</course>
  <speed>0.816333265278342</speed>
  <fix>3d</fix>
</trkpt>
<trkpt lat="33.8102515" lon="-118.3939092">
  <ele>-33.78</ele>
  <time>2026-09-01T01:13:41Z</time>
  <course>209.57</course>
  <speed>0.83</speed>
  <fix>3d</fix>
</trkpt>
<trkpt lat="33.8102495" lon="-118.3939107">
  <ele>-34.499</ele>
  <time>2026-09-01T01:13:41Z</time>
  <course>210.92</course>
  <speed>0.816333265278342</speed>
  <fix>3d</fix>
</trkpt>
<trkpt lat="33.8102501" lon="-118.3939101">
  <ele>-33.73</ele>
  <time>2026-09-01T01:13:41Z</time>
  <course>209.57</course>
  <speed>0.84</speed>
  <fix>3d</fix>
</trkpt>
<trkpt lat="33.8102489" lon="-118.3939112">
  <ele>-34.471</ele>
  <time>2026-09-01T01:13:41Z</time>
  <course>210.92</course>
  <speed>0.816333265278342</speed>
  <fix>3d</fix>
</trkpt>
<trkpt lat="33.8102501" lon="-118.3939101">
  <ele>-33.73</ele>
  <time>2026-09-01T01:13:41Z</time>
  <course>209.57</course>
  <speed>0.84</speed>
  <fix>3d</fix>
</trkpt>
<trkpt lat="33.8102482" lon="-118.3939116">
  <ele>-34.443</ele>
  <time>2026-09-01T01:13:41Z</time>
  <course>210.94</course>
  <speed>0.8249242389456137</speed>
  <fix>3d</fix>
</trkpt>
<trkpt lat="33.8102488" lon="-118.393911">
  <ele>-33.68</ele>
  <time>2026-09-01T01:13:41Z</time>
  <course>209.59</course>
  <speed>0.84</speed>
  <fix>3d</fix>
</trkpt>
<trkpt lat="33.8102475" lon="-118.3939121">
  <ele>-34.416</ele>
  <time>2026-09-01T01:13:41Z</time>
  <course>210.95</course>
  <speed>0.8249242389456137</speed>
  <fix>3d</fix>
</trkpt>
<trkpt lat="33.8102488" lon="-118.393911">
  <ele>-33.68</ele>
  <time>2026-09-01T01:13:41Z</time>
  <course>209.59</course>
  <speed>0.84</speed>
  <fix>3d</fix>
</trkpt>
<trkpt lat="33.8102469" lon="-118.3939125">
  <ele>-34.388</ele>
  <time>2026-09-01T01:13:41Z</time>
  <course>210.97</course>
  <speed>0.8249242389456137</speed>
  <fix>3d</fix>
</trkpt>
<trkpt lat="33.8102475" lon="-118.3939119">
  <ele>-33.62</ele>
  <time>2026-09-01T01:13:41Z</time>
  <course>209.64</course>
  <speed>0.85</speed>
  <fix>3d</fix>
</trkpt>
<trkpt lat="33.8102462" lon="-118.393913">
  <ele>-34.36</ele>
  <time>2026-09-01T01:13:41Z</time>
  <course>210.99</course>
  <speed>0.8249242389456137</speed>
  <fix>3d</fix>
</trkpt>
<trkpt lat="33.8102475" lon="-118.3939119">
  <ele>-33.62</ele>
  <time>2026-09-01T01:13:41Z</time>
  <course>209.64</course>
  <speed>0.85</speed>
  <fix>3d</fix>
</trkpt>
<trkpt lat="33.8102455" lon="-118.3939135">
  <ele>-34.33</ele>
  <time>2026-09-01T01:13:41Z</time>
  <course>211.01</course>
  <speed>0.8249242389456137</speed>
  <fix>3d</fix>
</trkpt>
<trkpt lat="33.8102461" lon="-118.3939129">
  <ele>-33.57</ele>
  <time>2026-09-01T01:13:41Z</time>
  <course>209.67</course>
  <speed>0.85</speed>
  <fix>3d</fix>
</trkpt>
<trkpt lat="33.8102449" lon="-118.3939139">
  <ele>-34.298</ele>
  <time>2026-09-01T01:13:41Z</time>
  <course>211.01</course>
  <speed>0.8249242389456137</speed>
  <fix>3d</fix>
</trkpt>
<trkpt lat="33.8102461" lon="-118.3939129">
  <ele>-33.57</ele>
  <time>2026-09-01T01:13:41Z</time>
  <course>209.67</course>
  <speed>0.85</speed>
  <fix>3d</fix>
</trkpt>
<trkpt lat="33.8102442" lon="-118.3939144">
  <ele>-34.266</ele>
  <time>2026-09-01T01:13:41Z</time>
  <course>211.01</course>
  <speed>0.8249242389456137</speed>
  <fix>3d</fix>
</trkpt>
<trkpt lat="33.8102448" lon="-118.3939138">
  <ele>-33.51</ele>
  <time>2026-09-01T01:13:41Z</time>
  <course>209.67</course>
  <speed>0.85</speed>
  <fix>3d</fix>
</trkpt>
<trkpt lat="33.8102435" lon="-118.3939148">
  <ele>-34.231</ele>
  <time>2026-09-01T01:13:41Z</time>
  <course>211.0</course>
  <speed>0.8249242389456137</speed>
  <fix>3d</fix>
</trkpt>
<trkpt lat="33.8102448" lon="-118.3939138">
  <ele>-33.51</ele>
  <time>2026-09-01T01:13:41Z</time>
  <course>209.67</course>
  <speed>0.85</speed>
  <fix>3d</fix>
</trkpt>
<trkpt lat="33.8102429" lon="-118.3939153">
  <ele>-34.197</ele>
  <time>2026-09-01T01:13:41Z</time>
  <course>210.98</course>
  <speed>0.8249242389456137</speed>
  <fix>3d</fix>
</trkpt>
<trkpt lat="33.8102435" lon="-118.3939147">
  <ele>-33.44</ele>
  <time>2026-09-01T01:13:41Z</time>
  <course>209.65</course>
  <speed>0.85</speed>
  <fix>3d</fix>
</trkpt>
<trkpt lat="33.8102422" lon="-118.3939158">
  <ele>-34.164</ele>
  <time>2026-09-01T01:13:41Z</time>
  <course>210.95</course>
  <speed>0.8386298349093002</speed>
  <fix>3d</fix>
</trkpt>
<trkpt lat="33.8102435" lon="-118.3939147">
  <ele>-33.44</ele>
  <time>2026-09-01T01:13:41Z</time>
  <course>209.65</course>
  <speed>0.85</speed>
  <fix>3d</fix>
</trkpt>
<trkpt lat="33.8102415" lon="-118.3939162">
  <ele>-34.131</ele>
  <time>2026-09-01T01:13:41Z</time>
  <course>210.93</course>
  <speed>0.8386298349093002</speed>
  <fix>3d</fix>
</trkpt>
<trkpt lat="33.8102422" lon="-118.3939156">
  <ele>-33.38</ele>
  <time>2026-09-01T01:13:41Z</time>
  <course>209.61</course>
  <speed>0.86</speed>
  <fix>3d</fix>
</trkpt>
<trkpt lat="33.8102409" lon="-118.3939167">
  <ele>-34.1</ele>
  <time>2026-09-01T01:13:41Z</time>
  <course>210.9</course>
  <speed>0.8386298349093002</speed>
  <fix>3d</fix>
</trkpt>
<trkpt lat="33.8102422" lon="-118.3939156">
  <ele>-33.38</ele>
  <time>2026-09-01T01:13:41Z</time>
  <course>209.61</course>
  <speed>0.86</speed>
  <fix>3d</fix>
</trkpt>
<trkpt lat="33.8102402" lon="-118.3939171">
  <ele>-34.069</ele>
  <time>2026-09-01T01:13:41Z</time>
  <course>210.87</course>
  <speed>0.8386298349093002</speed>
  <fix>3d</fix>
</trkpt>
<trkpt lat="33.8102408" lon="-118.3939165">
  <ele>-33.32</ele>
  <time>2026-09-01T01:13:41Z</time>
  <course>209.56</course>
  <speed>0.86</speed>
  <fix>3d</fix>
</trkpt>
<trkpt lat="33.8102395" lon="-118.3939176">
  <ele>-34.039</ele>
  <time>2026-09-01T01:13:41Z</time>
  <course>210.84</course>
  <speed>0.8386298349093002</speed>
  <fix>3d</fix>
</trkpt>
<trkpt lat="33.8102408" lon="-118.3939165">
  <ele>-33.32</ele>
  <time>2026-09-01T01:13:41Z</time>
  <course>209.56</course>
  <speed>0.86</speed>
  <fix>3d</fix>
</trkpt>
<trkpt lat="33.8102388" lon="-118.3939181">
  <ele>-34.011</ele>
  <time>2026-09-01T01:13:41Z</time>
  <course>210.84</course>
  <speed>0.8386298349093002</speed>
  <fix>3d</fix>
</trkpt>
<trkpt lat="33.8102394" lon="-118.3939174">
  <ele>-33.26</ele>
  <time>2026-09-01T01:13:41Z</time>
  <course>209.54</course>
  <speed>0.86</speed>
  <fix>3d</fix>
</trkpt>
<trkpt lat="33.8102382" lon="-118.3939185">
  <ele>-33.983</ele>
  <time>2026-09-01T01:13:41Z</time>
  <course>210.83</course>
  <speed>0.8386298349093002</speed>
  <fix>3d</fix>
</trkpt>
<trkpt lat="33.8102394" lon="-118.3939174">
  <ele>-33.26</ele>
  <time>2026-09-01T01:13:41Z</time>
  <course>209.54</course>
  <speed>0.86</speed>
  <fix>3d</fix>
</trkpt>
<trkpt lat="33.8102375" lon="-118.393919">
  <ele>-33.952</ele>
  <time>2026-09-01T01:13:41Z</time>
  <course>210.86</course>
  <speed>0.8472307831990054</speed>
  <fix>3d</fix>
</trkpt>
<trkpt lat="33.8102381" lon="-118.3939184">
  <ele>-33.21</ele>
  <time>2026-09-01T01:13:41Z</time>
  <course>209.57</course>
  <speed>0.87</speed>
  <fix>3d</fix>
</trkpt>
<trkpt lat="33.8102368" lon="-118.3939194">
  <ele>-33.921</ele>
  <time>2026-09-01T01:13:41Z</time>
  <course>210.88</course>
  <speed>0.8386298349093002</speed>
  <fix>3d</fix>
</trkpt>
<trkpt lat="33.8102381" lon="-118.3939184">
  <ele>-33.21</ele>
  <time>2026-09-01T01:13:41Z</time>
  <course>209.57</course>
  <speed>0.87</speed>
  <fix>3d</fix>
</trkpt>
<trkpt lat="33.8102361" lon="-118.3939199">
  <ele>-33.89</ele>
  <time>2026-09-01T01:13:41Z</time>
  <course>210.9</course>
  <speed>0.8472307831990054</speed>
  <fix>3d</fix>
</trkpt>
<trkpt lat="33.8102368" lon="-118.3939193">
  <ele>-33.15</ele>
  <time>2026-09-01T01:13:41Z</time>
  <course>209.61</course>
  <speed>0.87</speed>
  <fix>3d</fix>
</trkpt>
<trkpt lat="33.8102355" lon="-118.3939204">
  <ele>-33.861</ele>
  <time>2026-09-01T01:13:41Z</time>
  <course>210.9</course>
  <speed>0.8472307831990054</speed>
  <fix>3d</fix>
</trkpt>
<trkpt lat="33.8102368" lon="-118.3939193">
  <ele>-33.15</ele>
  <time>2026-09-01T01:13:41Z</time>
  <course>209.61</course>
  <speed>0.87</speed>
  <fix>3d</fix>
</trkpt>
<trkpt lat="33.8102348" lon="-118.3939208">
  <ele>-33.831</ele>
  <time>2026-09-01T01:13:41Z</time>
  <course>210.89</course>
  <speed>0.8472307831990054</speed>
  <fix>3d</fix>
</trkpt>
<trkpt lat="33.8102353" lon="-118.3939203">
  <ele>-33.09</ele>
  <time>2026-09-01T01:13:41Z</time>
  <course>209.6</course>
  <speed>0.87</speed>
  <fix>3d</fix>
</trkpt>
<trkpt lat="33.8102341" lon="-118.3939213">
  <ele>-33.801</ele>
  <time>2026-09-01T01:13:41Z</time>
  <course>210.86</course>
  <speed>0.8472307831990054</speed>
  <fix>3d</fix>
</trkpt>
<trkpt lat="33.8102353" lon="-118.3939203">
  <ele>-33.09</ele>
  <time>2026-09-01T01:13:41Z</time>
  <course>209.6</course>
  <speed>0.87</speed>
  <fix>3d</fix>
</trkpt>
<trkpt lat="33.8102334" lon="-118.3939218">
  <ele>-33.772</ele>
  <time>2026-09-01T01:13:41Z</time>
  <course>210.84</course>
  <speed>0.8472307831990054</speed>
  <fix>3d</fix>
</trkpt>
<trkpt lat="33.8102339" lon="-118.3939212">
  <ele>-33.03</ele>
  <time>2026-09-01T01:13:41Z</time>
  <course>209.57</course>
  <speed>0.87</speed>
  <fix>3d</fix>
</trkpt>
<trkpt lat="33.8102327" lon="-118.3939222">
  <ele>-33.744</ele>
  <time>2026-09-01T01:13:41Z</time>
  <course>210.82</course>
  <speed>0.8472307831990054</speed>
  <fix>3d</fix>
</trkpt>
<trkpt lat="33.8102339" lon="-118.3939212">
  <ele>-33.03</ele>
  <time>2026-09-01T01:13:41Z</time>
  <course>209.57</course>
  <speed>0.87</speed>
  <fix>3d</fix>
</trkpt>
<trkpt lat="33.810232" lon="-118.3939227">
  <ele>-33.715</ele>
  <time>2026-09-01T01:13:41Z</time>
  <course>210.82</course>
  <speed>0.8472307831990054</speed>
  <fix>3d</fix>
</trkpt>
<trkpt lat="33.8102326" lon="-118.3939221">
  <ele>-32.97</ele>
  <time>2026-09-01T01:13:41Z</time>
  <course>209.57</course>
  <speed>0.88</speed>
  <fix>3d</fix>
</trkpt>
<trkpt lat="33.8102313" lon="-118.3939232">
  <ele>-33.686</ele>
  <time>2026-09-01T01:13:41Z</time>
  <course>210.83</course>
  <speed>0.8472307831990054</speed>
  <fix>3d</fix>
</trkpt>
<trkpt lat="33.8102326" lon="-118.3939221">
  <ele>-32.97</ele>
  <time>2026-09-01T01:13:41Z</time>
  <course>209.57</course>
  <speed>0.88</speed>
  <fix>3d</fix>
</trkpt>
<trkpt lat="33.8102307" lon="-118.3939236">
  <ele>-33.658</ele>
  <time>2026-09-01T01:13:41Z</time>
  <course>210.86</course>
  <speed>0.8472307831990054</speed>
  <fix>3d</fix>
</trkpt>
<trkpt lat="33.8102313" lon="-118.3939231">
  <ele>-32.92</ele>
  <time>2026-09-01T01:13:41Z</time>
  <course>209.6</course>
  <speed>0.88</speed>
  <fix>3d</fix>
</trkpt>
<trkpt lat="33.81023" lon="-118.3939241">
  <ele>-33.627</ele>
  <time>2026-09-01T01:13:41Z</time>
  <course>210.87</course>
  <speed>0.8472307831990054</speed>
  <fix>3d</fix>
</trkpt>
<trkpt lat="33.8102313" lon="-118.3939231">
  <ele>-32.92</ele>
  <time>2026-09-01T01:13:41Z</time>
  <course>209.6</course>
  <speed>0.88</speed>
  <fix>3d</fix>
</trkpt>
<trkpt lat="33.8102293" lon="-118.3939246">
  <ele>-33.596</ele>
  <time>2026-09-01T01:13:41Z</time>
  <course>210.86</course>
  <speed>0.8472307831990054</speed>
  <fix>3d</fix>
</trkpt>
<trkpt lat="33.8102298" lon="-118.393924">
  <ele>-32.86</ele>
  <time>2026-09-01T01:13:41Z</time>
  <course>209.59</course>
  <speed>0.88</speed>
  <fix>3d</fix>
</trkpt>
<trkpt lat="33.8102286" lon="-118.3939251">
  <ele>-33.562</ele>
  <time>2026-09-01T01:13:41Z</time>
  <course>210.84</course>
  <speed>0.8472307831990054</speed>
  <fix>3d</fix>
</trkpt>
<trkpt lat="33.8102298" lon="-118.393924">
  <ele>-32.86</ele>
  <time>2026-09-01T01:13:41Z</time>
  <course>209.59</course>
  <speed>0.88</speed>
  <fix>3d</fix>
</trkpt>
<trkpt lat="33.8102279" lon="-118.3939255">
  <ele>-33.53</ele>
  <time>2026-09-01T01:13:41Z</time>
  <course>210.83</course>
  <speed>0.8472307831990054</speed>
  <fix>3d</fix>
</trkpt>
<trkpt lat="33.8102285" lon="-118.393925">
  <ele>-32.8</ele>
  <time>2026-09-01T01:13:41Z</time>
  <course>209.57</course>
  <speed>0.88</speed>
  <fix>3d</fix>
</trkpt>
<trkpt lat="33.8102272" lon="-118.393926">
  <ele>-33.499</ele>
  <time>2026-09-01T01:13:41Z</time>
  <course>210.83</course>
  <speed>0.8523496934944014</speed>
  <fix>3d</fix>
</trkpt>
<trkpt lat="33.8102285" lon="-118.393925">
  <ele>-32.8</ele>
  <time>2026-09-01T01:13:41Z</time>
  <course>209.57</course>
  <speed>0.88</speed>
  <fix>3d</fix>
</trkpt>
<trkpt lat="33.8102265" lon="-118.3939265">
  <ele>-33.468</ele>
  <time>2026-09-01T01:13:41Z</time>
  <course>210.82</course>
  <speed>0.8523496934944014</speed>
  <fix>3d</fix>
</trkpt>
<trkpt lat="33.8102271" lon="-118.3939259">
  <ele>-32.73</ele>
  <time>2026-09-01T01:13:41Z</time>
  <course>209.55</course>
  <speed>0.88</speed>
  <fix>3d</fix>
</trkpt>
<trkpt lat="33.8102258" lon="-118.3939269">
  <ele>-33.438</ele>
  <time>2026-09-01T01:13:41Z</time>
  <course>210.8</course>
  <speed>0.8523496934944014</speed>
  <fix>3d</fix>
</trkpt>
<trkpt lat="33.8102271" lon="-118.3939259">
  <ele>-32.73</ele>
  <time>2026-09-01T01:13:41Z</time>
  <course>209.55</course>
  <speed>0.88</speed>
  <fix>3d</fix>
</trkpt>
<trkpt lat="33.8102251" lon="-118.3939274">
  <ele>-33.406</ele>
  <time>2026-09-01T01:13:41Z</time>
  <course>210.79</course>
  <speed>0.8609297300012354</speed>
  <fix>3d</fix>
</trkpt>
<trkpt lat="33.8102258" lon="-118.3939269">
  <ele>-32.68</ele>
  <time>2026-09-01T01:13:41Z</time>
  <course>209.52</course>
  <speed>0.88</speed>
  <fix>3d</fix>
</trkpt>
<trkpt lat="33.8102245" lon="-118.3939279">
  <ele>-33.373</ele>
  <time>2026-09-01T01:13:41Z</time>
  <course>210.78</course>
  <speed>0.8609297300012354</speed>
  <fix>3d</fix>
</trkpt>
<trkpt lat="33.8102258" lon="-118.3939269">
  <ele>-32.68</ele>
  <time>2026-09-01T01:13:41Z</time>
  <course>209.52</course>
  <speed>0.88</speed>
  <fix>3d</fix>
</trkpt>
<trkpt lat="33.8102238" lon="-118.3939284">
  <ele>-33.339</ele>
  <time>2026-09-01T01:13:41Z</time>
  <course>210.76</course>
  <speed>0.8609297300012354</speed>
  <fix>3d</fix>
</trkpt>
<trkpt lat="33.8102243" lon="-118.3939278">
  <ele>-32.61</ele>
  <time>2026-09-01T01:13:41Z</time>
  <course>209.47</course>
  <speed>0.88</speed>
  <fix>3d</fix>
</trkpt>
<trkpt lat="33.8102231" lon="-118.3939288">
  <ele>-33.304</ele>
  <time>2026-09-01T01:13:41Z</time>
  <course>210.72</course>
  <speed>0.8609297300012354</speed>
  <fix>3d</fix>
</trkpt>
<trkpt lat="33.8102243" lon="-118.3939278">
  <ele>-32.61</ele>
  <time>2026-09-01T01:13:41Z</time>
  <course>209.47</course>
  <speed>0.88</speed>
  <fix>3d</fix>
</trkpt>
<trkpt lat="33.8102224" lon="-118.3939293">
  <ele>-33.269</ele>
  <time>2026-09-01T01:13:41Z</time>
  <course>210.71</course>
  <speed>0.8609297300012354</speed>
  <fix>3d</fix>
</trkpt>
<trkpt lat="33.810223" lon="-118.3939287">
  <ele>-32.55</ele>
  <time>2026-09-01T01:13:41Z</time>
  <course>209.44</course>
  <speed>0.89</speed>
  <fix>3d</fix>
</trkpt>
<trkpt lat="33.8102217" lon="-118.3939298">
  <ele>-33.234</ele>
  <time>2026-09-01T01:13:41Z</time>
  <course>210.71</course>
  <speed>0.8609297300012354</speed>
  <fix>3d</fix>
</trkpt>
<trkpt lat="33.810223" lon="-118.3939287">
  <ele>-32.55</ele>
  <time>2026-09-01T01:13:41Z</time>
  <course>209.44</course>
  <speed>0.89</speed>
  <fix>3d</fix>
</trkpt>
<trkpt lat="33.810221" lon="-118.3939303">
  <ele>-33.202</ele>
  <time>2026-09-01T01:13:41Z</time>
  <course>210.72</course>
  <speed>0.8609297300012354</speed>
  <fix>3d</fix>
</trkpt>
<trkpt lat="33.8102216" lon="-118.3939297">
  <ele>-32.48</ele>
  <time>2026-09-01T01:13:41Z</time>
  <course>209.47</course>
  <speed>0.89</speed>
  <fix>3d</fix>
</trkpt>
<trkpt lat="33.8102203" lon="-118.3939307">
  <ele>-33.171</ele>
  <time>2026-09-01T01:13:41Z</time>
  <course>210.73</course>
  <speed>0.8609297300012354</speed>
  <fix>3d</fix>
</trkpt>
<trkpt lat="33.8102216" lon="-118.3939297">
  <ele>-32.48</ele>
  <time>2026-09-01T01:13:41Z</time>
  <course>209.47</course>
  <speed>0.89</speed>
  <fix>3d</fix>
</trkpt>
<trkpt lat="33.8102196" lon="-118.3939312">
  <ele>-33.141</ele>
  <time>2026-09-01T01:13:41Z</time>
  <course>210.73</course>
  <speed>0.8609297300012354</speed>
  <fix>3d</fix>
</trkpt>
<trkpt lat="33.8102201" lon="-118.3939306">
  <ele>-32.41</ele>
  <time>2026-09-01T01:13:41Z</time>
  <course>209.49</course>
  <speed>0.89</speed>
  <fix>3d</fix>
</trkpt>
<trkpt lat="33.8102189" lon="-118.3939317">
  <ele>-33.111</ele>
  <time>2026-09-01T01:13:41Z</time>
  <course>210.74</course>
  <speed>0.8609297300012354</speed>
  <fix>3d</fix>
</trkpt>
<trkpt lat="33.8102201" lon="-118.3939306">
  <ele>-32.41</ele>
  <time>2026-09-01T01:13:41Z</time>
  <course>209.49</course>
  <speed>0.89</speed>
  <fix>3d</fix>
</trkpt>
<trkpt lat="33.8102182" lon="-118.3939322">
  <ele>-33.08</ele>
  <time>2026-09-01T01:13:41Z</time>
  <course>210.76</course>
  <speed>0.8609297300012354</speed>
  <fix>3d</fix>
</trkpt>
<trkpt lat="33.8102188" lon="-118.3939316">
  <ele>-32.35</ele>
  <time>2026-09-01T01:13:41Z</time>
  <course>209.52</course>
  <speed>0.89</speed>
  <fix>3d</fix>
</trkpt>
<trkpt lat="33.8102175" lon="-118.3939326">
  <ele>-33.048</ele>
  <time>2026-09-01T01:13:41Z</time>
  <course>210.79</course>
  <speed>0.8609297300012354</speed>
  <fix>3d</fix>
</trkpt>
<trkpt lat="33.8102188" lon="-118.3939316">
  <ele>-32.35</ele>
  <time>2026-09-01T01:13:41Z</time>
  <course>209.52</course>
  <speed>0.89</speed>
  <fix>3d</fix>
</trkpt>
<trkpt lat="33.8102168" lon="-118.3939331">
  <ele>-33.014</ele>
  <time>2026-09-01T01:13:41Z</time>
  <course>210.81</course>
  <speed>0.8695401083331349</speed>
  <fix>3d</fix>
</trkpt>
<trkpt lat="33.8102174" lon="-118.3939326">
  <ele>-32.29</ele>
  <time>2026-09-01T01:13:41Z</time>
  <course>209.58</course>
  <speed>0.89</speed>
  <fix>3d</fix>
</trkpt>
<trkpt lat="33.8102161" lon="-118.3939336">
  <ele>-32.975</ele>
  <time>2026-09-01T01:13:41Z</time>
  <course>210.81</course>
  <speed>0.8695401083331349</speed>
  <fix>3d</fix>
</trkpt>
<trkpt lat="33.8102174" lon="-118.3939326">
  <ele>-32.29</ele>
  <time>2026-09-01T01:13:41Z</time>
  <course>209.58</course>
  <speed>0.89</speed>
  <fix>3d</fix>
</trkpt>
<trkpt lat="33.8102154" lon="-118.3939341">
  <ele>-32.935</ele>
  <time>2026-09-01T01:13:41Z</time>
  <course>210.8</course>
  <speed>0.8695401083331349</speed>
  <fix>3d</fix>
</trkpt>
<trkpt lat="33.8102159" lon="-118.3939335">
  <ele>-32.22</ele>
  <time>2026-09-01T01:13:41Z</time>
  <course>209.55</course>
  <speed>0.9</speed>
  <fix>3d</fix>
</trkpt>
<trkpt lat="33.8102147" lon="-118.3939346">
  <ele>-32.899</ele>
  <time>2026-09-01T01:13:41Z</time>
  <course>210.78</course>
  <speed>0.8695401083331349</speed>
  <fix>3d</fix>
</trkpt>
<trkpt lat="33.8102159" lon="-118.3939335">
  <ele>-32.22</ele>
  <time>2026-09-01T01:13:41Z</time>
  <course>209.55</course>
  <speed>0.9</speed>
  <fix>3d</fix>
</trkpt>
<trkpt lat="33.810214" lon="-118.3939351">
  <ele>-32.865</ele>
  <time>2026-09-01T01:13:41Z</time>
  <course>210.78</course>
  <speed>0.8695401083331349</speed>
  <fix>3d</fix>
</trkpt>
<trkpt lat="33.8102145" lon="-118.3939345">
  <ele>-32.15</ele>
  <time>2026-09-01T01:13:41Z</time>
  <course>209.53</course>
  <speed>0.9</speed>
  <fix>3d</fix>
</trkpt>
<trkpt lat="33.8102133" lon="-118.3939355">
  <ele>-32.83</ele>
  <time>2026-09-01T01:13:41Z</time>
  <course>210.78</course>
  <speed>0.8472307831990054</speed>
  <fix>3d</fix>
</trkpt>
<trkpt lat="33.8102145" lon="-118.3939345">
  <ele>-32.15</ele>
  <time>2026-09-01T01:13:41Z</time>
  <course>209.53</course>
  <speed>0.9</speed>
  <fix>3d</fix>
</trkpt>
<trkpt lat="33.8102126" lon="-118.393936">
  <ele>-32.799</ele>
  <time>2026-09-01T01:13:41Z</time>
  <course>210.82</course>
  <speed>0.8026207074328446</speed>
  <fix>3d</fix>
</trkpt>
<trkpt lat="33.8102132" lon="-118.3939354">
  <ele>-32.08</ele>
  <time>2026-09-01T01:13:41Z</time>
  <course>209.59</course>
  <speed>0.86</speed>
  <fix>3d</fix>
</trkpt>
<trkpt lat="33.810212" lon="-118.3939364">
  <ele>-32.768</ele>
  <time>2026-09-01T01:13:41Z</time>
  <course>210.88</course>
  <speed>0.816333265278342</speed>
  <fix>3d</fix>
</trkpt>
<trkpt lat="33.8102132" lon="-118.3939354">
  <ele>-32.08</ele>
  <time>2026-09-01T01:13:41Z</time>
  <course>209.59</course>
  <speed>0.86</speed>
  <fix>3d</fix>
</trkpt>
<trkpt lat="33.8102113" lon="-118.3939369">
  <ele>-32.736</ele>
  <time>2026-09-01T01:13:41Z</time>
  <course>210.91</course>
  <speed>0.8249242389456137</speed>
  <fix>3d</fix>
</trkpt>
<trkpt lat="33.8102118" lon="-118.3939363">
  <ele>-32.02</ele>
  <time>2026-09-01T01:13:41Z</time>
  <course>209.63</course>
  <speed>0.84</speed>
  <fix>3d</fix>
</trkpt>
<trkpt lat="33.8102106" lon="-118.3939373">
  <ele>-32.706</ele>
  <time>2026-09-01T01:13:41Z</time>
  <course>210.92</course>
  <speed>0.8386298349093002</speed>
  <fix>3d</fix>
</trkpt>
<trkpt lat="33.8102118" lon="-118.3939363">
  <ele>-32.02</ele>
  <time>2026-09-01T01:13:41Z</time>
  <course>209.63</course>
  <speed>0.84</speed>
  <fix>3d</fix>
</trkpt>
<trkpt lat="33.81021" lon="-118.3939378">
  <ele>-32.675</ele>
  <time>2026-09-01T01:13:41Z</time>
  <course>210.91</course>
  <speed>0.8472307831990054</speed>
  <fix>3d</fix>
</trkpt>
<trkpt lat="33.8102104" lon="-118.3939373">
  <ele>-31.96</ele>
  <time>2026-09-01T01:13:41Z</time>
  <course>209.63</course>
  <speed>0.86</speed>
  <fix>3d</fix>
</trkpt>
<trkpt lat="33.8102093" lon="-118.3939383">
  <ele>-32.644</ele>
  <time>2026-09-01T01:13:41Z</time>
  <course>210.91</course>
  <speed>0.8523496934944014</speed>
  <fix>3d</fix>
</trkpt>
<trkpt lat="33.8102104" lon="-118.3939373">
  <ele>-31.96</ele>
  <time>2026-09-01T01:13:41Z</time>
  <course>209.63</course>
  <speed>0.86</speed>
  <fix>3d</fix>
</trkpt>
<trkpt lat="33.8102086" lon="-118.3939387">
  <ele>-32.612</ele>
  <time>2026-09-01T01:13:41Z</time>
  <course>210.91</course>
  <speed>0.8609297300012354</speed>
  <fix>3d</fix>
</trkpt>
<trkpt lat="33.810209" lon="-118.3939382">
  <ele>-31.9</ele>
  <time>2026-09-01T01:13:41Z</time>
  <course>209.64</course>
  <speed>0.87</speed>
  <fix>3d</fix>
</trkpt>
<trkpt lat="33.8102079" lon="-118.3939392">
  <ele>-32.581</ele>
  <time>2026-09-01T01:13:41Z</time>
  <course>210.91</course>
  <speed>0.8609297300012354</speed>
  <fix>3d</fix>
</trkpt>
<trkpt lat="33.810209" lon="-118.3939382">
  <ele>-31.9</ele>
  <time>2026-09-01T01:13:41Z</time>
  <course>209.64</course>
  <speed>0.87</speed>
  <fix>3d</fix>
</trkpt>
<trkpt lat="33.8102072" lon="-118.3939397">
  <ele>-32.552</ele>
  <time>2026-09-01T01:13:41Z</time>
  <course>210.92</course>
  <speed>0.8609297300012354</speed>
  <fix>3d</fix>
</trkpt>
<trkpt lat="33.8102077" lon="-118.3939391">
  <ele>-31.84</ele>
  <time>2026-09-01T01:13:41Z</time>
  <course>209.68</course>
  <speed>0.88</speed>
  <fix>3d</fix>
</trkpt>
<trkpt lat="33.8102065" lon="-118.3939402">
  <ele>-32.524</ele>
  <time>2026-09-01T01:13:41Z</time>
  <course>210.94</course>
  <speed>0.8609297300012354</speed>
  <fix>3d</fix>
</trkpt>
<trkpt lat="33.8102077" lon="-118.3939391">
  <ele>-31.84</ele>
  <time>2026-09-01T01:13:41Z</time>
  <course>209.68</course>
  <speed>0.88</speed>
  <fix>3d</fix>
</trkpt>
<trkpt lat="33.8102058" lon="-118.3939407">
  <ele>-32.497</ele>
  <time>2026-09-01T01:13:41Z</time>
  <course>210.95</course>
  <speed>0.8695401083331349</speed>
  <fix>3d</fix>
</trkpt>
<trkpt lat="33.8102063" lon="-118.3939401">
  <ele>-31.77</ele>
  <time>2026-09-01T01:13:41Z</time>
  <course>209.73</course>
  <speed>0.89</speed>
  <fix>3d</fix>
</trkpt>
<trkpt lat="33.8102051" lon="-118.3939411">
  <ele>-32.472</ele>
  <time>2026-09-01T01:13:41Z</time>
  <course>210.96</course>
  <speed>0.8746427842267951</speed>
  <fix>3d</fix>
</trkpt>
<trkpt lat="33.8102063" lon="-118.3939401">
  <ele>-31.77</ele>
  <time>2026-09-01T01:13:41Z</time>
  <course>209.73</course>
  <speed>0.89</speed>
  <fix>3d</fix>
</trkpt>
<trkpt lat="33.8102043" lon="-118.3939416">
  <ele>-32.448</ele>
  <time>2026-09-01T01:13:41Z</time>
  <course>210.96</course>
  <speed>0.8746427842267951</speed>
  <fix>3d</fix>
</trkpt>
<trkpt lat="33.8102049" lon="-118.3939411">
  <ele>-31.72</ele>
  <time>2026-09-01T01:13:41Z</time>
  <course>209.75</course>
  <speed>0.9</speed>
  <fix>3d</fix>
</trkpt>
<trkpt lat="33.8102036" lon="-118.3939421">
  <ele>-32.423</ele>
  <time>2026-09-01T01:13:41Z</time>
  <course>210.95</course>
  <speed>0.8746427842267951</speed>
  <fix>3d</fix>
</trkpt>
<trkpt lat="33.8102049" lon="-118.3939411">
  <ele>-31.72</ele>
  <time>2026-09-01T01:13:41Z</time>
  <course>209.75</course>
  <speed>0.9</speed>
  <fix>3d</fix>
</trkpt>
<trkpt lat="33.8102029" lon="-118.3939426">
  <ele>-32.4</ele>
  <time>2026-09-01T01:13:41Z</time>
  <course>210.93</course>
  <speed>0.8746427842267951</speed>
  <fix>3d</fix>
</trkpt>
<trkpt lat="33.8102035" lon="-118.393942">
  <ele>-31.68</ele>
  <time>2026-09-01T01:13:41Z</time>
  <course>209.72</course>
  <speed>0.9</speed>
  <fix>3d</fix>
</trkpt>
<trkpt lat="33.8102022" lon="-118.3939431">
  <ele>-32.377</ele>
  <time>2026-09-01T01:13:41Z</time>
  <course>210.9</course>
  <speed>0.8832326986700617</speed>
  <fix>3d</fix>
</trkpt>
<trkpt lat="33.8102035" lon="-118.393942">
  <ele>-31.68</ele>
  <time>2026-09-01T01:13:41Z</time>
  <course>209.72</course>
  <speed>0.9</speed>
  <fix>3d</fix>
</trkpt>
<trkpt lat="33.8102015" lon="-118.3939436">
  <ele>-32.356</ele>
  <time>2026-09-01T01:13:41Z</time>
  <course>210.89</course>
  <speed>0.8832326986700617</speed>
  <fix>3d</fix>
</trkpt>
<trkpt lat="33.8102021" lon="-118.393943">
  <ele>-31.63</ele>
  <time>2026-09-01T01:13:41Z</time>
  <course>209.68</course>
  <speed>0.9</speed>
  <fix>3d</fix>
</trkpt>
<trkpt lat="33.8102008" lon="-118.3939441">
  <ele>-32.331</ele>
  <time>2026-09-01T01:13:41Z</time>
  <course>210.87</course>
  <speed>0.8832326986700617</speed>
  <fix>3d</fix>
</trkpt>
<trkpt lat="33.8102021" lon="-118.393943">
  <ele>-31.63</ele>
  <time>2026-09-01T01:13:41Z</time>
  <course>209.68</course>
  <speed>0.9</speed>
  <fix>3d</fix>
</trkpt>
<trkpt lat="33.8102001" lon="-118.3939446">
  <ele>-32.304</ele>
  <time>2026-09-01T01:13:41Z</time>
  <course>210.86</course>
  <speed>0.8832326986700617</speed>
  <fix>3d</fix>
</trkpt>
<trkpt lat="33.8102006" lon="-118.393944">
  <ele>-31.59</ele>
  <time>2026-09-01T01:13:41Z</time>
  <course>209.67</course>
  <speed>0.91</speed>
  <fix>3d</fix>
</trkpt>
<trkpt lat="33.8101993" lon="-118.3939451">
  <ele>-32.277</ele>
  <time>2026-09-01T01:13:41Z</time>
  <course>210.84</course>
  <speed>0.8832326986700617</speed>
  <fix>3d</fix>
</trkpt>
<trkpt lat="33.8102006" lon="-118.393944">
  <ele>-31.59</ele>
  <time>2026-09-01T01:13:41Z</time>
  <course>209.67</course>
  <speed>0.91</speed>
  <fix>3d</fix>
</trkpt>
<trkpt lat="33.8101986" lon="-118.3939456">
  <ele>-32.249</ele>
  <time>2026-09-01T01:13:41Z</time>
  <course>210.83</course>
  <speed>0.8832326986700617</speed>
  <fix>3d</fix>
</trkpt>
<trkpt lat="33.8101993" lon="-118.393945">
  <ele>-31.54</ele>
  <time>2026-09-01T01:13:41Z</time>
  <course>209.66</course>
  <speed>0.91</speed>
  <fix>3d</fix>
</trkpt>
<trkpt lat="33.8101979" lon="-118.393946">
  <ele>-32.218</ele>
  <time>2026-09-01T01:13:41Z</time>
  <course>210.81</course>
  <speed>0.8832326986700617</speed>
  <fix>3d</fix>
</trkpt>
<trkpt lat="33.8101993" lon="-118.393945">
  <ele>-31.54</ele>
  <time>2026-09-01T01:13:41Z</time>
  <course>209.66</course>
  <speed>0.91</speed>
  <fix>3d</fix>
</trkpt>
<trkpt lat="33.8101972" lon="-118.3939465">
  <ele>-32.187</ele>
  <time>2026-09-01T01:13:41Z</time>
  <course>210.79</course>
  <speed>0.8918520056601319</speed>
  <fix>3d</fix>
</trkpt>
<trkpt lat="33.8101978" lon="-118.393946">
  <ele>-31.48</ele>
  <time>2026-09-01T01:13:41Z</time>
  <course>209.61</course>
  <speed>0.91</speed>
  <fix>3d</fix>
</trkpt>
<trkpt lat="33.8101965" lon="-118.393947">
  <ele>-32.154</ele>
  <time>2026-09-01T01:13:41Z</time>
  <course>210.75</course>
  <speed>0.8918520056601319</speed>
  <fix>3d</fix>
</trkpt>
<trkpt lat="33.8101978" lon="-118.393946">
  <ele>-31.48</ele>
  <time>2026-09-01T01:13:41Z</time>
  <course>209.61</course>
  <speed>0.91</speed>
  <fix>3d</fix>
</trkpt>
<trkpt lat="33.8101958" lon="-118.3939475">
  <ele>-32.119</ele>
  <time>2026-09-01T01:13:41Z</time>
  <course>210.72</course>
  <speed>0.8918520056601319</speed>
  <fix>3d</fix>
</trkpt>
<trkpt lat="33.8101963" lon="-118.3939469">
  <ele>-31.41</ele>
  <time>2026-09-01T01:13:41Z</time>
  <course>209.54</course>
  <speed>0.91</speed>
  <fix>3d</fix>
</trkpt>
<trkpt lat="33.8101951" lon="-118.393948">
  <ele>-32.083</ele>
  <time>2026-09-01T01:13:42Z</time>
  <course>210.69</course>
  <speed>0.8026207074328446</speed>
  <fix>3d</fix>
</trkpt>
<trkpt lat="33.8101963" lon="-118.3939469">
  <ele>-31.41</ele>
  <time>2026-09-01T01:13:42Z</time>
  <course>209.54</course>
  <speed>0.91</speed>
  <fix>3d</fix>
</trkpt>
<trkpt lat="33.8101944" lon="-118.3939485">
  <ele>-32.049</ele>
  <time>2026-09-01T01:13:42Z</time>
  <course>210.72</course>
  <speed>0.8386298349093002</speed>
  <fix>3d</fix>
</trkpt>
<trkpt lat="33.810195" lon="-118.3939479">
  <ele>-31.34</ele>
  <time>2026-09-01T01:13:42Z</time>
  <course>209.55</course>
  <speed>0.88</speed>
  <fix>3d</fix>
</trkpt>
<trkpt lat="33.8101937" lon="-118.3939489">
  <ele>-32.014</ele>
  <time>2026-09-01T01:13:42Z</time>
  <course>210.76</course>
  <speed>0.8472307831990054</speed>
  <fix>3d</fix>
</trkpt>
<trkpt lat="33.810195" lon="-118.3939479">
  <ele>-31.34</ele>
  <time>2026-09-01T01:13:42Z</time>
  <course>209.55</course>
  <speed>0.88</speed>
  <fix>3d</fix>
</trkpt>
<trkpt lat="33.810193" lon="-118.3939494">
  <ele>-31.979</ele>
  <time>2026-09-01T01:13:42Z</time>
  <course>210.78</course>
  <speed>0.8523496934944014</speed>
  <fix>3d</fix>
</trkpt>
<trkpt lat="33.8101936" lon="-118.3939488">
  <ele>-31.27</ele>
  <time>2026-09-01T01:13:42Z</time>
  <course>209.6</course>
  <speed>0.86</speed>
  <fix>3d</fix>
</trkpt>
<trkpt lat="33.8101923" lon="-118.3939499">
  <ele>-31.945</ele>
  <time>2026-09-01T01:13:42Z</time>
  <course>210.77</course>
  <speed>0.8609297300012354</speed>
  <fix>3d</fix>
</trkpt>
<trkpt lat="33.8101936" lon="-118.3939488">
  <ele>-31.27</ele>
  <time>2026-09-01T01:13:42Z</time>
  <course>209.6</course>
  <speed>0.86</speed>
  <fix>3d</fix>
</trkpt>
<trkpt lat="33.8101916" lon="-118.3939504">
  <ele>-31.911</ele>
  <time>2026-09-01T01:13:42Z</time>
  <course>210.76</course>
  <speed>0.8695401083331349</speed>
  <fix>3d</fix>
</trkpt>
<trkpt lat="33.8101922" lon="-118.3939497">
  <ele>-31.21</ele>
  <time>2026-09-01T01:13:42Z</time>
  <course>209.57</course>
  <speed>0.88</speed>
  <fix>3d</fix>
</trkpt>
<trkpt lat="33.8101909" lon="-118.3939508">
  <ele>-31.876</ele>
  <time>2026-09-01T01:13:42Z</time>
  <course>210.75</course>
  <speed>0.8746427842267951</speed>
  <fix>3d</fix>
</trkpt>
<trkpt lat="33.8101922" lon="-118.3939497">
  <ele>-31.21</ele>
  <time>2026-09-01T01:13:42Z</time>
  <course>209.57</course>
  <speed>0.88</speed>
  <fix>3d</fix>
</trkpt>
<trkpt lat="33.8101902" lon="-118.3939513">
  <ele>-31.841</ele>
  <time>2026-09-01T01:13:42Z</time>
  <course>210.75</course>
  <speed>0.8832326986700617</speed>
  <fix>3d</fix>
</trkpt>
<trkpt lat="33.8101908" lon="-118.3939507">
  <ele>-31.14</ele>
  <time>2026-09-01T01:13:42Z</time>
  <course>209.59</course>
  <speed>0.89</speed>
  <fix>3d</fix>
</trkpt>
<trkpt lat="33.8101895" lon="-118.3939518">
  <ele>-31.806</ele>
  <time>2026-09-01T01:13:42Z</time>
  <course>210.77</course>
  <speed>0.8832326986700617</speed>
  <fix>3d</fix>
</trkpt>
<trkpt lat="33.8101908" lon="-118.3939507">
  <ele>-31.14</ele>
  <time>2026-09-01T01:13:42Z</time>
  <course>209.59</course>
  <speed>0.89</speed>
  <fix>3d</fix>
</trkpt>
<trkpt lat="33.8101888" lon="-118.3939523">
  <ele>-31.772</ele>
  <time>2026-09-01T01:13:42Z</time>
  <course>210.79</course>
  <speed>0.8918520056601319</speed>
  <fix>3d</fix>
</trkpt>
<trkpt lat="33.8101894" lon="-118.3939517">
  <ele>-31.08</ele>
  <time>2026-09-01T01:13:42Z</time>
  <course>209.64</course>
  <speed>0.91</speed>
  <fix>3d</fix>
</trkpt>
<trkpt lat="33.8101881" lon="-118.3939528">
  <ele>-31.738</ele>
  <time>2026-09-01T01:13:42Z</time>
  <course>210.8</course>
  <speed>0.8026207074328446</speed>
  <fix>3d</fix>
</trkpt>
<trkpt lat="33.8101894" lon="-118.3939517">
  <ele>-31.08</ele>
  <time>2026-09-01T01:13:42Z</time>
  <course>209.64</course>
  <speed>0.91</speed>
  <fix>3d</fix>
</trkpt>
<trkpt lat="33.8101874" lon="-118.3939532">
  <ele>-31.706</ele>
  <time>2026-09-01T01:13:42Z</time>
  <course>210.85</course>
  <speed>0.8386298349093002</speed>
  <fix>3d</fix>
</trkpt>
<trkpt lat="33.810188" lon="-118.3939526">
  <ele>-31.01</ele>
  <time>2026-09-01T01:13:42Z</time>
  <course>209.68</course>
  <speed>0.88</speed>
  <fix>3d</fix>
</trkpt>
<trkpt lat="33.8101867" lon="-118.3939537">
  <ele>-31.672</ele>
  <time>2026-09-01T01:13:42Z</time>
  <course>210.88</course>
  <speed>0.8472307831990054</speed>
  <fix>3d</fix>
</trkpt>
<trkpt lat="33.810188" lon="-118.3939526">
  <ele>-31.01</ele>
  <time>2026-09-01T01:13:42Z</time>
  <course>209.68</course>
  <speed>0.88</speed>
  <fix>3d</fix>
</trkpt>
<trkpt lat="33.810186" lon="-118.3939542">
  <ele>-31.639</ele>
  <time>2026-09-01T01:13:42Z</time>
  <course>210.89</course>
  <speed>0.8609297300012354</speed>
  <fix>3d</fix>
</trkpt>
<trkpt lat="33.8101867" lon="-118.3939536">
  <ele>-30.95</ele>
  <time>2026-09-01T01:13:42Z</time>
  <course>209.7</course>
  <speed>0.86</speed>
  <fix>3d</fix>
</trkpt>
<trkpt lat="33.8101854" lon="-118.3939546">
  <ele>-31.605</ele>
  <time>2026-09-01T01:13:42Z</time>
  <course>210.87</course>
  <speed>0.8695401083331349</speed>
  <fix>3d</fix>
</trkpt>
<trkpt lat="33.8101867" lon="-118.3939536">
  <ele>-30.95</ele>
  <time>2026-09-01T01:13:42Z</time>
  <course>209.7</course>
  <speed>0.86</speed>
  <fix>3d</fix>
</trkpt>
<trkpt lat="33.8101847" lon="-118.3939551">
  <ele>-31.573</ele>
  <time>2026-09-01T01:13:42Z</time>
  <course>210.84</course>
  <speed>0.8746427842267951</speed>
  <fix>3d</fix>
</trkpt>
<trkpt lat="33.8101853" lon="-118.3939545">
  <ele>-30.88</ele>
  <time>2026-09-01T01:13:42Z</time>
  <course>209.63</course>
  <speed>0.88</speed>
  <fix>3d</fix>
</trkpt>
<trkpt lat="33.8101839" lon="-118.3939556">
  <ele>-31.542</ele>
  <time>2026-09-01T01:13:42Z</time>
  <course>210.79</course>
  <speed>0.8832326986700617</speed>
  <fix>3d</fix>
</trkpt>
<trkpt lat="33.8101853" lon="-118.3939545">
  <ele>-30.88</ele>
  <time>2026-09-01T01:13:42Z</time>
  <course>209.63</course>
  <speed>0.88</speed>
  <fix>3d</fix>
</trkpt>
<trkpt lat="33.8101832" lon="-118.3939561">
  <ele>-31.509</ele>
  <time>2026-09-01T01:13:42Z</time>
  <course>210.75</course>
  <speed>0.8918520056601319</speed>
  <fix>3d</fix>
</trkpt>
<trkpt lat="33.8101839" lon="-118.3939555">
  <ele>-30.82</ele>
  <time>2026-09-01T01:13:42Z</time>
  <course>209.56</course>
  <speed>0.9</speed>
  <fix>3d</fix>
</trkpt>
<trkpt lat="33.8101825" lon="-118.3939566">
  <ele>-31.475</ele>
  <time>2026-09-01T01:13:42Z</time>
  <course>210.72</course>
  <speed>0.8969392398596462</speed>
  <fix>3d</fix>
</trkpt>
<trkpt lat="33.8101839" lon="-118.3939555">
  <ele>-30.82</ele>
  <time>2026-09-01T01:13:42Z</time>
  <course>209.56</course>
  <speed>0.9</speed>
  <fix>3d</fix>
</trkpt>
<trkpt lat="33.8101818" lon="-118.3939571">
  <ele>-31.442</ele>
  <time>2026-09-01T01:13:42Z</time>
  <course>210.7</course>
  <speed>0.8969392398596462</speed>
  <fix>3d</fix>
</trkpt>
<trkpt lat="33.8101824" lon="-118.3939565">
  <ele>-30.75</ele>
  <time>2026-09-01T01:13:42Z</time>
  <course>209.52</course>
  <speed>0.91</speed>
  <fix>3d</fix>
</trkpt>
<trkpt lat="33.8101811" lon="-118.3939576">
  <ele>-31.409</ele>
  <time>2026-09-01T01:13:42Z</time>
  <course>210.66</course>
  <speed>0.9055385138137417</speed>
  <fix>3d</fix>
</trkpt>
<trkpt lat="33.8101824" lon="-118.3939565">
  <ele>-30.75</ele>
  <time>2026-09-01T01:13:42Z</time>
  <course>209.52</course>
  <speed>0.91</speed>
  <fix>3d</fix>
</trkpt>
<trkpt lat="33.8101803" lon="-118.3939581">
  <ele>-31.377</ele>
  <time>2026-09-01T01:13:42Z</time>
  <course>210.65</course>
  <speed>0.9055385138137417</speed>
  <fix>3d</fix>
</trkpt>
<trkpt lat="33.810181" lon="-118.3939574">
  <ele>-30.68</ele>
  <time>2026-09-01T01:13:42Z</time>
  <course>209.5</course>
  <speed>0.92</speed>
  <fix>3d</fix>
</trkpt>
<trkpt lat="33.8101796" lon="-118.3939586">
  <ele>-31.345</ele>
  <time>2026-09-01T01:13:42Z</time>
  <course>210.64</course>
  <speed>0.8832326986700617</speed>
  <fix>3d</fix>
</trkpt>
<trkpt lat="33.810181" lon="-118.3939574">
  <ele>-30.68</ele>
  <time>2026-09-01T01:13:42Z</time>
  <course>209.5</course>
  <speed>0.92</speed>
  <fix>3d</fix>
</trkpt>
<trkpt lat="33.8101789" lon="-118.393959">
  <ele>-31.316</ele>
  <time>2026-09-01T01:13:42Z</time>
  <course>210.66</course>
  <speed>0.8386298349093002</speed>
  <fix>3d</fix>
</trkpt>
<trkpt lat="33.8101796" lon="-118.3939584">
  <ele>-30.63</ele>
  <time>2026-09-01T01:13:42Z</time>
  <course>209.56</course>
  <speed>0.89</speed>
  <fix>3d</fix>
</trkpt>
<trkpt lat="33.8101783" lon="-118.3939595">
  <ele>-31.287</ele>
  <time>2026-09-01T01:13:42Z</time>
  <course>210.72</course>
  <speed>0.8609297300012354</speed>
  <fix>3d</fix>
</trkpt>
<trkpt lat="33.8101796" lon="-118.3939584">
  <ele>-30.63</ele>
  <time>2026-09-01T01:13:42Z</time>
  <course>209.56</course>
  <speed>0.89</speed>
  <fix>3d</fix>
</trkpt>
<trkpt lat="33.8101776" lon="-118.39396">
  <ele>-31.259</ele>
  <time>2026-09-01T01:13:42Z</time>
  <course>210.75</course>
  <speed>0.8695401083331349</speed>
  <fix>3d</fix>
</trkpt>
<trkpt lat="33.8101781" lon="-118.3939594">
  <ele>-30.57</ele>
  <time>2026-09-01T01:13:42Z</time>
  <course>209.61</course>
  <speed>0.87</speed>
  <fix>3d</fix>
</trkpt>
<trkpt lat="33.8101769" lon="-118.3939605">
  <ele>-31.231</ele>
  <time>2026-09-01T01:13:42Z</time>
  <course>210.75</course>
  <speed>0.8832326986700617</speed>
  <fix>3d</fix>
</trkpt>
<trkpt lat="33.8101781" lon="-118.3939594">
  <ele>-30.57</ele>
  <time>2026-09-01T01:13:42Z</time>
  <course>209.61</course>
  <speed>0.87</speed>
  <fix>3d</fix>
</trkpt>
<trkpt lat="33.8101761" lon="-118.3939609">
  <ele>-31.2</ele>
  <time>2026-09-01T01:13:42Z</time>
  <course>210.75</course>
  <speed>0.8832326986700617</speed>
  <fix>3d</fix>
</trkpt>
<trkpt lat="33.8101768" lon="-118.3939603">
  <ele>-30.52</ele>
  <time>2026-09-01T01:13:42Z</time>
  <course>209.6</course>
  <speed>0.9</speed>
  <fix>3d</fix>
</trkpt>
<trkpt lat="33.8101754" lon="-118.3939614">
  <ele>-31.165</ele>
  <time>2026-09-01T01:13:42Z</time>
  <course>210.74</course>
  <speed>0.8969392398596462</speed>
  <fix>3d</fix>
</trkpt>
<trkpt lat="33.8101768" lon="-118.3939603">
  <ele>-30.52</ele>
  <time>2026-09-01T01:13:42Z</time>
  <course>209.6</course>
  <speed>0.9</speed>
  <fix>3d</fix>
</trkpt>
<trkpt lat="33.8101747" lon="-118.3939619">
  <ele>-31.129</ele>
  <time>2026-09-01T01:13:42Z</time>
  <course>210.73</course>
  <speed>0.8969392398596462</speed>
  <fix>3d</fix>
</trkpt>
<trkpt lat="33.8101754" lon="-118.3939613">
  <ele>-30.46</ele>
  <time>2026-09-01T01:13:42Z</time>
  <course>209.59</course>
  <speed>0.91</speed>
  <fix>3d</fix>
</trkpt>
<trkpt lat="33.810174" lon="-118.3939624">
  <ele>-31.092</ele>
  <time>2026-09-01T01:13:42Z</time>
  <course>210.73</course>
  <speed>0.9055385138137417</speed>
  <fix>3d</fix>
</trkpt>
<trkpt lat="33.8101754" lon="-118.3939613">
  <ele>-30.46</ele>
  <time>2026-09-01T01:13:42Z</time>
  <course>209.59</course>
  <speed>0.91</speed>
  <fix>3d</fix>
</trkpt>
<trkpt lat="33.8101733" lon="-118.3939629">
  <ele>-31.056</ele>
  <time>2026-09-01T01:13:42Z</time>
  <course>210.72</course>
  <speed>0.9055385138137417</speed>
  <fix>3d</fix>
</trkpt>
<trkpt lat="33.8101739" lon="-118.3939623">
  <ele>-30.39</ele>
  <time>2026-09-01T01:13:42Z</time>
  <course>209.58</course>
  <speed>0.93</speed>
  <fix>3d</fix>
</trkpt>
<trkpt lat="33.8101725" lon="-118.3939634">
  <ele>-31.02</ele>
  <time>2026-09-01T01:13:42Z</time>
  <course>210.69</course>
  <speed>0.9055385138137417</speed>
  <fix>3d</fix>
</trkpt>
<trkpt lat="33.8101739" lon="-118.3939623">
  <ele>-30.39</ele>
  <time>2026-09-01T01:13:42Z</time>
  <course>209.58</course>
  <speed>0.93</speed>
  <fix>3d</fix>
</trkpt>
<trkpt lat="33.8101718" lon="-118.3939639">
  <ele>-30.985</ele>
  <time>2026-09-01T01:13:42Z</time>
  <course>210.69</course>
  <speed>0.9192388155425119</speed>
  <fix>3d</fix>
</trkpt>
<trkpt lat="33.8101724" lon="-118.3939633">
  <ele>-30.31</ele>
  <time>2026-09-01T01:13:42Z</time>
  <course>209.55</course>
  <speed>0.93</speed>
  <fix>3d</fix>
</trkpt>
<trkpt lat="33.810171" lon="-118.3939644">
  <ele>-30.951</ele>
  <time>2026-09-01T01:13:42Z</time>
  <course>210.67</course>
  <speed>0.9192388155425119</speed>
  <fix>3d</fix>
</trkpt>
<trkpt lat="33.8101724" lon="-118.3939633">
  <ele>-30.31</ele>
  <time>2026-09-01T01:13:42Z</time>
  <course>209.55</course>
  <speed>0.93</speed>
  <fix>3d</fix>
</trkpt>
<trkpt lat="33.8101703" lon="-118.3939649">
  <ele>-30.918</ele>
  <time>2026-09-01T01:13:42Z</time>
  <course>210.67</course>
  <speed>0.9192388155425119</speed>
  <fix>3d</fix>
</trkpt>
<trkpt lat="33.8101709" lon="-118.3939643">
  <ele>-30.25</ele>
  <time>2026-09-01T01:13:42Z</time>
  <course>209.55</course>
  <speed>0.94</speed>
  <fix>3d</fix>
</trkpt>
<trkpt lat="33.8101696" lon="-118.3939654">
  <ele>-30.886</ele>
  <time>2026-09-01T01:13:42Z</time>
  <course>210.67</course>
  <speed>0.9192388155425119</speed>
  <fix>3d</fix>
</trkpt>
<trkpt lat="33.8101709" lon="-118.3939643">
  <ele>-30.25</ele>
  <time>2026-09-01T01:13:42Z</time>
  <course>209.55</course>
  <speed>0.94</speed>
  <fix>3d</fix>
</trkpt>
<trkpt lat="33.8101688" lon="-118.393966">
  <ele>-30.853</ele>
  <time>2026-09-01T01:13:42Z</time>
  <course>210.69</course>
  <speed>0.9192388155425119</speed>
  <fix>3d</fix>
</trkpt>
<trkpt lat="33.8101695" lon="-118.3939653">
  <ele>-30.18</ele>
  <time>2026-09-01T01:13:42Z</time>
  <course>209.58</course>
  <speed>0.94</speed>
  <fix>3d</fix>
</trkpt>
<trkpt lat="33.8101681" lon="-118.3939665">
  <ele>-30.82</ele>
  <time>2026-09-01T01:13:42Z</time>
  <course>210.71</course>
  <speed>0.9192388155425119</speed>
  <fix>3d</fix>
</trkpt>
<trkpt lat="33.8101695" lon="-118.3939653">
  <ele>-30.18</ele>
  <time>2026-09-01T01:13:42Z</time>
  <course>209.58</course>
  <speed>0.94</speed>
  <fix>3d</fix>
</trkpt>
<trkpt lat="33.8101673" lon="-118.393967">
  <ele>-30.789</ele>
  <time>2026-09-01T01:13:42Z</time>
  <course>210.72</course>
  <speed>0.8300602387778854</speed>
  <fix>3d</fix>
</trkpt>
<trkpt lat="33.810168" lon="-118.3939663">
  <ele>-30.11</ele>
  <time>2026-09-01T01:13:42Z</time>
  <course>209.62</course>
  <speed>0.94</speed>
  <fix>3d</fix>
</trkpt>
<trkpt lat="33.8101667" lon="-118.3939674">
  <ele>-30.761</ele>
  <time>2026-09-01T01:13:42Z</time>
  <course>210.76</course>
  <speed>0.8609297300012354</speed>
  <fix>3d</fix>
</trkpt>
<trkpt lat="33.810168" lon="-118.3939663">
  <ele>-30.11</ele>
  <time>2026-09-01T01:13:42Z</time>
  <course>209.62</course>
  <speed>0.94</speed>
  <fix>3d</fix>
</trkpt>
<trkpt lat="33.810166" lon="-118.3939679">
  <ele>-30.731</ele>
  <time>2026-09-01T01:13:42Z</time>
  <course>210.81</course>
  <speed>0.8746427842267951</speed>
  <fix>3d</fix>
</trkpt>
<trkpt lat="33.8101666" lon="-118.3939673">
  <ele>-30.06</ele>
  <time>2026-09-01T01:13:42Z</time>
  <course>209.66</course>
  <speed>0.91</speed>
  <fix>3d</fix>
</trkpt>
<trkpt lat="33.8101652" lon="-118.3939684">
  <ele>-30.698</ele>
  <time>2026-09-01T01:13:42Z</time>
  <course>210.82</course>
  <speed>0.8832326986700617</speed>
  <fix>3d</fix>
</trkpt>
<trkpt lat="33.8101666" lon="-118.3939673">
  <ele>-30.06</ele>
  <time>2026-09-01T01:13:42Z</time>
  <course>209.66</course>
  <speed>0.91</speed>
  <fix>3d</fix>
</trkpt>
<trkpt lat="33.8101645" lon="-118.3939689">
  <ele>-30.663</ele>
  <time>2026-09-01T01:13:42Z</time>
  <course>210.81</course>
  <speed>0.8918520056601319</speed>
  <fix>3d</fix>
</trkpt>
<trkpt lat="33.8101652" lon="-118.3939683">
  <ele>-30.0</ele>
  <time>2026-09-01T01:13:42Z</time>
  <course>209.66</course>
  <speed>0.9</speed>
  <fix>3d</fix>
</trkpt>
<trkpt lat="33.8101638" lon="-118.3939694">
  <ele>-30.63</ele>
  <time>2026-09-01T01:13:42Z</time>
  <course>210.78</course>
  <speed>0.8969392398596462</speed>
  <fix>3d</fix>
</trkpt>
<trkpt lat="33.8101652" lon="-118.3939683">
  <ele>-30.0</ele>
  <time>2026-09-01T01:13:42Z</time>
  <course>209.66</course>
  <speed>0.9</speed>
  <fix>3d</fix>
</trkpt>
<trkpt lat="33.8101631" lon="-118.3939699">
  <ele>-30.596</ele>
  <time>2026-09-01T01:13:42Z</time>
  <course>210.74</course>
  <speed>0.9055385138137417</speed>
  <fix>3d</fix>
</trkpt>
<trkpt lat="33.8101638" lon="-118.3939692">
  <ele>-29.93</ele>
  <time>2026-09-01T01:13:42Z</time>
  <course>209.6</course>
  <speed>0.92</speed>
  <fix>3d</fix>
</trkpt>
<trkpt lat="33.8101624" lon="-118.3939704">
  <ele>-30.563</ele>
  <time>2026-09-01T01:13:42Z</time>
  <course>210.71</course>
  <speed>0.9055385138137417</speed>
  <fix>3d</fix>
</trkpt>
<trkpt lat="33.8101638" lon="-118.3939692">
  <ele>-29.93</ele>
  <time>2026-09-01T01:13:42Z</time>
  <course>209.6</course>
  <speed>0.92</speed>
  <fix>3d</fix>
</trkpt>
<trkpt lat="33.8101616" lon="-118.3939709">
  <ele>-30.531</ele>
  <time>2026-09-01T01:13:42Z</time>
  <course>210.68</course>
  <speed>0.914166286842826</speed>
  <fix>3d</fix>
</trkpt>
<trkpt lat="33.8101623" lon="-118.3939702">
  <ele>-29.86</ele>
  <time>2026-09-01T01:13:42Z</time>
  <course>209.55</course>
  <speed>0.93</speed>
  <fix>3d</fix>
</trkpt>
<trkpt lat="33.8101609" lon="-118.3939714">
  <ele>-30.499</ele>
  <time>2026-09-01T01:13:42Z</time>
  <course>210.66</course>
  <speed>0.9192388155425119</speed>
  <fix>3d</fix>
</trkpt>
<trkpt lat="33.8101623" lon="-118.3939702">
  <ele>-29.86</ele>
  <time>2026-09-01T01:13:42Z</time>
  <course>209.55</course>
  <speed>0.93</speed>
  <fix>3d</fix>
</trkpt>
<trkpt lat="33.8101601" lon="-118.3939719">
  <ele>-30.468</ele>
  <time>2026-09-01T01:13:42Z</time>
  <course>210.67</course>
  <speed>0.9192388155425119</speed>
  <fix>3d</fix>
</trkpt>
<trkpt lat="33.8101608" lon="-118.3939712">
  <ele>-29.8</ele>
  <time>2026-09-01T01:13:42Z</time>
  <course>209.56</course>
  <speed>0.94</speed>
  <fix>3d</fix>
</trkpt>
<trkpt lat="33.8101594" lon="-118.3939724">
  <ele>-30.436</ele>
  <time>2026-09-01T01:13:42Z</time>
  <course>210.67</course>
  <speed>0.9192388155425119</speed>
  <fix>3d</fix>
</trkpt>
<trkpt lat="33.8101608" lon="-118.3939712">
  <ele>-29.8</ele>
  <time>2026-09-01T01:13:42Z</time>
  <course>209.56</course>
  <speed>0.94</speed>
  <fix>3d</fix>
</trkpt>
<trkpt lat="33.8101587" lon="-118.3939729">
  <ele>-30.403</ele>
  <time>2026-09-01T01:13:42Z</time>
  <course>210.69</course>
  <speed>0.9278469701410895</speed>
  <fix>3d</fix>
</trkpt>
<trkpt lat="33.8101593" lon="-118.3939722">
  <ele>-29.74</ele>
  <time>2026-09-01T01:13:42Z</time>
  <course>209.6</course>
  <speed>0.94</speed>
  <fix>3d</fix>
</trkpt>
<trkpt lat="33.8101579" lon="-118.3939734">
  <ele>-30.37</ele>
  <time>2026-09-01T01:13:42Z</time>
  <course>210.71</course>
  <speed>0.9278469701410895</speed>
  <fix>3d</fix>
</trkpt>
<trkpt lat="33.8101593" lon="-118.3939722">
  <ele>-29.74</ele>
  <time>2026-09-01T01:13:42Z</time>
  <course>209.6</course>
  <speed>0.94</speed>
  <fix>3d</fix>
</trkpt>
<trkpt lat="33.8101572" lon="-118.3939739">
  <ele>-30.338</ele>
  <time>2026-09-01T01:13:42Z</time>
  <course>210.74</course>
  <speed>0.9278469701410895</speed>
  <fix>3d</fix>
</trkpt>
<trkpt lat="33.8101579" lon="-118.3939733">
  <ele>-29.67</ele>
  <time>2026-09-01T01:13:42Z</time>
  <course>209.65</course>
  <speed>0.95</speed>
  <fix>3d</fix>
</trkpt>
<trkpt lat="33.8101564" lon="-118.3939744">
  <ele>-30.304</ele>
  <time>2026-09-01T01:13:42Z</time>
  <course>210.75</course>
  <speed>0.9278469701410895</speed>
  <fix>3d</fix>
</trkpt>
<trkpt lat="33.8101579" lon="-118.3939733">
  <ele>-29.67</ele>
  <time>2026-09-01T01:13:42Z</time>
  <course>209.65</course>
  <speed>0.95</speed>
  <fix>3d</fix>
</trkpt>
<trkpt lat="33.8101557" lon="-118.3939749">
  <ele>-30.267</ele>
  <time>2026-09-01T01:13:42Z</time>
  <course>210.75</course>
  <speed>0.9278469701410895</speed>
  <fix>3d</fix>
</trkpt>
<trkpt lat="33.8101564" lon="-118.3939743">
  <ele>-29.61</ele>
  <time>2026-09-01T01:13:42Z</time>
  <course>209.67</course>
  <speed>0.95</speed>
  <fix>3d</fix>
</trkpt>
<trkpt lat="33.8101549" lon="-118.3939755">
  <ele>-30.229</ele>
  <time>2026-09-01T01:13:42Z</time>
  <course>210.74</course>
  <speed>0.9329523031752481</speed>
  <fix>3d</fix>
</trkpt>
<trkpt lat="33.8101564" lon="-118.3939743">
  <ele>-29.61</ele>
  <time>2026-09-01T01:13:42Z</time>
  <course>209.67</course>
  <speed>0.95</speed>
  <fix>3d</fix>
</trkpt>
<trkpt lat="33.8101542" lon="-118.393976">
  <ele>-30.191</ele>
  <time>2026-09-01T01:13:42Z</time>
  <course>210.71</course>
  <speed>0.9278469701410895</speed>
  <fix>3d</fix>
</trkpt>
<trkpt lat="33.8101549" lon="-118.3939753">
  <ele>-29.54</ele>
  <time>2026-09-01T01:13:42Z</time>
  <course>209.61</course>
  <speed>0.96</speed>
  <fix>3d</fix>
</trkpt>
<trkpt lat="33.8101534" lon="-118.3939765">
  <ele>-30.155</ele>
  <time>2026-09-01T01:13:42Z</time>
  <course>210.68</course>
  <speed>0.9329523031752481</speed>
  <fix>3d</fix>
</trkpt>
<trkpt lat="33.8101549" lon="-118.3939753">
  <ele>-29.54</ele>
  <time>2026-09-01T01:13:42Z</time>
  <course>209.61</course>
  <speed>0.96</speed>
  <fix>3d</fix>
</trkpt>
<trkpt lat="33.8101527" lon="-118.393977">
  <ele>-30.117</ele>
  <time>2026-09-01T01:13:42Z</time>
  <course>210.66</course>
  <speed>0.9415412895885129</speed>
  <fix>3d</fix>
</trkpt>
<trkpt lat="33.8101534" lon="-118.3939763">
  <ele>-29.46</ele>
  <time>2026-09-01T01:13:42Z</time>
  <course>209.56</course>
  <speed>0.96</speed>
  <fix>3d</fix>
</trkpt>
<trkpt lat="33.8101519" lon="-118.3939775">
  <ele>-30.08</ele>
  <time>2026-09-01T01:13:42Z</time>
  <course>210.65</course>
  <speed>0.9415412895885129</speed>
  <fix>3d</fix>
</trkpt>
<trkpt lat="33.8101534" lon="-118.3939763">
  <ele>-29.46</ele>
  <time>2026-09-01T01:13:42Z</time>
  <course>209.56</course>
  <speed>0.96</speed>
  <fix>3d</fix>
</trkpt>
<trkpt lat="33.8101512" lon="-118.393978">
  <ele>-30.042</ele>
  <time>2026-09-01T01:13:42Z</time>
  <course>210.64</course>
  <speed>0.9415412895885129</speed>
  <fix>3d</fix>
</trkpt>
<trkpt lat="33.8101519" lon="-118.3939774">
  <ele>-29.39</ele>
  <time>2026-09-01T01:13:42Z</time>
  <course>209.56</course>
  <speed>0.96</speed>
  <fix>3d</fix>
</trkpt>
<trkpt lat="33.8101504" lon="-118.3939786">
  <ele>-30.004</ele>
  <time>2026-09-01T01:13:42Z</time>
  <course>210.64</course>
  <speed>0.9415412895885129</speed>
  <fix>3d</fix>
</trkpt>
<trkpt lat="33.8101519" lon="-118.3939774">
  <ele>-29.39</ele>
  <time>2026-09-01T01:13:42Z</time>
  <course>209.56</course>
  <speed>0.96</speed>
  <fix>3d</fix>
</trkpt>
<trkpt lat="33.8101496" lon="-118.3939791">
  <ele>-29.969</ele>
  <time>2026-09-01T01:13:42Z</time>
  <course>210.62</course>
  <speed>0.9415412895885129</speed>
  <fix>3d</fix>
</trkpt>
<trkpt lat="33.8101504" lon="-118.3939784">
  <ele>-29.32</ele>
  <time>2026-09-01T01:13:42Z</time>
  <course>209.56</course>
  <speed>0.96</speed>
  <fix>3d</fix>
</trkpt>
<trkpt lat="33.8101489" lon="-118.3939796">
  <ele>-29.936</ele>
  <time>2026-09-01T01:13:42Z</time>
  <course>210.61</course>
  <speed>0.9415412895885129</speed>
  <fix>3d</fix>
</trkpt>
<trkpt lat="33.8101504" lon="-118.3939784">
  <ele>-29.32</ele>
  <time>2026-09-01T01:13:42Z</time>
  <course>209.56</course>
  <speed>0.96</speed>
  <fix>3d</fix>
</trkpt>
<trkpt lat="33.8101481" lon="-118.3939801">
  <ele>-29.905</ele>
  <time>2026-09-01T01:13:42Z</time>
  <course>210.59</course>
  <speed>0.9415412895885129</speed>
  <fix>3d</fix>
</trkpt>
<trkpt lat="33.8101488" lon="-118.3939794">
  <ele>-29.26</ele>
  <time>2026-09-01T01:13:42Z</time>
  <course>209.52</course>
  <speed>0.96</speed>
  <fix>3d</fix>
</trkpt>
<trkpt lat="33.8101474" lon="-118.3939806">
  <ele>-29.875</ele>
  <time>2026-09-01T01:13:42Z</time>
  <course>210.59</course>
  <speed>0.9415412895885129</speed>
  <fix>3d</fix>
</trkpt>
<trkpt lat="33.8101488" lon="-118.3939794">
  <ele>-29.26</ele>
  <time>2026-09-01T01:13:42Z</time>
  <course>209.52</course>
  <speed>0.96</speed>
  <fix>3d</fix>
</trkpt>
<trkpt lat="33.8101466" lon="-118.3939811">
  <ele>-29.85</ele>
  <time>2026-09-01T01:13:42Z</time>
  <course>210.6</course>
  <speed>0.9415412895885129</speed>
  <fix>3d</fix>
</trkpt>
<trkpt lat="33.8101473" lon="-118.3939804">
  <ele>-29.2</ele>
  <time>2026-09-01T01:13:42Z</time>
  <course>209.56</course>
  <speed>0.96</speed>
  <fix>3d</fix>
</trkpt>
<trkpt lat="33.8101459" lon="-118.3939817">
  <ele>-29.828</ele>
  <time>2026-09-01T01:13:42Z</time>
  <course>210.63</course>
  <speed>0.9415412895885129</speed>
  <fix>3d</fix>
</trkpt>
<trkpt lat="33.8101473" lon="-118.3939804">
  <ele>-29.2</ele>
  <time>2026-09-01T01:13:42Z</time>
  <course>209.56</course>
  <speed>0.96</speed>
  <fix>3d</fix>
</trkpt>
<trkpt lat="33.8101451" lon="-118.3939822">
  <ele>-29.809</ele>
  <time>2026-09-01T01:13:42Z</time>
  <course>210.67</course>
  <speed>0.9415412895885129</speed>
  <fix>3d</fix>
</trkpt>
<trkpt lat="33.8101458" lon="-118.3939815">
  <ele>-29.14</ele>
  <time>2026-09-01T01:13:42Z</time>
  <course>209.66</course>
  <speed>0.96</speed>
  <fix>3d</fix>
</trkpt>
<trkpt lat="33.8101443" lon="-118.3939827">
  <ele>-29.789</ele>
  <time>2026-09-01T01:13:42Z</time>
  <course>210.7</course>
  <speed>0.9415412895885129</speed>
  <fix>3d</fix>
</trkpt>
<trkpt lat="33.8101458" lon="-118.3939815">
  <ele>-29.14</ele>
  <time>2026-09-01T01:13:42Z</time>
  <course>209.66</course>
  <speed>0.96</speed>
  <fix>3d</fix>
</trkpt>
<trkpt lat="33.8101436" lon="-118.3939832">
  <ele>-29.765</ele>
  <time>2026-09-01T01:13:42Z</time>
  <course>210.73</course>
  <speed>0.9415412895885129</speed>
  <fix>3d</fix>
</trkpt>
<trkpt lat="33.8101443" lon="-118.3939825">
  <ele>-29.1</ele>
  <time>2026-09-01T01:13:42Z</time>
  <course>209.71</course>
  <speed>0.96</speed>
  <fix>3d</fix>
</trkpt>
<trkpt lat="33.8101428" lon="-118.3939837">
  <ele>-29.74</ele>
  <time>2026-09-01T01:13:42Z</time>
  <course>210.74</course>
  <speed>0.9415412895885129</speed>
  <fix>3d</fix>
</trkpt>
<trkpt lat="33.8101443" lon="-118.3939825">
  <ele>-29.1</ele>
  <time>2026-09-01T01:13:42Z</time>
  <course>209.71</course>
  <speed>0.96</speed>
  <fix>3d</fix>
</trkpt>
<trkpt lat="33.8101421" lon="-118.3939842">
  <ele>-29.712</ele>
  <time>2026-09-01T01:13:42Z</time>
  <course>210.75</course>
  <speed>0.9415412895885129</speed>
  <fix>3d</fix>
</trkpt>
<trkpt lat="33.8101428" lon="-118.3939836">
  <ele>-29.05</ele>
  <time>2026-09-01T01:13:42Z</time>
  <course>209.72</course>
  <speed>0.96</speed>
  <fix>3d</fix>
</trkpt>
<trkpt lat="33.8101413" lon="-118.3939848">
  <ele>-29.682</ele>
  <time>2026-09-01T01:13:42Z</time>
  <course>210.75</course>
  <speed>0.9415412895885129</speed>
  <fix>3d</fix>
</trkpt>
<trkpt lat="33.8101428" lon="-118.3939836">
  <ele>-29.05</ele>
  <time>2026-09-01T01:13:42Z</time>
  <course>209.72</course>
  <speed>0.96</speed>
  <fix>3d</fix>
</trkpt>
<trkpt lat="33.8101405" lon="-118.3939853">
  <ele>-29.649</ele>
  <time>2026-09-01T01:13:42Z</time>
  <course>210.74</course>
  <speed>0.9415412895885129</speed>
  <fix>3d</fix>
</trkpt>
<trkpt lat="33.8101413" lon="-118.3939846">
  <ele>-29.0</ele>
  <time>2026-09-01T01:13:42Z</time>
  <course>209.7</course>
  <speed>0.97</speed>
  <fix>3d</fix>
</trkpt>
<trkpt lat="33.8101398" lon="-118.3939858">
  <ele>-29.612</ele>
  <time>2026-09-01T01:13:42Z</time>
  <course>210.73</course>
  <speed>0.9415412895885129</speed>
  <fix>3d</fix>
</trkpt>
<trkpt lat="33.8101413" lon="-118.3939846">
  <ele>-29.0</ele>
  <time>2026-09-01T01:13:42Z</time>
  <course>209.7</course>
  <speed>0.97</speed>
  <fix>3d</fix>
</trkpt>
<trkpt lat="33.810139" lon="-118.3939863">
  <ele>-29.575</ele>
  <time>2026-09-01T01:13:42Z</time>
  <course>210.71</course>
  <speed>0.9415412895885129</speed>
  <fix>3d</fix>
</trkpt>
<trkpt lat="33.8101398" lon="-118.3939856">
  <ele>-28.93</ele>
  <time>2026-09-01T01:13:42Z</time>
  <course>209.67</course>
  <speed>0.97</speed>
  <fix>3d</fix>
</trkpt>
<trkpt lat="33.8101383" lon="-118.3939868">
  <ele>-29.539</ele>
  <time>2026-09-01T01:13:42Z</time>
  <course>210.69</course>
  <speed>0.9415412895885129</speed>
  <fix>3d</fix>
</trkpt>
<trkpt lat="33.8101398" lon="-118.3939856">
  <ele>-28.93</ele>
  <time>2026-09-01T01:13:42Z</time>
  <course>209.67</course>
  <speed>0.97</speed>
  <fix>3d</fix>
</trkpt>
<trkpt lat="33.8101375" lon="-118.3939874">
  <ele>-29.5</ele>
  <time>2026-09-01T01:13:42Z</time>
  <course>210.67</course>
  <speed>0.9415412895885129</speed>
  <fix>3d</fix>
</trkpt>
<trkpt lat="33.8101382" lon="-118.3939867">
  <ele>-28.86</ele>
  <time>2026-09-01T01:13:42Z</time>
  <course>209.65</course>
  <speed>0.97</speed>
  <fix>3d</fix>
</trkpt>
<trkpt lat="33.8101368" lon="-118.3939879">
  <ele>-29.459</ele>
  <time>2026-09-01T01:13:42Z</time>
  <course>210.66</course>
  <speed>0.9415412895885129</speed>
  <fix>3d</fix>
</trkpt>
<trkpt lat="33.8101382" lon="-118.3939867">
  <ele>-28.86</ele>
  <time>2026-09-01T01:13:42Z</time>
  <course>209.65</course>
  <speed>0.97</speed>
  <fix>3d</fix>
</trkpt>
<trkpt lat="33.810136" lon="-118.3939884">
  <ele>-29.418</ele>
  <time>2026-09-01T01:13:42Z</time>
  <course>210.66</course>
  <speed>0.9415412895885129</speed>
  <fix>3d</fix>
</trkpt>
<trkpt lat="33.8101367" lon="-118.3939877">
  <ele>-28.79</ele>
  <time>2026-09-01T01:13:42Z</time>
  <course>209.66</course>
  <speed>0.97</speed>
  <fix>3d</fix>
</trkpt>
<trkpt lat="33.8101353" lon="-118.3939889">
  <ele>-29.377</ele>
  <time>2026-09-01T01:13:42Z</time>
  <course>210.66</course>
  <speed>0.9415412895885129</speed>
  <fix>3d</fix>
</trkpt>
<trkpt lat="33.8101367" lon="-118.3939877">
  <ele>-28.79</ele>
  <time>2026-09-01T01:13:42Z</time>
  <course>209.66</course>
  <speed>0.97</speed>
  <fix>3d</fix>
</trkpt>
<trkpt lat="33.8101345" lon="-118.3939894">
  <ele>-29.336</ele>
  <time>2026-09-01T01:13:42Z</time>
  <course>210.66</course>
  <speed>0.9501578816175763</speed>
  <fix>3d</fix>
</trkpt>
<trkpt lat="33.8101352" lon="-118.3939888">
  <ele>-28.72</ele>
  <time>2026-09-01T01:13:42Z</time>
  <course>209.69</course>
  <speed>0.97</speed>
  <fix>3d</fix>
</trkpt>
<trkpt lat="33.8101337" lon="-118.3939899">
  <ele>-29.294</ele>
  <time>2026-09-01T01:13:42Z</time>
  <course>210.67</course>
  <speed>0.9501578816175763</speed>
  <fix>3d</fix>
</trkpt>
<trkpt lat="33.8101352" lon="-118.3939888">
  <ele>-28.72</ele>
  <time>2026-09-01T01:13:42Z</time>
  <course>209.69</course>
  <speed>0.97</speed>
  <fix>3d</fix>
</trkpt>
<trkpt lat="33.810133" lon="-118.3939905">
  <ele>-29.252</ele>
  <time>2026-09-01T01:13:42Z</time>
  <course>210.67</course>
  <speed>0.9501578816175763</speed>
  <fix>3d</fix>
</trkpt>
<trkpt lat="33.8101337" lon="-118.3939898">
  <ele>-28.64</ele>
  <time>2026-09-01T01:13:42Z</time>
  <course>209.69</course>
  <speed>0.97</speed>
  <fix>3d</fix>
</trkpt>
<trkpt lat="33.8101322" lon="-118.393991">
  <ele>-29.21</ele>
  <time>2026-09-01T01:13:42Z</time>
  <course>210.66</course>
  <speed>0.9501578816175763</speed>
  <fix>3d</fix>
</trkpt>
<trkpt lat="33.8101337" lon="-118.3939898">
  <ele>-28.64</ele>
  <time>2026-09-01T01:13:42Z</time>
  <course>209.69</course>
  <speed>0.97</speed>
  <fix>3d</fix>
</trkpt>
<trkpt lat="33.8101315" lon="-118.3939915">
  <ele>-29.17</ele>
  <time>2026-09-01T01:13:42Z</time>
  <course>210.65</course>
  <speed>0.9501578816175763</speed>
  <fix>3d</fix>
</trkpt>
<trkpt lat="33.8101322" lon="-118.3939909">
  <ele>-28.56</ele>
  <time>2026-09-01T01:13:42Z</time>
  <course>209.67</course>
  <speed>0.97</speed>
  <fix>3d</fix>
</trkpt>
<trkpt lat="33.8101307" lon="-118.393992">
  <ele>-29.132</ele>
  <time>2026-09-01T01:13:42Z</time>
  <course>210.63</course>
  <speed>0.9501578816175763</speed>
  <fix>3d</fix>
</trkpt>
<trkpt lat="33.8101322" lon="-118.3939909">
  <ele>-28.56</ele>
  <time>2026-09-01T01:13:42Z</time>
  <course>209.67</course>
  <speed>0.97</speed>
  <fix>3d</fix>
</trkpt>
<trkpt lat="33.8101299" lon="-118.3939926">
  <ele>-29.095</ele>
  <time>2026-09-01T01:13:42Z</time>
  <course>210.6</course>
  <speed>0.9501578816175763</speed>
  <fix>3d</fix>
</trkpt>
<trkpt lat="33.8101306" lon="-118.3939919">
  <ele>-28.49</ele>
  <time>2026-09-01T01:13:42Z</time>
  <course>209.66</course>
  <speed>0.98</speed>
  <fix>3d</fix>
</trkpt>
<trkpt lat="33.8101292" lon="-118.3939931">
  <ele>-29.058</ele>
  <time>2026-09-01T01:13:42Z</time>
  <course>210.57</course>
  <speed>0.9501578816175763</speed>
  <fix>3d</fix>
</trkpt>
<trkpt lat="33.8101306" lon="-118.3939919">
  <ele>-28.49</ele>
  <time>2026-09-01T01:13:42Z</time>
  <course>209.66</course>
  <speed>0.98</speed>
  <fix>3d</fix>
</trkpt>
<trkpt lat="33.8101284" lon="-118.3939936">
  <ele>-29.021</ele>
  <time>2026-09-01T01:13:42Z</time>
  <course>210.56</course>
  <speed>0.9501578816175763</speed>
  <fix>3d</fix>
</trkpt>
<trkpt lat="33.8101291" lon="-118.393993">
  <ele>-28.41</ele>
  <time>2026-09-01T01:13:42Z</time>
  <course>209.63</course>
  <speed>0.98</speed>
  <fix>3d</fix>
</trkpt>
<trkpt lat="33.8101276" lon="-118.3939941">
  <ele>-28.987</ele>
  <time>2026-09-01T01:13:42Z</time>
  <course>210.55</course>
  <speed>0.9501578816175763</speed>
  <fix>3d</fix>
</trkpt>
<trkpt lat="33.8101291" lon="-118.393993">
  <ele>-28.41</ele>
  <time>2026-09-01T01:13:42Z</time>
  <course>209.63</course>
  <speed>0.98</speed>
  <fix>3d</fix>
</trkpt>
<trkpt lat="33.8101269" lon="-118.3939946">
  <ele>-28.952</ele>
  <time>2026-09-01T01:13:42Z</time>
  <course>210.54</course>
  <speed>0.9501578816175763</speed>
  <fix>3d</fix>
</trkpt>
<trkpt lat="33.8101276" lon="-118.393994">
  <ele>-28.34</ele>
  <time>2026-09-01T01:13:42Z</time>
  <course>209.62</course>
  <speed>0.98</speed>
  <fix>3d</fix>
</trkpt>
<trkpt lat="33.8101261" lon="-118.3939952">
  <ele>-28.916</ele>
  <time>2026-09-01T01:13:42Z</time>
  <course>210.51</course>
  <speed>0.9501578816175763</speed>
  <fix>3d</fix>
</trkpt>
<trkpt lat="33.8101276" lon="-118.393994">
  <ele>-28.34</ele>
  <time>2026-09-01T01:13:42Z</time>
  <course>209.62</course>
  <speed>0.98</speed>
  <fix>3d</fix>
</trkpt>
<trkpt lat="33.8101254" lon="-118.3939957">
  <ele>-28.881</ele>
  <time>2026-09-01T01:13:42Z</time>
  <course>210.5</course>
  <speed>0.9501578816175763</speed>
  <fix>3d</fix>
</trkpt>
<trkpt lat="33.810126" lon="-118.3939951">
  <ele>-28.27</ele>
  <time>2026-09-01T01:13:42Z</time>
  <course>209.61</course>
  <speed>0.98</speed>
  <fix>3d</fix>
</trkpt>
<trkpt lat="33.8101246" lon="-118.3939962">
  <ele>-28.846</ele>
  <time>2026-09-01T01:13:42Z</time>
  <course>210.49</course>
  <speed>0.9501578816175763</speed>
  <fix>3d</fix>
</trkpt>
<trkpt lat="33.810126" lon="-118.3939951">
  <ele>-28.27</ele>
  <time>2026-09-01T01:13:42Z</time>
  <course>209.61</course>
  <speed>0.98</speed>
  <fix>3d</fix>
</trkpt>
<trkpt lat="33.8101238" lon="-118.3939967">
  <ele>-28.811</ele>
  <time>2026-09-01T01:13:42Z</time>
  <course>210.48</course>
  <speed>0.9501578816175763</speed>
  <fix>3d</fix>
</trkpt>
<trkpt lat="33.8101245" lon="-118.3939961">
  <ele>-28.2</ele>
  <time>2026-09-01T01:13:42Z</time>
  <course>209.59</course>
  <speed>0.98</speed>
  <fix>3d</fix>
</trkpt>
<trkpt lat="33.8101231" lon="-118.3939973">
  <ele>-28.776</ele>
  <time>2026-09-01T01:13:42Z</time>
  <course>210.47</course>
  <speed>0.9501578816175763</speed>
  <fix>3d</fix>
</trkpt>
<trkpt lat="33.8101245" lon="-118.3939961">
  <ele>-28.2</ele>
  <time>2026-09-01T01:13:42Z</time>
  <course>209.59</course>
  <speed>0.98</speed>
  <fix>3d</fix>
</trkpt>
<trkpt lat="33.8101223" lon="-118.3939978">
  <ele>-28.739</ele>
  <time>2026-09-01T01:13:42Z</time>
  <course>210.47</course>
  <speed>0.9501578816175763</speed>
  <fix>3d</fix>
</trkpt>
<trkpt lat="33.810123" lon="-118.3939972">
  <ele>-28.13</ele>
  <time>2026-09-01T01:13:42Z</time>
  <course>209.59</course>
  <speed>0.98</speed>
  <fix>3d</fix>
</trkpt>
<trkpt lat="33.8101215" lon="-118.3939983">
  <ele>-28.703</ele>
  <time>2026-09-01T01:13:42Z</time>
  <course>210.47</course>
  <speed>0.9501578816175763</speed>
  <fix>3d</fix>
</trkpt>
<trkpt lat="33.810123" lon="-118.3939972">
  <ele>-28.13</ele>
  <time>2026-09-01T01:13:42Z</time>
  <course>209.59</course>
  <speed>0.98</speed>
  <fix>3d</fix>
</trkpt>
<trkpt lat="33.8101208" lon="-118.3939988">
  <ele>-28.667</ele>
  <time>2026-09-01T01:13:42Z</time>
  <course>210.46</course>
  <speed>0.9501578816175763</speed>
  <fix>3d</fix>
</trkpt>
<trkpt lat="33.8101214" lon="-118.3939982">
  <ele>-28.06</ele>
  <time>2026-09-01T01:13:42Z</time>
  <course>209.58</course>
  <speed>0.98</speed>
  <fix>3d</fix>
</trkpt>
<trkpt lat="33.81012" lon="-118.3939994">
  <ele>-28.633</ele>
  <time>2026-09-01T01:13:42Z</time>
  <course>210.44</course>
  <speed>0.9501578816175763</speed>
  <fix>3d</fix>
</trkpt>
<trkpt lat="33.8101214" lon="-118.3939982">
  <ele>-28.06</ele>
  <time>2026-09-01T01:13:42Z</time>
  <course>209.58</course>
  <speed>0.98</speed>
  <fix>3d</fix>
</trkpt>
<trkpt lat="33.8101192" lon="-118.3939999">
  <ele>-28.602</ele>
  <time>2026-09-01T01:13:42Z</time>
  <course>210.44</course>
  <speed>0.9501578816175763</speed>
  <fix>3d</fix>
</trkpt>
<trkpt lat="33.8101199" lon="-118.3939992">
  <ele>-27.99</ele>
  <time>2026-09-01T01:13:42Z</time>
  <course>209.57</course>
  <speed>0.98</speed>
  <fix>3d</fix>
</trkpt>
<trkpt lat="33.8101185" lon="-118.3940004">
  <ele>-28.573</ele>
  <time>2026-09-01T01:13:42Z</time>
  <course>210.45</course>
  <speed>0.9501578816175763</speed>
  <fix>3d</fix>
</trkpt>
<trkpt lat="33.8101199" lon="-118.3939992">
  <ele>-27.99</ele>
  <time>2026-09-01T01:13:42Z</time>
  <course>209.57</course>
  <speed>0.98</speed>
  <fix>3d</fix>
</trkpt>
<trkpt lat="33.8101177" lon="-118.3940009">
  <ele>-28.546</ele>
  <time>2026-09-01T01:13:42Z</time>
  <course>210.47</course>
  <speed>0.9501578816175763</speed>
  <fix>3d</fix>
</trkpt>
<trkpt lat="33.8101183" lon="-118.3940002">
  <ele>-27.93</ele>
  <time>2026-09-01T01:13:42Z</time>
  <course>209.6</course>
  <speed>0.98</speed>
  <fix>3d</fix>
</trkpt>
<trkpt lat="33.8101169" lon="-118.3940014">
  <ele>-28.519</ele>
  <time>2026-09-01T01:13:42Z</time>
  <course>210.5</course>
  <speed>0.9501578816175763</speed>
  <fix>3d</fix>
</trkpt>
<trkpt lat="33.8101183" lon="-118.3940002">
  <ele>-27.93</ele>
  <time>2026-09-01T01:13:42Z</time>
  <course>209.6</course>
  <speed>0.98</speed>
  <fix>3d</fix>
</trkpt>
<trkpt lat="33.8101162" lon="-118.394002">
  <ele>-28.493</ele>
  <time>2026-09-01T01:13:42Z</time>
  <course>210.55</course>
  <speed>0.9501578816175763</speed>
  <fix>3d</fix>
</trkpt>
<trkpt lat="33.8101168" lon="-118.3940013">
  <ele>-27.87</ele>
  <time>2026-09-01T01:13:42Z</time>
  <course>209.68</course>
  <speed>0.98</speed>
  <fix>3d</fix>
</trkpt>
<trkpt lat="33.8101154" lon="-118.3940025">
  <ele>-28.468</ele>
  <time>2026-09-01T01:13:42Z</time>
  <course>210.61</course>
  <speed>0.9501578816175763</speed>
  <fix>3d</fix>
</trkpt>
<trkpt lat="33.8101168" lon="-118.3940013">
  <ele>-27.87</ele>
  <time>2026-09-01T01:13:42Z</time>
  <course>209.68</course>
  <speed>0.98</speed>
  <fix>3d</fix>
</trkpt>
<trkpt lat="33.8101146" lon="-118.394003">
  <ele>-28.443</ele>
  <time>2026-09-01T01:13:42Z</time>
  <course>210.66</course>
  <speed>0.9501578816175763</speed>
  <fix>3d</fix>
</trkpt>
<trkpt lat="33.8101153" lon="-118.3940024">
  <ele>-27.82</ele>
  <time>2026-09-01T01:13:42Z</time>
  <course>209.78</course>
  <speed>0.98</speed>
  <fix>3d</fix>
</trkpt>
<trkpt lat="33.8101138" lon="-118.3940035">
  <ele>-28.419</ele>
  <time>2026-09-01T01:13:42Z</time>
  <course>210.69</course>
  <speed>0.9501578816175763</speed>
  <fix>3d</fix>
</trkpt>
<trkpt lat="33.8101153" lon="-118.3940024">
  <ele>-27.82</ele>
  <time>2026-09-01T01:13:42Z</time>
  <course>209.78</course>
  <speed>0.98</speed>
  <fix>3d</fix>
</trkpt>
<trkpt lat="33.8101131" lon="-118.3940041">
  <ele>-28.394</ele>
  <time>2026-09-01T01:13:42Z</time>
  <course>210.7</course>
  <speed>0.9501578816175763</speed>
  <fix>3d</fix>
</trkpt>
<trkpt lat="33.8101137" lon="-118.3940035">
  <ele>-27.77</ele>
  <time>2026-09-01T01:13:42Z</time>
  <course>209.79</course>
  <speed>0.98</speed>
  <fix>3d</fix>
</trkpt>
<trkpt lat="33.8101123" lon="-118.3940046">
  <ele>-28.367</ele>
  <time>2026-09-01T01:13:42Z</time>
  <course>210.7</course>
  <speed>0.9501578816175763</speed>
  <fix>3d</fix>
</trkpt>
<trkpt lat="33.8101137" lon="-118.3940035">
  <ele>-27.77</ele>
  <time>2026-09-01T01:13:42Z</time>
  <course>209.79</course>
  <speed>0.98</speed>
  <fix>3d</fix>
</trkpt>
<trkpt lat="33.8101115" lon="-118.3940051">
  <ele>-28.338</ele>
  <time>2026-09-01T01:13:42Z</time>
  <course>210.68</course>
  <speed>0.9501578816175763</speed>
  <fix>3d</fix>
</trkpt>
<trkpt lat="33.8101122" lon="-118.3940045">
  <ele>-27.72</ele>
  <time>2026-09-01T01:13:42Z</time>
  <course>209.74</course>
  <speed>0.98</speed>
  <fix>3d</fix>
</trkpt>
<trkpt lat="33.8101108" lon="-118.3940057">
  <ele>-28.308</ele>
  <time>2026-09-01T01:13:42Z</time>
  <course>210.66</course>
  <speed>0.9501578816175763</speed>
  <fix>3d</fix>
</trkpt>
<trkpt lat="33.8101122" lon="-118.3940045">
  <ele>-27.72</ele>
  <time>2026-09-01T01:13:42Z</time>
  <course>209.74</course>
  <speed>0.98</speed>
  <fix>3d</fix>
</trkpt>
<trkpt lat="33.81011" lon="-118.3940062">
  <ele>-28.274</ele>
  <time>2026-09-01T01:13:42Z</time>
  <course>210.64</course>
  <speed>0.9501578816175763</speed>
  <fix>3d</fix>
</trkpt>
<trkpt lat="33.8101106" lon="-118.3940056">
  <ele>-27.66</ele>
  <time>2026-09-01T01:13:42Z</time>
  <course>209.69</course>
  <speed>0.98</speed>
  <fix>3d</fix>
</trkpt>
<trkpt lat="33.8101092" lon="-118.3940067">
  <ele>-28.238</ele>
  <time>2026-09-01T01:13:42Z</time>
  <course>210.62</course>
  <speed>0.9501578816175763</speed>
  <fix>3d</fix>
</trkpt>
<trkpt lat="33.8101106" lon="-118.3940056">
  <ele>-27.66</ele>
  <time>2026-09-01T01:13:42Z</time>
  <course>209.69</course>
  <speed>0.98</speed>
  <fix>3d</fix>
</trkpt>
<trkpt lat="33.8101085" lon="-118.3940072">
  <ele>-28.199</ele>
  <time>2026-09-01T01:13:42Z</time>
  <course>210.62</course>
  <speed>0.9501578816175763</speed>
  <fix>3d</fix>
</trkpt>
<trkpt lat="33.8101091" lon="-118.3940066">
  <ele>-27.59</ele>
  <time>2026-09-01T01:13:42Z</time>
  <course>209.67</course>
  <speed>0.98</speed>
  <fix>3d</fix>
</trkpt>
<trkpt lat="33.8101077" lon="-118.3940078">
  <ele>-28.159</ele>
  <time>2026-09-01T01:13:42Z</time>
  <course>210.61</course>
  <speed>0.9501578816175763</speed>
  <fix>3d</fix>
</trkpt>
<trkpt lat="33.8101091" lon="-118.3940066">
  <ele>-27.59</ele>
  <time>2026-09-01T01:13:42Z</time>
  <course>209.67</course>
  <speed>0.98</speed>
  <fix>3d</fix>
</trkpt>
<trkpt lat="33.8101069" lon="-118.3940083">
  <ele>-28.119</ele>
  <time>2026-09-01T01:13:42Z</time>
  <course>210.61</course>
  <speed>0.9501578816175763</speed>
  <fix>3d</fix>
</trkpt>
<trkpt lat="33.8101076" lon="-118.3940077">
  <ele>-27.52</ele>
  <time>2026-09-01T01:13:42Z</time>
  <course>209.68</course>
  <speed>0.98</speed>
  <fix>3d</fix>
</trkpt>
<trkpt lat="33.8101061" lon="-118.3940088">
  <ele>-28.08</ele>
  <time>2026-09-01T01:13:42Z</time>
  <course>210.61</course>
  <speed>0.9501578816175763</speed>
  <fix>3d</fix>
</trkpt>
<trkpt lat="33.8101076" lon="-118.3940077">
  <ele>-27.52</ele>
  <time>2026-09-01T01:13:42Z</time>
  <course>209.68</course>
  <speed>0.98</speed>
  <fix>3d</fix>
</trkpt>
<trkpt lat="33.8101054" lon="-118.3940094">
  <ele>-28.042</ele>
  <time>2026-09-01T01:13:42Z</time>
  <course>210.61</course>
  <speed>0.9501578816175763</speed>
  <fix>3d</fix>
</trkpt>
<trkpt lat="33.8101061" lon="-118.3940087">
  <ele>-27.45</ele>
  <time>2026-09-01T01:13:42Z</time>
  <course>209.66</course>
  <speed>0.98</speed>
  <fix>3d</fix>
</trkpt>
<trkpt lat="33.8101046" lon="-118.3940099">
  <ele>-28.003</ele>
  <time>2026-09-01T01:13:42Z</time>
  <course>210.59</course>
  <speed>0.9501578816175763</speed>
  <fix>3d</fix>
</trkpt>
<trkpt lat="33.8101061" lon="-118.3940087">
  <ele>-27.45</ele>
  <time>2026-09-01T01:13:42Z</time>
  <course>209.66</course>
  <speed>0.98</speed>
  <fix>3d</fix>
</trkpt>
<trkpt lat="33.8101038" lon="-118.3940104">
  <ele>-27.963</ele>
  <time>2026-09-01T01:13:42Z</time>
  <course>210.57</course>
  <speed>0.95524865872714</speed>
  <fix>3d</fix>
</trkpt>
<trkpt lat="33.8101045" lon="-118.3940098">
  <ele>-27.37</ele>
  <time>2026-09-01T01:13:42Z</time>
  <course>209.63</course>
  <speed>0.98</speed>
  <fix>3d</fix>
</trkpt>
<trkpt lat="33.8101031" lon="-118.3940109">
  <ele>-27.923</ele>
  <time>2026-09-01T01:13:42Z</time>
  <course>210.56</course>
  <speed>0.95524865872714</speed>
  <fix>3d</fix>
</trkpt>
<trkpt lat="33.8101045" lon="-118.3940098">
  <ele>-27.37</ele>
  <time>2026-09-01T01:13:42Z</time>
  <course>209.63</course>
  <speed>0.98</speed>
  <fix>3d</fix>
</trkpt>
<trkpt lat="33.8101023" lon="-118.3940115">
  <ele>-27.884</ele>
  <time>2026-09-01T01:13:42Z</time>
  <course>210.54</course>
  <speed>0.9638464608017192</speed>
  <fix>3d</fix>
</trkpt>
<trkpt lat="33.810103" lon="-118.3940108">
  <ele>-27.3</ele>
  <time>2026-09-01T01:13:42Z</time>
  <course>209.62</course>
  <speed>0.98</speed>
  <fix>3d</fix>
</trkpt>
<trkpt lat="33.8101015" lon="-118.394012">
  <ele>-27.845</ele>
  <time>2026-09-01T01:13:42Z</time>
  <course>210.53</course>
  <speed>0.9638464608017192</speed>
  <fix>3d</fix>
</trkpt>
<trkpt lat="33.810103" lon="-118.3940108">
  <ele>-27.3</ele>
  <time>2026-09-01T01:13:42Z</time>
  <course>209.62</course>
  <speed>0.98</speed>
  <fix>3d</fix>
</trkpt>
<trkpt lat="33.8101007" lon="-118.3940125">
  <ele>-27.807</ele>
  <time>2026-09-01T01:13:42Z</time>
  <course>210.52</course>
  <speed>0.9638464608017192</speed>
  <fix>3d</fix>
</trkpt>
<trkpt lat="33.8101014" lon="-118.3940119">
  <ele>-27.22</ele>
  <time>2026-09-01T01:13:42Z</time>
  <course>209.6</course>
  <speed>0.98</speed>
  <fix>3d</fix>
</trkpt>
<trkpt lat="33.8101" lon="-118.394013">
  <ele>-27.769</ele>
  <time>2026-09-01T01:13:42Z</time>
  <course>210.52</course>
  <speed>0.9638464608017192</speed>
  <fix>3d</fix>
</trkpt>
<trkpt lat="33.8101014" lon="-118.3940119">
  <ele>-27.22</ele>
  <time>2026-09-01T01:13:42Z</time>
  <course>209.6</course>
  <speed>0.98</speed>
  <fix>3d</fix>
</trkpt>
<trkpt lat="33.8100992" lon="-118.3940136">
  <ele>-27.731</ele>
  <time>2026-09-01T01:13:42Z</time>
  <course>210.52</course>
  <speed>0.9638464608017192</speed>
  <fix>3d</fix>
</trkpt>
<trkpt lat="33.8100999" lon="-118.394013">
  <ele>-27.15</ele>
  <time>2026-09-01T01:13:42Z</time>
  <course>209.61</course>
  <speed>0.99</speed>
  <fix>3d</fix>
</trkpt>
<trkpt lat="33.8100984" lon="-118.3940141">
  <ele>-27.694</ele>
  <time>2026-09-01T01:13:42Z</time>
  <course>210.52</course>
  <speed>0.9638464608017192</speed>
  <fix>3d</fix>
</trkpt>
<trkpt lat="33.8100999" lon="-118.394013">
  <ele>-27.15</ele>
  <time>2026-09-01T01:13:42Z</time>
  <course>209.61</course>
  <speed>0.99</speed>
  <fix>3d</fix>
</trkpt>
<trkpt lat="33.8100977" lon="-118.3940146">
  <ele>-27.658</ele>
  <time>2026-09-01T01:13:42Z</time>
  <course>210.51</course>
  <speed>0.9638464608017192</speed>
  <fix>3d</fix>
</trkpt>
<trkpt lat="33.8100984" lon="-118.394014">
  <ele>-27.07</ele>
  <time>2026-09-01T01:13:42Z</time>
  <course>209.6</course>
  <speed>0.99</speed>
  <fix>3d</fix>
</trkpt>
<trkpt lat="33.8100969" lon="-118.3940152">
  <ele>-27.625</ele>
  <time>2026-09-01T01:13:42Z</time>
  <course>210.5</course>
  <speed>0.9638464608017192</speed>
  <fix>3d</fix>
</trkpt>
<trkpt lat="33.8100984" lon="-118.394014">
  <ele>-27.07</ele>
  <time>2026-09-01T01:13:42Z</time>
  <course>209.6</course>
  <speed>0.99</speed>
  <fix>3d</fix>
</trkpt>
<trkpt lat="33.8100961" lon="-118.3940157">
  <ele>-27.593</ele>
  <time>2026-09-01T01:13:42Z</time>
  <course>210.47</course>
  <speed>0.9638464608017192</speed>
  <fix>3d</fix>
</trkpt>
<trkpt lat="33.8100968" lon="-118.3940151">
  <ele>-27.01</ele>
  <time>2026-09-01T01:13:42Z</time>
  <course>209.57</course>
  <speed>0.99</speed>
  <fix>3d</fix>
</trkpt>
<trkpt lat="33.8100953" lon="-118.3940162">
  <ele>-27.56</ele>
  <time>2026-09-01T01:13:42Z</time>
  <course>210.46</course>
  <speed>0.9638464608017192</speed>
  <fix>3d</fix>
</trkpt>
<trkpt lat="33.8100968" lon="-118.3940151">
  <ele>-27.01</ele>
  <time>2026-09-01T01:13:42Z</time>
  <course>209.57</course>
  <speed>0.99</speed>
  <fix>3d</fix>
</trkpt>
<trkpt lat="33.8100946" lon="-118.3940168">
  <ele>-27.526</ele>
  <time>2026-09-01T01:13:42Z</time>
  <course>210.44</course>
  <speed>0.9638464608017192</speed>
  <fix>3d</fix>
</trkpt>
<trkpt lat="33.8100953" lon="-118.3940161">
  <ele>-26.94</ele>
  <time>2026-09-01T01:13:42Z</time>
  <course>209.55</course>
  <speed>0.99</speed>
  <fix>3d</fix>
</trkpt>
<trkpt lat="33.8100938" lon="-118.3940173">
  <ele>-27.491</ele>
  <time>2026-09-01T01:13:42Z</time>
  <course>210.42</course>
  <speed>0.9638464608017192</speed>
  <fix>3d</fix>
</trkpt>
<trkpt lat="33.8100953" lon="-118.3940161">
  <ele>-26.94</ele>
  <time>2026-09-01T01:13:42Z</time>
  <course>209.55</course>
  <speed>0.99</speed>
  <fix>3d</fix>
</trkpt>
<trkpt lat="33.810093" lon="-118.3940178">
  <ele>-27.457</ele>
  <time>2026-09-01T01:13:42Z</time>
  <course>210.41</course>
  <speed>0.9638464608017192</speed>
  <fix>3d</fix>
</trkpt>
<trkpt lat="33.8100936" lon="-118.3940172">
  <ele>-26.88</ele>
  <time>2026-09-01T01:13:42Z</time>
  <course>209.52</course>
  <speed>0.99</speed>
  <fix>3d</fix>
</trkpt>
<trkpt lat="33.8100922" lon="-118.3940184">
  <ele>-27.423</ele>
  <time>2026-09-01T01:13:42Z</time>
  <course>210.41</course>
  <speed>0.9638464608017192</speed>
  <fix>3d</fix>
</trkpt>
<trkpt lat="33.8100936" lon="-118.3940172">
  <ele>-26.88</ele>
  <time>2026-09-01T01:13:42Z</time>
  <course>209.52</course>
  <speed>0.99</speed>
  <fix>3d</fix>
</trkpt>
<trkpt lat="33.8100914" lon="-118.3940189">
  <ele>-27.392</ele>
  <time>2026-09-01T01:13:42Z</time>
  <course>210.42</course>
  <speed>0.9638464608017192</speed>
  <fix>3d</fix>
</trkpt>
<trkpt lat="33.8100921" lon="-118.3940182">
  <ele>-26.81</ele>
  <time>2026-09-01T01:13:42Z</time>
  <course>209.53</course>
  <speed>0.99</speed>
  <fix>3d</fix>
</trkpt>
<trkpt lat="33.8100907" lon="-118.3940194">
  <ele>-27.362</ele>
  <time>2026-09-01T01:13:42Z</time>
  <course>210.44</course>
  <speed>0.9638464608017192</speed>
  <fix>3d</fix>
</trkpt>
<trkpt lat="33.8100921" lon="-118.3940182">
  <ele>-26.81</ele>
  <time>2026-09-01T01:13:42Z</time>
  <course>209.53</course>
  <speed>0.99</speed>
  <fix>3d</fix>
</trkpt>
<trkpt lat="33.8100899" lon="-118.3940199">
  <ele>-27.333</ele>
  <time>2026-09-01T01:13:42Z</time>
  <course>210.48</course>
  <speed>0.9638464608017192</speed>
  <fix>3d</fix>
</trkpt>
<trkpt lat="33.8100905" lon="-118.3940193">
  <ele>-26.75</ele>
  <time>2026-09-01T01:13:42Z</time>
  <course>209.6</course>
  <speed>0.99</speed>
  <fix>3d</fix>
</trkpt>
<trkpt lat="33.8100891" lon="-118.3940205">
  <ele>-27.305</ele>
  <time>2026-09-01T01:13:42Z</time>
  <course>210.52</course>
  <speed>0.9638464608017192</speed>
  <fix>3d</fix>
</trkpt>
<trkpt lat="33.8100905" lon="-118.3940193">
  <ele>-26.75</ele>
  <time>2026-09-01T01:13:42Z</time>
  <course>209.6</course>
  <speed>0.99</speed>
  <fix>3d</fix>
</trkpt>
<trkpt lat="33.8100883" lon="-118.394021">
  <ele>-27.275</ele>
  <time>2026-09-01T01:13:42Z</time>
  <course>210.56</course>
  <speed>0.9415412895885129</speed>
  <fix>3d</fix>
</trkpt>
<trkpt lat="33.810089" lon="-118.3940203">
  <ele>-26.69</ele>
  <time>2026-09-01T01:13:42Z</time>
  <course>209.66</course>
  <speed>0.99</speed>
  <fix>3d</fix>
</trkpt>
<trkpt lat="33.8100876" lon="-118.3940215">
  <ele>-27.243</ele>
  <time>2026-09-01T01:13:42Z</time>
  <course>210.62</course>
  <speed>0.8969392398596462</speed>
  <fix>3d</fix>
</trkpt>
<trkpt lat="33.810089" lon="-118.3940203">
  <ele>-26.69</ele>
  <time>2026-09-01T01:13:42Z</time>
  <course>209.66</course>
  <speed>0.99</speed>
  <fix>3d</fix>
</trkpt>
<trkpt lat="33.8100869" lon="-118.394022">
  <ele>-27.211</ele>
  <time>2026-09-01T01:13:42Z</time>
  <course>210.71</course>
  <speed>0.9055385138137417</speed>
  <fix>3d</fix>
</trkpt>
<trkpt lat="33.8100875" lon="-118.3940214">
  <ele>-26.63</ele>
  <time>2026-09-01T01:13:42Z</time>
  <course>209.74</course>
  <speed>0.95</speed>
  <fix>3d</fix>
</trkpt>
<trkpt lat="33.8100861" lon="-118.3940225">
  <ele>-27.175</ele>
  <time>2026-09-01T01:13:42Z</time>
  <course>210.76</course>
  <speed>0.910659101969557</speed>
  <fix>3d</fix>
</trkpt>
<trkpt lat="33.8100875" lon="-118.3940214">
  <ele>-26.63</ele>
  <time>2026-09-01T01:13:42Z</time>
  <course>209.74</course>
  <speed>0.95</speed>
  <fix>3d</fix>
</trkpt>
<trkpt lat="33.8100854" lon="-118.394023">
  <ele>-27.136</ele>
  <time>2026-09-01T01:13:42Z</time>
  <course>210.78</course>
  <speed>0.9192388155425119</speed>
  <fix>3d</fix>
</trkpt>
<trkpt lat="33.8100861" lon="-118.3940224">
  <ele>-26.56</ele>
  <time>2026-09-01T01:13:42Z</time>
  <course>209.77</course>
  <speed>0.93</speed>
  <fix>3d</fix>
</trkpt>
<trkpt lat="33.8100846" lon="-118.3940235">
  <ele>-27.095</ele>
  <time>2026-09-01T01:13:42Z</time>
  <course>210.77</course>
  <speed>0.9278469701410895</speed>
  <fix>3d</fix>
</trkpt>
<trkpt lat="33.8100861" lon="-118.3940224">
  <ele>-26.56</ele>
  <time>2026-09-01T01:13:42Z</time>
  <course>209.77</course>
  <speed>0.93</speed>
  <fix>3d</fix>
</trkpt>
<trkpt lat="33.8100839" lon="-118.394024">
  <ele>-27.054</ele>
  <time>2026-09-01T01:13:42Z</time>
  <course>210.74</course>
  <speed>0.9278469701410895</speed>
  <fix>3d</fix>
</trkpt>
<trkpt lat="33.8100846" lon="-118.3940234">
  <ele>-26.49</ele>
  <time>2026-09-01T01:13:42Z</time>
  <course>209.71</course>
  <speed>0.94</speed>
  <fix>3d</fix>
</trkpt>
<trkpt lat="33.8100831" lon="-118.3940246">
  <ele>-27.013</ele>
  <time>2026-09-01T01:13:42Z</time>
  <course>210.7</course>
  <speed>0.9415412895885129</speed>
  <fix>3d</fix>
</trkpt>
<trkpt lat="33.8100846" lon="-118.3940234">
  <ele>-26.49</ele>
  <time>2026-09-01T01:13:42Z</time>
  <course>209.71</course>
  <speed>0.94</speed>
  <fix>3d</fix>
</trkpt>
<trkpt lat="33.8100824" lon="-118.3940251">
  <ele>-26.973</ele>
  <time>2026-09-01T01:13:42Z</time>
  <course>210.68</course>
  <speed>0.9415412895885129</speed>
  <fix>3d</fix>
</trkpt>
<trkpt lat="33.8100831" lon="-118.3940245">
  <ele>-26.41</ele>
  <time>2026-09-01T01:13:42Z</time>
  <course>209.64</course>
  <speed>0.96</speed>
  <fix>3d</fix>
</trkpt>
<trkpt lat="33.8100816" lon="-118.3940256">
  <ele>-26.934</ele>
  <time>2026-09-01T01:13:42Z</time>
  <course>210.65</course>
  <speed>0.9501578816175763</speed>
  <fix>3d</fix>
</trkpt>
<trkpt lat="33.8100831" lon="-118.3940245">
  <ele>-26.41</ele>
  <time>2026-09-01T01:13:42Z</time>
  <course>209.64</course>
  <speed>0.96</speed>
  <fix>3d</fix>
</trkpt>
<trkpt lat="33.8100809" lon="-118.3940261">
  <ele>-26.896</ele>
  <time>2026-09-01T01:13:42Z</time>
  <course>210.61</course>
  <speed>0.9501578816175763</speed>
  <fix>3d</fix>
</trkpt>
<trkpt lat="33.8100816" lon="-118.3940255">
  <ele>-26.33</ele>
  <time>2026-09-01T01:13:42Z</time>
  <course>209.59</course>
  <speed>0.97</speed>
  <fix>3d</fix>
</trkpt>
<trkpt lat="33.8100801" lon="-118.3940266">
  <ele>-26.857</ele>
  <time>2026-09-01T01:13:42Z</time>
  <course>210.57</course>
  <speed>0.9501578816175763</speed>
  <fix>3d</fix>
</trkpt>
<trkpt lat="33.8100816" lon="-118.3940255">
  <ele>-26.33</ele>
  <time>2026-09-01T01:13:42Z</time>
  <course>209.59</course>
  <speed>0.97</speed>
  <fix>3d</fix>
</trkpt>
<trkpt lat="33.8100793" lon="-118.3940272">
  <ele>-26.819</ele>
  <time>2026-09-01T01:13:42Z</time>
  <course>210.53</course>
  <speed>0.9501578816175763</speed>
  <fix>3d</fix>
</trkpt>
<trkpt lat="33.81008" lon="-118.3940265">
  <ele>-26.25</ele>
  <time>2026-09-01T01:13:42Z</time>
  <course>209.53</course>
  <speed>0.97</speed>
  <fix>3d</fix>
</trkpt>
<trkpt lat="33.8100786" lon="-118.3940277">
  <ele>-26.782</ele>
  <time>2026-09-01T01:13:42Z</time>
  <course>210.5</course>
  <speed>0.9638464608017192</speed>
  <fix>3d</fix>
</trkpt>
<trkpt lat="33.81008" lon="-118.3940265">
  <ele>-26.25</ele>
  <time>2026-09-01T01:13:42Z</time>
  <course>209.53</course>
  <speed>0.97</speed>
  <fix>3d</fix>
</trkpt>
<trkpt lat="33.8100778" lon="-118.3940282">
  <ele>-26.745</ele>
  <time>2026-09-01T01:13:42Z</time>
  <course>210.49</course>
  <speed>0.9638464608017192</speed>
  <fix>3d</fix>
</trkpt>
<trkpt lat="33.8100785" lon="-118.3940275">
  <ele>-26.18</ele>
  <time>2026-09-01T01:13:42Z</time>
  <course>209.51</course>
  <speed>0.98</speed>
  <fix>3d</fix>
</trkpt>
<trkpt lat="33.810077" lon="-118.3940287">
  <ele>-26.71</ele>
  <time>2026-09-01T01:13:42Z</time>
  <course>210.5</course>
  <speed>0.9638464608017192</speed>
  <fix>3d</fix>
</trkpt>
<trkpt lat="33.8100785" lon="-118.3940275">
  <ele>-26.18</ele>
  <time>2026-09-01T01:13:42Z</time>
  <course>209.51</course>
  <speed>0.98</speed>
  <fix>3d</fix>
</trkpt>
<trkpt lat="33.8100762" lon="-118.3940293">
  <ele>-26.678</ele>
  <time>2026-09-01T01:13:42Z</time>
  <course>210.53</course>
  <speed>0.9638464608017192</speed>
  <fix>3d</fix>
</trkpt>
<trkpt lat="33.810077" lon="-118.3940286">
  <ele>-26.11</ele>
  <time>2026-09-01T01:13:42Z</time>
  <course>209.56</course>
  <speed>0.98</speed>
  <fix>3d</fix>
</trkpt>
<trkpt lat="33.8100755" lon="-118.3940298">
  <ele>-26.648</ele>
  <time>2026-09-01T01:13:42Z</time>
  <course>210.56</course>
  <speed>0.9638464608017192</speed>
  <fix>3d</fix>
</trkpt>
<trkpt lat="33.810077" lon="-118.3940286">
  <ele>-26.11</ele>
  <time>2026-09-01T01:13:42Z</time>
  <course>209.56</course>
  <speed>0.98</speed>
  <fix>3d</fix>
</trkpt>
<trkpt lat="33.8100747" lon="-118.3940303">
  <ele>-26.622</ele>
  <time>2026-09-01T01:13:42Z</time>
  <course>210.58</course>
  <speed>0.9638464608017192</speed>
  <fix>3d</fix>
</trkpt>
<trkpt lat="33.8100754" lon="-118.3940297">
  <ele>-26.05</ele>
  <time>2026-09-01T01:13:42Z</time>
  <course>209.61</course>
  <speed>0.98</speed>
  <fix>3d</fix>
</trkpt>
<trkpt lat="33.8100739" lon="-118.3940309">
  <ele>-26.596</ele>
  <time>2026-09-01T01:13:42Z</time>
  <course>210.59</course>
  <speed>0.9638464608017192</speed>
  <fix>3d</fix>
</trkpt>
<trkpt lat="33.8100754" lon="-118.3940297">
  <ele>-26.05</ele>
  <time>2026-09-01T01:13:42Z</time>
  <course>209.61</course>
  <speed>0.98</speed>
  <fix>3d</fix>
</trkpt>
<trkpt lat="33.8100731" lon="-118.3940314">
  <ele>-26.568</ele>
  <time>2026-09-01T01:13:42Z</time>
  <course>210.59</course>
  <speed>0.9638464608017192</speed>
  <fix>3d</fix>
</trkpt>
<trkpt lat="33.8100739" lon="-118.3940307">
  <ele>-25.99</ele>
  <time>2026-09-01T01:13:42Z</time>
  <course>209.61</course>
  <speed>0.99</speed>
  <fix>3d</fix>
</trkpt>
<trkpt lat="33.8100724" lon="-118.3940319">
  <ele>-26.539</ele>
  <time>2026-09-01T01:13:42Z</time>
  <course>210.58</course>
  <speed>0.9638464608017192</speed>
  <fix>3d</fix>
</trkpt>
<trkpt lat="33.8100739" lon="-118.3940307">
  <ele>-25.99</ele>
  <time>2026-09-01T01:13:42Z</time>
  <course>209.61</course>
  <speed>0.99</speed>
  <fix>3d</fix>
</trkpt>
<trkpt lat="33.8100716" lon="-118.3940325">
  <ele>-26.508</ele>
  <time>2026-09-01T01:13:42Z</time>
  <course>210.57</course>
  <speed>0.9638464608017192</speed>
  <fix>3d</fix>
</trkpt>
<trkpt lat="33.8100723" lon="-118.3940318">
  <ele>-25.93</ele>
  <time>2026-09-01T01:13:42Z</time>
  <course>209.59</course>
  <speed>0.99</speed>
  <fix>3d</fix>
</trkpt>
<trkpt lat="33.8100708" lon="-118.394033">
  <ele>-26.476</ele>
  <time>2026-09-01T01:13:42Z</time>
  <course>210.57</course>
  <speed>0.9638464608017192</speed>
  <fix>3d</fix>
</trkpt>
<trkpt lat="33.8100723" lon="-118.3940318">
  <ele>-25.93</ele>
  <time>2026-09-01T01:13:42Z</time>
  <course>209.59</course>
  <speed>0.99</speed>
  <fix>3d</fix>
</trkpt>
<trkpt lat="33.81007" lon="-118.3940335">
  <ele>-26.44</ele>
  <time>2026-09-01T01:13:42Z</time>
  <course>210.57</course>
  <speed>0.9724710792614863</speed>
  <fix>3d</fix>
</trkpt>
<trkpt lat="33.8100708" lon="-118.3940328">
  <ele>-25.87</ele>
  <time>2026-09-01T01:13:42Z</time>
  <course>209.57</course>
  <speed>0.99</speed>
  <fix>3d</fix>
</trkpt>
<trkpt lat="33.8100692" lon="-118.3940341">
  <ele>-26.404</ele>
  <time>2026-09-01T01:13:42Z</time>
  <course>210.58</course>
  <speed>0.9724710792614863</speed>
  <fix>3d</fix>
</trkpt>
<trkpt lat="33.8100708" lon="-118.3940328">
  <ele>-25.87</ele>
  <time>2026-09-01T01:13:42Z</time>
  <course>209.57</course>
  <speed>0.99</speed>
  <fix>3d</fix>
</trkpt>
<trkpt lat="33.8100685" lon="-118.3940346">
  <ele>-26.365</ele>
  <time>2026-09-01T01:13:42Z</time>
  <course>210.59</course>
  <speed>0.9724710792614863</speed>
  <fix>3d</fix>
</trkpt>
<trkpt lat="33.8100692" lon="-118.3940339">
  <ele>-25.8</ele>
  <time>2026-09-01T01:13:42Z</time>
  <course>209.59</course>
  <speed>0.99</speed>
  <fix>3d</fix>
</trkpt>
<trkpt lat="33.8100677" lon="-118.3940351">
  <ele>-26.324</ele>
  <time>2026-09-01T01:13:42Z</time>
  <course>210.59</course>
  <speed>0.9724710792614863</speed>
  <fix>3d</fix>
</trkpt>
<trkpt lat="33.8100692" lon="-118.3940339">
  <ele>-25.8</ele>
  <time>2026-09-01T01:13:42Z</time>
  <course>209.59</course>
  <speed>0.99</speed>
  <fix>3d</fix>
</trkpt>
<trkpt lat="33.8100669" lon="-118.3940357">
  <ele>-26.283</ele>
  <time>2026-09-01T01:13:42Z</time>
  <course>210.61</course>
  <speed>0.9724710792614863</speed>
  <fix>3d</fix>
</trkpt>
<trkpt lat="33.8100677" lon="-118.394035">
  <ele>-25.73</ele>
  <time>2026-09-01T01:13:42Z</time>
  <course>209.62</course>
  <speed>0.99</speed>
  <fix>3d</fix>
</trkpt>
<trkpt lat="33.8100661" lon="-118.3940362">
  <ele>-26.243</ele>
  <time>2026-09-01T01:13:42Z</time>
  <course>210.61</course>
  <speed>0.9724710792614863</speed>
  <fix>3d</fix>
</trkpt>
<trkpt lat="33.8100677" lon="-118.394035">
  <ele>-25.73</ele>
  <time>2026-09-01T01:13:42Z</time>
  <course>209.62</course>
  <speed>0.99</speed>
  <fix>3d</fix>
</trkpt>
<trkpt lat="33.8100654" lon="-118.3940367">
  <ele>-26.205</ele>
  <time>2026-09-01T01:13:42Z</time>
  <course>210.6</course>
  <speed>0.9724710792614863</speed>
  <fix>3d</fix>
</trkpt>
<trkpt lat="33.8100661" lon="-118.394036">
  <ele>-25.65</ele>
  <time>2026-09-01T01:13:42Z</time>
  <course>209.62</course>
  <speed>0.99</speed>
  <fix>3d</fix>
</trkpt>
<trkpt lat="33.8100646" lon="-118.3940373">
  <ele>-26.168</ele>
  <time>2026-09-01T01:13:42Z</time>
  <course>210.58</course>
  <speed>0.9724710792614863</speed>
  <fix>3d</fix>
</trkpt>
<trkpt lat="33.8100661" lon="-118.394036">
  <ele>-25.65</ele>
  <time>2026-09-01T01:13:42Z</time>
  <course>209.62</course>
  <speed>0.99</speed>
  <fix>3d</fix>
</trkpt>
<trkpt lat="33.8100638" lon="-118.3940378">
  <ele>-26.132</ele>
  <time>2026-09-01T01:13:42Z</time>
  <course>210.58</course>
  <speed>0.9724710792614863</speed>
  <fix>3d</fix>
</trkpt>
<trkpt lat="33.8100646" lon="-118.3940371">
  <ele>-25.58</ele>
  <time>2026-09-01T01:13:42Z</time>
  <course>209.61</course>
  <speed>0.99</speed>
  <fix>3d</fix>
</trkpt>
<trkpt lat="33.810063" lon="-118.3940383">
  <ele>-26.097</ele>
  <time>2026-09-01T01:13:42Z</time>
  <course>210.59</course>
  <speed>0.9724710792614863</speed>
  <fix>3d</fix>
</trkpt>
<trkpt lat="33.8100646" lon="-118.3940371">
  <ele>-25.58</ele>
  <time>2026-09-01T01:13:42Z</time>
  <course>209.61</course>
  <speed>0.99</speed>
  <fix>3d</fix>
</trkpt>
<trkpt lat="33.8100622" lon="-118.3940389">
  <ele>-26.061</ele>
  <time>2026-09-01T01:13:42Z</time>
  <course>210.59</course>
  <speed>0.9724710792614863</speed>
  <fix>3d</fix>
</trkpt>
<trkpt lat="33.810063" lon="-118.3940382">
  <ele>-25.51</ele>
  <time>2026-09-01T01:13:42Z</time>
  <course>209.59</course>
  <speed>0.99</speed>
  <fix>3d</fix>
</trkpt>
<trkpt lat="33.8100615" lon="-118.3940394">
  <ele>-26.025</ele>
  <time>2026-09-01T01:13:42Z</time>
  <course>210.58</course>
  <speed>0.9724710792614863</speed>
  <fix>3d</fix>
</trkpt>
<trkpt lat="33.810063" lon="-118.3940382">
  <ele>-25.51</ele>
  <time>2026-09-01T01:13:42Z</time>
  <course>209.59</course>
  <speed>0.99</speed>
  <fix>3d</fix>
</trkpt>
<trkpt lat="33.8100607" lon="-118.3940399">
  <ele>-25.991</ele>
  <time>2026-09-01T01:13:42Z</time>
  <course>210.57</course>
  <speed>0.9724710792614863</speed>
  <fix>3d</fix>
</trkpt>
<trkpt lat="33.8100615" lon="-118.3940392">
  <ele>-25.44</ele>
  <time>2026-09-01T01:13:42Z</time>
  <course>209.55</course>
  <speed>0.99</speed>
  <fix>3d</fix>
</trkpt>
<trkpt lat="33.8100599" lon="-118.3940405">
  <ele>-25.959</ele>
  <time>2026-09-01T01:13:42Z</time>
  <course>210.56</course>
  <speed>0.9724710792614863</speed>
  <fix>3d</fix>
</trkpt>
<trkpt lat="33.8100615" lon="-118.3940392">
  <ele>-25.44</ele>
  <time>2026-09-01T01:13:42Z</time>
  <course>209.55</course>
  <speed>0.99</speed>
  <fix>3d</fix>
</trkpt>
<trkpt lat="33.8100591" lon="-118.394041">
  <ele>-25.928</ele>
  <time>2026-09-01T01:13:42Z</time>
  <course>210.55</course>
  <speed>0.9724710792614863</speed>
  <fix>3d</fix>
</trkpt>
<trkpt lat="33.8100599" lon="-118.3940403">
  <ele>-25.38</ele>
  <time>2026-09-01T01:13:42Z</time>
  <course>209.54</course>
  <speed>1.0</speed>
  <fix>3d</fix>
</trkpt>
<trkpt lat="33.8100583" lon="-118.3940415">
  <ele>-25.898</ele>
  <time>2026-09-01T01:13:42Z</time>
  <course>210.55</course>
  <speed>0.9724710792614863</speed>
  <fix>3d</fix>
</trkpt>
<trkpt lat="33.8100599" lon="-118.3940403">
  <ele>-25.38</ele>
  <time>2026-09-01T01:13:42Z</time>
  <course>209.54</course>
  <speed>1.0</speed>
  <fix>3d</fix>
</trkpt>
<trkpt lat="33.8100576" lon="-118.3940421">
  <ele>-25.866</ele>
  <time>2026-09-01T01:13:42Z</time>
  <course>210.55</course>
  <speed>0.9724710792614863</speed>
  <fix>3d</fix>
</trkpt>
<trkpt lat="33.8100583" lon="-118.3940414">
  <ele>-25.32</ele>
  <time>2026-09-01T01:13:42Z</time>
  <course>209.53</course>
  <speed>1.0</speed>
  <fix>3d</fix>
</trkpt>
<trkpt lat="33.8100568" lon="-118.3940426">
  <ele>-25.834</ele>
  <time>2026-09-01T01:13:42Z</time>
  <course>210.54</course>
  <speed>0.9724710792614863</speed>
  <fix>3d</fix>
</trkpt>
<trkpt lat="33.8100583" lon="-118.3940414">
  <ele>-25.32</ele>
  <time>2026-09-01T01:13:42Z</time>
  <course>209.53</course>
  <speed>1.0</speed>
  <fix>3d</fix>
</trkpt>
<trkpt lat="33.810056" lon="-118.3940431">
  <ele>-25.801</ele>
  <time>2026-09-01T01:13:42Z</time>
  <course>210.54</course>
  <speed>0.9724710792614863</speed>
  <fix>3d</fix>
</trkpt>
<trkpt lat="33.8100568" lon="-118.3940424">
  <ele>-25.26</ele>
  <time>2026-09-01T01:13:42Z</time>
  <course>209.52</course>
  <speed>1.0</speed>
  <fix>3d</fix>
</trkpt>
<trkpt lat="33.8100552" lon="-118.3940437">
  <ele>-25.768</ele>
  <time>2026-09-01T01:13:42Z</time>
  <course>210.54</course>
  <speed>0.9724710792614863</speed>
  <fix>3d</fix>
</trkpt>
<trkpt lat="33.8100568" lon="-118.3940424">
  <ele>-25.26</ele>
  <time>2026-09-01T01:13:42Z</time>
  <course>209.52</course>
  <speed>1.0</speed>
  <fix>3d</fix>
</trkpt>
<trkpt lat="33.8100544" lon="-118.3940442">
  <ele>-25.734</ele>
  <time>2026-09-01T01:13:42Z</time>
  <course>210.55</course>
  <speed>0.9724710792614863</speed>
  <fix>3d</fix>
</trkpt>
<trkpt lat="33.8100552" lon="-118.3940435">
  <ele>-25.19</ele>
  <time>2026-09-01T01:13:42Z</time>
  <course>209.52</course>
  <speed>1.0</speed>
  <fix>3d</fix>
</trkpt>
<trkpt lat="33.8100537" lon="-118.3940447">
  <ele>-25.699</ele>
  <time>2026-09-01T01:13:42Z</time>
  <course>210.55</course>
  <speed>0.9724710792614863</speed>
  <fix>3d</fix>
</trkpt>
<trkpt lat="33.8100552" lon="-118.3940435">
  <ele>-25.19</ele>
  <time>2026-09-01T01:13:42Z</time>
  <course>209.52</course>
  <speed>1.0</speed>
  <fix>3d</fix>
</trkpt>
<trkpt lat="33.8100529" lon="-118.3940453">
  <ele>-25.664</ele>
  <time>2026-09-01T01:13:42Z</time>
  <course>210.56</course>
  <speed>0.9724710792614863</speed>
  <fix>3d</fix>
</trkpt>
<trkpt lat="33.8100537" lon="-118.3940446">
  <ele>-25.12</ele>
  <time>2026-09-01T01:13:42Z</time>
  <course>209.53</course>
  <speed>1.0</speed>
  <fix>3d</fix>
</trkpt>
<trkpt lat="33.8100521" lon="-118.3940458">
  <ele>-25.628</ele>
  <time>2026-09-01T01:13:42Z</time>
  <course>210.56</course>
  <speed>0.9724710792614863</speed>
  <fix>3d</fix>
</trkpt>
<trkpt lat="33.8100537" lon="-118.3940446">
  <ele>-25.12</ele>
  <time>2026-09-01T01:13:42Z</time>
  <course>209.53</course>
  <speed>1.0</speed>
  <fix>3d</fix>
</trkpt>
<trkpt lat="33.8100513" lon="-118.3940463">
  <ele>-25.59</ele>
  <time>2026-09-01T01:13:42Z</time>
  <course>210.54</course>
  <speed>0.9724710792614863</speed>
  <fix>3d</fix>
</trkpt>
<trkpt lat="33.810052" lon="-118.3940456">
  <ele>-25.05</ele>
  <time>2026-09-01T01:13:42Z</time>
  <course>209.52</course>
  <speed>1.0</speed>
  <fix>3d</fix>
</trkpt>
<trkpt lat="33.8100505" lon="-118.3940469">
  <ele>-25.551</ele>
  <time>2026-09-01T01:13:42Z</time>
  <course>210.53</course>
  <speed>0.9724710792614863</speed>
  <fix>3d</fix>
</trkpt>
<trkpt lat="33.810052" lon="-118.3940456">
  <ele>-25.05</ele>
  <time>2026-09-01T01:13:42Z</time>
  <course>209.52</course>
  <speed>1.0</speed>
  <fix>3d</fix>
</trkpt>
<trkpt lat="33.8100497" lon="-118.3940474">
  <ele>-25.512</ele>
  <time>2026-09-01T01:13:42Z</time>
  <course>210.55</course>
  <speed>0.9724710792614863</speed>
  <fix>3d</fix>
</trkpt>
<trkpt lat="33.8100505" lon="-118.3940467">
  <ele>-24.98</ele>
  <time>2026-09-01T01:13:42Z</time>
  <course>209.52</course>
  <speed>1.0</speed>
  <fix>3d</fix>
</trkpt>
<trkpt lat="33.810049" lon="-118.3940479">
  <ele>-25.474</ele>
  <time>2026-09-01T01:13:42Z</time>
  <course>210.57</course>
  <speed>0.9724710792614863</speed>
  <fix>3d</fix>
</trkpt>
<trkpt lat="33.8100505" lon="-118.3940467">
  <ele>-24.98</ele>
  <time>2026-09-01T01:13:42Z</time>
  <course>209.52</course>
  <speed>1.0</speed>
  <fix>3d</fix>
</trkpt>
<trkpt lat="33.8100482" lon="-118.3940485">
  <ele>-25.436</ele>
  <time>2026-09-01T01:13:42Z</time>
  <course>210.59</course>
  <speed>0.9724710792614863</speed>
  <fix>3d</fix>
</trkpt>
<trkpt lat="33.810049" lon="-118.3940478">
  <ele>-24.9</ele>
  <time>2026-09-01T01:13:42Z</time>
  <course>209.55</course>
  <speed>1.0</speed>
  <fix>3d</fix>
</trkpt>
<trkpt lat="33.8100474" lon="-118.394049">
  <ele>-25.396</ele>
  <time>2026-09-01T01:13:42Z</time>
  <course>210.6</course>
  <speed>0.9724710792614863</speed>
  <fix>3d</fix>
</trkpt>
<trkpt lat="33.810049" lon="-118.3940478">
  <ele>-24.9</ele>
  <time>2026-09-01T01:13:42Z</time>
  <course>209.55</course>
  <speed>1.0</speed>
  <fix>3d</fix>
</trkpt>
<trkpt lat="33.8100466" lon="-118.3940495">
  <ele>-25.357</ele>
  <time>2026-09-01T01:13:42Z</time>
  <course>210.6</course>
  <speed>0.9724710792614863</speed>
  <fix>3d</fix>
</trkpt>
<trkpt lat="33.8100474" lon="-118.3940488">
  <ele>-24.83</ele>
  <time>2026-09-01T01:13:42Z</time>
  <course>209.55</course>
  <speed>1.0</speed>
  <fix>3d</fix>
</trkpt>
<trkpt lat="33.8100458" lon="-118.3940501">
  <ele>-25.318</ele>
  <time>2026-09-01T01:13:42Z</time>
  <course>210.59</course>
  <speed>0.9724710792614863</speed>
  <fix>3d</fix>
</trkpt>
<trkpt lat="33.8100474" lon="-118.3940488">
  <ele>-24.83</ele>
  <time>2026-09-01T01:13:42Z</time>
  <course>209.55</course>
  <speed>1.0</speed>
  <fix>3d</fix>
</trkpt>
<trkpt lat="33.8100451" lon="-118.3940506">
  <ele>-25.28</ele>
  <time>2026-09-01T01:13:42Z</time>
  <course>210.59</course>
  <speed>0.9724710792614863</speed>
  <fix>3d</fix>
</trkpt>
<trkpt lat="33.8100458" lon="-118.3940499">
  <ele>-24.75</ele>
  <time>2026-09-01T01:13:42Z</time>
  <course>209.53</course>
  <speed>1.0</speed>
  <fix>3d</fix>
</trkpt>
<trkpt lat="33.8100443" lon="-118.3940511">
  <ele>-25.242</ele>
  <time>2026-09-01T01:13:42Z</time>
  <course>210.59</course>
  <speed>0.9724710792614863</speed>
  <fix>3d</fix>
</trkpt>
<trkpt lat="33.8100458" lon="-118.3940499">
  <ele>-24.75</ele>
  <time>2026-09-01T01:13:42Z</time>
  <course>209.53</course>
  <speed>1.0</speed>
  <fix>3d</fix>
</trkpt>
<trkpt lat="33.8100435" lon="-118.3940517">
  <ele>-25.205</ele>
  <time>2026-09-01T01:13:42Z</time>
  <course>210.6</course>
  <speed>0.9724710792614863</speed>
  <fix>3d</fix>
</trkpt>
<trkpt lat="33.8100442" lon="-118.394051">
  <ele>-24.67</ele>
  <time>2026-09-01T01:13:42Z</time>
  <course>209.55</course>
  <speed>1.0</speed>
  <fix>3d</fix>
</trkpt>
<trkpt lat="33.8100427" lon="-118.3940522">
  <ele>-25.168</ele>
  <time>2026-09-01T01:13:42Z</time>
  <course>210.62</course>
  <speed>0.9724710792614863</speed>
  <fix>3d</fix>
</trkpt>
<trkpt lat="33.8100442" lon="-118.394051">
  <ele>-24.67</ele>
  <time>2026-09-01T01:13:42Z</time>
  <course>209.55</course>
  <speed>1.0</speed>
  <fix>3d</fix>
</trkpt>
<trkpt lat="33.8100419" lon="-118.3940527">
  <ele>-25.131</ele>
  <time>2026-09-01T01:13:43Z</time>
  <course>210.63</course>
  <speed>0.9724710792614863</speed>
  <fix>3d</fix>
</trkpt>
<trkpt lat="33.8100426" lon="-118.394052">
  <ele>-24.6</ele>
  <time>2026-09-01T01:13:43Z</time>
  <course>209.56</course>
  <speed>1.0</speed>
  <fix>3d</fix>
</trkpt>
<trkpt lat="33.8100411" lon="-118.3940533">
  <ele>-25.096</ele>
  <time>2026-09-01T01:13:43Z</time>
  <course>210.65</course>
  <speed>0.9724710792614863</speed>
  <fix>3d</fix>
</trkpt>
<trkpt lat="33.8100426" lon="-118.394052">
  <ele>-24.6</ele>
  <time>2026-09-01T01:13:43Z</time>
  <course>209.56</course>
  <speed>1.0</speed>
  <fix>3d</fix>
</trkpt>
<trkpt lat="33.8100403" lon="-118.3940538">
  <ele>-25.063</ele>
  <time>2026-09-01T01:13:43Z</time>
  <course>210.69</course>
  <speed>0.9724710792614863</speed>
  <fix>3d</fix>
</trkpt>
<trkpt lat="33.8100411" lon="-118.3940531">
  <ele>-24.53</ele>
  <time>2026-09-01T01:13:43Z</time>
  <course>209.61</course>
  <speed>1.0</speed>
  <fix>3d</fix>
</trkpt>
<trkpt lat="33.8100396" lon="-118.3940543">
  <ele>-25.031</ele>
  <time>2026-09-01T01:13:43Z</time>
  <course>210.72</course>
  <speed>0.9638464608017192</speed>
  <fix>3d</fix>
</trkpt>
<trkpt lat="33.8100411" lon="-118.3940531">
  <ele>-24.53</ele>
  <time>2026-09-01T01:13:43Z</time>
  <course>209.61</course>
  <speed>1.0</speed>
  <fix>3d</fix>
</trkpt>
<trkpt lat="33.8100388" lon="-118.3940549">
  <ele>-25.002</ele>
  <time>2026-09-01T01:13:43Z</time>
  <course>210.75</course>
  <speed>0.9724710792614863</speed>
  <fix>3d</fix>
</trkpt>
<trkpt lat="33.8100395" lon="-118.3940542">
  <ele>-24.47</ele>
  <time>2026-09-01T01:13:43Z</time>
  <course>209.67</course>
  <speed>1.0</speed>
  <fix>3d</fix>
</trkpt>
<trkpt lat="33.810038" lon="-118.3940554">
  <ele>-24.978</ele>
  <time>2026-09-01T01:13:43Z</time>
  <course>210.77</course>
  <speed>0.9724710792614863</speed>
  <fix>3d</fix>
</trkpt>
<trkpt lat="33.8100395" lon="-118.3940542">
  <ele>-24.47</ele>
  <time>2026-09-01T01:13:43Z</time>
  <course>209.67</course>
  <speed>1.0</speed>
  <fix>3d</fix>
</trkpt>
<trkpt lat="33.8100372" lon="-118.394056">
  <ele>-24.959</ele>
  <time>2026-09-01T01:13:43Z</time>
  <course>210.79</course>
  <speed>0.9724710792614863</speed>
  <fix>3d</fix>
</trkpt>
<trkpt lat="33.810038" lon="-118.3940553">
  <ele>-24.41</ele>
  <time>2026-09-01T01:13:43Z</time>
  <course>209.69</course>
  <speed>1.0</speed>
  <fix>3d</fix>
</trkpt>
<trkpt lat="33.8100364" lon="-118.3940565">
  <ele>-24.946</ele>
  <time>2026-09-01T01:13:43Z</time>
  <course>210.79</course>
  <speed>0.9724710792614863</speed>
  <fix>3d</fix>
</trkpt>
<trkpt lat="33.810038" lon="-118.3940553">
  <ele>-24.41</ele>
  <time>2026-09-01T01:13:43Z</time>
  <course>209.69</course>
  <speed>1.0</speed>
  <fix>3d</fix>
</trkpt>
<trkpt lat="33.8100357" lon="-118.394057">
  <ele>-24.941</ele>
  <time>2026-09-01T01:13:43Z</time>
  <course>210.77</course>
  <speed>0.9724710792614863</speed>
  <fix>3d</fix>
</trkpt>
<trkpt lat="33.8100364" lon="-118.3940563">
  <ele>-24.37</ele>
  <time>2026-09-01T01:13:43Z</time>
  <course>209.67</course>
  <speed>1.0</speed>
  <fix>3d</fix>
</trkpt>
<trkpt lat="33.8100349" lon="-118.3940576">
  <ele>-24.945</ele>
  <time>2026-09-01T01:13:43Z</time>
  <course>210.74</course>
  <speed>0.9724710792614863</speed>
  <fix>3d</fix>
</trkpt>
<trkpt lat="33.8100364" lon="-118.3940563">
  <ele>-24.37</ele>
  <time>2026-09-01T01:13:43Z</time>
  <course>209.67</course>
  <speed>1.0</speed>
  <fix>3d</fix>
</trkpt>
<trkpt lat="33.8100341" lon="-118.3940581">
  <ele>-24.961</ele>
  <time>2026-09-01T01:13:43Z</time>
  <course>210.73</course>
  <speed>0.9724710792614863</speed>
  <fix>3d</fix>
</trkpt>
<trkpt lat="33.8100349" lon="-118.3940574">
  <ele>-24.36</ele>
  <time>2026-09-01T01:13:43Z</time>
  <course>209.65</course>
  <speed>0.99</speed>
  <fix>3d</fix>
</trkpt>
<trkpt lat="33.8100333" lon="-118.3940586">
  <ele>-24.984</ele>
  <time>2026-09-01T01:13:43Z</time>
  <course>210.72</course>
  <speed>0.9724710792614863</speed>
  <fix>3d</fix>
</trkpt>
<trkpt lat="33.8100349" lon="-118.3940574">
  <ele>-24.36</ele>
  <time>2026-09-01T01:13:43Z</time>
  <course>209.65</course>
  <speed>0.99</speed>
  <fix>3d</fix>
</trkpt>
<trkpt lat="33.8100325" lon="-118.3940592">
  <ele>-25.009</ele>
  <time>2026-09-01T01:13:43Z</time>
  <course>210.72</course>
  <speed>0.9724710792614863</speed>
  <fix>3d</fix>
</trkpt>
<trkpt lat="33.8100333" lon="-118.3940585">
  <ele>-24.39</ele>
  <time>2026-09-01T01:13:43Z</time>
  <course>209.65</course>
  <speed>0.99</speed>
  <fix>3d</fix>
</trkpt>
<trkpt lat="33.8100318" lon="-118.3940597">
  <ele>-25.036</ele>
  <time>2026-09-01T01:13:43Z</time>
  <course>210.7</course>
  <speed>0.9724710792614863</speed>
  <fix>3d</fix>
</trkpt>
<trkpt lat="33.8100333" lon="-118.3940585">
  <ele>-24.39</ele>
  <time>2026-09-01T01:13:43Z</time>
  <course>209.65</course>
  <speed>0.99</speed>
  <fix>3d</fix>
</trkpt>
<trkpt lat="33.810031" lon="-118.3940602">
  <ele>-25.069</ele>
  <time>2026-09-01T01:13:43Z</time>
  <course>210.68</course>
  <speed>0.9724710792614863</speed>
  <fix>3d</fix>
</trkpt>
<trkpt lat="33.8100318" lon="-118.3940595">
  <ele>-24.43</ele>
  <time>2026-09-01T01:13:43Z</time>
  <course>209.61</course>
  <speed>1.0</speed>
  <fix>3d</fix>
</trkpt>
<trkpt lat="33.8100302" lon="-118.3940608">
  <ele>-25.103</ele>
  <time>2026-09-01T01:13:43Z</time>
  <course>210.66</course>
  <speed>0.9724710792614863</speed>
  <fix>3d</fix>
</trkpt>
<trkpt lat="33.8100318" lon="-118.3940595">
  <ele>-24.43</ele>
  <time>2026-09-01T01:13:43Z</time>
  <course>209.61</course>
  <speed>1.0</speed>
  <fix>3d</fix>
</trkpt>
<trkpt lat="33.8100294" lon="-118.3940613">
  <ele>-25.135</ele>
  <time>2026-09-01T01:13:43Z</time>
  <course>210.65</course>
  <speed>0.9724710792614863</speed>
  <fix>3d</fix>
</trkpt>
<trkpt lat="33.8100302" lon="-118.3940606">
  <ele>-24.49</ele>
  <time>2026-09-01T01:13:43Z</time>
  <course>209.6</course>
  <speed>1.0</speed>
  <fix>3d</fix>
</trkpt>
<trkpt lat="33.8100286" lon="-118.3940618">
  <ele>-25.166</ele>
  <time>2026-09-01T01:13:43Z</time>
  <course>210.63</course>
  <speed>0.9724710792614863</speed>
  <fix>3d</fix>
</trkpt>
<trkpt lat="33.8100302" lon="-118.3940606">
  <ele>-24.49</ele>
  <time>2026-09-01T01:13:43Z</time>
  <course>209.6</course>
  <speed>1.0</speed>
  <fix>3d</fix>
</trkpt>
<trkpt lat="33.8100278" lon="-118.3940624">
  <ele>-25.196</ele>
  <time>2026-09-01T01:13:43Z</time>
  <course>210.62</course>
  <speed>0.9724710792614863</speed>
  <fix>3d</fix>
</trkpt>
<trkpt lat="33.8100286" lon="-118.3940617">
  <ele>-24.55</ele>
  <time>2026-09-01T01:13:43Z</time>
  <course>209.6</course>
  <speed>1.0</speed>
  <fix>3d</fix>
</trkpt>
<trkpt lat="33.8100271" lon="-118.3940629">
  <ele>-25.226</ele>
  <time>2026-09-01T01:13:43Z</time>
  <course>210.6</course>
  <speed>0.9724710792614863</speed>
  <fix>3d</fix>
</trkpt>
<trkpt lat="33.8100286" lon="-118.3940617">
  <ele>-24.55</ele>
  <time>2026-09-01T01:13:43Z</time>
  <course>209.6</course>
  <speed>1.0</speed>
  <fix>3d</fix>
</trkpt>
<trkpt lat="33.8100263" lon="-118.3940634">
  <ele>-25.252</ele>
  <time>2026-09-01T01:13:43Z</time>
  <course>210.59</course>
  <speed>0.9724710792614863</speed>
  <fix>3d</fix>
</trkpt>
<trkpt lat="33.8100271" lon="-118.3940627">
  <ele>-24.6</ele>
  <time>2026-09-01T01:13:43Z</time>
  <course>209.58</course>
  <speed>1.0</speed>
  <fix>3d</fix>
</trkpt>
<trkpt lat="33.8100255" lon="-118.394064">
  <ele>-25.274</ele>
  <time>2026-09-01T01:13:43Z</time>
  <course>210.58</course>
  <speed>0.9724710792614863</speed>
  <fix>3d</fix>
</trkpt>
<trkpt lat="33.8100271" lon="-118.3940627">
  <ele>-24.6</ele>
  <time>2026-09-01T01:13:43Z</time>
  <course>209.58</course>
  <speed>1.0</speed>
  <fix>3d</fix>
</trkpt>
<trkpt lat="33.8100247" lon="-118.3940645">
  <ele>-25.292</ele>
  <time>2026-09-01T01:13:43Z</time>
  <course>210.57</course>
  <speed>0.9775479527879949</speed>
  <fix>3d</fix>
</trkpt>
<trkpt lat="33.8100254" lon="-118.3940638">
  <ele>-24.64</ele>
  <time>2026-09-01T01:13:43Z</time>
  <course>209.55</course>
  <speed>1.0</speed>
  <fix>3d</fix>
</trkpt>
<trkpt lat="33.810024" lon="-118.394065">
  <ele>-25.305</ele>
  <time>2026-09-01T01:13:43Z</time>
  <course>210.58</course>
  <speed>0.9775479527879949</speed>
  <fix>3d</fix>
</trkpt>
<trkpt lat="33.8100254" lon="-118.3940638">
  <ele>-24.64</ele>
  <time>2026-09-01T01:13:43Z</time>
  <course>209.55</course>
  <speed>1.0</speed>
  <fix>3d</fix>
</trkpt>
<trkpt lat="33.8100232" lon="-118.3940656">
  <ele>-25.305</ele>
  <time>2026-09-01T01:13:43Z</time>
  <course>210.6</course>
  <speed>0.9775479527879949</speed>
  <fix>3d</fix>
</trkpt>
<trkpt lat="33.8100239" lon="-118.3940649">
  <ele>-24.67</ele>
  <time>2026-09-01T01:13:43Z</time>
  <course>209.57</course>
  <speed>1.0</speed>
  <fix>3d</fix>
</trkpt>
<trkpt lat="33.8100224" lon="-118.3940661">
  <ele>-25.293</ele>
  <time>2026-09-01T01:13:43Z</time>
  <course>210.61</course>
  <speed>0.9775479527879949</speed>
  <fix>3d</fix>
</trkpt>
<trkpt lat="33.8100239" lon="-118.3940649">
  <ele>-24.67</ele>
  <time>2026-09-01T01:13:43Z</time>
  <course>209.57</course>
  <speed>1.0</speed>
  <fix>3d</fix>
</trkpt>
<trkpt lat="33.8100216" lon="-118.3940666">
  <ele>-25.272</ele>
  <time>2026-09-01T01:13:43Z</time>
  <course>210.64</course>
  <speed>0.9775479527879949</speed>
  <fix>3d</fix>
</trkpt>
<trkpt lat="33.8100223" lon="-118.394066">
  <ele>-24.67</ele>
  <time>2026-09-01T01:13:43Z</time>
  <course>209.6</course>
  <speed>1.0</speed>
  <fix>3d</fix>
</trkpt>
<trkpt lat="33.8100208" lon="-118.3940672">
  <ele>-25.243</ele>
  <time>2026-09-01T01:13:43Z</time>
  <course>210.65</course>
  <speed>0.9775479527879949</speed>
  <fix>3d</fix>
</trkpt>
<trkpt lat="33.8100223" lon="-118.394066">
  <ele>-24.67</ele>
  <time>2026-09-01T01:13:43Z</time>
  <course>209.6</course>
  <speed>1.0</speed>
  <fix>3d</fix>
</trkpt>
<trkpt lat="33.81002" lon="-118.3940677">
  <ele>-25.207</ele>
  <time>2026-09-01T01:13:43Z</time>
  <course>210.65</course>
  <speed>0.9724710792614863</speed>
  <fix>3d</fix>
</trkpt>
<trkpt lat="33.8100208" lon="-118.394067">
  <ele>-24.63</ele>
  <time>2026-09-01T01:13:43Z</time>
  <course>209.59</course>
  <speed>1.0</speed>
  <fix>3d</fix>
</trkpt>
<trkpt lat="33.8100193" lon="-118.3940682">
  <ele>-25.169</ele>
  <time>2026-09-01T01:13:43Z</time>
  <course>210.65</course>
  <speed>0.9775479527879949</speed>
  <fix>3d</fix>
</trkpt>
<trkpt lat="33.8100208" lon="-118.394067">
  <ele>-24.63</ele>
  <time>2026-09-01T01:13:43Z</time>
  <course>209.59</course>
  <speed>1.0</speed>
  <fix>3d</fix>
</trkpt>
<trkpt lat="33.8100185" lon="-118.3940688">
  <ele>-25.132</ele>
  <time>2026-09-01T01:13:43Z</time>
  <course>210.66</course>
  <speed>0.9724710792614863</speed>
  <fix>3d</fix>
</trkpt>
<trkpt lat="33.8100192" lon="-118.3940681">
  <ele>-24.57</ele>
  <time>2026-09-01T01:13:43Z</time>
  <course>209.59</course>
  <speed>1.0</speed>
  <fix>3d</fix>
</trkpt>
<trkpt lat="33.8100177" lon="-118.3940693">
  <ele>-25.099</ele>
  <time>2026-09-01T01:13:43Z</time>
  <course>210.66</course>
  <speed>0.9775479527879949</speed>
  <fix>3d</fix>
</trkpt>
<trkpt lat="33.8100192" lon="-118.3940681">
  <ele>-24.57</ele>
  <time>2026-09-01T01:13:43Z</time>
  <course>209.59</course>
  <speed>1.0</speed>
  <fix>3d</fix>
</trkpt>
<trkpt lat="33.8100169" lon="-118.3940698">
  <ele>-25.068</ele>
  <time>2026-09-01T01:13:43Z</time>
  <course>210.67</course>
  <speed>0.9724710792614863</speed>
  <fix>3d</fix>
</trkpt>
<trkpt lat="33.8100175" lon="-118.3940692">
  <ele>-24.51</ele>
  <time>2026-09-01T01:13:43Z</time>
  <course>209.61</course>
  <speed>1.0</speed>
  <fix>3d</fix>
</trkpt>
<trkpt lat="33.8100161" lon="-118.3940704">
  <ele>-25.04</ele>
  <time>2026-09-01T01:13:43Z</time>
  <course>210.67</course>
  <speed>0.9724710792614863</speed>
  <fix>3d</fix>
</trkpt>
<trkpt lat="33.8100175" lon="-118.3940692">
  <ele>-24.51</ele>
  <time>2026-09-01T01:13:43Z</time>
  <course>209.61</course>
  <speed>1.0</speed>
  <fix>3d</fix>
</trkpt>
<trkpt lat="33.8100153" lon="-118.3940709">
  <ele>-25.014</ele>
  <time>2026-09-01T01:13:43Z</time>
  <course>210.7</course>
  <speed>0.9724710792614863</speed>
  <fix>3d</fix>
</trkpt>
<trkpt lat="33.810016" lon="-118.3940703">
  <ele>-24.46</ele>
  <time>2026-09-01T01:13:43Z</time>
  <course>209.64</course>
  <speed>1.0</speed>
  <fix>3d</fix>
</trkpt>
<trkpt lat="33.8100146" lon="-118.3940715">
  <ele>-24.992</ele>
  <time>2026-09-01T01:13:43Z</time>
  <course>210.71</course>
  <speed>0.9724710792614863</speed>
  <fix>3d</fix>
</trkpt>
<trkpt lat="33.810016" lon="-118.3940703">
  <ele>-24.46</ele>
  <time>2026-09-01T01:13:43Z</time>
  <course>209.64</course>
  <speed>1.0</speed>
  <fix>3d</fix>
</trkpt>
<trkpt lat="33.8100138" lon="-118.394072">
  <ele>-24.978</ele>
  <time>2026-09-01T01:13:43Z</time>
  <course>210.73</course>
  <speed>0.9724710792614863</speed>
  <fix>3d</fix>
</trkpt>
<trkpt lat="33.8100144" lon="-118.3940714">
  <ele>-24.42</ele>
  <time>2026-09-01T01:13:43Z</time>
  <course>209.68</course>
  <speed>1.0</speed>
  <fix>3d</fix>
</trkpt>
<trkpt lat="33.810013" lon="-118.3940725">
  <ele>-24.977</ele>
  <time>2026-09-01T01:13:43Z</time>
  <course>210.73</course>
  <speed>0.9638464608017192</speed>
  <fix>3d</fix>
</trkpt>
<trkpt lat="33.8100144" lon="-118.3940714">
  <ele>-24.42</ele>
  <time>2026-09-01T01:13:43Z</time>
  <course>209.68</course>
  <speed>1.0</speed>
  <fix>3d</fix>
</trkpt>
<trkpt lat="33.8100122" lon="-118.3940731">
  <ele>-24.989</ele>
  <time>2026-09-01T01:13:43Z</time>
  <course>210.73</course>
  <speed>0.9724710792614863</speed>
  <fix>3d</fix>
</trkpt>
<trkpt lat="33.8100129" lon="-118.3940724">
  <ele>-24.4</ele>
  <time>2026-09-01T01:13:43Z</time>
  <course>209.69</course>
  <speed>1.0</speed>
  <fix>3d</fix>
</trkpt>
<trkpt lat="33.8100114" lon="-118.3940736">
  <ele>-25.012</ele>
  <time>2026-09-01T01:13:43Z</time>
  <course>210.72</course>
  <speed>0.9638464608017192</speed>
  <fix>3d</fix>
</trkpt>
<trkpt lat="33.8100129" lon="-118.3940724">
  <ele>-24.4</ele>
  <time>2026-09-01T01:13:43Z</time>
  <course>209.69</course>
  <speed>1.0</speed>
  <fix>3d</fix>
</trkpt>
<trkpt lat="33.8100106" lon="-118.3940741">
  <ele>-25.04</ele>
  <time>2026-09-01T01:13:43Z</time>
  <course>210.72</course>
  <speed>0.9638464608017192</speed>
  <fix>3d</fix>
</trkpt>
<trkpt lat="33.8100113" lon="-118.3940735">
  <ele>-24.42</ele>
  <time>2026-09-01T01:13:43Z</time>
  <course>209.69</course>
  <speed>1.0</speed>
  <fix>3d</fix>
</trkpt>
<trkpt lat="33.8100099" lon="-118.3940747">
  <ele>-25.067</ele>
  <time>2026-09-01T01:13:43Z</time>
  <course>210.72</course>
  <speed>0.9638464608017192</speed>
  <fix>3d</fix>
</trkpt>
<trkpt lat="33.8100113" lon="-118.3940735">
  <ele>-24.42</ele>
  <time>2026-09-01T01:13:43Z</time>
  <course>209.69</course>
  <speed>1.0</speed>
  <fix>3d</fix>
</trkpt>
<trkpt lat="33.8100091" lon="-118.3940752">
  <ele>-25.093</ele>
  <time>2026-09-01T01:13:43Z</time>
  <course>210.72</course>
  <speed>0.9638464608017192</speed>
  <fix>3d</fix>
</trkpt>
<trkpt lat="33.8100098" lon="-118.3940746">
  <ele>-24.46</ele>
  <time>2026-09-01T01:13:43Z</time>
  <course>209.71</course>
  <speed>1.0</speed>
  <fix>3d</fix>
</trkpt>
<trkpt lat="33.8100083" lon="-118.3940757">
  <ele>-25.12</ele>
  <time>2026-09-01T01:13:43Z</time>
  <course>210.71</course>
  <speed>0.9638464608017192</speed>
  <fix>3d</fix>
</trkpt>
<trkpt lat="33.8100098" lon="-118.3940746">
  <ele>-24.46</ele>
  <time>2026-09-01T01:13:43Z</time>
  <course>209.71</course>
  <speed>1.0</speed>
  <fix>3d</fix>
</trkpt>
<trkpt lat="33.8100075" lon="-118.3940763">
  <ele>-25.145</ele>
  <time>2026-09-01T01:13:43Z</time>
  <course>210.69</course>
  <speed>0.9724710792614863</speed>
  <fix>3d</fix>
</trkpt>
<trkpt lat="33.8100082" lon="-118.3940756">
  <ele>-24.51</ele>
  <time>2026-09-01T01:13:43Z</time>
  <course>209.68</course>
  <speed>1.0</speed>
  <fix>3d</fix>
</trkpt>
<trkpt lat="33.8100067" lon="-118.3940768">
  <ele>-25.167</ele>
  <time>2026-09-01T01:13:43Z</time>
  <course>210.66</course>
  <speed>0.9638464608017192</speed>
  <fix>3d</fix>
</trkpt>
<trkpt lat="33.8100082" lon="-118.3940756">
  <ele>-24.51</ele>
  <time>2026-09-01T01:13:43Z</time>
  <course>209.68</course>
  <speed>1.0</speed>
  <fix>3d</fix>
</trkpt>
<trkpt lat="33.8100059" lon="-118.3940773">
  <ele>-25.186</ele>
  <time>2026-09-01T01:13:43Z</time>
  <course>210.65</course>
  <speed>0.9724710792614863</speed>
  <fix>3d</fix>
</trkpt>
<trkpt lat="33.8100066" lon="-118.3940767">
  <ele>-24.55</ele>
  <time>2026-09-01T01:13:43Z</time>
  <course>209.64</course>
  <speed>1.0</speed>
  <fix>3d</fix>
</trkpt>
<trkpt lat="33.8100052" lon="-118.3940779">
  <ele>-25.202</ele>
  <time>2026-09-01T01:13:43Z</time>
  <course>210.65</course>
  <speed>0.9638464608017192</speed>
  <fix>3d</fix>
</trkpt>
<trkpt lat="33.8100066" lon="-118.3940767">
  <ele>-24.55</ele>
  <time>2026-09-01T01:13:43Z</time>
  <course>209.64</course>
  <speed>1.0</speed>
  <fix>3d</fix>
</trkpt>
<trkpt lat="33.8100044" lon="-118.3940784">
  <ele>-25.209</ele>
  <time>2026-09-01T01:13:43Z</time>
  <course>210.65</course>
  <speed>0.9724710792614863</speed>
  <fix>3d</fix>
</trkpt>
<trkpt lat="33.8100051" lon="-118.3940778">
  <ele>-24.58</ele>
  <time>2026-09-01T01:13:43Z</time>
  <course>209.65</course>
  <speed>1.0</speed>
  <fix>3d</fix>
</trkpt>
<trkpt lat="33.8100036" lon="-118.394079">
  <ele>-25.208</ele>
  <time>2026-09-01T01:13:43Z</time>
  <course>210.65</course>
  <speed>0.9638464608017192</speed>
  <fix>3d</fix>
</trkpt>
<trkpt lat="33.8100051" lon="-118.3940778">
  <ele>-24.58</ele>
  <time>2026-09-01T01:13:43Z</time>
  <course>209.65</course>
  <speed>1.0</speed>
  <fix>3d</fix>
</trkpt>
<trkpt lat="33.8100028" lon="-118.3940795">
  <ele>-25.2</ele>
  <time>2026-09-01T01:13:43Z</time>
  <course>210.65</course>
  <speed>0.9724710792614863</speed>
  <fix>3d</fix>
</trkpt>
<trkpt lat="33.8100035" lon="-118.3940789">
  <ele>-24.59</ele>
  <time>2026-09-01T01:13:43Z</time>
  <course>209.65</course>
  <speed>1.0</speed>
  <fix>3d</fix>
</trkpt>
<trkpt lat="33.810002" lon="-118.39408">
  <ele>-25.185</ele>
  <time>2026-09-01T01:13:43Z</time>
  <course>210.63</course>
  <speed>0.9638464608017192</speed>
  <fix>3d</fix>
</trkpt>
<trkpt lat="33.8100035" lon="-118.3940789">
  <ele>-24.59</ele>
  <time>2026-09-01T01:13:43Z</time>
  <course>209.65</course>
  <speed>1.0</speed>
  <fix>3d</fix>
</trkpt>
<trkpt lat="33.8100013" lon="-118.3940806">
  <ele>-25.167</ele>
  <time>2026-09-01T01:13:43Z</time>
  <course>210.61</course>
  <speed>0.9638464608017192</speed>
  <fix>3d</fix>
</trkpt>
<trkpt lat="33.810002" lon="-118.3940799">
  <ele>-24.57</ele>
  <time>2026-09-01T01:13:43Z</time>
  <course>209.61</course>
  <speed>1.0</speed>
  <fix>3d</fix>
</trkpt>
<trkpt lat="33.8100005" lon="-118.3940811">
  <ele>-25.149</ele>
  <time>2026-09-01T01:13:43Z</time>
  <course>210.59</course>
  <speed>0.9638464608017192</speed>
  <fix>3d</fix>
</trkpt>
<trkpt lat="33.810002" lon="-118.3940799">
  <ele>-24.57</ele>
  <time>2026-09-01T01:13:43Z</time>
  <course>209.61</course>
  <speed>1.0</speed>
  <fix>3d</fix>
</trkpt>
<trkpt lat="33.8099997" lon="-118.3940816">
  <ele>-25.131</ele>
  <time>2026-09-01T01:13:43Z</time>
  <course>210.58</course>
  <speed>0.9724710792614863</speed>
  <fix>3d</fix>
</trkpt>
<trkpt lat="33.8100003" lon="-118.394081">
  <ele>-24.54</ele>
  <time>2026-09-01T01:13:43Z</time>
  <course>209.58</course>
  <speed>1.0</speed>
  <fix>3d</fix>
</trkpt>
<trkpt lat="33.8099989" lon="-118.3940822">
  <ele>-25.113</ele>
  <time>2026-09-01T01:13:43Z</time>
  <course>210.56</course>
  <speed>0.9638464608017192</speed>
  <fix>3d</fix>
</trkpt>
<trkpt lat="33.8100003" lon="-118.394081">
  <ele>-24.54</ele>
  <time>2026-09-01T01:13:43Z</time>
  <course>209.58</course>
  <speed>1.0</speed>
  <fix>3d</fix>
</trkpt>
<trkpt lat="33.8099981" lon="-118.3940827">
  <ele>-25.094</ele>
  <time>2026-09-01T01:13:43Z</time>
  <course>210.58</course>
  <speed>0.9638464608017192</speed>
  <fix>3d</fix>
</trkpt>
<trkpt lat="33.8099988" lon="-118.3940821">
  <ele>-24.51</ele>
  <time>2026-09-01T01:13:43Z</time>
  <course>209.6</course>
  <speed>1.0</speed>
  <fix>3d</fix>
</trkpt>
<trkpt lat="33.8099973" lon="-118.3940832">
  <ele>-25.076</ele>
  <time>2026-09-01T01:13:43Z</time>
  <course>210.59</course>
  <speed>0.9638464608017192</speed>
  <fix>3d</fix>
</trkpt>
<trkpt lat="33.8099988" lon="-118.3940821">
  <ele>-24.51</ele>
  <time>2026-09-01T01:13:43Z</time>
  <course>209.6</course>
  <speed>1.0</speed>
  <fix>3d</fix>
</trkpt>
<trkpt lat="33.8099966" lon="-118.3940838">
  <ele>-25.063</ele>
  <time>2026-09-01T01:13:43Z</time>
  <course>210.6</course>
  <speed>0.9638464608017192</speed>
  <fix>3d</fix>
</trkpt>
<trkpt lat="33.8099973" lon="-118.3940831">
  <ele>-24.48</ele>
  <time>2026-09-01T01:13:43Z</time>
  <course>209.63</course>
  <speed>0.99</speed>
  <fix>3d</fix>
</trkpt>
<trkpt lat="33.8099958" lon="-118.3940843">
  <ele>-25.056</ele>
  <time>2026-09-01T01:13:43Z</time>
  <course>210.59</course>
  <speed>0.9638464608017192</speed>
  <fix>3d</fix>
</trkpt>
<trkpt lat="33.8099973" lon="-118.3940831">
  <ele>-24.48</ele>
  <time>2026-09-01T01:13:43Z</time>
  <course>209.63</course>
  <speed>0.99</speed>
  <fix>3d</fix>
</trkpt>
<trkpt lat="33.809995" lon="-118.3940848">
  <ele>-25.052</ele>
  <time>2026-09-01T01:13:43Z</time>
  <course>210.59</course>
  <speed>0.9638464608017192</speed>
  <fix>3d</fix>
</trkpt>
<trkpt lat="33.8099957" lon="-118.3940842">
  <ele>-24.46</ele>
  <time>2026-09-01T01:13:43Z</time>
  <course>209.64</course>
  <speed>0.99</speed>
  <fix>3d</fix>
</trkpt>
<trkpt lat="33.8099942" lon="-118.3940854">
  <ele>-25.05</ele>
  <time>2026-09-01T01:13:43Z</time>
  <course>210.58</course>
  <speed>0.9638464608017192</speed>
  <fix>3d</fix>
</trkpt>
<trkpt lat="33.8099957" lon="-118.3940842">
  <ele>-24.46</ele>
  <time>2026-09-01T01:13:43Z</time>
  <course>209.64</course>
  <speed>0.99</speed>
  <fix>3d</fix>
</trkpt>
<trkpt lat="33.8099934" lon="-118.3940859">
  <ele>-25.055</ele>
  <time>2026-09-01T01:13:43Z</time>
  <course>210.58</course>
  <speed>0.9638464608017192</speed>
  <fix>3d</fix>
</trkpt>
<trkpt lat="33.8099941" lon="-118.3940853">
  <ele>-24.46</ele>
  <time>2026-09-01T01:13:43Z</time>
  <course>209.65</course>
  <speed>0.99</speed>
  <fix>3d</fix>
</trkpt>
<trkpt lat="33.8099927" lon="-118.3940864">
  <ele>-25.067</ele>
  <time>2026-09-01T01:13:43Z</time>
  <course>210.57</course>
  <speed>0.9638464608017192</speed>
  <fix>3d</fix>
</trkpt>
<trkpt lat="33.8099941" lon="-118.3940853">
  <ele>-24.46</ele>
  <time>2026-09-01T01:13:43Z</time>
  <course>209.65</course>
  <speed>0.99</speed>
  <fix>3d</fix>
</trkpt>
<trkpt lat="33.8099919" lon="-118.394087">
  <ele>-25.083</ele>
  <time>2026-09-01T01:13:43Z</time>
  <course>210.56</course>
  <speed>0.9638464608017192</speed>
  <fix>3d</fix>
</trkpt>
<trkpt lat="33.8099926" lon="-118.3940863">
  <ele>-24.47</ele>
  <time>2026-09-01T01:13:43Z</time>
  <course>209.64</course>
  <speed>0.99</speed>
  <fix>3d</fix>
</trkpt>
<trkpt lat="33.8099911" lon="-118.3940875">
  <ele>-25.098</ele>
  <time>2026-09-01T01:13:43Z</time>
  <course>210.55</course>
  <speed>0.9638464608017192</speed>
  <fix>3d</fix>
</trkpt>
<trkpt lat="33.8099926" lon="-118.3940863">
  <ele>-24.47</ele>
  <time>2026-09-01T01:13:43Z</time>
  <course>209.64</course>
  <speed>0.99</speed>
  <fix>3d</fix>
</trkpt>
<trkpt lat="33.8099903" lon="-118.394088">
  <ele>-25.113</ele>
  <time>2026-09-01T01:13:43Z</time>
  <course>210.56</course>
  <speed>0.9638464608017192</speed>
  <fix>3d</fix>
</trkpt>
<trkpt lat="33.809991" lon="-118.3940874">
  <ele>-24.49</ele>
  <time>2026-09-01T01:13:43Z</time>
  <course>209.64</course>
  <speed>0.99</speed>
  <fix>3d</fix>
</trkpt>
<trkpt lat="33.8099895" lon="-118.3940886">
  <ele>-25.124</ele>
  <time>2026-09-01T01:13:43Z</time>
  <course>210.55</course>
  <speed>0.9638464608017192</speed>
  <fix>3d</fix>
</trkpt>
<trkpt lat="33.809991" lon="-118.3940874">
  <ele>-24.49</ele>
  <time>2026-09-01T01:13:43Z</time>
  <course>209.64</course>
  <speed>0.99</speed>
  <fix>3d</fix>
</trkpt>
<trkpt lat="33.8099888" lon="-118.3940891">
  <ele>-25.133</ele>
  <time>2026-09-01T01:13:43Z</time>
  <course>210.56</course>
  <speed>0.9724710792614863</speed>
  <fix>3d</fix>
</trkpt>
<trkpt lat="33.8099895" lon="-118.3940885">
  <ele>-24.52</ele>
  <time>2026-09-01T01:13:43Z</time>
  <course>209.63</course>
  <speed>0.99</speed>
  <fix>3d</fix>
</trkpt>
<trkpt lat="33.809988" lon="-118.3940897">
  <ele>-25.142</ele>
  <time>2026-09-01T01:13:43Z</time>
  <course>210.56</course>
  <speed>0.9638464608017192</speed>
  <fix>3d</fix>
</trkpt>
<trkpt lat="33.8099895" lon="-118.3940885">
  <ele>-24.52</ele>
  <time>2026-09-01T01:13:43Z</time>
  <course>209.63</course>
  <speed>0.99</speed>
  <fix>3d</fix>
</trkpt>
<trkpt lat="33.8099872" lon="-118.3940902">
  <ele>-25.15</ele>
  <time>2026-09-01T01:13:43Z</time>
  <course>210.55</course>
  <speed>0.9724710792614863</speed>
  <fix>3d</fix>
</trkpt>
<trkpt lat="33.8099879" lon="-118.3940895">
  <ele>-24.54</ele>
  <time>2026-09-01T01:13:43Z</time>
  <course>209.61</course>
  <speed>0.99</speed>
  <fix>3d</fix>
</trkpt>
<trkpt lat="33.8099864" lon="-118.3940907">
  <ele>-25.156</ele>
  <time>2026-09-01T01:13:43Z</time>
  <course>210.54</course>
  <speed>0.9638464608017192</speed>
  <fix>3d</fix>
</trkpt>
<trkpt lat="33.8099879" lon="-118.3940895">
  <ele>-24.54</ele>
  <time>2026-09-01T01:13:43Z</time>
  <course>209.61</course>
  <speed>0.99</speed>
  <fix>3d</fix>
</trkpt>
<trkpt lat="33.8099856" lon="-118.3940913">
  <ele>-25.158</ele>
  <time>2026-09-01T01:13:43Z</time>
  <course>210.53</course>
  <speed>0.9724710792614863</speed>
  <fix>3d</fix>
</trkpt>
<trkpt lat="33.8099864" lon="-118.3940906">
  <ele>-24.55</ele>
  <time>2026-09-01T01:13:43Z</time>
  <course>209.58</course>
  <speed>0.99</speed>
  <fix>3d</fix>
</trkpt>
<trkpt lat="33.8099849" lon="-118.3940918">
  <ele>-25.158</ele>
  <time>2026-09-01T01:13:43Z</time>
  <course>210.53</course>
  <speed>0.9638464608017192</speed>
  <fix>3d</fix>
</trkpt>
<trkpt lat="33.8099864" lon="-118.3940906">
  <ele>-24.55</ele>
  <time>2026-09-01T01:13:43Z</time>
  <course>209.58</course>
  <speed>0.99</speed>
  <fix>3d</fix>
</trkpt>
<trkpt lat="33.8099841" lon="-118.3940923">
  <ele>-25.156</ele>
  <time>2026-09-01T01:13:43Z</time>
  <course>210.52</course>
  <speed>0.9724710792614863</speed>
  <fix>3d</fix>
</trkpt>
<trkpt lat="33.8099847" lon="-118.3940917">
  <ele>-24.56</ele>
  <time>2026-09-01T01:13:43Z</time>
  <course>209.56</course>
  <speed>0.99</speed>
  <fix>3d</fix>
</trkpt>
<trkpt lat="33.8099833" lon="-118.3940929">
  <ele>-25.151</ele>
  <time>2026-09-01T01:13:43Z</time>
  <course>210.52</course>
  <speed>0.9638464608017192</speed>
  <fix>3d</fix>
</trkpt>
<trkpt lat="33.8099847" lon="-118.3940917">
  <ele>-24.56</ele>
  <time>2026-09-01T01:13:43Z</time>
  <course>209.56</course>
  <speed>0.99</speed>
  <fix>3d</fix>
</trkpt>
<trkpt lat="33.8099825" lon="-118.3940934">
  <ele>-25.144</ele>
  <time>2026-09-01T01:13:43Z</time>
  <course>210.53</course>
  <speed>0.9724710792614863</speed>
  <fix>3d</fix>
</trkpt>
<trkpt lat="33.8099832" lon="-118.3940927">
  <ele>-24.55</ele>
  <time>2026-09-01T01:13:43Z</time>
  <course>209.56</course>
  <speed>0.99</speed>
  <fix>3d</fix>
</trkpt>
<trkpt lat="33.8099817" lon="-118.3940939">
  <ele>-25.138</ele>
  <time>2026-09-01T01:13:43Z</time>
  <course>210.53</course>
  <speed>0.9638464608017192</speed>
  <fix>3d</fix>
</trkpt>
<trkpt lat="33.8099832" lon="-118.3940927">
  <ele>-24.55</ele>
  <time>2026-09-01T01:13:43Z</time>
  <course>209.56</course>
  <speed>0.99</speed>
  <fix>3d</fix>
</trkpt>
<trkpt lat="33.8099809" lon="-118.3940945">
  <ele>-25.132</ele>
  <time>2026-09-01T01:13:43Z</time>
  <course>210.56</course>
  <speed>0.9638464608017192</speed>
  <fix>3d</fix>
</trkpt>
<trkpt lat="33.8099816" lon="-118.3940938">
  <ele>-24.54</ele>
  <time>2026-09-01T01:13:43Z</time>
  <course>209.59</course>
  <speed>0.99</speed>
  <fix>3d</fix>
</trkpt>
<trkpt lat="33.8099802" lon="-118.394095">
  <ele>-25.127</ele>
  <time>2026-09-01T01:13:43Z</time>
  <course>210.58</course>
  <speed>0.9638464608017192</speed>
  <fix>3d</fix>
</trkpt>
<trkpt lat="33.8099816" lon="-118.3940938">
  <ele>-24.54</ele>
  <time>2026-09-01T01:13:43Z</time>
  <course>209.59</course>
  <speed>0.99</speed>
  <fix>3d</fix>
</trkpt>
<trkpt lat="33.8099794" lon="-118.3940955">
  <ele>-25.119</ele>
  <time>2026-09-01T01:13:43Z</time>
  <course>210.6</course>
  <speed>0.9638464608017192</speed>
  <fix>3d</fix>
</trkpt>
<trkpt lat="33.8099801" lon="-118.3940949">
  <ele>-24.53</ele>
  <time>2026-09-01T01:13:43Z</time>
  <course>209.62</course>
  <speed>0.99</speed>
  <fix>3d</fix>
</trkpt>
<trkpt lat="33.8099786" lon="-118.3940961">
  <ele>-25.11</ele>
  <time>2026-09-01T01:13:43Z</time>
  <course>210.62</course>
  <speed>0.9638464608017192</speed>
  <fix>3d</fix>
</trkpt>
<trkpt lat="33.8099801" lon="-118.3940949">
  <ele>-24.53</ele>
  <time>2026-09-01T01:13:43Z</time>
  <course>209.62</course>
  <speed>0.99</speed>
  <fix>3d</fix>
</trkpt>
<trkpt lat="33.8099778" lon="-118.3940966">
  <ele>-25.099</ele>
  <time>2026-09-01T01:13:43Z</time>
  <course>210.62</course>
  <speed>0.9638464608017192</speed>
  <fix>3d</fix>
</trkpt>
<trkpt lat="33.8099785" lon="-118.3940959">
  <ele>-24.52</ele>
  <time>2026-09-01T01:13:43Z</time>
  <course>209.62</course>
  <speed>0.99</speed>
  <fix>3d</fix>
</trkpt>
<trkpt lat="33.809977" lon="-118.3940971">
  <ele>-25.088</ele>
  <time>2026-09-01T01:13:43Z</time>
  <course>210.62</course>
  <speed>0.9638464608017192</speed>
  <fix>3d</fix>
</trkpt>
<trkpt lat="33.8099785" lon="-118.3940959">
  <ele>-24.52</ele>
  <time>2026-09-01T01:13:43Z</time>
  <course>209.62</course>
  <speed>0.99</speed>
  <fix>3d</fix>
</trkpt>
<trkpt lat="33.8099763" lon="-118.3940977">
  <ele>-25.077</ele>
  <time>2026-09-01T01:13:43Z</time>
  <course>210.63</course>
  <speed>0.9638464608017192</speed>
  <fix>3d</fix>
</trkpt>
<trkpt lat="33.809977" lon="-118.394097">
  <ele>-24.49</ele>
  <time>2026-09-01T01:13:43Z</time>
  <course>209.61</course>
  <speed>0.99</speed>
  <fix>3d</fix>
</trkpt>
<trkpt lat="33.8099755" lon="-118.3940982">
  <ele>-25.067</ele>
  <time>2026-09-01T01:13:43Z</time>
  <course>210.64</course>
  <speed>0.9638464608017192</speed>
  <fix>3d</fix>
</trkpt>
<trkpt lat="33.809977" lon="-118.394097">
  <ele>-24.49</ele>
  <time>2026-09-01T01:13:43Z</time>
  <course>209.61</course>
  <speed>0.99</speed>
  <fix>3d</fix>
</trkpt>
<trkpt lat="33.8099747" lon="-118.3940987">
  <ele>-25.062</ele>
  <time>2026-09-01T01:13:43Z</time>
  <course>210.65</course>
  <speed>0.9724710792614863</speed>
  <fix>3d</fix>
</trkpt>
<trkpt lat="33.8099754" lon="-118.3940981">
  <ele>-24.47</ele>
  <time>2026-09-01T01:13:43Z</time>
  <course>209.63</course>
  <speed>0.99</speed>
  <fix>3d</fix>
</trkpt>
<trkpt lat="33.8099739" lon="-118.3940993">
  <ele>-25.059</ele>
  <time>2026-09-01T01:13:43Z</time>
  <course>210.64</course>
  <speed>0.9638464608017192</speed>
  <fix>3d</fix>
</trkpt>
<trkpt lat="33.8099754" lon="-118.3940981">
  <ele>-24.47</ele>
  <time>2026-09-01T01:13:43Z</time>
  <course>209.63</course>
  <speed>0.99</speed>
  <fix>3d</fix>
</trkpt>
<trkpt lat="33.8099731" lon="-118.3940998">
  <ele>-25.055</ele>
  <time>2026-09-01T01:13:43Z</time>
  <course>210.63</course>
  <speed>0.9724710792614863</speed>
  <fix>3d</fix>
</trkpt>
<trkpt lat="33.8099739" lon="-118.3940991">
  <ele>-24.46</ele>
  <time>2026-09-01T01:13:43Z</time>
  <course>209.62</course>
  <speed>0.99</speed>
  <fix>3d</fix>
</trkpt>
<trkpt lat="33.8099724" lon="-118.3941003">
  <ele>-25.052</ele>
  <time>2026-09-01T01:13:43Z</time>
  <course>210.62</course>
  <speed>0.9724710792614863</speed>
  <fix>3d</fix>
</trkpt>
<trkpt lat="33.8099739" lon="-118.3940991">
  <ele>-24.46</ele>
  <time>2026-09-01T01:13:43Z</time>
  <course>209.62</course>
  <speed>0.99</speed>
  <fix>3d</fix>
</trkpt>
<trkpt lat="33.8099716" lon="-118.3941009">
  <ele>-25.049</ele>
  <time>2026-09-01T01:13:43Z</time>
  <course>210.61</course>
  <speed>0.9724710792614863</speed>
  <fix>3d</fix>
</trkpt>
<trkpt lat="33.8099723" lon="-118.3941002">
  <ele>-24.45</ele>
  <time>2026-09-01T01:13:43Z</time>
  <course>209.6</course>
  <speed>0.99</speed>
  <fix>3d</fix>
</trkpt>
<trkpt lat="33.8099708" lon="-118.3941014">
  <ele>-25.046</ele>
  <time>2026-09-01T01:13:43Z</time>
  <course>210.6</course>
  <speed>0.9724710792614863</speed>
  <fix>3d</fix>
</trkpt>
<trkpt lat="33.8099723" lon="-118.3941002">
  <ele>-24.45</ele>
  <time>2026-09-01T01:13:43Z</time>
  <course>209.6</course>
  <speed>0.99</speed>
  <fix>3d</fix>
</trkpt>
<trkpt lat="33.80997" lon="-118.3941019">
  <ele>-25.045</ele>
  <time>2026-09-01T01:13:43Z</time>
  <course>210.6</course>
  <speed>0.9724710792614863</speed>
  <fix>3d</fix>
</trkpt>
<trkpt lat="33.8099708" lon="-118.3941013">
  <ele>-24.45</ele>
  <time>2026-09-01T01:13:43Z</time>
  <course>209.59</course>
  <speed>0.99</speed>
  <fix>3d</fix>
</trkpt>
<trkpt lat="33.8099692" lon="-118.3941025">
  <ele>-25.046</ele>
  <time>2026-09-01T01:13:43Z</time>
  <course>210.6</course>
  <speed>0.9724710792614863</speed>
  <fix>3d</fix>
</trkpt>
<trkpt lat="33.8099708" lon="-118.3941013">
  <ele>-24.45</ele>
  <time>2026-09-01T01:13:43Z</time>
  <course>209.59</course>
  <speed>0.99</speed>
  <fix>3d</fix>
</trkpt>
<trkpt lat="33.8099685" lon="-118.394103">
  <ele>-25.05</ele>
  <time>2026-09-01T01:13:43Z</time>
  <course>210.58</course>
  <speed>0.9724710792614863</speed>
  <fix>3d</fix>
</trkpt>
<trkpt lat="33.8099692" lon="-118.3941023">
  <ele>-24.45</ele>
  <time>2026-09-01T01:13:43Z</time>
  <course>209.57</course>
  <speed>1.0</speed>
  <fix>3d</fix>
</trkpt>
<trkpt lat="33.8099677" lon="-118.3941035">
  <ele>-25.055</ele>
  <time>2026-09-01T01:13:43Z</time>
  <course>210.56</course>
  <speed>0.9724710792614863</speed>
  <fix>3d</fix>
</trkpt>
<trkpt lat="33.8099692" lon="-118.3941023">
  <ele>-24.45</ele>
  <time>2026-09-01T01:13:43Z</time>
  <course>209.57</course>
  <speed>1.0</speed>
  <fix>3d</fix>
</trkpt>
<trkpt lat="33.8099669" lon="-118.3941041">
  <ele>-25.062</ele>
  <time>2026-09-01T01:13:43Z</time>
  <course>210.56</course>
  <speed>0.9724710792614863</speed>
  <fix>3d</fix>
</trkpt>
<trkpt lat="33.8099676" lon="-118.3941034">
  <ele>-24.45</ele>
  <time>2026-09-01T01:13:43Z</time>
  <course>209.55</course>
  <speed>1.0</speed>
  <fix>3d</fix>
</trkpt>
<trkpt lat="33.8099661" lon="-118.3941046">
  <ele>-25.069</ele>
  <time>2026-09-01T01:13:43Z</time>
  <course>210.56</course>
  <speed>0.9724710792614863</speed>
  <fix>3d</fix>
</trkpt>
<trkpt lat="33.8099676" lon="-118.3941034">
  <ele>-24.45</ele>
  <time>2026-09-01T01:13:43Z</time>
  <course>209.55</course>
  <speed>1.0</speed>
  <fix>3d</fix>
</trkpt>
<trkpt lat="33.8099653" lon="-118.3941051">
  <ele>-25.075</ele>
  <time>2026-09-01T01:13:43Z</time>
  <course>210.57</course>
  <speed>0.9724710792614863</speed>
  <fix>3d</fix>
</trkpt>
<trkpt lat="33.809966" lon="-118.3941045">
  <ele>-24.46</ele>
  <time>2026-09-01T01:13:43Z</time>
  <course>209.57</course>
  <speed>1.0</speed>
  <fix>3d</fix>
</trkpt>
<trkpt lat="33.8099645" lon="-118.3941057">
  <ele>-25.081</ele>
  <time>2026-09-01T01:13:43Z</time>
  <course>210.58</course>
  <speed>0.9724710792614863</speed>
  <fix>3d</fix>
</trkpt>
<trkpt lat="33.809966" lon="-118.3941045">
  <ele>-24.46</ele>
  <time>2026-09-01T01:13:43Z</time>
  <course>209.57</course>
  <speed>1.0</speed>
  <fix>3d</fix>
</trkpt>
<trkpt lat="33.8099638" lon="-118.3941062">
  <ele>-25.085</ele>
  <time>2026-09-01T01:13:43Z</time>
  <course>210.59</course>
  <speed>0.9724710792614863</speed>
  <fix>3d</fix>
</trkpt>
<trkpt lat="33.8099645" lon="-118.3941055">
  <ele>-24.47</ele>
  <time>2026-09-01T01:13:43Z</time>
  <course>209.59</course>
  <speed>1.0</speed>
  <fix>3d</fix>
</trkpt>
<trkpt lat="33.809963" lon="-118.3941067">
  <ele>-25.088</ele>
  <time>2026-09-01T01:13:43Z</time>
  <course>210.6</course>
  <speed>0.9724710792614863</speed>
  <fix>3d</fix>
</trkpt>
<trkpt lat="33.8099645" lon="-118.3941055">
  <ele>-24.47</ele>
  <time>2026-09-01T01:13:43Z</time>
  <course>209.59</course>
  <speed>1.0</speed>
  <fix>3d</fix>
</trkpt>
<trkpt lat="33.8099622" lon="-118.3941073">
  <ele>-25.09</ele>
  <time>2026-09-01T01:13:43Z</time>
  <course>210.62</course>
  <speed>0.9724710792614863</speed>
  <fix>3d</fix>
</trkpt>
<trkpt lat="33.8099629" lon="-118.3941066">
  <ele>-24.48</ele>
  <time>2026-09-01T01:13:43Z</time>
  <course>209.61</course>
  <speed>0.99</speed>
  <fix>3d</fix>
</trkpt>
<trkpt lat="33.8099614" lon="-118.3941078">
  <ele>-25.089</ele>
  <time>2026-09-01T01:13:43Z</time>
  <course>210.63</course>
  <speed>0.9724710792614863</speed>
  <fix>3d</fix>
</trkpt>
<trkpt lat="33.8099629" lon="-118.3941066">
  <ele>-24.48</ele>
  <time>2026-09-01T01:13:43Z</time>
  <course>209.61</course>
  <speed>0.99</speed>
  <fix>3d</fix>
</trkpt>
<trkpt lat="33.8099606" lon="-118.3941083">
  <ele>-25.085</ele>
  <time>2026-09-01T01:13:43Z</time>
  <course>210.65</course>
  <speed>0.9724710792614863</speed>
  <fix>3d</fix>
</trkpt>
<trkpt lat="33.8099614" lon="-118.3941077">
  <ele>-24.49</ele>
  <time>2026-09-01T01:13:43Z</time>
  <course>209.62</course>
  <speed>0.99</speed>
  <fix>3d</fix>
</trkpt>
<trkpt lat="33.8099599" lon="-118.3941089">
  <ele>-25.081</ele>
  <time>2026-09-01T01:13:43Z</time>
  <course>210.66</course>
  <speed>0.9724710792614863</speed>
  <fix>3d</fix>
</trkpt>
<trkpt lat="33.8099614" lon="-118.3941077">
  <ele>-24.49</ele>
  <time>2026-09-01T01:13:43Z</time>
  <course>209.62</course>
  <speed>0.99</speed>
  <fix>3d</fix>
</trkpt>
<trkpt lat="33.8099591" lon="-118.3941094">
  <ele>-25.078</ele>
  <time>2026-09-01T01:13:43Z</time>
  <course>210.65</course>
  <speed>0.9724710792614863</speed>
  <fix>3d</fix>
</trkpt>
<trkpt lat="33.8099598" lon="-118.3941087">
  <ele>-24.48</ele>
  <time>2026-09-01T01:13:43Z</time>
  <course>209.61</course>
  <speed>0.99</speed>
  <fix>3d</fix>
</trkpt>
<trkpt lat="33.8099583" lon="-118.3941099">
  <ele>-25.073</ele>
  <time>2026-09-01T01:13:43Z</time>
  <course>210.64</course>
  <speed>0.9724710792614863</speed>
  <fix>3d</fix>
</trkpt>
<trkpt lat="33.8099598" lon="-118.3941087">
  <ele>-24.48</ele>
  <time>2026-09-01T01:13:43Z</time>
  <course>209.61</course>
  <speed>0.99</speed>
  <fix>3d</fix>
</trkpt>
<trkpt lat="33.8099575" lon="-118.3941105">
  <ele>-25.068</ele>
  <time>2026-09-01T01:13:43Z</time>
  <course>210.64</course>
  <speed>0.9724710792614863</speed>
  <fix>3d</fix>
</trkpt>
<trkpt lat="33.8099583" lon="-118.3941098">
  <ele>-24.47</ele>
  <time>2026-09-01T01:13:43Z</time>
  <course>209.6</course>
  <speed>0.99</speed>
  <fix>3d</fix>
</trkpt>
<trkpt lat="33.8099567" lon="-118.394111">
  <ele>-25.063</ele>
  <time>2026-09-01T01:13:43Z</time>
  <course>210.64</course>
  <speed>0.9724710792614863</speed>
  <fix>3d</fix>
</trkpt>
<trkpt lat="33.8099583" lon="-118.3941098">
  <ele>-24.47</ele>
  <time>2026-09-01T01:13:43Z</time>
  <course>209.6</course>
  <speed>0.99</speed>
  <fix>3d</fix>
</trkpt>
<trkpt lat="33.809956" lon="-118.3941115">
  <ele>-25.06</ele>
  <time>2026-09-01T01:13:43Z</time>
  <course>210.64</course>
  <speed>0.9724710792614863</speed>
  <fix>3d</fix>
</trkpt>
<trkpt lat="33.8099567" lon="-118.3941108">
  <ele>-24.46</ele>
  <time>2026-09-01T01:13:43Z</time>
  <course>209.59</course>
  <speed>0.99</speed>
  <fix>3d</fix>
</trkpt>
<trkpt lat="33.8099552" lon="-118.3941121">
  <ele>-25.059</ele>
  <time>2026-09-01T01:13:43Z</time>
  <course>210.64</course>
  <speed>0.9724710792614863</speed>
  <fix>3d</fix>
</trkpt>
<trkpt lat="33.8099567" lon="-118.3941108">
  <ele>-24.46</ele>
  <time>2026-09-01T01:13:43Z</time>
  <course>209.59</course>
  <speed>0.99</speed>
  <fix>3d</fix>
</trkpt>
<trkpt lat="33.8099544" lon="-118.3941126">
  <ele>-25.06</ele>
  <time>2026-09-01T01:13:43Z</time>
  <course>210.65</course>
  <speed>0.9724710792614863</speed>
  <fix>3d</fix>
</trkpt>
<trkpt lat="33.8099551" lon="-118.3941119">
  <ele>-24.46</ele>
  <time>2026-09-01T01:13:43Z</time>
  <course>209.61</course>
  <speed>1.0</speed>
  <fix>3d</fix>
</trkpt>
<trkpt lat="33.8099536" lon="-118.3941131">
  <ele>-25.062</ele>
  <time>2026-09-01T01:13:43Z</time>
  <course>210.67</course>
  <speed>0.9724710792614863</speed>
  <fix>3d</fix>
</trkpt>
<trkpt lat="33.8099551" lon="-118.3941119">
  <ele>-24.46</ele>
  <time>2026-09-01T01:13:43Z</time>
  <course>209.61</course>
  <speed>1.0</speed>
  <fix>3d</fix>
</trkpt>
<trkpt lat="33.8099528" lon="-118.3941137">
  <ele>-25.066</ele>
  <time>2026-09-01T01:13:43Z</time>
  <course>210.69</course>
  <speed>0.9724710792614863</speed>
  <fix>3d</fix>
</trkpt>
<trkpt lat="33.8099536" lon="-118.394113">
  <ele>-24.46</ele>
  <time>2026-09-01T01:13:43Z</time>
  <course>209.68</course>
  <speed>1.0</speed>
  <fix>3d</fix>
</trkpt>
<trkpt lat="33.809952" lon="-118.3941142">
  <ele>-25.075</ele>
  <time>2026-09-01T01:13:43Z</time>
  <course>210.71</course>
  <speed>0.9724710792614863</speed>
  <fix>3d</fix>
</trkpt>
<trkpt lat="33.8099536" lon="-118.394113">
  <ele>-24.46</ele>
  <time>2026-09-01T01:13:43Z</time>
  <course>209.68</course>
  <speed>1.0</speed>
  <fix>3d</fix>
</trkpt>
<trkpt lat="33.8099513" lon="-118.3941147">
  <ele>-25.09</ele>
  <time>2026-09-01T01:13:43Z</time>
  <course>210.72</course>
  <speed>0.9724710792614863</speed>
  <fix>3d</fix>
</trkpt>
<trkpt lat="33.809952" lon="-118.3941141">
  <ele>-24.47</ele>
  <time>2026-09-01T01:13:43Z</time>
  <course>209.7</course>
  <speed>1.0</speed>
  <fix>3d</fix>
</trkpt>
<trkpt lat="33.8099505" lon="-118.3941153">
  <ele>-25.113</ele>
  <time>2026-09-01T01:13:43Z</time>
  <course>210.71</course>
  <speed>0.9724710792614863</speed>
  <fix>3d</fix>
</trkpt>
<trkpt lat="33.809952" lon="-118.3941141">
  <ele>-24.47</ele>
  <time>2026-09-01T01:13:43Z</time>
  <course>209.7</course>
  <speed>1.0</speed>
  <fix>3d</fix>
</trkpt>
<trkpt lat="33.8099497" lon="-118.3941158">
  <ele>-25.142</ele>
  <time>2026-09-01T01:13:43Z</time>
  <course>210.7</course>
  <speed>0.9724710792614863</speed>
  <fix>3d</fix>
</trkpt>
<trkpt lat="33.8099505" lon="-118.3941151">
  <ele>-24.5</ele>
  <time>2026-09-01T01:13:43Z</time>
  <course>209.67</course>
  <speed>1.0</speed>
  <fix>3d</fix>
</trkpt>
<trkpt lat="33.8099489" lon="-118.3941164">
  <ele>-25.18</ele>
  <time>2026-09-01T01:13:43Z</time>
  <course>210.68</course>
  <speed>0.9724710792614863</speed>
  <fix>3d</fix>
</trkpt>
<trkpt lat="33.8099505" lon="-118.3941151">
  <ele>-24.5</ele>
  <time>2026-09-01T01:13:43Z</time>
  <course>209.67</course>
  <speed>1.0</speed>
  <fix>3d</fix>
</trkpt>
<trkpt lat="33.8099481" lon="-118.3941169">
  <ele>-25.224</ele>
  <time>2026-09-01T01:13:43Z</time>
  <course>210.67</course>
  <speed>0.9724710792614863</speed>
  <fix>3d</fix>
</trkpt>
<trkpt lat="33.8099488" lon="-118.3941162">
  <ele>-24.55</ele>
  <time>2026-09-01T01:13:43Z</time>
  <course>209.65</course>
  <speed>1.0</speed>
  <fix>3d</fix>
</trkpt>
<trkpt lat="33.8099474" lon="-118.3941174">
  <ele>-25.274</ele>
  <time>2026-09-01T01:13:43Z</time>
  <course>210.66</course>
  <speed>0.9724710792614863</speed>
  <fix>3d</fix>
</trkpt>
<trkpt lat="33.8099488" lon="-118.3941162">
  <ele>-24.55</ele>
  <time>2026-09-01T01:13:43Z</time>
  <course>209.65</course>
  <speed>1.0</speed>
  <fix>3d</fix>
</trkpt>
<trkpt lat="33.8099466" lon="-118.394118">
  <ele>-25.332</ele>
  <time>2026-09-01T01:13:43Z</time>
  <course>210.67</course>
  <speed>0.9724710792614863</speed>
  <fix>3d</fix>
</trkpt>
<trkpt lat="33.8099473" lon="-118.3941173">
  <ele>-24.64</ele>
  <time>2026-09-01T01:13:43Z</time>
  <course>209.68</course>
  <speed>1.0</speed>
  <fix>3d</fix>
</trkpt>
<trkpt lat="33.8099458" lon="-118.3941185">
  <ele>-25.394</ele>
  <time>2026-09-01T01:13:43Z</time>
  <course>210.69</course>
  <speed>0.9638464608017192</speed>
  <fix>3d</fix>
</trkpt>
<trkpt lat="33.8099473" lon="-118.3941173">
  <ele>-24.64</ele>
  <time>2026-09-01T01:13:43Z</time>
  <course>209.68</course>
  <speed>1.0</speed>
  <fix>3d</fix>
</trkpt>
<trkpt lat="33.809945" lon="-118.394119">
  <ele>-25.459</ele>
  <time>2026-09-01T01:13:43Z</time>
  <course>210.69</course>
  <speed>0.9638464608017192</speed>
  <fix>3d</fix>
</trkpt>
<trkpt lat="33.8099457" lon="-118.3941184">
  <ele>-24.74</ele>
  <time>2026-09-01T01:13:43Z</time>
  <course>209.71</course>
  <speed>0.99</speed>
  <fix>3d</fix>
</trkpt>
<trkpt lat="33.8099442" lon="-118.3941196">
  <ele>-25.527</ele>
  <time>2026-09-01T01:13:43Z</time>
  <course>210.68</course>
  <speed>0.9501578816175763</speed>
  <fix>3d</fix>
</trkpt>
<trkpt lat="33.8099457" lon="-118.3941184">
  <ele>-24.74</ele>
  <time>2026-09-01T01:13:43Z</time>
  <course>209.71</course>
  <speed>0.99</speed>
  <fix>3d</fix>
</trkpt>
<trkpt lat="33.8099435" lon="-118.3941201">
  <ele>-25.6</ele>
  <time>2026-09-01T01:13:43Z</time>
  <course>210.67</course>
  <speed>0.9415412895885129</speed>
  <fix>3d</fix>
</trkpt>
<trkpt lat="33.8099442" lon="-118.3941194">
  <ele>-24.86</ele>
  <time>2026-09-01T01:13:43Z</time>
  <course>209.7</course>
  <speed>0.98</speed>
  <fix>3d</fix>
</trkpt>
<trkpt lat="33.8099427" lon="-118.3941206">
  <ele>-25.676</ele>
  <time>2026-09-01T01:13:43Z</time>
  <course>210.66</course>
  <speed>0.9415412895885129</speed>
  <fix>3d</fix>
</trkpt>
<trkpt lat="33.8099442" lon="-118.3941194">
  <ele>-24.86</ele>
  <time>2026-09-01T01:13:43Z</time>
  <course>209.7</course>
  <speed>0.98</speed>
  <fix>3d</fix>
</trkpt>
<trkpt lat="33.809942" lon="-118.3941211">
  <ele>-25.757</ele>
  <time>2026-09-01T01:13:43Z</time>
  <course>210.64</course>
  <speed>0.9278469701410895</speed>
  <fix>3d</fix>
</trkpt>
<trkpt lat="33.8099427" lon="-118.3941205">
  <ele>-25.0</ele>
  <time>2026-09-01T01:13:43Z</time>
  <course>209.68</course>
  <speed>0.97</speed>
  <fix>3d</fix>
</trkpt>
<trkpt lat="33.8099412" lon="-118.3941216">
  <ele>-25.84</ele>
  <time>2026-09-01T01:13:43Z</time>
  <course>210.63</course>
  <speed>0.9278469701410895</speed>
  <fix>3d</fix>
</trkpt>
<trkpt lat="33.8099427" lon="-118.3941205">
  <ele>-25.0</ele>
  <time>2026-09-01T01:13:43Z</time>
  <course>209.68</course>
  <speed>0.97</speed>
  <fix>3d</fix>
</trkpt>
<trkpt lat="33.8099405" lon="-118.3941221">
  <ele>-25.924</ele>
  <time>2026-09-01T01:13:43Z</time>
  <course>210.6</course>
  <speed>0.9278469701410895</speed>
  <fix>3d</fix>
</trkpt>
<trkpt lat="33.8099412" lon="-118.3941215">
  <ele>-25.15</ele>
  <time>2026-09-01T01:13:43Z</time>
  <course>209.64</course>
  <speed>0.96</speed>
  <fix>3d</fix>
</trkpt>
<trkpt lat="33.8099397" lon="-118.3941227">
  <ele>-26.01</ele>
  <time>2026-09-01T01:13:43Z</time>
  <course>210.58</course>
  <speed>0.9278469701410895</speed>
  <fix>3d</fix>
</trkpt>
<trkpt lat="33.8099412" lon="-118.3941215">
  <ele>-25.15</ele>
  <time>2026-09-01T01:13:43Z</time>
  <course>209.64</course>
  <speed>0.96</speed>
  <fix>3d</fix>
</trkpt>
<trkpt lat="33.809939" lon="-118.3941232">
  <ele>-26.097</ele>
  <time>2026-09-01T01:13:43Z</time>
  <course>210.55</course>
  <speed>0.9278469701410895</speed>
  <fix>3d</fix>
</trkpt>
<trkpt lat="33.8099397" lon="-118.3941226">
  <ele>-25.31</ele>
  <time>2026-09-01T01:13:43Z</time>
  <course>209.59</course>
  <speed>0.95</speed>
  <fix>3d</fix>
</trkpt>
<trkpt lat="33.8099382" lon="-118.3941237">
  <ele>-26.185</ele>
  <time>2026-09-01T01:13:43Z</time>
  <course>210.52</course>
  <speed>0.9278469701410895</speed>
  <fix>3d</fix>
</trkpt>
<trkpt lat="33.8099397" lon="-118.3941226">
  <ele>-25.31</ele>
  <time>2026-09-01T01:13:43Z</time>
  <course>209.59</course>
  <speed>0.95</speed>
  <fix>3d</fix>
</trkpt>
<trkpt lat="33.8099375" lon="-118.3941242">
  <ele>-26.274</ele>
  <time>2026-09-01T01:13:43Z</time>
  <course>210.48</course>
  <speed>0.9278469701410895</speed>
  <fix>3d</fix>
</trkpt>
<trkpt lat="33.8099382" lon="-118.3941236">
  <ele>-25.47</ele>
  <time>2026-09-01T01:13:43Z</time>
  <course>209.54</course>
  <speed>0.95</speed>
  <fix>3d</fix>
</trkpt>
<trkpt lat="33.8099367" lon="-118.3941247">
  <ele>-26.366</ele>
  <time>2026-09-01T01:13:43Z</time>
  <course>210.45</course>
  <speed>0.9278469701410895</speed>
  <fix>3d</fix>
</trkpt>
<trkpt lat="33.8099382" lon="-118.3941236">
  <ele>-25.47</ele>
  <time>2026-09-01T01:13:43Z</time>
  <course>209.54</course>
  <speed>0.95</speed>
  <fix>3d</fix>
</trkpt>
<trkpt lat="33.809936" lon="-118.3941252">
  <ele>-26.459</ele>
  <time>2026-09-01T01:13:43Z</time>
  <course>210.42</course>
  <speed>0.9364827814754524</speed>
  <fix>3d</fix>
</trkpt>
<trkpt lat="33.8099367" lon="-118.3941246">
  <ele>-25.64</ele>
  <time>2026-09-01T01:13:43Z</time>
  <course>209.48</course>
  <speed>0.96</speed>
  <fix>3d</fix>
</trkpt>
<trkpt lat="33.8099352" lon="-118.3941258">
  <ele>-26.554</ele>
  <time>2026-09-01T01:13:43Z</time>
  <course>210.39</course>
  <speed>0.9364827814754524</speed>
  <fix>3d</fix>
</trkpt>
<trkpt lat="33.8099367" lon="-118.3941246">
  <ele>-25.64</ele>
  <time>2026-09-01T01:13:43Z</time>
  <course>209.48</course>
  <speed>0.96</speed>
  <fix>3d</fix>
</trkpt>
<trkpt lat="33.8099345" lon="-118.3941263">
  <ele>-26.649</ele>
  <time>2026-09-01T01:13:43Z</time>
  <course>210.36</course>
  <speed>0.9364827814754524</speed>
  <fix>3d</fix>
</trkpt>
<trkpt lat="33.8099352" lon="-118.3941256">
  <ele>-25.82</ele>
  <time>2026-09-01T01:13:43Z</time>
  <course>209.43</course>
  <speed>0.96</speed>
  <fix>3d</fix>
</trkpt>
<trkpt lat="33.8099337" lon="-118.3941268">
  <ele>-26.743</ele>
  <time>2026-09-01T01:13:43Z</time>
  <course>210.36</course>
  <speed>0.9415412895885129</speed>
  <fix>3d</fix>
</trkpt>
<trkpt lat="33.8099352" lon="-118.3941256">
  <ele>-25.82</ele>
  <time>2026-09-01T01:13:43Z</time>
  <course>209.43</course>
  <speed>0.96</speed>
  <fix>3d</fix>
</trkpt>
<trkpt lat="33.8099329" lon="-118.3941273">
  <ele>-26.836</ele>
  <time>2026-09-01T01:13:43Z</time>
  <course>210.36</course>
  <speed>0.9415412895885129</speed>
  <fix>3d</fix>
</trkpt>
<trkpt lat="33.8099337" lon="-118.3941266">
  <ele>-26.0</ele>
  <time>2026-09-01T01:13:43Z</time>
  <course>209.43</course>
  <speed>0.96</speed>
  <fix>3d</fix>
</trkpt>
<trkpt lat="33.8099322" lon="-118.3941278">
  <ele>-26.928</ele>
  <time>2026-09-01T01:13:43Z</time>
  <course>210.37</course>
  <speed>0.9415412895885129</speed>
  <fix>3d</fix>
</trkpt>
<trkpt lat="33.8099337" lon="-118.3941266">
  <ele>-26.0</ele>
  <time>2026-09-01T01:13:43Z</time>
  <course>209.43</course>
  <speed>0.96</speed>
  <fix>3d</fix>
</trkpt>
<trkpt lat="33.8099314" lon="-118.3941283">
  <ele>-27.019</ele>
  <time>2026-09-01T01:13:43Z</time>
  <course>210.38</course>
  <speed>0.9415412895885129</speed>
  <fix>3d</fix>
</trkpt>
<trkpt lat="33.8099321" lon="-118.3941277">
  <ele>-26.18</ele>
  <time>2026-09-01T01:13:43Z</time>
  <course>209.46</course>
  <speed>0.97</speed>
  <fix>3d</fix>
</trkpt>
<trkpt lat="33.8099307" lon="-118.3941289">
  <ele>-27.113</ele>
  <time>2026-09-01T01:13:43Z</time>
  <course>210.41</course>
  <speed>0.9415412895885129</speed>
  <fix>3d</fix>
</trkpt>
<trkpt lat="33.8099321" lon="-118.3941277">
  <ele>-26.18</ele>
  <time>2026-09-01T01:13:43Z</time>
  <course>209.46</course>
  <speed>0.97</speed>
  <fix>3d</fix>
</trkpt>
<trkpt lat="33.8099299" lon="-118.3941294">
  <ele>-27.206</ele>
  <time>2026-09-01T01:13:43Z</time>
  <course>210.42</course>
  <speed>0.9415412895885129</speed>
  <fix>3d</fix>
</trkpt>
<trkpt lat="33.8099306" lon="-118.3941287">
  <ele>-26.36</ele>
  <time>2026-09-01T01:13:43Z</time>
  <course>209.48</course>
  <speed>0.97</speed>
  <fix>3d</fix>
</trkpt>
<trkpt lat="33.8099291" lon="-118.3941299">
  <ele>-27.298</ele>
  <time>2026-09-01T01:13:43Z</time>
  <course>210.44</course>
  <speed>0.9415412895885129</speed>
  <fix>3d</fix>
</trkpt>
<trkpt lat="33.8099306" lon="-118.3941287">
  <ele>-26.36</ele>
  <time>2026-09-01T01:13:43Z</time>
  <course>209.48</course>
  <speed>0.97</speed>
  <fix>3d</fix>
</trkpt>
<trkpt lat="33.8099284" lon="-118.3941304">
  <ele>-27.391</ele>
  <time>2026-09-01T01:13:43Z</time>
  <course>210.46</course>
  <speed>0.9415412895885129</speed>
  <fix>3d</fix>
</trkpt>
<trkpt lat="33.8099291" lon="-118.3941298">
  <ele>-26.54</ele>
  <time>2026-09-01T01:13:43Z</time>
  <course>209.5</course>
  <speed>0.97</speed>
  <fix>3d</fix>
</trkpt>
<trkpt lat="33.8099276" lon="-118.3941309">
  <ele>-27.484</ele>
  <time>2026-09-01T01:13:43Z</time>
  <course>210.48</course>
  <speed>0.9415412895885129</speed>
  <fix>3d</fix>
</trkpt>
<trkpt lat="33.8099291" lon="-118.3941298">
  <ele>-26.54</ele>
  <time>2026-09-01T01:13:43Z</time>
  <course>209.5</course>
  <speed>0.97</speed>
  <fix>3d</fix>
</trkpt>
<trkpt lat="33.8099269" lon="-118.3941314">
  <ele>-27.578</ele>
  <time>2026-09-01T01:13:43Z</time>
  <course>210.49</course>
  <speed>0.9415412895885129</speed>
  <fix>3d</fix>
</trkpt>
<trkpt lat="33.8099276" lon="-118.3941308">
  <ele>-26.71</ele>
  <time>2026-09-01T01:13:43Z</time>
  <course>209.5</course>
  <speed>0.97</speed>
  <fix>3d</fix>
</trkpt>
<trkpt lat="33.8099261" lon="-118.394132">
  <ele>-27.67</ele>
  <time>2026-09-01T01:13:43Z</time>
  <course>210.5</course>
  <speed>0.9415412895885129</speed>
  <fix>3d</fix>
</trkpt>
<trkpt lat="33.8099276" lon="-118.3941308">
  <ele>-26.71</ele>
  <time>2026-09-01T01:13:43Z</time>
  <course>209.5</course>
  <speed>0.97</speed>
  <fix>3d</fix>
</trkpt>
<trkpt lat="33.8099254" lon="-118.3941325">
  <ele>-27.762</ele>
  <time>2026-09-01T01:13:43Z</time>
  <course>210.49</course>
  <speed>0.9415412895885129</speed>
  <fix>3d</fix>
</trkpt>
<trkpt lat="33.8099261" lon="-118.3941318">
  <ele>-26.89</ele>
  <time>2026-09-01T01:13:43Z</time>
  <course>209.48</course>
  <speed>0.97</speed>
  <fix>3d</fix>
</trkpt>
<trkpt lat="33.8099246" lon="-118.394133">
  <ele>-27.852</ele>
  <time>2026-09-01T01:13:43Z</time>
  <course>210.5</course>
  <speed>0.9415412895885129</speed>
  <fix>3d</fix>
</trkpt>
<trkpt lat="33.8099261" lon="-118.3941318">
  <ele>-26.89</ele>
  <time>2026-09-01T01:13:43Z</time>
  <course>209.48</course>
  <speed>0.97</speed>
  <fix>3d</fix>
</trkpt>
<trkpt lat="33.8099239" lon="-118.3941335">
  <ele>-27.94</ele>
  <time>2026-09-01T01:13:43Z</time>
  <course>210.5</course>
  <speed>0.9501578816175763</speed>
  <fix>3d</fix>
</trkpt>
<trkpt lat="33.8099245" lon="-118.3941328">
  <ele>-27.07</ele>
  <time>2026-09-01T01:13:43Z</time>
  <course>209.48</course>
  <speed>0.97</speed>
  <fix>3d</fix>
</trkpt>
<trkpt lat="33.8099231" lon="-118.394134">
  <ele>-28.028</ele>
  <time>2026-09-01T01:13:43Z</time>
  <course>210.52</course>
  <speed>0.9415412895885129</speed>
  <fix>3d</fix>
</trkpt>
<trkpt lat="33.8099245" lon="-118.3941328">
  <ele>-27.07</ele>
  <time>2026-09-01T01:13:43Z</time>
  <course>209.48</course>
  <speed>0.97</speed>
  <fix>3d</fix>
</trkpt>
<trkpt lat="33.8099223" lon="-118.3941345">
  <ele>-28.115</ele>
  <time>2026-09-01T01:13:43Z</time>
  <course>210.56</course>
  <speed>0.9501578816175763</speed>
  <fix>3d</fix>
</trkpt>
<trkpt lat="33.809923" lon="-118.3941339">
  <ele>-27.24</ele>
  <time>2026-09-01T01:13:43Z</time>
  <course>209.52</course>
  <speed>0.97</speed>
  <fix>3d</fix>
</trkpt>
<trkpt lat="33.8099216" lon="-118.3941351">
  <ele>-28.201</ele>
  <time>2026-09-01T01:13:43Z</time>
  <course>210.6</course>
  <speed>0.9415412895885129</speed>
  <fix>3d</fix>
</trkpt>
<trkpt lat="33.809923" lon="-118.3941339">
  <ele>-27.24</ele>
  <time>2026-09-01T01:13:43Z</time>
  <course>209.52</course>
  <speed>0.97</speed>
  <fix>3d</fix>
</trkpt>
<trkpt lat="33.8099208" lon="-118.3941356">
  <ele>-28.286</ele>
  <time>2026-09-01T01:13:43Z</time>
  <course>210.63</course>
  <speed>0.9415412895885129</speed>
  <fix>3d</fix>
</trkpt>
<trkpt lat="33.8099215" lon="-118.3941349">
  <ele>-27.41</ele>
  <time>2026-09-01T01:13:43Z</time>
  <course>209.57</course>
  <speed>0.97</speed>
  <fix>3d</fix>
</trkpt>
<trkpt lat="33.8099201" lon="-118.3941361">
  <ele>-28.372</ele>
  <time>2026-09-01T01:13:43Z</time>
  <course>210.66</course>
  <speed>0.9415412895885129</speed>
  <fix>3d</fix>
</trkpt>
<trkpt lat="33.8099215" lon="-118.3941349">
  <ele>-27.41</ele>
  <time>2026-09-01T01:13:43Z</time>
  <course>209.57</course>
  <speed>0.97</speed>
  <fix>3d</fix>
</trkpt>
<trkpt lat="33.8099193" lon="-118.3941366">
  <ele>-28.457</ele>
  <time>2026-09-01T01:13:43Z</time>
  <course>210.68</course>
  <speed>0.9415412895885129</speed>
  <fix>3d</fix>
</trkpt>
<trkpt lat="33.80992" lon="-118.394136">
  <ele>-27.57</ele>
  <time>2026-09-01T01:13:43Z</time>
  <course>209.6</course>
  <speed>0.97</speed>
  <fix>3d</fix>
</trkpt>
<trkpt lat="33.8099185" lon="-118.3941371">
  <ele>-28.541</ele>
  <time>2026-09-01T01:13:43Z</time>
  <course>210.7</course>
  <speed>0.9415412895885129</speed>
  <fix>3d</fix>
</trkpt>
<trkpt lat="33.80992" lon="-118.394136">
  <ele>-27.57</ele>
  <time>2026-09-01T01:13:43Z</time>
  <course>209.6</course>
  <speed>0.97</speed>
  <fix>3d</fix>
</trkpt>
<trkpt lat="33.8099178" lon="-118.3941376">
  <ele>-28.624</ele>
  <time>2026-09-01T01:13:43Z</time>
  <course>210.71</course>
  <speed>0.9415412895885129</speed>
  <fix>3d</fix>
</trkpt>
<trkpt lat="33.8099184" lon="-118.394137">
  <ele>-27.74</ele>
  <time>2026-09-01T01:13:43Z</time>
  <course>209.6</course>
  <speed>0.97</speed>
  <fix>3d</fix>
</trkpt>
<trkpt lat="33.809917" lon="-118.3941382">
  <ele>-28.706</ele>
  <time>2026-09-01T01:13:43Z</time>
  <course>210.71</course>
  <speed>0.9415412895885129</speed>
  <fix>3d</fix>
</trkpt>
<trkpt lat="33.8099184" lon="-118.394137">
  <ele>-27.74</ele>
  <time>2026-09-01T01:13:43Z</time>
  <course>209.6</course>
  <speed>0.97</speed>
  <fix>3d</fix>
</trkpt>
<trkpt lat="33.8099163" lon="-118.3941387">
  <ele>-28.786</ele>
  <time>2026-09-01T01:13:43Z</time>
  <course>210.72</course>
  <speed>0.9415412895885129</speed>
  <fix>3d</fix>
</trkpt>
<trkpt lat="33.8099169" lon="-118.3941381">
  <ele>-27.9</ele>
  <time>2026-09-01T01:13:43Z</time>
  <course>209.59</course>
  <speed>0.97</speed>
  <fix>3d</fix>
</trkpt>
<trkpt lat="33.8099155" lon="-118.3941392">
  <ele>-28.867</ele>
  <time>2026-09-01T01:13:43Z</time>
  <course>210.73</course>
  <speed>0.9415412895885129</speed>
  <fix>3d</fix>
</trkpt>
<trkpt lat="33.8099169" lon="-118.3941381">
  <ele>-27.9</ele>
  <time>2026-09-01T01:13:43Z</time>
  <course>209.59</course>
  <speed>0.97</speed>
  <fix>3d</fix>
</trkpt>
<trkpt lat="33.8099147" lon="-118.3941397">
  <ele>-28.946</ele>
  <time>2026-09-01T01:13:43Z</time>
  <course>210.74</course>
  <speed>0.9415412895885129</speed>
  <fix>3d</fix>
</trkpt>
<trkpt lat="33.8099154" lon="-118.3941391">
  <ele>-28.06</ele>
  <time>2026-09-01T01:13:43Z</time>
  <course>209.6</course>
  <speed>0.97</speed>
  <fix>3d</fix>
</trkpt>
<trkpt lat="33.809914" lon="-118.3941402">
  <ele>-29.026</ele>
  <time>2026-09-01T01:13:43Z</time>
  <course>210.74</course>
  <speed>0.9415412895885129</speed>
  <fix>3d</fix>
</trkpt>
<trkpt lat="33.8099154" lon="-118.3941391">
  <ele>-28.06</ele>
  <time>2026-09-01T01:13:43Z</time>
  <course>209.6</course>
  <speed>0.97</speed>
  <fix>3d</fix>
</trkpt>
<trkpt lat="33.8099132" lon="-118.3941408">
  <ele>-29.107</ele>
  <time>2026-09-01T01:13:43Z</time>
  <course>210.74</course>
  <speed>0.9364827814754524</speed>
  <fix>3d</fix>
</trkpt>
<trkpt lat="33.8099139" lon="-118.3941401">
  <ele>-28.22</ele>
  <time>2026-09-01T01:13:43Z</time>
  <course>209.59</course>
  <speed>0.97</speed>
  <fix>3d</fix>
</trkpt>
<trkpt lat="33.8099125" lon="-118.3941413">
  <ele>-29.19</ele>
  <time>2026-09-01T01:13:43Z</time>
  <course>210.75</course>
  <speed>0.9278469701410895</speed>
  <fix>3d</fix>
</trkpt>
<trkpt lat="33.8099139" lon="-118.3941401">
  <ele>-28.22</ele>
  <time>2026-09-01T01:13:43Z</time>
  <course>209.59</course>
  <speed>0.97</speed>
  <fix>3d</fix>
</trkpt>
<trkpt lat="33.8099117" lon="-118.3941418">
  <ele>-29.272</ele>
  <time>2026-09-01T01:13:43Z</time>
  <course>210.75</course>
  <speed>0.9278469701410895</speed>
  <fix>3d</fix>
</trkpt>
<trkpt lat="33.8099124" lon="-118.3941412">
  <ele>-28.38</ele>
  <time>2026-09-01T01:13:43Z</time>
  <course>209.6</course>
  <speed>0.96</speed>
  <fix>3d</fix>
</trkpt>
<trkpt lat="33.809911" lon="-118.3941423">
  <ele>-29.355</ele>
  <time>2026-09-01T01:13:43Z</time>
  <course>210.76</course>
  <speed>0.9278469701410895</speed>
  <fix>3d</fix>
</trkpt>
<trkpt lat="33.8099124" lon="-118.3941412">
  <ele>-28.38</ele>
  <time>2026-09-01T01:13:43Z</time>
  <course>209.6</course>
  <speed>0.96</speed>
  <fix>3d</fix>
</trkpt>
<trkpt lat="33.8099102" lon="-118.3941428">
  <ele>-29.439</ele>
  <time>2026-09-01T01:13:43Z</time>
  <course>210.75</course>
  <speed>0.9415412895885129</speed>
  <fix>3d</fix>
</trkpt>
<trkpt lat="33.8099109" lon="-118.3941422">
  <ele>-28.54</ele>
  <time>2026-09-01T01:13:43Z</time>
  <course>209.59</course>
  <speed>0.96</speed>
  <fix>3d</fix>
</trkpt>
<trkpt lat="33.8099095" lon="-118.3941433">
  <ele>-29.523</ele>
  <time>2026-09-01T01:13:43Z</time>
  <course>210.74</course>
  <speed>0.9278469701410895</speed>
  <fix>3d</fix>
</trkpt>
<trkpt lat="33.8099109" lon="-118.3941422">
  <ele>-28.54</ele>
  <time>2026-09-01T01:13:43Z</time>
  <course>209.59</course>
  <speed>0.96</speed>
  <fix>3d</fix>
</trkpt>
<trkpt lat="33.8099087" lon="-118.3941438">
  <ele>-29.605</ele>
  <time>2026-09-01T01:13:43Z</time>
  <course>210.72</course>
  <speed>0.9364827814754524</speed>
  <fix>3d</fix>
</trkpt>
<trkpt lat="33.8099093" lon="-118.3941432">
  <ele>-28.7</ele>
  <time>2026-09-01T01:13:43Z</time>
  <course>209.56</course>
  <speed>0.96</speed>
  <fix>3d</fix>
</trkpt>
<trkpt lat="33.809908" lon="-118.3941444">
  <ele>-29.689</ele>
  <time>2026-09-01T01:13:43Z</time>
  <course>210.72</course>
  <speed>0.9278469701410895</speed>
  <fix>3d</fix>
</trkpt>
<trkpt lat="33.8099093" lon="-118.3941432">
  <ele>-28.7</ele>
  <time>2026-09-01T01:13:43Z</time>
  <course>209.56</course>
  <speed>0.96</speed>
  <fix>3d</fix>
</trkpt>
<trkpt lat="33.8099072" lon="-118.3941449">
  <ele>-29.773</ele>
  <time>2026-09-01T01:13:43Z</time>
  <course>210.72</course>
  <speed>0.9278469701410895</speed>
  <fix>3d</fix>
</trkpt>
<trkpt lat="33.8099078" lon="-118.3941443">
  <ele>-28.86</ele>
  <time>2026-09-01T01:13:43Z</time>
  <course>209.57</course>
  <speed>0.96</speed>
  <fix>3d</fix>
</trkpt>
<trkpt lat="33.8099064" lon="-118.3941454">
  <ele>-29.857</ele>
  <time>2026-09-01T01:13:43Z</time>
  <course>210.75</course>
  <speed>0.9329523031752481</speed>
  <fix>3d</fix>
</trkpt>
<trkpt lat="33.8099078" lon="-118.3941443">
  <ele>-28.86</ele>
  <time>2026-09-01T01:13:43Z</time>
  <course>209.57</course>
  <speed>0.96</speed>
  <fix>3d</fix>
</trkpt>
<trkpt lat="33.8099057" lon="-118.3941459">
  <ele>-29.939</ele>
  <time>2026-09-01T01:13:43Z</time>
  <course>210.76</course>
  <speed>0.9415412895885129</speed>
  <fix>3d</fix>
</trkpt>
<trkpt lat="33.8099063" lon="-118.3941453">
  <ele>-29.03</ele>
  <time>2026-09-01T01:13:43Z</time>
  <course>209.61</course>
  <speed>0.96</speed>
  <fix>3d</fix>
</trkpt>
<trkpt lat="33.8099049" lon="-118.3941464">
  <ele>-30.022</ele>
  <time>2026-09-01T01:13:43Z</time>
  <course>210.78</course>
  <speed>0.9329523031752481</speed>
  <fix>3d</fix>
</trkpt>
<trkpt lat="33.8099063" lon="-118.3941453">
  <ele>-29.03</ele>
  <time>2026-09-01T01:13:43Z</time>
  <course>209.61</course>
  <speed>0.96</speed>
  <fix>3d</fix>
</trkpt>
<trkpt lat="33.8099042" lon="-118.3941469">
  <ele>-30.107</ele>
  <time>2026-09-01T01:13:43Z</time>
  <course>210.79</course>
  <speed>0.9329523031752481</speed>
  <fix>3d</fix>
</trkpt>
<trkpt lat="33.8099048" lon="-118.3941463">
  <ele>-29.19</ele>
  <time>2026-09-01T01:13:43Z</time>
  <course>209.63</course>
  <speed>0.96</speed>
  <fix>3d</fix>
</trkpt>
<trkpt lat="33.8099034" lon="-118.3941475">
  <ele>-30.192</ele>
  <time>2026-09-01T01:13:43Z</time>
  <course>210.8</course>
  <speed>0.9415412895885129</speed>
  <fix>3d</fix>
</trkpt>
<trkpt lat="33.8099048" lon="-118.3941463">
  <ele>-29.19</ele>
  <time>2026-09-01T01:13:43Z</time>
  <course>209.63</course>
  <speed>0.96</speed>
  <fix>3d</fix>
</trkpt>
<trkpt lat="33.8099027" lon="-118.394148">
  <ele>-30.274</ele>
  <time>2026-09-01T01:13:43Z</time>
  <course>210.81</course>
  <speed>0.9415412895885129</speed>
  <fix>3d</fix>
</trkpt>
<trkpt lat="33.8099033" lon="-118.3941474">
  <ele>-29.36</ele>
  <time>2026-09-01T01:13:43Z</time>
  <course>209.65</course>
  <speed>0.96</speed>
  <fix>3d</fix>
</trkpt>
<trkpt lat="33.8099019" lon="-118.3941485">
  <ele>-30.355</ele>
  <time>2026-09-01T01:13:43Z</time>
  <course>210.82</course>
  <speed>0.9415412895885129</speed>
  <fix>3d</fix>
</trkpt>
<trkpt lat="33.8099033" lon="-118.3941474">
  <ele>-29.36</ele>
  <time>2026-09-01T01:13:43Z</time>
  <course>209.65</course>
  <speed>0.96</speed>
  <fix>3d</fix>
</trkpt>
<trkpt lat="33.8099011" lon="-118.394149">
  <ele>-30.436</ele>
  <time>2026-09-01T01:13:43Z</time>
  <course>210.82</course>
  <speed>0.9415412895885129</speed>
  <fix>3d</fix>
</trkpt>
<trkpt lat="33.8099018" lon="-118.3941484">
  <ele>-29.52</ele>
  <time>2026-09-01T01:13:43Z</time>
  <course>209.65</course>
  <speed>0.97</speed>
  <fix>3d</fix>
</trkpt>
<trkpt lat="33.8099004" lon="-118.3941495">
  <ele>-30.516</ele>
  <time>2026-09-01T01:13:43Z</time>
  <course>210.81</course>
  <speed>0.9415412895885129</speed>
  <fix>3d</fix>
</trkpt>
<trkpt lat="33.8099018" lon="-118.3941484">
  <ele>-29.52</ele>
  <time>2026-09-01T01:13:43Z</time>
  <course>209.65</course>
  <speed>0.97</speed>
  <fix>3d</fix>
</trkpt>
<trkpt lat="33.8098996" lon="-118.3941501">
  <ele>-30.596</ele>
  <time>2026-09-01T01:13:43Z</time>
  <course>210.8</course>
  <speed>0.9415412895885129</speed>
  <fix>3d</fix>
</trkpt>
<trkpt lat="33.8099003" lon="-118.3941494">
  <ele>-29.68</ele>
  <time>2026-09-01T01:13:43Z</time>
  <course>209.64</course>
  <speed>0.97</speed>
  <fix>3d</fix>
</trkpt>
<trkpt lat="33.8098989" lon="-118.3941506">
  <ele>-30.675</ele>
  <time>2026-09-01T01:13:43Z</time>
  <course>210.8</course>
  <speed>0.9415412895885129</speed>
  <fix>3d</fix>
</trkpt>
<trkpt lat="33.8099003" lon="-118.3941494">
  <ele>-29.68</ele>
  <time>2026-09-01T01:13:43Z</time>
  <course>209.64</course>
  <speed>0.97</speed>
  <fix>3d</fix>
</trkpt>
<trkpt lat="33.8098981" lon="-118.3941511">
  <ele>-30.756</ele>
  <time>2026-09-01T01:13:43Z</time>
  <course>210.79</course>
  <speed>0.9415412895885129</speed>
  <fix>3d</fix>
</trkpt>
<trkpt lat="33.8098988" lon="-118.3941505">
  <ele>-29.84</ele>
  <time>2026-09-01T01:13:43Z</time>
  <course>209.64</course>
  <speed>0.97</speed>
  <fix>3d</fix>
</trkpt>
<trkpt lat="33.8098973" lon="-118.3941516">
  <ele>-30.84</ele>
  <time>2026-09-01T01:13:43Z</time>
  <course>210.79</course>
  <speed>0.9415412895885129</speed>
  <fix>3d</fix>
</trkpt>
<trkpt lat="33.8098988" lon="-118.3941505">
  <ele>-29.84</ele>
  <time>2026-09-01T01:13:43Z</time>
  <course>209.64</course>
  <speed>0.97</speed>
  <fix>3d</fix>
</trkpt>
<trkpt lat="33.8098966" lon="-118.3941521">
  <ele>-30.925</ele>
  <time>2026-09-01T01:13:43Z</time>
  <course>210.77</course>
  <speed>0.9415412895885129</speed>
  <fix>3d</fix>
</trkpt>
<trkpt lat="33.8098973" lon="-118.3941515">
  <ele>-30.0</ele>
  <time>2026-09-01T01:13:43Z</time>
  <course>209.63</course>
  <speed>0.96</speed>
  <fix>3d</fix>
</trkpt>
<trkpt lat="33.8098958" lon="-118.3941527">
  <ele>-31.011</ele>
  <time>2026-09-01T01:13:43Z</time>
  <course>210.76</course>
  <speed>0.9415412895885129</speed>
  <fix>3d</fix>
</trkpt>
<trkpt lat="33.8098973" lon="-118.3941515">
  <ele>-30.0</ele>
  <time>2026-09-01T01:13:43Z</time>
  <course>209.63</course>
  <speed>0.96</speed>
  <fix>3d</fix>
</trkpt>
<trkpt lat="33.8098951" lon="-118.3941532">
  <ele>-31.096</ele>
  <time>2026-09-01T01:13:43Z</time>
  <course>210.73</course>
  <speed>0.9415412895885129</speed>
  <fix>3d</fix>
</trkpt>
<trkpt lat="33.8098957" lon="-118.3941525">
  <ele>-30.16</ele>
  <time>2026-09-01T01:13:43Z</time>
  <course>209.6</course>
  <speed>0.96</speed>
  <fix>3d</fix>
</trkpt>
<trkpt lat="33.8098943" lon="-118.3941537">
  <ele>-31.184</ele>
  <time>2026-09-01T01:13:43Z</time>
  <course>210.73</course>
  <speed>0.9415412895885129</speed>
  <fix>3d</fix>
</trkpt>
<trkpt lat="33.8098957" lon="-118.3941525">
  <ele>-30.16</ele>
  <time>2026-09-01T01:13:43Z</time>
  <course>209.6</course>
  <speed>0.96</speed>
  <fix>3d</fix>
</trkpt>
<trkpt lat="33.8098936" lon="-118.3941542">
  <ele>-31.272</ele>
  <time>2026-09-01T01:13:43Z</time>
  <course>210.72</course>
  <speed>0.9415412895885129</speed>
  <fix>3d</fix>
</trkpt>
<trkpt lat="33.8098942" lon="-118.3941536">
  <ele>-30.33</ele>
  <time>2026-09-01T01:13:43Z</time>
  <course>209.61</course>
  <speed>0.96</speed>
  <fix>3d</fix>
</trkpt>
<trkpt lat="33.8098928" lon="-118.3941547">
  <ele>-31.361</ele>
  <time>2026-09-01T01:13:43Z</time>
  <course>210.74</course>
  <speed>0.9415412895885129</speed>
  <fix>3d</fix>
</trkpt>
<trkpt lat="33.8098942" lon="-118.3941536">
  <ele>-30.33</ele>
  <time>2026-09-01T01:13:43Z</time>
  <course>209.61</course>
  <speed>0.96</speed>
  <fix>3d</fix>
</trkpt>
<trkpt lat="33.809892" lon="-118.3941552">
  <ele>-31.449</ele>
  <time>2026-09-01T01:13:43Z</time>
  <course>210.75</course>
  <speed>0.9415412895885129</speed>
  <fix>3d</fix>
</trkpt>
<trkpt lat="33.8098927" lon="-118.3941546">
  <ele>-30.5</ele>
  <time>2026-09-01T01:13:43Z</time>
  <course>209.65</course>
  <speed>0.97</speed>
  <fix>3d</fix>
</trkpt>
<trkpt lat="33.8098913" lon="-118.3941558">
  <ele>-31.536</ele>
  <time>2026-09-01T01:13:43Z</time>
  <course>210.76</course>
  <speed>0.9415412895885129</speed>
  <fix>3d</fix>
</trkpt>
<trkpt lat="33.8098927" lon="-118.3941546">
  <ele>-30.5</ele>
  <time>2026-09-01T01:13:43Z</time>
  <course>209.65</course>
  <speed>0.97</speed>
  <fix>3d</fix>
</trkpt>
<trkpt lat="33.8098905" lon="-118.3941563">
  <ele>-31.621</ele>
  <time>2026-09-01T01:13:43Z</time>
  <course>210.77</course>
  <speed>0.9501578816175763</speed>
  <fix>3d</fix>
</trkpt>
<trkpt lat="33.8098912" lon="-118.3941556">
  <ele>-30.67</ele>
  <time>2026-09-01T01:13:43Z</time>
  <course>209.66</course>
  <speed>0.97</speed>
  <fix>3d</fix>
</trkpt>
<trkpt lat="33.8098898" lon="-118.3941568">
  <ele>-31.707</ele>
  <time>2026-09-01T01:13:43Z</time>
  <course>210.77</course>
  <speed>0.9501578816175763</speed>
  <fix>3d</fix>
</trkpt>
<trkpt lat="33.8098912" lon="-118.3941556">
  <ele>-30.67</ele>
  <time>2026-09-01T01:13:43Z</time>
  <course>209.66</course>
  <speed>0.97</speed>
  <fix>3d</fix>
</trkpt>
<trkpt lat="33.809889" lon="-118.3941573">
  <ele>-31.791</ele>
  <time>2026-09-01T01:13:43Z</time>
  <course>210.77</course>
  <speed>0.95524865872714</speed>
  <fix>3d</fix>
</trkpt>
<trkpt lat="33.8098897" lon="-118.3941567">
  <ele>-30.84</ele>
  <time>2026-09-01T01:13:43Z</time>
  <course>209.67</course>
  <speed>0.98</speed>
  <fix>3d</fix>
</trkpt>
<trkpt lat="33.8098882" lon="-118.3941579">
  <ele>-31.873</ele>
  <time>2026-09-01T01:13:43Z</time>
  <course>210.78</course>
  <speed>0.95524865872714</speed>
  <fix>3d</fix>
</trkpt>
<trkpt lat="33.8098897" lon="-118.3941567">
  <ele>-30.84</ele>
  <time>2026-09-01T01:13:43Z</time>
  <course>209.67</course>
  <speed>0.98</speed>
  <fix>3d</fix>
</trkpt>
<trkpt lat="33.8098875" lon="-118.3941584">
  <ele>-31.954</ele>
  <time>2026-09-01T01:13:43Z</time>
  <course>210.78</course>
  <speed>0.9501578816175763</speed>
  <fix>3d</fix>
</trkpt>
<trkpt lat="33.8098881" lon="-118.3941577">
  <ele>-31.0</ele>
  <time>2026-09-01T01:13:43Z</time>
  <course>209.68</course>
  <speed>0.98</speed>
  <fix>3d</fix>
</trkpt>
<trkpt lat="33.8098867" lon="-118.3941589">
  <ele>-32.035</ele>
  <time>2026-09-01T01:13:43Z</time>
  <course>210.78</course>
  <speed>0.9501578816175763</speed>
  <fix>3d</fix>
</trkpt>
<trkpt lat="33.8098881" lon="-118.3941577">
  <ele>-31.0</ele>
  <time>2026-09-01T01:13:43Z</time>
  <course>209.68</course>
  <speed>0.98</speed>
  <fix>3d</fix>
</trkpt>
<trkpt lat="33.8098859" lon="-118.3941594">
  <ele>-32.118</ele>
  <time>2026-09-01T01:13:43Z</time>
  <course>210.78</course>
  <speed>0.9501578816175763</speed>
  <fix>3d</fix>
</trkpt>
<trkpt lat="33.8098866" lon="-118.3941588">
  <ele>-31.16</ele>
  <time>2026-09-01T01:13:43Z</time>
  <course>209.69</course>
  <speed>0.98</speed>
  <fix>3d</fix>
</trkpt>
<trkpt lat="33.8098852" lon="-118.39416">
  <ele>-32.2</ele>
  <time>2026-09-01T01:13:43Z</time>
  <course>210.79</course>
  <speed>0.9501578816175763</speed>
  <fix>3d</fix>
</trkpt>
<trkpt lat="33.8098866" lon="-118.3941588">
  <ele>-31.16</ele>
  <time>2026-09-01T01:13:43Z</time>
  <course>209.69</course>
  <speed>0.98</speed>
  <fix>3d</fix>
</trkpt>
<trkpt lat="33.8098844" lon="-118.3941605">
  <ele>-32.284</ele>
  <time>2026-09-01T01:13:43Z</time>
  <course>210.8</course>
  <speed>0.9501578816175763</speed>
  <fix>3d</fix>
</trkpt>
<trkpt lat="33.8098851" lon="-118.3941598">
  <ele>-31.32</ele>
  <time>2026-09-01T01:13:43Z</time>
  <course>209.71</course>
  <speed>0.97</speed>
  <fix>3d</fix>
</trkpt>
<trkpt lat="33.8098836" lon="-118.394161">
  <ele>-32.368</ele>
  <time>2026-09-01T01:13:43Z</time>
  <course>210.8</course>
  <speed>0.9501578816175763</speed>
  <fix>3d</fix>
</trkpt>
<trkpt lat="33.8098851" lon="-118.3941598">
  <ele>-31.32</ele>
  <time>2026-09-01T01:13:43Z</time>
  <course>209.71</course>
  <speed>0.97</speed>
  <fix>3d</fix>
</trkpt>
<trkpt lat="33.8098829" lon="-118.3941615">
  <ele>-32.452</ele>
  <time>2026-09-01T01:13:43Z</time>
  <course>210.79</course>
  <speed>0.9501578816175763</speed>
  <fix>3d</fix>
</trkpt>
<trkpt lat="33.8098835" lon="-118.3941609">
  <ele>-31.48</ele>
  <time>2026-09-01T01:13:43Z</time>
  <course>209.7</course>
  <speed>0.97</speed>
  <fix>3d</fix>
</trkpt>
<trkpt lat="33.8098821" lon="-118.3941621">
  <ele>-32.536</ele>
  <time>2026-09-01T01:13:43Z</time>
  <course>210.79</course>
  <speed>0.9501578816175763</speed>
  <fix>3d</fix>
</trkpt>
<trkpt lat="33.8098835" lon="-118.3941609">
  <ele>-31.48</ele>
  <time>2026-09-01T01:13:43Z</time>
  <course>209.7</course>
  <speed>0.97</speed>
  <fix>3d</fix>
</trkpt>
<trkpt lat="33.8098813" lon="-118.3941626">
  <ele>-32.619</ele>
  <time>2026-09-01T01:13:43Z</time>
  <course>210.79</course>
  <speed>0.9501578816175763</speed>
  <fix>3d</fix>
</trkpt>
<trkpt lat="33.809882" lon="-118.3941619">
  <ele>-31.65</ele>
  <time>2026-09-01T01:13:43Z</time>
  <course>209.7</course>
  <speed>0.97</speed>
  <fix>3d</fix>
</trkpt>
<trkpt lat="33.8098806" lon="-118.3941631">
  <ele>-32.7</ele>
  <time>2026-09-01T01:13:43Z</time>
  <course>210.78</course>
  <speed>0.95524865872714</speed>
  <fix>3d</fix>
</trkpt>
<trkpt lat="33.809882" lon="-118.3941619">
  <ele>-31.65</ele>
  <time>2026-09-01T01:13:43Z</time>
  <course>209.7</course>
  <speed>0.97</speed>
  <fix>3d</fix>
</trkpt>
<trkpt lat="33.8098798" lon="-118.3941636">
  <ele>-32.781</ele>
  <time>2026-09-01T01:13:43Z</time>
  <course>210.78</course>
  <speed>0.9501578816175763</speed>
  <fix>3d</fix>
</trkpt>
<trkpt lat="33.8098805" lon="-118.394163">
  <ele>-31.81</ele>
  <time>2026-09-01T01:13:43Z</time>
  <course>209.72</course>
  <speed>0.98</speed>
  <fix>3d</fix>
</trkpt>
<trkpt lat="33.809879" lon="-118.3941642">
  <ele>-32.862</ele>
  <time>2026-09-01T01:13:44Z</time>
  <course>210.78</course>
  <speed>0.9501578816175763</speed>
  <fix>3d</fix>
</trkpt>
<trkpt lat="33.8098805" lon="-118.394163">
  <ele>-31.81</ele>
  <time>2026-09-01T01:13:44Z</time>
  <course>209.72</course>
  <speed>0.98</speed>
  <fix>3d</fix>
</trkpt>
<trkpt lat="33.8098783" lon="-118.3941647">
  <ele>-32.943</ele>
  <time>2026-09-01T01:13:44Z</time>
  <course>210.77</course>
  <speed>0.9501578816175763</speed>
  <fix>3d</fix>
</trkpt>
<trkpt lat="33.8098789" lon="-118.394164">
  <ele>-31.98</ele>
  <time>2026-09-01T01:13:44Z</time>
  <course>209.72</course>
  <speed>0.98</speed>
  <fix>3d</fix>
</trkpt>
<trkpt lat="33.8098775" lon="-118.3941652">
  <ele>-33.026</ele>
  <time>2026-09-01T01:13:44Z</time>
  <course>210.76</course>
  <speed>0.9501578816175763</speed>
  <fix>3d</fix>
</trkpt>
<trkpt lat="33.8098789" lon="-118.394164">
  <ele>-31.98</ele>
  <time>2026-09-01T01:13:44Z</time>
  <course>209.72</course>
  <speed>0.98</speed>
  <fix>3d</fix>
</trkpt>
<trkpt lat="33.8098767" lon="-118.3941657">
  <ele>-33.108</ele>
  <time>2026-09-01T01:13:44Z</time>
  <course>210.76</course>
  <speed>0.95524865872714</speed>
  <fix>3d</fix>
</trkpt>
<trkpt lat="33.8098774" lon="-118.3941651">
  <ele>-32.14</ele>
  <time>2026-09-01T01:13:44Z</time>
  <course>209.72</course>
  <speed>0.98</speed>
  <fix>3d</fix>
</trkpt>
<trkpt lat="33.809876" lon="-118.3941663">
  <ele>-33.19</ele>
  <time>2026-09-01T01:13:44Z</time>
  <course>210.75</course>
  <speed>0.9501578816175763</speed>
  <fix>3d</fix>
</trkpt>
<trkpt lat="33.8098774" lon="-118.3941651">
  <ele>-32.14</ele>
  <time>2026-09-01T01:13:44Z</time>
  <course>209.72</course>
  <speed>0.98</speed>
  <fix>3d</fix>
</trkpt>
<trkpt lat="33.8098752" lon="-118.3941668">
  <ele>-33.274</ele>
  <time>2026-09-01T01:13:44Z</time>
  <course>210.75</course>
  <speed>0.9501578816175763</speed>
  <fix>3d</fix>
</trkpt>
<trkpt lat="33.8098759" lon="-118.3941661">
  <ele>-32.3</ele>
  <time>2026-09-01T01:13:44Z</time>
  <course>209.72</course>
  <speed>0.98</speed>
  <fix>3d</fix>
</trkpt>
<trkpt lat="33.8098744" lon="-118.3941673">
  <ele>-33.357</ele>
  <time>2026-09-01T01:13:44Z</time>
  <course>210.74</course>
  <speed>0.9501578816175763</speed>
  <fix>3d</fix>
</trkpt>
<trkpt lat="33.8098759" lon="-118.3941661">
  <ele>-32.3</ele>
  <time>2026-09-01T01:13:44Z</time>
  <course>209.72</course>
  <speed>0.98</speed>
  <fix>3d</fix>
</trkpt>
<trkpt lat="33.8098737" lon="-118.3941678">
  <ele>-33.442</ele>
  <time>2026-09-01T01:13:44Z</time>
  <course>210.73</course>
  <speed>0.95524865872714</speed>
  <fix>3d</fix>
</trkpt>
<trkpt lat="33.8098744" lon="-118.3941672">
  <ele>-32.47</ele>
  <time>2026-09-01T01:13:44Z</time>
  <course>209.71</course>
  <speed>0.98</speed>
  <fix>3d</fix>
</trkpt>
<trkpt lat="33.8098729" lon="-118.3941684">
  <ele>-33.526</ele>
  <time>2026-09-01T01:13:44Z</time>
  <course>210.72</course>
  <speed>0.95524865872714</speed>
  <fix>3d</fix>
</trkpt>
<trkpt lat="33.8098744" lon="-118.3941672">
  <ele>-32.47</ele>
  <time>2026-09-01T01:13:44Z</time>
  <course>209.71</course>
  <speed>0.98</speed>
  <fix>3d</fix>
</trkpt>
<trkpt lat="33.8098721" lon="-118.3941689">
  <ele>-33.609</ele>
  <time>2026-09-01T01:13:44Z</time>
  <course>210.7</course>
  <speed>0.95524865872714</speed>
  <fix>3d</fix>
</trkpt>
<trkpt lat="33.8098728" lon="-118.3941683">
  <ele>-32.64</ele>
  <time>2026-09-01T01:13:44Z</time>
  <course>209.68</course>
  <speed>0.98</speed>
  <fix>3d</fix>
</trkpt>
<trkpt lat="33.8098713" lon="-118.3941694">
  <ele>-33.692</ele>
  <time>2026-09-01T01:13:44Z</time>
  <course>210.67</course>
  <speed>0.95524865872714</speed>
  <fix>3d</fix>
</trkpt>
<trkpt lat="33.8098728" lon="-118.3941683">
  <ele>-32.64</ele>
  <time>2026-09-01T01:13:44Z</time>
  <course>209.68</course>
  <speed>0.98</speed>
  <fix>3d</fix>
</trkpt>
<trkpt lat="33.8098706" lon="-118.3941699">
  <ele>-33.776</ele>
  <time>2026-09-01T01:13:44Z</time>
  <course>210.64</course>
  <speed>0.9638464608017192</speed>
  <fix>3d</fix>
</trkpt>
<trkpt lat="33.8098713" lon="-118.3941693">
  <ele>-32.8</ele>
  <time>2026-09-01T01:13:44Z</time>
  <course>209.63</course>
  <speed>0.98</speed>
  <fix>3d</fix>
</trkpt>
<trkpt lat="33.8098698" lon="-118.3941705">
  <ele>-33.858</ele>
  <time>2026-09-01T01:13:44Z</time>
  <course>210.6</course>
  <speed>0.9501578816175763</speed>
  <fix>3d</fix>
</trkpt>
<trkpt lat="33.8098713" lon="-118.3941693">
  <ele>-32.8</ele>
  <time>2026-09-01T01:13:44Z</time>
  <course>209.63</course>
  <speed>0.98</speed>
  <fix>3d</fix>
</trkpt>
<trkpt lat="33.809869" lon="-118.394171">
  <ele>-33.942</ele>
  <time>2026-09-01T01:13:44Z</time>
  <course>210.58</course>
  <speed>0.9501578816175763</speed>
  <fix>3d</fix>
</trkpt>
<trkpt lat="33.8098698" lon="-118.3941704">
  <ele>-32.96</ele>
  <time>2026-09-01T01:13:44Z</time>
  <course>209.59</course>
  <speed>0.98</speed>
  <fix>3d</fix>
</trkpt>
<trkpt lat="33.8098683" lon="-118.3941715">
  <ele>-34.026</ele>
  <time>2026-09-01T01:13:44Z</time>
  <course>210.55</course>
  <speed>0.9501578816175763</speed>
  <fix>3d</fix>
</trkpt>
<trkpt lat="33.8098698" lon="-118.3941704">
  <ele>-32.96</ele>
  <time>2026-09-01T01:13:44Z</time>
  <course>209.59</course>
  <speed>0.98</speed>
  <fix>3d</fix>
</trkpt>
<trkpt lat="33.8098675" lon="-118.3941721">
  <ele>-34.112</ele>
  <time>2026-09-01T01:13:44Z</time>
  <course>210.52</course>
  <speed>0.9415412895885129</speed>
  <fix>3d</fix>
</trkpt>
<trkpt lat="33.8098682" lon="-118.3941714">
  <ele>-33.12</ele>
  <time>2026-09-01T01:13:44Z</time>
  <course>209.56</course>
  <speed>0.98</speed>
  <fix>3d</fix>
</trkpt>
<trkpt lat="33.8098668" lon="-118.3941726">
  <ele>-34.195</ele>
  <time>2026-09-01T01:13:44Z</time>
  <course>210.5</course>
  <speed>0.8832326986700617</speed>
  <fix>3d</fix>
</trkpt>
<trkpt lat="33.8098682" lon="-118.3941714">
  <ele>-33.12</ele>
  <time>2026-09-01T01:13:44Z</time>
  <course>209.56</course>
  <speed>0.98</speed>
  <fix>3d</fix>
</trkpt>
<trkpt lat="33.8098661" lon="-118.394173">
  <ele>-34.28</ele>
  <time>2026-09-01T01:13:44Z</time>
  <course>210.52</course>
  <speed>0.9055385138137417</speed>
  <fix>3d</fix>
</trkpt>
<trkpt lat="33.8098667" lon="-118.3941725">
  <ele>-33.29</ele>
  <time>2026-09-01T01:13:44Z</time>
  <course>209.56</course>
  <speed>0.95</speed>
  <fix>3d</fix>
</trkpt>
<trkpt lat="33.8098653" lon="-118.3941736">
  <ele>-34.364</ele>
  <time>2026-09-01T01:13:44Z</time>
  <course>210.53</course>
  <speed>0.9055385138137417</speed>
  <fix>3d</fix>
</trkpt>
<trkpt lat="33.8098667" lon="-118.3941725">
  <ele>-33.29</ele>
  <time>2026-09-01T01:13:44Z</time>
  <course>209.56</course>
  <speed>0.95</speed>
  <fix>3d</fix>
</trkpt>
<trkpt lat="33.8098646" lon="-118.3941741">
  <ele>-34.449</ele>
  <time>2026-09-01T01:13:44Z</time>
  <course>210.52</course>
  <speed>0.914166286842826</speed>
  <fix>3d</fix>
</trkpt>
<trkpt lat="33.8098653" lon="-118.3941735">
  <ele>-33.46</ele>
  <time>2026-09-01T01:13:44Z</time>
  <course>209.56</course>
  <speed>0.93</speed>
  <fix>3d</fix>
</trkpt>
<trkpt lat="33.8098638" lon="-118.3941746">
  <ele>-34.536</ele>
  <time>2026-09-01T01:13:44Z</time>
  <course>210.49</course>
  <speed>0.914166286842826</speed>
  <fix>3d</fix>
</trkpt>
<trkpt lat="33.8098653" lon="-118.3941735">
  <ele>-33.46</ele>
  <time>2026-09-01T01:13:44Z</time>
  <course>209.56</course>
  <speed>0.93</speed>
  <fix>3d</fix>
</trkpt>
<trkpt lat="33.8098631" lon="-118.3941751">
  <ele>-34.624</ele>
  <time>2026-09-01T01:13:44Z</time>
  <course>210.44</course>
  <speed>0.9192388155425119</speed>
  <fix>3d</fix>
</trkpt>
<trkpt lat="33.8098638" lon="-118.3941745">
  <ele>-33.63</ele>
  <time>2026-09-01T01:13:44Z</time>
  <course>209.49</course>
  <speed>0.94</speed>
  <fix>3d</fix>
</trkpt>
<trkpt lat="33.8098624" lon="-118.3941756">
  <ele>-34.713</ele>
  <time>2026-09-01T01:13:44Z</time>
  <course>210.4</course>
  <speed>0.9278469701410895</speed>
  <fix>3d</fix>
</trkpt>
<trkpt lat="33.8098638" lon="-118.3941745">
  <ele>-33.63</ele>
  <time>2026-09-01T01:13:44Z</time>
  <course>209.49</course>
  <speed>0.94</speed>
  <fix>3d</fix>
</trkpt>
<trkpt lat="33.8098616" lon="-118.3941761">
  <ele>-34.801</ele>
  <time>2026-09-01T01:13:44Z</time>
  <course>210.36</course>
  <speed>0.9364827814754524</speed>
  <fix>3d</fix>
</trkpt>
<trkpt lat="33.8098623" lon="-118.3941755">
  <ele>-33.8</ele>
  <time>2026-09-01T01:13:44Z</time>
  <course>209.42</course>
  <speed>0.95</speed>
  <fix>3d</fix>
</trkpt>
<trkpt lat="33.8098608" lon="-118.3941766">
  <ele>-34.888</ele>
  <time>2026-09-01T01:13:44Z</time>
  <course>210.34</course>
  <speed>0.9415412895885129</speed>
  <fix>3d</fix>
</trkpt>
<trkpt lat="33.8098623" lon="-118.3941755">
  <ele>-33.8</ele>
  <time>2026-09-01T01:13:44Z</time>
  <course>209.42</course>
  <speed>0.95</speed>
  <fix>3d</fix>
</trkpt>
<trkpt lat="33.8098601" lon="-118.3941772">
  <ele>-34.972</ele>
  <time>2026-09-01T01:13:44Z</time>
  <course>210.32</course>
  <speed>0.9638464608017192</speed>
  <fix>3d</fix>
</trkpt>
<trkpt lat="33.8098608" lon="-118.3941765">
  <ele>-33.97</ele>
  <time>2026-09-01T01:13:44Z</time>
  <course>209.39</course>
  <speed>0.96</speed>
  <fix>3d</fix>
</trkpt>
<trkpt lat="33.8098593" lon="-118.3941777">
  <ele>-35.051</ele>
  <time>2026-09-01T01:13:44Z</time>
  <course>210.31</course>
  <speed>0.986154146165801</speed>
  <fix>3d</fix>
</trkpt>
<trkpt lat="33.8098608" lon="-118.3941765">
  <ele>-33.97</ele>
  <time>2026-09-01T01:13:44Z</time>
  <course>209.39</course>
  <speed>0.96</speed>
  <fix>3d</fix>
</trkpt>
<trkpt lat="33.8098585" lon="-118.3941782">
  <ele>-35.123</ele>
  <time>2026-09-01T01:13:44Z</time>
  <course>210.31</course>
  <speed>0.994786409235671</speed>
  <fix>3d</fix>
</trkpt>
<trkpt lat="33.8098593" lon="-118.3941775">
  <ele>-34.13</ele>
  <time>2026-09-01T01:13:44Z</time>
  <course>209.39</course>
  <speed>0.99</speed>
  <fix>3d</fix>
</trkpt>
<trkpt lat="33.8098577" lon="-118.3941788">
  <ele>-35.188</ele>
  <time>2026-09-01T01:13:44Z</time>
  <course>210.31</course>
  <speed>0.9998499887483122</speed>
  <fix>3d</fix>
</trkpt>
<trkpt lat="33.8098593" lon="-118.3941775">
  <ele>-34.13</ele>
  <time>2026-09-01T01:13:44Z</time>
  <course>209.39</course>
  <speed>0.99</speed>
  <fix>3d</fix>
</trkpt>
<trkpt lat="33.8098569" lon="-118.3941793">
  <ele>-35.245</ele>
  <time>2026-09-01T01:13:44Z</time>
  <course>210.33</course>
  <speed>0.9998499887483122</speed>
  <fix>3d</fix>
</trkpt>
<trkpt lat="33.8098576" lon="-118.3941786">
  <ele>-34.27</ele>
  <time>2026-09-01T01:13:44Z</time>
  <course>209.42</course>
  <speed>1.02</speed>
  <fix>3d</fix>
</trkpt>
<trkpt lat="33.8098561" lon="-118.3941799">
  <ele>-35.293</ele>
  <time>2026-09-01T01:13:44Z</time>
  <course>210.36</course>
  <speed>0.9998499887483122</speed>
  <fix>3d</fix>
</trkpt>
<trkpt lat="33.8098576" lon="-118.3941786">
  <ele>-34.27</ele>
  <time>2026-09-01T01:13:44Z</time>
  <course>209.42</course>
  <speed>1.02</speed>
  <fix>3d</fix>
</trkpt>
<trkpt lat="33.8098553" lon="-118.3941804">
  <ele>-35.331</ele>
  <time>2026-09-01T01:13:44Z</time>
  <course>210.4</course>
  <speed>0.994786409235671</speed>
  <fix>3d</fix>
</trkpt>
<trkpt lat="33.8098561" lon="-118.3941796">
  <ele>-34.37</ele>
  <time>2026-09-01T01:13:44Z</time>
  <course>209.46</course>
  <speed>1.02</speed>
  <fix>3d</fix>
</trkpt>
<trkpt lat="33.8098545" lon="-118.394181">
  <ele>-35.36</ele>
  <time>2026-09-01T01:13:44Z</time>
  <course>210.44</course>
  <speed>0.986154146165801</speed>
  <fix>3d</fix>
</trkpt>
<trkpt lat="33.8098561" lon="-118.3941796">
  <ele>-34.37</ele>
  <time>2026-09-01T01:13:44Z</time>
  <course>209.46</course>
  <speed>1.02</speed>
  <fix>3d</fix>
</trkpt>
<trkpt lat="33.8098537" lon="-118.3941815">
  <ele>-35.38</ele>
  <time>2026-09-01T01:13:44Z</time>
  <course>210.51</course>
  <speed>0.986154146165801</speed>
  <fix>3d</fix>
</trkpt>
<trkpt lat="33.8098545" lon="-118.3941807">
  <ele>-34.44</ele>
  <time>2026-09-01T01:13:44Z</time>
  <course>209.53</course>
  <speed>1.02</speed>
  <fix>3d</fix>
</trkpt>
<trkpt lat="33.8098529" lon="-118.394182">
  <ele>-35.388</ele>
  <time>2026-09-01T01:13:44Z</time>
  <course>210.57</course>
  <speed>0.986154146165801</speed>
  <fix>3d</fix>
</trkpt>
<trkpt lat="33.8098545" lon="-118.3941807">
  <ele>-34.44</ele>
  <time>2026-09-01T01:13:44Z</time>
  <course>209.53</course>
  <speed>1.02</speed>
  <fix>3d</fix>
</trkpt>
<trkpt lat="33.8098521" lon="-118.3941826">
  <ele>-35.383</ele>
  <time>2026-09-01T01:13:44Z</time>
  <course>210.63</course>
  <speed>0.9775479527879949</speed>
  <fix>3d</fix>
</trkpt>
<trkpt lat="33.8098528" lon="-118.3941818">
  <ele>-34.49</ele>
  <time>2026-09-01T01:13:44Z</time>
  <course>209.59</course>
  <speed>1.01</speed>
  <fix>3d</fix>
</trkpt>
<trkpt lat="33.8098513" lon="-118.3941831">
  <ele>-35.368</ele>
  <time>2026-09-01T01:13:44Z</time>
  <course>210.68</course>
  <speed>0.9775479527879949</speed>
  <fix>3d</fix>
</trkpt>
<trkpt lat="33.8098528" lon="-118.3941818">
  <ele>-34.49</ele>
  <time>2026-09-01T01:13:44Z</time>
  <course>209.59</course>
  <speed>1.01</speed>
  <fix>3d</fix>
</trkpt>
<trkpt lat="33.8098505" lon="-118.3941836">
  <ele>-35.343</ele>
  <time>2026-09-01T01:13:44Z</time>
  <course>210.75</course>
  <speed>0.9775479527879949</speed>
  <fix>3d</fix>
</trkpt>
<trkpt lat="33.8098513" lon="-118.3941829">
  <ele>-34.49</ele>
  <time>2026-09-01T01:13:44Z</time>
  <course>209.65</course>
  <speed>1.01</speed>
  <fix>3d</fix>
</trkpt>
<trkpt lat="33.8098498" lon="-118.3941842">
  <ele>-35.306</ele>
  <time>2026-09-01T01:13:44Z</time>
  <course>210.81</course>
  <speed>0.9775479527879949</speed>
  <fix>3d</fix>
</trkpt>
<trkpt lat="33.8098513" lon="-118.3941829">
  <ele>-34.49</ele>
  <time>2026-09-01T01:13:44Z</time>
  <course>209.65</course>
  <speed>1.01</speed>
  <fix>3d</fix>
</trkpt>
<trkpt lat="33.809849" lon="-118.3941847">
  <ele>-35.261</ele>
  <time>2026-09-01T01:13:44Z</time>
  <course>210.86</course>
  <speed>0.9775479527879949</speed>
  <fix>3d</fix>
</trkpt>
<trkpt lat="33.8098497" lon="-118.394184">
  <ele>-34.44</ele>
  <time>2026-09-01T01:13:44Z</time>
  <course>209.7</course>
  <speed>1.0</speed>
  <fix>3d</fix>
</trkpt>
<trkpt lat="33.8098482" lon="-118.3941852">
  <ele>-35.21</ele>
  <time>2026-09-01T01:13:44Z</time>
  <course>210.9</course>
  <speed>0.9689685237405805</speed>
  <fix>3d</fix>
</trkpt>
<trkpt lat="33.8098497" lon="-118.394184">
  <ele>-34.44</ele>
  <time>2026-09-01T01:13:44Z</time>
  <course>209.7</course>
  <speed>1.0</speed>
  <fix>3d</fix>
</trkpt>
<trkpt lat="33.8098474" lon="-118.3941858">
  <ele>-35.16</ele>
  <time>2026-09-01T01:13:44Z</time>
  <course>210.92</course>
  <speed>0.9638464608017192</speed>
  <fix>3d</fix>
</trkpt>
<trkpt lat="33.8098482" lon="-118.394185">
  <ele>-34.37</ele>
  <time>2026-09-01T01:13:44Z</time>
  <course>209.71</course>
  <speed>1.0</speed>
  <fix>3d</fix>
</trkpt>
<trkpt lat="33.8098466" lon="-118.3941863">
  <ele>-35.11</ele>
  <time>2026-09-01T01:13:44Z</time>
  <course>210.94</course>
  <speed>0.9638464608017192</speed>
  <fix>3d</fix>
</trkpt>
<trkpt lat="33.8098482" lon="-118.394185">
  <ele>-34.37</ele>
  <time>2026-09-01T01:13:44Z</time>
  <course>209.71</course>
  <speed>1.0</speed>
  <fix>3d</fix>
</trkpt>
<trkpt lat="33.8098459" lon="-118.3941868">
  <ele>-35.061</ele>
  <time>2026-09-01T01:13:44Z</time>
  <course>210.96</course>
  <speed>0.9638464608017192</speed>
  <fix>3d</fix>
</trkpt>
<trkpt lat="33.8098466" lon="-118.3941861">
  <ele>-34.28</ele>
  <time>2026-09-01T01:13:44Z</time>
  <course>209.72</course>
  <speed>1.0</speed>
  <fix>3d</fix>
</trkpt>
<trkpt lat="33.8098451" lon="-118.3941874">
  <ele>-35.015</ele>
  <time>2026-09-01T01:13:44Z</time>
  <course>210.98</course>
  <speed>0.9638464608017192</speed>
  <fix>3d</fix>
</trkpt>
<trkpt lat="33.8098466" lon="-118.3941861">
  <ele>-34.28</ele>
  <time>2026-09-01T01:13:44Z</time>
  <course>209.72</course>
  <speed>1.0</speed>
  <fix>3d</fix>
</trkpt>
<trkpt lat="33.8098443" lon="-118.3941879">
  <ele>-34.974</ele>
  <time>2026-09-01T01:13:44Z</time>
  <course>210.99</course>
  <speed>0.9638464608017192</speed>
  <fix>3d</fix>
</trkpt>
<trkpt lat="33.8098451" lon="-118.3941872">
  <ele>-34.2</ele>
  <time>2026-09-01T01:13:44Z</time>
  <course>209.76</course>
  <speed>0.99</speed>
  <fix>3d</fix>
</trkpt>
<trkpt lat="33.8098435" lon="-118.3941884">
  <ele>-34.935</ele>
  <time>2026-09-01T01:13:44Z</time>
  <course>210.99</course>
  <speed>0.9638464608017192</speed>
  <fix>3d</fix>
</trkpt>
<trkpt lat="33.8098451" lon="-118.3941872">
  <ele>-34.2</ele>
  <time>2026-09-01T01:13:44Z</time>
  <course>209.76</course>
  <speed>0.99</speed>
  <fix>3d</fix>
</trkpt>
<trkpt lat="33.8098427" lon="-118.394189">
  <ele>-34.9</ele>
  <time>2026-09-01T01:13:44Z</time>
  <course>210.98</course>
  <speed>0.9638464608017192</speed>
  <fix>3d</fix>
</trkpt>
<trkpt lat="33.8098435" lon="-118.3941883">
  <ele>-34.12</ele>
  <time>2026-09-01T01:13:44Z</time>
  <course>209.76</course>
  <speed>0.99</speed>
  <fix>3d</fix>
</trkpt>
<trkpt lat="33.809842" lon="-118.3941895">
  <ele>-34.869</ele>
  <time>2026-09-01T01:13:44Z</time>
  <course>210.95</course>
  <speed>0.9638464608017192</speed>
  <fix>3d</fix>
</trkpt>
<trkpt lat="33.8098435" lon="-118.3941883">
  <ele>-34.12</ele>
  <time>2026-09-01T01:13:44Z</time>
  <course>209.76</course>
  <speed>0.99</speed>
  <fix>3d</fix>
</trkpt>
<trkpt lat="33.8098412" lon="-118.39419">
  <ele>-34.843</ele>
  <time>2026-09-01T01:13:44Z</time>
  <course>210.91</course>
  <speed>0.9638464608017192</speed>
  <fix>3d</fix>
</trkpt>
<trkpt lat="33.8098419" lon="-118.3941893">
  <ele>-34.06</ele>
  <time>2026-09-01T01:13:44Z</time>
  <course>209.74</course>
  <speed>0.99</speed>
  <fix>3d</fix>
</trkpt>
<trkpt lat="33.8098404" lon="-118.3941906">
  <ele>-34.824</ele>
  <time>2026-09-01T01:13:44Z</time>
  <course>210.88</course>
  <speed>0.9638464608017192</speed>
  <fix>3d</fix>
</trkpt>
<trkpt lat="33.8098419" lon="-118.3941893">
  <ele>-34.06</ele>
  <time>2026-09-01T01:13:44Z</time>
  <course>209.74</course>
  <speed>0.99</speed>
  <fix>3d</fix>
</trkpt>
<trkpt lat="33.8098396" lon="-118.3941911">
  <ele>-34.817</ele>
  <time>2026-09-01T01:13:44Z</time>
  <course>210.88</course>
  <speed>0.9638464608017192</speed>
  <fix>3d</fix>
</trkpt>
<trkpt lat="33.8098404" lon="-118.3941904">
  <ele>-34.02</ele>
  <time>2026-09-01T01:13:44Z</time>
  <course>209.74</course>
  <speed>0.99</speed>
  <fix>3d</fix>
</trkpt>
<trkpt lat="33.8098389" lon="-118.3941916">
  <ele>-34.82</ele>
  <time>2026-09-01T01:13:44Z</time>
  <course>210.87</course>
  <speed>0.9638464608017192</speed>
  <fix>3d</fix>
</trkpt>
<trkpt lat="33.8098404" lon="-118.3941904">
  <ele>-34.02</ele>
  <time>2026-09-01T01:13:44Z</time>
  <course>209.74</course>
  <speed>0.99</speed>
  <fix>3d</fix>
</trkpt>
<trkpt lat="33.8098381" lon="-118.3941922">
  <ele>-34.831</ele>
  <time>2026-09-01T01:13:44Z</time>
  <course>210.86</course>
  <speed>0.9638464608017192</speed>
  <fix>3d</fix>
</trkpt>
<trkpt lat="33.8098388" lon="-118.3941915">
  <ele>-34.01</ele>
  <time>2026-09-01T01:13:44Z</time>
  <course>209.77</course>
  <speed>0.99</speed>
  <fix>3d</fix>
</trkpt>
<trkpt lat="33.8098373" lon="-118.3941927">
  <ele>-34.851</ele>
  <time>2026-09-01T01:13:44Z</time>
  <course>210.85</course>
  <speed>0.9638464608017192</speed>
  <fix>3d</fix>
</trkpt>
<trkpt lat="33.8098388" lon="-118.3941915">
  <ele>-34.01</ele>
  <time>2026-09-01T01:13:44Z</time>
  <course>209.77</course>
  <speed>0.99</speed>
  <fix>3d</fix>
</trkpt>
<trkpt lat="33.8098365" lon="-118.3941932">
  <ele>-34.876</ele>
  <time>2026-09-01T01:13:44Z</time>
  <course>210.83</course>
  <speed>0.9638464608017192</speed>
  <fix>3d</fix>
</trkpt>
<trkpt lat="33.8098373" lon="-118.3941926">
  <ele>-34.03</ele>
  <time>2026-09-01T01:13:44Z</time>
  <course>209.77</course>
  <speed>0.99</speed>
  <fix>3d</fix>
</trkpt>
<trkpt lat="33.8098357" lon="-118.3941938">
  <ele>-34.906</ele>
  <time>2026-09-01T01:13:44Z</time>
  <course>210.8</course>
  <speed>0.9638464608017192</speed>
  <fix>3d</fix>
</trkpt>
<trkpt lat="33.8098373" lon="-118.3941926">
  <ele>-34.03</ele>
  <time>2026-09-01T01:13:44Z</time>
  <course>209.77</course>
  <speed>0.99</speed>
  <fix>3d</fix>
</trkpt>
<trkpt lat="33.809835" lon="-118.3941943">
  <ele>-34.94</ele>
  <time>2026-09-01T01:13:44Z</time>
  <course>210.77</course>
  <speed>0.9638464608017192</speed>
  <fix>3d</fix>
</trkpt>
<trkpt lat="33.8098357" lon="-118.3941936">
  <ele>-34.08</ele>
  <time>2026-09-01T01:13:44Z</time>
  <course>209.73</course>
  <speed>0.99</speed>
  <fix>3d</fix>
</trkpt>
<trkpt lat="33.8098342" lon="-118.3941948">
  <ele>-34.977</ele>
  <time>2026-09-01T01:13:44Z</time>
  <course>210.73</course>
  <speed>0.9638464608017192</speed>
  <fix>3d</fix>
</trkpt>
<trkpt lat="33.8098357" lon="-118.3941936">
  <ele>-34.08</ele>
  <time>2026-09-01T01:13:44Z</time>
  <course>209.73</course>
  <speed>0.99</speed>
  <fix>3d</fix>
</trkpt>
<trkpt lat="33.8098334" lon="-118.3941954">
  <ele>-35.015</ele>
  <time>2026-09-01T01:13:44Z</time>
  <course>210.71</course>
  <speed>0.9638464608017192</speed>
  <fix>3d</fix>
</trkpt>
<trkpt lat="33.8098342" lon="-118.3941947">
  <ele>-34.14</ele>
  <time>2026-09-01T01:13:44Z</time>
  <course>209.7</course>
  <speed>0.99</speed>
  <fix>3d</fix>
</trkpt>
<trkpt lat="33.8098326" lon="-118.3941959">
  <ele>-35.051</ele>
  <time>2026-09-01T01:13:44Z</time>
  <course>210.68</course>
  <speed>0.9638464608017192</speed>
  <fix>3d</fix>
</trkpt>
<trkpt lat="33.8098342" lon="-118.3941947">
  <ele>-34.14</ele>
  <time>2026-09-01T01:13:44Z</time>
  <course>209.7</course>
  <speed>0.99</speed>
  <fix>3d</fix>
</trkpt>
<trkpt lat="33.8098319" lon="-118.3941964">
  <ele>-35.086</ele>
  <time>2026-09-01T01:13:44Z</time>
  <course>210.66</course>
  <speed>0.9638464608017192</speed>
  <fix>3d</fix>
</trkpt>
<trkpt lat="33.8098326" lon="-118.3941958">
  <ele>-34.2</ele>
  <time>2026-09-01T01:13:44Z</time>
  <course>209.68</course>
  <speed>0.99</speed>
  <fix>3d</fix>
</trkpt>
<trkpt lat="33.8098311" lon="-118.394197">
  <ele>-35.118</ele>
  <time>2026-09-01T01:13:44Z</time>
  <course>210.63</course>
  <speed>0.9638464608017192</speed>
  <fix>3d</fix>
</trkpt>
<trkpt lat="33.8098326" lon="-118.3941958">
  <ele>-34.2</ele>
  <time>2026-09-01T01:13:44Z</time>
  <course>209.68</course>
  <speed>0.99</speed>
  <fix>3d</fix>
</trkpt>
<trkpt lat="33.8098303" lon="-118.3941975">
  <ele>-35.146</ele>
  <time>2026-09-01T01:13:44Z</time>
  <course>210.6</course>
  <speed>0.9638464608017192</speed>
  <fix>3d</fix>
</trkpt>
<trkpt lat="33.809831" lon="-118.3941968">
  <ele>-34.26</ele>
  <time>2026-09-01T01:13:44Z</time>
  <course>209.63</course>
  <speed>0.99</speed>
  <fix>3d</fix>
</trkpt>
<trkpt lat="33.8098295" lon="-118.394198">
  <ele>-35.17</ele>
  <time>2026-09-01T01:13:44Z</time>
  <course>210.57</course>
  <speed>0.9638464608017192</speed>
  <fix>3d</fix>
</trkpt>
<trkpt lat="33.809831" lon="-118.3941968">
  <ele>-34.26</ele>
  <time>2026-09-01T01:13:44Z</time>
  <course>209.63</course>
  <speed>0.99</speed>
  <fix>3d</fix>
</trkpt>
<trkpt lat="33.8098288" lon="-118.3941986">
  <ele>-35.188</ele>
  <time>2026-09-01T01:13:44Z</time>
  <course>210.56</course>
  <speed>0.9638464608017192</speed>
  <fix>3d</fix>
</trkpt>
<trkpt lat="33.8098295" lon="-118.3941979">
  <ele>-34.31</ele>
  <time>2026-09-01T01:13:44Z</time>
  <course>209.62</course>
  <speed>0.99</speed>
  <fix>3d</fix>
</trkpt>
<trkpt lat="33.809828" lon="-118.3941991">
  <ele>-35.198</ele>
  <time>2026-09-01T01:13:44Z</time>
  <course>210.56</course>
  <speed>0.9638464608017192</speed>
  <fix>3d</fix>
</trkpt>
<trkpt lat="33.8098295" lon="-118.3941979">
  <ele>-34.31</ele>
  <time>2026-09-01T01:13:44Z</time>
  <course>209.62</course>
  <speed>0.99</speed>
  <fix>3d</fix>
</trkpt>
<trkpt lat="33.8098272" lon="-118.3941996">
  <ele>-35.202</ele>
  <time>2026-09-01T01:13:44Z</time>
  <course>210.56</course>
  <speed>0.9638464608017192</speed>
  <fix>3d</fix>
</trkpt>
<trkpt lat="33.8098279" lon="-118.394199">
  <ele>-34.34</ele>
  <time>2026-09-01T01:13:44Z</time>
  <course>209.62</course>
  <speed>0.99</speed>
  <fix>3d</fix>
</trkpt>
<trkpt lat="33.8098264" lon="-118.3942002">
  <ele>-35.198</ele>
  <time>2026-09-01T01:13:44Z</time>
  <course>210.55</course>
  <speed>0.9638464608017192</speed>
  <fix>3d</fix>
</trkpt>
<trkpt lat="33.8098279" lon="-118.394199">
  <ele>-34.34</ele>
  <time>2026-09-01T01:13:44Z</time>
  <course>209.62</course>
  <speed>0.99</speed>
  <fix>3d</fix>
</trkpt>
<trkpt lat="33.8098256" lon="-118.3942007">
  <ele>-35.183</ele>
  <time>2026-09-01T01:13:44Z</time>
  <course>210.54</course>
  <speed>0.9638464608017192</speed>
  <fix>3d</fix>
</trkpt>
<trkpt lat="33.8098264" lon="-118.3942">
  <ele>-34.34</ele>
  <time>2026-09-01T01:13:44Z</time>
  <course>209.58</course>
  <speed>0.99</speed>
  <fix>3d</fix>
</trkpt>
<trkpt lat="33.8098249" lon="-118.3942012">
  <ele>-35.164</ele>
  <time>2026-09-01T01:13:44Z</time>
  <course>210.53</course>
  <speed>0.9638464608017192</speed>
  <fix>3d</fix>
</trkpt>
<trkpt lat="33.8098264" lon="-118.3942">
  <ele>-34.34</ele>
  <time>2026-09-01T01:13:44Z</time>
  <course>209.58</course>
  <speed>0.99</speed>
  <fix>3d</fix>
</trkpt>
<trkpt lat="33.8098241" lon="-118.3942018">
  <ele>-35.142</ele>
  <time>2026-09-01T01:13:44Z</time>
  <course>210.52</course>
  <speed>0.9638464608017192</speed>
  <fix>3d</fix>
</trkpt>
<trkpt lat="33.8098248" lon="-118.3942011">
  <ele>-34.32</ele>
  <time>2026-09-01T01:13:44Z</time>
  <course>209.55</course>
  <speed>0.99</speed>
  <fix>3d</fix>
</trkpt>
<trkpt lat="33.8098233" lon="-118.3942023">
  <ele>-35.117</ele>
  <time>2026-09-01T01:13:44Z</time>
  <course>210.52</course>
  <speed>0.9638464608017192</speed>
  <fix>3d</fix>
</trkpt>
<trkpt lat="33.8098248" lon="-118.3942011">
  <ele>-34.32</ele>
  <time>2026-09-01T01:13:44Z</time>
  <course>209.55</course>
  <speed>0.99</speed>
  <fix>3d</fix>
</trkpt>
<trkpt lat="33.8098225" lon="-118.3942028">
  <ele>-35.086</ele>
  <time>2026-09-01T01:13:44Z</time>
  <course>210.52</course>
  <speed>0.9638464608017192</speed>
  <fix>3d</fix>
</trkpt>
<trkpt lat="33.8098233" lon="-118.3942022">
  <ele>-34.28</ele>
  <time>2026-09-01T01:13:44Z</time>
  <course>209.55</course>
  <speed>0.99</speed>
  <fix>3d</fix>
</trkpt>
<trkpt lat="33.8098218" lon="-118.3942034">
  <ele>-35.055</ele>
  <time>2026-09-01T01:13:44Z</time>
  <course>210.52</course>
  <speed>0.9638464608017192</speed>
  <fix>3d</fix>
</trkpt>
<trkpt lat="33.8098233" lon="-118.3942022">
  <ele>-34.28</ele>
  <time>2026-09-01T01:13:44Z</time>
  <course>209.55</course>
  <speed>0.99</speed>
  <fix>3d</fix>
</trkpt>
<trkpt lat="33.809821" lon="-118.3942039">
  <ele>-35.025</ele>
  <time>2026-09-01T01:13:44Z</time>
  <course>210.5</course>
  <speed>0.9638464608017192</speed>
  <fix>3d</fix>
</trkpt>
<trkpt lat="33.8098217" lon="-118.3942032">
  <ele>-34.23</ele>
  <time>2026-09-01T01:13:44Z</time>
  <course>209.52</course>
  <speed>0.99</speed>
  <fix>3d</fix>
</trkpt>
<trkpt lat="33.8098202" lon="-118.3942044">
  <ele>-34.996</ele>
  <time>2026-09-01T01:13:44Z</time>
  <course>210.49</course>
  <speed>0.9638464608017192</speed>
  <fix>3d</fix>
</trkpt>
<trkpt lat="33.8098217" lon="-118.3942032">
  <ele>-34.23</ele>
  <time>2026-09-01T01:13:44Z</time>
  <course>209.52</course>
  <speed>0.99</speed>
  <fix>3d</fix>
</trkpt>
<trkpt lat="33.8098194" lon="-118.394205">
  <ele>-34.97</ele>
  <time>2026-09-01T01:13:44Z</time>
  <course>210.48</course>
  <speed>0.9638464608017192</speed>
  <fix>3d</fix>
</trkpt>
<trkpt lat="33.8098202" lon="-118.3942043">
  <ele>-34.17</ele>
  <time>2026-09-01T01:13:44Z</time>
  <course>209.51</course>
  <speed>0.99</speed>
  <fix>3d</fix>
</trkpt>
<trkpt lat="33.8098187" lon="-118.3942055">
  <ele>-34.947</ele>
  <time>2026-09-01T01:13:44Z</time>
  <course>210.49</course>
  <speed>0.8695401083331349</speed>
  <fix>3d</fix>
</trkpt>
<trkpt lat="33.8098202" lon="-118.3942043">
  <ele>-34.17</ele>
  <time>2026-09-01T01:13:44Z</time>
  <course>209.51</course>
  <speed>0.99</speed>
  <fix>3d</fix>
</trkpt>
<trkpt lat="33.8098179" lon="-118.394206">
  <ele>-34.926</ele>
  <time>2026-09-01T01:13:44Z</time>
  <course>210.53</course>
  <speed>0.8969392398596462</speed>
  <fix>3d</fix>
</trkpt>
<trkpt lat="33.8098186" lon="-118.3942053">
  <ele>-34.12</ele>
  <time>2026-09-01T01:13:44Z</time>
  <course>209.54</course>
  <speed>0.95</speed>
  <fix>3d</fix>
</trkpt>
<trkpt lat="33.8098172" lon="-118.3942065">
  <ele>-34.914</ele>
  <time>2026-09-01T01:13:44Z</time>
  <course>210.55</course>
  <speed>0.9055385138137417</speed>
  <fix>3d</fix>
</trkpt>
<trkpt lat="33.8098186" lon="-118.3942053">
  <ele>-34.12</ele>
  <time>2026-09-01T01:13:44Z</time>
  <course>209.54</course>
  <speed>0.95</speed>
  <fix>3d</fix>
</trkpt>
<trkpt lat="33.8098165" lon="-118.394207">
  <ele>-34.913</ele>
  <time>2026-09-01T01:13:44Z</time>
  <course>210.57</course>
  <speed>0.9192388155425119</speed>
  <fix>3d</fix>
</trkpt>
<trkpt lat="33.8098172" lon="-118.3942064">
  <ele>-34.09</ele>
  <time>2026-09-01T01:13:44Z</time>
  <course>209.58</course>
  <speed>0.92</speed>
  <fix>3d</fix>
</trkpt>
<trkpt lat="33.8098157" lon="-118.3942075">
  <ele>-34.918</ele>
  <time>2026-09-01T01:13:44Z</time>
  <course>210.56</course>
  <speed>0.9278469701410895</speed>
  <fix>3d</fix>
</trkpt>
<trkpt lat="33.8098172" lon="-118.3942064">
  <ele>-34.09</ele>
  <time>2026-09-01T01:13:44Z</time>
  <course>209.58</course>
  <speed>0.92</speed>
  <fix>3d</fix>
</trkpt>
<trkpt lat="33.809815" lon="-118.394208">
  <ele>-34.929</ele>
  <time>2026-09-01T01:13:44Z</time>
  <course>210.54</course>
  <speed>0.9364827814754524</speed>
  <fix>3d</fix>
</trkpt>
<trkpt lat="33.8098157" lon="-118.3942074">
  <ele>-34.08</ele>
  <time>2026-09-01T01:13:44Z</time>
  <course>209.55</course>
  <speed>0.95</speed>
  <fix>3d</fix>
</trkpt>
<trkpt lat="33.8098142" lon="-118.3942085">
  <ele>-34.948</ele>
  <time>2026-09-01T01:13:44Z</time>
  <course>210.5</course>
  <speed>0.9415412895885129</speed>
  <fix>3d</fix>
</trkpt>
<trkpt lat="33.8098157" lon="-118.3942074">
  <ele>-34.08</ele>
  <time>2026-09-01T01:13:44Z</time>
  <course>209.55</course>
  <speed>0.95</speed>
  <fix>3d</fix>
</trkpt>
<trkpt lat="33.8098135" lon="-118.394209">
  <ele>-34.969</ele>
  <time>2026-09-01T01:13:44Z</time>
  <course>210.46</course>
  <speed>0.9415412895885129</speed>
  <fix>3d</fix>
</trkpt>
<trkpt lat="33.8098142" lon="-118.3942084">
  <ele>-34.1</ele>
  <time>2026-09-01T01:13:44Z</time>
  <course>209.48</course>
  <speed>0.96</speed>
  <fix>3d</fix>
</trkpt>
<trkpt lat="33.8098127" lon="-118.3942095">
  <ele>-34.99</ele>
  <time>2026-09-01T01:13:44Z</time>
  <course>210.42</course>
  <speed>0.9501578816175763</speed>
  <fix>3d</fix>
</trkpt>
<trkpt lat="33.8098142" lon="-118.3942084">
  <ele>-34.1</ele>
  <time>2026-09-01T01:13:44Z</time>
  <course>209.48</course>
  <speed>0.96</speed>
  <fix>3d</fix>
</trkpt>
<trkpt lat="33.809812" lon="-118.3942101">
  <ele>-35.01</ele>
  <time>2026-09-01T01:13:44Z</time>
  <course>210.39</course>
  <speed>0.9501578816175763</speed>
  <fix>3d</fix>
</trkpt>
<trkpt lat="33.8098126" lon="-118.3942094">
  <ele>-34.14</ele>
  <time>2026-09-01T01:13:44Z</time>
  <course>209.45</course>
  <speed>0.97</speed>
  <fix>3d</fix>
</trkpt>
<trkpt lat="33.8098112" lon="-118.3942106">
  <ele>-35.028</ele>
  <time>2026-09-01T01:13:44Z</time>
  <course>210.38</course>
  <speed>0.9501578816175763</speed>
  <fix>3d</fix>
</trkpt>
<trkpt lat="33.8098126" lon="-118.3942094">
  <ele>-34.14</ele>
  <time>2026-09-01T01:13:44Z</time>
  <course>209.45</course>
  <speed>0.97</speed>
  <fix>3d</fix>
</trkpt>
<trkpt lat="33.8098104" lon="-118.3942111">
  <ele>-35.045</ele>
  <time>2026-09-01T01:13:44Z</time>
  <course>210.38</course>
  <speed>0.9501578816175763</speed>
  <fix>3d</fix>
</trkpt>
<trkpt lat="33.8098111" lon="-118.3942104">
  <ele>-34.17</ele>
  <time>2026-09-01T01:13:44Z</time>
  <course>209.46</course>
  <speed>0.98</speed>
  <fix>3d</fix>
</trkpt>
<trkpt lat="33.8098097" lon="-118.3942116">
  <ele>-35.06</ele>
  <time>2026-09-01T01:13:44Z</time>
  <course>210.41</course>
  <speed>0.95524865872714</speed>
  <fix>3d</fix>
</trkpt>
<trkpt lat="33.8098111" lon="-118.3942104">
  <ele>-34.17</ele>
  <time>2026-09-01T01:13:44Z</time>
  <course>209.46</course>
  <speed>0.98</speed>
  <fix>3d</fix>
</trkpt>
<trkpt lat="33.8098089" lon="-118.3942121">
  <ele>-35.075</ele>
  <time>2026-09-01T01:13:44Z</time>
  <course>210.46</course>
  <speed>0.9638464608017192</speed>
  <fix>3d</fix>
</trkpt>
<trkpt lat="33.8098096" lon="-118.3942115">
  <ele>-34.2</ele>
  <time>2026-09-01T01:13:44Z</time>
  <course>209.53</course>
  <speed>0.98</speed>
  <fix>3d</fix>
</trkpt>
<trkpt lat="33.8098081" lon="-118.3942127">
  <ele>-35.087</ele>
  <time>2026-09-01T01:13:44Z</time>
  <course>210.49</course>
  <speed>0.9638464608017192</speed>
  <fix>3d</fix>
</trkpt>
<trkpt lat="33.8098096" lon="-118.3942115">
  <ele>-34.2</ele>
  <time>2026-09-01T01:13:44Z</time>
  <course>209.53</course>
  <speed>0.98</speed>
  <fix>3d</fix>
</trkpt>
<trkpt lat="33.8098073" lon="-118.3942132">
  <ele>-35.098</ele>
  <time>2026-09-01T01:13:44Z</time>
  <course>210.53</course>
  <speed>0.9638464608017192</speed>
  <fix>3d</fix>
</trkpt>
<trkpt lat="33.8098081" lon="-118.3942125">
  <ele>-34.23</ele>
  <time>2026-09-01T01:13:44Z</time>
  <course>209.58</course>
  <speed>0.99</speed>
  <fix>3d</fix>
</trkpt>
<trkpt lat="33.8098066" lon="-118.3942137">
  <ele>-35.104</ele>
  <time>2026-09-01T01:13:44Z</time>
  <course>210.54</course>
  <speed>0.9638464608017192</speed>
  <fix>3d</fix>
</trkpt>
<trkpt lat="33.8098081" lon="-118.3942125">
  <ele>-34.23</ele>
  <time>2026-09-01T01:13:44Z</time>
  <course>209.58</course>
  <speed>0.99</speed>
  <fix>3d</fix>
</trkpt>
<trkpt lat="33.8098058" lon="-118.3942143">
  <ele>-35.102</ele>
  <time>2026-09-01T01:13:44Z</time>
  <course>210.56</course>
  <speed>0.9638464608017192</speed>
  <fix>3d</fix>
</trkpt>
<trkpt lat="33.8098065" lon="-118.3942136">
  <ele>-34.24</ele>
  <time>2026-09-01T01:13:44Z</time>
  <course>209.59</course>
  <speed>0.99</speed>
  <fix>3d</fix>
</trkpt>
<trkpt lat="33.809805" lon="-118.3942148">
  <ele>-35.09</ele>
  <time>2026-09-01T01:13:44Z</time>
  <course>210.57</course>
  <speed>0.9638464608017192</speed>
  <fix>3d</fix>
</trkpt>
<trkpt lat="33.8098065" lon="-118.3942136">
  <ele>-34.24</ele>
  <time>2026-09-01T01:13:44Z</time>
  <course>209.59</course>
  <speed>0.99</speed>
  <fix>3d</fix>
</trkpt>
<trkpt lat="33.8098043" lon="-118.3942153">
  <ele>-35.075</ele>
  <time>2026-09-01T01:13:44Z</time>
  <course>210.58</course>
  <speed>0.9638464608017192</speed>
  <fix>3d</fix>
</trkpt>
<trkpt lat="33.809805" lon="-118.3942147">
  <ele>-34.24</ele>
  <time>2026-09-01T01:13:44Z</time>
  <course>209.58</course>
  <speed>0.99</speed>
  <fix>3d</fix>
</trkpt>
<trkpt lat="33.8098035" lon="-118.3942158">
  <ele>-35.061</ele>
  <time>2026-09-01T01:13:44Z</time>
  <course>210.58</course>
  <speed>0.9638464608017192</speed>
  <fix>3d</fix>
</trkpt>
<trkpt lat="33.809805" lon="-118.3942147">
  <ele>-34.24</ele>
  <time>2026-09-01T01:13:44Z</time>
  <course>209.58</course>
  <speed>0.99</speed>
  <fix>3d</fix>
</trkpt>
<trkpt lat="33.8098027" lon="-118.3942164">
  <ele>-35.048</ele>
  <time>2026-09-01T01:13:44Z</time>
  <course>210.58</course>
  <speed>0.9638464608017192</speed>
  <fix>3d</fix>
</trkpt>
<trkpt lat="33.8098033" lon="-118.3942157">
  <ele>-34.22</ele>
  <time>2026-09-01T01:13:44Z</time>
  <course>209.53</course>
  <speed>0.99</speed>
  <fix>3d</fix>
</trkpt>
<trkpt lat="33.8098019" lon="-118.3942169">
  <ele>-35.036</ele>
  <time>2026-09-01T01:13:44Z</time>
  <course>210.57</course>
  <speed>0.9638464608017192</speed>
  <fix>3d</fix>
</trkpt>
<trkpt lat="33.8098033" lon="-118.3942157">
  <ele>-34.22</ele>
  <time>2026-09-01T01:13:44Z</time>
  <course>209.53</course>
  <speed>0.99</speed>
  <fix>3d</fix>
</trkpt>
<trkpt lat="33.8098011" lon="-118.3942174">
  <ele>-35.024</ele>
  <time>2026-09-01T01:13:44Z</time>
  <course>210.58</course>
  <speed>0.9638464608017192</speed>
  <fix>3d</fix>
</trkpt>
<trkpt lat="33.8098018" lon="-118.3942168">
  <ele>-34.19</ele>
  <time>2026-09-01T01:13:44Z</time>
  <course>209.54</course>
  <speed>0.99</speed>
  <fix>3d</fix>
</trkpt>
<trkpt lat="33.8098004" lon="-118.394218">
  <ele>-35.012</ele>
  <time>2026-09-01T01:13:44Z</time>
  <course>210.6</course>
  <speed>0.9638464608017192</speed>
  <fix>3d</fix>
</trkpt>
<trkpt lat="33.8098018" lon="-118.3942168">
  <ele>-34.19</ele>
  <time>2026-09-01T01:13:44Z</time>
  <course>209.54</course>
  <speed>0.99</speed>
  <fix>3d</fix>
</trkpt>
<trkpt lat="33.8097996" lon="-118.3942185">
  <ele>-34.999</ele>
  <time>2026-09-01T01:13:44Z</time>
  <course>210.63</course>
  <speed>0.9638464608017192</speed>
  <fix>3d</fix>
</trkpt>
<trkpt lat="33.8098003" lon="-118.3942179">
  <ele>-34.18</ele>
  <time>2026-09-01T01:13:44Z</time>
  <course>209.6</course>
  <speed>0.99</speed>
  <fix>3d</fix>
</trkpt>
<trkpt lat="33.8097988" lon="-118.394219">
  <ele>-34.988</ele>
  <time>2026-09-01T01:13:44Z</time>
  <course>210.65</course>
  <speed>0.9638464608017192</speed>
  <fix>3d</fix>
</trkpt>
<trkpt lat="33.8098003" lon="-118.3942179">
  <ele>-34.18</ele>
  <time>2026-09-01T01:13:44Z</time>
  <course>209.6</course>
  <speed>0.99</speed>
  <fix>3d</fix>
</trkpt>
<trkpt lat="33.809798" lon="-118.3942196">
  <ele>-34.98</ele>
  <time>2026-09-01T01:13:44Z</time>
  <course>210.65</course>
  <speed>0.9638464608017192</speed>
  <fix>3d</fix>
</trkpt>
<trkpt lat="33.8097987" lon="-118.3942189">
  <ele>-34.16</ele>
  <time>2026-09-01T01:13:44Z</time>
  <course>209.6</course>
  <speed>0.99</speed>
  <fix>3d</fix>
</trkpt>
<trkpt lat="33.8097972" lon="-118.3942201">
  <ele>-34.972</ele>
  <time>2026-09-01T01:13:44Z</time>
  <course>210.64</course>
  <speed>0.9638464608017192</speed>
  <fix>3d</fix>
</trkpt>
<trkpt lat="33.8097987" lon="-118.3942189">
  <ele>-34.16</ele>
  <time>2026-09-01T01:13:44Z</time>
  <course>209.6</course>
  <speed>0.99</speed>
  <fix>3d</fix>
</trkpt>
<trkpt lat="33.8097965" lon="-118.3942206">
  <ele>-34.966</ele>
  <time>2026-09-01T01:13:44Z</time>
  <course>210.63</course>
  <speed>0.9638464608017192</speed>
  <fix>3d</fix>
</trkpt>
<trkpt lat="33.8097971" lon="-118.39422">
  <ele>-34.14</ele>
  <time>2026-09-01T01:13:44Z</time>
  <course>209.58</course>
  <speed>0.99</speed>
  <fix>3d</fix>
</trkpt>
<trkpt lat="33.8097957" lon="-118.3942212">
  <ele>-34.963</ele>
  <time>2026-09-01T01:13:44Z</time>
  <course>210.63</course>
  <speed>0.9638464608017192</speed>
  <fix>3d</fix>
</trkpt>
<trkpt lat="33.8097971" lon="-118.39422">
  <ele>-34.14</ele>
  <time>2026-09-01T01:13:44Z</time>
  <course>209.58</course>
  <speed>0.99</speed>
  <fix>3d</fix>
</trkpt>
<trkpt lat="33.8097949" lon="-118.3942217">
  <ele>-34.96</ele>
  <time>2026-09-01T01:13:44Z</time>
  <course>210.65</course>
  <speed>0.9638464608017192</speed>
  <fix>3d</fix>
</trkpt>
<trkpt lat="33.8097956" lon="-118.3942211">
  <ele>-34.13</ele>
  <time>2026-09-01T01:13:44Z</time>
  <course>209.6</course>
  <speed>0.99</speed>
  <fix>3d</fix>
</trkpt>
<trkpt lat="33.8097941" lon="-118.3942222">
  <ele>-34.959</ele>
  <time>2026-09-01T01:13:44Z</time>
  <course>210.66</course>
  <speed>0.9638464608017192</speed>
  <fix>3d</fix>
</trkpt>
<trkpt lat="33.8097956" lon="-118.3942211">
  <ele>-34.13</ele>
  <time>2026-09-01T01:13:44Z</time>
  <course>209.6</course>
  <speed>0.99</speed>
  <fix>3d</fix>
</trkpt>
<trkpt lat="33.8097933" lon="-118.3942228">
  <ele>-34.959</ele>
  <time>2026-09-01T01:13:44Z</time>
  <course>210.66</course>
  <speed>0.9638464608017192</speed>
  <fix>3d</fix>
</trkpt>
<trkpt lat="33.809794" lon="-118.3942221">
  <ele>-34.13</ele>
  <time>2026-09-01T01:13:44Z</time>
  <course>209.62</course>
  <speed>0.99</speed>
  <fix>3d</fix>
</trkpt>
<trkpt lat="33.8097926" lon="-118.3942233">
  <ele>-34.961</ele>
  <time>2026-09-01T01:13:44Z</time>
  <course>210.65</course>
  <speed>0.9638464608017192</speed>
  <fix>3d</fix>
</trkpt>
<trkpt lat="33.809794" lon="-118.3942221">
  <ele>-34.13</ele>
  <time>2026-09-01T01:13:44Z</time>
  <course>209.62</course>
  <speed>0.99</speed>
  <fix>3d</fix>
</trkpt>
<trkpt lat="33.8097918" lon="-118.3942238">
  <ele>-34.964</ele>
  <time>2026-09-01T01:13:44Z</time>
  <course>210.65</course>
  <speed>0.9638464608017192</speed>
  <fix>3d</fix>
</trkpt>
<trkpt lat="33.8097925" lon="-118.3942232">
  <ele>-34.13</ele>
  <time>2026-09-01T01:13:44Z</time>
  <course>209.61</course>
  <speed>0.99</speed>
  <fix>3d</fix>
</trkpt>
<trkpt lat="33.809791" lon="-118.3942244">
  <ele>-34.97</ele>
  <time>2026-09-01T01:13:44Z</time>
  <course>210.65</course>
  <speed>0.9638464608017192</speed>
  <fix>3d</fix>
</trkpt>
<trkpt lat="33.8097925" lon="-118.3942232">
  <ele>-34.13</ele>
  <time>2026-09-01T01:13:44Z</time>
  <course>209.61</course>
  <speed>0.99</speed>
  <fix>3d</fix>
</trkpt>
<trkpt lat="33.8097902" lon="-118.3942249">
  <ele>-34.982</ele>
  <time>2026-09-01T01:13:44Z</time>
  <course>210.66</course>
  <speed>0.9638464608017192</speed>
  <fix>3d</fix>
</trkpt>
<trkpt lat="33.8097909" lon="-118.3942243">
  <ele>-34.14</ele>
  <time>2026-09-01T01:13:44Z</time>
  <course>209.62</course>
  <speed>0.99</speed>
  <fix>3d</fix>
</trkpt>
<trkpt lat="33.8097895" lon="-118.3942254">
  <ele>-34.994</ele>
  <time>2026-09-01T01:13:44Z</time>
  <course>210.65</course>
  <speed>0.9638464608017192</speed>
  <fix>3d</fix>
</trkpt>
<trkpt lat="33.8097909" lon="-118.3942243">
  <ele>-34.14</ele>
  <time>2026-09-01T01:13:44Z</time>
  <course>209.62</course>
  <speed>0.99</speed>
  <fix>3d</fix>
</trkpt>
<trkpt lat="33.8097887" lon="-118.394226">
  <ele>-35.005</ele>
  <time>2026-09-01T01:13:44Z</time>
  <course>210.64</course>
  <speed>0.9638464608017192</speed>
  <fix>3d</fix>
</trkpt>
<trkpt lat="33.8097894" lon="-118.3942253">
  <ele>-34.16</ele>
  <time>2026-09-01T01:13:44Z</time>
  <course>209.6</course>
  <speed>0.99</speed>
  <fix>3d</fix>
</trkpt>
<trkpt lat="33.8097879" lon="-118.3942265">
  <ele>-35.014</ele>
  <time>2026-09-01T01:13:44Z</time>
  <course>210.62</course>
  <speed>0.9638464608017192</speed>
  <fix>3d</fix>
</trkpt>
<trkpt lat="33.8097894" lon="-118.3942253">
  <ele>-34.16</ele>
  <time>2026-09-01T01:13:44Z</time>
  <course>209.6</course>
  <speed>0.99</speed>
  <fix>3d</fix>
</trkpt>
<trkpt lat="33.8097871" lon="-118.394227">
  <ele>-35.022</ele>
  <time>2026-09-01T01:13:44Z</time>
  <course>210.62</course>
  <speed>0.9638464608017192</speed>
  <fix>3d</fix>
</trkpt>
<trkpt lat="33.8097877" lon="-118.3942264">
  <ele>-34.18</ele>
  <time>2026-09-01T01:13:44Z</time>
  <course>209.58</course>
  <speed>0.99</speed>
  <fix>3d</fix>
</trkpt>
<trkpt lat="33.8097863" lon="-118.3942276">
  <ele>-35.032</ele>
  <time>2026-09-01T01:13:44Z</time>
  <course>210.61</course>
  <speed>0.9415412895885129</speed>
  <fix>3d</fix>
</trkpt>
<trkpt lat="33.8097877" lon="-118.3942264">
  <ele>-34.18</ele>
  <time>2026-09-01T01:13:44Z</time>
  <course>209.58</course>
  <speed>0.99</speed>
  <fix>3d</fix>
</trkpt>
<trkpt lat="33.8097856" lon="-118.3942281">
  <ele>-35.044</ele>
  <time>2026-09-01T01:13:44Z</time>
  <course>210.63</course>
  <speed>0.9192388155425119</speed>
  <fix>3d</fix>
</trkpt>
<trkpt lat="33.8097862" lon="-118.3942274">
  <ele>-34.19</ele>
  <time>2026-09-01T01:13:44Z</time>
  <course>209.62</course>
  <speed>0.98</speed>
  <fix>3d</fix>
</trkpt>
<trkpt lat="33.8097849" lon="-118.3942286">
  <ele>-35.055</ele>
  <time>2026-09-01T01:13:44Z</time>
  <course>210.67</course>
  <speed>0.8832326986700617</speed>
  <fix>3d</fix>
</trkpt>
<trkpt lat="33.8097862" lon="-118.3942274">
  <ele>-34.19</ele>
  <time>2026-09-01T01:13:44Z</time>
  <course>209.62</course>
  <speed>0.98</speed>
  <fix>3d</fix>
</trkpt>
<trkpt lat="33.8097841" lon="-118.3942291">
  <ele>-35.061</ele>
  <time>2026-09-01T01:13:44Z</time>
  <course>210.73</course>
  <speed>0.8472307831990054</speed>
  <fix>3d</fix>
</trkpt>
<trkpt lat="33.8097847" lon="-118.3942285">
  <ele>-34.21</ele>
  <time>2026-09-01T01:13:44Z</time>
  <course>209.7</course>
  <speed>0.93</speed>
  <fix>3d</fix>
</trkpt>
<trkpt lat="33.8097835" lon="-118.3942295">
  <ele>-35.062</ele>
  <time>2026-09-01T01:13:44Z</time>
  <course>210.8</course>
  <speed>0.8026207074328446</speed>
  <fix>3d</fix>
</trkpt>
<trkpt lat="33.8097847" lon="-118.3942285">
  <ele>-34.21</ele>
  <time>2026-09-01T01:13:44Z</time>
  <course>209.7</course>
  <speed>0.93</speed>
  <fix>3d</fix>
</trkpt>
<trkpt lat="33.8097828" lon="-118.39423">
  <ele>-35.058</ele>
  <time>2026-09-01T01:13:44Z</time>
  <course>210.88</course>
  <speed>0.7443117626371358</speed>
  <fix>3d</fix>
</trkpt>
<trkpt lat="33.8097833" lon="-118.3942294">
  <ele>-34.22</ele>
  <time>2026-09-01T01:13:44Z</time>
  <course>209.8</course>
  <speed>0.86</speed>
  <fix>3d</fix>
</trkpt>
<trkpt lat="33.8097822" lon="-118.3942304">
  <ele>-35.051</ele>
  <time>2026-09-01T01:13:44Z</time>
  <course>210.96</course>
  <speed>0.6860029154456998</speed>
  <fix>3d</fix>
</trkpt>
<trkpt lat="33.8097833" lon="-118.3942294">
  <ele>-34.22</ele>
  <time>2026-09-01T01:13:44Z</time>
  <course>209.8</course>
  <speed>0.86</speed>
  <fix>3d</fix>
</trkpt>
<trkpt lat="33.8097817" lon="-118.3942307">
  <ele>-35.041</ele>
  <time>2026-09-01T01:13:44Z</time>
  <course>211.09</course>
  <speed>0.6191122676865642</speed>
  <fix>3d</fix>
</trkpt>
<trkpt lat="33.8097821" lon="-118.3942303">
  <ele>-34.21</ele>
  <time>2026-09-01T01:13:44Z</time>
  <course>209.91</course>
  <speed>0.75</speed>
  <fix>3d</fix>
</trkpt>
<trkpt lat="33.8097812" lon="-118.3942311">
  <ele>-35.03</ele>
  <time>2026-09-01T01:13:44Z</time>
  <course>211.26</course>
  <speed>0.552268050859363</speed>
  <fix>3d</fix>
</trkpt>
<trkpt lat="33.8097821" lon="-118.3942303">
  <ele>-34.21</ele>
  <time>2026-09-01T01:13:44Z</time>
  <course>209.91</course>
  <speed>0.75</speed>
  <fix>3d</fix>
</trkpt>
<trkpt lat="33.8097808" lon="-118.3942314">
  <ele>-35.019</ele>
  <time>2026-09-01T01:13:44Z</time>
  <course>211.51</course>
  <speed>0.4802082881417188</speed>
  <fix>3d</fix>
</trkpt>
<trkpt lat="33.809781" lon="-118.394231">
  <ele>-34.19</ele>
  <time>2026-09-01T01:13:44Z</time>
  <course>210.08</course>
  <speed>0.62</speed>
  <fix>3d</fix>
</trkpt>
<trkpt lat="33.8097804" lon="-118.3942316">
  <ele>-35.005</ele>
  <time>2026-09-01T01:13:44Z</time>
  <course>211.84</course>
  <speed>0.41340053217188777</speed>
  <fix>3d</fix>
</trkpt>
<trkpt lat="33.809781" lon="-118.394231">
  <ele>-34.19</ele>
  <time>2026-09-01T01:13:44Z</time>
  <course>210.08</course>
  <speed>0.62</speed>
  <fix>3d</fix>
</trkpt>
<trkpt lat="33.8097801" lon="-118.3942318">
  <ele>-34.992</ele>
  <time>2026-09-01T01:13:44Z</time>
  <course>212.37</course>
  <speed>0.35510561809129404</speed>
  <fix>3d</fix>
</trkpt>
<trkpt lat="33.8097801" lon="-118.3942317">
  <ele>-34.17</ele>
  <time>2026-09-01T01:13:44Z</time>
  <course>210.28</course>
  <speed>0.48</speed>
  <fix>3d</fix>
</trkpt>
<trkpt lat="33.8097798" lon="-118.394232">
  <ele>-34.982</ele>
  <time>2026-09-01T01:13:44Z</time>
  <course>213.19</course>
  <speed>0.30528675044947495</speed>
  <fix>3d</fix>
</trkpt>
<trkpt lat="33.8097801" lon="-118.3942317">
  <ele>-34.17</ele>
  <time>2026-09-01T01:13:44Z</time>
  <course>210.28</course>
  <speed>0.48</speed>
  <fix>3d</fix>
</trkpt>
<trkpt lat="33.8097795" lon="-118.3942322">
  <ele>-34.972</ele>
  <time>2026-09-01T01:13:44Z</time>
  <course>213.96</course>
  <speed>0.260768096208106</speed>
  <fix>3d</fix>
</trkpt>
<trkpt lat="33.8097795" lon="-118.3942322">
  <ele>-34.15</ele>
  <time>2026-09-01T01:13:44Z</time>
  <course>210.4</course>
  <speed>0.36</speed>
  <fix>3d</fix>
</trkpt>
<trkpt lat="33.8097793" lon="-118.3942324">
  <ele>-34.964</ele>
  <time>2026-09-01T01:13:44Z</time>
  <course>214.27</course>
  <speed>0.22472205054244232</speed>
  <fix>3d</fix>
</trkpt>
<trkpt lat="33.8097795" lon="-118.3942322">
  <ele>-34.15</ele>
  <time>2026-09-01T01:13:44Z</time>
  <course>210.4</course>
  <speed>0.36</speed>
  <fix>3d</fix>
</trkpt>
<trkpt lat="33.8097791" lon="-118.3942325">
  <ele>-34.962</ele>
  <time>2026-09-01T01:13:44Z</time>
  <course>214.39</course>
  <speed>0.194164878389476</speed>
  <fix>3d</fix>
</trkpt>
<trkpt lat="33.809779" lon="-118.3942325">
  <ele>-34.13</ele>
  <time>2026-09-01T01:13:44Z</time>
  <course>210.48</course>
  <speed>0.27</speed>
  <fix>3d</fix>
</trkpt>
<trkpt lat="33.8097789" lon="-118.3942326">
  <ele>-34.964</ele>
  <time>2026-09-01T01:13:44Z</time>
  <course>215.71</course>
  <speed>0.14422205101855956</speed>
  <fix>3d</fix>
</trkpt>
<trkpt lat="33.809779" lon="-118.3942325">
  <ele>-34.13</ele>
  <time>2026-09-01T01:13:44Z</time>
  <course>210.48</course>
  <speed>0.27</speed>
  <fix>3d</fix>
</trkpt>
<trkpt lat="33.8097788" lon="-118.3942327">
  <ele>-34.966</ele>
  <time>2026-09-01T01:13:44Z</time>
  <course>218.3</course>
  <speed>0.1</speed>
  <fix>3d</fix>
</trkpt>
<trkpt lat="33.8097786" lon="-118.3942328">
  <ele>-34.13</ele>
  <time>2026-09-01T01:13:44Z</time>
  <course>210.94</course>
  <speed>0.19</speed>
  <fix>3d</fix>
</trkpt>
<trkpt lat="33.8097787" lon="-118.3942328">
  <ele>-34.966</ele>
  <time>2026-09-01T01:13:44Z</time>
  <course>221.48</course>
  <speed>0.07810249675906654</speed>
  <fix>3d</fix>
</trkpt>
<trkpt lat="33.8097786" lon="-118.3942328">
  <ele>-34.13</ele>
  <time>2026-09-01T01:13:44Z</time>
  <course>210.94</course>
  <speed>0.19</speed>
  <fix>3d</fix>
</trkpt>
<trkpt lat="33.8097786" lon="-118.3942329">
  <ele>-34.963</ele>
  <time>2026-09-01T01:13:44Z</time>
  <course>224.98</course>
  <speed>0.0565685424949238</speed>
  <fix>3d</fix>
</trkpt>
<trkpt lat="33.8097784" lon="-118.3942329">
  <ele>-34.13</ele>
  <time>2026-09-01T01:13:44Z</time>
  <course>211.83</course>
  <speed>0.11</speed>
  <fix>3d</fix>
</trkpt>
<trkpt lat="33.8097786" lon="-118.3942329">
  <ele>-34.962</ele>
  <time>2026-09-01T01:13:44Z</time>
  <course>228.76</course>
  <speed>0.03605551275463989</speed>
  <fix>3d</fix>
</trkpt>
<trkpt lat="33.8097784" lon="-118.3942329">
  <ele>-34.13</ele>
  <time>2026-09-01T01:13:44Z</time>
  <course>211.83</course>
  <speed>0.11</speed>
  <fix>3d</fix>
</trkpt>
<trkpt lat="33.8097785" lon="-118.394233">
  <ele>-34.963</ele>
  <time>2026-09-01T01:13:44Z</time>
  <course>232.7</course>
  <speed>0.022360679774997897</speed>
  <fix>3d</fix>
</trkpt>
<trkpt lat="33.8097782" lon="-118.394233">
  <ele>-34.12</ele>
  <time>2026-09-01T01:13:44Z</time>
  <course>212.92</course>
  <speed>0.06</speed>
  <fix>3d</fix>
</trkpt>
<trkpt lat="33.8097785" lon="-118.394233">
  <ele>-34.961</ele>
  <time>2026-09-01T01:13:44Z</time>
  <course>236.81</course>
  <speed>0.03</speed>
  <fix>3d</fix>
</trkpt>
<trkpt lat="33.8097782" lon="-118.394233">
  <ele>-34.12</ele>
  <time>2026-09-01T01:13:44Z</time>
  <course>212.92</course>
  <speed>0.06</speed>
  <fix>3d</fix>
</trkpt>
<trkpt lat="33.8097785" lon="-118.3942331">
  <ele>-34.954</ele>
  <time>2026-09-01T01:13:44Z</time>
  <course>241.06</course>
  <speed>0.05099019513592785</speed>
  <fix>3d</fix>
</trkpt>
<trkpt lat="33.8097781" lon="-118.3942331">
  <ele>-34.12</ele>
  <time>2026-09-01T01:13:44Z</time>
  <course>233.32</course>
  <speed>0.03</speed>
  <fix>3d</fix>
</trkpt>
<trkpt lat="33.8097785" lon="-118.3942331">
  <ele>-34.946</ele>
  <time>2026-09-01T01:13:44Z</time>
  <course>245.46</course>
  <speed>0.0824621125123532</speed>
  <fix>3d</fix>
</trkpt>
<trkpt lat="33.8097781" lon="-118.3942331">
  <ele>-34.12</ele>
  <time>2026-09-01T01:13:44Z</time>
  <course>233.32</course>
  <speed>0.03</speed>
  <fix>3d</fix>
</trkpt>
<trkpt lat="33.8097785" lon="-118.3942332">
  <ele>-34.94</ele>
  <time>2026-09-01T01:13:44Z</time>
  <course>249.98</course>
  <speed>0.12369316876852982</speed>
  <fix>3d</fix>
</trkpt>
<trkpt lat="33.8097781" lon="-118.3942332">
  <ele>-34.11</ele>
  <time>2026-09-01T01:13:44Z</time>
  <course>273.32</course>
  <speed>0.06</speed>
  <fix>3d</fix>
</trkpt>
<trkpt lat="33.8097785" lon="-118.3942334">
  <ele>-34.937</ele>
  <time>2026-09-01T01:13:44Z</time>
  <course>254.63</course>
  <speed>0.17262676501632068</speed>
  <fix>3d</fix>
</trkpt>
<trkpt lat="33.8097781" lon="-118.3942332">
  <ele>-34.11</ele>
  <time>2026-09-01T01:13:44Z</time>
  <course>273.32</course>
  <speed>0.06</speed>
  <fix>3d</fix>
</trkpt>
<trkpt lat="33.8097785" lon="-118.3942336">
  <ele>-34.936</ele>
  <time>2026-09-01T01:13:44Z</time>
  <course>259.4</course>
  <speed>0.23345235059857505</speed>
  <fix>3d</fix>
</trkpt>
<trkpt lat="33.8097781" lon="-118.3942334">
  <ele>-34.1</ele>
  <time>2026-09-01T01:13:44Z</time>
  <course>277.93</course>
  <speed>0.13</speed>
  <fix>3d</fix>
</trkpt>
<trkpt lat="33.8097784" lon="-118.3942339">
  <ele>-34.94</ele>
  <time>2026-09-01T01:13:44Z</time>
  <course>264.31</course>
  <speed>0.3026549190084311</speed>
  <fix>3d</fix>
</trkpt>
<trkpt lat="33.8097781" lon="-118.3942334">
  <ele>-34.1</ele>
  <time>2026-09-01T01:13:44Z</time>
  <course>277.93</course>
  <speed>0.13</speed>
  <fix>3d</fix>
</trkpt>
<trkpt lat="33.8097784" lon="-118.3942343">
  <ele>-34.947</ele>
  <time>2026-09-01T01:13:44Z</time>
  <course>269.36</course>
  <speed>0.382099463490856</speed>
  <fix>3d</fix>
</trkpt>
<trkpt lat="33.8097781" lon="-118.3942338">
  <ele>-34.1</ele>
  <time>2026-09-01T01:13:44Z</time>
  <course>276.22</course>
  <speed>0.25</speed>
  <fix>3d</fix>
</trkpt>
<trkpt lat="33.8097784" lon="-118.3942347">
  <ele>-34.956</ele>
  <time>2026-09-01T01:13:44Z</time>
  <course>274.57</course>
  <speed>0.4617358552246078</speed>
  <fix>3d</fix>
</trkpt>
<trkpt lat="33.8097781" lon="-118.3942338">
  <ele>-34.1</ele>
  <time>2026-09-01T01:13:44Z</time>
  <course>276.22</course>
  <speed>0.25</speed>
  <fix>3d</fix>
</trkpt>
<trkpt lat="33.8097784" lon="-118.3942353">
  <ele>-34.967</ele>
  <time>2026-09-01T01:13:44Z</time>
  <course>279.84</course>
  <speed>0.5315072906367324</speed>
  <fix>3d</fix>
</trkpt>
<trkpt lat="33.8097781" lon="-118.3942345">
  <ele>-34.11</ele>
  <time>2026-09-01T01:13:44Z</time>
  <course>274.22</course>
  <speed>0.39</speed>
  <fix>3d</fix>
</trkpt>
<trkpt lat="33.8097784" lon="-118.3942358">
  <ele>-34.985</ele>
  <time>2026-09-01T01:13:44Z</time>
  <course>284.85</course>
  <speed>0.5907622195096772</speed>
  <fix>3d</fix>
</trkpt>
<trkpt lat="33.8097781" lon="-118.3942345">
  <ele>-34.11</ele>
  <time>2026-09-01T01:13:44Z</time>
  <course>274.22</course>
  <speed>0.39</speed>
  <fix>3d</fix>
</trkpt>
<trkpt lat="33.8097784" lon="-118.3942365">
  <ele>-35.004</ele>
  <time>2026-09-01T01:13:44Z</time>
  <course>289.65</course>
  <speed>0.630317380372777</speed>
  <fix>3d</fix>
</trkpt>
<trkpt lat="33.8097782" lon="-118.3942355">
  <ele>-34.14</ele>
  <time>2026-09-01T01:13:44Z</time>
  <course>272.42</course>
  <speed>0.53</speed>
  <fix>3d</fix>
</trkpt>
<trkpt lat="33.8097784" lon="-118.3942372">
  <ele>-35.024</ele>
  <time>2026-09-01T01:13:44Z</time>
  <course>294.0</course>
  <speed>0.6800735254367721</speed>
  <fix>3d</fix>
</trkpt>
<trkpt lat="33.8097782" lon="-118.3942355">
  <ele>-34.14</ele>
  <time>2026-09-01T01:13:44Z</time>
  <course>272.42</course>
  <speed>0.53</speed>
  <fix>3d</fix>
</trkpt>
<trkpt lat="33.8097784" lon="-118.3942379">
  <ele>-35.047</ele>
  <time>2026-09-01T01:13:44Z</time>
  <course>297.28</course>
  <speed>0.72</speed>
  <fix>3d</fix>
</trkpt>
<trkpt lat="33.8097783" lon="-118.3942367">
  <ele>-34.17</ele>
  <time>2026-09-01T01:13:44Z</time>
  <course>270.34</course>
  <speed>0.63</speed>
  <fix>3d</fix>
</trkpt>
<trkpt lat="33.8097784" lon="-118.3942387">
  <ele>-35.07</ele>
  <time>2026-09-01T01:13:44Z</time>
  <course>299.49</course>
  <speed>0.77</speed>
  <fix>3d</fix>
</trkpt>
<trkpt lat="33.8097783" lon="-118.3942367">
  <ele>-34.17</ele>
  <time>2026-09-01T01:13:44Z</time>
  <course>270.34</course>
  <speed>0.63</speed>
  <fix>3d</fix>
</trkpt>
<trkpt lat="33.8097784" lon="-118.3942395">
  <ele>-35.089</ele>
  <time>2026-09-01T01:13:44Z</time>
  <course>300.73</course>
  <speed>0.81</speed>
  <fix>3d</fix>
</trkpt>
<trkpt lat="33.8097783" lon="-118.3942382">
  <ele>-34.21</ele>
  <time>2026-09-01T01:13:44Z</time>
  <course>268.88</course>
  <speed>0.73</speed>
  <fix>3d</fix>
</trkpt>
<trkpt lat="33.8097784" lon="-118.3942404">
  <ele>-35.105</ele>
  <time>2026-09-01T01:13:44Z</time>
  <course>300.76</course>
  <speed>0.85</speed>
  <fix>3d</fix>
</trkpt>
<trkpt lat="33.8097783" lon="-118.3942382">
  <ele>-34.21</ele>
  <time>2026-09-01T01:13:44Z</time>
  <course>268.88</course>
  <speed>0.73</speed>
  <fix>3d</fix>
</trkpt>
<trkpt lat="33.8097784" lon="-118.3942413">
  <ele>-35.113</ele>
  <time>2026-09-01T01:13:44Z</time>
  <course>299.81</course>
  <speed>0.87</speed>
  <fix>3d</fix>
</trkpt>
<trkpt lat="33.8097783" lon="-118.39424">
  <ele>-34.25</ele>
  <time>2026-09-01T01:13:44Z</time>
  <course>268.64</course>
  <speed>0.81</speed>
  <fix>3d</fix>
</trkpt>
<trkpt lat="33.8097784" lon="-118.3942422">
  <ele>-35.114</ele>
  <time>2026-09-01T01:13:44Z</time>
  <course>298.64</course>
  <speed>0.89</speed>
  <fix>3d</fix>
</trkpt>
<trkpt lat="33.8097783" lon="-118.39424">
  <ele>-34.25</ele>
  <time>2026-09-01T01:13:44Z</time>
  <course>268.64</course>
  <speed>0.81</speed>
  <fix>3d</fix>
</trkpt>
<trkpt lat="33.8097784" lon="-118.3942432">
  <ele>-35.107</ele>
  <time>2026-09-01T01:13:44Z</time>
  <course>297.54</course>
  <speed>0.9</speed>
  <fix>3d</fix>
</trkpt>
<trkpt lat="33.8097783" lon="-118.3942418">
  <ele>-34.27</ele>
  <time>2026-09-01T01:13:44Z</time>
  <course>268.82</course>
  <speed>0.86</speed>
  <fix>3d</fix>
</trkpt>
<trkpt lat="33.8097784" lon="-118.3942441">
  <ele>-35.093</ele>
  <time>2026-09-01T01:13:44Z</time>
  <course>296.65</course>
  <speed>0.91</speed>
  <fix>3d</fix>
</trkpt>
<trkpt lat="33.8097783" lon="-118.3942418">
  <ele>-34.27</ele>
  <time>2026-09-01T01:13:44Z</time>
  <course>268.82</course>
  <speed>0.86</speed>
  <fix>3d</fix>
</trkpt>
<trkpt lat="33.8097784" lon="-118.3942451">
  <ele>-35.075</ele>
  <time>2026-09-01T01:13:44Z</time>
  <course>295.96</course>
  <speed>0.9200543462209175</speed>
  <fix>3d</fix>
</trkpt>
<trkpt lat="33.8097783" lon="-118.3942437">
  <ele>-34.25</ele>
  <time>2026-09-01T01:13:44Z</time>
  <course>269.07</course>
  <speed>0.89</speed>
  <fix>3d</fix>
</trkpt>
<trkpt lat="33.8097784" lon="-118.3942461">
  <ele>-35.056</ele>
  <time>2026-09-01T01:13:44Z</time>
  <course>295.41</course>
  <speed>0.9300537618869137</speed>
  <fix>3d</fix>
</trkpt>
<trkpt lat="33.8097783" lon="-118.3942437">
  <ele>-34.25</ele>
  <time>2026-09-01T01:13:44Z</time>
  <course>269.07</course>
  <speed>0.89</speed>
  <fix>3d</fix>
</trkpt>
<trkpt lat="33.8097784" lon="-118.3942471">
  <ele>-35.036</ele>
  <time>2026-09-01T01:13:44Z</time>
  <course>294.97</course>
  <speed>0.9400531899844816</speed>
  <fix>3d</fix>
</trkpt>
<trkpt lat="33.8097782" lon="-118.3942457">
  <ele>-34.22</ele>
  <time>2026-09-01T01:13:44Z</time>
  <course>269.34</course>
  <speed>0.92</speed>
  <fix>3d</fix>
</trkpt>
<trkpt lat="33.8097784" lon="-118.3942481">
  <ele>-35.014</ele>
  <time>2026-09-01T01:13:44Z</time>
  <course>294.61</course>
  <speed>0.9400531899844816</speed>
  <fix>3d</fix>
</trkpt>
<trkpt lat="33.8097782" lon="-118.3942457">
  <ele>-34.22</ele>
  <time>2026-09-01T01:13:44Z</time>
  <course>269.34</course>
  <speed>0.92</speed>
  <fix>3d</fix>
</trkpt>
<trkpt lat="33.8097784" lon="-118.3942491">
  <ele>-34.994</ele>
  <time>2026-09-01T01:13:44Z</time>
  <course>294.33</course>
  <speed>0.9502105029939419</speed>
  <fix>3d</fix>
</trkpt>
<trkpt lat="33.8097781" lon="-118.3942477">
  <ele>-34.19</ele>
  <time>2026-09-01T01:13:44Z</time>
  <course>269.64</course>
  <speed>0.93</speed>
  <fix>3d</fix>
</trkpt>
<trkpt lat="33.8097784" lon="-118.3942501">
  <ele>-34.975</ele>
  <time>2026-09-01T01:13:44Z</time>
  <course>294.1</course>
  <speed>0.9502105029939419</speed>
  <fix>3d</fix>
</trkpt>
<trkpt lat="33.8097781" lon="-118.3942477">
  <ele>-34.19</ele>
  <time>2026-09-01T01:13:44Z</time>
  <course>269.64</course>
  <speed>0.93</speed>
  <fix>3d</fix>
</trkpt>
<trkpt lat="33.8097784" lon="-118.3942511">
  <ele>-34.957</ele>
  <time>2026-09-01T01:13:44Z</time>
  <course>293.95</course>
  <speed>0.9602083107326242</speed>
  <fix>3d</fix>
</trkpt>
<trkpt lat="33.8097781" lon="-118.3942497">
  <ele>-34.15</ele>
  <time>2026-09-01T01:13:44Z</time>
  <course>270.03</course>
  <speed>0.95</speed>
  <fix>3d</fix>
</trkpt>
<trkpt lat="33.8097784" lon="-118.3942522">
  <ele>-34.941</ele>
  <time>2026-09-01T01:13:44Z</time>
  <course>293.84</course>
  <speed>0.9602083107326242</speed>
  <fix>3d</fix>
</trkpt>
<trkpt lat="33.8097781" lon="-118.3942497">
  <ele>-34.15</ele>
  <time>2026-09-01T01:13:44Z</time>
  <course>270.03</course>
  <speed>0.95</speed>
  <fix>3d</fix>
</trkpt>
<trkpt lat="33.8097784" lon="-118.3942532">
  <ele>-34.929</ele>
  <time>2026-09-01T01:13:44Z</time>
  <course>293.75</course>
  <speed>0.9604686356149272</speed>
  <fix>3d</fix>
</trkpt>
<trkpt lat="33.8097781" lon="-118.3942518">
  <ele>-34.11</ele>
  <time>2026-09-01T01:13:44Z</time>
  <course>270.47</course>
  <speed>0.96</speed>
  <fix>3d</fix>
</trkpt>
<trkpt lat="33.8097784" lon="-118.3942542">
  <ele>-34.924</ele>
  <time>2026-09-01T01:13:44Z</time>
  <course>293.69</course>
  <speed>0.9604686356149272</speed>
  <fix>3d</fix>
</trkpt>
<trkpt lat="33.8097781" lon="-118.3942518">
  <ele>-34.11</ele>
  <time>2026-09-01T01:13:44Z</time>
  <course>270.47</course>
  <speed>0.96</speed>
  <fix>3d</fix>
</trkpt>
<trkpt lat="33.8097784" lon="-118.3942553">
  <ele>-34.929</ele>
  <time>2026-09-01T01:13:44Z</time>
  <course>293.65</course>
  <speed>0.9604686356149272</speed>
  <fix>3d</fix>
</trkpt>
<trkpt lat="33.8097782" lon="-118.3942538">
  <ele>-34.09</ele>
  <time>2026-09-01T01:13:44Z</time>
  <course>270.9</course>
  <speed>0.96</speed>
  <fix>3d</fix>
</trkpt>
<trkpt lat="33.8097784" lon="-118.3942563">
  <ele>-34.937</ele>
  <time>2026-09-01T01:13:44Z</time>
  <course>293.6</course>
  <speed>0.9604686356149272</speed>
  <fix>3d</fix>
</trkpt>
<trkpt lat="33.8097782" lon="-118.3942538">
  <ele>-34.09</ele>
  <time>2026-09-01T01:13:44Z</time>
  <course>270.9</course>
  <speed>0.96</speed>
  <fix>3d</fix>
</trkpt>
<trkpt lat="33.8097784" lon="-118.3942573">
  <ele>-34.948</ele>
  <time>2026-09-01T01:13:44Z</time>
  <course>293.53</course>
  <speed>0.9504735661763561</speed>
  <fix>3d</fix>
</trkpt>
<trkpt lat="33.8097783" lon="-118.3942559">
  <ele>-34.1</ele>
  <time>2026-09-01T01:13:44Z</time>
  <course>271.22</course>
  <speed>0.96</speed>
  <fix>3d</fix>
</trkpt>
<trkpt lat="33.8097784" lon="-118.3942583">
  <ele>-34.959</ele>
  <time>2026-09-01T01:13:44Z</time>
  <course>293.43</course>
  <speed>0.9504735661763561</speed>
  <fix>3d</fix>
</trkpt>
<trkpt lat="33.8097783" lon="-118.3942559">
  <ele>-34.1</ele>
  <time>2026-09-01T01:13:44Z</time>
  <course>271.22</course>
  <speed>0.96</speed>
  <fix>3d</fix>
</trkpt>
<trkpt lat="33.8097784" lon="-118.3942594">
  <ele>-34.969</ele>
  <time>2026-09-01T01:13:44Z</time>
  <course>293.3</course>
  <speed>0.9504735661763561</speed>
  <fix>3d</fix>
</trkpt>
<trkpt lat="33.8097783" lon="-118.394258">
  <ele>-34.12</ele>
  <time>2026-09-01T01:13:44Z</time>
  <course>271.36</course>
  <speed>0.96</speed>
  <fix>3d</fix>
</trkpt>
<trkpt lat="33.8097784" lon="-118.3942604">
  <ele>-34.98</ele>
  <time>2026-09-01T01:13:44Z</time>
  <course>293.15</course>
  <speed>0.9504735661763561</speed>
  <fix>3d</fix>
</trkpt>
<trkpt lat="33.8097783" lon="-118.394258">
  <ele>-34.12</ele>
  <time>2026-09-01T01:13:44Z</time>
  <course>271.36</course>
  <speed>0.96</speed>
  <fix>3d</fix>
</trkpt>
<trkpt lat="33.8097784" lon="-118.3942614">
  <ele>-34.989</ele>
  <time>2026-09-01T01:13:44Z</time>
  <course>292.98</course>
  <speed>0.9204890004774636</speed>
  <fix>3d</fix>
</trkpt>
<trkpt lat="33.8097783" lon="-118.3942601">
  <ele>-34.14</ele>
  <time>2026-09-01T01:13:44Z</time>
  <course>271.39</course>
  <speed>0.95</speed>
  <fix>3d</fix>
</trkpt>
<trkpt lat="33.8097784" lon="-118.3942624">
  <ele>-34.997</ele>
  <time>2026-09-01T01:13:44Z</time>
  <course>293.11</course>
  <speed>0.8705170877128146</speed>
  <fix>3d</fix>
</trkpt>
<trkpt lat="33.8097783" lon="-118.3942601">
  <ele>-34.14</ele>
  <time>2026-09-01T01:13:44Z</time>
  <course>271.39</course>
  <speed>0.95</speed>
  <fix>3d</fix>
</trkpt>
<trkpt lat="33.8097784" lon="-118.3942633">
  <ele>-35.004</ele>
  <time>2026-09-01T01:13:44Z</time>
  <course>293.67</course>
  <speed>0.8805112151472007</speed>
  <fix>3d</fix>
</trkpt>
<trkpt lat="33.8097783" lon="-118.3942621">
  <ele>-34.15</ele>
  <time>2026-09-01T01:13:44Z</time>
  <course>271.59</course>
  <speed>0.92</speed>
  <fix>3d</fix>
</trkpt>
<trkpt lat="33.8097785" lon="-118.3942643">
  <ele>-35.008</ele>
  <time>2026-09-01T01:13:44Z</time>
  <course>293.94</course>
  <speed>0.8905054744357274</speed>
  <fix>3d</fix>
</trkpt>
<trkpt lat="33.8097783" lon="-118.3942621">
  <ele>-34.15</ele>
  <time>2026-09-01T01:13:44Z</time>
  <course>271.59</course>
  <speed>0.92</speed>
  <fix>3d</fix>
</trkpt>
<trkpt lat="33.8097785" lon="-118.3942653">
  <ele>-35.011</ele>
  <time>2026-09-01T01:13:44Z</time>
  <course>293.86</course>
  <speed>0.8905054744357274</speed>
  <fix>3d</fix>
</trkpt>
<trkpt lat="33.8097783" lon="-118.394264">
  <ele>-34.16</ele>
  <time>2026-09-01T01:13:44Z</time>
  <course>271.78</course>
  <speed>0.89</speed>
  <fix>3d</fix>
</trkpt>
<trkpt lat="33.8097785" lon="-118.3942663">
  <ele>-35.013</ele>
  <time>2026-09-01T01:13:44Z</time>
  <course>293.59</course>
  <speed>0.900499861188218</speed>
  <fix>3d</fix>
</trkpt>
<trkpt lat="33.8097783" lon="-118.394264">
  <ele>-34.16</ele>
  <time>2026-09-01T01:13:44Z</time>
  <course>271.78</course>
  <speed>0.89</speed>
  <fix>3d</fix>
</trkpt>
<trkpt lat="33.8097785" lon="-118.3942672">
  <ele>-35.016</ele>
  <time>2026-09-01T01:13:44Z</time>
  <course>293.27</course>
  <speed>0.8805112151472007</speed>
  <fix>3d</fix>
</trkpt>
<trkpt lat="33.8097784" lon="-118.394266">
  <ele>-34.17</ele>
  <time>2026-09-01T01:13:44Z</time>
  <course>271.77</course>
  <speed>0.9</speed>
  <fix>3d</fix>
</trkpt>
<trkpt lat="33.8097785" lon="-118.3942681">
  <ele>-35.018</ele>
  <time>2026-09-01T01:13:44Z</time>
  <course>293.24</course>
  <speed>0.8305419917138447</speed>
  <fix>3d</fix>
</trkpt>
<trkpt lat="33.8097784" lon="-118.394266">
  <ele>-34.17</ele>
  <time>2026-09-01T01:13:44Z</time>
  <course>271.77</course>
  <speed>0.9</speed>
  <fix>3d</fix>
</trkpt>
<trkpt lat="33.8097785" lon="-118.3942691">
  <ele>-35.02</ele>
  <time>2026-09-01T01:13:44Z</time>
  <course>293.7</course>
  <speed>0.8505292469985968</speed>
  <fix>3d</fix>
</trkpt>
<trkpt lat="33.8097784" lon="-118.3942679">
  <ele>-34.18</ele>
  <time>2026-09-01T01:13:44Z</time>
  <course>271.96</course>
  <speed>0.88</speed>
  <fix>3d</fix>
</trkpt>
<trkpt lat="33.8097786" lon="-118.39427">
  <ele>-35.021</ele>
  <time>2026-09-01T01:13:44Z</time>
  <course>293.88</course>
  <speed>0.8605230967266364</speed>
  <fix>3d</fix>
</trkpt>
<trkpt lat="33.8097784" lon="-118.3942679">
  <ele>-34.18</ele>
  <time>2026-09-01T01:13:44Z</time>
  <course>271.96</course>
  <speed>0.88</speed>
  <fix>3d</fix>
</trkpt>
<trkpt lat="33.8097786" lon="-118.394271">
  <ele>-35.024</ele>
  <time>2026-09-01T01:13:44Z</time>
  <course>293.64</course>
  <speed>0.8705170877128146</speed>
  <fix>3d</fix>
</trkpt>
<trkpt lat="33.8097785" lon="-118.3942698">
  <ele>-34.18</ele>
  <time>2026-09-01T01:13:44Z</time>
  <course>272.09</course>
  <speed>0.86</speed>
  <fix>3d</fix>
</trkpt>
<trkpt lat="33.8097786" lon="-118.3942719">
  <ele>-35.027</ele>
  <time>2026-09-01T01:13:44Z</time>
  <course>293.2</course>
  <speed>0.8705170877128146</speed>
  <fix>3d</fix>
</trkpt>
<trkpt lat="33.8097785" lon="-118.3942698">
  <ele>-34.18</ele>
  <time>2026-09-01T01:13:44Z</time>
  <course>272.09</course>
  <speed>0.86</speed>
  <fix>3d</fix>
</trkpt>
<trkpt lat="33.8097786" lon="-118.3942729">
  <ele>-35.027</ele>
  <time>2026-09-01T01:13:44Z</time>
  <course>292.71</course>
  <speed>0.8805112151472007</speed>
  <fix>3d</fix>
</trkpt>
<trkpt lat="33.8097786" lon="-118.3942716">
  <ele>-34.18</ele>
  <time>2026-09-01T01:13:44Z</time>
  <course>271.93</course>
  <speed>0.87</speed>
  <fix>3d</fix>
</trkpt>
<trkpt lat="33.8097786" lon="-118.3942738">
  <ele>-35.024</ele>
  <time>2026-09-01T01:13:44Z</time>
  <course>292.23</course>
  <speed>0.8802272433866155</speed>
  <fix>3d</fix>
</trkpt>
<trkpt lat="33.8097786" lon="-118.3942716">
  <ele>-34.18</ele>
  <time>2026-09-01T01:13:44Z</time>
  <course>271.93</course>
  <speed>0.87</speed>
  <fix>3d</fix>
</trkpt>
<trkpt lat="33.8097786" lon="-118.3942748">
  <ele>-35.02</ele>
  <time>2026-09-01T01:13:44Z</time>
  <course>291.78</course>
  <speed>0.8902246907382428</speed>
  <fix>3d</fix>
</trkpt>
<trkpt lat="33.8097786" lon="-118.3942736">
  <ele>-34.18</ele>
  <time>2026-09-01T01:13:44Z</time>
  <course>271.74</course>
  <speed>0.89</speed>
  <fix>3d</fix>
</trkpt>
<trkpt lat="33.8097787" lon="-118.3942758">
  <ele>-35.013</ele>
  <time>2026-09-01T01:13:44Z</time>
  <course>291.35</course>
  <speed>0.8902246907382428</speed>
  <fix>3d</fix>
</trkpt>
<trkpt lat="33.8097786" lon="-118.3942736">
  <ele>-34.18</ele>
  <time>2026-09-01T01:13:44Z</time>
  <course>271.74</course>
  <speed>0.89</speed>
  <fix>3d</fix>
</trkpt>
<trkpt lat="33.8097787" lon="-118.3942768">
  <ele>-35.003</ele>
  <time>2026-09-01T01:13:44Z</time>
  <course>290.96</course>
  <speed>0.8902246907382428</speed>
  <fix>3d</fix>
</trkpt>
<trkpt lat="33.8097786" lon="-118.3942755">
  <ele>-34.17</ele>
  <time>2026-09-01T01:13:44Z</time>
  <course>271.57</course>
  <speed>0.9</speed>
  <fix>3d</fix>
</trkpt>
<trkpt lat="33.8097787" lon="-118.3942777">
  <ele>-34.994</ele>
  <time>2026-09-01T01:13:44Z</time>
  <course>290.6</course>
  <speed>0.900222194794152</speed>
  <fix>3d</fix>
</trkpt>
<trkpt lat="33.8097786" lon="-118.3942755">
  <ele>-34.17</ele>
  <time>2026-09-01T01:13:44Z</time>
  <course>271.57</course>
  <speed>0.9</speed>
  <fix>3d</fix>
</trkpt>
<trkpt lat="33.8097787" lon="-118.3942787">
  <ele>-34.986</ele>
  <time>2026-09-01T01:13:44Z</time>
  <course>290.28</course>
  <speed>0.900222194794152</speed>
  <fix>3d</fix>
</trkpt>
<trkpt lat="33.8097786" lon="-118.3942774">
  <ele>-34.16</ele>
  <time>2026-09-01T01:13:44Z</time>
  <course>271.49</course>
  <speed>0.9</speed>
  <fix>3d</fix>
</trkpt>
<trkpt lat="33.8097787" lon="-118.3942797">
  <ele>-34.982</ele>
  <time>2026-09-01T01:13:44Z</time>
  <course>289.97</course>
  <speed>0.900222194794152</speed>
  <fix>3d</fix>
</trkpt>
<trkpt lat="33.8097786" lon="-118.3942774">
  <ele>-34.16</ele>
  <time>2026-09-01T01:13:44Z</time>
  <course>271.49</course>
  <speed>0.9</speed>
  <fix>3d</fix>
</trkpt>
<trkpt lat="33.8097787" lon="-118.3942807">
  <ele>-34.977</ele>
  <time>2026-09-01T01:13:44Z</time>
  <course>289.71</course>
  <speed>0.900222194794152</speed>
  <fix>3d</fix>
</trkpt>
<trkpt lat="33.8097787" lon="-118.3942795">
  <ele>-34.14</ele>
  <time>2026-09-01T01:13:44Z</time>
  <course>271.49</course>
  <speed>0.91</speed>
  <fix>3d</fix>
</trkpt>
<trkpt lat="33.8097788" lon="-118.3942817">
  <ele>-34.97</ele>
  <time>2026-09-01T01:13:44Z</time>
  <course>289.46</course>
  <speed>0.900222194794152</speed>
  <fix>3d</fix>
</trkpt>
<trkpt lat="33.8097787" lon="-118.3942795">
  <ele>-34.14</ele>
  <time>2026-09-01T01:13:44Z</time>
  <course>271.49</course>
  <speed>0.91</speed>
  <fix>3d</fix>
</trkpt>
<trkpt lat="33.8097788" lon="-118.3942826">
  <ele>-34.963</ele>
  <time>2026-09-01T01:13:44Z</time>
  <course>289.23</course>
  <speed>0.900222194794152</speed>
  <fix>3d</fix>
</trkpt>
<trkpt lat="33.8097787" lon="-118.3942815">
  <ele>-34.13</ele>
  <time>2026-09-01T01:13:44Z</time>
  <course>271.5</course>
  <speed>0.91</speed>
  <fix>3d</fix>
</trkpt>
<trkpt lat="33.8097788" lon="-118.3942836">
  <ele>-34.964</ele>
  <time>2026-09-01T01:13:44Z</time>
  <course>288.99</course>
  <speed>0.900222194794152</speed>
  <fix>3d</fix>
</trkpt>
<trkpt lat="33.8097787" lon="-118.3942815">
  <ele>-34.13</ele>
  <time>2026-09-01T01:13:44Z</time>
  <course>271.5</course>
  <speed>0.91</speed>
  <fix>3d</fix>
</trkpt>
<trkpt lat="33.8097788" lon="-118.3942846">
  <ele>-34.972</ele>
  <time>2026-09-01T01:13:44Z</time>
  <course>288.77</course>
  <speed>0.900222194794152</speed>
  <fix>3d</fix>
</trkpt>
<trkpt lat="33.8097788" lon="-118.3942835">
  <ele>-34.13</ele>
  <time>2026-09-01T01:13:44Z</time>
  <course>271.49</course>
  <speed>0.92</speed>
  <fix>3d</fix>
</trkpt>
<trkpt lat="33.8097788" lon="-118.3942856">
  <ele>-34.978</ele>
  <time>2026-09-01T01:13:44Z</time>
  <course>288.56</course>
  <speed>0.900222194794152</speed>
  <fix>3d</fix>
</trkpt>
<trkpt lat="33.8097788" lon="-118.3942835">
  <ele>-34.13</ele>
  <time>2026-09-01T01:13:44Z</time>
  <course>271.49</course>
  <speed>0.92</speed>
  <fix>3d</fix>
</trkpt>
<trkpt lat="33.8097788" lon="-118.3942866">
  <ele>-34.983</ele>
  <time>2026-09-01T01:13:45Z</time>
  <course>288.34</course>
  <speed>0.900222194794152</speed>
  <fix>3d</fix>
</trkpt>
<trkpt lat="33.8097789" lon="-118.3942854">
  <ele>-34.14</ele>
  <time>2026-09-01T01:13:45Z</time>
  <course>271.45</course>
  <speed>0.92</speed>
  <fix>3d</fix>
</trkpt>
<trkpt lat="33.8097789" lon="-118.3942876">
  <ele>-34.986</ele>
  <time>2026-09-01T01:13:45Z</time>
  <course>288.1</course>
  <speed>0.900222194794152</speed>
  <fix>3d</fix>
</trkpt>
<trkpt lat="33.8097789" lon="-118.3942854">
  <ele>-34.14</ele>
  <time>2026-09-01T01:13:45Z</time>
  <course>271.45</course>
  <speed>0.92</speed>
  <fix>3d</fix>
</trkpt>
<trkpt lat="33.8097789" lon="-118.3942886">
  <ele>-34.987</ele>
  <time>2026-09-01T01:13:45Z</time>
  <course>287.84</course>
  <speed>0.900222194794152</speed>
  <fix>3d</fix>
</trkpt>
<trkpt lat="33.8097789" lon="-118.3942874">
  <ele>-34.15</ele>
  <time>2026-09-01T01:13:45Z</time>
  <course>271.32</course>
  <speed>0.92</speed>
  <fix>3d</fix>
</trkpt>
<trkpt lat="33.8097789" lon="-118.3942896">
  <ele>-34.992</ele>
  <time>2026-09-01T01:13:45Z</time>
  <course>287.57</course>
  <speed>0.9000555538409837</speed>
  <fix>3d</fix>
</trkpt>
<trkpt lat="33.8097789" lon="-118.3942874">
  <ele>-34.15</ele>
  <time>2026-09-01T01:13:45Z</time>
  <course>271.32</course>
  <speed>0.92</speed>
  <fix>3d</fix>
</trkpt>
<trkpt lat="33.8097789" lon="-118.3942906">
  <ele>-35.001</ele>
  <time>2026-09-01T01:13:45Z</time>
  <course>287.31</course>
  <speed>0.9000555538409837</speed>
  <fix>3d</fix>
</trkpt>
<trkpt lat="33.809779" lon="-118.3942894">
  <ele>-34.16</ele>
  <time>2026-09-01T01:13:45Z</time>
  <course>271.16</course>
  <speed>0.92</speed>
  <fix>3d</fix>
</trkpt>
<trkpt lat="33.8097789" lon="-118.3942916">
  <ele>-35.009</ele>
  <time>2026-09-01T01:13:45Z</time>
  <course>287.06</course>
  <speed>0.9000555538409837</speed>
  <fix>3d</fix>
</trkpt>
<trkpt lat="33.809779" lon="-118.3942894">
  <ele>-34.16</ele>
  <time>2026-09-01T01:13:45Z</time>
  <course>271.16</course>
  <speed>0.92</speed>
  <fix>3d</fix>
</trkpt>
<trkpt lat="33.8097789" lon="-118.3942926">
  <ele>-35.013</ele>
  <time>2026-09-01T01:13:45Z</time>
  <course>286.8</course>
  <speed>0.9000555538409837</speed>
  <fix>3d</fix>
</trkpt>
<trkpt lat="33.809779" lon="-118.3942913">
  <ele>-34.16</ele>
  <time>2026-09-01T01:13:45Z</time>
  <course>270.99</course>
  <speed>0.92</speed>
  <fix>3d</fix>
</trkpt>
<trkpt lat="33.809779" lon="-118.3942936">
  <ele>-35.016</ele>
  <time>2026-09-01T01:13:45Z</time>
  <course>286.54</course>
  <speed>0.9000555538409837</speed>
  <fix>3d</fix>
</trkpt>
<trkpt lat="33.809779" lon="-118.3942913">
  <ele>-34.16</ele>
  <time>2026-09-01T01:13:45Z</time>
  <course>270.99</course>
  <speed>0.92</speed>
  <fix>3d</fix>
</trkpt>
<trkpt lat="33.809779" lon="-118.3942945">
  <ele>-35.016</ele>
  <time>2026-09-01T01:13:45Z</time>
  <course>286.29</course>
  <speed>0.9000555538409837</speed>
  <fix>3d</fix>
</trkpt>
<trkpt lat="33.809779" lon="-118.3942934">
  <ele>-34.17</ele>
  <time>2026-09-01T01:13:45Z</time>
  <course>270.82</course>
  <speed>0.92</speed>
  <fix>3d</fix>
</trkpt>
<trkpt lat="33.809779" lon="-118.3942955">
  <ele>-35.014</ele>
  <time>2026-09-01T01:13:45Z</time>
  <course>286.05</course>
  <speed>0.9000555538409837</speed>
  <fix>3d</fix>
</trkpt>
<trkpt lat="33.809779" lon="-118.3942934">
  <ele>-34.17</ele>
  <time>2026-09-01T01:13:45Z</time>
  <course>270.82</course>
  <speed>0.92</speed>
  <fix>3d</fix>
</trkpt>
<trkpt lat="33.809779" lon="-118.3942965">
  <ele>-35.01</ele>
  <time>2026-09-01T01:13:45Z</time>
  <course>285.84</course>
  <speed>0.9000555538409837</speed>
  <fix>3d</fix>
</trkpt>
<trkpt lat="33.809779" lon="-118.3942954">
  <ele>-34.17</ele>
  <time>2026-09-01T01:13:45Z</time>
  <course>270.72</course>
  <speed>0.92</speed>
  <fix>3d</fix>
</trkpt>
<trkpt lat="33.809779" lon="-118.3942975">
  <ele>-35.004</ele>
  <time>2026-09-01T01:13:45Z</time>
  <course>285.65</course>
  <speed>0.9000555538409837</speed>
  <fix>3d</fix>
</trkpt>
<trkpt lat="33.809779" lon="-118.3942954">
  <ele>-34.17</ele>
  <time>2026-09-01T01:13:45Z</time>
  <course>270.72</course>
  <speed>0.92</speed>
  <fix>3d</fix>
</trkpt>
<trkpt lat="33.809779" lon="-118.3942985">
  <ele>-34.997</ele>
  <time>2026-09-01T01:13:45Z</time>
  <course>285.48</course>
  <speed>0.9000555538409837</speed>
  <fix>3d</fix>
</trkpt>
<trkpt lat="33.8097791" lon="-118.3942974">
  <ele>-34.16</ele>
  <time>2026-09-01T01:13:45Z</time>
  <course>270.69</course>
  <speed>0.92</speed>
  <fix>3d</fix>
</trkpt>
<trkpt lat="33.809779" lon="-118.3942995">
  <ele>-34.993</ele>
  <time>2026-09-01T01:13:45Z</time>
  <course>285.31</course>
  <speed>0.8900561780022652</speed>
  <fix>3d</fix>
</trkpt>
<trkpt lat="33.8097791" lon="-118.3942974">
  <ele>-34.16</ele>
  <time>2026-09-01T01:13:45Z</time>
  <course>270.69</course>
  <speed>0.92</speed>
  <fix>3d</fix>
</trkpt>
<trkpt lat="33.8097791" lon="-118.3943005">
  <ele>-34.99</ele>
  <time>2026-09-01T01:13:45Z</time>
  <course>285.13</course>
  <speed>0.8900561780022652</speed>
  <fix>3d</fix>
</trkpt>
<trkpt lat="33.8097791" lon="-118.3942994">
  <ele>-34.15</ele>
  <time>2026-09-01T01:13:45Z</time>
  <course>270.65</course>
  <speed>0.92</speed>
  <fix>3d</fix>
</trkpt>
<trkpt lat="33.8097791" lon="-118.3943015">
  <ele>-34.988</ele>
  <time>2026-09-01T01:13:45Z</time>
  <course>284.95</course>
  <speed>0.8900561780022652</speed>
  <fix>3d</fix>
</trkpt>
<trkpt lat="33.8097791" lon="-118.3942994">
  <ele>-34.15</ele>
  <time>2026-09-01T01:13:45Z</time>
  <course>270.65</course>
  <speed>0.92</speed>
  <fix>3d</fix>
</trkpt>
<trkpt lat="33.8097791" lon="-118.3943025">
  <ele>-34.987</ele>
  <time>2026-09-01T01:13:45Z</time>
  <course>284.77</course>
  <speed>0.8900561780022652</speed>
  <fix>3d</fix>
</trkpt>
<trkpt lat="33.8097791" lon="-118.3943014">
  <ele>-34.15</ele>
  <time>2026-09-01T01:13:45Z</time>
  <course>270.58</course>
  <speed>0.92</speed>
  <fix>3d</fix>
</trkpt>
<trkpt lat="33.8097791" lon="-118.3943035">
  <ele>-34.987</ele>
  <time>2026-09-01T01:13:45Z</time>
  <course>284.59</course>
  <speed>0.8900561780022652</speed>
  <fix>3d</fix>
</trkpt>
<trkpt lat="33.8097791" lon="-118.3943014">
  <ele>-34.15</ele>
  <time>2026-09-01T01:13:45Z</time>
  <course>270.58</course>
  <speed>0.92</speed>
  <fix>3d</fix>
</trkpt>
<trkpt lat="33.8097791" lon="-118.3943045">
  <ele>-34.988</ele>
  <time>2026-09-01T01:13:45Z</time>
  <course>284.43</course>
  <speed>0.8900561780022652</speed>
  <fix>3d</fix>
</trkpt>
<trkpt lat="33.8097791" lon="-118.3943034">
  <ele>-34.15</ele>
  <time>2026-09-01T01:13:45Z</time>
  <course>270.53</course>
  <speed>0.92</speed>
  <fix>3d</fix>
</trkpt>
<trkpt lat="33.8097791" lon="-118.3943055">
  <ele>-34.991</ele>
  <time>2026-09-01T01:13:45Z</time>
  <course>284.27</course>
  <speed>0.8900561780022652</speed>
  <fix>3d</fix>
</trkpt>
<trkpt lat="33.8097791" lon="-118.3943034">
  <ele>-34.15</ele>
  <time>2026-09-01T01:13:45Z</time>
  <course>270.53</course>
  <speed>0.92</speed>
  <fix>3d</fix>
</trkpt>
<trkpt lat="33.8097791" lon="-118.3943065">
  <ele>-34.994</ele>
  <time>2026-09-01T01:13:45Z</time>
  <course>284.12</course>
  <speed>0.8900561780022652</speed>
  <fix>3d</fix>
</trkpt>
<trkpt lat="33.8097791" lon="-118.3943054">
  <ele>-34.15</ele>
  <time>2026-09-01T01:13:45Z</time>
  <course>270.51</course>
  <speed>0.92</speed>
  <fix>3d</fix>
</trkpt>
<trkpt lat="33.8097791" lon="-118.3943074">
  <ele>-34.996</ele>
  <time>2026-09-01T01:13:45Z</time>
  <course>283.97</course>
  <speed>0.8900561780022652</speed>
  <fix>3d</fix>
</trkpt>
<trkpt lat="33.8097791" lon="-118.3943054">
  <ele>-34.15</ele>
  <time>2026-09-01T01:13:45Z</time>
  <course>270.51</course>
  <speed>0.92</speed>
  <fix>3d</fix>
</trkpt>
<trkpt lat="33.8097791" lon="-118.3943084">
  <ele>-34.998</ele>
  <time>2026-09-01T01:13:45Z</time>
  <course>283.83</course>
  <speed>0.8900561780022652</speed>
  <fix>3d</fix>
</trkpt>
<trkpt lat="33.8097791" lon="-118.3943074">
  <ele>-34.16</ele>
  <time>2026-09-01T01:13:45Z</time>
  <course>270.51</course>
  <speed>0.92</speed>
  <fix>3d</fix>
</trkpt>
<trkpt lat="33.8097791" lon="-118.3943094">
  <ele>-34.998</ele>
  <time>2026-09-01T01:13:45Z</time>
  <course>283.69</course>
  <speed>0.8900561780022652</speed>
  <fix>3d</fix>
</trkpt>
<trkpt lat="33.8097791" lon="-118.3943074">
  <ele>-34.16</ele>
  <time>2026-09-01T01:13:45Z</time>
  <course>270.51</course>
  <speed>0.92</speed>
  <fix>3d</fix>
</trkpt>
<trkpt lat="33.8097792" lon="-118.3943104">
  <ele>-34.998</ele>
  <time>2026-09-01T01:13:45Z</time>
  <course>283.56</course>
  <speed>0.8900561780022652</speed>
  <fix>3d</fix>
</trkpt>
<trkpt lat="33.8097792" lon="-118.3943094">
  <ele>-34.16</ele>
  <time>2026-09-01T01:13:45Z</time>
  <course>270.53</course>
  <speed>0.92</speed>
  <fix>3d</fix>
</trkpt>
<trkpt lat="33.8097792" lon="-118.3943114">
  <ele>-35.0</ele>
  <time>2026-09-01T01:13:45Z</time>
  <course>283.46</course>
  <speed>0.8000624975587844</speed>
  <fix>3d</fix>
</trkpt>
<trkpt lat="33.8097792" lon="-118.3943094">
  <ele>-34.16</ele>
  <time>2026-09-01T01:13:45Z</time>
  <course>270.53</course>
  <speed>0.92</speed>
  <fix>3d</fix>
</trkpt>
<trkpt lat="33.8097792" lon="-118.3943123">
  <ele>-35.005</ele>
  <time>2026-09-01T01:13:45Z</time>
  <course>283.73</course>
  <speed>0.8300602387778854</speed>
  <fix>3d</fix>
</trkpt>
<trkpt lat="33.8097792" lon="-118.3943114">
  <ele>-34.16</ele>
  <time>2026-09-01T01:13:45Z</time>
  <course>270.67</course>
  <speed>0.88</speed>
  <fix>3d</fix>
</trkpt>
<trkpt lat="33.8097792" lon="-118.3943132">
  <ele>-35.012</ele>
  <time>2026-09-01T01:13:45Z</time>
  <course>283.98</course>
  <speed>0.8400595217006948</speed>
  <fix>3d</fix>
</trkpt>
<trkpt lat="33.8097792" lon="-118.3943114">
  <ele>-34.16</ele>
  <time>2026-09-01T01:13:45Z</time>
  <course>270.67</course>
  <speed>0.88</speed>
  <fix>3d</fix>
</trkpt>
<trkpt lat="33.8097792" lon="-118.3943142">
  <ele>-35.021</ele>
  <time>2026-09-01T01:13:45Z</time>
  <course>283.95</course>
  <speed>0.8500588214941364</speed>
  <fix>3d</fix>
</trkpt>
<trkpt lat="33.8097792" lon="-118.3943133">
  <ele>-34.16</ele>
  <time>2026-09-01T01:13:45Z</time>
  <course>270.67</course>
  <speed>0.86</speed>
  <fix>3d</fix>
</trkpt>
<trkpt lat="33.8097792" lon="-118.3943151">
  <ele>-35.026</ele>
  <time>2026-09-01T01:13:45Z</time>
  <course>283.69</course>
  <speed>0.8500588214941364</speed>
  <fix>3d</fix>
</trkpt>
<trkpt lat="33.8097792" lon="-118.3943133">
  <ele>-34.16</ele>
  <time>2026-09-01T01:13:45Z</time>
  <course>270.67</course>
  <speed>0.86</speed>
  <fix>3d</fix>
</trkpt>
<trkpt lat="33.8097792" lon="-118.3943161">
  <ele>-35.027</ele>
  <time>2026-09-01T01:13:45Z</time>
  <course>283.39</course>
  <speed>0.8600581375697809</speed>
  <fix>3d</fix>
</trkpt>
<trkpt lat="33.8097792" lon="-118.3943152">
  <ele>-34.17</ele>
  <time>2026-09-01T01:13:45Z</time>
  <course>270.48</course>
  <speed>0.88</speed>
  <fix>3d</fix>
</trkpt>
<trkpt lat="33.8097792" lon="-118.394317">
  <ele>-35.027</ele>
  <time>2026-09-01T01:13:45Z</time>
  <course>283.1</course>
  <speed>0.8600581375697809</speed>
  <fix>3d</fix>
</trkpt>
<trkpt lat="33.8097792" lon="-118.3943152">
  <ele>-34.17</ele>
  <time>2026-09-01T01:13:45Z</time>
  <course>270.48</course>
  <speed>0.88</speed>
  <fix>3d</fix>
</trkpt>
<trkpt lat="33.8097792" lon="-118.394318">
  <ele>-35.026</ele>
  <time>2026-09-01T01:13:45Z</time>
  <course>282.85</course>
  <speed>0.8700574693662483</speed>
  <fix>3d</fix>
</trkpt>
<trkpt lat="33.8097792" lon="-118.3943171">
  <ele>-34.18</ele>
  <time>2026-09-01T01:13:45Z</time>
  <course>270.4</course>
  <speed>0.89</speed>
  <fix>3d</fix>
</trkpt>
<trkpt lat="33.8097792" lon="-118.394319">
  <ele>-35.024</ele>
  <time>2026-09-01T01:13:45Z</time>
  <course>282.63</course>
  <speed>0.8700574693662483</speed>
  <fix>3d</fix>
</trkpt>
<trkpt lat="33.8097792" lon="-118.3943171">
  <ele>-34.18</ele>
  <time>2026-09-01T01:13:45Z</time>
  <course>270.4</course>
  <speed>0.89</speed>
  <fix>3d</fix>
</trkpt>
<trkpt lat="33.8097792" lon="-118.39432">
  <ele>-35.022</ele>
  <time>2026-09-01T01:13:45Z</time>
  <course>282.43</course>
  <speed>0.880056816347672</speed>
  <fix>3d</fix>
</trkpt>
<trkpt lat="33.8097792" lon="-118.3943191">
  <ele>-34.18</ele>
  <time>2026-09-01T01:13:45Z</time>
  <course>270.42</course>
  <speed>0.9</speed>
  <fix>3d</fix>
</trkpt>
<trkpt lat="33.8097793" lon="-118.394321">
  <ele>-35.019</ele>
  <time>2026-09-01T01:13:45Z</time>
  <course>282.25</course>
  <speed>0.880056816347672</speed>
  <fix>3d</fix>
</trkpt>
<trkpt lat="33.8097792" lon="-118.3943191">
  <ele>-34.18</ele>
  <time>2026-09-01T01:13:45Z</time>
  <course>270.42</course>
  <speed>0.9</speed>
  <fix>3d</fix>
</trkpt>
<trkpt lat="33.8097793" lon="-118.3943219">
  <ele>-35.016</ele>
  <time>2026-09-01T01:13:45Z</time>
  <course>282.09</course>
  <speed>0.880056816347672</speed>
  <fix>3d</fix>
</trkpt>
<trkpt lat="33.8097792" lon="-118.394321">
  <ele>-34.17</ele>
  <time>2026-09-01T01:13:45Z</time>
  <course>270.46</course>
  <speed>0.91</speed>
  <fix>3d</fix>
</trkpt>
<trkpt lat="33.8097793" lon="-118.3943229">
  <ele>-35.012</ele>
  <time>2026-09-01T01:13:45Z</time>
  <course>281.94</course>
  <speed>0.880056816347672</speed>
  <fix>3d</fix>
</trkpt>
<trkpt lat="33.8097792" lon="-118.394321">
  <ele>-34.17</ele>
  <time>2026-09-01T01:13:45Z</time>
  <course>270.46</course>
  <speed>0.91</speed>
  <fix>3d</fix>
</trkpt>
<trkpt lat="33.8097793" lon="-118.3943239">
  <ele>-35.007</ele>
  <time>2026-09-01T01:13:45Z</time>
  <course>281.8</course>
  <speed>0.880056816347672</speed>
  <fix>3d</fix>
</trkpt>
<trkpt lat="33.8097792" lon="-118.3943229">
  <ele>-34.17</ele>
  <time>2026-09-01T01:13:45Z</time>
  <course>270.5</course>
  <speed>0.92</speed>
  <fix>3d</fix>
</trkpt>
<trkpt lat="33.8097793" lon="-118.3943249">
  <ele>-35.004</ele>
  <time>2026-09-01T01:13:45Z</time>
  <course>281.65</course>
  <speed>0.880056816347672</speed>
  <fix>3d</fix>
</trkpt>
<trkpt lat="33.8097792" lon="-118.3943229">
  <ele>-34.17</ele>
  <time>2026-09-01T01:13:45Z</time>
  <course>270.5</course>
  <speed>0.92</speed>
  <fix>3d</fix>
</trkpt>
<trkpt lat="33.8097793" lon="-118.3943259">
  <ele>-35.002</ele>
  <time>2026-09-01T01:13:45Z</time>
  <course>281.52</course>
  <speed>0.8900561780022652</speed>
  <fix>3d</fix>
</trkpt>
<trkpt lat="33.8097792" lon="-118.394325">
  <ele>-34.16</ele>
  <time>2026-09-01T01:13:45Z</time>
  <course>270.55</course>
  <speed>0.92</speed>
  <fix>3d</fix>
</trkpt>
<trkpt lat="33.8097793" lon="-118.3943269">
  <ele>-35.001</ele>
  <time>2026-09-01T01:13:45Z</time>
  <course>281.39</course>
  <speed>0.8902246907382428</speed>
  <fix>3d</fix>
</trkpt>
<trkpt lat="33.8097792" lon="-118.394325">
  <ele>-34.16</ele>
  <time>2026-09-01T01:13:45Z</time>
  <course>270.55</course>
  <speed>0.92</speed>
  <fix>3d</fix>
</trkpt>
<trkpt lat="33.8097793" lon="-118.3943279">
  <ele>-34.998</ele>
  <time>2026-09-01T01:13:45Z</time>
  <course>281.27</course>
  <speed>0.8902246907382428</speed>
  <fix>3d</fix>
</trkpt>
<trkpt lat="33.8097792" lon="-118.394327">
  <ele>-34.16</ele>
  <time>2026-09-01T01:13:45Z</time>
  <course>270.61</course>
  <speed>0.92</speed>
  <fix>3d</fix>
</trkpt>
<trkpt lat="33.8097793" lon="-118.3943289">
  <ele>-34.996</ele>
  <time>2026-09-01T01:13:45Z</time>
  <course>281.15</course>
  <speed>0.8902246907382428</speed>
  <fix>3d</fix>
</trkpt>
<trkpt lat="33.8097792" lon="-118.394327">
  <ele>-34.16</ele>
  <time>2026-09-01T01:13:45Z</time>
  <course>270.61</course>
  <speed>0.92</speed>
  <fix>3d</fix>
</trkpt>
<trkpt lat="33.8097793" lon="-118.3943299">
  <ele>-34.994</ele>
  <time>2026-09-01T01:13:45Z</time>
  <course>281.04</course>
  <speed>0.8902246907382428</speed>
  <fix>3d</fix>
</trkpt>
<trkpt lat="33.8097792" lon="-118.394329">
  <ele>-34.16</ele>
  <time>2026-09-01T01:13:45Z</time>
  <course>270.67</course>
  <speed>0.93</speed>
  <fix>3d</fix>
</trkpt>
<trkpt lat="33.8097793" lon="-118.3943309">
  <ele>-34.994</ele>
  <time>2026-09-01T01:13:45Z</time>
  <course>280.94</course>
  <speed>0.8902246907382428</speed>
  <fix>3d</fix>
</trkpt>
<trkpt lat="33.8097792" lon="-118.394329">
  <ele>-34.16</ele>
  <time>2026-09-01T01:13:45Z</time>
  <course>270.67</course>
  <speed>0.93</speed>
  <fix>3d</fix>
</trkpt>
<trkpt lat="33.8097793" lon="-118.3943319">
  <ele>-34.996</ele>
  <time>2026-09-01T01:13:45Z</time>
  <course>280.84</course>
  <speed>0.8902246907382428</speed>
  <fix>3d</fix>
</trkpt>
<trkpt lat="33.8097793" lon="-118.394331">
  <ele>-34.15</ele>
  <time>2026-09-01T01:13:45Z</time>
  <course>270.75</course>
  <speed>0.93</speed>
  <fix>3d</fix>
</trkpt>
<trkpt lat="33.8097793" lon="-118.3943329">
  <ele>-34.999</ele>
  <time>2026-09-01T01:13:45Z</time>
  <course>280.73</course>
  <speed>0.8902246907382428</speed>
  <fix>3d</fix>
</trkpt>
<trkpt lat="33.8097793" lon="-118.394331">
  <ele>-34.15</ele>
  <time>2026-09-01T01:13:45Z</time>
  <course>270.75</course>
  <speed>0.93</speed>
  <fix>3d</fix>
</trkpt>
<trkpt lat="33.8097793" lon="-118.3943339">
  <ele>-35.004</ele>
  <time>2026-09-01T01:13:45Z</time>
  <course>280.61</course>
  <speed>0.8902246907382428</speed>
  <fix>3d</fix>
</trkpt>
<trkpt lat="33.8097793" lon="-118.3943331">
  <ele>-34.15</ele>
  <time>2026-09-01T01:13:45Z</time>
  <course>270.77</course>
  <speed>0.93</speed>
  <fix>3d</fix>
</trkpt>
<trkpt lat="33.8097794" lon="-118.3943349">
  <ele>-35.01</ele>
  <time>2026-09-01T01:13:45Z</time>
  <course>280.47</course>
  <speed>0.8902246907382428</speed>
  <fix>3d</fix>
</trkpt>
<trkpt lat="33.8097793" lon="-118.3943331">
  <ele>-34.15</ele>
  <time>2026-09-01T01:13:45Z</time>
  <course>270.77</course>
  <speed>0.93</speed>
  <fix>3d</fix>
</trkpt>
<trkpt lat="33.8097794" lon="-118.3943359">
  <ele>-35.015</ele>
  <time>2026-09-01T01:13:45Z</time>
  <course>280.32</course>
  <speed>0.8902246907382428</speed>
  <fix>3d</fix>
</trkpt>
<trkpt lat="33.8097793" lon="-118.3943351">
  <ele>-34.16</ele>
  <time>2026-09-01T01:13:45Z</time>
  <course>270.73</course>
  <speed>0.93</speed>
  <fix>3d</fix>
</trkpt>
<trkpt lat="33.8097794" lon="-118.3943369">
  <ele>-35.016</ele>
  <time>2026-09-01T01:13:45Z</time>
  <course>280.18</course>
  <speed>0.8902246907382428</speed>
  <fix>3d</fix>
</trkpt>
<trkpt lat="33.8097793" lon="-118.3943351">
  <ele>-34.16</ele>
  <time>2026-09-01T01:13:45Z</time>
  <course>270.73</course>
  <speed>0.93</speed>
  <fix>3d</fix>
</trkpt>
<trkpt lat="33.8097794" lon="-118.3943379">
  <ele>-35.016</ele>
  <time>2026-09-01T01:13:45Z</time>
  <course>280.04</course>
  <speed>0.8902246907382428</speed>
  <fix>3d</fix>
</trkpt>
<trkpt lat="33.8097793" lon="-118.3943371">
  <ele>-34.17</ele>
  <time>2026-09-01T01:13:45Z</time>
  <course>270.7</course>
  <speed>0.93</speed>
  <fix>3d</fix>
</trkpt>
<trkpt lat="33.8097794" lon="-118.3943389">
  <ele>-35.012</ele>
  <time>2026-09-01T01:13:45Z</time>
  <course>279.91</course>
  <speed>0.8902246907382428</speed>
  <fix>3d</fix>
</trkpt>
<trkpt lat="33.8097793" lon="-118.3943371">
  <ele>-34.17</ele>
  <time>2026-09-01T01:13:45Z</time>
  <course>270.7</course>
  <speed>0.93</speed>
  <fix>3d</fix>
</trkpt>
<trkpt lat="33.8097794" lon="-118.39434">
  <ele>-34.999</ele>
  <time>2026-09-01T01:13:45Z</time>
  <course>279.79</course>
  <speed>0.8902246907382428</speed>
  <fix>3d</fix>
</trkpt>
<trkpt lat="33.8097793" lon="-118.3943391">
  <ele>-34.17</ele>
  <time>2026-09-01T01:13:45Z</time>
  <course>270.67</course>
  <speed>0.93</speed>
  <fix>3d</fix>
</trkpt>
<trkpt lat="33.8097794" lon="-118.394341">
  <ele>-34.981</ele>
  <time>2026-09-01T01:13:45Z</time>
  <course>279.67</course>
  <speed>0.8902246907382428</speed>
  <fix>3d</fix>
</trkpt>
<trkpt lat="33.8097793" lon="-118.3943391">
  <ele>-34.17</ele>
  <time>2026-09-01T01:13:45Z</time>
  <course>270.67</course>
  <speed>0.93</speed>
  <fix>3d</fix>
</trkpt>
<trkpt lat="33.8097794" lon="-118.394342">
  <ele>-34.961</ele>
  <time>2026-09-01T01:13:45Z</time>
  <course>279.56</course>
  <speed>0.8902246907382428</speed>
  <fix>3d</fix>
</trkpt>
<trkpt lat="33.8097794" lon="-118.3943411">
  <ele>-34.15</ele>
  <time>2026-09-01T01:13:45Z</time>
  <course>270.67</course>
  <speed>0.93</speed>
  <fix>3d</fix>
</trkpt>
<trkpt lat="33.8097794" lon="-118.394343">
  <ele>-34.94</ele>
  <time>2026-09-01T01:13:45Z</time>
  <course>279.44</course>
  <speed>0.8902246907382428</speed>
  <fix>3d</fix>
</trkpt>
<trkpt lat="33.8097794" lon="-118.3943411">
  <ele>-34.15</ele>
  <time>2026-09-01T01:13:45Z</time>
  <course>270.67</course>
  <speed>0.93</speed>
  <fix>3d</fix>
</trkpt>
<trkpt lat="33.8097794" lon="-118.394344">
  <ele>-34.92</ele>
  <time>2026-09-01T01:13:45Z</time>
  <course>279.31</course>
  <speed>0.8900561780022652</speed>
  <fix>3d</fix>
</trkpt>
<trkpt lat="33.8097795" lon="-118.3943432">
  <ele>-34.12</ele>
  <time>2026-09-01T01:13:45Z</time>
  <course>270.66</course>
  <speed>0.93</speed>
  <fix>3d</fix>
</trkpt>
<trkpt lat="33.8097794" lon="-118.394345">
  <ele>-34.902</ele>
  <time>2026-09-01T01:13:45Z</time>
  <course>279.15</course>
  <speed>0.8900561780022652</speed>
  <fix>3d</fix>
</trkpt>
<trkpt lat="33.8097795" lon="-118.3943432">
  <ele>-34.12</ele>
  <time>2026-09-01T01:13:45Z</time>
  <course>270.66</course>
  <speed>0.93</speed>
  <fix>3d</fix>
</trkpt>
<trkpt lat="33.8097795" lon="-118.394346">
  <ele>-34.888</ele>
  <time>2026-09-01T01:13:45Z</time>
  <course>278.98</course>
  <speed>0.8900561780022652</speed>
  <fix>3d</fix>
</trkpt>
<trkpt lat="33.8097795" lon="-118.3943452">
  <ele>-34.08</ele>
  <time>2026-09-01T01:13:45Z</time>
  <course>270.55</course>
  <speed>0.93</speed>
  <fix>3d</fix>
</trkpt>
<trkpt lat="33.8097795" lon="-118.394347">
  <ele>-34.887</ele>
  <time>2026-09-01T01:13:45Z</time>
  <course>278.79</course>
  <speed>0.8900561780022652</speed>
  <fix>3d</fix>
</trkpt>
<trkpt lat="33.8097795" lon="-118.3943452">
  <ele>-34.08</ele>
  <time>2026-09-01T01:13:45Z</time>
  <course>270.55</course>
  <speed>0.93</speed>
  <fix>3d</fix>
</trkpt>
<trkpt lat="33.8097795" lon="-118.394348">
  <ele>-34.898</ele>
  <time>2026-09-01T01:13:45Z</time>
  <course>278.6</course>
  <speed>0.8900561780022652</speed>
  <fix>3d</fix>
</trkpt>
<trkpt lat="33.8097795" lon="-118.3943472">
  <ele>-34.06</ele>
  <time>2026-09-01T01:13:45Z</time>
  <course>270.41</course>
  <speed>0.93</speed>
  <fix>3d</fix>
</trkpt>
<trkpt lat="33.8097795" lon="-118.394349">
  <ele>-34.916</ele>
  <time>2026-09-01T01:13:45Z</time>
  <course>278.4</course>
  <speed>0.8900561780022652</speed>
  <fix>3d</fix>
</trkpt>
<trkpt lat="33.8097795" lon="-118.3943472">
  <ele>-34.06</ele>
  <time>2026-09-01T01:13:45Z</time>
  <course>270.41</course>
  <speed>0.93</speed>
  <fix>3d</fix>
</trkpt>
<trkpt lat="33.8097795" lon="-118.3943501">
  <ele>-34.934</ele>
  <time>2026-09-01T01:13:45Z</time>
  <course>278.23</course>
  <speed>0.8900561780022652</speed>
  <fix>3d</fix>
</trkpt>
<trkpt lat="33.8097795" lon="-118.3943492">
  <ele>-34.07</ele>
  <time>2026-09-01T01:13:45Z</time>
  <course>270.3</course>
  <speed>0.93</speed>
  <fix>3d</fix>
</trkpt>
<trkpt lat="33.8097795" lon="-118.3943511">
  <ele>-34.951</ele>
  <time>2026-09-01T01:13:45Z</time>
  <course>278.06</course>
  <speed>0.8900561780022652</speed>
  <fix>3d</fix>
</trkpt>
<trkpt lat="33.8097795" lon="-118.3943492">
  <ele>-34.07</ele>
  <time>2026-09-01T01:13:45Z</time>
  <course>270.3</course>
  <speed>0.93</speed>
  <fix>3d</fix>
</trkpt>
<trkpt lat="33.8097795" lon="-118.3943521">
  <ele>-34.966</ele>
  <time>2026-09-01T01:13:45Z</time>
  <course>277.92</course>
  <speed>0.8900561780022652</speed>
  <fix>3d</fix>
</trkpt>
<trkpt lat="33.8097795" lon="-118.3943512">
  <ele>-34.1</ele>
  <time>2026-09-01T01:13:45Z</time>
  <course>270.22</course>
  <speed>0.93</speed>
  <fix>3d</fix>
</trkpt>
<trkpt lat="33.8097795" lon="-118.3943531">
  <ele>-34.982</ele>
  <time>2026-09-01T01:13:45Z</time>
  <course>277.77</course>
  <speed>0.8900561780022652</speed>
  <fix>3d</fix>
</trkpt>
<trkpt lat="33.8097795" lon="-118.3943512">
  <ele>-34.1</ele>
  <time>2026-09-01T01:13:45Z</time>
  <course>270.22</course>
  <speed>0.93</speed>
  <fix>3d</fix>
</trkpt>
<trkpt lat="33.8097795" lon="-118.3943541">
  <ele>-34.998</ele>
  <time>2026-09-01T01:13:45Z</time>
  <course>277.65</course>
  <speed>0.9000555538409837</speed>
  <fix>3d</fix>
</trkpt>
<trkpt lat="33.8097795" lon="-118.3943532">
  <ele>-34.13</ele>
  <time>2026-09-01T01:13:45Z</time>
  <course>270.18</course>
  <speed>0.93</speed>
  <fix>3d</fix>
</trkpt>
<trkpt lat="33.8097795" lon="-118.3943551">
  <ele>-35.013</ele>
  <time>2026-09-01T01:13:45Z</time>
  <course>277.52</course>
  <speed>0.9000555538409837</speed>
  <fix>3d</fix>
</trkpt>
<trkpt lat="33.8097795" lon="-118.3943532">
  <ele>-34.13</ele>
  <time>2026-09-01T01:13:45Z</time>
  <course>270.18</course>
  <speed>0.93</speed>
  <fix>3d</fix>
</trkpt>
<trkpt lat="33.8097795" lon="-118.3943561">
  <ele>-35.03</ele>
  <time>2026-09-01T01:13:45Z</time>
  <course>277.41</course>
  <speed>0.9000555538409837</speed>
  <fix>3d</fix>
</trkpt>
<trkpt lat="33.8097795" lon="-118.3943552">
  <ele>-34.16</ele>
  <time>2026-09-01T01:13:45Z</time>
  <course>270.17</course>
  <speed>0.93</speed>
  <fix>3d</fix>
</trkpt>
<trkpt lat="33.8097795" lon="-118.3943571">
  <ele>-35.046</ele>
  <time>2026-09-01T01:13:45Z</time>
  <course>277.31</course>
  <speed>0.9000555538409837</speed>
  <fix>3d</fix>
</trkpt>
<trkpt lat="33.8097795" lon="-118.3943552">
  <ele>-34.16</ele>
  <time>2026-09-01T01:13:45Z</time>
  <course>270.17</course>
  <speed>0.93</speed>
  <fix>3d</fix>
</trkpt>
<trkpt lat="33.8097796" lon="-118.3943581">
  <ele>-35.059</ele>
  <time>2026-09-01T01:13:45Z</time>
  <course>277.21</course>
  <speed>0.9000555538409837</speed>
  <fix>3d</fix>
</trkpt>
<trkpt lat="33.8097795" lon="-118.3943572">
  <ele>-34.18</ele>
  <time>2026-09-01T01:13:45Z</time>
  <course>270.18</course>
  <speed>0.93</speed>
  <fix>3d</fix>
</trkpt>
<trkpt lat="33.8097796" lon="-118.3943592">
  <ele>-35.068</ele>
  <time>2026-09-01T01:13:45Z</time>
  <course>277.12</course>
  <speed>0.9000555538409837</speed>
  <fix>3d</fix>
</trkpt>
<trkpt lat="33.8097795" lon="-118.3943572">
  <ele>-34.18</ele>
  <time>2026-09-01T01:13:45Z</time>
  <course>270.18</course>
  <speed>0.93</speed>
  <fix>3d</fix>
</trkpt>
<trkpt lat="33.8097796" lon="-118.3943602">
  <ele>-35.072</ele>
  <time>2026-09-01T01:13:45Z</time>
  <course>277.03</course>
  <speed>0.9000555538409837</speed>
  <fix>3d</fix>
</trkpt>
<trkpt lat="33.8097795" lon="-118.3943593">
  <ele>-34.21</ele>
  <time>2026-09-01T01:13:45Z</time>
  <course>270.18</course>
  <speed>0.93</speed>
  <fix>3d</fix>
</trkpt>
<trkpt lat="33.8097796" lon="-118.3943612">
  <ele>-35.074</ele>
  <time>2026-09-01T01:13:45Z</time>
  <course>276.95</course>
  <speed>0.9000555538409837</speed>
  <fix>3d</fix>
</trkpt>
<trkpt lat="33.8097795" lon="-118.3943593">
  <ele>-34.21</ele>
  <time>2026-09-01T01:13:45Z</time>
  <course>270.18</course>
  <speed>0.93</speed>
  <fix>3d</fix>
</trkpt>
<trkpt lat="33.8097796" lon="-118.3943622">
  <ele>-35.074</ele>
  <time>2026-09-01T01:13:45Z</time>
  <course>276.87</course>
  <speed>0.9000555538409837</speed>
  <fix>3d</fix>
</trkpt>
<trkpt lat="33.8097795" lon="-118.3943612">
  <ele>-34.22</ele>
  <time>2026-09-01T01:13:45Z</time>
  <course>270.2</course>
  <speed>0.93</speed>
  <fix>3d</fix>
</trkpt>
<trkpt lat="33.8097796" lon="-118.3943632">
  <ele>-35.071</ele>
  <time>2026-09-01T01:13:45Z</time>
  <course>276.79</course>
  <speed>0.9000555538409837</speed>
  <fix>3d</fix>
</trkpt>
<trkpt lat="33.8097795" lon="-118.3943612">
  <ele>-34.22</ele>
  <time>2026-09-01T01:13:45Z</time>
  <course>270.2</course>
  <speed>0.93</speed>
  <fix>3d</fix>
</trkpt>
<trkpt lat="33.8097796" lon="-118.3943642">
  <ele>-35.064</ele>
  <time>2026-09-01T01:13:45Z</time>
  <course>276.72</course>
  <speed>0.9000555538409837</speed>
  <fix>3d</fix>
</trkpt>
<trkpt lat="33.8097795" lon="-118.3943633">
  <ele>-34.22</ele>
  <time>2026-09-01T01:13:45Z</time>
  <course>270.22</course>
  <speed>0.93</speed>
  <fix>3d</fix>
</trkpt>
<trkpt lat="33.8097796" lon="-118.3943652">
  <ele>-35.054</ele>
  <time>2026-09-01T01:13:45Z</time>
  <course>276.64</course>
  <speed>0.9000555538409837</speed>
  <fix>3d</fix>
</trkpt>
<trkpt lat="33.8097795" lon="-118.3943633">
  <ele>-34.22</ele>
  <time>2026-09-01T01:13:45Z</time>
  <course>270.22</course>
  <speed>0.93</speed>
  <fix>3d</fix>
</trkpt>
<trkpt lat="33.8097796" lon="-118.3943663">
  <ele>-35.042</ele>
  <time>2026-09-01T01:13:45Z</time>
  <course>276.57</course>
  <speed>0.9100549433962765</speed>
  <fix>3d</fix>
</trkpt>
<trkpt lat="33.8097796" lon="-118.3943654">
  <ele>-34.21</ele>
  <time>2026-09-01T01:13:45Z</time>
  <course>270.24</course>
  <speed>0.94</speed>
  <fix>3d</fix>
</trkpt>
<trkpt lat="33.8097796" lon="-118.3943673">
  <ele>-35.03</ele>
  <time>2026-09-01T01:13:45Z</time>
  <course>276.49</course>
  <speed>0.9100549433962765</speed>
  <fix>3d</fix>
</trkpt>
<trkpt lat="33.8097796" lon="-118.3943654">
  <ele>-34.21</ele>
  <time>2026-09-01T01:13:45Z</time>
  <course>270.24</course>
  <speed>0.94</speed>
  <fix>3d</fix>
</trkpt>
<trkpt lat="33.8097796" lon="-118.3943683">
  <ele>-35.019</ele>
  <time>2026-09-01T01:13:45Z</time>
  <course>276.4</course>
  <speed>0.9100549433962765</speed>
  <fix>3d</fix>
</trkpt>
<trkpt lat="33.8097796" lon="-118.3943674">
  <ele>-34.19</ele>
  <time>2026-09-01T01:13:45Z</time>
  <course>270.22</course>
  <speed>0.94</speed>
  <fix>3d</fix>
</trkpt>
<trkpt lat="33.8097796" lon="-118.3943693">
  <ele>-35.008</ele>
  <time>2026-09-01T01:13:45Z</time>
  <course>276.29</course>
  <speed>0.9100549433962765</speed>
  <fix>3d</fix>
</trkpt>
<trkpt lat="33.8097796" lon="-118.3943674">
  <ele>-34.19</ele>
  <time>2026-09-01T01:13:45Z</time>
  <course>270.22</course>
  <speed>0.94</speed>
  <fix>3d</fix>
</trkpt>
<trkpt lat="33.8097796" lon="-118.3943704">
  <ele>-34.995</ele>
  <time>2026-09-01T01:13:45Z</time>
  <course>276.17</course>
  <speed>0.9100549433962765</speed>
  <fix>3d</fix>
</trkpt>
<trkpt lat="33.8097796" lon="-118.3943694">
  <ele>-34.17</ele>
  <time>2026-09-01T01:13:45Z</time>
  <course>270.15</course>
  <speed>0.94</speed>
  <fix>3d</fix>
</trkpt>
<trkpt lat="33.8097796" lon="-118.3943714">
  <ele>-34.98</ele>
  <time>2026-09-01T01:13:45Z</time>
  <course>276.06</course>
  <speed>0.9100549433962765</speed>
  <fix>3d</fix>
</trkpt>
<trkpt lat="33.8097796" lon="-118.3943694">
  <ele>-34.17</ele>
  <time>2026-09-01T01:13:45Z</time>
  <course>270.15</course>
  <speed>0.94</speed>
  <fix>3d</fix>
</trkpt>
<trkpt lat="33.8097796" lon="-118.3943724">
  <ele>-34.967</ele>
  <time>2026-09-01T01:13:45Z</time>
  <course>275.95</course>
  <speed>0.9100549433962765</speed>
  <fix>3d</fix>
</trkpt>
<trkpt lat="33.8097796" lon="-118.3943715">
  <ele>-34.15</ele>
  <time>2026-09-01T01:13:45Z</time>
  <course>270.09</course>
  <speed>0.94</speed>
  <fix>3d</fix>
</trkpt>
<trkpt lat="33.8097796" lon="-118.3943734">
  <ele>-34.958</ele>
  <time>2026-09-01T01:13:45Z</time>
  <course>275.84</course>
  <speed>0.9100549433962765</speed>
  <fix>3d</fix>
</trkpt>
<trkpt lat="33.8097796" lon="-118.3943715">
  <ele>-34.15</ele>
  <time>2026-09-01T01:13:45Z</time>
  <course>270.09</course>
  <speed>0.94</speed>
  <fix>3d</fix>
</trkpt>
<trkpt lat="33.8097796" lon="-118.3943745">
  <ele>-34.953</ele>
  <time>2026-09-01T01:13:45Z</time>
  <course>275.74</course>
  <speed>0.9100549433962765</speed>
  <fix>3d</fix>
</trkpt>
<trkpt lat="33.8097796" lon="-118.3943735">
  <ele>-34.12</ele>
  <time>2026-09-01T01:13:45Z</time>
  <course>270.06</course>
  <speed>0.94</speed>
  <fix>3d</fix>
</trkpt>
<trkpt lat="33.8097796" lon="-118.3943755">
  <ele>-34.953</ele>
  <time>2026-09-01T01:13:45Z</time>
  <course>275.65</course>
  <speed>0.9100549433962765</speed>
  <fix>3d</fix>
</trkpt>
<trkpt lat="33.8097796" lon="-118.3943735">
  <ele>-34.12</ele>
  <time>2026-09-01T01:13:45Z</time>
  <course>270.06</course>
  <speed>0.94</speed>
  <fix>3d</fix>
</trkpt>
<trkpt lat="33.8097796" lon="-118.3943765">
  <ele>-34.957</ele>
  <time>2026-09-01T01:13:45Z</time>
  <course>275.56</course>
  <speed>0.9100549433962765</speed>
  <fix>3d</fix>
</trkpt>
<trkpt lat="33.8097796" lon="-118.3943755">
  <ele>-34.12</ele>
  <time>2026-09-01T01:13:45Z</time>
  <course>270.04</course>
  <speed>0.94</speed>
  <fix>3d</fix>
</trkpt>
<trkpt lat="33.8097796" lon="-118.3943775">
  <ele>-34.964</ele>
  <time>2026-09-01T01:13:45Z</time>
  <course>275.47</course>
  <speed>0.9100549433962765</speed>
  <fix>3d</fix>
</trkpt>
<trkpt lat="33.8097796" lon="-118.3943755">
  <ele>-34.12</ele>
  <time>2026-09-01T01:13:45Z</time>
  <course>270.04</course>
  <speed>0.94</speed>
  <fix>3d</fix>
</trkpt>
<trkpt lat="33.8097797" lon="-118.3943785">
  <ele>-34.972</ele>
  <time>2026-09-01T01:13:45Z</time>
  <course>275.4</course>
  <speed>0.9100549433962765</speed>
  <fix>3d</fix>
</trkpt>
<trkpt lat="33.8097796" lon="-118.3943776">
  <ele>-34.12</ele>
  <time>2026-09-01T01:13:45Z</time>
  <course>270.04</course>
  <speed>0.94</speed>
  <fix>3d</fix>
</trkpt>
<trkpt lat="33.8097797" lon="-118.3943796">
  <ele>-34.979</ele>
  <time>2026-09-01T01:13:45Z</time>
  <course>275.32</course>
  <speed>0.9100549433962765</speed>
  <fix>3d</fix>
</trkpt>
<trkpt lat="33.8097796" lon="-118.3943776">
  <ele>-34.12</ele>
  <time>2026-09-01T01:13:45Z</time>
  <course>270.04</course>
  <speed>0.94</speed>
  <fix>3d</fix>
</trkpt>
<trkpt lat="33.8097797" lon="-118.3943806">
  <ele>-34.986</ele>
  <time>2026-09-01T01:13:45Z</time>
  <course>275.26</course>
  <speed>0.9100549433962765</speed>
  <fix>3d</fix>
</trkpt>
<trkpt lat="33.8097796" lon="-118.3943796">
  <ele>-34.14</ele>
  <time>2026-09-01T01:13:45Z</time>
  <course>270.05</course>
  <speed>0.94</speed>
  <fix>3d</fix>
</trkpt>
<trkpt lat="33.8097797" lon="-118.3943816">
  <ele>-34.997</ele>
  <time>2026-09-01T01:13:45Z</time>
  <course>275.19</course>
  <speed>0.9100549433962765</speed>
  <fix>3d</fix>
</trkpt>
<trkpt lat="33.8097796" lon="-118.3943796">
  <ele>-34.14</ele>
  <time>2026-09-01T01:13:45Z</time>
  <course>270.05</course>
  <speed>0.94</speed>
  <fix>3d</fix>
</trkpt>
<trkpt lat="33.8097797" lon="-118.3943826">
  <ele>-35.011</ele>
  <time>2026-09-01T01:13:45Z</time>
  <course>275.13</course>
  <speed>0.9200543462209175</speed>
  <fix>3d</fix>
</trkpt>
<trkpt lat="33.8097796" lon="-118.3943817">
  <ele>-34.16</ele>
  <time>2026-09-01T01:13:45Z</time>
  <course>270.06</course>
  <speed>0.94</speed>
  <fix>3d</fix>
</trkpt>
<trkpt lat="33.8097797" lon="-118.3943837">
  <ele>-35.025</ele>
  <time>2026-09-01T01:13:45Z</time>
  <course>275.07</course>
  <speed>0.9200543462209175</speed>
  <fix>3d</fix>
</trkpt>
<trkpt lat="33.8097796" lon="-118.3943817">
  <ele>-34.16</ele>
  <time>2026-09-01T01:13:45Z</time>
  <course>270.06</course>
  <speed>0.94</speed>
  <fix>3d</fix>
</trkpt>
<trkpt lat="33.8097797" lon="-118.3943847">
  <ele>-35.034</ele>
  <time>2026-09-01T01:13:45Z</time>
  <course>275.02</course>
  <speed>0.9200543462209175</speed>
  <fix>3d</fix>
</trkpt>
<trkpt lat="33.8097796" lon="-118.3943837">
  <ele>-34.18</ele>
  <time>2026-09-01T01:13:45Z</time>
  <course>270.08</course>
  <speed>0.95</speed>
  <fix>3d</fix>
</trkpt>
<trkpt lat="33.8097797" lon="-118.3943857">
  <ele>-35.041</ele>
  <time>2026-09-01T01:13:45Z</time>
  <course>274.96</course>
  <speed>0.9200543462209175</speed>
  <fix>3d</fix>
</trkpt>
<trkpt lat="33.8097796" lon="-118.3943837">
  <ele>-34.18</ele>
  <time>2026-09-01T01:13:45Z</time>
  <course>270.08</course>
  <speed>0.95</speed>
  <fix>3d</fix>
</trkpt>
<trkpt lat="33.8097797" lon="-118.3943868">
  <ele>-35.047</ele>
  <time>2026-09-01T01:13:45Z</time>
  <course>274.91</course>
  <speed>0.9200543462209175</speed>
  <fix>3d</fix>
</trkpt>
<trkpt lat="33.8097796" lon="-118.3943858">
  <ele>-34.2</ele>
  <time>2026-09-01T01:13:45Z</time>
  <course>270.08</course>
  <speed>0.95</speed>
  <fix>3d</fix>
</trkpt>
<trkpt lat="33.8097797" lon="-118.3943878">
  <ele>-35.049</ele>
  <time>2026-09-01T01:13:45Z</time>
  <course>274.85</course>
  <speed>0.9200543462209175</speed>
  <fix>3d</fix>
</trkpt>
<trkpt lat="33.8097796" lon="-118.3943858">
  <ele>-34.2</ele>
  <time>2026-09-01T01:13:45Z</time>
  <course>270.08</course>
  <speed>0.95</speed>
  <fix>3d</fix>
</trkpt>
<trkpt lat="33.8097797" lon="-118.3943888">
  <ele>-35.045</ele>
  <time>2026-09-01T01:13:45Z</time>
  <course>274.8</course>
  <speed>0.9200543462209175</speed>
  <fix>3d</fix>
</trkpt>
<trkpt lat="33.8097796" lon="-118.3943879">
  <ele>-34.21</ele>
  <time>2026-09-01T01:13:45Z</time>
  <course>270.09</course>
  <speed>0.95</speed>
  <fix>3d</fix>
</trkpt>
<trkpt lat="33.8097797" lon="-118.3943899">
  <ele>-35.038</ele>
  <time>2026-09-01T01:13:45Z</time>
  <course>274.76</course>
  <speed>0.9200543462209175</speed>
  <fix>3d</fix>
</trkpt>
<trkpt lat="33.8097796" lon="-118.3943879">
  <ele>-34.21</ele>
  <time>2026-09-01T01:13:45Z</time>
  <course>270.09</course>
  <speed>0.95</speed>
  <fix>3d</fix>
</trkpt>
<trkpt lat="33.8097797" lon="-118.3943909">
  <ele>-35.03</ele>
  <time>2026-09-01T01:13:45Z</time>
  <course>274.71</course>
  <speed>0.9200543462209175</speed>
  <fix>3d</fix>
</trkpt>
<trkpt lat="33.8097796" lon="-118.3943899">
  <ele>-34.19</ele>
  <time>2026-09-01T01:13:45Z</time>
  <course>270.11</course>
  <speed>0.95</speed>
  <fix>3d</fix>
</trkpt>
<trkpt lat="33.8097797" lon="-118.3943919">
  <ele>-35.022</ele>
  <time>2026-09-01T01:13:45Z</time>
  <course>274.67</course>
  <speed>0.9200543462209175</speed>
  <fix>3d</fix>
</trkpt>
<trkpt lat="33.8097796" lon="-118.3943899">
  <ele>-34.19</ele>
  <time>2026-09-01T01:13:45Z</time>
  <course>270.11</course>
  <speed>0.95</speed>
  <fix>3d</fix>
</trkpt>
<trkpt lat="33.8097797" lon="-118.394393">
  <ele>-35.013</ele>
  <time>2026-09-01T01:13:45Z</time>
  <course>274.63</course>
  <speed>0.9200543462209175</speed>
  <fix>3d</fix>
</trkpt>
<trkpt lat="33.8097796" lon="-118.394392">
  <ele>-34.18</ele>
  <time>2026-09-01T01:13:45Z</time>
  <course>270.15</course>
  <speed>0.95</speed>
  <fix>3d</fix>
</trkpt>
<trkpt lat="33.8097797" lon="-118.394394">
  <ele>-35.002</ele>
  <time>2026-09-01T01:13:45Z</time>
  <course>274.58</course>
  <speed>0.9202173656261873</speed>
  <fix>3d</fix>
</trkpt>
<trkpt lat="33.8097796" lon="-118.394392">
  <ele>-34.18</ele>
  <time>2026-09-01T01:13:45Z</time>
  <course>270.15</course>
  <speed>0.95</speed>
  <fix>3d</fix>
</trkpt>
<trkpt lat="33.8097797" lon="-118.394395">
  <ele>-34.986</ele>
  <time>2026-09-01T01:13:45Z</time>
  <course>274.54</course>
  <speed>0.9200543462209175</speed>
  <fix>3d</fix>
</trkpt>
<trkpt lat="33.8097796" lon="-118.3943941">
  <ele>-34.17</ele>
  <time>2026-09-01T01:13:45Z</time>
  <course>270.18</course>
  <speed>0.95</speed>
  <fix>3d</fix>
</trkpt>
<trkpt lat="33.8097797" lon="-118.3943961">
  <ele>-34.971</ele>
  <time>2026-09-01T01:13:45Z</time>
  <course>274.49</course>
  <speed>0.9202173656261873</speed>
  <fix>3d</fix>
</trkpt>
<trkpt lat="33.8097796" lon="-118.3943941">
  <ele>-34.17</ele>
  <time>2026-09-01T01:13:45Z</time>
  <course>270.18</course>
  <speed>0.95</speed>
  <fix>3d</fix>
</trkpt>
<trkpt lat="33.8097797" lon="-118.3943971">
  <ele>-34.963</ele>
  <time>2026-09-01T01:13:45Z</time>
  <course>274.45</course>
  <speed>0.9200543462209175</speed>
  <fix>3d</fix>
</trkpt>
<trkpt lat="33.8097796" lon="-118.3943961">
  <ele>-34.15</ele>
  <time>2026-09-01T01:13:45Z</time>
  <course>270.2</course>
  <speed>0.95</speed>
  <fix>3d</fix>
</trkpt>
<trkpt lat="33.8097797" lon="-118.3943982">
  <ele>-34.967</ele>
  <time>2026-09-01T01:13:45Z</time>
  <course>274.4</course>
  <speed>0.9202173656261873</speed>
  <fix>3d</fix>
</trkpt>
<trkpt lat="33.8097796" lon="-118.3943961">
  <ele>-34.15</ele>
  <time>2026-09-01T01:13:45Z</time>
  <course>270.2</course>
  <speed>0.95</speed>
  <fix>3d</fix>
</trkpt>
<trkpt lat="33.8097797" lon="-118.3943992">
  <ele>-34.977</ele>
  <time>2026-09-01T01:13:45Z</time>
  <course>274.36</course>
  <speed>0.9200543462209175</speed>
  <fix>3d</fix>
</trkpt>
<trkpt lat="33.8097796" lon="-118.3943982">
  <ele>-34.14</ele>
  <time>2026-09-01T01:13:45Z</time>
  <course>270.23</course>
  <speed>0.95</speed>
  <fix>3d</fix>
</trkpt>
<trkpt lat="33.8097797" lon="-118.3944002">
  <ele>-34.988</ele>
  <time>2026-09-01T01:13:45Z</time>
  <course>274.32</course>
  <speed>0.9202173656261873</speed>
  <fix>3d</fix>
</trkpt>
<trkpt lat="33.8097796" lon="-118.3943982">
  <ele>-34.14</ele>
  <time>2026-09-01T01:13:45Z</time>
  <course>270.23</course>
  <speed>0.95</speed>
  <fix>3d</fix>
</trkpt>
<trkpt lat="33.8097797" lon="-118.3944013">
  <ele>-35.0</ele>
  <time>2026-09-01T01:13:45Z</time>
  <course>274.28</course>
  <speed>0.9202173656261873</speed>
  <fix>3d</fix>
</trkpt>
<trkpt lat="33.8097796" lon="-118.3944003">
  <ele>-34.15</ele>
  <time>2026-09-01T01:13:45Z</time>
  <course>270.28</course>
  <speed>0.95</speed>
  <fix>3d</fix>
</trkpt>
<trkpt lat="33.8097797" lon="-118.3944023">
  <ele>-35.011</ele>
  <time>2026-09-01T01:13:45Z</time>
  <course>274.24</course>
  <speed>0.9202173656261873</speed>
  <fix>3d</fix>
</trkpt>
<trkpt lat="33.8097796" lon="-118.3944003">
  <ele>-34.15</ele>
  <time>2026-09-01T01:13:45Z</time>
  <course>270.28</course>
  <speed>0.95</speed>
  <fix>3d</fix>
</trkpt>
<trkpt lat="33.8097797" lon="-118.3944033">
  <ele>-35.02</ele>
  <time>2026-09-01T01:13:45Z</time>
  <course>274.2</course>
  <speed>0.9302150289046076</speed>
  <fix>3d</fix>
</trkpt>
<trkpt lat="33.8097796" lon="-118.3944023">
  <ele>-34.17</ele>
  <time>2026-09-01T01:13:45Z</time>
  <course>270.31</course>
  <speed>0.95</speed>
  <fix>3d</fix>
</trkpt>
<trkpt lat="33.8097797" lon="-118.3944044">
  <ele>-35.028</ele>
  <time>2026-09-01T01:13:45Z</time>
  <course>274.16</course>
  <speed>0.9302150289046076</speed>
  <fix>3d</fix>
</trkpt>
<trkpt lat="33.8097796" lon="-118.3944023">
  <ele>-34.17</ele>
  <time>2026-09-01T01:13:45Z</time>
  <course>270.31</course>
  <speed>0.95</speed>
  <fix>3d</fix>
</trkpt>
<trkpt lat="33.8097797" lon="-118.3944054">
  <ele>-35.034</ele>
  <time>2026-09-01T01:13:45Z</time>
  <course>274.12</course>
  <speed>0.9302150289046076</speed>
  <fix>3d</fix>
</trkpt>
<trkpt lat="33.8097796" lon="-118.3944044">
  <ele>-34.19</ele>
  <time>2026-09-01T01:13:45Z</time>
  <course>270.33</course>
  <speed>0.95</speed>
  <fix>3d</fix>
</trkpt>
<trkpt lat="33.8097797" lon="-118.3944065">
  <ele>-35.036</ele>
  <time>2026-09-01T01:13:45Z</time>
  <course>274.07</course>
  <speed>0.9302150289046076</speed>
  <fix>3d</fix>
</trkpt>
<trkpt lat="33.8097796" lon="-118.3944044">
  <ele>-34.19</ele>
  <time>2026-09-01T01:13:45Z</time>
  <course>270.33</course>
  <speed>0.95</speed>
  <fix>3d</fix>
</trkpt>
<trkpt lat="33.8097797" lon="-118.3944075">
  <ele>-35.037</ele>
  <time>2026-09-01T01:13:45Z</time>
  <course>274.03</course>
  <speed>0.9302150289046076</speed>
  <fix>3d</fix>
</trkpt>
<trkpt lat="33.8097796" lon="-118.3944065">
  <ele>-34.2</ele>
  <time>2026-09-01T01:13:45Z</time>
  <course>270.35</course>
  <speed>0.96</speed>
  <fix>3d</fix>
</trkpt>
<trkpt lat="33.8097797" lon="-118.3944085">
  <ele>-35.036</ele>
  <time>2026-09-01T01:13:45Z</time>
  <course>273.99</course>
  <speed>0.9302150289046076</speed>
  <fix>3d</fix>
</trkpt>
<trkpt lat="33.8097796" lon="-118.3944065">
  <ele>-34.2</ele>
  <time>2026-09-01T01:13:45Z</time>
  <course>270.35</course>
  <speed>0.96</speed>
  <fix>3d</fix>
</trkpt>
<trkpt lat="33.8097797" lon="-118.3944096">
  <ele>-35.035</ele>
  <time>2026-09-01T01:13:45Z</time>
  <course>273.95</course>
  <speed>0.9302150289046076</speed>
  <fix>3d</fix>
</trkpt>
<trkpt lat="33.8097797" lon="-118.3944086">
  <ele>-34.2</ele>
  <time>2026-09-01T01:13:45Z</time>
  <course>270.37</course>
  <speed>0.96</speed>
  <fix>3d</fix>
</trkpt>
<trkpt lat="33.8097797" lon="-118.3944106">
  <ele>-35.032</ele>
  <time>2026-09-01T01:13:45Z</time>
  <course>273.91</course>
  <speed>0.9302150289046076</speed>
  <fix>3d</fix>
</trkpt>
<trkpt lat="33.8097797" lon="-118.3944086">
  <ele>-34.2</ele>
  <time>2026-09-01T01:13:45Z</time>
  <course>270.37</course>
  <speed>0.96</speed>
  <fix>3d</fix>
</trkpt>
<trkpt lat="33.8097797" lon="-118.3944117">
  <ele>-35.028</ele>
  <time>2026-09-01T01:13:45Z</time>
  <course>273.84</course>
  <speed>0.9300537618869137</speed>
  <fix>3d</fix>
</trkpt>
<trkpt lat="33.8097797" lon="-118.3944106">
  <ele>-34.19</ele>
  <time>2026-09-01T01:13:45Z</time>
  <course>270.34</course>
  <speed>0.96</speed>
  <fix>3d</fix>
</trkpt>
<trkpt lat="33.8097797" lon="-118.3944127">
  <ele>-35.021</ele>
  <time>2026-09-01T01:13:45Z</time>
  <course>273.75</course>
  <speed>0.9300537618869137</speed>
  <fix>3d</fix>
</trkpt>
<trkpt lat="33.8097797" lon="-118.3944106">
  <ele>-34.19</ele>
  <time>2026-09-01T01:13:45Z</time>
  <course>270.34</course>
  <speed>0.96</speed>
  <fix>3d</fix>
</trkpt>
<trkpt lat="33.8097798" lon="-118.3944138">
  <ele>-35.009</ele>
  <time>2026-09-01T01:13:45Z</time>
  <course>273.66</course>
  <speed>0.9300537618869137</speed>
  <fix>3d</fix>
</trkpt>
<trkpt lat="33.8097797" lon="-118.3944127">
  <ele>-34.18</ele>
  <time>2026-09-01T01:13:45Z</time>
  <course>270.26</course>
  <speed>0.96</speed>
  <fix>3d</fix>
</trkpt>
<trkpt lat="33.8097798" lon="-118.3944148">
  <ele>-34.996</ele>
  <time>2026-09-01T01:13:45Z</time>
  <course>273.57</course>
  <speed>0.9300537618869137</speed>
  <fix>3d</fix>
</trkpt>
<trkpt lat="33.8097797" lon="-118.3944127">
  <ele>-34.18</ele>
  <time>2026-09-01T01:13:45Z</time>
  <course>270.26</course>
  <speed>0.96</speed>
  <fix>3d</fix>
</trkpt>
<trkpt lat="33.8097798" lon="-118.3944158">
  <ele>-34.983</ele>
  <time>2026-09-01T01:13:45Z</time>
  <course>273.48</course>
  <speed>0.9300537618869137</speed>
  <fix>3d</fix>
</trkpt>
<trkpt lat="33.8097797" lon="-118.3944148">
  <ele>-34.16</ele>
  <time>2026-09-01T01:13:45Z</time>
  <course>270.19</course>
  <speed>0.96</speed>
  <fix>3d</fix>
</trkpt>
<trkpt lat="33.8097798" lon="-118.3944169">
  <ele>-34.968</ele>
  <time>2026-09-01T01:13:45Z</time>
  <course>273.4</course>
  <speed>0.9300537618869137</speed>
  <fix>3d</fix>
</trkpt>
<trkpt lat="33.8097797" lon="-118.3944148">
  <ele>-34.16</ele>
  <time>2026-09-01T01:13:45Z</time>
  <course>270.19</course>
  <speed>0.96</speed>
  <fix>3d</fix>
</trkpt>
<trkpt lat="33.8097798" lon="-118.3944179">
  <ele>-34.953</ele>
  <time>2026-09-01T01:13:45Z</time>
  <course>273.33</course>
  <speed>0.9300537618869137</speed>
  <fix>3d</fix>
</trkpt>
<trkpt lat="33.8097797" lon="-118.3944169">
  <ele>-34.13</ele>
  <time>2026-09-01T01:13:45Z</time>
  <course>270.14</course>
  <speed>0.96</speed>
  <fix>3d</fix>
</trkpt>
<trkpt lat="33.8097798" lon="-118.394419">
  <ele>-34.944</ele>
  <time>2026-09-01T01:13:45Z</time>
  <course>273.26</course>
  <speed>0.9300537618869137</speed>
  <fix>3d</fix>
</trkpt>
<trkpt lat="33.8097797" lon="-118.3944169">
  <ele>-34.13</ele>
  <time>2026-09-01T01:13:45Z</time>
  <course>270.14</course>
  <speed>0.96</speed>
  <fix>3d</fix>
</trkpt>
<trkpt lat="33.8097798" lon="-118.39442">
  <ele>-34.938</ele>
  <time>2026-09-01T01:13:45Z</time>
  <course>273.2</course>
  <speed>0.9400531899844816</speed>
  <fix>3d</fix>
</trkpt>
<trkpt lat="33.8097797" lon="-118.394419">
  <ele>-34.11</ele>
  <time>2026-09-01T01:13:45Z</time>
  <course>270.12</course>
  <speed>0.96</speed>
  <fix>3d</fix>
</trkpt>
<trkpt lat="33.8097798" lon="-118.3944211">
  <ele>-34.937</ele>
  <time>2026-09-01T01:13:45Z</time>
  <course>273.14</course>
  <speed>0.9300537618869137</speed>
  <fix>3d</fix>
</trkpt>
<trkpt lat="33.8097797" lon="-118.394419">
  <ele>-34.11</ele>
  <time>2026-09-01T01:13:45Z</time>
  <course>270.12</course>
  <speed>0.96</speed>
  <fix>3d</fix>
</trkpt>
<trkpt lat="33.8097798" lon="-118.3944221">
  <ele>-34.941</ele>
  <time>2026-09-01T01:13:45Z</time>
  <course>273.1</course>
  <speed>0.9300537618869137</speed>
  <fix>3d</fix>
</trkpt>
<trkpt lat="33.8097797" lon="-118.3944211">
  <ele>-34.1</ele>
  <time>2026-09-01T01:13:45Z</time>
  <course>270.12</course>
  <speed>0.96</speed>
  <fix>3d</fix>
</trkpt>
<trkpt lat="33.8097798" lon="-118.3944232">
  <ele>-34.951</ele>
  <time>2026-09-01T01:13:45Z</time>
  <course>273.05</course>
  <speed>0.9100549433962765</speed>
  <fix>3d</fix>
</trkpt>
<trkpt lat="33.8097797" lon="-118.3944211">
  <ele>-34.1</ele>
  <time>2026-09-01T01:13:45Z</time>
  <course>270.12</course>
  <speed>0.96</speed>
  <fix>3d</fix>
</trkpt>
<trkpt lat="33.8097798" lon="-118.3944242">
  <ele>-34.961</ele>
  <time>2026-09-01T01:13:45Z</time>
  <course>273.02</course>
  <speed>0.8900561780022652</speed>
  <fix>3d</fix>
</trkpt>
<trkpt lat="33.8097797" lon="-118.3944232">
  <ele>-34.11</ele>
  <time>2026-09-01T01:13:45Z</time>
  <course>270.15</course>
  <speed>0.95</speed>
  <fix>3d</fix>
</trkpt>
<trkpt lat="33.8097798" lon="-118.3944251">
  <ele>-34.969</ele>
  <time>2026-09-01T01:13:45Z</time>
  <course>273.01</course>
  <speed>0.8500588214941364</speed>
  <fix>3d</fix>
</trkpt>
<trkpt lat="33.8097797" lon="-118.3944232">
  <ele>-34.11</ele>
  <time>2026-09-01T01:13:45Z</time>
  <course>270.15</course>
  <speed>0.95</speed>
  <fix>3d</fix>
</trkpt>
<trkpt lat="33.8097798" lon="-118.3944261">
  <ele>-34.979</ele>
  <time>2026-09-01T01:13:45Z</time>
  <course>273.03</course>
  <speed>0.8200609733428362</speed>
  <fix>3d</fix>
</trkpt>
<trkpt lat="33.8097797" lon="-118.3944252">
  <ele>-34.12</ele>
  <time>2026-09-01T01:13:45Z</time>
  <course>270.22</course>
  <speed>0.9</speed>
  <fix>3d</fix>
</trkpt>
<trkpt lat="33.8097798" lon="-118.394427">
  <ele>-34.996</ele>
  <time>2026-09-01T01:13:45Z</time>
  <course>273.08</course>
  <speed>0.7700649323271382</speed>
  <fix>3d</fix>
</trkpt>
<trkpt lat="33.8097797" lon="-118.3944252">
  <ele>-34.12</ele>
  <time>2026-09-01T01:13:45Z</time>
  <course>270.22</course>
  <speed>0.9</speed>
  <fix>3d</fix>
</trkpt>
<trkpt lat="33.8097798" lon="-118.3944278">
  <ele>-35.013</ele>
  <time>2026-09-01T01:13:45Z</time>
  <course>273.16</course>
  <speed>0.7200694410957876</speed>
  <fix>3d</fix>
</trkpt>
<trkpt lat="33.8097797" lon="-118.3944271">
  <ele>-34.15</ele>
  <time>2026-09-01T01:13:45Z</time>
  <course>270.35</course>
  <speed>0.82</speed>
  <fix>3d</fix>
</trkpt>
<trkpt lat="33.8097798" lon="-118.3944286">
  <ele>-35.027</ele>
  <time>2026-09-01T01:13:45Z</time>
  <course>273.27</course>
  <speed>0.660302960768767</speed>
  <fix>3d</fix>
</trkpt>
<trkpt lat="33.8097797" lon="-118.3944271">
  <ele>-34.15</ele>
  <time>2026-09-01T01:13:45Z</time>
  <course>270.35</course>
  <speed>0.82</speed>
  <fix>3d</fix>
</trkpt>
<trkpt lat="33.8097798" lon="-118.3944293">
  <ele>-35.039</ele>
  <time>2026-09-01T01:13:45Z</time>
  <course>273.44</course>
  <speed>0.5900847396772771</speed>
  <fix>3d</fix>
</trkpt>
<trkpt lat="33.8097797" lon="-118.3944287">
  <ele>-34.18</ele>
  <time>2026-09-01T01:13:45Z</time>
  <course>270.55</course>
  <speed>0.72</speed>
  <fix>3d</fix>
</trkpt>
<trkpt lat="33.8097798" lon="-118.39443">
  <ele>-35.049</ele>
  <time>2026-09-01T01:13:45Z</time>
  <course>273.68</course>
  <speed>0.5303772242470448</speed>
  <fix>3d</fix>
</trkpt>
<trkpt lat="33.8097797" lon="-118.3944287">
  <ele>-34.18</ele>
  <time>2026-09-01T01:13:45Z</time>
  <course>270.55</course>
  <speed>0.72</speed>
  <fix>3d</fix>
</trkpt>
<trkpt lat="33.8097798" lon="-118.3944306">
  <ele>-35.053</ele>
  <time>2026-09-01T01:13:45Z</time>
  <course>274.04</course>
  <speed>0.46010868281309364</speed>
  <fix>3d</fix>
</trkpt>
<trkpt lat="33.8097797" lon="-118.3944302">
  <ele>-34.21</ele>
  <time>2026-09-01T01:13:45Z</time>
  <course>270.85</course>
  <speed>0.6</speed>
  <fix>3d</fix>
</trkpt>
<trkpt lat="33.8097798" lon="-118.3944311">
  <ele>-35.053</ele>
  <time>2026-09-01T01:13:45Z</time>
  <course>274.52</course>
  <speed>0.4001249804748511</speed>
  <fix>3d</fix>
</trkpt>
<trkpt lat="33.8097797" lon="-118.3944302">
  <ele>-34.21</ele>
  <time>2026-09-01T01:13:45Z</time>
  <course>270.85</course>
  <speed>0.6</speed>
  <fix>3d</fix>
</trkpt>
<trkpt lat="33.8097798" lon="-118.3944315">
  <ele>-35.05</ele>
  <time>2026-09-01T01:13:45Z</time>
  <course>275.2</course>
  <speed>0.340147027033899</speed>
  <fix>3d</fix>
</trkpt>
<trkpt lat="33.8097798" lon="-118.3944314">
  <ele>-34.22</ele>
  <time>2026-09-01T01:13:45Z</time>
  <course>271.23</course>
  <speed>0.47</speed>
  <fix>3d</fix>
</trkpt>
<trkpt lat="33.8097798" lon="-118.3944319">
  <ele>-35.047</ele>
  <time>2026-09-01T01:13:45Z</time>
  <course>276.15</course>
  <speed>0.30016662039607267</speed>
  <fix>3d</fix>
</trkpt>
<trkpt lat="33.8097798" lon="-118.3944314">
  <ele>-34.22</ele>
  <time>2026-09-01T01:13:45Z</time>
  <course>271.23</course>
  <speed>0.47</speed>
  <fix>3d</fix>
</trkpt>
<trkpt lat="33.8097798" lon="-118.3944323">
  <ele>-35.038</ele>
  <time>2026-09-01T01:13:45Z</time>
  <course>277.52</course>
  <speed>0.2601922366251538</speed>
  <fix>3d</fix>
</trkpt>
<trkpt lat="33.8097798" lon="-118.3944322">
  <ele>-34.21</ele>
  <time>2026-09-01T01:13:45Z</time>
  <course>271.66</course>
  <speed>0.36</speed>
  <fix>3d</fix>
</trkpt>
<trkpt lat="33.8097798" lon="-118.3944326">
  <ele>-35.025</ele>
  <time>2026-09-01T01:13:45Z</time>
  <course>278.9</course>
  <speed>0.22022715545545238</speed>
  <fix>3d</fix>
</trkpt>
<trkpt lat="33.8097798" lon="-118.3944322">
  <ele>-34.21</ele>
  <time>2026-09-01T01:13:45Z</time>
  <course>271.66</course>
  <speed>0.36</speed>
  <fix>3d</fix>
</trkpt>
<trkpt lat="33.8097798" lon="-118.3944328">
  <ele>-35.013</ele>
  <time>2026-09-01T01:13:45Z</time>
  <course>279.22</course>
  <speed>0.18027756377319945</speed>
  <fix>3d</fix>
</trkpt>
<trkpt lat="33.8097798" lon="-118.3944329">
  <ele>-34.19</ele>
  <time>2026-09-01T01:13:45Z</time>
  <course>272.06</course>
  <speed>0.27</speed>
  <fix>3d</fix>
</trkpt>
<trkpt lat="33.8097799" lon="-118.3944331">
  <ele>-34.999</ele>
  <time>2026-09-01T01:13:45Z</time>
  <course>278.55</course>
  <speed>0.15033296378372907</speed>
  <fix>3d</fix>
</trkpt>
<trkpt lat="33.8097798" lon="-118.3944329">
  <ele>-34.19</ele>
  <time>2026-09-01T01:13:45Z</time>
  <course>272.06</course>
  <speed>0.27</speed>
  <fix>3d</fix>
</trkpt>
<trkpt lat="33.8097799" lon="-118.3944332">
  <ele>-34.986</ele>
  <time>2026-09-01T01:13:45Z</time>
  <course>278.84</course>
  <speed>0.11045361017187261</speed>
  <fix>3d</fix>
</trkpt>
<trkpt lat="33.8097798" lon="-118.3944334">
  <ele>-34.17</ele>
  <time>2026-09-01T01:13:45Z</time>
  <course>272.93</course>
  <speed>0.2</speed>
  <fix>3d</fix>
</trkpt>
<trkpt lat="33.8097799" lon="-118.3944334">
  <ele>-34.977</ele>
  <time>2026-09-01T01:13:45Z</time>
  <course>280.95</course>
  <speed>0.08062257748298549</speed>
  <fix>3d</fix>
</trkpt>
<trkpt lat="33.8097798" lon="-118.3944334">
  <ele>-34.17</ele>
  <time>2026-09-01T01:13:45Z</time>
  <course>272.93</course>
  <speed>0.2</speed>
  <fix>3d</fix>
</trkpt>
<trkpt lat="33.8097799" lon="-118.3944335">
  <ele>-34.975</ele>
  <time>2026-09-01T01:13:45Z</time>
  <course>283.95</course>
  <speed>0.05099019513592785</speed>
  <fix>3d</fix>
</trkpt>
<trkpt lat="33.8097798" lon="-118.3944338">
  <ele>-34.15</ele>
  <time>2026-09-01T01:13:45Z</time>
  <course>275.09</course>
  <speed>0.12</speed>
  <fix>3d</fix>
</trkpt>
<trkpt lat="33.8097799" lon="-118.3944336">
  <ele>-34.978</ele>
  <time>2026-09-01T01:13:45Z</time>
  <course>287.38</course>
  <speed>0.0316227766016838</speed>
  <fix>3d</fix>
</trkpt>
<trkpt lat="33.8097798" lon="-118.3944338">
  <ele>-34.15</ele>
  <time>2026-09-01T01:13:45Z</time>
  <course>275.09</course>
  <speed>0.12</speed>
  <fix>3d</fix>
</trkpt>
<trkpt lat="33.8097799" lon="-118.3944337">
  <ele>-34.984</ele>
  <time>2026-09-01T01:13:45Z</time>
  <course>290.57</course>
  <speed>0.022360679774997897</speed>
  <fix>3d</fix>
</trkpt>
<trkpt lat="33.8097798" lon="-118.394434">
  <ele>-34.14</ele>
  <time>2026-09-01T01:13:45Z</time>
  <course>279.04</course>
  <speed>0.07</speed>
  <fix>3d</fix>
</trkpt>
<trkpt lat="33.8097799" lon="-118.3944337">
  <ele>-34.988</ele>
  <time>2026-09-01T01:13:45Z</time>
  <course>292.38</course>
  <speed>0.01414213562373095</speed>
  <fix>3d</fix>
</trkpt>
<trkpt lat="33.8097798" lon="-118.394434">
  <ele>-34.14</ele>
  <time>2026-09-01T01:13:45Z</time>
  <course>279.04</course>
  <speed>0.07</speed>
  <fix>3d</fix>
</trkpt>
<trkpt lat="33.8097799" lon="-118.3944338">
  <ele>-34.993</ele>
  <time>2026-09-01T01:13:45Z</time>
  <course>293.03</course>
  <speed>0.0</speed>
  <fix>3d</fix>
</trkpt>
<trkpt lat="33.8097798" lon="-118.3944341">
  <ele>-34.15</ele>
  <time>2026-09-01T01:13:45Z</time>
  <course>279.32</course>
  <speed>0.03</speed>
  <fix>3d</fix>
</trkpt>
<trkpt lat="33.8097799" lon="-118.3944338">
  <ele>-34.998</ele>
  <time>2026-09-01T01:13:45Z</time>
  <course>291.9</course>
  <speed>0.0316227766016838</speed>
  <fix>3d</fix>
</trkpt>
<trkpt lat="33.8097798" lon="-118.3944341">
  <ele>-34.15</ele>
  <time>2026-09-01T01:13:45Z</time>
  <course>279.32</course>
  <speed>0.03</speed>
  <fix>3d</fix>
</trkpt>
<trkpt lat="33.8097799" lon="-118.3944338">
  <ele>-35.004</ele>
  <time>2026-09-01T01:13:45Z</time>
  <course>289.34</course>
  <speed>0.07280109889280519</speed>
  <fix>3d</fix>
</trkpt>
<trkpt lat="33.8097798" lon="-118.3944342">
  <ele>-34.16</ele>
  <time>2026-09-01T01:13:45Z</time>
  <course>206.76</course>
  <speed>0.02</speed>
  <fix>3d</fix>
</trkpt>
<trkpt lat="33.8097798" lon="-118.3944338">
  <ele>-35.009</ele>
  <time>2026-09-01T01:13:45Z</time>
  <course>286.18</course>
  <speed>0.12369316876852982</speed>
  <fix>3d</fix>
</trkpt>
<trkpt lat="33.8097798" lon="-118.3944342">
  <ele>-34.16</ele>
  <time>2026-09-01T01:13:45Z</time>
  <course>206.76</course>
  <speed>0.02</speed>
  <fix>3d</fix>
</trkpt>
<trkpt lat="33.8097797" lon="-118.3944338">
  <ele>-35.015</ele>
  <time>2026-09-01T01:13:45Z</time>
  <course>282.69</course>
  <speed>0.17464249196572978</speed>
  <fix>3d</fix>
</trkpt>
<trkpt lat="33.8097798" lon="-118.3944342">
  <ele>-34.16</ele>
  <time>2026-09-01T01:13:45Z</time>
  <course>171.46</course>
  <speed>0.1</speed>
  <fix>3d</fix>
</trkpt>
<trkpt lat="33.8097795" lon="-118.3944338">
  <ele>-35.02</ele>
  <time>2026-09-01T01:13:45Z</time>
  <course>278.91</course>
  <speed>0.23345235059857505</speed>
  <fix>3d</fix>
</trkpt>
<trkpt lat="33.8097798" lon="-118.3944342">
  <ele>-34.16</ele>
  <time>2026-09-01T01:13:45Z</time>
  <course>171.46</course>
  <speed>0.1</speed>
  <fix>3d</fix>
</trkpt>
<trkpt lat="33.8097792" lon="-118.3944338">
  <ele>-35.023</ele>
  <time>2026-09-01T01:13:45Z</time>
  <course>274.84</course>
  <speed>0.29274562336608895</speed>
  <fix>3d</fix>
</trkpt>
<trkpt lat="33.8097796" lon="-118.3944341">
  <ele>-34.17</ele>
  <time>2026-09-01T01:13:45Z</time>
  <course>171.0</course>
  <speed>0.2</speed>
  <fix>3d</fix>
</trkpt>
<trkpt lat="33.809779" lon="-118.3944338">
  <ele>-35.022</ele>
  <time>2026-09-01T01:13:45Z</time>
  <course>270.53</course>
  <speed>0.3622154055254967</speed>
  <fix>3d</fix>
</trkpt>
<trkpt lat="33.8097796" lon="-118.3944341">
  <ele>-34.17</ele>
  <time>2026-09-01T01:13:45Z</time>
  <course>171.0</course>
  <speed>0.2</speed>
  <fix>3d</fix>
</trkpt>
<trkpt lat="33.8097786" lon="-118.3944338">
  <ele>-35.015</ele>
  <time>2026-09-01T01:13:45Z</time>
  <course>265.91</course>
  <speed>0.4219004621945798</speed>
  <fix>3d</fix>
</trkpt>
<trkpt lat="33.8097791" lon="-118.3944341">
  <ele>-34.17</ele>
  <time>2026-09-01T01:13:45Z</time>
  <course>173.24</course>
  <speed>0.33</speed>
  <fix>3d</fix>
</trkpt>
<trkpt lat="33.8097782" lon="-118.3944338">
  <ele>-35.002</ele>
  <time>2026-09-01T01:13:45Z</time>
  <course>261.01</course>
  <speed>0.4909175083453431</speed>
  <fix>3d</fix>
</trkpt>
<trkpt lat="33.8097791" lon="-118.3944341">
  <ele>-34.17</ele>
  <time>2026-09-01T01:13:45Z</time>
  <course>173.24</course>
  <speed>0.33</speed>
  <fix>3d</fix>
</trkpt>
<trkpt lat="33.8097777" lon="-118.3944338">
  <ele>-34.987</ele>
  <time>2026-09-01T01:13:45Z</time>
  <course>255.79</course>
  <speed>0.5503635162326805</speed>
  <fix>3d</fix>
</trkpt>
<trkpt lat="33.8097784" lon="-118.394434">
  <ele>-34.16</ele>
  <time>2026-09-01T01:13:45Z</time>
  <course>175.75</course>
  <speed>0.46</speed>
  <fix>3d</fix>
</trkpt>
<trkpt lat="33.8097772" lon="-118.3944338">
  <ele>-34.974</ele>
  <time>2026-09-01T01:13:45Z</time>
  <course>250.29</course>
  <speed>0.6100819617067857</speed>
  <fix>3d</fix>
</trkpt>
<trkpt lat="33.8097784" lon="-118.394434">
  <ele>-34.16</ele>
  <time>2026-09-01T01:13:45Z</time>
  <course>175.75</course>
  <speed>0.46</speed>
  <fix>3d</fix>
</trkpt>
<trkpt lat="33.8097767" lon="-118.3944338">
  <ele>-34.962</ele>
  <time>2026-09-01T01:13:45Z</time>
  <course>245.13</course>
  <speed>0.5900847396772771</speed>
  <fix>3d</fix>
</trkpt>
<trkpt lat="33.8097774" lon="-118.394434">
  <ele>-34.13</ele>
  <time>2026-09-01T01:13:45Z</time>
  <course>178.08</course>
  <speed>0.59</speed>
  <fix>3d</fix>
</trkpt>
<trkpt lat="33.8097761" lon="-118.3944338">
  <ele>-34.948</ele>
  <time>2026-09-01T01:13:45Z</time>
  <course>239.69</course>
  <speed>0.6500769185258002</speed>
  <fix>3d</fix>
</trkpt>
<trkpt lat="33.8097774" lon="-118.394434">
  <ele>-34.13</ele>
  <time>2026-09-01T01:13:45Z</time>
  <course>178.08</course>
  <speed>0.59</speed>
  <fix>3d</fix>
</trkpt>
<trkpt lat="33.8097755" lon="-118.3944338">
  <ele>-34.933</ele>
  <time>2026-09-01T01:13:45Z</time>
  <course>234.07</course>
  <speed>0.7100704190430693</speed>
  <fix>3d</fix>
</trkpt>
<trkpt lat="33.8097762" lon="-118.394434">
  <ele>-34.11</ele>
  <time>2026-09-01T01:13:45Z</time>
  <course>179.24</course>
  <speed>0.67</speed>
  <fix>3d</fix>
</trkpt>
<trkpt lat="33.8097749" lon="-118.3944338">
  <ele>-34.923</ele>
  <time>2026-09-01T01:13:45Z</time>
  <course>228.43</course>
  <speed>0.7502666192761077</speed>
  <fix>3d</fix>
</trkpt>
<trkpt lat="33.8097762" lon="-118.394434">
  <ele>-34.11</ele>
  <time>2026-09-01T01:13:45Z</time>
  <course>179.24</course>
  <speed>0.67</speed>
  <fix>3d</fix>
</trkpt>
<trkpt lat="33.8097742" lon="-118.3944338">
  <ele>-34.919</ele>
  <time>2026-09-01T01:13:45Z</time>
  <course>222.77</course>
  <speed>0.7902531240052139</speed>
  <fix>3d</fix>
</trkpt>
<trkpt lat="33.809775" lon="-118.3944339">
  <ele>-34.09</ele>
  <time>2026-09-01T01:13:45Z</time>
  <course>179.07</course>
  <speed>0.74</speed>
  <fix>3d</fix>
</trkpt>
<trkpt lat="33.8097734" lon="-118.3944338">
  <ele>-34.925</ele>
  <time>2026-09-01T01:13:45Z</time>
  <course>217.09</course>
  <speed>0.8209750300709517</speed>
  <fix>3d</fix>
</trkpt>
<trkpt lat="33.809775" lon="-118.3944339">
  <ele>-34.09</ele>
  <time>2026-09-01T01:13:45Z</time>
  <course>179.07</course>
  <speed>0.74</speed>
  <fix>3d</fix>
</trkpt>
<trkpt lat="33.8097727" lon="-118.3944337">
  <ele>-34.938</ele>
  <time>2026-09-01T01:13:45Z</time>
  <course>211.36</course>
  <speed>0.841486779456457</speed>
  <fix>3d</fix>
</trkpt>
<trkpt lat="33.8097736" lon="-118.3944339">
  <ele>-34.09</ele>
  <time>2026-09-01T01:13:45Z</time>
  <course>178.12</course>
  <speed>0.82</speed>
  <fix>3d</fix>
</trkpt>
<trkpt lat="33.8097719" lon="-118.3944337">
  <ele>-34.958</ele>
  <time>2026-09-01T01:13:45Z</time>
  <course>205.55</course>
  <speed>0.8421401308570919</speed>
  <fix>3d</fix>
</trkpt>
<trkpt lat="33.8097736" lon="-118.3944339">
  <ele>-34.09</ele>
  <time>2026-09-01T01:13:45Z</time>
  <course>178.12</course>
  <speed>0.82</speed>
  <fix>3d</fix>
</trkpt>
<trkpt lat="33.8097712" lon="-118.3944336">
  <ele>-34.98</ele>
  <time>2026-09-01T01:13:45Z</time>
  <course>199.61</course>
  <speed>0.8421401308570919</speed>
  <fix>3d</fix>
</trkpt>
<trkpt lat="33.8097721" lon="-118.3944338">
  <ele>-34.12</ele>
  <time>2026-09-01T01:13:45Z</time>
  <course>176.95</course>
  <speed>0.86</speed>
  <fix>3d</fix>
</trkpt>
<trkpt lat="33.8097704" lon="-118.3944336">
  <ele>-35.001</ele>
  <time>2026-09-01T01:13:45Z</time>
  <course>193.57</course>
  <speed>0.8329465769183519</speed>
  <fix>3d</fix>
</trkpt>
<trkpt lat="33.8097721" lon="-118.3944338">
  <ele>-34.12</ele>
  <time>2026-09-01T01:13:45Z</time>
  <course>176.95</course>
  <speed>0.86</speed>
  <fix>3d</fix>
</trkpt>
<trkpt lat="33.8097697" lon="-118.3944335">
  <ele>-35.023</ele>
  <time>2026-09-01T01:13:45Z</time>
  <course>187.75</course>
  <speed>0.812219182240853</speed>
  <fix>3d</fix>
</trkpt>
<trkpt lat="33.8097705" lon="-118.3944337">
  <ele>-34.16</ele>
  <time>2026-09-01T01:13:45Z</time>
  <course>176.24</course>
  <speed>0.87</speed>
  <fix>3d</fix>
</trkpt>
<trkpt lat="33.8097689" lon="-118.3944335">
  <ele>-35.046</ele>
  <time>2026-09-01T01:13:45Z</time>
  <course>182.57</course>
  <speed>0.8015609770940699</speed>
  <fix>3d</fix>
</trkpt>
<trkpt lat="33.8097705" lon="-118.3944337">
  <ele>-34.16</ele>
  <time>2026-09-01T01:13:45Z</time>
  <course>176.24</course>
  <speed>0.87</speed>
  <fix>3d</fix>
</trkpt>
<trkpt lat="33.8097682" lon="-118.3944334">
  <ele>-35.069</ele>
  <time>2026-09-01T01:13:45Z</time>
  <course>178.04</course>
  <speed>0.8005623023850174</speed>
  <fix>3d</fix>
</trkpt>
<trkpt lat="33.809769" lon="-118.3944336">
  <ele>-34.2</ele>
  <time>2026-09-01T01:13:45Z</time>
  <course>176.95</course>
  <speed>0.85</speed>
  <fix>3d</fix>
</trkpt>
<trkpt lat="33.8097674" lon="-118.3944334">
  <ele>-35.089</ele>
  <time>2026-09-01T01:13:45Z</time>
  <course>174.12</course>
  <speed>0.8100617260431454</speed>
  <fix>3d</fix>
</trkpt>
<trkpt lat="33.809769" lon="-118.3944336">
  <ele>-34.2</ele>
  <time>2026-09-01T01:13:45Z</time>
  <course>176.95</course>
  <speed>0.85</speed>
  <fix>3d</fix>
</trkpt>
<trkpt lat="33.8097667" lon="-118.3944334">
  <ele>-35.105</ele>
  <time>2026-09-01T01:13:45Z</time>
  <course>170.75</course>
  <speed>0.81</speed>
  <fix>3d</fix>
</trkpt>
<trkpt lat="33.8097674" lon="-118.3944335">
  <ele>-34.23</ele>
  <time>2026-09-01T01:13:45Z</time>
  <course>179.25</course>
  <speed>0.84</speed>
  <fix>3d</fix>
</trkpt>
<trkpt lat="33.8097659" lon="-118.3944334">
  <ele>-35.11</ele>
  <time>2026-09-01T01:13:45Z</time>
  <course>167.92</course>
  <speed>0.8200609733428362</speed>
  <fix>3d</fix>
</trkpt>
<trkpt lat="33.8097674" lon="-118.3944335">
  <ele>-34.23</ele>
  <time>2026-09-01T01:13:45Z</time>
  <course>179.25</course>
  <speed>0.84</speed>
  <fix>3d</fix>
</trkpt>
<trkpt lat="33.8097652" lon="-118.3944334">
  <ele>-35.111</ele>
  <time>2026-09-01T01:13:45Z</time>
  <course>165.81</course>
  <speed>0.8300602387778854</speed>
  <fix>3d</fix>
</trkpt>
<trkpt lat="33.8097659" lon="-118.3944335">
  <ele>-34.26</ele>
  <time>2026-09-01T01:13:45Z</time>
  <course>181.45</course>
  <speed>0.85</speed>
  <fix>3d</fix>
</trkpt>
<trkpt lat="33.8097644" lon="-118.3944334">
  <ele>-35.109</ele>
  <time>2026-09-01T01:13:45Z</time>
  <course>164.4</course>
  <speed>0.8300602387778854</speed>
  <fix>3d</fix>
</trkpt>
<trkpt lat="33.8097659" lon="-118.3944335">
  <ele>-34.26</ele>
  <time>2026-09-01T01:13:45Z</time>
  <course>181.45</course>
  <speed>0.85</speed>
  <fix>3d</fix>
</trkpt>
<trkpt lat="33.8097636" lon="-118.3944334">
  <ele>-35.101</ele>
  <time>2026-09-01T01:13:45Z</time>
  <course>163.48</course>
  <speed>0.8300602387778854</speed>
  <fix>3d</fix>
</trkpt>
<trkpt lat="33.8097644" lon="-118.3944336">
  <ele>-34.26</ele>
  <time>2026-09-01T01:13:45Z</time>
  <course>182.42</course>
  <speed>0.86</speed>
  <fix>3d</fix>
</trkpt>
<trkpt lat="33.8097628" lon="-118.3944335">
  <ele>-35.085</ele>
  <time>2026-09-01T01:13:45Z</time>
  <course>162.85</course>
  <speed>0.8300602387778854</speed>
  <fix>3d</fix>
</trkpt>
<trkpt lat="33.8097644" lon="-118.3944336">
  <ele>-34.26</ele>
  <time>2026-09-01T01:13:45Z</time>
  <course>182.42</course>
  <speed>0.86</speed>
  <fix>3d</fix>
</trkpt>
<trkpt lat="33.8097621" lon="-118.3944335">
  <ele>-35.065</ele>
  <time>2026-09-01T01:13:45Z</time>
  <course>162.36</course>
  <speed>0.83</speed>
  <fix>3d</fix>
</trkpt>
<trkpt lat="33.8097628" lon="-118.3944336">
  <ele>-34.24</ele>
  <time>2026-09-01T01:13:45Z</time>
  <course>182.45</course>
  <speed>0.87</speed>
  <fix>3d</fix>
</trkpt>
<trkpt lat="33.8097613" lon="-118.3944335">
  <ele>-35.042</ele>
  <time>2026-09-01T01:13:45Z</time>
  <course>161.97</course>
  <speed>0.83</speed>
  <fix>3d</fix>
</trkpt>
<trkpt lat="33.8097628" lon="-118.3944336">
  <ele>-34.24</ele>
  <time>2026-09-01T01:13:45Z</time>
  <course>182.45</course>
  <speed>0.87</speed>
  <fix>3d</fix>
</trkpt>
<trkpt lat="33.8097605" lon="-118.3944335">
  <ele>-35.018</ele>
  <time>2026-09-01T01:13:45Z</time>
  <course>161.62</course>
  <speed>0.83</speed>
  <fix>3d</fix>
</trkpt>
<trkpt lat="33.8097612" lon="-118.3944336">
  <ele>-34.21</ele>
  <time>2026-09-01T01:13:45Z</time>
  <course>182.05</course>
  <speed>0.87</speed>
  <fix>3d</fix>
</trkpt>
<trkpt lat="33.8097597" lon="-118.3944335">
  <ele>-34.994</ele>
  <time>2026-09-01T01:13:45Z</time>
  <course>161.32</course>
  <speed>0.83</speed>
  <fix>3d</fix>
</trkpt>
<trkpt lat="33.8097612" lon="-118.3944336">
  <ele>-34.21</ele>
  <time>2026-09-01T01:13:45Z</time>
  <course>182.05</course>
  <speed>0.87</speed>
  <fix>3d</fix>
</trkpt>
<trkpt lat="33.809759" lon="-118.3944335">
  <ele>-34.973</ele>
  <time>2026-09-01T01:13:45Z</time>
  <course>161.05</course>
  <speed>0.82</speed>
  <fix>3d</fix>
</trkpt>
<trkpt lat="33.8097597" lon="-118.3944337">
  <ele>-34.17</ele>
  <time>2026-09-01T01:13:45Z</time>
  <course>181.59</course>
  <speed>0.86</speed>
  <fix>3d</fix>
</trkpt>
<trkpt lat="33.8097582" lon="-118.3944335">
  <ele>-34.952</ele>
  <time>2026-09-01T01:13:45Z</time>
  <course>160.83</course>
  <speed>0.8200609733428362</speed>
  <fix>3d</fix>
</trkpt>
<trkpt lat="33.8097597" lon="-118.3944337">
  <ele>-34.17</ele>
  <time>2026-09-01T01:13:45Z</time>
  <course>181.59</course>
  <speed>0.86</speed>
  <fix>3d</fix>
</trkpt>
<trkpt lat="33.8097574" lon="-118.3944335">
  <ele>-34.932</ele>
  <time>2026-09-01T01:13:45Z</time>
  <course>160.62</course>
  <speed>0.8100617260431454</speed>
  <fix>3d</fix>
</trkpt>
<trkpt lat="33.8097581" lon="-118.3944338">
  <ele>-34.13</ele>
  <time>2026-09-01T01:13:45Z</time>
  <course>181.2</course>
  <speed>0.85</speed>
  <fix>3d</fix>
</trkpt>
<trkpt lat="33.8097567" lon="-118.3944335">
  <ele>-34.913</ele>
  <time>2026-09-01T01:13:45Z</time>
  <course>160.44</course>
  <speed>0.8100617260431454</speed>
  <fix>3d</fix>
</trkpt>
<trkpt lat="33.8097581" lon="-118.3944338">
  <ele>-34.13</ele>
  <time>2026-09-01T01:13:45Z</time>
  <course>181.2</course>
  <speed>0.85</speed>
  <fix>3d</fix>
</trkpt>
<trkpt lat="33.8097559" lon="-118.3944335">
  <ele>-34.896</ele>
  <time>2026-09-01T01:13:45Z</time>
  <course>160.26</course>
  <speed>0.8002499609497022</speed>
  <fix>3d</fix>
</trkpt>
<trkpt lat="33.8097566" lon="-118.3944338">
  <ele>-34.09</ele>
  <time>2026-09-01T01:13:45Z</time>
  <course>180.79</course>
  <speed>0.84</speed>
  <fix>3d</fix>
</trkpt>
<trkpt lat="33.8097552" lon="-118.3944335">
  <ele>-34.887</ele>
  <time>2026-09-01T01:13:45Z</time>
  <course>160.1</course>
  <speed>0.8002499609497022</speed>
  <fix>3d</fix>
</trkpt>
<trkpt lat="33.8097566" lon="-118.3944338">
  <ele>-34.09</ele>
  <time>2026-09-01T01:13:45Z</time>
  <course>180.79</course>
  <speed>0.84</speed>
  <fix>3d</fix>
</trkpt>
<trkpt lat="33.8097544" lon="-118.3944335">
  <ele>-34.885</ele>
  <time>2026-09-01T01:13:45Z</time>
  <course>159.94</course>
  <speed>0.8002499609497022</speed>
  <fix>3d</fix>
</trkpt>
<trkpt lat="33.809755" lon="-118.3944338">
  <ele>-34.07</ele>
  <time>2026-09-01T01:13:45Z</time>
  <course>180.37</course>
  <speed>0.83</speed>
  <fix>3d</fix>
</trkpt>
<trkpt lat="33.8097537" lon="-118.3944335">
  <ele>-34.886</ele>
  <time>2026-09-01T01:13:45Z</time>
  <course>159.82</course>
  <speed>0.7902531240052139</speed>
  <fix>3d</fix>
</trkpt>
<trkpt lat="33.809755" lon="-118.3944338">
  <ele>-34.07</ele>
  <time>2026-09-01T01:13:45Z</time>
  <course>180.37</course>
  <speed>0.83</speed>
  <fix>3d</fix>
</trkpt>
<trkpt lat="33.8097529" lon="-118.3944335">
  <ele>-34.893</ele>
  <time>2026-09-01T01:13:45Z</time>
  <course>159.71</course>
  <speed>0.7902531240052139</speed>
  <fix>3d</fix>
</trkpt>
<trkpt lat="33.8097535" lon="-118.3944338">
  <ele>-34.06</ele>
  <time>2026-09-01T01:13:45Z</time>
  <course>179.99</course>
  <speed>0.82</speed>
  <fix>3d</fix>
</trkpt>
<trkpt lat="33.8097522" lon="-118.3944335">
  <ele>-34.906</ele>
  <time>2026-09-01T01:13:45Z</time>
  <course>159.63</course>
  <speed>0.7805767098754611</speed>
  <fix>3d</fix>
</trkpt>
<trkpt lat="33.8097535" lon="-118.3944338">
  <ele>-34.06</ele>
  <time>2026-09-01T01:13:45Z</time>
  <course>179.99</course>
  <speed>0.82</speed>
  <fix>3d</fix>
</trkpt>
<trkpt lat="33.8097514" lon="-118.3944335">
  <ele>-34.923</ele>
  <time>2026-09-01T01:13:45Z</time>
  <course>159.56</course>
  <speed>0.7805767098754611</speed>
  <fix>3d</fix>
</trkpt>
<trkpt lat="33.8097521" lon="-118.3944338">
  <ele>-34.08</ele>
  <time>2026-09-01T01:13:45Z</time>
  <course>179.67</course>
  <speed>0.81</speed>
  <fix>3d</fix>
</trkpt>
<trkpt lat="33.8097507" lon="-118.3944335">
  <ele>-34.944</ele>
  <time>2026-09-01T01:13:45Z</time>
  <course>159.53</course>
  <speed>0.7805767098754611</speed>
  <fix>3d</fix>
</trkpt>
<trkpt lat="33.8097521" lon="-118.3944338">
  <ele>-34.08</ele>
  <time>2026-09-01T01:13:45Z</time>
  <course>179.67</course>
  <speed>0.81</speed>
  <fix>3d</fix>
</trkpt>
<trkpt lat="33.80975" lon="-118.3944335">
  <ele>-34.969</ele>
  <time>2026-09-01T01:13:45Z</time>
  <course>159.51</course>
  <speed>0.7805767098754611</speed>
  <fix>3d</fix>
</trkpt>
<trkpt lat="33.8097506" lon="-118.3944338">
  <ele>-34.11</ele>
  <time>2026-09-01T01:13:45Z</time>
  <course>179.38</course>
  <speed>0.81</speed>
  <fix>3d</fix>
</trkpt>
<trkpt lat="33.8097492" lon="-118.3944335">
  <ele>-34.995</ele>
  <time>2026-09-01T01:13:46Z</time>
  <course>159.52</course>
  <speed>0.7805767098754611</speed>
  <fix>3d</fix>
</trkpt>
<trkpt lat="33.8097506" lon="-118.3944338">
  <ele>-34.11</ele>
  <time>2026-09-01T01:13:46Z</time>
  <course>179.38</course>
  <speed>0.81</speed>
  <fix>3d</fix>
</trkpt>
<trkpt lat="33.8097485" lon="-118.3944335">
  <ele>-35.02</ele>
  <time>2026-09-01T01:13:46Z</time>
  <course>159.54</course>
  <speed>0.7805767098754611</speed>
  <fix>3d</fix>
</trkpt>
<trkpt lat="33.8097492" lon="-118.3944338">
  <ele>-34.15</ele>
  <time>2026-09-01T01:13:46Z</time>
  <course>179.11</course>
  <speed>0.8</speed>
  <fix>3d</fix>
</trkpt>
<trkpt lat="33.8097478" lon="-118.3944335">
  <ele>-35.044</ele>
  <time>2026-09-01T01:13:46Z</time>
  <course>159.59</course>
  <speed>0.7705841939723393</speed>
  <fix>3d</fix>
</trkpt>
<trkpt lat="33.8097492" lon="-118.3944338">
  <ele>-34.15</ele>
  <time>2026-09-01T01:13:46Z</time>
  <course>179.11</course>
  <speed>0.8</speed>
  <fix>3d</fix>
</trkpt>
<trkpt lat="33.8097471" lon="-118.3944335">
  <ele>-35.066</ele>
  <time>2026-09-01T01:13:46Z</time>
  <course>159.65</course>
  <speed>0.7705841939723393</speed>
  <fix>3d</fix>
</trkpt>
<trkpt lat="33.8097477" lon="-118.3944338">
  <ele>-34.2</ele>
  <time>2026-09-01T01:13:46Z</time>
  <course>178.85</course>
  <speed>0.8</speed>
  <fix>3d</fix>
</trkpt>
<trkpt lat="33.8097463" lon="-118.3944335">
  <ele>-35.086</ele>
  <time>2026-09-01T01:13:46Z</time>
  <course>159.72</course>
  <speed>0.7705841939723393</speed>
  <fix>3d</fix>
</trkpt>
<trkpt lat="33.8097477" lon="-118.3944338">
  <ele>-34.2</ele>
  <time>2026-09-01T01:13:46Z</time>
  <course>178.85</course>
  <speed>0.8</speed>
  <fix>3d</fix>
</trkpt>
<trkpt lat="33.8097456" lon="-118.3944335">
  <ele>-35.098</ele>
  <time>2026-09-01T01:13:46Z</time>
  <course>159.8</course>
  <speed>0.7705841939723393</speed>
  <fix>3d</fix>
</trkpt>
<trkpt lat="33.8097463" lon="-118.3944338">
  <ele>-34.23</ele>
  <time>2026-09-01T01:13:46Z</time>
  <course>178.59</course>
  <speed>0.79</speed>
  <fix>3d</fix>
</trkpt>
<trkpt lat="33.8097449" lon="-118.3944335">
  <ele>-35.101</ele>
  <time>2026-09-01T01:13:46Z</time>
  <course>159.89</course>
  <speed>0.7705841939723393</speed>
  <fix>3d</fix>
</trkpt>
<trkpt lat="33.8097463" lon="-118.3944338">
  <ele>-34.23</ele>
  <time>2026-09-01T01:13:46Z</time>
  <course>178.59</course>
  <speed>0.79</speed>
  <fix>3d</fix>
</trkpt>
<trkpt lat="33.8097442" lon="-118.3944335">
  <ele>-35.102</ele>
  <time>2026-09-01T01:13:46Z</time>
  <course>159.98</course>
  <speed>0.7705841939723393</speed>
  <fix>3d</fix>
</trkpt>
<trkpt lat="33.8097449" lon="-118.3944338">
  <ele>-34.25</ele>
  <time>2026-09-01T01:13:46Z</time>
  <course>178.34</course>
  <speed>0.79</speed>
  <fix>3d</fix>
</trkpt>
<trkpt lat="33.8097434" lon="-118.3944335">
  <ele>-35.101</ele>
  <time>2026-09-01T01:13:46Z</time>
  <course>160.09</course>
  <speed>0.7705841939723393</speed>
  <fix>3d</fix>
</trkpt>
<trkpt lat="33.8097449" lon="-118.3944338">
  <ele>-34.25</ele>
  <time>2026-09-01T01:13:46Z</time>
  <course>178.34</course>
  <speed>0.79</speed>
  <fix>3d</fix>
</trkpt>
<trkpt lat="33.8097427" lon="-118.3944335">
  <ele>-35.096</ele>
  <time>2026-09-01T01:13:46Z</time>
  <course>160.2</course>
  <speed>0.7705841939723393</speed>
  <fix>3d</fix>
</trkpt>
<trkpt lat="33.8097434" lon="-118.3944337">
  <ele>-34.26</ele>
  <time>2026-09-01T01:13:46Z</time>
  <course>178.06</course>
  <speed>0.79</speed>
  <fix>3d</fix>
</trkpt>
<trkpt lat="33.809742" lon="-118.3944335">
  <ele>-35.088</ele>
  <time>2026-09-01T01:13:46Z</time>
  <course>160.32</course>
  <speed>0.7705841939723393</speed>
  <fix>3d</fix>
</trkpt>
<trkpt lat="33.8097434" lon="-118.3944337">
  <ele>-34.26</ele>
  <time>2026-09-01T01:13:46Z</time>
  <course>178.06</course>
  <speed>0.79</speed>
  <fix>3d</fix>
</trkpt>
<trkpt lat="33.8097413" lon="-118.3944335">
  <ele>-35.079</ele>
  <time>2026-09-01T01:13:46Z</time>
  <course>160.46</course>
  <speed>0.7705841939723393</speed>
  <fix>3d</fix>
</trkpt>
<trkpt lat="33.809742" lon="-118.3944336">
  <ele>-34.25</ele>
  <time>2026-09-01T01:13:46Z</time>
  <course>177.81</course>
  <speed>0.79</speed>
  <fix>3d</fix>
</trkpt>
<trkpt lat="33.8097406" lon="-118.3944334">
  <ele>-35.067</ele>
  <time>2026-09-01T01:13:46Z</time>
  <course>160.63</course>
  <speed>0.7705841939723393</speed>
  <fix>3d</fix>
</trkpt>
<trkpt lat="33.809742" lon="-118.3944336">
  <ele>-34.25</ele>
  <time>2026-09-01T01:13:46Z</time>
  <course>177.81</course>
  <speed>0.79</speed>
  <fix>3d</fix>
</trkpt>
<trkpt lat="33.8097399" lon="-118.3944334">
  <ele>-35.053</ele>
  <time>2026-09-01T01:13:46Z</time>
  <course>160.81</course>
  <speed>0.7805767098754611</speed>
  <fix>3d</fix>
</trkpt>
<trkpt lat="33.8097406" lon="-118.3944336">
  <ele>-34.23</ele>
  <time>2026-09-01T01:13:46Z</time>
  <course>177.67</course>
  <speed>0.79</speed>
  <fix>3d</fix>
</trkpt>
<trkpt lat="33.8097391" lon="-118.3944334">
  <ele>-35.038</ele>
  <time>2026-09-01T01:13:46Z</time>
  <course>161.03</course>
  <speed>0.7805767098754611</speed>
  <fix>3d</fix>
</trkpt>
<trkpt lat="33.8097406" lon="-118.3944336">
  <ele>-34.23</ele>
  <time>2026-09-01T01:13:46Z</time>
  <course>177.67</course>
  <speed>0.79</speed>
  <fix>3d</fix>
</trkpt>
<trkpt lat="33.8097384" lon="-118.3944334">
  <ele>-35.025</ele>
  <time>2026-09-01T01:13:46Z</time>
  <course>161.21</course>
  <speed>0.7106335201775947</speed>
  <fix>3d</fix>
</trkpt>
<trkpt lat="33.8097391" lon="-118.3944335">
  <ele>-34.2</ele>
  <time>2026-09-01T01:13:46Z</time>
  <course>177.59</course>
  <speed>0.79</speed>
  <fix>3d</fix>
</trkpt>
<trkpt lat="33.8097378" lon="-118.3944334">
  <ele>-35.013</ele>
  <time>2026-09-01T01:13:46Z</time>
  <course>160.98</course>
  <speed>0.7206247289678588</speed>
  <fix>3d</fix>
</trkpt>
<trkpt lat="33.8097391" lon="-118.3944335">
  <ele>-34.2</ele>
  <time>2026-09-01T01:13:46Z</time>
  <course>177.59</course>
  <speed>0.79</speed>
  <fix>3d</fix>
</trkpt>
<trkpt lat="33.8097371" lon="-118.3944333">
  <ele>-35.003</ele>
  <time>2026-09-01T01:13:46Z</time>
  <course>160.69</course>
  <speed>0.7306161783043131</speed>
  <fix>3d</fix>
</trkpt>
<trkpt lat="33.8097378" lon="-118.3944334">
  <ele>-34.18</ele>
  <time>2026-09-01T01:13:46Z</time>
  <course>177.4</course>
  <speed>0.76</speed>
  <fix>3d</fix>
</trkpt>
<trkpt lat="33.8097364" lon="-118.3944333">
  <ele>-34.994</ele>
  <time>2026-09-01T01:13:46Z</time>
  <course>160.75</course>
  <speed>0.7402702209328699</speed>
  <fix>3d</fix>
</trkpt>
<trkpt lat="33.8097378" lon="-118.3944334">
  <ele>-34.18</ele>
  <time>2026-09-01T01:13:46Z</time>
  <course>177.4</course>
  <speed>0.76</speed>
  <fix>3d</fix>
</trkpt>
<trkpt lat="33.8097357" lon="-118.3944333">
  <ele>-34.985</ele>
  <time>2026-09-01T01:13:46Z</time>
  <course>161.12</course>
  <speed>0.7502666192761077</speed>
  <fix>3d</fix>
</trkpt>
<trkpt lat="33.8097364" lon="-118.3944333">
  <ele>-34.16</ele>
  <time>2026-09-01T01:13:46Z</time>
  <course>177.35</course>
  <speed>0.75</speed>
  <fix>3d</fix>
</trkpt>
<trkpt lat="33.809735" lon="-118.3944333">
  <ele>-34.981</ele>
  <time>2026-09-01T01:13:46Z</time>
  <course>161.57</course>
  <speed>0.7602631123499285</speed>
  <fix>3d</fix>
</trkpt>
<trkpt lat="33.8097364" lon="-118.3944333">
  <ele>-34.16</ele>
  <time>2026-09-01T01:13:46Z</time>
  <course>177.35</course>
  <speed>0.75</speed>
  <fix>3d</fix>
</trkpt>
<trkpt lat="33.8097343" lon="-118.3944332">
  <ele>-34.98</ele>
  <time>2026-09-01T01:13:46Z</time>
  <course>162.03</course>
  <speed>0.7602631123499285</speed>
  <fix>3d</fix>
</trkpt>
<trkpt lat="33.8097351" lon="-118.3944333">
  <ele>-34.14</ele>
  <time>2026-09-01T01:13:46Z</time>
  <course>177.55</course>
  <speed>0.76</speed>
  <fix>3d</fix>
</trkpt>
<trkpt lat="33.8097336" lon="-118.3944332">
  <ele>-34.98</ele>
  <time>2026-09-01T01:13:46Z</time>
  <course>162.47</course>
  <speed>0.7702596964660685</speed>
  <fix>3d</fix>
</trkpt>
<trkpt lat="33.8097351" lon="-118.3944333">
  <ele>-34.14</ele>
  <time>2026-09-01T01:13:46Z</time>
  <course>177.55</course>
  <speed>0.76</speed>
  <fix>3d</fix>
</trkpt>
<trkpt lat="33.8097329" lon="-118.3944332">
  <ele>-34.981</ele>
  <time>2026-09-01T01:13:46Z</time>
  <course>162.87</course>
  <speed>0.7700649323271382</speed>
  <fix>3d</fix>
</trkpt>
<trkpt lat="33.8097336" lon="-118.3944332">
  <ele>-34.14</ele>
  <time>2026-09-01T01:13:46Z</time>
  <course>177.68</course>
  <speed>0.77</speed>
  <fix>3d</fix>
</trkpt>
<trkpt lat="33.8097322" lon="-118.3944332">
  <ele>-34.991</ele>
  <time>2026-09-01T01:13:46Z</time>
  <course>163.25</course>
  <speed>0.7700649323271382</speed>
  <fix>3d</fix>
</trkpt>
<trkpt lat="33.8097336" lon="-118.3944332">
  <ele>-34.14</ele>
  <time>2026-09-01T01:13:46Z</time>
  <course>177.68</course>
  <speed>0.77</speed>
  <fix>3d</fix>
</trkpt>
<trkpt lat="33.8097315" lon="-118.3944332">
  <ele>-35.004</ele>
  <time>2026-09-01T01:13:46Z</time>
  <course>163.6</course>
  <speed>0.7800640999302557</speed>
  <fix>3d</fix>
</trkpt>
<trkpt lat="33.8097323" lon="-118.3944331">
  <ele>-34.15</ele>
  <time>2026-09-01T01:13:46Z</time>
  <course>177.75</course>
  <speed>0.78</speed>
  <fix>3d</fix>
</trkpt>
<trkpt lat="33.8097308" lon="-118.3944331">
  <ele>-35.017</ele>
  <time>2026-09-01T01:13:46Z</time>
  <course>163.94</course>
  <speed>0.7800640999302557</speed>
  <fix>3d</fix>
</trkpt>
<trkpt lat="33.8097323" lon="-118.3944331">
  <ele>-34.15</ele>
  <time>2026-09-01T01:13:46Z</time>
  <course>177.75</course>
  <speed>0.78</speed>
  <fix>3d</fix>
</trkpt>
<trkpt lat="33.80973" lon="-118.3944331">
  <ele>-35.029</ele>
  <time>2026-09-01T01:13:46Z</time>
  <course>164.27</course>
  <speed>0.7900632886041472</speed>
  <fix>3d</fix>
</trkpt>
<trkpt lat="33.8097309" lon="-118.3944331">
  <ele>-34.17</ele>
  <time>2026-09-01T01:13:46Z</time>
  <course>177.81</course>
  <speed>0.79</speed>
  <fix>3d</fix>
</trkpt>
<trkpt lat="33.8097293" lon="-118.3944331">
  <ele>-35.041</ele>
  <time>2026-09-01T01:13:46Z</time>
  <course>164.61</course>
  <speed>0.7900632886041472</speed>
  <fix>3d</fix>
</trkpt>
<trkpt lat="33.8097309" lon="-118.3944331">
  <ele>-34.17</ele>
  <time>2026-09-01T01:13:46Z</time>
  <course>177.81</course>
  <speed>0.79</speed>
  <fix>3d</fix>
</trkpt>
<trkpt lat="33.8097286" lon="-118.3944331">
  <ele>-35.054</ele>
  <time>2026-09-01T01:13:46Z</time>
  <course>164.93</course>
  <speed>0.7900632886041472</speed>
  <fix>3d</fix>
</trkpt>
<trkpt lat="33.8097294" lon="-118.394433">
  <ele>-34.19</ele>
  <time>2026-09-01T01:13:46Z</time>
  <course>177.88</course>
  <speed>0.8</speed>
  <fix>3d</fix>
</trkpt>
<trkpt lat="33.8097279" lon="-118.3944331">
  <ele>-35.069</ele>
  <time>2026-09-01T01:13:46Z</time>
  <course>165.24</course>
  <speed>0.7900632886041472</speed>
  <fix>3d</fix>
</trkpt>
<trkpt lat="33.8097294" lon="-118.394433">
  <ele>-34.19</ele>
  <time>2026-09-01T01:13:46Z</time>
  <course>177.88</course>
  <speed>0.8</speed>
  <fix>3d</fix>
</trkpt>
<trkpt lat="33.8097271" lon="-118.394433">
  <ele>-35.081</ele>
  <time>2026-09-01T01:13:46Z</time>
  <course>165.53</course>
  <speed>0.8</speed>
  <fix>3d</fix>
</trkpt>
<trkpt lat="33.809728" lon="-118.3944329">
  <ele>-34.22</ele>
  <time>2026-09-01T01:13:46Z</time>
  <course>177.93</course>
  <speed>0.8</speed>
  <fix>3d</fix>
</trkpt>
<trkpt lat="33.8097264" lon="-118.394433">
  <ele>-35.087</ele>
  <time>2026-09-01T01:13:46Z</time>
  <course>165.82</course>
  <speed>0.8</speed>
  <fix>3d</fix>
</trkpt>
<trkpt lat="33.809728" lon="-118.3944329">
  <ele>-34.22</ele>
  <time>2026-09-01T01:13:46Z</time>
  <course>177.93</course>
  <speed>0.8</speed>
  <fix>3d</fix>
</trkpt>
<trkpt lat="33.8097257" lon="-118.394433">
  <ele>-35.088</ele>
  <time>2026-09-01T01:13:46Z</time>
  <course>166.1</course>
  <speed>0.8</speed>
  <fix>3d</fix>
</trkpt>
<trkpt lat="33.8097265" lon="-118.3944329">
  <ele>-34.23</ele>
  <time>2026-09-01T01:13:46Z</time>
  <course>177.99</course>
  <speed>0.81</speed>
  <fix>3d</fix>
</trkpt>
<trkpt lat="33.809725" lon="-118.394433">
  <ele>-35.083</ele>
  <time>2026-09-01T01:13:46Z</time>
  <course>166.38</course>
  <speed>0.8</speed>
  <fix>3d</fix>
</trkpt>
<trkpt lat="33.8097265" lon="-118.3944329">
  <ele>-34.23</ele>
  <time>2026-09-01T01:13:46Z</time>
  <course>177.99</course>
  <speed>0.81</speed>
  <fix>3d</fix>
</trkpt>
<trkpt lat="33.8097242" lon="-118.394433">
  <ele>-35.073</ele>
  <time>2026-09-01T01:13:46Z</time>
  <course>166.66</course>
  <speed>0.8</speed>
  <fix>3d</fix>
</trkpt>
<trkpt lat="33.809725" lon="-118.3944328">
  <ele>-34.24</ele>
  <time>2026-09-01T01:13:46Z</time>
  <course>178.06</course>
  <speed>0.81</speed>
  <fix>3d</fix>
</trkpt>
<trkpt lat="33.8097235" lon="-118.3944329">
  <ele>-35.061</ele>
  <time>2026-09-01T01:13:46Z</time>
  <course>166.93</course>
  <speed>0.8</speed>
  <fix>3d</fix>
</trkpt>
<trkpt lat="33.809725" lon="-118.3944328">
  <ele>-34.24</ele>
  <time>2026-09-01T01:13:46Z</time>
  <course>178.06</course>
  <speed>0.81</speed>
  <fix>3d</fix>
</trkpt>
<trkpt lat="33.8097227" lon="-118.3944329">
  <ele>-35.049</ele>
  <time>2026-09-01T01:13:46Z</time>
  <course>167.19</course>
  <speed>0.8</speed>
  <fix>3d</fix>
</trkpt>
<trkpt lat="33.8097236" lon="-118.3944328">
  <ele>-34.22</ele>
  <time>2026-09-01T01:13:46Z</time>
  <course>178.11</course>
  <speed>0.81</speed>
  <fix>3d</fix>
</trkpt>
<trkpt lat="33.809722" lon="-118.3944329">
  <ele>-35.033</ele>
  <time>2026-09-01T01:13:46Z</time>
  <course>167.44</course>
  <speed>0.81</speed>
  <fix>3d</fix>
</trkpt>
<trkpt lat="33.8097236" lon="-118.3944328">
  <ele>-34.22</ele>
  <time>2026-09-01T01:13:46Z</time>
  <course>178.11</course>
  <speed>0.81</speed>
  <fix>3d</fix>
</trkpt>
<trkpt lat="33.8097213" lon="-118.3944329">
  <ele>-35.015</ele>
  <time>2026-09-01T01:13:46Z</time>
  <course>167.68</course>
  <speed>0.81</speed>
  <fix>3d</fix>
</trkpt>
<trkpt lat="33.8097221" lon="-118.3944327">
  <ele>-34.19</ele>
  <time>2026-09-01T01:13:46Z</time>
  <course>178.14</course>
  <speed>0.82</speed>
  <fix>3d</fix>
</trkpt>
<trkpt lat="33.8097205" lon="-118.3944329">
  <ele>-34.997</ele>
  <time>2026-09-01T01:13:46Z</time>
  <course>167.91</course>
  <speed>0.79</speed>
  <fix>3d</fix>
</trkpt>
<trkpt lat="33.8097221" lon="-118.3944327">
  <ele>-34.19</ele>
  <time>2026-09-01T01:13:46Z</time>
  <course>178.14</course>
  <speed>0.82</speed>
  <fix>3d</fix>
</trkpt>
<trkpt lat="33.8097198" lon="-118.3944329">
  <ele>-34.981</ele>
  <time>2026-09-01T01:13:46Z</time>
  <course>168.01</course>
  <speed>0.75</speed>
  <fix>3d</fix>
</trkpt>
<trkpt lat="33.8097206" lon="-118.3944327">
  <ele>-34.16</ele>
  <time>2026-09-01T01:13:46Z</time>
  <course>178.07</course>
  <speed>0.79</speed>
  <fix>3d</fix>
</trkpt>
<trkpt lat="33.8097192" lon="-118.3944328">
  <ele>-34.966</ele>
  <time>2026-09-01T01:13:46Z</time>
  <course>167.85</course>
  <speed>0.76</speed>
  <fix>3d</fix>
</trkpt>
<trkpt lat="33.8097206" lon="-118.3944327">
  <ele>-34.16</ele>
  <time>2026-09-01T01:13:46Z</time>
  <course>178.07</course>
  <speed>0.79</speed>
  <fix>3d</fix>
</trkpt>
<trkpt lat="33.8097185" lon="-118.3944328">
  <ele>-34.952</ele>
  <time>2026-09-01T01:13:46Z</time>
  <course>167.85</course>
  <speed>0.77</speed>
  <fix>3d</fix>
</trkpt>
<trkpt lat="33.8097192" lon="-118.3944326">
  <ele>-34.13</ele>
  <time>2026-09-01T01:13:46Z</time>
  <course>178.02</course>
  <speed>0.77</speed>
  <fix>3d</fix>
</trkpt>
<trkpt lat="33.8097178" lon="-118.3944328">
  <ele>-34.94</ele>
  <time>2026-09-01T01:13:46Z</time>
  <course>168.09</course>
  <speed>0.76</speed>
  <fix>3d</fix>
</trkpt>
<trkpt lat="33.8097192" lon="-118.3944326">
  <ele>-34.13</ele>
  <time>2026-09-01T01:13:46Z</time>
  <course>178.02</course>
  <speed>0.77</speed>
  <fix>3d</fix>
</trkpt>
<trkpt lat="33.8097171" lon="-118.3944328">
  <ele>-34.933</ele>
  <time>2026-09-01T01:13:46Z</time>
  <course>168.29</course>
  <speed>0.72</speed>
  <fix>3d</fix>
</trkpt>
<trkpt lat="33.8097178" lon="-118.3944325">
  <ele>-34.11</ele>
  <time>2026-09-01T01:13:46Z</time>
  <course>178.05</course>
  <speed>0.75</speed>
  <fix>3d</fix>
</trkpt>
<trkpt lat="33.8097164" lon="-118.3944328">
  <ele>-34.928</ele>
  <time>2026-09-01T01:13:46Z</time>
  <course>168.27</course>
  <speed>0.74</speed>
  <fix>3d</fix>
</trkpt>
<trkpt lat="33.8097178" lon="-118.3944325">
  <ele>-34.11</ele>
  <time>2026-09-01T01:13:46Z</time>
  <course>178.05</course>
  <speed>0.75</speed>
  <fix>3d</fix>
</trkpt>
<trkpt lat="33.8097157" lon="-118.3944327">
  <ele>-34.928</ele>
  <time>2026-09-01T01:13:46Z</time>
  <course>168.4</course>
  <speed>0.75</speed>
  <fix>3d</fix>
</trkpt>
<trkpt lat="33.8097165" lon="-118.3944325">
  <ele>-34.09</ele>
  <time>2026-09-01T01:13:46Z</time>
  <course>178.16</course>
  <speed>0.75</speed>
  <fix>3d</fix>
</trkpt>
<trkpt lat="33.809715" lon="-118.3944327">
  <ele>-34.933</ele>
  <time>2026-09-01T01:13:46Z</time>
  <course>168.74</course>
  <speed>0.7700649323271382</speed>
  <fix>3d</fix>
</trkpt>
<trkpt lat="33.8097165" lon="-118.3944325">
  <ele>-34.09</ele>
  <time>2026-09-01T01:13:46Z</time>
  <course>178.16</course>
  <speed>0.75</speed>
  <fix>3d</fix>
</trkpt>
<trkpt lat="33.8097143" lon="-118.3944327">
  <ele>-34.947</ele>
  <time>2026-09-01T01:13:46Z</time>
  <course>169.16</course>
  <speed>0.7800640999302557</speed>
  <fix>3d</fix>
</trkpt>
<trkpt lat="33.8097151" lon="-118.3944324">
  <ele>-34.1</ele>
  <time>2026-09-01T01:13:46Z</time>
  <course>178.37</course>
  <speed>0.77</speed>
  <fix>3d</fix>
</trkpt>
<trkpt lat="33.8097136" lon="-118.3944327">
  <ele>-34.967</ele>
  <time>2026-09-01T01:13:46Z</time>
  <course>169.56</course>
  <speed>0.7800640999302557</speed>
  <fix>3d</fix>
</trkpt>
<trkpt lat="33.8097151" lon="-118.3944324">
  <ele>-34.1</ele>
  <time>2026-09-01T01:13:46Z</time>
  <course>178.37</course>
  <speed>0.77</speed>
  <fix>3d</fix>
</trkpt>
<trkpt lat="33.8097129" lon="-118.3944327">
  <ele>-34.992</ele>
  <time>2026-09-01T01:13:46Z</time>
  <course>169.94</course>
  <speed>0.7900632886041472</speed>
  <fix>3d</fix>
</trkpt>
<trkpt lat="33.8097136" lon="-118.3944324">
  <ele>-34.12</ele>
  <time>2026-09-01T01:13:46Z</time>
  <course>178.55</course>
  <speed>0.79</speed>
  <fix>3d</fix>
</trkpt>
<trkpt lat="33.8097122" lon="-118.3944327">
  <ele>-35.017</ele>
  <time>2026-09-01T01:13:46Z</time>
  <course>170.27</course>
  <speed>0.7900632886041472</speed>
  <fix>3d</fix>
</trkpt>
<trkpt lat="33.8097136" lon="-118.3944324">
  <ele>-34.12</ele>
  <time>2026-09-01T01:13:46Z</time>
  <course>178.55</course>
  <speed>0.79</speed>
  <fix>3d</fix>
</trkpt>
<trkpt lat="33.8097114" lon="-118.3944327">
  <ele>-35.038</ele>
  <time>2026-09-01T01:13:46Z</time>
  <course>170.57</course>
  <speed>0.8000624975587844</speed>
  <fix>3d</fix>
</trkpt>
<trkpt lat="33.8097122" lon="-118.3944324">
  <ele>-34.16</ele>
  <time>2026-09-01T01:13:46Z</time>
  <course>178.64</course>
  <speed>0.81</speed>
  <fix>3d</fix>
</trkpt>
<trkpt lat="33.8097107" lon="-118.3944326">
  <ele>-35.057</ele>
  <time>2026-09-01T01:13:46Z</time>
  <course>170.83</course>
  <speed>0.8000624975587844</speed>
  <fix>3d</fix>
</trkpt>
<trkpt lat="33.8097122" lon="-118.3944324">
  <ele>-34.16</ele>
  <time>2026-09-01T01:13:46Z</time>
  <course>178.64</course>
  <speed>0.81</speed>
  <fix>3d</fix>
</trkpt>
<trkpt lat="33.80971" lon="-118.3944326">
  <ele>-35.072</ele>
  <time>2026-09-01T01:13:46Z</time>
  <course>171.06</course>
  <speed>0.8100617260431454</speed>
  <fix>3d</fix>
</trkpt>
<trkpt lat="33.8097107" lon="-118.3944323">
  <ele>-34.21</ele>
  <time>2026-09-01T01:13:46Z</time>
  <course>178.63</course>
  <speed>0.82</speed>
  <fix>3d</fix>
</trkpt>
<trkpt lat="33.8097092" lon="-118.3944326">
  <ele>-35.084</ele>
  <time>2026-09-01T01:13:46Z</time>
  <course>171.27</course>
  <speed>0.8100617260431454</speed>
  <fix>3d</fix>
</trkpt>
<trkpt lat="33.8097107" lon="-118.3944323">
  <ele>-34.21</ele>
  <time>2026-09-01T01:13:46Z</time>
  <course>178.63</course>
  <speed>0.82</speed>
  <fix>3d</fix>
</trkpt>
<trkpt lat="33.8097085" lon="-118.3944326">
  <ele>-35.094</ele>
  <time>2026-09-01T01:13:46Z</time>
  <course>171.49</course>
  <speed>0.8100617260431454</speed>
  <fix>3d</fix>
</trkpt>
<trkpt lat="33.8097092" lon="-118.3944323">
  <ele>-34.23</ele>
  <time>2026-09-01T01:13:46Z</time>
  <course>178.63</course>
  <speed>0.83</speed>
  <fix>3d</fix>
</trkpt>
<trkpt lat="33.8097077" lon="-118.3944326">
  <ele>-35.103</ele>
  <time>2026-09-01T01:13:46Z</time>
  <course>171.71</course>
  <speed>0.8100617260431454</speed>
  <fix>3d</fix>
</trkpt>
<trkpt lat="33.8097092" lon="-118.3944323">
  <ele>-34.23</ele>
  <time>2026-09-01T01:13:46Z</time>
  <course>178.63</course>
  <speed>0.83</speed>
  <fix>3d</fix>
</trkpt>
<trkpt lat="33.809707" lon="-118.3944326">
  <ele>-35.107</ele>
  <time>2026-09-01T01:13:46Z</time>
  <course>171.92</course>
  <speed>0.8100617260431454</speed>
  <fix>3d</fix>
</trkpt>
<trkpt lat="33.8097077" lon="-118.3944322">
  <ele>-34.25</ele>
  <time>2026-09-01T01:13:46Z</time>
  <course>178.65</course>
  <speed>0.83</speed>
  <fix>3d</fix>
</trkpt>
<trkpt lat="33.8097062" lon="-118.3944326">
  <ele>-35.105</ele>
  <time>2026-09-01T01:13:46Z</time>
  <course>172.12</course>
  <speed>0.8200609733428362</speed>
  <fix>3d</fix>
</trkpt>
<trkpt lat="33.8097077" lon="-118.3944322">
  <ele>-34.25</ele>
  <time>2026-09-01T01:13:46Z</time>
  <course>178.65</course>
  <speed>0.83</speed>
  <fix>3d</fix>
</trkpt>
<trkpt lat="33.8097054" lon="-118.3944325">
  <ele>-35.094</ele>
  <time>2026-09-01T01:13:46Z</time>
  <course>172.33</course>
  <speed>0.8200609733428362</speed>
  <fix>3d</fix>
</trkpt>
<trkpt lat="33.8097062" lon="-118.3944322">
  <ele>-34.26</ele>
  <time>2026-09-01T01:13:46Z</time>
  <course>178.7</course>
  <speed>0.84</speed>
  <fix>3d</fix>
</trkpt>
<trkpt lat="33.8097047" lon="-118.3944325">
  <ele>-35.081</ele>
  <time>2026-09-01T01:13:46Z</time>
  <course>172.53</course>
  <speed>0.8202438661763951</speed>
  <fix>3d</fix>
</trkpt>
<trkpt lat="33.8097062" lon="-118.3944322">
  <ele>-34.26</ele>
  <time>2026-09-01T01:13:46Z</time>
  <course>178.7</course>
  <speed>0.84</speed>
  <fix>3d</fix>
</trkpt>
<trkpt lat="33.8097039" lon="-118.3944325">
  <ele>-35.064</ele>
  <time>2026-09-01T01:13:46Z</time>
  <course>172.73</course>
  <speed>0.8202438661763951</speed>
  <fix>3d</fix>
</trkpt>
<trkpt lat="33.8097047" lon="-118.3944321">
  <ele>-34.25</ele>
  <time>2026-09-01T01:13:46Z</time>
  <course>178.78</course>
  <speed>0.84</speed>
  <fix>3d</fix>
</trkpt>
<trkpt lat="33.8097032" lon="-118.3944325">
  <ele>-35.044</ele>
  <time>2026-09-01T01:13:46Z</time>
  <course>172.93</course>
  <speed>0.8202438661763951</speed>
  <fix>3d</fix>
</trkpt>
<trkpt lat="33.8097047" lon="-118.3944321">
  <ele>-34.25</ele>
  <time>2026-09-01T01:13:46Z</time>
  <course>178.78</course>
  <speed>0.84</speed>
  <fix>3d</fix>
</trkpt>
<trkpt lat="33.8097024" lon="-118.3944325">
  <ele>-35.025</ele>
  <time>2026-09-01T01:13:46Z</time>
  <course>173.13</course>
  <speed>0.8202438661763951</speed>
  <fix>3d</fix>
</trkpt>
<trkpt lat="33.8097032" lon="-118.3944321">
  <ele>-34.22</ele>
  <time>2026-09-01T01:13:46Z</time>
  <course>178.86</course>
  <speed>0.84</speed>
  <fix>3d</fix>
</trkpt>
<trkpt lat="33.8097016" lon="-118.3944325">
  <ele>-35.006</ele>
  <time>2026-09-01T01:13:46Z</time>
  <course>173.33</course>
  <speed>0.8202438661763951</speed>
  <fix>3d</fix>
</trkpt>
<trkpt lat="33.8097032" lon="-118.3944321">
  <ele>-34.22</ele>
  <time>2026-09-01T01:13:46Z</time>
  <course>178.86</course>
  <speed>0.84</speed>
  <fix>3d</fix>
</trkpt>
<trkpt lat="33.8097009" lon="-118.3944324">
  <ele>-34.988</ele>
  <time>2026-09-01T01:13:46Z</time>
  <course>173.53</course>
  <speed>0.8302409288875127</speed>
  <fix>3d</fix>
</trkpt>
<trkpt lat="33.8097017" lon="-118.3944321">
  <ele>-34.19</ele>
  <time>2026-09-01T01:13:46Z</time>
  <course>178.96</course>
  <speed>0.84</speed>
  <fix>3d</fix>
</trkpt>
<trkpt lat="33.8097001" lon="-118.3944324">
  <ele>-34.973</ele>
  <time>2026-09-01T01:13:46Z</time>
  <course>173.72</course>
  <speed>0.8302409288875127</speed>
  <fix>3d</fix>
</trkpt>
<trkpt lat="33.8097017" lon="-118.3944321">
  <ele>-34.19</ele>
  <time>2026-09-01T01:13:46Z</time>
  <course>178.96</course>
  <speed>0.84</speed>
  <fix>3d</fix>
</trkpt>
<trkpt lat="33.8096993" lon="-118.3944324">
  <ele>-34.961</ele>
  <time>2026-09-01T01:13:46Z</time>
  <course>173.89</course>
  <speed>0.8302409288875127</speed>
  <fix>3d</fix>
</trkpt>
<trkpt lat="33.8097001" lon="-118.394432">
  <ele>-34.15</ele>
  <time>2026-09-01T01:13:46Z</time>
  <course>179.04</course>
  <speed>0.85</speed>
  <fix>3d</fix>
</trkpt>
<trkpt lat="33.8096986" lon="-118.3944324">
  <ele>-34.955</ele>
  <time>2026-09-01T01:13:46Z</time>
  <course>174.06</course>
  <speed>0.8302409288875127</speed>
  <fix>3d</fix>
</trkpt>
<trkpt lat="33.8097001" lon="-118.394432">
  <ele>-34.15</ele>
  <time>2026-09-01T01:13:46Z</time>
  <course>179.04</course>
  <speed>0.85</speed>
  <fix>3d</fix>
</trkpt>
<trkpt lat="33.8096978" lon="-118.3944324">
  <ele>-34.951</ele>
  <time>2026-09-01T01:13:46Z</time>
  <course>174.24</course>
  <speed>0.8302409288875127</speed>
  <fix>3d</fix>
</trkpt>
<trkpt lat="33.8096986" lon="-118.394432">
  <ele>-34.13</ele>
  <time>2026-09-01T01:13:46Z</time>
  <course>179.12</course>
  <speed>0.85</speed>
  <fix>3d</fix>
</trkpt>
<trkpt lat="33.809697" lon="-118.3944324">
  <ele>-34.947</ele>
  <time>2026-09-01T01:13:46Z</time>
  <course>174.41</course>
  <speed>0.8302409288875127</speed>
  <fix>3d</fix>
</trkpt>
<trkpt lat="33.8096986" lon="-118.394432">
  <ele>-34.13</ele>
  <time>2026-09-01T01:13:46Z</time>
  <course>179.12</course>
  <speed>0.85</speed>
  <fix>3d</fix>
</trkpt>
<trkpt lat="33.8096963" lon="-118.3944324">
  <ele>-34.942</ele>
  <time>2026-09-01T01:13:46Z</time>
  <course>174.58</course>
  <speed>0.8302409288875127</speed>
  <fix>3d</fix>
</trkpt>
<trkpt lat="33.8096971" lon="-118.394432">
  <ele>-34.12</ele>
  <time>2026-09-01T01:13:46Z</time>
  <course>179.23</course>
  <speed>0.85</speed>
  <fix>3d</fix>
</trkpt>
<trkpt lat="33.8096955" lon="-118.3944324">
  <ele>-34.938</ele>
  <time>2026-09-01T01:13:46Z</time>
  <course>174.74</course>
  <speed>0.8302409288875127</speed>
  <fix>3d</fix>
</trkpt>
<trkpt lat="33.8096971" lon="-118.394432">
  <ele>-34.12</ele>
  <time>2026-09-01T01:13:46Z</time>
  <course>179.23</course>
  <speed>0.85</speed>
  <fix>3d</fix>
</trkpt>
<trkpt lat="33.8096947" lon="-118.3944324">
  <ele>-34.936</ele>
  <time>2026-09-01T01:13:46Z</time>
  <course>174.89</course>
  <speed>0.8302409288875127</speed>
  <fix>3d</fix>
</trkpt>
<trkpt lat="33.8096956" lon="-118.394432">
  <ele>-34.1</ele>
  <time>2026-09-01T01:13:46Z</time>
  <course>179.29</course>
  <speed>0.85</speed>
  <fix>3d</fix>
</trkpt>
<trkpt lat="33.809694" lon="-118.3944324">
  <ele>-34.936</ele>
  <time>2026-09-01T01:13:46Z</time>
  <course>175.02</course>
  <speed>0.8302409288875127</speed>
  <fix>3d</fix>
</trkpt>
<trkpt lat="33.8096956" lon="-118.394432">
  <ele>-34.1</ele>
  <time>2026-09-01T01:13:46Z</time>
  <course>179.29</course>
  <speed>0.85</speed>
  <fix>3d</fix>
</trkpt>
<trkpt lat="33.8096932" lon="-118.3944323">
  <ele>-34.946</ele>
  <time>2026-09-01T01:13:46Z</time>
  <course>175.16</course>
  <speed>0.8302409288875127</speed>
  <fix>3d</fix>
</trkpt>
<trkpt lat="33.809694" lon="-118.394432">
  <ele>-34.1</ele>
  <time>2026-09-01T01:13:46Z</time>
  <course>179.33</course>
  <speed>0.85</speed>
  <fix>3d</fix>
</trkpt>
<trkpt lat="33.8096924" lon="-118.3944323">
  <ele>-34.961</ele>
  <time>2026-09-01T01:13:46Z</time>
  <course>175.28</course>
  <speed>0.8302409288875127</speed>
  <fix>3d</fix>
</trkpt>
<trkpt lat="33.809694" lon="-118.394432">
  <ele>-34.1</ele>
  <time>2026-09-01T01:13:46Z</time>
  <course>179.33</course>
  <speed>0.85</speed>
  <fix>3d</fix>
</trkpt>
<trkpt lat="33.8096916" lon="-118.3944323">
  <ele>-34.974</ele>
  <time>2026-09-01T01:13:46Z</time>
  <course>175.38</course>
  <speed>0.8402380615040002</speed>
  <fix>3d</fix>
</trkpt>
<trkpt lat="33.8096925" lon="-118.3944319">
  <ele>-34.12</ele>
  <time>2026-09-01T01:13:46Z</time>
  <course>179.35</course>
  <speed>0.86</speed>
  <fix>3d</fix>
</trkpt>
<trkpt lat="33.8096909" lon="-118.3944323">
  <ele>-34.988</ele>
  <time>2026-09-01T01:13:46Z</time>
  <course>175.49</course>
  <speed>0.8402380615040002</speed>
  <fix>3d</fix>
</trkpt>
<trkpt lat="33.8096925" lon="-118.3944319">
  <ele>-34.12</ele>
  <time>2026-09-01T01:13:46Z</time>
  <course>179.35</course>
  <speed>0.86</speed>
  <fix>3d</fix>
</trkpt>
<trkpt lat="33.8096901" lon="-118.3944323">
  <ele>-35.005</ele>
  <time>2026-09-01T01:13:46Z</time>
  <course>175.61</course>
  <speed>0.8402380615040002</speed>
  <fix>3d</fix>
</trkpt>
<trkpt lat="33.8096909" lon="-118.3944319">
  <ele>-34.14</ele>
  <time>2026-09-01T01:13:46Z</time>
  <course>179.38</course>
  <speed>0.86</speed>
  <fix>3d</fix>
</trkpt>
<trkpt lat="33.8096893" lon="-118.3944323">
  <ele>-35.023</ele>
  <time>2026-09-01T01:13:46Z</time>
  <course>175.73</course>
  <speed>0.8402380615040002</speed>
  <fix>3d</fix>
</trkpt>
<trkpt lat="33.8096909" lon="-118.3944319">
  <ele>-34.14</ele>
  <time>2026-09-01T01:13:46Z</time>
  <course>179.38</course>
  <speed>0.86</speed>
  <fix>3d</fix>
</trkpt>
<trkpt lat="33.8096885" lon="-118.3944323">
  <ele>-35.04</ele>
  <time>2026-09-01T01:13:46Z</time>
  <course>175.86</course>
  <speed>0.8402380615040002</speed>
  <fix>3d</fix>
</trkpt>
<trkpt lat="33.8096893" lon="-118.3944319">
  <ele>-34.17</ele>
  <time>2026-09-01T01:13:46Z</time>
  <course>179.45</course>
  <speed>0.86</speed>
  <fix>3d</fix>
</trkpt>
<trkpt lat="33.8096878" lon="-118.3944323">
  <ele>-35.056</ele>
  <time>2026-09-01T01:13:46Z</time>
  <course>175.97</course>
  <speed>0.8402380615040002</speed>
  <fix>3d</fix>
</trkpt>
<trkpt lat="33.8096893" lon="-118.3944319">
  <ele>-34.17</ele>
  <time>2026-09-01T01:13:46Z</time>
  <course>179.45</course>
  <speed>0.86</speed>
  <fix>3d</fix>
</trkpt>
<trkpt lat="33.809687" lon="-118.3944323">
  <ele>-35.071</ele>
  <time>2026-09-01T01:13:46Z</time>
  <course>176.08</course>
  <speed>0.8402380615040002</speed>
  <fix>3d</fix>
</trkpt>
<trkpt lat="33.8096878" lon="-118.3944319">
  <ele>-34.2</ele>
  <time>2026-09-01T01:13:46Z</time>
  <course>179.51</course>
  <speed>0.86</speed>
  <fix>3d</fix>
</trkpt>
<trkpt lat="33.8096862" lon="-118.3944323">
  <ele>-35.083</ele>
  <time>2026-09-01T01:13:46Z</time>
  <course>176.19</course>
  <speed>0.8402380615040002</speed>
  <fix>3d</fix>
</trkpt>
<trkpt lat="33.8096878" lon="-118.3944319">
  <ele>-34.2</ele>
  <time>2026-09-01T01:13:46Z</time>
  <course>179.51</course>
  <speed>0.86</speed>
  <fix>3d</fix>
</trkpt>
<trkpt lat="33.8096854" lon="-118.3944322">
  <ele>-35.094</ele>
  <time>2026-09-01T01:13:46Z</time>
  <course>176.3</course>
  <speed>0.8402380615040002</speed>
  <fix>3d</fix>
</trkpt>
<trkpt lat="33.8096862" lon="-118.3944319">
  <ele>-34.23</ele>
  <time>2026-09-01T01:13:46Z</time>
  <course>179.53</course>
  <speed>0.86</speed>
  <fix>3d</fix>
</trkpt>
<trkpt lat="33.8096847" lon="-118.3944322">
  <ele>-35.099</ele>
  <time>2026-09-01T01:13:46Z</time>
  <course>176.39</course>
  <speed>0.8402380615040002</speed>
  <fix>3d</fix>
</trkpt>
<trkpt lat="33.8096862" lon="-118.3944319">
  <ele>-34.23</ele>
  <time>2026-09-01T01:13:46Z</time>
  <course>179.53</course>
  <speed>0.86</speed>
  <fix>3d</fix>
</trkpt>
<trkpt lat="33.8096839" lon="-118.3944322">
  <ele>-35.099</ele>
  <time>2026-09-01T01:13:46Z</time>
  <course>176.48</course>
  <speed>0.8402380615040002</speed>
  <fix>3d</fix>
</trkpt>
<trkpt lat="33.8096847" lon="-118.3944318">
  <ele>-34.24</ele>
  <time>2026-09-01T01:13:46Z</time>
  <course>179.54</course>
  <speed>0.87</speed>
  <fix>3d</fix>
</trkpt>
<trkpt lat="33.8096831" lon="-118.3944322">
  <ele>-35.094</ele>
  <time>2026-09-01T01:13:46Z</time>
  <course>176.57</course>
  <speed>0.8505292469985968</speed>
  <fix>3d</fix>
</trkpt>
<trkpt lat="33.8096847" lon="-118.3944318">
  <ele>-34.24</ele>
  <time>2026-09-01T01:13:46Z</time>
  <course>179.54</course>
  <speed>0.87</speed>
  <fix>3d</fix>
</trkpt>
<trkpt lat="33.8096823" lon="-118.3944322">
  <ele>-35.08</ele>
  <time>2026-09-01T01:13:46Z</time>
  <course>176.69</course>
  <speed>0.8502352615599991</speed>
  <fix>3d</fix>
</trkpt>
<trkpt lat="33.8096831" lon="-118.3944318">
  <ele>-34.24</ele>
  <time>2026-09-01T01:13:46Z</time>
  <course>179.58</course>
  <speed>0.87</speed>
  <fix>3d</fix>
</trkpt>
<trkpt lat="33.8096815" lon="-118.3944322">
  <ele>-35.062</ele>
  <time>2026-09-01T01:13:46Z</time>
  <course>176.8</course>
  <speed>0.8505292469985968</speed>
  <fix>3d</fix>
</trkpt>
<trkpt lat="33.8096831" lon="-118.3944318">
  <ele>-34.24</ele>
  <time>2026-09-01T01:13:46Z</time>
  <course>179.58</course>
  <speed>0.87</speed>
  <fix>3d</fix>
</trkpt>
<trkpt lat="33.8096808" lon="-118.3944322">
  <ele>-35.045</ele>
  <time>2026-09-01T01:13:46Z</time>
  <course>176.93</course>
  <speed>0.8502352615599991</speed>
  <fix>3d</fix>
</trkpt>
<trkpt lat="33.8096816" lon="-118.3944318">
  <ele>-34.22</ele>
  <time>2026-09-01T01:13:46Z</time>
  <course>179.67</course>
  <speed>0.87</speed>
  <fix>3d</fix>
</trkpt>
<trkpt lat="33.80968" lon="-118.3944322">
  <ele>-35.035</ele>
  <time>2026-09-01T01:13:46Z</time>
  <course>177.04</course>
  <speed>0.8505292469985968</speed>
  <fix>3d</fix>
</trkpt>
<trkpt lat="33.8096816" lon="-118.3944318">
  <ele>-34.22</ele>
  <time>2026-09-01T01:13:46Z</time>
  <course>179.67</course>
  <speed>0.87</speed>
  <fix>3d</fix>
</trkpt>
<trkpt lat="33.8096792" lon="-118.3944322">
  <ele>-35.033</ele>
  <time>2026-09-01T01:13:46Z</time>
  <course>177.16</course>
  <speed>0.8505292469985968</speed>
  <fix>3d</fix>
</trkpt>
<trkpt lat="33.80968" lon="-118.3944318">
  <ele>-34.19</ele>
  <time>2026-09-01T01:13:46Z</time>
  <course>179.76</course>
  <speed>0.88</speed>
  <fix>3d</fix>
</trkpt>
<trkpt lat="33.8096784" lon="-118.3944322">
  <ele>-35.039</ele>
  <time>2026-09-01T01:13:46Z</time>
  <course>177.26</course>
  <speed>0.8505292469985968</speed>
  <fix>3d</fix>
</trkpt>
<trkpt lat="33.80968" lon="-118.3944318">
  <ele>-34.19</ele>
  <time>2026-09-01T01:13:46Z</time>
  <course>179.76</course>
  <speed>0.88</speed>
  <fix>3d</fix>
</trkpt>
<trkpt lat="33.8096776" lon="-118.3944321">
  <ele>-35.055</ele>
  <time>2026-09-01T01:13:46Z</time>
  <course>177.36</course>
  <speed>0.8505292469985968</speed>
  <fix>3d</fix>
</trkpt>
<trkpt lat="33.8096783" lon="-118.3944318">
  <ele>-34.19</ele>
  <time>2026-09-01T01:13:46Z</time>
  <course>179.85</course>
  <speed>0.88</speed>
  <fix>3d</fix>
</trkpt>
<trkpt lat="33.8096768" lon="-118.3944321">
  <ele>-35.08</ele>
  <time>2026-09-01T01:13:46Z</time>
  <course>177.45</course>
  <speed>0.8505292469985968</speed>
  <fix>3d</fix>
</trkpt>
<trkpt lat="33.8096783" lon="-118.3944318">
  <ele>-34.19</ele>
  <time>2026-09-01T01:13:46Z</time>
  <course>179.85</course>
  <speed>0.88</speed>
  <fix>3d</fix>
</trkpt>
<trkpt lat="33.809676" lon="-118.3944321">
  <ele>-35.113</ele>
  <time>2026-09-01T01:13:46Z</time>
  <course>177.53</course>
  <speed>0.8505292469985968</speed>
  <fix>3d</fix>
</trkpt>
<trkpt lat="33.8096768" lon="-118.3944318">
  <ele>-34.22</ele>
  <time>2026-09-01T01:13:46Z</time>
  <course>179.9</course>
  <speed>0.88</speed>
  <fix>3d</fix>
</trkpt>
<trkpt lat="33.8096752" lon="-118.3944321">
  <ele>-35.151</ele>
  <time>2026-09-01T01:13:46Z</time>
  <course>177.6</course>
  <speed>0.8505292469985968</speed>
  <fix>3d</fix>
</trkpt>
<trkpt lat="33.8096768" lon="-118.3944318">
  <ele>-34.22</ele>
  <time>2026-09-01T01:13:46Z</time>
  <course>179.9</course>
  <speed>0.88</speed>
  <fix>3d</fix>
</trkpt>
<trkpt lat="33.8096745" lon="-118.3944321">
  <ele>-35.193</ele>
  <time>2026-09-01T01:13:46Z</time>
  <course>177.66</course>
  <speed>0.8502352615599991</speed>
  <fix>3d</fix>
</trkpt>
<trkpt lat="33.8096752" lon="-118.3944318">
  <ele>-34.28</ele>
  <time>2026-09-01T01:13:46Z</time>
  <course>179.94</course>
  <speed>0.88</speed>
  <fix>3d</fix>
</trkpt>
<trkpt lat="33.8096737" lon="-118.3944321">
  <ele>-35.239</ele>
  <time>2026-09-01T01:13:46Z</time>
  <course>177.71</course>
  <speed>0.8505292469985968</speed>
  <fix>3d</fix>
</trkpt>
<trkpt lat="33.8096752" lon="-118.3944318">
  <ele>-34.28</ele>
  <time>2026-09-01T01:13:46Z</time>
  <course>179.94</course>
  <speed>0.88</speed>
  <fix>3d</fix>
</trkpt>
<trkpt lat="33.8096729" lon="-118.3944321">
  <ele>-35.287</ele>
  <time>2026-09-01T01:13:46Z</time>
  <course>177.77</course>
  <speed>0.8502352615599991</speed>
  <fix>3d</fix>
</trkpt>
<trkpt lat="33.8096736" lon="-118.3944318">
  <ele>-34.36</ele>
  <time>2026-09-01T01:13:46Z</time>
  <course>179.94</course>
  <speed>0.88</speed>
  <fix>3d</fix>
</trkpt>
<trkpt lat="33.8096721" lon="-118.3944321">
  <ele>-35.337</ele>
  <time>2026-09-01T01:13:46Z</time>
  <course>177.82</course>
  <speed>0.8502352615599991</speed>
  <fix>3d</fix>
</trkpt>
<trkpt lat="33.8096736" lon="-118.3944318">
  <ele>-34.36</ele>
  <time>2026-09-01T01:13:46Z</time>
  <course>179.94</course>
  <speed>0.88</speed>
  <fix>3d</fix>
</trkpt>
<trkpt lat="33.8096713" lon="-118.3944321">
  <ele>-35.388</ele>
  <time>2026-09-01T01:13:46Z</time>
  <course>177.87</course>
  <speed>0.8602325267042628</speed>
  <fix>3d</fix>
</trkpt>
<trkpt lat="33.8096721" lon="-118.3944318">
  <ele>-34.44</ele>
  <time>2026-09-01T01:13:46Z</time>
  <course>179.94</course>
  <speed>0.88</speed>
  <fix>3d</fix>
</trkpt>
<trkpt lat="33.8096705" lon="-118.3944321">
  <ele>-35.443</ele>
  <time>2026-09-01T01:13:46Z</time>
  <course>177.91</course>
  <speed>0.8602325267042628</speed>
  <fix>3d</fix>
</trkpt>
<trkpt lat="33.8096721" lon="-118.3944318">
  <ele>-34.44</ele>
  <time>2026-09-01T01:13:46Z</time>
  <course>179.94</course>
  <speed>0.88</speed>
  <fix>3d</fix>
</trkpt>
<trkpt lat="33.8096697" lon="-118.3944321">
  <ele>-35.502</ele>
  <time>2026-09-01T01:13:46Z</time>
  <course>177.96</course>
  <speed>0.8602325267042628</speed>
  <fix>3d</fix>
</trkpt>
<trkpt lat="33.8096704" lon="-118.3944318">
  <ele>-34.54</ele>
  <time>2026-09-01T01:13:46Z</time>
  <course>179.94</course>
  <speed>0.88</speed>
  <fix>3d</fix>
</trkpt>
<trkpt lat="33.8096689" lon="-118.3944321">
  <ele>-35.565</ele>
  <time>2026-09-01T01:13:46Z</time>
  <course>178.0</course>
  <speed>0.8602325267042628</speed>
  <fix>3d</fix>
</trkpt>
<trkpt lat="33.8096704" lon="-118.3944318">
  <ele>-34.54</ele>
  <time>2026-09-01T01:13:46Z</time>
  <course>179.94</course>
  <speed>0.88</speed>
  <fix>3d</fix>
</trkpt>
<trkpt lat="33.8096681" lon="-118.3944321">
  <ele>-35.629</ele>
  <time>2026-09-01T01:13:46Z</time>
  <course>178.04</course>
  <speed>0.8602325267042628</speed>
  <fix>3d</fix>
</trkpt>
<trkpt lat="33.8096689" lon="-118.3944318">
  <ele>-34.65</ele>
  <time>2026-09-01T01:13:46Z</time>
  <course>179.93</course>
  <speed>0.88</speed>
  <fix>3d</fix>
</trkpt>
<trkpt lat="33.8096673" lon="-118.3944321">
  <ele>-35.693</ele>
  <time>2026-09-01T01:13:46Z</time>
  <course>178.07</course>
  <speed>0.8602325267042628</speed>
  <fix>3d</fix>
</trkpt>
<trkpt lat="33.8096689" lon="-118.3944318">
  <ele>-34.65</ele>
  <time>2026-09-01T01:13:46Z</time>
  <course>179.93</course>
  <speed>0.88</speed>
  <fix>3d</fix>
</trkpt>
<trkpt lat="33.8096665" lon="-118.3944321">
  <ele>-35.757</ele>
  <time>2026-09-01T01:13:46Z</time>
  <course>178.12</course>
  <speed>0.8602325267042628</speed>
  <fix>3d</fix>
</trkpt>
<trkpt lat="33.8096673" lon="-118.3944318">
  <ele>-34.77</ele>
  <time>2026-09-01T01:13:46Z</time>
  <course>179.92</course>
  <speed>0.89</speed>
  <fix>3d</fix>
</trkpt>
<trkpt lat="33.8096657" lon="-118.3944321">
  <ele>-35.821</ele>
  <time>2026-09-01T01:13:46Z</time>
  <course>178.15</course>
  <speed>0.8602325267042628</speed>
  <fix>3d</fix>
</trkpt>
<trkpt lat="33.8096673" lon="-118.3944318">
  <ele>-34.77</ele>
  <time>2026-09-01T01:13:46Z</time>
  <course>179.92</course>
  <speed>0.89</speed>
  <fix>3d</fix>
</trkpt>
<trkpt lat="33.8096649" lon="-118.3944321">
  <ele>-35.885</ele>
  <time>2026-09-01T01:13:46Z</time>
  <course>178.19</course>
  <speed>0.8602325267042628</speed>
  <fix>3d</fix>
</trkpt>
<trkpt lat="33.8096656" lon="-118.3944318">
  <ele>-34.89</ele>
  <time>2026-09-01T01:13:46Z</time>
  <course>179.91</course>
  <speed>0.89</speed>
  <fix>3d</fix>
</trkpt>
<trkpt lat="33.8096641" lon="-118.3944321">
  <ele>-35.948</ele>
  <time>2026-09-01T01:13:46Z</time>
  <course>178.23</course>
  <speed>0.8602325267042628</speed>
  <fix>3d</fix>
</trkpt>
<trkpt lat="33.8096656" lon="-118.3944318">
  <ele>-34.89</ele>
  <time>2026-09-01T01:13:46Z</time>
  <course>179.91</course>
  <speed>0.89</speed>
  <fix>3d</fix>
</trkpt>
<trkpt lat="33.8096633" lon="-118.3944321">
  <ele>-36.009</ele>
  <time>2026-09-01T01:13:46Z</time>
  <course>178.27</course>
  <speed>0.8602325267042628</speed>
  <fix>3d</fix>
</trkpt>
<trkpt lat="33.8096641" lon="-118.3944318">
  <ele>-35.01</ele>
  <time>2026-09-01T01:13:46Z</time>
  <course>179.91</course>
  <speed>0.89</speed>
  <fix>3d</fix>
</trkpt>
<trkpt lat="33.8096625" lon="-118.3944321">
  <ele>-36.068</ele>
  <time>2026-09-01T01:13:46Z</time>
  <course>178.3</course>
  <speed>0.8602325267042628</speed>
  <fix>3d</fix>
</trkpt>
<trkpt lat="33.8096641" lon="-118.3944318">
  <ele>-35.01</ele>
  <time>2026-09-01T01:13:46Z</time>
  <course>179.91</course>
  <speed>0.89</speed>
  <fix>3d</fix>
</trkpt>
<trkpt lat="33.8096617" lon="-118.3944321">
  <ele>-36.124</ele>
  <time>2026-09-01T01:13:46Z</time>
  <course>178.34</course>
  <speed>0.8602325267042628</speed>
  <fix>3d</fix>
</trkpt>
<trkpt lat="33.8096625" lon="-118.3944318">
  <ele>-35.12</ele>
  <time>2026-09-01T01:13:46Z</time>
  <course>179.9</course>
  <speed>0.89</speed>
  <fix>3d</fix>
</trkpt>
<trkpt lat="33.8096609" lon="-118.3944321">
  <ele>-36.177</ele>
  <time>2026-09-01T01:13:46Z</time>
  <course>178.38</course>
  <speed>0.8602325267042628</speed>
  <fix>3d</fix>
</trkpt>
<trkpt lat="33.8096625" lon="-118.3944318">
  <ele>-35.12</ele>
  <time>2026-09-01T01:13:46Z</time>
  <course>179.9</course>
  <speed>0.89</speed>
  <fix>3d</fix>
</trkpt>
<trkpt lat="33.8096601" lon="-118.3944321">
  <ele>-36.225</ele>
  <time>2026-09-01T01:13:46Z</time>
  <course>178.42</course>
  <speed>0.8702298546935746</speed>
  <fix>3d</fix>
</trkpt>
<trkpt lat="33.8096608" lon="-118.3944318">
  <ele>-35.23</ele>
  <time>2026-09-01T01:13:46Z</time>
  <course>179.89</course>
  <speed>0.89</speed>
  <fix>3d</fix>
</trkpt>
<trkpt lat="33.8096593" lon="-118.3944321">
  <ele>-36.272</ele>
  <time>2026-09-01T01:13:46Z</time>
  <course>178.46</course>
  <speed>0.8702298546935746</speed>
  <fix>3d</fix>
</trkpt>
<trkpt lat="33.8096608" lon="-118.3944318">
  <ele>-35.23</ele>
  <time>2026-09-01T01:13:46Z</time>
  <course>179.89</course>
  <speed>0.89</speed>
  <fix>3d</fix>
</trkpt>
<trkpt lat="33.8096585" lon="-118.3944321">
  <ele>-36.319</ele>
  <time>2026-09-01T01:13:46Z</time>
  <course>178.5</course>
  <speed>0.8702298546935746</speed>
  <fix>3d</fix>
</trkpt>
<trkpt lat="33.8096592" lon="-118.3944318">
  <ele>-35.32</ele>
  <time>2026-09-01T01:13:46Z</time>
  <course>179.88</course>
  <speed>0.89</speed>
  <fix>3d</fix>
</trkpt>
<trkpt lat="33.8096577" lon="-118.3944321">
  <ele>-36.364</ele>
  <time>2026-09-01T01:13:46Z</time>
  <course>178.52</course>
  <speed>0.8702298546935746</speed>
  <fix>3d</fix>
</trkpt>
<trkpt lat="33.8096592" lon="-118.3944318">
  <ele>-35.32</ele>
  <time>2026-09-01T01:13:46Z</time>
  <course>179.88</course>
  <speed>0.89</speed>
  <fix>3d</fix>
</trkpt>
<trkpt lat="33.8096568" lon="-118.3944321">
  <ele>-36.407</ele>
  <time>2026-09-01T01:13:46Z</time>
  <course>178.56</course>
  <speed>0.8702298546935746</speed>
  <fix>3d</fix>
</trkpt>
<trkpt lat="33.8096575" lon="-118.3944318">
  <ele>-35.41</ele>
  <time>2026-09-01T01:13:46Z</time>
  <course>179.88</course>
  <speed>0.9</speed>
  <fix>3d</fix>
</trkpt>
<trkpt lat="33.809656" lon="-118.3944321">
  <ele>-36.446</ele>
  <time>2026-09-01T01:13:46Z</time>
  <course>178.59</course>
  <speed>0.8702298546935746</speed>
  <fix>3d</fix>
</trkpt>
<trkpt lat="33.8096575" lon="-118.3944318">
  <ele>-35.41</ele>
  <time>2026-09-01T01:13:46Z</time>
  <course>179.88</course>
  <speed>0.9</speed>
  <fix>3d</fix>
</trkpt>
<trkpt lat="33.8096552" lon="-118.3944321">
  <ele>-36.483</ele>
  <time>2026-09-01T01:13:46Z</time>
  <course>178.63</course>
  <speed>0.8702298546935746</speed>
  <fix>3d</fix>
</trkpt>
<trkpt lat="33.809656" lon="-118.3944318">
  <ele>-35.5</ele>
  <time>2026-09-01T01:13:46Z</time>
  <course>179.87</course>
  <speed>0.9</speed>
  <fix>3d</fix>
</trkpt>
<trkpt lat="33.8096544" lon="-118.3944321">
  <ele>-36.521</ele>
  <time>2026-09-01T01:13:46Z</time>
  <course>178.65</course>
  <speed>0.8702298546935746</speed>
  <fix>3d</fix>
</trkpt>
<trkpt lat="33.809656" lon="-118.3944318">
  <ele>-35.5</ele>
  <time>2026-09-01T01:13:46Z</time>
  <course>179.87</course>
  <speed>0.9</speed>
  <fix>3d</fix>
</trkpt>
<trkpt lat="33.8096536" lon="-118.3944321">
  <ele>-36.559</ele>
  <time>2026-09-01T01:13:46Z</time>
  <course>178.69</course>
  <speed>0.8702298546935746</speed>
  <fix>3d</fix>
</trkpt>
<trkpt lat="33.8096544" lon="-118.3944318">
  <ele>-35.57</ele>
  <time>2026-09-01T01:13:46Z</time>
  <course>179.85</course>
  <speed>0.9</speed>
  <fix>3d</fix>
</trkpt>
<trkpt lat="33.8096528" lon="-118.3944321">
  <ele>-36.599</ele>
  <time>2026-09-01T01:13:46Z</time>
  <course>178.72</course>
  <speed>0.8702298546935746</speed>
  <fix>3d</fix>
</trkpt>
<trkpt lat="33.8096544" lon="-118.3944318">
  <ele>-35.57</ele>
  <time>2026-09-01T01:13:46Z</time>
  <course>179.85</course>
  <speed>0.9</speed>
  <fix>3d</fix>
</trkpt>
<trkpt lat="33.809652" lon="-118.3944321">
  <ele>-36.64</ele>
  <time>2026-09-01T01:13:46Z</time>
  <course>178.76</course>
  <speed>0.8702298546935746</speed>
  <fix>3d</fix>
</trkpt>
<trkpt lat="33.8096527" lon="-118.3944318">
  <ele>-35.65</ele>
  <time>2026-09-01T01:13:46Z</time>
  <course>179.85</course>
  <speed>0.9</speed>
  <fix>3d</fix>
</trkpt>
<trkpt lat="33.8096512" lon="-118.3944321">
  <ele>-36.683</ele>
  <time>2026-09-01T01:13:46Z</time>
  <course>178.79</course>
  <speed>0.8702298546935746</speed>
  <fix>3d</fix>
</trkpt>
<trkpt lat="33.8096527" lon="-118.3944318">
  <ele>-35.65</ele>
  <time>2026-09-01T01:13:46Z</time>
  <course>179.85</course>
  <speed>0.9</speed>
  <fix>3d</fix>
</trkpt>
<trkpt lat="33.8096504" lon="-118.3944321">
  <ele>-36.727</ele>
  <time>2026-09-01T01:13:46Z</time>
  <course>178.83</course>
  <speed>0.8802272433866155</speed>
  <fix>3d</fix>
</trkpt>
<trkpt lat="33.8096511" lon="-118.3944318">
  <ele>-35.73</ele>
  <time>2026-09-01T01:13:46Z</time>
  <course>179.86</course>
  <speed>0.9</speed>
  <fix>3d</fix>
</trkpt>
<trkpt lat="33.8096495" lon="-118.3944321">
  <ele>-36.77</ele>
  <time>2026-09-01T01:13:46Z</time>
  <course>178.86</course>
  <speed>0.8802272433866155</speed>
  <fix>3d</fix>
</trkpt>
<trkpt lat="33.8096511" lon="-118.3944318">
  <ele>-35.73</ele>
  <time>2026-09-01T01:13:46Z</time>
  <course>179.86</course>
  <speed>0.9</speed>
  <fix>3d</fix>
</trkpt>
<trkpt lat="33.8096487" lon="-118.3944321">
  <ele>-36.81</ele>
  <time>2026-09-01T01:13:46Z</time>
  <course>178.89</course>
  <speed>0.8802272433866155</speed>
  <fix>3d</fix>
</trkpt>
<trkpt lat="33.8096495" lon="-118.3944317">
  <ele>-35.82</ele>
  <time>2026-09-01T01:13:46Z</time>
  <course>179.86</course>
  <speed>0.9</speed>
  <fix>3d</fix>
</trkpt>
<trkpt lat="33.8096479" lon="-118.3944321">
  <ele>-36.851</ele>
  <time>2026-09-01T01:13:46Z</time>
  <course>178.93</course>
  <speed>0.8802272433866155</speed>
  <fix>3d</fix>
</trkpt>
<trkpt lat="33.8096495" lon="-118.3944317">
  <ele>-35.82</ele>
  <time>2026-09-01T01:13:46Z</time>
  <course>179.86</course>
  <speed>0.9</speed>
  <fix>3d</fix>
</trkpt>
<trkpt lat="33.8096471" lon="-118.3944321">
  <ele>-36.893</ele>
  <time>2026-09-01T01:13:46Z</time>
  <course>178.99</course>
  <speed>0.8802272433866155</speed>
  <fix>3d</fix>
</trkpt>
<trkpt lat="33.8096479" lon="-118.3944317">
  <ele>-35.91</ele>
  <time>2026-09-01T01:13:46Z</time>
  <course>179.89</course>
  <speed>0.9</speed>
  <fix>3d</fix>
</trkpt>
<trkpt lat="33.8096463" lon="-118.3944321">
  <ele>-36.936</ele>
  <time>2026-09-01T01:13:46Z</time>
  <course>179.06</course>
  <speed>0.8802272433866155</speed>
  <fix>3d</fix>
</trkpt>
<trkpt lat="33.8096479" lon="-118.3944317">
  <ele>-35.91</ele>
  <time>2026-09-01T01:13:46Z</time>
  <course>179.89</course>
  <speed>0.9</speed>
  <fix>3d</fix>
</trkpt>
<trkpt lat="33.8096455" lon="-118.394432">
  <ele>-36.98</ele>
  <time>2026-09-01T01:13:46Z</time>
  <course>179.14</course>
  <speed>0.8802272433866155</speed>
  <fix>3d</fix>
</trkpt>
<trkpt lat="33.8096462" lon="-118.3944317">
  <ele>-35.99</ele>
  <time>2026-09-01T01:13:46Z</time>
  <course>179.99</course>
  <speed>0.9</speed>
  <fix>3d</fix>
</trkpt>
<trkpt lat="33.8096446" lon="-118.394432">
  <ele>-37.025</ele>
  <time>2026-09-01T01:13:46Z</time>
  <course>179.21</course>
  <speed>0.8802272433866155</speed>
  <fix>3d</fix>
</trkpt>
<trkpt lat="33.8096462" lon="-118.3944317">
  <ele>-35.99</ele>
  <time>2026-09-01T01:13:46Z</time>
  <course>179.99</course>
  <speed>0.9</speed>
  <fix>3d</fix>
</trkpt>
<trkpt lat="33.8096438" lon="-118.394432">
  <ele>-37.069</ele>
  <time>2026-09-01T01:13:46Z</time>
  <course>179.29</course>
  <speed>0.8802272433866155</speed>
  <fix>3d</fix>
</trkpt>
<trkpt lat="33.8096446" lon="-118.3944317">
  <ele>-36.08</ele>
  <time>2026-09-01T01:13:46Z</time>
  <course>180.08</course>
  <speed>0.91</speed>
  <fix>3d</fix>
</trkpt>
<trkpt lat="33.809643" lon="-118.394432">
  <ele>-37.113</ele>
  <time>2026-09-01T01:13:46Z</time>
  <course>179.35</course>
  <speed>0.8802272433866155</speed>
  <fix>3d</fix>
</trkpt>
<trkpt lat="33.8096446" lon="-118.3944317">
  <ele>-36.08</ele>
  <time>2026-09-01T01:13:46Z</time>
  <course>180.08</course>
  <speed>0.91</speed>
  <fix>3d</fix>
</trkpt>
<trkpt lat="33.8096422" lon="-118.394432">
  <ele>-37.159</ele>
  <time>2026-09-01T01:13:46Z</time>
  <course>179.42</course>
  <speed>0.8902246907382428</speed>
  <fix>3d</fix>
</trkpt>
<trkpt lat="33.8096429" lon="-118.3944317">
  <ele>-36.17</ele>
  <time>2026-09-01T01:13:46Z</time>
  <course>180.15</course>
  <speed>0.91</speed>
  <fix>3d</fix>
</trkpt>
<trkpt lat="33.8096413" lon="-118.394432">
  <ele>-37.205</ele>
  <time>2026-09-01T01:13:46Z</time>
  <course>179.47</course>
  <speed>0.8902246907382428</speed>
  <fix>3d</fix>
</trkpt>
<trkpt lat="33.8096429" lon="-118.3944317">
  <ele>-36.17</ele>
  <time>2026-09-01T01:13:46Z</time>
  <course>180.15</course>
  <speed>0.91</speed>
  <fix>3d</fix>
</trkpt>
<trkpt lat="33.8096405" lon="-118.394432">
  <ele>-37.251</ele>
  <time>2026-09-01T01:13:46Z</time>
  <course>179.53</course>
  <speed>0.8902246907382428</speed>
  <fix>3d</fix>
</trkpt>
<trkpt lat="33.8096413" lon="-118.3944317">
  <ele>-36.25</ele>
  <time>2026-09-01T01:13:46Z</time>
  <course>180.2</course>
  <speed>0.91</speed>
  <fix>3d</fix>
</trkpt>
<trkpt lat="33.8096397" lon="-118.394432">
  <ele>-37.299</ele>
  <time>2026-09-01T01:13:46Z</time>
  <course>179.57</course>
  <speed>0.8902246907382428</speed>
  <fix>3d</fix>
</trkpt>
<trkpt lat="33.8096413" lon="-118.3944317">
  <ele>-36.25</ele>
  <time>2026-09-01T01:13:46Z</time>
  <course>180.2</course>
  <speed>0.91</speed>
  <fix>3d</fix>
</trkpt>
<trkpt lat="33.8096389" lon="-118.394432">
  <ele>-37.346</ele>
  <time>2026-09-01T01:13:46Z</time>
  <course>179.61</course>
  <speed>0.8702298546935746</speed>
  <fix>3d</fix>
</trkpt>
<trkpt lat="33.8096397" lon="-118.3944317">
  <ele>-36.34</ele>
  <time>2026-09-01T01:13:46Z</time>
  <course>180.23</course>
  <speed>0.91</speed>
  <fix>3d</fix>
</trkpt>
<trkpt lat="33.8096381" lon="-118.394432">
  <ele>-37.391</ele>
  <time>2026-09-01T01:13:46Z</time>
  <course>179.64</course>
  <speed>0.8202438661763951</speed>
  <fix>3d</fix>
</trkpt>
<trkpt lat="33.8096397" lon="-118.3944317">
  <ele>-36.34</ele>
  <time>2026-09-01T01:13:46Z</time>
  <course>180.23</course>
  <speed>0.91</speed>
  <fix>3d</fix>
</trkpt>
<trkpt lat="33.8096374" lon="-118.394432">
  <ele>-37.436</ele>
  <time>2026-09-01T01:13:46Z</time>
  <course>179.69</course>
  <speed>0.7502666192761077</speed>
  <fix>3d</fix>
</trkpt>
<trkpt lat="33.8096381" lon="-118.3944317">
  <ele>-36.43</ele>
  <time>2026-09-01T01:13:46Z</time>
  <course>180.26</course>
  <speed>0.88</speed>
  <fix>3d</fix>
</trkpt>
<trkpt lat="33.8096366" lon="-118.394432">
  <ele>-37.479</ele>
  <time>2026-09-01T01:13:46Z</time>
  <course>179.73</course>
  <speed>0.7802563681252463</speed>
  <fix>3d</fix>
</trkpt>
<trkpt lat="33.8096381" lon="-118.3944317">
  <ele>-36.43</ele>
  <time>2026-09-01T01:13:46Z</time>
  <course>180.26</course>
  <speed>0.88</speed>
  <fix>3d</fix>
</trkpt>
<trkpt lat="33.8096359" lon="-118.394432">
  <ele>-37.522</ele>
  <time>2026-09-01T01:13:46Z</time>
  <course>179.77</course>
  <speed>0.8002499609497022</speed>
  <fix>3d</fix>
</trkpt>
<trkpt lat="33.8096366" lon="-118.3944317">
  <ele>-36.52</ele>
  <time>2026-09-01T01:13:46Z</time>
  <course>180.32</course>
  <speed>0.83</speed>
  <fix>3d</fix>
</trkpt>
<trkpt lat="33.8096351" lon="-118.394432">
  <ele>-37.566</ele>
  <time>2026-09-01T01:13:46Z</time>
  <course>179.8</course>
  <speed>0.7902531240052139</speed>
  <fix>3d</fix>
</trkpt>
<trkpt lat="33.8096366" lon="-118.3944317">
  <ele>-36.52</ele>
  <time>2026-09-01T01:13:46Z</time>
  <course>180.32</course>
  <speed>0.83</speed>
  <fix>3d</fix>
</trkpt>
<trkpt lat="33.8096345" lon="-118.394432">
  <ele>-37.608</ele>
  <time>2026-09-01T01:13:46Z</time>
  <course>179.83</course>
  <speed>0.6702984409947557</speed>
  <fix>3d</fix>
</trkpt>
<trkpt lat="33.8096351" lon="-118.3944317">
  <ele>-36.61</ele>
  <time>2026-09-01T01:13:46Z</time>
  <course>180.39</course>
  <speed>0.79</speed>
  <fix>3d</fix>
</trkpt>
<trkpt lat="33.8096338" lon="-118.394432">
  <ele>-37.648</ele>
  <time>2026-09-01T01:13:46Z</time>
  <course>179.87</course>
  <speed>0.7202777242147643</speed>
  <fix>3d</fix>
</trkpt>
<trkpt lat="33.8096351" lon="-118.3944317">
  <ele>-36.61</ele>
  <time>2026-09-01T01:13:46Z</time>
  <course>180.39</course>
  <speed>0.79</speed>
  <fix>3d</fix>
</trkpt>
<trkpt lat="33.8096331" lon="-118.394432">
  <ele>-37.69</ele>
  <time>2026-09-01T01:13:46Z</time>
  <course>179.91</course>
  <speed>0.7502666192761077</speed>
  <fix>3d</fix>
</trkpt>
<trkpt lat="33.8096337" lon="-118.3944317">
  <ele>-36.7</ele>
  <time>2026-09-01T01:13:46Z</time>
  <course>180.43</course>
  <speed>0.76</speed>
  <fix>3d</fix>
</trkpt>
<trkpt lat="33.8096324" lon="-118.394432">
  <ele>-37.733</ele>
  <time>2026-09-01T01:13:46Z</time>
  <course>179.94</course>
  <speed>0.7802563681252463</speed>
  <fix>3d</fix>
</trkpt>
<trkpt lat="33.8096337" lon="-118.3944317">
  <ele>-36.7</ele>
  <time>2026-09-01T01:13:46Z</time>
  <course>180.43</course>
  <speed>0.76</speed>
  <fix>3d</fix>
</trkpt>
<trkpt lat="33.8096317" lon="-118.394432">
  <ele>-37.776</ele>
  <time>2026-09-01T01:13:46Z</time>
  <course>179.96</course>
  <speed>0.8002499609497022</speed>
  <fix>3d</fix>
</trkpt>
<trkpt lat="33.8096324" lon="-118.3944317">
  <ele>-36.78</ele>
  <time>2026-09-01T01:13:46Z</time>
  <course>180.41</course>
  <speed>0.78</speed>
  <fix>3d</fix>
</trkpt>
<trkpt lat="33.8096309" lon="-118.394432">
  <ele>-37.821</ele>
  <time>2026-09-01T01:13:46Z</time>
  <course>179.96</course>
  <speed>0.8202438661763951</speed>
  <fix>3d</fix>
</trkpt>
<trkpt lat="33.8096324" lon="-118.3944317">
  <ele>-36.78</ele>
  <time>2026-09-01T01:13:46Z</time>
  <course>180.41</course>
  <speed>0.78</speed>
  <fix>3d</fix>
</trkpt>
<trkpt lat="33.8096302" lon="-118.394432">
  <ele>-37.865</ele>
  <time>2026-09-01T01:13:46Z</time>
  <course>179.98</course>
  <speed>0.8302409288875127</speed>
  <fix>3d</fix>
</trkpt>
<trkpt lat="33.8096309" lon="-118.3944317">
  <ele>-36.86</ele>
  <time>2026-09-01T01:13:46Z</time>
  <course>180.37</course>
  <speed>0.82</speed>
  <fix>3d</fix>
</trkpt>
<trkpt lat="33.8096294" lon="-118.394432">
  <ele>-37.909</ele>
  <time>2026-09-01T01:13:46Z</time>
  <course>179.98</course>
  <speed>0.8502352615599991</speed>
  <fix>3d</fix>
</trkpt>
<trkpt lat="33.8096309" lon="-118.3944317">
  <ele>-36.86</ele>
  <time>2026-09-01T01:13:46Z</time>
  <course>180.37</course>
  <speed>0.82</speed>
  <fix>3d</fix>
</trkpt>
<trkpt lat="33.8096286" lon="-118.394432">
  <ele>-37.954</ele>
  <time>2026-09-01T01:13:46Z</time>
  <course>179.99</course>
  <speed>0.8602325267042628</speed>
  <fix>3d</fix>
</trkpt>
<trkpt lat="33.8096294" lon="-118.3944317">
  <ele>-36.96</ele>
  <time>2026-09-01T01:13:46Z</time>
  <course>180.35</course>
  <speed>0.86</speed>
  <fix>3d</fix>
</trkpt>
<trkpt lat="33.8096278" lon="-118.394432">
  <ele>-38.0</ele>
  <time>2026-09-01T01:13:46Z</time>
  <course>180.01</course>
  <speed>0.8702298546935746</speed>
  <fix>3d</fix>
</trkpt>
<trkpt lat="33.8096294" lon="-118.3944317">
  <ele>-36.96</ele>
  <time>2026-09-01T01:13:46Z</time>
  <course>180.35</course>
  <speed>0.86</speed>
  <fix>3d</fix>
</trkpt>
<trkpt lat="33.809627" lon="-118.394432">
  <ele>-38.046</ele>
  <time>2026-09-01T01:13:46Z</time>
  <course>180.02</course>
  <speed>0.8802272433866155</speed>
  <fix>3d</fix>
</trkpt>
<trkpt lat="33.8096278" lon="-118.3944317">
  <ele>-37.05</ele>
  <time>2026-09-01T01:13:46Z</time>
  <course>180.35</course>
  <speed>0.88</speed>
  <fix>3d</fix>
</trkpt>
<trkpt lat="33.8096262" lon="-118.394432">
  <ele>-38.091</ele>
  <time>2026-09-01T01:13:46Z</time>
  <course>180.03</course>
  <speed>0.8802272433866155</speed>
  <fix>3d</fix>
</trkpt>
<trkpt lat="33.8096278" lon="-118.3944317">
  <ele>-37.05</ele>
  <time>2026-09-01T01:13:46Z</time>
  <course>180.35</course>
  <speed>0.88</speed>
  <fix>3d</fix>
</trkpt>
<trkpt lat="33.8096254" lon="-118.394432">
  <ele>-38.134</ele>
  <time>2026-09-01T01:13:46Z</time>
  <course>180.04</course>
  <speed>0.8902246907382428</speed>
  <fix>3d</fix>
</trkpt>
<trkpt lat="33.8096261" lon="-118.3944318">
  <ele>-37.14</ele>
  <time>2026-09-01T01:13:46Z</time>
  <course>180.35</course>
  <speed>0.9</speed>
  <fix>3d</fix>
</trkpt>
<trkpt lat="33.8096245" lon="-118.394432">
  <ele>-38.177</ele>
  <time>2026-09-01T01:13:46Z</time>
  <course>180.04</course>
  <speed>0.900222194794152</speed>
  <fix>3d</fix>
</trkpt>
<trkpt lat="33.8096261" lon="-118.3944318">
  <ele>-37.14</ele>
  <time>2026-09-01T01:13:46Z</time>
  <course>180.35</course>
  <speed>0.9</speed>
  <fix>3d</fix>
</trkpt>
<trkpt lat="33.8096237" lon="-118.394432">
  <ele>-38.218</ele>
  <time>2026-09-01T01:13:46Z</time>
  <course>180.03</course>
  <speed>0.900222194794152</speed>
  <fix>3d</fix>
</trkpt>
<trkpt lat="33.8096245" lon="-118.3944318">
  <ele>-37.23</ele>
  <time>2026-09-01T01:13:46Z</time>
  <course>180.31</course>
  <speed>0.91</speed>
  <fix>3d</fix>
</trkpt>
<trkpt lat="33.8096229" lon="-118.394432">
  <ele>-38.259</ele>
  <time>2026-09-01T01:13:46Z</time>
  <course>179.99</course>
  <speed>0.900222194794152</speed>
  <fix>3d</fix>
</trkpt>
<trkpt lat="33.8096245" lon="-118.3944318">
  <ele>-37.23</ele>
  <time>2026-09-01T01:13:46Z</time>
  <course>180.31</course>
  <speed>0.91</speed>
  <fix>3d</fix>
</trkpt>
<trkpt lat="33.809622" lon="-118.394432">
  <ele>-38.3</ele>
  <time>2026-09-01T01:13:46Z</time>
  <course>179.96</course>
  <speed>0.9102197536858887</speed>
  <fix>3d</fix>
</trkpt>
<trkpt lat="33.8096228" lon="-118.3944318">
  <ele>-37.3</ele>
  <time>2026-09-01T01:13:46Z</time>
  <course>180.21</course>
  <speed>0.92</speed>
  <fix>3d</fix>
</trkpt>
<trkpt lat="33.8096212" lon="-118.394432">
  <ele>-38.341</ele>
  <time>2026-09-01T01:13:46Z</time>
  <course>179.92</course>
  <speed>0.9102197536858887</speed>
  <fix>3d</fix>
</trkpt>
<trkpt lat="33.8096228" lon="-118.3944318">
  <ele>-37.3</ele>
  <time>2026-09-01T01:13:46Z</time>
  <course>180.21</course>
  <speed>0.92</speed>
  <fix>3d</fix>
</trkpt>
<trkpt lat="33.8096203" lon="-118.394432">
  <ele>-38.383</ele>
  <time>2026-09-01T01:13:46Z</time>
  <course>179.9</course>
  <speed>0.9102197536858887</speed>
  <fix>3d</fix>
</trkpt>
<trkpt lat="33.8096212" lon="-118.3944318">
  <ele>-37.39</ele>
  <time>2026-09-01T01:13:46Z</time>
  <course>180.13</course>
  <speed>0.93</speed>
  <fix>3d</fix>
</trkpt>
<trkpt lat="33.8096195" lon="-118.394432">
  <ele>-38.427</ele>
  <time>2026-09-01T01:13:46Z</time>
  <course>179.87</course>
  <speed>0.9102197536858887</speed>
  <fix>3d</fix>
</trkpt>
<trkpt lat="33.8096212" lon="-118.3944318">
  <ele>-37.39</ele>
  <time>2026-09-01T01:13:46Z</time>
  <course>180.13</course>
  <speed>0.93</speed>
  <fix>3d</fix>
</trkpt>
<trkpt lat="33.8096186" lon="-118.394432">
  <ele>-38.473</ele>
  <time>2026-09-01T01:13:46Z</time>
  <course>179.85</course>
  <speed>0.9100549433962765</speed>
  <fix>3d</fix>
</trkpt>
<trkpt lat="33.8096195" lon="-118.3944318">
  <ele>-37.47</ele>
  <time>2026-09-01T01:13:46Z</time>
  <course>180.08</course>
  <speed>0.93</speed>
  <fix>3d</fix>
</trkpt>
<trkpt lat="33.8096178" lon="-118.394432">
  <ele>-38.52</ele>
  <time>2026-09-01T01:13:46Z</time>
  <course>179.83</course>
  <speed>0.9202173656261873</speed>
  <fix>3d</fix>
</trkpt>
<trkpt lat="33.8096195" lon="-118.3944318">
  <ele>-37.47</ele>
  <time>2026-09-01T01:13:46Z</time>
  <course>180.08</course>
  <speed>0.93</speed>
  <fix>3d</fix>
</trkpt>
<trkpt lat="33.8096169" lon="-118.394432">
  <ele>-38.568</ele>
  <time>2026-09-01T01:13:46Z</time>
  <course>179.82</course>
  <speed>0.9200543462209175</speed>
  <fix>3d</fix>
</trkpt>
<trkpt lat="33.8096178" lon="-118.3944318">
  <ele>-37.55</ele>
  <time>2026-09-01T01:13:46Z</time>
  <course>180.04</course>
  <speed>0.94</speed>
  <fix>3d</fix>
</trkpt>
<trkpt lat="33.8096161" lon="-118.394432">
  <ele>-38.616</ele>
  <time>2026-09-01T01:13:46Z</time>
  <course>179.82</course>
  <speed>0.9200543462209175</speed>
  <fix>3d</fix>
</trkpt>
<trkpt lat="33.8096178" lon="-118.3944318">
  <ele>-37.55</ele>
  <time>2026-09-01T01:13:46Z</time>
  <course>180.04</course>
  <speed>0.94</speed>
  <fix>3d</fix>
</trkpt>
<trkpt lat="33.8096152" lon="-118.394432">
  <ele>-38.661</ele>
  <time>2026-09-01T01:13:46Z</time>
  <course>179.82</course>
  <speed>0.9200543462209175</speed>
  <fix>3d</fix>
</trkpt>
<trkpt lat="33.8096161" lon="-118.3944318">
  <ele>-37.64</ele>
  <time>2026-09-01T01:13:46Z</time>
  <course>180.02</course>
  <speed>0.94</speed>
  <fix>3d</fix>
</trkpt>
<trkpt lat="33.8096144" lon="-118.394432">
  <ele>-38.707</ele>
  <time>2026-09-01T01:13:46Z</time>
  <course>179.82</course>
  <speed>0.9200543462209175</speed>
  <fix>3d</fix>
</trkpt>
<trkpt lat="33.8096161" lon="-118.3944318">
  <ele>-37.64</ele>
  <time>2026-09-01T01:13:46Z</time>
  <course>180.02</course>
  <speed>0.94</speed>
  <fix>3d</fix>
</trkpt>
<trkpt lat="33.8096135" lon="-118.394432">
  <ele>-38.754</ele>
  <time>2026-09-01T01:13:46Z</time>
  <course>179.83</course>
  <speed>0.9200543462209175</speed>
  <fix>3d</fix>
</trkpt>
<trkpt lat="33.8096144" lon="-118.3944318">
  <ele>-37.73</ele>
  <time>2026-09-01T01:13:46Z</time>
  <course>180.02</course>
  <speed>0.94</speed>
  <fix>3d</fix>
</trkpt>
<trkpt lat="33.8096127" lon="-118.394432">
  <ele>-38.802</ele>
  <time>2026-09-01T01:13:46Z</time>
  <course>179.83</course>
  <speed>0.9200543462209175</speed>
  <fix>3d</fix>
</trkpt>
<trkpt lat="33.8096144" lon="-118.3944318">
  <ele>-37.73</ele>
  <time>2026-09-01T01:13:46Z</time>
  <course>180.02</course>
  <speed>0.94</speed>
  <fix>3d</fix>
</trkpt>
<trkpt lat="33.8096118" lon="-118.394432">
  <ele>-38.849</ele>
  <time>2026-09-01T01:13:46Z</time>
  <course>179.84</course>
  <speed>0.9200543462209175</speed>
  <fix>3d</fix>
</trkpt>
<trkpt lat="33.8096127" lon="-118.3944318">
  <ele>-37.82</ele>
  <time>2026-09-01T01:13:46Z</time>
  <course>180.0</course>
  <speed>0.94</speed>
  <fix>3d</fix>
</trkpt>
<trkpt lat="33.809611" lon="-118.394432">
  <ele>-38.895</ele>
  <time>2026-09-01T01:13:46Z</time>
  <course>179.84</course>
  <speed>0.9200543462209175</speed>
  <fix>3d</fix>
</trkpt>
<trkpt lat="33.8096127" lon="-118.3944318">
  <ele>-37.82</ele>
  <time>2026-09-01T01:13:46Z</time>
  <course>180.0</course>
  <speed>0.94</speed>
  <fix>3d</fix>
</trkpt>
<trkpt lat="33.8096101" lon="-118.394432">
  <ele>-38.938</ele>
  <time>2026-09-01T01:13:46Z</time>
  <course>179.85</course>
  <speed>0.9200543462209175</speed>
  <fix>3d</fix>
</trkpt>
<trkpt lat="33.809611" lon="-118.3944318">
  <ele>-37.91</ele>
  <time>2026-09-01T01:13:46Z</time>
  <course>179.98</course>
  <speed>0.94</speed>
  <fix>3d</fix>
</trkpt>
<trkpt lat="33.8096093" lon="-118.394432">
  <ele>-38.978</ele>
  <time>2026-09-01T01:13:46Z</time>
  <course>179.86</course>
  <speed>0.9200543462209175</speed>
  <fix>3d</fix>
</trkpt>
<trkpt lat="33.809611" lon="-118.3944318">
  <ele>-37.91</ele>
  <time>2026-09-01T01:13:46Z</time>
  <course>179.98</course>
  <speed>0.94</speed>
  <fix>3d</fix>
</trkpt>
<trkpt lat="33.8096084" lon="-118.394432">
  <ele>-39.019</ele>
  <time>2026-09-01T01:13:46Z</time>
  <course>179.87</course>
  <speed>0.9200543462209175</speed>
  <fix>3d</fix>
</trkpt>
<trkpt lat="33.8096093" lon="-118.3944318">
  <ele>-37.99</ele>
  <time>2026-09-01T01:13:46Z</time>
  <course>179.95</course>
  <speed>0.94</speed>
  <fix>3d</fix>
</trkpt>
<trkpt lat="33.8096076" lon="-118.394432">
  <ele>-39.062</ele>
  <time>2026-09-01T01:13:46Z</time>
  <course>179.89</course>
  <speed>0.9200543462209175</speed>
  <fix>3d</fix>
</trkpt>
<trkpt lat="33.8096093" lon="-118.3944318">
  <ele>-37.99</ele>
  <time>2026-09-01T01:13:46Z</time>
  <course>179.95</course>
  <speed>0.94</speed>
  <fix>3d</fix>
</trkpt>
<trkpt lat="33.8096067" lon="-118.394432">
  <ele>-39.106</ele>
  <time>2026-09-01T01:13:46Z</time>
  <course>179.9</course>
  <speed>0.9200543462209175</speed>
  <fix>3d</fix>
</trkpt>
<trkpt lat="33.8096076" lon="-118.3944318">
  <ele>-38.08</ele>
  <time>2026-09-01T01:13:46Z</time>
  <course>179.93</course>
  <speed>0.94</speed>
  <fix>3d</fix>
</trkpt>
<trkpt lat="33.8096058" lon="-118.394432">
  <ele>-39.152</ele>
  <time>2026-09-01T01:13:46Z</time>
  <course>179.92</course>
  <speed>0.9200543462209175</speed>
  <fix>3d</fix>
</trkpt>
<trkpt lat="33.8096076" lon="-118.3944318">
  <ele>-38.08</ele>
  <time>2026-09-01T01:13:46Z</time>
  <course>179.93</course>
  <speed>0.94</speed>
  <fix>3d</fix>
</trkpt>
<trkpt lat="33.809605" lon="-118.394432">
  <ele>-39.198</ele>
  <time>2026-09-01T01:13:46Z</time>
  <course>179.93</course>
  <speed>0.9200543462209175</speed>
  <fix>3d</fix>
</trkpt>
<trkpt lat="33.8096059" lon="-118.3944318">
  <ele>-38.16</ele>
  <time>2026-09-01T01:13:46Z</time>
  <course>179.93</course>
  <speed>0.94</speed>
  <fix>3d</fix>
</trkpt>
<trkpt lat="33.8096041" lon="-118.394432">
  <ele>-39.247</ele>
  <time>2026-09-01T01:13:46Z</time>
  <course>179.95</course>
  <speed>0.9200543462209175</speed>
  <fix>3d</fix>
</trkpt>
<trkpt lat="33.8096059" lon="-118.3944318">
  <ele>-38.16</ele>
  <time>2026-09-01T01:13:46Z</time>
  <course>179.93</course>
  <speed>0.94</speed>
  <fix>3d</fix>
</trkpt>
<trkpt lat="33.8096033" lon="-118.394432">
  <ele>-39.298</ele>
  <time>2026-09-01T01:13:46Z</time>
  <course>179.96</course>
  <speed>0.9300537618869137</speed>
  <fix>3d</fix>
</trkpt>
<trkpt lat="33.8096042" lon="-118.3944318">
  <ele>-38.26</ele>
  <time>2026-09-01T01:13:46Z</time>
  <course>179.93</course>
  <speed>0.95</speed>
  <fix>3d</fix>
</trkpt>
<trkpt lat="33.8096024" lon="-118.394432">
  <ele>-39.35</ele>
  <time>2026-09-01T01:13:46Z</time>
  <course>179.97</course>
  <speed>0.9300537618869137</speed>
  <fix>3d</fix>
</trkpt>
<trkpt lat="33.8096042" lon="-118.3944318">
  <ele>-38.26</ele>
  <time>2026-09-01T01:13:46Z</time>
  <course>179.93</course>
  <speed>0.95</speed>
  <fix>3d</fix>
</trkpt>
<trkpt lat="33.8096016" lon="-118.394432">
  <ele>-39.401</ele>
  <time>2026-09-01T01:13:46Z</time>
  <course>179.98</course>
  <speed>0.9300537618869137</speed>
  <fix>3d</fix>
</trkpt>
<trkpt lat="33.8096025" lon="-118.3944318">
  <ele>-38.35</ele>
  <time>2026-09-01T01:13:46Z</time>
  <course>179.93</course>
  <speed>0.95</speed>
  <fix>3d</fix>
</trkpt>
<trkpt lat="33.8096007" lon="-118.394432">
  <ele>-39.452</ele>
  <time>2026-09-01T01:13:46Z</time>
  <course>180.01</course>
  <speed>0.9300537618869137</speed>
  <fix>3d</fix>
</trkpt>
<trkpt lat="33.8096025" lon="-118.3944318">
  <ele>-38.35</ele>
  <time>2026-09-01T01:13:46Z</time>
  <course>179.93</course>
  <speed>0.95</speed>
  <fix>3d</fix>
</trkpt>
<trkpt lat="33.8095999" lon="-118.394432">
  <ele>-39.501</ele>
  <time>2026-09-01T01:13:46Z</time>
  <course>180.02</course>
  <speed>0.9300537618869137</speed>
  <fix>3d</fix>
</trkpt>
<trkpt lat="33.8096008" lon="-118.3944318">
  <ele>-38.45</ele>
  <time>2026-09-01T01:13:46Z</time>
  <course>179.91</course>
  <speed>0.95</speed>
  <fix>3d</fix>
</trkpt>
<trkpt lat="33.809599" lon="-118.394432">
  <ele>-39.549</ele>
  <time>2026-09-01T01:13:46Z</time>
  <course>180.03</course>
  <speed>0.9300537618869137</speed>
  <fix>3d</fix>
</trkpt>
<trkpt lat="33.8096008" lon="-118.3944318">
  <ele>-38.45</ele>
  <time>2026-09-01T01:13:46Z</time>
  <course>179.91</course>
  <speed>0.95</speed>
  <fix>3d</fix>
</trkpt>
<trkpt lat="33.8095982" lon="-118.394432">
  <ele>-39.597</ele>
  <time>2026-09-01T01:13:46Z</time>
  <course>180.04</course>
  <speed>0.9300537618869137</speed>
  <fix>3d</fix>
</trkpt>
<trkpt lat="33.8095991" lon="-118.3944318">
  <ele>-38.54</ele>
  <time>2026-09-01T01:13:46Z</time>
  <course>179.89</course>
  <speed>0.95</speed>
  <fix>3d</fix>
</trkpt>
<trkpt lat="33.8095973" lon="-118.394432">
  <ele>-39.644</ele>
  <time>2026-09-01T01:13:46Z</time>
  <course>180.06</course>
  <speed>0.9300537618869137</speed>
  <fix>3d</fix>
</trkpt>
<trkpt lat="33.8095991" lon="-118.3944318">
  <ele>-38.54</ele>
  <time>2026-09-01T01:13:46Z</time>
  <course>179.89</course>
  <speed>0.95</speed>
  <fix>3d</fix>
</trkpt>
<trkpt lat="33.8095964" lon="-118.394432">
  <ele>-39.693</ele>
  <time>2026-09-01T01:13:46Z</time>
  <course>180.07</course>
  <speed>0.9300537618869137</speed>
  <fix>3d</fix>
</trkpt>
<trkpt lat="33.8095974" lon="-118.3944318">
  <ele>-38.64</ele>
  <time>2026-09-01T01:13:46Z</time>
  <course>179.88</course>
  <speed>0.95</speed>
  <fix>3d</fix>
</trkpt>
<trkpt lat="33.8095956" lon="-118.394432">
  <ele>-39.741</ele>
  <time>2026-09-01T01:13:46Z</time>
  <course>180.08</course>
  <speed>0.9300537618869137</speed>
  <fix>3d</fix>
</trkpt>
<trkpt lat="33.8095974" lon="-118.3944318">
  <ele>-38.64</ele>
  <time>2026-09-01T01:13:46Z</time>
  <course>179.88</course>
  <speed>0.95</speed>
  <fix>3d</fix>
</trkpt>
<trkpt lat="33.8095947" lon="-118.394432">
  <ele>-39.791</ele>
  <time>2026-09-01T01:13:46Z</time>
  <course>180.09</course>
  <speed>0.9300537618869137</speed>
  <fix>3d</fix>
</trkpt>
<trkpt lat="33.8095957" lon="-118.3944318">
  <ele>-38.73</ele>
  <time>2026-09-01T01:13:46Z</time>
  <course>179.87</course>
  <speed>0.95</speed>
  <fix>3d</fix>
</trkpt>
<trkpt lat="33.8095939" lon="-118.394432">
  <ele>-39.841</ele>
  <time>2026-09-01T01:13:46Z</time>
  <course>180.1</course>
  <speed>0.9300537618869137</speed>
  <fix>3d</fix>
</trkpt>
<trkpt lat="33.8095957" lon="-118.3944318">
  <ele>-38.73</ele>
  <time>2026-09-01T01:13:46Z</time>
  <course>179.87</course>
  <speed>0.95</speed>
  <fix>3d</fix>
</trkpt>
<trkpt lat="33.809593" lon="-118.394432">
  <ele>-39.891</ele>
  <time>2026-09-01T01:13:46Z</time>
  <course>180.12</course>
  <speed>0.9300537618869137</speed>
  <fix>3d</fix>
</trkpt>
<trkpt lat="33.8095939" lon="-118.3944318">
  <ele>-38.83</ele>
  <time>2026-09-01T01:13:46Z</time>
  <course>179.84</course>
  <speed>0.95</speed>
  <fix>3d</fix>
</trkpt>
<trkpt lat="33.8095921" lon="-118.394432">
  <ele>-39.941</ele>
  <time>2026-09-01T01:13:46Z</time>
  <course>180.13</course>
  <speed>0.9300537618869137</speed>
  <fix>3d</fix>
</trkpt>
<trkpt lat="33.8095939" lon="-118.3944318">
  <ele>-38.83</ele>
  <time>2026-09-01T01:13:46Z</time>
  <course>179.84</course>
  <speed>0.95</speed>
  <fix>3d</fix>
</trkpt>
<trkpt lat="33.8095913" lon="-118.394432">
  <ele>-39.992</ele>
  <time>2026-09-01T01:13:46Z</time>
  <course>180.15</course>
  <speed>0.9300537618869137</speed>
  <fix>3d</fix>
</trkpt>
<trkpt lat="33.8095922" lon="-118.3944318">
  <ele>-38.93</ele>
  <time>2026-09-01T01:13:46Z</time>
  <course>179.82</course>
  <speed>0.95</speed>
  <fix>3d</fix>
</trkpt>
<trkpt lat="33.8095904" lon="-118.394432">
  <ele>-40.042</ele>
  <time>2026-09-01T01:13:46Z</time>
  <course>180.16</course>
  <speed>0.9300537618869137</speed>
  <fix>3d</fix>
</trkpt>
<trkpt lat="33.8095922" lon="-118.3944318">
  <ele>-38.93</ele>
  <time>2026-09-01T01:13:46Z</time>
  <course>179.82</course>
  <speed>0.95</speed>
  <fix>3d</fix>
</trkpt>
<trkpt lat="33.8095896" lon="-118.394432">
  <ele>-40.092</ele>
  <time>2026-09-01T01:13:46Z</time>
  <course>180.18</course>
  <speed>0.9300537618869137</speed>
  <fix>3d</fix>
</trkpt>
<trkpt lat="33.8095905" lon="-118.3944318">
  <ele>-39.03</ele>
  <time>2026-09-01T01:13:46Z</time>
  <course>179.8</course>
  <speed>0.95</speed>
  <fix>3d</fix>
</trkpt>
<trkpt lat="33.8095887" lon="-118.394432">
  <ele>-40.142</ele>
  <time>2026-09-01T01:13:46Z</time>
  <course>180.2</course>
  <speed>0.9300537618869137</speed>
  <fix>3d</fix>
</trkpt>
<trkpt lat="33.8095905" lon="-118.3944318">
  <ele>-39.03</ele>
  <time>2026-09-01T01:13:46Z</time>
  <course>179.8</course>
  <speed>0.95</speed>
  <fix>3d</fix>
</trkpt>
<trkpt lat="33.8095878" lon="-118.394432">
  <ele>-40.193</ele>
  <time>2026-09-01T01:13:46Z</time>
  <course>180.21</course>
  <speed>0.9300537618869137</speed>
  <fix>3d</fix>
</trkpt>
<trkpt lat="33.8095888" lon="-118.3944318">
  <ele>-39.13</ele>
  <time>2026-09-01T01:13:46Z</time>
  <course>179.8</course>
  <speed>0.95</speed>
  <fix>3d</fix>
</trkpt>
<trkpt lat="33.809587" lon="-118.394432">
  <ele>-40.242</ele>
  <time>2026-09-01T01:13:46Z</time>
  <course>180.23</course>
  <speed>0.9300537618869137</speed>
  <fix>3d</fix>
</trkpt>
<trkpt lat="33.8095888" lon="-118.3944318">
  <ele>-39.13</ele>
  <time>2026-09-01T01:13:46Z</time>
  <course>179.8</course>
  <speed>0.95</speed>
  <fix>3d</fix>
</trkpt>
<trkpt lat="33.8095861" lon="-118.394432">
  <ele>-40.291</ele>
  <time>2026-09-01T01:13:46Z</time>
  <course>180.24</course>
  <speed>0.9300537618869137</speed>
  <fix>3d</fix>
</trkpt>
<trkpt lat="33.809587" lon="-118.3944318">
  <ele>-39.23</ele>
  <time>2026-09-01T01:13:46Z</time>
  <course>179.79</course>
  <speed>0.96</speed>
  <fix>3d</fix>
</trkpt>
<trkpt lat="33.8095852" lon="-118.394432">
  <ele>-40.338</ele>
  <time>2026-09-01T01:13:46Z</time>
  <course>180.25</course>
  <speed>0.9300537618869137</speed>
  <fix>3d</fix>
</trkpt>
<trkpt lat="33.809587" lon="-118.3944318">
  <ele>-39.23</ele>
  <time>2026-09-01T01:13:46Z</time>
  <course>179.79</course>
  <speed>0.96</speed>
  <fix>3d</fix>
</trkpt>
<trkpt lat="33.8095844" lon="-118.394432">
  <ele>-40.385</ele>
  <time>2026-09-01T01:13:47Z</time>
  <course>180.26</course>
  <speed>0.9300537618869137</speed>
  <fix>3d</fix>
</trkpt>
<trkpt lat="33.8095853" lon="-118.3944318">
  <ele>-39.32</ele>
  <time>2026-09-01T01:13:47Z</time>
  <course>179.79</course>
  <speed>0.96</speed>
  <fix>3d</fix>
</trkpt>
<trkpt lat="33.8095835" lon="-118.394432">
  <ele>-40.432</ele>
  <time>2026-09-01T01:13:47Z</time>
  <course>180.27</course>
  <speed>0.9300537618869137</speed>
  <fix>3d</fix>
</trkpt>
<trkpt lat="33.8095853" lon="-118.3944318">
  <ele>-39.32</ele>
  <time>2026-09-01T01:13:47Z</time>
  <course>179.79</course>
  <speed>0.96</speed>
  <fix>3d</fix>
</trkpt>
<trkpt lat="33.8095827" lon="-118.394432">
  <ele>-40.478</ele>
  <time>2026-09-01T01:13:47Z</time>
  <course>180.29</course>
  <speed>0.9300537618869137</speed>
  <fix>3d</fix>
</trkpt>
<trkpt lat="33.8095836" lon="-118.3944318">
  <ele>-39.41</ele>
  <time>2026-09-01T01:13:47Z</time>
  <course>179.78</course>
  <speed>0.96</speed>
  <fix>3d</fix>
</trkpt>
<trkpt lat="33.8095818" lon="-118.394432">
  <ele>-40.524</ele>
  <time>2026-09-01T01:13:47Z</time>
  <course>180.29</course>
  <speed>0.9300537618869137</speed>
  <fix>3d</fix>
</trkpt>
<trkpt lat="33.8095836" lon="-118.3944318">
  <ele>-39.41</ele>
  <time>2026-09-01T01:13:47Z</time>
  <course>179.78</course>
  <speed>0.96</speed>
  <fix>3d</fix>
</trkpt>
<trkpt lat="33.8095809" lon="-118.394432">
  <ele>-40.571</ele>
  <time>2026-09-01T01:13:47Z</time>
  <course>180.31</course>
  <speed>0.9400531899844816</speed>
  <fix>3d</fix>
</trkpt>
<trkpt lat="33.8095819" lon="-118.3944318">
  <ele>-39.5</ele>
  <time>2026-09-01T01:13:47Z</time>
  <course>179.76</course>
  <speed>0.96</speed>
  <fix>3d</fix>
</trkpt>
<trkpt lat="33.8095801" lon="-118.394432">
  <ele>-40.616</ele>
  <time>2026-09-01T01:13:47Z</time>
  <course>180.32</course>
  <speed>0.9400531899844816</speed>
  <fix>3d</fix>
</trkpt>
<trkpt lat="33.8095819" lon="-118.3944318">
  <ele>-39.5</ele>
  <time>2026-09-01T01:13:47Z</time>
  <course>179.76</course>
  <speed>0.96</speed>
  <fix>3d</fix>
</trkpt>
<trkpt lat="33.8095792" lon="-118.394432">
  <ele>-40.661</ele>
  <time>2026-09-01T01:13:47Z</time>
  <course>180.32</course>
  <speed>0.9400531899844816</speed>
  <fix>3d</fix>
</trkpt>
<trkpt lat="33.8095801" lon="-118.3944318">
  <ele>-39.59</ele>
  <time>2026-09-01T01:13:47Z</time>
  <course>179.74</course>
  <speed>0.96</speed>
  <fix>3d</fix>
</trkpt>
<trkpt lat="33.8095783" lon="-118.394432">
  <ele>-40.704</ele>
  <time>2026-09-01T01:13:47Z</time>
  <course>180.33</course>
  <speed>0.9400531899844816</speed>
  <fix>3d</fix>
</trkpt>
<trkpt lat="33.8095801" lon="-118.3944318">
  <ele>-39.59</ele>
  <time>2026-09-01T01:13:47Z</time>
  <course>179.74</course>
  <speed>0.96</speed>
  <fix>3d</fix>
</trkpt>
<trkpt lat="33.8095775" lon="-118.394432">
  <ele>-40.747</ele>
  <time>2026-09-01T01:13:47Z</time>
  <course>180.35</course>
  <speed>0.9400531899844816</speed>
  <fix>3d</fix>
</trkpt>
<trkpt lat="33.8095784" lon="-118.3944318">
  <ele>-39.67</ele>
  <time>2026-09-01T01:13:47Z</time>
  <course>179.73</course>
  <speed>0.96</speed>
  <fix>3d</fix>
</trkpt>
<trkpt lat="33.8095766" lon="-118.394432">
  <ele>-40.791</ele>
  <time>2026-09-01T01:13:47Z</time>
  <course>180.36</course>
  <speed>0.9400531899844816</speed>
  <fix>3d</fix>
</trkpt>
<trkpt lat="33.8095784" lon="-118.3944318">
  <ele>-39.67</ele>
  <time>2026-09-01T01:13:47Z</time>
  <course>179.73</course>
  <speed>0.96</speed>
  <fix>3d</fix>
</trkpt>
<trkpt lat="33.8095757" lon="-118.394432">
  <ele>-40.835</ele>
  <time>2026-09-01T01:13:47Z</time>
  <course>180.37</course>
  <speed>0.9400531899844816</speed>
  <fix>3d</fix>
</trkpt>
<trkpt lat="33.8095766" lon="-118.3944318">
  <ele>-39.76</ele>
  <time>2026-09-01T01:13:47Z</time>
  <course>179.72</course>
  <speed>0.96</speed>
  <fix>3d</fix>
</trkpt>
<trkpt lat="33.8095749" lon="-118.394432">
  <ele>-40.881</ele>
  <time>2026-09-01T01:13:47Z</time>
  <course>180.38</course>
  <speed>0.9400531899844816</speed>
  <fix>3d</fix>
</trkpt>
<trkpt lat="33.8095766" lon="-118.3944318">
  <ele>-39.76</ele>
  <time>2026-09-01T01:13:47Z</time>
  <course>179.72</course>
  <speed>0.96</speed>
  <fix>3d</fix>
</trkpt>
<trkpt lat="33.809574" lon="-118.394432">
  <ele>-40.929</ele>
  <time>2026-09-01T01:13:47Z</time>
  <course>180.39</course>
  <speed>0.9400531899844816</speed>
  <fix>3d</fix>
</trkpt>
<trkpt lat="33.8095749" lon="-118.3944318">
  <ele>-39.84</ele>
  <time>2026-09-01T01:13:47Z</time>
  <course>179.71</course>
  <speed>0.96</speed>
  <fix>3d</fix>
</trkpt>
<trkpt lat="33.8095731" lon="-118.394432">
  <ele>-40.976</ele>
  <time>2026-09-01T01:13:47Z</time>
  <course>180.41</course>
  <speed>0.9400531899844816</speed>
  <fix>3d</fix>
</trkpt>
<trkpt lat="33.8095749" lon="-118.3944318">
  <ele>-39.84</ele>
  <time>2026-09-01T01:13:47Z</time>
  <course>179.71</course>
  <speed>0.96</speed>
  <fix>3d</fix>
</trkpt>
<trkpt lat="33.8095723" lon="-118.394432">
  <ele>-41.023</ele>
  <time>2026-09-01T01:13:47Z</time>
  <course>180.42</course>
  <speed>0.9400531899844816</speed>
  <fix>3d</fix>
</trkpt>
<trkpt lat="33.8095732" lon="-118.3944318">
  <ele>-39.94</ele>
  <time>2026-09-01T01:13:47Z</time>
  <course>179.71</course>
  <speed>0.96</speed>
  <fix>3d</fix>
</trkpt>
<trkpt lat="33.8095714" lon="-118.394432">
  <ele>-41.071</ele>
  <time>2026-09-01T01:13:47Z</time>
  <course>180.43</course>
  <speed>0.9400531899844816</speed>
  <fix>3d</fix>
</trkpt>
<trkpt lat="33.8095732" lon="-118.3944318">
  <ele>-39.94</ele>
  <time>2026-09-01T01:13:47Z</time>
  <course>179.71</course>
  <speed>0.96</speed>
  <fix>3d</fix>
</trkpt>
<trkpt lat="33.8095705" lon="-118.394432">
  <ele>-41.117</ele>
  <time>2026-09-01T01:13:47Z</time>
  <course>180.44</course>
  <speed>0.9400531899844816</speed>
  <fix>3d</fix>
</trkpt>
<trkpt lat="33.8095715" lon="-118.3944318">
  <ele>-40.03</ele>
  <time>2026-09-01T01:13:47Z</time>
  <course>179.7</course>
  <speed>0.96</speed>
  <fix>3d</fix>
</trkpt>
<trkpt lat="33.8095696" lon="-118.394432">
  <ele>-41.165</ele>
  <time>2026-09-01T01:13:47Z</time>
  <course>180.45</course>
  <speed>0.9400531899844816</speed>
  <fix>3d</fix>
</trkpt>
<trkpt lat="33.8095715" lon="-118.3944318">
  <ele>-40.03</ele>
  <time>2026-09-01T01:13:47Z</time>
  <course>179.7</course>
  <speed>0.96</speed>
  <fix>3d</fix>
</trkpt>
<trkpt lat="33.8095688" lon="-118.394432">
  <ele>-41.215</ele>
  <time>2026-09-01T01:13:47Z</time>
  <course>180.46</course>
  <speed>0.9400531899844816</speed>
  <fix>3d</fix>
</trkpt>
<trkpt lat="33.8095697" lon="-118.3944317">
  <ele>-40.12</ele>
  <time>2026-09-01T01:13:47Z</time>
  <course>179.68</course>
  <speed>0.96</speed>
  <fix>3d</fix>
</trkpt>
<trkpt lat="33.8095679" lon="-118.394432">
  <ele>-41.266</ele>
  <time>2026-09-01T01:13:47Z</time>
  <course>180.46</course>
  <speed>0.9400531899844816</speed>
  <fix>3d</fix>
</trkpt>
<trkpt lat="33.8095697" lon="-118.3944317">
  <ele>-40.12</ele>
  <time>2026-09-01T01:13:47Z</time>
  <course>179.68</course>
  <speed>0.96</speed>
  <fix>3d</fix>
</trkpt>
<trkpt lat="33.809567" lon="-118.394432">
  <ele>-41.318</ele>
  <time>2026-09-01T01:13:47Z</time>
  <course>180.49</course>
  <speed>0.9400531899844816</speed>
  <fix>3d</fix>
</trkpt>
<trkpt lat="33.809568" lon="-118.3944317">
  <ele>-40.22</ele>
  <time>2026-09-01T01:13:47Z</time>
  <course>179.69</course>
  <speed>0.97</speed>
  <fix>3d</fix>
</trkpt>
<trkpt lat="33.8095662" lon="-118.394432">
  <ele>-41.371</ele>
  <time>2026-09-01T01:13:47Z</time>
  <course>180.53</course>
  <speed>0.9500526301210896</speed>
  <fix>3d</fix>
</trkpt>
<trkpt lat="33.809568" lon="-118.3944317">
  <ele>-40.22</ele>
  <time>2026-09-01T01:13:47Z</time>
  <course>179.69</course>
  <speed>0.97</speed>
  <fix>3d</fix>
</trkpt>
<trkpt lat="33.8095653" lon="-118.394432">
  <ele>-41.423</ele>
  <time>2026-09-01T01:13:47Z</time>
  <course>180.6</course>
  <speed>0.9500526301210896</speed>
  <fix>3d</fix>
</trkpt>
<trkpt lat="33.8095662" lon="-118.3944317">
  <ele>-40.32</ele>
  <time>2026-09-01T01:13:47Z</time>
  <course>179.77</course>
  <speed>0.97</speed>
  <fix>3d</fix>
</trkpt>
<trkpt lat="33.8095644" lon="-118.394432">
  <ele>-41.473</ele>
  <time>2026-09-01T01:13:47Z</time>
  <course>180.65</course>
  <speed>0.9502105029939419</speed>
  <fix>3d</fix>
</trkpt>
<trkpt lat="33.8095662" lon="-118.3944317">
  <ele>-40.32</ele>
  <time>2026-09-01T01:13:47Z</time>
  <course>179.77</course>
  <speed>0.97</speed>
  <fix>3d</fix>
</trkpt>
<trkpt lat="33.8095636" lon="-118.394432">
  <ele>-41.521</ele>
  <time>2026-09-01T01:13:47Z</time>
  <course>180.7</course>
  <speed>0.9502105029939419</speed>
  <fix>3d</fix>
</trkpt>
<trkpt lat="33.8095644" lon="-118.3944317">
  <ele>-40.41</ele>
  <time>2026-09-01T01:13:47Z</time>
  <course>179.84</course>
  <speed>0.97</speed>
  <fix>3d</fix>
</trkpt>
<trkpt lat="33.8095627" lon="-118.394432">
  <ele>-41.568</ele>
  <time>2026-09-01T01:13:47Z</time>
  <course>180.75</course>
  <speed>0.9502105029939419</speed>
  <fix>3d</fix>
</trkpt>
<trkpt lat="33.8095644" lon="-118.3944317">
  <ele>-40.41</ele>
  <time>2026-09-01T01:13:47Z</time>
  <course>179.84</course>
  <speed>0.97</speed>
  <fix>3d</fix>
</trkpt>
<trkpt lat="33.8095618" lon="-118.394432">
  <ele>-41.615</ele>
  <time>2026-09-01T01:13:47Z</time>
  <course>180.8</course>
  <speed>0.9502105029939419</speed>
  <fix>3d</fix>
</trkpt>
<trkpt lat="33.8095627" lon="-118.3944317">
  <ele>-40.51</ele>
  <time>2026-09-01T01:13:47Z</time>
  <course>179.9</course>
  <speed>0.97</speed>
  <fix>3d</fix>
</trkpt>
<trkpt lat="33.8095609" lon="-118.3944319">
  <ele>-41.664</ele>
  <time>2026-09-01T01:13:47Z</time>
  <course>180.84</course>
  <speed>0.9502105029939419</speed>
  <fix>3d</fix>
</trkpt>
<trkpt lat="33.8095627" lon="-118.3944317">
  <ele>-40.51</ele>
  <time>2026-09-01T01:13:47Z</time>
  <course>179.9</course>
  <speed>0.97</speed>
  <fix>3d</fix>
</trkpt>
<trkpt lat="33.8095601" lon="-118.3944319">
  <ele>-41.713</ele>
  <time>2026-09-01T01:13:47Z</time>
  <course>180.88</course>
  <speed>0.9502105029939419</speed>
  <fix>3d</fix>
</trkpt>
<trkpt lat="33.809561" lon="-118.3944317">
  <ele>-40.6</ele>
  <time>2026-09-01T01:13:47Z</time>
  <course>179.94</course>
  <speed>0.97</speed>
  <fix>3d</fix>
</trkpt>
<trkpt lat="33.8095592" lon="-118.3944319">
  <ele>-41.763</ele>
  <time>2026-09-01T01:13:47Z</time>
  <course>180.9</course>
  <speed>0.9502105029939419</speed>
  <fix>3d</fix>
</trkpt>
<trkpt lat="33.809561" lon="-118.3944317">
  <ele>-40.6</ele>
  <time>2026-09-01T01:13:47Z</time>
  <course>179.94</course>
  <speed>0.97</speed>
  <fix>3d</fix>
</trkpt>
<trkpt lat="33.8095583" lon="-118.3944319">
  <ele>-41.813</ele>
  <time>2026-09-01T01:13:47Z</time>
  <course>180.92</course>
  <speed>0.9502105029939419</speed>
  <fix>3d</fix>
</trkpt>
<trkpt lat="33.8095592" lon="-118.3944317">
  <ele>-40.69</ele>
  <time>2026-09-01T01:13:47Z</time>
  <course>179.96</course>
  <speed>0.97</speed>
  <fix>3d</fix>
</trkpt>
<trkpt lat="33.8095574" lon="-118.3944319">
  <ele>-41.864</ele>
  <time>2026-09-01T01:13:47Z</time>
  <course>180.94</course>
  <speed>0.9502105029939419</speed>
  <fix>3d</fix>
</trkpt>
<trkpt lat="33.8095592" lon="-118.3944317">
  <ele>-40.69</ele>
  <time>2026-09-01T01:13:47Z</time>
  <course>179.96</course>
  <speed>0.97</speed>
  <fix>3d</fix>
</trkpt>
<trkpt lat="33.8095566" lon="-118.3944319">
  <ele>-41.916</ele>
  <time>2026-09-01T01:13:47Z</time>
  <course>180.96</course>
  <speed>0.9502105029939419</speed>
  <fix>3d</fix>
</trkpt>
<trkpt lat="33.8095574" lon="-118.3944317">
  <ele>-40.79</ele>
  <time>2026-09-01T01:13:47Z</time>
  <course>179.97</course>
  <speed>0.97</speed>
  <fix>3d</fix>
</trkpt>
<trkpt lat="33.8095557" lon="-118.3944319">
  <ele>-41.968</ele>
  <time>2026-09-01T01:13:47Z</time>
  <course>180.98</course>
  <speed>0.9502105029939419</speed>
  <fix>3d</fix>
</trkpt>
<trkpt lat="33.8095574" lon="-118.3944317">
  <ele>-40.79</ele>
  <time>2026-09-01T01:13:47Z</time>
  <course>179.97</course>
  <speed>0.97</speed>
  <fix>3d</fix>
</trkpt>
<trkpt lat="33.8095548" lon="-118.3944319">
  <ele>-42.019</ele>
  <time>2026-09-01T01:13:47Z</time>
  <course>180.99</course>
  <speed>0.9502105029939419</speed>
  <fix>3d</fix>
</trkpt>
<trkpt lat="33.8095557" lon="-118.3944317">
  <ele>-40.89</ele>
  <time>2026-09-01T01:13:47Z</time>
  <course>179.97</course>
  <speed>0.98</speed>
  <fix>3d</fix>
</trkpt>
<trkpt lat="33.8095539" lon="-118.3944319">
  <ele>-42.073</ele>
  <time>2026-09-01T01:13:47Z</time>
  <course>181.01</course>
  <speed>0.9502105029939419</speed>
  <fix>3d</fix>
</trkpt>
<trkpt lat="33.8095557" lon="-118.3944317">
  <ele>-40.89</ele>
  <time>2026-09-01T01:13:47Z</time>
  <course>179.97</course>
  <speed>0.98</speed>
  <fix>3d</fix>
</trkpt>
<trkpt lat="33.8095531" lon="-118.3944319">
  <ele>-42.127</ele>
  <time>2026-09-01T01:13:47Z</time>
  <course>181.02</course>
  <speed>0.9502105029939419</speed>
  <fix>3d</fix>
</trkpt>
<trkpt lat="33.8095539" lon="-118.3944317">
  <ele>-40.98</ele>
  <time>2026-09-01T01:13:47Z</time>
  <course>179.98</course>
  <speed>0.98</speed>
  <fix>3d</fix>
</trkpt>
<trkpt lat="33.8095522" lon="-118.3944319">
  <ele>-42.181</ele>
  <time>2026-09-01T01:13:47Z</time>
  <course>181.03</course>
  <speed>0.9502105029939419</speed>
  <fix>3d</fix>
</trkpt>
<trkpt lat="33.8095539" lon="-118.3944317">
  <ele>-40.98</ele>
  <time>2026-09-01T01:13:47Z</time>
  <course>179.98</course>
  <speed>0.98</speed>
  <fix>3d</fix>
</trkpt>
<trkpt lat="33.8095513" lon="-118.3944319">
  <ele>-42.232</ele>
  <time>2026-09-01T01:13:47Z</time>
  <course>181.04</course>
  <speed>0.9502105029939419</speed>
  <fix>3d</fix>
</trkpt>
<trkpt lat="33.8095522" lon="-118.3944317">
  <ele>-41.09</ele>
  <time>2026-09-01T01:13:47Z</time>
  <course>180.0</course>
  <speed>0.98</speed>
  <fix>3d</fix>
</trkpt>
<trkpt lat="33.8095504" lon="-118.3944319">
  <ele>-42.281</ele>
  <time>2026-09-01T01:13:47Z</time>
  <course>181.04</course>
  <speed>0.9502105029939419</speed>
  <fix>3d</fix>
</trkpt>
<trkpt lat="33.8095522" lon="-118.3944317">
  <ele>-41.09</ele>
  <time>2026-09-01T01:13:47Z</time>
  <course>180.0</course>
  <speed>0.98</speed>
  <fix>3d</fix>
</trkpt>
<trkpt lat="33.8095495" lon="-118.3944319">
  <ele>-42.328</ele>
  <time>2026-09-01T01:13:47Z</time>
  <course>181.05</course>
  <speed>0.9502105029939419</speed>
  <fix>3d</fix>
</trkpt>
<trkpt lat="33.8095504" lon="-118.3944317">
  <ele>-41.19</ele>
  <time>2026-09-01T01:13:47Z</time>
  <course>180.02</course>
  <speed>0.98</speed>
  <fix>3d</fix>
</trkpt>
<trkpt lat="33.8095487" lon="-118.3944319">
  <ele>-42.373</ele>
  <time>2026-09-01T01:13:47Z</time>
  <course>181.05</course>
  <speed>0.9502105029939419</speed>
  <fix>3d</fix>
</trkpt>
<trkpt lat="33.8095504" lon="-118.3944317">
  <ele>-41.19</ele>
  <time>2026-09-01T01:13:47Z</time>
  <course>180.02</course>
  <speed>0.98</speed>
  <fix>3d</fix>
</trkpt>
<trkpt lat="33.8095478" lon="-118.3944319">
  <ele>-42.419</ele>
  <time>2026-09-01T01:13:47Z</time>
  <course>181.06</course>
  <speed>0.9502105029939419</speed>
  <fix>3d</fix>
</trkpt>
<trkpt lat="33.8095486" lon="-118.3944317">
  <ele>-41.28</ele>
  <time>2026-09-01T01:13:47Z</time>
  <course>180.04</course>
  <speed>0.98</speed>
  <fix>3d</fix>
</trkpt>
<trkpt lat="33.8095469" lon="-118.3944319">
  <ele>-42.465</ele>
  <time>2026-09-01T01:13:47Z</time>
  <course>181.06</course>
  <speed>0.9502105029939419</speed>
  <fix>3d</fix>
</trkpt>
<trkpt lat="33.8095486" lon="-118.3944317">
  <ele>-41.28</ele>
  <time>2026-09-01T01:13:47Z</time>
  <course>180.04</course>
  <speed>0.98</speed>
  <fix>3d</fix>
</trkpt>
<trkpt lat="33.809546" lon="-118.3944319">
  <ele>-42.512</ele>
  <time>2026-09-01T01:13:47Z</time>
  <course>181.06</course>
  <speed>0.9502105029939419</speed>
  <fix>3d</fix>
</trkpt>
<trkpt lat="33.8095469" lon="-118.3944317">
  <ele>-41.37</ele>
  <time>2026-09-01T01:13:47Z</time>
  <course>180.05</course>
  <speed>0.98</speed>
  <fix>3d</fix>
</trkpt>
<trkpt lat="33.8095451" lon="-118.3944319">
  <ele>-42.559</ele>
  <time>2026-09-01T01:13:47Z</time>
  <course>181.06</course>
  <speed>0.9502105029939419</speed>
  <fix>3d</fix>
</trkpt>
<trkpt lat="33.8095469" lon="-118.3944317">
  <ele>-41.37</ele>
  <time>2026-09-01T01:13:47Z</time>
  <course>180.05</course>
  <speed>0.98</speed>
  <fix>3d</fix>
</trkpt>
<trkpt lat="33.8095442" lon="-118.3944319">
  <ele>-42.606</ele>
  <time>2026-09-01T01:13:47Z</time>
  <course>181.07</course>
  <speed>0.9502105029939419</speed>
  <fix>3d</fix>
</trkpt>
<trkpt lat="33.8095451" lon="-118.3944317">
  <ele>-41.47</ele>
  <time>2026-09-01T01:13:47Z</time>
  <course>180.06</course>
  <speed>0.98</speed>
  <fix>3d</fix>
</trkpt>
<trkpt lat="33.8095434" lon="-118.3944319">
  <ele>-42.653</ele>
  <time>2026-09-01T01:13:47Z</time>
  <course>181.07</course>
  <speed>0.9502105029939419</speed>
  <fix>3d</fix>
</trkpt>
<trkpt lat="33.8095451" lon="-118.3944317">
  <ele>-41.47</ele>
  <time>2026-09-01T01:13:47Z</time>
  <course>180.06</course>
  <speed>0.98</speed>
  <fix>3d</fix>
</trkpt>
<trkpt lat="33.8095425" lon="-118.3944319">
  <ele>-42.699</ele>
  <time>2026-09-01T01:13:47Z</time>
  <course>181.08</course>
  <speed>0.9502105029939419</speed>
  <fix>3d</fix>
</trkpt>
<trkpt lat="33.8095433" lon="-118.3944317">
  <ele>-41.57</ele>
  <time>2026-09-01T01:13:47Z</time>
  <course>180.07</course>
  <speed>0.98</speed>
  <fix>3d</fix>
</trkpt>
<trkpt lat="33.8095416" lon="-118.3944319">
  <ele>-42.746</ele>
  <time>2026-09-01T01:13:47Z</time>
  <course>181.07</course>
  <speed>0.9502105029939419</speed>
  <fix>3d</fix>
</trkpt>
<trkpt lat="33.8095433" lon="-118.3944317">
  <ele>-41.57</ele>
  <time>2026-09-01T01:13:47Z</time>
  <course>180.07</course>
  <speed>0.98</speed>
  <fix>3d</fix>
</trkpt>
<trkpt lat="33.8095407" lon="-118.3944319">
  <ele>-42.795</ele>
  <time>2026-09-01T01:13:47Z</time>
  <course>181.08</course>
  <speed>0.9502105029939419</speed>
  <fix>3d</fix>
</trkpt>
<trkpt lat="33.8095416" lon="-118.3944317">
  <ele>-41.66</ele>
  <time>2026-09-01T01:13:47Z</time>
  <course>180.09</course>
  <speed>0.98</speed>
  <fix>3d</fix>
</trkpt>
<trkpt lat="33.8095398" lon="-118.3944319">
  <ele>-42.844</ele>
  <time>2026-09-01T01:13:47Z</time>
  <course>181.08</course>
  <speed>0.9502105029939419</speed>
  <fix>3d</fix>
</trkpt>
<trkpt lat="33.8095416" lon="-118.3944317">
  <ele>-41.66</ele>
  <time>2026-09-01T01:13:47Z</time>
  <course>180.09</course>
  <speed>0.98</speed>
  <fix>3d</fix>
</trkpt>
<trkpt lat="33.8095389" lon="-118.3944319">
  <ele>-42.894</ele>
  <time>2026-09-01T01:13:47Z</time>
  <course>181.08</course>
  <speed>0.9502105029939419</speed>
  <fix>3d</fix>
</trkpt>
<trkpt lat="33.8095398" lon="-118.3944317">
  <ele>-41.75</ele>
  <time>2026-09-01T01:13:47Z</time>
  <course>180.09</course>
  <speed>0.98</speed>
  <fix>3d</fix>
</trkpt>
<trkpt lat="33.8095381" lon="-118.3944319">
  <ele>-42.944</ele>
  <time>2026-09-01T01:13:47Z</time>
  <course>181.07</course>
  <speed>0.9502105029939419</speed>
  <fix>3d</fix>
</trkpt>
<trkpt lat="33.8095398" lon="-118.3944317">
  <ele>-41.75</ele>
  <time>2026-09-01T01:13:47Z</time>
  <course>180.09</course>
  <speed>0.98</speed>
  <fix>3d</fix>
</trkpt>
<trkpt lat="33.8095372" lon="-118.3944319">
  <ele>-42.993</ele>
  <time>2026-09-01T01:13:47Z</time>
  <course>181.08</course>
  <speed>0.9502105029939419</speed>
  <fix>3d</fix>
</trkpt>
<trkpt lat="33.8095381" lon="-118.3944317">
  <ele>-41.85</ele>
  <time>2026-09-01T01:13:47Z</time>
  <course>180.09</course>
  <speed>0.98</speed>
  <fix>3d</fix>
</trkpt>
<trkpt lat="33.8095363" lon="-118.3944319">
  <ele>-43.042</ele>
  <time>2026-09-01T01:13:47Z</time>
  <course>181.08</course>
  <speed>0.9602083107326242</speed>
  <fix>3d</fix>
</trkpt>
<trkpt lat="33.8095381" lon="-118.3944317">
  <ele>-41.85</ele>
  <time>2026-09-01T01:13:47Z</time>
  <course>180.09</course>
  <speed>0.98</speed>
  <fix>3d</fix>
</trkpt>
<trkpt lat="33.8095354" lon="-118.3944319">
  <ele>-43.088</ele>
  <time>2026-09-01T01:13:47Z</time>
  <course>181.09</course>
  <speed>0.9602083107326242</speed>
  <fix>3d</fix>
</trkpt>
<trkpt lat="33.8095363" lon="-118.3944317">
  <ele>-41.95</ele>
  <time>2026-09-01T01:13:47Z</time>
  <course>180.1</course>
  <speed>0.98</speed>
  <fix>3d</fix>
</trkpt>
<trkpt lat="33.8095345" lon="-118.3944319">
  <ele>-43.133</ele>
  <time>2026-09-01T01:13:47Z</time>
  <course>181.09</course>
  <speed>0.9602083107326242</speed>
  <fix>3d</fix>
</trkpt>
<trkpt lat="33.8095363" lon="-118.3944317">
  <ele>-41.95</ele>
  <time>2026-09-01T01:13:47Z</time>
  <course>180.1</course>
  <speed>0.98</speed>
  <fix>3d</fix>
</trkpt>
<trkpt lat="33.8095336" lon="-118.3944319">
  <ele>-43.18</ele>
  <time>2026-09-01T01:13:47Z</time>
  <course>181.09</course>
  <speed>0.9602083107326242</speed>
  <fix>3d</fix>
</trkpt>
<trkpt lat="33.8095345" lon="-118.3944317">
  <ele>-42.04</ele>
  <time>2026-09-01T01:13:47Z</time>
  <course>180.11</course>
  <speed>0.98</speed>
  <fix>3d</fix>
</trkpt>
<trkpt lat="33.8095328" lon="-118.3944319">
  <ele>-43.227</ele>
  <time>2026-09-01T01:13:47Z</time>
  <course>181.09</course>
  <speed>0.9602083107326242</speed>
  <fix>3d</fix>
</trkpt>
<trkpt lat="33.8095345" lon="-118.3944317">
  <ele>-42.04</ele>
  <time>2026-09-01T01:13:47Z</time>
  <course>180.11</course>
  <speed>0.98</speed>
  <fix>3d</fix>
</trkpt>
<trkpt lat="33.8095319" lon="-118.3944319">
  <ele>-43.276</ele>
  <time>2026-09-01T01:13:47Z</time>
  <course>181.1</course>
  <speed>0.9602083107326242</speed>
  <fix>3d</fix>
</trkpt>
<trkpt lat="33.8095327" lon="-118.3944317">
  <ele>-42.13</ele>
  <time>2026-09-01T01:13:47Z</time>
  <course>180.13</course>
  <speed>0.98</speed>
  <fix>3d</fix>
</trkpt>
<trkpt lat="33.809531" lon="-118.3944319">
  <ele>-43.326</ele>
  <time>2026-09-01T01:13:47Z</time>
  <course>181.09</course>
  <speed>0.9602083107326242</speed>
  <fix>3d</fix>
</trkpt>
<trkpt lat="33.8095327" lon="-118.3944317">
  <ele>-42.13</ele>
  <time>2026-09-01T01:13:47Z</time>
  <course>180.13</course>
  <speed>0.98</speed>
  <fix>3d</fix>
</trkpt>
<trkpt lat="33.8095301" lon="-118.3944319">
  <ele>-43.376</ele>
  <time>2026-09-01T01:13:47Z</time>
  <course>181.1</course>
  <speed>0.9602083107326242</speed>
  <fix>3d</fix>
</trkpt>
<trkpt lat="33.8095309" lon="-118.3944317">
  <ele>-42.23</ele>
  <time>2026-09-01T01:13:47Z</time>
  <course>180.14</course>
  <speed>0.98</speed>
  <fix>3d</fix>
</trkpt>
<trkpt lat="33.8095292" lon="-118.3944319">
  <ele>-43.427</ele>
  <time>2026-09-01T01:13:47Z</time>
  <course>181.09</course>
  <speed>0.9602083107326242</speed>
  <fix>3d</fix>
</trkpt>
<trkpt lat="33.8095309" lon="-118.3944317">
  <ele>-42.23</ele>
  <time>2026-09-01T01:13:47Z</time>
  <course>180.14</course>
  <speed>0.98</speed>
  <fix>3d</fix>
</trkpt>
<trkpt lat="33.8095283" lon="-118.3944319">
  <ele>-43.478</ele>
  <time>2026-09-01T01:13:47Z</time>
  <course>181.1</course>
  <speed>0.9602083107326242</speed>
  <fix>3d</fix>
</trkpt>
<trkpt lat="33.8095292" lon="-118.3944317">
  <ele>-42.33</ele>
  <time>2026-09-01T01:13:47Z</time>
  <course>180.14</course>
  <speed>0.98</speed>
  <fix>3d</fix>
</trkpt>
<trkpt lat="33.8095274" lon="-118.3944319">
  <ele>-43.526</ele>
  <time>2026-09-01T01:13:47Z</time>
  <course>181.09</course>
  <speed>0.9602083107326242</speed>
  <fix>3d</fix>
</trkpt>
<trkpt lat="33.8095292" lon="-118.3944317">
  <ele>-42.33</ele>
  <time>2026-09-01T01:13:47Z</time>
  <course>180.14</course>
  <speed>0.98</speed>
  <fix>3d</fix>
</trkpt>
<trkpt lat="33.8095266" lon="-118.3944319">
  <ele>-43.574</ele>
  <time>2026-09-01T01:13:47Z</time>
  <course>181.1</course>
  <speed>0.8602325267042628</speed>
  <fix>3d</fix>
</trkpt>
<trkpt lat="33.8095274" lon="-118.3944317">
  <ele>-42.43</ele>
  <time>2026-09-01T01:13:47Z</time>
  <course>180.15</course>
  <speed>0.98</speed>
  <fix>3d</fix>
</trkpt>
<trkpt lat="33.8095257" lon="-118.3944319">
  <ele>-43.62</ele>
  <time>2026-09-01T01:13:47Z</time>
  <course>181.15</course>
  <speed>0.8902246907382428</speed>
  <fix>3d</fix>
</trkpt>
<trkpt lat="33.8095274" lon="-118.3944317">
  <ele>-42.43</ele>
  <time>2026-09-01T01:13:47Z</time>
  <course>180.15</course>
  <speed>0.98</speed>
  <fix>3d</fix>
</trkpt>
<trkpt lat="33.8095249" lon="-118.3944319">
  <ele>-43.667</ele>
  <time>2026-09-01T01:13:47Z</time>
  <course>181.2</course>
  <speed>0.9102197536858887</speed>
  <fix>3d</fix>
</trkpt>
<trkpt lat="33.8095257" lon="-118.3944317">
  <ele>-42.52</ele>
  <time>2026-09-01T01:13:47Z</time>
  <course>180.19</course>
  <speed>0.95</speed>
  <fix>3d</fix>
</trkpt>
<trkpt lat="33.809524" lon="-118.3944319">
  <ele>-43.714</ele>
  <time>2026-09-01T01:13:47Z</time>
  <course>181.21</course>
  <speed>0.9102197536858887</speed>
  <fix>3d</fix>
</trkpt>
<trkpt lat="33.8095257" lon="-118.3944317">
  <ele>-42.52</ele>
  <time>2026-09-01T01:13:47Z</time>
  <course>180.19</course>
  <speed>0.95</speed>
  <fix>3d</fix>
</trkpt>
<trkpt lat="33.8095232" lon="-118.3944319">
  <ele>-43.762</ele>
  <time>2026-09-01T01:13:47Z</time>
  <course>181.21</course>
  <speed>0.9200543462209175</speed>
  <fix>3d</fix>
</trkpt>
<trkpt lat="33.809524" lon="-118.3944317">
  <ele>-42.62</ele>
  <time>2026-09-01T01:13:47Z</time>
  <course>180.21</course>
  <speed>0.93</speed>
  <fix>3d</fix>
</trkpt>
<trkpt lat="33.8095223" lon="-118.3944319">
  <ele>-43.812</ele>
  <time>2026-09-01T01:13:47Z</time>
  <course>181.18</course>
  <speed>0.9302150289046076</speed>
  <fix>3d</fix>
</trkpt>
<trkpt lat="33.809524" lon="-118.3944317">
  <ele>-42.62</ele>
  <time>2026-09-01T01:13:47Z</time>
  <course>180.21</course>
  <speed>0.93</speed>
  <fix>3d</fix>
</trkpt>
<trkpt lat="33.8095215" lon="-118.3944319">
  <ele>-43.86</ele>
  <time>2026-09-01T01:13:47Z</time>
  <course>181.17</course>
  <speed>0.9300537618869137</speed>
  <fix>3d</fix>
</trkpt>
<trkpt lat="33.8095223" lon="-118.3944317">
  <ele>-42.71</ele>
  <time>2026-09-01T01:13:47Z</time>
  <course>180.19</course>
  <speed>0.94</speed>
  <fix>3d</fix>
</trkpt>
<trkpt lat="33.8095206" lon="-118.3944319">
  <ele>-43.907</ele>
  <time>2026-09-01T01:13:47Z</time>
  <course>181.15</course>
  <speed>0.9402127418834527</speed>
  <fix>3d</fix>
</trkpt>
<trkpt lat="33.8095223" lon="-118.3944317">
  <ele>-42.71</ele>
  <time>2026-09-01T01:13:47Z</time>
  <course>180.19</course>
  <speed>0.94</speed>
  <fix>3d</fix>
</trkpt>
<trkpt lat="33.8095197" lon="-118.3944319">
  <ele>-43.952</ele>
  <time>2026-09-01T01:13:47Z</time>
  <course>181.15</course>
  <speed>0.9400531899844816</speed>
  <fix>3d</fix>
</trkpt>
<trkpt lat="33.8095206" lon="-118.3944317">
  <ele>-42.8</ele>
  <time>2026-09-01T01:13:47Z</time>
  <course>180.2</course>
  <speed>0.95</speed>
  <fix>3d</fix>
</trkpt>
<trkpt lat="33.8095189" lon="-118.3944319">
  <ele>-43.996</ele>
  <time>2026-09-01T01:13:47Z</time>
  <course>181.13</course>
  <speed>0.9402127418834527</speed>
  <fix>3d</fix>
</trkpt>
<trkpt lat="33.8095206" lon="-118.3944317">
  <ele>-42.8</ele>
  <time>2026-09-01T01:13:47Z</time>
  <course>180.2</course>
  <speed>0.95</speed>
  <fix>3d</fix>
</trkpt>
<trkpt lat="33.809518" lon="-118.3944319">
  <ele>-44.039</ele>
  <time>2026-09-01T01:13:47Z</time>
  <course>181.12</course>
  <speed>0.9500526301210896</speed>
  <fix>3d</fix>
</trkpt>
<trkpt lat="33.8095189" lon="-118.3944317">
  <ele>-42.9</ele>
  <time>2026-09-01T01:13:47Z</time>
  <course>180.22</course>
  <speed>0.96</speed>
  <fix>3d</fix>
</trkpt>
<trkpt lat="33.8095171" lon="-118.3944319">
  <ele>-44.084</ele>
  <time>2026-09-01T01:13:47Z</time>
  <course>181.11</course>
  <speed>0.9502105029939419</speed>
  <fix>3d</fix>
</trkpt>
<trkpt lat="33.8095189" lon="-118.3944317">
  <ele>-42.9</ele>
  <time>2026-09-01T01:13:47Z</time>
  <course>180.22</course>
  <speed>0.96</speed>
  <fix>3d</fix>
</trkpt>
<trkpt lat="33.8095162" lon="-118.3944319">
  <ele>-44.129</ele>
  <time>2026-09-01T01:13:47Z</time>
  <course>181.11</course>
  <speed>0.9500526301210896</speed>
  <fix>3d</fix>
</trkpt>
<trkpt lat="33.8095172" lon="-118.3944317">
  <ele>-42.98</ele>
  <time>2026-09-01T01:13:47Z</time>
  <course>180.21</course>
  <speed>0.97</speed>
  <fix>3d</fix>
</trkpt>
<trkpt lat="33.8095153" lon="-118.3944319">
  <ele>-44.176</ele>
  <time>2026-09-01T01:13:47Z</time>
  <course>181.1</course>
  <speed>0.9602083107326242</speed>
  <fix>3d</fix>
</trkpt>
<trkpt lat="33.8095172" lon="-118.3944317">
  <ele>-42.98</ele>
  <time>2026-09-01T01:13:47Z</time>
  <course>180.21</course>
  <speed>0.97</speed>
  <fix>3d</fix>
</trkpt>
<trkpt lat="33.8095145" lon="-118.3944319">
  <ele>-44.223</ele>
  <time>2026-09-01T01:13:47Z</time>
  <course>181.09</course>
  <speed>0.9600520819205591</speed>
  <fix>3d</fix>
</trkpt>
<trkpt lat="33.8095154" lon="-118.3944317">
  <ele>-43.07</ele>
  <time>2026-09-01T01:13:47Z</time>
  <course>180.2</course>
  <speed>0.97</speed>
  <fix>3d</fix>
</trkpt>
<trkpt lat="33.8095136" lon="-118.3944319">
  <ele>-44.271</ele>
  <time>2026-09-01T01:13:47Z</time>
  <course>181.09</course>
  <speed>0.9602083107326242</speed>
  <fix>3d</fix>
</trkpt>
<trkpt lat="33.8095154" lon="-118.3944317">
  <ele>-43.07</ele>
  <time>2026-09-01T01:13:47Z</time>
  <course>180.2</course>
  <speed>0.97</speed>
  <fix>3d</fix>
</trkpt>
<trkpt lat="33.8095127" lon="-118.3944319">
  <ele>-44.318</ele>
  <time>2026-09-01T01:13:47Z</time>
  <course>181.08</course>
  <speed>0.9600520819205591</speed>
  <fix>3d</fix>
</trkpt>
<trkpt lat="33.8095136" lon="-118.3944317">
  <ele>-43.16</ele>
  <time>2026-09-01T01:13:47Z</time>
  <course>180.22</course>
  <speed>0.98</speed>
  <fix>3d</fix>
</trkpt>
<trkpt lat="33.8095118" lon="-118.3944319">
  <ele>-44.366</ele>
  <time>2026-09-01T01:13:47Z</time>
  <course>181.08</course>
  <speed>0.9602083107326242</speed>
  <fix>3d</fix>
</trkpt>
<trkpt lat="33.8095136" lon="-118.3944317">
  <ele>-43.16</ele>
  <time>2026-09-01T01:13:47Z</time>
  <course>180.22</course>
  <speed>0.98</speed>
  <fix>3d</fix>
</trkpt>
<trkpt lat="33.8095109" lon="-118.3944319">
  <ele>-44.416</ele>
  <time>2026-09-01T01:13:47Z</time>
  <course>181.08</course>
  <speed>0.970051545022222</speed>
  <fix>3d</fix>
</trkpt>
<trkpt lat="33.8095119" lon="-118.3944317">
  <ele>-43.25</ele>
  <time>2026-09-01T01:13:47Z</time>
  <course>180.23</course>
  <speed>0.98</speed>
  <fix>3d</fix>
</trkpt>
<trkpt lat="33.80951" lon="-118.3944319">
  <ele>-44.465</ele>
  <time>2026-09-01T01:13:47Z</time>
  <course>181.07</course>
  <speed>0.9702061636580135</speed>
  <fix>3d</fix>
</trkpt>
<trkpt lat="33.8095119" lon="-118.3944317">
  <ele>-43.25</ele>
  <time>2026-09-01T01:13:47Z</time>
  <course>180.23</course>
  <speed>0.98</speed>
  <fix>3d</fix>
</trkpt>
<trkpt lat="33.8095091" lon="-118.3944319">
  <ele>-44.515</ele>
  <time>2026-09-01T01:13:47Z</time>
  <course>181.08</course>
  <speed>0.970051545022222</speed>
  <fix>3d</fix>
</trkpt>
<trkpt lat="33.8095101" lon="-118.3944317">
  <ele>-43.35</ele>
  <time>2026-09-01T01:13:47Z</time>
  <course>180.24</course>
  <speed>0.99</speed>
  <fix>3d</fix>
</trkpt>
<trkpt lat="33.8095083" lon="-118.3944319">
  <ele>-44.565</ele>
  <time>2026-09-01T01:13:47Z</time>
  <course>181.08</course>
  <speed>0.9702061636580135</speed>
  <fix>3d</fix>
</trkpt>
<trkpt lat="33.8095101" lon="-118.3944317">
  <ele>-43.35</ele>
  <time>2026-09-01T01:13:47Z</time>
  <course>180.24</course>
  <speed>0.99</speed>
  <fix>3d</fix>
</trkpt>
<trkpt lat="33.8095074" lon="-118.3944319">
  <ele>-44.617</ele>
  <time>2026-09-01T01:13:47Z</time>
  <course>181.07</course>
  <speed>0.970051545022222</speed>
  <fix>3d</fix>
</trkpt>
<trkpt lat="33.8095083" lon="-118.3944317">
  <ele>-43.45</ele>
  <time>2026-09-01T01:13:47Z</time>
  <course>180.25</course>
  <speed>0.99</speed>
  <fix>3d</fix>
</trkpt>
<trkpt lat="33.8095065" lon="-118.3944319">
  <ele>-44.67</ele>
  <time>2026-09-01T01:13:47Z</time>
  <course>181.06</course>
  <speed>0.9702061636580135</speed>
  <fix>3d</fix>
</trkpt>
<trkpt lat="33.8095083" lon="-118.3944317">
  <ele>-43.45</ele>
  <time>2026-09-01T01:13:47Z</time>
  <course>180.25</course>
  <speed>0.99</speed>
  <fix>3d</fix>
</trkpt>
<trkpt lat="33.8095056" lon="-118.3944319">
  <ele>-44.723</ele>
  <time>2026-09-01T01:13:47Z</time>
  <course>181.06</course>
  <speed>0.970051545022222</speed>
  <fix>3d</fix>
</trkpt>
<trkpt lat="33.8095065" lon="-118.3944317">
  <ele>-43.55</ele>
  <time>2026-09-01T01:13:47Z</time>
  <course>180.26</course>
  <speed>0.99</speed>
  <fix>3d</fix>
</trkpt>
<trkpt lat="33.8095047" lon="-118.3944319">
  <ele>-44.777</ele>
  <time>2026-09-01T01:13:47Z</time>
  <course>181.06</course>
  <speed>0.9702061636580135</speed>
  <fix>3d</fix>
</trkpt>
<trkpt lat="33.8095065" lon="-118.3944317">
  <ele>-43.55</ele>
  <time>2026-09-01T01:13:47Z</time>
  <course>180.26</course>
  <speed>0.99</speed>
  <fix>3d</fix>
</trkpt>
<trkpt lat="33.8095038" lon="-118.3944319">
  <ele>-44.83</ele>
  <time>2026-09-01T01:13:47Z</time>
  <course>181.06</course>
  <speed>0.970051545022222</speed>
  <fix>3d</fix>
</trkpt>
<trkpt lat="33.8095048" lon="-118.3944318">
  <ele>-43.65</ele>
  <time>2026-09-01T01:13:47Z</time>
  <course>180.28</course>
  <speed>0.99</speed>
  <fix>3d</fix>
</trkpt>
<trkpt lat="33.8095029" lon="-118.3944319">
  <ele>-44.883</ele>
  <time>2026-09-01T01:13:47Z</time>
  <course>181.05</course>
  <speed>0.970051545022222</speed>
  <fix>3d</fix>
</trkpt>
<trkpt lat="33.8095048" lon="-118.3944318">
  <ele>-43.65</ele>
  <time>2026-09-01T01:13:47Z</time>
  <course>180.28</course>
  <speed>0.99</speed>
  <fix>3d</fix>
</trkpt>
<trkpt lat="33.809502" lon="-118.3944319">
  <ele>-44.936</ele>
  <time>2026-09-01T01:13:47Z</time>
  <course>181.02</course>
  <speed>0.970051545022222</speed>
  <fix>3d</fix>
</trkpt>
<trkpt lat="33.8095029" lon="-118.3944318">
  <ele>-43.76</ele>
  <time>2026-09-01T01:13:47Z</time>
  <course>180.25</course>
  <speed>0.99</speed>
  <fix>3d</fix>
</trkpt>
<trkpt lat="33.8095011" lon="-118.3944319">
  <ele>-44.986</ele>
  <time>2026-09-01T01:13:47Z</time>
  <course>180.98</course>
  <speed>0.970051545022222</speed>
  <fix>3d</fix>
</trkpt>
<trkpt lat="33.8095029" lon="-118.3944318">
  <ele>-43.76</ele>
  <time>2026-09-01T01:13:47Z</time>
  <course>180.25</course>
  <speed>0.99</speed>
  <fix>3d</fix>
</trkpt>
<trkpt lat="33.8095002" lon="-118.3944319">
  <ele>-45.033</ele>
  <time>2026-09-01T01:13:47Z</time>
  <course>180.94</course>
  <speed>0.970051545022222</speed>
  <fix>3d</fix>
</trkpt>
<trkpt lat="33.8095012" lon="-118.3944318">
  <ele>-43.86</ele>
  <time>2026-09-01T01:13:47Z</time>
  <course>180.17</course>
  <speed>0.99</speed>
  <fix>3d</fix>
</trkpt>
<trkpt lat="33.8094993" lon="-118.3944319">
  <ele>-45.078</ele>
  <time>2026-09-01T01:13:47Z</time>
  <course>180.89</course>
  <speed>0.970051545022222</speed>
  <fix>3d</fix>
</trkpt>
<trkpt lat="33.8095012" lon="-118.3944318">
  <ele>-43.86</ele>
  <time>2026-09-01T01:13:47Z</time>
  <course>180.17</course>
  <speed>0.99</speed>
  <fix>3d</fix>
</trkpt>
<trkpt lat="33.8094984" lon="-118.3944319">
  <ele>-45.121</ele>
  <time>2026-09-01T01:13:47Z</time>
  <course>180.84</course>
  <speed>0.970051545022222</speed>
  <fix>3d</fix>
</trkpt>
<trkpt lat="33.8094993" lon="-118.3944318">
  <ele>-43.95</ele>
  <time>2026-09-01T01:13:47Z</time>
  <course>180.09</course>
  <speed>0.99</speed>
  <fix>3d</fix>
</trkpt>
<trkpt lat="33.8094975" lon="-118.3944319">
  <ele>-45.161</ele>
  <time>2026-09-01T01:13:47Z</time>
  <course>180.8</course>
  <speed>0.970051545022222</speed>
  <fix>3d</fix>
</trkpt>
<trkpt lat="33.8094993" lon="-118.3944318">
  <ele>-43.95</ele>
  <time>2026-09-01T01:13:47Z</time>
  <course>180.09</course>
  <speed>0.99</speed>
  <fix>3d</fix>
</trkpt>
<trkpt lat="33.8094966" lon="-118.3944319">
  <ele>-45.197</ele>
  <time>2026-09-01T01:13:47Z</time>
  <course>180.77</course>
  <speed>0.970051545022222</speed>
  <fix>3d</fix>
</trkpt>
<trkpt lat="33.8094976" lon="-118.3944318">
  <ele>-44.03</ele>
  <time>2026-09-01T01:13:47Z</time>
  <course>180.02</course>
  <speed>0.99</speed>
  <fix>3d</fix>
</trkpt>
<trkpt lat="33.8094957" lon="-118.3944319">
  <ele>-45.227</ele>
  <time>2026-09-01T01:13:47Z</time>
  <course>180.74</course>
  <speed>0.970051545022222</speed>
  <fix>3d</fix>
</trkpt>
<trkpt lat="33.8094976" lon="-118.3944318">
  <ele>-44.03</ele>
  <time>2026-09-01T01:13:47Z</time>
  <course>180.02</course>
  <speed>0.99</speed>
  <fix>3d</fix>
</trkpt>
<trkpt lat="33.8094948" lon="-118.3944319">
  <ele>-45.247</ele>
  <time>2026-09-01T01:13:47Z</time>
  <course>180.72</course>
  <speed>0.970051545022222</speed>
  <fix>3d</fix>
</trkpt>
<trkpt lat="33.8094957" lon="-118.3944318">
  <ele>-44.1</ele>
  <time>2026-09-01T01:13:47Z</time>
  <course>179.98</course>
  <speed>0.99</speed>
  <fix>3d</fix>
</trkpt>
<trkpt lat="33.8094939" lon="-118.3944319">
  <ele>-45.255</ele>
  <time>2026-09-01T01:13:47Z</time>
  <course>180.71</course>
  <speed>0.970051545022222</speed>
  <fix>3d</fix>
</trkpt>
<trkpt lat="33.8094957" lon="-118.3944318">
  <ele>-44.1</ele>
  <time>2026-09-01T01:13:47Z</time>
  <course>179.98</course>
  <speed>0.99</speed>
  <fix>3d</fix>
</trkpt>
<trkpt lat="33.809493" lon="-118.3944319">
  <ele>-45.253</ele>
  <time>2026-09-01T01:13:47Z</time>
  <course>180.69</course>
  <speed>0.970051545022222</speed>
  <fix>3d</fix>
</trkpt>
<trkpt lat="33.809494" lon="-118.3944318">
  <ele>-44.14</ele>
  <time>2026-09-01T01:13:47Z</time>
  <course>179.94</course>
  <speed>0.99</speed>
  <fix>3d</fix>
</trkpt>
<trkpt lat="33.8094921" lon="-118.3944319">
  <ele>-45.241</ele>
  <time>2026-09-01T01:13:47Z</time>
  <course>180.68</course>
  <speed>0.970051545022222</speed>
  <fix>3d</fix>
</trkpt>
<trkpt lat="33.809494" lon="-118.3944318">
  <ele>-44.14</ele>
  <time>2026-09-01T01:13:47Z</time>
  <course>179.94</course>
  <speed>0.99</speed>
  <fix>3d</fix>
</trkpt>
<trkpt lat="33.8094912" lon="-118.3944319">
  <ele>-45.218</ele>
  <time>2026-09-01T01:13:47Z</time>
  <course>180.67</course>
  <speed>0.970051545022222</speed>
  <fix>3d</fix>
</trkpt>
<trkpt lat="33.8094921" lon="-118.3944318">
  <ele>-44.14</ele>
  <time>2026-09-01T01:13:47Z</time>
  <course>179.9</course>
  <speed>0.99</speed>
  <fix>3d</fix>
</trkpt>
<trkpt lat="33.8094903" lon="-118.3944319">
  <ele>-45.186</ele>
  <time>2026-09-01T01:13:47Z</time>
  <course>180.67</course>
  <speed>0.970051545022222</speed>
  <fix>3d</fix>
</trkpt>
<trkpt lat="33.8094921" lon="-118.3944318">
  <ele>-44.14</ele>
  <time>2026-09-01T01:13:47Z</time>
  <course>179.9</course>
  <speed>0.99</speed>
  <fix>3d</fix>
</trkpt>
<trkpt lat="33.8094894" lon="-118.3944319">
  <ele>-45.151</ele>
  <time>2026-09-01T01:13:47Z</time>
  <course>180.67</course>
  <speed>0.970051545022222</speed>
  <fix>3d</fix>
</trkpt>
<trkpt lat="33.8094904" lon="-118.3944318">
  <ele>-44.1</ele>
  <time>2026-09-01T01:13:47Z</time>
  <course>179.89</course>
  <speed>0.99</speed>
  <fix>3d</fix>
</trkpt>
<trkpt lat="33.8094885" lon="-118.3944319">
  <ele>-45.115</ele>
  <time>2026-09-01T01:13:47Z</time>
  <course>180.66</course>
  <speed>0.970051545022222</speed>
  <fix>3d</fix>
</trkpt>
<trkpt lat="33.8094904" lon="-118.3944318">
  <ele>-44.1</ele>
  <time>2026-09-01T01:13:47Z</time>
  <course>179.89</course>
  <speed>0.99</speed>
  <fix>3d</fix>
</trkpt>
<trkpt lat="33.8094876" lon="-118.3944319">
  <ele>-45.078</ele>
  <time>2026-09-01T01:13:47Z</time>
  <course>180.66</course>
  <speed>0.970051545022222</speed>
  <fix>3d</fix>
</trkpt>
<trkpt lat="33.8094885" lon="-118.3944318">
  <ele>-44.04</ele>
  <time>2026-09-01T01:13:47Z</time>
  <course>179.87</course>
  <speed>0.99</speed>
  <fix>3d</fix>
</trkpt>
<trkpt lat="33.8094867" lon="-118.3944319">
  <ele>-45.04</ele>
  <time>2026-09-01T01:13:47Z</time>
  <course>180.66</course>
  <speed>0.970051545022222</speed>
  <fix>3d</fix>
</trkpt>
<trkpt lat="33.8094885" lon="-118.3944318">
  <ele>-44.04</ele>
  <time>2026-09-01T01:13:47Z</time>
  <course>179.87</course>
  <speed>0.99</speed>
  <fix>3d</fix>
</trkpt>
<trkpt lat="33.8094858" lon="-118.3944319">
  <ele>-45.004</ele>
  <time>2026-09-01T01:13:47Z</time>
  <course>180.66</course>
  <speed>0.970051545022222</speed>
  <fix>3d</fix>
</trkpt>
<trkpt lat="33.8094868" lon="-118.3944318">
  <ele>-43.97</ele>
  <time>2026-09-01T01:13:47Z</time>
  <course>179.86</course>
  <speed>0.99</speed>
  <fix>3d</fix>
</trkpt>
<trkpt lat="33.8094849" lon="-118.3944319">
  <ele>-44.968</ele>
  <time>2026-09-01T01:13:47Z</time>
  <course>180.66</course>
  <speed>0.970051545022222</speed>
  <fix>3d</fix>
</trkpt>
<trkpt lat="33.8094868" lon="-118.3944318">
  <ele>-43.97</ele>
  <time>2026-09-01T01:13:47Z</time>
  <course>179.86</course>
  <speed>0.99</speed>
  <fix>3d</fix>
</trkpt>
<trkpt lat="33.809484" lon="-118.3944319">
  <ele>-44.936</ele>
  <time>2026-09-01T01:13:47Z</time>
  <course>180.67</course>
  <speed>0.970051545022222</speed>
  <fix>3d</fix>
</trkpt>
<trkpt lat="33.8094849" lon="-118.3944318">
  <ele>-43.91</ele>
  <time>2026-09-01T01:13:47Z</time>
  <course>179.86</course>
  <speed>0.99</speed>
  <fix>3d</fix>
</trkpt>
<trkpt lat="33.8094831" lon="-118.3944319">
  <ele>-44.907</ele>
  <time>2026-09-01T01:13:47Z</time>
  <course>180.67</course>
  <speed>0.970051545022222</speed>
  <fix>3d</fix>
</trkpt>
<trkpt lat="33.8094849" lon="-118.3944318">
  <ele>-43.91</ele>
  <time>2026-09-01T01:13:47Z</time>
  <course>179.86</course>
  <speed>0.99</speed>
  <fix>3d</fix>
</trkpt>
<trkpt lat="33.8094822" lon="-118.3944319">
  <ele>-44.882</ele>
  <time>2026-09-01T01:13:47Z</time>
  <course>180.68</course>
  <speed>0.970051545022222</speed>
  <fix>3d</fix>
</trkpt>
<trkpt lat="33.8094832" lon="-118.3944318">
  <ele>-43.85</ele>
  <time>2026-09-01T01:13:47Z</time>
  <course>179.85</course>
  <speed>0.99</speed>
  <fix>3d</fix>
</trkpt>
<trkpt lat="33.8094813" lon="-118.3944319">
  <ele>-44.859</ele>
  <time>2026-09-01T01:13:47Z</time>
  <course>180.68</course>
  <speed>0.970051545022222</speed>
  <fix>3d</fix>
</trkpt>
<trkpt lat="33.8094832" lon="-118.3944318">
  <ele>-43.85</ele>
  <time>2026-09-01T01:13:47Z</time>
  <course>179.85</course>
  <speed>0.99</speed>
  <fix>3d</fix>
</trkpt>
<trkpt lat="33.8094804" lon="-118.3944319">
  <ele>-44.841</ele>
  <time>2026-09-01T01:13:47Z</time>
  <course>180.69</course>
  <speed>0.970051545022222</speed>
  <fix>3d</fix>
</trkpt>
<trkpt lat="33.8094813" lon="-118.3944318">
  <ele>-43.8</ele>
  <time>2026-09-01T01:13:47Z</time>
  <course>179.83</course>
  <speed>0.99</speed>
  <fix>3d</fix>
</trkpt>
<trkpt lat="33.8094795" lon="-118.3944319">
  <ele>-44.831</ele>
  <time>2026-09-01T01:13:47Z</time>
  <course>180.69</course>
  <speed>0.970051545022222</speed>
  <fix>3d</fix>
</trkpt>
<trkpt lat="33.8094813" lon="-118.3944318">
  <ele>-43.8</ele>
  <time>2026-09-01T01:13:47Z</time>
  <course>179.83</course>
  <speed>0.99</speed>
  <fix>3d</fix>
</trkpt>
<trkpt lat="33.8094786" lon="-118.3944319">
  <ele>-44.826</ele>
  <time>2026-09-01T01:13:47Z</time>
  <course>180.7</course>
  <speed>0.970051545022222</speed>
  <fix>3d</fix>
</trkpt>
<trkpt lat="33.8094796" lon="-118.3944318">
  <ele>-43.76</ele>
  <time>2026-09-01T01:13:47Z</time>
  <course>179.82</course>
  <speed>0.99</speed>
  <fix>3d</fix>
</trkpt>
<trkpt lat="33.8094777" lon="-118.3944319">
  <ele>-44.83</ele>
  <time>2026-09-01T01:13:47Z</time>
  <course>180.7</course>
  <speed>0.970051545022222</speed>
  <fix>3d</fix>
</trkpt>
<trkpt lat="33.8094796" lon="-118.3944318">
  <ele>-43.76</ele>
  <time>2026-09-01T01:13:47Z</time>
  <course>179.82</course>
  <speed>0.99</speed>
  <fix>3d</fix>
</trkpt>
<trkpt lat="33.8094768" lon="-118.3944319">
  <ele>-44.843</ele>
  <time>2026-09-01T01:13:47Z</time>
  <course>180.71</course>
  <speed>0.970051545022222</speed>
  <fix>3d</fix>
</trkpt>
<trkpt lat="33.8094778" lon="-118.3944318">
  <ele>-43.76</ele>
  <time>2026-09-01T01:13:47Z</time>
  <course>179.82</course>
  <speed>0.99</speed>
  <fix>3d</fix>
</trkpt>
<trkpt lat="33.8094759" lon="-118.3944319">
  <ele>-44.864</ele>
  <time>2026-09-01T01:13:47Z</time>
  <course>180.72</course>
  <speed>0.970051545022222</speed>
  <fix>3d</fix>
</trkpt>
<trkpt lat="33.8094778" lon="-118.3944318">
  <ele>-43.76</ele>
  <time>2026-09-01T01:13:47Z</time>
  <course>179.82</course>
  <speed>0.99</speed>
  <fix>3d</fix>
</trkpt>
<trkpt lat="33.8094751" lon="-118.3944319">
  <ele>-44.888</ele>
  <time>2026-09-01T01:13:47Z</time>
  <course>180.72</course>
  <speed>0.970051545022222</speed>
  <fix>3d</fix>
</trkpt>
<trkpt lat="33.8094761" lon="-118.3944318">
  <ele>-43.78</ele>
  <time>2026-09-01T01:13:47Z</time>
  <course>179.81</course>
  <speed>0.99</speed>
  <fix>3d</fix>
</trkpt>
<trkpt lat="33.8094742" lon="-118.3944319">
  <ele>-44.914</ele>
  <time>2026-09-01T01:13:47Z</time>
  <course>180.73</course>
  <speed>0.970051545022222</speed>
  <fix>3d</fix>
</trkpt>
<trkpt lat="33.8094761" lon="-118.3944318">
  <ele>-43.78</ele>
  <time>2026-09-01T01:13:47Z</time>
  <course>179.81</course>
  <speed>0.99</speed>
  <fix>3d</fix>
</trkpt>
<trkpt lat="33.8094733" lon="-118.3944319">
  <ele>-44.943</ele>
  <time>2026-09-01T01:13:47Z</time>
  <course>180.73</course>
  <speed>0.970051545022222</speed>
  <fix>3d</fix>
</trkpt>
<trkpt lat="33.8094743" lon="-118.3944318">
  <ele>-43.82</ele>
  <time>2026-09-01T01:13:47Z</time>
  <course>179.82</course>
  <speed>0.99</speed>
  <fix>3d</fix>
</trkpt>
<trkpt lat="33.8094724" lon="-118.3944319">
  <ele>-44.975</ele>
  <time>2026-09-01T01:13:47Z</time>
  <course>180.73</course>
  <speed>0.970051545022222</speed>
  <fix>3d</fix>
</trkpt>
<trkpt lat="33.8094743" lon="-118.3944318">
  <ele>-43.82</ele>
  <time>2026-09-01T01:13:47Z</time>
  <course>179.82</course>
  <speed>0.99</speed>
  <fix>3d</fix>
</trkpt>
<trkpt lat="33.8094715" lon="-118.3944319">
  <ele>-45.006</ele>
  <time>2026-09-01T01:13:47Z</time>
  <course>180.74</course>
  <speed>0.970051545022222</speed>
  <fix>3d</fix>
</trkpt>
<trkpt lat="33.8094725" lon="-118.3944318">
  <ele>-43.87</ele>
  <time>2026-09-01T01:13:47Z</time>
  <course>179.81</course>
  <speed>0.99</speed>
  <fix>3d</fix>
</trkpt>
<trkpt lat="33.8094706" lon="-118.3944319">
  <ele>-45.034</ele>
  <time>2026-09-01T01:13:47Z</time>
  <course>180.73</course>
  <speed>0.9800510190801294</speed>
  <fix>3d</fix>
</trkpt>
<trkpt lat="33.8094725" lon="-118.3944318">
  <ele>-43.87</ele>
  <time>2026-09-01T01:13:47Z</time>
  <course>179.81</course>
  <speed>0.99</speed>
  <fix>3d</fix>
</trkpt>
<trkpt lat="33.8094697" lon="-118.3944319">
  <ele>-45.06</ele>
  <time>2026-09-01T01:13:47Z</time>
  <course>180.73</course>
  <speed>0.9800510190801294</speed>
  <fix>3d</fix>
</trkpt>
<trkpt lat="33.8094707" lon="-118.3944318">
  <ele>-43.93</ele>
  <time>2026-09-01T01:13:47Z</time>
  <course>179.78</course>
  <speed>1.0</speed>
  <fix>3d</fix>
</trkpt>
<trkpt lat="33.8094688" lon="-118.3944319">
  <ele>-45.083</ele>
  <time>2026-09-01T01:13:47Z</time>
  <course>180.73</course>
  <speed>0.9800510190801294</speed>
  <fix>3d</fix>
</trkpt>
<trkpt lat="33.8094707" lon="-118.3944318">
  <ele>-43.93</ele>
  <time>2026-09-01T01:13:47Z</time>
  <course>179.78</course>
  <speed>1.0</speed>
  <fix>3d</fix>
</trkpt>
<trkpt lat="33.8094679" lon="-118.3944319">
  <ele>-45.102</ele>
  <time>2026-09-01T01:13:47Z</time>
  <course>180.74</course>
  <speed>0.9800510190801294</speed>
  <fix>3d</fix>
</trkpt>
<trkpt lat="33.8094689" lon="-118.3944318">
  <ele>-43.98</ele>
  <time>2026-09-01T01:13:47Z</time>
  <course>179.77</course>
  <speed>1.0</speed>
  <fix>3d</fix>
</trkpt>
<trkpt lat="33.809467" lon="-118.3944319">
  <ele>-45.119</ele>
  <time>2026-09-01T01:13:47Z</time>
  <course>180.74</course>
  <speed>0.9800510190801294</speed>
  <fix>3d</fix>
</trkpt>
<trkpt lat="33.8094689" lon="-118.3944318">
  <ele>-43.98</ele>
  <time>2026-09-01T01:13:47Z</time>
  <course>179.77</course>
  <speed>1.0</speed>
  <fix>3d</fix>
</trkpt>
<trkpt lat="33.8094661" lon="-118.3944319">
  <ele>-45.13</ele>
  <time>2026-09-01T01:13:47Z</time>
  <course>180.74</course>
  <speed>0.9800510190801294</speed>
  <fix>3d</fix>
</trkpt>
<trkpt lat="33.809467" lon="-118.3944318">
  <ele>-44.01</ele>
  <time>2026-09-01T01:13:47Z</time>
  <course>179.76</course>
  <speed>1.0</speed>
  <fix>3d</fix>
</trkpt>
<trkpt lat="33.8094652" lon="-118.3944319">
  <ele>-45.133</ele>
  <time>2026-09-01T01:13:47Z</time>
  <course>180.74</course>
  <speed>0.970051545022222</speed>
  <fix>3d</fix>
</trkpt>
<trkpt lat="33.809467" lon="-118.3944318">
  <ele>-44.01</ele>
  <time>2026-09-01T01:13:47Z</time>
  <course>179.76</course>
  <speed>1.0</speed>
  <fix>3d</fix>
</trkpt>
<trkpt lat="33.8094643" lon="-118.3944319">
  <ele>-45.128</ele>
  <time>2026-09-01T01:13:47Z</time>
  <course>180.74</course>
  <speed>0.970051545022222</speed>
  <fix>3d</fix>
</trkpt>
<trkpt lat="33.8094653" lon="-118.3944318">
  <ele>-44.03</ele>
  <time>2026-09-01T01:13:47Z</time>
  <course>179.73</course>
  <speed>1.0</speed>
  <fix>3d</fix>
</trkpt>
<trkpt lat="33.8094634" lon="-118.3944319">
  <ele>-45.119</ele>
  <time>2026-09-01T01:13:47Z</time>
  <course>180.75</course>
  <speed>0.970051545022222</speed>
  <fix>3d</fix>
</trkpt>
<trkpt lat="33.8094653" lon="-118.3944318">
  <ele>-44.03</ele>
  <time>2026-09-01T01:13:47Z</time>
  <course>179.73</course>
  <speed>1.0</speed>
  <fix>3d</fix>
</trkpt>
<trkpt lat="33.8094625" lon="-118.3944319">
  <ele>-45.107</ele>
  <time>2026-09-01T01:13:47Z</time>
  <course>180.75</course>
  <speed>0.970051545022222</speed>
  <fix>3d</fix>
</trkpt>
<trkpt lat="33.8094634" lon="-118.3944318">
  <ele>-44.03</ele>
  <time>2026-09-01T01:13:47Z</time>
  <course>179.71</course>
  <speed>1.0</speed>
  <fix>3d</fix>
</trkpt>
<trkpt lat="33.8094616" lon="-118.3944319">
  <ele>-45.091</ele>
  <time>2026-09-01T01:13:47Z</time>
  <course>180.76</course>
  <speed>0.970051545022222</speed>
  <fix>3d</fix>
</trkpt>
<trkpt lat="33.8094634" lon="-118.3944318">
  <ele>-44.03</ele>
  <time>2026-09-01T01:13:47Z</time>
  <course>179.71</course>
  <speed>1.0</speed>
  <fix>3d</fix>
</trkpt>
<trkpt lat="33.8094607" lon="-118.3944319">
  <ele>-45.075</ele>
  <time>2026-09-01T01:13:47Z</time>
  <course>180.77</course>
  <speed>0.970051545022222</speed>
  <fix>3d</fix>
</trkpt>
<trkpt lat="33.8094617" lon="-118.3944318">
  <ele>-44.01</ele>
  <time>2026-09-01T01:13:47Z</time>
  <course>179.69</course>
  <speed>1.0</speed>
  <fix>3d</fix>
</trkpt>
<trkpt lat="33.8094598" lon="-118.3944319">
  <ele>-45.058</ele>
  <time>2026-09-01T01:13:47Z</time>
  <course>180.78</course>
  <speed>0.970051545022222</speed>
  <fix>3d</fix>
</trkpt>
<trkpt lat="33.8094617" lon="-118.3944318">
  <ele>-44.01</ele>
  <time>2026-09-01T01:13:47Z</time>
  <course>179.69</course>
  <speed>1.0</speed>
  <fix>3d</fix>
</trkpt>
<trkpt lat="33.8094589" lon="-118.3944319">
  <ele>-45.041</ele>
  <time>2026-09-01T01:13:47Z</time>
  <course>180.79</course>
  <speed>0.970051545022222</speed>
  <fix>3d</fix>
</trkpt>
<trkpt lat="33.8094598" lon="-118.3944317">
  <ele>-43.98</ele>
  <time>2026-09-01T01:13:47Z</time>
  <course>179.68</course>
  <speed>1.0</speed>
  <fix>3d</fix>
</trkpt>
<trkpt lat="33.809458" lon="-118.3944319">
  <ele>-45.025</ele>
  <time>2026-09-01T01:13:47Z</time>
  <course>180.8</course>
  <speed>0.970051545022222</speed>
  <fix>3d</fix>
</trkpt>
<trkpt lat="33.8094598" lon="-118.3944317">
  <ele>-43.98</ele>
  <time>2026-09-01T01:13:47Z</time>
  <course>179.68</course>
  <speed>1.0</speed>
  <fix>3d</fix>
</trkpt>
<trkpt lat="33.8094571" lon="-118.3944319">
  <ele>-45.009</ele>
  <time>2026-09-01T01:13:47Z</time>
  <course>180.84</course>
  <speed>0.9800510190801294</speed>
  <fix>3d</fix>
</trkpt>
<trkpt lat="33.8094581" lon="-118.3944317">
  <ele>-43.95</ele>
  <time>2026-09-01T01:13:47Z</time>
  <course>179.72</course>
  <speed>1.0</speed>
  <fix>3d</fix>
</trkpt>
<trkpt lat="33.8094562" lon="-118.3944319">
  <ele>-44.995</ele>
  <time>2026-09-01T01:13:47Z</time>
  <course>180.87</course>
  <speed>0.9800510190801294</speed>
  <fix>3d</fix>
</trkpt>
<trkpt lat="33.8094581" lon="-118.3944317">
  <ele>-43.95</ele>
  <time>2026-09-01T01:13:47Z</time>
  <course>179.72</course>
  <speed>1.0</speed>
  <fix>3d</fix>
</trkpt>
<trkpt lat="33.8094553" lon="-118.3944319">
  <ele>-44.983</ele>
  <time>2026-09-01T01:13:47Z</time>
  <course>180.91</course>
  <speed>0.9800510190801294</speed>
  <fix>3d</fix>
</trkpt>
<trkpt lat="33.8094562" lon="-118.3944317">
  <ele>-43.93</ele>
  <time>2026-09-01T01:13:47Z</time>
  <course>179.79</course>
  <speed>1.0</speed>
  <fix>3d</fix>
</trkpt>
<trkpt lat="33.8094544" lon="-118.3944319">
  <ele>-44.972</ele>
  <time>2026-09-01T01:13:47Z</time>
  <course>180.97</course>
  <speed>0.9800510190801294</speed>
  <fix>3d</fix>
</trkpt>
<trkpt lat="33.8094562" lon="-118.3944317">
  <ele>-43.93</ele>
  <time>2026-09-01T01:13:47Z</time>
  <course>179.79</course>
  <speed>1.0</speed>
  <fix>3d</fix>
</trkpt>
<trkpt lat="33.8094535" lon="-118.3944319">
  <ele>-44.968</ele>
  <time>2026-09-01T01:13:47Z</time>
  <course>181.02</course>
  <speed>0.9800510190801294</speed>
  <fix>3d</fix>
</trkpt>
<trkpt lat="33.8094545" lon="-118.3944317">
  <ele>-43.91</ele>
  <time>2026-09-01T01:13:47Z</time>
  <course>179.86</course>
  <speed>1.0</speed>
  <fix>3d</fix>
</trkpt>
<trkpt lat="33.8094526" lon="-118.3944319">
  <ele>-44.968</ele>
  <time>2026-09-01T01:13:47Z</time>
  <course>181.06</course>
  <speed>0.9800510190801294</speed>
  <fix>3d</fix>
</trkpt>
<trkpt lat="33.8094545" lon="-118.3944317">
  <ele>-43.91</ele>
  <time>2026-09-01T01:13:47Z</time>
  <course>179.86</course>
  <speed>1.0</speed>
  <fix>3d</fix>
</trkpt>
<trkpt lat="33.8094517" lon="-118.3944319">
  <ele>-44.971</ele>
  <time>2026-09-01T01:13:47Z</time>
  <course>181.1</course>
  <speed>0.9800510190801294</speed>
  <fix>3d</fix>
</trkpt>
<trkpt lat="33.8094526" lon="-118.3944317">
  <ele>-43.9</ele>
  <time>2026-09-01T01:13:47Z</time>
  <course>179.92</course>
  <speed>1.0</speed>
  <fix>3d</fix>
</trkpt>
<trkpt lat="33.8094508" lon="-118.3944319">
  <ele>-44.973</ele>
  <time>2026-09-01T01:13:47Z</time>
  <course>181.14</course>
  <speed>0.9802040603874276</speed>
  <fix>3d</fix>
</trkpt>
<trkpt lat="33.8094526" lon="-118.3944317">
  <ele>-43.9</ele>
  <time>2026-09-01T01:13:47Z</time>
  <course>179.92</course>
  <speed>1.0</speed>
  <fix>3d</fix>
</trkpt>
<trkpt lat="33.8094499" lon="-118.3944319">
  <ele>-44.977</ele>
  <time>2026-09-01T01:13:47Z</time>
  <course>181.17</course>
  <speed>0.9800510190801294</speed>
  <fix>3d</fix>
</trkpt>
<trkpt lat="33.8094509" lon="-118.3944317">
  <ele>-43.9</ele>
  <time>2026-09-01T01:13:47Z</time>
  <course>179.96</course>
  <speed>1.0</speed>
  <fix>3d</fix>
</trkpt>
<trkpt lat="33.809449" lon="-118.3944319">
  <ele>-44.983</ele>
  <time>2026-09-01T01:13:47Z</time>
  <course>181.18</course>
  <speed>0.9802040603874276</speed>
  <fix>3d</fix>
</trkpt>
<trkpt lat="33.8094509" lon="-118.3944317">
  <ele>-43.9</ele>
  <time>2026-09-01T01:13:47Z</time>
  <course>179.96</course>
  <speed>1.0</speed>
  <fix>3d</fix>
</trkpt>
<trkpt lat="33.8094481" lon="-118.3944319">
  <ele>-44.992</ele>
  <time>2026-09-01T01:13:47Z</time>
  <course>181.21</course>
  <speed>0.9800510190801294</speed>
  <fix>3d</fix>
</trkpt>
<trkpt lat="33.809449" lon="-118.3944317">
  <ele>-43.91</ele>
  <time>2026-09-01T01:13:47Z</time>
  <course>179.99</course>
  <speed>1.0</speed>
  <fix>3d</fix>
</trkpt>
<trkpt lat="33.8094472" lon="-118.3944319">
  <ele>-45.0</ele>
  <time>2026-09-01T01:13:47Z</time>
  <course>181.22</course>
  <speed>0.9802040603874276</speed>
  <fix>3d</fix>
</trkpt>
<trkpt lat="33.809449" lon="-118.3944317">
  <ele>-43.91</ele>
  <time>2026-09-01T01:13:47Z</time>
  <course>179.99</course>
  <speed>1.0</speed>
  <fix>3d</fix>
</trkpt>
<trkpt lat="33.8094463" lon="-118.3944319">
  <ele>-45.005</ele>
  <time>2026-09-01T01:13:47Z</time>
  <course>181.24</course>
  <speed>0.9800510190801294</speed>
  <fix>3d</fix>
</trkpt>
<trkpt lat="33.8094473" lon="-118.3944317">
  <ele>-43.92</ele>
  <time>2026-09-01T01:13:47Z</time>
  <course>180.02</course>
  <speed>1.0</speed>
  <fix>3d</fix>
</trkpt>
<trkpt lat="33.8094454" lon="-118.3944319">
  <ele>-45.008</ele>
  <time>2026-09-01T01:13:47Z</time>
  <course>181.25</course>
  <speed>0.9802040603874276</speed>
  <fix>3d</fix>
</trkpt>
<trkpt lat="33.8094473" lon="-118.3944317">
  <ele>-43.92</ele>
  <time>2026-09-01T01:13:47Z</time>
  <course>180.02</course>
  <speed>1.0</speed>
  <fix>3d</fix>
</trkpt>
<trkpt lat="33.8094445" lon="-118.3944319">
  <ele>-45.012</ele>
  <time>2026-09-01T01:13:47Z</time>
  <course>181.26</course>
  <speed>0.9800510190801294</speed>
  <fix>3d</fix>
</trkpt>
<trkpt lat="33.8094454" lon="-118.3944317">
  <ele>-43.93</ele>
  <time>2026-09-01T01:13:47Z</time>
  <course>180.03</course>
  <speed>1.0</speed>
  <fix>3d</fix>
</trkpt>
<trkpt lat="33.8094436" lon="-118.3944319">
  <ele>-45.019</ele>
  <time>2026-09-01T01:13:47Z</time>
  <course>181.27</course>
  <speed>0.9802040603874276</speed>
  <fix>3d</fix>
</trkpt>
<trkpt lat="33.8094454" lon="-118.3944317">
  <ele>-43.93</ele>
  <time>2026-09-01T01:13:47Z</time>
  <course>180.03</course>
  <speed>1.0</speed>
  <fix>3d</fix>
</trkpt>
<trkpt lat="33.8094427" lon="-118.3944319">
  <ele>-45.029</ele>
  <time>2026-09-01T01:13:47Z</time>
  <course>181.28</course>
  <speed>0.9800510190801294</speed>
  <fix>3d</fix>
</trkpt>
<trkpt lat="33.8094436" lon="-118.3944317">
  <ele>-43.93</ele>
  <time>2026-09-01T01:13:47Z</time>
  <course>180.05</course>
  <speed>1.0</speed>
  <fix>3d</fix>
</trkpt>
<trkpt lat="33.8094418" lon="-118.3944319">
  <ele>-45.038</ele>
  <time>2026-09-01T01:13:47Z</time>
  <course>181.28</course>
  <speed>0.9702061636580135</speed>
  <fix>3d</fix>
</trkpt>
<trkpt lat="33.8094436" lon="-118.3944317">
  <ele>-43.93</ele>
  <time>2026-09-01T01:13:47Z</time>
  <course>180.05</course>
  <speed>1.0</speed>
  <fix>3d</fix>
</trkpt>
<trkpt lat="33.8094409" lon="-118.3944319">
  <ele>-45.047</ele>
  <time>2026-09-01T01:13:47Z</time>
  <course>181.28</course>
  <speed>0.9800510190801294</speed>
  <fix>3d</fix>
</trkpt>
<trkpt lat="33.8094418" lon="-118.3944317">
  <ele>-43.94</ele>
  <time>2026-09-01T01:13:47Z</time>
  <course>180.07</course>
  <speed>1.0</speed>
  <fix>3d</fix>
</trkpt>
<trkpt lat="33.80944" lon="-118.3944319">
  <ele>-45.057</ele>
  <time>2026-09-01T01:13:47Z</time>
  <course>181.29</course>
  <speed>0.9702061636580135</speed>
  <fix>3d</fix>
</trkpt>
<trkpt lat="33.8094418" lon="-118.3944317">
  <ele>-43.94</ele>
  <time>2026-09-01T01:13:47Z</time>
  <course>180.07</course>
  <speed>1.0</speed>
  <fix>3d</fix>
</trkpt>
<trkpt lat="33.8094391" lon="-118.3944319">
  <ele>-45.065</ele>
  <time>2026-09-01T01:13:47Z</time>
  <course>181.29</course>
  <speed>0.970051545022222</speed>
  <fix>3d</fix>
</trkpt>
<trkpt lat="33.8094399" lon="-118.3944317">
  <ele>-43.97</ele>
  <time>2026-09-01T01:13:47Z</time>
  <course>180.09</course>
  <speed>1.0</speed>
  <fix>3d</fix>
</trkpt>
<trkpt lat="33.8094382" lon="-118.3944319">
  <ele>-45.066</ele>
  <time>2026-09-01T01:13:47Z</time>
  <course>181.29</course>
  <speed>0.9702061636580135</speed>
  <fix>3d</fix>
</trkpt>
<trkpt lat="33.8094399" lon="-118.3944317">
  <ele>-43.97</ele>
  <time>2026-09-01T01:13:47Z</time>
  <course>180.09</course>
  <speed>1.0</speed>
  <fix>3d</fix>
</trkpt>
<trkpt lat="33.8094373" lon="-118.3944319">
  <ele>-45.062</ele>
  <time>2026-09-01T01:13:47Z</time>
  <course>181.29</course>
  <speed>0.970051545022222</speed>
  <fix>3d</fix>
</trkpt>
<trkpt lat="33.8094382" lon="-118.3944317">
  <ele>-43.98</ele>
  <time>2026-09-01T01:13:47Z</time>
  <course>180.1</course>
  <speed>1.0</speed>
  <fix>3d</fix>
</trkpt>
<trkpt lat="33.8094364" lon="-118.3944319">
  <ele>-45.057</ele>
  <time>2026-09-01T01:13:47Z</time>
  <course>181.29</course>
  <speed>0.9702061636580135</speed>
  <fix>3d</fix>
</trkpt>
<trkpt lat="33.8094382" lon="-118.3944317">
  <ele>-43.98</ele>
  <time>2026-09-01T01:13:47Z</time>
  <course>180.1</course>
  <speed>1.0</speed>
  <fix>3d</fix>
</trkpt>
<trkpt lat="33.8094355" lon="-118.3944319">
  <ele>-45.051</ele>
  <time>2026-09-01T01:13:47Z</time>
  <course>181.29</course>
  <speed>0.970051545022222</speed>
  <fix>3d</fix>
</trkpt>
<trkpt lat="33.8094363" lon="-118.3944317">
  <ele>-43.97</ele>
  <time>2026-09-01T01:13:47Z</time>
  <course>180.09</course>
  <speed>1.0</speed>
  <fix>3d</fix>
</trkpt>
<trkpt lat="33.8094346" lon="-118.3944319">
  <ele>-45.042</ele>
  <time>2026-09-01T01:13:47Z</time>
  <course>181.29</course>
  <speed>0.9702061636580135</speed>
  <fix>3d</fix>
</trkpt>
<trkpt lat="33.8094363" lon="-118.3944317">
  <ele>-43.97</ele>
  <time>2026-09-01T01:13:47Z</time>
  <course>180.09</course>
  <speed>1.0</speed>
  <fix>3d</fix>
</trkpt>
<trkpt lat="33.8094337" lon="-118.3944319">
  <ele>-45.03</ele>
  <time>2026-09-01T01:13:47Z</time>
  <course>181.29</course>
  <speed>0.970051545022222</speed>
  <fix>3d</fix>
</trkpt>
<trkpt lat="33.8094346" lon="-118.3944317">
  <ele>-43.96</ele>
  <time>2026-09-01T01:13:47Z</time>
  <course>180.1</course>
  <speed>1.0</speed>
  <fix>3d</fix>
</trkpt>
<trkpt lat="33.8094328" lon="-118.3944319">
  <ele>-45.018</ele>
  <time>2026-09-01T01:13:47Z</time>
  <course>181.29</course>
  <speed>0.9702061636580135</speed>
  <fix>3d</fix>
</trkpt>
<trkpt lat="33.8094346" lon="-118.3944317">
  <ele>-43.96</ele>
  <time>2026-09-01T01:13:47Z</time>
  <course>180.1</course>
  <speed>1.0</speed>
  <fix>3d</fix>
</trkpt>
<trkpt lat="33.8094319" lon="-118.3944319">
  <ele>-45.005</ele>
  <time>2026-09-01T01:13:47Z</time>
  <course>181.3</course>
  <speed>0.970051545022222</speed>
  <fix>3d</fix>
</trkpt>
<trkpt lat="33.8094327" lon="-118.3944317">
  <ele>-43.93</ele>
  <time>2026-09-01T01:13:47Z</time>
  <course>180.11</course>
  <speed>1.0</speed>
  <fix>3d</fix>
</trkpt>
<trkpt lat="33.809431" lon="-118.3944319">
  <ele>-44.996</ele>
  <time>2026-09-01T01:13:47Z</time>
  <course>181.3</course>
  <speed>0.9702061636580135</speed>
  <fix>3d</fix>
</trkpt>
<trkpt lat="33.8094327" lon="-118.3944317">
  <ele>-43.93</ele>
  <time>2026-09-01T01:13:47Z</time>
  <course>180.11</course>
  <speed>1.0</speed>
  <fix>3d</fix>
</trkpt>
<trkpt lat="33.8094301" lon="-118.3944319">
  <ele>-44.988</ele>
  <time>2026-09-01T01:13:47Z</time>
  <course>181.3</course>
  <speed>0.970051545022222</speed>
  <fix>3d</fix>
</trkpt>
<trkpt lat="33.809431" lon="-118.3944317">
  <ele>-43.91</ele>
  <time>2026-09-01T01:13:47Z</time>
  <course>180.14</course>
  <speed>1.0</speed>
  <fix>3d</fix>
</trkpt>
<trkpt lat="33.8094292" lon="-118.3944319">
  <ele>-44.984</ele>
  <time>2026-09-01T01:13:47Z</time>
  <course>181.29</course>
  <speed>0.9702061636580135</speed>
  <fix>3d</fix>
</trkpt>
<trkpt lat="33.809431" lon="-118.3944317">
  <ele>-43.91</ele>
  <time>2026-09-01T01:13:47Z</time>
  <course>180.14</course>
  <speed>1.0</speed>
  <fix>3d</fix>
</trkpt>
<trkpt lat="33.8094283" lon="-118.3944319">
  <ele>-44.984</ele>
  <time>2026-09-01T01:13:47Z</time>
  <course>181.29</course>
  <speed>0.970051545022222</speed>
  <fix>3d</fix>
</trkpt>
<trkpt lat="33.8094291" lon="-118.3944317">
  <ele>-43.91</ele>
  <time>2026-09-01T01:13:47Z</time>
  <course>180.15</course>
  <speed>0.99</speed>
  <fix>3d</fix>
</trkpt>
<trkpt lat="33.8094274" lon="-118.3944319">
  <ele>-44.985</ele>
  <time>2026-09-01T01:13:47Z</time>
  <course>181.29</course>
  <speed>0.9702061636580135</speed>
  <fix>3d</fix>
</trkpt>
<trkpt lat="33.8094291" lon="-118.3944317">
  <ele>-43.91</ele>
  <time>2026-09-01T01:13:47Z</time>
  <course>180.15</course>
  <speed>0.99</speed>
  <fix>3d</fix>
</trkpt>
<trkpt lat="33.8094265" lon="-118.3944319">
  <ele>-44.987</ele>
  <time>2026-09-01T01:13:47Z</time>
  <course>181.28</course>
  <speed>0.970051545022222</speed>
  <fix>3d</fix>
</trkpt>
<trkpt lat="33.8094274" lon="-118.3944317">
  <ele>-43.91</ele>
  <time>2026-09-01T01:13:47Z</time>
  <course>180.16</course>
  <speed>0.99</speed>
  <fix>3d</fix>
</trkpt>
<trkpt lat="33.8094256" lon="-118.3944319">
  <ele>-44.989</ele>
  <time>2026-09-01T01:13:47Z</time>
  <course>181.27</course>
  <speed>0.9702061636580135</speed>
  <fix>3d</fix>
</trkpt>
<trkpt lat="33.8094274" lon="-118.3944317">
  <ele>-43.91</ele>
  <time>2026-09-01T01:13:47Z</time>
  <course>180.16</course>
  <speed>0.99</speed>
  <fix>3d</fix>
</trkpt>
<trkpt lat="33.8094247" lon="-118.3944319">
  <ele>-44.993</ele>
  <time>2026-09-01T01:13:47Z</time>
  <course>181.27</course>
  <speed>0.970051545022222</speed>
  <fix>3d</fix>
</trkpt>
<trkpt lat="33.8094257" lon="-118.3944317">
  <ele>-43.91</ele>
  <time>2026-09-01T01:13:47Z</time>
  <course>180.17</course>
  <speed>0.99</speed>
  <fix>3d</fix>
</trkpt>
<trkpt lat="33.8094238" lon="-118.3944319">
  <ele>-45.001</ele>
  <time>2026-09-01T01:13:47Z</time>
  <course>181.27</course>
  <speed>0.9702061636580135</speed>
  <fix>3d</fix>
</trkpt>
<trkpt lat="33.8094257" lon="-118.3944317">
  <ele>-43.91</ele>
  <time>2026-09-01T01:13:47Z</time>
  <course>180.17</course>
  <speed>0.99</speed>
  <fix>3d</fix>
</trkpt>
<trkpt lat="33.8094229" lon="-118.3944319">
  <ele>-45.011</ele>
  <time>2026-09-01T01:13:47Z</time>
  <course>181.26</course>
  <speed>0.970051545022222</speed>
  <fix>3d</fix>
</trkpt>
<trkpt lat="33.8094239" lon="-118.3944317">
  <ele>-43.92</ele>
  <time>2026-09-01T01:13:47Z</time>
  <course>180.17</course>
  <speed>0.99</speed>
  <fix>3d</fix>
</trkpt>
<trkpt lat="33.809422" lon="-118.3944319">
  <ele>-45.021</ele>
  <time>2026-09-01T01:13:47Z</time>
  <course>181.25</course>
  <speed>0.9702061636580135</speed>
  <fix>3d</fix>
</trkpt>
<trkpt lat="33.8094239" lon="-118.3944317">
  <ele>-43.92</ele>
  <time>2026-09-01T01:13:47Z</time>
  <course>180.17</course>
  <speed>0.99</speed>
  <fix>3d</fix>
</trkpt>
<trkpt lat="33.8094211" lon="-118.3944319">
  <ele>-45.028</ele>
  <time>2026-09-01T01:13:47Z</time>
  <course>181.25</course>
  <speed>0.970051545022222</speed>
  <fix>3d</fix>
</trkpt>
<trkpt lat="33.809422" lon="-118.3944317">
  <ele>-43.94</ele>
  <time>2026-09-01T01:13:47Z</time>
  <course>180.18</course>
  <speed>1.0</speed>
  <fix>3d</fix>
</trkpt>
<trkpt lat="33.8094202" lon="-118.3944319">
  <ele>-45.035</ele>
  <time>2026-09-01T01:13:47Z</time>
  <course>181.24</course>
  <speed>0.9702061636580135</speed>
  <fix>3d</fix>
</trkpt>
<trkpt lat="33.809422" lon="-118.3944317">
  <ele>-43.94</ele>
  <time>2026-09-01T01:13:47Z</time>
  <course>180.18</course>
  <speed>1.0</speed>
  <fix>3d</fix>
</trkpt>
<trkpt lat="33.8094193" lon="-118.3944319">
  <ele>-45.043</ele>
  <time>2026-09-01T01:13:47Z</time>
  <course>181.24</course>
  <speed>0.970051545022222</speed>
  <fix>3d</fix>
</trkpt>
<trkpt lat="33.8094203" lon="-118.3944317">
  <ele>-43.95</ele>
  <time>2026-09-01T01:13:47Z</time>
  <course>180.19</course>
  <speed>1.0</speed>
  <fix>3d</fix>
</trkpt>
<trkpt lat="33.8094184" lon="-118.3944319">
  <ele>-45.05</ele>
  <time>2026-09-01T01:13:47Z</time>
  <course>181.23</course>
  <speed>0.9702061636580135</speed>
  <fix>3d</fix>
</trkpt>
<trkpt lat="33.8094203" lon="-118.3944317">
  <ele>-43.95</ele>
  <time>2026-09-01T01:13:47Z</time>
  <course>180.19</course>
  <speed>1.0</speed>
  <fix>3d</fix>
</trkpt>
<trkpt lat="33.8094175" lon="-118.3944319">
  <ele>-45.052</ele>
  <time>2026-09-01T01:13:47Z</time>
  <course>181.23</course>
  <speed>0.9800510190801294</speed>
  <fix>3d</fix>
</trkpt>
<trkpt lat="33.8094184" lon="-118.3944317">
  <ele>-43.97</ele>
  <time>2026-09-01T01:13:47Z</time>
  <course>180.2</course>
  <speed>1.0</speed>
  <fix>3d</fix>
</trkpt>
<trkpt lat="33.8094166" lon="-118.3944319">
  <ele>-45.05</ele>
  <time>2026-09-01T01:13:47Z</time>
  <course>181.22</course>
  <speed>0.9702061636580135</speed>
  <fix>3d</fix>
</trkpt>
<trkpt lat="33.8094184" lon="-118.3944317">
  <ele>-43.97</ele>
  <time>2026-09-01T01:13:47Z</time>
  <course>180.2</course>
  <speed>1.0</speed>
  <fix>3d</fix>
</trkpt>
<trkpt lat="33.8094157" lon="-118.3944319">
  <ele>-45.048</ele>
  <time>2026-09-01T01:13:47Z</time>
  <course>181.22</course>
  <speed>0.970051545022222</speed>
  <fix>3d</fix>
</trkpt>
<trkpt lat="33.8094167" lon="-118.3944317">
  <ele>-43.97</ele>
  <time>2026-09-01T01:13:47Z</time>
  <course>180.2</course>
  <speed>1.0</speed>
  <fix>3d</fix>
</trkpt>
<trkpt lat="33.8094148" lon="-118.3944319">
  <ele>-45.044</ele>
  <time>2026-09-01T01:13:47Z</time>
  <course>181.21</course>
  <speed>0.9702061636580135</speed>
  <fix>3d</fix>
</trkpt>
<trkpt lat="33.8094167" lon="-118.3944317">
  <ele>-43.97</ele>
  <time>2026-09-01T01:13:47Z</time>
  <course>180.2</course>
  <speed>1.0</speed>
  <fix>3d</fix>
</trkpt>
<trkpt lat="33.8094139" lon="-118.3944319">
  <ele>-45.04</ele>
  <time>2026-09-01T01:13:47Z</time>
  <course>181.22</course>
  <speed>0.9500526301210896</speed>
  <fix>3d</fix>
</trkpt>
<trkpt lat="33.8094148" lon="-118.3944317">
  <ele>-43.97</ele>
  <time>2026-09-01T01:13:47Z</time>
  <course>180.21</course>
  <speed>1.0</speed>
  <fix>3d</fix>
</trkpt>
<trkpt lat="33.8094131" lon="-118.3944319">
  <ele>-45.036</ele>
  <time>2026-09-01T01:13:47Z</time>
  <course>181.24</course>
  <speed>0.900222194794152</speed>
  <fix>3d</fix>
</trkpt>
<trkpt lat="33.8094148" lon="-118.3944317">
  <ele>-43.97</ele>
  <time>2026-09-01T01:13:47Z</time>
  <course>180.21</course>
  <speed>1.0</speed>
  <fix>3d</fix>
</trkpt>
<trkpt lat="33.8094123" lon="-118.3944319">
  <ele>-45.033</ele>
  <time>2026-09-01T01:13:47Z</time>
  <course>181.3</course>
  <speed>0.9100549433962765</speed>
  <fix>3d</fix>
</trkpt>
<trkpt lat="33.8094131" lon="-118.3944317">
  <ele>-43.96</ele>
  <time>2026-09-01T01:13:47Z</time>
  <course>180.25</course>
  <speed>0.96</speed>
  <fix>3d</fix>
</trkpt>
<trkpt lat="33.8094114" lon="-118.3944319">
  <ele>-45.03</ele>
  <time>2026-09-01T01:13:47Z</time>
  <course>181.33</course>
  <speed>0.9202173656261873</speed>
  <fix>3d</fix>
</trkpt>
<trkpt lat="33.8094131" lon="-118.3944317">
  <ele>-43.96</ele>
  <time>2026-09-01T01:13:47Z</time>
  <course>180.25</course>
  <speed>0.96</speed>
  <fix>3d</fix>
</trkpt>
<trkpt lat="33.8094105" lon="-118.3944319">
  <ele>-45.026</ele>
  <time>2026-09-01T01:13:47Z</time>
  <course>181.33</course>
  <speed>0.9300537618869137</speed>
  <fix>3d</fix>
</trkpt>
<trkpt lat="33.8094114" lon="-118.3944317">
  <ele>-43.95</ele>
  <time>2026-09-01T01:13:47Z</time>
  <course>180.28</course>
  <speed>0.94</speed>
  <fix>3d</fix>
</trkpt>
<trkpt lat="33.8094097" lon="-118.3944319">
  <ele>-45.021</ele>
  <time>2026-09-01T01:13:47Z</time>
  <course>181.32</course>
  <speed>0.9300537618869137</speed>
  <fix>3d</fix>
</trkpt>
<trkpt lat="33.8094114" lon="-118.3944317">
  <ele>-43.95</ele>
  <time>2026-09-01T01:13:47Z</time>
  <course>180.28</course>
  <speed>0.94</speed>
  <fix>3d</fix>
</trkpt>
<trkpt lat="33.8094088" lon="-118.3944319">
  <ele>-45.017</ele>
  <time>2026-09-01T01:13:47Z</time>
  <course>181.3</course>
  <speed>0.9400531899844816</speed>
  <fix>3d</fix>
</trkpt>
<trkpt lat="33.8094097" lon="-118.3944317">
  <ele>-43.94</ele>
  <time>2026-09-01T01:13:47Z</time>
  <course>180.27</course>
  <speed>0.95</speed>
  <fix>3d</fix>
</trkpt>
<trkpt lat="33.8094079" lon="-118.3944319">
  <ele>-45.02</ele>
  <time>2026-09-01T01:13:47Z</time>
  <course>181.28</course>
  <speed>0.9400531899844816</speed>
  <fix>3d</fix>
</trkpt>
<trkpt lat="33.8094097" lon="-118.3944317">
  <ele>-43.94</ele>
  <time>2026-09-01T01:13:47Z</time>
  <course>180.27</course>
  <speed>0.95</speed>
  <fix>3d</fix>
</trkpt>
<trkpt lat="33.8094071" lon="-118.3944319">
  <ele>-45.026</ele>
  <time>2026-09-01T01:13:47Z</time>
  <course>181.27</course>
  <speed>0.9500526301210896</speed>
  <fix>3d</fix>
</trkpt>
<trkpt lat="33.8094079" lon="-118.3944317">
  <ele>-43.94</ele>
  <time>2026-09-01T01:13:47Z</time>
  <course>180.26</course>
  <speed>0.96</speed>
  <fix>3d</fix>
</trkpt>
<trkpt lat="33.8094062" lon="-118.3944319">
  <ele>-45.03</ele>
  <time>2026-09-01T01:13:47Z</time>
  <course>181.26</course>
  <speed>0.9500526301210896</speed>
  <fix>3d</fix>
</trkpt>
<trkpt lat="33.8094079" lon="-118.3944317">
  <ele>-43.94</ele>
  <time>2026-09-01T01:13:47Z</time>
  <course>180.26</course>
  <speed>0.96</speed>
  <fix>3d</fix>
</trkpt>
<trkpt lat="33.8094053" lon="-118.3944319">
  <ele>-45.032</ele>
  <time>2026-09-01T01:13:47Z</time>
  <course>181.25</course>
  <speed>0.9600520819205591</speed>
  <fix>3d</fix>
</trkpt>
<trkpt lat="33.8094062" lon="-118.3944317">
  <ele>-43.94</ele>
  <time>2026-09-01T01:13:47Z</time>
  <course>180.26</course>
  <speed>0.97</speed>
  <fix>3d</fix>
</trkpt>
<trkpt lat="33.8094044" lon="-118.3944319">
  <ele>-45.026</ele>
  <time>2026-09-01T01:13:47Z</time>
  <course>181.24</course>
  <speed>0.9602083107326242</speed>
  <fix>3d</fix>
</trkpt>
<trkpt lat="33.8094062" lon="-118.3944317">
  <ele>-43.94</ele>
  <time>2026-09-01T01:13:47Z</time>
  <course>180.26</course>
  <speed>0.97</speed>
  <fix>3d</fix>
</trkpt>
<trkpt lat="33.8094035" lon="-118.3944319">
  <ele>-45.015</ele>
  <time>2026-09-01T01:13:47Z</time>
  <course>181.23</course>
  <speed>0.9600520819205591</speed>
  <fix>3d</fix>
</trkpt>
<trkpt lat="33.8094044" lon="-118.3944318">
  <ele>-43.95</ele>
  <time>2026-09-01T01:13:47Z</time>
  <course>180.26</course>
  <speed>0.98</speed>
  <fix>3d</fix>
</trkpt>
<trkpt lat="33.8094026" lon="-118.3944319">
  <ele>-45.004</ele>
  <time>2026-09-01T01:13:47Z</time>
  <course>181.21</course>
  <speed>0.9600520819205591</speed>
  <fix>3d</fix>
</trkpt>
<trkpt lat="33.8094044" lon="-118.3944318">
  <ele>-43.95</ele>
  <time>2026-09-01T01:13:47Z</time>
  <course>180.26</course>
  <speed>0.98</speed>
  <fix>3d</fix>
</trkpt>
<trkpt lat="33.8094018" lon="-118.3944319">
  <ele>-44.995</ele>
  <time>2026-09-01T01:13:47Z</time>
  <course>181.18</course>
  <speed>0.9600520819205591</speed>
  <fix>3d</fix>
</trkpt>
<trkpt lat="33.8094026" lon="-118.3944318">
  <ele>-43.93</ele>
  <time>2026-09-01T01:13:47Z</time>
  <course>180.23</course>
  <speed>0.98</speed>
  <fix>3d</fix>
</trkpt>
<trkpt lat="33.8094009" lon="-118.3944319">
  <ele>-44.987</ele>
  <time>2026-09-01T01:13:47Z</time>
  <course>181.14</course>
  <speed>0.9600520819205591</speed>
  <fix>3d</fix>
</trkpt>
<trkpt lat="33.8094026" lon="-118.3944318">
  <ele>-43.93</ele>
  <time>2026-09-01T01:13:47Z</time>
  <course>180.23</course>
  <speed>0.98</speed>
  <fix>3d</fix>
</trkpt>
<trkpt lat="33.8094" lon="-118.3944319">
  <ele>-44.98</ele>
  <time>2026-09-01T01:13:48Z</time>
  <course>181.09</course>
  <speed>0.970051545022222</speed>
  <fix>3d</fix>
</trkpt>
<trkpt lat="33.8094009" lon="-118.3944318">
  <ele>-43.91</ele>
  <time>2026-09-01T01:13:48Z</time>
  <course>180.14</course>
  <speed>0.98</speed>
  <fix>3d</fix>
</trkpt>
<trkpt lat="33.8093991" lon="-118.3944319">
  <ele>-44.974</ele>
  <time>2026-09-01T01:13:48Z</time>
  <course>181.04</course>
  <speed>0.970051545022222</speed>
  <fix>3d</fix>
</trkpt>
<trkpt lat="33.8094009" lon="-118.3944318">
  <ele>-43.91</ele>
  <time>2026-09-01T01:13:48Z</time>
  <course>180.14</course>
  <speed>0.98</speed>
  <fix>3d</fix>
</trkpt>
<trkpt lat="33.8093982" lon="-118.3944319">
  <ele>-44.968</ele>
  <time>2026-09-01T01:13:48Z</time>
  <course>180.99</course>
  <speed>0.970051545022222</speed>
  <fix>3d</fix>
</trkpt>
<trkpt lat="33.8093991" lon="-118.3944318">
  <ele>-43.9</ele>
  <time>2026-09-01T01:13:48Z</time>
  <course>180.07</course>
  <speed>0.99</speed>
  <fix>3d</fix>
</trkpt>
<trkpt lat="33.8093973" lon="-118.3944319">
  <ele>-44.963</ele>
  <time>2026-09-01T01:13:48Z</time>
  <course>180.94</course>
  <speed>0.970051545022222</speed>
  <fix>3d</fix>
</trkpt>
<trkpt lat="33.8093991" lon="-118.3944318">
  <ele>-43.9</ele>
  <time>2026-09-01T01:13:48Z</time>
  <course>180.07</course>
  <speed>0.99</speed>
  <fix>3d</fix>
</trkpt>
<trkpt lat="33.8093964" lon="-118.3944319">
  <ele>-44.959</ele>
  <time>2026-09-01T01:13:48Z</time>
  <course>180.91</course>
  <speed>0.970051545022222</speed>
  <fix>3d</fix>
</trkpt>
<trkpt lat="33.8093973" lon="-118.3944318">
  <ele>-43.88</ele>
  <time>2026-09-01T01:13:48Z</time>
  <course>180.04</course>
  <speed>0.99</speed>
  <fix>3d</fix>
</trkpt>
<trkpt lat="33.8093955" lon="-118.3944319">
  <ele>-44.959</ele>
  <time>2026-09-01T01:13:48Z</time>
  <course>180.87</course>
  <speed>0.970051545022222</speed>
  <fix>3d</fix>
</trkpt>
<trkpt lat="33.8093973" lon="-118.3944318">
  <ele>-43.88</ele>
  <time>2026-09-01T01:13:48Z</time>
  <course>180.04</course>
  <speed>0.99</speed>
  <fix>3d</fix>
</trkpt>
<trkpt lat="33.8093946" lon="-118.3944319">
  <ele>-44.967</ele>
  <time>2026-09-01T01:13:48Z</time>
  <course>180.85</course>
  <speed>0.970051545022222</speed>
  <fix>3d</fix>
</trkpt>
<trkpt lat="33.8093956" lon="-118.3944318">
  <ele>-43.88</ele>
  <time>2026-09-01T01:13:48Z</time>
  <course>180.0</course>
  <speed>0.99</speed>
  <fix>3d</fix>
</trkpt>
<trkpt lat="33.8093937" lon="-118.3944319">
  <ele>-44.977</ele>
  <time>2026-09-01T01:13:48Z</time>
  <course>180.82</course>
  <speed>0.970051545022222</speed>
  <fix>3d</fix>
</trkpt>
<trkpt lat="33.8093956" lon="-118.3944318">
  <ele>-43.88</ele>
  <time>2026-09-01T01:13:48Z</time>
  <course>180.0</course>
  <speed>0.99</speed>
  <fix>3d</fix>
</trkpt>
<trkpt lat="33.8093928" lon="-118.3944319">
  <ele>-44.985</ele>
  <time>2026-09-01T01:13:48Z</time>
  <course>180.81</course>
  <speed>0.970051545022222</speed>
  <fix>3d</fix>
</trkpt>
<trkpt lat="33.8093937" lon="-118.3944318">
  <ele>-43.89</ele>
  <time>2026-09-01T01:13:48Z</time>
  <course>179.98</course>
  <speed>0.99</speed>
  <fix>3d</fix>
</trkpt>
<trkpt lat="33.8093919" lon="-118.3944319">
  <ele>-44.99</ele>
  <time>2026-09-01T01:13:48Z</time>
  <course>180.79</course>
  <speed>0.970051545022222</speed>
  <fix>3d</fix>
</trkpt>
<trkpt lat="33.8093937" lon="-118.3944318">
  <ele>-43.89</ele>
  <time>2026-09-01T01:13:48Z</time>
  <course>179.98</course>
  <speed>0.99</speed>
  <fix>3d</fix>
</trkpt>
<trkpt lat="33.809391" lon="-118.3944319">
  <ele>-44.993</ele>
  <time>2026-09-01T01:13:48Z</time>
  <course>180.77</course>
  <speed>0.970051545022222</speed>
  <fix>3d</fix>
</trkpt>
<trkpt lat="33.809392" lon="-118.3944318">
  <ele>-43.9</ele>
  <time>2026-09-01T01:13:48Z</time>
  <course>179.97</course>
  <speed>0.99</speed>
  <fix>3d</fix>
</trkpt>
<trkpt lat="33.8093901" lon="-118.3944319">
  <ele>-44.997</ele>
  <time>2026-09-01T01:13:48Z</time>
  <course>180.76</course>
  <speed>0.970051545022222</speed>
  <fix>3d</fix>
</trkpt>
<trkpt lat="33.809392" lon="-118.3944318">
  <ele>-43.9</ele>
  <time>2026-09-01T01:13:48Z</time>
  <course>179.97</course>
  <speed>0.99</speed>
  <fix>3d</fix>
</trkpt>
<trkpt lat="33.8093892" lon="-118.3944319">
  <ele>-45.0</ele>
  <time>2026-09-01T01:13:48Z</time>
  <course>180.75</course>
  <speed>0.970051545022222</speed>
  <fix>3d</fix>
</trkpt>
<trkpt lat="33.8093901" lon="-118.3944318">
  <ele>-43.91</ele>
  <time>2026-09-01T01:13:48Z</time>
  <course>179.95</course>
  <speed>0.99</speed>
  <fix>3d</fix>
</trkpt>
<trkpt lat="33.8093883" lon="-118.3944319">
  <ele>-45.002</ele>
  <time>2026-09-01T01:13:48Z</time>
  <course>180.74</course>
  <speed>0.970051545022222</speed>
  <fix>3d</fix>
</trkpt>
<trkpt lat="33.8093901" lon="-118.3944318">
  <ele>-43.91</ele>
  <time>2026-09-01T01:13:48Z</time>
  <course>179.95</course>
  <speed>0.99</speed>
  <fix>3d</fix>
</trkpt>
<trkpt lat="33.8093874" lon="-118.3944319">
  <ele>-45.002</ele>
  <time>2026-09-01T01:13:48Z</time>
  <course>180.73</course>
  <speed>0.970051545022222</speed>
  <fix>3d</fix>
</trkpt>
<trkpt lat="33.8093884" lon="-118.3944318">
  <ele>-43.92</ele>
  <time>2026-09-01T01:13:48Z</time>
  <course>179.93</course>
  <speed>0.99</speed>
  <fix>3d</fix>
</trkpt>
<trkpt lat="33.8093865" lon="-118.3944319">
  <ele>-45.003</ele>
  <time>2026-09-01T01:13:48Z</time>
  <course>180.72</course>
  <speed>0.970051545022222</speed>
  <fix>3d</fix>
</trkpt>
<trkpt lat="33.8093884" lon="-118.3944318">
  <ele>-43.92</ele>
  <time>2026-09-01T01:13:48Z</time>
  <course>179.93</course>
  <speed>0.99</speed>
  <fix>3d</fix>
</trkpt>
<trkpt lat="33.8093856" lon="-118.3944319">
  <ele>-45.008</ele>
  <time>2026-09-01T01:13:48Z</time>
  <course>180.72</course>
  <speed>0.970051545022222</speed>
  <fix>3d</fix>
</trkpt>
<trkpt lat="33.8093865" lon="-118.3944318">
  <ele>-43.93</ele>
  <time>2026-09-01T01:13:48Z</time>
  <course>179.92</course>
  <speed>0.99</speed>
  <fix>3d</fix>
</trkpt>
<trkpt lat="33.8093847" lon="-118.3944319">
  <ele>-45.016</ele>
  <time>2026-09-01T01:13:48Z</time>
  <course>180.71</course>
  <speed>0.970051545022222</speed>
  <fix>3d</fix>
</trkpt>
<trkpt lat="33.8093865" lon="-118.3944318">
  <ele>-43.93</ele>
  <time>2026-09-01T01:13:48Z</time>
  <course>179.92</course>
  <speed>0.99</speed>
  <fix>3d</fix>
</trkpt>
<trkpt lat="33.8093838" lon="-118.3944319">
  <ele>-45.025</ele>
  <time>2026-09-01T01:13:48Z</time>
  <course>180.71</course>
  <speed>0.970051545022222</speed>
  <fix>3d</fix>
</trkpt>
<trkpt lat="33.8093848" lon="-118.3944318">
  <ele>-43.94</ele>
  <time>2026-09-01T01:13:48Z</time>
  <course>179.9</course>
  <speed>0.99</speed>
  <fix>3d</fix>
</trkpt>
<trkpt lat="33.8093829" lon="-118.3944319">
  <ele>-45.036</ele>
  <time>2026-09-01T01:13:48Z</time>
  <course>180.71</course>
  <speed>0.970051545022222</speed>
  <fix>3d</fix>
</trkpt>
<trkpt lat="33.8093848" lon="-118.3944318">
  <ele>-43.94</ele>
  <time>2026-09-01T01:13:48Z</time>
  <course>179.9</course>
  <speed>0.99</speed>
  <fix>3d</fix>
</trkpt>
<trkpt lat="33.809382" lon="-118.3944319">
  <ele>-45.046</ele>
  <time>2026-09-01T01:13:48Z</time>
  <course>180.71</course>
  <speed>0.970051545022222</speed>
  <fix>3d</fix>
</trkpt>
<trkpt lat="33.8093829" lon="-118.3944318">
  <ele>-43.96</ele>
  <time>2026-09-01T01:13:48Z</time>
  <course>179.88</course>
  <speed>0.99</speed>
  <fix>3d</fix>
</trkpt>
<trkpt lat="33.8093811" lon="-118.3944319">
  <ele>-45.054</ele>
  <time>2026-09-01T01:13:48Z</time>
  <course>180.71</course>
  <speed>0.970051545022222</speed>
  <fix>3d</fix>
</trkpt>
<trkpt lat="33.8093829" lon="-118.3944318">
  <ele>-43.96</ele>
  <time>2026-09-01T01:13:48Z</time>
  <course>179.88</course>
  <speed>0.99</speed>
  <fix>3d</fix>
</trkpt>
<trkpt lat="33.8093802" lon="-118.3944319">
  <ele>-45.061</ele>
  <time>2026-09-01T01:13:48Z</time>
  <course>180.72</course>
  <speed>0.970051545022222</speed>
  <fix>3d</fix>
</trkpt>
<trkpt lat="33.8093812" lon="-118.3944318">
  <ele>-43.97</ele>
  <time>2026-09-01T01:13:48Z</time>
  <course>179.86</course>
  <speed>0.99</speed>
  <fix>3d</fix>
</trkpt>
<trkpt lat="33.8093793" lon="-118.3944319">
  <ele>-45.067</ele>
  <time>2026-09-01T01:13:48Z</time>
  <course>180.72</course>
  <speed>0.970051545022222</speed>
  <fix>3d</fix>
</trkpt>
<trkpt lat="33.8093812" lon="-118.3944318">
  <ele>-43.97</ele>
  <time>2026-09-01T01:13:48Z</time>
  <course>179.86</course>
  <speed>0.99</speed>
  <fix>3d</fix>
</trkpt>
<trkpt lat="33.8093784" lon="-118.3944319">
  <ele>-45.074</ele>
  <time>2026-09-01T01:13:48Z</time>
  <course>180.73</course>
  <speed>0.970051545022222</speed>
  <fix>3d</fix>
</trkpt>
<trkpt lat="33.8093794" lon="-118.3944318">
  <ele>-43.98</ele>
  <time>2026-09-01T01:13:48Z</time>
  <course>179.84</course>
  <speed>0.99</speed>
  <fix>3d</fix>
</trkpt>
<trkpt lat="33.8093775" lon="-118.3944319">
  <ele>-45.081</ele>
  <time>2026-09-01T01:13:48Z</time>
  <course>180.73</course>
  <speed>0.970051545022222</speed>
  <fix>3d</fix>
</trkpt>
<trkpt lat="33.8093794" lon="-118.3944318">
  <ele>-43.98</ele>
  <time>2026-09-01T01:13:48Z</time>
  <course>179.84</course>
  <speed>0.99</speed>
  <fix>3d</fix>
</trkpt>
<trkpt lat="33.8093766" lon="-118.3944319">
  <ele>-45.084</ele>
  <time>2026-09-01T01:13:48Z</time>
  <course>180.74</course>
  <speed>0.970051545022222</speed>
  <fix>3d</fix>
</trkpt>
<trkpt lat="33.8093777" lon="-118.3944318">
  <ele>-43.99</ele>
  <time>2026-09-01T01:13:48Z</time>
  <course>179.84</course>
  <speed>0.99</speed>
  <fix>3d</fix>
</trkpt>
<trkpt lat="33.8093758" lon="-118.3944319">
  <ele>-45.083</ele>
  <time>2026-09-01T01:13:48Z</time>
  <course>180.74</course>
  <speed>0.9500526301210896</speed>
  <fix>3d</fix>
</trkpt>
<trkpt lat="33.8093777" lon="-118.3944318">
  <ele>-43.99</ele>
  <time>2026-09-01T01:13:48Z</time>
  <course>179.84</course>
  <speed>0.99</speed>
  <fix>3d</fix>
</trkpt>
<trkpt lat="33.8093749" lon="-118.3944319">
  <ele>-45.077</ele>
  <time>2026-09-01T01:13:48Z</time>
  <course>180.76</course>
  <speed>0.9000555538409837</speed>
  <fix>3d</fix>
</trkpt>
<trkpt lat="33.8093758" lon="-118.3944318">
  <ele>-44.0</ele>
  <time>2026-09-01T01:13:48Z</time>
  <course>179.84</course>
  <speed>0.95</speed>
  <fix>3d</fix>
</trkpt>
<trkpt lat="33.8093741" lon="-118.3944319">
  <ele>-45.064</ele>
  <time>2026-09-01T01:13:48Z</time>
  <course>180.8</course>
  <speed>0.9200543462209175</speed>
  <fix>3d</fix>
</trkpt>
<trkpt lat="33.8093758" lon="-118.3944318">
  <ele>-44.0</ele>
  <time>2026-09-01T01:13:48Z</time>
  <course>179.84</course>
  <speed>0.95</speed>
  <fix>3d</fix>
</trkpt>
<trkpt lat="33.8093733" lon="-118.3944319">
  <ele>-45.049</ele>
  <time>2026-09-01T01:13:48Z</time>
  <course>180.82</course>
  <speed>0.9300537618869137</speed>
  <fix>3d</fix>
</trkpt>
<trkpt lat="33.8093741" lon="-118.3944318">
  <ele>-43.98</ele>
  <time>2026-09-01T01:13:48Z</time>
  <course>179.83</course>
  <speed>0.92</speed>
  <fix>3d</fix>
</trkpt>
<trkpt lat="33.8093724" lon="-118.3944319">
  <ele>-45.034</ele>
  <time>2026-09-01T01:13:48Z</time>
  <course>180.82</course>
  <speed>0.9300537618869137</speed>
  <fix>3d</fix>
</trkpt>
<trkpt lat="33.8093741" lon="-118.3944318">
  <ele>-43.98</ele>
  <time>2026-09-01T01:13:48Z</time>
  <course>179.83</course>
  <speed>0.92</speed>
  <fix>3d</fix>
</trkpt>
<trkpt lat="33.8093715" lon="-118.3944319">
  <ele>-45.02</ele>
  <time>2026-09-01T01:13:48Z</time>
  <course>180.82</course>
  <speed>0.9400531899844816</speed>
  <fix>3d</fix>
</trkpt>
<trkpt lat="33.8093724" lon="-118.3944318">
  <ele>-43.96</ele>
  <time>2026-09-01T01:13:48Z</time>
  <course>179.79</course>
  <speed>0.95</speed>
  <fix>3d</fix>
</trkpt>
<trkpt lat="33.8093707" lon="-118.3944319">
  <ele>-45.008</ele>
  <time>2026-09-01T01:13:48Z</time>
  <course>180.81</course>
  <speed>0.9500526301210896</speed>
  <fix>3d</fix>
</trkpt>
<trkpt lat="33.8093724" lon="-118.3944318">
  <ele>-43.96</ele>
  <time>2026-09-01T01:13:48Z</time>
  <course>179.79</course>
  <speed>0.95</speed>
  <fix>3d</fix>
</trkpt>
<trkpt lat="33.8093698" lon="-118.3944319">
  <ele>-44.996</ele>
  <time>2026-09-01T01:13:48Z</time>
  <course>180.81</course>
  <speed>0.9500526301210896</speed>
  <fix>3d</fix>
</trkpt>
<trkpt lat="33.8093707" lon="-118.3944318">
  <ele>-43.94</ele>
  <time>2026-09-01T01:13:48Z</time>
  <course>179.77</course>
  <speed>0.96</speed>
  <fix>3d</fix>
</trkpt>
<trkpt lat="33.8093689" lon="-118.3944319">
  <ele>-44.989</ele>
  <time>2026-09-01T01:13:48Z</time>
  <course>180.8</course>
  <speed>0.9500526301210896</speed>
  <fix>3d</fix>
</trkpt>
<trkpt lat="33.8093707" lon="-118.3944318">
  <ele>-43.94</ele>
  <time>2026-09-01T01:13:48Z</time>
  <course>179.77</course>
  <speed>0.96</speed>
  <fix>3d</fix>
</trkpt>
<trkpt lat="33.809368" lon="-118.3944319">
  <ele>-44.986</ele>
  <time>2026-09-01T01:13:48Z</time>
  <course>180.81</course>
  <speed>0.9600520819205591</speed>
  <fix>3d</fix>
</trkpt>
<trkpt lat="33.809369" lon="-118.3944318">
  <ele>-43.92</ele>
  <time>2026-09-01T01:13:48Z</time>
  <course>179.76</course>
  <speed>0.97</speed>
  <fix>3d</fix>
</trkpt>
<trkpt lat="33.8093671" lon="-118.3944319">
  <ele>-44.984</ele>
  <time>2026-09-01T01:13:48Z</time>
  <course>180.81</course>
  <speed>0.9600520819205591</speed>
  <fix>3d</fix>
</trkpt>
<trkpt lat="33.809369" lon="-118.3944318">
  <ele>-43.92</ele>
  <time>2026-09-01T01:13:48Z</time>
  <course>179.76</course>
  <speed>0.97</speed>
  <fix>3d</fix>
</trkpt>
<trkpt lat="33.8093663" lon="-118.3944319">
  <ele>-44.98</ele>
  <time>2026-09-01T01:13:48Z</time>
  <course>180.81</course>
  <speed>0.9600520819205591</speed>
  <fix>3d</fix>
</trkpt>
<trkpt lat="33.8093671" lon="-118.3944318">
  <ele>-43.91</ele>
  <time>2026-09-01T01:13:48Z</time>
  <course>179.75</course>
  <speed>0.98</speed>
  <fix>3d</fix>
</trkpt>
<trkpt lat="33.8093654" lon="-118.3944319">
  <ele>-44.976</ele>
  <time>2026-09-01T01:13:48Z</time>
  <course>180.81</course>
  <speed>0.9600520819205591</speed>
  <fix>3d</fix>
</trkpt>
<trkpt lat="33.8093671" lon="-118.3944318">
  <ele>-43.91</ele>
  <time>2026-09-01T01:13:48Z</time>
  <course>179.75</course>
  <speed>0.98</speed>
  <fix>3d</fix>
</trkpt>
<trkpt lat="33.8093645" lon="-118.3944319">
  <ele>-44.973</ele>
  <time>2026-09-01T01:13:48Z</time>
  <course>180.81</course>
  <speed>0.9600520819205591</speed>
  <fix>3d</fix>
</trkpt>
<trkpt lat="33.8093654" lon="-118.3944318">
  <ele>-43.9</ele>
  <time>2026-09-01T01:13:48Z</time>
  <course>179.74</course>
  <speed>0.98</speed>
  <fix>3d</fix>
</trkpt>
<trkpt lat="33.8093636" lon="-118.3944319">
  <ele>-44.975</ele>
  <time>2026-09-01T01:13:48Z</time>
  <course>180.82</course>
  <speed>0.9600520819205591</speed>
  <fix>3d</fix>
</trkpt>
<trkpt lat="33.8093654" lon="-118.3944318">
  <ele>-43.9</ele>
  <time>2026-09-01T01:13:48Z</time>
  <course>179.74</course>
  <speed>0.98</speed>
  <fix>3d</fix>
</trkpt>
<trkpt lat="33.8093627" lon="-118.3944319">
  <ele>-44.983</ele>
  <time>2026-09-01T01:13:48Z</time>
  <course>180.83</course>
  <speed>0.970051545022222</speed>
  <fix>3d</fix>
</trkpt>
<trkpt lat="33.8093636" lon="-118.3944318">
  <ele>-43.9</ele>
  <time>2026-09-01T01:13:48Z</time>
  <course>179.74</course>
  <speed>0.99</speed>
  <fix>3d</fix>
</trkpt>
<trkpt lat="33.8093618" lon="-118.3944319">
  <ele>-44.992</ele>
  <time>2026-09-01T01:13:48Z</time>
  <course>180.83</course>
  <speed>0.970051545022222</speed>
  <fix>3d</fix>
</trkpt>
<trkpt lat="33.8093636" lon="-118.3944318">
  <ele>-43.9</ele>
  <time>2026-09-01T01:13:48Z</time>
  <course>179.74</course>
  <speed>0.99</speed>
  <fix>3d</fix>
</trkpt>
<trkpt lat="33.8093609" lon="-118.3944319">
  <ele>-45.001</ele>
  <time>2026-09-01T01:13:48Z</time>
  <course>180.83</course>
  <speed>0.970051545022222</speed>
  <fix>3d</fix>
</trkpt>
<trkpt lat="33.8093619" lon="-118.3944318">
  <ele>-43.91</ele>
  <time>2026-09-01T01:13:48Z</time>
  <course>179.75</course>
  <speed>0.99</speed>
  <fix>3d</fix>
</trkpt>
<trkpt lat="33.80936" lon="-118.3944319">
  <ele>-45.013</ele>
  <time>2026-09-01T01:13:48Z</time>
  <course>180.84</course>
  <speed>0.970051545022222</speed>
  <fix>3d</fix>
</trkpt>
<trkpt lat="33.8093619" lon="-118.3944318">
  <ele>-43.91</ele>
  <time>2026-09-01T01:13:48Z</time>
  <course>179.75</course>
  <speed>0.99</speed>
  <fix>3d</fix>
</trkpt>
<trkpt lat="33.8093591" lon="-118.3944319">
  <ele>-45.026</ele>
  <time>2026-09-01T01:13:48Z</time>
  <course>180.84</course>
  <speed>0.970051545022222</speed>
  <fix>3d</fix>
</trkpt>
<trkpt lat="33.80936" lon="-118.3944318">
  <ele>-43.93</ele>
  <time>2026-09-01T01:13:48Z</time>
  <course>179.74</course>
  <speed>0.99</speed>
  <fix>3d</fix>
</trkpt>
<trkpt lat="33.8093582" lon="-118.3944319">
  <ele>-45.037</ele>
  <time>2026-09-01T01:13:48Z</time>
  <course>180.84</course>
  <speed>0.970051545022222</speed>
  <fix>3d</fix>
</trkpt>
<trkpt lat="33.80936" lon="-118.3944318">
  <ele>-43.93</ele>
  <time>2026-09-01T01:13:48Z</time>
  <course>179.74</course>
  <speed>0.99</speed>
  <fix>3d</fix>
</trkpt>
<trkpt lat="33.8093573" lon="-118.3944319">
  <ele>-45.045</ele>
  <time>2026-09-01T01:13:48Z</time>
  <course>180.85</course>
  <speed>0.970051545022222</speed>
  <fix>3d</fix>
</trkpt>
<trkpt lat="33.8093583" lon="-118.3944318">
  <ele>-43.94</ele>
  <time>2026-09-01T01:13:48Z</time>
  <course>179.72</course>
  <speed>0.99</speed>
  <fix>3d</fix>
</trkpt>
<trkpt lat="33.8093564" lon="-118.3944319">
  <ele>-45.046</ele>
  <time>2026-09-01T01:13:48Z</time>
  <course>180.85</course>
  <speed>0.970051545022222</speed>
  <fix>3d</fix>
</trkpt>
<trkpt lat="33.8093583" lon="-118.3944318">
  <ele>-43.94</ele>
  <time>2026-09-01T01:13:48Z</time>
  <course>179.72</course>
  <speed>0.99</speed>
  <fix>3d</fix>
</trkpt>
<trkpt lat="33.8093555" lon="-118.3944319">
  <ele>-45.045</ele>
  <time>2026-09-01T01:13:48Z</time>
  <course>180.86</course>
  <speed>0.970051545022222</speed>
  <fix>3d</fix>
</trkpt>
<trkpt lat="33.8093564" lon="-118.3944317">
  <ele>-43.96</ele>
  <time>2026-09-01T01:13:48Z</time>
  <course>179.72</course>
  <speed>0.99</speed>
  <fix>3d</fix>
</trkpt>
<trkpt lat="33.8093546" lon="-118.3944319">
  <ele>-45.042</ele>
  <time>2026-09-01T01:13:48Z</time>
  <course>180.87</course>
  <speed>0.970051545022222</speed>
  <fix>3d</fix>
</trkpt>
<trkpt lat="33.8093564" lon="-118.3944317">
  <ele>-43.96</ele>
  <time>2026-09-01T01:13:48Z</time>
  <course>179.72</course>
  <speed>0.99</speed>
  <fix>3d</fix>
</trkpt>
<trkpt lat="33.8093537" lon="-118.3944319">
  <ele>-45.036</ele>
  <time>2026-09-01T01:13:48Z</time>
  <course>180.9</course>
  <speed>0.970051545022222</speed>
  <fix>3d</fix>
</trkpt>
<trkpt lat="33.8093547" lon="-118.3944317">
  <ele>-43.96</ele>
  <time>2026-09-01T01:13:48Z</time>
  <course>179.74</course>
  <speed>0.99</speed>
  <fix>3d</fix>
</trkpt>
<trkpt lat="33.8093528" lon="-118.3944319">
  <ele>-45.027</ele>
  <time>2026-09-01T01:13:48Z</time>
  <course>180.93</course>
  <speed>0.970051545022222</speed>
  <fix>3d</fix>
</trkpt>
<trkpt lat="33.8093547" lon="-118.3944317">
  <ele>-43.96</ele>
  <time>2026-09-01T01:13:48Z</time>
  <course>179.74</course>
  <speed>0.99</speed>
  <fix>3d</fix>
</trkpt>
<trkpt lat="33.8093519" lon="-118.3944319">
  <ele>-45.015</ele>
  <time>2026-09-01T01:13:48Z</time>
  <course>180.98</course>
  <speed>0.970051545022222</speed>
  <fix>3d</fix>
</trkpt>
<trkpt lat="33.8093528" lon="-118.3944317">
  <ele>-43.95</ele>
  <time>2026-09-01T01:13:48Z</time>
  <course>179.81</course>
  <speed>0.99</speed>
  <fix>3d</fix>
</trkpt>
<trkpt lat="33.809351" lon="-118.3944319">
  <ele>-45.004</ele>
  <time>2026-09-01T01:13:48Z</time>
  <course>181.03</course>
  <speed>0.970051545022222</speed>
  <fix>3d</fix>
</trkpt>
<trkpt lat="33.8093528" lon="-118.3944317">
  <ele>-43.95</ele>
  <time>2026-09-01T01:13:48Z</time>
  <course>179.81</course>
  <speed>0.99</speed>
  <fix>3d</fix>
</trkpt>
<trkpt lat="33.8093501" lon="-118.3944319">
  <ele>-44.991</ele>
  <time>2026-09-01T01:13:48Z</time>
  <course>181.08</course>
  <speed>0.970051545022222</speed>
  <fix>3d</fix>
</trkpt>
<trkpt lat="33.8093511" lon="-118.3944317">
  <ele>-43.94</ele>
  <time>2026-09-01T01:13:48Z</time>
  <course>179.89</course>
  <speed>0.99</speed>
  <fix>3d</fix>
</trkpt>
<trkpt lat="33.8093492" lon="-118.3944319">
  <ele>-44.979</ele>
  <time>2026-09-01T01:13:48Z</time>
  <course>181.12</course>
  <speed>0.970051545022222</speed>
  <fix>3d</fix>
</trkpt>
<trkpt lat="33.8093511" lon="-118.3944317">
  <ele>-43.94</ele>
  <time>2026-09-01T01:13:48Z</time>
  <course>179.89</course>
  <speed>0.99</speed>
  <fix>3d</fix>
</trkpt>
<trkpt lat="33.8093483" lon="-118.3944319">
  <ele>-44.968</ele>
  <time>2026-09-01T01:13:48Z</time>
  <course>181.16</course>
  <speed>0.970051545022222</speed>
  <fix>3d</fix>
</trkpt>
<trkpt lat="33.8093493" lon="-118.3944317">
  <ele>-43.91</ele>
  <time>2026-09-01T01:13:48Z</time>
  <course>179.94</course>
  <speed>0.99</speed>
  <fix>3d</fix>
</trkpt>
<trkpt lat="33.8093474" lon="-118.3944319">
  <ele>-44.959</ele>
  <time>2026-09-01T01:13:48Z</time>
  <course>181.19</course>
  <speed>0.9702061636580135</speed>
  <fix>3d</fix>
</trkpt>
<trkpt lat="33.8093493" lon="-118.3944317">
  <ele>-43.91</ele>
  <time>2026-09-01T01:13:48Z</time>
  <course>179.94</course>
  <speed>0.99</speed>
  <fix>3d</fix>
</trkpt>
<trkpt lat="33.8093465" lon="-118.3944319">
  <ele>-44.96</ele>
  <time>2026-09-01T01:13:48Z</time>
  <course>181.22</course>
  <speed>0.970051545022222</speed>
  <fix>3d</fix>
</trkpt>
<trkpt lat="33.8093475" lon="-118.3944317">
  <ele>-43.89</ele>
  <time>2026-09-01T01:13:48Z</time>
  <course>179.97</course>
  <speed>0.99</speed>
  <fix>3d</fix>
</trkpt>
<trkpt lat="33.8093456" lon="-118.3944319">
  <ele>-44.965</ele>
  <time>2026-09-01T01:13:48Z</time>
  <course>181.24</course>
  <speed>0.9702061636580135</speed>
  <fix>3d</fix>
</trkpt>
<trkpt lat="33.8093475" lon="-118.3944317">
  <ele>-43.89</ele>
  <time>2026-09-01T01:13:48Z</time>
  <course>179.97</course>
  <speed>0.99</speed>
  <fix>3d</fix>
</trkpt>
<trkpt lat="33.8093447" lon="-118.3944319">
  <ele>-44.972</ele>
  <time>2026-09-01T01:13:48Z</time>
  <course>181.26</course>
  <speed>0.970051545022222</speed>
  <fix>3d</fix>
</trkpt>
<trkpt lat="33.8093458" lon="-118.3944317">
  <ele>-43.89</ele>
  <time>2026-09-01T01:13:48Z</time>
  <course>180.01</course>
  <speed>0.99</speed>
  <fix>3d</fix>
</trkpt>
<trkpt lat="33.8093439" lon="-118.3944319">
  <ele>-44.98</ele>
  <time>2026-09-01T01:13:48Z</time>
  <course>181.27</course>
  <speed>0.9702061636580135</speed>
  <fix>3d</fix>
</trkpt>
<trkpt lat="33.8093458" lon="-118.3944317">
  <ele>-43.89</ele>
  <time>2026-09-01T01:13:48Z</time>
  <course>180.01</course>
  <speed>0.99</speed>
  <fix>3d</fix>
</trkpt>
<trkpt lat="33.809343" lon="-118.3944319">
  <ele>-44.993</ele>
  <time>2026-09-01T01:13:48Z</time>
  <course>181.28</course>
  <speed>0.970051545022222</speed>
  <fix>3d</fix>
</trkpt>
<trkpt lat="33.8093439" lon="-118.3944317">
  <ele>-43.9</ele>
  <time>2026-09-01T01:13:48Z</time>
  <course>180.02</course>
  <speed>0.99</speed>
  <fix>3d</fix>
</trkpt>
<trkpt lat="33.8093421" lon="-118.3944319">
  <ele>-45.008</ele>
  <time>2026-09-01T01:13:48Z</time>
  <course>181.29</course>
  <speed>0.9702061636580135</speed>
  <fix>3d</fix>
</trkpt>
<trkpt lat="33.8093439" lon="-118.3944317">
  <ele>-43.9</ele>
  <time>2026-09-01T01:13:48Z</time>
  <course>180.02</course>
  <speed>0.99</speed>
  <fix>3d</fix>
</trkpt>
<trkpt lat="33.8093412" lon="-118.3944319">
  <ele>-45.022</ele>
  <time>2026-09-01T01:13:48Z</time>
  <course>181.31</course>
  <speed>0.970051545022222</speed>
  <fix>3d</fix>
</trkpt>
<trkpt lat="33.8093422" lon="-118.3944317">
  <ele>-43.92</ele>
  <time>2026-09-01T01:13:48Z</time>
  <course>180.02</course>
  <speed>0.99</speed>
  <fix>3d</fix>
</trkpt>
<trkpt lat="33.8093403" lon="-118.3944319">
  <ele>-45.038</ele>
  <time>2026-09-01T01:13:48Z</time>
  <course>181.32</course>
  <speed>0.9702061636580135</speed>
  <fix>3d</fix>
</trkpt>
<trkpt lat="33.8093422" lon="-118.3944317">
  <ele>-43.92</ele>
  <time>2026-09-01T01:13:48Z</time>
  <course>180.02</course>
  <speed>0.99</speed>
  <fix>3d</fix>
</trkpt>
<trkpt lat="33.8093394" lon="-118.3944319">
  <ele>-45.052</ele>
  <time>2026-09-01T01:13:48Z</time>
  <course>181.33</course>
  <speed>0.970051545022222</speed>
  <fix>3d</fix>
</trkpt>
<trkpt lat="33.8093403" lon="-118.3944317">
  <ele>-43.94</ele>
  <time>2026-09-01T01:13:48Z</time>
  <course>180.04</course>
  <speed>1.0</speed>
  <fix>3d</fix>
</trkpt>
<trkpt lat="33.8093385" lon="-118.3944319">
  <ele>-45.06</ele>
  <time>2026-09-01T01:13:48Z</time>
  <course>181.33</course>
  <speed>0.9702061636580135</speed>
  <fix>3d</fix>
</trkpt>
<trkpt lat="33.8093403" lon="-118.3944317">
  <ele>-43.94</ele>
  <time>2026-09-01T01:13:48Z</time>
  <course>180.04</course>
  <speed>1.0</speed>
  <fix>3d</fix>
</trkpt>
<trkpt lat="33.8093376" lon="-118.3944319">
  <ele>-45.064</ele>
  <time>2026-09-01T01:13:48Z</time>
  <course>181.34</course>
  <speed>0.970051545022222</speed>
  <fix>3d</fix>
</trkpt>
<trkpt lat="33.8093386" lon="-118.3944317">
  <ele>-43.96</ele>
  <time>2026-09-01T01:13:48Z</time>
  <course>180.06</course>
  <speed>1.0</speed>
  <fix>3d</fix>
</trkpt>
<trkpt lat="33.8093367" lon="-118.3944319">
  <ele>-45.064</ele>
  <time>2026-09-01T01:13:48Z</time>
  <course>181.34</course>
  <speed>0.9702061636580135</speed>
  <fix>3d</fix>
</trkpt>
<trkpt lat="33.8093386" lon="-118.3944317">
  <ele>-43.96</ele>
  <time>2026-09-01T01:13:48Z</time>
  <course>180.06</course>
  <speed>1.0</speed>
  <fix>3d</fix>
</trkpt>
<trkpt lat="33.8093358" lon="-118.3944319">
  <ele>-45.061</ele>
  <time>2026-09-01T01:13:48Z</time>
  <course>181.34</course>
  <speed>0.970051545022222</speed>
  <fix>3d</fix>
</trkpt>
<trkpt lat="33.8093367" lon="-118.3944317">
  <ele>-43.97</ele>
  <time>2026-09-01T01:13:48Z</time>
  <course>180.08</course>
  <speed>1.0</speed>
  <fix>3d</fix>
</trkpt>
<trkpt lat="33.8093349" lon="-118.3944319">
  <ele>-45.053</ele>
  <time>2026-09-01T01:13:48Z</time>
  <course>181.34</course>
  <speed>0.9702061636580135</speed>
  <fix>3d</fix>
</trkpt>
<trkpt lat="33.8093367" lon="-118.3944317">
  <ele>-43.97</ele>
  <time>2026-09-01T01:13:48Z</time>
  <course>180.08</course>
  <speed>1.0</speed>
  <fix>3d</fix>
</trkpt>
<trkpt lat="33.809334" lon="-118.3944319">
  <ele>-45.04</ele>
  <time>2026-09-01T01:13:48Z</time>
  <course>181.35</course>
  <speed>0.970051545022222</speed>
  <fix>3d</fix>
</trkpt>
<trkpt lat="33.809335" lon="-118.3944317">
  <ele>-43.96</ele>
  <time>2026-09-01T01:13:48Z</time>
  <course>180.09</course>
  <speed>1.0</speed>
  <fix>3d</fix>
</trkpt>
<trkpt lat="33.8093331" lon="-118.3944319">
  <ele>-45.026</ele>
  <time>2026-09-01T01:13:48Z</time>
  <course>181.34</course>
  <speed>0.9702061636580135</speed>
  <fix>3d</fix>
</trkpt>
<trkpt lat="33.809335" lon="-118.3944317">
  <ele>-43.96</ele>
  <time>2026-09-01T01:13:48Z</time>
  <course>180.09</course>
  <speed>1.0</speed>
  <fix>3d</fix>
</trkpt>
<trkpt lat="33.8093322" lon="-118.3944319">
  <ele>-45.016</ele>
  <time>2026-09-01T01:13:48Z</time>
  <course>181.35</course>
  <speed>0.970051545022222</speed>
  <fix>3d</fix>
</trkpt>
<trkpt lat="33.8093332" lon="-118.3944317">
  <ele>-43.94</ele>
  <time>2026-09-01T01:13:48Z</time>
  <course>180.09</course>
  <speed>1.0</speed>
  <fix>3d</fix>
</trkpt>
<trkpt lat="33.8093313" lon="-118.3944319">
  <ele>-45.01</ele>
  <time>2026-09-01T01:13:48Z</time>
  <course>181.34</course>
  <speed>0.9702061636580135</speed>
  <fix>3d</fix>
</trkpt>
<trkpt lat="33.8093332" lon="-118.3944317">
  <ele>-43.94</ele>
  <time>2026-09-01T01:13:48Z</time>
  <course>180.09</course>
  <speed>1.0</speed>
  <fix>3d</fix>
</trkpt>
<trkpt lat="33.8093304" lon="-118.3944319">
  <ele>-45.002</ele>
  <time>2026-09-01T01:13:48Z</time>
  <course>181.35</course>
  <speed>0.970051545022222</speed>
  <fix>3d</fix>
</trkpt>
<trkpt lat="33.8093314" lon="-118.3944317">
  <ele>-43.93</ele>
  <time>2026-09-01T01:13:48Z</time>
  <course>180.11</course>
  <speed>1.0</speed>
  <fix>3d</fix>
</trkpt>
<trkpt lat="33.8093295" lon="-118.3944319">
  <ele>-44.992</ele>
  <time>2026-09-01T01:13:48Z</time>
  <course>181.34</course>
  <speed>0.8802272433866155</speed>
  <fix>3d</fix>
</trkpt>
<trkpt lat="33.8093314" lon="-118.3944317">
  <ele>-43.93</ele>
  <time>2026-09-01T01:13:48Z</time>
  <course>180.11</course>
  <speed>1.0</speed>
  <fix>3d</fix>
</trkpt>
<trkpt lat="33.8093287" lon="-118.3944319">
  <ele>-44.982</ele>
  <time>2026-09-01T01:13:48Z</time>
  <course>181.4</course>
  <speed>0.9100549433962765</speed>
  <fix>3d</fix>
</trkpt>
<trkpt lat="33.8093296" lon="-118.3944317">
  <ele>-43.91</ele>
  <time>2026-09-01T01:13:48Z</time>
  <course>180.17</course>
  <speed>0.96</speed>
  <fix>3d</fix>
</trkpt>
<trkpt lat="33.8093278" lon="-118.3944319">
  <ele>-44.972</ele>
  <time>2026-09-01T01:13:48Z</time>
  <course>181.44</course>
  <speed>0.9202173656261873</speed>
  <fix>3d</fix>
</trkpt>
<trkpt lat="33.8093296" lon="-118.3944317">
  <ele>-43.91</ele>
  <time>2026-09-01T01:13:48Z</time>
  <course>180.17</course>
  <speed>0.96</speed>
  <fix>3d</fix>
</trkpt>
<trkpt lat="33.809327" lon="-118.3944319">
  <ele>-44.96</ele>
  <time>2026-09-01T01:13:48Z</time>
  <course>181.45</course>
  <speed>0.9300537618869137</speed>
  <fix>3d</fix>
</trkpt>
<trkpt lat="33.8093279" lon="-118.3944317">
  <ele>-43.9</ele>
  <time>2026-09-01T01:13:48Z</time>
  <course>180.2</course>
  <speed>0.93</speed>
  <fix>3d</fix>
</trkpt>
<trkpt lat="33.8093261" lon="-118.3944319">
  <ele>-44.948</ele>
  <time>2026-09-01T01:13:48Z</time>
  <course>181.43</course>
  <speed>0.9402127418834527</speed>
  <fix>3d</fix>
</trkpt>
<trkpt lat="33.8093279" lon="-118.3944317">
  <ele>-43.9</ele>
  <time>2026-09-01T01:13:48Z</time>
  <course>180.2</course>
  <speed>0.93</speed>
  <fix>3d</fix>
</trkpt>
<trkpt lat="33.8093253" lon="-118.3944319">
  <ele>-44.94</ele>
  <time>2026-09-01T01:13:48Z</time>
  <course>181.4</course>
  <speed>0.9400531899844816</speed>
  <fix>3d</fix>
</trkpt>
<trkpt lat="33.8093262" lon="-118.3944317">
  <ele>-43.87</ele>
  <time>2026-09-01T01:13:48Z</time>
  <course>180.17</course>
  <speed>0.95</speed>
  <fix>3d</fix>
</trkpt>
<trkpt lat="33.8093244" lon="-118.3944319">
  <ele>-44.937</ele>
  <time>2026-09-01T01:13:48Z</time>
  <course>181.38</course>
  <speed>0.9502105029939419</speed>
  <fix>3d</fix>
</trkpt>
<trkpt lat="33.8093262" lon="-118.3944317">
  <ele>-43.87</ele>
  <time>2026-09-01T01:13:48Z</time>
  <course>180.17</course>
  <speed>0.95</speed>
  <fix>3d</fix>
</trkpt>
<trkpt lat="33.8093235" lon="-118.3944319">
  <ele>-44.945</ele>
  <time>2026-09-01T01:13:48Z</time>
  <course>181.37</course>
  <speed>0.9500526301210896</speed>
  <fix>3d</fix>
</trkpt>
<trkpt lat="33.8093244" lon="-118.3944317">
  <ele>-43.86</ele>
  <time>2026-09-01T01:13:48Z</time>
  <course>180.17</course>
  <speed>0.97</speed>
  <fix>3d</fix>
</trkpt>
<trkpt lat="33.8093227" lon="-118.3944319">
  <ele>-44.958</ele>
  <time>2026-09-01T01:13:48Z</time>
  <course>181.35</course>
  <speed>0.9602083107326242</speed>
  <fix>3d</fix>
</trkpt>
<trkpt lat="33.8093244" lon="-118.3944317">
  <ele>-43.86</ele>
  <time>2026-09-01T01:13:48Z</time>
  <course>180.17</course>
  <speed>0.97</speed>
  <fix>3d</fix>
</trkpt>
<trkpt lat="33.8093218" lon="-118.3944319">
  <ele>-44.97</ele>
  <time>2026-09-01T01:13:48Z</time>
  <course>181.34</course>
  <speed>0.9600520819205591</speed>
  <fix>3d</fix>
</trkpt>
<trkpt lat="33.8093226" lon="-118.3944317">
  <ele>-43.87</ele>
  <time>2026-09-01T01:13:48Z</time>
  <course>180.18</course>
  <speed>0.98</speed>
  <fix>3d</fix>
</trkpt>
<trkpt lat="33.8093209" lon="-118.3944319">
  <ele>-44.983</ele>
  <time>2026-09-01T01:13:48Z</time>
  <course>181.33</course>
  <speed>0.9302150289046076</speed>
  <fix>3d</fix>
</trkpt>
<trkpt lat="33.8093226" lon="-118.3944317">
  <ele>-43.87</ele>
  <time>2026-09-01T01:13:48Z</time>
  <course>180.18</course>
  <speed>0.98</speed>
  <fix>3d</fix>
</trkpt>
<trkpt lat="33.8093201" lon="-118.3944319">
  <ele>-44.995</ele>
  <time>2026-09-01T01:13:48Z</time>
  <course>181.35</course>
  <speed>0.8900561780022652</speed>
  <fix>3d</fix>
</trkpt>
<trkpt lat="33.8093209" lon="-118.3944317">
  <ele>-43.89</ele>
  <time>2026-09-01T01:13:48Z</time>
  <course>180.24</course>
  <speed>0.94</speed>
  <fix>3d</fix>
</trkpt>
<trkpt lat="33.8093192" lon="-118.3944319">
  <ele>-45.006</ele>
  <time>2026-09-01T01:13:48Z</time>
  <course>181.41</course>
  <speed>0.9102197536858887</speed>
  <fix>3d</fix>
</trkpt>
<trkpt lat="33.8093209" lon="-118.3944317">
  <ele>-43.89</ele>
  <time>2026-09-01T01:13:48Z</time>
  <course>180.24</course>
  <speed>0.94</speed>
  <fix>3d</fix>
</trkpt>
<trkpt lat="33.8093184" lon="-118.3944319">
  <ele>-45.02</ele>
  <time>2026-09-01T01:13:48Z</time>
  <course>181.44</course>
  <speed>0.9200543462209175</speed>
  <fix>3d</fix>
</trkpt>
<trkpt lat="33.8093192" lon="-118.3944317">
  <ele>-43.92</ele>
  <time>2026-09-01T01:13:48Z</time>
  <course>180.28</course>
  <speed>0.92</speed>
  <fix>3d</fix>
</trkpt>
<trkpt lat="33.8093176" lon="-118.3944319">
  <ele>-45.034</ele>
  <time>2026-09-01T01:13:48Z</time>
  <course>181.43</course>
  <speed>0.9300537618869137</speed>
  <fix>3d</fix>
</trkpt>
<trkpt lat="33.8093192" lon="-118.3944317">
  <ele>-43.92</ele>
  <time>2026-09-01T01:13:48Z</time>
  <course>180.28</course>
  <speed>0.92</speed>
  <fix>3d</fix>
</trkpt>
<trkpt lat="33.8093167" lon="-118.3944319">
  <ele>-45.043</ele>
  <time>2026-09-01T01:13:48Z</time>
  <course>181.4</course>
  <speed>0.9300537618869137</speed>
  <fix>3d</fix>
</trkpt>
<trkpt lat="33.8093175" lon="-118.3944317">
  <ele>-43.94</ele>
  <time>2026-09-01T01:13:48Z</time>
  <course>180.25</course>
  <speed>0.94</speed>
  <fix>3d</fix>
</trkpt>
<trkpt lat="33.8093158" lon="-118.3944319">
  <ele>-45.045</ele>
  <time>2026-09-01T01:13:48Z</time>
  <course>181.37</course>
  <speed>0.9400531899844816</speed>
  <fix>3d</fix>
</trkpt>
<trkpt lat="33.8093175" lon="-118.3944317">
  <ele>-43.94</ele>
  <time>2026-09-01T01:13:48Z</time>
  <course>180.25</course>
  <speed>0.94</speed>
  <fix>3d</fix>
</trkpt>
<trkpt lat="33.809315" lon="-118.3944319">
  <ele>-45.043</ele>
  <time>2026-09-01T01:13:48Z</time>
  <course>181.35</course>
  <speed>0.9500526301210896</speed>
  <fix>3d</fix>
</trkpt>
<trkpt lat="33.8093158" lon="-118.3944317">
  <ele>-43.96</ele>
  <time>2026-09-01T01:13:48Z</time>
  <course>180.24</course>
  <speed>0.96</speed>
  <fix>3d</fix>
</trkpt>
<trkpt lat="33.8093141" lon="-118.3944319">
  <ele>-45.037</ele>
  <time>2026-09-01T01:13:48Z</time>
  <course>181.32</course>
  <speed>0.9502105029939419</speed>
  <fix>3d</fix>
</trkpt>
<trkpt lat="33.8093158" lon="-118.3944317">
  <ele>-43.96</ele>
  <time>2026-09-01T01:13:48Z</time>
  <course>180.24</course>
  <speed>0.96</speed>
  <fix>3d</fix>
</trkpt>
<trkpt lat="33.8093132" lon="-118.3944319">
  <ele>-45.029</ele>
  <time>2026-09-01T01:13:48Z</time>
  <course>181.31</course>
  <speed>0.9500526301210896</speed>
  <fix>3d</fix>
</trkpt>
<trkpt lat="33.809314" lon="-118.3944317">
  <ele>-43.95</ele>
  <time>2026-09-01T01:13:48Z</time>
  <course>180.22</course>
  <speed>0.97</speed>
  <fix>3d</fix>
</trkpt>
<trkpt lat="33.8093123" lon="-118.3944319">
  <ele>-45.023</ele>
  <time>2026-09-01T01:13:48Z</time>
  <course>181.3</course>
  <speed>0.9502105029939419</speed>
  <fix>3d</fix>
</trkpt>
<trkpt lat="33.809314" lon="-118.3944317">
  <ele>-43.95</ele>
  <time>2026-09-01T01:13:48Z</time>
  <course>180.22</course>
  <speed>0.97</speed>
  <fix>3d</fix>
</trkpt>
<trkpt lat="33.8093114" lon="-118.3944319">
  <ele>-45.015</ele>
  <time>2026-09-01T01:13:48Z</time>
  <course>181.29</course>
  <speed>0.9600520819205591</speed>
  <fix>3d</fix>
</trkpt>
<trkpt lat="33.8093123" lon="-118.3944317">
  <ele>-43.94</ele>
  <time>2026-09-01T01:13:48Z</time>
  <course>180.23</course>
  <speed>0.98</speed>
  <fix>3d</fix>
</trkpt>
<trkpt lat="33.8093105" lon="-118.3944319">
  <ele>-45.009</ele>
  <time>2026-09-01T01:13:48Z</time>
  <course>181.28</course>
  <speed>0.9602083107326242</speed>
  <fix>3d</fix>
</trkpt>
<trkpt lat="33.8093123" lon="-118.3944317">
  <ele>-43.94</ele>
  <time>2026-09-01T01:13:48Z</time>
  <course>180.23</course>
  <speed>0.98</speed>
  <fix>3d</fix>
</trkpt>
<trkpt lat="33.8093097" lon="-118.3944319">
  <ele>-45.005</ele>
  <time>2026-09-01T01:13:48Z</time>
  <course>181.27</course>
  <speed>0.9600520819205591</speed>
  <fix>3d</fix>
</trkpt>
<trkpt lat="33.8093105" lon="-118.3944317">
  <ele>-43.93</ele>
  <time>2026-09-01T01:13:48Z</time>
  <course>180.24</course>
  <speed>0.98</speed>
  <fix>3d</fix>
</trkpt>
<trkpt lat="33.8093088" lon="-118.3944319">
  <ele>-45.004</ele>
  <time>2026-09-01T01:13:48Z</time>
  <course>181.27</course>
  <speed>0.9602083107326242</speed>
  <fix>3d</fix>
</trkpt>
<trkpt lat="33.8093105" lon="-118.3944317">
  <ele>-43.93</ele>
  <time>2026-09-01T01:13:48Z</time>
  <course>180.24</course>
  <speed>0.98</speed>
  <fix>3d</fix>
</trkpt>
<trkpt lat="33.8093079" lon="-118.3944319">
  <ele>-45.007</ele>
  <time>2026-09-01T01:13:48Z</time>
  <course>181.26</course>
  <speed>0.9600520819205591</speed>
  <fix>3d</fix>
</trkpt>
<trkpt lat="33.8093087" lon="-118.3944317">
  <ele>-43.92</ele>
  <time>2026-09-01T01:13:48Z</time>
  <course>180.26</course>
  <speed>0.99</speed>
  <fix>3d</fix>
</trkpt>
<trkpt lat="33.809307" lon="-118.3944319">
  <ele>-45.01</ele>
  <time>2026-09-01T01:13:48Z</time>
  <course>181.25</course>
  <speed>0.9602083107326242</speed>
  <fix>3d</fix>
</trkpt>
<trkpt lat="33.8093087" lon="-118.3944317">
  <ele>-43.92</ele>
  <time>2026-09-01T01:13:48Z</time>
  <course>180.26</course>
  <speed>0.99</speed>
  <fix>3d</fix>
</trkpt>
<trkpt lat="33.8093061" lon="-118.3944319">
  <ele>-45.015</ele>
  <time>2026-09-01T01:13:48Z</time>
  <course>181.24</course>
  <speed>0.9600520819205591</speed>
  <fix>3d</fix>
</trkpt>
<trkpt lat="33.809307" lon="-118.3944317">
  <ele>-43.92</ele>
  <time>2026-09-01T01:13:48Z</time>
  <course>180.28</course>
  <speed>0.99</speed>
  <fix>3d</fix>
</trkpt>
<trkpt lat="33.8093052" lon="-118.3944319">
  <ele>-45.021</ele>
  <time>2026-09-01T01:13:48Z</time>
  <course>181.23</course>
  <speed>0.9602083107326242</speed>
  <fix>3d</fix>
</trkpt>
<trkpt lat="33.809307" lon="-118.3944317">
  <ele>-43.92</ele>
  <time>2026-09-01T01:13:48Z</time>
  <course>180.28</course>
  <speed>0.99</speed>
  <fix>3d</fix>
</trkpt>
<trkpt lat="33.8093043" lon="-118.3944319">
  <ele>-45.019</ele>
  <time>2026-09-01T01:13:48Z</time>
  <course>181.23</course>
  <speed>0.970051545022222</speed>
  <fix>3d</fix>
</trkpt>
<trkpt lat="33.8093052" lon="-118.3944318">
  <ele>-43.93</ele>
  <time>2026-09-01T01:13:48Z</time>
  <course>180.27</course>
  <speed>0.99</speed>
  <fix>3d</fix>
</trkpt>
<trkpt lat="33.8093034" lon="-118.3944319">
  <ele>-45.012</ele>
  <time>2026-09-01T01:13:48Z</time>
  <course>181.22</course>
  <speed>0.970051545022222</speed>
  <fix>3d</fix>
</trkpt>
<trkpt lat="33.8093052" lon="-118.3944318">
  <ele>-43.93</ele>
  <time>2026-09-01T01:13:48Z</time>
  <course>180.27</course>
  <speed>0.99</speed>
  <fix>3d</fix>
</trkpt>
<trkpt lat="33.8093025" lon="-118.3944319">
  <ele>-45.003</ele>
  <time>2026-09-01T01:13:48Z</time>
  <course>181.19</course>
  <speed>0.970051545022222</speed>
  <fix>3d</fix>
</trkpt>
<trkpt lat="33.8093034" lon="-118.3944318">
  <ele>-43.93</ele>
  <time>2026-09-01T01:13:48Z</time>
  <course>180.23</course>
  <speed>0.99</speed>
  <fix>3d</fix>
</trkpt>
<trkpt lat="33.8093016" lon="-118.3944319">
  <ele>-44.995</ele>
  <time>2026-09-01T01:13:48Z</time>
  <course>181.14</course>
  <speed>0.970051545022222</speed>
  <fix>3d</fix>
</trkpt>
<trkpt lat="33.8093034" lon="-118.3944318">
  <ele>-43.93</ele>
  <time>2026-09-01T01:13:48Z</time>
  <course>180.23</course>
  <speed>0.99</speed>
  <fix>3d</fix>
</trkpt>
<trkpt lat="33.8093007" lon="-118.3944319">
  <ele>-44.989</ele>
  <time>2026-09-01T01:13:48Z</time>
  <course>181.1</course>
  <speed>0.970051545022222</speed>
  <fix>3d</fix>
</trkpt>
<trkpt lat="33.8093016" lon="-118.3944318">
  <ele>-43.92</ele>
  <time>2026-09-01T01:13:48Z</time>
  <course>180.17</course>
  <speed>0.99</speed>
  <fix>3d</fix>
</trkpt>
<trkpt lat="33.8092998" lon="-118.3944319">
  <ele>-44.985</ele>
  <time>2026-09-01T01:13:48Z</time>
  <course>181.04</course>
  <speed>0.970051545022222</speed>
  <fix>3d</fix>
</trkpt>
<trkpt lat="33.8093016" lon="-118.3944318">
  <ele>-43.92</ele>
  <time>2026-09-01T01:13:48Z</time>
  <course>180.17</course>
  <speed>0.99</speed>
  <fix>3d</fix>
</trkpt>
<trkpt lat="33.8092989" lon="-118.3944319">
  <ele>-44.98</ele>
  <time>2026-09-01T01:13:48Z</time>
  <course>180.99</course>
  <speed>0.970051545022222</speed>
  <fix>3d</fix>
</trkpt>
<trkpt lat="33.8092998" lon="-118.3944318">
  <ele>-43.91</ele>
  <time>2026-09-01T01:13:48Z</time>
  <course>180.1</course>
  <speed>0.99</speed>
  <fix>3d</fix>
</trkpt>
<trkpt lat="33.809298" lon="-118.3944319">
  <ele>-44.975</ele>
  <time>2026-09-01T01:13:48Z</time>
  <course>180.95</course>
  <speed>0.970051545022222</speed>
  <fix>3d</fix>
</trkpt>
<trkpt lat="33.8092998" lon="-118.3944318">
  <ele>-43.91</ele>
  <time>2026-09-01T01:13:48Z</time>
  <course>180.1</course>
  <speed>0.99</speed>
  <fix>3d</fix>
</trkpt>
<trkpt lat="33.8092971" lon="-118.3944319">
  <ele>-44.975</ele>
  <time>2026-09-01T01:13:48Z</time>
  <course>180.91</course>
  <speed>0.970051545022222</speed>
  <fix>3d</fix>
</trkpt>
<trkpt lat="33.809298" lon="-118.3944318">
  <ele>-43.9</ele>
  <time>2026-09-01T01:13:48Z</time>
  <course>180.05</course>
  <speed>0.99</speed>
  <fix>3d</fix>
</trkpt>
<trkpt lat="33.8092962" lon="-118.3944319">
  <ele>-44.976</ele>
  <time>2026-09-01T01:13:48Z</time>
  <course>180.88</course>
  <speed>0.970051545022222</speed>
  <fix>3d</fix>
</trkpt>
<trkpt lat="33.809298" lon="-118.3944318">
  <ele>-43.9</ele>
  <time>2026-09-01T01:13:48Z</time>
  <course>180.05</course>
  <speed>0.99</speed>
  <fix>3d</fix>
</trkpt>
<trkpt lat="33.8092953" lon="-118.3944319">
  <ele>-44.974</ele>
  <time>2026-09-01T01:13:48Z</time>
  <course>180.85</course>
  <speed>0.970051545022222</speed>
  <fix>3d</fix>
</trkpt>
<trkpt lat="33.8092963" lon="-118.3944318">
  <ele>-43.9</ele>
  <time>2026-09-01T01:13:48Z</time>
  <course>180.01</course>
  <speed>0.99</speed>
  <fix>3d</fix>
</trkpt>
<trkpt lat="33.8092944" lon="-118.3944319">
  <ele>-44.969</ele>
  <time>2026-09-01T01:13:48Z</time>
  <course>180.83</course>
  <speed>0.970051545022222</speed>
  <fix>3d</fix>
</trkpt>
<trkpt lat="33.8092963" lon="-118.3944318">
  <ele>-43.9</ele>
  <time>2026-09-01T01:13:48Z</time>
  <course>180.01</course>
  <speed>0.99</speed>
  <fix>3d</fix>
</trkpt>
<trkpt lat="33.8092935" lon="-118.3944319">
  <ele>-44.963</ele>
  <time>2026-09-01T01:13:48Z</time>
  <course>180.81</course>
  <speed>0.970051545022222</speed>
  <fix>3d</fix>
</trkpt>
<trkpt lat="33.8092944" lon="-118.3944318">
  <ele>-43.89</ele>
  <time>2026-09-01T01:13:48Z</time>
  <course>179.98</course>
  <speed>0.99</speed>
  <fix>3d</fix>
</trkpt>
<trkpt lat="33.8092926" lon="-118.3944319">
  <ele>-44.959</ele>
  <time>2026-09-01T01:13:48Z</time>
  <course>180.79</course>
  <speed>0.970051545022222</speed>
  <fix>3d</fix>
</trkpt>
<trkpt lat="33.8092944" lon="-118.3944318">
  <ele>-43.89</ele>
  <time>2026-09-01T01:13:48Z</time>
  <course>179.98</course>
  <speed>0.99</speed>
  <fix>3d</fix>
</trkpt>
<trkpt lat="33.8092917" lon="-118.3944319">
  <ele>-44.956</ele>
  <time>2026-09-01T01:13:48Z</time>
  <course>180.77</course>
  <speed>0.970051545022222</speed>
  <fix>3d</fix>
</trkpt>
<trkpt lat="33.8092927" lon="-118.3944318">
  <ele>-43.88</ele>
  <time>2026-09-01T01:13:48Z</time>
  <course>179.97</course>
  <speed>0.99</speed>
  <fix>3d</fix>
</trkpt>
<trkpt lat="33.8092908" lon="-118.3944319">
  <ele>-44.956</ele>
  <time>2026-09-01T01:13:48Z</time>
  <course>180.76</course>
  <speed>0.970051545022222</speed>
  <fix>3d</fix>
</trkpt>
<trkpt lat="33.8092927" lon="-118.3944318">
  <ele>-43.88</ele>
  <time>2026-09-01T01:13:48Z</time>
  <course>179.97</course>
  <speed>0.99</speed>
  <fix>3d</fix>
</trkpt>
<trkpt lat="33.80929" lon="-118.3944319">
  <ele>-44.962</ele>
  <time>2026-09-01T01:13:48Z</time>
  <course>180.75</course>
  <speed>0.970051545022222</speed>
  <fix>3d</fix>
</trkpt>
<trkpt lat="33.8092908" lon="-118.3944318">
  <ele>-43.88</ele>
  <time>2026-09-01T01:13:48Z</time>
  <course>179.95</course>
  <speed>0.99</speed>
  <fix>3d</fix>
</trkpt>
<trkpt lat="33.8092891" lon="-118.3944319">
  <ele>-44.974</ele>
  <time>2026-09-01T01:13:48Z</time>
  <course>180.74</course>
  <speed>0.970051545022222</speed>
  <fix>3d</fix>
</trkpt>
<trkpt lat="33.8092908" lon="-118.3944318">
  <ele>-43.88</ele>
  <time>2026-09-01T01:13:48Z</time>
  <course>179.95</course>
  <speed>0.99</speed>
  <fix>3d</fix>
</trkpt>
<trkpt lat="33.8092882" lon="-118.3944319">
  <ele>-44.986</ele>
  <time>2026-09-01T01:13:48Z</time>
  <course>180.74</course>
  <speed>0.970051545022222</speed>
  <fix>3d</fix>
</trkpt>
<trkpt lat="33.8092891" lon="-118.3944318">
  <ele>-43.89</ele>
  <time>2026-09-01T01:13:48Z</time>
  <course>179.93</course>
  <speed>0.99</speed>
  <fix>3d</fix>
</trkpt>
<trkpt lat="33.8092873" lon="-118.3944319">
  <ele>-44.994</ele>
  <time>2026-09-01T01:13:48Z</time>
  <course>180.73</course>
  <speed>0.970051545022222</speed>
  <fix>3d</fix>
</trkpt>
<trkpt lat="33.8092891" lon="-118.3944318">
  <ele>-43.89</ele>
  <time>2026-09-01T01:13:48Z</time>
  <course>179.93</course>
  <speed>0.99</speed>
  <fix>3d</fix>
</trkpt>
<trkpt lat="33.8092864" lon="-118.3944319">
  <ele>-45.0</ele>
  <time>2026-09-01T01:13:48Z</time>
  <course>180.73</course>
  <speed>0.970051545022222</speed>
  <fix>3d</fix>
</trkpt>
<trkpt lat="33.8092872" lon="-118.3944318">
  <ele>-43.91</ele>
  <time>2026-09-01T01:13:48Z</time>
  <course>179.91</course>
  <speed>0.99</speed>
  <fix>3d</fix>
</trkpt>
<trkpt lat="33.8092855" lon="-118.3944319">
  <ele>-45.004</ele>
  <time>2026-09-01T01:13:48Z</time>
  <course>180.73</course>
  <speed>0.970051545022222</speed>
  <fix>3d</fix>
</trkpt>
<trkpt lat="33.8092872" lon="-118.3944318">
  <ele>-43.91</ele>
  <time>2026-09-01T01:13:48Z</time>
  <course>179.91</course>
  <speed>0.99</speed>
  <fix>3d</fix>
</trkpt>
<trkpt lat="33.8092846" lon="-118.3944319">
  <ele>-45.009</ele>
  <time>2026-09-01T01:13:48Z</time>
  <course>180.74</course>
  <speed>0.970051545022222</speed>
  <fix>3d</fix>
</trkpt>
<trkpt lat="33.8092855" lon="-118.3944318">
  <ele>-43.92</ele>
  <time>2026-09-01T01:13:48Z</time>
  <course>179.88</course>
  <speed>0.99</speed>
  <fix>3d</fix>
</trkpt>
<trkpt lat="33.8092837" lon="-118.3944319">
  <ele>-45.015</ele>
  <time>2026-09-01T01:13:48Z</time>
  <course>180.73</course>
  <speed>0.970051545022222</speed>
  <fix>3d</fix>
</trkpt>
<trkpt lat="33.8092855" lon="-118.3944318">
  <ele>-43.92</ele>
  <time>2026-09-01T01:13:48Z</time>
  <course>179.88</course>
  <speed>0.99</speed>
  <fix>3d</fix>
</trkpt>
<trkpt lat="33.8092828" lon="-118.3944319">
  <ele>-45.02</ele>
  <time>2026-09-01T01:13:48Z</time>
  <course>180.73</course>
  <speed>0.970051545022222</speed>
  <fix>3d</fix>
</trkpt>
<trkpt lat="33.8092836" lon="-118.3944318">
  <ele>-43.93</ele>
  <time>2026-09-01T01:13:48Z</time>
  <course>179.86</course>
  <speed>0.99</speed>
  <fix>3d</fix>
</trkpt>
<trkpt lat="33.8092819" lon="-118.3944319">
  <ele>-45.025</ele>
  <time>2026-09-01T01:13:48Z</time>
  <course>180.74</course>
  <speed>0.970051545022222</speed>
  <fix>3d</fix>
</trkpt>
<trkpt lat="33.8092836" lon="-118.3944318">
  <ele>-43.93</ele>
  <time>2026-09-01T01:13:48Z</time>
  <course>179.86</course>
  <speed>0.99</speed>
  <fix>3d</fix>
</trkpt>
<trkpt lat="33.809281" lon="-118.3944319">
  <ele>-45.031</ele>
  <time>2026-09-01T01:13:48Z</time>
  <course>180.75</course>
  <speed>0.970051545022222</speed>
  <fix>3d</fix>
</trkpt>
<trkpt lat="33.8092819" lon="-118.3944318">
  <ele>-43.94</ele>
  <time>2026-09-01T01:13:48Z</time>
  <course>179.85</course>
  <speed>0.99</speed>
  <fix>3d</fix>
</trkpt>
<trkpt lat="33.8092801" lon="-118.3944319">
  <ele>-45.038</ele>
  <time>2026-09-01T01:13:48Z</time>
  <course>180.75</course>
  <speed>0.970051545022222</speed>
  <fix>3d</fix>
</trkpt>
<trkpt lat="33.8092819" lon="-118.3944318">
  <ele>-43.94</ele>
  <time>2026-09-01T01:13:48Z</time>
  <course>179.85</course>
  <speed>0.99</speed>
  <fix>3d</fix>
</trkpt>
<trkpt lat="33.8092792" lon="-118.3944319">
  <ele>-45.045</ele>
  <time>2026-09-01T01:13:48Z</time>
  <course>180.75</course>
  <speed>0.970051545022222</speed>
  <fix>3d</fix>
</trkpt>
<trkpt lat="33.80928" lon="-118.3944318">
  <ele>-43.95</ele>
  <time>2026-09-01T01:13:48Z</time>
  <course>179.84</course>
  <speed>0.99</speed>
  <fix>3d</fix>
</trkpt>
<trkpt lat="33.8092783" lon="-118.3944319">
  <ele>-45.052</ele>
  <time>2026-09-01T01:13:48Z</time>
  <course>180.75</course>
  <speed>0.970051545022222</speed>
  <fix>3d</fix>
</trkpt>
<trkpt lat="33.80928" lon="-118.3944318">
  <ele>-43.95</ele>
  <time>2026-09-01T01:13:48Z</time>
  <course>179.84</course>
  <speed>0.99</speed>
  <fix>3d</fix>
</trkpt>
<trkpt lat="33.8092774" lon="-118.3944319">
  <ele>-45.057</ele>
  <time>2026-09-01T01:13:48Z</time>
  <course>180.76</course>
  <speed>0.970051545022222</speed>
  <fix>3d</fix>
</trkpt>
<trkpt lat="33.8092783" lon="-118.3944318">
  <ele>-43.96</ele>
  <time>2026-09-01T01:13:48Z</time>
  <course>179.83</course>
  <speed>0.99</speed>
  <fix>3d</fix>
</trkpt>
<trkpt lat="33.8092765" lon="-118.3944319">
  <ele>-45.06</ele>
  <time>2026-09-01T01:13:48Z</time>
  <course>180.76</course>
  <speed>0.970051545022222</speed>
  <fix>3d</fix>
</trkpt>
<trkpt lat="33.8092783" lon="-118.3944318">
  <ele>-43.96</ele>
  <time>2026-09-01T01:13:48Z</time>
  <course>179.83</course>
  <speed>0.99</speed>
  <fix>3d</fix>
</trkpt>
<trkpt lat="33.8092756" lon="-118.3944319">
  <ele>-45.063</ele>
  <time>2026-09-01T01:13:48Z</time>
  <course>180.77</course>
  <speed>0.880056816347672</speed>
  <fix>3d</fix>
</trkpt>
<trkpt lat="33.8092764" lon="-118.3944318">
  <ele>-43.97</ele>
  <time>2026-09-01T01:13:48Z</time>
  <course>179.82</course>
  <speed>0.99</speed>
  <fix>3d</fix>
</trkpt>
<trkpt lat="33.8092748" lon="-118.3944319">
  <ele>-45.064</ele>
  <time>2026-09-01T01:13:48Z</time>
  <course>180.8</course>
  <speed>0.9000555538409837</speed>
  <fix>3d</fix>
</trkpt>
<trkpt lat="33.8092764" lon="-118.3944318">
  <ele>-43.97</ele>
  <time>2026-09-01T01:13:48Z</time>
  <course>179.82</course>
  <speed>0.99</speed>
  <fix>3d</fix>
</trkpt>
<trkpt lat="33.8092739" lon="-118.3944319">
  <ele>-45.061</ele>
  <time>2026-09-01T01:13:48Z</time>
  <course>180.83</course>
  <speed>0.9200543462209175</speed>
  <fix>3d</fix>
</trkpt>
<trkpt lat="33.8092747" lon="-118.3944318">
  <ele>-43.98</ele>
  <time>2026-09-01T01:13:48Z</time>
  <course>179.82</course>
  <speed>0.96</speed>
  <fix>3d</fix>
</trkpt>
<trkpt lat="33.8092731" lon="-118.3944319">
  <ele>-45.053</ele>
  <time>2026-09-01T01:13:48Z</time>
  <course>180.85</course>
  <speed>0.9200543462209175</speed>
  <fix>3d</fix>
</trkpt>
<trkpt lat="33.8092747" lon="-118.3944318">
  <ele>-43.98</ele>
  <time>2026-09-01T01:13:48Z</time>
  <course>179.82</course>
  <speed>0.96</speed>
  <fix>3d</fix>
</trkpt>
<trkpt lat="33.8092722" lon="-118.3944319">
  <ele>-45.036</ele>
  <time>2026-09-01T01:13:48Z</time>
  <course>180.85</course>
  <speed>0.9300537618869137</speed>
  <fix>3d</fix>
</trkpt>
<trkpt lat="33.8092731" lon="-118.3944318">
  <ele>-43.97</ele>
  <time>2026-09-01T01:13:48Z</time>
  <course>179.81</course>
  <speed>0.94</speed>
  <fix>3d</fix>
</trkpt>
<trkpt lat="33.8092713" lon="-118.3944319">
  <ele>-45.017</ele>
  <time>2026-09-01T01:13:48Z</time>
  <course>180.85</course>
  <speed>0.9400531899844816</speed>
  <fix>3d</fix>
</trkpt>
<trkpt lat="33.8092731" lon="-118.3944318">
  <ele>-43.97</ele>
  <time>2026-09-01T01:13:48Z</time>
  <course>179.81</course>
  <speed>0.94</speed>
  <fix>3d</fix>
</trkpt>
<trkpt lat="33.8092705" lon="-118.3944319">
  <ele>-44.998</ele>
  <time>2026-09-01T01:13:48Z</time>
  <course>180.84</course>
  <speed>0.9400531899844816</speed>
  <fix>3d</fix>
</trkpt>
<trkpt lat="33.8092714" lon="-118.3944318">
  <ele>-43.94</ele>
  <time>2026-09-01T01:13:48Z</time>
  <course>179.79</course>
  <speed>0.95</speed>
  <fix>3d</fix>
</trkpt>
<trkpt lat="33.8092696" lon="-118.3944319">
  <ele>-44.982</ele>
  <time>2026-09-01T01:13:48Z</time>
  <course>180.83</course>
  <speed>0.9500526301210896</speed>
  <fix>3d</fix>
</trkpt>
<trkpt lat="33.8092714" lon="-118.3944318">
  <ele>-43.94</ele>
  <time>2026-09-01T01:13:48Z</time>
  <course>179.79</course>
  <speed>0.95</speed>
  <fix>3d</fix>
</trkpt>
<trkpt lat="33.8092687" lon="-118.3944319">
  <ele>-44.968</ele>
  <time>2026-09-01T01:13:48Z</time>
  <course>180.83</course>
  <speed>0.9500526301210896</speed>
  <fix>3d</fix>
</trkpt>
<trkpt lat="33.8092696" lon="-118.3944318">
  <ele>-43.91</ele>
  <time>2026-09-01T01:13:48Z</time>
  <course>179.78</course>
  <speed>0.96</speed>
  <fix>3d</fix>
</trkpt>
<trkpt lat="33.8092678" lon="-118.3944319">
  <ele>-44.954</ele>
  <time>2026-09-01T01:13:48Z</time>
  <course>180.83</course>
  <speed>0.9500526301210896</speed>
  <fix>3d</fix>
</trkpt>
<trkpt lat="33.8092696" lon="-118.3944318">
  <ele>-43.91</ele>
  <time>2026-09-01T01:13:48Z</time>
  <course>179.78</course>
  <speed>0.96</speed>
  <fix>3d</fix>
</trkpt>
<trkpt lat="33.809267" lon="-118.3944319">
  <ele>-44.941</ele>
  <time>2026-09-01T01:13:48Z</time>
  <course>180.83</course>
  <speed>0.9600520819205591</speed>
  <fix>3d</fix>
</trkpt>
<trkpt lat="33.8092678" lon="-118.3944318">
  <ele>-43.89</ele>
  <time>2026-09-01T01:13:48Z</time>
  <course>179.76</course>
  <speed>0.97</speed>
  <fix>3d</fix>
</trkpt>
<trkpt lat="33.8092661" lon="-118.3944319">
  <ele>-44.929</ele>
  <time>2026-09-01T01:13:48Z</time>
  <course>180.83</course>
  <speed>0.9600520819205591</speed>
  <fix>3d</fix>
</trkpt>
<trkpt lat="33.8092678" lon="-118.3944318">
  <ele>-43.89</ele>
  <time>2026-09-01T01:13:48Z</time>
  <course>179.76</course>
  <speed>0.97</speed>
  <fix>3d</fix>
</trkpt>
<trkpt lat="33.8092652" lon="-118.3944319">
  <ele>-44.919</ele>
  <time>2026-09-01T01:13:48Z</time>
  <course>180.83</course>
  <speed>0.9600520819205591</speed>
  <fix>3d</fix>
</trkpt>
<trkpt lat="33.8092661" lon="-118.3944318">
  <ele>-43.86</ele>
  <time>2026-09-01T01:13:48Z</time>
  <course>179.74</course>
  <speed>0.98</speed>
  <fix>3d</fix>
</trkpt>
<trkpt lat="33.8092643" lon="-118.3944319">
  <ele>-44.912</ele>
  <time>2026-09-01T01:13:48Z</time>
  <course>180.83</course>
  <speed>0.9600520819205591</speed>
  <fix>3d</fix>
</trkpt>
<trkpt lat="33.8092661" lon="-118.3944318">
  <ele>-43.86</ele>
  <time>2026-09-01T01:13:48Z</time>
  <course>179.74</course>
  <speed>0.98</speed>
  <fix>3d</fix>
</trkpt>
<trkpt lat="33.8092634" lon="-118.3944319">
  <ele>-44.909</ele>
  <time>2026-09-01T01:13:48Z</time>
  <course>180.83</course>
  <speed>0.9600520819205591</speed>
  <fix>3d</fix>
</trkpt>
<trkpt lat="33.8092644" lon="-118.3944318">
  <ele>-43.84</ele>
  <time>2026-09-01T01:13:48Z</time>
  <course>179.74</course>
  <speed>0.98</speed>
  <fix>3d</fix>
</trkpt>
<trkpt lat="33.8092625" lon="-118.3944319">
  <ele>-44.912</ele>
  <time>2026-09-01T01:13:48Z</time>
  <course>180.84</course>
  <speed>0.970051545022222</speed>
  <fix>3d</fix>
</trkpt>
<trkpt lat="33.8092644" lon="-118.3944318">
  <ele>-43.84</ele>
  <time>2026-09-01T01:13:48Z</time>
  <course>179.74</course>
  <speed>0.98</speed>
  <fix>3d</fix>
</trkpt>
<trkpt lat="33.8092616" lon="-118.3944319">
  <ele>-44.916</ele>
  <time>2026-09-01T01:13:48Z</time>
  <course>180.84</course>
  <speed>0.970051545022222</speed>
  <fix>3d</fix>
</trkpt>
<trkpt lat="33.8092625" lon="-118.3944318">
  <ele>-43.84</ele>
  <time>2026-09-01T01:13:48Z</time>
  <course>179.75</course>
  <speed>0.98</speed>
  <fix>3d</fix>
</trkpt>
<trkpt lat="33.8092607" lon="-118.3944319">
  <ele>-44.923</ele>
  <time>2026-09-01T01:13:48Z</time>
  <course>180.84</course>
  <speed>0.970051545022222</speed>
  <fix>3d</fix>
</trkpt>
<trkpt lat="33.8092625" lon="-118.3944318">
  <ele>-43.84</ele>
  <time>2026-09-01T01:13:48Z</time>
  <course>179.75</course>
  <speed>0.98</speed>
  <fix>3d</fix>
</trkpt>
<trkpt lat="33.8092598" lon="-118.3944319">
  <ele>-44.93</ele>
  <time>2026-09-01T01:13:48Z</time>
  <course>180.85</course>
  <speed>0.970051545022222</speed>
  <fix>3d</fix>
</trkpt>
<trkpt lat="33.8092608" lon="-118.3944318">
  <ele>-43.84</ele>
  <time>2026-09-01T01:13:48Z</time>
  <course>179.74</course>
  <speed>0.99</speed>
  <fix>3d</fix>
</trkpt>
<trkpt lat="33.809259" lon="-118.3944319">
  <ele>-44.938</ele>
  <time>2026-09-01T01:13:48Z</time>
  <course>180.85</course>
  <speed>0.970051545022222</speed>
  <fix>3d</fix>
</trkpt>
<trkpt lat="33.8092608" lon="-118.3944318">
  <ele>-43.84</ele>
  <time>2026-09-01T01:13:48Z</time>
  <course>179.74</course>
  <speed>0.99</speed>
  <fix>3d</fix>
</trkpt>
<trkpt lat="33.8092581" lon="-118.3944319">
  <ele>-44.953</ele>
  <time>2026-09-01T01:13:48Z</time>
  <course>180.85</course>
  <speed>0.9600520819205591</speed>
  <fix>3d</fix>
</trkpt>
<trkpt lat="33.809259" lon="-118.3944318">
  <ele>-43.86</ele>
  <time>2026-09-01T01:13:48Z</time>
  <course>179.74</course>
  <speed>0.99</speed>
  <fix>3d</fix>
</trkpt>
<trkpt lat="33.8092572" lon="-118.3944319">
  <ele>-44.971</ele>
  <time>2026-09-01T01:13:48Z</time>
  <course>180.85</course>
  <speed>0.9400531899844816</speed>
  <fix>3d</fix>
</trkpt>
<trkpt lat="33.809259" lon="-118.3944318">
  <ele>-43.86</ele>
  <time>2026-09-01T01:13:48Z</time>
  <course>179.74</course>
  <speed>0.99</speed>
  <fix>3d</fix>
</trkpt>
<trkpt lat="33.8092563" lon="-118.3944319">
  <ele>-44.989</ele>
  <time>2026-09-01T01:13:48Z</time>
  <course>180.86</course>
  <speed>0.9200543462209175</speed>
  <fix>3d</fix>
</trkpt>
<trkpt lat="33.8092573" lon="-118.3944317">
  <ele>-43.88</ele>
  <time>2026-09-01T01:13:48Z</time>
  <course>179.74</course>
  <speed>0.97</speed>
  <fix>3d</fix>
</trkpt>
<trkpt lat="33.8092555" lon="-118.3944319">
  <ele>-45.009</ele>
  <time>2026-09-01T01:13:48Z</time>
  <course>180.88</course>
  <speed>0.880056816347672</speed>
  <fix>3d</fix>
</trkpt>
<trkpt lat="33.8092573" lon="-118.3944317">
  <ele>-43.88</ele>
  <time>2026-09-01T01:13:48Z</time>
  <course>179.74</course>
  <speed>0.97</speed>
  <fix>3d</fix>
</trkpt>
<trkpt lat="33.8092547" lon="-118.3944319">
  <ele>-45.029</ele>
  <time>2026-09-01T01:13:48Z</time>
  <course>180.94</course>
  <speed>0.8400595217006948</speed>
  <fix>3d</fix>
</trkpt>
<trkpt lat="33.8092555" lon="-118.3944317">
  <ele>-43.92</ele>
  <time>2026-09-01T01:13:48Z</time>
  <course>179.79</course>
  <speed>0.92</speed>
  <fix>3d</fix>
</trkpt>
<trkpt lat="33.8092539" lon="-118.3944319">
  <ele>-45.047</ele>
  <time>2026-09-01T01:13:48Z</time>
  <course>181.01</course>
  <speed>0.8000624975587844</speed>
  <fix>3d</fix>
</trkpt>
<trkpt lat="33.8092555" lon="-118.3944317">
  <ele>-43.92</ele>
  <time>2026-09-01T01:13:48Z</time>
  <course>179.79</course>
  <speed>0.92</speed>
  <fix>3d</fix>
</trkpt>
<trkpt lat="33.8092532" lon="-118.3944319">
  <ele>-45.064</ele>
  <time>2026-09-01T01:13:48Z</time>
  <course>181.12</course>
  <speed>0.7400675644831355</speed>
  <fix>3d</fix>
</trkpt>
<trkpt lat="33.8092539" lon="-118.3944317">
  <ele>-43.95</ele>
  <time>2026-09-01T01:13:48Z</time>
  <course>179.92</course>
  <speed>0.84</speed>
  <fix>3d</fix>
</trkpt>
<trkpt lat="33.8092526" lon="-118.3944319">
  <ele>-45.08</ele>
  <time>2026-09-01T01:13:48Z</time>
  <course>181.25</course>
  <speed>0.6800735254367721</speed>
  <fix>3d</fix>
</trkpt>
<trkpt lat="33.8092539" lon="-118.3944317">
  <ele>-43.95</ele>
  <time>2026-09-01T01:13:48Z</time>
  <course>179.92</course>
  <speed>0.84</speed>
  <fix>3d</fix>
</trkpt>
<trkpt lat="33.809252" lon="-118.3944319">
  <ele>-45.095</ele>
  <time>2026-09-01T01:13:48Z</time>
  <course>181.42</course>
  <speed>0.6100819617067857</speed>
  <fix>3d</fix>
</trkpt>
<trkpt lat="33.8092525" lon="-118.3944317">
  <ele>-43.98</ele>
  <time>2026-09-01T01:13:48Z</time>
  <course>180.1</course>
  <speed>0.73</speed>
  <fix>3d</fix>
</trkpt>
<trkpt lat="33.8092514" lon="-118.3944319">
  <ele>-45.109</ele>
  <time>2026-09-01T01:13:48Z</time>
  <course>181.64</course>
  <speed>0.5303772242470448</speed>
  <fix>3d</fix>
</trkpt>
<trkpt lat="33.8092525" lon="-118.3944317">
  <ele>-43.98</ele>
  <time>2026-09-01T01:13:48Z</time>
  <course>180.1</course>
  <speed>0.73</speed>
  <fix>3d</fix>
</trkpt>
<trkpt lat="33.8092509" lon="-118.3944319">
  <ele>-45.123</ele>
  <time>2026-09-01T01:13:48Z</time>
  <course>181.94</course>
  <speed>0.46010868281309364</speed>
  <fix>3d</fix>
</trkpt>
<trkpt lat="33.8092513" lon="-118.3944317">
  <ele>-44.01</ele>
  <time>2026-09-01T01:13:48Z</time>
  <course>180.32</course>
  <speed>0.6</speed>
  <fix>3d</fix>
</trkpt>
<trkpt lat="33.8092505" lon="-118.3944319">
  <ele>-45.133</ele>
  <time>2026-09-01T01:13:48Z</time>
  <course>182.36</course>
  <speed>0.4001249804748511</speed>
  <fix>3d</fix>
</trkpt>
<trkpt lat="33.8092513" lon="-118.3944317">
  <ele>-44.01</ele>
  <time>2026-09-01T01:13:48Z</time>
  <course>180.32</course>
  <speed>0.6</speed>
  <fix>3d</fix>
</trkpt>
<trkpt lat="33.8092501" lon="-118.3944319">
  <ele>-45.137</ele>
  <time>2026-09-01T01:13:48Z</time>
  <course>182.98</course>
  <speed>0.35014282800023194</speed>
  <fix>3d</fix>
</trkpt>
<trkpt lat="33.8092503" lon="-118.3944317">
  <ele>-44.04</ele>
  <time>2026-09-01T01:13:48Z</time>
  <course>180.59</course>
  <speed>0.46</speed>
  <fix>3d</fix>
</trkpt>
<trkpt lat="33.8092498" lon="-118.3944319">
  <ele>-45.132</ele>
  <time>2026-09-01T01:13:48Z</time>
  <course>183.89</course>
  <speed>0.30016662039607267</speed>
  <fix>3d</fix>
</trkpt>
<trkpt lat="33.8092503" lon="-118.3944317">
  <ele>-44.04</ele>
  <time>2026-09-01T01:13:48Z</time>
  <course>180.59</course>
  <speed>0.46</speed>
  <fix>3d</fix>
</trkpt>
<trkpt lat="33.8092495" lon="-118.3944319">
  <ele>-45.116</ele>
  <time>2026-09-01T01:13:48Z</time>
  <course>184.74</course>
  <speed>0.2601922366251538</speed>
  <fix>3d</fix>
</trkpt>
<trkpt lat="33.8092496" lon="-118.3944318">
  <ele>-44.04</ele>
  <time>2026-09-01T01:13:48Z</time>
  <course>180.79</course>
  <speed>0.35</speed>
  <fix>3d</fix>
</trkpt>
<trkpt lat="33.8092493" lon="-118.3944319">
  <ele>-45.095</ele>
  <time>2026-09-01T01:13:48Z</time>
  <course>185.08</course>
  <speed>0.22022715545545238</speed>
  <fix>3d</fix>
</trkpt>
<trkpt lat="33.8092496" lon="-118.3944318">
  <ele>-44.04</ele>
  <time>2026-09-01T01:13:48Z</time>
  <course>180.79</course>
  <speed>0.35</speed>
  <fix>3d</fix>
</trkpt>
<trkpt lat="33.8092491" lon="-118.3944319">
  <ele>-45.072</ele>
  <time>2026-09-01T01:13:48Z</time>
  <course>185.07</course>
  <speed>0.19026297590440447</speed>
  <fix>3d</fix>
</trkpt>
<trkpt lat="33.8092491" lon="-118.3944318">
  <ele>-44.02</ele>
  <time>2026-09-01T01:13:48Z</time>
  <course>180.96</course>
  <speed>0.26</speed>
  <fix>3d</fix>
</trkpt>
<trkpt lat="33.8092489" lon="-118.3944319">
  <ele>-45.047</ele>
  <time>2026-09-01T01:13:48Z</time>
  <course>186.21</course>
  <speed>0.140356688476182</speed>
  <fix>3d</fix>
</trkpt>
<trkpt lat="33.8092491" lon="-118.3944318">
  <ele>-44.02</ele>
  <time>2026-09-01T01:13:48Z</time>
  <course>180.96</course>
  <speed>0.26</speed>
  <fix>3d</fix>
</trkpt>
<trkpt lat="33.8092487" lon="-118.3944319">
  <ele>-45.022</ele>
  <time>2026-09-01T01:13:48Z</time>
  <course>188.7</course>
  <speed>0.1118033988749895</speed>
  <fix>3d</fix>
</trkpt>
<trkpt lat="33.8092487" lon="-118.3944318">
  <ele>-43.97</ele>
  <time>2026-09-01T01:13:48Z</time>
  <course>181.76</course>
  <speed>0.18</speed>
  <fix>3d</fix>
</trkpt>
<trkpt lat="33.8092486" lon="-118.3944319">
  <ele>-44.997</ele>
  <time>2026-09-01T01:13:48Z</time>
  <course>191.83</course>
  <speed>0.0824621125123532</speed>
  <fix>3d</fix>
</trkpt>
<trkpt lat="33.8092487" lon="-118.3944318">
  <ele>-43.97</ele>
  <time>2026-09-01T01:13:48Z</time>
  <course>181.76</course>
  <speed>0.18</speed>
  <fix>3d</fix>
</trkpt>
<trkpt lat="33.8092486" lon="-118.3944319">
  <ele>-44.972</ele>
  <time>2026-09-01T01:13:48Z</time>
  <course>195.31</course>
  <speed>0.06082762530298219</speed>
  <fix>3d</fix>
</trkpt>
<trkpt lat="33.8092484" lon="-118.3944318">
  <ele>-43.92</ele>
  <time>2026-09-01T01:13:48Z</time>
  <course>183.56</course>
  <speed>0.11</speed>
  <fix>3d</fix>
</trkpt>
<trkpt lat="33.8092485" lon="-118.3944319">
  <ele>-44.95</ele>
  <time>2026-09-01T01:13:48Z</time>
  <course>198.91</course>
  <speed>0.0412310562561766</speed>
  <fix>3d</fix>
</trkpt>
<trkpt lat="33.8092484" lon="-118.3944318">
  <ele>-43.92</ele>
  <time>2026-09-01T01:13:48Z</time>
  <course>183.56</course>
  <speed>0.11</speed>
  <fix>3d</fix>
</trkpt>
<trkpt lat="33.8092484" lon="-118.3944319">
  <ele>-44.931</ele>
  <time>2026-09-01T01:13:48Z</time>
  <course>201.39</course>
  <speed>0.0316227766016838</speed>
  <fix>3d</fix>
</trkpt>
<trkpt lat="33.8092482" lon="-118.3944318">
  <ele>-43.88</ele>
  <time>2026-09-01T01:13:48Z</time>
  <course>185.05</course>
  <speed>0.06</speed>
  <fix>3d</fix>
</trkpt>
<trkpt lat="33.8092484" lon="-118.3944319">
  <ele>-44.914</ele>
  <time>2026-09-01T01:13:48Z</time>
  <course>202.65</course>
  <speed>0.02</speed>
  <fix>3d</fix>
</trkpt>
<trkpt lat="33.8092482" lon="-118.3944318">
  <ele>-43.88</ele>
  <time>2026-09-01T01:13:48Z</time>
  <course>185.05</course>
  <speed>0.06</speed>
  <fix>3d</fix>
</trkpt>
<trkpt lat="33.8092483" lon="-118.3944319">
  <ele>-44.906</ele>
  <time>2026-09-01T01:13:48Z</time>
  <course>202.58</course>
  <speed>0.01</speed>
  <fix>3d</fix>
</trkpt>
<trkpt lat="33.8092481" lon="-118.3944318">
  <ele>-43.84</ele>
  <time>2026-09-01T01:13:48Z</time>
  <course>175.59</course>
  <speed>0.03</speed>
  <fix>3d</fix>
</trkpt>
<trkpt lat="33.8092483" lon="-118.3944319">
  <ele>-44.904</ele>
  <time>2026-09-01T01:13:48Z</time>
  <course>200.76</course>
  <speed>0.05</speed>
  <fix>3d</fix>
</trkpt>
<trkpt lat="33.8092481" lon="-118.3944318">
  <ele>-43.84</ele>
  <time>2026-09-01T01:13:48Z</time>
  <course>175.59</course>
  <speed>0.03</speed>
  <fix>3d</fix>
</trkpt>
<trkpt lat="33.8092483" lon="-118.3944318">
  <ele>-44.91</ele>
  <time>2026-09-01T01:13:48Z</time>
  <course>197.93</course>
  <speed>0.09219544457292887</speed>
  <fix>3d</fix>
</trkpt>
<trkpt lat="33.8092481" lon="-118.3944317">
  <ele>-43.83</ele>
  <time>2026-09-01T01:13:48Z</time>
  <course>104.82</course>
  <speed>0.04</speed>
  <fix>3d</fix>
</trkpt>
<trkpt lat="33.8092483" lon="-118.3944318">
  <ele>-44.91</ele>
  <time>2026-09-01T01:13:48Z</time>
  <course>197.85</course>
  <speed>0.09219544457292887</speed>
  <fix>3d</fix>
</trkpt>
<trkpt lat="33.8092483" lon="-118.3944317">
  <ele>-44.921</ele>
  <time>2026-09-01T01:13:48Z</time>
  <course>194.63</course>
  <speed>0.14317821063276354</speed>
  <fix>3d</fix>
</trkpt>
<trkpt lat="33.8092481" lon="-118.3944317">
  <ele>-43.83</ele>
  <time>2026-09-01T01:13:48Z</time>
  <course>104.82</course>
  <speed>0.04</speed>
  <fix>3d</fix>
</trkpt>
<trkpt lat="33.8092483" lon="-118.3944315">
  <ele>-44.936</ele>
  <time>2026-09-01T01:13:48Z</time>
  <course>192.45</course>
  <speed>0.13341664064126335</speed>
  <fix>3d</fix>
</trkpt>
<trkpt lat="33.8092481" lon="-118.3944316">
  <ele>-43.84</ele>
  <time>2026-09-01T01:13:48Z</time>
  <course>82.39</course>
  <speed>0.12</speed>
  <fix>3d</fix>
</trkpt>
<trkpt lat="33.8092483" lon="-118.3944314">
  <ele>-44.95</ele>
  <time>2026-09-01T01:13:48Z</time>
  <course>191.39</course>
  <speed>0.12369316876852982</speed>
  <fix>3d</fix>
</trkpt>
<trkpt lat="33.8092481" lon="-118.3944316">
  <ele>-43.84</ele>
  <time>2026-09-01T01:13:48Z</time>
  <course>82.39</course>
  <speed>0.12</speed>
  <fix>3d</fix>
</trkpt>
<trkpt lat="33.8092484" lon="-118.3944312">
  <ele>-44.963</ele>
  <time>2026-09-01T01:13:48Z</time>
  <course>190.68</course>
  <speed>0.11401754250991379</speed>
  <fix>3d</fix>
</trkpt>
<trkpt lat="33.8092481" lon="-118.3944313">
  <ele>-43.86</ele>
  <time>2026-09-01T01:13:48Z</time>
  <course>79.64</course>
  <speed>0.14</speed>
  <fix>3d</fix>
</trkpt>
<trkpt lat="33.8092483" lon="-118.3944311">
  <ele>-44.974</ele>
  <time>2026-09-01T01:13:48Z</time>
  <course>190.15</course>
  <speed>0.1044030650891055</speed>
  <fix>3d</fix>
</trkpt>
<trkpt lat="33.8092481" lon="-118.3944313">
  <ele>-43.86</ele>
  <time>2026-09-01T01:13:48Z</time>
  <course>79.64</course>
  <speed>0.14</speed>
  <fix>3d</fix>
</trkpt>
<trkpt lat="33.8092483" lon="-118.394431">
  <ele>-44.985</ele>
  <time>2026-09-01T01:13:48Z</time>
  <course>189.73</course>
  <speed>0.09486832980505139</speed>
  <fix>3d</fix>
</trkpt>
<trkpt lat="33.8092482" lon="-118.394431">
  <ele>-43.89</ele>
  <time>2026-09-01T01:13:48Z</time>
  <course>77.53</course>
  <speed>0.13</speed>
  <fix>3d</fix>
</trkpt>
<trkpt lat="33.8092483" lon="-118.3944309">
  <ele>-44.995</ele>
  <time>2026-09-01T01:13:48Z</time>
  <course>189.38</course>
  <speed>0.0854400374531753</speed>
  <fix>3d</fix>
</trkpt>
<trkpt lat="33.8092482" lon="-118.394431">
  <ele>-43.89</ele>
  <time>2026-09-01T01:13:48Z</time>
  <course>77.53</course>
  <speed>0.13</speed>
  <fix>3d</fix>
</trkpt>
<trkpt lat="33.8092483" lon="-118.3944308">
  <ele>-45.003</ele>
  <time>2026-09-01T01:13:48Z</time>
  <course>189.07</course>
  <speed>0.0854400374531753</speed>
  <fix>3d</fix>
</trkpt>
<trkpt lat="33.8092482" lon="-118.3944307">
  <ele>-43.9</ele>
  <time>2026-09-01T01:13:48Z</time>
  <course>75.68</course>
  <speed>0.11</speed>
  <fix>3d</fix>
</trkpt>
<trkpt lat="33.8092484" lon="-118.3944307">
  <ele>-45.009</ele>
  <time>2026-09-01T01:13:48Z</time>
  <course>188.81</course>
  <speed>0.07615773105863909</speed>
  <fix>3d</fix>
</trkpt>
<trkpt lat="33.8092482" lon="-118.3944307">
  <ele>-43.9</ele>
  <time>2026-09-01T01:13:48Z</time>
  <course>75.68</course>
  <speed>0.11</speed>
  <fix>3d</fix>
</trkpt>
<trkpt lat="33.8092484" lon="-118.3944306">
  <ele>-45.014</ele>
  <time>2026-09-01T01:13:48Z</time>
  <course>188.57</course>
  <speed>0.07615773105863909</speed>
  <fix>3d</fix>
</trkpt>
<trkpt lat="33.8092482" lon="-118.3944305">
  <ele>-43.92</ele>
  <time>2026-09-01T01:13:48Z</time>
  <course>74.02</course>
  <speed>0.1</speed>
  <fix>3d</fix>
</trkpt>
<trkpt lat="33.8092484" lon="-118.3944305">
  <ele>-45.019</ele>
  <time>2026-09-01T01:13:48Z</time>
  <course>188.36</course>
  <speed>0.0670820393249937</speed>
  <fix>3d</fix>
</trkpt>
<trkpt lat="33.8092482" lon="-118.3944305">
  <ele>-43.92</ele>
  <time>2026-09-01T01:13:48Z</time>
  <course>74.02</course>
  <speed>0.1</speed>
  <fix>3d</fix>
</trkpt>
<trkpt lat="33.8092484" lon="-118.3944304">
  <ele>-45.023</ele>
  <time>2026-09-01T01:13:48Z</time>
  <course>188.17</course>
  <speed>0.0670820393249937</speed>
  <fix>3d</fix>
</trkpt>
<trkpt lat="33.8092482" lon="-118.3944302">
  <ele>-43.93</ele>
  <time>2026-09-01T01:13:48Z</time>
  <course>72.54</course>
  <speed>0.09</speed>
  <fix>3d</fix>
</trkpt>
<trkpt lat="33.8092484" lon="-118.3944303">
  <ele>-45.026</ele>
  <time>2026-09-01T01:13:48Z</time>
  <course>187.99</course>
  <speed>0.0670820393249937</speed>
  <fix>3d</fix>
</trkpt>
<trkpt lat="33.8092482" lon="-118.3944302">
  <ele>-43.93</ele>
  <time>2026-09-01T01:13:48Z</time>
  <course>72.54</course>
  <speed>0.09</speed>
  <fix>3d</fix>
</trkpt>
<trkpt lat="33.8092484" lon="-118.3944302">
  <ele>-45.028</ele>
  <time>2026-09-01T01:13:48Z</time>
  <course>187.83</course>
  <speed>0.05830951894845301</speed>
  <fix>3d</fix>
</trkpt>
<trkpt lat="33.8092483" lon="-118.3944301">
  <ele>-43.94</ele>
  <time>2026-09-01T01:13:48Z</time>
  <course>71.19</course>
  <speed>0.08</speed>
  <fix>3d</fix>
</trkpt>
<trkpt lat="33.8092485" lon="-118.3944301">
  <ele>-45.029</ele>
  <time>2026-09-01T01:13:48Z</time>
  <course>187.68</course>
  <speed>0.05830951894845301</speed>
  <fix>3d</fix>
</trkpt>
<trkpt lat="33.8092483" lon="-118.3944301">
  <ele>-43.94</ele>
  <time>2026-09-01T01:13:48Z</time>
  <course>71.19</course>
  <speed>0.08</speed>
  <fix>3d</fix>
</trkpt>
<trkpt lat="33.8092485" lon="-118.3944301">
  <ele>-45.029</ele>
  <time>2026-09-01T01:13:48Z</time>
  <course>187.54</course>
  <speed>0.05830951894845301</speed>
  <fix>3d</fix>
</trkpt>
<trkpt lat="33.8092483" lon="-118.3944299">
  <ele>-43.94</ele>
  <time>2026-09-01T01:13:48Z</time>
  <course>69.95</course>
  <speed>0.08</speed>
  <fix>3d</fix>
</trkpt>
<trkpt lat="33.8092485" lon="-118.39443">
  <ele>-45.029</ele>
  <time>2026-09-01T01:13:49Z</time>
  <course>187.4</course>
  <speed>0.05</speed>
  <fix>3d</fix>
</trkpt>
<trkpt lat="33.8092483" lon="-118.3944299">
  <ele>-43.94</ele>
  <time>2026-09-01T01:13:49Z</time>
  <course>69.95</course>
  <speed>0.08</speed>
  <fix>3d</fix>
</trkpt>
<trkpt lat="33.8092485" lon="-118.3944299">
  <ele>-45.028</ele>
  <time>2026-09-01T01:13:49Z</time>
  <course>187.28</course>
  <speed>0.05</speed>
  <fix>3d</fix>
</trkpt>
<trkpt lat="33.8092484" lon="-118.3944297">
  <ele>-43.95</ele>
  <time>2026-09-01T01:13:49Z</time>
  <course>68.81</course>
  <speed>0.07</speed>
  <fix>3d</fix>
</trkpt>
<trkpt lat="33.8092485" lon="-118.3944298">
  <ele>-45.027</ele>
  <time>2026-09-01T01:13:49Z</time>
  <course>187.16</course>
  <speed>0.05</speed>
  <fix>3d</fix>
</trkpt>
<trkpt lat="33.8092484" lon="-118.3944297">
  <ele>-43.95</ele>
  <time>2026-09-01T01:13:49Z</time>
  <course>68.81</course>
  <speed>0.07</speed>
  <fix>3d</fix>
</trkpt>
<trkpt lat="33.8092486" lon="-118.3944298">
  <ele>-45.025</ele>
  <time>2026-09-01T01:13:49Z</time>
  <course>187.05</course>
  <speed>0.05</speed>
  <fix>3d</fix>
</trkpt>
<trkpt lat="33.8092484" lon="-118.3944296">
  <ele>-43.95</ele>
  <time>2026-09-01T01:13:49Z</time>
  <course>67.76</course>
  <speed>0.07</speed>
  <fix>3d</fix>
</trkpt>
<trkpt lat="33.8092486" lon="-118.3944297">
  <ele>-45.023</ele>
  <time>2026-09-01T01:13:49Z</time>
  <course>186.95</course>
  <speed>0.05</speed>
  <fix>3d</fix>
</trkpt>
<trkpt lat="33.8092484" lon="-118.3944296">
  <ele>-43.95</ele>
  <time>2026-09-01T01:13:49Z</time>
  <course>67.76</course>
  <speed>0.07</speed>
  <fix>3d</fix>
</trkpt>
<trkpt lat="33.8092486" lon="-118.3944296">
  <ele>-45.021</ele>
  <time>2026-09-01T01:13:49Z</time>
  <course>186.85</course>
  <speed>0.04242640687119285</speed>
  <fix>3d</fix>
</trkpt>
<trkpt lat="33.8092484" lon="-118.3944295">
  <ele>-43.94</ele>
  <time>2026-09-01T01:13:49Z</time>
  <course>66.78</course>
  <speed>0.06</speed>
  <fix>3d</fix>
</trkpt>
<trkpt lat="33.8092486" lon="-118.3944296">
  <ele>-45.016</ele>
  <time>2026-09-01T01:13:49Z</time>
  <course>186.75</course>
  <speed>0.04242640687119285</speed>
  <fix>3d</fix>
</trkpt>
<trkpt lat="33.8092484" lon="-118.3944295">
  <ele>-43.94</ele>
  <time>2026-09-01T01:13:49Z</time>
  <course>66.78</course>
  <speed>0.06</speed>
  <fix>3d</fix>
</trkpt>
<trkpt lat="33.8092486" lon="-118.3944295">
  <ele>-45.011</ele>
  <time>2026-09-01T01:13:49Z</time>
  <course>186.66</course>
  <speed>0.04242640687119285</speed>
  <fix>3d</fix>
</trkpt>
<trkpt lat="33.8092485" lon="-118.3944294">
  <ele>-43.94</ele>
  <time>2026-09-01T01:13:49Z</time>
  <course>65.88</course>
  <speed>0.06</speed>
  <fix>3d</fix>
</trkpt>
<trkpt lat="33.8092486" lon="-118.3944295">
  <ele>-45.007</ele>
  <time>2026-09-01T01:13:49Z</time>
  <course>186.57</course>
  <speed>0.04242640687119285</speed>
  <fix>3d</fix>
</trkpt>
<trkpt lat="33.8092485" lon="-118.3944294">
  <ele>-43.94</ele>
  <time>2026-09-01T01:13:49Z</time>
  <course>65.88</course>
  <speed>0.06</speed>
  <fix>3d</fix>
</trkpt>
<trkpt lat="33.8092487" lon="-118.3944294">
  <ele>-45.002</ele>
  <time>2026-09-01T01:13:49Z</time>
  <course>186.49</course>
  <speed>0.04242640687119285</speed>
  <fix>3d</fix>
</trkpt>
<trkpt lat="33.8092485" lon="-118.3944292">
  <ele>-43.93</ele>
  <time>2026-09-01T01:13:49Z</time>
  <course>65.05</course>
  <speed>0.05</speed>
  <fix>3d</fix>
</trkpt>
<trkpt lat="33.8092487" lon="-118.3944293">
  <ele>-44.997</ele>
  <time>2026-09-01T01:13:49Z</time>
  <course>186.41</course>
  <speed>0.04242640687119285</speed>
  <fix>3d</fix>
</trkpt>
<trkpt lat="33.8092485" lon="-118.3944292">
  <ele>-43.93</ele>
  <time>2026-09-01T01:13:49Z</time>
  <course>65.05</course>
  <speed>0.05</speed>
  <fix>3d</fix>
</trkpt>
<trkpt lat="33.4368002" lon="-117.0859339">
  <ele>-0.11</ele>
  <time>2026-09-01T01:13:49Z</time>
  <course>0.0</course>
  <speed>0.0</speed>
  <fix>3d</fix>
</trkpt>
<trkpt lat="33.4368002" lon="-117.0859339">
  <ele>-0.11</ele>
  <time>2026-09-01T01:13:49Z</time>
  <course>0.0</course>
  <speed>0.0</speed>
  <fix>3d</fix>
</trkpt>
<trkpt lat="33.810313" lon="-118.393867">
  <ele>0.0</ele>
  <time>2026-09-01T01:13:49Z</time>
  <course>173.5</course>
  <speed>0.0</speed>
  <fix>3d</fix>
</trkpt>
<trkpt lat="33.810313" lon="-118.393867">
  <ele>-0.11</ele>
  <time>2026-09-01T01:13:49Z</time>
  <course>0.0</course>
  <speed>0.0</speed>
  <fix>3d</fix>
</trkpt>
<trkpt lat="33.4368002" lon="-117.0859339">
  <ele>-0.11</ele>
  <time>2026-09-01T01:13:50Z</time>
  <course>0.0</course>
  <speed>0.0</speed>
  <fix>3d</fix>
</trkpt>
<trkpt lat="33.4368002" lon="-117.0859339">
  <ele>-0.11</ele>
  <time>2026-09-01T01:13:50Z</time>
  <course>0.0</course>
  <speed>0.0</speed>
  <fix>3d</fix>
</trkpt>
<trkpt lat="33.810313" lon="-118.393867">
  <ele>0.0</ele>
  <time>2026-09-01T01:13:50Z</time>
  <course>173.5</course>
  <speed>0.0</speed>
  <fix>3d</fix>
</trkpt>
<trkpt lat="33.810313" lon="-118.393867">
  <ele>-0.11</ele>
  <time>2026-09-01T01:13:50Z</time>
  <course>0.0</course>
  <speed>0.0</speed>
  <fix>3d</fix>
</trkpt>
<trkpt lat="33.810313" lon="-118.393867">
  <ele>0.0</ele>
  <time>2026-09-01T01:13:50Z</time>
  <course>173.64</course>
  <speed>0.0</speed>
  <fix>3d</fix>
</trkpt>
<trkpt lat="33.810313" lon="-118.393867">
  <ele>-0.11</ele>
  <time>2026-09-01T01:13:50Z</time>
  <course>0.0</course>
  <speed>0.0</speed>
  <fix>3d</fix>
</trkpt>
<trkpt lat="33.810313" lon="-118.393867">
  <ele>0.0</ele>
  <time>2026-09-01T01:13:50Z</time>
  <course>174.03</course>
  <speed>0.0</speed>
  <fix>3d</fix>
</trkpt>
<trkpt lat="33.810313" lon="-118.393867">
  <ele>-0.11</ele>
  <time>2026-09-01T01:13:50Z</time>
  <course>0.0</course>
  <speed>0.0</speed>
  <fix>3d</fix>
</trkpt>
<trkpt lat="33.810313" lon="-118.393867">
  <ele>0.0</ele>
  <time>2026-09-01T01:13:50Z</time>
  <course>174.57</course>
  <speed>0.0</speed>
  <fix>3d</fix>
</trkpt>
<trkpt lat="33.810313" lon="-118.393867">
  <ele>-0.11</ele>
  <time>2026-09-01T01:13:50Z</time>
  <course>0.0</course>
  <speed>0.0</speed>
  <fix>3d</fix>
</trkpt>
<trkpt lat="33.810313" lon="-118.393867">
  <ele>0.0</ele>
  <time>2026-09-01T01:13:50Z</time>
  <course>175.13</course>
  <speed>0.0</speed>
  <fix>3d</fix>
</trkpt>
<trkpt lat="33.810313" lon="-118.393867">
  <ele>-0.12</ele>
  <time>2026-09-01T01:13:50Z</time>
  <course>0.0</course>
  <speed>0.0</speed>
  <fix>3d</fix>
</trkpt>
<trkpt lat="33.810313" lon="-118.393867">
  <ele>0.0</ele>
  <time>2026-09-01T01:13:50Z</time>
  <course>175.67</course>
  <speed>0.0</speed>
  <fix>3d</fix>
</trkpt>
<trkpt lat="33.810313" lon="-118.393867">
  <ele>-0.12</ele>
  <time>2026-09-01T01:13:50Z</time>
  <course>0.0</course>
  <speed>0.0</speed>
  <fix>3d</fix>
</trkpt>
<trkpt lat="33.810313" lon="-118.393867">
  <ele>0.0</ele>
  <time>2026-09-01T01:13:50Z</time>
  <course>176.17</course>
  <speed>0.0</speed>
  <fix>3d</fix>
</trkpt>
<trkpt lat="33.810313" lon="-118.393867">
  <ele>-0.13</ele>
  <time>2026-09-01T01:13:50Z</time>
  <course>0.0</course>
  <speed>0.0</speed>
  <fix>3d</fix>
</trkpt>
<trkpt lat="33.810313" lon="-118.393867">
  <ele>0.0</ele>
  <time>2026-09-01T01:13:50Z</time>
  <course>176.65</course>
  <speed>0.0</speed>
  <fix>3d</fix>
</trkpt>
<trkpt lat="33.810313" lon="-118.393867">
  <ele>-0.13</ele>
  <time>2026-09-01T01:13:50Z</time>
  <course>0.0</course>
  <speed>0.0</speed>
  <fix>3d</fix>
</trkpt>
<trkpt lat="33.810313" lon="-118.393867">
  <ele>0.0</ele>
  <time>2026-09-01T01:13:50Z</time>
  <course>177.12</course>
  <speed>0.0</speed>
  <fix>3d</fix>
</trkpt>
<trkpt lat="33.810313" lon="-118.393867">
  <ele>-0.13</ele>
  <time>2026-09-01T01:13:50Z</time>
  <course>0.0</course>
  <speed>0.0</speed>
  <fix>3d</fix>
</trkpt>
<trkpt lat="33.810313" lon="-118.393867">
  <ele>0.0</ele>
  <time>2026-09-01T01:13:50Z</time>
  <course>177.57</course>
  <speed>0.0</speed>
  <fix>3d</fix>
</trkpt>
<trkpt lat="33.810313" lon="-118.393867">
  <ele>-0.13</ele>
  <time>2026-09-01T01:13:50Z</time>
  <course>0.0</course>
  <speed>0.0</speed>
  <fix>3d</fix>
</trkpt>
<trkpt lat="33.810313" lon="-118.393867">
  <ele>0.0</ele>
  <time>2026-09-01T01:13:50Z</time>
  <course>178.02</course>
  <speed>0.0</speed>
  <fix>3d</fix>
</trkpt>
<trkpt lat="33.810313" lon="-118.393867">
  <ele>-0.14</ele>
  <time>2026-09-01T01:13:50Z</time>
  <course>0.0</course>
  <speed>0.0</speed>
  <fix>3d</fix>
</trkpt>
<trkpt lat="33.810313" lon="-118.393867">
  <ele>0.0</ele>
  <time>2026-09-01T01:13:50Z</time>
  <course>178.45</course>
  <speed>0.0</speed>
  <fix>3d</fix>
</trkpt>
<trkpt lat="33.810313" lon="-118.393867">
  <ele>-0.14</ele>
  <time>2026-09-01T01:13:50Z</time>
  <course>0.0</course>
  <speed>0.0</speed>
  <fix>3d</fix>
</trkpt>
<trkpt lat="33.810313" lon="-118.393867">
  <ele>0.0</ele>
  <time>2026-09-01T01:13:50Z</time>
  <course>178.87</course>
  <speed>0.0</speed>
  <fix>3d</fix>
</trkpt>
<trkpt lat="33.810313" lon="-118.393867">
  <ele>-0.14</ele>
  <time>2026-09-01T01:13:50Z</time>
  <course>0.0</course>
  <speed>0.0</speed>
  <fix>3d</fix>
</trkpt>
<trkpt lat="33.810313" lon="-118.393867">
  <ele>0.0</ele>
  <time>2026-09-01T01:13:50Z</time>
  <course>179.27</course>
  <speed>0.0</speed>
  <fix>3d</fix>
</trkpt>
<trkpt lat="33.810313" lon="-118.393867">
  <ele>-0.14</ele>
  <time>2026-09-01T01:13:50Z</time>
  <course>0.0</course>
  <speed>0.0</speed>
  <fix>3d</fix>
</trkpt>
<trkpt lat="33.810313" lon="-118.393867">
  <ele>0.0</ele>
  <time>2026-09-01T01:13:50Z</time>
  <course>179.66</course>
  <speed>0.0</speed>
  <fix>3d</fix>
</trkpt>
<trkpt lat="33.810313" lon="-118.393867">
  <ele>-0.14</ele>
  <time>2026-09-01T01:13:50Z</time>
  <course>0.0</course>
  <speed>0.0</speed>
  <fix>3d</fix>
</trkpt>
<trkpt lat="33.810313" lon="-118.393867">
  <ele>0.0</ele>
  <time>2026-09-01T01:13:50Z</time>
  <course>180.05</course>
  <speed>0.0</speed>
  <fix>3d</fix>
</trkpt>
<trkpt lat="33.810313" lon="-118.393867">
  <ele>-0.14</ele>
  <time>2026-09-01T01:13:50Z</time>
  <course>0.0</course>
  <speed>0.0</speed>
  <fix>3d</fix>
</trkpt>
<trkpt lat="33.810313" lon="-118.393867">
  <ele>0.0</ele>
  <time>2026-09-01T01:13:50Z</time>
  <course>180.41</course>
  <speed>0.0</speed>
  <fix>3d</fix>
</trkpt>
<trkpt lat="33.810313" lon="-118.393867">
  <ele>-0.14</ele>
  <time>2026-09-01T01:13:50Z</time>
  <course>0.0</course>
  <speed>0.0</speed>
  <fix>3d</fix>
</trkpt>
<trkpt lat="33.810313" lon="-118.393867">
  <ele>0.0</ele>
  <time>2026-09-01T01:13:50Z</time>
  <course>180.76</course>
  <speed>0.0</speed>
  <fix>3d</fix>
</trkpt>
<trkpt lat="33.810313" lon="-118.393867">
  <ele>-0.14</ele>
  <time>2026-09-01T01:13:50Z</time>
  <course>0.0</course>
  <speed>0.0</speed>
  <fix>3d</fix>
</trkpt>
<trkpt lat="33.810313" lon="-118.393867">
  <ele>0.0</ele>
  <time>2026-09-01T01:13:50Z</time>
  <course>181.1</course>
  <speed>0.0</speed>
  <fix>3d</fix>
</trkpt>
<trkpt lat="33.810313" lon="-118.393867">
  <ele>-0.13</ele>
  <time>2026-09-01T01:13:50Z</time>
  <course>0.0</course>
  <speed>0.0</speed>
  <fix>3d</fix>
</trkpt>
<trkpt lat="33.810313" lon="-118.393867">
  <ele>0.0</ele>
  <time>2026-09-01T01:13:50Z</time>
  <course>181.43</course>
  <speed>0.0</speed>
  <fix>3d</fix>
</trkpt>
<trkpt lat="33.810313" lon="-118.393867">
  <ele>-0.13</ele>
  <time>2026-09-01T01:13:50Z</time>
  <course>0.0</course>
  <speed>0.0</speed>
  <fix>3d</fix>
</trkpt>
<trkpt lat="33.810313" lon="-118.393867">
  <ele>0.0</ele>
  <time>2026-09-01T01:13:50Z</time>
  <course>181.75</course>
  <speed>0.0</speed>
  <fix>3d</fix>
</trkpt>
<trkpt lat="33.810313" lon="-118.393867">
  <ele>-0.12</ele>
  <time>2026-09-01T01:13:50Z</time>
  <course>0.0</course>
  <speed>0.0</speed>
  <fix>3d</fix>
</trkpt>
<trkpt lat="33.810313" lon="-118.393867">
  <ele>0.0</ele>
  <time>2026-09-01T01:13:50Z</time>
  <course>182.05</course>
  <speed>0.0</speed>
  <fix>3d</fix>
</trkpt>
<trkpt lat="33.810313" lon="-118.393867">
  <ele>-0.12</ele>
  <time>2026-09-01T01:13:50Z</time>
  <course>0.0</course>
  <speed>0.0</speed>
  <fix>3d</fix>
</trkpt>
<trkpt lat="33.810313" lon="-118.393867">
  <ele>0.0</ele>
  <time>2026-09-01T01:13:50Z</time>
  <course>182.35</course>
  <speed>0.0</speed>
  <fix>3d</fix>
</trkpt>
<trkpt lat="33.810313" lon="-118.393867">
  <ele>-0.12</ele>
  <time>2026-09-01T01:13:50Z</time>
  <course>0.0</course>
  <speed>0.0</speed>
  <fix>3d</fix>
</trkpt>
<trkpt lat="33.810313" lon="-118.393867">
  <ele>0.0</ele>
  <time>2026-09-01T01:13:50Z</time>
  <course>182.63</course>
  <speed>0.0</speed>
  <fix>3d</fix>
</trkpt>
<trkpt lat="33.810313" lon="-118.393867">
  <ele>-0.12</ele>
  <time>2026-09-01T01:13:50Z</time>
  <course>0.0</course>
  <speed>0.0</speed>
  <fix>3d</fix>
</trkpt>
<trkpt lat="33.810313" lon="-118.393867">
  <ele>0.0</ele>
  <time>2026-09-01T01:13:50Z</time>
  <course>182.9</course>
  <speed>0.0</speed>
  <fix>3d</fix>
</trkpt>
<trkpt lat="33.810313" lon="-118.393867">
  <ele>-0.11</ele>
  <time>2026-09-01T01:13:50Z</time>
  <course>0.0</course>
  <speed>0.0</speed>
  <fix>3d</fix>
</trkpt>
<trkpt lat="33.810313" lon="-118.393867">
  <ele>0.0</ele>
  <time>2026-09-01T01:13:50Z</time>
  <course>183.16</course>
  <speed>0.0</speed>
  <fix>3d</fix>
</trkpt>
<trkpt lat="33.810313" lon="-118.393867">
  <ele>-0.11</ele>
  <time>2026-09-01T01:13:50Z</time>
  <course>0.0</course>
  <speed>0.0</speed>
  <fix>3d</fix>
</trkpt>
<trkpt lat="33.810313" lon="-118.393867">
  <ele>0.0</ele>
  <time>2026-09-01T01:13:50Z</time>
  <course>183.41</course>
  <speed>0.0</speed>
  <fix>3d</fix>
</trkpt>
<trkpt lat="33.810313" lon="-118.393867">
  <ele>-0.11</ele>
  <time>2026-09-01T01:13:50Z</time>
  <course>0.0</course>
  <speed>0.0</speed>
  <fix>3d</fix>
</trkpt>
<trkpt lat="33.810313" lon="-118.393867">
  <ele>0.0</ele>
  <time>2026-09-01T01:13:50Z</time>
  <course>183.65</course>
  <speed>0.0</speed>
  <fix>3d</fix>
</trkpt>
<trkpt lat="33.810313" lon="-118.393867">
  <ele>-0.11</ele>
  <time>2026-09-01T01:13:50Z</time>
  <course>0.0</course>
  <speed>0.0</speed>
  <fix>3d</fix>
</trkpt>
<trkpt lat="33.810313" lon="-118.393867">
  <ele>0.0</ele>
  <time>2026-09-01T01:13:50Z</time>
  <course>183.88</course>
  <speed>0.0</speed>
  <fix>3d</fix>
</trkpt>
<trkpt lat="33.810313" lon="-118.393867">
  <ele>-0.12</ele>
  <time>2026-09-01T01:13:50Z</time>
  <course>0.0</course>
  <speed>0.0</speed>
  <fix>3d</fix>
</trkpt>
<trkpt lat="33.810313" lon="-118.393867">
  <ele>0.0</ele>
  <time>2026-09-01T01:13:50Z</time>
  <course>184.11</course>
  <speed>0.0</speed>
  <fix>3d</fix>
</trkpt>
<trkpt lat="33.810313" lon="-118.393867">
  <ele>-0.12</ele>
  <time>2026-09-01T01:13:50Z</time>
  <course>0.0</course>
  <speed>0.0</speed>
  <fix>3d</fix>
</trkpt>
<trkpt lat="33.810313" lon="-118.393867">
  <ele>0.0</ele>
  <time>2026-09-01T01:13:50Z</time>
  <course>184.32</course>
  <speed>0.0</speed>
  <fix>3d</fix>
</trkpt>
<trkpt lat="33.810313" lon="-118.393867">
  <ele>-0.13</ele>
  <time>2026-09-01T01:13:50Z</time>
  <course>0.0</course>
  <speed>0.0</speed>
  <fix>3d</fix>
</trkpt>
<trkpt lat="33.810313" lon="-118.393867">
  <ele>0.0</ele>
  <time>2026-09-01T01:13:50Z</time>
  <course>184.52</course>
  <speed>0.0</speed>
  <fix>3d</fix>
</trkpt>
<trkpt lat="33.810313" lon="-118.393867">
  <ele>-0.13</ele>
  <time>2026-09-01T01:13:50Z</time>
  <course>0.0</course>
  <speed>0.0</speed>
  <fix>3d</fix>
</trkpt>
<trkpt lat="33.810313" lon="-118.393867">
  <ele>0.0</ele>
  <time>2026-09-01T01:13:50Z</time>
  <course>184.72</course>
  <speed>0.0</speed>
  <fix>3d</fix>
</trkpt>
<trkpt lat="33.810313" lon="-118.393867">
  <ele>-0.13</ele>
  <time>2026-09-01T01:13:50Z</time>
  <course>0.0</course>
  <speed>0.0</speed>
  <fix>3d</fix>
</trkpt>
<trkpt lat="33.810313" lon="-118.393867">
  <ele>0.0</ele>
  <time>2026-09-01T01:13:50Z</time>
  <course>184.91</course>
  <speed>0.0</speed>
  <fix>3d</fix>
</trkpt>
<trkpt lat="33.810313" lon="-118.393867">
  <ele>-0.13</ele>
  <time>2026-09-01T01:13:50Z</time>
  <course>0.0</course>
  <speed>0.0</speed>
  <fix>3d</fix>
</trkpt>
<trkpt lat="33.810313" lon="-118.393867">
  <ele>0.0</ele>
  <time>2026-09-01T01:13:50Z</time>
  <course>185.09</course>
  <speed>0.0</speed>
  <fix>3d</fix>
</trkpt>
<trkpt lat="33.810313" lon="-118.393867">
  <ele>-0.14</ele>
  <time>2026-09-01T01:13:50Z</time>
  <course>0.0</course>
  <speed>0.0</speed>
  <fix>3d</fix>
</trkpt>
<trkpt lat="33.810313" lon="-118.393867">
  <ele>0.0</ele>
  <time>2026-09-01T01:13:50Z</time>
  <course>185.26</course>
  <speed>0.0</speed>
  <fix>3d</fix>
</trkpt>
<trkpt lat="33.810313" lon="-118.393867">
  <ele>-0.14</ele>
  <time>2026-09-01T01:13:50Z</time>
  <course>0.0</course>
  <speed>0.0</speed>
  <fix>3d</fix>
</trkpt>
<trkpt lat="33.810313" lon="-118.393867">
  <ele>0.0</ele>
  <time>2026-09-01T01:13:50Z</time>
  <course>185.42</course>
  <speed>0.0</speed>
  <fix>3d</fix>
</trkpt>
<trkpt lat="33.810313" lon="-118.393867">
  <ele>-0.13</ele>
  <time>2026-09-01T01:13:50Z</time>
  <course>0.0</course>
  <speed>0.0</speed>
  <fix>3d</fix>
</trkpt>
<trkpt lat="33.810313" lon="-118.393867">
  <ele>0.0</ele>
  <time>2026-09-01T01:13:50Z</time>
  <course>185.58</course>
  <speed>0.0</speed>
  <fix>3d</fix>
</trkpt>
<trkpt lat="33.810313" lon="-118.393867">
  <ele>-0.13</ele>
  <time>2026-09-01T01:13:50Z</time>
  <course>0.0</course>
  <speed>0.0</speed>
  <fix>3d</fix>
</trkpt>
<trkpt lat="33.810313" lon="-118.393867">
  <ele>0.0</ele>
  <time>2026-09-01T01:13:50Z</time>
  <course>185.73</course>
  <speed>0.0</speed>
  <fix>3d</fix>
</trkpt>
<trkpt lat="33.810313" lon="-118.393867">
  <ele>-0.13</ele>
  <time>2026-09-01T01:13:50Z</time>
  <course>0.0</course>
  <speed>0.0</speed>
  <fix>3d</fix>
</trkpt>
<trkpt lat="33.810313" lon="-118.393867">
  <ele>0.0</ele>
  <time>2026-09-01T01:13:50Z</time>
  <course>185.87</course>
  <speed>0.0</speed>
  <fix>3d</fix>
</trkpt>
<trkpt lat="33.810313" lon="-118.393867">
  <ele>-0.13</ele>
  <time>2026-09-01T01:13:50Z</time>
  <course>0.0</course>
  <speed>0.0</speed>
  <fix>3d</fix>
</trkpt>
<trkpt lat="33.810313" lon="-118.393867">
  <ele>0.0</ele>
  <time>2026-09-01T01:13:50Z</time>
  <course>186.01</course>
  <speed>0.0</speed>
  <fix>3d</fix>
</trkpt>
<trkpt lat="33.810313" lon="-118.393867">
  <ele>-0.12</ele>
  <time>2026-09-01T01:13:50Z</time>
  <course>0.0</course>
  <speed>0.0</speed>
  <fix>3d</fix>
</trkpt>
<trkpt lat="33.810313" lon="-118.393867">
  <ele>0.0</ele>
  <time>2026-09-01T01:13:50Z</time>
  <course>186.14</course>
  <speed>0.0</speed>
  <fix>3d</fix>
</trkpt>
<trkpt lat="33.810313" lon="-118.393867">
  <ele>-0.12</ele>
  <time>2026-09-01T01:13:50Z</time>
  <course>0.0</course>
  <speed>0.0</speed>
  <fix>3d</fix>
</trkpt>
<trkpt lat="33.810313" lon="-118.393867">
  <ele>0.0</ele>
  <time>2026-09-01T01:13:50Z</time>
  <course>186.27</course>
  <speed>0.0</speed>
  <fix>3d</fix>
</trkpt>
<trkpt lat="33.810313" lon="-118.393867">
  <ele>-0.12</ele>
  <time>2026-09-01T01:13:50Z</time>
  <course>0.0</course>
  <speed>0.0</speed>
  <fix>3d</fix>
</trkpt>
<trkpt lat="33.810313" lon="-118.393867">
  <ele>0.0</ele>
  <time>2026-09-01T01:13:50Z</time>
  <course>186.39</course>
  <speed>0.0</speed>
  <fix>3d</fix>
</trkpt>
<trkpt lat="33.810313" lon="-118.393867">
  <ele>-0.12</ele>
  <time>2026-09-01T01:13:50Z</time>
  <course>0.0</course>
  <speed>0.0</speed>
  <fix>3d</fix>
</trkpt>
<trkpt lat="33.810313" lon="-118.393867">
  <ele>0.0</ele>
  <time>2026-09-01T01:13:50Z</time>
  <course>186.5</course>
  <speed>0.0</speed>
  <fix>3d</fix>
</trkpt>
<trkpt lat="33.810313" lon="-118.393867">
  <ele>-0.12</ele>
  <time>2026-09-01T01:13:50Z</time>
  <course>0.0</course>
  <speed>0.0</speed>
  <fix>3d</fix>
</trkpt>
<trkpt lat="33.810313" lon="-118.393867">
  <ele>0.0</ele>
  <time>2026-09-01T01:13:50Z</time>
  <course>186.61</course>
  <speed>0.0</speed>
  <fix>3d</fix>
</trkpt>
<trkpt lat="33.810313" lon="-118.393867">
  <ele>-0.12</ele>
  <time>2026-09-01T01:13:50Z</time>
  <course>0.0</course>
  <speed>0.0</speed>
  <fix>3d</fix>
</trkpt>
<trkpt lat="33.810313" lon="-118.393867">
  <ele>0.0</ele>
  <time>2026-09-01T01:13:50Z</time>
  <course>186.72</course>
  <speed>0.0</speed>
  <fix>3d</fix>
</trkpt>
<trkpt lat="33.810313" lon="-118.393867">
  <ele>-0.12</ele>
  <time>2026-09-01T01:13:50Z</time>
  <course>0.0</course>
  <speed>0.0</speed>
  <fix>3d</fix>
</trkpt>
<trkpt lat="33.810313" lon="-118.393867">
  <ele>0.0</ele>
  <time>2026-09-01T01:13:50Z</time>
  <course>186.82</course>
  <speed>0.0</speed>
  <fix>3d</fix>
</trkpt>
<trkpt lat="33.810313" lon="-118.393867">
  <ele>-0.12</ele>
  <time>2026-09-01T01:13:50Z</time>
  <course>0.0</course>
  <speed>0.0</speed>
  <fix>3d</fix>
</trkpt>
<trkpt lat="33.810313" lon="-118.393867">
  <ele>0.0</ele>
  <time>2026-09-01T01:13:50Z</time>
  <course>186.91</course>
  <speed>0.0</speed>
  <fix>3d</fix>
</trkpt>
<trkpt lat="33.810313" lon="-118.393867">
  <ele>-0.12</ele>
  <time>2026-09-01T01:13:50Z</time>
  <course>0.0</course>
  <speed>0.0</speed>
  <fix>3d</fix>
</trkpt>
<trkpt lat="33.810313" lon="-118.393867">
  <ele>0.0</ele>
  <time>2026-09-01T01:13:50Z</time>
  <course>187.0</course>
  <speed>0.0</speed>
  <fix>3d</fix>
</trkpt>
<trkpt lat="33.810313" lon="-118.393867">
  <ele>-0.12</ele>
  <time>2026-09-01T01:13:50Z</time>
  <course>0.0</course>
  <speed>0.0</speed>
  <fix>3d</fix>
</trkpt>
<trkpt lat="33.810313" lon="-118.393867">
  <ele>0.0</ele>
  <time>2026-09-01T01:13:50Z</time>
  <course>187.09</course>
  <speed>0.0</speed>
  <fix>3d</fix>
</trkpt>
<trkpt lat="33.810313" lon="-118.393867">
  <ele>-0.13</ele>
  <time>2026-09-01T01:13:50Z</time>
  <course>0.0</course>
  <speed>0.0</speed>
  <fix>3d</fix>
</trkpt>
<trkpt lat="33.810313" lon="-118.393867">
  <ele>0.0</ele>
  <time>2026-09-01T01:13:50Z</time>
  <course>187.17</course>
  <speed>0.0</speed>
  <fix>3d</fix>
</trkpt>
<trkpt lat="33.810313" lon="-118.393867">
  <ele>-0.13</ele>
  <time>2026-09-01T01:13:50Z</time>
  <course>0.0</course>
  <speed>0.0</speed>
  <fix>3d</fix>
</trkpt>
<trkpt lat="33.810313" lon="-118.393867">
  <ele>0.0</ele>
  <time>2026-09-01T01:13:50Z</time>
  <course>187.25</course>
  <speed>0.0</speed>
  <fix>3d</fix>
</trkpt>
<trkpt lat="33.810313" lon="-118.393867">
  <ele>-0.13</ele>
  <time>2026-09-01T01:13:50Z</time>
  <course>0.0</course>
  <speed>0.0</speed>
  <fix>3d</fix>
</trkpt>
<trkpt lat="33.810313" lon="-118.393867">
  <ele>0.0</ele>
  <time>2026-09-01T01:13:50Z</time>
  <course>187.33</course>
  <speed>0.0</speed>
  <fix>3d</fix>
</trkpt>
<trkpt lat="33.810313" lon="-118.393867">
  <ele>-0.13</ele>
  <time>2026-09-01T01:13:50Z</time>
  <course>0.0</course>
  <speed>0.0</speed>
  <fix>3d</fix>
</trkpt>
<trkpt lat="33.810313" lon="-118.393867">
  <ele>0.0</ele>
  <time>2026-09-01T01:13:50Z</time>
  <course>187.4</course>
  <speed>0.0</speed>
  <fix>3d</fix>
</trkpt>
<trkpt lat="33.810313" lon="-118.393867">
  <ele>-0.13</ele>
  <time>2026-09-01T01:13:50Z</time>
  <course>0.0</course>
  <speed>0.0</speed>
  <fix>3d</fix>
</trkpt>
<trkpt lat="33.810313" lon="-118.393867">
  <ele>0.0</ele>
  <time>2026-09-01T01:13:50Z</time>
  <course>187.47</course>
  <speed>0.0</speed>
  <fix>3d</fix>
</trkpt>
<trkpt lat="33.810313" lon="-118.393867">
  <ele>-0.13</ele>
  <time>2026-09-01T01:13:50Z</time>
  <course>0.0</course>
  <speed>0.0</speed>
  <fix>3d</fix>
</trkpt>
<trkpt lat="33.810313" lon="-118.393867">
  <ele>0.0</ele>
  <time>2026-09-01T01:13:50Z</time>
  <course>187.53</course>
  <speed>0.0</speed>
  <fix>3d</fix>
</trkpt>
<trkpt lat="33.810313" lon="-118.393867">
  <ele>-0.13</ele>
  <time>2026-09-01T01:13:50Z</time>
  <course>0.0</course>
  <speed>0.0</speed>
  <fix>3d</fix>
</trkpt>
<trkpt lat="33.810313" lon="-118.393867">
  <ele>0.0</ele>
  <time>2026-09-01T01:13:50Z</time>
  <course>187.59</course>
  <speed>0.0</speed>
  <fix>3d</fix>
</trkpt>
<trkpt lat="33.810313" lon="-118.393867">
  <ele>-0.13</ele>
  <time>2026-09-01T01:13:50Z</time>
  <course>0.0</course>
  <speed>0.0</speed>
  <fix>3d</fix>
</trkpt>
<trkpt lat="33.810313" lon="-118.393867">
  <ele>0.0</ele>
  <time>2026-09-01T01:13:50Z</time>
  <course>187.65</course>
  <speed>0.0</speed>
  <fix>3d</fix>
</trkpt>
<trkpt lat="33.810313" lon="-118.393867">
  <ele>-0.12</ele>
  <time>2026-09-01T01:13:50Z</time>
  <course>0.0</course>
  <speed>0.0</speed>
  <fix>3d</fix>
</trkpt>
<trkpt lat="33.810313" lon="-118.393867">
  <ele>0.0</ele>
  <time>2026-09-01T01:13:50Z</time>
  <course>187.71</course>
  <speed>0.0</speed>
  <fix>3d</fix>
</trkpt>
<trkpt lat="33.810313" lon="-118.393867">
  <ele>-0.12</ele>
  <time>2026-09-01T01:13:50Z</time>
  <course>0.0</course>
  <speed>0.0</speed>
  <fix>3d</fix>
</trkpt>
<trkpt lat="33.810313" lon="-118.393867">
  <ele>0.0</ele>
  <time>2026-09-01T01:13:50Z</time>
  <course>187.76</course>
  <speed>0.0</speed>
  <fix>3d</fix>
</trkpt>
<trkpt lat="33.810313" lon="-118.393867">
  <ele>-0.12</ele>
  <time>2026-09-01T01:13:50Z</time>
  <course>0.0</course>
  <speed>0.0</speed>
  <fix>3d</fix>
</trkpt>
<trkpt lat="33.810313" lon="-118.393867">
  <ele>0.0</ele>
  <time>2026-09-01T01:13:50Z</time>
  <course>187.81</course>
  <speed>0.0</speed>
  <fix>3d</fix>
</trkpt>
<trkpt lat="33.810313" lon="-118.393867">
  <ele>-0.12</ele>
  <time>2026-09-01T01:13:50Z</time>
  <course>0.0</course>
  <speed>0.0</speed>
  <fix>3d</fix>
</trkpt>
<trkpt lat="33.810313" lon="-118.393867">
  <ele>0.0</ele>
  <time>2026-09-01T01:13:50Z</time>
  <course>187.86</course>
  <speed>0.0</speed>
  <fix>3d</fix>
</trkpt>
<trkpt lat="33.810313" lon="-118.393867">
  <ele>-0.12</ele>
  <time>2026-09-01T01:13:50Z</time>
  <course>0.0</course>
  <speed>0.0</speed>
  <fix>3d</fix>
</trkpt>
<trkpt lat="33.810313" lon="-118.393867">
  <ele>0.0</ele>
  <time>2026-09-01T01:13:50Z</time>
  <course>187.91</course>
  <speed>0.0</speed>
  <fix>3d</fix>
</trkpt>
<trkpt lat="33.810313" lon="-118.393867">
  <ele>-0.12</ele>
  <time>2026-09-01T01:13:50Z</time>
  <course>0.0</course>
  <speed>0.0</speed>
  <fix>3d</fix>
</trkpt>
<trkpt lat="33.810313" lon="-118.393867">
  <ele>0.0</ele>
  <time>2026-09-01T01:13:50Z</time>
  <course>187.95</course>
  <speed>0.0</speed>
  <fix>3d</fix>
</trkpt>
<trkpt lat="33.810313" lon="-118.393867">
  <ele>-0.12</ele>
  <time>2026-09-01T01:13:50Z</time>
  <course>0.0</course>
  <speed>0.0</speed>
  <fix>3d</fix>
</trkpt>
<trkpt lat="33.810313" lon="-118.393867">
  <ele>0.0</ele>
  <time>2026-09-01T01:13:50Z</time>
  <course>187.99</course>
  <speed>0.0</speed>
  <fix>3d</fix>
</trkpt>
<trkpt lat="33.810313" lon="-118.393867">
  <ele>-0.12</ele>
  <time>2026-09-01T01:13:50Z</time>
  <course>0.0</course>
  <speed>0.0</speed>
  <fix>3d</fix>
</trkpt>
<trkpt lat="33.810313" lon="-118.393867">
  <ele>0.0</ele>
  <time>2026-09-01T01:13:50Z</time>
  <course>188.03</course>
  <speed>0.0</speed>
  <fix>3d</fix>
</trkpt>
<trkpt lat="33.810313" lon="-118.393867">
  <ele>-0.12</ele>
  <time>2026-09-01T01:13:50Z</time>
  <course>0.0</course>
  <speed>0.0</speed>
  <fix>3d</fix>
</trkpt>
<trkpt lat="33.810313" lon="-118.393867">
  <ele>0.0</ele>
  <time>2026-09-01T01:13:50Z</time>
  <course>188.07</course>
  <speed>0.0</speed>
  <fix>3d</fix>
</trkpt>
<trkpt lat="33.810313" lon="-118.393867">
  <ele>-0.12</ele>
  <time>2026-09-01T01:13:50Z</time>
  <course>0.0</course>
  <speed>0.0</speed>
  <fix>3d</fix>
</trkpt>
<trkpt lat="33.810313" lon="-118.393867">
  <ele>0.0</ele>
  <time>2026-09-01T01:13:50Z</time>
  <course>188.1</course>
  <speed>0.0</speed>
  <fix>3d</fix>
</trkpt>
<trkpt lat="33.810313" lon="-118.393867">
  <ele>-0.13</ele>
  <time>2026-09-01T01:13:50Z</time>
  <course>0.0</course>
  <speed>0.0</speed>
  <fix>3d</fix>
</trkpt>
<trkpt lat="33.810313" lon="-118.393867">
  <ele>0.0</ele>
  <time>2026-09-01T01:13:50Z</time>
  <course>188.13</course>
  <speed>0.0</speed>
  <fix>3d</fix>
</trkpt>
<trkpt lat="33.810313" lon="-118.393867">
  <ele>-0.13</ele>
  <time>2026-09-01T01:13:50Z</time>
  <course>0.0</course>
  <speed>0.0</speed>
  <fix>3d</fix>
</trkpt>
<trkpt lat="33.810313" lon="-118.393867">
  <ele>0.0</ele>
  <time>2026-09-01T01:13:50Z</time>
  <course>188.17</course>
  <speed>0.0</speed>
  <fix>3d</fix>
</trkpt>
<trkpt lat="33.810313" lon="-118.393867">
  <ele>-0.13</ele>
  <time>2026-09-01T01:13:50Z</time>
  <course>0.0</course>
  <speed>0.0</speed>
  <fix>3d</fix>
</trkpt>
<trkpt lat="33.810313" lon="-118.393867">
  <ele>0.0</ele>
  <time>2026-09-01T01:13:50Z</time>
  <course>188.19</course>
  <speed>0.0</speed>
  <fix>3d</fix>
</trkpt>
<trkpt lat="33.810313" lon="-118.393867">
  <ele>-0.13</ele>
  <time>2026-09-01T01:13:50Z</time>
  <course>0.0</course>
  <speed>0.0</speed>
  <fix>3d</fix>
</trkpt>
<trkpt lat="33.810313" lon="-118.393867">
  <ele>0.0</ele>
  <time>2026-09-01T01:13:50Z</time>
  <course>188.22</course>
  <speed>0.0</speed>
  <fix>3d</fix>
</trkpt>
<trkpt lat="33.810313" lon="-118.393867">
  <ele>-0.13</ele>
  <time>2026-09-01T01:13:50Z</time>
  <course>0.0</course>
  <speed>0.0</speed>
  <fix>3d</fix>
</trkpt>
<trkpt lat="33.810313" lon="-118.393867">
  <ele>0.0</ele>
  <time>2026-09-01T01:13:50Z</time>
  <course>188.25</course>
  <speed>0.0</speed>
  <fix>3d</fix>
</trkpt>
<trkpt lat="33.810313" lon="-118.393867">
  <ele>-0.13</ele>
  <time>2026-09-01T01:13:50Z</time>
  <course>0.0</course>
  <speed>0.0</speed>
  <fix>3d</fix>
</trkpt>
<trkpt lat="33.810313" lon="-118.393867">
  <ele>0.0</ele>
  <time>2026-09-01T01:13:50Z</time>
  <course>188.27</course>
  <speed>0.0</speed>
  <fix>3d</fix>
</trkpt>
<trkpt lat="33.810313" lon="-118.393867">
  <ele>-0.12</ele>
  <time>2026-09-01T01:13:50Z</time>
  <course>0.0</course>
  <speed>0.0</speed>
  <fix>3d</fix>
</trkpt>
<trkpt lat="33.810313" lon="-118.393867">
  <ele>0.0</ele>
  <time>2026-09-01T01:13:50Z</time>
  <course>188.3</course>
  <speed>0.0</speed>
  <fix>3d</fix>
</trkpt>
<trkpt lat="33.810313" lon="-118.393867">
  <ele>-0.12</ele>
  <time>2026-09-01T01:13:50Z</time>
  <course>0.0</course>
  <speed>0.0</speed>
  <fix>3d</fix>
</trkpt>
<trkpt lat="33.810313" lon="-118.393867">
  <ele>0.0</ele>
  <time>2026-09-01T01:13:50Z</time>
  <course>188.32</course>
  <speed>0.0</speed>
  <fix>3d</fix>
</trkpt>
<trkpt lat="33.810313" lon="-118.393867">
  <ele>-0.12</ele>
  <time>2026-09-01T01:13:50Z</time>
  <course>0.0</course>
  <speed>0.0</speed>
  <fix>3d</fix>
</trkpt>
<trkpt lat="33.810313" lon="-118.393867">
  <ele>0.0</ele>
  <time>2026-09-01T01:13:50Z</time>
  <course>188.34</course>
  <speed>0.0</speed>
  <fix>3d</fix>
</trkpt>
<trkpt lat="33.810313" lon="-118.393867">
  <ele>-0.12</ele>
  <time>2026-09-01T01:13:50Z</time>
  <course>0.0</course>
  <speed>0.0</speed>
  <fix>3d</fix>
</trkpt>
<trkpt lat="33.810313" lon="-118.393867">
  <ele>0.0</ele>
  <time>2026-09-01T01:13:50Z</time>
  <course>188.36</course>
  <speed>0.0</speed>
  <fix>3d</fix>
</trkpt>
<trkpt lat="33.810313" lon="-118.393867">
  <ele>-0.12</ele>
  <time>2026-09-01T01:13:50Z</time>
  <course>0.0</course>
  <speed>0.0</speed>
  <fix>3d</fix>
</trkpt>
<trkpt lat="33.810313" lon="-118.393867">
  <ele>0.0</ele>
  <time>2026-09-01T01:13:50Z</time>
  <course>188.38</course>
  <speed>0.0</speed>
  <fix>3d</fix>
</trkpt>
<trkpt lat="33.810313" lon="-118.393867">
  <ele>-0.12</ele>
  <time>2026-09-01T01:13:50Z</time>
  <course>0.0</course>
  <speed>0.0</speed>
  <fix>3d</fix>
</trkpt>
<trkpt lat="33.810313" lon="-118.393867">
  <ele>0.0</ele>
  <time>2026-09-01T01:13:50Z</time>
  <course>188.39</course>
  <speed>0.0</speed>
  <fix>3d</fix>
</trkpt>
<trkpt lat="33.810313" lon="-118.393867">
  <ele>-0.12</ele>
  <time>2026-09-01T01:13:50Z</time>
  <course>0.0</course>
  <speed>0.0</speed>
  <fix>3d</fix>
</trkpt>
<trkpt lat="33.810313" lon="-118.393867">
  <ele>0.0</ele>
  <time>2026-09-01T01:13:50Z</time>
  <course>188.41</course>
  <speed>0.0</speed>
  <fix>3d</fix>
</trkpt>
<trkpt lat="33.810313" lon="-118.393867">
  <ele>-0.12</ele>
  <time>2026-09-01T01:13:50Z</time>
  <course>0.0</course>
  <speed>0.0</speed>
  <fix>3d</fix>
</trkpt>
<trkpt lat="33.810313" lon="-118.393867">
  <ele>0.0</ele>
  <time>2026-09-01T01:13:50Z</time>
  <course>188.43</course>
  <speed>0.0</speed>
  <fix>3d</fix>
</trkpt>
<trkpt lat="33.810313" lon="-118.393867">
  <ele>-0.12</ele>
  <time>2026-09-01T01:13:50Z</time>
  <course>0.0</course>
  <speed>0.0</speed>
  <fix>3d</fix>
</trkpt>
<trkpt lat="33.810313" lon="-118.393867">
  <ele>0.0</ele>
  <time>2026-09-01T01:13:50Z</time>
  <course>188.44</course>
  <speed>0.0</speed>
  <fix>3d</fix>
</trkpt>
<trkpt lat="33.810313" lon="-118.393867">
  <ele>-0.12</ele>
  <time>2026-09-01T01:13:50Z</time>
  <course>0.0</course>
  <speed>0.0</speed>
  <fix>3d</fix>
</trkpt>
<trkpt lat="33.810313" lon="-118.393867">
  <ele>0.0</ele>
  <time>2026-09-01T01:13:50Z</time>
  <course>188.45</course>
  <speed>0.0</speed>
  <fix>3d</fix>
</trkpt>
<trkpt lat="33.810313" lon="-118.393867">
  <ele>-0.13</ele>
  <time>2026-09-01T01:13:50Z</time>
  <course>0.0</course>
  <speed>0.0</speed>
  <fix>3d</fix>
</trkpt>
<trkpt lat="33.810313" lon="-118.393867">
  <ele>0.0</ele>
  <time>2026-09-01T01:13:50Z</time>
  <course>188.46</course>
  <speed>0.0</speed>
  <fix>3d</fix>
</trkpt>
<trkpt lat="33.810313" lon="-118.393867">
  <ele>-0.13</ele>
  <time>2026-09-01T01:13:50Z</time>
  <course>0.0</course>
  <speed>0.0</speed>
  <fix>3d</fix>
</trkpt>
<trkpt lat="33.810313" lon="-118.393867">
  <ele>0.0</ele>
  <time>2026-09-01T01:13:50Z</time>
  <course>188.48</course>
  <speed>0.0</speed>
  <fix>3d</fix>
</trkpt>
<trkpt lat="33.810313" lon="-118.393867">
  <ele>-0.13</ele>
  <time>2026-09-01T01:13:50Z</time>
  <course>0.0</course>
  <speed>0.0</speed>
  <fix>3d</fix>
</trkpt>
<trkpt lat="33.810313" lon="-118.393867">
  <ele>0.0</ele>
  <time>2026-09-01T01:13:50Z</time>
  <course>188.49</course>
  <speed>0.0</speed>
  <fix>3d</fix>
</trkpt>
<trkpt lat="33.810313" lon="-118.393867">
  <ele>-0.13</ele>
  <time>2026-09-01T01:13:50Z</time>
  <course>0.0</course>
  <speed>0.0</speed>
  <fix>3d</fix>
</trkpt>
<trkpt lat="33.810313" lon="-118.393867">
  <ele>0.0</ele>
  <time>2026-09-01T01:13:50Z</time>
  <course>188.49</course>
  <speed>0.0</speed>
  <fix>3d</fix>
</trkpt>
<trkpt lat="33.810313" lon="-118.393867">
  <ele>-0.13</ele>
  <time>2026-09-01T01:13:50Z</time>
  <course>0.0</course>
  <speed>0.0</speed>
  <fix>3d</fix>
</trkpt>
<trkpt lat="33.810313" lon="-118.393867">
  <ele>0.0</ele>
  <time>2026-09-01T01:13:50Z</time>
  <course>188.5</course>
  <speed>0.0</speed>
  <fix>3d</fix>
</trkpt>
<trkpt lat="33.810313" lon="-118.393867">
  <ele>-0.13</ele>
  <time>2026-09-01T01:13:50Z</time>
  <course>0.0</course>
  <speed>0.0</speed>
  <fix>3d</fix>
</trkpt>
<trkpt lat="33.810313" lon="-118.393867">
  <ele>0.0</ele>
  <time>2026-09-01T01:13:50Z</time>
  <course>188.51</course>
  <speed>0.0</speed>
  <fix>3d</fix>
</trkpt>
<trkpt lat="33.810313" lon="-118.393867">
  <ele>-0.12</ele>
  <time>2026-09-01T01:13:50Z</time>
  <course>0.0</course>
  <speed>0.0</speed>
  <fix>3d</fix>
</trkpt>
<trkpt lat="33.810313" lon="-118.393867">
  <ele>0.0</ele>
  <time>2026-09-01T01:13:50Z</time>
  <course>188.52</course>
  <speed>0.0</speed>
  <fix>3d</fix>
</trkpt>
<trkpt lat="33.810313" lon="-118.393867">
  <ele>-0.12</ele>
  <time>2026-09-01T01:13:50Z</time>
  <course>0.0</course>
  <speed>0.0</speed>
  <fix>3d</fix>
</trkpt>
<trkpt lat="33.810313" lon="-118.393867">
  <ele>0.0</ele>
  <time>2026-09-01T01:13:50Z</time>
  <course>188.53</course>
  <speed>0.0</speed>
  <fix>3d</fix>
</trkpt>
<trkpt lat="33.810313" lon="-118.393867">
  <ele>-0.12</ele>
  <time>2026-09-01T01:13:50Z</time>
  <course>0.0</course>
  <speed>0.0</speed>
  <fix>3d</fix>
</trkpt>
<trkpt lat="33.810313" lon="-118.393867">
  <ele>0.0</ele>
  <time>2026-09-01T01:13:50Z</time>
  <course>188.53</course>
  <speed>0.0</speed>
  <fix>3d</fix>
</trkpt>
<trkpt lat="33.810313" lon="-118.393867">
  <ele>-0.12</ele>
  <time>2026-09-01T01:13:50Z</time>
  <course>0.0</course>
  <speed>0.0</speed>
  <fix>3d</fix>
</trkpt>
<trkpt lat="33.810313" lon="-118.393867">
  <ele>0.0</ele>
  <time>2026-09-01T01:13:50Z</time>
  <course>188.54</course>
  <speed>0.0</speed>
  <fix>3d</fix>
</trkpt>
<trkpt lat="33.810313" lon="-118.393867">
  <ele>-0.12</ele>
  <time>2026-09-01T01:13:50Z</time>
  <course>0.0</course>
  <speed>0.0</speed>
  <fix>3d</fix>
</trkpt>
<trkpt lat="33.810313" lon="-118.393867">
  <ele>0.0</ele>
  <time>2026-09-01T01:13:50Z</time>
  <course>188.54</course>
  <speed>0.0</speed>
  <fix>3d</fix>
</trkpt>
<trkpt lat="33.810313" lon="-118.393867">
  <ele>-0.12</ele>
  <time>2026-09-01T01:13:50Z</time>
  <course>0.0</course>
  <speed>0.0</speed>
  <fix>3d</fix>
</trkpt>
<trkpt lat="33.810313" lon="-118.393867">
  <ele>0.0</ele>
  <time>2026-09-01T01:13:50Z</time>
  <course>188.54</course>
  <speed>0.0</speed>
  <fix>3d</fix>
</trkpt>
<trkpt lat="33.810313" lon="-118.393867">
  <ele>-0.12</ele>
  <time>2026-09-01T01:13:50Z</time>
  <course>0.0</course>
  <speed>0.0</speed>
  <fix>3d</fix>
</trkpt>
<trkpt lat="33.810313" lon="-118.393867">
  <ele>0.0</ele>
  <time>2026-09-01T01:13:50Z</time>
  <course>188.55</course>
  <speed>0.0</speed>
  <fix>3d</fix>
</trkpt>
<trkpt lat="33.810313" lon="-118.393867">
  <ele>-0.12</ele>
  <time>2026-09-01T01:13:50Z</time>
  <course>0.0</course>
  <speed>0.0</speed>
  <fix>3d</fix>
</trkpt>
<trkpt lat="33.810313" lon="-118.393867">
  <ele>0.0</ele>
  <time>2026-09-01T01:13:50Z</time>
  <course>188.55</course>
  <speed>0.0</speed>
  <fix>3d</fix>
</trkpt>
<trkpt lat="33.810313" lon="-118.393867">
  <ele>-0.12</ele>
  <time>2026-09-01T01:13:50Z</time>
  <course>0.0</course>
  <speed>0.0</speed>
  <fix>3d</fix>
</trkpt>
<trkpt lat="33.810313" lon="-118.393867">
  <ele>0.0</ele>
  <time>2026-09-01T01:13:50Z</time>
  <course>188.55</course>
  <speed>0.0</speed>
  <fix>3d</fix>
</trkpt>
<trkpt lat="33.810313" lon="-118.393867">
  <ele>-0.12</ele>
  <time>2026-09-01T01:13:50Z</time>
  <course>0.0</course>
  <speed>0.0</speed>
  <fix>3d</fix>
</trkpt>
<trkpt lat="33.810313" lon="-118.393867">
  <ele>-0.126</ele>
  <time>2026-09-01T01:13:50Z</time>
  <course>188.55</course>
  <speed>0.0</speed>
  <fix>3d</fix>
</trkpt>
<trkpt lat="33.810313" lon="-118.393867">
  <ele>-0.13</ele>
  <time>2026-09-01T01:13:50Z</time>
  <course>0.0</course>
  <speed>0.0</speed>
  <fix>3d</fix>
</trkpt>
<trkpt lat="33.810313" lon="-118.393867">
  <ele>-0.126</ele>
  <time>2026-09-01T01:13:50Z</time>
  <course>188.56</course>
  <speed>0.0</speed>
  <fix>3d</fix>
</trkpt>
<trkpt lat="33.810313" lon="-118.393867">
  <ele>-0.13</ele>
  <time>2026-09-01T01:13:50Z</time>
  <course>0.0</course>
  <speed>0.0</speed>
  <fix>3d</fix>
</trkpt>
<trkpt lat="33.810313" lon="-118.393867">
  <ele>-0.124</ele>
  <time>2026-09-01T01:13:50Z</time>
  <course>188.56</course>
  <speed>0.0</speed>
  <fix>3d</fix>
</trkpt>
<trkpt lat="33.810313" lon="-118.393867">
  <ele>-0.13</ele>
  <time>2026-09-01T01:13:50Z</time>
  <course>0.0</course>
  <speed>0.0</speed>
  <fix>3d</fix>
</trkpt>
<trkpt lat="33.810313" lon="-118.393867">
  <ele>-0.123</ele>
  <time>2026-09-01T01:13:50Z</time>
  <course>188.56</course>
  <speed>0.0</speed>
  <fix>3d</fix>
</trkpt>
<trkpt lat="33.810313" lon="-118.393867">
  <ele>-0.13</ele>
  <time>2026-09-01T01:13:50Z</time>
  <course>0.0</course>
  <speed>0.0</speed>
  <fix>3d</fix>
</trkpt>
<trkpt lat="33.810313" lon="-118.393867">
  <ele>-0.121</ele>
  <time>2026-09-01T01:13:50Z</time>
  <course>188.56</course>
  <speed>0.0</speed>
  <fix>3d</fix>
</trkpt>
<trkpt lat="33.810313" lon="-118.393867">
  <ele>-0.12</ele>
  <time>2026-09-01T01:13:50Z</time>
  <course>0.0</course>
  <speed>0.0</speed>
  <fix>3d</fix>
</trkpt>
<trkpt lat="33.810313" lon="-118.393867">
  <ele>-0.12</ele>
  <time>2026-09-01T01:13:50Z</time>
  <course>188.56</course>
  <speed>0.0</speed>
  <fix>3d</fix>
</trkpt>
<trkpt lat="33.810313" lon="-118.393867">
  <ele>-0.12</ele>
  <time>2026-09-01T01:13:50Z</time>
  <course>0.0</course>
  <speed>0.0</speed>
  <fix>3d</fix>
</trkpt>
<trkpt lat="33.810313" lon="-118.393867">
  <ele>-0.119</ele>
  <time>2026-09-01T01:13:50Z</time>
  <course>188.56</course>
  <speed>0.0</speed>
  <fix>3d</fix>
</trkpt>
<trkpt lat="33.810313" lon="-118.393867">
  <ele>-0.12</ele>
  <time>2026-09-01T01:13:50Z</time>
  <course>0.0</course>
  <speed>0.0</speed>
  <fix>3d</fix>
</trkpt>
<trkpt lat="33.810313" lon="-118.393867">
  <ele>-0.12</ele>
  <time>2026-09-01T01:13:50Z</time>
  <course>188.56</course>
  <speed>0.0</speed>
  <fix>3d</fix>
</trkpt>
<trkpt lat="33.810313" lon="-118.393867">
  <ele>-0.12</ele>
  <time>2026-09-01T01:13:50Z</time>
  <course>0.0</course>
  <speed>0.0</speed>
  <fix>3d</fix>
</trkpt>
<trkpt lat="33.810313" lon="-118.393867">
  <ele>-0.124</ele>
  <time>2026-09-01T01:13:50Z</time>
  <course>188.55</course>
  <speed>0.0</speed>
  <fix>3d</fix>
</trkpt>
<trkpt lat="33.810313" lon="-118.393867">
  <ele>-0.12</ele>
  <time>2026-09-01T01:13:50Z</time>
  <course>0.0</course>
  <speed>0.0</speed>
  <fix>3d</fix>
</trkpt>
<trkpt lat="33.810313" lon="-118.393867">
  <ele>-0.127</ele>
  <time>2026-09-01T01:13:50Z</time>
  <course>188.55</course>
  <speed>0.0</speed>
  <fix>3d</fix>
</trkpt>
<trkpt lat="33.810313" lon="-118.393867">
  <ele>-0.12</ele>
  <time>2026-09-01T01:13:50Z</time>
  <course>0.0</course>
  <speed>0.0</speed>
  <fix>3d</fix>
</trkpt>
<trkpt lat="33.810313" lon="-118.393867">
  <ele>-0.13</ele>
  <time>2026-09-01T01:13:50Z</time>
  <course>188.55</course>
  <speed>0.0</speed>
  <fix>3d</fix>
</trkpt>
<trkpt lat="33.810313" lon="-118.393867">
  <ele>-0.12</ele>
  <time>2026-09-01T01:13:50Z</time>
  <course>0.0</course>
  <speed>0.0</speed>
  <fix>3d</fix>
</trkpt>
<trkpt lat="33.810313" lon="-118.393867">
  <ele>-0.132</ele>
  <time>2026-09-01T01:13:50Z</time>
  <course>188.55</course>
  <speed>0.0</speed>
  <fix>3d</fix>
</trkpt>
<trkpt lat="33.810313" lon="-118.393867">
  <ele>-0.12</ele>
  <time>2026-09-01T01:13:50Z</time>
  <course>0.0</course>
  <speed>0.0</speed>
  <fix>3d</fix>
</trkpt>
<trkpt lat="33.810313" lon="-118.393867">
  <ele>-0.132</ele>
  <time>2026-09-01T01:13:50Z</time>
  <course>188.55</course>
  <speed>0.0</speed>
  <fix>3d</fix>
</trkpt>
<trkpt lat="33.810313" lon="-118.393867">
  <ele>-0.12</ele>
  <time>2026-09-01T01:13:50Z</time>
  <course>0.0</course>
  <speed>0.0</speed>
  <fix>3d</fix>
</trkpt>
<trkpt lat="33.810313" lon="-118.393867">
  <ele>-0.132</ele>
  <time>2026-09-01T01:13:50Z</time>
  <course>188.55</course>
  <speed>0.0</speed>
  <fix>3d</fix>
</trkpt>
<trkpt lat="33.810313" lon="-118.393867">
  <ele>-0.12</ele>
  <time>2026-09-01T01:13:50Z</time>
  <course>0.0</course>
  <speed>0.0</speed>
  <fix>3d</fix>
</trkpt>
<trkpt lat="33.810313" lon="-118.393867">
  <ele>-0.132</ele>
  <time>2026-09-01T01:13:50Z</time>
  <course>188.55</course>
  <speed>0.0</speed>
  <fix>3d</fix>
</trkpt>
<trkpt lat="33.810313" lon="-118.393867">
  <ele>-0.12</ele>
  <time>2026-09-01T01:13:50Z</time>
  <course>0.0</course>
  <speed>0.0</speed>
  <fix>3d</fix>
</trkpt>
<trkpt lat="33.810313" lon="-118.393867">
  <ele>-0.131</ele>
  <time>2026-09-01T01:13:50Z</time>
  <course>188.55</course>
  <speed>0.0</speed>
  <fix>3d</fix>
</trkpt>
<trkpt lat="33.810313" lon="-118.393867">
  <ele>-0.12</ele>
  <time>2026-09-01T01:13:50Z</time>
  <course>0.0</course>
  <speed>0.0</speed>
  <fix>3d</fix>
</trkpt>
<trkpt lat="33.810313" lon="-118.393867">
  <ele>-0.129</ele>
  <time>2026-09-01T01:13:50Z</time>
  <course>188.54</course>
  <speed>0.0</speed>
  <fix>3d</fix>
</trkpt>
<trkpt lat="33.810313" lon="-118.393867">
  <ele>-0.13</ele>
  <time>2026-09-01T01:13:50Z</time>
  <course>0.0</course>
  <speed>0.0</speed>
  <fix>3d</fix>
</trkpt>
<trkpt lat="33.810313" lon="-118.393867">
  <ele>-0.128</ele>
  <time>2026-09-01T01:13:50Z</time>
  <course>188.54</course>
  <speed>0.0</speed>
  <fix>3d</fix>
</trkpt>
<trkpt lat="33.810313" lon="-118.393867">
  <ele>-0.13</ele>
  <time>2026-09-01T01:13:50Z</time>
  <course>0.0</course>
  <speed>0.0</speed>
  <fix>3d</fix>
</trkpt>
<trkpt lat="33.810313" lon="-118.393867">
  <ele>-0.125</ele>
  <time>2026-09-01T01:13:50Z</time>
  <course>188.53</course>
  <speed>0.0</speed>
  <fix>3d</fix>
</trkpt>
<trkpt lat="33.810313" lon="-118.393867">
  <ele>-0.12</ele>
  <time>2026-09-01T01:13:50Z</time>
  <course>0.0</course>
  <speed>0.0</speed>
  <fix>3d</fix>
</trkpt>
<trkpt lat="33.810313" lon="-118.393867">
  <ele>-0.123</ele>
  <time>2026-09-01T01:13:50Z</time>
  <course>188.53</course>
  <speed>0.0</speed>
  <fix>3d</fix>
</trkpt>
<trkpt lat="33.810313" lon="-118.393867">
  <ele>-0.12</ele>
  <time>2026-09-01T01:13:50Z</time>
  <course>0.0</course>
  <speed>0.0</speed>
  <fix>3d</fix>
</trkpt>
<trkpt lat="33.810313" lon="-118.393867">
  <ele>-0.121</ele>
  <time>2026-09-01T01:13:50Z</time>
  <course>188.52</course>
  <speed>0.0</speed>
  <fix>3d</fix>
</trkpt>
<trkpt lat="33.810313" lon="-118.393867">
  <ele>-0.12</ele>
  <time>2026-09-01T01:13:50Z</time>
  <course>0.0</course>
  <speed>0.0</speed>
  <fix>3d</fix>
</trkpt>
<trkpt lat="33.810313" lon="-118.393867">
  <ele>-0.121</ele>
  <time>2026-09-01T01:13:50Z</time>
  <course>188.52</course>
  <speed>0.0</speed>
  <fix>3d</fix>
</trkpt>
<trkpt lat="33.810313" lon="-118.393867">
  <ele>-0.12</ele>
  <time>2026-09-01T01:13:50Z</time>
  <course>0.0</course>
  <speed>0.0</speed>
  <fix>3d</fix>
</trkpt>
<trkpt lat="33.810313" lon="-118.393867">
  <ele>-0.122</ele>
  <time>2026-09-01T01:13:50Z</time>
  <course>188.51</course>
  <speed>0.0</speed>
  <fix>3d</fix>
</trkpt>
<trkpt lat="33.810313" lon="-118.393867">
  <ele>-0.12</ele>
  <time>2026-09-01T01:13:50Z</time>
  <course>0.0</course>
  <speed>0.0</speed>
  <fix>3d</fix>
</trkpt>
<trkpt lat="33.810313" lon="-118.393867">
  <ele>-0.123</ele>
  <time>2026-09-01T01:13:50Z</time>
  <course>188.51</course>
  <speed>0.0</speed>
  <fix>3d</fix>
</trkpt>
<trkpt lat="33.810313" lon="-118.393867">
  <ele>-0.12</ele>
  <time>2026-09-01T01:13:50Z</time>
  <course>0.0</course>
  <speed>0.0</speed>
  <fix>3d</fix>
</trkpt>
<trkpt lat="33.810313" lon="-118.393867">
  <ele>-0.126</ele>
  <time>2026-09-01T01:13:50Z</time>
  <course>188.5</course>
  <speed>0.0</speed>
  <fix>3d</fix>
</trkpt>
<trkpt lat="33.810313" lon="-118.393867">
  <ele>-0.12</ele>
  <time>2026-09-01T01:13:50Z</time>
  <course>0.0</course>
  <speed>0.0</speed>
  <fix>3d</fix>
</trkpt>
<trkpt lat="33.810313" lon="-118.393867">
  <ele>-0.127</ele>
  <time>2026-09-01T01:13:50Z</time>
  <course>188.5</course>
  <speed>0.0</speed>
  <fix>3d</fix>
</trkpt>
<trkpt lat="33.810313" lon="-118.393867">
  <ele>-0.12</ele>
  <time>2026-09-01T01:13:50Z</time>
  <course>0.0</course>
  <speed>0.0</speed>
  <fix>3d</fix>
</trkpt>
<trkpt lat="33.810313" lon="-118.393867">
  <ele>-0.128</ele>
  <time>2026-09-01T01:13:50Z</time>
  <course>188.49</course>
  <speed>0.0</speed>
  <fix>3d</fix>
</trkpt>
<trkpt lat="33.810313" lon="-118.393867">
  <ele>-0.12</ele>
  <time>2026-09-01T01:13:50Z</time>
  <course>0.0</course>
  <speed>0.0</speed>
  <fix>3d</fix>
</trkpt>
<trkpt lat="33.810313" lon="-118.393867">
  <ele>-0.127</ele>
  <time>2026-09-01T01:13:50Z</time>
  <course>188.48</course>
  <speed>0.0</speed>
  <fix>3d</fix>
</trkpt>
<trkpt lat="33.810313" lon="-118.393867">
  <ele>-0.12</ele>
  <time>2026-09-01T01:13:50Z</time>
  <course>0.0</course>
  <speed>0.0</speed>
  <fix>3d</fix>
</trkpt>
<trkpt lat="33.810313" lon="-118.393867">
  <ele>-0.127</ele>
  <time>2026-09-01T01:13:50Z</time>
  <course>188.48</course>
  <speed>0.0</speed>
  <fix>3d</fix>
</trkpt>
<trkpt lat="33.810313" lon="-118.393867">
  <ele>-0.12</ele>
  <time>2026-09-01T01:13:50Z</time>
  <course>0.0</course>
  <speed>0.0</speed>
  <fix>3d</fix>
</trkpt>
<trkpt lat="33.810313" lon="-118.393867">
  <ele>-0.127</ele>
  <time>2026-09-01T01:13:50Z</time>
  <course>188.47</course>
  <speed>0.01</speed>
  <fix>3d</fix>
</trkpt>
<trkpt lat="33.810313" lon="-118.393867">
  <ele>-0.12</ele>
  <time>2026-09-01T01:13:50Z</time>
  <course>0.0</course>
  <speed>0.0</speed>
  <fix>3d</fix>
</trkpt>
<trkpt lat="33.810313" lon="-118.393867">
  <ele>-0.127</ele>
  <time>2026-09-01T01:13:50Z</time>
  <course>188.47</course>
  <speed>0.01</speed>
  <fix>3d</fix>
</trkpt>
<trkpt lat="33.810313" lon="-118.393867">
  <ele>-0.12</ele>
  <time>2026-09-01T01:13:50Z</time>
  <course>0.0</course>
  <speed>0.0</speed>
  <fix>3d</fix>
</trkpt>
<trkpt lat="33.810313" lon="-118.393867">
  <ele>-0.126</ele>
  <time>2026-09-01T01:13:50Z</time>
  <course>188.46</course>
  <speed>0.01</speed>
  <fix>3d</fix>
</trkpt>
<trkpt lat="33.810313" lon="-118.393867">
  <ele>-0.12</ele>
  <time>2026-09-01T01:13:50Z</time>
  <course>0.0</course>
  <speed>0.0</speed>
  <fix>3d</fix>
</trkpt>
<trkpt lat="33.810313" lon="-118.393867">
  <ele>-0.126</ele>
  <time>2026-09-01T01:13:50Z</time>
  <course>188.45</course>
  <speed>0.01</speed>
  <fix>3d</fix>
</trkpt>
<trkpt lat="33.810313" lon="-118.393867">
  <ele>-0.12</ele>
  <time>2026-09-01T01:13:50Z</time>
  <course>0.0</course>
  <speed>0.0</speed>
  <fix>3d</fix>
</trkpt>
<trkpt lat="33.810313" lon="-118.393867">
  <ele>-0.126</ele>
  <time>2026-09-01T01:13:50Z</time>
  <course>188.45</course>
  <speed>0.01</speed>
  <fix>3d</fix>
</trkpt>
<trkpt lat="33.810313" lon="-118.393867">
  <ele>-0.12</ele>
  <time>2026-09-01T01:13:50Z</time>
  <course>0.0</course>
  <speed>0.0</speed>
  <fix>3d</fix>
</trkpt>
<trkpt lat="33.810313" lon="-118.393867">
  <ele>-0.125</ele>
  <time>2026-09-01T01:13:50Z</time>
  <course>188.44</course>
  <speed>0.01</speed>
  <fix>3d</fix>
</trkpt>
<trkpt lat="33.810313" lon="-118.393867">
  <ele>-0.12</ele>
  <time>2026-09-01T01:13:50Z</time>
  <course>0.0</course>
  <speed>0.0</speed>
  <fix>3d</fix>
</trkpt>
<trkpt lat="33.810313" lon="-118.393867">
  <ele>-0.126</ele>
  <time>2026-09-01T01:13:50Z</time>
  <course>188.43</course>
  <speed>0.01</speed>
  <fix>3d</fix>
</trkpt>
<trkpt lat="33.810313" lon="-118.393867">
  <ele>-0.12</ele>
  <time>2026-09-01T01:13:50Z</time>
  <course>0.0</course>
  <speed>0.0</speed>
  <fix>3d</fix>
</trkpt>
<trkpt lat="33.810313" lon="-118.393867">
  <ele>-0.127</ele>
  <time>2026-09-01T01:13:50Z</time>
  <course>188.42</course>
  <speed>0.01</speed>
  <fix>3d</fix>
</trkpt>
<trkpt lat="33.810313" lon="-118.393867">
  <ele>-0.12</ele>
  <time>2026-09-01T01:13:50Z</time>
  <course>0.0</course>
  <speed>0.0</speed>
  <fix>3d</fix>
</trkpt>
<trkpt lat="33.810313" lon="-118.393867">
  <ele>-0.128</ele>
  <time>2026-09-01T01:13:50Z</time>
  <course>188.42</course>
  <speed>0.01</speed>
  <fix>3d</fix>
</trkpt>
<trkpt lat="33.810313" lon="-118.393867">
  <ele>-0.12</ele>
  <time>2026-09-01T01:13:50Z</time>
  <course>0.0</course>
  <speed>0.0</speed>
  <fix>3d</fix>
</trkpt>
<trkpt lat="33.810313" lon="-118.393867">
  <ele>-0.129</ele>
  <time>2026-09-01T01:13:50Z</time>
  <course>188.41</course>
  <speed>0.01</speed>
  <fix>3d</fix>
</trkpt>
<trkpt lat="33.810313" lon="-118.393867">
  <ele>-0.12</ele>
  <time>2026-09-01T01:13:50Z</time>
  <course>0.0</course>
  <speed>0.0</speed>
  <fix>3d</fix>
</trkpt>
<trkpt lat="33.810313" lon="-118.393867">
  <ele>-0.129</ele>
  <time>2026-09-01T01:13:50Z</time>
  <course>188.4</course>
  <speed>0.01</speed>
  <fix>3d</fix>
</trkpt>
<trkpt lat="33.810313" lon="-118.393867">
  <ele>-0.12</ele>
  <time>2026-09-01T01:13:50Z</time>
  <course>0.0</course>
  <speed>0.0</speed>
  <fix>3d</fix>
</trkpt>
<trkpt lat="33.810313" lon="-118.393867">
  <ele>-0.13</ele>
  <time>2026-09-01T01:13:50Z</time>
  <course>188.4</course>
  <speed>0.01414213562373095</speed>
  <fix>3d</fix>
</trkpt>
<trkpt lat="33.810313" lon="-118.393867">
  <ele>-0.12</ele>
  <time>2026-09-01T01:13:50Z</time>
  <course>0.0</course>
  <speed>0.0</speed>
  <fix>3d</fix>
</trkpt>
<trkpt lat="33.810313" lon="-118.393867">
  <ele>-0.13</ele>
  <time>2026-09-01T01:13:50Z</time>
  <course>188.39</course>
  <speed>0.01414213562373095</speed>
  <fix>3d</fix>
</trkpt>
<trkpt lat="33.810313" lon="-118.393867">
  <ele>-0.12</ele>
  <time>2026-09-01T01:13:50Z</time>
  <course>0.0</course>
  <speed>0.0</speed>
  <fix>3d</fix>
</trkpt>
<trkpt lat="33.810313" lon="-118.393867">
  <ele>-0.13</ele>
  <time>2026-09-01T01:13:50Z</time>
  <course>188.38</course>
  <speed>0.01414213562373095</speed>
  <fix>3d</fix>
</trkpt>
<trkpt lat="33.810313" lon="-118.393867">
  <ele>-0.12</ele>
  <time>2026-09-01T01:13:50Z</time>
  <course>0.0</course>
  <speed>0.0</speed>
  <fix>3d</fix>
</trkpt>
<trkpt lat="33.810313" lon="-118.393867">
  <ele>-0.129</ele>
  <time>2026-09-01T01:13:50Z</time>
  <course>188.37</course>
  <speed>0.01414213562373095</speed>
  <fix>3d</fix>
</trkpt>
<trkpt lat="33.810313" lon="-118.393867">
  <ele>-0.12</ele>
  <time>2026-09-01T01:13:50Z</time>
  <course>0.0</course>
  <speed>0.0</speed>
  <fix>3d</fix>
</trkpt>
<trkpt lat="33.810313" lon="-118.393867">
  <ele>-0.128</ele>
  <time>2026-09-01T01:13:50Z</time>
  <course>188.37</course>
  <speed>0.01414213562373095</speed>
  <fix>3d</fix>
</trkpt>
<trkpt lat="33.810313" lon="-118.393867">
  <ele>-0.12</ele>
  <time>2026-09-01T01:13:50Z</time>
  <course>0.0</course>
  <speed>0.0</speed>
  <fix>3d</fix>
</trkpt>
<trkpt lat="33.810313" lon="-118.393867">
  <ele>-0.126</ele>
  <time>2026-09-01T01:13:50Z</time>
  <course>188.36</course>
  <speed>0.01414213562373095</speed>
  <fix>3d</fix>
</trkpt>
<trkpt lat="33.810313" lon="-118.393867">
  <ele>-0.12</ele>
  <time>2026-09-01T01:13:50Z</time>
  <course>0.0</course>
  <speed>0.0</speed>
  <fix>3d</fix>
</trkpt>
<trkpt lat="33.810313" lon="-118.393867">
  <ele>-0.124</ele>
  <time>2026-09-01T01:13:50Z</time>
  <course>188.35</course>
  <speed>0.01414213562373095</speed>
  <fix>3d</fix>
</trkpt>
<trkpt lat="33.810313" lon="-118.393867">
  <ele>-0.12</ele>
  <time>2026-09-01T01:13:50Z</time>
  <course>0.0</course>
  <speed>0.0</speed>
  <fix>3d</fix>
</trkpt>
<trkpt lat="33.810313" lon="-118.393867">
  <ele>-0.122</ele>
  <time>2026-09-01T01:13:50Z</time>
  <course>188.34</course>
  <speed>0.01414213562373095</speed>
  <fix>3d</fix>
</trkpt>
<trkpt lat="33.810313" lon="-118.393867">
  <ele>-0.12</ele>
  <time>2026-09-01T01:13:50Z</time>
  <course>0.0</course>
  <speed>0.0</speed>
  <fix>3d</fix>
</trkpt>
<trkpt lat="33.810313" lon="-118.393867">
  <ele>-0.123</ele>
  <time>2026-09-01T01:13:50Z</time>
  <course>188.33</course>
  <speed>0.01414213562373095</speed>
  <fix>3d</fix>
</trkpt>
<trkpt lat="33.810313" lon="-118.393867">
  <ele>-0.12</ele>
  <time>2026-09-01T01:13:50Z</time>
  <course>0.0</course>
  <speed>0.0</speed>
  <fix>3d</fix>
</trkpt>
<trkpt lat="33.810313" lon="-118.393867">
  <ele>-0.125</ele>
  <time>2026-09-01T01:13:50Z</time>
  <course>188.33</course>
  <speed>0.01414213562373095</speed>
  <fix>3d</fix>
</trkpt>
<trkpt lat="33.810313" lon="-118.393867">
  <ele>-0.12</ele>
  <time>2026-09-01T01:13:50Z</time>
  <course>0.0</course>
  <speed>0.0</speed>
  <fix>3d</fix>
</trkpt>
<trkpt lat="33.810313" lon="-118.393867">
  <ele>-0.128</ele>
  <time>2026-09-01T01:13:50Z</time>
  <course>188.32</course>
  <speed>0.01414213562373095</speed>
  <fix>3d</fix>
</trkpt>
<trkpt lat="33.810313" lon="-118.393867">
  <ele>-0.12</ele>
  <time>2026-09-01T01:13:50Z</time>
  <course>0.0</course>
  <speed>0.0</speed>
  <fix>3d</fix>
</trkpt>
<trkpt lat="33.810313" lon="-118.393867">
  <ele>-0.132</ele>
  <time>2026-09-01T01:13:50Z</time>
  <course>188.31</course>
  <speed>0.01414213562373095</speed>
  <fix>3d</fix>
</trkpt>
<trkpt lat="33.810313" lon="-118.393867">
  <ele>-0.12</ele>
  <time>2026-09-01T01:13:50Z</time>
  <course>0.0</course>
  <speed>0.0</speed>
  <fix>3d</fix>
</trkpt>
<trkpt lat="33.810313" lon="-118.393867">
  <ele>-0.135</ele>
  <time>2026-09-01T01:13:50Z</time>
  <course>188.3</course>
  <speed>0.01414213562373095</speed>
  <fix>3d</fix>
</trkpt>
<trkpt lat="33.810313" lon="-118.393867">
  <ele>-0.12</ele>
  <time>2026-09-01T01:13:50Z</time>
  <course>0.0</course>
  <speed>0.0</speed>
  <fix>3d</fix>
</trkpt>
<trkpt lat="33.810313" lon="-118.393867">
  <ele>-0.135</ele>
  <time>2026-09-01T01:13:50Z</time>
  <course>188.3</course>
  <speed>0.01414213562373095</speed>
  <fix>3d</fix>
</trkpt>
<trkpt lat="33.810313" lon="-118.393867">
  <ele>-0.12</ele>
  <time>2026-09-01T01:13:50Z</time>
  <course>0.0</course>
  <speed>0.0</speed>
  <fix>3d</fix>
</trkpt>
<trkpt lat="33.810313" lon="-118.393867">
  <ele>-0.134</ele>
  <time>2026-09-01T01:13:50Z</time>
  <course>188.29</course>
  <speed>0.01414213562373095</speed>
  <fix>3d</fix>
</trkpt>
<trkpt lat="33.810313" lon="-118.393867">
  <ele>-0.12</ele>
  <time>2026-09-01T01:13:50Z</time>
  <course>0.0</course>
  <speed>0.0</speed>
  <fix>3d</fix>
</trkpt>
<trkpt lat="33.810313" lon="-118.393867">
  <ele>-0.132</ele>
  <time>2026-09-01T01:13:50Z</time>
  <course>188.28</course>
  <speed>0.01414213562373095</speed>
  <fix>3d</fix>
</trkpt>
<trkpt lat="33.810313" lon="-118.393867">
  <ele>-0.12</ele>
  <time>2026-09-01T01:13:50Z</time>
  <course>0.0</course>
  <speed>0.0</speed>
  <fix>3d</fix>
</trkpt>
<trkpt lat="33.810313" lon="-118.393867">
  <ele>-0.129</ele>
  <time>2026-09-01T01:13:50Z</time>
  <course>188.27</course>
  <speed>0.01414213562373095</speed>
  <fix>3d</fix>
</trkpt>
<trkpt lat="33.810313" lon="-118.393867">
  <ele>-0.12</ele>
  <time>2026-09-01T01:13:50Z</time>
  <course>0.0</course>
  <speed>0.0</speed>
  <fix>3d</fix>
</trkpt>
<trkpt lat="33.810313" lon="-118.393867">
  <ele>-0.127</ele>
  <time>2026-09-01T01:13:50Z</time>
  <course>188.26</course>
  <speed>0.01414213562373095</speed>
  <fix>3d</fix>
</trkpt>
<trkpt lat="33.810313" lon="-118.393867">
  <ele>-0.12</ele>
  <time>2026-09-01T01:13:50Z</time>
  <course>0.0</course>
  <speed>0.0</speed>
  <fix>3d</fix>
</trkpt>
<trkpt lat="33.810313" lon="-118.393867">
  <ele>-0.124</ele>
  <time>2026-09-01T01:13:50Z</time>
  <course>188.25</course>
  <speed>0.01414213562373095</speed>
  <fix>3d</fix>
</trkpt>
<trkpt lat="33.810313" lon="-118.393867">
  <ele>-0.12</ele>
  <time>2026-09-01T01:13:50Z</time>
  <course>0.0</course>
  <speed>0.0</speed>
  <fix>3d</fix>
</trkpt>
<trkpt lat="33.810313" lon="-118.393867">
  <ele>-0.123</ele>
  <time>2026-09-01T01:13:50Z</time>
  <course>188.25</course>
  <speed>0.01414213562373095</speed>
  <fix>3d</fix>
</trkpt>
<trkpt lat="33.810313" lon="-118.393867">
  <ele>-0.12</ele>
  <time>2026-09-01T01:13:50Z</time>
  <course>0.0</course>
  <speed>0.0</speed>
  <fix>3d</fix>
</trkpt>
<trkpt lat="33.810313" lon="-118.393867">
  <ele>-0.124</ele>
  <time>2026-09-01T01:13:50Z</time>
  <course>188.24</course>
  <speed>0.01414213562373095</speed>
  <fix>3d</fix>
</trkpt>
<trkpt lat="33.810313" lon="-118.393867">
  <ele>-0.12</ele>
  <time>2026-09-01T01:13:50Z</time>
  <course>0.0</course>
  <speed>0.0</speed>
  <fix>3d</fix>
</trkpt>
<trkpt lat="33.810313" lon="-118.393867">
  <ele>-0.126</ele>
  <time>2026-09-01T01:13:50Z</time>
  <course>188.23</course>
  <speed>0.01414213562373095</speed>
  <fix>3d</fix>
</trkpt>
<trkpt lat="33.810313" lon="-118.393867">
  <ele>-0.12</ele>
  <time>2026-09-01T01:13:50Z</time>
  <course>0.0</course>
  <speed>0.0</speed>
  <fix>3d</fix>
</trkpt>
<trkpt lat="33.810313" lon="-118.393867">
  <ele>-0.127</ele>
  <time>2026-09-01T01:13:50Z</time>
  <course>188.22</course>
  <speed>0.01414213562373095</speed>
  <fix>3d</fix>
</trkpt>
<trkpt lat="33.810313" lon="-118.393867">
  <ele>-0.12</ele>
  <time>2026-09-01T01:13:50Z</time>
  <course>0.0</course>
  <speed>0.0</speed>
  <fix>3d</fix>
</trkpt>
<trkpt lat="33.810313" lon="-118.393867">
  <ele>-0.129</ele>
  <time>2026-09-01T01:13:50Z</time>
  <course>188.21</course>
  <speed>0.01414213562373095</speed>
  <fix>3d</fix>
</trkpt>
<trkpt lat="33.810313" lon="-118.393867">
  <ele>-0.12</ele>
  <time>2026-09-01T01:13:50Z</time>
  <course>0.0</course>
  <speed>0.0</speed>
  <fix>3d</fix>
</trkpt>
<trkpt lat="33.810313" lon="-118.393867">
  <ele>-0.129</ele>
  <time>2026-09-01T01:13:50Z</time>
  <course>188.21</course>
  <speed>0.01414213562373095</speed>
  <fix>3d</fix>
</trkpt>
<trkpt lat="33.810313" lon="-118.393867">
  <ele>-0.12</ele>
  <time>2026-09-01T01:13:50Z</time>
  <course>0.0</course>
  <speed>0.0</speed>
  <fix>3d</fix>
</trkpt>
<trkpt lat="33.810313" lon="-118.393867">
  <ele>-0.129</ele>
  <time>2026-09-01T01:13:50Z</time>
  <course>188.2</course>
  <speed>0.01414213562373095</speed>
  <fix>3d</fix>
</trkpt>
<trkpt lat="33.810313" lon="-118.393867">
  <ele>-0.12</ele>
  <time>2026-09-01T01:13:50Z</time>
  <course>0.0</course>
  <speed>0.0</speed>
  <fix>3d</fix>
</trkpt>
<trkpt lat="33.810313" lon="-118.393867">
  <ele>-0.128</ele>
  <time>2026-09-01T01:13:50Z</time>
  <course>188.19</course>
  <speed>0.01414213562373095</speed>
  <fix>3d</fix>
</trkpt>
<trkpt lat="33.810313" lon="-118.393867">
  <ele>-0.12</ele>
  <time>2026-09-01T01:13:50Z</time>
  <course>0.0</course>
  <speed>0.0</speed>
  <fix>3d</fix>
</trkpt>
<trkpt lat="33.810313" lon="-118.393867">
  <ele>-0.128</ele>
  <time>2026-09-01T01:13:50Z</time>
  <course>188.18</course>
  <speed>0.01414213562373095</speed>
  <fix>3d</fix>
</trkpt>
<trkpt lat="33.810313" lon="-118.393867">
  <ele>-0.12</ele>
  <time>2026-09-01T01:13:50Z</time>
  <course>0.0</course>
  <speed>0.0</speed>
  <fix>3d</fix>
</trkpt>
<trkpt lat="33.810313" lon="-118.393867">
  <ele>-0.127</ele>
  <time>2026-09-01T01:13:50Z</time>
  <course>188.17</course>
  <speed>0.01414213562373095</speed>
  <fix>3d</fix>
</trkpt>
<trkpt lat="33.810313" lon="-118.393867">
  <ele>-0.12</ele>
  <time>2026-09-01T01:13:50Z</time>
  <course>0.0</course>
  <speed>0.0</speed>
  <fix>3d</fix>
</trkpt>
<trkpt lat="33.810313" lon="-118.393867">
  <ele>-0.127</ele>
  <time>2026-09-01T01:13:50Z</time>
  <course>188.16</course>
  <speed>0.01414213562373095</speed>
  <fix>3d</fix>
</trkpt>
<trkpt lat="33.810313" lon="-118.393867">
  <ele>-0.12</ele>
  <time>2026-09-01T01:13:50Z</time>
  <course>0.0</course>
  <speed>0.0</speed>
  <fix>3d</fix>
</trkpt>
<trkpt lat="33.810313" lon="-118.393867">
  <ele>-0.128</ele>
  <time>2026-09-01T01:13:51Z</time>
  <course>188.16</course>
  <speed>0.01414213562373095</speed>
  <fix>3d</fix>
</trkpt>
<trkpt lat="33.810313" lon="-118.393867">
  <ele>-0.12</ele>
  <time>2026-09-01T01:13:51Z</time>
  <course>0.0</course>
  <speed>0.0</speed>
  <fix>3d</fix>
</trkpt>
<trkpt lat="33.810313" lon="-118.393867">
  <ele>-0.129</ele>
  <time>2026-09-01T01:13:51Z</time>
  <course>188.15</course>
  <speed>0.01414213562373095</speed>
  <fix>3d</fix>
</trkpt>
<trkpt lat="33.810313" lon="-118.393867">
  <ele>-0.12</ele>
  <time>2026-09-01T01:13:51Z</time>
  <course>0.0</course>
  <speed>0.0</speed>
  <fix>3d</fix>
</trkpt>
<trkpt lat="33.810313" lon="-118.393867">
  <ele>-0.131</ele>
  <time>2026-09-01T01:13:51Z</time>
  <course>188.14</course>
  <speed>0.01414213562373095</speed>
  <fix>3d</fix>
</trkpt>
<trkpt lat="33.810313" lon="-118.393867">
  <ele>-0.12</ele>
  <time>2026-09-01T01:13:51Z</time>
  <course>0.0</course>
  <speed>0.0</speed>
  <fix>3d</fix>
</trkpt>
<trkpt lat="33.810313" lon="-118.393867">
  <ele>-0.133</ele>
  <time>2026-09-01T01:13:51Z</time>
  <course>188.13</course>
  <speed>0.01414213562373095</speed>
  <fix>3d</fix>
</trkpt>
<trkpt lat="33.810313" lon="-118.393867">
  <ele>-0.12</ele>
  <time>2026-09-01T01:13:51Z</time>
  <course>0.0</course>
  <speed>0.0</speed>
  <fix>3d</fix>
</trkpt>
<trkpt lat="33.810313" lon="-118.393867">
  <ele>-0.135</ele>
  <time>2026-09-01T01:13:51Z</time>
  <course>188.12</course>
  <speed>0.01414213562373095</speed>
  <fix>3d</fix>
</trkpt>
<trkpt lat="33.810313" lon="-118.393867">
  <ele>-0.12</ele>
  <time>2026-09-01T01:13:51Z</time>
  <course>0.0</course>
  <speed>0.0</speed>
  <fix>3d</fix>
</trkpt>
<trkpt lat="33.810313" lon="-118.393867">
  <ele>-0.136</ele>
  <time>2026-09-01T01:13:51Z</time>
  <course>188.12</course>
  <speed>0.01414213562373095</speed>
  <fix>3d</fix>
</trkpt>
<trkpt lat="33.810313" lon="-118.393867">
  <ele>-0.12</ele>
  <time>2026-09-01T01:13:51Z</time>
  <course>0.0</course>
  <speed>0.0</speed>
  <fix>3d</fix>
</trkpt>
<trkpt lat="33.810313" lon="-118.393867">
  <ele>-0.136</ele>
  <time>2026-09-01T01:13:51Z</time>
  <course>188.11</course>
  <speed>0.01414213562373095</speed>
  <fix>3d</fix>
</trkpt>
<trkpt lat="33.810313" lon="-118.393867">
  <ele>-0.12</ele>
  <time>2026-09-01T01:13:51Z</time>
  <course>0.0</course>
  <speed>0.0</speed>
  <fix>3d</fix>
</trkpt>
<trkpt lat="33.810313" lon="-118.393867">
  <ele>-0.136</ele>
  <time>2026-09-01T01:13:51Z</time>
  <course>188.1</course>
  <speed>0.01414213562373095</speed>
  <fix>3d</fix>
</trkpt>
<trkpt lat="33.810313" lon="-118.393867">
  <ele>-0.12</ele>
  <time>2026-09-01T01:13:51Z</time>
  <course>0.0</course>
  <speed>0.0</speed>
  <fix>3d</fix>
</trkpt>
<trkpt lat="33.810313" lon="-118.393867">
  <ele>-0.135</ele>
  <time>2026-09-01T01:13:51Z</time>
  <course>188.09</course>
  <speed>0.01414213562373095</speed>
  <fix>3d</fix>
</trkpt>
<trkpt lat="33.810313" lon="-118.393867">
  <ele>-0.12</ele>
  <time>2026-09-01T01:13:51Z</time>
  <course>0.0</course>
  <speed>0.0</speed>
  <fix>3d</fix>
</trkpt>
<trkpt lat="33.810313" lon="-118.393867">
  <ele>-0.134</ele>
  <time>2026-09-01T01:13:51Z</time>
  <course>188.08</course>
  <speed>0.01414213562373095</speed>
  <fix>3d</fix>
</trkpt>
<trkpt lat="33.810313" lon="-118.393867">
  <ele>-0.12</ele>
  <time>2026-09-01T01:13:51Z</time>
  <course>0.0</course>
  <speed>0.0</speed>
  <fix>3d</fix>
</trkpt>
<trkpt lat="33.810313" lon="-118.393867">
  <ele>-0.131</ele>
  <time>2026-09-01T01:13:51Z</time>
  <course>188.07</course>
  <speed>0.022360679774997897</speed>
  <fix>3d</fix>
</trkpt>
<trkpt lat="33.810313" lon="-118.393867">
  <ele>-0.12</ele>
  <time>2026-09-01T01:13:51Z</time>
  <course>0.0</course>
  <speed>0.0</speed>
  <fix>3d</fix>
</trkpt>
<trkpt lat="33.810313" lon="-118.393867">
  <ele>-0.128</ele>
  <time>2026-09-01T01:13:51Z</time>
  <course>188.07</course>
  <speed>0.022360679774997897</speed>
  <fix>3d</fix>
</trkpt>
<trkpt lat="33.810313" lon="-118.393867">
  <ele>-0.12</ele>
  <time>2026-09-01T01:13:51Z</time>
  <course>0.0</course>
  <speed>0.0</speed>
  <fix>3d</fix>
</trkpt>
<trkpt lat="33.810313" lon="-118.393867">
  <ele>-0.126</ele>
  <time>2026-09-01T01:13:51Z</time>
  <course>188.06</course>
  <speed>0.022360679774997897</speed>
  <fix>3d</fix>
</trkpt>
<trkpt lat="33.810313" lon="-118.393867">
  <ele>-0.12</ele>
  <time>2026-09-01T01:13:51Z</time>
  <course>0.0</course>
  <speed>0.0</speed>
  <fix>3d</fix>
</trkpt>
<trkpt lat="33.810313" lon="-118.393867">
  <ele>-0.126</ele>
  <time>2026-09-01T01:13:51Z</time>
  <course>188.05</course>
  <speed>0.022360679774997897</speed>
  <fix>3d</fix>
</trkpt>
<trkpt lat="33.810313" lon="-118.393867">
  <ele>-0.12</ele>
  <time>2026-09-01T01:13:51Z</time>
  <course>0.0</course>
  <speed>0.0</speed>
  <fix>3d</fix>
</trkpt>
<trkpt lat="33.810313" lon="-118.393867">
  <ele>-0.126</ele>
  <time>2026-09-01T01:13:51Z</time>
  <course>188.04</course>
  <speed>0.022360679774997897</speed>
  <fix>3d</fix>
</trkpt>
<trkpt lat="33.810313" lon="-118.393867">
  <ele>-0.12</ele>
  <time>2026-09-01T01:13:51Z</time>
  <course>0.0</course>
  <speed>0.0</speed>
  <fix>3d</fix>
</trkpt>
<trkpt lat="33.810313" lon="-118.393867">
  <ele>-0.127</ele>
  <time>2026-09-01T01:13:51Z</time>
  <course>188.03</course>
  <speed>0.022360679774997897</speed>
  <fix>3d</fix>
</trkpt>
<trkpt lat="33.810313" lon="-118.393867">
  <ele>-0.12</ele>
  <time>2026-09-01T01:13:51Z</time>
  <course>0.0</course>
  <speed>0.0</speed>
  <fix>3d</fix>
</trkpt>
<trkpt lat="33.810313" lon="-118.393867">
  <ele>-0.127</ele>
  <time>2026-09-01T01:13:51Z</time>
  <course>188.03</course>
  <speed>0.022360679774997897</speed>
  <fix>3d</fix>
</trkpt>
<trkpt lat="33.810313" lon="-118.393867">
  <ele>-0.12</ele>
  <time>2026-09-01T01:13:51Z</time>
  <course>0.0</course>
  <speed>0.0</speed>
  <fix>3d</fix>
</trkpt>
<trkpt lat="33.810313" lon="-118.393867">
  <ele>-0.127</ele>
  <time>2026-09-01T01:13:51Z</time>
  <course>188.02</course>
  <speed>0.022360679774997897</speed>
  <fix>3d</fix>
</trkpt>
<trkpt lat="33.810313" lon="-118.393867">
  <ele>-0.12</ele>
  <time>2026-09-01T01:13:51Z</time>
  <course>0.0</course>
  <speed>0.0</speed>
  <fix>3d</fix>
</trkpt>
<trkpt lat="33.810313" lon="-118.393867">
  <ele>-0.128</ele>
  <time>2026-09-01T01:13:51Z</time>
  <course>188.01</course>
  <speed>0.022360679774997897</speed>
  <fix>3d</fix>
</trkpt>
<trkpt lat="33.810313" lon="-118.393867">
  <ele>-0.12</ele>
  <time>2026-09-01T01:13:51Z</time>
  <course>0.0</course>
  <speed>0.0</speed>
  <fix>3d</fix>
</trkpt>
<trkpt lat="33.810313" lon="-118.393867">
  <ele>-0.128</ele>
  <time>2026-09-01T01:13:51Z</time>
  <course>188.0</course>
  <speed>0.022360679774997897</speed>
  <fix>3d</fix>
</trkpt>
<trkpt lat="33.810313" lon="-118.393867">
  <ele>-0.12</ele>
  <time>2026-09-01T01:13:51Z</time>
  <course>0.0</course>
  <speed>0.0</speed>
  <fix>3d</fix>
</trkpt>
<trkpt lat="33.810313" lon="-118.393867">
  <ele>-0.127</ele>
  <time>2026-09-01T01:13:51Z</time>
  <course>187.99</course>
  <speed>0.022360679774997897</speed>
  <fix>3d</fix>
</trkpt>
<trkpt lat="33.810313" lon="-118.393867">
  <ele>-0.12</ele>
  <time>2026-09-01T01:13:51Z</time>
  <course>0.0</course>
  <speed>0.0</speed>
  <fix>3d</fix>
</trkpt>
<trkpt lat="33.810313" lon="-118.393867">
  <ele>-0.126</ele>
  <time>2026-09-01T01:13:51Z</time>
  <course>187.98</course>
  <speed>0.022360679774997897</speed>
  <fix>3d</fix>
</trkpt>
<trkpt lat="33.810313" lon="-118.393867">
  <ele>-0.12</ele>
  <time>2026-09-01T01:13:51Z</time>
  <course>0.0</course>
  <speed>0.0</speed>
  <fix>3d</fix>
</trkpt>
<trkpt lat="33.810313" lon="-118.393867">
  <ele>-0.123</ele>
  <time>2026-09-01T01:13:51Z</time>
  <course>187.98</course>
  <speed>0.022360679774997897</speed>
  <fix>3d</fix>
</trkpt>
<trkpt lat="33.810313" lon="-118.393867">
  <ele>-0.12</ele>
  <time>2026-09-01T01:13:51Z</time>
  <course>0.0</course>
  <speed>0.0</speed>
  <fix>3d</fix>
</trkpt>
<trkpt lat="33.810313" lon="-118.393867">
  <ele>-0.121</ele>
  <time>2026-09-01T01:13:51Z</time>
  <course>187.97</course>
  <speed>0.022360679774997897</speed>
  <fix>3d</fix>
</trkpt>
<trkpt lat="33.810313" lon="-118.393867">
  <ele>-0.12</ele>
  <time>2026-09-01T01:13:51Z</time>
  <course>0.0</course>
  <speed>0.0</speed>
  <fix>3d</fix>
</trkpt>
<trkpt lat="33.810313" lon="-118.393867">
  <ele>-0.12</ele>
  <time>2026-09-01T01:13:51Z</time>
  <course>187.96</course>
  <speed>0.022360679774997897</speed>
  <fix>3d</fix>
</trkpt>
<trkpt lat="33.810313" lon="-118.393867">
  <ele>-0.12</ele>
  <time>2026-09-01T01:13:51Z</time>
  <course>0.0</course>
  <speed>0.0</speed>
  <fix>3d</fix>
</trkpt>
<trkpt lat="33.810313" lon="-118.393867">
  <ele>-0.12</ele>
  <time>2026-09-01T01:13:51Z</time>
  <course>187.95</course>
  <speed>0.022360679774997897</speed>
  <fix>3d</fix>
</trkpt>
<trkpt lat="33.810313" lon="-118.393867">
  <ele>-0.12</ele>
  <time>2026-09-01T01:13:51Z</time>
  <course>0.0</course>
  <speed>0.0</speed>
  <fix>3d</fix>
</trkpt>
<trkpt lat="33.810313" lon="-118.393867">
  <ele>-0.122</ele>
  <time>2026-09-01T01:13:51Z</time>
  <course>187.94</course>
  <speed>0.022360679774997897</speed>
  <fix>3d</fix>
</trkpt>
<trkpt lat="33.810313" lon="-118.393867">
  <ele>-0.12</ele>
  <time>2026-09-01T01:13:51Z</time>
  <course>0.0</course>
  <speed>0.0</speed>
  <fix>3d</fix>
</trkpt>
<trkpt lat="33.810313" lon="-118.393867">
  <ele>-0.125</ele>
  <time>2026-09-01T01:13:51Z</time>
  <course>187.94</course>
  <speed>0.022360679774997897</speed>
  <fix>3d</fix>
</trkpt>
<trkpt lat="33.810313" lon="-118.393867">
  <ele>-0.12</ele>
  <time>2026-09-01T01:13:51Z</time>
  <course>0.0</course>
  <speed>0.0</speed>
  <fix>3d</fix>
</trkpt>
<trkpt lat="33.810313" lon="-118.393867">
  <ele>-0.129</ele>
  <time>2026-09-01T01:13:51Z</time>
  <course>187.93</course>
  <speed>0.022360679774997897</speed>
  <fix>3d</fix>
</trkpt>
<trkpt lat="33.810313" lon="-118.393867">
  <ele>-0.12</ele>
  <time>2026-09-01T01:13:51Z</time>
  <course>0.0</course>
  <speed>0.0</speed>
  <fix>3d</fix>
</trkpt>
<trkpt lat="33.810313" lon="-118.393867">
  <ele>-0.131</ele>
  <time>2026-09-01T01:13:51Z</time>
  <course>187.92</course>
  <speed>0.022360679774997897</speed>
  <fix>3d</fix>
</trkpt>
<trkpt lat="33.810313" lon="-118.393867">
  <ele>-0.12</ele>
  <time>2026-09-01T01:13:51Z</time>
  <course>0.0</course>
  <speed>0.0</speed>
  <fix>3d</fix>
</trkpt>
<trkpt lat="33.810313" lon="-118.393867">
  <ele>-0.132</ele>
  <time>2026-09-01T01:13:51Z</time>
  <course>187.91</course>
  <speed>0.022360679774997897</speed>
  <fix>3d</fix>
</trkpt>
<trkpt lat="33.810313" lon="-118.393867">
  <ele>-0.12</ele>
  <time>2026-09-01T01:13:51Z</time>
  <course>0.0</course>
  <speed>0.0</speed>
  <fix>3d</fix>
</trkpt>
<trkpt lat="33.810313" lon="-118.393867">
  <ele>-0.132</ele>
  <time>2026-09-01T01:13:51Z</time>
  <course>187.9</course>
  <speed>0.022360679774997897</speed>
  <fix>3d</fix>
</trkpt>
<trkpt lat="33.810313" lon="-118.393867">
  <ele>-0.12</ele>
  <time>2026-09-01T01:13:51Z</time>
  <course>0.0</course>
  <speed>0.0</speed>
  <fix>3d</fix>
</trkpt>
<trkpt lat="33.810313" lon="-118.393867">
  <ele>-0.132</ele>
  <time>2026-09-01T01:13:51Z</time>
  <course>187.9</course>
  <speed>0.022360679774997897</speed>
  <fix>3d</fix>
</trkpt>
<trkpt lat="33.810313" lon="-118.393867">
  <ele>-0.12</ele>
  <time>2026-09-01T01:13:51Z</time>
  <course>0.0</course>
  <speed>0.0</speed>
  <fix>3d</fix>
</trkpt>
<trkpt lat="33.810313" lon="-118.393867">
  <ele>-0.13</ele>
  <time>2026-09-01T01:13:51Z</time>
  <course>187.89</course>
  <speed>0.022360679774997897</speed>
  <fix>3d</fix>
</trkpt>
<trkpt lat="33.810313" lon="-118.393867">
  <ele>-0.12</ele>
  <time>2026-09-01T01:13:51Z</time>
  <course>0.0</course>
  <speed>0.0</speed>
  <fix>3d</fix>
</trkpt>
<trkpt lat="33.810313" lon="-118.393867">
  <ele>-0.127</ele>
  <time>2026-09-01T01:13:51Z</time>
  <course>187.88</course>
  <speed>0.022360679774997897</speed>
  <fix>3d</fix>
</trkpt>
<trkpt lat="33.810313" lon="-118.393867">
  <ele>-0.12</ele>
  <time>2026-09-01T01:13:51Z</time>
  <course>0.0</course>
  <speed>0.0</speed>
  <fix>3d</fix>
</trkpt>
<trkpt lat="33.810313" lon="-118.393867">
  <ele>-0.123</ele>
  <time>2026-09-01T01:13:51Z</time>
  <course>187.87</course>
  <speed>0.022360679774997897</speed>
  <fix>3d</fix>
</trkpt>
<trkpt lat="33.810313" lon="-118.393867">
  <ele>-0.12</ele>
  <time>2026-09-01T01:13:51Z</time>
  <course>0.0</course>
  <speed>0.0</speed>
  <fix>3d</fix>
</trkpt>
<trkpt lat="33.810313" lon="-118.393867">
  <ele>-0.121</ele>
  <time>2026-09-01T01:13:51Z</time>
  <course>187.87</course>
  <speed>0.022360679774997897</speed>
  <fix>3d</fix>
</trkpt>
<trkpt lat="33.810313" lon="-118.393867">
  <ele>-0.12</ele>
  <time>2026-09-01T01:13:51Z</time>
  <course>0.0</course>
  <speed>0.0</speed>
  <fix>3d</fix>
</trkpt>
<trkpt lat="33.810313" lon="-118.393867">
  <ele>-0.121</ele>
  <time>2026-09-01T01:13:51Z</time>
  <course>187.86</course>
  <speed>0.022360679774997897</speed>
  <fix>3d</fix>
</trkpt>
<trkpt lat="33.810313" lon="-118.393867">
  <ele>-0.12</ele>
  <time>2026-09-01T01:13:51Z</time>
  <course>0.0</course>
  <speed>0.0</speed>
  <fix>3d</fix>
</trkpt>
<trkpt lat="33.810313" lon="-118.393867">
  <ele>-0.123</ele>
  <time>2026-09-01T01:13:51Z</time>
  <course>187.85</course>
  <speed>0.022360679774997897</speed>
  <fix>3d</fix>
</trkpt>
<trkpt lat="33.810313" lon="-118.393867">
  <ele>-0.12</ele>
  <time>2026-09-01T01:13:51Z</time>
  <course>0.0</course>
  <speed>0.0</speed>
  <fix>3d</fix>
</trkpt>
<trkpt lat="33.810313" lon="-118.393867">
  <ele>-0.124</ele>
  <time>2026-09-01T01:13:51Z</time>
  <course>187.84</course>
  <speed>0.022360679774997897</speed>
  <fix>3d</fix>
</trkpt>
<trkpt lat="33.810313" lon="-118.393867">
  <ele>-0.12</ele>
  <time>2026-09-01T01:13:51Z</time>
  <course>0.0</course>
  <speed>0.0</speed>
  <fix>3d</fix>
</trkpt>
<trkpt lat="33.810313" lon="-118.393867">
  <ele>-0.126</ele>
  <time>2026-09-01T01:13:51Z</time>
  <course>187.83</course>
  <speed>0.022360679774997897</speed>
  <fix>3d</fix>
</trkpt>
<trkpt lat="33.810313" lon="-118.393867">
  <ele>-0.12</ele>
  <time>2026-09-01T01:13:51Z</time>
  <course>0.0</course>
  <speed>0.0</speed>
  <fix>3d</fix>
</trkpt>
<trkpt lat="33.810313" lon="-118.393867">
  <ele>-0.127</ele>
  <time>2026-09-01T01:13:51Z</time>
  <course>187.83</course>
  <speed>0.022360679774997897</speed>
  <fix>3d</fix>
</trkpt>
<trkpt lat="33.810313" lon="-118.393867">
  <ele>-0.12</ele>
  <time>2026-09-01T01:13:51Z</time>
  <course>0.0</course>
  <speed>0.0</speed>
  <fix>3d</fix>
</trkpt>
<trkpt lat="33.810313" lon="-118.393867">
  <ele>-0.127</ele>
  <time>2026-09-01T01:13:51Z</time>
  <course>187.82</course>
  <speed>0.022360679774997897</speed>
  <fix>3d</fix>
</trkpt>
<trkpt lat="33.810313" lon="-118.393867">
  <ele>-0.12</ele>
  <time>2026-09-01T01:13:51Z</time>
  <course>0.0</course>
  <speed>0.0</speed>
  <fix>3d</fix>
</trkpt>
<trkpt lat="33.810313" lon="-118.393867">
  <ele>-0.127</ele>
  <time>2026-09-01T01:13:51Z</time>
  <course>187.81</course>
  <speed>0.022360679774997897</speed>
  <fix>3d</fix>
</trkpt>
<trkpt lat="33.810313" lon="-118.393867">
  <ele>-0.12</ele>
  <time>2026-09-01T01:13:51Z</time>
  <course>0.0</course>
  <speed>0.0</speed>
  <fix>3d</fix>
</trkpt>
<trkpt lat="33.810313" lon="-118.393867">
  <ele>-0.126</ele>
  <time>2026-09-01T01:13:51Z</time>
  <course>187.8</course>
  <speed>0.022360679774997897</speed>
  <fix>3d</fix>
</trkpt>
<trkpt lat="33.810313" lon="-118.393867">
  <ele>-0.12</ele>
  <time>2026-09-01T01:13:51Z</time>
  <course>0.0</course>
  <speed>0.0</speed>
  <fix>3d</fix>
</trkpt>
<trkpt lat="33.810313" lon="-118.393867">
  <ele>-0.124</ele>
  <time>2026-09-01T01:13:51Z</time>
  <course>187.8</course>
  <speed>0.022360679774997897</speed>
  <fix>3d</fix>
</trkpt>
<trkpt lat="33.810313" lon="-118.393867">
  <ele>-0.12</ele>
  <time>2026-09-01T01:13:51Z</time>
  <course>0.0</course>
  <speed>0.0</speed>
  <fix>3d</fix>
</trkpt>
<trkpt lat="33.810313" lon="-118.393867">
  <ele>-0.121</ele>
  <time>2026-09-01T01:13:51Z</time>
  <course>187.79</course>
  <speed>0.022360679774997897</speed>
  <fix>3d</fix>
</trkpt>
<trkpt lat="33.810313" lon="-118.393867">
  <ele>-0.12</ele>
  <time>2026-09-01T01:13:51Z</time>
  <course>0.0</course>
  <speed>0.0</speed>
  <fix>3d</fix>
</trkpt>
<trkpt lat="33.810313" lon="-118.393867">
  <ele>-0.119</ele>
  <time>2026-09-01T01:13:51Z</time>
  <course>187.78</course>
  <speed>0.022360679774997897</speed>
  <fix>3d</fix>
</trkpt>
<trkpt lat="33.810313" lon="-118.393867">
  <ele>-0.12</ele>
  <time>2026-09-01T01:13:51Z</time>
  <course>0.0</course>
  <speed>0.0</speed>
  <fix>3d</fix>
</trkpt>
<trkpt lat="33.810313" lon="-118.393867">
  <ele>-0.118</ele>
  <time>2026-09-01T01:13:51Z</time>
  <course>187.77</course>
  <speed>0.022360679774997897</speed>
  <fix>3d</fix>
</trkpt>
<trkpt lat="33.810313" lon="-118.393867">
  <ele>-0.12</ele>
  <time>2026-09-01T01:13:51Z</time>
  <course>0.0</course>
  <speed>0.0</speed>
  <fix>3d</fix>
</trkpt>
<trkpt lat="33.810313" lon="-118.393867">
  <ele>-0.118</ele>
  <time>2026-09-01T01:13:51Z</time>
  <course>187.76</course>
  <speed>0.022360679774997897</speed>
  <fix>3d</fix>
</trkpt>
<trkpt lat="33.810313" lon="-118.393867">
  <ele>-0.12</ele>
  <time>2026-09-01T01:13:51Z</time>
  <course>0.0</course>
  <speed>0.0</speed>
  <fix>3d</fix>
</trkpt>
<trkpt lat="33.810313" lon="-118.393867">
  <ele>-0.119</ele>
  <time>2026-09-01T01:13:51Z</time>
  <course>187.76</course>
  <speed>0.022360679774997897</speed>
  <fix>3d</fix>
</trkpt>
<trkpt lat="33.810313" lon="-118.393867">
  <ele>-0.12</ele>
  <time>2026-09-01T01:13:51Z</time>
  <course>0.0</course>
  <speed>0.0</speed>
  <fix>3d</fix>
</trkpt>
<trkpt lat="33.810313" lon="-118.393867">
  <ele>-0.12</ele>
  <time>2026-09-01T01:13:51Z</time>
  <course>187.75</course>
  <speed>0.022360679774997897</speed>
  <fix>3d</fix>
</trkpt>
<trkpt lat="33.810313" lon="-118.393867">
  <ele>-0.12</ele>
  <time>2026-09-01T01:13:51Z</time>
  <course>0.0</course>
  <speed>0.0</speed>
  <fix>3d</fix>
</trkpt>
<trkpt lat="33.810313" lon="-118.393867">
  <ele>-0.12</ele>
  <time>2026-09-01T01:13:51Z</time>
  <course>187.74</course>
  <speed>0.0282842712474619</speed>
  <fix>3d</fix>
</trkpt>
<trkpt lat="33.810313" lon="-118.393867">
  <ele>-0.12</ele>
  <time>2026-09-01T01:13:51Z</time>
  <course>0.0</course>
  <speed>0.0</speed>
  <fix>3d</fix>
</trkpt>
<trkpt lat="33.810313" lon="-118.393867">
  <ele>-0.12</ele>
  <time>2026-09-01T01:13:51Z</time>
  <course>187.74</course>
  <speed>0.0282842712474619</speed>
  <fix>3d</fix>
</trkpt>
<trkpt lat="33.810313" lon="-118.393867">
  <ele>-0.12</ele>
  <time>2026-09-01T01:13:51Z</time>
  <course>0.0</course>
  <speed>0.0</speed>
  <fix>3d</fix>
</trkpt>
<trkpt lat="33.810313" lon="-118.393867">
  <ele>-0.119</ele>
  <time>2026-09-01T01:13:51Z</time>
  <course>187.73</course>
  <speed>0.0282842712474619</speed>
  <fix>3d</fix>
</trkpt>
<trkpt lat="33.810313" lon="-118.393867">
  <ele>-0.12</ele>
  <time>2026-09-01T01:13:51Z</time>
  <course>0.0</course>
  <speed>0.0</speed>
  <fix>3d</fix>
</trkpt>
<trkpt lat="33.810313" lon="-118.393867">
  <ele>-0.118</ele>
  <time>2026-09-01T01:13:51Z</time>
  <course>187.72</course>
  <speed>0.0282842712474619</speed>
  <fix>3d</fix>
</trkpt>
<trkpt lat="33.810313" lon="-118.393867">
  <ele>-0.12</ele>
  <time>2026-09-01T01:13:51Z</time>
  <course>0.0</course>
  <speed>0.0</speed>
  <fix>3d</fix>
</trkpt>
<trkpt lat="33.810313" lon="-118.393867">
  <ele>-0.116</ele>
  <time>2026-09-01T01:13:51Z</time>
  <course>187.71</course>
  <speed>0.0282842712474619</speed>
  <fix>3d</fix>
</trkpt>
<trkpt lat="33.810313" lon="-118.393867">
  <ele>-0.12</ele>
  <time>2026-09-01T01:13:51Z</time>
  <course>0.0</course>
  <speed>0.0</speed>
  <fix>3d</fix>
</trkpt>
<trkpt lat="33.810313" lon="-118.393867">
  <ele>-0.113</ele>
  <time>2026-09-01T01:13:51Z</time>
  <course>187.71</course>
  <speed>0.0282842712474619</speed>
  <fix>3d</fix>
</trkpt>
<trkpt lat="33.810313" lon="-118.393867">
  <ele>-0.12</ele>
  <time>2026-09-01T01:13:51Z</time>
  <course>0.0</course>
  <speed>0.0</speed>
  <fix>3d</fix>
</trkpt>
<trkpt lat="33.810313" lon="-118.393867">
  <ele>-0.112</ele>
  <time>2026-09-01T01:13:51Z</time>
  <course>187.7</course>
  <speed>0.0282842712474619</speed>
  <fix>3d</fix>
</trkpt>
<trkpt lat="33.810313" lon="-118.393867">
  <ele>-0.12</ele>
  <time>2026-09-01T01:13:51Z</time>
  <course>0.0</course>
  <speed>0.0</speed>
  <fix>3d</fix>
</trkpt>
<trkpt lat="33.810313" lon="-118.393867">
  <ele>-0.113</ele>
  <time>2026-09-01T01:13:51Z</time>
  <course>187.69</course>
  <speed>0.0282842712474619</speed>
  <fix>3d</fix>
</trkpt>
<trkpt lat="33.810313" lon="-118.393867">
  <ele>-0.12</ele>
  <time>2026-09-01T01:13:51Z</time>
  <course>0.0</course>
  <speed>0.0</speed>
  <fix>3d</fix>
</trkpt>
<trkpt lat="33.810313" lon="-118.393867">
  <ele>-0.115</ele>
  <time>2026-09-01T01:13:51Z</time>
  <course>187.68</course>
  <speed>0.0282842712474619</speed>
  <fix>3d</fix>
</trkpt>
<trkpt lat="33.810313" lon="-118.393867">
  <ele>-0.12</ele>
  <time>2026-09-01T01:13:51Z</time>
  <course>0.0</course>
  <speed>0.0</speed>
  <fix>3d</fix>
</trkpt>
<trkpt lat="33.810313" lon="-118.393867">
  <ele>-0.119</ele>
  <time>2026-09-01T01:13:51Z</time>
  <course>187.68</course>
  <speed>0.0282842712474619</speed>
  <fix>3d</fix>
</trkpt>
<trkpt lat="33.810313" lon="-118.393867">
  <ele>-0.12</ele>
  <time>2026-09-01T01:13:51Z</time>
  <course>0.0</course>
  <speed>0.0</speed>
  <fix>3d</fix>
</trkpt>
<trkpt lat="33.810313" lon="-118.393867">
  <ele>-0.124</ele>
  <time>2026-09-01T01:13:51Z</time>
  <course>187.67</course>
  <speed>0.0282842712474619</speed>
  <fix>3d</fix>
</trkpt>
<trkpt lat="33.810313" lon="-118.393867">
  <ele>-0.12</ele>
  <time>2026-09-01T01:13:51Z</time>
  <course>0.0</course>
  <speed>0.0</speed>
  <fix>3d</fix>
</trkpt>
<trkpt lat="33.810313" lon="-118.393867">
  <ele>-0.129</ele>
  <time>2026-09-01T01:13:51Z</time>
  <course>187.66</course>
  <speed>0.0282842712474619</speed>
  <fix>3d</fix>
</trkpt>
<trkpt lat="33.810313" lon="-118.393867">
  <ele>-0.12</ele>
  <time>2026-09-01T01:13:51Z</time>
  <course>0.0</course>
  <speed>0.0</speed>
  <fix>3d</fix>
</trkpt>
<trkpt lat="33.810313" lon="-118.393867">
  <ele>-0.133</ele>
  <time>2026-09-01T01:13:51Z</time>
  <course>187.66</course>
  <speed>0.0282842712474619</speed>
  <fix>3d</fix>
</trkpt>
<trkpt lat="33.810313" lon="-118.393867">
  <ele>-0.12</ele>
  <time>2026-09-01T01:13:51Z</time>
  <course>0.0</course>
  <speed>0.0</speed>
  <fix>3d</fix>
</trkpt>
<trkpt lat="33.810313" lon="-118.393867">
  <ele>-0.135</ele>
  <time>2026-09-01T01:13:51Z</time>
  <course>187.65</course>
  <speed>0.0282842712474619</speed>
  <fix>3d</fix>
</trkpt>
<trkpt lat="33.810313" lon="-118.393867">
  <ele>-0.12</ele>
  <time>2026-09-01T01:13:51Z</time>
  <course>0.0</course>
  <speed>0.0</speed>
  <fix>3d</fix>
</trkpt>
<trkpt lat="33.810313" lon="-118.393867">
  <ele>-0.135</ele>
  <time>2026-09-01T01:13:51Z</time>
  <course>187.64</course>
  <speed>0.0282842712474619</speed>
  <fix>3d</fix>
</trkpt>
<trkpt lat="33.810313" lon="-118.393867">
  <ele>-0.12</ele>
  <time>2026-09-01T01:13:51Z</time>
  <course>0.0</course>
  <speed>0.0</speed>
  <fix>3d</fix>
</trkpt>
<trkpt lat="33.810313" lon="-118.393867">
  <ele>-0.135</ele>
  <time>2026-09-01T01:13:51Z</time>
  <course>187.64</course>
  <speed>0.0282842712474619</speed>
  <fix>3d</fix>
</trkpt>
<trkpt lat="33.810313" lon="-118.393867">
  <ele>-0.12</ele>
  <time>2026-09-01T01:13:51Z</time>
  <course>0.0</course>
  <speed>0.0</speed>
  <fix>3d</fix>
</trkpt>
<trkpt lat="33.810313" lon="-118.393867">
  <ele>-0.133</ele>
  <time>2026-09-01T01:13:51Z</time>
  <course>187.63</course>
  <speed>0.0282842712474619</speed>
  <fix>3d</fix>
</trkpt>
<trkpt lat="33.810313" lon="-118.393867">
  <ele>-0.12</ele>
  <time>2026-09-01T01:13:51Z</time>
  <course>0.0</course>
  <speed>0.0</speed>
  <fix>3d</fix>
</trkpt>
<trkpt lat="33.810313" lon="-118.393867">
  <ele>-0.132</ele>
  <time>2026-09-01T01:13:51Z</time>
  <course>187.63</course>
  <speed>0.03605551275463989</speed>
  <fix>3d</fix>
</trkpt>
<trkpt lat="33.810313" lon="-118.393867">
  <ele>-0.12</ele>
  <time>2026-09-01T01:13:51Z</time>
  <course>0.0</course>
  <speed>0.0</speed>
  <fix>3d</fix>
</trkpt>
<trkpt lat="33.810313" lon="-118.393867">
  <ele>-0.132</ele>
  <time>2026-09-01T01:13:51Z</time>
  <course>187.62</course>
  <speed>0.03605551275463989</speed>
  <fix>3d</fix>
</trkpt>
<trkpt lat="33.810313" lon="-118.393867">
  <ele>-0.12</ele>
  <time>2026-09-01T01:13:51Z</time>
  <course>0.0</course>
  <speed>0.0</speed>
  <fix>3d</fix>
</trkpt>
<trkpt lat="33.810313" lon="-118.393867">
  <ele>-0.133</ele>
  <time>2026-09-01T01:13:51Z</time>
  <course>187.61</course>
  <speed>0.03605551275463989</speed>
  <fix>3d</fix>
</trkpt>
<trkpt lat="33.810313" lon="-118.393867">
  <ele>-0.12</ele>
  <time>2026-09-01T01:13:51Z</time>
  <course>0.0</course>
  <speed>0.0</speed>
  <fix>3d</fix>
</trkpt>
<trkpt lat="33.810313" lon="-118.393867">
  <ele>-0.134</ele>
  <time>2026-09-01T01:13:51Z</time>
  <course>187.6</course>
  <speed>0.03605551275463989</speed>
  <fix>3d</fix>
</trkpt>
<trkpt lat="33.810313" lon="-118.393867">
  <ele>-0.12</ele>
  <time>2026-09-01T01:13:51Z</time>
  <course>0.0</course>
  <speed>0.0</speed>
  <fix>3d</fix>
</trkpt>
<trkpt lat="33.810313" lon="-118.393867">
  <ele>-0.134</ele>
  <time>2026-09-01T01:13:51Z</time>
  <course>187.6</course>
  <speed>0.03605551275463989</speed>
  <fix>3d</fix>
</trkpt>
<trkpt lat="33.810313" lon="-118.393867">
  <ele>-0.12</ele>
  <time>2026-09-01T01:13:51Z</time>
  <course>0.0</course>
  <speed>0.0</speed>
  <fix>3d</fix>
</trkpt>
<trkpt lat="33.810313" lon="-118.393867">
  <ele>-0.134</ele>
  <time>2026-09-01T01:13:51Z</time>
  <course>187.59</course>
  <speed>0.03605551275463989</speed>
  <fix>3d</fix>
</trkpt>
<trkpt lat="33.810313" lon="-118.393867">
  <ele>-0.12</ele>
  <time>2026-09-01T01:13:51Z</time>
  <course>0.0</course>
  <speed>0.0</speed>
  <fix>3d</fix>
</trkpt>
<trkpt lat="33.810313" lon="-118.393867">
  <ele>-0.132</ele>
  <time>2026-09-01T01:13:51Z</time>
  <course>187.58</course>
  <speed>0.03605551275463989</speed>
  <fix>3d</fix>
</trkpt>
<trkpt lat="33.810313" lon="-118.393867">
  <ele>-0.12</ele>
  <time>2026-09-01T01:13:51Z</time>
  <course>0.0</course>
  <speed>0.0</speed>
  <fix>3d</fix>
</trkpt>
<trkpt lat="33.810313" lon="-118.393867">
  <ele>-0.129</ele>
  <time>2026-09-01T01:13:51Z</time>
  <course>187.58</course>
  <speed>0.03605551275463989</speed>
  <fix>3d</fix>
</trkpt>
<trkpt lat="33.810313" lon="-118.393867">
  <ele>-0.12</ele>
  <time>2026-09-01T01:13:51Z</time>
  <course>0.0</course>
  <speed>0.0</speed>
  <fix>3d</fix>
</trkpt>
<trkpt lat="33.810313" lon="-118.393867">
  <ele>-0.127</ele>
  <time>2026-09-01T01:13:51Z</time>
  <course>187.57</course>
  <speed>0.03605551275463989</speed>
  <fix>3d</fix>
</trkpt>
<trkpt lat="33.810313" lon="-118.393867">
  <ele>-0.12</ele>
  <time>2026-09-01T01:13:51Z</time>
  <course>0.0</course>
  <speed>0.0</speed>
  <fix>3d</fix>
</trkpt>
<trkpt lat="33.810313" lon="-118.393867">
  <ele>-0.125</ele>
  <time>2026-09-01T01:13:51Z</time>
  <course>187.56</course>
  <speed>0.03605551275463989</speed>
  <fix>3d</fix>
</trkpt>
<trkpt lat="33.810313" lon="-118.393867">
  <ele>-0.12</ele>
  <time>2026-09-01T01:13:51Z</time>
  <course>0.0</course>
  <speed>0.0</speed>
  <fix>3d</fix>
</trkpt>
<trkpt lat="33.810313" lon="-118.393867">
  <ele>-0.122</ele>
  <time>2026-09-01T01:13:51Z</time>
  <course>187.56</course>
  <speed>0.03605551275463989</speed>
  <fix>3d</fix>
</trkpt>
<trkpt lat="33.810313" lon="-118.393867">
  <ele>-0.12</ele>
  <time>2026-09-01T01:13:51Z</time>
  <course>0.0</course>
  <speed>0.0</speed>
  <fix>3d</fix>
</trkpt>
<trkpt lat="33.810313" lon="-118.393867">
  <ele>-0.119</ele>
  <time>2026-09-01T01:13:51Z</time>
  <course>187.55</course>
  <speed>0.03605551275463989</speed>
  <fix>3d</fix>
</trkpt>
<trkpt lat="33.810313" lon="-118.393867">
  <ele>-0.12</ele>
  <time>2026-09-01T01:13:51Z</time>
  <course>0.0</course>
  <speed>0.0</speed>
  <fix>3d</fix>
</trkpt>
<trkpt lat="33.810313" lon="-118.393867">
  <ele>-0.117</ele>
  <time>2026-09-01T01:13:51Z</time>
  <course>187.54</course>
  <speed>0.03605551275463989</speed>
  <fix>3d</fix>
</trkpt>
<trkpt lat="33.810313" lon="-118.393867">
  <ele>-0.12</ele>
  <time>2026-09-01T01:13:51Z</time>
  <course>0.0</course>
  <speed>0.0</speed>
  <fix>3d</fix>
</trkpt>
<trkpt lat="33.810313" lon="-118.393867">
  <ele>-0.117</ele>
  <time>2026-09-01T01:13:51Z</time>
  <course>187.54</course>
  <speed>0.03605551275463989</speed>
  <fix>3d</fix>
</trkpt>
<trkpt lat="33.810313" lon="-118.393867">
  <ele>-0.12</ele>
  <time>2026-09-01T01:13:51Z</time>
  <course>0.0</course>
  <speed>0.0</speed>
  <fix>3d</fix>
</trkpt>
<trkpt lat="33.810313" lon="-118.393867">
  <ele>-0.118</ele>
  <time>2026-09-01T01:13:51Z</time>
  <course>187.53</course>
  <speed>0.03605551275463989</speed>
  <fix>3d</fix>
</trkpt>
<trkpt lat="33.810313" lon="-118.393867">
  <ele>-0.12</ele>
  <time>2026-09-01T01:13:51Z</time>
  <course>0.0</course>
  <speed>0.0</speed>
  <fix>3d</fix>
</trkpt>
<trkpt lat="33.810313" lon="-118.393867">
  <ele>-0.119</ele>
  <time>2026-09-01T01:13:51Z</time>
  <course>187.52</course>
  <speed>0.03605551275463989</speed>
  <fix>3d</fix>
</trkpt>
<trkpt lat="33.810313" lon="-118.393867">
  <ele>-0.12</ele>
  <time>2026-09-01T01:13:51Z</time>
  <course>0.0</course>
  <speed>0.0</speed>
  <fix>3d</fix>
</trkpt>
<trkpt lat="33.810313" lon="-118.393867">
  <ele>-0.12</ele>
  <time>2026-09-01T01:13:51Z</time>
  <course>187.52</course>
  <speed>0.03605551275463989</speed>
  <fix>3d</fix>
</trkpt>
<trkpt lat="33.810313" lon="-118.393867">
  <ele>-0.12</ele>
  <time>2026-09-01T01:13:51Z</time>
  <course>0.0</course>
  <speed>0.0</speed>
  <fix>3d</fix>
</trkpt>
<trkpt lat="33.810313" lon="-118.393867">
  <ele>-0.121</ele>
  <time>2026-09-01T01:13:51Z</time>
  <course>187.51</course>
  <speed>0.03605551275463989</speed>
  <fix>3d</fix>
</trkpt>
<trkpt lat="33.810313" lon="-118.393867">
  <ele>-0.12</ele>
  <time>2026-09-01T01:13:51Z</time>
  <course>0.0</course>
  <speed>0.0</speed>
  <fix>3d</fix>
</trkpt>
<trkpt lat="33.810313" lon="-118.393867">
  <ele>-0.121</ele>
  <time>2026-09-01T01:13:51Z</time>
  <course>187.51</course>
  <speed>0.03605551275463989</speed>
  <fix>3d</fix>
</trkpt>
<trkpt lat="33.810313" lon="-118.393867">
  <ele>-0.12</ele>
  <time>2026-09-01T01:13:51Z</time>
  <course>0.0</course>
  <speed>0.0</speed>
  <fix>3d</fix>
</trkpt>
<trkpt lat="33.810313" lon="-118.393867">
  <ele>-0.121</ele>
  <time>2026-09-01T01:13:51Z</time>
  <course>187.5</course>
  <speed>0.03605551275463989</speed>
  <fix>3d</fix>
</trkpt>
<trkpt lat="33.810313" lon="-118.393867">
  <ele>-0.12</ele>
  <time>2026-09-01T01:13:51Z</time>
  <course>0.0</course>
  <speed>0.0</speed>
  <fix>3d</fix>
</trkpt>
<trkpt lat="33.810313" lon="-118.393867">
  <ele>-0.121</ele>
  <time>2026-09-01T01:13:51Z</time>
  <course>187.49</course>
  <speed>0.03605551275463989</speed>
  <fix>3d</fix>
</trkpt>
<trkpt lat="33.810313" lon="-118.393867">
  <ele>-0.12</ele>
  <time>2026-09-01T01:13:51Z</time>
  <course>0.0</course>
  <speed>0.0</speed>
  <fix>3d</fix>
</trkpt>
<trkpt lat="33.810313" lon="-118.393867">
  <ele>-0.121</ele>
  <time>2026-09-01T01:13:51Z</time>
  <course>187.49</course>
  <speed>0.03605551275463989</speed>
  <fix>3d</fix>
</trkpt>
<trkpt lat="33.810313" lon="-118.393867">
  <ele>-0.12</ele>
  <time>2026-09-01T01:13:51Z</time>
  <course>0.0</course>
  <speed>0.0</speed>
  <fix>3d</fix>
</trkpt>
<trkpt lat="33.810313" lon="-118.393867">
  <ele>-0.121</ele>
  <time>2026-09-01T01:13:51Z</time>
  <course>187.48</course>
  <speed>0.03605551275463989</speed>
  <fix>3d</fix>
</trkpt>
<trkpt lat="33.810313" lon="-118.393867">
  <ele>-0.12</ele>
  <time>2026-09-01T01:13:51Z</time>
  <course>0.0</course>
  <speed>0.0</speed>
  <fix>3d</fix>
</trkpt>
<trkpt lat="33.810313" lon="-118.393867">
  <ele>-0.122</ele>
  <time>2026-09-01T01:13:51Z</time>
  <course>187.47</course>
  <speed>0.03605551275463989</speed>
  <fix>3d</fix>
</trkpt>
<trkpt lat="33.810313" lon="-118.393867">
  <ele>-0.12</ele>
  <time>2026-09-01T01:13:51Z</time>
  <course>0.0</course>
  <speed>0.0</speed>
  <fix>3d</fix>
</trkpt>
<trkpt lat="33.810313" lon="-118.393867">
  <ele>-0.124</ele>
  <time>2026-09-01T01:13:51Z</time>
  <course>187.47</course>
  <speed>0.03605551275463989</speed>
  <fix>3d</fix>
</trkpt>
<trkpt lat="33.810313" lon="-118.393867">
  <ele>-0.12</ele>
  <time>2026-09-01T01:13:51Z</time>
  <course>0.0</course>
  <speed>0.0</speed>
  <fix>3d</fix>
</trkpt>
<trkpt lat="33.810313" lon="-118.393867">
  <ele>-0.127</ele>
  <time>2026-09-01T01:13:51Z</time>
  <course>187.46</course>
  <speed>0.03605551275463989</speed>
  <fix>3d</fix>
</trkpt>
<trkpt lat="33.810313" lon="-118.393867">
  <ele>-0.12</ele>
  <time>2026-09-01T01:13:51Z</time>
  <course>0.0</course>
  <speed>0.0</speed>
  <fix>3d</fix>
</trkpt>
<trkpt lat="33.810313" lon="-118.393867">
  <ele>-0.129</ele>
  <time>2026-09-01T01:13:51Z</time>
  <course>187.45</course>
  <speed>0.03605551275463989</speed>
  <fix>3d</fix>
</trkpt>
<trkpt lat="33.810313" lon="-118.393867">
  <ele>-0.12</ele>
  <time>2026-09-01T01:13:51Z</time>
  <course>0.0</course>
  <speed>0.0</speed>
  <fix>3d</fix>
</trkpt>
<trkpt lat="33.810313" lon="-118.393867">
  <ele>-0.131</ele>
  <time>2026-09-01T01:13:51Z</time>
  <course>187.45</course>
  <speed>0.03605551275463989</speed>
  <fix>3d</fix>
</trkpt>
<trkpt lat="33.810313" lon="-118.393867">
  <ele>-0.12</ele>
  <time>2026-09-01T01:13:51Z</time>
  <course>0.0</course>
  <speed>0.0</speed>
  <fix>3d</fix>
</trkpt>
<trkpt lat="33.810313" lon="-118.393867">
  <ele>-0.132</ele>
  <time>2026-09-01T01:13:51Z</time>
  <course>187.44</course>
  <speed>0.03605551275463989</speed>
  <fix>3d</fix>
</trkpt>
<trkpt lat="33.810313" lon="-118.393867">
  <ele>-0.12</ele>
  <time>2026-09-01T01:13:51Z</time>
  <course>0.0</course>
  <speed>0.0</speed>
  <fix>3d</fix>
</trkpt>
<trkpt lat="33.810313" lon="-118.393867">
  <ele>-0.132</ele>
  <time>2026-09-01T01:13:51Z</time>
  <course>187.44</course>
  <speed>0.03605551275463989</speed>
  <fix>3d</fix>
</trkpt>
<trkpt lat="33.810313" lon="-118.393867">
  <ele>-0.12</ele>
  <time>2026-09-01T01:13:51Z</time>
  <course>0.0</course>
  <speed>0.0</speed>
  <fix>3d</fix>
</trkpt>
<trkpt lat="33.810313" lon="-118.393867">
  <ele>-0.132</ele>
  <time>2026-09-01T01:13:51Z</time>
  <course>187.43</course>
  <speed>0.03605551275463989</speed>
  <fix>3d</fix>
</trkpt>
<trkpt lat="33.810313" lon="-118.393867">
  <ele>-0.12</ele>
  <time>2026-09-01T01:13:51Z</time>
  <course>0.0</course>
  <speed>0.0</speed>
  <fix>3d</fix>
</trkpt>
<trkpt lat="33.810313" lon="-118.393867">
  <ele>-0.132</ele>
  <time>2026-09-01T01:13:51Z</time>
  <course>187.42</course>
  <speed>0.03605551275463989</speed>
  <fix>3d</fix>
</trkpt>
<trkpt lat="33.810313" lon="-118.393867">
  <ele>-0.12</ele>
  <time>2026-09-01T01:13:51Z</time>
  <course>0.0</course>
  <speed>0.0</speed>
  <fix>3d</fix>
</trkpt>
<trkpt lat="33.810313" lon="-118.393867">
  <ele>-0.131</ele>
  <time>2026-09-01T01:13:51Z</time>
  <course>187.42</course>
  <speed>0.03605551275463989</speed>
  <fix>3d</fix>
</trkpt>
<trkpt lat="33.810313" lon="-118.393867">
  <ele>-0.12</ele>
  <time>2026-09-01T01:13:51Z</time>
  <course>0.0</course>
  <speed>0.0</speed>
  <fix>3d</fix>
</trkpt>
<trkpt lat="33.810313" lon="-118.393867">
  <ele>-0.131</ele>
  <time>2026-09-01T01:13:51Z</time>
  <course>187.41</course>
  <speed>0.03605551275463989</speed>
  <fix>3d</fix>
</trkpt>
<trkpt lat="33.810313" lon="-118.393867">
  <ele>-0.12</ele>
  <time>2026-09-01T01:13:51Z</time>
  <course>0.0</course>
  <speed>0.0</speed>
  <fix>3d</fix>
</trkpt>
<trkpt lat="33.810313" lon="-118.393867">
  <ele>-0.132</ele>
  <time>2026-09-01T01:13:51Z</time>
  <course>187.41</course>
  <speed>0.03605551275463989</speed>
  <fix>3d</fix>
</trkpt>
<trkpt lat="33.810313" lon="-118.393867">
  <ele>-0.12</ele>
  <time>2026-09-01T01:13:51Z</time>
  <course>0.0</course>
  <speed>0.0</speed>
  <fix>3d</fix>
</trkpt>
<trkpt lat="33.810313" lon="-118.393867">
  <ele>-0.134</ele>
  <time>2026-09-01T01:13:51Z</time>
  <course>187.4</course>
  <speed>0.03605551275463989</speed>
  <fix>3d</fix>
</trkpt>
<trkpt lat="33.810313" lon="-118.393867">
  <ele>-0.12</ele>
  <time>2026-09-01T01:13:51Z</time>
  <course>0.0</course>
  <speed>0.0</speed>
  <fix>3d</fix>
</trkpt>
<trkpt lat="33.810313" lon="-118.393867">
  <ele>-0.137</ele>
  <time>2026-09-01T01:13:51Z</time>
  <course>187.39</course>
  <speed>0.03605551275463989</speed>
  <fix>3d</fix>
</trkpt>
<trkpt lat="33.810313" lon="-118.393867">
  <ele>-0.12</ele>
  <time>2026-09-01T01:13:51Z</time>
  <course>0.0</course>
  <speed>0.0</speed>
  <fix>3d</fix>
</trkpt>
<trkpt lat="33.810313" lon="-118.393867">
  <ele>-0.139</ele>
  <time>2026-09-01T01:13:51Z</time>
  <course>187.39</course>
  <speed>0.03605551275463989</speed>
  <fix>3d</fix>
</trkpt>
<trkpt lat="33.810313" lon="-118.393867">
  <ele>-0.12</ele>
  <time>2026-09-01T01:13:51Z</time>
  <course>0.0</course>
  <speed>0.0</speed>
  <fix>3d</fix>
</trkpt>
<trkpt lat="33.810313" lon="-118.393867">
  <ele>-0.141</ele>
  <time>2026-09-01T01:13:51Z</time>
  <course>187.38</course>
  <speed>0.03605551275463989</speed>
  <fix>3d</fix>
</trkpt>
<trkpt lat="33.810313" lon="-118.393867">
  <ele>-0.12</ele>
  <time>2026-09-01T01:13:51Z</time>
  <course>0.0</course>
  <speed>0.0</speed>
  <fix>3d</fix>
</trkpt>
<trkpt lat="33.810313" lon="-118.393867">
  <ele>-0.141</ele>
  <time>2026-09-01T01:13:51Z</time>
  <course>187.38</course>
  <speed>0.03605551275463989</speed>
  <fix>3d</fix>
</trkpt>
<trkpt lat="33.810313" lon="-118.393867">
  <ele>-0.12</ele>
  <time>2026-09-01T01:13:51Z</time>
  <course>0.0</course>
  <speed>0.0</speed>
  <fix>3d</fix>
</trkpt>
<trkpt lat="33.810313" lon="-118.393867">
  <ele>-0.139</ele>
  <time>2026-09-01T01:13:51Z</time>
  <course>187.37</course>
  <speed>0.03605551275463989</speed>
  <fix>3d</fix>
</trkpt>
<trkpt lat="33.810313" lon="-118.393867">
  <ele>-0.12</ele>
  <time>2026-09-01T01:13:51Z</time>
  <course>0.0</course>
  <speed>0.0</speed>
  <fix>3d</fix>
</trkpt>
<trkpt lat="33.810313" lon="-118.393867">
  <ele>-0.136</ele>
  <time>2026-09-01T01:13:51Z</time>
  <course>187.36</course>
  <speed>0.03605551275463989</speed>
  <fix>3d</fix>
</trkpt>
<trkpt lat="33.810313" lon="-118.393867">
  <ele>-0.12</ele>
  <time>2026-09-01T01:13:51Z</time>
  <course>0.0</course>
  <speed>0.0</speed>
  <fix>3d</fix>
</trkpt>
<trkpt lat="33.810313" lon="-118.393867">
  <ele>-0.132</ele>
  <time>2026-09-01T01:13:51Z</time>
  <course>187.36</course>
  <speed>0.03605551275463989</speed>
  <fix>3d</fix>
</trkpt>
<trkpt lat="33.810313" lon="-118.393867">
  <ele>-0.12</ele>
  <time>2026-09-01T01:13:51Z</time>
  <course>0.0</course>
  <speed>0.0</speed>
  <fix>3d</fix>
</trkpt>
<trkpt lat="33.810313" lon="-118.393867">
  <ele>-0.129</ele>
  <time>2026-09-01T01:13:51Z</time>
  <course>187.35</course>
  <speed>0.03605551275463989</speed>
  <fix>3d</fix>
</trkpt>
<trkpt lat="33.810313" lon="-118.393867">
  <ele>-0.12</ele>
  <time>2026-09-01T01:13:51Z</time>
  <course>0.0</course>
  <speed>0.0</speed>
  <fix>3d</fix>
</trkpt>
<trkpt lat="33.810313" lon="-118.393867">
  <ele>-0.127</ele>
  <time>2026-09-01T01:13:51Z</time>
  <course>187.35</course>
  <speed>0.03605551275463989</speed>
  <fix>3d</fix>
</trkpt>
<trkpt lat="33.810313" lon="-118.393867">
  <ele>-0.12</ele>
  <time>2026-09-01T01:13:51Z</time>
  <course>0.0</course>
  <speed>0.0</speed>
  <fix>3d</fix>
</trkpt>
<trkpt lat="33.810313" lon="-118.393867">
  <ele>-0.126</ele>
  <time>2026-09-01T01:13:51Z</time>
  <course>187.34</course>
  <speed>0.03605551275463989</speed>
  <fix>3d</fix>
</trkpt>
<trkpt lat="33.810313" lon="-118.393867">
  <ele>-0.12</ele>
  <time>2026-09-01T01:13:51Z</time>
  <course>0.0</course>
  <speed>0.0</speed>
  <fix>3d</fix>
</trkpt>
<trkpt lat="33.810313" lon="-118.393867">
  <ele>-0.126</ele>
  <time>2026-09-01T01:13:51Z</time>
  <course>187.33</course>
  <speed>0.03605551275463989</speed>
  <fix>3d</fix>
</trkpt>
<trkpt lat="33.810313" lon="-118.393867">
  <ele>-0.12</ele>
  <time>2026-09-01T01:13:51Z</time>
  <course>0.0</course>
  <speed>0.0</speed>
  <fix>3d</fix>
</trkpt>
<trkpt lat="33.810313" lon="-118.393867">
  <ele>-0.127</ele>
  <time>2026-09-01T01:13:51Z</time>
  <course>187.33</course>
  <speed>0.03605551275463989</speed>
  <fix>3d</fix>
</trkpt>
<trkpt lat="33.810313" lon="-118.393867">
  <ele>-0.12</ele>
  <time>2026-09-01T01:13:51Z</time>
  <course>0.0</course>
  <speed>0.0</speed>
  <fix>3d</fix>
</trkpt>
<trkpt lat="33.810313" lon="-118.393867">
  <ele>-0.126</ele>
  <time>2026-09-01T01:13:51Z</time>
  <course>187.32</course>
  <speed>0.03605551275463989</speed>
  <fix>3d</fix>
</trkpt>
<trkpt lat="33.810313" lon="-118.393867">
  <ele>-0.12</ele>
  <time>2026-09-01T01:13:51Z</time>
  <course>0.0</course>
  <speed>0.0</speed>
  <fix>3d</fix>
</trkpt>
<trkpt lat="33.810313" lon="-118.393867">
  <ele>-0.126</ele>
  <time>2026-09-01T01:13:51Z</time>
  <course>187.32</course>
  <speed>0.03605551275463989</speed>
  <fix>3d</fix>
</trkpt>
<trkpt lat="33.810313" lon="-118.393867">
  <ele>-0.12</ele>
  <time>2026-09-01T01:13:51Z</time>
  <course>0.0</course>
  <speed>0.0</speed>
  <fix>3d</fix>
</trkpt>
<trkpt lat="33.810313" lon="-118.393867">
  <ele>-0.125</ele>
  <time>2026-09-01T01:13:51Z</time>
  <course>187.31</course>
  <speed>0.03605551275463989</speed>
  <fix>3d</fix>
</trkpt>
<trkpt lat="33.810313" lon="-118.393867">
  <ele>-0.12</ele>
  <time>2026-09-01T01:13:51Z</time>
  <course>0.0</course>
  <speed>0.0</speed>
  <fix>3d</fix>
</trkpt>
<trkpt lat="33.810313" lon="-118.393867">
  <ele>-0.124</ele>
  <time>2026-09-01T01:13:51Z</time>
  <course>187.31</course>
  <speed>0.03605551275463989</speed>
  <fix>3d</fix>
</trkpt>
<trkpt lat="33.810313" lon="-118.393867">
  <ele>-0.12</ele>
  <time>2026-09-01T01:13:51Z</time>
  <course>0.0</course>
  <speed>0.0</speed>
  <fix>3d</fix>
</trkpt>
<trkpt lat="33.810313" lon="-118.393867">
  <ele>-0.122</ele>
  <time>2026-09-01T01:13:51Z</time>
  <course>187.3</course>
  <speed>0.03605551275463989</speed>
  <fix>3d</fix>
</trkpt>
<trkpt lat="33.810313" lon="-118.393867">
  <ele>-0.12</ele>
  <time>2026-09-01T01:13:51Z</time>
  <course>0.0</course>
  <speed>0.0</speed>
  <fix>3d</fix>
</trkpt>
<trkpt lat="33.810313" lon="-118.393867">
  <ele>-0.121</ele>
  <time>2026-09-01T01:13:51Z</time>
  <course>187.29</course>
  <speed>0.03605551275463989</speed>
  <fix>3d</fix>
</trkpt>
<trkpt lat="33.810313" lon="-118.393867">
  <ele>-0.12</ele>
  <time>2026-09-01T01:13:51Z</time>
  <course>0.0</course>
  <speed>0.0</speed>
  <fix>3d</fix>
</trkpt>
<trkpt lat="33.810313" lon="-118.393867">
  <ele>-0.122</ele>
  <time>2026-09-01T01:13:51Z</time>
  <course>187.29</course>
  <speed>0.03605551275463989</speed>
  <fix>3d</fix>
</trkpt>
<trkpt lat="33.810313" lon="-118.393867">
  <ele>-0.12</ele>
  <time>2026-09-01T01:13:51Z</time>
  <course>0.0</course>
  <speed>0.0</speed>
  <fix>3d</fix>
</trkpt>
<trkpt lat="33.810313" lon="-118.393867">
  <ele>-0.124</ele>
  <time>2026-09-01T01:13:51Z</time>
  <course>187.28</course>
  <speed>0.03605551275463989</speed>
  <fix>3d</fix>
</trkpt>
<trkpt lat="33.810313" lon="-118.393867">
  <ele>-0.12</ele>
  <time>2026-09-01T01:13:51Z</time>
  <course>0.0</course>
  <speed>0.0</speed>
  <fix>3d</fix>
</trkpt>
<trkpt lat="33.810313" lon="-118.393867">
  <ele>-0.128</ele>
  <time>2026-09-01T01:13:51Z</time>
  <course>187.28</course>
  <speed>0.03605551275463989</speed>
  <fix>3d</fix>
</trkpt>
<trkpt lat="33.810313" lon="-118.393867">
  <ele>-0.12</ele>
  <time>2026-09-01T01:13:51Z</time>
  <course>0.0</course>
  <speed>0.0</speed>
  <fix>3d</fix>
</trkpt>
<trkpt lat="33.810313" lon="-118.393867">
  <ele>-0.13</ele>
  <time>2026-09-01T01:13:51Z</time>
  <course>187.27</course>
  <speed>0.03605551275463989</speed>
  <fix>3d</fix>
</trkpt>
<trkpt lat="33.810313" lon="-118.393867">
  <ele>-0.12</ele>
  <time>2026-09-01T01:13:51Z</time>
  <course>0.0</course>
  <speed>0.0</speed>
  <fix>3d</fix>
</trkpt>
<trkpt lat="33.810313" lon="-118.393867">
  <ele>-0.133</ele>
  <time>2026-09-01T01:13:51Z</time>
  <course>187.27</course>
  <speed>0.03605551275463989</speed>
  <fix>3d</fix>
</trkpt>
<trkpt lat="33.810313" lon="-118.393867">
  <ele>-0.12</ele>
  <time>2026-09-01T01:13:51Z</time>
  <course>0.0</course>
  <speed>0.0</speed>
  <fix>3d</fix>
</trkpt>
<trkpt lat="33.810313" lon="-118.393867">
  <ele>-0.135</ele>
  <time>2026-09-01T01:13:51Z</time>
  <course>187.26</course>
  <speed>0.03605551275463989</speed>
  <fix>3d</fix>
</trkpt>
<trkpt lat="33.810313" lon="-118.393867">
  <ele>-0.12</ele>
  <time>2026-09-01T01:13:51Z</time>
  <course>0.0</course>
  <speed>0.0</speed>
  <fix>3d</fix>
</trkpt>
<trkpt lat="33.810313" lon="-118.393867">
  <ele>-0.136</ele>
  <time>2026-09-01T01:13:51Z</time>
  <course>187.26</course>
  <speed>0.03605551275463989</speed>
  <fix>3d</fix>
</trkpt>
<trkpt lat="33.810313" lon="-118.393867">
  <ele>-0.12</ele>
  <time>2026-09-01T01:13:51Z</time>
  <course>0.0</course>
  <speed>0.0</speed>
  <fix>3d</fix>
</trkpt>
<trkpt lat="33.810313" lon="-118.393867">
  <ele>-0.136</ele>
  <time>2026-09-01T01:13:51Z</time>
  <course>187.25</course>
  <speed>0.03605551275463989</speed>
  <fix>3d</fix>
</trkpt>
<trkpt lat="33.810313" lon="-118.393867">
  <ele>-0.12</ele>
  <time>2026-09-01T01:13:51Z</time>
  <course>0.0</course>
  <speed>0.0</speed>
  <fix>3d</fix>
</trkpt>
<trkpt lat="33.810313" lon="-118.393867">
  <ele>-0.135</ele>
  <time>2026-09-01T01:13:51Z</time>
  <course>187.25</course>
  <speed>0.03605551275463989</speed>
  <fix>3d</fix>
</trkpt>
<trkpt lat="33.810313" lon="-118.393867">
  <ele>-0.12</ele>
  <time>2026-09-01T01:13:51Z</time>
  <course>0.0</course>
  <speed>0.0</speed>
  <fix>3d</fix>
</trkpt>
<trkpt lat="33.810313" lon="-118.393867">
  <ele>-0.134</ele>
  <time>2026-09-01T01:13:51Z</time>
  <course>187.24</course>
  <speed>0.03605551275463989</speed>
  <fix>3d</fix>
</trkpt>
<trkpt lat="33.810313" lon="-118.393867">
  <ele>-0.12</ele>
  <time>2026-09-01T01:13:51Z</time>
  <course>0.0</course>
  <speed>0.0</speed>
  <fix>3d</fix>
</trkpt>
<trkpt lat="33.810313" lon="-118.393867">
  <ele>-0.132</ele>
  <time>2026-09-01T01:13:51Z</time>
  <course>187.24</course>
  <speed>0.03605551275463989</speed>
  <fix>3d</fix>
</trkpt>
<trkpt lat="33.810313" lon="-118.393867">
  <ele>-0.12</ele>
  <time>2026-09-01T01:13:51Z</time>
  <course>0.0</course>
  <speed>0.0</speed>
  <fix>3d</fix>
</trkpt>
<trkpt lat="33.810313" lon="-118.393867">
  <ele>-0.131</ele>
  <time>2026-09-01T01:13:51Z</time>
  <course>187.23</course>
  <speed>0.03605551275463989</speed>
  <fix>3d</fix>
</trkpt>
<trkpt lat="33.810313" lon="-118.393867">
  <ele>-0.12</ele>
  <time>2026-09-01T01:13:51Z</time>
  <course>0.0</course>
  <speed>0.0</speed>
  <fix>3d</fix>
</trkpt>
<trkpt lat="33.810313" lon="-118.393867">
  <ele>-0.131</ele>
  <time>2026-09-01T01:13:51Z</time>
  <course>187.22</course>
  <speed>0.03605551275463989</speed>
  <fix>3d</fix>
</trkpt>
<trkpt lat="33.810313" lon="-118.393867">
  <ele>-0.12</ele>
  <time>2026-09-01T01:13:51Z</time>
  <course>0.0</course>
  <speed>0.0</speed>
  <fix>3d</fix>
</trkpt>
<trkpt lat="33.810313" lon="-118.393867">
  <ele>-0.132</ele>
  <time>2026-09-01T01:13:51Z</time>
  <course>187.22</course>
  <speed>0.03605551275463989</speed>
  <fix>3d</fix>
</trkpt>
<trkpt lat="33.810313" lon="-118.393867">
  <ele>-0.12</ele>
  <time>2026-09-01T01:13:51Z</time>
  <course>0.0</course>
  <speed>0.0</speed>
  <fix>3d</fix>
</trkpt>
<trkpt lat="33.810313" lon="-118.393867">
  <ele>-0.132</ele>
  <time>2026-09-01T01:13:51Z</time>
  <course>187.21</course>
  <speed>0.03605551275463989</speed>
  <fix>3d</fix>
</trkpt>
<trkpt lat="33.810313" lon="-118.393867">
  <ele>-0.12</ele>
  <time>2026-09-01T01:13:51Z</time>
  <course>0.0</course>
  <speed>0.0</speed>
  <fix>3d</fix>
</trkpt>
<trkpt lat="33.810313" lon="-118.393867">
  <ele>-0.133</ele>
  <time>2026-09-01T01:13:51Z</time>
  <course>187.21</course>
  <speed>0.03605551275463989</speed>
  <fix>3d</fix>
</trkpt>
<trkpt lat="33.810313" lon="-118.393867">
  <ele>-0.12</ele>
  <time>2026-09-01T01:13:51Z</time>
  <course>0.0</course>
  <speed>0.0</speed>
  <fix>3d</fix>
</trkpt>
<trkpt lat="33.810313" lon="-118.393867">
  <ele>-0.132</ele>
  <time>2026-09-01T01:13:51Z</time>
  <course>187.2</course>
  <speed>0.03605551275463989</speed>
  <fix>3d</fix>
</trkpt>
<trkpt lat="33.810313" lon="-118.393867">
  <ele>-0.12</ele>
  <time>2026-09-01T01:13:51Z</time>
  <course>0.0</course>
  <speed>0.0</speed>
  <fix>3d</fix>
</trkpt>
<trkpt lat="33.810313" lon="-118.393867">
  <ele>-0.131</ele>
  <time>2026-09-01T01:13:51Z</time>
  <course>187.2</course>
  <speed>0.03605551275463989</speed>
  <fix>3d</fix>
</trkpt>
<trkpt lat="33.810313" lon="-118.393867">
  <ele>-0.12</ele>
  <time>2026-09-01T01:13:51Z</time>
  <course>0.0</course>
  <speed>0.0</speed>
  <fix>3d</fix>
</trkpt>
<trkpt lat="33.810313" lon="-118.393867">
  <ele>-0.129</ele>
  <time>2026-09-01T01:13:51Z</time>
  <course>187.19</course>
  <speed>0.03605551275463989</speed>
  <fix>3d</fix>
</trkpt>
<trkpt lat="33.810313" lon="-118.393867">
  <ele>-0.12</ele>
  <time>2026-09-01T01:13:51Z</time>
  <course>0.0</course>
  <speed>0.0</speed>
  <fix>3d</fix>
</trkpt>
<trkpt lat="33.810313" lon="-118.393867">
  <ele>-0.126</ele>
  <time>2026-09-01T01:13:51Z</time>
  <course>187.19</course>
  <speed>0.03605551275463989</speed>
  <fix>3d</fix>
</trkpt>
<trkpt lat="33.810313" lon="-118.393867">
  <ele>-0.12</ele>
  <time>2026-09-01T01:13:51Z</time>
  <course>0.0</course>
  <speed>0.0</speed>
  <fix>3d</fix>
</trkpt>
<trkpt lat="33.810313" lon="-118.393867">
  <ele>-0.124</ele>
  <time>2026-09-01T01:13:51Z</time>
  <course>187.18</course>
  <speed>0.03605551275463989</speed>
  <fix>3d</fix>
</trkpt>
<trkpt lat="33.810313" lon="-118.393867">
  <ele>-0.12</ele>
  <time>2026-09-01T01:13:51Z</time>
  <course>0.0</course>
  <speed>0.0</speed>
  <fix>3d</fix>
</trkpt>
<trkpt lat="33.810313" lon="-118.393867">
  <ele>-0.123</ele>
  <time>2026-09-01T01:13:51Z</time>
  <course>187.18</course>
  <speed>0.03605551275463989</speed>
  <fix>3d</fix>
</trkpt>
<trkpt lat="33.810313" lon="-118.393867">
  <ele>-0.12</ele>
  <time>2026-09-01T01:13:51Z</time>
  <course>0.0</course>
  <speed>0.0</speed>
  <fix>3d</fix>
</trkpt>
<trkpt lat="33.810313" lon="-118.393867">
  <ele>-0.123</ele>
  <time>2026-09-01T01:13:51Z</time>
  <course>187.17</course>
  <speed>0.03605551275463989</speed>
  <fix>3d</fix>
</trkpt>
<trkpt lat="33.810313" lon="-118.393867">
  <ele>-0.12</ele>
  <time>2026-09-01T01:13:51Z</time>
  <course>0.0</course>
  <speed>0.0</speed>
  <fix>3d</fix>
</trkpt>
<trkpt lat="33.810313" lon="-118.393867">
  <ele>-0.122</ele>
  <time>2026-09-01T01:13:51Z</time>
  <course>187.17</course>
  <speed>0.0</speed>
  <fix>3d</fix>
</trkpt>
<trkpt lat="33.810313" lon="-118.393867">
  <ele>-0.12</ele>
  <time>2026-09-01T01:13:51Z</time>
  <course>0.0</course>
  <speed>0.0</speed>
  <fix>3d</fix>
</trkpt>
<trkpt lat="33.810313" lon="-118.393867">
  <ele>-0.121</ele>
  <time>2026-09-01T01:13:51Z</time>
  <course>187.16</course>
  <speed>0.0</speed>
  <fix>3d</fix>
</trkpt>
<trkpt lat="33.810313" lon="-118.393867">
  <ele>-0.12</ele>
  <time>2026-09-01T01:13:51Z</time>
  <course>0.0</course>
  <speed>0.0</speed>
  <fix>3d</fix>
</trkpt>
<trkpt lat="33.810313" lon="-118.393867">
  <ele>-0.12</ele>
  <time>2026-09-01T01:13:51Z</time>
  <course>187.16</course>
  <speed>0.0</speed>
  <fix>3d</fix>
</trkpt>
<trkpt lat="33.810313" lon="-118.393867">
  <ele>-0.12</ele>
  <time>2026-09-01T01:13:51Z</time>
  <course>0.0</course>
  <speed>0.0</speed>
  <fix>3d</fix>
</trkpt>
<trkpt lat="33.810313" lon="-118.393867">
  <ele>-0.119</ele>
  <time>2026-09-01T01:13:51Z</time>
  <course>187.15</course>
  <speed>0.0</speed>
  <fix>3d</fix>
</trkpt>
<trkpt lat="33.810313" lon="-118.393867">
  <ele>-0.12</ele>
  <time>2026-09-01T01:13:51Z</time>
  <course>0.0</course>
  <speed>0.0</speed>
  <fix>3d</fix>
</trkpt>
<trkpt lat="33.810313" lon="-118.393867">
  <ele>-0.116</ele>
  <time>2026-09-01T01:13:51Z</time>
  <course>187.15</course>
  <speed>0.0</speed>
  <fix>3d</fix>
</trkpt>
<trkpt lat="33.810313" lon="-118.393867">
  <ele>-0.12</ele>
  <time>2026-09-01T01:13:51Z</time>
  <course>0.0</course>
  <speed>0.0</speed>
  <fix>3d</fix>
</trkpt>
<trkpt lat="33.810313" lon="-118.393867">
  <ele>-0.114</ele>
  <time>2026-09-01T01:13:51Z</time>
  <course>187.14</course>
  <speed>0.0</speed>
  <fix>3d</fix>
</trkpt>
<trkpt lat="33.810313" lon="-118.393867">
  <ele>-0.12</ele>
  <time>2026-09-01T01:13:51Z</time>
  <course>0.0</course>
  <speed>0.0</speed>
  <fix>3d</fix>
</trkpt>
<trkpt lat="33.810313" lon="-118.393867">
  <ele>-0.113</ele>
  <time>2026-09-01T01:13:51Z</time>
  <course>187.14</course>
  <speed>0.0</speed>
  <fix>3d</fix>
</trkpt>
<trkpt lat="33.810313" lon="-118.393867">
  <ele>-0.12</ele>
  <time>2026-09-01T01:13:51Z</time>
  <course>0.0</course>
  <speed>0.0</speed>
  <fix>3d</fix>
</trkpt>
<trkpt lat="33.810313" lon="-118.393867">
  <ele>-0.112</ele>
  <time>2026-09-01T01:13:51Z</time>
  <course>187.13</course>
  <speed>0.0</speed>
  <fix>3d</fix>
</trkpt>
<trkpt lat="33.810313" lon="-118.393867">
  <ele>-0.12</ele>
  <time>2026-09-01T01:13:51Z</time>
  <course>0.0</course>
  <speed>0.0</speed>
  <fix>3d</fix>
</trkpt>
<trkpt lat="33.810313" lon="-118.393867">
  <ele>-0.113</ele>
  <time>2026-09-01T01:13:51Z</time>
  <course>187.13</course>
  <speed>0.0</speed>
  <fix>3d</fix>
</trkpt>
<trkpt lat="33.810313" lon="-118.393867">
  <ele>-0.12</ele>
  <time>2026-09-01T01:13:51Z</time>
  <course>0.0</course>
  <speed>0.0</speed>
  <fix>3d</fix>
</trkpt>
<trkpt lat="33.810313" lon="-118.393867">
  <ele>-0.114</ele>
  <time>2026-09-01T01:13:51Z</time>
  <course>187.12</course>
  <speed>0.0</speed>
  <fix>3d</fix>
</trkpt>
<trkpt lat="33.810313" lon="-118.393867">
  <ele>-0.12</ele>
  <time>2026-09-01T01:13:51Z</time>
  <course>0.0</course>
  <speed>0.0</speed>
  <fix>3d</fix>
</trkpt>
<trkpt lat="33.810313" lon="-118.393867">
  <ele>-0.117</ele>
  <time>2026-09-01T01:13:51Z</time>
  <course>187.12</course>
  <speed>0.0</speed>
  <fix>3d</fix>
</trkpt>
<trkpt lat="33.810313" lon="-118.393867">
  <ele>-0.12</ele>
  <time>2026-09-01T01:13:51Z</time>
  <course>0.0</course>
  <speed>0.0</speed>
  <fix>3d</fix>
</trkpt>
<trkpt lat="33.810313" lon="-118.393867">
  <ele>-0.119</ele>
  <time>2026-09-01T01:13:51Z</time>
  <course>187.11</course>
  <speed>0.01</speed>
  <fix>3d</fix>
</trkpt>
<trkpt lat="33.810313" lon="-118.393867">
  <ele>-0.12</ele>
  <time>2026-09-01T01:13:51Z</time>
  <course>0.0</course>
  <speed>0.0</speed>
  <fix>3d</fix>
</trkpt>
<trkpt lat="33.810313" lon="-118.393867">
  <ele>-0.12</ele>
  <time>2026-09-01T01:13:51Z</time>
  <course>187.11</course>
  <speed>0.01</speed>
  <fix>3d</fix>
</trkpt>
<trkpt lat="33.810313" lon="-118.393867">
  <ele>-0.12</ele>
  <time>2026-09-01T01:13:51Z</time>
  <course>0.0</course>
  <speed>0.0</speed>
  <fix>3d</fix>
</trkpt>
<trkpt lat="33.810313" lon="-118.393867">
  <ele>-0.121</ele>
  <time>2026-09-01T01:13:51Z</time>
  <course>187.1</course>
  <speed>0.01</speed>
  <fix>3d</fix>
</trkpt>
<trkpt lat="33.810313" lon="-118.393867">
  <ele>-0.12</ele>
  <time>2026-09-01T01:13:51Z</time>
  <course>0.0</course>
  <speed>0.0</speed>
  <fix>3d</fix>
</trkpt>
<trkpt lat="33.810313" lon="-118.393867">
  <ele>-0.122</ele>
  <time>2026-09-01T01:13:51Z</time>
  <course>187.1</course>
  <speed>0.01414213562373095</speed>
  <fix>3d</fix>
</trkpt>
<trkpt lat="33.810313" lon="-118.393867">
  <ele>-0.12</ele>
  <time>2026-09-01T01:13:51Z</time>
  <course>0.0</course>
  <speed>0.0</speed>
  <fix>3d</fix>
</trkpt>
<trkpt lat="33.810313" lon="-118.393867">
  <ele>-0.122</ele>
  <time>2026-09-01T01:13:51Z</time>
  <course>188.47</course>
  <speed>0.01414213562373095</speed>
  <fix>3d</fix>
</trkpt>
<trkpt lat="33.810313" lon="-118.393867">
  <ele>-0.12</ele>
  <time>2026-09-01T01:13:51Z</time>
  <course>0.0</course>
  <speed>0.0</speed>
  <fix>3d</fix>
</trkpt>
<trkpt lat="33.810313" lon="-118.393867">
  <ele>-0.123</ele>
  <time>2026-09-01T01:13:51Z</time>
  <course>191.4</course>
  <speed>0.01414213562373095</speed>
  <fix>3d</fix>
</trkpt>
<trkpt lat="33.810313" lon="-118.393867">
  <ele>-0.12</ele>
  <time>2026-09-01T01:13:51Z</time>
  <course>0.0</course>
  <speed>0.0</speed>
  <fix>3d</fix>
</trkpt>
<trkpt lat="33.810313" lon="-118.393867">
  <ele>-0.124</ele>
  <time>2026-09-01T01:13:51Z</time>
  <course>194.47</course>
  <speed>0.01414213562373095</speed>
  <fix>3d</fix>
</trkpt>
<trkpt lat="33.810313" lon="-118.393867">
  <ele>-0.12</ele>
  <time>2026-09-01T01:13:51Z</time>
  <course>0.0</course>
  <speed>0.0</speed>
  <fix>3d</fix>
</trkpt>
<trkpt lat="33.810313" lon="-118.393867">
  <ele>-0.126</ele>
  <time>2026-09-01T01:13:51Z</time>
  <course>197.56</course>
  <speed>0.01414213562373095</speed>
  <fix>3d</fix>
</trkpt>
<trkpt lat="33.810313" lon="-118.393867">
  <ele>-0.12</ele>
  <time>2026-09-01T01:13:51Z</time>
  <course>0.0</course>
  <speed>0.0</speed>
  <fix>3d</fix>
</trkpt>
<trkpt lat="33.810313" lon="-118.393867">
  <ele>-0.128</ele>
  <time>2026-09-01T01:13:51Z</time>
  <course>200.65</course>
  <speed>0.01414213562373095</speed>
  <fix>3d</fix>
</trkpt>
<trkpt lat="33.810313" lon="-118.393867">
  <ele>-0.12</ele>
  <time>2026-09-01T01:13:51Z</time>
  <course>0.0</course>
  <speed>0.0</speed>
  <fix>3d</fix>
</trkpt>
<trkpt lat="33.810313" lon="-118.393867">
  <ele>-0.131</ele>
  <time>2026-09-01T01:13:51Z</time>
  <course>203.74</course>
  <speed>0.01414213562373095</speed>
  <fix>3d</fix>
</trkpt>
<trkpt lat="33.810313" lon="-118.393867">
  <ele>-0.12</ele>
  <time>2026-09-01T01:13:51Z</time>
  <course>0.0</course>
  <speed>0.0</speed>
  <fix>3d</fix>
</trkpt>
<trkpt lat="33.810313" lon="-118.393867">
  <ele>-0.134</ele>
  <time>2026-09-01T01:13:51Z</time>
  <course>206.83</course>
  <speed>0.01414213562373095</speed>
  <fix>3d</fix>
</trkpt>
<trkpt lat="33.810313" lon="-118.393867">
  <ele>-0.12</ele>
  <time>2026-09-01T01:13:51Z</time>
  <course>0.0</course>
  <speed>0.0</speed>
  <fix>3d</fix>
</trkpt>
<trkpt lat="33.810313" lon="-118.393867">
  <ele>-0.136</ele>
  <time>2026-09-01T01:13:51Z</time>
  <course>209.91</course>
  <speed>0.01414213562373095</speed>
  <fix>3d</fix>
</trkpt>
<trkpt lat="33.810313" lon="-118.393867">
  <ele>-0.12</ele>
  <time>2026-09-01T01:13:51Z</time>
  <course>0.0</course>
  <speed>0.0</speed>
  <fix>3d</fix>
</trkpt>
<trkpt lat="33.810313" lon="-118.393867">
  <ele>-0.137</ele>
  <time>2026-09-01T01:13:51Z</time>
  <course>213.0</course>
  <speed>0.01414213562373095</speed>
  <fix>3d</fix>
</trkpt>
<trkpt lat="33.810313" lon="-118.393867">
  <ele>-0.12</ele>
  <time>2026-09-01T01:13:51Z</time>
  <course>0.0</course>
  <speed>0.0</speed>
  <fix>3d</fix>
</trkpt>
<trkpt lat="33.810313" lon="-118.393867">
  <ele>-0.137</ele>
  <time>2026-09-01T01:13:51Z</time>
  <course>216.09</course>
  <speed>0.01414213562373095</speed>
  <fix>3d</fix>
</trkpt>
<trkpt lat="33.810313" lon="-118.393867">
  <ele>-0.12</ele>
  <time>2026-09-01T01:13:51Z</time>
  <course>0.0</course>
  <speed>0.0</speed>
  <fix>3d</fix>
</trkpt>
<trkpt lat="33.810313" lon="-118.393867">
  <ele>-0.135</ele>
  <time>2026-09-01T01:13:51Z</time>
  <course>219.2</course>
  <speed>0.01414213562373095</speed>
  <fix>3d</fix>
</trkpt>
<trkpt lat="33.810313" lon="-118.393867">
  <ele>-0.12</ele>
  <time>2026-09-01T01:13:51Z</time>
  <course>0.0</course>
  <speed>0.0</speed>
  <fix>3d</fix>
</trkpt>
<trkpt lat="33.810313" lon="-118.393867">
  <ele>-0.133</ele>
  <time>2026-09-01T01:13:51Z</time>
  <course>222.29</course>
  <speed>0.01414213562373095</speed>
  <fix>3d</fix>
</trkpt>
<trkpt lat="33.810313" lon="-118.393867">
  <ele>-0.12</ele>
  <time>2026-09-01T01:13:51Z</time>
  <course>0.0</course>
  <speed>0.0</speed>
  <fix>3d</fix>
</trkpt>
<trkpt lat="33.810313" lon="-118.393867">
  <ele>-0.131</ele>
  <time>2026-09-01T01:13:51Z</time>
  <course>225.38</course>
  <speed>0.01414213562373095</speed>
  <fix>3d</fix>
</trkpt>
<trkpt lat="33.810313" lon="-118.393867">
  <ele>-0.12</ele>
  <time>2026-09-01T01:13:51Z</time>
  <course>0.0</course>
  <speed>0.0</speed>
  <fix>3d</fix>
</trkpt>
<trkpt lat="33.810313" lon="-118.393867">
  <ele>-0.129</ele>
  <time>2026-09-01T01:13:51Z</time>
  <course>228.47</course>
  <speed>0.01414213562373095</speed>
  <fix>3d</fix>
</trkpt>
<trkpt lat="33.810313" lon="-118.393867">
  <ele>-0.12</ele>
  <time>2026-09-01T01:13:51Z</time>
  <course>0.0</course>
  <speed>0.0</speed>
  <fix>3d</fix>
</trkpt>
<trkpt lat="33.810313" lon="-118.393867">
  <ele>-0.129</ele>
  <time>2026-09-01T01:13:51Z</time>
  <course>231.55</course>
  <speed>0.01414213562373095</speed>
  <fix>3d</fix>
</trkpt>
<trkpt lat="33.810313" lon="-118.393867">
  <ele>-0.12</ele>
  <time>2026-09-01T01:13:51Z</time>
  <course>0.0</course>
  <speed>0.0</speed>
  <fix>3d</fix>
</trkpt>
<trkpt lat="33.810313" lon="-118.393867">
  <ele>-0.128</ele>
  <time>2026-09-01T01:13:51Z</time>
  <course>234.64</course>
  <speed>0.01</speed>
  <fix>3d</fix>
</trkpt>
<trkpt lat="33.810313" lon="-118.393867">
  <ele>-0.12</ele>
  <time>2026-09-01T01:13:51Z</time>
  <course>0.0</course>
  <speed>0.0</speed>
  <fix>3d</fix>
</trkpt>
<trkpt lat="33.810313" lon="-118.393867">
  <ele>-0.129</ele>
  <time>2026-09-01T01:13:51Z</time>
  <course>237.73</course>
  <speed>0.01</speed>
  <fix>3d</fix>
</trkpt>
<trkpt lat="33.810313" lon="-118.393867">
  <ele>-0.12</ele>
  <time>2026-09-01T01:13:51Z</time>
  <course>0.0</course>
  <speed>0.0</speed>
  <fix>3d</fix>
</trkpt>
<trkpt lat="33.810313" lon="-118.393867">
  <ele>-0.13</ele>
  <time>2026-09-01T01:13:51Z</time>
  <course>240.82</course>
  <speed>0.01</speed>
  <fix>3d</fix>
</trkpt>
<trkpt lat="33.810313" lon="-118.393867">
  <ele>-0.12</ele>
  <time>2026-09-01T01:13:51Z</time>
  <course>0.0</course>
  <speed>0.0</speed>
  <fix>3d</fix>
</trkpt>
<trkpt lat="33.810313" lon="-118.393867">
  <ele>-0.131</ele>
  <time>2026-09-01T01:13:51Z</time>
  <course>243.9</course>
  <speed>0.01</speed>
  <fix>3d</fix>
</trkpt>
<trkpt lat="33.810313" lon="-118.393867">
  <ele>-0.12</ele>
  <time>2026-09-01T01:13:51Z</time>
  <course>0.0</course>
  <speed>0.0</speed>
  <fix>3d</fix>
</trkpt>
<trkpt lat="33.810313" lon="-118.393867">
  <ele>-0.13</ele>
  <time>2026-09-01T01:13:51Z</time>
  <course>246.99</course>
  <speed>0.01</speed>
  <fix>3d</fix>
</trkpt>
<trkpt lat="33.810313" lon="-118.393867">
  <ele>-0.12</ele>
  <time>2026-09-01T01:13:51Z</time>
  <course>0.0</course>
  <speed>0.0</speed>
  <fix>3d</fix>
</trkpt>
<trkpt lat="33.810313" lon="-118.393867">
  <ele>-0.13</ele>
  <time>2026-09-01T01:13:51Z</time>
  <course>250.08</course>
  <speed>0.01</speed>
  <fix>3d</fix>
</trkpt>
<trkpt lat="33.810313" lon="-118.393867">
  <ele>-0.12</ele>
  <time>2026-09-01T01:13:51Z</time>
  <course>0.0</course>
  <speed>0.0</speed>
  <fix>3d</fix>
</trkpt>
<trkpt lat="33.810313" lon="-118.393867">
  <ele>-0.129</ele>
  <time>2026-09-01T01:13:51Z</time>
  <course>253.17</course>
  <speed>0.01</speed>
  <fix>3d</fix>
</trkpt>
<trkpt lat="33.810313" lon="-118.393867">
  <ele>-0.12</ele>
  <time>2026-09-01T01:13:51Z</time>
  <course>0.0</course>
  <speed>0.0</speed>
  <fix>3d</fix>
</trkpt>
<trkpt lat="33.810313" lon="-118.393867">
  <ele>-0.128</ele>
  <time>2026-09-01T01:13:51Z</time>
  <course>256.25</course>
  <speed>0.01</speed>
  <fix>3d</fix>
</trkpt>
<trkpt lat="33.810313" lon="-118.393867">
  <ele>-0.12</ele>
  <time>2026-09-01T01:13:51Z</time>
  <course>0.0</course>
  <speed>0.0</speed>
  <fix>3d</fix>
</trkpt>
<trkpt lat="33.810313" lon="-118.393867">
  <ele>-0.128</ele>
  <time>2026-09-01T01:13:51Z</time>
  <course>259.34</course>
  <speed>0.01</speed>
  <fix>3d</fix>
</trkpt>
<trkpt lat="33.810313" lon="-118.393867">
  <ele>-0.12</ele>
  <time>2026-09-01T01:13:51Z</time>
  <course>0.0</course>
  <speed>0.0</speed>
  <fix>3d</fix>
</trkpt>
<trkpt lat="33.810313" lon="-118.393867">
  <ele>-0.128</ele>
  <time>2026-09-01T01:13:51Z</time>
  <course>262.43</course>
  <speed>0.01</speed>
  <fix>3d</fix>
</trkpt>
<trkpt lat="33.810313" lon="-118.393867">
  <ele>-0.12</ele>
  <time>2026-09-01T01:13:51Z</time>
  <course>0.0</course>
  <speed>0.0</speed>
  <fix>3d</fix>
</trkpt>
<trkpt lat="33.810313" lon="-118.393867">
  <ele>-0.129</ele>
  <time>2026-09-01T01:13:51Z</time>
  <course>265.52</course>
  <speed>0.01</speed>
  <fix>3d</fix>
</trkpt>
<trkpt lat="33.810313" lon="-118.393867">
  <ele>-0.12</ele>
  <time>2026-09-01T01:13:51Z</time>
  <course>0.0</course>
  <speed>0.0</speed>
  <fix>3d</fix>
</trkpt>
<trkpt lat="33.810313" lon="-118.393867">
  <ele>-0.132</ele>
  <time>2026-09-01T01:13:51Z</time>
  <course>268.6</course>
  <speed>0.01</speed>
  <fix>3d</fix>
</trkpt>
<trkpt lat="33.810313" lon="-118.393867">
  <ele>-0.12</ele>
  <time>2026-09-01T01:13:51Z</time>
  <course>0.0</course>
  <speed>0.0</speed>
  <fix>3d</fix>
</trkpt>
<trkpt lat="33.810313" lon="-118.393867">
  <ele>-0.133</ele>
  <time>2026-09-01T01:13:51Z</time>
  <course>271.69</course>
  <speed>0.01</speed>
  <fix>3d</fix>
</trkpt>
<trkpt lat="33.810313" lon="-118.393867">
  <ele>-0.12</ele>
  <time>2026-09-01T01:13:51Z</time>
  <course>0.0</course>
  <speed>0.0</speed>
  <fix>3d</fix>
</trkpt>
<trkpt lat="33.810313" lon="-118.393867">
  <ele>-0.134</ele>
  <time>2026-09-01T01:13:51Z</time>
  <course>274.78</course>
  <speed>0.01</speed>
  <fix>3d</fix>
</trkpt>
<trkpt lat="33.810313" lon="-118.393867">
  <ele>-0.12</ele>
  <time>2026-09-01T01:13:51Z</time>
  <course>0.0</course>
  <speed>0.0</speed>
  <fix>3d</fix>
</trkpt>
<trkpt lat="33.810313" lon="-118.393867">
  <ele>-0.132</ele>
  <time>2026-09-01T01:13:51Z</time>
  <course>277.87</course>
  <speed>0.01</speed>
  <fix>3d</fix>
</trkpt>
<trkpt lat="33.810313" lon="-118.393867">
  <ele>-0.12</ele>
  <time>2026-09-01T01:13:51Z</time>
  <course>0.0</course>
  <speed>0.0</speed>
  <fix>3d</fix>
</trkpt>
<trkpt lat="33.810313" lon="-118.393867">
  <ele>-0.131</ele>
  <time>2026-09-01T01:13:51Z</time>
  <course>280.96</course>
  <speed>0.02</speed>
  <fix>3d</fix>
</trkpt>
<trkpt lat="33.810313" lon="-118.393867">
  <ele>-0.12</ele>
  <time>2026-09-01T01:13:51Z</time>
  <course>0.0</course>
  <speed>0.0</speed>
  <fix>3d</fix>
</trkpt>
<trkpt lat="33.810313" lon="-118.3938671">
  <ele>-0.13</ele>
  <time>2026-09-01T01:13:51Z</time>
  <course>284.07</course>
  <speed>0.02</speed>
  <fix>3d</fix>
</trkpt>
<trkpt lat="33.810313" lon="-118.393867">
  <ele>-0.12</ele>
  <time>2026-09-01T01:13:51Z</time>
  <course>0.0</course>
  <speed>0.0</speed>
  <fix>3d</fix>
</trkpt>
<trkpt lat="33.810313" lon="-118.3938671">
  <ele>-0.129</ele>
  <time>2026-09-01T01:13:51Z</time>
  <course>287.16</course>
  <speed>0.02</speed>
  <fix>3d</fix>
</trkpt>
<trkpt lat="33.810313" lon="-118.393867">
  <ele>-0.12</ele>
  <time>2026-09-01T01:13:51Z</time>
  <course>0.0</course>
  <speed>0.0</speed>
  <fix>3d</fix>
</trkpt>
<trkpt lat="33.810313" lon="-118.3938671">
  <ele>-0.128</ele>
  <time>2026-09-01T01:13:51Z</time>
  <course>290.25</course>
  <speed>0.02</speed>
  <fix>3d</fix>
</trkpt>
<trkpt lat="33.810313" lon="-118.393867">
  <ele>-0.12</ele>
  <time>2026-09-01T01:13:51Z</time>
  <course>0.0</course>
  <speed>0.0</speed>
  <fix>3d</fix>
</trkpt>
<trkpt lat="33.810313" lon="-118.3938671">
  <ele>-0.128</ele>
  <time>2026-09-01T01:13:51Z</time>
  <course>293.33</course>
  <speed>0.02</speed>
  <fix>3d</fix>
</trkpt>
<trkpt lat="33.810313" lon="-118.393867">
  <ele>-0.12</ele>
  <time>2026-09-01T01:13:51Z</time>
  <course>0.0</course>
  <speed>0.0</speed>
  <fix>3d</fix>
</trkpt>
<trkpt lat="33.810313" lon="-118.3938671">
  <ele>-0.127</ele>
  <time>2026-09-01T01:13:51Z</time>
  <course>296.42</course>
  <speed>0.02</speed>
  <fix>3d</fix>
</trkpt>
<trkpt lat="33.810313" lon="-118.393867">
  <ele>-0.12</ele>
  <time>2026-09-01T01:13:51Z</time>
  <course>0.0</course>
  <speed>0.0</speed>
  <fix>3d</fix>
</trkpt>
<trkpt lat="33.810313" lon="-118.3938671">
  <ele>-0.128</ele>
  <time>2026-09-01T01:13:52Z</time>
  <course>299.51</course>
  <speed>0.02</speed>
  <fix>3d</fix>
</trkpt>
<trkpt lat="33.810313" lon="-118.393867">
  <ele>-0.12</ele>
  <time>2026-09-01T01:13:52Z</time>
  <course>0.0</course>
  <speed>0.0</speed>
  <fix>3d</fix>
</trkpt>
<trkpt lat="33.810313" lon="-118.3938671">
  <ele>-0.128</ele>
  <time>2026-09-01T01:13:52Z</time>
  <course>302.6</course>
  <speed>0.02</speed>
  <fix>3d</fix>
</trkpt>
<trkpt lat="33.810313" lon="-118.393867">
  <ele>-0.12</ele>
  <time>2026-09-01T01:13:52Z</time>
  <course>0.0</course>
  <speed>0.0</speed>
  <fix>3d</fix>
</trkpt>
<trkpt lat="33.810313" lon="-118.3938671">
  <ele>-0.127</ele>
  <time>2026-09-01T01:13:52Z</time>
  <course>305.69</course>
  <speed>0.02</speed>
  <fix>3d</fix>
</trkpt>
<trkpt lat="33.810313" lon="-118.393867">
  <ele>-0.12</ele>
  <time>2026-09-01T01:13:52Z</time>
  <course>0.0</course>
  <speed>0.0</speed>
  <fix>3d</fix>
</trkpt>
<trkpt lat="33.810313" lon="-118.3938671">
  <ele>-0.127</ele>
  <time>2026-09-01T01:13:52Z</time>
  <course>308.78</course>
  <speed>0.02</speed>
  <fix>3d</fix>
</trkpt>
<trkpt lat="33.810313" lon="-118.393867">
  <ele>-0.12</ele>
  <time>2026-09-01T01:13:52Z</time>
  <course>0.0</course>
  <speed>0.0</speed>
  <fix>3d</fix>
</trkpt>
<trkpt lat="33.810313" lon="-118.3938671">
  <ele>-0.125</ele>
  <time>2026-09-01T01:13:52Z</time>
  <course>311.87</course>
  <speed>0.02</speed>
  <fix>3d</fix>
</trkpt>
<trkpt lat="33.810313" lon="-118.393867">
  <ele>-0.12</ele>
  <time>2026-09-01T01:13:52Z</time>
  <course>0.0</course>
  <speed>0.0</speed>
  <fix>3d</fix>
</trkpt>
<trkpt lat="33.810313" lon="-118.3938671">
  <ele>-0.124</ele>
  <time>2026-09-01T01:13:52Z</time>
  <course>314.95</course>
  <speed>0.02</speed>
  <fix>3d</fix>
</trkpt>
<trkpt lat="33.810313" lon="-118.393867">
  <ele>-0.12</ele>
  <time>2026-09-01T01:13:52Z</time>
  <course>0.0</course>
  <speed>0.0</speed>
  <fix>3d</fix>
</trkpt>
<trkpt lat="33.810313" lon="-118.3938671">
  <ele>-0.122</ele>
  <time>2026-09-01T01:13:52Z</time>
  <course>318.04</course>
  <speed>0.02</speed>
  <fix>3d</fix>
</trkpt>
<trkpt lat="33.810313" lon="-118.393867">
  <ele>-0.12</ele>
  <time>2026-09-01T01:13:52Z</time>
  <course>0.0</course>
  <speed>0.0</speed>
  <fix>3d</fix>
</trkpt>
<trkpt lat="33.810313" lon="-118.3938671">
  <ele>-0.121</ele>
  <time>2026-09-01T01:13:52Z</time>
  <course>321.13</course>
  <speed>0.02</speed>
  <fix>3d</fix>
</trkpt>
<trkpt lat="33.810313" lon="-118.393867">
  <ele>-0.12</ele>
  <time>2026-09-01T01:13:52Z</time>
  <course>0.0</course>
  <speed>0.0</speed>
  <fix>3d</fix>
</trkpt>
<trkpt lat="33.810313" lon="-118.3938671">
  <ele>-0.12</ele>
  <time>2026-09-01T01:13:52Z</time>
  <course>324.22</course>
  <speed>0.02</speed>
  <fix>3d</fix>
</trkpt>
<trkpt lat="33.810313" lon="-118.393867">
  <ele>-0.12</ele>
  <time>2026-09-01T01:13:52Z</time>
  <course>0.0</course>
  <speed>0.0</speed>
  <fix>3d</fix>
</trkpt>
<trkpt lat="33.810313" lon="-118.3938671">
  <ele>-0.119</ele>
  <time>2026-09-01T01:13:52Z</time>
  <course>327.31</course>
  <speed>0.03</speed>
  <fix>3d</fix>
</trkpt>
<trkpt lat="33.810313" lon="-118.393867">
  <ele>-0.12</ele>
  <time>2026-09-01T01:13:52Z</time>
  <course>0.0</course>
  <speed>0.0</speed>
  <fix>3d</fix>
</trkpt>
<trkpt lat="33.810313" lon="-118.3938671">
  <ele>-0.119</ele>
  <time>2026-09-01T01:13:52Z</time>
  <course>330.4</course>
  <speed>0.03</speed>
  <fix>3d</fix>
</trkpt>
<trkpt lat="33.810313" lon="-118.393867">
  <ele>-0.12</ele>
  <time>2026-09-01T01:13:52Z</time>
  <course>0.0</course>
  <speed>0.0</speed>
  <fix>3d</fix>
</trkpt>
<trkpt lat="33.810313" lon="-118.3938671">
  <ele>-0.119</ele>
  <time>2026-09-01T01:13:52Z</time>
  <course>333.49</course>
  <speed>0.03</speed>
  <fix>3d</fix>
</trkpt>
<trkpt lat="33.810313" lon="-118.393867">
  <ele>-0.12</ele>
  <time>2026-09-01T01:13:52Z</time>
  <course>0.0</course>
  <speed>0.0</speed>
  <fix>3d</fix>
</trkpt>
<trkpt lat="33.810313" lon="-118.3938671">
  <ele>-0.119</ele>
  <time>2026-09-01T01:13:52Z</time>
  <course>336.58</course>
  <speed>0.03</speed>
  <fix>3d</fix>
</trkpt>
<trkpt lat="33.810313" lon="-118.393867">
  <ele>-0.12</ele>
  <time>2026-09-01T01:13:52Z</time>
  <course>0.0</course>
  <speed>0.0</speed>
  <fix>3d</fix>
</trkpt>
<trkpt lat="33.810313" lon="-118.3938671">
  <ele>-0.119</ele>
  <time>2026-09-01T01:13:52Z</time>
  <course>339.67</course>
  <speed>0.03</speed>
  <fix>3d</fix>
</trkpt>
<trkpt lat="33.810313" lon="-118.393867">
  <ele>-0.12</ele>
  <time>2026-09-01T01:13:52Z</time>
  <course>0.0</course>
  <speed>0.0</speed>
  <fix>3d</fix>
</trkpt>
<trkpt lat="33.810313" lon="-118.3938672">
  <ele>-0.119</ele>
  <time>2026-09-01T01:13:52Z</time>
  <course>342.76</course>
  <speed>0.03</speed>
  <fix>3d</fix>
</trkpt>
<trkpt lat="33.810313" lon="-118.393867">
  <ele>-0.12</ele>
  <time>2026-09-01T01:13:52Z</time>
  <course>0.0</course>
  <speed>0.0</speed>
  <fix>3d</fix>
</trkpt>
<trkpt lat="33.810313" lon="-118.3938672">
  <ele>-0.119</ele>
  <time>2026-09-01T01:13:52Z</time>
  <course>345.85</course>
  <speed>0.03</speed>
  <fix>3d</fix>
</trkpt>
<trkpt lat="33.810313" lon="-118.393867">
  <ele>-0.12</ele>
  <time>2026-09-01T01:13:52Z</time>
  <course>0.0</course>
  <speed>0.0</speed>
  <fix>3d</fix>
</trkpt>
<trkpt lat="33.810313" lon="-118.3938672">
  <ele>-0.12</ele>
  <time>2026-09-01T01:13:52Z</time>
  <course>348.96</course>
  <speed>0.03</speed>
  <fix>3d</fix>
</trkpt>
<trkpt lat="33.810313" lon="-118.393867">
  <ele>-0.12</ele>
  <time>2026-09-01T01:13:52Z</time>
  <course>0.0</course>
  <speed>0.0</speed>
  <fix>3d</fix>
</trkpt>
<trkpt lat="33.810313" lon="-118.3938672">
  <ele>-0.121</ele>
  <time>2026-09-01T01:13:52Z</time>
  <course>352.05</course>
  <speed>0.03</speed>
  <fix>3d</fix>
</trkpt>
<trkpt lat="33.810313" lon="-118.393867">
  <ele>-0.12</ele>
  <time>2026-09-01T01:13:52Z</time>
  <course>0.0</course>
  <speed>0.0</speed>
  <fix>3d</fix>
</trkpt>
<trkpt lat="33.810313" lon="-118.3938672">
  <ele>-0.124</ele>
  <time>2026-09-01T01:13:52Z</time>
  <course>355.14</course>
  <speed>0.03</speed>
  <fix>3d</fix>
</trkpt>
<trkpt lat="33.810313" lon="-118.393867">
  <ele>-0.12</ele>
  <time>2026-09-01T01:13:52Z</time>
  <course>0.0</course>
  <speed>0.0</speed>
  <fix>3d</fix>
</trkpt>
<trkpt lat="33.810313" lon="-118.3938672">
  <ele>-0.126</ele>
  <time>2026-09-01T01:13:52Z</time>
  <course>357.4</course>
  <speed>0.02</speed>
  <fix>3d</fix>
</trkpt>
<trkpt lat="33.810313" lon="-118.393867">
  <ele>-0.12</ele>
  <time>2026-09-01T01:13:52Z</time>
  <course>0.0</course>
  <speed>0.0</speed>
  <fix>3d</fix>
</trkpt>
<trkpt lat="33.810313" lon="-118.3938672">
  <ele>-0.128</ele>
  <time>2026-09-01T01:13:52Z</time>
  <course>358.5</course>
  <speed>0.02</speed>
  <fix>3d</fix>
</trkpt>
<trkpt lat="33.810313" lon="-118.393867">
  <ele>-0.12</ele>
  <time>2026-09-01T01:13:52Z</time>
  <course>0.0</course>
  <speed>0.0</speed>
  <fix>3d</fix>
</trkpt>
<trkpt lat="33.810313" lon="-118.3938672">
  <ele>-0.13</ele>
  <time>2026-09-01T01:13:52Z</time>
  <course>359.22</course>
  <speed>0.02</speed>
  <fix>3d</fix>
</trkpt>
<trkpt lat="33.810313" lon="-118.393867">
  <ele>-0.12</ele>
  <time>2026-09-01T01:13:52Z</time>
  <course>0.0</course>
  <speed>0.0</speed>
  <fix>3d</fix>
</trkpt>
<trkpt lat="33.810313" lon="-118.3938672">
  <ele>-0.138</ele>
  <time>2026-09-01T01:13:52Z</time>
  <course>359.76</course>
  <speed>0.02</speed>
  <fix>3d</fix>
</trkpt>
<trkpt lat="33.810313" lon="-118.393867">
  <ele>-0.12</ele>
  <time>2026-09-01T01:13:52Z</time>
  <course>0.0</course>
  <speed>0.0</speed>
  <fix>3d</fix>
</trkpt>
<trkpt lat="33.810313" lon="-118.3938672">
  <ele>-0.159</ele>
  <time>2026-09-01T01:13:52Z</time>
  <course>0.18</course>
  <speed>0.02</speed>
  <fix>3d</fix>
</trkpt>
<trkpt lat="33.810313" lon="-118.393867">
  <ele>-0.12</ele>
  <time>2026-09-01T01:13:52Z</time>
  <course>85.67</course>
  <speed>0.0</speed>
  <fix>3d</fix>
</trkpt>
<trkpt lat="33.810313" lon="-118.3938672">
  <ele>-0.182</ele>
  <time>2026-09-01T01:13:52Z</time>
  <course>0.54</course>
  <speed>0.02</speed>
  <fix>3d</fix>
</trkpt>
<trkpt lat="33.810313" lon="-118.393867">
  <ele>-0.12</ele>
  <time>2026-09-01T01:13:52Z</time>
  <course>85.67</course>
  <speed>0.0</speed>
  <fix>3d</fix>
</trkpt>
<trkpt lat="33.810313" lon="-118.3938672">
  <ele>-0.202</ele>
  <time>2026-09-01T01:13:52Z</time>
  <course>0.85</course>
  <speed>0.02</speed>
  <fix>3d</fix>
</trkpt>
<trkpt lat="33.810313" lon="-118.393867">
  <ele>-0.15</ele>
  <time>2026-09-01T01:13:52Z</time>
  <course>268.61</course>
  <speed>0.0</speed>
  <fix>3d</fix>
</trkpt>
<trkpt lat="33.810313" lon="-118.3938672">
  <ele>-0.219</ele>
  <time>2026-09-01T01:13:52Z</time>
  <course>1.11</course>
  <speed>0.02</speed>
  <fix>3d</fix>
</trkpt>
<trkpt lat="33.810313" lon="-118.393867">
  <ele>-0.15</ele>
  <time>2026-09-01T01:13:52Z</time>
  <course>268.61</course>
  <speed>0.0</speed>
  <fix>3d</fix>
</trkpt>
<trkpt lat="33.810313" lon="-118.3938672">
  <ele>-0.231</ele>
  <time>2026-09-01T01:13:52Z</time>
  <course>1.35</course>
  <speed>0.02</speed>
  <fix>3d</fix>
</trkpt>
<trkpt lat="33.810313" lon="-118.393867">
  <ele>-0.19</ele>
  <time>2026-09-01T01:13:52Z</time>
  <course>268.57</course>
  <speed>0.0</speed>
  <fix>3d</fix>
</trkpt>
<trkpt lat="33.810313" lon="-118.3938671">
  <ele>-0.238</ele>
  <time>2026-09-01T01:13:52Z</time>
  <course>1.57</course>
  <speed>0.02</speed>
  <fix>3d</fix>
</trkpt>
<trkpt lat="33.810313" lon="-118.393867">
  <ele>-0.19</ele>
  <time>2026-09-01T01:13:52Z</time>
  <course>268.57</course>
  <speed>0.0</speed>
  <fix>3d</fix>
</trkpt>
<trkpt lat="33.810313" lon="-118.3938671">
  <ele>-0.24</ele>
  <time>2026-09-01T01:13:52Z</time>
  <course>1.76</course>
  <speed>0.02</speed>
  <fix>3d</fix>
</trkpt>
<trkpt lat="33.810313" lon="-118.393867">
  <ele>-0.21</ele>
  <time>2026-09-01T01:13:52Z</time>
  <course>268.76</course>
  <speed>0.0</speed>
  <fix>3d</fix>
</trkpt>
<trkpt lat="33.810313" lon="-118.3938671">
  <ele>-0.239</ele>
  <time>2026-09-01T01:13:52Z</time>
  <course>1.88</course>
  <speed>0.02</speed>
  <fix>3d</fix>
</trkpt>
<trkpt lat="33.810313" lon="-118.393867">
  <ele>-0.21</ele>
  <time>2026-09-01T01:13:52Z</time>
  <course>268.76</course>
  <speed>0.0</speed>
  <fix>3d</fix>
</trkpt>
<trkpt lat="33.810313" lon="-118.3938671">
  <ele>-0.235</ele>
  <time>2026-09-01T01:13:52Z</time>
  <course>1.95</course>
  <speed>0.02</speed>
  <fix>3d</fix>
</trkpt>
<trkpt lat="33.810313" lon="-118.393867">
  <ele>-0.22</ele>
  <time>2026-09-01T01:13:52Z</time>
  <course>299.15</course>
  <speed>0.0</speed>
  <fix>3d</fix>
</trkpt>
<trkpt lat="33.810313" lon="-118.3938671">
  <ele>-0.234</ele>
  <time>2026-09-01T01:13:52Z</time>
  <course>1.92</course>
  <speed>0.02</speed>
  <fix>3d</fix>
</trkpt>
<trkpt lat="33.810313" lon="-118.393867">
  <ele>-0.22</ele>
  <time>2026-09-01T01:13:52Z</time>
  <course>299.15</course>
  <speed>0.0</speed>
  <fix>3d</fix>
</trkpt>
<trkpt lat="33.810313" lon="-118.3938671">
  <ele>-0.249</ele>
  <time>2026-09-01T01:13:52Z</time>
  <course>1.88</course>
  <speed>0.02</speed>
  <fix>3d</fix>
</trkpt>
<trkpt lat="33.810313" lon="-118.393867">
  <ele>-0.22</ele>
  <time>2026-09-01T01:13:52Z</time>
  <course>297.87</course>
  <speed>0.0</speed>
  <fix>3d</fix>
</trkpt>
<trkpt lat="33.810313" lon="-118.3938671">
  <ele>-0.288</ele>
  <time>2026-09-01T01:13:52Z</time>
  <course>1.78</course>
  <speed>0.02</speed>
  <fix>3d</fix>
</trkpt>
<trkpt lat="33.810313" lon="-118.393867">
  <ele>-0.22</ele>
  <time>2026-09-01T01:13:52Z</time>
  <course>297.87</course>
  <speed>0.0</speed>
  <fix>3d</fix>
</trkpt>
<trkpt lat="33.810313" lon="-118.3938671">
  <ele>-0.346</ele>
  <time>2026-09-01T01:13:52Z</time>
  <course>1.68</course>
  <speed>0.02</speed>
  <fix>3d</fix>
</trkpt>
<trkpt lat="33.810313" lon="-118.393867">
  <ele>-0.25</ele>
  <time>2026-09-01T01:13:52Z</time>
  <course>300.45</course>
  <speed>0.0</speed>
  <fix>3d</fix>
</trkpt>
<trkpt lat="33.810313" lon="-118.3938671">
  <ele>-0.417</ele>
  <time>2026-09-01T01:13:52Z</time>
  <course>1.55</course>
  <speed>0.02</speed>
  <fix>3d</fix>
</trkpt>
<trkpt lat="33.810313" lon="-118.393867">
  <ele>-0.25</ele>
  <time>2026-09-01T01:13:52Z</time>
  <course>300.45</course>
  <speed>0.0</speed>
  <fix>3d</fix>
</trkpt>
<trkpt lat="33.810313" lon="-118.3938671">
  <ele>-0.499</ele>
  <time>2026-09-01T01:13:52Z</time>
  <course>1.42</course>
  <speed>0.02</speed>
  <fix>3d</fix>
</trkpt>
<trkpt lat="33.810313" lon="-118.393867">
  <ele>-0.35</ele>
  <time>2026-09-01T01:13:52Z</time>
  <course>304.22</course>
  <speed>0.0</speed>
  <fix>3d</fix>
</trkpt>
<trkpt lat="33.810313" lon="-118.3938671">
  <ele>-0.586</ele>
  <time>2026-09-01T01:13:52Z</time>
  <course>1.27</course>
  <speed>0.01</speed>
  <fix>3d</fix>
</trkpt>
<trkpt lat="33.810313" lon="-118.393867">
  <ele>-0.35</ele>
  <time>2026-09-01T01:13:52Z</time>
  <course>304.22</course>
  <speed>0.0</speed>
  <fix>3d</fix>
</trkpt>
<trkpt lat="33.810313" lon="-118.3938671">
  <ele>-0.677</ele>
  <time>2026-09-01T01:13:52Z</time>
  <course>1.13</course>
  <speed>0.01</speed>
  <fix>3d</fix>
</trkpt>
<trkpt lat="33.810313" lon="-118.393867">
  <ele>-0.5</ele>
  <time>2026-09-01T01:13:52Z</time>
  <course>306.09</course>
  <speed>0.0</speed>
  <fix>3d</fix>
</trkpt>
<trkpt lat="33.810313" lon="-118.3938671">
  <ele>-0.772</ele>
  <time>2026-09-01T01:13:52Z</time>
  <course>359.11</course>
  <speed>0.01</speed>
  <fix>3d</fix>
</trkpt>
<trkpt lat="33.810313" lon="-118.393867">
  <ele>-0.5</ele>
  <time>2026-09-01T01:13:52Z</time>
  <course>306.09</course>
  <speed>0.0</speed>
  <fix>3d</fix>
</trkpt>
<trkpt lat="33.810313" lon="-118.3938671">
  <ele>-0.868</ele>
  <time>2026-09-01T01:13:52Z</time>
  <course>358.97</course>
  <speed>0.01</speed>
  <fix>3d</fix>
</trkpt>
<trkpt lat="33.810313" lon="-118.393867">
  <ele>-0.66</ele>
  <time>2026-09-01T01:13:52Z</time>
  <course>307.2</course>
  <speed>0.0</speed>
  <fix>3d</fix>
</trkpt>
<trkpt lat="33.810313" lon="-118.3938671">
  <ele>-0.966</ele>
  <time>2026-09-01T01:13:52Z</time>
  <course>358.84</course>
  <speed>0.01</speed>
  <fix>3d</fix>
</trkpt>
<trkpt lat="33.810313" lon="-118.393867">
  <ele>-0.66</ele>
  <time>2026-09-01T01:13:52Z</time>
  <course>307.2</course>
  <speed>0.0</speed>
  <fix>3d</fix>
</trkpt>
<trkpt lat="33.810313" lon="-118.3938671">
  <ele>-1.064</ele>
  <time>2026-09-01T01:13:52Z</time>
  <course>358.72</course>
  <speed>0.01</speed>
  <fix>3d</fix>
</trkpt>
<trkpt lat="33.810313" lon="-118.393867">
  <ele>-0.84</ele>
  <time>2026-09-01T01:13:52Z</time>
  <course>307.7</course>
  <speed>0.0</speed>
  <fix>3d</fix>
</trkpt>
<trkpt lat="33.810313" lon="-118.3938671">
  <ele>-1.162</ele>
  <time>2026-09-01T01:13:52Z</time>
  <course>358.61</course>
  <speed>0.01</speed>
  <fix>3d</fix>
</trkpt>
<trkpt lat="33.810313" lon="-118.393867">
  <ele>-0.84</ele>
  <time>2026-09-01T01:13:52Z</time>
  <course>307.7</course>
  <speed>0.0</speed>
  <fix>3d</fix>
</trkpt>
<trkpt lat="33.810313" lon="-118.3938671">
  <ele>-1.26</ele>
  <time>2026-09-01T01:13:52Z</time>
  <course>358.5</course>
  <speed>0.01</speed>
  <fix>3d</fix>
</trkpt>
<trkpt lat="33.810313" lon="-118.393867">
  <ele>-1.02</ele>
  <time>2026-09-01T01:13:52Z</time>
  <course>307.88</course>
  <speed>0.0</speed>
  <fix>3d</fix>
</trkpt>
<trkpt lat="33.810313" lon="-118.3938671">
  <ele>-1.358</ele>
  <time>2026-09-01T01:13:52Z</time>
  <course>358.4</course>
  <speed>0.01</speed>
  <fix>3d</fix>
</trkpt>
<trkpt lat="33.810313" lon="-118.393867">
  <ele>-1.02</ele>
  <time>2026-09-01T01:13:52Z</time>
  <course>307.88</course>
  <speed>0.0</speed>
  <fix>3d</fix>
</trkpt>
<trkpt lat="33.810313" lon="-118.3938671">
  <ele>-1.456</ele>
  <time>2026-09-01T01:13:52Z</time>
  <course>358.31</course>
  <speed>0.01</speed>
  <fix>3d</fix>
</trkpt>
<trkpt lat="33.810313" lon="-118.393867">
  <ele>-1.21</ele>
  <time>2026-09-01T01:13:52Z</time>
  <course>308.03</course>
  <speed>0.0</speed>
  <fix>3d</fix>
</trkpt>
<trkpt lat="33.810313" lon="-118.3938671">
  <ele>-1.554</ele>
  <time>2026-09-01T01:13:52Z</time>
  <course>358.24</course>
  <speed>0.01</speed>
  <fix>3d</fix>
</trkpt>
<trkpt lat="33.810313" lon="-118.393867">
  <ele>-1.21</ele>
  <time>2026-09-01T01:13:52Z</time>
  <course>308.03</course>
  <speed>0.0</speed>
  <fix>3d</fix>
</trkpt>
<trkpt lat="33.810313" lon="-118.3938671">
  <ele>-1.653</ele>
  <time>2026-09-01T01:13:52Z</time>
  <course>358.2</course>
  <speed>0.01</speed>
  <fix>3d</fix>
</trkpt>
<trkpt lat="33.810313" lon="-118.393867">
  <ele>-1.39</ele>
  <time>2026-09-01T01:13:52Z</time>
  <course>308.44</course>
  <speed>0.0</speed>
  <fix>3d</fix>
</trkpt>
<trkpt lat="33.810313" lon="-118.3938671">
  <ele>-1.751</ele>
  <time>2026-09-01T01:13:52Z</time>
  <course>358.22</course>
  <speed>0.01</speed>
  <fix>3d</fix>
</trkpt>
<trkpt lat="33.810313" lon="-118.393867">
  <ele>-1.39</ele>
  <time>2026-09-01T01:13:52Z</time>
  <course>308.44</course>
  <speed>0.0</speed>
  <fix>3d</fix>
</trkpt>
<trkpt lat="33.810313" lon="-118.3938671">
  <ele>-1.849</ele>
  <time>2026-09-01T01:13:52Z</time>
  <course>358.27</course>
  <speed>0.01</speed>
  <fix>3d</fix>
</trkpt>
<trkpt lat="33.810313" lon="-118.3938671">
  <ele>-1.56</ele>
  <time>2026-09-01T01:13:52Z</time>
  <course>309.34</course>
  <speed>0.0</speed>
  <fix>3d</fix>
</trkpt>
<trkpt lat="33.810313" lon="-118.3938671">
  <ele>-1.945</ele>
  <time>2026-09-01T01:13:52Z</time>
  <course>358.34</course>
  <speed>0.0</speed>
  <fix>3d</fix>
</trkpt>
<trkpt lat="33.810313" lon="-118.3938671">
  <ele>-1.56</ele>
  <time>2026-09-01T01:13:52Z</time>
  <course>309.34</course>
  <speed>0.0</speed>
  <fix>3d</fix>
</trkpt>
<trkpt lat="33.810313" lon="-118.3938671">
  <ele>-2.04</ele>
  <time>2026-09-01T01:13:52Z</time>
  <course>358.41</course>
  <speed>0.0</speed>
  <fix>3d</fix>
</trkpt>
<trkpt lat="33.810313" lon="-118.3938671">
  <ele>-1.75</ele>
  <time>2026-09-01T01:13:52Z</time>
  <course>310.01</course>
  <speed>0.01</speed>
  <fix>3d</fix>
</trkpt>
<trkpt lat="33.810313" lon="-118.3938671">
  <ele>-2.135</ele>
  <time>2026-09-01T01:13:52Z</time>
  <course>358.49</course>
  <speed>0.0</speed>
  <fix>3d</fix>
</trkpt>
<trkpt lat="33.810313" lon="-118.3938671">
  <ele>-1.75</ele>
  <time>2026-09-01T01:13:52Z</time>
  <course>310.01</course>
  <speed>0.01</speed>
  <fix>3d</fix>
</trkpt>
<trkpt lat="33.810313" lon="-118.3938671">
  <ele>-2.229</ele>
  <time>2026-09-01T01:13:52Z</time>
  <course>358.57</course>
  <speed>0.0</speed>
  <fix>3d</fix>
</trkpt>
<trkpt lat="33.810313" lon="-118.3938671">
  <ele>-1.94</ele>
  <time>2026-09-01T01:13:52Z</time>
  <course>310.34</course>
  <speed>0.01</speed>
  <fix>3d</fix>
</trkpt>
<trkpt lat="33.810313" lon="-118.3938671">
  <ele>-2.325</ele>
  <time>2026-09-01T01:13:52Z</time>
  <course>358.65</course>
  <speed>0.0</speed>
  <fix>3d</fix>
</trkpt>
<trkpt lat="33.810313" lon="-118.3938671">
  <ele>-1.94</ele>
  <time>2026-09-01T01:13:52Z</time>
  <course>310.34</course>
  <speed>0.01</speed>
  <fix>3d</fix>
</trkpt>
<trkpt lat="33.810313" lon="-118.3938671">
  <ele>-2.423</ele>
  <time>2026-09-01T01:13:52Z</time>
  <course>358.74</course>
  <speed>0.0</speed>
  <fix>3d</fix>
</trkpt>
<trkpt lat="33.8103131" lon="-118.3938671">
  <ele>-2.12</ele>
  <time>2026-09-01T01:13:52Z</time>
  <course>310.63</course>
  <speed>0.01</speed>
  <fix>3d</fix>
</trkpt>
<trkpt lat="33.810313" lon="-118.3938671">
  <ele>-2.52</ele>
  <time>2026-09-01T01:13:52Z</time>
  <course>358.82</course>
  <speed>0.0</speed>
  <fix>3d</fix>
</trkpt>
<trkpt lat="33.8103131" lon="-118.3938671">
  <ele>-2.12</ele>
  <time>2026-09-01T01:13:52Z</time>
  <course>310.63</course>
  <speed>0.01</speed>
  <fix>3d</fix>
</trkpt>
<trkpt lat="33.810313" lon="-118.3938671">
  <ele>-2.616</ele>
  <time>2026-09-01T01:13:52Z</time>
  <course>358.9</course>
  <speed>0.0</speed>
  <fix>3d</fix>
</trkpt>
<trkpt lat="33.8103131" lon="-118.3938671">
  <ele>-2.31</ele>
  <time>2026-09-01T01:13:52Z</time>
  <course>310.9</course>
  <speed>0.01</speed>
  <fix>3d</fix>
</trkpt>
<trkpt lat="33.810313" lon="-118.3938671">
  <ele>-2.713</ele>
  <time>2026-09-01T01:13:52Z</time>
  <course>358.97</course>
  <speed>0.0</speed>
  <fix>3d</fix>
</trkpt>
<trkpt lat="33.8103131" lon="-118.3938671">
  <ele>-2.31</ele>
  <time>2026-09-01T01:13:52Z</time>
  <course>310.9</course>
  <speed>0.01</speed>
  <fix>3d</fix>
</trkpt>
<trkpt lat="33.810313" lon="-118.3938671">
  <ele>-2.81</ele>
  <time>2026-09-01T01:13:52Z</time>
  <course>359.03</course>
  <speed>0.0</speed>
  <fix>3d</fix>
</trkpt>
<trkpt lat="33.8103131" lon="-118.3938672">
  <ele>-2.5</ele>
  <time>2026-09-01T01:13:52Z</time>
  <course>311.18</course>
  <speed>0.01</speed>
  <fix>3d</fix>
</trkpt>
<trkpt lat="33.810313" lon="-118.3938671">
  <ele>-2.909</ele>
  <time>2026-09-01T01:13:52Z</time>
  <course>359.08</course>
  <speed>0.0</speed>
  <fix>3d</fix>
</trkpt>
<trkpt lat="33.8103131" lon="-118.3938672">
  <ele>-2.5</ele>
  <time>2026-09-01T01:13:52Z</time>
  <course>311.18</course>
  <speed>0.01</speed>
  <fix>3d</fix>
</trkpt>
<trkpt lat="33.810313" lon="-118.3938671">
  <ele>-3.008</ele>
  <time>2026-09-01T01:13:52Z</time>
  <course>359.13</course>
  <speed>0.0</speed>
  <fix>3d</fix>
</trkpt>
<trkpt lat="33.8103131" lon="-118.3938672">
  <ele>-2.69</ele>
  <time>2026-09-01T01:13:52Z</time>
  <course>311.45</course>
  <speed>0.01</speed>
  <fix>3d</fix>
</trkpt>
<trkpt lat="33.810313" lon="-118.3938671">
  <ele>-3.106</ele>
  <time>2026-09-01T01:13:52Z</time>
  <course>359.19</course>
  <speed>0.0</speed>
  <fix>3d</fix>
</trkpt>
<trkpt lat="33.8103131" lon="-118.3938672">
  <ele>-2.69</ele>
  <time>2026-09-01T01:13:52Z</time>
  <course>311.45</course>
  <speed>0.01</speed>
  <fix>3d</fix>
</trkpt>
<trkpt lat="33.810313" lon="-118.3938671">
  <ele>-3.199</ele>
  <time>2026-09-01T01:13:52Z</time>
  <course>359.24</course>
  <speed>0.0</speed>
  <fix>3d</fix>
</trkpt>
<trkpt lat="33.8103131" lon="-118.3938672">
  <ele>-2.88</ele>
  <time>2026-09-01T01:13:52Z</time>
  <course>311.59</course>
  <speed>0.01</speed>
  <fix>3d</fix>
</trkpt>
<trkpt lat="33.810313" lon="-118.3938671">
  <ele>-3.28</ele>
  <time>2026-09-01T01:13:52Z</time>
  <course>359.29</course>
  <speed>0.0</speed>
  <fix>3d</fix>
</trkpt>
<trkpt lat="33.8103131" lon="-118.3938672">
  <ele>-2.88</ele>
  <time>2026-09-01T01:13:52Z</time>
  <course>311.59</course>
  <speed>0.01</speed>
  <fix>3d</fix>
</trkpt>
<trkpt lat="33.810313" lon="-118.3938672">
  <ele>-3.343</ele>
  <time>2026-09-01T01:13:52Z</time>
  <course>359.33</course>
  <speed>0.0</speed>
  <fix>3d</fix>
</trkpt>
<trkpt lat="33.8103131" lon="-118.3938672">
  <ele>-3.06</ele>
  <time>2026-09-01T01:13:52Z</time>
  <course>311.21</course>
  <speed>0.01</speed>
  <fix>3d</fix>
</trkpt>
<trkpt lat="33.810313" lon="-118.3938672">
  <ele>-3.39</ele>
  <time>2026-09-01T01:13:52Z</time>
  <course>359.36</course>
  <speed>0.0</speed>
  <fix>3d</fix>
</trkpt>
<trkpt lat="33.8103131" lon="-118.3938672">
  <ele>-3.06</ele>
  <time>2026-09-01T01:13:52Z</time>
  <course>311.21</course>
  <speed>0.01</speed>
  <fix>3d</fix>
</trkpt>
<trkpt lat="33.810313" lon="-118.3938672">
  <ele>-3.425</ele>
  <time>2026-09-01T01:13:52Z</time>
  <course>359.39</course>
  <speed>0.0</speed>
  <fix>3d</fix>
</trkpt>
<trkpt lat="33.8103131" lon="-118.3938672">
  <ele>-3.2</ele>
  <time>2026-09-01T01:13:52Z</time>
  <course>310.48</course>
  <speed>0.01</speed>
  <fix>3d</fix>
</trkpt>
<trkpt lat="33.810313" lon="-118.3938672">
  <ele>-3.449</ele>
  <time>2026-09-01T01:13:52Z</time>
  <course>359.4</course>
  <speed>0.0</speed>
  <fix>3d</fix>
</trkpt>
<trkpt lat="33.8103131" lon="-118.3938672">
  <ele>-3.2</ele>
  <time>2026-09-01T01:13:52Z</time>
  <course>310.48</course>
  <speed>0.01</speed>
  <fix>3d</fix>
</trkpt>
<trkpt lat="33.810313" lon="-118.3938672">
  <ele>-3.464</ele>
  <time>2026-09-01T01:13:52Z</time>
  <course>359.41</course>
  <speed>0.0</speed>
  <fix>3d</fix>
</trkpt>
<trkpt lat="33.8103131" lon="-118.3938673">
  <ele>-3.27</ele>
  <time>2026-09-01T01:13:52Z</time>
  <course>310.17</course>
  <speed>0.01</speed>
  <fix>3d</fix>
</trkpt>
<trkpt lat="33.810313" lon="-118.3938672">
  <ele>-3.47</ele>
  <time>2026-09-01T01:13:52Z</time>
  <course>359.41</course>
  <speed>0.0</speed>
  <fix>3d</fix>
</trkpt>
<trkpt lat="33.8103131" lon="-118.3938673">
  <ele>-3.27</ele>
  <time>2026-09-01T01:13:52Z</time>
  <course>310.17</course>
  <speed>0.01</speed>
  <fix>3d</fix>
</trkpt>
<trkpt lat="33.810313" lon="-118.3938672">
  <ele>-3.471</ele>
  <time>2026-09-01T01:13:52Z</time>
  <course>359.4</course>
  <speed>0.01</speed>
  <fix>3d</fix>
</trkpt>
<trkpt lat="33.8103131" lon="-118.3938673">
  <ele>-3.31</ele>
  <time>2026-09-01T01:13:52Z</time>
  <course>310.11</course>
  <speed>0.01</speed>
  <fix>3d</fix>
</trkpt>
<trkpt lat="33.810313" lon="-118.3938672">
  <ele>-3.469</ele>
  <time>2026-09-01T01:13:52Z</time>
  <course>359.4</course>
  <speed>0.01</speed>
  <fix>3d</fix>
</trkpt>
<trkpt lat="33.8103131" lon="-118.3938673">
  <ele>-3.31</ele>
  <time>2026-09-01T01:13:52Z</time>
  <course>310.11</course>
  <speed>0.01</speed>
  <fix>3d</fix>
</trkpt>
<trkpt lat="33.810313" lon="-118.3938672">
  <ele>-3.464</ele>
  <time>2026-09-01T01:13:52Z</time>
  <course>359.4</course>
  <speed>0.01</speed>
  <fix>3d</fix>
</trkpt>
<trkpt lat="33.8103131" lon="-118.3938673">
  <ele>-3.33</ele>
  <time>2026-09-01T01:13:52Z</time>
  <course>310.05</course>
  <speed>0.01</speed>
  <fix>3d</fix>
</trkpt>
<trkpt lat="33.810313" lon="-118.3938672">
  <ele>-3.46</ele>
  <time>2026-09-01T01:13:52Z</time>
  <course>359.4</course>
  <speed>0.01</speed>
  <fix>3d</fix>
</trkpt>
<trkpt lat="33.8103131" lon="-118.3938673">
  <ele>-3.33</ele>
  <time>2026-09-01T01:13:52Z</time>
  <course>310.05</course>
  <speed>0.01</speed>
  <fix>3d</fix>
</trkpt>
<trkpt lat="33.810313" lon="-118.3938672">
  <ele>-3.456</ele>
  <time>2026-09-01T01:13:52Z</time>
  <course>359.4</course>
  <speed>0.01</speed>
  <fix>3d</fix>
</trkpt>
<trkpt lat="33.8103131" lon="-118.3938673">
  <ele>-3.34</ele>
  <time>2026-09-01T01:13:52Z</time>
  <course>310.12</course>
  <speed>0.01</speed>
  <fix>3d</fix>
</trkpt>
<trkpt lat="33.810313" lon="-118.3938672">
  <ele>-3.453</ele>
  <time>2026-09-01T01:13:52Z</time>
  <course>359.4</course>
  <speed>0.01</speed>
  <fix>3d</fix>
</trkpt>
<trkpt lat="33.8103131" lon="-118.3938673">
  <ele>-3.34</ele>
  <time>2026-09-01T01:13:52Z</time>
  <course>310.12</course>
  <speed>0.01</speed>
  <fix>3d</fix>
</trkpt>
<trkpt lat="33.810313" lon="-118.3938672">
  <ele>-3.453</ele>
  <time>2026-09-01T01:13:52Z</time>
  <course>359.4</course>
  <speed>0.01</speed>
  <fix>3d</fix>
</trkpt>
<trkpt lat="33.8103131" lon="-118.3938673">
  <ele>-3.34</ele>
  <time>2026-09-01T01:13:52Z</time>
  <course>310.26</course>
  <speed>0.01</speed>
  <fix>3d</fix>
</trkpt>
<trkpt lat="33.810313" lon="-118.3938673">
  <ele>-3.455</ele>
  <time>2026-09-01T01:13:52Z</time>
  <course>359.4</course>
  <speed>0.01</speed>
  <fix>3d</fix>
</trkpt>
<trkpt lat="33.8103131" lon="-118.3938673">
  <ele>-3.34</ele>
  <time>2026-09-01T01:13:52Z</time>
  <course>310.26</course>
  <speed>0.01</speed>
  <fix>3d</fix>
</trkpt>
<trkpt lat="33.810313" lon="-118.3938673">
  <ele>-3.457</ele>
  <time>2026-09-01T01:13:52Z</time>
  <course>359.4</course>
  <speed>0.01</speed>
  <fix>3d</fix>
</trkpt>
<trkpt lat="33.8103131" lon="-118.3938674">
  <ele>-3.35</ele>
  <time>2026-09-01T01:13:52Z</time>
  <course>310.41</course>
  <speed>0.01</speed>
  <fix>3d</fix>
</trkpt>
<trkpt lat="33.810313" lon="-118.3938673">
  <ele>-3.458</ele>
  <time>2026-09-01T01:13:52Z</time>
  <course>359.4</course>
  <speed>0.01</speed>
  <fix>3d</fix>
</trkpt>
<trkpt lat="33.8103131" lon="-118.3938674">
  <ele>-3.35</ele>
  <time>2026-09-01T01:13:52Z</time>
  <course>310.41</course>
  <speed>0.01</speed>
  <fix>3d</fix>
</trkpt>
<trkpt lat="33.810313" lon="-118.3938673">
  <ele>-3.46</ele>
  <time>2026-09-01T01:13:52Z</time>
  <course>359.4</course>
  <speed>0.01</speed>
  <fix>3d</fix>
</trkpt>
<trkpt lat="33.8103132" lon="-118.3938674">
  <ele>-3.36</ele>
  <time>2026-09-01T01:13:52Z</time>
  <course>310.54</course>
  <speed>0.01</speed>
  <fix>3d</fix>
</trkpt>
<trkpt lat="33.810313" lon="-118.3938673">
  <ele>-3.462</ele>
  <time>2026-09-01T01:13:52Z</time>
  <course>359.4</course>
  <speed>0.01</speed>
  <fix>3d</fix>
</trkpt>
<trkpt lat="33.8103132" lon="-118.3938674">
  <ele>-3.36</ele>
  <time>2026-09-01T01:13:52Z</time>
  <course>310.54</course>
  <speed>0.01</speed>
  <fix>3d</fix>
</trkpt>
<trkpt lat="33.810313" lon="-118.3938673">
  <ele>-3.463</ele>
  <time>2026-09-01T01:13:52Z</time>
  <course>359.4</course>
  <speed>0.01</speed>
  <fix>3d</fix>
</trkpt>
<trkpt lat="33.8103133" lon="-118.3938674">
  <ele>-3.37</ele>
  <time>2026-09-01T01:13:52Z</time>
  <course>310.66</course>
  <speed>0.01</speed>
  <fix>3d</fix>
</trkpt>
<trkpt lat="33.810313" lon="-118.3938673">
  <ele>-3.465</ele>
  <time>2026-09-01T01:13:52Z</time>
  <course>359.4</course>
  <speed>0.01</speed>
  <fix>3d</fix>
</trkpt>
<trkpt lat="33.8103133" lon="-118.3938674">
  <ele>-3.37</ele>
  <time>2026-09-01T01:13:52Z</time>
  <course>310.66</course>
  <speed>0.01</speed>
  <fix>3d</fix>
</trkpt>
<trkpt lat="33.810313" lon="-118.3938673">
  <ele>-3.467</ele>
  <time>2026-09-01T01:13:52Z</time>
  <course>359.4</course>
  <speed>0.01</speed>
  <fix>3d</fix>
</trkpt>
<trkpt lat="33.8103133" lon="-118.3938674">
  <ele>-3.38</ele>
  <time>2026-09-01T01:13:52Z</time>
  <course>310.76</course>
  <speed>0.01</speed>
  <fix>3d</fix>
</trkpt>
<trkpt lat="33.810313" lon="-118.3938673">
  <ele>-3.468</ele>
  <time>2026-09-01T01:13:52Z</time>
  <course>359.39</course>
  <speed>0.01</speed>
  <fix>3d</fix>
</trkpt>
<trkpt lat="33.8103133" lon="-118.3938674">
  <ele>-3.38</ele>
  <time>2026-09-01T01:13:52Z</time>
  <course>310.76</course>
  <speed>0.01</speed>
  <fix>3d</fix>
</trkpt>
<trkpt lat="33.810313" lon="-118.3938673">
  <ele>-3.469</ele>
  <time>2026-09-01T01:13:52Z</time>
  <course>359.39</course>
  <speed>0.01</speed>
  <fix>3d</fix>
</trkpt>
<trkpt lat="33.8103133" lon="-118.3938674">
  <ele>-3.39</ele>
  <time>2026-09-01T01:13:52Z</time>
  <course>310.87</course>
  <speed>0.01</speed>
  <fix>3d</fix>
</trkpt>
<trkpt lat="33.8103131" lon="-118.3938673">
  <ele>-3.469</ele>
  <time>2026-09-01T01:13:52Z</time>
  <course>359.39</course>
  <speed>0.01</speed>
  <fix>3d</fix>
</trkpt>
<trkpt lat="33.8103133" lon="-118.3938674">
  <ele>-3.39</ele>
  <time>2026-09-01T01:13:52Z</time>
  <course>310.87</course>
  <speed>0.01</speed>
  <fix>3d</fix>
</trkpt>
<trkpt lat="33.8103131" lon="-118.3938673">
  <ele>-3.47</ele>
  <time>2026-09-01T01:13:52Z</time>
  <course>359.39</course>
  <speed>0.01</speed>
  <fix>3d</fix>
</trkpt>
<trkpt lat="33.8103133" lon="-118.3938675">
  <ele>-3.39</ele>
  <time>2026-09-01T01:13:52Z</time>
  <course>310.97</course>
  <speed>0.01</speed>
  <fix>3d</fix>
</trkpt>
<trkpt lat="33.8103131" lon="-118.3938673">
  <ele>-3.469</ele>
  <time>2026-09-01T01:13:52Z</time>
  <course>359.39</course>
  <speed>0.01</speed>
  <fix>3d</fix>
</trkpt>
<trkpt lat="33.8103133" lon="-118.3938675">
  <ele>-3.39</ele>
  <time>2026-09-01T01:13:52Z</time>
  <course>310.97</course>
  <speed>0.01</speed>
  <fix>3d</fix>
</trkpt>
<trkpt lat="33.8103131" lon="-118.3938673">
  <ele>-3.469</ele>
  <time>2026-09-01T01:13:52Z</time>
  <course>359.39</course>
  <speed>0.01</speed>
  <fix>3d</fix>
</trkpt>
<trkpt lat="33.8103133" lon="-118.3938675">
  <ele>-3.4</ele>
  <time>2026-09-01T01:13:52Z</time>
  <course>311.08</course>
  <speed>0.01</speed>
  <fix>3d</fix>
</trkpt>
<trkpt lat="33.8103131" lon="-118.3938673">
  <ele>-3.469</ele>
  <time>2026-09-01T01:13:52Z</time>
  <course>359.39</course>
  <speed>0.01</speed>
  <fix>3d</fix>
</trkpt>
<trkpt lat="33.8103133" lon="-118.3938675">
  <ele>-3.4</ele>
  <time>2026-09-01T01:13:52Z</time>
  <course>311.08</course>
  <speed>0.01</speed>
  <fix>3d</fix>
</trkpt>
<trkpt lat="33.8103131" lon="-118.3938673">
  <ele>-3.469</ele>
  <time>2026-09-01T01:13:52Z</time>
  <course>359.39</course>
  <speed>0.01</speed>
  <fix>3d</fix>
</trkpt>
<trkpt lat="33.8103133" lon="-118.3938675">
  <ele>-3.4</ele>
  <time>2026-09-01T01:13:52Z</time>
  <course>311.21</course>
  <speed>0.01</speed>
  <fix>3d</fix>
</trkpt>
<trkpt lat="33.8103131" lon="-118.3938673">
  <ele>-3.47</ele>
  <time>2026-09-01T01:13:52Z</time>
  <course>359.39</course>
  <speed>0.01</speed>
  <fix>3d</fix>
</trkpt>
<trkpt lat="33.8103133" lon="-118.3938675">
  <ele>-3.4</ele>
  <time>2026-09-01T01:13:52Z</time>
  <course>311.21</course>
  <speed>0.01</speed>
  <fix>3d</fix>
</trkpt>
<trkpt lat="33.8103131" lon="-118.3938674">
  <ele>-3.471</ele>
  <time>2026-09-01T01:13:52Z</time>
  <course>359.39</course>
  <speed>0.01</speed>
  <fix>3d</fix>
</trkpt>
<trkpt lat="33.8103133" lon="-118.3938675">
  <ele>-3.4</ele>
  <time>2026-09-01T01:13:52Z</time>
  <course>311.36</course>
  <speed>0.01</speed>
  <fix>3d</fix>
</trkpt>
<trkpt lat="33.8103131" lon="-118.3938674">
  <ele>-3.473</ele>
  <time>2026-09-01T01:13:52Z</time>
  <course>359.39</course>
  <speed>0.01</speed>
  <fix>3d</fix>
</trkpt>
<trkpt lat="33.8103133" lon="-118.3938675">
  <ele>-3.4</ele>
  <time>2026-09-01T01:13:52Z</time>
  <course>311.36</course>
  <speed>0.01</speed>
  <fix>3d</fix>
</trkpt>
<trkpt lat="33.8103131" lon="-118.3938674">
  <ele>-3.475</ele>
  <time>2026-09-01T01:13:52Z</time>
  <course>359.39</course>
  <speed>0.01</speed>
  <fix>3d</fix>
</trkpt>
<trkpt lat="33.8103134" lon="-118.3938675">
  <ele>-3.4</ele>
  <time>2026-09-01T01:13:52Z</time>
  <course>311.48</course>
  <speed>0.01</speed>
  <fix>3d</fix>
</trkpt>
<trkpt lat="33.8103132" lon="-118.3938674">
  <ele>-3.476</ele>
  <time>2026-09-01T01:13:52Z</time>
  <course>359.39</course>
  <speed>0.01</speed>
  <fix>3d</fix>
</trkpt>
<trkpt lat="33.8103134" lon="-118.3938675">
  <ele>-3.4</ele>
  <time>2026-09-01T01:13:52Z</time>
  <course>311.48</course>
  <speed>0.01</speed>
  <fix>3d</fix>
</trkpt>
<trkpt lat="33.8103132" lon="-118.3938674">
  <ele>-3.476</ele>
  <time>2026-09-01T01:13:52Z</time>
  <course>359.39</course>
  <speed>0.01</speed>
  <fix>3d</fix>
</trkpt>
<trkpt lat="33.8103134" lon="-118.3938676">
  <ele>-3.4</ele>
  <time>2026-09-01T01:13:52Z</time>
  <course>311.56</course>
  <speed>0.01</speed>
  <fix>3d</fix>
</trkpt>
<trkpt lat="33.8103132" lon="-118.3938674">
  <ele>-3.475</ele>
  <time>2026-09-01T01:13:52Z</time>
  <course>359.39</course>
  <speed>0.01</speed>
  <fix>3d</fix>
</trkpt>
<trkpt lat="33.8103134" lon="-118.3938676">
  <ele>-3.4</ele>
  <time>2026-09-01T01:13:52Z</time>
  <course>311.56</course>
  <speed>0.01</speed>
  <fix>3d</fix>
</trkpt>
<trkpt lat="33.8103132" lon="-118.3938674">
  <ele>-3.474</ele>
  <time>2026-09-01T01:13:52Z</time>
  <course>359.39</course>
  <speed>0.01</speed>
  <fix>3d</fix>
</trkpt>
<trkpt lat="33.8103134" lon="-118.3938676">
  <ele>-3.4</ele>
  <time>2026-09-01T01:13:52Z</time>
  <course>311.64</course>
  <speed>0.01</speed>
  <fix>3d</fix>
</trkpt>
<trkpt lat="33.8103132" lon="-118.3938674">
  <ele>-3.472</ele>
  <time>2026-09-01T01:13:52Z</time>
  <course>359.39</course>
  <speed>0.01</speed>
  <fix>3d</fix>
</trkpt>
<trkpt lat="33.8103134" lon="-118.3938676">
  <ele>-3.4</ele>
  <time>2026-09-01T01:13:52Z</time>
  <course>311.64</course>
  <speed>0.01</speed>
  <fix>3d</fix>
</trkpt>
<trkpt lat="33.8103132" lon="-118.3938674">
  <ele>-3.47</ele>
  <time>2026-09-01T01:13:52Z</time>
  <course>359.39</course>
  <speed>0.01</speed>
  <fix>3d</fix>
</trkpt>
<trkpt lat="33.8103134" lon="-118.3938676">
  <ele>-3.39</ele>
  <time>2026-09-01T01:13:52Z</time>
  <course>311.74</course>
  <speed>0.01</speed>
  <fix>3d</fix>
</trkpt>
<trkpt lat="33.8103132" lon="-118.3938674">
  <ele>-3.469</ele>
  <time>2026-09-01T01:13:52Z</time>
  <course>359.39</course>
  <speed>0.01</speed>
  <fix>3d</fix>
</trkpt>
<trkpt lat="33.8103134" lon="-118.3938676">
  <ele>-3.39</ele>
  <time>2026-09-01T01:13:52Z</time>
  <course>311.74</course>
  <speed>0.01</speed>
  <fix>3d</fix>
</trkpt>
<trkpt lat="33.8103132" lon="-118.3938674">
  <ele>-3.467</ele>
  <time>2026-09-01T01:13:52Z</time>
  <course>359.39</course>
  <speed>0.01</speed>
  <fix>3d</fix>
</trkpt>
<trkpt lat="33.8103134" lon="-118.3938676">
  <ele>-3.39</ele>
  <time>2026-09-01T01:13:52Z</time>
  <course>311.84</course>
  <speed>0.01</speed>
  <fix>3d</fix>
</trkpt>
<trkpt lat="33.8103132" lon="-118.3938674">
  <ele>-3.467</ele>
  <time>2026-09-01T01:13:52Z</time>
  <course>359.38</course>
  <speed>0.01</speed>
  <fix>3d</fix>
</trkpt>
<trkpt lat="33.8103134" lon="-118.3938676">
  <ele>-3.39</ele>
  <time>2026-09-01T01:13:52Z</time>
  <course>311.84</course>
  <speed>0.01</speed>
  <fix>3d</fix>
</trkpt>
<trkpt lat="33.8103132" lon="-118.3938674">
  <ele>-3.467</ele>
  <time>2026-09-01T01:13:52Z</time>
  <course>359.38</course>
  <speed>0.01</speed>
  <fix>3d</fix>
</trkpt>
<trkpt lat="33.8103134" lon="-118.3938676">
  <ele>-3.38</ele>
  <time>2026-09-01T01:13:52Z</time>
  <course>311.99</course>
  <speed>0.01</speed>
  <fix>3d</fix>
</trkpt>
<trkpt lat="33.8103132" lon="-118.3938675">
  <ele>-3.467</ele>
  <time>2026-09-01T01:13:52Z</time>
  <course>359.38</course>
  <speed>0.01</speed>
  <fix>3d</fix>
</trkpt>
<trkpt lat="33.8103134" lon="-118.3938676">
  <ele>-3.38</ele>
  <time>2026-09-01T01:13:52Z</time>
  <course>311.99</course>
  <speed>0.01</speed>
  <fix>3d</fix>
</trkpt>
<trkpt lat="33.8103132" lon="-118.3938675">
  <ele>-3.467</ele>
  <time>2026-09-01T01:13:52Z</time>
  <course>359.38</course>
  <speed>0.01</speed>
  <fix>3d</fix>
</trkpt>
<trkpt lat="33.8103134" lon="-118.3938677">
  <ele>-3.38</ele>
  <time>2026-09-01T01:13:52Z</time>
  <course>312.17</course>
  <speed>0.01</speed>
  <fix>3d</fix>
</trkpt>
<trkpt lat="33.8103132" lon="-118.3938675">
  <ele>-3.466</ele>
  <time>2026-09-01T01:13:52Z</time>
  <course>359.38</course>
  <speed>0.01414213562373095</speed>
  <fix>3d</fix>
</trkpt>
<trkpt lat="33.8103134" lon="-118.3938677">
  <ele>-3.38</ele>
  <time>2026-09-01T01:13:52Z</time>
  <course>312.17</course>
  <speed>0.01</speed>
  <fix>3d</fix>
</trkpt>
<trkpt lat="33.8103132" lon="-118.3938675">
  <ele>-3.466</ele>
  <time>2026-09-01T01:13:52Z</time>
  <course>359.38</course>
  <speed>0.01414213562373095</speed>
  <fix>3d</fix>
</trkpt>
<trkpt lat="33.8103135" lon="-118.3938677">
  <ele>-3.38</ele>
  <time>2026-09-01T01:13:52Z</time>
  <course>312.34</course>
  <speed>0.01</speed>
  <fix>3d</fix>
</trkpt>
<trkpt lat="33.8103132" lon="-118.3938675">
  <ele>-3.465</ele>
  <time>2026-09-01T01:13:52Z</time>
  <course>359.36</course>
  <speed>0.01414213562373095</speed>
  <fix>3d</fix>
</trkpt>
<trkpt lat="33.8103135" lon="-118.3938677">
  <ele>-3.38</ele>
  <time>2026-09-01T01:13:52Z</time>
  <course>312.34</course>
  <speed>0.01</speed>
  <fix>3d</fix>
</trkpt>
<trkpt lat="33.8103132" lon="-118.3938675">
  <ele>-3.465</ele>
  <time>2026-09-01T01:13:52Z</time>
  <course>359.32</course>
  <speed>0.022360679774997897</speed>
  <fix>3d</fix>
</trkpt>
<trkpt lat="33.8103135" lon="-118.3938677">
  <ele>-3.38</ele>
  <time>2026-09-01T01:13:52Z</time>
  <course>312.42</course>
  <speed>0.01</speed>
  <fix>3d</fix>
</trkpt>
<trkpt lat="33.8103132" lon="-118.3938675">
  <ele>-3.466</ele>
  <time>2026-09-01T01:13:52Z</time>
  <course>359.23</course>
  <speed>0.022360679774997897</speed>
  <fix>3d</fix>
</trkpt>
<trkpt lat="33.8103135" lon="-118.3938677">
  <ele>-3.38</ele>
  <time>2026-09-01T01:13:52Z</time>
  <course>312.42</course>
  <speed>0.01</speed>
  <fix>3d</fix>
</trkpt>
<trkpt lat="33.8103132" lon="-118.3938675">
  <ele>-3.466</ele>
  <time>2026-09-01T01:13:52Z</time>
  <course>359.14</course>
  <speed>0.022360679774997897</speed>
  <fix>3d</fix>
</trkpt>
<trkpt lat="33.8103135" lon="-118.3938677">
  <ele>-3.38</ele>
  <time>2026-09-01T01:13:52Z</time>
  <course>312.38</course>
  <speed>0.0</speed>
  <fix>3d</fix>
</trkpt>
<trkpt lat="33.8103132" lon="-118.3938675">
  <ele>-3.466</ele>
  <time>2026-09-01T01:13:52Z</time>
  <course>359.02</course>
  <speed>0.022360679774997897</speed>
  <fix>3d</fix>
</trkpt>
<trkpt lat="33.8103135" lon="-118.3938677">
  <ele>-3.38</ele>
  <time>2026-09-01T01:13:52Z</time>
  <course>312.38</course>
  <speed>0.0</speed>
  <fix>3d</fix>
</trkpt>
<trkpt lat="33.8103132" lon="-118.3938675">
  <ele>-3.467</ele>
  <time>2026-09-01T01:13:52Z</time>
  <course>358.9</course>
  <speed>0.022360679774997897</speed>
  <fix>3d</fix>
</trkpt>
<trkpt lat="33.8103135" lon="-118.3938677">
  <ele>-3.38</ele>
  <time>2026-09-01T01:13:52Z</time>
  <course>312.33</course>
  <speed>0.0</speed>
  <fix>3d</fix>
</trkpt>
<trkpt lat="33.8103133" lon="-118.3938675">
  <ele>-3.467</ele>
  <time>2026-09-01T01:13:52Z</time>
  <course>358.84</course>
  <speed>0.022360679774997897</speed>
  <fix>3d</fix>
</trkpt>
<trkpt lat="33.8103135" lon="-118.3938677">
  <ele>-3.38</ele>
  <time>2026-09-01T01:13:52Z</time>
  <course>312.33</course>
  <speed>0.0</speed>
  <fix>3d</fix>
</trkpt>
<trkpt lat="33.8103133" lon="-118.3938675">
  <ele>-3.467</ele>
  <time>2026-09-01T01:13:52Z</time>
  <course>358.79</course>
  <speed>0.022360679774997897</speed>
  <fix>3d</fix>
</trkpt>
<trkpt lat="33.8103135" lon="-118.3938677">
  <ele>-3.38</ele>
  <time>2026-09-01T01:13:52Z</time>
  <course>312.28</course>
  <speed>0.0</speed>
  <fix>3d</fix>
</trkpt>
<trkpt lat="33.8103133" lon="-118.3938675">
  <ele>-3.468</ele>
  <time>2026-09-01T01:13:52Z</time>
  <course>358.78</course>
  <speed>0.022360679774997897</speed>
  <fix>3d</fix>
</trkpt>
<trkpt lat="33.8103135" lon="-118.3938677">
  <ele>-3.38</ele>
  <time>2026-09-01T01:13:52Z</time>
  <course>312.28</course>
  <speed>0.0</speed>
  <fix>3d</fix>
</trkpt>
<trkpt lat="33.8103133" lon="-118.3938675">
  <ele>-3.469</ele>
  <time>2026-09-01T01:13:52Z</time>
  <course>358.78</course>
  <speed>0.022360679774997897</speed>
  <fix>3d</fix>
</trkpt>
<trkpt lat="33.8103135" lon="-118.3938677">
  <ele>-3.38</ele>
  <time>2026-09-01T01:13:52Z</time>
  <course>312.23</course>
  <speed>0.0</speed>
  <fix>3d</fix>
</trkpt>
<trkpt lat="33.8103133" lon="-118.3938675">
  <ele>-3.469</ele>
  <time>2026-09-01T01:13:52Z</time>
  <course>358.79</course>
  <speed>0.022360679774997897</speed>
  <fix>3d</fix>
</trkpt>
<trkpt lat="33.8103135" lon="-118.3938677">
  <ele>-3.38</ele>
  <time>2026-09-01T01:13:52Z</time>
  <course>312.23</course>
  <speed>0.0</speed>
  <fix>3d</fix>
</trkpt>
<trkpt lat="33.8103133" lon="-118.3938675">
  <ele>-3.468</ele>
  <time>2026-09-01T01:13:52Z</time>
  <course>358.81</course>
  <speed>0.022360679774997897</speed>
  <fix>3d</fix>
</trkpt>
<trkpt lat="33.8103135" lon="-118.3938677">
  <ele>-3.38</ele>
  <time>2026-09-01T01:13:52Z</time>
  <course>312.21</course>
  <speed>0.0</speed>
  <fix>3d</fix>
</trkpt>
<trkpt lat="33.8103133" lon="-118.3938675">
  <ele>-3.466</ele>
  <time>2026-09-01T01:13:52Z</time>
  <course>358.82</course>
  <speed>0.022360679774997897</speed>
  <fix>3d</fix>
</trkpt>
<trkpt lat="33.8103135" lon="-118.3938677">
  <ele>-3.38</ele>
  <time>2026-09-01T01:13:52Z</time>
  <course>312.21</course>
  <speed>0.0</speed>
  <fix>3d</fix>
</trkpt>
<trkpt lat="33.8103133" lon="-118.3938675">
  <ele>-3.465</ele>
  <time>2026-09-01T01:13:52Z</time>
  <course>358.84</course>
  <speed>0.022360679774997897</speed>
  <fix>3d</fix>
</trkpt>
<trkpt lat="33.8103135" lon="-118.3938678">
  <ele>-3.38</ele>
  <time>2026-09-01T01:13:52Z</time>
  <course>312.38</course>
  <speed>0.0</speed>
  <fix>3d</fix>
</trkpt>
<trkpt lat="33.8103133" lon="-118.3938675">
  <ele>-3.465</ele>
  <time>2026-09-01T01:13:52Z</time>
  <course>358.85</course>
  <speed>0.022360679774997897</speed>
  <fix>3d</fix>
</trkpt>
<trkpt lat="33.8103135" lon="-118.3938678">
  <ele>-3.38</ele>
  <time>2026-09-01T01:13:52Z</time>
  <course>312.38</course>
  <speed>0.0</speed>
  <fix>3d</fix>
</trkpt>
<trkpt lat="33.8103133" lon="-118.3938675">
  <ele>-3.466</ele>
  <time>2026-09-01T01:13:52Z</time>
  <course>358.87</course>
  <speed>0.022360679774997897</speed>
  <fix>3d</fix>
</trkpt>
<trkpt lat="33.8103135" lon="-118.3938678">
  <ele>-3.38</ele>
  <time>2026-09-01T01:13:52Z</time>
  <course>312.81</course>
  <speed>0.0</speed>
  <fix>3d</fix>
</trkpt>
<trkpt lat="33.8103133" lon="-118.3938675">
  <ele>-3.468</ele>
  <time>2026-09-01T01:13:52Z</time>
  <course>358.87</course>
  <speed>0.022360679774997897</speed>
  <fix>3d</fix>
</trkpt>
<trkpt lat="33.8103135" lon="-118.3938678">
  <ele>-3.38</ele>
  <time>2026-09-01T01:13:52Z</time>
  <course>312.81</course>
  <speed>0.0</speed>
  <fix>3d</fix>
</trkpt>
<trkpt lat="33.8103133" lon="-118.3938675">
  <ele>-3.468</ele>
  <time>2026-09-01T01:13:52Z</time>
  <course>358.87</course>
  <speed>0.022360679774997897</speed>
  <fix>3d</fix>
</trkpt>
<trkpt lat="33.8103135" lon="-118.3938678">
  <ele>-3.38</ele>
  <time>2026-09-01T01:13:52Z</time>
  <course>313.19</course>
  <speed>0.0</speed>
  <fix>3d</fix>
</trkpt>
<trkpt lat="33.8103133" lon="-118.3938675">
  <ele>-3.467</ele>
  <time>2026-09-01T01:13:52Z</time>
  <course>358.88</course>
  <speed>0.022360679774997897</speed>
  <fix>3d</fix>
</trkpt>
<trkpt lat="33.8103135" lon="-118.3938678">
  <ele>-3.38</ele>
  <time>2026-09-01T01:13:52Z</time>
  <course>313.19</course>
  <speed>0.0</speed>
  <fix>3d</fix>
</trkpt>
<trkpt lat="33.8103133" lon="-118.3938675">
  <ele>-3.466</ele>
  <time>2026-09-01T01:13:52Z</time>
  <course>358.91</course>
  <speed>0.022360679774997897</speed>
  <fix>3d</fix>
</trkpt>
<trkpt lat="33.8103135" lon="-118.3938678">
  <ele>-3.38</ele>
  <time>2026-09-01T01:13:52Z</time>
  <course>313.38</course>
  <speed>0.0</speed>
  <fix>3d</fix>
</trkpt>
<trkpt lat="33.8103133" lon="-118.3938675">
  <ele>-3.465</ele>
  <time>2026-09-01T01:13:52Z</time>
  <course>358.91</course>
  <speed>0.0282842712474619</speed>
  <fix>3d</fix>
</trkpt>
<trkpt lat="33.8103135" lon="-118.3938678">
  <ele>-3.38</ele>
  <time>2026-09-01T01:13:52Z</time>
  <course>313.38</course>
  <speed>0.0</speed>
  <fix>3d</fix>
</trkpt>
<trkpt lat="33.8103133" lon="-118.3938675">
  <ele>-3.463</ele>
  <time>2026-09-01T01:13:52Z</time>
  <course>358.9</course>
  <speed>0.0282842712474619</speed>
  <fix>3d</fix>
</trkpt>
<trkpt lat="33.8103135" lon="-118.3938678">
  <ele>-3.38</ele>
  <time>2026-09-01T01:13:52Z</time>
  <course>313.77</course>
  <speed>0.0</speed>
  <fix>3d</fix>
</trkpt>
<trkpt lat="33.8103133" lon="-118.3938675">
  <ele>-3.462</ele>
  <time>2026-09-01T01:13:52Z</time>
  <course>358.9</course>
  <speed>0.0282842712474619</speed>
  <fix>3d</fix>
</trkpt>
<trkpt lat="33.8103135" lon="-118.3938678">
  <ele>-3.38</ele>
  <time>2026-09-01T01:13:52Z</time>
  <course>313.77</course>
  <speed>0.0</speed>
  <fix>3d</fix>
</trkpt>
<trkpt lat="33.8103133" lon="-118.3938675">
  <ele>-3.462</ele>
  <time>2026-09-01T01:13:52Z</time>
  <course>358.89</course>
  <speed>0.0282842712474619</speed>
  <fix>3d</fix>
</trkpt>
<trkpt lat="33.8103135" lon="-118.3938678">
  <ele>-3.37</ele>
  <time>2026-09-01T01:13:52Z</time>
  <course>314.78</course>
  <speed>0.0</speed>
  <fix>3d</fix>
</trkpt>
<trkpt lat="33.8103133" lon="-118.3938675">
  <ele>-3.463</ele>
  <time>2026-09-01T01:13:52Z</time>
  <course>358.89</course>
  <speed>0.03605551275463989</speed>
  <fix>3d</fix>
</trkpt>
<trkpt lat="33.8103135" lon="-118.3938678">
  <ele>-3.37</ele>
  <time>2026-09-01T01:13:52Z</time>
  <course>314.78</course>
  <speed>0.0</speed>
  <fix>3d</fix>
</trkpt>
<trkpt lat="33.8103133" lon="-118.3938675">
  <ele>-3.465</ele>
  <time>2026-09-01T01:13:52Z</time>
  <course>358.89</course>
  <speed>0.03605551275463989</speed>
  <fix>3d</fix>
</trkpt>
<trkpt lat="33.8103135" lon="-118.3938678">
  <ele>-3.37</ele>
  <time>2026-09-01T01:13:52Z</time>
  <course>315.8</course>
  <speed>0.0</speed>
  <fix>3d</fix>
</trkpt>
<trkpt lat="33.8103133" lon="-118.3938676">
  <ele>-3.465</ele>
  <time>2026-09-01T01:13:52Z</time>
  <course>358.88</course>
  <speed>0.03605551275463989</speed>
  <fix>3d</fix>
</trkpt>
<trkpt lat="33.8103135" lon="-118.3938678">
  <ele>-3.37</ele>
  <time>2026-09-01T01:13:52Z</time>
  <course>315.8</course>
  <speed>0.0</speed>
  <fix>3d</fix>
</trkpt>
<trkpt lat="33.8103133" lon="-118.3938676">
  <ele>-3.465</ele>
  <time>2026-09-01T01:13:52Z</time>
  <course>358.88</course>
  <speed>0.03605551275463989</speed>
  <fix>3d</fix>
</trkpt>
<trkpt lat="33.8103135" lon="-118.3938678">
  <ele>-3.38</ele>
  <time>2026-09-01T01:13:52Z</time>
  <course>316.35</course>
  <speed>0.0</speed>
  <fix>3d</fix>
</trkpt>
<trkpt lat="33.8103133" lon="-118.3938676">
  <ele>-3.465</ele>
  <time>2026-09-01T01:13:52Z</time>
  <course>358.88</course>
  <speed>0.03605551275463989</speed>
  <fix>3d</fix>
</trkpt>
<trkpt lat="33.8103135" lon="-118.3938678">
  <ele>-3.38</ele>
  <time>2026-09-01T01:13:52Z</time>
  <course>316.35</course>
  <speed>0.0</speed>
  <fix>3d</fix>
</trkpt>
<trkpt lat="33.8103133" lon="-118.3938676">
  <ele>-3.465</ele>
  <time>2026-09-01T01:13:52Z</time>
  <course>358.88</course>
  <speed>0.03605551275463989</speed>
  <fix>3d</fix>
</trkpt>
<trkpt lat="33.8103135" lon="-118.3938678">
  <ele>-3.38</ele>
  <time>2026-09-01T01:13:52Z</time>
  <course>316.6</course>
  <speed>0.0</speed>
  <fix>3d</fix>
</trkpt>
<trkpt lat="33.8103133" lon="-118.3938676">
  <ele>-3.464</ele>
  <time>2026-09-01T01:13:52Z</time>
  <course>358.88</course>
  <speed>0.03605551275463989</speed>
  <fix>3d</fix>
</trkpt>
<trkpt lat="33.8103135" lon="-118.3938678">
  <ele>-3.38</ele>
  <time>2026-09-01T01:13:52Z</time>
  <course>316.6</course>
  <speed>0.0</speed>
  <fix>3d</fix>
</trkpt>
<trkpt lat="33.8103133" lon="-118.3938676">
  <ele>-3.465</ele>
  <time>2026-09-01T01:13:52Z</time>
  <course>358.88</course>
  <speed>0.03605551275463989</speed>
  <fix>3d</fix>
</trkpt>
<trkpt lat="33.8103135" lon="-118.3938678">
  <ele>-3.38</ele>
  <time>2026-09-01T01:13:52Z</time>
  <course>317.51</course>
  <speed>0.0</speed>
  <fix>3d</fix>
</trkpt>
<trkpt lat="33.8103133" lon="-118.3938676">
  <ele>-3.466</ele>
  <time>2026-09-01T01:13:52Z</time>
  <course>358.89</course>
  <speed>0.03605551275463989</speed>
  <fix>3d</fix>
</trkpt>
<trkpt lat="33.8103135" lon="-118.3938678">
  <ele>-3.38</ele>
  <time>2026-09-01T01:13:52Z</time>
  <course>317.51</course>
  <speed>0.0</speed>
  <fix>3d</fix>
</trkpt>
<trkpt lat="33.8103133" lon="-118.3938676">
  <ele>-3.467</ele>
  <time>2026-09-01T01:13:52Z</time>
  <course>358.9</course>
  <speed>0.03605551275463989</speed>
  <fix>3d</fix>
</trkpt>
<trkpt lat="33.8103136" lon="-118.3938678">
  <ele>-3.38</ele>
  <time>2026-09-01T01:13:52Z</time>
  <course>318.74</course>
  <speed>0.0</speed>
  <fix>3d</fix>
</trkpt>
<trkpt lat="33.8103133" lon="-118.3938676">
  <ele>-3.467</ele>
  <time>2026-09-01T01:13:52Z</time>
  <course>358.92</course>
  <speed>0.03605551275463989</speed>
  <fix>3d</fix>
</trkpt>
<trkpt lat="33.8103136" lon="-118.3938678">
  <ele>-3.38</ele>
  <time>2026-09-01T01:13:52Z</time>
  <course>318.74</course>
  <speed>0.0</speed>
  <fix>3d</fix>
</trkpt>
<trkpt lat="33.8103133" lon="-118.3938676">
  <ele>-3.467</ele>
  <time>2026-09-01T01:13:52Z</time>
  <course>358.96</course>
  <speed>0.03605551275463989</speed>
  <fix>3d</fix>
</trkpt>
<trkpt lat="33.8103136" lon="-118.3938678">
  <ele>-3.38</ele>
  <time>2026-09-01T01:13:52Z</time>
  <course>321.53</course>
  <speed>0.0</speed>
  <fix>3d</fix>
</trkpt>
<trkpt lat="33.8103133" lon="-118.3938676">
  <ele>-3.466</ele>
  <time>2026-09-01T01:13:52Z</time>
  <course>358.97</course>
  <speed>0.03605551275463989</speed>
  <fix>3d</fix>
</trkpt>
<trkpt lat="33.8103136" lon="-118.3938678">
  <ele>-3.38</ele>
  <time>2026-09-01T01:13:52Z</time>
  <course>321.53</course>
  <speed>0.0</speed>
  <fix>3d</fix>
</trkpt>
<trkpt lat="33.8103133" lon="-118.3938676">
  <ele>-3.466</ele>
  <time>2026-09-01T01:13:52Z</time>
  <course>358.97</course>
  <speed>0.03605551275463989</speed>
  <fix>3d</fix>
</trkpt>
<trkpt lat="33.8103136" lon="-118.3938678">
  <ele>-3.38</ele>
  <time>2026-09-01T01:13:52Z</time>
  <course>103.75</course>
  <speed>0.0</speed>
  <fix>3d</fix>
</trkpt>
<trkpt lat="33.8103133" lon="-118.3938676">
  <ele>-3.465</ele>
  <time>2026-09-01T01:13:52Z</time>
  <course>358.96</course>
  <speed>0.03605551275463989</speed>
  <fix>3d</fix>
</trkpt>
<trkpt lat="33.8103136" lon="-118.3938678">
  <ele>-3.38</ele>
  <time>2026-09-01T01:13:52Z</time>
  <course>103.75</course>
  <speed>0.0</speed>
  <fix>3d</fix>
</trkpt>
<trkpt lat="33.8103133" lon="-118.3938676">
  <ele>-3.464</ele>
  <time>2026-09-01T01:13:52Z</time>
  <course>358.96</course>
  <speed>0.03605551275463989</speed>
  <fix>3d</fix>
</trkpt>
<trkpt lat="33.8103136" lon="-118.3938678">
  <ele>-3.37</ele>
  <time>2026-09-01T01:13:52Z</time>
  <course>127.62</course>
  <speed>0.0</speed>
  <fix>3d</fix>
</trkpt>
<trkpt lat="33.8103133" lon="-118.3938676">
  <ele>-3.462</ele>
  <time>2026-09-01T01:13:52Z</time>
  <course>358.96</course>
  <speed>0.03605551275463989</speed>
  <fix>3d</fix>
</trkpt>
<trkpt lat="33.8103136" lon="-118.3938678">
  <ele>-3.37</ele>
  <time>2026-09-01T01:13:52Z</time>
  <course>127.62</course>
  <speed>0.0</speed>
  <fix>3d</fix>
</trkpt>
<trkpt lat="33.8103133" lon="-118.3938676">
  <ele>-3.461</ele>
  <time>2026-09-01T01:13:52Z</time>
  <course>358.96</course>
  <speed>0.03605551275463989</speed>
  <fix>3d</fix>
</trkpt>
<trkpt lat="33.8103136" lon="-118.3938678">
  <ele>-3.37</ele>
  <time>2026-09-01T01:13:52Z</time>
  <course>129.52</course>
  <speed>0.0</speed>
  <fix>3d</fix>
</trkpt>
<trkpt lat="33.8103133" lon="-118.3938676">
  <ele>-3.46</ele>
  <time>2026-09-01T01:13:52Z</time>
  <course>358.97</course>
  <speed>0.03605551275463989</speed>
  <fix>3d</fix>
</trkpt>
<trkpt lat="33.8103136" lon="-118.3938678">
  <ele>-3.37</ele>
  <time>2026-09-01T01:13:52Z</time>
  <course>129.52</course>
  <speed>0.0</speed>
  <fix>3d</fix>
</trkpt>
<trkpt lat="33.8103133" lon="-118.3938676">
  <ele>-3.46</ele>
  <time>2026-09-01T01:13:52Z</time>
  <course>358.97</course>
  <speed>0.03605551275463989</speed>
  <fix>3d</fix>
</trkpt>
<trkpt lat="33.8103136" lon="-118.3938678">
  <ele>-3.37</ele>
  <time>2026-09-01T01:13:52Z</time>
  <course>130.24</course>
  <speed>0.0</speed>
  <fix>3d</fix>
</trkpt>
<trkpt lat="33.8103133" lon="-118.3938676">
  <ele>-3.46</ele>
  <time>2026-09-01T01:13:52Z</time>
  <course>358.97</course>
  <speed>0.03605551275463989</speed>
  <fix>3d</fix>
</trkpt>
<trkpt lat="33.8103136" lon="-118.3938678">
  <ele>-3.37</ele>
  <time>2026-09-01T01:13:52Z</time>
  <course>130.24</course>
  <speed>0.0</speed>
  <fix>3d</fix>
</trkpt>
<trkpt lat="33.8103133" lon="-118.3938676">
  <ele>-3.461</ele>
  <time>2026-09-01T01:13:52Z</time>
  <course>358.96</course>
  <speed>0.03605551275463989</speed>
  <fix>3d</fix>
</trkpt>
<trkpt lat="33.8103136" lon="-118.3938678">
  <ele>-3.38</ele>
  <time>2026-09-01T01:13:52Z</time>
  <course>130.46</course>
  <speed>0.0</speed>
  <fix>3d</fix>
</trkpt>
<trkpt lat="33.8103133" lon="-118.3938676">
  <ele>-3.463</ele>
  <time>2026-09-01T01:13:52Z</time>
  <course>358.96</course>
  <speed>0.03605551275463989</speed>
  <fix>3d</fix>
</trkpt>
<trkpt lat="33.8103136" lon="-118.3938678">
  <ele>-3.38</ele>
  <time>2026-09-01T01:13:52Z</time>
  <course>130.46</course>
  <speed>0.0</speed>
  <fix>3d</fix>
</trkpt>
<trkpt lat="33.8103133" lon="-118.3938676">
  <ele>-3.464</ele>
  <time>2026-09-01T01:13:52Z</time>
  <course>358.97</course>
  <speed>0.03605551275463989</speed>
  <fix>3d</fix>
</trkpt>
<trkpt lat="33.8103136" lon="-118.3938678">
  <ele>-3.38</ele>
  <time>2026-09-01T01:13:52Z</time>
  <course>130.51</course>
  <speed>0.0</speed>
  <fix>3d</fix>
</trkpt>
<trkpt lat="33.8103133" lon="-118.3938676">
  <ele>-3.465</ele>
  <time>2026-09-01T01:13:52Z</time>
  <course>358.98</course>
  <speed>0.03605551275463989</speed>
  <fix>3d</fix>
</trkpt>
<trkpt lat="33.8103136" lon="-118.3938678">
  <ele>-3.38</ele>
  <time>2026-09-01T01:13:52Z</time>
  <course>130.51</course>
  <speed>0.0</speed>
  <fix>3d</fix>
</trkpt>
<trkpt lat="33.8103133" lon="-118.3938676">
  <ele>-3.466</ele>
  <time>2026-09-01T01:13:52Z</time>
  <course>358.97</course>
  <speed>0.03605551275463989</speed>
  <fix>3d</fix>
</trkpt>
<trkpt lat="33.8103136" lon="-118.3938678">
  <ele>-3.38</ele>
  <time>2026-09-01T01:13:52Z</time>
  <course>130.72</course>
  <speed>0.0</speed>
  <fix>3d</fix>
</trkpt>
<trkpt lat="33.8103133" lon="-118.3938676">
  <ele>-3.467</ele>
  <time>2026-09-01T01:13:52Z</time>
  <course>358.97</course>
  <speed>0.03605551275463989</speed>
  <fix>3d</fix>
</trkpt>
<trkpt lat="33.8103136" lon="-118.3938678">
  <ele>-3.38</ele>
  <time>2026-09-01T01:13:52Z</time>
  <course>130.72</course>
  <speed>0.0</speed>
  <fix>3d</fix>
</trkpt>
<trkpt lat="33.8103133" lon="-118.3938676">
  <ele>-3.468</ele>
  <time>2026-09-01T01:13:52Z</time>
  <course>358.97</course>
  <speed>0.03605551275463989</speed>
  <fix>3d</fix>
</trkpt>
<trkpt lat="33.8103136" lon="-118.3938678">
  <ele>-3.39</ele>
  <time>2026-09-01T01:13:52Z</time>
  <course>130.88</course>
  <speed>0.0</speed>
  <fix>3d</fix>
</trkpt>
<trkpt lat="33.8103133" lon="-118.3938676">
  <ele>-3.469</ele>
  <time>2026-09-01T01:13:52Z</time>
  <course>358.97</course>
  <speed>0.03605551275463989</speed>
  <fix>3d</fix>
</trkpt>
<trkpt lat="33.8103136" lon="-118.3938678">
  <ele>-3.39</ele>
  <time>2026-09-01T01:13:52Z</time>
  <course>130.88</course>
  <speed>0.0</speed>
  <fix>3d</fix>
</trkpt>
<trkpt lat="33.8103133" lon="-118.3938675">
  <ele>-3.468</ele>
  <time>2026-09-01T01:13:52Z</time>
  <course>358.97</course>
  <speed>0.03605551275463989</speed>
  <fix>3d</fix>
</trkpt>
<trkpt lat="33.8103136" lon="-118.3938678">
  <ele>-3.39</ele>
  <time>2026-09-01T01:13:52Z</time>
  <course>130.86</course>
  <speed>0.0</speed>
  <fix>3d</fix>
</trkpt>
<trkpt lat="33.8103133" lon="-118.3938675">
  <ele>-3.468</ele>
  <time>2026-09-01T01:13:52Z</time>
  <course>358.96</course>
  <speed>0.03605551275463989</speed>
  <fix>3d</fix>
</trkpt>
<trkpt lat="33.8103136" lon="-118.3938678">
  <ele>-3.39</ele>
  <time>2026-09-01T01:13:52Z</time>
  <course>130.86</course>
  <speed>0.0</speed>
  <fix>3d</fix>
</trkpt>
<trkpt lat="33.8103133" lon="-118.3938675">
  <ele>-3.469</ele>
  <time>2026-09-01T01:13:52Z</time>
  <course>358.96</course>
  <speed>0.03605551275463989</speed>
  <fix>3d</fix>
</trkpt>
<trkpt lat="33.8103136" lon="-118.3938678">
  <ele>-3.38</ele>
  <time>2026-09-01T01:13:52Z</time>
  <course>130.78</course>
  <speed>0.0</speed>
  <fix>3d</fix>
</trkpt>
<trkpt lat="33.8103133" lon="-118.3938675">
  <ele>-3.47</ele>
  <time>2026-09-01T01:13:52Z</time>
  <course>358.98</course>
  <speed>0.03605551275463989</speed>
  <fix>3d</fix>
</trkpt>
<trkpt lat="33.8103136" lon="-118.3938678">
  <ele>-3.38</ele>
  <time>2026-09-01T01:13:52Z</time>
  <course>130.78</course>
  <speed>0.0</speed>
  <fix>3d</fix>
</trkpt>
<trkpt lat="33.8103133" lon="-118.3938675">
  <ele>-3.471</ele>
  <time>2026-09-01T01:13:52Z</time>
  <course>359.0</course>
  <speed>0.03605551275463989</speed>
  <fix>3d</fix>
</trkpt>
<trkpt lat="33.8103136" lon="-118.3938678">
  <ele>-3.38</ele>
  <time>2026-09-01T01:13:52Z</time>
  <course>130.8</course>
  <speed>0.0</speed>
  <fix>3d</fix>
</trkpt>
<trkpt lat="33.8103133" lon="-118.3938675">
  <ele>-3.471</ele>
  <time>2026-09-01T01:13:52Z</time>
  <course>359.01</course>
  <speed>0.03605551275463989</speed>
  <fix>3d</fix>
</trkpt>
<trkpt lat="33.8103136" lon="-118.3938678">
  <ele>-3.38</ele>
  <time>2026-09-01T01:13:52Z</time>
  <course>130.8</course>
  <speed>0.0</speed>
  <fix>3d</fix>
</trkpt>
<trkpt lat="33.8103133" lon="-118.3938675">
  <ele>-3.47</ele>
  <time>2026-09-01T01:13:52Z</time>
  <course>359.01</course>
  <speed>0.03605551275463989</speed>
  <fix>3d</fix>
</trkpt>
<trkpt lat="33.8103136" lon="-118.3938678">
  <ele>-3.38</ele>
  <time>2026-09-01T01:13:52Z</time>
  <course>130.99</course>
  <speed>0.0</speed>
  <fix>3d</fix>
</trkpt>
<trkpt lat="33.8103133" lon="-118.3938675">
  <ele>-3.469</ele>
  <time>2026-09-01T01:13:52Z</time>
  <course>359.01</course>
  <speed>0.03605551275463989</speed>
  <fix>3d</fix>
</trkpt>
<trkpt lat="33.8103136" lon="-118.3938678">
  <ele>-3.38</ele>
  <time>2026-09-01T01:13:52Z</time>
  <course>130.99</course>
  <speed>0.0</speed>
  <fix>3d</fix>
</trkpt>
<trkpt lat="33.8103133" lon="-118.3938675">
  <ele>-3.467</ele>
  <time>2026-09-01T01:13:52Z</time>
  <course>359.01</course>
  <speed>0.03605551275463989</speed>
  <fix>3d</fix>
</trkpt>
<trkpt lat="33.8103136" lon="-118.3938678">
  <ele>-3.38</ele>
  <time>2026-09-01T01:13:52Z</time>
  <course>131.14</course>
  <speed>0.0</speed>
  <fix>3d</fix>
</trkpt>
<trkpt lat="33.8103133" lon="-118.3938675">
  <ele>-3.466</ele>
  <time>2026-09-01T01:13:52Z</time>
  <course>359.01</course>
  <speed>0.03605551275463989</speed>
  <fix>3d</fix>
</trkpt>
<trkpt lat="33.8103136" lon="-118.3938678">
  <ele>-3.38</ele>
  <time>2026-09-01T01:13:52Z</time>
  <course>131.14</course>
  <speed>0.0</speed>
  <fix>3d</fix>
</trkpt>
<trkpt lat="33.8103133" lon="-118.3938675">
  <ele>-3.465</ele>
  <time>2026-09-01T01:13:52Z</time>
  <course>359.02</course>
  <speed>0.03605551275463989</speed>
  <fix>3d</fix>
</trkpt>
<trkpt lat="33.8103136" lon="-118.3938678">
  <ele>-3.37</ele>
  <time>2026-09-01T01:13:52Z</time>
  <course>131.17</course>
  <speed>0.0</speed>
  <fix>3d</fix>
</trkpt>
<trkpt lat="33.8103133" lon="-118.3938675">
  <ele>-3.464</ele>
  <time>2026-09-01T01:13:52Z</time>
  <course>359.02</course>
  <speed>0.03605551275463989</speed>
  <fix>3d</fix>
</trkpt>
<trkpt lat="33.8103136" lon="-118.3938678">
  <ele>-3.37</ele>
  <time>2026-09-01T01:13:52Z</time>
  <course>131.17</course>
  <speed>0.0</speed>
  <fix>3d</fix>
</trkpt>
<trkpt lat="33.8103133" lon="-118.3938675">
  <ele>-3.463</ele>
  <time>2026-09-01T01:13:52Z</time>
  <course>359.02</course>
  <speed>0.03605551275463989</speed>
  <fix>3d</fix>
</trkpt>
<trkpt lat="33.8103135" lon="-118.3938678">
  <ele>-3.37</ele>
  <time>2026-09-01T01:13:52Z</time>
  <course>131.2</course>
  <speed>0.0</speed>
  <fix>3d</fix>
</trkpt>
<trkpt lat="33.8103133" lon="-118.3938675">
  <ele>-3.463</ele>
  <time>2026-09-01T01:13:52Z</time>
  <course>359.02</course>
  <speed>0.03605551275463989</speed>
  <fix>3d</fix>
</trkpt>
<trkpt lat="33.8103135" lon="-118.3938678">
  <ele>-3.37</ele>
  <time>2026-09-01T01:13:52Z</time>
  <course>131.2</course>
  <speed>0.0</speed>
  <fix>3d</fix>
</trkpt>
<trkpt lat="33.8103133" lon="-118.3938675">
  <ele>-3.462</ele>
  <time>2026-09-01T01:13:52Z</time>
  <course>359.03</course>
  <speed>0.03605551275463989</speed>
  <fix>3d</fix>
</trkpt>
<trkpt lat="33.8103135" lon="-118.3938677">
  <ele>-3.37</ele>
  <time>2026-09-01T01:13:52Z</time>
  <course>131.23</course>
  <speed>0.0</speed>
  <fix>3d</fix>
</trkpt>
<trkpt lat="33.8103133" lon="-118.3938675">
  <ele>-3.462</ele>
  <time>2026-09-01T01:13:52Z</time>
  <course>359.03</course>
  <speed>0.03605551275463989</speed>
  <fix>3d</fix>
</trkpt>
<trkpt lat="33.8103135" lon="-118.3938677">
  <ele>-3.37</ele>
  <time>2026-09-01T01:13:52Z</time>
  <course>131.23</course>
  <speed>0.0</speed>
  <fix>3d</fix>
</trkpt>
<trkpt lat="33.8103133" lon="-118.3938675">
  <ele>-3.461</ele>
  <time>2026-09-01T01:13:52Z</time>
  <course>359.03</course>
  <speed>0.03605551275463989</speed>
  <fix>3d</fix>
</trkpt>
<trkpt lat="33.8103135" lon="-118.3938677">
  <ele>-3.37</ele>
  <time>2026-09-01T01:13:52Z</time>
  <course>131.22</course>
  <speed>0.0</speed>
  <fix>3d</fix>
</trkpt>
<trkpt lat="33.8103133" lon="-118.3938675">
  <ele>-3.461</ele>
  <time>2026-09-01T01:13:52Z</time>
  <course>359.03</course>
  <speed>0.03605551275463989</speed>
  <fix>3d</fix>
</trkpt>
<trkpt lat="33.8103135" lon="-118.3938677">
  <ele>-3.37</ele>
  <time>2026-09-01T01:13:52Z</time>
  <course>131.22</course>
  <speed>0.0</speed>
  <fix>3d</fix>
</trkpt>
<trkpt lat="33.8103133" lon="-118.3938675">
  <ele>-3.46</ele>
  <time>2026-09-01T01:13:52Z</time>
  <course>359.04</course>
  <speed>0.03605551275463989</speed>
  <fix>3d</fix>
</trkpt>
<trkpt lat="33.8103135" lon="-118.3938677">
  <ele>-3.37</ele>
  <time>2026-09-01T01:13:52Z</time>
  <course>131.18</course>
  <speed>0.0</speed>
  <fix>3d</fix>
</trkpt>
<trkpt lat="33.8103133" lon="-118.3938675">
  <ele>-3.459</ele>
  <time>2026-09-01T01:13:52Z</time>
  <course>359.04</course>
  <speed>0.03605551275463989</speed>
  <fix>3d</fix>
</trkpt>
<trkpt lat="33.8103135" lon="-118.3938677">
  <ele>-3.37</ele>
  <time>2026-09-01T01:13:52Z</time>
  <course>131.18</course>
  <speed>0.0</speed>
  <fix>3d</fix>
</trkpt>
<trkpt lat="33.8103133" lon="-118.3938675">
  <ele>-3.458</ele>
  <time>2026-09-01T01:13:52Z</time>
  <course>359.04</course>
  <speed>0.03605551275463989</speed>
  <fix>3d</fix>
</trkpt>
<trkpt lat="33.8103135" lon="-118.3938677">
  <ele>-3.37</ele>
  <time>2026-09-01T01:13:52Z</time>
  <course>131.12</course>
  <speed>0.0</speed>
  <fix>3d</fix>
</trkpt>
<trkpt lat="33.8103133" lon="-118.3938675">
  <ele>-3.459</ele>
  <time>2026-09-01T01:13:52Z</time>
  <course>359.04</course>
  <speed>0.03605551275463989</speed>
  <fix>3d</fix>
</trkpt>
<trkpt lat="33.8103135" lon="-118.3938677">
  <ele>-3.37</ele>
  <time>2026-09-01T01:13:52Z</time>
  <course>131.12</course>
  <speed>0.0</speed>
  <fix>3d</fix>
</trkpt>
<trkpt lat="33.8103133" lon="-118.3938675">
  <ele>-3.461</ele>
  <time>2026-09-01T01:13:52Z</time>
  <course>359.04</course>
  <speed>0.03605551275463989</speed>
  <fix>3d</fix>
</trkpt>
<trkpt lat="33.8103135" lon="-118.3938677">
  <ele>-3.37</ele>
  <time>2026-09-01T01:13:52Z</time>
  <course>131.07</course>
  <speed>0.0</speed>
  <fix>3d</fix>
</trkpt>
<trkpt lat="33.8103133" lon="-118.3938675">
  <ele>-3.463</ele>
  <time>2026-09-01T01:13:52Z</time>
  <course>359.04</course>
  <speed>0.03605551275463989</speed>
  <fix>3d</fix>
</trkpt>
<trkpt lat="33.8103135" lon="-118.3938677">
  <ele>-3.37</ele>
  <time>2026-09-01T01:13:52Z</time>
  <course>131.07</course>
  <speed>0.0</speed>
  <fix>3d</fix>
</trkpt>
<trkpt lat="33.8103133" lon="-118.3938675">
  <ele>-3.465</ele>
  <time>2026-09-01T01:13:52Z</time>
  <course>359.05</course>
  <speed>0.03605551275463989</speed>
  <fix>3d</fix>
</trkpt>
<trkpt lat="33.8103135" lon="-118.3938677">
  <ele>-3.38</ele>
  <time>2026-09-01T01:13:52Z</time>
  <course>131.05</course>
  <speed>0.0</speed>
  <fix>3d</fix>
</trkpt>
<trkpt lat="33.8103133" lon="-118.3938674">
  <ele>-3.466</ele>
  <time>2026-09-01T01:13:52Z</time>
  <course>359.05</course>
  <speed>0.03605551275463989</speed>
  <fix>3d</fix>
</trkpt>
<trkpt lat="33.8103135" lon="-118.3938677">
  <ele>-3.38</ele>
  <time>2026-09-01T01:13:52Z</time>
  <course>131.05</course>
  <speed>0.0</speed>
  <fix>3d</fix>
</trkpt>
<trkpt lat="33.8103133" lon="-118.3938674">
  <ele>-3.466</ele>
  <time>2026-09-01T01:13:52Z</time>
  <course>359.05</course>
  <speed>0.03605551275463989</speed>
  <fix>3d</fix>
</trkpt>
<trkpt lat="33.8103135" lon="-118.3938676">
  <ele>-3.38</ele>
  <time>2026-09-01T01:13:52Z</time>
  <course>131.08</course>
  <speed>0.0</speed>
  <fix>3d</fix>
</trkpt>
<trkpt lat="33.8103133" lon="-118.3938674">
  <ele>-3.467</ele>
  <time>2026-09-01T01:13:52Z</time>
  <course>359.05</course>
  <speed>0.03605551275463989</speed>
  <fix>3d</fix>
</trkpt>
<trkpt lat="33.8103135" lon="-118.3938676">
  <ele>-3.38</ele>
  <time>2026-09-01T01:13:52Z</time>
  <course>131.08</course>
  <speed>0.0</speed>
  <fix>3d</fix>
</trkpt>
<trkpt lat="33.8103133" lon="-118.3938674">
  <ele>-3.468</ele>
  <time>2026-09-01T01:13:52Z</time>
  <course>359.05</course>
  <speed>0.03605551275463989</speed>
  <fix>3d</fix>
</trkpt>
<trkpt lat="33.8103135" lon="-118.3938676">
  <ele>-3.39</ele>
  <time>2026-09-01T01:13:52Z</time>
  <course>131.12</course>
  <speed>0.0</speed>
  <fix>3d</fix>
</trkpt>
<trkpt lat="33.8103133" lon="-118.3938674">
  <ele>-3.469</ele>
  <time>2026-09-01T01:13:52Z</time>
  <course>359.05</course>
  <speed>0.03605551275463989</speed>
  <fix>3d</fix>
</trkpt>
<trkpt lat="33.8103135" lon="-118.3938676">
  <ele>-3.39</ele>
  <time>2026-09-01T01:13:52Z</time>
  <course>131.12</course>
  <speed>0.0</speed>
  <fix>3d</fix>
</trkpt>
<trkpt lat="33.8103133" lon="-118.3938674">
  <ele>-3.468</ele>
  <time>2026-09-01T01:13:52Z</time>
  <course>359.06</course>
  <speed>0.02</speed>
  <fix>3d</fix>
</trkpt>
<trkpt lat="33.8103135" lon="-118.3938676">
  <ele>-3.39</ele>
  <time>2026-09-01T01:13:52Z</time>
  <course>125.01</course>
  <speed>0.0</speed>
  <fix>3d</fix>
</trkpt>
<trkpt lat="33.8103133" lon="-118.3938674">
  <ele>-3.467</ele>
  <time>2026-09-01T01:13:53Z</time>
  <course>359.08</course>
  <speed>0.022360679774997897</speed>
  <fix>3d</fix>
</trkpt>
<trkpt lat="33.8103135" lon="-118.3938676">
  <ele>-3.39</ele>
  <time>2026-09-01T01:13:53Z</time>
  <course>125.01</course>
  <speed>0.0</speed>
  <fix>3d</fix>
</trkpt>
<trkpt lat="33.8103133" lon="-118.3938674">
  <ele>-3.467</ele>
  <time>2026-09-01T01:13:53Z</time>
  <course>359.11</course>
  <speed>0.0316227766016838</speed>
  <fix>3d</fix>
</trkpt>
<trkpt lat="33.8103135" lon="-118.3938676">
  <ele>-3.39</ele>
  <time>2026-09-01T01:13:53Z</time>
  <course>5.14</course>
  <speed>0.02</speed>
  <fix>3d</fix>
</trkpt>
<trkpt lat="33.8103133" lon="-118.3938674">
  <ele>-3.467</ele>
  <time>2026-09-01T01:13:53Z</time>
  <course>359.12</course>
  <speed>0.05099019513592785</speed>
  <fix>3d</fix>
</trkpt>
<trkpt lat="33.8103135" lon="-118.3938676">
  <ele>-3.39</ele>
  <time>2026-09-01T01:13:53Z</time>
  <course>5.14</course>
  <speed>0.02</speed>
  <fix>3d</fix>
</trkpt>
<trkpt lat="33.8103134" lon="-118.3938674">
  <ele>-3.467</ele>
  <time>2026-09-01T01:13:53Z</time>
  <course>359.13</course>
  <speed>0.06082762530298219</speed>
  <fix>3d</fix>
</trkpt>
<trkpt lat="33.8103135" lon="-118.3938676">
  <ele>-3.39</ele>
  <time>2026-09-01T01:13:53Z</time>
  <course>354.76</course>
  <speed>0.06</speed>
  <fix>3d</fix>
</trkpt>
<trkpt lat="33.8103135" lon="-118.3938674">
  <ele>-3.468</ele>
  <time>2026-09-01T01:13:53Z</time>
  <course>359.12</course>
  <speed>0.07071067811865475</speed>
  <fix>3d</fix>
</trkpt>
<trkpt lat="33.8103135" lon="-118.3938676">
  <ele>-3.39</ele>
  <time>2026-09-01T01:13:53Z</time>
  <course>354.76</course>
  <speed>0.06</speed>
  <fix>3d</fix>
</trkpt>
<trkpt lat="33.8103136" lon="-118.3938674">
  <ele>-3.468</ele>
  <time>2026-09-01T01:13:53Z</time>
  <course>359.12</course>
  <speed>0.07071067811865475</speed>
  <fix>3d</fix>
</trkpt>
<trkpt lat="33.8103136" lon="-118.3938676">
  <ele>-3.38</ele>
  <time>2026-09-01T01:13:53Z</time>
  <course>353.84</course>
  <speed>0.08</speed>
  <fix>3d</fix>
</trkpt>
<trkpt lat="33.8103137" lon="-118.3938674">
  <ele>-3.466</ele>
  <time>2026-09-01T01:13:53Z</time>
  <course>359.12</course>
  <speed>0.07071067811865475</speed>
  <fix>3d</fix>
</trkpt>
<trkpt lat="33.8103136" lon="-118.3938676">
  <ele>-3.38</ele>
  <time>2026-09-01T01:13:53Z</time>
  <course>353.84</course>
  <speed>0.08</speed>
  <fix>3d</fix>
</trkpt>
<trkpt lat="33.8103137" lon="-118.3938674">
  <ele>-3.465</ele>
  <time>2026-09-01T01:13:53Z</time>
  <course>359.11</course>
  <speed>0.07071067811865475</speed>
  <fix>3d</fix>
</trkpt>
<trkpt lat="33.8103138" lon="-118.3938676">
  <ele>-3.38</ele>
  <time>2026-09-01T01:13:53Z</time>
  <course>354.11</course>
  <speed>0.09</speed>
  <fix>3d</fix>
</trkpt>
<trkpt lat="33.8103138" lon="-118.3938674">
  <ele>-3.463</ele>
  <time>2026-09-01T01:13:53Z</time>
  <course>359.11</course>
  <speed>0.06082762530298219</speed>
  <fix>3d</fix>
</trkpt>
<trkpt lat="33.8103138" lon="-118.3938676">
  <ele>-3.38</ele>
  <time>2026-09-01T01:13:53Z</time>
  <course>354.11</course>
  <speed>0.09</speed>
  <fix>3d</fix>
</trkpt>
<trkpt lat="33.8103139" lon="-118.3938674">
  <ele>-3.462</ele>
  <time>2026-09-01T01:13:53Z</time>
  <course>359.12</course>
  <speed>0.06082762530298219</speed>
  <fix>3d</fix>
</trkpt>
<trkpt lat="33.8103139" lon="-118.3938676">
  <ele>-3.38</ele>
  <time>2026-09-01T01:13:53Z</time>
  <course>354.47</course>
  <speed>0.09</speed>
  <fix>3d</fix>
</trkpt>
<trkpt lat="33.810314" lon="-118.3938674">
  <ele>-3.462</ele>
  <time>2026-09-01T01:13:53Z</time>
  <course>359.12</course>
  <speed>0.05099019513592785</speed>
  <fix>3d</fix>
</trkpt>
<trkpt lat="33.8103139" lon="-118.3938676">
  <ele>-3.38</ele>
  <time>2026-09-01T01:13:53Z</time>
  <course>354.47</course>
  <speed>0.09</speed>
  <fix>3d</fix>
</trkpt>
<trkpt lat="33.810314" lon="-118.3938674">
  <ele>-3.463</ele>
  <time>2026-09-01T01:13:53Z</time>
  <course>359.12</course>
  <speed>0.05099019513592785</speed>
  <fix>3d</fix>
</trkpt>
<trkpt lat="33.8103141" lon="-118.3938676">
  <ele>-3.38</ele>
  <time>2026-09-01T01:13:53Z</time>
  <course>354.68</course>
  <speed>0.08</speed>
  <fix>3d</fix>
</trkpt>
<trkpt lat="33.8103141" lon="-118.3938674">
  <ele>-3.465</ele>
  <time>2026-09-01T01:13:53Z</time>
  <course>359.12</course>
  <speed>0.0412310562561766</speed>
  <fix>3d</fix>
</trkpt>
<trkpt lat="33.8103141" lon="-118.3938676">
  <ele>-3.38</ele>
  <time>2026-09-01T01:13:53Z</time>
  <course>354.68</course>
  <speed>0.08</speed>
  <fix>3d</fix>
</trkpt>
<trkpt lat="33.8103141" lon="-118.3938674">
  <ele>-3.465</ele>
  <time>2026-09-01T01:13:53Z</time>
  <course>359.12</course>
  <speed>0.0412310562561766</speed>
  <fix>3d</fix>
</trkpt>
<trkpt lat="33.8103142" lon="-118.3938676">
  <ele>-3.38</ele>
  <time>2026-09-01T01:13:53Z</time>
  <course>354.54</course>
  <speed>0.07</speed>
  <fix>3d</fix>
</trkpt>
<trkpt lat="33.8103142" lon="-118.3938674">
  <ele>-3.466</ele>
  <time>2026-09-01T01:13:53Z</time>
  <course>359.12</course>
  <speed>0.0316227766016838</speed>
  <fix>3d</fix>
</trkpt>
<trkpt lat="33.8103142" lon="-118.3938676">
  <ele>-3.38</ele>
  <time>2026-09-01T01:13:53Z</time>
  <course>354.54</course>
  <speed>0.07</speed>
  <fix>3d</fix>
</trkpt>
<trkpt lat="33.8103142" lon="-118.3938674">
  <ele>-3.468</ele>
  <time>2026-09-01T01:13:53Z</time>
  <course>359.13</course>
  <speed>0.0316227766016838</speed>
  <fix>3d</fix>
</trkpt>
<trkpt lat="33.8103143" lon="-118.3938676">
  <ele>-3.39</ele>
  <time>2026-09-01T01:13:53Z</time>
  <course>353.9</course>
  <speed>0.06</speed>
  <fix>3d</fix>
</trkpt>
<trkpt lat="33.8103143" lon="-118.3938674">
  <ele>-3.47</ele>
  <time>2026-09-01T01:13:53Z</time>
  <course>359.13</course>
  <speed>0.022360679774997897</speed>
  <fix>3d</fix>
</trkpt>
<trkpt lat="33.8103143" lon="-118.3938676">
  <ele>-3.39</ele>
  <time>2026-09-01T01:13:53Z</time>
  <course>353.9</course>
  <speed>0.06</speed>
  <fix>3d</fix>
</trkpt>
<trkpt lat="33.8103143" lon="-118.3938674">
  <ele>-3.471</ele>
  <time>2026-09-01T01:13:53Z</time>
  <course>359.13</course>
  <speed>0.022360679774997897</speed>
  <fix>3d</fix>
</trkpt>
<trkpt lat="33.8103145" lon="-118.3938676">
  <ele>-3.39</ele>
  <time>2026-09-01T01:13:53Z</time>
  <course>352.79</course>
  <speed>0.05</speed>
  <fix>3d</fix>
</trkpt>
<trkpt lat="33.8103143" lon="-118.3938674">
  <ele>-3.471</ele>
  <time>2026-09-01T01:13:53Z</time>
  <course>359.14</course>
  <speed>0.01414213562373095</speed>
  <fix>3d</fix>
</trkpt>
<trkpt lat="33.8103145" lon="-118.3938676">
  <ele>-3.39</ele>
  <time>2026-09-01T01:13:53Z</time>
  <course>352.79</course>
  <speed>0.05</speed>
  <fix>3d</fix>
</trkpt>
<trkpt lat="33.8103144" lon="-118.3938674">
  <ele>-3.472</ele>
  <time>2026-09-01T01:13:53Z</time>
  <course>359.14</course>
  <speed>0.01</speed>
  <fix>3d</fix>
</trkpt>
<trkpt lat="33.8103146" lon="-118.3938677">
  <ele>-3.38</ele>
  <time>2026-09-01T01:13:53Z</time>
  <course>350.98</course>
  <speed>0.04</speed>
  <fix>3d</fix>
</trkpt>
<trkpt lat="33.8103144" lon="-118.3938674">
  <ele>-3.471</ele>
  <time>2026-09-01T01:13:53Z</time>
  <course>359.14</course>
  <speed>0.02</speed>
  <fix>3d</fix>
</trkpt>
<trkpt lat="33.8103146" lon="-118.3938677">
  <ele>-3.38</ele>
  <time>2026-09-01T01:13:53Z</time>
  <course>350.98</course>
  <speed>0.04</speed>
  <fix>3d</fix>
</trkpt>
<trkpt lat="33.8103144" lon="-118.3938674">
  <ele>-3.471</ele>
  <time>2026-09-01T01:13:53Z</time>
  <course>359.14</course>
  <speed>0.02</speed>
  <fix>3d</fix>
</trkpt>
<trkpt lat="33.8103146" lon="-118.3938677">
  <ele>-3.38</ele>
  <time>2026-09-01T01:13:53Z</time>
  <course>349.18</course>
  <speed>0.03</speed>
  <fix>3d</fix>
</trkpt>
<trkpt lat="33.8103145" lon="-118.3938674">
  <ele>-3.47</ele>
  <time>2026-09-01T01:13:53Z</time>
  <course>359.14</course>
  <speed>0.02</speed>
  <fix>3d</fix>
</trkpt>
<trkpt lat="33.8103146" lon="-118.3938677">
  <ele>-3.38</ele>
  <time>2026-09-01T01:13:53Z</time>
  <course>349.18</course>
  <speed>0.03</speed>
  <fix>3d</fix>
</trkpt>
<trkpt lat="33.8103145" lon="-118.3938674">
  <ele>-3.469</ele>
  <time>2026-09-01T01:13:53Z</time>
  <course>359.14</course>
  <speed>0.02</speed>
  <fix>3d</fix>
</trkpt>
<trkpt lat="33.8103147" lon="-118.3938677">
  <ele>-3.38</ele>
  <time>2026-09-01T01:13:53Z</time>
  <course>348.46</course>
  <speed>0.02</speed>
  <fix>3d</fix>
</trkpt>
<trkpt lat="33.8103145" lon="-118.3938674">
  <ele>-3.467</ele>
  <time>2026-09-01T01:13:53Z</time>
  <course>359.14</course>
  <speed>0.022360679774997897</speed>
  <fix>3d</fix>
</trkpt>
<trkpt lat="33.8103147" lon="-118.3938677">
  <ele>-3.38</ele>
  <time>2026-09-01T01:13:53Z</time>
  <course>348.46</course>
  <speed>0.02</speed>
  <fix>3d</fix>
</trkpt>
<trkpt lat="33.8103145" lon="-118.3938674">
  <ele>-3.465</ele>
  <time>2026-09-01T01:13:53Z</time>
  <course>359.15</course>
  <speed>0.022360679774997897</speed>
  <fix>3d</fix>
</trkpt>
<trkpt lat="33.8103148" lon="-118.3938677">
  <ele>-3.37</ele>
  <time>2026-09-01T01:13:53Z</time>
  <course>348.22</course>
  <speed>0.02</speed>
  <fix>3d</fix>
</trkpt>
<trkpt lat="33.8103145" lon="-118.3938674">
  <ele>-3.463</ele>
  <time>2026-09-01T01:13:53Z</time>
  <course>359.15</course>
  <speed>0.022360679774997897</speed>
  <fix>3d</fix>
</trkpt>
<trkpt lat="33.8103148" lon="-118.3938677">
  <ele>-3.37</ele>
  <time>2026-09-01T01:13:53Z</time>
  <course>348.22</course>
  <speed>0.02</speed>
  <fix>3d</fix>
</trkpt>
<trkpt lat="33.8103145" lon="-118.3938674">
  <ele>-3.461</ele>
  <time>2026-09-01T01:13:53Z</time>
  <course>359.15</course>
  <speed>0.0282842712474619</speed>
  <fix>3d</fix>
</trkpt>
<trkpt lat="33.8103148" lon="-118.3938677">
  <ele>-3.37</ele>
  <time>2026-09-01T01:13:53Z</time>
  <course>346.45</course>
  <speed>0.01</speed>
  <fix>3d</fix>
</trkpt>
<trkpt lat="33.8103145" lon="-118.3938674">
  <ele>-3.46</ele>
  <time>2026-09-01T01:13:53Z</time>
  <course>359.15</course>
  <speed>0.0282842712474619</speed>
  <fix>3d</fix>
</trkpt>
<trkpt lat="33.8103148" lon="-118.3938677">
  <ele>-3.37</ele>
  <time>2026-09-01T01:13:53Z</time>
  <course>346.45</course>
  <speed>0.01</speed>
  <fix>3d</fix>
</trkpt>
<trkpt lat="33.8103145" lon="-118.3938674">
  <ele>-3.461</ele>
  <time>2026-09-01T01:13:53Z</time>
  <course>359.15</course>
  <speed>0.0282842712474619</speed>
  <fix>3d</fix>
</trkpt>
<trkpt lat="33.8103148" lon="-118.3938677">
  <ele>-3.37</ele>
  <time>2026-09-01T01:13:53Z</time>
  <course>340.21</course>
  <speed>0.0</speed>
  <fix>3d</fix>
</trkpt>
<trkpt lat="33.8103145" lon="-118.3938674">
  <ele>-3.462</ele>
  <time>2026-09-01T01:13:53Z</time>
  <course>359.16</course>
  <speed>0.0282842712474619</speed>
  <fix>3d</fix>
</trkpt>
<trkpt lat="33.8103148" lon="-118.3938677">
  <ele>-3.37</ele>
  <time>2026-09-01T01:13:53Z</time>
  <course>340.21</course>
  <speed>0.0</speed>
  <fix>3d</fix>
</trkpt>
<trkpt lat="33.8103145" lon="-118.3938674">
  <ele>-3.463</ele>
  <time>2026-09-01T01:13:53Z</time>
  <course>359.16</course>
  <speed>0.0282842712474619</speed>
  <fix>3d</fix>
</trkpt>
<trkpt lat="33.8103148" lon="-118.3938677">
  <ele>-3.37</ele>
  <time>2026-09-01T01:13:53Z</time>
  <course>319.68</course>
  <speed>0.0</speed>
  <fix>3d</fix>
</trkpt>
<trkpt lat="33.8103145" lon="-118.3938674">
  <ele>-3.463</ele>
  <time>2026-09-01T01:13:53Z</time>
  <course>359.16</course>
  <speed>0.03605551275463989</speed>
  <fix>3d</fix>
</trkpt>
<trkpt lat="33.8103148" lon="-118.3938677">
  <ele>-3.37</ele>
  <time>2026-09-01T01:13:53Z</time>
  <course>319.68</course>
  <speed>0.0</speed>
  <fix>3d</fix>
</trkpt>
<trkpt lat="33.8103145" lon="-118.3938674">
  <ele>-3.464</ele>
  <time>2026-09-01T01:13:53Z</time>
  <course>359.16</course>
  <speed>0.03605551275463989</speed>
  <fix>3d</fix>
</trkpt>
<trkpt lat="33.8103149" lon="-118.3938677">
  <ele>-3.37</ele>
  <time>2026-09-01T01:13:53Z</time>
  <course>258.61</course>
  <speed>0.0</speed>
  <fix>3d</fix>
</trkpt>
<trkpt lat="33.8103145" lon="-118.3938674">
  <ele>-3.464</ele>
  <time>2026-09-01T01:13:53Z</time>
  <course>359.16</course>
  <speed>0.03605551275463989</speed>
  <fix>3d</fix>
</trkpt>
<trkpt lat="33.8103149" lon="-118.3938677">
  <ele>-3.37</ele>
  <time>2026-09-01T01:13:53Z</time>
  <course>258.61</course>
  <speed>0.0</speed>
  <fix>3d</fix>
</trkpt>
<trkpt lat="33.8103145" lon="-118.3938674">
  <ele>-3.464</ele>
  <time>2026-09-01T01:13:53Z</time>
  <course>359.16</course>
  <speed>0.03605551275463989</speed>
  <fix>3d</fix>
</trkpt>
<trkpt lat="33.8103149" lon="-118.3938677">
  <ele>-3.37</ele>
  <time>2026-09-01T01:13:53Z</time>
  <course>214.29</course>
  <speed>0.0</speed>
  <fix>3d</fix>
</trkpt>
<trkpt lat="33.8103145" lon="-118.3938674">
  <ele>-3.464</ele>
  <time>2026-09-01T01:13:53Z</time>
  <course>359.16</course>
  <speed>0.03605551275463989</speed>
  <fix>3d</fix>
</trkpt>
<trkpt lat="33.8103149" lon="-118.3938677">
  <ele>-3.37</ele>
  <time>2026-09-01T01:13:53Z</time>
  <course>214.29</course>
  <speed>0.0</speed>
  <fix>3d</fix>
</trkpt>
<trkpt lat="33.8103145" lon="-118.3938674">
  <ele>-3.463</ele>
  <time>2026-09-01T01:13:53Z</time>
  <course>359.16</course>
  <speed>0.03605551275463989</speed>
  <fix>3d</fix>
</trkpt>
<trkpt lat="33.8103149" lon="-118.3938677">
  <ele>-3.37</ele>
  <time>2026-09-01T01:13:53Z</time>
  <course>199.75</course>
  <speed>0.0</speed>
  <fix>3d</fix>
</trkpt>
<trkpt lat="33.8103145" lon="-118.3938674">
  <ele>-3.463</ele>
  <time>2026-09-01T01:13:53Z</time>
  <course>359.17</course>
  <speed>0.044721359549995794</speed>
  <fix>3d</fix>
</trkpt>
<trkpt lat="33.8103149" lon="-118.3938677">
  <ele>-3.37</ele>
  <time>2026-09-01T01:13:53Z</time>
  <course>199.75</course>
  <speed>0.0</speed>
  <fix>3d</fix>
</trkpt>
<trkpt lat="33.8103145" lon="-118.3938674">
  <ele>-3.462</ele>
  <time>2026-09-01T01:13:53Z</time>
  <course>359.17</course>
  <speed>0.044721359549995794</speed>
  <fix>3d</fix>
</trkpt>
<trkpt lat="33.8103149" lon="-118.3938677">
  <ele>-3.37</ele>
  <time>2026-09-01T01:13:53Z</time>
  <course>195.3</course>
  <speed>0.01</speed>
  <fix>3d</fix>
</trkpt>
<trkpt lat="33.8103145" lon="-118.3938674">
  <ele>-3.461</ele>
  <time>2026-09-01T01:13:53Z</time>
  <course>359.17</course>
  <speed>0.044721359549995794</speed>
  <fix>3d</fix>
</trkpt>
<trkpt lat="33.8103149" lon="-118.3938677">
  <ele>-3.37</ele>
  <time>2026-09-01T01:13:53Z</time>
  <course>195.3</course>
  <speed>0.01</speed>
  <fix>3d</fix>
</trkpt>
<trkpt lat="33.8103145" lon="-118.3938674">
  <ele>-3.46</ele>
  <time>2026-09-01T01:13:53Z</time>
  <course>359.17</course>
  <speed>0.044721359549995794</speed>
  <fix>3d</fix>
</trkpt>
<trkpt lat="33.8103149" lon="-118.3938678">
  <ele>-3.37</ele>
  <time>2026-09-01T01:13:53Z</time>
  <course>193.12</course>
  <speed>0.01</speed>
  <fix>3d</fix>
</trkpt>
<trkpt lat="33.8103145" lon="-118.3938674">
  <ele>-3.459</ele>
  <time>2026-09-01T01:13:53Z</time>
  <course>359.17</course>
  <speed>0.044721359549995794</speed>
  <fix>3d</fix>
</trkpt>
<trkpt lat="33.8103149" lon="-118.3938678">
  <ele>-3.37</ele>
  <time>2026-09-01T01:13:53Z</time>
  <course>193.12</course>
  <speed>0.01</speed>
  <fix>3d</fix>
</trkpt>
<trkpt lat="33.8103145" lon="-118.3938674">
  <ele>-3.459</ele>
  <time>2026-09-01T01:13:53Z</time>
  <course>359.17</course>
  <speed>0.044721359549995794</speed>
  <fix>3d</fix>
</trkpt>
<trkpt lat="33.8103148" lon="-118.3938678">
  <ele>-3.37</ele>
  <time>2026-09-01T01:13:53Z</time>
  <course>188.42</course>
  <speed>0.01</speed>
  <fix>3d</fix>
</trkpt>
<trkpt lat="33.8103145" lon="-118.3938674">
  <ele>-3.461</ele>
  <time>2026-09-01T01:13:53Z</time>
  <course>359.17</course>
  <speed>0.044721359549995794</speed>
  <fix>3d</fix>
</trkpt>
<trkpt lat="33.8103148" lon="-118.3938678">
  <ele>-3.37</ele>
  <time>2026-09-01T01:13:53Z</time>
  <course>188.42</course>
  <speed>0.01</speed>
  <fix>3d</fix>
</trkpt>
<trkpt lat="33.8103145" lon="-118.3938674">
  <ele>-3.464</ele>
  <time>2026-09-01T01:13:53Z</time>
  <course>359.17</course>
  <speed>0.044721359549995794</speed>
  <fix>3d</fix>
</trkpt>
<trkpt lat="33.8103148" lon="-118.3938678">
  <ele>-3.37</ele>
  <time>2026-09-01T01:13:53Z</time>
  <course>182.74</course>
  <speed>0.01</speed>
  <fix>3d</fix>
</trkpt>
<trkpt lat="33.8103145" lon="-118.3938674">
  <ele>-3.466</ele>
  <time>2026-09-01T01:13:53Z</time>
  <course>359.18</course>
  <speed>0.044721359549995794</speed>
  <fix>3d</fix>
</trkpt>
<trkpt lat="33.8103148" lon="-118.3938678">
  <ele>-3.37</ele>
  <time>2026-09-01T01:13:53Z</time>
  <course>182.74</course>
  <speed>0.01</speed>
  <fix>3d</fix>
</trkpt>
<trkpt lat="33.8103145" lon="-118.3938674">
  <ele>-3.467</ele>
  <time>2026-09-01T01:13:53Z</time>
  <course>359.18</course>
  <speed>0.044721359549995794</speed>
  <fix>3d</fix>
</trkpt>
<trkpt lat="33.8103148" lon="-118.3938678">
  <ele>-3.38</ele>
  <time>2026-09-01T01:13:53Z</time>
  <course>178.39</course>
  <speed>0.01</speed>
  <fix>3d</fix>
</trkpt>
<trkpt lat="33.8103145" lon="-118.3938674">
  <ele>-3.468</ele>
  <time>2026-09-01T01:13:53Z</time>
  <course>359.18</course>
  <speed>0.044721359549995794</speed>
  <fix>3d</fix>
</trkpt>
<trkpt lat="33.8103148" lon="-118.3938678">
  <ele>-3.38</ele>
  <time>2026-09-01T01:13:53Z</time>
  <course>178.39</course>
  <speed>0.01</speed>
  <fix>3d</fix>
</trkpt>
<trkpt lat="33.8103145" lon="-118.3938674">
  <ele>-3.469</ele>
  <time>2026-09-01T01:13:53Z</time>
  <course>359.18</course>
  <speed>0.044721359549995794</speed>
  <fix>3d</fix>
</trkpt>
<trkpt lat="33.8103147" lon="-118.3938678">
  <ele>-3.38</ele>
  <time>2026-09-01T01:13:53Z</time>
  <course>174.86</course>
  <speed>0.02</speed>
  <fix>3d</fix>
</trkpt>
<trkpt lat="33.8103145" lon="-118.3938674">
  <ele>-3.47</ele>
  <time>2026-09-01T01:13:53Z</time>
  <course>359.18</course>
  <speed>0.044721359549995794</speed>
  <fix>3d</fix>
</trkpt>
<trkpt lat="33.8103147" lon="-118.3938678">
  <ele>-3.38</ele>
  <time>2026-09-01T01:13:53Z</time>
  <course>174.86</course>
  <speed>0.02</speed>
  <fix>3d</fix>
</trkpt>
<trkpt lat="33.8103145" lon="-118.3938674">
  <ele>-3.47</ele>
  <time>2026-09-01T01:13:53Z</time>
  <course>359.18</course>
  <speed>0.044721359549995794</speed>
  <fix>3d</fix>
</trkpt>
<trkpt lat="33.8103147" lon="-118.3938678">
  <ele>-3.38</ele>
  <time>2026-09-01T01:13:53Z</time>
  <course>172.32</course>
  <speed>0.02</speed>
  <fix>3d</fix>
</trkpt>
<trkpt lat="33.8103145" lon="-118.3938674">
  <ele>-3.47</ele>
  <time>2026-09-01T01:13:53Z</time>
  <course>359.18</course>
  <speed>0.044721359549995794</speed>
  <fix>3d</fix>
</trkpt>
<trkpt lat="33.8103147" lon="-118.3938678">
  <ele>-3.38</ele>
  <time>2026-09-01T01:13:53Z</time>
  <course>172.32</course>
  <speed>0.02</speed>
  <fix>3d</fix>
</trkpt>
<trkpt lat="33.8103145" lon="-118.3938674">
  <ele>-3.47</ele>
  <time>2026-09-01T01:13:53Z</time>
  <course>359.18</course>
  <speed>0.044721359549995794</speed>
  <fix>3d</fix>
</trkpt>
<trkpt lat="33.8103147" lon="-118.3938678">
  <ele>-3.38</ele>
  <time>2026-09-01T01:13:53Z</time>
  <course>170.45</course>
  <speed>0.02</speed>
  <fix>3d</fix>
</trkpt>
<trkpt lat="33.8103144" lon="-118.3938674">
  <ele>-3.469</ele>
  <time>2026-09-01T01:13:53Z</time>
  <course>359.18</course>
  <speed>0.05</speed>
  <fix>3d</fix>
</trkpt>
<trkpt lat="33.8103147" lon="-118.3938678">
  <ele>-3.38</ele>
  <time>2026-09-01T01:13:53Z</time>
  <course>170.45</course>
  <speed>0.02</speed>
  <fix>3d</fix>
</trkpt>
<trkpt lat="33.8103144" lon="-118.3938674">
  <ele>-3.468</ele>
  <time>2026-09-01T01:13:53Z</time>
  <course>359.18</course>
  <speed>0.044721359549995794</speed>
  <fix>3d</fix>
</trkpt>
<trkpt lat="33.8103146" lon="-118.3938678">
  <ele>-3.38</ele>
  <time>2026-09-01T01:13:53Z</time>
  <course>169.38</course>
  <speed>0.01</speed>
  <fix>3d</fix>
</trkpt>
<trkpt lat="33.8103144" lon="-118.3938674">
  <ele>-3.466</ele>
  <time>2026-09-01T01:13:53Z</time>
  <course>359.18</course>
  <speed>0.044721359549995794</speed>
  <fix>3d</fix>
</trkpt>
<trkpt lat="33.8103146" lon="-118.3938678">
  <ele>-3.38</ele>
  <time>2026-09-01T01:13:53Z</time>
  <course>169.38</course>
  <speed>0.01</speed>
  <fix>3d</fix>
</trkpt>
<trkpt lat="33.8103144" lon="-118.3938674">
  <ele>-3.465</ele>
  <time>2026-09-01T01:13:53Z</time>
  <course>359.18</course>
  <speed>0.044721359549995794</speed>
  <fix>3d</fix>
</trkpt>
<trkpt lat="33.8103146" lon="-118.3938678">
  <ele>-3.37</ele>
  <time>2026-09-01T01:13:53Z</time>
  <course>168.38</course>
  <speed>0.01</speed>
  <fix>3d</fix>
</trkpt>
<trkpt lat="33.8103144" lon="-118.3938674">
  <ele>-3.462</ele>
  <time>2026-09-01T01:13:53Z</time>
  <course>359.18</course>
  <speed>0.05</speed>
  <fix>3d</fix>
</trkpt>
<trkpt lat="33.8103146" lon="-118.3938678">
  <ele>-3.37</ele>
  <time>2026-09-01T01:13:53Z</time>
  <course>168.38</course>
  <speed>0.01</speed>
  <fix>3d</fix>
</trkpt>
<trkpt lat="33.8103144" lon="-118.3938674">
  <ele>-3.461</ele>
  <time>2026-09-01T01:13:53Z</time>
  <course>359.18</course>
  <speed>0.03605551275463989</speed>
  <fix>3d</fix>
</trkpt>
<trkpt lat="33.8103146" lon="-118.3938678">
  <ele>-3.37</ele>
  <time>2026-09-01T01:13:53Z</time>
  <course>167.0</course>
  <speed>0.01</speed>
  <fix>3d</fix>
</trkpt>
<trkpt lat="33.8103144" lon="-118.3938674">
  <ele>-3.461</ele>
  <time>2026-09-01T01:13:53Z</time>
  <course>359.18</course>
  <speed>0.03605551275463989</speed>
  <fix>3d</fix>
</trkpt>
<trkpt lat="33.8103146" lon="-118.3938678">
  <ele>-3.37</ele>
  <time>2026-09-01T01:13:53Z</time>
  <course>167.0</course>
  <speed>0.01</speed>
  <fix>3d</fix>
</trkpt>
<trkpt lat="33.8103143" lon="-118.3938674">
  <ele>-3.462</ele>
  <time>2026-09-01T01:13:53Z</time>
  <course>359.18</course>
  <speed>0.03605551275463989</speed>
  <fix>3d</fix>
</trkpt>
<trkpt lat="33.8103145" lon="-118.3938678">
  <ele>-3.37</ele>
  <time>2026-09-01T01:13:53Z</time>
  <course>166.12</course>
  <speed>0.01</speed>
  <fix>3d</fix>
</trkpt>
<trkpt lat="33.8103143" lon="-118.3938674">
  <ele>-3.464</ele>
  <time>2026-09-01T01:13:53Z</time>
  <course>359.18</course>
  <speed>0.03605551275463989</speed>
  <fix>3d</fix>
</trkpt>
<trkpt lat="33.8103145" lon="-118.3938678">
  <ele>-3.37</ele>
  <time>2026-09-01T01:13:53Z</time>
  <course>166.12</course>
  <speed>0.01</speed>
  <fix>3d</fix>
</trkpt>
<trkpt lat="33.8103143" lon="-118.3938674">
  <ele>-3.465</ele>
  <time>2026-09-01T01:13:53Z</time>
  <course>359.18</course>
  <speed>0.03605551275463989</speed>
  <fix>3d</fix>
</trkpt>
<trkpt lat="33.8103144" lon="-118.3938678">
  <ele>-3.37</ele>
  <time>2026-09-01T01:13:53Z</time>
  <course>164.79</course>
  <speed>0.01</speed>
  <fix>3d</fix>
</trkpt>
<trkpt lat="33.8103143" lon="-118.3938674">
  <ele>-3.464</ele>
  <time>2026-09-01T01:13:53Z</time>
  <course>359.18</course>
  <speed>0.03605551275463989</speed>
  <fix>3d</fix>
</trkpt>
<trkpt lat="33.8103144" lon="-118.3938678">
  <ele>-3.37</ele>
  <time>2026-09-01T01:13:53Z</time>
  <course>164.79</course>
  <speed>0.01</speed>
  <fix>3d</fix>
</trkpt>
<trkpt lat="33.8103143" lon="-118.3938674">
  <ele>-3.464</ele>
  <time>2026-09-01T01:13:53Z</time>
  <course>359.18</course>
  <speed>0.03605551275463989</speed>
  <fix>3d</fix>
</trkpt>
<trkpt lat="33.8103144" lon="-118.3938678">
  <ele>-3.37</ele>
  <time>2026-09-01T01:13:53Z</time>
  <course>162.25</course>
  <speed>0.01</speed>
  <fix>3d</fix>
</trkpt>
<trkpt lat="33.8103143" lon="-118.3938674">
  <ele>-3.464</ele>
  <time>2026-09-01T01:13:53Z</time>
  <course>359.18</course>
  <speed>0.03605551275463989</speed>
  <fix>3d</fix>
</trkpt>
<trkpt lat="33.8103144" lon="-118.3938678">
  <ele>-3.37</ele>
  <time>2026-09-01T01:13:53Z</time>
  <course>162.25</course>
  <speed>0.01</speed>
  <fix>3d</fix>
</trkpt>
<trkpt lat="33.8103143" lon="-118.3938674">
  <ele>-3.464</ele>
  <time>2026-09-01T01:13:53Z</time>
  <course>359.18</course>
  <speed>0.03605551275463989</speed>
  <fix>3d</fix>
</trkpt>
<trkpt lat="33.8103144" lon="-118.3938678">
  <ele>-3.38</ele>
  <time>2026-09-01T01:13:53Z</time>
  <course>158.75</course>
  <speed>0.01</speed>
  <fix>3d</fix>
</trkpt>
<trkpt lat="33.8103142" lon="-118.3938674">
  <ele>-3.465</ele>
  <time>2026-09-01T01:13:53Z</time>
  <course>359.18</course>
  <speed>0.03605551275463989</speed>
  <fix>3d</fix>
</trkpt>
<trkpt lat="33.8103144" lon="-118.3938678">
  <ele>-3.38</ele>
  <time>2026-09-01T01:13:53Z</time>
  <course>158.75</course>
  <speed>0.01</speed>
  <fix>3d</fix>
</trkpt>
<trkpt lat="33.8103142" lon="-118.3938674">
  <ele>-3.467</ele>
  <time>2026-09-01T01:13:53Z</time>
  <course>359.18</course>
  <speed>0.03605551275463989</speed>
  <fix>3d</fix>
</trkpt>
<trkpt lat="33.8103143" lon="-118.3938678">
  <ele>-3.38</ele>
  <time>2026-09-01T01:13:53Z</time>
  <course>155.18</course>
  <speed>0.01</speed>
  <fix>3d</fix>
</trkpt>
<trkpt lat="33.8103142" lon="-118.3938674">
  <ele>-3.467</ele>
  <time>2026-09-01T01:13:53Z</time>
  <course>359.18</course>
  <speed>0.03605551275463989</speed>
  <fix>3d</fix>
</trkpt>
<trkpt lat="33.8103143" lon="-118.3938678">
  <ele>-3.38</ele>
  <time>2026-09-01T01:13:53Z</time>
  <course>155.18</course>
  <speed>0.01</speed>
  <fix>3d</fix>
</trkpt>
<trkpt lat="33.8103142" lon="-118.3938674">
  <ele>-3.467</ele>
  <time>2026-09-01T01:13:53Z</time>
  <course>359.18</course>
  <speed>0.03605551275463989</speed>
  <fix>3d</fix>
</trkpt>
<trkpt lat="33.8103143" lon="-118.3938678">
  <ele>-3.38</ele>
  <time>2026-09-01T01:13:53Z</time>
  <course>151.94</course>
  <speed>0.01</speed>
  <fix>3d</fix>
</trkpt>
<trkpt lat="33.8103142" lon="-118.3938674">
  <ele>-3.466</ele>
  <time>2026-09-01T01:13:53Z</time>
  <course>359.18</course>
  <speed>0.03605551275463989</speed>
  <fix>3d</fix>
</trkpt>
<trkpt lat="33.8103143" lon="-118.3938678">
  <ele>-3.38</ele>
  <time>2026-09-01T01:13:53Z</time>
  <course>151.94</course>
  <speed>0.01</speed>
  <fix>3d</fix>
</trkpt>
<trkpt lat="33.8103142" lon="-118.3938674">
  <ele>-3.466</ele>
  <time>2026-09-01T01:13:53Z</time>
  <course>359.18</course>
  <speed>0.03605551275463989</speed>
  <fix>3d</fix>
</trkpt>
<trkpt lat="33.8103143" lon="-118.3938677">
  <ele>-3.38</ele>
  <time>2026-09-01T01:13:53Z</time>
  <course>147.37</course>
  <speed>0.01</speed>
  <fix>3d</fix>
</trkpt>
<trkpt lat="33.8103142" lon="-118.3938674">
  <ele>-3.467</ele>
  <time>2026-09-01T01:13:53Z</time>
  <course>359.18</course>
  <speed>0.03605551275463989</speed>
  <fix>3d</fix>
</trkpt>
<trkpt lat="33.8103143" lon="-118.3938677">
  <ele>-3.38</ele>
  <time>2026-09-01T01:13:53Z</time>
  <course>147.37</course>
  <speed>0.01</speed>
  <fix>3d</fix>
</trkpt>
<trkpt lat="33.8103142" lon="-118.3938674">
  <ele>-3.467</ele>
  <time>2026-09-01T01:13:53Z</time>
  <course>359.18</course>
  <speed>0.03605551275463989</speed>
  <fix>3d</fix>
</trkpt>
<trkpt lat="33.8103143" lon="-118.3938677">
  <ele>-3.37</ele>
  <time>2026-09-01T01:13:53Z</time>
  <course>145.0</course>
  <speed>0.0</speed>
  <fix>3d</fix>
</trkpt>
<trkpt lat="33.8103141" lon="-118.3938674">
  <ele>-3.466</ele>
  <time>2026-09-01T01:13:53Z</time>
  <course>359.18</course>
  <speed>0.03605551275463989</speed>
  <fix>3d</fix>
</trkpt>
<trkpt lat="33.8103143" lon="-118.3938677">
  <ele>-3.37</ele>
  <time>2026-09-01T01:13:53Z</time>
  <course>145.0</course>
  <speed>0.0</speed>
  <fix>3d</fix>
</trkpt>
<trkpt lat="33.8103141" lon="-118.3938674">
  <ele>-3.465</ele>
  <time>2026-09-01T01:13:53Z</time>
  <course>359.18</course>
  <speed>0.03605551275463989</speed>
  <fix>3d</fix>
</trkpt>
<trkpt lat="33.8103143" lon="-118.3938677">
  <ele>-3.37</ele>
  <time>2026-09-01T01:13:53Z</time>
  <course>150.77</course>
  <speed>0.0</speed>
  <fix>3d</fix>
</trkpt>
<trkpt lat="33.8103141" lon="-118.3938674">
  <ele>-3.464</ele>
  <time>2026-09-01T01:13:53Z</time>
  <course>359.18</course>
  <speed>0.03605551275463989</speed>
  <fix>3d</fix>
</trkpt>
<trkpt lat="33.8103143" lon="-118.3938677">
  <ele>-3.37</ele>
  <time>2026-09-01T01:13:53Z</time>
  <course>150.77</course>
  <speed>0.0</speed>
  <fix>3d</fix>
</trkpt>
<trkpt lat="33.8103141" lon="-118.3938674">
  <ele>-3.463</ele>
  <time>2026-09-01T01:13:53Z</time>
  <course>359.18</course>
  <speed>0.03605551275463989</speed>
  <fix>3d</fix>
</trkpt>
<trkpt lat="33.8103143" lon="-118.3938677">
  <ele>-3.37</ele>
  <time>2026-09-01T01:13:53Z</time>
  <course>161.55</course>
  <speed>0.0</speed>
  <fix>3d</fix>
</trkpt>
<trkpt lat="33.8103141" lon="-118.3938674">
  <ele>-3.462</ele>
  <time>2026-09-01T01:13:53Z</time>
  <course>359.18</course>
  <speed>0.03605551275463989</speed>
  <fix>3d</fix>
</trkpt>
<trkpt lat="33.8103143" lon="-118.3938677">
  <ele>-3.37</ele>
  <time>2026-09-01T01:13:53Z</time>
  <course>161.55</course>
  <speed>0.0</speed>
  <fix>3d</fix>
</trkpt>
<trkpt lat="33.8103141" lon="-118.3938674">
  <ele>-3.46</ele>
  <time>2026-09-01T01:13:53Z</time>
  <course>359.19</course>
  <speed>0.03605551275463989</speed>
  <fix>3d</fix>
</trkpt>
<trkpt lat="33.8103143" lon="-118.3938677">
  <ele>-3.37</ele>
  <time>2026-09-01T01:13:53Z</time>
  <course>170.23</course>
  <speed>0.0</speed>
  <fix>3d</fix>
</trkpt>
<trkpt lat="33.8103141" lon="-118.3938674">
  <ele>-3.459</ele>
  <time>2026-09-01T01:13:53Z</time>
  <course>359.18</course>
  <speed>0.03605551275463989</speed>
  <fix>3d</fix>
</trkpt>
<trkpt lat="33.8103143" lon="-118.3938677">
  <ele>-3.37</ele>
  <time>2026-09-01T01:13:53Z</time>
  <course>170.23</course>
  <speed>0.0</speed>
  <fix>3d</fix>
</trkpt>
<trkpt lat="33.8103141" lon="-118.3938674">
  <ele>-3.457</ele>
  <time>2026-09-01T01:13:53Z</time>
  <course>359.18</course>
  <speed>0.03605551275463989</speed>
  <fix>3d</fix>
</trkpt>
<trkpt lat="33.8103143" lon="-118.3938677">
  <ele>-3.37</ele>
  <time>2026-09-01T01:13:53Z</time>
  <course>174.26</course>
  <speed>0.0</speed>
  <fix>3d</fix>
</trkpt>
<trkpt lat="33.8103141" lon="-118.3938674">
  <ele>-3.457</ele>
  <time>2026-09-01T01:13:53Z</time>
  <course>359.18</course>
  <speed>0.03605551275463989</speed>
  <fix>3d</fix>
</trkpt>
<trkpt lat="33.8103143" lon="-118.3938677">
  <ele>-3.37</ele>
  <time>2026-09-01T01:13:53Z</time>
  <course>174.26</course>
  <speed>0.0</speed>
  <fix>3d</fix>
</trkpt>
<trkpt lat="33.8103141" lon="-118.3938674">
  <ele>-3.459</ele>
  <time>2026-09-01T01:13:53Z</time>
  <course>359.18</course>
  <speed>0.03605551275463989</speed>
  <fix>3d</fix>
</trkpt>
<trkpt lat="33.8103143" lon="-118.3938677">
  <ele>-3.37</ele>
  <time>2026-09-01T01:13:53Z</time>
  <course>175.02</course>
  <speed>0.0</speed>
  <fix>3d</fix>
</trkpt>
<trkpt lat="33.8103141" lon="-118.3938674">
  <ele>-3.462</ele>
  <time>2026-09-01T01:13:53Z</time>
  <course>359.18</course>
  <speed>0.03605551275463989</speed>
  <fix>3d</fix>
</trkpt>
<trkpt lat="33.8103143" lon="-118.3938677">
  <ele>-3.37</ele>
  <time>2026-09-01T01:13:53Z</time>
  <course>175.02</course>
  <speed>0.0</speed>
  <fix>3d</fix>
</trkpt>
<trkpt lat="33.8103141" lon="-118.3938674">
  <ele>-3.465</ele>
  <time>2026-09-01T01:13:53Z</time>
  <course>359.18</course>
  <speed>0.03605551275463989</speed>
  <fix>3d</fix>
</trkpt>
<trkpt lat="33.8103143" lon="-118.3938677">
  <ele>-3.38</ele>
  <time>2026-09-01T01:13:53Z</time>
  <course>176.42</course>
  <speed>0.01</speed>
  <fix>3d</fix>
</trkpt>
<trkpt lat="33.8103141" lon="-118.3938674">
  <ele>-3.466</ele>
  <time>2026-09-01T01:13:53Z</time>
  <course>359.18</course>
  <speed>0.03605551275463989</speed>
  <fix>3d</fix>
</trkpt>
<trkpt lat="33.8103143" lon="-118.3938677">
  <ele>-3.38</ele>
  <time>2026-09-01T01:13:53Z</time>
  <course>176.42</course>
  <speed>0.01</speed>
  <fix>3d</fix>
</trkpt>
<trkpt lat="33.8103141" lon="-118.3938674">
  <ele>-3.468</ele>
  <time>2026-09-01T01:13:53Z</time>
  <course>359.18</course>
  <speed>0.03605551275463989</speed>
  <fix>3d</fix>
</trkpt>
<trkpt lat="33.8103143" lon="-118.3938677">
  <ele>-3.38</ele>
  <time>2026-09-01T01:13:53Z</time>
  <course>178.21</course>
  <speed>0.01</speed>
  <fix>3d</fix>
</trkpt>
<trkpt lat="33.8103141" lon="-118.3938674">
  <ele>-3.47</ele>
  <time>2026-09-01T01:13:53Z</time>
  <course>359.18</course>
  <speed>0.03605551275463989</speed>
  <fix>3d</fix>
</trkpt>
<trkpt lat="33.8103143" lon="-118.3938677">
  <ele>-3.38</ele>
  <time>2026-09-01T01:13:53Z</time>
  <course>178.21</course>
  <speed>0.01</speed>
  <fix>3d</fix>
</trkpt>
<trkpt lat="33.810314" lon="-118.3938674">
  <ele>-3.472</ele>
  <time>2026-09-01T01:13:53Z</time>
  <course>359.19</course>
  <speed>0.03605551275463989</speed>
  <fix>3d</fix>
</trkpt>
<trkpt lat="33.8103142" lon="-118.3938677">
  <ele>-3.39</ele>
  <time>2026-09-01T01:13:53Z</time>
  <course>180.34</course>
  <speed>0.01</speed>
  <fix>3d</fix>
</trkpt>
<trkpt lat="33.810314" lon="-118.3938674">
  <ele>-3.473</ele>
  <time>2026-09-01T01:13:53Z</time>
  <course>359.19</course>
  <speed>0.03605551275463989</speed>
  <fix>3d</fix>
</trkpt>
<trkpt lat="33.8103142" lon="-118.3938677">
  <ele>-3.39</ele>
  <time>2026-09-01T01:13:53Z</time>
  <course>180.34</course>
  <speed>0.01</speed>
  <fix>3d</fix>
</trkpt>
<trkpt lat="33.810314" lon="-118.3938674">
  <ele>-3.474</ele>
  <time>2026-09-01T01:13:53Z</time>
  <course>359.19</course>
  <speed>0.03605551275463989</speed>
  <fix>3d</fix>
</trkpt>
<trkpt lat="33.8103142" lon="-118.3938677">
  <ele>-3.39</ele>
  <time>2026-09-01T01:13:53Z</time>
  <course>181.55</course>
  <speed>0.01</speed>
  <fix>3d</fix>
</trkpt>
<trkpt lat="33.810314" lon="-118.3938674">
  <ele>-3.473</ele>
  <time>2026-09-01T01:13:53Z</time>
  <course>359.19</course>
  <speed>0.03605551275463989</speed>
  <fix>3d</fix>
</trkpt>
<trkpt lat="33.8103142" lon="-118.3938677">
  <ele>-3.39</ele>
  <time>2026-09-01T01:13:53Z</time>
  <course>181.55</course>
  <speed>0.01</speed>
  <fix>3d</fix>
</trkpt>
<trkpt lat="33.810314" lon="-118.3938674">
  <ele>-3.472</ele>
  <time>2026-09-01T01:13:53Z</time>
  <course>359.19</course>
  <speed>0.03605551275463989</speed>
  <fix>3d</fix>
</trkpt>
<trkpt lat="33.8103142" lon="-118.3938677">
  <ele>-3.39</ele>
  <time>2026-09-01T01:13:53Z</time>
  <course>181.1</course>
  <speed>0.01</speed>
  <fix>3d</fix>
</trkpt>
<trkpt lat="33.810314" lon="-118.3938674">
  <ele>-3.471</ele>
  <time>2026-09-01T01:13:53Z</time>
  <course>359.19</course>
  <speed>0.03605551275463989</speed>
  <fix>3d</fix>
</trkpt>
<trkpt lat="33.8103142" lon="-118.3938677">
  <ele>-3.39</ele>
  <time>2026-09-01T01:13:53Z</time>
  <course>181.1</course>
  <speed>0.01</speed>
  <fix>3d</fix>
</trkpt>
<trkpt lat="33.810314" lon="-118.3938674">
  <ele>-3.469</ele>
  <time>2026-09-01T01:13:53Z</time>
  <course>359.19</course>
  <speed>0.03605551275463989</speed>
  <fix>3d</fix>
</trkpt>
<trkpt lat="33.8103142" lon="-118.3938677">
  <ele>-3.38</ele>
  <time>2026-09-01T01:13:53Z</time>
  <course>181.14</course>
  <speed>0.01</speed>
  <fix>3d</fix>
</trkpt>
<trkpt lat="33.810314" lon="-118.3938674">
  <ele>-3.468</ele>
  <time>2026-09-01T01:13:53Z</time>
  <course>359.19</course>
  <speed>0.03605551275463989</speed>
  <fix>3d</fix>
</trkpt>
<trkpt lat="33.8103142" lon="-118.3938677">
  <ele>-3.38</ele>
  <time>2026-09-01T01:13:53Z</time>
  <course>181.14</course>
  <speed>0.01</speed>
  <fix>3d</fix>
</trkpt>
<trkpt lat="33.810314" lon="-118.3938674">
  <ele>-3.467</ele>
  <time>2026-09-01T01:13:53Z</time>
  <course>359.19</course>
  <speed>0.03605551275463989</speed>
  <fix>3d</fix>
</trkpt>
<trkpt lat="33.8103141" lon="-118.3938677">
  <ele>-3.38</ele>
  <time>2026-09-01T01:13:53Z</time>
  <course>182.12</course>
  <speed>0.01</speed>
  <fix>3d</fix>
</trkpt>
<trkpt lat="33.810314" lon="-118.3938674">
  <ele>-3.467</ele>
  <time>2026-09-01T01:13:53Z</time>
  <course>359.19</course>
  <speed>0.03605551275463989</speed>
  <fix>3d</fix>
</trkpt>
<trkpt lat="33.8103141" lon="-118.3938677">
  <ele>-3.38</ele>
  <time>2026-09-01T01:13:53Z</time>
  <course>182.12</course>
  <speed>0.01</speed>
  <fix>3d</fix>
</trkpt>
<trkpt lat="33.810314" lon="-118.3938674">
  <ele>-3.465</ele>
  <time>2026-09-01T01:13:53Z</time>
  <course>359.19</course>
  <speed>0.03605551275463989</speed>
  <fix>3d</fix>
</trkpt>
<trkpt lat="33.8103141" lon="-118.3938677">
  <ele>-3.37</ele>
  <time>2026-09-01T01:13:53Z</time>
  <course>182.92</course>
  <speed>0.01</speed>
  <fix>3d</fix>
</trkpt>
<trkpt lat="33.8103139" lon="-118.3938674">
  <ele>-3.463</ele>
  <time>2026-09-01T01:13:53Z</time>
  <course>359.19</course>
  <speed>0.03605551275463989</speed>
  <fix>3d</fix>
</trkpt>
<trkpt lat="33.8103141" lon="-118.3938677">
  <ele>-3.37</ele>
  <time>2026-09-01T01:13:53Z</time>
  <course>182.92</course>
  <speed>0.01</speed>
  <fix>3d</fix>
</trkpt>
<trkpt lat="33.8103139" lon="-118.3938674">
  <ele>-3.461</ele>
  <time>2026-09-01T01:13:53Z</time>
  <course>359.19</course>
  <speed>0.03605551275463989</speed>
  <fix>3d</fix>
</trkpt>
<trkpt lat="33.8103141" lon="-118.3938677">
  <ele>-3.37</ele>
  <time>2026-09-01T01:13:53Z</time>
  <course>184.17</course>
  <speed>0.01</speed>
  <fix>3d</fix>
</trkpt>
<trkpt lat="33.8103139" lon="-118.3938674">
  <ele>-3.46</ele>
  <time>2026-09-01T01:13:53Z</time>
  <course>359.19</course>
  <speed>0.03605551275463989</speed>
  <fix>3d</fix>
</trkpt>
<trkpt lat="33.8103141" lon="-118.3938677">
  <ele>-3.37</ele>
  <time>2026-09-01T01:13:53Z</time>
  <course>184.17</course>
  <speed>0.01</speed>
  <fix>3d</fix>
</trkpt>
<trkpt lat="33.8103139" lon="-118.3938674">
  <ele>-3.46</ele>
  <time>2026-09-01T01:13:53Z</time>
  <course>359.19</course>
  <speed>0.03605551275463989</speed>
  <fix>3d</fix>
</trkpt>
<trkpt lat="33.8103141" lon="-118.3938677">
  <ele>-3.37</ele>
  <time>2026-09-01T01:13:53Z</time>
  <course>185.93</course>
  <speed>0.0</speed>
  <fix>3d</fix>
</trkpt>
<trkpt lat="33.8103139" lon="-118.3938674">
  <ele>-3.461</ele>
  <time>2026-09-01T01:13:53Z</time>
  <course>359.19</course>
  <speed>0.02</speed>
  <fix>3d</fix>
</trkpt>
<trkpt lat="33.8103141" lon="-118.3938677">
  <ele>-3.37</ele>
  <time>2026-09-01T01:13:53Z</time>
  <course>185.93</course>
  <speed>0.0</speed>
  <fix>3d</fix>
</trkpt>
<trkpt lat="33.8103139" lon="-118.3938674">
  <ele>-3.461</ele>
  <time>2026-09-01T01:13:53Z</time>
  <course>359.19</course>
  <speed>0.053851648071345036</speed>
  <fix>3d</fix>
</trkpt>
<trkpt lat="33.8103141" lon="-118.3938677">
  <ele>-3.37</ele>
  <time>2026-09-01T01:13:53Z</time>
  <course>352.8</course>
  <speed>0.01</speed>
  <fix>3d</fix>
</trkpt>
<trkpt lat="33.810314" lon="-118.3938674">
  <ele>-3.462</ele>
  <time>2026-09-01T01:13:53Z</time>
  <course>359.19</course>
  <speed>0.07280109889280519</speed>
  <fix>3d</fix>
</trkpt>
<trkpt lat="33.8103141" lon="-118.3938677">
  <ele>-3.37</ele>
  <time>2026-09-01T01:13:53Z</time>
  <course>352.8</course>
  <speed>0.01</speed>
  <fix>3d</fix>
</trkpt>
<trkpt lat="33.8103141" lon="-118.3938674">
  <ele>-3.463</ele>
  <time>2026-09-01T01:13:53Z</time>
  <course>359.19</course>
  <speed>0.09219544457292887</speed>
  <fix>3d</fix>
</trkpt>
<trkpt lat="33.8103141" lon="-118.3938677">
  <ele>-3.37</ele>
  <time>2026-09-01T01:13:53Z</time>
  <course>356.64</course>
  <speed>0.07</speed>
  <fix>3d</fix>
</trkpt>
<trkpt lat="33.8103142" lon="-118.3938674">
  <ele>-3.464</ele>
  <time>2026-09-01T01:13:53Z</time>
  <course>359.18</course>
  <speed>0.1118033988749895</speed>
  <fix>3d</fix>
</trkpt>
<trkpt lat="33.8103141" lon="-118.3938677">
  <ele>-3.37</ele>
  <time>2026-09-01T01:13:53Z</time>
  <course>356.64</course>
  <speed>0.07</speed>
  <fix>3d</fix>
</trkpt>
<trkpt lat="33.8103143" lon="-118.3938674">
  <ele>-3.464</ele>
  <time>2026-09-01T01:13:53Z</time>
  <course>359.18</course>
  <speed>0.12165525060596438</speed>
  <fix>3d</fix>
</trkpt>
<trkpt lat="33.8103142" lon="-118.3938677">
  <ele>-3.38</ele>
  <time>2026-09-01T01:13:53Z</time>
  <course>357.14</course>
  <speed>0.12</speed>
  <fix>3d</fix>
</trkpt>
<trkpt lat="33.8103144" lon="-118.3938674">
  <ele>-3.465</ele>
  <time>2026-09-01T01:13:53Z</time>
  <course>359.17</course>
  <speed>0.13152946437965907</speed>
  <fix>3d</fix>
</trkpt>
<trkpt lat="33.8103142" lon="-118.3938677">
  <ele>-3.38</ele>
  <time>2026-09-01T01:13:53Z</time>
  <course>357.14</course>
  <speed>0.12</speed>
  <fix>3d</fix>
</trkpt>
<trkpt lat="33.8103145" lon="-118.3938674">
  <ele>-3.466</ele>
  <time>2026-09-01T01:13:53Z</time>
  <course>359.17</course>
  <speed>0.1414213562373095</speed>
  <fix>3d</fix>
</trkpt>
<trkpt lat="33.8103144" lon="-118.3938677">
  <ele>-3.38</ele>
  <time>2026-09-01T01:13:53Z</time>
  <course>357.33</course>
  <speed>0.14</speed>
  <fix>3d</fix>
</trkpt>
<trkpt lat="33.8103147" lon="-118.3938674">
  <ele>-3.467</ele>
  <time>2026-09-01T01:13:53Z</time>
  <course>359.17</course>
  <speed>0.15132745950421556</speed>
  <fix>3d</fix>
</trkpt>
<trkpt lat="33.8103144" lon="-118.3938677">
  <ele>-3.38</ele>
  <time>2026-09-01T01:13:53Z</time>
  <course>357.33</course>
  <speed>0.14</speed>
  <fix>3d</fix>
</trkpt>
<trkpt lat="33.8103148" lon="-118.3938674">
  <ele>-3.467</ele>
  <time>2026-09-01T01:13:53Z</time>
  <course>359.17</course>
  <speed>0.16124515496597097</speed>
  <fix>3d</fix>
</trkpt>
<trkpt lat="33.8103147" lon="-118.3938677">
  <ele>-3.38</ele>
  <time>2026-09-01T01:13:53Z</time>
  <course>357.43</course>
  <speed>0.17</speed>
  <fix>3d</fix>
</trkpt>
<trkpt lat="33.810315" lon="-118.3938674">
  <ele>-3.468</ele>
  <time>2026-09-01T01:13:53Z</time>
  <course>359.16</course>
  <speed>0.1711724276862369</speed>
  <fix>3d</fix>
</trkpt>
<trkpt lat="33.8103147" lon="-118.3938677">
  <ele>-3.38</ele>
  <time>2026-09-01T01:13:53Z</time>
  <course>357.43</course>
  <speed>0.17</speed>
  <fix>3d</fix>
</trkpt>
<trkpt lat="33.8103152" lon="-118.3938674">
  <ele>-3.467</ele>
  <time>2026-09-01T01:13:53Z</time>
  <course>359.17</course>
  <speed>0.18110770276274835</speed>
  <fix>3d</fix>
</trkpt>
<trkpt lat="33.810315" lon="-118.3938677">
  <ele>-3.38</ele>
  <time>2026-09-01T01:13:53Z</time>
  <course>357.55</course>
  <speed>0.19</speed>
  <fix>3d</fix>
</trkpt>
<trkpt lat="33.8103153" lon="-118.3938674">
  <ele>-3.466</ele>
  <time>2026-09-01T01:13:53Z</time>
  <course>359.17</course>
  <speed>0.18110770276274835</speed>
  <fix>3d</fix>
</trkpt>
<trkpt lat="33.810315" lon="-118.3938677">
  <ele>-3.38</ele>
  <time>2026-09-01T01:13:53Z</time>
  <course>357.55</course>
  <speed>0.19</speed>
  <fix>3d</fix>
</trkpt>
<trkpt lat="33.8103155" lon="-118.3938674">
  <ele>-3.465</ele>
  <time>2026-09-01T01:13:53Z</time>
  <course>359.16</course>
  <speed>0.191049731745428</speed>
  <fix>3d</fix>
</trkpt>
<trkpt lat="33.8103155" lon="-118.3938677">
  <ele>-3.38</ele>
  <time>2026-09-01T01:13:53Z</time>
  <course>357.64</course>
  <speed>0.21</speed>
  <fix>3d</fix>
</trkpt>
<trkpt lat="33.8103157" lon="-118.3938674">
  <ele>-3.464</ele>
  <time>2026-09-01T01:13:53Z</time>
  <course>359.16</course>
  <speed>0.191049731745428</speed>
  <fix>3d</fix>
</trkpt>
<trkpt lat="33.8103155" lon="-118.3938677">
  <ele>-3.38</ele>
  <time>2026-09-01T01:13:53Z</time>
  <course>357.64</course>
  <speed>0.21</speed>
  <fix>3d</fix>
</trkpt>
<trkpt lat="33.8103159" lon="-118.3938674">
  <ele>-3.464</ele>
  <time>2026-09-01T01:13:53Z</time>
  <course>359.16</course>
  <speed>0.2009975124224178</speed>
  <fix>3d</fix>
</trkpt>
<trkpt lat="33.8103159" lon="-118.3938677">
  <ele>-3.38</ele>
  <time>2026-09-01T01:13:53Z</time>
  <course>357.68</course>
  <speed>0.22</speed>
  <fix>3d</fix>
</trkpt>
<trkpt lat="33.8103161" lon="-118.3938674">
  <ele>-3.465</ele>
  <time>2026-09-01T01:13:53Z</time>
  <course>359.16</course>
  <speed>0.2009975124224178</speed>
  <fix>3d</fix>
</trkpt>
<trkpt lat="33.8103159" lon="-118.3938677">
  <ele>-3.38</ele>
  <time>2026-09-01T01:13:53Z</time>
  <course>357.68</course>
  <speed>0.22</speed>
  <fix>3d</fix>
</trkpt>
<trkpt lat="33.8103163" lon="-118.3938674">
  <ele>-3.467</ele>
  <time>2026-09-01T01:13:53Z</time>
  <course>359.16</course>
  <speed>0.2009975124224178</speed>
  <fix>3d</fix>
</trkpt>
<trkpt lat="33.8103162" lon="-118.3938677">
  <ele>-3.38</ele>
  <time>2026-09-01T01:13:53Z</time>
  <course>357.67</course>
  <speed>0.23</speed>
  <fix>3d</fix>
</trkpt>
<trkpt lat="33.8103165" lon="-118.3938674">
  <ele>-3.468</ele>
  <time>2026-09-01T01:13:53Z</time>
  <course>359.16</course>
  <speed>0.2109502310972899</speed>
  <fix>3d</fix>
</trkpt>
<trkpt lat="33.8103162" lon="-118.3938677">
  <ele>-3.38</ele>
  <time>2026-09-01T01:13:53Z</time>
  <course>357.67</course>
  <speed>0.23</speed>
  <fix>3d</fix>
</trkpt>
<trkpt lat="33.8103167" lon="-118.3938674">
  <ele>-3.468</ele>
  <time>2026-09-01T01:13:53Z</time>
  <course>359.16</course>
  <speed>0.2109502310972899</speed>
  <fix>3d</fix>
</trkpt>
<trkpt lat="33.8103167" lon="-118.3938678">
  <ele>-3.38</ele>
  <time>2026-09-01T01:13:53Z</time>
  <course>357.61</course>
  <speed>0.23</speed>
  <fix>3d</fix>
</trkpt>
<trkpt lat="33.8103169" lon="-118.3938675">
  <ele>-3.468</ele>
  <time>2026-09-01T01:13:53Z</time>
  <course>359.16</course>
  <speed>0.2109502310972899</speed>
  <fix>3d</fix>
</trkpt>
<trkpt lat="33.8103167" lon="-118.3938678">
  <ele>-3.38</ele>
  <time>2026-09-01T01:13:53Z</time>
  <course>357.61</course>
  <speed>0.23</speed>
  <fix>3d</fix>
</trkpt>
<trkpt lat="33.8103172" lon="-118.3938675">
  <ele>-3.467</ele>
  <time>2026-09-01T01:13:53Z</time>
  <course>359.16</course>
  <speed>0.2109502310972899</speed>
  <fix>3d</fix>
</trkpt>
<trkpt lat="33.8103171" lon="-118.3938678">
  <ele>-3.38</ele>
  <time>2026-09-01T01:13:53Z</time>
  <course>357.71</course>
  <speed>0.24</speed>
  <fix>3d</fix>
</trkpt>
<trkpt lat="33.8103174" lon="-118.3938675">
  <ele>-3.465</ele>
  <time>2026-09-01T01:13:53Z</time>
  <course>359.16</course>
  <speed>0.2109502310972899</speed>
  <fix>3d</fix>
</trkpt>
<trkpt lat="33.8103171" lon="-118.3938678">
  <ele>-3.38</ele>
  <time>2026-09-01T01:13:53Z</time>
  <course>357.71</course>
  <speed>0.24</speed>
  <fix>3d</fix>
</trkpt>
<trkpt lat="33.8103176" lon="-118.3938675">
  <ele>-3.463</ele>
  <time>2026-09-01T01:13:53Z</time>
  <course>359.17</course>
  <speed>0.22090722034374521</speed>
  <fix>3d</fix>
</trkpt>
<trkpt lat="33.8103175" lon="-118.3938678">
  <ele>-3.37</ele>
  <time>2026-09-01T01:13:53Z</time>
  <course>357.99</course>
  <speed>0.24</speed>
  <fix>3d</fix>
</trkpt>
<trkpt lat="33.8103178" lon="-118.3938675">
  <ele>-3.461</ele>
  <time>2026-09-01T01:13:53Z</time>
  <course>359.17</course>
  <speed>0.22090722034374521</speed>
  <fix>3d</fix>
</trkpt>
<trkpt lat="33.8103175" lon="-118.3938678">
  <ele>-3.37</ele>
  <time>2026-09-01T01:13:53Z</time>
  <course>357.99</course>
  <speed>0.24</speed>
  <fix>3d</fix>
</trkpt>
<trkpt lat="33.810318" lon="-118.3938675">
  <ele>-3.46</ele>
  <time>2026-09-01T01:13:53Z</time>
  <course>359.17</course>
  <speed>0.22090722034374521</speed>
  <fix>3d</fix>
</trkpt>
<trkpt lat="33.8103179" lon="-118.3938678">
  <ele>-3.37</ele>
  <time>2026-09-01T01:13:53Z</time>
  <course>358.28</course>
  <speed>0.25</speed>
  <fix>3d</fix>
</trkpt>
<trkpt lat="33.8103182" lon="-118.3938675">
  <ele>-3.46</ele>
  <time>2026-09-01T01:13:53Z</time>
  <course>359.17</course>
  <speed>0.22090722034374521</speed>
  <fix>3d</fix>
</trkpt>
<trkpt lat="33.8103179" lon="-118.3938678">
  <ele>-3.37</ele>
  <time>2026-09-01T01:13:53Z</time>
  <course>358.28</course>
  <speed>0.25</speed>
  <fix>3d</fix>
</trkpt>
<trkpt lat="33.8103185" lon="-118.3938675">
  <ele>-3.46</ele>
  <time>2026-09-01T01:13:53Z</time>
  <course>359.18</course>
  <speed>0.22090722034374521</speed>
  <fix>3d</fix>
</trkpt>
<trkpt lat="33.8103184" lon="-118.3938678">
  <ele>-3.37</ele>
  <time>2026-09-01T01:13:53Z</time>
  <course>358.46</course>
  <speed>0.25</speed>
  <fix>3d</fix>
</trkpt>
<trkpt lat="33.8103187" lon="-118.3938675">
  <ele>-3.46</ele>
  <time>2026-09-01T01:13:53Z</time>
  <course>359.18</course>
  <speed>0.22090722034374521</speed>
  <fix>3d</fix>
</trkpt>
<trkpt lat="33.8103184" lon="-118.3938678">
  <ele>-3.37</ele>
  <time>2026-09-01T01:13:53Z</time>
  <course>358.46</course>
  <speed>0.25</speed>
  <fix>3d</fix>
</trkpt>
<trkpt lat="33.8103189" lon="-118.3938675">
  <ele>-3.461</ele>
  <time>2026-09-01T01:13:53Z</time>
  <course>359.18</course>
  <speed>0.22090722034374521</speed>
  <fix>3d</fix>
</trkpt>
<trkpt lat="33.8103189" lon="-118.3938679">
  <ele>-3.37</ele>
  <time>2026-09-01T01:13:53Z</time>
  <course>358.49</course>
  <speed>0.25</speed>
  <fix>3d</fix>
</trkpt>
<trkpt lat="33.8103191" lon="-118.3938675">
  <ele>-3.461</ele>
  <time>2026-09-01T01:13:53Z</time>
  <course>359.18</course>
  <speed>0.22090722034374521</speed>
  <fix>3d</fix>
</trkpt>
<trkpt lat="33.8103189" lon="-118.3938679">
  <ele>-3.37</ele>
  <time>2026-09-01T01:13:53Z</time>
  <course>358.49</course>
  <speed>0.25</speed>
  <fix>3d</fix>
</trkpt>
<trkpt lat="33.8103194" lon="-118.3938675">
  <ele>-3.461</ele>
  <time>2026-09-01T01:13:53Z</time>
  <course>359.18</course>
  <speed>0.22090722034374521</speed>
  <fix>3d</fix>
</trkpt>
<trkpt lat="33.8103194" lon="-118.3938679">
  <ele>-3.38</ele>
  <time>2026-09-01T01:13:53Z</time>
  <course>358.61</course>
  <speed>0.25</speed>
  <fix>3d</fix>
</trkpt>
<trkpt lat="33.8103196" lon="-118.3938675">
  <ele>-3.461</ele>
  <time>2026-09-01T01:13:53Z</time>
  <course>359.18</course>
  <speed>0.22090722034374521</speed>
  <fix>3d</fix>
</trkpt>
<trkpt lat="33.8103194" lon="-118.3938679">
  <ele>-3.38</ele>
  <time>2026-09-01T01:13:53Z</time>
  <course>358.61</course>
  <speed>0.25</speed>
  <fix>3d</fix>
</trkpt>
<trkpt lat="33.8103198" lon="-118.3938675">
  <ele>-3.462</ele>
  <time>2026-09-01T01:13:53Z</time>
  <course>359.18</course>
  <speed>0.22090722034374521</speed>
  <fix>3d</fix>
</trkpt>
<trkpt lat="33.8103198" lon="-118.3938679">
  <ele>-3.38</ele>
  <time>2026-09-01T01:13:53Z</time>
  <course>358.93</course>
  <speed>0.25</speed>
  <fix>3d</fix>
</trkpt>
<trkpt lat="33.81032" lon="-118.3938675">
  <ele>-3.463</ele>
  <time>2026-09-01T01:13:53Z</time>
  <course>359.18</course>
  <speed>0.22090722034374521</speed>
  <fix>3d</fix>
</trkpt>
<trkpt lat="33.8103198" lon="-118.3938679">
  <ele>-3.38</ele>
  <time>2026-09-01T01:13:53Z</time>
  <course>358.93</course>
  <speed>0.25</speed>
  <fix>3d</fix>
</trkpt>
<trkpt lat="33.8103203" lon="-118.3938675">
  <ele>-3.463</ele>
  <time>2026-09-01T01:13:53Z</time>
  <course>359.19</course>
  <speed>0.22090722034374521</speed>
  <fix>3d</fix>
</trkpt>
<trkpt lat="33.8103203" lon="-118.3938679">
  <ele>-3.39</ele>
  <time>2026-09-01T01:13:53Z</time>
  <course>359.22</course>
  <speed>0.25</speed>
  <fix>3d</fix>
</trkpt>
<trkpt lat="33.8103205" lon="-118.3938675">
  <ele>-3.465</ele>
  <time>2026-09-01T01:13:53Z</time>
  <course>359.19</course>
  <speed>0.22090722034374521</speed>
  <fix>3d</fix>
</trkpt>
<trkpt lat="33.8103203" lon="-118.3938679">
  <ele>-3.39</ele>
  <time>2026-09-01T01:13:53Z</time>
  <course>359.22</course>
  <speed>0.25</speed>
  <fix>3d</fix>
</trkpt>
<trkpt lat="33.8103207" lon="-118.3938676">
  <ele>-3.466</ele>
  <time>2026-09-01T01:13:53Z</time>
  <course>359.19</course>
  <speed>0.22090722034374521</speed>
  <fix>3d</fix>
</trkpt>
<trkpt lat="33.8103207" lon="-118.3938679">
  <ele>-3.39</ele>
  <time>2026-09-01T01:13:53Z</time>
  <course>359.37</course>
  <speed>0.25</speed>
  <fix>3d</fix>
</trkpt>
<trkpt lat="33.8103209" lon="-118.3938676">
  <ele>-3.466</ele>
  <time>2026-09-01T01:13:53Z</time>
  <course>359.2</course>
  <speed>0.22090722034374521</speed>
  <fix>3d</fix>
</trkpt>
<trkpt lat="33.8103207" lon="-118.3938679">
  <ele>-3.39</ele>
  <time>2026-09-01T01:13:53Z</time>
  <course>359.37</course>
  <speed>0.25</speed>
  <fix>3d</fix>
</trkpt>
<trkpt lat="33.8103212" lon="-118.3938676">
  <ele>-3.468</ele>
  <time>2026-09-01T01:13:53Z</time>
  <course>359.2</course>
  <speed>0.22090722034374521</speed>
  <fix>3d</fix>
</trkpt>
<trkpt lat="33.8103212" lon="-118.3938679">
  <ele>-3.39</ele>
  <time>2026-09-01T01:13:53Z</time>
  <course>359.46</course>
  <speed>0.24</speed>
  <fix>3d</fix>
</trkpt>
<trkpt lat="33.8103214" lon="-118.3938676">
  <ele>-3.469</ele>
  <time>2026-09-01T01:13:53Z</time>
  <course>359.2</course>
  <speed>0.2109502310972899</speed>
  <fix>3d</fix>
</trkpt>
<trkpt lat="33.8103212" lon="-118.3938679">
  <ele>-3.39</ele>
  <time>2026-09-01T01:13:53Z</time>
  <course>359.46</course>
  <speed>0.24</speed>
  <fix>3d</fix>
</trkpt>
<trkpt lat="33.8103216" lon="-118.3938676">
  <ele>-3.47</ele>
  <time>2026-09-01T01:13:53Z</time>
  <course>359.2</course>
  <speed>0.22090722034374521</speed>
  <fix>3d</fix>
</trkpt>
<trkpt lat="33.8103216" lon="-118.3938679">
  <ele>-3.39</ele>
  <time>2026-09-01T01:13:53Z</time>
  <course>359.48</course>
  <speed>0.24</speed>
  <fix>3d</fix>
</trkpt>
<trkpt lat="33.8103218" lon="-118.3938676">
  <ele>-3.47</ele>
  <time>2026-09-01T01:13:53Z</time>
  <course>359.2</course>
  <speed>0.2109502310972899</speed>
  <fix>3d</fix>
</trkpt>
<trkpt lat="33.8103216" lon="-118.3938679">
  <ele>-3.39</ele>
  <time>2026-09-01T01:13:53Z</time>
  <course>359.48</course>
  <speed>0.24</speed>
  <fix>3d</fix>
</trkpt>
<trkpt lat="33.8103221" lon="-118.3938676">
  <ele>-3.469</ele>
  <time>2026-09-01T01:13:53Z</time>
  <course>359.21</course>
  <speed>0.22090722034374521</speed>
  <fix>3d</fix>
</trkpt>
<trkpt lat="33.810322" lon="-118.3938679">
  <ele>-3.39</ele>
  <time>2026-09-01T01:13:53Z</time>
  <course>359.44</course>
  <speed>0.24</speed>
  <fix>3d</fix>
</trkpt>
<trkpt lat="33.8103223" lon="-118.3938676">
  <ele>-3.467</ele>
  <time>2026-09-01T01:13:53Z</time>
  <course>359.21</course>
  <speed>0.22090722034374521</speed>
  <fix>3d</fix>
</trkpt>
<trkpt lat="33.810322" lon="-118.3938679">
  <ele>-3.39</ele>
  <time>2026-09-01T01:13:53Z</time>
  <course>359.44</course>
  <speed>0.24</speed>
  <fix>3d</fix>
</trkpt>
<trkpt lat="33.8103225" lon="-118.3938676">
  <ele>-3.466</ele>
  <time>2026-09-01T01:13:53Z</time>
  <course>359.21</course>
  <speed>0.22090722034374521</speed>
  <fix>3d</fix>
</trkpt>
<trkpt lat="33.8103225" lon="-118.3938679">
  <ele>-3.39</ele>
  <time>2026-09-01T01:13:53Z</time>
  <course>359.36</course>
  <speed>0.24</speed>
  <fix>3d</fix>
</trkpt>
<trkpt lat="33.8103227" lon="-118.3938676">
  <ele>-3.466</ele>
  <time>2026-09-01T01:13:53Z</time>
  <course>359.21</course>
  <speed>0.22090722034374521</speed>
  <fix>3d</fix>
</trkpt>
<trkpt lat="33.8103225" lon="-118.3938679">
  <ele>-3.39</ele>
  <time>2026-09-01T01:13:53Z</time>
  <course>359.36</course>
  <speed>0.24</speed>
  <fix>3d</fix>
</trkpt>
<trkpt lat="33.810323" lon="-118.3938676">
  <ele>-3.467</ele>
  <time>2026-09-01T01:13:53Z</time>
  <course>359.21</course>
  <speed>0.22090722034374521</speed>
  <fix>3d</fix>
</trkpt>
<trkpt lat="33.8103229" lon="-118.3938679">
  <ele>-3.39</ele>
  <time>2026-09-01T01:13:53Z</time>
  <course>359.26</course>
  <speed>0.24</speed>
  <fix>3d</fix>
</trkpt>
<trkpt lat="33.8103232" lon="-118.3938676">
  <ele>-3.469</ele>
  <time>2026-09-01T01:13:53Z</time>
  <course>359.21</course>
  <speed>0.22090722034374521</speed>
  <fix>3d</fix>
</trkpt>
<trkpt lat="33.8103229" lon="-118.3938679">
  <ele>-3.39</ele>
  <time>2026-09-01T01:13:53Z</time>
  <course>359.26</course>
  <speed>0.24</speed>
  <fix>3d</fix>
</trkpt>
<trkpt lat="33.8103234" lon="-118.3938676">
  <ele>-3.47</ele>
  <time>2026-09-01T01:13:53Z</time>
  <course>359.22</course>
  <speed>0.22090722034374521</speed>
  <fix>3d</fix>
</trkpt>
<trkpt lat="33.8103234" lon="-118.3938679">
  <ele>-3.39</ele>
  <time>2026-09-01T01:13:53Z</time>
  <course>359.18</course>
  <speed>0.24</speed>
  <fix>3d</fix>
</trkpt>
<trkpt lat="33.8103236" lon="-118.3938676">
  <ele>-3.47</ele>
  <time>2026-09-01T01:13:53Z</time>
  <course>359.22</course>
  <speed>0.22090722034374521</speed>
  <fix>3d</fix>
</trkpt>
<trkpt lat="33.8103234" lon="-118.3938679">
  <ele>-3.39</ele>
  <time>2026-09-01T01:13:53Z</time>
  <course>359.18</course>
  <speed>0.24</speed>
  <fix>3d</fix>
</trkpt>
<trkpt lat="33.8103239" lon="-118.3938676">
  <ele>-3.469</ele>
  <time>2026-09-01T01:13:53Z</time>
  <course>359.22</course>
  <speed>0.22090722034374521</speed>
  <fix>3d</fix>
</trkpt>
<trkpt lat="33.8103239" lon="-118.3938679">
  <ele>-3.39</ele>
  <time>2026-09-01T01:13:53Z</time>
  <course>359.08</course>
  <speed>0.24</speed>
  <fix>3d</fix>
</trkpt>
<trkpt lat="33.8103241" lon="-118.3938676">
  <ele>-3.468</ele>
  <time>2026-09-01T01:13:53Z</time>
  <course>359.22</course>
  <speed>0.22090722034374521</speed>
  <fix>3d</fix>
</trkpt>
<trkpt lat="33.8103239" lon="-118.3938679">
  <ele>-3.39</ele>
  <time>2026-09-01T01:13:53Z</time>
  <course>359.08</course>
  <speed>0.24</speed>
  <fix>3d</fix>
</trkpt>
<trkpt lat="33.8103243" lon="-118.3938676">
  <ele>-3.467</ele>
  <time>2026-09-01T01:13:53Z</time>
  <course>359.22</course>
  <speed>0.22090722034374521</speed>
  <fix>3d</fix>
</trkpt>
<trkpt lat="33.8103243" lon="-118.3938679">
  <ele>-3.39</ele>
  <time>2026-09-01T01:13:53Z</time>
  <course>358.96</course>
  <speed>0.24</speed>
  <fix>3d</fix>
</trkpt>
<trkpt lat="33.8103245" lon="-118.3938676">
  <ele>-3.466</ele>
  <time>2026-09-01T01:13:53Z</time>
  <course>359.22</course>
  <speed>0.22090722034374521</speed>
  <fix>3d</fix>
</trkpt>
<trkpt lat="33.8103243" lon="-118.3938679">
  <ele>-3.39</ele>
  <time>2026-09-01T01:13:53Z</time>
  <course>358.96</course>
  <speed>0.24</speed>
  <fix>3d</fix>
</trkpt>
<trkpt lat="33.8103248" lon="-118.3938676">
  <ele>-3.465</ele>
  <time>2026-09-01T01:13:53Z</time>
  <course>359.22</course>
  <speed>0.22090722034374521</speed>
  <fix>3d</fix>
</trkpt>
<trkpt lat="33.8103247" lon="-118.393868">
  <ele>-3.38</ele>
  <time>2026-09-01T01:13:53Z</time>
  <course>358.84</course>
  <speed>0.24</speed>
  <fix>3d</fix>
</trkpt>
<trkpt lat="33.810325" lon="-118.3938676">
  <ele>-3.464</ele>
  <time>2026-09-01T01:13:53Z</time>
  <course>359.23</course>
  <speed>0.22090722034374521</speed>
  <fix>3d</fix>
</trkpt>
<trkpt lat="33.8103247" lon="-118.393868">
  <ele>-3.38</ele>
  <time>2026-09-01T01:13:53Z</time>
  <course>358.84</course>
  <speed>0.24</speed>
  <fix>3d</fix>
</trkpt>
<trkpt lat="33.8103252" lon="-118.3938677">
  <ele>-3.464</ele>
  <time>2026-09-01T01:13:53Z</time>
  <course>359.23</course>
  <speed>0.22090722034374521</speed>
  <fix>3d</fix>
</trkpt>
<trkpt lat="33.8103251" lon="-118.393868">
  <ele>-3.38</ele>
  <time>2026-09-01T01:13:53Z</time>
  <course>358.92</course>
  <speed>0.24</speed>
  <fix>3d</fix>
</trkpt>
<trkpt lat="33.8103254" lon="-118.3938677">
  <ele>-3.464</ele>
  <time>2026-09-01T01:13:53Z</time>
  <course>359.23</course>
  <speed>0.22090722034374521</speed>
  <fix>3d</fix>
</trkpt>
<trkpt lat="33.8103251" lon="-118.393868">
  <ele>-3.38</ele>
  <time>2026-09-01T01:13:53Z</time>
  <course>358.92</course>
  <speed>0.24</speed>
  <fix>3d</fix>
</trkpt>
<trkpt lat="33.8103256" lon="-118.3938677">
  <ele>-3.465</ele>
  <time>2026-09-01T01:13:53Z</time>
  <course>359.23</course>
  <speed>0.22090722034374521</speed>
  <fix>3d</fix>
</trkpt>
<trkpt lat="33.8103256" lon="-118.393868">
  <ele>-3.38</ele>
  <time>2026-09-01T01:13:53Z</time>
  <course>359.25</course>
  <speed>0.24</speed>
  <fix>3d</fix>
</trkpt>
<trkpt lat="33.8103259" lon="-118.3938677">
  <ele>-3.465</ele>
  <time>2026-09-01T01:13:53Z</time>
  <course>359.23</course>
  <speed>0.22090722034374521</speed>
  <fix>3d</fix>
</trkpt>
<trkpt lat="33.8103256" lon="-118.393868">
  <ele>-3.38</ele>
  <time>2026-09-01T01:13:53Z</time>
  <course>359.25</course>
  <speed>0.24</speed>
  <fix>3d</fix>
</trkpt>
<trkpt lat="33.8103261" lon="-118.3938677">
  <ele>-3.465</ele>
  <time>2026-09-01T01:13:53Z</time>
  <course>359.23</course>
  <speed>0.22090722034374521</speed>
  <fix>3d</fix>
</trkpt>
<trkpt lat="33.8103261" lon="-118.393868">
  <ele>-3.38</ele>
  <time>2026-09-01T01:13:53Z</time>
  <course>359.58</course>
  <speed>0.24</speed>
  <fix>3d</fix>
</trkpt>
<trkpt lat="33.8103263" lon="-118.3938677">
  <ele>-3.465</ele>
  <time>2026-09-01T01:13:53Z</time>
  <course>359.23</course>
  <speed>0.22090722034374521</speed>
  <fix>3d</fix>
</trkpt>
<trkpt lat="33.8103261" lon="-118.393868">
  <ele>-3.38</ele>
  <time>2026-09-01T01:13:53Z</time>
  <course>359.58</course>
  <speed>0.24</speed>
  <fix>3d</fix>
</trkpt>
<trkpt lat="33.8103265" lon="-118.3938677">
  <ele>-3.466</ele>
  <time>2026-09-01T01:13:53Z</time>
  <course>359.23</course>
  <speed>0.22090722034374521</speed>
  <fix>3d</fix>
</trkpt>
<trkpt lat="33.8103265" lon="-118.393868">
  <ele>-3.38</ele>
  <time>2026-09-01T01:13:53Z</time>
  <course>359.8</course>
  <speed>0.24</speed>
  <fix>3d</fix>
</trkpt>
<trkpt lat="33.8103268" lon="-118.3938677">
  <ele>-3.466</ele>
  <time>2026-09-01T01:13:53Z</time>
  <course>359.23</course>
  <speed>0.22090722034374521</speed>
  <fix>3d</fix>
</trkpt>
<trkpt lat="33.8103265" lon="-118.393868">
  <ele>-3.38</ele>
  <time>2026-09-01T01:13:53Z</time>
  <course>359.8</course>
  <speed>0.24</speed>
  <fix>3d</fix>
</trkpt>
<trkpt lat="33.810327" lon="-118.3938677">
  <ele>-3.467</ele>
  <time>2026-09-01T01:13:53Z</time>
  <course>359.23</course>
  <speed>0.22090722034374521</speed>
  <fix>3d</fix>
</trkpt>
<trkpt lat="33.810327" lon="-118.393868">
  <ele>-3.38</ele>
  <time>2026-09-01T01:13:53Z</time>
  <course>359.89</course>
  <speed>0.24</speed>
  <fix>3d</fix>
</trkpt>
<trkpt lat="33.8103272" lon="-118.3938677">
  <ele>-3.467</ele>
  <time>2026-09-01T01:13:53Z</time>
  <course>359.23</course>
  <speed>0.22090722034374521</speed>
  <fix>3d</fix>
</trkpt>
<trkpt lat="33.810327" lon="-118.393868">
  <ele>-3.38</ele>
  <time>2026-09-01T01:13:53Z</time>
  <course>359.89</course>
  <speed>0.24</speed>
  <fix>3d</fix>
</trkpt>
<trkpt lat="33.8103274" lon="-118.3938677">
  <ele>-3.467</ele>
  <time>2026-09-01T01:13:53Z</time>
  <course>359.24</course>
  <speed>0.22090722034374521</speed>
  <fix>3d</fix>
</trkpt>
<trkpt lat="33.8103274" lon="-118.393868">
  <ele>-3.38</ele>
  <time>2026-09-01T01:13:53Z</time>
  <course>359.9</course>
  <speed>0.24</speed>
  <fix>3d</fix>
</trkpt>
<trkpt lat="33.8103277" lon="-118.3938677">
  <ele>-3.467</ele>
  <time>2026-09-01T01:13:53Z</time>
  <course>359.24</course>
  <speed>0.22090722034374521</speed>
  <fix>3d</fix>
</trkpt>
<trkpt lat="33.8103274" lon="-118.393868">
  <ele>-3.38</ele>
  <time>2026-09-01T01:13:53Z</time>
  <course>359.9</course>
  <speed>0.24</speed>
  <fix>3d</fix>
</trkpt>
<trkpt lat="33.8103279" lon="-118.3938677">
  <ele>-3.467</ele>
  <time>2026-09-01T01:13:53Z</time>
  <course>359.24</course>
  <speed>0.22090722034374521</speed>
  <fix>3d</fix>
</trkpt>
<trkpt lat="33.8103279" lon="-118.393868">
  <ele>-3.38</ele>
  <time>2026-09-01T01:13:53Z</time>
  <course>359.87</course>
  <speed>0.24</speed>
  <fix>3d</fix>
</trkpt>
<trkpt lat="33.8103281" lon="-118.3938677">
  <ele>-3.466</ele>
  <time>2026-09-01T01:13:53Z</time>
  <course>359.24</course>
  <speed>0.22090722034374521</speed>
  <fix>3d</fix>
</trkpt>
<trkpt lat="33.8103279" lon="-118.393868">
  <ele>-3.38</ele>
  <time>2026-09-01T01:13:53Z</time>
  <course>359.87</course>
  <speed>0.24</speed>
  <fix>3d</fix>
</trkpt>
<trkpt lat="33.8103283" lon="-118.3938677">
  <ele>-3.465</ele>
  <time>2026-09-01T01:13:53Z</time>
  <course>359.24</course>
  <speed>0.22090722034374521</speed>
  <fix>3d</fix>
</trkpt>
<trkpt lat="33.8103282" lon="-118.393868">
  <ele>-3.38</ele>
  <time>2026-09-01T01:13:53Z</time>
  <course>359.8</course>
  <speed>0.24</speed>
  <fix>3d</fix>
</trkpt>
<trkpt lat="33.8103286" lon="-118.3938677">
  <ele>-3.465</ele>
  <time>2026-09-01T01:13:53Z</time>
  <course>359.23</course>
  <speed>0.22090722034374521</speed>
  <fix>3d</fix>
</trkpt>
<trkpt lat="33.8103282" lon="-118.393868">
  <ele>-3.38</ele>
  <time>2026-09-01T01:13:53Z</time>
  <course>359.8</course>
  <speed>0.24</speed>
  <fix>3d</fix>
</trkpt>
<trkpt lat="33.8103288" lon="-118.3938677">
  <ele>-3.465</ele>
  <time>2026-09-01T01:13:53Z</time>
  <course>359.24</course>
  <speed>0.22090722034374521</speed>
  <fix>3d</fix>
</trkpt>
<trkpt lat="33.8103287" lon="-118.393868">
  <ele>-3.38</ele>
  <time>2026-09-01T01:13:53Z</time>
  <course>359.76</course>
  <speed>0.24</speed>
  <fix>3d</fix>
</trkpt>
<trkpt lat="33.810329" lon="-118.3938677">
  <ele>-3.465</ele>
  <time>2026-09-01T01:13:53Z</time>
  <course>359.24</course>
  <speed>0.22090722034374521</speed>
  <fix>3d</fix>
</trkpt>
<trkpt lat="33.8103287" lon="-118.393868">
  <ele>-3.38</ele>
  <time>2026-09-01T01:13:53Z</time>
  <course>359.76</course>
  <speed>0.24</speed>
  <fix>3d</fix>
</trkpt>
<trkpt lat="33.8103292" lon="-118.3938677">
  <ele>-3.466</ele>
  <time>2026-09-01T01:13:53Z</time>
  <course>359.24</course>
  <speed>0.22090722034374521</speed>
  <fix>3d</fix>
</trkpt>
<trkpt lat="33.8103292" lon="-118.393868">
  <ele>-3.38</ele>
  <time>2026-09-01T01:13:53Z</time>
  <course>359.7</course>
  <speed>0.24</speed>
  <fix>3d</fix>
</trkpt>
<trkpt lat="33.8103294" lon="-118.3938677">
  <ele>-3.466</ele>
  <time>2026-09-01T01:13:53Z</time>
  <course>359.24</course>
  <speed>0.22090722034374521</speed>
  <fix>3d</fix>
</trkpt>
<trkpt lat="33.8103292" lon="-118.393868">
  <ele>-3.38</ele>
  <time>2026-09-01T01:13:53Z</time>
  <course>359.7</course>
  <speed>0.24</speed>
  <fix>3d</fix>
</trkpt>
<trkpt lat="33.8103297" lon="-118.3938677">
  <ele>-3.465</ele>
  <time>2026-09-01T01:13:53Z</time>
  <course>359.24</course>
  <speed>0.22090722034374521</speed>
  <fix>3d</fix>
</trkpt>
<trkpt lat="33.8103296" lon="-118.393868">
  <ele>-3.38</ele>
  <time>2026-09-01T01:13:53Z</time>
  <course>359.65</course>
  <speed>0.24</speed>
  <fix>3d</fix>
</trkpt>
<trkpt lat="33.8103299" lon="-118.3938677">
  <ele>-3.465</ele>
  <time>2026-09-01T01:13:53Z</time>
  <course>359.24</course>
  <speed>0.22090722034374521</speed>
  <fix>3d</fix>
</trkpt>
<trkpt lat="33.8103296" lon="-118.393868">
  <ele>-3.38</ele>
  <time>2026-09-01T01:13:53Z</time>
  <course>359.65</course>
  <speed>0.24</speed>
  <fix>3d</fix>
</trkpt>
<trkpt lat="33.8103301" lon="-118.3938677">
  <ele>-3.464</ele>
  <time>2026-09-01T01:13:53Z</time>
  <course>359.24</course>
  <speed>0.22090722034374521</speed>
  <fix>3d</fix>
</trkpt>
<trkpt lat="33.8103301" lon="-118.393868">
  <ele>-3.37</ele>
  <time>2026-09-01T01:13:53Z</time>
  <course>359.57</course>
  <speed>0.24</speed>
  <fix>3d</fix>
</trkpt>
<trkpt lat="33.8103303" lon="-118.3938677">
  <ele>-3.463</ele>
  <time>2026-09-01T01:13:53Z</time>
  <course>359.24</course>
  <speed>0.22090722034374521</speed>
  <fix>3d</fix>
</trkpt>
<trkpt lat="33.8103301" lon="-118.393868">
  <ele>-3.37</ele>
  <time>2026-09-01T01:13:53Z</time>
  <course>359.57</course>
  <speed>0.24</speed>
  <fix>3d</fix>
</trkpt>
<trkpt lat="33.8103306" lon="-118.3938677">
  <ele>-3.462</ele>
  <time>2026-09-01T01:13:53Z</time>
  <course>359.24</course>
  <speed>0.22090722034374521</speed>
  <fix>3d</fix>
</trkpt>
<trkpt lat="33.8103305" lon="-118.393868">
  <ele>-3.37</ele>
  <time>2026-09-01T01:13:53Z</time>
  <course>359.44</course>
  <speed>0.24</speed>
  <fix>3d</fix>
</trkpt>
<trkpt lat="33.8103308" lon="-118.3938677">
  <ele>-3.461</ele>
  <time>2026-09-01T01:13:53Z</time>
  <course>359.24</course>
  <speed>0.22090722034374521</speed>
  <fix>3d</fix>
</trkpt>
<trkpt lat="33.8103305" lon="-118.393868">
  <ele>-3.37</ele>
  <time>2026-09-01T01:13:53Z</time>
  <course>359.44</course>
  <speed>0.24</speed>
  <fix>3d</fix>
</trkpt>
<trkpt lat="33.810331" lon="-118.3938677">
  <ele>-3.46</ele>
  <time>2026-09-01T01:13:53Z</time>
  <course>359.24</course>
  <speed>0.22090722034374521</speed>
  <fix>3d</fix>
</trkpt>
<trkpt lat="33.8103309" lon="-118.393868">
  <ele>-3.37</ele>
  <time>2026-09-01T01:13:53Z</time>
  <course>359.35</course>
  <speed>0.24</speed>
  <fix>3d</fix>
</trkpt>
<trkpt lat="33.8103312" lon="-118.3938677">
  <ele>-3.459</ele>
  <time>2026-09-01T01:13:53Z</time>
  <course>359.24</course>
  <speed>0.22090722034374521</speed>
  <fix>3d</fix>
</trkpt>
<trkpt lat="33.8103309" lon="-118.393868">
  <ele>-3.37</ele>
  <time>2026-09-01T01:13:53Z</time>
  <course>359.35</course>
  <speed>0.24</speed>
  <fix>3d</fix>
</trkpt>
<trkpt lat="33.8103314" lon="-118.3938677">
  <ele>-3.46</ele>
  <time>2026-09-01T01:13:53Z</time>
  <course>359.24</course>
  <speed>0.22090722034374521</speed>
  <fix>3d</fix>
</trkpt>
<trkpt lat="33.8103313" lon="-118.393868">
  <ele>-3.37</ele>
  <time>2026-09-01T01:13:53Z</time>
  <course>359.3</course>
  <speed>0.24</speed>
  <fix>3d</fix>
</trkpt>
<trkpt lat="33.8103317" lon="-118.3938677">
  <ele>-3.461</ele>
  <time>2026-09-01T01:13:53Z</time>
  <course>359.24</course>
  <speed>0.22090722034374521</speed>
  <fix>3d</fix>
</trkpt>
<trkpt lat="33.8103313" lon="-118.393868">
  <ele>-3.37</ele>
  <time>2026-09-01T01:13:53Z</time>
  <course>359.3</course>
  <speed>0.24</speed>
  <fix>3d</fix>
</trkpt>
<trkpt lat="33.8103319" lon="-118.3938677">
  <ele>-3.463</ele>
  <time>2026-09-01T01:13:53Z</time>
  <course>359.24</course>
  <speed>0.22090722034374521</speed>
  <fix>3d</fix>
</trkpt>
<trkpt lat="33.8103318" lon="-118.393868">
  <ele>-3.38</ele>
  <time>2026-09-01T01:13:53Z</time>
  <course>359.23</course>
  <speed>0.24</speed>
  <fix>3d</fix>
</trkpt>
<trkpt lat="33.8103321" lon="-118.3938677">
  <ele>-3.464</ele>
  <time>2026-09-01T01:13:53Z</time>
  <course>359.24</course>
  <speed>0.22090722034374521</speed>
  <fix>3d</fix>
</trkpt>
<trkpt lat="33.8103318" lon="-118.393868">
  <ele>-3.38</ele>
  <time>2026-09-01T01:13:53Z</time>
  <course>359.23</course>
  <speed>0.24</speed>
  <fix>3d</fix>
</trkpt>
<trkpt lat="33.8103323" lon="-118.3938677">
  <ele>-3.466</ele>
  <time>2026-09-01T01:13:53Z</time>
  <course>359.24</course>
  <speed>0.22090722034374521</speed>
  <fix>3d</fix>
</trkpt>
<trkpt lat="33.8103323" lon="-118.393868">
  <ele>-3.38</ele>
  <time>2026-09-01T01:13:53Z</time>
  <course>359.09</course>
  <speed>0.24</speed>
  <fix>3d</fix>
</trkpt>
<trkpt lat="33.8103326" lon="-118.3938677">
  <ele>-3.468</ele>
  <time>2026-09-01T01:13:53Z</time>
  <course>359.24</course>
  <speed>0.22090722034374521</speed>
  <fix>3d</fix>
</trkpt>
<trkpt lat="33.8103323" lon="-118.393868">
  <ele>-3.38</ele>
  <time>2026-09-01T01:13:53Z</time>
  <course>359.09</course>
  <speed>0.24</speed>
  <fix>3d</fix>
</trkpt>
<trkpt lat="33.8103328" lon="-118.3938677">
  <ele>-3.469</ele>
  <time>2026-09-01T01:13:53Z</time>
  <course>359.24</course>
  <speed>0.22090722034374521</speed>
  <fix>3d</fix>
</trkpt>
<trkpt lat="33.8103327" lon="-118.393868">
  <ele>-3.38</ele>
  <time>2026-09-01T01:13:53Z</time>
  <course>358.96</course>
  <speed>0.24</speed>
  <fix>3d</fix>
</trkpt>
<trkpt lat="33.810333" lon="-118.3938677">
  <ele>-3.469</ele>
  <time>2026-09-01T01:13:53Z</time>
  <course>359.24</course>
  <speed>0.22090722034374521</speed>
  <fix>3d</fix>
</trkpt>
<trkpt lat="33.8103327" lon="-118.393868">
  <ele>-3.38</ele>
  <time>2026-09-01T01:13:53Z</time>
  <course>358.96</course>
  <speed>0.24</speed>
  <fix>3d</fix>
</trkpt>
<trkpt lat="33.8103332" lon="-118.3938677">
  <ele>-3.469</ele>
  <time>2026-09-01T01:13:53Z</time>
  <course>359.24</course>
  <speed>0.22090722034374521</speed>
  <fix>3d</fix>
</trkpt>
<trkpt lat="33.8103332" lon="-118.3938681">
  <ele>-3.38</ele>
  <time>2026-09-01T01:13:53Z</time>
  <course>358.85</course>
  <speed>0.24</speed>
  <fix>3d</fix>
</trkpt>
<trkpt lat="33.8103335" lon="-118.3938677">
  <ele>-3.469</ele>
  <time>2026-09-01T01:13:53Z</time>
  <course>359.24</course>
  <speed>0.22090722034374521</speed>
  <fix>3d</fix>
</trkpt>
<trkpt lat="33.8103332" lon="-118.3938681">
  <ele>-3.38</ele>
  <time>2026-09-01T01:13:53Z</time>
  <course>358.85</course>
  <speed>0.24</speed>
  <fix>3d</fix>
</trkpt>
<trkpt lat="33.8103337" lon="-118.3938677">
  <ele>-3.469</ele>
  <time>2026-09-01T01:13:53Z</time>
  <course>359.24</course>
  <speed>0.22090722034374521</speed>
  <fix>3d</fix>
</trkpt>
<trkpt lat="33.8103336" lon="-118.3938681">
  <ele>-3.38</ele>
  <time>2026-09-01T01:13:54Z</time>
  <course>358.91</course>
  <speed>0.24</speed>
  <fix>3d</fix>
</trkpt>
<trkpt lat="33.8103339" lon="-118.3938677">
  <ele>-3.469</ele>
  <time>2026-09-01T01:13:54Z</time>
  <course>359.25</course>
  <speed>0.22090722034374521</speed>
  <fix>3d</fix>
</trkpt>
<trkpt lat="33.8103336" lon="-118.3938681">
  <ele>-3.38</ele>
  <time>2026-09-01T01:13:54Z</time>
  <course>358.91</course>
  <speed>0.24</speed>
  <fix>3d</fix>
</trkpt>
<trkpt lat="33.8103341" lon="-118.3938678">
  <ele>-3.469</ele>
  <time>2026-09-01T01:13:54Z</time>
  <course>359.25</course>
  <speed>0.22090722034374521</speed>
  <fix>3d</fix>
</trkpt>
<trkpt lat="33.8103341" lon="-118.3938681">
  <ele>-3.38</ele>
  <time>2026-09-01T01:13:54Z</time>
  <course>359.16</course>
  <speed>0.24</speed>
  <fix>3d</fix>
</trkpt>
<trkpt lat="33.8103344" lon="-118.3938678">
  <ele>-3.468</ele>
  <time>2026-09-01T01:13:54Z</time>
  <course>359.24</course>
  <speed>0.22090722034374521</speed>
  <fix>3d</fix>
</trkpt>
<trkpt lat="33.8103341" lon="-118.3938681">
  <ele>-3.38</ele>
  <time>2026-09-01T01:13:54Z</time>
  <course>359.16</course>
  <speed>0.24</speed>
  <fix>3d</fix>
</trkpt>
<trkpt lat="33.8103346" lon="-118.3938678">
  <ele>-3.467</ele>
  <time>2026-09-01T01:13:54Z</time>
  <course>359.24</course>
  <speed>0.22090722034374521</speed>
  <fix>3d</fix>
</trkpt>
<trkpt lat="33.8103344" lon="-118.3938681">
  <ele>-3.38</ele>
  <time>2026-09-01T01:13:54Z</time>
  <course>359.45</course>
  <speed>0.24</speed>
  <fix>3d</fix>
</trkpt>
<trkpt lat="33.8103348" lon="-118.3938678">
  <ele>-3.467</ele>
  <time>2026-09-01T01:13:54Z</time>
  <course>359.24</course>
  <speed>0.22090722034374521</speed>
  <fix>3d</fix>
</trkpt>
<trkpt lat="33.8103344" lon="-118.3938681">
  <ele>-3.38</ele>
  <time>2026-09-01T01:13:54Z</time>
  <course>359.45</course>
  <speed>0.24</speed>
  <fix>3d</fix>
</trkpt>
<trkpt lat="33.810335" lon="-118.3938678">
  <ele>-3.466</ele>
  <time>2026-09-01T01:13:54Z</time>
  <course>359.24</course>
  <speed>0.22090722034374521</speed>
  <fix>3d</fix>
</trkpt>
<trkpt lat="33.8103349" lon="-118.3938681">
  <ele>-3.37</ele>
  <time>2026-09-01T01:13:54Z</time>
  <course>359.62</course>
  <speed>0.24</speed>
  <fix>3d</fix>
</trkpt>
<trkpt lat="33.8103352" lon="-118.3938678">
  <ele>-3.466</ele>
  <time>2026-09-01T01:13:54Z</time>
  <course>359.24</course>
  <speed>0.22090722034374521</speed>
  <fix>3d</fix>
</trkpt>
<trkpt lat="33.8103349" lon="-118.3938681">
  <ele>-3.37</ele>
  <time>2026-09-01T01:13:54Z</time>
  <course>359.62</course>
  <speed>0.24</speed>
  <fix>3d</fix>
</trkpt>
<trkpt lat="33.8103355" lon="-118.3938678">
  <ele>-3.466</ele>
  <time>2026-09-01T01:13:54Z</time>
  <course>359.24</course>
  <speed>0.22090722034374521</speed>
  <fix>3d</fix>
</trkpt>
<trkpt lat="33.8103354" lon="-118.3938681">
  <ele>-3.37</ele>
  <time>2026-09-01T01:13:54Z</time>
  <course>359.65</course>
  <speed>0.24</speed>
  <fix>3d</fix>
</trkpt>
<trkpt lat="33.8103357" lon="-118.3938678">
  <ele>-3.465</ele>
  <time>2026-09-01T01:13:54Z</time>
  <course>359.24</course>
  <speed>0.22090722034374521</speed>
  <fix>3d</fix>
</trkpt>
<trkpt lat="33.8103354" lon="-118.3938681">
  <ele>-3.37</ele>
  <time>2026-09-01T01:13:54Z</time>
  <course>359.65</course>
  <speed>0.24</speed>
  <fix>3d</fix>
</trkpt>
<trkpt lat="33.8103359" lon="-118.3938678">
  <ele>-3.464</ele>
  <time>2026-09-01T01:13:54Z</time>
  <course>359.23</course>
  <speed>0.22090722034374521</speed>
  <fix>3d</fix>
</trkpt>
<trkpt lat="33.8103358" lon="-118.3938681">
  <ele>-3.37</ele>
  <time>2026-09-01T01:13:54Z</time>
  <course>359.66</course>
  <speed>0.25</speed>
  <fix>3d</fix>
</trkpt>
<trkpt lat="33.8103361" lon="-118.3938678">
  <ele>-3.463</ele>
  <time>2026-09-01T01:13:54Z</time>
  <course>359.24</course>
  <speed>0.22090722034374521</speed>
  <fix>3d</fix>
</trkpt>
<trkpt lat="33.8103358" lon="-118.3938681">
  <ele>-3.37</ele>
  <time>2026-09-01T01:13:54Z</time>
  <course>359.66</course>
  <speed>0.25</speed>
  <fix>3d</fix>
</trkpt>
<trkpt lat="33.8103364" lon="-118.3938678">
  <ele>-3.462</ele>
  <time>2026-09-01T01:13:54Z</time>
  <course>359.24</course>
  <speed>0.22090722034374521</speed>
  <fix>3d</fix>
</trkpt>
<trkpt lat="33.8103363" lon="-118.3938681">
  <ele>-3.37</ele>
  <time>2026-09-01T01:13:54Z</time>
  <course>359.64</course>
  <speed>0.25</speed>
  <fix>3d</fix>
</trkpt>
<trkpt lat="33.8103366" lon="-118.3938678">
  <ele>-3.461</ele>
  <time>2026-09-01T01:13:54Z</time>
  <course>359.23</course>
  <speed>0.22090722034374521</speed>
  <fix>3d</fix>
</trkpt>
<trkpt lat="33.8103363" lon="-118.3938681">
  <ele>-3.37</ele>
  <time>2026-09-01T01:13:54Z</time>
  <course>359.64</course>
  <speed>0.25</speed>
  <fix>3d</fix>
</trkpt>
<trkpt lat="33.8103369" lon="-118.3938678">
  <ele>-3.461</ele>
  <time>2026-09-01T01:13:54Z</time>
  <course>359.21</course>
  <speed>0.41048751503547587</speed>
  <fix>3d</fix>
</trkpt>
<trkpt lat="33.8103367" lon="-118.3938681">
  <ele>-3.37</ele>
  <time>2026-09-01T01:13:54Z</time>
  <course>359.5</course>
  <speed>0.26</speed>
  <fix>3d</fix>
</trkpt>
<trkpt lat="33.8103373" lon="-118.3938678">
  <ele>-3.462</ele>
  <time>2026-09-01T01:13:54Z</time>
  <course>359.17</course>
  <speed>0.5200961449578337</speed>
  <fix>3d</fix>
</trkpt>
<trkpt lat="33.8103367" lon="-118.3938681">
  <ele>-3.37</ele>
  <time>2026-09-01T01:13:54Z</time>
  <course>359.5</course>
  <speed>0.26</speed>
  <fix>3d</fix>
</trkpt>
<trkpt lat="33.8103379" lon="-118.3938678">
  <ele>-3.461</ele>
  <time>2026-09-01T01:13:54Z</time>
  <course>359.11</course>
  <speed>0.6000833275470999</speed>
  <fix>3d</fix>
</trkpt>
<trkpt lat="33.8103373" lon="-118.3938681">
  <ele>-3.37</ele>
  <time>2026-09-01T01:13:54Z</time>
  <course>359.1</course>
  <speed>0.42</speed>
  <fix>3d</fix>
</trkpt>
<trkpt lat="33.8103384" lon="-118.3938678">
  <ele>-3.459</ele>
  <time>2026-09-01T01:13:54Z</time>
  <course>359.05</course>
  <speed>0.6500769185258002</speed>
  <fix>3d</fix>
</trkpt>
<trkpt lat="33.8103373" lon="-118.3938681">
  <ele>-3.37</ele>
  <time>2026-09-01T01:13:54Z</time>
  <course>359.1</course>
  <speed>0.42</speed>
  <fix>3d</fix>
</trkpt>
<trkpt lat="33.8103391" lon="-118.3938678">
  <ele>-3.456</ele>
  <time>2026-09-01T01:13:54Z</time>
  <course>358.99</course>
  <speed>0.6900724599634447</speed>
  <fix>3d</fix>
</trkpt>
<trkpt lat="33.8103384" lon="-118.3938681">
  <ele>-3.37</ele>
  <time>2026-09-01T01:13:54Z</time>
  <course>358.93</course>
  <speed>0.63</speed>
  <fix>3d</fix>
</trkpt>
<trkpt lat="33.8103397" lon="-118.3938678">
  <ele>-3.454</ele>
  <time>2026-09-01T01:13:54Z</time>
  <course>358.94</course>
  <speed>0.7200694410957876</speed>
  <fix>3d</fix>
</trkpt>
<trkpt lat="33.8103384" lon="-118.3938681">
  <ele>-3.37</ele>
  <time>2026-09-01T01:13:54Z</time>
  <course>358.93</course>
  <speed>0.63</speed>
  <fix>3d</fix>
</trkpt>
<trkpt lat="33.8103404" lon="-118.3938678">
  <ele>-3.451</ele>
  <time>2026-09-01T01:13:54Z</time>
  <course>358.89</course>
  <speed>0.750066663703967</speed>
  <fix>3d</fix>
</trkpt>
<trkpt lat="33.8103396" lon="-118.3938681">
  <ele>-3.36</ele>
  <time>2026-09-01T01:13:54Z</time>
  <course>358.9</course>
  <speed>0.72</speed>
  <fix>3d</fix>
</trkpt>
<trkpt lat="33.8103411" lon="-118.3938679">
  <ele>-3.448</ele>
  <time>2026-09-01T01:13:54Z</time>
  <course>358.85</course>
  <speed>0.7700649323271382</speed>
  <fix>3d</fix>
</trkpt>
<trkpt lat="33.8103396" lon="-118.3938681">
  <ele>-3.36</ele>
  <time>2026-09-01T01:13:54Z</time>
  <course>358.9</course>
  <speed>0.72</speed>
  <fix>3d</fix>
</trkpt>
<trkpt lat="33.8103418" lon="-118.3938679">
  <ele>-3.443</ele>
  <time>2026-09-01T01:13:54Z</time>
  <course>358.81</course>
  <speed>0.7800640999302557</speed>
  <fix>3d</fix>
</trkpt>
<trkpt lat="33.8103409" lon="-118.3938682">
  <ele>-3.36</ele>
  <time>2026-09-01T01:13:54Z</time>
  <course>358.9</course>
  <speed>0.78</speed>
  <fix>3d</fix>
</trkpt>
<trkpt lat="33.8103425" lon="-118.3938679">
  <ele>-3.437</ele>
  <time>2026-09-01T01:13:54Z</time>
  <course>358.77</course>
  <speed>0.8000624975587844</speed>
  <fix>3d</fix>
</trkpt>
<trkpt lat="33.8103409" lon="-118.3938682">
  <ele>-3.36</ele>
  <time>2026-09-01T01:13:54Z</time>
  <course>358.9</course>
  <speed>0.78</speed>
  <fix>3d</fix>
</trkpt>
<trkpt lat="33.8103432" lon="-118.3938679">
  <ele>-3.431</ele>
  <time>2026-09-01T01:13:54Z</time>
  <course>358.74</course>
  <speed>0.8100617260431454</speed>
  <fix>3d</fix>
</trkpt>
<trkpt lat="33.8103423" lon="-118.3938682">
  <ele>-3.35</ele>
  <time>2026-09-01T01:13:54Z</time>
  <course>358.91</course>
  <speed>0.81</speed>
  <fix>3d</fix>
</trkpt>
<trkpt lat="33.810344" lon="-118.3938679">
  <ele>-3.425</ele>
  <time>2026-09-01T01:13:54Z</time>
  <course>358.7</course>
  <speed>0.8200609733428362</speed>
  <fix>3d</fix>
</trkpt>
<trkpt lat="33.8103423" lon="-118.3938682">
  <ele>-3.35</ele>
  <time>2026-09-01T01:13:54Z</time>
  <course>358.91</course>
  <speed>0.81</speed>
  <fix>3d</fix>
</trkpt>
<trkpt lat="33.8103448" lon="-118.3938679">
  <ele>-3.418</ele>
  <time>2026-09-01T01:13:54Z</time>
  <course>358.68</course>
  <speed>0.8300602387778854</speed>
  <fix>3d</fix>
</trkpt>
<trkpt lat="33.8103439" lon="-118.3938682">
  <ele>-3.34</ele>
  <time>2026-09-01T01:13:54Z</time>
  <course>358.93</course>
  <speed>0.84</speed>
  <fix>3d</fix>
</trkpt>
<trkpt lat="33.8103455" lon="-118.393868">
  <ele>-3.409</ele>
  <time>2026-09-01T01:13:54Z</time>
  <course>358.65</course>
  <speed>0.8400595217006948</speed>
  <fix>3d</fix>
</trkpt>
<trkpt lat="33.8103439" lon="-118.3938682">
  <ele>-3.34</ele>
  <time>2026-09-01T01:13:54Z</time>
  <course>358.93</course>
  <speed>0.84</speed>
  <fix>3d</fix>
</trkpt>
<trkpt lat="33.8103463" lon="-118.393868">
  <ele>-3.4</ele>
  <time>2026-09-01T01:13:54Z</time>
  <course>358.63</course>
  <speed>0.8400595217006948</speed>
  <fix>3d</fix>
</trkpt>
<trkpt lat="33.8103454" lon="-118.3938683">
  <ele>-3.33</ele>
  <time>2026-09-01T01:13:54Z</time>
  <course>358.95</course>
  <speed>0.86</speed>
  <fix>3d</fix>
</trkpt>
<trkpt lat="33.8103471" lon="-118.393868">
  <ele>-3.391</ele>
  <time>2026-09-01T01:13:54Z</time>
  <course>358.6</course>
  <speed>0.85</speed>
  <fix>3d</fix>
</trkpt>
<trkpt lat="33.8103454" lon="-118.3938683">
  <ele>-3.33</ele>
  <time>2026-09-01T01:13:54Z</time>
  <course>358.95</course>
  <speed>0.86</speed>
  <fix>3d</fix>
</trkpt>
<trkpt lat="33.8103479" lon="-118.393868">
  <ele>-3.38</ele>
  <time>2026-09-01T01:13:54Z</time>
  <course>358.59</course>
  <speed>0.85</speed>
  <fix>3d</fix>
</trkpt>
<trkpt lat="33.8103469" lon="-118.3938683">
  <ele>-3.31</ele>
  <time>2026-09-01T01:13:54Z</time>
  <course>358.96</course>
  <speed>0.87</speed>
  <fix>3d</fix>
</trkpt>
<trkpt lat="33.8103487" lon="-118.393868">
  <ele>-3.37</ele>
  <time>2026-09-01T01:13:54Z</time>
  <course>358.57</course>
  <speed>0.86</speed>
  <fix>3d</fix>
</trkpt>
<trkpt lat="33.8103469" lon="-118.3938683">
  <ele>-3.31</ele>
  <time>2026-09-01T01:13:54Z</time>
  <course>358.96</course>
  <speed>0.87</speed>
  <fix>3d</fix>
</trkpt>
<trkpt lat="33.8103495" lon="-118.393868">
  <ele>-3.361</ele>
  <time>2026-09-01T01:13:54Z</time>
  <course>358.55</course>
  <speed>0.86</speed>
  <fix>3d</fix>
</trkpt>
<trkpt lat="33.8103486" lon="-118.3938683">
  <ele>-3.3</ele>
  <time>2026-09-01T01:13:54Z</time>
  <course>358.98</course>
  <speed>0.89</speed>
  <fix>3d</fix>
</trkpt>
<trkpt lat="33.8103502" lon="-118.3938681">
  <ele>-3.353</ele>
  <time>2026-09-01T01:13:54Z</time>
  <course>358.54</course>
  <speed>0.66007575322837</speed>
  <fix>3d</fix>
</trkpt>
<trkpt lat="33.8103486" lon="-118.3938683">
  <ele>-3.3</ele>
  <time>2026-09-01T01:13:54Z</time>
  <course>358.98</course>
  <speed>0.89</speed>
  <fix>3d</fix>
</trkpt>
<trkpt lat="33.8103507" lon="-118.3938681">
  <ele>-3.346</ele>
  <time>2026-09-01T01:13:54Z</time>
  <course>358.52</course>
  <speed>0.4901020301937138</speed>
  <fix>3d</fix>
</trkpt>
<trkpt lat="33.8103501" lon="-118.3938684">
  <ele>-3.29</ele>
  <time>2026-09-01T01:13:54Z</time>
  <course>359.11</course>
  <speed>0.77</speed>
  <fix>3d</fix>
</trkpt>
<trkpt lat="33.8103511" lon="-118.3938681">
  <ele>-3.339</ele>
  <time>2026-09-01T01:13:54Z</time>
  <course>358.51</course>
  <speed>0.3901281840626232</speed>
  <fix>3d</fix>
</trkpt>
<trkpt lat="33.8103501" lon="-118.3938684">
  <ele>-3.29</ele>
  <time>2026-09-01T01:13:54Z</time>
  <course>359.11</course>
  <speed>0.77</speed>
  <fix>3d</fix>
</trkpt>
<trkpt lat="33.8103515" lon="-118.3938681">
  <ele>-3.33</ele>
  <time>2026-09-01T01:13:54Z</time>
  <course>358.5</course>
  <speed>0.32062439083762795</speed>
  <fix>3d</fix>
</trkpt>
<trkpt lat="33.8103513" lon="-118.3938684">
  <ele>-3.27</ele>
  <time>2026-09-01T01:13:54Z</time>
  <course>359.5</course>
  <speed>0.52</speed>
  <fix>3d</fix>
</trkpt>
<trkpt lat="33.8103518" lon="-118.3938681">
  <ele>-3.322</ele>
  <time>2026-09-01T01:13:54Z</time>
  <course>358.5</course>
  <speed>0.2707397274136177</speed>
  <fix>3d</fix>
</trkpt>
<trkpt lat="33.8103513" lon="-118.3938684">
  <ele>-3.27</ele>
  <time>2026-09-01T01:13:54Z</time>
  <course>359.5</course>
  <speed>0.52</speed>
  <fix>3d</fix>
</trkpt>
<trkpt lat="33.810352" lon="-118.3938681">
  <ele>-3.314</ele>
  <time>2026-09-01T01:13:54Z</time>
  <course>358.5</course>
  <speed>0.2308679276123039</speed>
  <fix>3d</fix>
</trkpt>
<trkpt lat="33.8103521" lon="-118.3938684">
  <ele>-3.25</ele>
  <time>2026-09-01T01:13:54Z</time>
  <course>0.09</course>
  <speed>0.34</speed>
  <fix>3d</fix>
</trkpt>
<trkpt lat="33.8103523" lon="-118.3938681">
  <ele>-3.306</ele>
  <time>2026-09-01T01:13:54Z</time>
  <course>358.5</course>
  <speed>0.2109502310972899</speed>
  <fix>3d</fix>
</trkpt>
<trkpt lat="33.8103521" lon="-118.3938684">
  <ele>-3.25</ele>
  <time>2026-09-01T01:13:54Z</time>
  <course>0.09</course>
  <speed>0.34</speed>
  <fix>3d</fix>
</trkpt>
<trkpt lat="33.8103525" lon="-118.3938681">
  <ele>-3.297</ele>
  <time>2026-09-01T01:13:54Z</time>
  <course>358.5</course>
  <speed>0.18110770276274835</speed>
  <fix>3d</fix>
</trkpt>
<trkpt lat="33.8103526" lon="-118.3938684">
  <ele>-3.24</ele>
  <time>2026-09-01T01:13:54Z</time>
  <course>0.65</course>
  <speed>0.26</speed>
  <fix>3d</fix>
</trkpt>
<trkpt lat="33.8103527" lon="-118.3938681">
  <ele>-3.287</ele>
  <time>2026-09-01T01:13:54Z</time>
  <course>358.5</course>
  <speed>0.1711724276862369</speed>
  <fix>3d</fix>
</trkpt>
<trkpt lat="33.8103526" lon="-118.3938684">
  <ele>-3.24</ele>
  <time>2026-09-01T01:13:54Z</time>
  <course>0.65</course>
  <speed>0.26</speed>
  <fix>3d</fix>
</trkpt>
<trkpt lat="33.8103534" lon="-118.3938681">
  <ele>-3.248</ele>
  <time>2026-09-01T01:13:54Z</time>
  <course>358.51</course>
  <speed>0.12165525060596438</speed>
  <fix>3d</fix>
</trkpt>
<trkpt lat="33.8103534" lon="-118.3938684">
  <ele>-3.2</ele>
  <time>2026-09-01T01:13:54Z</time>
  <course>1.74</course>
  <speed>0.17</speed>
  <fix>3d</fix>
</trkpt>
<trkpt lat="33.8103538" lon="-118.3938681">
  <ele>-3.221</ele>
  <time>2026-09-01T01:13:54Z</time>
  <course>358.52</course>
  <speed>0.1019803902718557</speed>
  <fix>3d</fix>
</trkpt>
<trkpt lat="33.8103539" lon="-118.3938684">
  <ele>-3.17</ele>
  <time>2026-09-01T01:13:54Z</time>
  <course>2.77</course>
  <speed>0.13</speed>
  <fix>3d</fix>
</trkpt>
<trkpt lat="33.8103539" lon="-118.3938681">
  <ele>-3.212</ele>
  <time>2026-09-01T01:13:54Z</time>
  <course>358.52</course>
  <speed>0.09219544457292887</speed>
  <fix>3d</fix>
</trkpt>
<trkpt lat="33.8103539" lon="-118.3938684">
  <ele>-3.17</ele>
  <time>2026-09-01T01:13:54Z</time>
  <course>2.77</course>
  <speed>0.13</speed>
  <fix>3d</fix>
</trkpt>
<trkpt lat="33.810354" lon="-118.3938681">
  <ele>-3.202</ele>
  <time>2026-09-01T01:13:54Z</time>
  <course>358.53</course>
  <speed>0.09219544457292887</speed>
  <fix>3d</fix>
</trkpt>
<trkpt lat="33.8103542" lon="-118.3938684">
  <ele>-3.15</ele>
  <time>2026-09-01T01:13:54Z</time>
  <course>3.26</course>
  <speed>0.11</speed>
  <fix>3d</fix>
</trkpt>
<trkpt lat="33.8103541" lon="-118.3938681">
  <ele>-3.192</ele>
  <time>2026-09-01T01:13:54Z</time>
  <course>358.53</course>
  <speed>0.0824621125123532</speed>
  <fix>3d</fix>
</trkpt>
<trkpt lat="33.8103542" lon="-118.3938684">
  <ele>-3.15</ele>
  <time>2026-09-01T01:13:54Z</time>
  <course>3.26</course>
  <speed>0.11</speed>
  <fix>3d</fix>
</trkpt>
<trkpt lat="33.8103542" lon="-118.3938681">
  <ele>-3.182</ele>
  <time>2026-09-01T01:13:54Z</time>
  <course>358.53</course>
  <speed>0.0824621125123532</speed>
  <fix>3d</fix>
</trkpt>
<trkpt lat="33.8103543" lon="-118.3938684">
  <ele>-3.13</ele>
  <time>2026-09-01T01:13:54Z</time>
  <course>3.74</course>
  <speed>0.1</speed>
  <fix>3d</fix>
</trkpt>
<trkpt lat="33.8103543" lon="-118.3938681">
  <ele>-3.172</ele>
  <time>2026-09-01T01:13:54Z</time>
  <course>358.53</course>
  <speed>0.0824621125123532</speed>
  <fix>3d</fix>
</trkpt>
<trkpt lat="33.8103543" lon="-118.3938684">
  <ele>-3.13</ele>
  <time>2026-09-01T01:13:54Z</time>
  <course>3.74</course>
  <speed>0.1</speed>
  <fix>3d</fix>
</trkpt>
<trkpt lat="33.8103544" lon="-118.3938681">
  <ele>-3.16</ele>
  <time>2026-09-01T01:13:54Z</time>
  <course>358.53</course>
  <speed>0.07280109889280519</speed>
  <fix>3d</fix>
</trkpt>
<trkpt lat="33.8103545" lon="-118.3938684">
  <ele>-3.11</ele>
  <time>2026-09-01T01:13:54Z</time>
  <course>4.21</course>
  <speed>0.09</speed>
  <fix>3d</fix>
</trkpt>
<trkpt lat="33.8103545" lon="-118.3938681">
  <ele>-3.149</ele>
  <time>2026-09-01T01:13:54Z</time>
  <course>358.54</course>
  <speed>0.07280109889280519</speed>
  <fix>3d</fix>
</trkpt>
<trkpt lat="33.8103545" lon="-118.3938684">
  <ele>-3.11</ele>
  <time>2026-09-01T01:13:54Z</time>
  <course>4.21</course>
  <speed>0.09</speed>
  <fix>3d</fix>
</trkpt>
<trkpt lat="33.8103546" lon="-118.3938681">
  <ele>-3.14</ele>
  <time>2026-09-01T01:13:54Z</time>
  <course>358.54</course>
  <speed>0.07280109889280519</speed>
  <fix>3d</fix>
</trkpt>
<trkpt lat="33.8103547" lon="-118.3938684">
  <ele>-3.09</ele>
  <time>2026-09-01T01:13:54Z</time>
  <course>4.67</course>
  <speed>0.08</speed>
  <fix>3d</fix>
</trkpt>
<trkpt lat="33.8103547" lon="-118.3938681">
  <ele>-3.132</ele>
  <time>2026-09-01T01:13:54Z</time>
  <course>358.54</course>
  <speed>0.0632455532033676</speed>
  <fix>3d</fix>
</trkpt>
<trkpt lat="33.8103547" lon="-118.3938684">
  <ele>-3.09</ele>
  <time>2026-09-01T01:13:54Z</time>
  <course>4.67</course>
  <speed>0.08</speed>
  <fix>3d</fix>
</trkpt>
<trkpt lat="33.8103548" lon="-118.3938681">
  <ele>-3.124</ele>
  <time>2026-09-01T01:13:54Z</time>
  <course>358.54</course>
  <speed>0.0632455532033676</speed>
  <fix>3d</fix>
</trkpt>
<trkpt lat="33.8103549" lon="-118.3938684">
  <ele>-3.07</ele>
  <time>2026-09-01T01:13:54Z</time>
  <course>5.12</course>
  <speed>0.08</speed>
  <fix>3d</fix>
</trkpt>
<trkpt lat="33.8103548" lon="-118.3938681">
  <ele>-3.117</ele>
  <time>2026-09-01T01:13:54Z</time>
  <course>358.54</course>
  <speed>0.0632455532033676</speed>
  <fix>3d</fix>
</trkpt>
<trkpt lat="33.8103549" lon="-118.3938684">
  <ele>-3.07</ele>
  <time>2026-09-01T01:13:54Z</time>
  <course>5.12</course>
  <speed>0.08</speed>
  <fix>3d</fix>
</trkpt>
<trkpt lat="33.8103549" lon="-118.3938681">
  <ele>-3.108</ele>
  <time>2026-09-01T01:13:54Z</time>
  <course>358.54</course>
  <speed>0.0632455532033676</speed>
  <fix>3d</fix>
</trkpt>
<trkpt lat="33.810355" lon="-118.3938684">
  <ele>-3.05</ele>
  <time>2026-09-01T01:13:54Z</time>
  <course>5.56</course>
  <speed>0.07</speed>
  <fix>3d</fix>
</trkpt>
<trkpt lat="33.810355" lon="-118.3938681">
  <ele>-3.099</ele>
  <time>2026-09-01T01:13:54Z</time>
  <course>358.54</course>
  <speed>0.053851648071345036</speed>
  <fix>3d</fix>
</trkpt>
<trkpt lat="33.810355" lon="-118.3938684">
  <ele>-3.05</ele>
  <time>2026-09-01T01:13:54Z</time>
  <course>5.56</course>
  <speed>0.07</speed>
  <fix>3d</fix>
</trkpt>
<trkpt lat="33.810355" lon="-118.3938681">
  <ele>-3.09</ele>
  <time>2026-09-01T01:13:54Z</time>
  <course>358.54</course>
  <speed>0.053851648071345036</speed>
  <fix>3d</fix>
</trkpt>
<trkpt lat="33.8103551" lon="-118.3938684">
  <ele>-3.03</ele>
  <time>2026-09-01T01:13:54Z</time>
  <course>5.98</course>
  <speed>0.07</speed>
  <fix>3d</fix>
</trkpt>
<trkpt lat="33.8103551" lon="-118.3938681">
  <ele>-3.08</ele>
  <time>2026-09-01T01:13:54Z</time>
  <course>358.54</course>
  <speed>0.053851648071345036</speed>
  <fix>3d</fix>
</trkpt>
<trkpt lat="33.8103551" lon="-118.3938684">
  <ele>-3.03</ele>
  <time>2026-09-01T01:13:54Z</time>
  <course>5.98</course>
  <speed>0.07</speed>
  <fix>3d</fix>
</trkpt>
<trkpt lat="33.8103552" lon="-118.3938681">
  <ele>-3.071</ele>
  <time>2026-09-01T01:13:54Z</time>
  <course>358.54</course>
  <speed>0.053851648071345036</speed>
  <fix>3d</fix>
</trkpt>
<trkpt lat="33.8103553" lon="-118.3938683">
  <ele>-3.02</ele>
  <time>2026-09-01T01:13:54Z</time>
  <course>6.38</course>
  <speed>0.06</speed>
  <fix>3d</fix>
</trkpt>
<trkpt lat="33.8103552" lon="-118.3938681">
  <ele>-3.062</ele>
  <time>2026-09-01T01:13:54Z</time>
  <course>358.54</course>
  <speed>0.053851648071345036</speed>
  <fix>3d</fix>
</trkpt>
<trkpt lat="33.8103553" lon="-118.3938683">
  <ele>-3.02</ele>
  <time>2026-09-01T01:13:54Z</time>
  <course>6.38</course>
  <speed>0.06</speed>
  <fix>3d</fix>
</trkpt>
<trkpt lat="33.8103553" lon="-118.3938681">
  <ele>-3.052</ele>
  <time>2026-09-01T01:13:54Z</time>
  <course>358.54</course>
  <speed>0.044721359549995794</speed>
  <fix>3d</fix>
</trkpt>
<trkpt lat="33.8103554" lon="-118.3938683">
  <ele>-3.0</ele>
  <time>2026-09-01T01:13:54Z</time>
  <course>6.79</course>
  <speed>0.06</speed>
  <fix>3d</fix>
</trkpt>
<trkpt lat="33.8103553" lon="-118.3938681">
  <ele>-3.043</ele>
  <time>2026-09-01T01:13:54Z</time>
  <course>358.54</course>
  <speed>0.044721359549995794</speed>
  <fix>3d</fix>
</trkpt>
<trkpt lat="33.8103554" lon="-118.3938683">
  <ele>-3.0</ele>
  <time>2026-09-01T01:13:54Z</time>
  <course>6.79</course>
  <speed>0.06</speed>
  <fix>3d</fix>
</trkpt>
<trkpt lat="33.8103554" lon="-118.3938681">
  <ele>-3.034</ele>
  <time>2026-09-01T01:13:54Z</time>
  <course>358.54</course>
  <speed>0.044721359549995794</speed>
  <fix>3d</fix>
</trkpt>
<trkpt lat="33.8103555" lon="-118.3938683">
  <ele>-2.98</ele>
  <time>2026-09-01T01:13:54Z</time>
  <course>7.19</course>
  <speed>0.06</speed>
  <fix>3d</fix>
</trkpt>
<trkpt lat="33.8103555" lon="-118.3938681">
  <ele>-3.025</ele>
  <time>2026-09-01T01:13:54Z</time>
  <course>358.54</course>
  <speed>0.044721359549995794</speed>
  <fix>3d</fix>
</trkpt>
<trkpt lat="33.8103555" lon="-118.3938683">
  <ele>-2.98</ele>
  <time>2026-09-01T01:13:54Z</time>
  <course>7.19</course>
  <speed>0.06</speed>
  <fix>3d</fix>
</trkpt>
<trkpt lat="33.8103555" lon="-118.3938681">
  <ele>-3.015</ele>
  <time>2026-09-01T01:13:54Z</time>
  <course>358.54</course>
  <speed>0.044721359549995794</speed>
  <fix>3d</fix>
</trkpt>
<trkpt lat="33.8103556" lon="-118.3938683">
  <ele>-2.96</ele>
  <time>2026-09-01T01:13:54Z</time>
  <course>7.58</course>
  <speed>0.05</speed>
  <fix>3d</fix>
</trkpt>
<trkpt lat="33.8103556" lon="-118.3938681">
  <ele>-3.006</ele>
  <time>2026-09-01T01:13:54Z</time>
  <course>358.54</course>
  <speed>0.044721359549995794</speed>
  <fix>3d</fix>
</trkpt>
<trkpt lat="33.8103556" lon="-118.3938683">
  <ele>-2.96</ele>
  <time>2026-09-01T01:13:54Z</time>
  <course>7.58</course>
  <speed>0.05</speed>
  <fix>3d</fix>
</trkpt>
<trkpt lat="33.8103556" lon="-118.3938681">
  <ele>-2.996</ele>
  <time>2026-09-01T01:13:54Z</time>
  <course>358.53</course>
  <speed>0.03605551275463989</speed>
  <fix>3d</fix>
</trkpt>
<trkpt lat="33.8103557" lon="-118.3938683">
  <ele>-2.94</ele>
  <time>2026-09-01T01:13:54Z</time>
  <course>7.97</course>
  <speed>0.05</speed>
  <fix>3d</fix>
</trkpt>
<trkpt lat="33.8103557" lon="-118.3938681">
  <ele>-2.987</ele>
  <time>2026-09-01T01:13:54Z</time>
  <course>358.53</course>
  <speed>0.03605551275463989</speed>
  <fix>3d</fix>
</trkpt>
<trkpt lat="33.8103557" lon="-118.3938683">
  <ele>-2.94</ele>
  <time>2026-09-01T01:13:54Z</time>
  <course>7.97</course>
  <speed>0.05</speed>
  <fix>3d</fix>
</trkpt>
<trkpt lat="33.8103557" lon="-118.3938681">
  <ele>-2.978</ele>
  <time>2026-09-01T01:13:54Z</time>
  <course>358.53</course>
  <speed>0.03605551275463989</speed>
  <fix>3d</fix>
</trkpt>
<trkpt lat="33.8103558" lon="-118.3938683">
  <ele>-2.92</ele>
  <time>2026-09-01T01:13:54Z</time>
  <course>8.33</course>
  <speed>0.05</speed>
  <fix>3d</fix>
</trkpt>
<trkpt lat="33.8103557" lon="-118.3938681">
  <ele>-2.967</ele>
  <time>2026-09-01T01:13:54Z</time>
  <course>358.53</course>
  <speed>0.03605551275463989</speed>
  <fix>3d</fix>
</trkpt>
<trkpt lat="33.8103558" lon="-118.3938683">
  <ele>-2.92</ele>
  <time>2026-09-01T01:13:54Z</time>
  <course>8.33</course>
  <speed>0.05</speed>
  <fix>3d</fix>
</trkpt>
<trkpt lat="33.8103558" lon="-118.3938681">
  <ele>-2.956</ele>
  <time>2026-09-01T01:13:54Z</time>
  <course>358.53</course>
  <speed>0.03605551275463989</speed>
  <fix>3d</fix>
</trkpt>
<trkpt lat="33.8103559" lon="-118.3938682">
  <ele>-2.9</ele>
  <time>2026-09-01T01:13:54Z</time>
  <course>8.68</course>
  <speed>0.04</speed>
  <fix>3d</fix>
</trkpt>
<trkpt lat="33.8103558" lon="-118.3938681">
  <ele>-2.945</ele>
  <time>2026-09-01T01:13:54Z</time>
  <course>358.53</course>
  <speed>0.03605551275463989</speed>
  <fix>3d</fix>
</trkpt>
<trkpt lat="33.8103559" lon="-118.3938682">
  <ele>-2.9</ele>
  <time>2026-09-01T01:13:54Z</time>
  <course>8.68</course>
  <speed>0.04</speed>
  <fix>3d</fix>
</trkpt>
<trkpt lat="33.8103559" lon="-118.3938681">
  <ele>-2.935</ele>
  <time>2026-09-01T01:13:54Z</time>
  <course>358.52</course>
  <speed>0.03605551275463989</speed>
  <fix>3d</fix>
</trkpt>
<trkpt lat="33.810356" lon="-118.3938682">
  <ele>-2.88</ele>
  <time>2026-09-01T01:13:54Z</time>
  <course>9.02</course>
  <speed>0.04</speed>
  <fix>3d</fix>
</trkpt>
<trkpt lat="33.8103559" lon="-118.3938681">
  <ele>-2.926</ele>
  <time>2026-09-01T01:13:54Z</time>
  <course>358.52</course>
  <speed>0.0282842712474619</speed>
  <fix>3d</fix>
</trkpt>
<trkpt lat="33.810356" lon="-118.3938682">
  <ele>-2.88</ele>
  <time>2026-09-01T01:13:54Z</time>
  <course>9.02</course>
  <speed>0.04</speed>
  <fix>3d</fix>
</trkpt>
<trkpt lat="33.810356" lon="-118.3938681">
  <ele>-2.916</ele>
  <time>2026-09-01T01:13:54Z</time>
  <course>358.52</course>
  <speed>0.0282842712474619</speed>
  <fix>3d</fix>
</trkpt>
<trkpt lat="33.810356" lon="-118.3938682">
  <ele>-2.86</ele>
  <time>2026-09-01T01:13:54Z</time>
  <course>9.36</course>
  <speed>0.04</speed>
  <fix>3d</fix>
</trkpt>
<trkpt lat="33.810356" lon="-118.3938681">
  <ele>-2.906</ele>
  <time>2026-09-01T01:13:54Z</time>
  <course>358.52</course>
  <speed>0.0282842712474619</speed>
  <fix>3d</fix>
</trkpt>
<trkpt lat="33.810356" lon="-118.3938682">
  <ele>-2.86</ele>
  <time>2026-09-01T01:13:54Z</time>
  <course>9.36</course>
  <speed>0.04</speed>
  <fix>3d</fix>
</trkpt>
<trkpt lat="33.810356" lon="-118.3938681">
  <ele>-2.897</ele>
  <time>2026-09-01T01:13:54Z</time>
  <course>358.51</course>
  <speed>0.0282842712474619</speed>
  <fix>3d</fix>
</trkpt>
<trkpt lat="33.8103561" lon="-118.3938682">
  <ele>-2.84</ele>
  <time>2026-09-01T01:13:54Z</time>
  <course>9.71</course>
  <speed>0.04</speed>
  <fix>3d</fix>
</trkpt>
<trkpt lat="33.8103561" lon="-118.3938681">
  <ele>-2.889</ele>
  <time>2026-09-01T01:13:54Z</time>
  <course>358.51</course>
  <speed>0.0282842712474619</speed>
  <fix>3d</fix>
</trkpt>
<trkpt lat="33.8103561" lon="-118.3938682">
  <ele>-2.84</ele>
  <time>2026-09-01T01:13:54Z</time>
  <course>9.71</course>
  <speed>0.04</speed>
  <fix>3d</fix>
</trkpt>
<trkpt lat="33.8103561" lon="-118.3938681">
  <ele>-2.881</ele>
  <time>2026-09-01T01:13:54Z</time>
  <course>358.51</course>
  <speed>0.0282842712474619</speed>
  <fix>3d</fix>
</trkpt>
<trkpt lat="33.8103562" lon="-118.3938682">
  <ele>-2.83</ele>
  <time>2026-09-01T01:13:54Z</time>
  <course>10.05</course>
  <speed>0.04</speed>
  <fix>3d</fix>
</trkpt>
<trkpt lat="33.8103561" lon="-118.393868">
  <ele>-2.873</ele>
  <time>2026-09-01T01:13:54Z</time>
  <course>358.51</course>
  <speed>0.0282842712474619</speed>
  <fix>3d</fix>
</trkpt>
<trkpt lat="33.8103562" lon="-118.3938682">
  <ele>-2.83</ele>
  <time>2026-09-01T01:13:54Z</time>
  <course>10.05</course>
  <speed>0.04</speed>
  <fix>3d</fix>
</trkpt>
<trkpt lat="33.8103562" lon="-118.393868">
  <ele>-2.865</ele>
  <time>2026-09-01T01:13:54Z</time>
  <course>358.5</course>
  <speed>0.0282842712474619</speed>
  <fix>3d</fix>
</trkpt>
<trkpt lat="33.8103563" lon="-118.3938682">
  <ele>-2.81</ele>
  <time>2026-09-01T01:13:54Z</time>
  <course>10.37</course>
  <speed>0.04</speed>
  <fix>3d</fix>
</trkpt>
<trkpt lat="33.8103562" lon="-118.393868">
  <ele>-2.857</ele>
  <time>2026-09-01T01:13:54Z</time>
  <course>358.5</course>
  <speed>0.0282842712474619</speed>
  <fix>3d</fix>
</trkpt>
<trkpt lat="33.8103563" lon="-118.3938682">
  <ele>-2.81</ele>
  <time>2026-09-01T01:13:54Z</time>
  <course>10.37</course>
  <speed>0.04</speed>
  <fix>3d</fix>
</trkpt>
<trkpt lat="33.8103562" lon="-118.393868">
  <ele>-2.85</ele>
  <time>2026-09-01T01:13:54Z</time>
  <course>358.5</course>
  <speed>0.0282842712474619</speed>
  <fix>3d</fix>
</trkpt>
<trkpt lat="33.8103563" lon="-118.3938681">
  <ele>-2.79</ele>
  <time>2026-09-01T01:13:54Z</time>
  <course>10.68</course>
  <speed>0.03</speed>
  <fix>3d</fix>
</trkpt>
<trkpt lat="33.8103562" lon="-118.393868">
  <ele>-2.843</ele>
  <time>2026-09-01T01:13:54Z</time>
  <course>358.5</course>
  <speed>0.022360679774997897</speed>
  <fix>3d</fix>
</trkpt>
<trkpt lat="33.8103563" lon="-118.3938681">
  <ele>-2.79</ele>
  <time>2026-09-01T01:13:54Z</time>
  <course>10.68</course>
  <speed>0.03</speed>
  <fix>3d</fix>
</trkpt>
<trkpt lat="33.8103563" lon="-118.393868">
  <ele>-2.836</ele>
  <time>2026-09-01T01:13:54Z</time>
  <course>358.49</course>
  <speed>0.022360679774997897</speed>
  <fix>3d</fix>
</trkpt>
<trkpt lat="33.8103564" lon="-118.3938681">
  <ele>-2.77</ele>
  <time>2026-09-01T01:13:54Z</time>
  <course>10.97</course>
  <speed>0.03</speed>
  <fix>3d</fix>
</trkpt>
<trkpt lat="33.8103563" lon="-118.393868">
  <ele>-2.829</ele>
  <time>2026-09-01T01:13:54Z</time>
  <course>358.49</course>
  <speed>0.022360679774997897</speed>
  <fix>3d</fix>
</trkpt>
<trkpt lat="33.8103564" lon="-118.3938681">
  <ele>-2.77</ele>
  <time>2026-09-01T01:13:54Z</time>
  <course>10.97</course>
  <speed>0.03</speed>
  <fix>3d</fix>
</trkpt>
<trkpt lat="33.8103563" lon="-118.393868">
  <ele>-2.828</ele>
  <time>2026-09-01T01:13:54Z</time>
  <course>358.49</course>
  <speed>0.022360679774997897</speed>
  <fix>3d</fix>
</trkpt>
<trkpt lat="33.8103565" lon="-118.3938681">
  <ele>-2.76</ele>
  <time>2026-09-01T01:13:54Z</time>
  <course>11.27</course>
  <speed>0.03</speed>
  <fix>3d</fix>
</trkpt>
<trkpt lat="33.8103564" lon="-118.393868">
  <ele>-2.84</ele>
  <time>2026-09-01T01:13:54Z</time>
  <course>358.49</course>
  <speed>0.022360679774997897</speed>
  <fix>3d</fix>
</trkpt>
<trkpt lat="33.8103565" lon="-118.3938681">
  <ele>-2.76</ele>
  <time>2026-09-01T01:13:54Z</time>
  <course>11.27</course>
  <speed>0.03</speed>
  <fix>3d</fix>
</trkpt>
<trkpt lat="33.8103564" lon="-118.393868">
  <ele>-2.864</ele>
  <time>2026-09-01T01:13:54Z</time>
  <course>358.48</course>
  <speed>0.022360679774997897</speed>
  <fix>3d</fix>
</trkpt>
<trkpt lat="33.8103566" lon="-118.3938681">
  <ele>-2.77</ele>
  <time>2026-09-01T01:13:54Z</time>
  <course>11.79</course>
  <speed>0.03</speed>
  <fix>3d</fix>
</trkpt>
<trkpt lat="33.8103564" lon="-118.3938679">
  <ele>-2.897</ele>
  <time>2026-09-01T01:13:54Z</time>
  <course>358.48</course>
  <speed>0.022360679774997897</speed>
  <fix>3d</fix>
</trkpt>
<trkpt lat="33.8103566" lon="-118.3938681">
  <ele>-2.77</ele>
  <time>2026-09-01T01:13:54Z</time>
  <course>11.79</course>
  <speed>0.03</speed>
  <fix>3d</fix>
</trkpt>
<trkpt lat="33.8103565" lon="-118.3938679">
  <ele>-2.937</ele>
  <time>2026-09-01T01:13:54Z</time>
  <course>358.48</course>
  <speed>0.022360679774997897</speed>
  <fix>3d</fix>
</trkpt>
<trkpt lat="33.8103566" lon="-118.3938681">
  <ele>-2.8</ele>
  <time>2026-09-01T01:13:54Z</time>
  <course>12.49</course>
  <speed>0.03</speed>
  <fix>3d</fix>
</trkpt>
<trkpt lat="33.8103565" lon="-118.3938679">
  <ele>-2.981</ele>
  <time>2026-09-01T01:13:54Z</time>
  <course>358.47</course>
  <speed>0.022360679774997897</speed>
  <fix>3d</fix>
</trkpt>
<trkpt lat="33.8103566" lon="-118.3938681">
  <ele>-2.8</ele>
  <time>2026-09-01T01:13:54Z</time>
  <course>12.49</course>
  <speed>0.03</speed>
  <fix>3d</fix>
</trkpt>
<trkpt lat="33.8103565" lon="-118.3938679">
  <ele>-3.027</ele>
  <time>2026-09-01T01:13:54Z</time>
  <course>358.47</course>
  <speed>0.022360679774997897</speed>
  <fix>3d</fix>
</trkpt>
<trkpt lat="33.8103567" lon="-118.3938681">
  <ele>-2.87</ele>
  <time>2026-09-01T01:13:54Z</time>
  <course>13.07</course>
  <speed>0.03</speed>
  <fix>3d</fix>
</trkpt>
<trkpt lat="33.8103565" lon="-118.3938679">
  <ele>-3.075</ele>
  <time>2026-09-01T01:13:54Z</time>
  <course>358.47</course>
  <speed>0.022360679774997897</speed>
  <fix>3d</fix>
</trkpt>
<trkpt lat="33.8103567" lon="-118.3938681">
  <ele>-2.87</ele>
  <time>2026-09-01T01:13:54Z</time>
  <course>13.07</course>
  <speed>0.03</speed>
  <fix>3d</fix>
</trkpt>
<trkpt lat="33.8103566" lon="-118.3938679">
  <ele>-3.124</ele>
  <time>2026-09-01T01:13:54Z</time>
  <course>358.47</course>
  <speed>0.022360679774997897</speed>
  <fix>3d</fix>
</trkpt>
<trkpt lat="33.8103567" lon="-118.393868">
  <ele>-2.96</ele>
  <time>2026-09-01T01:13:54Z</time>
  <course>13.48</course>
  <speed>0.03</speed>
  <fix>3d</fix>
</trkpt>
<trkpt lat="33.8103566" lon="-118.3938679">
  <ele>-3.173</ele>
  <time>2026-09-01T01:13:54Z</time>
  <course>358.46</course>
  <speed>0.022360679774997897</speed>
  <fix>3d</fix>
</trkpt>
<trkpt lat="33.8103567" lon="-118.393868">
  <ele>-2.96</ele>
  <time>2026-09-01T01:13:54Z</time>
  <course>13.48</course>
  <speed>0.03</speed>
  <fix>3d</fix>
</trkpt>
<trkpt lat="33.8103566" lon="-118.3938679">
  <ele>-3.222</ele>
  <time>2026-09-01T01:13:54Z</time>
  <course>358.46</course>
  <speed>0.022360679774997897</speed>
  <fix>3d</fix>
</trkpt>
<trkpt lat="33.8103568" lon="-118.393868">
  <ele>-3.04</ele>
  <time>2026-09-01T01:13:54Z</time>
  <course>13.82</course>
  <speed>0.03</speed>
  <fix>3d</fix>
</trkpt>
<trkpt lat="33.8103567" lon="-118.3938679">
  <ele>-3.272</ele>
  <time>2026-09-01T01:13:54Z</time>
  <course>358.46</course>
  <speed>0.022360679774997897</speed>
  <fix>3d</fix>
</trkpt>
<trkpt lat="33.8103568" lon="-118.393868">
  <ele>-3.04</ele>
  <time>2026-09-01T01:13:54Z</time>
  <course>13.82</course>
  <speed>0.03</speed>
  <fix>3d</fix>
</trkpt>
<trkpt lat="33.8103567" lon="-118.3938679">
  <ele>-3.321</ele>
  <time>2026-09-01T01:13:54Z</time>
  <course>358.45</course>
  <speed>0.022360679774997897</speed>
  <fix>3d</fix>
</trkpt>
<trkpt lat="33.8103568" lon="-118.393868">
  <ele>-3.13</ele>
  <time>2026-09-01T01:13:54Z</time>
  <course>14.12</course>
  <speed>0.03</speed>
  <fix>3d</fix>
</trkpt>
<trkpt lat="33.8103567" lon="-118.3938679">
  <ele>-3.37</ele>
  <time>2026-09-01T01:13:54Z</time>
  <course>358.45</course>
  <speed>0.02</speed>
  <fix>3d</fix>
</trkpt>
<trkpt lat="33.8103568" lon="-118.393868">
  <ele>-3.13</ele>
  <time>2026-09-01T01:13:54Z</time>
  <course>14.12</course>
  <speed>0.03</speed>
  <fix>3d</fix>
</trkpt>
<trkpt lat="33.8103567" lon="-118.3938678">
  <ele>-3.419</ele>
  <time>2026-09-01T01:13:54Z</time>
  <course>358.45</course>
  <speed>0.02</speed>
  <fix>3d</fix>
</trkpt>
<trkpt lat="33.8103569" lon="-118.393868">
  <ele>-3.23</ele>
  <time>2026-09-01T01:13:54Z</time>
  <course>14.42</course>
  <speed>0.03</speed>
  <fix>3d</fix>
</trkpt>
<trkpt lat="33.8103568" lon="-118.3938678">
  <ele>-3.468</ele>
  <time>2026-09-01T01:13:54Z</time>
  <course>358.45</course>
  <speed>0.02</speed>
  <fix>3d</fix>
</trkpt>
<trkpt lat="33.8103569" lon="-118.393868">
  <ele>-3.23</ele>
  <time>2026-09-01T01:13:54Z</time>
  <course>14.42</course>
  <speed>0.03</speed>
  <fix>3d</fix>
</trkpt>
<trkpt lat="33.8103568" lon="-118.3938678">
  <ele>-3.516</ele>
  <time>2026-09-01T01:13:54Z</time>
  <course>358.44</course>
  <speed>0.02</speed>
  <fix>3d</fix>
</trkpt>
<trkpt lat="33.8103569" lon="-118.393868">
  <ele>-3.32</ele>
  <time>2026-09-01T01:13:54Z</time>
  <course>14.7</course>
  <speed>0.02</speed>
  <fix>3d</fix>
</trkpt>
<trkpt lat="33.8103568" lon="-118.3938678">
  <ele>-3.565</ele>
  <time>2026-09-01T01:13:54Z</time>
  <course>358.44</course>
  <speed>0.02</speed>
  <fix>3d</fix>
</trkpt>
<trkpt lat="33.8103569" lon="-118.393868">
  <ele>-3.32</ele>
  <time>2026-09-01T01:13:54Z</time>
  <course>14.7</course>
  <speed>0.02</speed>
  <fix>3d</fix>
</trkpt>
<trkpt lat="33.8103568" lon="-118.3938678">
  <ele>-3.613</ele>
  <time>2026-09-01T01:13:54Z</time>
  <course>358.11</course>
  <speed>0.02</speed>
  <fix>3d</fix>
</trkpt>
<trkpt lat="33.810357" lon="-118.393868">
  <ele>-3.41</ele>
  <time>2026-09-01T01:13:54Z</time>
  <course>14.98</course>
  <speed>0.02</speed>
  <fix>3d</fix>
</trkpt>
<trkpt lat="33.8103568" lon="-118.3938678">
  <ele>-3.661</ele>
  <time>2026-09-01T01:13:54Z</time>
  <course>358.1</course>
  <speed>0.02</speed>
  <fix>3d</fix>
</trkpt>
<trkpt lat="33.810357" lon="-118.393868">
  <ele>-3.41</ele>
  <time>2026-09-01T01:13:54Z</time>
  <course>14.98</course>
  <speed>0.02</speed>
  <fix>3d</fix>
</trkpt>
<trkpt lat="33.8103569" lon="-118.3938678">
  <ele>-3.708</ele>
  <time>2026-09-01T01:13:54Z</time>
  <course>358.11</course>
  <speed>0.02</speed>
  <fix>3d</fix>
</trkpt>
<trkpt lat="33.8103571" lon="-118.3938679">
  <ele>-3.5</ele>
  <time>2026-09-01T01:13:54Z</time>
  <course>15.25</course>
  <speed>0.02</speed>
  <fix>3d</fix>
</trkpt>
<trkpt lat="33.8103569" lon="-118.3938678">
  <ele>-3.755</ele>
  <time>2026-09-01T01:13:54Z</time>
  <course>358.1</course>
  <speed>0.02</speed>
  <fix>3d</fix>
</trkpt>
<trkpt lat="33.8103571" lon="-118.3938679">
  <ele>-3.5</ele>
  <time>2026-09-01T01:13:54Z</time>
  <course>15.25</course>
  <speed>0.02</speed>
  <fix>3d</fix>
</trkpt>
<trkpt lat="33.8103569" lon="-118.3938678">
  <ele>-3.802</ele>
  <time>2026-09-01T01:13:54Z</time>
  <course>358.1</course>
  <speed>0.02</speed>
  <fix>3d</fix>
</trkpt>
<trkpt lat="33.8103571" lon="-118.3938679">
  <ele>-3.59</ele>
  <time>2026-09-01T01:13:54Z</time>
  <course>15.52</course>
  <speed>0.02</speed>
  <fix>3d</fix>
</trkpt>
<trkpt lat="33.8103569" lon="-118.3938678">
  <ele>-3.85</ele>
  <time>2026-09-01T01:13:54Z</time>
  <course>358.1</course>
  <speed>0.02</speed>
  <fix>3d</fix>
</trkpt>
<trkpt lat="33.8103571" lon="-118.3938679">
  <ele>-3.59</ele>
  <time>2026-09-01T01:13:54Z</time>
  <course>15.52</course>
  <speed>0.02</speed>
  <fix>3d</fix>
</trkpt>
<trkpt lat="33.810357" lon="-118.3938678">
  <ele>-3.896</ele>
  <time>2026-09-01T01:13:54Z</time>
  <course>358.1</course>
  <speed>0.02</speed>
  <fix>3d</fix>
</trkpt>
<trkpt lat="33.8103572" lon="-118.3938679">
  <ele>-3.68</ele>
  <time>2026-09-01T01:13:54Z</time>
  <course>15.79</course>
  <speed>0.02</speed>
  <fix>3d</fix>
</trkpt>
<trkpt lat="33.810357" lon="-118.3938677">
  <ele>-3.944</ele>
  <time>2026-09-01T01:13:54Z</time>
  <course>358.1</course>
  <speed>0.02</speed>
  <fix>3d</fix>
</trkpt>
<trkpt lat="33.8103572" lon="-118.3938679">
  <ele>-3.68</ele>
  <time>2026-09-01T01:13:54Z</time>
  <course>15.79</course>
  <speed>0.02</speed>
  <fix>3d</fix>
</trkpt>
<trkpt lat="33.810357" lon="-118.3938677">
  <ele>-3.991</ele>
  <time>2026-09-01T01:13:54Z</time>
  <course>358.1</course>
  <speed>0.02</speed>
  <fix>3d</fix>
</trkpt>
<trkpt lat="33.8103572" lon="-118.3938679">
  <ele>-3.77</ele>
  <time>2026-09-01T01:13:54Z</time>
  <course>16.05</course>
  <speed>0.02</speed>
  <fix>3d</fix>
</trkpt>
<trkpt lat="33.810357" lon="-118.3938677">
  <ele>-4.037</ele>
  <time>2026-09-01T01:13:54Z</time>
  <course>358.1</course>
  <speed>0.03</speed>
  <fix>3d</fix>
</trkpt>
<trkpt lat="33.8103572" lon="-118.3938679">
  <ele>-3.77</ele>
  <time>2026-09-01T01:13:54Z</time>
  <course>16.05</course>
  <speed>0.02</speed>
  <fix>3d</fix>
</trkpt>
<trkpt lat="33.8103571" lon="-118.3938677">
  <ele>-4.084</ele>
  <time>2026-09-01T01:13:54Z</time>
  <course>358.1</course>
  <speed>0.03</speed>
  <fix>3d</fix>
</trkpt>
<trkpt lat="33.8103573" lon="-118.3938679">
  <ele>-3.86</ele>
  <time>2026-09-01T01:13:54Z</time>
  <course>16.3</course>
  <speed>0.02</speed>
  <fix>3d</fix>
</trkpt>
<trkpt lat="33.8103571" lon="-118.3938677">
  <ele>-4.13</ele>
  <time>2026-09-01T01:13:54Z</time>
  <course>358.1</course>
  <speed>0.03</speed>
  <fix>3d</fix>
</trkpt>
<trkpt lat="33.8103573" lon="-118.3938679">
  <ele>-3.86</ele>
  <time>2026-09-01T01:13:54Z</time>
  <course>16.3</course>
  <speed>0.02</speed>
  <fix>3d</fix>
</trkpt>
<trkpt lat="33.8103571" lon="-118.3938677">
  <ele>-4.177</ele>
  <time>2026-09-01T01:13:54Z</time>
  <course>358.1</course>
  <speed>0.03</speed>
  <fix>3d</fix>
</trkpt>
<trkpt lat="33.8103573" lon="-118.3938679">
  <ele>-3.96</ele>
  <time>2026-09-01T01:13:54Z</time>
  <course>16.55</course>
  <speed>0.02</speed>
  <fix>3d</fix>
</trkpt>
<trkpt lat="33.8103571" lon="-118.3938677">
  <ele>-4.224</ele>
  <time>2026-09-01T01:13:54Z</time>
  <course>358.1</course>
  <speed>0.03</speed>
  <fix>3d</fix>
</trkpt>
<trkpt lat="33.8103573" lon="-118.3938679">
  <ele>-3.96</ele>
  <time>2026-09-01T01:13:54Z</time>
  <course>16.55</course>
  <speed>0.02</speed>
  <fix>3d</fix>
</trkpt>
<trkpt lat="33.8103571" lon="-118.3938677">
  <ele>-4.27</ele>
  <time>2026-09-01T01:13:54Z</time>
  <course>358.1</course>
  <speed>0.03</speed>
  <fix>3d</fix>
</trkpt>
<trkpt lat="33.8103573" lon="-118.3938679">
  <ele>-4.05</ele>
  <time>2026-09-01T01:13:54Z</time>
  <course>16.8</course>
  <speed>0.02</speed>
  <fix>3d</fix>
</trkpt>
<trkpt lat="33.8103572" lon="-118.3938677">
  <ele>-4.317</ele>
  <time>2026-09-01T01:13:54Z</time>
  <course>358.1</course>
  <speed>0.03</speed>
  <fix>3d</fix>
</trkpt>
<trkpt lat="33.8103573" lon="-118.3938679">
  <ele>-4.05</ele>
  <time>2026-09-01T01:13:54Z</time>
  <course>16.8</course>
  <speed>0.02</speed>
  <fix>3d</fix>
</trkpt>
<trkpt lat="33.8103572" lon="-118.3938676">
  <ele>-4.363</ele>
  <time>2026-09-01T01:13:54Z</time>
  <course>358.1</course>
  <speed>0.03</speed>
  <fix>3d</fix>
</trkpt>
<trkpt lat="33.8103574" lon="-118.3938678">
  <ele>-4.14</ele>
  <time>2026-09-01T01:13:54Z</time>
  <course>17.05</course>
  <speed>0.02</speed>
  <fix>3d</fix>
</trkpt>
<trkpt lat="33.8103572" lon="-118.3938676">
  <ele>-4.41</ele>
  <time>2026-09-01T01:13:54Z</time>
  <course>358.09</course>
  <speed>0.03</speed>
  <fix>3d</fix>
</trkpt>
<trkpt lat="33.8103574" lon="-118.3938678">
  <ele>-4.14</ele>
  <time>2026-09-01T01:13:54Z</time>
  <course>17.05</course>
  <speed>0.02</speed>
  <fix>3d</fix>
</trkpt>
<trkpt lat="33.8103572" lon="-118.3938676">
  <ele>-4.456</ele>
  <time>2026-09-01T01:13:54Z</time>
  <course>358.09</course>
  <speed>0.03</speed>
  <fix>3d</fix>
</trkpt>
<trkpt lat="33.8103574" lon="-118.3938678">
  <ele>-4.23</ele>
  <time>2026-09-01T01:13:54Z</time>
  <course>17.29</course>
  <speed>0.02</speed>
  <fix>3d</fix>
</trkpt>
<trkpt lat="33.8103572" lon="-118.3938676">
  <ele>-4.503</ele>
  <time>2026-09-01T01:13:54Z</time>
  <course>358.09</course>
  <speed>0.03</speed>
  <fix>3d</fix>
</trkpt>
<trkpt lat="33.8103574" lon="-118.3938678">
  <ele>-4.23</ele>
  <time>2026-09-01T01:13:54Z</time>
  <course>17.29</course>
  <speed>0.02</speed>
  <fix>3d</fix>
</trkpt>
<trkpt lat="33.8103572" lon="-118.3938676">
  <ele>-4.549</ele>
  <time>2026-09-01T01:13:54Z</time>
  <course>358.11</course>
  <speed>0.03</speed>
  <fix>3d</fix>
</trkpt>
<trkpt lat="33.8103574" lon="-118.3938678">
  <ele>-4.32</ele>
  <time>2026-09-01T01:13:54Z</time>
  <course>17.53</course>
  <speed>0.02</speed>
  <fix>3d</fix>
</trkpt>
<trkpt lat="33.8103572" lon="-118.3938676">
  <ele>-4.595</ele>
  <time>2026-09-01T01:13:54Z</time>
  <course>358.13</course>
  <speed>0.03</speed>
  <fix>3d</fix>
</trkpt>
<trkpt lat="33.8103574" lon="-118.3938678">
  <ele>-4.32</ele>
  <time>2026-09-01T01:13:54Z</time>
  <course>17.53</course>
  <speed>0.02</speed>
  <fix>3d</fix>
</trkpt>
<trkpt lat="33.8103572" lon="-118.3938676">
  <ele>-4.641</ele>
  <time>2026-09-01T01:13:54Z</time>
  <course>358.15</course>
  <speed>0.03</speed>
  <fix>3d</fix>
</trkpt>
<trkpt lat="33.8103574" lon="-118.3938678">
  <ele>-4.41</ele>
  <time>2026-09-01T01:13:54Z</time>
  <course>17.77</course>
  <speed>0.02</speed>
  <fix>3d</fix>
</trkpt>
<trkpt lat="33.8103573" lon="-118.3938675">
  <ele>-4.687</ele>
  <time>2026-09-01T01:13:54Z</time>
  <course>358.15</course>
  <speed>0.03</speed>
  <fix>3d</fix>
</trkpt>
<trkpt lat="33.8103574" lon="-118.3938678">
  <ele>-4.41</ele>
  <time>2026-09-01T01:13:54Z</time>
  <course>17.77</course>
  <speed>0.02</speed>
  <fix>3d</fix>
</trkpt>
<trkpt lat="33.8103573" lon="-118.3938675">
  <ele>-4.733</ele>
  <time>2026-09-01T01:13:54Z</time>
  <course>358.15</course>
  <speed>0.03</speed>
  <fix>3d</fix>
</trkpt>
<trkpt lat="33.8103575" lon="-118.3938678">
  <ele>-4.5</ele>
  <time>2026-09-01T01:13:54Z</time>
  <course>18.01</course>
  <speed>0.02</speed>
  <fix>3d</fix>
</trkpt>
<trkpt lat="33.8103573" lon="-118.3938675">
  <ele>-4.779</ele>
  <time>2026-09-01T01:13:54Z</time>
  <course>358.15</course>
  <speed>0.0316227766016838</speed>
  <fix>3d</fix>
</trkpt>
<trkpt lat="33.8103575" lon="-118.3938678">
  <ele>-4.5</ele>
  <time>2026-09-01T01:13:54Z</time>
  <course>18.01</course>
  <speed>0.02</speed>
  <fix>3d</fix>
</trkpt>
<trkpt lat="33.8103573" lon="-118.3938675">
  <ele>-4.824</ele>
  <time>2026-09-01T01:13:54Z</time>
  <course>358.15</course>
  <speed>0.0316227766016838</speed>
  <fix>3d</fix>
</trkpt>
<trkpt lat="33.8103575" lon="-118.3938678">
  <ele>-4.6</ele>
  <time>2026-09-01T01:13:54Z</time>
  <course>18.24</course>
  <speed>0.02</speed>
  <fix>3d</fix>
</trkpt>
<trkpt lat="33.8103573" lon="-118.3938675">
  <ele>-4.87</ele>
  <time>2026-09-01T01:13:54Z</time>
  <course>358.14</course>
  <speed>0.0316227766016838</speed>
  <fix>3d</fix>
</trkpt>
<trkpt lat="33.8103575" lon="-118.3938678">
  <ele>-4.6</ele>
  <time>2026-09-01T01:13:54Z</time>
  <course>18.24</course>
  <speed>0.02</speed>
  <fix>3d</fix>
</trkpt>
<trkpt lat="33.8103573" lon="-118.3938675">
  <ele>-4.916</ele>
  <time>2026-09-01T01:13:54Z</time>
  <course>358.14</course>
  <speed>0.0316227766016838</speed>
  <fix>3d</fix>
</trkpt>
<trkpt lat="33.8103576" lon="-118.3938677">
  <ele>-4.69</ele>
  <time>2026-09-01T01:13:54Z</time>
  <course>18.47</course>
  <speed>0.02</speed>
  <fix>3d</fix>
</trkpt>
<trkpt lat="33.8103573" lon="-118.3938675">
  <ele>-4.962</ele>
  <time>2026-09-01T01:13:54Z</time>
  <course>358.14</course>
  <speed>0.0316227766016838</speed>
  <fix>3d</fix>
</trkpt>
<trkpt lat="33.8103576" lon="-118.3938677">
  <ele>-4.69</ele>
  <time>2026-09-01T01:13:54Z</time>
  <course>18.47</course>
  <speed>0.02</speed>
  <fix>3d</fix>
</trkpt>
<trkpt lat="33.8103573" lon="-118.3938674">
  <ele>-5.008</ele>
  <time>2026-09-01T01:13:54Z</time>
  <course>358.14</course>
  <speed>0.0316227766016838</speed>
  <fix>3d</fix>
</trkpt>
<trkpt lat="33.8103577" lon="-118.3938677">
  <ele>-4.78</ele>
  <time>2026-09-01T01:13:54Z</time>
  <course>18.69</course>
  <speed>0.02</speed>
  <fix>3d</fix>
</trkpt>
<trkpt lat="33.8103573" lon="-118.3938674">
  <ele>-5.054</ele>
  <time>2026-09-01T01:13:54Z</time>
  <course>358.13</course>
  <speed>0.0316227766016838</speed>
  <fix>3d</fix>
</trkpt>
<trkpt lat="33.8103577" lon="-118.3938677">
  <ele>-4.78</ele>
  <time>2026-09-01T01:13:54Z</time>
  <course>18.69</course>
  <speed>0.02</speed>
  <fix>3d</fix>
</trkpt>
<trkpt lat="33.8103574" lon="-118.3938674">
  <ele>-5.101</ele>
  <time>2026-09-01T01:13:54Z</time>
  <course>358.13</course>
  <speed>0.0316227766016838</speed>
  <fix>3d</fix>
</trkpt>
<trkpt lat="33.8103577" lon="-118.3938677">
  <ele>-4.87</ele>
  <time>2026-09-01T01:13:54Z</time>
  <course>18.92</course>
  <speed>0.02</speed>
  <fix>3d</fix>
</trkpt>
<trkpt lat="33.8103574" lon="-118.3938674">
  <ele>-5.147</ele>
  <time>2026-09-01T01:13:54Z</time>
  <course>358.12</course>
  <speed>0.0316227766016838</speed>
  <fix>3d</fix>
</trkpt>
<trkpt lat="33.8103577" lon="-118.3938677">
  <ele>-4.87</ele>
  <time>2026-09-01T01:13:54Z</time>
  <course>18.92</course>
  <speed>0.02</speed>
  <fix>3d</fix>
</trkpt>
<trkpt lat="33.8103574" lon="-118.3938674">
  <ele>-5.193</ele>
  <time>2026-09-01T01:13:54Z</time>
  <course>358.12</course>
  <speed>0.0316227766016838</speed>
  <fix>3d</fix>
</trkpt>
<trkpt lat="33.8103577" lon="-118.3938677">
  <ele>-4.96</ele>
  <time>2026-09-01T01:13:54Z</time>
  <course>19.14</course>
  <speed>0.02</speed>
  <fix>3d</fix>
</trkpt>
<trkpt lat="33.8103574" lon="-118.3938674">
  <ele>-5.24</ele>
  <time>2026-09-01T01:13:54Z</time>
  <course>358.11</course>
  <speed>0.0316227766016838</speed>
  <fix>3d</fix>
</trkpt>
<trkpt lat="33.8103577" lon="-118.3938677">
  <ele>-4.96</ele>
  <time>2026-09-01T01:13:54Z</time>
  <course>19.14</course>
  <speed>0.02</speed>
  <fix>3d</fix>
</trkpt>
<trkpt lat="33.8103574" lon="-118.3938674">
  <ele>-5.286</ele>
  <time>2026-09-01T01:13:54Z</time>
  <course>358.11</course>
  <speed>0.0316227766016838</speed>
  <fix>3d</fix>
</trkpt>
<trkpt lat="33.8103578" lon="-118.3938677">
  <ele>-5.05</ele>
  <time>2026-09-01T01:13:54Z</time>
  <course>19.36</course>
  <speed>0.02</speed>
  <fix>3d</fix>
</trkpt>
<trkpt lat="33.8103574" lon="-118.3938674">
  <ele>-5.333</ele>
  <time>2026-09-01T01:13:54Z</time>
  <course>358.1</course>
  <speed>0.0316227766016838</speed>
  <fix>3d</fix>
</trkpt>
<trkpt lat="33.8103578" lon="-118.3938677">
  <ele>-5.05</ele>
  <time>2026-09-01T01:13:54Z</time>
  <course>19.36</course>
  <speed>0.02</speed>
  <fix>3d</fix>
</trkpt>
<trkpt lat="33.8103575" lon="-118.3938674">
  <ele>-5.38</ele>
  <time>2026-09-01T01:13:54Z</time>
  <course>358.1</course>
  <speed>0.0316227766016838</speed>
  <fix>3d</fix>
</trkpt>
<trkpt lat="33.8103578" lon="-118.3938677">
  <ele>-5.14</ele>
  <time>2026-09-01T01:13:54Z</time>
  <course>19.57</course>
  <speed>0.02</speed>
  <fix>3d</fix>
</trkpt>
<trkpt lat="33.8103575" lon="-118.3938674">
  <ele>-5.427</ele>
  <time>2026-09-01T01:13:54Z</time>
  <course>358.09</course>
  <speed>0.0316227766016838</speed>
  <fix>3d</fix>
</trkpt>
<trkpt lat="33.8103578" lon="-118.3938677">
  <ele>-5.14</ele>
  <time>2026-09-01T01:13:54Z</time>
  <course>19.57</course>
  <speed>0.02</speed>
  <fix>3d</fix>
</trkpt>
<trkpt lat="33.8103575" lon="-118.3938674">
  <ele>-5.474</ele>
  <time>2026-09-01T01:13:54Z</time>
  <course>358.08</course>
  <speed>0.0316227766016838</speed>
  <fix>3d</fix>
</trkpt>
<trkpt lat="33.8103578" lon="-118.3938677">
  <ele>-5.23</ele>
  <time>2026-09-01T01:13:54Z</time>
  <course>19.79</course>
  <speed>0.01</speed>
  <fix>3d</fix>
</trkpt>
<trkpt lat="33.8103575" lon="-118.3938674">
  <ele>-5.52</ele>
  <time>2026-09-01T01:13:54Z</time>
  <course>358.08</course>
  <speed>0.0316227766016838</speed>
  <fix>3d</fix>
</trkpt>
<trkpt lat="33.8103578" lon="-118.3938677">
  <ele>-5.23</ele>
  <time>2026-09-01T01:13:54Z</time>
  <course>19.79</course>
  <speed>0.01</speed>
  <fix>3d</fix>
</trkpt>
<trkpt lat="33.8103575" lon="-118.3938674">
  <ele>-5.567</ele>
  <time>2026-09-01T01:13:54Z</time>
  <course>358.07</course>
  <speed>0.0316227766016838</speed>
  <fix>3d</fix>
</trkpt>
<trkpt lat="33.8103579" lon="-118.3938676">
  <ele>-5.33</ele>
  <time>2026-09-01T01:13:54Z</time>
  <course>20.0</course>
  <speed>0.01</speed>
  <fix>3d</fix>
</trkpt>
<trkpt lat="33.8103576" lon="-118.3938674">
  <ele>-5.614</ele>
  <time>2026-09-01T01:13:54Z</time>
  <course>358.06</course>
  <speed>0.0316227766016838</speed>
  <fix>3d</fix>
</trkpt>
<trkpt lat="33.8103579" lon="-118.3938676">
  <ele>-5.33</ele>
  <time>2026-09-01T01:13:54Z</time>
  <course>20.0</course>
  <speed>0.01</speed>
  <fix>3d</fix>
</trkpt>
<trkpt lat="33.8103576" lon="-118.3938673">
  <ele>-5.662</ele>
  <time>2026-09-01T01:13:54Z</time>
  <course>358.06</course>
  <speed>0.03</speed>
  <fix>3d</fix>
</trkpt>
<trkpt lat="33.8103579" lon="-118.3938676">
  <ele>-5.42</ele>
  <time>2026-09-01T01:13:54Z</time>
  <course>20.2</course>
  <speed>0.01</speed>
  <fix>3d</fix>
</trkpt>
<trkpt lat="33.8103576" lon="-118.3938673">
  <ele>-5.709</ele>
  <time>2026-09-01T01:13:54Z</time>
  <course>358.05</course>
  <speed>0.03</speed>
  <fix>3d</fix>
</trkpt>
<trkpt lat="33.8103579" lon="-118.3938676">
  <ele>-5.42</ele>
  <time>2026-09-01T01:13:54Z</time>
  <course>20.2</course>
  <speed>0.01</speed>
  <fix>3d</fix>
</trkpt>
<trkpt lat="33.8103576" lon="-118.3938673">
  <ele>-5.756</ele>
  <time>2026-09-01T01:13:54Z</time>
  <course>358.05</course>
  <speed>0.03</speed>
  <fix>3d</fix>
</trkpt>
<trkpt lat="33.8103579" lon="-118.3938676">
  <ele>-5.51</ele>
  <time>2026-09-01T01:13:54Z</time>
  <course>20.41</course>
  <speed>0.01</speed>
  <fix>3d</fix>
</trkpt>
<trkpt lat="33.8103577" lon="-118.3938673">
  <ele>-5.803</ele>
  <time>2026-09-01T01:13:54Z</time>
  <course>358.04</course>
  <speed>0.03</speed>
  <fix>3d</fix>
</trkpt>
<trkpt lat="33.8103579" lon="-118.3938676">
  <ele>-5.51</ele>
  <time>2026-09-01T01:13:54Z</time>
  <course>20.41</course>
  <speed>0.01</speed>
  <fix>3d</fix>
</trkpt>
<trkpt lat="33.8103577" lon="-118.3938673">
  <ele>-5.85</ele>
  <time>2026-09-01T01:13:54Z</time>
  <course>358.04</course>
  <speed>0.03</speed>
  <fix>3d</fix>
</trkpt>
<trkpt lat="33.810358" lon="-118.3938676">
  <ele>-5.6</ele>
  <time>2026-09-01T01:13:54Z</time>
  <course>20.61</course>
  <speed>0.01</speed>
  <fix>3d</fix>
</trkpt>
<trkpt lat="33.8103577" lon="-118.3938673">
  <ele>-5.896</ele>
  <time>2026-09-01T01:13:54Z</time>
  <course>358.03</course>
  <speed>0.03</speed>
  <fix>3d</fix>
</trkpt>
<trkpt lat="33.810358" lon="-118.3938676">
  <ele>-5.6</ele>
  <time>2026-09-01T01:13:54Z</time>
  <course>20.61</course>
  <speed>0.01</speed>
  <fix>3d</fix>
</trkpt>
<trkpt lat="33.8103577" lon="-118.3938673">
  <ele>-5.943</ele>
  <time>2026-09-01T01:13:54Z</time>
  <course>358.02</course>
  <speed>0.03</speed>
  <fix>3d</fix>
</trkpt>
<trkpt lat="33.810358" lon="-118.3938676">
  <ele>-5.69</ele>
  <time>2026-09-01T01:13:54Z</time>
  <course>20.8</course>
  <speed>0.01</speed>
  <fix>3d</fix>
</trkpt>
<trkpt lat="33.8103577" lon="-118.3938673">
  <ele>-5.99</ele>
  <time>2026-09-01T01:13:54Z</time>
  <course>358.02</course>
  <speed>0.03</speed>
  <fix>3d</fix>
</trkpt>
<trkpt lat="33.810358" lon="-118.3938676">
  <ele>-5.69</ele>
  <time>2026-09-01T01:13:54Z</time>
  <course>20.8</course>
  <speed>0.01</speed>
  <fix>3d</fix>
</trkpt>
<trkpt lat="33.8103578" lon="-118.3938673">
  <ele>-6.037</ele>
  <time>2026-09-01T01:13:54Z</time>
  <course>358.01</course>
  <speed>0.02</speed>
  <fix>3d</fix>
</trkpt>
<trkpt lat="33.810358" lon="-118.3938676">
  <ele>-5.78</ele>
  <time>2026-09-01T01:13:54Z</time>
  <course>21.0</course>
  <speed>0.01</speed>
  <fix>3d</fix>
</trkpt>
<trkpt lat="33.8103578" lon="-118.3938673">
  <ele>-6.084</ele>
  <time>2026-09-01T01:13:54Z</time>
  <course>358.01</course>
  <speed>0.02</speed>
  <fix>3d</fix>
</trkpt>
<trkpt lat="33.810358" lon="-118.3938676">
  <ele>-5.78</ele>
  <time>2026-09-01T01:13:54Z</time>
  <course>21.0</course>
  <speed>0.01</speed>
  <fix>3d</fix>
</trkpt>
<trkpt lat="33.8103578" lon="-118.3938673">
  <ele>-6.13</ele>
  <time>2026-09-01T01:13:54Z</time>
  <course>358.0</course>
  <speed>0.02</speed>
  <fix>3d</fix>
</trkpt>
<trkpt lat="33.8103581" lon="-118.3938676">
  <ele>-5.87</ele>
  <time>2026-09-01T01:13:54Z</time>
  <course>21.19</course>
  <speed>0.01</speed>
  <fix>3d</fix>
</trkpt>
<trkpt lat="33.8103578" lon="-118.3938673">
  <ele>-6.177</ele>
  <time>2026-09-01T01:13:54Z</time>
  <course>358.0</course>
  <speed>0.02</speed>
  <fix>3d</fix>
</trkpt>
<trkpt lat="33.8103581" lon="-118.3938676">
  <ele>-5.87</ele>
  <time>2026-09-01T01:13:54Z</time>
  <course>21.19</course>
  <speed>0.01</speed>
  <fix>3d</fix>
</trkpt>
<trkpt lat="33.8103579" lon="-118.3938673">
  <ele>-6.224</ele>
  <time>2026-09-01T01:13:54Z</time>
  <course>357.99</course>
  <speed>0.02</speed>
  <fix>3d</fix>
</trkpt>
<trkpt lat="33.8103581" lon="-118.3938675">
  <ele>-5.96</ele>
  <time>2026-09-01T01:13:54Z</time>
  <course>21.38</course>
  <speed>0.01</speed>
  <fix>3d</fix>
</trkpt>
<trkpt lat="33.8103579" lon="-118.3938673">
  <ele>-6.271</ele>
  <time>2026-09-01T01:13:54Z</time>
  <course>357.99</course>
  <speed>0.02</speed>
  <fix>3d</fix>
</trkpt>
<trkpt lat="33.8103581" lon="-118.3938675">
  <ele>-5.96</ele>
  <time>2026-09-01T01:13:54Z</time>
  <course>21.38</course>
  <speed>0.01</speed>
  <fix>3d</fix>
</trkpt>
<trkpt lat="33.8103579" lon="-118.3938673">
  <ele>-6.317</ele>
  <time>2026-09-01T01:13:54Z</time>
  <course>357.99</course>
  <speed>0.02</speed>
  <fix>3d</fix>
</trkpt>
<trkpt lat="33.8103581" lon="-118.3938675">
  <ele>-6.06</ele>
  <time>2026-09-01T01:13:54Z</time>
  <course>21.57</course>
  <speed>0.01</speed>
  <fix>3d</fix>
</trkpt>
<trkpt lat="33.8103579" lon="-118.3938673">
  <ele>-6.364</ele>
  <time>2026-09-01T01:13:54Z</time>
  <course>357.98</course>
  <speed>0.02</speed>
  <fix>3d</fix>
</trkpt>
<trkpt lat="33.8103581" lon="-118.3938675">
  <ele>-6.06</ele>
  <time>2026-09-01T01:13:54Z</time>
  <course>21.57</course>
  <speed>0.01</speed>
  <fix>3d</fix>
</trkpt>
<trkpt lat="33.8103579" lon="-118.3938673">
  <ele>-6.411</ele>
  <time>2026-09-01T01:13:54Z</time>
  <course>357.98</course>
  <speed>0.02</speed>
  <fix>3d</fix>
</trkpt>
<trkpt lat="33.8103581" lon="-118.3938675">
  <ele>-6.15</ele>
  <time>2026-09-01T01:13:54Z</time>
  <course>21.75</course>
  <speed>0.01</speed>
  <fix>3d</fix>
</trkpt>
<trkpt lat="33.8103579" lon="-118.3938673">
  <ele>-6.458</ele>
  <time>2026-09-01T01:13:54Z</time>
  <course>357.98</course>
  <speed>0.02</speed>
  <fix>3d</fix>
</trkpt>
<trkpt lat="33.8103581" lon="-118.3938675">
  <ele>-6.15</ele>
  <time>2026-09-01T01:13:54Z</time>
  <course>21.75</course>
  <speed>0.01</speed>
  <fix>3d</fix>
</trkpt>
<trkpt lat="33.810358" lon="-118.3938673">
  <ele>-6.505</ele>
  <time>2026-09-01T01:13:54Z</time>
  <course>357.97</course>
  <speed>0.02</speed>
  <fix>3d</fix>
</trkpt>
<trkpt lat="33.8103581" lon="-118.3938675">
  <ele>-6.24</ele>
  <time>2026-09-01T01:13:54Z</time>
  <course>21.93</course>
  <speed>0.01</speed>
  <fix>3d</fix>
</trkpt>
<trkpt lat="33.810358" lon="-118.3938673">
  <ele>-6.552</ele>
  <time>2026-09-01T01:13:54Z</time>
  <course>357.97</course>
  <speed>0.02</speed>
  <fix>3d</fix>
</trkpt>
<trkpt lat="33.8103581" lon="-118.3938675">
  <ele>-6.24</ele>
  <time>2026-09-01T01:13:54Z</time>
  <course>21.93</course>
  <speed>0.01</speed>
  <fix>3d</fix>
</trkpt>
<trkpt lat="33.810358" lon="-118.3938673">
  <ele>-6.599</ele>
  <time>2026-09-01T01:13:55Z</time>
  <course>357.97</course>
  <speed>0.02</speed>
  <fix>3d</fix>
</trkpt>
<trkpt lat="33.8103581" lon="-118.3938675">
  <ele>-6.33</ele>
  <time>2026-09-01T01:13:55Z</time>
  <course>22.11</course>
  <speed>0.01</speed>
  <fix>3d</fix>
</trkpt>
<trkpt lat="33.810358" lon="-118.3938673">
  <ele>-6.645</ele>
  <time>2026-09-01T01:13:55Z</time>
  <course>357.96</course>
  <speed>0.02</speed>
  <fix>3d</fix>
</trkpt>
<trkpt lat="33.8103581" lon="-118.3938675">
  <ele>-6.33</ele>
  <time>2026-09-01T01:13:55Z</time>
  <course>22.11</course>
  <speed>0.01</speed>
  <fix>3d</fix>
</trkpt>
<trkpt lat="33.810358" lon="-118.3938673">
  <ele>-6.692</ele>
  <time>2026-09-01T01:13:55Z</time>
  <course>357.96</course>
  <speed>0.02</speed>
  <fix>3d</fix>
</trkpt>
<trkpt lat="33.8103582" lon="-118.3938675">
  <ele>-6.42</ele>
  <time>2026-09-01T01:13:55Z</time>
  <course>22.29</course>
  <speed>0.01</speed>
  <fix>3d</fix>
</trkpt>
<trkpt lat="33.810358" lon="-118.3938673">
  <ele>-6.739</ele>
  <time>2026-09-01T01:13:55Z</time>
  <course>357.96</course>
  <speed>0.02</speed>
  <fix>3d</fix>
</trkpt>
<trkpt lat="33.8103582" lon="-118.3938675">
  <ele>-6.42</ele>
  <time>2026-09-01T01:13:55Z</time>
  <course>22.29</course>
  <speed>0.01</speed>
  <fix>3d</fix>
</trkpt>
<trkpt lat="33.810358" lon="-118.3938673">
  <ele>-6.786</ele>
  <time>2026-09-01T01:13:55Z</time>
  <course>357.96</course>
  <speed>0.02</speed>
  <fix>3d</fix>
</trkpt>
<trkpt lat="33.8103583" lon="-118.3938675">
  <ele>-6.51</ele>
  <time>2026-09-01T01:13:55Z</time>
  <course>22.46</course>
  <speed>0.01</speed>
  <fix>3d</fix>
</trkpt>
<trkpt lat="33.8103581" lon="-118.3938673">
  <ele>-6.834</ele>
  <time>2026-09-01T01:13:55Z</time>
  <course>357.95</course>
  <speed>0.02</speed>
  <fix>3d</fix>
</trkpt>
<trkpt lat="33.8103583" lon="-118.3938675">
  <ele>-6.51</ele>
  <time>2026-09-01T01:13:55Z</time>
  <course>22.46</course>
  <speed>0.01</speed>
  <fix>3d</fix>
</trkpt>
<trkpt lat="33.8103581" lon="-118.3938673">
  <ele>-6.881</ele>
  <time>2026-09-01T01:13:55Z</time>
  <course>357.95</course>
  <speed>0.02</speed>
  <fix>3d</fix>
</trkpt>
<trkpt lat="33.8103583" lon="-118.3938674">
  <ele>-6.6</ele>
  <time>2026-09-01T01:13:55Z</time>
  <course>22.64</course>
  <speed>0.01</speed>
  <fix>3d</fix>
</trkpt>
<trkpt lat="33.8103581" lon="-118.3938673">
  <ele>-6.928</ele>
  <time>2026-09-01T01:13:55Z</time>
  <course>357.95</course>
  <speed>0.02</speed>
  <fix>3d</fix>
</trkpt>
<trkpt lat="33.8103583" lon="-118.3938674">
  <ele>-6.6</ele>
  <time>2026-09-01T01:13:55Z</time>
  <course>22.64</course>
  <speed>0.01</speed>
  <fix>3d</fix>
</trkpt>
<trkpt lat="33.8103581" lon="-118.3938673">
  <ele>-6.975</ele>
  <time>2026-09-01T01:13:55Z</time>
  <course>357.95</course>
  <speed>0.02</speed>
  <fix>3d</fix>
</trkpt>
<trkpt lat="33.8103583" lon="-118.3938674">
  <ele>-6.7</ele>
  <time>2026-09-01T01:13:55Z</time>
  <course>22.81</course>
  <speed>0.01</speed>
  <fix>3d</fix>
</trkpt>
<trkpt lat="33.8103581" lon="-118.3938673">
  <ele>-7.022</ele>
  <time>2026-09-01T01:13:55Z</time>
  <course>357.94</course>
  <speed>0.02</speed>
  <fix>3d</fix>
</trkpt>
<trkpt lat="33.8103583" lon="-118.3938674">
  <ele>-6.7</ele>
  <time>2026-09-01T01:13:55Z</time>
  <course>22.81</course>
  <speed>0.01</speed>
  <fix>3d</fix>
</trkpt>
<trkpt lat="33.8103581" lon="-118.3938673">
  <ele>-7.07</ele>
  <time>2026-09-01T01:13:55Z</time>
  <course>357.94</course>
  <speed>0.02</speed>
  <fix>3d</fix>
</trkpt>
<trkpt lat="33.8103583" lon="-118.3938674">
  <ele>-6.79</ele>
  <time>2026-09-01T01:13:55Z</time>
  <course>22.98</course>
  <speed>0.01</speed>
  <fix>3d</fix>
</trkpt>
<trkpt lat="33.8103581" lon="-118.3938673">
  <ele>-7.118</ele>
  <time>2026-09-01T01:13:55Z</time>
  <course>357.94</course>
  <speed>0.02</speed>
  <fix>3d</fix>
</trkpt>
<trkpt lat="33.8103583" lon="-118.3938674">
  <ele>-6.79</ele>
  <time>2026-09-01T01:13:55Z</time>
  <course>22.98</course>
  <speed>0.01</speed>
  <fix>3d</fix>
</trkpt>
<trkpt lat="33.8103582" lon="-118.3938673">
  <ele>-7.165</ele>
  <time>2026-09-01T01:13:55Z</time>
  <course>357.94</course>
  <speed>0.02</speed>
  <fix>3d</fix>
</trkpt>
<trkpt lat="33.8103584" lon="-118.3938674">
  <ele>-6.88</ele>
  <time>2026-09-01T01:13:55Z</time>
  <course>23.14</course>
  <speed>0.01</speed>
  <fix>3d</fix>
</trkpt>
<trkpt lat="33.8103582" lon="-118.3938672">
  <ele>-7.213</ele>
  <time>2026-09-01T01:13:55Z</time>
  <course>357.94</course>
  <speed>0.02</speed>
  <fix>3d</fix>
</trkpt>
<trkpt lat="33.8103584" lon="-118.3938674">
  <ele>-6.88</ele>
  <time>2026-09-01T01:13:55Z</time>
  <course>23.14</course>
  <speed>0.01</speed>
  <fix>3d</fix>
</trkpt>
<trkpt lat="33.8103582" lon="-118.3938672">
  <ele>-7.26</ele>
  <time>2026-09-01T01:13:55Z</time>
  <course>357.93</course>
  <speed>0.02</speed>
  <fix>3d</fix>
</trkpt>
<trkpt lat="33.8103584" lon="-118.3938674">
  <ele>-6.97</ele>
  <time>2026-09-01T01:13:55Z</time>
  <course>23.31</course>
  <speed>0.01</speed>
  <fix>3d</fix>
</trkpt>
<trkpt lat="33.8103582" lon="-118.3938672">
  <ele>-7.308</ele>
  <time>2026-09-01T01:13:55Z</time>
  <course>357.93</course>
  <speed>0.02</speed>
  <fix>3d</fix>
</trkpt>
<trkpt lat="33.8103584" lon="-118.3938674">
  <ele>-6.97</ele>
  <time>2026-09-01T01:13:55Z</time>
  <course>23.31</course>
  <speed>0.01</speed>
  <fix>3d</fix>
</trkpt>
<trkpt lat="33.8103582" lon="-118.3938672">
  <ele>-7.355</ele>
  <time>2026-09-01T01:13:55Z</time>
  <course>357.93</course>
  <speed>0.02</speed>
  <fix>3d</fix>
</trkpt>
<trkpt lat="33.8103584" lon="-118.3938674">
  <ele>-7.06</ele>
  <time>2026-09-01T01:13:55Z</time>
  <course>23.47</course>
  <speed>0.01</speed>
  <fix>3d</fix>
</trkpt>
<trkpt lat="33.8103582" lon="-118.3938672">
  <ele>-7.402</ele>
  <time>2026-09-01T01:13:55Z</time>
  <course>357.93</course>
  <speed>0.02</speed>
  <fix>3d</fix>
</trkpt>
<trkpt lat="33.8103584" lon="-118.3938674">
  <ele>-7.06</ele>
  <time>2026-09-01T01:13:55Z</time>
  <course>23.47</course>
  <speed>0.01</speed>
  <fix>3d</fix>
</trkpt>
<trkpt lat="33.8103582" lon="-118.3938672">
  <ele>-7.449</ele>
  <time>2026-09-01T01:13:55Z</time>
  <course>357.93</course>
  <speed>0.02</speed>
  <fix>3d</fix>
</trkpt>
<trkpt lat="33.8103584" lon="-118.3938674">
  <ele>-7.15</ele>
  <time>2026-09-01T01:13:55Z</time>
  <course>23.64</course>
  <speed>0.01</speed>
  <fix>3d</fix>
</trkpt>
<trkpt lat="33.8103582" lon="-118.3938672">
  <ele>-7.497</ele>
  <time>2026-09-01T01:13:55Z</time>
  <course>357.93</course>
  <speed>0.02</speed>
  <fix>3d</fix>
</trkpt>
<trkpt lat="33.8103584" lon="-118.3938674">
  <ele>-7.15</ele>
  <time>2026-09-01T01:13:55Z</time>
  <course>23.64</course>
  <speed>0.01</speed>
  <fix>3d</fix>
</trkpt>
<trkpt lat="33.8103583" lon="-118.3938672">
  <ele>-7.544</ele>
  <time>2026-09-01T01:13:55Z</time>
  <course>357.92</course>
  <speed>0.02</speed>
  <fix>3d</fix>
</trkpt>
<trkpt lat="33.8103585" lon="-118.3938674">
  <ele>-7.24</ele>
  <time>2026-09-01T01:13:55Z</time>
  <course>23.8</course>
  <speed>0.01</speed>
  <fix>3d</fix>
</trkpt>
<trkpt lat="33.8103583" lon="-118.3938672">
  <ele>-7.588</ele>
  <time>2026-09-01T01:13:55Z</time>
  <course>357.92</course>
  <speed>0.02</speed>
  <fix>3d</fix>
</trkpt>
<trkpt lat="33.8103585" lon="-118.3938674">
  <ele>-7.24</ele>
  <time>2026-09-01T01:13:55Z</time>
  <course>23.8</course>
  <speed>0.01</speed>
  <fix>3d</fix>
</trkpt>
<trkpt lat="33.8103583" lon="-118.3938672">
  <ele>-7.624</ele>
  <time>2026-09-01T01:13:55Z</time>
  <course>357.92</course>
  <speed>0.02</speed>
  <fix>3d</fix>
</trkpt>
<trkpt lat="33.8103585" lon="-118.3938673">
  <ele>-7.33</ele>
  <time>2026-09-01T01:13:55Z</time>
  <course>23.53</course>
  <speed>0.01</speed>
  <fix>3d</fix>
</trkpt>
<trkpt lat="33.8103583" lon="-118.3938672">
  <ele>-7.653</ele>
  <time>2026-09-01T01:13:55Z</time>
  <course>357.92</course>
  <speed>0.02</speed>
  <fix>3d</fix>
</trkpt>
<trkpt lat="33.8103585" lon="-118.3938673">
  <ele>-7.33</ele>
  <time>2026-09-01T01:13:55Z</time>
  <course>23.53</course>
  <speed>0.01</speed>
  <fix>3d</fix>
</trkpt>
<trkpt lat="33.8103583" lon="-118.3938672">
  <ele>-7.677</ele>
  <time>2026-09-01T01:13:55Z</time>
  <course>357.92</course>
  <speed>0.0316227766016838</speed>
  <fix>3d</fix>
</trkpt>
<trkpt lat="33.8103585" lon="-118.3938673">
  <ele>-7.41</ele>
  <time>2026-09-01T01:13:55Z</time>
  <course>22.9</course>
  <speed>0.01</speed>
  <fix>3d</fix>
</trkpt>
<trkpt lat="33.8103583" lon="-118.3938672">
  <ele>-7.697</ele>
  <time>2026-09-01T01:13:55Z</time>
  <course>357.92</course>
  <speed>0.0316227766016838</speed>
  <fix>3d</fix>
</trkpt>
<trkpt lat="33.8103585" lon="-118.3938673">
  <ele>-7.41</ele>
  <time>2026-09-01T01:13:55Z</time>
  <course>22.9</course>
  <speed>0.01</speed>
  <fix>3d</fix>
</trkpt>
<trkpt lat="33.8103583" lon="-118.3938671">
  <ele>-7.714</ele>
  <time>2026-09-01T01:13:55Z</time>
  <course>357.91</course>
  <speed>0.0316227766016838</speed>
  <fix>3d</fix>
</trkpt>
<trkpt lat="33.8103585" lon="-118.3938673">
  <ele>-7.46</ele>
  <time>2026-09-01T01:13:55Z</time>
  <course>22.75</course>
  <speed>0.01</speed>
  <fix>3d</fix>
</trkpt>
<trkpt lat="33.8103583" lon="-118.3938671">
  <ele>-7.73</ele>
  <time>2026-09-01T01:13:55Z</time>
  <course>357.91</course>
  <speed>0.0316227766016838</speed>
  <fix>3d</fix>
</trkpt>
<trkpt lat="33.8103585" lon="-118.3938673">
  <ele>-7.46</ele>
  <time>2026-09-01T01:13:55Z</time>
  <course>22.75</course>
  <speed>0.01</speed>
  <fix>3d</fix>
</trkpt>
<trkpt lat="33.8103583" lon="-118.3938671">
  <ele>-7.743</ele>
  <time>2026-09-01T01:13:55Z</time>
  <course>357.91</course>
  <speed>0.0316227766016838</speed>
  <fix>3d</fix>
</trkpt>
<trkpt lat="33.8103586" lon="-118.3938673">
  <ele>-7.5</ele>
  <time>2026-09-01T01:13:55Z</time>
  <course>23.08</course>
  <speed>0.01</speed>
  <fix>3d</fix>
</trkpt>
<trkpt lat="33.8103584" lon="-118.3938671">
  <ele>-7.755</ele>
  <time>2026-09-01T01:13:55Z</time>
  <course>357.91</course>
  <speed>0.0316227766016838</speed>
  <fix>3d</fix>
</trkpt>
<trkpt lat="33.8103586" lon="-118.3938673">
  <ele>-7.5</ele>
  <time>2026-09-01T01:13:55Z</time>
  <course>23.08</course>
  <speed>0.01</speed>
  <fix>3d</fix>
</trkpt>
<trkpt lat="33.8103584" lon="-118.3938671">
  <ele>-7.766</ele>
  <time>2026-09-01T01:13:55Z</time>
  <course>357.91</course>
  <speed>0.0316227766016838</speed>
  <fix>3d</fix>
</trkpt>
<trkpt lat="33.8103586" lon="-118.3938673">
  <ele>-7.52</ele>
  <time>2026-09-01T01:13:55Z</time>
  <course>23.39</course>
  <speed>0.01</speed>
  <fix>3d</fix>
</trkpt>
<trkpt lat="33.8103584" lon="-118.3938671">
  <ele>-7.775</ele>
  <time>2026-09-01T01:13:55Z</time>
  <course>357.91</course>
  <speed>0.0316227766016838</speed>
  <fix>3d</fix>
</trkpt>
<trkpt lat="33.8103586" lon="-118.3938673">
  <ele>-7.52</ele>
  <time>2026-09-01T01:13:55Z</time>
  <course>23.39</course>
  <speed>0.01</speed>
  <fix>3d</fix>
</trkpt>
<trkpt lat="33.8103584" lon="-118.3938671">
  <ele>-7.784</ele>
  <time>2026-09-01T01:13:55Z</time>
  <course>357.91</course>
  <speed>0.0316227766016838</speed>
  <fix>3d</fix>
</trkpt>
<trkpt lat="33.8103586" lon="-118.3938673">
  <ele>-7.55</ele>
  <time>2026-09-01T01:13:55Z</time>
  <course>23.53</course>
  <speed>0.01</speed>
  <fix>3d</fix>
</trkpt>
<trkpt lat="33.8103584" lon="-118.3938671">
  <ele>-7.791</ele>
  <time>2026-09-01T01:13:55Z</time>
  <course>357.9</course>
  <speed>0.0316227766016838</speed>
  <fix>3d</fix>
</trkpt>
<trkpt lat="33.8103586" lon="-118.3938673">
  <ele>-7.55</ele>
  <time>2026-09-01T01:13:55Z</time>
  <course>23.53</course>
  <speed>0.01</speed>
  <fix>3d</fix>
</trkpt>
<trkpt lat="33.8103584" lon="-118.3938671">
  <ele>-7.798</ele>
  <time>2026-09-01T01:13:55Z</time>
  <course>357.9</course>
  <speed>0.0316227766016838</speed>
  <fix>3d</fix>
</trkpt>
<trkpt lat="33.8103586" lon="-118.3938673">
  <ele>-7.58</ele>
  <time>2026-09-01T01:13:55Z</time>
  <course>23.54</course>
  <speed>0.01</speed>
  <fix>3d</fix>
</trkpt>
<trkpt lat="33.8103584" lon="-118.3938671">
  <ele>-7.805</ele>
  <time>2026-09-01T01:13:55Z</time>
  <course>357.9</course>
  <speed>0.0316227766016838</speed>
  <fix>3d</fix>
</trkpt>
<trkpt lat="33.8103586" lon="-118.3938673">
  <ele>-7.58</ele>
  <time>2026-09-01T01:13:55Z</time>
  <course>23.54</course>
  <speed>0.01</speed>
  <fix>3d</fix>
</trkpt>
<trkpt lat="33.8103584" lon="-118.393867">
  <ele>-7.811</ele>
  <time>2026-09-01T01:13:55Z</time>
  <course>357.9</course>
  <speed>0.0316227766016838</speed>
  <fix>3d</fix>
</trkpt>
<trkpt lat="33.8103587" lon="-118.3938673">
  <ele>-7.59</ele>
  <time>2026-09-01T01:13:55Z</time>
  <course>23.55</course>
  <speed>0.01</speed>
  <fix>3d</fix>
</trkpt>
<trkpt lat="33.8103584" lon="-118.393867">
  <ele>-7.817</ele>
  <time>2026-09-01T01:13:55Z</time>
  <course>357.9</course>
  <speed>0.0316227766016838</speed>
  <fix>3d</fix>
</trkpt>
<trkpt lat="33.8103587" lon="-118.3938673">
  <ele>-7.59</ele>
  <time>2026-09-01T01:13:55Z</time>
  <course>23.55</course>
  <speed>0.01</speed>
  <fix>3d</fix>
</trkpt>
<trkpt lat="33.8103584" lon="-118.393867">
  <ele>-7.823</ele>
  <time>2026-09-01T01:13:55Z</time>
  <course>357.9</course>
  <speed>0.0316227766016838</speed>
  <fix>3d</fix>
</trkpt>
<trkpt lat="33.8103587" lon="-118.3938672">
  <ele>-7.6</ele>
  <time>2026-09-01T01:13:55Z</time>
  <course>23.63</course>
  <speed>0.01</speed>
  <fix>3d</fix>
</trkpt>
<trkpt lat="33.8103585" lon="-118.393867">
  <ele>-7.829</ele>
  <time>2026-09-01T01:13:55Z</time>
  <course>357.9</course>
  <speed>0.0316227766016838</speed>
  <fix>3d</fix>
</trkpt>
<trkpt lat="33.8103587" lon="-118.3938672">
  <ele>-7.6</ele>
  <time>2026-09-01T01:13:55Z</time>
  <course>23.63</course>
  <speed>0.01</speed>
  <fix>3d</fix>
</trkpt>
<trkpt lat="33.8103585" lon="-118.393867">
  <ele>-7.835</ele>
  <time>2026-09-01T01:13:55Z</time>
  <course>357.9</course>
  <speed>0.0316227766016838</speed>
  <fix>3d</fix>
</trkpt>
<trkpt lat="33.8103587" lon="-118.3938672">
  <ele>-7.62</ele>
  <time>2026-09-01T01:13:55Z</time>
  <course>23.78</course>
  <speed>0.01</speed>
  <fix>3d</fix>
</trkpt>
<trkpt lat="33.8103585" lon="-118.393867">
  <ele>-7.84</ele>
  <time>2026-09-01T01:13:55Z</time>
  <course>357.89</course>
  <speed>0.0316227766016838</speed>
  <fix>3d</fix>
</trkpt>
<trkpt lat="33.8103587" lon="-118.3938672">
  <ele>-7.62</ele>
  <time>2026-09-01T01:13:55Z</time>
  <course>23.78</course>
  <speed>0.01</speed>
  <fix>3d</fix>
</trkpt>
<trkpt lat="33.8103585" lon="-118.393867">
  <ele>-7.846</ele>
  <time>2026-09-01T01:13:55Z</time>
  <course>357.89</course>
  <speed>0.0316227766016838</speed>
  <fix>3d</fix>
</trkpt>
<trkpt lat="33.8103587" lon="-118.3938672">
  <ele>-7.64</ele>
  <time>2026-09-01T01:13:55Z</time>
  <course>23.93</course>
  <speed>0.01</speed>
  <fix>3d</fix>
</trkpt>
<trkpt lat="33.8103585" lon="-118.393867">
  <ele>-7.852</ele>
  <time>2026-09-01T01:13:55Z</time>
  <course>357.89</course>
  <speed>0.0316227766016838</speed>
  <fix>3d</fix>
</trkpt>
<trkpt lat="33.8103587" lon="-118.3938672">
  <ele>-7.64</ele>
  <time>2026-09-01T01:13:55Z</time>
  <course>23.93</course>
  <speed>0.01</speed>
  <fix>3d</fix>
</trkpt>
<trkpt lat="33.8103585" lon="-118.393867">
  <ele>-7.857</ele>
  <time>2026-09-01T01:13:55Z</time>
  <course>357.89</course>
  <speed>0.0316227766016838</speed>
  <fix>3d</fix>
</trkpt>
<trkpt lat="33.8103587" lon="-118.3938672">
  <ele>-7.65</ele>
  <time>2026-09-01T01:13:55Z</time>
  <course>24.02</course>
  <speed>0.01</speed>
  <fix>3d</fix>
</trkpt>
<trkpt lat="33.8103585" lon="-118.393867">
  <ele>-7.862</ele>
  <time>2026-09-01T01:13:55Z</time>
  <course>357.89</course>
  <speed>0.0316227766016838</speed>
  <fix>3d</fix>
</trkpt>
<trkpt lat="33.8103587" lon="-118.3938672">
  <ele>-7.65</ele>
  <time>2026-09-01T01:13:55Z</time>
  <course>24.02</course>
  <speed>0.01</speed>
  <fix>3d</fix>
</trkpt>
<trkpt lat="33.8103585" lon="-118.393867">
  <ele>-7.867</ele>
  <time>2026-09-01T01:13:55Z</time>
  <course>357.89</course>
  <speed>0.0316227766016838</speed>
  <fix>3d</fix>
</trkpt>
<trkpt lat="33.8103587" lon="-118.3938672">
  <ele>-7.66</ele>
  <time>2026-09-01T01:13:55Z</time>
  <course>24.06</course>
  <speed>0.01</speed>
  <fix>3d</fix>
</trkpt>
<trkpt lat="33.8103585" lon="-118.3938669">
  <ele>-7.872</ele>
  <time>2026-09-01T01:13:55Z</time>
  <course>357.89</course>
  <speed>0.0316227766016838</speed>
  <fix>3d</fix>
</trkpt>
<trkpt lat="33.8103587" lon="-118.3938672">
  <ele>-7.66</ele>
  <time>2026-09-01T01:13:55Z</time>
  <course>24.06</course>
  <speed>0.01</speed>
  <fix>3d</fix>
</trkpt>
<trkpt lat="33.8103585" lon="-118.3938669">
  <ele>-7.877</ele>
  <time>2026-09-01T01:13:55Z</time>
  <course>357.89</course>
  <speed>0.0316227766016838</speed>
  <fix>3d</fix>
</trkpt>
<trkpt lat="33.8103587" lon="-118.3938672">
  <ele>-7.67</ele>
  <time>2026-09-01T01:13:55Z</time>
  <course>24.1</course>
  <speed>0.01</speed>
  <fix>3d</fix>
</trkpt>
<trkpt lat="33.8103585" lon="-118.3938669">
  <ele>-7.881</ele>
  <time>2026-09-01T01:13:55Z</time>
  <course>357.89</course>
  <speed>0.0316227766016838</speed>
  <fix>3d</fix>
</trkpt>
<trkpt lat="33.8103587" lon="-118.3938672">
  <ele>-7.67</ele>
  <time>2026-09-01T01:13:55Z</time>
  <course>24.1</course>
  <speed>0.01</speed>
  <fix>3d</fix>
</trkpt>
<trkpt lat="33.8103585" lon="-118.3938669">
  <ele>-7.885</ele>
  <time>2026-09-01T01:13:55Z</time>
  <course>357.89</course>
  <speed>0.0316227766016838</speed>
  <fix>3d</fix>
</trkpt>
<trkpt lat="33.8103587" lon="-118.3938672">
  <ele>-7.68</ele>
  <time>2026-09-01T01:13:55Z</time>
  <course>24.17</course>
  <speed>0.01</speed>
  <fix>3d</fix>
</trkpt>
<trkpt lat="33.8103585" lon="-118.3938669">
  <ele>-7.889</ele>
  <time>2026-09-01T01:13:55Z</time>
  <course>357.89</course>
  <speed>0.0316227766016838</speed>
  <fix>3d</fix>
</trkpt>
<trkpt lat="33.8103587" lon="-118.3938672">
  <ele>-7.68</ele>
  <time>2026-09-01T01:13:55Z</time>
  <course>24.17</course>
  <speed>0.01</speed>
  <fix>3d</fix>
</trkpt>
<trkpt lat="33.8103585" lon="-118.3938669">
  <ele>-7.894</ele>
  <time>2026-09-01T01:13:55Z</time>
  <course>357.89</course>
  <speed>0.0316227766016838</speed>
  <fix>3d</fix>
</trkpt>
<trkpt lat="33.8103587" lon="-118.3938672">
  <ele>-7.69</ele>
  <time>2026-09-01T01:13:55Z</time>
  <course>24.29</course>
  <speed>0.01</speed>
  <fix>3d</fix>
</trkpt>
<trkpt lat="33.8103585" lon="-118.3938669">
  <ele>-7.898</ele>
  <time>2026-09-01T01:13:55Z</time>
  <course>357.89</course>
  <speed>0.0316227766016838</speed>
  <fix>3d</fix>
</trkpt>
<trkpt lat="33.8103587" lon="-118.3938672">
  <ele>-7.69</ele>
  <time>2026-09-01T01:13:55Z</time>
  <course>24.29</course>
  <speed>0.01</speed>
  <fix>3d</fix>
</trkpt>
<trkpt lat="33.8103585" lon="-118.3938669">
  <ele>-7.902</ele>
  <time>2026-09-01T01:13:55Z</time>
  <course>357.89</course>
  <speed>0.0316227766016838</speed>
  <fix>3d</fix>
</trkpt>
<trkpt lat="33.8103588" lon="-118.3938672">
  <ele>-7.7</ele>
  <time>2026-09-01T01:13:55Z</time>
  <course>24.42</course>
  <speed>0.01</speed>
  <fix>3d</fix>
</trkpt>
<trkpt lat="33.8103585" lon="-118.3938669">
  <ele>-7.906</ele>
  <time>2026-09-01T01:13:55Z</time>
  <course>357.89</course>
  <speed>0.0316227766016838</speed>
  <fix>3d</fix>
</trkpt>
<trkpt lat="33.8103588" lon="-118.3938672">
  <ele>-7.7</ele>
  <time>2026-09-01T01:13:55Z</time>
  <course>24.42</course>
  <speed>0.01</speed>
  <fix>3d</fix>
</trkpt>
<trkpt lat="33.8103585" lon="-118.3938669">
  <ele>-7.91</ele>
  <time>2026-09-01T01:13:55Z</time>
  <course>357.89</course>
  <speed>0.0316227766016838</speed>
  <fix>3d</fix>
</trkpt>
<trkpt lat="33.8103589" lon="-118.3938671">
  <ele>-7.71</ele>
  <time>2026-09-01T01:13:55Z</time>
  <course>24.52</course>
  <speed>0.01</speed>
  <fix>3d</fix>
</trkpt>
<trkpt lat="33.8103585" lon="-118.3938669">
  <ele>-7.914</ele>
  <time>2026-09-01T01:13:55Z</time>
  <course>357.89</course>
  <speed>0.0316227766016838</speed>
  <fix>3d</fix>
</trkpt>
<trkpt lat="33.8103589" lon="-118.3938671">
  <ele>-7.71</ele>
  <time>2026-09-01T01:13:55Z</time>
  <course>24.52</course>
  <speed>0.01</speed>
  <fix>3d</fix>
</trkpt>
<trkpt lat="33.8103586" lon="-118.3938669">
  <ele>-7.917</ele>
  <time>2026-09-01T01:13:55Z</time>
  <course>357.88</course>
  <speed>0.0316227766016838</speed>
  <fix>3d</fix>
</trkpt>
<trkpt lat="33.8103589" lon="-118.3938671">
  <ele>-7.72</ele>
  <time>2026-09-01T01:13:55Z</time>
  <course>24.56</course>
  <speed>0.01</speed>
  <fix>3d</fix>
</trkpt>
<trkpt lat="33.8103586" lon="-118.3938669">
  <ele>-7.919</ele>
  <time>2026-09-01T01:13:55Z</time>
  <course>357.88</course>
  <speed>0.0316227766016838</speed>
  <fix>3d</fix>
</trkpt>
<trkpt lat="33.8103589" lon="-118.3938671">
  <ele>-7.72</ele>
  <time>2026-09-01T01:13:55Z</time>
  <course>24.56</course>
  <speed>0.01</speed>
  <fix>3d</fix>
</trkpt>
<trkpt lat="33.8103586" lon="-118.3938668">
  <ele>-7.92</ele>
  <time>2026-09-01T01:13:55Z</time>
  <course>357.88</course>
  <speed>0.0316227766016838</speed>
  <fix>3d</fix>
</trkpt>
<trkpt lat="33.8103589" lon="-118.3938671">
  <ele>-7.72</ele>
  <time>2026-09-01T01:13:55Z</time>
  <course>24.37</course>
  <speed>0.01</speed>
  <fix>3d</fix>
</trkpt>
<trkpt lat="33.8103586" lon="-118.3938668">
  <ele>-7.921</ele>
  <time>2026-09-01T01:13:55Z</time>
  <course>357.88</course>
  <speed>0.0316227766016838</speed>
  <fix>3d</fix>
</trkpt>
<trkpt lat="33.8103589" lon="-118.3938671">
  <ele>-7.72</ele>
  <time>2026-09-01T01:13:55Z</time>
  <course>24.37</course>
  <speed>0.01</speed>
  <fix>3d</fix>
</trkpt>
<trkpt lat="33.8103586" lon="-118.3938668">
  <ele>-7.92</ele>
  <time>2026-09-01T01:13:55Z</time>
  <course>357.88</course>
  <speed>0.0316227766016838</speed>
  <fix>3d</fix>
</trkpt>
<trkpt lat="33.8103589" lon="-118.3938671">
  <ele>-7.73</ele>
  <time>2026-09-01T01:13:55Z</time>
  <course>24.0</course>
  <speed>0.01</speed>
  <fix>3d</fix>
</trkpt>
<trkpt lat="33.8103586" lon="-118.3938668">
  <ele>-7.919</ele>
  <time>2026-09-01T01:13:55Z</time>
  <course>357.88</course>
  <speed>0.0316227766016838</speed>
  <fix>3d</fix>
</trkpt>
<trkpt lat="33.8103589" lon="-118.3938671">
  <ele>-7.73</ele>
  <time>2026-09-01T01:13:55Z</time>
  <course>24.0</course>
  <speed>0.01</speed>
  <fix>3d</fix>
</trkpt>
<trkpt lat="33.8103586" lon="-118.3938668">
  <ele>-7.919</ele>
  <time>2026-09-01T01:13:55Z</time>
  <course>357.88</course>
  <speed>0.0316227766016838</speed>
  <fix>3d</fix>
</trkpt>
<trkpt lat="33.8103589" lon="-118.3938671">
  <ele>-7.73</ele>
  <time>2026-09-01T01:13:55Z</time>
  <course>23.83</course>
  <speed>0.01</speed>
  <fix>3d</fix>
</trkpt>
<trkpt lat="33.8103586" lon="-118.3938668">
  <ele>-7.918</ele>
  <time>2026-09-01T01:13:55Z</time>
  <course>357.88</course>
  <speed>0.0316227766016838</speed>
  <fix>3d</fix>
</trkpt>
<trkpt lat="33.8103589" lon="-118.3938671">
  <ele>-7.73</ele>
  <time>2026-09-01T01:13:55Z</time>
  <course>23.83</course>
  <speed>0.01</speed>
  <fix>3d</fix>
</trkpt>
<trkpt lat="33.8103586" lon="-118.3938668">
  <ele>-7.917</ele>
  <time>2026-09-01T01:13:55Z</time>
  <course>357.88</course>
  <speed>0.0316227766016838</speed>
  <fix>3d</fix>
</trkpt>
<trkpt lat="33.810359" lon="-118.3938671">
  <ele>-7.72</ele>
  <time>2026-09-01T01:13:55Z</time>
  <course>23.96</course>
  <speed>0.01</speed>
  <fix>3d</fix>
</trkpt>
<trkpt lat="33.8103587" lon="-118.3938668">
  <ele>-7.915</ele>
  <time>2026-09-01T01:13:55Z</time>
  <course>357.88</course>
  <speed>0.0316227766016838</speed>
  <fix>3d</fix>
</trkpt>
<trkpt lat="33.810359" lon="-118.3938671">
  <ele>-7.72</ele>
  <time>2026-09-01T01:13:55Z</time>
  <course>23.96</course>
  <speed>0.01</speed>
  <fix>3d</fix>
</trkpt>
<trkpt lat="33.8103587" lon="-118.3938668">
  <ele>-7.914</ele>
  <time>2026-09-01T01:13:55Z</time>
  <course>357.88</course>
  <speed>0.0316227766016838</speed>
  <fix>3d</fix>
</trkpt>
<trkpt lat="33.810359" lon="-118.3938671">
  <ele>-7.72</ele>
  <time>2026-09-01T01:13:55Z</time>
  <course>24.18</course>
  <speed>0.01</speed>
  <fix>3d</fix>
</trkpt>
<trkpt lat="33.8103587" lon="-118.3938668">
  <ele>-7.912</ele>
  <time>2026-09-01T01:13:55Z</time>
  <course>357.88</course>
  <speed>0.0316227766016838</speed>
  <fix>3d</fix>
</trkpt>
<trkpt lat="33.810359" lon="-118.3938671">
  <ele>-7.72</ele>
  <time>2026-09-01T01:13:55Z</time>
  <course>24.18</course>
  <speed>0.01</speed>
  <fix>3d</fix>
</trkpt>
<trkpt lat="33.8103587" lon="-118.3938668">
  <ele>-7.911</ele>
  <time>2026-09-01T01:13:55Z</time>
  <course>357.88</course>
  <speed>0.0316227766016838</speed>
  <fix>3d</fix>
</trkpt>
<trkpt lat="33.810359" lon="-118.3938671">
  <ele>-7.72</ele>
  <time>2026-09-01T01:13:55Z</time>
  <course>24.35</course>
  <speed>0.01</speed>
  <fix>3d</fix>
</trkpt>
<trkpt lat="33.8103587" lon="-118.3938668">
  <ele>-7.91</ele>
  <time>2026-09-01T01:13:55Z</time>
  <course>357.88</course>
  <speed>0.0316227766016838</speed>
  <fix>3d</fix>
</trkpt>
<trkpt lat="33.810359" lon="-118.3938671">
  <ele>-7.72</ele>
  <time>2026-09-01T01:13:55Z</time>
  <course>24.35</course>
  <speed>0.01</speed>
  <fix>3d</fix>
</trkpt>
<trkpt lat="33.8103587" lon="-118.3938668">
  <ele>-7.91</ele>
  <time>2026-09-01T01:13:55Z</time>
  <course>357.88</course>
  <speed>0.0316227766016838</speed>
  <fix>3d</fix>
</trkpt>
<trkpt lat="33.810359" lon="-118.3938671">
  <ele>-7.72</ele>
  <time>2026-09-01T01:13:55Z</time>
  <course>24.3</course>
  <speed>0.01</speed>
  <fix>3d</fix>
</trkpt>
<trkpt lat="33.8103587" lon="-118.3938668">
  <ele>-7.911</ele>
  <time>2026-09-01T01:13:55Z</time>
  <course>357.88</course>
  <speed>0.0316227766016838</speed>
  <fix>3d</fix>
</trkpt>
<trkpt lat="33.810359" lon="-118.3938671">
  <ele>-7.72</ele>
  <time>2026-09-01T01:13:55Z</time>
  <course>24.3</course>
  <speed>0.01</speed>
  <fix>3d</fix>
</trkpt>
<trkpt lat="33.8103587" lon="-118.3938668">
  <ele>-7.912</ele>
  <time>2026-09-01T01:13:55Z</time>
  <course>357.88</course>
  <speed>0.0316227766016838</speed>
  <fix>3d</fix>
</trkpt>
<trkpt lat="33.810359" lon="-118.3938671">
  <ele>-7.72</ele>
  <time>2026-09-01T01:13:55Z</time>
  <course>24.19</course>
  <speed>0.01</speed>
  <fix>3d</fix>
</trkpt>
<trkpt lat="33.8103588" lon="-118.3938668">
  <ele>-7.913</ele>
  <time>2026-09-01T01:13:55Z</time>
  <course>357.88</course>
  <speed>0.0316227766016838</speed>
  <fix>3d</fix>
</trkpt>
<trkpt lat="33.810359" lon="-118.3938671">
  <ele>-7.72</ele>
  <time>2026-09-01T01:13:55Z</time>
  <course>24.19</course>
  <speed>0.01</speed>
  <fix>3d</fix>
</trkpt>
<trkpt lat="33.8103588" lon="-118.3938668">
  <ele>-7.914</ele>
  <time>2026-09-01T01:13:55Z</time>
  <course>357.88</course>
  <speed>0.0316227766016838</speed>
  <fix>3d</fix>
</trkpt>
<trkpt lat="33.8103591" lon="-118.393867">
  <ele>-7.72</ele>
  <time>2026-09-01T01:13:55Z</time>
  <course>24.23</course>
  <speed>0.01</speed>
  <fix>3d</fix>
</trkpt>
<trkpt lat="33.8103588" lon="-118.3938668">
  <ele>-7.915</ele>
  <time>2026-09-01T01:13:55Z</time>
  <course>357.88</course>
  <speed>0.0316227766016838</speed>
  <fix>3d</fix>
</trkpt>
<trkpt lat="33.8103591" lon="-118.393867">
  <ele>-7.72</ele>
  <time>2026-09-01T01:13:55Z</time>
  <course>24.23</course>
  <speed>0.01</speed>
  <fix>3d</fix>
</trkpt>
<trkpt lat="33.8103588" lon="-118.3938668">
  <ele>-7.915</ele>
  <time>2026-09-01T01:13:55Z</time>
  <course>357.88</course>
  <speed>0.0316227766016838</speed>
  <fix>3d</fix>
</trkpt>
<trkpt lat="33.8103591" lon="-118.393867">
  <ele>-7.72</ele>
  <time>2026-09-01T01:13:55Z</time>
  <course>24.42</course>
  <speed>0.01</speed>
  <fix>3d</fix>
</trkpt>
<trkpt lat="33.8103588" lon="-118.3938667">
  <ele>-7.916</ele>
  <time>2026-09-01T01:13:55Z</time>
  <course>357.88</course>
  <speed>0.0316227766016838</speed>
  <fix>3d</fix>
</trkpt>
<trkpt lat="33.8103591" lon="-118.393867">
  <ele>-7.72</ele>
  <time>2026-09-01T01:13:55Z</time>
  <course>24.42</course>
  <speed>0.01</speed>
  <fix>3d</fix>
</trkpt>
<trkpt lat="33.8103588" lon="-118.3938667">
  <ele>-7.916</ele>
  <time>2026-09-01T01:13:55Z</time>
  <course>357.88</course>
  <speed>0.0316227766016838</speed>
  <fix>3d</fix>
</trkpt>
<trkpt lat="33.8103591" lon="-118.393867">
  <ele>-7.72</ele>
  <time>2026-09-01T01:13:55Z</time>
  <course>24.7</course>
  <speed>0.01</speed>
  <fix>3d</fix>
</trkpt>
<trkpt lat="33.8103588" lon="-118.3938667">
  <ele>-7.917</ele>
  <time>2026-09-01T01:13:55Z</time>
  <course>357.87</course>
  <speed>0.0316227766016838</speed>
  <fix>3d</fix>
</trkpt>
<trkpt lat="33.8103591" lon="-118.393867">
  <ele>-7.72</ele>
  <time>2026-09-01T01:13:55Z</time>
  <course>24.7</course>
  <speed>0.01</speed>
  <fix>3d</fix>
</trkpt>
<trkpt lat="33.8103588" lon="-118.3938667">
  <ele>-7.917</ele>
  <time>2026-09-01T01:13:55Z</time>
  <course>357.87</course>
  <speed>0.0316227766016838</speed>
  <fix>3d</fix>
</trkpt>
<trkpt lat="33.8103591" lon="-118.393867">
  <ele>-7.72</ele>
  <time>2026-09-01T01:13:55Z</time>
  <course>24.91</course>
  <speed>0.01</speed>
  <fix>3d</fix>
</trkpt>
<trkpt lat="33.8103588" lon="-118.3938667">
  <ele>-7.918</ele>
  <time>2026-09-01T01:13:55Z</time>
  <course>357.87</course>
  <speed>0.0316227766016838</speed>
  <fix>3d</fix>
</trkpt>
<trkpt lat="33.8103591" lon="-118.393867">
  <ele>-7.72</ele>
  <time>2026-09-01T01:13:55Z</time>
  <course>24.91</course>
  <speed>0.01</speed>
  <fix>3d</fix>
</trkpt>
<trkpt lat="33.8103589" lon="-118.3938667">
  <ele>-7.918</ele>
  <time>2026-09-01T01:13:55Z</time>
  <course>357.87</course>
  <speed>0.0316227766016838</speed>
  <fix>3d</fix>
</trkpt>
<trkpt lat="33.8103591" lon="-118.393867">
  <ele>-7.72</ele>
  <time>2026-09-01T01:13:55Z</time>
  <course>24.95</course>
  <speed>0.01</speed>
  <fix>3d</fix>
</trkpt>
<trkpt lat="33.8103589" lon="-118.3938667">
  <ele>-7.918</ele>
  <time>2026-09-01T01:13:55Z</time>
  <course>357.87</course>
  <speed>0.0316227766016838</speed>
  <fix>3d</fix>
</trkpt>
<trkpt lat="33.8103591" lon="-118.393867">
  <ele>-7.72</ele>
  <time>2026-09-01T01:13:55Z</time>
  <course>24.95</course>
  <speed>0.01</speed>
  <fix>3d</fix>
</trkpt>
<trkpt lat="33.8103589" lon="-118.3938667">
  <ele>-7.918</ele>
  <time>2026-09-01T01:13:55Z</time>
  <course>357.87</course>
  <speed>0.0316227766016838</speed>
  <fix>3d</fix>
</trkpt>
<trkpt lat="33.8103592" lon="-118.393867">
  <ele>-7.72</ele>
  <time>2026-09-01T01:13:55Z</time>
  <course>24.85</course>
  <speed>0.01</speed>
  <fix>3d</fix>
</trkpt>
<trkpt lat="33.8103589" lon="-118.3938667">
  <ele>-7.918</ele>
  <time>2026-09-01T01:13:55Z</time>
  <course>357.87</course>
  <speed>0.0316227766016838</speed>
  <fix>3d</fix>
</trkpt>
<trkpt lat="33.8103592" lon="-118.393867">
  <ele>-7.72</ele>
  <time>2026-09-01T01:13:55Z</time>
  <course>24.85</course>
  <speed>0.01</speed>
  <fix>3d</fix>
</trkpt>
<trkpt lat="33.8103589" lon="-118.3938667">
  <ele>-7.918</ele>
  <time>2026-09-01T01:13:55Z</time>
  <course>357.87</course>
  <speed>0.0316227766016838</speed>
  <fix>3d</fix>
</trkpt>
<trkpt lat="33.8103592" lon="-118.393867">
  <ele>-7.72</ele>
  <time>2026-09-01T01:13:55Z</time>
  <course>24.77</course>
  <speed>0.01</speed>
  <fix>3d</fix>
</trkpt>
<trkpt lat="33.8103589" lon="-118.3938667">
  <ele>-7.919</ele>
  <time>2026-09-01T01:13:55Z</time>
  <course>357.87</course>
  <speed>0.0316227766016838</speed>
  <fix>3d</fix>
</trkpt>
<trkpt lat="33.8103592" lon="-118.393867">
  <ele>-7.72</ele>
  <time>2026-09-01T01:13:55Z</time>
  <course>24.77</course>
  <speed>0.01</speed>
  <fix>3d</fix>
</trkpt>
<trkpt lat="33.8103589" lon="-118.3938667">
  <ele>-7.92</ele>
  <time>2026-09-01T01:13:55Z</time>
  <course>357.87</course>
  <speed>0.0316227766016838</speed>
  <fix>3d</fix>
</trkpt>
<trkpt lat="33.8103592" lon="-118.393867">
  <ele>-7.73</ele>
  <time>2026-09-01T01:13:55Z</time>
  <course>24.81</course>
  <speed>0.01</speed>
  <fix>3d</fix>
</trkpt>
<trkpt lat="33.8103589" lon="-118.3938667">
  <ele>-7.92</ele>
  <time>2026-09-01T01:13:55Z</time>
  <course>357.87</course>
  <speed>0.0316227766016838</speed>
  <fix>3d</fix>
</trkpt>
<trkpt lat="33.8103592" lon="-118.393867">
  <ele>-7.73</ele>
  <time>2026-09-01T01:13:55Z</time>
  <course>24.81</course>
  <speed>0.01</speed>
  <fix>3d</fix>
</trkpt>
<trkpt lat="33.8103589" lon="-118.3938667">
  <ele>-7.921</ele>
  <time>2026-09-01T01:13:55Z</time>
  <course>357.87</course>
  <speed>0.0316227766016838</speed>
  <fix>3d</fix>
</trkpt>
<trkpt lat="33.8103592" lon="-118.393867">
  <ele>-7.73</ele>
  <time>2026-09-01T01:13:55Z</time>
  <course>24.92</course>
  <speed>0.01</speed>
  <fix>3d</fix>
</trkpt>
<trkpt lat="33.810359" lon="-118.3938667">
  <ele>-7.921</ele>
  <time>2026-09-01T01:13:55Z</time>
  <course>357.88</course>
  <speed>0.0316227766016838</speed>
  <fix>3d</fix>
</trkpt>
<trkpt lat="33.8103592" lon="-118.393867">
  <ele>-7.73</ele>
  <time>2026-09-01T01:13:55Z</time>
  <course>24.92</course>
  <speed>0.01</speed>
  <fix>3d</fix>
</trkpt>
<trkpt lat="33.810359" lon="-118.3938667">
  <ele>-7.921</ele>
  <time>2026-09-01T01:13:55Z</time>
  <course>357.91</course>
  <speed>0.0316227766016838</speed>
  <fix>3d</fix>
</trkpt>
<trkpt lat="33.8103592" lon="-118.393867">
  <ele>-7.73</ele>
  <time>2026-09-01T01:13:55Z</time>
  <course>24.38</course>
  <speed>0.01</speed>
  <fix>3d</fix>
</trkpt>
<trkpt lat="33.810359" lon="-118.3938667">
  <ele>-7.921</ele>
  <time>2026-09-01T01:13:55Z</time>
  <course>357.92</course>
  <speed>0.0316227766016838</speed>
  <fix>3d</fix>
</trkpt>
<trkpt lat="33.8103592" lon="-118.393867">
  <ele>-7.73</ele>
  <time>2026-09-01T01:13:55Z</time>
  <course>24.38</course>
  <speed>0.01</speed>
  <fix>3d</fix>
</trkpt>
<trkpt lat="33.810359" lon="-118.3938667">
  <ele>-7.92</ele>
  <time>2026-09-01T01:13:55Z</time>
  <course>357.93</course>
  <speed>0.0316227766016838</speed>
  <fix>3d</fix>
</trkpt>
<trkpt lat="33.8103592" lon="-118.3938669">
  <ele>-7.72</ele>
  <time>2026-09-01T01:13:55Z</time>
  <course>21.53</course>
  <speed>0.0</speed>
  <fix>3d</fix>
</trkpt>
<trkpt lat="33.810359" lon="-118.3938667">
  <ele>-7.919</ele>
  <time>2026-09-01T01:13:55Z</time>
  <course>357.93</course>
  <speed>0.03605551275463989</speed>
  <fix>3d</fix>
</trkpt>
<trkpt lat="33.8103592" lon="-118.3938669">
  <ele>-7.72</ele>
  <time>2026-09-01T01:13:55Z</time>
  <course>21.53</course>
  <speed>0.0</speed>
  <fix>3d</fix>
</trkpt>
<trkpt lat="33.810359" lon="-118.3938667">
  <ele>-7.918</ele>
  <time>2026-09-01T01:13:55Z</time>
  <course>357.94</course>
  <speed>0.03605551275463989</speed>
  <fix>3d</fix>
</trkpt>
<trkpt lat="33.8103593" lon="-118.3938669">
  <ele>-7.72</ele>
  <time>2026-09-01T01:13:55Z</time>
  <course>14.52</course>
  <speed>0.0</speed>
  <fix>3d</fix>
</trkpt>
<trkpt lat="33.810359" lon="-118.3938667">
  <ele>-7.917</ele>
  <time>2026-09-01T01:13:55Z</time>
  <course>357.93</course>
  <speed>0.0282842712474619</speed>
  <fix>3d</fix>
</trkpt>
<trkpt lat="33.8103593" lon="-118.3938669">
  <ele>-7.72</ele>
  <time>2026-09-01T01:13:55Z</time>
  <course>14.52</course>
  <speed>0.0</speed>
  <fix>3d</fix>
</trkpt>
<trkpt lat="33.810359" lon="-118.3938667">
  <ele>-7.915</ele>
  <time>2026-09-01T01:13:55Z</time>
  <course>357.93</course>
  <speed>0.0282842712474619</speed>
  <fix>3d</fix>
</trkpt>
<trkpt lat="33.8103593" lon="-118.3938669">
  <ele>-7.72</ele>
  <time>2026-09-01T01:13:55Z</time>
  <course>355.48</course>
  <speed>0.0</speed>
  <fix>3d</fix>
</trkpt>
<trkpt lat="33.810359" lon="-118.3938667">
  <ele>-7.914</ele>
  <time>2026-09-01T01:13:55Z</time>
  <course>357.93</course>
  <speed>0.0282842712474619</speed>
  <fix>3d</fix>
</trkpt>
<trkpt lat="33.8103593" lon="-118.3938669">
  <ele>-7.72</ele>
  <time>2026-09-01T01:13:55Z</time>
  <course>355.48</course>
  <speed>0.0</speed>
  <fix>3d</fix>
</trkpt>
<trkpt lat="33.810359" lon="-118.3938667">
  <ele>-7.913</ele>
  <time>2026-09-01T01:13:55Z</time>
  <course>357.93</course>
  <speed>0.0282842712474619</speed>
  <fix>3d</fix>
</trkpt>
<trkpt lat="33.8103593" lon="-118.3938669">
  <ele>-7.72</ele>
  <time>2026-09-01T01:13:55Z</time>
  <course>301.22</course>
  <speed>0.0</speed>
  <fix>3d</fix>
</trkpt>
<trkpt lat="33.810359" lon="-118.3938667">
  <ele>-7.912</ele>
  <time>2026-09-01T01:13:55Z</time>
  <course>357.93</course>
  <speed>0.0282842712474619</speed>
  <fix>3d</fix>
</trkpt>
<trkpt lat="33.8103593" lon="-118.3938669">
  <ele>-7.72</ele>
  <time>2026-09-01T01:13:55Z</time>
  <course>301.22</course>
  <speed>0.0</speed>
  <fix>3d</fix>
</trkpt>
<trkpt lat="33.810359" lon="-118.3938667">
  <ele>-7.912</ele>
  <time>2026-09-01T01:13:55Z</time>
  <course>357.93</course>
  <speed>0.0282842712474619</speed>
  <fix>3d</fix>
</trkpt>
<trkpt lat="33.8103593" lon="-118.3938669">
  <ele>-7.72</ele>
  <time>2026-09-01T01:13:55Z</time>
  <course>266.56</course>
  <speed>0.0</speed>
  <fix>3d</fix>
</trkpt>
<trkpt lat="33.810359" lon="-118.3938667">
  <ele>-7.912</ele>
  <time>2026-09-01T01:13:55Z</time>
  <course>357.94</course>
  <speed>0.0282842712474619</speed>
  <fix>3d</fix>
</trkpt>
<trkpt lat="33.8103593" lon="-118.3938669">
  <ele>-7.72</ele>
  <time>2026-09-01T01:13:55Z</time>
  <course>266.56</course>
  <speed>0.0</speed>
  <fix>3d</fix>
</trkpt>
<trkpt lat="33.810359" lon="-118.3938667">
  <ele>-7.913</ele>
  <time>2026-09-01T01:13:55Z</time>
  <course>357.93</course>
  <speed>0.0282842712474619</speed>
  <fix>3d</fix>
</trkpt>
<trkpt lat="33.8103593" lon="-118.3938669">
  <ele>-7.72</ele>
  <time>2026-09-01T01:13:55Z</time>
  <course>256.28</course>
  <speed>0.0</speed>
  <fix>3d</fix>
</trkpt>
<trkpt lat="33.810359" lon="-118.3938667">
  <ele>-7.913</ele>
  <time>2026-09-01T01:13:55Z</time>
  <course>357.93</course>
  <speed>0.0282842712474619</speed>
  <fix>3d</fix>
</trkpt>
<trkpt lat="33.8103593" lon="-118.3938669">
  <ele>-7.72</ele>
  <time>2026-09-01T01:13:55Z</time>
  <course>256.28</course>
  <speed>0.0</speed>
  <fix>3d</fix>
</trkpt>
<trkpt lat="33.810359" lon="-118.3938667">
  <ele>-7.914</ele>
  <time>2026-09-01T01:13:55Z</time>
  <course>357.93</course>
  <speed>0.0282842712474619</speed>
  <fix>3d</fix>
</trkpt>
<trkpt lat="33.8103593" lon="-118.3938669">
  <ele>-7.72</ele>
  <time>2026-09-01T01:13:55Z</time>
  <course>250.34</course>
  <speed>0.0</speed>
  <fix>3d</fix>
</trkpt>
<trkpt lat="33.810359" lon="-118.3938667">
  <ele>-7.915</ele>
  <time>2026-09-01T01:13:55Z</time>
  <course>357.93</course>
  <speed>0.0282842712474619</speed>
  <fix>3d</fix>
</trkpt>
<trkpt lat="33.8103593" lon="-118.3938669">
  <ele>-7.72</ele>
  <time>2026-09-01T01:13:55Z</time>
  <course>250.34</course>
  <speed>0.0</speed>
  <fix>3d</fix>
</trkpt>
<trkpt lat="33.810359" lon="-118.3938667">
  <ele>-7.916</ele>
  <time>2026-09-01T01:13:55Z</time>
  <course>357.94</course>
  <speed>0.0282842712474619</speed>
  <fix>3d</fix>
</trkpt>
<trkpt lat="33.8103593" lon="-118.3938669">
  <ele>-7.72</ele>
  <time>2026-09-01T01:13:55Z</time>
  <course>246.92</course>
  <speed>0.0</speed>
  <fix>3d</fix>
</trkpt>
<trkpt lat="33.810359" lon="-118.3938667">
  <ele>-7.916</ele>
  <time>2026-09-01T01:13:55Z</time>
  <course>357.93</course>
  <speed>0.0282842712474619</speed>
  <fix>3d</fix>
</trkpt>
<trkpt lat="33.8103593" lon="-118.3938669">
  <ele>-7.72</ele>
  <time>2026-09-01T01:13:55Z</time>
  <course>246.92</course>
  <speed>0.0</speed>
  <fix>3d</fix>
</trkpt>
<trkpt lat="33.810359" lon="-118.3938667">
  <ele>-7.917</ele>
  <time>2026-09-01T01:13:55Z</time>
  <course>357.93</course>
  <speed>0.0282842712474619</speed>
  <fix>3d</fix>
</trkpt>
<trkpt lat="33.8103593" lon="-118.3938669">
  <ele>-7.72</ele>
  <time>2026-09-01T01:13:55Z</time>
  <course>245.46</course>
  <speed>0.0</speed>
  <fix>3d</fix>
</trkpt>
<trkpt lat="33.810359" lon="-118.3938667">
  <ele>-7.917</ele>
  <time>2026-09-01T01:13:55Z</time>
  <course>357.93</course>
  <speed>0.0282842712474619</speed>
  <fix>3d</fix>
</trkpt>
<trkpt lat="33.8103593" lon="-118.3938669">
  <ele>-7.72</ele>
  <time>2026-09-01T01:13:55Z</time>
  <course>245.46</course>
  <speed>0.0</speed>
  <fix>3d</fix>
</trkpt>
<trkpt lat="33.810359" lon="-118.3938667">
  <ele>-7.918</ele>
  <time>2026-09-01T01:13:55Z</time>
  <course>357.93</course>
  <speed>0.0282842712474619</speed>
  <fix>3d</fix>
</trkpt>
<trkpt lat="33.8103593" lon="-118.3938669">
  <ele>-7.72</ele>
  <time>2026-09-01T01:13:55Z</time>
  <course>244.95</course>
  <speed>0.0</speed>
  <fix>3d</fix>
</trkpt>
<trkpt lat="33.810359" lon="-118.3938667">
  <ele>-7.918</ele>
  <time>2026-09-01T01:13:55Z</time>
  <course>357.93</course>
  <speed>0.0282842712474619</speed>
  <fix>3d</fix>
</trkpt>
<trkpt lat="33.8103593" lon="-118.3938669">
  <ele>-7.72</ele>
  <time>2026-09-01T01:13:55Z</time>
  <course>244.95</course>
  <speed>0.0</speed>
  <fix>3d</fix>
</trkpt>
<trkpt lat="33.810359" lon="-118.3938667">
  <ele>-7.918</ele>
  <time>2026-09-01T01:13:55Z</time>
  <course>357.93</course>
  <speed>0.0282842712474619</speed>
  <fix>3d</fix>
</trkpt>
<trkpt lat="33.8103593" lon="-118.3938669">
  <ele>-7.72</ele>
  <time>2026-09-01T01:13:55Z</time>
  <course>244.81</course>
  <speed>0.0</speed>
  <fix>3d</fix>
</trkpt>
<trkpt lat="33.810359" lon="-118.3938667">
  <ele>-7.918</ele>
  <time>2026-09-01T01:13:55Z</time>
  <course>357.92</course>
  <speed>0.0282842712474619</speed>
  <fix>3d</fix>
</trkpt>
<trkpt lat="33.8103593" lon="-118.3938669">
  <ele>-7.72</ele>
  <time>2026-09-01T01:13:55Z</time>
  <course>244.81</course>
  <speed>0.0</speed>
  <fix>3d</fix>
</trkpt>
<trkpt lat="33.810359" lon="-118.3938667">
  <ele>-7.918</ele>
  <time>2026-09-01T01:13:55Z</time>
  <course>357.92</course>
  <speed>0.0282842712474619</speed>
  <fix>3d</fix>
</trkpt>
<trkpt lat="33.8103593" lon="-118.3938669">
  <ele>-7.72</ele>
  <time>2026-09-01T01:13:55Z</time>
  <course>244.73</course>
  <speed>0.0</speed>
  <fix>3d</fix>
</trkpt>
<trkpt lat="33.810359" lon="-118.3938667">
  <ele>-7.919</ele>
  <time>2026-09-01T01:13:55Z</time>
  <course>357.92</course>
  <speed>0.0282842712474619</speed>
  <fix>3d</fix>
</trkpt>
<trkpt lat="33.8103593" lon="-118.3938669">
  <ele>-7.72</ele>
  <time>2026-09-01T01:13:55Z</time>
  <course>244.73</course>
  <speed>0.0</speed>
  <fix>3d</fix>
</trkpt>
<trkpt lat="33.810359" lon="-118.3938667">
  <ele>-7.92</ele>
  <time>2026-09-01T01:13:55Z</time>
  <course>357.92</course>
  <speed>0.0282842712474619</speed>
  <fix>3d</fix>
</trkpt>
<trkpt lat="33.8103593" lon="-118.393867">
  <ele>-7.73</ele>
  <time>2026-09-01T01:13:55Z</time>
  <course>244.7</course>
  <speed>0.0</speed>
  <fix>3d</fix>
</trkpt>
<trkpt lat="33.810359" lon="-118.3938667">
  <ele>-7.921</ele>
  <time>2026-09-01T01:13:55Z</time>
  <course>357.92</course>
  <speed>0.0282842712474619</speed>
  <fix>3d</fix>
</trkpt>
<trkpt lat="33.8103593" lon="-118.393867">
  <ele>-7.73</ele>
  <time>2026-09-01T01:13:55Z</time>
  <course>244.7</course>
  <speed>0.0</speed>
  <fix>3d</fix>
</trkpt>
<trkpt lat="33.810359" lon="-118.3938667">
  <ele>-7.922</ele>
  <time>2026-09-01T01:13:55Z</time>
  <course>357.92</course>
  <speed>0.0282842712474619</speed>
  <fix>3d</fix>
</trkpt>
<trkpt lat="33.8103593" lon="-118.393867">
  <ele>-7.73</ele>
  <time>2026-09-01T01:13:55Z</time>
  <course>244.63</course>
  <speed>0.0</speed>
  <fix>3d</fix>
</trkpt>
<trkpt lat="33.810359" lon="-118.3938667">
  <ele>-7.924</ele>
  <time>2026-09-01T01:13:55Z</time>
  <course>357.91</course>
  <speed>0.0282842712474619</speed>
  <fix>3d</fix>
</trkpt>
<trkpt lat="33.8103593" lon="-118.393867">
  <ele>-7.73</ele>
  <time>2026-09-01T01:13:55Z</time>
  <course>244.63</course>
  <speed>0.0</speed>
  <fix>3d</fix>
</trkpt>
<trkpt lat="33.810359" lon="-118.3938667">
  <ele>-7.925</ele>
  <time>2026-09-01T01:13:55Z</time>
  <course>357.91</course>
  <speed>0.0282842712474619</speed>
  <fix>3d</fix>
</trkpt>
<trkpt lat="33.8103593" lon="-118.393867">
  <ele>-7.73</ele>
  <time>2026-09-01T01:13:55Z</time>
  <course>244.51</course>
  <speed>0.0</speed>
  <fix>3d</fix>
</trkpt>
<trkpt lat="33.810359" lon="-118.3938667">
  <ele>-7.926</ele>
  <time>2026-09-01T01:13:55Z</time>
  <course>357.91</course>
  <speed>0.0282842712474619</speed>
  <fix>3d</fix>
</trkpt>
<trkpt lat="33.8103593" lon="-118.393867">
  <ele>-7.73</ele>
  <time>2026-09-01T01:13:55Z</time>
  <course>244.51</course>
  <speed>0.0</speed>
  <fix>3d</fix>
</trkpt>
<trkpt lat="33.810359" lon="-118.3938667">
  <ele>-7.926</ele>
  <time>2026-09-01T01:13:55Z</time>
  <course>357.91</course>
  <speed>0.0282842712474619</speed>
  <fix>3d</fix>
</trkpt>
<trkpt lat="33.8103593" lon="-118.393867">
  <ele>-7.73</ele>
  <time>2026-09-01T01:13:55Z</time>
  <course>244.34</course>
  <speed>0.0</speed>
  <fix>3d</fix>
</trkpt>
<trkpt lat="33.810359" lon="-118.3938667">
  <ele>-7.927</ele>
  <time>2026-09-01T01:13:55Z</time>
  <course>357.9</course>
  <speed>0.0282842712474619</speed>
  <fix>3d</fix>
</trkpt>
<trkpt lat="33.8103593" lon="-118.393867">
  <ele>-7.73</ele>
  <time>2026-09-01T01:13:55Z</time>
  <course>244.34</course>
  <speed>0.0</speed>
  <fix>3d</fix>
</trkpt>
<trkpt lat="33.810359" lon="-118.3938667">
  <ele>-7.928</ele>
  <time>2026-09-01T01:13:55Z</time>
  <course>357.9</course>
  <speed>0.0282842712474619</speed>
  <fix>3d</fix>
</trkpt>
<trkpt lat="33.8103593" lon="-118.393867">
  <ele>-7.73</ele>
  <time>2026-09-01T01:13:55Z</time>
  <course>244.18</course>
  <speed>0.0</speed>
  <fix>3d</fix>
</trkpt>
<trkpt lat="33.810359" lon="-118.3938667">
  <ele>-7.928</ele>
  <time>2026-09-01T01:13:55Z</time>
  <course>357.9</course>
  <speed>0.0282842712474619</speed>
  <fix>3d</fix>
</trkpt>
<trkpt lat="33.8103593" lon="-118.393867">
  <ele>-7.73</ele>
  <time>2026-09-01T01:13:55Z</time>
  <course>244.18</course>
  <speed>0.0</speed>
  <fix>3d</fix>
</trkpt>
<trkpt lat="33.810359" lon="-118.3938667">
  <ele>-7.929</ele>
  <time>2026-09-01T01:13:55Z</time>
  <course>357.89</course>
  <speed>0.0282842712474619</speed>
  <fix>3d</fix>
</trkpt>
<trkpt lat="33.8103593" lon="-118.393867">
  <ele>-7.73</ele>
  <time>2026-09-01T01:13:55Z</time>
  <course>244.07</course>
  <speed>0.0</speed>
  <fix>3d</fix>
</trkpt>
<trkpt lat="33.810359" lon="-118.3938667">
  <ele>-7.929</ele>
  <time>2026-09-01T01:13:55Z</time>
  <course>357.89</course>
  <speed>0.0282842712474619</speed>
  <fix>3d</fix>
</trkpt>
<trkpt lat="33.8103593" lon="-118.393867">
  <ele>-7.73</ele>
  <time>2026-09-01T01:13:55Z</time>
  <course>244.07</course>
  <speed>0.0</speed>
  <fix>3d</fix>
</trkpt>
<trkpt lat="33.810359" lon="-118.3938667">
  <ele>-7.929</ele>
  <time>2026-09-01T01:13:55Z</time>
  <course>357.89</course>
  <speed>0.0282842712474619</speed>
  <fix>3d</fix>
</trkpt>
<trkpt lat="33.8103593" lon="-118.393867">
  <ele>-7.73</ele>
  <time>2026-09-01T01:13:55Z</time>
  <course>244.01</course>
  <speed>0.0</speed>
  <fix>3d</fix>
</trkpt>
<trkpt lat="33.810359" lon="-118.3938667">
  <ele>-7.929</ele>
  <time>2026-09-01T01:13:55Z</time>
  <course>357.88</course>
  <speed>0.0282842712474619</speed>
  <fix>3d</fix>
</trkpt>
<trkpt lat="33.8103593" lon="-118.393867">
  <ele>-7.73</ele>
  <time>2026-09-01T01:13:55Z</time>
  <course>244.01</course>
  <speed>0.0</speed>
  <fix>3d</fix>
</trkpt>
<trkpt lat="33.810359" lon="-118.3938667">
  <ele>-7.929</ele>
  <time>2026-09-01T01:13:55Z</time>
  <course>357.88</course>
  <speed>0.0282842712474619</speed>
  <fix>3d</fix>
</trkpt>
<trkpt lat="33.8103593" lon="-118.3938671">
  <ele>-7.73</ele>
  <time>2026-09-01T01:13:55Z</time>
  <course>243.97</course>
  <speed>0.0</speed>
  <fix>3d</fix>
</trkpt>
<trkpt lat="33.810359" lon="-118.3938667">
  <ele>-7.929</ele>
  <time>2026-09-01T01:13:55Z</time>
  <course>357.88</course>
  <speed>0.0282842712474619</speed>
  <fix>3d</fix>
</trkpt>
<trkpt lat="33.8103593" lon="-118.3938671">
  <ele>-7.73</ele>
  <time>2026-09-01T01:13:55Z</time>
  <course>243.97</course>
  <speed>0.0</speed>
  <fix>3d</fix>
</trkpt>
<trkpt lat="33.810359" lon="-118.3938667">
  <ele>-7.929</ele>
  <time>2026-09-01T01:13:55Z</time>
  <course>357.88</course>
  <speed>0.0282842712474619</speed>
  <fix>3d</fix>
</trkpt>
<trkpt lat="33.8103593" lon="-118.3938671">
  <ele>-7.73</ele>
  <time>2026-09-01T01:13:55Z</time>
  <course>243.88</course>
  <speed>0.0</speed>
  <fix>3d</fix>
</trkpt>
<trkpt lat="33.810359" lon="-118.3938667">
  <ele>-7.93</ele>
  <time>2026-09-01T01:13:55Z</time>
  <course>357.87</course>
  <speed>0.0282842712474619</speed>
  <fix>3d</fix>
</trkpt>
<trkpt lat="33.8103593" lon="-118.3938671">
  <ele>-7.73</ele>
  <time>2026-09-01T01:13:55Z</time>
  <course>243.88</course>
  <speed>0.0</speed>
  <fix>3d</fix>
</trkpt>
<trkpt lat="33.810359" lon="-118.3938667">
  <ele>-7.931</ele>
  <time>2026-09-01T01:13:55Z</time>
  <course>357.87</course>
  <speed>0.0282842712474619</speed>
  <fix>3d</fix>
</trkpt>
<trkpt lat="33.8103593" lon="-118.3938671">
  <ele>-7.74</ele>
  <time>2026-09-01T01:13:55Z</time>
  <course>243.75</course>
  <speed>0.0</speed>
  <fix>3d</fix>
</trkpt>
<trkpt lat="33.810359" lon="-118.3938667">
  <ele>-7.932</ele>
  <time>2026-09-01T01:13:55Z</time>
  <course>357.86</course>
  <speed>0.0282842712474619</speed>
  <fix>3d</fix>
</trkpt>
<trkpt lat="33.8103593" lon="-118.3938671">
  <ele>-7.74</ele>
  <time>2026-09-01T01:13:55Z</time>
  <course>243.75</course>
  <speed>0.0</speed>
  <fix>3d</fix>
</trkpt>
<trkpt lat="33.810359" lon="-118.3938667">
  <ele>-7.933</ele>
  <time>2026-09-01T01:13:55Z</time>
  <course>357.86</course>
  <speed>0.0282842712474619</speed>
  <fix>3d</fix>
</trkpt>
<trkpt lat="33.8103593" lon="-118.3938671">
  <ele>-7.74</ele>
  <time>2026-09-01T01:13:55Z</time>
  <course>243.59</course>
  <speed>0.0</speed>
  <fix>3d</fix>
</trkpt>
<trkpt lat="33.810359" lon="-118.3938667">
  <ele>-7.934</ele>
  <time>2026-09-01T01:13:55Z</time>
  <course>357.86</course>
  <speed>0.0282842712474619</speed>
  <fix>3d</fix>
</trkpt>
<trkpt lat="33.8103593" lon="-118.3938671">
  <ele>-7.74</ele>
  <time>2026-09-01T01:13:55Z</time>
  <course>243.59</course>
  <speed>0.0</speed>
  <fix>3d</fix>
</trkpt>
<trkpt lat="33.810359" lon="-118.3938667">
  <ele>-7.935</ele>
  <time>2026-09-01T01:13:55Z</time>
  <course>357.85</course>
  <speed>0.0282842712474619</speed>
  <fix>3d</fix>
</trkpt>
<trkpt lat="33.8103593" lon="-118.3938671">
  <ele>-7.74</ele>
  <time>2026-09-01T01:13:55Z</time>
  <course>243.45</course>
  <speed>0.0</speed>
  <fix>3d</fix>
</trkpt>
<trkpt lat="33.810359" lon="-118.3938667">
  <ele>-7.936</ele>
  <time>2026-09-01T01:13:55Z</time>
  <course>357.85</course>
  <speed>0.0282842712474619</speed>
  <fix>3d</fix>
</trkpt>
<trkpt lat="33.8103593" lon="-118.3938671">
  <ele>-7.74</ele>
  <time>2026-09-01T01:13:55Z</time>
  <course>243.45</course>
  <speed>0.0</speed>
  <fix>3d</fix>
</trkpt>
<trkpt lat="33.810359" lon="-118.3938668">
  <ele>-7.936</ele>
  <time>2026-09-01T01:13:55Z</time>
  <course>357.85</course>
  <speed>0.0282842712474619</speed>
  <fix>3d</fix>
</trkpt>
<trkpt lat="33.8103593" lon="-118.3938671">
  <ele>-7.74</ele>
  <time>2026-09-01T01:13:55Z</time>
  <course>243.37</course>
  <speed>0.0</speed>
  <fix>3d</fix>
</trkpt>
<trkpt lat="33.810359" lon="-118.3938668">
  <ele>-7.936</ele>
  <time>2026-09-01T01:13:55Z</time>
  <course>357.84</course>
  <speed>0.0282842712474619</speed>
  <fix>3d</fix>
</trkpt>
<trkpt lat="33.8103593" lon="-118.3938671">
  <ele>-7.74</ele>
  <time>2026-09-01T01:13:55Z</time>
  <course>243.37</course>
  <speed>0.0</speed>
  <fix>3d</fix>
</trkpt>
<trkpt lat="33.810359" lon="-118.3938668">
  <ele>-7.936</ele>
  <time>2026-09-01T01:13:55Z</time>
  <course>357.84</course>
  <speed>0.0282842712474619</speed>
  <fix>3d</fix>
</trkpt>
<trkpt lat="33.8103593" lon="-118.3938671">
  <ele>-7.74</ele>
  <time>2026-09-01T01:13:55Z</time>
  <course>243.42</course>
  <speed>0.0</speed>
  <fix>3d</fix>
</trkpt>
<trkpt lat="33.810359" lon="-118.3938668">
  <ele>-7.936</ele>
  <time>2026-09-01T01:13:55Z</time>
  <course>357.83</course>
  <speed>0.0282842712474619</speed>
  <fix>3d</fix>
</trkpt>
<trkpt lat="33.8103593" lon="-118.3938671">
  <ele>-7.74</ele>
  <time>2026-09-01T01:13:55Z</time>
  <course>243.42</course>
  <speed>0.0</speed>
  <fix>3d</fix>
</trkpt>
<trkpt lat="33.810359" lon="-118.3938668">
  <ele>-7.935</ele>
  <time>2026-09-01T01:13:55Z</time>
  <course>357.83</course>
  <speed>0.0282842712474619</speed>
  <fix>3d</fix>
</trkpt>
<trkpt lat="33.8103593" lon="-118.3938671">
  <ele>-7.74</ele>
  <time>2026-09-01T01:13:55Z</time>
  <course>243.49</course>
  <speed>0.0</speed>
  <fix>3d</fix>
</trkpt>
<trkpt lat="33.810359" lon="-118.3938668">
  <ele>-7.935</ele>
  <time>2026-09-01T01:13:55Z</time>
  <course>357.82</course>
  <speed>0.0282842712474619</speed>
  <fix>3d</fix>
</trkpt>
<trkpt lat="33.8103593" lon="-118.3938671">
  <ele>-7.74</ele>
  <time>2026-09-01T01:13:55Z</time>
  <course>243.49</course>
  <speed>0.0</speed>
  <fix>3d</fix>
</trkpt>
<trkpt lat="33.810359" lon="-118.3938668">
  <ele>-7.934</ele>
  <time>2026-09-01T01:13:55Z</time>
  <course>357.82</course>
  <speed>0.0282842712474619</speed>
  <fix>3d</fix>
</trkpt>
<trkpt lat="33.8103593" lon="-118.3938672">
  <ele>-7.74</ele>
  <time>2026-09-01T01:13:55Z</time>
  <course>243.39</course>
  <speed>0.0</speed>
  <fix>3d</fix>
</trkpt>
<trkpt lat="33.810359" lon="-118.3938668">
  <ele>-7.934</ele>
  <time>2026-09-01T01:13:55Z</time>
  <course>357.82</course>
  <speed>0.0282842712474619</speed>
  <fix>3d</fix>
</trkpt>
<trkpt lat="33.8103593" lon="-118.3938672">
  <ele>-7.74</ele>
  <time>2026-09-01T01:13:55Z</time>
  <course>243.39</course>
  <speed>0.0</speed>
  <fix>3d</fix>
</trkpt>
<trkpt lat="33.810359" lon="-118.3938668">
  <ele>-7.934</ele>
  <time>2026-09-01T01:13:55Z</time>
  <course>357.81</course>
  <speed>0.0282842712474619</speed>
  <fix>3d</fix>
</trkpt>
<trkpt lat="33.8103592" lon="-118.3938672">
  <ele>-7.74</ele>
  <time>2026-09-01T01:13:55Z</time>
  <course>243.14</course>
  <speed>0.0</speed>
  <fix>3d</fix>
</trkpt>
<trkpt lat="33.810359" lon="-118.3938668">
  <ele>-7.933</ele>
  <time>2026-09-01T01:13:55Z</time>
  <course>357.81</course>
  <speed>0.0282842712474619</speed>
  <fix>3d</fix>
</trkpt>
<trkpt lat="33.8103592" lon="-118.3938672">
  <ele>-7.74</ele>
  <time>2026-09-01T01:13:55Z</time>
  <course>243.14</course>
  <speed>0.0</speed>
  <fix>3d</fix>
</trkpt>
<trkpt lat="33.810359" lon="-118.3938668">
  <ele>-7.933</ele>
  <time>2026-09-01T01:13:55Z</time>
  <course>357.8</course>
  <speed>0.0282842712474619</speed>
  <fix>3d</fix>
</trkpt>
<trkpt lat="33.8103592" lon="-118.3938672">
  <ele>-7.74</ele>
  <time>2026-09-01T01:13:55Z</time>
  <course>242.88</course>
  <speed>0.0</speed>
  <fix>3d</fix>
</trkpt>
<trkpt lat="33.810359" lon="-118.3938668">
  <ele>-7.933</ele>
  <time>2026-09-01T01:13:55Z</time>
  <course>357.8</course>
  <speed>0.0282842712474619</speed>
  <fix>3d</fix>
</trkpt>
<trkpt lat="33.8103592" lon="-118.3938672">
  <ele>-7.74</ele>
  <time>2026-09-01T01:13:55Z</time>
  <course>242.88</course>
  <speed>0.0</speed>
  <fix>3d</fix>
</trkpt>
<trkpt lat="33.810359" lon="-118.3938668">
  <ele>-7.932</ele>
  <time>2026-09-01T01:13:55Z</time>
  <course>357.79</course>
  <speed>0.0282842712474619</speed>
  <fix>3d</fix>
</trkpt>
<trkpt lat="33.8103592" lon="-118.3938672">
  <ele>-7.73</ele>
  <time>2026-09-01T01:13:55Z</time>
  <course>242.75</course>
  <speed>0.0</speed>
  <fix>3d</fix>
</trkpt>
<trkpt lat="33.810359" lon="-118.3938668">
  <ele>-7.931</ele>
  <time>2026-09-01T01:13:55Z</time>
  <course>357.79</course>
  <speed>0.0282842712474619</speed>
  <fix>3d</fix>
</trkpt>
<trkpt lat="33.8103592" lon="-118.3938672">
  <ele>-7.73</ele>
  <time>2026-09-01T01:13:55Z</time>
  <course>242.75</course>
  <speed>0.0</speed>
  <fix>3d</fix>
</trkpt>
<trkpt lat="33.810359" lon="-118.3938668">
  <ele>-7.93</ele>
  <time>2026-09-01T01:13:55Z</time>
  <course>357.78</course>
  <speed>0.0282842712474619</speed>
  <fix>3d</fix>
</trkpt>
<trkpt lat="33.8103592" lon="-118.3938672">
  <ele>-7.73</ele>
  <time>2026-09-01T01:13:55Z</time>
  <course>242.75</course>
  <speed>0.0</speed>
  <fix>3d</fix>
</trkpt>
<trkpt lat="33.810359" lon="-118.3938669">
  <ele>-7.929</ele>
  <time>2026-09-01T01:13:55Z</time>
  <course>357.78</course>
  <speed>0.0282842712474619</speed>
  <fix>3d</fix>
</trkpt>
<trkpt lat="33.8103592" lon="-118.3938672">
  <ele>-7.73</ele>
  <time>2026-09-01T01:13:55Z</time>
  <course>242.75</course>
  <speed>0.0</speed>
  <fix>3d</fix>
</trkpt>
<trkpt lat="33.810359" lon="-118.3938669">
  <ele>-7.928</ele>
  <time>2026-09-01T01:13:55Z</time>
  <course>357.78</course>
  <speed>0.0282842712474619</speed>
  <fix>3d</fix>
</trkpt>
<trkpt lat="33.8103592" lon="-118.3938672">
  <ele>-7.73</ele>
  <time>2026-09-01T01:13:55Z</time>
  <course>242.79</course>
  <speed>0.0</speed>
  <fix>3d</fix>
</trkpt>
<trkpt lat="33.810359" lon="-118.3938669">
  <ele>-7.927</ele>
  <time>2026-09-01T01:13:55Z</time>
  <course>357.77</course>
  <speed>0.0282842712474619</speed>
  <fix>3d</fix>
</trkpt>
<trkpt lat="33.8103592" lon="-118.3938672">
  <ele>-7.73</ele>
  <time>2026-09-01T01:13:55Z</time>
  <course>242.79</course>
  <speed>0.0</speed>
  <fix>3d</fix>
</trkpt>
<trkpt lat="33.810359" lon="-118.3938669">
  <ele>-7.926</ele>
  <time>2026-09-01T01:13:55Z</time>
  <course>357.77</course>
  <speed>0.0282842712474619</speed>
  <fix>3d</fix>
</trkpt>
<trkpt lat="33.8103592" lon="-118.3938672">
  <ele>-7.73</ele>
  <time>2026-09-01T01:13:55Z</time>
  <course>242.73</course>
  <speed>0.0</speed>
  <fix>3d</fix>
</trkpt>
<trkpt lat="33.810359" lon="-118.3938669">
  <ele>-7.926</ele>
  <time>2026-09-01T01:13:55Z</time>
  <course>357.76</course>
  <speed>0.0282842712474619</speed>
  <fix>3d</fix>
</trkpt>
<trkpt lat="33.8103592" lon="-118.3938672">
  <ele>-7.73</ele>
  <time>2026-09-01T01:13:55Z</time>
  <course>242.73</course>
  <speed>0.0</speed>
  <fix>3d</fix>
</trkpt>
<trkpt lat="33.810359" lon="-118.3938669">
  <ele>-7.927</ele>
  <time>2026-09-01T01:13:55Z</time>
  <course>357.76</course>
  <speed>0.0282842712474619</speed>
  <fix>3d</fix>
</trkpt>
<trkpt lat="33.8103592" lon="-118.3938672">
  <ele>-7.73</ele>
  <time>2026-09-01T01:13:55Z</time>
  <course>242.47</course>
  <speed>0.0</speed>
  <fix>3d</fix>
</trkpt>
<trkpt lat="33.810359" lon="-118.3938669">
  <ele>-7.928</ele>
  <time>2026-09-01T01:13:55Z</time>
  <course>357.75</course>
  <speed>0.0282842712474619</speed>
  <fix>3d</fix>
</trkpt>
<trkpt lat="33.8103592" lon="-118.3938672">
  <ele>-7.73</ele>
  <time>2026-09-01T01:13:55Z</time>
  <course>242.47</course>
  <speed>0.0</speed>
  <fix>3d</fix>
</trkpt>
<trkpt lat="33.810359" lon="-118.3938669">
  <ele>-7.929</ele>
  <time>2026-09-01T01:13:55Z</time>
  <course>357.75</course>
  <speed>0.0282842712474619</speed>
  <fix>3d</fix>
</trkpt>
<trkpt lat="33.8103592" lon="-118.3938673">
  <ele>-7.73</ele>
  <time>2026-09-01T01:13:55Z</time>
  <course>242.23</course>
  <speed>0.0</speed>
  <fix>3d</fix>
</trkpt>
<trkpt lat="33.810359" lon="-118.3938669">
  <ele>-7.931</ele>
  <time>2026-09-01T01:13:55Z</time>
  <course>357.74</course>
  <speed>0.0282842712474619</speed>
  <fix>3d</fix>
</trkpt>
<trkpt lat="33.8103592" lon="-118.3938673">
  <ele>-7.73</ele>
  <time>2026-09-01T01:13:55Z</time>
  <course>242.23</course>
  <speed>0.0</speed>
  <fix>3d</fix>
</trkpt>
<trkpt lat="33.810359" lon="-118.3938669">
  <ele>-7.932</ele>
  <time>2026-09-01T01:13:55Z</time>
  <course>357.74</course>
  <speed>0.0282842712474619</speed>
  <fix>3d</fix>
</trkpt>
<trkpt lat="33.8103592" lon="-118.3938673">
  <ele>-7.74</ele>
  <time>2026-09-01T01:13:55Z</time>
  <course>242.07</course>
  <speed>0.0</speed>
  <fix>3d</fix>
</trkpt>
<trkpt lat="33.810359" lon="-118.3938669">
  <ele>-7.934</ele>
  <time>2026-09-01T01:13:55Z</time>
  <course>357.73</course>
  <speed>0.0282842712474619</speed>
  <fix>3d</fix>
</trkpt>
<trkpt lat="33.8103592" lon="-118.3938673">
  <ele>-7.74</ele>
  <time>2026-09-01T01:13:55Z</time>
  <course>242.07</course>
  <speed>0.0</speed>
  <fix>3d</fix>
</trkpt>
<trkpt lat="33.810359" lon="-118.3938669">
  <ele>-7.936</ele>
  <time>2026-09-01T01:13:55Z</time>
  <course>357.73</course>
  <speed>0.0282842712474619</speed>
  <fix>3d</fix>
</trkpt>
<trkpt lat="33.8103592" lon="-118.3938673">
  <ele>-7.74</ele>
  <time>2026-09-01T01:13:55Z</time>
  <course>241.84</course>
  <speed>0.0</speed>
  <fix>3d</fix>
</trkpt>
<trkpt lat="33.810359" lon="-118.3938669">
  <ele>-7.937</ele>
  <time>2026-09-01T01:13:55Z</time>
  <course>357.72</course>
  <speed>0.0282842712474619</speed>
  <fix>3d</fix>
</trkpt>
<trkpt lat="33.8103592" lon="-118.3938673">
  <ele>-7.74</ele>
  <time>2026-09-01T01:13:55Z</time>
  <course>241.84</course>
  <speed>0.0</speed>
  <fix>3d</fix>
</trkpt>
<trkpt lat="33.810359" lon="-118.3938669">
  <ele>-7.938</ele>
  <time>2026-09-01T01:13:55Z</time>
  <course>357.72</course>
  <speed>0.0282842712474619</speed>
  <fix>3d</fix>
</trkpt>
<trkpt lat="33.8103592" lon="-118.3938673">
  <ele>-7.74</ele>
  <time>2026-09-01T01:13:55Z</time>
  <course>241.63</course>
  <speed>0.0</speed>
  <fix>3d</fix>
</trkpt>
<trkpt lat="33.810359" lon="-118.3938669">
  <ele>-7.938</ele>
  <time>2026-09-01T01:13:55Z</time>
  <course>357.71</course>
  <speed>0.0282842712474619</speed>
  <fix>3d</fix>
</trkpt>
<trkpt lat="33.8103592" lon="-118.3938673">
  <ele>-7.74</ele>
  <time>2026-09-01T01:13:55Z</time>
  <course>241.63</course>
  <speed>0.0</speed>
  <fix>3d</fix>
</trkpt>
<trkpt lat="33.810359" lon="-118.393867">
  <ele>-7.939</ele>
  <time>2026-09-01T01:13:55Z</time>
  <course>357.71</course>
  <speed>0.0282842712474619</speed>
  <fix>3d</fix>
</trkpt>
<trkpt lat="33.8103592" lon="-118.3938673">
  <ele>-7.74</ele>
  <time>2026-09-01T01:13:55Z</time>
  <course>241.62</course>
  <speed>0.0</speed>
  <fix>3d</fix>
</trkpt>
<trkpt lat="33.810359" lon="-118.393867">
  <ele>-7.939</ele>
  <time>2026-09-01T01:13:55Z</time>
  <course>357.7</course>
  <speed>0.0282842712474619</speed>
  <fix>3d</fix>
</trkpt>
<trkpt lat="33.8103592" lon="-118.3938673">
  <ele>-7.74</ele>
  <time>2026-09-01T01:13:55Z</time>
  <course>241.62</course>
  <speed>0.0</speed>
  <fix>3d</fix>
</trkpt>
<trkpt lat="33.810359" lon="-118.393867">
  <ele>-7.939</ele>
  <time>2026-09-01T01:13:55Z</time>
  <course>357.7</course>
  <speed>0.0282842712474619</speed>
  <fix>3d</fix>
</trkpt>
<trkpt lat="33.8103592" lon="-118.3938673">
  <ele>-7.75</ele>
  <time>2026-09-01T01:13:55Z</time>
  <course>241.78</course>
  <speed>0.0</speed>
  <fix>3d</fix>
</trkpt>
<trkpt lat="33.810359" lon="-118.393867">
  <ele>-7.94</ele>
  <time>2026-09-01T01:13:55Z</time>
  <course>357.69</course>
  <speed>0.0282842712474619</speed>
  <fix>3d</fix>
</trkpt>
<trkpt lat="33.8103592" lon="-118.3938673">
  <ele>-7.75</ele>
  <time>2026-09-01T01:13:55Z</time>
  <course>241.78</course>
  <speed>0.0</speed>
  <fix>3d</fix>
</trkpt>
<trkpt lat="33.810359" lon="-118.393867">
  <ele>-7.94</ele>
  <time>2026-09-01T01:13:55Z</time>
  <course>357.69</course>
  <speed>0.0282842712474619</speed>
  <fix>3d</fix>
</trkpt>
<trkpt lat="33.8103592" lon="-118.3938673">
  <ele>-7.74</ele>
  <time>2026-09-01T01:13:55Z</time>
  <course>241.9</course>
  <speed>0.0</speed>
  <fix>3d</fix>
</trkpt>
<trkpt lat="33.810359" lon="-118.393867">
  <ele>-7.939</ele>
  <time>2026-09-01T01:13:55Z</time>
  <course>357.69</course>
  <speed>0.0282842712474619</speed>
  <fix>3d</fix>
</trkpt>
<trkpt lat="33.8103592" lon="-118.3938673">
  <ele>-7.74</ele>
  <time>2026-09-01T01:13:55Z</time>
  <course>241.9</course>
  <speed>0.0</speed>
  <fix>3d</fix>
</trkpt>
<trkpt lat="33.810359" lon="-118.393867">
  <ele>-7.938</ele>
  <time>2026-09-01T01:13:55Z</time>
  <course>357.68</course>
  <speed>0.0282842712474619</speed>
  <fix>3d</fix>
</trkpt>
<trkpt lat="33.8103592" lon="-118.3938673">
  <ele>-7.74</ele>
  <time>2026-09-01T01:13:55Z</time>
  <course>241.9</course>
  <speed>0.0</speed>
  <fix>3d</fix>
</trkpt>
<trkpt lat="33.810359" lon="-118.393867">
  <ele>-7.937</ele>
  <time>2026-09-01T01:13:55Z</time>
  <course>357.68</course>
  <speed>0.0282842712474619</speed>
  <fix>3d</fix>
</trkpt>
<trkpt lat="33.8103592" lon="-118.3938673">
  <ele>-7.74</ele>
  <time>2026-09-01T01:13:55Z</time>
  <course>241.9</course>
  <speed>0.0</speed>
  <fix>3d</fix>
</trkpt>
<trkpt lat="33.810359" lon="-118.393867">
  <ele>-7.936</ele>
  <time>2026-09-01T01:13:55Z</time>
  <course>357.67</course>
  <speed>0.0282842712474619</speed>
  <fix>3d</fix>
</trkpt>
<trkpt lat="33.8103592" lon="-118.3938674">
  <ele>-7.74</ele>
  <time>2026-09-01T01:13:55Z</time>
  <course>241.71</course>
  <speed>0.0</speed>
  <fix>3d</fix>
</trkpt>
<trkpt lat="33.810359" lon="-118.393867">
  <ele>-7.935</ele>
  <time>2026-09-01T01:13:55Z</time>
  <course>357.67</course>
  <speed>0.0282842712474619</speed>
  <fix>3d</fix>
</trkpt>
<trkpt lat="33.8103592" lon="-118.3938674">
  <ele>-7.74</ele>
  <time>2026-09-01T01:13:55Z</time>
  <course>241.71</course>
  <speed>0.0</speed>
  <fix>3d</fix>
</trkpt>
<trkpt lat="33.810359" lon="-118.393867">
  <ele>-7.934</ele>
  <time>2026-09-01T01:13:55Z</time>
  <course>357.66</course>
  <speed>0.0282842712474619</speed>
  <fix>3d</fix>
</trkpt>
<trkpt lat="33.8103592" lon="-118.3938674">
  <ele>-7.74</ele>
  <time>2026-09-01T01:13:55Z</time>
  <course>241.39</course>
  <speed>0.0</speed>
  <fix>3d</fix>
</trkpt>
<trkpt lat="33.810359" lon="-118.393867">
  <ele>-7.933</ele>
  <time>2026-09-01T01:13:55Z</time>
  <course>357.66</course>
  <speed>0.0282842712474619</speed>
  <fix>3d</fix>
</trkpt>
<trkpt lat="33.8103592" lon="-118.3938674">
  <ele>-7.74</ele>
  <time>2026-09-01T01:13:55Z</time>
  <course>241.39</course>
  <speed>0.0</speed>
  <fix>3d</fix>
</trkpt>
<trkpt lat="33.810359" lon="-118.393867">
  <ele>-7.932</ele>
  <time>2026-09-01T01:13:55Z</time>
  <course>357.65</course>
  <speed>0.0282842712474619</speed>
  <fix>3d</fix>
</trkpt>
<trkpt lat="33.8103592" lon="-118.3938674">
  <ele>-7.74</ele>
  <time>2026-09-01T01:13:55Z</time>
  <course>241.16</course>
  <speed>0.0</speed>
  <fix>3d</fix>
</trkpt>
<trkpt lat="33.810359" lon="-118.393867">
  <ele>-7.932</ele>
  <time>2026-09-01T01:13:55Z</time>
  <course>357.65</course>
  <speed>0.0282842712474619</speed>
  <fix>3d</fix>
</trkpt>
<trkpt lat="33.8103592" lon="-118.3938674">
  <ele>-7.74</ele>
  <time>2026-09-01T01:13:55Z</time>
  <course>241.16</course>
  <speed>0.0</speed>
  <fix>3d</fix>
</trkpt>
<trkpt lat="33.810359" lon="-118.393867">
  <ele>-7.932</ele>
  <time>2026-09-01T01:13:55Z</time>
  <course>357.64</course>
  <speed>0.0282842712474619</speed>
  <fix>3d</fix>
</trkpt>
<trkpt lat="33.8103592" lon="-118.3938674">
  <ele>-7.74</ele>
  <time>2026-09-01T01:13:55Z</time>
  <course>241.22</course>
  <speed>0.0</speed>
  <fix>3d</fix>
</trkpt>
<trkpt lat="33.810359" lon="-118.3938671">
  <ele>-7.933</ele>
  <time>2026-09-01T01:13:55Z</time>
  <course>357.64</course>
  <speed>0.0282842712474619</speed>
  <fix>3d</fix>
</trkpt>
<trkpt lat="33.8103592" lon="-118.3938674">
  <ele>-7.74</ele>
  <time>2026-09-01T01:13:55Z</time>
  <course>241.22</course>
  <speed>0.0</speed>
  <fix>3d</fix>
</trkpt>
<trkpt lat="33.810359" lon="-118.3938671">
  <ele>-7.934</ele>
  <time>2026-09-01T01:13:55Z</time>
  <course>357.63</course>
  <speed>0.0282842712474619</speed>
  <fix>3d</fix>
</trkpt>
<trkpt lat="33.8103591" lon="-118.3938674">
  <ele>-7.74</ele>
  <time>2026-09-01T01:13:55Z</time>
  <course>241.41</course>
  <speed>0.0</speed>
  <fix>3d</fix>
</trkpt>
<trkpt lat="33.810359" lon="-118.3938671">
  <ele>-7.934</ele>
  <time>2026-09-01T01:13:55Z</time>
  <course>357.63</course>
  <speed>0.0282842712474619</speed>
  <fix>3d</fix>
</trkpt>
<trkpt lat="33.8103591" lon="-118.3938674">
  <ele>-7.74</ele>
  <time>2026-09-01T01:13:55Z</time>
  <course>241.41</course>
  <speed>0.0</speed>
  <fix>3d</fix>
</trkpt>
<trkpt lat="33.810359" lon="-118.3938671">
  <ele>-7.935</ele>
  <time>2026-09-01T01:13:55Z</time>
  <course>357.62</course>
  <speed>0.0282842712474619</speed>
  <fix>3d</fix>
</trkpt>
<trkpt lat="33.8103591" lon="-118.3938674">
  <ele>-7.74</ele>
  <time>2026-09-01T01:13:55Z</time>
  <course>241.42</course>
  <speed>0.0</speed>
  <fix>3d</fix>
</trkpt>
<trkpt lat="33.810359" lon="-118.3938671">
  <ele>-7.935</ele>
  <time>2026-09-01T01:13:55Z</time>
  <course>357.62</course>
  <speed>0.0282842712474619</speed>
  <fix>3d</fix>
</trkpt>
<trkpt lat="33.8103591" lon="-118.3938674">
  <ele>-7.74</ele>
  <time>2026-09-01T01:13:55Z</time>
  <course>241.42</course>
  <speed>0.0</speed>
  <fix>3d</fix>
</trkpt>
<trkpt lat="33.810359" lon="-118.3938671">
  <ele>-7.936</ele>
  <time>2026-09-01T01:13:55Z</time>
  <course>357.61</course>
  <speed>0.0282842712474619</speed>
  <fix>3d</fix>
</trkpt>
<trkpt lat="33.8103591" lon="-118.3938674">
  <ele>-7.74</ele>
  <time>2026-09-01T01:13:55Z</time>
  <course>241.22</course>
  <speed>0.0</speed>
  <fix>3d</fix>
</trkpt>
<trkpt lat="33.810359" lon="-118.3938671">
  <ele>-7.937</ele>
  <time>2026-09-01T01:13:55Z</time>
  <course>357.61</course>
  <speed>0.0282842712474619</speed>
  <fix>3d</fix>
</trkpt>
<trkpt lat="33.8103591" lon="-118.3938674">
  <ele>-7.74</ele>
  <time>2026-09-01T01:13:55Z</time>
  <course>241.22</course>
  <speed>0.0</speed>
  <fix>3d</fix>
</trkpt>
<trkpt lat="33.810359" lon="-118.3938671">
  <ele>-7.937</ele>
  <time>2026-09-01T01:13:55Z</time>
  <course>357.6</course>
  <speed>0.0282842712474619</speed>
  <fix>3d</fix>
</trkpt>
<trkpt lat="33.8103591" lon="-118.3938674">
  <ele>-7.74</ele>
  <time>2026-09-01T01:13:55Z</time>
  <course>240.9</course>
  <speed>0.0</speed>
  <fix>3d</fix>
</trkpt>
<trkpt lat="33.810359" lon="-118.3938671">
  <ele>-7.937</ele>
  <time>2026-09-01T01:13:55Z</time>
  <course>357.6</course>
  <speed>0.0282842712474619</speed>
  <fix>3d</fix>
</trkpt>
<trkpt lat="33.8103591" lon="-118.3938674">
  <ele>-7.74</ele>
  <time>2026-09-01T01:13:55Z</time>
  <course>240.9</course>
  <speed>0.0</speed>
  <fix>3d</fix>
</trkpt>
<trkpt lat="33.810359" lon="-118.3938671">
  <ele>-7.937</ele>
  <time>2026-09-01T01:13:55Z</time>
  <course>357.59</course>
  <speed>0.0282842712474619</speed>
  <fix>3d</fix>
</trkpt>
<trkpt lat="33.8103591" lon="-118.3938674">
  <ele>-7.74</ele>
  <time>2026-09-01T01:13:55Z</time>
  <course>240.65</course>
  <speed>0.0</speed>
  <fix>3d</fix>
</trkpt>
<trkpt lat="33.810359" lon="-118.3938671">
  <ele>-7.938</ele>
  <time>2026-09-01T01:13:55Z</time>
  <course>357.59</course>
  <speed>0.0282842712474619</speed>
  <fix>3d</fix>
</trkpt>
<trkpt lat="33.8103591" lon="-118.3938674">
  <ele>-7.74</ele>
  <time>2026-09-01T01:13:55Z</time>
  <course>240.65</course>
  <speed>0.0</speed>
  <fix>3d</fix>
</trkpt>
<trkpt lat="33.810359" lon="-118.3938671">
  <ele>-7.938</ele>
  <time>2026-09-01T01:13:55Z</time>
  <course>357.58</course>
  <speed>0.0282842712474619</speed>
  <fix>3d</fix>
</trkpt>
<trkpt lat="33.8103591" lon="-118.3938674">
  <ele>-7.74</ele>
  <time>2026-09-01T01:13:55Z</time>
  <course>240.6</course>
  <speed>0.0</speed>
  <fix>3d</fix>
</trkpt>
<trkpt lat="33.810359" lon="-118.3938671">
  <ele>-7.938</ele>
  <time>2026-09-01T01:13:55Z</time>
  <course>357.58</course>
  <speed>0.0282842712474619</speed>
  <fix>3d</fix>
</trkpt>
<trkpt lat="33.8103591" lon="-118.3938674">
  <ele>-7.74</ele>
  <time>2026-09-01T01:13:55Z</time>
  <course>240.6</course>
  <speed>0.0</speed>
  <fix>3d</fix>
</trkpt>
<trkpt lat="33.810359" lon="-118.3938671">
  <ele>-7.938</ele>
  <time>2026-09-01T01:13:55Z</time>
  <course>357.57</course>
  <speed>0.0282842712474619</speed>
  <fix>3d</fix>
</trkpt>
<trkpt lat="33.8103591" lon="-118.3938675">
  <ele>-7.74</ele>
  <time>2026-09-01T01:13:55Z</time>
  <course>240.69</course>
  <speed>0.0</speed>
  <fix>3d</fix>
</trkpt>
<trkpt lat="33.810359" lon="-118.3938671">
  <ele>-7.938</ele>
  <time>2026-09-01T01:13:55Z</time>
  <course>357.57</course>
  <speed>0.0282842712474619</speed>
  <fix>3d</fix>
</trkpt>
<trkpt lat="33.8103591" lon="-118.3938675">
  <ele>-7.74</ele>
  <time>2026-09-01T01:13:55Z</time>
  <course>240.69</course>
  <speed>0.0</speed>
  <fix>3d</fix>
</trkpt>
<trkpt lat="33.8103589" lon="-118.3938671">
  <ele>-7.938</ele>
  <time>2026-09-01T01:13:55Z</time>
  <course>357.57</course>
  <speed>0.0282842712474619</speed>
  <fix>3d</fix>
</trkpt>
<trkpt lat="33.8103591" lon="-118.3938675">
  <ele>-7.74</ele>
  <time>2026-09-01T01:13:55Z</time>
  <course>240.77</course>
  <speed>0.0</speed>
  <fix>3d</fix>
</trkpt>
<trkpt lat="33.8103589" lon="-118.3938671">
  <ele>-7.938</ele>
  <time>2026-09-01T01:13:55Z</time>
  <course>357.56</course>
  <speed>0.0282842712474619</speed>
  <fix>3d</fix>
</trkpt>
<trkpt lat="33.8103591" lon="-118.3938675">
  <ele>-7.74</ele>
  <time>2026-09-01T01:13:55Z</time>
  <course>240.77</course>
  <speed>0.0</speed>
  <fix>3d</fix>
</trkpt>
<trkpt lat="33.8103589" lon="-118.3938671">
  <ele>-7.937</ele>
  <time>2026-09-01T01:13:55Z</time>
  <course>357.56</course>
  <speed>0.0282842712474619</speed>
  <fix>3d</fix>
</trkpt>
<trkpt lat="33.8103591" lon="-118.3938675">
  <ele>-7.74</ele>
  <time>2026-09-01T01:13:55Z</time>
  <course>240.71</course>
  <speed>0.0</speed>
  <fix>3d</fix>
</trkpt>
<trkpt lat="33.8103589" lon="-118.3938671">
  <ele>-7.937</ele>
  <time>2026-09-01T01:13:55Z</time>
  <course>357.55</course>
  <speed>0.0282842712474619</speed>
  <fix>3d</fix>
</trkpt>
<trkpt lat="33.8103591" lon="-118.3938675">
  <ele>-7.74</ele>
  <time>2026-09-01T01:13:55Z</time>
  <course>240.71</course>
  <speed>0.0</speed>
  <fix>3d</fix>
</trkpt>
<trkpt lat="33.8103589" lon="-118.3938671">
  <ele>-7.937</ele>
  <time>2026-09-01T01:13:55Z</time>
  <course>357.55</course>
  <speed>0.0282842712474619</speed>
  <fix>3d</fix>
</trkpt>
<trkpt lat="33.8103591" lon="-118.3938675">
  <ele>-7.74</ele>
  <time>2026-09-01T01:13:55Z</time>
  <course>240.52</course>
  <speed>0.0</speed>
  <fix>3d</fix>
</trkpt>
<trkpt lat="33.8103589" lon="-118.3938671">
  <ele>-7.938</ele>
  <time>2026-09-01T01:13:55Z</time>
  <course>357.54</course>
  <speed>0.0282842712474619</speed>
  <fix>3d</fix>
</trkpt>
<trkpt lat="33.8103591" lon="-118.3938675">
  <ele>-7.74</ele>
  <time>2026-09-01T01:13:55Z</time>
  <course>240.52</course>
  <speed>0.0</speed>
  <fix>3d</fix>
</trkpt>
<trkpt lat="33.8103589" lon="-118.3938672">
  <ele>-7.939</ele>
  <time>2026-09-01T01:13:55Z</time>
  <course>357.54</course>
  <speed>0.0282842712474619</speed>
  <fix>3d</fix>
</trkpt>
<trkpt lat="33.8103591" lon="-118.3938675">
  <ele>-7.75</ele>
  <time>2026-09-01T01:13:55Z</time>
  <course>240.28</course>
  <speed>0.0</speed>
  <fix>3d</fix>
</trkpt>
<trkpt lat="33.8103589" lon="-118.3938672">
  <ele>-7.94</ele>
  <time>2026-09-01T01:13:55Z</time>
  <course>357.53</course>
  <speed>0.0282842712474619</speed>
  <fix>3d</fix>
</trkpt>
<trkpt lat="33.8103591" lon="-118.3938675">
  <ele>-7.75</ele>
  <time>2026-09-01T01:13:55Z</time>
  <course>240.28</course>
  <speed>0.0</speed>
  <fix>3d</fix>
</trkpt>
<trkpt lat="33.8103589" lon="-118.3938672">
  <ele>-7.941</ele>
  <time>2026-09-01T01:13:55Z</time>
  <course>357.53</course>
  <speed>0.0282842712474619</speed>
  <fix>3d</fix>
</trkpt>
<trkpt lat="33.8103591" lon="-118.3938675">
  <ele>-7.75</ele>
  <time>2026-09-01T01:13:55Z</time>
  <course>240.13</course>
  <speed>0.0</speed>
  <fix>3d</fix>
</trkpt>
<trkpt lat="33.8103589" lon="-118.3938672">
  <ele>-7.942</ele>
  <time>2026-09-01T01:13:55Z</time>
  <course>357.52</course>
  <speed>0.0282842712474619</speed>
  <fix>3d</fix>
</trkpt>
<trkpt lat="33.8103591" lon="-118.3938675">
  <ele>-7.75</ele>
  <time>2026-09-01T01:13:55Z</time>
  <course>240.13</course>
  <speed>0.0</speed>
  <fix>3d</fix>
</trkpt>
<trkpt lat="33.8103589" lon="-118.3938672">
  <ele>-7.943</ele>
  <time>2026-09-01T01:13:55Z</time>
  <course>357.52</course>
  <speed>0.0282842712474619</speed>
  <fix>3d</fix>
</trkpt>
<trkpt lat="33.8103591" lon="-118.3938675">
  <ele>-7.75</ele>
  <time>2026-09-01T01:13:55Z</time>
  <course>240.11</course>
  <speed>0.0</speed>
  <fix>3d</fix>
</trkpt>
<trkpt lat="33.8103589" lon="-118.3938672">
  <ele>-7.944</ele>
  <time>2026-09-01T01:13:56Z</time>
  <course>357.51</course>
  <speed>0.0282842712474619</speed>
  <fix>3d</fix>
</trkpt>
<trkpt lat="33.8103591" lon="-118.3938675">
  <ele>-7.75</ele>
  <time>2026-09-01T01:13:56Z</time>
  <course>240.11</course>
  <speed>0.0</speed>
  <fix>3d</fix>
</trkpt>
<trkpt lat="33.8103589" lon="-118.3938672">
  <ele>-7.945</ele>
  <time>2026-09-01T01:13:56Z</time>
  <course>357.51</course>
  <speed>0.0282842712474619</speed>
  <fix>3d</fix>
</trkpt>
<trkpt lat="33.8103591" lon="-118.3938675">
  <ele>-7.75</ele>
  <time>2026-09-01T01:13:56Z</time>
  <course>240.17</course>
  <speed>0.0</speed>
  <fix>3d</fix>
</trkpt>
<trkpt lat="33.8103589" lon="-118.3938672">
  <ele>-7.946</ele>
  <time>2026-09-01T01:13:56Z</time>
  <course>357.5</course>
  <speed>0.0282842712474619</speed>
  <fix>3d</fix>
</trkpt>
<trkpt lat="33.8103591" lon="-118.3938675">
  <ele>-7.75</ele>
  <time>2026-09-01T01:13:56Z</time>
  <course>240.17</course>
  <speed>0.0</speed>
  <fix>3d</fix>
</trkpt>
<trkpt lat="33.8103589" lon="-118.3938672">
  <ele>-7.947</ele>
  <time>2026-09-01T01:13:56Z</time>
  <course>357.5</course>
  <speed>0.0282842712474619</speed>
  <fix>3d</fix>
</trkpt>
<trkpt lat="33.8103591" lon="-118.3938675">
  <ele>-7.75</ele>
  <time>2026-09-01T01:13:56Z</time>
  <course>240.18</course>
  <speed>0.0</speed>
  <fix>3d</fix>
</trkpt>
<trkpt lat="33.8103589" lon="-118.3938672">
  <ele>-7.947</ele>
  <time>2026-09-01T01:13:56Z</time>
  <course>357.49</course>
  <speed>0.0282842712474619</speed>
  <fix>3d</fix>
</trkpt>
<trkpt lat="33.8103591" lon="-118.3938675">
  <ele>-7.75</ele>
  <time>2026-09-01T01:13:56Z</time>
  <course>240.18</course>
  <speed>0.0</speed>
  <fix>3d</fix>
</trkpt>
<trkpt lat="33.8103589" lon="-118.3938672">
  <ele>-7.948</ele>
  <time>2026-09-01T01:13:56Z</time>
  <course>357.49</course>
  <speed>0.0282842712474619</speed>
  <fix>3d</fix>
</trkpt>
<trkpt lat="33.8103591" lon="-118.3938676">
  <ele>-7.75</ele>
  <time>2026-09-01T01:13:56Z</time>
  <course>240.08</course>
  <speed>0.0</speed>
  <fix>3d</fix>
</trkpt>
<trkpt lat="33.8103589" lon="-118.3938672">
  <ele>-7.948</ele>
  <time>2026-09-01T01:13:56Z</time>
  <course>357.48</course>
  <speed>0.0282842712474619</speed>
  <fix>3d</fix>
</trkpt>
<trkpt lat="33.8103591" lon="-118.3938676">
  <ele>-7.75</ele>
  <time>2026-09-01T01:13:56Z</time>
  <course>240.08</course>
  <speed>0.0</speed>
  <fix>3d</fix>
</trkpt>
<trkpt lat="33.8103589" lon="-118.3938672">
  <ele>-7.949</ele>
  <time>2026-09-01T01:13:56Z</time>
  <course>357.48</course>
  <speed>0.0282842712474619</speed>
  <fix>3d</fix>
</trkpt>
<trkpt lat="33.8103591" lon="-118.3938676">
  <ele>-7.75</ele>
  <time>2026-09-01T01:13:56Z</time>
  <course>239.89</course>
  <speed>0.0</speed>
  <fix>3d</fix>
</trkpt>
<trkpt lat="33.8103589" lon="-118.3938672">
  <ele>-7.949</ele>
  <time>2026-09-01T01:13:56Z</time>
  <course>357.47</course>
  <speed>0.0282842712474619</speed>
  <fix>3d</fix>
</trkpt>
<trkpt lat="33.8103591" lon="-118.3938676">
  <ele>-7.75</ele>
  <time>2026-09-01T01:13:56Z</time>
  <course>239.89</course>
  <speed>0.0</speed>
  <fix>3d</fix>
</trkpt>
<trkpt lat="33.8103589" lon="-118.3938672">
  <ele>-7.949</ele>
  <time>2026-09-01T01:13:56Z</time>
  <course>357.47</course>
  <speed>0.0282842712474619</speed>
  <fix>3d</fix>
</trkpt>
<trkpt lat="33.8103591" lon="-118.3938676">
  <ele>-7.75</ele>
  <time>2026-09-01T01:13:56Z</time>
  <course>239.71</course>
  <speed>0.0</speed>
  <fix>3d</fix>
</trkpt>
<trkpt lat="33.8103589" lon="-118.3938672">
  <ele>-7.949</ele>
  <time>2026-09-01T01:13:56Z</time>
  <course>357.46</course>
  <speed>0.0282842712474619</speed>
  <fix>3d</fix>
</trkpt>
<trkpt lat="33.8103591" lon="-118.3938676">
  <ele>-7.75</ele>
  <time>2026-09-01T01:13:56Z</time>
  <course>239.71</course>
  <speed>0.0</speed>
  <fix>3d</fix>
</trkpt>
<trkpt lat="33.8103589" lon="-118.3938672">
  <ele>-7.949</ele>
  <time>2026-09-01T01:13:56Z</time>
  <course>357.46</course>
  <speed>0.0282842712474619</speed>
  <fix>3d</fix>
</trkpt>
<trkpt lat="33.8103591" lon="-118.3938676">
  <ele>-7.75</ele>
  <time>2026-09-01T01:13:56Z</time>
  <course>239.61</course>
  <speed>0.0</speed>
  <fix>3d</fix>
</trkpt>
<trkpt lat="33.8103589" lon="-118.3938672">
  <ele>-7.949</ele>
  <time>2026-09-01T01:13:56Z</time>
  <course>357.45</course>
  <speed>0.0282842712474619</speed>
  <fix>3d</fix>
</trkpt>
<trkpt lat="33.8103591" lon="-118.3938676">
  <ele>-7.75</ele>
  <time>2026-09-01T01:13:56Z</time>
  <course>239.61</course>
  <speed>0.0</speed>
  <fix>3d</fix>
</trkpt>
<trkpt lat="33.8103589" lon="-118.3938672">
  <ele>-7.949</ele>
  <time>2026-09-01T01:13:56Z</time>
  <course>357.45</course>
  <speed>0.0282842712474619</speed>
  <fix>3d</fix>
</trkpt>
<trkpt lat="33.8103591" lon="-118.3938676">
  <ele>-7.75</ele>
  <time>2026-09-01T01:13:56Z</time>
  <course>239.61</course>
  <speed>0.0</speed>
  <fix>3d</fix>
</trkpt>
<trkpt lat="33.8103589" lon="-118.3938673">
  <ele>-7.948</ele>
  <time>2026-09-01T01:13:56Z</time>
  <course>357.45</course>
  <speed>0.0282842712474619</speed>
  <fix>3d</fix>
</trkpt>
<trkpt lat="33.8103591" lon="-118.3938676">
  <ele>-7.75</ele>
  <time>2026-09-01T01:13:56Z</time>
  <course>239.61</course>
  <speed>0.0</speed>
  <fix>3d</fix>
</trkpt>
<trkpt lat="33.8103589" lon="-118.3938673">
  <ele>-7.948</ele>
  <time>2026-09-01T01:13:56Z</time>
  <course>357.44</course>
  <speed>0.0282842712474619</speed>
  <fix>3d</fix>
</trkpt>
<trkpt lat="33.8103591" lon="-118.3938676">
  <ele>-7.75</ele>
  <time>2026-09-01T01:13:56Z</time>
  <course>239.64</course>
  <speed>0.0</speed>
  <fix>3d</fix>
</trkpt>
<trkpt lat="33.8103589" lon="-118.3938673">
  <ele>-7.948</ele>
  <time>2026-09-01T01:13:56Z</time>
  <course>357.44</course>
  <speed>0.0282842712474619</speed>
  <fix>3d</fix>
</trkpt>
<trkpt lat="33.8103591" lon="-118.3938676">
  <ele>-7.75</ele>
  <time>2026-09-01T01:13:56Z</time>
  <course>239.64</course>
  <speed>0.0</speed>
  <fix>3d</fix>
</trkpt>
<trkpt lat="33.8103589" lon="-118.3938673">
  <ele>-7.948</ele>
  <time>2026-09-01T01:13:56Z</time>
  <course>357.43</course>
  <speed>0.0282842712474619</speed>
  <fix>3d</fix>
</trkpt>
<trkpt lat="33.810359" lon="-118.3938676">
  <ele>-7.75</ele>
  <time>2026-09-01T01:13:56Z</time>
  <course>239.61</course>
  <speed>0.0</speed>
  <fix>3d</fix>
</trkpt>
<trkpt lat="33.8103589" lon="-118.3938673">
  <ele>-7.948</ele>
  <time>2026-09-01T01:13:56Z</time>
  <course>357.43</course>
  <speed>0.0282842712474619</speed>
  <fix>3d</fix>
</trkpt>
<trkpt lat="33.810359" lon="-118.3938676">
  <ele>-7.75</ele>
  <time>2026-09-01T01:13:56Z</time>
  <course>239.61</course>
  <speed>0.0</speed>
  <fix>3d</fix>
</trkpt>
<trkpt lat="33.8103589" lon="-118.3938673">
  <ele>-7.947</ele>
  <time>2026-09-01T01:13:56Z</time>
  <course>357.42</course>
  <speed>0.0282842712474619</speed>
  <fix>3d</fix>
</trkpt>
<trkpt lat="33.810359" lon="-118.3938676">
  <ele>-7.75</ele>
  <time>2026-09-01T01:13:56Z</time>
  <course>239.49</course>
  <speed>0.0</speed>
  <fix>3d</fix>
</trkpt>
<trkpt lat="33.8103589" lon="-118.3938673">
  <ele>-7.947</ele>
  <time>2026-09-01T01:13:56Z</time>
  <course>357.42</course>
  <speed>0.0282842712474619</speed>
  <fix>3d</fix>
</trkpt>
<trkpt lat="33.810359" lon="-118.3938676">
  <ele>-7.75</ele>
  <time>2026-09-01T01:13:56Z</time>
  <course>239.49</course>
  <speed>0.0</speed>
  <fix>3d</fix>
</trkpt>
<trkpt lat="33.8103589" lon="-118.3938673">
  <ele>-7.947</ele>
  <time>2026-09-01T01:13:56Z</time>
  <course>357.41</course>
  <speed>0.0282842712474619</speed>
  <fix>3d</fix>
</trkpt>
<trkpt lat="33.810359" lon="-118.3938676">
  <ele>-7.75</ele>
  <time>2026-09-01T01:13:56Z</time>
  <course>239.31</course>
  <speed>0.0</speed>
  <fix>3d</fix>
</trkpt>
<trkpt lat="33.8103589" lon="-118.3938673">
  <ele>-7.947</ele>
  <time>2026-09-01T01:13:56Z</time>
  <course>357.41</course>
  <speed>0.0282842712474619</speed>
  <fix>3d</fix>
</trkpt>
<trkpt lat="33.810359" lon="-118.3938676">
  <ele>-7.75</ele>
  <time>2026-09-01T01:13:56Z</time>
  <course>239.31</course>
  <speed>0.0</speed>
  <fix>3d</fix>
</trkpt>
<trkpt lat="33.8103589" lon="-118.3938673">
  <ele>-7.948</ele>
  <time>2026-09-01T01:13:56Z</time>
  <course>357.4</course>
  <speed>0.0282842712474619</speed>
  <fix>3d</fix>
</trkpt>
<trkpt lat="33.810359" lon="-118.3938676">
  <ele>-7.75</ele>
  <time>2026-09-01T01:13:56Z</time>
  <course>239.17</course>
  <speed>0.0</speed>
  <fix>3d</fix>
</trkpt>
<trkpt lat="33.8103589" lon="-118.3938673">
  <ele>-7.948</ele>
  <time>2026-09-01T01:13:56Z</time>
  <course>357.4</course>
  <speed>0.0282842712474619</speed>
  <fix>3d</fix>
</trkpt>
<trkpt lat="33.810359" lon="-118.3938676">
  <ele>-7.75</ele>
  <time>2026-09-01T01:13:56Z</time>
  <course>239.17</course>
  <speed>0.0</speed>
  <fix>3d</fix>
</trkpt>
<trkpt lat="33.8103589" lon="-118.3938673">
  <ele>-7.949</ele>
  <time>2026-09-01T01:13:56Z</time>
  <course>357.39</course>
  <speed>0.0282842712474619</speed>
  <fix>3d</fix>
</trkpt>
<trkpt lat="33.810359" lon="-118.3938677">
  <ele>-7.76</ele>
  <time>2026-09-01T01:13:56Z</time>
  <course>239.11</course>
  <speed>0.0</speed>
  <fix>3d</fix>
</trkpt>
<trkpt lat="33.8103589" lon="-118.3938673">
  <ele>-7.951</ele>
  <time>2026-09-01T01:13:56Z</time>
  <course>357.39</course>
  <speed>0.0282842712474619</speed>
  <fix>3d</fix>
</trkpt>
<trkpt lat="33.810359" lon="-118.3938677">
  <ele>-7.76</ele>
  <time>2026-09-01T01:13:56Z</time>
  <course>239.11</course>
  <speed>0.0</speed>
  <fix>3d</fix>
</trkpt>
<trkpt lat="33.8103589" lon="-118.3938673">
  <ele>-7.952</ele>
  <time>2026-09-01T01:13:56Z</time>
  <course>357.38</course>
  <speed>0.0282842712474619</speed>
  <fix>3d</fix>
</trkpt>
<trkpt lat="33.810359" lon="-118.3938677">
  <ele>-7.76</ele>
  <time>2026-09-01T01:13:56Z</time>
  <course>239.12</course>
  <speed>0.0</speed>
  <fix>3d</fix>
</trkpt>
<trkpt lat="33.8103589" lon="-118.3938673">
  <ele>-7.953</ele>
  <time>2026-09-01T01:13:56Z</time>
  <course>357.38</course>
  <speed>0.0282842712474619</speed>
  <fix>3d</fix>
</trkpt>
<trkpt lat="33.810359" lon="-118.3938677">
  <ele>-7.76</ele>
  <time>2026-09-01T01:13:56Z</time>
  <course>239.12</course>
  <speed>0.0</speed>
  <fix>3d</fix>
</trkpt>
<trkpt lat="33.8103589" lon="-118.3938673">
  <ele>-7.954</ele>
  <time>2026-09-01T01:13:56Z</time>
  <course>357.37</course>
  <speed>0.0282842712474619</speed>
  <fix>3d</fix>
</trkpt>
<trkpt lat="33.810359" lon="-118.3938677">
  <ele>-7.76</ele>
  <time>2026-09-01T01:13:56Z</time>
  <course>239.13</course>
  <speed>0.0</speed>
  <fix>3d</fix>
</trkpt>
<trkpt lat="33.8103589" lon="-118.3938673">
  <ele>-7.955</ele>
  <time>2026-09-01T01:13:56Z</time>
  <course>357.37</course>
  <speed>0.0282842712474619</speed>
  <fix>3d</fix>
</trkpt>
<trkpt lat="33.810359" lon="-118.3938677">
  <ele>-7.76</ele>
  <time>2026-09-01T01:13:56Z</time>
  <course>239.13</course>
  <speed>0.0</speed>
  <fix>3d</fix>
</trkpt>
<trkpt lat="33.8103589" lon="-118.3938673">
  <ele>-7.955</ele>
  <time>2026-09-01T01:13:56Z</time>
  <course>357.36</course>
  <speed>0.0282842712474619</speed>
  <fix>3d</fix>
</trkpt>
<trkpt lat="33.810359" lon="-118.3938677">
  <ele>-7.76</ele>
  <time>2026-09-01T01:13:56Z</time>
  <course>239.18</course>
  <speed>0.0</speed>
  <fix>3d</fix>
</trkpt>
<trkpt lat="33.8103588" lon="-118.3938673">
  <ele>-7.955</ele>
  <time>2026-09-01T01:13:56Z</time>
  <course>357.36</course>
  <speed>0.0282842712474619</speed>
  <fix>3d</fix>
</trkpt>
<trkpt lat="33.810359" lon="-118.3938677">
  <ele>-7.76</ele>
  <time>2026-09-01T01:13:56Z</time>
  <course>239.18</course>
  <speed>0.0</speed>
  <fix>3d</fix>
</trkpt>
<trkpt lat="33.8103588" lon="-118.3938673">
  <ele>-7.954</ele>
  <time>2026-09-01T01:13:56Z</time>
  <course>357.36</course>
  <speed>0.0282842712474619</speed>
  <fix>3d</fix>
</trkpt>
<trkpt lat="33.810359" lon="-118.3938677">
  <ele>-7.76</ele>
  <time>2026-09-01T01:13:56Z</time>
  <course>239.45</course>
  <speed>0.0</speed>
  <fix>3d</fix>
</trkpt>
<trkpt lat="33.8103588" lon="-118.3938673">
  <ele>-7.953</ele>
  <time>2026-09-01T01:13:56Z</time>
  <course>357.35</course>
  <speed>0.0282842712474619</speed>
  <fix>3d</fix>
</trkpt>
<trkpt lat="33.810359" lon="-118.3938677">
  <ele>-7.76</ele>
  <time>2026-09-01T01:13:56Z</time>
  <course>239.45</course>
  <speed>0.0</speed>
  <fix>3d</fix>
</trkpt>
<trkpt lat="33.8103588" lon="-118.3938674">
  <ele>-7.952</ele>
  <time>2026-09-01T01:13:56Z</time>
  <course>357.35</course>
  <speed>0.0282842712474619</speed>
  <fix>3d</fix>
</trkpt>
<trkpt lat="33.810359" lon="-118.3938677">
  <ele>-7.75</ele>
  <time>2026-09-01T01:13:56Z</time>
  <course>239.69</course>
  <speed>0.0</speed>
  <fix>3d</fix>
</trkpt>
<trkpt lat="33.8103588" lon="-118.3938674">
  <ele>-7.951</ele>
  <time>2026-09-01T01:13:56Z</time>
  <course>357.34</course>
  <speed>0.0282842712474619</speed>
  <fix>3d</fix>
</trkpt>
<trkpt lat="33.810359" lon="-118.3938677">
  <ele>-7.75</ele>
  <time>2026-09-01T01:13:56Z</time>
  <course>239.69</course>
  <speed>0.0</speed>
  <fix>3d</fix>
</trkpt>
<trkpt lat="33.8103588" lon="-118.3938674">
  <ele>-7.949</ele>
  <time>2026-09-01T01:13:56Z</time>
  <course>357.34</course>
  <speed>0.0282842712474619</speed>
  <fix>3d</fix>
</trkpt>
<trkpt lat="33.810359" lon="-118.3938677">
  <ele>-7.75</ele>
  <time>2026-09-01T01:13:56Z</time>
  <course>239.54</course>
  <speed>0.0</speed>
  <fix>3d</fix>
</trkpt>
<trkpt lat="33.8103588" lon="-118.3938674">
  <ele>-7.948</ele>
  <time>2026-09-01T01:13:56Z</time>
  <course>357.33</course>
  <speed>0.0282842712474619</speed>
  <fix>3d</fix>
</trkpt>
<trkpt lat="33.810359" lon="-118.3938677">
  <ele>-7.75</ele>
  <time>2026-09-01T01:13:56Z</time>
  <course>239.54</course>
  <speed>0.0</speed>
  <fix>3d</fix>
</trkpt>
<trkpt lat="33.8103588" lon="-118.3938674">
  <ele>-7.946</ele>
  <time>2026-09-01T01:13:56Z</time>
  <course>357.33</course>
  <speed>0.0282842712474619</speed>
  <fix>3d</fix>
</trkpt>
<trkpt lat="33.810359" lon="-118.3938677">
  <ele>-7.75</ele>
  <time>2026-09-01T01:13:56Z</time>
  <course>239.13</course>
  <speed>0.0</speed>
  <fix>3d</fix>
</trkpt>
<trkpt lat="33.8103588" lon="-118.3938674">
  <ele>-7.945</ele>
  <time>2026-09-01T01:13:56Z</time>
  <course>357.32</course>
  <speed>0.0282842712474619</speed>
  <fix>3d</fix>
</trkpt>
<trkpt lat="33.810359" lon="-118.3938677">
  <ele>-7.75</ele>
  <time>2026-09-01T01:13:56Z</time>
  <course>239.13</course>
  <speed>0.0</speed>
  <fix>3d</fix>
</trkpt>
<trkpt lat="33.8103588" lon="-118.3938674">
  <ele>-7.944</ele>
  <time>2026-09-01T01:13:56Z</time>
  <course>357.31</course>
  <speed>0.0282842712474619</speed>
  <fix>3d</fix>
</trkpt>
<trkpt lat="33.810359" lon="-118.3938677">
  <ele>-7.75</ele>
  <time>2026-09-01T01:13:56Z</time>
  <course>238.84</course>
  <speed>0.0</speed>
  <fix>3d</fix>
</trkpt>
<trkpt lat="33.8103588" lon="-118.3938674">
  <ele>-7.943</ele>
  <time>2026-09-01T01:13:56Z</time>
  <course>357.31</course>
  <speed>0.0282842712474619</speed>
  <fix>3d</fix>
</trkpt>
<trkpt lat="33.810359" lon="-118.3938677">
  <ele>-7.75</ele>
  <time>2026-09-01T01:13:56Z</time>
  <course>238.84</course>
  <speed>0.0</speed>
  <fix>3d</fix>
</trkpt>
<trkpt lat="33.8103588" lon="-118.3938674">
  <ele>-7.944</ele>
  <time>2026-09-01T01:13:56Z</time>
  <course>357.3</course>
  <speed>0.0282842712474619</speed>
  <fix>3d</fix>
</trkpt>
<trkpt lat="33.810359" lon="-118.3938677">
  <ele>-7.75</ele>
  <time>2026-09-01T01:13:56Z</time>
  <course>239.04</course>
  <speed>0.0</speed>
  <fix>3d</fix>
</trkpt>
<trkpt lat="33.8103588" lon="-118.3938674">
  <ele>-7.944</ele>
  <time>2026-09-01T01:13:56Z</time>
  <course>357.3</course>
  <speed>0.0282842712474619</speed>
  <fix>3d</fix>
</trkpt>
<trkpt lat="33.810359" lon="-118.3938677">
  <ele>-7.75</ele>
  <time>2026-09-01T01:13:56Z</time>
  <course>239.04</course>
  <speed>0.0</speed>
  <fix>3d</fix>
</trkpt>
<trkpt lat="33.8103588" lon="-118.3938674">
  <ele>-7.945</ele>
  <time>2026-09-01T01:13:56Z</time>
  <course>357.29</course>
  <speed>0.0282842712474619</speed>
  <fix>3d</fix>
</trkpt>
<trkpt lat="33.810359" lon="-118.3938677">
  <ele>-7.75</ele>
  <time>2026-09-01T01:13:56Z</time>
  <course>239.36</course>
  <speed>0.0</speed>
  <fix>3d</fix>
</trkpt>
<trkpt lat="33.8103588" lon="-118.3938674">
  <ele>-7.946</ele>
  <time>2026-09-01T01:13:56Z</time>
  <course>357.29</course>
  <speed>0.0282842712474619</speed>
  <fix>3d</fix>
</trkpt>
<trkpt lat="33.810359" lon="-118.3938677">
  <ele>-7.75</ele>
  <time>2026-09-01T01:13:56Z</time>
  <course>239.36</course>
  <speed>0.0</speed>
  <fix>3d</fix>
</trkpt>
<trkpt lat="33.8103588" lon="-118.3938674">
  <ele>-7.947</ele>
  <time>2026-09-01T01:13:56Z</time>
  <course>357.29</course>
  <speed>0.0282842712474619</speed>
  <fix>3d</fix>
</trkpt>
<trkpt lat="33.810359" lon="-118.3938678">
  <ele>-7.75</ele>
  <time>2026-09-01T01:13:56Z</time>
  <course>239.37</course>
  <speed>0.0</speed>
  <fix>3d</fix>
</trkpt>
<trkpt lat="33.8103588" lon="-118.3938674">
  <ele>-7.948</ele>
  <time>2026-09-01T01:13:56Z</time>
  <course>357.28</course>
  <speed>0.0282842712474619</speed>
  <fix>3d</fix>
</trkpt>
<trkpt lat="33.810359" lon="-118.3938678">
  <ele>-7.75</ele>
  <time>2026-09-01T01:13:56Z</time>
  <course>239.37</course>
  <speed>0.0</speed>
  <fix>3d</fix>
</trkpt>
<trkpt lat="33.8103588" lon="-118.3938674">
  <ele>-7.948</ele>
  <time>2026-09-01T01:13:56Z</time>
  <course>357.27</course>
  <speed>0.0282842712474619</speed>
  <fix>3d</fix>
</trkpt>
<trkpt lat="33.810359" lon="-118.3938678">
  <ele>-7.75</ele>
  <time>2026-09-01T01:13:56Z</time>
  <course>239.08</course>
  <speed>0.0</speed>
  <fix>3d</fix>
</trkpt>
<trkpt lat="33.8103588" lon="-118.3938674">
  <ele>-7.949</ele>
  <time>2026-09-01T01:13:56Z</time>
  <course>357.27</course>
  <speed>0.0282842712474619</speed>
  <fix>3d</fix>
</trkpt>
<trkpt lat="33.810359" lon="-118.3938678">
  <ele>-7.75</ele>
  <time>2026-09-01T01:13:56Z</time>
  <course>239.08</course>
  <speed>0.0</speed>
  <fix>3d</fix>
</trkpt>
<trkpt lat="33.8103588" lon="-118.3938674">
  <ele>-7.949</ele>
  <time>2026-09-01T01:13:56Z</time>
  <course>357.26</course>
  <speed>0.0282842712474619</speed>
  <fix>3d</fix>
</trkpt>
<trkpt lat="33.810359" lon="-118.3938678">
  <ele>-7.75</ele>
  <time>2026-09-01T01:13:56Z</time>
  <course>238.63</course>
  <speed>0.0</speed>
  <fix>3d</fix>
</trkpt>
<trkpt lat="33.8103588" lon="-118.3938674">
  <ele>-7.95</ele>
  <time>2026-09-01T01:13:56Z</time>
  <course>357.26</course>
  <speed>0.0282842712474619</speed>
  <fix>3d</fix>
</trkpt>
<trkpt lat="33.810359" lon="-118.3938678">
  <ele>-7.75</ele>
  <time>2026-09-01T01:13:56Z</time>
  <course>238.63</course>
  <speed>0.0</speed>
  <fix>3d</fix>
</trkpt>
<trkpt lat="33.8103588" lon="-118.3938674">
  <ele>-7.95</ele>
  <time>2026-09-01T01:13:56Z</time>
  <course>357.25</course>
  <speed>0.0282842712474619</speed>
  <fix>3d</fix>
</trkpt>
<trkpt lat="33.810359" lon="-118.3938678">
  <ele>-7.75</ele>
  <time>2026-09-01T01:13:56Z</time>
  <course>238.31</course>
  <speed>0.0</speed>
  <fix>3d</fix>
</trkpt>
<trkpt lat="33.8103588" lon="-118.3938674">
  <ele>-7.95</ele>
  <time>2026-09-01T01:13:56Z</time>
  <course>357.25</course>
  <speed>0.0282842712474619</speed>
  <fix>3d</fix>
</trkpt>
<trkpt lat="33.810359" lon="-118.3938678">
  <ele>-7.75</ele>
  <time>2026-09-01T01:13:56Z</time>
  <course>238.31</course>
  <speed>0.0</speed>
  <fix>3d</fix>
</trkpt>
<trkpt lat="33.8103588" lon="-118.3938675">
  <ele>-7.951</ele>
  <time>2026-09-01T01:13:56Z</time>
  <course>357.24</course>
  <speed>0.0282842712474619</speed>
  <fix>3d</fix>
</trkpt>
<trkpt lat="33.810359" lon="-118.3938678">
  <ele>-7.75</ele>
  <time>2026-09-01T01:13:56Z</time>
  <course>238.32</course>
  <speed>0.0</speed>
  <fix>3d</fix>
</trkpt>
<trkpt lat="33.8103588" lon="-118.3938675">
  <ele>-7.951</ele>
  <time>2026-09-01T01:13:56Z</time>
  <course>357.23</course>
  <speed>0.0282842712474619</speed>
  <fix>3d</fix>
</trkpt>
<trkpt lat="33.810359" lon="-118.3938678">
  <ele>-7.75</ele>
  <time>2026-09-01T01:13:56Z</time>
  <course>238.32</course>
  <speed>0.0</speed>
  <fix>3d</fix>
</trkpt>
<trkpt lat="33.8103588" lon="-118.3938675">
  <ele>-7.952</ele>
  <time>2026-09-01T01:13:56Z</time>
  <course>357.23</course>
  <speed>0.0282842712474619</speed>
  <fix>3d</fix>
</trkpt>
<trkpt lat="33.810359" lon="-118.3938678">
  <ele>-7.76</ele>
  <time>2026-09-01T01:13:56Z</time>
  <course>238.66</course>
  <speed>0.0</speed>
  <fix>3d</fix>
</trkpt>
<trkpt lat="33.8103588" lon="-118.3938675">
  <ele>-7.952</ele>
  <time>2026-09-01T01:13:56Z</time>
  <course>357.22</course>
  <speed>0.0282842712474619</speed>
  <fix>3d</fix>
</trkpt>
<trkpt lat="33.810359" lon="-118.3938678">
  <ele>-7.76</ele>
  <time>2026-09-01T01:13:56Z</time>
  <course>238.66</course>
  <speed>0.0</speed>
  <fix>3d</fix>
</trkpt>
<trkpt lat="33.8103588" lon="-118.3938675">
  <ele>-7.952</ele>
  <time>2026-09-01T01:13:56Z</time>
  <course>357.22</course>
  <speed>0.0282842712474619</speed>
  <fix>3d</fix>
</trkpt>
<trkpt lat="33.8103589" lon="-118.3938678">
  <ele>-7.76</ele>
  <time>2026-09-01T01:13:56Z</time>
  <course>239.19</course>
  <speed>0.0</speed>
  <fix>3d</fix>
</trkpt>
<trkpt lat="33.8103588" lon="-118.3938675">
  <ele>-7.952</ele>
  <time>2026-09-01T01:13:56Z</time>
  <course>357.21</course>
  <speed>0.0282842712474619</speed>
  <fix>3d</fix>
</trkpt>
<trkpt lat="33.8103589" lon="-118.3938678">
  <ele>-7.76</ele>
  <time>2026-09-01T01:13:56Z</time>
  <course>239.19</course>
  <speed>0.0</speed>
  <fix>3d</fix>
</trkpt>
<trkpt lat="33.8103588" lon="-118.3938675">
  <ele>-7.951</ele>
  <time>2026-09-01T01:13:56Z</time>
  <course>357.21</course>
  <speed>0.0282842712474619</speed>
  <fix>3d</fix>
</trkpt>
<trkpt lat="33.8103589" lon="-118.3938678">
  <ele>-7.76</ele>
  <time>2026-09-01T01:13:56Z</time>
  <course>239.59</course>
  <speed>0.0</speed>
  <fix>3d</fix>
</trkpt>
<trkpt lat="33.8103588" lon="-118.3938675">
  <ele>-7.951</ele>
  <time>2026-09-01T01:13:56Z</time>
  <course>357.2</course>
  <speed>0.0282842712474619</speed>
  <fix>3d</fix>
</trkpt>
<trkpt lat="33.8103589" lon="-118.3938678">
  <ele>-7.76</ele>
  <time>2026-09-01T01:13:56Z</time>
  <course>239.59</course>
  <speed>0.0</speed>
  <fix>3d</fix>
</trkpt>
<trkpt lat="33.8103588" lon="-118.3938675">
  <ele>-7.949</ele>
  <time>2026-09-01T01:13:56Z</time>
  <course>357.2</course>
  <speed>0.0282842712474619</speed>
  <fix>3d</fix>
</trkpt>
<trkpt lat="33.8103589" lon="-118.3938678">
  <ele>-7.75</ele>
  <time>2026-09-01T01:13:56Z</time>
  <course>239.59</course>
  <speed>0.0</speed>
  <fix>3d</fix>
</trkpt>
<trkpt lat="33.8103588" lon="-118.3938675">
  <ele>-7.948</ele>
  <time>2026-09-01T01:13:56Z</time>
  <course>357.19</course>
  <speed>0.0282842712474619</speed>
  <fix>3d</fix>
</trkpt>
<trkpt lat="33.8103589" lon="-118.3938678">
  <ele>-7.75</ele>
  <time>2026-09-01T01:13:56Z</time>
  <course>239.59</course>
  <speed>0.0</speed>
  <fix>3d</fix>
</trkpt>
<trkpt lat="33.8103588" lon="-118.3938675">
  <ele>-7.947</ele>
  <time>2026-09-01T01:13:56Z</time>
  <course>357.19</course>
  <speed>0.0282842712474619</speed>
  <fix>3d</fix>
</trkpt>
<trkpt lat="33.8103589" lon="-118.3938678">
  <ele>-7.75</ele>
  <time>2026-09-01T01:13:56Z</time>
  <course>239.24</course>
  <speed>0.0</speed>
  <fix>3d</fix>
</trkpt>
<trkpt lat="33.8103588" lon="-118.3938675">
  <ele>-7.945</ele>
  <time>2026-09-01T01:13:56Z</time>
  <course>357.18</course>
  <speed>0.0282842712474619</speed>
  <fix>3d</fix>
</trkpt>
<trkpt lat="33.8103589" lon="-118.3938678">
  <ele>-7.75</ele>
  <time>2026-09-01T01:13:56Z</time>
  <course>239.24</course>
  <speed>0.0</speed>
  <fix>3d</fix>
</trkpt>
<trkpt lat="33.8103588" lon="-118.3938675">
  <ele>-7.944</ele>
  <time>2026-09-01T01:13:56Z</time>
  <course>357.18</course>
  <speed>0.0282842712474619</speed>
  <fix>3d</fix>
</trkpt>
<trkpt lat="33.8103589" lon="-118.3938678">
  <ele>-7.75</ele>
  <time>2026-09-01T01:13:56Z</time>
  <course>238.82</course>
  <speed>0.0</speed>
  <fix>3d</fix>
</trkpt>
<trkpt lat="33.8103588" lon="-118.3938675">
  <ele>-7.943</ele>
  <time>2026-09-01T01:13:56Z</time>
  <course>357.17</course>
  <speed>0.0282842712474619</speed>
  <fix>3d</fix>
</trkpt>
<trkpt lat="33.8103589" lon="-118.3938678">
  <ele>-7.75</ele>
  <time>2026-09-01T01:13:56Z</time>
  <course>238.82</course>
  <speed>0.0</speed>
  <fix>3d</fix>
</trkpt>
<trkpt lat="33.8103588" lon="-118.3938675">
  <ele>-7.942</ele>
  <time>2026-09-01T01:13:56Z</time>
  <course>357.17</course>
  <speed>0.0282842712474619</speed>
  <fix>3d</fix>
</trkpt>
<trkpt lat="33.8103589" lon="-118.3938679">
  <ele>-7.75</ele>
  <time>2026-09-01T01:13:56Z</time>
  <course>238.76</course>
  <speed>0.0</speed>
  <fix>3d</fix>
</trkpt>
<trkpt lat="33.8103588" lon="-118.3938675">
  <ele>-7.942</ele>
  <time>2026-09-01T01:13:56Z</time>
  <course>357.16</course>
  <speed>0.0282842712474619</speed>
  <fix>3d</fix>
</trkpt>
<trkpt lat="33.8103589" lon="-118.3938679">
  <ele>-7.75</ele>
  <time>2026-09-01T01:13:56Z</time>
  <course>238.76</course>
  <speed>0.0</speed>
  <fix>3d</fix>
</trkpt>
<trkpt lat="33.8103588" lon="-118.3938675">
  <ele>-7.943</ele>
  <time>2026-09-01T01:13:56Z</time>
  <course>357.15</course>
  <speed>0.0282842712474619</speed>
  <fix>3d</fix>
</trkpt>
<trkpt lat="33.8103589" lon="-118.3938679">
  <ele>-7.75</ele>
  <time>2026-09-01T01:13:56Z</time>
  <course>239.07</course>
  <speed>0.0</speed>
  <fix>3d</fix>
</trkpt>
<trkpt lat="33.8103588" lon="-118.3938675">
  <ele>-7.944</ele>
  <time>2026-09-01T01:13:56Z</time>
  <course>357.15</course>
  <speed>0.0282842712474619</speed>
  <fix>3d</fix>
</trkpt>
<trkpt lat="33.8103589" lon="-118.3938679">
  <ele>-7.75</ele>
  <time>2026-09-01T01:13:56Z</time>
  <course>239.07</course>
  <speed>0.0</speed>
  <fix>3d</fix>
</trkpt>
<trkpt lat="33.8103588" lon="-118.3938675">
  <ele>-7.944</ele>
  <time>2026-09-01T01:13:56Z</time>
  <course>357.14</course>
  <speed>0.0282842712474619</speed>
  <fix>3d</fix>
</trkpt>
<trkpt lat="33.8103589" lon="-118.3938679">
  <ele>-7.75</ele>
  <time>2026-09-01T01:13:56Z</time>
  <course>239.32</course>
  <speed>0.0</speed>
  <fix>3d</fix>
</trkpt>
<trkpt lat="33.8103588" lon="-118.3938675">
  <ele>-7.945</ele>
  <time>2026-09-01T01:13:56Z</time>
  <course>357.14</course>
  <speed>0.0282842712474619</speed>
  <fix>3d</fix>
</trkpt>
<trkpt lat="33.8103589" lon="-118.3938679">
  <ele>-7.75</ele>
  <time>2026-09-01T01:13:56Z</time>
  <course>239.32</course>
  <speed>0.0</speed>
  <fix>3d</fix>
</trkpt>
<trkpt lat="33.8103588" lon="-118.3938676">
  <ele>-7.946</ele>
  <time>2026-09-01T01:13:56Z</time>
  <course>357.13</course>
  <speed>0.0282842712474619</speed>
  <fix>3d</fix>
</trkpt>
<trkpt lat="33.8103589" lon="-118.3938679">
  <ele>-7.75</ele>
  <time>2026-09-01T01:13:56Z</time>
  <course>239.24</course>
  <speed>0.0</speed>
  <fix>3d</fix>
</trkpt>
<trkpt lat="33.8103588" lon="-118.3938676">
  <ele>-7.947</ele>
  <time>2026-09-01T01:13:56Z</time>
  <course>357.11</course>
  <speed>0.0282842712474619</speed>
  <fix>3d</fix>
</trkpt>
<trkpt lat="33.8103589" lon="-118.3938679">
  <ele>-7.75</ele>
  <time>2026-09-01T01:13:56Z</time>
  <course>239.24</course>
  <speed>0.0</speed>
  <fix>3d</fix>
</trkpt>
<trkpt lat="33.8103587" lon="-118.3938676">
  <ele>-7.947</ele>
  <time>2026-09-01T01:13:56Z</time>
  <course>357.07</course>
  <speed>0.0282842712474619</speed>
  <fix>3d</fix>
</trkpt>
<trkpt lat="33.8103589" lon="-118.3938679">
  <ele>-7.75</ele>
  <time>2026-09-01T01:13:56Z</time>
  <course>238.85</course>
  <speed>0.0</speed>
  <fix>3d</fix>
</trkpt>
<trkpt lat="33.8103587" lon="-118.3938676">
  <ele>-7.948</ele>
  <time>2026-09-01T01:13:56Z</time>
  <course>357.03</course>
  <speed>0.0282842712474619</speed>
  <fix>3d</fix>
</trkpt>
<trkpt lat="33.8103589" lon="-118.3938679">
  <ele>-7.75</ele>
  <time>2026-09-01T01:13:56Z</time>
  <course>238.85</course>
  <speed>0.0</speed>
  <fix>3d</fix>
</trkpt>
<trkpt lat="33.8103587" lon="-118.3938676">
  <ele>-7.948</ele>
  <time>2026-09-01T01:13:56Z</time>
  <course>356.99</course>
  <speed>0.0282842712474619</speed>
  <fix>3d</fix>
</trkpt>
<trkpt lat="33.8103589" lon="-118.3938679">
  <ele>-7.75</ele>
  <time>2026-09-01T01:13:56Z</time>
  <course>238.42</course>
  <speed>0.0</speed>
  <fix>3d</fix>
</trkpt>
<trkpt lat="33.8103587" lon="-118.3938676">
  <ele>-7.948</ele>
  <time>2026-09-01T01:13:56Z</time>
  <course>356.95</course>
  <speed>0.0282842712474619</speed>
  <fix>3d</fix>
</trkpt>
<trkpt lat="33.8103589" lon="-118.3938679">
  <ele>-7.75</ele>
  <time>2026-09-01T01:13:56Z</time>
  <course>238.42</course>
  <speed>0.0</speed>
  <fix>3d</fix>
</trkpt>
<trkpt lat="33.8103587" lon="-118.3938676">
  <ele>-7.949</ele>
  <time>2026-09-01T01:13:56Z</time>
  <course>356.93</course>
  <speed>0.0282842712474619</speed>
  <fix>3d</fix>
</trkpt>
<trkpt lat="33.8103589" lon="-118.3938679">
  <ele>-7.75</ele>
  <time>2026-09-01T01:13:56Z</time>
  <course>238.23</course>
  <speed>0.0</speed>
  <fix>3d</fix>
</trkpt>
<trkpt lat="33.8103587" lon="-118.3938676">
  <ele>-7.949</ele>
  <time>2026-09-01T01:13:56Z</time>
  <course>356.9</course>
  <speed>0.0282842712474619</speed>
  <fix>3d</fix>
</trkpt>
<trkpt lat="33.8103589" lon="-118.3938679">
  <ele>-7.75</ele>
  <time>2026-09-01T01:13:56Z</time>
  <course>238.23</course>
  <speed>0.0</speed>
  <fix>3d</fix>
</trkpt>
<trkpt lat="33.8103587" lon="-118.3938676">
  <ele>-7.949</ele>
  <time>2026-09-01T01:13:56Z</time>
  <course>356.88</course>
  <speed>0.0282842712474619</speed>
  <fix>3d</fix>
</trkpt>
<trkpt lat="33.8103589" lon="-118.3938679">
  <ele>-7.75</ele>
  <time>2026-09-01T01:13:56Z</time>
  <course>238.34</course>
  <speed>0.0</speed>
  <fix>3d</fix>
</trkpt>
<trkpt lat="33.8103587" lon="-118.3938676">
  <ele>-7.949</ele>
  <time>2026-09-01T01:13:56Z</time>
  <course>356.87</course>
  <speed>0.0282842712474619</speed>
  <fix>3d</fix>
</trkpt>
<trkpt lat="33.8103589" lon="-118.3938679">
  <ele>-7.75</ele>
  <time>2026-09-01T01:13:56Z</time>
  <course>238.34</course>
  <speed>0.0</speed>
  <fix>3d</fix>
</trkpt>
<trkpt lat="33.8103587" lon="-118.3938676">
  <ele>-7.949</ele>
  <time>2026-09-01T01:13:56Z</time>
  <course>356.85</course>
  <speed>0.0282842712474619</speed>
  <fix>3d</fix>
</trkpt>
<trkpt lat="33.8103589" lon="-118.3938679">
  <ele>-7.75</ele>
  <time>2026-09-01T01:13:56Z</time>
  <course>238.56</course>
  <speed>0.0</speed>
  <fix>3d</fix>
</trkpt>
<trkpt lat="33.8103587" lon="-118.3938676">
  <ele>-7.949</ele>
  <time>2026-09-01T01:13:56Z</time>
  <course>356.84</course>
  <speed>0.0282842712474619</speed>
  <fix>3d</fix>
</trkpt>
<trkpt lat="33.8103589" lon="-118.3938679">
  <ele>-7.75</ele>
  <time>2026-09-01T01:13:56Z</time>
  <course>238.56</course>
  <speed>0.0</speed>
  <fix>3d</fix>
</trkpt>
<trkpt lat="33.8103587" lon="-118.3938676">
  <ele>-7.948</ele>
  <time>2026-09-01T01:13:56Z</time>
  <course>356.83</course>
  <speed>0.0282842712474619</speed>
  <fix>3d</fix>
</trkpt>
<trkpt lat="33.8103589" lon="-118.3938679">
  <ele>-7.75</ele>
  <time>2026-09-01T01:13:56Z</time>
  <course>238.65</course>
  <speed>0.0</speed>
  <fix>3d</fix>
</trkpt>
<trkpt lat="33.8103587" lon="-118.3938676">
  <ele>-7.948</ele>
  <time>2026-09-01T01:13:56Z</time>
  <course>356.81</course>
  <speed>0.0282842712474619</speed>
  <fix>3d</fix>
</trkpt>
<trkpt lat="33.8103589" lon="-118.3938679">
  <ele>-7.75</ele>
  <time>2026-09-01T01:13:56Z</time>
  <course>238.65</course>
  <speed>0.0</speed>
  <fix>3d</fix>
</trkpt>
<trkpt lat="33.8103587" lon="-118.3938676">
  <ele>-7.949</ele>
  <time>2026-09-01T01:13:56Z</time>
  <course>356.8</course>
  <speed>0.0282842712474619</speed>
  <fix>3d</fix>
</trkpt>
<trkpt lat="33.8103589" lon="-118.3938679">
  <ele>-7.75</ele>
  <time>2026-09-01T01:13:56Z</time>
  <course>238.52</course>
  <speed>0.0</speed>
  <fix>3d</fix>
</trkpt>
<trkpt lat="33.8103587" lon="-118.3938676">
  <ele>-7.949</ele>
  <time>2026-09-01T01:13:56Z</time>
  <course>356.79</course>
  <speed>0.0282842712474619</speed>
  <fix>3d</fix>
</trkpt>
<trkpt lat="33.8103589" lon="-118.3938679">
  <ele>-7.75</ele>
  <time>2026-09-01T01:13:56Z</time>
  <course>238.52</course>
  <speed>0.0</speed>
  <fix>3d</fix>
</trkpt>
<trkpt lat="33.8103587" lon="-118.3938676">
  <ele>-7.95</ele>
  <time>2026-09-01T01:13:56Z</time>
  <course>356.78</course>
  <speed>0.0282842712474619</speed>
  <fix>3d</fix>
</trkpt>
<trkpt lat="33.8103589" lon="-118.393868">
  <ele>-7.76</ele>
  <time>2026-09-01T01:13:56Z</time>
  <course>238.23</course>
  <speed>0.0</speed>
  <fix>3d</fix>
</trkpt>
<trkpt lat="33.8103587" lon="-118.3938676">
  <ele>-7.951</ele>
  <time>2026-09-01T01:13:56Z</time>
  <course>356.77</course>
  <speed>0.0282842712474619</speed>
  <fix>3d</fix>
</trkpt>
<trkpt lat="33.8103589" lon="-118.393868">
  <ele>-7.76</ele>
  <time>2026-09-01T01:13:56Z</time>
  <course>238.23</course>
  <speed>0.0</speed>
  <fix>3d</fix>
</trkpt>
<trkpt lat="33.8103587" lon="-118.3938676">
  <ele>-7.952</ele>
  <time>2026-09-01T01:13:56Z</time>
  <course>356.76</course>
  <speed>0.0282842712474619</speed>
  <fix>3d</fix>
</trkpt>
<trkpt lat="33.8103589" lon="-118.393868">
  <ele>-7.76</ele>
  <time>2026-09-01T01:13:56Z</time>
  <course>237.98</course>
  <speed>0.0</speed>
  <fix>3d</fix>
</trkpt>
<trkpt lat="33.8103587" lon="-118.3938676">
  <ele>-7.953</ele>
  <time>2026-09-01T01:13:56Z</time>
  <course>356.76</course>
  <speed>0.0282842712474619</speed>
  <fix>3d</fix>
</trkpt>
<trkpt lat="33.8103589" lon="-118.393868">
  <ele>-7.76</ele>
  <time>2026-09-01T01:13:56Z</time>
  <course>237.98</course>
  <speed>0.0</speed>
  <fix>3d</fix>
</trkpt>
<trkpt lat="33.8103587" lon="-118.3938677">
  <ele>-7.953</ele>
  <time>2026-09-01T01:13:56Z</time>
  <course>356.75</course>
  <speed>0.0282842712474619</speed>
  <fix>3d</fix>
</trkpt>
<trkpt lat="33.8103589" lon="-118.393868">
  <ele>-7.76</ele>
  <time>2026-09-01T01:13:56Z</time>
  <course>237.9</course>
  <speed>0.0</speed>
  <fix>3d</fix>
</trkpt>
<trkpt lat="33.8103587" lon="-118.3938677">
  <ele>-7.952</ele>
  <time>2026-09-01T01:13:56Z</time>
  <course>356.74</course>
  <speed>0.0282842712474619</speed>
  <fix>3d</fix>
</trkpt>
<trkpt lat="33.8103589" lon="-118.393868">
  <ele>-7.76</ele>
  <time>2026-09-01T01:13:56Z</time>
  <course>237.9</course>
  <speed>0.0</speed>
  <fix>3d</fix>
</trkpt>
<trkpt lat="33.8103587" lon="-118.3938677">
  <ele>-7.952</ele>
  <time>2026-09-01T01:13:56Z</time>
  <course>356.74</course>
  <speed>0.0282842712474619</speed>
  <fix>3d</fix>
</trkpt>
<trkpt lat="33.8103589" lon="-118.393868">
  <ele>-7.76</ele>
  <time>2026-09-01T01:13:56Z</time>
  <course>237.99</course>
  <speed>0.0</speed>
  <fix>3d</fix>
</trkpt>
<trkpt lat="33.8103587" lon="-118.3938677">
  <ele>-7.951</ele>
  <time>2026-09-01T01:13:56Z</time>
  <course>356.73</course>
  <speed>0.0282842712474619</speed>
  <fix>3d</fix>
</trkpt>
<trkpt lat="33.8103589" lon="-118.393868">
  <ele>-7.76</ele>
  <time>2026-09-01T01:13:56Z</time>
  <course>237.99</course>
  <speed>0.0</speed>
  <fix>3d</fix>
</trkpt>
<trkpt lat="33.8103587" lon="-118.3938677">
  <ele>-7.948</ele>
  <time>2026-09-01T01:13:56Z</time>
  <course>356.72</course>
  <speed>0.0282842712474619</speed>
  <fix>3d</fix>
</trkpt>
<trkpt lat="33.8103589" lon="-118.393868">
  <ele>-7.75</ele>
  <time>2026-09-01T01:13:56Z</time>
  <course>238.11</course>
  <speed>0.0</speed>
  <fix>3d</fix>
</trkpt>
<trkpt lat="33.8103587" lon="-118.3938677">
  <ele>-7.944</ele>
  <time>2026-09-01T01:13:56Z</time>
  <course>356.72</course>
  <speed>0.0282842712474619</speed>
  <fix>3d</fix>
</trkpt>
<trkpt lat="33.8103589" lon="-118.393868">
  <ele>-7.75</ele>
  <time>2026-09-01T01:13:56Z</time>
  <course>238.11</course>
  <speed>0.0</speed>
  <fix>3d</fix>
</trkpt>
<trkpt lat="33.8103588" lon="-118.3938677">
  <ele>-7.939</ele>
  <time>2026-09-01T01:13:56Z</time>
  <course>356.71</course>
  <speed>0.0282842712474619</speed>
  <fix>3d</fix>
</trkpt>
<trkpt lat="33.8103589" lon="-118.393868">
  <ele>-7.75</ele>
  <time>2026-09-01T01:13:56Z</time>
  <course>238.09</course>
  <speed>0.0</speed>
  <fix>3d</fix>
</trkpt>
<trkpt lat="33.8103588" lon="-118.3938677">
  <ele>-7.932</ele>
  <time>2026-09-01T01:13:56Z</time>
  <course>356.71</course>
  <speed>0.022360679774997897</speed>
  <fix>3d</fix>
</trkpt>
<trkpt lat="33.8103589" lon="-118.393868">
  <ele>-7.75</ele>
  <time>2026-09-01T01:13:56Z</time>
  <course>238.09</course>
  <speed>0.0</speed>
  <fix>3d</fix>
</trkpt>
<trkpt lat="33.8103588" lon="-118.3938677">
  <ele>-7.909</ele>
  <time>2026-09-01T01:13:56Z</time>
  <course>356.69</course>
  <speed>0.022360679774997897</speed>
  <fix>3d</fix>
</trkpt>
<trkpt lat="33.8103588" lon="-118.393868">
  <ele>-7.73</ele>
  <time>2026-09-01T01:13:56Z</time>
  <course>237.68</course>
  <speed>0.0</speed>
  <fix>3d</fix>
</trkpt>
<trkpt lat="33.8103587" lon="-118.3938677">
  <ele>-7.892</ele>
  <time>2026-09-01T01:13:56Z</time>
  <course>356.68</course>
  <speed>0.022360679774997897</speed>
  <fix>3d</fix>
</trkpt>
<trkpt lat="33.8103587" lon="-118.393868">
  <ele>-7.71</ele>
  <time>2026-09-01T01:13:56Z</time>
  <course>237.63</course>
  <speed>0.0</speed>
  <fix>3d</fix>
</trkpt>
<trkpt lat="33.8103587" lon="-118.3938677">
  <ele>-7.886</ele>
  <time>2026-09-01T01:13:56Z</time>
  <course>356.67</course>
  <speed>0.022360679774997897</speed>
  <fix>3d</fix>
</trkpt>
<trkpt lat="33.8103587" lon="-118.393868">
  <ele>-7.71</ele>
  <time>2026-09-01T01:13:56Z</time>
  <course>237.63</course>
  <speed>0.0</speed>
  <fix>3d</fix>
</trkpt>
<trkpt lat="33.8103587" lon="-118.3938677">
  <ele>-7.873</ele>
  <time>2026-09-01T01:13:56Z</time>
  <course>356.67</course>
  <speed>0.022360679774997897</speed>
  <fix>3d</fix>
</trkpt>
<trkpt lat="33.8103587" lon="-118.393868">
  <ele>-7.7</ele>
  <time>2026-09-01T01:13:56Z</time>
  <course>237.74</course>
  <speed>0.0</speed>
  <fix>3d</fix>
</trkpt>
<trkpt lat="33.8103587" lon="-118.3938678">
  <ele>-7.866</ele>
  <time>2026-09-01T01:13:56Z</time>
  <course>356.66</course>
  <speed>0.022360679774997897</speed>
  <fix>3d</fix>
</trkpt>
<trkpt lat="33.8103587" lon="-118.393868">
  <ele>-7.68</ele>
  <time>2026-09-01T01:13:56Z</time>
  <course>237.73</course>
  <speed>0.0</speed>
  <fix>3d</fix>
</trkpt>
<trkpt lat="33.8103587" lon="-118.3938678">
  <ele>-7.858</ele>
  <time>2026-09-01T01:13:56Z</time>
  <course>356.66</course>
  <speed>0.022360679774997897</speed>
  <fix>3d</fix>
</trkpt>
<trkpt lat="33.8103587" lon="-118.393868">
  <ele>-7.68</ele>
  <time>2026-09-01T01:13:56Z</time>
  <course>237.73</course>
  <speed>0.0</speed>
  <fix>3d</fix>
</trkpt>
<trkpt lat="33.8103587" lon="-118.3938678">
  <ele>-7.85</ele>
  <time>2026-09-01T01:13:56Z</time>
  <course>356.66</course>
  <speed>0.022360679774997897</speed>
  <fix>3d</fix>
</trkpt>
<trkpt lat="33.8103587" lon="-118.3938681">
  <ele>-7.67</ele>
  <time>2026-09-01T01:13:56Z</time>
  <course>237.54</course>
  <speed>0.0</speed>
  <fix>3d</fix>
</trkpt>
<trkpt lat="33.8103586" lon="-118.3938678">
  <ele>-7.841</ele>
  <time>2026-09-01T01:13:56Z</time>
  <course>356.65</course>
  <speed>0.022360679774997897</speed>
  <fix>3d</fix>
</trkpt>
<trkpt lat="33.8103587" lon="-118.3938681">
  <ele>-7.67</ele>
  <time>2026-09-01T01:13:56Z</time>
  <course>237.54</course>
  <speed>0.0</speed>
  <fix>3d</fix>
</trkpt>
<trkpt lat="33.8103586" lon="-118.3938678">
  <ele>-7.832</ele>
  <time>2026-09-01T01:13:56Z</time>
  <course>356.65</course>
  <speed>0.022360679774997897</speed>
  <fix>3d</fix>
</trkpt>
<trkpt lat="33.8103587" lon="-118.3938681">
  <ele>-7.64</ele>
  <time>2026-09-01T01:13:56Z</time>
  <course>237.28</course>
  <speed>0.0</speed>
  <fix>3d</fix>
</trkpt>
<trkpt lat="33.8103586" lon="-118.3938678">
  <ele>-7.822</ele>
  <time>2026-09-01T01:13:56Z</time>
  <course>356.65</course>
  <speed>0.022360679774997897</speed>
  <fix>3d</fix>
</trkpt>
<trkpt lat="33.8103587" lon="-118.3938681">
  <ele>-7.64</ele>
  <time>2026-09-01T01:13:56Z</time>
  <course>237.28</course>
  <speed>0.0</speed>
  <fix>3d</fix>
</trkpt>
<trkpt lat="33.8103586" lon="-118.3938678">
  <ele>-7.812</ele>
  <time>2026-09-01T01:13:56Z</time>
  <course>356.65</course>
  <speed>0.022360679774997897</speed>
  <fix>3d</fix>
</trkpt>
<trkpt lat="33.8103587" lon="-118.3938681">
  <ele>-7.63</ele>
  <time>2026-09-01T01:13:56Z</time>
  <course>237.13</course>
  <speed>0.0</speed>
  <fix>3d</fix>
</trkpt>
<trkpt lat="33.8103586" lon="-118.3938678">
  <ele>-7.801</ele>
  <time>2026-09-01T01:13:56Z</time>
  <course>356.64</course>
  <speed>0.022360679774997897</speed>
  <fix>3d</fix>
</trkpt>
<trkpt lat="33.8103587" lon="-118.3938681">
  <ele>-7.63</ele>
  <time>2026-09-01T01:13:56Z</time>
  <course>237.13</course>
  <speed>0.0</speed>
  <fix>3d</fix>
</trkpt>
<trkpt lat="33.8103586" lon="-118.3938678">
  <ele>-7.789</ele>
  <time>2026-09-01T01:13:56Z</time>
  <course>356.64</course>
  <speed>0.022360679774997897</speed>
  <fix>3d</fix>
</trkpt>
<trkpt lat="33.8103587" lon="-118.3938681">
  <ele>-7.62</ele>
  <time>2026-09-01T01:13:56Z</time>
  <course>237.17</course>
  <speed>0.0</speed>
  <fix>3d</fix>
</trkpt>
<trkpt lat="33.8103586" lon="-118.3938678">
  <ele>-7.777</ele>
  <time>2026-09-01T01:13:56Z</time>
  <course>356.64</course>
  <speed>0.022360679774997897</speed>
  <fix>3d</fix>
</trkpt>
<trkpt lat="33.8103587" lon="-118.3938681">
  <ele>-7.62</ele>
  <time>2026-09-01T01:13:56Z</time>
  <course>237.17</course>
  <speed>0.0</speed>
  <fix>3d</fix>
</trkpt>
<trkpt lat="33.8103586" lon="-118.3938678">
  <ele>-7.766</ele>
  <time>2026-09-01T01:13:56Z</time>
  <course>356.64</course>
  <speed>0.022360679774997897</speed>
  <fix>3d</fix>
</trkpt>
<trkpt lat="33.8103587" lon="-118.3938681">
  <ele>-7.6</ele>
  <time>2026-09-01T01:13:56Z</time>
  <course>237.31</course>
  <speed>0.0</speed>
  <fix>3d</fix>
</trkpt>
<trkpt lat="33.8103586" lon="-118.3938678">
  <ele>-7.756</ele>
  <time>2026-09-01T01:13:56Z</time>
  <course>356.63</course>
  <speed>0.022360679774997897</speed>
  <fix>3d</fix>
</trkpt>
<trkpt lat="33.8103587" lon="-118.3938681">
  <ele>-7.6</ele>
  <time>2026-09-01T01:13:56Z</time>
  <course>237.31</course>
  <speed>0.0</speed>
  <fix>3d</fix>
</trkpt>
<trkpt lat="33.8103586" lon="-118.3938678">
  <ele>-7.747</ele>
  <time>2026-09-01T01:13:56Z</time>
  <course>356.63</course>
  <speed>0.022360679774997897</speed>
  <fix>3d</fix>
</trkpt>
<trkpt lat="33.8103587" lon="-118.3938681">
  <ele>-7.58</ele>
  <time>2026-09-01T01:13:56Z</time>
  <course>237.37</course>
  <speed>0.0</speed>
  <fix>3d</fix>
</trkpt>
<trkpt lat="33.8103586" lon="-118.3938679">
  <ele>-7.737</ele>
  <time>2026-09-01T01:13:56Z</time>
  <course>356.63</course>
  <speed>0.022360679774997897</speed>
  <fix>3d</fix>
</trkpt>
<trkpt lat="33.8103587" lon="-118.3938681">
  <ele>-7.58</ele>
  <time>2026-09-01T01:13:56Z</time>
  <course>237.37</course>
  <speed>0.0</speed>
  <fix>3d</fix>
</trkpt>
<trkpt lat="33.8103586" lon="-118.3938679">
  <ele>-7.727</ele>
  <time>2026-09-01T01:13:56Z</time>
  <course>356.63</course>
  <speed>0.022360679774997897</speed>
  <fix>3d</fix>
</trkpt>
<trkpt lat="33.8103587" lon="-118.3938681">
  <ele>-7.56</ele>
  <time>2026-09-01T01:13:56Z</time>
  <course>237.26</course>
  <speed>0.0</speed>
  <fix>3d</fix>
</trkpt>
<trkpt lat="33.8103586" lon="-118.3938679">
  <ele>-7.717</ele>
  <time>2026-09-01T01:13:56Z</time>
  <course>356.62</course>
  <speed>0.022360679774997897</speed>
  <fix>3d</fix>
</trkpt>
<trkpt lat="33.8103587" lon="-118.3938681">
  <ele>-7.56</ele>
  <time>2026-09-01T01:13:56Z</time>
  <course>237.26</course>
  <speed>0.0</speed>
  <fix>3d</fix>
</trkpt>
<trkpt lat="33.8103586" lon="-118.3938679">
  <ele>-7.708</ele>
  <time>2026-09-01T01:13:56Z</time>
  <course>356.62</course>
  <speed>0.022360679774997897</speed>
  <fix>3d</fix>
</trkpt>
<trkpt lat="33.8103587" lon="-118.3938681">
  <ele>-7.55</ele>
  <time>2026-09-01T01:13:56Z</time>
  <course>237.01</course>
  <speed>0.0</speed>
  <fix>3d</fix>
</trkpt>
<trkpt lat="33.8103586" lon="-118.3938679">
  <ele>-7.698</ele>
  <time>2026-09-01T01:13:56Z</time>
  <course>356.62</course>
  <speed>0.022360679774997897</speed>
  <fix>3d</fix>
</trkpt>
<trkpt lat="33.8103587" lon="-118.3938681">
  <ele>-7.55</ele>
  <time>2026-09-01T01:13:56Z</time>
  <course>237.01</course>
  <speed>0.0</speed>
  <fix>3d</fix>
</trkpt>
<trkpt lat="33.8103586" lon="-118.3938679">
  <ele>-7.689</ele>
  <time>2026-09-01T01:13:56Z</time>
  <course>356.62</course>
  <speed>0.022360679774997897</speed>
  <fix>3d</fix>
</trkpt>
<trkpt lat="33.8103587" lon="-118.3938681">
  <ele>-7.52</ele>
  <time>2026-09-01T01:13:56Z</time>
  <course>236.78</course>
  <speed>0.0</speed>
  <fix>3d</fix>
</trkpt>
<trkpt lat="33.8103586" lon="-118.3938679">
  <ele>-7.681</ele>
  <time>2026-09-01T01:13:56Z</time>
  <course>356.62</course>
  <speed>0.022360679774997897</speed>
  <fix>3d</fix>
</trkpt>
<trkpt lat="33.8103587" lon="-118.3938681">
  <ele>-7.52</ele>
  <time>2026-09-01T01:13:56Z</time>
  <course>236.78</course>
  <speed>0.0</speed>
  <fix>3d</fix>
</trkpt>
<trkpt lat="33.8103586" lon="-118.3938679">
  <ele>-7.671</ele>
  <time>2026-09-01T01:13:56Z</time>
  <course>356.61</course>
  <speed>0.022360679774997897</speed>
  <fix>3d</fix>
</trkpt>
<trkpt lat="33.8103587" lon="-118.3938681">
  <ele>-7.51</ele>
  <time>2026-09-01T01:13:56Z</time>
  <course>236.72</course>
  <speed>0.0</speed>
  <fix>3d</fix>
</trkpt>
<trkpt lat="33.8103586" lon="-118.3938679">
  <ele>-7.661</ele>
  <time>2026-09-01T01:13:56Z</time>
  <course>356.61</course>
  <speed>0.022360679774997897</speed>
  <fix>3d</fix>
</trkpt>
<trkpt lat="33.8103587" lon="-118.3938681">
  <ele>-7.51</ele>
  <time>2026-09-01T01:13:56Z</time>
  <course>236.72</course>
  <speed>0.0</speed>
  <fix>3d</fix>
</trkpt>
<trkpt lat="33.8103586" lon="-118.3938679">
  <ele>-7.65</ele>
  <time>2026-09-01T01:13:56Z</time>
  <course>356.61</course>
  <speed>0.022360679774997897</speed>
  <fix>3d</fix>
</trkpt>
<trkpt lat="33.8103587" lon="-118.3938681">
  <ele>-7.49</ele>
  <time>2026-09-01T01:13:56Z</time>
  <course>236.82</course>
  <speed>0.0</speed>
  <fix>3d</fix>
</trkpt>
<trkpt lat="33.4368002" lon="-117.0859339">
  <ele>-0.11</ele>
  <time>2026-09-01T01:13:57Z</time>
  <course>0.0</course>
  <speed>0.0</speed>
  <fix>3d</fix>
</trkpt>
<trkpt lat="33.4368002" lon="-117.0859339">
  <ele>-0.11</ele>
  <time>2026-09-01T01:13:57Z</time>
  <course>0.0</course>
  <speed>0.0</speed>
  <fix>3d</fix>
</trkpt>
<trkpt lat="33.810313" lon="-118.393867">
  <ele>0.0</ele>
  <time>2026-09-01T01:13:57Z</time>
  <course>173.5</course>
  <speed>0.0</speed>
  <fix>3d</fix>
</trkpt>
<trkpt lat="33.810313" lon="-118.393867">
  <ele>-0.11</ele>
  <time>2026-09-01T01:13:57Z</time>
  <course>0.0</course>
  <speed>0.0</speed>
  <fix>3d</fix>
</trkpt>
<trkpt lat="33.810313" lon="-118.393867">
  <ele>0.0</ele>
  <time>2026-09-01T01:13:57Z</time>
  <course>173.61</course>
  <speed>0.0</speed>
  <fix>3d</fix>
</trkpt>
<trkpt lat="33.810313" lon="-118.393867">
  <ele>-0.11</ele>
  <time>2026-09-01T01:13:57Z</time>
  <course>0.0</course>
  <speed>0.0</speed>
  <fix>3d</fix>
</trkpt>
<trkpt lat="33.810313" lon="-118.393867">
  <ele>0.0</ele>
  <time>2026-09-01T01:13:57Z</time>
  <course>173.98</course>
  <speed>0.0</speed>
  <fix>3d</fix>
</trkpt>
<trkpt lat="33.810313" lon="-118.393867">
  <ele>-0.11</ele>
  <time>2026-09-01T01:13:57Z</time>
  <course>0.0</course>
  <speed>0.0</speed>
  <fix>3d</fix>
</trkpt>
<trkpt lat="33.810313" lon="-118.393867">
  <ele>0.0</ele>
  <time>2026-09-01T01:13:57Z</time>
  <course>174.51</course>
  <speed>0.0</speed>
  <fix>3d</fix>
</trkpt>
<trkpt lat="33.810313" lon="-118.393867">
  <ele>-0.11</ele>
  <time>2026-09-01T01:13:57Z</time>
  <course>0.0</course>
  <speed>0.0</speed>
  <fix>3d</fix>
</trkpt>
<trkpt lat="33.810313" lon="-118.393867">
  <ele>0.0</ele>
  <time>2026-09-01T01:13:57Z</time>
  <course>175.07</course>
  <speed>0.0</speed>
  <fix>3d</fix>
</trkpt>
<trkpt lat="33.810313" lon="-118.393867">
  <ele>-0.12</ele>
  <time>2026-09-01T01:13:57Z</time>
  <course>0.0</course>
  <speed>0.0</speed>
  <fix>3d</fix>
</trkpt>
<trkpt lat="33.810313" lon="-118.393867">
  <ele>0.0</ele>
  <time>2026-09-01T01:13:57Z</time>
  <course>175.61</course>
  <speed>0.0</speed>
  <fix>3d</fix>
</trkpt>
<trkpt lat="33.810313" lon="-118.393867">
  <ele>-0.12</ele>
  <time>2026-09-01T01:13:57Z</time>
  <course>0.0</course>
  <speed>0.0</speed>
  <fix>3d</fix>
</trkpt>
<trkpt lat="33.810313" lon="-118.393867">
  <ele>0.0</ele>
  <time>2026-09-01T01:13:57Z</time>
  <course>176.12</course>
  <speed>0.0</speed>
  <fix>3d</fix>
</trkpt>
<trkpt lat="33.810313" lon="-118.393867">
  <ele>-0.13</ele>
  <time>2026-09-01T01:13:57Z</time>
  <course>0.0</course>
  <speed>0.0</speed>
  <fix>3d</fix>
</trkpt>
<trkpt lat="33.810313" lon="-118.393867">
  <ele>0.0</ele>
  <time>2026-09-01T01:13:57Z</time>
  <course>176.6</course>
  <speed>0.0</speed>
  <fix>3d</fix>
</trkpt>
<trkpt lat="33.810313" lon="-118.393867">
  <ele>-0.13</ele>
  <time>2026-09-01T01:13:57Z</time>
  <course>0.0</course>
  <speed>0.0</speed>
  <fix>3d</fix>
</trkpt>
<trkpt lat="33.810313" lon="-118.393867">
  <ele>0.0</ele>
  <time>2026-09-01T01:13:57Z</time>
  <course>177.07</course>
  <speed>0.0</speed>
  <fix>3d</fix>
</trkpt>
<trkpt lat="33.810313" lon="-118.393867">
  <ele>-0.13</ele>
  <time>2026-09-01T01:13:57Z</time>
  <course>0.0</course>
  <speed>0.0</speed>
  <fix>3d</fix>
</trkpt>
<trkpt lat="33.810313" lon="-118.393867">
  <ele>0.0</ele>
  <time>2026-09-01T01:13:57Z</time>
  <course>177.53</course>
  <speed>0.0</speed>
  <fix>3d</fix>
</trkpt>
<trkpt lat="33.810313" lon="-118.393867">
  <ele>-0.13</ele>
  <time>2026-09-01T01:13:57Z</time>
  <course>0.0</course>
  <speed>0.0</speed>
  <fix>3d</fix>
</trkpt>
<trkpt lat="33.810313" lon="-118.393867">
  <ele>0.0</ele>
  <time>2026-09-01T01:13:57Z</time>
  <course>177.97</course>
  <speed>0.0</speed>
  <fix>3d</fix>
</trkpt>
<trkpt lat="33.810313" lon="-118.393867">
  <ele>-0.14</ele>
  <time>2026-09-01T01:13:57Z</time>
  <course>0.0</course>
  <speed>0.0</speed>
  <fix>3d</fix>
</trkpt>
<trkpt lat="33.810313" lon="-118.393867">
  <ele>0.0</ele>
  <time>2026-09-01T01:13:57Z</time>
  <course>178.4</course>
  <speed>0.0</speed>
  <fix>3d</fix>
</trkpt>
<trkpt lat="33.810313" lon="-118.393867">
  <ele>-0.14</ele>
  <time>2026-09-01T01:13:57Z</time>
  <course>0.0</course>
  <speed>0.0</speed>
  <fix>3d</fix>
</trkpt>
<trkpt lat="33.810313" lon="-118.393867">
  <ele>0.0</ele>
  <time>2026-09-01T01:13:57Z</time>
  <course>178.83</course>
  <speed>0.0</speed>
  <fix>3d</fix>
</trkpt>
<trkpt lat="33.810313" lon="-118.393867">
  <ele>-0.14</ele>
  <time>2026-09-01T01:13:57Z</time>
  <course>0.0</course>
  <speed>0.0</speed>
  <fix>3d</fix>
</trkpt>
<trkpt lat="33.810313" lon="-118.393867">
  <ele>0.0</ele>
  <time>2026-09-01T01:13:57Z</time>
  <course>179.23</course>
  <speed>0.0</speed>
  <fix>3d</fix>
</trkpt>
<trkpt lat="33.810313" lon="-118.393867">
  <ele>-0.14</ele>
  <time>2026-09-01T01:13:57Z</time>
  <course>0.0</course>
  <speed>0.0</speed>
  <fix>3d</fix>
</trkpt>
<trkpt lat="33.810313" lon="-118.393867">
  <ele>0.0</ele>
  <time>2026-09-01T01:13:57Z</time>
  <course>179.62</course>
  <speed>0.0</speed>
  <fix>3d</fix>
</trkpt>
<trkpt lat="33.810313" lon="-118.393867">
  <ele>-0.14</ele>
  <time>2026-09-01T01:13:57Z</time>
  <course>0.0</course>
  <speed>0.0</speed>
  <fix>3d</fix>
</trkpt>
<trkpt lat="33.810313" lon="-118.393867">
  <ele>0.0</ele>
  <time>2026-09-01T01:13:57Z</time>
  <course>180.01</course>
  <speed>0.0</speed>
  <fix>3d</fix>
</trkpt>
<trkpt lat="33.810313" lon="-118.393867">
  <ele>-0.14</ele>
  <time>2026-09-01T01:13:57Z</time>
  <course>0.0</course>
  <speed>0.0</speed>
  <fix>3d</fix>
</trkpt>
<trkpt lat="33.810313" lon="-118.393867">
  <ele>0.0</ele>
  <time>2026-09-01T01:13:57Z</time>
  <course>180.37</course>
  <speed>0.0</speed>
  <fix>3d</fix>
</trkpt>
<trkpt lat="33.810313" lon="-118.393867">
  <ele>-0.14</ele>
  <time>2026-09-01T01:13:57Z</time>
  <course>0.0</course>
  <speed>0.0</speed>
  <fix>3d</fix>
</trkpt>
<trkpt lat="33.810313" lon="-118.393867">
  <ele>0.0</ele>
  <time>2026-09-01T01:13:57Z</time>
  <course>180.73</course>
  <speed>0.0</speed>
  <fix>3d</fix>
</trkpt>
<trkpt lat="33.810313" lon="-118.393867">
  <ele>-0.14</ele>
  <time>2026-09-01T01:13:57Z</time>
  <course>0.0</course>
  <speed>0.0</speed>
  <fix>3d</fix>
</trkpt>
<trkpt lat="33.810313" lon="-118.393867">
  <ele>0.0</ele>
  <time>2026-09-01T01:13:57Z</time>
  <course>181.07</course>
  <speed>0.0</speed>
  <fix>3d</fix>
</trkpt>
<trkpt lat="33.810313" lon="-118.393867">
  <ele>-0.13</ele>
  <time>2026-09-01T01:13:57Z</time>
  <course>0.0</course>
  <speed>0.0</speed>
  <fix>3d</fix>
</trkpt>
<trkpt lat="33.810313" lon="-118.393867">
  <ele>0.0</ele>
  <time>2026-09-01T01:13:57Z</time>
  <course>181.4</course>
  <speed>0.0</speed>
  <fix>3d</fix>
</trkpt>
<trkpt lat="33.810313" lon="-118.393867">
  <ele>-0.13</ele>
  <time>2026-09-01T01:13:57Z</time>
  <course>0.0</course>
  <speed>0.0</speed>
  <fix>3d</fix>
</trkpt>
<trkpt lat="33.810313" lon="-118.393867">
  <ele>0.0</ele>
  <time>2026-09-01T01:13:57Z</time>
  <course>181.72</course>
  <speed>0.0</speed>
  <fix>3d</fix>
</trkpt>
<trkpt lat="33.810313" lon="-118.393867">
  <ele>-0.12</ele>
  <time>2026-09-01T01:13:57Z</time>
  <course>0.0</course>
  <speed>0.0</speed>
  <fix>3d</fix>
</trkpt>
<trkpt lat="33.810313" lon="-118.393867">
  <ele>0.0</ele>
  <time>2026-09-01T01:13:57Z</time>
  <course>182.02</course>
  <speed>0.0</speed>
  <fix>3d</fix>
</trkpt>
<trkpt lat="33.810313" lon="-118.393867">
  <ele>-0.12</ele>
  <time>2026-09-01T01:13:57Z</time>
  <course>0.0</course>
  <speed>0.0</speed>
  <fix>3d</fix>
</trkpt>
<trkpt lat="33.810313" lon="-118.393867">
  <ele>0.0</ele>
  <time>2026-09-01T01:13:57Z</time>
  <course>182.32</course>
  <speed>0.0</speed>
  <fix>3d</fix>
</trkpt>
<trkpt lat="33.810313" lon="-118.393867">
  <ele>-0.12</ele>
  <time>2026-09-01T01:13:57Z</time>
  <course>0.0</course>
  <speed>0.0</speed>
  <fix>3d</fix>
</trkpt>
<trkpt lat="33.810313" lon="-118.393867">
  <ele>0.0</ele>
  <time>2026-09-01T01:13:57Z</time>
  <course>182.6</course>
  <speed>0.0</speed>
  <fix>3d</fix>
</trkpt>
<trkpt lat="33.810313" lon="-118.393867">
  <ele>-0.12</ele>
  <time>2026-09-01T01:13:57Z</time>
  <course>0.0</course>
  <speed>0.0</speed>
  <fix>3d</fix>
</trkpt>
<trkpt lat="33.810313" lon="-118.393867">
  <ele>0.0</ele>
  <time>2026-09-01T01:13:57Z</time>
  <course>182.87</course>
  <speed>0.0</speed>
  <fix>3d</fix>
</trkpt>
<trkpt lat="33.810313" lon="-118.393867">
  <ele>-0.11</ele>
  <time>2026-09-01T01:13:57Z</time>
  <course>0.0</course>
  <speed>0.0</speed>
  <fix>3d</fix>
</trkpt>
<trkpt lat="33.810313" lon="-118.393867">
  <ele>0.0</ele>
  <time>2026-09-01T01:13:57Z</time>
  <course>183.14</course>
  <speed>0.0</speed>
  <fix>3d</fix>
</trkpt>
<trkpt lat="33.810313" lon="-118.393867">
  <ele>-0.11</ele>
  <time>2026-09-01T01:13:57Z</time>
  <course>0.0</course>
  <speed>0.0</speed>
  <fix>3d</fix>
</trkpt>
<trkpt lat="33.810313" lon="-118.393867">
  <ele>0.0</ele>
  <time>2026-09-01T01:13:57Z</time>
  <course>183.39</course>
  <speed>0.0</speed>
  <fix>3d</fix>
</trkpt>
<trkpt lat="33.810313" lon="-118.393867">
  <ele>-0.11</ele>
  <time>2026-09-01T01:13:57Z</time>
  <course>0.0</course>
  <speed>0.0</speed>
  <fix>3d</fix>
</trkpt>
<trkpt lat="33.810313" lon="-118.393867">
  <ele>0.0</ele>
  <time>2026-09-01T01:13:57Z</time>
  <course>183.63</course>
  <speed>0.0</speed>
  <fix>3d</fix>
</trkpt>
<trkpt lat="33.810313" lon="-118.393867">
  <ele>-0.11</ele>
  <time>2026-09-01T01:13:57Z</time>
  <course>0.0</course>
  <speed>0.0</speed>
  <fix>3d</fix>
</trkpt>
<trkpt lat="33.810313" lon="-118.393867">
  <ele>0.0</ele>
  <time>2026-09-01T01:13:57Z</time>
  <course>183.86</course>
  <speed>0.0</speed>
  <fix>3d</fix>
</trkpt>
<trkpt lat="33.810313" lon="-118.393867">
  <ele>-0.12</ele>
  <time>2026-09-01T01:13:57Z</time>
  <course>0.0</course>
  <speed>0.0</speed>
  <fix>3d</fix>
</trkpt>
<trkpt lat="33.810313" lon="-118.393867">
  <ele>0.0</ele>
  <time>2026-09-01T01:13:57Z</time>
  <course>184.08</course>
  <speed>0.0</speed>
  <fix>3d</fix>
</trkpt>
<trkpt lat="33.810313" lon="-118.393867">
  <ele>-0.12</ele>
  <time>2026-09-01T01:13:57Z</time>
  <course>0.0</course>
  <speed>0.0</speed>
  <fix>3d</fix>
</trkpt>
<trkpt lat="33.810313" lon="-118.393867">
  <ele>0.0</ele>
  <time>2026-09-01T01:13:57Z</time>
  <course>184.3</course>
  <speed>0.0</speed>
  <fix>3d</fix>
</trkpt>
<trkpt lat="33.810313" lon="-118.393867">
  <ele>-0.13</ele>
  <time>2026-09-01T01:13:57Z</time>
  <course>0.0</course>
  <speed>0.0</speed>
  <fix>3d</fix>
</trkpt>
<trkpt lat="33.810313" lon="-118.393867">
  <ele>0.0</ele>
  <time>2026-09-01T01:13:57Z</time>
  <course>184.5</course>
  <speed>0.0</speed>
  <fix>3d</fix>
</trkpt>
<trkpt lat="33.810313" lon="-118.393867">
  <ele>-0.13</ele>
  <time>2026-09-01T01:13:57Z</time>
  <course>0.0</course>
  <speed>0.0</speed>
  <fix>3d</fix>
</trkpt>
<trkpt lat="33.810313" lon="-118.393867">
  <ele>0.0</ele>
  <time>2026-09-01T01:13:57Z</time>
  <course>184.7</course>
  <speed>0.0</speed>
  <fix>3d</fix>
</trkpt>
<trkpt lat="33.810313" lon="-118.393867">
  <ele>-0.13</ele>
  <time>2026-09-01T01:13:57Z</time>
  <course>0.0</course>
  <speed>0.0</speed>
  <fix>3d</fix>
</trkpt>
<trkpt lat="33.810313" lon="-118.393867">
  <ele>0.0</ele>
  <time>2026-09-01T01:13:57Z</time>
  <course>184.89</course>
  <speed>0.0</speed>
  <fix>3d</fix>
</trkpt>
<trkpt lat="33.810313" lon="-118.393867">
  <ele>-0.13</ele>
  <time>2026-09-01T01:13:57Z</time>
  <course>0.0</course>
  <speed>0.0</speed>
  <fix>3d</fix>
</trkpt>
<trkpt lat="33.810313" lon="-118.393867">
  <ele>0.0</ele>
  <time>2026-09-01T01:13:57Z</time>
  <course>185.07</course>
  <speed>0.0</speed>
  <fix>3d</fix>
</trkpt>
<trkpt lat="33.810313" lon="-118.393867">
  <ele>-0.14</ele>
  <time>2026-09-01T01:13:57Z</time>
  <course>0.0</course>
  <speed>0.0</speed>
  <fix>3d</fix>
</trkpt>
<trkpt lat="33.810313" lon="-118.393867">
  <ele>0.0</ele>
  <time>2026-09-01T01:13:57Z</time>
  <course>185.24</course>
  <speed>0.0</speed>
  <fix>3d</fix>
</trkpt>
<trkpt lat="33.810313" lon="-118.393867">
  <ele>-0.14</ele>
  <time>2026-09-01T01:13:57Z</time>
  <course>0.0</course>
  <speed>0.0</speed>
  <fix>3d</fix>
</trkpt>
<trkpt lat="33.810313" lon="-118.393867">
  <ele>0.0</ele>
  <time>2026-09-01T01:13:57Z</time>
  <course>185.41</course>
  <speed>0.0</speed>
  <fix>3d</fix>
</trkpt>
<trkpt lat="33.810313" lon="-118.393867">
  <ele>-0.13</ele>
  <time>2026-09-01T01:13:57Z</time>
  <course>0.0</course>
  <speed>0.0</speed>
  <fix>3d</fix>
</trkpt>
<trkpt lat="33.810313" lon="-118.393867">
  <ele>0.0</ele>
  <time>2026-09-01T01:13:57Z</time>
  <course>185.56</course>
  <speed>0.0</speed>
  <fix>3d</fix>
</trkpt>
<trkpt lat="33.810313" lon="-118.393867">
  <ele>-0.13</ele>
  <time>2026-09-01T01:13:57Z</time>
  <course>0.0</course>
  <speed>0.0</speed>
  <fix>3d</fix>
</trkpt>
<trkpt lat="33.810313" lon="-118.393867">
  <ele>0.0</ele>
  <time>2026-09-01T01:13:57Z</time>
  <course>185.72</course>
  <speed>0.0</speed>
  <fix>3d</fix>
</trkpt>
<trkpt lat="33.810313" lon="-118.393867">
  <ele>-0.13</ele>
  <time>2026-09-01T01:13:57Z</time>
  <course>0.0</course>
  <speed>0.0</speed>
  <fix>3d</fix>
</trkpt>
<trkpt lat="33.810313" lon="-118.393867">
  <ele>0.0</ele>
  <time>2026-09-01T01:13:57Z</time>
  <course>185.86</course>
  <speed>0.0</speed>
  <fix>3d</fix>
</trkpt>
<trkpt lat="33.810313" lon="-118.393867">
  <ele>-0.13</ele>
  <time>2026-09-01T01:13:57Z</time>
  <course>0.0</course>
  <speed>0.0</speed>
  <fix>3d</fix>
</trkpt>
<trkpt lat="33.810313" lon="-118.393867">
  <ele>0.0</ele>
  <time>2026-09-01T01:13:57Z</time>
  <course>186.0</course>
  <speed>0.0</speed>
  <fix>3d</fix>
</trkpt>
<trkpt lat="33.810313" lon="-118.393867">
  <ele>-0.12</ele>
  <time>2026-09-01T01:13:57Z</time>
  <course>0.0</course>
  <speed>0.0</speed>
  <fix>3d</fix>
</trkpt>
<trkpt lat="33.810313" lon="-118.393867">
  <ele>0.0</ele>
  <time>2026-09-01T01:13:57Z</time>
  <course>186.13</course>
  <speed>0.0</speed>
  <fix>3d</fix>
</trkpt>
<trkpt lat="33.810313" lon="-118.393867">
  <ele>-0.12</ele>
  <time>2026-09-01T01:13:57Z</time>
  <course>0.0</course>
  <speed>0.0</speed>
  <fix>3d</fix>
</trkpt>
<trkpt lat="33.810313" lon="-118.393867">
  <ele>0.0</ele>
  <time>2026-09-01T01:13:57Z</time>
  <course>186.26</course>
  <speed>0.0</speed>
  <fix>3d</fix>
</trkpt>
<trkpt lat="33.810313" lon="-118.393867">
  <ele>-0.12</ele>
  <time>2026-09-01T01:13:57Z</time>
  <course>0.0</course>
  <speed>0.0</speed>
  <fix>3d</fix>
</trkpt>
<trkpt lat="33.810313" lon="-118.393867">
  <ele>0.0</ele>
  <time>2026-09-01T01:13:57Z</time>
  <course>186.38</course>
  <speed>0.0</speed>
  <fix>3d</fix>
</trkpt>
<trkpt lat="33.810313" lon="-118.393867">
  <ele>-0.12</ele>
  <time>2026-09-01T01:13:57Z</time>
  <course>0.0</course>
  <speed>0.0</speed>
  <fix>3d</fix>
</trkpt>
<trkpt lat="33.810313" lon="-118.393867">
  <ele>0.0</ele>
  <time>2026-09-01T01:13:57Z</time>
  <course>186.49</course>
  <speed>0.0</speed>
  <fix>3d</fix>
</trkpt>
<trkpt lat="33.810313" lon="-118.393867">
  <ele>-0.12</ele>
  <time>2026-09-01T01:13:57Z</time>
  <course>0.0</course>
  <speed>0.0</speed>
  <fix>3d</fix>
</trkpt>
<trkpt lat="33.810313" lon="-118.393867">
  <ele>0.0</ele>
  <time>2026-09-01T01:13:57Z</time>
  <course>186.6</course>
  <speed>0.0</speed>
  <fix>3d</fix>
</trkpt>
<trkpt lat="33.810313" lon="-118.393867">
  <ele>-0.12</ele>
  <time>2026-09-01T01:13:57Z</time>
  <course>0.0</course>
  <speed>0.0</speed>
  <fix>3d</fix>
</trkpt>
<trkpt lat="33.810313" lon="-118.393867">
  <ele>0.0</ele>
  <time>2026-09-01T01:13:57Z</time>
  <course>186.71</course>
  <speed>0.0</speed>
  <fix>3d</fix>
</trkpt>
<trkpt lat="33.810313" lon="-118.393867">
  <ele>-0.12</ele>
  <time>2026-09-01T01:13:57Z</time>
  <course>0.0</course>
  <speed>0.0</speed>
  <fix>3d</fix>
</trkpt>
<trkpt lat="33.810313" lon="-118.393867">
  <ele>0.0</ele>
  <time>2026-09-01T01:13:57Z</time>
  <course>186.81</course>
  <speed>0.0</speed>
  <fix>3d</fix>
</trkpt>
<trkpt lat="33.810313" lon="-118.393867">
  <ele>-0.12</ele>
  <time>2026-09-01T01:13:57Z</time>
  <course>0.0</course>
  <speed>0.0</speed>
  <fix>3d</fix>
</trkpt>
<trkpt lat="33.810313" lon="-118.393867">
  <ele>0.0</ele>
  <time>2026-09-01T01:13:57Z</time>
  <course>186.9</course>
  <speed>0.0</speed>
  <fix>3d</fix>
</trkpt>
<trkpt lat="33.810313" lon="-118.393867">
  <ele>-0.12</ele>
  <time>2026-09-01T01:13:57Z</time>
  <course>0.0</course>
  <speed>0.0</speed>
  <fix>3d</fix>
</trkpt>
<trkpt lat="33.810313" lon="-118.393867">
  <ele>0.0</ele>
  <time>2026-09-01T01:13:57Z</time>
  <course>187.0</course>
  <speed>0.0</speed>
  <fix>3d</fix>
</trkpt>
<trkpt lat="33.810313" lon="-118.393867">
  <ele>-0.12</ele>
  <time>2026-09-01T01:13:57Z</time>
  <course>0.0</course>
  <speed>0.0</speed>
  <fix>3d</fix>
</trkpt>
<trkpt lat="33.810313" lon="-118.393867">
  <ele>0.0</ele>
  <time>2026-09-01T01:13:57Z</time>
  <course>187.08</course>
  <speed>0.0</speed>
  <fix>3d</fix>
</trkpt>
<trkpt lat="33.810313" lon="-118.393867">
  <ele>-0.13</ele>
  <time>2026-09-01T01:13:57Z</time>
  <course>0.0</course>
  <speed>0.0</speed>
  <fix>3d</fix>
</trkpt>
<trkpt lat="33.810313" lon="-118.393867">
  <ele>0.0</ele>
  <time>2026-09-01T01:13:57Z</time>
  <course>187.17</course>
  <speed>0.0</speed>
  <fix>3d</fix>
</trkpt>
<trkpt lat="33.810313" lon="-118.393867">
  <ele>-0.13</ele>
  <time>2026-09-01T01:13:57Z</time>
  <course>0.0</course>
  <speed>0.0</speed>
  <fix>3d</fix>
</trkpt>
<trkpt lat="33.810313" lon="-118.393867">
  <ele>0.0</ele>
  <time>2026-09-01T01:13:57Z</time>
  <course>187.24</course>
  <speed>0.0</speed>
  <fix>3d</fix>
</trkpt>
<trkpt lat="33.810313" lon="-118.393867">
  <ele>-0.13</ele>
  <time>2026-09-01T01:13:57Z</time>
  <course>0.0</course>
  <speed>0.0</speed>
  <fix>3d</fix>
</trkpt>
<trkpt lat="33.810313" lon="-118.393867">
  <ele>0.0</ele>
  <time>2026-09-01T01:13:57Z</time>
  <course>187.32</course>
  <speed>0.0</speed>
  <fix>3d</fix>
</trkpt>
<trkpt lat="33.810313" lon="-118.393867">
  <ele>-0.13</ele>
  <time>2026-09-01T01:13:57Z</time>
  <course>0.0</course>
  <speed>0.0</speed>
  <fix>3d</fix>
</trkpt>
<trkpt lat="33.810313" lon="-118.393867">
  <ele>0.0</ele>
  <time>2026-09-01T01:13:57Z</time>
  <course>187.39</course>
  <speed>0.0</speed>
  <fix>3d</fix>
</trkpt>
<trkpt lat="33.810313" lon="-118.393867">
  <ele>-0.13</ele>
  <time>2026-09-01T01:13:57Z</time>
  <course>0.0</course>
  <speed>0.0</speed>
  <fix>3d</fix>
</trkpt>
<trkpt lat="33.810313" lon="-118.393867">
  <ele>0.0</ele>
  <time>2026-09-01T01:13:57Z</time>
  <course>187.46</course>
  <speed>0.0</speed>
  <fix>3d</fix>
</trkpt>
<trkpt lat="33.810313" lon="-118.393867">
  <ele>-0.13</ele>
  <time>2026-09-01T01:13:57Z</time>
  <course>0.0</course>
  <speed>0.0</speed>
  <fix>3d</fix>
</trkpt>
<trkpt lat="33.810313" lon="-118.393867">
  <ele>0.0</ele>
  <time>2026-09-01T01:13:57Z</time>
  <course>187.53</course>
  <speed>0.0</speed>
  <fix>3d</fix>
</trkpt>
<trkpt lat="33.810313" lon="-118.393867">
  <ele>-0.13</ele>
  <time>2026-09-01T01:13:57Z</time>
  <course>0.0</course>
  <speed>0.0</speed>
  <fix>3d</fix>
</trkpt>
<trkpt lat="33.810313" lon="-118.393867">
  <ele>0.0</ele>
  <time>2026-09-01T01:13:57Z</time>
  <course>187.59</course>
  <speed>0.0</speed>
  <fix>3d</fix>
</trkpt>
<trkpt lat="33.810313" lon="-118.393867">
  <ele>-0.13</ele>
  <time>2026-09-01T01:13:57Z</time>
  <course>0.0</course>
  <speed>0.0</speed>
  <fix>3d</fix>
</trkpt>
<trkpt lat="33.810313" lon="-118.393867">
  <ele>0.0</ele>
  <time>2026-09-01T01:13:57Z</time>
  <course>187.65</course>
  <speed>0.0</speed>
  <fix>3d</fix>
</trkpt>
<trkpt lat="33.810313" lon="-118.393867">
  <ele>-0.12</ele>
  <time>2026-09-01T01:13:57Z</time>
  <course>0.0</course>
  <speed>0.0</speed>
  <fix>3d</fix>
</trkpt>
<trkpt lat="33.810313" lon="-118.393867">
  <ele>0.0</ele>
  <time>2026-09-01T01:13:57Z</time>
  <course>187.7</course>
  <speed>0.0</speed>
  <fix>3d</fix>
</trkpt>
<trkpt lat="33.810313" lon="-118.393867">
  <ele>-0.12</ele>
  <time>2026-09-01T01:13:57Z</time>
  <course>0.0</course>
  <speed>0.0</speed>
  <fix>3d</fix>
</trkpt>
<trkpt lat="33.810313" lon="-118.393867">
  <ele>0.0</ele>
  <time>2026-09-01T01:13:57Z</time>
  <course>187.76</course>
  <speed>0.0</speed>
  <fix>3d</fix>
</trkpt>
<trkpt lat="33.810313" lon="-118.393867">
  <ele>-0.12</ele>
  <time>2026-09-01T01:13:57Z</time>
  <course>0.0</course>
  <speed>0.0</speed>
  <fix>3d</fix>
</trkpt>
<trkpt lat="33.810313" lon="-118.393867">
  <ele>0.0</ele>
  <time>2026-09-01T01:13:57Z</time>
  <course>187.81</course>
  <speed>0.0</speed>
  <fix>3d</fix>
</trkpt>
<trkpt lat="33.810313" lon="-118.393867">
  <ele>-0.12</ele>
  <time>2026-09-01T01:13:57Z</time>
  <course>0.0</course>
  <speed>0.0</speed>
  <fix>3d</fix>
</trkpt>
<trkpt lat="33.810313" lon="-118.393867">
  <ele>0.0</ele>
  <time>2026-09-01T01:13:57Z</time>
  <course>187.86</course>
  <speed>0.0</speed>
  <fix>3d</fix>
</trkpt>
<trkpt lat="33.810313" lon="-118.393867">
  <ele>-0.12</ele>
  <time>2026-09-01T01:13:57Z</time>
  <course>0.0</course>
  <speed>0.0</speed>
  <fix>3d</fix>
</trkpt>
<trkpt lat="33.810313" lon="-118.393867">
  <ele>0.0</ele>
  <time>2026-09-01T01:13:57Z</time>
  <course>187.9</course>
  <speed>0.0</speed>
  <fix>3d</fix>
</trkpt>
<trkpt lat="33.810313" lon="-118.393867">
  <ele>-0.12</ele>
  <time>2026-09-01T01:13:57Z</time>
  <course>0.0</course>
  <speed>0.0</speed>
  <fix>3d</fix>
</trkpt>
<trkpt lat="33.810313" lon="-118.393867">
  <ele>0.0</ele>
  <time>2026-09-01T01:13:57Z</time>
  <course>187.94</course>
  <speed>0.0</speed>
  <fix>3d</fix>
</trkpt>
<trkpt lat="33.810313" lon="-118.393867">
  <ele>-0.12</ele>
  <time>2026-09-01T01:13:57Z</time>
  <course>0.0</course>
  <speed>0.0</speed>
  <fix>3d</fix>
</trkpt>
<trkpt lat="33.810313" lon="-118.393867">
  <ele>0.0</ele>
  <time>2026-09-01T01:13:57Z</time>
  <course>187.99</course>
  <speed>0.0</speed>
  <fix>3d</fix>
</trkpt>
<trkpt lat="33.810313" lon="-118.393867">
  <ele>-0.12</ele>
  <time>2026-09-01T01:13:57Z</time>
  <course>0.0</course>
  <speed>0.0</speed>
  <fix>3d</fix>
</trkpt>
<trkpt lat="33.810313" lon="-118.393867">
  <ele>0.0</ele>
  <time>2026-09-01T01:13:57Z</time>
  <course>188.02</course>
  <speed>0.0</speed>
  <fix>3d</fix>
</trkpt>
<trkpt lat="33.810313" lon="-118.393867">
  <ele>-0.12</ele>
  <time>2026-09-01T01:13:57Z</time>
  <course>0.0</course>
  <speed>0.0</speed>
  <fix>3d</fix>
</trkpt>
<trkpt lat="33.810313" lon="-118.393867">
  <ele>0.0</ele>
  <time>2026-09-01T01:13:57Z</time>
  <course>188.06</course>
  <speed>0.0</speed>
  <fix>3d</fix>
</trkpt>
<trkpt lat="33.810313" lon="-118.393867">
  <ele>-0.12</ele>
  <time>2026-09-01T01:13:57Z</time>
  <course>0.0</course>
  <speed>0.0</speed>
  <fix>3d</fix>
</trkpt>
<trkpt lat="33.810313" lon="-118.393867">
  <ele>0.0</ele>
  <time>2026-09-01T01:13:57Z</time>
  <course>188.1</course>
  <speed>0.0</speed>
  <fix>3d</fix>
</trkpt>
<trkpt lat="33.810313" lon="-118.393867">
  <ele>-0.13</ele>
  <time>2026-09-01T01:13:57Z</time>
  <course>0.0</course>
  <speed>0.0</speed>
  <fix>3d</fix>
</trkpt>
<trkpt lat="33.810313" lon="-118.393867">
  <ele>0.0</ele>
  <time>2026-09-01T01:13:57Z</time>
  <course>188.13</course>
  <speed>0.0</speed>
  <fix>3d</fix>
</trkpt>
<trkpt lat="33.810313" lon="-118.393867">
  <ele>-0.13</ele>
  <time>2026-09-01T01:13:57Z</time>
  <course>0.0</course>
  <speed>0.0</speed>
  <fix>3d</fix>
</trkpt>
<trkpt lat="33.810313" lon="-118.393867">
  <ele>0.0</ele>
  <time>2026-09-01T01:13:57Z</time>
  <course>188.16</course>
  <speed>0.0</speed>
  <fix>3d</fix>
</trkpt>
<trkpt lat="33.810313" lon="-118.393867">
  <ele>-0.13</ele>
  <time>2026-09-01T01:13:57Z</time>
  <course>0.0</course>
  <speed>0.0</speed>
  <fix>3d</fix>
</trkpt>
<trkpt lat="33.810313" lon="-118.393867">
  <ele>0.0</ele>
  <time>2026-09-01T01:13:57Z</time>
  <course>188.19</course>
  <speed>0.0</speed>
  <fix>3d</fix>
</trkpt>
<trkpt lat="33.810313" lon="-118.393867">
  <ele>-0.13</ele>
  <time>2026-09-01T01:13:57Z</time>
  <course>0.0</course>
  <speed>0.0</speed>
  <fix>3d</fix>
</trkpt>
<trkpt lat="33.810313" lon="-118.393867">
  <ele>0.0</ele>
  <time>2026-09-01T01:13:57Z</time>
  <course>188.22</course>
  <speed>0.0</speed>
  <fix>3d</fix>
</trkpt>
<trkpt lat="33.810313" lon="-118.393867">
  <ele>-0.13</ele>
  <time>2026-09-01T01:13:57Z</time>
  <course>0.0</course>
  <speed>0.0</speed>
  <fix>3d</fix>
</trkpt>
<trkpt lat="33.810313" lon="-118.393867">
  <ele>0.0</ele>
  <time>2026-09-01T01:13:57Z</time>
  <course>188.24</course>
  <speed>0.0</speed>
  <fix>3d</fix>
</trkpt>
<trkpt lat="33.810313" lon="-118.393867">
  <ele>-0.13</ele>
  <time>2026-09-01T01:13:57Z</time>
  <course>0.0</course>
  <speed>0.0</speed>
  <fix>3d</fix>
</trkpt>
<trkpt lat="33.810313" lon="-118.393867">
  <ele>0.0</ele>
  <time>2026-09-01T01:13:57Z</time>
  <course>188.27</course>
  <speed>0.0</speed>
  <fix>3d</fix>
</trkpt>
<trkpt lat="33.810313" lon="-118.393867">
  <ele>-0.12</ele>
  <time>2026-09-01T01:13:57Z</time>
  <course>0.0</course>
  <speed>0.0</speed>
  <fix>3d</fix>
</trkpt>
<trkpt lat="33.810313" lon="-118.393867">
  <ele>0.0</ele>
  <time>2026-09-01T01:13:57Z</time>
  <course>188.29</course>
  <speed>0.0</speed>
  <fix>3d</fix>
</trkpt>
<trkpt lat="33.810313" lon="-118.393867">
  <ele>-0.12</ele>
  <time>2026-09-01T01:13:57Z</time>
  <course>0.0</course>
  <speed>0.0</speed>
  <fix>3d</fix>
</trkpt>
<trkpt lat="33.810313" lon="-118.393867">
  <ele>0.0</ele>
  <time>2026-09-01T01:13:57Z</time>
  <course>188.32</course>
  <speed>0.0</speed>
  <fix>3d</fix>
</trkpt>
<trkpt lat="33.810313" lon="-118.393867">
  <ele>-0.12</ele>
  <time>2026-09-01T01:13:57Z</time>
  <course>0.0</course>
  <speed>0.0</speed>
  <fix>3d</fix>
</trkpt>
<trkpt lat="33.810313" lon="-118.393867">
  <ele>0.0</ele>
  <time>2026-09-01T01:13:57Z</time>
  <course>188.34</course>
  <speed>0.0</speed>
  <fix>3d</fix>
</trkpt>
<trkpt lat="33.810313" lon="-118.393867">
  <ele>-0.12</ele>
  <time>2026-09-01T01:13:57Z</time>
  <course>0.0</course>
  <speed>0.0</speed>
  <fix>3d</fix>
</trkpt>
<trkpt lat="33.810313" lon="-118.393867">
  <ele>0.0</ele>
  <time>2026-09-01T01:13:57Z</time>
  <course>188.36</course>
  <speed>0.0</speed>
  <fix>3d</fix>
</trkpt>
<trkpt lat="33.810313" lon="-118.393867">
  <ele>-0.12</ele>
  <time>2026-09-01T01:13:57Z</time>
  <course>0.0</course>
  <speed>0.0</speed>
  <fix>3d</fix>
</trkpt>
<trkpt lat="33.810313" lon="-118.393867">
  <ele>0.0</ele>
  <time>2026-09-01T01:13:57Z</time>
  <course>188.38</course>
  <speed>0.0</speed>
  <fix>3d</fix>
</trkpt>
<trkpt lat="33.810313" lon="-118.393867">
  <ele>-0.12</ele>
  <time>2026-09-01T01:13:57Z</time>
  <course>0.0</course>
  <speed>0.0</speed>
  <fix>3d</fix>
</trkpt>
<trkpt lat="33.810313" lon="-118.393867">
  <ele>0.0</ele>
  <time>2026-09-01T01:13:57Z</time>
  <course>188.39</course>
  <speed>0.0</speed>
  <fix>3d</fix>
</trkpt>
<trkpt lat="33.810313" lon="-118.393867">
  <ele>-0.12</ele>
  <time>2026-09-01T01:13:57Z</time>
  <course>0.0</course>
  <speed>0.0</speed>
  <fix>3d</fix>
</trkpt>
<trkpt lat="33.810313" lon="-118.393867">
  <ele>0.0</ele>
  <time>2026-09-01T01:13:57Z</time>
  <course>188.41</course>
  <speed>0.0</speed>
  <fix>3d</fix>
</trkpt>
<trkpt lat="33.810313" lon="-118.393867">
  <ele>-0.12</ele>
  <time>2026-09-01T01:13:57Z</time>
  <course>0.0</course>
  <speed>0.0</speed>
  <fix>3d</fix>
</trkpt>
<trkpt lat="33.810313" lon="-118.393867">
  <ele>0.0</ele>
  <time>2026-09-01T01:13:57Z</time>
  <course>188.42</course>
  <speed>0.0</speed>
  <fix>3d</fix>
</trkpt>
<trkpt lat="33.810313" lon="-118.393867">
  <ele>-0.12</ele>
  <time>2026-09-01T01:13:57Z</time>
  <course>0.0</course>
  <speed>0.0</speed>
  <fix>3d</fix>
</trkpt>
<trkpt lat="33.810313" lon="-118.393867">
  <ele>0.0</ele>
  <time>2026-09-01T01:13:57Z</time>
  <course>188.44</course>
  <speed>0.0</speed>
  <fix>3d</fix>
</trkpt>
<trkpt lat="33.810313" lon="-118.393867">
  <ele>-0.12</ele>
  <time>2026-09-01T01:13:57Z</time>
  <course>0.0</course>
  <speed>0.0</speed>
  <fix>3d</fix>
</trkpt>
<trkpt lat="33.810313" lon="-118.393867">
  <ele>0.0</ele>
  <time>2026-09-01T01:13:57Z</time>
  <course>188.45</course>
  <speed>0.0</speed>
  <fix>3d</fix>
</trkpt>
<trkpt lat="33.810313" lon="-118.393867">
  <ele>-0.13</ele>
  <time>2026-09-01T01:13:57Z</time>
  <course>0.0</course>
  <speed>0.0</speed>
  <fix>3d</fix>
</trkpt>
<trkpt lat="33.810313" lon="-118.393867">
  <ele>0.0</ele>
  <time>2026-09-01T01:13:57Z</time>
  <course>188.46</course>
  <speed>0.0</speed>
  <fix>3d</fix>
</trkpt>
<trkpt lat="33.810313" lon="-118.393867">
  <ele>-0.13</ele>
  <time>2026-09-01T01:13:57Z</time>
  <course>0.0</course>
  <speed>0.0</speed>
  <fix>3d</fix>
</trkpt>
<trkpt lat="33.810313" lon="-118.393867">
  <ele>0.0</ele>
  <time>2026-09-01T01:13:57Z</time>
  <course>188.47</course>
  <speed>0.0</speed>
  <fix>3d</fix>
</trkpt>
<trkpt lat="33.810313" lon="-118.393867">
  <ele>-0.13</ele>
  <time>2026-09-01T01:13:57Z</time>
  <course>0.0</course>
  <speed>0.0</speed>
  <fix>3d</fix>
</trkpt>
<trkpt lat="33.810313" lon="-118.393867">
  <ele>0.0</ele>
  <time>2026-09-01T01:13:57Z</time>
  <course>188.48</course>
  <speed>0.0</speed>
  <fix>3d</fix>
</trkpt>
<trkpt lat="33.810313" lon="-118.393867">
  <ele>-0.13</ele>
  <time>2026-09-01T01:13:57Z</time>
  <course>0.0</course>
  <speed>0.0</speed>
  <fix>3d</fix>
</trkpt>
<trkpt lat="33.810313" lon="-118.393867">
  <ele>0.0</ele>
  <time>2026-09-01T01:13:57Z</time>
  <course>188.49</course>
  <speed>0.0</speed>
  <fix>3d</fix>
</trkpt>
<trkpt lat="33.810313" lon="-118.393867">
  <ele>-0.13</ele>
  <time>2026-09-01T01:13:57Z</time>
  <course>0.0</course>
  <speed>0.0</speed>
  <fix>3d</fix>
</trkpt>
<trkpt lat="33.810313" lon="-118.393867">
  <ele>0.0</ele>
  <time>2026-09-01T01:13:57Z</time>
  <course>188.5</course>
  <speed>0.0</speed>
  <fix>3d</fix>
</trkpt>
<trkpt lat="33.810313" lon="-118.393867">
  <ele>-0.13</ele>
  <time>2026-09-01T01:13:57Z</time>
  <course>0.0</course>
  <speed>0.0</speed>
  <fix>3d</fix>
</trkpt>
<trkpt lat="33.810313" lon="-118.393867">
  <ele>0.0</ele>
  <time>2026-09-01T01:13:57Z</time>
  <course>188.51</course>
  <speed>0.0</speed>
  <fix>3d</fix>
</trkpt>
<trkpt lat="33.810313" lon="-118.393867">
  <ele>-0.12</ele>
  <time>2026-09-01T01:13:57Z</time>
  <course>0.0</course>
  <speed>0.0</speed>
  <fix>3d</fix>
</trkpt>
<trkpt lat="33.810313" lon="-118.393867">
  <ele>0.0</ele>
  <time>2026-09-01T01:13:57Z</time>
  <course>188.52</course>
  <speed>0.0</speed>
  <fix>3d</fix>
</trkpt>
<trkpt lat="33.810313" lon="-118.393867">
  <ele>-0.12</ele>
  <time>2026-09-01T01:13:57Z</time>
  <course>0.0</course>
  <speed>0.0</speed>
  <fix>3d</fix>
</trkpt>
<trkpt lat="33.810313" lon="-118.393867">
  <ele>0.0</ele>
  <time>2026-09-01T01:13:57Z</time>
  <course>188.53</course>
  <speed>0.0</speed>
  <fix>3d</fix>
</trkpt>
<trkpt lat="33.810313" lon="-118.393867">
  <ele>-0.12</ele>
  <time>2026-09-01T01:13:57Z</time>
  <course>0.0</course>
  <speed>0.0</speed>
  <fix>3d</fix>
</trkpt>
<trkpt lat="33.810313" lon="-118.393867">
  <ele>0.0</ele>
  <time>2026-09-01T01:13:57Z</time>
  <course>188.53</course>
  <speed>0.0</speed>
  <fix>3d</fix>
</trkpt>
<trkpt lat="33.810313" lon="-118.393867">
  <ele>-0.12</ele>
  <time>2026-09-01T01:13:57Z</time>
  <course>0.0</course>
  <speed>0.0</speed>
  <fix>3d</fix>
</trkpt>
<trkpt lat="33.810313" lon="-118.393867">
  <ele>0.0</ele>
  <time>2026-09-01T01:13:57Z</time>
  <course>188.54</course>
  <speed>0.0</speed>
  <fix>3d</fix>
</trkpt>
<trkpt lat="33.810313" lon="-118.393867">
  <ele>-0.12</ele>
  <time>2026-09-01T01:13:57Z</time>
  <course>0.0</course>
  <speed>0.0</speed>
  <fix>3d</fix>
</trkpt>
<trkpt lat="33.810313" lon="-118.393867">
  <ele>0.0</ele>
  <time>2026-09-01T01:13:57Z</time>
  <course>188.54</course>
  <speed>0.0</speed>
  <fix>3d</fix>
</trkpt>
<trkpt lat="33.810313" lon="-118.393867">
  <ele>-0.12</ele>
  <time>2026-09-01T01:13:57Z</time>
  <course>0.0</course>
  <speed>0.0</speed>
  <fix>3d</fix>
</trkpt>
<trkpt lat="33.810313" lon="-118.393867">
  <ele>0.0</ele>
  <time>2026-09-01T01:13:57Z</time>
  <course>188.54</course>
  <speed>0.0</speed>
  <fix>3d</fix>
</trkpt>
<trkpt lat="33.810313" lon="-118.393867">
  <ele>-0.12</ele>
  <time>2026-09-01T01:13:57Z</time>
  <course>0.0</course>
  <speed>0.0</speed>
  <fix>3d</fix>
</trkpt>
<trkpt lat="33.810313" lon="-118.393867">
  <ele>0.0</ele>
  <time>2026-09-01T01:13:57Z</time>
  <course>188.55</course>
  <speed>0.0</speed>
  <fix>3d</fix>
</trkpt>
<trkpt lat="33.810313" lon="-118.393867">
  <ele>-0.12</ele>
  <time>2026-09-01T01:13:57Z</time>
  <course>0.0</course>
  <speed>0.0</speed>
  <fix>3d</fix>
</trkpt>
<trkpt lat="33.810313" lon="-118.393867">
  <ele>0.0</ele>
  <time>2026-09-01T01:13:57Z</time>
  <course>188.55</course>
  <speed>0.0</speed>
  <fix>3d</fix>
</trkpt>
<trkpt lat="33.810313" lon="-118.393867">
  <ele>-0.12</ele>
  <time>2026-09-01T01:13:57Z</time>
  <course>0.0</course>
  <speed>0.0</speed>
  <fix>3d</fix>
</trkpt>
<trkpt lat="33.810313" lon="-118.393867">
  <ele>0.0</ele>
  <time>2026-09-01T01:13:57Z</time>
  <course>188.55</course>
  <speed>0.0</speed>
  <fix>3d</fix>
</trkpt>
<trkpt lat="33.810313" lon="-118.393867">
  <ele>-0.12</ele>
  <time>2026-09-01T01:13:57Z</time>
  <course>0.0</course>
  <speed>0.0</speed>
  <fix>3d</fix>
</trkpt>
<trkpt lat="33.810313" lon="-118.393867">
  <ele>-0.126</ele>
  <time>2026-09-01T01:13:57Z</time>
  <course>188.55</course>
  <speed>0.0</speed>
  <fix>3d</fix>
</trkpt>
<trkpt lat="33.810313" lon="-118.393867">
  <ele>-0.13</ele>
  <time>2026-09-01T01:13:57Z</time>
  <course>0.0</course>
  <speed>0.0</speed>
  <fix>3d</fix>
</trkpt>
<trkpt lat="33.810313" lon="-118.393867">
  <ele>-0.126</ele>
  <time>2026-09-01T01:13:57Z</time>
  <course>188.56</course>
  <speed>0.0</speed>
  <fix>3d</fix>
</trkpt>
<trkpt lat="33.810313" lon="-118.393867">
  <ele>-0.13</ele>
  <time>2026-09-01T01:13:57Z</time>
  <course>0.0</course>
  <speed>0.0</speed>
  <fix>3d</fix>
</trkpt>
<trkpt lat="33.810313" lon="-118.393867">
  <ele>-0.125</ele>
  <time>2026-09-01T01:13:57Z</time>
  <course>188.56</course>
  <speed>0.0</speed>
  <fix>3d</fix>
</trkpt>
<trkpt lat="33.810313" lon="-118.393867">
  <ele>-0.13</ele>
  <time>2026-09-01T01:13:57Z</time>
  <course>0.0</course>
  <speed>0.0</speed>
  <fix>3d</fix>
</trkpt>
<trkpt lat="33.810313" lon="-118.393867">
  <ele>-0.123</ele>
  <time>2026-09-01T01:13:57Z</time>
  <course>188.56</course>
  <speed>0.0</speed>
  <fix>3d</fix>
</trkpt>
<trkpt lat="33.810313" lon="-118.393867">
  <ele>-0.13</ele>
  <time>2026-09-01T01:13:57Z</time>
  <course>0.0</course>
  <speed>0.0</speed>
  <fix>3d</fix>
</trkpt>
<trkpt lat="33.810313" lon="-118.393867">
  <ele>-0.121</ele>
  <time>2026-09-01T01:13:57Z</time>
  <course>188.56</course>
  <speed>0.0</speed>
  <fix>3d</fix>
</trkpt>
<trkpt lat="33.810313" lon="-118.393867">
  <ele>-0.12</ele>
  <time>2026-09-01T01:13:57Z</time>
  <course>0.0</course>
  <speed>0.0</speed>
  <fix>3d</fix>
</trkpt>
<trkpt lat="33.810313" lon="-118.393867">
  <ele>-0.12</ele>
  <time>2026-09-01T01:13:57Z</time>
  <course>188.56</course>
  <speed>0.0</speed>
  <fix>3d</fix>
</trkpt>
<trkpt lat="33.810313" lon="-118.393867">
  <ele>-0.12</ele>
  <time>2026-09-01T01:13:57Z</time>
  <course>0.0</course>
  <speed>0.0</speed>
  <fix>3d</fix>
</trkpt>
<trkpt lat="33.810313" lon="-118.393867">
  <ele>-0.119</ele>
  <time>2026-09-01T01:13:57Z</time>
  <course>188.56</course>
  <speed>0.0</speed>
  <fix>3d</fix>
</trkpt>
<trkpt lat="33.810313" lon="-118.393867">
  <ele>-0.12</ele>
  <time>2026-09-01T01:13:57Z</time>
  <course>0.0</course>
  <speed>0.0</speed>
  <fix>3d</fix>
</trkpt>
<trkpt lat="33.810313" lon="-118.393867">
  <ele>-0.12</ele>
  <time>2026-09-01T01:13:57Z</time>
  <course>188.56</course>
  <speed>0.0</speed>
  <fix>3d</fix>
</trkpt>
<trkpt lat="33.810313" lon="-118.393867">
  <ele>-0.12</ele>
  <time>2026-09-01T01:13:57Z</time>
  <course>0.0</course>
  <speed>0.0</speed>
  <fix>3d</fix>
</trkpt>
<trkpt lat="33.810313" lon="-118.393867">
  <ele>-0.123</ele>
  <time>2026-09-01T01:13:57Z</time>
  <course>188.55</course>
  <speed>0.0</speed>
  <fix>3d</fix>
</trkpt>
<trkpt lat="33.810313" lon="-118.393867">
  <ele>-0.12</ele>
  <time>2026-09-01T01:13:57Z</time>
  <course>0.0</course>
  <speed>0.0</speed>
  <fix>3d</fix>
</trkpt>
<trkpt lat="33.810313" lon="-118.393867">
  <ele>-0.127</ele>
  <time>2026-09-01T01:13:57Z</time>
  <course>188.55</course>
  <speed>0.0</speed>
  <fix>3d</fix>
</trkpt>
<trkpt lat="33.810313" lon="-118.393867">
  <ele>-0.12</ele>
  <time>2026-09-01T01:13:57Z</time>
  <course>0.0</course>
  <speed>0.0</speed>
  <fix>3d</fix>
</trkpt>
<trkpt lat="33.810313" lon="-118.393867">
  <ele>-0.13</ele>
  <time>2026-09-01T01:13:57Z</time>
  <course>188.55</course>
  <speed>0.0</speed>
  <fix>3d</fix>
</trkpt>
<trkpt lat="33.810313" lon="-118.393867">
  <ele>-0.12</ele>
  <time>2026-09-01T01:13:57Z</time>
  <course>0.0</course>
  <speed>0.0</speed>
  <fix>3d</fix>
</trkpt>
<trkpt lat="33.810313" lon="-118.393867">
  <ele>-0.132</ele>
  <time>2026-09-01T01:13:57Z</time>
  <course>188.55</course>
  <speed>0.0</speed>
  <fix>3d</fix>
</trkpt>
<trkpt lat="33.810313" lon="-118.393867">
  <ele>-0.12</ele>
  <time>2026-09-01T01:13:57Z</time>
  <course>0.0</course>
  <speed>0.0</speed>
  <fix>3d</fix>
</trkpt>
<trkpt lat="33.810313" lon="-118.393867">
  <ele>-0.132</ele>
  <time>2026-09-01T01:13:57Z</time>
  <course>188.55</course>
  <speed>0.0</speed>
  <fix>3d</fix>
</trkpt>
<trkpt lat="33.810313" lon="-118.393867">
  <ele>-0.12</ele>
  <time>2026-09-01T01:13:57Z</time>
  <course>0.0</course>
  <speed>0.0</speed>
  <fix>3d</fix>
</trkpt>
<trkpt lat="33.810313" lon="-118.393867">
  <ele>-0.132</ele>
  <time>2026-09-01T01:13:57Z</time>
  <course>188.55</course>
  <speed>0.0</speed>
  <fix>3d</fix>
</trkpt>
<trkpt lat="33.810313" lon="-118.393867">
  <ele>-0.12</ele>
  <time>2026-09-01T01:13:57Z</time>
  <course>0.0</course>
  <speed>0.0</speed>
  <fix>3d</fix>
</trkpt>
<trkpt lat="33.810313" lon="-118.393867">
  <ele>-0.132</ele>
  <time>2026-09-01T01:13:57Z</time>
  <course>188.55</course>
  <speed>0.0</speed>
  <fix>3d</fix>
</trkpt>
<trkpt lat="33.810313" lon="-118.393867">
  <ele>-0.12</ele>
  <time>2026-09-01T01:13:57Z</time>
  <course>0.0</course>
  <speed>0.0</speed>
  <fix>3d</fix>
</trkpt>
<trkpt lat="33.810313" lon="-118.393867">
  <ele>-0.131</ele>
  <time>2026-09-01T01:13:57Z</time>
  <course>188.55</course>
  <speed>0.0</speed>
  <fix>3d</fix>
</trkpt>
<trkpt lat="33.810313" lon="-118.393867">
  <ele>-0.12</ele>
  <time>2026-09-01T01:13:57Z</time>
  <course>0.0</course>
  <speed>0.0</speed>
  <fix>3d</fix>
</trkpt>
<trkpt lat="33.810313" lon="-118.393867">
  <ele>-0.129</ele>
  <time>2026-09-01T01:13:57Z</time>
  <course>188.54</course>
  <speed>0.0</speed>
  <fix>3d</fix>
</trkpt>
<trkpt lat="33.810313" lon="-118.393867">
  <ele>-0.13</ele>
  <time>2026-09-01T01:13:57Z</time>
  <course>0.0</course>
  <speed>0.0</speed>
  <fix>3d</fix>
</trkpt>
<trkpt lat="33.810313" lon="-118.393867">
  <ele>-0.128</ele>
  <time>2026-09-01T01:13:57Z</time>
  <course>188.54</course>
  <speed>0.0</speed>
  <fix>3d</fix>
</trkpt>
<trkpt lat="33.810313" lon="-118.393867">
  <ele>-0.13</ele>
  <time>2026-09-01T01:13:57Z</time>
  <course>0.0</course>
  <speed>0.0</speed>
  <fix>3d</fix>
</trkpt>
<trkpt lat="33.810313" lon="-118.393867">
  <ele>-0.125</ele>
  <time>2026-09-01T01:13:57Z</time>
  <course>188.53</course>
  <speed>0.0</speed>
  <fix>3d</fix>
</trkpt>
<trkpt lat="33.810313" lon="-118.393867">
  <ele>-0.12</ele>
  <time>2026-09-01T01:13:57Z</time>
  <course>0.0</course>
  <speed>0.0</speed>
  <fix>3d</fix>
</trkpt>
<trkpt lat="33.810313" lon="-118.393867">
  <ele>-0.123</ele>
  <time>2026-09-01T01:13:57Z</time>
  <course>188.53</course>
  <speed>0.0</speed>
  <fix>3d</fix>
</trkpt>
<trkpt lat="33.810313" lon="-118.393867">
  <ele>-0.12</ele>
  <time>2026-09-01T01:13:57Z</time>
  <course>0.0</course>
  <speed>0.0</speed>
  <fix>3d</fix>
</trkpt>
<trkpt lat="33.810313" lon="-118.393867">
  <ele>-0.121</ele>
  <time>2026-09-01T01:13:57Z</time>
  <course>188.52</course>
  <speed>0.0</speed>
  <fix>3d</fix>
</trkpt>
<trkpt lat="33.810313" lon="-118.393867">
  <ele>-0.12</ele>
  <time>2026-09-01T01:13:57Z</time>
  <course>0.0</course>
  <speed>0.0</speed>
  <fix>3d</fix>
</trkpt>
<trkpt lat="33.810313" lon="-118.393867">
  <ele>-0.121</ele>
  <time>2026-09-01T01:13:57Z</time>
  <course>188.52</course>
  <speed>0.0</speed>
  <fix>3d</fix>
</trkpt>
<trkpt lat="33.810313" lon="-118.393867">
  <ele>-0.12</ele>
  <time>2026-09-01T01:13:57Z</time>
  <course>0.0</course>
  <speed>0.0</speed>
  <fix>3d</fix>
</trkpt>
<trkpt lat="33.810313" lon="-118.393867">
  <ele>-0.121</ele>
  <time>2026-09-01T01:13:57Z</time>
  <course>188.51</course>
  <speed>0.0</speed>
  <fix>3d</fix>
</trkpt>
<trkpt lat="33.810313" lon="-118.393867">
  <ele>-0.12</ele>
  <time>2026-09-01T01:13:57Z</time>
  <course>0.0</course>
  <speed>0.0</speed>
  <fix>3d</fix>
</trkpt>
<trkpt lat="33.810313" lon="-118.393867">
  <ele>-0.123</ele>
  <time>2026-09-01T01:13:57Z</time>
  <course>188.51</course>
  <speed>0.0</speed>
  <fix>3d</fix>
</trkpt>
<trkpt lat="33.810313" lon="-118.393867">
  <ele>-0.12</ele>
  <time>2026-09-01T01:13:57Z</time>
  <course>0.0</course>
  <speed>0.0</speed>
  <fix>3d</fix>
</trkpt>
<trkpt lat="33.810313" lon="-118.393867">
  <ele>-0.126</ele>
  <time>2026-09-01T01:13:57Z</time>
  <course>188.5</course>
  <speed>0.0</speed>
  <fix>3d</fix>
</trkpt>
<trkpt lat="33.810313" lon="-118.393867">
  <ele>-0.12</ele>
  <time>2026-09-01T01:13:57Z</time>
  <course>0.0</course>
  <speed>0.0</speed>
  <fix>3d</fix>
</trkpt>
<trkpt lat="33.810313" lon="-118.393867">
  <ele>-0.127</ele>
  <time>2026-09-01T01:13:57Z</time>
  <course>188.5</course>
  <speed>0.0</speed>
  <fix>3d</fix>
</trkpt>
<trkpt lat="33.810313" lon="-118.393867">
  <ele>-0.12</ele>
  <time>2026-09-01T01:13:57Z</time>
  <course>0.0</course>
  <speed>0.0</speed>
  <fix>3d</fix>
</trkpt>
<trkpt lat="33.810313" lon="-118.393867">
  <ele>-0.128</ele>
  <time>2026-09-01T01:13:57Z</time>
  <course>188.49</course>
  <speed>0.0</speed>
  <fix>3d</fix>
</trkpt>
<trkpt lat="33.810313" lon="-118.393867">
  <ele>-0.12</ele>
  <time>2026-09-01T01:13:57Z</time>
  <course>0.0</course>
  <speed>0.0</speed>
  <fix>3d</fix>
</trkpt>
<trkpt lat="33.810313" lon="-118.393867">
  <ele>-0.127</ele>
  <time>2026-09-01T01:13:57Z</time>
  <course>188.49</course>
  <speed>0.0</speed>
  <fix>3d</fix>
</trkpt>
<trkpt lat="33.810313" lon="-118.393867">
  <ele>-0.12</ele>
  <time>2026-09-01T01:13:57Z</time>
  <course>0.0</course>
  <speed>0.0</speed>
  <fix>3d</fix>
</trkpt>
<trkpt lat="33.810313" lon="-118.393867">
  <ele>-0.127</ele>
  <time>2026-09-01T01:13:57Z</time>
  <course>188.48</course>
  <speed>0.0</speed>
  <fix>3d</fix>
</trkpt>
<trkpt lat="33.810313" lon="-118.393867">
  <ele>-0.12</ele>
  <time>2026-09-01T01:13:57Z</time>
  <course>0.0</course>
  <speed>0.0</speed>
  <fix>3d</fix>
</trkpt>
<trkpt lat="33.810313" lon="-118.393867">
  <ele>-0.127</ele>
  <time>2026-09-01T01:13:57Z</time>
  <course>188.47</course>
  <speed>0.01</speed>
  <fix>3d</fix>
</trkpt>
<trkpt lat="33.810313" lon="-118.393867">
  <ele>-0.12</ele>
  <time>2026-09-01T01:13:57Z</time>
  <course>0.0</course>
  <speed>0.0</speed>
  <fix>3d</fix>
</trkpt>
<trkpt lat="33.810313" lon="-118.393867">
  <ele>-0.127</ele>
  <time>2026-09-01T01:13:57Z</time>
  <course>188.47</course>
  <speed>0.01</speed>
  <fix>3d</fix>
</trkpt>
<trkpt lat="33.810313" lon="-118.393867">
  <ele>-0.12</ele>
  <time>2026-09-01T01:13:57Z</time>
  <course>0.0</course>
  <speed>0.0</speed>
  <fix>3d</fix>
</trkpt>
<trkpt lat="33.810313" lon="-118.393867">
  <ele>-0.127</ele>
  <time>2026-09-01T01:13:57Z</time>
  <course>188.46</course>
  <speed>0.01</speed>
  <fix>3d</fix>
</trkpt>
<trkpt lat="33.810313" lon="-118.393867">
  <ele>-0.12</ele>
  <time>2026-09-01T01:13:57Z</time>
  <course>0.0</course>
  <speed>0.0</speed>
  <fix>3d</fix>
</trkpt>
<trkpt lat="33.810313" lon="-118.393867">
  <ele>-0.126</ele>
  <time>2026-09-01T01:13:57Z</time>
  <course>188.45</course>
  <speed>0.01</speed>
  <fix>3d</fix>
</trkpt>
<trkpt lat="33.810313" lon="-118.393867">
  <ele>-0.12</ele>
  <time>2026-09-01T01:13:57Z</time>
  <course>0.0</course>
  <speed>0.0</speed>
  <fix>3d</fix>
</trkpt>
<trkpt lat="33.810313" lon="-118.393867">
  <ele>-0.126</ele>
  <time>2026-09-01T01:13:57Z</time>
  <course>188.45</course>
  <speed>0.01</speed>
  <fix>3d</fix>
</trkpt>
<trkpt lat="33.810313" lon="-118.393867">
  <ele>-0.12</ele>
  <time>2026-09-01T01:13:57Z</time>
  <course>0.0</course>
  <speed>0.0</speed>
  <fix>3d</fix>
</trkpt>
<trkpt lat="33.810313" lon="-118.393867">
  <ele>-0.125</ele>
  <time>2026-09-01T01:13:57Z</time>
  <course>188.44</course>
  <speed>0.01</speed>
  <fix>3d</fix>
</trkpt>
<trkpt lat="33.810313" lon="-118.393867">
  <ele>-0.12</ele>
  <time>2026-09-01T01:13:57Z</time>
  <course>0.0</course>
  <speed>0.0</speed>
  <fix>3d</fix>
</trkpt>
<trkpt lat="33.810313" lon="-118.393867">
  <ele>-0.126</ele>
  <time>2026-09-01T01:13:57Z</time>
  <course>188.43</course>
  <speed>0.01</speed>
  <fix>3d</fix>
</trkpt>
<trkpt lat="33.810313" lon="-118.393867">
  <ele>-0.12</ele>
  <time>2026-09-01T01:13:57Z</time>
  <course>0.0</course>
  <speed>0.0</speed>
  <fix>3d</fix>
</trkpt>
<trkpt lat="33.810313" lon="-118.393867">
  <ele>-0.127</ele>
  <time>2026-09-01T01:13:57Z</time>
  <course>188.42</course>
  <speed>0.01</speed>
  <fix>3d</fix>
</trkpt>
<trkpt lat="33.810313" lon="-118.393867">
  <ele>-0.12</ele>
  <time>2026-09-01T01:13:57Z</time>
  <course>0.0</course>
  <speed>0.0</speed>
  <fix>3d</fix>
</trkpt>
<trkpt lat="33.810313" lon="-118.393867">
  <ele>-0.128</ele>
  <time>2026-09-01T01:13:57Z</time>
  <course>188.42</course>
  <speed>0.01</speed>
  <fix>3d</fix>
</trkpt>
<trkpt lat="33.810313" lon="-118.393867">
  <ele>-0.12</ele>
  <time>2026-09-01T01:13:57Z</time>
  <course>0.0</course>
  <speed>0.0</speed>
  <fix>3d</fix>
</trkpt>
<trkpt lat="33.810313" lon="-118.393867">
  <ele>-0.129</ele>
  <time>2026-09-01T01:13:57Z</time>
  <course>188.41</course>
  <speed>0.01</speed>
  <fix>3d</fix>
</trkpt>
<trkpt lat="33.810313" lon="-118.393867">
  <ele>-0.12</ele>
  <time>2026-09-01T01:13:57Z</time>
  <course>0.0</course>
  <speed>0.0</speed>
  <fix>3d</fix>
</trkpt>
<trkpt lat="33.810313" lon="-118.393867">
  <ele>-0.129</ele>
  <time>2026-09-01T01:13:57Z</time>
  <course>188.4</course>
  <speed>0.01</speed>
  <fix>3d</fix>
</trkpt>
<trkpt lat="33.810313" lon="-118.393867">
  <ele>-0.12</ele>
  <time>2026-09-01T01:13:57Z</time>
  <course>0.0</course>
  <speed>0.0</speed>
  <fix>3d</fix>
</trkpt>
<trkpt lat="33.810313" lon="-118.393867">
  <ele>-0.13</ele>
  <time>2026-09-01T01:13:57Z</time>
  <course>188.4</course>
  <speed>0.01414213562373095</speed>
  <fix>3d</fix>
</trkpt>
<trkpt lat="33.810313" lon="-118.393867">
  <ele>-0.12</ele>
  <time>2026-09-01T01:13:57Z</time>
  <course>0.0</course>
  <speed>0.0</speed>
  <fix>3d</fix>
</trkpt>
<trkpt lat="33.810313" lon="-118.393867">
  <ele>-0.13</ele>
  <time>2026-09-01T01:13:57Z</time>
  <course>188.39</course>
  <speed>0.01414213562373095</speed>
  <fix>3d</fix>
</trkpt>
<trkpt lat="33.810313" lon="-118.393867">
  <ele>-0.12</ele>
  <time>2026-09-01T01:13:57Z</time>
  <course>0.0</course>
  <speed>0.0</speed>
  <fix>3d</fix>
</trkpt>
<trkpt lat="33.810313" lon="-118.393867">
  <ele>-0.13</ele>
  <time>2026-09-01T01:13:57Z</time>
  <course>188.38</course>
  <speed>0.01414213562373095</speed>
  <fix>3d</fix>
</trkpt>
<trkpt lat="33.810313" lon="-118.393867">
  <ele>-0.12</ele>
  <time>2026-09-01T01:13:57Z</time>
  <course>0.0</course>
  <speed>0.0</speed>
  <fix>3d</fix>
</trkpt>
<trkpt lat="33.810313" lon="-118.393867">
  <ele>-0.129</ele>
  <time>2026-09-01T01:13:57Z</time>
  <course>188.37</course>
  <speed>0.01414213562373095</speed>
  <fix>3d</fix>
</trkpt>
<trkpt lat="33.810313" lon="-118.393867">
  <ele>-0.12</ele>
  <time>2026-09-01T01:13:57Z</time>
  <course>0.0</course>
  <speed>0.0</speed>
  <fix>3d</fix>
</trkpt>
<trkpt lat="33.810313" lon="-118.393867">
  <ele>-0.128</ele>
  <time>2026-09-01T01:13:57Z</time>
  <course>188.37</course>
  <speed>0.01414213562373095</speed>
  <fix>3d</fix>
</trkpt>
<trkpt lat="33.810313" lon="-118.393867">
  <ele>-0.12</ele>
  <time>2026-09-01T01:13:57Z</time>
  <course>0.0</course>
  <speed>0.0</speed>
  <fix>3d</fix>
</trkpt>
<trkpt lat="33.810313" lon="-118.393867">
  <ele>-0.126</ele>
  <time>2026-09-01T01:13:57Z</time>
  <course>188.36</course>
  <speed>0.01414213562373095</speed>
  <fix>3d</fix>
</trkpt>
<trkpt lat="33.810313" lon="-118.393867">
  <ele>-0.12</ele>
  <time>2026-09-01T01:13:57Z</time>
  <course>0.0</course>
  <speed>0.0</speed>
  <fix>3d</fix>
</trkpt>
<trkpt lat="33.810313" lon="-118.393867">
  <ele>-0.124</ele>
  <time>2026-09-01T01:13:57Z</time>
  <course>188.35</course>
  <speed>0.01414213562373095</speed>
  <fix>3d</fix>
</trkpt>
<trkpt lat="33.810313" lon="-118.393867">
  <ele>-0.12</ele>
  <time>2026-09-01T01:13:57Z</time>
  <course>0.0</course>
  <speed>0.0</speed>
  <fix>3d</fix>
</trkpt>
<trkpt lat="33.810313" lon="-118.393867">
  <ele>-0.122</ele>
  <time>2026-09-01T01:13:57Z</time>
  <course>188.34</course>
  <speed>0.01414213562373095</speed>
  <fix>3d</fix>
</trkpt>
<trkpt lat="33.810313" lon="-118.393867">
  <ele>-0.12</ele>
  <time>2026-09-01T01:13:57Z</time>
  <course>0.0</course>
  <speed>0.0</speed>
  <fix>3d</fix>
</trkpt>
<trkpt lat="33.810313" lon="-118.393867">
  <ele>-0.123</ele>
  <time>2026-09-01T01:13:57Z</time>
  <course>188.34</course>
  <speed>0.01414213562373095</speed>
  <fix>3d</fix>
</trkpt>
<trkpt lat="33.810313" lon="-118.393867">
  <ele>-0.12</ele>
  <time>2026-09-01T01:13:57Z</time>
  <course>0.0</course>
  <speed>0.0</speed>
  <fix>3d</fix>
</trkpt>
<trkpt lat="33.810313" lon="-118.393867">
  <ele>-0.125</ele>
  <time>2026-09-01T01:13:57Z</time>
  <course>188.33</course>
  <speed>0.01414213562373095</speed>
  <fix>3d</fix>
</trkpt>
<trkpt lat="33.810313" lon="-118.393867">
  <ele>-0.12</ele>
  <time>2026-09-01T01:13:57Z</time>
  <course>0.0</course>
  <speed>0.0</speed>
  <fix>3d</fix>
</trkpt>
<trkpt lat="33.810313" lon="-118.393867">
  <ele>-0.128</ele>
  <time>2026-09-01T01:13:57Z</time>
  <course>188.32</course>
  <speed>0.01414213562373095</speed>
  <fix>3d</fix>
</trkpt>
<trkpt lat="33.810313" lon="-118.393867">
  <ele>-0.12</ele>
  <time>2026-09-01T01:13:57Z</time>
  <course>0.0</course>
  <speed>0.0</speed>
  <fix>3d</fix>
</trkpt>
<trkpt lat="33.810313" lon="-118.393867">
  <ele>-0.131</ele>
  <time>2026-09-01T01:13:57Z</time>
  <course>188.31</course>
  <speed>0.01414213562373095</speed>
  <fix>3d</fix>
</trkpt>
<trkpt lat="33.810313" lon="-118.393867">
  <ele>-0.12</ele>
  <time>2026-09-01T01:13:57Z</time>
  <course>0.0</course>
  <speed>0.0</speed>
  <fix>3d</fix>
</trkpt>
<trkpt lat="33.810313" lon="-118.393867">
  <ele>-0.134</ele>
  <time>2026-09-01T01:13:57Z</time>
  <course>188.3</course>
  <speed>0.01414213562373095</speed>
  <fix>3d</fix>
</trkpt>
<trkpt lat="33.810313" lon="-118.393867">
  <ele>-0.12</ele>
  <time>2026-09-01T01:13:57Z</time>
  <course>0.0</course>
  <speed>0.0</speed>
  <fix>3d</fix>
</trkpt>
<trkpt lat="33.810313" lon="-118.393867">
  <ele>-0.135</ele>
  <time>2026-09-01T01:13:57Z</time>
  <course>188.3</course>
  <speed>0.01414213562373095</speed>
  <fix>3d</fix>
</trkpt>
<trkpt lat="33.810313" lon="-118.393867">
  <ele>-0.12</ele>
  <time>2026-09-01T01:13:57Z</time>
  <course>0.0</course>
  <speed>0.0</speed>
  <fix>3d</fix>
</trkpt>
<trkpt lat="33.810313" lon="-118.393867">
  <ele>-0.134</ele>
  <time>2026-09-01T01:13:57Z</time>
  <course>188.29</course>
  <speed>0.01414213562373095</speed>
  <fix>3d</fix>
</trkpt>
<trkpt lat="33.810313" lon="-118.393867">
  <ele>-0.12</ele>
  <time>2026-09-01T01:13:57Z</time>
  <course>0.0</course>
  <speed>0.0</speed>
  <fix>3d</fix>
</trkpt>
<trkpt lat="33.810313" lon="-118.393867">
  <ele>-0.132</ele>
  <time>2026-09-01T01:13:57Z</time>
  <course>188.28</course>
  <speed>0.01414213562373095</speed>
  <fix>3d</fix>
</trkpt>
<trkpt lat="33.810313" lon="-118.393867">
  <ele>-0.12</ele>
  <time>2026-09-01T01:13:57Z</time>
  <course>0.0</course>
  <speed>0.0</speed>
  <fix>3d</fix>
</trkpt>
<trkpt lat="33.810313" lon="-118.393867">
  <ele>-0.13</ele>
  <time>2026-09-01T01:13:57Z</time>
  <course>188.27</course>
  <speed>0.01414213562373095</speed>
  <fix>3d</fix>
</trkpt>
<trkpt lat="33.810313" lon="-118.393867">
  <ele>-0.12</ele>
  <time>2026-09-01T01:13:57Z</time>
  <course>0.0</course>
  <speed>0.0</speed>
  <fix>3d</fix>
</trkpt>
<trkpt lat="33.810313" lon="-118.393867">
  <ele>-0.127</ele>
  <time>2026-09-01T01:13:57Z</time>
  <course>188.26</course>
  <speed>0.01414213562373095</speed>
  <fix>3d</fix>
</trkpt>
<trkpt lat="33.810313" lon="-118.393867">
  <ele>-0.12</ele>
  <time>2026-09-01T01:13:57Z</time>
  <course>0.0</course>
  <speed>0.0</speed>
  <fix>3d</fix>
</trkpt>
<trkpt lat="33.810313" lon="-118.393867">
  <ele>-0.125</ele>
  <time>2026-09-01T01:13:57Z</time>
  <course>188.25</course>
  <speed>0.01414213562373095</speed>
  <fix>3d</fix>
</trkpt>
<trkpt lat="33.810313" lon="-118.393867">
  <ele>-0.12</ele>
  <time>2026-09-01T01:13:57Z</time>
  <course>0.0</course>
  <speed>0.0</speed>
  <fix>3d</fix>
</trkpt>
<trkpt lat="33.810313" lon="-118.393867">
  <ele>-0.123</ele>
  <time>2026-09-01T01:13:58Z</time>
  <course>188.25</course>
  <speed>0.01414213562373095</speed>
  <fix>3d</fix>
</trkpt>
<trkpt lat="33.810313" lon="-118.393867">
  <ele>-0.12</ele>
  <time>2026-09-01T01:13:58Z</time>
  <course>0.0</course>
  <speed>0.0</speed>
  <fix>3d</fix>
</trkpt>
<trkpt lat="33.810313" lon="-118.393867">
  <ele>-0.124</ele>
  <time>2026-09-01T01:13:58Z</time>
  <course>188.24</course>
  <speed>0.01414213562373095</speed>
  <fix>3d</fix>
</trkpt>
<trkpt lat="33.810313" lon="-118.393867">
  <ele>-0.12</ele>
  <time>2026-09-01T01:13:58Z</time>
  <course>0.0</course>
  <speed>0.0</speed>
  <fix>3d</fix>
</trkpt>
<trkpt lat="33.810313" lon="-118.393867">
  <ele>-0.125</ele>
  <time>2026-09-01T01:13:58Z</time>
  <course>188.23</course>
  <speed>0.01414213562373095</speed>
  <fix>3d</fix>
</trkpt>
<trkpt lat="33.810313" lon="-118.393867">
  <ele>-0.12</ele>
  <time>2026-09-01T01:13:58Z</time>
  <course>0.0</course>
  <speed>0.0</speed>
  <fix>3d</fix>
</trkpt>
<trkpt lat="33.810313" lon="-118.393867">
  <ele>-0.127</ele>
  <time>2026-09-01T01:13:58Z</time>
  <course>188.22</course>
  <speed>0.01414213562373095</speed>
  <fix>3d</fix>
</trkpt>
<trkpt lat="33.810313" lon="-118.393867">
  <ele>-0.12</ele>
  <time>2026-09-01T01:13:58Z</time>
  <course>0.0</course>
  <speed>0.0</speed>
  <fix>3d</fix>
</trkpt>
<trkpt lat="33.810313" lon="-118.393867">
  <ele>-0.128</ele>
  <time>2026-09-01T01:13:58Z</time>
  <course>188.21</course>
  <speed>0.01414213562373095</speed>
  <fix>3d</fix>
</trkpt>
<trkpt lat="33.810313" lon="-118.393867">
  <ele>-0.12</ele>
  <time>2026-09-01T01:13:58Z</time>
  <course>0.0</course>
  <speed>0.0</speed>
  <fix>3d</fix>
</trkpt>
<trkpt lat="33.810313" lon="-118.393867">
  <ele>-0.129</ele>
  <time>2026-09-01T01:13:58Z</time>
  <course>188.21</course>
  <speed>0.01414213562373095</speed>
  <fix>3d</fix>
</trkpt>
<trkpt lat="33.810313" lon="-118.393867">
  <ele>-0.12</ele>
  <time>2026-09-01T01:13:58Z</time>
  <course>0.0</course>
  <speed>0.0</speed>
  <fix>3d</fix>
</trkpt>
<trkpt lat="33.810313" lon="-118.393867">
  <ele>-0.129</ele>
  <time>2026-09-01T01:13:58Z</time>
  <course>188.2</course>
  <speed>0.01414213562373095</speed>
  <fix>3d</fix>
</trkpt>
<trkpt lat="33.810313" lon="-118.393867">
  <ele>-0.12</ele>
  <time>2026-09-01T01:13:58Z</time>
  <course>0.0</course>
  <speed>0.0</speed>
  <fix>3d</fix>
</trkpt>
<trkpt lat="33.810313" lon="-118.393867">
  <ele>-0.128</ele>
  <time>2026-09-01T01:13:58Z</time>
  <course>188.19</course>
  <speed>0.01414213562373095</speed>
  <fix>3d</fix>
</trkpt>
<trkpt lat="33.810313" lon="-118.393867">
  <ele>-0.12</ele>
  <time>2026-09-01T01:13:58Z</time>
  <course>0.0</course>
  <speed>0.0</speed>
  <fix>3d</fix>
</trkpt>
<trkpt lat="33.810313" lon="-118.393867">
  <ele>-0.128</ele>
  <time>2026-09-01T01:13:58Z</time>
  <course>188.18</course>
  <speed>0.01414213562373095</speed>
  <fix>3d</fix>
</trkpt>
<trkpt lat="33.810313" lon="-118.393867">
  <ele>-0.12</ele>
  <time>2026-09-01T01:13:58Z</time>
  <course>0.0</course>
  <speed>0.0</speed>
  <fix>3d</fix>
</trkpt>
<trkpt lat="33.810313" lon="-118.393867">
  <ele>-0.127</ele>
  <time>2026-09-01T01:13:58Z</time>
  <course>188.17</course>
  <speed>0.01414213562373095</speed>
  <fix>3d</fix>
</trkpt>
<trkpt lat="33.810313" lon="-118.393867">
  <ele>-0.12</ele>
  <time>2026-09-01T01:13:58Z</time>
  <course>0.0</course>
  <speed>0.0</speed>
  <fix>3d</fix>
</trkpt>
<trkpt lat="33.810313" lon="-118.393867">
  <ele>-0.127</ele>
  <time>2026-09-01T01:13:58Z</time>
  <course>188.16</course>
  <speed>0.01414213562373095</speed>
  <fix>3d</fix>
</trkpt>
<trkpt lat="33.810313" lon="-118.393867">
  <ele>-0.12</ele>
  <time>2026-09-01T01:13:58Z</time>
  <course>0.0</course>
  <speed>0.0</speed>
  <fix>3d</fix>
</trkpt>
<trkpt lat="33.810313" lon="-118.393867">
  <ele>-0.128</ele>
  <time>2026-09-01T01:13:58Z</time>
  <course>188.16</course>
  <speed>0.01414213562373095</speed>
  <fix>3d</fix>
</trkpt>
<trkpt lat="33.810313" lon="-118.393867">
  <ele>-0.12</ele>
  <time>2026-09-01T01:13:58Z</time>
  <course>0.0</course>
  <speed>0.0</speed>
  <fix>3d</fix>
</trkpt>
<trkpt lat="33.810313" lon="-118.393867">
  <ele>-0.129</ele>
  <time>2026-09-01T01:13:58Z</time>
  <course>188.15</course>
  <speed>0.01414213562373095</speed>
  <fix>3d</fix>
</trkpt>
<trkpt lat="33.810313" lon="-118.393867">
  <ele>-0.12</ele>
  <time>2026-09-01T01:13:58Z</time>
  <course>0.0</course>
  <speed>0.0</speed>
  <fix>3d</fix>
</trkpt>
<trkpt lat="33.810313" lon="-118.393867">
  <ele>-0.131</ele>
  <time>2026-09-01T01:13:58Z</time>
  <course>188.14</course>
  <speed>0.01414213562373095</speed>
  <fix>3d</fix>
</trkpt>
<trkpt lat="33.810313" lon="-118.393867">
  <ele>-0.12</ele>
  <time>2026-09-01T01:13:58Z</time>
  <course>0.0</course>
  <speed>0.0</speed>
  <fix>3d</fix>
</trkpt>
<trkpt lat="33.810313" lon="-118.393867">
  <ele>-0.133</ele>
  <time>2026-09-01T01:13:58Z</time>
  <course>188.13</course>
  <speed>0.01414213562373095</speed>
  <fix>3d</fix>
</trkpt>
<trkpt lat="33.810313" lon="-118.393867">
  <ele>-0.12</ele>
  <time>2026-09-01T01:13:58Z</time>
  <course>0.0</course>
  <speed>0.0</speed>
  <fix>3d</fix>
</trkpt>
<trkpt lat="33.810313" lon="-118.393867">
  <ele>-0.135</ele>
  <time>2026-09-01T01:13:58Z</time>
  <course>188.12</course>
  <speed>0.01414213562373095</speed>
  <fix>3d</fix>
</trkpt>
<trkpt lat="33.810313" lon="-118.393867">
  <ele>-0.12</ele>
  <time>2026-09-01T01:13:58Z</time>
  <course>0.0</course>
  <speed>0.0</speed>
  <fix>3d</fix>
</trkpt>
<trkpt lat="33.810313" lon="-118.393867">
  <ele>-0.136</ele>
  <time>2026-09-01T01:13:58Z</time>
  <course>188.12</course>
  <speed>0.01414213562373095</speed>
  <fix>3d</fix>
</trkpt>
<trkpt lat="33.810313" lon="-118.393867">
  <ele>-0.12</ele>
  <time>2026-09-01T01:13:58Z</time>
  <course>0.0</course>
  <speed>0.0</speed>
  <fix>3d</fix>
</trkpt>
<trkpt lat="33.810313" lon="-118.393867">
  <ele>-0.136</ele>
  <time>2026-09-01T01:13:58Z</time>
  <course>188.11</course>
  <speed>0.01414213562373095</speed>
  <fix>3d</fix>
</trkpt>
<trkpt lat="33.810313" lon="-118.393867">
  <ele>-0.12</ele>
  <time>2026-09-01T01:13:58Z</time>
  <course>0.0</course>
  <speed>0.0</speed>
  <fix>3d</fix>
</trkpt>
<trkpt lat="33.810313" lon="-118.393867">
  <ele>-0.136</ele>
  <time>2026-09-01T01:13:58Z</time>
  <course>188.1</course>
  <speed>0.01414213562373095</speed>
  <fix>3d</fix>
</trkpt>
<trkpt lat="33.810313" lon="-118.393867">
  <ele>-0.12</ele>
  <time>2026-09-01T01:13:58Z</time>
  <course>0.0</course>
  <speed>0.0</speed>
  <fix>3d</fix>
</trkpt>
<trkpt lat="33.810313" lon="-118.393867">
  <ele>-0.135</ele>
  <time>2026-09-01T01:13:58Z</time>
  <course>188.09</course>
  <speed>0.01414213562373095</speed>
  <fix>3d</fix>
</trkpt>
<trkpt lat="33.810313" lon="-118.393867">
  <ele>-0.12</ele>
  <time>2026-09-01T01:13:58Z</time>
  <course>0.0</course>
  <speed>0.0</speed>
  <fix>3d</fix>
</trkpt>
<trkpt lat="33.810313" lon="-118.393867">
  <ele>-0.134</ele>
  <time>2026-09-01T01:13:58Z</time>
  <course>188.08</course>
  <speed>0.01414213562373095</speed>
  <fix>3d</fix>
</trkpt>
<trkpt lat="33.810313" lon="-118.393867">
  <ele>-0.12</ele>
  <time>2026-09-01T01:13:58Z</time>
  <course>0.0</course>
  <speed>0.0</speed>
  <fix>3d</fix>
</trkpt>
<trkpt lat="33.810313" lon="-118.393867">
  <ele>-0.131</ele>
  <time>2026-09-01T01:13:58Z</time>
  <course>188.07</course>
  <speed>0.022360679774997897</speed>
  <fix>3d</fix>
</trkpt>
<trkpt lat="33.810313" lon="-118.393867">
  <ele>-0.12</ele>
  <time>2026-09-01T01:13:58Z</time>
  <course>0.0</course>
  <speed>0.0</speed>
  <fix>3d</fix>
</trkpt>
<trkpt lat="33.810313" lon="-118.393867">
  <ele>-0.128</ele>
  <time>2026-09-01T01:13:58Z</time>
  <course>188.07</course>
  <speed>0.022360679774997897</speed>
  <fix>3d</fix>
</trkpt>
<trkpt lat="33.810313" lon="-118.393867">
  <ele>-0.12</ele>
  <time>2026-09-01T01:13:58Z</time>
  <course>0.0</course>
  <speed>0.0</speed>
  <fix>3d</fix>
</trkpt>
<trkpt lat="33.810313" lon="-118.393867">
  <ele>-0.127</ele>
  <time>2026-09-01T01:13:58Z</time>
  <course>188.06</course>
  <speed>0.022360679774997897</speed>
  <fix>3d</fix>
</trkpt>
<trkpt lat="33.810313" lon="-118.393867">
  <ele>-0.12</ele>
  <time>2026-09-01T01:13:58Z</time>
  <course>0.0</course>
  <speed>0.0</speed>
  <fix>3d</fix>
</trkpt>
<trkpt lat="33.810313" lon="-118.393867">
  <ele>-0.126</ele>
  <time>2026-09-01T01:13:58Z</time>
  <course>188.05</course>
  <speed>0.022360679774997897</speed>
  <fix>3d</fix>
</trkpt>
<trkpt lat="33.810313" lon="-118.393867">
  <ele>-0.12</ele>
  <time>2026-09-01T01:13:58Z</time>
  <course>0.0</course>
  <speed>0.0</speed>
  <fix>3d</fix>
</trkpt>
<trkpt lat="33.810313" lon="-118.393867">
  <ele>-0.126</ele>
  <time>2026-09-01T01:13:58Z</time>
  <course>188.04</course>
  <speed>0.022360679774997897</speed>
  <fix>3d</fix>
</trkpt>
<trkpt lat="33.810313" lon="-118.393867">
  <ele>-0.12</ele>
  <time>2026-09-01T01:13:58Z</time>
  <course>0.0</course>
  <speed>0.0</speed>
  <fix>3d</fix>
</trkpt>
<trkpt lat="33.810313" lon="-118.393867">
  <ele>-0.127</ele>
  <time>2026-09-01T01:13:58Z</time>
  <course>188.03</course>
  <speed>0.022360679774997897</speed>
  <fix>3d</fix>
</trkpt>
<trkpt lat="33.810313" lon="-118.393867">
  <ele>-0.12</ele>
  <time>2026-09-01T01:13:58Z</time>
  <course>0.0</course>
  <speed>0.0</speed>
  <fix>3d</fix>
</trkpt>
<trkpt lat="33.810313" lon="-118.393867">
  <ele>-0.127</ele>
  <time>2026-09-01T01:13:58Z</time>
  <course>188.03</course>
  <speed>0.022360679774997897</speed>
  <fix>3d</fix>
</trkpt>
<trkpt lat="33.810313" lon="-118.393867">
  <ele>-0.12</ele>
  <time>2026-09-01T01:13:58Z</time>
  <course>0.0</course>
  <speed>0.0</speed>
  <fix>3d</fix>
</trkpt>
<trkpt lat="33.810313" lon="-118.393867">
  <ele>-0.127</ele>
  <time>2026-09-01T01:13:58Z</time>
  <course>188.02</course>
  <speed>0.022360679774997897</speed>
  <fix>3d</fix>
</trkpt>
<trkpt lat="33.810313" lon="-118.393867">
  <ele>-0.12</ele>
  <time>2026-09-01T01:13:58Z</time>
  <course>0.0</course>
  <speed>0.0</speed>
  <fix>3d</fix>
</trkpt>
<trkpt lat="33.810313" lon="-118.393867">
  <ele>-0.128</ele>
  <time>2026-09-01T01:13:58Z</time>
  <course>188.01</course>
  <speed>0.022360679774997897</speed>
  <fix>3d</fix>
</trkpt>
<trkpt lat="33.810313" lon="-118.393867">
  <ele>-0.12</ele>
  <time>2026-09-01T01:13:58Z</time>
  <course>0.0</course>
  <speed>0.0</speed>
  <fix>3d</fix>
</trkpt>
<trkpt lat="33.810313" lon="-118.393867">
  <ele>-0.128</ele>
  <time>2026-09-01T01:13:58Z</time>
  <course>188.0</course>
  <speed>0.022360679774997897</speed>
  <fix>3d</fix>
</trkpt>
<trkpt lat="33.810313" lon="-118.393867">
  <ele>-0.12</ele>
  <time>2026-09-01T01:13:58Z</time>
  <course>0.0</course>
  <speed>0.0</speed>
  <fix>3d</fix>
</trkpt>
<trkpt lat="33.810313" lon="-118.393867">
  <ele>-0.128</ele>
  <time>2026-09-01T01:13:58Z</time>
  <course>187.99</course>
  <speed>0.022360679774997897</speed>
  <fix>3d</fix>
</trkpt>
<trkpt lat="33.810313" lon="-118.393867">
  <ele>-0.12</ele>
  <time>2026-09-01T01:13:58Z</time>
  <course>0.0</course>
  <speed>0.0</speed>
  <fix>3d</fix>
</trkpt>
<trkpt lat="33.810313" lon="-118.393867">
  <ele>-0.126</ele>
  <time>2026-09-01T01:13:58Z</time>
  <course>187.99</course>
  <speed>0.022360679774997897</speed>
  <fix>3d</fix>
</trkpt>
<trkpt lat="33.810313" lon="-118.393867">
  <ele>-0.12</ele>
  <time>2026-09-01T01:13:58Z</time>
  <course>0.0</course>
  <speed>0.0</speed>
  <fix>3d</fix>
</trkpt>
<trkpt lat="33.810313" lon="-118.393867">
  <ele>-0.124</ele>
  <time>2026-09-01T01:13:58Z</time>
  <course>187.98</course>
  <speed>0.022360679774997897</speed>
  <fix>3d</fix>
</trkpt>
<trkpt lat="33.810313" lon="-118.393867">
  <ele>-0.12</ele>
  <time>2026-09-01T01:13:58Z</time>
  <course>0.0</course>
  <speed>0.0</speed>
  <fix>3d</fix>
</trkpt>
<trkpt lat="33.810313" lon="-118.393867">
  <ele>-0.122</ele>
  <time>2026-09-01T01:13:58Z</time>
  <course>187.97</course>
  <speed>0.022360679774997897</speed>
  <fix>3d</fix>
</trkpt>
<trkpt lat="33.810313" lon="-118.393867">
  <ele>-0.12</ele>
  <time>2026-09-01T01:13:58Z</time>
  <course>0.0</course>
  <speed>0.0</speed>
  <fix>3d</fix>
</trkpt>
<trkpt lat="33.810313" lon="-118.393867">
  <ele>-0.12</ele>
  <time>2026-09-01T01:13:58Z</time>
  <course>187.96</course>
  <speed>0.022360679774997897</speed>
  <fix>3d</fix>
</trkpt>
<trkpt lat="33.810313" lon="-118.393867">
  <ele>-0.12</ele>
  <time>2026-09-01T01:13:58Z</time>
  <course>0.0</course>
  <speed>0.0</speed>
  <fix>3d</fix>
</trkpt>
<trkpt lat="33.810313" lon="-118.393867">
  <ele>-0.12</ele>
  <time>2026-09-01T01:13:58Z</time>
  <course>187.95</course>
  <speed>0.022360679774997897</speed>
  <fix>3d</fix>
</trkpt>
<trkpt lat="33.810313" lon="-118.393867">
  <ele>-0.12</ele>
  <time>2026-09-01T01:13:58Z</time>
  <course>0.0</course>
  <speed>0.0</speed>
  <fix>3d</fix>
</trkpt>
<trkpt lat="33.810313" lon="-118.393867">
  <ele>-0.122</ele>
  <time>2026-09-01T01:13:58Z</time>
  <course>187.94</course>
  <speed>0.022360679774997897</speed>
  <fix>3d</fix>
</trkpt>
<trkpt lat="33.810313" lon="-118.393867">
  <ele>-0.12</ele>
  <time>2026-09-01T01:13:58Z</time>
  <course>0.0</course>
  <speed>0.0</speed>
  <fix>3d</fix>
</trkpt>
<trkpt lat="33.810313" lon="-118.393867">
  <ele>-0.125</ele>
  <time>2026-09-01T01:13:58Z</time>
  <course>187.94</course>
  <speed>0.022360679774997897</speed>
  <fix>3d</fix>
</trkpt>
<trkpt lat="33.810313" lon="-118.393867">
  <ele>-0.12</ele>
  <time>2026-09-01T01:13:58Z</time>
  <course>0.0</course>
  <speed>0.0</speed>
  <fix>3d</fix>
</trkpt>
<trkpt lat="33.810313" lon="-118.393867">
  <ele>-0.128</ele>
  <time>2026-09-01T01:13:58Z</time>
  <course>187.93</course>
  <speed>0.022360679774997897</speed>
  <fix>3d</fix>
</trkpt>
<trkpt lat="33.810313" lon="-118.393867">
  <ele>-0.12</ele>
  <time>2026-09-01T01:13:58Z</time>
  <course>0.0</course>
  <speed>0.0</speed>
  <fix>3d</fix>
</trkpt>
<trkpt lat="33.810313" lon="-118.393867">
  <ele>-0.131</ele>
  <time>2026-09-01T01:13:58Z</time>
  <course>187.92</course>
  <speed>0.022360679774997897</speed>
  <fix>3d</fix>
</trkpt>
<trkpt lat="33.810313" lon="-118.393867">
  <ele>-0.12</ele>
  <time>2026-09-01T01:13:58Z</time>
  <course>0.0</course>
  <speed>0.0</speed>
  <fix>3d</fix>
</trkpt>
<trkpt lat="33.810313" lon="-118.393867">
  <ele>-0.132</ele>
  <time>2026-09-01T01:13:58Z</time>
  <course>187.91</course>
  <speed>0.022360679774997897</speed>
  <fix>3d</fix>
</trkpt>
<trkpt lat="33.810313" lon="-118.393867">
  <ele>-0.12</ele>
  <time>2026-09-01T01:13:58Z</time>
  <course>0.0</course>
  <speed>0.0</speed>
  <fix>3d</fix>
</trkpt>
<trkpt lat="33.810313" lon="-118.393867">
  <ele>-0.132</ele>
  <time>2026-09-01T01:13:58Z</time>
  <course>187.91</course>
  <speed>0.022360679774997897</speed>
  <fix>3d</fix>
</trkpt>
<trkpt lat="33.810313" lon="-118.393867">
  <ele>-0.12</ele>
  <time>2026-09-01T01:13:58Z</time>
  <course>0.0</course>
  <speed>0.0</speed>
  <fix>3d</fix>
</trkpt>
<trkpt lat="33.810313" lon="-118.393867">
  <ele>-0.132</ele>
  <time>2026-09-01T01:13:58Z</time>
  <course>187.9</course>
  <speed>0.022360679774997897</speed>
  <fix>3d</fix>
</trkpt>
<trkpt lat="33.810313" lon="-118.393867">
  <ele>-0.12</ele>
  <time>2026-09-01T01:13:58Z</time>
  <course>0.0</course>
  <speed>0.0</speed>
  <fix>3d</fix>
</trkpt>
<trkpt lat="33.810313" lon="-118.393867">
  <ele>-0.13</ele>
  <time>2026-09-01T01:13:58Z</time>
  <course>187.89</course>
  <speed>0.022360679774997897</speed>
  <fix>3d</fix>
</trkpt>
<trkpt lat="33.810313" lon="-118.393867">
  <ele>-0.12</ele>
  <time>2026-09-01T01:13:58Z</time>
  <course>0.0</course>
  <speed>0.0</speed>
  <fix>3d</fix>
</trkpt>
<trkpt lat="33.810313" lon="-118.393867">
  <ele>-0.127</ele>
  <time>2026-09-01T01:13:58Z</time>
  <course>187.88</course>
  <speed>0.022360679774997897</speed>
  <fix>3d</fix>
</trkpt>
<trkpt lat="33.810313" lon="-118.393867">
  <ele>-0.12</ele>
  <time>2026-09-01T01:13:58Z</time>
  <course>0.0</course>
  <speed>0.0</speed>
  <fix>3d</fix>
</trkpt>
<trkpt lat="33.810313" lon="-118.393867">
  <ele>-0.123</ele>
  <time>2026-09-01T01:13:58Z</time>
  <course>187.87</course>
  <speed>0.022360679774997897</speed>
  <fix>3d</fix>
</trkpt>
<trkpt lat="33.810313" lon="-118.393867">
  <ele>-0.12</ele>
  <time>2026-09-01T01:13:58Z</time>
  <course>0.0</course>
  <speed>0.0</speed>
  <fix>3d</fix>
</trkpt>
<trkpt lat="33.810313" lon="-118.393867">
  <ele>-0.121</ele>
  <time>2026-09-01T01:13:58Z</time>
  <course>187.87</course>
  <speed>0.022360679774997897</speed>
  <fix>3d</fix>
</trkpt>
<trkpt lat="33.810313" lon="-118.393867">
  <ele>-0.12</ele>
  <time>2026-09-01T01:13:58Z</time>
  <course>0.0</course>
  <speed>0.0</speed>
  <fix>3d</fix>
</trkpt>
<trkpt lat="33.810313" lon="-118.393867">
  <ele>-0.121</ele>
  <time>2026-09-01T01:13:58Z</time>
  <course>187.86</course>
  <speed>0.022360679774997897</speed>
  <fix>3d</fix>
</trkpt>
<trkpt lat="33.810313" lon="-118.393867">
  <ele>-0.12</ele>
  <time>2026-09-01T01:13:58Z</time>
  <course>0.0</course>
  <speed>0.0</speed>
  <fix>3d</fix>
</trkpt>
<trkpt lat="33.810313" lon="-118.393867">
  <ele>-0.123</ele>
  <time>2026-09-01T01:13:58Z</time>
  <course>187.85</course>
  <speed>0.022360679774997897</speed>
  <fix>3d</fix>
</trkpt>
<trkpt lat="33.810313" lon="-118.393867">
  <ele>-0.12</ele>
  <time>2026-09-01T01:13:58Z</time>
  <course>0.0</course>
  <speed>0.0</speed>
  <fix>3d</fix>
</trkpt>
<trkpt lat="33.810313" lon="-118.393867">
  <ele>-0.124</ele>
  <time>2026-09-01T01:13:58Z</time>
  <course>187.84</course>
  <speed>0.022360679774997897</speed>
  <fix>3d</fix>
</trkpt>
<trkpt lat="33.810313" lon="-118.393867">
  <ele>-0.12</ele>
  <time>2026-09-01T01:13:58Z</time>
  <course>0.0</course>
  <speed>0.0</speed>
  <fix>3d</fix>
</trkpt>
<trkpt lat="33.810313" lon="-118.393867">
  <ele>-0.126</ele>
  <time>2026-09-01T01:13:58Z</time>
  <course>187.83</course>
  <speed>0.022360679774997897</speed>
  <fix>3d</fix>
</trkpt>
<trkpt lat="33.810313" lon="-118.393867">
  <ele>-0.12</ele>
  <time>2026-09-01T01:13:58Z</time>
  <course>0.0</course>
  <speed>0.0</speed>
  <fix>3d</fix>
</trkpt>
<trkpt lat="33.810313" lon="-118.393867">
  <ele>-0.127</ele>
  <time>2026-09-01T01:13:58Z</time>
  <course>187.83</course>
  <speed>0.022360679774997897</speed>
  <fix>3d</fix>
</trkpt>
<trkpt lat="33.810313" lon="-118.393867">
  <ele>-0.12</ele>
  <time>2026-09-01T01:13:58Z</time>
  <course>0.0</course>
  <speed>0.0</speed>
  <fix>3d</fix>
</trkpt>
<trkpt lat="33.810313" lon="-118.393867">
  <ele>-0.127</ele>
  <time>2026-09-01T01:13:58Z</time>
  <course>187.82</course>
  <speed>0.022360679774997897</speed>
  <fix>3d</fix>
</trkpt>
<trkpt lat="33.810313" lon="-118.393867">
  <ele>-0.12</ele>
  <time>2026-09-01T01:13:58Z</time>
  <course>0.0</course>
  <speed>0.0</speed>
  <fix>3d</fix>
</trkpt>
<trkpt lat="33.810313" lon="-118.393867">
  <ele>-0.127</ele>
  <time>2026-09-01T01:13:58Z</time>
  <course>187.81</course>
  <speed>0.022360679774997897</speed>
  <fix>3d</fix>
</trkpt>
<trkpt lat="33.810313" lon="-118.393867">
  <ele>-0.12</ele>
  <time>2026-09-01T01:13:58Z</time>
  <course>0.0</course>
  <speed>0.0</speed>
  <fix>3d</fix>
</trkpt>
<trkpt lat="33.810313" lon="-118.393867">
  <ele>-0.126</ele>
  <time>2026-09-01T01:13:58Z</time>
  <course>187.8</course>
  <speed>0.022360679774997897</speed>
  <fix>3d</fix>
</trkpt>
<trkpt lat="33.810313" lon="-118.393867">
  <ele>-0.12</ele>
  <time>2026-09-01T01:13:58Z</time>
  <course>0.0</course>
  <speed>0.0</speed>
  <fix>3d</fix>
</trkpt>
<trkpt lat="33.810313" lon="-118.393867">
  <ele>-0.124</ele>
  <time>2026-09-01T01:13:58Z</time>
  <course>187.8</course>
  <speed>0.022360679774997897</speed>
  <fix>3d</fix>
</trkpt>
<trkpt lat="33.810313" lon="-118.393867">
  <ele>-0.12</ele>
  <time>2026-09-01T01:13:58Z</time>
  <course>0.0</course>
  <speed>0.0</speed>
  <fix>3d</fix>
</trkpt>
<trkpt lat="33.810313" lon="-118.393867">
  <ele>-0.121</ele>
  <time>2026-09-01T01:13:58Z</time>
  <course>187.79</course>
  <speed>0.022360679774997897</speed>
  <fix>3d</fix>
</trkpt>
<trkpt lat="33.810313" lon="-118.393867">
  <ele>-0.12</ele>
  <time>2026-09-01T01:13:58Z</time>
  <course>0.0</course>
  <speed>0.0</speed>
  <fix>3d</fix>
</trkpt>
<trkpt lat="33.810313" lon="-118.393867">
  <ele>-0.119</ele>
  <time>2026-09-01T01:13:58Z</time>
  <course>187.78</course>
  <speed>0.022360679774997897</speed>
  <fix>3d</fix>
</trkpt>
<trkpt lat="33.810313" lon="-118.393867">
  <ele>-0.12</ele>
  <time>2026-09-01T01:13:58Z</time>
  <course>0.0</course>
  <speed>0.0</speed>
  <fix>3d</fix>
</trkpt>
<trkpt lat="33.810313" lon="-118.393867">
  <ele>-0.118</ele>
  <time>2026-09-01T01:13:58Z</time>
  <course>187.77</course>
  <speed>0.022360679774997897</speed>
  <fix>3d</fix>
</trkpt>
<trkpt lat="33.810313" lon="-118.393867">
  <ele>-0.12</ele>
  <time>2026-09-01T01:13:58Z</time>
  <course>0.0</course>
  <speed>0.0</speed>
  <fix>3d</fix>
</trkpt>
<trkpt lat="33.810313" lon="-118.393867">
  <ele>-0.118</ele>
  <time>2026-09-01T01:13:58Z</time>
  <course>187.77</course>
  <speed>0.022360679774997897</speed>
  <fix>3d</fix>
</trkpt>
<trkpt lat="33.810313" lon="-118.393867">
  <ele>-0.12</ele>
  <time>2026-09-01T01:13:58Z</time>
  <course>0.0</course>
  <speed>0.0</speed>
  <fix>3d</fix>
</trkpt>
<trkpt lat="33.810313" lon="-118.393867">
  <ele>-0.119</ele>
  <time>2026-09-01T01:13:58Z</time>
  <course>187.76</course>
  <speed>0.022360679774997897</speed>
  <fix>3d</fix>
</trkpt>
<trkpt lat="33.810313" lon="-118.393867">
  <ele>-0.12</ele>
  <time>2026-09-01T01:13:58Z</time>
  <course>0.0</course>
  <speed>0.0</speed>
  <fix>3d</fix>
</trkpt>
<trkpt lat="33.810313" lon="-118.393867">
  <ele>-0.12</ele>
  <time>2026-09-01T01:13:58Z</time>
  <course>187.75</course>
  <speed>0.022360679774997897</speed>
  <fix>3d</fix>
</trkpt>
<trkpt lat="33.810313" lon="-118.393867">
  <ele>-0.12</ele>
  <time>2026-09-01T01:13:58Z</time>
  <course>0.0</course>
  <speed>0.0</speed>
  <fix>3d</fix>
</trkpt>
<trkpt lat="33.810313" lon="-118.393867">
  <ele>-0.12</ele>
  <time>2026-09-01T01:13:58Z</time>
  <course>187.74</course>
  <speed>0.0282842712474619</speed>
  <fix>3d</fix>
</trkpt>
<trkpt lat="33.810313" lon="-118.393867">
  <ele>-0.12</ele>
  <time>2026-09-01T01:13:58Z</time>
  <course>0.0</course>
  <speed>0.0</speed>
  <fix>3d</fix>
</trkpt>
<trkpt lat="33.810313" lon="-118.393867">
  <ele>-0.12</ele>
  <time>2026-09-01T01:13:58Z</time>
  <course>187.74</course>
  <speed>0.0282842712474619</speed>
  <fix>3d</fix>
</trkpt>
<trkpt lat="33.810313" lon="-118.393867">
  <ele>-0.12</ele>
  <time>2026-09-01T01:13:58Z</time>
  <course>0.0</course>
  <speed>0.0</speed>
  <fix>3d</fix>
</trkpt>
<trkpt lat="33.810313" lon="-118.393867">
  <ele>-0.119</ele>
  <time>2026-09-01T01:13:58Z</time>
  <course>187.73</course>
  <speed>0.0282842712474619</speed>
  <fix>3d</fix>
</trkpt>
<trkpt lat="33.810313" lon="-118.393867">
  <ele>-0.12</ele>
  <time>2026-09-01T01:13:58Z</time>
  <course>0.0</course>
  <speed>0.0</speed>
  <fix>3d</fix>
</trkpt>
<trkpt lat="33.810313" lon="-118.393867">
  <ele>-0.118</ele>
  <time>2026-09-01T01:13:58Z</time>
  <course>187.72</course>
  <speed>0.0282842712474619</speed>
  <fix>3d</fix>
</trkpt>
<trkpt lat="33.810313" lon="-118.393867">
  <ele>-0.12</ele>
  <time>2026-09-01T01:13:58Z</time>
  <course>0.0</course>
  <speed>0.0</speed>
  <fix>3d</fix>
</trkpt>
<trkpt lat="33.810313" lon="-118.393867">
  <ele>-0.116</ele>
  <time>2026-09-01T01:13:58Z</time>
  <course>187.71</course>
  <speed>0.0282842712474619</speed>
  <fix>3d</fix>
</trkpt>
<trkpt lat="33.810313" lon="-118.393867">
  <ele>-0.12</ele>
  <time>2026-09-01T01:13:58Z</time>
  <course>0.0</course>
  <speed>0.0</speed>
  <fix>3d</fix>
</trkpt>
<trkpt lat="33.810313" lon="-118.393867">
  <ele>-0.114</ele>
  <time>2026-09-01T01:13:58Z</time>
  <course>187.71</course>
  <speed>0.0282842712474619</speed>
  <fix>3d</fix>
</trkpt>
<trkpt lat="33.810313" lon="-118.393867">
  <ele>-0.12</ele>
  <time>2026-09-01T01:13:58Z</time>
  <course>0.0</course>
  <speed>0.0</speed>
  <fix>3d</fix>
</trkpt>
<trkpt lat="33.810313" lon="-118.393867">
  <ele>-0.112</ele>
  <time>2026-09-01T01:13:58Z</time>
  <course>187.7</course>
  <speed>0.0282842712474619</speed>
  <fix>3d</fix>
</trkpt>
<trkpt lat="33.810313" lon="-118.393867">
  <ele>-0.12</ele>
  <time>2026-09-01T01:13:58Z</time>
  <course>0.0</course>
  <speed>0.0</speed>
  <fix>3d</fix>
</trkpt>
<trkpt lat="33.810313" lon="-118.393867">
  <ele>-0.113</ele>
  <time>2026-09-01T01:13:58Z</time>
  <course>187.69</course>
  <speed>0.0282842712474619</speed>
  <fix>3d</fix>
</trkpt>
<trkpt lat="33.810313" lon="-118.393867">
  <ele>-0.12</ele>
  <time>2026-09-01T01:13:58Z</time>
  <course>0.0</course>
  <speed>0.0</speed>
  <fix>3d</fix>
</trkpt>
<trkpt lat="33.810313" lon="-118.393867">
  <ele>-0.115</ele>
  <time>2026-09-01T01:13:58Z</time>
  <course>187.69</course>
  <speed>0.0282842712474619</speed>
  <fix>3d</fix>
</trkpt>
<trkpt lat="33.810313" lon="-118.393867">
  <ele>-0.12</ele>
  <time>2026-09-01T01:13:58Z</time>
  <course>0.0</course>
  <speed>0.0</speed>
  <fix>3d</fix>
</trkpt>
<trkpt lat="33.810313" lon="-118.393867">
  <ele>-0.119</ele>
  <time>2026-09-01T01:13:58Z</time>
  <course>187.68</course>
  <speed>0.0282842712474619</speed>
  <fix>3d</fix>
</trkpt>
<trkpt lat="33.810313" lon="-118.393867">
  <ele>-0.12</ele>
  <time>2026-09-01T01:13:58Z</time>
  <course>0.0</course>
  <speed>0.0</speed>
  <fix>3d</fix>
</trkpt>
<trkpt lat="33.810313" lon="-118.393867">
  <ele>-0.123</ele>
  <time>2026-09-01T01:13:58Z</time>
  <course>187.67</course>
  <speed>0.0282842712474619</speed>
  <fix>3d</fix>
</trkpt>
<trkpt lat="33.810313" lon="-118.393867">
  <ele>-0.12</ele>
  <time>2026-09-01T01:13:58Z</time>
  <course>0.0</course>
  <speed>0.0</speed>
  <fix>3d</fix>
</trkpt>
<trkpt lat="33.810313" lon="-118.393867">
  <ele>-0.128</ele>
  <time>2026-09-01T01:13:58Z</time>
  <course>187.66</course>
  <speed>0.0282842712474619</speed>
  <fix>3d</fix>
</trkpt>
<trkpt lat="33.810313" lon="-118.393867">
  <ele>-0.12</ele>
  <time>2026-09-01T01:13:58Z</time>
  <course>0.0</course>
  <speed>0.0</speed>
  <fix>3d</fix>
</trkpt>
<trkpt lat="33.810313" lon="-118.393867">
  <ele>-0.132</ele>
  <time>2026-09-01T01:13:58Z</time>
  <course>187.66</course>
  <speed>0.0282842712474619</speed>
  <fix>3d</fix>
</trkpt>
<trkpt lat="33.810313" lon="-118.393867">
  <ele>-0.12</ele>
  <time>2026-09-01T01:13:58Z</time>
  <course>0.0</course>
  <speed>0.0</speed>
  <fix>3d</fix>
</trkpt>
<trkpt lat="33.810313" lon="-118.393867">
  <ele>-0.134</ele>
  <time>2026-09-01T01:13:58Z</time>
  <course>187.65</course>
  <speed>0.0282842712474619</speed>
  <fix>3d</fix>
</trkpt>
<trkpt lat="33.810313" lon="-118.393867">
  <ele>-0.12</ele>
  <time>2026-09-01T01:13:58Z</time>
  <course>0.0</course>
  <speed>0.0</speed>
  <fix>3d</fix>
</trkpt>
<trkpt lat="33.810313" lon="-118.393867">
  <ele>-0.135</ele>
  <time>2026-09-01T01:13:58Z</time>
  <course>187.64</course>
  <speed>0.0282842712474619</speed>
  <fix>3d</fix>
</trkpt>
<trkpt lat="33.810313" lon="-118.393867">
  <ele>-0.12</ele>
  <time>2026-09-01T01:13:58Z</time>
  <course>0.0</course>
  <speed>0.0</speed>
  <fix>3d</fix>
</trkpt>
<trkpt lat="33.810313" lon="-118.393867">
  <ele>-0.135</ele>
  <time>2026-09-01T01:13:58Z</time>
  <course>187.64</course>
  <speed>0.0282842712474619</speed>
  <fix>3d</fix>
</trkpt>
<trkpt lat="33.810313" lon="-118.393867">
  <ele>-0.12</ele>
  <time>2026-09-01T01:13:58Z</time>
  <course>0.0</course>
  <speed>0.0</speed>
  <fix>3d</fix>
</trkpt>
<trkpt lat="33.810313" lon="-118.393867">
  <ele>-0.133</ele>
  <time>2026-09-01T01:13:58Z</time>
  <course>187.63</course>
  <speed>0.0282842712474619</speed>
  <fix>3d</fix>
</trkpt>
<trkpt lat="33.810313" lon="-118.393867">
  <ele>-0.12</ele>
  <time>2026-09-01T01:13:58Z</time>
  <course>0.0</course>
  <speed>0.0</speed>
  <fix>3d</fix>
</trkpt>
<trkpt lat="33.810313" lon="-118.393867">
  <ele>-0.132</ele>
  <time>2026-09-01T01:13:58Z</time>
  <course>187.63</course>
  <speed>0.0282842712474619</speed>
  <fix>3d</fix>
</trkpt>
<trkpt lat="33.810313" lon="-118.393867">
  <ele>-0.12</ele>
  <time>2026-09-01T01:13:58Z</time>
  <course>0.0</course>
  <speed>0.0</speed>
  <fix>3d</fix>
</trkpt>
<trkpt lat="33.810313" lon="-118.393867">
  <ele>-0.132</ele>
  <time>2026-09-01T01:13:58Z</time>
  <course>187.62</course>
  <speed>0.03605551275463989</speed>
  <fix>3d</fix>
</trkpt>
<trkpt lat="33.810313" lon="-118.393867">
  <ele>-0.12</ele>
  <time>2026-09-01T01:13:58Z</time>
  <course>0.0</course>
  <speed>0.0</speed>
  <fix>3d</fix>
</trkpt>
<trkpt lat="33.810313" lon="-118.393867">
  <ele>-0.132</ele>
  <time>2026-09-01T01:13:58Z</time>
  <course>187.61</course>
  <speed>0.03605551275463989</speed>
  <fix>3d</fix>
</trkpt>
<trkpt lat="33.810313" lon="-118.393867">
  <ele>-0.12</ele>
  <time>2026-09-01T01:13:58Z</time>
  <course>0.0</course>
  <speed>0.0</speed>
  <fix>3d</fix>
</trkpt>
<trkpt lat="33.810313" lon="-118.393867">
  <ele>-0.133</ele>
  <time>2026-09-01T01:13:58Z</time>
  <course>187.61</course>
  <speed>0.03605551275463989</speed>
  <fix>3d</fix>
</trkpt>
<trkpt lat="33.810313" lon="-118.393867">
  <ele>-0.12</ele>
  <time>2026-09-01T01:13:58Z</time>
  <course>0.0</course>
  <speed>0.0</speed>
  <fix>3d</fix>
</trkpt>
<trkpt lat="33.810313" lon="-118.393867">
  <ele>-0.134</ele>
  <time>2026-09-01T01:13:58Z</time>
  <course>187.6</course>
  <speed>0.03605551275463989</speed>
  <fix>3d</fix>
</trkpt>
<trkpt lat="33.810313" lon="-118.393867">
  <ele>-0.12</ele>
  <time>2026-09-01T01:13:58Z</time>
  <course>0.0</course>
  <speed>0.0</speed>
  <fix>3d</fix>
</trkpt>
<trkpt lat="33.810313" lon="-118.393867">
  <ele>-0.133</ele>
  <time>2026-09-01T01:13:58Z</time>
  <course>187.59</course>
  <speed>0.03605551275463989</speed>
  <fix>3d</fix>
</trkpt>
<trkpt lat="33.810313" lon="-118.393867">
  <ele>-0.12</ele>
  <time>2026-09-01T01:13:58Z</time>
  <course>0.0</course>
  <speed>0.0</speed>
  <fix>3d</fix>
</trkpt>
<trkpt lat="33.810313" lon="-118.393867">
  <ele>-0.132</ele>
  <time>2026-09-01T01:13:58Z</time>
  <course>187.59</course>
  <speed>0.03605551275463989</speed>
  <fix>3d</fix>
</trkpt>
<trkpt lat="33.810313" lon="-118.393867">
  <ele>-0.12</ele>
  <time>2026-09-01T01:13:58Z</time>
  <course>0.0</course>
  <speed>0.0</speed>
  <fix>3d</fix>
</trkpt>
<trkpt lat="33.810313" lon="-118.393867">
  <ele>-0.13</ele>
  <time>2026-09-01T01:13:58Z</time>
  <course>187.58</course>
  <speed>0.03605551275463989</speed>
  <fix>3d</fix>
</trkpt>
<trkpt lat="33.810313" lon="-118.393867">
  <ele>-0.12</ele>
  <time>2026-09-01T01:13:58Z</time>
  <course>0.0</course>
  <speed>0.0</speed>
  <fix>3d</fix>
</trkpt>
<trkpt lat="33.810313" lon="-118.393867">
  <ele>-0.127</ele>
  <time>2026-09-01T01:13:58Z</time>
  <course>187.57</course>
  <speed>0.03605551275463989</speed>
  <fix>3d</fix>
</trkpt>
<trkpt lat="33.810313" lon="-118.393867">
  <ele>-0.12</ele>
  <time>2026-09-01T01:13:58Z</time>
  <course>0.0</course>
  <speed>0.0</speed>
  <fix>3d</fix>
</trkpt>
<trkpt lat="33.810313" lon="-118.393867">
  <ele>-0.125</ele>
  <time>2026-09-01T01:13:58Z</time>
  <course>187.57</course>
  <speed>0.03605551275463989</speed>
  <fix>3d</fix>
</trkpt>
<trkpt lat="33.810313" lon="-118.393867">
  <ele>-0.12</ele>
  <time>2026-09-01T01:13:58Z</time>
  <course>0.0</course>
  <speed>0.0</speed>
  <fix>3d</fix>
</trkpt>
<trkpt lat="33.810313" lon="-118.393867">
  <ele>-0.122</ele>
  <time>2026-09-01T01:13:58Z</time>
  <course>187.56</course>
  <speed>0.03605551275463989</speed>
  <fix>3d</fix>
</trkpt>
<trkpt lat="33.810313" lon="-118.393867">
  <ele>-0.12</ele>
  <time>2026-09-01T01:13:58Z</time>
  <course>0.0</course>
  <speed>0.0</speed>
  <fix>3d</fix>
</trkpt>
<trkpt lat="33.810313" lon="-118.393867">
  <ele>-0.119</ele>
  <time>2026-09-01T01:13:58Z</time>
  <course>187.55</course>
  <speed>0.03605551275463989</speed>
  <fix>3d</fix>
</trkpt>
<trkpt lat="33.810313" lon="-118.393867">
  <ele>-0.12</ele>
  <time>2026-09-01T01:13:58Z</time>
  <course>0.0</course>
  <speed>0.0</speed>
  <fix>3d</fix>
</trkpt>
<trkpt lat="33.810313" lon="-118.393867">
  <ele>-0.117</ele>
  <time>2026-09-01T01:13:58Z</time>
  <course>187.55</course>
  <speed>0.03605551275463989</speed>
  <fix>3d</fix>
</trkpt>
<trkpt lat="33.810313" lon="-118.393867">
  <ele>-0.12</ele>
  <time>2026-09-01T01:13:58Z</time>
  <course>0.0</course>
  <speed>0.0</speed>
  <fix>3d</fix>
</trkpt>
<trkpt lat="33.810313" lon="-118.393867">
  <ele>-0.117</ele>
  <time>2026-09-01T01:13:58Z</time>
  <course>187.54</course>
  <speed>0.03605551275463989</speed>
  <fix>3d</fix>
</trkpt>
<trkpt lat="33.810313" lon="-118.393867">
  <ele>-0.12</ele>
  <time>2026-09-01T01:13:58Z</time>
  <course>0.0</course>
  <speed>0.0</speed>
  <fix>3d</fix>
</trkpt>
<trkpt lat="33.810313" lon="-118.393867">
  <ele>-0.118</ele>
  <time>2026-09-01T01:13:58Z</time>
  <course>187.53</course>
  <speed>0.03605551275463989</speed>
  <fix>3d</fix>
</trkpt>
<trkpt lat="33.810313" lon="-118.393867">
  <ele>-0.12</ele>
  <time>2026-09-01T01:13:58Z</time>
  <course>0.0</course>
  <speed>0.0</speed>
  <fix>3d</fix>
</trkpt>
<trkpt lat="33.810313" lon="-118.393867">
  <ele>-0.119</ele>
  <time>2026-09-01T01:13:58Z</time>
  <course>187.53</course>
  <speed>0.03605551275463989</speed>
  <fix>3d</fix>
</trkpt>
<trkpt lat="33.810313" lon="-118.393867">
  <ele>-0.12</ele>
  <time>2026-09-01T01:13:58Z</time>
  <course>0.0</course>
  <speed>0.0</speed>
  <fix>3d</fix>
</trkpt>
<trkpt lat="33.810313" lon="-118.393867">
  <ele>-0.12</ele>
  <time>2026-09-01T01:13:58Z</time>
  <course>187.52</course>
  <speed>0.03605551275463989</speed>
  <fix>3d</fix>
</trkpt>
<trkpt lat="33.810313" lon="-118.393867">
  <ele>-0.12</ele>
  <time>2026-09-01T01:13:58Z</time>
  <course>0.0</course>
  <speed>0.0</speed>
  <fix>3d</fix>
</trkpt>
<trkpt lat="33.810313" lon="-118.393867">
  <ele>-0.121</ele>
  <time>2026-09-01T01:13:58Z</time>
  <course>187.51</course>
  <speed>0.03605551275463989</speed>
  <fix>3d</fix>
</trkpt>
<trkpt lat="33.810313" lon="-118.393867">
  <ele>-0.12</ele>
  <time>2026-09-01T01:13:58Z</time>
  <course>0.0</course>
  <speed>0.0</speed>
  <fix>3d</fix>
</trkpt>
<trkpt lat="33.810313" lon="-118.393867">
  <ele>-0.121</ele>
  <time>2026-09-01T01:13:58Z</time>
  <course>187.51</course>
  <speed>0.03605551275463989</speed>
  <fix>3d</fix>
</trkpt>
<trkpt lat="33.810313" lon="-118.393867">
  <ele>-0.12</ele>
  <time>2026-09-01T01:13:58Z</time>
  <course>0.0</course>
  <speed>0.0</speed>
  <fix>3d</fix>
</trkpt>
<trkpt lat="33.810313" lon="-118.393867">
  <ele>-0.121</ele>
  <time>2026-09-01T01:13:58Z</time>
  <course>187.5</course>
  <speed>0.03605551275463989</speed>
  <fix>3d</fix>
</trkpt>
<trkpt lat="33.810313" lon="-118.393867">
  <ele>-0.12</ele>
  <time>2026-09-01T01:13:58Z</time>
  <course>0.0</course>
  <speed>0.0</speed>
  <fix>3d</fix>
</trkpt>
<trkpt lat="33.810313" lon="-118.393867">
  <ele>-0.121</ele>
  <time>2026-09-01T01:13:58Z</time>
  <course>187.49</course>
  <speed>0.03605551275463989</speed>
  <fix>3d</fix>
</trkpt>
<trkpt lat="33.810313" lon="-118.393867">
  <ele>-0.12</ele>
  <time>2026-09-01T01:13:58Z</time>
  <course>0.0</course>
  <speed>0.0</speed>
  <fix>3d</fix>
</trkpt>
<trkpt lat="33.810313" lon="-118.393867">
  <ele>-0.121</ele>
  <time>2026-09-01T01:13:58Z</time>
  <course>187.49</course>
  <speed>0.03605551275463989</speed>
  <fix>3d</fix>
</trkpt>
<trkpt lat="33.810313" lon="-118.393867">
  <ele>-0.12</ele>
  <time>2026-09-01T01:13:58Z</time>
  <course>0.0</course>
  <speed>0.0</speed>
  <fix>3d</fix>
</trkpt>
<trkpt lat="33.810313" lon="-118.393867">
  <ele>-0.121</ele>
  <time>2026-09-01T01:13:58Z</time>
  <course>187.48</course>
  <speed>0.03605551275463989</speed>
  <fix>3d</fix>
</trkpt>
<trkpt lat="33.810313" lon="-118.393867">
  <ele>-0.12</ele>
  <time>2026-09-01T01:13:58Z</time>
  <course>0.0</course>
  <speed>0.0</speed>
  <fix>3d</fix>
</trkpt>
<trkpt lat="33.810313" lon="-118.393867">
  <ele>-0.122</ele>
  <time>2026-09-01T01:13:58Z</time>
  <course>187.47</course>
  <speed>0.03605551275463989</speed>
  <fix>3d</fix>
</trkpt>
<trkpt lat="33.810313" lon="-118.393867">
  <ele>-0.12</ele>
  <time>2026-09-01T01:13:58Z</time>
  <course>0.0</course>
  <speed>0.0</speed>
  <fix>3d</fix>
</trkpt>
<trkpt lat="33.810313" lon="-118.393867">
  <ele>-0.124</ele>
  <time>2026-09-01T01:13:58Z</time>
  <course>187.47</course>
  <speed>0.03605551275463989</speed>
  <fix>3d</fix>
</trkpt>
<trkpt lat="33.810313" lon="-118.393867">
  <ele>-0.12</ele>
  <time>2026-09-01T01:13:58Z</time>
  <course>0.0</course>
  <speed>0.0</speed>
  <fix>3d</fix>
</trkpt>
<trkpt lat="33.810313" lon="-118.393867">
  <ele>-0.127</ele>
  <time>2026-09-01T01:13:58Z</time>
  <course>187.46</course>
  <speed>0.03605551275463989</speed>
  <fix>3d</fix>
</trkpt>
<trkpt lat="33.810313" lon="-118.393867">
  <ele>-0.12</ele>
  <time>2026-09-01T01:13:58Z</time>
  <course>0.0</course>
  <speed>0.0</speed>
  <fix>3d</fix>
</trkpt>
<trkpt lat="33.810313" lon="-118.393867">
  <ele>-0.129</ele>
  <time>2026-09-01T01:13:58Z</time>
  <course>187.46</course>
  <speed>0.03605551275463989</speed>
  <fix>3d</fix>
</trkpt>
<trkpt lat="33.810313" lon="-118.393867">
  <ele>-0.12</ele>
  <time>2026-09-01T01:13:58Z</time>
  <course>0.0</course>
  <speed>0.0</speed>
  <fix>3d</fix>
</trkpt>
<trkpt lat="33.810313" lon="-118.393867">
  <ele>-0.131</ele>
  <time>2026-09-01T01:13:58Z</time>
  <course>187.45</course>
  <speed>0.03605551275463989</speed>
  <fix>3d</fix>
</trkpt>
<trkpt lat="33.810313" lon="-118.393867">
  <ele>-0.12</ele>
  <time>2026-09-01T01:13:58Z</time>
  <course>0.0</course>
  <speed>0.0</speed>
  <fix>3d</fix>
</trkpt>
<trkpt lat="33.810313" lon="-118.393867">
  <ele>-0.132</ele>
  <time>2026-09-01T01:13:58Z</time>
  <course>187.44</course>
  <speed>0.03605551275463989</speed>
  <fix>3d</fix>
</trkpt>
<trkpt lat="33.810313" lon="-118.393867">
  <ele>-0.12</ele>
  <time>2026-09-01T01:13:58Z</time>
  <course>0.0</course>
  <speed>0.0</speed>
  <fix>3d</fix>
</trkpt>
<trkpt lat="33.810313" lon="-118.393867">
  <ele>-0.132</ele>
  <time>2026-09-01T01:13:58Z</time>
  <course>187.44</course>
  <speed>0.03605551275463989</speed>
  <fix>3d</fix>
</trkpt>
<trkpt lat="33.810313" lon="-118.393867">
  <ele>-0.12</ele>
  <time>2026-09-01T01:13:58Z</time>
  <course>0.0</course>
  <speed>0.0</speed>
  <fix>3d</fix>
</trkpt>
<trkpt lat="33.810313" lon="-118.393867">
  <ele>-0.132</ele>
  <time>2026-09-01T01:13:58Z</time>
  <course>187.43</course>
  <speed>0.03605551275463989</speed>
  <fix>3d</fix>
</trkpt>
<trkpt lat="33.810313" lon="-118.393867">
  <ele>-0.12</ele>
  <time>2026-09-01T01:13:58Z</time>
  <course>0.0</course>
  <speed>0.0</speed>
  <fix>3d</fix>
</trkpt>
<trkpt lat="33.810313" lon="-118.393867">
  <ele>-0.132</ele>
  <time>2026-09-01T01:13:58Z</time>
  <course>187.42</course>
  <speed>0.03605551275463989</speed>
  <fix>3d</fix>
</trkpt>
<trkpt lat="33.810313" lon="-118.393867">
  <ele>-0.12</ele>
  <time>2026-09-01T01:13:58Z</time>
  <course>0.0</course>
  <speed>0.0</speed>
  <fix>3d</fix>
</trkpt>
<trkpt lat="33.810313" lon="-118.393867">
  <ele>-0.131</ele>
  <time>2026-09-01T01:13:58Z</time>
  <course>187.42</course>
  <speed>0.03605551275463989</speed>
  <fix>3d</fix>
</trkpt>
<trkpt lat="33.810313" lon="-118.393867">
  <ele>-0.12</ele>
  <time>2026-09-01T01:13:58Z</time>
  <course>0.0</course>
  <speed>0.0</speed>
  <fix>3d</fix>
</trkpt>
<trkpt lat="33.810313" lon="-118.393867">
  <ele>-0.131</ele>
  <time>2026-09-01T01:13:58Z</time>
  <course>187.41</course>
  <speed>0.03605551275463989</speed>
  <fix>3d</fix>
</trkpt>
<trkpt lat="33.810313" lon="-118.393867">
  <ele>-0.12</ele>
  <time>2026-09-01T01:13:58Z</time>
  <course>0.0</course>
  <speed>0.0</speed>
  <fix>3d</fix>
</trkpt>
<trkpt lat="33.810313" lon="-118.393867">
  <ele>-0.132</ele>
  <time>2026-09-01T01:13:58Z</time>
  <course>187.41</course>
  <speed>0.03605551275463989</speed>
  <fix>3d</fix>
</trkpt>
<trkpt lat="33.810313" lon="-118.393867">
  <ele>-0.12</ele>
  <time>2026-09-01T01:13:58Z</time>
  <course>0.0</course>
  <speed>0.0</speed>
  <fix>3d</fix>
</trkpt>
<trkpt lat="33.810313" lon="-118.393867">
  <ele>-0.134</ele>
  <time>2026-09-01T01:13:58Z</time>
  <course>187.4</course>
  <speed>0.03605551275463989</speed>
  <fix>3d</fix>
</trkpt>
<trkpt lat="33.810313" lon="-118.393867">
  <ele>-0.12</ele>
  <time>2026-09-01T01:13:58Z</time>
  <course>0.0</course>
  <speed>0.0</speed>
  <fix>3d</fix>
</trkpt>
<trkpt lat="33.810313" lon="-118.393867">
  <ele>-0.137</ele>
  <time>2026-09-01T01:13:58Z</time>
  <course>187.39</course>
  <speed>0.03605551275463989</speed>
  <fix>3d</fix>
</trkpt>
<trkpt lat="33.810313" lon="-118.393867">
  <ele>-0.12</ele>
  <time>2026-09-01T01:13:58Z</time>
  <course>0.0</course>
  <speed>0.0</speed>
  <fix>3d</fix>
</trkpt>
<trkpt lat="33.810313" lon="-118.393867">
  <ele>-0.139</ele>
  <time>2026-09-01T01:13:58Z</time>
  <course>187.39</course>
  <speed>0.03605551275463989</speed>
  <fix>3d</fix>
</trkpt>
<trkpt lat="33.810313" lon="-118.393867">
  <ele>-0.12</ele>
  <time>2026-09-01T01:13:58Z</time>
  <course>0.0</course>
  <speed>0.0</speed>
  <fix>3d</fix>
</trkpt>
<trkpt lat="33.810313" lon="-118.393867">
  <ele>-0.141</ele>
  <time>2026-09-01T01:13:58Z</time>
  <course>187.38</course>
  <speed>0.03605551275463989</speed>
  <fix>3d</fix>
</trkpt>
<trkpt lat="33.810313" lon="-118.393867">
  <ele>-0.12</ele>
  <time>2026-09-01T01:13:58Z</time>
  <course>0.0</course>
  <speed>0.0</speed>
  <fix>3d</fix>
</trkpt>
<trkpt lat="33.810313" lon="-118.393867">
  <ele>-0.141</ele>
  <time>2026-09-01T01:13:58Z</time>
  <course>187.38</course>
  <speed>0.03605551275463989</speed>
  <fix>3d</fix>
</trkpt>
<trkpt lat="33.810313" lon="-118.393867">
  <ele>-0.12</ele>
  <time>2026-09-01T01:13:58Z</time>
  <course>0.0</course>
  <speed>0.0</speed>
  <fix>3d</fix>
</trkpt>
<trkpt lat="33.810313" lon="-118.393867">
  <ele>-0.139</ele>
  <time>2026-09-01T01:13:58Z</time>
  <course>187.37</course>
  <speed>0.03605551275463989</speed>
  <fix>3d</fix>
</trkpt>
<trkpt lat="33.810313" lon="-118.393867">
  <ele>-0.12</ele>
  <time>2026-09-01T01:13:58Z</time>
  <course>0.0</course>
  <speed>0.0</speed>
  <fix>3d</fix>
</trkpt>
<trkpt lat="33.810313" lon="-118.393867">
  <ele>-0.136</ele>
  <time>2026-09-01T01:13:58Z</time>
  <course>187.36</course>
  <speed>0.03605551275463989</speed>
  <fix>3d</fix>
</trkpt>
<trkpt lat="33.810313" lon="-118.393867">
  <ele>-0.12</ele>
  <time>2026-09-01T01:13:58Z</time>
  <course>0.0</course>
  <speed>0.0</speed>
  <fix>3d</fix>
</trkpt>
<trkpt lat="33.810313" lon="-118.393867">
  <ele>-0.133</ele>
  <time>2026-09-01T01:13:58Z</time>
  <course>187.36</course>
  <speed>0.03605551275463989</speed>
  <fix>3d</fix>
</trkpt>
<trkpt lat="33.810313" lon="-118.393867">
  <ele>-0.12</ele>
  <time>2026-09-01T01:13:58Z</time>
  <course>0.0</course>
  <speed>0.0</speed>
  <fix>3d</fix>
</trkpt>
<trkpt lat="33.810313" lon="-118.393867">
  <ele>-0.129</ele>
  <time>2026-09-01T01:13:58Z</time>
  <course>187.35</course>
  <speed>0.03605551275463989</speed>
  <fix>3d</fix>
</trkpt>
<trkpt lat="33.810313" lon="-118.393867">
  <ele>-0.12</ele>
  <time>2026-09-01T01:13:58Z</time>
  <course>0.0</course>
  <speed>0.0</speed>
  <fix>3d</fix>
</trkpt>
<trkpt lat="33.810313" lon="-118.393867">
  <ele>-0.127</ele>
  <time>2026-09-01T01:13:58Z</time>
  <course>187.35</course>
  <speed>0.03605551275463989</speed>
  <fix>3d</fix>
</trkpt>
<trkpt lat="33.810313" lon="-118.393867">
  <ele>-0.12</ele>
  <time>2026-09-01T01:13:58Z</time>
  <course>0.0</course>
  <speed>0.0</speed>
  <fix>3d</fix>
</trkpt>
<trkpt lat="33.810313" lon="-118.393867">
  <ele>-0.127</ele>
  <time>2026-09-01T01:13:58Z</time>
  <course>187.34</course>
  <speed>0.03605551275463989</speed>
  <fix>3d</fix>
</trkpt>
<trkpt lat="33.810313" lon="-118.393867">
  <ele>-0.12</ele>
  <time>2026-09-01T01:13:58Z</time>
  <course>0.0</course>
  <speed>0.0</speed>
  <fix>3d</fix>
</trkpt>
<trkpt lat="33.810313" lon="-118.393867">
  <ele>-0.126</ele>
  <time>2026-09-01T01:13:58Z</time>
  <course>187.34</course>
  <speed>0.03605551275463989</speed>
  <fix>3d</fix>
</trkpt>
<trkpt lat="33.810313" lon="-118.393867">
  <ele>-0.12</ele>
  <time>2026-09-01T01:13:58Z</time>
  <course>0.0</course>
  <speed>0.0</speed>
  <fix>3d</fix>
</trkpt>
<trkpt lat="33.810313" lon="-118.393867">
  <ele>-0.126</ele>
  <time>2026-09-01T01:13:58Z</time>
  <course>187.33</course>
  <speed>0.03605551275463989</speed>
  <fix>3d</fix>
</trkpt>
<trkpt lat="33.810313" lon="-118.393867">
  <ele>-0.12</ele>
  <time>2026-09-01T01:13:58Z</time>
  <course>0.0</course>
  <speed>0.0</speed>
  <fix>3d</fix>
</trkpt>
<trkpt lat="33.810313" lon="-118.393867">
  <ele>-0.126</ele>
  <time>2026-09-01T01:13:58Z</time>
  <course>187.32</course>
  <speed>0.03605551275463989</speed>
  <fix>3d</fix>
</trkpt>
<trkpt lat="33.810313" lon="-118.393867">
  <ele>-0.12</ele>
  <time>2026-09-01T01:13:58Z</time>
  <course>0.0</course>
  <speed>0.0</speed>
  <fix>3d</fix>
</trkpt>
<trkpt lat="33.810313" lon="-118.393867">
  <ele>-0.126</ele>
  <time>2026-09-01T01:13:58Z</time>
  <course>187.32</course>
  <speed>0.03605551275463989</speed>
  <fix>3d</fix>
</trkpt>
<trkpt lat="33.810313" lon="-118.393867">
  <ele>-0.12</ele>
  <time>2026-09-01T01:13:58Z</time>
  <course>0.0</course>
  <speed>0.0</speed>
  <fix>3d</fix>
</trkpt>
<trkpt lat="33.810313" lon="-118.393867">
  <ele>-0.125</ele>
  <time>2026-09-01T01:13:58Z</time>
  <course>187.31</course>
  <speed>0.03605551275463989</speed>
  <fix>3d</fix>
</trkpt>
<trkpt lat="33.810313" lon="-118.393867">
  <ele>-0.12</ele>
  <time>2026-09-01T01:13:58Z</time>
  <course>0.0</course>
  <speed>0.0</speed>
  <fix>3d</fix>
</trkpt>
<trkpt lat="33.810313" lon="-118.393867">
  <ele>-0.124</ele>
  <time>2026-09-01T01:13:58Z</time>
  <course>187.31</course>
  <speed>0.03605551275463989</speed>
  <fix>3d</fix>
</trkpt>
<trkpt lat="33.810313" lon="-118.393867">
  <ele>-0.12</ele>
  <time>2026-09-01T01:13:58Z</time>
  <course>0.0</course>
  <speed>0.0</speed>
  <fix>3d</fix>
</trkpt>
<trkpt lat="33.810313" lon="-118.393867">
  <ele>-0.122</ele>
  <time>2026-09-01T01:13:58Z</time>
  <course>187.3</course>
  <speed>0.03605551275463989</speed>
  <fix>3d</fix>
</trkpt>
<trkpt lat="33.810313" lon="-118.393867">
  <ele>-0.12</ele>
  <time>2026-09-01T01:13:58Z</time>
  <course>0.0</course>
  <speed>0.0</speed>
  <fix>3d</fix>
</trkpt>
<trkpt lat="33.810313" lon="-118.393867">
  <ele>-0.121</ele>
  <time>2026-09-01T01:13:58Z</time>
  <course>187.3</course>
  <speed>0.03605551275463989</speed>
  <fix>3d</fix>
</trkpt>
<trkpt lat="33.810313" lon="-118.393867">
  <ele>-0.12</ele>
  <time>2026-09-01T01:13:58Z</time>
  <course>0.0</course>
  <speed>0.0</speed>
  <fix>3d</fix>
</trkpt>
<trkpt lat="33.810313" lon="-118.393867">
  <ele>-0.122</ele>
  <time>2026-09-01T01:13:58Z</time>
  <course>187.29</course>
  <speed>0.03605551275463989</speed>
  <fix>3d</fix>
</trkpt>
<trkpt lat="33.810313" lon="-118.393867">
  <ele>-0.12</ele>
  <time>2026-09-01T01:13:58Z</time>
  <course>0.0</course>
  <speed>0.0</speed>
  <fix>3d</fix>
</trkpt>
<trkpt lat="33.810313" lon="-118.393867">
  <ele>-0.124</ele>
  <time>2026-09-01T01:13:58Z</time>
  <course>187.28</course>
  <speed>0.03605551275463989</speed>
  <fix>3d</fix>
</trkpt>
<trkpt lat="33.810313" lon="-118.393867">
  <ele>-0.12</ele>
  <time>2026-09-01T01:13:58Z</time>
  <course>0.0</course>
  <speed>0.0</speed>
  <fix>3d</fix>
</trkpt>
<trkpt lat="33.810313" lon="-118.393867">
  <ele>-0.127</ele>
  <time>2026-09-01T01:13:58Z</time>
  <course>187.28</course>
  <speed>0.03605551275463989</speed>
  <fix>3d</fix>
</trkpt>
<trkpt lat="33.810313" lon="-118.393867">
  <ele>-0.12</ele>
  <time>2026-09-01T01:13:58Z</time>
  <course>0.0</course>
  <speed>0.0</speed>
  <fix>3d</fix>
</trkpt>
<trkpt lat="33.810313" lon="-118.393867">
  <ele>-0.13</ele>
  <time>2026-09-01T01:13:58Z</time>
  <course>187.27</course>
  <speed>0.03605551275463989</speed>
  <fix>3d</fix>
</trkpt>
<trkpt lat="33.810313" lon="-118.393867">
  <ele>-0.12</ele>
  <time>2026-09-01T01:13:58Z</time>
  <course>0.0</course>
  <speed>0.0</speed>
  <fix>3d</fix>
</trkpt>
<trkpt lat="33.810313" lon="-118.393867">
  <ele>-0.132</ele>
  <time>2026-09-01T01:13:58Z</time>
  <course>187.27</course>
  <speed>0.03605551275463989</speed>
  <fix>3d</fix>
</trkpt>
<trkpt lat="33.810313" lon="-118.393867">
  <ele>-0.12</ele>
  <time>2026-09-01T01:13:58Z</time>
  <course>0.0</course>
  <speed>0.0</speed>
  <fix>3d</fix>
</trkpt>
<trkpt lat="33.810313" lon="-118.393867">
  <ele>-0.134</ele>
  <time>2026-09-01T01:13:58Z</time>
  <course>187.26</course>
  <speed>0.03605551275463989</speed>
  <fix>3d</fix>
</trkpt>
<trkpt lat="33.810313" lon="-118.393867">
  <ele>-0.12</ele>
  <time>2026-09-01T01:13:58Z</time>
  <course>0.0</course>
  <speed>0.0</speed>
  <fix>3d</fix>
</trkpt>
<trkpt lat="33.810313" lon="-118.393867">
  <ele>-0.136</ele>
  <time>2026-09-01T01:13:58Z</time>
  <course>187.26</course>
  <speed>0.03605551275463989</speed>
  <fix>3d</fix>
</trkpt>
<trkpt lat="33.810313" lon="-118.393867">
  <ele>-0.12</ele>
  <time>2026-09-01T01:13:58Z</time>
  <course>0.0</course>
  <speed>0.0</speed>
  <fix>3d</fix>
</trkpt>
<trkpt lat="33.810313" lon="-118.393867">
  <ele>-0.136</ele>
  <time>2026-09-01T01:13:58Z</time>
  <course>187.25</course>
  <speed>0.03605551275463989</speed>
  <fix>3d</fix>
</trkpt>
<trkpt lat="33.810313" lon="-118.393867">
  <ele>-0.12</ele>
  <time>2026-09-01T01:13:58Z</time>
  <course>0.0</course>
  <speed>0.0</speed>
  <fix>3d</fix>
</trkpt>
<trkpt lat="33.810313" lon="-118.393867">
  <ele>-0.135</ele>
  <time>2026-09-01T01:13:58Z</time>
  <course>187.25</course>
  <speed>0.03605551275463989</speed>
  <fix>3d</fix>
</trkpt>
<trkpt lat="33.810313" lon="-118.393867">
  <ele>-0.12</ele>
  <time>2026-09-01T01:13:58Z</time>
  <course>0.0</course>
  <speed>0.0</speed>
  <fix>3d</fix>
</trkpt>
<trkpt lat="33.810313" lon="-118.393867">
  <ele>-0.134</ele>
  <time>2026-09-01T01:13:58Z</time>
  <course>187.24</course>
  <speed>0.03605551275463989</speed>
  <fix>3d</fix>
</trkpt>
<trkpt lat="33.810313" lon="-118.393867">
  <ele>-0.12</ele>
  <time>2026-09-01T01:13:58Z</time>
  <course>0.0</course>
  <speed>0.0</speed>
  <fix>3d</fix>
</trkpt>
<trkpt lat="33.810313" lon="-118.393867">
  <ele>-0.132</ele>
  <time>2026-09-01T01:13:58Z</time>
  <course>187.24</course>
  <speed>0.03605551275463989</speed>
  <fix>3d</fix>
</trkpt>
<trkpt lat="33.810313" lon="-118.393867">
  <ele>-0.12</ele>
  <time>2026-09-01T01:13:58Z</time>
  <course>0.0</course>
  <speed>0.0</speed>
  <fix>3d</fix>
</trkpt>
<trkpt lat="33.810313" lon="-118.393867">
  <ele>-0.131</ele>
  <time>2026-09-01T01:13:58Z</time>
  <course>187.23</course>
  <speed>0.03605551275463989</speed>
  <fix>3d</fix>
</trkpt>
<trkpt lat="33.810313" lon="-118.393867">
  <ele>-0.12</ele>
  <time>2026-09-01T01:13:58Z</time>
  <course>0.0</course>
  <speed>0.0</speed>
  <fix>3d</fix>
</trkpt>
<trkpt lat="33.810313" lon="-118.393867">
  <ele>-0.131</ele>
  <time>2026-09-01T01:13:58Z</time>
  <course>187.23</course>
  <speed>0.03605551275463989</speed>
  <fix>3d</fix>
</trkpt>
<trkpt lat="33.810313" lon="-118.393867">
  <ele>-0.12</ele>
  <time>2026-09-01T01:13:58Z</time>
  <course>0.0</course>
  <speed>0.0</speed>
  <fix>3d</fix>
</trkpt>
<trkpt lat="33.810313" lon="-118.393867">
  <ele>-0.132</ele>
  <time>2026-09-01T01:13:58Z</time>
  <course>187.22</course>
  <speed>0.03605551275463989</speed>
  <fix>3d</fix>
</trkpt>
<trkpt lat="33.810313" lon="-118.393867">
  <ele>-0.12</ele>
  <time>2026-09-01T01:13:58Z</time>
  <course>0.0</course>
  <speed>0.0</speed>
  <fix>3d</fix>
</trkpt>
<trkpt lat="33.810313" lon="-118.393867">
  <ele>-0.132</ele>
  <time>2026-09-01T01:13:58Z</time>
  <course>187.21</course>
  <speed>0.03605551275463989</speed>
  <fix>3d</fix>
</trkpt>
<trkpt lat="33.810313" lon="-118.393867">
  <ele>-0.12</ele>
  <time>2026-09-01T01:13:58Z</time>
  <course>0.0</course>
  <speed>0.0</speed>
  <fix>3d</fix>
</trkpt>
<trkpt lat="33.810313" lon="-118.393867">
  <ele>-0.133</ele>
  <time>2026-09-01T01:13:58Z</time>
  <course>187.21</course>
  <speed>0.03605551275463989</speed>
  <fix>3d</fix>
</trkpt>
<trkpt lat="33.810313" lon="-118.393867">
  <ele>-0.12</ele>
  <time>2026-09-01T01:13:58Z</time>
  <course>0.0</course>
  <speed>0.0</speed>
  <fix>3d</fix>
</trkpt>
<trkpt lat="33.810313" lon="-118.393867">
  <ele>-0.132</ele>
  <time>2026-09-01T01:13:58Z</time>
  <course>187.2</course>
  <speed>0.03605551275463989</speed>
  <fix>3d</fix>
</trkpt>
<trkpt lat="33.810313" lon="-118.393867">
  <ele>-0.12</ele>
  <time>2026-09-01T01:13:58Z</time>
  <course>0.0</course>
  <speed>0.0</speed>
  <fix>3d</fix>
</trkpt>
<trkpt lat="33.810313" lon="-118.393867">
  <ele>-0.131</ele>
  <time>2026-09-01T01:13:58Z</time>
  <course>187.2</course>
  <speed>0.03605551275463989</speed>
  <fix>3d</fix>
</trkpt>
<trkpt lat="33.810313" lon="-118.393867">
  <ele>-0.12</ele>
  <time>2026-09-01T01:13:58Z</time>
  <course>0.0</course>
  <speed>0.0</speed>
  <fix>3d</fix>
</trkpt>
<trkpt lat="33.810313" lon="-118.393867">
  <ele>-0.129</ele>
  <time>2026-09-01T01:13:58Z</time>
  <course>187.19</course>
  <speed>0.03605551275463989</speed>
  <fix>3d</fix>
</trkpt>
<trkpt lat="33.810313" lon="-118.393867">
  <ele>-0.12</ele>
  <time>2026-09-01T01:13:58Z</time>
  <course>0.0</course>
  <speed>0.0</speed>
  <fix>3d</fix>
</trkpt>
<trkpt lat="33.810313" lon="-118.393867">
  <ele>-0.126</ele>
  <time>2026-09-01T01:13:58Z</time>
  <course>187.19</course>
  <speed>0.03605551275463989</speed>
  <fix>3d</fix>
</trkpt>
<trkpt lat="33.810313" lon="-118.393867">
  <ele>-0.12</ele>
  <time>2026-09-01T01:13:58Z</time>
  <course>0.0</course>
  <speed>0.0</speed>
  <fix>3d</fix>
</trkpt>
<trkpt lat="33.810313" lon="-118.393867">
  <ele>-0.124</ele>
  <time>2026-09-01T01:13:58Z</time>
  <course>187.18</course>
  <speed>0.03605551275463989</speed>
  <fix>3d</fix>
</trkpt>
<trkpt lat="33.810313" lon="-118.393867">
  <ele>-0.12</ele>
  <time>2026-09-01T01:13:58Z</time>
  <course>0.0</course>
  <speed>0.0</speed>
  <fix>3d</fix>
</trkpt>
<trkpt lat="33.810313" lon="-118.393867">
  <ele>-0.123</ele>
  <time>2026-09-01T01:13:58Z</time>
  <course>187.18</course>
  <speed>0.03605551275463989</speed>
  <fix>3d</fix>
</trkpt>
<trkpt lat="33.810313" lon="-118.393867">
  <ele>-0.12</ele>
  <time>2026-09-01T01:13:58Z</time>
  <course>0.0</course>
  <speed>0.0</speed>
  <fix>3d</fix>
</trkpt>
<trkpt lat="33.810313" lon="-118.393867">
  <ele>-0.123</ele>
  <time>2026-09-01T01:13:58Z</time>
  <course>187.17</course>
  <speed>0.03605551275463989</speed>
  <fix>3d</fix>
</trkpt>
<trkpt lat="33.810313" lon="-118.393867">
  <ele>-0.12</ele>
  <time>2026-09-01T01:13:58Z</time>
  <course>0.0</course>
  <speed>0.0</speed>
  <fix>3d</fix>
</trkpt>
<trkpt lat="33.810313" lon="-118.393867">
  <ele>-0.122</ele>
  <time>2026-09-01T01:13:58Z</time>
  <course>187.17</course>
  <speed>0.0</speed>
  <fix>3d</fix>
</trkpt>
<trkpt lat="33.810313" lon="-118.393867">
  <ele>-0.12</ele>
  <time>2026-09-01T01:13:58Z</time>
  <course>0.0</course>
  <speed>0.0</speed>
  <fix>3d</fix>
</trkpt>
<trkpt lat="33.810313" lon="-118.393867">
  <ele>-0.121</ele>
  <time>2026-09-01T01:13:58Z</time>
  <course>187.16</course>
  <speed>0.0</speed>
  <fix>3d</fix>
</trkpt>
<trkpt lat="33.810313" lon="-118.393867">
  <ele>-0.12</ele>
  <time>2026-09-01T01:13:58Z</time>
  <course>0.0</course>
  <speed>0.0</speed>
  <fix>3d</fix>
</trkpt>
<trkpt lat="33.810313" lon="-118.393867">
  <ele>-0.121</ele>
  <time>2026-09-01T01:13:58Z</time>
  <course>187.16</course>
  <speed>0.0</speed>
  <fix>3d</fix>
</trkpt>
<trkpt lat="33.810313" lon="-118.393867">
  <ele>-0.12</ele>
  <time>2026-09-01T01:13:58Z</time>
  <course>0.0</course>
  <speed>0.0</speed>
  <fix>3d</fix>
</trkpt>
<trkpt lat="33.810313" lon="-118.393867">
  <ele>-0.119</ele>
  <time>2026-09-01T01:13:58Z</time>
  <course>187.15</course>
  <speed>0.0</speed>
  <fix>3d</fix>
</trkpt>
<trkpt lat="33.810313" lon="-118.393867">
  <ele>-0.12</ele>
  <time>2026-09-01T01:13:58Z</time>
  <course>0.0</course>
  <speed>0.0</speed>
  <fix>3d</fix>
</trkpt>
<trkpt lat="33.810313" lon="-118.393867">
  <ele>-0.116</ele>
  <time>2026-09-01T01:13:58Z</time>
  <course>187.15</course>
  <speed>0.0</speed>
  <fix>3d</fix>
</trkpt>
<trkpt lat="33.810313" lon="-118.393867">
  <ele>-0.12</ele>
  <time>2026-09-01T01:13:58Z</time>
  <course>0.0</course>
  <speed>0.0</speed>
  <fix>3d</fix>
</trkpt>
<trkpt lat="33.810313" lon="-118.393867">
  <ele>-0.114</ele>
  <time>2026-09-01T01:13:58Z</time>
  <course>187.14</course>
  <speed>0.0</speed>
  <fix>3d</fix>
</trkpt>
<trkpt lat="33.810313" lon="-118.393867">
  <ele>-0.12</ele>
  <time>2026-09-01T01:13:58Z</time>
  <course>0.0</course>
  <speed>0.0</speed>
  <fix>3d</fix>
</trkpt>
<trkpt lat="33.810313" lon="-118.393867">
  <ele>-0.113</ele>
  <time>2026-09-01T01:13:58Z</time>
  <course>187.14</course>
  <speed>0.0</speed>
  <fix>3d</fix>
</trkpt>
<trkpt lat="33.810313" lon="-118.393867">
  <ele>-0.12</ele>
  <time>2026-09-01T01:13:58Z</time>
  <course>0.0</course>
  <speed>0.0</speed>
  <fix>3d</fix>
</trkpt>
<trkpt lat="33.810313" lon="-118.393867">
  <ele>-0.112</ele>
  <time>2026-09-01T01:13:58Z</time>
  <course>187.13</course>
  <speed>0.0</speed>
  <fix>3d</fix>
</trkpt>
<trkpt lat="33.810313" lon="-118.393867">
  <ele>-0.12</ele>
  <time>2026-09-01T01:13:58Z</time>
  <course>0.0</course>
  <speed>0.0</speed>
  <fix>3d</fix>
</trkpt>
<trkpt lat="33.810313" lon="-118.393867">
  <ele>-0.113</ele>
  <time>2026-09-01T01:13:58Z</time>
  <course>187.13</course>
  <speed>0.0</speed>
  <fix>3d</fix>
</trkpt>
<trkpt lat="33.810313" lon="-118.393867">
  <ele>-0.12</ele>
  <time>2026-09-01T01:13:58Z</time>
  <course>0.0</course>
  <speed>0.0</speed>
  <fix>3d</fix>
</trkpt>
<trkpt lat="33.810313" lon="-118.393867">
  <ele>-0.114</ele>
  <time>2026-09-01T01:13:58Z</time>
  <course>187.12</course>
  <speed>0.0</speed>
  <fix>3d</fix>
</trkpt>
<trkpt lat="33.810313" lon="-118.393867">
  <ele>-0.12</ele>
  <time>2026-09-01T01:13:58Z</time>
  <course>0.0</course>
  <speed>0.0</speed>
  <fix>3d</fix>
</trkpt>
<trkpt lat="33.810313" lon="-118.393867">
  <ele>-0.116</ele>
  <time>2026-09-01T01:13:58Z</time>
  <course>187.12</course>
  <speed>0.0</speed>
  <fix>3d</fix>
</trkpt>
<trkpt lat="33.810313" lon="-118.393867">
  <ele>-0.12</ele>
  <time>2026-09-01T01:13:58Z</time>
  <course>0.0</course>
  <speed>0.0</speed>
  <fix>3d</fix>
</trkpt>
<trkpt lat="33.810313" lon="-118.393867">
  <ele>-0.119</ele>
  <time>2026-09-01T01:13:58Z</time>
  <course>187.11</course>
  <speed>0.01</speed>
  <fix>3d</fix>
</trkpt>
<trkpt lat="33.810313" lon="-118.393867">
  <ele>-0.12</ele>
  <time>2026-09-01T01:13:58Z</time>
  <course>0.0</course>
  <speed>0.0</speed>
  <fix>3d</fix>
</trkpt>
<trkpt lat="33.810313" lon="-118.393867">
  <ele>-0.12</ele>
  <time>2026-09-01T01:13:58Z</time>
  <course>187.11</course>
  <speed>0.01</speed>
  <fix>3d</fix>
</trkpt>
<trkpt lat="33.810313" lon="-118.393867">
  <ele>-0.12</ele>
  <time>2026-09-01T01:13:58Z</time>
  <course>0.0</course>
  <speed>0.0</speed>
  <fix>3d</fix>
</trkpt>
<trkpt lat="33.810313" lon="-118.393867">
  <ele>-0.121</ele>
  <time>2026-09-01T01:13:58Z</time>
  <course>187.1</course>
  <speed>0.01</speed>
  <fix>3d</fix>
</trkpt>
<trkpt lat="33.810313" lon="-118.393867">
  <ele>-0.12</ele>
  <time>2026-09-01T01:13:58Z</time>
  <course>0.0</course>
  <speed>0.0</speed>
  <fix>3d</fix>
</trkpt>
<trkpt lat="33.810313" lon="-118.393867">
  <ele>-0.122</ele>
  <time>2026-09-01T01:13:58Z</time>
  <course>187.1</course>
  <speed>0.01414213562373095</speed>
  <fix>3d</fix>
</trkpt>
<trkpt lat="33.810313" lon="-118.393867">
  <ele>-0.12</ele>
  <time>2026-09-01T01:13:58Z</time>
  <course>0.0</course>
  <speed>0.0</speed>
  <fix>3d</fix>
</trkpt>
<trkpt lat="33.810313" lon="-118.393867">
  <ele>-0.122</ele>
  <time>2026-09-01T01:13:58Z</time>
  <course>187.1</course>
  <speed>0.01414213562373095</speed>
  <fix>3d</fix>
</trkpt>
<trkpt lat="33.810313" lon="-118.393867">
  <ele>-0.12</ele>
  <time>2026-09-01T01:13:58Z</time>
  <course>0.0</course>
  <speed>0.0</speed>
  <fix>3d</fix>
</trkpt>
<trkpt lat="33.810313" lon="-118.393867">
  <ele>-0.123</ele>
  <time>2026-09-01T01:13:58Z</time>
  <course>187.09</course>
  <speed>0.01414213562373095</speed>
  <fix>3d</fix>
</trkpt>
<trkpt lat="33.810313" lon="-118.393867">
  <ele>-0.12</ele>
  <time>2026-09-01T01:13:58Z</time>
  <course>0.0</course>
  <speed>0.0</speed>
  <fix>3d</fix>
</trkpt>
<trkpt lat="33.810313" lon="-118.393867">
  <ele>-0.124</ele>
  <time>2026-09-01T01:13:58Z</time>
  <course>187.09</course>
  <speed>0.01414213562373095</speed>
  <fix>3d</fix>
</trkpt>
<trkpt lat="33.810313" lon="-118.393867">
  <ele>-0.12</ele>
  <time>2026-09-01T01:13:58Z</time>
  <course>0.0</course>
  <speed>0.0</speed>
  <fix>3d</fix>
</trkpt>
<trkpt lat="33.810313" lon="-118.393867">
  <ele>-0.126</ele>
  <time>2026-09-01T01:13:58Z</time>
  <course>187.08</course>
  <speed>0.01414213562373095</speed>
  <fix>3d</fix>
</trkpt>
<trkpt lat="33.810313" lon="-118.393867">
  <ele>-0.12</ele>
  <time>2026-09-01T01:13:58Z</time>
  <course>0.0</course>
  <speed>0.0</speed>
  <fix>3d</fix>
</trkpt>
<trkpt lat="33.810313" lon="-118.393867">
  <ele>-0.128</ele>
  <time>2026-09-01T01:13:58Z</time>
  <course>187.08</course>
  <speed>0.01414213562373095</speed>
  <fix>3d</fix>
</trkpt>
<trkpt lat="33.810313" lon="-118.393867">
  <ele>-0.12</ele>
  <time>2026-09-01T01:13:58Z</time>
  <course>0.0</course>
  <speed>0.0</speed>
  <fix>3d</fix>
</trkpt>
<trkpt lat="33.810313" lon="-118.393867">
  <ele>-0.13</ele>
  <time>2026-09-01T01:13:58Z</time>
  <course>187.07</course>
  <speed>0.01414213562373095</speed>
  <fix>3d</fix>
</trkpt>
<trkpt lat="33.810313" lon="-118.393867">
  <ele>-0.12</ele>
  <time>2026-09-01T01:13:58Z</time>
  <course>0.0</course>
  <speed>0.0</speed>
  <fix>3d</fix>
</trkpt>
<trkpt lat="33.810313" lon="-118.393867">
  <ele>-0.134</ele>
  <time>2026-09-01T01:13:58Z</time>
  <course>187.07</course>
  <speed>0.022360679774997897</speed>
  <fix>3d</fix>
</trkpt>
<trkpt lat="33.810313" lon="-118.393867">
  <ele>-0.12</ele>
  <time>2026-09-01T01:13:58Z</time>
  <course>0.0</course>
  <speed>0.0</speed>
  <fix>3d</fix>
</trkpt>
<trkpt lat="33.810313" lon="-118.393867">
  <ele>-0.136</ele>
  <time>2026-09-01T01:13:58Z</time>
  <course>187.06</course>
  <speed>0.022360679774997897</speed>
  <fix>3d</fix>
</trkpt>
<trkpt lat="33.810313" lon="-118.393867">
  <ele>-0.12</ele>
  <time>2026-09-01T01:13:58Z</time>
  <course>0.0</course>
  <speed>0.0</speed>
  <fix>3d</fix>
</trkpt>
<trkpt lat="33.810313" lon="-118.393867">
  <ele>-0.137</ele>
  <time>2026-09-01T01:13:58Z</time>
  <course>187.06</course>
  <speed>0.022360679774997897</speed>
  <fix>3d</fix>
</trkpt>
<trkpt lat="33.810313" lon="-118.393867">
  <ele>-0.12</ele>
  <time>2026-09-01T01:13:58Z</time>
  <course>0.0</course>
  <speed>0.0</speed>
  <fix>3d</fix>
</trkpt>
<trkpt lat="33.810313" lon="-118.393867">
  <ele>-0.137</ele>
  <time>2026-09-01T01:13:58Z</time>
  <course>187.05</course>
  <speed>0.022360679774997897</speed>
  <fix>3d</fix>
</trkpt>
<trkpt lat="33.810313" lon="-118.393867">
  <ele>-0.12</ele>
  <time>2026-09-01T01:13:58Z</time>
  <course>0.0</course>
  <speed>0.0</speed>
  <fix>3d</fix>
</trkpt>
<trkpt lat="33.810313" lon="-118.393867">
  <ele>-0.136</ele>
  <time>2026-09-01T01:13:58Z</time>
  <course>187.05</course>
  <speed>0.022360679774997897</speed>
  <fix>3d</fix>
</trkpt>
<trkpt lat="33.810313" lon="-118.393867">
  <ele>-0.12</ele>
  <time>2026-09-01T01:13:58Z</time>
  <course>0.0</course>
  <speed>0.0</speed>
  <fix>3d</fix>
</trkpt>
<trkpt lat="33.810313" lon="-118.393867">
  <ele>-0.133</ele>
  <time>2026-09-01T01:13:58Z</time>
  <course>187.04</course>
  <speed>0.022360679774997897</speed>
  <fix>3d</fix>
</trkpt>
<trkpt lat="33.810313" lon="-118.393867">
  <ele>-0.12</ele>
  <time>2026-09-01T01:13:58Z</time>
  <course>0.0</course>
  <speed>0.0</speed>
  <fix>3d</fix>
</trkpt>
<trkpt lat="33.8103131" lon="-118.3938671">
  <ele>-0.131</ele>
  <time>2026-09-01T01:13:58Z</time>
  <course>187.04</course>
  <speed>0.022360679774997897</speed>
  <fix>3d</fix>
</trkpt>
<trkpt lat="33.810313" lon="-118.393867">
  <ele>-0.12</ele>
  <time>2026-09-01T01:13:58Z</time>
  <course>0.0</course>
  <speed>0.0</speed>
  <fix>3d</fix>
</trkpt>
<trkpt lat="33.8103131" lon="-118.3938671">
  <ele>-0.129</ele>
  <time>2026-09-01T01:13:58Z</time>
  <course>187.03</course>
  <speed>0.0282842712474619</speed>
  <fix>3d</fix>
</trkpt>
<trkpt lat="33.810313" lon="-118.393867">
  <ele>-0.12</ele>
  <time>2026-09-01T01:13:58Z</time>
  <course>0.0</course>
  <speed>0.0</speed>
  <fix>3d</fix>
</trkpt>
<trkpt lat="33.8103131" lon="-118.3938671">
  <ele>-0.129</ele>
  <time>2026-09-01T01:13:58Z</time>
  <course>187.03</course>
  <speed>0.0282842712474619</speed>
  <fix>3d</fix>
</trkpt>
<trkpt lat="33.810313" lon="-118.393867">
  <ele>-0.12</ele>
  <time>2026-09-01T01:13:58Z</time>
  <course>0.0</course>
  <speed>0.0</speed>
  <fix>3d</fix>
</trkpt>
<trkpt lat="33.8103131" lon="-118.3938671">
  <ele>-0.128</ele>
  <time>2026-09-01T01:13:58Z</time>
  <course>187.02</course>
  <speed>0.0282842712474619</speed>
  <fix>3d</fix>
</trkpt>
<trkpt lat="33.810313" lon="-118.393867">
  <ele>-0.12</ele>
  <time>2026-09-01T01:13:58Z</time>
  <course>0.0</course>
  <speed>0.0</speed>
  <fix>3d</fix>
</trkpt>
<trkpt lat="33.8103131" lon="-118.3938671">
  <ele>-0.129</ele>
  <time>2026-09-01T01:13:58Z</time>
  <course>187.02</course>
  <speed>0.0282842712474619</speed>
  <fix>3d</fix>
</trkpt>
<trkpt lat="33.810313" lon="-118.393867">
  <ele>-0.12</ele>
  <time>2026-09-01T01:13:58Z</time>
  <course>0.0</course>
  <speed>0.0</speed>
  <fix>3d</fix>
</trkpt>
<trkpt lat="33.8103131" lon="-118.3938671">
  <ele>-0.13</ele>
  <time>2026-09-01T01:13:58Z</time>
  <course>187.01</course>
  <speed>0.0282842712474619</speed>
  <fix>3d</fix>
</trkpt>
<trkpt lat="33.810313" lon="-118.393867">
  <ele>-0.12</ele>
  <time>2026-09-01T01:13:58Z</time>
  <course>0.0</course>
  <speed>0.0</speed>
  <fix>3d</fix>
</trkpt>
<trkpt lat="33.8103131" lon="-118.3938671">
  <ele>-0.131</ele>
  <time>2026-09-01T01:13:58Z</time>
  <course>187.01</course>
  <speed>0.0282842712474619</speed>
  <fix>3d</fix>
</trkpt>
<trkpt lat="33.810313" lon="-118.393867">
  <ele>-0.12</ele>
  <time>2026-09-01T01:13:58Z</time>
  <course>0.0</course>
  <speed>0.0</speed>
  <fix>3d</fix>
</trkpt>
<trkpt lat="33.8103131" lon="-118.3938671">
  <ele>-0.13</ele>
  <time>2026-09-01T01:13:58Z</time>
  <course>187.0</course>
  <speed>0.0282842712474619</speed>
  <fix>3d</fix>
</trkpt>
<trkpt lat="33.810313" lon="-118.393867">
  <ele>-0.12</ele>
  <time>2026-09-01T01:13:58Z</time>
  <course>0.0</course>
  <speed>0.0</speed>
  <fix>3d</fix>
</trkpt>
<trkpt lat="33.8103131" lon="-118.3938671">
  <ele>-0.13</ele>
  <time>2026-09-01T01:13:58Z</time>
  <course>187.0</course>
  <speed>0.0282842712474619</speed>
  <fix>3d</fix>
</trkpt>
<trkpt lat="33.810313" lon="-118.393867">
  <ele>-0.12</ele>
  <time>2026-09-01T01:13:58Z</time>
  <course>0.0</course>
  <speed>0.0</speed>
  <fix>3d</fix>
</trkpt>
<trkpt lat="33.8103131" lon="-118.3938671">
  <ele>-0.129</ele>
  <time>2026-09-01T01:13:58Z</time>
  <course>187.0</course>
  <speed>0.0282842712474619</speed>
  <fix>3d</fix>
</trkpt>
<trkpt lat="33.810313" lon="-118.393867">
  <ele>-0.12</ele>
  <time>2026-09-01T01:13:58Z</time>
  <course>0.0</course>
  <speed>0.0</speed>
  <fix>3d</fix>
</trkpt>
<trkpt lat="33.8103131" lon="-118.3938671">
  <ele>-0.128</ele>
  <time>2026-09-01T01:13:58Z</time>
  <course>186.99</course>
  <speed>0.03605551275463989</speed>
  <fix>3d</fix>
</trkpt>
<trkpt lat="33.810313" lon="-118.393867">
  <ele>-0.12</ele>
  <time>2026-09-01T01:13:58Z</time>
  <course>0.0</course>
  <speed>0.0</speed>
  <fix>3d</fix>
</trkpt>
<trkpt lat="33.8103131" lon="-118.3938671">
  <ele>-0.128</ele>
  <time>2026-09-01T01:13:58Z</time>
  <course>186.99</course>
  <speed>0.03605551275463989</speed>
  <fix>3d</fix>
</trkpt>
<trkpt lat="33.810313" lon="-118.393867">
  <ele>-0.12</ele>
  <time>2026-09-01T01:13:58Z</time>
  <course>0.0</course>
  <speed>0.0</speed>
  <fix>3d</fix>
</trkpt>
<trkpt lat="33.8103131" lon="-118.3938671">
  <ele>-0.128</ele>
  <time>2026-09-01T01:13:58Z</time>
  <course>186.98</course>
  <speed>0.03605551275463989</speed>
  <fix>3d</fix>
</trkpt>
<trkpt lat="33.810313" lon="-118.393867">
  <ele>-0.12</ele>
  <time>2026-09-01T01:13:58Z</time>
  <course>0.0</course>
  <speed>0.0</speed>
  <fix>3d</fix>
</trkpt>
<trkpt lat="33.8103131" lon="-118.3938671">
  <ele>-0.129</ele>
  <time>2026-09-01T01:13:58Z</time>
  <course>186.98</course>
  <speed>0.03605551275463989</speed>
  <fix>3d</fix>
</trkpt>
<trkpt lat="33.810313" lon="-118.393867">
  <ele>-0.12</ele>
  <time>2026-09-01T01:13:58Z</time>
  <course>0.0</course>
  <speed>0.0</speed>
  <fix>3d</fix>
</trkpt>
<trkpt lat="33.8103131" lon="-118.3938671">
  <ele>-0.131</ele>
  <time>2026-09-01T01:13:58Z</time>
  <course>186.97</course>
  <speed>0.03605551275463989</speed>
  <fix>3d</fix>
</trkpt>
<trkpt lat="33.810313" lon="-118.393867">
  <ele>-0.12</ele>
  <time>2026-09-01T01:13:58Z</time>
  <course>0.0</course>
  <speed>0.0</speed>
  <fix>3d</fix>
</trkpt>
<trkpt lat="33.8103131" lon="-118.3938671">
  <ele>-0.133</ele>
  <time>2026-09-01T01:13:58Z</time>
  <course>186.97</course>
  <speed>0.03605551275463989</speed>
  <fix>3d</fix>
</trkpt>
<trkpt lat="33.810313" lon="-118.393867">
  <ele>-0.12</ele>
  <time>2026-09-01T01:13:58Z</time>
  <course>0.0</course>
  <speed>0.0</speed>
  <fix>3d</fix>
</trkpt>
<trkpt lat="33.8103132" lon="-118.3938671">
  <ele>-0.134</ele>
  <time>2026-09-01T01:13:58Z</time>
  <course>186.96</course>
  <speed>0.03605551275463989</speed>
  <fix>3d</fix>
</trkpt>
<trkpt lat="33.810313" lon="-118.393867">
  <ele>-0.12</ele>
  <time>2026-09-01T01:13:58Z</time>
  <course>0.0</course>
  <speed>0.0</speed>
  <fix>3d</fix>
</trkpt>
<trkpt lat="33.8103132" lon="-118.3938671">
  <ele>-0.133</ele>
  <time>2026-09-01T01:13:58Z</time>
  <course>186.96</course>
  <speed>0.03605551275463989</speed>
  <fix>3d</fix>
</trkpt>
<trkpt lat="33.810313" lon="-118.393867">
  <ele>-0.12</ele>
  <time>2026-09-01T01:13:58Z</time>
  <course>0.0</course>
  <speed>0.0</speed>
  <fix>3d</fix>
</trkpt>
<trkpt lat="33.8103132" lon="-118.3938671">
  <ele>-0.131</ele>
  <time>2026-09-01T01:13:58Z</time>
  <course>186.96</course>
  <speed>0.03605551275463989</speed>
  <fix>3d</fix>
</trkpt>
<trkpt lat="33.810313" lon="-118.393867">
  <ele>-0.12</ele>
  <time>2026-09-01T01:13:58Z</time>
  <course>0.0</course>
  <speed>0.0</speed>
  <fix>3d</fix>
</trkpt>
<trkpt lat="33.8103132" lon="-118.3938671">
  <ele>-0.13</ele>
  <time>2026-09-01T01:13:58Z</time>
  <course>186.95</course>
  <speed>0.03605551275463989</speed>
  <fix>3d</fix>
</trkpt>
<trkpt lat="33.810313" lon="-118.393867">
  <ele>-0.12</ele>
  <time>2026-09-01T01:13:58Z</time>
  <course>0.0</course>
  <speed>0.0</speed>
  <fix>3d</fix>
</trkpt>
<trkpt lat="33.8103132" lon="-118.3938672">
  <ele>-0.129</ele>
  <time>2026-09-01T01:13:58Z</time>
  <course>186.95</course>
  <speed>0.03605551275463989</speed>
  <fix>3d</fix>
</trkpt>
<trkpt lat="33.810313" lon="-118.393867">
  <ele>-0.12</ele>
  <time>2026-09-01T01:13:59Z</time>
  <course>0.0</course>
  <speed>0.0</speed>
  <fix>3d</fix>
</trkpt>
<trkpt lat="33.8103132" lon="-118.3938672">
  <ele>-0.128</ele>
  <time>2026-09-01T01:13:59Z</time>
  <course>186.94</course>
  <speed>0.03605551275463989</speed>
  <fix>3d</fix>
</trkpt>
<trkpt lat="33.810313" lon="-118.393867">
  <ele>-0.12</ele>
  <time>2026-09-01T01:13:59Z</time>
  <course>0.0</course>
  <speed>0.0</speed>
  <fix>3d</fix>
</trkpt>
<trkpt lat="33.8103132" lon="-118.3938672">
  <ele>-0.128</ele>
  <time>2026-09-01T01:13:59Z</time>
  <course>186.94</course>
  <speed>0.0282842712474619</speed>
  <fix>3d</fix>
</trkpt>
<trkpt lat="33.810313" lon="-118.393867">
  <ele>-0.12</ele>
  <time>2026-09-01T01:13:59Z</time>
  <course>0.0</course>
  <speed>0.0</speed>
  <fix>3d</fix>
</trkpt>
<trkpt lat="33.8103132" lon="-118.3938672">
  <ele>-0.127</ele>
  <time>2026-09-01T01:13:59Z</time>
  <course>186.94</course>
  <speed>0.0282842712474619</speed>
  <fix>3d</fix>
</trkpt>
<trkpt lat="33.810313" lon="-118.393867">
  <ele>-0.12</ele>
  <time>2026-09-01T01:13:59Z</time>
  <course>0.0</course>
  <speed>0.0</speed>
  <fix>3d</fix>
</trkpt>
<trkpt lat="33.8103132" lon="-118.3938672">
  <ele>-0.128</ele>
  <time>2026-09-01T01:13:59Z</time>
  <course>186.93</course>
  <speed>0.0282842712474619</speed>
  <fix>3d</fix>
</trkpt>
<trkpt lat="33.810313" lon="-118.393867">
  <ele>-0.12</ele>
  <time>2026-09-01T01:13:59Z</time>
  <course>0.0</course>
  <speed>0.0</speed>
  <fix>3d</fix>
</trkpt>
<trkpt lat="33.8103132" lon="-118.3938672">
  <ele>-0.128</ele>
  <time>2026-09-01T01:13:59Z</time>
  <course>186.93</course>
  <speed>0.0282842712474619</speed>
  <fix>3d</fix>
</trkpt>
<trkpt lat="33.810313" lon="-118.393867">
  <ele>-0.12</ele>
  <time>2026-09-01T01:13:59Z</time>
  <course>0.0</course>
  <speed>0.0</speed>
  <fix>3d</fix>
</trkpt>
<trkpt lat="33.8103132" lon="-118.3938672">
  <ele>-0.127</ele>
  <time>2026-09-01T01:13:59Z</time>
  <course>186.92</course>
  <speed>0.0282842712474619</speed>
  <fix>3d</fix>
</trkpt>
<trkpt lat="33.810313" lon="-118.393867">
  <ele>-0.12</ele>
  <time>2026-09-01T01:13:59Z</time>
  <course>0.0</course>
  <speed>0.0</speed>
  <fix>3d</fix>
</trkpt>
<trkpt lat="33.8103132" lon="-118.3938672">
  <ele>-0.126</ele>
  <time>2026-09-01T01:13:59Z</time>
  <course>186.92</course>
  <speed>0.0282842712474619</speed>
  <fix>3d</fix>
</trkpt>
<trkpt lat="33.810313" lon="-118.393867">
  <ele>-0.12</ele>
  <time>2026-09-01T01:13:59Z</time>
  <course>0.0</course>
  <speed>0.0</speed>
  <fix>3d</fix>
</trkpt>
<trkpt lat="33.8103132" lon="-118.3938671">
  <ele>-0.125</ele>
  <time>2026-09-01T01:13:59Z</time>
  <course>186.92</course>
  <speed>0.0282842712474619</speed>
  <fix>3d</fix>
</trkpt>
<trkpt lat="33.810313" lon="-118.393867">
  <ele>-0.12</ele>
  <time>2026-09-01T01:13:59Z</time>
  <course>0.0</course>
  <speed>0.0</speed>
  <fix>3d</fix>
</trkpt>
<trkpt lat="33.8103132" lon="-118.3938671">
  <ele>-0.124</ele>
  <time>2026-09-01T01:13:59Z</time>
  <course>186.91</course>
  <speed>0.0282842712474619</speed>
  <fix>3d</fix>
</trkpt>
<trkpt lat="33.810313" lon="-118.393867">
  <ele>-0.12</ele>
  <time>2026-09-01T01:13:59Z</time>
  <course>0.0</course>
  <speed>0.0</speed>
  <fix>3d</fix>
</trkpt>
<trkpt lat="33.8103132" lon="-118.3938671">
  <ele>-0.122</ele>
  <time>2026-09-01T01:13:59Z</time>
  <course>186.91</course>
  <speed>0.0282842712474619</speed>
  <fix>3d</fix>
</trkpt>
<trkpt lat="33.810313" lon="-118.393867">
  <ele>-0.12</ele>
  <time>2026-09-01T01:13:59Z</time>
  <course>0.0</course>
  <speed>0.0</speed>
  <fix>3d</fix>
</trkpt>
<trkpt lat="33.8103132" lon="-118.3938671">
  <ele>-0.121</ele>
  <time>2026-09-01T01:13:59Z</time>
  <course>186.91</course>
  <speed>0.0282842712474619</speed>
  <fix>3d</fix>
</trkpt>
<trkpt lat="33.810313" lon="-118.393867">
  <ele>-0.12</ele>
  <time>2026-09-01T01:13:59Z</time>
  <course>0.0</course>
  <speed>0.0</speed>
  <fix>3d</fix>
</trkpt>
<trkpt lat="33.8103132" lon="-118.3938671">
  <ele>-0.12</ele>
  <time>2026-09-01T01:13:59Z</time>
  <course>186.9</course>
  <speed>0.0282842712474619</speed>
  <fix>3d</fix>
</trkpt>
<trkpt lat="33.810313" lon="-118.393867">
  <ele>-0.12</ele>
  <time>2026-09-01T01:13:59Z</time>
  <course>0.0</course>
  <speed>0.0</speed>
  <fix>3d</fix>
</trkpt>
<trkpt lat="33.8103132" lon="-118.3938671">
  <ele>-0.119</ele>
  <time>2026-09-01T01:13:59Z</time>
  <course>186.9</course>
  <speed>0.022360679774997897</speed>
  <fix>3d</fix>
</trkpt>
<trkpt lat="33.810313" lon="-118.393867">
  <ele>-0.12</ele>
  <time>2026-09-01T01:13:59Z</time>
  <course>0.0</course>
  <speed>0.0</speed>
  <fix>3d</fix>
</trkpt>
<trkpt lat="33.8103131" lon="-118.3938671">
  <ele>-0.119</ele>
  <time>2026-09-01T01:13:59Z</time>
  <course>186.89</course>
  <speed>0.022360679774997897</speed>
  <fix>3d</fix>
</trkpt>
<trkpt lat="33.810313" lon="-118.393867">
  <ele>-0.12</ele>
  <time>2026-09-01T01:13:59Z</time>
  <course>0.0</course>
  <speed>0.0</speed>
  <fix>3d</fix>
</trkpt>
<trkpt lat="33.8103131" lon="-118.3938671">
  <ele>-0.119</ele>
  <time>2026-09-01T01:13:59Z</time>
  <course>186.89</course>
  <speed>0.022360679774997897</speed>
  <fix>3d</fix>
</trkpt>
<trkpt lat="33.810313" lon="-118.393867">
  <ele>-0.12</ele>
  <time>2026-09-01T01:13:59Z</time>
  <course>0.0</course>
  <speed>0.0</speed>
  <fix>3d</fix>
</trkpt>
<trkpt lat="33.8103131" lon="-118.3938671">
  <ele>-0.119</ele>
  <time>2026-09-01T01:13:59Z</time>
  <course>186.89</course>
  <speed>0.022360679774997897</speed>
  <fix>3d</fix>
</trkpt>
<trkpt lat="33.810313" lon="-118.393867">
  <ele>-0.12</ele>
  <time>2026-09-01T01:13:59Z</time>
  <course>0.0</course>
  <speed>0.0</speed>
  <fix>3d</fix>
</trkpt>
<trkpt lat="33.8103131" lon="-118.3938671">
  <ele>-0.119</ele>
  <time>2026-09-01T01:13:59Z</time>
  <course>186.88</course>
  <speed>0.022360679774997897</speed>
  <fix>3d</fix>
</trkpt>
<trkpt lat="33.810313" lon="-118.393867">
  <ele>-0.12</ele>
  <time>2026-09-01T01:13:59Z</time>
  <course>0.0</course>
  <speed>0.0</speed>
  <fix>3d</fix>
</trkpt>
<trkpt lat="33.8103131" lon="-118.3938671">
  <ele>-0.119</ele>
  <time>2026-09-01T01:13:59Z</time>
  <course>186.88</course>
  <speed>0.022360679774997897</speed>
  <fix>3d</fix>
</trkpt>
<trkpt lat="33.810313" lon="-118.393867">
  <ele>-0.12</ele>
  <time>2026-09-01T01:13:59Z</time>
  <course>0.0</course>
  <speed>0.0</speed>
  <fix>3d</fix>
</trkpt>
<trkpt lat="33.8103131" lon="-118.3938671">
  <ele>-0.119</ele>
  <time>2026-09-01T01:13:59Z</time>
  <course>186.88</course>
  <speed>0.022360679774997897</speed>
  <fix>3d</fix>
</trkpt>
<trkpt lat="33.810313" lon="-118.393867">
  <ele>-0.12</ele>
  <time>2026-09-01T01:13:59Z</time>
  <course>0.0</course>
  <speed>0.0</speed>
  <fix>3d</fix>
</trkpt>
<trkpt lat="33.8103131" lon="-118.3938671">
  <ele>-0.12</ele>
  <time>2026-09-01T01:13:59Z</time>
  <course>186.87</course>
  <speed>0.022360679774997897</speed>
  <fix>3d</fix>
</trkpt>
<trkpt lat="33.810313" lon="-118.393867">
  <ele>-0.12</ele>
  <time>2026-09-01T01:13:59Z</time>
  <course>0.0</course>
  <speed>0.0</speed>
  <fix>3d</fix>
</trkpt>
<trkpt lat="33.8103131" lon="-118.3938671">
  <ele>-0.121</ele>
  <time>2026-09-01T01:13:59Z</time>
  <course>186.87</course>
  <speed>0.022360679774997897</speed>
  <fix>3d</fix>
</trkpt>
<trkpt lat="33.810313" lon="-118.393867">
  <ele>-0.12</ele>
  <time>2026-09-01T01:13:59Z</time>
  <course>0.0</course>
  <speed>0.0</speed>
  <fix>3d</fix>
</trkpt>
<trkpt lat="33.8103131" lon="-118.3938671">
  <ele>-0.124</ele>
  <time>2026-09-01T01:13:59Z</time>
  <course>186.87</course>
  <speed>0.022360679774997897</speed>
  <fix>3d</fix>
</trkpt>
<trkpt lat="33.810313" lon="-118.393867">
  <ele>-0.12</ele>
  <time>2026-09-01T01:13:59Z</time>
  <course>0.0</course>
  <speed>0.0</speed>
  <fix>3d</fix>
</trkpt>
<trkpt lat="33.8103131" lon="-118.3938671">
  <ele>-0.126</ele>
  <time>2026-09-01T01:13:59Z</time>
  <course>186.87</course>
  <speed>0.022360679774997897</speed>
  <fix>3d</fix>
</trkpt>
<trkpt lat="33.810313" lon="-118.393867">
  <ele>-0.12</ele>
  <time>2026-09-01T01:13:59Z</time>
  <course>0.0</course>
  <speed>0.0</speed>
  <fix>3d</fix>
</trkpt>
<trkpt lat="33.8103131" lon="-118.3938671">
  <ele>-0.128</ele>
  <time>2026-09-01T01:13:59Z</time>
  <course>186.86</course>
  <speed>0.022360679774997897</speed>
  <fix>3d</fix>
</trkpt>
<trkpt lat="33.810313" lon="-118.393867">
  <ele>-0.12</ele>
  <time>2026-09-01T01:13:59Z</time>
  <course>0.0</course>
  <speed>0.0</speed>
  <fix>3d</fix>
</trkpt>
<trkpt lat="33.8103131" lon="-118.3938671">
  <ele>-0.131</ele>
  <time>2026-09-01T01:13:59Z</time>
  <course>186.86</course>
  <speed>0.022360679774997897</speed>
  <fix>3d</fix>
</trkpt>
<trkpt lat="33.810313" lon="-118.393867">
  <ele>-0.12</ele>
  <time>2026-09-01T01:13:59Z</time>
  <course>0.0</course>
  <speed>0.0</speed>
  <fix>3d</fix>
</trkpt>
<trkpt lat="33.8103131" lon="-118.3938671">
  <ele>-0.133</ele>
  <time>2026-09-01T01:13:59Z</time>
  <course>186.86</course>
  <speed>0.022360679774997897</speed>
  <fix>3d</fix>
</trkpt>
<trkpt lat="33.810313" lon="-118.393867">
  <ele>-0.12</ele>
  <time>2026-09-01T01:13:59Z</time>
  <course>0.0</course>
  <speed>0.0</speed>
  <fix>3d</fix>
</trkpt>
<trkpt lat="33.8103131" lon="-118.3938671">
  <ele>-0.133</ele>
  <time>2026-09-01T01:13:59Z</time>
  <course>186.85</course>
  <speed>0.022360679774997897</speed>
  <fix>3d</fix>
</trkpt>
<trkpt lat="33.810313" lon="-118.393867">
  <ele>-0.12</ele>
  <time>2026-09-01T01:13:59Z</time>
  <course>0.0</course>
  <speed>0.0</speed>
  <fix>3d</fix>
</trkpt>
<trkpt lat="33.8103131" lon="-118.3938671">
  <ele>-0.132</ele>
  <time>2026-09-01T01:13:59Z</time>
  <course>186.85</course>
  <speed>0.022360679774997897</speed>
  <fix>3d</fix>
</trkpt>
<trkpt lat="33.810313" lon="-118.393867">
  <ele>-0.12</ele>
  <time>2026-09-01T01:13:59Z</time>
  <course>0.0</course>
  <speed>0.0</speed>
  <fix>3d</fix>
</trkpt>
<trkpt lat="33.8103131" lon="-118.3938671">
  <ele>-0.131</ele>
  <time>2026-09-01T01:13:59Z</time>
  <course>186.85</course>
  <speed>0.022360679774997897</speed>
  <fix>3d</fix>
</trkpt>
<trkpt lat="33.810313" lon="-118.393867">
  <ele>-0.12</ele>
  <time>2026-09-01T01:13:59Z</time>
  <course>0.0</course>
  <speed>0.0</speed>
  <fix>3d</fix>
</trkpt>
<trkpt lat="33.8103131" lon="-118.3938671">
  <ele>-0.129</ele>
  <time>2026-09-01T01:13:59Z</time>
  <course>186.84</course>
  <speed>0.022360679774997897</speed>
  <fix>3d</fix>
</trkpt>
<trkpt lat="33.810313" lon="-118.393867">
  <ele>-0.12</ele>
  <time>2026-09-01T01:13:59Z</time>
  <course>0.0</course>
  <speed>0.0</speed>
  <fix>3d</fix>
</trkpt>
<trkpt lat="33.8103131" lon="-118.3938671">
  <ele>-0.128</ele>
  <time>2026-09-01T01:13:59Z</time>
  <course>186.84</course>
  <speed>0.022360679774997897</speed>
  <fix>3d</fix>
</trkpt>
<trkpt lat="33.810313" lon="-118.393867">
  <ele>-0.12</ele>
  <time>2026-09-01T01:13:59Z</time>
  <course>0.0</course>
  <speed>0.0</speed>
  <fix>3d</fix>
</trkpt>
<trkpt lat="33.8103131" lon="-118.3938671">
  <ele>-0.128</ele>
  <time>2026-09-01T01:13:59Z</time>
  <course>186.84</course>
  <speed>0.022360679774997897</speed>
  <fix>3d</fix>
</trkpt>
<trkpt lat="33.810313" lon="-118.393867">
  <ele>-0.12</ele>
  <time>2026-09-01T01:13:59Z</time>
  <course>0.0</course>
  <speed>0.0</speed>
  <fix>3d</fix>
</trkpt>
<trkpt lat="33.8103131" lon="-118.3938671">
  <ele>-0.128</ele>
  <time>2026-09-01T01:13:59Z</time>
  <course>186.83</course>
  <speed>0.022360679774997897</speed>
  <fix>3d</fix>
</trkpt>
<trkpt lat="33.810313" lon="-118.393867">
  <ele>-0.12</ele>
  <time>2026-09-01T01:13:59Z</time>
  <course>0.0</course>
  <speed>0.0</speed>
  <fix>3d</fix>
</trkpt>
<trkpt lat="33.8103131" lon="-118.3938671">
  <ele>-0.128</ele>
  <time>2026-09-01T01:13:59Z</time>
  <course>186.83</course>
  <speed>0.022360679774997897</speed>
  <fix>3d</fix>
</trkpt>
<trkpt lat="33.810313" lon="-118.393867">
  <ele>-0.12</ele>
  <time>2026-09-01T01:13:59Z</time>
  <course>0.0</course>
  <speed>0.0</speed>
  <fix>3d</fix>
</trkpt>
<trkpt lat="33.8103131" lon="-118.3938671">
  <ele>-0.127</ele>
  <time>2026-09-01T01:13:59Z</time>
  <course>186.83</course>
  <speed>0.022360679774997897</speed>
  <fix>3d</fix>
</trkpt>
<trkpt lat="33.810313" lon="-118.393867">
  <ele>-0.12</ele>
  <time>2026-09-01T01:13:59Z</time>
  <course>0.0</course>
  <speed>0.0</speed>
  <fix>3d</fix>
</trkpt>
<trkpt lat="33.8103131" lon="-118.3938671">
  <ele>-0.126</ele>
  <time>2026-09-01T01:13:59Z</time>
  <course>186.82</course>
  <speed>0.022360679774997897</speed>
  <fix>3d</fix>
</trkpt>
<trkpt lat="33.810313" lon="-118.393867">
  <ele>-0.12</ele>
  <time>2026-09-01T01:13:59Z</time>
  <course>0.0</course>
  <speed>0.0</speed>
  <fix>3d</fix>
</trkpt>
<trkpt lat="33.8103131" lon="-118.3938671">
  <ele>-0.125</ele>
  <time>2026-09-01T01:13:59Z</time>
  <course>186.82</course>
  <speed>0.022360679774997897</speed>
  <fix>3d</fix>
</trkpt>
<trkpt lat="33.810313" lon="-118.393867">
  <ele>-0.12</ele>
  <time>2026-09-01T01:13:59Z</time>
  <course>0.0</course>
  <speed>0.0</speed>
  <fix>3d</fix>
</trkpt>
<trkpt lat="33.8103131" lon="-118.3938671">
  <ele>-0.124</ele>
  <time>2026-09-01T01:13:59Z</time>
  <course>186.82</course>
  <speed>0.022360679774997897</speed>
  <fix>3d</fix>
</trkpt>
<trkpt lat="33.810313" lon="-118.393867">
  <ele>-0.12</ele>
  <time>2026-09-01T01:13:59Z</time>
  <course>0.0</course>
  <speed>0.0</speed>
  <fix>3d</fix>
</trkpt>
<trkpt lat="33.8103131" lon="-118.3938671">
  <ele>-0.123</ele>
  <time>2026-09-01T01:13:59Z</time>
  <course>186.82</course>
  <speed>0.022360679774997897</speed>
  <fix>3d</fix>
</trkpt>
<trkpt lat="33.810313" lon="-118.393867">
  <ele>-0.12</ele>
  <time>2026-09-01T01:13:59Z</time>
  <course>0.0</course>
  <speed>0.0</speed>
  <fix>3d</fix>
</trkpt>
<trkpt lat="33.8103131" lon="-118.3938671">
  <ele>-0.122</ele>
  <time>2026-09-01T01:13:59Z</time>
  <course>186.81</course>
  <speed>0.022360679774997897</speed>
  <fix>3d</fix>
</trkpt>
<trkpt lat="33.810313" lon="-118.393867">
  <ele>-0.12</ele>
  <time>2026-09-01T01:13:59Z</time>
  <course>0.0</course>
  <speed>0.0</speed>
  <fix>3d</fix>
</trkpt>
<trkpt lat="33.8103131" lon="-118.3938671">
  <ele>-0.122</ele>
  <time>2026-09-01T01:13:59Z</time>
  <course>186.81</course>
  <speed>0.022360679774997897</speed>
  <fix>3d</fix>
</trkpt>
<trkpt lat="33.810313" lon="-118.393867">
  <ele>-0.12</ele>
  <time>2026-09-01T01:13:59Z</time>
  <course>0.0</course>
  <speed>0.0</speed>
  <fix>3d</fix>
</trkpt>
<trkpt lat="33.8103131" lon="-118.3938671">
  <ele>-0.122</ele>
  <time>2026-09-01T01:13:59Z</time>
  <course>186.81</course>
  <speed>0.022360679774997897</speed>
  <fix>3d</fix>
</trkpt>
<trkpt lat="33.810313" lon="-118.393867">
  <ele>-0.12</ele>
  <time>2026-09-01T01:13:59Z</time>
  <course>0.0</course>
  <speed>0.0</speed>
  <fix>3d</fix>
</trkpt>
<trkpt lat="33.8103131" lon="-118.3938671">
  <ele>-0.121</ele>
  <time>2026-09-01T01:13:59Z</time>
  <course>186.8</course>
  <speed>0.022360679774997897</speed>
  <fix>3d</fix>
</trkpt>
<trkpt lat="33.810313" lon="-118.393867">
  <ele>-0.12</ele>
  <time>2026-09-01T01:13:59Z</time>
  <course>0.0</course>
  <speed>0.0</speed>
  <fix>3d</fix>
</trkpt>
<trkpt lat="33.8103131" lon="-118.3938671">
  <ele>-0.122</ele>
  <time>2026-09-01T01:13:59Z</time>
  <course>186.8</course>
  <speed>0.022360679774997897</speed>
  <fix>3d</fix>
</trkpt>
<trkpt lat="33.810313" lon="-118.393867">
  <ele>-0.12</ele>
  <time>2026-09-01T01:13:59Z</time>
  <course>0.0</course>
  <speed>0.0</speed>
  <fix>3d</fix>
</trkpt>
<trkpt lat="33.8103131" lon="-118.3938671">
  <ele>-0.122</ele>
  <time>2026-09-01T01:13:59Z</time>
  <course>186.8</course>
  <speed>0.022360679774997897</speed>
  <fix>3d</fix>
</trkpt>
<trkpt lat="33.810313" lon="-118.393867">
  <ele>-0.12</ele>
  <time>2026-09-01T01:13:59Z</time>
  <course>0.0</course>
  <speed>0.0</speed>
  <fix>3d</fix>
</trkpt>
<trkpt lat="33.8103131" lon="-118.3938671">
  <ele>-0.122</ele>
  <time>2026-09-01T01:13:59Z</time>
  <course>186.79</course>
  <speed>0.022360679774997897</speed>
  <fix>3d</fix>
</trkpt>
<trkpt lat="33.810313" lon="-118.393867">
  <ele>-0.12</ele>
  <time>2026-09-01T01:13:59Z</time>
  <course>0.0</course>
  <speed>0.0</speed>
  <fix>3d</fix>
</trkpt>
<trkpt lat="33.8103131" lon="-118.3938671">
  <ele>-0.122</ele>
  <time>2026-09-01T01:13:59Z</time>
  <course>186.79</course>
  <speed>0.022360679774997897</speed>
  <fix>3d</fix>
</trkpt>
<trkpt lat="33.810313" lon="-118.393867">
  <ele>-0.12</ele>
  <time>2026-09-01T01:13:59Z</time>
  <course>0.0</course>
  <speed>0.0</speed>
  <fix>3d</fix>
</trkpt>
<trkpt lat="33.8103131" lon="-118.3938671">
  <ele>-0.122</ele>
  <time>2026-09-01T01:13:59Z</time>
  <course>186.79</course>
  <speed>0.022360679774997897</speed>
  <fix>3d</fix>
</trkpt>
<trkpt lat="33.810313" lon="-118.393867">
  <ele>-0.12</ele>
  <time>2026-09-01T01:13:59Z</time>
  <course>0.0</course>
  <speed>0.0</speed>
  <fix>3d</fix>
</trkpt>
<trkpt lat="33.8103131" lon="-118.3938671">
  <ele>-0.121</ele>
  <time>2026-09-01T01:13:59Z</time>
  <course>186.79</course>
  <speed>0.022360679774997897</speed>
  <fix>3d</fix>
</trkpt>
<trkpt lat="33.810313" lon="-118.393867">
  <ele>-0.12</ele>
  <time>2026-09-01T01:13:59Z</time>
  <course>0.0</course>
  <speed>0.0</speed>
  <fix>3d</fix>
</trkpt>
<trkpt lat="33.8103131" lon="-118.3938671">
  <ele>-0.12</ele>
  <time>2026-09-01T01:13:59Z</time>
  <course>186.78</course>
  <speed>0.022360679774997897</speed>
  <fix>3d</fix>
</trkpt>
<trkpt lat="33.810313" lon="-118.393867">
  <ele>-0.12</ele>
  <time>2026-09-01T01:13:59Z</time>
  <course>0.0</course>
  <speed>0.0</speed>
  <fix>3d</fix>
</trkpt>
<trkpt lat="33.8103131" lon="-118.3938671">
  <ele>-0.12</ele>
  <time>2026-09-01T01:13:59Z</time>
  <course>186.78</course>
  <speed>0.022360679774997897</speed>
  <fix>3d</fix>
</trkpt>
<trkpt lat="33.810313" lon="-118.393867">
  <ele>-0.12</ele>
  <time>2026-09-01T01:13:59Z</time>
  <course>0.0</course>
  <speed>0.0</speed>
  <fix>3d</fix>
</trkpt>
<trkpt lat="33.8103131" lon="-118.3938671">
  <ele>-0.12</ele>
  <time>2026-09-01T01:13:59Z</time>
  <course>186.78</course>
  <speed>0.022360679774997897</speed>
  <fix>3d</fix>
</trkpt>
<trkpt lat="33.810313" lon="-118.393867">
  <ele>-0.12</ele>
  <time>2026-09-01T01:13:59Z</time>
  <course>0.0</course>
  <speed>0.0</speed>
  <fix>3d</fix>
</trkpt>
<trkpt lat="33.8103131" lon="-118.3938671">
  <ele>-0.122</ele>
  <time>2026-09-01T01:13:59Z</time>
  <course>186.77</course>
  <speed>0.022360679774997897</speed>
  <fix>3d</fix>
</trkpt>
<trkpt lat="33.810313" lon="-118.393867">
  <ele>-0.12</ele>
  <time>2026-09-01T01:13:59Z</time>
  <course>0.0</course>
  <speed>0.0</speed>
  <fix>3d</fix>
</trkpt>
<trkpt lat="33.8103131" lon="-118.3938671">
  <ele>-0.125</ele>
  <time>2026-09-01T01:13:59Z</time>
  <course>186.77</course>
  <speed>0.022360679774997897</speed>
  <fix>3d</fix>
</trkpt>
<trkpt lat="33.810313" lon="-118.393867">
  <ele>-0.12</ele>
  <time>2026-09-01T01:13:59Z</time>
  <course>0.0</course>
  <speed>0.0</speed>
  <fix>3d</fix>
</trkpt>
<trkpt lat="33.8103131" lon="-118.3938671">
  <ele>-0.128</ele>
  <time>2026-09-01T01:13:59Z</time>
  <course>186.77</course>
  <speed>0.022360679774997897</speed>
  <fix>3d</fix>
</trkpt>
<trkpt lat="33.810313" lon="-118.393867">
  <ele>-0.12</ele>
  <time>2026-09-01T01:13:59Z</time>
  <course>0.0</course>
  <speed>0.0</speed>
  <fix>3d</fix>
</trkpt>
<trkpt lat="33.8103131" lon="-118.3938671">
  <ele>-0.13</ele>
  <time>2026-09-01T01:13:59Z</time>
  <course>186.77</course>
  <speed>0.022360679774997897</speed>
  <fix>3d</fix>
</trkpt>
<trkpt lat="33.810313" lon="-118.393867">
  <ele>-0.12</ele>
  <time>2026-09-01T01:13:59Z</time>
  <course>0.0</course>
  <speed>0.0</speed>
  <fix>3d</fix>
</trkpt>
<trkpt lat="33.8103131" lon="-118.3938671">
  <ele>-0.13</ele>
  <time>2026-09-01T01:13:59Z</time>
  <course>186.76</course>
  <speed>0.022360679774997897</speed>
  <fix>3d</fix>
</trkpt>
<trkpt lat="33.810313" lon="-118.393867">
  <ele>-0.12</ele>
  <time>2026-09-01T01:13:59Z</time>
  <course>0.0</course>
  <speed>0.0</speed>
  <fix>3d</fix>
</trkpt>
<trkpt lat="33.8103131" lon="-118.3938671">
  <ele>-0.129</ele>
  <time>2026-09-01T01:13:59Z</time>
  <course>186.76</course>
  <speed>0.022360679774997897</speed>
  <fix>3d</fix>
</trkpt>
<trkpt lat="33.810313" lon="-118.393867">
  <ele>-0.12</ele>
  <time>2026-09-01T01:13:59Z</time>
  <course>0.0</course>
  <speed>0.0</speed>
  <fix>3d</fix>
</trkpt>
<trkpt lat="33.8103131" lon="-118.3938671">
  <ele>-0.127</ele>
  <time>2026-09-01T01:13:59Z</time>
  <course>186.76</course>
  <speed>0.022360679774997897</speed>
  <fix>3d</fix>
</trkpt>
<trkpt lat="33.810313" lon="-118.393867">
  <ele>-0.12</ele>
  <time>2026-09-01T01:13:59Z</time>
  <course>0.0</course>
  <speed>0.0</speed>
  <fix>3d</fix>
</trkpt>
<trkpt lat="33.8103131" lon="-118.3938671">
  <ele>-0.125</ele>
  <time>2026-09-01T01:13:59Z</time>
  <course>186.75</course>
  <speed>0.022360679774997897</speed>
  <fix>3d</fix>
</trkpt>
<trkpt lat="33.810313" lon="-118.393867">
  <ele>-0.12</ele>
  <time>2026-09-01T01:13:59Z</time>
  <course>0.0</course>
  <speed>0.0</speed>
  <fix>3d</fix>
</trkpt>
<trkpt lat="33.8103131" lon="-118.3938671">
  <ele>-0.125</ele>
  <time>2026-09-01T01:13:59Z</time>
  <course>186.75</course>
  <speed>0.022360679774997897</speed>
  <fix>3d</fix>
</trkpt>
<trkpt lat="33.810313" lon="-118.393867">
  <ele>-0.12</ele>
  <time>2026-09-01T01:13:59Z</time>
  <course>0.0</course>
  <speed>0.0</speed>
  <fix>3d</fix>
</trkpt>
<trkpt lat="33.8103131" lon="-118.3938671">
  <ele>-0.124</ele>
  <time>2026-09-01T01:13:59Z</time>
  <course>186.75</course>
  <speed>0.022360679774997897</speed>
  <fix>3d</fix>
</trkpt>
<trkpt lat="33.810313" lon="-118.393867">
  <ele>-0.12</ele>
  <time>2026-09-01T01:13:59Z</time>
  <course>0.0</course>
  <speed>0.0</speed>
  <fix>3d</fix>
</trkpt>
<trkpt lat="33.8103131" lon="-118.3938671">
  <ele>-0.123</ele>
  <time>2026-09-01T01:13:59Z</time>
  <course>186.75</course>
  <speed>0.022360679774997897</speed>
  <fix>3d</fix>
</trkpt>
<trkpt lat="33.810313" lon="-118.393867">
  <ele>-0.12</ele>
  <time>2026-09-01T01:13:59Z</time>
  <course>0.0</course>
  <speed>0.0</speed>
  <fix>3d</fix>
</trkpt>
<trkpt lat="33.8103131" lon="-118.3938671">
  <ele>-0.122</ele>
  <time>2026-09-01T01:13:59Z</time>
  <course>186.74</course>
  <speed>0.022360679774997897</speed>
  <fix>3d</fix>
</trkpt>
<trkpt lat="33.810313" lon="-118.393867">
  <ele>-0.12</ele>
  <time>2026-09-01T01:13:59Z</time>
  <course>0.0</course>
  <speed>0.0</speed>
  <fix>3d</fix>
</trkpt>
<trkpt lat="33.8103131" lon="-118.3938671">
  <ele>-0.122</ele>
  <time>2026-09-01T01:13:59Z</time>
  <course>186.74</course>
  <speed>0.022360679774997897</speed>
  <fix>3d</fix>
</trkpt>
<trkpt lat="33.810313" lon="-118.393867">
  <ele>-0.12</ele>
  <time>2026-09-01T01:13:59Z</time>
  <course>0.0</course>
  <speed>0.0</speed>
  <fix>3d</fix>
</trkpt>
<trkpt lat="33.8103131" lon="-118.3938671">
  <ele>-0.122</ele>
  <time>2026-09-01T01:13:59Z</time>
  <course>186.74</course>
  <speed>0.022360679774997897</speed>
  <fix>3d</fix>
</trkpt>
<trkpt lat="33.810313" lon="-118.393867">
  <ele>-0.12</ele>
  <time>2026-09-01T01:13:59Z</time>
  <course>0.0</course>
  <speed>0.0</speed>
  <fix>3d</fix>
</trkpt>
<trkpt lat="33.8103131" lon="-118.3938671">
  <ele>-0.122</ele>
  <time>2026-09-01T01:13:59Z</time>
  <course>186.74</course>
  <speed>0.022360679774997897</speed>
  <fix>3d</fix>
</trkpt>
<trkpt lat="33.810313" lon="-118.393867">
  <ele>-0.12</ele>
  <time>2026-09-01T01:13:59Z</time>
  <course>0.0</course>
  <speed>0.0</speed>
  <fix>3d</fix>
</trkpt>
<trkpt lat="33.8103131" lon="-118.3938671">
  <ele>-0.121</ele>
  <time>2026-09-01T01:13:59Z</time>
  <course>186.73</course>
  <speed>0.022360679774997897</speed>
  <fix>3d</fix>
</trkpt>
<trkpt lat="33.810313" lon="-118.393867">
  <ele>-0.12</ele>
  <time>2026-09-01T01:13:59Z</time>
  <course>0.0</course>
  <speed>0.0</speed>
  <fix>3d</fix>
</trkpt>
<trkpt lat="33.8103131" lon="-118.3938671">
  <ele>-0.12</ele>
  <time>2026-09-01T01:13:59Z</time>
  <course>186.73</course>
  <speed>0.022360679774997897</speed>
  <fix>3d</fix>
</trkpt>
<trkpt lat="33.810313" lon="-118.393867">
  <ele>-0.12</ele>
  <time>2026-09-01T01:13:59Z</time>
  <course>0.0</course>
  <speed>0.0</speed>
  <fix>3d</fix>
</trkpt>
<trkpt lat="33.8103131" lon="-118.3938671">
  <ele>-0.12</ele>
  <time>2026-09-01T01:13:59Z</time>
  <course>186.73</course>
  <speed>0.022360679774997897</speed>
  <fix>3d</fix>
</trkpt>
<trkpt lat="33.810313" lon="-118.393867">
  <ele>-0.12</ele>
  <time>2026-09-01T01:13:59Z</time>
  <course>0.0</course>
  <speed>0.0</speed>
  <fix>3d</fix>
</trkpt>
<trkpt lat="33.8103131" lon="-118.3938671">
  <ele>-0.12</ele>
  <time>2026-09-01T01:13:59Z</time>
  <course>186.73</course>
  <speed>0.022360679774997897</speed>
  <fix>3d</fix>
</trkpt>
<trkpt lat="33.810313" lon="-118.393867">
  <ele>-0.12</ele>
  <time>2026-09-01T01:13:59Z</time>
  <course>0.0</course>
  <speed>0.0</speed>
  <fix>3d</fix>
</trkpt>
<trkpt lat="33.8103131" lon="-118.3938671">
  <ele>-0.121</ele>
  <time>2026-09-01T01:13:59Z</time>
  <course>186.72</course>
  <speed>0.022360679774997897</speed>
  <fix>3d</fix>
</trkpt>
<trkpt lat="33.810313" lon="-118.393867">
  <ele>-0.12</ele>
  <time>2026-09-01T01:13:59Z</time>
  <course>0.0</course>
  <speed>0.0</speed>
  <fix>3d</fix>
</trkpt>
<trkpt lat="33.8103131" lon="-118.3938671">
  <ele>-0.122</ele>
  <time>2026-09-01T01:13:59Z</time>
  <course>186.72</course>
  <speed>0.022360679774997897</speed>
  <fix>3d</fix>
</trkpt>
<trkpt lat="33.810313" lon="-118.393867">
  <ele>-0.12</ele>
  <time>2026-09-01T01:13:59Z</time>
  <course>0.0</course>
  <speed>0.0</speed>
  <fix>3d</fix>
</trkpt>
<trkpt lat="33.8103131" lon="-118.3938671">
  <ele>-0.124</ele>
  <time>2026-09-01T01:13:59Z</time>
  <course>186.72</course>
  <speed>0.022360679774997897</speed>
  <fix>3d</fix>
</trkpt>
<trkpt lat="33.810313" lon="-118.393867">
  <ele>-0.12</ele>
  <time>2026-09-01T01:13:59Z</time>
  <course>0.0</course>
  <speed>0.0</speed>
  <fix>3d</fix>
</trkpt>
<trkpt lat="33.8103131" lon="-118.3938671">
  <ele>-0.126</ele>
  <time>2026-09-01T01:13:59Z</time>
  <course>186.71</course>
  <speed>0.022360679774997897</speed>
  <fix>3d</fix>
</trkpt>
<trkpt lat="33.810313" lon="-118.393867">
  <ele>-0.12</ele>
  <time>2026-09-01T01:13:59Z</time>
  <course>0.0</course>
  <speed>0.0</speed>
  <fix>3d</fix>
</trkpt>
<trkpt lat="33.8103131" lon="-118.3938671">
  <ele>-0.127</ele>
  <time>2026-09-01T01:13:59Z</time>
  <course>186.71</course>
  <speed>0.022360679774997897</speed>
  <fix>3d</fix>
</trkpt>
<trkpt lat="33.810313" lon="-118.393867">
  <ele>-0.12</ele>
  <time>2026-09-01T01:13:59Z</time>
  <course>0.0</course>
  <speed>0.0</speed>
  <fix>3d</fix>
</trkpt>
<trkpt lat="33.8103131" lon="-118.3938671">
  <ele>-0.128</ele>
  <time>2026-09-01T01:13:59Z</time>
  <course>186.71</course>
  <speed>0.022360679774997897</speed>
  <fix>3d</fix>
</trkpt>
<trkpt lat="33.810313" lon="-118.393867">
  <ele>-0.12</ele>
  <time>2026-09-01T01:13:59Z</time>
  <course>0.0</course>
  <speed>0.0</speed>
  <fix>3d</fix>
</trkpt>
<trkpt lat="33.8103131" lon="-118.3938671">
  <ele>-0.127</ele>
  <time>2026-09-01T01:13:59Z</time>
  <course>186.71</course>
  <speed>0.022360679774997897</speed>
  <fix>3d</fix>
</trkpt>
<trkpt lat="33.810313" lon="-118.393867">
  <ele>-0.12</ele>
  <time>2026-09-01T01:13:59Z</time>
  <course>0.0</course>
  <speed>0.0</speed>
  <fix>3d</fix>
</trkpt>
<trkpt lat="33.8103131" lon="-118.3938671">
  <ele>-0.126</ele>
  <time>2026-09-01T01:13:59Z</time>
  <course>186.7</course>
  <speed>0.022360679774997897</speed>
  <fix>3d</fix>
</trkpt>
<trkpt lat="33.810313" lon="-118.393867">
  <ele>-0.12</ele>
  <time>2026-09-01T01:13:59Z</time>
  <course>0.0</course>
  <speed>0.0</speed>
  <fix>3d</fix>
</trkpt>
<trkpt lat="33.8103131" lon="-118.3938671">
  <ele>-0.125</ele>
  <time>2026-09-01T01:13:59Z</time>
  <course>186.7</course>
  <speed>0.022360679774997897</speed>
  <fix>3d</fix>
</trkpt>
<trkpt lat="33.810313" lon="-118.393867">
  <ele>-0.12</ele>
  <time>2026-09-01T01:13:59Z</time>
  <course>0.0</course>
  <speed>0.0</speed>
  <fix>3d</fix>
</trkpt>
<trkpt lat="33.8103131" lon="-118.3938671">
  <ele>-0.125</ele>
  <time>2026-09-01T01:13:59Z</time>
  <course>186.7</course>
  <speed>0.022360679774997897</speed>
  <fix>3d</fix>
</trkpt>
<trkpt lat="33.810313" lon="-118.393867">
  <ele>-0.12</ele>
  <time>2026-09-01T01:13:59Z</time>
  <course>0.0</course>
  <speed>0.0</speed>
  <fix>3d</fix>
</trkpt>
<trkpt lat="33.8103131" lon="-118.3938671">
  <ele>-0.126</ele>
  <time>2026-09-01T01:13:59Z</time>
  <course>186.7</course>
  <speed>0.022360679774997897</speed>
  <fix>3d</fix>
</trkpt>
<trkpt lat="33.810313" lon="-118.393867">
  <ele>-0.12</ele>
  <time>2026-09-01T01:13:59Z</time>
  <course>0.0</course>
  <speed>0.0</speed>
  <fix>3d</fix>
</trkpt>
<trkpt lat="33.8103131" lon="-118.3938671">
  <ele>-0.128</ele>
  <time>2026-09-01T01:13:59Z</time>
  <course>186.69</course>
  <speed>0.022360679774997897</speed>
  <fix>3d</fix>
</trkpt>
<trkpt lat="33.810313" lon="-118.393867">
  <ele>-0.12</ele>
  <time>2026-09-01T01:13:59Z</time>
  <course>0.0</course>
  <speed>0.0</speed>
  <fix>3d</fix>
</trkpt>
<trkpt lat="33.8103131" lon="-118.3938671">
  <ele>-0.131</ele>
  <time>2026-09-01T01:13:59Z</time>
  <course>186.69</course>
  <speed>0.022360679774997897</speed>
  <fix>3d</fix>
</trkpt>
<trkpt lat="33.810313" lon="-118.393867">
  <ele>-0.12</ele>
  <time>2026-09-01T01:13:59Z</time>
  <course>0.0</course>
  <speed>0.0</speed>
  <fix>3d</fix>
</trkpt>
<trkpt lat="33.8103131" lon="-118.3938671">
  <ele>-0.133</ele>
  <time>2026-09-01T01:13:59Z</time>
  <course>186.69</course>
  <speed>0.022360679774997897</speed>
  <fix>3d</fix>
</trkpt>
<trkpt lat="33.810313" lon="-118.393867">
  <ele>-0.12</ele>
  <time>2026-09-01T01:13:59Z</time>
  <course>0.0</course>
  <speed>0.0</speed>
  <fix>3d</fix>
</trkpt>
<trkpt lat="33.8103131" lon="-118.3938671">
  <ele>-0.133</ele>
  <time>2026-09-01T01:13:59Z</time>
  <course>186.69</course>
  <speed>0.022360679774997897</speed>
  <fix>3d</fix>
</trkpt>
<trkpt lat="33.810313" lon="-118.393867">
  <ele>-0.12</ele>
  <time>2026-09-01T01:13:59Z</time>
  <course>0.0</course>
  <speed>0.0</speed>
  <fix>3d</fix>
</trkpt>
<trkpt lat="33.8103131" lon="-118.3938671">
  <ele>-0.132</ele>
  <time>2026-09-01T01:13:59Z</time>
  <course>186.68</course>
  <speed>0.022360679774997897</speed>
  <fix>3d</fix>
</trkpt>
<trkpt lat="33.810313" lon="-118.393867">
  <ele>-0.12</ele>
  <time>2026-09-01T01:13:59Z</time>
  <course>0.0</course>
  <speed>0.0</speed>
  <fix>3d</fix>
</trkpt>
<trkpt lat="33.8103131" lon="-118.3938671">
  <ele>-0.132</ele>
  <time>2026-09-01T01:13:59Z</time>
  <course>186.68</course>
  <speed>0.022360679774997897</speed>
  <fix>3d</fix>
</trkpt>
<trkpt lat="33.810313" lon="-118.393867">
  <ele>-0.12</ele>
  <time>2026-09-01T01:13:59Z</time>
  <course>0.0</course>
  <speed>0.0</speed>
  <fix>3d</fix>
</trkpt>
<trkpt lat="33.8103131" lon="-118.3938671">
  <ele>-0.131</ele>
  <time>2026-09-01T01:13:59Z</time>
  <course>186.68</course>
  <speed>0.022360679774997897</speed>
  <fix>3d</fix>
</trkpt>
<trkpt lat="33.810313" lon="-118.393867">
  <ele>-0.12</ele>
  <time>2026-09-01T01:13:59Z</time>
  <course>0.0</course>
  <speed>0.0</speed>
  <fix>3d</fix>
</trkpt>
<trkpt lat="33.8103131" lon="-118.3938671">
  <ele>-0.13</ele>
  <time>2026-09-01T01:13:59Z</time>
  <course>186.68</course>
  <speed>0.022360679774997897</speed>
  <fix>3d</fix>
</trkpt>
<trkpt lat="33.810313" lon="-118.393867">
  <ele>-0.12</ele>
  <time>2026-09-01T01:13:59Z</time>
  <course>0.0</course>
  <speed>0.0</speed>
  <fix>3d</fix>
</trkpt>
<trkpt lat="33.8103131" lon="-118.3938671">
  <ele>-0.13</ele>
  <time>2026-09-01T01:13:59Z</time>
  <course>186.67</course>
  <speed>0.022360679774997897</speed>
  <fix>3d</fix>
</trkpt>
<trkpt lat="33.810313" lon="-118.393867">
  <ele>-0.12</ele>
  <time>2026-09-01T01:13:59Z</time>
  <course>0.0</course>
  <speed>0.0</speed>
  <fix>3d</fix>
</trkpt>
<trkpt lat="33.8103131" lon="-118.3938671">
  <ele>-0.13</ele>
  <time>2026-09-01T01:13:59Z</time>
  <course>186.67</course>
  <speed>0.022360679774997897</speed>
  <fix>3d</fix>
</trkpt>
<trkpt lat="33.810313" lon="-118.393867">
  <ele>-0.12</ele>
  <time>2026-09-01T01:13:59Z</time>
  <course>0.0</course>
  <speed>0.0</speed>
  <fix>3d</fix>
</trkpt>
<trkpt lat="33.8103131" lon="-118.3938671">
  <ele>-0.129</ele>
  <time>2026-09-01T01:13:59Z</time>
  <course>186.67</course>
  <speed>0.022360679774997897</speed>
  <fix>3d</fix>
</trkpt>
<trkpt lat="33.810313" lon="-118.393867">
  <ele>-0.12</ele>
  <time>2026-09-01T01:13:59Z</time>
  <course>0.0</course>
  <speed>0.0</speed>
  <fix>3d</fix>
</trkpt>
<trkpt lat="33.8103131" lon="-118.3938671">
  <ele>-0.13</ele>
  <time>2026-09-01T01:13:59Z</time>
  <course>186.67</course>
  <speed>0.022360679774997897</speed>
  <fix>3d</fix>
</trkpt>
<trkpt lat="33.810313" lon="-118.393867">
  <ele>-0.12</ele>
  <time>2026-09-01T01:13:59Z</time>
  <course>0.0</course>
  <speed>0.0</speed>
  <fix>3d</fix>
</trkpt>
<trkpt lat="33.8103131" lon="-118.3938671">
  <ele>-0.13</ele>
  <time>2026-09-01T01:13:59Z</time>
  <course>186.67</course>
  <speed>0.022360679774997897</speed>
  <fix>3d</fix>
</trkpt>
<trkpt lat="33.810313" lon="-118.393867">
  <ele>-0.12</ele>
  <time>2026-09-01T01:13:59Z</time>
  <course>0.0</course>
  <speed>0.0</speed>
  <fix>3d</fix>
</trkpt>
<trkpt lat="33.8103131" lon="-118.3938671">
  <ele>-0.13</ele>
  <time>2026-09-01T01:13:59Z</time>
  <course>186.66</course>
  <speed>0.022360679774997897</speed>
  <fix>3d</fix>
</trkpt>
<trkpt lat="33.810313" lon="-118.393867">
  <ele>-0.12</ele>
  <time>2026-09-01T01:13:59Z</time>
  <course>0.0</course>
  <speed>0.0</speed>
  <fix>3d</fix>
</trkpt>
<trkpt lat="33.8103131" lon="-118.3938671">
  <ele>-0.128</ele>
  <time>2026-09-01T01:13:59Z</time>
  <course>186.66</course>
  <speed>0.022360679774997897</speed>
  <fix>3d</fix>
</trkpt>
<trkpt lat="33.810313" lon="-118.393867">
  <ele>-0.12</ele>
  <time>2026-09-01T01:13:59Z</time>
  <course>0.0</course>
  <speed>0.0</speed>
  <fix>3d</fix>
</trkpt>
<trkpt lat="33.8103131" lon="-118.3938671">
  <ele>-0.127</ele>
  <time>2026-09-01T01:13:59Z</time>
  <course>186.66</course>
  <speed>0.022360679774997897</speed>
  <fix>3d</fix>
</trkpt>
<trkpt lat="33.810313" lon="-118.393867">
  <ele>-0.12</ele>
  <time>2026-09-01T01:13:59Z</time>
  <course>0.0</course>
  <speed>0.0</speed>
  <fix>3d</fix>
</trkpt>
<trkpt lat="33.8103131" lon="-118.3938671">
  <ele>-0.124</ele>
  <time>2026-09-01T01:13:59Z</time>
  <course>186.66</course>
  <speed>0.022360679774997897</speed>
  <fix>3d</fix>
</trkpt>
<trkpt lat="33.810313" lon="-118.393867">
  <ele>-0.12</ele>
  <time>2026-09-01T01:13:59Z</time>
  <course>0.0</course>
  <speed>0.0</speed>
  <fix>3d</fix>
</trkpt>
<trkpt lat="33.8103131" lon="-118.3938671">
  <ele>-0.122</ele>
  <time>2026-09-01T01:13:59Z</time>
  <course>186.65</course>
  <speed>0.022360679774997897</speed>
  <fix>3d</fix>
</trkpt>
<trkpt lat="33.810313" lon="-118.393867">
  <ele>-0.12</ele>
  <time>2026-09-01T01:13:59Z</time>
  <course>0.0</course>
  <speed>0.0</speed>
  <fix>3d</fix>
</trkpt>
<trkpt lat="33.8103131" lon="-118.3938671">
  <ele>-0.121</ele>
  <time>2026-09-01T01:13:59Z</time>
  <course>186.65</course>
  <speed>0.022360679774997897</speed>
  <fix>3d</fix>
</trkpt>
<trkpt lat="33.810313" lon="-118.393867">
  <ele>-0.12</ele>
  <time>2026-09-01T01:13:59Z</time>
  <course>0.0</course>
  <speed>0.0</speed>
  <fix>3d</fix>
</trkpt>
<trkpt lat="33.8103131" lon="-118.3938671">
  <ele>-0.122</ele>
  <time>2026-09-01T01:13:59Z</time>
  <course>186.65</course>
  <speed>0.022360679774997897</speed>
  <fix>3d</fix>
</trkpt>
<trkpt lat="33.810313" lon="-118.393867">
  <ele>-0.12</ele>
  <time>2026-09-01T01:13:59Z</time>
  <course>0.0</course>
  <speed>0.0</speed>
  <fix>3d</fix>
</trkpt>
<trkpt lat="33.8103131" lon="-118.3938671">
  <ele>-0.124</ele>
  <time>2026-09-01T01:13:59Z</time>
  <course>186.65</course>
  <speed>0.022360679774997897</speed>
  <fix>3d</fix>
</trkpt>
<trkpt lat="33.810313" lon="-118.393867">
  <ele>-0.12</ele>
  <time>2026-09-01T01:13:59Z</time>
  <course>0.0</course>
  <speed>0.0</speed>
  <fix>3d</fix>
</trkpt>
<trkpt lat="33.8103131" lon="-118.3938671">
  <ele>-0.126</ele>
  <time>2026-09-01T01:13:59Z</time>
  <course>186.64</course>
  <speed>0.022360679774997897</speed>
  <fix>3d</fix>
</trkpt>
<trkpt lat="33.810313" lon="-118.393867">
  <ele>-0.12</ele>
  <time>2026-09-01T01:13:59Z</time>
  <course>0.0</course>
  <speed>0.0</speed>
  <fix>3d</fix>
</trkpt>
<trkpt lat="33.8103131" lon="-118.3938671">
  <ele>-0.128</ele>
  <time>2026-09-01T01:13:59Z</time>
  <course>186.64</course>
  <speed>0.022360679774997897</speed>
  <fix>3d</fix>
</trkpt>
<trkpt lat="33.810313" lon="-118.393867">
  <ele>-0.12</ele>
  <time>2026-09-01T01:13:59Z</time>
  <course>0.0</course>
  <speed>0.0</speed>
  <fix>3d</fix>
</trkpt>
<trkpt lat="33.8103131" lon="-118.3938671">
  <ele>-0.129</ele>
  <time>2026-09-01T01:13:59Z</time>
  <course>186.64</course>
  <speed>0.022360679774997897</speed>
  <fix>3d</fix>
</trkpt>
<trkpt lat="33.810313" lon="-118.393867">
  <ele>-0.12</ele>
  <time>2026-09-01T01:13:59Z</time>
  <course>0.0</course>
  <speed>0.0</speed>
  <fix>3d</fix>
</trkpt>
<trkpt lat="33.8103131" lon="-118.3938671">
  <ele>-0.129</ele>
  <time>2026-09-01T01:13:59Z</time>
  <course>186.64</course>
  <speed>0.022360679774997897</speed>
  <fix>3d</fix>
</trkpt>
<trkpt lat="33.810313" lon="-118.393867">
  <ele>-0.12</ele>
  <time>2026-09-01T01:13:59Z</time>
  <course>0.0</course>
  <speed>0.0</speed>
  <fix>3d</fix>
</trkpt>
<trkpt lat="33.8103131" lon="-118.3938671">
  <ele>-0.129</ele>
  <time>2026-09-01T01:13:59Z</time>
  <course>186.64</course>
  <speed>0.022360679774997897</speed>
  <fix>3d</fix>
</trkpt>
<trkpt lat="33.810313" lon="-118.393867">
  <ele>-0.12</ele>
  <time>2026-09-01T01:13:59Z</time>
  <course>0.0</course>
  <speed>0.0</speed>
  <fix>3d</fix>
</trkpt>
<trkpt lat="33.8103131" lon="-118.3938671">
  <ele>-0.128</ele>
  <time>2026-09-01T01:13:59Z</time>
  <course>186.63</course>
  <speed>0.022360679774997897</speed>
  <fix>3d</fix>
</trkpt>
<trkpt lat="33.810313" lon="-118.393867">
  <ele>-0.12</ele>
  <time>2026-09-01T01:13:59Z</time>
  <course>0.0</course>
  <speed>0.0</speed>
  <fix>3d</fix>
</trkpt>
<trkpt lat="33.8103131" lon="-118.3938671">
  <ele>-0.127</ele>
  <time>2026-09-01T01:13:59Z</time>
  <course>186.63</course>
  <speed>0.022360679774997897</speed>
  <fix>3d</fix>
</trkpt>
<trkpt lat="33.810313" lon="-118.393867">
  <ele>-0.12</ele>
  <time>2026-09-01T01:13:59Z</time>
  <course>0.0</course>
  <speed>0.0</speed>
  <fix>3d</fix>
</trkpt>
<trkpt lat="33.8103131" lon="-118.3938671">
  <ele>-0.126</ele>
  <time>2026-09-01T01:13:59Z</time>
  <course>186.63</course>
  <speed>0.022360679774997897</speed>
  <fix>3d</fix>
</trkpt>
<trkpt lat="33.810313" lon="-118.393867">
  <ele>-0.12</ele>
  <time>2026-09-01T01:13:59Z</time>
  <course>0.0</course>
  <speed>0.0</speed>
  <fix>3d</fix>
</trkpt>
<trkpt lat="33.8103131" lon="-118.3938671">
  <ele>-0.126</ele>
  <time>2026-09-01T01:13:59Z</time>
  <course>186.63</course>
  <speed>0.022360679774997897</speed>
  <fix>3d</fix>
</trkpt>
<trkpt lat="33.810313" lon="-118.393867">
  <ele>-0.12</ele>
  <time>2026-09-01T01:13:59Z</time>
  <course>0.0</course>
  <speed>0.0</speed>
  <fix>3d</fix>
</trkpt>
<trkpt lat="33.8103131" lon="-118.3938671">
  <ele>-0.126</ele>
  <time>2026-09-01T01:13:59Z</time>
  <course>186.62</course>
  <speed>0.022360679774997897</speed>
  <fix>3d</fix>
</trkpt>
<trkpt lat="33.810313" lon="-118.393867">
  <ele>-0.12</ele>
  <time>2026-09-01T01:13:59Z</time>
  <course>0.0</course>
  <speed>0.0</speed>
  <fix>3d</fix>
</trkpt>
<trkpt lat="33.8103131" lon="-118.3938671">
  <ele>-0.127</ele>
  <time>2026-09-01T01:13:59Z</time>
  <course>186.62</course>
  <speed>0.022360679774997897</speed>
  <fix>3d</fix>
</trkpt>
<trkpt lat="33.810313" lon="-118.393867">
  <ele>-0.12</ele>
  <time>2026-09-01T01:13:59Z</time>
  <course>0.0</course>
  <speed>0.0</speed>
  <fix>3d</fix>
</trkpt>
<trkpt lat="33.8103131" lon="-118.3938671">
  <ele>-0.127</ele>
  <time>2026-09-01T01:13:59Z</time>
  <course>186.62</course>
  <speed>0.022360679774997897</speed>
  <fix>3d</fix>
</trkpt>
<trkpt lat="33.810313" lon="-118.393867">
  <ele>-0.12</ele>
  <time>2026-09-01T01:13:59Z</time>
  <course>0.0</course>
  <speed>0.0</speed>
  <fix>3d</fix>
</trkpt>
<trkpt lat="33.8103131" lon="-118.3938671">
  <ele>-0.127</ele>
  <time>2026-09-01T01:13:59Z</time>
  <course>186.62</course>
  <speed>0.022360679774997897</speed>
  <fix>3d</fix>
</trkpt>
<trkpt lat="33.810313" lon="-118.393867">
  <ele>-0.12</ele>
  <time>2026-09-01T01:13:59Z</time>
  <course>0.0</course>
  <speed>0.0</speed>
  <fix>3d</fix>
</trkpt>
<trkpt lat="33.8103131" lon="-118.3938671">
  <ele>-0.127</ele>
  <time>2026-09-01T01:13:59Z</time>
  <course>186.62</course>
  <speed>0.022360679774997897</speed>
  <fix>3d</fix>
</trkpt>
<trkpt lat="33.810313" lon="-118.393867">
  <ele>-0.12</ele>
  <time>2026-09-01T01:13:59Z</time>
  <course>0.0</course>
  <speed>0.0</speed>
  <fix>3d</fix>
</trkpt>
<trkpt lat="33.8103131" lon="-118.3938671">
  <ele>-0.127</ele>
  <time>2026-09-01T01:13:59Z</time>
  <course>186.61</course>
  <speed>0.022360679774997897</speed>
  <fix>3d</fix>
</trkpt>
<trkpt lat="33.810313" lon="-118.393867">
  <ele>-0.12</ele>
  <time>2026-09-01T01:13:59Z</time>
  <course>0.0</course>
  <speed>0.0</speed>
  <fix>3d</fix>
</trkpt>
<trkpt lat="33.8103131" lon="-118.3938671">
  <ele>-0.126</ele>
  <time>2026-09-01T01:13:59Z</time>
  <course>186.61</course>
  <speed>0.022360679774997897</speed>
  <fix>3d</fix>
</trkpt>
<trkpt lat="33.810313" lon="-118.393867">
  <ele>-0.12</ele>
  <time>2026-09-01T01:13:59Z</time>
  <course>0.0</course>
  <speed>0.0</speed>
  <fix>3d</fix>
</trkpt>
<trkpt lat="33.8103131" lon="-118.3938671">
  <ele>-0.125</ele>
  <time>2026-09-01T01:13:59Z</time>
  <course>186.61</course>
  <speed>0.022360679774997897</speed>
  <fix>3d</fix>
</trkpt>
<trkpt lat="33.810313" lon="-118.393867">
  <ele>-0.12</ele>
  <time>2026-09-01T01:13:59Z</time>
  <course>0.0</course>
  <speed>0.0</speed>
  <fix>3d</fix>
</trkpt>
<trkpt lat="33.8103131" lon="-118.3938671">
  <ele>-0.125</ele>
  <time>2026-09-01T01:13:59Z</time>
  <course>186.61</course>
  <speed>0.022360679774997897</speed>
  <fix>3d</fix>
</trkpt>
<trkpt lat="33.810313" lon="-118.393867">
  <ele>-0.12</ele>
  <time>2026-09-01T01:13:59Z</time>
  <course>0.0</course>
  <speed>0.0</speed>
  <fix>3d</fix>
</trkpt>
<trkpt lat="33.8103131" lon="-118.3938671">
  <ele>-0.124</ele>
  <time>2026-09-01T01:13:59Z</time>
  <course>186.6</course>
  <speed>0.022360679774997897</speed>
  <fix>3d</fix>
</trkpt>
<trkpt lat="33.810313" lon="-118.393867">
  <ele>-0.12</ele>
  <time>2026-09-01T01:13:59Z</time>
  <course>0.0</course>
  <speed>0.0</speed>
  <fix>3d</fix>
</trkpt>
<trkpt lat="33.8103131" lon="-118.3938671">
  <ele>-0.125</ele>
  <time>2026-09-01T01:13:59Z</time>
  <course>186.6</course>
  <speed>0.022360679774997897</speed>
  <fix>3d</fix>
</trkpt>
<trkpt lat="33.810313" lon="-118.393867">
  <ele>-0.12</ele>
  <time>2026-09-01T01:13:59Z</time>
  <course>0.0</course>
  <speed>0.0</speed>
  <fix>3d</fix>
</trkpt>
<trkpt lat="33.8103131" lon="-118.3938671">
  <ele>-0.126</ele>
  <time>2026-09-01T01:13:59Z</time>
  <course>186.6</course>
  <speed>0.022360679774997897</speed>
  <fix>3d</fix>
</trkpt>
<trkpt lat="33.810313" lon="-118.393867">
  <ele>-0.12</ele>
  <time>2026-09-01T01:13:59Z</time>
  <course>0.0</course>
  <speed>0.0</speed>
  <fix>3d</fix>
</trkpt>
<trkpt lat="33.8103131" lon="-118.3938671">
  <ele>-0.128</ele>
  <time>2026-09-01T01:13:59Z</time>
  <course>186.6</course>
  <speed>0.022360679774997897</speed>
  <fix>3d</fix>
</trkpt>
<trkpt lat="33.810313" lon="-118.393867">
  <ele>-0.12</ele>
  <time>2026-09-01T01:13:59Z</time>
  <course>0.0</course>
  <speed>0.0</speed>
  <fix>3d</fix>
</trkpt>
<trkpt lat="33.8103131" lon="-118.3938671">
  <ele>-0.13</ele>
  <time>2026-09-01T01:13:59Z</time>
  <course>186.6</course>
  <speed>0.022360679774997897</speed>
  <fix>3d</fix>
</trkpt>
<trkpt lat="33.810313" lon="-118.393867">
  <ele>-0.12</ele>
  <time>2026-09-01T01:13:59Z</time>
  <course>0.0</course>
  <speed>0.0</speed>
  <fix>3d</fix>
</trkpt>
<trkpt lat="33.8103131" lon="-118.3938671">
  <ele>-0.132</ele>
  <time>2026-09-01T01:13:59Z</time>
  <course>186.59</course>
  <speed>0.022360679774997897</speed>
  <fix>3d</fix>
</trkpt>
<trkpt lat="33.810313" lon="-118.393867">
  <ele>-0.12</ele>
  <time>2026-09-01T01:13:59Z</time>
  <course>0.0</course>
  <speed>0.0</speed>
  <fix>3d</fix>
</trkpt>
<trkpt lat="33.8103131" lon="-118.3938671">
  <ele>-0.132</ele>
  <time>2026-09-01T01:13:59Z</time>
  <course>186.59</course>
  <speed>0.022360679774997897</speed>
  <fix>3d</fix>
</trkpt>
<trkpt lat="33.810313" lon="-118.393867">
  <ele>-0.12</ele>
  <time>2026-09-01T01:13:59Z</time>
  <course>0.0</course>
  <speed>0.0</speed>
  <fix>3d</fix>
</trkpt>
<trkpt lat="33.8103131" lon="-118.3938671">
  <ele>-0.132</ele>
  <time>2026-09-01T01:13:59Z</time>
  <course>186.59</course>
  <speed>0.022360679774997897</speed>
  <fix>3d</fix>
</trkpt>
<trkpt lat="33.810313" lon="-118.393867">
  <ele>-0.12</ele>
  <time>2026-09-01T01:13:59Z</time>
  <course>0.0</course>
  <speed>0.0</speed>
  <fix>3d</fix>
</trkpt>
<trkpt lat="33.8103131" lon="-118.3938671">
  <ele>-0.13</ele>
  <time>2026-09-01T01:13:59Z</time>
  <course>186.59</course>
  <speed>0.022360679774997897</speed>
  <fix>3d</fix>
</trkpt>
<trkpt lat="33.810313" lon="-118.393867">
  <ele>-0.12</ele>
  <time>2026-09-01T01:13:59Z</time>
  <course>0.0</course>
  <speed>0.0</speed>
  <fix>3d</fix>
</trkpt>
<trkpt lat="33.8103131" lon="-118.3938671">
  <ele>-0.129</ele>
  <time>2026-09-01T01:13:59Z</time>
  <course>186.59</course>
  <speed>0.022360679774997897</speed>
  <fix>3d</fix>
</trkpt>
<trkpt lat="33.810313" lon="-118.393867">
  <ele>-0.12</ele>
  <time>2026-09-01T01:13:59Z</time>
  <course>0.0</course>
  <speed>0.0</speed>
  <fix>3d</fix>
</trkpt>
<trkpt lat="33.8103131" lon="-118.3938671">
  <ele>-0.129</ele>
  <time>2026-09-01T01:13:59Z</time>
  <course>186.58</course>
  <speed>0.022360679774997897</speed>
  <fix>3d</fix>
</trkpt>
<trkpt lat="33.810313" lon="-118.393867">
  <ele>-0.12</ele>
  <time>2026-09-01T01:13:59Z</time>
  <course>0.0</course>
  <speed>0.0</speed>
  <fix>3d</fix>
</trkpt>
<trkpt lat="33.8103131" lon="-118.3938671">
  <ele>-0.13</ele>
  <time>2026-09-01T01:13:59Z</time>
  <course>186.58</course>
  <speed>0.022360679774997897</speed>
  <fix>3d</fix>
</trkpt>
<trkpt lat="33.810313" lon="-118.393867">
  <ele>-0.12</ele>
  <time>2026-09-01T01:13:59Z</time>
  <course>0.0</course>
  <speed>0.0</speed>
  <fix>3d</fix>
</trkpt>
<trkpt lat="33.8103131" lon="-118.3938671">
  <ele>-0.132</ele>
  <time>2026-09-01T01:13:59Z</time>
  <course>186.58</course>
  <speed>0.022360679774997897</speed>
  <fix>3d</fix>
</trkpt>
<trkpt lat="33.810313" lon="-118.393867">
  <ele>-0.12</ele>
  <time>2026-09-01T01:13:59Z</time>
  <course>0.0</course>
  <speed>0.0</speed>
  <fix>3d</fix>
</trkpt>
<trkpt lat="33.8103131" lon="-118.3938671">
  <ele>-0.133</ele>
  <time>2026-09-01T01:13:59Z</time>
  <course>186.58</course>
  <speed>0.022360679774997897</speed>
  <fix>3d</fix>
</trkpt>
<trkpt lat="33.810313" lon="-118.393867">
  <ele>-0.12</ele>
  <time>2026-09-01T01:13:59Z</time>
  <course>0.0</course>
  <speed>0.0</speed>
  <fix>3d</fix>
</trkpt>
<trkpt lat="33.8103131" lon="-118.3938671">
  <ele>-0.133</ele>
  <time>2026-09-01T01:13:59Z</time>
  <course>186.58</course>
  <speed>0.022360679774997897</speed>
  <fix>3d</fix>
</trkpt>
<trkpt lat="33.810313" lon="-118.393867">
  <ele>-0.12</ele>
  <time>2026-09-01T01:13:59Z</time>
  <course>0.0</course>
  <speed>0.0</speed>
  <fix>3d</fix>
</trkpt>
<trkpt lat="33.8103131" lon="-118.3938671">
  <ele>-0.132</ele>
  <time>2026-09-01T01:13:59Z</time>
  <course>186.57</course>
  <speed>0.022360679774997897</speed>
  <fix>3d</fix>
</trkpt>
<trkpt lat="33.810313" lon="-118.393867">
  <ele>-0.12</ele>
  <time>2026-09-01T01:13:59Z</time>
  <course>0.0</course>
  <speed>0.0</speed>
  <fix>3d</fix>
</trkpt>
<trkpt lat="33.8103131" lon="-118.3938671">
  <ele>-0.131</ele>
  <time>2026-09-01T01:13:59Z</time>
  <course>186.57</course>
  <speed>0.022360679774997897</speed>
  <fix>3d</fix>
</trkpt>
<trkpt lat="33.810313" lon="-118.393867">
  <ele>-0.12</ele>
  <time>2026-09-01T01:13:59Z</time>
  <course>0.0</course>
  <speed>0.0</speed>
  <fix>3d</fix>
</trkpt>
<trkpt lat="33.8103131" lon="-118.3938671">
  <ele>-0.128</ele>
  <time>2026-09-01T01:13:59Z</time>
  <course>186.57</course>
  <speed>0.022360679774997897</speed>
  <fix>3d</fix>
</trkpt>
<trkpt lat="33.810313" lon="-118.393867">
  <ele>-0.12</ele>
  <time>2026-09-01T01:13:59Z</time>
  <course>0.0</course>
  <speed>0.0</speed>
  <fix>3d</fix>
</trkpt>
<trkpt lat="33.8103131" lon="-118.3938671">
  <ele>-0.125</ele>
  <time>2026-09-01T01:13:59Z</time>
  <course>186.57</course>
  <speed>0.022360679774997897</speed>
  <fix>3d</fix>
</trkpt>
<trkpt lat="33.810313" lon="-118.393867">
  <ele>-0.12</ele>
  <time>2026-09-01T01:13:59Z</time>
  <course>0.0</course>
  <speed>0.0</speed>
  <fix>3d</fix>
</trkpt>
<trkpt lat="33.8103131" lon="-118.3938671">
  <ele>-0.124</ele>
  <time>2026-09-01T01:13:59Z</time>
  <course>186.57</course>
  <speed>0.022360679774997897</speed>
  <fix>3d</fix>
</trkpt>
<trkpt lat="33.810313" lon="-118.393867">
  <ele>-0.12</ele>
  <time>2026-09-01T01:13:59Z</time>
  <course>0.0</course>
  <speed>0.0</speed>
  <fix>3d</fix>
</trkpt>
<trkpt lat="33.8103131" lon="-118.3938671">
  <ele>-0.125</ele>
  <time>2026-09-01T01:13:59Z</time>
  <course>186.56</course>
  <speed>0.022360679774997897</speed>
  <fix>3d</fix>
</trkpt>
<trkpt lat="33.810313" lon="-118.393867">
  <ele>-0.12</ele>
  <time>2026-09-01T01:13:59Z</time>
  <course>0.0</course>
  <speed>0.0</speed>
  <fix>3d</fix>
</trkpt>
<trkpt lat="33.8103131" lon="-118.3938671">
  <ele>-0.126</ele>
  <time>2026-09-01T01:13:59Z</time>
  <course>186.56</course>
  <speed>0.022360679774997897</speed>
  <fix>3d</fix>
</trkpt>
<trkpt lat="33.810313" lon="-118.393867">
  <ele>-0.12</ele>
  <time>2026-09-01T01:13:59Z</time>
  <course>0.0</course>
  <speed>0.0</speed>
  <fix>3d</fix>
</trkpt>
<trkpt lat="33.8103131" lon="-118.3938671">
  <ele>-0.126</ele>
  <time>2026-09-01T01:13:59Z</time>
  <course>186.56</course>
  <speed>0.022360679774997897</speed>
  <fix>3d</fix>
</trkpt>
<trkpt lat="33.810313" lon="-118.393867">
  <ele>-0.12</ele>
  <time>2026-09-01T01:13:59Z</time>
  <course>0.0</course>
  <speed>0.0</speed>
  <fix>3d</fix>
</trkpt>
<trkpt lat="33.8103131" lon="-118.3938671">
  <ele>-0.127</ele>
  <time>2026-09-01T01:13:59Z</time>
  <course>186.56</course>
  <speed>0.022360679774997897</speed>
  <fix>3d</fix>
</trkpt>
<trkpt lat="33.810313" lon="-118.393867">
  <ele>-0.12</ele>
  <time>2026-09-01T01:13:59Z</time>
  <course>0.0</course>
  <speed>0.0</speed>
  <fix>3d</fix>
</trkpt>
<trkpt lat="33.8103131" lon="-118.3938671">
  <ele>-0.127</ele>
  <time>2026-09-01T01:13:59Z</time>
  <course>186.56</course>
  <speed>0.022360679774997897</speed>
  <fix>3d</fix>
</trkpt>
<trkpt lat="33.810313" lon="-118.393867">
  <ele>-0.12</ele>
  <time>2026-09-01T01:13:59Z</time>
  <course>0.0</course>
  <speed>0.0</speed>
  <fix>3d</fix>
</trkpt>
<trkpt lat="33.4368002" lon="-117.0859339">
  <ele>-0.11</ele>
  <time>2026-09-01T01:14:00Z</time>
  <course>0.0</course>
  <speed>0.0</speed>
  <fix>3d</fix>
</trkpt>
<trkpt lat="33.4368002" lon="-117.0859339">
  <ele>-0.11</ele>
  <time>2026-09-01T01:14:00Z</time>
  <course>0.0</course>
  <speed>0.0</speed>
  <fix>3d</fix>
</trkpt>
<trkpt lat="33.810313" lon="-118.393867">
  <ele>0.0</ele>
  <time>2026-09-01T01:14:00Z</time>
  <course>173.5</course>
  <speed>0.0</speed>
  <fix>3d</fix>
</trkpt>
<trkpt lat="33.810313" lon="-118.393867">
  <ele>-0.11</ele>
  <time>2026-09-01T01:14:00Z</time>
  <course>0.0</course>
  <speed>0.0</speed>
  <fix>3d</fix>
</trkpt>
<trkpt lat="33.810313" lon="-118.393867">
  <ele>0.0</ele>
  <time>2026-09-01T01:14:00Z</time>
  <course>173.64</course>
  <speed>0.0</speed>
  <fix>3d</fix>
</trkpt>
<trkpt lat="33.810313" lon="-118.393867">
  <ele>-0.11</ele>
  <time>2026-09-01T01:14:00Z</time>
  <course>0.0</course>
  <speed>0.0</speed>
  <fix>3d</fix>
</trkpt>
<trkpt lat="33.810313" lon="-118.393867">
  <ele>0.0</ele>
  <time>2026-09-01T01:14:00Z</time>
  <course>174.03</course>
  <speed>0.0</speed>
  <fix>3d</fix>
</trkpt>
<trkpt lat="33.810313" lon="-118.393867">
  <ele>-0.11</ele>
  <time>2026-09-01T01:14:00Z</time>
  <course>0.0</course>
  <speed>0.0</speed>
  <fix>3d</fix>
</trkpt>
<trkpt lat="33.810313" lon="-118.393867">
  <ele>0.0</ele>
  <time>2026-09-01T01:14:00Z</time>
  <course>174.57</course>
  <speed>0.0</speed>
  <fix>3d</fix>
</trkpt>
<trkpt lat="33.810313" lon="-118.393867">
  <ele>-0.11</ele>
  <time>2026-09-01T01:14:00Z</time>
  <course>0.0</course>
  <speed>0.0</speed>
  <fix>3d</fix>
</trkpt>
<trkpt lat="33.810313" lon="-118.393867">
  <ele>0.0</ele>
  <time>2026-09-01T01:14:00Z</time>
  <course>175.13</course>
  <speed>0.0</speed>
  <fix>3d</fix>
</trkpt>
<trkpt lat="33.810313" lon="-118.393867">
  <ele>-0.12</ele>
  <time>2026-09-01T01:14:00Z</time>
  <course>0.0</course>
  <speed>0.0</speed>
  <fix>3d</fix>
</trkpt>
<trkpt lat="33.810313" lon="-118.393867">
  <ele>0.0</ele>
  <time>2026-09-01T01:14:00Z</time>
  <course>175.66</course>
  <speed>0.0</speed>
  <fix>3d</fix>
</trkpt>
<trkpt lat="33.810313" lon="-118.393867">
  <ele>-0.12</ele>
  <time>2026-09-01T01:14:00Z</time>
  <course>0.0</course>
  <speed>0.0</speed>
  <fix>3d</fix>
</trkpt>
<trkpt lat="33.810313" lon="-118.393867">
  <ele>0.0</ele>
  <time>2026-09-01T01:14:00Z</time>
  <course>176.17</course>
  <speed>0.0</speed>
  <fix>3d</fix>
</trkpt>
<trkpt lat="33.810313" lon="-118.393867">
  <ele>-0.13</ele>
  <time>2026-09-01T01:14:00Z</time>
  <course>0.0</course>
  <speed>0.0</speed>
  <fix>3d</fix>
</trkpt>
<trkpt lat="33.810313" lon="-118.393867">
  <ele>0.0</ele>
  <time>2026-09-01T01:14:00Z</time>
  <course>176.65</course>
  <speed>0.0</speed>
  <fix>3d</fix>
</trkpt>
<trkpt lat="33.810313" lon="-118.393867">
  <ele>-0.13</ele>
  <time>2026-09-01T01:14:00Z</time>
  <course>0.0</course>
  <speed>0.0</speed>
  <fix>3d</fix>
</trkpt>
<trkpt lat="33.810313" lon="-118.393867">
  <ele>0.0</ele>
  <time>2026-09-01T01:14:00Z</time>
  <course>177.12</course>
  <speed>0.0</speed>
  <fix>3d</fix>
</trkpt>
<trkpt lat="33.810313" lon="-118.393867">
  <ele>-0.13</ele>
  <time>2026-09-01T01:14:00Z</time>
  <course>0.0</course>
  <speed>0.0</speed>
  <fix>3d</fix>
</trkpt>
<trkpt lat="33.810313" lon="-118.393867">
  <ele>0.0</ele>
  <time>2026-09-01T01:14:00Z</time>
  <course>177.57</course>
  <speed>0.0</speed>
  <fix>3d</fix>
</trkpt>
<trkpt lat="33.810313" lon="-118.393867">
  <ele>-0.13</ele>
  <time>2026-09-01T01:14:00Z</time>
  <course>0.0</course>
  <speed>0.0</speed>
  <fix>3d</fix>
</trkpt>
<trkpt lat="33.810313" lon="-118.393867">
  <ele>0.0</ele>
  <time>2026-09-01T01:14:00Z</time>
  <course>178.01</course>
  <speed>0.0</speed>
  <fix>3d</fix>
</trkpt>
<trkpt lat="33.810313" lon="-118.393867">
  <ele>-0.14</ele>
  <time>2026-09-01T01:14:00Z</time>
  <course>0.0</course>
  <speed>0.0</speed>
  <fix>3d</fix>
</trkpt>
<trkpt lat="33.810313" lon="-118.393867">
  <ele>0.0</ele>
  <time>2026-09-01T01:14:00Z</time>
  <course>178.44</course>
  <speed>0.0</speed>
  <fix>3d</fix>
</trkpt>
<trkpt lat="33.810313" lon="-118.393867">
  <ele>-0.14</ele>
  <time>2026-09-01T01:14:00Z</time>
  <course>0.0</course>
  <speed>0.0</speed>
  <fix>3d</fix>
</trkpt>
<trkpt lat="33.810313" lon="-118.393867">
  <ele>0.0</ele>
  <time>2026-09-01T01:14:00Z</time>
  <course>178.86</course>
  <speed>0.0</speed>
  <fix>3d</fix>
</trkpt>
<trkpt lat="33.810313" lon="-118.393867">
  <ele>-0.14</ele>
  <time>2026-09-01T01:14:00Z</time>
  <course>0.0</course>
  <speed>0.0</speed>
  <fix>3d</fix>
</trkpt>
<trkpt lat="33.810313" lon="-118.393867">
  <ele>0.0</ele>
  <time>2026-09-01T01:14:00Z</time>
  <course>179.26</course>
  <speed>0.0</speed>
  <fix>3d</fix>
</trkpt>
<trkpt lat="33.810313" lon="-118.393867">
  <ele>-0.14</ele>
  <time>2026-09-01T01:14:00Z</time>
  <course>0.0</course>
  <speed>0.0</speed>
  <fix>3d</fix>
</trkpt>
<trkpt lat="33.810313" lon="-118.393867">
  <ele>0.0</ele>
  <time>2026-09-01T01:14:00Z</time>
  <course>179.65</course>
  <speed>0.0</speed>
  <fix>3d</fix>
</trkpt>
<trkpt lat="33.810313" lon="-118.393867">
  <ele>-0.14</ele>
  <time>2026-09-01T01:14:00Z</time>
  <course>0.0</course>
  <speed>0.0</speed>
  <fix>3d</fix>
</trkpt>
<trkpt lat="33.810313" lon="-118.393867">
  <ele>0.0</ele>
  <time>2026-09-01T01:14:00Z</time>
  <course>180.04</course>
  <speed>0.0</speed>
  <fix>3d</fix>
</trkpt>
<trkpt lat="33.810313" lon="-118.393867">
  <ele>-0.14</ele>
  <time>2026-09-01T01:14:00Z</time>
  <course>0.0</course>
  <speed>0.0</speed>
  <fix>3d</fix>
</trkpt>
<trkpt lat="33.810313" lon="-118.393867">
  <ele>0.0</ele>
  <time>2026-09-01T01:14:00Z</time>
  <course>180.4</course>
  <speed>0.0</speed>
  <fix>3d</fix>
</trkpt>
<trkpt lat="33.810313" lon="-118.393867">
  <ele>-0.14</ele>
  <time>2026-09-01T01:14:00Z</time>
  <course>0.0</course>
  <speed>0.0</speed>
  <fix>3d</fix>
</trkpt>
<trkpt lat="33.810313" lon="-118.393867">
  <ele>0.0</ele>
  <time>2026-09-01T01:14:00Z</time>
  <course>180.76</course>
  <speed>0.0</speed>
  <fix>3d</fix>
</trkpt>
<trkpt lat="33.810313" lon="-118.393867">
  <ele>-0.14</ele>
  <time>2026-09-01T01:14:00Z</time>
  <course>0.0</course>
  <speed>0.0</speed>
  <fix>3d</fix>
</trkpt>
<trkpt lat="33.810313" lon="-118.393867">
  <ele>0.0</ele>
  <time>2026-09-01T01:14:00Z</time>
  <course>181.09</course>
  <speed>0.0</speed>
  <fix>3d</fix>
</trkpt>
<trkpt lat="33.810313" lon="-118.393867">
  <ele>-0.13</ele>
  <time>2026-09-01T01:14:00Z</time>
  <course>0.0</course>
  <speed>0.0</speed>
  <fix>3d</fix>
</trkpt>
<trkpt lat="33.810313" lon="-118.393867">
  <ele>0.0</ele>
  <time>2026-09-01T01:14:00Z</time>
  <course>181.42</course>
  <speed>0.0</speed>
  <fix>3d</fix>
</trkpt>
<trkpt lat="33.810313" lon="-118.393867">
  <ele>-0.13</ele>
  <time>2026-09-01T01:14:00Z</time>
  <course>0.0</course>
  <speed>0.0</speed>
  <fix>3d</fix>
</trkpt>
<trkpt lat="33.810313" lon="-118.393867">
  <ele>0.0</ele>
  <time>2026-09-01T01:14:00Z</time>
  <course>181.74</course>
  <speed>0.0</speed>
  <fix>3d</fix>
</trkpt>
<trkpt lat="33.810313" lon="-118.393867">
  <ele>-0.12</ele>
  <time>2026-09-01T01:14:00Z</time>
  <course>0.0</course>
  <speed>0.0</speed>
  <fix>3d</fix>
</trkpt>
<trkpt lat="33.810313" lon="-118.393867">
  <ele>0.0</ele>
  <time>2026-09-01T01:14:00Z</time>
  <course>182.04</course>
  <speed>0.0</speed>
  <fix>3d</fix>
</trkpt>
<trkpt lat="33.810313" lon="-118.393867">
  <ele>-0.12</ele>
  <time>2026-09-01T01:14:00Z</time>
  <course>0.0</course>
  <speed>0.0</speed>
  <fix>3d</fix>
</trkpt>
<trkpt lat="33.810313" lon="-118.393867">
  <ele>0.0</ele>
  <time>2026-09-01T01:14:00Z</time>
  <course>182.33</course>
  <speed>0.0</speed>
  <fix>3d</fix>
</trkpt>
<trkpt lat="33.810313" lon="-118.393867">
  <ele>-0.12</ele>
  <time>2026-09-01T01:14:00Z</time>
  <course>0.0</course>
  <speed>0.0</speed>
  <fix>3d</fix>
</trkpt>
<trkpt lat="33.810313" lon="-118.393867">
  <ele>0.0</ele>
  <time>2026-09-01T01:14:00Z</time>
  <course>182.62</course>
  <speed>0.0</speed>
  <fix>3d</fix>
</trkpt>
<trkpt lat="33.810313" lon="-118.393867">
  <ele>-0.12</ele>
  <time>2026-09-01T01:14:00Z</time>
  <course>0.0</course>
  <speed>0.0</speed>
  <fix>3d</fix>
</trkpt>
<trkpt lat="33.810313" lon="-118.393867">
  <ele>0.0</ele>
  <time>2026-09-01T01:14:00Z</time>
  <course>182.89</course>
  <speed>0.0</speed>
  <fix>3d</fix>
</trkpt>
<trkpt lat="33.810313" lon="-118.393867">
  <ele>-0.11</ele>
  <time>2026-09-01T01:14:00Z</time>
  <course>0.0</course>
  <speed>0.0</speed>
  <fix>3d</fix>
</trkpt>
<trkpt lat="33.810313" lon="-118.393867">
  <ele>0.0</ele>
  <time>2026-09-01T01:14:00Z</time>
  <course>183.15</course>
  <speed>0.0</speed>
  <fix>3d</fix>
</trkpt>
<trkpt lat="33.810313" lon="-118.393867">
  <ele>-0.11</ele>
  <time>2026-09-01T01:14:00Z</time>
  <course>0.0</course>
  <speed>0.0</speed>
  <fix>3d</fix>
</trkpt>
<trkpt lat="33.810313" lon="-118.393867">
  <ele>0.0</ele>
  <time>2026-09-01T01:14:00Z</time>
  <course>183.4</course>
  <speed>0.0</speed>
  <fix>3d</fix>
</trkpt>
<trkpt lat="33.810313" lon="-118.393867">
  <ele>-0.11</ele>
  <time>2026-09-01T01:14:00Z</time>
  <course>0.0</course>
  <speed>0.0</speed>
  <fix>3d</fix>
</trkpt>
<trkpt lat="33.810313" lon="-118.393867">
  <ele>0.0</ele>
  <time>2026-09-01T01:14:00Z</time>
  <course>183.64</course>
  <speed>0.0</speed>
  <fix>3d</fix>
</trkpt>
<trkpt lat="33.810313" lon="-118.393867">
  <ele>-0.11</ele>
  <time>2026-09-01T01:14:00Z</time>
  <course>0.0</course>
  <speed>0.0</speed>
  <fix>3d</fix>
</trkpt>
<trkpt lat="33.810313" lon="-118.393867">
  <ele>0.0</ele>
  <time>2026-09-01T01:14:00Z</time>
  <course>183.87</course>
  <speed>0.0</speed>
  <fix>3d</fix>
</trkpt>
<trkpt lat="33.810313" lon="-118.393867">
  <ele>-0.12</ele>
  <time>2026-09-01T01:14:00Z</time>
  <course>0.0</course>
  <speed>0.0</speed>
  <fix>3d</fix>
</trkpt>
<trkpt lat="33.810313" lon="-118.393867">
  <ele>0.0</ele>
  <time>2026-09-01T01:14:00Z</time>
  <course>184.09</course>
  <speed>0.0</speed>
  <fix>3d</fix>
</trkpt>
<trkpt lat="33.810313" lon="-118.393867">
  <ele>-0.12</ele>
  <time>2026-09-01T01:14:00Z</time>
  <course>0.0</course>
  <speed>0.0</speed>
  <fix>3d</fix>
</trkpt>
<trkpt lat="33.810313" lon="-118.393867">
  <ele>0.0</ele>
  <time>2026-09-01T01:14:00Z</time>
  <course>184.3</course>
  <speed>0.0</speed>
  <fix>3d</fix>
</trkpt>
<trkpt lat="33.810313" lon="-118.393867">
  <ele>-0.13</ele>
  <time>2026-09-01T01:14:00Z</time>
  <course>0.0</course>
  <speed>0.0</speed>
  <fix>3d</fix>
</trkpt>
<trkpt lat="33.810313" lon="-118.393867">
  <ele>0.0</ele>
  <time>2026-09-01T01:14:00Z</time>
  <course>184.51</course>
  <speed>0.0</speed>
  <fix>3d</fix>
</trkpt>
<trkpt lat="33.810313" lon="-118.393867">
  <ele>-0.13</ele>
  <time>2026-09-01T01:14:00Z</time>
  <course>0.0</course>
  <speed>0.0</speed>
  <fix>3d</fix>
</trkpt>
<trkpt lat="33.810313" lon="-118.393867">
  <ele>0.0</ele>
  <time>2026-09-01T01:14:00Z</time>
  <course>184.7</course>
  <speed>0.0</speed>
  <fix>3d</fix>
</trkpt>
<trkpt lat="33.810313" lon="-118.393867">
  <ele>-0.13</ele>
  <time>2026-09-01T01:14:00Z</time>
  <course>0.0</course>
  <speed>0.0</speed>
  <fix>3d</fix>
</trkpt>
<trkpt lat="33.810313" lon="-118.393867">
  <ele>0.0</ele>
  <time>2026-09-01T01:14:00Z</time>
  <course>184.89</course>
  <speed>0.0</speed>
  <fix>3d</fix>
</trkpt>
<trkpt lat="33.810313" lon="-118.393867">
  <ele>-0.13</ele>
  <time>2026-09-01T01:14:00Z</time>
  <course>0.0</course>
  <speed>0.0</speed>
  <fix>3d</fix>
</trkpt>
<trkpt lat="33.810313" lon="-118.393867">
  <ele>0.0</ele>
  <time>2026-09-01T01:14:00Z</time>
  <course>185.07</course>
  <speed>0.0</speed>
  <fix>3d</fix>
</trkpt>
<trkpt lat="33.810313" lon="-118.393867">
  <ele>-0.14</ele>
  <time>2026-09-01T01:14:00Z</time>
  <course>0.0</course>
  <speed>0.0</speed>
  <fix>3d</fix>
</trkpt>
<trkpt lat="33.810313" lon="-118.393867">
  <ele>0.0</ele>
  <time>2026-09-01T01:14:00Z</time>
  <course>185.24</course>
  <speed>0.0</speed>
  <fix>3d</fix>
</trkpt>
<trkpt lat="33.810313" lon="-118.393867">
  <ele>-0.14</ele>
  <time>2026-09-01T01:14:00Z</time>
  <course>0.0</course>
  <speed>0.0</speed>
  <fix>3d</fix>
</trkpt>
<trkpt lat="33.810313" lon="-118.393867">
  <ele>0.0</ele>
  <time>2026-09-01T01:14:00Z</time>
  <course>185.4</course>
  <speed>0.0</speed>
  <fix>3d</fix>
</trkpt>
<trkpt lat="33.810313" lon="-118.393867">
  <ele>-0.13</ele>
  <time>2026-09-01T01:14:00Z</time>
  <course>0.0</course>
  <speed>0.0</speed>
  <fix>3d</fix>
</trkpt>
<trkpt lat="33.810313" lon="-118.393867">
  <ele>0.0</ele>
  <time>2026-09-01T01:14:00Z</time>
  <course>185.56</course>
  <speed>0.0</speed>
  <fix>3d</fix>
</trkpt>
<trkpt lat="33.810313" lon="-118.393867">
  <ele>-0.13</ele>
  <time>2026-09-01T01:14:00Z</time>
  <course>0.0</course>
  <speed>0.0</speed>
  <fix>3d</fix>
</trkpt>
<trkpt lat="33.810313" lon="-118.393867">
  <ele>0.0</ele>
  <time>2026-09-01T01:14:00Z</time>
  <course>185.71</course>
  <speed>0.0</speed>
  <fix>3d</fix>
</trkpt>
<trkpt lat="33.810313" lon="-118.393867">
  <ele>-0.13</ele>
  <time>2026-09-01T01:14:00Z</time>
  <course>0.0</course>
  <speed>0.0</speed>
  <fix>3d</fix>
</trkpt>
<trkpt lat="33.810313" lon="-118.393867">
  <ele>0.0</ele>
  <time>2026-09-01T01:14:00Z</time>
  <course>185.85</course>
  <speed>0.0</speed>
  <fix>3d</fix>
</trkpt>
<trkpt lat="33.810313" lon="-118.393867">
  <ele>-0.13</ele>
  <time>2026-09-01T01:14:00Z</time>
  <course>0.0</course>
  <speed>0.0</speed>
  <fix>3d</fix>
</trkpt>
<trkpt lat="33.810313" lon="-118.393867">
  <ele>0.0</ele>
  <time>2026-09-01T01:14:00Z</time>
  <course>185.99</course>
  <speed>0.0</speed>
  <fix>3d</fix>
</trkpt>
<trkpt lat="33.810313" lon="-118.393867">
  <ele>-0.12</ele>
  <time>2026-09-01T01:14:00Z</time>
  <course>0.0</course>
  <speed>0.0</speed>
  <fix>3d</fix>
</trkpt>
<trkpt lat="33.810313" lon="-118.393867">
  <ele>0.0</ele>
  <time>2026-09-01T01:14:00Z</time>
  <course>186.12</course>
  <speed>0.0</speed>
  <fix>3d</fix>
</trkpt>
<trkpt lat="33.810313" lon="-118.393867">
  <ele>-0.12</ele>
  <time>2026-09-01T01:14:00Z</time>
  <course>0.0</course>
  <speed>0.0</speed>
  <fix>3d</fix>
</trkpt>
<trkpt lat="33.810313" lon="-118.393867">
  <ele>0.0</ele>
  <time>2026-09-01T01:14:00Z</time>
  <course>186.25</course>
  <speed>0.0</speed>
  <fix>3d</fix>
</trkpt>
<trkpt lat="33.810313" lon="-118.393867">
  <ele>-0.12</ele>
  <time>2026-09-01T01:14:00Z</time>
  <course>0.0</course>
  <speed>0.0</speed>
  <fix>3d</fix>
</trkpt>
<trkpt lat="33.810313" lon="-118.393867">
  <ele>0.0</ele>
  <time>2026-09-01T01:14:00Z</time>
  <course>186.37</course>
  <speed>0.0</speed>
  <fix>3d</fix>
</trkpt>
<trkpt lat="33.810313" lon="-118.393867">
  <ele>-0.12</ele>
  <time>2026-09-01T01:14:00Z</time>
  <course>0.0</course>
  <speed>0.0</speed>
  <fix>3d</fix>
</trkpt>
<trkpt lat="33.810313" lon="-118.393867">
  <ele>0.0</ele>
  <time>2026-09-01T01:14:00Z</time>
  <course>186.48</course>
  <speed>0.0</speed>
  <fix>3d</fix>
</trkpt>
<trkpt lat="33.810313" lon="-118.393867">
  <ele>-0.12</ele>
  <time>2026-09-01T01:14:00Z</time>
  <course>0.0</course>
  <speed>0.0</speed>
  <fix>3d</fix>
</trkpt>
<trkpt lat="33.810313" lon="-118.393867">
  <ele>0.0</ele>
  <time>2026-09-01T01:14:00Z</time>
  <course>186.59</course>
  <speed>0.0</speed>
  <fix>3d</fix>
</trkpt>
<trkpt lat="33.810313" lon="-118.393867">
  <ele>-0.12</ele>
  <time>2026-09-01T01:14:00Z</time>
  <course>0.0</course>
  <speed>0.0</speed>
  <fix>3d</fix>
</trkpt>
<trkpt lat="33.810313" lon="-118.393867">
  <ele>0.0</ele>
  <time>2026-09-01T01:14:00Z</time>
  <course>186.69</course>
  <speed>0.0</speed>
  <fix>3d</fix>
</trkpt>
<trkpt lat="33.810313" lon="-118.393867">
  <ele>-0.12</ele>
  <time>2026-09-01T01:14:00Z</time>
  <course>0.0</course>
  <speed>0.0</speed>
  <fix>3d</fix>
</trkpt>
<trkpt lat="33.810313" lon="-118.393867">
  <ele>0.0</ele>
  <time>2026-09-01T01:14:00Z</time>
  <course>186.79</course>
  <speed>0.0</speed>
  <fix>3d</fix>
</trkpt>
<trkpt lat="33.810313" lon="-118.393867">
  <ele>-0.12</ele>
  <time>2026-09-01T01:14:00Z</time>
  <course>0.0</course>
  <speed>0.0</speed>
  <fix>3d</fix>
</trkpt>
<trkpt lat="33.810313" lon="-118.393867">
  <ele>0.0</ele>
  <time>2026-09-01T01:14:00Z</time>
  <course>186.89</course>
  <speed>0.0</speed>
  <fix>3d</fix>
</trkpt>
<trkpt lat="33.810313" lon="-118.393867">
  <ele>-0.12</ele>
  <time>2026-09-01T01:14:00Z</time>
  <course>0.0</course>
  <speed>0.0</speed>
  <fix>3d</fix>
</trkpt>
<trkpt lat="33.810313" lon="-118.393867">
  <ele>0.0</ele>
  <time>2026-09-01T01:14:00Z</time>
  <course>186.98</course>
  <speed>0.0</speed>
  <fix>3d</fix>
</trkpt>
<trkpt lat="33.810313" lon="-118.393867">
  <ele>-0.12</ele>
  <time>2026-09-01T01:14:00Z</time>
  <course>0.0</course>
  <speed>0.0</speed>
  <fix>3d</fix>
</trkpt>
<trkpt lat="33.810313" lon="-118.393867">
  <ele>0.0</ele>
  <time>2026-09-01T01:14:00Z</time>
  <course>187.07</course>
  <speed>0.0</speed>
  <fix>3d</fix>
</trkpt>
<trkpt lat="33.810313" lon="-118.393867">
  <ele>-0.13</ele>
  <time>2026-09-01T01:14:00Z</time>
  <course>0.0</course>
  <speed>0.0</speed>
  <fix>3d</fix>
</trkpt>
<trkpt lat="33.810313" lon="-118.393867">
  <ele>0.0</ele>
  <time>2026-09-01T01:14:00Z</time>
  <course>187.15</course>
  <speed>0.0</speed>
  <fix>3d</fix>
</trkpt>
<trkpt lat="33.810313" lon="-118.393867">
  <ele>-0.13</ele>
  <time>2026-09-01T01:14:00Z</time>
  <course>0.0</course>
  <speed>0.0</speed>
  <fix>3d</fix>
</trkpt>
<trkpt lat="33.810313" lon="-118.393867">
  <ele>0.0</ele>
  <time>2026-09-01T01:14:00Z</time>
  <course>187.23</course>
  <speed>0.0</speed>
  <fix>3d</fix>
</trkpt>
<trkpt lat="33.810313" lon="-118.393867">
  <ele>-0.13</ele>
  <time>2026-09-01T01:14:00Z</time>
  <course>0.0</course>
  <speed>0.0</speed>
  <fix>3d</fix>
</trkpt>
<trkpt lat="33.810313" lon="-118.393867">
  <ele>0.0</ele>
  <time>2026-09-01T01:14:00Z</time>
  <course>187.3</course>
  <speed>0.0</speed>
  <fix>3d</fix>
</trkpt>
<trkpt lat="33.810313" lon="-118.393867">
  <ele>-0.13</ele>
  <time>2026-09-01T01:14:00Z</time>
  <course>0.0</course>
  <speed>0.0</speed>
  <fix>3d</fix>
</trkpt>
<trkpt lat="33.810313" lon="-118.393867">
  <ele>0.0</ele>
  <time>2026-09-01T01:14:00Z</time>
  <course>187.37</course>
  <speed>0.0</speed>
  <fix>3d</fix>
</trkpt>
<trkpt lat="33.810313" lon="-118.393867">
  <ele>-0.13</ele>
  <time>2026-09-01T01:14:00Z</time>
  <course>0.0</course>
  <speed>0.0</speed>
  <fix>3d</fix>
</trkpt>
<trkpt lat="33.810313" lon="-118.393867">
  <ele>0.0</ele>
  <time>2026-09-01T01:14:00Z</time>
  <course>187.44</course>
  <speed>0.0</speed>
  <fix>3d</fix>
</trkpt>
<trkpt lat="33.810313" lon="-118.393867">
  <ele>-0.13</ele>
  <time>2026-09-01T01:14:00Z</time>
  <course>0.0</course>
  <speed>0.0</speed>
  <fix>3d</fix>
</trkpt>
<trkpt lat="33.810313" lon="-118.393867">
  <ele>0.0</ele>
  <time>2026-09-01T01:14:00Z</time>
  <course>187.51</course>
  <speed>0.0</speed>
  <fix>3d</fix>
</trkpt>
<trkpt lat="33.810313" lon="-118.393867">
  <ele>-0.13</ele>
  <time>2026-09-01T01:14:00Z</time>
  <course>0.0</course>
  <speed>0.0</speed>
  <fix>3d</fix>
</trkpt>
<trkpt lat="33.810313" lon="-118.393867">
  <ele>0.0</ele>
  <time>2026-09-01T01:14:00Z</time>
  <course>187.57</course>
  <speed>0.0</speed>
  <fix>3d</fix>
</trkpt>
<trkpt lat="33.810313" lon="-118.393867">
  <ele>-0.13</ele>
  <time>2026-09-01T01:14:00Z</time>
  <course>0.0</course>
  <speed>0.0</speed>
  <fix>3d</fix>
</trkpt>
<trkpt lat="33.810313" lon="-118.393867">
  <ele>0.0</ele>
  <time>2026-09-01T01:14:00Z</time>
  <course>187.63</course>
  <speed>0.0</speed>
  <fix>3d</fix>
</trkpt>
<trkpt lat="33.810313" lon="-118.393867">
  <ele>-0.12</ele>
  <time>2026-09-01T01:14:00Z</time>
  <course>0.0</course>
  <speed>0.0</speed>
  <fix>3d</fix>
</trkpt>
<trkpt lat="33.810313" lon="-118.393867">
  <ele>0.0</ele>
  <time>2026-09-01T01:14:00Z</time>
  <course>187.68</course>
  <speed>0.0</speed>
  <fix>3d</fix>
</trkpt>
<trkpt lat="33.810313" lon="-118.393867">
  <ele>-0.12</ele>
  <time>2026-09-01T01:14:00Z</time>
  <course>0.0</course>
  <speed>0.0</speed>
  <fix>3d</fix>
</trkpt>
<trkpt lat="33.810313" lon="-118.393867">
  <ele>0.0</ele>
  <time>2026-09-01T01:14:00Z</time>
  <course>187.74</course>
  <speed>0.0</speed>
  <fix>3d</fix>
</trkpt>
<trkpt lat="33.810313" lon="-118.393867">
  <ele>-0.12</ele>
  <time>2026-09-01T01:14:00Z</time>
  <course>0.0</course>
  <speed>0.0</speed>
  <fix>3d</fix>
</trkpt>
<trkpt lat="33.810313" lon="-118.393867">
  <ele>0.0</ele>
  <time>2026-09-01T01:14:00Z</time>
  <course>187.79</course>
  <speed>0.0</speed>
  <fix>3d</fix>
</trkpt>
<trkpt lat="33.810313" lon="-118.393867">
  <ele>-0.12</ele>
  <time>2026-09-01T01:14:00Z</time>
  <course>0.0</course>
  <speed>0.0</speed>
  <fix>3d</fix>
</trkpt>
<trkpt lat="33.810313" lon="-118.393867">
  <ele>0.0</ele>
  <time>2026-09-01T01:14:00Z</time>
  <course>187.83</course>
  <speed>0.0</speed>
  <fix>3d</fix>
</trkpt>
<trkpt lat="33.810313" lon="-118.393867">
  <ele>-0.12</ele>
  <time>2026-09-01T01:14:00Z</time>
  <course>0.0</course>
  <speed>0.0</speed>
  <fix>3d</fix>
</trkpt>
<trkpt lat="33.810313" lon="-118.393867">
  <ele>0.0</ele>
  <time>2026-09-01T01:14:00Z</time>
  <course>187.88</course>
  <speed>0.0</speed>
  <fix>3d</fix>
</trkpt>
<trkpt lat="33.810313" lon="-118.393867">
  <ele>-0.12</ele>
  <time>2026-09-01T01:14:00Z</time>
  <course>0.0</course>
  <speed>0.0</speed>
  <fix>3d</fix>
</trkpt>
<trkpt lat="33.810313" lon="-118.393867">
  <ele>0.0</ele>
  <time>2026-09-01T01:14:00Z</time>
  <course>187.92</course>
  <speed>0.0</speed>
  <fix>3d</fix>
</trkpt>
<trkpt lat="33.810313" lon="-118.393867">
  <ele>-0.12</ele>
  <time>2026-09-01T01:14:00Z</time>
  <course>0.0</course>
  <speed>0.0</speed>
  <fix>3d</fix>
</trkpt>
<trkpt lat="33.810313" lon="-118.393867">
  <ele>0.0</ele>
  <time>2026-09-01T01:14:00Z</time>
  <course>187.96</course>
  <speed>0.0</speed>
  <fix>3d</fix>
</trkpt>
<trkpt lat="33.810313" lon="-118.393867">
  <ele>-0.12</ele>
  <time>2026-09-01T01:14:00Z</time>
  <course>0.0</course>
  <speed>0.0</speed>
  <fix>3d</fix>
</trkpt>
<trkpt lat="33.810313" lon="-118.393867">
  <ele>0.0</ele>
  <time>2026-09-01T01:14:00Z</time>
  <course>188.0</course>
  <speed>0.0</speed>
  <fix>3d</fix>
</trkpt>
<trkpt lat="33.810313" lon="-118.393867">
  <ele>-0.12</ele>
  <time>2026-09-01T01:14:00Z</time>
  <course>0.0</course>
  <speed>0.0</speed>
  <fix>3d</fix>
</trkpt>
<trkpt lat="33.810313" lon="-118.393867">
  <ele>0.0</ele>
  <time>2026-09-01T01:14:00Z</time>
  <course>188.04</course>
  <speed>0.0</speed>
  <fix>3d</fix>
</trkpt>
<trkpt lat="33.810313" lon="-118.393867">
  <ele>-0.12</ele>
  <time>2026-09-01T01:14:00Z</time>
  <course>0.0</course>
  <speed>0.0</speed>
  <fix>3d</fix>
</trkpt>
<trkpt lat="33.810313" lon="-118.393867">
  <ele>0.0</ele>
  <time>2026-09-01T01:14:00Z</time>
  <course>188.07</course>
  <speed>0.0</speed>
  <fix>3d</fix>
</trkpt>
<trkpt lat="33.810313" lon="-118.393867">
  <ele>-0.13</ele>
  <time>2026-09-01T01:14:00Z</time>
  <course>0.0</course>
  <speed>0.0</speed>
  <fix>3d</fix>
</trkpt>
<trkpt lat="33.810313" lon="-118.393867">
  <ele>0.0</ele>
  <time>2026-09-01T01:14:00Z</time>
  <course>188.11</course>
  <speed>0.0</speed>
  <fix>3d</fix>
</trkpt>
<trkpt lat="33.810313" lon="-118.393867">
  <ele>-0.13</ele>
  <time>2026-09-01T01:14:00Z</time>
  <course>0.0</course>
  <speed>0.0</speed>
  <fix>3d</fix>
</trkpt>
<trkpt lat="33.810313" lon="-118.393867">
  <ele>0.0</ele>
  <time>2026-09-01T01:14:00Z</time>
  <course>188.14</course>
  <speed>0.0</speed>
  <fix>3d</fix>
</trkpt>
<trkpt lat="33.810313" lon="-118.393867">
  <ele>-0.13</ele>
  <time>2026-09-01T01:14:00Z</time>
  <course>0.0</course>
  <speed>0.0</speed>
  <fix>3d</fix>
</trkpt>
<trkpt lat="33.810313" lon="-118.393867">
  <ele>0.0</ele>
  <time>2026-09-01T01:14:00Z</time>
  <course>188.17</course>
  <speed>0.0</speed>
  <fix>3d</fix>
</trkpt>
<trkpt lat="33.810313" lon="-118.393867">
  <ele>-0.13</ele>
  <time>2026-09-01T01:14:00Z</time>
  <course>0.0</course>
  <speed>0.0</speed>
  <fix>3d</fix>
</trkpt>
<trkpt lat="33.810313" lon="-118.393867">
  <ele>0.0</ele>
  <time>2026-09-01T01:14:00Z</time>
  <course>188.19</course>
  <speed>0.0</speed>
  <fix>3d</fix>
</trkpt>
<trkpt lat="33.810313" lon="-118.393867">
  <ele>-0.13</ele>
  <time>2026-09-01T01:14:00Z</time>
  <course>0.0</course>
  <speed>0.0</speed>
  <fix>3d</fix>
</trkpt>
<trkpt lat="33.810313" lon="-118.393867">
  <ele>0.0</ele>
  <time>2026-09-01T01:14:00Z</time>
  <course>188.22</course>
  <speed>0.0</speed>
  <fix>3d</fix>
</trkpt>
<trkpt lat="33.810313" lon="-118.393867">
  <ele>-0.13</ele>
  <time>2026-09-01T01:14:00Z</time>
  <course>0.0</course>
  <speed>0.0</speed>
  <fix>3d</fix>
</trkpt>
<trkpt lat="33.810313" lon="-118.393867">
  <ele>0.0</ele>
  <time>2026-09-01T01:14:00Z</time>
  <course>188.25</course>
  <speed>0.0</speed>
  <fix>3d</fix>
</trkpt>
<trkpt lat="33.810313" lon="-118.393867">
  <ele>-0.12</ele>
  <time>2026-09-01T01:14:00Z</time>
  <course>0.0</course>
  <speed>0.0</speed>
  <fix>3d</fix>
</trkpt>
<trkpt lat="33.810313" lon="-118.393867">
  <ele>0.0</ele>
  <time>2026-09-01T01:14:00Z</time>
  <course>188.27</course>
  <speed>0.01</speed>
  <fix>3d</fix>
</trkpt>
<trkpt lat="33.810313" lon="-118.393867">
  <ele>-0.12</ele>
  <time>2026-09-01T01:14:00Z</time>
  <course>0.0</course>
  <speed>0.0</speed>
  <fix>3d</fix>
</trkpt>
<trkpt lat="33.810313" lon="-118.393867">
  <ele>0.0</ele>
  <time>2026-09-01T01:14:00Z</time>
  <course>188.29</course>
  <speed>0.01</speed>
  <fix>3d</fix>
</trkpt>
<trkpt lat="33.810313" lon="-118.393867">
  <ele>-0.12</ele>
  <time>2026-09-01T01:14:00Z</time>
  <course>0.0</course>
  <speed>0.0</speed>
  <fix>3d</fix>
</trkpt>
<trkpt lat="33.810313" lon="-118.393867">
  <ele>0.0</ele>
  <time>2026-09-01T01:14:00Z</time>
  <course>188.31</course>
  <speed>0.01</speed>
  <fix>3d</fix>
</trkpt>
<trkpt lat="33.810313" lon="-118.393867">
  <ele>-0.12</ele>
  <time>2026-09-01T01:14:00Z</time>
  <course>0.0</course>
  <speed>0.0</speed>
  <fix>3d</fix>
</trkpt>
<trkpt lat="33.810313" lon="-118.393867">
  <ele>0.0</ele>
  <time>2026-09-01T01:14:00Z</time>
  <course>188.33</course>
  <speed>0.01</speed>
  <fix>3d</fix>
</trkpt>
<trkpt lat="33.810313" lon="-118.393867">
  <ele>-0.12</ele>
  <time>2026-09-01T01:14:00Z</time>
  <course>0.0</course>
  <speed>0.0</speed>
  <fix>3d</fix>
</trkpt>
<trkpt lat="33.810313" lon="-118.393867">
  <ele>0.0</ele>
  <time>2026-09-01T01:14:00Z</time>
  <course>188.35</course>
  <speed>0.01414213562373095</speed>
  <fix>3d</fix>
</trkpt>
<trkpt lat="33.810313" lon="-118.393867">
  <ele>-0.12</ele>
  <time>2026-09-01T01:14:00Z</time>
  <course>0.0</course>
  <speed>0.0</speed>
  <fix>3d</fix>
</trkpt>
<trkpt lat="33.810313" lon="-118.393867">
  <ele>0.0</ele>
  <time>2026-09-01T01:14:00Z</time>
  <course>188.37</course>
  <speed>0.01414213562373095</speed>
  <fix>3d</fix>
</trkpt>
<trkpt lat="33.810313" lon="-118.393867">
  <ele>-0.12</ele>
  <time>2026-09-01T01:14:00Z</time>
  <course>0.0</course>
  <speed>0.0</speed>
  <fix>3d</fix>
</trkpt>
<trkpt lat="33.810313" lon="-118.393867">
  <ele>0.0</ele>
  <time>2026-09-01T01:14:00Z</time>
  <course>188.38</course>
  <speed>0.01414213562373095</speed>
  <fix>3d</fix>
</trkpt>
<trkpt lat="33.810313" lon="-118.393867">
  <ele>-0.12</ele>
  <time>2026-09-01T01:14:00Z</time>
  <course>0.0</course>
  <speed>0.0</speed>
  <fix>3d</fix>
</trkpt>
<trkpt lat="33.810313" lon="-118.393867">
  <ele>0.0</ele>
  <time>2026-09-01T01:14:00Z</time>
  <course>188.4</course>
  <speed>0.01414213562373095</speed>
  <fix>3d</fix>
</trkpt>
<trkpt lat="33.810313" lon="-118.393867">
  <ele>-0.12</ele>
  <time>2026-09-01T01:14:00Z</time>
  <course>0.0</course>
  <speed>0.0</speed>
  <fix>3d</fix>
</trkpt>
<trkpt lat="33.810313" lon="-118.393867">
  <ele>0.0</ele>
  <time>2026-09-01T01:14:00Z</time>
  <course>188.41</course>
  <speed>0.01414213562373095</speed>
  <fix>3d</fix>
</trkpt>
<trkpt lat="33.810313" lon="-118.393867">
  <ele>-0.12</ele>
  <time>2026-09-01T01:14:00Z</time>
  <course>0.0</course>
  <speed>0.0</speed>
  <fix>3d</fix>
</trkpt>
<trkpt lat="33.810313" lon="-118.393867">
  <ele>0.0</ele>
  <time>2026-09-01T01:14:00Z</time>
  <course>188.42</course>
  <speed>0.01414213562373095</speed>
  <fix>3d</fix>
</trkpt>
<trkpt lat="33.810313" lon="-118.393867">
  <ele>-0.13</ele>
  <time>2026-09-01T01:14:00Z</time>
  <course>0.0</course>
  <speed>0.0</speed>
  <fix>3d</fix>
</trkpt>
<trkpt lat="33.810313" lon="-118.393867">
  <ele>0.0</ele>
  <time>2026-09-01T01:14:00Z</time>
  <course>188.44</course>
  <speed>0.01414213562373095</speed>
  <fix>3d</fix>
</trkpt>
<trkpt lat="33.810313" lon="-118.393867">
  <ele>-0.13</ele>
  <time>2026-09-01T01:14:00Z</time>
  <course>0.0</course>
  <speed>0.0</speed>
  <fix>3d</fix>
</trkpt>
<trkpt lat="33.810313" lon="-118.393867">
  <ele>0.0</ele>
  <time>2026-09-01T01:14:00Z</time>
  <course>188.45</course>
  <speed>0.01414213562373095</speed>
  <fix>3d</fix>
</trkpt>
<trkpt lat="33.810313" lon="-118.393867">
  <ele>-0.13</ele>
  <time>2026-09-01T01:14:00Z</time>
  <course>0.0</course>
  <speed>0.0</speed>
  <fix>3d</fix>
</trkpt>
<trkpt lat="33.810313" lon="-118.393867">
  <ele>0.0</ele>
  <time>2026-09-01T01:14:00Z</time>
  <course>188.46</course>
  <speed>0.01414213562373095</speed>
  <fix>3d</fix>
</trkpt>
<trkpt lat="33.810313" lon="-118.393867">
  <ele>-0.13</ele>
  <time>2026-09-01T01:14:00Z</time>
  <course>0.0</course>
  <speed>0.0</speed>
  <fix>3d</fix>
</trkpt>
<trkpt lat="33.810313" lon="-118.393867">
  <ele>0.0</ele>
  <time>2026-09-01T01:14:00Z</time>
  <course>188.47</course>
  <speed>0.01414213562373095</speed>
  <fix>3d</fix>
</trkpt>
<trkpt lat="33.810313" lon="-118.393867">
  <ele>-0.13</ele>
  <time>2026-09-01T01:14:00Z</time>
  <course>0.0</course>
  <speed>0.0</speed>
  <fix>3d</fix>
</trkpt>
<trkpt lat="33.810313" lon="-118.393867">
  <ele>0.0</ele>
  <time>2026-09-01T01:14:00Z</time>
  <course>188.47</course>
  <speed>0.01414213562373095</speed>
  <fix>3d</fix>
</trkpt>
<trkpt lat="33.810313" lon="-118.393867">
  <ele>-0.13</ele>
  <time>2026-09-01T01:14:00Z</time>
  <course>0.0</course>
  <speed>0.0</speed>
  <fix>3d</fix>
</trkpt>
<trkpt lat="33.810313" lon="-118.393867">
  <ele>0.0</ele>
  <time>2026-09-01T01:14:00Z</time>
  <course>188.48</course>
  <speed>0.01414213562373095</speed>
  <fix>3d</fix>
</trkpt>
<trkpt lat="33.810313" lon="-118.393867">
  <ele>-0.12</ele>
  <time>2026-09-01T01:14:00Z</time>
  <course>0.0</course>
  <speed>0.0</speed>
  <fix>3d</fix>
</trkpt>
<trkpt lat="33.810313" lon="-118.393867">
  <ele>0.0</ele>
  <time>2026-09-01T01:14:00Z</time>
  <course>188.49</course>
  <speed>0.01414213562373095</speed>
  <fix>3d</fix>
</trkpt>
<trkpt lat="33.810313" lon="-118.393867">
  <ele>-0.12</ele>
  <time>2026-09-01T01:14:00Z</time>
  <course>0.0</course>
  <speed>0.0</speed>
  <fix>3d</fix>
</trkpt>
<trkpt lat="33.810313" lon="-118.393867">
  <ele>0.0</ele>
  <time>2026-09-01T01:14:00Z</time>
  <course>188.5</course>
  <speed>0.01414213562373095</speed>
  <fix>3d</fix>
</trkpt>
<trkpt lat="33.810313" lon="-118.393867">
  <ele>-0.12</ele>
  <time>2026-09-01T01:14:00Z</time>
  <course>0.0</course>
  <speed>0.0</speed>
  <fix>3d</fix>
</trkpt>
<trkpt lat="33.810313" lon="-118.393867">
  <ele>0.0</ele>
  <time>2026-09-01T01:14:00Z</time>
  <course>188.5</course>
  <speed>0.01414213562373095</speed>
  <fix>3d</fix>
</trkpt>
<trkpt lat="33.810313" lon="-118.393867">
  <ele>-0.12</ele>
  <time>2026-09-01T01:14:00Z</time>
  <course>0.0</course>
  <speed>0.0</speed>
  <fix>3d</fix>
</trkpt>
<trkpt lat="33.810313" lon="-118.393867">
  <ele>0.0</ele>
  <time>2026-09-01T01:14:00Z</time>
  <course>188.51</course>
  <speed>0.01414213562373095</speed>
  <fix>3d</fix>
</trkpt>
<trkpt lat="33.810313" lon="-118.393867">
  <ele>-0.12</ele>
  <time>2026-09-01T01:14:00Z</time>
  <course>0.0</course>
  <speed>0.0</speed>
  <fix>3d</fix>
</trkpt>
<trkpt lat="33.810313" lon="-118.393867">
  <ele>0.0</ele>
  <time>2026-09-01T01:14:00Z</time>
  <course>188.51</course>
  <speed>0.01414213562373095</speed>
  <fix>3d</fix>
</trkpt>
<trkpt lat="33.810313" lon="-118.393867">
  <ele>-0.12</ele>
  <time>2026-09-01T01:14:00Z</time>
  <course>0.0</course>
  <speed>0.0</speed>
  <fix>3d</fix>
</trkpt>
<trkpt lat="33.810313" lon="-118.393867">
  <ele>0.0</ele>
  <time>2026-09-01T01:14:00Z</time>
  <course>188.51</course>
  <speed>0.01414213562373095</speed>
  <fix>3d</fix>
</trkpt>
<trkpt lat="33.810313" lon="-118.393867">
  <ele>-0.12</ele>
  <time>2026-09-01T01:14:00Z</time>
  <course>0.0</course>
  <speed>0.0</speed>
  <fix>3d</fix>
</trkpt>
<trkpt lat="33.810313" lon="-118.393867">
  <ele>0.0</ele>
  <time>2026-09-01T01:14:00Z</time>
  <course>188.52</course>
  <speed>0.01414213562373095</speed>
  <fix>3d</fix>
</trkpt>
<trkpt lat="33.810313" lon="-118.393867">
  <ele>-0.12</ele>
  <time>2026-09-01T01:14:00Z</time>
  <course>0.0</course>
  <speed>0.0</speed>
  <fix>3d</fix>
</trkpt>
<trkpt lat="33.810313" lon="-118.393867">
  <ele>0.0</ele>
  <time>2026-09-01T01:14:00Z</time>
  <course>188.52</course>
  <speed>0.01414213562373095</speed>
  <fix>3d</fix>
</trkpt>
<trkpt lat="33.810313" lon="-118.393867">
  <ele>-0.12</ele>
  <time>2026-09-01T01:14:00Z</time>
  <course>0.0</course>
  <speed>0.0</speed>
  <fix>3d</fix>
</trkpt>
<trkpt lat="33.810313" lon="-118.393867">
  <ele>0.0</ele>
  <time>2026-09-01T01:14:00Z</time>
  <course>188.52</course>
  <speed>0.01414213562373095</speed>
  <fix>3d</fix>
</trkpt>
<trkpt lat="33.810313" lon="-118.393867">
  <ele>-0.12</ele>
  <time>2026-09-01T01:14:00Z</time>
  <course>0.0</course>
  <speed>0.0</speed>
  <fix>3d</fix>
</trkpt>
<trkpt lat="33.810313" lon="-118.393867">
  <ele>-0.126</ele>
  <time>2026-09-01T01:14:00Z</time>
  <course>188.52</course>
  <speed>0.01414213562373095</speed>
  <fix>3d</fix>
</trkpt>
<trkpt lat="33.810313" lon="-118.393867">
  <ele>-0.13</ele>
  <time>2026-09-01T01:14:00Z</time>
  <course>0.0</course>
  <speed>0.0</speed>
  <fix>3d</fix>
</trkpt>
<trkpt lat="33.810313" lon="-118.393867">
  <ele>-0.126</ele>
  <time>2026-09-01T01:14:00Z</time>
  <course>188.52</course>
  <speed>0.01414213562373095</speed>
  <fix>3d</fix>
</trkpt>
<trkpt lat="33.810313" lon="-118.393867">
  <ele>-0.13</ele>
  <time>2026-09-01T01:14:00Z</time>
  <course>0.0</course>
  <speed>0.0</speed>
  <fix>3d</fix>
</trkpt>
<trkpt lat="33.810313" lon="-118.393867">
  <ele>-0.124</ele>
  <time>2026-09-01T01:14:00Z</time>
  <course>188.53</course>
  <speed>0.01414213562373095</speed>
  <fix>3d</fix>
</trkpt>
<trkpt lat="33.810313" lon="-118.393867">
  <ele>-0.13</ele>
  <time>2026-09-01T01:14:00Z</time>
  <course>0.0</course>
  <speed>0.0</speed>
  <fix>3d</fix>
</trkpt>
<trkpt lat="33.810313" lon="-118.393867">
  <ele>-0.123</ele>
  <time>2026-09-01T01:14:00Z</time>
  <course>188.53</course>
  <speed>0.01414213562373095</speed>
  <fix>3d</fix>
</trkpt>
<trkpt lat="33.810313" lon="-118.393867">
  <ele>-0.13</ele>
  <time>2026-09-01T01:14:00Z</time>
  <course>0.0</course>
  <speed>0.0</speed>
  <fix>3d</fix>
</trkpt>
<trkpt lat="33.810313" lon="-118.393867">
  <ele>-0.121</ele>
  <time>2026-09-01T01:14:00Z</time>
  <course>188.53</course>
  <speed>0.01414213562373095</speed>
  <fix>3d</fix>
</trkpt>
<trkpt lat="33.810313" lon="-118.393867">
  <ele>-0.12</ele>
  <time>2026-09-01T01:14:00Z</time>
  <course>0.0</course>
  <speed>0.0</speed>
  <fix>3d</fix>
</trkpt>
<trkpt lat="33.810313" lon="-118.393867">
  <ele>-0.12</ele>
  <time>2026-09-01T01:14:00Z</time>
  <course>188.53</course>
  <speed>0.01414213562373095</speed>
  <fix>3d</fix>
</trkpt>
<trkpt lat="33.810313" lon="-118.393867">
  <ele>-0.12</ele>
  <time>2026-09-01T01:14:00Z</time>
  <course>0.0</course>
  <speed>0.0</speed>
  <fix>3d</fix>
</trkpt>
<trkpt lat="33.810313" lon="-118.393867">
  <ele>-0.119</ele>
  <time>2026-09-01T01:14:00Z</time>
  <course>188.53</course>
  <speed>0.01414213562373095</speed>
  <fix>3d</fix>
</trkpt>
<trkpt lat="33.810313" lon="-118.393867">
  <ele>-0.12</ele>
  <time>2026-09-01T01:14:00Z</time>
  <course>0.0</course>
  <speed>0.0</speed>
  <fix>3d</fix>
</trkpt>
<trkpt lat="33.810313" lon="-118.393867">
  <ele>-0.12</ele>
  <time>2026-09-01T01:14:00Z</time>
  <course>188.52</course>
  <speed>0.01414213562373095</speed>
  <fix>3d</fix>
</trkpt>
<trkpt lat="33.810313" lon="-118.393867">
  <ele>-0.12</ele>
  <time>2026-09-01T01:14:00Z</time>
  <course>0.0</course>
  <speed>0.0</speed>
  <fix>3d</fix>
</trkpt>
<trkpt lat="33.810313" lon="-118.393867">
  <ele>-0.124</ele>
  <time>2026-09-01T01:14:00Z</time>
  <course>188.52</course>
  <speed>0.01414213562373095</speed>
  <fix>3d</fix>
</trkpt>
<trkpt lat="33.810313" lon="-118.393867">
  <ele>-0.12</ele>
  <time>2026-09-01T01:14:00Z</time>
  <course>0.0</course>
  <speed>0.0</speed>
  <fix>3d</fix>
</trkpt>
<trkpt lat="33.810313" lon="-118.393867">
  <ele>-0.127</ele>
  <time>2026-09-01T01:14:00Z</time>
  <course>188.52</course>
  <speed>0.01414213562373095</speed>
  <fix>3d</fix>
</trkpt>
<trkpt lat="33.810313" lon="-118.393867">
  <ele>-0.12</ele>
  <time>2026-09-01T01:14:00Z</time>
  <course>0.0</course>
  <speed>0.0</speed>
  <fix>3d</fix>
</trkpt>
<trkpt lat="33.810313" lon="-118.393867">
  <ele>-0.13</ele>
  <time>2026-09-01T01:14:00Z</time>
  <course>188.52</course>
  <speed>0.01414213562373095</speed>
  <fix>3d</fix>
</trkpt>
<trkpt lat="33.810313" lon="-118.393867">
  <ele>-0.12</ele>
  <time>2026-09-01T01:14:00Z</time>
  <course>0.0</course>
  <speed>0.0</speed>
  <fix>3d</fix>
</trkpt>
<trkpt lat="33.810313" lon="-118.393867">
  <ele>-0.132</ele>
  <time>2026-09-01T01:14:00Z</time>
  <course>188.52</course>
  <speed>0.01414213562373095</speed>
  <fix>3d</fix>
</trkpt>
<trkpt lat="33.810313" lon="-118.393867">
  <ele>-0.12</ele>
  <time>2026-09-01T01:14:00Z</time>
  <course>0.0</course>
  <speed>0.0</speed>
  <fix>3d</fix>
</trkpt>
<trkpt lat="33.810313" lon="-118.393867">
  <ele>-0.132</ele>
  <time>2026-09-01T01:14:00Z</time>
  <course>188.51</course>
  <speed>0.01414213562373095</speed>
  <fix>3d</fix>
</trkpt>
<trkpt lat="33.810313" lon="-118.393867">
  <ele>-0.12</ele>
  <time>2026-09-01T01:14:00Z</time>
  <course>0.0</course>
  <speed>0.0</speed>
  <fix>3d</fix>
</trkpt>
<trkpt lat="33.810313" lon="-118.393867">
  <ele>-0.132</ele>
  <time>2026-09-01T01:14:00Z</time>
  <course>188.52</course>
  <speed>0.01414213562373095</speed>
  <fix>3d</fix>
</trkpt>
<trkpt lat="33.810313" lon="-118.393867">
  <ele>-0.12</ele>
  <time>2026-09-01T01:14:00Z</time>
  <course>0.0</course>
  <speed>0.0</speed>
  <fix>3d</fix>
</trkpt>
<trkpt lat="33.810313" lon="-118.393867">
  <ele>-0.132</ele>
  <time>2026-09-01T01:14:00Z</time>
  <course>188.52</course>
  <speed>0.01414213562373095</speed>
  <fix>3d</fix>
</trkpt>
<trkpt lat="33.810313" lon="-118.393867">
  <ele>-0.12</ele>
  <time>2026-09-01T01:14:00Z</time>
  <course>0.0</course>
  <speed>0.0</speed>
  <fix>3d</fix>
</trkpt>
<trkpt lat="33.810313" lon="-118.393867">
  <ele>-0.131</ele>
  <time>2026-09-01T01:14:00Z</time>
  <course>188.51</course>
  <speed>0.01414213562373095</speed>
  <fix>3d</fix>
</trkpt>
<trkpt lat="33.810313" lon="-118.393867">
  <ele>-0.12</ele>
  <time>2026-09-01T01:14:00Z</time>
  <course>0.0</course>
  <speed>0.0</speed>
  <fix>3d</fix>
</trkpt>
<trkpt lat="33.810313" lon="-118.393867">
  <ele>-0.129</ele>
  <time>2026-09-01T01:14:00Z</time>
  <course>188.51</course>
  <speed>0.01414213562373095</speed>
  <fix>3d</fix>
</trkpt>
<trkpt lat="33.810313" lon="-118.393867">
  <ele>-0.13</ele>
  <time>2026-09-01T01:14:00Z</time>
  <course>0.0</course>
  <speed>0.0</speed>
  <fix>3d</fix>
</trkpt>
<trkpt lat="33.810313" lon="-118.393867">
  <ele>-0.128</ele>
  <time>2026-09-01T01:14:00Z</time>
  <course>188.5</course>
  <speed>0.022360679774997897</speed>
  <fix>3d</fix>
</trkpt>
<trkpt lat="33.810313" lon="-118.393867">
  <ele>-0.13</ele>
  <time>2026-09-01T01:14:00Z</time>
  <course>0.0</course>
  <speed>0.0</speed>
  <fix>3d</fix>
</trkpt>
<trkpt lat="33.810313" lon="-118.393867">
  <ele>-0.125</ele>
  <time>2026-09-01T01:14:00Z</time>
  <course>188.5</course>
  <speed>0.022360679774997897</speed>
  <fix>3d</fix>
</trkpt>
<trkpt lat="33.810313" lon="-118.393867">
  <ele>-0.12</ele>
  <time>2026-09-01T01:14:00Z</time>
  <course>0.0</course>
  <speed>0.0</speed>
  <fix>3d</fix>
</trkpt>
<trkpt lat="33.810313" lon="-118.393867">
  <ele>-0.123</ele>
  <time>2026-09-01T01:14:00Z</time>
  <course>188.49</course>
  <speed>0.022360679774997897</speed>
  <fix>3d</fix>
</trkpt>
<trkpt lat="33.810313" lon="-118.393867">
  <ele>-0.12</ele>
  <time>2026-09-01T01:14:00Z</time>
  <course>0.0</course>
  <speed>0.0</speed>
  <fix>3d</fix>
</trkpt>
<trkpt lat="33.810313" lon="-118.393867">
  <ele>-0.121</ele>
  <time>2026-09-01T01:14:00Z</time>
  <course>188.49</course>
  <speed>0.022360679774997897</speed>
  <fix>3d</fix>
</trkpt>
<trkpt lat="33.810313" lon="-118.393867">
  <ele>-0.12</ele>
  <time>2026-09-01T01:14:00Z</time>
  <course>0.0</course>
  <speed>0.0</speed>
  <fix>3d</fix>
</trkpt>
<trkpt lat="33.810313" lon="-118.393867">
  <ele>-0.121</ele>
  <time>2026-09-01T01:14:00Z</time>
  <course>188.48</course>
  <speed>0.0282842712474619</speed>
  <fix>3d</fix>
</trkpt>
<trkpt lat="33.810313" lon="-118.393867">
  <ele>-0.12</ele>
  <time>2026-09-01T01:14:00Z</time>
  <course>0.0</course>
  <speed>0.0</speed>
  <fix>3d</fix>
</trkpt>
<trkpt lat="33.810313" lon="-118.393867">
  <ele>-0.122</ele>
  <time>2026-09-01T01:14:00Z</time>
  <course>188.48</course>
  <speed>0.0282842712474619</speed>
  <fix>3d</fix>
</trkpt>
<trkpt lat="33.810313" lon="-118.393867">
  <ele>-0.12</ele>
  <time>2026-09-01T01:14:00Z</time>
  <course>0.0</course>
  <speed>0.0</speed>
  <fix>3d</fix>
</trkpt>
<trkpt lat="33.810313" lon="-118.393867">
  <ele>-0.123</ele>
  <time>2026-09-01T01:14:00Z</time>
  <course>188.47</course>
  <speed>0.0282842712474619</speed>
  <fix>3d</fix>
</trkpt>
<trkpt lat="33.810313" lon="-118.393867">
  <ele>-0.12</ele>
  <time>2026-09-01T01:14:00Z</time>
  <course>0.0</course>
  <speed>0.0</speed>
  <fix>3d</fix>
</trkpt>
<trkpt lat="33.810313" lon="-118.393867">
  <ele>-0.126</ele>
  <time>2026-09-01T01:14:00Z</time>
  <course>188.47</course>
  <speed>0.0282842712474619</speed>
  <fix>3d</fix>
</trkpt>
<trkpt lat="33.810313" lon="-118.393867">
  <ele>-0.12</ele>
  <time>2026-09-01T01:14:00Z</time>
  <course>0.0</course>
  <speed>0.0</speed>
  <fix>3d</fix>
</trkpt>
<trkpt lat="33.810313" lon="-118.393867">
  <ele>-0.127</ele>
  <time>2026-09-01T01:14:00Z</time>
  <course>188.46</course>
  <speed>0.0282842712474619</speed>
  <fix>3d</fix>
</trkpt>
<trkpt lat="33.810313" lon="-118.393867">
  <ele>-0.12</ele>
  <time>2026-09-01T01:14:00Z</time>
  <course>0.0</course>
  <speed>0.0</speed>
  <fix>3d</fix>
</trkpt>
<trkpt lat="33.810313" lon="-118.393867">
  <ele>-0.128</ele>
  <time>2026-09-01T01:14:00Z</time>
  <course>188.46</course>
  <speed>0.0282842712474619</speed>
  <fix>3d</fix>
</trkpt>
<trkpt lat="33.810313" lon="-118.393867">
  <ele>-0.12</ele>
  <time>2026-09-01T01:14:00Z</time>
  <course>0.0</course>
  <speed>0.0</speed>
  <fix>3d</fix>
</trkpt>
<trkpt lat="33.810313" lon="-118.393867">
  <ele>-0.127</ele>
  <time>2026-09-01T01:14:00Z</time>
  <course>188.45</course>
  <speed>0.0282842712474619</speed>
  <fix>3d</fix>
</trkpt>
<trkpt lat="33.810313" lon="-118.393867">
  <ele>-0.12</ele>
  <time>2026-09-01T01:14:00Z</time>
  <course>0.0</course>
  <speed>0.0</speed>
  <fix>3d</fix>
</trkpt>
<trkpt lat="33.810313" lon="-118.393867">
  <ele>-0.127</ele>
  <time>2026-09-01T01:14:00Z</time>
  <course>188.44</course>
  <speed>0.0282842712474619</speed>
  <fix>3d</fix>
</trkpt>
<trkpt lat="33.810313" lon="-118.393867">
  <ele>-0.12</ele>
  <time>2026-09-01T01:14:00Z</time>
  <course>0.0</course>
  <speed>0.0</speed>
  <fix>3d</fix>
</trkpt>
<trkpt lat="33.810313" lon="-118.393867">
  <ele>-0.127</ele>
  <time>2026-09-01T01:14:00Z</time>
  <course>188.44</course>
  <speed>0.0282842712474619</speed>
  <fix>3d</fix>
</trkpt>
<trkpt lat="33.810313" lon="-118.393867">
  <ele>-0.12</ele>
  <time>2026-09-01T01:14:00Z</time>
  <course>0.0</course>
  <speed>0.0</speed>
  <fix>3d</fix>
</trkpt>
<trkpt lat="33.810313" lon="-118.393867">
  <ele>-0.127</ele>
  <time>2026-09-01T01:14:00Z</time>
  <course>188.43</course>
  <speed>0.0282842712474619</speed>
  <fix>3d</fix>
</trkpt>
<trkpt lat="33.810313" lon="-118.393867">
  <ele>-0.12</ele>
  <time>2026-09-01T01:14:00Z</time>
  <course>0.0</course>
  <speed>0.0</speed>
  <fix>3d</fix>
</trkpt>
<trkpt lat="33.810313" lon="-118.393867">
  <ele>-0.126</ele>
  <time>2026-09-01T01:14:00Z</time>
  <course>188.42</course>
  <speed>0.0282842712474619</speed>
  <fix>3d</fix>
</trkpt>
<trkpt lat="33.810313" lon="-118.393867">
  <ele>-0.12</ele>
  <time>2026-09-01T01:14:00Z</time>
  <course>0.0</course>
  <speed>0.0</speed>
  <fix>3d</fix>
</trkpt>
<trkpt lat="33.810313" lon="-118.393867">
  <ele>-0.126</ele>
  <time>2026-09-01T01:14:00Z</time>
  <course>188.42</course>
  <speed>0.0282842712474619</speed>
  <fix>3d</fix>
</trkpt>
<trkpt lat="33.810313" lon="-118.393867">
  <ele>-0.12</ele>
  <time>2026-09-01T01:14:00Z</time>
  <course>0.0</course>
  <speed>0.0</speed>
  <fix>3d</fix>
</trkpt>
<trkpt lat="33.810313" lon="-118.393867">
  <ele>-0.126</ele>
  <time>2026-09-01T01:14:00Z</time>
  <course>188.41</course>
  <speed>0.0282842712474619</speed>
  <fix>3d</fix>
</trkpt>
<trkpt lat="33.810313" lon="-118.393867">
  <ele>-0.12</ele>
  <time>2026-09-01T01:14:00Z</time>
  <course>0.0</course>
  <speed>0.0</speed>
  <fix>3d</fix>
</trkpt>
<trkpt lat="33.810313" lon="-118.393867">
  <ele>-0.125</ele>
  <time>2026-09-01T01:14:00Z</time>
  <course>188.4</course>
  <speed>0.0282842712474619</speed>
  <fix>3d</fix>
</trkpt>
<trkpt lat="33.810313" lon="-118.393867">
  <ele>-0.12</ele>
  <time>2026-09-01T01:14:00Z</time>
  <course>0.0</course>
  <speed>0.0</speed>
  <fix>3d</fix>
</trkpt>
<trkpt lat="33.810313" lon="-118.393867">
  <ele>-0.126</ele>
  <time>2026-09-01T01:14:00Z</time>
  <course>188.4</course>
  <speed>0.0282842712474619</speed>
  <fix>3d</fix>
</trkpt>
<trkpt lat="33.810313" lon="-118.393867">
  <ele>-0.12</ele>
  <time>2026-09-01T01:14:00Z</time>
  <course>0.0</course>
  <speed>0.0</speed>
  <fix>3d</fix>
</trkpt>
<trkpt lat="33.810313" lon="-118.393867">
  <ele>-0.127</ele>
  <time>2026-09-01T01:14:00Z</time>
  <course>188.39</course>
  <speed>0.0282842712474619</speed>
  <fix>3d</fix>
</trkpt>
<trkpt lat="33.810313" lon="-118.393867">
  <ele>-0.12</ele>
  <time>2026-09-01T01:14:00Z</time>
  <course>0.0</course>
  <speed>0.0</speed>
  <fix>3d</fix>
</trkpt>
<trkpt lat="33.810313" lon="-118.393867">
  <ele>-0.128</ele>
  <time>2026-09-01T01:14:00Z</time>
  <course>188.38</course>
  <speed>0.0282842712474619</speed>
  <fix>3d</fix>
</trkpt>
<trkpt lat="33.810313" lon="-118.393867">
  <ele>-0.12</ele>
  <time>2026-09-01T01:14:00Z</time>
  <course>0.0</course>
  <speed>0.0</speed>
  <fix>3d</fix>
</trkpt>
<trkpt lat="33.810313" lon="-118.393867">
  <ele>-0.129</ele>
  <time>2026-09-01T01:14:00Z</time>
  <course>188.37</course>
  <speed>0.0282842712474619</speed>
  <fix>3d</fix>
</trkpt>
<trkpt lat="33.810313" lon="-118.393867">
  <ele>-0.12</ele>
  <time>2026-09-01T01:14:00Z</time>
  <course>0.0</course>
  <speed>0.0</speed>
  <fix>3d</fix>
</trkpt>
<trkpt lat="33.810313" lon="-118.393867">
  <ele>-0.129</ele>
  <time>2026-09-01T01:14:00Z</time>
  <course>188.37</course>
  <speed>0.0282842712474619</speed>
  <fix>3d</fix>
</trkpt>
<trkpt lat="33.810313" lon="-118.393867">
  <ele>-0.12</ele>
  <time>2026-09-01T01:14:00Z</time>
  <course>0.0</course>
  <speed>0.0</speed>
  <fix>3d</fix>
</trkpt>
<trkpt lat="33.810313" lon="-118.393867">
  <ele>-0.13</ele>
  <time>2026-09-01T01:14:00Z</time>
  <course>188.36</course>
  <speed>0.0282842712474619</speed>
  <fix>3d</fix>
</trkpt>
<trkpt lat="33.810313" lon="-118.393867">
  <ele>-0.12</ele>
  <time>2026-09-01T01:14:00Z</time>
  <course>0.0</course>
  <speed>0.0</speed>
  <fix>3d</fix>
</trkpt>
<trkpt lat="33.810313" lon="-118.393867">
  <ele>-0.13</ele>
  <time>2026-09-01T01:14:00Z</time>
  <course>188.35</course>
  <speed>0.0282842712474619</speed>
  <fix>3d</fix>
</trkpt>
<trkpt lat="33.810313" lon="-118.393867">
  <ele>-0.12</ele>
  <time>2026-09-01T01:14:00Z</time>
  <course>0.0</course>
  <speed>0.0</speed>
  <fix>3d</fix>
</trkpt>
<trkpt lat="33.810313" lon="-118.393867">
  <ele>-0.13</ele>
  <time>2026-09-01T01:14:00Z</time>
  <course>188.35</course>
  <speed>0.0282842712474619</speed>
  <fix>3d</fix>
</trkpt>
<trkpt lat="33.810313" lon="-118.393867">
  <ele>-0.12</ele>
  <time>2026-09-01T01:14:00Z</time>
  <course>0.0</course>
  <speed>0.0</speed>
  <fix>3d</fix>
</trkpt>
<trkpt lat="33.810313" lon="-118.393867">
  <ele>-0.129</ele>
  <time>2026-09-01T01:14:00Z</time>
  <course>188.34</course>
  <speed>0.0282842712474619</speed>
  <fix>3d</fix>
</trkpt>
<trkpt lat="33.810313" lon="-118.393867">
  <ele>-0.12</ele>
  <time>2026-09-01T01:14:00Z</time>
  <course>0.0</course>
  <speed>0.0</speed>
  <fix>3d</fix>
</trkpt>
<trkpt lat="33.810313" lon="-118.393867">
  <ele>-0.128</ele>
  <time>2026-09-01T01:14:00Z</time>
  <course>188.33</course>
  <speed>0.0282842712474619</speed>
  <fix>3d</fix>
</trkpt>
<trkpt lat="33.810313" lon="-118.393867">
  <ele>-0.12</ele>
  <time>2026-09-01T01:14:00Z</time>
  <course>0.0</course>
  <speed>0.0</speed>
  <fix>3d</fix>
</trkpt>
<trkpt lat="33.810313" lon="-118.393867">
  <ele>-0.126</ele>
  <time>2026-09-01T01:14:00Z</time>
  <course>188.32</course>
  <speed>0.0282842712474619</speed>
  <fix>3d</fix>
</trkpt>
<trkpt lat="33.810313" lon="-118.393867">
  <ele>-0.12</ele>
  <time>2026-09-01T01:14:00Z</time>
  <course>0.0</course>
  <speed>0.0</speed>
  <fix>3d</fix>
</trkpt>
<trkpt lat="33.810313" lon="-118.393867">
  <ele>-0.124</ele>
  <time>2026-09-01T01:14:00Z</time>
  <course>188.32</course>
  <speed>0.0282842712474619</speed>
  <fix>3d</fix>
</trkpt>
<trkpt lat="33.810313" lon="-118.393867">
  <ele>-0.12</ele>
  <time>2026-09-01T01:14:00Z</time>
  <course>0.0</course>
  <speed>0.0</speed>
  <fix>3d</fix>
</trkpt>
<trkpt lat="33.810313" lon="-118.393867">
  <ele>-0.122</ele>
  <time>2026-09-01T01:14:00Z</time>
  <course>188.31</course>
  <speed>0.0282842712474619</speed>
  <fix>3d</fix>
</trkpt>
<trkpt lat="33.810313" lon="-118.393867">
  <ele>-0.12</ele>
  <time>2026-09-01T01:14:00Z</time>
  <course>0.0</course>
  <speed>0.0</speed>
  <fix>3d</fix>
</trkpt>
<trkpt lat="33.810313" lon="-118.393867">
  <ele>-0.123</ele>
  <time>2026-09-01T01:14:00Z</time>
  <course>188.3</course>
  <speed>0.0282842712474619</speed>
  <fix>3d</fix>
</trkpt>
<trkpt lat="33.810313" lon="-118.393867">
  <ele>-0.12</ele>
  <time>2026-09-01T01:14:00Z</time>
  <course>0.0</course>
  <speed>0.0</speed>
  <fix>3d</fix>
</trkpt>
<trkpt lat="33.810313" lon="-118.393867">
  <ele>-0.125</ele>
  <time>2026-09-01T01:14:00Z</time>
  <course>188.29</course>
  <speed>0.0282842712474619</speed>
  <fix>3d</fix>
</trkpt>
<trkpt lat="33.810313" lon="-118.393867">
  <ele>-0.12</ele>
  <time>2026-09-01T01:14:00Z</time>
  <course>0.0</course>
  <speed>0.0</speed>
  <fix>3d</fix>
</trkpt>
<trkpt lat="33.810313" lon="-118.393867">
  <ele>-0.128</ele>
  <time>2026-09-01T01:14:00Z</time>
  <course>188.28</course>
  <speed>0.0282842712474619</speed>
  <fix>3d</fix>
</trkpt>
<trkpt lat="33.810313" lon="-118.393867">
  <ele>-0.12</ele>
  <time>2026-09-01T01:14:00Z</time>
  <course>0.0</course>
  <speed>0.0</speed>
  <fix>3d</fix>
</trkpt>
<trkpt lat="33.810313" lon="-118.393867">
  <ele>-0.132</ele>
  <time>2026-09-01T01:14:00Z</time>
  <course>188.28</course>
  <speed>0.0282842712474619</speed>
  <fix>3d</fix>
</trkpt>
<trkpt lat="33.810313" lon="-118.393867">
  <ele>-0.12</ele>
  <time>2026-09-01T01:14:00Z</time>
  <course>0.0</course>
  <speed>0.0</speed>
  <fix>3d</fix>
</trkpt>
<trkpt lat="33.810313" lon="-118.393867">
  <ele>-0.135</ele>
  <time>2026-09-01T01:14:00Z</time>
  <course>188.27</course>
  <speed>0.0282842712474619</speed>
  <fix>3d</fix>
</trkpt>
<trkpt lat="33.810313" lon="-118.393867">
  <ele>-0.12</ele>
  <time>2026-09-01T01:14:00Z</time>
  <course>0.0</course>
  <speed>0.0</speed>
  <fix>3d</fix>
</trkpt>
<trkpt lat="33.810313" lon="-118.393867">
  <ele>-0.135</ele>
  <time>2026-09-01T01:14:00Z</time>
  <course>188.26</course>
  <speed>0.0282842712474619</speed>
  <fix>3d</fix>
</trkpt>
<trkpt lat="33.810313" lon="-118.393867">
  <ele>-0.12</ele>
  <time>2026-09-01T01:14:00Z</time>
  <course>0.0</course>
  <speed>0.0</speed>
  <fix>3d</fix>
</trkpt>
<trkpt lat="33.810313" lon="-118.393867">
  <ele>-0.134</ele>
  <time>2026-09-01T01:14:00Z</time>
  <course>188.25</course>
  <speed>0.0282842712474619</speed>
  <fix>3d</fix>
</trkpt>
<trkpt lat="33.810313" lon="-118.393867">
  <ele>-0.12</ele>
  <time>2026-09-01T01:14:00Z</time>
  <course>0.0</course>
  <speed>0.0</speed>
  <fix>3d</fix>
</trkpt>
<trkpt lat="33.810313" lon="-118.393867">
  <ele>-0.132</ele>
  <time>2026-09-01T01:14:00Z</time>
  <course>188.24</course>
  <speed>0.0282842712474619</speed>
  <fix>3d</fix>
</trkpt>
<trkpt lat="33.810313" lon="-118.393867">
  <ele>-0.12</ele>
  <time>2026-09-01T01:14:00Z</time>
  <course>0.0</course>
  <speed>0.0</speed>
  <fix>3d</fix>
</trkpt>
<trkpt lat="33.810313" lon="-118.393867">
  <ele>-0.129</ele>
  <time>2026-09-01T01:14:00Z</time>
  <course>188.24</course>
  <speed>0.0282842712474619</speed>
  <fix>3d</fix>
</trkpt>
<trkpt lat="33.810313" lon="-118.393867">
  <ele>-0.12</ele>
  <time>2026-09-01T01:14:00Z</time>
  <course>0.0</course>
  <speed>0.0</speed>
  <fix>3d</fix>
</trkpt>
<trkpt lat="33.810313" lon="-118.393867">
  <ele>-0.127</ele>
  <time>2026-09-01T01:14:00Z</time>
  <course>188.23</course>
  <speed>0.0282842712474619</speed>
  <fix>3d</fix>
</trkpt>
<trkpt lat="33.810313" lon="-118.393867">
  <ele>-0.12</ele>
  <time>2026-09-01T01:14:00Z</time>
  <course>0.0</course>
  <speed>0.0</speed>
  <fix>3d</fix>
</trkpt>
<trkpt lat="33.810313" lon="-118.393867">
  <ele>-0.124</ele>
  <time>2026-09-01T01:14:00Z</time>
  <course>188.22</course>
  <speed>0.0282842712474619</speed>
  <fix>3d</fix>
</trkpt>
<trkpt lat="33.810313" lon="-118.393867">
  <ele>-0.12</ele>
  <time>2026-09-01T01:14:00Z</time>
  <course>0.0</course>
  <speed>0.0</speed>
  <fix>3d</fix>
</trkpt>
<trkpt lat="33.810313" lon="-118.393867">
  <ele>-0.123</ele>
  <time>2026-09-01T01:14:00Z</time>
  <course>188.21</course>
  <speed>0.03605551275463989</speed>
  <fix>3d</fix>
</trkpt>
<trkpt lat="33.810313" lon="-118.393867">
  <ele>-0.12</ele>
  <time>2026-09-01T01:14:00Z</time>
  <course>0.0</course>
  <speed>0.0</speed>
  <fix>3d</fix>
</trkpt>
<trkpt lat="33.810313" lon="-118.393867">
  <ele>-0.124</ele>
  <time>2026-09-01T01:14:00Z</time>
  <course>188.2</course>
  <speed>0.03605551275463989</speed>
  <fix>3d</fix>
</trkpt>
<trkpt lat="33.810313" lon="-118.393867">
  <ele>-0.12</ele>
  <time>2026-09-01T01:14:00Z</time>
  <course>0.0</course>
  <speed>0.0</speed>
  <fix>3d</fix>
</trkpt>
<trkpt lat="33.810313" lon="-118.393867">
  <ele>-0.126</ele>
  <time>2026-09-01T01:14:00Z</time>
  <course>188.2</course>
  <speed>0.03605551275463989</speed>
  <fix>3d</fix>
</trkpt>
<trkpt lat="33.810313" lon="-118.393867">
  <ele>-0.12</ele>
  <time>2026-09-01T01:14:00Z</time>
  <course>0.0</course>
  <speed>0.0</speed>
  <fix>3d</fix>
</trkpt>
<trkpt lat="33.810313" lon="-118.393867">
  <ele>-0.127</ele>
  <time>2026-09-01T01:14:00Z</time>
  <course>188.19</course>
  <speed>0.03605551275463989</speed>
  <fix>3d</fix>
</trkpt>
<trkpt lat="33.810313" lon="-118.393867">
  <ele>-0.12</ele>
  <time>2026-09-01T01:14:00Z</time>
  <course>0.0</course>
  <speed>0.0</speed>
  <fix>3d</fix>
</trkpt>
<trkpt lat="33.810313" lon="-118.393867">
  <ele>-0.129</ele>
  <time>2026-09-01T01:14:00Z</time>
  <course>188.18</course>
  <speed>0.03605551275463989</speed>
  <fix>3d</fix>
</trkpt>
<trkpt lat="33.810313" lon="-118.393867">
  <ele>-0.12</ele>
  <time>2026-09-01T01:14:00Z</time>
  <course>0.0</course>
  <speed>0.0</speed>
  <fix>3d</fix>
</trkpt>
<trkpt lat="33.810313" lon="-118.393867">
  <ele>-0.129</ele>
  <time>2026-09-01T01:14:00Z</time>
  <course>188.17</course>
  <speed>0.03605551275463989</speed>
  <fix>3d</fix>
</trkpt>
<trkpt lat="33.810313" lon="-118.393867">
  <ele>-0.12</ele>
  <time>2026-09-01T01:14:00Z</time>
  <course>0.0</course>
  <speed>0.0</speed>
  <fix>3d</fix>
</trkpt>
<trkpt lat="33.810313" lon="-118.393867">
  <ele>-0.129</ele>
  <time>2026-09-01T01:14:00Z</time>
  <course>188.16</course>
  <speed>0.03605551275463989</speed>
  <fix>3d</fix>
</trkpt>
<trkpt lat="33.810313" lon="-118.393867">
  <ele>-0.12</ele>
  <time>2026-09-01T01:14:00Z</time>
  <course>0.0</course>
  <speed>0.0</speed>
  <fix>3d</fix>
</trkpt>
<trkpt lat="33.810313" lon="-118.393867">
  <ele>-0.128</ele>
  <time>2026-09-01T01:14:00Z</time>
  <course>188.16</course>
  <speed>0.03605551275463989</speed>
  <fix>3d</fix>
</trkpt>
<trkpt lat="33.810313" lon="-118.393867">
  <ele>-0.12</ele>
  <time>2026-09-01T01:14:00Z</time>
  <course>0.0</course>
  <speed>0.0</speed>
  <fix>3d</fix>
</trkpt>
<trkpt lat="33.810313" lon="-118.393867">
  <ele>-0.128</ele>
  <time>2026-09-01T01:14:00Z</time>
  <course>188.15</course>
  <speed>0.03605551275463989</speed>
  <fix>3d</fix>
</trkpt>
<trkpt lat="33.810313" lon="-118.393867">
  <ele>-0.12</ele>
  <time>2026-09-01T01:14:00Z</time>
  <course>0.0</course>
  <speed>0.0</speed>
  <fix>3d</fix>
</trkpt>
<trkpt lat="33.810313" lon="-118.393867">
  <ele>-0.127</ele>
  <time>2026-09-01T01:14:00Z</time>
  <course>188.14</course>
  <speed>0.03605551275463989</speed>
  <fix>3d</fix>
</trkpt>
<trkpt lat="33.810313" lon="-118.393867">
  <ele>-0.12</ele>
  <time>2026-09-01T01:14:00Z</time>
  <course>0.0</course>
  <speed>0.0</speed>
  <fix>3d</fix>
</trkpt>
<trkpt lat="33.810313" lon="-118.393867">
  <ele>-0.127</ele>
  <time>2026-09-01T01:14:00Z</time>
  <course>188.13</course>
  <speed>0.03605551275463989</speed>
  <fix>3d</fix>
</trkpt>
<trkpt lat="33.810313" lon="-118.393867">
  <ele>-0.12</ele>
  <time>2026-09-01T01:14:00Z</time>
  <course>0.0</course>
  <speed>0.0</speed>
  <fix>3d</fix>
</trkpt>
<trkpt lat="33.810313" lon="-118.393867">
  <ele>-0.128</ele>
  <time>2026-09-01T01:14:00Z</time>
  <course>188.12</course>
  <speed>0.03605551275463989</speed>
  <fix>3d</fix>
</trkpt>
<trkpt lat="33.810313" lon="-118.393867">
  <ele>-0.12</ele>
  <time>2026-09-01T01:14:00Z</time>
  <course>0.0</course>
  <speed>0.0</speed>
  <fix>3d</fix>
</trkpt>
<trkpt lat="33.810313" lon="-118.393867">
  <ele>-0.129</ele>
  <time>2026-09-01T01:14:00Z</time>
  <course>188.11</course>
  <speed>0.03605551275463989</speed>
  <fix>3d</fix>
</trkpt>
<trkpt lat="33.810313" lon="-118.393867">
  <ele>-0.12</ele>
  <time>2026-09-01T01:14:00Z</time>
  <course>0.0</course>
  <speed>0.0</speed>
  <fix>3d</fix>
</trkpt>
<trkpt lat="33.810313" lon="-118.393867">
  <ele>-0.131</ele>
  <time>2026-09-01T01:14:00Z</time>
  <course>188.11</course>
  <speed>0.03605551275463989</speed>
  <fix>3d</fix>
</trkpt>
<trkpt lat="33.810313" lon="-118.393867">
  <ele>-0.12</ele>
  <time>2026-09-01T01:14:00Z</time>
  <course>0.0</course>
  <speed>0.0</speed>
  <fix>3d</fix>
</trkpt>
<trkpt lat="33.810313" lon="-118.393867">
  <ele>-0.133</ele>
  <time>2026-09-01T01:14:00Z</time>
  <course>188.1</course>
  <speed>0.03605551275463989</speed>
  <fix>3d</fix>
</trkpt>
<trkpt lat="33.810313" lon="-118.393867">
  <ele>-0.12</ele>
  <time>2026-09-01T01:14:00Z</time>
  <course>0.0</course>
  <speed>0.0</speed>
  <fix>3d</fix>
</trkpt>
<trkpt lat="33.810313" lon="-118.393867">
  <ele>-0.135</ele>
  <time>2026-09-01T01:14:00Z</time>
  <course>188.09</course>
  <speed>0.03605551275463989</speed>
  <fix>3d</fix>
</trkpt>
<trkpt lat="33.810313" lon="-118.393867">
  <ele>-0.12</ele>
  <time>2026-09-01T01:14:00Z</time>
  <course>0.0</course>
  <speed>0.0</speed>
  <fix>3d</fix>
</trkpt>
<trkpt lat="33.810313" lon="-118.393867">
  <ele>-0.136</ele>
  <time>2026-09-01T01:14:00Z</time>
  <course>188.08</course>
  <speed>0.03605551275463989</speed>
  <fix>3d</fix>
</trkpt>
<trkpt lat="33.810313" lon="-118.393867">
  <ele>-0.12</ele>
  <time>2026-09-01T01:14:00Z</time>
  <course>0.0</course>
  <speed>0.0</speed>
  <fix>3d</fix>
</trkpt>
<trkpt lat="33.810313" lon="-118.393867">
  <ele>-0.136</ele>
  <time>2026-09-01T01:14:00Z</time>
  <course>188.07</course>
  <speed>0.03605551275463989</speed>
  <fix>3d</fix>
</trkpt>
<trkpt lat="33.810313" lon="-118.393867">
  <ele>-0.12</ele>
  <time>2026-09-01T01:14:00Z</time>
  <course>0.0</course>
  <speed>0.0</speed>
  <fix>3d</fix>
</trkpt>
<trkpt lat="33.810313" lon="-118.393867">
  <ele>-0.136</ele>
  <time>2026-09-01T01:14:00Z</time>
  <course>188.07</course>
  <speed>0.03605551275463989</speed>
  <fix>3d</fix>
</trkpt>
<trkpt lat="33.810313" lon="-118.393867">
  <ele>-0.12</ele>
  <time>2026-09-01T01:14:00Z</time>
  <course>0.0</course>
  <speed>0.0</speed>
  <fix>3d</fix>
</trkpt>
<trkpt lat="33.810313" lon="-118.393867">
  <ele>-0.135</ele>
  <time>2026-09-01T01:14:00Z</time>
  <course>188.06</course>
  <speed>0.03605551275463989</speed>
  <fix>3d</fix>
</trkpt>
<trkpt lat="33.810313" lon="-118.393867">
  <ele>-0.12</ele>
  <time>2026-09-01T01:14:00Z</time>
  <course>0.0</course>
  <speed>0.0</speed>
  <fix>3d</fix>
</trkpt>
<trkpt lat="33.810313" lon="-118.393867">
  <ele>-0.134</ele>
  <time>2026-09-01T01:14:00Z</time>
  <course>188.05</course>
  <speed>0.03605551275463989</speed>
  <fix>3d</fix>
</trkpt>
<trkpt lat="33.810313" lon="-118.393867">
  <ele>-0.12</ele>
  <time>2026-09-01T01:14:00Z</time>
  <course>0.0</course>
  <speed>0.0</speed>
  <fix>3d</fix>
</trkpt>
<trkpt lat="33.810313" lon="-118.393867">
  <ele>-0.131</ele>
  <time>2026-09-01T01:14:00Z</time>
  <course>188.04</course>
  <speed>0.03605551275463989</speed>
  <fix>3d</fix>
</trkpt>
<trkpt lat="33.810313" lon="-118.393867">
  <ele>-0.12</ele>
  <time>2026-09-01T01:14:00Z</time>
  <course>0.0</course>
  <speed>0.0</speed>
  <fix>3d</fix>
</trkpt>
<trkpt lat="33.810313" lon="-118.393867">
  <ele>-0.128</ele>
  <time>2026-09-01T01:14:00Z</time>
  <course>188.03</course>
  <speed>0.03605551275463989</speed>
  <fix>3d</fix>
</trkpt>
<trkpt lat="33.810313" lon="-118.393867">
  <ele>-0.12</ele>
  <time>2026-09-01T01:14:00Z</time>
  <course>0.0</course>
  <speed>0.0</speed>
  <fix>3d</fix>
</trkpt>
<trkpt lat="33.810313" lon="-118.393867">
  <ele>-0.126</ele>
  <time>2026-09-01T01:14:00Z</time>
  <course>188.03</course>
  <speed>0.03605551275463989</speed>
  <fix>3d</fix>
</trkpt>
<trkpt lat="33.810313" lon="-118.393867">
  <ele>-0.12</ele>
  <time>2026-09-01T01:14:00Z</time>
  <course>0.0</course>
  <speed>0.0</speed>
  <fix>3d</fix>
</trkpt>
<trkpt lat="33.810313" lon="-118.393867">
  <ele>-0.126</ele>
  <time>2026-09-01T01:14:00Z</time>
  <course>188.02</course>
  <speed>0.03605551275463989</speed>
  <fix>3d</fix>
</trkpt>
<trkpt lat="33.810313" lon="-118.393867">
  <ele>-0.12</ele>
  <time>2026-09-01T01:14:00Z</time>
  <course>0.0</course>
  <speed>0.0</speed>
  <fix>3d</fix>
</trkpt>
<trkpt lat="33.810313" lon="-118.393867">
  <ele>-0.126</ele>
  <time>2026-09-01T01:14:00Z</time>
  <course>188.01</course>
  <speed>0.03605551275463989</speed>
  <fix>3d</fix>
</trkpt>
<trkpt lat="33.810313" lon="-118.393867">
  <ele>-0.12</ele>
  <time>2026-09-01T01:14:00Z</time>
  <course>0.0</course>
  <speed>0.0</speed>
  <fix>3d</fix>
</trkpt>
<trkpt lat="33.810313" lon="-118.393867">
  <ele>-0.127</ele>
  <time>2026-09-01T01:14:00Z</time>
  <course>188.0</course>
  <speed>0.03605551275463989</speed>
  <fix>3d</fix>
</trkpt>
<trkpt lat="33.810313" lon="-118.393867">
  <ele>-0.12</ele>
  <time>2026-09-01T01:14:00Z</time>
  <course>0.0</course>
  <speed>0.0</speed>
  <fix>3d</fix>
</trkpt>
<trkpt lat="33.810313" lon="-118.393867">
  <ele>-0.127</ele>
  <time>2026-09-01T01:14:01Z</time>
  <course>187.99</course>
  <speed>0.03605551275463989</speed>
  <fix>3d</fix>
</trkpt>
<trkpt lat="33.810313" lon="-118.393867">
  <ele>-0.12</ele>
  <time>2026-09-01T01:14:01Z</time>
  <course>0.0</course>
  <speed>0.0</speed>
  <fix>3d</fix>
</trkpt>
<trkpt lat="33.810313" lon="-118.393867">
  <ele>-0.127</ele>
  <time>2026-09-01T01:14:01Z</time>
  <course>187.99</course>
  <speed>0.03605551275463989</speed>
  <fix>3d</fix>
</trkpt>
<trkpt lat="33.810313" lon="-118.393867">
  <ele>-0.12</ele>
  <time>2026-09-01T01:14:01Z</time>
  <course>0.0</course>
  <speed>0.0</speed>
  <fix>3d</fix>
</trkpt>
<trkpt lat="33.810313" lon="-118.393867">
  <ele>-0.128</ele>
  <time>2026-09-01T01:14:01Z</time>
  <course>187.98</course>
  <speed>0.03605551275463989</speed>
  <fix>3d</fix>
</trkpt>
<trkpt lat="33.810313" lon="-118.393867">
  <ele>-0.12</ele>
  <time>2026-09-01T01:14:01Z</time>
  <course>0.0</course>
  <speed>0.0</speed>
  <fix>3d</fix>
</trkpt>
<trkpt lat="33.810313" lon="-118.393867">
  <ele>-0.128</ele>
  <time>2026-09-01T01:14:01Z</time>
  <course>187.97</course>
  <speed>0.03605551275463989</speed>
  <fix>3d</fix>
</trkpt>
<trkpt lat="33.810313" lon="-118.393867">
  <ele>-0.12</ele>
  <time>2026-09-01T01:14:01Z</time>
  <course>0.0</course>
  <speed>0.0</speed>
  <fix>3d</fix>
</trkpt>
<trkpt lat="33.810313" lon="-118.393867">
  <ele>-0.127</ele>
  <time>2026-09-01T01:14:01Z</time>
  <course>187.96</course>
  <speed>0.03605551275463989</speed>
  <fix>3d</fix>
</trkpt>
<trkpt lat="33.810313" lon="-118.393867">
  <ele>-0.12</ele>
  <time>2026-09-01T01:14:01Z</time>
  <course>0.0</course>
  <speed>0.0</speed>
  <fix>3d</fix>
</trkpt>
<trkpt lat="33.810313" lon="-118.393867">
  <ele>-0.126</ele>
  <time>2026-09-01T01:14:01Z</time>
  <course>187.95</course>
  <speed>0.03605551275463989</speed>
  <fix>3d</fix>
</trkpt>
<trkpt lat="33.810313" lon="-118.393867">
  <ele>-0.12</ele>
  <time>2026-09-01T01:14:01Z</time>
  <course>0.0</course>
  <speed>0.0</speed>
  <fix>3d</fix>
</trkpt>
<trkpt lat="33.810313" lon="-118.393867">
  <ele>-0.123</ele>
  <time>2026-09-01T01:14:01Z</time>
  <course>187.95</course>
  <speed>0.03605551275463989</speed>
  <fix>3d</fix>
</trkpt>
<trkpt lat="33.810313" lon="-118.393867">
  <ele>-0.12</ele>
  <time>2026-09-01T01:14:01Z</time>
  <course>0.0</course>
  <speed>0.0</speed>
  <fix>3d</fix>
</trkpt>
<trkpt lat="33.810313" lon="-118.393867">
  <ele>-0.121</ele>
  <time>2026-09-01T01:14:01Z</time>
  <course>187.94</course>
  <speed>0.03605551275463989</speed>
  <fix>3d</fix>
</trkpt>
<trkpt lat="33.810313" lon="-118.393867">
  <ele>-0.12</ele>
  <time>2026-09-01T01:14:01Z</time>
  <course>0.0</course>
  <speed>0.0</speed>
  <fix>3d</fix>
</trkpt>
<trkpt lat="33.810313" lon="-118.393867">
  <ele>-0.12</ele>
  <time>2026-09-01T01:14:01Z</time>
  <course>187.93</course>
  <speed>0.03605551275463989</speed>
  <fix>3d</fix>
</trkpt>
<trkpt lat="33.810313" lon="-118.393867">
  <ele>-0.12</ele>
  <time>2026-09-01T01:14:01Z</time>
  <course>0.0</course>
  <speed>0.0</speed>
  <fix>3d</fix>
</trkpt>
<trkpt lat="33.810313" lon="-118.393867">
  <ele>-0.12</ele>
  <time>2026-09-01T01:14:01Z</time>
  <course>187.92</course>
  <speed>0.03605551275463989</speed>
  <fix>3d</fix>
</trkpt>
<trkpt lat="33.810313" lon="-118.393867">
  <ele>-0.12</ele>
  <time>2026-09-01T01:14:01Z</time>
  <course>0.0</course>
  <speed>0.0</speed>
  <fix>3d</fix>
</trkpt>
<trkpt lat="33.810313" lon="-118.393867">
  <ele>-0.122</ele>
  <time>2026-09-01T01:14:01Z</time>
  <course>187.92</course>
  <speed>0.03605551275463989</speed>
  <fix>3d</fix>
</trkpt>
<trkpt lat="33.810313" lon="-118.393867">
  <ele>-0.12</ele>
  <time>2026-09-01T01:14:01Z</time>
  <course>0.0</course>
  <speed>0.0</speed>
  <fix>3d</fix>
</trkpt>
<trkpt lat="33.810313" lon="-118.393867">
  <ele>-0.125</ele>
  <time>2026-09-01T01:14:01Z</time>
  <course>187.91</course>
  <speed>0.04242640687119285</speed>
  <fix>3d</fix>
</trkpt>
<trkpt lat="33.810313" lon="-118.393867">
  <ele>-0.12</ele>
  <time>2026-09-01T01:14:01Z</time>
  <course>0.0</course>
  <speed>0.0</speed>
  <fix>3d</fix>
</trkpt>
<trkpt lat="33.810313" lon="-118.393867">
  <ele>-0.129</ele>
  <time>2026-09-01T01:14:01Z</time>
  <course>187.9</course>
  <speed>0.04242640687119285</speed>
  <fix>3d</fix>
</trkpt>
<trkpt lat="33.810313" lon="-118.393867">
  <ele>-0.12</ele>
  <time>2026-09-01T01:14:01Z</time>
  <course>0.0</course>
  <speed>0.0</speed>
  <fix>3d</fix>
</trkpt>
<trkpt lat="33.810313" lon="-118.393867">
  <ele>-0.131</ele>
  <time>2026-09-01T01:14:01Z</time>
  <course>187.89</course>
  <speed>0.04242640687119285</speed>
  <fix>3d</fix>
</trkpt>
<trkpt lat="33.810313" lon="-118.393867">
  <ele>-0.12</ele>
  <time>2026-09-01T01:14:01Z</time>
  <course>0.0</course>
  <speed>0.0</speed>
  <fix>3d</fix>
</trkpt>
<trkpt lat="33.810313" lon="-118.393867">
  <ele>-0.132</ele>
  <time>2026-09-01T01:14:01Z</time>
  <course>187.88</course>
  <speed>0.04242640687119285</speed>
  <fix>3d</fix>
</trkpt>
<trkpt lat="33.810313" lon="-118.393867">
  <ele>-0.12</ele>
  <time>2026-09-01T01:14:01Z</time>
  <course>0.0</course>
  <speed>0.0</speed>
  <fix>3d</fix>
</trkpt>
<trkpt lat="33.810313" lon="-118.393867">
  <ele>-0.132</ele>
  <time>2026-09-01T01:14:01Z</time>
  <course>187.88</course>
  <speed>0.04242640687119285</speed>
  <fix>3d</fix>
</trkpt>
<trkpt lat="33.810313" lon="-118.393867">
  <ele>-0.12</ele>
  <time>2026-09-01T01:14:01Z</time>
  <course>0.0</course>
  <speed>0.0</speed>
  <fix>3d</fix>
</trkpt>
<trkpt lat="33.810313" lon="-118.393867">
  <ele>-0.132</ele>
  <time>2026-09-01T01:14:01Z</time>
  <course>187.87</course>
  <speed>0.04242640687119285</speed>
  <fix>3d</fix>
</trkpt>
<trkpt lat="33.810313" lon="-118.393867">
  <ele>-0.12</ele>
  <time>2026-09-01T01:14:01Z</time>
  <course>0.0</course>
  <speed>0.0</speed>
  <fix>3d</fix>
</trkpt>
<trkpt lat="33.810313" lon="-118.393867">
  <ele>-0.13</ele>
  <time>2026-09-01T01:14:01Z</time>
  <course>187.86</course>
  <speed>0.05</speed>
  <fix>3d</fix>
</trkpt>
<trkpt lat="33.810313" lon="-118.393867">
  <ele>-0.12</ele>
  <time>2026-09-01T01:14:01Z</time>
  <course>0.0</course>
  <speed>0.0</speed>
  <fix>3d</fix>
</trkpt>
<trkpt lat="33.810313" lon="-118.393867">
  <ele>-0.127</ele>
  <time>2026-09-01T01:14:01Z</time>
  <course>187.85</course>
  <speed>0.05</speed>
  <fix>3d</fix>
</trkpt>
<trkpt lat="33.810313" lon="-118.393867">
  <ele>-0.12</ele>
  <time>2026-09-01T01:14:01Z</time>
  <course>0.0</course>
  <speed>0.0</speed>
  <fix>3d</fix>
</trkpt>
<trkpt lat="33.810313" lon="-118.393867">
  <ele>-0.123</ele>
  <time>2026-09-01T01:14:01Z</time>
  <course>187.85</course>
  <speed>0.05</speed>
  <fix>3d</fix>
</trkpt>
<trkpt lat="33.810313" lon="-118.393867">
  <ele>-0.12</ele>
  <time>2026-09-01T01:14:01Z</time>
  <course>0.0</course>
  <speed>0.0</speed>
  <fix>3d</fix>
</trkpt>
<trkpt lat="33.810313" lon="-118.393867">
  <ele>-0.121</ele>
  <time>2026-09-01T01:14:01Z</time>
  <course>187.84</course>
  <speed>0.05</speed>
  <fix>3d</fix>
</trkpt>
<trkpt lat="33.810313" lon="-118.393867">
  <ele>-0.12</ele>
  <time>2026-09-01T01:14:01Z</time>
  <course>0.0</course>
  <speed>0.0</speed>
  <fix>3d</fix>
</trkpt>
<trkpt lat="33.810313" lon="-118.393867">
  <ele>-0.121</ele>
  <time>2026-09-01T01:14:01Z</time>
  <course>187.83</course>
  <speed>0.05</speed>
  <fix>3d</fix>
</trkpt>
<trkpt lat="33.810313" lon="-118.393867">
  <ele>-0.12</ele>
  <time>2026-09-01T01:14:01Z</time>
  <course>0.0</course>
  <speed>0.0</speed>
  <fix>3d</fix>
</trkpt>
<trkpt lat="33.810313" lon="-118.393867">
  <ele>-0.123</ele>
  <time>2026-09-01T01:14:01Z</time>
  <course>187.82</course>
  <speed>0.05</speed>
  <fix>3d</fix>
</trkpt>
<trkpt lat="33.810313" lon="-118.393867">
  <ele>-0.12</ele>
  <time>2026-09-01T01:14:01Z</time>
  <course>0.0</course>
  <speed>0.0</speed>
  <fix>3d</fix>
</trkpt>
<trkpt lat="33.810313" lon="-118.393867">
  <ele>-0.124</ele>
  <time>2026-09-01T01:14:01Z</time>
  <course>187.81</course>
  <speed>0.05</speed>
  <fix>3d</fix>
</trkpt>
<trkpt lat="33.810313" lon="-118.393867">
  <ele>-0.12</ele>
  <time>2026-09-01T01:14:01Z</time>
  <course>0.0</course>
  <speed>0.0</speed>
  <fix>3d</fix>
</trkpt>
<trkpt lat="33.810313" lon="-118.393867">
  <ele>-0.126</ele>
  <time>2026-09-01T01:14:01Z</time>
  <course>187.81</course>
  <speed>0.05</speed>
  <fix>3d</fix>
</trkpt>
<trkpt lat="33.810313" lon="-118.393867">
  <ele>-0.12</ele>
  <time>2026-09-01T01:14:01Z</time>
  <course>0.0</course>
  <speed>0.0</speed>
  <fix>3d</fix>
</trkpt>
<trkpt lat="33.810313" lon="-118.393867">
  <ele>-0.127</ele>
  <time>2026-09-01T01:14:01Z</time>
  <course>187.8</course>
  <speed>0.05</speed>
  <fix>3d</fix>
</trkpt>
<trkpt lat="33.810313" lon="-118.393867">
  <ele>-0.12</ele>
  <time>2026-09-01T01:14:01Z</time>
  <course>0.0</course>
  <speed>0.0</speed>
  <fix>3d</fix>
</trkpt>
<trkpt lat="33.810313" lon="-118.393867">
  <ele>-0.127</ele>
  <time>2026-09-01T01:14:01Z</time>
  <course>187.79</course>
  <speed>0.05</speed>
  <fix>3d</fix>
</trkpt>
<trkpt lat="33.810313" lon="-118.393867">
  <ele>-0.12</ele>
  <time>2026-09-01T01:14:01Z</time>
  <course>0.0</course>
  <speed>0.0</speed>
  <fix>3d</fix>
</trkpt>
<trkpt lat="33.810313" lon="-118.393867">
  <ele>-0.127</ele>
  <time>2026-09-01T01:14:01Z</time>
  <course>187.79</course>
  <speed>0.05</speed>
  <fix>3d</fix>
</trkpt>
<trkpt lat="33.810313" lon="-118.393867">
  <ele>-0.12</ele>
  <time>2026-09-01T01:14:01Z</time>
  <course>0.0</course>
  <speed>0.0</speed>
  <fix>3d</fix>
</trkpt>
<trkpt lat="33.810313" lon="-118.393867">
  <ele>-0.126</ele>
  <time>2026-09-01T01:14:01Z</time>
  <course>187.78</course>
  <speed>0.05</speed>
  <fix>3d</fix>
</trkpt>
<trkpt lat="33.810313" lon="-118.393867">
  <ele>-0.12</ele>
  <time>2026-09-01T01:14:01Z</time>
  <course>0.0</course>
  <speed>0.0</speed>
  <fix>3d</fix>
</trkpt>
<trkpt lat="33.810313" lon="-118.393867">
  <ele>-0.124</ele>
  <time>2026-09-01T01:14:01Z</time>
  <course>187.77</course>
  <speed>0.05</speed>
  <fix>3d</fix>
</trkpt>
<trkpt lat="33.810313" lon="-118.393867">
  <ele>-0.12</ele>
  <time>2026-09-01T01:14:01Z</time>
  <course>0.0</course>
  <speed>0.0</speed>
  <fix>3d</fix>
</trkpt>
<trkpt lat="33.810313" lon="-118.393867">
  <ele>-0.121</ele>
  <time>2026-09-01T01:14:01Z</time>
  <course>187.76</course>
  <speed>0.05</speed>
  <fix>3d</fix>
</trkpt>
<trkpt lat="33.810313" lon="-118.393867">
  <ele>-0.12</ele>
  <time>2026-09-01T01:14:01Z</time>
  <course>0.0</course>
  <speed>0.0</speed>
  <fix>3d</fix>
</trkpt>
<trkpt lat="33.810313" lon="-118.393867">
  <ele>-0.119</ele>
  <time>2026-09-01T01:14:01Z</time>
  <course>187.75</course>
  <speed>0.05</speed>
  <fix>3d</fix>
</trkpt>
<trkpt lat="33.810313" lon="-118.393867">
  <ele>-0.12</ele>
  <time>2026-09-01T01:14:01Z</time>
  <course>0.0</course>
  <speed>0.0</speed>
  <fix>3d</fix>
</trkpt>
<trkpt lat="33.810313" lon="-118.393867">
  <ele>-0.118</ele>
  <time>2026-09-01T01:14:01Z</time>
  <course>187.75</course>
  <speed>0.05</speed>
  <fix>3d</fix>
</trkpt>
<trkpt lat="33.810313" lon="-118.393867">
  <ele>-0.12</ele>
  <time>2026-09-01T01:14:01Z</time>
  <course>0.0</course>
  <speed>0.0</speed>
  <fix>3d</fix>
</trkpt>
<trkpt lat="33.810313" lon="-118.393867">
  <ele>-0.118</ele>
  <time>2026-09-01T01:14:01Z</time>
  <course>187.74</course>
  <speed>0.05</speed>
  <fix>3d</fix>
</trkpt>
<trkpt lat="33.810313" lon="-118.393867">
  <ele>-0.12</ele>
  <time>2026-09-01T01:14:01Z</time>
  <course>0.0</course>
  <speed>0.0</speed>
  <fix>3d</fix>
</trkpt>
<trkpt lat="33.810313" lon="-118.393867">
  <ele>-0.119</ele>
  <time>2026-09-01T01:14:01Z</time>
  <course>187.73</course>
  <speed>0.05</speed>
  <fix>3d</fix>
</trkpt>
<trkpt lat="33.810313" lon="-118.393867">
  <ele>-0.12</ele>
  <time>2026-09-01T01:14:01Z</time>
  <course>0.0</course>
  <speed>0.0</speed>
  <fix>3d</fix>
</trkpt>
<trkpt lat="33.810313" lon="-118.393867">
  <ele>-0.12</ele>
  <time>2026-09-01T01:14:01Z</time>
  <course>187.73</course>
  <speed>0.05</speed>
  <fix>3d</fix>
</trkpt>
<trkpt lat="33.810313" lon="-118.393867">
  <ele>-0.12</ele>
  <time>2026-09-01T01:14:01Z</time>
  <course>0.0</course>
  <speed>0.0</speed>
  <fix>3d</fix>
</trkpt>
<trkpt lat="33.810313" lon="-118.393867">
  <ele>-0.12</ele>
  <time>2026-09-01T01:14:01Z</time>
  <course>187.72</course>
  <speed>0.05</speed>
  <fix>3d</fix>
</trkpt>
<trkpt lat="33.810313" lon="-118.393867">
  <ele>-0.12</ele>
  <time>2026-09-01T01:14:01Z</time>
  <course>0.0</course>
  <speed>0.0</speed>
  <fix>3d</fix>
</trkpt>
<trkpt lat="33.810313" lon="-118.393867">
  <ele>-0.12</ele>
  <time>2026-09-01T01:14:01Z</time>
  <course>187.71</course>
  <speed>0.05</speed>
  <fix>3d</fix>
</trkpt>
<trkpt lat="33.810313" lon="-118.393867">
  <ele>-0.12</ele>
  <time>2026-09-01T01:14:01Z</time>
  <course>0.0</course>
  <speed>0.0</speed>
  <fix>3d</fix>
</trkpt>
<trkpt lat="33.810313" lon="-118.393867">
  <ele>-0.119</ele>
  <time>2026-09-01T01:14:01Z</time>
  <course>187.7</course>
  <speed>0.05</speed>
  <fix>3d</fix>
</trkpt>
<trkpt lat="33.810313" lon="-118.393867">
  <ele>-0.12</ele>
  <time>2026-09-01T01:14:01Z</time>
  <course>0.0</course>
  <speed>0.0</speed>
  <fix>3d</fix>
</trkpt>
<trkpt lat="33.810313" lon="-118.393867">
  <ele>-0.118</ele>
  <time>2026-09-01T01:14:01Z</time>
  <course>187.7</course>
  <speed>0.05</speed>
  <fix>3d</fix>
</trkpt>
<trkpt lat="33.810313" lon="-118.393867">
  <ele>-0.12</ele>
  <time>2026-09-01T01:14:01Z</time>
  <course>0.0</course>
  <speed>0.0</speed>
  <fix>3d</fix>
</trkpt>
<trkpt lat="33.810313" lon="-118.393867">
  <ele>-0.116</ele>
  <time>2026-09-01T01:14:01Z</time>
  <course>187.69</course>
  <speed>0.05</speed>
  <fix>3d</fix>
</trkpt>
<trkpt lat="33.810313" lon="-118.393867">
  <ele>-0.12</ele>
  <time>2026-09-01T01:14:01Z</time>
  <course>0.0</course>
  <speed>0.0</speed>
  <fix>3d</fix>
</trkpt>
<trkpt lat="33.810313" lon="-118.393867">
  <ele>-0.113</ele>
  <time>2026-09-01T01:14:01Z</time>
  <course>187.68</course>
  <speed>0.05</speed>
  <fix>3d</fix>
</trkpt>
<trkpt lat="33.810313" lon="-118.393867">
  <ele>-0.12</ele>
  <time>2026-09-01T01:14:01Z</time>
  <course>0.0</course>
  <speed>0.0</speed>
  <fix>3d</fix>
</trkpt>
<trkpt lat="33.810313" lon="-118.393867">
  <ele>-0.112</ele>
  <time>2026-09-01T01:14:01Z</time>
  <course>187.68</course>
  <speed>0.05</speed>
  <fix>3d</fix>
</trkpt>
<trkpt lat="33.810313" lon="-118.393867">
  <ele>-0.12</ele>
  <time>2026-09-01T01:14:01Z</time>
  <course>0.0</course>
  <speed>0.0</speed>
  <fix>3d</fix>
</trkpt>
<trkpt lat="33.810313" lon="-118.393867">
  <ele>-0.113</ele>
  <time>2026-09-01T01:14:01Z</time>
  <course>187.67</course>
  <speed>0.05</speed>
  <fix>3d</fix>
</trkpt>
<trkpt lat="33.810313" lon="-118.393867">
  <ele>-0.12</ele>
  <time>2026-09-01T01:14:01Z</time>
  <course>0.0</course>
  <speed>0.0</speed>
  <fix>3d</fix>
</trkpt>
<trkpt lat="33.810313" lon="-118.393867">
  <ele>-0.115</ele>
  <time>2026-09-01T01:14:01Z</time>
  <course>187.66</course>
  <speed>0.05</speed>
  <fix>3d</fix>
</trkpt>
<trkpt lat="33.810313" lon="-118.393867">
  <ele>-0.12</ele>
  <time>2026-09-01T01:14:01Z</time>
  <course>0.0</course>
  <speed>0.0</speed>
  <fix>3d</fix>
</trkpt>
<trkpt lat="33.810313" lon="-118.393867">
  <ele>-0.119</ele>
  <time>2026-09-01T01:14:01Z</time>
  <course>187.65</course>
  <speed>0.05</speed>
  <fix>3d</fix>
</trkpt>
<trkpt lat="33.810313" lon="-118.393867">
  <ele>-0.12</ele>
  <time>2026-09-01T01:14:01Z</time>
  <course>0.0</course>
  <speed>0.0</speed>
  <fix>3d</fix>
</trkpt>
<trkpt lat="33.810313" lon="-118.393867">
  <ele>-0.124</ele>
  <time>2026-09-01T01:14:01Z</time>
  <course>187.65</course>
  <speed>0.05</speed>
  <fix>3d</fix>
</trkpt>
<trkpt lat="33.810313" lon="-118.393867">
  <ele>-0.12</ele>
  <time>2026-09-01T01:14:01Z</time>
  <course>0.0</course>
  <speed>0.0</speed>
  <fix>3d</fix>
</trkpt>
<trkpt lat="33.810313" lon="-118.393867">
  <ele>-0.129</ele>
  <time>2026-09-01T01:14:01Z</time>
  <course>187.64</course>
  <speed>0.05</speed>
  <fix>3d</fix>
</trkpt>
<trkpt lat="33.810313" lon="-118.393867">
  <ele>-0.12</ele>
  <time>2026-09-01T01:14:01Z</time>
  <course>0.0</course>
  <speed>0.0</speed>
  <fix>3d</fix>
</trkpt>
<trkpt lat="33.810313" lon="-118.393867">
  <ele>-0.133</ele>
  <time>2026-09-01T01:14:01Z</time>
  <course>187.63</course>
  <speed>0.05</speed>
  <fix>3d</fix>
</trkpt>
<trkpt lat="33.810313" lon="-118.393867">
  <ele>-0.12</ele>
  <time>2026-09-01T01:14:01Z</time>
  <course>0.0</course>
  <speed>0.0</speed>
  <fix>3d</fix>
</trkpt>
<trkpt lat="33.810313" lon="-118.393867">
  <ele>-0.135</ele>
  <time>2026-09-01T01:14:01Z</time>
  <course>187.63</course>
  <speed>0.05</speed>
  <fix>3d</fix>
</trkpt>
<trkpt lat="33.810313" lon="-118.393867">
  <ele>-0.12</ele>
  <time>2026-09-01T01:14:01Z</time>
  <course>0.0</course>
  <speed>0.0</speed>
  <fix>3d</fix>
</trkpt>
<trkpt lat="33.810313" lon="-118.393867">
  <ele>-0.135</ele>
  <time>2026-09-01T01:14:01Z</time>
  <course>187.62</course>
  <speed>0.05830951894845301</speed>
  <fix>3d</fix>
</trkpt>
<trkpt lat="33.810313" lon="-118.393867">
  <ele>-0.12</ele>
  <time>2026-09-01T01:14:01Z</time>
  <course>0.0</course>
  <speed>0.0</speed>
  <fix>3d</fix>
</trkpt>
<trkpt lat="33.810313" lon="-118.393867">
  <ele>-0.135</ele>
  <time>2026-09-01T01:14:01Z</time>
  <course>187.61</course>
  <speed>0.05830951894845301</speed>
  <fix>3d</fix>
</trkpt>
<trkpt lat="33.810313" lon="-118.393867">
  <ele>-0.12</ele>
  <time>2026-09-01T01:14:01Z</time>
  <course>0.0</course>
  <speed>0.0</speed>
  <fix>3d</fix>
</trkpt>
<trkpt lat="33.810313" lon="-118.393867">
  <ele>-0.133</ele>
  <time>2026-09-01T01:14:01Z</time>
  <course>187.61</course>
  <speed>0.05830951894845301</speed>
  <fix>3d</fix>
</trkpt>
<trkpt lat="33.810313" lon="-118.393867">
  <ele>-0.12</ele>
  <time>2026-09-01T01:14:01Z</time>
  <course>0.0</course>
  <speed>0.0</speed>
  <fix>3d</fix>
</trkpt>
<trkpt lat="33.810313" lon="-118.393867">
  <ele>-0.132</ele>
  <time>2026-09-01T01:14:01Z</time>
  <course>187.6</course>
  <speed>0.05830951894845301</speed>
  <fix>3d</fix>
</trkpt>
<trkpt lat="33.810313" lon="-118.393867">
  <ele>-0.12</ele>
  <time>2026-09-01T01:14:01Z</time>
  <course>0.0</course>
  <speed>0.0</speed>
  <fix>3d</fix>
</trkpt>
<trkpt lat="33.810313" lon="-118.393867">
  <ele>-0.132</ele>
  <time>2026-09-01T01:14:01Z</time>
  <course>187.6</course>
  <speed>0.06403124237432849</speed>
  <fix>3d</fix>
</trkpt>
<trkpt lat="33.810313" lon="-118.393867">
  <ele>-0.12</ele>
  <time>2026-09-01T01:14:01Z</time>
  <course>0.0</course>
  <speed>0.0</speed>
  <fix>3d</fix>
</trkpt>
<trkpt lat="33.810313" lon="-118.393867">
  <ele>-0.133</ele>
  <time>2026-09-01T01:14:01Z</time>
  <course>187.59</course>
  <speed>0.06403124237432849</speed>
  <fix>3d</fix>
</trkpt>
<trkpt lat="33.810313" lon="-118.393867">
  <ele>-0.12</ele>
  <time>2026-09-01T01:14:01Z</time>
  <course>0.0</course>
  <speed>0.0</speed>
  <fix>3d</fix>
</trkpt>
<trkpt lat="33.810313" lon="-118.393867">
  <ele>-0.134</ele>
  <time>2026-09-01T01:14:01Z</time>
  <course>187.58</course>
  <speed>0.06403124237432849</speed>
  <fix>3d</fix>
</trkpt>
<trkpt lat="33.810313" lon="-118.393867">
  <ele>-0.12</ele>
  <time>2026-09-01T01:14:01Z</time>
  <course>0.0</course>
  <speed>0.0</speed>
  <fix>3d</fix>
</trkpt>
<trkpt lat="33.810313" lon="-118.393867">
  <ele>-0.134</ele>
  <time>2026-09-01T01:14:01Z</time>
  <course>187.57</course>
  <speed>0.06403124237432849</speed>
  <fix>3d</fix>
</trkpt>
<trkpt lat="33.810313" lon="-118.393867">
  <ele>-0.12</ele>
  <time>2026-09-01T01:14:01Z</time>
  <course>0.0</course>
  <speed>0.0</speed>
  <fix>3d</fix>
</trkpt>
<trkpt lat="33.810313" lon="-118.393867">
  <ele>-0.134</ele>
  <time>2026-09-01T01:14:01Z</time>
  <course>187.57</course>
  <speed>0.06403124237432849</speed>
  <fix>3d</fix>
</trkpt>
<trkpt lat="33.810313" lon="-118.393867">
  <ele>-0.12</ele>
  <time>2026-09-01T01:14:01Z</time>
  <course>0.0</course>
  <speed>0.0</speed>
  <fix>3d</fix>
</trkpt>
<trkpt lat="33.810313" lon="-118.393867">
  <ele>-0.132</ele>
  <time>2026-09-01T01:14:01Z</time>
  <course>187.56</course>
  <speed>0.06403124237432849</speed>
  <fix>3d</fix>
</trkpt>
<trkpt lat="33.810313" lon="-118.393867">
  <ele>-0.12</ele>
  <time>2026-09-01T01:14:01Z</time>
  <course>0.0</course>
  <speed>0.0</speed>
  <fix>3d</fix>
</trkpt>
<trkpt lat="33.810313" lon="-118.393867">
  <ele>-0.13</ele>
  <time>2026-09-01T01:14:01Z</time>
  <course>187.55</course>
  <speed>0.06403124237432849</speed>
  <fix>3d</fix>
</trkpt>
<trkpt lat="33.810313" lon="-118.393867">
  <ele>-0.12</ele>
  <time>2026-09-01T01:14:01Z</time>
  <course>0.0</course>
  <speed>0.0</speed>
  <fix>3d</fix>
</trkpt>
<trkpt lat="33.810313" lon="-118.393867">
  <ele>-0.127</ele>
  <time>2026-09-01T01:14:01Z</time>
  <course>187.55</course>
  <speed>0.06403124237432849</speed>
  <fix>3d</fix>
</trkpt>
<trkpt lat="33.810313" lon="-118.393867">
  <ele>-0.12</ele>
  <time>2026-09-01T01:14:01Z</time>
  <course>0.0</course>
  <speed>0.0</speed>
  <fix>3d</fix>
</trkpt>
<trkpt lat="33.810313" lon="-118.393867">
  <ele>-0.125</ele>
  <time>2026-09-01T01:14:01Z</time>
  <course>187.54</course>
  <speed>0.06403124237432849</speed>
  <fix>3d</fix>
</trkpt>
<trkpt lat="33.810313" lon="-118.393867">
  <ele>-0.12</ele>
  <time>2026-09-01T01:14:01Z</time>
  <course>0.0</course>
  <speed>0.0</speed>
  <fix>3d</fix>
</trkpt>
<trkpt lat="33.810313" lon="-118.393867">
  <ele>-0.122</ele>
  <time>2026-09-01T01:14:01Z</time>
  <course>187.53</course>
  <speed>0.06403124237432849</speed>
  <fix>3d</fix>
</trkpt>
<trkpt lat="33.810313" lon="-118.393867">
  <ele>-0.12</ele>
  <time>2026-09-01T01:14:01Z</time>
  <course>0.0</course>
  <speed>0.0</speed>
  <fix>3d</fix>
</trkpt>
<trkpt lat="33.810313" lon="-118.393867">
  <ele>-0.119</ele>
  <time>2026-09-01T01:14:01Z</time>
  <course>187.53</course>
  <speed>0.06403124237432849</speed>
  <fix>3d</fix>
</trkpt>
<trkpt lat="33.810313" lon="-118.393867">
  <ele>-0.12</ele>
  <time>2026-09-01T01:14:01Z</time>
  <course>0.0</course>
  <speed>0.0</speed>
  <fix>3d</fix>
</trkpt>
<trkpt lat="33.810313" lon="-118.393867">
  <ele>-0.117</ele>
  <time>2026-09-01T01:14:01Z</time>
  <course>187.52</course>
  <speed>0.06403124237432849</speed>
  <fix>3d</fix>
</trkpt>
<trkpt lat="33.810313" lon="-118.393867">
  <ele>-0.12</ele>
  <time>2026-09-01T01:14:01Z</time>
  <course>0.0</course>
  <speed>0.0</speed>
  <fix>3d</fix>
</trkpt>
<trkpt lat="33.810313" lon="-118.393867">
  <ele>-0.117</ele>
  <time>2026-09-01T01:14:01Z</time>
  <course>187.51</course>
  <speed>0.06403124237432849</speed>
  <fix>3d</fix>
</trkpt>
<trkpt lat="33.810313" lon="-118.393867">
  <ele>-0.12</ele>
  <time>2026-09-01T01:14:01Z</time>
  <course>0.0</course>
  <speed>0.0</speed>
  <fix>3d</fix>
</trkpt>
<trkpt lat="33.810313" lon="-118.393867">
  <ele>-0.118</ele>
  <time>2026-09-01T01:14:01Z</time>
  <course>187.51</course>
  <speed>0.06403124237432849</speed>
  <fix>3d</fix>
</trkpt>
<trkpt lat="33.810313" lon="-118.393867">
  <ele>-0.12</ele>
  <time>2026-09-01T01:14:01Z</time>
  <course>0.0</course>
  <speed>0.0</speed>
  <fix>3d</fix>
</trkpt>
<trkpt lat="33.810313" lon="-118.393867">
  <ele>-0.119</ele>
  <time>2026-09-01T01:14:01Z</time>
  <course>187.5</course>
  <speed>0.06403124237432849</speed>
  <fix>3d</fix>
</trkpt>
<trkpt lat="33.810313" lon="-118.393867">
  <ele>-0.12</ele>
  <time>2026-09-01T01:14:01Z</time>
  <course>0.0</course>
  <speed>0.0</speed>
  <fix>3d</fix>
</trkpt>
<trkpt lat="33.810313" lon="-118.393867">
  <ele>-0.12</ele>
  <time>2026-09-01T01:14:01Z</time>
  <course>187.49</course>
  <speed>0.06403124237432849</speed>
  <fix>3d</fix>
</trkpt>
<trkpt lat="33.810313" lon="-118.393867">
  <ele>-0.12</ele>
  <time>2026-09-01T01:14:01Z</time>
  <course>0.0</course>
  <speed>0.0</speed>
  <fix>3d</fix>
</trkpt>
<trkpt lat="33.810313" lon="-118.393867">
  <ele>-0.121</ele>
  <time>2026-09-01T01:14:01Z</time>
  <course>187.49</course>
  <speed>0.06403124237432849</speed>
  <fix>3d</fix>
</trkpt>
<trkpt lat="33.810313" lon="-118.393867">
  <ele>-0.12</ele>
  <time>2026-09-01T01:14:01Z</time>
  <course>0.0</course>
  <speed>0.0</speed>
  <fix>3d</fix>
</trkpt>
<trkpt lat="33.810313" lon="-118.393867">
  <ele>-0.121</ele>
  <time>2026-09-01T01:14:01Z</time>
  <course>187.48</course>
  <speed>0.06403124237432849</speed>
  <fix>3d</fix>
</trkpt>
<trkpt lat="33.810313" lon="-118.393867">
  <ele>-0.12</ele>
  <time>2026-09-01T01:14:01Z</time>
  <course>0.0</course>
  <speed>0.0</speed>
  <fix>3d</fix>
</trkpt>
<trkpt lat="33.810313" lon="-118.393867">
  <ele>-0.121</ele>
  <time>2026-09-01T01:14:01Z</time>
  <course>187.47</course>
  <speed>0.06403124237432849</speed>
  <fix>3d</fix>
</trkpt>
<trkpt lat="33.810313" lon="-118.393867">
  <ele>-0.12</ele>
  <time>2026-09-01T01:14:01Z</time>
  <course>0.0</course>
  <speed>0.0</speed>
  <fix>3d</fix>
</trkpt>
<trkpt lat="33.810313" lon="-118.393867">
  <ele>-0.121</ele>
  <time>2026-09-01T01:14:01Z</time>
  <course>187.47</course>
  <speed>0.06403124237432849</speed>
  <fix>3d</fix>
</trkpt>
<trkpt lat="33.810313" lon="-118.393867">
  <ele>-0.12</ele>
  <time>2026-09-01T01:14:01Z</time>
  <course>0.0</course>
  <speed>0.0</speed>
  <fix>3d</fix>
</trkpt>
<trkpt lat="33.810313" lon="-118.393867">
  <ele>-0.121</ele>
  <time>2026-09-01T01:14:01Z</time>
  <course>187.46</course>
  <speed>0.06403124237432849</speed>
  <fix>3d</fix>
</trkpt>
<trkpt lat="33.810313" lon="-118.393867">
  <ele>-0.12</ele>
  <time>2026-09-01T01:14:01Z</time>
  <course>0.0</course>
  <speed>0.0</speed>
  <fix>3d</fix>
</trkpt>
<trkpt lat="33.810313" lon="-118.393867">
  <ele>-0.121</ele>
  <time>2026-09-01T01:14:01Z</time>
  <course>187.45</course>
  <speed>0.06403124237432849</speed>
  <fix>3d</fix>
</trkpt>
<trkpt lat="33.810313" lon="-118.393867">
  <ele>-0.12</ele>
  <time>2026-09-01T01:14:01Z</time>
  <course>0.0</course>
  <speed>0.0</speed>
  <fix>3d</fix>
</trkpt>
<trkpt lat="33.810313" lon="-118.393867">
  <ele>-0.122</ele>
  <time>2026-09-01T01:14:01Z</time>
  <course>187.45</course>
  <speed>0.07211102550927978</speed>
  <fix>3d</fix>
</trkpt>
<trkpt lat="33.810313" lon="-118.393867">
  <ele>-0.12</ele>
  <time>2026-09-01T01:14:01Z</time>
  <course>0.0</course>
  <speed>0.0</speed>
  <fix>3d</fix>
</trkpt>
<trkpt lat="33.810313" lon="-118.393867">
  <ele>-0.124</ele>
  <time>2026-09-01T01:14:01Z</time>
  <course>187.44</course>
  <speed>0.07211102550927978</speed>
  <fix>3d</fix>
</trkpt>
<trkpt lat="33.810313" lon="-118.393867">
  <ele>-0.12</ele>
  <time>2026-09-01T01:14:01Z</time>
  <course>0.0</course>
  <speed>0.0</speed>
  <fix>3d</fix>
</trkpt>
<trkpt lat="33.810313" lon="-118.393867">
  <ele>-0.127</ele>
  <time>2026-09-01T01:14:01Z</time>
  <course>187.44</course>
  <speed>0.07211102550927978</speed>
  <fix>3d</fix>
</trkpt>
<trkpt lat="33.810313" lon="-118.393867">
  <ele>-0.12</ele>
  <time>2026-09-01T01:14:01Z</time>
  <course>0.0</course>
  <speed>0.0</speed>
  <fix>3d</fix>
</trkpt>
<trkpt lat="33.810313" lon="-118.393867">
  <ele>-0.129</ele>
  <time>2026-09-01T01:14:01Z</time>
  <course>187.43</course>
  <speed>0.07211102550927978</speed>
  <fix>3d</fix>
</trkpt>
<trkpt lat="33.810313" lon="-118.393867">
  <ele>-0.12</ele>
  <time>2026-09-01T01:14:01Z</time>
  <course>0.0</course>
  <speed>0.0</speed>
  <fix>3d</fix>
</trkpt>
<trkpt lat="33.810313" lon="-118.393867">
  <ele>-0.131</ele>
  <time>2026-09-01T01:14:01Z</time>
  <course>187.42</course>
  <speed>0.07211102550927978</speed>
  <fix>3d</fix>
</trkpt>
<trkpt lat="33.810313" lon="-118.393867">
  <ele>-0.12</ele>
  <time>2026-09-01T01:14:01Z</time>
  <course>0.0</course>
  <speed>0.0</speed>
  <fix>3d</fix>
</trkpt>
<trkpt lat="33.810313" lon="-118.393867">
  <ele>-0.132</ele>
  <time>2026-09-01T01:14:01Z</time>
  <course>187.42</course>
  <speed>0.07211102550927978</speed>
  <fix>3d</fix>
</trkpt>
<trkpt lat="33.810313" lon="-118.393867">
  <ele>-0.12</ele>
  <time>2026-09-01T01:14:01Z</time>
  <course>0.0</course>
  <speed>0.0</speed>
  <fix>3d</fix>
</trkpt>
<trkpt lat="33.810313" lon="-118.393867">
  <ele>-0.132</ele>
  <time>2026-09-01T01:14:01Z</time>
  <course>187.41</course>
  <speed>0.07810249675906654</speed>
  <fix>3d</fix>
</trkpt>
<trkpt lat="33.810313" lon="-118.393867">
  <ele>-0.12</ele>
  <time>2026-09-01T01:14:01Z</time>
  <course>0.0</course>
  <speed>0.0</speed>
  <fix>3d</fix>
</trkpt>
<trkpt lat="33.810313" lon="-118.393867">
  <ele>-0.132</ele>
  <time>2026-09-01T01:14:01Z</time>
  <course>187.4</course>
  <speed>0.07810249675906654</speed>
  <fix>3d</fix>
</trkpt>
<trkpt lat="33.810313" lon="-118.393867">
  <ele>-0.12</ele>
  <time>2026-09-01T01:14:01Z</time>
  <course>0.0</course>
  <speed>0.0</speed>
  <fix>3d</fix>
</trkpt>
<trkpt lat="33.810313" lon="-118.393867">
  <ele>-0.132</ele>
  <time>2026-09-01T01:14:01Z</time>
  <course>187.4</course>
  <speed>0.07810249675906654</speed>
  <fix>3d</fix>
</trkpt>
<trkpt lat="33.810313" lon="-118.393867">
  <ele>-0.12</ele>
  <time>2026-09-01T01:14:01Z</time>
  <course>0.0</course>
  <speed>0.0</speed>
  <fix>3d</fix>
</trkpt>
<trkpt lat="33.810313" lon="-118.393867">
  <ele>-0.131</ele>
  <time>2026-09-01T01:14:01Z</time>
  <course>187.39</course>
  <speed>0.07810249675906654</speed>
  <fix>3d</fix>
</trkpt>
<trkpt lat="33.810313" lon="-118.393867">
  <ele>-0.12</ele>
  <time>2026-09-01T01:14:01Z</time>
  <course>0.0</course>
  <speed>0.0</speed>
  <fix>3d</fix>
</trkpt>
<trkpt lat="33.810313" lon="-118.393867">
  <ele>-0.131</ele>
  <time>2026-09-01T01:14:01Z</time>
  <course>187.38</course>
  <speed>0.07810249675906654</speed>
  <fix>3d</fix>
</trkpt>
<trkpt lat="33.810313" lon="-118.393867">
  <ele>-0.12</ele>
  <time>2026-09-01T01:14:01Z</time>
  <course>0.0</course>
  <speed>0.0</speed>
  <fix>3d</fix>
</trkpt>
<trkpt lat="33.810313" lon="-118.393867">
  <ele>-0.132</ele>
  <time>2026-09-01T01:14:01Z</time>
  <course>187.38</course>
  <speed>0.07810249675906654</speed>
  <fix>3d</fix>
</trkpt>
<trkpt lat="33.810313" lon="-118.393867">
  <ele>-0.12</ele>
  <time>2026-09-01T01:14:01Z</time>
  <course>0.0</course>
  <speed>0.0</speed>
  <fix>3d</fix>
</trkpt>
<trkpt lat="33.810313" lon="-118.393867">
  <ele>-0.134</ele>
  <time>2026-09-01T01:14:01Z</time>
  <course>187.37</course>
  <speed>0.07810249675906654</speed>
  <fix>3d</fix>
</trkpt>
<trkpt lat="33.810313" lon="-118.393867">
  <ele>-0.12</ele>
  <time>2026-09-01T01:14:01Z</time>
  <course>0.0</course>
  <speed>0.0</speed>
  <fix>3d</fix>
</trkpt>
<trkpt lat="33.810313" lon="-118.393867">
  <ele>-0.137</ele>
  <time>2026-09-01T01:14:01Z</time>
  <course>187.36</course>
  <speed>0.07810249675906654</speed>
  <fix>3d</fix>
</trkpt>
<trkpt lat="33.810313" lon="-118.393867">
  <ele>-0.12</ele>
  <time>2026-09-01T01:14:01Z</time>
  <course>0.0</course>
  <speed>0.0</speed>
  <fix>3d</fix>
</trkpt>
<trkpt lat="33.810313" lon="-118.393867">
  <ele>-0.139</ele>
  <time>2026-09-01T01:14:01Z</time>
  <course>187.36</course>
  <speed>0.07810249675906654</speed>
  <fix>3d</fix>
</trkpt>
<trkpt lat="33.810313" lon="-118.393867">
  <ele>-0.12</ele>
  <time>2026-09-01T01:14:01Z</time>
  <course>0.0</course>
  <speed>0.0</speed>
  <fix>3d</fix>
</trkpt>
<trkpt lat="33.810313" lon="-118.393867">
  <ele>-0.141</ele>
  <time>2026-09-01T01:14:01Z</time>
  <course>187.35</course>
  <speed>0.07810249675906654</speed>
  <fix>3d</fix>
</trkpt>
<trkpt lat="33.810313" lon="-118.393867">
  <ele>-0.12</ele>
  <time>2026-09-01T01:14:01Z</time>
  <course>0.0</course>
  <speed>0.0</speed>
  <fix>3d</fix>
</trkpt>
<trkpt lat="33.810313" lon="-118.393867">
  <ele>-0.141</ele>
  <time>2026-09-01T01:14:01Z</time>
  <course>187.35</course>
  <speed>0.07810249675906654</speed>
  <fix>3d</fix>
</trkpt>
<trkpt lat="33.810313" lon="-118.393867">
  <ele>-0.12</ele>
  <time>2026-09-01T01:14:01Z</time>
  <course>0.0</course>
  <speed>0.0</speed>
  <fix>3d</fix>
</trkpt>
<trkpt lat="33.810313" lon="-118.393867">
  <ele>-0.139</ele>
  <time>2026-09-01T01:14:01Z</time>
  <course>187.34</course>
  <speed>0.08602325267042626</speed>
  <fix>3d</fix>
</trkpt>
<trkpt lat="33.810313" lon="-118.393867">
  <ele>-0.12</ele>
  <time>2026-09-01T01:14:01Z</time>
  <course>0.0</course>
  <speed>0.0</speed>
  <fix>3d</fix>
</trkpt>
<trkpt lat="33.810313" lon="-118.393867">
  <ele>-0.136</ele>
  <time>2026-09-01T01:14:01Z</time>
  <course>187.33</course>
  <speed>0.08602325267042626</speed>
  <fix>3d</fix>
</trkpt>
<trkpt lat="33.810313" lon="-118.393867">
  <ele>-0.12</ele>
  <time>2026-09-01T01:14:01Z</time>
  <course>0.0</course>
  <speed>0.0</speed>
  <fix>3d</fix>
</trkpt>
<trkpt lat="33.810313" lon="-118.393867">
  <ele>-0.132</ele>
  <time>2026-09-01T01:14:01Z</time>
  <course>187.33</course>
  <speed>0.08602325267042626</speed>
  <fix>3d</fix>
</trkpt>
<trkpt lat="33.810313" lon="-118.393867">
  <ele>-0.12</ele>
  <time>2026-09-01T01:14:01Z</time>
  <course>0.0</course>
  <speed>0.0</speed>
  <fix>3d</fix>
</trkpt>
<trkpt lat="33.810313" lon="-118.393867">
  <ele>-0.129</ele>
  <time>2026-09-01T01:14:01Z</time>
  <course>187.32</course>
  <speed>0.08602325267042626</speed>
  <fix>3d</fix>
</trkpt>
<trkpt lat="33.810313" lon="-118.393867">
  <ele>-0.12</ele>
  <time>2026-09-01T01:14:01Z</time>
  <course>0.0</course>
  <speed>0.0</speed>
  <fix>3d</fix>
</trkpt>
<trkpt lat="33.810313" lon="-118.393867">
  <ele>-0.127</ele>
  <time>2026-09-01T01:14:01Z</time>
  <course>187.31</course>
  <speed>0.08602325267042626</speed>
  <fix>3d</fix>
</trkpt>
<trkpt lat="33.810313" lon="-118.393867">
  <ele>-0.12</ele>
  <time>2026-09-01T01:14:01Z</time>
  <course>0.0</course>
  <speed>0.0</speed>
  <fix>3d</fix>
</trkpt>
<trkpt lat="33.810313" lon="-118.393867">
  <ele>-0.126</ele>
  <time>2026-09-01T01:14:01Z</time>
  <course>187.31</course>
  <speed>0.08602325267042626</speed>
  <fix>3d</fix>
</trkpt>
<trkpt lat="33.810313" lon="-118.393867">
  <ele>-0.12</ele>
  <time>2026-09-01T01:14:01Z</time>
  <course>0.0</course>
  <speed>0.0</speed>
  <fix>3d</fix>
</trkpt>
<trkpt lat="33.810313" lon="-118.393867">
  <ele>-0.126</ele>
  <time>2026-09-01T01:14:01Z</time>
  <course>187.3</course>
  <speed>0.08602325267042626</speed>
  <fix>3d</fix>
</trkpt>
<trkpt lat="33.810313" lon="-118.393867">
  <ele>-0.12</ele>
  <time>2026-09-01T01:14:01Z</time>
  <course>0.0</course>
  <speed>0.0</speed>
  <fix>3d</fix>
</trkpt>
<trkpt lat="33.810313" lon="-118.393867">
  <ele>-0.127</ele>
  <time>2026-09-01T01:14:01Z</time>
  <course>187.3</course>
  <speed>0.08602325267042626</speed>
  <fix>3d</fix>
</trkpt>
<trkpt lat="33.810313" lon="-118.393867">
  <ele>-0.12</ele>
  <time>2026-09-01T01:14:01Z</time>
  <course>0.0</course>
  <speed>0.0</speed>
  <fix>3d</fix>
</trkpt>
<trkpt lat="33.810313" lon="-118.393867">
  <ele>-0.126</ele>
  <time>2026-09-01T01:14:01Z</time>
  <course>187.29</course>
  <speed>0.08602325267042626</speed>
  <fix>3d</fix>
</trkpt>
<trkpt lat="33.810313" lon="-118.393867">
  <ele>-0.12</ele>
  <time>2026-09-01T01:14:01Z</time>
  <course>0.0</course>
  <speed>0.0</speed>
  <fix>3d</fix>
</trkpt>
<trkpt lat="33.810313" lon="-118.393867">
  <ele>-0.126</ele>
  <time>2026-09-01T01:14:01Z</time>
  <course>187.28</course>
  <speed>0.08602325267042626</speed>
  <fix>3d</fix>
</trkpt>
<trkpt lat="33.810313" lon="-118.393867">
  <ele>-0.12</ele>
  <time>2026-09-01T01:14:01Z</time>
  <course>0.0</course>
  <speed>0.0</speed>
  <fix>3d</fix>
</trkpt>
<trkpt lat="33.810313" lon="-118.393867">
  <ele>-0.125</ele>
  <time>2026-09-01T01:14:01Z</time>
  <course>187.28</course>
  <speed>0.09219544457292887</speed>
  <fix>3d</fix>
</trkpt>
<trkpt lat="33.810313" lon="-118.393867">
  <ele>-0.12</ele>
  <time>2026-09-01T01:14:01Z</time>
  <course>0.0</course>
  <speed>0.0</speed>
  <fix>3d</fix>
</trkpt>
<trkpt lat="33.810313" lon="-118.393867">
  <ele>-0.124</ele>
  <time>2026-09-01T01:14:01Z</time>
  <course>187.27</course>
  <speed>0.09219544457292887</speed>
  <fix>3d</fix>
</trkpt>
<trkpt lat="33.810313" lon="-118.393867">
  <ele>-0.12</ele>
  <time>2026-09-01T01:14:01Z</time>
  <course>0.0</course>
  <speed>0.0</speed>
  <fix>3d</fix>
</trkpt>
<trkpt lat="33.810313" lon="-118.393867">
  <ele>-0.122</ele>
  <time>2026-09-01T01:14:01Z</time>
  <course>187.26</course>
  <speed>0.09219544457292887</speed>
  <fix>3d</fix>
</trkpt>
<trkpt lat="33.810313" lon="-118.393867">
  <ele>-0.12</ele>
  <time>2026-09-01T01:14:01Z</time>
  <course>0.0</course>
  <speed>0.0</speed>
  <fix>3d</fix>
</trkpt>
<trkpt lat="33.810313" lon="-118.393867">
  <ele>-0.121</ele>
  <time>2026-09-01T01:14:01Z</time>
  <course>187.26</course>
  <speed>0.09219544457292887</speed>
  <fix>3d</fix>
</trkpt>
<trkpt lat="33.810313" lon="-118.393867">
  <ele>-0.12</ele>
  <time>2026-09-01T01:14:01Z</time>
  <course>0.0</course>
  <speed>0.0</speed>
  <fix>3d</fix>
</trkpt>
<trkpt lat="33.810313" lon="-118.393867">
  <ele>-0.122</ele>
  <time>2026-09-01T01:14:01Z</time>
  <course>187.25</course>
  <speed>0.09219544457292887</speed>
  <fix>3d</fix>
</trkpt>
<trkpt lat="33.810313" lon="-118.393867">
  <ele>-0.12</ele>
  <time>2026-09-01T01:14:01Z</time>
  <course>0.0</course>
  <speed>0.0</speed>
  <fix>3d</fix>
</trkpt>
<trkpt lat="33.810313" lon="-118.393867">
  <ele>-0.124</ele>
  <time>2026-09-01T01:14:01Z</time>
  <course>187.25</course>
  <speed>0.1</speed>
  <fix>3d</fix>
</trkpt>
<trkpt lat="33.810313" lon="-118.393867">
  <ele>-0.12</ele>
  <time>2026-09-01T01:14:01Z</time>
  <course>0.0</course>
  <speed>0.0</speed>
  <fix>3d</fix>
</trkpt>
<trkpt lat="33.810313" lon="-118.393867">
  <ele>-0.128</ele>
  <time>2026-09-01T01:14:01Z</time>
  <course>187.24</course>
  <speed>0.1</speed>
  <fix>3d</fix>
</trkpt>
<trkpt lat="33.810313" lon="-118.393867">
  <ele>-0.12</ele>
  <time>2026-09-01T01:14:01Z</time>
  <course>0.0</course>
  <speed>0.0</speed>
  <fix>3d</fix>
</trkpt>
<trkpt lat="33.810313" lon="-118.393867">
  <ele>-0.13</ele>
  <time>2026-09-01T01:14:01Z</time>
  <course>187.23</course>
  <speed>0.1</speed>
  <fix>3d</fix>
</trkpt>
<trkpt lat="33.810313" lon="-118.393867">
  <ele>-0.12</ele>
  <time>2026-09-01T01:14:01Z</time>
  <course>0.0</course>
  <speed>0.0</speed>
  <fix>3d</fix>
</trkpt>
<trkpt lat="33.810313" lon="-118.393867">
  <ele>-0.133</ele>
  <time>2026-09-01T01:14:01Z</time>
  <course>187.23</course>
  <speed>0.1</speed>
  <fix>3d</fix>
</trkpt>
<trkpt lat="33.810313" lon="-118.393867">
  <ele>-0.12</ele>
  <time>2026-09-01T01:14:01Z</time>
  <course>0.0</course>
  <speed>0.0</speed>
  <fix>3d</fix>
</trkpt>
<trkpt lat="33.810313" lon="-118.393867">
  <ele>-0.135</ele>
  <time>2026-09-01T01:14:01Z</time>
  <course>187.22</course>
  <speed>0.1</speed>
  <fix>3d</fix>
</trkpt>
<trkpt lat="33.810313" lon="-118.393867">
  <ele>-0.12</ele>
  <time>2026-09-01T01:14:01Z</time>
  <course>0.0</course>
  <speed>0.0</speed>
  <fix>3d</fix>
</trkpt>
<trkpt lat="33.810313" lon="-118.393867">
  <ele>-0.136</ele>
  <time>2026-09-01T01:14:01Z</time>
  <course>187.22</course>
  <speed>0.1</speed>
  <fix>3d</fix>
</trkpt>
<trkpt lat="33.810313" lon="-118.393867">
  <ele>-0.12</ele>
  <time>2026-09-01T01:14:01Z</time>
  <course>0.0</course>
  <speed>0.0</speed>
  <fix>3d</fix>
</trkpt>
<trkpt lat="33.810313" lon="-118.393867">
  <ele>-0.136</ele>
  <time>2026-09-01T01:14:01Z</time>
  <course>187.21</course>
  <speed>0.1</speed>
  <fix>3d</fix>
</trkpt>
<trkpt lat="33.810313" lon="-118.393867">
  <ele>-0.12</ele>
  <time>2026-09-01T01:14:01Z</time>
  <course>0.0</course>
  <speed>0.0</speed>
  <fix>3d</fix>
</trkpt>
<trkpt lat="33.810313" lon="-118.393867">
  <ele>-0.135</ele>
  <time>2026-09-01T01:14:01Z</time>
  <course>187.2</course>
  <speed>0.1</speed>
  <fix>3d</fix>
</trkpt>
<trkpt lat="33.810313" lon="-118.393867">
  <ele>-0.12</ele>
  <time>2026-09-01T01:14:01Z</time>
  <course>0.0</course>
  <speed>0.0</speed>
  <fix>3d</fix>
</trkpt>
<trkpt lat="33.810313" lon="-118.393867">
  <ele>-0.134</ele>
  <time>2026-09-01T01:14:01Z</time>
  <course>187.2</course>
  <speed>0.1</speed>
  <fix>3d</fix>
</trkpt>
<trkpt lat="33.810313" lon="-118.393867">
  <ele>-0.12</ele>
  <time>2026-09-01T01:14:01Z</time>
  <course>0.0</course>
  <speed>0.0</speed>
  <fix>3d</fix>
</trkpt>
<trkpt lat="33.810313" lon="-118.393867">
  <ele>-0.132</ele>
  <time>2026-09-01T01:14:01Z</time>
  <course>187.19</course>
  <speed>0.1</speed>
  <fix>3d</fix>
</trkpt>
<trkpt lat="33.810313" lon="-118.393867">
  <ele>-0.12</ele>
  <time>2026-09-01T01:14:01Z</time>
  <course>0.0</course>
  <speed>0.0</speed>
  <fix>3d</fix>
</trkpt>
<trkpt lat="33.810313" lon="-118.393867">
  <ele>-0.131</ele>
  <time>2026-09-01T01:14:01Z</time>
  <course>187.19</course>
  <speed>0.1063014581273465</speed>
  <fix>3d</fix>
</trkpt>
<trkpt lat="33.810313" lon="-118.393867">
  <ele>-0.12</ele>
  <time>2026-09-01T01:14:01Z</time>
  <course>0.0</course>
  <speed>0.0</speed>
  <fix>3d</fix>
</trkpt>
<trkpt lat="33.810313" lon="-118.393867">
  <ele>-0.131</ele>
  <time>2026-09-01T01:14:01Z</time>
  <course>187.18</course>
  <speed>0.1063014581273465</speed>
  <fix>3d</fix>
</trkpt>
<trkpt lat="33.810313" lon="-118.393867">
  <ele>-0.12</ele>
  <time>2026-09-01T01:14:01Z</time>
  <course>0.0</course>
  <speed>0.0</speed>
  <fix>3d</fix>
</trkpt>
<trkpt lat="33.810313" lon="-118.393867">
  <ele>-0.132</ele>
  <time>2026-09-01T01:14:01Z</time>
  <course>187.17</course>
  <speed>0.11401754250991379</speed>
  <fix>3d</fix>
</trkpt>
<trkpt lat="33.810313" lon="-118.393867">
  <ele>-0.12</ele>
  <time>2026-09-01T01:14:01Z</time>
  <course>0.0</course>
  <speed>0.0</speed>
  <fix>3d</fix>
</trkpt>
<trkpt lat="33.810313" lon="-118.393867">
  <ele>-0.132</ele>
  <time>2026-09-01T01:14:01Z</time>
  <course>187.17</course>
  <speed>0.11401754250991379</speed>
  <fix>3d</fix>
</trkpt>
<trkpt lat="33.810313" lon="-118.393867">
  <ele>-0.12</ele>
  <time>2026-09-01T01:14:01Z</time>
  <course>0.0</course>
  <speed>0.0</speed>
  <fix>3d</fix>
</trkpt>
<trkpt lat="33.810313" lon="-118.393867">
  <ele>-0.133</ele>
  <time>2026-09-01T01:14:01Z</time>
  <course>187.16</course>
  <speed>0.11401754250991379</speed>
  <fix>3d</fix>
</trkpt>
<trkpt lat="33.810313" lon="-118.393867">
  <ele>-0.12</ele>
  <time>2026-09-01T01:14:01Z</time>
  <course>0.0</course>
  <speed>0.0</speed>
  <fix>3d</fix>
</trkpt>
<trkpt lat="33.810313" lon="-118.393867">
  <ele>-0.132</ele>
  <time>2026-09-01T01:14:01Z</time>
  <course>187.16</course>
  <speed>0.11401754250991379</speed>
  <fix>3d</fix>
</trkpt>
<trkpt lat="33.810313" lon="-118.393867">
  <ele>-0.12</ele>
  <time>2026-09-01T01:14:01Z</time>
  <course>0.0</course>
  <speed>0.0</speed>
  <fix>3d</fix>
</trkpt>
<trkpt lat="33.810313" lon="-118.393867">
  <ele>-0.131</ele>
  <time>2026-09-01T01:14:01Z</time>
  <course>187.15</course>
  <speed>0.11401754250991379</speed>
  <fix>3d</fix>
</trkpt>
<trkpt lat="33.810313" lon="-118.393867">
  <ele>-0.12</ele>
  <time>2026-09-01T01:14:01Z</time>
  <course>0.0</course>
  <speed>0.0</speed>
  <fix>3d</fix>
</trkpt>
<trkpt lat="33.810313" lon="-118.393867">
  <ele>-0.129</ele>
  <time>2026-09-01T01:14:01Z</time>
  <course>187.14</course>
  <speed>0.11401754250991379</speed>
  <fix>3d</fix>
</trkpt>
<trkpt lat="33.810313" lon="-118.393867">
  <ele>-0.12</ele>
  <time>2026-09-01T01:14:01Z</time>
  <course>0.0</course>
  <speed>0.0</speed>
  <fix>3d</fix>
</trkpt>
<trkpt lat="33.810313" lon="-118.393867">
  <ele>-0.126</ele>
  <time>2026-09-01T01:14:01Z</time>
  <course>187.14</course>
  <speed>0.11401754250991379</speed>
  <fix>3d</fix>
</trkpt>
<trkpt lat="33.810313" lon="-118.393867">
  <ele>-0.12</ele>
  <time>2026-09-01T01:14:01Z</time>
  <course>0.0</course>
  <speed>0.0</speed>
  <fix>3d</fix>
</trkpt>
<trkpt lat="33.810313" lon="-118.393867">
  <ele>-0.124</ele>
  <time>2026-09-01T01:14:01Z</time>
  <course>187.13</course>
  <speed>0.11401754250991379</speed>
  <fix>3d</fix>
</trkpt>
<trkpt lat="33.810313" lon="-118.393867">
  <ele>-0.12</ele>
  <time>2026-09-01T01:14:01Z</time>
  <course>0.0</course>
  <speed>0.0</speed>
  <fix>3d</fix>
</trkpt>
<trkpt lat="33.810313" lon="-118.393867">
  <ele>-0.123</ele>
  <time>2026-09-01T01:14:01Z</time>
  <course>187.13</course>
  <speed>0.11401754250991379</speed>
  <fix>3d</fix>
</trkpt>
<trkpt lat="33.810313" lon="-118.393867">
  <ele>-0.12</ele>
  <time>2026-09-01T01:14:01Z</time>
  <course>0.0</course>
  <speed>0.0</speed>
  <fix>3d</fix>
</trkpt>
<trkpt lat="33.810313" lon="-118.393867">
  <ele>-0.123</ele>
  <time>2026-09-01T01:14:01Z</time>
  <course>187.12</course>
  <speed>0.11401754250991379</speed>
  <fix>3d</fix>
</trkpt>
<trkpt lat="33.810313" lon="-118.393867">
  <ele>-0.12</ele>
  <time>2026-09-01T01:14:01Z</time>
  <course>0.0</course>
  <speed>0.0</speed>
  <fix>3d</fix>
</trkpt>
<trkpt lat="33.810313" lon="-118.393867">
  <ele>-0.122</ele>
  <time>2026-09-01T01:14:01Z</time>
  <course>187.11</course>
  <speed>0.0</speed>
  <fix>3d</fix>
</trkpt>
<trkpt lat="33.810313" lon="-118.393867">
  <ele>-0.12</ele>
  <time>2026-09-01T01:14:01Z</time>
  <course>0.0</course>
  <speed>0.0</speed>
  <fix>3d</fix>
</trkpt>
<trkpt lat="33.810313" lon="-118.393867">
  <ele>-0.121</ele>
  <time>2026-09-01T01:14:01Z</time>
  <course>187.11</course>
  <speed>0.0</speed>
  <fix>3d</fix>
</trkpt>
<trkpt lat="33.810313" lon="-118.393867">
  <ele>-0.12</ele>
  <time>2026-09-01T01:14:01Z</time>
  <course>0.0</course>
  <speed>0.0</speed>
  <fix>3d</fix>
</trkpt>
<trkpt lat="33.810313" lon="-118.393867">
  <ele>-0.12</ele>
  <time>2026-09-01T01:14:01Z</time>
  <course>186.81</course>
  <speed>0.0</speed>
  <fix>3d</fix>
</trkpt>
<trkpt lat="33.810313" lon="-118.393867">
  <ele>-0.12</ele>
  <time>2026-09-01T01:14:01Z</time>
  <course>319.99</course>
  <speed>0.0</speed>
  <fix>3d</fix>
</trkpt>
<trkpt lat="33.810313" lon="-118.393867">
  <ele>-0.119</ele>
  <time>2026-09-01T01:14:01Z</time>
  <course>186.17</course>
  <speed>0.0</speed>
  <fix>3d</fix>
</trkpt>
<trkpt lat="33.810313" lon="-118.393867">
  <ele>-0.12</ele>
  <time>2026-09-01T01:14:01Z</time>
  <course>319.99</course>
  <speed>0.0</speed>
  <fix>3d</fix>
</trkpt>
<trkpt lat="33.810313" lon="-118.393867">
  <ele>-0.117</ele>
  <time>2026-09-01T01:14:01Z</time>
  <course>185.81</course>
  <speed>0.01</speed>
  <fix>3d</fix>
</trkpt>
<trkpt lat="33.810313" lon="-118.393867">
  <ele>-0.12</ele>
  <time>2026-09-01T01:14:01Z</time>
  <course>291.29</course>
  <speed>0.0</speed>
  <fix>3d</fix>
</trkpt>
<trkpt lat="33.8103129" lon="-118.393867">
  <ele>-0.117</ele>
  <time>2026-09-01T01:14:01Z</time>
  <course>186.18</course>
  <speed>0.01414213562373095</speed>
  <fix>3d</fix>
</trkpt>
<trkpt lat="33.810313" lon="-118.393867">
  <ele>-0.12</ele>
  <time>2026-09-01T01:14:01Z</time>
  <course>291.29</course>
  <speed>0.0</speed>
  <fix>3d</fix>
</trkpt>
<trkpt lat="33.8103129" lon="-118.393867">
  <ele>-0.121</ele>
  <time>2026-09-01T01:14:01Z</time>
  <course>187.15</course>
  <speed>0.022360679774997897</speed>
  <fix>3d</fix>
</trkpt>
<trkpt lat="33.810313" lon="-118.393867">
  <ele>-0.12</ele>
  <time>2026-09-01T01:14:01Z</time>
  <course>195.42</course>
  <speed>0.01</speed>
  <fix>3d</fix>
</trkpt>
<trkpt lat="33.8103129" lon="-118.393867">
  <ele>-0.128</ele>
  <time>2026-09-01T01:14:01Z</time>
  <course>188.32</course>
  <speed>0.044721359549995794</speed>
  <fix>3d</fix>
</trkpt>
<trkpt lat="33.810313" lon="-118.393867">
  <ele>-0.12</ele>
  <time>2026-09-01T01:14:01Z</time>
  <course>195.42</course>
  <speed>0.01</speed>
  <fix>3d</fix>
</trkpt>
<trkpt lat="33.8103128" lon="-118.393867">
  <ele>-0.138</ele>
  <time>2026-09-01T01:14:01Z</time>
  <course>189.29</course>
  <speed>0.07280109889280519</speed>
  <fix>3d</fix>
</trkpt>
<trkpt lat="33.810313" lon="-118.393867">
  <ele>-0.13</ele>
  <time>2026-09-01T01:14:01Z</time>
  <course>188.48</course>
  <speed>0.04</speed>
  <fix>3d</fix>
</trkpt>
<trkpt lat="33.8103128" lon="-118.393867">
  <ele>-0.15</ele>
  <time>2026-09-01T01:14:01Z</time>
  <course>190.25</course>
  <speed>0.1019803902718557</speed>
  <fix>3d</fix>
</trkpt>
<trkpt lat="33.810313" lon="-118.393867">
  <ele>-0.13</ele>
  <time>2026-09-01T01:14:01Z</time>
  <course>188.48</course>
  <speed>0.04</speed>
  <fix>3d</fix>
</trkpt>
<trkpt lat="33.8103126" lon="-118.393867">
  <ele>-0.167</ele>
  <time>2026-09-01T01:14:01Z</time>
  <course>191.15</course>
  <speed>0.15297058540778355</speed>
  <fix>3d</fix>
</trkpt>
<trkpt lat="33.8103129" lon="-118.393867">
  <ele>-0.15</ele>
  <time>2026-09-01T01:14:01Z</time>
  <course>186.13</course>
  <speed>0.1</speed>
  <fix>3d</fix>
</trkpt>
<trkpt lat="33.8103125" lon="-118.393867">
  <ele>-0.186</ele>
  <time>2026-09-01T01:14:01Z</time>
  <course>191.63</course>
  <speed>0.2039607805437114</speed>
  <fix>3d</fix>
</trkpt>
<trkpt lat="33.8103129" lon="-118.393867">
  <ele>-0.15</ele>
  <time>2026-09-01T01:14:01Z</time>
  <course>186.13</course>
  <speed>0.1</speed>
  <fix>3d</fix>
</trkpt>
<trkpt lat="33.8103123" lon="-118.393867">
  <ele>-0.208</ele>
  <time>2026-09-01T01:14:01Z</time>
  <course>191.64</course>
  <speed>0.25495097567963926</speed>
  <fix>3d</fix>
</trkpt>
<trkpt lat="33.8103126" lon="-118.393867">
  <ele>-0.17</ele>
  <time>2026-09-01T01:14:01Z</time>
  <course>185.46</course>
  <speed>0.18</speed>
  <fix>3d</fix>
</trkpt>
<trkpt lat="33.810312" lon="-118.3938671">
  <ele>-0.236</ele>
  <time>2026-09-01T01:14:01Z</time>
  <course>191.42</course>
  <speed>0.3059411708155671</speed>
  <fix>3d</fix>
</trkpt>
<trkpt lat="33.8103126" lon="-118.393867">
  <ele>-0.17</ele>
  <time>2026-09-01T01:14:01Z</time>
  <course>185.46</course>
  <speed>0.18</speed>
  <fix>3d</fix>
</trkpt>
<trkpt lat="33.8103117" lon="-118.3938671">
  <ele>-0.268</ele>
  <time>2026-09-01T01:14:01Z</time>
  <course>191.27</course>
  <speed>0.366742416417845</speed>
  <fix>3d</fix>
</trkpt>
<trkpt lat="33.8103121" lon="-118.393867">
  <ele>-0.21</ele>
  <time>2026-09-01T01:14:01Z</time>
  <course>185.83</course>
  <speed>0.29</speed>
  <fix>3d</fix>
</trkpt>
<trkpt lat="33.8103113" lon="-118.3938672">
  <ele>-0.305</ele>
  <time>2026-09-01T01:14:01Z</time>
  <course>191.29</course>
  <speed>0.42755116652863895</speed>
  <fix>3d</fix>
</trkpt>
<trkpt lat="33.8103121" lon="-118.393867">
  <ele>-0.21</ele>
  <time>2026-09-01T01:14:01Z</time>
  <course>185.83</course>
  <speed>0.29</speed>
  <fix>3d</fix>
</trkpt>
<trkpt lat="33.8103109" lon="-118.3938673">
  <ele>-0.347</ele>
  <time>2026-09-01T01:14:01Z</time>
  <course>191.45</course>
  <speed>0.47853944456021597</speed>
  <fix>3d</fix>
</trkpt>
<trkpt lat="33.8103115" lon="-118.3938671">
  <ele>-0.27</ele>
  <time>2026-09-01T01:14:01Z</time>
  <course>186.67</course>
  <speed>0.41</speed>
  <fix>3d</fix>
</trkpt>
<trkpt lat="33.8103105" lon="-118.3938674">
  <ele>-0.394</ele>
  <time>2026-09-01T01:14:01Z</time>
  <course>191.64</course>
  <speed>0.5295280917949491</speed>
  <fix>3d</fix>
</trkpt>
<trkpt lat="33.8103115" lon="-118.3938671">
  <ele>-0.27</ele>
  <time>2026-09-01T01:14:01Z</time>
  <course>186.67</course>
  <speed>0.41</speed>
  <fix>3d</fix>
</trkpt>
<trkpt lat="33.81031" lon="-118.3938674">
  <ele>-0.444</ele>
  <time>2026-09-01T01:14:01Z</time>
  <course>191.8</course>
  <speed>0.5805170109479997</speed>
  <fix>3d</fix>
</trkpt>
<trkpt lat="33.8103107" lon="-118.3938672">
  <ele>-0.34</ele>
  <time>2026-09-01T01:14:01Z</time>
  <course>187.44</course>
  <speed>0.52</speed>
  <fix>3d</fix>
</trkpt>
<trkpt lat="33.8103094" lon="-118.3938675">
  <ele>-0.499</ele>
  <time>2026-09-01T01:14:01Z</time>
  <course>191.93</course>
  <speed>0.6118823416311342</speed>
  <fix>3d</fix>
</trkpt>
<trkpt lat="33.8103107" lon="-118.3938672">
  <ele>-0.34</ele>
  <time>2026-09-01T01:14:01Z</time>
  <course>187.44</course>
  <speed>0.52</speed>
  <fix>3d</fix>
</trkpt>
<trkpt lat="33.8103089" lon="-118.3938677">
  <ele>-0.558</ele>
  <time>2026-09-01T01:14:01Z</time>
  <course>192.04</course>
  <speed>0.6530696746902278</speed>
  <fix>3d</fix>
</trkpt>
<trkpt lat="33.8103097" lon="-118.3938674">
  <ele>-0.43</ele>
  <time>2026-09-01T01:14:01Z</time>
  <course>188.04</course>
  <speed>0.61</speed>
  <fix>3d</fix>
</trkpt>
<trkpt lat="33.8103083" lon="-118.3938678">
  <ele>-0.62</ele>
  <time>2026-09-01T01:14:01Z</time>
  <course>192.13</course>
  <speed>0.6844705983459041</speed>
  <fix>3d</fix>
</trkpt>
<trkpt lat="33.8103097" lon="-118.3938674">
  <ele>-0.43</ele>
  <time>2026-09-01T01:14:01Z</time>
  <course>188.04</course>
  <speed>0.61</speed>
  <fix>3d</fix>
</trkpt>
<trkpt lat="33.8103076" lon="-118.3938679">
  <ele>-0.685</ele>
  <time>2026-09-01T01:14:01Z</time>
  <course>192.2</course>
  <speed>0.71386273190299</speed>
  <fix>3d</fix>
</trkpt>
<trkpt lat="33.8103085" lon="-118.3938676">
  <ele>-0.53</ele>
  <time>2026-09-01T01:14:01Z</time>
  <course>188.52</course>
  <speed>0.69</speed>
  <fix>3d</fix>
</trkpt>
<trkpt lat="33.810307" lon="-118.393868">
  <ele>-0.751</ele>
  <time>2026-09-01T01:14:01Z</time>
  <course>190.1</course>
  <speed>0.737563556583431</speed>
  <fix>3d</fix>
</trkpt>
<trkpt lat="33.8103085" lon="-118.3938676">
  <ele>-0.53</ele>
  <time>2026-09-01T01:14:01Z</time>
  <course>188.52</course>
  <speed>0.69</speed>
  <fix>3d</fix>
</trkpt>
<trkpt lat="33.8103063" lon="-118.3938682">
  <ele>-0.819</ele>
  <time>2026-09-01T01:14:01Z</time>
  <course>190.71</course>
  <speed>0.757099729229908</speed>
  <fix>3d</fix>
</trkpt>
<trkpt lat="33.8103072" lon="-118.3938679">
  <ele>-0.65</ele>
  <time>2026-09-01T01:14:01Z</time>
  <course>189.19</course>
  <speed>0.75</speed>
  <fix>3d</fix>
</trkpt>
<trkpt lat="33.8103056" lon="-118.3938683">
  <ele>-0.888</ele>
  <time>2026-09-01T01:14:01Z</time>
  <course>191.51</course>
  <speed>0.776659513557904</speed>
  <fix>3d</fix>
</trkpt>
<trkpt lat="33.8103072" lon="-118.3938679">
  <ele>-0.65</ele>
  <time>2026-09-01T01:14:01Z</time>
  <course>189.19</course>
  <speed>0.75</speed>
  <fix>3d</fix>
</trkpt>
<trkpt lat="33.8103049" lon="-118.3938685">
  <ele>-0.957</ele>
  <time>2026-09-01T01:14:01Z</time>
  <course>192.01</course>
  <speed>0.7864477096412705</speed>
  <fix>3d</fix>
</trkpt>
<trkpt lat="33.8103058" lon="-118.3938681">
  <ele>-0.78</ele>
  <time>2026-09-01T01:14:01Z</time>
  <course>189.73</course>
  <speed>0.8</speed>
  <fix>3d</fix>
</trkpt>
<trkpt lat="33.8103042" lon="-118.3938686">
  <ele>-1.027</ele>
  <time>2026-09-01T01:14:01Z</time>
  <course>192.21</course>
  <speed>0.7983107164506812</speed>
  <fix>3d</fix>
</trkpt>
<trkpt lat="33.8103058" lon="-118.3938681">
  <ele>-0.78</ele>
  <time>2026-09-01T01:14:01Z</time>
  <course>189.73</course>
  <speed>0.8</speed>
  <fix>3d</fix>
</trkpt>
<trkpt lat="33.8103034" lon="-118.3938688">
  <ele>-1.098</ele>
  <time>2026-09-01T01:14:01Z</time>
  <course>192.27</course>
  <speed>0.7983107164506812</speed>
  <fix>3d</fix>
</trkpt>
<trkpt lat="33.8103044" lon="-118.3938684">
  <ele>-0.9</ele>
  <time>2026-09-01T01:14:01Z</time>
  <course>189.91</course>
  <speed>0.82</speed>
  <fix>3d</fix>
</trkpt>
<trkpt lat="33.8103027" lon="-118.3938689">
  <ele>-1.169</ele>
  <time>2026-09-01T01:14:01Z</time>
  <course>192.27</course>
  <speed>0.808084154033477</speed>
  <fix>3d</fix>
</trkpt>
<trkpt lat="33.8103044" lon="-118.3938684">
  <ele>-0.9</ele>
  <time>2026-09-01T01:14:01Z</time>
  <course>189.91</course>
  <speed>0.82</speed>
  <fix>3d</fix>
</trkpt>
<trkpt lat="33.810302" lon="-118.3938691">
  <ele>-1.241</ele>
  <time>2026-09-01T01:14:01Z</time>
  <course>192.3</course>
  <speed>0.808084154033477</speed>
  <fix>3d</fix>
</trkpt>
<trkpt lat="33.8103029" lon="-118.3938687">
  <ele>-1.05</ele>
  <time>2026-09-01T01:14:01Z</time>
  <course>190.15</course>
  <speed>0.84</speed>
  <fix>3d</fix>
</trkpt>
<trkpt lat="33.8103012" lon="-118.3938692">
  <ele>-1.313</ele>
  <time>2026-09-01T01:14:01Z</time>
  <course>192.34</course>
  <speed>0.8178630692236935</speed>
  <fix>3d</fix>
</trkpt>
<trkpt lat="33.8103029" lon="-118.3938687">
  <ele>-1.05</ele>
  <time>2026-09-01T01:14:01Z</time>
  <course>190.15</course>
  <speed>0.84</speed>
  <fix>3d</fix>
</trkpt>
<trkpt lat="33.8103005" lon="-118.3938694">
  <ele>-1.386</ele>
  <time>2026-09-01T01:14:01Z</time>
  <course>192.39</course>
  <speed>0.8178630692236935</speed>
  <fix>3d</fix>
</trkpt>
<trkpt lat="33.8103014" lon="-118.3938691">
  <ele>-1.19</ele>
  <time>2026-09-01T01:14:01Z</time>
  <course>190.53</course>
  <speed>0.84</speed>
  <fix>3d</fix>
</trkpt>
<trkpt lat="33.8102997" lon="-118.3938696">
  <ele>-1.459</ele>
  <time>2026-09-01T01:14:01Z</time>
  <course>192.43</course>
  <speed>0.8276472678623424</speed>
  <fix>3d</fix>
</trkpt>
<trkpt lat="33.8103014" lon="-118.3938691">
  <ele>-1.19</ele>
  <time>2026-09-01T01:14:01Z</time>
  <course>190.53</course>
  <speed>0.84</speed>
  <fix>3d</fix>
</trkpt>
<trkpt lat="33.810299" lon="-118.3938697">
  <ele>-1.532</ele>
  <time>2026-09-01T01:14:01Z</time>
  <course>192.45</course>
  <speed>0.8276472678623424</speed>
  <fix>3d</fix>
</trkpt>
<trkpt lat="33.8102999" lon="-118.3938694">
  <ele>-1.32</ele>
  <time>2026-09-01T01:14:01Z</time>
  <course>190.91</course>
  <speed>0.85</speed>
  <fix>3d</fix>
</trkpt>
<trkpt lat="33.8102982" lon="-118.3938699">
  <ele>-1.604</ele>
  <time>2026-09-01T01:14:01Z</time>
  <course>192.44</course>
  <speed>0.8276472678623424</speed>
  <fix>3d</fix>
</trkpt>
<trkpt lat="33.8102999" lon="-118.3938694">
  <ele>-1.32</ele>
  <time>2026-09-01T01:14:01Z</time>
  <course>190.91</course>
  <speed>0.85</speed>
  <fix>3d</fix>
</trkpt>
<trkpt lat="33.8102975" lon="-118.3938701">
  <ele>-1.675</ele>
  <time>2026-09-01T01:14:01Z</time>
  <course>192.42</course>
  <speed>0.8276472678623424</speed>
  <fix>3d</fix>
</trkpt>
<trkpt lat="33.8102984" lon="-118.3938698">
  <ele>-1.47</ele>
  <time>2026-09-01T01:14:01Z</time>
  <course>191.24</course>
  <speed>0.85</speed>
  <fix>3d</fix>
</trkpt>
<trkpt lat="33.8102967" lon="-118.3938702">
  <ele>-1.746</ele>
  <time>2026-09-01T01:14:01Z</time>
  <course>192.39</course>
  <speed>0.8374365647617735</speed>
  <fix>3d</fix>
</trkpt>
<trkpt lat="33.8102984" lon="-118.3938698">
  <ele>-1.47</ele>
  <time>2026-09-01T01:14:01Z</time>
  <course>191.24</course>
  <speed>0.85</speed>
  <fix>3d</fix>
</trkpt>
<trkpt lat="33.8102959" lon="-118.3938704">
  <ele>-1.817</ele>
  <time>2026-09-01T01:14:01Z</time>
  <course>192.34</course>
  <speed>0.8374365647617735</speed>
  <fix>3d</fix>
</trkpt>
<trkpt lat="33.8102969" lon="-118.3938702">
  <ele>-1.6</ele>
  <time>2026-09-01T01:14:01Z</time>
  <course>191.5</course>
  <speed>0.85</speed>
  <fix>3d</fix>
</trkpt>
<trkpt lat="33.8102952" lon="-118.3938706">
  <ele>-1.888</ele>
  <time>2026-09-01T01:14:01Z</time>
  <course>192.26</course>
  <speed>0.8374365647617735</speed>
  <fix>3d</fix>
</trkpt>
<trkpt lat="33.8102969" lon="-118.3938702">
  <ele>-1.6</ele>
  <time>2026-09-01T01:14:01Z</time>
  <course>191.5</course>
  <speed>0.85</speed>
  <fix>3d</fix>
</trkpt>
<trkpt lat="33.8102944" lon="-118.3938708">
  <ele>-1.959</ele>
  <time>2026-09-01T01:14:01Z</time>
  <course>192.16</course>
  <speed>0.8374365647617735</speed>
  <fix>3d</fix>
</trkpt>
<trkpt lat="33.8102954" lon="-118.3938705">
  <ele>-1.75</ele>
  <time>2026-09-01T01:14:01Z</time>
  <course>191.61</course>
  <speed>0.85</speed>
  <fix>3d</fix>
</trkpt>
<trkpt lat="33.8102937" lon="-118.3938709">
  <ele>-2.031</ele>
  <time>2026-09-01T01:14:01Z</time>
  <course>192.05</course>
  <speed>0.8354639429682169</speed>
  <fix>3d</fix>
</trkpt>
<trkpt lat="33.8102954" lon="-118.3938705">
  <ele>-1.75</ele>
  <time>2026-09-01T01:14:01Z</time>
  <course>191.61</course>
  <speed>0.85</speed>
  <fix>3d</fix>
</trkpt>
<trkpt lat="33.8102929" lon="-118.3938711">
  <ele>-2.102</ele>
  <time>2026-09-01T01:14:01Z</time>
  <course>191.93</course>
  <speed>0.8354639429682169</speed>
  <fix>3d</fix>
</trkpt>
<trkpt lat="33.8102939" lon="-118.3938709">
  <ele>-1.89</ele>
  <time>2026-09-01T01:14:01Z</time>
  <course>191.62</course>
  <speed>0.85</speed>
  <fix>3d</fix>
</trkpt>
<trkpt lat="33.8102922" lon="-118.3938713">
  <ele>-2.172</ele>
  <time>2026-09-01T01:14:01Z</time>
  <course>191.8</course>
  <speed>0.8354639429682169</speed>
  <fix>3d</fix>
</trkpt>
<trkpt lat="33.8102939" lon="-118.3938709">
  <ele>-1.89</ele>
  <time>2026-09-01T01:14:01Z</time>
  <course>191.62</course>
  <speed>0.85</speed>
  <fix>3d</fix>
</trkpt>
<trkpt lat="33.8102914" lon="-118.3938715">
  <ele>-2.242</ele>
  <time>2026-09-01T01:14:01Z</time>
  <course>191.67</course>
  <speed>0.8452810183601664</speed>
  <fix>3d</fix>
</trkpt>
<trkpt lat="33.8102924" lon="-118.3938713">
  <ele>-2.02</ele>
  <time>2026-09-01T01:14:01Z</time>
  <course>191.59</course>
  <speed>0.84</speed>
  <fix>3d</fix>
</trkpt>
<trkpt lat="33.8102906" lon="-118.3938716">
  <ele>-2.312</ele>
  <time>2026-09-01T01:14:01Z</time>
  <course>191.52</course>
  <speed>0.8452810183601664</speed>
  <fix>3d</fix>
</trkpt>
<trkpt lat="33.8102924" lon="-118.3938713">
  <ele>-2.02</ele>
  <time>2026-09-01T01:14:01Z</time>
  <course>191.59</course>
  <speed>0.84</speed>
  <fix>3d</fix>
</trkpt>
<trkpt lat="33.8102899" lon="-118.3938718">
  <ele>-2.383</ele>
  <time>2026-09-01T01:14:01Z</time>
  <course>191.37</course>
  <speed>0.8452810183601664</speed>
  <fix>3d</fix>
</trkpt>
<trkpt lat="33.8102909" lon="-118.3938716">
  <ele>-2.15</ele>
  <time>2026-09-01T01:14:01Z</time>
  <course>191.46</course>
  <speed>0.84</speed>
  <fix>3d</fix>
</trkpt>
<trkpt lat="33.8102891" lon="-118.393872">
  <ele>-2.454</ele>
  <time>2026-09-01T01:14:01Z</time>
  <course>191.22</course>
  <speed>0.8452810183601664</speed>
  <fix>3d</fix>
</trkpt>
<trkpt lat="33.8102909" lon="-118.3938716">
  <ele>-2.15</ele>
  <time>2026-09-01T01:14:01Z</time>
  <course>191.46</course>
  <speed>0.84</speed>
  <fix>3d</fix>
</trkpt>
<trkpt lat="33.8102884" lon="-118.3938722">
  <ele>-2.524</ele>
  <time>2026-09-01T01:14:01Z</time>
  <course>191.08</course>
  <speed>0.8434453153583817</speed>
  <fix>3d</fix>
</trkpt>
<trkpt lat="33.8102894" lon="-118.3938719">
  <ele>-2.3</ele>
  <time>2026-09-01T01:14:01Z</time>
  <course>191.28</course>
  <speed>0.84</speed>
  <fix>3d</fix>
</trkpt>
<trkpt lat="33.8102876" lon="-118.3938723">
  <ele>-2.593</ele>
  <time>2026-09-01T01:14:01Z</time>
  <course>190.95</course>
  <speed>0.8434453153583817</speed>
  <fix>3d</fix>
</trkpt>
<trkpt lat="33.8102894" lon="-118.3938719">
  <ele>-2.3</ele>
  <time>2026-09-01T01:14:01Z</time>
  <course>191.28</course>
  <speed>0.84</speed>
  <fix>3d</fix>
</trkpt>
<trkpt lat="33.8102869" lon="-118.3938725">
  <ele>-2.662</ele>
  <time>2026-09-01T01:14:01Z</time>
  <course>190.85</course>
  <speed>0.8434453153583817</speed>
  <fix>3d</fix>
</trkpt>
<trkpt lat="33.8102879" lon="-118.3938724">
  <ele>-2.44</ele>
  <time>2026-09-01T01:14:01Z</time>
  <course>191.19</course>
  <speed>0.84</speed>
  <fix>3d</fix>
</trkpt>
<trkpt lat="33.8102861" lon="-118.3938727">
  <ele>-2.732</ele>
  <time>2026-09-01T01:14:01Z</time>
  <course>190.75</course>
  <speed>0.8434453153583817</speed>
  <fix>3d</fix>
</trkpt>
<trkpt lat="33.8102879" lon="-118.3938724">
  <ele>-2.44</ele>
  <time>2026-09-01T01:14:01Z</time>
  <course>191.19</course>
  <speed>0.84</speed>
  <fix>3d</fix>
</trkpt>
<trkpt lat="33.8102854" lon="-118.3938729">
  <ele>-2.802</ele>
  <time>2026-09-01T01:14:01Z</time>
  <course>190.64</course>
  <speed>0.8532877591996736</speed>
  <fix>3d</fix>
</trkpt>
<trkpt lat="33.8102864" lon="-118.3938727">
  <ele>-2.57</ele>
  <time>2026-09-01T01:14:01Z</time>
  <course>191.06</course>
  <speed>0.84</speed>
  <fix>3d</fix>
</trkpt>
<trkpt lat="33.8102846" lon="-118.393873">
  <ele>-2.872</ele>
  <time>2026-09-01T01:14:01Z</time>
  <course>190.52</course>
  <speed>0.8532877591996736</speed>
  <fix>3d</fix>
</trkpt>
<trkpt lat="33.8102864" lon="-118.3938727">
  <ele>-2.57</ele>
  <time>2026-09-01T01:14:01Z</time>
  <course>191.06</course>
  <speed>0.84</speed>
  <fix>3d</fix>
</trkpt>
<trkpt lat="33.8102839" lon="-118.3938732">
  <ele>-2.943</ele>
  <time>2026-09-01T01:14:01Z</time>
  <course>190.4</course>
  <speed>0.8532877591996736</speed>
  <fix>3d</fix>
</trkpt>
<trkpt lat="33.8102849" lon="-118.393873">
  <ele>-2.71</ele>
  <time>2026-09-01T01:14:01Z</time>
  <course>190.83</course>
  <speed>0.85</speed>
  <fix>3d</fix>
</trkpt>
<trkpt lat="33.8102831" lon="-118.3938734">
  <ele>-3.014</ele>
  <time>2026-09-01T01:14:01Z</time>
  <course>190.29</course>
  <speed>0.8532877591996736</speed>
  <fix>3d</fix>
</trkpt>
<trkpt lat="33.8102849" lon="-118.393873">
  <ele>-2.71</ele>
  <time>2026-09-01T01:14:01Z</time>
  <course>190.83</course>
  <speed>0.85</speed>
  <fix>3d</fix>
</trkpt>
<trkpt lat="33.8102823" lon="-118.3938735">
  <ele>-3.084</ele>
  <time>2026-09-01T01:14:01Z</time>
  <course>190.2</course>
  <speed>0.8532877591996736</speed>
  <fix>3d</fix>
</trkpt>
<trkpt lat="33.8102834" lon="-118.3938734">
  <ele>-2.85</ele>
  <time>2026-09-01T01:14:01Z</time>
  <course>190.67</course>
  <speed>0.85</speed>
  <fix>3d</fix>
</trkpt>
<trkpt lat="33.8102816" lon="-118.3938737">
  <ele>-3.154</ele>
  <time>2026-09-01T01:14:01Z</time>
  <course>190.13</course>
  <speed>0.8532877591996736</speed>
  <fix>3d</fix>
</trkpt>
<trkpt lat="33.8102834" lon="-118.3938734">
  <ele>-2.85</ele>
  <time>2026-09-01T01:14:01Z</time>
  <course>190.67</course>
  <speed>0.85</speed>
  <fix>3d</fix>
</trkpt>
<trkpt lat="33.8102808" lon="-118.3938739">
  <ele>-3.223</ele>
  <time>2026-09-01T01:14:01Z</time>
  <course>190.06</course>
  <speed>0.8532877591996736</speed>
  <fix>3d</fix>
</trkpt>
<trkpt lat="33.8102819" lon="-118.3938737">
  <ele>-2.99</ele>
  <time>2026-09-01T01:14:01Z</time>
  <course>190.54</course>
  <speed>0.85</speed>
  <fix>3d</fix>
</trkpt>
<trkpt lat="33.8102801" lon="-118.393874">
  <ele>-3.292</ele>
  <time>2026-09-01T01:14:01Z</time>
  <course>189.99</course>
  <speed>0.8532877591996736</speed>
  <fix>3d</fix>
</trkpt>
<trkpt lat="33.8102819" lon="-118.3938737">
  <ele>-2.99</ele>
  <time>2026-09-01T01:14:01Z</time>
  <course>190.54</course>
  <speed>0.85</speed>
  <fix>3d</fix>
</trkpt>
<trkpt lat="33.8102793" lon="-118.3938742">
  <ele>-3.362</ele>
  <time>2026-09-01T01:14:01Z</time>
  <course>189.93</course>
  <speed>0.8532877591996736</speed>
  <fix>3d</fix>
</trkpt>
<trkpt lat="33.8102804" lon="-118.3938741">
  <ele>-3.12</ele>
  <time>2026-09-01T01:14:01Z</time>
  <course>190.4</course>
  <speed>0.85</speed>
  <fix>3d</fix>
</trkpt>
<trkpt lat="33.8102786" lon="-118.3938744">
  <ele>-3.432</ele>
  <time>2026-09-01T01:14:01Z</time>
  <course>189.88</course>
  <speed>0.8515867542417507</speed>
  <fix>3d</fix>
</trkpt>
<trkpt lat="33.8102804" lon="-118.3938741">
  <ele>-3.12</ele>
  <time>2026-09-01T01:14:01Z</time>
  <course>190.4</course>
  <speed>0.85</speed>
  <fix>3d</fix>
</trkpt>
<trkpt lat="33.8102778" lon="-118.3938745">
  <ele>-3.503</ele>
  <time>2026-09-01T01:14:01Z</time>
  <course>189.82</course>
  <speed>0.8515867542417507</speed>
  <fix>3d</fix>
</trkpt>
<trkpt lat="33.8102789" lon="-118.3938744">
  <ele>-3.26</ele>
  <time>2026-09-01T01:14:01Z</time>
  <course>190.26</course>
  <speed>0.85</speed>
  <fix>3d</fix>
</trkpt>
<trkpt lat="33.810277" lon="-118.3938747">
  <ele>-3.575</ele>
  <time>2026-09-01T01:14:01Z</time>
  <course>189.77</course>
  <speed>0.8515867542417507</speed>
  <fix>3d</fix>
</trkpt>
<trkpt lat="33.8102789" lon="-118.3938744">
  <ele>-3.26</ele>
  <time>2026-09-01T01:14:01Z</time>
  <course>190.26</course>
  <speed>0.85</speed>
  <fix>3d</fix>
</trkpt>
<trkpt lat="33.8102763" lon="-118.3938749">
  <ele>-3.646</ele>
  <time>2026-09-01T01:14:01Z</time>
  <course>189.72</course>
  <speed>0.8614522621712709</speed>
  <fix>3d</fix>
</trkpt>
<trkpt lat="33.8102773" lon="-118.3938747">
  <ele>-3.4</ele>
  <time>2026-09-01T01:14:01Z</time>
  <course>190.09</course>
  <speed>0.86</speed>
  <fix>3d</fix>
</trkpt>
<trkpt lat="33.8102755" lon="-118.393875">
  <ele>-3.719</ele>
  <time>2026-09-01T01:14:01Z</time>
  <course>189.69</course>
  <speed>0.8614522621712709</speed>
  <fix>3d</fix>
</trkpt>
<trkpt lat="33.8102773" lon="-118.3938747">
  <ele>-3.4</ele>
  <time>2026-09-01T01:14:01Z</time>
  <course>190.09</course>
  <speed>0.86</speed>
  <fix>3d</fix>
</trkpt>
<trkpt lat="33.8102748" lon="-118.3938752">
  <ele>-3.791</ele>
  <time>2026-09-01T01:14:01Z</time>
  <course>189.67</course>
  <speed>0.8614522621712709</speed>
  <fix>3d</fix>
</trkpt>
<trkpt lat="33.8102758" lon="-118.393875">
  <ele>-3.55</ele>
  <time>2026-09-01T01:14:01Z</time>
  <course>189.99</course>
  <speed>0.86</speed>
  <fix>3d</fix>
</trkpt>
<trkpt lat="33.810274" lon="-118.3938754">
  <ele>-3.864</ele>
  <time>2026-09-01T01:14:01Z</time>
  <course>189.66</course>
  <speed>0.8631338250816034</speed>
  <fix>3d</fix>
</trkpt>
<trkpt lat="33.8102758" lon="-118.393875">
  <ele>-3.55</ele>
  <time>2026-09-01T01:14:01Z</time>
  <course>189.99</course>
  <speed>0.86</speed>
  <fix>3d</fix>
</trkpt>
<trkpt lat="33.8102732" lon="-118.3938755">
  <ele>-3.936</ele>
  <time>2026-09-01T01:14:01Z</time>
  <course>189.68</course>
  <speed>0.8631338250816034</speed>
  <fix>3d</fix>
</trkpt>
<trkpt lat="33.8102743" lon="-118.3938754">
  <ele>-3.68</ele>
  <time>2026-09-01T01:14:01Z</time>
  <course>189.97</course>
  <speed>0.86</speed>
  <fix>3d</fix>
</trkpt>
<trkpt lat="33.8102725" lon="-118.3938757">
  <ele>-4.009</ele>
  <time>2026-09-01T01:14:01Z</time>
  <course>189.71</course>
  <speed>0.8631338250816034</speed>
  <fix>3d</fix>
</trkpt>
<trkpt lat="33.8102743" lon="-118.3938754">
  <ele>-3.68</ele>
  <time>2026-09-01T01:14:01Z</time>
  <course>189.97</course>
  <speed>0.86</speed>
  <fix>3d</fix>
</trkpt>
<trkpt lat="33.8102717" lon="-118.3938759">
  <ele>-4.08</ele>
  <time>2026-09-01T01:14:01Z</time>
  <course>189.72</course>
  <speed>0.8631338250816034</speed>
  <fix>3d</fix>
</trkpt>
<trkpt lat="33.8102727" lon="-118.3938757">
  <ele>-3.82</ele>
  <time>2026-09-01T01:14:01Z</time>
  <course>189.94</course>
  <speed>0.86</speed>
  <fix>3d</fix>
</trkpt>
<trkpt lat="33.8102709" lon="-118.393876">
  <ele>-4.151</ele>
  <time>2026-09-01T01:14:01Z</time>
  <course>189.72</course>
  <speed>0.8631338250816034</speed>
  <fix>3d</fix>
</trkpt>
<trkpt lat="33.8102727" lon="-118.3938757">
  <ele>-3.82</ele>
  <time>2026-09-01T01:14:01Z</time>
  <course>189.94</course>
  <speed>0.86</speed>
  <fix>3d</fix>
</trkpt>
<trkpt lat="33.8102702" lon="-118.3938762">
  <ele>-4.222</ele>
  <time>2026-09-01T01:14:01Z</time>
  <course>189.73</course>
  <speed>0.8631338250816034</speed>
  <fix>3d</fix>
</trkpt>
<trkpt lat="33.8102712" lon="-118.393876">
  <ele>-3.95</ele>
  <time>2026-09-01T01:14:01Z</time>
  <course>189.86</course>
  <speed>0.86</speed>
  <fix>3d</fix>
</trkpt>
<trkpt lat="33.8102694" lon="-118.3938763">
  <ele>-4.293</ele>
  <time>2026-09-01T01:14:01Z</time>
  <course>189.73</course>
  <speed>0.8631338250816034</speed>
  <fix>3d</fix>
</trkpt>
<trkpt lat="33.8102712" lon="-118.393876">
  <ele>-3.95</ele>
  <time>2026-09-01T01:14:01Z</time>
  <course>189.86</course>
  <speed>0.86</speed>
  <fix>3d</fix>
</trkpt>
<trkpt lat="33.8102686" lon="-118.3938765">
  <ele>-4.363</ele>
  <time>2026-09-01T01:14:01Z</time>
  <course>189.76</course>
  <speed>0.8631338250816034</speed>
  <fix>3d</fix>
</trkpt>
<trkpt lat="33.8102697" lon="-118.3938763">
  <ele>-4.09</ele>
  <time>2026-09-01T01:14:01Z</time>
  <course>189.8</course>
  <speed>0.87</speed>
  <fix>3d</fix>
</trkpt>
<trkpt lat="33.8102679" lon="-118.3938767">
  <ele>-4.431</ele>
  <time>2026-09-01T01:14:01Z</time>
  <course>189.78</course>
  <speed>0.8631338250816034</speed>
  <fix>3d</fix>
</trkpt>
<trkpt lat="33.8102697" lon="-118.3938763">
  <ele>-4.09</ele>
  <time>2026-09-01T01:14:01Z</time>
  <course>189.8</course>
  <speed>0.87</speed>
  <fix>3d</fix>
</trkpt>
<trkpt lat="33.8102671" lon="-118.3938768">
  <ele>-4.5</ele>
  <time>2026-09-01T01:14:01Z</time>
  <course>189.82</course>
  <speed>0.8631338250816034</speed>
  <fix>3d</fix>
</trkpt>
<trkpt lat="33.8102681" lon="-118.3938767">
  <ele>-4.22</ele>
  <time>2026-09-01T01:14:01Z</time>
  <course>189.78</course>
  <speed>0.87</speed>
  <fix>3d</fix>
</trkpt>
<trkpt lat="33.8102663" lon="-118.393877">
  <ele>-4.57</ele>
  <time>2026-09-01T01:14:01Z</time>
  <course>189.85</course>
  <speed>0.8631338250816034</speed>
  <fix>3d</fix>
</trkpt>
<trkpt lat="33.8102681" lon="-118.3938767">
  <ele>-4.22</ele>
  <time>2026-09-01T01:14:01Z</time>
  <course>189.78</course>
  <speed>0.87</speed>
  <fix>3d</fix>
</trkpt>
<trkpt lat="33.8102656" lon="-118.3938772">
  <ele>-4.64</ele>
  <time>2026-09-01T01:14:01Z</time>
  <course>189.87</course>
  <speed>0.8631338250816034</speed>
  <fix>3d</fix>
</trkpt>
<trkpt lat="33.8102666" lon="-118.393877">
  <ele>-4.35</ele>
  <time>2026-09-01T01:14:01Z</time>
  <course>189.74</course>
  <speed>0.88</speed>
  <fix>3d</fix>
</trkpt>
<trkpt lat="33.8102648" lon="-118.3938773">
  <ele>-4.711</ele>
  <time>2026-09-01T01:14:01Z</time>
  <course>189.89</course>
  <speed>0.8631338250816034</speed>
  <fix>3d</fix>
</trkpt>
<trkpt lat="33.8102666" lon="-118.393877">
  <ele>-4.35</ele>
  <time>2026-09-01T01:14:01Z</time>
  <course>189.74</course>
  <speed>0.88</speed>
  <fix>3d</fix>
</trkpt>
<trkpt lat="33.810264" lon="-118.3938775">
  <ele>-4.782</ele>
  <time>2026-09-01T01:14:01Z</time>
  <course>189.9</course>
  <speed>0.8631338250816034</speed>
  <fix>3d</fix>
</trkpt>
<trkpt lat="33.810265" lon="-118.3938773">
  <ele>-4.49</ele>
  <time>2026-09-01T01:14:01Z</time>
  <course>189.66</course>
  <speed>0.88</speed>
  <fix>3d</fix>
</trkpt>
<trkpt lat="33.8102633" lon="-118.3938777">
  <ele>-4.853</ele>
  <time>2026-09-01T01:14:01Z</time>
  <course>189.92</course>
  <speed>0.8631338250816034</speed>
  <fix>3d</fix>
</trkpt>
<trkpt lat="33.810265" lon="-118.3938773">
  <ele>-4.49</ele>
  <time>2026-09-01T01:14:01Z</time>
  <course>189.66</course>
  <speed>0.88</speed>
  <fix>3d</fix>
</trkpt>
<trkpt lat="33.8102625" lon="-118.3938778">
  <ele>-4.924</ele>
  <time>2026-09-01T01:14:02Z</time>
  <course>189.94</course>
  <speed>0.8631338250816034</speed>
  <fix>3d</fix>
</trkpt>
<trkpt lat="33.8102635" lon="-118.3938776">
  <ele>-4.63</ele>
  <time>2026-09-01T01:14:02Z</time>
  <course>189.62</course>
  <speed>0.88</speed>
  <fix>3d</fix>
</trkpt>
<trkpt lat="33.8102617" lon="-118.393878">
  <ele>-4.995</ele>
  <time>2026-09-01T01:14:02Z</time>
  <course>189.98</course>
  <speed>0.8631338250816034</speed>
  <fix>3d</fix>
</trkpt>
<trkpt lat="33.8102635" lon="-118.3938776">
  <ele>-4.63</ele>
  <time>2026-09-01T01:14:02Z</time>
  <course>189.62</course>
  <speed>0.88</speed>
  <fix>3d</fix>
</trkpt>
<trkpt lat="33.8102609" lon="-118.3938781">
  <ele>-5.067</ele>
  <time>2026-09-01T01:14:02Z</time>
  <course>190.02</course>
  <speed>0.8631338250816034</speed>
  <fix>3d</fix>
</trkpt>
<trkpt lat="33.8102619" lon="-118.3938779">
  <ele>-4.77</ele>
  <time>2026-09-01T01:14:02Z</time>
  <course>189.6</course>
  <speed>0.88</speed>
  <fix>3d</fix>
</trkpt>
<trkpt lat="33.8102602" lon="-118.3938783">
  <ele>-5.14</ele>
  <time>2026-09-01T01:14:02Z</time>
  <course>190.07</course>
  <speed>0.8631338250816034</speed>
  <fix>3d</fix>
</trkpt>
<trkpt lat="33.8102619" lon="-118.3938779">
  <ele>-4.77</ele>
  <time>2026-09-01T01:14:02Z</time>
  <course>189.6</course>
  <speed>0.88</speed>
  <fix>3d</fix>
</trkpt>
<trkpt lat="33.8102594" lon="-118.3938785">
  <ele>-5.213</ele>
  <time>2026-09-01T01:14:02Z</time>
  <course>190.12</course>
  <speed>0.8631338250816034</speed>
  <fix>3d</fix>
</trkpt>
<trkpt lat="33.8102603" lon="-118.3938783">
  <ele>-4.91</ele>
  <time>2026-09-01T01:14:02Z</time>
  <course>189.61</course>
  <speed>0.88</speed>
  <fix>3d</fix>
</trkpt>
<trkpt lat="33.8102586" lon="-118.3938786">
  <ele>-5.285</ele>
  <time>2026-09-01T01:14:02Z</time>
  <course>190.18</course>
  <speed>0.8631338250816034</speed>
  <fix>3d</fix>
</trkpt>
<trkpt lat="33.8102603" lon="-118.3938783">
  <ele>-4.91</ele>
  <time>2026-09-01T01:14:02Z</time>
  <course>189.61</course>
  <speed>0.88</speed>
  <fix>3d</fix>
</trkpt>
<trkpt lat="33.8102578" lon="-118.3938788">
  <ele>-5.359</ele>
  <time>2026-09-01T01:14:02Z</time>
  <course>190.23</course>
  <speed>0.8631338250816034</speed>
  <fix>3d</fix>
</trkpt>
<trkpt lat="33.8102588" lon="-118.3938786">
  <ele>-5.06</ele>
  <time>2026-09-01T01:14:02Z</time>
  <course>189.6</course>
  <speed>0.88</speed>
  <fix>3d</fix>
</trkpt>
<trkpt lat="33.8102571" lon="-118.393879">
  <ele>-5.431</ele>
  <time>2026-09-01T01:14:02Z</time>
  <course>190.27</course>
  <speed>0.8631338250816034</speed>
  <fix>3d</fix>
</trkpt>
<trkpt lat="33.8102588" lon="-118.3938786">
  <ele>-5.06</ele>
  <time>2026-09-01T01:14:02Z</time>
  <course>189.6</course>
  <speed>0.88</speed>
  <fix>3d</fix>
</trkpt>
<trkpt lat="33.8102563" lon="-118.3938791">
  <ele>-5.502</ele>
  <time>2026-09-01T01:14:02Z</time>
  <course>190.3</course>
  <speed>0.8631338250816034</speed>
  <fix>3d</fix>
</trkpt>
<trkpt lat="33.8102571" lon="-118.3938789">
  <ele>-5.2</ele>
  <time>2026-09-01T01:14:02Z</time>
  <course>189.56</course>
  <speed>0.88</speed>
  <fix>3d</fix>
</trkpt>
<trkpt lat="33.8102555" lon="-118.3938793">
  <ele>-5.574</ele>
  <time>2026-09-01T01:14:02Z</time>
  <course>190.34</course>
  <speed>0.8631338250816034</speed>
  <fix>3d</fix>
</trkpt>
<trkpt lat="33.8102571" lon="-118.3938789">
  <ele>-5.2</ele>
  <time>2026-09-01T01:14:02Z</time>
  <course>189.56</course>
  <speed>0.88</speed>
  <fix>3d</fix>
</trkpt>
<trkpt lat="33.8102547" lon="-118.3938795">
  <ele>-5.646</ele>
  <time>2026-09-01T01:14:02Z</time>
  <course>190.39</course>
  <speed>0.8631338250816034</speed>
  <fix>3d</fix>
</trkpt>
<trkpt lat="33.8102556" lon="-118.3938792">
  <ele>-5.34</ele>
  <time>2026-09-01T01:14:02Z</time>
  <course>189.54</course>
  <speed>0.88</speed>
  <fix>3d</fix>
</trkpt>
<trkpt lat="33.8102539" lon="-118.3938796">
  <ele>-5.718</ele>
  <time>2026-09-01T01:14:02Z</time>
  <course>190.44</course>
  <speed>0.8649277426467485</speed>
  <fix>3d</fix>
</trkpt>
<trkpt lat="33.8102556" lon="-118.3938792">
  <ele>-5.34</ele>
  <time>2026-09-01T01:14:02Z</time>
  <course>189.54</course>
  <speed>0.88</speed>
  <fix>3d</fix>
</trkpt>
<trkpt lat="33.8102531" lon="-118.3938798">
  <ele>-5.79</ele>
  <time>2026-09-01T01:14:02Z</time>
  <course>190.5</course>
  <speed>0.8649277426467485</speed>
  <fix>3d</fix>
</trkpt>
<trkpt lat="33.810254" lon="-118.3938795">
  <ele>-5.48</ele>
  <time>2026-09-01T01:14:02Z</time>
  <course>189.56</course>
  <speed>0.88</speed>
  <fix>3d</fix>
</trkpt>
<trkpt lat="33.8102524" lon="-118.3938799">
  <ele>-5.864</ele>
  <time>2026-09-01T01:14:02Z</time>
  <course>190.56</course>
  <speed>0.8649277426467485</speed>
  <fix>3d</fix>
</trkpt>
<trkpt lat="33.810254" lon="-118.3938795">
  <ele>-5.48</ele>
  <time>2026-09-01T01:14:02Z</time>
  <course>189.56</course>
  <speed>0.88</speed>
  <fix>3d</fix>
</trkpt>
<trkpt lat="33.8102516" lon="-118.3938801">
  <ele>-5.937</ele>
  <time>2026-09-01T01:14:02Z</time>
  <course>190.63</course>
  <speed>0.8649277426467485</speed>
  <fix>3d</fix>
</trkpt>
<trkpt lat="33.8102525" lon="-118.3938799">
  <ele>-5.62</ele>
  <time>2026-09-01T01:14:02Z</time>
  <course>189.59</course>
  <speed>0.88</speed>
  <fix>3d</fix>
</trkpt>
<trkpt lat="33.8102508" lon="-118.3938803">
  <ele>-6.011</ele>
  <time>2026-09-01T01:14:02Z</time>
  <course>190.7</course>
  <speed>0.8649277426467485</speed>
  <fix>3d</fix>
</trkpt>
<trkpt lat="33.8102525" lon="-118.3938799">
  <ele>-5.62</ele>
  <time>2026-09-01T01:14:02Z</time>
  <course>189.59</course>
  <speed>0.88</speed>
  <fix>3d</fix>
</trkpt>
<trkpt lat="33.81025" lon="-118.3938804">
  <ele>-6.084</ele>
  <time>2026-09-01T01:14:02Z</time>
  <course>190.75</course>
  <speed>0.8649277426467485</speed>
  <fix>3d</fix>
</trkpt>
<trkpt lat="33.8102509" lon="-118.3938802">
  <ele>-5.76</ele>
  <time>2026-09-01T01:14:02Z</time>
  <course>189.61</course>
  <speed>0.88</speed>
  <fix>3d</fix>
</trkpt>
<trkpt lat="33.8102492" lon="-118.3938806">
  <ele>-6.157</ele>
  <time>2026-09-01T01:14:02Z</time>
  <course>190.78</course>
  <speed>0.8649277426467485</speed>
  <fix>3d</fix>
</trkpt>
<trkpt lat="33.8102509" lon="-118.3938802">
  <ele>-5.76</ele>
  <time>2026-09-01T01:14:02Z</time>
  <course>189.61</course>
  <speed>0.88</speed>
  <fix>3d</fix>
</trkpt>
<trkpt lat="33.8102484" lon="-118.3938808">
  <ele>-6.231</ele>
  <time>2026-09-01T01:14:02Z</time>
  <course>190.81</course>
  <speed>0.8649277426467485</speed>
  <fix>3d</fix>
</trkpt>
<trkpt lat="33.8102493" lon="-118.3938805">
  <ele>-5.91</ele>
  <time>2026-09-01T01:14:02Z</time>
  <course>189.58</course>
  <speed>0.89</speed>
  <fix>3d</fix>
</trkpt>
<trkpt lat="33.8102477" lon="-118.3938809">
  <ele>-6.305</ele>
  <time>2026-09-01T01:14:02Z</time>
  <course>190.85</course>
  <speed>0.8649277426467485</speed>
  <fix>3d</fix>
</trkpt>
<trkpt lat="33.8102493" lon="-118.3938805">
  <ele>-5.91</ele>
  <time>2026-09-01T01:14:02Z</time>
  <course>189.58</course>
  <speed>0.89</speed>
  <fix>3d</fix>
</trkpt>
<trkpt lat="33.8102469" lon="-118.3938811">
  <ele>-6.38</ele>
  <time>2026-09-01T01:14:02Z</time>
  <course>190.89</course>
  <speed>0.8649277426467485</speed>
  <fix>3d</fix>
</trkpt>
<trkpt lat="33.8102478" lon="-118.3938808">
  <ele>-6.05</ele>
  <time>2026-09-01T01:14:02Z</time>
  <course>189.56</course>
  <speed>0.89</speed>
  <fix>3d</fix>
</trkpt>
<trkpt lat="33.8102461" lon="-118.3938813">
  <ele>-6.453</ele>
  <time>2026-09-01T01:14:02Z</time>
  <course>190.93</course>
  <speed>0.8649277426467485</speed>
  <fix>3d</fix>
</trkpt>
<trkpt lat="33.8102478" lon="-118.3938808">
  <ele>-6.05</ele>
  <time>2026-09-01T01:14:02Z</time>
  <course>189.56</course>
  <speed>0.89</speed>
  <fix>3d</fix>
</trkpt>
<trkpt lat="33.8102453" lon="-118.3938814">
  <ele>-6.526</ele>
  <time>2026-09-01T01:14:02Z</time>
  <course>190.99</course>
  <speed>0.8747571091451616</speed>
  <fix>3d</fix>
</trkpt>
<trkpt lat="33.8102461" lon="-118.3938811">
  <ele>-6.19</ele>
  <time>2026-09-01T01:14:02Z</time>
  <course>189.59</course>
  <speed>0.89</speed>
  <fix>3d</fix>
</trkpt>
<trkpt lat="33.8102445" lon="-118.3938816">
  <ele>-6.597</ele>
  <time>2026-09-01T01:14:02Z</time>
  <course>191.06</course>
  <speed>0.8649277426467485</speed>
  <fix>3d</fix>
</trkpt>
<trkpt lat="33.8102461" lon="-118.3938811">
  <ele>-6.19</ele>
  <time>2026-09-01T01:14:02Z</time>
  <course>189.59</course>
  <speed>0.89</speed>
  <fix>3d</fix>
</trkpt>
<trkpt lat="33.8102437" lon="-118.3938818">
  <ele>-6.669</ele>
  <time>2026-09-01T01:14:02Z</time>
  <course>191.12</course>
  <speed>0.8649277426467485</speed>
  <fix>3d</fix>
</trkpt>
<trkpt lat="33.8102446" lon="-118.3938815">
  <ele>-6.33</ele>
  <time>2026-09-01T01:14:02Z</time>
  <course>189.63</course>
  <speed>0.9</speed>
  <fix>3d</fix>
</trkpt>
<trkpt lat="33.8102429" lon="-118.3938819">
  <ele>-6.741</ele>
  <time>2026-09-01T01:14:02Z</time>
  <course>191.19</course>
  <speed>0.8649277426467485</speed>
  <fix>3d</fix>
</trkpt>
<trkpt lat="33.8102446" lon="-118.3938815">
  <ele>-6.33</ele>
  <time>2026-09-01T01:14:02Z</time>
  <course>189.63</course>
  <speed>0.9</speed>
  <fix>3d</fix>
</trkpt>
<trkpt lat="33.8102421" lon="-118.3938821">
  <ele>-6.815</ele>
  <time>2026-09-01T01:14:02Z</time>
  <course>191.25</course>
  <speed>0.8649277426467485</speed>
  <fix>3d</fix>
</trkpt>
<trkpt lat="33.810243" lon="-118.3938818">
  <ele>-6.47</ele>
  <time>2026-09-01T01:14:02Z</time>
  <course>189.66</course>
  <speed>0.89</speed>
  <fix>3d</fix>
</trkpt>
<trkpt lat="33.8102413" lon="-118.3938823">
  <ele>-6.888</ele>
  <time>2026-09-01T01:14:02Z</time>
  <course>191.28</course>
  <speed>0.8649277426467485</speed>
  <fix>3d</fix>
</trkpt>
<trkpt lat="33.810243" lon="-118.3938818">
  <ele>-6.47</ele>
  <time>2026-09-01T01:14:02Z</time>
  <course>189.66</course>
  <speed>0.89</speed>
  <fix>3d</fix>
</trkpt>
<trkpt lat="33.8102405" lon="-118.3938824">
  <ele>-6.96</ele>
  <time>2026-09-01T01:14:02Z</time>
  <course>191.32</course>
  <speed>0.8649277426467485</speed>
  <fix>3d</fix>
</trkpt>
<trkpt lat="33.8102413" lon="-118.3938821">
  <ele>-6.62</ele>
  <time>2026-09-01T01:14:02Z</time>
  <course>189.67</course>
  <speed>0.89</speed>
  <fix>3d</fix>
</trkpt>
<trkpt lat="33.8102397" lon="-118.3938826">
  <ele>-7.033</ele>
  <time>2026-09-01T01:14:02Z</time>
  <course>191.36</course>
  <speed>0.8668333173107734</speed>
  <fix>3d</fix>
</trkpt>
<trkpt lat="33.8102413" lon="-118.3938821">
  <ele>-6.62</ele>
  <time>2026-09-01T01:14:02Z</time>
  <course>189.67</course>
  <speed>0.89</speed>
  <fix>3d</fix>
</trkpt>
<trkpt lat="33.810239" lon="-118.3938828">
  <ele>-7.106</ele>
  <time>2026-09-01T01:14:02Z</time>
  <course>191.42</course>
  <speed>0.8668333173107734</speed>
  <fix>3d</fix>
</trkpt>
<trkpt lat="33.8102398" lon="-118.3938824">
  <ele>-6.76</ele>
  <time>2026-09-01T01:14:02Z</time>
  <course>189.7</course>
  <speed>0.89</speed>
  <fix>3d</fix>
</trkpt>
<trkpt lat="33.8102382" lon="-118.3938829">
  <ele>-7.181</ele>
  <time>2026-09-01T01:14:02Z</time>
  <course>191.47</course>
  <speed>0.8668333173107734</speed>
  <fix>3d</fix>
</trkpt>
<trkpt lat="33.8102398" lon="-118.3938824">
  <ele>-6.76</ele>
  <time>2026-09-01T01:14:02Z</time>
  <course>189.7</course>
  <speed>0.89</speed>
  <fix>3d</fix>
</trkpt>
<trkpt lat="33.8102374" lon="-118.3938831">
  <ele>-7.256</ele>
  <time>2026-09-01T01:14:02Z</time>
  <course>191.53</course>
  <speed>0.8668333173107734</speed>
  <fix>3d</fix>
</trkpt>
<trkpt lat="33.8102382" lon="-118.3938828">
  <ele>-6.9</ele>
  <time>2026-09-01T01:14:02Z</time>
  <course>189.76</course>
  <speed>0.89</speed>
  <fix>3d</fix>
</trkpt>
<trkpt lat="33.8102366" lon="-118.3938833">
  <ele>-7.33</ele>
  <time>2026-09-01T01:14:02Z</time>
  <course>191.58</course>
  <speed>0.8668333173107734</speed>
  <fix>3d</fix>
</trkpt>
<trkpt lat="33.8102382" lon="-118.3938828">
  <ele>-6.9</ele>
  <time>2026-09-01T01:14:02Z</time>
  <course>189.76</course>
  <speed>0.89</speed>
  <fix>3d</fix>
</trkpt>
<trkpt lat="33.8102358" lon="-118.3938834">
  <ele>-7.405</ele>
  <time>2026-09-01T01:14:02Z</time>
  <course>191.63</course>
  <speed>0.8668333173107734</speed>
  <fix>3d</fix>
</trkpt>
<trkpt lat="33.8102365" lon="-118.3938831">
  <ele>-7.05</ele>
  <time>2026-09-01T01:14:02Z</time>
  <course>189.81</course>
  <speed>0.9</speed>
  <fix>3d</fix>
</trkpt>
<trkpt lat="33.810235" lon="-118.3938836">
  <ele>-7.48</ele>
  <time>2026-09-01T01:14:02Z</time>
  <course>191.67</course>
  <speed>0.8668333173107734</speed>
  <fix>3d</fix>
</trkpt>
<trkpt lat="33.8102365" lon="-118.3938831">
  <ele>-7.05</ele>
  <time>2026-09-01T01:14:02Z</time>
  <course>189.81</course>
  <speed>0.9</speed>
  <fix>3d</fix>
</trkpt>
<trkpt lat="33.8102342" lon="-118.3938838">
  <ele>-7.556</ele>
  <time>2026-09-01T01:14:02Z</time>
  <course>191.72</course>
  <speed>0.8668333173107734</speed>
  <fix>3d</fix>
</trkpt>
<trkpt lat="33.810235" lon="-118.3938834">
  <ele>-7.2</ele>
  <time>2026-09-01T01:14:02Z</time>
  <course>189.84</course>
  <speed>0.9</speed>
  <fix>3d</fix>
</trkpt>
<trkpt lat="33.8102334" lon="-118.3938839">
  <ele>-7.631</ele>
  <time>2026-09-01T01:14:02Z</time>
  <course>191.76</course>
  <speed>0.8668333173107734</speed>
  <fix>3d</fix>
</trkpt>
<trkpt lat="33.810235" lon="-118.3938834">
  <ele>-7.2</ele>
  <time>2026-09-01T01:14:02Z</time>
  <course>189.84</course>
  <speed>0.9</speed>
  <fix>3d</fix>
</trkpt>
<trkpt lat="33.8102326" lon="-118.3938841">
  <ele>-7.707</ele>
  <time>2026-09-01T01:14:02Z</time>
  <course>191.8</course>
  <speed>0.8766413177577246</speed>
  <fix>3d</fix>
</trkpt>
<trkpt lat="33.8102334" lon="-118.3938838">
  <ele>-7.34</ele>
  <time>2026-09-01T01:14:02Z</time>
  <course>189.9</course>
  <speed>0.9</speed>
  <fix>3d</fix>
</trkpt>
<trkpt lat="33.8102318" lon="-118.3938843">
  <ele>-7.781</ele>
  <time>2026-09-01T01:14:02Z</time>
  <course>191.85</course>
  <speed>0.8766413177577246</speed>
  <fix>3d</fix>
</trkpt>
<trkpt lat="33.8102334" lon="-118.3938838">
  <ele>-7.34</ele>
  <time>2026-09-01T01:14:02Z</time>
  <course>189.9</course>
  <speed>0.9</speed>
  <fix>3d</fix>
</trkpt>
<trkpt lat="33.810231" lon="-118.3938845">
  <ele>-7.856</ele>
  <time>2026-09-01T01:14:02Z</time>
  <course>191.88</course>
  <speed>0.8766413177577246</speed>
  <fix>3d</fix>
</trkpt>
<trkpt lat="33.8102317" lon="-118.3938841">
  <ele>-7.49</ele>
  <time>2026-09-01T01:14:02Z</time>
  <course>189.95</course>
  <speed>0.9</speed>
  <fix>3d</fix>
</trkpt>
<trkpt lat="33.8102302" lon="-118.3938846">
  <ele>-7.93</ele>
  <time>2026-09-01T01:14:02Z</time>
  <course>191.91</course>
  <speed>0.8766413177577246</speed>
  <fix>3d</fix>
</trkpt>
<trkpt lat="33.8102317" lon="-118.3938841">
  <ele>-7.49</ele>
  <time>2026-09-01T01:14:02Z</time>
  <course>189.95</course>
  <speed>0.9</speed>
  <fix>3d</fix>
</trkpt>
<trkpt lat="33.8102294" lon="-118.3938848">
  <ele>-8.003</ele>
  <time>2026-09-01T01:14:02Z</time>
  <course>191.95</course>
  <speed>0.8766413177577246</speed>
  <fix>3d</fix>
</trkpt>
<trkpt lat="33.8102302" lon="-118.3938845">
  <ele>-7.63</ele>
  <time>2026-09-01T01:14:02Z</time>
  <course>189.97</course>
  <speed>0.9</speed>
  <fix>3d</fix>
</trkpt>
<trkpt lat="33.8102286" lon="-118.393885">
  <ele>-8.077</ele>
  <time>2026-09-01T01:14:02Z</time>
  <course>191.97</course>
  <speed>0.8766413177577246</speed>
  <fix>3d</fix>
</trkpt>
<trkpt lat="33.8102302" lon="-118.3938845">
  <ele>-7.63</ele>
  <time>2026-09-01T01:14:02Z</time>
  <course>189.97</course>
  <speed>0.9</speed>
  <fix>3d</fix>
</trkpt>
<trkpt lat="33.8102278" lon="-118.3938851">
  <ele>-8.15</ele>
  <time>2026-09-01T01:14:02Z</time>
  <course>191.99</course>
  <speed>0.8766413177577246</speed>
  <fix>3d</fix>
</trkpt>
<trkpt lat="33.8102286" lon="-118.3938848">
  <ele>-7.77</ele>
  <time>2026-09-01T01:14:02Z</time>
  <course>190.0</course>
  <speed>0.9</speed>
  <fix>3d</fix>
</trkpt>
<trkpt lat="33.810227" lon="-118.3938853">
  <ele>-8.224</ele>
  <time>2026-09-01T01:14:02Z</time>
  <course>191.99</course>
  <speed>0.8668333173107734</speed>
  <fix>3d</fix>
</trkpt>
<trkpt lat="33.8102286" lon="-118.3938848">
  <ele>-7.77</ele>
  <time>2026-09-01T01:14:02Z</time>
  <course>190.0</course>
  <speed>0.9</speed>
  <fix>3d</fix>
</trkpt>
<trkpt lat="33.8102262" lon="-118.3938855">
  <ele>-8.299</ele>
  <time>2026-09-01T01:14:02Z</time>
  <course>191.99</course>
  <speed>0.8766413177577246</speed>
  <fix>3d</fix>
</trkpt>
<trkpt lat="33.810227" lon="-118.3938851">
  <ele>-7.92</ele>
  <time>2026-09-01T01:14:02Z</time>
  <course>190.01</course>
  <speed>0.9</speed>
  <fix>3d</fix>
</trkpt>
<trkpt lat="33.8102254" lon="-118.3938857">
  <ele>-8.376</ele>
  <time>2026-09-01T01:14:02Z</time>
  <course>192.0</course>
  <speed>0.8766413177577246</speed>
  <fix>3d</fix>
</trkpt>
<trkpt lat="33.810227" lon="-118.3938851">
  <ele>-7.92</ele>
  <time>2026-09-01T01:14:02Z</time>
  <course>190.01</course>
  <speed>0.9</speed>
  <fix>3d</fix>
</trkpt>
<trkpt lat="33.8102246" lon="-118.3938858">
  <ele>-8.452</ele>
  <time>2026-09-01T01:14:02Z</time>
  <course>192.02</course>
  <speed>0.8766413177577246</speed>
  <fix>3d</fix>
</trkpt>
<trkpt lat="33.8102253" lon="-118.3938855">
  <ele>-8.06</ele>
  <time>2026-09-01T01:14:02Z</time>
  <course>190.04</course>
  <speed>0.9</speed>
  <fix>3d</fix>
</trkpt>
<trkpt lat="33.8102238" lon="-118.393886">
  <ele>-8.527</ele>
  <time>2026-09-01T01:14:02Z</time>
  <course>192.04</course>
  <speed>0.8766413177577246</speed>
  <fix>3d</fix>
</trkpt>
<trkpt lat="33.8102253" lon="-118.3938855">
  <ele>-8.06</ele>
  <time>2026-09-01T01:14:02Z</time>
  <course>190.04</course>
  <speed>0.9</speed>
  <fix>3d</fix>
</trkpt>
<trkpt lat="33.8102229" lon="-118.3938862">
  <ele>-8.601</ele>
  <time>2026-09-01T01:14:02Z</time>
  <course>192.07</course>
  <speed>0.8766413177577246</speed>
  <fix>3d</fix>
</trkpt>
<trkpt lat="33.8102238" lon="-118.3938858">
  <ele>-8.21</ele>
  <time>2026-09-01T01:14:02Z</time>
  <course>190.11</course>
  <speed>0.91</speed>
  <fix>3d</fix>
</trkpt>
<trkpt lat="33.8102221" lon="-118.3938864">
  <ele>-8.673</ele>
  <time>2026-09-01T01:14:02Z</time>
  <course>192.08</course>
  <speed>0.8766413177577246</speed>
  <fix>3d</fix>
</trkpt>
<trkpt lat="33.8102238" lon="-118.3938858">
  <ele>-8.21</ele>
  <time>2026-09-01T01:14:02Z</time>
  <course>190.11</course>
  <speed>0.91</speed>
  <fix>3d</fix>
</trkpt>
<trkpt lat="33.8102213" lon="-118.3938865">
  <ele>-8.746</ele>
  <time>2026-09-01T01:14:02Z</time>
  <course>192.1</course>
  <speed>0.8766413177577246</speed>
  <fix>3d</fix>
</trkpt>
<trkpt lat="33.8102221" lon="-118.3938862">
  <ele>-8.36</ele>
  <time>2026-09-01T01:14:02Z</time>
  <course>190.15</course>
  <speed>0.91</speed>
  <fix>3d</fix>
</trkpt>
<trkpt lat="33.8102205" lon="-118.3938867">
  <ele>-8.819</ele>
  <time>2026-09-01T01:14:02Z</time>
  <course>192.11</course>
  <speed>0.8766413177577246</speed>
  <fix>3d</fix>
</trkpt>
<trkpt lat="33.8102221" lon="-118.3938862">
  <ele>-8.36</ele>
  <time>2026-09-01T01:14:02Z</time>
  <course>190.15</course>
  <speed>0.91</speed>
  <fix>3d</fix>
</trkpt>
<trkpt lat="33.8102197" lon="-118.3938869">
  <ele>-8.893</ele>
  <time>2026-09-01T01:14:02Z</time>
  <course>192.12</course>
  <speed>0.8766413177577246</speed>
  <fix>3d</fix>
</trkpt>
<trkpt lat="33.8102205" lon="-118.3938865">
  <ele>-8.5</ele>
  <time>2026-09-01T01:14:02Z</time>
  <course>190.18</course>
  <speed>0.91</speed>
  <fix>3d</fix>
</trkpt>
<trkpt lat="33.8102189" lon="-118.393887">
  <ele>-8.969</ele>
  <time>2026-09-01T01:14:02Z</time>
  <course>192.12</course>
  <speed>0.8668333173107734</speed>
  <fix>3d</fix>
</trkpt>
<trkpt lat="33.8102205" lon="-118.3938865">
  <ele>-8.5</ele>
  <time>2026-09-01T01:14:02Z</time>
  <course>190.18</course>
  <speed>0.91</speed>
  <fix>3d</fix>
</trkpt>
<trkpt lat="33.8102181" lon="-118.3938872">
  <ele>-9.045</ele>
  <time>2026-09-01T01:14:02Z</time>
  <course>192.13</course>
  <speed>0.8766413177577246</speed>
  <fix>3d</fix>
</trkpt>
<trkpt lat="33.8102188" lon="-118.3938869">
  <ele>-8.65</ele>
  <time>2026-09-01T01:14:02Z</time>
  <course>190.22</course>
  <speed>0.9</speed>
  <fix>3d</fix>
</trkpt>
<trkpt lat="33.8102173" lon="-118.3938874">
  <ele>-9.121</ele>
  <time>2026-09-01T01:14:02Z</time>
  <course>192.13</course>
  <speed>0.8766413177577246</speed>
  <fix>3d</fix>
</trkpt>
<trkpt lat="33.8102188" lon="-118.3938869">
  <ele>-8.65</ele>
  <time>2026-09-01T01:14:02Z</time>
  <course>190.22</course>
  <speed>0.9</speed>
  <fix>3d</fix>
</trkpt>
<trkpt lat="33.8102165" lon="-118.3938876">
  <ele>-9.197</ele>
  <time>2026-09-01T01:14:02Z</time>
  <course>192.14</course>
  <speed>0.8766413177577246</speed>
  <fix>3d</fix>
</trkpt>
<trkpt lat="33.8102173" lon="-118.3938872">
  <ele>-8.8</ele>
  <time>2026-09-01T01:14:02Z</time>
  <course>190.25</course>
  <speed>0.9</speed>
  <fix>3d</fix>
</trkpt>
<trkpt lat="33.8102157" lon="-118.3938877">
  <ele>-9.274</ele>
  <time>2026-09-01T01:14:02Z</time>
  <course>192.15</course>
  <speed>0.8766413177577246</speed>
  <fix>3d</fix>
</trkpt>
<trkpt lat="33.8102173" lon="-118.3938872">
  <ele>-8.8</ele>
  <time>2026-09-01T01:14:02Z</time>
  <course>190.25</course>
  <speed>0.9</speed>
  <fix>3d</fix>
</trkpt>
<trkpt lat="33.8102149" lon="-118.3938879">
  <ele>-9.35</ele>
  <time>2026-09-01T01:14:02Z</time>
  <course>192.14</course>
  <speed>0.8766413177577246</speed>
  <fix>3d</fix>
</trkpt>
<trkpt lat="33.8102157" lon="-118.3938876">
  <ele>-8.95</ele>
  <time>2026-09-01T01:14:02Z</time>
  <course>190.29</course>
  <speed>0.9</speed>
  <fix>3d</fix>
</trkpt>
<trkpt lat="33.8102141" lon="-118.3938881">
  <ele>-9.426</ele>
  <time>2026-09-01T01:14:02Z</time>
  <course>192.14</course>
  <speed>0.8786353054595518</speed>
  <fix>3d</fix>
</trkpt>
<trkpt lat="33.8102157" lon="-118.3938876">
  <ele>-8.95</ele>
  <time>2026-09-01T01:14:02Z</time>
  <course>190.29</course>
  <speed>0.9</speed>
  <fix>3d</fix>
</trkpt>
<trkpt lat="33.8102133" lon="-118.3938883">
  <ele>-9.502</ele>
  <time>2026-09-01T01:14:02Z</time>
  <course>192.13</course>
  <speed>0.8766413177577246</speed>
  <fix>3d</fix>
</trkpt>
<trkpt lat="33.810214" lon="-118.3938879">
  <ele>-9.11</ele>
  <time>2026-09-01T01:14:02Z</time>
  <course>190.31</course>
  <speed>0.91</speed>
  <fix>3d</fix>
</trkpt>
<trkpt lat="33.8102125" lon="-118.3938884">
  <ele>-9.578</ele>
  <time>2026-09-01T01:14:02Z</time>
  <course>192.11</course>
  <speed>0.8786353054595518</speed>
  <fix>3d</fix>
</trkpt>
<trkpt lat="33.810214" lon="-118.3938879">
  <ele>-9.11</ele>
  <time>2026-09-01T01:14:02Z</time>
  <course>190.31</course>
  <speed>0.91</speed>
  <fix>3d</fix>
</trkpt>
<trkpt lat="33.8102116" lon="-118.3938886">
  <ele>-9.655</ele>
  <time>2026-09-01T01:14:02Z</time>
  <course>192.11</course>
  <speed>0.8786353054595518</speed>
  <fix>3d</fix>
</trkpt>
<trkpt lat="33.8102125" lon="-118.3938882">
  <ele>-9.26</ele>
  <time>2026-09-01T01:14:02Z</time>
  <course>190.33</course>
  <speed>0.91</speed>
  <fix>3d</fix>
</trkpt>
<trkpt lat="33.8102108" lon="-118.3938888">
  <ele>-9.731</ele>
  <time>2026-09-01T01:14:02Z</time>
  <course>192.11</course>
  <speed>0.8786353054595518</speed>
  <fix>3d</fix>
</trkpt>
<trkpt lat="33.8102125" lon="-118.3938882">
  <ele>-9.26</ele>
  <time>2026-09-01T01:14:02Z</time>
  <course>190.33</course>
  <speed>0.91</speed>
  <fix>3d</fix>
</trkpt>
<trkpt lat="33.81021" lon="-118.393889">
  <ele>-9.809</ele>
  <time>2026-09-01T01:14:02Z</time>
  <course>192.13</course>
  <speed>0.8884255736976508</speed>
  <fix>3d</fix>
</trkpt>
<trkpt lat="33.8102109" lon="-118.3938886">
  <ele>-9.41</ele>
  <time>2026-09-01T01:14:02Z</time>
  <course>190.4</course>
  <speed>0.91</speed>
  <fix>3d</fix>
</trkpt>
<trkpt lat="33.8102092" lon="-118.3938891">
  <ele>-9.887</ele>
  <time>2026-09-01T01:14:02Z</time>
  <course>192.13</course>
  <speed>0.8884255736976508</speed>
  <fix>3d</fix>
</trkpt>
<trkpt lat="33.8102109" lon="-118.3938886">
  <ele>-9.41</ele>
  <time>2026-09-01T01:14:02Z</time>
  <course>190.4</course>
  <speed>0.91</speed>
  <fix>3d</fix>
</trkpt>
<trkpt lat="33.8102084" lon="-118.3938893">
  <ele>-9.966</ele>
  <time>2026-09-01T01:14:02Z</time>
  <course>192.13</course>
  <speed>0.8884255736976508</speed>
  <fix>3d</fix>
</trkpt>
<trkpt lat="33.8102092" lon="-118.393889">
  <ele>-9.56</ele>
  <time>2026-09-01T01:14:02Z</time>
  <course>190.45</course>
  <speed>0.91</speed>
  <fix>3d</fix>
</trkpt>
<trkpt lat="33.8102076" lon="-118.3938895">
  <ele>-10.044</ele>
  <time>2026-09-01T01:14:02Z</time>
  <course>192.12</course>
  <speed>0.8884255736976508</speed>
  <fix>3d</fix>
</trkpt>
<trkpt lat="33.8102092" lon="-118.393889">
  <ele>-9.56</ele>
  <time>2026-09-01T01:14:02Z</time>
  <course>190.45</course>
  <speed>0.91</speed>
  <fix>3d</fix>
</trkpt>
<trkpt lat="33.8102067" lon="-118.3938897">
  <ele>-10.12</ele>
  <time>2026-09-01T01:14:02Z</time>
  <course>192.09</course>
  <speed>0.8982204629154248</speed>
  <fix>3d</fix>
</trkpt>
<trkpt lat="33.8102076" lon="-118.3938894">
  <ele>-9.71</ele>
  <time>2026-09-01T01:14:02Z</time>
  <course>190.46</course>
  <speed>0.92</speed>
  <fix>3d</fix>
</trkpt>
<trkpt lat="33.8102059" lon="-118.3938899">
  <ele>-10.196</ele>
  <time>2026-09-01T01:14:02Z</time>
  <course>192.06</course>
  <speed>0.8982204629154248</speed>
  <fix>3d</fix>
</trkpt>
<trkpt lat="33.8102076" lon="-118.3938894">
  <ele>-9.71</ele>
  <time>2026-09-01T01:14:02Z</time>
  <course>190.46</course>
  <speed>0.92</speed>
  <fix>3d</fix>
</trkpt>
<trkpt lat="33.8102051" lon="-118.39389">
  <ele>-10.272</ele>
  <time>2026-09-01T01:14:02Z</time>
  <course>192.02</course>
  <speed>0.8982204629154248</speed>
  <fix>3d</fix>
</trkpt>
<trkpt lat="33.8102059" lon="-118.3938897">
  <ele>-9.86</ele>
  <time>2026-09-01T01:14:02Z</time>
  <course>190.43</course>
  <speed>0.92</speed>
  <fix>3d</fix>
</trkpt>
<trkpt lat="33.8102043" lon="-118.3938902">
  <ele>-10.347</ele>
  <time>2026-09-01T01:14:02Z</time>
  <course>191.99</course>
  <speed>0.8982204629154248</speed>
  <fix>3d</fix>
</trkpt>
<trkpt lat="33.8102059" lon="-118.3938897">
  <ele>-9.86</ele>
  <time>2026-09-01T01:14:02Z</time>
  <course>190.43</course>
  <speed>0.92</speed>
  <fix>3d</fix>
</trkpt>
<trkpt lat="33.8102035" lon="-118.3938904">
  <ele>-10.423</ele>
  <time>2026-09-01T01:14:02Z</time>
  <course>191.95</course>
  <speed>0.8982204629154248</speed>
  <fix>3d</fix>
</trkpt>
<trkpt lat="33.8102043" lon="-118.3938901">
  <ele>-10.01</ele>
  <time>2026-09-01T01:14:02Z</time>
  <course>190.41</course>
  <speed>0.92</speed>
  <fix>3d</fix>
</trkpt>
<trkpt lat="33.8102026" lon="-118.3938906">
  <ele>-10.498</ele>
  <time>2026-09-01T01:14:02Z</time>
  <course>191.92</course>
  <speed>0.8982204629154248</speed>
  <fix>3d</fix>
</trkpt>
<trkpt lat="33.8102043" lon="-118.3938901">
  <ele>-10.01</ele>
  <time>2026-09-01T01:14:02Z</time>
  <course>190.41</course>
  <speed>0.92</speed>
  <fix>3d</fix>
</trkpt>
<trkpt lat="33.8102018" lon="-118.3938908">
  <ele>-10.574</ele>
  <time>2026-09-01T01:14:02Z</time>
  <course>191.89</course>
  <speed>0.8982204629154248</speed>
  <fix>3d</fix>
</trkpt>
<trkpt lat="33.8102027" lon="-118.3938905">
  <ele>-10.15</ele>
  <time>2026-09-01T01:14:02Z</time>
  <course>190.41</course>
  <speed>0.92</speed>
  <fix>3d</fix>
</trkpt>
<trkpt lat="33.810201" lon="-118.393891">
  <ele>-10.65</ele>
  <time>2026-09-01T01:14:02Z</time>
  <course>191.85</course>
  <speed>0.8962700485902673</speed>
  <fix>3d</fix>
</trkpt>
<trkpt lat="33.8102027" lon="-118.3938905">
  <ele>-10.15</ele>
  <time>2026-09-01T01:14:02Z</time>
  <course>190.41</course>
  <speed>0.92</speed>
  <fix>3d</fix>
</trkpt>
<trkpt lat="33.8102002" lon="-118.3938911">
  <ele>-10.727</ele>
  <time>2026-09-01T01:14:02Z</time>
  <course>191.81</course>
  <speed>0.8962700485902673</speed>
  <fix>3d</fix>
</trkpt>
<trkpt lat="33.8102011" lon="-118.3938908">
  <ele>-10.3</ele>
  <time>2026-09-01T01:14:02Z</time>
  <course>190.38</course>
  <speed>0.92</speed>
  <fix>3d</fix>
</trkpt>
<trkpt lat="33.8101994" lon="-118.3938913">
  <ele>-10.803</ele>
  <time>2026-09-01T01:14:02Z</time>
  <course>191.76</course>
  <speed>0.8962700485902673</speed>
  <fix>3d</fix>
</trkpt>
<trkpt lat="33.8102011" lon="-118.3938908">
  <ele>-10.3</ele>
  <time>2026-09-01T01:14:02Z</time>
  <course>190.38</course>
  <speed>0.92</speed>
  <fix>3d</fix>
</trkpt>
<trkpt lat="33.8101985" lon="-118.3938915">
  <ele>-10.88</ele>
  <time>2026-09-01T01:14:02Z</time>
  <course>191.71</course>
  <speed>0.8962700485902673</speed>
  <fix>3d</fix>
</trkpt>
<trkpt lat="33.8101994" lon="-118.3938912">
  <ele>-10.45</ele>
  <time>2026-09-01T01:14:02Z</time>
  <course>190.34</course>
  <speed>0.92</speed>
  <fix>3d</fix>
</trkpt>
<trkpt lat="33.8101977" lon="-118.3938917">
  <ele>-10.956</ele>
  <time>2026-09-01T01:14:02Z</time>
  <course>191.67</course>
  <speed>0.8962700485902673</speed>
  <fix>3d</fix>
</trkpt>
<trkpt lat="33.8101994" lon="-118.3938912">
  <ele>-10.45</ele>
  <time>2026-09-01T01:14:02Z</time>
  <course>190.34</course>
  <speed>0.92</speed>
  <fix>3d</fix>
</trkpt>
<trkpt lat="33.8101969" lon="-118.3938919">
  <ele>-11.033</ele>
  <time>2026-09-01T01:14:02Z</time>
  <course>191.63</course>
  <speed>0.8962700485902673</speed>
  <fix>3d</fix>
</trkpt>
<trkpt lat="33.8101978" lon="-118.3938915">
  <ele>-10.6</ele>
  <time>2026-09-01T01:14:02Z</time>
  <course>190.33</course>
  <speed>0.92</speed>
  <fix>3d</fix>
</trkpt>
<trkpt lat="33.8101961" lon="-118.393892">
  <ele>-11.109</ele>
  <time>2026-09-01T01:14:02Z</time>
  <course>191.6</course>
  <speed>0.8962700485902673</speed>
  <fix>3d</fix>
</trkpt>
<trkpt lat="33.8101978" lon="-118.3938915">
  <ele>-10.6</ele>
  <time>2026-09-01T01:14:02Z</time>
  <course>190.33</course>
  <speed>0.92</speed>
  <fix>3d</fix>
</trkpt>
<trkpt lat="33.8101952" lon="-118.3938922">
  <ele>-11.186</ele>
  <time>2026-09-01T01:14:02Z</time>
  <course>191.58</course>
  <speed>0.8962700485902673</speed>
  <fix>3d</fix>
</trkpt>
<trkpt lat="33.8101961" lon="-118.3938919">
  <ele>-10.74</ele>
  <time>2026-09-01T01:14:02Z</time>
  <course>190.34</course>
  <speed>0.92</speed>
  <fix>3d</fix>
</trkpt>
<trkpt lat="33.8101944" lon="-118.3938924">
  <ele>-11.263</ele>
  <time>2026-09-01T01:14:02Z</time>
  <course>191.56</course>
  <speed>0.8962700485902673</speed>
  <fix>3d</fix>
</trkpt>
<trkpt lat="33.8101961" lon="-118.3938919">
  <ele>-10.74</ele>
  <time>2026-09-01T01:14:02Z</time>
  <course>190.34</course>
  <speed>0.92</speed>
  <fix>3d</fix>
</trkpt>
<trkpt lat="33.8101936" lon="-118.3938926">
  <ele>-11.34</ele>
  <time>2026-09-01T01:14:02Z</time>
  <course>191.55</course>
  <speed>0.8962700485902673</speed>
  <fix>3d</fix>
</trkpt>
<trkpt lat="33.8101944" lon="-118.3938923">
  <ele>-10.89</ele>
  <time>2026-09-01T01:14:02Z</time>
  <course>190.36</course>
  <speed>0.93</speed>
  <fix>3d</fix>
</trkpt>
<trkpt lat="33.8101928" lon="-118.3938927">
  <ele>-11.417</ele>
  <time>2026-09-01T01:14:02Z</time>
  <course>191.52</course>
  <speed>0.8962700485902673</speed>
  <fix>3d</fix>
</trkpt>
<trkpt lat="33.8101944" lon="-118.3938923">
  <ele>-10.89</ele>
  <time>2026-09-01T01:14:02Z</time>
  <course>190.36</course>
  <speed>0.93</speed>
  <fix>3d</fix>
</trkpt>
<trkpt lat="33.8101919" lon="-118.3938929">
  <ele>-11.495</ele>
  <time>2026-09-01T01:14:02Z</time>
  <course>191.5</course>
  <speed>0.8962700485902673</speed>
  <fix>3d</fix>
</trkpt>
<trkpt lat="33.8101928" lon="-118.3938926">
  <ele>-11.04</ele>
  <time>2026-09-01T01:14:02Z</time>
  <course>190.36</course>
  <speed>0.93</speed>
  <fix>3d</fix>
</trkpt>
<trkpt lat="33.8101911" lon="-118.3938931">
  <ele>-11.573</ele>
  <time>2026-09-01T01:14:02Z</time>
  <course>191.48</course>
  <speed>0.8962700485902673</speed>
  <fix>3d</fix>
</trkpt>
<trkpt lat="33.8101928" lon="-118.3938926">
  <ele>-11.04</ele>
  <time>2026-09-01T01:14:02Z</time>
  <course>190.36</course>
  <speed>0.93</speed>
  <fix>3d</fix>
</trkpt>
<trkpt lat="33.8101903" lon="-118.3938933">
  <ele>-11.65</ele>
  <time>2026-09-01T01:14:02Z</time>
  <course>191.45</course>
  <speed>0.9060905032059435</speed>
  <fix>3d</fix>
</trkpt>
<trkpt lat="33.8101912" lon="-118.393893">
  <ele>-11.19</ele>
  <time>2026-09-01T01:14:02Z</time>
  <course>190.37</course>
  <speed>0.93</speed>
  <fix>3d</fix>
</trkpt>
<trkpt lat="33.8101895" lon="-118.3938935">
  <ele>-11.729</ele>
  <time>2026-09-01T01:14:02Z</time>
  <course>191.43</course>
  <speed>0.9060905032059435</speed>
  <fix>3d</fix>
</trkpt>
<trkpt lat="33.8101912" lon="-118.393893">
  <ele>-11.19</ele>
  <time>2026-09-01T01:14:02Z</time>
  <course>190.37</course>
  <speed>0.93</speed>
  <fix>3d</fix>
</trkpt>
<trkpt lat="33.8101886" lon="-118.3938937">
  <ele>-11.807</ele>
  <time>2026-09-01T01:14:02Z</time>
  <course>191.41</course>
  <speed>0.9060905032059435</speed>
  <fix>3d</fix>
</trkpt>
<trkpt lat="33.8101895" lon="-118.3938933">
  <ele>-11.34</ele>
  <time>2026-09-01T01:14:02Z</time>
  <course>190.38</course>
  <speed>0.93</speed>
  <fix>3d</fix>
</trkpt>
<trkpt lat="33.8101878" lon="-118.3938938">
  <ele>-11.885</ele>
  <time>2026-09-01T01:14:02Z</time>
  <course>191.39</course>
  <speed>0.9060905032059435</speed>
  <fix>3d</fix>
</trkpt>
<trkpt lat="33.8101895" lon="-118.3938933">
  <ele>-11.34</ele>
  <time>2026-09-01T01:14:02Z</time>
  <course>190.38</course>
  <speed>0.93</speed>
  <fix>3d</fix>
</trkpt>
<trkpt lat="33.810187" lon="-118.393894">
  <ele>-11.961</ele>
  <time>2026-09-01T01:14:02Z</time>
  <course>191.37</course>
  <speed>0.9060905032059435</speed>
  <fix>3d</fix>
</trkpt>
<trkpt lat="33.8101879" lon="-118.3938937">
  <ele>-11.49</ele>
  <time>2026-09-01T01:14:02Z</time>
  <course>190.38</course>
  <speed>0.93</speed>
  <fix>3d</fix>
</trkpt>
<trkpt lat="33.8101861" lon="-118.3938942">
  <ele>-12.037</ele>
  <time>2026-09-01T01:14:02Z</time>
  <course>191.37</course>
  <speed>0.9060905032059435</speed>
  <fix>3d</fix>
</trkpt>
<trkpt lat="33.8101879" lon="-118.3938937">
  <ele>-11.49</ele>
  <time>2026-09-01T01:14:02Z</time>
  <course>190.38</course>
  <speed>0.93</speed>
  <fix>3d</fix>
</trkpt>
<trkpt lat="33.8101853" lon="-118.3938944">
  <ele>-12.113</ele>
  <time>2026-09-01T01:14:02Z</time>
  <course>191.35</course>
  <speed>0.9060905032059435</speed>
  <fix>3d</fix>
</trkpt>
<trkpt lat="33.8101862" lon="-118.3938941">
  <ele>-11.64</ele>
  <time>2026-09-01T01:14:02Z</time>
  <course>190.4</course>
  <speed>0.93</speed>
  <fix>3d</fix>
</trkpt>
<trkpt lat="33.8101845" lon="-118.3938946">
  <ele>-12.191</ele>
  <time>2026-09-01T01:14:02Z</time>
  <course>191.33</course>
  <speed>0.9060905032059435</speed>
  <fix>3d</fix>
</trkpt>
<trkpt lat="33.8101862" lon="-118.3938941">
  <ele>-11.64</ele>
  <time>2026-09-01T01:14:02Z</time>
  <course>190.4</course>
  <speed>0.93</speed>
  <fix>3d</fix>
</trkpt>
<trkpt lat="33.8101836" lon="-118.3938947">
  <ele>-12.269</ele>
  <time>2026-09-01T01:14:02Z</time>
  <course>191.3</course>
  <speed>0.9060905032059435</speed>
  <fix>3d</fix>
</trkpt>
<trkpt lat="33.8101846" lon="-118.3938944">
  <ele>-11.79</ele>
  <time>2026-09-01T01:14:02Z</time>
  <course>190.39</course>
  <speed>0.93</speed>
  <fix>3d</fix>
</trkpt>
<trkpt lat="33.8101828" lon="-118.3938949">
  <ele>-12.347</ele>
  <time>2026-09-01T01:14:02Z</time>
  <course>191.27</course>
  <speed>0.9060905032059435</speed>
  <fix>3d</fix>
</trkpt>
<trkpt lat="33.8101846" lon="-118.3938944">
  <ele>-11.79</ele>
  <time>2026-09-01T01:14:02Z</time>
  <course>190.39</course>
  <speed>0.93</speed>
  <fix>3d</fix>
</trkpt>
<trkpt lat="33.810182" lon="-118.3938951">
  <ele>-12.425</ele>
  <time>2026-09-01T01:14:02Z</time>
  <course>191.25</course>
  <speed>0.9060905032059435</speed>
  <fix>3d</fix>
</trkpt>
<trkpt lat="33.8101829" lon="-118.3938948">
  <ele>-11.94</ele>
  <time>2026-09-01T01:14:02Z</time>
  <course>190.39</course>
  <speed>0.93</speed>
  <fix>3d</fix>
</trkpt>
<trkpt lat="33.8101811" lon="-118.3938953">
  <ele>-12.502</ele>
  <time>2026-09-01T01:14:02Z</time>
  <course>191.24</course>
  <speed>0.9060905032059435</speed>
  <fix>3d</fix>
</trkpt>
<trkpt lat="33.8101829" lon="-118.3938948">
  <ele>-11.94</ele>
  <time>2026-09-01T01:14:02Z</time>
  <course>190.39</course>
  <speed>0.93</speed>
  <fix>3d</fix>
</trkpt>
<trkpt lat="33.8101803" lon="-118.3938955">
  <ele>-12.579</ele>
  <time>2026-09-01T01:14:02Z</time>
  <course>191.21</course>
  <speed>0.9060905032059435</speed>
  <fix>3d</fix>
</trkpt>
<trkpt lat="33.8101812" lon="-118.3938952">
  <ele>-12.09</ele>
  <time>2026-09-01T01:14:02Z</time>
  <course>190.39</course>
  <speed>0.93</speed>
  <fix>3d</fix>
</trkpt>
<trkpt lat="33.8101795" lon="-118.3938956">
  <ele>-12.656</ele>
  <time>2026-09-01T01:14:02Z</time>
  <course>191.19</course>
  <speed>0.9060905032059435</speed>
  <fix>3d</fix>
</trkpt>
<trkpt lat="33.8101812" lon="-118.3938952">
  <ele>-12.09</ele>
  <time>2026-09-01T01:14:02Z</time>
  <course>190.39</course>
  <speed>0.93</speed>
  <fix>3d</fix>
</trkpt>
<trkpt lat="33.8101787" lon="-118.3938958">
  <ele>-12.732</ele>
  <time>2026-09-01T01:14:02Z</time>
  <course>191.16</course>
  <speed>0.9060905032059435</speed>
  <fix>3d</fix>
</trkpt>
<trkpt lat="33.8101796" lon="-118.3938955">
  <ele>-12.25</ele>
  <time>2026-09-01T01:14:02Z</time>
  <course>190.38</course>
  <speed>0.93</speed>
  <fix>3d</fix>
</trkpt>
<trkpt lat="33.8101778" lon="-118.393896">
  <ele>-12.809</ele>
  <time>2026-09-01T01:14:02Z</time>
  <course>191.13</course>
  <speed>0.9060905032059435</speed>
  <fix>3d</fix>
</trkpt>
<trkpt lat="33.8101796" lon="-118.3938955">
  <ele>-12.25</ele>
  <time>2026-09-01T01:14:02Z</time>
  <course>190.38</course>
  <speed>0.93</speed>
  <fix>3d</fix>
</trkpt>
<trkpt lat="33.810177" lon="-118.3938962">
  <ele>-12.888</ele>
  <time>2026-09-01T01:14:02Z</time>
  <course>191.11</course>
  <speed>0.9060905032059435</speed>
  <fix>3d</fix>
</trkpt>
<trkpt lat="33.8101779" lon="-118.3938959">
  <ele>-12.4</ele>
  <time>2026-09-01T01:14:02Z</time>
  <course>190.35</course>
  <speed>0.93</speed>
  <fix>3d</fix>
</trkpt>
<trkpt lat="33.8101762" lon="-118.3938964">
  <ele>-12.968</ele>
  <time>2026-09-01T01:14:02Z</time>
  <course>191.09</course>
  <speed>0.9060905032059435</speed>
  <fix>3d</fix>
</trkpt>
<trkpt lat="33.8101779" lon="-118.3938959">
  <ele>-12.4</ele>
  <time>2026-09-01T01:14:02Z</time>
  <course>190.35</course>
  <speed>0.93</speed>
  <fix>3d</fix>
</trkpt>
<trkpt lat="33.8101753" lon="-118.3938966">
  <ele>-13.048</ele>
  <time>2026-09-01T01:14:02Z</time>
  <course>191.08</course>
  <speed>0.9159148432032315</speed>
  <fix>3d</fix>
</trkpt>
<trkpt lat="33.8101762" lon="-118.3938963">
  <ele>-12.55</ele>
  <time>2026-09-01T01:14:02Z</time>
  <course>190.35</course>
  <speed>0.94</speed>
  <fix>3d</fix>
</trkpt>
<trkpt lat="33.8101745" lon="-118.3938967">
  <ele>-13.127</ele>
  <time>2026-09-01T01:14:02Z</time>
  <course>191.05</course>
  <speed>0.9159148432032315</speed>
  <fix>3d</fix>
</trkpt>
<trkpt lat="33.8101762" lon="-118.3938963">
  <ele>-12.55</ele>
  <time>2026-09-01T01:14:02Z</time>
  <course>190.35</course>
  <speed>0.94</speed>
  <fix>3d</fix>
</trkpt>
<trkpt lat="33.8101736" lon="-118.3938969">
  <ele>-13.205</ele>
  <time>2026-09-01T01:14:02Z</time>
  <course>191.03</course>
  <speed>0.9159148432032315</speed>
  <fix>3d</fix>
</trkpt>
<trkpt lat="33.8101746" lon="-118.3938966">
  <ele>-12.71</ele>
  <time>2026-09-01T01:14:02Z</time>
  <course>190.32</course>
  <speed>0.94</speed>
  <fix>3d</fix>
</trkpt>
<trkpt lat="33.8101728" lon="-118.3938971">
  <ele>-13.283</ele>
  <time>2026-09-01T01:14:02Z</time>
  <course>191.01</course>
  <speed>0.9159148432032315</speed>
  <fix>3d</fix>
</trkpt>
<trkpt lat="33.8101746" lon="-118.3938966">
  <ele>-12.71</ele>
  <time>2026-09-01T01:14:02Z</time>
  <course>190.32</course>
  <speed>0.94</speed>
  <fix>3d</fix>
</trkpt>
<trkpt lat="33.810172" lon="-118.3938973">
  <ele>-13.361</ele>
  <time>2026-09-01T01:14:02Z</time>
  <course>190.99</course>
  <speed>0.9159148432032315</speed>
  <fix>3d</fix>
</trkpt>
<trkpt lat="33.8101729" lon="-118.393897">
  <ele>-12.86</ele>
  <time>2026-09-01T01:14:02Z</time>
  <course>190.31</course>
  <speed>0.94</speed>
  <fix>3d</fix>
</trkpt>
<trkpt lat="33.8101711" lon="-118.3938975">
  <ele>-13.439</ele>
  <time>2026-09-01T01:14:02Z</time>
  <course>190.98</course>
  <speed>0.9159148432032315</speed>
  <fix>3d</fix>
</trkpt>
<trkpt lat="33.8101729" lon="-118.393897">
  <ele>-12.86</ele>
  <time>2026-09-01T01:14:02Z</time>
  <course>190.31</course>
  <speed>0.94</speed>
  <fix>3d</fix>
</trkpt>
<trkpt lat="33.8101703" lon="-118.3938976">
  <ele>-13.518</ele>
  <time>2026-09-01T01:14:02Z</time>
  <course>190.97</course>
  <speed>0.9159148432032315</speed>
  <fix>3d</fix>
</trkpt>
<trkpt lat="33.8101712" lon="-118.3938973">
  <ele>-13.02</ele>
  <time>2026-09-01T01:14:02Z</time>
  <course>190.32</course>
  <speed>0.94</speed>
  <fix>3d</fix>
</trkpt>
<trkpt lat="33.8101694" lon="-118.3938978">
  <ele>-13.597</ele>
  <time>2026-09-01T01:14:02Z</time>
  <course>190.96</course>
  <speed>0.9159148432032315</speed>
  <fix>3d</fix>
</trkpt>
<trkpt lat="33.8101712" lon="-118.3938973">
  <ele>-13.02</ele>
  <time>2026-09-01T01:14:02Z</time>
  <course>190.32</course>
  <speed>0.94</speed>
  <fix>3d</fix>
</trkpt>
<trkpt lat="33.8101686" lon="-118.393898">
  <ele>-13.677</ele>
  <time>2026-09-01T01:14:02Z</time>
  <course>190.95</course>
  <speed>0.9159148432032315</speed>
  <fix>3d</fix>
</trkpt>
<trkpt lat="33.8101696" lon="-118.3938977">
  <ele>-13.17</ele>
  <time>2026-09-01T01:14:02Z</time>
  <course>190.33</course>
  <speed>0.94</speed>
  <fix>3d</fix>
</trkpt>
<trkpt lat="33.8101678" lon="-118.3938982">
  <ele>-13.756</ele>
  <time>2026-09-01T01:14:02Z</time>
  <course>190.95</course>
  <speed>0.9257429448826494</speed>
  <fix>3d</fix>
</trkpt>
<trkpt lat="33.8101696" lon="-118.3938977">
  <ele>-13.17</ele>
  <time>2026-09-01T01:14:02Z</time>
  <course>190.33</course>
  <speed>0.94</speed>
  <fix>3d</fix>
</trkpt>
<trkpt lat="33.8101669" lon="-118.3938984">
  <ele>-13.834</ele>
  <time>2026-09-01T01:14:02Z</time>
  <course>190.95</course>
  <speed>0.9257429448826494</speed>
  <fix>3d</fix>
</trkpt>
<trkpt lat="33.8101679" lon="-118.3938981">
  <ele>-13.32</ele>
  <time>2026-09-01T01:14:02Z</time>
  <course>190.35</course>
  <speed>0.94</speed>
  <fix>3d</fix>
</trkpt>
<trkpt lat="33.8101661" lon="-118.3938986">
  <ele>-13.912</ele>
  <time>2026-09-01T01:14:02Z</time>
  <course>190.95</course>
  <speed>0.9257429448826494</speed>
  <fix>3d</fix>
</trkpt>
<trkpt lat="33.8101679" lon="-118.3938981">
  <ele>-13.32</ele>
  <time>2026-09-01T01:14:02Z</time>
  <course>190.35</course>
  <speed>0.94</speed>
  <fix>3d</fix>
</trkpt>
<trkpt lat="33.8101652" lon="-118.3938987">
  <ele>-13.991</ele>
  <time>2026-09-01T01:14:02Z</time>
  <course>190.93</course>
  <speed>0.9257429448826494</speed>
  <fix>3d</fix>
</trkpt>
<trkpt lat="33.8101662" lon="-118.3938985">
  <ele>-13.48</ele>
  <time>2026-09-01T01:14:02Z</time>
  <course>190.34</course>
  <speed>0.95</speed>
  <fix>3d</fix>
</trkpt>
<trkpt lat="33.8101644" lon="-118.3938989">
  <ele>-14.07</ele>
  <time>2026-09-01T01:14:02Z</time>
  <course>190.9</course>
  <speed>0.9257429448826494</speed>
  <fix>3d</fix>
</trkpt>
<trkpt lat="33.8101662" lon="-118.3938985">
  <ele>-13.48</ele>
  <time>2026-09-01T01:14:02Z</time>
  <course>190.34</course>
  <speed>0.95</speed>
  <fix>3d</fix>
</trkpt>
<trkpt lat="33.8101636" lon="-118.3938991">
  <ele>-14.148</ele>
  <time>2026-09-01T01:14:02Z</time>
  <course>190.87</course>
  <speed>0.9257429448826494</speed>
  <fix>3d</fix>
</trkpt>
<trkpt lat="33.8101645" lon="-118.3938988">
  <ele>-13.63</ele>
  <time>2026-09-01T01:14:02Z</time>
  <course>190.3</course>
  <speed>0.95</speed>
  <fix>3d</fix>
</trkpt>
<trkpt lat="33.8101627" lon="-118.3938993">
  <ele>-14.226</ele>
  <time>2026-09-01T01:14:02Z</time>
  <course>190.84</course>
  <speed>0.9257429448826494</speed>
  <fix>3d</fix>
</trkpt>
<trkpt lat="33.8101645" lon="-118.3938988">
  <ele>-13.63</ele>
  <time>2026-09-01T01:14:02Z</time>
  <course>190.3</course>
  <speed>0.95</speed>
  <fix>3d</fix>
</trkpt>
<trkpt lat="33.8101619" lon="-118.3938995">
  <ele>-14.304</ele>
  <time>2026-09-01T01:14:02Z</time>
  <course>190.82</course>
  <speed>0.9257429448826494</speed>
  <fix>3d</fix>
</trkpt>
<trkpt lat="33.8101628" lon="-118.3938992">
  <ele>-13.78</ele>
  <time>2026-09-01T01:14:02Z</time>
  <course>190.26</course>
  <speed>0.95</speed>
  <fix>3d</fix>
</trkpt>
<trkpt lat="33.810161" lon="-118.3938997">
  <ele>-14.383</ele>
  <time>2026-09-01T01:14:02Z</time>
  <course>190.81</course>
  <speed>0.9257429448826494</speed>
  <fix>3d</fix>
</trkpt>
<trkpt lat="33.8101628" lon="-118.3938992">
  <ele>-13.78</ele>
  <time>2026-09-01T01:14:02Z</time>
  <course>190.26</course>
  <speed>0.95</speed>
  <fix>3d</fix>
</trkpt>
<trkpt lat="33.8101602" lon="-118.3938998">
  <ele>-14.462</ele>
  <time>2026-09-01T01:14:02Z</time>
  <course>190.8</course>
  <speed>0.9257429448826494</speed>
  <fix>3d</fix>
</trkpt>
<trkpt lat="33.8101612" lon="-118.3938996">
  <ele>-13.94</ele>
  <time>2026-09-01T01:14:02Z</time>
  <course>190.26</course>
  <speed>0.95</speed>
  <fix>3d</fix>
</trkpt>
<trkpt lat="33.8101593" lon="-118.3939">
  <ele>-14.54</ele>
  <time>2026-09-01T01:14:02Z</time>
  <course>190.78</course>
  <speed>0.9257429448826494</speed>
  <fix>3d</fix>
</trkpt>
<trkpt lat="33.8101612" lon="-118.3938996">
  <ele>-13.94</ele>
  <time>2026-09-01T01:14:02Z</time>
  <course>190.26</course>
  <speed>0.95</speed>
  <fix>3d</fix>
</trkpt>
<trkpt lat="33.8101585" lon="-118.3939002">
  <ele>-14.619</ele>
  <time>2026-09-01T01:14:02Z</time>
  <course>190.75</course>
  <speed>0.9257429448826494</speed>
  <fix>3d</fix>
</trkpt>
<trkpt lat="33.8101595" lon="-118.3938999">
  <ele>-14.09</ele>
  <time>2026-09-01T01:14:02Z</time>
  <course>190.24</course>
  <speed>0.95</speed>
  <fix>3d</fix>
</trkpt>
<trkpt lat="33.8101577" lon="-118.3939004">
  <ele>-14.699</ele>
  <time>2026-09-01T01:14:02Z</time>
  <course>190.72</course>
  <speed>0.9257429448826494</speed>
  <fix>3d</fix>
</trkpt>
<trkpt lat="33.8101595" lon="-118.3938999">
  <ele>-14.09</ele>
  <time>2026-09-01T01:14:02Z</time>
  <course>190.24</course>
  <speed>0.95</speed>
  <fix>3d</fix>
</trkpt>
<trkpt lat="33.8101568" lon="-118.3939006">
  <ele>-14.779</ele>
  <time>2026-09-01T01:14:02Z</time>
  <course>190.71</course>
  <speed>0.9257429448826494</speed>
  <fix>3d</fix>
</trkpt>
<trkpt lat="33.8101578" lon="-118.3939003">
  <ele>-14.25</ele>
  <time>2026-09-01T01:14:02Z</time>
  <course>190.2</course>
  <speed>0.95</speed>
  <fix>3d</fix>
</trkpt>
<trkpt lat="33.810156" lon="-118.3939008">
  <ele>-14.858</ele>
  <time>2026-09-01T01:14:02Z</time>
  <course>190.71</course>
  <speed>0.9257429448826494</speed>
  <fix>3d</fix>
</trkpt>
<trkpt lat="33.8101578" lon="-118.3939003">
  <ele>-14.25</ele>
  <time>2026-09-01T01:14:02Z</time>
  <course>190.2</course>
  <speed>0.95</speed>
  <fix>3d</fix>
</trkpt>
<trkpt lat="33.8101551" lon="-118.3939009">
  <ele>-14.939</ele>
  <time>2026-09-01T01:14:02Z</time>
  <course>190.69</course>
  <speed>0.9355746896961247</speed>
  <fix>3d</fix>
</trkpt>
<trkpt lat="33.8101561" lon="-118.3939007">
  <ele>-14.41</ele>
  <time>2026-09-01T01:14:02Z</time>
  <course>190.2</course>
  <speed>0.95</speed>
  <fix>3d</fix>
</trkpt>
<trkpt lat="33.8101543" lon="-118.3939011">
  <ele>-15.02</ele>
  <time>2026-09-01T01:14:02Z</time>
  <course>190.68</course>
  <speed>0.9355746896961247</speed>
  <fix>3d</fix>
</trkpt>
<trkpt lat="33.8101561" lon="-118.3939007">
  <ele>-14.41</ele>
  <time>2026-09-01T01:14:02Z</time>
  <course>190.2</course>
  <speed>0.95</speed>
  <fix>3d</fix>
</trkpt>
<trkpt lat="33.8101534" lon="-118.3939013">
  <ele>-15.101</ele>
  <time>2026-09-01T01:14:02Z</time>
  <course>190.65</course>
  <speed>0.9355746896961247</speed>
  <fix>3d</fix>
</trkpt>
<trkpt lat="33.8101544" lon="-118.393901">
  <ele>-14.56</ele>
  <time>2026-09-01T01:14:02Z</time>
  <course>190.17</course>
  <speed>0.95</speed>
  <fix>3d</fix>
</trkpt>
<trkpt lat="33.8101526" lon="-118.3939015">
  <ele>-15.181</ele>
  <time>2026-09-01T01:14:02Z</time>
  <course>190.63</course>
  <speed>0.9355746896961247</speed>
  <fix>3d</fix>
</trkpt>
<trkpt lat="33.8101544" lon="-118.393901">
  <ele>-14.56</ele>
  <time>2026-09-01T01:14:02Z</time>
  <course>190.17</course>
  <speed>0.95</speed>
  <fix>3d</fix>
</trkpt>
<trkpt lat="33.8101517" lon="-118.3939017">
  <ele>-15.26</ele>
  <time>2026-09-01T01:14:02Z</time>
  <course>190.63</course>
  <speed>0.9355746896961247</speed>
  <fix>3d</fix>
</trkpt>
<trkpt lat="33.8101527" lon="-118.3939014">
  <ele>-14.71</ele>
  <time>2026-09-01T01:14:02Z</time>
  <course>190.14</course>
  <speed>0.96</speed>
  <fix>3d</fix>
</trkpt>
<trkpt lat="33.8101509" lon="-118.3939019">
  <ele>-15.34</ele>
  <time>2026-09-01T01:14:02Z</time>
  <course>190.63</course>
  <speed>0.9355746896961247</speed>
  <fix>3d</fix>
</trkpt>
<trkpt lat="33.8101527" lon="-118.3939014">
  <ele>-14.71</ele>
  <time>2026-09-01T01:14:02Z</time>
  <course>190.14</course>
  <speed>0.96</speed>
  <fix>3d</fix>
</trkpt>
<trkpt lat="33.81015" lon="-118.393902">
  <ele>-15.42</ele>
  <time>2026-09-01T01:14:02Z</time>
  <course>190.64</course>
  <speed>0.9355746896961247</speed>
  <fix>3d</fix>
</trkpt>
<trkpt lat="33.810151" lon="-118.3939018">
  <ele>-14.86</ele>
  <time>2026-09-01T01:14:02Z</time>
  <course>190.15</course>
  <speed>0.96</speed>
  <fix>3d</fix>
</trkpt>
<trkpt lat="33.8101492" lon="-118.3939022">
  <ele>-15.5</ele>
  <time>2026-09-01T01:14:02Z</time>
  <course>190.64</course>
  <speed>0.9454099639838793</speed>
  <fix>3d</fix>
</trkpt>
<trkpt lat="33.810151" lon="-118.3939018">
  <ele>-14.86</ele>
  <time>2026-09-01T01:14:02Z</time>
  <course>190.15</course>
  <speed>0.96</speed>
  <fix>3d</fix>
</trkpt>
<trkpt lat="33.8101483" lon="-118.3939024">
  <ele>-15.58</ele>
  <time>2026-09-01T01:14:02Z</time>
  <course>190.64</course>
  <speed>0.9454099639838793</speed>
  <fix>3d</fix>
</trkpt>
<trkpt lat="33.8101493" lon="-118.3939021">
  <ele>-15.02</ele>
  <time>2026-09-01T01:14:02Z</time>
  <course>190.14</course>
  <speed>0.96</speed>
  <fix>3d</fix>
</trkpt>
<trkpt lat="33.8101475" lon="-118.3939026">
  <ele>-15.66</ele>
  <time>2026-09-01T01:14:02Z</time>
  <course>190.63</course>
  <speed>0.9472592042308166</speed>
  <fix>3d</fix>
</trkpt>
<trkpt lat="33.8101493" lon="-118.3939021">
  <ele>-15.02</ele>
  <time>2026-09-01T01:14:02Z</time>
  <course>190.14</course>
  <speed>0.96</speed>
  <fix>3d</fix>
</trkpt>
<trkpt lat="33.8101466" lon="-118.3939028">
  <ele>-15.738</ele>
  <time>2026-09-01T01:14:02Z</time>
  <course>190.64</course>
  <speed>0.9454099639838793</speed>
  <fix>3d</fix>
</trkpt>
<trkpt lat="33.8101476" lon="-118.3939025">
  <ele>-15.17</ele>
  <time>2026-09-01T01:14:02Z</time>
  <course>190.13</course>
  <speed>0.97</speed>
  <fix>3d</fix>
</trkpt>
<trkpt lat="33.8101458" lon="-118.393903">
  <ele>-15.816</ele>
  <time>2026-09-01T01:14:02Z</time>
  <course>190.64</course>
  <speed>0.9454099639838793</speed>
  <fix>3d</fix>
</trkpt>
<trkpt lat="33.8101476" lon="-118.3939025">
  <ele>-15.17</ele>
  <time>2026-09-01T01:14:02Z</time>
  <course>190.13</course>
  <speed>0.97</speed>
  <fix>3d</fix>
</trkpt>
<trkpt lat="33.8101449" lon="-118.3939031">
  <ele>-15.894</ele>
  <time>2026-09-01T01:14:02Z</time>
  <course>190.65</course>
  <speed>0.9454099639838793</speed>
  <fix>3d</fix>
</trkpt>
<trkpt lat="33.8101458" lon="-118.3939029">
  <ele>-15.32</ele>
  <time>2026-09-01T01:14:02Z</time>
  <course>190.14</course>
  <speed>0.97</speed>
  <fix>3d</fix>
</trkpt>
<trkpt lat="33.8101441" lon="-118.3939033">
  <ele>-15.972</ele>
  <time>2026-09-01T01:14:02Z</time>
  <course>190.65</course>
  <speed>0.9355746896961247</speed>
  <fix>3d</fix>
</trkpt>
<trkpt lat="33.8101458" lon="-118.3939029">
  <ele>-15.32</ele>
  <time>2026-09-01T01:14:02Z</time>
  <course>190.14</course>
  <speed>0.97</speed>
  <fix>3d</fix>
</trkpt>
<trkpt lat="33.8101432" lon="-118.3939035">
  <ele>-16.05</ele>
  <time>2026-09-01T01:14:02Z</time>
  <course>190.65</course>
  <speed>0.9355746896961247</speed>
  <fix>3d</fix>
</trkpt>
<trkpt lat="33.8101441" lon="-118.3939033">
  <ele>-15.46</ele>
  <time>2026-09-01T01:14:02Z</time>
  <course>190.14</course>
  <speed>0.97</speed>
  <fix>3d</fix>
</trkpt>
<trkpt lat="33.8101423" lon="-118.3939037">
  <ele>-16.129</ele>
  <time>2026-09-01T01:14:02Z</time>
  <course>190.65</course>
  <speed>0.9355746896961247</speed>
  <fix>3d</fix>
</trkpt>
<trkpt lat="33.8101441" lon="-118.3939033">
  <ele>-15.46</ele>
  <time>2026-09-01T01:14:02Z</time>
  <course>190.14</course>
  <speed>0.97</speed>
  <fix>3d</fix>
</trkpt>
<trkpt lat="33.8101415" lon="-118.3939039">
  <ele>-16.208</ele>
  <time>2026-09-01T01:14:02Z</time>
  <course>190.64</course>
  <speed>0.9355746896961247</speed>
  <fix>3d</fix>
</trkpt>
<trkpt lat="33.8101424" lon="-118.3939036">
  <ele>-15.62</ele>
  <time>2026-09-01T01:14:02Z</time>
  <course>190.11</course>
  <speed>0.96</speed>
  <fix>3d</fix>
</trkpt>
<trkpt lat="33.8101406" lon="-118.3939041">
  <ele>-16.287</ele>
  <time>2026-09-01T01:14:02Z</time>
  <course>190.63</course>
  <speed>0.9355746896961247</speed>
  <fix>3d</fix>
</trkpt>
<trkpt lat="33.8101424" lon="-118.3939036">
  <ele>-15.62</ele>
  <time>2026-09-01T01:14:02Z</time>
  <course>190.11</course>
  <speed>0.96</speed>
  <fix>3d</fix>
</trkpt>
<trkpt lat="33.8101398" lon="-118.3939043">
  <ele>-16.365</ele>
  <time>2026-09-01T01:14:02Z</time>
  <course>190.62</course>
  <speed>0.9355746896961247</speed>
  <fix>3d</fix>
</trkpt>
<trkpt lat="33.8101407" lon="-118.393904">
  <ele>-15.77</ele>
  <time>2026-09-01T01:14:02Z</time>
  <course>190.09</course>
  <speed>0.96</speed>
  <fix>3d</fix>
</trkpt>
<trkpt lat="33.8101389" lon="-118.3939044">
  <ele>-16.444</ele>
  <time>2026-09-01T01:14:02Z</time>
  <course>190.63</course>
  <speed>0.9355746896961247</speed>
  <fix>3d</fix>
</trkpt>
<trkpt lat="33.8101407" lon="-118.393904">
  <ele>-15.77</ele>
  <time>2026-09-01T01:14:02Z</time>
  <course>190.09</course>
  <speed>0.96</speed>
  <fix>3d</fix>
</trkpt>
<trkpt lat="33.8101381" lon="-118.3939046">
  <ele>-16.523</ele>
  <time>2026-09-01T01:14:02Z</time>
  <course>190.63</course>
  <speed>0.9355746896961247</speed>
  <fix>3d</fix>
</trkpt>
<trkpt lat="33.810139" lon="-118.3939044">
  <ele>-15.93</ele>
  <time>2026-09-01T01:14:02Z</time>
  <course>190.1</course>
  <speed>0.96</speed>
  <fix>3d</fix>
</trkpt>
<trkpt lat="33.8101372" lon="-118.3939048">
  <ele>-16.603</ele>
  <time>2026-09-01T01:14:02Z</time>
  <course>190.64</course>
  <speed>0.9355746896961247</speed>
  <fix>3d</fix>
</trkpt>
<trkpt lat="33.810139" lon="-118.3939044">
  <ele>-15.93</ele>
  <time>2026-09-01T01:14:02Z</time>
  <course>190.1</course>
  <speed>0.96</speed>
  <fix>3d</fix>
</trkpt>
<trkpt lat="33.8101364" lon="-118.393905">
  <ele>-16.681</ele>
  <time>2026-09-01T01:14:02Z</time>
  <course>190.62</course>
  <speed>0.9355746896961247</speed>
  <fix>3d</fix>
</trkpt>
<trkpt lat="33.8101373" lon="-118.3939047">
  <ele>-16.08</ele>
  <time>2026-09-01T01:14:02Z</time>
  <course>190.09</course>
  <speed>0.96</speed>
  <fix>3d</fix>
</trkpt>
<trkpt lat="33.8101355" lon="-118.3939052">
  <ele>-16.76</ele>
  <time>2026-09-01T01:14:02Z</time>
  <course>190.62</course>
  <speed>0.9355746896961247</speed>
  <fix>3d</fix>
</trkpt>
<trkpt lat="33.8101373" lon="-118.3939047">
  <ele>-16.08</ele>
  <time>2026-09-01T01:14:02Z</time>
  <course>190.09</course>
  <speed>0.96</speed>
  <fix>3d</fix>
</trkpt>
<trkpt lat="33.8101347" lon="-118.3939054">
  <ele>-16.839</ele>
  <time>2026-09-01T01:14:02Z</time>
  <course>190.63</course>
  <speed>0.9355746896961247</speed>
  <fix>3d</fix>
</trkpt>
<trkpt lat="33.8101356" lon="-118.3939051">
  <ele>-16.24</ele>
  <time>2026-09-01T01:14:02Z</time>
  <course>190.08</course>
  <speed>0.96</speed>
  <fix>3d</fix>
</trkpt>
<trkpt lat="33.8101338" lon="-118.3939055">
  <ele>-16.92</ele>
  <time>2026-09-01T01:14:02Z</time>
  <course>190.63</course>
  <speed>0.9355746896961247</speed>
  <fix>3d</fix>
</trkpt>
<trkpt lat="33.8101356" lon="-118.3939051">
  <ele>-16.24</ele>
  <time>2026-09-01T01:14:02Z</time>
  <course>190.08</course>
  <speed>0.96</speed>
  <fix>3d</fix>
</trkpt>
<trkpt lat="33.810133" lon="-118.3939057">
  <ele>-17.002</ele>
  <time>2026-09-01T01:14:02Z</time>
  <course>190.63</course>
  <speed>0.9355746896961247</speed>
  <fix>3d</fix>
</trkpt>
<trkpt lat="33.8101339" lon="-118.3939055">
  <ele>-16.4</ele>
  <time>2026-09-01T01:14:02Z</time>
  <course>190.09</course>
  <speed>0.96</speed>
  <fix>3d</fix>
</trkpt>
<trkpt lat="33.8101321" lon="-118.3939059">
  <ele>-17.083</ele>
  <time>2026-09-01T01:14:02Z</time>
  <course>190.64</course>
  <speed>0.9355746896961247</speed>
  <fix>3d</fix>
</trkpt>
<trkpt lat="33.8101339" lon="-118.3939055">
  <ele>-16.4</ele>
  <time>2026-09-01T01:14:02Z</time>
  <course>190.09</course>
  <speed>0.96</speed>
  <fix>3d</fix>
</trkpt>
<trkpt lat="33.8101312" lon="-118.3939061">
  <ele>-17.164</ele>
  <time>2026-09-01T01:14:02Z</time>
  <course>190.63</course>
  <speed>0.9454099639838793</speed>
  <fix>3d</fix>
</trkpt>
<trkpt lat="33.8101322" lon="-118.3939058">
  <ele>-16.56</ele>
  <time>2026-09-01T01:14:02Z</time>
  <course>190.07</course>
  <speed>0.96</speed>
  <fix>3d</fix>
</trkpt>
<trkpt lat="33.8101304" lon="-118.3939063">
  <ele>-17.245</ele>
  <time>2026-09-01T01:14:02Z</time>
  <course>190.62</course>
  <speed>0.9454099639838793</speed>
  <fix>3d</fix>
</trkpt>
<trkpt lat="33.8101322" lon="-118.3939058">
  <ele>-16.56</ele>
  <time>2026-09-01T01:14:02Z</time>
  <course>190.07</course>
  <speed>0.96</speed>
  <fix>3d</fix>
</trkpt>
<trkpt lat="33.8101295" lon="-118.3939065">
  <ele>-17.326</ele>
  <time>2026-09-01T01:14:02Z</time>
  <course>190.63</course>
  <speed>0.9454099639838793</speed>
  <fix>3d</fix>
</trkpt>
<trkpt lat="33.8101304" lon="-118.3939062">
  <ele>-16.72</ele>
  <time>2026-09-01T01:14:02Z</time>
  <course>190.06</course>
  <speed>0.97</speed>
  <fix>3d</fix>
</trkpt>
<trkpt lat="33.8101287" lon="-118.3939066">
  <ele>-17.407</ele>
  <time>2026-09-01T01:14:02Z</time>
  <course>190.64</course>
  <speed>0.9454099639838793</speed>
  <fix>3d</fix>
</trkpt>
<trkpt lat="33.8101304" lon="-118.3939062">
  <ele>-16.72</ele>
  <time>2026-09-01T01:14:02Z</time>
  <course>190.06</course>
  <speed>0.97</speed>
  <fix>3d</fix>
</trkpt>
<trkpt lat="33.8101278" lon="-118.3939068">
  <ele>-17.489</ele>
  <time>2026-09-01T01:14:02Z</time>
  <course>190.65</course>
  <speed>0.9454099639838793</speed>
  <fix>3d</fix>
</trkpt>
<trkpt lat="33.8101287" lon="-118.3939066">
  <ele>-16.88</ele>
  <time>2026-09-01T01:14:02Z</time>
  <course>190.07</course>
  <speed>0.97</speed>
  <fix>3d</fix>
</trkpt>
<trkpt lat="33.8101269" lon="-118.393907">
  <ele>-17.57</ele>
  <time>2026-09-01T01:14:02Z</time>
  <course>190.67</course>
  <speed>0.9454099639838793</speed>
  <fix>3d</fix>
</trkpt>
<trkpt lat="33.8101287" lon="-118.3939066">
  <ele>-16.88</ele>
  <time>2026-09-01T01:14:02Z</time>
  <course>190.07</course>
  <speed>0.97</speed>
  <fix>3d</fix>
</trkpt>
<trkpt lat="33.8101261" lon="-118.3939072">
  <ele>-17.65</ele>
  <time>2026-09-01T01:14:02Z</time>
  <course>190.68</course>
  <speed>0.9454099639838793</speed>
  <fix>3d</fix>
</trkpt>
<trkpt lat="33.810127" lon="-118.3939069">
  <ele>-17.04</ele>
  <time>2026-09-01T01:14:02Z</time>
  <course>190.07</course>
  <speed>0.97</speed>
  <fix>3d</fix>
</trkpt>
<trkpt lat="33.8101252" lon="-118.3939074">
  <ele>-17.73</ele>
  <time>2026-09-01T01:14:02Z</time>
  <course>190.68</course>
  <speed>0.9472592042308166</speed>
  <fix>3d</fix>
</trkpt>
<trkpt lat="33.810127" lon="-118.3939069">
  <ele>-17.04</ele>
  <time>2026-09-01T01:14:02Z</time>
  <course>190.07</course>
  <speed>0.97</speed>
  <fix>3d</fix>
</trkpt>
<trkpt lat="33.8101244" lon="-118.3939076">
  <ele>-17.811</ele>
  <time>2026-09-01T01:14:02Z</time>
  <course>190.7</course>
  <speed>0.9454099639838793</speed>
  <fix>3d</fix>
</trkpt>
<trkpt lat="33.8101253" lon="-118.3939073">
  <ele>-17.2</ele>
  <time>2026-09-01T01:14:02Z</time>
  <course>190.08</course>
  <speed>0.97</speed>
  <fix>3d</fix>
</trkpt>
<trkpt lat="33.8101235" lon="-118.3939078">
  <ele>-17.892</ele>
  <time>2026-09-01T01:14:02Z</time>
  <course>190.72</course>
  <speed>0.9472592042308166</speed>
  <fix>3d</fix>
</trkpt>
<trkpt lat="33.8101253" lon="-118.3939073">
  <ele>-17.2</ele>
  <time>2026-09-01T01:14:02Z</time>
  <course>190.08</course>
  <speed>0.97</speed>
  <fix>3d</fix>
</trkpt>
<trkpt lat="33.8101226" lon="-118.3939079">
  <ele>-17.973</ele>
  <time>2026-09-01T01:14:02Z</time>
  <course>190.73</course>
  <speed>0.9472592042308166</speed>
  <fix>3d</fix>
</trkpt>
<trkpt lat="33.8101236" lon="-118.3939077">
  <ele>-17.36</ele>
  <time>2026-09-01T01:14:02Z</time>
  <course>190.1</course>
  <speed>0.97</speed>
  <fix>3d</fix>
</trkpt>
<trkpt lat="33.8101218" lon="-118.3939081">
  <ele>-18.055</ele>
  <time>2026-09-01T01:14:02Z</time>
  <course>190.74</course>
  <speed>0.9472592042308166</speed>
  <fix>3d</fix>
</trkpt>
<trkpt lat="33.8101236" lon="-118.3939077">
  <ele>-17.36</ele>
  <time>2026-09-01T01:14:02Z</time>
  <course>190.1</course>
  <speed>0.97</speed>
  <fix>3d</fix>
</trkpt>
<trkpt lat="33.8101209" lon="-118.3939083">
  <ele>-18.138</ele>
  <time>2026-09-01T01:14:02Z</time>
  <course>190.74</course>
  <speed>0.9472592042308166</speed>
  <fix>3d</fix>
</trkpt>
<trkpt lat="33.8101218" lon="-118.393908">
  <ele>-17.51</ele>
  <time>2026-09-01T01:14:02Z</time>
  <course>190.1</course>
  <speed>0.97</speed>
  <fix>3d</fix>
</trkpt>
<trkpt lat="33.81012" lon="-118.3939085">
  <ele>-18.217</ele>
  <time>2026-09-01T01:14:02Z</time>
  <course>190.75</course>
  <speed>0.9472592042308166</speed>
  <fix>3d</fix>
</trkpt>
<trkpt lat="33.8101218" lon="-118.393908">
  <ele>-17.51</ele>
  <time>2026-09-01T01:14:02Z</time>
  <course>190.1</course>
  <speed>0.97</speed>
  <fix>3d</fix>
</trkpt>
<trkpt lat="33.8101192" lon="-118.3939087">
  <ele>-18.296</ele>
  <time>2026-09-01T01:14:02Z</time>
  <course>190.76</course>
  <speed>0.9472592042308166</speed>
  <fix>3d</fix>
</trkpt>
<trkpt lat="33.8101201" lon="-118.3939083">
  <ele>-17.67</ele>
  <time>2026-09-01T01:14:02Z</time>
  <course>190.1</course>
  <speed>0.97</speed>
  <fix>3d</fix>
</trkpt>
<trkpt lat="33.8101183" lon="-118.3939089">
  <ele>-18.374</ele>
  <time>2026-09-01T01:14:02Z</time>
  <course>190.8</course>
  <speed>0.9472592042308166</speed>
  <fix>3d</fix>
</trkpt>
<trkpt lat="33.8101201" lon="-118.3939083">
  <ele>-17.67</ele>
  <time>2026-09-01T01:14:02Z</time>
  <course>190.1</course>
  <speed>0.97</speed>
  <fix>3d</fix>
</trkpt>
<trkpt lat="33.8101174" lon="-118.3939091">
  <ele>-18.453</ele>
  <time>2026-09-01T01:14:02Z</time>
  <course>190.84</course>
  <speed>0.9472592042308166</speed>
  <fix>3d</fix>
</trkpt>
<trkpt lat="33.8101184" lon="-118.3939088">
  <ele>-17.83</ele>
  <time>2026-09-01T01:14:02Z</time>
  <course>190.17</course>
  <speed>0.97</speed>
  <fix>3d</fix>
</trkpt>
<trkpt lat="33.8101166" lon="-118.3939092">
  <ele>-18.532</ele>
  <time>2026-09-01T01:14:02Z</time>
  <course>190.89</course>
  <speed>0.9472592042308166</speed>
  <fix>3d</fix>
</trkpt>
<trkpt lat="33.8101184" lon="-118.3939088">
  <ele>-17.83</ele>
  <time>2026-09-01T01:14:02Z</time>
  <course>190.17</course>
  <speed>0.97</speed>
  <fix>3d</fix>
</trkpt>
<trkpt lat="33.8101157" lon="-118.3939094">
  <ele>-18.613</ele>
  <time>2026-09-01T01:14:02Z</time>
  <course>190.91</course>
  <speed>0.9472592042308166</speed>
  <fix>3d</fix>
</trkpt>
<trkpt lat="33.8101166" lon="-118.3939091">
  <ele>-17.98</ele>
  <time>2026-09-01T01:14:02Z</time>
  <course>190.23</course>
  <speed>0.97</speed>
  <fix>3d</fix>
</trkpt>
<trkpt lat="33.8101149" lon="-118.3939096">
  <ele>-18.694</ele>
  <time>2026-09-01T01:14:02Z</time>
  <course>190.93</course>
  <speed>0.9472592042308166</speed>
  <fix>3d</fix>
</trkpt>
<trkpt lat="33.8101166" lon="-118.3939091">
  <ele>-17.98</ele>
  <time>2026-09-01T01:14:02Z</time>
  <course>190.23</course>
  <speed>0.97</speed>
  <fix>3d</fix>
</trkpt>
<trkpt lat="33.810114" lon="-118.3939098">
  <ele>-18.774</ele>
  <time>2026-09-01T01:14:02Z</time>
  <course>190.94</course>
  <speed>0.9472592042308166</speed>
  <fix>3d</fix>
</trkpt>
<trkpt lat="33.8101149" lon="-118.3939095">
  <ele>-18.14</ele>
  <time>2026-09-01T01:14:02Z</time>
  <course>190.24</course>
  <speed>0.97</speed>
  <fix>3d</fix>
</trkpt>
<trkpt lat="33.8101131" lon="-118.39391">
  <ele>-18.856</ele>
  <time>2026-09-01T01:14:02Z</time>
  <course>190.96</course>
  <speed>0.9472592042308166</speed>
  <fix>3d</fix>
</trkpt>
<trkpt lat="33.8101149" lon="-118.3939095">
  <ele>-18.14</ele>
  <time>2026-09-01T01:14:02Z</time>
  <course>190.24</course>
  <speed>0.97</speed>
  <fix>3d</fix>
</trkpt>
<trkpt lat="33.8101123" lon="-118.3939102">
  <ele>-18.938</ele>
  <time>2026-09-01T01:14:02Z</time>
  <course>190.97</course>
  <speed>0.9472592042308166</speed>
  <fix>3d</fix>
</trkpt>
<trkpt lat="33.8101132" lon="-118.3939099">
  <ele>-18.3</ele>
  <time>2026-09-01T01:14:02Z</time>
  <course>190.26</course>
  <speed>0.97</speed>
  <fix>3d</fix>
</trkpt>
<trkpt lat="33.8101114" lon="-118.3939104">
  <ele>-19.021</ele>
  <time>2026-09-01T01:14:02Z</time>
  <course>190.98</course>
  <speed>0.9472592042308166</speed>
  <fix>3d</fix>
</trkpt>
<trkpt lat="33.8101132" lon="-118.3939099">
  <ele>-18.3</ele>
  <time>2026-09-01T01:14:02Z</time>
  <course>190.26</course>
  <speed>0.97</speed>
  <fix>3d</fix>
</trkpt>
<trkpt lat="33.8101105" lon="-118.3939105">
  <ele>-19.103</ele>
  <time>2026-09-01T01:14:02Z</time>
  <course>190.98</course>
  <speed>0.9472592042308166</speed>
  <fix>3d</fix>
</trkpt>
<trkpt lat="33.8101115" lon="-118.3939102">
  <ele>-18.46</ele>
  <time>2026-09-01T01:14:02Z</time>
  <course>190.26</course>
  <speed>0.97</speed>
  <fix>3d</fix>
</trkpt>
<trkpt lat="33.8101097" lon="-118.3939107">
  <ele>-19.185</ele>
  <time>2026-09-01T01:14:02Z</time>
  <course>190.99</course>
  <speed>0.9472592042308166</speed>
  <fix>3d</fix>
</trkpt>
<trkpt lat="33.8101115" lon="-118.3939102">
  <ele>-18.46</ele>
  <time>2026-09-01T01:14:02Z</time>
  <course>190.26</course>
  <speed>0.97</speed>
  <fix>3d</fix>
</trkpt>
<trkpt lat="33.8101088" lon="-118.3939109">
  <ele>-19.266</ele>
  <time>2026-09-01T01:14:02Z</time>
  <course>190.99</course>
  <speed>0.9570788891204319</speed>
  <fix>3d</fix>
</trkpt>
<trkpt lat="33.8101098" lon="-118.3939106">
  <ele>-18.62</ele>
  <time>2026-09-01T01:14:02Z</time>
  <course>190.26</course>
  <speed>0.97</speed>
  <fix>3d</fix>
</trkpt>
<trkpt lat="33.8101079" lon="-118.3939111">
  <ele>-19.347</ele>
  <time>2026-09-01T01:14:02Z</time>
  <course>190.99</course>
  <speed>0.9570788891204319</speed>
  <fix>3d</fix>
</trkpt>
<trkpt lat="33.8101098" lon="-118.3939106">
  <ele>-18.62</ele>
  <time>2026-09-01T01:14:02Z</time>
  <course>190.26</course>
  <speed>0.97</speed>
  <fix>3d</fix>
</trkpt>
<trkpt lat="33.8101071" lon="-118.3939113">
  <ele>-19.428</ele>
  <time>2026-09-01T01:14:02Z</time>
  <course>190.99</course>
  <speed>0.9570788891204319</speed>
  <fix>3d</fix>
</trkpt>
<trkpt lat="33.810108" lon="-118.393911">
  <ele>-18.78</ele>
  <time>2026-09-01T01:14:02Z</time>
  <course>190.28</course>
  <speed>0.97</speed>
  <fix>3d</fix>
</trkpt>
<trkpt lat="33.8101062" lon="-118.3939115">
  <ele>-19.509</ele>
  <time>2026-09-01T01:14:02Z</time>
  <course>191.0</course>
  <speed>0.9570788891204319</speed>
  <fix>3d</fix>
</trkpt>
<trkpt lat="33.810108" lon="-118.393911">
  <ele>-18.78</ele>
  <time>2026-09-01T01:14:02Z</time>
  <course>190.28</course>
  <speed>0.97</speed>
  <fix>3d</fix>
</trkpt>
<trkpt lat="33.8101053" lon="-118.3939117">
  <ele>-19.59</ele>
  <time>2026-09-01T01:14:02Z</time>
  <course>191.0</course>
  <speed>0.9570788891204319</speed>
  <fix>3d</fix>
</trkpt>
<trkpt lat="33.8101063" lon="-118.3939114">
  <ele>-18.94</ele>
  <time>2026-09-01T01:14:02Z</time>
  <course>190.29</course>
  <speed>0.98</speed>
  <fix>3d</fix>
</trkpt>
<trkpt lat="33.8101045" lon="-118.3939119">
  <ele>-19.669</ele>
  <time>2026-09-01T01:14:02Z</time>
  <course>191.0</course>
  <speed>0.9570788891204319</speed>
  <fix>3d</fix>
</trkpt>
<trkpt lat="33.8101063" lon="-118.3939114">
  <ele>-18.94</ele>
  <time>2026-09-01T01:14:02Z</time>
  <course>190.29</course>
  <speed>0.98</speed>
  <fix>3d</fix>
</trkpt>
<trkpt lat="33.8101036" lon="-118.393912">
  <ele>-19.75</ele>
  <time>2026-09-01T01:14:02Z</time>
  <course>190.98</course>
  <speed>0.9570788891204319</speed>
  <fix>3d</fix>
</trkpt>
<trkpt lat="33.8101046" lon="-118.3939118">
  <ele>-19.09</ele>
  <time>2026-09-01T01:14:02Z</time>
  <course>190.27</course>
  <speed>0.98</speed>
  <fix>3d</fix>
</trkpt>
<trkpt lat="33.8101027" lon="-118.3939122">
  <ele>-19.831</ele>
  <time>2026-09-01T01:14:03Z</time>
  <course>190.96</course>
  <speed>0.9570788891204319</speed>
  <fix>3d</fix>
</trkpt>
<trkpt lat="33.8101046" lon="-118.3939118">
  <ele>-19.09</ele>
  <time>2026-09-01T01:14:03Z</time>
  <course>190.27</course>
  <speed>0.98</speed>
  <fix>3d</fix>
</trkpt>
<trkpt lat="33.8101019" lon="-118.3939124">
  <ele>-19.911</ele>
  <time>2026-09-01T01:14:03Z</time>
  <course>190.93</course>
  <speed>0.9570788891204319</speed>
  <fix>3d</fix>
</trkpt>
<trkpt lat="33.8101029" lon="-118.3939122">
  <ele>-19.25</ele>
  <time>2026-09-01T01:14:03Z</time>
  <course>190.23</course>
  <speed>0.98</speed>
  <fix>3d</fix>
</trkpt>
<trkpt lat="33.810101" lon="-118.3939126">
  <ele>-19.991</ele>
  <time>2026-09-01T01:14:03Z</time>
  <course>190.89</course>
  <speed>0.9570788891204319</speed>
  <fix>3d</fix>
</trkpt>
<trkpt lat="33.8101029" lon="-118.3939122">
  <ele>-19.25</ele>
  <time>2026-09-01T01:14:03Z</time>
  <course>190.23</course>
  <speed>0.98</speed>
  <fix>3d</fix>
</trkpt>
<trkpt lat="33.8101001" lon="-118.3939128">
  <ele>-20.072</ele>
  <time>2026-09-01T01:14:03Z</time>
  <course>190.84</course>
  <speed>0.9570788891204319</speed>
  <fix>3d</fix>
</trkpt>
<trkpt lat="33.8101011" lon="-118.3939125">
  <ele>-19.41</ele>
  <time>2026-09-01T01:14:03Z</time>
  <course>190.16</course>
  <speed>0.98</speed>
  <fix>3d</fix>
</trkpt>
<trkpt lat="33.8100993" lon="-118.393913">
  <ele>-20.154</ele>
  <time>2026-09-01T01:14:03Z</time>
  <course>190.8</course>
  <speed>0.9570788891204319</speed>
  <fix>3d</fix>
</trkpt>
<trkpt lat="33.8101011" lon="-118.3939125">
  <ele>-19.41</ele>
  <time>2026-09-01T01:14:03Z</time>
  <course>190.16</course>
  <speed>0.98</speed>
  <fix>3d</fix>
</trkpt>
<trkpt lat="33.8100984" lon="-118.3939132">
  <ele>-20.235</ele>
  <time>2026-09-01T01:14:03Z</time>
  <course>190.78</course>
  <speed>0.9570788891204319</speed>
  <fix>3d</fix>
</trkpt>
<trkpt lat="33.8100994" lon="-118.3939129">
  <ele>-19.57</ele>
  <time>2026-09-01T01:14:03Z</time>
  <course>190.11</course>
  <speed>0.98</speed>
  <fix>3d</fix>
</trkpt>
<trkpt lat="33.8100975" lon="-118.3939134">
  <ele>-20.317</ele>
  <time>2026-09-01T01:14:03Z</time>
  <course>190.78</course>
  <speed>0.9570788891204319</speed>
  <fix>3d</fix>
</trkpt>
<trkpt lat="33.8100994" lon="-118.3939129">
  <ele>-19.57</ele>
  <time>2026-09-01T01:14:03Z</time>
  <course>190.11</course>
  <speed>0.98</speed>
  <fix>3d</fix>
</trkpt>
<trkpt lat="33.8100967" lon="-118.3939136">
  <ele>-20.398</ele>
  <time>2026-09-01T01:14:03Z</time>
  <course>190.78</course>
  <speed>0.9570788891204319</speed>
  <fix>3d</fix>
</trkpt>
<trkpt lat="33.8100976" lon="-118.3939133">
  <ele>-19.73</ele>
  <time>2026-09-01T01:14:03Z</time>
  <course>190.11</course>
  <speed>0.98</speed>
  <fix>3d</fix>
</trkpt>
<trkpt lat="33.8100958" lon="-118.3939137">
  <ele>-20.48</ele>
  <time>2026-09-01T01:14:03Z</time>
  <course>190.77</course>
  <speed>0.9570788891204319</speed>
  <fix>3d</fix>
</trkpt>
<trkpt lat="33.8100976" lon="-118.3939133">
  <ele>-19.73</ele>
  <time>2026-09-01T01:14:03Z</time>
  <course>190.11</course>
  <speed>0.98</speed>
  <fix>3d</fix>
</trkpt>
<trkpt lat="33.8100949" lon="-118.3939139">
  <ele>-20.562</ele>
  <time>2026-09-01T01:14:03Z</time>
  <course>190.76</course>
  <speed>0.9570788891204319</speed>
  <fix>3d</fix>
</trkpt>
<trkpt lat="33.8100959" lon="-118.3939137">
  <ele>-19.89</ele>
  <time>2026-09-01T01:14:03Z</time>
  <course>190.1</course>
  <speed>0.98</speed>
  <fix>3d</fix>
</trkpt>
<trkpt lat="33.810094" lon="-118.3939141">
  <ele>-20.644</ele>
  <time>2026-09-01T01:14:03Z</time>
  <course>190.75</course>
  <speed>0.9570788891204319</speed>
  <fix>3d</fix>
</trkpt>
<trkpt lat="33.8100959" lon="-118.3939137">
  <ele>-19.89</ele>
  <time>2026-09-01T01:14:03Z</time>
  <course>190.1</course>
  <speed>0.98</speed>
  <fix>3d</fix>
</trkpt>
<trkpt lat="33.8100932" lon="-118.3939143">
  <ele>-20.727</ele>
  <time>2026-09-01T01:14:03Z</time>
  <course>190.73</course>
  <speed>0.9570788891204319</speed>
  <fix>3d</fix>
</trkpt>
<trkpt lat="33.8100941" lon="-118.393914">
  <ele>-20.05</ele>
  <time>2026-09-01T01:14:03Z</time>
  <course>190.08</course>
  <speed>0.98</speed>
  <fix>3d</fix>
</trkpt>
<trkpt lat="33.8100923" lon="-118.3939145">
  <ele>-20.809</ele>
  <time>2026-09-01T01:14:03Z</time>
  <course>190.72</course>
  <speed>0.9570788891204319</speed>
  <fix>3d</fix>
</trkpt>
<trkpt lat="33.8100941" lon="-118.393914">
  <ele>-20.05</ele>
  <time>2026-09-01T01:14:03Z</time>
  <course>190.08</course>
  <speed>0.98</speed>
  <fix>3d</fix>
</trkpt>
<trkpt lat="33.8100914" lon="-118.3939147">
  <ele>-20.892</ele>
  <time>2026-09-01T01:14:03Z</time>
  <course>190.72</course>
  <speed>0.966902270139025</speed>
  <fix>3d</fix>
</trkpt>
<trkpt lat="33.8100924" lon="-118.3939144">
  <ele>-20.21</ele>
  <time>2026-09-01T01:14:03Z</time>
  <course>190.07</course>
  <speed>0.98</speed>
  <fix>3d</fix>
</trkpt>
<trkpt lat="33.8100905" lon="-118.3939149">
  <ele>-20.973</ele>
  <time>2026-09-01T01:14:03Z</time>
  <course>190.73</course>
  <speed>0.966902270139025</speed>
  <fix>3d</fix>
</trkpt>
<trkpt lat="33.8100924" lon="-118.3939144">
  <ele>-20.21</ele>
  <time>2026-09-01T01:14:03Z</time>
  <course>190.07</course>
  <speed>0.98</speed>
  <fix>3d</fix>
</trkpt>
<trkpt lat="33.8100897" lon="-118.3939151">
  <ele>-21.054</ele>
  <time>2026-09-01T01:14:03Z</time>
  <course>190.74</course>
  <speed>0.966902270139025</speed>
  <fix>3d</fix>
</trkpt>
<trkpt lat="33.8100907" lon="-118.3939148">
  <ele>-20.37</ele>
  <time>2026-09-01T01:14:03Z</time>
  <course>190.09</course>
  <speed>0.98</speed>
  <fix>3d</fix>
</trkpt>
<trkpt lat="33.8100888" lon="-118.3939153">
  <ele>-21.134</ele>
  <time>2026-09-01T01:14:03Z</time>
  <course>190.76</course>
  <speed>0.966902270139025</speed>
  <fix>3d</fix>
</trkpt>
<trkpt lat="33.8100907" lon="-118.3939148">
  <ele>-20.37</ele>
  <time>2026-09-01T01:14:03Z</time>
  <course>190.09</course>
  <speed>0.98</speed>
  <fix>3d</fix>
</trkpt>
<trkpt lat="33.8100879" lon="-118.3939154">
  <ele>-21.215</ele>
  <time>2026-09-01T01:14:03Z</time>
  <course>190.76</course>
  <speed>0.966902270139025</speed>
  <fix>3d</fix>
</trkpt>
<trkpt lat="33.8100889" lon="-118.3939151">
  <ele>-20.53</ele>
  <time>2026-09-01T01:14:03Z</time>
  <course>190.08</course>
  <speed>0.98</speed>
  <fix>3d</fix>
</trkpt>
<trkpt lat="33.8100871" lon="-118.3939156">
  <ele>-21.298</ele>
  <time>2026-09-01T01:14:03Z</time>
  <course>190.76</course>
  <speed>0.966902270139025</speed>
  <fix>3d</fix>
</trkpt>
<trkpt lat="33.8100889" lon="-118.3939151">
  <ele>-20.53</ele>
  <time>2026-09-01T01:14:03Z</time>
  <course>190.08</course>
  <speed>0.98</speed>
  <fix>3d</fix>
</trkpt>
<trkpt lat="33.8100862" lon="-118.3939158">
  <ele>-21.38</ele>
  <time>2026-09-01T01:14:03Z</time>
  <course>190.77</course>
  <speed>0.966902270139025</speed>
  <fix>3d</fix>
</trkpt>
<trkpt lat="33.8100872" lon="-118.3939155">
  <ele>-20.69</ele>
  <time>2026-09-01T01:14:03Z</time>
  <course>190.08</course>
  <speed>0.98</speed>
  <fix>3d</fix>
</trkpt>
<trkpt lat="33.8100853" lon="-118.393916">
  <ele>-21.462</ele>
  <time>2026-09-01T01:14:03Z</time>
  <course>190.8</course>
  <speed>0.966902270139025</speed>
  <fix>3d</fix>
</trkpt>
<trkpt lat="33.8100872" lon="-118.3939155">
  <ele>-20.69</ele>
  <time>2026-09-01T01:14:03Z</time>
  <course>190.08</course>
  <speed>0.98</speed>
  <fix>3d</fix>
</trkpt>
<trkpt lat="33.8100844" lon="-118.3939162">
  <ele>-21.544</ele>
  <time>2026-09-01T01:14:03Z</time>
  <course>190.82</course>
  <speed>0.966902270139025</speed>
  <fix>3d</fix>
</trkpt>
<trkpt lat="33.8100854" lon="-118.3939159">
  <ele>-20.85</ele>
  <time>2026-09-01T01:14:03Z</time>
  <course>190.12</course>
  <speed>0.98</speed>
  <fix>3d</fix>
</trkpt>
<trkpt lat="33.8100835" lon="-118.3939164">
  <ele>-21.626</ele>
  <time>2026-09-01T01:14:03Z</time>
  <course>190.83</course>
  <speed>0.966902270139025</speed>
  <fix>3d</fix>
</trkpt>
<trkpt lat="33.8100854" lon="-118.3939159">
  <ele>-20.85</ele>
  <time>2026-09-01T01:14:03Z</time>
  <course>190.12</course>
  <speed>0.98</speed>
  <fix>3d</fix>
</trkpt>
<trkpt lat="33.8100827" lon="-118.3939166">
  <ele>-21.709</ele>
  <time>2026-09-01T01:14:03Z</time>
  <course>190.85</course>
  <speed>0.966902270139025</speed>
  <fix>3d</fix>
</trkpt>
<trkpt lat="33.8100836" lon="-118.3939163">
  <ele>-21.01</ele>
  <time>2026-09-01T01:14:03Z</time>
  <course>190.14</course>
  <speed>0.99</speed>
  <fix>3d</fix>
</trkpt>
<trkpt lat="33.8100818" lon="-118.3939168">
  <ele>-21.792</ele>
  <time>2026-09-01T01:14:03Z</time>
  <course>190.86</course>
  <speed>0.966902270139025</speed>
  <fix>3d</fix>
</trkpt>
<trkpt lat="33.8100836" lon="-118.3939163">
  <ele>-21.01</ele>
  <time>2026-09-01T01:14:03Z</time>
  <course>190.14</course>
  <speed>0.99</speed>
  <fix>3d</fix>
</trkpt>
<trkpt lat="33.8100809" lon="-118.3939169">
  <ele>-21.876</ele>
  <time>2026-09-01T01:14:03Z</time>
  <course>190.85</course>
  <speed>0.966902270139025</speed>
  <fix>3d</fix>
</trkpt>
<trkpt lat="33.8100819" lon="-118.3939167">
  <ele>-21.17</ele>
  <time>2026-09-01T01:14:03Z</time>
  <course>190.13</course>
  <speed>0.99</speed>
  <fix>3d</fix>
</trkpt>
<trkpt lat="33.81008" lon="-118.3939171">
  <ele>-21.958</ele>
  <time>2026-09-01T01:14:03Z</time>
  <course>190.85</course>
  <speed>0.966902270139025</speed>
  <fix>3d</fix>
</trkpt>
<trkpt lat="33.8100819" lon="-118.3939167">
  <ele>-21.17</ele>
  <time>2026-09-01T01:14:03Z</time>
  <course>190.13</course>
  <speed>0.99</speed>
  <fix>3d</fix>
</trkpt>
<trkpt lat="33.8100792" lon="-118.3939173">
  <ele>-22.04</ele>
  <time>2026-09-01T01:14:03Z</time>
  <course>190.84</course>
  <speed>0.966902270139025</speed>
  <fix>3d</fix>
</trkpt>
<trkpt lat="33.8100802" lon="-118.393917">
  <ele>-21.33</ele>
  <time>2026-09-01T01:14:03Z</time>
  <course>190.11</course>
  <speed>0.99</speed>
  <fix>3d</fix>
</trkpt>
<trkpt lat="33.8100783" lon="-118.3939175">
  <ele>-22.122</ele>
  <time>2026-09-01T01:14:03Z</time>
  <course>190.83</course>
  <speed>0.966902270139025</speed>
  <fix>3d</fix>
</trkpt>
<trkpt lat="33.8100802" lon="-118.393917">
  <ele>-21.33</ele>
  <time>2026-09-01T01:14:03Z</time>
  <course>190.11</course>
  <speed>0.99</speed>
  <fix>3d</fix>
</trkpt>
<trkpt lat="33.8100774" lon="-118.3939177">
  <ele>-22.203</ele>
  <time>2026-09-01T01:14:03Z</time>
  <course>190.83</course>
  <speed>0.966902270139025</speed>
  <fix>3d</fix>
</trkpt>
<trkpt lat="33.8100784" lon="-118.3939174">
  <ele>-21.48</ele>
  <time>2026-09-01T01:14:03Z</time>
  <course>190.09</course>
  <speed>0.99</speed>
  <fix>3d</fix>
</trkpt>
<trkpt lat="33.8100765" lon="-118.3939179">
  <ele>-22.284</ele>
  <time>2026-09-01T01:14:03Z</time>
  <course>190.84</course>
  <speed>0.966902270139025</speed>
  <fix>3d</fix>
</trkpt>
<trkpt lat="33.8100784" lon="-118.3939174">
  <ele>-21.48</ele>
  <time>2026-09-01T01:14:03Z</time>
  <course>190.09</course>
  <speed>0.99</speed>
  <fix>3d</fix>
</trkpt>
<trkpt lat="33.8100756" lon="-118.3939181">
  <ele>-22.364</ele>
  <time>2026-09-01T01:14:03Z</time>
  <course>190.84</course>
  <speed>0.966902270139025</speed>
  <fix>3d</fix>
</trkpt>
<trkpt lat="33.8100766" lon="-118.3939178">
  <ele>-21.64</ele>
  <time>2026-09-01T01:14:03Z</time>
  <course>190.1</course>
  <speed>0.99</speed>
  <fix>3d</fix>
</trkpt>
<trkpt lat="33.8100748" lon="-118.3939183">
  <ele>-22.444</ele>
  <time>2026-09-01T01:14:03Z</time>
  <course>190.86</course>
  <speed>0.966902270139025</speed>
  <fix>3d</fix>
</trkpt>
<trkpt lat="33.8100766" lon="-118.3939178">
  <ele>-21.64</ele>
  <time>2026-09-01T01:14:03Z</time>
  <course>190.1</course>
  <speed>0.99</speed>
  <fix>3d</fix>
</trkpt>
<trkpt lat="33.8100739" lon="-118.3939185">
  <ele>-22.526</ele>
  <time>2026-09-01T01:14:03Z</time>
  <course>190.86</course>
  <speed>0.966902270139025</speed>
  <fix>3d</fix>
</trkpt>
<trkpt lat="33.8100749" lon="-118.3939182">
  <ele>-21.8</ele>
  <time>2026-09-01T01:14:03Z</time>
  <course>190.12</course>
  <speed>0.99</speed>
  <fix>3d</fix>
</trkpt>
<trkpt lat="33.810073" lon="-118.3939187">
  <ele>-22.608</ele>
  <time>2026-09-01T01:14:03Z</time>
  <course>190.88</course>
  <speed>0.966902270139025</speed>
  <fix>3d</fix>
</trkpt>
<trkpt lat="33.8100749" lon="-118.3939182">
  <ele>-21.8</ele>
  <time>2026-09-01T01:14:03Z</time>
  <course>190.12</course>
  <speed>0.99</speed>
  <fix>3d</fix>
</trkpt>
<trkpt lat="33.8100721" lon="-118.3939188">
  <ele>-22.69</ele>
  <time>2026-09-01T01:14:03Z</time>
  <course>190.87</course>
  <speed>0.966902270139025</speed>
  <fix>3d</fix>
</trkpt>
<trkpt lat="33.8100731" lon="-118.3939185">
  <ele>-21.96</ele>
  <time>2026-09-01T01:14:03Z</time>
  <course>190.1</course>
  <speed>0.99</speed>
  <fix>3d</fix>
</trkpt>
<trkpt lat="33.8100712" lon="-118.393919">
  <ele>-22.773</ele>
  <time>2026-09-01T01:14:03Z</time>
  <course>190.87</course>
  <speed>0.966902270139025</speed>
  <fix>3d</fix>
</trkpt>
<trkpt lat="33.8100731" lon="-118.3939185">
  <ele>-21.96</ele>
  <time>2026-09-01T01:14:03Z</time>
  <course>190.1</course>
  <speed>0.99</speed>
  <fix>3d</fix>
</trkpt>
<trkpt lat="33.8100704" lon="-118.3939192">
  <ele>-22.855</ele>
  <time>2026-09-01T01:14:03Z</time>
  <course>190.87</course>
  <speed>0.966902270139025</speed>
  <fix>3d</fix>
</trkpt>
<trkpt lat="33.8100714" lon="-118.3939189">
  <ele>-22.12</ele>
  <time>2026-09-01T01:14:03Z</time>
  <course>190.1</course>
  <speed>0.99</speed>
  <fix>3d</fix>
</trkpt>
<trkpt lat="33.8100695" lon="-118.3939194">
  <ele>-22.936</ele>
  <time>2026-09-01T01:14:03Z</time>
  <course>190.89</course>
  <speed>0.966902270139025</speed>
  <fix>3d</fix>
</trkpt>
<trkpt lat="33.8100714" lon="-118.3939189">
  <ele>-22.12</ele>
  <time>2026-09-01T01:14:03Z</time>
  <course>190.1</course>
  <speed>0.99</speed>
  <fix>3d</fix>
</trkpt>
<trkpt lat="33.8100686" lon="-118.3939196">
  <ele>-23.018</ele>
  <time>2026-09-01T01:14:03Z</time>
  <course>190.91</course>
  <speed>0.966902270139025</speed>
  <fix>3d</fix>
</trkpt>
<trkpt lat="33.8100696" lon="-118.3939193">
  <ele>-22.28</ele>
  <time>2026-09-01T01:14:03Z</time>
  <course>190.14</course>
  <speed>0.99</speed>
  <fix>3d</fix>
</trkpt>
<trkpt lat="33.8100677" lon="-118.3939198">
  <ele>-23.1</ele>
  <time>2026-09-01T01:14:03Z</time>
  <course>190.93</course>
  <speed>0.966902270139025</speed>
  <fix>3d</fix>
</trkpt>
<trkpt lat="33.8100696" lon="-118.3939193">
  <ele>-22.28</ele>
  <time>2026-09-01T01:14:03Z</time>
  <course>190.14</course>
  <speed>0.99</speed>
  <fix>3d</fix>
</trkpt>
<trkpt lat="33.8100669" lon="-118.39392">
  <ele>-23.182</ele>
  <time>2026-09-01T01:14:03Z</time>
  <course>190.93</course>
  <speed>0.966902270139025</speed>
  <fix>3d</fix>
</trkpt>
<trkpt lat="33.8100678" lon="-118.3939197">
  <ele>-22.44</ele>
  <time>2026-09-01T01:14:03Z</time>
  <course>190.15</course>
  <speed>0.99</speed>
  <fix>3d</fix>
</trkpt>
<trkpt lat="33.810066" lon="-118.3939202">
  <ele>-23.266</ele>
  <time>2026-09-01T01:14:03Z</time>
  <course>190.93</course>
  <speed>0.966902270139025</speed>
  <fix>3d</fix>
</trkpt>
<trkpt lat="33.8100678" lon="-118.3939197">
  <ele>-22.44</ele>
  <time>2026-09-01T01:14:03Z</time>
  <course>190.15</course>
  <speed>0.99</speed>
  <fix>3d</fix>
</trkpt>
<trkpt lat="33.8100651" lon="-118.3939204">
  <ele>-23.349</ele>
  <time>2026-09-01T01:14:03Z</time>
  <course>190.93</course>
  <speed>0.966902270139025</speed>
  <fix>3d</fix>
</trkpt>
<trkpt lat="33.8100661" lon="-118.39392">
  <ele>-22.6</ele>
  <time>2026-09-01T01:14:03Z</time>
  <course>190.14</course>
  <speed>0.99</speed>
  <fix>3d</fix>
</trkpt>
<trkpt lat="33.8100642" lon="-118.3939205">
  <ele>-23.431</ele>
  <time>2026-09-01T01:14:03Z</time>
  <course>190.95</course>
  <speed>0.966902270139025</speed>
  <fix>3d</fix>
</trkpt>
<trkpt lat="33.8100661" lon="-118.39392">
  <ele>-22.6</ele>
  <time>2026-09-01T01:14:03Z</time>
  <course>190.14</course>
  <speed>0.99</speed>
  <fix>3d</fix>
</trkpt>
<trkpt lat="33.8100633" lon="-118.3939207">
  <ele>-23.512</ele>
  <time>2026-09-01T01:14:03Z</time>
  <course>190.96</course>
  <speed>0.966902270139025</speed>
  <fix>3d</fix>
</trkpt>
<trkpt lat="33.8100644" lon="-118.3939204">
  <ele>-22.76</ele>
  <time>2026-09-01T01:14:03Z</time>
  <course>190.14</course>
  <speed>0.99</speed>
  <fix>3d</fix>
</trkpt>
<trkpt lat="33.8100624" lon="-118.3939209">
  <ele>-23.594</ele>
  <time>2026-09-01T01:14:03Z</time>
  <course>190.99</course>
  <speed>0.966902270139025</speed>
  <fix>3d</fix>
</trkpt>
<trkpt lat="33.8100644" lon="-118.3939204">
  <ele>-22.76</ele>
  <time>2026-09-01T01:14:03Z</time>
  <course>190.14</course>
  <speed>0.99</speed>
  <fix>3d</fix>
</trkpt>
<trkpt lat="33.8100616" lon="-118.3939211">
  <ele>-23.676</ele>
  <time>2026-09-01T01:14:03Z</time>
  <course>191.0</course>
  <speed>0.966902270139025</speed>
  <fix>3d</fix>
</trkpt>
<trkpt lat="33.8100626" lon="-118.3939208">
  <ele>-22.92</ele>
  <time>2026-09-01T01:14:03Z</time>
  <course>190.17</course>
  <speed>0.99</speed>
  <fix>3d</fix>
</trkpt>
<trkpt lat="33.8100607" lon="-118.3939213">
  <ele>-23.76</ele>
  <time>2026-09-01T01:14:03Z</time>
  <course>191.01</course>
  <speed>0.966902270139025</speed>
  <fix>3d</fix>
</trkpt>
<trkpt lat="33.8100626" lon="-118.3939208">
  <ele>-22.92</ele>
  <time>2026-09-01T01:14:03Z</time>
  <course>190.17</course>
  <speed>0.99</speed>
  <fix>3d</fix>
</trkpt>
<trkpt lat="33.8100598" lon="-118.3939215">
  <ele>-23.843</ele>
  <time>2026-09-01T01:14:03Z</time>
  <course>191.01</course>
  <speed>0.966902270139025</speed>
  <fix>3d</fix>
</trkpt>
<trkpt lat="33.8100608" lon="-118.3939212">
  <ele>-23.08</ele>
  <time>2026-09-01T01:14:03Z</time>
  <course>190.18</course>
  <speed>0.99</speed>
  <fix>3d</fix>
</trkpt>
<trkpt lat="33.8100589" lon="-118.3939217">
  <ele>-23.926</ele>
  <time>2026-09-01T01:14:03Z</time>
  <course>191.01</course>
  <speed>0.966902270139025</speed>
  <fix>3d</fix>
</trkpt>
<trkpt lat="33.8100608" lon="-118.3939212">
  <ele>-23.08</ele>
  <time>2026-09-01T01:14:03Z</time>
  <course>190.18</course>
  <speed>0.99</speed>
  <fix>3d</fix>
</trkpt>
<trkpt lat="33.810058" lon="-118.3939219">
  <ele>-24.009</ele>
  <time>2026-09-01T01:14:03Z</time>
  <course>191.01</course>
  <speed>0.966902270139025</speed>
  <fix>3d</fix>
</trkpt>
<trkpt lat="33.8100591" lon="-118.3939216">
  <ele>-23.25</ele>
  <time>2026-09-01T01:14:03Z</time>
  <course>190.18</course>
  <speed>0.99</speed>
  <fix>3d</fix>
</trkpt>
<trkpt lat="33.8100572" lon="-118.3939221">
  <ele>-24.092</ele>
  <time>2026-09-01T01:14:03Z</time>
  <course>191.0</course>
  <speed>0.966902270139025</speed>
  <fix>3d</fix>
</trkpt>
<trkpt lat="33.8100591" lon="-118.3939216">
  <ele>-23.25</ele>
  <time>2026-09-01T01:14:03Z</time>
  <course>190.18</course>
  <speed>0.99</speed>
  <fix>3d</fix>
</trkpt>
<trkpt lat="33.8100563" lon="-118.3939223">
  <ele>-24.175</ele>
  <time>2026-09-01T01:14:03Z</time>
  <course>190.99</course>
  <speed>0.9767292357659824</speed>
  <fix>3d</fix>
</trkpt>
<trkpt lat="33.8100573" lon="-118.3939219">
  <ele>-23.41</ele>
  <time>2026-09-01T01:14:03Z</time>
  <course>190.15</course>
  <speed>0.99</speed>
  <fix>3d</fix>
</trkpt>
<trkpt lat="33.8100554" lon="-118.3939224">
  <ele>-24.257</ele>
  <time>2026-09-01T01:14:03Z</time>
  <course>190.97</course>
  <speed>0.9767292357659824</speed>
  <fix>3d</fix>
</trkpt>
<trkpt lat="33.8100573" lon="-118.3939219">
  <ele>-23.41</ele>
  <time>2026-09-01T01:14:03Z</time>
  <course>190.15</course>
  <speed>0.99</speed>
  <fix>3d</fix>
</trkpt>
<trkpt lat="33.8100545" lon="-118.3939226">
  <ele>-24.338</ele>
  <time>2026-09-01T01:14:03Z</time>
  <course>190.98</course>
  <speed>0.9767292357659824</speed>
  <fix>3d</fix>
</trkpt>
<trkpt lat="33.8100556" lon="-118.3939222">
  <ele>-23.57</ele>
  <time>2026-09-01T01:14:03Z</time>
  <course>190.15</course>
  <speed>0.99</speed>
  <fix>3d</fix>
</trkpt>
<trkpt lat="33.8100536" lon="-118.3939228">
  <ele>-24.419</ele>
  <time>2026-09-01T01:14:03Z</time>
  <course>191.0</course>
  <speed>0.966902270139025</speed>
  <fix>3d</fix>
</trkpt>
<trkpt lat="33.8100556" lon="-118.3939222">
  <ele>-23.57</ele>
  <time>2026-09-01T01:14:03Z</time>
  <course>190.15</course>
  <speed>0.99</speed>
  <fix>3d</fix>
</trkpt>
<trkpt lat="33.8100528" lon="-118.393923">
  <ele>-24.5</ele>
  <time>2026-09-01T01:14:03Z</time>
  <course>191.04</course>
  <speed>0.966902270139025</speed>
  <fix>3d</fix>
</trkpt>
<trkpt lat="33.8100538" lon="-118.3939227">
  <ele>-23.73</ele>
  <time>2026-09-01T01:14:03Z</time>
  <course>190.22</course>
  <speed>0.99</speed>
  <fix>3d</fix>
</trkpt>
<trkpt lat="33.8100519" lon="-118.3939232">
  <ele>-24.581</ele>
  <time>2026-09-01T01:14:03Z</time>
  <course>191.07</course>
  <speed>0.966902270139025</speed>
  <fix>3d</fix>
</trkpt>
<trkpt lat="33.8100538" lon="-118.3939227">
  <ele>-23.73</ele>
  <time>2026-09-01T01:14:03Z</time>
  <course>190.22</course>
  <speed>0.99</speed>
  <fix>3d</fix>
</trkpt>
<trkpt lat="33.810051" lon="-118.3939234">
  <ele>-24.664</ele>
  <time>2026-09-01T01:14:03Z</time>
  <course>191.09</course>
  <speed>0.966902270139025</speed>
  <fix>3d</fix>
</trkpt>
<trkpt lat="33.810052" lon="-118.3939231">
  <ele>-23.89</ele>
  <time>2026-09-01T01:14:03Z</time>
  <course>190.27</course>
  <speed>0.99</speed>
  <fix>3d</fix>
</trkpt>
<trkpt lat="33.8100501" lon="-118.3939236">
  <ele>-24.748</ele>
  <time>2026-09-01T01:14:03Z</time>
  <course>191.1</course>
  <speed>0.966902270139025</speed>
  <fix>3d</fix>
</trkpt>
<trkpt lat="33.810052" lon="-118.3939231">
  <ele>-23.89</ele>
  <time>2026-09-01T01:14:03Z</time>
  <course>190.27</course>
  <speed>0.99</speed>
  <fix>3d</fix>
</trkpt>
<trkpt lat="33.8100492" lon="-118.3939238">
  <ele>-24.832</ele>
  <time>2026-09-01T01:14:03Z</time>
  <course>191.08</course>
  <speed>0.966902270139025</speed>
  <fix>3d</fix>
</trkpt>
<trkpt lat="33.8100503" lon="-118.3939235">
  <ele>-24.05</ele>
  <time>2026-09-01T01:14:03Z</time>
  <course>190.25</course>
  <speed>0.99</speed>
  <fix>3d</fix>
</trkpt>
<trkpt lat="33.8100483" lon="-118.393924">
  <ele>-24.916</ele>
  <time>2026-09-01T01:14:03Z</time>
  <course>191.07</course>
  <speed>0.9767292357659824</speed>
  <fix>3d</fix>
</trkpt>
<trkpt lat="33.8100503" lon="-118.3939235">
  <ele>-24.05</ele>
  <time>2026-09-01T01:14:03Z</time>
  <course>190.25</course>
  <speed>0.99</speed>
  <fix>3d</fix>
</trkpt>
<trkpt lat="33.8100475" lon="-118.3939242">
  <ele>-25.0</ele>
  <time>2026-09-01T01:14:03Z</time>
  <course>191.04</course>
  <speed>0.9767292357659824</speed>
  <fix>3d</fix>
</trkpt>
<trkpt lat="33.8100484" lon="-118.3939239">
  <ele>-24.22</ele>
  <time>2026-09-01T01:14:03Z</time>
  <course>190.2</course>
  <speed>0.99</speed>
  <fix>3d</fix>
</trkpt>
<trkpt lat="33.8100466" lon="-118.3939244">
  <ele>-25.084</ele>
  <time>2026-09-01T01:14:03Z</time>
  <course>191.02</course>
  <speed>0.9767292357659824</speed>
  <fix>3d</fix>
</trkpt>
<trkpt lat="33.8100484" lon="-118.3939239">
  <ele>-24.22</ele>
  <time>2026-09-01T01:14:03Z</time>
  <course>190.2</course>
  <speed>0.99</speed>
  <fix>3d</fix>
</trkpt>
<trkpt lat="33.8100457" lon="-118.3939245">
  <ele>-25.169</ele>
  <time>2026-09-01T01:14:03Z</time>
  <course>190.98</course>
  <speed>0.9767292357659824</speed>
  <fix>3d</fix>
</trkpt>
<trkpt lat="33.8100467" lon="-118.3939242">
  <ele>-24.38</ele>
  <time>2026-09-01T01:14:03Z</time>
  <course>190.15</course>
  <speed>1.0</speed>
  <fix>3d</fix>
</trkpt>
<trkpt lat="33.8100448" lon="-118.3939247">
  <ele>-25.254</ele>
  <time>2026-09-01T01:14:03Z</time>
  <course>190.96</course>
  <speed>0.9767292357659824</speed>
  <fix>3d</fix>
</trkpt>
<trkpt lat="33.8100467" lon="-118.3939242">
  <ele>-24.38</ele>
  <time>2026-09-01T01:14:03Z</time>
  <course>190.15</course>
  <speed>1.0</speed>
  <fix>3d</fix>
</trkpt>
<trkpt lat="33.8100439" lon="-118.3939249">
  <ele>-25.339</ele>
  <time>2026-09-01T01:14:03Z</time>
  <course>190.95</course>
  <speed>0.9767292357659824</speed>
  <fix>3d</fix>
</trkpt>
<trkpt lat="33.810045" lon="-118.3939246">
  <ele>-24.54</ele>
  <time>2026-09-01T01:14:03Z</time>
  <course>190.13</course>
  <speed>1.0</speed>
  <fix>3d</fix>
</trkpt>
<trkpt lat="33.810043" lon="-118.3939251">
  <ele>-25.422</ele>
  <time>2026-09-01T01:14:03Z</time>
  <course>190.96</course>
  <speed>0.9767292357659824</speed>
  <fix>3d</fix>
</trkpt>
<trkpt lat="33.810045" lon="-118.3939246">
  <ele>-24.54</ele>
  <time>2026-09-01T01:14:03Z</time>
  <course>190.13</course>
  <speed>1.0</speed>
  <fix>3d</fix>
</trkpt>
<trkpt lat="33.8100422" lon="-118.3939253">
  <ele>-25.504</ele>
  <time>2026-09-01T01:14:03Z</time>
  <course>190.97</course>
  <speed>0.9865596788841515</speed>
  <fix>3d</fix>
</trkpt>
<trkpt lat="33.8100431" lon="-118.393925">
  <ele>-24.7</ele>
  <time>2026-09-01T01:14:03Z</time>
  <course>190.14</course>
  <speed>1.0</speed>
  <fix>3d</fix>
</trkpt>
<trkpt lat="33.8100413" lon="-118.3939255">
  <ele>-25.586</ele>
  <time>2026-09-01T01:14:03Z</time>
  <course>190.98</course>
  <speed>0.9767292357659824</speed>
  <fix>3d</fix>
</trkpt>
<trkpt lat="33.8100431" lon="-118.393925">
  <ele>-24.7</ele>
  <time>2026-09-01T01:14:03Z</time>
  <course>190.14</course>
  <speed>1.0</speed>
  <fix>3d</fix>
</trkpt>
<trkpt lat="33.8100404" lon="-118.3939257">
  <ele>-25.668</ele>
  <time>2026-09-01T01:14:03Z</time>
  <course>190.99</course>
  <speed>0.9767292357659824</speed>
  <fix>3d</fix>
</trkpt>
<trkpt lat="33.8100414" lon="-118.3939254">
  <ele>-24.86</ele>
  <time>2026-09-01T01:14:03Z</time>
  <course>190.15</course>
  <speed>1.01</speed>
  <fix>3d</fix>
</trkpt>
<trkpt lat="33.8100395" lon="-118.3939259">
  <ele>-25.75</ele>
  <time>2026-09-01T01:14:03Z</time>
  <course>190.99</course>
  <speed>0.9767292357659824</speed>
  <fix>3d</fix>
</trkpt>
<trkpt lat="33.8100414" lon="-118.3939254">
  <ele>-24.86</ele>
  <time>2026-09-01T01:14:03Z</time>
  <course>190.15</course>
  <speed>1.01</speed>
  <fix>3d</fix>
</trkpt>
<trkpt lat="33.8100386" lon="-118.3939261">
  <ele>-25.833</ele>
  <time>2026-09-01T01:14:03Z</time>
  <course>190.98</course>
  <speed>0.9767292357659824</speed>
  <fix>3d</fix>
</trkpt>
<trkpt lat="33.8100395" lon="-118.3939258">
  <ele>-25.01</ele>
  <time>2026-09-01T01:14:03Z</time>
  <course>190.15</course>
  <speed>1.01</speed>
  <fix>3d</fix>
</trkpt>
<trkpt lat="33.8100377" lon="-118.3939263">
  <ele>-25.914</ele>
  <time>2026-09-01T01:14:03Z</time>
  <course>190.98</course>
  <speed>0.9767292357659824</speed>
  <fix>3d</fix>
</trkpt>
<trkpt lat="33.8100395" lon="-118.3939258">
  <ele>-25.01</ele>
  <time>2026-09-01T01:14:03Z</time>
  <course>190.15</course>
  <speed>1.01</speed>
  <fix>3d</fix>
</trkpt>
<trkpt lat="33.8100368" lon="-118.3939265">
  <ele>-25.994</ele>
  <time>2026-09-01T01:14:03Z</time>
  <course>190.97</course>
  <speed>0.9767292357659824</speed>
  <fix>3d</fix>
</trkpt>
<trkpt lat="33.8100378" lon="-118.3939262">
  <ele>-25.17</ele>
  <time>2026-09-01T01:14:03Z</time>
  <course>190.14</course>
  <speed>1.0</speed>
  <fix>3d</fix>
</trkpt>
<trkpt lat="33.8100359" lon="-118.3939267">
  <ele>-26.075</ele>
  <time>2026-09-01T01:14:03Z</time>
  <course>190.96</course>
  <speed>0.9767292357659824</speed>
  <fix>3d</fix>
</trkpt>
<trkpt lat="33.8100378" lon="-118.3939262">
  <ele>-25.17</ele>
  <time>2026-09-01T01:14:03Z</time>
  <course>190.14</course>
  <speed>1.0</speed>
  <fix>3d</fix>
</trkpt>
<trkpt lat="33.810035" lon="-118.3939268">
  <ele>-26.156</ele>
  <time>2026-09-01T01:14:03Z</time>
  <course>190.95</course>
  <speed>0.9767292357659824</speed>
  <fix>3d</fix>
</trkpt>
<trkpt lat="33.8100361" lon="-118.3939265">
  <ele>-25.32</ele>
  <time>2026-09-01T01:14:03Z</time>
  <course>190.13</course>
  <speed>1.0</speed>
  <fix>3d</fix>
</trkpt>
<trkpt lat="33.8100342" lon="-118.393927">
  <ele>-26.236</ele>
  <time>2026-09-01T01:14:03Z</time>
  <course>190.94</course>
  <speed>0.9767292357659824</speed>
  <fix>3d</fix>
</trkpt>
<trkpt lat="33.8100361" lon="-118.3939265">
  <ele>-25.32</ele>
  <time>2026-09-01T01:14:03Z</time>
  <course>190.13</course>
  <speed>1.0</speed>
  <fix>3d</fix>
</trkpt>
<trkpt lat="33.8100333" lon="-118.3939272">
  <ele>-26.318</ele>
  <time>2026-09-01T01:14:03Z</time>
  <course>190.93</course>
  <speed>0.9767292357659824</speed>
  <fix>3d</fix>
</trkpt>
<trkpt lat="33.8100343" lon="-118.3939269">
  <ele>-25.48</ele>
  <time>2026-09-01T01:14:03Z</time>
  <course>190.11</course>
  <speed>1.0</speed>
  <fix>3d</fix>
</trkpt>
<trkpt lat="33.8100324" lon="-118.3939274">
  <ele>-26.399</ele>
  <time>2026-09-01T01:14:03Z</time>
  <course>190.94</course>
  <speed>0.9767292357659824</speed>
  <fix>3d</fix>
</trkpt>
<trkpt lat="33.8100343" lon="-118.3939269">
  <ele>-25.48</ele>
  <time>2026-09-01T01:14:03Z</time>
  <course>190.11</course>
  <speed>1.0</speed>
  <fix>3d</fix>
</trkpt>
<trkpt lat="33.8100315" lon="-118.3939276">
  <ele>-26.481</ele>
  <time>2026-09-01T01:14:03Z</time>
  <course>190.95</course>
  <speed>0.966902270139025</speed>
  <fix>3d</fix>
</trkpt>
<trkpt lat="33.8100325" lon="-118.3939273">
  <ele>-25.64</ele>
  <time>2026-09-01T01:14:03Z</time>
  <course>190.12</course>
  <speed>1.0</speed>
  <fix>3d</fix>
</trkpt>
<trkpt lat="33.8100306" lon="-118.3939278">
  <ele>-26.563</ele>
  <time>2026-09-01T01:14:03Z</time>
  <course>190.96</course>
  <speed>0.966902270139025</speed>
  <fix>3d</fix>
</trkpt>
<trkpt lat="33.8100325" lon="-118.3939273">
  <ele>-25.64</ele>
  <time>2026-09-01T01:14:03Z</time>
  <course>190.12</course>
  <speed>1.0</speed>
  <fix>3d</fix>
</trkpt>
<trkpt lat="33.8100298" lon="-118.393928">
  <ele>-26.647</ele>
  <time>2026-09-01T01:14:03Z</time>
  <course>190.97</course>
  <speed>0.9767292357659824</speed>
  <fix>3d</fix>
</trkpt>
<trkpt lat="33.8100307" lon="-118.3939277">
  <ele>-25.8</ele>
  <time>2026-09-01T01:14:03Z</time>
  <course>190.13</course>
  <speed>1.0</speed>
  <fix>3d</fix>
</trkpt>
<trkpt lat="33.8100289" lon="-118.3939282">
  <ele>-26.731</ele>
  <time>2026-09-01T01:14:03Z</time>
  <course>190.97</course>
  <speed>0.966902270139025</speed>
  <fix>3d</fix>
</trkpt>
<trkpt lat="33.8100307" lon="-118.3939277">
  <ele>-25.8</ele>
  <time>2026-09-01T01:14:03Z</time>
  <course>190.13</course>
  <speed>1.0</speed>
  <fix>3d</fix>
</trkpt>
<trkpt lat="33.810028" lon="-118.3939284">
  <ele>-26.814</ele>
  <time>2026-09-01T01:14:03Z</time>
  <course>190.97</course>
  <speed>0.9767292357659824</speed>
  <fix>3d</fix>
</trkpt>
<trkpt lat="33.810029" lon="-118.3939281">
  <ele>-25.97</ele>
  <time>2026-09-01T01:14:03Z</time>
  <course>190.12</course>
  <speed>1.0</speed>
  <fix>3d</fix>
</trkpt>
<trkpt lat="33.8100271" lon="-118.3939286">
  <ele>-26.896</ele>
  <time>2026-09-01T01:14:03Z</time>
  <course>190.97</course>
  <speed>0.9767292357659824</speed>
  <fix>3d</fix>
</trkpt>
<trkpt lat="33.810029" lon="-118.3939281">
  <ele>-25.97</ele>
  <time>2026-09-01T01:14:03Z</time>
  <course>190.12</course>
  <speed>1.0</speed>
  <fix>3d</fix>
</trkpt>
<trkpt lat="33.8100262" lon="-118.3939287">
  <ele>-26.98</ele>
  <time>2026-09-01T01:14:03Z</time>
  <course>190.95</course>
  <speed>0.9767292357659824</speed>
  <fix>3d</fix>
</trkpt>
<trkpt lat="33.8100271" lon="-118.3939284">
  <ele>-26.13</ele>
  <time>2026-09-01T01:14:03Z</time>
  <course>190.08</course>
  <speed>1.0</speed>
  <fix>3d</fix>
</trkpt>
<trkpt lat="33.8100253" lon="-118.3939289">
  <ele>-27.063</ele>
  <time>2026-09-01T01:14:03Z</time>
  <course>190.94</course>
  <speed>0.9767292357659824</speed>
  <fix>3d</fix>
</trkpt>
<trkpt lat="33.8100271" lon="-118.3939284">
  <ele>-26.13</ele>
  <time>2026-09-01T01:14:03Z</time>
  <course>190.08</course>
  <speed>1.0</speed>
  <fix>3d</fix>
</trkpt>
<trkpt lat="33.8100245" lon="-118.3939291">
  <ele>-27.147</ele>
  <time>2026-09-01T01:14:03Z</time>
  <course>190.96</course>
  <speed>0.9767292357659824</speed>
  <fix>3d</fix>
</trkpt>
<trkpt lat="33.8100254" lon="-118.3939288">
  <ele>-26.29</ele>
  <time>2026-09-01T01:14:03Z</time>
  <course>190.08</course>
  <speed>1.0</speed>
  <fix>3d</fix>
</trkpt>
<trkpt lat="33.8100236" lon="-118.3939293">
  <ele>-27.23</ele>
  <time>2026-09-01T01:14:03Z</time>
  <course>190.98</course>
  <speed>0.9767292357659824</speed>
  <fix>3d</fix>
</trkpt>
<trkpt lat="33.8100254" lon="-118.3939288">
  <ele>-26.29</ele>
  <time>2026-09-01T01:14:03Z</time>
  <course>190.08</course>
  <speed>1.0</speed>
  <fix>3d</fix>
</trkpt>
<trkpt lat="33.8100227" lon="-118.3939295">
  <ele>-27.313</ele>
  <time>2026-09-01T01:14:03Z</time>
  <course>191.0</course>
  <speed>0.9767292357659824</speed>
  <fix>3d</fix>
</trkpt>
<trkpt lat="33.8100236" lon="-118.3939292">
  <ele>-26.45</ele>
  <time>2026-09-01T01:14:03Z</time>
  <course>190.13</course>
  <speed>1.0</speed>
  <fix>3d</fix>
</trkpt>
<trkpt lat="33.8100218" lon="-118.3939297">
  <ele>-27.396</ele>
  <time>2026-09-01T01:14:03Z</time>
  <course>191.02</course>
  <speed>0.9767292357659824</speed>
  <fix>3d</fix>
</trkpt>
<trkpt lat="33.8100236" lon="-118.3939292">
  <ele>-26.45</ele>
  <time>2026-09-01T01:14:03Z</time>
  <course>190.13</course>
  <speed>1.0</speed>
  <fix>3d</fix>
</trkpt>
<trkpt lat="33.8100209" lon="-118.3939299">
  <ele>-27.478</ele>
  <time>2026-09-01T01:14:03Z</time>
  <course>191.04</course>
  <speed>0.9767292357659824</speed>
  <fix>3d</fix>
</trkpt>
<trkpt lat="33.8100218" lon="-118.3939296">
  <ele>-26.62</ele>
  <time>2026-09-01T01:14:03Z</time>
  <course>190.15</course>
  <speed>1.0</speed>
  <fix>3d</fix>
</trkpt>
<trkpt lat="33.81002" lon="-118.3939301">
  <ele>-27.56</ele>
  <time>2026-09-01T01:14:03Z</time>
  <course>191.05</course>
  <speed>0.9767292357659824</speed>
  <fix>3d</fix>
</trkpt>
<trkpt lat="33.8100218" lon="-118.3939296">
  <ele>-26.62</ele>
  <time>2026-09-01T01:14:03Z</time>
  <course>190.15</course>
  <speed>1.0</speed>
  <fix>3d</fix>
</trkpt>
<trkpt lat="33.8100191" lon="-118.3939303">
  <ele>-27.643</ele>
  <time>2026-09-01T01:14:03Z</time>
  <course>191.06</course>
  <speed>0.9767292357659824</speed>
  <fix>3d</fix>
</trkpt>
<trkpt lat="33.8100201" lon="-118.39393">
  <ele>-26.78</ele>
  <time>2026-09-01T01:14:03Z</time>
  <course>190.15</course>
  <speed>1.0</speed>
  <fix>3d</fix>
</trkpt>
<trkpt lat="33.8100182" lon="-118.3939305">
  <ele>-27.726</ele>
  <time>2026-09-01T01:14:03Z</time>
  <course>191.06</course>
  <speed>0.9767292357659824</speed>
  <fix>3d</fix>
</trkpt>
<trkpt lat="33.8100201" lon="-118.39393">
  <ele>-26.78</ele>
  <time>2026-09-01T01:14:03Z</time>
  <course>190.15</course>
  <speed>1.0</speed>
  <fix>3d</fix>
</trkpt>
<trkpt lat="33.8100174" lon="-118.3939307">
  <ele>-27.81</ele>
  <time>2026-09-01T01:14:03Z</time>
  <course>191.05</course>
  <speed>0.9767292357659824</speed>
  <fix>3d</fix>
</trkpt>
<trkpt lat="33.8100182" lon="-118.3939303">
  <ele>-26.94</ele>
  <time>2026-09-01T01:14:03Z</time>
  <course>190.12</course>
  <speed>1.0</speed>
  <fix>3d</fix>
</trkpt>
<trkpt lat="33.8100165" lon="-118.3939308">
  <ele>-27.894</ele>
  <time>2026-09-01T01:14:03Z</time>
  <course>191.05</course>
  <speed>0.9767292357659824</speed>
  <fix>3d</fix>
</trkpt>
<trkpt lat="33.8100182" lon="-118.3939303">
  <ele>-26.94</ele>
  <time>2026-09-01T01:14:03Z</time>
  <course>190.12</course>
  <speed>1.0</speed>
  <fix>3d</fix>
</trkpt>
<trkpt lat="33.8100156" lon="-118.393931">
  <ele>-27.976</ele>
  <time>2026-09-01T01:14:03Z</time>
  <course>191.07</course>
  <speed>0.9767292357659824</speed>
  <fix>3d</fix>
</trkpt>
<trkpt lat="33.8100165" lon="-118.3939307">
  <ele>-27.1</ele>
  <time>2026-09-01T01:14:03Z</time>
  <course>190.12</course>
  <speed>1.0</speed>
  <fix>3d</fix>
</trkpt>
<trkpt lat="33.8100147" lon="-118.3939312">
  <ele>-28.059</ele>
  <time>2026-09-01T01:14:03Z</time>
  <course>191.09</course>
  <speed>0.9767292357659824</speed>
  <fix>3d</fix>
</trkpt>
<trkpt lat="33.8100165" lon="-118.3939307">
  <ele>-27.1</ele>
  <time>2026-09-01T01:14:03Z</time>
  <course>190.12</course>
  <speed>1.0</speed>
  <fix>3d</fix>
</trkpt>
<trkpt lat="33.8100138" lon="-118.3939314">
  <ele>-28.142</ele>
  <time>2026-09-01T01:14:03Z</time>
  <course>191.12</course>
  <speed>0.9767292357659824</speed>
  <fix>3d</fix>
</trkpt>
<trkpt lat="33.8100148" lon="-118.3939311">
  <ele>-27.26</ele>
  <time>2026-09-01T01:14:03Z</time>
  <course>190.16</course>
  <speed>1.0</speed>
  <fix>3d</fix>
</trkpt>
<trkpt lat="33.8100129" lon="-118.3939316">
  <ele>-28.223</ele>
  <time>2026-09-01T01:14:03Z</time>
  <course>191.15</course>
  <speed>0.9767292357659824</speed>
  <fix>3d</fix>
</trkpt>
<trkpt lat="33.8100148" lon="-118.3939311">
  <ele>-27.26</ele>
  <time>2026-09-01T01:14:03Z</time>
  <course>190.16</course>
  <speed>1.0</speed>
  <fix>3d</fix>
</trkpt>
<trkpt lat="33.810012" lon="-118.3939318">
  <ele>-28.305</ele>
  <time>2026-09-01T01:14:03Z</time>
  <course>191.16</course>
  <speed>0.9767292357659824</speed>
  <fix>3d</fix>
</trkpt>
<trkpt lat="33.810013" lon="-118.3939315">
  <ele>-27.43</ele>
  <time>2026-09-01T01:14:03Z</time>
  <course>190.19</course>
  <speed>1.0</speed>
  <fix>3d</fix>
</trkpt>
<trkpt lat="33.8100111" lon="-118.393932">
  <ele>-28.388</ele>
  <time>2026-09-01T01:14:03Z</time>
  <course>191.16</course>
  <speed>0.9767292357659824</speed>
  <fix>3d</fix>
</trkpt>
<trkpt lat="33.810013" lon="-118.3939315">
  <ele>-27.43</ele>
  <time>2026-09-01T01:14:03Z</time>
  <course>190.19</course>
  <speed>1.0</speed>
  <fix>3d</fix>
</trkpt>
<trkpt lat="33.8100103" lon="-118.3939322">
  <ele>-28.471</ele>
  <time>2026-09-01T01:14:03Z</time>
  <course>191.16</course>
  <speed>0.9767292357659824</speed>
  <fix>3d</fix>
</trkpt>
<trkpt lat="33.8100112" lon="-118.3939319">
  <ele>-27.59</ele>
  <time>2026-09-01T01:14:03Z</time>
  <course>190.17</course>
  <speed>1.0</speed>
  <fix>3d</fix>
</trkpt>
<trkpt lat="33.8100094" lon="-118.3939324">
  <ele>-28.553</ele>
  <time>2026-09-01T01:14:03Z</time>
  <course>191.16</course>
  <speed>0.9767292357659824</speed>
  <fix>3d</fix>
</trkpt>
<trkpt lat="33.8100112" lon="-118.3939319">
  <ele>-27.59</ele>
  <time>2026-09-01T01:14:03Z</time>
  <course>190.17</course>
  <speed>1.0</speed>
  <fix>3d</fix>
</trkpt>
<trkpt lat="33.8100085" lon="-118.3939326">
  <ele>-28.636</ele>
  <time>2026-09-01T01:14:03Z</time>
  <course>191.14</course>
  <speed>0.9767292357659824</speed>
  <fix>3d</fix>
</trkpt>
<trkpt lat="33.8100094" lon="-118.3939323">
  <ele>-27.75</ele>
  <time>2026-09-01T01:14:03Z</time>
  <course>190.14</course>
  <speed>1.0</speed>
  <fix>3d</fix>
</trkpt>
<trkpt lat="33.8100076" lon="-118.3939328">
  <ele>-28.718</ele>
  <time>2026-09-01T01:14:03Z</time>
  <course>191.13</course>
  <speed>0.966902270139025</speed>
  <fix>3d</fix>
</trkpt>
<trkpt lat="33.8100094" lon="-118.3939323">
  <ele>-27.75</ele>
  <time>2026-09-01T01:14:03Z</time>
  <course>190.14</course>
  <speed>1.0</speed>
  <fix>3d</fix>
</trkpt>
<trkpt lat="33.8100067" lon="-118.3939329">
  <ele>-28.8</ele>
  <time>2026-09-01T01:14:03Z</time>
  <course>191.11</course>
  <speed>0.966902270139025</speed>
  <fix>3d</fix>
</trkpt>
<trkpt lat="33.8100077" lon="-118.3939326">
  <ele>-27.91</ele>
  <time>2026-09-01T01:14:03Z</time>
  <course>190.1</course>
  <speed>1.0</speed>
  <fix>3d</fix>
</trkpt>
<trkpt lat="33.8100058" lon="-118.3939331">
  <ele>-28.882</ele>
  <time>2026-09-01T01:14:03Z</time>
  <course>191.1</course>
  <speed>0.966902270139025</speed>
  <fix>3d</fix>
</trkpt>
<trkpt lat="33.8100077" lon="-118.3939326">
  <ele>-27.91</ele>
  <time>2026-09-01T01:14:03Z</time>
  <course>190.1</course>
  <speed>1.0</speed>
  <fix>3d</fix>
</trkpt>
<trkpt lat="33.810005" lon="-118.3939333">
  <ele>-28.965</ele>
  <time>2026-09-01T01:14:03Z</time>
  <course>191.09</course>
  <speed>0.966902270139025</speed>
  <fix>3d</fix>
</trkpt>
<trkpt lat="33.8100058" lon="-118.393933">
  <ele>-28.07</ele>
  <time>2026-09-01T01:14:03Z</time>
  <course>190.09</course>
  <speed>0.99</speed>
  <fix>3d</fix>
</trkpt>
<trkpt lat="33.8100041" lon="-118.3939335">
  <ele>-29.048</ele>
  <time>2026-09-01T01:14:03Z</time>
  <course>191.11</course>
  <speed>0.966902270139025</speed>
  <fix>3d</fix>
</trkpt>
<trkpt lat="33.8100058" lon="-118.393933">
  <ele>-28.07</ele>
  <time>2026-09-01T01:14:03Z</time>
  <course>190.09</course>
  <speed>0.99</speed>
  <fix>3d</fix>
</trkpt>
<trkpt lat="33.8100032" lon="-118.3939337">
  <ele>-29.131</ele>
  <time>2026-09-01T01:14:03Z</time>
  <course>191.13</course>
  <speed>0.966902270139025</speed>
  <fix>3d</fix>
</trkpt>
<trkpt lat="33.8100041" lon="-118.3939334">
  <ele>-28.24</ele>
  <time>2026-09-01T01:14:03Z</time>
  <course>190.12</course>
  <speed>0.99</speed>
  <fix>3d</fix>
</trkpt>
<trkpt lat="33.8100023" lon="-118.3939339">
  <ele>-29.215</ele>
  <time>2026-09-01T01:14:03Z</time>
  <course>191.15</course>
  <speed>0.966902270139025</speed>
  <fix>3d</fix>
</trkpt>
<trkpt lat="33.8100041" lon="-118.3939334">
  <ele>-28.24</ele>
  <time>2026-09-01T01:14:03Z</time>
  <course>190.12</course>
  <speed>0.99</speed>
  <fix>3d</fix>
</trkpt>
<trkpt lat="33.8100014" lon="-118.3939341">
  <ele>-29.298</ele>
  <time>2026-09-01T01:14:03Z</time>
  <course>191.17</course>
  <speed>0.966902270139025</speed>
  <fix>3d</fix>
</trkpt>
<trkpt lat="33.8100024" lon="-118.3939338">
  <ele>-28.4</ele>
  <time>2026-09-01T01:14:03Z</time>
  <course>190.15</course>
  <speed>0.99</speed>
  <fix>3d</fix>
</trkpt>
<trkpt lat="33.8100005" lon="-118.3939343">
  <ele>-29.382</ele>
  <time>2026-09-01T01:14:03Z</time>
  <course>191.18</course>
  <speed>0.966902270139025</speed>
  <fix>3d</fix>
</trkpt>
<trkpt lat="33.8100024" lon="-118.3939338">
  <ele>-28.4</ele>
  <time>2026-09-01T01:14:03Z</time>
  <course>190.15</course>
  <speed>0.99</speed>
  <fix>3d</fix>
</trkpt>
<trkpt lat="33.8099996" lon="-118.3939345">
  <ele>-29.466</ele>
  <time>2026-09-01T01:14:03Z</time>
  <course>191.17</course>
  <speed>0.9767292357659824</speed>
  <fix>3d</fix>
</trkpt>
<trkpt lat="33.8100005" lon="-118.3939342">
  <ele>-28.57</ele>
  <time>2026-09-01T01:14:03Z</time>
  <course>190.14</course>
  <speed>0.99</speed>
  <fix>3d</fix>
</trkpt>
<trkpt lat="33.8099988" lon="-118.3939347">
  <ele>-29.55</ele>
  <time>2026-09-01T01:14:03Z</time>
  <course>191.15</course>
  <speed>0.966902270139025</speed>
  <fix>3d</fix>
</trkpt>
<trkpt lat="33.8100005" lon="-118.3939342">
  <ele>-28.57</ele>
  <time>2026-09-01T01:14:03Z</time>
  <course>190.14</course>
  <speed>0.99</speed>
  <fix>3d</fix>
</trkpt>
<trkpt lat="33.8099979" lon="-118.3939349">
  <ele>-29.634</ele>
  <time>2026-09-01T01:14:03Z</time>
  <course>191.14</course>
  <speed>0.9767292357659824</speed>
  <fix>3d</fix>
</trkpt>
<trkpt lat="33.8099988" lon="-118.3939345">
  <ele>-28.73</ele>
  <time>2026-09-01T01:14:03Z</time>
  <course>190.12</course>
  <speed>0.99</speed>
  <fix>3d</fix>
</trkpt>
<trkpt lat="33.809997" lon="-118.393935">
  <ele>-29.719</ele>
  <time>2026-09-01T01:14:03Z</time>
  <course>191.13</course>
  <speed>0.9767292357659824</speed>
  <fix>3d</fix>
</trkpt>
<trkpt lat="33.8099988" lon="-118.3939345">
  <ele>-28.73</ele>
  <time>2026-09-01T01:14:03Z</time>
  <course>190.12</course>
  <speed>0.99</speed>
  <fix>3d</fix>
</trkpt>
<trkpt lat="33.8099961" lon="-118.3939352">
  <ele>-29.803</ele>
  <time>2026-09-01T01:14:03Z</time>
  <course>191.14</course>
  <speed>0.9767292357659824</speed>
  <fix>3d</fix>
</trkpt>
<trkpt lat="33.8099971" lon="-118.3939349">
  <ele>-28.9</ele>
  <time>2026-09-01T01:14:03Z</time>
  <course>190.13</course>
  <speed>0.99</speed>
  <fix>3d</fix>
</trkpt>
<trkpt lat="33.8099952" lon="-118.3939354">
  <ele>-29.887</ele>
  <time>2026-09-01T01:14:03Z</time>
  <course>191.16</course>
  <speed>0.9767292357659824</speed>
  <fix>3d</fix>
</trkpt>
<trkpt lat="33.8099971" lon="-118.3939349">
  <ele>-28.9</ele>
  <time>2026-09-01T01:14:03Z</time>
  <course>190.13</course>
  <speed>0.99</speed>
  <fix>3d</fix>
</trkpt>
<trkpt lat="33.8099943" lon="-118.3939356">
  <ele>-29.968</ele>
  <time>2026-09-01T01:14:03Z</time>
  <course>191.18</course>
  <speed>0.9767292357659824</speed>
  <fix>3d</fix>
</trkpt>
<trkpt lat="33.8099953" lon="-118.3939353">
  <ele>-29.06</ele>
  <time>2026-09-01T01:14:03Z</time>
  <course>190.15</course>
  <speed>1.0</speed>
  <fix>3d</fix>
</trkpt>
<trkpt lat="33.8099934" lon="-118.3939358">
  <ele>-30.05</ele>
  <time>2026-09-01T01:14:03Z</time>
  <course>191.2</course>
  <speed>0.9767292357659824</speed>
  <fix>3d</fix>
</trkpt>
<trkpt lat="33.8099953" lon="-118.3939353">
  <ele>-29.06</ele>
  <time>2026-09-01T01:14:03Z</time>
  <course>190.15</course>
  <speed>1.0</speed>
  <fix>3d</fix>
</trkpt>
<trkpt lat="33.8099925" lon="-118.393936">
  <ele>-30.132</ele>
  <time>2026-09-01T01:14:03Z</time>
  <course>191.2</course>
  <speed>0.9767292357659824</speed>
  <fix>3d</fix>
</trkpt>
<trkpt lat="33.8099935" lon="-118.3939356">
  <ele>-29.22</ele>
  <time>2026-09-01T01:14:03Z</time>
  <course>190.16</course>
  <speed>1.0</speed>
  <fix>3d</fix>
</trkpt>
<trkpt lat="33.8099916" lon="-118.3939362">
  <ele>-30.215</ele>
  <time>2026-09-01T01:14:03Z</time>
  <course>191.21</course>
  <speed>0.9767292357659824</speed>
  <fix>3d</fix>
</trkpt>
<trkpt lat="33.8099935" lon="-118.3939356">
  <ele>-29.22</ele>
  <time>2026-09-01T01:14:03Z</time>
  <course>190.16</course>
  <speed>1.0</speed>
  <fix>3d</fix>
</trkpt>
<trkpt lat="33.8099908" lon="-118.3939364">
  <ele>-30.297</ele>
  <time>2026-09-01T01:14:03Z</time>
  <course>191.23</course>
  <speed>0.9767292357659824</speed>
  <fix>3d</fix>
</trkpt>
<trkpt lat="33.8099917" lon="-118.3939361">
  <ele>-29.38</ele>
  <time>2026-09-01T01:14:03Z</time>
  <course>190.19</course>
  <speed>1.0</speed>
  <fix>3d</fix>
</trkpt>
<trkpt lat="33.8099899" lon="-118.3939366">
  <ele>-30.379</ele>
  <time>2026-09-01T01:14:03Z</time>
  <course>191.25</course>
  <speed>0.9767292357659824</speed>
  <fix>3d</fix>
</trkpt>
<trkpt lat="33.8099917" lon="-118.3939361">
  <ele>-29.38</ele>
  <time>2026-09-01T01:14:03Z</time>
  <course>190.19</course>
  <speed>1.0</speed>
  <fix>3d</fix>
</trkpt>
<trkpt lat="33.809989" lon="-118.3939368">
  <ele>-30.461</ele>
  <time>2026-09-01T01:14:03Z</time>
  <course>191.26</course>
  <speed>0.9767292357659824</speed>
  <fix>3d</fix>
</trkpt>
<trkpt lat="33.80999" lon="-118.3939365">
  <ele>-29.54</ele>
  <time>2026-09-01T01:14:03Z</time>
  <course>190.21</course>
  <speed>1.0</speed>
  <fix>3d</fix>
</trkpt>
<trkpt lat="33.8099881" lon="-118.393937">
  <ele>-30.541</ele>
  <time>2026-09-01T01:14:03Z</time>
  <course>191.25</course>
  <speed>0.9767292357659824</speed>
  <fix>3d</fix>
</trkpt>
<trkpt lat="33.80999" lon="-118.3939365">
  <ele>-29.54</ele>
  <time>2026-09-01T01:14:03Z</time>
  <course>190.21</course>
  <speed>1.0</speed>
  <fix>3d</fix>
</trkpt>
<trkpt lat="33.8099872" lon="-118.3939371">
  <ele>-30.621</ele>
  <time>2026-09-01T01:14:03Z</time>
  <course>191.23</course>
  <speed>0.966902270139025</speed>
  <fix>3d</fix>
</trkpt>
<trkpt lat="33.8099882" lon="-118.3939368">
  <ele>-29.7</ele>
  <time>2026-09-01T01:14:03Z</time>
  <course>190.16</course>
  <speed>0.99</speed>
  <fix>3d</fix>
</trkpt>
<trkpt lat="33.8099863" lon="-118.3939373">
  <ele>-30.702</ele>
  <time>2026-09-01T01:14:03Z</time>
  <course>191.21</course>
  <speed>0.966902270139025</speed>
  <fix>3d</fix>
</trkpt>
<trkpt lat="33.8099882" lon="-118.3939368">
  <ele>-29.7</ele>
  <time>2026-09-01T01:14:03Z</time>
  <course>190.16</course>
  <speed>0.99</speed>
  <fix>3d</fix>
</trkpt>
<trkpt lat="33.8099855" lon="-118.3939375">
  <ele>-30.784</ele>
  <time>2026-09-01T01:14:03Z</time>
  <course>191.2</course>
  <speed>0.966902270139025</speed>
  <fix>3d</fix>
</trkpt>
<trkpt lat="33.8099864" lon="-118.3939372">
  <ele>-29.86</ele>
  <time>2026-09-01T01:14:03Z</time>
  <course>190.13</course>
  <speed>0.99</speed>
  <fix>3d</fix>
</trkpt>
<trkpt lat="33.8099846" lon="-118.3939377">
  <ele>-30.866</ele>
  <time>2026-09-01T01:14:03Z</time>
  <course>191.2</course>
  <speed>0.966902270139025</speed>
  <fix>3d</fix>
</trkpt>
<trkpt lat="33.8099864" lon="-118.3939372">
  <ele>-29.86</ele>
  <time>2026-09-01T01:14:03Z</time>
  <course>190.13</course>
  <speed>0.99</speed>
  <fix>3d</fix>
</trkpt>
<trkpt lat="33.8099837" lon="-118.3939379">
  <ele>-30.949</ele>
  <time>2026-09-01T01:14:03Z</time>
  <course>191.2</course>
  <speed>0.966902270139025</speed>
  <fix>3d</fix>
</trkpt>
<trkpt lat="33.8099847" lon="-118.3939375">
  <ele>-30.02</ele>
  <time>2026-09-01T01:14:03Z</time>
  <course>190.14</course>
  <speed>0.99</speed>
  <fix>3d</fix>
</trkpt>
<trkpt lat="33.8099828" lon="-118.3939381">
  <ele>-31.032</ele>
  <time>2026-09-01T01:14:03Z</time>
  <course>191.22</course>
  <speed>0.966902270139025</speed>
  <fix>3d</fix>
</trkpt>
<trkpt lat="33.8099847" lon="-118.3939375">
  <ele>-30.02</ele>
  <time>2026-09-01T01:14:03Z</time>
  <course>190.14</course>
  <speed>0.99</speed>
  <fix>3d</fix>
</trkpt>
<trkpt lat="33.8099819" lon="-118.3939383">
  <ele>-31.116</ele>
  <time>2026-09-01T01:14:03Z</time>
  <course>191.23</course>
  <speed>0.966902270139025</speed>
  <fix>3d</fix>
</trkpt>
<trkpt lat="33.8099829" lon="-118.393938">
  <ele>-30.18</ele>
  <time>2026-09-01T01:14:03Z</time>
  <course>190.19</course>
  <speed>0.99</speed>
  <fix>3d</fix>
</trkpt>
<trkpt lat="33.8099811" lon="-118.3939385">
  <ele>-31.2</ele>
  <time>2026-09-01T01:14:03Z</time>
  <course>191.25</course>
  <speed>0.966902270139025</speed>
  <fix>3d</fix>
</trkpt>
<trkpt lat="33.8099829" lon="-118.393938">
  <ele>-30.18</ele>
  <time>2026-09-01T01:14:03Z</time>
  <course>190.19</course>
  <speed>0.99</speed>
  <fix>3d</fix>
</trkpt>
<trkpt lat="33.8099802" lon="-118.3939387">
  <ele>-31.285</ele>
  <time>2026-09-01T01:14:03Z</time>
  <course>191.25</course>
  <speed>0.966902270139025</speed>
  <fix>3d</fix>
</trkpt>
<trkpt lat="33.8099811" lon="-118.3939384">
  <ele>-30.35</ele>
  <time>2026-09-01T01:14:03Z</time>
  <course>190.21</course>
  <speed>0.99</speed>
  <fix>3d</fix>
</trkpt>
<trkpt lat="33.8099793" lon="-118.3939389">
  <ele>-31.369</ele>
  <time>2026-09-01T01:14:03Z</time>
  <course>191.25</course>
  <speed>0.9767292357659824</speed>
  <fix>3d</fix>
</trkpt>
<trkpt lat="33.8099811" lon="-118.3939384">
  <ele>-30.35</ele>
  <time>2026-09-01T01:14:03Z</time>
  <course>190.21</course>
  <speed>0.99</speed>
  <fix>3d</fix>
</trkpt>
<trkpt lat="33.8099784" lon="-118.3939391">
  <ele>-31.452</ele>
  <time>2026-09-01T01:14:03Z</time>
  <course>191.23</course>
  <speed>0.9767292357659824</speed>
  <fix>3d</fix>
</trkpt>
<trkpt lat="33.8099794" lon="-118.3939387">
  <ele>-30.52</ele>
  <time>2026-09-01T01:14:03Z</time>
  <course>190.17</course>
  <speed>0.99</speed>
  <fix>3d</fix>
</trkpt>
<trkpt lat="33.8099775" lon="-118.3939392">
  <ele>-31.536</ele>
  <time>2026-09-01T01:14:03Z</time>
  <course>191.21</course>
  <speed>0.9767292357659824</speed>
  <fix>3d</fix>
</trkpt>
<trkpt lat="33.8099794" lon="-118.3939387">
  <ele>-30.52</ele>
  <time>2026-09-01T01:14:03Z</time>
  <course>190.17</course>
  <speed>0.99</speed>
  <fix>3d</fix>
</trkpt>
<trkpt lat="33.8099766" lon="-118.3939394">
  <ele>-31.62</ele>
  <time>2026-09-01T01:14:03Z</time>
  <course>191.2</course>
  <speed>0.9767292357659824</speed>
  <fix>3d</fix>
</trkpt>
<trkpt lat="33.8099777" lon="-118.3939391">
  <ele>-30.68</ele>
  <time>2026-09-01T01:14:03Z</time>
  <course>190.15</course>
  <speed>0.99</speed>
  <fix>3d</fix>
</trkpt>
<trkpt lat="33.8099758" lon="-118.3939396">
  <ele>-31.704</ele>
  <time>2026-09-01T01:14:03Z</time>
  <course>191.2</course>
  <speed>0.9767292357659824</speed>
  <fix>3d</fix>
</trkpt>
<trkpt lat="33.8099777" lon="-118.3939391">
  <ele>-30.68</ele>
  <time>2026-09-01T01:14:03Z</time>
  <course>190.15</course>
  <speed>0.99</speed>
  <fix>3d</fix>
</trkpt>
<trkpt lat="33.8099749" lon="-118.3939398">
  <ele>-31.787</ele>
  <time>2026-09-01T01:14:03Z</time>
  <course>191.2</course>
  <speed>0.9767292357659824</speed>
  <fix>3d</fix>
</trkpt>
<trkpt lat="33.8099759" lon="-118.3939394">
  <ele>-30.85</ele>
  <time>2026-09-01T01:14:03Z</time>
  <course>190.16</course>
  <speed>1.0</speed>
  <fix>3d</fix>
</trkpt>
<trkpt lat="33.809974" lon="-118.39394">
  <ele>-31.871</ele>
  <time>2026-09-01T01:14:03Z</time>
  <course>191.2</course>
  <speed>0.9786214794290998</speed>
  <fix>3d</fix>
</trkpt>
<trkpt lat="33.8099759" lon="-118.3939394">
  <ele>-30.85</ele>
  <time>2026-09-01T01:14:03Z</time>
  <course>190.16</course>
  <speed>1.0</speed>
  <fix>3d</fix>
</trkpt>
<trkpt lat="33.8099731" lon="-118.3939402">
  <ele>-31.954</ele>
  <time>2026-09-01T01:14:03Z</time>
  <course>191.22</course>
  <speed>0.9786214794290998</speed>
  <fix>3d</fix>
</trkpt>
<trkpt lat="33.8099741" lon="-118.3939399">
  <ele>-31.01</ele>
  <time>2026-09-01T01:14:03Z</time>
  <course>190.19</course>
  <speed>1.0</speed>
  <fix>3d</fix>
</trkpt>
<trkpt lat="33.8099722" lon="-118.3939404">
  <ele>-32.037</ele>
  <time>2026-09-01T01:14:03Z</time>
  <course>191.23</course>
  <speed>0.9786214794290998</speed>
  <fix>3d</fix>
</trkpt>
<trkpt lat="33.8099741" lon="-118.3939399">
  <ele>-31.01</ele>
  <time>2026-09-01T01:14:03Z</time>
  <course>190.19</course>
  <speed>1.0</speed>
  <fix>3d</fix>
</trkpt>
<trkpt lat="33.8099713" lon="-118.3939406">
  <ele>-32.119</ele>
  <time>2026-09-01T01:14:03Z</time>
  <course>191.24</course>
  <speed>0.9767292357659824</speed>
  <fix>3d</fix>
</trkpt>
<trkpt lat="33.8099723" lon="-118.3939403">
  <ele>-31.17</ele>
  <time>2026-09-01T01:14:03Z</time>
  <course>190.21</course>
  <speed>1.0</speed>
  <fix>3d</fix>
</trkpt>
<trkpt lat="33.8099704" lon="-118.3939408">
  <ele>-32.201</ele>
  <time>2026-09-01T01:14:03Z</time>
  <course>191.23</course>
  <speed>0.9767292357659824</speed>
  <fix>3d</fix>
</trkpt>
<trkpt lat="33.8099723" lon="-118.3939403">
  <ele>-31.17</ele>
  <time>2026-09-01T01:14:03Z</time>
  <course>190.21</course>
  <speed>1.0</speed>
  <fix>3d</fix>
</trkpt>
<trkpt lat="33.8099695" lon="-118.393941">
  <ele>-32.283</ele>
  <time>2026-09-01T01:14:03Z</time>
  <course>191.2</course>
  <speed>0.9767292357659824</speed>
  <fix>3d</fix>
</trkpt>
<trkpt lat="33.8099706" lon="-118.3939406">
  <ele>-31.33</ele>
  <time>2026-09-01T01:14:03Z</time>
  <course>190.17</course>
  <speed>1.0</speed>
  <fix>3d</fix>
</trkpt>
<trkpt lat="33.8099687" lon="-118.3939412">
  <ele>-32.365</ele>
  <time>2026-09-01T01:14:03Z</time>
  <course>191.19</course>
  <speed>0.9767292357659824</speed>
  <fix>3d</fix>
</trkpt>
<trkpt lat="33.8099706" lon="-118.3939406">
  <ele>-31.33</ele>
  <time>2026-09-01T01:14:03Z</time>
  <course>190.17</course>
  <speed>1.0</speed>
  <fix>3d</fix>
</trkpt>
<trkpt lat="33.8099678" lon="-118.3939413">
  <ele>-32.448</ele>
  <time>2026-09-01T01:14:03Z</time>
  <course>191.18</course>
  <speed>0.9767292357659824</speed>
  <fix>3d</fix>
</trkpt>
<trkpt lat="33.8099687" lon="-118.393941">
  <ele>-31.49</ele>
  <time>2026-09-01T01:14:03Z</time>
  <course>190.15</course>
  <speed>1.0</speed>
  <fix>3d</fix>
</trkpt>
<trkpt lat="33.8099669" lon="-118.3939415">
  <ele>-32.531</ele>
  <time>2026-09-01T01:14:03Z</time>
  <course>191.18</course>
  <speed>0.9767292357659824</speed>
  <fix>3d</fix>
</trkpt>
<trkpt lat="33.8099687" lon="-118.393941">
  <ele>-31.49</ele>
  <time>2026-09-01T01:14:03Z</time>
  <course>190.15</course>
  <speed>1.0</speed>
  <fix>3d</fix>
</trkpt>
<trkpt lat="33.809966" lon="-118.3939417">
  <ele>-32.614</ele>
  <time>2026-09-01T01:14:03Z</time>
  <course>191.19</course>
  <speed>0.9767292357659824</speed>
  <fix>3d</fix>
</trkpt>
<trkpt lat="33.809967" lon="-118.3939414">
  <ele>-31.65</ele>
  <time>2026-09-01T01:14:03Z</time>
  <course>190.17</course>
  <speed>1.0</speed>
  <fix>3d</fix>
</trkpt>
<trkpt lat="33.8099651" lon="-118.3939419">
  <ele>-32.696</ele>
  <time>2026-09-01T01:14:03Z</time>
  <course>191.2</course>
  <speed>0.9767292357659824</speed>
  <fix>3d</fix>
</trkpt>
<trkpt lat="33.809967" lon="-118.3939414">
  <ele>-31.65</ele>
  <time>2026-09-01T01:14:03Z</time>
  <course>190.17</course>
  <speed>1.0</speed>
  <fix>3d</fix>
</trkpt>
<trkpt lat="33.8099642" lon="-118.3939421">
  <ele>-32.779</ele>
  <time>2026-09-01T01:14:03Z</time>
  <course>191.2</course>
  <speed>0.9767292357659824</speed>
  <fix>3d</fix>
</trkpt>
<trkpt lat="33.8099652" lon="-118.3939418">
  <ele>-31.81</ele>
  <time>2026-09-01T01:14:03Z</time>
  <course>190.19</course>
  <speed>1.0</speed>
  <fix>3d</fix>
</trkpt>
<trkpt lat="33.8099633" lon="-118.3939423">
  <ele>-32.862</ele>
  <time>2026-09-01T01:14:03Z</time>
  <course>191.21</course>
  <speed>0.9767292357659824</speed>
  <fix>3d</fix>
</trkpt>
<trkpt lat="33.8099652" lon="-118.3939418">
  <ele>-31.81</ele>
  <time>2026-09-01T01:14:03Z</time>
  <course>190.19</course>
  <speed>1.0</speed>
  <fix>3d</fix>
</trkpt>
<trkpt lat="33.8099624" lon="-118.3939425">
  <ele>-32.945</ele>
  <time>2026-09-01T01:14:03Z</time>
  <course>191.21</course>
  <speed>0.9767292357659824</speed>
  <fix>3d</fix>
</trkpt>
<trkpt lat="33.8099634" lon="-118.3939422">
  <ele>-31.97</ele>
  <time>2026-09-01T01:14:03Z</time>
  <course>190.18</course>
  <speed>1.0</speed>
  <fix>3d</fix>
</trkpt>
<trkpt lat="33.8099616" lon="-118.3939427">
  <ele>-33.028</ele>
  <time>2026-09-01T01:14:03Z</time>
  <course>191.2</course>
  <speed>0.9767292357659824</speed>
  <fix>3d</fix>
</trkpt>
<trkpt lat="33.8099634" lon="-118.3939422">
  <ele>-31.97</ele>
  <time>2026-09-01T01:14:03Z</time>
  <course>190.18</course>
  <speed>1.0</speed>
  <fix>3d</fix>
</trkpt>
<trkpt lat="33.8099607" lon="-118.3939429">
  <ele>-33.111</ele>
  <time>2026-09-01T01:14:03Z</time>
  <course>191.18</course>
  <speed>0.9767292357659824</speed>
  <fix>3d</fix>
</trkpt>
<trkpt lat="33.8099617" lon="-118.3939426">
  <ele>-32.14</ele>
  <time>2026-09-01T01:14:03Z</time>
  <course>190.16</course>
  <speed>0.99</speed>
  <fix>3d</fix>
</trkpt>
<trkpt lat="33.8099598" lon="-118.3939431">
  <ele>-33.193</ele>
  <time>2026-09-01T01:14:03Z</time>
  <course>191.17</course>
  <speed>0.9767292357659824</speed>
  <fix>3d</fix>
</trkpt>
<trkpt lat="33.8099617" lon="-118.3939426">
  <ele>-32.14</ele>
  <time>2026-09-01T01:14:03Z</time>
  <course>190.16</course>
  <speed>0.99</speed>
  <fix>3d</fix>
</trkpt>
<trkpt lat="33.8099589" lon="-118.3939433">
  <ele>-33.275</ele>
  <time>2026-09-01T01:14:03Z</time>
  <course>191.15</course>
  <speed>0.9767292357659824</speed>
  <fix>3d</fix>
</trkpt>
<trkpt lat="33.8099599" lon="-118.3939429">
  <ele>-32.3</ele>
  <time>2026-09-01T01:14:03Z</time>
  <course>190.13</course>
  <speed>0.99</speed>
  <fix>3d</fix>
</trkpt>
<trkpt lat="33.809958" lon="-118.3939435">
  <ele>-33.357</ele>
  <time>2026-09-01T01:14:03Z</time>
  <course>191.13</course>
  <speed>0.9767292357659824</speed>
  <fix>3d</fix>
</trkpt>
<trkpt lat="33.8099599" lon="-118.3939429">
  <ele>-32.3</ele>
  <time>2026-09-01T01:14:03Z</time>
  <course>190.13</course>
  <speed>0.99</speed>
  <fix>3d</fix>
</trkpt>
<trkpt lat="33.8099571" lon="-118.3939436">
  <ele>-33.439</ele>
  <time>2026-09-01T01:14:03Z</time>
  <course>191.13</course>
  <speed>0.9767292357659824</speed>
  <fix>3d</fix>
</trkpt>
<trkpt lat="33.8099581" lon="-118.3939433">
  <ele>-32.46</ele>
  <time>2026-09-01T01:14:03Z</time>
  <course>190.11</course>
  <speed>0.99</speed>
  <fix>3d</fix>
</trkpt>
<trkpt lat="33.8099562" lon="-118.3939438">
  <ele>-33.522</ele>
  <time>2026-09-01T01:14:03Z</time>
  <course>191.14</course>
  <speed>0.9767292357659824</speed>
  <fix>3d</fix>
</trkpt>
<trkpt lat="33.8099581" lon="-118.3939433">
  <ele>-32.46</ele>
  <time>2026-09-01T01:14:03Z</time>
  <course>190.11</course>
  <speed>0.99</speed>
  <fix>3d</fix>
</trkpt>
<trkpt lat="33.8099554" lon="-118.393944">
  <ele>-33.605</ele>
  <time>2026-09-01T01:14:03Z</time>
  <course>191.15</course>
  <speed>0.9767292357659824</speed>
  <fix>3d</fix>
</trkpt>
<trkpt lat="33.8099564" lon="-118.3939437">
  <ele>-32.62</ele>
  <time>2026-09-01T01:14:03Z</time>
  <course>190.14</course>
  <speed>0.99</speed>
  <fix>3d</fix>
</trkpt>
<trkpt lat="33.8099545" lon="-118.3939442">
  <ele>-33.688</ele>
  <time>2026-09-01T01:14:03Z</time>
  <course>191.16</course>
  <speed>0.9767292357659824</speed>
  <fix>3d</fix>
</trkpt>
<trkpt lat="33.8099564" lon="-118.3939437">
  <ele>-32.62</ele>
  <time>2026-09-01T01:14:03Z</time>
  <course>190.14</course>
  <speed>0.99</speed>
  <fix>3d</fix>
</trkpt>
<trkpt lat="33.8099536" lon="-118.3939444">
  <ele>-33.771</ele>
  <time>2026-09-01T01:14:03Z</time>
  <course>191.17</course>
  <speed>0.9767292357659824</speed>
  <fix>3d</fix>
</trkpt>
<trkpt lat="33.8099546" lon="-118.3939441">
  <ele>-32.78</ele>
  <time>2026-09-01T01:14:03Z</time>
  <course>190.17</course>
  <speed>0.99</speed>
  <fix>3d</fix>
</trkpt>
<trkpt lat="33.8099527" lon="-118.3939446">
  <ele>-33.855</ele>
  <time>2026-09-01T01:14:03Z</time>
  <course>191.17</course>
  <speed>0.9767292357659824</speed>
  <fix>3d</fix>
</trkpt>
<trkpt lat="33.8099546" lon="-118.3939441">
  <ele>-32.78</ele>
  <time>2026-09-01T01:14:03Z</time>
  <course>190.17</course>
  <speed>0.99</speed>
  <fix>3d</fix>
</trkpt>
<trkpt lat="33.8099518" lon="-118.3939448">
  <ele>-33.938</ele>
  <time>2026-09-01T01:14:03Z</time>
  <course>191.16</course>
  <speed>0.9767292357659824</speed>
  <fix>3d</fix>
</trkpt>
<trkpt lat="33.8099529" lon="-118.3939445">
  <ele>-32.94</ele>
  <time>2026-09-01T01:14:03Z</time>
  <course>190.15</course>
  <speed>0.99</speed>
  <fix>3d</fix>
</trkpt>
<trkpt lat="33.8099509" lon="-118.393945">
  <ele>-34.022</ele>
  <time>2026-09-01T01:14:03Z</time>
  <course>191.13</course>
  <speed>0.9767292357659824</speed>
  <fix>3d</fix>
</trkpt>
<trkpt lat="33.8099529" lon="-118.3939445">
  <ele>-32.94</ele>
  <time>2026-09-01T01:14:03Z</time>
  <course>190.15</course>
  <speed>0.99</speed>
  <fix>3d</fix>
</trkpt>
<trkpt lat="33.8099501" lon="-118.3939452">
  <ele>-34.105</ele>
  <time>2026-09-01T01:14:03Z</time>
  <course>191.11</course>
  <speed>0.9767292357659824</speed>
  <fix>3d</fix>
</trkpt>
<trkpt lat="33.809951" lon="-118.3939448">
  <ele>-33.1</ele>
  <time>2026-09-01T01:14:03Z</time>
  <course>190.11</course>
  <speed>1.0</speed>
  <fix>3d</fix>
</trkpt>
<trkpt lat="33.8099492" lon="-118.3939454">
  <ele>-34.187</ele>
  <time>2026-09-01T01:14:03Z</time>
  <course>191.11</course>
  <speed>0.9767292357659824</speed>
  <fix>3d</fix>
</trkpt>
<trkpt lat="33.809951" lon="-118.3939448">
  <ele>-33.1</ele>
  <time>2026-09-01T01:14:03Z</time>
  <course>190.11</course>
  <speed>1.0</speed>
  <fix>3d</fix>
</trkpt>
<trkpt lat="33.8099483" lon="-118.3939456">
  <ele>-34.27</ele>
  <time>2026-09-01T01:14:03Z</time>
  <course>191.11</course>
  <speed>0.9767292357659824</speed>
  <fix>3d</fix>
</trkpt>
<trkpt lat="33.8099493" lon="-118.3939452">
  <ele>-33.26</ele>
  <time>2026-09-01T01:14:03Z</time>
  <course>190.11</course>
  <speed>1.0</speed>
  <fix>3d</fix>
</trkpt>
<trkpt lat="33.8099474" lon="-118.3939457">
  <ele>-34.352</ele>
  <time>2026-09-01T01:14:03Z</time>
  <course>191.13</course>
  <speed>0.9767292357659824</speed>
  <fix>3d</fix>
</trkpt>
<trkpt lat="33.8099493" lon="-118.3939452">
  <ele>-33.26</ele>
  <time>2026-09-01T01:14:03Z</time>
  <course>190.11</course>
  <speed>1.0</speed>
  <fix>3d</fix>
</trkpt>
<trkpt lat="33.8099465" lon="-118.3939459">
  <ele>-34.435</ele>
  <time>2026-09-01T01:14:03Z</time>
  <course>191.16</course>
  <speed>0.9767292357659824</speed>
  <fix>3d</fix>
</trkpt>
<trkpt lat="33.8099476" lon="-118.3939456">
  <ele>-33.42</ele>
  <time>2026-09-01T01:14:03Z</time>
  <course>190.15</course>
  <speed>1.0</speed>
  <fix>3d</fix>
</trkpt>
<trkpt lat="33.8099456" lon="-118.3939461">
  <ele>-34.517</ele>
  <time>2026-09-01T01:14:03Z</time>
  <course>191.18</course>
  <speed>0.9767292357659824</speed>
  <fix>3d</fix>
</trkpt>
<trkpt lat="33.8099476" lon="-118.3939456">
  <ele>-33.42</ele>
  <time>2026-09-01T01:14:03Z</time>
  <course>190.15</course>
  <speed>1.0</speed>
  <fix>3d</fix>
</trkpt>
<trkpt lat="33.8099447" lon="-118.3939463">
  <ele>-34.599</ele>
  <time>2026-09-01T01:14:03Z</time>
  <course>191.17</course>
  <speed>0.9767292357659824</speed>
  <fix>3d</fix>
</trkpt>
<trkpt lat="33.8099457" lon="-118.393946">
  <ele>-33.58</ele>
  <time>2026-09-01T01:14:03Z</time>
  <course>190.17</course>
  <speed>1.0</speed>
  <fix>3d</fix>
</trkpt>
<trkpt lat="33.8099439" lon="-118.3939465">
  <ele>-34.681</ele>
  <time>2026-09-01T01:14:03Z</time>
  <course>191.17</course>
  <speed>0.9767292357659824</speed>
  <fix>3d</fix>
</trkpt>
<trkpt lat="33.8099457" lon="-118.393946">
  <ele>-33.58</ele>
  <time>2026-09-01T01:14:03Z</time>
  <course>190.17</course>
  <speed>1.0</speed>
  <fix>3d</fix>
</trkpt>
<trkpt lat="33.809943" lon="-118.3939467">
  <ele>-34.763</ele>
  <time>2026-09-01T01:14:03Z</time>
  <course>191.16</course>
  <speed>0.9767292357659824</speed>
  <fix>3d</fix>
</trkpt>
<trkpt lat="33.809944" lon="-118.3939464">
  <ele>-33.73</ele>
  <time>2026-09-01T01:14:03Z</time>
  <course>190.16</course>
  <speed>1.0</speed>
  <fix>3d</fix>
</trkpt>
<trkpt lat="33.8099421" lon="-118.3939469">
  <ele>-34.846</ele>
  <time>2026-09-01T01:14:03Z</time>
  <course>191.16</course>
  <speed>0.9767292357659824</speed>
  <fix>3d</fix>
</trkpt>
<trkpt lat="33.809944" lon="-118.3939464">
  <ele>-33.73</ele>
  <time>2026-09-01T01:14:03Z</time>
  <course>190.16</course>
  <speed>1.0</speed>
  <fix>3d</fix>
</trkpt>
<trkpt lat="33.8099412" lon="-118.3939471">
  <ele>-34.929</ele>
  <time>2026-09-01T01:14:03Z</time>
  <course>191.15</course>
  <speed>0.9767292357659824</speed>
  <fix>3d</fix>
</trkpt>
<trkpt lat="33.8099423" lon="-118.3939468">
  <ele>-33.9</ele>
  <time>2026-09-01T01:14:03Z</time>
  <course>190.14</course>
  <speed>0.99</speed>
  <fix>3d</fix>
</trkpt>
<trkpt lat="33.8099403" lon="-118.3939473">
  <ele>-35.011</ele>
  <time>2026-09-01T01:14:03Z</time>
  <course>191.14</course>
  <speed>0.9767292357659824</speed>
  <fix>3d</fix>
</trkpt>
<trkpt lat="33.8099423" lon="-118.3939468">
  <ele>-33.9</ele>
  <time>2026-09-01T01:14:03Z</time>
  <course>190.14</course>
  <speed>0.99</speed>
  <fix>3d</fix>
</trkpt>
<trkpt lat="33.8099394" lon="-118.3939475">
  <ele>-35.092</ele>
  <time>2026-09-01T01:14:03Z</time>
  <course>191.11</course>
  <speed>0.9767292357659824</speed>
  <fix>3d</fix>
</trkpt>
<trkpt lat="33.8099404" lon="-118.3939471">
  <ele>-34.05</ele>
  <time>2026-09-01T01:14:03Z</time>
  <course>190.1</course>
  <speed>0.99</speed>
  <fix>3d</fix>
</trkpt>
<trkpt lat="33.8099386" lon="-118.3939477">
  <ele>-35.174</ele>
  <time>2026-09-01T01:14:03Z</time>
  <course>191.09</course>
  <speed>0.9767292357659824</speed>
  <fix>3d</fix>
</trkpt>
<trkpt lat="33.8099404" lon="-118.3939471">
  <ele>-34.05</ele>
  <time>2026-09-01T01:14:03Z</time>
  <course>190.1</course>
  <speed>0.99</speed>
  <fix>3d</fix>
</trkpt>
<trkpt lat="33.8099377" lon="-118.3939479">
  <ele>-35.257</ele>
  <time>2026-09-01T01:14:03Z</time>
  <course>191.09</course>
  <speed>0.9767292357659824</speed>
  <fix>3d</fix>
</trkpt>
<trkpt lat="33.8099387" lon="-118.3939475">
  <ele>-34.22</ele>
  <time>2026-09-01T01:14:03Z</time>
  <course>190.09</course>
  <speed>0.99</speed>
  <fix>3d</fix>
</trkpt>
<trkpt lat="33.8099368" lon="-118.393948">
  <ele>-35.339</ele>
  <time>2026-09-01T01:14:03Z</time>
  <course>191.11</course>
  <speed>0.966902270139025</speed>
  <fix>3d</fix>
</trkpt>
<trkpt lat="33.8099387" lon="-118.3939475">
  <ele>-34.22</ele>
  <time>2026-09-01T01:14:03Z</time>
  <course>190.09</course>
  <speed>0.99</speed>
  <fix>3d</fix>
</trkpt>
<trkpt lat="33.8099359" lon="-118.3939482">
  <ele>-35.422</ele>
  <time>2026-09-01T01:14:03Z</time>
  <course>191.12</course>
  <speed>0.966902270139025</speed>
  <fix>3d</fix>
</trkpt>
<trkpt lat="33.8099369" lon="-118.3939479">
  <ele>-34.37</ele>
  <time>2026-09-01T01:14:03Z</time>
  <course>190.12</course>
  <speed>0.99</speed>
  <fix>3d</fix>
</trkpt>
<trkpt lat="33.809935" lon="-118.3939484">
  <ele>-35.505</ele>
  <time>2026-09-01T01:14:03Z</time>
  <course>191.13</course>
  <speed>0.966902270139025</speed>
  <fix>3d</fix>
</trkpt>
<trkpt lat="33.8099369" lon="-118.3939479">
  <ele>-34.37</ele>
  <time>2026-09-01T01:14:03Z</time>
  <course>190.12</course>
  <speed>0.99</speed>
  <fix>3d</fix>
</trkpt>
<trkpt lat="33.8099341" lon="-118.3939486">
  <ele>-35.589</ele>
  <time>2026-09-01T01:14:03Z</time>
  <course>191.14</course>
  <speed>0.966902270139025</speed>
  <fix>3d</fix>
</trkpt>
<trkpt lat="33.8099352" lon="-118.3939483">
  <ele>-34.54</ele>
  <time>2026-09-01T01:14:03Z</time>
  <course>190.13</course>
  <speed>0.99</speed>
  <fix>3d</fix>
</trkpt>
<trkpt lat="33.8099333" lon="-118.3939488">
  <ele>-35.671</ele>
  <time>2026-09-01T01:14:03Z</time>
  <course>191.14</course>
  <speed>0.966902270139025</speed>
  <fix>3d</fix>
</trkpt>
<trkpt lat="33.8099352" lon="-118.3939483">
  <ele>-34.54</ele>
  <time>2026-09-01T01:14:03Z</time>
  <course>190.13</course>
  <speed>0.99</speed>
  <fix>3d</fix>
</trkpt>
<trkpt lat="33.8099324" lon="-118.393949">
  <ele>-35.754</ele>
  <time>2026-09-01T01:14:03Z</time>
  <course>191.14</course>
  <speed>0.9767292357659824</speed>
  <fix>3d</fix>
</trkpt>
<trkpt lat="33.8099334" lon="-118.3939486">
  <ele>-34.7</ele>
  <time>2026-09-01T01:14:03Z</time>
  <course>190.11</course>
  <speed>0.99</speed>
  <fix>3d</fix>
</trkpt>
<trkpt lat="33.8099315" lon="-118.3939492">
  <ele>-35.837</ele>
  <time>2026-09-01T01:14:03Z</time>
  <course>191.14</course>
  <speed>0.9767292357659824</speed>
  <fix>3d</fix>
</trkpt>
<trkpt lat="33.8099334" lon="-118.3939486">
  <ele>-34.7</ele>
  <time>2026-09-01T01:14:03Z</time>
  <course>190.11</course>
  <speed>0.99</speed>
  <fix>3d</fix>
</trkpt>
<trkpt lat="33.8099306" lon="-118.3939494">
  <ele>-35.921</ele>
  <time>2026-09-01T01:14:03Z</time>
  <course>191.16</course>
  <speed>0.9767292357659824</speed>
  <fix>3d</fix>
</trkpt>
<trkpt lat="33.8099316" lon="-118.393949">
  <ele>-34.87</ele>
  <time>2026-09-01T01:14:03Z</time>
  <course>190.11</course>
  <speed>0.99</speed>
  <fix>3d</fix>
</trkpt>
<trkpt lat="33.8099297" lon="-118.3939496">
  <ele>-36.005</ele>
  <time>2026-09-01T01:14:03Z</time>
  <course>191.18</course>
  <speed>0.9767292357659824</speed>
  <fix>3d</fix>
</trkpt>
<trkpt lat="33.8099316" lon="-118.393949">
  <ele>-34.87</ele>
  <time>2026-09-01T01:14:03Z</time>
  <course>190.11</course>
  <speed>0.99</speed>
  <fix>3d</fix>
</trkpt>
<trkpt lat="33.8099288" lon="-118.3939498">
  <ele>-36.088</ele>
  <time>2026-09-01T01:14:03Z</time>
  <course>191.19</course>
  <speed>0.9767292357659824</speed>
  <fix>3d</fix>
</trkpt>
<trkpt lat="33.8099299" lon="-118.3939494">
  <ele>-35.03</ele>
  <time>2026-09-01T01:14:03Z</time>
  <course>190.16</course>
  <speed>1.0</speed>
  <fix>3d</fix>
</trkpt>
<trkpt lat="33.809928" lon="-118.3939499">
  <ele>-36.17</ele>
  <time>2026-09-01T01:14:03Z</time>
  <course>191.21</course>
  <speed>0.9786214794290998</speed>
  <fix>3d</fix>
</trkpt>
<trkpt lat="33.8099299" lon="-118.3939494">
  <ele>-35.03</ele>
  <time>2026-09-01T01:14:03Z</time>
  <course>190.16</course>
  <speed>1.0</speed>
  <fix>3d</fix>
</trkpt>
<trkpt lat="33.8099271" lon="-118.3939501">
  <ele>-36.251</ele>
  <time>2026-09-01T01:14:03Z</time>
  <course>191.23</course>
  <speed>0.9767292357659824</speed>
  <fix>3d</fix>
</trkpt>
<trkpt lat="33.809928" lon="-118.3939498">
  <ele>-35.19</ele>
  <time>2026-09-01T01:14:03Z</time>
  <course>190.18</course>
  <speed>1.0</speed>
  <fix>3d</fix>
</trkpt>
<trkpt lat="33.8099262" lon="-118.3939503">
  <ele>-36.334</ele>
  <time>2026-09-01T01:14:03Z</time>
  <course>191.24</course>
  <speed>0.966902270139025</speed>
  <fix>3d</fix>
</trkpt>
<trkpt lat="33.809928" lon="-118.3939498">
  <ele>-35.19</ele>
  <time>2026-09-01T01:14:03Z</time>
  <course>190.18</course>
  <speed>1.0</speed>
  <fix>3d</fix>
</trkpt>
<trkpt lat="33.8099253" lon="-118.3939505">
  <ele>-36.416</ele>
  <time>2026-09-01T01:14:04Z</time>
  <course>191.24</course>
  <speed>0.966902270139025</speed>
  <fix>3d</fix>
</trkpt>
<trkpt lat="33.8099263" lon="-118.3939502">
  <ele>-35.35</ele>
  <time>2026-09-01T01:14:04Z</time>
  <course>190.19</course>
  <speed>0.99</speed>
  <fix>3d</fix>
</trkpt>
<trkpt lat="33.8099244" lon="-118.3939507">
  <ele>-36.498</ele>
  <time>2026-09-01T01:14:04Z</time>
  <course>191.24</course>
  <speed>0.966902270139025</speed>
  <fix>3d</fix>
</trkpt>
<trkpt lat="33.8099263" lon="-118.3939502">
  <ele>-35.35</ele>
  <time>2026-09-01T01:14:04Z</time>
  <course>190.19</course>
  <speed>0.99</speed>
  <fix>3d</fix>
</trkpt>
<trkpt lat="33.8099235" lon="-118.3939509">
  <ele>-36.58</ele>
  <time>2026-09-01T01:14:04Z</time>
  <course>191.24</course>
  <speed>0.966902270139025</speed>
  <fix>3d</fix>
</trkpt>
<trkpt lat="33.8099246" lon="-118.3939506">
  <ele>-35.51</ele>
  <time>2026-09-01T01:14:04Z</time>
  <course>190.18</course>
  <speed>0.99</speed>
  <fix>3d</fix>
</trkpt>
<trkpt lat="33.8099226" lon="-118.3939511">
  <ele>-36.663</ele>
  <time>2026-09-01T01:14:04Z</time>
  <course>191.22</course>
  <speed>0.966902270139025</speed>
  <fix>3d</fix>
</trkpt>
<trkpt lat="33.8099246" lon="-118.3939506">
  <ele>-35.51</ele>
  <time>2026-09-01T01:14:04Z</time>
  <course>190.18</course>
  <speed>0.99</speed>
  <fix>3d</fix>
</trkpt>
<trkpt lat="33.8099218" lon="-118.3939513">
  <ele>-36.745</ele>
  <time>2026-09-01T01:14:04Z</time>
  <course>191.21</course>
  <speed>0.966902270139025</speed>
  <fix>3d</fix>
</trkpt>
<trkpt lat="33.8099227" lon="-118.3939509">
  <ele>-35.68</ele>
  <time>2026-09-01T01:14:04Z</time>
  <course>190.13</course>
  <speed>0.99</speed>
  <fix>3d</fix>
</trkpt>
<trkpt lat="33.8099209" lon="-118.3939515">
  <ele>-36.827</ele>
  <time>2026-09-01T01:14:04Z</time>
  <course>191.2</course>
  <speed>0.966902270139025</speed>
  <fix>3d</fix>
</trkpt>
<trkpt lat="33.8099227" lon="-118.3939509">
  <ele>-35.68</ele>
  <time>2026-09-01T01:14:04Z</time>
  <course>190.13</course>
  <speed>0.99</speed>
  <fix>3d</fix>
</trkpt>
<trkpt lat="33.80992" lon="-118.3939517">
  <ele>-36.911</ele>
  <time>2026-09-01T01:14:04Z</time>
  <course>191.19</course>
  <speed>0.966902270139025</speed>
  <fix>3d</fix>
</trkpt>
<trkpt lat="33.809921" lon="-118.3939513">
  <ele>-35.84</ele>
  <time>2026-09-01T01:14:04Z</time>
  <course>190.12</course>
  <speed>0.99</speed>
  <fix>3d</fix>
</trkpt>
<trkpt lat="33.8099191" lon="-118.3939519">
  <ele>-36.997</ele>
  <time>2026-09-01T01:14:04Z</time>
  <course>191.21</course>
  <speed>0.966902270139025</speed>
  <fix>3d</fix>
</trkpt>
<trkpt lat="33.809921" lon="-118.3939513">
  <ele>-35.84</ele>
  <time>2026-09-01T01:14:04Z</time>
  <course>190.12</course>
  <speed>0.99</speed>
  <fix>3d</fix>
</trkpt>
<trkpt lat="33.8099182" lon="-118.393952">
  <ele>-37.084</ele>
  <time>2026-09-01T01:14:04Z</time>
  <course>191.22</course>
  <speed>0.9767292357659824</speed>
  <fix>3d</fix>
</trkpt>
<trkpt lat="33.8099193" lon="-118.3939517">
  <ele>-36.01</ele>
  <time>2026-09-01T01:14:04Z</time>
  <course>190.17</course>
  <speed>0.99</speed>
  <fix>3d</fix>
</trkpt>
<trkpt lat="33.8099173" lon="-118.3939522">
  <ele>-37.169</ele>
  <time>2026-09-01T01:14:04Z</time>
  <course>191.24</course>
  <speed>0.9786214794290998</speed>
  <fix>3d</fix>
</trkpt>
<trkpt lat="33.8099193" lon="-118.3939517">
  <ele>-36.01</ele>
  <time>2026-09-01T01:14:04Z</time>
  <course>190.17</course>
  <speed>0.99</speed>
  <fix>3d</fix>
</trkpt>
<trkpt lat="33.8099165" lon="-118.3939524">
  <ele>-37.253</ele>
  <time>2026-09-01T01:14:04Z</time>
  <course>191.24</course>
  <speed>0.9786214794290998</speed>
  <fix>3d</fix>
</trkpt>
<trkpt lat="33.8099175" lon="-118.3939521">
  <ele>-36.17</ele>
  <time>2026-09-01T01:14:04Z</time>
  <course>190.19</course>
  <speed>1.0</speed>
  <fix>3d</fix>
</trkpt>
<trkpt lat="33.8099156" lon="-118.3939526">
  <ele>-37.337</ele>
  <time>2026-09-01T01:14:04Z</time>
  <course>191.22</course>
  <speed>0.9786214794290998</speed>
  <fix>3d</fix>
</trkpt>
<trkpt lat="33.8099175" lon="-118.3939521">
  <ele>-36.17</ele>
  <time>2026-09-01T01:14:04Z</time>
  <course>190.19</course>
  <speed>1.0</speed>
  <fix>3d</fix>
</trkpt>
<trkpt lat="33.8099147" lon="-118.3939528">
  <ele>-37.421</ele>
  <time>2026-09-01T01:14:04Z</time>
  <course>191.2</course>
  <speed>0.9786214794290998</speed>
  <fix>3d</fix>
</trkpt>
<trkpt lat="33.8099157" lon="-118.3939525">
  <ele>-36.33</ele>
  <time>2026-09-01T01:14:04Z</time>
  <course>190.17</course>
  <speed>1.0</speed>
  <fix>3d</fix>
</trkpt>
<trkpt lat="33.8099138" lon="-118.393953">
  <ele>-37.504</ele>
  <time>2026-09-01T01:14:04Z</time>
  <course>191.18</course>
  <speed>0.9786214794290998</speed>
  <fix>3d</fix>
</trkpt>
<trkpt lat="33.8099157" lon="-118.3939525">
  <ele>-36.33</ele>
  <time>2026-09-01T01:14:04Z</time>
  <course>190.17</course>
  <speed>1.0</speed>
  <fix>3d</fix>
</trkpt>
<trkpt lat="33.8099129" lon="-118.3939532">
  <ele>-37.586</ele>
  <time>2026-09-01T01:14:04Z</time>
  <course>191.16</course>
  <speed>0.9786214794290998</speed>
  <fix>3d</fix>
</trkpt>
<trkpt lat="33.8099139" lon="-118.3939528">
  <ele>-36.49</ele>
  <time>2026-09-01T01:14:04Z</time>
  <course>190.13</course>
  <speed>1.0</speed>
  <fix>3d</fix>
</trkpt>
<trkpt lat="33.809912" lon="-118.3939534">
  <ele>-37.668</ele>
  <time>2026-09-01T01:14:04Z</time>
  <course>191.15</course>
  <speed>0.9786214794290998</speed>
  <fix>3d</fix>
</trkpt>
<trkpt lat="33.8099139" lon="-118.3939528">
  <ele>-36.49</ele>
  <time>2026-09-01T01:14:04Z</time>
  <course>190.13</course>
  <speed>1.0</speed>
  <fix>3d</fix>
</trkpt>
<trkpt lat="33.8099111" lon="-118.3939536">
  <ele>-37.748</ele>
  <time>2026-09-01T01:14:04Z</time>
  <course>191.17</course>
  <speed>0.9786214794290998</speed>
  <fix>3d</fix>
</trkpt>
<trkpt lat="33.8099122" lon="-118.3939532">
  <ele>-36.65</ele>
  <time>2026-09-01T01:14:04Z</time>
  <course>190.14</course>
  <speed>1.01</speed>
  <fix>3d</fix>
</trkpt>
<trkpt lat="33.8099103" lon="-118.3939538">
  <ele>-37.829</ele>
  <time>2026-09-01T01:14:04Z</time>
  <course>191.19</course>
  <speed>0.9786214794290998</speed>
  <fix>3d</fix>
</trkpt>
<trkpt lat="33.8099122" lon="-118.3939532">
  <ele>-36.65</ele>
  <time>2026-09-01T01:14:04Z</time>
  <course>190.14</course>
  <speed>1.01</speed>
  <fix>3d</fix>
</trkpt>
<trkpt lat="33.8099094" lon="-118.393954">
  <ele>-37.911</ele>
  <time>2026-09-01T01:14:04Z</time>
  <course>191.21</course>
  <speed>0.9786214794290998</speed>
  <fix>3d</fix>
</trkpt>
<trkpt lat="33.8099103" lon="-118.3939536">
  <ele>-36.8</ele>
  <time>2026-09-01T01:14:04Z</time>
  <course>190.19</course>
  <speed>1.0</speed>
  <fix>3d</fix>
</trkpt>
<trkpt lat="33.8099085" lon="-118.3939541">
  <ele>-37.994</ele>
  <time>2026-09-01T01:14:04Z</time>
  <course>191.22</course>
  <speed>0.9786214794290998</speed>
  <fix>3d</fix>
</trkpt>
<trkpt lat="33.8099103" lon="-118.3939536">
  <ele>-36.8</ele>
  <time>2026-09-01T01:14:04Z</time>
  <course>190.19</course>
  <speed>1.0</speed>
  <fix>3d</fix>
</trkpt>
<trkpt lat="33.8099076" lon="-118.3939543">
  <ele>-38.076</ele>
  <time>2026-09-01T01:14:04Z</time>
  <course>191.24</course>
  <speed>0.9786214794290998</speed>
  <fix>3d</fix>
</trkpt>
<trkpt lat="33.8099086" lon="-118.393954">
  <ele>-36.96</ele>
  <time>2026-09-01T01:14:04Z</time>
  <course>190.22</course>
  <speed>1.0</speed>
  <fix>3d</fix>
</trkpt>
<trkpt lat="33.8099067" lon="-118.3939545">
  <ele>-38.158</ele>
  <time>2026-09-01T01:14:04Z</time>
  <course>191.24</course>
  <speed>0.9786214794290998</speed>
  <fix>3d</fix>
</trkpt>
<trkpt lat="33.8099086" lon="-118.393954">
  <ele>-36.96</ele>
  <time>2026-09-01T01:14:04Z</time>
  <course>190.22</course>
  <speed>1.0</speed>
  <fix>3d</fix>
</trkpt>
<trkpt lat="33.8099058" lon="-118.3939547">
  <ele>-38.241</ele>
  <time>2026-09-01T01:14:04Z</time>
  <course>191.25</course>
  <speed>0.9786214794290998</speed>
  <fix>3d</fix>
</trkpt>
<trkpt lat="33.8099068" lon="-118.3939544">
  <ele>-37.12</ele>
  <time>2026-09-01T01:14:04Z</time>
  <course>190.23</course>
  <speed>1.0</speed>
  <fix>3d</fix>
</trkpt>
<trkpt lat="33.809905" lon="-118.3939549">
  <ele>-38.323</ele>
  <time>2026-09-01T01:14:04Z</time>
  <course>191.25</course>
  <speed>0.9786214794290998</speed>
  <fix>3d</fix>
</trkpt>
<trkpt lat="33.8099068" lon="-118.3939544">
  <ele>-37.12</ele>
  <time>2026-09-01T01:14:04Z</time>
  <course>190.23</course>
  <speed>1.0</speed>
  <fix>3d</fix>
</trkpt>
<trkpt lat="33.8099041" lon="-118.3939551">
  <ele>-38.405</ele>
  <time>2026-09-01T01:14:04Z</time>
  <course>191.24</course>
  <speed>0.9767292357659824</speed>
  <fix>3d</fix>
</trkpt>
<trkpt lat="33.809905" lon="-118.3939548">
  <ele>-37.28</ele>
  <time>2026-09-01T01:14:04Z</time>
  <course>190.21</course>
  <speed>1.0</speed>
  <fix>3d</fix>
</trkpt>
<trkpt lat="33.8099032" lon="-118.3939553">
  <ele>-38.487</ele>
  <time>2026-09-01T01:14:04Z</time>
  <course>191.23</course>
  <speed>0.9767292357659824</speed>
  <fix>3d</fix>
</trkpt>
<trkpt lat="33.809905" lon="-118.3939548">
  <ele>-37.28</ele>
  <time>2026-09-01T01:14:04Z</time>
  <course>190.21</course>
  <speed>1.0</speed>
  <fix>3d</fix>
</trkpt>
<trkpt lat="33.8099023" lon="-118.3939555">
  <ele>-38.569</ele>
  <time>2026-09-01T01:14:04Z</time>
  <course>191.22</course>
  <speed>0.9767292357659824</speed>
  <fix>3d</fix>
</trkpt>
<trkpt lat="33.8099033" lon="-118.3939552">
  <ele>-37.44</ele>
  <time>2026-09-01T01:14:04Z</time>
  <course>190.18</course>
  <speed>1.0</speed>
  <fix>3d</fix>
</trkpt>
<trkpt lat="33.8099014" lon="-118.3939557">
  <ele>-38.65</ele>
  <time>2026-09-01T01:14:04Z</time>
  <course>191.2</course>
  <speed>0.966902270139025</speed>
  <fix>3d</fix>
</trkpt>
<trkpt lat="33.8099033" lon="-118.3939552">
  <ele>-37.44</ele>
  <time>2026-09-01T01:14:04Z</time>
  <course>190.18</course>
  <speed>1.0</speed>
  <fix>3d</fix>
</trkpt>
<trkpt lat="33.8099005" lon="-118.3939559">
  <ele>-38.731</ele>
  <time>2026-09-01T01:14:04Z</time>
  <course>191.17</course>
  <speed>0.966902270139025</speed>
  <fix>3d</fix>
</trkpt>
<trkpt lat="33.8099014" lon="-118.3939555">
  <ele>-37.6</ele>
  <time>2026-09-01T01:14:04Z</time>
  <course>190.14</course>
  <speed>1.0</speed>
  <fix>3d</fix>
</trkpt>
<trkpt lat="33.8098996" lon="-118.3939561">
  <ele>-38.814</ele>
  <time>2026-09-01T01:14:04Z</time>
  <course>191.15</course>
  <speed>0.966902270139025</speed>
  <fix>3d</fix>
</trkpt>
<trkpt lat="33.8099014" lon="-118.3939555">
  <ele>-37.6</ele>
  <time>2026-09-01T01:14:04Z</time>
  <course>190.14</course>
  <speed>1.0</speed>
  <fix>3d</fix>
</trkpt>
<trkpt lat="33.8098988" lon="-118.3939562">
  <ele>-38.898</ele>
  <time>2026-09-01T01:14:04Z</time>
  <course>191.16</course>
  <speed>0.966902270139025</speed>
  <fix>3d</fix>
</trkpt>
<trkpt lat="33.8098997" lon="-118.3939559">
  <ele>-37.76</ele>
  <time>2026-09-01T01:14:04Z</time>
  <course>190.13</course>
  <speed>1.0</speed>
  <fix>3d</fix>
</trkpt>
<trkpt lat="33.8098979" lon="-118.3939564">
  <ele>-38.984</ele>
  <time>2026-09-01T01:14:04Z</time>
  <course>191.16</course>
  <speed>0.966902270139025</speed>
  <fix>3d</fix>
</trkpt>
<trkpt lat="33.8098997" lon="-118.3939559">
  <ele>-37.76</ele>
  <time>2026-09-01T01:14:04Z</time>
  <course>190.13</course>
  <speed>1.0</speed>
  <fix>3d</fix>
</trkpt>
<trkpt lat="33.809897" lon="-118.3939566">
  <ele>-39.069</ele>
  <time>2026-09-01T01:14:04Z</time>
  <course>191.18</course>
  <speed>0.9767292357659824</speed>
  <fix>3d</fix>
</trkpt>
<trkpt lat="33.8098979" lon="-118.3939563">
  <ele>-37.93</ele>
  <time>2026-09-01T01:14:04Z</time>
  <course>190.16</course>
  <speed>1.0</speed>
  <fix>3d</fix>
</trkpt>
<trkpt lat="33.8098961" lon="-118.3939568">
  <ele>-39.153</ele>
  <time>2026-09-01T01:14:04Z</time>
  <course>191.2</course>
  <speed>0.9767292357659824</speed>
  <fix>3d</fix>
</trkpt>
<trkpt lat="33.8098979" lon="-118.3939563">
  <ele>-37.93</ele>
  <time>2026-09-01T01:14:04Z</time>
  <course>190.16</course>
  <speed>1.0</speed>
  <fix>3d</fix>
</trkpt>
<trkpt lat="33.8098952" lon="-118.393957">
  <ele>-39.235</ele>
  <time>2026-09-01T01:14:04Z</time>
  <course>191.21</course>
  <speed>0.9767292357659824</speed>
  <fix>3d</fix>
</trkpt>
<trkpt lat="33.8098962" lon="-118.3939567">
  <ele>-38.08</ele>
  <time>2026-09-01T01:14:04Z</time>
  <course>190.19</course>
  <speed>1.0</speed>
  <fix>3d</fix>
</trkpt>
<trkpt lat="33.8098943" lon="-118.3939572">
  <ele>-39.316</ele>
  <time>2026-09-01T01:14:04Z</time>
  <course>191.23</course>
  <speed>0.9767292357659824</speed>
  <fix>3d</fix>
</trkpt>
<trkpt lat="33.8098962" lon="-118.3939567">
  <ele>-38.08</ele>
  <time>2026-09-01T01:14:04Z</time>
  <course>190.19</course>
  <speed>1.0</speed>
  <fix>3d</fix>
</trkpt>
<trkpt lat="33.8098934" lon="-118.3939574">
  <ele>-39.398</ele>
  <time>2026-09-01T01:14:04Z</time>
  <course>191.22</course>
  <speed>0.9767292357659824</speed>
  <fix>3d</fix>
</trkpt>
<trkpt lat="33.8098944" lon="-118.3939571">
  <ele>-38.25</ele>
  <time>2026-09-01T01:14:04Z</time>
  <course>190.18</course>
  <speed>1.0</speed>
  <fix>3d</fix>
</trkpt>
<trkpt lat="33.8098926" lon="-118.3939576">
  <ele>-39.479</ele>
  <time>2026-09-01T01:14:04Z</time>
  <course>191.21</course>
  <speed>0.966902270139025</speed>
  <fix>3d</fix>
</trkpt>
<trkpt lat="33.8098944" lon="-118.3939571">
  <ele>-38.25</ele>
  <time>2026-09-01T01:14:04Z</time>
  <course>190.18</course>
  <speed>1.0</speed>
  <fix>3d</fix>
</trkpt>
<trkpt lat="33.8098917" lon="-118.3939578">
  <ele>-39.562</ele>
  <time>2026-09-01T01:14:04Z</time>
  <course>191.19</course>
  <speed>0.966902270139025</speed>
  <fix>3d</fix>
</trkpt>
<trkpt lat="33.8098926" lon="-118.3939575">
  <ele>-38.41</ele>
  <time>2026-09-01T01:14:04Z</time>
  <course>190.14</course>
  <speed>1.0</speed>
  <fix>3d</fix>
</trkpt>
<trkpt lat="33.8098908" lon="-118.393958">
  <ele>-39.644</ele>
  <time>2026-09-01T01:14:04Z</time>
  <course>191.17</course>
  <speed>0.966902270139025</speed>
  <fix>3d</fix>
</trkpt>
<trkpt lat="33.8098926" lon="-118.3939575">
  <ele>-38.41</ele>
  <time>2026-09-01T01:14:04Z</time>
  <course>190.14</course>
  <speed>1.0</speed>
  <fix>3d</fix>
</trkpt>
<trkpt lat="33.8098899" lon="-118.3939582">
  <ele>-39.727</ele>
  <time>2026-09-01T01:14:04Z</time>
  <course>191.15</course>
  <speed>0.966902270139025</speed>
  <fix>3d</fix>
</trkpt>
<trkpt lat="33.8098909" lon="-118.3939578">
  <ele>-38.57</ele>
  <time>2026-09-01T01:14:04Z</time>
  <course>190.1</course>
  <speed>1.0</speed>
  <fix>3d</fix>
</trkpt>
<trkpt lat="33.809889" lon="-118.3939584">
  <ele>-39.811</ele>
  <time>2026-09-01T01:14:04Z</time>
  <course>191.13</course>
  <speed>0.966902270139025</speed>
  <fix>3d</fix>
</trkpt>
<trkpt lat="33.8098909" lon="-118.3939578">
  <ele>-38.57</ele>
  <time>2026-09-01T01:14:04Z</time>
  <course>190.1</course>
  <speed>1.0</speed>
  <fix>3d</fix>
</trkpt>
<trkpt lat="33.8098881" lon="-118.3939585">
  <ele>-39.895</ele>
  <time>2026-09-01T01:14:04Z</time>
  <course>191.12</course>
  <speed>0.966902270139025</speed>
  <fix>3d</fix>
</trkpt>
<trkpt lat="33.809889" lon="-118.3939581">
  <ele>-38.73</ele>
  <time>2026-09-01T01:14:04Z</time>
  <course>190.09</course>
  <speed>1.0</speed>
  <fix>3d</fix>
</trkpt>
<trkpt lat="33.8098872" lon="-118.3939587">
  <ele>-39.979</ele>
  <time>2026-09-01T01:14:04Z</time>
  <course>191.15</course>
  <speed>0.9688137075826292</speed>
  <fix>3d</fix>
</trkpt>
<trkpt lat="33.809889" lon="-118.3939581">
  <ele>-38.73</ele>
  <time>2026-09-01T01:14:04Z</time>
  <course>190.09</course>
  <speed>1.0</speed>
  <fix>3d</fix>
</trkpt>
<trkpt lat="33.8098864" lon="-118.3939589">
  <ele>-40.062</ele>
  <time>2026-09-01T01:14:04Z</time>
  <course>191.18</course>
  <speed>0.9688137075826292</speed>
  <fix>3d</fix>
</trkpt>
<trkpt lat="33.8098873" lon="-118.3939586">
  <ele>-38.9</ele>
  <time>2026-09-01T01:14:04Z</time>
  <course>190.16</course>
  <speed>1.0</speed>
  <fix>3d</fix>
</trkpt>
<trkpt lat="33.8098855" lon="-118.3939591">
  <ele>-40.145</ele>
  <time>2026-09-01T01:14:04Z</time>
  <course>191.23</course>
  <speed>0.9688137075826292</speed>
  <fix>3d</fix>
</trkpt>
<trkpt lat="33.8098873" lon="-118.3939586">
  <ele>-38.9</ele>
  <time>2026-09-01T01:14:04Z</time>
  <course>190.16</course>
  <speed>1.0</speed>
  <fix>3d</fix>
</trkpt>
<trkpt lat="33.8098846" lon="-118.3939593">
  <ele>-40.228</ele>
  <time>2026-09-01T01:14:04Z</time>
  <course>191.26</course>
  <speed>0.9688137075826292</speed>
  <fix>3d</fix>
</trkpt>
<trkpt lat="33.8098855" lon="-118.393959">
  <ele>-39.05</ele>
  <time>2026-09-01T01:14:04Z</time>
  <course>190.24</course>
  <speed>1.0</speed>
  <fix>3d</fix>
</trkpt>
<trkpt lat="33.8098837" lon="-118.3939595">
  <ele>-40.311</ele>
  <time>2026-09-01T01:14:04Z</time>
  <course>191.28</course>
  <speed>0.966902270139025</speed>
  <fix>3d</fix>
</trkpt>
<trkpt lat="33.8098855" lon="-118.393959">
  <ele>-39.05</ele>
  <time>2026-09-01T01:14:04Z</time>
  <course>190.24</course>
  <speed>1.0</speed>
  <fix>3d</fix>
</trkpt>
<trkpt lat="33.8098828" lon="-118.3939597">
  <ele>-40.393</ele>
  <time>2026-09-01T01:14:04Z</time>
  <course>191.27</course>
  <speed>0.966902270139025</speed>
  <fix>3d</fix>
</trkpt>
<trkpt lat="33.8098837" lon="-118.3939594">
  <ele>-39.22</ele>
  <time>2026-09-01T01:14:04Z</time>
  <course>190.23</course>
  <speed>1.0</speed>
  <fix>3d</fix>
</trkpt>
<trkpt lat="33.8098819" lon="-118.3939599">
  <ele>-40.476</ele>
  <time>2026-09-01T01:14:04Z</time>
  <course>191.26</course>
  <speed>0.966902270139025</speed>
  <fix>3d</fix>
</trkpt>
<trkpt lat="33.8098837" lon="-118.3939594">
  <ele>-39.22</ele>
  <time>2026-09-01T01:14:04Z</time>
  <course>190.23</course>
  <speed>1.0</speed>
  <fix>3d</fix>
</trkpt>
<trkpt lat="33.809881" lon="-118.3939601">
  <ele>-40.557</ele>
  <time>2026-09-01T01:14:04Z</time>
  <course>191.24</course>
  <speed>0.966902270139025</speed>
  <fix>3d</fix>
</trkpt>
<trkpt lat="33.809882" lon="-118.3939597">
  <ele>-39.37</ele>
  <time>2026-09-01T01:14:04Z</time>
  <course>190.19</course>
  <speed>1.0</speed>
  <fix>3d</fix>
</trkpt>
<trkpt lat="33.8098801" lon="-118.3939603">
  <ele>-40.638</ele>
  <time>2026-09-01T01:14:04Z</time>
  <course>191.23</course>
  <speed>0.966902270139025</speed>
  <fix>3d</fix>
</trkpt>
<trkpt lat="33.809882" lon="-118.3939597">
  <ele>-39.37</ele>
  <time>2026-09-01T01:14:04Z</time>
  <course>190.19</course>
  <speed>1.0</speed>
  <fix>3d</fix>
</trkpt>
<trkpt lat="33.8098793" lon="-118.3939604">
  <ele>-40.72</ele>
  <time>2026-09-01T01:14:04Z</time>
  <course>191.22</course>
  <speed>0.966902270139025</speed>
  <fix>3d</fix>
</trkpt>
<trkpt lat="33.8098802" lon="-118.39396">
  <ele>-39.54</ele>
  <time>2026-09-01T01:14:04Z</time>
  <course>190.18</course>
  <speed>0.99</speed>
  <fix>3d</fix>
</trkpt>
<trkpt lat="33.8098784" lon="-118.3939606">
  <ele>-40.803</ele>
  <time>2026-09-01T01:14:04Z</time>
  <course>191.25</course>
  <speed>0.9688137075826292</speed>
  <fix>3d</fix>
</trkpt>
<trkpt lat="33.8098802" lon="-118.39396">
  <ele>-39.54</ele>
  <time>2026-09-01T01:14:04Z</time>
  <course>190.18</course>
  <speed>0.99</speed>
  <fix>3d</fix>
</trkpt>
<trkpt lat="33.8098775" lon="-118.3939608">
  <ele>-40.885</ele>
  <time>2026-09-01T01:14:04Z</time>
  <course>191.28</course>
  <speed>0.9688137075826292</speed>
  <fix>3d</fix>
</trkpt>
<trkpt lat="33.8098784" lon="-118.3939605">
  <ele>-39.69</ele>
  <time>2026-09-01T01:14:04Z</time>
  <course>190.22</course>
  <speed>0.99</speed>
  <fix>3d</fix>
</trkpt>
<trkpt lat="33.8098766" lon="-118.393961">
  <ele>-40.967</ele>
  <time>2026-09-01T01:14:04Z</time>
  <course>191.32</course>
  <speed>0.9688137075826292</speed>
  <fix>3d</fix>
</trkpt>
<trkpt lat="33.8098784" lon="-118.3939605">
  <ele>-39.69</ele>
  <time>2026-09-01T01:14:04Z</time>
  <course>190.22</course>
  <speed>0.99</speed>
  <fix>3d</fix>
</trkpt>
<trkpt lat="33.8098757" lon="-118.3939612">
  <ele>-41.051</ele>
  <time>2026-09-01T01:14:04Z</time>
  <course>191.35</course>
  <speed>0.966902270139025</speed>
  <fix>3d</fix>
</trkpt>
<trkpt lat="33.8098767" lon="-118.3939609">
  <ele>-39.86</ele>
  <time>2026-09-01T01:14:04Z</time>
  <course>190.28</course>
  <speed>0.99</speed>
  <fix>3d</fix>
</trkpt>
<trkpt lat="33.8098749" lon="-118.3939614">
  <ele>-41.136</ele>
  <time>2026-09-01T01:14:04Z</time>
  <course>191.36</course>
  <speed>0.966902270139025</speed>
  <fix>3d</fix>
</trkpt>
<trkpt lat="33.8098767" lon="-118.3939609">
  <ele>-39.86</ele>
  <time>2026-09-01T01:14:04Z</time>
  <course>190.28</course>
  <speed>0.99</speed>
  <fix>3d</fix>
</trkpt>
<trkpt lat="33.809874" lon="-118.3939616">
  <ele>-41.221</ele>
  <time>2026-09-01T01:14:04Z</time>
  <course>191.35</course>
  <speed>0.966902270139025</speed>
  <fix>3d</fix>
</trkpt>
<trkpt lat="33.8098749" lon="-118.3939613">
  <ele>-40.02</ele>
  <time>2026-09-01T01:14:04Z</time>
  <course>190.28</course>
  <speed>0.99</speed>
  <fix>3d</fix>
</trkpt>
<trkpt lat="33.8098731" lon="-118.3939618">
  <ele>-41.304</ele>
  <time>2026-09-01T01:14:04Z</time>
  <course>191.33</course>
  <speed>0.966902270139025</speed>
  <fix>3d</fix>
</trkpt>
<trkpt lat="33.8098749" lon="-118.3939613">
  <ele>-40.02</ele>
  <time>2026-09-01T01:14:04Z</time>
  <course>190.28</course>
  <speed>0.99</speed>
  <fix>3d</fix>
</trkpt>
<trkpt lat="33.8098722" lon="-118.393962">
  <ele>-41.387</ele>
  <time>2026-09-01T01:14:04Z</time>
  <course>191.3</course>
  <speed>0.966902270139025</speed>
  <fix>3d</fix>
</trkpt>
<trkpt lat="33.8098732" lon="-118.3939617">
  <ele>-40.19</ele>
  <time>2026-09-01T01:14:04Z</time>
  <course>190.24</course>
  <speed>0.99</speed>
  <fix>3d</fix>
</trkpt>
<trkpt lat="33.8098713" lon="-118.3939622">
  <ele>-41.47</ele>
  <time>2026-09-01T01:14:04Z</time>
  <course>191.27</course>
  <speed>0.966902270139025</speed>
  <fix>3d</fix>
</trkpt>
<trkpt lat="33.8098732" lon="-118.3939617">
  <ele>-40.19</ele>
  <time>2026-09-01T01:14:04Z</time>
  <course>190.24</course>
  <speed>0.99</speed>
  <fix>3d</fix>
</trkpt>
<trkpt lat="33.8098704" lon="-118.3939624">
  <ele>-41.552</ele>
  <time>2026-09-01T01:14:04Z</time>
  <course>191.23</course>
  <speed>0.9767292357659824</speed>
  <fix>3d</fix>
</trkpt>
<trkpt lat="33.8098713" lon="-118.393962">
  <ele>-40.35</ele>
  <time>2026-09-01T01:14:04Z</time>
  <course>190.17</course>
  <speed>1.0</speed>
  <fix>3d</fix>
</trkpt>
<trkpt lat="33.8098695" lon="-118.3939626">
  <ele>-41.633</ele>
  <time>2026-09-01T01:14:04Z</time>
  <course>191.21</course>
  <speed>0.966902270139025</speed>
  <fix>3d</fix>
</trkpt>
<trkpt lat="33.8098713" lon="-118.393962">
  <ele>-40.35</ele>
  <time>2026-09-01T01:14:04Z</time>
  <course>190.17</course>
  <speed>1.0</speed>
  <fix>3d</fix>
</trkpt>
<trkpt lat="33.8098687" lon="-118.3939627">
  <ele>-41.715</ele>
  <time>2026-09-01T01:14:04Z</time>
  <course>191.19</course>
  <speed>0.966902270139025</speed>
  <fix>3d</fix>
</trkpt>
<trkpt lat="33.8098696" lon="-118.3939624">
  <ele>-40.51</ele>
  <time>2026-09-01T01:14:04Z</time>
  <course>190.14</course>
  <speed>0.99</speed>
  <fix>3d</fix>
</trkpt>
<trkpt lat="33.8098678" lon="-118.3939629">
  <ele>-41.796</ele>
  <time>2026-09-01T01:14:04Z</time>
  <course>191.19</course>
  <speed>0.966902270139025</speed>
  <fix>3d</fix>
</trkpt>
<trkpt lat="33.8098696" lon="-118.3939624">
  <ele>-40.51</ele>
  <time>2026-09-01T01:14:04Z</time>
  <course>190.14</course>
  <speed>0.99</speed>
  <fix>3d</fix>
</trkpt>
<trkpt lat="33.8098669" lon="-118.3939631">
  <ele>-41.878</ele>
  <time>2026-09-01T01:14:04Z</time>
  <course>191.21</course>
  <speed>0.966902270139025</speed>
  <fix>3d</fix>
</trkpt>
<trkpt lat="33.8098679" lon="-118.3939628">
  <ele>-40.67</ele>
  <time>2026-09-01T01:14:04Z</time>
  <course>190.17</course>
  <speed>0.99</speed>
  <fix>3d</fix>
</trkpt>
<trkpt lat="33.809866" lon="-118.3939633">
  <ele>-41.961</ele>
  <time>2026-09-01T01:14:04Z</time>
  <course>191.21</course>
  <speed>0.966902270139025</speed>
  <fix>3d</fix>
</trkpt>
<trkpt lat="33.8098679" lon="-118.3939628">
  <ele>-40.67</ele>
  <time>2026-09-01T01:14:04Z</time>
  <course>190.17</course>
  <speed>0.99</speed>
  <fix>3d</fix>
</trkpt>
<trkpt lat="33.8098651" lon="-118.3939635">
  <ele>-42.044</ele>
  <time>2026-09-01T01:14:04Z</time>
  <course>191.21</course>
  <speed>0.966902270139025</speed>
  <fix>3d</fix>
</trkpt>
<trkpt lat="33.809866" lon="-118.3939632">
  <ele>-40.83</ele>
  <time>2026-09-01T01:14:04Z</time>
  <course>190.18</course>
  <speed>0.99</speed>
  <fix>3d</fix>
</trkpt>
<trkpt lat="33.8098643" lon="-118.3939637">
  <ele>-42.129</ele>
  <time>2026-09-01T01:14:04Z</time>
  <course>191.19</course>
  <speed>0.966902270139025</speed>
  <fix>3d</fix>
</trkpt>
<trkpt lat="33.809866" lon="-118.3939632">
  <ele>-40.83</ele>
  <time>2026-09-01T01:14:04Z</time>
  <course>190.18</course>
  <speed>0.99</speed>
  <fix>3d</fix>
</trkpt>
<trkpt lat="33.8098634" lon="-118.3939639">
  <ele>-42.214</ele>
  <time>2026-09-01T01:14:04Z</time>
  <course>191.18</course>
  <speed>0.966902270139025</speed>
  <fix>3d</fix>
</trkpt>
<trkpt lat="33.8098643" lon="-118.3939636">
  <ele>-41.0</ele>
  <time>2026-09-01T01:14:04Z</time>
  <course>190.17</course>
  <speed>0.99</speed>
  <fix>3d</fix>
</trkpt>
<trkpt lat="33.8098625" lon="-118.3939641">
  <ele>-42.298</ele>
  <time>2026-09-01T01:14:04Z</time>
  <course>191.17</course>
  <speed>0.966902270139025</speed>
  <fix>3d</fix>
</trkpt>
<trkpt lat="33.8098643" lon="-118.3939636">
  <ele>-41.0</ele>
  <time>2026-09-01T01:14:04Z</time>
  <course>190.17</course>
  <speed>0.99</speed>
  <fix>3d</fix>
</trkpt>
<trkpt lat="33.8098616" lon="-118.3939643">
  <ele>-42.38</ele>
  <time>2026-09-01T01:14:04Z</time>
  <course>191.16</course>
  <speed>0.966902270139025</speed>
  <fix>3d</fix>
</trkpt>
<trkpt lat="33.8098626" lon="-118.3939639">
  <ele>-41.16</ele>
  <time>2026-09-01T01:14:04Z</time>
  <course>190.14</course>
  <speed>0.99</speed>
  <fix>3d</fix>
</trkpt>
<trkpt lat="33.8098607" lon="-118.3939645">
  <ele>-42.461</ele>
  <time>2026-09-01T01:14:04Z</time>
  <course>191.14</course>
  <speed>0.966902270139025</speed>
  <fix>3d</fix>
</trkpt>
<trkpt lat="33.8098626" lon="-118.3939639">
  <ele>-41.16</ele>
  <time>2026-09-01T01:14:04Z</time>
  <course>190.14</course>
  <speed>0.99</speed>
  <fix>3d</fix>
</trkpt>
<trkpt lat="33.8098598" lon="-118.3939647">
  <ele>-42.541</ele>
  <time>2026-09-01T01:14:04Z</time>
  <course>191.14</course>
  <speed>0.966902270139025</speed>
  <fix>3d</fix>
</trkpt>
<trkpt lat="33.8098608" lon="-118.3939643">
  <ele>-41.32</ele>
  <time>2026-09-01T01:14:04Z</time>
  <course>190.13</course>
  <speed>0.99</speed>
  <fix>3d</fix>
</trkpt>
<trkpt lat="33.8098589" lon="-118.3939648">
  <ele>-42.622</ele>
  <time>2026-09-01T01:14:04Z</time>
  <course>191.15</course>
  <speed>0.966902270139025</speed>
  <fix>3d</fix>
</trkpt>
<trkpt lat="33.8098608" lon="-118.3939643">
  <ele>-41.32</ele>
  <time>2026-09-01T01:14:04Z</time>
  <course>190.13</course>
  <speed>0.99</speed>
  <fix>3d</fix>
</trkpt>
<trkpt lat="33.8098581" lon="-118.393965">
  <ele>-42.703</ele>
  <time>2026-09-01T01:14:04Z</time>
  <course>191.16</course>
  <speed>0.966902270139025</speed>
  <fix>3d</fix>
</trkpt>
<trkpt lat="33.8098591" lon="-118.3939647">
  <ele>-41.48</ele>
  <time>2026-09-01T01:14:04Z</time>
  <course>190.16</course>
  <speed>0.99</speed>
  <fix>3d</fix>
</trkpt>
<trkpt lat="33.8098572" lon="-118.3939652">
  <ele>-42.785</ele>
  <time>2026-09-01T01:14:04Z</time>
  <course>191.18</course>
  <speed>0.966902270139025</speed>
  <fix>3d</fix>
</trkpt>
<trkpt lat="33.8098591" lon="-118.3939647">
  <ele>-41.48</ele>
  <time>2026-09-01T01:14:04Z</time>
  <course>190.16</course>
  <speed>0.99</speed>
  <fix>3d</fix>
</trkpt>
<trkpt lat="33.8098563" lon="-118.3939654">
  <ele>-42.867</ele>
  <time>2026-09-01T01:14:04Z</time>
  <course>191.17</course>
  <speed>0.966902270139025</speed>
  <fix>3d</fix>
</trkpt>
<trkpt lat="33.8098573" lon="-118.3939651">
  <ele>-41.65</ele>
  <time>2026-09-01T01:14:04Z</time>
  <course>190.18</course>
  <speed>0.99</speed>
  <fix>3d</fix>
</trkpt>
<trkpt lat="33.8098554" lon="-118.3939656">
  <ele>-42.951</ele>
  <time>2026-09-01T01:14:04Z</time>
  <course>191.17</course>
  <speed>0.966902270139025</speed>
  <fix>3d</fix>
</trkpt>
<trkpt lat="33.8098573" lon="-118.3939651">
  <ele>-41.65</ele>
  <time>2026-09-01T01:14:04Z</time>
  <course>190.18</course>
  <speed>0.99</speed>
  <fix>3d</fix>
</trkpt>
<trkpt lat="33.8098545" lon="-118.3939658">
  <ele>-43.034</ele>
  <time>2026-09-01T01:14:04Z</time>
  <course>191.16</course>
  <speed>0.966902270139025</speed>
  <fix>3d</fix>
</trkpt>
<trkpt lat="33.8098555" lon="-118.3939655">
  <ele>-41.81</ele>
  <time>2026-09-01T01:14:04Z</time>
  <course>190.16</course>
  <speed>0.99</speed>
  <fix>3d</fix>
</trkpt>
<trkpt lat="33.8098537" lon="-118.393966">
  <ele>-43.118</ele>
  <time>2026-09-01T01:14:04Z</time>
  <course>191.14</course>
  <speed>0.966902270139025</speed>
  <fix>3d</fix>
</trkpt>
<trkpt lat="33.8098555" lon="-118.3939655">
  <ele>-41.81</ele>
  <time>2026-09-01T01:14:04Z</time>
  <course>190.16</course>
  <speed>0.99</speed>
  <fix>3d</fix>
</trkpt>
<trkpt lat="33.8098528" lon="-118.3939662">
  <ele>-43.202</ele>
  <time>2026-09-01T01:14:04Z</time>
  <course>191.13</course>
  <speed>0.966902270139025</speed>
  <fix>3d</fix>
</trkpt>
<trkpt lat="33.8098538" lon="-118.3939658">
  <ele>-41.98</ele>
  <time>2026-09-01T01:14:04Z</time>
  <course>190.13</course>
  <speed>0.99</speed>
  <fix>3d</fix>
</trkpt>
<trkpt lat="33.8098519" lon="-118.3939664">
  <ele>-43.287</ele>
  <time>2026-09-01T01:14:04Z</time>
  <course>191.12</course>
  <speed>0.966902270139025</speed>
  <fix>3d</fix>
</trkpt>
<trkpt lat="33.8098538" lon="-118.3939658">
  <ele>-41.98</ele>
  <time>2026-09-01T01:14:04Z</time>
  <course>190.13</course>
  <speed>0.99</speed>
  <fix>3d</fix>
</trkpt>
<trkpt lat="33.809851" lon="-118.3939666">
  <ele>-43.372</ele>
  <time>2026-09-01T01:14:04Z</time>
  <course>191.11</course>
  <speed>0.9767292357659824</speed>
  <fix>3d</fix>
</trkpt>
<trkpt lat="33.8098519" lon="-118.3939662">
  <ele>-42.14</ele>
  <time>2026-09-01T01:14:04Z</time>
  <course>190.13</course>
  <speed>0.99</speed>
  <fix>3d</fix>
</trkpt>
<trkpt lat="33.8098501" lon="-118.3939667">
  <ele>-43.457</ele>
  <time>2026-09-01T01:14:04Z</time>
  <course>191.12</course>
  <speed>0.9786214794290998</speed>
  <fix>3d</fix>
</trkpt>
<trkpt lat="33.8098519" lon="-118.3939662">
  <ele>-42.14</ele>
  <time>2026-09-01T01:14:04Z</time>
  <course>190.13</course>
  <speed>0.99</speed>
  <fix>3d</fix>
</trkpt>
<trkpt lat="33.8098492" lon="-118.3939669">
  <ele>-43.542</ele>
  <time>2026-09-01T01:14:04Z</time>
  <course>191.14</course>
  <speed>0.9786214794290998</speed>
  <fix>3d</fix>
</trkpt>
<trkpt lat="33.8098502" lon="-118.3939666">
  <ele>-42.31</ele>
  <time>2026-09-01T01:14:04Z</time>
  <course>190.16</course>
  <speed>1.0</speed>
  <fix>3d</fix>
</trkpt>
<trkpt lat="33.8098484" lon="-118.3939671">
  <ele>-43.625</ele>
  <time>2026-09-01T01:14:04Z</time>
  <course>191.17</course>
  <speed>0.9786214794290998</speed>
  <fix>3d</fix>
</trkpt>
<trkpt lat="33.8098502" lon="-118.3939666">
  <ele>-42.31</ele>
  <time>2026-09-01T01:14:04Z</time>
  <course>190.16</course>
  <speed>1.0</speed>
  <fix>3d</fix>
</trkpt>
<trkpt lat="33.8098475" lon="-118.3939673">
  <ele>-43.708</ele>
  <time>2026-09-01T01:14:04Z</time>
  <course>191.18</course>
  <speed>0.9767292357659824</speed>
  <fix>3d</fix>
</trkpt>
<trkpt lat="33.8098485" lon="-118.393967">
  <ele>-42.48</ele>
  <time>2026-09-01T01:14:04Z</time>
  <course>190.19</course>
  <speed>1.0</speed>
  <fix>3d</fix>
</trkpt>
<trkpt lat="33.8098466" lon="-118.3939675">
  <ele>-43.79</ele>
  <time>2026-09-01T01:14:04Z</time>
  <course>191.18</course>
  <speed>0.9786214794290998</speed>
  <fix>3d</fix>
</trkpt>
<trkpt lat="33.8098485" lon="-118.393967">
  <ele>-42.48</ele>
  <time>2026-09-01T01:14:04Z</time>
  <course>190.19</course>
  <speed>1.0</speed>
  <fix>3d</fix>
</trkpt>
<trkpt lat="33.8098457" lon="-118.3939677">
  <ele>-43.873</ele>
  <time>2026-09-01T01:14:04Z</time>
  <course>191.18</course>
  <speed>0.9767292357659824</speed>
  <fix>3d</fix>
</trkpt>
<trkpt lat="33.8098466" lon="-118.3939674">
  <ele>-42.64</ele>
  <time>2026-09-01T01:14:04Z</time>
  <course>190.18</course>
  <speed>1.0</speed>
  <fix>3d</fix>
</trkpt>
<trkpt lat="33.8098448" lon="-118.3939679">
  <ele>-43.957</ele>
  <time>2026-09-01T01:14:04Z</time>
  <course>191.17</course>
  <speed>0.9786214794290998</speed>
  <fix>3d</fix>
</trkpt>
<trkpt lat="33.8098466" lon="-118.3939674">
  <ele>-42.64</ele>
  <time>2026-09-01T01:14:04Z</time>
  <course>190.18</course>
  <speed>1.0</speed>
  <fix>3d</fix>
</trkpt>
<trkpt lat="33.8098439" lon="-118.3939681">
  <ele>-44.038</ele>
  <time>2026-09-01T01:14:04Z</time>
  <course>191.16</course>
  <speed>0.9767292357659824</speed>
  <fix>3d</fix>
</trkpt>
<trkpt lat="33.8098449" lon="-118.3939678">
  <ele>-42.8</ele>
  <time>2026-09-01T01:14:04Z</time>
  <course>190.15</course>
  <speed>1.0</speed>
  <fix>3d</fix>
</trkpt>
<trkpt lat="33.809843" lon="-118.3939683">
  <ele>-44.12</ele>
  <time>2026-09-01T01:14:04Z</time>
  <course>191.15</course>
  <speed>0.9767292357659824</speed>
  <fix>3d</fix>
</trkpt>
<trkpt lat="33.8098449" lon="-118.3939678">
  <ele>-42.8</ele>
  <time>2026-09-01T01:14:04Z</time>
  <course>190.15</course>
  <speed>1.0</speed>
  <fix>3d</fix>
</trkpt>
<trkpt lat="33.8098421" lon="-118.3939685">
  <ele>-44.202</ele>
  <time>2026-09-01T01:14:04Z</time>
  <course>191.13</course>
  <speed>0.9767292357659824</speed>
  <fix>3d</fix>
</trkpt>
<trkpt lat="33.8098432" lon="-118.3939681">
  <ele>-42.96</ele>
  <time>2026-09-01T01:14:04Z</time>
  <course>190.12</course>
  <speed>1.0</speed>
  <fix>3d</fix>
</trkpt>
<trkpt lat="33.8098413" lon="-118.3939687">
  <ele>-44.284</ele>
  <time>2026-09-01T01:14:04Z</time>
  <course>191.12</course>
  <speed>0.9767292357659824</speed>
  <fix>3d</fix>
</trkpt>
<trkpt lat="33.8098432" lon="-118.3939681">
  <ele>-42.96</ele>
  <time>2026-09-01T01:14:04Z</time>
  <course>190.12</course>
  <speed>1.0</speed>
  <fix>3d</fix>
</trkpt>
<trkpt lat="33.8098404" lon="-118.3939689">
  <ele>-44.367</ele>
  <time>2026-09-01T01:14:04Z</time>
  <course>191.1</course>
  <speed>0.9767292357659824</speed>
  <fix>3d</fix>
</trkpt>
<trkpt lat="33.8098413" lon="-118.3939685">
  <ele>-43.12</ele>
  <time>2026-09-01T01:14:04Z</time>
  <course>190.11</course>
  <speed>1.0</speed>
  <fix>3d</fix>
</trkpt>
<trkpt lat="33.8098395" lon="-118.393969">
  <ele>-44.45</ele>
  <time>2026-09-01T01:14:04Z</time>
  <course>191.11</course>
  <speed>0.966902270139025</speed>
  <fix>3d</fix>
</trkpt>
<trkpt lat="33.8098413" lon="-118.3939685">
  <ele>-43.12</ele>
  <time>2026-09-01T01:14:04Z</time>
  <course>190.11</course>
  <speed>1.0</speed>
  <fix>3d</fix>
</trkpt>
<trkpt lat="33.8098386" lon="-118.3939692">
  <ele>-44.533</ele>
  <time>2026-09-01T01:14:04Z</time>
  <course>191.12</course>
  <speed>0.9767292357659824</speed>
  <fix>3d</fix>
</trkpt>
<trkpt lat="33.8098396" lon="-118.3939689">
  <ele>-43.28</ele>
  <time>2026-09-01T01:14:04Z</time>
  <course>190.13</course>
  <speed>0.99</speed>
  <fix>3d</fix>
</trkpt>
<trkpt lat="33.8098377" lon="-118.3939694">
  <ele>-44.615</ele>
  <time>2026-09-01T01:14:04Z</time>
  <course>191.13</course>
  <speed>0.966902270139025</speed>
  <fix>3d</fix>
</trkpt>
<trkpt lat="33.8098396" lon="-118.3939689">
  <ele>-43.28</ele>
  <time>2026-09-01T01:14:04Z</time>
  <course>190.13</course>
  <speed>0.99</speed>
  <fix>3d</fix>
</trkpt>
<trkpt lat="33.8098368" lon="-118.3939696">
  <ele>-44.696</ele>
  <time>2026-09-01T01:14:04Z</time>
  <course>191.14</course>
  <speed>0.966902270139025</speed>
  <fix>3d</fix>
</trkpt>
<trkpt lat="33.8098379" lon="-118.3939693">
  <ele>-43.44</ele>
  <time>2026-09-01T01:14:04Z</time>
  <course>190.15</course>
  <speed>0.99</speed>
  <fix>3d</fix>
</trkpt>
<trkpt lat="33.809836" lon="-118.3939698">
  <ele>-44.778</ele>
  <time>2026-09-01T01:14:04Z</time>
  <course>191.15</course>
  <speed>0.966902270139025</speed>
  <fix>3d</fix>
</trkpt>
<trkpt lat="33.8098379" lon="-118.3939693">
  <ele>-43.44</ele>
  <time>2026-09-01T01:14:04Z</time>
  <course>190.15</course>
  <speed>0.99</speed>
  <fix>3d</fix>
</trkpt>
<trkpt lat="33.8098351" lon="-118.39397">
  <ele>-44.861</ele>
  <time>2026-09-01T01:14:04Z</time>
  <course>191.14</course>
  <speed>0.966902270139025</speed>
  <fix>3d</fix>
</trkpt>
<trkpt lat="33.8098361" lon="-118.3939696">
  <ele>-43.6</ele>
  <time>2026-09-01T01:14:04Z</time>
  <course>190.14</course>
  <speed>0.99</speed>
  <fix>3d</fix>
</trkpt>
<trkpt lat="33.8098342" lon="-118.3939702">
  <ele>-44.945</ele>
  <time>2026-09-01T01:14:04Z</time>
  <course>191.14</course>
  <speed>0.966902270139025</speed>
  <fix>3d</fix>
</trkpt>
<trkpt lat="33.8098361" lon="-118.3939696">
  <ele>-43.6</ele>
  <time>2026-09-01T01:14:04Z</time>
  <course>190.14</course>
  <speed>0.99</speed>
  <fix>3d</fix>
</trkpt>
<trkpt lat="33.8098333" lon="-118.3939704">
  <ele>-45.028</ele>
  <time>2026-09-01T01:14:04Z</time>
  <course>191.14</course>
  <speed>0.9767292357659824</speed>
  <fix>3d</fix>
</trkpt>
<trkpt lat="33.8098343" lon="-118.39397">
  <ele>-43.76</ele>
  <time>2026-09-01T01:14:04Z</time>
  <course>190.14</course>
  <speed>0.99</speed>
  <fix>3d</fix>
</trkpt>
<trkpt lat="33.8098324" lon="-118.3939706">
  <ele>-45.111</ele>
  <time>2026-09-01T01:14:04Z</time>
  <course>191.16</course>
  <speed>0.9786214794290998</speed>
  <fix>3d</fix>
</trkpt>
<trkpt lat="33.8098343" lon="-118.39397">
  <ele>-43.76</ele>
  <time>2026-09-01T01:14:04Z</time>
  <course>190.14</course>
  <speed>0.99</speed>
  <fix>3d</fix>
</trkpt>
<trkpt lat="33.8098315" lon="-118.3939708">
  <ele>-45.193</ele>
  <time>2026-09-01T01:14:04Z</time>
  <course>191.18</course>
  <speed>0.9786214794290998</speed>
  <fix>3d</fix>
</trkpt>
<trkpt lat="33.8098325" lon="-118.3939704">
  <ele>-43.93</ele>
  <time>2026-09-01T01:14:04Z</time>
  <course>190.19</course>
  <speed>0.99</speed>
  <fix>3d</fix>
</trkpt>
<trkpt lat="33.8098307" lon="-118.3939709">
  <ele>-45.275</ele>
  <time>2026-09-01T01:14:04Z</time>
  <course>191.21</course>
  <speed>0.9688137075826292</speed>
  <fix>3d</fix>
</trkpt>
<trkpt lat="33.8098325" lon="-118.3939704">
  <ele>-43.93</ele>
  <time>2026-09-01T01:14:04Z</time>
  <course>190.19</course>
  <speed>0.99</speed>
  <fix>3d</fix>
</trkpt>
<trkpt lat="33.8098298" lon="-118.3939711">
  <ele>-45.357</ele>
  <time>2026-09-01T01:14:04Z</time>
  <course>191.22</course>
  <speed>0.9688137075826292</speed>
  <fix>3d</fix>
</trkpt>
<trkpt lat="33.8098308" lon="-118.3939708">
  <ele>-44.08</ele>
  <time>2026-09-01T01:14:04Z</time>
  <course>190.22</course>
  <speed>0.99</speed>
  <fix>3d</fix>
</trkpt>
<trkpt lat="33.8098289" lon="-118.3939713">
  <ele>-45.44</ele>
  <time>2026-09-01T01:14:04Z</time>
  <course>191.23</course>
  <speed>0.9688137075826292</speed>
  <fix>3d</fix>
</trkpt>
<trkpt lat="33.8098308" lon="-118.3939708">
  <ele>-44.08</ele>
  <time>2026-09-01T01:14:04Z</time>
  <course>190.22</course>
  <speed>0.99</speed>
  <fix>3d</fix>
</trkpt>
<trkpt lat="33.809828" lon="-118.3939715">
  <ele>-45.524</ele>
  <time>2026-09-01T01:14:04Z</time>
  <course>191.24</course>
  <speed>0.966902270139025</speed>
  <fix>3d</fix>
</trkpt>
<trkpt lat="33.8098289" lon="-118.3939712">
  <ele>-44.25</ele>
  <time>2026-09-01T01:14:04Z</time>
  <course>190.2</course>
  <speed>0.99</speed>
  <fix>3d</fix>
</trkpt>
<trkpt lat="33.8098271" lon="-118.3939717">
  <ele>-45.608</ele>
  <time>2026-09-01T01:14:04Z</time>
  <course>191.23</course>
  <speed>0.966902270139025</speed>
  <fix>3d</fix>
</trkpt>
<trkpt lat="33.8098289" lon="-118.3939712">
  <ele>-44.25</ele>
  <time>2026-09-01T01:14:04Z</time>
  <course>190.2</course>
  <speed>0.99</speed>
  <fix>3d</fix>
</trkpt>
<trkpt lat="33.8098262" lon="-118.3939719">
  <ele>-45.691</ele>
  <time>2026-09-01T01:14:04Z</time>
  <course>191.23</course>
  <speed>0.966902270139025</speed>
  <fix>3d</fix>
</trkpt>
<trkpt lat="33.8098272" lon="-118.3939715">
  <ele>-44.41</ele>
  <time>2026-09-01T01:14:04Z</time>
  <course>190.18</course>
  <speed>0.99</speed>
  <fix>3d</fix>
</trkpt>
<trkpt lat="33.8098253" lon="-118.3939721">
  <ele>-45.775</ele>
  <time>2026-09-01T01:14:04Z</time>
  <course>191.23</course>
  <speed>0.9688137075826292</speed>
  <fix>3d</fix>
</trkpt>
<trkpt lat="33.8098272" lon="-118.3939715">
  <ele>-44.41</ele>
  <time>2026-09-01T01:14:04Z</time>
  <course>190.18</course>
  <speed>0.99</speed>
  <fix>3d</fix>
</trkpt>
<trkpt lat="33.8098244" lon="-118.3939723">
  <ele>-45.859</ele>
  <time>2026-09-01T01:14:04Z</time>
  <course>191.24</course>
  <speed>0.9786214794290998</speed>
  <fix>3d</fix>
</trkpt>
<trkpt lat="33.8098255" lon="-118.393972">
  <ele>-44.58</ele>
  <time>2026-09-01T01:14:04Z</time>
  <course>190.2</course>
  <speed>0.99</speed>
  <fix>3d</fix>
</trkpt>
<trkpt lat="33.8098236" lon="-118.3939725">
  <ele>-45.942</ele>
  <time>2026-09-01T01:14:04Z</time>
  <course>191.25</course>
  <speed>0.9786214794290998</speed>
  <fix>3d</fix>
</trkpt>
<trkpt lat="33.8098255" lon="-118.393972">
  <ele>-44.58</ele>
  <time>2026-09-01T01:14:04Z</time>
  <course>190.2</course>
  <speed>0.99</speed>
  <fix>3d</fix>
</trkpt>
<trkpt lat="33.8098227" lon="-118.3939727">
  <ele>-46.024</ele>
  <time>2026-09-01T01:14:04Z</time>
  <course>191.24</course>
  <speed>0.9767292357659824</speed>
  <fix>3d</fix>
</trkpt>
<trkpt lat="33.8098236" lon="-118.3939723">
  <ele>-44.73</ele>
  <time>2026-09-01T01:14:04Z</time>
  <course>190.2</course>
  <speed>0.99</speed>
  <fix>3d</fix>
</trkpt>
<trkpt lat="33.8098218" lon="-118.3939729">
  <ele>-46.107</ele>
  <time>2026-09-01T01:14:04Z</time>
  <course>191.23</course>
  <speed>0.9786214794290998</speed>
  <fix>3d</fix>
</trkpt>
<trkpt lat="33.8098236" lon="-118.3939723">
  <ele>-44.73</ele>
  <time>2026-09-01T01:14:04Z</time>
  <course>190.2</course>
  <speed>0.99</speed>
  <fix>3d</fix>
</trkpt>
<trkpt lat="33.8098209" lon="-118.3939731">
  <ele>-46.19</ele>
  <time>2026-09-01T01:14:04Z</time>
  <course>191.22</course>
  <speed>0.9767292357659824</speed>
  <fix>3d</fix>
</trkpt>
<trkpt lat="33.8098219" lon="-118.3939727">
  <ele>-44.9</ele>
  <time>2026-09-01T01:14:04Z</time>
  <course>190.17</course>
  <speed>0.99</speed>
  <fix>3d</fix>
</trkpt>
<trkpt lat="33.80982" lon="-118.3939732">
  <ele>-46.272</ele>
  <time>2026-09-01T01:14:04Z</time>
  <course>191.23</course>
  <speed>0.9688137075826292</speed>
  <fix>3d</fix>
</trkpt>
<trkpt lat="33.8098219" lon="-118.3939727">
  <ele>-44.9</ele>
  <time>2026-09-01T01:14:04Z</time>
  <course>190.17</course>
  <speed>0.99</speed>
  <fix>3d</fix>
</trkpt>
<trkpt lat="33.8098191" lon="-118.3939734">
  <ele>-46.353</ele>
  <time>2026-09-01T01:14:04Z</time>
  <course>191.24</course>
  <speed>0.9688137075826292</speed>
  <fix>3d</fix>
</trkpt>
<trkpt lat="33.8098202" lon="-118.3939731">
  <ele>-45.05</ele>
  <time>2026-09-01T01:14:04Z</time>
  <course>190.18</course>
  <speed>0.99</speed>
  <fix>3d</fix>
</trkpt>
<trkpt lat="33.8098182" lon="-118.3939736">
  <ele>-46.435</ele>
  <time>2026-09-01T01:14:04Z</time>
  <course>191.24</course>
  <speed>0.966902270139025</speed>
  <fix>3d</fix>
</trkpt>
<trkpt lat="33.8098202" lon="-118.3939731">
  <ele>-45.05</ele>
  <time>2026-09-01T01:14:04Z</time>
  <course>190.18</course>
  <speed>0.99</speed>
  <fix>3d</fix>
</trkpt>
<trkpt lat="33.8098174" lon="-118.3939738">
  <ele>-46.516</ele>
  <time>2026-09-01T01:14:04Z</time>
  <course>191.23</course>
  <speed>0.966902270139025</speed>
  <fix>3d</fix>
</trkpt>
<trkpt lat="33.8098184" lon="-118.3939734">
  <ele>-45.22</ele>
  <time>2026-09-01T01:14:04Z</time>
  <course>190.18</course>
  <speed>0.99</speed>
  <fix>3d</fix>
</trkpt>
<trkpt lat="33.8098165" lon="-118.393974">
  <ele>-46.598</ele>
  <time>2026-09-01T01:14:04Z</time>
  <course>191.23</course>
  <speed>0.9688137075826292</speed>
  <fix>3d</fix>
</trkpt>
<trkpt lat="33.8098184" lon="-118.3939734">
  <ele>-45.22</ele>
  <time>2026-09-01T01:14:04Z</time>
  <course>190.18</course>
  <speed>0.99</speed>
  <fix>3d</fix>
</trkpt>
<trkpt lat="33.8098156" lon="-118.3939742">
  <ele>-46.681</ele>
  <time>2026-09-01T01:14:04Z</time>
  <course>191.24</course>
  <speed>0.966902270139025</speed>
  <fix>3d</fix>
</trkpt>
<trkpt lat="33.8098167" lon="-118.3939739">
  <ele>-45.37</ele>
  <time>2026-09-01T01:14:04Z</time>
  <course>190.19</course>
  <speed>0.99</speed>
  <fix>3d</fix>
</trkpt>
<trkpt lat="33.8098147" lon="-118.3939744">
  <ele>-46.764</ele>
  <time>2026-09-01T01:14:04Z</time>
  <course>191.24</course>
  <speed>0.966902270139025</speed>
  <fix>3d</fix>
</trkpt>
<trkpt lat="33.8098167" lon="-118.3939739">
  <ele>-45.37</ele>
  <time>2026-09-01T01:14:04Z</time>
  <course>190.19</course>
  <speed>0.99</speed>
  <fix>3d</fix>
</trkpt>
<trkpt lat="33.8098138" lon="-118.3939746">
  <ele>-46.847</ele>
  <time>2026-09-01T01:14:04Z</time>
  <course>191.24</course>
  <speed>0.966902270139025</speed>
  <fix>3d</fix>
</trkpt>
<trkpt lat="33.8098148" lon="-118.3939742">
  <ele>-45.54</ele>
  <time>2026-09-01T01:14:04Z</time>
  <course>190.19</course>
  <speed>0.99</speed>
  <fix>3d</fix>
</trkpt>
<trkpt lat="33.809813" lon="-118.3939748">
  <ele>-46.93</ele>
  <time>2026-09-01T01:14:04Z</time>
  <course>191.22</course>
  <speed>0.966902270139025</speed>
  <fix>3d</fix>
</trkpt>
<trkpt lat="33.8098148" lon="-118.3939742">
  <ele>-45.54</ele>
  <time>2026-09-01T01:14:04Z</time>
  <course>190.19</course>
  <speed>0.99</speed>
  <fix>3d</fix>
</trkpt>
<trkpt lat="33.8098121" lon="-118.393975">
  <ele>-47.013</ele>
  <time>2026-09-01T01:14:04Z</time>
  <course>191.21</course>
  <speed>0.966902270139025</speed>
  <fix>3d</fix>
</trkpt>
<trkpt lat="33.8098131" lon="-118.3939746">
  <ele>-45.69</ele>
  <time>2026-09-01T01:14:04Z</time>
  <course>190.17</course>
  <speed>0.99</speed>
  <fix>3d</fix>
</trkpt>
<trkpt lat="33.8098112" lon="-118.3939751">
  <ele>-47.096</ele>
  <time>2026-09-01T01:14:04Z</time>
  <course>191.22</course>
  <speed>0.966902270139025</speed>
  <fix>3d</fix>
</trkpt>
<trkpt lat="33.8098131" lon="-118.3939746">
  <ele>-45.69</ele>
  <time>2026-09-01T01:14:04Z</time>
  <course>190.17</course>
  <speed>0.99</speed>
  <fix>3d</fix>
</trkpt>
<trkpt lat="33.8098103" lon="-118.3939753">
  <ele>-47.179</ele>
  <time>2026-09-01T01:14:04Z</time>
  <course>191.22</course>
  <speed>0.966902270139025</speed>
  <fix>3d</fix>
</trkpt>
<trkpt lat="33.8098114" lon="-118.393975">
  <ele>-45.86</ele>
  <time>2026-09-01T01:14:04Z</time>
  <course>190.18</course>
  <speed>0.99</speed>
  <fix>3d</fix>
</trkpt>
<trkpt lat="33.8098094" lon="-118.3939755">
  <ele>-47.263</ele>
  <time>2026-09-01T01:14:04Z</time>
  <course>191.22</course>
  <speed>0.9786214794290998</speed>
  <fix>3d</fix>
</trkpt>
<trkpt lat="33.8098114" lon="-118.393975">
  <ele>-45.86</ele>
  <time>2026-09-01T01:14:04Z</time>
  <course>190.18</course>
  <speed>0.99</speed>
  <fix>3d</fix>
</trkpt>
<trkpt lat="33.8098085" lon="-118.3939757">
  <ele>-47.348</ele>
  <time>2026-09-01T01:14:04Z</time>
  <course>191.21</course>
  <speed>0.9786214794290998</speed>
  <fix>3d</fix>
</trkpt>
<trkpt lat="33.8098095" lon="-118.3939753">
  <ele>-46.03</ele>
  <time>2026-09-01T01:14:04Z</time>
  <course>190.17</course>
  <speed>0.99</speed>
  <fix>3d</fix>
</trkpt>
<trkpt lat="33.8098077" lon="-118.3939759">
  <ele>-47.432</ele>
  <time>2026-09-01T01:14:04Z</time>
  <course>191.21</course>
  <speed>0.9786214794290998</speed>
  <fix>3d</fix>
</trkpt>
<trkpt lat="33.8098095" lon="-118.3939753">
  <ele>-46.03</ele>
  <time>2026-09-01T01:14:04Z</time>
  <course>190.17</course>
  <speed>0.99</speed>
  <fix>3d</fix>
</trkpt>
<trkpt lat="33.8098068" lon="-118.3939761">
  <ele>-47.516</ele>
  <time>2026-09-01T01:14:04Z</time>
  <course>191.23</course>
  <speed>0.9786214794290998</speed>
  <fix>3d</fix>
</trkpt>
<trkpt lat="33.8098078" lon="-118.3939758">
  <ele>-46.19</ele>
  <time>2026-09-01T01:14:04Z</time>
  <course>190.18</course>
  <speed>1.0</speed>
  <fix>3d</fix>
</trkpt>
<trkpt lat="33.8098059" lon="-118.3939763">
  <ele>-47.599</ele>
  <time>2026-09-01T01:14:04Z</time>
  <course>191.25</course>
  <speed>0.9786214794290998</speed>
  <fix>3d</fix>
</trkpt>
<trkpt lat="33.8098078" lon="-118.3939758">
  <ele>-46.19</ele>
  <time>2026-09-01T01:14:04Z</time>
  <course>190.18</course>
  <speed>1.0</speed>
  <fix>3d</fix>
</trkpt>
<trkpt lat="33.809805" lon="-118.3939765">
  <ele>-47.682</ele>
  <time>2026-09-01T01:14:04Z</time>
  <course>191.25</course>
  <speed>0.9786214794290998</speed>
  <fix>3d</fix>
</trkpt>
<trkpt lat="33.8098061" lon="-118.3939762">
  <ele>-46.35</ele>
  <time>2026-09-01T01:14:04Z</time>
  <course>190.2</course>
  <speed>1.0</speed>
  <fix>3d</fix>
</trkpt>
<trkpt lat="33.8098041" lon="-118.3939767">
  <ele>-47.763</ele>
  <time>2026-09-01T01:14:04Z</time>
  <course>191.23</course>
  <speed>0.9786214794290998</speed>
  <fix>3d</fix>
</trkpt>
<trkpt lat="33.8098061" lon="-118.3939762">
  <ele>-46.35</ele>
  <time>2026-09-01T01:14:04Z</time>
  <course>190.2</course>
  <speed>1.0</speed>
  <fix>3d</fix>
</trkpt>
<trkpt lat="33.8098032" lon="-118.3939769">
  <ele>-47.844</ele>
  <time>2026-09-01T01:14:04Z</time>
  <course>191.2</course>
  <speed>0.9767292357659824</speed>
  <fix>3d</fix>
</trkpt>
<trkpt lat="33.8098042" lon="-118.3939765">
  <ele>-46.5</ele>
  <time>2026-09-01T01:14:04Z</time>
  <course>190.15</course>
  <speed>1.0</speed>
  <fix>3d</fix>
</trkpt>
<trkpt lat="33.8098023" lon="-118.3939771">
  <ele>-47.925</ele>
  <time>2026-09-01T01:14:04Z</time>
  <course>191.17</course>
  <speed>0.9767292357659824</speed>
  <fix>3d</fix>
</trkpt>
<trkpt lat="33.8098042" lon="-118.3939765">
  <ele>-46.5</ele>
  <time>2026-09-01T01:14:04Z</time>
  <course>190.15</course>
  <speed>1.0</speed>
  <fix>3d</fix>
</trkpt>
<trkpt lat="33.8098015" lon="-118.3939773">
  <ele>-48.005</ele>
  <time>2026-09-01T01:14:04Z</time>
  <course>191.15</course>
  <speed>0.9767292357659824</speed>
  <fix>3d</fix>
</trkpt>
<trkpt lat="33.8098025" lon="-118.3939769">
  <ele>-46.66</ele>
  <time>2026-09-01T01:14:04Z</time>
  <course>190.12</course>
  <speed>1.0</speed>
  <fix>3d</fix>
</trkpt>
<trkpt lat="33.8098006" lon="-118.3939774">
  <ele>-48.085</ele>
  <time>2026-09-01T01:14:04Z</time>
  <course>191.15</course>
  <speed>0.966902270139025</speed>
  <fix>3d</fix>
</trkpt>
<trkpt lat="33.8098025" lon="-118.3939769">
  <ele>-46.66</ele>
  <time>2026-09-01T01:14:04Z</time>
  <course>190.12</course>
  <speed>1.0</speed>
  <fix>3d</fix>
</trkpt>
<trkpt lat="33.8097997" lon="-118.3939776">
  <ele>-48.166</ele>
  <time>2026-09-01T01:14:04Z</time>
  <course>191.15</course>
  <speed>0.966902270139025</speed>
  <fix>3d</fix>
</trkpt>
<trkpt lat="33.8098007" lon="-118.3939773">
  <ele>-46.82</ele>
  <time>2026-09-01T01:14:04Z</time>
  <course>190.13</course>
  <speed>0.99</speed>
  <fix>3d</fix>
</trkpt>
<trkpt lat="33.8097988" lon="-118.3939778">
  <ele>-48.249</ele>
  <time>2026-09-01T01:14:04Z</time>
  <course>191.16</course>
  <speed>0.966902270139025</speed>
  <fix>3d</fix>
</trkpt>
<trkpt lat="33.8098007" lon="-118.3939773">
  <ele>-46.82</ele>
  <time>2026-09-01T01:14:04Z</time>
  <course>190.13</course>
  <speed>0.99</speed>
  <fix>3d</fix>
</trkpt>
<trkpt lat="33.8097979" lon="-118.393978">
  <ele>-48.332</ele>
  <time>2026-09-01T01:14:04Z</time>
  <course>191.16</course>
  <speed>0.966902270139025</speed>
  <fix>3d</fix>
</trkpt>
<trkpt lat="33.809799" lon="-118.3939777">
  <ele>-46.98</ele>
  <time>2026-09-01T01:14:04Z</time>
  <course>190.13</course>
  <speed>0.99</speed>
  <fix>3d</fix>
</trkpt>
<trkpt lat="33.8097971" lon="-118.3939782">
  <ele>-48.416</ele>
  <time>2026-09-01T01:14:04Z</time>
  <course>191.15</course>
  <speed>0.966902270139025</speed>
  <fix>3d</fix>
</trkpt>
<trkpt lat="33.809799" lon="-118.3939777">
  <ele>-46.98</ele>
  <time>2026-09-01T01:14:04Z</time>
  <course>190.13</course>
  <speed>0.99</speed>
  <fix>3d</fix>
</trkpt>
<trkpt lat="33.8097962" lon="-118.3939784">
  <ele>-48.498</ele>
  <time>2026-09-01T01:14:04Z</time>
  <course>191.13</course>
  <speed>0.966902270139025</speed>
  <fix>3d</fix>
</trkpt>
<trkpt lat="33.8097972" lon="-118.3939781">
  <ele>-47.15</ele>
  <time>2026-09-01T01:14:04Z</time>
  <course>190.1</course>
  <speed>0.99</speed>
  <fix>3d</fix>
</trkpt>
<trkpt lat="33.8097953" lon="-118.3939786">
  <ele>-48.581</ele>
  <time>2026-09-01T01:14:04Z</time>
  <course>191.12</course>
  <speed>0.966902270139025</speed>
  <fix>3d</fix>
</trkpt>
<trkpt lat="33.8097972" lon="-118.3939781">
  <ele>-47.15</ele>
  <time>2026-09-01T01:14:04Z</time>
  <course>190.1</course>
  <speed>0.99</speed>
  <fix>3d</fix>
</trkpt>
<trkpt lat="33.8097944" lon="-118.3939788">
  <ele>-48.664</ele>
  <time>2026-09-01T01:14:04Z</time>
  <course>191.09</course>
  <speed>0.966902270139025</speed>
  <fix>3d</fix>
</trkpt>
<trkpt lat="33.8097954" lon="-118.3939784">
  <ele>-47.31</ele>
  <time>2026-09-01T01:14:04Z</time>
  <course>190.07</course>
  <speed>0.99</speed>
  <fix>3d</fix>
</trkpt>
<trkpt lat="33.8097935" lon="-118.393979">
  <ele>-48.747</ele>
  <time>2026-09-01T01:14:04Z</time>
  <course>191.09</course>
  <speed>0.966902270139025</speed>
  <fix>3d</fix>
</trkpt>
<trkpt lat="33.8097954" lon="-118.3939784">
  <ele>-47.31</ele>
  <time>2026-09-01T01:14:04Z</time>
  <course>190.07</course>
  <speed>0.99</speed>
  <fix>3d</fix>
</trkpt>
<trkpt lat="33.8097926" lon="-118.3939792">
  <ele>-48.831</ele>
  <time>2026-09-01T01:14:04Z</time>
  <course>191.09</course>
  <speed>0.966902270139025</speed>
  <fix>3d</fix>
</trkpt>
<trkpt lat="33.8097937" lon="-118.3939788">
  <ele>-47.48</ele>
  <time>2026-09-01T01:14:04Z</time>
  <course>190.07</course>
  <speed>0.99</speed>
  <fix>3d</fix>
</trkpt>
<trkpt lat="33.8097918" lon="-118.3939793">
  <ele>-48.915</ele>
  <time>2026-09-01T01:14:04Z</time>
  <course>191.1</course>
  <speed>0.966902270139025</speed>
  <fix>3d</fix>
</trkpt>
<trkpt lat="33.8097937" lon="-118.3939788">
  <ele>-47.48</ele>
  <time>2026-09-01T01:14:04Z</time>
  <course>190.07</course>
  <speed>0.99</speed>
  <fix>3d</fix>
</trkpt>
<trkpt lat="33.8097909" lon="-118.3939795">
  <ele>-48.998</ele>
  <time>2026-09-01T01:14:04Z</time>
  <course>191.11</course>
  <speed>0.966902270139025</speed>
  <fix>3d</fix>
</trkpt>
<trkpt lat="33.8097919" lon="-118.3939792">
  <ele>-47.64</ele>
  <time>2026-09-01T01:14:04Z</time>
  <course>190.09</course>
  <speed>0.99</speed>
  <fix>3d</fix>
</trkpt>
<trkpt lat="33.80979" lon="-118.3939797">
  <ele>-49.082</ele>
  <time>2026-09-01T01:14:04Z</time>
  <course>191.13</course>
  <speed>0.966902270139025</speed>
  <fix>3d</fix>
</trkpt>
<trkpt lat="33.8097919" lon="-118.3939792">
  <ele>-47.64</ele>
  <time>2026-09-01T01:14:04Z</time>
  <course>190.09</course>
  <speed>0.99</speed>
  <fix>3d</fix>
</trkpt>
<trkpt lat="33.8097891" lon="-118.3939799">
  <ele>-49.167</ele>
  <time>2026-09-01T01:14:04Z</time>
  <course>191.13</course>
  <speed>0.966902270139025</speed>
  <fix>3d</fix>
</trkpt>
<trkpt lat="33.8097901" lon="-118.3939796">
  <ele>-47.8</ele>
  <time>2026-09-01T01:14:04Z</time>
  <course>190.1</course>
  <speed>0.99</speed>
  <fix>3d</fix>
</trkpt>
<trkpt lat="33.8097882" lon="-118.3939801">
  <ele>-49.251</ele>
  <time>2026-09-01T01:14:04Z</time>
  <course>191.14</course>
  <speed>0.9570788891204319</speed>
  <fix>3d</fix>
</trkpt>
<trkpt lat="33.8097901" lon="-118.3939796">
  <ele>-47.8</ele>
  <time>2026-09-01T01:14:04Z</time>
  <course>190.1</course>
  <speed>0.99</speed>
  <fix>3d</fix>
</trkpt>
<trkpt lat="33.8097874" lon="-118.3939803">
  <ele>-49.333</ele>
  <time>2026-09-01T01:14:04Z</time>
  <course>191.13</course>
  <speed>0.9472592042308166</speed>
  <fix>3d</fix>
</trkpt>
<trkpt lat="33.8097884" lon="-118.3939799">
  <ele>-47.97</ele>
  <time>2026-09-01T01:14:04Z</time>
  <course>190.11</course>
  <speed>0.99</speed>
  <fix>3d</fix>
</trkpt>
<trkpt lat="33.8097865" lon="-118.3939805">
  <ele>-49.414</ele>
  <time>2026-09-01T01:14:04Z</time>
  <course>191.15</course>
  <speed>0.9374433316206372</speed>
  <fix>3d</fix>
</trkpt>
<trkpt lat="33.8097884" lon="-118.3939799">
  <ele>-47.97</ele>
  <time>2026-09-01T01:14:04Z</time>
  <course>190.11</course>
  <speed>0.99</speed>
  <fix>3d</fix>
</trkpt>
<trkpt lat="33.8097857" lon="-118.3939807">
  <ele>-49.491</ele>
  <time>2026-09-01T01:14:04Z</time>
  <course>191.17</course>
  <speed>0.9178235124467012</speed>
  <fix>3d</fix>
</trkpt>
<trkpt lat="33.8097866" lon="-118.3939803">
  <ele>-48.12</ele>
  <time>2026-09-01T01:14:04Z</time>
  <course>190.14</course>
  <speed>0.97</speed>
  <fix>3d</fix>
</trkpt>
<trkpt lat="33.8097849" lon="-118.3939808">
  <ele>-49.565</ele>
  <time>2026-09-01T01:14:04Z</time>
  <course>191.22</course>
  <speed>0.8864536084872124</speed>
  <fix>3d</fix>
</trkpt>
<trkpt lat="33.8097866" lon="-118.3939803">
  <ele>-48.12</ele>
  <time>2026-09-01T01:14:04Z</time>
  <course>190.14</course>
  <speed>0.97</speed>
  <fix>3d</fix>
</trkpt>
<trkpt lat="33.8097841" lon="-118.393981">
  <ele>-49.634</ele>
  <time>2026-09-01T01:14:04Z</time>
  <course>191.29</course>
  <speed>0.8354639429682169</speed>
  <fix>3d</fix>
</trkpt>
<trkpt lat="33.809785" lon="-118.3939806">
  <ele>-48.27</ele>
  <time>2026-09-01T01:14:04Z</time>
  <course>190.24</course>
  <speed>0.93</speed>
  <fix>3d</fix>
</trkpt>
<trkpt lat="33.8097834" lon="-118.3939812">
  <ele>-49.698</ele>
  <time>2026-09-01T01:14:04Z</time>
  <course>191.38</course>
  <speed>0.7844743462982074</speed>
  <fix>3d</fix>
</trkpt>
<trkpt lat="33.809785" lon="-118.3939806">
  <ele>-48.27</ele>
  <time>2026-09-01T01:14:04Z</time>
  <course>190.24</course>
  <speed>0.93</speed>
  <fix>3d</fix>
</trkpt>
<trkpt lat="33.8097827" lon="-118.3939813">
  <ele>-49.758</ele>
  <time>2026-09-01T01:14:04Z</time>
  <course>191.51</course>
  <speed>0.723671196055225</speed>
  <fix>3d</fix>
</trkpt>
<trkpt lat="33.8097834" lon="-118.393981">
  <ele>-48.41</ele>
  <time>2026-09-01T01:14:04Z</time>
  <course>190.39</course>
  <speed>0.85</speed>
  <fix>3d</fix>
</trkpt>
<trkpt lat="33.809782" lon="-118.3939814">
  <ele>-49.813</ele>
  <time>2026-09-01T01:14:04Z</time>
  <course>191.68</course>
  <speed>0.6530696746902278</speed>
  <fix>3d</fix>
</trkpt>
<trkpt lat="33.8097834" lon="-118.393981">
  <ele>-48.41</ele>
  <time>2026-09-01T01:14:04Z</time>
  <course>190.39</course>
  <speed>0.85</speed>
  <fix>3d</fix>
</trkpt>
<trkpt lat="33.8097815" lon="-118.3939816">
  <ele>-49.86</ele>
  <time>2026-09-01T01:14:04Z</time>
  <course>191.91</course>
  <speed>0.5824946351684279</speed>
  <fix>3d</fix>
</trkpt>
<trkpt lat="33.8097819" lon="-118.3939813">
  <ele>-48.52</ele>
  <time>2026-09-01T01:14:04Z</time>
  <course>190.59</course>
  <speed>0.73</speed>
  <fix>3d</fix>
</trkpt>
<trkpt lat="33.8097809" lon="-118.3939817">
  <ele>-49.901</ele>
  <time>2026-09-01T01:14:04Z</time>
  <course>192.21</course>
  <speed>0.5217278984298233</speed>
  <fix>3d</fix>
</trkpt>
<trkpt lat="33.8097819" lon="-118.3939813">
  <ele>-48.52</ele>
  <time>2026-09-01T01:14:04Z</time>
  <course>190.59</course>
  <speed>0.73</speed>
  <fix>3d</fix>
</trkpt>
<trkpt lat="33.8097805" lon="-118.3939818">
  <ele>-49.936</ele>
  <time>2026-09-01T01:14:04Z</time>
  <course>192.68</course>
  <speed>0.4491102314577124</speed>
  <fix>3d</fix>
</trkpt>
<trkpt lat="33.8097808" lon="-118.3939816">
  <ele>-48.61</ele>
  <time>2026-09-01T01:14:04Z</time>
  <course>190.84</course>
  <speed>0.6</speed>
  <fix>3d</fix>
</trkpt>
<trkpt lat="33.8097801" lon="-118.3939819">
  <ele>-49.964</ele>
  <time>2026-09-01T01:14:04Z</time>
  <course>193.42</course>
  <speed>0.388329756778952</speed>
  <fix>3d</fix>
</trkpt>
<trkpt lat="33.8097808" lon="-118.3939816">
  <ele>-48.61</ele>
  <time>2026-09-01T01:14:04Z</time>
  <course>190.84</course>
  <speed>0.6</speed>
  <fix>3d</fix>
</trkpt>
<trkpt lat="33.8097797" lon="-118.393982">
  <ele>-49.988</ele>
  <time>2026-09-01T01:14:04Z</time>
  <course>194.59</course>
  <speed>0.33734255586865997</speed>
  <fix>3d</fix>
</trkpt>
<trkpt lat="33.8097798" lon="-118.3939818">
  <ele>-48.68</ele>
  <time>2026-09-01T01:14:04Z</time>
  <course>191.14</course>
  <speed>0.46</speed>
  <fix>3d</fix>
</trkpt>
<trkpt lat="33.8097794" lon="-118.393982">
  <ele>-50.006</ele>
  <time>2026-09-01T01:14:04Z</time>
  <course>195.25</course>
  <speed>0.29614185789921693</speed>
  <fix>3d</fix>
</trkpt>
<trkpt lat="33.8097798" lon="-118.3939818">
  <ele>-48.68</ele>
  <time>2026-09-01T01:14:04Z</time>
  <course>191.14</course>
  <speed>0.46</speed>
  <fix>3d</fix>
</trkpt>
<trkpt lat="33.8097791" lon="-118.3939821">
  <ele>-50.019</ele>
  <time>2026-09-01T01:14:04Z</time>
  <course>195.21</course>
  <speed>0.2570992026436488</speed>
  <fix>3d</fix>
</trkpt>
<trkpt lat="33.8097791" lon="-118.393982">
  <ele>-48.73</ele>
  <time>2026-09-01T01:14:04Z</time>
  <course>191.4</course>
  <speed>0.36</speed>
  <fix>3d</fix>
</trkpt>
<trkpt lat="33.8097788" lon="-118.3939821">
  <ele>-50.026</ele>
  <time>2026-09-01T01:14:04Z</time>
  <course>195.33</course>
  <speed>0.215870331449229</speed>
  <fix>3d</fix>
</trkpt>
<trkpt lat="33.8097791" lon="-118.393982">
  <ele>-48.73</ele>
  <time>2026-09-01T01:14:04Z</time>
  <course>191.4</course>
  <speed>0.36</speed>
  <fix>3d</fix>
</trkpt>
<trkpt lat="33.8097786" lon="-118.3939822">
  <ele>-50.027</ele>
  <time>2026-09-01T01:14:04Z</time>
  <course>196.98</course>
  <speed>0.17464249196572978</speed>
  <fix>3d</fix>
</trkpt>
<trkpt lat="33.8097785" lon="-118.3939821">
  <ele>-48.76</ele>
  <time>2026-09-01T01:14:04Z</time>
  <course>191.99</course>
  <speed>0.27</speed>
  <fix>3d</fix>
</trkpt>
<trkpt lat="33.8097785" lon="-118.3939822">
  <ele>-50.026</ele>
  <time>2026-09-01T01:14:04Z</time>
  <course>199.83</course>
  <speed>0.1264911064067352</speed>
  <fix>3d</fix>
</trkpt>
<trkpt lat="33.8097785" lon="-118.3939821">
  <ele>-48.76</ele>
  <time>2026-09-01T01:14:04Z</time>
  <course>191.99</course>
  <speed>0.27</speed>
  <fix>3d</fix>
</trkpt>
<trkpt lat="33.8097783" lon="-118.3939823">
  <ele>-50.023</ele>
  <time>2026-09-01T01:14:04Z</time>
  <course>203.18</course>
  <speed>0.09486832980505139</speed>
  <fix>3d</fix>
</trkpt>
<trkpt lat="33.8097781" lon="-118.3939822">
  <ele>-48.77</ele>
  <time>2026-09-01T01:14:04Z</time>
  <course>193.9</course>
  <speed>0.18</speed>
  <fix>3d</fix>
</trkpt>
<trkpt lat="33.8097782" lon="-118.3939823">
  <ele>-50.018</ele>
  <time>2026-09-01T01:14:04Z</time>
  <course>206.81</course>
  <speed>0.0670820393249937</speed>
  <fix>3d</fix>
</trkpt>
<trkpt lat="33.8097781" lon="-118.3939822">
  <ele>-48.77</ele>
  <time>2026-09-01T01:14:04Z</time>
  <course>193.9</course>
  <speed>0.18</speed>
  <fix>3d</fix>
</trkpt>
<trkpt lat="33.8097781" lon="-118.3939823">
  <ele>-50.013</ele>
  <time>2026-09-01T01:14:04Z</time>
  <course>210.63</course>
  <speed>0.044721359549995794</speed>
  <fix>3d</fix>
</trkpt>
<trkpt lat="33.8097779" lon="-118.3939823">
  <ele>-48.78</ele>
  <time>2026-09-01T01:14:04Z</time>
  <course>198.17</course>
  <speed>0.1</speed>
  <fix>3d</fix>
</trkpt>
<trkpt lat="33.8097781" lon="-118.3939823">
  <ele>-50.008</ele>
  <time>2026-09-01T01:14:04Z</time>
  <course>214.35</course>
  <speed>0.0282842712474619</speed>
  <fix>3d</fix>
</trkpt>
<trkpt lat="33.8097779" lon="-118.3939823">
  <ele>-48.78</ele>
  <time>2026-09-01T01:14:04Z</time>
  <course>198.17</course>
  <speed>0.1</speed>
  <fix>3d</fix>
</trkpt>
<trkpt lat="33.809778" lon="-118.3939824">
  <ele>-50.006</ele>
  <time>2026-09-01T01:14:04Z</time>
  <course>217.76</course>
  <speed>0.01</speed>
  <fix>3d</fix>
</trkpt>
<trkpt lat="33.8097778" lon="-118.3939824">
  <ele>-48.78</ele>
  <time>2026-09-01T01:14:04Z</time>
  <course>206.21</course>
  <speed>0.05</speed>
  <fix>3d</fix>
</trkpt>
<trkpt lat="33.809778" lon="-118.3939824">
  <ele>-50.006</ele>
  <time>2026-09-01T01:14:04Z</time>
  <course>221.54</course>
  <speed>0.02</speed>
  <fix>3d</fix>
</trkpt>
<trkpt lat="33.8097778" lon="-118.3939824">
  <ele>-48.78</ele>
  <time>2026-09-01T01:14:04Z</time>
  <course>206.21</course>
  <speed>0.05</speed>
  <fix>3d</fix>
</trkpt>
<trkpt lat="33.809778" lon="-118.3939824">
  <ele>-50.008</ele>
  <time>2026-09-01T01:14:04Z</time>
  <course>225.66</course>
  <speed>0.0412310562561766</speed>
  <fix>3d</fix>
</trkpt>
<trkpt lat="33.8097777" lon="-118.3939824">
  <ele>-48.78</ele>
  <time>2026-09-01T01:14:04Z</time>
  <course>234.07</course>
  <speed>0.03</speed>
  <fix>3d</fix>
</trkpt>
<trkpt lat="33.809778" lon="-118.3939825">
  <ele>-50.01</ele>
  <time>2026-09-01T01:14:04Z</time>
  <course>229.98</course>
  <speed>0.07280109889280519</speed>
  <fix>3d</fix>
</trkpt>
<trkpt lat="33.8097777" lon="-118.3939824">
  <ele>-48.78</ele>
  <time>2026-09-01T01:14:04Z</time>
  <course>234.07</course>
  <speed>0.03</speed>
  <fix>3d</fix>
</trkpt>
<trkpt lat="33.809778" lon="-118.3939826">
  <ele>-50.014</ele>
  <time>2026-09-01T01:14:04Z</time>
  <course>234.47</course>
  <speed>0.11401754250991379</speed>
  <fix>3d</fix>
</trkpt>
<trkpt lat="33.8097777" lon="-118.3939825">
  <ele>-48.79</ele>
  <time>2026-09-01T01:14:04Z</time>
  <course>272.92</course>
  <speed>0.05</speed>
  <fix>3d</fix>
</trkpt>
<trkpt lat="33.809778" lon="-118.3939827">
  <ele>-50.017</ele>
  <time>2026-09-01T01:14:04Z</time>
  <course>239.09</course>
  <speed>0.16278820596099705</speed>
  <fix>3d</fix>
</trkpt>
<trkpt lat="33.8097777" lon="-118.3939825">
  <ele>-48.79</ele>
  <time>2026-09-01T01:14:04Z</time>
  <course>272.92</course>
  <speed>0.05</speed>
  <fix>3d</fix>
</trkpt>
<trkpt lat="33.809778" lon="-118.3939829">
  <ele>-50.018</ele>
  <time>2026-09-01T01:14:04Z</time>
  <course>243.83</course>
  <speed>0.21377558326431947</speed>
  <fix>3d</fix>
</trkpt>
<trkpt lat="33.8097777" lon="-118.3939827">
  <ele>-48.8</ele>
  <time>2026-09-01T01:14:04Z</time>
  <course>276.4</course>
  <speed>0.13</speed>
  <fix>3d</fix>
</trkpt>
<trkpt lat="33.809778" lon="-118.3939832">
  <ele>-50.018</ele>
  <time>2026-09-01T01:14:05Z</time>
  <course>248.7</course>
  <speed>0.282842712474619</speed>
  <fix>3d</fix>
</trkpt>
<trkpt lat="33.8097777" lon="-118.3939827">
  <ele>-48.8</ele>
  <time>2026-09-01T01:14:05Z</time>
  <course>276.4</course>
  <speed>0.13</speed>
  <fix>3d</fix>
</trkpt>
<trkpt lat="33.809778" lon="-118.3939835">
  <ele>-50.019</ele>
  <time>2026-09-01T01:14:05Z</time>
  <course>253.7</course>
  <speed>0.3522782990761707</speed>
  <fix>3d</fix>
</trkpt>
<trkpt lat="33.8097778" lon="-118.3939831">
  <ele>-48.81</ele>
  <time>2026-09-01T01:14:05Z</time>
  <course>274.71</course>
  <speed>0.24</speed>
  <fix>3d</fix>
</trkpt>
<trkpt lat="33.809778" lon="-118.393984">
  <ele>-50.02</ele>
  <time>2026-09-01T01:14:05Z</time>
  <course>258.87</course>
  <speed>0.43185645763378366</speed>
  <fix>3d</fix>
</trkpt>
<trkpt lat="33.8097778" lon="-118.3939831">
  <ele>-48.81</ele>
  <time>2026-09-01T01:14:05Z</time>
  <course>274.71</course>
  <speed>0.24</speed>
  <fix>3d</fix>
</trkpt>
<trkpt lat="33.809778" lon="-118.3939845">
  <ele>-50.02</ele>
  <time>2026-09-01T01:14:05Z</time>
  <course>264.21</course>
  <speed>0.5015974481593781</speed>
  <fix>3d</fix>
</trkpt>
<trkpt lat="33.8097778" lon="-118.3939838">
  <ele>-48.82</ele>
  <time>2026-09-01T01:14:05Z</time>
  <course>273.32</course>
  <speed>0.39</speed>
  <fix>3d</fix>
</trkpt>
<trkpt lat="33.809778" lon="-118.393985">
  <ele>-50.021</ele>
  <time>2026-09-01T01:14:05Z</time>
  <course>269.75</course>
  <speed>0.5714017850864661</speed>
  <fix>3d</fix>
</trkpt>
<trkpt lat="33.8097778" lon="-118.3939838">
  <ele>-48.82</ele>
  <time>2026-09-01T01:14:05Z</time>
  <course>273.32</course>
  <speed>0.39</speed>
  <fix>3d</fix>
</trkpt>
<trkpt lat="33.809778" lon="-118.3939857">
  <ele>-50.022</ele>
  <time>2026-09-01T01:14:05Z</time>
  <course>275.48</course>
  <speed>0.6312685640834652</speed>
  <fix>3d</fix>
</trkpt>
<trkpt lat="33.8097778" lon="-118.3939848">
  <ele>-48.82</ele>
  <time>2026-09-01T01:14:05Z</time>
  <course>272.25</course>
  <speed>0.54</speed>
  <fix>3d</fix>
</trkpt>
<trkpt lat="33.809778" lon="-118.3939864">
  <ele>-50.022</ele>
  <time>2026-09-01T01:14:05Z</time>
  <course>281.11</course>
  <speed>0.6706713054842887</speed>
  <fix>3d</fix>
</trkpt>
<trkpt lat="33.8097778" lon="-118.3939848">
  <ele>-48.82</ele>
  <time>2026-09-01T01:14:05Z</time>
  <course>272.25</course>
  <speed>0.54</speed>
  <fix>3d</fix>
</trkpt>
<trkpt lat="33.809778" lon="-118.3939871">
  <ele>-50.024</ele>
  <time>2026-09-01T01:14:05Z</time>
  <course>286.26</course>
  <speed>0.6900724599634447</speed>
  <fix>3d</fix>
</trkpt>
<trkpt lat="33.8097778" lon="-118.3939861">
  <ele>-48.82</ele>
  <time>2026-09-01T01:14:05Z</time>
  <course>270.93</course>
  <speed>0.66</speed>
  <fix>3d</fix>
</trkpt>
<trkpt lat="33.809778" lon="-118.3939879">
  <ele>-50.025</ele>
  <time>2026-09-01T01:14:05Z</time>
  <course>290.52</course>
  <speed>0.73</speed>
  <fix>3d</fix>
</trkpt>
<trkpt lat="33.8097778" lon="-118.3939861">
  <ele>-48.82</ele>
  <time>2026-09-01T01:14:05Z</time>
  <course>270.93</course>
  <speed>0.66</speed>
  <fix>3d</fix>
</trkpt>
<trkpt lat="33.809778" lon="-118.3939887">
  <ele>-50.026</ele>
  <time>2026-09-01T01:14:05Z</time>
  <course>293.92</course>
  <speed>0.77</speed>
  <fix>3d</fix>
</trkpt>
<trkpt lat="33.8097778" lon="-118.3939877">
  <ele>-48.83</ele>
  <time>2026-09-01T01:14:05Z</time>
  <course>269.4</course>
  <speed>0.75</speed>
  <fix>3d</fix>
</trkpt>
<trkpt lat="33.809778" lon="-118.3939896">
  <ele>-50.027</ele>
  <time>2026-09-01T01:14:05Z</time>
  <course>296.68</course>
  <speed>0.8</speed>
  <fix>3d</fix>
</trkpt>
<trkpt lat="33.8097778" lon="-118.3939877">
  <ele>-48.83</ele>
  <time>2026-09-01T01:14:05Z</time>
  <course>269.4</course>
  <speed>0.75</speed>
  <fix>3d</fix>
</trkpt>
<trkpt lat="33.809778" lon="-118.3939905">
  <ele>-50.027</ele>
  <time>2026-09-01T01:14:05Z</time>
  <course>298.79</course>
  <speed>0.83</speed>
  <fix>3d</fix>
</trkpt>
<trkpt lat="33.8097778" lon="-118.3939894">
  <ele>-48.83</ele>
  <time>2026-09-01T01:14:05Z</time>
  <course>268.78</course>
  <speed>0.82</speed>
  <fix>3d</fix>
</trkpt>
<trkpt lat="33.809778" lon="-118.3939914">
  <ele>-50.026</ele>
  <time>2026-09-01T01:14:05Z</time>
  <course>300.03</course>
  <speed>0.84</speed>
  <fix>3d</fix>
</trkpt>
<trkpt lat="33.8097778" lon="-118.3939894">
  <ele>-48.83</ele>
  <time>2026-09-01T01:14:05Z</time>
  <course>268.78</course>
  <speed>0.82</speed>
  <fix>3d</fix>
</trkpt>
<trkpt lat="33.809778" lon="-118.3939924">
  <ele>-50.026</ele>
  <time>2026-09-01T01:14:05Z</time>
  <course>300.4</course>
  <speed>0.85</speed>
  <fix>3d</fix>
</trkpt>
<trkpt lat="33.8097778" lon="-118.3939912">
  <ele>-48.83</ele>
  <time>2026-09-01T01:14:05Z</time>
  <course>269.32</course>
  <speed>0.88</speed>
  <fix>3d</fix>
</trkpt>
<trkpt lat="33.8097779" lon="-118.3939933">
  <ele>-50.025</ele>
  <time>2026-09-01T01:14:05Z</time>
  <course>300.25</course>
  <speed>0.8600581375697809</speed>
  <fix>3d</fix>
</trkpt>
<trkpt lat="33.8097778" lon="-118.3939912">
  <ele>-48.83</ele>
  <time>2026-09-01T01:14:05Z</time>
  <course>269.32</course>
  <speed>0.88</speed>
  <fix>3d</fix>
</trkpt>
<trkpt lat="33.8097779" lon="-118.3939943">
  <ele>-50.026</ele>
  <time>2026-09-01T01:14:05Z</time>
  <course>299.98</course>
  <speed>0.8700574693662483</speed>
  <fix>3d</fix>
</trkpt>
<trkpt lat="33.8097778" lon="-118.3939932">
  <ele>-48.82</ele>
  <time>2026-09-01T01:14:05Z</time>
  <course>270.21</course>
  <speed>0.91</speed>
  <fix>3d</fix>
</trkpt>
<trkpt lat="33.8097779" lon="-118.3939953">
  <ele>-50.026</ele>
  <time>2026-09-01T01:14:05Z</time>
  <course>299.72</course>
  <speed>0.8700574693662483</speed>
  <fix>3d</fix>
</trkpt>
<trkpt lat="33.8097778" lon="-118.3939932">
  <ele>-48.82</ele>
  <time>2026-09-01T01:14:05Z</time>
  <course>270.21</course>
  <speed>0.91</speed>
  <fix>3d</fix>
</trkpt>
<trkpt lat="33.8097779" lon="-118.3939963">
  <ele>-50.026</ele>
  <time>2026-09-01T01:14:05Z</time>
  <course>299.53</course>
  <speed>0.880056816347672</speed>
  <fix>3d</fix>
</trkpt>
<trkpt lat="33.8097778" lon="-118.3939952">
  <ele>-48.82</ele>
  <time>2026-09-01T01:14:05Z</time>
  <course>271.03</course>
  <speed>0.93</speed>
  <fix>3d</fix>
</trkpt>
<trkpt lat="33.8097779" lon="-118.3939973">
  <ele>-50.026</ele>
  <time>2026-09-01T01:14:05Z</time>
  <course>299.37</course>
  <speed>0.8802272433866155</speed>
  <fix>3d</fix>
</trkpt>
<trkpt lat="33.8097778" lon="-118.3939952">
  <ele>-48.82</ele>
  <time>2026-09-01T01:14:05Z</time>
  <course>271.03</course>
  <speed>0.93</speed>
  <fix>3d</fix>
</trkpt>
<trkpt lat="33.809778" lon="-118.3939983">
  <ele>-50.024</ele>
  <time>2026-09-01T01:14:05Z</time>
  <course>299.24</course>
  <speed>0.8802272433866155</speed>
  <fix>3d</fix>
</trkpt>
<trkpt lat="33.8097778" lon="-118.3939972">
  <ele>-48.82</ele>
  <time>2026-09-01T01:14:05Z</time>
  <course>271.69</course>
  <speed>0.93</speed>
  <fix>3d</fix>
</trkpt>
<trkpt lat="33.809778" lon="-118.3939993">
  <ele>-50.021</ele>
  <time>2026-09-01T01:14:05Z</time>
  <course>299.11</course>
  <speed>0.8802272433866155</speed>
  <fix>3d</fix>
</trkpt>
<trkpt lat="33.8097778" lon="-118.3939972">
  <ele>-48.82</ele>
  <time>2026-09-01T01:14:05Z</time>
  <course>271.69</course>
  <speed>0.93</speed>
  <fix>3d</fix>
</trkpt>
<trkpt lat="33.809778" lon="-118.3940003">
  <ele>-50.019</ele>
  <time>2026-09-01T01:14:05Z</time>
  <course>298.99</course>
  <speed>0.8802272433866155</speed>
  <fix>3d</fix>
</trkpt>
<trkpt lat="33.8097778" lon="-118.3939993">
  <ele>-48.82</ele>
  <time>2026-09-01T01:14:05Z</time>
  <course>272.15</course>
  <speed>0.94</speed>
  <fix>3d</fix>
</trkpt>
<trkpt lat="33.809778" lon="-118.3940013">
  <ele>-50.018</ele>
  <time>2026-09-01T01:14:05Z</time>
  <course>298.88</course>
  <speed>0.8802272433866155</speed>
  <fix>3d</fix>
</trkpt>
<trkpt lat="33.8097778" lon="-118.3939993">
  <ele>-48.82</ele>
  <time>2026-09-01T01:14:05Z</time>
  <course>272.15</course>
  <speed>0.94</speed>
  <fix>3d</fix>
</trkpt>
<trkpt lat="33.809778" lon="-118.3940023">
  <ele>-50.018</ele>
  <time>2026-09-01T01:14:05Z</time>
  <course>298.79</course>
  <speed>0.8802272433866155</speed>
  <fix>3d</fix>
</trkpt>
<trkpt lat="33.8097779" lon="-118.3940012">
  <ele>-48.82</ele>
  <time>2026-09-01T01:14:05Z</time>
  <course>272.48</course>
  <speed>0.93</speed>
  <fix>3d</fix>
</trkpt>
<trkpt lat="33.809778" lon="-118.3940033">
  <ele>-50.019</ele>
  <time>2026-09-01T01:14:05Z</time>
  <course>298.7</course>
  <speed>0.8702298546935746</speed>
  <fix>3d</fix>
</trkpt>
<trkpt lat="33.8097779" lon="-118.3940012">
  <ele>-48.82</ele>
  <time>2026-09-01T01:14:05Z</time>
  <course>272.48</course>
  <speed>0.93</speed>
  <fix>3d</fix>
</trkpt>
<trkpt lat="33.809778" lon="-118.3940043">
  <ele>-50.021</ele>
  <time>2026-09-01T01:14:05Z</time>
  <course>298.59</course>
  <speed>0.8702298546935746</speed>
  <fix>3d</fix>
</trkpt>
<trkpt lat="33.8097779" lon="-118.3940033">
  <ele>-48.82</ele>
  <time>2026-09-01T01:14:05Z</time>
  <course>272.7</course>
  <speed>0.92</speed>
  <fix>3d</fix>
</trkpt>
<trkpt lat="33.809778" lon="-118.3940053">
  <ele>-50.023</ele>
  <time>2026-09-01T01:14:05Z</time>
  <course>298.47</course>
  <speed>0.8702298546935746</speed>
  <fix>3d</fix>
</trkpt>
<trkpt lat="33.8097779" lon="-118.3940033">
  <ele>-48.82</ele>
  <time>2026-09-01T01:14:05Z</time>
  <course>272.7</course>
  <speed>0.92</speed>
  <fix>3d</fix>
</trkpt>
<trkpt lat="33.809778" lon="-118.3940063">
  <ele>-50.025</ele>
  <time>2026-09-01T01:14:05Z</time>
  <course>298.35</course>
  <speed>0.8702298546935746</speed>
  <fix>3d</fix>
</trkpt>
<trkpt lat="33.809778" lon="-118.3940053">
  <ele>-48.82</ele>
  <time>2026-09-01T01:14:05Z</time>
  <course>272.84</course>
  <speed>0.91</speed>
  <fix>3d</fix>
</trkpt>
<trkpt lat="33.809778" lon="-118.3940073">
  <ele>-50.027</ele>
  <time>2026-09-01T01:14:05Z</time>
  <course>298.21</course>
  <speed>0.8602325267042628</speed>
  <fix>3d</fix>
</trkpt>
<trkpt lat="33.809778" lon="-118.3940053">
  <ele>-48.82</ele>
  <time>2026-09-01T01:14:05Z</time>
  <course>272.84</course>
  <speed>0.91</speed>
  <fix>3d</fix>
</trkpt>
<trkpt lat="33.8097781" lon="-118.3940083">
  <ele>-50.027</ele>
  <time>2026-09-01T01:14:05Z</time>
  <course>298.07</course>
  <speed>0.8602325267042628</speed>
  <fix>3d</fix>
</trkpt>
<trkpt lat="33.8097781" lon="-118.3940073">
  <ele>-48.82</ele>
  <time>2026-09-01T01:14:05Z</time>
  <course>272.92</course>
  <speed>0.9</speed>
  <fix>3d</fix>
</trkpt>
<trkpt lat="33.8097781" lon="-118.3940093">
  <ele>-50.028</ele>
  <time>2026-09-01T01:14:05Z</time>
  <course>297.9</course>
  <speed>0.8602325267042628</speed>
  <fix>3d</fix>
</trkpt>
<trkpt lat="33.8097781" lon="-118.3940073">
  <ele>-48.82</ele>
  <time>2026-09-01T01:14:05Z</time>
  <course>272.92</course>
  <speed>0.9</speed>
  <fix>3d</fix>
</trkpt>
<trkpt lat="33.8097781" lon="-118.3940103">
  <ele>-50.027</ele>
  <time>2026-09-01T01:14:05Z</time>
  <course>297.71</course>
  <speed>0.8502352615599991</speed>
  <fix>3d</fix>
</trkpt>
<trkpt lat="33.8097782" lon="-118.3940092">
  <ele>-48.82</ele>
  <time>2026-09-01T01:14:05Z</time>
  <course>272.86</course>
  <speed>0.89</speed>
  <fix>3d</fix>
</trkpt>
<trkpt lat="33.8097782" lon="-118.3940113">
  <ele>-50.025</ele>
  <time>2026-09-01T01:14:05Z</time>
  <course>297.49</course>
  <speed>0.8500588214941364</speed>
  <fix>3d</fix>
</trkpt>
<trkpt lat="33.8097782" lon="-118.3940092">
  <ele>-48.82</ele>
  <time>2026-09-01T01:14:05Z</time>
  <course>272.86</course>
  <speed>0.89</speed>
  <fix>3d</fix>
</trkpt>
<trkpt lat="33.8097782" lon="-118.3940122">
  <ele>-50.025</ele>
  <time>2026-09-01T01:14:05Z</time>
  <course>297.25</course>
  <speed>0.8500588214941364</speed>
  <fix>3d</fix>
</trkpt>
<trkpt lat="33.8097783" lon="-118.3940111">
  <ele>-48.81</ele>
  <time>2026-09-01T01:14:05Z</time>
  <course>272.68</course>
  <speed>0.88</speed>
  <fix>3d</fix>
</trkpt>
<trkpt lat="33.8097782" lon="-118.3940132">
  <ele>-50.024</ele>
  <time>2026-09-01T01:14:05Z</time>
  <course>296.99</course>
  <speed>0.8500588214941364</speed>
  <fix>3d</fix>
</trkpt>
<trkpt lat="33.8097783" lon="-118.3940111">
  <ele>-48.81</ele>
  <time>2026-09-01T01:14:05Z</time>
  <course>272.68</course>
  <speed>0.88</speed>
  <fix>3d</fix>
</trkpt>
<trkpt lat="33.8097782" lon="-118.3940141">
  <ele>-50.024</ele>
  <time>2026-09-01T01:14:05Z</time>
  <course>296.7</course>
  <speed>0.8500588214941364</speed>
  <fix>3d</fix>
</trkpt>
<trkpt lat="33.8097783" lon="-118.394013">
  <ele>-48.81</ele>
  <time>2026-09-01T01:14:05Z</time>
  <course>272.4</course>
  <speed>0.88</speed>
  <fix>3d</fix>
</trkpt>
<trkpt lat="33.8097783" lon="-118.3940151">
  <ele>-50.023</ele>
  <time>2026-09-01T01:14:05Z</time>
  <course>296.41</course>
  <speed>0.8500588214941364</speed>
  <fix>3d</fix>
</trkpt>
<trkpt lat="33.8097783" lon="-118.394013">
  <ele>-48.81</ele>
  <time>2026-09-01T01:14:05Z</time>
  <course>272.4</course>
  <speed>0.88</speed>
  <fix>3d</fix>
</trkpt>
<trkpt lat="33.8097783" lon="-118.394016">
  <ele>-50.022</ele>
  <time>2026-09-01T01:14:05Z</time>
  <course>296.12</course>
  <speed>0.8500588214941364</speed>
  <fix>3d</fix>
</trkpt>
<trkpt lat="33.8097784" lon="-118.3940149">
  <ele>-48.81</ele>
  <time>2026-09-01T01:14:05Z</time>
  <course>272.11</course>
  <speed>0.87</speed>
  <fix>3d</fix>
</trkpt>
<trkpt lat="33.8097783" lon="-118.394017">
  <ele>-50.02</ele>
  <time>2026-09-01T01:14:05Z</time>
  <course>295.84</course>
  <speed>0.84</speed>
  <fix>3d</fix>
</trkpt>
<trkpt lat="33.8097784" lon="-118.3940149">
  <ele>-48.81</ele>
  <time>2026-09-01T01:14:05Z</time>
  <course>272.11</course>
  <speed>0.87</speed>
  <fix>3d</fix>
</trkpt>
<trkpt lat="33.8097783" lon="-118.3940179">
  <ele>-50.019</ele>
  <time>2026-09-01T01:14:05Z</time>
  <course>295.57</course>
  <speed>0.85</speed>
  <fix>3d</fix>
</trkpt>
<trkpt lat="33.8097785" lon="-118.3940168">
  <ele>-48.8</ele>
  <time>2026-09-01T01:14:05Z</time>
  <course>271.86</course>
  <speed>0.87</speed>
  <fix>3d</fix>
</trkpt>
<trkpt lat="33.8097784" lon="-118.3940189">
  <ele>-50.018</ele>
  <time>2026-09-01T01:14:05Z</time>
  <course>295.28</course>
  <speed>0.84</speed>
  <fix>3d</fix>
</trkpt>
<trkpt lat="33.8097785" lon="-118.3940168">
  <ele>-48.8</ele>
  <time>2026-09-01T01:14:05Z</time>
  <course>271.86</course>
  <speed>0.87</speed>
  <fix>3d</fix>
</trkpt>
<trkpt lat="33.8097784" lon="-118.3940198">
  <ele>-50.017</ele>
  <time>2026-09-01T01:14:05Z</time>
  <course>294.98</course>
  <speed>0.84</speed>
  <fix>3d</fix>
</trkpt>
<trkpt lat="33.8097785" lon="-118.3940187">
  <ele>-48.8</ele>
  <time>2026-09-01T01:14:05Z</time>
  <course>271.6</course>
  <speed>0.87</speed>
  <fix>3d</fix>
</trkpt>
<trkpt lat="33.8097784" lon="-118.3940208">
  <ele>-50.016</ele>
  <time>2026-09-01T01:14:05Z</time>
  <course>294.7</course>
  <speed>0.84</speed>
  <fix>3d</fix>
</trkpt>
<trkpt lat="33.8097785" lon="-118.3940187">
  <ele>-48.8</ele>
  <time>2026-09-01T01:14:05Z</time>
  <course>271.6</course>
  <speed>0.87</speed>
  <fix>3d</fix>
</trkpt>
<trkpt lat="33.8097784" lon="-118.3940217">
  <ele>-50.015</ele>
  <time>2026-09-01T01:14:05Z</time>
  <course>294.44</course>
  <speed>0.84</speed>
  <fix>3d</fix>
</trkpt>
<trkpt lat="33.8097786" lon="-118.3940206">
  <ele>-48.8</ele>
  <time>2026-09-01T01:14:05Z</time>
  <course>271.36</course>
  <speed>0.86</speed>
  <fix>3d</fix>
</trkpt>
<trkpt lat="33.8097784" lon="-118.3940226">
  <ele>-50.014</ele>
  <time>2026-09-01T01:14:05Z</time>
  <course>294.18</course>
  <speed>0.84</speed>
  <fix>3d</fix>
</trkpt>
<trkpt lat="33.8097786" lon="-118.3940206">
  <ele>-48.8</ele>
  <time>2026-09-01T01:14:05Z</time>
  <course>271.36</course>
  <speed>0.86</speed>
  <fix>3d</fix>
</trkpt>
<trkpt lat="33.8097785" lon="-118.3940236">
  <ele>-50.014</ele>
  <time>2026-09-01T01:14:05Z</time>
  <course>293.93</course>
  <speed>0.84</speed>
  <fix>3d</fix>
</trkpt>
<trkpt lat="33.8097786" lon="-118.3940225">
  <ele>-48.8</ele>
  <time>2026-09-01T01:14:05Z</time>
  <course>271.16</course>
  <speed>0.86</speed>
  <fix>3d</fix>
</trkpt>
<trkpt lat="33.8097785" lon="-118.3940245">
  <ele>-50.015</ele>
  <time>2026-09-01T01:14:05Z</time>
  <course>293.68</course>
  <speed>0.84</speed>
  <fix>3d</fix>
</trkpt>
<trkpt lat="33.8097786" lon="-118.3940225">
  <ele>-48.8</ele>
  <time>2026-09-01T01:14:05Z</time>
  <course>271.16</course>
  <speed>0.86</speed>
  <fix>3d</fix>
</trkpt>
<trkpt lat="33.8097785" lon="-118.3940254">
  <ele>-50.017</ele>
  <time>2026-09-01T01:14:05Z</time>
  <course>293.45</course>
  <speed>0.84</speed>
  <fix>3d</fix>
</trkpt>
<trkpt lat="33.8097786" lon="-118.3940243">
  <ele>-48.8</ele>
  <time>2026-09-01T01:14:05Z</time>
  <course>270.98</course>
  <speed>0.86</speed>
  <fix>3d</fix>
</trkpt>
<trkpt lat="33.8097785" lon="-118.3940264">
  <ele>-50.019</ele>
  <time>2026-09-01T01:14:05Z</time>
  <course>293.23</course>
  <speed>0.84</speed>
  <fix>3d</fix>
</trkpt>
<trkpt lat="33.8097786" lon="-118.3940243">
  <ele>-48.8</ele>
  <time>2026-09-01T01:14:05Z</time>
  <course>270.98</course>
  <speed>0.86</speed>
  <fix>3d</fix>
</trkpt>
<trkpt lat="33.8097785" lon="-118.3940273">
  <ele>-50.02</ele>
  <time>2026-09-01T01:14:05Z</time>
  <course>293.02</course>
  <speed>0.84</speed>
  <fix>3d</fix>
</trkpt>
<trkpt lat="33.8097786" lon="-118.3940262">
  <ele>-48.81</ele>
  <time>2026-09-01T01:14:05Z</time>
  <course>270.86</course>
  <speed>0.86</speed>
  <fix>3d</fix>
</trkpt>
<trkpt lat="33.8097785" lon="-118.3940282">
  <ele>-50.02</ele>
  <time>2026-09-01T01:14:05Z</time>
  <course>292.82</course>
  <speed>0.84</speed>
  <fix>3d</fix>
</trkpt>
<trkpt lat="33.8097786" lon="-118.3940262">
  <ele>-48.81</ele>
  <time>2026-09-01T01:14:05Z</time>
  <course>270.86</course>
  <speed>0.86</speed>
  <fix>3d</fix>
</trkpt>
<trkpt lat="33.8097786" lon="-118.3940292">
  <ele>-50.02</ele>
  <time>2026-09-01T01:14:05Z</time>
  <course>292.64</course>
  <speed>0.84</speed>
  <fix>3d</fix>
</trkpt>
<trkpt lat="33.8097786" lon="-118.394028">
  <ele>-48.81</ele>
  <time>2026-09-01T01:14:05Z</time>
  <course>270.83</course>
  <speed>0.86</speed>
  <fix>3d</fix>
</trkpt>
<trkpt lat="33.8097786" lon="-118.3940301">
  <ele>-50.02</ele>
  <time>2026-09-01T01:14:05Z</time>
  <course>292.47</course>
  <speed>0.84</speed>
  <fix>3d</fix>
</trkpt>
<trkpt lat="33.8097786" lon="-118.394028">
  <ele>-48.81</ele>
  <time>2026-09-01T01:14:05Z</time>
  <course>270.83</course>
  <speed>0.86</speed>
  <fix>3d</fix>
</trkpt>
<trkpt lat="33.8097786" lon="-118.394031">
  <ele>-50.019</ele>
  <time>2026-09-01T01:14:05Z</time>
  <course>292.3</course>
  <speed>0.84</speed>
  <fix>3d</fix>
</trkpt>
<trkpt lat="33.8097786" lon="-118.3940299">
  <ele>-48.81</ele>
  <time>2026-09-01T01:14:05Z</time>
  <course>270.86</course>
  <speed>0.86</speed>
  <fix>3d</fix>
</trkpt>
<trkpt lat="33.8097786" lon="-118.394032">
  <ele>-50.018</ele>
  <time>2026-09-01T01:14:05Z</time>
  <course>292.15</course>
  <speed>0.84</speed>
  <fix>3d</fix>
</trkpt>
<trkpt lat="33.8097786" lon="-118.3940299">
  <ele>-48.81</ele>
  <time>2026-09-01T01:14:05Z</time>
  <course>270.86</course>
  <speed>0.86</speed>
  <fix>3d</fix>
</trkpt>
<trkpt lat="33.8097786" lon="-118.3940329">
  <ele>-50.018</ele>
  <time>2026-09-01T01:14:05Z</time>
  <course>292.0</course>
  <speed>0.84</speed>
  <fix>3d</fix>
</trkpt>
<trkpt lat="33.8097787" lon="-118.3940318">
  <ele>-48.81</ele>
  <time>2026-09-01T01:14:05Z</time>
  <course>270.92</course>
  <speed>0.86</speed>
  <fix>3d</fix>
</trkpt>
<trkpt lat="33.8097786" lon="-118.3940338">
  <ele>-50.019</ele>
  <time>2026-09-01T01:14:05Z</time>
  <course>291.85</course>
  <speed>0.84</speed>
  <fix>3d</fix>
</trkpt>
<trkpt lat="33.8097787" lon="-118.3940318">
  <ele>-48.81</ele>
  <time>2026-09-01T01:14:05Z</time>
  <course>270.92</course>
  <speed>0.86</speed>
  <fix>3d</fix>
</trkpt>
<trkpt lat="33.8097786" lon="-118.3940348">
  <ele>-50.02</ele>
  <time>2026-09-01T01:14:05Z</time>
  <course>291.69</course>
  <speed>0.84</speed>
  <fix>3d</fix>
</trkpt>
<trkpt lat="33.8097787" lon="-118.3940337">
  <ele>-48.81</ele>
  <time>2026-09-01T01:14:05Z</time>
  <course>270.96</course>
  <speed>0.86</speed>
  <fix>3d</fix>
</trkpt>
<trkpt lat="33.8097786" lon="-118.3940357">
  <ele>-50.021</ele>
  <time>2026-09-01T01:14:05Z</time>
  <course>291.52</course>
  <speed>0.8400595217006948</speed>
  <fix>3d</fix>
</trkpt>
<trkpt lat="33.8097787" lon="-118.3940337">
  <ele>-48.81</ele>
  <time>2026-09-01T01:14:05Z</time>
  <course>270.96</course>
  <speed>0.86</speed>
  <fix>3d</fix>
</trkpt>
<trkpt lat="33.8097787" lon="-118.3940366">
  <ele>-50.022</ele>
  <time>2026-09-01T01:14:05Z</time>
  <course>291.34</course>
  <speed>0.8400595217006948</speed>
  <fix>3d</fix>
</trkpt>
<trkpt lat="33.8097787" lon="-118.3940355">
  <ele>-48.81</ele>
  <time>2026-09-01T01:14:05Z</time>
  <course>270.93</course>
  <speed>0.86</speed>
  <fix>3d</fix>
</trkpt>
<trkpt lat="33.8097787" lon="-118.3940376">
  <ele>-50.022</ele>
  <time>2026-09-01T01:14:05Z</time>
  <course>291.16</course>
  <speed>0.8400595217006948</speed>
  <fix>3d</fix>
</trkpt>
<trkpt lat="33.8097787" lon="-118.3940355">
  <ele>-48.81</ele>
  <time>2026-09-01T01:14:05Z</time>
  <course>270.93</course>
  <speed>0.86</speed>
  <fix>3d</fix>
</trkpt>
<trkpt lat="33.8097787" lon="-118.3940385">
  <ele>-50.022</ele>
  <time>2026-09-01T01:14:05Z</time>
  <course>290.97</course>
  <speed>0.8400595217006948</speed>
  <fix>3d</fix>
</trkpt>
<trkpt lat="33.8097787" lon="-118.3940374">
  <ele>-48.82</ele>
  <time>2026-09-01T01:14:05Z</time>
  <course>270.89</course>
  <speed>0.86</speed>
  <fix>3d</fix>
</trkpt>
<trkpt lat="33.8097787" lon="-118.3940394">
  <ele>-50.022</ele>
  <time>2026-09-01T01:14:05Z</time>
  <course>290.8</course>
  <speed>0.8400595217006948</speed>
  <fix>3d</fix>
</trkpt>
<trkpt lat="33.8097787" lon="-118.3940374">
  <ele>-48.82</ele>
  <time>2026-09-01T01:14:05Z</time>
  <course>270.89</course>
  <speed>0.86</speed>
  <fix>3d</fix>
</trkpt>
<trkpt lat="33.8097787" lon="-118.3940404">
  <ele>-50.022</ele>
  <time>2026-09-01T01:14:05Z</time>
  <course>290.63</course>
  <speed>0.8400595217006948</speed>
  <fix>3d</fix>
</trkpt>
<trkpt lat="33.8097788" lon="-118.3940393">
  <ele>-48.81</ele>
  <time>2026-09-01T01:14:05Z</time>
  <course>270.88</course>
  <speed>0.86</speed>
  <fix>3d</fix>
</trkpt>
<trkpt lat="33.8097787" lon="-118.3940413">
  <ele>-50.022</ele>
  <time>2026-09-01T01:14:05Z</time>
  <course>290.46</course>
  <speed>0.8400595217006948</speed>
  <fix>3d</fix>
</trkpt>
<trkpt lat="33.8097788" lon="-118.3940393">
  <ele>-48.81</ele>
  <time>2026-09-01T01:14:05Z</time>
  <course>270.88</course>
  <speed>0.86</speed>
  <fix>3d</fix>
</trkpt>
<trkpt lat="33.8097787" lon="-118.3940422">
  <ele>-50.02</ele>
  <time>2026-09-01T01:14:05Z</time>
  <course>290.28</course>
  <speed>0.8400595217006948</speed>
  <fix>3d</fix>
</trkpt>
<trkpt lat="33.8097789" lon="-118.3940411">
  <ele>-48.81</ele>
  <time>2026-09-01T01:14:05Z</time>
  <course>270.87</course>
  <speed>0.86</speed>
  <fix>3d</fix>
</trkpt>
<trkpt lat="33.8097788" lon="-118.3940432">
  <ele>-50.019</ele>
  <time>2026-09-01T01:14:05Z</time>
  <course>290.09</course>
  <speed>0.8400595217006948</speed>
  <fix>3d</fix>
</trkpt>
<trkpt lat="33.8097789" lon="-118.3940411">
  <ele>-48.81</ele>
  <time>2026-09-01T01:14:05Z</time>
  <course>270.87</course>
  <speed>0.86</speed>
  <fix>3d</fix>
</trkpt>
<trkpt lat="33.8097788" lon="-118.3940441">
  <ele>-50.019</ele>
  <time>2026-09-01T01:14:05Z</time>
  <course>289.87</course>
  <speed>0.8400595217006948</speed>
  <fix>3d</fix>
</trkpt>
<trkpt lat="33.8097789" lon="-118.394043">
  <ele>-48.81</ele>
  <time>2026-09-01T01:14:05Z</time>
  <course>270.75</course>
  <speed>0.86</speed>
  <fix>3d</fix>
</trkpt>
<trkpt lat="33.8097788" lon="-118.394045">
  <ele>-50.019</ele>
  <time>2026-09-01T01:14:05Z</time>
  <course>289.62</course>
  <speed>0.84</speed>
  <fix>3d</fix>
</trkpt>
<trkpt lat="33.8097789" lon="-118.394043">
  <ele>-48.81</ele>
  <time>2026-09-01T01:14:05Z</time>
  <course>270.75</course>
  <speed>0.86</speed>
  <fix>3d</fix>
</trkpt>
<trkpt lat="33.8097788" lon="-118.394046">
  <ele>-50.019</ele>
  <time>2026-09-01T01:14:05Z</time>
  <course>289.38</course>
  <speed>0.84</speed>
  <fix>3d</fix>
</trkpt>
<trkpt lat="33.8097789" lon="-118.3940448">
  <ele>-48.81</ele>
  <time>2026-09-01T01:14:05Z</time>
  <course>270.58</course>
  <speed>0.86</speed>
  <fix>3d</fix>
</trkpt>
<trkpt lat="33.8097788" lon="-118.3940469">
  <ele>-50.02</ele>
  <time>2026-09-01T01:14:05Z</time>
  <course>289.14</course>
  <speed>0.84</speed>
  <fix>3d</fix>
</trkpt>
<trkpt lat="33.8097789" lon="-118.3940448">
  <ele>-48.81</ele>
  <time>2026-09-01T01:14:05Z</time>
  <course>270.58</course>
  <speed>0.86</speed>
  <fix>3d</fix>
</trkpt>
<trkpt lat="33.8097788" lon="-118.3940478">
  <ele>-50.021</ele>
  <time>2026-09-01T01:14:05Z</time>
  <course>288.91</course>
  <speed>0.84</speed>
  <fix>3d</fix>
</trkpt>
<trkpt lat="33.8097789" lon="-118.3940467">
  <ele>-48.81</ele>
  <time>2026-09-01T01:14:05Z</time>
  <course>270.44</course>
  <speed>0.86</speed>
  <fix>3d</fix>
</trkpt>
<trkpt lat="33.8097788" lon="-118.3940488">
  <ele>-50.022</ele>
  <time>2026-09-01T01:14:05Z</time>
  <course>288.68</course>
  <speed>0.84</speed>
  <fix>3d</fix>
</trkpt>
<trkpt lat="33.8097789" lon="-118.3940467">
  <ele>-48.81</ele>
  <time>2026-09-01T01:14:05Z</time>
  <course>270.44</course>
  <speed>0.86</speed>
  <fix>3d</fix>
</trkpt>
<trkpt lat="33.8097789" lon="-118.3940497">
  <ele>-50.022</ele>
  <time>2026-09-01T01:14:05Z</time>
  <course>288.47</course>
  <speed>0.84</speed>
  <fix>3d</fix>
</trkpt>
<trkpt lat="33.8097789" lon="-118.3940486">
  <ele>-48.81</ele>
  <time>2026-09-01T01:14:05Z</time>
  <course>270.36</course>
  <speed>0.86</speed>
  <fix>3d</fix>
</trkpt>
<trkpt lat="33.8097789" lon="-118.3940506">
  <ele>-50.022</ele>
  <time>2026-09-01T01:14:05Z</time>
  <course>288.29</course>
  <speed>0.8400595217006948</speed>
  <fix>3d</fix>
</trkpt>
<trkpt lat="33.8097789" lon="-118.3940486">
  <ele>-48.81</ele>
  <time>2026-09-01T01:14:05Z</time>
  <course>270.36</course>
  <speed>0.86</speed>
  <fix>3d</fix>
</trkpt>
<trkpt lat="33.8097789" lon="-118.3940516">
  <ele>-50.019</ele>
  <time>2026-09-01T01:14:05Z</time>
  <course>288.12</course>
  <speed>0.8400595217006948</speed>
  <fix>3d</fix>
</trkpt>
<trkpt lat="33.8097789" lon="-118.3940505">
  <ele>-48.81</ele>
  <time>2026-09-01T01:14:05Z</time>
  <course>270.34</course>
  <speed>0.87</speed>
  <fix>3d</fix>
</trkpt>
<trkpt lat="33.8097789" lon="-118.3940525">
  <ele>-50.017</ele>
  <time>2026-09-01T01:14:05Z</time>
  <course>287.96</course>
  <speed>0.8400595217006948</speed>
  <fix>3d</fix>
</trkpt>
<trkpt lat="33.8097789" lon="-118.3940505">
  <ele>-48.81</ele>
  <time>2026-09-01T01:14:05Z</time>
  <course>270.34</course>
  <speed>0.87</speed>
  <fix>3d</fix>
</trkpt>
<trkpt lat="33.8097789" lon="-118.3940535">
  <ele>-50.015</ele>
  <time>2026-09-01T01:14:05Z</time>
  <course>287.81</course>
  <speed>0.8400595217006948</speed>
  <fix>3d</fix>
</trkpt>
<trkpt lat="33.8097789" lon="-118.3940524">
  <ele>-48.81</ele>
  <time>2026-09-01T01:14:05Z</time>
  <course>270.34</course>
  <speed>0.87</speed>
  <fix>3d</fix>
</trkpt>
<trkpt lat="33.8097789" lon="-118.3940544">
  <ele>-50.014</ele>
  <time>2026-09-01T01:14:05Z</time>
  <course>287.67</course>
  <speed>0.8400595217006948</speed>
  <fix>3d</fix>
</trkpt>
<trkpt lat="33.8097789" lon="-118.3940524">
  <ele>-48.81</ele>
  <time>2026-09-01T01:14:05Z</time>
  <course>270.34</course>
  <speed>0.87</speed>
  <fix>3d</fix>
</trkpt>
<trkpt lat="33.8097789" lon="-118.3940553">
  <ele>-50.014</ele>
  <time>2026-09-01T01:14:05Z</time>
  <course>287.54</course>
  <speed>0.8400595217006948</speed>
  <fix>3d</fix>
</trkpt>
<trkpt lat="33.809779" lon="-118.3940542">
  <ele>-48.81</ele>
  <time>2026-09-01T01:14:05Z</time>
  <course>270.38</course>
  <speed>0.87</speed>
  <fix>3d</fix>
</trkpt>
<trkpt lat="33.8097789" lon="-118.3940563">
  <ele>-50.015</ele>
  <time>2026-09-01T01:14:05Z</time>
  <course>287.41</course>
  <speed>0.8400595217006948</speed>
  <fix>3d</fix>
</trkpt>
<trkpt lat="33.809779" lon="-118.3940542">
  <ele>-48.81</ele>
  <time>2026-09-01T01:14:05Z</time>
  <course>270.38</course>
  <speed>0.87</speed>
  <fix>3d</fix>
</trkpt>
<trkpt lat="33.8097789" lon="-118.3940572">
  <ele>-50.017</ele>
  <time>2026-09-01T01:14:05Z</time>
  <course>287.24</course>
  <speed>0.8400595217006948</speed>
  <fix>3d</fix>
</trkpt>
<trkpt lat="33.809779" lon="-118.3940561">
  <ele>-48.81</ele>
  <time>2026-09-01T01:14:05Z</time>
  <course>270.38</course>
  <speed>0.87</speed>
  <fix>3d</fix>
</trkpt>
<trkpt lat="33.8097789" lon="-118.3940582">
  <ele>-50.019</ele>
  <time>2026-09-01T01:14:05Z</time>
  <course>287.06</course>
  <speed>0.8400595217006948</speed>
  <fix>3d</fix>
</trkpt>
<trkpt lat="33.809779" lon="-118.3940561">
  <ele>-48.81</ele>
  <time>2026-09-01T01:14:05Z</time>
  <course>270.38</course>
  <speed>0.87</speed>
  <fix>3d</fix>
</trkpt>
<trkpt lat="33.809779" lon="-118.3940591">
  <ele>-50.021</ele>
  <time>2026-09-01T01:14:05Z</time>
  <course>286.88</course>
  <speed>0.8500588214941364</speed>
  <fix>3d</fix>
</trkpt>
<trkpt lat="33.809779" lon="-118.394058">
  <ele>-48.82</ele>
  <time>2026-09-01T01:14:05Z</time>
  <course>270.31</course>
  <speed>0.87</speed>
  <fix>3d</fix>
</trkpt>
<trkpt lat="33.809779" lon="-118.39406">
  <ele>-50.023</ele>
  <time>2026-09-01T01:14:05Z</time>
  <course>286.69</course>
  <speed>0.8500588214941364</speed>
  <fix>3d</fix>
</trkpt>
<trkpt lat="33.809779" lon="-118.394058">
  <ele>-48.82</ele>
  <time>2026-09-01T01:14:05Z</time>
  <course>270.31</course>
  <speed>0.87</speed>
  <fix>3d</fix>
</trkpt>
<trkpt lat="33.809779" lon="-118.394061">
  <ele>-50.024</ele>
  <time>2026-09-01T01:14:05Z</time>
  <course>286.52</course>
  <speed>0.8500588214941364</speed>
  <fix>3d</fix>
</trkpt>
<trkpt lat="33.809779" lon="-118.3940599">
  <ele>-48.82</ele>
  <time>2026-09-01T01:14:05Z</time>
  <course>270.25</course>
  <speed>0.87</speed>
  <fix>3d</fix>
</trkpt>
<trkpt lat="33.809779" lon="-118.3940619">
  <ele>-50.024</ele>
  <time>2026-09-01T01:14:05Z</time>
  <course>286.35</course>
  <speed>0.8500588214941364</speed>
  <fix>3d</fix>
</trkpt>
<trkpt lat="33.809779" lon="-118.3940599">
  <ele>-48.82</ele>
  <time>2026-09-01T01:14:05Z</time>
  <course>270.25</course>
  <speed>0.87</speed>
  <fix>3d</fix>
</trkpt>
<trkpt lat="33.809779" lon="-118.3940629">
  <ele>-50.024</ele>
  <time>2026-09-01T01:14:05Z</time>
  <course>286.2</course>
  <speed>0.8500588214941364</speed>
  <fix>3d</fix>
</trkpt>
<trkpt lat="33.809779" lon="-118.3940618">
  <ele>-48.82</ele>
  <time>2026-09-01T01:14:05Z</time>
  <course>270.23</course>
  <speed>0.87</speed>
  <fix>3d</fix>
</trkpt>
<trkpt lat="33.809779" lon="-118.3940638">
  <ele>-50.023</ele>
  <time>2026-09-01T01:14:05Z</time>
  <course>286.05</course>
  <speed>0.8500588214941364</speed>
  <fix>3d</fix>
</trkpt>
<trkpt lat="33.809779" lon="-118.3940618">
  <ele>-48.82</ele>
  <time>2026-09-01T01:14:05Z</time>
  <course>270.23</course>
  <speed>0.87</speed>
  <fix>3d</fix>
</trkpt>
<trkpt lat="33.809779" lon="-118.3940648">
  <ele>-50.023</ele>
  <time>2026-09-01T01:14:05Z</time>
  <course>285.91</course>
  <speed>0.8500588214941364</speed>
  <fix>3d</fix>
</trkpt>
<trkpt lat="33.809779" lon="-118.3940637">
  <ele>-48.82</ele>
  <time>2026-09-01T01:14:05Z</time>
  <course>270.24</course>
  <speed>0.87</speed>
  <fix>3d</fix>
</trkpt>
<trkpt lat="33.809779" lon="-118.3940657">
  <ele>-50.022</ele>
  <time>2026-09-01T01:14:05Z</time>
  <course>285.77</course>
  <speed>0.8500588214941364</speed>
  <fix>3d</fix>
</trkpt>
<trkpt lat="33.809779" lon="-118.3940637">
  <ele>-48.82</ele>
  <time>2026-09-01T01:14:05Z</time>
  <course>270.24</course>
  <speed>0.87</speed>
  <fix>3d</fix>
</trkpt>
<trkpt lat="33.809779" lon="-118.3940667">
  <ele>-50.022</ele>
  <time>2026-09-01T01:14:05Z</time>
  <course>285.63</course>
  <speed>0.8500588214941364</speed>
  <fix>3d</fix>
</trkpt>
<trkpt lat="33.809779" lon="-118.3940656">
  <ele>-48.82</ele>
  <time>2026-09-01T01:14:05Z</time>
  <course>270.27</course>
  <speed>0.88</speed>
  <fix>3d</fix>
</trkpt>
<trkpt lat="33.809779" lon="-118.3940676">
  <ele>-50.022</ele>
  <time>2026-09-01T01:14:05Z</time>
  <course>285.5</course>
  <speed>0.8500588214941364</speed>
  <fix>3d</fix>
</trkpt>
<trkpt lat="33.809779" lon="-118.3940656">
  <ele>-48.82</ele>
  <time>2026-09-01T01:14:05Z</time>
  <course>270.27</course>
  <speed>0.88</speed>
  <fix>3d</fix>
</trkpt>
<trkpt lat="33.809779" lon="-118.3940686">
  <ele>-50.022</ele>
  <time>2026-09-01T01:14:05Z</time>
  <course>285.38</course>
  <speed>0.8500588214941364</speed>
  <fix>3d</fix>
</trkpt>
<trkpt lat="33.809779" lon="-118.3940675">
  <ele>-48.82</ele>
  <time>2026-09-01T01:14:05Z</time>
  <course>270.32</course>
  <speed>0.88</speed>
  <fix>3d</fix>
</trkpt>
<trkpt lat="33.8097791" lon="-118.3940695">
  <ele>-50.021</ele>
  <time>2026-09-01T01:14:05Z</time>
  <course>285.25</course>
  <speed>0.8500588214941364</speed>
  <fix>3d</fix>
</trkpt>
<trkpt lat="33.809779" lon="-118.3940675">
  <ele>-48.82</ele>
  <time>2026-09-01T01:14:05Z</time>
  <course>270.32</course>
  <speed>0.88</speed>
  <fix>3d</fix>
</trkpt>
<trkpt lat="33.8097791" lon="-118.3940705">
  <ele>-50.022</ele>
  <time>2026-09-01T01:14:05Z</time>
  <course>285.13</course>
  <speed>0.8500588214941364</speed>
  <fix>3d</fix>
</trkpt>
<trkpt lat="33.809779" lon="-118.3940694">
  <ele>-48.82</ele>
  <time>2026-09-01T01:14:05Z</time>
  <course>270.37</course>
  <speed>0.88</speed>
  <fix>3d</fix>
</trkpt>
<trkpt lat="33.8097791" lon="-118.3940714">
  <ele>-50.022</ele>
  <time>2026-09-01T01:14:05Z</time>
  <course>285.01</course>
  <speed>0.8502352615599991</speed>
  <fix>3d</fix>
</trkpt>
<trkpt lat="33.809779" lon="-118.3940694">
  <ele>-48.82</ele>
  <time>2026-09-01T01:14:05Z</time>
  <course>270.37</course>
  <speed>0.88</speed>
  <fix>3d</fix>
</trkpt>
<trkpt lat="33.8097791" lon="-118.3940724">
  <ele>-50.022</ele>
  <time>2026-09-01T01:14:05Z</time>
  <course>284.88</course>
  <speed>0.8502352615599991</speed>
  <fix>3d</fix>
</trkpt>
<trkpt lat="33.809779" lon="-118.3940713">
  <ele>-48.82</ele>
  <time>2026-09-01T01:14:05Z</time>
  <course>270.42</course>
  <speed>0.88</speed>
  <fix>3d</fix>
</trkpt>
<trkpt lat="33.8097791" lon="-118.3940733">
  <ele>-50.023</ele>
  <time>2026-09-01T01:14:05Z</time>
  <course>284.75</course>
  <speed>0.8502352615599991</speed>
  <fix>3d</fix>
</trkpt>
<trkpt lat="33.809779" lon="-118.3940713">
  <ele>-48.82</ele>
  <time>2026-09-01T01:14:05Z</time>
  <course>270.42</course>
  <speed>0.88</speed>
  <fix>3d</fix>
</trkpt>
<trkpt lat="33.8097791" lon="-118.3940743">
  <ele>-50.023</ele>
  <time>2026-09-01T01:14:05Z</time>
  <course>284.63</course>
  <speed>0.8502352615599991</speed>
  <fix>3d</fix>
</trkpt>
<trkpt lat="33.809779" lon="-118.3940732">
  <ele>-48.81</ele>
  <time>2026-09-01T01:14:05Z</time>
  <course>270.49</course>
  <speed>0.88</speed>
  <fix>3d</fix>
</trkpt>
<trkpt lat="33.8097791" lon="-118.3940752">
  <ele>-50.023</ele>
  <time>2026-09-01T01:14:05Z</time>
  <course>284.5</course>
  <speed>0.8502352615599991</speed>
  <fix>3d</fix>
</trkpt>
<trkpt lat="33.809779" lon="-118.3940732">
  <ele>-48.81</ele>
  <time>2026-09-01T01:14:05Z</time>
  <course>270.49</course>
  <speed>0.88</speed>
  <fix>3d</fix>
</trkpt>
<trkpt lat="33.8097791" lon="-118.3940762">
  <ele>-50.023</ele>
  <time>2026-09-01T01:14:05Z</time>
  <course>284.38</course>
  <speed>0.8602325267042628</speed>
  <fix>3d</fix>
</trkpt>
<trkpt lat="33.8097791" lon="-118.3940752">
  <ele>-48.81</ele>
  <time>2026-09-01T01:14:05Z</time>
  <course>270.56</course>
  <speed>0.88</speed>
  <fix>3d</fix>
</trkpt>
<trkpt lat="33.8097791" lon="-118.3940771">
  <ele>-50.023</ele>
  <time>2026-09-01T01:14:05Z</time>
  <course>284.25</course>
  <speed>0.8602325267042628</speed>
  <fix>3d</fix>
</trkpt>
<trkpt lat="33.8097791" lon="-118.3940752">
  <ele>-48.81</ele>
  <time>2026-09-01T01:14:05Z</time>
  <course>270.56</course>
  <speed>0.88</speed>
  <fix>3d</fix>
</trkpt>
<trkpt lat="33.8097791" lon="-118.3940781">
  <ele>-50.023</ele>
  <time>2026-09-01T01:14:05Z</time>
  <course>284.11</course>
  <speed>0.8602325267042628</speed>
  <fix>3d</fix>
</trkpt>
<trkpt lat="33.8097791" lon="-118.3940771">
  <ele>-48.81</ele>
  <time>2026-09-01T01:14:05Z</time>
  <course>270.59</course>
  <speed>0.89</speed>
  <fix>3d</fix>
</trkpt>
<trkpt lat="33.8097791" lon="-118.394079">
  <ele>-50.022</ele>
  <time>2026-09-01T01:14:05Z</time>
  <course>283.95</course>
  <speed>0.8602325267042628</speed>
  <fix>3d</fix>
</trkpt>
<trkpt lat="33.8097791" lon="-118.3940771">
  <ele>-48.81</ele>
  <time>2026-09-01T01:14:05Z</time>
  <course>270.59</course>
  <speed>0.89</speed>
  <fix>3d</fix>
</trkpt>
<trkpt lat="33.8097792" lon="-118.39408">
  <ele>-50.021</ele>
  <time>2026-09-01T01:14:05Z</time>
  <course>283.79</course>
  <speed>0.8602325267042628</speed>
  <fix>3d</fix>
</trkpt>
<trkpt lat="33.8097791" lon="-118.394079">
  <ele>-48.81</ele>
  <time>2026-09-01T01:14:05Z</time>
  <course>270.56</course>
  <speed>0.89</speed>
  <fix>3d</fix>
</trkpt>
<trkpt lat="33.8097792" lon="-118.394081">
  <ele>-50.02</ele>
  <time>2026-09-01T01:14:05Z</time>
  <course>283.63</course>
  <speed>0.8602325267042628</speed>
  <fix>3d</fix>
</trkpt>
<trkpt lat="33.8097791" lon="-118.394079">
  <ele>-48.81</ele>
  <time>2026-09-01T01:14:05Z</time>
  <course>270.56</course>
  <speed>0.89</speed>
  <fix>3d</fix>
</trkpt>
<trkpt lat="33.8097792" lon="-118.3940819">
  <ele>-50.019</ele>
  <time>2026-09-01T01:14:05Z</time>
  <course>283.48</course>
  <speed>0.8602325267042628</speed>
  <fix>3d</fix>
</trkpt>
<trkpt lat="33.8097791" lon="-118.394081">
  <ele>-48.8</ele>
  <time>2026-09-01T01:14:05Z</time>
  <course>270.53</course>
  <speed>0.89</speed>
  <fix>3d</fix>
</trkpt>
<trkpt lat="33.8097792" lon="-118.3940829">
  <ele>-50.017</ele>
  <time>2026-09-01T01:14:05Z</time>
  <course>283.33</course>
  <speed>0.8602325267042628</speed>
  <fix>3d</fix>
</trkpt>
<trkpt lat="33.8097791" lon="-118.394081">
  <ele>-48.8</ele>
  <time>2026-09-01T01:14:05Z</time>
  <course>270.53</course>
  <speed>0.89</speed>
  <fix>3d</fix>
</trkpt>
<trkpt lat="33.8097792" lon="-118.3940838">
  <ele>-50.015</ele>
  <time>2026-09-01T01:14:05Z</time>
  <course>283.19</course>
  <speed>0.8602325267042628</speed>
  <fix>3d</fix>
</trkpt>
<trkpt lat="33.8097791" lon="-118.3940829">
  <ele>-48.8</ele>
  <time>2026-09-01T01:14:05Z</time>
  <course>270.53</course>
  <speed>0.89</speed>
  <fix>3d</fix>
</trkpt>
<trkpt lat="33.8097792" lon="-118.3940848">
  <ele>-50.014</ele>
  <time>2026-09-01T01:14:05Z</time>
  <course>283.05</course>
  <speed>0.8602325267042628</speed>
  <fix>3d</fix>
</trkpt>
<trkpt lat="33.8097791" lon="-118.3940829">
  <ele>-48.8</ele>
  <time>2026-09-01T01:14:05Z</time>
  <course>270.53</course>
  <speed>0.89</speed>
  <fix>3d</fix>
</trkpt>
<trkpt lat="33.8097792" lon="-118.3940858">
  <ele>-50.015</ele>
  <time>2026-09-01T01:14:05Z</time>
  <course>282.93</course>
  <speed>0.8602325267042628</speed>
  <fix>3d</fix>
</trkpt>
<trkpt lat="33.8097791" lon="-118.3940848">
  <ele>-48.8</ele>
  <time>2026-09-01T01:14:05Z</time>
  <course>270.56</course>
  <speed>0.89</speed>
  <fix>3d</fix>
</trkpt>
<trkpt lat="33.8097792" lon="-118.3940867">
  <ele>-50.016</ele>
  <time>2026-09-01T01:14:05Z</time>
  <course>282.8</course>
  <speed>0.8602325267042628</speed>
  <fix>3d</fix>
</trkpt>
<trkpt lat="33.8097791" lon="-118.3940848">
  <ele>-48.8</ele>
  <time>2026-09-01T01:14:05Z</time>
  <course>270.56</course>
  <speed>0.89</speed>
  <fix>3d</fix>
</trkpt>
<trkpt lat="33.8097792" lon="-118.3940877">
  <ele>-50.017</ele>
  <time>2026-09-01T01:14:05Z</time>
  <course>282.68</course>
  <speed>0.8602325267042628</speed>
  <fix>3d</fix>
</trkpt>
<trkpt lat="33.8097791" lon="-118.3940868">
  <ele>-48.8</ele>
  <time>2026-09-01T01:14:05Z</time>
  <course>270.6</course>
  <speed>0.89</speed>
  <fix>3d</fix>
</trkpt>
<trkpt lat="33.8097792" lon="-118.3940887">
  <ele>-50.018</ele>
  <time>2026-09-01T01:14:05Z</time>
  <course>282.57</course>
  <speed>0.8602325267042628</speed>
  <fix>3d</fix>
</trkpt>
<trkpt lat="33.8097791" lon="-118.3940868">
  <ele>-48.8</ele>
  <time>2026-09-01T01:14:05Z</time>
  <course>270.6</course>
  <speed>0.89</speed>
  <fix>3d</fix>
</trkpt>
<trkpt lat="33.8097792" lon="-118.3940896">
  <ele>-50.018</ele>
  <time>2026-09-01T01:14:05Z</time>
  <course>282.46</course>
  <speed>0.8602325267042628</speed>
  <fix>3d</fix>
</trkpt>
<trkpt lat="33.8097792" lon="-118.3940887">
  <ele>-48.8</ele>
  <time>2026-09-01T01:14:05Z</time>
  <course>270.67</course>
  <speed>0.89</speed>
  <fix>3d</fix>
</trkpt>
<trkpt lat="33.8097792" lon="-118.3940906">
  <ele>-50.019</ele>
  <time>2026-09-01T01:14:05Z</time>
  <course>282.34</course>
  <speed>0.8602325267042628</speed>
  <fix>3d</fix>
</trkpt>
<trkpt lat="33.8097792" lon="-118.3940887">
  <ele>-48.8</ele>
  <time>2026-09-01T01:14:05Z</time>
  <course>270.67</course>
  <speed>0.89</speed>
  <fix>3d</fix>
</trkpt>
<trkpt lat="33.8097793" lon="-118.3940916">
  <ele>-50.02</ele>
  <time>2026-09-01T01:14:05Z</time>
  <course>282.22</course>
  <speed>0.8602325267042628</speed>
  <fix>3d</fix>
</trkpt>
<trkpt lat="33.8097792" lon="-118.3940906">
  <ele>-48.81</ele>
  <time>2026-09-01T01:14:05Z</time>
  <course>270.69</course>
  <speed>0.89</speed>
  <fix>3d</fix>
</trkpt>
<trkpt lat="33.8097793" lon="-118.3940925">
  <ele>-50.022</ele>
  <time>2026-09-01T01:14:05Z</time>
  <course>282.06</course>
  <speed>0.8602325267042628</speed>
  <fix>3d</fix>
</trkpt>
<trkpt lat="33.8097792" lon="-118.3940906">
  <ele>-48.81</ele>
  <time>2026-09-01T01:14:05Z</time>
  <course>270.69</course>
  <speed>0.89</speed>
  <fix>3d</fix>
</trkpt>
<trkpt lat="33.8097793" lon="-118.3940935">
  <ele>-50.022</ele>
  <time>2026-09-01T01:14:05Z</time>
  <course>281.9</course>
  <speed>0.8602325267042628</speed>
  <fix>3d</fix>
</trkpt>
<trkpt lat="33.8097792" lon="-118.3940926">
  <ele>-48.81</ele>
  <time>2026-09-01T01:14:05Z</time>
  <course>270.64</course>
  <speed>0.89</speed>
  <fix>3d</fix>
</trkpt>
<trkpt lat="33.8097793" lon="-118.3940945">
  <ele>-50.021</ele>
  <time>2026-09-01T01:14:05Z</time>
  <course>281.74</course>
  <speed>0.8602325267042628</speed>
  <fix>3d</fix>
</trkpt>
<trkpt lat="33.8097792" lon="-118.3940926">
  <ele>-48.81</ele>
  <time>2026-09-01T01:14:05Z</time>
  <course>270.64</course>
  <speed>0.89</speed>
  <fix>3d</fix>
</trkpt>
<trkpt lat="33.8097793" lon="-118.3940954">
  <ele>-50.02</ele>
  <time>2026-09-01T01:14:05Z</time>
  <course>281.59</course>
  <speed>0.8602325267042628</speed>
  <fix>3d</fix>
</trkpt>
<trkpt lat="33.8097792" lon="-118.3940945">
  <ele>-48.81</ele>
  <time>2026-09-01T01:14:05Z</time>
  <course>270.61</course>
  <speed>0.89</speed>
  <fix>3d</fix>
</trkpt>
<trkpt lat="33.8097793" lon="-118.3940964">
  <ele>-50.019</ele>
  <time>2026-09-01T01:14:05Z</time>
  <course>281.44</course>
  <speed>0.8602325267042628</speed>
  <fix>3d</fix>
</trkpt>
<trkpt lat="33.8097792" lon="-118.3940945">
  <ele>-48.81</ele>
  <time>2026-09-01T01:14:05Z</time>
  <course>270.61</course>
  <speed>0.89</speed>
  <fix>3d</fix>
</trkpt>
<trkpt lat="33.8097793" lon="-118.3940974">
  <ele>-50.019</ele>
  <time>2026-09-01T01:14:05Z</time>
  <course>281.3</course>
  <speed>0.8602325267042628</speed>
  <fix>3d</fix>
</trkpt>
<trkpt lat="33.8097792" lon="-118.3940965">
  <ele>-48.81</ele>
  <time>2026-09-01T01:14:05Z</time>
  <course>270.61</course>
  <speed>0.89</speed>
  <fix>3d</fix>
</trkpt>
<trkpt lat="33.8097793" lon="-118.3940984">
  <ele>-50.019</ele>
  <time>2026-09-01T01:14:05Z</time>
  <course>281.16</course>
  <speed>0.8602325267042628</speed>
  <fix>3d</fix>
</trkpt>
<trkpt lat="33.8097792" lon="-118.3940965">
  <ele>-48.81</ele>
  <time>2026-09-01T01:14:05Z</time>
  <course>270.61</course>
  <speed>0.89</speed>
  <fix>3d</fix>
</trkpt>
<trkpt lat="33.8097793" lon="-118.3940993">
  <ele>-50.019</ele>
  <time>2026-09-01T01:14:05Z</time>
  <course>281.04</course>
  <speed>0.8602325267042628</speed>
  <fix>3d</fix>
</trkpt>
<trkpt lat="33.8097792" lon="-118.3940984">
  <ele>-48.81</ele>
  <time>2026-09-01T01:14:05Z</time>
  <course>270.62</course>
  <speed>0.9</speed>
  <fix>3d</fix>
</trkpt>
<trkpt lat="33.8097793" lon="-118.3941003">
  <ele>-50.019</ele>
  <time>2026-09-01T01:14:05Z</time>
  <course>280.92</course>
  <speed>0.8602325267042628</speed>
  <fix>3d</fix>
</trkpt>
<trkpt lat="33.8097792" lon="-118.3940984">
  <ele>-48.81</ele>
  <time>2026-09-01T01:14:05Z</time>
  <course>270.62</course>
  <speed>0.9</speed>
  <fix>3d</fix>
</trkpt>
<trkpt lat="33.8097793" lon="-118.3941013">
  <ele>-50.02</ele>
  <time>2026-09-01T01:14:05Z</time>
  <course>280.82</course>
  <speed>0.8602325267042628</speed>
  <fix>3d</fix>
</trkpt>
<trkpt lat="33.8097792" lon="-118.3941003">
  <ele>-48.81</ele>
  <time>2026-09-01T01:14:05Z</time>
  <course>270.68</course>
  <speed>0.9</speed>
  <fix>3d</fix>
</trkpt>
<trkpt lat="33.8097793" lon="-118.3941023">
  <ele>-50.021</ele>
  <time>2026-09-01T01:14:05Z</time>
  <course>280.71</course>
  <speed>0.8602325267042628</speed>
  <fix>3d</fix>
</trkpt>
<trkpt lat="33.8097792" lon="-118.3941003">
  <ele>-48.81</ele>
  <time>2026-09-01T01:14:05Z</time>
  <course>270.68</course>
  <speed>0.9</speed>
  <fix>3d</fix>
</trkpt>
<trkpt lat="33.8097793" lon="-118.3941032">
  <ele>-50.022</ele>
  <time>2026-09-01T01:14:05Z</time>
  <course>280.6</course>
  <speed>0.8702298546935746</speed>
  <fix>3d</fix>
</trkpt>
<trkpt lat="33.8097792" lon="-118.3941023">
  <ele>-48.81</ele>
  <time>2026-09-01T01:14:05Z</time>
  <course>270.75</course>
  <speed>0.9</speed>
  <fix>3d</fix>
</trkpt>
<trkpt lat="33.8097794" lon="-118.3941042">
  <ele>-50.023</ele>
  <time>2026-09-01T01:14:05Z</time>
  <course>280.5</course>
  <speed>0.8702298546935746</speed>
  <fix>3d</fix>
</trkpt>
<trkpt lat="33.8097792" lon="-118.3941023">
  <ele>-48.81</ele>
  <time>2026-09-01T01:14:05Z</time>
  <course>270.75</course>
  <speed>0.9</speed>
  <fix>3d</fix>
</trkpt>
<trkpt lat="33.8097794" lon="-118.3941052">
  <ele>-50.023</ele>
  <time>2026-09-01T01:14:05Z</time>
  <course>280.4</course>
  <speed>0.8702298546935746</speed>
  <fix>3d</fix>
</trkpt>
<trkpt lat="33.8097792" lon="-118.3941043">
  <ele>-48.8</ele>
  <time>2026-09-01T01:14:05Z</time>
  <course>270.82</course>
  <speed>0.9</speed>
  <fix>3d</fix>
</trkpt>
<trkpt lat="33.8097794" lon="-118.3941062">
  <ele>-50.023</ele>
  <time>2026-09-01T01:14:05Z</time>
  <course>280.3</course>
  <speed>0.8702298546935746</speed>
  <fix>3d</fix>
</trkpt>
<trkpt lat="33.8097792" lon="-118.3941043">
  <ele>-48.8</ele>
  <time>2026-09-01T01:14:05Z</time>
  <course>270.82</course>
  <speed>0.9</speed>
  <fix>3d</fix>
</trkpt>
<trkpt lat="33.8097794" lon="-118.3941071">
  <ele>-50.022</ele>
  <time>2026-09-01T01:14:05Z</time>
  <course>280.2</course>
  <speed>0.8702298546935746</speed>
  <fix>3d</fix>
</trkpt>
<trkpt lat="33.8097793" lon="-118.3941062">
  <ele>-48.8</ele>
  <time>2026-09-01T01:14:05Z</time>
  <course>270.89</course>
  <speed>0.9</speed>
  <fix>3d</fix>
</trkpt>
<trkpt lat="33.8097794" lon="-118.3941081">
  <ele>-50.02</ele>
  <time>2026-09-01T01:14:05Z</time>
  <course>280.09</course>
  <speed>0.8702298546935746</speed>
  <fix>3d</fix>
</trkpt>
<trkpt lat="33.8097793" lon="-118.3941062">
  <ele>-48.8</ele>
  <time>2026-09-01T01:14:05Z</time>
  <course>270.89</course>
  <speed>0.9</speed>
  <fix>3d</fix>
</trkpt>
<trkpt lat="33.8097794" lon="-118.3941091">
  <ele>-50.019</ele>
  <time>2026-09-01T01:14:05Z</time>
  <course>279.97</course>
  <speed>0.8702298546935746</speed>
  <fix>3d</fix>
</trkpt>
<trkpt lat="33.8097793" lon="-118.3941082">
  <ele>-48.8</ele>
  <time>2026-09-01T01:14:05Z</time>
  <course>270.91</course>
  <speed>0.9</speed>
  <fix>3d</fix>
</trkpt>
<trkpt lat="33.8097794" lon="-118.3941101">
  <ele>-50.018</ele>
  <time>2026-09-01T01:14:05Z</time>
  <course>279.83</course>
  <speed>0.8702298546935746</speed>
  <fix>3d</fix>
</trkpt>
<trkpt lat="33.8097793" lon="-118.3941082">
  <ele>-48.8</ele>
  <time>2026-09-01T01:14:05Z</time>
  <course>270.91</course>
  <speed>0.9</speed>
  <fix>3d</fix>
</trkpt>
<trkpt lat="33.8097794" lon="-118.3941111">
  <ele>-50.017</ele>
  <time>2026-09-01T01:14:05Z</time>
  <course>279.69</course>
  <speed>0.8702298546935746</speed>
  <fix>3d</fix>
</trkpt>
<trkpt lat="33.8097793" lon="-118.3941101">
  <ele>-48.8</ele>
  <time>2026-09-01T01:14:05Z</time>
  <course>270.89</course>
  <speed>0.9</speed>
  <fix>3d</fix>
</trkpt>
<trkpt lat="33.8097794" lon="-118.3941121">
  <ele>-50.015</ele>
  <time>2026-09-01T01:14:05Z</time>
  <course>279.55</course>
  <speed>0.8702298546935746</speed>
  <fix>3d</fix>
</trkpt>
<trkpt lat="33.8097793" lon="-118.3941101">
  <ele>-48.8</ele>
  <time>2026-09-01T01:14:05Z</time>
  <course>270.89</course>
  <speed>0.9</speed>
  <fix>3d</fix>
</trkpt>
<trkpt lat="33.8097794" lon="-118.394113">
  <ele>-50.014</ele>
  <time>2026-09-01T01:14:05Z</time>
  <course>279.4</course>
  <speed>0.8702298546935746</speed>
  <fix>3d</fix>
</trkpt>
<trkpt lat="33.8097793" lon="-118.3941121">
  <ele>-48.8</ele>
  <time>2026-09-01T01:14:05Z</time>
  <course>270.85</course>
  <speed>0.9</speed>
  <fix>3d</fix>
</trkpt>
<trkpt lat="33.8097794" lon="-118.394114">
  <ele>-50.014</ele>
  <time>2026-09-01T01:14:05Z</time>
  <course>279.26</course>
  <speed>0.8702298546935746</speed>
  <fix>3d</fix>
</trkpt>
<trkpt lat="33.8097793" lon="-118.3941121">
  <ele>-48.8</ele>
  <time>2026-09-01T01:14:05Z</time>
  <course>270.85</course>
  <speed>0.9</speed>
  <fix>3d</fix>
</trkpt>
<trkpt lat="33.8097794" lon="-118.394115">
  <ele>-50.014</ele>
  <time>2026-09-01T01:14:05Z</time>
  <course>279.13</course>
  <speed>0.8702298546935746</speed>
  <fix>3d</fix>
</trkpt>
<trkpt lat="33.8097794" lon="-118.3941141">
  <ele>-48.8</ele>
  <time>2026-09-01T01:14:05Z</time>
  <course>270.84</course>
  <speed>0.9</speed>
  <fix>3d</fix>
</trkpt>
<trkpt lat="33.8097794" lon="-118.394116">
  <ele>-50.016</ele>
  <time>2026-09-01T01:14:05Z</time>
  <course>278.99</course>
  <speed>0.8702298546935746</speed>
  <fix>3d</fix>
</trkpt>
<trkpt lat="33.8097794" lon="-118.3941141">
  <ele>-48.8</ele>
  <time>2026-09-01T01:14:05Z</time>
  <course>270.84</course>
  <speed>0.9</speed>
  <fix>3d</fix>
</trkpt>
<trkpt lat="33.8097795" lon="-118.394117">
  <ele>-50.018</ele>
  <time>2026-09-01T01:14:05Z</time>
  <course>278.85</course>
  <speed>0.8802272433866155</speed>
  <fix>3d</fix>
</trkpt>
<trkpt lat="33.8097795" lon="-118.394116">
  <ele>-48.8</ele>
  <time>2026-09-01T01:14:05Z</time>
  <course>270.81</course>
  <speed>0.9</speed>
  <fix>3d</fix>
</trkpt>
<trkpt lat="33.8097795" lon="-118.394118">
  <ele>-50.019</ele>
  <time>2026-09-01T01:14:05Z</time>
  <course>278.68</course>
  <speed>0.8802272433866155</speed>
  <fix>3d</fix>
</trkpt>
<trkpt lat="33.8097795" lon="-118.394116">
  <ele>-48.8</ele>
  <time>2026-09-01T01:14:05Z</time>
  <course>270.81</course>
  <speed>0.9</speed>
  <fix>3d</fix>
</trkpt>
<trkpt lat="33.8097795" lon="-118.394119">
  <ele>-50.019</ele>
  <time>2026-09-01T01:14:05Z</time>
  <course>278.49</course>
  <speed>0.880056816347672</speed>
  <fix>3d</fix>
</trkpt>
<trkpt lat="33.8097795" lon="-118.394118">
  <ele>-48.8</ele>
  <time>2026-09-01T01:14:05Z</time>
  <course>270.68</course>
  <speed>0.91</speed>
  <fix>3d</fix>
</trkpt>
<trkpt lat="33.8097795" lon="-118.39412">
  <ele>-50.02</ele>
  <time>2026-09-01T01:14:05Z</time>
  <course>278.29</course>
  <speed>0.880056816347672</speed>
  <fix>3d</fix>
</trkpt>
<trkpt lat="33.8097795" lon="-118.394118">
  <ele>-48.8</ele>
  <time>2026-09-01T01:14:05Z</time>
  <course>270.68</course>
  <speed>0.91</speed>
  <fix>3d</fix>
</trkpt>
<trkpt lat="33.8097795" lon="-118.3941209">
  <ele>-50.02</ele>
  <time>2026-09-01T01:14:05Z</time>
  <course>278.09</course>
  <speed>0.880056816347672</speed>
  <fix>3d</fix>
</trkpt>
<trkpt lat="33.8097795" lon="-118.3941199">
  <ele>-48.81</ele>
  <time>2026-09-01T01:14:05Z</time>
  <course>270.5</course>
  <speed>0.91</speed>
  <fix>3d</fix>
</trkpt>
<trkpt lat="33.8097795" lon="-118.3941219">
  <ele>-50.02</ele>
  <time>2026-09-01T01:14:05Z</time>
  <course>277.9</course>
  <speed>0.880056816347672</speed>
  <fix>3d</fix>
</trkpt>
<trkpt lat="33.8097795" lon="-118.3941199">
  <ele>-48.81</ele>
  <time>2026-09-01T01:14:05Z</time>
  <course>270.5</course>
  <speed>0.91</speed>
  <fix>3d</fix>
</trkpt>
<trkpt lat="33.8097795" lon="-118.3941229">
  <ele>-50.019</ele>
  <time>2026-09-01T01:14:05Z</time>
  <course>277.72</course>
  <speed>0.880056816347672</speed>
  <fix>3d</fix>
</trkpt>
<trkpt lat="33.8097795" lon="-118.3941219">
  <ele>-48.81</ele>
  <time>2026-09-01T01:14:05Z</time>
  <course>270.36</course>
  <speed>0.91</speed>
  <fix>3d</fix>
</trkpt>
<trkpt lat="33.8097795" lon="-118.3941239">
  <ele>-50.018</ele>
  <time>2026-09-01T01:14:05Z</time>
  <course>277.55</course>
  <speed>0.880056816347672</speed>
  <fix>3d</fix>
</trkpt>
<trkpt lat="33.8097795" lon="-118.3941219">
  <ele>-48.81</ele>
  <time>2026-09-01T01:14:05Z</time>
  <course>270.36</course>
  <speed>0.91</speed>
  <fix>3d</fix>
</trkpt>
<trkpt lat="33.8097795" lon="-118.3941249">
  <ele>-50.018</ele>
  <time>2026-09-01T01:14:05Z</time>
  <course>277.39</course>
  <speed>0.880056816347672</speed>
  <fix>3d</fix>
</trkpt>
<trkpt lat="33.8097795" lon="-118.3941239">
  <ele>-48.81</ele>
  <time>2026-09-01T01:14:05Z</time>
  <course>270.27</course>
  <speed>0.91</speed>
  <fix>3d</fix>
</trkpt>
<trkpt lat="33.8097795" lon="-118.3941259">
  <ele>-50.018</ele>
  <time>2026-09-01T01:14:05Z</time>
  <course>277.26</course>
  <speed>0.880056816347672</speed>
  <fix>3d</fix>
</trkpt>
<trkpt lat="33.8097795" lon="-118.3941239">
  <ele>-48.81</ele>
  <time>2026-09-01T01:14:05Z</time>
  <course>270.27</course>
  <speed>0.91</speed>
  <fix>3d</fix>
</trkpt>
<trkpt lat="33.8097796" lon="-118.3941269">
  <ele>-50.02</ele>
  <time>2026-09-01T01:14:05Z</time>
  <course>277.13</course>
  <speed>0.8900561780022652</speed>
  <fix>3d</fix>
</trkpt>
<trkpt lat="33.8097795" lon="-118.3941259">
  <ele>-48.81</ele>
  <time>2026-09-01T01:14:05Z</time>
  <course>270.23</course>
  <speed>0.91</speed>
  <fix>3d</fix>
</trkpt>
<trkpt lat="33.8097796" lon="-118.3941279">
  <ele>-50.021</ele>
  <time>2026-09-01T01:14:05Z</time>
  <course>277.02</course>
  <speed>0.8900561780022652</speed>
  <fix>3d</fix>
</trkpt>
<trkpt lat="33.8097795" lon="-118.3941259">
  <ele>-48.81</ele>
  <time>2026-09-01T01:14:05Z</time>
  <course>270.23</course>
  <speed>0.91</speed>
  <fix>3d</fix>
</trkpt>
<trkpt lat="33.8097796" lon="-118.3941289">
  <ele>-50.021</ele>
  <time>2026-09-01T01:14:05Z</time>
  <course>276.91</course>
  <speed>0.8900561780022652</speed>
  <fix>3d</fix>
</trkpt>
<trkpt lat="33.8097795" lon="-118.3941279">
  <ele>-48.81</ele>
  <time>2026-09-01T01:14:05Z</time>
  <course>270.23</course>
  <speed>0.91</speed>
  <fix>3d</fix>
</trkpt>
<trkpt lat="33.8097796" lon="-118.3941299">
  <ele>-50.02</ele>
  <time>2026-09-01T01:14:05Z</time>
  <course>276.82</course>
  <speed>0.8900561780022652</speed>
  <fix>3d</fix>
</trkpt>
<trkpt lat="33.8097795" lon="-118.3941279">
  <ele>-48.81</ele>
  <time>2026-09-01T01:14:05Z</time>
  <course>270.23</course>
  <speed>0.91</speed>
  <fix>3d</fix>
</trkpt>
<trkpt lat="33.8097796" lon="-118.3941309">
  <ele>-50.02</ele>
  <time>2026-09-01T01:14:05Z</time>
  <course>276.74</course>
  <speed>0.8900561780022652</speed>
  <fix>3d</fix>
</trkpt>
<trkpt lat="33.8097796" lon="-118.3941299">
  <ele>-48.81</ele>
  <time>2026-09-01T01:14:05Z</time>
  <course>270.24</course>
  <speed>0.91</speed>
  <fix>3d</fix>
</trkpt>
<trkpt lat="33.8097796" lon="-118.3941319">
  <ele>-50.02</ele>
  <time>2026-09-01T01:14:05Z</time>
  <course>276.65</course>
  <speed>0.8900561780022652</speed>
  <fix>3d</fix>
</trkpt>
<trkpt lat="33.8097796" lon="-118.3941299">
  <ele>-48.81</ele>
  <time>2026-09-01T01:14:05Z</time>
  <course>270.24</course>
  <speed>0.91</speed>
  <fix>3d</fix>
</trkpt>
<trkpt lat="33.8097796" lon="-118.3941329">
  <ele>-50.019</ele>
  <time>2026-09-01T01:14:05Z</time>
  <course>276.54</course>
  <speed>0.8900561780022652</speed>
  <fix>3d</fix>
</trkpt>
<trkpt lat="33.8097796" lon="-118.3941318">
  <ele>-48.81</ele>
  <time>2026-09-01T01:14:05Z</time>
  <course>270.21</course>
  <speed>0.91</speed>
  <fix>3d</fix>
</trkpt>
<trkpt lat="33.8097796" lon="-118.3941339">
  <ele>-50.018</ele>
  <time>2026-09-01T01:14:05Z</time>
  <course>276.42</course>
  <speed>0.8900561780022652</speed>
  <fix>3d</fix>
</trkpt>
<trkpt lat="33.8097796" lon="-118.3941318">
  <ele>-48.81</ele>
  <time>2026-09-01T01:14:05Z</time>
  <course>270.21</course>
  <speed>0.91</speed>
  <fix>3d</fix>
</trkpt>
<trkpt lat="33.8097796" lon="-118.3941349">
  <ele>-50.018</ele>
  <time>2026-09-01T01:14:05Z</time>
  <course>276.3</course>
  <speed>0.8900561780022652</speed>
  <fix>3d</fix>
</trkpt>
<trkpt lat="33.8097796" lon="-118.3941338">
  <ele>-48.81</ele>
  <time>2026-09-01T01:14:05Z</time>
  <course>270.12</course>
  <speed>0.92</speed>
  <fix>3d</fix>
</trkpt>
<trkpt lat="33.8097796" lon="-118.3941359">
  <ele>-50.018</ele>
  <time>2026-09-01T01:14:05Z</time>
  <course>276.18</course>
  <speed>0.8900561780022652</speed>
  <fix>3d</fix>
</trkpt>
<trkpt lat="33.8097796" lon="-118.3941338">
  <ele>-48.81</ele>
  <time>2026-09-01T01:14:05Z</time>
  <course>270.12</course>
  <speed>0.92</speed>
  <fix>3d</fix>
</trkpt>
<trkpt lat="33.8097796" lon="-118.3941369">
  <ele>-50.019</ele>
  <time>2026-09-01T01:14:05Z</time>
  <course>276.05</course>
  <speed>0.8900561780022652</speed>
  <fix>3d</fix>
</trkpt>
<trkpt lat="33.8097796" lon="-118.3941357">
  <ele>-48.81</ele>
  <time>2026-09-01T01:14:05Z</time>
  <course>270.03</course>
  <speed>0.92</speed>
  <fix>3d</fix>
</trkpt>
<trkpt lat="33.8097796" lon="-118.3941379">
  <ele>-50.019</ele>
  <time>2026-09-01T01:14:05Z</time>
  <course>275.93</course>
  <speed>0.8900561780022652</speed>
  <fix>3d</fix>
</trkpt>
<trkpt lat="33.8097796" lon="-118.3941357">
  <ele>-48.81</ele>
  <time>2026-09-01T01:14:05Z</time>
  <course>270.03</course>
  <speed>0.92</speed>
  <fix>3d</fix>
</trkpt>
<trkpt lat="33.8097796" lon="-118.3941389">
  <ele>-50.019</ele>
  <time>2026-09-01T01:14:05Z</time>
  <course>275.82</course>
  <speed>0.9000555538409837</speed>
  <fix>3d</fix>
</trkpt>
<trkpt lat="33.8097796" lon="-118.3941378">
  <ele>-48.81</ele>
  <time>2026-09-01T01:14:05Z</time>
  <course>269.97</course>
  <speed>0.92</speed>
  <fix>3d</fix>
</trkpt>
<trkpt lat="33.8097796" lon="-118.3941399">
  <ele>-50.02</ele>
  <time>2026-09-01T01:14:05Z</time>
  <course>275.72</course>
  <speed>0.9000555538409837</speed>
  <fix>3d</fix>
</trkpt>
<trkpt lat="33.8097796" lon="-118.3941378">
  <ele>-48.81</ele>
  <time>2026-09-01T01:14:05Z</time>
  <course>269.97</course>
  <speed>0.92</speed>
  <fix>3d</fix>
</trkpt>
<trkpt lat="33.8097796" lon="-118.3941409">
  <ele>-50.019</ele>
  <time>2026-09-01T01:14:05Z</time>
  <course>275.63</course>
  <speed>0.9000555538409837</speed>
  <fix>3d</fix>
</trkpt>
<trkpt lat="33.8097796" lon="-118.3941398">
  <ele>-48.81</ele>
  <time>2026-09-01T01:14:05Z</time>
  <course>269.95</course>
  <speed>0.92</speed>
  <fix>3d</fix>
</trkpt>
<trkpt lat="33.8097796" lon="-118.3941419">
  <ele>-50.019</ele>
  <time>2026-09-01T01:14:05Z</time>
  <course>275.54</course>
  <speed>0.9000555538409837</speed>
  <fix>3d</fix>
</trkpt>
<trkpt lat="33.8097796" lon="-118.3941398">
  <ele>-48.81</ele>
  <time>2026-09-01T01:14:05Z</time>
  <course>269.95</course>
  <speed>0.92</speed>
  <fix>3d</fix>
</trkpt>
<trkpt lat="33.8097796" lon="-118.3941429">
  <ele>-50.019</ele>
  <time>2026-09-01T01:14:05Z</time>
  <course>275.47</course>
  <speed>0.9000555538409837</speed>
  <fix>3d</fix>
</trkpt>
<trkpt lat="33.8097796" lon="-118.3941418">
  <ele>-48.82</ele>
  <time>2026-09-01T01:14:05Z</time>
  <course>269.93</course>
  <speed>0.92</speed>
  <fix>3d</fix>
</trkpt>
<trkpt lat="33.8097797" lon="-118.3941439">
  <ele>-50.021</ele>
  <time>2026-09-01T01:14:05Z</time>
  <course>275.39</course>
  <speed>0.9000555538409837</speed>
  <fix>3d</fix>
</trkpt>
<trkpt lat="33.8097796" lon="-118.3941418">
  <ele>-48.82</ele>
  <time>2026-09-01T01:14:05Z</time>
  <course>269.93</course>
  <speed>0.92</speed>
  <fix>3d</fix>
</trkpt>
<trkpt lat="33.8097797" lon="-118.3941449">
  <ele>-50.022</ele>
  <time>2026-09-01T01:14:05Z</time>
  <course>275.33</course>
  <speed>0.9000555538409837</speed>
  <fix>3d</fix>
</trkpt>
<trkpt lat="33.8097796" lon="-118.3941438">
  <ele>-48.82</ele>
  <time>2026-09-01T01:14:05Z</time>
  <course>269.92</course>
  <speed>0.92</speed>
  <fix>3d</fix>
</trkpt>
<trkpt lat="33.8097797" lon="-118.3941459">
  <ele>-50.024</ele>
  <time>2026-09-01T01:14:05Z</time>
  <course>275.26</course>
  <speed>0.9000555538409837</speed>
  <fix>3d</fix>
</trkpt>
<trkpt lat="33.8097796" lon="-118.3941438">
  <ele>-48.82</ele>
  <time>2026-09-01T01:14:05Z</time>
  <course>269.92</course>
  <speed>0.92</speed>
  <fix>3d</fix>
</trkpt>
<trkpt lat="33.8097797" lon="-118.3941469">
  <ele>-50.025</ele>
  <time>2026-09-01T01:14:05Z</time>
  <course>275.21</course>
  <speed>0.9000555538409837</speed>
  <fix>3d</fix>
</trkpt>
<trkpt lat="33.8097796" lon="-118.3941459">
  <ele>-48.82</ele>
  <time>2026-09-01T01:14:05Z</time>
  <course>269.92</course>
  <speed>0.93</speed>
  <fix>3d</fix>
</trkpt>
<trkpt lat="33.8097797" lon="-118.3941479">
  <ele>-50.026</ele>
  <time>2026-09-01T01:14:05Z</time>
  <course>275.14</course>
  <speed>0.9000555538409837</speed>
  <fix>3d</fix>
</trkpt>
<trkpt lat="33.8097796" lon="-118.3941459">
  <ele>-48.82</ele>
  <time>2026-09-01T01:14:05Z</time>
  <course>269.92</course>
  <speed>0.93</speed>
  <fix>3d</fix>
</trkpt>
<trkpt lat="33.8097797" lon="-118.3941489">
  <ele>-50.027</ele>
  <time>2026-09-01T01:14:05Z</time>
  <course>275.09</course>
  <speed>0.9000555538409837</speed>
  <fix>3d</fix>
</trkpt>
<trkpt lat="33.8097796" lon="-118.3941479">
  <ele>-48.82</ele>
  <time>2026-09-01T01:14:05Z</time>
  <course>269.93</course>
  <speed>0.93</speed>
  <fix>3d</fix>
</trkpt>
<trkpt lat="33.8097797" lon="-118.3941499">
  <ele>-50.026</ele>
  <time>2026-09-01T01:14:05Z</time>
  <course>275.04</course>
  <speed>0.9000555538409837</speed>
  <fix>3d</fix>
</trkpt>
<trkpt lat="33.8097796" lon="-118.3941479">
  <ele>-48.82</ele>
  <time>2026-09-01T01:14:05Z</time>
  <course>269.93</course>
  <speed>0.93</speed>
  <fix>3d</fix>
</trkpt>
<trkpt lat="33.8097797" lon="-118.394151">
  <ele>-50.025</ele>
  <time>2026-09-01T01:14:05Z</time>
  <course>274.99</course>
  <speed>0.9000555538409837</speed>
  <fix>3d</fix>
</trkpt>
<trkpt lat="33.8097796" lon="-118.3941499">
  <ele>-48.81</ele>
  <time>2026-09-01T01:14:05Z</time>
  <course>269.95</course>
  <speed>0.93</speed>
  <fix>3d</fix>
</trkpt>
<trkpt lat="33.8097797" lon="-118.394152">
  <ele>-50.023</ele>
  <time>2026-09-01T01:14:05Z</time>
  <course>274.94</course>
  <speed>0.9000555538409837</speed>
  <fix>3d</fix>
</trkpt>
<trkpt lat="33.8097796" lon="-118.3941499">
  <ele>-48.81</ele>
  <time>2026-09-01T01:14:05Z</time>
  <course>269.95</course>
  <speed>0.93</speed>
  <fix>3d</fix>
</trkpt>
<trkpt lat="33.8097797" lon="-118.394153">
  <ele>-50.021</ele>
  <time>2026-09-01T01:14:05Z</time>
  <course>274.9</course>
  <speed>0.9000555538409837</speed>
  <fix>3d</fix>
</trkpt>
<trkpt lat="33.8097796" lon="-118.3941519">
  <ele>-48.81</ele>
  <time>2026-09-01T01:14:05Z</time>
  <course>269.95</course>
  <speed>0.93</speed>
  <fix>3d</fix>
</trkpt>
<trkpt lat="33.8097797" lon="-118.394154">
  <ele>-50.019</ele>
  <time>2026-09-01T01:14:05Z</time>
  <course>274.85</course>
  <speed>0.9000555538409837</speed>
  <fix>3d</fix>
</trkpt>
<trkpt lat="33.8097796" lon="-118.3941519">
  <ele>-48.81</ele>
  <time>2026-09-01T01:14:05Z</time>
  <course>269.95</course>
  <speed>0.93</speed>
  <fix>3d</fix>
</trkpt>
<trkpt lat="33.8097797" lon="-118.394155">
  <ele>-50.019</ele>
  <time>2026-09-01T01:14:05Z</time>
  <course>274.81</course>
  <speed>0.9000555538409837</speed>
  <fix>3d</fix>
</trkpt>
<trkpt lat="33.8097796" lon="-118.3941539">
  <ele>-48.8</ele>
  <time>2026-09-01T01:14:05Z</time>
  <course>269.96</course>
  <speed>0.93</speed>
  <fix>3d</fix>
</trkpt>
<trkpt lat="33.8097797" lon="-118.394156">
  <ele>-50.019</ele>
  <time>2026-09-01T01:14:05Z</time>
  <course>274.76</course>
  <speed>0.9100549433962765</speed>
  <fix>3d</fix>
</trkpt>
<trkpt lat="33.8097796" lon="-118.3941539">
  <ele>-48.8</ele>
  <time>2026-09-01T01:14:05Z</time>
  <course>269.96</course>
  <speed>0.93</speed>
  <fix>3d</fix>
</trkpt>
<trkpt lat="33.8097797" lon="-118.394157">
  <ele>-50.019</ele>
  <time>2026-09-01T01:14:05Z</time>
  <course>274.72</course>
  <speed>0.9100549433962765</speed>
  <fix>3d</fix>
</trkpt>
<trkpt lat="33.8097796" lon="-118.3941559">
  <ele>-48.8</ele>
  <time>2026-09-01T01:14:05Z</time>
  <course>269.99</course>
  <speed>0.93</speed>
  <fix>3d</fix>
</trkpt>
<trkpt lat="33.8097797" lon="-118.394158">
  <ele>-50.019</ele>
  <time>2026-09-01T01:14:05Z</time>
  <course>274.67</course>
  <speed>0.9100549433962765</speed>
  <fix>3d</fix>
</trkpt>
<trkpt lat="33.8097796" lon="-118.3941559">
  <ele>-48.8</ele>
  <time>2026-09-01T01:14:05Z</time>
  <course>269.99</course>
  <speed>0.93</speed>
  <fix>3d</fix>
</trkpt>
<trkpt lat="33.8097797" lon="-118.3941591">
  <ele>-50.018</ele>
  <time>2026-09-01T01:14:05Z</time>
  <course>274.63</course>
  <speed>0.9100549433962765</speed>
  <fix>3d</fix>
</trkpt>
<trkpt lat="33.8097796" lon="-118.394158">
  <ele>-48.8</ele>
  <time>2026-09-01T01:14:05Z</time>
  <course>270.01</course>
  <speed>0.93</speed>
  <fix>3d</fix>
</trkpt>
<trkpt lat="33.8097797" lon="-118.3941601">
  <ele>-50.016</ele>
  <time>2026-09-01T01:14:05Z</time>
  <course>274.58</course>
  <speed>0.9102197536858887</speed>
  <fix>3d</fix>
</trkpt>
<trkpt lat="33.8097796" lon="-118.394158">
  <ele>-48.8</ele>
  <time>2026-09-01T01:14:05Z</time>
  <course>270.01</course>
  <speed>0.93</speed>
  <fix>3d</fix>
</trkpt>
<trkpt lat="33.8097797" lon="-118.3941611">
  <ele>-50.014</ele>
  <time>2026-09-01T01:14:05Z</time>
  <course>274.54</course>
  <speed>0.9100549433962765</speed>
  <fix>3d</fix>
</trkpt>
<trkpt lat="33.8097796" lon="-118.39416">
  <ele>-48.8</ele>
  <time>2026-09-01T01:14:05Z</time>
  <course>270.02</course>
  <speed>0.93</speed>
  <fix>3d</fix>
</trkpt>
<trkpt lat="33.8097797" lon="-118.3941621">
  <ele>-50.012</ele>
  <time>2026-09-01T01:14:05Z</time>
  <course>274.5</course>
  <speed>0.9102197536858887</speed>
  <fix>3d</fix>
</trkpt>
<trkpt lat="33.8097796" lon="-118.39416">
  <ele>-48.8</ele>
  <time>2026-09-01T01:14:05Z</time>
  <course>270.02</course>
  <speed>0.93</speed>
  <fix>3d</fix>
</trkpt>
<trkpt lat="33.8097797" lon="-118.3941631">
  <ele>-50.012</ele>
  <time>2026-09-01T01:14:05Z</time>
  <course>274.46</course>
  <speed>0.9102197536858887</speed>
  <fix>3d</fix>
</trkpt>
<trkpt lat="33.8097796" lon="-118.394162">
  <ele>-48.8</ele>
  <time>2026-09-01T01:14:05Z</time>
  <course>270.06</course>
  <speed>0.93</speed>
  <fix>3d</fix>
</trkpt>
<trkpt lat="33.8097797" lon="-118.3941642">
  <ele>-50.013</ele>
  <time>2026-09-01T01:14:05Z</time>
  <course>274.42</course>
  <speed>0.9102197536858887</speed>
  <fix>3d</fix>
</trkpt>
<trkpt lat="33.8097796" lon="-118.394162">
  <ele>-48.8</ele>
  <time>2026-09-01T01:14:05Z</time>
  <course>270.06</course>
  <speed>0.93</speed>
  <fix>3d</fix>
</trkpt>
<trkpt lat="33.8097797" lon="-118.3941652">
  <ele>-50.016</ele>
  <time>2026-09-01T01:14:05Z</time>
  <course>274.38</course>
  <speed>0.9102197536858887</speed>
  <fix>3d</fix>
</trkpt>
<trkpt lat="33.8097796" lon="-118.394164">
  <ele>-48.81</ele>
  <time>2026-09-01T01:14:05Z</time>
  <course>270.09</course>
  <speed>0.94</speed>
  <fix>3d</fix>
</trkpt>
<trkpt lat="33.8097797" lon="-118.3941662">
  <ele>-50.019</ele>
  <time>2026-09-01T01:14:05Z</time>
  <course>274.34</course>
  <speed>0.9102197536858887</speed>
  <fix>3d</fix>
</trkpt>
<trkpt lat="33.8097796" lon="-118.394164">
  <ele>-48.81</ele>
  <time>2026-09-01T01:14:05Z</time>
  <course>270.09</course>
  <speed>0.94</speed>
  <fix>3d</fix>
</trkpt>
<trkpt lat="33.8097797" lon="-118.3941672">
  <ele>-50.021</ele>
  <time>2026-09-01T01:14:05Z</time>
  <course>274.31</course>
  <speed>0.9102197536858887</speed>
  <fix>3d</fix>
</trkpt>
<trkpt lat="33.8097796" lon="-118.3941661">
  <ele>-48.81</ele>
  <time>2026-09-01T01:14:05Z</time>
  <course>270.1</course>
  <speed>0.94</speed>
  <fix>3d</fix>
</trkpt>
<trkpt lat="33.8097797" lon="-118.3941682">
  <ele>-50.022</ele>
  <time>2026-09-01T01:14:06Z</time>
  <course>274.27</course>
  <speed>0.9102197536858887</speed>
  <fix>3d</fix>
</trkpt>
<trkpt lat="33.8097796" lon="-118.3941661">
  <ele>-48.81</ele>
  <time>2026-09-01T01:14:06Z</time>
  <course>270.1</course>
  <speed>0.94</speed>
  <fix>3d</fix>
</trkpt>
<trkpt lat="33.8097797" lon="-118.3941692">
  <ele>-50.022</ele>
  <time>2026-09-01T01:14:06Z</time>
  <course>274.23</course>
  <speed>0.9202173656261873</speed>
  <fix>3d</fix>
</trkpt>
<trkpt lat="33.8097796" lon="-118.3941681">
  <ele>-48.81</ele>
  <time>2026-09-01T01:14:06Z</time>
  <course>270.13</course>
  <speed>0.94</speed>
  <fix>3d</fix>
</trkpt>
<trkpt lat="33.8097797" lon="-118.3941703">
  <ele>-50.022</ele>
  <time>2026-09-01T01:14:06Z</time>
  <course>274.19</course>
  <speed>0.9202173656261873</speed>
  <fix>3d</fix>
</trkpt>
<trkpt lat="33.8097796" lon="-118.3941681">
  <ele>-48.81</ele>
  <time>2026-09-01T01:14:06Z</time>
  <course>270.13</course>
  <speed>0.94</speed>
  <fix>3d</fix>
</trkpt>
<trkpt lat="33.8097797" lon="-118.3941713">
  <ele>-50.023</ele>
  <time>2026-09-01T01:14:06Z</time>
  <course>274.15</course>
  <speed>0.9202173656261873</speed>
  <fix>3d</fix>
</trkpt>
<trkpt lat="33.8097796" lon="-118.3941702">
  <ele>-48.82</ele>
  <time>2026-09-01T01:14:06Z</time>
  <course>270.15</course>
  <speed>0.94</speed>
  <fix>3d</fix>
</trkpt>
<trkpt lat="33.8097797" lon="-118.3941723">
  <ele>-50.024</ele>
  <time>2026-09-01T01:14:06Z</time>
  <course>274.11</course>
  <speed>0.9202173656261873</speed>
  <fix>3d</fix>
</trkpt>
<trkpt lat="33.8097796" lon="-118.3941702">
  <ele>-48.82</ele>
  <time>2026-09-01T01:14:06Z</time>
  <course>270.15</course>
  <speed>0.94</speed>
  <fix>3d</fix>
</trkpt>
<trkpt lat="33.8097797" lon="-118.3941734">
  <ele>-50.026</ele>
  <time>2026-09-01T01:14:06Z</time>
  <course>274.07</course>
  <speed>0.9202173656261873</speed>
  <fix>3d</fix>
</trkpt>
<trkpt lat="33.8097796" lon="-118.3941722">
  <ele>-48.82</ele>
  <time>2026-09-01T01:14:06Z</time>
  <course>270.16</course>
  <speed>0.94</speed>
  <fix>3d</fix>
</trkpt>
<trkpt lat="33.8097797" lon="-118.3941744">
  <ele>-50.027</ele>
  <time>2026-09-01T01:14:06Z</time>
  <course>274.04</course>
  <speed>0.9202173656261873</speed>
  <fix>3d</fix>
</trkpt>
<trkpt lat="33.8097796" lon="-118.3941722">
  <ele>-48.82</ele>
  <time>2026-09-01T01:14:06Z</time>
  <course>270.16</course>
  <speed>0.94</speed>
  <fix>3d</fix>
</trkpt>
<trkpt lat="33.8097797" lon="-118.3941754">
  <ele>-50.027</ele>
  <time>2026-09-01T01:14:06Z</time>
  <course>274.01</course>
  <speed>0.9202173656261873</speed>
  <fix>3d</fix>
</trkpt>
<trkpt lat="33.8097796" lon="-118.3941743">
  <ele>-48.81</ele>
  <time>2026-09-01T01:14:06Z</time>
  <course>270.19</course>
  <speed>0.94</speed>
  <fix>3d</fix>
</trkpt>
<trkpt lat="33.8097797" lon="-118.3941764">
  <ele>-50.027</ele>
  <time>2026-09-01T01:14:06Z</time>
  <course>273.97</course>
  <speed>0.9202173656261873</speed>
  <fix>3d</fix>
</trkpt>
<trkpt lat="33.8097796" lon="-118.3941743">
  <ele>-48.81</ele>
  <time>2026-09-01T01:14:06Z</time>
  <course>270.19</course>
  <speed>0.94</speed>
  <fix>3d</fix>
</trkpt>
<trkpt lat="33.8097797" lon="-118.3941775">
  <ele>-50.025</ele>
  <time>2026-09-01T01:14:06Z</time>
  <course>273.94</course>
  <speed>0.9202173656261873</speed>
  <fix>3d</fix>
</trkpt>
<trkpt lat="33.8097796" lon="-118.3941763">
  <ele>-48.81</ele>
  <time>2026-09-01T01:14:06Z</time>
  <course>270.23</course>
  <speed>0.94</speed>
  <fix>3d</fix>
</trkpt>
<trkpt lat="33.8097797" lon="-118.3941785">
  <ele>-50.023</ele>
  <time>2026-09-01T01:14:06Z</time>
  <course>273.91</course>
  <speed>0.9202173656261873</speed>
  <fix>3d</fix>
</trkpt>
<trkpt lat="33.8097796" lon="-118.3941763">
  <ele>-48.81</ele>
  <time>2026-09-01T01:14:06Z</time>
  <course>270.23</course>
  <speed>0.94</speed>
  <fix>3d</fix>
</trkpt>
<trkpt lat="33.8097797" lon="-118.3941795">
  <ele>-50.02</ele>
  <time>2026-09-01T01:14:06Z</time>
  <course>273.87</course>
  <speed>0.9202173656261873</speed>
  <fix>3d</fix>
</trkpt>
<trkpt lat="33.8097796" lon="-118.3941783">
  <ele>-48.8</ele>
  <time>2026-09-01T01:14:06Z</time>
  <course>270.25</course>
  <speed>0.95</speed>
  <fix>3d</fix>
</trkpt>
<trkpt lat="33.8097797" lon="-118.3941805">
  <ele>-50.017</ele>
  <time>2026-09-01T01:14:06Z</time>
  <course>273.83</course>
  <speed>0.9202173656261873</speed>
  <fix>3d</fix>
</trkpt>
<trkpt lat="33.8097796" lon="-118.3941783">
  <ele>-48.8</ele>
  <time>2026-09-01T01:14:06Z</time>
  <course>270.25</course>
  <speed>0.95</speed>
  <fix>3d</fix>
</trkpt>
<trkpt lat="33.8097797" lon="-118.3941816">
  <ele>-50.013</ele>
  <time>2026-09-01T01:14:06Z</time>
  <course>273.8</course>
  <speed>0.9202173656261873</speed>
  <fix>3d</fix>
</trkpt>
<trkpt lat="33.8097796" lon="-118.3941804">
  <ele>-48.8</ele>
  <time>2026-09-01T01:14:06Z</time>
  <course>270.27</course>
  <speed>0.95</speed>
  <fix>3d</fix>
</trkpt>
<trkpt lat="33.8097797" lon="-118.3941826">
  <ele>-50.011</ele>
  <time>2026-09-01T01:14:06Z</time>
  <course>273.76</course>
  <speed>0.9202173656261873</speed>
  <fix>3d</fix>
</trkpt>
<trkpt lat="33.8097796" lon="-118.3941804">
  <ele>-48.8</ele>
  <time>2026-09-01T01:14:06Z</time>
  <course>270.27</course>
  <speed>0.95</speed>
  <fix>3d</fix>
</trkpt>
<trkpt lat="33.8097797" lon="-118.3941836">
  <ele>-50.01</ele>
  <time>2026-09-01T01:14:06Z</time>
  <course>273.73</course>
  <speed>0.9202173656261873</speed>
  <fix>3d</fix>
</trkpt>
<trkpt lat="33.8097796" lon="-118.3941825">
  <ele>-48.8</ele>
  <time>2026-09-01T01:14:06Z</time>
  <course>270.29</course>
  <speed>0.95</speed>
  <fix>3d</fix>
</trkpt>
<trkpt lat="33.8097797" lon="-118.3941847">
  <ele>-50.011</ele>
  <time>2026-09-01T01:14:06Z</time>
  <course>273.69</course>
  <speed>0.9202173656261873</speed>
  <fix>3d</fix>
</trkpt>
<trkpt lat="33.8097796" lon="-118.3941825">
  <ele>-48.8</ele>
  <time>2026-09-01T01:14:06Z</time>
  <course>270.29</course>
  <speed>0.95</speed>
  <fix>3d</fix>
</trkpt>
<trkpt lat="33.8097797" lon="-118.3941857">
  <ele>-50.013</ele>
  <time>2026-09-01T01:14:06Z</time>
  <course>273.66</course>
  <speed>0.9202173656261873</speed>
  <fix>3d</fix>
</trkpt>
<trkpt lat="33.8097796" lon="-118.3941845">
  <ele>-48.8</ele>
  <time>2026-09-01T01:14:06Z</time>
  <course>270.33</course>
  <speed>0.95</speed>
  <fix>3d</fix>
</trkpt>
<trkpt lat="33.8097797" lon="-118.3941867">
  <ele>-50.016</ele>
  <time>2026-09-01T01:14:06Z</time>
  <course>273.63</course>
  <speed>0.9302150289046076</speed>
  <fix>3d</fix>
</trkpt>
<trkpt lat="33.8097796" lon="-118.3941845">
  <ele>-48.8</ele>
  <time>2026-09-01T01:14:06Z</time>
  <course>270.33</course>
  <speed>0.95</speed>
  <fix>3d</fix>
</trkpt>
<trkpt lat="33.8097797" lon="-118.3941878">
  <ele>-50.019</ele>
  <time>2026-09-01T01:14:06Z</time>
  <course>273.6</course>
  <speed>0.9302150289046076</speed>
  <fix>3d</fix>
</trkpt>
<trkpt lat="33.8097796" lon="-118.3941866">
  <ele>-48.8</ele>
  <time>2026-09-01T01:14:06Z</time>
  <course>270.38</course>
  <speed>0.95</speed>
  <fix>3d</fix>
</trkpt>
<trkpt lat="33.8097797" lon="-118.3941888">
  <ele>-50.021</ele>
  <time>2026-09-01T01:14:06Z</time>
  <course>273.57</course>
  <speed>0.9302150289046076</speed>
  <fix>3d</fix>
</trkpt>
<trkpt lat="33.8097796" lon="-118.3941866">
  <ele>-48.8</ele>
  <time>2026-09-01T01:14:06Z</time>
  <course>270.38</course>
  <speed>0.95</speed>
  <fix>3d</fix>
</trkpt>
<trkpt lat="33.8097798" lon="-118.3941898">
  <ele>-50.023</ele>
  <time>2026-09-01T01:14:06Z</time>
  <course>273.54</course>
  <speed>0.9302150289046076</speed>
  <fix>3d</fix>
</trkpt>
<trkpt lat="33.8097796" lon="-118.3941887">
  <ele>-48.81</ele>
  <time>2026-09-01T01:14:06Z</time>
  <course>270.4</course>
  <speed>0.95</speed>
  <fix>3d</fix>
</trkpt>
<trkpt lat="33.8097798" lon="-118.3941909">
  <ele>-50.023</ele>
  <time>2026-09-01T01:14:06Z</time>
  <course>273.51</course>
  <speed>0.9302150289046076</speed>
  <fix>3d</fix>
</trkpt>
<trkpt lat="33.8097796" lon="-118.3941887">
  <ele>-48.81</ele>
  <time>2026-09-01T01:14:06Z</time>
  <course>270.4</course>
  <speed>0.95</speed>
  <fix>3d</fix>
</trkpt>
<trkpt lat="33.8097798" lon="-118.3941919">
  <ele>-50.024</ele>
  <time>2026-09-01T01:14:06Z</time>
  <course>273.48</course>
  <speed>0.9302150289046076</speed>
  <fix>3d</fix>
</trkpt>
<trkpt lat="33.8097796" lon="-118.3941907">
  <ele>-48.81</ele>
  <time>2026-09-01T01:14:06Z</time>
  <course>270.42</course>
  <speed>0.95</speed>
  <fix>3d</fix>
</trkpt>
<trkpt lat="33.8097798" lon="-118.3941929">
  <ele>-50.025</ele>
  <time>2026-09-01T01:14:06Z</time>
  <course>273.44</course>
  <speed>0.9302150289046076</speed>
  <fix>3d</fix>
</trkpt>
<trkpt lat="33.8097796" lon="-118.3941907">
  <ele>-48.81</ele>
  <time>2026-09-01T01:14:06Z</time>
  <course>270.42</course>
  <speed>0.95</speed>
  <fix>3d</fix>
</trkpt>
<trkpt lat="33.8097798" lon="-118.394194">
  <ele>-50.024</ele>
  <time>2026-09-01T01:14:06Z</time>
  <course>273.41</course>
  <speed>0.9302150289046076</speed>
  <fix>3d</fix>
</trkpt>
<trkpt lat="33.8097797" lon="-118.3941928">
  <ele>-48.82</ele>
  <time>2026-09-01T01:14:06Z</time>
  <course>270.44</course>
  <speed>0.95</speed>
  <fix>3d</fix>
</trkpt>
<trkpt lat="33.8097798" lon="-118.394195">
  <ele>-50.023</ele>
  <time>2026-09-01T01:14:06Z</time>
  <course>273.37</course>
  <speed>0.9302150289046076</speed>
  <fix>3d</fix>
</trkpt>
<trkpt lat="33.8097797" lon="-118.3941928">
  <ele>-48.82</ele>
  <time>2026-09-01T01:14:06Z</time>
  <course>270.44</course>
  <speed>0.95</speed>
  <fix>3d</fix>
</trkpt>
<trkpt lat="33.8097798" lon="-118.394196">
  <ele>-50.023</ele>
  <time>2026-09-01T01:14:06Z</time>
  <course>273.3</course>
  <speed>0.9302150289046076</speed>
  <fix>3d</fix>
</trkpt>
<trkpt lat="33.8097797" lon="-118.3941949">
  <ele>-48.81</ele>
  <time>2026-09-01T01:14:06Z</time>
  <course>270.42</course>
  <speed>0.96</speed>
  <fix>3d</fix>
</trkpt>
<trkpt lat="33.8097798" lon="-118.3941971">
  <ele>-50.023</ele>
  <time>2026-09-01T01:14:06Z</time>
  <course>273.23</course>
  <speed>0.9302150289046076</speed>
  <fix>3d</fix>
</trkpt>
<trkpt lat="33.8097797" lon="-118.3941949">
  <ele>-48.81</ele>
  <time>2026-09-01T01:14:06Z</time>
  <course>270.42</course>
  <speed>0.96</speed>
  <fix>3d</fix>
</trkpt>
<trkpt lat="33.8097798" lon="-118.3941981">
  <ele>-50.022</ele>
  <time>2026-09-01T01:14:06Z</time>
  <course>273.15</course>
  <speed>0.9302150289046076</speed>
  <fix>3d</fix>
</trkpt>
<trkpt lat="33.8097797" lon="-118.394197">
  <ele>-48.81</ele>
  <time>2026-09-01T01:14:06Z</time>
  <course>270.35</course>
  <speed>0.96</speed>
  <fix>3d</fix>
</trkpt>
<trkpt lat="33.8097798" lon="-118.3941992">
  <ele>-50.021</ele>
  <time>2026-09-01T01:14:06Z</time>
  <course>273.07</course>
  <speed>0.9302150289046076</speed>
  <fix>3d</fix>
</trkpt>
<trkpt lat="33.8097797" lon="-118.394197">
  <ele>-48.81</ele>
  <time>2026-09-01T01:14:06Z</time>
  <course>270.35</course>
  <speed>0.96</speed>
  <fix>3d</fix>
</trkpt>
<trkpt lat="33.8097798" lon="-118.3942002">
  <ele>-50.021</ele>
  <time>2026-09-01T01:14:06Z</time>
  <course>272.99</course>
  <speed>0.9300537618869137</speed>
  <fix>3d</fix>
</trkpt>
<trkpt lat="33.8097797" lon="-118.394199">
  <ele>-48.81</ele>
  <time>2026-09-01T01:14:06Z</time>
  <course>270.28</course>
  <speed>0.96</speed>
  <fix>3d</fix>
</trkpt>
<trkpt lat="33.8097798" lon="-118.3942013">
  <ele>-50.02</ele>
  <time>2026-09-01T01:14:06Z</time>
  <course>272.92</course>
  <speed>0.9300537618869137</speed>
  <fix>3d</fix>
</trkpt>
<trkpt lat="33.8097797" lon="-118.394199">
  <ele>-48.81</ele>
  <time>2026-09-01T01:14:06Z</time>
  <course>270.28</course>
  <speed>0.96</speed>
  <fix>3d</fix>
</trkpt>
<trkpt lat="33.8097798" lon="-118.3942023">
  <ele>-50.019</ele>
  <time>2026-09-01T01:14:06Z</time>
  <course>272.85</course>
  <speed>0.9300537618869137</speed>
  <fix>3d</fix>
</trkpt>
<trkpt lat="33.8097797" lon="-118.3942011">
  <ele>-48.8</ele>
  <time>2026-09-01T01:14:06Z</time>
  <course>270.23</course>
  <speed>0.96</speed>
  <fix>3d</fix>
</trkpt>
<trkpt lat="33.8097798" lon="-118.3942033">
  <ele>-50.018</ele>
  <time>2026-09-01T01:14:06Z</time>
  <course>272.79</course>
  <speed>0.9300537618869137</speed>
  <fix>3d</fix>
</trkpt>
<trkpt lat="33.8097797" lon="-118.3942011">
  <ele>-48.8</ele>
  <time>2026-09-01T01:14:06Z</time>
  <course>270.23</course>
  <speed>0.96</speed>
  <fix>3d</fix>
</trkpt>
<trkpt lat="33.8097798" lon="-118.3942044">
  <ele>-50.017</ele>
  <time>2026-09-01T01:14:06Z</time>
  <course>272.73</course>
  <speed>0.9300537618869137</speed>
  <fix>3d</fix>
</trkpt>
<trkpt lat="33.8097797" lon="-118.3942032">
  <ele>-48.8</ele>
  <time>2026-09-01T01:14:06Z</time>
  <course>270.21</course>
  <speed>0.96</speed>
  <fix>3d</fix>
</trkpt>
<trkpt lat="33.8097798" lon="-118.3942054">
  <ele>-50.017</ele>
  <time>2026-09-01T01:14:06Z</time>
  <course>272.68</course>
  <speed>0.9300537618869137</speed>
  <fix>3d</fix>
</trkpt>
<trkpt lat="33.8097797" lon="-118.3942032">
  <ele>-48.8</ele>
  <time>2026-09-01T01:14:06Z</time>
  <course>270.21</course>
  <speed>0.96</speed>
  <fix>3d</fix>
</trkpt>
<trkpt lat="33.8097798" lon="-118.3942065">
  <ele>-50.017</ele>
  <time>2026-09-01T01:14:06Z</time>
  <course>272.64</course>
  <speed>0.9300537618869137</speed>
  <fix>3d</fix>
</trkpt>
<trkpt lat="33.8097797" lon="-118.3942053">
  <ele>-48.8</ele>
  <time>2026-09-01T01:14:06Z</time>
  <course>270.2</course>
  <speed>0.96</speed>
  <fix>3d</fix>
</trkpt>
<trkpt lat="33.8097798" lon="-118.3942075">
  <ele>-50.018</ele>
  <time>2026-09-01T01:14:06Z</time>
  <course>272.61</course>
  <speed>0.9300537618869137</speed>
  <fix>3d</fix>
</trkpt>
<trkpt lat="33.8097797" lon="-118.3942053">
  <ele>-48.8</ele>
  <time>2026-09-01T01:14:06Z</time>
  <course>270.2</course>
  <speed>0.96</speed>
  <fix>3d</fix>
</trkpt>
<trkpt lat="33.8097798" lon="-118.3942086">
  <ele>-50.018</ele>
  <time>2026-09-01T01:14:06Z</time>
  <course>272.57</course>
  <speed>0.9400531899844816</speed>
  <fix>3d</fix>
</trkpt>
<trkpt lat="33.8097797" lon="-118.3942074">
  <ele>-48.8</ele>
  <time>2026-09-01T01:14:06Z</time>
  <course>270.21</course>
  <speed>0.96</speed>
  <fix>3d</fix>
</trkpt>
<trkpt lat="33.8097798" lon="-118.3942096">
  <ele>-50.018</ele>
  <time>2026-09-01T01:14:06Z</time>
  <course>272.54</course>
  <speed>0.9400531899844816</speed>
  <fix>3d</fix>
</trkpt>
<trkpt lat="33.8097797" lon="-118.3942074">
  <ele>-48.8</ele>
  <time>2026-09-01T01:14:06Z</time>
  <course>270.21</course>
  <speed>0.96</speed>
  <fix>3d</fix>
</trkpt>
<trkpt lat="33.8097798" lon="-118.3942106">
  <ele>-50.018</ele>
  <time>2026-09-01T01:14:06Z</time>
  <course>272.51</course>
  <speed>0.9400531899844816</speed>
  <fix>3d</fix>
</trkpt>
<trkpt lat="33.8097797" lon="-118.3942094">
  <ele>-48.8</ele>
  <time>2026-09-01T01:14:06Z</time>
  <course>270.22</course>
  <speed>0.96</speed>
  <fix>3d</fix>
</trkpt>
<trkpt lat="33.8097798" lon="-118.3942117">
  <ele>-50.018</ele>
  <time>2026-09-01T01:14:06Z</time>
  <course>272.48</course>
  <speed>0.9402127418834527</speed>
  <fix>3d</fix>
</trkpt>
<trkpt lat="33.8097797" lon="-118.3942094">
  <ele>-48.8</ele>
  <time>2026-09-01T01:14:06Z</time>
  <course>270.22</course>
  <speed>0.96</speed>
  <fix>3d</fix>
</trkpt>
<trkpt lat="33.8097798" lon="-118.3942127">
  <ele>-50.019</ele>
  <time>2026-09-01T01:14:06Z</time>
  <course>272.45</course>
  <speed>0.9400531899844816</speed>
  <fix>3d</fix>
</trkpt>
<trkpt lat="33.8097797" lon="-118.3942115">
  <ele>-48.81</ele>
  <time>2026-09-01T01:14:06Z</time>
  <course>270.23</course>
  <speed>0.96</speed>
  <fix>3d</fix>
</trkpt>
<trkpt lat="33.8097798" lon="-118.3942138">
  <ele>-50.02</ele>
  <time>2026-09-01T01:14:06Z</time>
  <course>272.42</course>
  <speed>0.9400531899844816</speed>
  <fix>3d</fix>
</trkpt>
<trkpt lat="33.8097797" lon="-118.3942115">
  <ele>-48.81</ele>
  <time>2026-09-01T01:14:06Z</time>
  <course>270.23</course>
  <speed>0.96</speed>
  <fix>3d</fix>
</trkpt>
<trkpt lat="33.8097798" lon="-118.3942148">
  <ele>-50.021</ele>
  <time>2026-09-01T01:14:06Z</time>
  <course>272.4</course>
  <speed>0.9400531899844816</speed>
  <fix>3d</fix>
</trkpt>
<trkpt lat="33.8097797" lon="-118.3942136">
  <ele>-48.81</ele>
  <time>2026-09-01T01:14:06Z</time>
  <course>270.23</course>
  <speed>0.96</speed>
  <fix>3d</fix>
</trkpt>
<trkpt lat="33.8097798" lon="-118.3942159">
  <ele>-50.021</ele>
  <time>2026-09-01T01:14:06Z</time>
  <course>272.38</course>
  <speed>0.9402127418834527</speed>
  <fix>3d</fix>
</trkpt>
<trkpt lat="33.8097797" lon="-118.3942136">
  <ele>-48.81</ele>
  <time>2026-09-01T01:14:06Z</time>
  <course>270.23</course>
  <speed>0.96</speed>
  <fix>3d</fix>
</trkpt>
<trkpt lat="33.8097798" lon="-118.3942169">
  <ele>-50.021</ele>
  <time>2026-09-01T01:14:06Z</time>
  <course>272.35</course>
  <speed>0.9400531899844816</speed>
  <fix>3d</fix>
</trkpt>
<trkpt lat="33.8097798" lon="-118.3942157">
  <ele>-48.81</ele>
  <time>2026-09-01T01:14:06Z</time>
  <course>270.24</course>
  <speed>0.97</speed>
  <fix>3d</fix>
</trkpt>
<trkpt lat="33.8097798" lon="-118.394218">
  <ele>-50.021</ele>
  <time>2026-09-01T01:14:06Z</time>
  <course>272.31</course>
  <speed>0.9400531899844816</speed>
  <fix>3d</fix>
</trkpt>
<trkpt lat="33.8097798" lon="-118.3942157">
  <ele>-48.81</ele>
  <time>2026-09-01T01:14:06Z</time>
  <course>270.24</course>
  <speed>0.97</speed>
  <fix>3d</fix>
</trkpt>
<trkpt lat="33.8097798" lon="-118.394219">
  <ele>-50.02</ele>
  <time>2026-09-01T01:14:06Z</time>
  <course>272.26</course>
  <speed>0.9400531899844816</speed>
  <fix>3d</fix>
</trkpt>
<trkpt lat="33.8097798" lon="-118.3942178">
  <ele>-48.81</ele>
  <time>2026-09-01T01:14:06Z</time>
  <course>270.2</course>
  <speed>0.97</speed>
  <fix>3d</fix>
</trkpt>
<trkpt lat="33.8097798" lon="-118.3942201">
  <ele>-50.019</ele>
  <time>2026-09-01T01:14:06Z</time>
  <course>272.18</course>
  <speed>0.9400531899844816</speed>
  <fix>3d</fix>
</trkpt>
<trkpt lat="33.8097798" lon="-118.3942178">
  <ele>-48.81</ele>
  <time>2026-09-01T01:14:06Z</time>
  <course>270.2</course>
  <speed>0.97</speed>
  <fix>3d</fix>
</trkpt>
<trkpt lat="33.8097798" lon="-118.3942211">
  <ele>-50.019</ele>
  <time>2026-09-01T01:14:06Z</time>
  <course>272.1</course>
  <speed>0.9500526301210896</speed>
  <fix>3d</fix>
</trkpt>
<trkpt lat="33.8097798" lon="-118.3942199">
  <ele>-48.81</ele>
  <time>2026-09-01T01:14:06Z</time>
  <course>270.1</course>
  <speed>0.97</speed>
  <fix>3d</fix>
</trkpt>
<trkpt lat="33.8097798" lon="-118.3942221">
  <ele>-50.019</ele>
  <time>2026-09-01T01:14:06Z</time>
  <course>272.03</course>
  <speed>0.9500526301210896</speed>
  <fix>3d</fix>
</trkpt>
<trkpt lat="33.8097798" lon="-118.3942199">
  <ele>-48.81</ele>
  <time>2026-09-01T01:14:06Z</time>
  <course>270.1</course>
  <speed>0.97</speed>
  <fix>3d</fix>
</trkpt>
<trkpt lat="33.8097798" lon="-118.3942232">
  <ele>-50.02</ele>
  <time>2026-09-01T01:14:06Z</time>
  <course>271.96</course>
  <speed>0.9500526301210896</speed>
  <fix>3d</fix>
</trkpt>
<trkpt lat="33.8097798" lon="-118.394222">
  <ele>-48.81</ele>
  <time>2026-09-01T01:14:06Z</time>
  <course>270.01</course>
  <speed>0.97</speed>
  <fix>3d</fix>
</trkpt>
<trkpt lat="33.8097799" lon="-118.3942242">
  <ele>-50.021</ele>
  <time>2026-09-01T01:14:06Z</time>
  <course>271.9</course>
  <speed>0.9500526301210896</speed>
  <fix>3d</fix>
</trkpt>
<trkpt lat="33.8097798" lon="-118.394222">
  <ele>-48.81</ele>
  <time>2026-09-01T01:14:06Z</time>
  <course>270.01</course>
  <speed>0.97</speed>
  <fix>3d</fix>
</trkpt>
<trkpt lat="33.8097799" lon="-118.3942253">
  <ele>-50.021</ele>
  <time>2026-09-01T01:14:06Z</time>
  <course>271.84</course>
  <speed>0.9500526301210896</speed>
  <fix>3d</fix>
</trkpt>
<trkpt lat="33.8097798" lon="-118.3942242">
  <ele>-48.8</ele>
  <time>2026-09-01T01:14:06Z</time>
  <course>269.94</course>
  <speed>0.98</speed>
  <fix>3d</fix>
</trkpt>
<trkpt lat="33.8097799" lon="-118.3942264">
  <ele>-50.02</ele>
  <time>2026-09-01T01:14:06Z</time>
  <course>271.79</course>
  <speed>0.9500526301210896</speed>
  <fix>3d</fix>
</trkpt>
<trkpt lat="33.8097798" lon="-118.3942242">
  <ele>-48.8</ele>
  <time>2026-09-01T01:14:06Z</time>
  <course>269.94</course>
  <speed>0.98</speed>
  <fix>3d</fix>
</trkpt>
<trkpt lat="33.8097799" lon="-118.3942274">
  <ele>-50.019</ele>
  <time>2026-09-01T01:14:06Z</time>
  <course>271.75</course>
  <speed>0.9500526301210896</speed>
  <fix>3d</fix>
</trkpt>
<trkpt lat="33.8097798" lon="-118.3942263">
  <ele>-48.8</ele>
  <time>2026-09-01T01:14:06Z</time>
  <course>269.91</course>
  <speed>0.98</speed>
  <fix>3d</fix>
</trkpt>
<trkpt lat="33.8097799" lon="-118.3942285">
  <ele>-50.017</ele>
  <time>2026-09-01T01:14:06Z</time>
  <course>271.71</course>
  <speed>0.9500526301210896</speed>
  <fix>3d</fix>
</trkpt>
<trkpt lat="33.8097798" lon="-118.3942263">
  <ele>-48.8</ele>
  <time>2026-09-01T01:14:06Z</time>
  <course>269.91</course>
  <speed>0.98</speed>
  <fix>3d</fix>
</trkpt>
<trkpt lat="33.8097799" lon="-118.3942295">
  <ele>-50.015</ele>
  <time>2026-09-01T01:14:06Z</time>
  <course>271.68</course>
  <speed>0.9500526301210896</speed>
  <fix>3d</fix>
</trkpt>
<trkpt lat="33.8097798" lon="-118.3942284">
  <ele>-48.8</ele>
  <time>2026-09-01T01:14:06Z</time>
  <course>269.88</course>
  <speed>0.98</speed>
  <fix>3d</fix>
</trkpt>
<trkpt lat="33.8097799" lon="-118.3942306">
  <ele>-50.015</ele>
  <time>2026-09-01T01:14:06Z</time>
  <course>271.65</course>
  <speed>0.9500526301210896</speed>
  <fix>3d</fix>
</trkpt>
<trkpt lat="33.8097798" lon="-118.3942284">
  <ele>-48.8</ele>
  <time>2026-09-01T01:14:06Z</time>
  <course>269.88</course>
  <speed>0.98</speed>
  <fix>3d</fix>
</trkpt>
<trkpt lat="33.8097799" lon="-118.3942316">
  <ele>-50.016</ele>
  <time>2026-09-01T01:14:06Z</time>
  <course>271.63</course>
  <speed>0.9500526301210896</speed>
  <fix>3d</fix>
</trkpt>
<trkpt lat="33.8097798" lon="-118.3942305">
  <ele>-48.8</ele>
  <time>2026-09-01T01:14:06Z</time>
  <course>269.85</course>
  <speed>0.98</speed>
  <fix>3d</fix>
</trkpt>
<trkpt lat="33.8097799" lon="-118.3942327">
  <ele>-50.017</ele>
  <time>2026-09-01T01:14:06Z</time>
  <course>271.61</course>
  <speed>0.9500526301210896</speed>
  <fix>3d</fix>
</trkpt>
<trkpt lat="33.8097798" lon="-118.3942305">
  <ele>-48.8</ele>
  <time>2026-09-01T01:14:06Z</time>
  <course>269.85</course>
  <speed>0.98</speed>
  <fix>3d</fix>
</trkpt>
<trkpt lat="33.8097799" lon="-118.3942337">
  <ele>-50.019</ele>
  <time>2026-09-01T01:14:06Z</time>
  <course>271.59</course>
  <speed>0.9500526301210896</speed>
  <fix>3d</fix>
</trkpt>
<trkpt lat="33.8097798" lon="-118.3942327">
  <ele>-48.8</ele>
  <time>2026-09-01T01:14:06Z</time>
  <course>269.83</course>
  <speed>0.98</speed>
  <fix>3d</fix>
</trkpt>
<trkpt lat="33.8097799" lon="-118.3942348">
  <ele>-50.02</ele>
  <time>2026-09-01T01:14:06Z</time>
  <course>271.57</course>
  <speed>0.9500526301210896</speed>
  <fix>3d</fix>
</trkpt>
<trkpt lat="33.8097798" lon="-118.3942327">
  <ele>-48.8</ele>
  <time>2026-09-01T01:14:06Z</time>
  <course>269.83</course>
  <speed>0.98</speed>
  <fix>3d</fix>
</trkpt>
<trkpt lat="33.8097799" lon="-118.3942359">
  <ele>-50.02</ele>
  <time>2026-09-01T01:14:06Z</time>
  <course>271.56</course>
  <speed>0.9500526301210896</speed>
  <fix>3d</fix>
</trkpt>
<trkpt lat="33.8097798" lon="-118.3942348">
  <ele>-48.81</ele>
  <time>2026-09-01T01:14:06Z</time>
  <course>269.81</course>
  <speed>0.98</speed>
  <fix>3d</fix>
</trkpt>
<trkpt lat="33.8097799" lon="-118.3942369">
  <ele>-50.02</ele>
  <time>2026-09-01T01:14:06Z</time>
  <course>271.54</course>
  <speed>0.9500526301210896</speed>
  <fix>3d</fix>
</trkpt>
<trkpt lat="33.8097798" lon="-118.3942348">
  <ele>-48.81</ele>
  <time>2026-09-01T01:14:06Z</time>
  <course>269.81</course>
  <speed>0.98</speed>
  <fix>3d</fix>
</trkpt>
<trkpt lat="33.8097799" lon="-118.394238">
  <ele>-50.021</ele>
  <time>2026-09-01T01:14:06Z</time>
  <course>271.53</course>
  <speed>0.9500526301210896</speed>
  <fix>3d</fix>
</trkpt>
<trkpt lat="33.8097798" lon="-118.3942369">
  <ele>-48.81</ele>
  <time>2026-09-01T01:14:06Z</time>
  <course>269.78</course>
  <speed>0.98</speed>
  <fix>3d</fix>
</trkpt>
<trkpt lat="33.8097799" lon="-118.3942391">
  <ele>-50.022</ele>
  <time>2026-09-01T01:14:06Z</time>
  <course>271.53</course>
  <speed>0.9500526301210896</speed>
  <fix>3d</fix>
</trkpt>
<trkpt lat="33.8097798" lon="-118.3942369">
  <ele>-48.81</ele>
  <time>2026-09-01T01:14:06Z</time>
  <course>269.78</course>
  <speed>0.98</speed>
  <fix>3d</fix>
</trkpt>
<trkpt lat="33.8097799" lon="-118.3942401">
  <ele>-50.023</ele>
  <time>2026-09-01T01:14:06Z</time>
  <course>271.52</course>
  <speed>0.9500526301210896</speed>
  <fix>3d</fix>
</trkpt>
<trkpt lat="33.8097798" lon="-118.394239">
  <ele>-48.81</ele>
  <time>2026-09-01T01:14:06Z</time>
  <course>269.77</course>
  <speed>0.98</speed>
  <fix>3d</fix>
</trkpt>
<trkpt lat="33.8097799" lon="-118.3942412">
  <ele>-50.021</ele>
  <time>2026-09-01T01:14:06Z</time>
  <course>271.51</course>
  <speed>0.9500526301210896</speed>
  <fix>3d</fix>
</trkpt>
<trkpt lat="33.8097798" lon="-118.394239">
  <ele>-48.81</ele>
  <time>2026-09-01T01:14:06Z</time>
  <course>269.77</course>
  <speed>0.98</speed>
  <fix>3d</fix>
</trkpt>
<trkpt lat="33.8097799" lon="-118.3942422">
  <ele>-50.02</ele>
  <time>2026-09-01T01:14:06Z</time>
  <course>271.5</course>
  <speed>0.9500526301210896</speed>
  <fix>3d</fix>
</trkpt>
<trkpt lat="33.8097798" lon="-118.3942411">
  <ele>-48.81</ele>
  <time>2026-09-01T01:14:06Z</time>
  <course>269.76</course>
  <speed>0.98</speed>
  <fix>3d</fix>
</trkpt>
<trkpt lat="33.8097799" lon="-118.3942433">
  <ele>-50.018</ele>
  <time>2026-09-01T01:14:06Z</time>
  <course>271.5</course>
  <speed>0.9500526301210896</speed>
  <fix>3d</fix>
</trkpt>
<trkpt lat="33.8097798" lon="-118.3942411">
  <ele>-48.81</ele>
  <time>2026-09-01T01:14:06Z</time>
  <course>269.76</course>
  <speed>0.98</speed>
  <fix>3d</fix>
</trkpt>
<trkpt lat="33.8097799" lon="-118.3942444">
  <ele>-50.018</ele>
  <time>2026-09-01T01:14:06Z</time>
  <course>271.49</course>
  <speed>0.9500526301210896</speed>
  <fix>3d</fix>
</trkpt>
<trkpt lat="33.8097798" lon="-118.3942433">
  <ele>-48.81</ele>
  <time>2026-09-01T01:14:06Z</time>
  <course>269.74</course>
  <speed>0.98</speed>
  <fix>3d</fix>
</trkpt>
<trkpt lat="33.8097799" lon="-118.3942454">
  <ele>-50.018</ele>
  <time>2026-09-01T01:14:06Z</time>
  <course>271.48</course>
  <speed>0.9500526301210896</speed>
  <fix>3d</fix>
</trkpt>
<trkpt lat="33.8097798" lon="-118.3942433">
  <ele>-48.81</ele>
  <time>2026-09-01T01:14:06Z</time>
  <course>269.74</course>
  <speed>0.98</speed>
  <fix>3d</fix>
</trkpt>
<trkpt lat="33.8097799" lon="-118.3942465">
  <ele>-50.019</ele>
  <time>2026-09-01T01:14:06Z</time>
  <course>271.48</course>
  <speed>0.9500526301210896</speed>
  <fix>3d</fix>
</trkpt>
<trkpt lat="33.8097798" lon="-118.3942454">
  <ele>-48.81</ele>
  <time>2026-09-01T01:14:06Z</time>
  <course>269.74</course>
  <speed>0.98</speed>
  <fix>3d</fix>
</trkpt>
<trkpt lat="33.8097799" lon="-118.3942475">
  <ele>-50.02</ele>
  <time>2026-09-01T01:14:06Z</time>
  <course>271.47</course>
  <speed>0.9500526301210896</speed>
  <fix>3d</fix>
</trkpt>
<trkpt lat="33.8097798" lon="-118.3942454">
  <ele>-48.81</ele>
  <time>2026-09-01T01:14:06Z</time>
  <course>269.74</course>
  <speed>0.98</speed>
  <fix>3d</fix>
</trkpt>
<trkpt lat="33.8097799" lon="-118.3942486">
  <ele>-50.021</ele>
  <time>2026-09-01T01:14:06Z</time>
  <course>271.46</course>
  <speed>0.9500526301210896</speed>
  <fix>3d</fix>
</trkpt>
<trkpt lat="33.8097798" lon="-118.3942475">
  <ele>-48.81</ele>
  <time>2026-09-01T01:14:06Z</time>
  <course>269.73</course>
  <speed>0.98</speed>
  <fix>3d</fix>
</trkpt>
<trkpt lat="33.8097799" lon="-118.3942497">
  <ele>-50.021</ele>
  <time>2026-09-01T01:14:06Z</time>
  <course>271.46</course>
  <speed>0.9500526301210896</speed>
  <fix>3d</fix>
</trkpt>
<trkpt lat="33.8097798" lon="-118.3942475">
  <ele>-48.81</ele>
  <time>2026-09-01T01:14:06Z</time>
  <course>269.73</course>
  <speed>0.98</speed>
  <fix>3d</fix>
</trkpt>
<trkpt lat="33.8097799" lon="-118.3942507">
  <ele>-50.021</ele>
  <time>2026-09-01T01:14:06Z</time>
  <course>271.45</course>
  <speed>0.9500526301210896</speed>
  <fix>3d</fix>
</trkpt>
<trkpt lat="33.8097798" lon="-118.3942496">
  <ele>-48.81</ele>
  <time>2026-09-01T01:14:06Z</time>
  <course>269.73</course>
  <speed>0.98</speed>
  <fix>3d</fix>
</trkpt>
<trkpt lat="33.8097799" lon="-118.3942518">
  <ele>-50.02</ele>
  <time>2026-09-01T01:14:06Z</time>
  <course>271.44</course>
  <speed>0.9500526301210896</speed>
  <fix>3d</fix>
</trkpt>
<trkpt lat="33.8097798" lon="-118.3942496">
  <ele>-48.81</ele>
  <time>2026-09-01T01:14:06Z</time>
  <course>269.73</course>
  <speed>0.98</speed>
  <fix>3d</fix>
</trkpt>
<trkpt lat="33.8097799" lon="-118.3942529">
  <ele>-50.021</ele>
  <time>2026-09-01T01:14:06Z</time>
  <course>271.44</course>
  <speed>0.9500526301210896</speed>
  <fix>3d</fix>
</trkpt>
<trkpt lat="33.8097798" lon="-118.3942517">
  <ele>-48.81</ele>
  <time>2026-09-01T01:14:06Z</time>
  <course>269.72</course>
  <speed>0.98</speed>
  <fix>3d</fix>
</trkpt>
<trkpt lat="33.8097799" lon="-118.3942539">
  <ele>-50.021</ele>
  <time>2026-09-01T01:14:06Z</time>
  <course>271.43</course>
  <speed>0.9500526301210896</speed>
  <fix>3d</fix>
</trkpt>
<trkpt lat="33.8097798" lon="-118.3942517">
  <ele>-48.81</ele>
  <time>2026-09-01T01:14:06Z</time>
  <course>269.72</course>
  <speed>0.98</speed>
  <fix>3d</fix>
</trkpt>
<trkpt lat="33.8097799" lon="-118.394255">
  <ele>-50.02</ele>
  <time>2026-09-01T01:14:06Z</time>
  <course>271.43</course>
  <speed>0.9500526301210896</speed>
  <fix>3d</fix>
</trkpt>
<trkpt lat="33.8097798" lon="-118.3942539">
  <ele>-48.81</ele>
  <time>2026-09-01T01:14:06Z</time>
  <course>269.7</course>
  <speed>0.98</speed>
  <fix>3d</fix>
</trkpt>
<trkpt lat="33.8097799" lon="-118.394256">
  <ele>-50.018</ele>
  <time>2026-09-01T01:14:06Z</time>
  <course>271.42</course>
  <speed>0.9500526301210896</speed>
  <fix>3d</fix>
</trkpt>
<trkpt lat="33.8097798" lon="-118.3942539">
  <ele>-48.81</ele>
  <time>2026-09-01T01:14:06Z</time>
  <course>269.7</course>
  <speed>0.98</speed>
  <fix>3d</fix>
</trkpt>
<trkpt lat="33.8097799" lon="-118.3942571">
  <ele>-50.016</ele>
  <time>2026-09-01T01:14:06Z</time>
  <course>271.42</course>
  <speed>0.9500526301210896</speed>
  <fix>3d</fix>
</trkpt>
<trkpt lat="33.8097798" lon="-118.394256">
  <ele>-48.81</ele>
  <time>2026-09-01T01:14:06Z</time>
  <course>269.66</course>
  <speed>0.98</speed>
  <fix>3d</fix>
</trkpt>
<trkpt lat="33.8097799" lon="-118.3942582">
  <ele>-50.015</ele>
  <time>2026-09-01T01:14:06Z</time>
  <course>271.42</course>
  <speed>0.9500526301210896</speed>
  <fix>3d</fix>
</trkpt>
<trkpt lat="33.8097798" lon="-118.394256">
  <ele>-48.81</ele>
  <time>2026-09-01T01:14:06Z</time>
  <course>269.66</course>
  <speed>0.98</speed>
  <fix>3d</fix>
</trkpt>
<trkpt lat="33.8097799" lon="-118.3942593">
  <ele>-50.015</ele>
  <time>2026-09-01T01:14:06Z</time>
  <course>271.42</course>
  <speed>0.9500526301210896</speed>
  <fix>3d</fix>
</trkpt>
<trkpt lat="33.8097798" lon="-118.3942581">
  <ele>-48.81</ele>
  <time>2026-09-01T01:14:06Z</time>
  <course>269.65</course>
  <speed>0.98</speed>
  <fix>3d</fix>
</trkpt>
<trkpt lat="33.8097799" lon="-118.3942603">
  <ele>-50.016</ele>
  <time>2026-09-01T01:14:06Z</time>
  <course>271.41</course>
  <speed>0.9600520819205591</speed>
  <fix>3d</fix>
</trkpt>
<trkpt lat="33.8097798" lon="-118.3942581">
  <ele>-48.81</ele>
  <time>2026-09-01T01:14:06Z</time>
  <course>269.65</course>
  <speed>0.98</speed>
  <fix>3d</fix>
</trkpt>
<trkpt lat="33.8097799" lon="-118.3942614">
  <ele>-50.018</ele>
  <time>2026-09-01T01:14:06Z</time>
  <course>271.42</course>
  <speed>0.9600520819205591</speed>
  <fix>3d</fix>
</trkpt>
<trkpt lat="33.8097797" lon="-118.3942602">
  <ele>-48.81</ele>
  <time>2026-09-01T01:14:06Z</time>
  <course>269.65</course>
  <speed>0.98</speed>
  <fix>3d</fix>
</trkpt>
<trkpt lat="33.8097799" lon="-118.3942625">
  <ele>-50.02</ele>
  <time>2026-09-01T01:14:06Z</time>
  <course>271.41</course>
  <speed>0.9600520819205591</speed>
  <fix>3d</fix>
</trkpt>
<trkpt lat="33.8097797" lon="-118.3942602">
  <ele>-48.81</ele>
  <time>2026-09-01T01:14:06Z</time>
  <course>269.65</course>
  <speed>0.98</speed>
  <fix>3d</fix>
</trkpt>
<trkpt lat="33.8097799" lon="-118.3942635">
  <ele>-50.021</ele>
  <time>2026-09-01T01:14:06Z</time>
  <course>271.44</course>
  <speed>0.9600520819205591</speed>
  <fix>3d</fix>
</trkpt>
<trkpt lat="33.8097797" lon="-118.3942624">
  <ele>-48.81</ele>
  <time>2026-09-01T01:14:06Z</time>
  <course>269.7</course>
  <speed>0.98</speed>
  <fix>3d</fix>
</trkpt>
<trkpt lat="33.8097799" lon="-118.3942646">
  <ele>-50.023</ele>
  <time>2026-09-01T01:14:06Z</time>
  <course>271.49</course>
  <speed>0.9600520819205591</speed>
  <fix>3d</fix>
</trkpt>
<trkpt lat="33.8097797" lon="-118.3942624">
  <ele>-48.81</ele>
  <time>2026-09-01T01:14:06Z</time>
  <course>269.7</course>
  <speed>0.98</speed>
  <fix>3d</fix>
</trkpt>
<trkpt lat="33.8097799" lon="-118.3942657">
  <ele>-50.025</ele>
  <time>2026-09-01T01:14:06Z</time>
  <course>271.54</course>
  <speed>0.9600520819205591</speed>
  <fix>3d</fix>
</trkpt>
<trkpt lat="33.8097797" lon="-118.3942645">
  <ele>-48.81</ele>
  <time>2026-09-01T01:14:06Z</time>
  <course>269.79</course>
  <speed>0.98</speed>
  <fix>3d</fix>
</trkpt>
<trkpt lat="33.8097799" lon="-118.3942667">
  <ele>-50.025</ele>
  <time>2026-09-01T01:14:06Z</time>
  <course>271.59</course>
  <speed>0.9602083107326242</speed>
  <fix>3d</fix>
</trkpt>
<trkpt lat="33.8097797" lon="-118.3942645">
  <ele>-48.81</ele>
  <time>2026-09-01T01:14:06Z</time>
  <course>269.79</course>
  <speed>0.98</speed>
  <fix>3d</fix>
</trkpt>
<trkpt lat="33.8097798" lon="-118.3942678">
  <ele>-50.026</ele>
  <time>2026-09-01T01:14:06Z</time>
  <course>271.64</course>
  <speed>0.9602083107326242</speed>
  <fix>3d</fix>
</trkpt>
<trkpt lat="33.8097797" lon="-118.3942667">
  <ele>-48.81</ele>
  <time>2026-09-01T01:14:06Z</time>
  <course>269.88</course>
  <speed>0.98</speed>
  <fix>3d</fix>
</trkpt>
<trkpt lat="33.8097798" lon="-118.3942689">
  <ele>-50.026</ele>
  <time>2026-09-01T01:14:06Z</time>
  <course>271.68</course>
  <speed>0.9602083107326242</speed>
  <fix>3d</fix>
</trkpt>
<trkpt lat="33.8097797" lon="-118.3942667">
  <ele>-48.81</ele>
  <time>2026-09-01T01:14:06Z</time>
  <course>269.88</course>
  <speed>0.98</speed>
  <fix>3d</fix>
</trkpt>
<trkpt lat="33.8097798" lon="-118.3942699">
  <ele>-50.025</ele>
  <time>2026-09-01T01:14:06Z</time>
  <course>271.72</course>
  <speed>0.9602083107326242</speed>
  <fix>3d</fix>
</trkpt>
<trkpt lat="33.8097797" lon="-118.3942688">
  <ele>-48.81</ele>
  <time>2026-09-01T01:14:06Z</time>
  <course>269.94</course>
  <speed>0.99</speed>
  <fix>3d</fix>
</trkpt>
<trkpt lat="33.8097798" lon="-118.394271">
  <ele>-50.023</ele>
  <time>2026-09-01T01:14:06Z</time>
  <course>271.75</course>
  <speed>0.9602083107326242</speed>
  <fix>3d</fix>
</trkpt>
<trkpt lat="33.8097797" lon="-118.3942688">
  <ele>-48.81</ele>
  <time>2026-09-01T01:14:06Z</time>
  <course>269.94</course>
  <speed>0.99</speed>
  <fix>3d</fix>
</trkpt>
<trkpt lat="33.8097798" lon="-118.3942721">
  <ele>-50.022</ele>
  <time>2026-09-01T01:14:06Z</time>
  <course>271.77</course>
  <speed>0.9602083107326242</speed>
  <fix>3d</fix>
</trkpt>
<trkpt lat="33.8097797" lon="-118.394271">
  <ele>-48.81</ele>
  <time>2026-09-01T01:14:06Z</time>
  <course>270.0</course>
  <speed>0.99</speed>
  <fix>3d</fix>
</trkpt>
<trkpt lat="33.8097798" lon="-118.3942732">
  <ele>-50.021</ele>
  <time>2026-09-01T01:14:06Z</time>
  <course>271.79</course>
  <speed>0.9602083107326242</speed>
  <fix>3d</fix>
</trkpt>
<trkpt lat="33.8097797" lon="-118.394271">
  <ele>-48.81</ele>
  <time>2026-09-01T01:14:06Z</time>
  <course>270.0</course>
  <speed>0.99</speed>
  <fix>3d</fix>
</trkpt>
<trkpt lat="33.8097798" lon="-118.3942742">
  <ele>-50.018</ele>
  <time>2026-09-01T01:14:06Z</time>
  <course>271.81</course>
  <speed>0.9602083107326242</speed>
  <fix>3d</fix>
</trkpt>
<trkpt lat="33.8097797" lon="-118.3942731">
  <ele>-48.8</ele>
  <time>2026-09-01T01:14:06Z</time>
  <course>270.04</course>
  <speed>0.99</speed>
  <fix>3d</fix>
</trkpt>
<trkpt lat="33.8097798" lon="-118.3942753">
  <ele>-50.016</ele>
  <time>2026-09-01T01:14:06Z</time>
  <course>271.82</course>
  <speed>0.9602083107326242</speed>
  <fix>3d</fix>
</trkpt>
<trkpt lat="33.8097797" lon="-118.3942731">
  <ele>-48.8</ele>
  <time>2026-09-01T01:14:06Z</time>
  <course>270.04</course>
  <speed>0.99</speed>
  <fix>3d</fix>
</trkpt>
<trkpt lat="33.8097798" lon="-118.3942764">
  <ele>-50.014</ele>
  <time>2026-09-01T01:14:06Z</time>
  <course>271.83</course>
  <speed>0.9602083107326242</speed>
  <fix>3d</fix>
</trkpt>
<trkpt lat="33.8097797" lon="-118.3942753">
  <ele>-48.8</ele>
  <time>2026-09-01T01:14:06Z</time>
  <course>270.06</course>
  <speed>0.99</speed>
  <fix>3d</fix>
</trkpt>
<trkpt lat="33.8097798" lon="-118.3942775">
  <ele>-50.013</ele>
  <time>2026-09-01T01:14:06Z</time>
  <course>271.83</course>
  <speed>0.9602083107326242</speed>
  <fix>3d</fix>
</trkpt>
<trkpt lat="33.8097797" lon="-118.3942753">
  <ele>-48.8</ele>
  <time>2026-09-01T01:14:06Z</time>
  <course>270.06</course>
  <speed>0.99</speed>
  <fix>3d</fix>
</trkpt>
<trkpt lat="33.8097798" lon="-118.3942785">
  <ele>-50.011</ele>
  <time>2026-09-01T01:14:06Z</time>
  <course>271.84</course>
  <speed>0.9602083107326242</speed>
  <fix>3d</fix>
</trkpt>
<trkpt lat="33.8097797" lon="-118.3942774">
  <ele>-48.8</ele>
  <time>2026-09-01T01:14:06Z</time>
  <course>270.09</course>
  <speed>0.99</speed>
  <fix>3d</fix>
</trkpt>
<trkpt lat="33.8097798" lon="-118.3942796">
  <ele>-50.011</ele>
  <time>2026-09-01T01:14:06Z</time>
  <course>271.84</course>
  <speed>0.9602083107326242</speed>
  <fix>3d</fix>
</trkpt>
<trkpt lat="33.8097797" lon="-118.3942774">
  <ele>-48.8</ele>
  <time>2026-09-01T01:14:06Z</time>
  <course>270.09</course>
  <speed>0.99</speed>
  <fix>3d</fix>
</trkpt>
<trkpt lat="33.8097798" lon="-118.3942807">
  <ele>-50.012</ele>
  <time>2026-09-01T01:14:06Z</time>
  <course>271.84</course>
  <speed>0.9602083107326242</speed>
  <fix>3d</fix>
</trkpt>
<trkpt lat="33.8097797" lon="-118.3942795">
  <ele>-48.8</ele>
  <time>2026-09-01T01:14:06Z</time>
  <course>270.11</course>
  <speed>0.99</speed>
  <fix>3d</fix>
</trkpt>
<trkpt lat="33.8097798" lon="-118.3942818">
  <ele>-50.016</ele>
  <time>2026-09-01T01:14:06Z</time>
  <course>271.85</course>
  <speed>0.9602083107326242</speed>
  <fix>3d</fix>
</trkpt>
<trkpt lat="33.8097797" lon="-118.3942795">
  <ele>-48.8</ele>
  <time>2026-09-01T01:14:06Z</time>
  <course>270.11</course>
  <speed>0.99</speed>
  <fix>3d</fix>
</trkpt>
<trkpt lat="33.8097798" lon="-118.3942828">
  <ele>-50.019</ele>
  <time>2026-09-01T01:14:06Z</time>
  <course>271.85</course>
  <speed>0.9602083107326242</speed>
  <fix>3d</fix>
</trkpt>
<trkpt lat="33.8097797" lon="-118.3942817">
  <ele>-48.81</ele>
  <time>2026-09-01T01:14:06Z</time>
  <course>270.14</course>
  <speed>0.99</speed>
  <fix>3d</fix>
</trkpt>
<trkpt lat="33.8097798" lon="-118.3942839">
  <ele>-50.021</ele>
  <time>2026-09-01T01:14:06Z</time>
  <course>271.83</course>
  <speed>0.9602083107326242</speed>
  <fix>3d</fix>
</trkpt>
<trkpt lat="33.8097797" lon="-118.3942817">
  <ele>-48.81</ele>
  <time>2026-09-01T01:14:06Z</time>
  <course>270.14</course>
  <speed>0.99</speed>
  <fix>3d</fix>
</trkpt>
<trkpt lat="33.8097798" lon="-118.394285">
  <ele>-50.022</ele>
  <time>2026-09-01T01:14:06Z</time>
  <course>271.83</course>
  <speed>0.9602083107326242</speed>
  <fix>3d</fix>
</trkpt>
<trkpt lat="33.8097797" lon="-118.3942838">
  <ele>-48.81</ele>
  <time>2026-09-01T01:14:06Z</time>
  <course>270.18</course>
  <speed>0.99</speed>
  <fix>3d</fix>
</trkpt>
<trkpt lat="33.8097798" lon="-118.3942861">
  <ele>-50.022</ele>
  <time>2026-09-01T01:14:06Z</time>
  <course>271.81</course>
  <speed>0.9602083107326242</speed>
  <fix>3d</fix>
</trkpt>
<trkpt lat="33.8097797" lon="-118.3942838">
  <ele>-48.81</ele>
  <time>2026-09-01T01:14:06Z</time>
  <course>270.18</course>
  <speed>0.99</speed>
  <fix>3d</fix>
</trkpt>
<trkpt lat="33.8097798" lon="-118.3942871">
  <ele>-50.023</ele>
  <time>2026-09-01T01:14:06Z</time>
  <course>271.8</course>
  <speed>0.9602083107326242</speed>
  <fix>3d</fix>
</trkpt>
<trkpt lat="33.8097797" lon="-118.394286">
  <ele>-48.82</ele>
  <time>2026-09-01T01:14:06Z</time>
  <course>270.19</course>
  <speed>0.99</speed>
  <fix>3d</fix>
</trkpt>
<trkpt lat="33.8097798" lon="-118.3942882">
  <ele>-50.023</ele>
  <time>2026-09-01T01:14:06Z</time>
  <course>271.79</course>
  <speed>0.9602083107326242</speed>
  <fix>3d</fix>
</trkpt>
<trkpt lat="33.8097797" lon="-118.394286">
  <ele>-48.82</ele>
  <time>2026-09-01T01:14:06Z</time>
  <course>270.19</course>
  <speed>0.99</speed>
  <fix>3d</fix>
</trkpt>
<trkpt lat="33.8097798" lon="-118.3942893">
  <ele>-50.023</ele>
  <time>2026-09-01T01:14:06Z</time>
  <course>271.78</course>
  <speed>0.9602083107326242</speed>
  <fix>3d</fix>
</trkpt>
<trkpt lat="33.8097797" lon="-118.3942881">
  <ele>-48.82</ele>
  <time>2026-09-01T01:14:06Z</time>
  <course>270.2</course>
  <speed>0.99</speed>
  <fix>3d</fix>
</trkpt>
<trkpt lat="33.8097798" lon="-118.3942904">
  <ele>-50.023</ele>
  <time>2026-09-01T01:14:06Z</time>
  <course>271.77</course>
  <speed>0.9702061636580135</speed>
  <fix>3d</fix>
</trkpt>
<trkpt lat="33.8097797" lon="-118.3942881">
  <ele>-48.82</ele>
  <time>2026-09-01T01:14:06Z</time>
  <course>270.2</course>
  <speed>0.99</speed>
  <fix>3d</fix>
</trkpt>
<trkpt lat="33.8097798" lon="-118.3942914">
  <ele>-50.023</ele>
  <time>2026-09-01T01:14:06Z</time>
  <course>271.77</course>
  <speed>0.9702061636580135</speed>
  <fix>3d</fix>
</trkpt>
<trkpt lat="33.8097797" lon="-118.3942903">
  <ele>-48.82</ele>
  <time>2026-09-01T01:14:06Z</time>
  <course>270.21</course>
  <speed>0.99</speed>
  <fix>3d</fix>
</trkpt>
<trkpt lat="33.8097798" lon="-118.3942925">
  <ele>-50.021</ele>
  <time>2026-09-01T01:14:06Z</time>
  <course>271.76</course>
  <speed>0.9702061636580135</speed>
  <fix>3d</fix>
</trkpt>
<trkpt lat="33.8097797" lon="-118.3942903">
  <ele>-48.82</ele>
  <time>2026-09-01T01:14:06Z</time>
  <course>270.21</course>
  <speed>0.99</speed>
  <fix>3d</fix>
</trkpt>
<trkpt lat="33.8097798" lon="-118.3942936">
  <ele>-50.019</ele>
  <time>2026-09-01T01:14:06Z</time>
  <course>271.76</course>
  <speed>0.9702061636580135</speed>
  <fix>3d</fix>
</trkpt>
<trkpt lat="33.8097797" lon="-118.3942924">
  <ele>-48.82</ele>
  <time>2026-09-01T01:14:06Z</time>
  <course>270.23</course>
  <speed>0.99</speed>
  <fix>3d</fix>
</trkpt>
<trkpt lat="33.8097798" lon="-118.3942947">
  <ele>-50.017</ele>
  <time>2026-09-01T01:14:06Z</time>
  <course>271.75</course>
  <speed>0.9702061636580135</speed>
  <fix>3d</fix>
</trkpt>
<trkpt lat="33.8097797" lon="-118.3942924">
  <ele>-48.82</ele>
  <time>2026-09-01T01:14:06Z</time>
  <course>270.23</course>
  <speed>0.99</speed>
  <fix>3d</fix>
</trkpt>
<trkpt lat="33.8097798" lon="-118.3942957">
  <ele>-50.015</ele>
  <time>2026-09-01T01:14:06Z</time>
  <course>271.74</course>
  <speed>0.9702061636580135</speed>
  <fix>3d</fix>
</trkpt>
<trkpt lat="33.8097797" lon="-118.3942946">
  <ele>-48.81</ele>
  <time>2026-09-01T01:14:06Z</time>
  <course>270.26</course>
  <speed>0.99</speed>
  <fix>3d</fix>
</trkpt>
<trkpt lat="33.8097798" lon="-118.3942968">
  <ele>-50.014</ele>
  <time>2026-09-01T01:14:06Z</time>
  <course>271.73</course>
  <speed>0.9702061636580135</speed>
  <fix>3d</fix>
</trkpt>
<trkpt lat="33.8097797" lon="-118.3942946">
  <ele>-48.81</ele>
  <time>2026-09-01T01:14:06Z</time>
  <course>270.26</course>
  <speed>0.99</speed>
  <fix>3d</fix>
</trkpt>
<trkpt lat="33.8097798" lon="-118.3942979">
  <ele>-50.013</ele>
  <time>2026-09-01T01:14:06Z</time>
  <course>271.72</course>
  <speed>0.9702061636580135</speed>
  <fix>3d</fix>
</trkpt>
<trkpt lat="33.8097797" lon="-118.3942967">
  <ele>-48.81</ele>
  <time>2026-09-01T01:14:06Z</time>
  <course>270.28</course>
  <speed>0.99</speed>
  <fix>3d</fix>
</trkpt>
<trkpt lat="33.8097798" lon="-118.394299">
  <ele>-50.014</ele>
  <time>2026-09-01T01:14:06Z</time>
  <course>271.71</course>
  <speed>0.9702061636580135</speed>
  <fix>3d</fix>
</trkpt>
<trkpt lat="33.8097797" lon="-118.3942967">
  <ele>-48.81</ele>
  <time>2026-09-01T01:14:06Z</time>
  <course>270.28</course>
  <speed>0.99</speed>
  <fix>3d</fix>
</trkpt>
<trkpt lat="33.8097798" lon="-118.3943001">
  <ele>-50.016</ele>
  <time>2026-09-01T01:14:06Z</time>
  <course>271.7</course>
  <speed>0.9702061636580135</speed>
  <fix>3d</fix>
</trkpt>
<trkpt lat="33.8097797" lon="-118.3942989">
  <ele>-48.81</ele>
  <time>2026-09-01T01:14:06Z</time>
  <course>270.29</course>
  <speed>0.99</speed>
  <fix>3d</fix>
</trkpt>
<trkpt lat="33.8097799" lon="-118.3943011">
  <ele>-50.018</ele>
  <time>2026-09-01T01:14:06Z</time>
  <course>271.69</course>
  <speed>0.9702061636580135</speed>
  <fix>3d</fix>
</trkpt>
<trkpt lat="33.8097797" lon="-118.3942989">
  <ele>-48.81</ele>
  <time>2026-09-01T01:14:06Z</time>
  <course>270.29</course>
  <speed>0.99</speed>
  <fix>3d</fix>
</trkpt>
<trkpt lat="33.8097799" lon="-118.3943022">
  <ele>-50.021</ele>
  <time>2026-09-01T01:14:06Z</time>
  <course>271.68</course>
  <speed>0.9702061636580135</speed>
  <fix>3d</fix>
</trkpt>
<trkpt lat="33.8097797" lon="-118.3943011">
  <ele>-48.82</ele>
  <time>2026-09-01T01:14:06Z</time>
  <course>270.31</course>
  <speed>0.99</speed>
  <fix>3d</fix>
</trkpt>
<trkpt lat="33.8097799" lon="-118.3943033">
  <ele>-50.023</ele>
  <time>2026-09-01T01:14:06Z</time>
  <course>271.67</course>
  <speed>0.9702061636580135</speed>
  <fix>3d</fix>
</trkpt>
<trkpt lat="33.8097797" lon="-118.3943011">
  <ele>-48.82</ele>
  <time>2026-09-01T01:14:06Z</time>
  <course>270.31</course>
  <speed>0.99</speed>
  <fix>3d</fix>
</trkpt>
<trkpt lat="33.8097799" lon="-118.3943044">
  <ele>-50.024</ele>
  <time>2026-09-01T01:14:06Z</time>
  <course>271.66</course>
  <speed>0.9702061636580135</speed>
  <fix>3d</fix>
</trkpt>
<trkpt lat="33.8097797" lon="-118.3943032">
  <ele>-48.82</ele>
  <time>2026-09-01T01:14:06Z</time>
  <course>270.33</course>
  <speed>0.99</speed>
  <fix>3d</fix>
</trkpt>
<trkpt lat="33.8097799" lon="-118.3943055">
  <ele>-50.025</ele>
  <time>2026-09-01T01:14:06Z</time>
  <course>271.65</course>
  <speed>0.9702061636580135</speed>
  <fix>3d</fix>
</trkpt>
<trkpt lat="33.8097797" lon="-118.3943032">
  <ele>-48.82</ele>
  <time>2026-09-01T01:14:06Z</time>
  <course>270.33</course>
  <speed>0.99</speed>
  <fix>3d</fix>
</trkpt>
<trkpt lat="33.8097799" lon="-118.3943065">
  <ele>-50.026</ele>
  <time>2026-09-01T01:14:06Z</time>
  <course>271.64</course>
  <speed>0.9702061636580135</speed>
  <fix>3d</fix>
</trkpt>
<trkpt lat="33.8097797" lon="-118.3943054">
  <ele>-48.83</ele>
  <time>2026-09-01T01:14:06Z</time>
  <course>270.34</course>
  <speed>0.99</speed>
  <fix>3d</fix>
</trkpt>
<trkpt lat="33.8097799" lon="-118.3943076">
  <ele>-50.027</ele>
  <time>2026-09-01T01:14:06Z</time>
  <course>271.64</course>
  <speed>0.9702061636580135</speed>
  <fix>3d</fix>
</trkpt>
<trkpt lat="33.8097797" lon="-118.3943054">
  <ele>-48.83</ele>
  <time>2026-09-01T01:14:06Z</time>
  <course>270.34</course>
  <speed>0.99</speed>
  <fix>3d</fix>
</trkpt>
<trkpt lat="33.8097799" lon="-118.3943087">
  <ele>-50.028</ele>
  <time>2026-09-01T01:14:06Z</time>
  <course>271.63</course>
  <speed>0.9702061636580135</speed>
  <fix>3d</fix>
</trkpt>
<trkpt lat="33.8097797" lon="-118.3943075">
  <ele>-48.83</ele>
  <time>2026-09-01T01:14:06Z</time>
  <course>270.34</course>
  <speed>0.99</speed>
  <fix>3d</fix>
</trkpt>
<trkpt lat="33.8097799" lon="-118.3943098">
  <ele>-50.026</ele>
  <time>2026-09-01T01:14:06Z</time>
  <course>271.62</course>
  <speed>0.9702061636580135</speed>
  <fix>3d</fix>
</trkpt>
<trkpt lat="33.8097797" lon="-118.3943075">
  <ele>-48.83</ele>
  <time>2026-09-01T01:14:06Z</time>
  <course>270.34</course>
  <speed>0.99</speed>
  <fix>3d</fix>
</trkpt>
<trkpt lat="33.8097799" lon="-118.3943109">
  <ele>-50.024</ele>
  <time>2026-09-01T01:14:06Z</time>
  <course>271.61</course>
  <speed>0.9702061636580135</speed>
  <fix>3d</fix>
</trkpt>
<trkpt lat="33.8097797" lon="-118.3943097">
  <ele>-48.82</ele>
  <time>2026-09-01T01:14:06Z</time>
  <course>270.35</course>
  <speed>0.99</speed>
  <fix>3d</fix>
</trkpt>
<trkpt lat="33.8097799" lon="-118.3943119">
  <ele>-50.022</ele>
  <time>2026-09-01T01:14:06Z</time>
  <course>271.6</course>
  <speed>0.9702061636580135</speed>
  <fix>3d</fix>
</trkpt>
<trkpt lat="33.8097797" lon="-118.3943097">
  <ele>-48.82</ele>
  <time>2026-09-01T01:14:06Z</time>
  <course>270.35</course>
  <speed>0.99</speed>
  <fix>3d</fix>
</trkpt>
<trkpt lat="33.8097799" lon="-118.394313">
  <ele>-50.021</ele>
  <time>2026-09-01T01:14:06Z</time>
  <course>271.6</course>
  <speed>0.9702061636580135</speed>
  <fix>3d</fix>
</trkpt>
<trkpt lat="33.8097798" lon="-118.3943118">
  <ele>-48.82</ele>
  <time>2026-09-01T01:14:06Z</time>
  <course>270.38</course>
  <speed>0.99</speed>
  <fix>3d</fix>
</trkpt>
<trkpt lat="33.8097799" lon="-118.3943141">
  <ele>-50.019</ele>
  <time>2026-09-01T01:14:06Z</time>
  <course>271.57</course>
  <speed>0.9702061636580135</speed>
  <fix>3d</fix>
</trkpt>
<trkpt lat="33.8097798" lon="-118.3943118">
  <ele>-48.82</ele>
  <time>2026-09-01T01:14:06Z</time>
  <course>270.38</course>
  <speed>0.99</speed>
  <fix>3d</fix>
</trkpt>
<trkpt lat="33.8097799" lon="-118.3943152">
  <ele>-50.018</ele>
  <time>2026-09-01T01:14:06Z</time>
  <course>271.53</course>
  <speed>0.9702061636580135</speed>
  <fix>3d</fix>
</trkpt>
<trkpt lat="33.8097798" lon="-118.394314">
  <ele>-48.81</ele>
  <time>2026-09-01T01:14:06Z</time>
  <course>270.36</course>
  <speed>0.99</speed>
  <fix>3d</fix>
</trkpt>
<trkpt lat="33.8097799" lon="-118.3943163">
  <ele>-50.017</ele>
  <time>2026-09-01T01:14:06Z</time>
  <course>271.48</course>
  <speed>0.970051545022222</speed>
  <fix>3d</fix>
</trkpt>
<trkpt lat="33.8097798" lon="-118.394314">
  <ele>-48.81</ele>
  <time>2026-09-01T01:14:06Z</time>
  <course>270.36</course>
  <speed>0.99</speed>
  <fix>3d</fix>
</trkpt>
<trkpt lat="33.8097799" lon="-118.3943173">
  <ele>-50.016</ele>
  <time>2026-09-01T01:14:06Z</time>
  <course>271.42</course>
  <speed>0.970051545022222</speed>
  <fix>3d</fix>
</trkpt>
<trkpt lat="33.8097798" lon="-118.3943161">
  <ele>-48.81</ele>
  <time>2026-09-01T01:14:06Z</time>
  <course>270.27</course>
  <speed>0.99</speed>
  <fix>3d</fix>
</trkpt>
<trkpt lat="33.8097799" lon="-118.3943184">
  <ele>-50.016</ele>
  <time>2026-09-01T01:14:06Z</time>
  <course>271.35</course>
  <speed>0.970051545022222</speed>
  <fix>3d</fix>
</trkpt>
<trkpt lat="33.8097798" lon="-118.3943161">
  <ele>-48.81</ele>
  <time>2026-09-01T01:14:06Z</time>
  <course>270.27</course>
  <speed>0.99</speed>
  <fix>3d</fix>
</trkpt>
<trkpt lat="33.8097799" lon="-118.3943195">
  <ele>-50.017</ele>
  <time>2026-09-01T01:14:06Z</time>
  <course>271.29</course>
  <speed>0.970051545022222</speed>
  <fix>3d</fix>
</trkpt>
<trkpt lat="33.8097798" lon="-118.3943183">
  <ele>-48.81</ele>
  <time>2026-09-01T01:14:06Z</time>
  <course>270.2</course>
  <speed>0.99</speed>
  <fix>3d</fix>
</trkpt>
<trkpt lat="33.8097799" lon="-118.3943206">
  <ele>-50.018</ele>
  <time>2026-09-01T01:14:06Z</time>
  <course>271.24</course>
  <speed>0.970051545022222</speed>
  <fix>3d</fix>
</trkpt>
<trkpt lat="33.8097798" lon="-118.3943183">
  <ele>-48.81</ele>
  <time>2026-09-01T01:14:06Z</time>
  <course>270.2</course>
  <speed>0.99</speed>
  <fix>3d</fix>
</trkpt>
<trkpt lat="33.8097799" lon="-118.3943217">
  <ele>-50.02</ele>
  <time>2026-09-01T01:14:06Z</time>
  <course>271.19</course>
  <speed>0.970051545022222</speed>
  <fix>3d</fix>
</trkpt>
<trkpt lat="33.8097798" lon="-118.3943205">
  <ele>-48.81</ele>
  <time>2026-09-01T01:14:06Z</time>
  <course>270.15</course>
  <speed>0.99</speed>
  <fix>3d</fix>
</trkpt>
<trkpt lat="33.8097799" lon="-118.3943227">
  <ele>-50.022</ele>
  <time>2026-09-01T01:14:06Z</time>
  <course>271.15</course>
  <speed>0.970051545022222</speed>
  <fix>3d</fix>
</trkpt>
<trkpt lat="33.8097798" lon="-118.3943205">
  <ele>-48.81</ele>
  <time>2026-09-01T01:14:06Z</time>
  <course>270.15</course>
  <speed>0.99</speed>
  <fix>3d</fix>
</trkpt>
<trkpt lat="33.8097799" lon="-118.3943238">
  <ele>-50.024</ele>
  <time>2026-09-01T01:14:06Z</time>
  <course>271.12</course>
  <speed>0.970051545022222</speed>
  <fix>3d</fix>
</trkpt>
<trkpt lat="33.8097798" lon="-118.3943226">
  <ele>-48.81</ele>
  <time>2026-09-01T01:14:06Z</time>
  <course>270.1</course>
  <speed>0.99</speed>
  <fix>3d</fix>
</trkpt>
<trkpt lat="33.8097799" lon="-118.3943249">
  <ele>-50.026</ele>
  <time>2026-09-01T01:14:06Z</time>
  <course>271.09</course>
  <speed>0.970051545022222</speed>
  <fix>3d</fix>
</trkpt>
<trkpt lat="33.8097798" lon="-118.3943226">
  <ele>-48.81</ele>
  <time>2026-09-01T01:14:06Z</time>
  <course>270.1</course>
  <speed>0.99</speed>
  <fix>3d</fix>
</trkpt>
<trkpt lat="33.8097799" lon="-118.394326">
  <ele>-50.027</ele>
  <time>2026-09-01T01:14:06Z</time>
  <course>271.06</course>
  <speed>0.970051545022222</speed>
  <fix>3d</fix>
</trkpt>
<trkpt lat="33.8097798" lon="-118.3943248">
  <ele>-48.81</ele>
  <time>2026-09-01T01:14:06Z</time>
  <course>270.07</course>
  <speed>0.99</speed>
  <fix>3d</fix>
</trkpt>
<trkpt lat="33.8097799" lon="-118.3943271">
  <ele>-50.026</ele>
  <time>2026-09-01T01:14:06Z</time>
  <course>271.04</course>
  <speed>0.970051545022222</speed>
  <fix>3d</fix>
</trkpt>
<trkpt lat="33.8097798" lon="-118.3943248">
  <ele>-48.81</ele>
  <time>2026-09-01T01:14:06Z</time>
  <course>270.07</course>
  <speed>0.99</speed>
  <fix>3d</fix>
</trkpt>
<trkpt lat="33.8097799" lon="-118.3943282">
  <ele>-50.024</ele>
  <time>2026-09-01T01:14:06Z</time>
  <course>271.03</course>
  <speed>0.970051545022222</speed>
  <fix>3d</fix>
</trkpt>
<trkpt lat="33.8097798" lon="-118.3943269">
  <ele>-48.81</ele>
  <time>2026-09-01T01:14:06Z</time>
  <course>270.04</course>
  <speed>0.99</speed>
  <fix>3d</fix>
</trkpt>
<trkpt lat="33.8097799" lon="-118.3943292">
  <ele>-50.022</ele>
  <time>2026-09-01T01:14:06Z</time>
  <course>271.01</course>
  <speed>0.970051545022222</speed>
  <fix>3d</fix>
</trkpt>
<trkpt lat="33.8097798" lon="-118.3943269">
  <ele>-48.81</ele>
  <time>2026-09-01T01:14:06Z</time>
  <course>270.04</course>
  <speed>0.99</speed>
  <fix>3d</fix>
</trkpt>
<trkpt lat="33.8097799" lon="-118.3943303">
  <ele>-50.02</ele>
  <time>2026-09-01T01:14:06Z</time>
  <course>271.0</course>
  <speed>0.970051545022222</speed>
  <fix>3d</fix>
</trkpt>
<trkpt lat="33.8097798" lon="-118.3943291">
  <ele>-48.81</ele>
  <time>2026-09-01T01:14:06Z</time>
  <course>270.03</course>
  <speed>0.99</speed>
  <fix>3d</fix>
</trkpt>
<trkpt lat="33.8097799" lon="-118.3943314">
  <ele>-50.019</ele>
  <time>2026-09-01T01:14:06Z</time>
  <course>270.98</course>
  <speed>0.970051545022222</speed>
  <fix>3d</fix>
</trkpt>
<trkpt lat="33.8097798" lon="-118.3943291">
  <ele>-48.81</ele>
  <time>2026-09-01T01:14:06Z</time>
  <course>270.03</course>
  <speed>0.99</speed>
  <fix>3d</fix>
</trkpt>
<trkpt lat="33.8097799" lon="-118.3943325">
  <ele>-50.018</ele>
  <time>2026-09-01T01:14:06Z</time>
  <course>270.98</course>
  <speed>0.970051545022222</speed>
  <fix>3d</fix>
</trkpt>
<trkpt lat="33.8097798" lon="-118.3943312">
  <ele>-48.8</ele>
  <time>2026-09-01T01:14:06Z</time>
  <course>270.02</course>
  <speed>0.99</speed>
  <fix>3d</fix>
</trkpt>
<trkpt lat="33.8097799" lon="-118.3943335">
  <ele>-50.018</ele>
  <time>2026-09-01T01:14:06Z</time>
  <course>270.97</course>
  <speed>0.970051545022222</speed>
  <fix>3d</fix>
</trkpt>
<trkpt lat="33.8097798" lon="-118.3943312">
  <ele>-48.8</ele>
  <time>2026-09-01T01:14:06Z</time>
  <course>270.02</course>
  <speed>0.99</speed>
  <fix>3d</fix>
</trkpt>
<trkpt lat="33.8097799" lon="-118.3943346">
  <ele>-50.019</ele>
  <time>2026-09-01T01:14:06Z</time>
  <course>270.96</course>
  <speed>0.970051545022222</speed>
  <fix>3d</fix>
</trkpt>
<trkpt lat="33.8097798" lon="-118.3943334">
  <ele>-48.8</ele>
  <time>2026-09-01T01:14:06Z</time>
  <course>270.0</course>
  <speed>0.99</speed>
  <fix>3d</fix>
</trkpt>
<trkpt lat="33.8097799" lon="-118.3943357">
  <ele>-50.019</ele>
  <time>2026-09-01T01:14:06Z</time>
  <course>270.95</course>
  <speed>0.970051545022222</speed>
  <fix>3d</fix>
</trkpt>
<trkpt lat="33.8097798" lon="-118.3943334">
  <ele>-48.8</ele>
  <time>2026-09-01T01:14:06Z</time>
  <course>270.0</course>
  <speed>0.99</speed>
  <fix>3d</fix>
</trkpt>
<trkpt lat="33.8097799" lon="-118.3943368">
  <ele>-50.02</ele>
  <time>2026-09-01T01:14:06Z</time>
  <course>270.95</course>
  <speed>0.970051545022222</speed>
  <fix>3d</fix>
</trkpt>
<trkpt lat="33.8097798" lon="-118.3943356">
  <ele>-48.8</ele>
  <time>2026-09-01T01:14:06Z</time>
  <course>269.98</course>
  <speed>0.99</speed>
  <fix>3d</fix>
</trkpt>
<trkpt lat="33.8097799" lon="-118.3943379">
  <ele>-50.019</ele>
  <time>2026-09-01T01:14:06Z</time>
  <course>270.95</course>
  <speed>0.970051545022222</speed>
  <fix>3d</fix>
</trkpt>
<trkpt lat="33.8097798" lon="-118.3943356">
  <ele>-48.8</ele>
  <time>2026-09-01T01:14:06Z</time>
  <course>269.98</course>
  <speed>0.99</speed>
  <fix>3d</fix>
</trkpt>
<trkpt lat="33.8097799" lon="-118.394339">
  <ele>-50.019</ele>
  <time>2026-09-01T01:14:06Z</time>
  <course>270.95</course>
  <speed>0.970051545022222</speed>
  <fix>3d</fix>
</trkpt>
<trkpt lat="33.8097798" lon="-118.3943377">
  <ele>-48.8</ele>
  <time>2026-09-01T01:14:06Z</time>
  <course>269.95</course>
  <speed>0.99</speed>
  <fix>3d</fix>
</trkpt>
<trkpt lat="33.8097799" lon="-118.39434">
  <ele>-50.018</ele>
  <time>2026-09-01T01:14:06Z</time>
  <course>270.95</course>
  <speed>0.970051545022222</speed>
  <fix>3d</fix>
</trkpt>
<trkpt lat="33.8097798" lon="-118.3943377">
  <ele>-48.8</ele>
  <time>2026-09-01T01:14:06Z</time>
  <course>269.95</course>
  <speed>0.99</speed>
  <fix>3d</fix>
</trkpt>
<trkpt lat="33.8097799" lon="-118.3943411">
  <ele>-50.017</ele>
  <time>2026-09-01T01:14:06Z</time>
  <course>270.96</course>
  <speed>0.970051545022222</speed>
  <fix>3d</fix>
</trkpt>
<trkpt lat="33.8097798" lon="-118.3943399">
  <ele>-48.8</ele>
  <time>2026-09-01T01:14:06Z</time>
  <course>269.93</course>
  <speed>0.99</speed>
  <fix>3d</fix>
</trkpt>
<trkpt lat="33.8097799" lon="-118.3943422">
  <ele>-50.017</ele>
  <time>2026-09-01T01:14:06Z</time>
  <course>270.96</course>
  <speed>0.970051545022222</speed>
  <fix>3d</fix>
</trkpt>
<trkpt lat="33.8097798" lon="-118.3943399">
  <ele>-48.8</ele>
  <time>2026-09-01T01:14:06Z</time>
  <course>269.93</course>
  <speed>0.99</speed>
  <fix>3d</fix>
</trkpt>
<trkpt lat="33.8097799" lon="-118.3943433">
  <ele>-50.015</ele>
  <time>2026-09-01T01:14:06Z</time>
  <course>270.96</course>
  <speed>0.970051545022222</speed>
  <fix>3d</fix>
</trkpt>
<trkpt lat="33.8097798" lon="-118.394342">
  <ele>-48.8</ele>
  <time>2026-09-01T01:14:06Z</time>
  <course>269.92</course>
  <speed>0.99</speed>
  <fix>3d</fix>
</trkpt>
<trkpt lat="33.8097799" lon="-118.3943444">
  <ele>-50.014</ele>
  <time>2026-09-01T01:14:06Z</time>
  <course>270.96</course>
  <speed>0.970051545022222</speed>
  <fix>3d</fix>
</trkpt>
<trkpt lat="33.8097798" lon="-118.394342">
  <ele>-48.8</ele>
  <time>2026-09-01T01:14:06Z</time>
  <course>269.92</course>
  <speed>0.99</speed>
  <fix>3d</fix>
</trkpt>
<trkpt lat="33.8097799" lon="-118.3943454">
  <ele>-50.013</ele>
  <time>2026-09-01T01:14:06Z</time>
  <course>270.96</course>
  <speed>0.970051545022222</speed>
  <fix>3d</fix>
</trkpt>
<trkpt lat="33.8097798" lon="-118.3943442">
  <ele>-48.8</ele>
  <time>2026-09-01T01:14:06Z</time>
  <course>269.9</course>
  <speed>0.99</speed>
  <fix>3d</fix>
</trkpt>
<trkpt lat="33.8097799" lon="-118.3943465">
  <ele>-50.013</ele>
  <time>2026-09-01T01:14:06Z</time>
  <course>270.97</course>
  <speed>0.970051545022222</speed>
  <fix>3d</fix>
</trkpt>
<trkpt lat="33.8097798" lon="-118.3943442">
  <ele>-48.8</ele>
  <time>2026-09-01T01:14:06Z</time>
  <course>269.9</course>
  <speed>0.99</speed>
  <fix>3d</fix>
</trkpt>
<trkpt lat="33.8097799" lon="-118.3943476">
  <ele>-50.014</ele>
  <time>2026-09-01T01:14:06Z</time>
  <course>270.98</course>
  <speed>0.970051545022222</speed>
  <fix>3d</fix>
</trkpt>
<trkpt lat="33.8097798" lon="-118.3943464">
  <ele>-48.8</ele>
  <time>2026-09-01T01:14:06Z</time>
  <course>269.88</course>
  <speed>1.0</speed>
  <fix>3d</fix>
</trkpt>
<trkpt lat="33.8097799" lon="-118.3943487">
  <ele>-50.015</ele>
  <time>2026-09-01T01:14:06Z</time>
  <course>270.98</course>
  <speed>0.970051545022222</speed>
  <fix>3d</fix>
</trkpt>
<trkpt lat="33.8097798" lon="-118.3943464">
  <ele>-48.8</ele>
  <time>2026-09-01T01:14:06Z</time>
  <course>269.88</course>
  <speed>1.0</speed>
  <fix>3d</fix>
</trkpt>
<trkpt lat="33.8097799" lon="-118.3943498">
  <ele>-50.017</ele>
  <time>2026-09-01T01:14:06Z</time>
  <course>270.98</course>
  <speed>0.970051545022222</speed>
  <fix>3d</fix>
</trkpt>
<trkpt lat="33.8097798" lon="-118.3943485">
  <ele>-48.8</ele>
  <time>2026-09-01T01:14:06Z</time>
  <course>269.87</course>
  <speed>1.0</speed>
  <fix>3d</fix>
</trkpt>
<trkpt lat="33.8097799" lon="-118.3943509">
  <ele>-50.019</ele>
  <time>2026-09-01T01:14:06Z</time>
  <course>270.98</course>
  <speed>0.970051545022222</speed>
  <fix>3d</fix>
</trkpt>
<trkpt lat="33.8097798" lon="-118.3943485">
  <ele>-48.8</ele>
  <time>2026-09-01T01:14:06Z</time>
  <course>269.87</course>
  <speed>1.0</speed>
  <fix>3d</fix>
</trkpt>
<trkpt lat="33.8097799" lon="-118.3943519">
  <ele>-50.02</ele>
  <time>2026-09-01T01:14:06Z</time>
  <course>270.98</course>
  <speed>0.970051545022222</speed>
  <fix>3d</fix>
</trkpt>
<trkpt lat="33.8097798" lon="-118.3943507">
  <ele>-48.8</ele>
  <time>2026-09-01T01:14:06Z</time>
  <course>269.85</course>
  <speed>1.0</speed>
  <fix>3d</fix>
</trkpt>
<trkpt lat="33.8097799" lon="-118.394353">
  <ele>-50.021</ele>
  <time>2026-09-01T01:14:06Z</time>
  <course>270.99</course>
  <speed>0.970051545022222</speed>
  <fix>3d</fix>
</trkpt>
<trkpt lat="33.8097798" lon="-118.3943507">
  <ele>-48.8</ele>
  <time>2026-09-01T01:14:06Z</time>
  <course>269.85</course>
  <speed>1.0</speed>
  <fix>3d</fix>
</trkpt>
<trkpt lat="33.8097799" lon="-118.3943541">
  <ele>-50.022</ele>
  <time>2026-09-01T01:14:06Z</time>
  <course>270.99</course>
  <speed>0.970051545022222</speed>
  <fix>3d</fix>
</trkpt>
<trkpt lat="33.8097798" lon="-118.3943529">
  <ele>-48.81</ele>
  <time>2026-09-01T01:14:06Z</time>
  <course>269.85</course>
  <speed>1.0</speed>
  <fix>3d</fix>
</trkpt>
<trkpt lat="33.8097799" lon="-118.3943552">
  <ele>-50.023</ele>
  <time>2026-09-01T01:14:06Z</time>
  <course>270.99</course>
  <speed>0.970051545022222</speed>
  <fix>3d</fix>
</trkpt>
<trkpt lat="33.8097798" lon="-118.3943529">
  <ele>-48.81</ele>
  <time>2026-09-01T01:14:06Z</time>
  <course>269.85</course>
  <speed>1.0</speed>
  <fix>3d</fix>
</trkpt>
<trkpt lat="33.8097799" lon="-118.3943563">
  <ele>-50.022</ele>
  <time>2026-09-01T01:14:06Z</time>
  <course>271.0</course>
  <speed>0.970051545022222</speed>
  <fix>3d</fix>
</trkpt>
<trkpt lat="33.8097798" lon="-118.394355">
  <ele>-48.81</ele>
  <time>2026-09-01T01:14:06Z</time>
  <course>269.82</course>
  <speed>1.0</speed>
  <fix>3d</fix>
</trkpt>
<trkpt lat="33.8097799" lon="-118.3943573">
  <ele>-50.022</ele>
  <time>2026-09-01T01:14:06Z</time>
  <course>270.99</course>
  <speed>0.970051545022222</speed>
  <fix>3d</fix>
</trkpt>
<trkpt lat="33.8097798" lon="-118.394355">
  <ele>-48.81</ele>
  <time>2026-09-01T01:14:06Z</time>
  <course>269.82</course>
  <speed>1.0</speed>
  <fix>3d</fix>
</trkpt>
<trkpt lat="33.8097799" lon="-118.3943584">
  <ele>-50.022</ele>
  <time>2026-09-01T01:14:06Z</time>
  <course>271.0</course>
  <speed>0.970051545022222</speed>
  <fix>3d</fix>
</trkpt>
<trkpt lat="33.8097798" lon="-118.3943572">
  <ele>-48.8</ele>
  <time>2026-09-01T01:14:06Z</time>
  <course>269.81</course>
  <speed>1.0</speed>
  <fix>3d</fix>
</trkpt>
<trkpt lat="33.8097799" lon="-118.3943595">
  <ele>-50.022</ele>
  <time>2026-09-01T01:14:06Z</time>
  <course>271.01</course>
  <speed>0.970051545022222</speed>
  <fix>3d</fix>
</trkpt>
<trkpt lat="33.8097798" lon="-118.3943572">
  <ele>-48.8</ele>
  <time>2026-09-01T01:14:06Z</time>
  <course>269.81</course>
  <speed>1.0</speed>
  <fix>3d</fix>
</trkpt>
<trkpt lat="33.8097799" lon="-118.3943606">
  <ele>-50.021</ele>
  <time>2026-09-01T01:14:06Z</time>
  <course>271.02</course>
  <speed>0.970051545022222</speed>
  <fix>3d</fix>
</trkpt>
<trkpt lat="33.8097798" lon="-118.3943593">
  <ele>-48.8</ele>
  <time>2026-09-01T01:14:06Z</time>
  <course>269.8</course>
  <speed>1.0</speed>
  <fix>3d</fix>
</trkpt>
<trkpt lat="33.8097799" lon="-118.3943617">
  <ele>-50.02</ele>
  <time>2026-09-01T01:14:06Z</time>
  <course>271.02</course>
  <speed>0.970051545022222</speed>
  <fix>3d</fix>
</trkpt>
<trkpt lat="33.8097798" lon="-118.3943593">
  <ele>-48.8</ele>
  <time>2026-09-01T01:14:06Z</time>
  <course>269.8</course>
  <speed>1.0</speed>
  <fix>3d</fix>
</trkpt>
<trkpt lat="33.8097799" lon="-118.3943628">
  <ele>-50.018</ele>
  <time>2026-09-01T01:14:06Z</time>
  <course>271.02</course>
  <speed>0.970051545022222</speed>
  <fix>3d</fix>
</trkpt>
<trkpt lat="33.8097798" lon="-118.3943615">
  <ele>-48.8</ele>
  <time>2026-09-01T01:14:06Z</time>
  <course>269.8</course>
  <speed>1.0</speed>
  <fix>3d</fix>
</trkpt>
<trkpt lat="33.8097799" lon="-118.3943638">
  <ele>-50.017</ele>
  <time>2026-09-01T01:14:06Z</time>
  <course>271.02</course>
  <speed>0.970051545022222</speed>
  <fix>3d</fix>
</trkpt>
<trkpt lat="33.8097798" lon="-118.3943615">
  <ele>-48.8</ele>
  <time>2026-09-01T01:14:06Z</time>
  <course>269.8</course>
  <speed>1.0</speed>
  <fix>3d</fix>
</trkpt>
<trkpt lat="33.8097799" lon="-118.3943649">
  <ele>-50.015</ele>
  <time>2026-09-01T01:14:06Z</time>
  <course>271.03</course>
  <speed>0.970051545022222</speed>
  <fix>3d</fix>
</trkpt>
<trkpt lat="33.8097798" lon="-118.3943636">
  <ele>-48.8</ele>
  <time>2026-09-01T01:14:06Z</time>
  <course>269.8</course>
  <speed>1.0</speed>
  <fix>3d</fix>
</trkpt>
<trkpt lat="33.8097799" lon="-118.394366">
  <ele>-50.014</ele>
  <time>2026-09-01T01:14:06Z</time>
  <course>271.03</course>
  <speed>0.970051545022222</speed>
  <fix>3d</fix>
</trkpt>
<trkpt lat="33.8097798" lon="-118.3943636">
  <ele>-48.8</ele>
  <time>2026-09-01T01:14:06Z</time>
  <course>269.8</course>
  <speed>1.0</speed>
  <fix>3d</fix>
</trkpt>
<trkpt lat="33.8097799" lon="-118.3943671">
  <ele>-50.013</ele>
  <time>2026-09-01T01:14:06Z</time>
  <course>271.03</course>
  <speed>0.970051545022222</speed>
  <fix>3d</fix>
</trkpt>
<trkpt lat="33.8097798" lon="-118.3943659">
  <ele>-48.8</ele>
  <time>2026-09-01T01:14:06Z</time>
  <course>269.8</course>
  <speed>1.0</speed>
  <fix>3d</fix>
</trkpt>
<trkpt lat="33.8097799" lon="-118.3943682">
  <ele>-50.014</ele>
  <time>2026-09-01T01:14:06Z</time>
  <course>271.03</course>
  <speed>0.970051545022222</speed>
  <fix>3d</fix>
</trkpt>
<trkpt lat="33.8097798" lon="-118.3943659">
  <ele>-48.8</ele>
  <time>2026-09-01T01:14:06Z</time>
  <course>269.8</course>
  <speed>1.0</speed>
  <fix>3d</fix>
</trkpt>
<trkpt lat="33.8097799" lon="-118.3943692">
  <ele>-50.016</ele>
  <time>2026-09-01T01:14:06Z</time>
  <course>271.03</course>
  <speed>0.970051545022222</speed>
  <fix>3d</fix>
</trkpt>
<trkpt lat="33.8097798" lon="-118.394368">
  <ele>-48.8</ele>
  <time>2026-09-01T01:14:06Z</time>
  <course>269.78</course>
  <speed>1.0</speed>
  <fix>3d</fix>
</trkpt>
<trkpt lat="33.8097799" lon="-118.3943703">
  <ele>-50.017</ele>
  <time>2026-09-01T01:14:06Z</time>
  <course>271.03</course>
  <speed>0.970051545022222</speed>
  <fix>3d</fix>
</trkpt>
<trkpt lat="33.8097798" lon="-118.394368">
  <ele>-48.8</ele>
  <time>2026-09-01T01:14:06Z</time>
  <course>269.78</course>
  <speed>1.0</speed>
  <fix>3d</fix>
</trkpt>
<trkpt lat="33.8097799" lon="-118.3943714">
  <ele>-50.018</ele>
  <time>2026-09-01T01:14:06Z</time>
  <course>271.03</course>
  <speed>0.970051545022222</speed>
  <fix>3d</fix>
</trkpt>
<trkpt lat="33.8097798" lon="-118.3943702">
  <ele>-48.8</ele>
  <time>2026-09-01T01:14:06Z</time>
  <course>269.76</course>
  <speed>1.0</speed>
  <fix>3d</fix>
</trkpt>
<trkpt lat="33.8097799" lon="-118.3943725">
  <ele>-50.018</ele>
  <time>2026-09-01T01:14:06Z</time>
  <course>271.03</course>
  <speed>0.970051545022222</speed>
  <fix>3d</fix>
</trkpt>
<trkpt lat="33.8097798" lon="-118.3943702">
  <ele>-48.8</ele>
  <time>2026-09-01T01:14:06Z</time>
  <course>269.76</course>
  <speed>1.0</speed>
  <fix>3d</fix>
</trkpt>
<trkpt lat="33.8097799" lon="-118.3943736">
  <ele>-50.018</ele>
  <time>2026-09-01T01:14:07Z</time>
  <course>271.03</course>
  <speed>0.970051545022222</speed>
  <fix>3d</fix>
</trkpt>
<trkpt lat="33.8097798" lon="-118.3943724">
  <ele>-48.81</ele>
  <time>2026-09-01T01:14:07Z</time>
  <course>269.75</course>
  <speed>1.0</speed>
  <fix>3d</fix>
</trkpt>
<trkpt lat="33.8097799" lon="-118.3943747">
  <ele>-50.019</ele>
  <time>2026-09-01T01:14:07Z</time>
  <course>271.02</course>
  <speed>0.970051545022222</speed>
  <fix>3d</fix>
</trkpt>
<trkpt lat="33.8097798" lon="-118.3943724">
  <ele>-48.81</ele>
  <time>2026-09-01T01:14:07Z</time>
  <course>269.75</course>
  <speed>1.0</speed>
  <fix>3d</fix>
</trkpt>
<trkpt lat="33.8097799" lon="-118.3943757">
  <ele>-50.02</ele>
  <time>2026-09-01T01:14:07Z</time>
  <course>271.03</course>
  <speed>0.970051545022222</speed>
  <fix>3d</fix>
</trkpt>
<trkpt lat="33.8097798" lon="-118.3943745">
  <ele>-48.81</ele>
  <time>2026-09-01T01:14:07Z</time>
  <course>269.74</course>
  <speed>1.0</speed>
  <fix>3d</fix>
</trkpt>
<trkpt lat="33.8097799" lon="-118.3943768">
  <ele>-50.022</ele>
  <time>2026-09-01T01:14:07Z</time>
  <course>271.03</course>
  <speed>0.970051545022222</speed>
  <fix>3d</fix>
</trkpt>
<trkpt lat="33.8097798" lon="-118.3943745">
  <ele>-48.81</ele>
  <time>2026-09-01T01:14:07Z</time>
  <course>269.74</course>
  <speed>1.0</speed>
  <fix>3d</fix>
</trkpt>
<trkpt lat="33.8097799" lon="-118.3943779">
  <ele>-50.024</ele>
  <time>2026-09-01T01:14:07Z</time>
  <course>271.03</course>
  <speed>0.970051545022222</speed>
  <fix>3d</fix>
</trkpt>
<trkpt lat="33.8097798" lon="-118.3943767">
  <ele>-48.81</ele>
  <time>2026-09-01T01:14:07Z</time>
  <course>269.72</course>
  <speed>1.0</speed>
  <fix>3d</fix>
</trkpt>
<trkpt lat="33.8097799" lon="-118.394379">
  <ele>-50.025</ele>
  <time>2026-09-01T01:14:07Z</time>
  <course>271.04</course>
  <speed>0.970051545022222</speed>
  <fix>3d</fix>
</trkpt>
<trkpt lat="33.8097798" lon="-118.3943767">
  <ele>-48.81</ele>
  <time>2026-09-01T01:14:07Z</time>
  <course>269.72</course>
  <speed>1.0</speed>
  <fix>3d</fix>
</trkpt>
<trkpt lat="33.8097799" lon="-118.39438">
  <ele>-50.025</ele>
  <time>2026-09-01T01:14:07Z</time>
  <course>271.05</course>
  <speed>0.970051545022222</speed>
  <fix>3d</fix>
</trkpt>
<trkpt lat="33.8097798" lon="-118.3943789">
  <ele>-48.81</ele>
  <time>2026-09-01T01:14:07Z</time>
  <course>269.69</course>
  <speed>1.0</speed>
  <fix>3d</fix>
</trkpt>
<trkpt lat="33.8097799" lon="-118.3943811">
  <ele>-50.025</ele>
  <time>2026-09-01T01:14:07Z</time>
  <course>271.05</course>
  <speed>0.970051545022222</speed>
  <fix>3d</fix>
</trkpt>
<trkpt lat="33.8097798" lon="-118.3943789">
  <ele>-48.81</ele>
  <time>2026-09-01T01:14:07Z</time>
  <course>269.69</course>
  <speed>1.0</speed>
  <fix>3d</fix>
</trkpt>
<trkpt lat="33.8097799" lon="-118.3943822">
  <ele>-50.023</ele>
  <time>2026-09-01T01:14:07Z</time>
  <course>271.06</course>
  <speed>0.970051545022222</speed>
  <fix>3d</fix>
</trkpt>
<trkpt lat="33.8097798" lon="-118.394381">
  <ele>-48.81</ele>
  <time>2026-09-01T01:14:07Z</time>
  <course>269.69</course>
  <speed>1.0</speed>
  <fix>3d</fix>
</trkpt>
<trkpt lat="33.8097799" lon="-118.3943833">
  <ele>-50.021</ele>
  <time>2026-09-01T01:14:07Z</time>
  <course>271.06</course>
  <speed>0.970051545022222</speed>
  <fix>3d</fix>
</trkpt>
<trkpt lat="33.8097798" lon="-118.394381">
  <ele>-48.81</ele>
  <time>2026-09-01T01:14:07Z</time>
  <course>269.69</course>
  <speed>1.0</speed>
  <fix>3d</fix>
</trkpt>
<trkpt lat="33.8097799" lon="-118.3943844">
  <ele>-50.018</ele>
  <time>2026-09-01T01:14:07Z</time>
  <course>271.07</course>
  <speed>0.970051545022222</speed>
  <fix>3d</fix>
</trkpt>
<trkpt lat="33.8097798" lon="-118.3943832">
  <ele>-48.81</ele>
  <time>2026-09-01T01:14:07Z</time>
  <course>269.7</course>
  <speed>1.0</speed>
  <fix>3d</fix>
</trkpt>
<trkpt lat="33.8097799" lon="-118.3943855">
  <ele>-50.016</ele>
  <time>2026-09-01T01:14:07Z</time>
  <course>271.07</course>
  <speed>0.970051545022222</speed>
  <fix>3d</fix>
</trkpt>
<trkpt lat="33.8097798" lon="-118.3943832">
  <ele>-48.81</ele>
  <time>2026-09-01T01:14:07Z</time>
  <course>269.7</course>
  <speed>1.0</speed>
  <fix>3d</fix>
</trkpt>
<trkpt lat="33.8097799" lon="-118.3943865">
  <ele>-50.014</ele>
  <time>2026-09-01T01:14:07Z</time>
  <course>271.08</course>
  <speed>0.970051545022222</speed>
  <fix>3d</fix>
</trkpt>
<trkpt lat="33.8097798" lon="-118.3943854">
  <ele>-48.81</ele>
  <time>2026-09-01T01:14:07Z</time>
  <course>269.71</course>
  <speed>1.0</speed>
  <fix>3d</fix>
</trkpt>
<trkpt lat="33.8097799" lon="-118.3943876">
  <ele>-50.013</ele>
  <time>2026-09-01T01:14:07Z</time>
  <course>271.08</course>
  <speed>0.970051545022222</speed>
  <fix>3d</fix>
</trkpt>
<trkpt lat="33.8097798" lon="-118.3943854">
  <ele>-48.81</ele>
  <time>2026-09-01T01:14:07Z</time>
  <course>269.71</course>
  <speed>1.0</speed>
  <fix>3d</fix>
</trkpt>
<trkpt lat="33.8097799" lon="-118.3943887">
  <ele>-50.013</ele>
  <time>2026-09-01T01:14:07Z</time>
  <course>271.09</course>
  <speed>0.970051545022222</speed>
  <fix>3d</fix>
</trkpt>
<trkpt lat="33.8097798" lon="-118.3943875">
  <ele>-48.81</ele>
  <time>2026-09-01T01:14:07Z</time>
  <course>269.7</course>
  <speed>1.0</speed>
  <fix>3d</fix>
</trkpt>
<trkpt lat="33.8097799" lon="-118.3943898">
  <ele>-50.014</ele>
  <time>2026-09-01T01:14:07Z</time>
  <course>271.09</course>
  <speed>0.970051545022222</speed>
  <fix>3d</fix>
</trkpt>
<trkpt lat="33.8097798" lon="-118.3943875">
  <ele>-48.81</ele>
  <time>2026-09-01T01:14:07Z</time>
  <course>269.7</course>
  <speed>1.0</speed>
  <fix>3d</fix>
</trkpt>
<trkpt lat="33.8097799" lon="-118.3943909">
  <ele>-50.015</ele>
  <time>2026-09-01T01:14:07Z</time>
  <course>271.1</course>
  <speed>0.970051545022222</speed>
  <fix>3d</fix>
</trkpt>
<trkpt lat="33.8097797" lon="-118.3943898">
  <ele>-48.81</ele>
  <time>2026-09-01T01:14:07Z</time>
  <course>269.68</course>
  <speed>1.0</speed>
  <fix>3d</fix>
</trkpt>
<trkpt lat="33.8097799" lon="-118.394392">
  <ele>-50.018</ele>
  <time>2026-09-01T01:14:07Z</time>
  <course>271.11</course>
  <speed>0.970051545022222</speed>
  <fix>3d</fix>
</trkpt>
<trkpt lat="33.8097797" lon="-118.3943898">
  <ele>-48.81</ele>
  <time>2026-09-01T01:14:07Z</time>
  <course>269.68</course>
  <speed>1.0</speed>
  <fix>3d</fix>
</trkpt>
<trkpt lat="33.8097799" lon="-118.3943931">
  <ele>-50.02</ele>
  <time>2026-09-01T01:14:07Z</time>
  <course>271.15</course>
  <speed>0.970051545022222</speed>
  <fix>3d</fix>
</trkpt>
<trkpt lat="33.8097797" lon="-118.3943919">
  <ele>-48.81</ele>
  <time>2026-09-01T01:14:07Z</time>
  <course>269.73</course>
  <speed>1.0</speed>
  <fix>3d</fix>
</trkpt>
<trkpt lat="33.8097799" lon="-118.3943941">
  <ele>-50.021</ele>
  <time>2026-09-01T01:14:07Z</time>
  <course>271.19</course>
  <speed>0.9702061636580135</speed>
  <fix>3d</fix>
</trkpt>
<trkpt lat="33.8097797" lon="-118.3943919">
  <ele>-48.81</ele>
  <time>2026-09-01T01:14:07Z</time>
  <course>269.73</course>
  <speed>1.0</speed>
  <fix>3d</fix>
</trkpt>
<trkpt lat="33.8097799" lon="-118.3943952">
  <ele>-50.022</ele>
  <time>2026-09-01T01:14:07Z</time>
  <course>271.25</course>
  <speed>0.9702061636580135</speed>
  <fix>3d</fix>
</trkpt>
<trkpt lat="33.8097797" lon="-118.3943941">
  <ele>-48.82</ele>
  <time>2026-09-01T01:14:07Z</time>
  <course>269.82</course>
  <speed>1.0</speed>
  <fix>3d</fix>
</trkpt>
<trkpt lat="33.8097799" lon="-118.3943963">
  <ele>-50.022</ele>
  <time>2026-09-01T01:14:07Z</time>
  <course>271.3</course>
  <speed>0.9702061636580135</speed>
  <fix>3d</fix>
</trkpt>
<trkpt lat="33.8097797" lon="-118.3943941">
  <ele>-48.82</ele>
  <time>2026-09-01T01:14:07Z</time>
  <course>269.82</course>
  <speed>1.0</speed>
  <fix>3d</fix>
</trkpt>
<trkpt lat="33.8097799" lon="-118.3943974">
  <ele>-50.022</ele>
  <time>2026-09-01T01:14:07Z</time>
  <course>271.35</course>
  <speed>0.9702061636580135</speed>
  <fix>3d</fix>
</trkpt>
<trkpt lat="33.8097797" lon="-118.3943962">
  <ele>-48.82</ele>
  <time>2026-09-01T01:14:07Z</time>
  <course>269.9</course>
  <speed>1.0</speed>
  <fix>3d</fix>
</trkpt>
<trkpt lat="33.8097799" lon="-118.3943985">
  <ele>-50.022</ele>
  <time>2026-09-01T01:14:07Z</time>
  <course>271.41</course>
  <speed>0.9702061636580135</speed>
  <fix>3d</fix>
</trkpt>
<trkpt lat="33.8097797" lon="-118.3943962">
  <ele>-48.82</ele>
  <time>2026-09-01T01:14:07Z</time>
  <course>269.9</course>
  <speed>1.0</speed>
  <fix>3d</fix>
</trkpt>
<trkpt lat="33.8097799" lon="-118.3943995">
  <ele>-50.023</ele>
  <time>2026-09-01T01:14:07Z</time>
  <course>271.46</course>
  <speed>0.9702061636580135</speed>
  <fix>3d</fix>
</trkpt>
<trkpt lat="33.8097797" lon="-118.3943984">
  <ele>-48.82</ele>
  <time>2026-09-01T01:14:07Z</time>
  <course>269.97</course>
  <speed>1.0</speed>
  <fix>3d</fix>
</trkpt>
<trkpt lat="33.8097799" lon="-118.3944006">
  <ele>-50.023</ele>
  <time>2026-09-01T01:14:07Z</time>
  <course>271.49</course>
  <speed>0.9702061636580135</speed>
  <fix>3d</fix>
</trkpt>
<trkpt lat="33.8097797" lon="-118.3943984">
  <ele>-48.82</ele>
  <time>2026-09-01T01:14:07Z</time>
  <course>269.97</course>
  <speed>1.0</speed>
  <fix>3d</fix>
</trkpt>
<trkpt lat="33.8097799" lon="-118.3944017">
  <ele>-50.022</ele>
  <time>2026-09-01T01:14:07Z</time>
  <course>271.52</course>
  <speed>0.9702061636580135</speed>
  <fix>3d</fix>
</trkpt>
<trkpt lat="33.8097797" lon="-118.3944005">
  <ele>-48.82</ele>
  <time>2026-09-01T01:14:07Z</time>
  <course>270.02</course>
  <speed>1.0</speed>
  <fix>3d</fix>
</trkpt>
<trkpt lat="33.8097799" lon="-118.3944028">
  <ele>-50.021</ele>
  <time>2026-09-01T01:14:07Z</time>
  <course>271.54</course>
  <speed>0.9702061636580135</speed>
  <fix>3d</fix>
</trkpt>
<trkpt lat="33.8097797" lon="-118.3944005">
  <ele>-48.82</ele>
  <time>2026-09-01T01:14:07Z</time>
  <course>270.02</course>
  <speed>1.0</speed>
  <fix>3d</fix>
</trkpt>
<trkpt lat="33.8097799" lon="-118.3944039">
  <ele>-50.021</ele>
  <time>2026-09-01T01:14:07Z</time>
  <course>271.56</course>
  <speed>0.9702061636580135</speed>
  <fix>3d</fix>
</trkpt>
<trkpt lat="33.8097797" lon="-118.3944028">
  <ele>-48.82</ele>
  <time>2026-09-01T01:14:07Z</time>
  <course>270.05</course>
  <speed>1.0</speed>
  <fix>3d</fix>
</trkpt>
<trkpt lat="33.8097799" lon="-118.394405">
  <ele>-50.023</ele>
  <time>2026-09-01T01:14:07Z</time>
  <course>271.57</course>
  <speed>0.9702061636580135</speed>
  <fix>3d</fix>
</trkpt>
<trkpt lat="33.8097797" lon="-118.3944028">
  <ele>-48.82</ele>
  <time>2026-09-01T01:14:07Z</time>
  <course>270.05</course>
  <speed>1.0</speed>
  <fix>3d</fix>
</trkpt>
<trkpt lat="33.8097799" lon="-118.394406">
  <ele>-50.024</ele>
  <time>2026-09-01T01:14:07Z</time>
  <course>271.59</course>
  <speed>0.9702061636580135</speed>
  <fix>3d</fix>
</trkpt>
<trkpt lat="33.8097797" lon="-118.394405">
  <ele>-48.82</ele>
  <time>2026-09-01T01:14:07Z</time>
  <course>270.07</course>
  <speed>1.0</speed>
  <fix>3d</fix>
</trkpt>
<trkpt lat="33.8097799" lon="-118.3944071">
  <ele>-50.026</ele>
  <time>2026-09-01T01:14:07Z</time>
  <course>271.6</course>
  <speed>0.9702061636580135</speed>
  <fix>3d</fix>
</trkpt>
<trkpt lat="33.8097797" lon="-118.394405">
  <ele>-48.82</ele>
  <time>2026-09-01T01:14:07Z</time>
  <course>270.07</course>
  <speed>1.0</speed>
  <fix>3d</fix>
</trkpt>
<trkpt lat="33.8097799" lon="-118.3944082">
  <ele>-50.026</ele>
  <time>2026-09-01T01:14:07Z</time>
  <course>271.61</course>
  <speed>0.9702061636580135</speed>
  <fix>3d</fix>
</trkpt>
<trkpt lat="33.8097797" lon="-118.3944071">
  <ele>-48.82</ele>
  <time>2026-09-01T01:14:07Z</time>
  <course>270.1</course>
  <speed>1.0</speed>
  <fix>3d</fix>
</trkpt>
<trkpt lat="33.8097799" lon="-118.3944093">
  <ele>-50.027</ele>
  <time>2026-09-01T01:14:07Z</time>
  <course>271.61</course>
  <speed>0.9702061636580135</speed>
  <fix>3d</fix>
</trkpt>
<trkpt lat="33.8097797" lon="-118.3944071">
  <ele>-48.82</ele>
  <time>2026-09-01T01:14:07Z</time>
  <course>270.1</course>
  <speed>1.0</speed>
  <fix>3d</fix>
</trkpt>
<trkpt lat="33.8097799" lon="-118.3944104">
  <ele>-50.027</ele>
  <time>2026-09-01T01:14:07Z</time>
  <course>271.62</course>
  <speed>0.9702061636580135</speed>
  <fix>3d</fix>
</trkpt>
<trkpt lat="33.8097797" lon="-118.3944093">
  <ele>-48.81</ele>
  <time>2026-09-01T01:14:07Z</time>
  <course>270.11</course>
  <speed>1.0</speed>
  <fix>3d</fix>
</trkpt>
<trkpt lat="33.8097799" lon="-118.3944115">
  <ele>-50.027</ele>
  <time>2026-09-01T01:14:07Z</time>
  <course>271.62</course>
  <speed>0.9702061636580135</speed>
  <fix>3d</fix>
</trkpt>
<trkpt lat="33.8097797" lon="-118.3944093">
  <ele>-48.81</ele>
  <time>2026-09-01T01:14:07Z</time>
  <course>270.11</course>
  <speed>1.0</speed>
  <fix>3d</fix>
</trkpt>
<trkpt lat="33.8097799" lon="-118.3944126">
  <ele>-50.025</ele>
  <time>2026-09-01T01:14:07Z</time>
  <course>271.63</course>
  <speed>0.9702061636580135</speed>
  <fix>3d</fix>
</trkpt>
<trkpt lat="33.8097797" lon="-118.3944115">
  <ele>-48.81</ele>
  <time>2026-09-01T01:14:07Z</time>
  <course>270.14</course>
  <speed>0.99</speed>
  <fix>3d</fix>
</trkpt>
<trkpt lat="33.8097799" lon="-118.3944136">
  <ele>-50.022</ele>
  <time>2026-09-01T01:14:07Z</time>
  <course>271.63</course>
  <speed>0.9602083107326242</speed>
  <fix>3d</fix>
</trkpt>
<trkpt lat="33.8097797" lon="-118.3944115">
  <ele>-48.81</ele>
  <time>2026-09-01T01:14:07Z</time>
  <course>270.14</course>
  <speed>0.99</speed>
  <fix>3d</fix>
</trkpt>
<trkpt lat="33.8097799" lon="-118.3944147">
  <ele>-50.019</ele>
  <time>2026-09-01T01:14:07Z</time>
  <course>271.63</course>
  <speed>0.9702061636580135</speed>
  <fix>3d</fix>
</trkpt>
<trkpt lat="33.8097797" lon="-118.3944136">
  <ele>-48.8</ele>
  <time>2026-09-01T01:14:07Z</time>
  <course>270.16</course>
  <speed>0.99</speed>
  <fix>3d</fix>
</trkpt>
<trkpt lat="33.8097799" lon="-118.3944158">
  <ele>-50.016</ele>
  <time>2026-09-01T01:14:07Z</time>
  <course>271.63</course>
  <speed>0.9602083107326242</speed>
  <fix>3d</fix>
</trkpt>
<trkpt lat="33.8097797" lon="-118.3944136">
  <ele>-48.8</ele>
  <time>2026-09-01T01:14:07Z</time>
  <course>270.16</course>
  <speed>0.99</speed>
  <fix>3d</fix>
</trkpt>
<trkpt lat="33.8097799" lon="-118.3944169">
  <ele>-50.013</ele>
  <time>2026-09-01T01:14:07Z</time>
  <course>271.63</course>
  <speed>0.9702061636580135</speed>
  <fix>3d</fix>
</trkpt>
<trkpt lat="33.8097797" lon="-118.3944158">
  <ele>-48.8</ele>
  <time>2026-09-01T01:14:07Z</time>
  <course>270.17</course>
  <speed>0.99</speed>
  <fix>3d</fix>
</trkpt>
<trkpt lat="33.8097799" lon="-118.394418">
  <ele>-50.012</ele>
  <time>2026-09-01T01:14:07Z</time>
  <course>271.62</course>
  <speed>0.9602083107326242</speed>
  <fix>3d</fix>
</trkpt>
<trkpt lat="33.8097797" lon="-118.3944158">
  <ele>-48.8</ele>
  <time>2026-09-01T01:14:07Z</time>
  <course>270.17</course>
  <speed>0.99</speed>
  <fix>3d</fix>
</trkpt>
<trkpt lat="33.8097799" lon="-118.3944191">
  <ele>-50.013</ele>
  <time>2026-09-01T01:14:07Z</time>
  <course>271.62</course>
  <speed>0.9702061636580135</speed>
  <fix>3d</fix>
</trkpt>
<trkpt lat="33.8097797" lon="-118.3944179">
  <ele>-48.8</ele>
  <time>2026-09-01T01:14:07Z</time>
  <course>270.18</course>
  <speed>0.99</speed>
  <fix>3d</fix>
</trkpt>
<trkpt lat="33.8097799" lon="-118.3944201">
  <ele>-50.013</ele>
  <time>2026-09-01T01:14:07Z</time>
  <course>271.61</course>
  <speed>0.9602083107326242</speed>
  <fix>3d</fix>
</trkpt>
<trkpt lat="33.8097797" lon="-118.3944179">
  <ele>-48.8</ele>
  <time>2026-09-01T01:14:07Z</time>
  <course>270.18</course>
  <speed>0.99</speed>
  <fix>3d</fix>
</trkpt>
<trkpt lat="33.8097799" lon="-118.3944212">
  <ele>-50.014</ele>
  <time>2026-09-01T01:14:07Z</time>
  <course>271.61</course>
  <speed>0.9602083107326242</speed>
  <fix>3d</fix>
</trkpt>
<trkpt lat="33.8097797" lon="-118.3944201">
  <ele>-48.8</ele>
  <time>2026-09-01T01:14:07Z</time>
  <course>270.2</course>
  <speed>0.99</speed>
  <fix>3d</fix>
</trkpt>
<trkpt lat="33.8097799" lon="-118.3944223">
  <ele>-50.015</ele>
  <time>2026-09-01T01:14:07Z</time>
  <course>271.6</course>
  <speed>0.9602083107326242</speed>
  <fix>3d</fix>
</trkpt>
<trkpt lat="33.8097797" lon="-118.3944201">
  <ele>-48.8</ele>
  <time>2026-09-01T01:14:07Z</time>
  <course>270.2</course>
  <speed>0.99</speed>
  <fix>3d</fix>
</trkpt>
<trkpt lat="33.8097799" lon="-118.3944234">
  <ele>-50.017</ele>
  <time>2026-09-01T01:14:07Z</time>
  <course>271.6</course>
  <speed>0.9402127418834527</speed>
  <fix>3d</fix>
</trkpt>
<trkpt lat="33.8097797" lon="-118.3944222">
  <ele>-48.8</ele>
  <time>2026-09-01T01:14:07Z</time>
  <course>270.23</course>
  <speed>0.99</speed>
  <fix>3d</fix>
</trkpt>
<trkpt lat="33.8097799" lon="-118.3944244">
  <ele>-50.019</ele>
  <time>2026-09-01T01:14:07Z</time>
  <course>271.6</course>
  <speed>0.9102197536858887</speed>
  <fix>3d</fix>
</trkpt>
<trkpt lat="33.8097797" lon="-118.3944222">
  <ele>-48.8</ele>
  <time>2026-09-01T01:14:07Z</time>
  <course>270.23</course>
  <speed>0.99</speed>
  <fix>3d</fix>
</trkpt>
<trkpt lat="33.8097799" lon="-118.3944254">
  <ele>-50.02</ele>
  <time>2026-09-01T01:14:07Z</time>
  <course>271.62</course>
  <speed>0.8802272433866155</speed>
  <fix>3d</fix>
</trkpt>
<trkpt lat="33.8097797" lon="-118.3944243">
  <ele>-48.81</ele>
  <time>2026-09-01T01:14:07Z</time>
  <course>270.28</course>
  <speed>0.95</speed>
  <fix>3d</fix>
</trkpt>
<trkpt lat="33.8097799" lon="-118.3944264">
  <ele>-50.02</ele>
  <time>2026-09-01T01:14:07Z</time>
  <course>271.65</course>
  <speed>0.8402380615040002</speed>
  <fix>3d</fix>
</trkpt>
<trkpt lat="33.8097797" lon="-118.3944243">
  <ele>-48.81</ele>
  <time>2026-09-01T01:14:07Z</time>
  <course>270.28</course>
  <speed>0.95</speed>
  <fix>3d</fix>
</trkpt>
<trkpt lat="33.8097799" lon="-118.3944273">
  <ele>-50.021</ele>
  <time>2026-09-01T01:14:07Z</time>
  <course>271.7</course>
  <speed>0.7902531240052139</speed>
  <fix>3d</fix>
</trkpt>
<trkpt lat="33.8097797" lon="-118.3944263">
  <ele>-48.81</ele>
  <time>2026-09-01T01:14:07Z</time>
  <course>270.38</course>
  <speed>0.89</speed>
  <fix>3d</fix>
</trkpt>
<trkpt lat="33.8097799" lon="-118.3944281">
  <ele>-50.022</ele>
  <time>2026-09-01T01:14:07Z</time>
  <course>271.77</course>
  <speed>0.7302739212103907</speed>
  <fix>3d</fix>
</trkpt>
<trkpt lat="33.8097797" lon="-118.3944263">
  <ele>-48.81</ele>
  <time>2026-09-01T01:14:07Z</time>
  <course>270.38</course>
  <speed>0.89</speed>
  <fix>3d</fix>
</trkpt>
<trkpt lat="33.8097799" lon="-118.3944289">
  <ele>-50.022</ele>
  <time>2026-09-01T01:14:07Z</time>
  <course>271.87</course>
  <speed>0.6702984409947557</speed>
  <fix>3d</fix>
</trkpt>
<trkpt lat="33.8097797" lon="-118.3944282">
  <ele>-48.81</ele>
  <time>2026-09-01T01:14:07Z</time>
  <course>270.54</course>
  <speed>0.8</speed>
  <fix>3d</fix>
</trkpt>
<trkpt lat="33.8097799" lon="-118.3944297">
  <ele>-50.021</ele>
  <time>2026-09-01T01:14:07Z</time>
  <course>272.01</course>
  <speed>0.6003332407921453</speed>
  <fix>3d</fix>
</trkpt>
<trkpt lat="33.8097797" lon="-118.3944282">
  <ele>-48.81</ele>
  <time>2026-09-01T01:14:07Z</time>
  <course>270.54</course>
  <speed>0.8</speed>
  <fix>3d</fix>
</trkpt>
<trkpt lat="33.8097799" lon="-118.3944303">
  <ele>-50.02</ele>
  <time>2026-09-01T01:14:07Z</time>
  <course>272.22</course>
  <speed>0.5303772242470448</speed>
  <fix>3d</fix>
</trkpt>
<trkpt lat="33.8097797" lon="-118.3944298">
  <ele>-48.81</ele>
  <time>2026-09-01T01:14:07Z</time>
  <course>270.8</course>
  <speed>0.68</speed>
  <fix>3d</fix>
</trkpt>
<trkpt lat="33.8097799" lon="-118.3944309">
  <ele>-50.019</ele>
  <time>2026-09-01T01:14:07Z</time>
  <course>272.52</course>
  <speed>0.4604345773288535</speed>
  <fix>3d</fix>
</trkpt>
<trkpt lat="33.8097797" lon="-118.3944298">
  <ele>-48.81</ele>
  <time>2026-09-01T01:14:07Z</time>
  <course>270.8</course>
  <speed>0.68</speed>
  <fix>3d</fix>
</trkpt>
<trkpt lat="33.8097799" lon="-118.3944314">
  <ele>-50.018</ele>
  <time>2026-09-01T01:14:07Z</time>
  <course>272.96</course>
  <speed>0.4004996878900158</speed>
  <fix>3d</fix>
</trkpt>
<trkpt lat="33.8097797" lon="-118.3944311">
  <ele>-48.81</ele>
  <time>2026-09-01T01:14:07Z</time>
  <course>271.19</course>
  <speed>0.54</speed>
  <fix>3d</fix>
</trkpt>
<trkpt lat="33.8097799" lon="-118.3944318">
  <ele>-50.018</ele>
  <time>2026-09-01T01:14:07Z</time>
  <course>273.62</course>
  <speed>0.34058772731852804</speed>
  <fix>3d</fix>
</trkpt>
<trkpt lat="33.8097797" lon="-118.3944311">
  <ele>-48.81</ele>
  <time>2026-09-01T01:14:07Z</time>
  <course>271.19</course>
  <speed>0.54</speed>
  <fix>3d</fix>
</trkpt>
<trkpt lat="33.8097799" lon="-118.3944322">
  <ele>-50.019</ele>
  <time>2026-09-01T01:14:07Z</time>
  <course>274.61</course>
  <speed>0.30066592756745814</speed>
  <fix>3d</fix>
</trkpt>
<trkpt lat="33.8097797" lon="-118.3944321">
  <ele>-48.81</ele>
  <time>2026-09-01T01:14:07Z</time>
  <course>271.67</course>
  <speed>0.41</speed>
  <fix>3d</fix>
</trkpt>
<trkpt lat="33.8097799" lon="-118.3944326">
  <ele>-50.02</ele>
  <time>2026-09-01T01:14:07Z</time>
  <course>275.59</course>
  <speed>0.2601922366251538</speed>
  <fix>3d</fix>
</trkpt>
<trkpt lat="33.8097797" lon="-118.3944321">
  <ele>-48.81</ele>
  <time>2026-09-01T01:14:07Z</time>
  <course>271.67</course>
  <speed>0.41</speed>
  <fix>3d</fix>
</trkpt>
<trkpt lat="33.8097799" lon="-118.3944329">
  <ele>-50.02</ele>
  <time>2026-09-01T01:14:07Z</time>
  <course>275.95</course>
  <speed>0.22090722034374521</speed>
  <fix>3d</fix>
</trkpt>
<trkpt lat="33.8097798" lon="-118.3944329">
  <ele>-48.81</ele>
  <time>2026-09-01T01:14:07Z</time>
  <course>272.12</course>
  <speed>0.31</speed>
  <fix>3d</fix>
</trkpt>
<trkpt lat="33.8097799" lon="-118.3944331">
  <ele>-50.02</ele>
  <time>2026-09-01T01:14:07Z</time>
  <course>275.82</course>
  <speed>0.18110770276274835</speed>
  <fix>3d</fix>
</trkpt>
<trkpt lat="33.8097798" lon="-118.3944329">
  <ele>-48.81</ele>
  <time>2026-09-01T01:14:07Z</time>
  <course>272.12</course>
  <speed>0.31</speed>
  <fix>3d</fix>
</trkpt>
<trkpt lat="33.8097799" lon="-118.3944334">
  <ele>-50.019</ele>
  <time>2026-09-01T01:14:07Z</time>
  <course>276.79</course>
  <speed>0.1414213562373095</speed>
  <fix>3d</fix>
</trkpt>
<trkpt lat="33.8097798" lon="-118.3944335">
  <ele>-48.81</ele>
  <time>2026-09-01T01:14:07Z</time>
  <course>272.99</course>
  <speed>0.23</speed>
  <fix>3d</fix>
</trkpt>
<trkpt lat="33.8097799" lon="-118.3944335">
  <ele>-50.017</ele>
  <time>2026-09-01T01:14:07Z</time>
  <course>279.21</course>
  <speed>0.1019803902718557</speed>
  <fix>3d</fix>
</trkpt>
<trkpt lat="33.8097798" lon="-118.3944335">
  <ele>-48.81</ele>
  <time>2026-09-01T01:14:07Z</time>
  <course>272.99</course>
  <speed>0.23</speed>
  <fix>3d</fix>
</trkpt>
<trkpt lat="33.8097799" lon="-118.3944337">
  <ele>-50.017</ele>
  <time>2026-09-01T01:14:07Z</time>
  <course>282.32</course>
  <speed>0.07280109889280519</speed>
  <fix>3d</fix>
</trkpt>
<trkpt lat="33.8097798" lon="-118.394434">
  <ele>-48.81</ele>
  <time>2026-09-01T01:14:07Z</time>
  <course>275.29</course>
  <speed>0.15</speed>
  <fix>3d</fix>
</trkpt>
<trkpt lat="33.8097799" lon="-118.3944338">
  <ele>-50.018</ele>
  <time>2026-09-01T01:14:07Z</time>
  <course>285.78</course>
  <speed>0.053851648071345036</speed>
  <fix>3d</fix>
</trkpt>
<trkpt lat="33.8097798" lon="-118.394434">
  <ele>-48.81</ele>
  <time>2026-09-01T01:14:07Z</time>
  <course>275.29</course>
  <speed>0.15</speed>
  <fix>3d</fix>
</trkpt>
<trkpt lat="33.8097799" lon="-118.3944339">
  <ele>-50.019</ele>
  <time>2026-09-01T01:14:07Z</time>
  <course>289.5</course>
  <speed>0.03605551275463989</speed>
  <fix>3d</fix>
</trkpt>
<trkpt lat="33.8097798" lon="-118.3944342">
  <ele>-48.81</ele>
  <time>2026-09-01T01:14:07Z</time>
  <course>279.41</course>
  <speed>0.08</speed>
  <fix>3d</fix>
</trkpt>
<trkpt lat="33.8097799" lon="-118.3944339">
  <ele>-50.021</ele>
  <time>2026-09-01T01:14:07Z</time>
  <course>293.42</course>
  <speed>0.022360679774997897</speed>
  <fix>3d</fix>
</trkpt>
<trkpt lat="33.8097798" lon="-118.3944342">
  <ele>-48.81</ele>
  <time>2026-09-01T01:14:07Z</time>
  <course>279.41</course>
  <speed>0.08</speed>
  <fix>3d</fix>
</trkpt>
<trkpt lat="33.8097799" lon="-118.394434">
  <ele>-50.023</ele>
  <time>2026-09-01T01:14:07Z</time>
  <course>297.51</course>
  <speed>0.04</speed>
  <fix>3d</fix>
</trkpt>
<trkpt lat="33.8097798" lon="-118.3944343">
  <ele>-48.81</ele>
  <time>2026-09-01T01:14:07Z</time>
  <course>292.77</course>
  <speed>0.04</speed>
  <fix>3d</fix>
</trkpt>
<trkpt lat="33.80978" lon="-118.394434">
  <ele>-50.023</ele>
  <time>2026-09-01T01:14:07Z</time>
  <course>301.76</course>
  <speed>0.07071067811865475</speed>
  <fix>3d</fix>
</trkpt>
<trkpt lat="33.8097798" lon="-118.3944343">
  <ele>-48.81</ele>
  <time>2026-09-01T01:14:07Z</time>
  <course>292.77</course>
  <speed>0.04</speed>
  <fix>3d</fix>
</trkpt>
<trkpt lat="33.80978" lon="-118.394434">
  <ele>-50.023</ele>
  <time>2026-09-01T01:14:07Z</time>
  <course>306.15</course>
  <speed>0.1118033988749895</speed>
  <fix>3d</fix>
</trkpt>
<trkpt lat="33.8097799" lon="-118.3944344">
  <ele>-48.81</ele>
  <time>2026-09-01T01:14:07Z</time>
  <course>347.26</course>
  <speed>0.04</speed>
  <fix>3d</fix>
</trkpt>
<trkpt lat="33.8097802" lon="-118.394434">
  <ele>-50.022</ele>
  <time>2026-09-01T01:14:07Z</time>
  <course>310.67</course>
  <speed>0.15297058540778355</speed>
  <fix>3d</fix>
</trkpt>
<trkpt lat="33.8097799" lon="-118.3944344">
  <ele>-48.81</ele>
  <time>2026-09-01T01:14:07Z</time>
  <course>347.26</course>
  <speed>0.04</speed>
  <fix>3d</fix>
</trkpt>
<trkpt lat="33.8097803" lon="-118.394434">
  <ele>-50.021</ele>
  <time>2026-09-01T01:14:07Z</time>
  <course>315.32</course>
  <speed>0.21213203435596426</speed>
  <fix>3d</fix>
</trkpt>
<trkpt lat="33.8097801" lon="-118.3944344">
  <ele>-48.81</ele>
  <time>2026-09-01T01:14:07Z</time>
  <course>4.56</course>
  <speed>0.11</speed>
  <fix>3d</fix>
</trkpt>
<trkpt lat="33.8097805" lon="-118.394434">
  <ele>-50.022</ele>
  <time>2026-09-01T01:14:07Z</time>
  <course>320.1</course>
  <speed>0.27166155414412246</speed>
  <fix>3d</fix>
</trkpt>
<trkpt lat="33.8097801" lon="-118.3944344">
  <ele>-48.81</ele>
  <time>2026-09-01T01:14:07Z</time>
  <course>4.56</course>
  <speed>0.11</speed>
  <fix>3d</fix>
</trkpt>
<trkpt lat="33.8097808" lon="-118.394434">
  <ele>-50.022</ele>
  <time>2026-09-01T01:14:07Z</time>
  <course>325.01</course>
  <speed>0.35128336140500593</speed>
  <fix>3d</fix>
</trkpt>
<trkpt lat="33.8097803" lon="-118.3944344">
  <ele>-48.81</ele>
  <time>2026-09-01T01:14:07Z</time>
  <course>4.91</course>
  <speed>0.22</speed>
  <fix>3d</fix>
</trkpt>
<trkpt lat="33.8097811" lon="-118.394434">
  <ele>-50.022</ele>
  <time>2026-09-01T01:14:07Z</time>
  <course>330.06</course>
  <speed>0.43185645763378366</speed>
  <fix>3d</fix>
</trkpt>
<trkpt lat="33.8097803" lon="-118.3944344">
  <ele>-48.81</ele>
  <time>2026-09-01T01:14:07Z</time>
  <course>4.91</course>
  <speed>0.22</speed>
  <fix>3d</fix>
</trkpt>
<trkpt lat="33.8097815" lon="-118.394434">
  <ele>-50.02</ele>
  <time>2026-09-01T01:14:07Z</time>
  <course>335.26</course>
  <speed>0.5015974481593781</speed>
  <fix>3d</fix>
</trkpt>
<trkpt lat="33.8097808" lon="-118.3944344">
  <ele>-48.8</ele>
  <time>2026-09-01T01:14:07Z</time>
  <course>3.78</course>
  <speed>0.36</speed>
  <fix>3d</fix>
</trkpt>
<trkpt lat="33.809782" lon="-118.394434">
  <ele>-50.019</ele>
  <time>2026-09-01T01:14:07Z</time>
  <course>340.63</course>
  <speed>0.5821511831131153</speed>
  <fix>3d</fix>
</trkpt>
<trkpt lat="33.8097808" lon="-118.3944344">
  <ele>-48.8</ele>
  <time>2026-09-01T01:14:07Z</time>
  <course>3.78</course>
  <speed>0.36</speed>
  <fix>3d</fix>
</trkpt>
<trkpt lat="33.8097825" lon="-118.394434">
  <ele>-50.018</ele>
  <time>2026-09-01T01:14:07Z</time>
  <course>346.17</course>
  <speed>0.6519202405202649</speed>
  <fix>3d</fix>
</trkpt>
<trkpt lat="33.8097817" lon="-118.3944344">
  <ele>-48.8</ele>
  <time>2026-09-01T01:14:07Z</time>
  <course>3.2</course>
  <speed>0.51</speed>
  <fix>3d</fix>
</trkpt>
<trkpt lat="33.8097831" lon="-118.394434">
  <ele>-50.018</ele>
  <time>2026-09-01T01:14:07Z</time>
  <course>351.9</course>
  <speed>0.70178344238091</speed>
  <fix>3d</fix>
</trkpt>
<trkpt lat="33.8097817" lon="-118.3944344">
  <ele>-48.8</ele>
  <time>2026-09-01T01:14:07Z</time>
  <course>3.2</course>
  <speed>0.51</speed>
  <fix>3d</fix>
</trkpt>
<trkpt lat="33.8097837" lon="-118.394434">
  <ele>-50.018</ele>
  <time>2026-09-01T01:14:07Z</time>
  <course>357.63</course>
  <speed>0.7317103251970687</speed>
  <fix>3d</fix>
</trkpt>
<trkpt lat="33.8097827" lon="-118.3944343">
  <ele>-48.8</ele>
  <time>2026-09-01T01:14:07Z</time>
  <course>2.93</course>
  <speed>0.65</speed>
  <fix>3d</fix>
</trkpt>
<trkpt lat="33.8097844" lon="-118.3944339">
  <ele>-50.017</ele>
  <time>2026-09-01T01:14:07Z</time>
  <course>3.09</course>
  <speed>0.7510659092250159</speed>
  <fix>3d</fix>
</trkpt>
<trkpt lat="33.8097827" lon="-118.3944343">
  <ele>-48.8</ele>
  <time>2026-09-01T01:14:07Z</time>
  <course>2.93</course>
  <speed>0.65</speed>
  <fix>3d</fix>
</trkpt>
<trkpt lat="33.809785" lon="-118.3944339">
  <ele>-50.017</ele>
  <time>2026-09-01T01:14:07Z</time>
  <course>7.85</course>
  <speed>0.7702596964660685</speed>
  <fix>3d</fix>
</trkpt>
<trkpt lat="33.8097839" lon="-118.3944342">
  <ele>-48.8</ele>
  <time>2026-09-01T01:14:07Z</time>
  <course>2.12</course>
  <speed>0.72</speed>
  <fix>3d</fix>
</trkpt>
<trkpt lat="33.8097857" lon="-118.3944339">
  <ele>-50.017</ele>
  <time>2026-09-01T01:14:07Z</time>
  <course>11.86</course>
  <speed>0.8000624975587844</speed>
  <fix>3d</fix>
</trkpt>
<trkpt lat="33.8097839" lon="-118.3944342">
  <ele>-48.8</ele>
  <time>2026-09-01T01:14:07Z</time>
  <course>2.12</course>
  <speed>0.72</speed>
  <fix>3d</fix>
</trkpt>
<trkpt lat="33.8097864" lon="-118.394434">
  <ele>-50.017</ele>
  <time>2026-09-01T01:14:07Z</time>
  <course>15.26</course>
  <speed>0.82</speed>
  <fix>3d</fix>
</trkpt>
<trkpt lat="33.8097853" lon="-118.3944342">
  <ele>-48.8</ele>
  <time>2026-09-01T01:14:07Z</time>
  <course>0.33</course>
  <speed>0.77</speed>
  <fix>3d</fix>
</trkpt>
<trkpt lat="33.8097872" lon="-118.394434">
  <ele>-50.017</ele>
  <time>2026-09-01T01:14:07Z</time>
  <course>18.13</course>
  <speed>0.85</speed>
  <fix>3d</fix>
</trkpt>
<trkpt lat="33.8097853" lon="-118.3944342">
  <ele>-48.8</ele>
  <time>2026-09-01T01:14:07Z</time>
  <course>0.33</course>
  <speed>0.77</speed>
  <fix>3d</fix>
</trkpt>
<trkpt lat="33.8097879" lon="-118.394434">
  <ele>-50.017</ele>
  <time>2026-09-01T01:14:07Z</time>
  <course>20.36</course>
  <speed>0.86</speed>
  <fix>3d</fix>
</trkpt>
<trkpt lat="33.8097867" lon="-118.3944342">
  <ele>-48.8</ele>
  <time>2026-09-01T01:14:07Z</time>
  <course>358.79</course>
  <speed>0.82</speed>
  <fix>3d</fix>
</trkpt>
<trkpt lat="33.8097887" lon="-118.394434">
  <ele>-50.017</ele>
  <time>2026-09-01T01:14:07Z</time>
  <course>21.77</course>
  <speed>0.88</speed>
  <fix>3d</fix>
</trkpt>
<trkpt lat="33.8097867" lon="-118.3944342">
  <ele>-48.8</ele>
  <time>2026-09-01T01:14:07Z</time>
  <course>358.79</course>
  <speed>0.82</speed>
  <fix>3d</fix>
</trkpt>
<trkpt lat="33.8097895" lon="-118.394434">
  <ele>-50.016</ele>
  <time>2026-09-01T01:14:07Z</time>
  <course>22.5</course>
  <speed>0.89</speed>
  <fix>3d</fix>
</trkpt>
<trkpt lat="33.8097882" lon="-118.3944342">
  <ele>-48.8</ele>
  <time>2026-09-01T01:14:07Z</time>
  <course>358.37</course>
  <speed>0.86</speed>
  <fix>3d</fix>
</trkpt>
<trkpt lat="33.8097903" lon="-118.394434">
  <ele>-50.014</ele>
  <time>2026-09-01T01:14:07Z</time>
  <course>22.81</course>
  <speed>0.9</speed>
  <fix>3d</fix>
</trkpt>
<trkpt lat="33.8097882" lon="-118.3944342">
  <ele>-48.8</ele>
  <time>2026-09-01T01:14:07Z</time>
  <course>358.37</course>
  <speed>0.86</speed>
  <fix>3d</fix>
</trkpt>
<trkpt lat="33.8097911" lon="-118.394434">
  <ele>-50.012</ele>
  <time>2026-09-01T01:14:07Z</time>
  <course>22.93</course>
  <speed>0.9</speed>
  <fix>3d</fix>
</trkpt>
<trkpt lat="33.8097899" lon="-118.3944342">
  <ele>-48.8</ele>
  <time>2026-09-01T01:14:07Z</time>
  <course>358.65</course>
  <speed>0.89</speed>
  <fix>3d</fix>
</trkpt>
<trkpt lat="33.8097919" lon="-118.394434">
  <ele>-50.012</ele>
  <time>2026-09-01T01:14:07Z</time>
  <course>22.96</course>
  <speed>0.9100549433962765</speed>
  <fix>3d</fix>
</trkpt>
<trkpt lat="33.8097899" lon="-118.3944342">
  <ele>-48.8</ele>
  <time>2026-09-01T01:14:07Z</time>
  <course>358.65</course>
  <speed>0.89</speed>
  <fix>3d</fix>
</trkpt>
<trkpt lat="33.8097927" lon="-118.394434">
  <ele>-50.013</ele>
  <time>2026-09-01T01:14:07Z</time>
  <course>22.99</course>
  <speed>0.9100549433962765</speed>
  <fix>3d</fix>
</trkpt>
<trkpt lat="33.8097915" lon="-118.3944343">
  <ele>-48.81</ele>
  <time>2026-09-01T01:14:07Z</time>
  <course>359.13</course>
  <speed>0.91</speed>
  <fix>3d</fix>
</trkpt>
<trkpt lat="33.8097935" lon="-118.394434">
  <ele>-50.015</ele>
  <time>2026-09-01T01:14:07Z</time>
  <course>23.04</course>
  <speed>0.9100549433962765</speed>
  <fix>3d</fix>
</trkpt>
<trkpt lat="33.8097915" lon="-118.3944343">
  <ele>-48.81</ele>
  <time>2026-09-01T01:14:07Z</time>
  <course>359.13</course>
  <speed>0.91</speed>
  <fix>3d</fix>
</trkpt>
<trkpt lat="33.8097943" lon="-118.394434">
  <ele>-50.018</ele>
  <time>2026-09-01T01:14:07Z</time>
  <course>23.1</course>
  <speed>0.900222194794152</speed>
  <fix>3d</fix>
</trkpt>
<trkpt lat="33.8097931" lon="-118.3944343">
  <ele>-48.81</ele>
  <time>2026-09-01T01:14:07Z</time>
  <course>359.64</course>
  <speed>0.91</speed>
  <fix>3d</fix>
</trkpt>
<trkpt lat="33.8097951" lon="-118.394434">
  <ele>-50.022</ele>
  <time>2026-09-01T01:14:07Z</time>
  <course>23.17</course>
  <speed>0.900222194794152</speed>
  <fix>3d</fix>
</trkpt>
<trkpt lat="33.8097931" lon="-118.3944343">
  <ele>-48.81</ele>
  <time>2026-09-01T01:14:07Z</time>
  <course>359.64</course>
  <speed>0.91</speed>
  <fix>3d</fix>
</trkpt>
<trkpt lat="33.8097959" lon="-118.394434">
  <ele>-50.025</ele>
  <time>2026-09-01T01:14:07Z</time>
  <course>23.24</course>
  <speed>0.900222194794152</speed>
  <fix>3d</fix>
</trkpt>
<trkpt lat="33.8097948" lon="-118.3944343">
  <ele>-48.81</ele>
  <time>2026-09-01T01:14:07Z</time>
  <course>0.11</course>
  <speed>0.91</speed>
  <fix>3d</fix>
</trkpt>
<trkpt lat="33.8097967" lon="-118.394434">
  <ele>-50.027</ele>
  <time>2026-09-01T01:14:07Z</time>
  <course>23.31</course>
  <speed>0.8905054744357274</speed>
  <fix>3d</fix>
</trkpt>
<trkpt lat="33.8097948" lon="-118.3944343">
  <ele>-48.81</ele>
  <time>2026-09-01T01:14:07Z</time>
  <course>0.11</course>
  <speed>0.91</speed>
  <fix>3d</fix>
</trkpt>
<trkpt lat="33.8097975" lon="-118.394434">
  <ele>-50.028</ele>
  <time>2026-09-01T01:14:07Z</time>
  <course>23.37</course>
  <speed>0.8905054744357274</speed>
  <fix>3d</fix>
</trkpt>
<trkpt lat="33.8097964" lon="-118.3944343">
  <ele>-48.82</ele>
  <time>2026-09-01T01:14:07Z</time>
  <course>0.5</course>
  <speed>0.9</speed>
  <fix>3d</fix>
</trkpt>
<trkpt lat="33.8097983" lon="-118.394434">
  <ele>-50.03</ele>
  <time>2026-09-01T01:14:07Z</time>
  <course>23.42</course>
  <speed>0.8805112151472007</speed>
  <fix>3d</fix>
</trkpt>
<trkpt lat="33.8097964" lon="-118.3944343">
  <ele>-48.82</ele>
  <time>2026-09-01T01:14:07Z</time>
  <course>0.5</course>
  <speed>0.9</speed>
  <fix>3d</fix>
</trkpt>
<trkpt lat="33.8097991" lon="-118.394434">
  <ele>-50.03</ele>
  <time>2026-09-01T01:14:07Z</time>
  <course>23.47</course>
  <speed>0.8805112151472007</speed>
  <fix>3d</fix>
</trkpt>
<trkpt lat="33.809798" lon="-118.3944343">
  <ele>-48.82</ele>
  <time>2026-09-01T01:14:07Z</time>
  <course>0.83</course>
  <speed>0.9</speed>
  <fix>3d</fix>
</trkpt>
<trkpt lat="33.8097999" lon="-118.394434">
  <ele>-50.029</ele>
  <time>2026-09-01T01:14:07Z</time>
  <course>23.5</course>
  <speed>0.8705170877128146</speed>
  <fix>3d</fix>
</trkpt>
<trkpt lat="33.809798" lon="-118.3944343">
  <ele>-48.82</ele>
  <time>2026-09-01T01:14:07Z</time>
  <course>0.83</course>
  <speed>0.9</speed>
  <fix>3d</fix>
</trkpt>
<trkpt lat="33.8098007" lon="-118.394434">
  <ele>-50.027</ele>
  <time>2026-09-01T01:14:07Z</time>
  <course>23.53</course>
  <speed>0.8705170877128146</speed>
  <fix>3d</fix>
</trkpt>
<trkpt lat="33.8097997" lon="-118.3944343">
  <ele>-48.82</ele>
  <time>2026-09-01T01:14:07Z</time>
  <course>1.1</course>
  <speed>0.89</speed>
  <fix>3d</fix>
</trkpt>
<trkpt lat="33.8098015" lon="-118.394434">
  <ele>-50.024</ele>
  <time>2026-09-01T01:14:07Z</time>
  <course>23.54</course>
  <speed>0.8605230967266364</speed>
  <fix>3d</fix>
</trkpt>
<trkpt lat="33.8097997" lon="-118.3944343">
  <ele>-48.82</ele>
  <time>2026-09-01T01:14:07Z</time>
  <course>1.1</course>
  <speed>0.89</speed>
  <fix>3d</fix>
</trkpt>
<trkpt lat="33.8098023" lon="-118.394434">
  <ele>-50.02</ele>
  <time>2026-09-01T01:14:07Z</time>
  <course>23.56</course>
  <speed>0.8605230967266364</speed>
  <fix>3d</fix>
</trkpt>
<trkpt lat="33.8098013" lon="-118.3944343">
  <ele>-48.81</ele>
  <time>2026-09-01T01:14:07Z</time>
  <course>1.34</course>
  <speed>0.88</speed>
  <fix>3d</fix>
</trkpt>
<trkpt lat="33.8098031" lon="-118.394434">
  <ele>-50.015</ele>
  <time>2026-09-01T01:14:07Z</time>
  <course>23.58</course>
  <speed>0.8509406559801923</speed>
  <fix>3d</fix>
</trkpt>
<trkpt lat="33.8098013" lon="-118.3944343">
  <ele>-48.81</ele>
  <time>2026-09-01T01:14:07Z</time>
  <course>1.34</course>
  <speed>0.88</speed>
  <fix>3d</fix>
</trkpt>
<trkpt lat="33.8098038" lon="-118.394434">
  <ele>-50.013</ele>
  <time>2026-09-01T01:14:07Z</time>
  <course>23.59</course>
  <speed>0.8509406559801923</speed>
  <fix>3d</fix>
</trkpt>
<trkpt lat="33.8098028" lon="-118.3944342">
  <ele>-48.81</ele>
  <time>2026-09-01T01:14:07Z</time>
  <course>1.57</course>
  <speed>0.87</speed>
  <fix>3d</fix>
</trkpt>
<trkpt lat="33.8098046" lon="-118.394434">
  <ele>-50.013</ele>
  <time>2026-09-01T01:14:07Z</time>
  <course>23.59</course>
  <speed>0.8409518416651456</speed>
  <fix>3d</fix>
</trkpt>
<trkpt lat="33.8098028" lon="-118.3944342">
  <ele>-48.81</ele>
  <time>2026-09-01T01:14:07Z</time>
  <course>1.57</course>
  <speed>0.87</speed>
  <fix>3d</fix>
</trkpt>
<trkpt lat="33.8098054" lon="-118.394434">
  <ele>-50.013</ele>
  <time>2026-09-01T01:14:07Z</time>
  <course>23.57</course>
  <speed>0.8409518416651456</speed>
  <fix>3d</fix>
</trkpt>
<trkpt lat="33.8098044" lon="-118.3944342">
  <ele>-48.81</ele>
  <time>2026-09-01T01:14:07Z</time>
  <course>1.74</course>
  <speed>0.86</speed>
  <fix>3d</fix>
</trkpt>
<trkpt lat="33.8098061" lon="-118.3944339">
  <ele>-50.014</ele>
  <time>2026-09-01T01:14:07Z</time>
  <course>23.53</course>
  <speed>0.8309632964216891</speed>
  <fix>3d</fix>
</trkpt>
<trkpt lat="33.8098044" lon="-118.3944342">
  <ele>-48.81</ele>
  <time>2026-09-01T01:14:07Z</time>
  <course>1.74</course>
  <speed>0.86</speed>
  <fix>3d</fix>
</trkpt>
<trkpt lat="33.8098069" lon="-118.3944339">
  <ele>-50.014</ele>
  <time>2026-09-01T01:14:07Z</time>
  <course>23.48</course>
  <speed>0.8309632964216891</speed>
  <fix>3d</fix>
</trkpt>
<trkpt lat="33.8098059" lon="-118.3944341">
  <ele>-48.81</ele>
  <time>2026-09-01T01:14:07Z</time>
  <course>1.86</course>
  <speed>0.85</speed>
  <fix>3d</fix>
</trkpt>
<trkpt lat="33.8098077" lon="-118.3944339">
  <ele>-50.015</ele>
  <time>2026-09-01T01:14:07Z</time>
  <course>23.4</course>
  <speed>0.8209750300709517</speed>
  <fix>3d</fix>
</trkpt>
<trkpt lat="33.8098059" lon="-118.3944341">
  <ele>-48.81</ele>
  <time>2026-09-01T01:14:07Z</time>
  <course>1.86</course>
  <speed>0.85</speed>
  <fix>3d</fix>
</trkpt>
<trkpt lat="33.8098084" lon="-118.3944339">
  <ele>-50.016</ele>
  <time>2026-09-01T01:14:07Z</time>
  <course>23.31</course>
  <speed>0.8205485969764374</speed>
  <fix>3d</fix>
</trkpt>
<trkpt lat="33.8098074" lon="-118.394434">
  <ele>-48.81</ele>
  <time>2026-09-01T01:14:07Z</time>
  <course>1.92</course>
  <speed>0.84</speed>
  <fix>3d</fix>
</trkpt>
<trkpt lat="33.8098091" lon="-118.3944339">
  <ele>-50.017</ele>
  <time>2026-09-01T01:14:07Z</time>
  <course>23.19</course>
  <speed>0.8205485969764374</speed>
  <fix>3d</fix>
</trkpt>
<trkpt lat="33.8098074" lon="-118.394434">
  <ele>-48.81</ele>
  <time>2026-09-01T01:14:07Z</time>
  <course>1.92</course>
  <speed>0.84</speed>
  <fix>3d</fix>
</trkpt>
<trkpt lat="33.8098099" lon="-118.3944338">
  <ele>-50.019</ele>
  <time>2026-09-01T01:14:07Z</time>
  <course>23.06</course>
  <speed>0.8205485969764374</speed>
  <fix>3d</fix>
</trkpt>
<trkpt lat="33.8098089" lon="-118.394434">
  <ele>-48.81</ele>
  <time>2026-09-01T01:14:07Z</time>
  <course>1.91</course>
  <speed>0.83</speed>
  <fix>3d</fix>
</trkpt>
<trkpt lat="33.8098106" lon="-118.3944338">
  <ele>-50.02</ele>
  <time>2026-09-01T01:14:07Z</time>
  <course>22.9</course>
  <speed>0.8105553651663777</speed>
  <fix>3d</fix>
</trkpt>
<trkpt lat="33.8098089" lon="-118.394434">
  <ele>-48.81</ele>
  <time>2026-09-01T01:14:07Z</time>
  <course>1.91</course>
  <speed>0.83</speed>
  <fix>3d</fix>
</trkpt>
<trkpt lat="33.8098114" lon="-118.3944338">
  <ele>-50.021</ele>
  <time>2026-09-01T01:14:07Z</time>
  <course>22.75</course>
  <speed>0.8105553651663777</speed>
  <fix>3d</fix>
</trkpt>
<trkpt lat="33.8098104" lon="-118.3944339">
  <ele>-48.82</ele>
  <time>2026-09-01T01:14:07Z</time>
  <course>1.86</course>
  <speed>0.83</speed>
  <fix>3d</fix>
</trkpt>
<trkpt lat="33.8098121" lon="-118.3944338">
  <ele>-50.022</ele>
  <time>2026-09-01T01:14:07Z</time>
  <course>22.58</course>
  <speed>0.8105553651663777</speed>
  <fix>3d</fix>
</trkpt>
<trkpt lat="33.8098104" lon="-118.3944339">
  <ele>-48.82</ele>
  <time>2026-09-01T01:14:07Z</time>
  <course>1.86</course>
  <speed>0.83</speed>
  <fix>3d</fix>
</trkpt>
<trkpt lat="33.8098129" lon="-118.3944337">
  <ele>-50.022</ele>
  <time>2026-09-01T01:14:07Z</time>
  <course>22.4</course>
  <speed>0.8105553651663777</speed>
  <fix>3d</fix>
</trkpt>
<trkpt lat="33.8098119" lon="-118.3944339">
  <ele>-48.82</ele>
  <time>2026-09-01T01:14:07Z</time>
  <course>1.79</course>
  <speed>0.83</speed>
  <fix>3d</fix>
</trkpt>
<trkpt lat="33.8098136" lon="-118.3944337">
  <ele>-50.024</ele>
  <time>2026-09-01T01:14:07Z</time>
  <course>22.22</course>
  <speed>0.8105553651663777</speed>
  <fix>3d</fix>
</trkpt>
<trkpt lat="33.8098119" lon="-118.3944339">
  <ele>-48.82</ele>
  <time>2026-09-01T01:14:07Z</time>
  <course>1.79</course>
  <speed>0.83</speed>
  <fix>3d</fix>
</trkpt>
<trkpt lat="33.8098143" lon="-118.3944337">
  <ele>-50.025</ele>
  <time>2026-09-01T01:14:07Z</time>
  <course>22.04</course>
  <speed>0.8005623023850174</speed>
  <fix>3d</fix>
</trkpt>
<trkpt lat="33.8098134" lon="-118.3944338">
  <ele>-48.82</ele>
  <time>2026-09-01T01:14:07Z</time>
  <course>1.72</course>
  <speed>0.82</speed>
  <fix>3d</fix>
</trkpt>
<trkpt lat="33.8098151" lon="-118.3944337">
  <ele>-50.025</ele>
  <time>2026-09-01T01:14:07Z</time>
  <course>21.86</course>
  <speed>0.8005623023850174</speed>
  <fix>3d</fix>
</trkpt>
<trkpt lat="33.8098134" lon="-118.3944338">
  <ele>-48.82</ele>
  <time>2026-09-01T01:14:07Z</time>
  <course>1.72</course>
  <speed>0.82</speed>
  <fix>3d</fix>
</trkpt>
<trkpt lat="33.8098158" lon="-118.3944337">
  <ele>-50.025</ele>
  <time>2026-09-01T01:14:07Z</time>
  <course>21.68</course>
  <speed>0.8005623023850174</speed>
  <fix>3d</fix>
</trkpt>
<trkpt lat="33.8098149" lon="-118.3944338">
  <ele>-48.82</ele>
  <time>2026-09-01T01:14:07Z</time>
  <course>1.66</course>
  <speed>0.82</speed>
  <fix>3d</fix>
</trkpt>
<trkpt lat="33.8098165" lon="-118.3944336">
  <ele>-50.025</ele>
  <time>2026-09-01T01:14:07Z</time>
  <course>21.5</course>
  <speed>0.8005623023850174</speed>
  <fix>3d</fix>
</trkpt>
<trkpt lat="33.8098149" lon="-118.3944338">
  <ele>-48.82</ele>
  <time>2026-09-01T01:14:07Z</time>
  <course>1.66</course>
  <speed>0.82</speed>
  <fix>3d</fix>
</trkpt>
<trkpt lat="33.8098173" lon="-118.3944336">
  <ele>-50.025</ele>
  <time>2026-09-01T01:14:07Z</time>
  <course>21.32</course>
  <speed>0.8005623023850174</speed>
  <fix>3d</fix>
</trkpt>
<trkpt lat="33.8098164" lon="-118.3944337">
  <ele>-48.81</ele>
  <time>2026-09-01T01:14:07Z</time>
  <course>1.61</course>
  <speed>0.82</speed>
  <fix>3d</fix>
</trkpt>
<trkpt lat="33.809818" lon="-118.3944336">
  <ele>-50.024</ele>
  <time>2026-09-01T01:14:07Z</time>
  <course>21.13</course>
  <speed>0.8005623023850174</speed>
  <fix>3d</fix>
</trkpt>
<trkpt lat="33.8098164" lon="-118.3944337">
  <ele>-48.81</ele>
  <time>2026-09-01T01:14:07Z</time>
  <course>1.61</course>
  <speed>0.82</speed>
  <fix>3d</fix>
</trkpt>
<trkpt lat="33.8098187" lon="-118.3944336">
  <ele>-50.022</ele>
  <time>2026-09-01T01:14:07Z</time>
  <course>20.94</course>
  <speed>0.8002499609497022</speed>
  <fix>3d</fix>
</trkpt>
<trkpt lat="33.8098179" lon="-118.3944337">
  <ele>-48.81</ele>
  <time>2026-09-01T01:14:07Z</time>
  <course>1.55</course>
  <speed>0.82</speed>
  <fix>3d</fix>
</trkpt>
<trkpt lat="33.8098195" lon="-118.3944336">
  <ele>-50.021</ele>
  <time>2026-09-01T01:14:07Z</time>
  <course>20.74</course>
  <speed>0.8002499609497022</speed>
  <fix>3d</fix>
</trkpt>
<trkpt lat="33.8098179" lon="-118.3944337">
  <ele>-48.81</ele>
  <time>2026-09-01T01:14:07Z</time>
  <course>1.55</course>
  <speed>0.82</speed>
  <fix>3d</fix>
</trkpt>
<trkpt lat="33.8098202" lon="-118.3944335">
  <ele>-50.019</ele>
  <time>2026-09-01T01:14:07Z</time>
  <course>20.55</course>
  <speed>0.8002499609497022</speed>
  <fix>3d</fix>
</trkpt>
<trkpt lat="33.8098193" lon="-118.3944336">
  <ele>-48.8</ele>
  <time>2026-09-01T01:14:07Z</time>
  <course>1.47</course>
  <speed>0.82</speed>
  <fix>3d</fix>
</trkpt>
<trkpt lat="33.8098209" lon="-118.3944335">
  <ele>-50.017</ele>
  <time>2026-09-01T01:14:07Z</time>
  <course>20.35</course>
  <speed>0.7902531240052139</speed>
  <fix>3d</fix>
</trkpt>
<trkpt lat="33.8098193" lon="-118.3944336">
  <ele>-48.8</ele>
  <time>2026-09-01T01:14:07Z</time>
  <course>1.47</course>
  <speed>0.82</speed>
  <fix>3d</fix>
</trkpt>
<trkpt lat="33.8098217" lon="-118.3944335">
  <ele>-50.015</ele>
  <time>2026-09-01T01:14:07Z</time>
  <course>20.14</course>
  <speed>0.7902531240052139</speed>
  <fix>3d</fix>
</trkpt>
<trkpt lat="33.8098208" lon="-118.3944336">
  <ele>-48.8</ele>
  <time>2026-09-01T01:14:07Z</time>
  <course>1.4</course>
  <speed>0.82</speed>
  <fix>3d</fix>
</trkpt>
<trkpt lat="33.8098224" lon="-118.3944335">
  <ele>-50.013</ele>
  <time>2026-09-01T01:14:07Z</time>
  <course>19.93</course>
  <speed>0.7902531240052139</speed>
  <fix>3d</fix>
</trkpt>
<trkpt lat="33.8098208" lon="-118.3944336">
  <ele>-48.8</ele>
  <time>2026-09-01T01:14:07Z</time>
  <course>1.4</course>
  <speed>0.82</speed>
  <fix>3d</fix>
</trkpt>
<trkpt lat="33.8098231" lon="-118.3944335">
  <ele>-50.012</ele>
  <time>2026-09-01T01:14:07Z</time>
  <course>19.72</course>
  <speed>0.8002499609497022</speed>
  <fix>3d</fix>
</trkpt>
<trkpt lat="33.8098223" lon="-118.3944335">
  <ele>-48.8</ele>
  <time>2026-09-01T01:14:07Z</time>
  <course>1.32</course>
  <speed>0.82</speed>
  <fix>3d</fix>
</trkpt>
<trkpt lat="33.8098238" lon="-118.3944334">
  <ele>-50.012</ele>
  <time>2026-09-01T01:14:07Z</time>
  <course>19.51</course>
  <speed>0.7902531240052139</speed>
  <fix>3d</fix>
</trkpt>
<trkpt lat="33.8098223" lon="-118.3944335">
  <ele>-48.8</ele>
  <time>2026-09-01T01:14:07Z</time>
  <course>1.32</course>
  <speed>0.82</speed>
  <fix>3d</fix>
</trkpt>
<trkpt lat="33.8098246" lon="-118.3944334">
  <ele>-50.014</ele>
  <time>2026-09-01T01:14:07Z</time>
  <course>19.31</course>
  <speed>0.7902531240052139</speed>
  <fix>3d</fix>
</trkpt>
<trkpt lat="33.8098237" lon="-118.3944335">
  <ele>-48.8</ele>
  <time>2026-09-01T01:14:07Z</time>
  <course>1.24</course>
  <speed>0.82</speed>
  <fix>3d</fix>
</trkpt>
<trkpt lat="33.8098253" lon="-118.3944334">
  <ele>-50.017</ele>
  <time>2026-09-01T01:14:07Z</time>
  <course>19.09</course>
  <speed>0.7902531240052139</speed>
  <fix>3d</fix>
</trkpt>
<trkpt lat="33.8098237" lon="-118.3944335">
  <ele>-48.8</ele>
  <time>2026-09-01T01:14:07Z</time>
  <course>1.24</course>
  <speed>0.82</speed>
  <fix>3d</fix>
</trkpt>
<trkpt lat="33.809826" lon="-118.3944334">
  <ele>-50.019</ele>
  <time>2026-09-01T01:14:07Z</time>
  <course>18.89</course>
  <speed>0.7902531240052139</speed>
  <fix>3d</fix>
</trkpt>
<trkpt lat="33.8098252" lon="-118.3944335">
  <ele>-48.81</ele>
  <time>2026-09-01T01:14:07Z</time>
  <course>1.15</course>
  <speed>0.82</speed>
  <fix>3d</fix>
</trkpt>
<trkpt lat="33.8098268" lon="-118.3944334">
  <ele>-50.021</ele>
  <time>2026-09-01T01:14:07Z</time>
  <course>18.68</course>
  <speed>0.7902531240052139</speed>
  <fix>3d</fix>
</trkpt>
<trkpt lat="33.8098252" lon="-118.3944335">
  <ele>-48.81</ele>
  <time>2026-09-01T01:14:07Z</time>
  <course>1.15</course>
  <speed>0.82</speed>
  <fix>3d</fix>
</trkpt>
<trkpt lat="33.8098275" lon="-118.3944334">
  <ele>-50.022</ele>
  <time>2026-09-01T01:14:07Z</time>
  <course>18.49</course>
  <speed>0.7902531240052139</speed>
  <fix>3d</fix>
</trkpt>
<trkpt lat="33.8098267" lon="-118.3944334">
  <ele>-48.81</ele>
  <time>2026-09-01T01:14:07Z</time>
  <course>1.09</course>
  <speed>0.82</speed>
  <fix>3d</fix>
</trkpt>
<trkpt lat="33.8098282" lon="-118.3944333">
  <ele>-50.022</ele>
  <time>2026-09-01T01:14:07Z</time>
  <course>18.31</course>
  <speed>0.7902531240052139</speed>
  <fix>3d</fix>
</trkpt>
<trkpt lat="33.8098267" lon="-118.3944334">
  <ele>-48.81</ele>
  <time>2026-09-01T01:14:07Z</time>
  <course>1.09</course>
  <speed>0.82</speed>
  <fix>3d</fix>
</trkpt>
<trkpt lat="33.809829" lon="-118.3944333">
  <ele>-50.021</ele>
  <time>2026-09-01T01:14:07Z</time>
  <course>18.12</course>
  <speed>0.7902531240052139</speed>
  <fix>3d</fix>
</trkpt>
<trkpt lat="33.8098282" lon="-118.3944334">
  <ele>-48.81</ele>
  <time>2026-09-01T01:14:07Z</time>
  <course>1.05</course>
  <speed>0.82</speed>
  <fix>3d</fix>
</trkpt>
<trkpt lat="33.8098297" lon="-118.3944333">
  <ele>-50.02</ele>
  <time>2026-09-01T01:14:07Z</time>
  <course>17.92</course>
  <speed>0.7902531240052139</speed>
  <fix>3d</fix>
</trkpt>
<trkpt lat="33.8098282" lon="-118.3944334">
  <ele>-48.81</ele>
  <time>2026-09-01T01:14:07Z</time>
  <course>1.05</course>
  <speed>0.82</speed>
  <fix>3d</fix>
</trkpt>
<trkpt lat="33.8098304" lon="-118.3944333">
  <ele>-50.019</ele>
  <time>2026-09-01T01:14:07Z</time>
  <course>17.74</course>
  <speed>0.7902531240052139</speed>
  <fix>3d</fix>
</trkpt>
<trkpt lat="33.8098297" lon="-118.3944334">
  <ele>-48.81</ele>
  <time>2026-09-01T01:14:07Z</time>
  <course>1.01</course>
  <speed>0.82</speed>
  <fix>3d</fix>
</trkpt>
<trkpt lat="33.8098312" lon="-118.3944333">
  <ele>-50.018</ele>
  <time>2026-09-01T01:14:07Z</time>
  <course>17.56</course>
  <speed>0.7902531240052139</speed>
  <fix>3d</fix>
</trkpt>
<trkpt lat="33.8098297" lon="-118.3944334">
  <ele>-48.81</ele>
  <time>2026-09-01T01:14:07Z</time>
  <course>1.01</course>
  <speed>0.82</speed>
  <fix>3d</fix>
</trkpt>
<trkpt lat="33.8098319" lon="-118.3944333">
  <ele>-50.017</ele>
  <time>2026-09-01T01:14:07Z</time>
  <course>17.39</course>
  <speed>0.7902531240052139</speed>
  <fix>3d</fix>
</trkpt>
<trkpt lat="33.8098312" lon="-118.3944333">
  <ele>-48.81</ele>
  <time>2026-09-01T01:14:07Z</time>
  <course>0.97</course>
  <speed>0.82</speed>
  <fix>3d</fix>
</trkpt>
<trkpt lat="33.8098327" lon="-118.3944332">
  <ele>-50.018</ele>
  <time>2026-09-01T01:14:07Z</time>
  <course>17.22</course>
  <speed>0.7902531240052139</speed>
  <fix>3d</fix>
</trkpt>
<trkpt lat="33.8098312" lon="-118.3944333">
  <ele>-48.81</ele>
  <time>2026-09-01T01:14:07Z</time>
  <course>0.97</course>
  <speed>0.82</speed>
  <fix>3d</fix>
</trkpt>
<trkpt lat="33.8098334" lon="-118.3944332">
  <ele>-50.019</ele>
  <time>2026-09-01T01:14:07Z</time>
  <course>17.05</course>
  <speed>0.7902531240052139</speed>
  <fix>3d</fix>
</trkpt>
<trkpt lat="33.8098327" lon="-118.3944333">
  <ele>-48.81</ele>
  <time>2026-09-01T01:14:07Z</time>
  <course>0.92</course>
  <speed>0.82</speed>
  <fix>3d</fix>
</trkpt>
<trkpt lat="33.8098342" lon="-118.3944332">
  <ele>-50.021</ele>
  <time>2026-09-01T01:14:07Z</time>
  <course>16.87</course>
  <speed>0.7902531240052139</speed>
  <fix>3d</fix>
</trkpt>
<trkpt lat="33.8098327" lon="-118.3944333">
  <ele>-48.81</ele>
  <time>2026-09-01T01:14:07Z</time>
  <course>0.92</course>
  <speed>0.82</speed>
  <fix>3d</fix>
</trkpt>
<trkpt lat="33.8098349" lon="-118.3944332">
  <ele>-50.022</ele>
  <time>2026-09-01T01:14:07Z</time>
  <course>16.69</course>
  <speed>0.7902531240052139</speed>
  <fix>3d</fix>
</trkpt>
<trkpt lat="33.8098342" lon="-118.3944333">
  <ele>-48.81</ele>
  <time>2026-09-01T01:14:07Z</time>
  <course>0.86</course>
  <speed>0.82</speed>
  <fix>3d</fix>
</trkpt>
<trkpt lat="33.8098356" lon="-118.3944332">
  <ele>-50.022</ele>
  <time>2026-09-01T01:14:07Z</time>
  <course>16.51</course>
  <speed>0.7902531240052139</speed>
  <fix>3d</fix>
</trkpt>
<trkpt lat="33.8098342" lon="-118.3944333">
  <ele>-48.81</ele>
  <time>2026-09-01T01:14:07Z</time>
  <course>0.86</course>
  <speed>0.82</speed>
  <fix>3d</fix>
</trkpt>
<trkpt lat="33.8098364" lon="-118.3944332">
  <ele>-50.021</ele>
  <time>2026-09-01T01:14:07Z</time>
  <course>16.35</course>
  <speed>0.7902531240052139</speed>
  <fix>3d</fix>
</trkpt>
<trkpt lat="33.8098357" lon="-118.3944333">
  <ele>-48.81</ele>
  <time>2026-09-01T01:14:07Z</time>
  <course>0.81</course>
  <speed>0.82</speed>
  <fix>3d</fix>
</trkpt>
<trkpt lat="33.8098371" lon="-118.3944332">
  <ele>-50.019</ele>
  <time>2026-09-01T01:14:07Z</time>
  <course>16.19</course>
  <speed>0.7902531240052139</speed>
  <fix>3d</fix>
</trkpt>
<trkpt lat="33.8098357" lon="-118.3944333">
  <ele>-48.81</ele>
  <time>2026-09-01T01:14:07Z</time>
  <course>0.81</course>
  <speed>0.82</speed>
  <fix>3d</fix>
</trkpt>
<trkpt lat="33.8098379" lon="-118.3944332">
  <ele>-50.018</ele>
  <time>2026-09-01T01:14:07Z</time>
  <course>16.04</course>
  <speed>0.7902531240052139</speed>
  <fix>3d</fix>
</trkpt>
<trkpt lat="33.8098371" lon="-118.3944332">
  <ele>-48.81</ele>
  <time>2026-09-01T01:14:07Z</time>
  <course>0.8</course>
  <speed>0.83</speed>
  <fix>3d</fix>
</trkpt>
<trkpt lat="33.8098386" lon="-118.3944331">
  <ele>-50.018</ele>
  <time>2026-09-01T01:14:07Z</time>
  <course>15.88</course>
  <speed>0.7902531240052139</speed>
  <fix>3d</fix>
</trkpt>
<trkpt lat="33.8098371" lon="-118.3944332">
  <ele>-48.81</ele>
  <time>2026-09-01T01:14:07Z</time>
  <course>0.8</course>
  <speed>0.83</speed>
  <fix>3d</fix>
</trkpt>
<trkpt lat="33.8098394" lon="-118.3944331">
  <ele>-50.018</ele>
  <time>2026-09-01T01:14:07Z</time>
  <course>15.71</course>
  <speed>0.8002499609497022</speed>
  <fix>3d</fix>
</trkpt>
<trkpt lat="33.8098386" lon="-118.3944332">
  <ele>-48.81</ele>
  <time>2026-09-01T01:14:07Z</time>
  <course>0.78</course>
  <speed>0.83</speed>
  <fix>3d</fix>
</trkpt>
<trkpt lat="33.8098401" lon="-118.3944331">
  <ele>-50.018</ele>
  <time>2026-09-01T01:14:07Z</time>
  <course>15.53</course>
  <speed>0.8002499609497022</speed>
  <fix>3d</fix>
</trkpt>
<trkpt lat="33.8098386" lon="-118.3944332">
  <ele>-48.81</ele>
  <time>2026-09-01T01:14:07Z</time>
  <course>0.78</course>
  <speed>0.83</speed>
  <fix>3d</fix>
</trkpt>
<trkpt lat="33.8098408" lon="-118.3944331">
  <ele>-50.019</ele>
  <time>2026-09-01T01:14:07Z</time>
  <course>15.36</course>
  <speed>0.8002499609497022</speed>
  <fix>3d</fix>
</trkpt>
<trkpt lat="33.8098401" lon="-118.3944332">
  <ele>-48.81</ele>
  <time>2026-09-01T01:14:07Z</time>
  <course>0.74</course>
  <speed>0.83</speed>
  <fix>3d</fix>
</trkpt>
<trkpt lat="33.8098416" lon="-118.3944331">
  <ele>-50.02</ele>
  <time>2026-09-01T01:14:07Z</time>
  <course>15.18</course>
  <speed>0.8002499609497022</speed>
  <fix>3d</fix>
</trkpt>
<trkpt lat="33.8098401" lon="-118.3944332">
  <ele>-48.81</ele>
  <time>2026-09-01T01:14:07Z</time>
  <course>0.74</course>
  <speed>0.83</speed>
  <fix>3d</fix>
</trkpt>
<trkpt lat="33.8098423" lon="-118.3944331">
  <ele>-50.021</ele>
  <time>2026-09-01T01:14:07Z</time>
  <course>15.01</course>
  <speed>0.8002499609497022</speed>
  <fix>3d</fix>
</trkpt>
<trkpt lat="33.8098416" lon="-118.3944332">
  <ele>-48.81</ele>
  <time>2026-09-01T01:14:07Z</time>
  <course>0.69</course>
  <speed>0.83</speed>
  <fix>3d</fix>
</trkpt>
<trkpt lat="33.8098431" lon="-118.3944331">
  <ele>-50.023</ele>
  <time>2026-09-01T01:14:07Z</time>
  <course>14.84</course>
  <speed>0.8002499609497022</speed>
  <fix>3d</fix>
</trkpt>
<trkpt lat="33.8098416" lon="-118.3944332">
  <ele>-48.81</ele>
  <time>2026-09-01T01:14:07Z</time>
  <course>0.69</course>
  <speed>0.83</speed>
  <fix>3d</fix>
</trkpt>
<trkpt lat="33.8098438" lon="-118.3944331">
  <ele>-50.024</ele>
  <time>2026-09-01T01:14:07Z</time>
  <course>14.69</course>
  <speed>0.8002499609497022</speed>
  <fix>3d</fix>
</trkpt>
<trkpt lat="33.8098431" lon="-118.3944331">
  <ele>-48.82</ele>
  <time>2026-09-01T01:14:07Z</time>
  <course>0.69</course>
  <speed>0.83</speed>
  <fix>3d</fix>
</trkpt>
<trkpt lat="33.8098446" lon="-118.394433">
  <ele>-50.025</ele>
  <time>2026-09-01T01:14:07Z</time>
  <course>14.54</course>
  <speed>0.8002499609497022</speed>
  <fix>3d</fix>
</trkpt>
<trkpt lat="33.8098431" lon="-118.3944331">
  <ele>-48.82</ele>
  <time>2026-09-01T01:14:07Z</time>
  <course>0.69</course>
  <speed>0.83</speed>
  <fix>3d</fix>
</trkpt>
<trkpt lat="33.8098453" lon="-118.394433">
  <ele>-50.025</ele>
  <time>2026-09-01T01:14:07Z</time>
  <course>14.37</course>
  <speed>0.8002499609497022</speed>
  <fix>3d</fix>
</trkpt>
<trkpt lat="33.8098447" lon="-118.3944331">
  <ele>-48.81</ele>
  <time>2026-09-01T01:14:07Z</time>
  <course>0.66</course>
  <speed>0.84</speed>
  <fix>3d</fix>
</trkpt>
<trkpt lat="33.8098461" lon="-118.394433">
  <ele>-50.023</ele>
  <time>2026-09-01T01:14:07Z</time>
  <course>14.21</course>
  <speed>0.8002499609497022</speed>
  <fix>3d</fix>
</trkpt>
<trkpt lat="33.8098447" lon="-118.3944331">
  <ele>-48.81</ele>
  <time>2026-09-01T01:14:07Z</time>
  <course>0.66</course>
  <speed>0.84</speed>
  <fix>3d</fix>
</trkpt>
<trkpt lat="33.8098469" lon="-118.394433">
  <ele>-50.021</ele>
  <time>2026-09-01T01:14:07Z</time>
  <course>14.04</course>
  <speed>0.8002499609497022</speed>
  <fix>3d</fix>
</trkpt>
<trkpt lat="33.8098462" lon="-118.3944331">
  <ele>-48.81</ele>
  <time>2026-09-01T01:14:07Z</time>
  <course>0.59</course>
  <speed>0.84</speed>
  <fix>3d</fix>
</trkpt>
<trkpt lat="33.8098476" lon="-118.394433">
  <ele>-50.019</ele>
  <time>2026-09-01T01:14:07Z</time>
  <course>13.88</course>
  <speed>0.8002499609497022</speed>
  <fix>3d</fix>
</trkpt>
<trkpt lat="33.8098462" lon="-118.3944331">
  <ele>-48.81</ele>
  <time>2026-09-01T01:14:07Z</time>
  <course>0.59</course>
  <speed>0.84</speed>
  <fix>3d</fix>
</trkpt>
<trkpt lat="33.8098484" lon="-118.394433">
  <ele>-50.018</ele>
  <time>2026-09-01T01:14:07Z</time>
  <course>13.73</course>
  <speed>0.8002499609497022</speed>
  <fix>3d</fix>
</trkpt>
<trkpt lat="33.8098477" lon="-118.3944331">
  <ele>-48.81</ele>
  <time>2026-09-01T01:14:07Z</time>
  <course>0.56</course>
  <speed>0.84</speed>
  <fix>3d</fix>
</trkpt>
<trkpt lat="33.8098491" lon="-118.394433">
  <ele>-50.018</ele>
  <time>2026-09-01T01:14:07Z</time>
  <course>13.59</course>
  <speed>0.8002499609497022</speed>
  <fix>3d</fix>
</trkpt>
<trkpt lat="33.8098477" lon="-118.3944331">
  <ele>-48.81</ele>
  <time>2026-09-01T01:14:07Z</time>
  <course>0.56</course>
  <speed>0.84</speed>
  <fix>3d</fix>
</trkpt>
<trkpt lat="33.8098499" lon="-118.394433">
  <ele>-50.02</ele>
  <time>2026-09-01T01:14:07Z</time>
  <course>13.45</course>
  <speed>0.8002499609497022</speed>
  <fix>3d</fix>
</trkpt>
<trkpt lat="33.8098492" lon="-118.3944331">
  <ele>-48.81</ele>
  <time>2026-09-01T01:14:07Z</time>
  <course>0.55</course>
  <speed>0.84</speed>
  <fix>3d</fix>
</trkpt>
<trkpt lat="33.8098506" lon="-118.394433">
  <ele>-50.021</ele>
  <time>2026-09-01T01:14:07Z</time>
  <course>13.32</course>
  <speed>0.8002499609497022</speed>
  <fix>3d</fix>
</trkpt>
<trkpt lat="33.8098492" lon="-118.3944331">
  <ele>-48.81</ele>
  <time>2026-09-01T01:14:07Z</time>
  <course>0.55</course>
  <speed>0.84</speed>
  <fix>3d</fix>
</trkpt>
<trkpt lat="33.8098514" lon="-118.3944329">
  <ele>-50.021</ele>
  <time>2026-09-01T01:14:07Z</time>
  <course>13.19</course>
  <speed>0.8002499609497022</speed>
  <fix>3d</fix>
</trkpt>
<trkpt lat="33.8098507" lon="-118.394433">
  <ele>-48.81</ele>
  <time>2026-09-01T01:14:07Z</time>
  <course>0.57</course>
  <speed>0.84</speed>
  <fix>3d</fix>
</trkpt>
<trkpt lat="33.8098522" lon="-118.3944329">
  <ele>-50.021</ele>
  <time>2026-09-01T01:14:07Z</time>
  <course>13.06</course>
  <speed>0.8102468759581859</speed>
  <fix>3d</fix>
</trkpt>
<trkpt lat="33.8098507" lon="-118.394433">
  <ele>-48.81</ele>
  <time>2026-09-01T01:14:07Z</time>
  <course>0.57</course>
  <speed>0.84</speed>
  <fix>3d</fix>
</trkpt>
<trkpt lat="33.8098529" lon="-118.3944329">
  <ele>-50.021</ele>
  <time>2026-09-01T01:14:07Z</time>
  <course>12.91</course>
  <speed>0.8102468759581859</speed>
  <fix>3d</fix>
</trkpt>
<trkpt lat="33.8098522" lon="-118.394433">
  <ele>-48.81</ele>
  <time>2026-09-01T01:14:07Z</time>
  <course>0.56</course>
  <speed>0.84</speed>
  <fix>3d</fix>
</trkpt>
<trkpt lat="33.8098537" lon="-118.3944329">
  <ele>-50.02</ele>
  <time>2026-09-01T01:14:07Z</time>
  <course>12.76</course>
  <speed>0.8102468759581859</speed>
  <fix>3d</fix>
</trkpt>
<trkpt lat="33.8098522" lon="-118.394433">
  <ele>-48.81</ele>
  <time>2026-09-01T01:14:07Z</time>
  <course>0.56</course>
  <speed>0.84</speed>
  <fix>3d</fix>
</trkpt>
<trkpt lat="33.8098544" lon="-118.3944329">
  <ele>-50.02</ele>
  <time>2026-09-01T01:14:07Z</time>
  <course>12.59</course>
  <speed>0.8102468759581859</speed>
  <fix>3d</fix>
</trkpt>
<trkpt lat="33.8098538" lon="-118.394433">
  <ele>-48.8</ele>
  <time>2026-09-01T01:14:07Z</time>
  <course>0.51</course>
  <speed>0.84</speed>
  <fix>3d</fix>
</trkpt>
<trkpt lat="33.8098552" lon="-118.3944329">
  <ele>-50.019</ele>
  <time>2026-09-01T01:14:07Z</time>
  <course>12.43</course>
  <speed>0.8102468759581859</speed>
  <fix>3d</fix>
</trkpt>
<trkpt lat="33.8098538" lon="-118.394433">
  <ele>-48.8</ele>
  <time>2026-09-01T01:14:07Z</time>
  <course>0.51</course>
  <speed>0.84</speed>
  <fix>3d</fix>
</trkpt>
<trkpt lat="33.809856" lon="-118.3944329">
  <ele>-50.018</ele>
  <time>2026-09-01T01:14:07Z</time>
  <course>12.28</course>
  <speed>0.8102468759581859</speed>
  <fix>3d</fix>
</trkpt>
<trkpt lat="33.8098553" lon="-118.394433">
  <ele>-48.8</ele>
  <time>2026-09-01T01:14:07Z</time>
  <course>0.47</course>
  <speed>0.85</speed>
  <fix>3d</fix>
</trkpt>
<trkpt lat="33.8098567" lon="-118.3944329">
  <ele>-50.017</ele>
  <time>2026-09-01T01:14:07Z</time>
  <course>12.14</course>
  <speed>0.8102468759581859</speed>
  <fix>3d</fix>
</trkpt>
<trkpt lat="33.8098553" lon="-118.394433">
  <ele>-48.8</ele>
  <time>2026-09-01T01:14:07Z</time>
  <course>0.47</course>
  <speed>0.85</speed>
  <fix>3d</fix>
</trkpt>
<trkpt lat="33.8098575" lon="-118.3944329">
  <ele>-50.016</ele>
  <time>2026-09-01T01:14:07Z</time>
  <course>12.02</course>
  <speed>0.8102468759581859</speed>
  <fix>3d</fix>
</trkpt>
<trkpt lat="33.8098568" lon="-118.394433">
  <ele>-48.8</ele>
  <time>2026-09-01T01:14:07Z</time>
  <course>0.46</course>
  <speed>0.85</speed>
  <fix>3d</fix>
</trkpt>
<trkpt lat="33.8098583" lon="-118.3944329">
  <ele>-50.016</ele>
  <time>2026-09-01T01:14:07Z</time>
  <course>11.89</course>
  <speed>0.8102468759581859</speed>
  <fix>3d</fix>
</trkpt>
<trkpt lat="33.8098568" lon="-118.394433">
  <ele>-48.8</ele>
  <time>2026-09-01T01:14:07Z</time>
  <course>0.46</course>
  <speed>0.85</speed>
  <fix>3d</fix>
</trkpt>
<trkpt lat="33.809859" lon="-118.3944328">
  <ele>-50.017</ele>
  <time>2026-09-01T01:14:07Z</time>
  <course>11.77</course>
  <speed>0.8102468759581859</speed>
  <fix>3d</fix>
</trkpt>
<trkpt lat="33.8098583" lon="-118.394433">
  <ele>-48.8</ele>
  <time>2026-09-01T01:14:07Z</time>
  <course>0.48</course>
  <speed>0.85</speed>
  <fix>3d</fix>
</trkpt>
<trkpt lat="33.8098598" lon="-118.3944328">
  <ele>-50.018</ele>
  <time>2026-09-01T01:14:07Z</time>
  <course>11.65</course>
  <speed>0.8102468759581859</speed>
  <fix>3d</fix>
</trkpt>
<trkpt lat="33.8098583" lon="-118.394433">
  <ele>-48.8</ele>
  <time>2026-09-01T01:14:07Z</time>
  <course>0.48</course>
  <speed>0.85</speed>
  <fix>3d</fix>
</trkpt>
<trkpt lat="33.8098606" lon="-118.3944328">
  <ele>-50.019</ele>
  <time>2026-09-01T01:14:07Z</time>
  <course>11.53</course>
  <speed>0.8202438661763951</speed>
  <fix>3d</fix>
</trkpt>
<trkpt lat="33.8098599" lon="-118.3944329">
  <ele>-48.8</ele>
  <time>2026-09-01T01:14:07Z</time>
  <course>0.5</course>
  <speed>0.85</speed>
  <fix>3d</fix>
</trkpt>
<trkpt lat="33.8098613" lon="-118.3944328">
  <ele>-50.019</ele>
  <time>2026-09-01T01:14:07Z</time>
  <course>11.4</course>
  <speed>0.8202438661763951</speed>
  <fix>3d</fix>
</trkpt>
<trkpt lat="33.8098599" lon="-118.3944329">
  <ele>-48.8</ele>
  <time>2026-09-01T01:14:07Z</time>
  <course>0.5</course>
  <speed>0.85</speed>
  <fix>3d</fix>
</trkpt>
<trkpt lat="33.8098621" lon="-118.3944328">
  <ele>-50.02</ele>
  <time>2026-09-01T01:14:07Z</time>
  <course>11.28</course>
  <speed>0.8202438661763951</speed>
  <fix>3d</fix>
</trkpt>
<trkpt lat="33.8098614" lon="-118.3944329">
  <ele>-48.8</ele>
  <time>2026-09-01T01:14:07Z</time>
  <course>0.49</course>
  <speed>0.85</speed>
  <fix>3d</fix>
</trkpt>
<trkpt lat="33.8098629" lon="-118.3944328">
  <ele>-50.019</ele>
  <time>2026-09-01T01:14:07Z</time>
  <course>11.14</course>
  <speed>0.8202438661763951</speed>
  <fix>3d</fix>
</trkpt>
<trkpt lat="33.8098614" lon="-118.3944329">
  <ele>-48.8</ele>
  <time>2026-09-01T01:14:07Z</time>
  <course>0.49</course>
  <speed>0.85</speed>
  <fix>3d</fix>
</trkpt>
<trkpt lat="33.8098637" lon="-118.3944328">
  <ele>-50.018</ele>
  <time>2026-09-01T01:14:07Z</time>
  <course>10.99</course>
  <speed>0.8202438661763951</speed>
  <fix>3d</fix>
</trkpt>
<trkpt lat="33.8098629" lon="-118.3944329">
  <ele>-48.8</ele>
  <time>2026-09-01T01:14:07Z</time>
  <course>0.44</course>
  <speed>0.85</speed>
  <fix>3d</fix>
</trkpt>
<trkpt lat="33.8098644" lon="-118.3944328">
  <ele>-50.016</ele>
  <time>2026-09-01T01:14:07Z</time>
  <course>10.84</course>
  <speed>0.8202438661763951</speed>
  <fix>3d</fix>
</trkpt>
<trkpt lat="33.8098629" lon="-118.3944329">
  <ele>-48.8</ele>
  <time>2026-09-01T01:14:07Z</time>
  <course>0.44</course>
  <speed>0.85</speed>
  <fix>3d</fix>
</trkpt>
<trkpt lat="33.8098652" lon="-118.3944328">
  <ele>-50.015</ele>
  <time>2026-09-01T01:14:07Z</time>
  <course>10.69</course>
  <speed>0.8202438661763951</speed>
  <fix>3d</fix>
</trkpt>
<trkpt lat="33.8098645" lon="-118.3944329">
  <ele>-48.8</ele>
  <time>2026-09-01T01:14:07Z</time>
  <course>0.39</course>
  <speed>0.86</speed>
  <fix>3d</fix>
</trkpt>
<trkpt lat="33.809866" lon="-118.3944328">
  <ele>-50.015</ele>
  <time>2026-09-01T01:14:07Z</time>
  <course>10.56</course>
  <speed>0.8202438661763951</speed>
  <fix>3d</fix>
</trkpt>
<trkpt lat="33.8098645" lon="-118.3944329">
  <ele>-48.8</ele>
  <time>2026-09-01T01:14:07Z</time>
  <course>0.39</course>
  <speed>0.86</speed>
  <fix>3d</fix>
</trkpt>
<trkpt lat="33.8098668" lon="-118.3944327">
  <ele>-50.017</ele>
  <time>2026-09-01T01:14:07Z</time>
  <course>10.43</course>
  <speed>0.8202438661763951</speed>
  <fix>3d</fix>
</trkpt>
<trkpt lat="33.809866" lon="-118.3944329">
  <ele>-48.8</ele>
  <time>2026-09-01T01:14:07Z</time>
  <course>0.39</course>
  <speed>0.86</speed>
  <fix>3d</fix>
</trkpt>
<trkpt lat="33.8098675" lon="-118.3944327">
  <ele>-50.018</ele>
  <time>2026-09-01T01:14:08Z</time>
  <course>10.31</course>
  <speed>0.8202438661763951</speed>
  <fix>3d</fix>
</trkpt>
<trkpt lat="33.809866" lon="-118.3944329">
  <ele>-48.8</ele>
  <time>2026-09-01T01:14:08Z</time>
  <course>0.39</course>
  <speed>0.86</speed>
  <fix>3d</fix>
</trkpt>
<trkpt lat="33.8098683" lon="-118.3944327">
  <ele>-50.019</ele>
  <time>2026-09-01T01:14:08Z</time>
  <course>10.2</course>
  <speed>0.8302409288875127</speed>
  <fix>3d</fix>
</trkpt>
<trkpt lat="33.8098676" lon="-118.3944329">
  <ele>-48.81</ele>
  <time>2026-09-01T01:14:08Z</time>
  <course>0.41</course>
  <speed>0.86</speed>
  <fix>3d</fix>
</trkpt>
<trkpt lat="33.8098691" lon="-118.3944327">
  <ele>-50.021</ele>
  <time>2026-09-01T01:14:08Z</time>
  <course>10.09</course>
  <speed>0.8302409288875127</speed>
  <fix>3d</fix>
</trkpt>
<trkpt lat="33.8098676" lon="-118.3944329">
  <ele>-48.81</ele>
  <time>2026-09-01T01:14:08Z</time>
  <course>0.41</course>
  <speed>0.86</speed>
  <fix>3d</fix>
</trkpt>
<trkpt lat="33.8098699" lon="-118.3944327">
  <ele>-50.022</ele>
  <time>2026-09-01T01:14:08Z</time>
  <course>9.98</course>
  <speed>0.8302409288875127</speed>
  <fix>3d</fix>
</trkpt>
<trkpt lat="33.8098691" lon="-118.3944329">
  <ele>-48.81</ele>
  <time>2026-09-01T01:14:08Z</time>
  <course>0.44</course>
  <speed>0.86</speed>
  <fix>3d</fix>
</trkpt>
<trkpt lat="33.8098707" lon="-118.3944327">
  <ele>-50.022</ele>
  <time>2026-09-01T01:14:08Z</time>
  <course>9.88</course>
  <speed>0.8302409288875127</speed>
  <fix>3d</fix>
</trkpt>
<trkpt lat="33.8098691" lon="-118.3944329">
  <ele>-48.81</ele>
  <time>2026-09-01T01:14:08Z</time>
  <course>0.44</course>
  <speed>0.86</speed>
  <fix>3d</fix>
</trkpt>
<trkpt lat="33.8098714" lon="-118.3944327">
  <ele>-50.022</ele>
  <time>2026-09-01T01:14:08Z</time>
  <course>9.79</course>
  <speed>0.8302409288875127</speed>
  <fix>3d</fix>
</trkpt>
<trkpt lat="33.8098708" lon="-118.3944328">
  <ele>-48.81</ele>
  <time>2026-09-01T01:14:08Z</time>
  <course>0.48</course>
  <speed>0.86</speed>
  <fix>3d</fix>
</trkpt>
<trkpt lat="33.8098722" lon="-118.3944327">
  <ele>-50.021</ele>
  <time>2026-09-01T01:14:08Z</time>
  <course>9.68</course>
  <speed>0.8302409288875127</speed>
  <fix>3d</fix>
</trkpt>
<trkpt lat="33.8098708" lon="-118.3944328">
  <ele>-48.81</ele>
  <time>2026-09-01T01:14:08Z</time>
  <course>0.48</course>
  <speed>0.86</speed>
  <fix>3d</fix>
</trkpt>
<trkpt lat="33.809873" lon="-118.3944327">
  <ele>-50.019</ele>
  <time>2026-09-01T01:14:08Z</time>
  <course>9.57</course>
  <speed>0.8302409288875127</speed>
  <fix>3d</fix>
</trkpt>
<trkpt lat="33.8098723" lon="-118.3944328">
  <ele>-48.81</ele>
  <time>2026-09-01T01:14:08Z</time>
  <course>0.47</course>
  <speed>0.87</speed>
  <fix>3d</fix>
</trkpt>
<trkpt lat="33.8098738" lon="-118.3944327">
  <ele>-50.017</ele>
  <time>2026-09-01T01:14:08Z</time>
  <course>9.45</course>
  <speed>0.8302409288875127</speed>
  <fix>3d</fix>
</trkpt>
<trkpt lat="33.8098723" lon="-118.3944328">
  <ele>-48.81</ele>
  <time>2026-09-01T01:14:08Z</time>
  <course>0.47</course>
  <speed>0.87</speed>
  <fix>3d</fix>
</trkpt>
<trkpt lat="33.8098746" lon="-118.3944327">
  <ele>-50.016</ele>
  <time>2026-09-01T01:14:08Z</time>
  <course>9.32</course>
  <speed>0.8302409288875127</speed>
  <fix>3d</fix>
</trkpt>
<trkpt lat="33.8098739" lon="-118.3944328">
  <ele>-48.81</ele>
  <time>2026-09-01T01:14:08Z</time>
  <course>0.41</course>
  <speed>0.87</speed>
  <fix>3d</fix>
</trkpt>
<trkpt lat="33.8098754" lon="-118.3944327">
  <ele>-50.016</ele>
  <time>2026-09-01T01:14:08Z</time>
  <course>9.2</course>
  <speed>0.8302409288875127</speed>
  <fix>3d</fix>
</trkpt>
<trkpt lat="33.8098739" lon="-118.3944328">
  <ele>-48.81</ele>
  <time>2026-09-01T01:14:08Z</time>
  <course>0.41</course>
  <speed>0.87</speed>
  <fix>3d</fix>
</trkpt>
<trkpt lat="33.8098762" lon="-118.3944327">
  <ele>-50.017</ele>
  <time>2026-09-01T01:14:08Z</time>
  <course>9.08</course>
  <speed>0.8302409288875127</speed>
  <fix>3d</fix>
</trkpt>
<trkpt lat="33.8098755" lon="-118.3944328">
  <ele>-48.81</ele>
  <time>2026-09-01T01:14:08Z</time>
  <course>0.38</course>
  <speed>0.87</speed>
  <fix>3d</fix>
</trkpt>
<trkpt lat="33.8098769" lon="-118.3944326">
  <ele>-50.018</ele>
  <time>2026-09-01T01:14:08Z</time>
  <course>8.96</course>
  <speed>0.8302409288875127</speed>
  <fix>3d</fix>
</trkpt>
<trkpt lat="33.8098755" lon="-118.3944328">
  <ele>-48.81</ele>
  <time>2026-09-01T01:14:08Z</time>
  <course>0.38</course>
  <speed>0.87</speed>
  <fix>3d</fix>
</trkpt>
<trkpt lat="33.8098777" lon="-118.3944326">
  <ele>-50.019</ele>
  <time>2026-09-01T01:14:08Z</time>
  <course>8.85</course>
  <speed>0.8302409288875127</speed>
  <fix>3d</fix>
</trkpt>
<trkpt lat="33.809877" lon="-118.3944328">
  <ele>-48.81</ele>
  <time>2026-09-01T01:14:08Z</time>
  <course>0.37</course>
  <speed>0.87</speed>
  <fix>3d</fix>
</trkpt>
<trkpt lat="33.8098785" lon="-118.3944326">
  <ele>-50.019</ele>
  <time>2026-09-01T01:14:08Z</time>
  <course>8.75</course>
  <speed>0.8302409288875127</speed>
  <fix>3d</fix>
</trkpt>
<trkpt lat="33.809877" lon="-118.3944328">
  <ele>-48.81</ele>
  <time>2026-09-01T01:14:08Z</time>
  <course>0.37</course>
  <speed>0.87</speed>
  <fix>3d</fix>
</trkpt>
<trkpt lat="33.8098793" lon="-118.3944326">
  <ele>-50.018</ele>
  <time>2026-09-01T01:14:08Z</time>
  <course>8.64</course>
  <speed>0.8402380615040002</speed>
  <fix>3d</fix>
</trkpt>
<trkpt lat="33.8098786" lon="-118.3944328">
  <ele>-48.81</ele>
  <time>2026-09-01T01:14:08Z</time>
  <course>0.38</course>
  <speed>0.87</speed>
  <fix>3d</fix>
</trkpt>
<trkpt lat="33.8098801" lon="-118.3944326">
  <ele>-50.017</ele>
  <time>2026-09-01T01:14:08Z</time>
  <course>8.55</course>
  <speed>0.8402380615040002</speed>
  <fix>3d</fix>
</trkpt>
<trkpt lat="33.8098786" lon="-118.3944328">
  <ele>-48.81</ele>
  <time>2026-09-01T01:14:08Z</time>
  <course>0.38</course>
  <speed>0.87</speed>
  <fix>3d</fix>
</trkpt>
<trkpt lat="33.8098809" lon="-118.3944326">
  <ele>-50.016</ele>
  <time>2026-09-01T01:14:08Z</time>
  <course>8.46</course>
  <speed>0.8402380615040002</speed>
  <fix>3d</fix>
</trkpt>
<trkpt lat="33.8098801" lon="-118.3944328">
  <ele>-48.81</ele>
  <time>2026-09-01T01:14:08Z</time>
  <course>0.4</course>
  <speed>0.87</speed>
  <fix>3d</fix>
</trkpt>
<trkpt lat="33.8098817" lon="-118.3944326">
  <ele>-50.016</ele>
  <time>2026-09-01T01:14:08Z</time>
  <course>8.36</course>
  <speed>0.8402380615040002</speed>
  <fix>3d</fix>
</trkpt>
<trkpt lat="33.8098801" lon="-118.3944328">
  <ele>-48.81</ele>
  <time>2026-09-01T01:14:08Z</time>
  <course>0.4</course>
  <speed>0.87</speed>
  <fix>3d</fix>
</trkpt>
<trkpt lat="33.8098825" lon="-118.3944326">
  <ele>-50.018</ele>
  <time>2026-09-01T01:14:08Z</time>
  <course>8.27</course>
  <speed>0.8402380615040002</speed>
  <fix>3d</fix>
</trkpt>
<trkpt lat="33.8098817" lon="-118.3944328">
  <ele>-48.81</ele>
  <time>2026-09-01T01:14:08Z</time>
  <course>0.43</course>
  <speed>0.87</speed>
  <fix>3d</fix>
</trkpt>
<trkpt lat="33.8098833" lon="-118.3944326">
  <ele>-50.021</ele>
  <time>2026-09-01T01:14:08Z</time>
  <course>8.18</course>
  <speed>0.8402380615040002</speed>
  <fix>3d</fix>
</trkpt>
<trkpt lat="33.8098817" lon="-118.3944328">
  <ele>-48.81</ele>
  <time>2026-09-01T01:14:08Z</time>
  <course>0.43</course>
  <speed>0.87</speed>
  <fix>3d</fix>
</trkpt>
<trkpt lat="33.8098841" lon="-118.3944326">
  <ele>-50.024</ele>
  <time>2026-09-01T01:14:08Z</time>
  <course>8.1</course>
  <speed>0.8502352615599991</speed>
  <fix>3d</fix>
</trkpt>
<trkpt lat="33.8098832" lon="-118.3944327">
  <ele>-48.82</ele>
  <time>2026-09-01T01:14:08Z</time>
  <course>0.45</course>
  <speed>0.87</speed>
  <fix>3d</fix>
</trkpt>
<trkpt lat="33.8098849" lon="-118.3944326">
  <ele>-50.026</ele>
  <time>2026-09-01T01:14:08Z</time>
  <course>8.0</course>
  <speed>0.8502352615599991</speed>
  <fix>3d</fix>
</trkpt>
<trkpt lat="33.8098832" lon="-118.3944327">
  <ele>-48.82</ele>
  <time>2026-09-01T01:14:08Z</time>
  <course>0.45</course>
  <speed>0.87</speed>
  <fix>3d</fix>
</trkpt>
<trkpt lat="33.8098856" lon="-118.3944326">
  <ele>-50.028</ele>
  <time>2026-09-01T01:14:08Z</time>
  <course>7.9</course>
  <speed>0.8502352615599991</speed>
  <fix>3d</fix>
</trkpt>
<trkpt lat="33.8098849" lon="-118.3944327">
  <ele>-48.82</ele>
  <time>2026-09-01T01:14:08Z</time>
  <course>0.45</course>
  <speed>0.88</speed>
  <fix>3d</fix>
</trkpt>
<trkpt lat="33.8098864" lon="-118.3944326">
  <ele>-50.029</ele>
  <time>2026-09-01T01:14:08Z</time>
  <course>7.77</course>
  <speed>0.8502352615599991</speed>
  <fix>3d</fix>
</trkpt>
<trkpt lat="33.8098849" lon="-118.3944327">
  <ele>-48.82</ele>
  <time>2026-09-01T01:14:08Z</time>
  <course>0.45</course>
  <speed>0.88</speed>
  <fix>3d</fix>
</trkpt>
<trkpt lat="33.8098872" lon="-118.3944326">
  <ele>-50.029</ele>
  <time>2026-09-01T01:14:08Z</time>
  <course>7.64</course>
  <speed>0.8502352615599991</speed>
  <fix>3d</fix>
</trkpt>
<trkpt lat="33.8098865" lon="-118.3944327">
  <ele>-48.82</ele>
  <time>2026-09-01T01:14:08Z</time>
  <course>0.4</course>
  <speed>0.88</speed>
  <fix>3d</fix>
</trkpt>
<trkpt lat="33.809888" lon="-118.3944325">
  <ele>-50.028</ele>
  <time>2026-09-01T01:14:08Z</time>
  <course>7.52</course>
  <speed>0.8502352615599991</speed>
  <fix>3d</fix>
</trkpt>
<trkpt lat="33.8098865" lon="-118.3944327">
  <ele>-48.82</ele>
  <time>2026-09-01T01:14:08Z</time>
  <course>0.4</course>
  <speed>0.88</speed>
  <fix>3d</fix>
</trkpt>
<trkpt lat="33.8098888" lon="-118.3944325">
  <ele>-50.026</ele>
  <time>2026-09-01T01:14:08Z</time>
  <course>7.4</course>
  <speed>0.8502352615599991</speed>
  <fix>3d</fix>
</trkpt>
<trkpt lat="33.809888" lon="-118.3944327">
  <ele>-48.82</ele>
  <time>2026-09-01T01:14:08Z</time>
  <course>0.37</course>
  <speed>0.88</speed>
  <fix>3d</fix>
</trkpt>
<trkpt lat="33.8098896" lon="-118.3944325">
  <ele>-50.024</ele>
  <time>2026-09-01T01:14:08Z</time>
  <course>7.3</course>
  <speed>0.8502352615599991</speed>
  <fix>3d</fix>
</trkpt>
<trkpt lat="33.809888" lon="-118.3944327">
  <ele>-48.82</ele>
  <time>2026-09-01T01:14:08Z</time>
  <course>0.37</course>
  <speed>0.88</speed>
  <fix>3d</fix>
</trkpt>
<trkpt lat="33.8098904" lon="-118.3944325">
  <ele>-50.022</ele>
  <time>2026-09-01T01:14:08Z</time>
  <course>7.2</course>
  <speed>0.8502352615599991</speed>
  <fix>3d</fix>
</trkpt>
<trkpt lat="33.8098897" lon="-118.3944327">
  <ele>-48.81</ele>
  <time>2026-09-01T01:14:08Z</time>
  <course>0.34</course>
  <speed>0.88</speed>
  <fix>3d</fix>
</trkpt>
<trkpt lat="33.8098912" lon="-118.3944325">
  <ele>-50.02</ele>
  <time>2026-09-01T01:14:08Z</time>
  <course>7.1</course>
  <speed>0.8502352615599991</speed>
  <fix>3d</fix>
</trkpt>
<trkpt lat="33.8098897" lon="-118.3944327">
  <ele>-48.81</ele>
  <time>2026-09-01T01:14:08Z</time>
  <course>0.34</course>
  <speed>0.88</speed>
  <fix>3d</fix>
</trkpt>
<trkpt lat="33.8098921" lon="-118.3944325">
  <ele>-50.018</ele>
  <time>2026-09-01T01:14:08Z</time>
  <course>7.02</course>
  <speed>0.8602325267042628</speed>
  <fix>3d</fix>
</trkpt>
<trkpt lat="33.8098913" lon="-118.3944327">
  <ele>-48.81</ele>
  <time>2026-09-01T01:14:08Z</time>
  <course>0.33</course>
  <speed>0.88</speed>
  <fix>3d</fix>
</trkpt>
<trkpt lat="33.8098929" lon="-118.3944325">
  <ele>-50.017</ele>
  <time>2026-09-01T01:14:08Z</time>
  <course>6.93</course>
  <speed>0.8602325267042628</speed>
  <fix>3d</fix>
</trkpt>
<trkpt lat="33.8098913" lon="-118.3944327">
  <ele>-48.81</ele>
  <time>2026-09-01T01:14:08Z</time>
  <course>0.33</course>
  <speed>0.88</speed>
  <fix>3d</fix>
</trkpt>
<trkpt lat="33.8098937" lon="-118.3944325">
  <ele>-50.015</ele>
  <time>2026-09-01T01:14:08Z</time>
  <course>6.85</course>
  <speed>0.8602325267042628</speed>
  <fix>3d</fix>
</trkpt>
<trkpt lat="33.8098928" lon="-118.3944327">
  <ele>-48.8</ele>
  <time>2026-09-01T01:14:08Z</time>
  <course>0.36</course>
  <speed>0.89</speed>
  <fix>3d</fix>
</trkpt>
<trkpt lat="33.8098945" lon="-118.3944325">
  <ele>-50.014</ele>
  <time>2026-09-01T01:14:08Z</time>
  <course>6.78</course>
  <speed>0.8602325267042628</speed>
  <fix>3d</fix>
</trkpt>
<trkpt lat="33.8098928" lon="-118.3944327">
  <ele>-48.8</ele>
  <time>2026-09-01T01:14:08Z</time>
  <course>0.36</course>
  <speed>0.89</speed>
  <fix>3d</fix>
</trkpt>
<trkpt lat="33.8098953" lon="-118.3944325">
  <ele>-50.015</ele>
  <time>2026-09-01T01:14:08Z</time>
  <course>6.71</course>
  <speed>0.8602325267042628</speed>
  <fix>3d</fix>
</trkpt>
<trkpt lat="33.8098945" lon="-118.3944326">
  <ele>-48.8</ele>
  <time>2026-09-01T01:14:08Z</time>
  <course>0.39</course>
  <speed>0.89</speed>
  <fix>3d</fix>
</trkpt>
<trkpt lat="33.8098961" lon="-118.3944325">
  <ele>-50.016</ele>
  <time>2026-09-01T01:14:08Z</time>
  <course>6.62</course>
  <speed>0.8602325267042628</speed>
  <fix>3d</fix>
</trkpt>
<trkpt lat="33.8098945" lon="-118.3944326">
  <ele>-48.8</ele>
  <time>2026-09-01T01:14:08Z</time>
  <course>0.39</course>
  <speed>0.89</speed>
  <fix>3d</fix>
</trkpt>
<trkpt lat="33.8098969" lon="-118.3944325">
  <ele>-50.017</ele>
  <time>2026-09-01T01:14:08Z</time>
  <course>6.53</course>
  <speed>0.8602325267042628</speed>
  <fix>3d</fix>
</trkpt>
<trkpt lat="33.8098961" lon="-118.3944325">
  <ele>-48.8</ele>
  <time>2026-09-01T01:14:08Z</time>
  <course>0.38</course>
  <speed>0.89</speed>
  <fix>3d</fix>
</trkpt>
<trkpt lat="33.8098977" lon="-118.3944325">
  <ele>-50.018</ele>
  <time>2026-09-01T01:14:08Z</time>
  <course>6.41</course>
  <speed>0.8602325267042628</speed>
  <fix>3d</fix>
</trkpt>
<trkpt lat="33.8098961" lon="-118.3944325">
  <ele>-48.8</ele>
  <time>2026-09-01T01:14:08Z</time>
  <course>0.38</course>
  <speed>0.89</speed>
  <fix>3d</fix>
</trkpt>
<trkpt lat="33.8098985" lon="-118.3944325">
  <ele>-50.019</ele>
  <time>2026-09-01T01:14:08Z</time>
  <course>6.27</course>
  <speed>0.8602325267042628</speed>
  <fix>3d</fix>
</trkpt>
<trkpt lat="33.8098976" lon="-118.3944325">
  <ele>-48.81</ele>
  <time>2026-09-01T01:14:08Z</time>
  <course>0.27</course>
  <speed>0.89</speed>
  <fix>3d</fix>
</trkpt>
<trkpt lat="33.8098993" lon="-118.3944324">
  <ele>-50.019</ele>
  <time>2026-09-01T01:14:08Z</time>
  <course>6.12</course>
  <speed>0.8602325267042628</speed>
  <fix>3d</fix>
</trkpt>
<trkpt lat="33.8098976" lon="-118.3944325">
  <ele>-48.81</ele>
  <time>2026-09-01T01:14:08Z</time>
  <course>0.27</course>
  <speed>0.89</speed>
  <fix>3d</fix>
</trkpt>
<trkpt lat="33.8099001" lon="-118.3944324">
  <ele>-50.02</ele>
  <time>2026-09-01T01:14:08Z</time>
  <course>5.97</course>
  <speed>0.8702298546935746</speed>
  <fix>3d</fix>
</trkpt>
<trkpt lat="33.8098993" lon="-118.3944325">
  <ele>-48.81</ele>
  <time>2026-09-01T01:14:08Z</time>
  <course>0.1</course>
  <speed>0.89</speed>
  <fix>3d</fix>
</trkpt>
<trkpt lat="33.8099009" lon="-118.3944324">
  <ele>-50.021</ele>
  <time>2026-09-01T01:14:08Z</time>
  <course>5.82</course>
  <speed>0.8702298546935746</speed>
  <fix>3d</fix>
</trkpt>
<trkpt lat="33.8098993" lon="-118.3944325">
  <ele>-48.81</ele>
  <time>2026-09-01T01:14:08Z</time>
  <course>0.1</course>
  <speed>0.89</speed>
  <fix>3d</fix>
</trkpt>
<trkpt lat="33.8099017" lon="-118.3944324">
  <ele>-50.022</ele>
  <time>2026-09-01T01:14:08Z</time>
  <course>5.68</course>
  <speed>0.8700574693662483</speed>
  <fix>3d</fix>
</trkpt>
<trkpt lat="33.8099009" lon="-118.3944325">
  <ele>-48.81</ele>
  <time>2026-09-01T01:14:08Z</time>
  <course>359.97</course>
  <speed>0.9</speed>
  <fix>3d</fix>
</trkpt>
<trkpt lat="33.8099026" lon="-118.3944324">
  <ele>-50.023</ele>
  <time>2026-09-01T01:14:08Z</time>
  <course>5.56</course>
  <speed>0.8700574693662483</speed>
  <fix>3d</fix>
</trkpt>
<trkpt lat="33.8099009" lon="-118.3944325">
  <ele>-48.81</ele>
  <time>2026-09-01T01:14:08Z</time>
  <course>359.97</course>
  <speed>0.9</speed>
  <fix>3d</fix>
</trkpt>
<trkpt lat="33.8099034" lon="-118.3944324">
  <ele>-50.022</ele>
  <time>2026-09-01T01:14:08Z</time>
  <course>5.45</course>
  <speed>0.8700574693662483</speed>
  <fix>3d</fix>
</trkpt>
<trkpt lat="33.8099025" lon="-118.3944325">
  <ele>-48.81</ele>
  <time>2026-09-01T01:14:08Z</time>
  <course>359.88</course>
  <speed>0.9</speed>
  <fix>3d</fix>
</trkpt>
<trkpt lat="33.8099042" lon="-118.3944324">
  <ele>-50.021</ele>
  <time>2026-09-01T01:14:08Z</time>
  <course>5.35</course>
  <speed>0.8700574693662483</speed>
  <fix>3d</fix>
</trkpt>
<trkpt lat="33.8099025" lon="-118.3944325">
  <ele>-48.81</ele>
  <time>2026-09-01T01:14:08Z</time>
  <course>359.88</course>
  <speed>0.9</speed>
  <fix>3d</fix>
</trkpt>
<trkpt lat="33.809905" lon="-118.3944324">
  <ele>-50.019</ele>
  <time>2026-09-01T01:14:08Z</time>
  <course>5.26</course>
  <speed>0.8700574693662483</speed>
  <fix>3d</fix>
</trkpt>
<trkpt lat="33.8099041" lon="-118.3944325">
  <ele>-48.81</ele>
  <time>2026-09-01T01:14:08Z</time>
  <course>359.85</course>
  <speed>0.9</speed>
  <fix>3d</fix>
</trkpt>
<trkpt lat="33.8099058" lon="-118.3944324">
  <ele>-50.018</ele>
  <time>2026-09-01T01:14:08Z</time>
  <course>5.18</course>
  <speed>0.8702298546935746</speed>
  <fix>3d</fix>
</trkpt>
<trkpt lat="33.8099041" lon="-118.3944325">
  <ele>-48.81</ele>
  <time>2026-09-01T01:14:08Z</time>
  <course>359.85</course>
  <speed>0.9</speed>
  <fix>3d</fix>
</trkpt>
<trkpt lat="33.8099066" lon="-118.3944324">
  <ele>-50.017</ele>
  <time>2026-09-01T01:14:08Z</time>
  <course>5.1</course>
  <speed>0.880056816347672</speed>
  <fix>3d</fix>
</trkpt>
<trkpt lat="33.8099057" lon="-118.3944325">
  <ele>-48.8</ele>
  <time>2026-09-01T01:14:08Z</time>
  <course>359.83</course>
  <speed>0.9</speed>
  <fix>3d</fix>
</trkpt>
<trkpt lat="33.8099074" lon="-118.3944324">
  <ele>-50.016</ele>
  <time>2026-09-01T01:14:08Z</time>
  <course>5.03</course>
  <speed>0.8802272433866155</speed>
  <fix>3d</fix>
</trkpt>
<trkpt lat="33.8099057" lon="-118.3944325">
  <ele>-48.8</ele>
  <time>2026-09-01T01:14:08Z</time>
  <course>359.83</course>
  <speed>0.9</speed>
  <fix>3d</fix>
</trkpt>
<trkpt lat="33.8099083" lon="-118.3944324">
  <ele>-50.015</ele>
  <time>2026-09-01T01:14:08Z</time>
  <course>4.96</course>
  <speed>0.8802272433866155</speed>
  <fix>3d</fix>
</trkpt>
<trkpt lat="33.8099074" lon="-118.3944325">
  <ele>-48.8</ele>
  <time>2026-09-01T01:14:08Z</time>
  <course>359.82</course>
  <speed>0.9</speed>
  <fix>3d</fix>
</trkpt>
<trkpt lat="33.8099091" lon="-118.3944324">
  <ele>-50.014</ele>
  <time>2026-09-01T01:14:08Z</time>
  <course>4.9</course>
  <speed>0.8802272433866155</speed>
  <fix>3d</fix>
</trkpt>
<trkpt lat="33.8099074" lon="-118.3944325">
  <ele>-48.8</ele>
  <time>2026-09-01T01:14:08Z</time>
  <course>359.82</course>
  <speed>0.9</speed>
  <fix>3d</fix>
</trkpt>
<trkpt lat="33.8099099" lon="-118.3944324">
  <ele>-50.014</ele>
  <time>2026-09-01T01:14:08Z</time>
  <course>4.84</course>
  <speed>0.8802272433866155</speed>
  <fix>3d</fix>
</trkpt>
<trkpt lat="33.809909" lon="-118.3944325">
  <ele>-48.8</ele>
  <time>2026-09-01T01:14:08Z</time>
  <course>359.81</course>
  <speed>0.91</speed>
  <fix>3d</fix>
</trkpt>
<trkpt lat="33.8099107" lon="-118.3944324">
  <ele>-50.016</ele>
  <time>2026-09-01T01:14:08Z</time>
  <course>4.79</course>
  <speed>0.8802272433866155</speed>
  <fix>3d</fix>
</trkpt>
<trkpt lat="33.809909" lon="-118.3944325">
  <ele>-48.8</ele>
  <time>2026-09-01T01:14:08Z</time>
  <course>359.81</course>
  <speed>0.91</speed>
  <fix>3d</fix>
</trkpt>
<trkpt lat="33.8099115" lon="-118.3944324">
  <ele>-50.018</ele>
  <time>2026-09-01T01:14:08Z</time>
  <course>4.74</course>
  <speed>0.8802272433866155</speed>
  <fix>3d</fix>
</trkpt>
<trkpt lat="33.8099107" lon="-118.3944325">
  <ele>-48.8</ele>
  <time>2026-09-01T01:14:08Z</time>
  <course>359.81</course>
  <speed>0.91</speed>
  <fix>3d</fix>
</trkpt>
<trkpt lat="33.8099124" lon="-118.3944324">
  <ele>-50.02</ele>
  <time>2026-09-01T01:14:08Z</time>
  <course>4.69</course>
  <speed>0.8802272433866155</speed>
  <fix>3d</fix>
</trkpt>
<trkpt lat="33.8099107" lon="-118.3944325">
  <ele>-48.8</ele>
  <time>2026-09-01T01:14:08Z</time>
  <course>359.81</course>
  <speed>0.91</speed>
  <fix>3d</fix>
</trkpt>
<trkpt lat="33.8099132" lon="-118.3944324">
  <ele>-50.02</ele>
  <time>2026-09-01T01:14:08Z</time>
  <course>4.65</course>
  <speed>0.8802272433866155</speed>
  <fix>3d</fix>
</trkpt>
<trkpt lat="33.8099123" lon="-118.3944325">
  <ele>-48.81</ele>
  <time>2026-09-01T01:14:08Z</time>
  <course>359.83</course>
  <speed>0.91</speed>
  <fix>3d</fix>
</trkpt>
<trkpt lat="33.809914" lon="-118.3944324">
  <ele>-50.02</ele>
  <time>2026-09-01T01:14:08Z</time>
  <course>4.6</course>
  <speed>0.8802272433866155</speed>
  <fix>3d</fix>
</trkpt>
<trkpt lat="33.8099123" lon="-118.3944325">
  <ele>-48.81</ele>
  <time>2026-09-01T01:14:08Z</time>
  <course>359.83</course>
  <speed>0.91</speed>
  <fix>3d</fix>
</trkpt>
<trkpt lat="33.8099148" lon="-118.3944324">
  <ele>-50.019</ele>
  <time>2026-09-01T01:14:08Z</time>
  <course>4.56</course>
  <speed>0.8802272433866155</speed>
  <fix>3d</fix>
</trkpt>
<trkpt lat="33.809914" lon="-118.3944325">
  <ele>-48.81</ele>
  <time>2026-09-01T01:14:08Z</time>
  <course>359.83</course>
  <speed>0.91</speed>
  <fix>3d</fix>
</trkpt>
<trkpt lat="33.8099157" lon="-118.3944323">
  <ele>-50.019</ele>
  <time>2026-09-01T01:14:08Z</time>
  <course>4.52</course>
  <speed>0.8802272433866155</speed>
  <fix>3d</fix>
</trkpt>
<trkpt lat="33.809914" lon="-118.3944325">
  <ele>-48.81</ele>
  <time>2026-09-01T01:14:08Z</time>
  <course>359.83</course>
  <speed>0.91</speed>
  <fix>3d</fix>
</trkpt>
<trkpt lat="33.8099165" lon="-118.3944323">
  <ele>-50.019</ele>
  <time>2026-09-01T01:14:08Z</time>
  <course>4.48</course>
  <speed>0.8802272433866155</speed>
  <fix>3d</fix>
</trkpt>
<trkpt lat="33.8099155" lon="-118.3944325">
  <ele>-48.81</ele>
  <time>2026-09-01T01:14:08Z</time>
  <course>359.83</course>
  <speed>0.91</speed>
  <fix>3d</fix>
</trkpt>
<trkpt lat="33.8099173" lon="-118.3944323">
  <ele>-50.019</ele>
  <time>2026-09-01T01:14:08Z</time>
  <course>4.44</course>
  <speed>0.8902246907382428</speed>
  <fix>3d</fix>
</trkpt>
<trkpt lat="33.8099155" lon="-118.3944325">
  <ele>-48.81</ele>
  <time>2026-09-01T01:14:08Z</time>
  <course>359.83</course>
  <speed>0.91</speed>
  <fix>3d</fix>
</trkpt>
<trkpt lat="33.8099181" lon="-118.3944323">
  <ele>-50.018</ele>
  <time>2026-09-01T01:14:08Z</time>
  <course>4.4</course>
  <speed>0.8902246907382428</speed>
  <fix>3d</fix>
</trkpt>
<trkpt lat="33.8099172" lon="-118.3944325">
  <ele>-48.81</ele>
  <time>2026-09-01T01:14:08Z</time>
  <course>359.84</course>
  <speed>0.91</speed>
  <fix>3d</fix>
</trkpt>
<trkpt lat="33.8099189" lon="-118.3944323">
  <ele>-50.018</ele>
  <time>2026-09-01T01:14:08Z</time>
  <course>4.37</course>
  <speed>0.8902246907382428</speed>
  <fix>3d</fix>
</trkpt>
<trkpt lat="33.8099172" lon="-118.3944325">
  <ele>-48.81</ele>
  <time>2026-09-01T01:14:08Z</time>
  <course>359.84</course>
  <speed>0.91</speed>
  <fix>3d</fix>
</trkpt>
<trkpt lat="33.8099198" lon="-118.3944323">
  <ele>-50.019</ele>
  <time>2026-09-01T01:14:08Z</time>
  <course>4.32</course>
  <speed>0.8902246907382428</speed>
  <fix>3d</fix>
</trkpt>
<trkpt lat="33.8099189" lon="-118.3944325">
  <ele>-48.81</ele>
  <time>2026-09-01T01:14:08Z</time>
  <course>359.85</course>
  <speed>0.91</speed>
  <fix>3d</fix>
</trkpt>
<trkpt lat="33.8099206" lon="-118.3944323">
  <ele>-50.019</ele>
  <time>2026-09-01T01:14:08Z</time>
  <course>4.28</course>
  <speed>0.8902246907382428</speed>
  <fix>3d</fix>
</trkpt>
<trkpt lat="33.8099189" lon="-118.3944325">
  <ele>-48.81</ele>
  <time>2026-09-01T01:14:08Z</time>
  <course>359.85</course>
  <speed>0.91</speed>
  <fix>3d</fix>
</trkpt>
<trkpt lat="33.8099214" lon="-118.3944323">
  <ele>-50.019</ele>
  <time>2026-09-01T01:14:08Z</time>
  <course>4.25</course>
  <speed>0.8902246907382428</speed>
  <fix>3d</fix>
</trkpt>
<trkpt lat="33.8099205" lon="-118.3944325">
  <ele>-48.81</ele>
  <time>2026-09-01T01:14:08Z</time>
  <course>359.87</course>
  <speed>0.92</speed>
  <fix>3d</fix>
</trkpt>
<trkpt lat="33.8099223" lon="-118.3944323">
  <ele>-50.019</ele>
  <time>2026-09-01T01:14:08Z</time>
  <course>4.21</course>
  <speed>0.8902246907382428</speed>
  <fix>3d</fix>
</trkpt>
<trkpt lat="33.8099205" lon="-118.3944325">
  <ele>-48.81</ele>
  <time>2026-09-01T01:14:08Z</time>
  <course>359.87</course>
  <speed>0.92</speed>
  <fix>3d</fix>
</trkpt>
<trkpt lat="33.8099231" lon="-118.3944323">
  <ele>-50.018</ele>
  <time>2026-09-01T01:14:08Z</time>
  <course>4.18</course>
  <speed>0.8902246907382428</speed>
  <fix>3d</fix>
</trkpt>
<trkpt lat="33.8099222" lon="-118.3944325">
  <ele>-48.81</ele>
  <time>2026-09-01T01:14:08Z</time>
  <course>359.91</course>
  <speed>0.92</speed>
  <fix>3d</fix>
</trkpt>
<trkpt lat="33.8099239" lon="-118.3944323">
  <ele>-50.018</ele>
  <time>2026-09-01T01:14:08Z</time>
  <course>4.14</course>
  <speed>0.8902246907382428</speed>
  <fix>3d</fix>
</trkpt>
<trkpt lat="33.8099222" lon="-118.3944325">
  <ele>-48.81</ele>
  <time>2026-09-01T01:14:08Z</time>
  <course>359.91</course>
  <speed>0.92</speed>
  <fix>3d</fix>
</trkpt>
<trkpt lat="33.8099248" lon="-118.3944323">
  <ele>-50.02</ele>
  <time>2026-09-01T01:14:08Z</time>
  <course>4.11</course>
  <speed>0.8902246907382428</speed>
  <fix>3d</fix>
</trkpt>
<trkpt lat="33.8099239" lon="-118.3944325">
  <ele>-48.82</ele>
  <time>2026-09-01T01:14:08Z</time>
  <course>359.92</course>
  <speed>0.92</speed>
  <fix>3d</fix>
</trkpt>
<trkpt lat="33.8099256" lon="-118.3944323">
  <ele>-50.021</ele>
  <time>2026-09-01T01:14:08Z</time>
  <course>4.07</course>
  <speed>0.8902246907382428</speed>
  <fix>3d</fix>
</trkpt>
<trkpt lat="33.8099239" lon="-118.3944325">
  <ele>-48.82</ele>
  <time>2026-09-01T01:14:08Z</time>
  <course>359.92</course>
  <speed>0.92</speed>
  <fix>3d</fix>
</trkpt>
<trkpt lat="33.8099264" lon="-118.3944323">
  <ele>-50.023</ele>
  <time>2026-09-01T01:14:08Z</time>
  <course>4.05</course>
  <speed>0.8902246907382428</speed>
  <fix>3d</fix>
</trkpt>
<trkpt lat="33.8099255" lon="-118.3944325">
  <ele>-48.82</ele>
  <time>2026-09-01T01:14:08Z</time>
  <course>359.93</course>
  <speed>0.92</speed>
  <fix>3d</fix>
</trkpt>
<trkpt lat="33.8099273" lon="-118.3944323">
  <ele>-50.025</ele>
  <time>2026-09-01T01:14:08Z</time>
  <course>4.02</course>
  <speed>0.8902246907382428</speed>
  <fix>3d</fix>
</trkpt>
<trkpt lat="33.8099255" lon="-118.3944325">
  <ele>-48.82</ele>
  <time>2026-09-01T01:14:08Z</time>
  <course>359.93</course>
  <speed>0.92</speed>
  <fix>3d</fix>
</trkpt>
<trkpt lat="33.8099281" lon="-118.3944323">
  <ele>-50.025</ele>
  <time>2026-09-01T01:14:08Z</time>
  <course>3.99</course>
  <speed>0.8902246907382428</speed>
  <fix>3d</fix>
</trkpt>
<trkpt lat="33.8099272" lon="-118.3944325">
  <ele>-48.82</ele>
  <time>2026-09-01T01:14:08Z</time>
  <course>359.94</course>
  <speed>0.92</speed>
  <fix>3d</fix>
</trkpt>
<trkpt lat="33.8099289" lon="-118.3944323">
  <ele>-50.024</ele>
  <time>2026-09-01T01:14:08Z</time>
  <course>3.96</course>
  <speed>0.8902246907382428</speed>
  <fix>3d</fix>
</trkpt>
<trkpt lat="33.8099272" lon="-118.3944325">
  <ele>-48.82</ele>
  <time>2026-09-01T01:14:08Z</time>
  <course>359.94</course>
  <speed>0.92</speed>
  <fix>3d</fix>
</trkpt>
<trkpt lat="33.8099298" lon="-118.3944323">
  <ele>-50.023</ele>
  <time>2026-09-01T01:14:08Z</time>
  <course>3.93</course>
  <speed>0.900222194794152</speed>
  <fix>3d</fix>
</trkpt>
<trkpt lat="33.8099288" lon="-118.3944325">
  <ele>-48.82</ele>
  <time>2026-09-01T01:14:08Z</time>
  <course>359.96</course>
  <speed>0.92</speed>
  <fix>3d</fix>
</trkpt>
<trkpt lat="33.8099306" lon="-118.3944323">
  <ele>-50.023</ele>
  <time>2026-09-01T01:14:08Z</time>
  <course>3.9</course>
  <speed>0.900222194794152</speed>
  <fix>3d</fix>
</trkpt>
<trkpt lat="33.8099288" lon="-118.3944325">
  <ele>-48.82</ele>
  <time>2026-09-01T01:14:08Z</time>
  <course>359.96</course>
  <speed>0.92</speed>
  <fix>3d</fix>
</trkpt>
<trkpt lat="33.8099314" lon="-118.3944323">
  <ele>-50.022</ele>
  <time>2026-09-01T01:14:08Z</time>
  <course>3.86</course>
  <speed>0.900222194794152</speed>
  <fix>3d</fix>
</trkpt>
<trkpt lat="33.8099305" lon="-118.3944325">
  <ele>-48.81</ele>
  <time>2026-09-01T01:14:08Z</time>
  <course>359.99</course>
  <speed>0.92</speed>
  <fix>3d</fix>
</trkpt>
<trkpt lat="33.8099323" lon="-118.3944323">
  <ele>-50.021</ele>
  <time>2026-09-01T01:14:08Z</time>
  <course>3.82</course>
  <speed>0.900222194794152</speed>
  <fix>3d</fix>
</trkpt>
<trkpt lat="33.8099305" lon="-118.3944325">
  <ele>-48.81</ele>
  <time>2026-09-01T01:14:08Z</time>
  <course>359.99</course>
  <speed>0.92</speed>
  <fix>3d</fix>
</trkpt>
<trkpt lat="33.8099331" lon="-118.3944323">
  <ele>-50.019</ele>
  <time>2026-09-01T01:14:08Z</time>
  <course>3.78</course>
  <speed>0.900222194794152</speed>
  <fix>3d</fix>
</trkpt>
<trkpt lat="33.8099322" lon="-118.3944325">
  <ele>-48.81</ele>
  <time>2026-09-01T01:14:08Z</time>
  <course>0.0</course>
  <speed>0.93</speed>
  <fix>3d</fix>
</trkpt>
<trkpt lat="33.8099339" lon="-118.3944323">
  <ele>-50.018</ele>
  <time>2026-09-01T01:14:08Z</time>
  <course>3.74</course>
  <speed>0.900222194794152</speed>
  <fix>3d</fix>
</trkpt>
<trkpt lat="33.8099322" lon="-118.3944325">
  <ele>-48.81</ele>
  <time>2026-09-01T01:14:08Z</time>
  <course>0.0</course>
  <speed>0.93</speed>
  <fix>3d</fix>
</trkpt>
<trkpt lat="33.8099348" lon="-118.3944323">
  <ele>-50.016</ele>
  <time>2026-09-01T01:14:08Z</time>
  <course>3.71</course>
  <speed>0.900222194794152</speed>
  <fix>3d</fix>
</trkpt>
<trkpt lat="33.8099339" lon="-118.3944325">
  <ele>-48.81</ele>
  <time>2026-09-01T01:14:08Z</time>
  <course>0.01</course>
  <speed>0.93</speed>
  <fix>3d</fix>
</trkpt>
<trkpt lat="33.8099356" lon="-118.3944323">
  <ele>-50.016</ele>
  <time>2026-09-01T01:14:08Z</time>
  <course>3.68</course>
  <speed>0.900222194794152</speed>
  <fix>3d</fix>
</trkpt>
<trkpt lat="33.8099339" lon="-118.3944325">
  <ele>-48.81</ele>
  <time>2026-09-01T01:14:08Z</time>
  <course>0.01</course>
  <speed>0.93</speed>
  <fix>3d</fix>
</trkpt>
<trkpt lat="33.8099364" lon="-118.3944323">
  <ele>-50.016</ele>
  <time>2026-09-01T01:14:08Z</time>
  <course>3.66</course>
  <speed>0.9102197536858887</speed>
  <fix>3d</fix>
</trkpt>
<trkpt lat="33.8099355" lon="-118.3944325">
  <ele>-48.81</ele>
  <time>2026-09-01T01:14:08Z</time>
  <course>0.04</course>
  <speed>0.93</speed>
  <fix>3d</fix>
</trkpt>
<trkpt lat="33.8099373" lon="-118.3944323">
  <ele>-50.018</ele>
  <time>2026-09-01T01:14:08Z</time>
  <course>3.63</course>
  <speed>0.9102197536858887</speed>
  <fix>3d</fix>
</trkpt>
<trkpt lat="33.8099355" lon="-118.3944325">
  <ele>-48.81</ele>
  <time>2026-09-01T01:14:08Z</time>
  <course>0.04</course>
  <speed>0.93</speed>
  <fix>3d</fix>
</trkpt>
<trkpt lat="33.8099381" lon="-118.3944323">
  <ele>-50.021</ele>
  <time>2026-09-01T01:14:08Z</time>
  <course>3.6</course>
  <speed>0.9102197536858887</speed>
  <fix>3d</fix>
</trkpt>
<trkpt lat="33.8099372" lon="-118.3944325">
  <ele>-48.81</ele>
  <time>2026-09-01T01:14:08Z</time>
  <course>0.08</course>
  <speed>0.93</speed>
  <fix>3d</fix>
</trkpt>
<trkpt lat="33.809939" lon="-118.3944323">
  <ele>-50.022</ele>
  <time>2026-09-01T01:14:08Z</time>
  <course>3.57</course>
  <speed>0.9102197536858887</speed>
  <fix>3d</fix>
</trkpt>
<trkpt lat="33.8099372" lon="-118.3944325">
  <ele>-48.81</ele>
  <time>2026-09-01T01:14:08Z</time>
  <course>0.08</course>
  <speed>0.93</speed>
  <fix>3d</fix>
</trkpt>
<trkpt lat="33.8099398" lon="-118.3944323">
  <ele>-50.022</ele>
  <time>2026-09-01T01:14:08Z</time>
  <course>3.56</course>
  <speed>0.9102197536858887</speed>
  <fix>3d</fix>
</trkpt>
<trkpt lat="33.8099389" lon="-118.3944325">
  <ele>-48.81</ele>
  <time>2026-09-01T01:14:08Z</time>
  <course>0.11</course>
  <speed>0.94</speed>
  <fix>3d</fix>
</trkpt>
<trkpt lat="33.8099406" lon="-118.3944323">
  <ele>-50.022</ele>
  <time>2026-09-01T01:14:08Z</time>
  <course>3.52</course>
  <speed>0.9102197536858887</speed>
  <fix>3d</fix>
</trkpt>
<trkpt lat="33.8099389" lon="-118.3944325">
  <ele>-48.81</ele>
  <time>2026-09-01T01:14:08Z</time>
  <course>0.11</course>
  <speed>0.94</speed>
  <fix>3d</fix>
</trkpt>
<trkpt lat="33.8099415" lon="-118.3944323">
  <ele>-50.022</ele>
  <time>2026-09-01T01:14:08Z</time>
  <course>3.49</course>
  <speed>0.9102197536858887</speed>
  <fix>3d</fix>
</trkpt>
<trkpt lat="33.8099406" lon="-118.3944325">
  <ele>-48.81</ele>
  <time>2026-09-01T01:14:08Z</time>
  <course>0.14</course>
  <speed>0.94</speed>
  <fix>3d</fix>
</trkpt>
<trkpt lat="33.8099423" lon="-118.3944323">
  <ele>-50.021</ele>
  <time>2026-09-01T01:14:08Z</time>
  <course>3.46</course>
  <speed>0.9102197536858887</speed>
  <fix>3d</fix>
</trkpt>
<trkpt lat="33.8099406" lon="-118.3944325">
  <ele>-48.81</ele>
  <time>2026-09-01T01:14:08Z</time>
  <course>0.14</course>
  <speed>0.94</speed>
  <fix>3d</fix>
</trkpt>
<trkpt lat="33.8099432" lon="-118.3944323">
  <ele>-50.019</ele>
  <time>2026-09-01T01:14:08Z</time>
  <course>3.44</course>
  <speed>0.9102197536858887</speed>
  <fix>3d</fix>
</trkpt>
<trkpt lat="33.8099423" lon="-118.3944325">
  <ele>-48.81</ele>
  <time>2026-09-01T01:14:08Z</time>
  <course>0.16</course>
  <speed>0.94</speed>
  <fix>3d</fix>
</trkpt>
<trkpt lat="33.809944" lon="-118.3944323">
  <ele>-50.019</ele>
  <time>2026-09-01T01:14:08Z</time>
  <course>3.42</course>
  <speed>0.9102197536858887</speed>
  <fix>3d</fix>
</trkpt>
<trkpt lat="33.8099423" lon="-118.3944325">
  <ele>-48.81</ele>
  <time>2026-09-01T01:14:08Z</time>
  <course>0.16</course>
  <speed>0.94</speed>
  <fix>3d</fix>
</trkpt>
<trkpt lat="33.8099449" lon="-118.3944323">
  <ele>-50.018</ele>
  <time>2026-09-01T01:14:08Z</time>
  <course>3.4</course>
  <speed>0.9102197536858887</speed>
  <fix>3d</fix>
</trkpt>
<trkpt lat="33.809944" lon="-118.3944325">
  <ele>-48.81</ele>
  <time>2026-09-01T01:14:08Z</time>
  <course>0.18</course>
  <speed>0.94</speed>
  <fix>3d</fix>
</trkpt>
<trkpt lat="33.8099457" lon="-118.3944323">
  <ele>-50.018</ele>
  <time>2026-09-01T01:14:08Z</time>
  <course>3.37</course>
  <speed>0.9102197536858887</speed>
  <fix>3d</fix>
</trkpt>
<trkpt lat="33.809944" lon="-118.3944325">
  <ele>-48.81</ele>
  <time>2026-09-01T01:14:08Z</time>
  <course>0.18</course>
  <speed>0.94</speed>
  <fix>3d</fix>
</trkpt>
<trkpt lat="33.8099466" lon="-118.3944323">
  <ele>-50.019</ele>
  <time>2026-09-01T01:14:08Z</time>
  <course>3.35</course>
  <speed>0.9102197536858887</speed>
  <fix>3d</fix>
</trkpt>
<trkpt lat="33.8099457" lon="-118.3944325">
  <ele>-48.81</ele>
  <time>2026-09-01T01:14:08Z</time>
  <course>0.21</course>
  <speed>0.94</speed>
  <fix>3d</fix>
</trkpt>
<trkpt lat="33.8099474" lon="-118.3944323">
  <ele>-50.02</ele>
  <time>2026-09-01T01:14:08Z</time>
  <course>3.32</course>
  <speed>0.9102197536858887</speed>
  <fix>3d</fix>
</trkpt>
<trkpt lat="33.8099457" lon="-118.3944325">
  <ele>-48.81</ele>
  <time>2026-09-01T01:14:08Z</time>
  <course>0.21</course>
  <speed>0.94</speed>
  <fix>3d</fix>
</trkpt>
<trkpt lat="33.8099483" lon="-118.3944323">
  <ele>-50.021</ele>
  <time>2026-09-01T01:14:08Z</time>
  <course>3.3</course>
  <speed>0.9102197536858887</speed>
  <fix>3d</fix>
</trkpt>
<trkpt lat="33.8099474" lon="-118.3944325">
  <ele>-48.81</ele>
  <time>2026-09-01T01:14:08Z</time>
  <course>0.24</course>
  <speed>0.94</speed>
  <fix>3d</fix>
</trkpt>
<trkpt lat="33.8099491" lon="-118.3944323">
  <ele>-50.021</ele>
  <time>2026-09-01T01:14:08Z</time>
  <course>3.27</course>
  <speed>0.9102197536858887</speed>
  <fix>3d</fix>
</trkpt>
<trkpt lat="33.8099474" lon="-118.3944325">
  <ele>-48.81</ele>
  <time>2026-09-01T01:14:08Z</time>
  <course>0.24</course>
  <speed>0.94</speed>
  <fix>3d</fix>
</trkpt>
<trkpt lat="33.80995" lon="-118.3944323">
  <ele>-50.02</ele>
  <time>2026-09-01T01:14:08Z</time>
  <course>3.25</course>
  <speed>0.9102197536858887</speed>
  <fix>3d</fix>
</trkpt>
<trkpt lat="33.8099491" lon="-118.3944325">
  <ele>-48.81</ele>
  <time>2026-09-01T01:14:08Z</time>
  <course>0.26</course>
  <speed>0.94</speed>
  <fix>3d</fix>
</trkpt>
<trkpt lat="33.8099508" lon="-118.3944323">
  <ele>-50.019</ele>
  <time>2026-09-01T01:14:08Z</time>
  <course>3.22</course>
  <speed>0.9102197536858887</speed>
  <fix>3d</fix>
</trkpt>
<trkpt lat="33.8099491" lon="-118.3944325">
  <ele>-48.81</ele>
  <time>2026-09-01T01:14:08Z</time>
  <course>0.26</course>
  <speed>0.94</speed>
  <fix>3d</fix>
</trkpt>
<trkpt lat="33.8099517" lon="-118.3944323">
  <ele>-50.018</ele>
  <time>2026-09-01T01:14:08Z</time>
  <course>3.2</course>
  <speed>0.9102197536858887</speed>
  <fix>3d</fix>
</trkpt>
<trkpt lat="33.8099508" lon="-118.3944325">
  <ele>-48.8</ele>
  <time>2026-09-01T01:14:08Z</time>
  <course>0.28</course>
  <speed>0.94</speed>
  <fix>3d</fix>
</trkpt>
<trkpt lat="33.8099525" lon="-118.3944323">
  <ele>-50.018</ele>
  <time>2026-09-01T01:14:08Z</time>
  <course>3.17</course>
  <speed>0.9102197536858887</speed>
  <fix>3d</fix>
</trkpt>
<trkpt lat="33.8099508" lon="-118.3944325">
  <ele>-48.8</ele>
  <time>2026-09-01T01:14:08Z</time>
  <course>0.28</course>
  <speed>0.94</speed>
  <fix>3d</fix>
</trkpt>
<trkpt lat="33.8099534" lon="-118.3944323">
  <ele>-50.017</ele>
  <time>2026-09-01T01:14:08Z</time>
  <course>3.14</course>
  <speed>0.9102197536858887</speed>
  <fix>3d</fix>
</trkpt>
<trkpt lat="33.8099525" lon="-118.3944325">
  <ele>-48.8</ele>
  <time>2026-09-01T01:14:08Z</time>
  <course>0.31</course>
  <speed>0.94</speed>
  <fix>3d</fix>
</trkpt>
<trkpt lat="33.8099542" lon="-118.3944323">
  <ele>-50.017</ele>
  <time>2026-09-01T01:14:08Z</time>
  <course>3.12</course>
  <speed>0.9102197536858887</speed>
  <fix>3d</fix>
</trkpt>
<trkpt lat="33.8099525" lon="-118.3944325">
  <ele>-48.8</ele>
  <time>2026-09-01T01:14:08Z</time>
  <course>0.31</course>
  <speed>0.94</speed>
  <fix>3d</fix>
</trkpt>
<trkpt lat="33.8099551" lon="-118.3944323">
  <ele>-50.016</ele>
  <time>2026-09-01T01:14:08Z</time>
  <course>3.1</course>
  <speed>0.9202173656261873</speed>
  <fix>3d</fix>
</trkpt>
<trkpt lat="33.8099542" lon="-118.3944325">
  <ele>-48.8</ele>
  <time>2026-09-01T01:14:08Z</time>
  <course>0.33</course>
  <speed>0.94</speed>
  <fix>3d</fix>
</trkpt>
<trkpt lat="33.8099559" lon="-118.3944323">
  <ele>-50.017</ele>
  <time>2026-09-01T01:14:08Z</time>
  <course>3.07</course>
  <speed>0.9202173656261873</speed>
  <fix>3d</fix>
</trkpt>
<trkpt lat="33.8099542" lon="-118.3944325">
  <ele>-48.8</ele>
  <time>2026-09-01T01:14:08Z</time>
  <course>0.33</course>
  <speed>0.94</speed>
  <fix>3d</fix>
</trkpt>
<trkpt lat="33.8099568" lon="-118.3944323">
  <ele>-50.018</ele>
  <time>2026-09-01T01:14:08Z</time>
  <course>3.05</course>
  <speed>0.9202173656261873</speed>
  <fix>3d</fix>
</trkpt>
<trkpt lat="33.8099559" lon="-118.3944325">
  <ele>-48.8</ele>
  <time>2026-09-01T01:14:08Z</time>
  <course>0.35</course>
  <speed>0.94</speed>
  <fix>3d</fix>
</trkpt>
<trkpt lat="33.8099576" lon="-118.3944323">
  <ele>-50.02</ele>
  <time>2026-09-01T01:14:08Z</time>
  <course>3.02</course>
  <speed>0.9202173656261873</speed>
  <fix>3d</fix>
</trkpt>
<trkpt lat="33.8099559" lon="-118.3944325">
  <ele>-48.8</ele>
  <time>2026-09-01T01:14:08Z</time>
  <course>0.35</course>
  <speed>0.94</speed>
  <fix>3d</fix>
</trkpt>
<trkpt lat="33.8099585" lon="-118.3944323">
  <ele>-50.021</ele>
  <time>2026-09-01T01:14:08Z</time>
  <course>3.01</course>
  <speed>0.9202173656261873</speed>
  <fix>3d</fix>
</trkpt>
<trkpt lat="33.8099576" lon="-118.3944325">
  <ele>-48.81</ele>
  <time>2026-09-01T01:14:08Z</time>
  <course>0.38</course>
  <speed>0.95</speed>
  <fix>3d</fix>
</trkpt>
<trkpt lat="33.8099593" lon="-118.3944323">
  <ele>-50.022</ele>
  <time>2026-09-01T01:14:08Z</time>
  <course>2.98</course>
  <speed>0.9202173656261873</speed>
  <fix>3d</fix>
</trkpt>
<trkpt lat="33.8099576" lon="-118.3944325">
  <ele>-48.81</ele>
  <time>2026-09-01T01:14:08Z</time>
  <course>0.38</course>
  <speed>0.95</speed>
  <fix>3d</fix>
</trkpt>
<trkpt lat="33.8099602" lon="-118.3944323">
  <ele>-50.023</ele>
  <time>2026-09-01T01:14:08Z</time>
  <course>2.96</course>
  <speed>0.9202173656261873</speed>
  <fix>3d</fix>
</trkpt>
<trkpt lat="33.8099593" lon="-118.3944325">
  <ele>-48.81</ele>
  <time>2026-09-01T01:14:08Z</time>
  <course>0.43</course>
  <speed>0.95</speed>
  <fix>3d</fix>
</trkpt>
<trkpt lat="33.809961" lon="-118.3944322">
  <ele>-50.022</ele>
  <time>2026-09-01T01:14:08Z</time>
  <course>2.94</course>
  <speed>0.9202173656261873</speed>
  <fix>3d</fix>
</trkpt>
<trkpt lat="33.8099593" lon="-118.3944325">
  <ele>-48.81</ele>
  <time>2026-09-01T01:14:08Z</time>
  <course>0.43</course>
  <speed>0.95</speed>
  <fix>3d</fix>
</trkpt>
<trkpt lat="33.8099619" lon="-118.3944322">
  <ele>-50.021</ele>
  <time>2026-09-01T01:14:08Z</time>
  <course>2.92</course>
  <speed>0.9202173656261873</speed>
  <fix>3d</fix>
</trkpt>
<trkpt lat="33.809961" lon="-118.3944325">
  <ele>-48.81</ele>
  <time>2026-09-01T01:14:08Z</time>
  <course>0.46</course>
  <speed>0.95</speed>
  <fix>3d</fix>
</trkpt>
<trkpt lat="33.8099628" lon="-118.3944322">
  <ele>-50.02</ele>
  <time>2026-09-01T01:14:08Z</time>
  <course>2.89</course>
  <speed>0.9202173656261873</speed>
  <fix>3d</fix>
</trkpt>
<trkpt lat="33.809961" lon="-118.3944325">
  <ele>-48.81</ele>
  <time>2026-09-01T01:14:08Z</time>
  <course>0.46</course>
  <speed>0.95</speed>
  <fix>3d</fix>
</trkpt>
<trkpt lat="33.8099636" lon="-118.3944322">
  <ele>-50.02</ele>
  <time>2026-09-01T01:14:08Z</time>
  <course>2.87</course>
  <speed>0.9202173656261873</speed>
  <fix>3d</fix>
</trkpt>
<trkpt lat="33.8099627" lon="-118.3944325">
  <ele>-48.8</ele>
  <time>2026-09-01T01:14:08Z</time>
  <course>0.47</course>
  <speed>0.95</speed>
  <fix>3d</fix>
</trkpt>
<trkpt lat="33.8099645" lon="-118.3944322">
  <ele>-50.019</ele>
  <time>2026-09-01T01:14:08Z</time>
  <course>2.84</course>
  <speed>0.9202173656261873</speed>
  <fix>3d</fix>
</trkpt>
<trkpt lat="33.8099627" lon="-118.3944325">
  <ele>-48.8</ele>
  <time>2026-09-01T01:14:08Z</time>
  <course>0.47</course>
  <speed>0.95</speed>
  <fix>3d</fix>
</trkpt>
<trkpt lat="33.8099653" lon="-118.3944322">
  <ele>-50.019</ele>
  <time>2026-09-01T01:14:08Z</time>
  <course>2.82</course>
  <speed>0.9202173656261873</speed>
  <fix>3d</fix>
</trkpt>
<trkpt lat="33.8099644" lon="-118.3944325">
  <ele>-48.8</ele>
  <time>2026-09-01T01:14:08Z</time>
  <course>0.49</course>
  <speed>0.95</speed>
  <fix>3d</fix>
</trkpt>
<trkpt lat="33.8099662" lon="-118.3944322">
  <ele>-50.02</ele>
  <time>2026-09-01T01:14:08Z</time>
  <course>2.79</course>
  <speed>0.9202173656261873</speed>
  <fix>3d</fix>
</trkpt>
<trkpt lat="33.8099644" lon="-118.3944325">
  <ele>-48.8</ele>
  <time>2026-09-01T01:14:08Z</time>
  <course>0.49</course>
  <speed>0.95</speed>
  <fix>3d</fix>
</trkpt>
<trkpt lat="33.809967" lon="-118.3944322">
  <ele>-50.02</ele>
  <time>2026-09-01T01:14:08Z</time>
  <course>2.78</course>
  <speed>0.9302150289046076</speed>
  <fix>3d</fix>
</trkpt>
<trkpt lat="33.8099662" lon="-118.3944325">
  <ele>-48.8</ele>
  <time>2026-09-01T01:14:08Z</time>
  <course>0.51</course>
  <speed>0.95</speed>
  <fix>3d</fix>
</trkpt>
<trkpt lat="33.8099679" lon="-118.3944322">
  <ele>-50.02</ele>
  <time>2026-09-01T01:14:08Z</time>
  <course>2.76</course>
  <speed>0.9302150289046076</speed>
  <fix>3d</fix>
</trkpt>
<trkpt lat="33.8099662" lon="-118.3944325">
  <ele>-48.8</ele>
  <time>2026-09-01T01:14:08Z</time>
  <course>0.51</course>
  <speed>0.95</speed>
  <fix>3d</fix>
</trkpt>
<trkpt lat="33.8099688" lon="-118.3944322">
  <ele>-50.019</ele>
  <time>2026-09-01T01:14:08Z</time>
  <course>2.74</course>
  <speed>0.9302150289046076</speed>
  <fix>3d</fix>
</trkpt>
<trkpt lat="33.8099679" lon="-118.3944325">
  <ele>-48.8</ele>
  <time>2026-09-01T01:14:08Z</time>
  <course>0.53</course>
  <speed>0.95</speed>
  <fix>3d</fix>
</trkpt>
<trkpt lat="33.8099696" lon="-118.3944322">
  <ele>-50.018</ele>
  <time>2026-09-01T01:14:08Z</time>
  <course>2.71</course>
  <speed>0.9302150289046076</speed>
  <fix>3d</fix>
</trkpt>
<trkpt lat="33.8099679" lon="-118.3944325">
  <ele>-48.8</ele>
  <time>2026-09-01T01:14:08Z</time>
  <course>0.53</course>
  <speed>0.95</speed>
  <fix>3d</fix>
</trkpt>
<trkpt lat="33.8099705" lon="-118.3944322">
  <ele>-50.016</ele>
  <time>2026-09-01T01:14:08Z</time>
  <course>2.69</course>
  <speed>0.9302150289046076</speed>
  <fix>3d</fix>
</trkpt>
<trkpt lat="33.8099696" lon="-118.3944325">
  <ele>-48.8</ele>
  <time>2026-09-01T01:14:08Z</time>
  <course>0.55</course>
  <speed>0.95</speed>
  <fix>3d</fix>
</trkpt>
<trkpt lat="33.8099714" lon="-118.3944322">
  <ele>-50.015</ele>
  <time>2026-09-01T01:14:08Z</time>
  <course>2.67</course>
  <speed>0.9302150289046076</speed>
  <fix>3d</fix>
</trkpt>
<trkpt lat="33.8099696" lon="-118.3944325">
  <ele>-48.8</ele>
  <time>2026-09-01T01:14:08Z</time>
  <course>0.55</course>
  <speed>0.95</speed>
  <fix>3d</fix>
</trkpt>
<trkpt lat="33.8099722" lon="-118.3944322">
  <ele>-50.013</ele>
  <time>2026-09-01T01:14:08Z</time>
  <course>2.66</course>
  <speed>0.9302150289046076</speed>
  <fix>3d</fix>
</trkpt>
<trkpt lat="33.8099713" lon="-118.3944324">
  <ele>-48.8</ele>
  <time>2026-09-01T01:14:08Z</time>
  <course>0.56</course>
  <speed>0.95</speed>
  <fix>3d</fix>
</trkpt>
<trkpt lat="33.8099731" lon="-118.3944322">
  <ele>-50.013</ele>
  <time>2026-09-01T01:14:08Z</time>
  <course>2.63</course>
  <speed>0.9302150289046076</speed>
  <fix>3d</fix>
</trkpt>
<trkpt lat="33.8099713" lon="-118.3944324">
  <ele>-48.8</ele>
  <time>2026-09-01T01:14:08Z</time>
  <course>0.56</course>
  <speed>0.95</speed>
  <fix>3d</fix>
</trkpt>
<trkpt lat="33.8099739" lon="-118.3944322">
  <ele>-50.013</ele>
  <time>2026-09-01T01:14:08Z</time>
  <course>2.59</course>
  <speed>0.9302150289046076</speed>
  <fix>3d</fix>
</trkpt>
<trkpt lat="33.809973" lon="-118.3944324">
  <ele>-48.8</ele>
  <time>2026-09-01T01:14:08Z</time>
  <course>0.55</course>
  <speed>0.95</speed>
  <fix>3d</fix>
</trkpt>
<trkpt lat="33.8099748" lon="-118.3944322">
  <ele>-50.015</ele>
  <time>2026-09-01T01:14:08Z</time>
  <course>2.53</course>
  <speed>0.9302150289046076</speed>
  <fix>3d</fix>
</trkpt>
<trkpt lat="33.809973" lon="-118.3944324">
  <ele>-48.8</ele>
  <time>2026-09-01T01:14:08Z</time>
  <course>0.55</course>
  <speed>0.95</speed>
  <fix>3d</fix>
</trkpt>
<trkpt lat="33.8099757" lon="-118.3944322">
  <ele>-50.017</ele>
  <time>2026-09-01T01:14:08Z</time>
  <course>2.47</course>
  <speed>0.9302150289046076</speed>
  <fix>3d</fix>
</trkpt>
<trkpt lat="33.8099748" lon="-118.3944324">
  <ele>-48.8</ele>
  <time>2026-09-01T01:14:08Z</time>
  <course>0.5</course>
  <speed>0.96</speed>
  <fix>3d</fix>
</trkpt>
<trkpt lat="33.8099765" lon="-118.3944322">
  <ele>-50.02</ele>
  <time>2026-09-01T01:14:08Z</time>
  <course>2.4</course>
  <speed>0.9302150289046076</speed>
  <fix>3d</fix>
</trkpt>
<trkpt lat="33.8099748" lon="-118.3944324">
  <ele>-48.8</ele>
  <time>2026-09-01T01:14:08Z</time>
  <course>0.5</course>
  <speed>0.96</speed>
  <fix>3d</fix>
</trkpt>
<trkpt lat="33.8099774" lon="-118.3944322">
  <ele>-50.022</ele>
  <time>2026-09-01T01:14:08Z</time>
  <course>2.34</course>
  <speed>0.9302150289046076</speed>
  <fix>3d</fix>
</trkpt>
<trkpt lat="33.8099765" lon="-118.3944324">
  <ele>-48.81</ele>
  <time>2026-09-01T01:14:08Z</time>
  <course>0.43</course>
  <speed>0.96</speed>
  <fix>3d</fix>
</trkpt>
<trkpt lat="33.8099783" lon="-118.3944322">
  <ele>-50.022</ele>
  <time>2026-09-01T01:14:08Z</time>
  <course>2.28</course>
  <speed>0.9302150289046076</speed>
  <fix>3d</fix>
</trkpt>
<trkpt lat="33.8099765" lon="-118.3944324">
  <ele>-48.81</ele>
  <time>2026-09-01T01:14:08Z</time>
  <course>0.43</course>
  <speed>0.96</speed>
  <fix>3d</fix>
</trkpt>
<trkpt lat="33.8099791" lon="-118.3944322">
  <ele>-50.022</ele>
  <time>2026-09-01T01:14:08Z</time>
  <course>2.23</course>
  <speed>0.9302150289046076</speed>
  <fix>3d</fix>
</trkpt>
<trkpt lat="33.8099783" lon="-118.3944324">
  <ele>-48.81</ele>
  <time>2026-09-01T01:14:08Z</time>
  <course>0.38</course>
  <speed>0.96</speed>
  <fix>3d</fix>
</trkpt>
<trkpt lat="33.80998" lon="-118.3944322">
  <ele>-50.021</ele>
  <time>2026-09-01T01:14:08Z</time>
  <course>2.18</course>
  <speed>0.9302150289046076</speed>
  <fix>3d</fix>
</trkpt>
<trkpt lat="33.8099783" lon="-118.3944324">
  <ele>-48.81</ele>
  <time>2026-09-01T01:14:08Z</time>
  <course>0.38</course>
  <speed>0.96</speed>
  <fix>3d</fix>
</trkpt>
<trkpt lat="33.8099809" lon="-118.3944322">
  <ele>-50.02</ele>
  <time>2026-09-01T01:14:08Z</time>
  <course>2.15</course>
  <speed>0.9302150289046076</speed>
  <fix>3d</fix>
</trkpt>
<trkpt lat="33.80998" lon="-118.3944324">
  <ele>-48.81</ele>
  <time>2026-09-01T01:14:08Z</time>
  <course>0.35</course>
  <speed>0.96</speed>
  <fix>3d</fix>
</trkpt>
<trkpt lat="33.8099817" lon="-118.3944322">
  <ele>-50.02</ele>
  <time>2026-09-01T01:14:08Z</time>
  <course>2.11</course>
  <speed>0.9302150289046076</speed>
  <fix>3d</fix>
</trkpt>
<trkpt lat="33.80998" lon="-118.3944324">
  <ele>-48.81</ele>
  <time>2026-09-01T01:14:08Z</time>
  <course>0.35</course>
  <speed>0.96</speed>
  <fix>3d</fix>
</trkpt>
<trkpt lat="33.8099826" lon="-118.3944322">
  <ele>-50.019</ele>
  <time>2026-09-01T01:14:08Z</time>
  <course>2.08</course>
  <speed>0.9302150289046076</speed>
  <fix>3d</fix>
</trkpt>
<trkpt lat="33.8099817" lon="-118.3944323">
  <ele>-48.81</ele>
  <time>2026-09-01T01:14:08Z</time>
  <course>0.33</course>
  <speed>0.96</speed>
  <fix>3d</fix>
</trkpt>
<trkpt lat="33.8099835" lon="-118.3944322">
  <ele>-50.019</ele>
  <time>2026-09-01T01:14:08Z</time>
  <course>2.05</course>
  <speed>0.9302150289046076</speed>
  <fix>3d</fix>
</trkpt>
<trkpt lat="33.8099817" lon="-118.3944323">
  <ele>-48.81</ele>
  <time>2026-09-01T01:14:08Z</time>
  <course>0.33</course>
  <speed>0.96</speed>
  <fix>3d</fix>
</trkpt>
<trkpt lat="33.8099844" lon="-118.3944322">
  <ele>-50.019</ele>
  <time>2026-09-01T01:14:08Z</time>
  <course>2.01</course>
  <speed>0.9302150289046076</speed>
  <fix>3d</fix>
</trkpt>
<trkpt lat="33.8099834" lon="-118.3944323">
  <ele>-48.81</ele>
  <time>2026-09-01T01:14:08Z</time>
  <course>0.28</course>
  <speed>0.96</speed>
  <fix>3d</fix>
</trkpt>
<trkpt lat="33.8099852" lon="-118.3944322">
  <ele>-50.019</ele>
  <time>2026-09-01T01:14:08Z</time>
  <course>1.95</course>
  <speed>0.9402127418834527</speed>
  <fix>3d</fix>
</trkpt>
<trkpt lat="33.8099834" lon="-118.3944323">
  <ele>-48.81</ele>
  <time>2026-09-01T01:14:08Z</time>
  <course>0.28</course>
  <speed>0.96</speed>
  <fix>3d</fix>
</trkpt>
<trkpt lat="33.8099861" lon="-118.3944322">
  <ele>-50.018</ele>
  <time>2026-09-01T01:14:08Z</time>
  <course>1.88</course>
  <speed>0.9402127418834527</speed>
  <fix>3d</fix>
</trkpt>
<trkpt lat="33.8099852" lon="-118.3944323">
  <ele>-48.81</ele>
  <time>2026-09-01T01:14:08Z</time>
  <course>0.2</course>
  <speed>0.96</speed>
  <fix>3d</fix>
</trkpt>
<trkpt lat="33.809987" lon="-118.3944322">
  <ele>-50.018</ele>
  <time>2026-09-01T01:14:08Z</time>
  <course>1.82</course>
  <speed>0.9402127418834527</speed>
  <fix>3d</fix>
</trkpt>
<trkpt lat="33.8099852" lon="-118.3944323">
  <ele>-48.81</ele>
  <time>2026-09-01T01:14:08Z</time>
  <course>0.2</course>
  <speed>0.96</speed>
  <fix>3d</fix>
</trkpt>
<trkpt lat="33.8099878" lon="-118.3944322">
  <ele>-50.02</ele>
  <time>2026-09-01T01:14:08Z</time>
  <course>1.76</course>
  <speed>0.9400531899844816</speed>
  <fix>3d</fix>
</trkpt>
<trkpt lat="33.8099869" lon="-118.3944323">
  <ele>-48.81</ele>
  <time>2026-09-01T01:14:08Z</time>
  <course>0.12</course>
  <speed>0.96</speed>
  <fix>3d</fix>
</trkpt>
<trkpt lat="33.8099887" lon="-118.3944322">
  <ele>-50.021</ele>
  <time>2026-09-01T01:14:08Z</time>
  <course>1.7</course>
  <speed>0.9402127418834527</speed>
  <fix>3d</fix>
</trkpt>
<trkpt lat="33.8099869" lon="-118.3944323">
  <ele>-48.81</ele>
  <time>2026-09-01T01:14:08Z</time>
  <course>0.12</course>
  <speed>0.96</speed>
  <fix>3d</fix>
</trkpt>
<trkpt lat="33.8099896" lon="-118.3944322">
  <ele>-50.02</ele>
  <time>2026-09-01T01:14:08Z</time>
  <course>1.66</course>
  <speed>0.9400531899844816</speed>
  <fix>3d</fix>
</trkpt>
<trkpt lat="33.8099887" lon="-118.3944323">
  <ele>-48.81</ele>
  <time>2026-09-01T01:14:08Z</time>
  <course>0.05</course>
  <speed>0.96</speed>
  <fix>3d</fix>
</trkpt>
<trkpt lat="33.8099905" lon="-118.3944322">
  <ele>-50.019</ele>
  <time>2026-09-01T01:14:08Z</time>
  <course>1.61</course>
  <speed>0.9400531899844816</speed>
  <fix>3d</fix>
</trkpt>
<trkpt lat="33.8099887" lon="-118.3944323">
  <ele>-48.81</ele>
  <time>2026-09-01T01:14:08Z</time>
  <course>0.05</course>
  <speed>0.96</speed>
  <fix>3d</fix>
</trkpt>
<trkpt lat="33.8099913" lon="-118.3944322">
  <ele>-50.017</ele>
  <time>2026-09-01T01:14:08Z</time>
  <course>1.58</course>
  <speed>0.9400531899844816</speed>
  <fix>3d</fix>
</trkpt>
<trkpt lat="33.8099904" lon="-118.3944323">
  <ele>-48.81</ele>
  <time>2026-09-01T01:14:08Z</time>
  <course>0.0</course>
  <speed>0.96</speed>
  <fix>3d</fix>
</trkpt>
<trkpt lat="33.8099922" lon="-118.3944321">
  <ele>-50.016</ele>
  <time>2026-09-01T01:14:08Z</time>
  <course>1.54</course>
  <speed>0.9400531899844816</speed>
  <fix>3d</fix>
</trkpt>
<trkpt lat="33.8099904" lon="-118.3944323">
  <ele>-48.81</ele>
  <time>2026-09-01T01:14:08Z</time>
  <course>0.0</course>
  <speed>0.96</speed>
  <fix>3d</fix>
</trkpt>
<trkpt lat="33.8099931" lon="-118.3944321">
  <ele>-50.015</ele>
  <time>2026-09-01T01:14:08Z</time>
  <course>1.52</course>
  <speed>0.9400531899844816</speed>
  <fix>3d</fix>
</trkpt>
<trkpt lat="33.8099921" lon="-118.3944323">
  <ele>-48.81</ele>
  <time>2026-09-01T01:14:08Z</time>
  <course>359.95</course>
  <speed>0.96</speed>
  <fix>3d</fix>
</trkpt>
<trkpt lat="33.8099939" lon="-118.3944321">
  <ele>-50.016</ele>
  <time>2026-09-01T01:14:08Z</time>
  <course>1.5</course>
  <speed>0.9400531899844816</speed>
  <fix>3d</fix>
</trkpt>
<trkpt lat="33.8099921" lon="-118.3944323">
  <ele>-48.81</ele>
  <time>2026-09-01T01:14:08Z</time>
  <course>359.95</course>
  <speed>0.96</speed>
  <fix>3d</fix>
</trkpt>
<trkpt lat="33.8099948" lon="-118.3944321">
  <ele>-50.018</ele>
  <time>2026-09-01T01:14:08Z</time>
  <course>1.48</course>
  <speed>0.9400531899844816</speed>
  <fix>3d</fix>
</trkpt>
<trkpt lat="33.8099938" lon="-118.3944323">
  <ele>-48.81</ele>
  <time>2026-09-01T01:14:08Z</time>
  <course>359.93</course>
  <speed>0.96</speed>
  <fix>3d</fix>
</trkpt>
<trkpt lat="33.8099957" lon="-118.3944321">
  <ele>-50.021</ele>
  <time>2026-09-01T01:14:08Z</time>
  <course>1.45</course>
  <speed>0.9400531899844816</speed>
  <fix>3d</fix>
</trkpt>
<trkpt lat="33.8099938" lon="-118.3944323">
  <ele>-48.81</ele>
  <time>2026-09-01T01:14:08Z</time>
  <course>359.93</course>
  <speed>0.96</speed>
  <fix>3d</fix>
</trkpt>
<trkpt lat="33.8099966" lon="-118.3944321">
  <ele>-50.023</ele>
  <time>2026-09-01T01:14:08Z</time>
  <course>1.44</course>
  <speed>0.9400531899844816</speed>
  <fix>3d</fix>
</trkpt>
<trkpt lat="33.8099956" lon="-118.3944323">
  <ele>-48.82</ele>
  <time>2026-09-01T01:14:08Z</time>
  <course>359.92</course>
  <speed>0.97</speed>
  <fix>3d</fix>
</trkpt>
<trkpt lat="33.8099974" lon="-118.3944321">
  <ele>-50.024</ele>
  <time>2026-09-01T01:14:08Z</time>
  <course>1.43</course>
  <speed>0.9500526301210896</speed>
  <fix>3d</fix>
</trkpt>
<trkpt lat="33.8099956" lon="-118.3944323">
  <ele>-48.82</ele>
  <time>2026-09-01T01:14:08Z</time>
  <course>359.92</course>
  <speed>0.97</speed>
  <fix>3d</fix>
</trkpt>
<trkpt lat="33.8099983" lon="-118.3944321">
  <ele>-50.025</ele>
  <time>2026-09-01T01:14:08Z</time>
  <course>1.43</course>
  <speed>0.9500526301210896</speed>
  <fix>3d</fix>
</trkpt>
<trkpt lat="33.8099974" lon="-118.3944323">
  <ele>-48.82</ele>
  <time>2026-09-01T01:14:08Z</time>
  <course>359.89</course>
  <speed>0.97</speed>
  <fix>3d</fix>
</trkpt>
<trkpt lat="33.8099992" lon="-118.3944321">
  <ele>-50.027</ele>
  <time>2026-09-01T01:14:08Z</time>
  <course>1.42</course>
  <speed>0.9500526301210896</speed>
  <fix>3d</fix>
</trkpt>
<trkpt lat="33.8099974" lon="-118.3944323">
  <ele>-48.82</ele>
  <time>2026-09-01T01:14:08Z</time>
  <course>359.89</course>
  <speed>0.97</speed>
  <fix>3d</fix>
</trkpt>
<trkpt lat="33.8100001" lon="-118.3944321">
  <ele>-50.027</ele>
  <time>2026-09-01T01:14:08Z</time>
  <course>1.41</course>
  <speed>0.9500526301210896</speed>
  <fix>3d</fix>
</trkpt>
<trkpt lat="33.8099991" lon="-118.3944323">
  <ele>-48.82</ele>
  <time>2026-09-01T01:14:08Z</time>
  <course>359.86</course>
  <speed>0.97</speed>
  <fix>3d</fix>
</trkpt>
<trkpt lat="33.8100009" lon="-118.3944321">
  <ele>-50.027</ele>
  <time>2026-09-01T01:14:08Z</time>
  <course>1.4</course>
  <speed>0.9500526301210896</speed>
  <fix>3d</fix>
</trkpt>
<trkpt lat="33.8099991" lon="-118.3944323">
  <ele>-48.82</ele>
  <time>2026-09-01T01:14:08Z</time>
  <course>359.86</course>
  <speed>0.97</speed>
  <fix>3d</fix>
</trkpt>
<trkpt lat="33.8100018" lon="-118.3944321">
  <ele>-50.026</ele>
  <time>2026-09-01T01:14:08Z</time>
  <course>1.4</course>
  <speed>0.9500526301210896</speed>
  <fix>3d</fix>
</trkpt>
<trkpt lat="33.8100009" lon="-118.3944323">
  <ele>-48.82</ele>
  <time>2026-09-01T01:14:08Z</time>
  <course>359.85</course>
  <speed>0.97</speed>
  <fix>3d</fix>
</trkpt>
<trkpt lat="33.8100027" lon="-118.3944321">
  <ele>-50.025</ele>
  <time>2026-09-01T01:14:08Z</time>
  <course>1.4</course>
  <speed>0.9502105029939419</speed>
  <fix>3d</fix>
</trkpt>
<trkpt lat="33.8100009" lon="-118.3944323">
  <ele>-48.82</ele>
  <time>2026-09-01T01:14:08Z</time>
  <course>359.85</course>
  <speed>0.97</speed>
  <fix>3d</fix>
</trkpt>
<trkpt lat="33.8100036" lon="-118.3944321">
  <ele>-50.022</ele>
  <time>2026-09-01T01:14:08Z</time>
  <course>1.4</course>
  <speed>0.9500526301210896</speed>
  <fix>3d</fix>
</trkpt>
<trkpt lat="33.8100026" lon="-118.3944323">
  <ele>-48.81</ele>
  <time>2026-09-01T01:14:08Z</time>
  <course>359.84</course>
  <speed>0.97</speed>
  <fix>3d</fix>
</trkpt>
<trkpt lat="33.8100045" lon="-118.3944321">
  <ele>-50.02</ele>
  <time>2026-09-01T01:14:08Z</time>
  <course>1.39</course>
  <speed>0.9502105029939419</speed>
  <fix>3d</fix>
</trkpt>
<trkpt lat="33.8100026" lon="-118.3944323">
  <ele>-48.81</ele>
  <time>2026-09-01T01:14:08Z</time>
  <course>359.84</course>
  <speed>0.97</speed>
  <fix>3d</fix>
</trkpt>
<trkpt lat="33.8100053" lon="-118.3944321">
  <ele>-50.018</ele>
  <time>2026-09-01T01:14:08Z</time>
  <course>1.39</course>
  <speed>0.9500526301210896</speed>
  <fix>3d</fix>
</trkpt>
<trkpt lat="33.8100043" lon="-118.3944323">
  <ele>-48.81</ele>
  <time>2026-09-01T01:14:08Z</time>
  <course>359.83</course>
  <speed>0.97</speed>
  <fix>3d</fix>
</trkpt>
<trkpt lat="33.8100062" lon="-118.3944321">
  <ele>-50.016</ele>
  <time>2026-09-01T01:14:08Z</time>
  <course>1.38</course>
  <speed>0.9502105029939419</speed>
  <fix>3d</fix>
</trkpt>
<trkpt lat="33.8100043" lon="-118.3944323">
  <ele>-48.81</ele>
  <time>2026-09-01T01:14:08Z</time>
  <course>359.83</course>
  <speed>0.97</speed>
  <fix>3d</fix>
</trkpt>
<trkpt lat="33.8100071" lon="-118.3944321">
  <ele>-50.016</ele>
  <time>2026-09-01T01:14:08Z</time>
  <course>1.38</course>
  <speed>0.9500526301210896</speed>
  <fix>3d</fix>
</trkpt>
<trkpt lat="33.8100061" lon="-118.3944323">
  <ele>-48.8</ele>
  <time>2026-09-01T01:14:08Z</time>
  <course>359.8</course>
  <speed>0.97</speed>
  <fix>3d</fix>
</trkpt>
<trkpt lat="33.810008" lon="-118.3944321">
  <ele>-50.017</ele>
  <time>2026-09-01T01:14:08Z</time>
  <course>1.37</course>
  <speed>0.9502105029939419</speed>
  <fix>3d</fix>
</trkpt>
<trkpt lat="33.8100061" lon="-118.3944323">
  <ele>-48.8</ele>
  <time>2026-09-01T01:14:08Z</time>
  <course>359.8</course>
  <speed>0.97</speed>
  <fix>3d</fix>
</trkpt>
<trkpt lat="33.8100089" lon="-118.3944321">
  <ele>-50.018</ele>
  <time>2026-09-01T01:14:08Z</time>
  <course>1.37</course>
  <speed>0.9500526301210896</speed>
  <fix>3d</fix>
</trkpt>
<trkpt lat="33.8100079" lon="-118.3944323">
  <ele>-48.8</ele>
  <time>2026-09-01T01:14:08Z</time>
  <course>359.77</course>
  <speed>0.97</speed>
  <fix>3d</fix>
</trkpt>
<trkpt lat="33.8100097" lon="-118.3944321">
  <ele>-50.019</ele>
  <time>2026-09-01T01:14:08Z</time>
  <course>1.37</course>
  <speed>0.9502105029939419</speed>
  <fix>3d</fix>
</trkpt>
<trkpt lat="33.8100079" lon="-118.3944323">
  <ele>-48.8</ele>
  <time>2026-09-01T01:14:08Z</time>
  <course>359.77</course>
  <speed>0.97</speed>
  <fix>3d</fix>
</trkpt>
<trkpt lat="33.8100106" lon="-118.3944321">
  <ele>-50.019</ele>
  <time>2026-09-01T01:14:08Z</time>
  <course>1.37</course>
  <speed>0.9502105029939419</speed>
  <fix>3d</fix>
</trkpt>
<trkpt lat="33.8100096" lon="-118.3944323">
  <ele>-48.8</ele>
  <time>2026-09-01T01:14:08Z</time>
  <course>359.76</course>
  <speed>0.98</speed>
  <fix>3d</fix>
</trkpt>
<trkpt lat="33.8100115" lon="-118.3944321">
  <ele>-50.019</ele>
  <time>2026-09-01T01:14:08Z</time>
  <course>1.37</course>
  <speed>0.9502105029939419</speed>
  <fix>3d</fix>
</trkpt>
<trkpt lat="33.8100096" lon="-118.3944323">
  <ele>-48.8</ele>
  <time>2026-09-01T01:14:08Z</time>
  <course>359.76</course>
  <speed>0.98</speed>
  <fix>3d</fix>
</trkpt>
<trkpt lat="33.8100124" lon="-118.3944321">
  <ele>-50.019</ele>
  <time>2026-09-01T01:14:08Z</time>
  <course>1.37</course>
  <speed>0.9502105029939419</speed>
  <fix>3d</fix>
</trkpt>
<trkpt lat="33.8100114" lon="-118.3944323">
  <ele>-48.81</ele>
  <time>2026-09-01T01:14:08Z</time>
  <course>359.75</course>
  <speed>0.98</speed>
  <fix>3d</fix>
</trkpt>
<trkpt lat="33.8100133" lon="-118.3944321">
  <ele>-50.019</ele>
  <time>2026-09-01T01:14:08Z</time>
  <course>1.37</course>
  <speed>0.9502105029939419</speed>
  <fix>3d</fix>
</trkpt>
<trkpt lat="33.8100114" lon="-118.3944323">
  <ele>-48.81</ele>
  <time>2026-09-01T01:14:08Z</time>
  <course>359.75</course>
  <speed>0.98</speed>
  <fix>3d</fix>
</trkpt>
<trkpt lat="33.8100142" lon="-118.3944321">
  <ele>-50.02</ele>
  <time>2026-09-01T01:14:08Z</time>
  <course>1.38</course>
  <speed>0.9502105029939419</speed>
  <fix>3d</fix>
</trkpt>
<trkpt lat="33.8100132" lon="-118.3944323">
  <ele>-48.81</ele>
  <time>2026-09-01T01:14:08Z</time>
  <course>359.75</course>
  <speed>0.98</speed>
  <fix>3d</fix>
</trkpt>
<trkpt lat="33.810015" lon="-118.3944321">
  <ele>-50.021</ele>
  <time>2026-09-01T01:14:08Z</time>
  <course>1.37</course>
  <speed>0.9502105029939419</speed>
  <fix>3d</fix>
</trkpt>
<trkpt lat="33.8100132" lon="-118.3944323">
  <ele>-48.81</ele>
  <time>2026-09-01T01:14:08Z</time>
  <course>359.75</course>
  <speed>0.98</speed>
  <fix>3d</fix>
</trkpt>
<trkpt lat="33.8100159" lon="-118.3944321">
  <ele>-50.022</ele>
  <time>2026-09-01T01:14:08Z</time>
  <course>1.37</course>
  <speed>0.9502105029939419</speed>
  <fix>3d</fix>
</trkpt>
<trkpt lat="33.8100149" lon="-118.3944323">
  <ele>-48.81</ele>
  <time>2026-09-01T01:14:08Z</time>
  <course>359.73</course>
  <speed>0.98</speed>
  <fix>3d</fix>
</trkpt>
<trkpt lat="33.8100168" lon="-118.3944321">
  <ele>-50.023</ele>
  <time>2026-09-01T01:14:08Z</time>
  <course>1.37</course>
  <speed>0.9602083107326242</speed>
  <fix>3d</fix>
</trkpt>
<trkpt lat="33.8100149" lon="-118.3944323">
  <ele>-48.81</ele>
  <time>2026-09-01T01:14:08Z</time>
  <course>359.73</course>
  <speed>0.98</speed>
  <fix>3d</fix>
</trkpt>
<trkpt lat="33.8100177" lon="-118.3944321">
  <ele>-50.023</ele>
  <time>2026-09-01T01:14:08Z</time>
  <course>1.37</course>
  <speed>0.9602083107326242</speed>
  <fix>3d</fix>
</trkpt>
<trkpt lat="33.8100167" lon="-118.3944323">
  <ele>-48.8</ele>
  <time>2026-09-01T01:14:08Z</time>
  <course>359.7</course>
  <speed>0.98</speed>
  <fix>3d</fix>
</trkpt>
<trkpt lat="33.8100186" lon="-118.3944321">
  <ele>-50.022</ele>
  <time>2026-09-01T01:14:08Z</time>
  <course>1.37</course>
  <speed>0.9602083107326242</speed>
  <fix>3d</fix>
</trkpt>
<trkpt lat="33.8100167" lon="-118.3944323">
  <ele>-48.8</ele>
  <time>2026-09-01T01:14:08Z</time>
  <course>359.7</course>
  <speed>0.98</speed>
  <fix>3d</fix>
</trkpt>
<trkpt lat="33.8100195" lon="-118.3944321">
  <ele>-50.019</ele>
  <time>2026-09-01T01:14:08Z</time>
  <course>1.37</course>
  <speed>0.9602083107326242</speed>
  <fix>3d</fix>
</trkpt>
<trkpt lat="33.8100185" lon="-118.3944323">
  <ele>-48.8</ele>
  <time>2026-09-01T01:14:08Z</time>
  <course>359.67</course>
  <speed>0.98</speed>
  <fix>3d</fix>
</trkpt>
<trkpt lat="33.8100204" lon="-118.3944321">
  <ele>-50.016</ele>
  <time>2026-09-01T01:14:08Z</time>
  <course>1.38</course>
  <speed>0.9602083107326242</speed>
  <fix>3d</fix>
</trkpt>
<trkpt lat="33.8100185" lon="-118.3944323">
  <ele>-48.8</ele>
  <time>2026-09-01T01:14:08Z</time>
  <course>359.67</course>
  <speed>0.98</speed>
  <fix>3d</fix>
</trkpt>
<trkpt lat="33.8100212" lon="-118.3944321">
  <ele>-50.014</ele>
  <time>2026-09-01T01:14:08Z</time>
  <course>1.38</course>
  <speed>0.9602083107326242</speed>
  <fix>3d</fix>
</trkpt>
<trkpt lat="33.8100203" lon="-118.3944323">
  <ele>-48.8</ele>
  <time>2026-09-01T01:14:08Z</time>
  <course>359.65</course>
  <speed>0.98</speed>
  <fix>3d</fix>
</trkpt>
<trkpt lat="33.8100221" lon="-118.3944321">
  <ele>-50.012</ele>
  <time>2026-09-01T01:14:08Z</time>
  <course>1.38</course>
  <speed>0.9602083107326242</speed>
  <fix>3d</fix>
</trkpt>
<trkpt lat="33.8100203" lon="-118.3944323">
  <ele>-48.8</ele>
  <time>2026-09-01T01:14:08Z</time>
  <course>359.65</course>
  <speed>0.98</speed>
  <fix>3d</fix>
</trkpt>
<trkpt lat="33.810023" lon="-118.3944321">
  <ele>-50.011</ele>
  <time>2026-09-01T01:14:08Z</time>
  <course>1.39</course>
  <speed>0.9602083107326242</speed>
  <fix>3d</fix>
</trkpt>
<trkpt lat="33.810022" lon="-118.3944323">
  <ele>-48.8</ele>
  <time>2026-09-01T01:14:08Z</time>
  <course>359.64</course>
  <speed>0.98</speed>
  <fix>3d</fix>
</trkpt>
<trkpt lat="33.8100239" lon="-118.3944321">
  <ele>-50.012</ele>
  <time>2026-09-01T01:14:08Z</time>
  <course>1.4</course>
  <speed>0.9602083107326242</speed>
  <fix>3d</fix>
</trkpt>
<trkpt lat="33.810022" lon="-118.3944323">
  <ele>-48.8</ele>
  <time>2026-09-01T01:14:08Z</time>
  <course>359.64</course>
  <speed>0.98</speed>
  <fix>3d</fix>
</trkpt>
<trkpt lat="33.8100248" lon="-118.3944322">
  <ele>-50.015</ele>
  <time>2026-09-01T01:14:08Z</time>
  <course>1.4</course>
  <speed>0.9602083107326242</speed>
  <fix>3d</fix>
</trkpt>
<trkpt lat="33.8100237" lon="-118.3944324">
  <ele>-48.8</ele>
  <time>2026-09-01T01:14:08Z</time>
  <course>359.63</course>
  <speed>0.98</speed>
  <fix>3d</fix>
</trkpt>
<trkpt lat="33.8100257" lon="-118.3944322">
  <ele>-50.017</ele>
  <time>2026-09-01T01:14:08Z</time>
  <course>1.41</course>
  <speed>0.9602083107326242</speed>
  <fix>3d</fix>
</trkpt>
<trkpt lat="33.8100237" lon="-118.3944324">
  <ele>-48.8</ele>
  <time>2026-09-01T01:14:08Z</time>
  <course>359.63</course>
  <speed>0.98</speed>
  <fix>3d</fix>
</trkpt>
<trkpt lat="33.8100266" lon="-118.3944322">
  <ele>-50.019</ele>
  <time>2026-09-01T01:14:08Z</time>
  <course>1.44</course>
  <speed>0.9602083107326242</speed>
  <fix>3d</fix>
</trkpt>
<trkpt lat="33.8100256" lon="-118.3944324">
  <ele>-48.8</ele>
  <time>2026-09-01T01:14:08Z</time>
  <course>359.67</course>
  <speed>0.98</speed>
  <fix>3d</fix>
</trkpt>
<trkpt lat="33.8100275" lon="-118.3944322">
  <ele>-50.021</ele>
  <time>2026-09-01T01:14:08Z</time>
  <course>1.48</course>
  <speed>0.9602083107326242</speed>
  <fix>3d</fix>
</trkpt>
<trkpt lat="33.8100256" lon="-118.3944324">
  <ele>-48.8</ele>
  <time>2026-09-01T01:14:08Z</time>
  <course>359.67</course>
  <speed>0.98</speed>
  <fix>3d</fix>
</trkpt>
<trkpt lat="33.8100283" lon="-118.3944322">
  <ele>-50.022</ele>
  <time>2026-09-01T01:14:08Z</time>
  <course>1.52</course>
  <speed>0.9602083107326242</speed>
  <fix>3d</fix>
</trkpt>
<trkpt lat="33.8100273" lon="-118.3944324">
  <ele>-48.81</ele>
  <time>2026-09-01T01:14:08Z</time>
  <course>359.75</course>
  <speed>0.98</speed>
  <fix>3d</fix>
</trkpt>
<trkpt lat="33.8100292" lon="-118.3944322">
  <ele>-50.022</ele>
  <time>2026-09-01T01:14:08Z</time>
  <course>1.56</course>
  <speed>0.9602083107326242</speed>
  <fix>3d</fix>
</trkpt>
<trkpt lat="33.8100273" lon="-118.3944324">
  <ele>-48.81</ele>
  <time>2026-09-01T01:14:08Z</time>
  <course>359.75</course>
  <speed>0.98</speed>
  <fix>3d</fix>
</trkpt>
<trkpt lat="33.8100301" lon="-118.3944322">
  <ele>-50.021</ele>
  <time>2026-09-01T01:14:08Z</time>
  <course>1.6</course>
  <speed>0.9602083107326242</speed>
  <fix>3d</fix>
</trkpt>
<trkpt lat="33.8100291" lon="-118.3944324">
  <ele>-48.81</ele>
  <time>2026-09-01T01:14:08Z</time>
  <course>359.8</course>
  <speed>0.98</speed>
  <fix>3d</fix>
</trkpt>
<trkpt lat="33.810031" lon="-118.3944322">
  <ele>-50.019</ele>
  <time>2026-09-01T01:14:08Z</time>
  <course>1.64</course>
  <speed>0.9602083107326242</speed>
  <fix>3d</fix>
</trkpt>
<trkpt lat="33.8100291" lon="-118.3944324">
  <ele>-48.81</ele>
  <time>2026-09-01T01:14:08Z</time>
  <course>359.8</course>
  <speed>0.98</speed>
  <fix>3d</fix>
</trkpt>
<trkpt lat="33.8100319" lon="-118.3944322">
  <ele>-50.017</ele>
  <time>2026-09-01T01:14:08Z</time>
  <course>1.67</course>
  <speed>0.9602083107326242</speed>
  <fix>3d</fix>
</trkpt>
<trkpt lat="33.8100309" lon="-118.3944324">
  <ele>-48.81</ele>
  <time>2026-09-01T01:14:08Z</time>
  <course>359.84</course>
  <speed>0.98</speed>
  <fix>3d</fix>
</trkpt>
<trkpt lat="33.8100328" lon="-118.3944322">
  <ele>-50.015</ele>
  <time>2026-09-01T01:14:08Z</time>
  <course>1.7</course>
  <speed>0.9602083107326242</speed>
  <fix>3d</fix>
</trkpt>
<trkpt lat="33.8100309" lon="-118.3944324">
  <ele>-48.81</ele>
  <time>2026-09-01T01:14:08Z</time>
  <course>359.84</course>
  <speed>0.98</speed>
  <fix>3d</fix>
</trkpt>
<trkpt lat="33.8100337" lon="-118.3944322">
  <ele>-50.014</ele>
  <time>2026-09-01T01:14:08Z</time>
  <course>1.73</course>
  <speed>0.9602083107326242</speed>
  <fix>3d</fix>
</trkpt>
<trkpt lat="33.8100326" lon="-118.3944324">
  <ele>-48.81</ele>
  <time>2026-09-01T01:14:08Z</time>
  <course>359.87</course>
  <speed>0.99</speed>
  <fix>3d</fix>
</trkpt>
<trkpt lat="33.8100346" lon="-118.3944322">
  <ele>-50.015</ele>
  <time>2026-09-01T01:14:08Z</time>
  <course>1.75</course>
  <speed>0.9602083107326242</speed>
  <fix>3d</fix>
</trkpt>
<trkpt lat="33.8100326" lon="-118.3944324">
  <ele>-48.81</ele>
  <time>2026-09-01T01:14:08Z</time>
  <course>359.87</course>
  <speed>0.99</speed>
  <fix>3d</fix>
</trkpt>
<trkpt lat="33.8100355" lon="-118.3944322">
  <ele>-50.016</ele>
  <time>2026-09-01T01:14:08Z</time>
  <course>1.76</course>
  <speed>0.9602083107326242</speed>
  <fix>3d</fix>
</trkpt>
<trkpt lat="33.8100345" lon="-118.3944324">
  <ele>-48.81</ele>
  <time>2026-09-01T01:14:08Z</time>
  <course>359.9</course>
  <speed>0.99</speed>
  <fix>3d</fix>
</trkpt>
<trkpt lat="33.8100364" lon="-118.3944322">
  <ele>-50.018</ele>
  <time>2026-09-01T01:14:09Z</time>
  <course>1.77</course>
  <speed>0.9602083107326242</speed>
  <fix>3d</fix>
</trkpt>
<trkpt lat="33.8100345" lon="-118.3944324">
  <ele>-48.81</ele>
  <time>2026-09-01T01:14:09Z</time>
  <course>359.9</course>
  <speed>0.99</speed>
  <fix>3d</fix>
</trkpt>
<trkpt lat="33.8100372" lon="-118.3944322">
  <ele>-50.02</ele>
  <time>2026-09-01T01:14:09Z</time>
  <course>1.78</course>
  <speed>0.9602083107326242</speed>
  <fix>3d</fix>
</trkpt>
<trkpt lat="33.8100362" lon="-118.3944324">
  <ele>-48.81</ele>
  <time>2026-09-01T01:14:09Z</time>
  <course>359.91</course>
  <speed>0.99</speed>
  <fix>3d</fix>
</trkpt>
<trkpt lat="33.8100381" lon="-118.3944322">
  <ele>-50.023</ele>
  <time>2026-09-01T01:14:09Z</time>
  <course>1.79</course>
  <speed>0.9602083107326242</speed>
  <fix>3d</fix>
</trkpt>
<trkpt lat="33.8100362" lon="-118.3944324">
  <ele>-48.81</ele>
  <time>2026-09-01T01:14:09Z</time>
  <course>359.91</course>
  <speed>0.99</speed>
  <fix>3d</fix>
</trkpt>
<trkpt lat="33.810039" lon="-118.3944322">
  <ele>-50.025</ele>
  <time>2026-09-01T01:14:09Z</time>
  <course>1.79</course>
  <speed>0.9602083107326242</speed>
  <fix>3d</fix>
</trkpt>
<trkpt lat="33.810038" lon="-118.3944324">
  <ele>-48.82</ele>
  <time>2026-09-01T01:14:09Z</time>
  <course>359.91</course>
  <speed>0.99</speed>
  <fix>3d</fix>
</trkpt>
<trkpt lat="33.8100399" lon="-118.3944322">
  <ele>-50.027</ele>
  <time>2026-09-01T01:14:09Z</time>
  <course>1.79</course>
  <speed>0.9602083107326242</speed>
  <fix>3d</fix>
</trkpt>
<trkpt lat="33.810038" lon="-118.3944324">
  <ele>-48.82</ele>
  <time>2026-09-01T01:14:09Z</time>
  <course>359.91</course>
  <speed>0.99</speed>
  <fix>3d</fix>
</trkpt>
<trkpt lat="33.8100408" lon="-118.3944322">
  <ele>-50.027</ele>
  <time>2026-09-01T01:14:09Z</time>
  <course>1.79</course>
  <speed>0.9702061636580135</speed>
  <fix>3d</fix>
</trkpt>
<trkpt lat="33.8100398" lon="-118.3944324">
  <ele>-48.82</ele>
  <time>2026-09-01T01:14:09Z</time>
  <course>359.91</course>
  <speed>0.99</speed>
  <fix>3d</fix>
</trkpt>
<trkpt lat="33.8100417" lon="-118.3944322">
  <ele>-50.026</ele>
  <time>2026-09-01T01:14:09Z</time>
  <course>1.78</course>
  <speed>0.9702061636580135</speed>
  <fix>3d</fix>
</trkpt>
<trkpt lat="33.8100398" lon="-118.3944324">
  <ele>-48.82</ele>
  <time>2026-09-01T01:14:09Z</time>
  <course>359.91</course>
  <speed>0.99</speed>
  <fix>3d</fix>
</trkpt>
<trkpt lat="33.8100426" lon="-118.3944322">
  <ele>-50.024</ele>
  <time>2026-09-01T01:14:09Z</time>
  <course>1.79</course>
  <speed>0.9702061636580135</speed>
  <fix>3d</fix>
</trkpt>
<trkpt lat="33.8100416" lon="-118.3944324">
  <ele>-48.82</ele>
  <time>2026-09-01T01:14:09Z</time>
  <course>359.91</course>
  <speed>0.99</speed>
  <fix>3d</fix>
</trkpt>
<trkpt lat="33.8100435" lon="-118.3944322">
  <ele>-50.021</ele>
  <time>2026-09-01T01:14:09Z</time>
  <course>1.79</course>
  <speed>0.9702061636580135</speed>
  <fix>3d</fix>
</trkpt>
<trkpt lat="33.8100416" lon="-118.3944324">
  <ele>-48.82</ele>
  <time>2026-09-01T01:14:09Z</time>
  <course>359.91</course>
  <speed>0.99</speed>
  <fix>3d</fix>
</trkpt>
<trkpt lat="33.8100444" lon="-118.3944322">
  <ele>-50.018</ele>
  <time>2026-09-01T01:14:09Z</time>
  <course>1.79</course>
  <speed>0.9702061636580135</speed>
  <fix>3d</fix>
</trkpt>
<trkpt lat="33.8100434" lon="-118.3944324">
  <ele>-48.82</ele>
  <time>2026-09-01T01:14:09Z</time>
  <course>359.91</course>
  <speed>0.99</speed>
  <fix>3d</fix>
</trkpt>
<trkpt lat="33.8100453" lon="-118.3944322">
  <ele>-50.017</ele>
  <time>2026-09-01T01:14:09Z</time>
  <course>1.78</course>
  <speed>0.9702061636580135</speed>
  <fix>3d</fix>
</trkpt>
<trkpt lat="33.8100434" lon="-118.3944324">
  <ele>-48.82</ele>
  <time>2026-09-01T01:14:09Z</time>
  <course>359.91</course>
  <speed>0.99</speed>
  <fix>3d</fix>
</trkpt>
<trkpt lat="33.8100462" lon="-118.3944322">
  <ele>-50.017</ele>
  <time>2026-09-01T01:14:09Z</time>
  <course>1.78</course>
  <speed>0.9702061636580135</speed>
  <fix>3d</fix>
</trkpt>
<trkpt lat="33.8100452" lon="-118.3944324">
  <ele>-48.81</ele>
  <time>2026-09-01T01:14:09Z</time>
  <course>359.91</course>
  <speed>0.99</speed>
  <fix>3d</fix>
</trkpt>
<trkpt lat="33.8100471" lon="-118.3944322">
  <ele>-50.019</ele>
  <time>2026-09-01T01:14:09Z</time>
  <course>1.78</course>
  <speed>0.9702061636580135</speed>
  <fix>3d</fix>
</trkpt>
<trkpt lat="33.8100452" lon="-118.3944324">
  <ele>-48.81</ele>
  <time>2026-09-01T01:14:09Z</time>
  <course>359.91</course>
  <speed>0.99</speed>
  <fix>3d</fix>
</trkpt>
<trkpt lat="33.810048" lon="-118.3944322">
  <ele>-50.02</ele>
  <time>2026-09-01T01:14:09Z</time>
  <course>1.78</course>
  <speed>0.9702061636580135</speed>
  <fix>3d</fix>
</trkpt>
<trkpt lat="33.810047" lon="-118.3944324">
  <ele>-48.81</ele>
  <time>2026-09-01T01:14:09Z</time>
  <course>359.91</course>
  <speed>0.99</speed>
  <fix>3d</fix>
</trkpt>
<trkpt lat="33.8100489" lon="-118.3944322">
  <ele>-50.02</ele>
  <time>2026-09-01T01:14:09Z</time>
  <course>1.78</course>
  <speed>0.9702061636580135</speed>
  <fix>3d</fix>
</trkpt>
<trkpt lat="33.810047" lon="-118.3944324">
  <ele>-48.81</ele>
  <time>2026-09-01T01:14:09Z</time>
  <course>359.91</course>
  <speed>0.99</speed>
  <fix>3d</fix>
</trkpt>
<trkpt lat="33.8100498" lon="-118.3944322">
  <ele>-50.021</ele>
  <time>2026-09-01T01:14:09Z</time>
  <course>1.78</course>
  <speed>0.9702061636580135</speed>
  <fix>3d</fix>
</trkpt>
<trkpt lat="33.8100487" lon="-118.3944324">
  <ele>-48.81</ele>
  <time>2026-09-01T01:14:09Z</time>
  <course>359.91</course>
  <speed>0.99</speed>
  <fix>3d</fix>
</trkpt>
<trkpt lat="33.8100507" lon="-118.3944322">
  <ele>-50.023</ele>
  <time>2026-09-01T01:14:09Z</time>
  <course>1.77</course>
  <speed>0.9702061636580135</speed>
  <fix>3d</fix>
</trkpt>
<trkpt lat="33.8100487" lon="-118.3944324">
  <ele>-48.81</ele>
  <time>2026-09-01T01:14:09Z</time>
  <course>359.91</course>
  <speed>0.99</speed>
  <fix>3d</fix>
</trkpt>
<trkpt lat="33.8100516" lon="-118.3944322">
  <ele>-50.023</ele>
  <time>2026-09-01T01:14:09Z</time>
  <course>1.76</course>
  <speed>0.9702061636580135</speed>
  <fix>3d</fix>
</trkpt>
<trkpt lat="33.8100505" lon="-118.3944324">
  <ele>-48.81</ele>
  <time>2026-09-01T01:14:09Z</time>
  <course>359.91</course>
  <speed>0.99</speed>
  <fix>3d</fix>
</trkpt>
<trkpt lat="33.8100525" lon="-118.3944322">
  <ele>-50.022</ele>
  <time>2026-09-01T01:14:09Z</time>
  <course>1.76</course>
  <speed>0.9702061636580135</speed>
  <fix>3d</fix>
</trkpt>
<trkpt lat="33.8100505" lon="-118.3944324">
  <ele>-48.81</ele>
  <time>2026-09-01T01:14:09Z</time>
  <course>359.91</course>
  <speed>0.99</speed>
  <fix>3d</fix>
</trkpt>
<trkpt lat="33.8100533" lon="-118.3944322">
  <ele>-50.022</ele>
  <time>2026-09-01T01:14:09Z</time>
  <course>1.77</course>
  <speed>0.9702061636580135</speed>
  <fix>3d</fix>
</trkpt>
<trkpt lat="33.8100522" lon="-118.3944324">
  <ele>-48.81</ele>
  <time>2026-09-01T01:14:09Z</time>
  <course>359.9</course>
  <speed>0.99</speed>
  <fix>3d</fix>
</trkpt>
<trkpt lat="33.8100542" lon="-118.3944322">
  <ele>-50.022</ele>
  <time>2026-09-01T01:14:09Z</time>
  <course>1.76</course>
  <speed>0.9702061636580135</speed>
  <fix>3d</fix>
</trkpt>
<trkpt lat="33.8100522" lon="-118.3944324">
  <ele>-48.81</ele>
  <time>2026-09-01T01:14:09Z</time>
  <course>359.9</course>
  <speed>0.99</speed>
  <fix>3d</fix>
</trkpt>
<trkpt lat="33.8100551" lon="-118.3944322">
  <ele>-50.02</ele>
  <time>2026-09-01T01:14:09Z</time>
  <course>1.77</course>
  <speed>0.9702061636580135</speed>
  <fix>3d</fix>
</trkpt>
<trkpt lat="33.8100541" lon="-118.3944324">
  <ele>-48.81</ele>
  <time>2026-09-01T01:14:09Z</time>
  <course>359.91</course>
  <speed>0.99</speed>
  <fix>3d</fix>
</trkpt>
<trkpt lat="33.810056" lon="-118.3944322">
  <ele>-50.019</ele>
  <time>2026-09-01T01:14:09Z</time>
  <course>1.76</course>
  <speed>0.9702061636580135</speed>
  <fix>3d</fix>
</trkpt>
<trkpt lat="33.8100541" lon="-118.3944324">
  <ele>-48.81</ele>
  <time>2026-09-01T01:14:09Z</time>
  <course>359.91</course>
  <speed>0.99</speed>
  <fix>3d</fix>
</trkpt>
<trkpt lat="33.8100569" lon="-118.3944322">
  <ele>-50.018</ele>
  <time>2026-09-01T01:14:09Z</time>
  <course>1.76</course>
  <speed>0.9702061636580135</speed>
  <fix>3d</fix>
</trkpt>
<trkpt lat="33.8100558" lon="-118.3944324">
  <ele>-48.81</ele>
  <time>2026-09-01T01:14:09Z</time>
  <course>359.92</course>
  <speed>0.99</speed>
  <fix>3d</fix>
</trkpt>
<trkpt lat="33.8100578" lon="-118.3944322">
  <ele>-50.018</ele>
  <time>2026-09-01T01:14:09Z</time>
  <course>1.75</course>
  <speed>0.9702061636580135</speed>
  <fix>3d</fix>
</trkpt>
<trkpt lat="33.8100558" lon="-118.3944324">
  <ele>-48.81</ele>
  <time>2026-09-01T01:14:09Z</time>
  <course>359.92</course>
  <speed>0.99</speed>
  <fix>3d</fix>
</trkpt>
<trkpt lat="33.8100587" lon="-118.3944322">
  <ele>-50.019</ele>
  <time>2026-09-01T01:14:09Z</time>
  <course>1.75</course>
  <speed>0.9702061636580135</speed>
  <fix>3d</fix>
</trkpt>
<trkpt lat="33.8100577" lon="-118.3944324">
  <ele>-48.81</ele>
  <time>2026-09-01T01:14:09Z</time>
  <course>359.92</course>
  <speed>0.99</speed>
  <fix>3d</fix>
</trkpt>
<trkpt lat="33.8100596" lon="-118.3944322">
  <ele>-50.021</ele>
  <time>2026-09-01T01:14:09Z</time>
  <course>1.73</course>
  <speed>0.9702061636580135</speed>
  <fix>3d</fix>
</trkpt>
<trkpt lat="33.8100577" lon="-118.3944324">
  <ele>-48.81</ele>
  <time>2026-09-01T01:14:09Z</time>
  <course>359.92</course>
  <speed>0.99</speed>
  <fix>3d</fix>
</trkpt>
<trkpt lat="33.8100605" lon="-118.3944322">
  <ele>-50.021</ele>
  <time>2026-09-01T01:14:09Z</time>
  <course>1.73</course>
  <speed>0.9702061636580135</speed>
  <fix>3d</fix>
</trkpt>
<trkpt lat="33.8100594" lon="-118.3944325">
  <ele>-48.81</ele>
  <time>2026-09-01T01:14:09Z</time>
  <course>359.92</course>
  <speed>1.0</speed>
  <fix>3d</fix>
</trkpt>
<trkpt lat="33.8100614" lon="-118.3944322">
  <ele>-50.021</ele>
  <time>2026-09-01T01:14:09Z</time>
  <course>1.72</course>
  <speed>0.9702061636580135</speed>
  <fix>3d</fix>
</trkpt>
<trkpt lat="33.8100594" lon="-118.3944325">
  <ele>-48.81</ele>
  <time>2026-09-01T01:14:09Z</time>
  <course>359.92</course>
  <speed>1.0</speed>
  <fix>3d</fix>
</trkpt>
<trkpt lat="33.8100623" lon="-118.3944322">
  <ele>-50.02</ele>
  <time>2026-09-01T01:14:09Z</time>
  <course>1.75</course>
  <speed>0.9802040603874276</speed>
  <fix>3d</fix>
</trkpt>
<trkpt lat="33.8100613" lon="-118.3944325">
  <ele>-48.81</ele>
  <time>2026-09-01T01:14:09Z</time>
  <course>359.97</course>
  <speed>1.0</speed>
  <fix>3d</fix>
</trkpt>
<trkpt lat="33.8100632" lon="-118.3944322">
  <ele>-50.018</ele>
  <time>2026-09-01T01:14:09Z</time>
  <course>1.78</course>
  <speed>0.9702061636580135</speed>
  <fix>3d</fix>
</trkpt>
<trkpt lat="33.8100613" lon="-118.3944325">
  <ele>-48.81</ele>
  <time>2026-09-01T01:14:09Z</time>
  <course>359.97</course>
  <speed>1.0</speed>
  <fix>3d</fix>
</trkpt>
<trkpt lat="33.8100641" lon="-118.3944322">
  <ele>-50.017</ele>
  <time>2026-09-01T01:14:09Z</time>
  <course>1.83</course>
  <speed>0.9802040603874276</speed>
  <fix>3d</fix>
</trkpt>
<trkpt lat="33.810063" lon="-118.3944325">
  <ele>-48.81</ele>
  <time>2026-09-01T01:14:09Z</time>
  <course>0.06</course>
  <speed>1.0</speed>
  <fix>3d</fix>
</trkpt>
<trkpt lat="33.810065" lon="-118.3944322">
  <ele>-50.017</ele>
  <time>2026-09-01T01:14:09Z</time>
  <course>1.87</course>
  <speed>0.9802040603874276</speed>
  <fix>3d</fix>
</trkpt>
<trkpt lat="33.810063" lon="-118.3944325">
  <ele>-48.81</ele>
  <time>2026-09-01T01:14:09Z</time>
  <course>0.06</course>
  <speed>1.0</speed>
  <fix>3d</fix>
</trkpt>
<trkpt lat="33.8100659" lon="-118.3944322">
  <ele>-50.017</ele>
  <time>2026-09-01T01:14:09Z</time>
  <course>1.91</course>
  <speed>0.9802040603874276</speed>
  <fix>3d</fix>
</trkpt>
<trkpt lat="33.8100649" lon="-118.3944324">
  <ele>-48.8</ele>
  <time>2026-09-01T01:14:09Z</time>
  <course>0.16</course>
  <speed>1.0</speed>
  <fix>3d</fix>
</trkpt>
<trkpt lat="33.8100668" lon="-118.3944322">
  <ele>-50.019</ele>
  <time>2026-09-01T01:14:09Z</time>
  <course>1.94</course>
  <speed>0.9802040603874276</speed>
  <fix>3d</fix>
</trkpt>
<trkpt lat="33.8100649" lon="-118.3944324">
  <ele>-48.8</ele>
  <time>2026-09-01T01:14:09Z</time>
  <course>0.16</course>
  <speed>1.0</speed>
  <fix>3d</fix>
</trkpt>
<trkpt lat="33.8100677" lon="-118.3944322">
  <ele>-50.02</ele>
  <time>2026-09-01T01:14:09Z</time>
  <course>1.95</course>
  <speed>0.9802040603874276</speed>
  <fix>3d</fix>
</trkpt>
<trkpt lat="33.8100666" lon="-118.3944324">
  <ele>-48.8</ele>
  <time>2026-09-01T01:14:09Z</time>
  <course>0.21</course>
  <speed>1.0</speed>
  <fix>3d</fix>
</trkpt>
<trkpt lat="33.8100686" lon="-118.3944322">
  <ele>-50.02</ele>
  <time>2026-09-01T01:14:09Z</time>
  <course>1.93</course>
  <speed>0.9702061636580135</speed>
  <fix>3d</fix>
</trkpt>
<trkpt lat="33.8100666" lon="-118.3944324">
  <ele>-48.8</ele>
  <time>2026-09-01T01:14:09Z</time>
  <course>0.21</course>
  <speed>1.0</speed>
  <fix>3d</fix>
</trkpt>
<trkpt lat="33.8100695" lon="-118.3944322">
  <ele>-50.02</ele>
  <time>2026-09-01T01:14:09Z</time>
  <course>1.91</course>
  <speed>0.9802040603874276</speed>
  <fix>3d</fix>
</trkpt>
<trkpt lat="33.8100685" lon="-118.3944324">
  <ele>-48.81</ele>
  <time>2026-09-01T01:14:09Z</time>
  <course>0.18</course>
  <speed>1.0</speed>
  <fix>3d</fix>
</trkpt>
<trkpt lat="33.8100704" lon="-118.3944322">
  <ele>-50.02</ele>
  <time>2026-09-01T01:14:09Z</time>
  <course>1.88</course>
  <speed>0.9702061636580135</speed>
  <fix>3d</fix>
</trkpt>
<trkpt lat="33.8100685" lon="-118.3944324">
  <ele>-48.81</ele>
  <time>2026-09-01T01:14:09Z</time>
  <course>0.18</course>
  <speed>1.0</speed>
  <fix>3d</fix>
</trkpt>
<trkpt lat="33.8100713" lon="-118.3944322">
  <ele>-50.019</ele>
  <time>2026-09-01T01:14:09Z</time>
  <course>1.85</course>
  <speed>0.9702061636580135</speed>
  <fix>3d</fix>
</trkpt>
<trkpt lat="33.8100702" lon="-118.3944324">
  <ele>-48.81</ele>
  <time>2026-09-01T01:14:09Z</time>
  <course>0.14</course>
  <speed>1.0</speed>
  <fix>3d</fix>
</trkpt>
<trkpt lat="33.8100722" lon="-118.3944322">
  <ele>-50.019</ele>
  <time>2026-09-01T01:14:09Z</time>
  <course>1.82</course>
  <speed>0.9702061636580135</speed>
  <fix>3d</fix>
</trkpt>
<trkpt lat="33.8100702" lon="-118.3944324">
  <ele>-48.81</ele>
  <time>2026-09-01T01:14:09Z</time>
  <course>0.14</course>
  <speed>1.0</speed>
  <fix>3d</fix>
</trkpt>
<trkpt lat="33.8100731" lon="-118.3944322">
  <ele>-50.019</ele>
  <time>2026-09-01T01:14:09Z</time>
  <course>1.79</course>
  <speed>0.9802040603874276</speed>
  <fix>3d</fix>
</trkpt>
<trkpt lat="33.8100721" lon="-118.3944324">
  <ele>-48.81</ele>
  <time>2026-09-01T01:14:09Z</time>
  <course>0.12</course>
  <speed>1.0</speed>
  <fix>3d</fix>
</trkpt>
<trkpt lat="33.810074" lon="-118.3944322">
  <ele>-50.02</ele>
  <time>2026-09-01T01:14:09Z</time>
  <course>1.77</course>
  <speed>0.9702061636580135</speed>
  <fix>3d</fix>
</trkpt>
<trkpt lat="33.8100721" lon="-118.3944324">
  <ele>-48.81</ele>
  <time>2026-09-01T01:14:09Z</time>
  <course>0.12</course>
  <speed>1.0</speed>
  <fix>3d</fix>
</trkpt>
<trkpt lat="33.8100749" lon="-118.3944322">
  <ele>-50.02</ele>
  <time>2026-09-01T01:14:09Z</time>
  <course>1.74</course>
  <speed>0.9702061636580135</speed>
  <fix>3d</fix>
</trkpt>
<trkpt lat="33.810074" lon="-118.3944324">
  <ele>-48.81</ele>
  <time>2026-09-01T01:14:09Z</time>
  <course>0.09</course>
  <speed>1.0</speed>
  <fix>3d</fix>
</trkpt>
<trkpt lat="33.8100758" lon="-118.3944322">
  <ele>-50.022</ele>
  <time>2026-09-01T01:14:09Z</time>
  <course>1.72</course>
  <speed>0.9702061636580135</speed>
  <fix>3d</fix>
</trkpt>
<trkpt lat="33.810074" lon="-118.3944324">
  <ele>-48.81</ele>
  <time>2026-09-01T01:14:09Z</time>
  <course>0.09</course>
  <speed>1.0</speed>
  <fix>3d</fix>
</trkpt>
<trkpt lat="33.8100767" lon="-118.3944322">
  <ele>-50.022</ele>
  <time>2026-09-01T01:14:09Z</time>
  <course>1.71</course>
  <speed>0.9702061636580135</speed>
  <fix>3d</fix>
</trkpt>
<trkpt lat="33.8100757" lon="-118.3944324">
  <ele>-48.8</ele>
  <time>2026-09-01T01:14:09Z</time>
  <course>0.08</course>
  <speed>1.0</speed>
  <fix>3d</fix>
</trkpt>
<trkpt lat="33.8100776" lon="-118.3944322">
  <ele>-50.022</ele>
  <time>2026-09-01T01:14:09Z</time>
  <course>1.7</course>
  <speed>0.9702061636580135</speed>
  <fix>3d</fix>
</trkpt>
<trkpt lat="33.8100757" lon="-118.3944324">
  <ele>-48.8</ele>
  <time>2026-09-01T01:14:09Z</time>
  <course>0.08</course>
  <speed>1.0</speed>
  <fix>3d</fix>
</trkpt>
<trkpt lat="33.8100785" lon="-118.3944322">
  <ele>-50.021</ele>
  <time>2026-09-01T01:14:09Z</time>
  <course>1.69</course>
  <speed>0.9702061636580135</speed>
  <fix>3d</fix>
</trkpt>
<trkpt lat="33.8100776" lon="-118.3944324">
  <ele>-48.8</ele>
  <time>2026-09-01T01:14:09Z</time>
  <course>0.09</course>
  <speed>1.0</speed>
  <fix>3d</fix>
</trkpt>
<trkpt lat="33.8100794" lon="-118.3944322">
  <ele>-50.02</ele>
  <time>2026-09-01T01:14:09Z</time>
  <course>1.67</course>
  <speed>0.9702061636580135</speed>
  <fix>3d</fix>
</trkpt>
<trkpt lat="33.8100776" lon="-118.3944324">
  <ele>-48.8</ele>
  <time>2026-09-01T01:14:09Z</time>
  <course>0.09</course>
  <speed>1.0</speed>
  <fix>3d</fix>
</trkpt>
<trkpt lat="33.8100803" lon="-118.3944322">
  <ele>-50.017</ele>
  <time>2026-09-01T01:14:09Z</time>
  <course>1.67</course>
  <speed>0.9702061636580135</speed>
  <fix>3d</fix>
</trkpt>
<trkpt lat="33.8100793" lon="-118.3944324">
  <ele>-48.8</ele>
  <time>2026-09-01T01:14:09Z</time>
  <course>0.08</course>
  <speed>1.0</speed>
  <fix>3d</fix>
</trkpt>
<trkpt lat="33.8100812" lon="-118.3944322">
  <ele>-50.014</ele>
  <time>2026-09-01T01:14:09Z</time>
  <course>1.66</course>
  <speed>0.9702061636580135</speed>
  <fix>3d</fix>
</trkpt>
<trkpt lat="33.8100793" lon="-118.3944324">
  <ele>-48.8</ele>
  <time>2026-09-01T01:14:09Z</time>
  <course>0.08</course>
  <speed>1.0</speed>
  <fix>3d</fix>
</trkpt>
<trkpt lat="33.8100821" lon="-118.3944322">
  <ele>-50.013</ele>
  <time>2026-09-01T01:14:09Z</time>
  <course>1.66</course>
  <speed>0.9702061636580135</speed>
  <fix>3d</fix>
</trkpt>
<trkpt lat="33.8100812" lon="-118.3944324">
  <ele>-48.8</ele>
  <time>2026-09-01T01:14:09Z</time>
  <course>0.07</course>
  <speed>1.0</speed>
  <fix>3d</fix>
</trkpt>
<trkpt lat="33.810083" lon="-118.3944322">
  <ele>-50.012</ele>
  <time>2026-09-01T01:14:09Z</time>
  <course>1.65</course>
  <speed>0.9702061636580135</speed>
  <fix>3d</fix>
</trkpt>
<trkpt lat="33.8100812" lon="-118.3944324">
  <ele>-48.8</ele>
  <time>2026-09-01T01:14:09Z</time>
  <course>0.07</course>
  <speed>1.0</speed>
  <fix>3d</fix>
</trkpt>
<trkpt lat="33.8100839" lon="-118.3944322">
  <ele>-50.013</ele>
  <time>2026-09-01T01:14:09Z</time>
  <course>1.65</course>
  <speed>0.9702061636580135</speed>
  <fix>3d</fix>
</trkpt>
<trkpt lat="33.8100829" lon="-118.3944324">
  <ele>-48.8</ele>
  <time>2026-09-01T01:14:09Z</time>
  <course>0.08</course>
  <speed>1.0</speed>
  <fix>3d</fix>
</trkpt>
<trkpt lat="33.8100848" lon="-118.3944322">
  <ele>-50.015</ele>
  <time>2026-09-01T01:14:09Z</time>
  <course>1.65</course>
  <speed>0.9702061636580135</speed>
  <fix>3d</fix>
</trkpt>
<trkpt lat="33.8100829" lon="-118.3944324">
  <ele>-48.8</ele>
  <time>2026-09-01T01:14:09Z</time>
  <course>0.08</course>
  <speed>1.0</speed>
  <fix>3d</fix>
</trkpt>
<trkpt lat="33.8100857" lon="-118.3944322">
  <ele>-50.018</ele>
  <time>2026-09-01T01:14:09Z</time>
  <course>1.64</course>
  <speed>0.9702061636580135</speed>
  <fix>3d</fix>
</trkpt>
<trkpt lat="33.8100848" lon="-118.3944324">
  <ele>-48.8</ele>
  <time>2026-09-01T01:14:09Z</time>
  <course>0.09</course>
  <speed>1.0</speed>
  <fix>3d</fix>
</trkpt>
<trkpt lat="33.8100866" lon="-118.3944322">
  <ele>-50.02</ele>
  <time>2026-09-01T01:14:09Z</time>
  <course>1.64</course>
  <speed>0.9702061636580135</speed>
  <fix>3d</fix>
</trkpt>
<trkpt lat="33.8100848" lon="-118.3944324">
  <ele>-48.8</ele>
  <time>2026-09-01T01:14:09Z</time>
  <course>0.09</course>
  <speed>1.0</speed>
  <fix>3d</fix>
</trkpt>
<trkpt lat="33.8100875" lon="-118.3944322">
  <ele>-50.021</ele>
  <time>2026-09-01T01:14:09Z</time>
  <course>1.64</course>
  <speed>0.9702061636580135</speed>
  <fix>3d</fix>
</trkpt>
<trkpt lat="33.8100866" lon="-118.3944324">
  <ele>-48.81</ele>
  <time>2026-09-01T01:14:09Z</time>
  <course>0.09</course>
  <speed>0.99</speed>
  <fix>3d</fix>
</trkpt>
<trkpt lat="33.8100884" lon="-118.3944322">
  <ele>-50.021</ele>
  <time>2026-09-01T01:14:09Z</time>
  <course>1.63</course>
  <speed>0.9702061636580135</speed>
  <fix>3d</fix>
</trkpt>
<trkpt lat="33.8100866" lon="-118.3944324">
  <ele>-48.81</ele>
  <time>2026-09-01T01:14:09Z</time>
  <course>0.09</course>
  <speed>0.99</speed>
  <fix>3d</fix>
</trkpt>
<trkpt lat="33.8100893" lon="-118.3944322">
  <ele>-50.019</ele>
  <time>2026-09-01T01:14:09Z</time>
  <course>1.63</course>
  <speed>0.9702061636580135</speed>
  <fix>3d</fix>
</trkpt>
<trkpt lat="33.8100884" lon="-118.3944324">
  <ele>-48.81</ele>
  <time>2026-09-01T01:14:09Z</time>
  <course>0.1</course>
  <speed>0.99</speed>
  <fix>3d</fix>
</trkpt>
<trkpt lat="33.8100902" lon="-118.3944322">
  <ele>-50.017</ele>
  <time>2026-09-01T01:14:09Z</time>
  <course>1.63</course>
  <speed>0.9702061636580135</speed>
  <fix>3d</fix>
</trkpt>
<trkpt lat="33.8100884" lon="-118.3944324">
  <ele>-48.81</ele>
  <time>2026-09-01T01:14:09Z</time>
  <course>0.1</course>
  <speed>0.99</speed>
  <fix>3d</fix>
</trkpt>
<trkpt lat="33.8100911" lon="-118.3944322">
  <ele>-50.016</ele>
  <time>2026-09-01T01:14:09Z</time>
  <course>1.63</course>
  <speed>0.9702061636580135</speed>
  <fix>3d</fix>
</trkpt>
<trkpt lat="33.8100902" lon="-118.3944324">
  <ele>-48.81</ele>
  <time>2026-09-01T01:14:09Z</time>
  <course>0.1</course>
  <speed>0.99</speed>
  <fix>3d</fix>
</trkpt>
<trkpt lat="33.810092" lon="-118.3944322">
  <ele>-50.016</ele>
  <time>2026-09-01T01:14:09Z</time>
  <course>1.62</course>
  <speed>0.9702061636580135</speed>
  <fix>3d</fix>
</trkpt>
<trkpt lat="33.8100902" lon="-118.3944324">
  <ele>-48.81</ele>
  <time>2026-09-01T01:14:09Z</time>
  <course>0.1</course>
  <speed>0.99</speed>
  <fix>3d</fix>
</trkpt>
<trkpt lat="33.8100929" lon="-118.3944322">
  <ele>-50.016</ele>
  <time>2026-09-01T01:14:09Z</time>
  <course>1.63</course>
  <speed>0.9702061636580135</speed>
  <fix>3d</fix>
</trkpt>
<trkpt lat="33.810092" lon="-118.3944324">
  <ele>-48.81</ele>
  <time>2026-09-01T01:14:09Z</time>
  <course>0.11</course>
  <speed>0.99</speed>
  <fix>3d</fix>
</trkpt>
<trkpt lat="33.8100938" lon="-118.3944322">
  <ele>-50.018</ele>
  <time>2026-09-01T01:14:09Z</time>
  <course>1.63</course>
  <speed>0.9702061636580135</speed>
  <fix>3d</fix>
</trkpt>
<trkpt lat="33.810092" lon="-118.3944324">
  <ele>-48.81</ele>
  <time>2026-09-01T01:14:09Z</time>
  <course>0.11</course>
  <speed>0.99</speed>
  <fix>3d</fix>
</trkpt>
<trkpt lat="33.8100947" lon="-118.3944322">
  <ele>-50.018</ele>
  <time>2026-09-01T01:14:09Z</time>
  <course>1.62</course>
  <speed>0.9702061636580135</speed>
  <fix>3d</fix>
</trkpt>
<trkpt lat="33.8100937" lon="-118.3944324">
  <ele>-48.81</ele>
  <time>2026-09-01T01:14:09Z</time>
  <course>0.13</course>
  <speed>0.99</speed>
  <fix>3d</fix>
</trkpt>
<trkpt lat="33.8100956" lon="-118.3944322">
  <ele>-50.019</ele>
  <time>2026-09-01T01:14:09Z</time>
  <course>1.62</course>
  <speed>0.9702061636580135</speed>
  <fix>3d</fix>
</trkpt>
<trkpt lat="33.8100937" lon="-118.3944324">
  <ele>-48.81</ele>
  <time>2026-09-01T01:14:09Z</time>
  <course>0.13</course>
  <speed>0.99</speed>
  <fix>3d</fix>
</trkpt>
<trkpt lat="33.8100965" lon="-118.3944322">
  <ele>-50.02</ele>
  <time>2026-09-01T01:14:09Z</time>
  <course>1.61</course>
  <speed>0.9702061636580135</speed>
  <fix>3d</fix>
</trkpt>
<trkpt lat="33.8100955" lon="-118.3944324">
  <ele>-48.81</ele>
  <time>2026-09-01T01:14:09Z</time>
  <course>0.12</course>
  <speed>0.99</speed>
  <fix>3d</fix>
</trkpt>
<trkpt lat="33.8100974" lon="-118.3944322">
  <ele>-50.02</ele>
  <time>2026-09-01T01:14:09Z</time>
  <course>1.61</course>
  <speed>0.9702061636580135</speed>
  <fix>3d</fix>
</trkpt>
<trkpt lat="33.8100955" lon="-118.3944324">
  <ele>-48.81</ele>
  <time>2026-09-01T01:14:09Z</time>
  <course>0.12</course>
  <speed>0.99</speed>
  <fix>3d</fix>
</trkpt>
<trkpt lat="33.8100983" lon="-118.3944322">
  <ele>-50.02</ele>
  <time>2026-09-01T01:14:09Z</time>
  <course>1.61</course>
  <speed>0.9702061636580135</speed>
  <fix>3d</fix>
</trkpt>
<trkpt lat="33.8100972" lon="-118.3944324">
  <ele>-48.82</ele>
  <time>2026-09-01T01:14:09Z</time>
  <course>0.11</course>
  <speed>0.99</speed>
  <fix>3d</fix>
</trkpt>
<trkpt lat="33.8100992" lon="-118.3944322">
  <ele>-50.02</ele>
  <time>2026-09-01T01:14:09Z</time>
  <course>1.6</course>
  <speed>0.9702061636580135</speed>
  <fix>3d</fix>
</trkpt>
<trkpt lat="33.8100972" lon="-118.3944324">
  <ele>-48.82</ele>
  <time>2026-09-01T01:14:09Z</time>
  <course>0.11</course>
  <speed>0.99</speed>
  <fix>3d</fix>
</trkpt>
<trkpt lat="33.8101001" lon="-118.3944322">
  <ele>-50.02</ele>
  <time>2026-09-01T01:14:09Z</time>
  <course>1.6</course>
  <speed>0.9702061636580135</speed>
  <fix>3d</fix>
</trkpt>
<trkpt lat="33.8100991" lon="-118.3944324">
  <ele>-48.82</ele>
  <time>2026-09-01T01:14:09Z</time>
  <course>0.12</course>
  <speed>0.99</speed>
  <fix>3d</fix>
</trkpt>
<trkpt lat="33.810101" lon="-118.3944322">
  <ele>-50.02</ele>
  <time>2026-09-01T01:14:09Z</time>
  <course>1.59</course>
  <speed>0.9702061636580135</speed>
  <fix>3d</fix>
</trkpt>
<trkpt lat="33.8100991" lon="-118.3944324">
  <ele>-48.82</ele>
  <time>2026-09-01T01:14:09Z</time>
  <course>0.12</course>
  <speed>0.99</speed>
  <fix>3d</fix>
</trkpt>
<trkpt lat="33.8101019" lon="-118.3944322">
  <ele>-50.021</ele>
  <time>2026-09-01T01:14:09Z</time>
  <course>1.58</course>
  <speed>0.9702061636580135</speed>
  <fix>3d</fix>
</trkpt>
<trkpt lat="33.8101008" lon="-118.3944324">
  <ele>-48.82</ele>
  <time>2026-09-01T01:14:09Z</time>
  <course>0.15</course>
  <speed>0.99</speed>
  <fix>3d</fix>
</trkpt>
<trkpt lat="33.8101028" lon="-118.3944322">
  <ele>-50.022</ele>
  <time>2026-09-01T01:14:09Z</time>
  <course>1.58</course>
  <speed>0.9702061636580135</speed>
  <fix>3d</fix>
</trkpt>
<trkpt lat="33.8101008" lon="-118.3944324">
  <ele>-48.82</ele>
  <time>2026-09-01T01:14:09Z</time>
  <course>0.15</course>
  <speed>0.99</speed>
  <fix>3d</fix>
</trkpt>
<trkpt lat="33.8101037" lon="-118.3944322">
  <ele>-50.022</ele>
  <time>2026-09-01T01:14:09Z</time>
  <course>1.57</course>
  <speed>0.9702061636580135</speed>
  <fix>3d</fix>
</trkpt>
<trkpt lat="33.8101027" lon="-118.3944324">
  <ele>-48.82</ele>
  <time>2026-09-01T01:14:09Z</time>
  <course>0.14</course>
  <speed>0.99</speed>
  <fix>3d</fix>
</trkpt>
<trkpt lat="33.8101045" lon="-118.3944322">
  <ele>-50.023</ele>
  <time>2026-09-01T01:14:09Z</time>
  <course>1.56</course>
  <speed>0.9702061636580135</speed>
  <fix>3d</fix>
</trkpt>
<trkpt lat="33.8101027" lon="-118.3944324">
  <ele>-48.82</ele>
  <time>2026-09-01T01:14:09Z</time>
  <course>0.14</course>
  <speed>0.99</speed>
  <fix>3d</fix>
</trkpt>
<trkpt lat="33.8101054" lon="-118.3944322">
  <ele>-50.022</ele>
  <time>2026-09-01T01:14:09Z</time>
  <course>1.57</course>
  <speed>0.9702061636580135</speed>
  <fix>3d</fix>
</trkpt>
<trkpt lat="33.8101044" lon="-118.3944324">
  <ele>-48.82</ele>
  <time>2026-09-01T01:14:09Z</time>
  <course>0.14</course>
  <speed>0.99</speed>
  <fix>3d</fix>
</trkpt>
<trkpt lat="33.8101063" lon="-118.3944322">
  <ele>-50.022</ele>
  <time>2026-09-01T01:14:09Z</time>
  <course>1.56</course>
  <speed>0.9702061636580135</speed>
  <fix>3d</fix>
</trkpt>
<trkpt lat="33.8101044" lon="-118.3944324">
  <ele>-48.82</ele>
  <time>2026-09-01T01:14:09Z</time>
  <course>0.14</course>
  <speed>0.99</speed>
  <fix>3d</fix>
</trkpt>
<trkpt lat="33.8101072" lon="-118.3944322">
  <ele>-50.022</ele>
  <time>2026-09-01T01:14:09Z</time>
  <course>1.57</course>
  <speed>0.9702061636580135</speed>
  <fix>3d</fix>
</trkpt>
<trkpt lat="33.8101063" lon="-118.3944324">
  <ele>-48.82</ele>
  <time>2026-09-01T01:14:09Z</time>
  <course>0.14</course>
  <speed>1.0</speed>
  <fix>3d</fix>
</trkpt>
<trkpt lat="33.8101081" lon="-118.3944322">
  <ele>-50.022</ele>
  <time>2026-09-01T01:14:09Z</time>
  <course>1.56</course>
  <speed>0.9702061636580135</speed>
  <fix>3d</fix>
</trkpt>
<trkpt lat="33.8101063" lon="-118.3944324">
  <ele>-48.82</ele>
  <time>2026-09-01T01:14:09Z</time>
  <course>0.14</course>
  <speed>1.0</speed>
  <fix>3d</fix>
</trkpt>
<trkpt lat="33.810109" lon="-118.3944322">
  <ele>-50.021</ele>
  <time>2026-09-01T01:14:09Z</time>
  <course>1.57</course>
  <speed>0.9702061636580135</speed>
  <fix>3d</fix>
</trkpt>
<trkpt lat="33.810108" lon="-118.3944324">
  <ele>-48.82</ele>
  <time>2026-09-01T01:14:09Z</time>
  <course>0.15</course>
  <speed>0.99</speed>
  <fix>3d</fix>
</trkpt>
<trkpt lat="33.8101099" lon="-118.3944322">
  <ele>-50.022</ele>
  <time>2026-09-01T01:14:09Z</time>
  <course>1.56</course>
  <speed>0.9702061636580135</speed>
  <fix>3d</fix>
</trkpt>
<trkpt lat="33.810108" lon="-118.3944324">
  <ele>-48.82</ele>
  <time>2026-09-01T01:14:09Z</time>
  <course>0.15</course>
  <speed>0.99</speed>
  <fix>3d</fix>
</trkpt>
<trkpt lat="33.8101108" lon="-118.3944322">
  <ele>-50.022</ele>
  <time>2026-09-01T01:14:09Z</time>
  <course>1.56</course>
  <speed>0.9702061636580135</speed>
  <fix>3d</fix>
</trkpt>
<trkpt lat="33.8101099" lon="-118.3944324">
  <ele>-48.82</ele>
  <time>2026-09-01T01:14:09Z</time>
  <course>0.15</course>
  <speed>0.99</speed>
  <fix>3d</fix>
</trkpt>
<trkpt lat="33.8101117" lon="-118.3944322">
  <ele>-50.023</ele>
  <time>2026-09-01T01:14:09Z</time>
  <course>1.56</course>
  <speed>0.9702061636580135</speed>
  <fix>3d</fix>
</trkpt>
<trkpt lat="33.8101099" lon="-118.3944324">
  <ele>-48.82</ele>
  <time>2026-09-01T01:14:09Z</time>
  <course>0.15</course>
  <speed>0.99</speed>
  <fix>3d</fix>
</trkpt>
<trkpt lat="33.8101126" lon="-118.3944322">
  <ele>-50.022</ele>
  <time>2026-09-01T01:14:09Z</time>
  <course>1.56</course>
  <speed>0.9702061636580135</speed>
  <fix>3d</fix>
</trkpt>
<trkpt lat="33.8101116" lon="-118.3944324">
  <ele>-48.81</ele>
  <time>2026-09-01T01:14:09Z</time>
  <course>0.16</course>
  <speed>0.99</speed>
  <fix>3d</fix>
</trkpt>
<trkpt lat="33.8101135" lon="-118.3944322">
  <ele>-50.022</ele>
  <time>2026-09-01T01:14:09Z</time>
  <course>1.55</course>
  <speed>0.9702061636580135</speed>
  <fix>3d</fix>
</trkpt>
<trkpt lat="33.8101116" lon="-118.3944324">
  <ele>-48.81</ele>
  <time>2026-09-01T01:14:09Z</time>
  <course>0.16</course>
  <speed>0.99</speed>
  <fix>3d</fix>
</trkpt>
<trkpt lat="33.8101144" lon="-118.3944322">
  <ele>-50.021</ele>
  <time>2026-09-01T01:14:09Z</time>
  <course>1.55</course>
  <speed>0.9702061636580135</speed>
  <fix>3d</fix>
</trkpt>
<trkpt lat="33.8101135" lon="-118.3944324">
  <ele>-48.81</ele>
  <time>2026-09-01T01:14:09Z</time>
  <course>0.17</course>
  <speed>0.99</speed>
  <fix>3d</fix>
</trkpt>
<trkpt lat="33.8101153" lon="-118.3944322">
  <ele>-50.021</ele>
  <time>2026-09-01T01:14:09Z</time>
  <course>1.55</course>
  <speed>0.9702061636580135</speed>
  <fix>3d</fix>
</trkpt>
<trkpt lat="33.8101135" lon="-118.3944324">
  <ele>-48.81</ele>
  <time>2026-09-01T01:14:09Z</time>
  <course>0.17</course>
  <speed>0.99</speed>
  <fix>3d</fix>
</trkpt>
<trkpt lat="33.8101162" lon="-118.3944322">
  <ele>-50.021</ele>
  <time>2026-09-01T01:14:09Z</time>
  <course>1.55</course>
  <speed>0.9702061636580135</speed>
  <fix>3d</fix>
</trkpt>
<trkpt lat="33.8101152" lon="-118.3944324">
  <ele>-48.81</ele>
  <time>2026-09-01T01:14:09Z</time>
  <course>0.19</course>
  <speed>0.99</speed>
  <fix>3d</fix>
</trkpt>
<trkpt lat="33.8101171" lon="-118.3944322">
  <ele>-50.02</ele>
  <time>2026-09-01T01:14:09Z</time>
  <course>1.54</course>
  <speed>0.9702061636580135</speed>
  <fix>3d</fix>
</trkpt>
<trkpt lat="33.8101152" lon="-118.3944324">
  <ele>-48.81</ele>
  <time>2026-09-01T01:14:09Z</time>
  <course>0.19</course>
  <speed>0.99</speed>
  <fix>3d</fix>
</trkpt>
<trkpt lat="33.810118" lon="-118.3944322">
  <ele>-50.02</ele>
  <time>2026-09-01T01:14:09Z</time>
  <course>1.54</course>
  <speed>0.9702061636580135</speed>
  <fix>3d</fix>
</trkpt>
<trkpt lat="33.8101171" lon="-118.3944324">
  <ele>-48.81</ele>
  <time>2026-09-01T01:14:09Z</time>
  <course>0.19</course>
  <speed>0.99</speed>
  <fix>3d</fix>
</trkpt>
<trkpt lat="33.8101189" lon="-118.3944322">
  <ele>-50.019</ele>
  <time>2026-09-01T01:14:09Z</time>
  <course>1.53</course>
  <speed>0.9702061636580135</speed>
  <fix>3d</fix>
</trkpt>
<trkpt lat="33.8101171" lon="-118.3944324">
  <ele>-48.81</ele>
  <time>2026-09-01T01:14:09Z</time>
  <course>0.19</course>
  <speed>0.99</speed>
  <fix>3d</fix>
</trkpt>
<trkpt lat="33.8101198" lon="-118.3944322">
  <ele>-50.019</ele>
  <time>2026-09-01T01:14:09Z</time>
  <course>1.53</course>
  <speed>0.9702061636580135</speed>
  <fix>3d</fix>
</trkpt>
<trkpt lat="33.8101188" lon="-118.3944324">
  <ele>-48.81</ele>
  <time>2026-09-01T01:14:09Z</time>
  <course>0.2</course>
  <speed>0.99</speed>
  <fix>3d</fix>
</trkpt>
<trkpt lat="33.8101207" lon="-118.3944322">
  <ele>-50.019</ele>
  <time>2026-09-01T01:14:09Z</time>
  <course>1.52</course>
  <speed>0.9702061636580135</speed>
  <fix>3d</fix>
</trkpt>
<trkpt lat="33.8101188" lon="-118.3944324">
  <ele>-48.81</ele>
  <time>2026-09-01T01:14:09Z</time>
  <course>0.2</course>
  <speed>0.99</speed>
  <fix>3d</fix>
</trkpt>
<trkpt lat="33.8101216" lon="-118.3944322">
  <ele>-50.019</ele>
  <time>2026-09-01T01:14:09Z</time>
  <course>1.52</course>
  <speed>0.9702061636580135</speed>
  <fix>3d</fix>
</trkpt>
<trkpt lat="33.8101206" lon="-118.3944324">
  <ele>-48.81</ele>
  <time>2026-09-01T01:14:09Z</time>
  <course>0.2</course>
  <speed>0.99</speed>
  <fix>3d</fix>
</trkpt>
<trkpt lat="33.8101225" lon="-118.3944322">
  <ele>-50.019</ele>
  <time>2026-09-01T01:14:09Z</time>
  <course>1.51</course>
  <speed>0.9702061636580135</speed>
  <fix>3d</fix>
</trkpt>
<trkpt lat="33.8101206" lon="-118.3944324">
  <ele>-48.81</ele>
  <time>2026-09-01T01:14:09Z</time>
  <course>0.2</course>
  <speed>0.99</speed>
  <fix>3d</fix>
</trkpt>
<trkpt lat="33.8101234" lon="-118.3944322">
  <ele>-50.019</ele>
  <time>2026-09-01T01:14:09Z</time>
  <course>1.51</course>
  <speed>0.9702061636580135</speed>
  <fix>3d</fix>
</trkpt>
<trkpt lat="33.8101224" lon="-118.3944324">
  <ele>-48.81</ele>
  <time>2026-09-01T01:14:09Z</time>
  <course>0.19</course>
  <speed>0.99</speed>
  <fix>3d</fix>
</trkpt>
<trkpt lat="33.8101243" lon="-118.3944322">
  <ele>-50.018</ele>
  <time>2026-09-01T01:14:09Z</time>
  <course>1.5</course>
  <speed>0.9702061636580135</speed>
  <fix>3d</fix>
</trkpt>
<trkpt lat="33.8101224" lon="-118.3944324">
  <ele>-48.81</ele>
  <time>2026-09-01T01:14:09Z</time>
  <course>0.19</course>
  <speed>0.99</speed>
  <fix>3d</fix>
</trkpt>
<trkpt lat="33.8101252" lon="-118.3944322">
  <ele>-50.018</ele>
  <time>2026-09-01T01:14:09Z</time>
  <course>1.51</course>
  <speed>0.9702061636580135</speed>
  <fix>3d</fix>
</trkpt>
<trkpt lat="33.8101242" lon="-118.3944324">
  <ele>-48.81</ele>
  <time>2026-09-01T01:14:09Z</time>
  <course>0.2</course>
  <speed>1.0</speed>
  <fix>3d</fix>
</trkpt>
<trkpt lat="33.8101261" lon="-118.3944322">
  <ele>-50.018</ele>
  <time>2026-09-01T01:14:09Z</time>
  <course>1.51</course>
  <speed>0.9702061636580135</speed>
  <fix>3d</fix>
</trkpt>
<trkpt lat="33.8101242" lon="-118.3944324">
  <ele>-48.81</ele>
  <time>2026-09-01T01:14:09Z</time>
  <course>0.2</course>
  <speed>1.0</speed>
  <fix>3d</fix>
</trkpt>
<trkpt lat="33.810127" lon="-118.3944322">
  <ele>-50.018</ele>
  <time>2026-09-01T01:14:09Z</time>
  <course>1.51</course>
  <speed>0.9702061636580135</speed>
  <fix>3d</fix>
</trkpt>
<trkpt lat="33.8101259" lon="-118.3944324">
  <ele>-48.81</ele>
  <time>2026-09-01T01:14:09Z</time>
  <course>0.2</course>
  <speed>1.0</speed>
  <fix>3d</fix>
</trkpt>
<trkpt lat="33.8101279" lon="-118.3944322">
  <ele>-50.019</ele>
  <time>2026-09-01T01:14:09Z</time>
  <course>1.51</course>
  <speed>0.9702061636580135</speed>
  <fix>3d</fix>
</trkpt>
<trkpt lat="33.8101259" lon="-118.3944324">
  <ele>-48.81</ele>
  <time>2026-09-01T01:14:09Z</time>
  <course>0.2</course>
  <speed>1.0</speed>
  <fix>3d</fix>
</trkpt>
<trkpt lat="33.8101288" lon="-118.3944322">
  <ele>-50.02</ele>
  <time>2026-09-01T01:14:09Z</time>
  <course>1.51</course>
  <speed>0.9702061636580135</speed>
  <fix>3d</fix>
</trkpt>
<trkpt lat="33.8101278" lon="-118.3944324">
  <ele>-48.81</ele>
  <time>2026-09-01T01:14:09Z</time>
  <course>0.21</course>
  <speed>1.0</speed>
  <fix>3d</fix>
</trkpt>
<trkpt lat="33.8101297" lon="-118.3944322">
  <ele>-50.021</ele>
  <time>2026-09-01T01:14:09Z</time>
  <course>1.5</course>
  <speed>0.9702061636580135</speed>
  <fix>3d</fix>
</trkpt>
<trkpt lat="33.8101278" lon="-118.3944324">
  <ele>-48.81</ele>
  <time>2026-09-01T01:14:09Z</time>
  <course>0.21</course>
  <speed>1.0</speed>
  <fix>3d</fix>
</trkpt>
<trkpt lat="33.8101306" lon="-118.3944322">
  <ele>-50.021</ele>
  <time>2026-09-01T01:14:09Z</time>
  <course>1.5</course>
  <speed>0.9702061636580135</speed>
  <fix>3d</fix>
</trkpt>
<trkpt lat="33.8101295" lon="-118.3944323">
  <ele>-48.81</ele>
  <time>2026-09-01T01:14:09Z</time>
  <course>0.23</course>
  <speed>1.0</speed>
  <fix>3d</fix>
</trkpt>
<trkpt lat="33.8101315" lon="-118.3944322">
  <ele>-50.02</ele>
  <time>2026-09-01T01:14:09Z</time>
  <course>1.48</course>
  <speed>0.9702061636580135</speed>
  <fix>3d</fix>
</trkpt>
<trkpt lat="33.8101295" lon="-118.3944323">
  <ele>-48.81</ele>
  <time>2026-09-01T01:14:09Z</time>
  <course>0.23</course>
  <speed>1.0</speed>
  <fix>3d</fix>
</trkpt>
<trkpt lat="33.8101324" lon="-118.3944322">
  <ele>-50.018</ele>
  <time>2026-09-01T01:14:09Z</time>
  <course>1.45</course>
  <speed>0.9802040603874276</speed>
  <fix>3d</fix>
</trkpt>
<trkpt lat="33.8101314" lon="-118.3944323">
  <ele>-48.81</ele>
  <time>2026-09-01T01:14:09Z</time>
  <course>0.19</course>
  <speed>1.0</speed>
  <fix>3d</fix>
</trkpt>
<trkpt lat="33.8101333" lon="-118.3944321">
  <ele>-50.017</ele>
  <time>2026-09-01T01:14:09Z</time>
  <course>1.41</course>
  <speed>0.9702061636580135</speed>
  <fix>3d</fix>
</trkpt>
<trkpt lat="33.8101314" lon="-118.3944323">
  <ele>-48.81</ele>
  <time>2026-09-01T01:14:09Z</time>
  <course>0.19</course>
  <speed>1.0</speed>
  <fix>3d</fix>
</trkpt>
<trkpt lat="33.8101342" lon="-118.3944321">
  <ele>-50.017</ele>
  <time>2026-09-01T01:14:09Z</time>
  <course>1.36</course>
  <speed>0.9702061636580135</speed>
  <fix>3d</fix>
</trkpt>
<trkpt lat="33.8101331" lon="-118.3944323">
  <ele>-48.81</ele>
  <time>2026-09-01T01:14:09Z</time>
  <course>0.1</course>
  <speed>1.0</speed>
  <fix>3d</fix>
</trkpt>
<trkpt lat="33.8101351" lon="-118.3944321">
  <ele>-50.018</ele>
  <time>2026-09-01T01:14:09Z</time>
  <course>1.31</course>
  <speed>0.9702061636580135</speed>
  <fix>3d</fix>
</trkpt>
<trkpt lat="33.8101331" lon="-118.3944323">
  <ele>-48.81</ele>
  <time>2026-09-01T01:14:09Z</time>
  <course>0.1</course>
  <speed>1.0</speed>
  <fix>3d</fix>
</trkpt>
<trkpt lat="33.810136" lon="-118.3944321">
  <ele>-50.018</ele>
  <time>2026-09-01T01:14:09Z</time>
  <course>1.26</course>
  <speed>0.9702061636580135</speed>
  <fix>3d</fix>
</trkpt>
<trkpt lat="33.810135" lon="-118.3944323">
  <ele>-48.81</ele>
  <time>2026-09-01T01:14:09Z</time>
  <course>0.02</course>
  <speed>1.0</speed>
  <fix>3d</fix>
</trkpt>
<trkpt lat="33.8101369" lon="-118.3944321">
  <ele>-50.018</ele>
  <time>2026-09-01T01:14:09Z</time>
  <course>1.22</course>
  <speed>0.9702061636580135</speed>
  <fix>3d</fix>
</trkpt>
<trkpt lat="33.810135" lon="-118.3944323">
  <ele>-48.81</ele>
  <time>2026-09-01T01:14:09Z</time>
  <course>0.02</course>
  <speed>1.0</speed>
  <fix>3d</fix>
</trkpt>
<trkpt lat="33.8101378" lon="-118.3944321">
  <ele>-50.018</ele>
  <time>2026-09-01T01:14:09Z</time>
  <course>1.19</course>
  <speed>0.9702061636580135</speed>
  <fix>3d</fix>
</trkpt>
<trkpt lat="33.8101367" lon="-118.3944323">
  <ele>-48.81</ele>
  <time>2026-09-01T01:14:09Z</time>
  <course>359.97</course>
  <speed>1.0</speed>
  <fix>3d</fix>
</trkpt>
<trkpt lat="33.8101387" lon="-118.3944321">
  <ele>-50.019</ele>
  <time>2026-09-01T01:14:09Z</time>
  <course>1.16</course>
  <speed>0.9702061636580135</speed>
  <fix>3d</fix>
</trkpt>
<trkpt lat="33.8101367" lon="-118.3944323">
  <ele>-48.81</ele>
  <time>2026-09-01T01:14:09Z</time>
  <course>359.97</course>
  <speed>1.0</speed>
  <fix>3d</fix>
</trkpt>
<trkpt lat="33.8101396" lon="-118.3944321">
  <ele>-50.02</ele>
  <time>2026-09-01T01:14:09Z</time>
  <course>1.14</course>
  <speed>0.9702061636580135</speed>
  <fix>3d</fix>
</trkpt>
<trkpt lat="33.8101386" lon="-118.3944323">
  <ele>-48.81</ele>
  <time>2026-09-01T01:14:09Z</time>
  <course>359.93</course>
  <speed>1.0</speed>
  <fix>3d</fix>
</trkpt>
<trkpt lat="33.8101405" lon="-118.3944321">
  <ele>-50.022</ele>
  <time>2026-09-01T01:14:09Z</time>
  <course>1.11</course>
  <speed>0.9702061636580135</speed>
  <fix>3d</fix>
</trkpt>
<trkpt lat="33.8101386" lon="-118.3944323">
  <ele>-48.81</ele>
  <time>2026-09-01T01:14:09Z</time>
  <course>359.93</course>
  <speed>1.0</speed>
  <fix>3d</fix>
</trkpt>
<trkpt lat="33.8101414" lon="-118.3944321">
  <ele>-50.022</ele>
  <time>2026-09-01T01:14:09Z</time>
  <course>1.09</course>
  <speed>0.9702061636580135</speed>
  <fix>3d</fix>
</trkpt>
<trkpt lat="33.8101405" lon="-118.3944323">
  <ele>-48.81</ele>
  <time>2026-09-01T01:14:09Z</time>
  <course>359.9</course>
  <speed>1.0</speed>
  <fix>3d</fix>
</trkpt>
<trkpt lat="33.8101423" lon="-118.3944321">
  <ele>-50.021</ele>
  <time>2026-09-01T01:14:09Z</time>
  <course>1.08</course>
  <speed>0.9702061636580135</speed>
  <fix>3d</fix>
</trkpt>
<trkpt lat="33.8101405" lon="-118.3944323">
  <ele>-48.81</ele>
  <time>2026-09-01T01:14:09Z</time>
  <course>359.9</course>
  <speed>1.0</speed>
  <fix>3d</fix>
</trkpt>
<trkpt lat="33.8101432" lon="-118.3944321">
  <ele>-50.02</ele>
  <time>2026-09-01T01:14:09Z</time>
  <course>1.07</course>
  <speed>0.9702061636580135</speed>
  <fix>3d</fix>
</trkpt>
<trkpt lat="33.8101422" lon="-118.3944323">
  <ele>-48.81</ele>
  <time>2026-09-01T01:14:09Z</time>
  <course>359.87</course>
  <speed>1.0</speed>
  <fix>3d</fix>
</trkpt>
<trkpt lat="33.8101441" lon="-118.3944321">
  <ele>-50.019</ele>
  <time>2026-09-01T01:14:09Z</time>
  <course>1.06</course>
  <speed>0.9702061636580135</speed>
  <fix>3d</fix>
</trkpt>
<trkpt lat="33.8101422" lon="-118.3944323">
  <ele>-48.81</ele>
  <time>2026-09-01T01:14:09Z</time>
  <course>359.87</course>
  <speed>1.0</speed>
  <fix>3d</fix>
</trkpt>
<trkpt lat="33.810145" lon="-118.3944321">
  <ele>-50.018</ele>
  <time>2026-09-01T01:14:09Z</time>
  <course>1.06</course>
  <speed>0.9702061636580135</speed>
  <fix>3d</fix>
</trkpt>
<trkpt lat="33.8101441" lon="-118.3944323">
  <ele>-48.81</ele>
  <time>2026-09-01T01:14:09Z</time>
  <course>359.85</course>
  <speed>1.0</speed>
  <fix>3d</fix>
</trkpt>
<trkpt lat="33.8101459" lon="-118.3944321">
  <ele>-50.017</ele>
  <time>2026-09-01T01:14:09Z</time>
  <course>1.05</course>
  <speed>0.9702061636580135</speed>
  <fix>3d</fix>
</trkpt>
<trkpt lat="33.8101441" lon="-118.3944323">
  <ele>-48.81</ele>
  <time>2026-09-01T01:14:09Z</time>
  <course>359.85</course>
  <speed>1.0</speed>
  <fix>3d</fix>
</trkpt>
<trkpt lat="33.8101468" lon="-118.3944321">
  <ele>-50.017</ele>
  <time>2026-09-01T01:14:09Z</time>
  <course>1.05</course>
  <speed>0.9702061636580135</speed>
  <fix>3d</fix>
</trkpt>
<trkpt lat="33.8101458" lon="-118.3944323">
  <ele>-48.81</ele>
  <time>2026-09-01T01:14:09Z</time>
  <course>359.83</course>
  <speed>0.99</speed>
  <fix>3d</fix>
</trkpt>
<trkpt lat="33.8101477" lon="-118.3944321">
  <ele>-50.017</ele>
  <time>2026-09-01T01:14:09Z</time>
  <course>1.05</course>
  <speed>0.9702061636580135</speed>
  <fix>3d</fix>
</trkpt>
<trkpt lat="33.8101458" lon="-118.3944323">
  <ele>-48.81</ele>
  <time>2026-09-01T01:14:09Z</time>
  <course>359.83</course>
  <speed>0.99</speed>
  <fix>3d</fix>
</trkpt>
<trkpt lat="33.8101486" lon="-118.3944321">
  <ele>-50.017</ele>
  <time>2026-09-01T01:14:09Z</time>
  <course>1.05</course>
  <speed>0.9702061636580135</speed>
  <fix>3d</fix>
</trkpt>
<trkpt lat="33.8101476" lon="-118.3944323">
  <ele>-48.81</ele>
  <time>2026-09-01T01:14:09Z</time>
  <course>359.8</course>
  <speed>0.99</speed>
  <fix>3d</fix>
</trkpt>
<trkpt lat="33.8101495" lon="-118.3944321">
  <ele>-50.018</ele>
  <time>2026-09-01T01:14:09Z</time>
  <course>1.05</course>
  <speed>0.9702061636580135</speed>
  <fix>3d</fix>
</trkpt>
<trkpt lat="33.8101476" lon="-118.3944323">
  <ele>-48.81</ele>
  <time>2026-09-01T01:14:09Z</time>
  <course>359.8</course>
  <speed>0.99</speed>
  <fix>3d</fix>
</trkpt>
<trkpt lat="33.8101504" lon="-118.3944321">
  <ele>-50.018</ele>
  <time>2026-09-01T01:14:09Z</time>
  <course>1.06</course>
  <speed>0.9702061636580135</speed>
  <fix>3d</fix>
</trkpt>
<trkpt lat="33.8101494" lon="-118.3944323">
  <ele>-48.81</ele>
  <time>2026-09-01T01:14:09Z</time>
  <course>359.77</course>
  <speed>0.99</speed>
  <fix>3d</fix>
</trkpt>
<trkpt lat="33.8101513" lon="-118.3944321">
  <ele>-50.018</ele>
  <time>2026-09-01T01:14:09Z</time>
  <course>1.06</course>
  <speed>0.9702061636580135</speed>
  <fix>3d</fix>
</trkpt>
<trkpt lat="33.8101494" lon="-118.3944323">
  <ele>-48.81</ele>
  <time>2026-09-01T01:14:09Z</time>
  <course>359.77</course>
  <speed>0.99</speed>
  <fix>3d</fix>
</trkpt>
<trkpt lat="33.8101522" lon="-118.3944321">
  <ele>-50.018</ele>
  <time>2026-09-01T01:14:09Z</time>
  <course>1.07</course>
  <speed>0.9702061636580135</speed>
  <fix>3d</fix>
</trkpt>
<trkpt lat="33.8101511" lon="-118.3944323">
  <ele>-48.81</ele>
  <time>2026-09-01T01:14:09Z</time>
  <course>359.75</course>
  <speed>0.99</speed>
  <fix>3d</fix>
</trkpt>
<trkpt lat="33.8101531" lon="-118.3944321">
  <ele>-50.018</ele>
  <time>2026-09-01T01:14:09Z</time>
  <course>1.07</course>
  <speed>0.9702061636580135</speed>
  <fix>3d</fix>
</trkpt>
<trkpt lat="33.8101511" lon="-118.3944323">
  <ele>-48.81</ele>
  <time>2026-09-01T01:14:09Z</time>
  <course>359.75</course>
  <speed>0.99</speed>
  <fix>3d</fix>
</trkpt>
<trkpt lat="33.810154" lon="-118.3944321">
  <ele>-50.018</ele>
  <time>2026-09-01T01:14:09Z</time>
  <course>1.07</course>
  <speed>0.9702061636580135</speed>
  <fix>3d</fix>
</trkpt>
<trkpt lat="33.810153" lon="-118.3944323">
  <ele>-48.81</ele>
  <time>2026-09-01T01:14:09Z</time>
  <course>359.75</course>
  <speed>0.99</speed>
  <fix>3d</fix>
</trkpt>
<trkpt lat="33.8101549" lon="-118.3944321">
  <ele>-50.018</ele>
  <time>2026-09-01T01:14:09Z</time>
  <course>1.07</course>
  <speed>0.9702061636580135</speed>
  <fix>3d</fix>
</trkpt>
<trkpt lat="33.810153" lon="-118.3944323">
  <ele>-48.81</ele>
  <time>2026-09-01T01:14:09Z</time>
  <course>359.75</course>
  <speed>0.99</speed>
  <fix>3d</fix>
</trkpt>
<trkpt lat="33.8101558" lon="-118.3944321">
  <ele>-50.019</ele>
  <time>2026-09-01T01:14:09Z</time>
  <course>1.08</course>
  <speed>0.9702061636580135</speed>
  <fix>3d</fix>
</trkpt>
<trkpt lat="33.8101547" lon="-118.3944323">
  <ele>-48.81</ele>
  <time>2026-09-01T01:14:09Z</time>
  <course>359.73</course>
  <speed>0.99</speed>
  <fix>3d</fix>
</trkpt>
<trkpt lat="33.8101567" lon="-118.3944321">
  <ele>-50.018</ele>
  <time>2026-09-01T01:14:09Z</time>
  <course>1.08</course>
  <speed>0.9702061636580135</speed>
  <fix>3d</fix>
</trkpt>
<trkpt lat="33.8101547" lon="-118.3944323">
  <ele>-48.81</ele>
  <time>2026-09-01T01:14:09Z</time>
  <course>359.73</course>
  <speed>0.99</speed>
  <fix>3d</fix>
</trkpt>
<trkpt lat="33.8101576" lon="-118.3944321">
  <ele>-50.018</ele>
  <time>2026-09-01T01:14:09Z</time>
  <course>1.09</course>
  <speed>0.9702061636580135</speed>
  <fix>3d</fix>
</trkpt>
<trkpt lat="33.8101566" lon="-118.3944323">
  <ele>-48.81</ele>
  <time>2026-09-01T01:14:09Z</time>
  <course>359.71</course>
  <speed>0.99</speed>
  <fix>3d</fix>
</trkpt>
<trkpt lat="33.8101585" lon="-118.3944321">
  <ele>-50.018</ele>
  <time>2026-09-01T01:14:09Z</time>
  <course>1.09</course>
  <speed>0.9702061636580135</speed>
  <fix>3d</fix>
</trkpt>
<trkpt lat="33.8101566" lon="-118.3944323">
  <ele>-48.81</ele>
  <time>2026-09-01T01:14:09Z</time>
  <course>359.71</course>
  <speed>0.99</speed>
  <fix>3d</fix>
</trkpt>
<trkpt lat="33.8101594" lon="-118.3944321">
  <ele>-50.019</ele>
  <time>2026-09-01T01:14:09Z</time>
  <course>1.1</course>
  <speed>0.9702061636580135</speed>
  <fix>3d</fix>
</trkpt>
<trkpt lat="33.8101583" lon="-118.3944323">
  <ele>-48.82</ele>
  <time>2026-09-01T01:14:09Z</time>
  <course>359.7</course>
  <speed>0.99</speed>
  <fix>3d</fix>
</trkpt>
<trkpt lat="33.8101603" lon="-118.3944321">
  <ele>-50.021</ele>
  <time>2026-09-01T01:14:09Z</time>
  <course>1.1</course>
  <speed>0.9702061636580135</speed>
  <fix>3d</fix>
</trkpt>
<trkpt lat="33.8101583" lon="-118.3944323">
  <ele>-48.82</ele>
  <time>2026-09-01T01:14:09Z</time>
  <course>359.7</course>
  <speed>0.99</speed>
  <fix>3d</fix>
</trkpt>
<trkpt lat="33.8101612" lon="-118.3944321">
  <ele>-50.024</ele>
  <time>2026-09-01T01:14:09Z</time>
  <course>1.11</course>
  <speed>0.9702061636580135</speed>
  <fix>3d</fix>
</trkpt>
<trkpt lat="33.8101602" lon="-118.3944323">
  <ele>-48.82</ele>
  <time>2026-09-01T01:14:09Z</time>
  <course>359.68</course>
  <speed>0.99</speed>
  <fix>3d</fix>
</trkpt>
<trkpt lat="33.8101621" lon="-118.3944321">
  <ele>-50.026</ele>
  <time>2026-09-01T01:14:09Z</time>
  <course>1.11</course>
  <speed>0.9702061636580135</speed>
  <fix>3d</fix>
</trkpt>
<trkpt lat="33.8101602" lon="-118.3944323">
  <ele>-48.82</ele>
  <time>2026-09-01T01:14:09Z</time>
  <course>359.68</course>
  <speed>0.99</speed>
  <fix>3d</fix>
</trkpt>
<trkpt lat="33.810163" lon="-118.3944321">
  <ele>-50.026</ele>
  <time>2026-09-01T01:14:09Z</time>
  <course>1.12</course>
  <speed>0.9702061636580135</speed>
  <fix>3d</fix>
</trkpt>
<trkpt lat="33.810162" lon="-118.3944323">
  <ele>-48.82</ele>
  <time>2026-09-01T01:14:09Z</time>
  <course>359.65</course>
  <speed>0.99</speed>
  <fix>3d</fix>
</trkpt>
<trkpt lat="33.8101639" lon="-118.3944321">
  <ele>-50.026</ele>
  <time>2026-09-01T01:14:09Z</time>
  <course>1.13</course>
  <speed>0.9702061636580135</speed>
  <fix>3d</fix>
</trkpt>
<trkpt lat="33.810162" lon="-118.3944323">
  <ele>-48.82</ele>
  <time>2026-09-01T01:14:09Z</time>
  <course>359.65</course>
  <speed>0.99</speed>
  <fix>3d</fix>
</trkpt>
<trkpt lat="33.8101648" lon="-118.3944321">
  <ele>-50.025</ele>
  <time>2026-09-01T01:14:09Z</time>
  <course>1.13</course>
  <speed>0.9702061636580135</speed>
  <fix>3d</fix>
</trkpt>
<trkpt lat="33.8101638" lon="-118.3944324">
  <ele>-48.82</ele>
  <time>2026-09-01T01:14:09Z</time>
  <course>359.62</course>
  <speed>0.99</speed>
  <fix>3d</fix>
</trkpt>
<trkpt lat="33.8101657" lon="-118.3944321">
  <ele>-50.024</ele>
  <time>2026-09-01T01:14:09Z</time>
  <course>1.15</course>
  <speed>0.9702061636580135</speed>
  <fix>3d</fix>
</trkpt>
<trkpt lat="33.8101638" lon="-118.3944324">
  <ele>-48.82</ele>
  <time>2026-09-01T01:14:09Z</time>
  <course>359.62</course>
  <speed>0.99</speed>
  <fix>3d</fix>
</trkpt>
<trkpt lat="33.8101666" lon="-118.3944321">
  <ele>-50.023</ele>
  <time>2026-09-01T01:14:09Z</time>
  <course>1.19</course>
  <speed>0.9702061636580135</speed>
  <fix>3d</fix>
</trkpt>
<trkpt lat="33.8101656" lon="-118.3944324">
  <ele>-48.81</ele>
  <time>2026-09-01T01:14:09Z</time>
  <course>359.64</course>
  <speed>0.99</speed>
  <fix>3d</fix>
</trkpt>
<trkpt lat="33.8101675" lon="-118.3944321">
  <ele>-50.021</ele>
  <time>2026-09-01T01:14:09Z</time>
  <course>1.23</course>
  <speed>0.9702061636580135</speed>
  <fix>3d</fix>
</trkpt>
<trkpt lat="33.8101656" lon="-118.3944324">
  <ele>-48.81</ele>
  <time>2026-09-01T01:14:09Z</time>
  <course>359.64</course>
  <speed>0.99</speed>
  <fix>3d</fix>
</trkpt>
<trkpt lat="33.8101684" lon="-118.3944321">
  <ele>-50.02</ele>
  <time>2026-09-01T01:14:09Z</time>
  <course>1.29</course>
  <speed>0.9702061636580135</speed>
  <fix>3d</fix>
</trkpt>
<trkpt lat="33.8101674" lon="-118.3944324">
  <ele>-48.81</ele>
  <time>2026-09-01T01:14:09Z</time>
  <course>359.72</course>
  <speed>0.99</speed>
  <fix>3d</fix>
</trkpt>
<trkpt lat="33.8101693" lon="-118.3944321">
  <ele>-50.018</ele>
  <time>2026-09-01T01:14:09Z</time>
  <course>1.34</course>
  <speed>0.9702061636580135</speed>
  <fix>3d</fix>
</trkpt>
<trkpt lat="33.8101674" lon="-118.3944324">
  <ele>-48.81</ele>
  <time>2026-09-01T01:14:09Z</time>
  <course>359.72</course>
  <speed>0.99</speed>
  <fix>3d</fix>
</trkpt>
<trkpt lat="33.8101702" lon="-118.3944321">
  <ele>-50.017</ele>
  <time>2026-09-01T01:14:09Z</time>
  <course>1.4</course>
  <speed>0.9702061636580135</speed>
  <fix>3d</fix>
</trkpt>
<trkpt lat="33.8101691" lon="-118.3944324">
  <ele>-48.81</ele>
  <time>2026-09-01T01:14:09Z</time>
  <course>359.79</course>
  <speed>0.99</speed>
  <fix>3d</fix>
</trkpt>
<trkpt lat="33.8101711" lon="-118.3944321">
  <ele>-50.017</ele>
  <time>2026-09-01T01:14:09Z</time>
  <course>1.44</course>
  <speed>0.9702061636580135</speed>
  <fix>3d</fix>
</trkpt>
<trkpt lat="33.8101691" lon="-118.3944324">
  <ele>-48.81</ele>
  <time>2026-09-01T01:14:09Z</time>
  <course>359.79</course>
  <speed>0.99</speed>
  <fix>3d</fix>
</trkpt>
<trkpt lat="33.810172" lon="-118.3944321">
  <ele>-50.018</ele>
  <time>2026-09-01T01:14:09Z</time>
  <course>1.47</course>
  <speed>0.9702061636580135</speed>
  <fix>3d</fix>
</trkpt>
<trkpt lat="33.8101709" lon="-118.3944324">
  <ele>-48.81</ele>
  <time>2026-09-01T01:14:09Z</time>
  <course>359.84</course>
  <speed>0.99</speed>
  <fix>3d</fix>
</trkpt>
<trkpt lat="33.8101729" lon="-118.3944321">
  <ele>-50.018</ele>
  <time>2026-09-01T01:14:09Z</time>
  <course>1.49</course>
  <speed>0.9702061636580135</speed>
  <fix>3d</fix>
</trkpt>
<trkpt lat="33.8101709" lon="-118.3944324">
  <ele>-48.81</ele>
  <time>2026-09-01T01:14:09Z</time>
  <course>359.84</course>
  <speed>0.99</speed>
  <fix>3d</fix>
</trkpt>
<trkpt lat="33.8101737" lon="-118.3944321">
  <ele>-50.02</ele>
  <time>2026-09-01T01:14:09Z</time>
  <course>1.52</course>
  <speed>0.9702061636580135</speed>
  <fix>3d</fix>
</trkpt>
<trkpt lat="33.8101726" lon="-118.3944324">
  <ele>-48.81</ele>
  <time>2026-09-01T01:14:09Z</time>
  <course>359.84</course>
  <speed>0.99</speed>
  <fix>3d</fix>
</trkpt>
<trkpt lat="33.8101746" lon="-118.3944321">
  <ele>-50.022</ele>
  <time>2026-09-01T01:14:09Z</time>
  <course>1.54</course>
  <speed>0.9802040603874276</speed>
  <fix>3d</fix>
</trkpt>
<trkpt lat="33.8101726" lon="-118.3944324">
  <ele>-48.81</ele>
  <time>2026-09-01T01:14:09Z</time>
  <course>359.84</course>
  <speed>0.99</speed>
  <fix>3d</fix>
</trkpt>
<trkpt lat="33.8101755" lon="-118.3944321">
  <ele>-50.023</ele>
  <time>2026-09-01T01:14:09Z</time>
  <course>1.56</course>
  <speed>0.9802040603874276</speed>
  <fix>3d</fix>
</trkpt>
<trkpt lat="33.8101745" lon="-118.3944324">
  <ele>-48.81</ele>
  <time>2026-09-01T01:14:09Z</time>
  <course>359.86</course>
  <speed>1.0</speed>
  <fix>3d</fix>
</trkpt>
<trkpt lat="33.8101764" lon="-118.3944321">
  <ele>-50.024</ele>
  <time>2026-09-01T01:14:09Z</time>
  <course>1.57</course>
  <speed>0.9802040603874276</speed>
  <fix>3d</fix>
</trkpt>
<trkpt lat="33.8101745" lon="-118.3944324">
  <ele>-48.81</ele>
  <time>2026-09-01T01:14:09Z</time>
  <course>359.86</course>
  <speed>1.0</speed>
  <fix>3d</fix>
</trkpt>
<trkpt lat="33.8101773" lon="-118.3944321">
  <ele>-50.024</ele>
  <time>2026-09-01T01:14:09Z</time>
  <course>1.59</course>
  <speed>0.9802040603874276</speed>
  <fix>3d</fix>
</trkpt>
<trkpt lat="33.8101762" lon="-118.3944324">
  <ele>-48.81</ele>
  <time>2026-09-01T01:14:09Z</time>
  <course>359.89</course>
  <speed>1.0</speed>
  <fix>3d</fix>
</trkpt>
<trkpt lat="33.8101782" lon="-118.3944321">
  <ele>-50.023</ele>
  <time>2026-09-01T01:14:09Z</time>
  <course>1.6</course>
  <speed>0.9802040603874276</speed>
  <fix>3d</fix>
</trkpt>
<trkpt lat="33.8101762" lon="-118.3944324">
  <ele>-48.81</ele>
  <time>2026-09-01T01:14:09Z</time>
  <course>359.89</course>
  <speed>1.0</speed>
  <fix>3d</fix>
</trkpt>
<trkpt lat="33.8101791" lon="-118.3944321">
  <ele>-50.02</ele>
  <time>2026-09-01T01:14:09Z</time>
  <course>1.61</course>
  <speed>0.9802040603874276</speed>
  <fix>3d</fix>
</trkpt>
<trkpt lat="33.8101781" lon="-118.3944324">
  <ele>-48.8</ele>
  <time>2026-09-01T01:14:09Z</time>
  <course>359.9</course>
  <speed>1.0</speed>
  <fix>3d</fix>
</trkpt>
<trkpt lat="33.81018" lon="-118.3944321">
  <ele>-50.018</ele>
  <time>2026-09-01T01:14:09Z</time>
  <course>1.62</course>
  <speed>0.9802040603874276</speed>
  <fix>3d</fix>
</trkpt>
<trkpt lat="33.8101781" lon="-118.3944324">
  <ele>-48.8</ele>
  <time>2026-09-01T01:14:09Z</time>
  <course>359.9</course>
  <speed>1.0</speed>
  <fix>3d</fix>
</trkpt>
<trkpt lat="33.8101809" lon="-118.3944321">
  <ele>-50.016</ele>
  <time>2026-09-01T01:14:09Z</time>
  <course>1.62</course>
  <speed>0.9802040603874276</speed>
  <fix>3d</fix>
</trkpt>
<trkpt lat="33.8101798" lon="-118.3944324">
  <ele>-48.8</ele>
  <time>2026-09-01T01:14:09Z</time>
  <course>359.9</course>
  <speed>1.0</speed>
  <fix>3d</fix>
</trkpt>
<trkpt lat="33.8101818" lon="-118.3944321">
  <ele>-50.014</ele>
  <time>2026-09-01T01:14:09Z</time>
  <course>1.62</course>
  <speed>0.9802040603874276</speed>
  <fix>3d</fix>
</trkpt>
<trkpt lat="33.8101798" lon="-118.3944324">
  <ele>-48.8</ele>
  <time>2026-09-01T01:14:09Z</time>
  <course>359.9</course>
  <speed>1.0</speed>
  <fix>3d</fix>
</trkpt>
<trkpt lat="33.8101827" lon="-118.3944321">
  <ele>-50.014</ele>
  <time>2026-09-01T01:14:09Z</time>
  <course>1.63</course>
  <speed>0.9802040603874276</speed>
  <fix>3d</fix>
</trkpt>
<trkpt lat="33.8101817" lon="-118.3944324">
  <ele>-48.8</ele>
  <time>2026-09-01T01:14:09Z</time>
  <course>359.9</course>
  <speed>1.0</speed>
  <fix>3d</fix>
</trkpt>
<trkpt lat="33.8101836" lon="-118.3944321">
  <ele>-50.014</ele>
  <time>2026-09-01T01:14:09Z</time>
  <course>1.64</course>
  <speed>0.9802040603874276</speed>
  <fix>3d</fix>
</trkpt>
<trkpt lat="33.8101817" lon="-118.3944324">
  <ele>-48.8</ele>
  <time>2026-09-01T01:14:09Z</time>
  <course>359.9</course>
  <speed>1.0</speed>
  <fix>3d</fix>
</trkpt>
<trkpt lat="33.8101845" lon="-118.3944321">
  <ele>-50.016</ele>
  <time>2026-09-01T01:14:09Z</time>
  <course>1.64</course>
  <speed>0.9802040603874276</speed>
  <fix>3d</fix>
</trkpt>
<trkpt lat="33.8101836" lon="-118.3944324">
  <ele>-48.8</ele>
  <time>2026-09-01T01:14:09Z</time>
  <course>359.91</course>
  <speed>1.0</speed>
  <fix>3d</fix>
</trkpt>
<trkpt lat="33.8101854" lon="-118.3944321">
  <ele>-50.017</ele>
  <time>2026-09-01T01:14:09Z</time>
  <course>1.64</course>
  <speed>0.9802040603874276</speed>
  <fix>3d</fix>
</trkpt>
<trkpt lat="33.8101836" lon="-118.3944324">
  <ele>-48.8</ele>
  <time>2026-09-01T01:14:09Z</time>
  <course>359.91</course>
  <speed>1.0</speed>
  <fix>3d</fix>
</trkpt>
<trkpt lat="33.8101863" lon="-118.3944321">
  <ele>-50.019</ele>
  <time>2026-09-01T01:14:09Z</time>
  <course>1.64</course>
  <speed>0.9802040603874276</speed>
  <fix>3d</fix>
</trkpt>
<trkpt lat="33.8101853" lon="-118.3944324">
  <ele>-48.8</ele>
  <time>2026-09-01T01:14:09Z</time>
  <course>359.91</course>
  <speed>1.0</speed>
  <fix>3d</fix>
</trkpt>
<trkpt lat="33.8101872" lon="-118.3944321">
  <ele>-50.019</ele>
  <time>2026-09-01T01:14:09Z</time>
  <course>1.65</course>
  <speed>0.9702061636580135</speed>
  <fix>3d</fix>
</trkpt>
<trkpt lat="33.8101853" lon="-118.3944324">
  <ele>-48.8</ele>
  <time>2026-09-01T01:14:09Z</time>
  <course>359.91</course>
  <speed>1.0</speed>
  <fix>3d</fix>
</trkpt>
<trkpt lat="33.8101881" lon="-118.3944321">
  <ele>-50.02</ele>
  <time>2026-09-01T01:14:09Z</time>
  <course>1.65</course>
  <speed>0.9702061636580135</speed>
  <fix>3d</fix>
</trkpt>
<trkpt lat="33.8101872" lon="-118.3944324">
  <ele>-48.8</ele>
  <time>2026-09-01T01:14:09Z</time>
  <course>359.9</course>
  <speed>1.0</speed>
  <fix>3d</fix>
</trkpt>
<trkpt lat="33.810189" lon="-118.3944321">
  <ele>-50.019</ele>
  <time>2026-09-01T01:14:09Z</time>
  <course>1.65</course>
  <speed>0.9702061636580135</speed>
  <fix>3d</fix>
</trkpt>
<trkpt lat="33.8101872" lon="-118.3944324">
  <ele>-48.8</ele>
  <time>2026-09-01T01:14:09Z</time>
  <course>359.9</course>
  <speed>1.0</speed>
  <fix>3d</fix>
</trkpt>
<trkpt lat="33.8101899" lon="-118.3944321">
  <ele>-50.019</ele>
  <time>2026-09-01T01:14:09Z</time>
  <course>1.65</course>
  <speed>0.9702061636580135</speed>
  <fix>3d</fix>
</trkpt>
<trkpt lat="33.8101889" lon="-118.3944324">
  <ele>-48.8</ele>
  <time>2026-09-01T01:14:09Z</time>
  <course>359.92</course>
  <speed>1.0</speed>
  <fix>3d</fix>
</trkpt>
<trkpt lat="33.8101908" lon="-118.3944321">
  <ele>-50.017</ele>
  <time>2026-09-01T01:14:09Z</time>
  <course>1.66</course>
  <speed>0.9702061636580135</speed>
  <fix>3d</fix>
</trkpt>
<trkpt lat="33.8101889" lon="-118.3944324">
  <ele>-48.8</ele>
  <time>2026-09-01T01:14:09Z</time>
  <course>359.92</course>
  <speed>1.0</speed>
  <fix>3d</fix>
</trkpt>
<trkpt lat="33.8101917" lon="-118.3944321">
  <ele>-50.016</ele>
  <time>2026-09-01T01:14:09Z</time>
  <course>1.66</course>
  <speed>0.9702061636580135</speed>
  <fix>3d</fix>
</trkpt>
<trkpt lat="33.8101908" lon="-118.3944324">
  <ele>-48.8</ele>
  <time>2026-09-01T01:14:09Z</time>
  <course>359.94</course>
  <speed>1.0</speed>
  <fix>3d</fix>
</trkpt>
<trkpt lat="33.8101926" lon="-118.3944321">
  <ele>-50.015</ele>
  <time>2026-09-01T01:14:09Z</time>
  <course>1.66</course>
  <speed>0.9702061636580135</speed>
  <fix>3d</fix>
</trkpt>
<trkpt lat="33.8101908" lon="-118.3944324">
  <ele>-48.8</ele>
  <time>2026-09-01T01:14:09Z</time>
  <course>359.94</course>
  <speed>1.0</speed>
  <fix>3d</fix>
</trkpt>
<trkpt lat="33.8101935" lon="-118.3944321">
  <ele>-50.015</ele>
  <time>2026-09-01T01:14:09Z</time>
  <course>1.66</course>
  <speed>0.9702061636580135</speed>
  <fix>3d</fix>
</trkpt>
<trkpt lat="33.8101925" lon="-118.3944324">
  <ele>-48.8</ele>
  <time>2026-09-01T01:14:09Z</time>
  <course>359.94</course>
  <speed>1.0</speed>
  <fix>3d</fix>
</trkpt>
<trkpt lat="33.8101944" lon="-118.3944321">
  <ele>-50.016</ele>
  <time>2026-09-01T01:14:09Z</time>
  <course>1.66</course>
  <speed>0.9702061636580135</speed>
  <fix>3d</fix>
</trkpt>
<trkpt lat="33.8101925" lon="-118.3944324">
  <ele>-48.8</ele>
  <time>2026-09-01T01:14:09Z</time>
  <course>359.94</course>
  <speed>1.0</speed>
  <fix>3d</fix>
</trkpt>
<trkpt lat="33.8101953" lon="-118.3944321">
  <ele>-50.018</ele>
  <time>2026-09-01T01:14:09Z</time>
  <course>1.66</course>
  <speed>0.9702061636580135</speed>
  <fix>3d</fix>
</trkpt>
<trkpt lat="33.8101944" lon="-118.3944324">
  <ele>-48.81</ele>
  <time>2026-09-01T01:14:09Z</time>
  <course>359.95</course>
  <speed>1.0</speed>
  <fix>3d</fix>
</trkpt>
<trkpt lat="33.8101962" lon="-118.3944321">
  <ele>-50.019</ele>
  <time>2026-09-01T01:14:09Z</time>
  <course>1.65</course>
  <speed>0.9702061636580135</speed>
  <fix>3d</fix>
</trkpt>
<trkpt lat="33.8101944" lon="-118.3944324">
  <ele>-48.81</ele>
  <time>2026-09-01T01:14:09Z</time>
  <course>359.95</course>
  <speed>1.0</speed>
  <fix>3d</fix>
</trkpt>
<trkpt lat="33.8101971" lon="-118.3944321">
  <ele>-50.02</ele>
  <time>2026-09-01T01:14:09Z</time>
  <course>1.65</course>
  <speed>0.9702061636580135</speed>
  <fix>3d</fix>
</trkpt>
<trkpt lat="33.8101961" lon="-118.3944324">
  <ele>-48.81</ele>
  <time>2026-09-01T01:14:09Z</time>
  <course>359.95</course>
  <speed>1.0</speed>
  <fix>3d</fix>
</trkpt>
<trkpt lat="33.810198" lon="-118.3944321">
  <ele>-50.02</ele>
  <time>2026-09-01T01:14:09Z</time>
  <course>1.64</course>
  <speed>0.9702061636580135</speed>
  <fix>3d</fix>
</trkpt>
<trkpt lat="33.8101961" lon="-118.3944324">
  <ele>-48.81</ele>
  <time>2026-09-01T01:14:09Z</time>
  <course>359.95</course>
  <speed>1.0</speed>
  <fix>3d</fix>
</trkpt>
<trkpt lat="33.8101989" lon="-118.3944321">
  <ele>-50.019</ele>
  <time>2026-09-01T01:14:09Z</time>
  <course>1.64</course>
  <speed>0.9702061636580135</speed>
  <fix>3d</fix>
</trkpt>
<trkpt lat="33.810198" lon="-118.3944325">
  <ele>-48.81</ele>
  <time>2026-09-01T01:14:09Z</time>
  <course>359.96</course>
  <speed>1.0</speed>
  <fix>3d</fix>
</trkpt>
<trkpt lat="33.8101998" lon="-118.3944321">
  <ele>-50.019</ele>
  <time>2026-09-01T01:14:09Z</time>
  <course>1.64</course>
  <speed>0.9702061636580135</speed>
  <fix>3d</fix>
</trkpt>
<trkpt lat="33.810198" lon="-118.3944325">
  <ele>-48.81</ele>
  <time>2026-09-01T01:14:09Z</time>
  <course>359.96</course>
  <speed>1.0</speed>
  <fix>3d</fix>
</trkpt>
<trkpt lat="33.8102007" lon="-118.3944321">
  <ele>-50.019</ele>
  <time>2026-09-01T01:14:09Z</time>
  <course>1.67</course>
  <speed>0.9702061636580135</speed>
  <fix>3d</fix>
</trkpt>
<trkpt lat="33.8101997" lon="-118.3944325">
  <ele>-48.81</ele>
  <time>2026-09-01T01:14:09Z</time>
  <course>359.99</course>
  <speed>1.0</speed>
  <fix>3d</fix>
</trkpt>
<trkpt lat="33.8102016" lon="-118.3944321">
  <ele>-50.018</ele>
  <time>2026-09-01T01:14:09Z</time>
  <course>1.7</course>
  <speed>0.9702061636580135</speed>
  <fix>3d</fix>
</trkpt>
<trkpt lat="33.8101997" lon="-118.3944325">
  <ele>-48.81</ele>
  <time>2026-09-01T01:14:09Z</time>
  <course>359.99</course>
  <speed>1.0</speed>
  <fix>3d</fix>
</trkpt>
<trkpt lat="33.8102025" lon="-118.3944321">
  <ele>-50.018</ele>
  <time>2026-09-01T01:14:09Z</time>
  <course>1.74</course>
  <speed>0.9702061636580135</speed>
  <fix>3d</fix>
</trkpt>
<trkpt lat="33.8102016" lon="-118.3944325">
  <ele>-48.81</ele>
  <time>2026-09-01T01:14:09Z</time>
  <course>0.08</course>
  <speed>1.0</speed>
  <fix>3d</fix>
</trkpt>
<trkpt lat="33.8102034" lon="-118.3944321">
  <ele>-50.018</ele>
  <time>2026-09-01T01:14:09Z</time>
  <course>1.79</course>
  <speed>0.9702061636580135</speed>
  <fix>3d</fix>
</trkpt>
<trkpt lat="33.8102016" lon="-118.3944325">
  <ele>-48.81</ele>
  <time>2026-09-01T01:14:09Z</time>
  <course>0.08</course>
  <speed>1.0</speed>
  <fix>3d</fix>
</trkpt>
<trkpt lat="33.8102043" lon="-118.3944321">
  <ele>-50.019</ele>
  <time>2026-09-01T01:14:09Z</time>
  <course>1.84</course>
  <speed>0.9702061636580135</speed>
  <fix>3d</fix>
</trkpt>
<trkpt lat="33.8102033" lon="-118.3944325">
  <ele>-48.81</ele>
  <time>2026-09-01T01:14:09Z</time>
  <course>0.17</course>
  <speed>1.0</speed>
  <fix>3d</fix>
</trkpt>
<trkpt lat="33.8102052" lon="-118.3944321">
  <ele>-50.019</ele>
  <time>2026-09-01T01:14:09Z</time>
  <course>1.88</course>
  <speed>0.9704638066409278</speed>
  <fix>3d</fix>
</trkpt>
<trkpt lat="33.8102033" lon="-118.3944325">
  <ele>-48.81</ele>
  <time>2026-09-01T01:14:09Z</time>
  <course>0.17</course>
  <speed>1.0</speed>
  <fix>3d</fix>
</trkpt>
<trkpt lat="33.8102061" lon="-118.3944321">
  <ele>-50.02</ele>
  <time>2026-09-01T01:14:09Z</time>
  <course>1.91</course>
  <speed>0.9702061636580135</speed>
  <fix>3d</fix>
</trkpt>
<trkpt lat="33.8102052" lon="-118.3944325">
  <ele>-48.81</ele>
  <time>2026-09-01T01:14:09Z</time>
  <course>0.25</course>
  <speed>1.0</speed>
  <fix>3d</fix>
</trkpt>
<trkpt lat="33.810207" lon="-118.3944321">
  <ele>-50.022</ele>
  <time>2026-09-01T01:14:09Z</time>
  <course>1.94</course>
  <speed>0.9704638066409278</speed>
  <fix>3d</fix>
</trkpt>
<trkpt lat="33.8102052" lon="-118.3944325">
  <ele>-48.81</ele>
  <time>2026-09-01T01:14:09Z</time>
  <course>0.25</course>
  <speed>1.0</speed>
  <fix>3d</fix>
</trkpt>
<trkpt lat="33.8102079" lon="-118.3944321">
  <ele>-50.023</ele>
  <time>2026-09-01T01:14:09Z</time>
  <course>1.97</course>
  <speed>0.9702061636580135</speed>
  <fix>3d</fix>
</trkpt>
<trkpt lat="33.810207" lon="-118.3944325">
  <ele>-48.82</ele>
  <time>2026-09-01T01:14:09Z</time>
  <course>0.3</course>
  <speed>1.0</speed>
  <fix>3d</fix>
</trkpt>
<trkpt lat="33.8102088" lon="-118.3944321">
  <ele>-50.024</ele>
  <time>2026-09-01T01:14:09Z</time>
  <course>1.99</course>
  <speed>0.9704638066409278</speed>
  <fix>3d</fix>
</trkpt>
<trkpt lat="33.810207" lon="-118.3944325">
  <ele>-48.82</ele>
  <time>2026-09-01T01:14:09Z</time>
  <course>0.3</course>
  <speed>1.0</speed>
  <fix>3d</fix>
</trkpt>
<trkpt lat="33.8102097" lon="-118.3944321">
  <ele>-50.024</ele>
  <time>2026-09-01T01:14:09Z</time>
  <course>2.01</course>
  <speed>0.9702061636580135</speed>
  <fix>3d</fix>
</trkpt>
<trkpt lat="33.8102088" lon="-118.3944325">
  <ele>-48.82</ele>
  <time>2026-09-01T01:14:09Z</time>
  <course>0.33</course>
  <speed>1.0</speed>
  <fix>3d</fix>
</trkpt>
<trkpt lat="33.8102106" lon="-118.3944321">
  <ele>-50.024</ele>
  <time>2026-09-01T01:14:09Z</time>
  <course>2.02</course>
  <speed>0.9704638066409278</speed>
  <fix>3d</fix>
</trkpt>
<trkpt lat="33.8102088" lon="-118.3944325">
  <ele>-48.82</ele>
  <time>2026-09-01T01:14:09Z</time>
  <course>0.33</course>
  <speed>1.0</speed>
  <fix>3d</fix>
</trkpt>
<trkpt lat="33.8102115" lon="-118.3944321">
  <ele>-50.025</ele>
  <time>2026-09-01T01:14:09Z</time>
  <course>2.03</course>
  <speed>0.9702061636580135</speed>
  <fix>3d</fix>
</trkpt>
<trkpt lat="33.8102106" lon="-118.3944325">
  <ele>-48.82</ele>
  <time>2026-09-01T01:14:09Z</time>
  <course>0.37</course>
  <speed>0.99</speed>
  <fix>3d</fix>
</trkpt>
<trkpt lat="33.8102124" lon="-118.3944321">
  <ele>-50.025</ele>
  <time>2026-09-01T01:14:10Z</time>
  <course>2.04</course>
  <speed>0.9704638066409278</speed>
  <fix>3d</fix>
</trkpt>
<trkpt lat="33.8102106" lon="-118.3944325">
  <ele>-48.82</ele>
  <time>2026-09-01T01:14:10Z</time>
  <course>0.37</course>
  <speed>0.99</speed>
  <fix>3d</fix>
</trkpt>
<trkpt lat="33.8102133" lon="-118.3944321">
  <ele>-50.025</ele>
  <time>2026-09-01T01:14:10Z</time>
  <course>2.04</course>
  <speed>0.9702061636580135</speed>
  <fix>3d</fix>
</trkpt>
<trkpt lat="33.8102124" lon="-118.3944325">
  <ele>-48.81</ele>
  <time>2026-09-01T01:14:10Z</time>
  <course>0.41</course>
  <speed>0.99</speed>
  <fix>3d</fix>
</trkpt>
<trkpt lat="33.8102142" lon="-118.3944321">
  <ele>-50.023</ele>
  <time>2026-09-01T01:14:10Z</time>
  <course>2.04</course>
  <speed>0.9704638066409278</speed>
  <fix>3d</fix>
</trkpt>
<trkpt lat="33.8102124" lon="-118.3944325">
  <ele>-48.81</ele>
  <time>2026-09-01T01:14:10Z</time>
  <course>0.41</course>
  <speed>0.99</speed>
  <fix>3d</fix>
</trkpt>
<trkpt lat="33.8102151" lon="-118.3944321">
  <ele>-50.021</ele>
  <time>2026-09-01T01:14:10Z</time>
  <course>2.04</course>
  <speed>0.9702061636580135</speed>
  <fix>3d</fix>
</trkpt>
<trkpt lat="33.8102142" lon="-118.3944325">
  <ele>-48.81</ele>
  <time>2026-09-01T01:14:10Z</time>
  <course>0.43</course>
  <speed>0.99</speed>
  <fix>3d</fix>
</trkpt>
<trkpt lat="33.810216" lon="-118.3944321">
  <ele>-50.02</ele>
  <time>2026-09-01T01:14:10Z</time>
  <course>2.04</course>
  <speed>0.9704638066409278</speed>
  <fix>3d</fix>
</trkpt>
<trkpt lat="33.8102142" lon="-118.3944325">
  <ele>-48.81</ele>
  <time>2026-09-01T01:14:10Z</time>
  <course>0.43</course>
  <speed>0.99</speed>
  <fix>3d</fix>
</trkpt>
<trkpt lat="33.8102169" lon="-118.3944321">
  <ele>-50.018</ele>
  <time>2026-09-01T01:14:10Z</time>
  <course>2.04</course>
  <speed>0.9702061636580135</speed>
  <fix>3d</fix>
</trkpt>
<trkpt lat="33.8102159" lon="-118.3944324">
  <ele>-48.81</ele>
  <time>2026-09-01T01:14:10Z</time>
  <course>0.45</course>
  <speed>0.99</speed>
  <fix>3d</fix>
</trkpt>
<trkpt lat="33.8102178" lon="-118.3944321">
  <ele>-50.017</ele>
  <time>2026-09-01T01:14:10Z</time>
  <course>2.03</course>
  <speed>0.9702061636580135</speed>
  <fix>3d</fix>
</trkpt>
<trkpt lat="33.8102159" lon="-118.3944324">
  <ele>-48.81</ele>
  <time>2026-09-01T01:14:10Z</time>
  <course>0.45</course>
  <speed>0.99</speed>
  <fix>3d</fix>
</trkpt>
<trkpt lat="33.8102187" lon="-118.3944321">
  <ele>-50.015</ele>
  <time>2026-09-01T01:14:10Z</time>
  <course>2.0</course>
  <speed>0.9702061636580135</speed>
  <fix>3d</fix>
</trkpt>
<trkpt lat="33.8102178" lon="-118.3944324">
  <ele>-48.8</ele>
  <time>2026-09-01T01:14:10Z</time>
  <course>0.46</course>
  <speed>0.99</speed>
  <fix>3d</fix>
</trkpt>
<trkpt lat="33.8102196" lon="-118.3944321">
  <ele>-50.014</ele>
  <time>2026-09-01T01:14:10Z</time>
  <course>1.95</course>
  <speed>0.9702061636580135</speed>
  <fix>3d</fix>
</trkpt>
<trkpt lat="33.8102178" lon="-118.3944324">
  <ele>-48.8</ele>
  <time>2026-09-01T01:14:10Z</time>
  <course>0.46</course>
  <speed>0.99</speed>
  <fix>3d</fix>
</trkpt>
<trkpt lat="33.8102205" lon="-118.3944321">
  <ele>-50.013</ele>
  <time>2026-09-01T01:14:10Z</time>
  <course>1.9</course>
  <speed>0.9702061636580135</speed>
  <fix>3d</fix>
</trkpt>
<trkpt lat="33.8102195" lon="-118.3944324">
  <ele>-48.8</ele>
  <time>2026-09-01T01:14:10Z</time>
  <course>0.4</course>
  <speed>0.99</speed>
  <fix>3d</fix>
</trkpt>
<trkpt lat="33.8102214" lon="-118.3944321">
  <ele>-50.014</ele>
  <time>2026-09-01T01:14:10Z</time>
  <course>1.85</course>
  <speed>0.9702061636580135</speed>
  <fix>3d</fix>
</trkpt>
<trkpt lat="33.8102195" lon="-118.3944324">
  <ele>-48.8</ele>
  <time>2026-09-01T01:14:10Z</time>
  <course>0.4</course>
  <speed>0.99</speed>
  <fix>3d</fix>
</trkpt>
<trkpt lat="33.8102223" lon="-118.3944321">
  <ele>-50.017</ele>
  <time>2026-09-01T01:14:10Z</time>
  <course>1.8</course>
  <speed>0.9702061636580135</speed>
  <fix>3d</fix>
</trkpt>
<trkpt lat="33.8102214" lon="-118.3944324">
  <ele>-48.8</ele>
  <time>2026-09-01T01:14:10Z</time>
  <course>0.34</course>
  <speed>0.99</speed>
  <fix>3d</fix>
</trkpt>
<trkpt lat="33.8102232" lon="-118.3944321">
  <ele>-50.02</ele>
  <time>2026-09-01T01:14:10Z</time>
  <course>1.75</course>
  <speed>0.9702061636580135</speed>
  <fix>3d</fix>
</trkpt>
<trkpt lat="33.8102214" lon="-118.3944324">
  <ele>-48.8</ele>
  <time>2026-09-01T01:14:10Z</time>
  <course>0.34</course>
  <speed>0.99</speed>
  <fix>3d</fix>
</trkpt>
<trkpt lat="33.8102241" lon="-118.3944321">
  <ele>-50.022</ele>
  <time>2026-09-01T01:14:10Z</time>
  <course>1.71</course>
  <speed>0.9702061636580135</speed>
  <fix>3d</fix>
</trkpt>
<trkpt lat="33.8102231" lon="-118.3944324">
  <ele>-48.81</ele>
  <time>2026-09-01T01:14:10Z</time>
  <course>0.3</course>
  <speed>0.99</speed>
  <fix>3d</fix>
</trkpt>
<trkpt lat="33.810225" lon="-118.3944321">
  <ele>-50.023</ele>
  <time>2026-09-01T01:14:10Z</time>
  <course>1.67</course>
  <speed>0.9702061636580135</speed>
  <fix>3d</fix>
</trkpt>
<trkpt lat="33.8102231" lon="-118.3944324">
  <ele>-48.81</ele>
  <time>2026-09-01T01:14:10Z</time>
  <course>0.3</course>
  <speed>0.99</speed>
  <fix>3d</fix>
</trkpt>
<trkpt lat="33.8102259" lon="-118.3944321">
  <ele>-50.025</ele>
  <time>2026-09-01T01:14:10Z</time>
  <course>1.64</course>
  <speed>0.9702061636580135</speed>
  <fix>3d</fix>
</trkpt>
<trkpt lat="33.8102249" lon="-118.3944324">
  <ele>-48.81</ele>
  <time>2026-09-01T01:14:10Z</time>
  <course>0.27</course>
  <speed>0.99</speed>
  <fix>3d</fix>
</trkpt>
<trkpt lat="33.8102268" lon="-118.3944321">
  <ele>-50.025</ele>
  <time>2026-09-01T01:14:10Z</time>
  <course>1.62</course>
  <speed>0.9702061636580135</speed>
  <fix>3d</fix>
</trkpt>
<trkpt lat="33.8102249" lon="-118.3944324">
  <ele>-48.81</ele>
  <time>2026-09-01T01:14:10Z</time>
  <course>0.27</course>
  <speed>0.99</speed>
  <fix>3d</fix>
</trkpt>
<trkpt lat="33.8102277" lon="-118.3944321">
  <ele>-50.023</ele>
  <time>2026-09-01T01:14:10Z</time>
  <course>1.59</course>
  <speed>0.9702061636580135</speed>
  <fix>3d</fix>
</trkpt>
<trkpt lat="33.8102267" lon="-118.3944324">
  <ele>-48.81</ele>
  <time>2026-09-01T01:14:10Z</time>
  <course>0.26</course>
  <speed>0.99</speed>
  <fix>3d</fix>
</trkpt>
<trkpt lat="33.8102286" lon="-118.3944321">
  <ele>-50.02</ele>
  <time>2026-09-01T01:14:10Z</time>
  <course>1.57</course>
  <speed>0.9702061636580135</speed>
  <fix>3d</fix>
</trkpt>
<trkpt lat="33.8102267" lon="-118.3944324">
  <ele>-48.81</ele>
  <time>2026-09-01T01:14:10Z</time>
  <course>0.26</course>
  <speed>0.99</speed>
  <fix>3d</fix>
</trkpt>
<trkpt lat="33.8102295" lon="-118.3944321">
  <ele>-50.017</ele>
  <time>2026-09-01T01:14:10Z</time>
  <course>1.55</course>
  <speed>0.9702061636580135</speed>
  <fix>3d</fix>
</trkpt>
<trkpt lat="33.8102284" lon="-118.3944324">
  <ele>-48.81</ele>
  <time>2026-09-01T01:14:10Z</time>
  <course>0.27</course>
  <speed>0.99</speed>
  <fix>3d</fix>
</trkpt>
<trkpt lat="33.8102304" lon="-118.3944321">
  <ele>-50.016</ele>
  <time>2026-09-01T01:14:10Z</time>
  <course>1.54</course>
  <speed>0.9702061636580135</speed>
  <fix>3d</fix>
</trkpt>
<trkpt lat="33.8102284" lon="-118.3944324">
  <ele>-48.81</ele>
  <time>2026-09-01T01:14:10Z</time>
  <course>0.27</course>
  <speed>0.99</speed>
  <fix>3d</fix>
</trkpt>
<trkpt lat="33.8102313" lon="-118.3944321">
  <ele>-50.016</ele>
  <time>2026-09-01T01:14:10Z</time>
  <course>1.52</course>
  <speed>0.9702061636580135</speed>
  <fix>3d</fix>
</trkpt>
<trkpt lat="33.8102303" lon="-118.3944323">
  <ele>-48.81</ele>
  <time>2026-09-01T01:14:10Z</time>
  <course>0.28</course>
  <speed>0.99</speed>
  <fix>3d</fix>
</trkpt>
<trkpt lat="33.8102322" lon="-118.3944321">
  <ele>-50.016</ele>
  <time>2026-09-01T01:14:10Z</time>
  <course>1.49</course>
  <speed>0.9702061636580135</speed>
  <fix>3d</fix>
</trkpt>
<trkpt lat="33.8102303" lon="-118.3944323">
  <ele>-48.81</ele>
  <time>2026-09-01T01:14:10Z</time>
  <course>0.28</course>
  <speed>0.99</speed>
  <fix>3d</fix>
</trkpt>
<trkpt lat="33.8102331" lon="-118.3944321">
  <ele>-50.017</ele>
  <time>2026-09-01T01:14:10Z</time>
  <course>1.46</course>
  <speed>0.9702061636580135</speed>
  <fix>3d</fix>
</trkpt>
<trkpt lat="33.810232" lon="-118.3944323">
  <ele>-48.81</ele>
  <time>2026-09-01T01:14:10Z</time>
  <course>0.25</course>
  <speed>0.99</speed>
  <fix>3d</fix>
</trkpt>
<trkpt lat="33.810234" lon="-118.3944321">
  <ele>-50.019</ele>
  <time>2026-09-01T01:14:10Z</time>
  <course>1.41</course>
  <speed>0.9702061636580135</speed>
  <fix>3d</fix>
</trkpt>
<trkpt lat="33.810232" lon="-118.3944323">
  <ele>-48.81</ele>
  <time>2026-09-01T01:14:10Z</time>
  <course>0.25</course>
  <speed>0.99</speed>
  <fix>3d</fix>
</trkpt>
<trkpt lat="33.8102349" lon="-118.3944321">
  <ele>-50.021</ele>
  <time>2026-09-01T01:14:10Z</time>
  <course>1.35</course>
  <speed>0.9702061636580135</speed>
  <fix>3d</fix>
</trkpt>
<trkpt lat="33.8102339" lon="-118.3944323">
  <ele>-48.81</ele>
  <time>2026-09-01T01:14:10Z</time>
  <course>0.15</course>
  <speed>0.99</speed>
  <fix>3d</fix>
</trkpt>
<trkpt lat="33.8102358" lon="-118.3944321">
  <ele>-50.021</ele>
  <time>2026-09-01T01:14:10Z</time>
  <course>1.29</course>
  <speed>0.9702061636580135</speed>
  <fix>3d</fix>
</trkpt>
<trkpt lat="33.8102339" lon="-118.3944323">
  <ele>-48.81</ele>
  <time>2026-09-01T01:14:10Z</time>
  <course>0.15</course>
  <speed>0.99</speed>
  <fix>3d</fix>
</trkpt>
<trkpt lat="33.8102367" lon="-118.3944321">
  <ele>-50.021</ele>
  <time>2026-09-01T01:14:10Z</time>
  <course>1.24</course>
  <speed>0.9702061636580135</speed>
  <fix>3d</fix>
</trkpt>
<trkpt lat="33.8102356" lon="-118.3944323">
  <ele>-48.81</ele>
  <time>2026-09-01T01:14:10Z</time>
  <course>0.07</course>
  <speed>0.99</speed>
  <fix>3d</fix>
</trkpt>
<trkpt lat="33.8102375" lon="-118.3944321">
  <ele>-50.019</ele>
  <time>2026-09-01T01:14:10Z</time>
  <course>1.19</course>
  <speed>0.9702061636580135</speed>
  <fix>3d</fix>
</trkpt>
<trkpt lat="33.8102356" lon="-118.3944323">
  <ele>-48.81</ele>
  <time>2026-09-01T01:14:10Z</time>
  <course>0.07</course>
  <speed>0.99</speed>
  <fix>3d</fix>
</trkpt>
<trkpt lat="33.8102384" lon="-118.3944321">
  <ele>-50.017</ele>
  <time>2026-09-01T01:14:10Z</time>
  <course>1.16</course>
  <speed>0.9702061636580135</speed>
  <fix>3d</fix>
</trkpt>
<trkpt lat="33.8102375" lon="-118.3944323">
  <ele>-48.81</ele>
  <time>2026-09-01T01:14:10Z</time>
  <course>0.01</course>
  <speed>0.99</speed>
  <fix>3d</fix>
</trkpt>
<trkpt lat="33.8102393" lon="-118.3944321">
  <ele>-50.016</ele>
  <time>2026-09-01T01:14:10Z</time>
  <course>1.12</course>
  <speed>0.9702061636580135</speed>
  <fix>3d</fix>
</trkpt>
<trkpt lat="33.8102375" lon="-118.3944323">
  <ele>-48.81</ele>
  <time>2026-09-01T01:14:10Z</time>
  <course>0.01</course>
  <speed>0.99</speed>
  <fix>3d</fix>
</trkpt>
<trkpt lat="33.8102402" lon="-118.3944321">
  <ele>-50.016</ele>
  <time>2026-09-01T01:14:10Z</time>
  <course>1.1</course>
  <speed>0.9702061636580135</speed>
  <fix>3d</fix>
</trkpt>
<trkpt lat="33.8102392" lon="-118.3944323">
  <ele>-48.81</ele>
  <time>2026-09-01T01:14:10Z</time>
  <course>359.97</course>
  <speed>0.99</speed>
  <fix>3d</fix>
</trkpt>
<trkpt lat="33.8102411" lon="-118.3944321">
  <ele>-50.016</ele>
  <time>2026-09-01T01:14:10Z</time>
  <course>1.07</course>
  <speed>0.9702061636580135</speed>
  <fix>3d</fix>
</trkpt>
<trkpt lat="33.8102392" lon="-118.3944323">
  <ele>-48.81</ele>
  <time>2026-09-01T01:14:10Z</time>
  <course>359.97</course>
  <speed>0.99</speed>
  <fix>3d</fix>
</trkpt>
<trkpt lat="33.810242" lon="-118.3944321">
  <ele>-50.017</ele>
  <time>2026-09-01T01:14:10Z</time>
  <course>1.05</course>
  <speed>0.9702061636580135</speed>
  <fix>3d</fix>
</trkpt>
<trkpt lat="33.8102411" lon="-118.3944323">
  <ele>-48.81</ele>
  <time>2026-09-01T01:14:10Z</time>
  <course>359.94</course>
  <speed>0.99</speed>
  <fix>3d</fix>
</trkpt>
<trkpt lat="33.8102429" lon="-118.3944321">
  <ele>-50.018</ele>
  <time>2026-09-01T01:14:10Z</time>
  <course>1.03</course>
  <speed>0.9702061636580135</speed>
  <fix>3d</fix>
</trkpt>
<trkpt lat="33.8102411" lon="-118.3944323">
  <ele>-48.81</ele>
  <time>2026-09-01T01:14:10Z</time>
  <course>359.94</course>
  <speed>0.99</speed>
  <fix>3d</fix>
</trkpt>
<trkpt lat="33.8102438" lon="-118.3944321">
  <ele>-50.02</ele>
  <time>2026-09-01T01:14:10Z</time>
  <course>1.02</course>
  <speed>0.9702061636580135</speed>
  <fix>3d</fix>
</trkpt>
<trkpt lat="33.8102428" lon="-118.3944323">
  <ele>-48.81</ele>
  <time>2026-09-01T01:14:10Z</time>
  <course>359.9</course>
  <speed>0.99</speed>
  <fix>3d</fix>
</trkpt>
<trkpt lat="33.8102447" lon="-118.3944321">
  <ele>-50.022</ele>
  <time>2026-09-01T01:14:10Z</time>
  <course>1.01</course>
  <speed>0.9702061636580135</speed>
  <fix>3d</fix>
</trkpt>
<trkpt lat="33.8102428" lon="-118.3944323">
  <ele>-48.81</ele>
  <time>2026-09-01T01:14:10Z</time>
  <course>359.9</course>
  <speed>0.99</speed>
  <fix>3d</fix>
</trkpt>
<trkpt lat="33.8102456" lon="-118.3944321">
  <ele>-50.025</ele>
  <time>2026-09-01T01:14:10Z</time>
  <course>1.0</course>
  <speed>0.9702061636580135</speed>
  <fix>3d</fix>
</trkpt>
<trkpt lat="33.8102447" lon="-118.3944323">
  <ele>-48.82</ele>
  <time>2026-09-01T01:14:10Z</time>
  <course>359.87</course>
  <speed>0.99</speed>
  <fix>3d</fix>
</trkpt>
<trkpt lat="33.8102465" lon="-118.3944321">
  <ele>-50.026</ele>
  <time>2026-09-01T01:14:10Z</time>
  <course>0.99</course>
  <speed>0.9702061636580135</speed>
  <fix>3d</fix>
</trkpt>
<trkpt lat="33.8102447" lon="-118.3944323">
  <ele>-48.82</ele>
  <time>2026-09-01T01:14:10Z</time>
  <course>359.87</course>
  <speed>0.99</speed>
  <fix>3d</fix>
</trkpt>
<trkpt lat="33.8102474" lon="-118.3944321">
  <ele>-50.027</ele>
  <time>2026-09-01T01:14:10Z</time>
  <course>0.99</course>
  <speed>0.9702061636580135</speed>
  <fix>3d</fix>
</trkpt>
<trkpt lat="33.8102465" lon="-118.3944323">
  <ele>-48.82</ele>
  <time>2026-09-01T01:14:10Z</time>
  <course>359.84</course>
  <speed>0.99</speed>
  <fix>3d</fix>
</trkpt>
<trkpt lat="33.8102483" lon="-118.3944321">
  <ele>-50.027</ele>
  <time>2026-09-01T01:14:10Z</time>
  <course>0.99</course>
  <speed>0.9702061636580135</speed>
  <fix>3d</fix>
</trkpt>
<trkpt lat="33.8102465" lon="-118.3944323">
  <ele>-48.82</ele>
  <time>2026-09-01T01:14:10Z</time>
  <course>359.84</course>
  <speed>0.99</speed>
  <fix>3d</fix>
</trkpt>
<trkpt lat="33.8102492" lon="-118.3944321">
  <ele>-50.025</ele>
  <time>2026-09-01T01:14:10Z</time>
  <course>0.99</course>
  <speed>0.9702061636580135</speed>
  <fix>3d</fix>
</trkpt>
<trkpt lat="33.8102482" lon="-118.3944323">
  <ele>-48.81</ele>
  <time>2026-09-01T01:14:10Z</time>
  <course>359.8</course>
  <speed>0.99</speed>
  <fix>3d</fix>
</trkpt>
<trkpt lat="33.8102501" lon="-118.3944321">
  <ele>-50.023</ele>
  <time>2026-09-01T01:14:10Z</time>
  <course>1.0</course>
  <speed>0.9702061636580135</speed>
  <fix>3d</fix>
</trkpt>
<trkpt lat="33.8102482" lon="-118.3944323">
  <ele>-48.81</ele>
  <time>2026-09-01T01:14:10Z</time>
  <course>359.8</course>
  <speed>0.99</speed>
  <fix>3d</fix>
</trkpt>
<trkpt lat="33.810251" lon="-118.3944321">
  <ele>-50.021</ele>
  <time>2026-09-01T01:14:10Z</time>
  <course>1.0</course>
  <speed>0.9702061636580135</speed>
  <fix>3d</fix>
</trkpt>
<trkpt lat="33.8102499" lon="-118.3944323">
  <ele>-48.81</ele>
  <time>2026-09-01T01:14:10Z</time>
  <course>359.77</course>
  <speed>0.99</speed>
  <fix>3d</fix>
</trkpt>
<trkpt lat="33.8102519" lon="-118.3944321">
  <ele>-50.019</ele>
  <time>2026-09-01T01:14:10Z</time>
  <course>1.0</course>
  <speed>0.9702061636580135</speed>
  <fix>3d</fix>
</trkpt>
<trkpt lat="33.8102499" lon="-118.3944323">
  <ele>-48.81</ele>
  <time>2026-09-01T01:14:10Z</time>
  <course>359.77</course>
  <speed>0.99</speed>
  <fix>3d</fix>
</trkpt>
<trkpt lat="33.8102528" lon="-118.3944321">
  <ele>-50.018</ele>
  <time>2026-09-01T01:14:10Z</time>
  <course>1.02</course>
  <speed>0.9702061636580135</speed>
  <fix>3d</fix>
</trkpt>
<trkpt lat="33.8102518" lon="-118.3944323">
  <ele>-48.81</ele>
  <time>2026-09-01T01:14:10Z</time>
  <course>359.77</course>
  <speed>0.99</speed>
  <fix>3d</fix>
</trkpt>
<trkpt lat="33.8102537" lon="-118.3944321">
  <ele>-50.017</ele>
  <time>2026-09-01T01:14:10Z</time>
  <course>1.02</course>
  <speed>0.9702061636580135</speed>
  <fix>3d</fix>
</trkpt>
<trkpt lat="33.8102518" lon="-118.3944323">
  <ele>-48.81</ele>
  <time>2026-09-01T01:14:10Z</time>
  <course>359.77</course>
  <speed>0.99</speed>
  <fix>3d</fix>
</trkpt>
<trkpt lat="33.8102546" lon="-118.3944321">
  <ele>-50.017</ele>
  <time>2026-09-01T01:14:10Z</time>
  <course>1.03</course>
  <speed>0.9702061636580135</speed>
  <fix>3d</fix>
</trkpt>
<trkpt lat="33.8102535" lon="-118.3944323">
  <ele>-48.8</ele>
  <time>2026-09-01T01:14:10Z</time>
  <course>359.77</course>
  <speed>0.99</speed>
  <fix>3d</fix>
</trkpt>
<trkpt lat="33.8102555" lon="-118.3944321">
  <ele>-50.018</ele>
  <time>2026-09-01T01:14:10Z</time>
  <course>1.02</course>
  <speed>0.9702061636580135</speed>
  <fix>3d</fix>
</trkpt>
<trkpt lat="33.8102535" lon="-118.3944323">
  <ele>-48.8</ele>
  <time>2026-09-01T01:14:10Z</time>
  <course>359.77</course>
  <speed>0.99</speed>
  <fix>3d</fix>
</trkpt>
<trkpt lat="33.8102564" lon="-118.3944321">
  <ele>-50.019</ele>
  <time>2026-09-01T01:14:10Z</time>
  <course>1.03</course>
  <speed>0.9702061636580135</speed>
  <fix>3d</fix>
</trkpt>
<trkpt lat="33.8102554" lon="-118.3944323">
  <ele>-48.8</ele>
  <time>2026-09-01T01:14:10Z</time>
  <course>359.74</course>
  <speed>0.99</speed>
  <fix>3d</fix>
</trkpt>
<trkpt lat="33.8102573" lon="-118.3944321">
  <ele>-50.02</ele>
  <time>2026-09-01T01:14:10Z</time>
  <course>1.03</course>
  <speed>0.9702061636580135</speed>
  <fix>3d</fix>
</trkpt>
<trkpt lat="33.8102554" lon="-118.3944323">
  <ele>-48.8</ele>
  <time>2026-09-01T01:14:10Z</time>
  <course>359.74</course>
  <speed>0.99</speed>
  <fix>3d</fix>
</trkpt>
<trkpt lat="33.8102582" lon="-118.3944321">
  <ele>-50.022</ele>
  <time>2026-09-01T01:14:10Z</time>
  <course>1.03</course>
  <speed>0.9702061636580135</speed>
  <fix>3d</fix>
</trkpt>
<trkpt lat="33.8102571" lon="-118.3944323">
  <ele>-48.8</ele>
  <time>2026-09-01T01:14:10Z</time>
  <course>359.71</course>
  <speed>0.99</speed>
  <fix>3d</fix>
</trkpt>
<trkpt lat="33.8102591" lon="-118.3944321">
  <ele>-50.024</ele>
  <time>2026-09-01T01:14:10Z</time>
  <course>1.04</course>
  <speed>0.9702061636580135</speed>
  <fix>3d</fix>
</trkpt>
<trkpt lat="33.8102571" lon="-118.3944323">
  <ele>-48.8</ele>
  <time>2026-09-01T01:14:10Z</time>
  <course>359.71</course>
  <speed>0.99</speed>
  <fix>3d</fix>
</trkpt>
<trkpt lat="33.81026" lon="-118.3944321">
  <ele>-50.024</ele>
  <time>2026-09-01T01:14:10Z</time>
  <course>1.05</course>
  <speed>0.9702061636580135</speed>
  <fix>3d</fix>
</trkpt>
<trkpt lat="33.810259" lon="-118.3944323">
  <ele>-48.8</ele>
  <time>2026-09-01T01:14:10Z</time>
  <course>359.69</course>
  <speed>1.0</speed>
  <fix>3d</fix>
</trkpt>
<trkpt lat="33.8102609" lon="-118.3944321">
  <ele>-50.023</ele>
  <time>2026-09-01T01:14:10Z</time>
  <course>1.06</course>
  <speed>0.9702061636580135</speed>
  <fix>3d</fix>
</trkpt>
<trkpt lat="33.810259" lon="-118.3944323">
  <ele>-48.8</ele>
  <time>2026-09-01T01:14:10Z</time>
  <course>359.69</course>
  <speed>1.0</speed>
  <fix>3d</fix>
</trkpt>
<trkpt lat="33.8102618" lon="-118.3944321">
  <ele>-50.022</ele>
  <time>2026-09-01T01:14:10Z</time>
  <course>1.07</course>
  <speed>0.9702061636580135</speed>
  <fix>3d</fix>
</trkpt>
<trkpt lat="33.8102607" lon="-118.3944323">
  <ele>-48.8</ele>
  <time>2026-09-01T01:14:10Z</time>
  <course>359.67</course>
  <speed>1.0</speed>
  <fix>3d</fix>
</trkpt>
<trkpt lat="33.8102627" lon="-118.3944321">
  <ele>-50.021</ele>
  <time>2026-09-01T01:14:10Z</time>
  <course>1.08</course>
  <speed>0.9702061636580135</speed>
  <fix>3d</fix>
</trkpt>
<trkpt lat="33.8102607" lon="-118.3944323">
  <ele>-48.8</ele>
  <time>2026-09-01T01:14:10Z</time>
  <course>359.67</course>
  <speed>1.0</speed>
  <fix>3d</fix>
</trkpt>
<trkpt lat="33.8102636" lon="-118.3944321">
  <ele>-50.019</ele>
  <time>2026-09-01T01:14:10Z</time>
  <course>1.09</course>
  <speed>0.9702061636580135</speed>
  <fix>3d</fix>
</trkpt>
<trkpt lat="33.8102626" lon="-118.3944323">
  <ele>-48.8</ele>
  <time>2026-09-01T01:14:10Z</time>
  <course>359.65</course>
  <speed>1.0</speed>
  <fix>3d</fix>
</trkpt>
<trkpt lat="33.8102645" lon="-118.3944321">
  <ele>-50.018</ele>
  <time>2026-09-01T01:14:10Z</time>
  <course>1.1</course>
  <speed>0.9702061636580135</speed>
  <fix>3d</fix>
</trkpt>
<trkpt lat="33.8102626" lon="-118.3944323">
  <ele>-48.8</ele>
  <time>2026-09-01T01:14:10Z</time>
  <course>359.65</course>
  <speed>1.0</speed>
  <fix>3d</fix>
</trkpt>
<trkpt lat="33.8102654" lon="-118.3944321">
  <ele>-50.016</ele>
  <time>2026-09-01T01:14:10Z</time>
  <course>1.11</course>
  <speed>0.9702061636580135</speed>
  <fix>3d</fix>
</trkpt>
<trkpt lat="33.8102643" lon="-118.3944323">
  <ele>-48.8</ele>
  <time>2026-09-01T01:14:10Z</time>
  <course>359.63</course>
  <speed>1.0</speed>
  <fix>3d</fix>
</trkpt>
<trkpt lat="33.8102663" lon="-118.3944321">
  <ele>-50.015</ele>
  <time>2026-09-01T01:14:10Z</time>
  <course>1.11</course>
  <speed>0.9702061636580135</speed>
  <fix>3d</fix>
</trkpt>
<trkpt lat="33.8102643" lon="-118.3944323">
  <ele>-48.8</ele>
  <time>2026-09-01T01:14:10Z</time>
  <course>359.63</course>
  <speed>1.0</speed>
  <fix>3d</fix>
</trkpt>
<trkpt lat="33.8102672" lon="-118.3944321">
  <ele>-50.015</ele>
  <time>2026-09-01T01:14:10Z</time>
  <course>1.12</course>
  <speed>0.9702061636580135</speed>
  <fix>3d</fix>
</trkpt>
<trkpt lat="33.8102662" lon="-118.3944323">
  <ele>-48.8</ele>
  <time>2026-09-01T01:14:10Z</time>
  <course>359.62</course>
  <speed>1.0</speed>
  <fix>3d</fix>
</trkpt>
<trkpt lat="33.8102681" lon="-118.3944321">
  <ele>-50.016</ele>
  <time>2026-09-01T01:14:10Z</time>
  <course>1.13</course>
  <speed>0.9702061636580135</speed>
  <fix>3d</fix>
</trkpt>
<trkpt lat="33.8102662" lon="-118.3944323">
  <ele>-48.8</ele>
  <time>2026-09-01T01:14:10Z</time>
  <course>359.62</course>
  <speed>1.0</speed>
  <fix>3d</fix>
</trkpt>
<trkpt lat="33.810269" lon="-118.3944321">
  <ele>-50.017</ele>
  <time>2026-09-01T01:14:10Z</time>
  <course>1.14</course>
  <speed>0.9702061636580135</speed>
  <fix>3d</fix>
</trkpt>
<trkpt lat="33.8102679" lon="-118.3944324">
  <ele>-48.8</ele>
  <time>2026-09-01T01:14:10Z</time>
  <course>359.61</course>
  <speed>1.0</speed>
  <fix>3d</fix>
</trkpt>
<trkpt lat="33.8102699" lon="-118.3944321">
  <ele>-50.017</ele>
  <time>2026-09-01T01:14:10Z</time>
  <course>1.16</course>
  <speed>0.9702061636580135</speed>
  <fix>3d</fix>
</trkpt>
<trkpt lat="33.8102679" lon="-118.3944324">
  <ele>-48.8</ele>
  <time>2026-09-01T01:14:10Z</time>
  <course>359.61</course>
  <speed>1.0</speed>
  <fix>3d</fix>
</trkpt>
<trkpt lat="33.8102708" lon="-118.3944321">
  <ele>-50.017</ele>
  <time>2026-09-01T01:14:10Z</time>
  <course>1.19</course>
  <speed>0.9702061636580135</speed>
  <fix>3d</fix>
</trkpt>
<trkpt lat="33.8102698" lon="-118.3944324">
  <ele>-48.8</ele>
  <time>2026-09-01T01:14:10Z</time>
  <course>359.65</course>
  <speed>1.0</speed>
  <fix>3d</fix>
</trkpt>
<trkpt lat="33.8102717" lon="-118.3944321">
  <ele>-50.017</ele>
  <time>2026-09-01T01:14:10Z</time>
  <course>1.24</course>
  <speed>0.9702061636580135</speed>
  <fix>3d</fix>
</trkpt>
<trkpt lat="33.8102698" lon="-118.3944324">
  <ele>-48.8</ele>
  <time>2026-09-01T01:14:10Z</time>
  <course>359.65</course>
  <speed>1.0</speed>
  <fix>3d</fix>
</trkpt>
<trkpt lat="33.8102726" lon="-118.3944321">
  <ele>-50.016</ele>
  <time>2026-09-01T01:14:10Z</time>
  <course>1.28</course>
  <speed>0.9702061636580135</speed>
  <fix>3d</fix>
</trkpt>
<trkpt lat="33.8102715" lon="-118.3944324">
  <ele>-48.8</ele>
  <time>2026-09-01T01:14:10Z</time>
  <course>359.72</course>
  <speed>1.0</speed>
  <fix>3d</fix>
</trkpt>
<trkpt lat="33.8102735" lon="-118.3944321">
  <ele>-50.016</ele>
  <time>2026-09-01T01:14:10Z</time>
  <course>1.34</course>
  <speed>0.9702061636580135</speed>
  <fix>3d</fix>
</trkpt>
<trkpt lat="33.8102715" lon="-118.3944324">
  <ele>-48.8</ele>
  <time>2026-09-01T01:14:10Z</time>
  <course>359.72</course>
  <speed>1.0</speed>
  <fix>3d</fix>
</trkpt>
<trkpt lat="33.8102744" lon="-118.3944321">
  <ele>-50.016</ele>
  <time>2026-09-01T01:14:10Z</time>
  <course>1.38</course>
  <speed>0.9702061636580135</speed>
  <fix>3d</fix>
</trkpt>
<trkpt lat="33.8102734" lon="-118.3944324">
  <ele>-48.8</ele>
  <time>2026-09-01T01:14:10Z</time>
  <course>359.79</course>
  <speed>1.0</speed>
  <fix>3d</fix>
</trkpt>
<trkpt lat="33.8102753" lon="-118.3944321">
  <ele>-50.017</ele>
  <time>2026-09-01T01:14:10Z</time>
  <course>1.42</course>
  <speed>0.9702061636580135</speed>
  <fix>3d</fix>
</trkpt>
<trkpt lat="33.8102734" lon="-118.3944324">
  <ele>-48.8</ele>
  <time>2026-09-01T01:14:10Z</time>
  <course>359.79</course>
  <speed>1.0</speed>
  <fix>3d</fix>
</trkpt>
<trkpt lat="33.8102762" lon="-118.3944321">
  <ele>-50.017</ele>
  <time>2026-09-01T01:14:10Z</time>
  <course>1.47</course>
  <speed>0.9702061636580135</speed>
  <fix>3d</fix>
</trkpt>
<trkpt lat="33.8102751" lon="-118.3944324">
  <ele>-48.8</ele>
  <time>2026-09-01T01:14:10Z</time>
  <course>359.84</course>
  <speed>1.0</speed>
  <fix>3d</fix>
</trkpt>
<trkpt lat="33.8102771" lon="-118.3944321">
  <ele>-50.018</ele>
  <time>2026-09-01T01:14:10Z</time>
  <course>1.5</course>
  <speed>0.9702061636580135</speed>
  <fix>3d</fix>
</trkpt>
<trkpt lat="33.8102751" lon="-118.3944324">
  <ele>-48.8</ele>
  <time>2026-09-01T01:14:10Z</time>
  <course>359.84</course>
  <speed>1.0</speed>
  <fix>3d</fix>
</trkpt>
<trkpt lat="33.810278" lon="-118.3944321">
  <ele>-50.019</ele>
  <time>2026-09-01T01:14:10Z</time>
  <course>1.53</course>
  <speed>0.9702061636580135</speed>
  <fix>3d</fix>
</trkpt>
<trkpt lat="33.810277" lon="-118.3944324">
  <ele>-48.8</ele>
  <time>2026-09-01T01:14:10Z</time>
  <course>359.87</course>
  <speed>1.0</speed>
  <fix>3d</fix>
</trkpt>
<trkpt lat="33.8102789" lon="-118.3944321">
  <ele>-50.02</ele>
  <time>2026-09-01T01:14:10Z</time>
  <course>1.55</course>
  <speed>0.9702061636580135</speed>
  <fix>3d</fix>
</trkpt>
<trkpt lat="33.810277" lon="-118.3944324">
  <ele>-48.8</ele>
  <time>2026-09-01T01:14:10Z</time>
  <course>359.87</course>
  <speed>1.0</speed>
  <fix>3d</fix>
</trkpt>
<trkpt lat="33.8102798" lon="-118.3944321">
  <ele>-50.02</ele>
  <time>2026-09-01T01:14:10Z</time>
  <course>1.58</course>
  <speed>0.9702061636580135</speed>
  <fix>3d</fix>
</trkpt>
<trkpt lat="33.8102787" lon="-118.3944324">
  <ele>-48.81</ele>
  <time>2026-09-01T01:14:10Z</time>
  <course>359.88</course>
  <speed>1.0</speed>
  <fix>3d</fix>
</trkpt>
<trkpt lat="33.8102807" lon="-118.3944321">
  <ele>-50.02</ele>
  <time>2026-09-01T01:14:10Z</time>
  <course>1.59</course>
  <speed>0.9702061636580135</speed>
  <fix>3d</fix>
</trkpt>
<trkpt lat="33.8102787" lon="-118.3944324">
  <ele>-48.81</ele>
  <time>2026-09-01T01:14:10Z</time>
  <course>359.88</course>
  <speed>1.0</speed>
  <fix>3d</fix>
</trkpt>
<trkpt lat="33.8102816" lon="-118.3944321">
  <ele>-50.019</ele>
  <time>2026-09-01T01:14:10Z</time>
  <course>1.62</course>
  <speed>0.9702061636580135</speed>
  <fix>3d</fix>
</trkpt>
<trkpt lat="33.8102806" lon="-118.3944324">
  <ele>-48.81</ele>
  <time>2026-09-01T01:14:10Z</time>
  <course>359.89</course>
  <speed>0.99</speed>
  <fix>3d</fix>
</trkpt>
<trkpt lat="33.8102825" lon="-118.3944321">
  <ele>-50.018</ele>
  <time>2026-09-01T01:14:10Z</time>
  <course>1.63</course>
  <speed>0.9702061636580135</speed>
  <fix>3d</fix>
</trkpt>
<trkpt lat="33.8102806" lon="-118.3944324">
  <ele>-48.81</ele>
  <time>2026-09-01T01:14:10Z</time>
  <course>359.89</course>
  <speed>0.99</speed>
  <fix>3d</fix>
</trkpt>
<trkpt lat="33.8102834" lon="-118.3944321">
  <ele>-50.019</ele>
  <time>2026-09-01T01:14:10Z</time>
  <course>1.64</course>
  <speed>0.9702061636580135</speed>
  <fix>3d</fix>
</trkpt>
<trkpt lat="33.8102824" lon="-118.3944324">
  <ele>-48.81</ele>
  <time>2026-09-01T01:14:10Z</time>
  <course>359.91</course>
  <speed>0.99</speed>
  <fix>3d</fix>
</trkpt>
<trkpt lat="33.8102843" lon="-118.3944321">
  <ele>-50.02</ele>
  <time>2026-09-01T01:14:10Z</time>
  <course>1.64</course>
  <speed>0.9702061636580135</speed>
  <fix>3d</fix>
</trkpt>
<trkpt lat="33.8102824" lon="-118.3944324">
  <ele>-48.81</ele>
  <time>2026-09-01T01:14:10Z</time>
  <course>359.91</course>
  <speed>0.99</speed>
  <fix>3d</fix>
</trkpt>
<trkpt lat="33.8102852" lon="-118.3944321">
  <ele>-50.02</ele>
  <time>2026-09-01T01:14:10Z</time>
  <course>1.65</course>
  <speed>0.9702061636580135</speed>
  <fix>3d</fix>
</trkpt>
<trkpt lat="33.8102842" lon="-118.3944324">
  <ele>-48.81</ele>
  <time>2026-09-01T01:14:10Z</time>
  <course>359.93</course>
  <speed>0.99</speed>
  <fix>3d</fix>
</trkpt>
<trkpt lat="33.8102861" lon="-118.3944321">
  <ele>-50.021</ele>
  <time>2026-09-01T01:14:10Z</time>
  <course>1.65</course>
  <speed>0.9702061636580135</speed>
  <fix>3d</fix>
</trkpt>
<trkpt lat="33.8102842" lon="-118.3944324">
  <ele>-48.81</ele>
  <time>2026-09-01T01:14:10Z</time>
  <course>359.93</course>
  <speed>0.99</speed>
  <fix>3d</fix>
</trkpt>
<trkpt lat="33.810287" lon="-118.3944321">
  <ele>-50.021</ele>
  <time>2026-09-01T01:14:10Z</time>
  <course>1.65</course>
  <speed>0.9702061636580135</speed>
  <fix>3d</fix>
</trkpt>
<trkpt lat="33.810286" lon="-118.3944324">
  <ele>-48.81</ele>
  <time>2026-09-01T01:14:10Z</time>
  <course>359.93</course>
  <speed>0.99</speed>
  <fix>3d</fix>
</trkpt>
<trkpt lat="33.8102879" lon="-118.3944321">
  <ele>-50.02</ele>
  <time>2026-09-01T01:14:10Z</time>
  <course>1.65</course>
  <speed>0.9702061636580135</speed>
  <fix>3d</fix>
</trkpt>
<trkpt lat="33.810286" lon="-118.3944324">
  <ele>-48.81</ele>
  <time>2026-09-01T01:14:10Z</time>
  <course>359.93</course>
  <speed>0.99</speed>
  <fix>3d</fix>
</trkpt>
<trkpt lat="33.8102888" lon="-118.3944321">
  <ele>-50.019</ele>
  <time>2026-09-01T01:14:10Z</time>
  <course>1.66</course>
  <speed>0.9702061636580135</speed>
  <fix>3d</fix>
</trkpt>
<trkpt lat="33.8102878" lon="-118.3944324">
  <ele>-48.81</ele>
  <time>2026-09-01T01:14:10Z</time>
  <course>359.93</course>
  <speed>0.99</speed>
  <fix>3d</fix>
</trkpt>
<trkpt lat="33.8102897" lon="-118.3944321">
  <ele>-50.018</ele>
  <time>2026-09-01T01:14:10Z</time>
  <course>1.66</course>
  <speed>0.9702061636580135</speed>
  <fix>3d</fix>
</trkpt>
<trkpt lat="33.8102878" lon="-118.3944324">
  <ele>-48.81</ele>
  <time>2026-09-01T01:14:10Z</time>
  <course>359.93</course>
  <speed>0.99</speed>
  <fix>3d</fix>
</trkpt>
<trkpt lat="33.8102906" lon="-118.3944321">
  <ele>-50.017</ele>
  <time>2026-09-01T01:14:10Z</time>
  <course>1.67</course>
  <speed>0.9702061636580135</speed>
  <fix>3d</fix>
</trkpt>
<trkpt lat="33.8102895" lon="-118.3944324">
  <ele>-48.81</ele>
  <time>2026-09-01T01:14:10Z</time>
  <course>359.94</course>
  <speed>0.99</speed>
  <fix>3d</fix>
</trkpt>
<trkpt lat="33.8102915" lon="-118.3944321">
  <ele>-50.018</ele>
  <time>2026-09-01T01:14:10Z</time>
  <course>1.66</course>
  <speed>0.9702061636580135</speed>
  <fix>3d</fix>
</trkpt>
<trkpt lat="33.8102895" lon="-118.3944324">
  <ele>-48.81</ele>
  <time>2026-09-01T01:14:10Z</time>
  <course>359.94</course>
  <speed>0.99</speed>
  <fix>3d</fix>
</trkpt>
<trkpt lat="33.8102924" lon="-118.3944321">
  <ele>-50.018</ele>
  <time>2026-09-01T01:14:10Z</time>
  <course>1.66</course>
  <speed>0.9702061636580135</speed>
  <fix>3d</fix>
</trkpt>
<trkpt lat="33.8102913" lon="-118.3944324">
  <ele>-48.81</ele>
  <time>2026-09-01T01:14:10Z</time>
  <course>359.95</course>
  <speed>0.99</speed>
  <fix>3d</fix>
</trkpt>
<trkpt lat="33.8102933" lon="-118.3944321">
  <ele>-50.018</ele>
  <time>2026-09-01T01:14:10Z</time>
  <course>1.66</course>
  <speed>0.9702061636580135</speed>
  <fix>3d</fix>
</trkpt>
<trkpt lat="33.8102913" lon="-118.3944324">
  <ele>-48.81</ele>
  <time>2026-09-01T01:14:10Z</time>
  <course>359.95</course>
  <speed>0.99</speed>
  <fix>3d</fix>
</trkpt>
<trkpt lat="33.8102942" lon="-118.3944321">
  <ele>-50.017</ele>
  <time>2026-09-01T01:14:10Z</time>
  <course>1.66</course>
  <speed>0.9702061636580135</speed>
  <fix>3d</fix>
</trkpt>
<trkpt lat="33.810293" lon="-118.3944324">
  <ele>-48.81</ele>
  <time>2026-09-01T01:14:10Z</time>
  <course>359.95</course>
  <speed>0.99</speed>
  <fix>3d</fix>
</trkpt>
<trkpt lat="33.810295" lon="-118.3944321">
  <ele>-50.017</ele>
  <time>2026-09-01T01:14:10Z</time>
  <course>1.66</course>
  <speed>0.9702061636580135</speed>
  <fix>3d</fix>
</trkpt>
<trkpt lat="33.810293" lon="-118.3944324">
  <ele>-48.81</ele>
  <time>2026-09-01T01:14:10Z</time>
  <course>359.95</course>
  <speed>0.99</speed>
  <fix>3d</fix>
</trkpt>
<trkpt lat="33.8102959" lon="-118.3944321">
  <ele>-50.017</ele>
  <time>2026-09-01T01:14:10Z</time>
  <course>1.65</course>
  <speed>0.9702061636580135</speed>
  <fix>3d</fix>
</trkpt>
<trkpt lat="33.8102949" lon="-118.3944324">
  <ele>-48.81</ele>
  <time>2026-09-01T01:14:10Z</time>
  <course>359.96</course>
  <speed>0.99</speed>
  <fix>3d</fix>
</trkpt>
<trkpt lat="33.8102968" lon="-118.3944321">
  <ele>-50.016</ele>
  <time>2026-09-01T01:14:10Z</time>
  <course>1.64</course>
  <speed>0.9702061636580135</speed>
  <fix>3d</fix>
</trkpt>
<trkpt lat="33.8102949" lon="-118.3944324">
  <ele>-48.81</ele>
  <time>2026-09-01T01:14:10Z</time>
  <course>359.96</course>
  <speed>0.99</speed>
  <fix>3d</fix>
</trkpt>
<trkpt lat="33.8102977" lon="-118.3944321">
  <ele>-50.017</ele>
  <time>2026-09-01T01:14:10Z</time>
  <course>1.64</course>
  <speed>0.9702061636580135</speed>
  <fix>3d</fix>
</trkpt>
<trkpt lat="33.8102966" lon="-118.3944324">
  <ele>-48.81</ele>
  <time>2026-09-01T01:14:10Z</time>
  <course>359.97</course>
  <speed>0.99</speed>
  <fix>3d</fix>
</trkpt>
<trkpt lat="33.8102986" lon="-118.3944321">
  <ele>-50.018</ele>
  <time>2026-09-01T01:14:10Z</time>
  <course>1.63</course>
  <speed>0.9702061636580135</speed>
  <fix>3d</fix>
</trkpt>
<trkpt lat="33.8102966" lon="-118.3944324">
  <ele>-48.81</ele>
  <time>2026-09-01T01:14:10Z</time>
  <course>359.97</course>
  <speed>0.99</speed>
  <fix>3d</fix>
</trkpt>
<trkpt lat="33.8102995" lon="-118.3944321">
  <ele>-50.02</ele>
  <time>2026-09-01T01:14:10Z</time>
  <course>1.63</course>
  <speed>0.9702061636580135</speed>
  <fix>3d</fix>
</trkpt>
<trkpt lat="33.8102985" lon="-118.3944324">
  <ele>-48.82</ele>
  <time>2026-09-01T01:14:10Z</time>
  <course>359.96</course>
  <speed>1.0</speed>
  <fix>3d</fix>
</trkpt>
<trkpt lat="33.8103004" lon="-118.3944321">
  <ele>-50.022</ele>
  <time>2026-09-01T01:14:10Z</time>
  <course>1.62</course>
  <speed>0.9702061636580135</speed>
  <fix>3d</fix>
</trkpt>
<trkpt lat="33.8102985" lon="-118.3944324">
  <ele>-48.82</ele>
  <time>2026-09-01T01:14:10Z</time>
  <course>359.96</course>
  <speed>1.0</speed>
  <fix>3d</fix>
</trkpt>
<trkpt lat="33.8103013" lon="-118.3944321">
  <ele>-50.025</ele>
  <time>2026-09-01T01:14:10Z</time>
  <course>1.62</course>
  <speed>0.9702061636580135</speed>
  <fix>3d</fix>
</trkpt>
<trkpt lat="33.8103002" lon="-118.3944324">
  <ele>-48.82</ele>
  <time>2026-09-01T01:14:10Z</time>
  <course>359.96</course>
  <speed>1.0</speed>
  <fix>3d</fix>
</trkpt>
<trkpt lat="33.8103022" lon="-118.3944321">
  <ele>-50.026</ele>
  <time>2026-09-01T01:14:10Z</time>
  <course>1.61</course>
  <speed>0.9602083107326242</speed>
  <fix>3d</fix>
</trkpt>
<trkpt lat="33.8103002" lon="-118.3944324">
  <ele>-48.82</ele>
  <time>2026-09-01T01:14:10Z</time>
  <course>359.96</course>
  <speed>1.0</speed>
  <fix>3d</fix>
</trkpt>
<trkpt lat="33.8103031" lon="-118.3944321">
  <ele>-50.026</ele>
  <time>2026-09-01T01:14:10Z</time>
  <course>1.61</course>
  <speed>0.9402127418834527</speed>
  <fix>3d</fix>
</trkpt>
<trkpt lat="33.8103021" lon="-118.3944324">
  <ele>-48.82</ele>
  <time>2026-09-01T01:14:10Z</time>
  <course>359.98</course>
  <speed>0.99</speed>
  <fix>3d</fix>
</trkpt>
<trkpt lat="33.8103039" lon="-118.3944321">
  <ele>-50.025</ele>
  <time>2026-09-01T01:14:10Z</time>
  <course>1.61</course>
  <speed>0.9102197536858887</speed>
  <fix>3d</fix>
</trkpt>
<trkpt lat="33.8103021" lon="-118.3944324">
  <ele>-48.82</ele>
  <time>2026-09-01T01:14:10Z</time>
  <course>359.98</course>
  <speed>0.99</speed>
  <fix>3d</fix>
</trkpt>
<trkpt lat="33.8103048" lon="-118.3944321">
  <ele>-50.022</ele>
  <time>2026-09-01T01:14:10Z</time>
  <course>1.64</course>
  <speed>0.8802272433866155</speed>
  <fix>3d</fix>
</trkpt>
<trkpt lat="33.8103038" lon="-118.3944324">
  <ele>-48.82</ele>
  <time>2026-09-01T01:14:10Z</time>
  <course>0.02</course>
  <speed>0.95</speed>
  <fix>3d</fix>
</trkpt>
<trkpt lat="33.8103055" lon="-118.3944321">
  <ele>-50.02</ele>
  <time>2026-09-01T01:14:10Z</time>
  <course>1.67</course>
  <speed>0.8302409288875127</speed>
  <fix>3d</fix>
</trkpt>
<trkpt lat="33.8103038" lon="-118.3944324">
  <ele>-48.82</ele>
  <time>2026-09-01T01:14:10Z</time>
  <course>0.02</course>
  <speed>0.95</speed>
  <fix>3d</fix>
</trkpt>
<trkpt lat="33.8103063" lon="-118.3944321">
  <ele>-50.018</ele>
  <time>2026-09-01T01:14:10Z</time>
  <course>1.74</course>
  <speed>0.7802563681252463</speed>
  <fix>3d</fix>
</trkpt>
<trkpt lat="33.8103055" lon="-118.3944324">
  <ele>-48.82</ele>
  <time>2026-09-01T01:14:10Z</time>
  <course>0.09</course>
  <speed>0.89</speed>
  <fix>3d</fix>
</trkpt>
<trkpt lat="33.810307" lon="-118.3944321">
  <ele>-50.017</ele>
  <time>2026-09-01T01:14:10Z</time>
  <course>1.83</course>
  <speed>0.7202777242147643</speed>
  <fix>3d</fix>
</trkpt>
<trkpt lat="33.8103055" lon="-118.3944324">
  <ele>-48.82</ele>
  <time>2026-09-01T01:14:10Z</time>
  <course>0.09</course>
  <speed>0.89</speed>
  <fix>3d</fix>
</trkpt>
<trkpt lat="33.8103076" lon="-118.3944321">
  <ele>-50.017</ele>
  <time>2026-09-01T01:14:10Z</time>
  <course>1.97</course>
  <speed>0.660302960768767</speed>
  <fix>3d</fix>
</trkpt>
<trkpt lat="33.8103069" lon="-118.3944324">
  <ele>-48.81</ele>
  <time>2026-09-01T01:14:10Z</time>
  <course>0.21</course>
  <speed>0.79</speed>
  <fix>3d</fix>
</trkpt>
<trkpt lat="33.8103082" lon="-118.3944321">
  <ele>-50.018</ele>
  <time>2026-09-01T01:14:10Z</time>
  <course>2.15</course>
  <speed>0.5803447251418763</speed>
  <fix>3d</fix>
</trkpt>
<trkpt lat="33.8103069" lon="-118.3944324">
  <ele>-48.81</ele>
  <time>2026-09-01T01:14:10Z</time>
  <course>0.21</course>
  <speed>0.79</speed>
  <fix>3d</fix>
</trkpt>
<trkpt lat="33.8103087" lon="-118.3944321">
  <ele>-50.019</ele>
  <time>2026-09-01T01:14:10Z</time>
  <course>2.41</course>
  <speed>0.5103920062069939</speed>
  <fix>3d</fix>
</trkpt>
<trkpt lat="33.8103082" lon="-118.3944324">
  <ele>-48.81</ele>
  <time>2026-09-01T01:14:10Z</time>
  <course>0.4</course>
  <speed>0.66</speed>
  <fix>3d</fix>
</trkpt>
<trkpt lat="33.8103092" lon="-118.3944321">
  <ele>-50.02</ele>
  <time>2026-09-01T01:14:10Z</time>
  <course>2.78</course>
  <speed>0.45044422518220834</speed>
  <fix>3d</fix>
</trkpt>
<trkpt lat="33.8103082" lon="-118.3944324">
  <ele>-48.81</ele>
  <time>2026-09-01T01:14:10Z</time>
  <course>0.4</course>
  <speed>0.66</speed>
  <fix>3d</fix>
</trkpt>
<trkpt lat="33.8103096" lon="-118.3944321">
  <ele>-50.022</ele>
  <time>2026-09-01T01:14:10Z</time>
  <course>3.33</course>
  <speed>0.38052595180880894</speed>
  <fix>3d</fix>
</trkpt>
<trkpt lat="33.8103093" lon="-118.3944324">
  <ele>-48.81</ele>
  <time>2026-09-01T01:14:10Z</time>
  <course>0.65</course>
  <speed>0.52</speed>
  <fix>3d</fix>
</trkpt>
<trkpt lat="33.8103099" lon="-118.3944321">
  <ele>-50.023</ele>
  <time>2026-09-01T01:14:10Z</time>
  <course>4.15</course>
  <speed>0.3306055050963308</speed>
  <fix>3d</fix>
</trkpt>
<trkpt lat="33.8103093" lon="-118.3944324">
  <ele>-48.81</ele>
  <time>2026-09-01T01:14:10Z</time>
  <course>0.65</course>
  <speed>0.52</speed>
  <fix>3d</fix>
</trkpt>
<trkpt lat="33.8103103" lon="-118.3944321">
  <ele>-50.023</ele>
  <time>2026-09-01T01:14:10Z</time>
  <course>5.36</course>
  <speed>0.2906888370749727</speed>
  <fix>3d</fix>
</trkpt>
<trkpt lat="33.8103102" lon="-118.3944324">
  <ele>-48.82</ele>
  <time>2026-09-01T01:14:10Z</time>
  <course>0.88</course>
  <speed>0.4</speed>
  <fix>3d</fix>
</trkpt>
<trkpt lat="33.8103105" lon="-118.3944321">
  <ele>-50.022</ele>
  <time>2026-09-01T01:14:10Z</time>
  <course>6.44</course>
  <speed>0.25079872407968906</speed>
  <fix>3d</fix>
</trkpt>
<trkpt lat="33.8103102" lon="-118.3944324">
  <ele>-48.82</ele>
  <time>2026-09-01T01:14:10Z</time>
  <course>0.88</course>
  <speed>0.4</speed>
  <fix>3d</fix>
</trkpt>
<trkpt lat="33.8103108" lon="-118.3944321">
  <ele>-50.021</ele>
  <time>2026-09-01T01:14:10Z</time>
  <course>6.73</course>
  <speed>0.2109502310972899</speed>
  <fix>3d</fix>
</trkpt>
<trkpt lat="33.8103109" lon="-118.3944324">
  <ele>-48.81</ele>
  <time>2026-09-01T01:14:10Z</time>
  <course>1.09</course>
  <speed>0.3</speed>
  <fix>3d</fix>
</trkpt>
<trkpt lat="33.810311" lon="-118.3944321">
  <ele>-50.02</ele>
  <time>2026-09-01T01:14:10Z</time>
  <course>6.73</course>
  <speed>0.18110770276274835</speed>
  <fix>3d</fix>
</trkpt>
<trkpt lat="33.8103109" lon="-118.3944324">
  <ele>-48.81</ele>
  <time>2026-09-01T01:14:10Z</time>
  <course>1.09</course>
  <speed>0.3</speed>
  <fix>3d</fix>
</trkpt>
<trkpt lat="33.8103112" lon="-118.3944321">
  <ele>-50.019</ele>
  <time>2026-09-01T01:14:10Z</time>
  <course>8.03</course>
  <speed>0.13152946437965907</speed>
  <fix>3d</fix>
</trkpt>
<trkpt lat="33.8103114" lon="-118.3944324">
  <ele>-48.81</ele>
  <time>2026-09-01T01:14:10Z</time>
  <course>1.76</course>
  <speed>0.22</speed>
  <fix>3d</fix>
</trkpt>
<trkpt lat="33.8103113" lon="-118.3944321">
  <ele>-50.02</ele>
  <time>2026-09-01T01:14:10Z</time>
  <course>10.6</course>
  <speed>0.09219544457292887</speed>
  <fix>3d</fix>
</trkpt>
<trkpt lat="33.8103114" lon="-118.3944324">
  <ele>-48.81</ele>
  <time>2026-09-01T01:14:10Z</time>
  <course>1.76</course>
  <speed>0.22</speed>
  <fix>3d</fix>
</trkpt>
<trkpt lat="33.8103114" lon="-118.3944321">
  <ele>-50.021</ele>
  <time>2026-09-01T01:14:10Z</time>
  <course>13.83</course>
  <speed>0.07280109889280519</speed>
  <fix>3d</fix>
</trkpt>
<trkpt lat="33.8103117" lon="-118.3944324">
  <ele>-48.81</ele>
  <time>2026-09-01T01:14:10Z</time>
  <course>4.04</course>
  <speed>0.14</speed>
  <fix>3d</fix>
</trkpt>
<trkpt lat="33.8103115" lon="-118.3944321">
  <ele>-50.021</ele>
  <time>2026-09-01T01:14:10Z</time>
  <course>17.35</course>
  <speed>0.05</speed>
  <fix>3d</fix>
</trkpt>
<trkpt lat="33.8103117" lon="-118.3944324">
  <ele>-48.81</ele>
  <time>2026-09-01T01:14:10Z</time>
  <course>4.04</course>
  <speed>0.14</speed>
  <fix>3d</fix>
</trkpt>
<trkpt lat="33.8103116" lon="-118.3944321">
  <ele>-50.02</ele>
  <time>2026-09-01T01:14:10Z</time>
  <course>20.74</course>
  <speed>0.03605551275463989</speed>
  <fix>3d</fix>
</trkpt>
<trkpt lat="33.8103119" lon="-118.3944324">
  <ele>-48.81</ele>
  <time>2026-09-01T01:14:10Z</time>
  <course>8.9</course>
  <speed>0.08</speed>
  <fix>3d</fix>
</trkpt>
<trkpt lat="33.8103117" lon="-118.3944321">
  <ele>-50.019</ele>
  <time>2026-09-01T01:14:10Z</time>
  <course>22.76</course>
  <speed>0.0282842712474619</speed>
  <fix>3d</fix>
</trkpt>
<trkpt lat="33.8103119" lon="-118.3944324">
  <ele>-48.81</ele>
  <time>2026-09-01T01:14:10Z</time>
  <course>8.9</course>
  <speed>0.08</speed>
  <fix>3d</fix>
</trkpt>
<trkpt lat="33.8103117" lon="-118.3944321">
  <ele>-50.019</ele>
  <time>2026-09-01T01:14:10Z</time>
  <course>23.7</course>
  <speed>0.022360679774997897</speed>
  <fix>3d</fix>
</trkpt>
<trkpt lat="33.810312" lon="-118.3944324">
  <ele>-48.81</ele>
  <time>2026-09-01T01:14:10Z</time>
  <course>15.44</course>
  <speed>0.04</speed>
  <fix>3d</fix>
</trkpt>
<trkpt lat="33.8103117" lon="-118.3944321">
  <ele>-50.018</ele>
  <time>2026-09-01T01:14:10Z</time>
  <course>23.26</course>
  <speed>0.02</speed>
  <fix>3d</fix>
</trkpt>
<trkpt lat="33.810312" lon="-118.3944324">
  <ele>-48.81</ele>
  <time>2026-09-01T01:14:10Z</time>
  <course>15.44</course>
  <speed>0.04</speed>
  <fix>3d</fix>
</trkpt>
<trkpt lat="33.8103118" lon="-118.3944321">
  <ele>-50.015</ele>
  <time>2026-09-01T01:14:10Z</time>
  <course>21.1</course>
  <speed>0.022360679774997897</speed>
  <fix>3d</fix>
</trkpt>
<trkpt lat="33.8103121" lon="-118.3944324">
  <ele>-48.81</ele>
  <time>2026-09-01T01:14:10Z</time>
  <course>21.47</course>
  <speed>0.01</speed>
  <fix>3d</fix>
</trkpt>
<trkpt lat="33.8103118" lon="-118.3944321">
  <ele>-50.007</ele>
  <time>2026-09-01T01:14:10Z</time>
  <course>18.14</course>
  <speed>0.03</speed>
  <fix>3d</fix>
</trkpt>
<trkpt lat="33.8103121" lon="-118.3944324">
  <ele>-48.81</ele>
  <time>2026-09-01T01:14:10Z</time>
  <course>21.47</course>
  <speed>0.01</speed>
  <fix>3d</fix>
</trkpt>
<trkpt lat="33.8103118" lon="-118.3944321">
  <ele>-49.992</ele>
  <time>2026-09-01T01:14:10Z</time>
  <course>14.81</course>
  <speed>0.04</speed>
  <fix>3d</fix>
</trkpt>
<trkpt lat="33.8103121" lon="-118.3944324">
  <ele>-48.8</ele>
  <time>2026-09-01T01:14:10Z</time>
  <course>211.54</course>
  <speed>0.01</speed>
  <fix>3d</fix>
</trkpt>
<trkpt lat="33.8103117" lon="-118.3944321">
  <ele>-49.97</ele>
  <time>2026-09-01T01:14:10Z</time>
  <course>11.21</course>
  <speed>0.044721359549995794</speed>
  <fix>3d</fix>
</trkpt>
<trkpt lat="33.8103121" lon="-118.3944324">
  <ele>-48.8</ele>
  <time>2026-09-01T01:14:10Z</time>
  <course>211.54</course>
  <speed>0.01</speed>
  <fix>3d</fix>
</trkpt>
<trkpt lat="33.8103117" lon="-118.3944322">
  <ele>-49.941</ele>
  <time>2026-09-01T01:14:10Z</time>
  <course>7.41</course>
  <speed>0.05</speed>
  <fix>3d</fix>
</trkpt>
<trkpt lat="33.8103121" lon="-118.3944324">
  <ele>-48.77</ele>
  <time>2026-09-01T01:14:10Z</time>
  <course>222.42</course>
  <speed>0.04</speed>
  <fix>3d</fix>
</trkpt>
<trkpt lat="33.8103117" lon="-118.3944322">
  <ele>-49.906</ele>
  <time>2026-09-01T01:14:10Z</time>
  <course>3.43</course>
  <speed>0.06403124237432849</speed>
  <fix>3d</fix>
</trkpt>
<trkpt lat="33.8103121" lon="-118.3944324">
  <ele>-48.77</ele>
  <time>2026-09-01T01:14:10Z</time>
  <course>222.42</course>
  <speed>0.04</speed>
  <fix>3d</fix>
</trkpt>
<trkpt lat="33.8103117" lon="-118.3944323">
  <ele>-49.864</ele>
  <time>2026-09-01T01:14:10Z</time>
  <course>359.31</course>
  <speed>0.07211102550927978</speed>
  <fix>3d</fix>
</trkpt>
<trkpt lat="33.810312" lon="-118.3944324">
  <ele>-48.72</ele>
  <time>2026-09-01T01:14:10Z</time>
  <course>234.2</course>
  <speed>0.06</speed>
  <fix>3d</fix>
</trkpt>
<trkpt lat="33.8103117" lon="-118.3944324">
  <ele>-49.816</ele>
  <time>2026-09-01T01:14:10Z</time>
  <course>355.03</course>
  <speed>0.08062257748298549</speed>
  <fix>3d</fix>
</trkpt>
<trkpt lat="33.810312" lon="-118.3944324">
  <ele>-48.72</ele>
  <time>2026-09-01T01:14:10Z</time>
  <course>234.2</course>
  <speed>0.06</speed>
  <fix>3d</fix>
</trkpt>
<trkpt lat="33.8103117" lon="-118.3944325">
  <ele>-49.758</ele>
  <time>2026-09-01T01:14:10Z</time>
  <course>350.63</course>
  <speed>0.09848857801796104</speed>
  <fix>3d</fix>
</trkpt>
<trkpt lat="33.8103119" lon="-118.3944325">
  <ele>-48.64</ele>
  <time>2026-09-01T01:14:10Z</time>
  <course>244.71</course>
  <speed>0.09</speed>
  <fix>3d</fix>
</trkpt>
<trkpt lat="33.8103117" lon="-118.3944327">
  <ele>-49.691</ele>
  <time>2026-09-01T01:14:10Z</time>
  <course>346.12</course>
  <speed>0.11704699910719625</speed>
  <fix>3d</fix>
</trkpt>
<trkpt lat="33.8103119" lon="-118.3944325">
  <ele>-48.64</ele>
  <time>2026-09-01T01:14:10Z</time>
  <course>244.71</course>
  <speed>0.09</speed>
  <fix>3d</fix>
</trkpt>
<trkpt lat="33.8103117" lon="-118.3944328">
  <ele>-49.614</ele>
  <time>2026-09-01T01:14:10Z</time>
  <course>341.49</course>
  <speed>0.12369316876852982</speed>
  <fix>3d</fix>
</trkpt>
<trkpt lat="33.8103119" lon="-118.3944328">
  <ele>-48.54</ele>
  <time>2026-09-01T01:14:10Z</time>
  <course>252.98</course>
  <speed>0.12</speed>
  <fix>3d</fix>
</trkpt>
<trkpt lat="33.8103117" lon="-118.394433">
  <ele>-49.527</ele>
  <time>2026-09-01T01:14:10Z</time>
  <course>336.76</course>
  <speed>0.14317821063276354</speed>
  <fix>3d</fix>
</trkpt>
<trkpt lat="33.8103119" lon="-118.3944328">
  <ele>-48.54</ele>
  <time>2026-09-01T01:14:10Z</time>
  <course>252.98</course>
  <speed>0.12</speed>
  <fix>3d</fix>
</trkpt>
<trkpt lat="33.8103117" lon="-118.3944331">
  <ele>-49.431</ele>
  <time>2026-09-01T01:14:10Z</time>
  <course>331.94</course>
  <speed>0.15297058540778355</speed>
  <fix>3d</fix>
</trkpt>
<trkpt lat="33.8103118" lon="-118.394433">
  <ele>-48.4</ele>
  <time>2026-09-01T01:14:10Z</time>
  <course>258.73</course>
  <speed>0.15</speed>
  <fix>3d</fix>
</trkpt>
<trkpt lat="33.8103117" lon="-118.3944333">
  <ele>-49.326</ele>
  <time>2026-09-01T01:14:10Z</time>
  <course>327.03</course>
  <speed>0.17262676501632068</speed>
  <fix>3d</fix>
</trkpt>
<trkpt lat="33.8103118" lon="-118.394433">
  <ele>-48.4</ele>
  <time>2026-09-01T01:14:10Z</time>
  <course>258.73</course>
  <speed>0.15</speed>
  <fix>3d</fix>
</trkpt>
<trkpt lat="33.8103117" lon="-118.3944335">
  <ele>-49.211</ele>
  <time>2026-09-01T01:14:10Z</time>
  <course>322.0</course>
  <speed>0.191049731745428</speed>
  <fix>3d</fix>
</trkpt>
<trkpt lat="33.8103118" lon="-118.3944335">
  <ele>-48.22</ele>
  <time>2026-09-01T01:14:10Z</time>
  <course>262.45</course>
  <speed>0.18</speed>
  <fix>3d</fix>
</trkpt>
<trkpt lat="33.8103116" lon="-118.3944338">
  <ele>-49.089</ele>
  <time>2026-09-01T01:14:10Z</time>
  <course>316.93</course>
  <speed>0.2009975124224178</speed>
  <fix>3d</fix>
</trkpt>
<trkpt lat="33.8103118" lon="-118.3944335">
  <ele>-48.22</ele>
  <time>2026-09-01T01:14:10Z</time>
  <course>262.45</course>
  <speed>0.18</speed>
  <fix>3d</fix>
</trkpt>
<trkpt lat="33.8103116" lon="-118.394434">
  <ele>-48.96</ele>
  <time>2026-09-01T01:14:10Z</time>
  <course>311.79</course>
  <speed>0.2109502310972899</speed>
  <fix>3d</fix>
</trkpt>
<trkpt lat="33.8103118" lon="-118.3944339">
  <ele>-48.01</ele>
  <time>2026-09-01T01:14:10Z</time>
  <course>264.41</course>
  <speed>0.22</speed>
  <fix>3d</fix>
</trkpt>
<trkpt lat="33.8103116" lon="-118.3944343">
  <ele>-48.829</ele>
  <time>2026-09-01T01:14:10Z</time>
  <course>306.57</course>
  <speed>0.23194827009486402</speed>
  <fix>3d</fix>
</trkpt>
<trkpt lat="33.8103118" lon="-118.3944339">
  <ele>-48.01</ele>
  <time>2026-09-01T01:14:10Z</time>
  <course>264.41</course>
  <speed>0.22</speed>
  <fix>3d</fix>
</trkpt>
<trkpt lat="33.8103116" lon="-118.3944345">
  <ele>-48.697</ele>
  <time>2026-09-01T01:14:10Z</time>
  <course>301.28</course>
  <speed>0.24186773244895649</speed>
  <fix>3d</fix>
</trkpt>
<trkpt lat="33.8103117" lon="-118.3944344">
  <ele>-47.78</ele>
  <time>2026-09-01T01:14:10Z</time>
  <course>264.95</course>
  <speed>0.24</speed>
  <fix>3d</fix>
</trkpt>
<trkpt lat="33.8103116" lon="-118.3944348">
  <ele>-48.565</ele>
  <time>2026-09-01T01:14:10Z</time>
  <course>295.93</course>
  <speed>0.25179356624028343</speed>
  <fix>3d</fix>
</trkpt>
<trkpt lat="33.8103117" lon="-118.3944344">
  <ele>-47.78</ele>
  <time>2026-09-01T01:14:10Z</time>
  <course>264.95</course>
  <speed>0.24</speed>
  <fix>3d</fix>
</trkpt>
<trkpt lat="33.8103116" lon="-118.3944351">
  <ele>-48.432</ele>
  <time>2026-09-01T01:14:10Z</time>
  <course>290.51</course>
  <speed>0.2707397274136177</speed>
  <fix>3d</fix>
</trkpt>
<trkpt lat="33.8103117" lon="-118.3944349">
  <ele>-47.54</ele>
  <time>2026-09-01T01:14:10Z</time>
  <course>265.3</course>
  <speed>0.27</speed>
  <fix>3d</fix>
</trkpt>
<trkpt lat="33.8103116" lon="-118.3944355">
  <ele>-48.3</ele>
  <time>2026-09-01T01:14:10Z</time>
  <course>285.03</course>
  <speed>0.280713376952364</speed>
  <fix>3d</fix>
</trkpt>
<trkpt lat="33.8103117" lon="-118.3944349">
  <ele>-47.54</ele>
  <time>2026-09-01T01:14:10Z</time>
  <course>265.3</course>
  <speed>0.27</speed>
  <fix>3d</fix>
</trkpt>
<trkpt lat="33.8103116" lon="-118.3944358">
  <ele>-48.168</ele>
  <time>2026-09-01T01:14:10Z</time>
  <course>279.48</course>
  <speed>0.2906888370749727</speed>
  <fix>3d</fix>
</trkpt>
<trkpt lat="33.8103117" lon="-118.3944356">
  <ele>-47.29</ele>
  <time>2026-09-01T01:14:10Z</time>
  <course>266.11</course>
  <speed>0.3</speed>
  <fix>3d</fix>
</trkpt>
<trkpt lat="33.8103116" lon="-118.3944361">
  <ele>-48.036</ele>
  <time>2026-09-01T01:14:10Z</time>
  <course>273.88</course>
  <speed>0.30066592756745814</speed>
  <fix>3d</fix>
</trkpt>
<trkpt lat="33.8103117" lon="-118.3944356">
  <ele>-47.29</ele>
  <time>2026-09-01T01:14:10Z</time>
  <course>266.11</course>
  <speed>0.3</speed>
  <fix>3d</fix>
</trkpt>
<trkpt lat="33.8103116" lon="-118.3944365">
  <ele>-47.905</ele>
  <time>2026-09-01T01:14:10Z</time>
  <course>268.5</course>
  <speed>0.30016662039607267</speed>
  <fix>3d</fix>
</trkpt>
<trkpt lat="33.8103116" lon="-118.3944362">
  <ele>-47.05</ele>
  <time>2026-09-01T01:14:10Z</time>
  <course>267.35</course>
  <speed>0.32</speed>
  <fix>3d</fix>
</trkpt>
<trkpt lat="33.8103115" lon="-118.3944368">
  <ele>-47.773</ele>
  <time>2026-09-01T01:14:10Z</time>
  <course>263.74</course>
  <speed>0.30016662039607267</speed>
  <fix>3d</fix>
</trkpt>
<trkpt lat="33.8103116" lon="-118.3944362">
  <ele>-47.05</ele>
  <time>2026-09-01T01:14:10Z</time>
  <course>267.35</course>
  <speed>0.32</speed>
  <fix>3d</fix>
</trkpt>
<trkpt lat="33.8103116" lon="-118.3944372">
  <ele>-47.643</ele>
  <time>2026-09-01T01:14:10Z</time>
  <course>259.53</course>
  <speed>0.3</speed>
  <fix>3d</fix>
</trkpt>
<trkpt lat="33.8103116" lon="-118.3944369">
  <ele>-46.8</ele>
  <time>2026-09-01T01:14:10Z</time>
  <course>268.91</course>
  <speed>0.33</speed>
  <fix>3d</fix>
</trkpt>
<trkpt lat="33.8103116" lon="-118.3944375">
  <ele>-47.516</ele>
  <time>2026-09-01T01:14:10Z</time>
  <course>255.77</course>
  <speed>0.3</speed>
  <fix>3d</fix>
</trkpt>
<trkpt lat="33.8103116" lon="-118.3944369">
  <ele>-46.8</ele>
  <time>2026-09-01T01:14:10Z</time>
  <course>268.91</course>
  <speed>0.33</speed>
  <fix>3d</fix>
</trkpt>
<trkpt lat="33.8103115" lon="-118.3944379">
  <ele>-47.389</ele>
  <time>2026-09-01T01:14:10Z</time>
  <course>252.36</course>
  <speed>0.29</speed>
  <fix>3d</fix>
</trkpt>
<trkpt lat="33.8103116" lon="-118.3944377">
  <ele>-46.55</ele>
  <time>2026-09-01T01:14:10Z</time>
  <course>270.34</course>
  <speed>0.33</speed>
  <fix>3d</fix>
</trkpt>
<trkpt lat="33.8103115" lon="-118.3944382">
  <ele>-47.264</ele>
  <time>2026-09-01T01:14:10Z</time>
  <course>249.17</course>
  <speed>0.29</speed>
  <fix>3d</fix>
</trkpt>
<trkpt lat="33.8103116" lon="-118.3944377">
  <ele>-46.55</ele>
  <time>2026-09-01T01:14:10Z</time>
  <course>270.34</course>
  <speed>0.33</speed>
  <fix>3d</fix>
</trkpt>
<trkpt lat="33.8103115" lon="-118.3944386">
  <ele>-47.139</ele>
  <time>2026-09-01T01:14:10Z</time>
  <course>246.13</course>
  <speed>0.28</speed>
  <fix>3d</fix>
</trkpt>
<trkpt lat="33.8103116" lon="-118.3944384">
  <ele>-46.31</ele>
  <time>2026-09-01T01:14:10Z</time>
  <course>271.23</course>
  <speed>0.32</speed>
  <fix>3d</fix>
</trkpt>
<trkpt lat="33.8103115" lon="-118.3944389">
  <ele>-47.014</ele>
  <time>2026-09-01T01:14:10Z</time>
  <course>243.25</course>
  <speed>0.27</speed>
  <fix>3d</fix>
</trkpt>
<trkpt lat="33.8103116" lon="-118.3944384">
  <ele>-46.31</ele>
  <time>2026-09-01T01:14:10Z</time>
  <course>271.23</course>
  <speed>0.32</speed>
  <fix>3d</fix>
</trkpt>
<trkpt lat="33.8103115" lon="-118.3944392">
  <ele>-46.89</ele>
  <time>2026-09-01T01:14:10Z</time>
  <course>240.57</course>
  <speed>0.27</speed>
  <fix>3d</fix>
</trkpt>
<trkpt lat="33.8103116" lon="-118.3944391">
  <ele>-46.07</ele>
  <time>2026-09-01T01:14:10Z</time>
  <course>271.78</course>
  <speed>0.31</speed>
  <fix>3d</fix>
</trkpt>
<trkpt lat="33.8103115" lon="-118.3944395">
  <ele>-46.765</ele>
  <time>2026-09-01T01:14:10Z</time>
  <course>238.09</course>
  <speed>0.27</speed>
  <fix>3d</fix>
</trkpt>
<trkpt lat="33.8103116" lon="-118.3944391">
  <ele>-46.07</ele>
  <time>2026-09-01T01:14:10Z</time>
  <course>271.78</course>
  <speed>0.31</speed>
  <fix>3d</fix>
</trkpt>
<trkpt lat="33.8103115" lon="-118.3944399">
  <ele>-46.641</ele>
  <time>2026-09-01T01:14:10Z</time>
  <course>235.83</course>
  <speed>0.26</speed>
  <fix>3d</fix>
</trkpt>
<trkpt lat="33.8103116" lon="-118.3944397">
  <ele>-45.82</ele>
  <time>2026-09-01T01:14:10Z</time>
  <course>272.25</course>
  <speed>0.3</speed>
  <fix>3d</fix>
</trkpt>
<trkpt lat="33.8103115" lon="-118.3944402">
  <ele>-46.515</ele>
  <time>2026-09-01T01:14:10Z</time>
  <course>233.82</course>
  <speed>0.26</speed>
  <fix>3d</fix>
</trkpt>
<trkpt lat="33.8103116" lon="-118.3944397">
  <ele>-45.82</ele>
  <time>2026-09-01T01:14:10Z</time>
  <course>272.25</course>
  <speed>0.3</speed>
  <fix>3d</fix>
</trkpt>
<trkpt lat="33.8103115" lon="-118.3944405">
  <ele>-46.39</ele>
  <time>2026-09-01T01:14:10Z</time>
  <course>232.13</course>
  <speed>0.25</speed>
  <fix>3d</fix>
</trkpt>
<trkpt lat="33.8103116" lon="-118.3944404">
  <ele>-45.58</ele>
  <time>2026-09-01T01:14:10Z</time>
  <course>272.46</course>
  <speed>0.29</speed>
  <fix>3d</fix>
</trkpt>
<trkpt lat="33.8103115" lon="-118.3944408">
  <ele>-46.266</ele>
  <time>2026-09-01T01:14:10Z</time>
  <course>230.73</course>
  <speed>0.25</speed>
  <fix>3d</fix>
</trkpt>
<trkpt lat="33.8103116" lon="-118.3944404">
  <ele>-45.58</ele>
  <time>2026-09-01T01:14:10Z</time>
  <course>272.46</course>
  <speed>0.29</speed>
  <fix>3d</fix>
</trkpt>
<trkpt lat="33.8103116" lon="-118.3944411">
  <ele>-46.143</ele>
  <time>2026-09-01T01:14:10Z</time>
  <course>229.54</course>
  <speed>0.24</speed>
  <fix>3d</fix>
</trkpt>
<trkpt lat="33.8103116" lon="-118.3944411">
  <ele>-45.33</ele>
  <time>2026-09-01T01:14:10Z</time>
  <course>272.27</course>
  <speed>0.28</speed>
  <fix>3d</fix>
</trkpt>
<trkpt lat="33.8103116" lon="-118.3944414">
  <ele>-46.021</ele>
  <time>2026-09-01T01:14:10Z</time>
  <course>228.5</course>
  <speed>0.24</speed>
  <fix>3d</fix>
</trkpt>
<trkpt lat="33.8103116" lon="-118.3944411">
  <ele>-45.33</ele>
  <time>2026-09-01T01:14:10Z</time>
  <course>272.27</course>
  <speed>0.28</speed>
  <fix>3d</fix>
</trkpt>
<trkpt lat="33.8103116" lon="-118.3944417">
  <ele>-45.899</ele>
  <time>2026-09-01T01:14:10Z</time>
  <course>227.53</course>
  <speed>0.23</speed>
  <fix>3d</fix>
</trkpt>
<trkpt lat="33.8103116" lon="-118.3944416">
  <ele>-45.09</ele>
  <time>2026-09-01T01:14:10Z</time>
  <course>271.72</course>
  <speed>0.27</speed>
  <fix>3d</fix>
</trkpt>
<trkpt lat="33.8103116" lon="-118.394442">
  <ele>-45.779</ele>
  <time>2026-09-01T01:14:10Z</time>
  <course>226.63</course>
  <speed>0.22</speed>
  <fix>3d</fix>
</trkpt>
<trkpt lat="33.8103116" lon="-118.3944416">
  <ele>-45.09</ele>
  <time>2026-09-01T01:14:10Z</time>
  <course>271.72</course>
  <speed>0.27</speed>
  <fix>3d</fix>
</trkpt>
<trkpt lat="33.8103116" lon="-118.3944423">
  <ele>-45.66</ele>
  <time>2026-09-01T01:14:10Z</time>
  <course>225.87</course>
  <speed>0.22</speed>
  <fix>3d</fix>
</trkpt>
<trkpt lat="33.8103116" lon="-118.3944422">
  <ele>-44.84</ele>
  <time>2026-09-01T01:14:10Z</time>
  <course>270.97</course>
  <speed>0.26</speed>
  <fix>3d</fix>
</trkpt>
<trkpt lat="33.8103115" lon="-118.3944425">
  <ele>-45.541</ele>
  <time>2026-09-01T01:14:10Z</time>
  <course>225.32</course>
  <speed>0.21</speed>
  <fix>3d</fix>
</trkpt>
<trkpt lat="33.8103116" lon="-118.3944422">
  <ele>-44.84</ele>
  <time>2026-09-01T01:14:10Z</time>
  <course>270.97</course>
  <speed>0.26</speed>
  <fix>3d</fix>
</trkpt>
<trkpt lat="33.8103115" lon="-118.3944428">
  <ele>-45.421</ele>
  <time>2026-09-01T01:14:10Z</time>
  <course>225.02</course>
  <speed>0.21</speed>
  <fix>3d</fix>
</trkpt>
<trkpt lat="33.8103116" lon="-118.3944428">
  <ele>-44.6</ele>
  <time>2026-09-01T01:14:10Z</time>
  <course>270.37</course>
  <speed>0.24</speed>
  <fix>3d</fix>
</trkpt>
<trkpt lat="33.8103115" lon="-118.394443">
  <ele>-45.301</ele>
  <time>2026-09-01T01:14:10Z</time>
  <course>224.96</course>
  <speed>0.2</speed>
  <fix>3d</fix>
</trkpt>
<trkpt lat="33.8103116" lon="-118.3944428">
  <ele>-44.6</ele>
  <time>2026-09-01T01:14:10Z</time>
  <course>270.37</course>
  <speed>0.24</speed>
  <fix>3d</fix>
</trkpt>
<trkpt lat="33.8103115" lon="-118.3944433">
  <ele>-45.181</ele>
  <time>2026-09-01T01:14:10Z</time>
  <course>225.0</course>
  <speed>0.19</speed>
  <fix>3d</fix>
</trkpt>
<trkpt lat="33.8103116" lon="-118.3944433">
  <ele>-44.35</ele>
  <time>2026-09-01T01:14:10Z</time>
  <course>269.96</course>
  <speed>0.23</speed>
  <fix>3d</fix>
</trkpt>
<trkpt lat="33.8103115" lon="-118.3944435">
  <ele>-45.059</ele>
  <time>2026-09-01T01:14:10Z</time>
  <course>225.11</course>
  <speed>0.18027756377319945</speed>
  <fix>3d</fix>
</trkpt>
<trkpt lat="33.8103116" lon="-118.3944433">
  <ele>-44.35</ele>
  <time>2026-09-01T01:14:10Z</time>
  <course>269.96</course>
  <speed>0.23</speed>
  <fix>3d</fix>
</trkpt>
<trkpt lat="33.8103115" lon="-118.3944438">
  <ele>-44.935</ele>
  <time>2026-09-01T01:14:10Z</time>
  <course>225.21</course>
  <speed>0.17029386365926402</speed>
  <fix>3d</fix>
</trkpt>
<trkpt lat="33.8103116" lon="-118.3944438">
  <ele>-44.11</ele>
  <time>2026-09-01T01:14:10Z</time>
  <course>269.34</course>
  <speed>0.21</speed>
  <fix>3d</fix>
</trkpt>
<trkpt lat="33.8103115" lon="-118.394444">
  <ele>-44.811</ele>
  <time>2026-09-01T01:14:10Z</time>
  <course>225.33</course>
  <speed>0.16031219541881397</speed>
  <fix>3d</fix>
</trkpt>
<trkpt lat="33.8103116" lon="-118.3944438">
  <ele>-44.11</ele>
  <time>2026-09-01T01:14:10Z</time>
  <course>269.34</course>
  <speed>0.21</speed>
  <fix>3d</fix>
</trkpt>
<trkpt lat="33.8103115" lon="-118.3944442">
  <ele>-44.688</ele>
  <time>2026-09-01T01:14:10Z</time>
  <course>225.42</course>
  <speed>0.16031219541881397</speed>
  <fix>3d</fix>
</trkpt>
<trkpt lat="33.8103116" lon="-118.3944442">
  <ele>-43.86</ele>
  <time>2026-09-01T01:14:10Z</time>
  <course>268.45</course>
  <speed>0.19</speed>
  <fix>3d</fix>
</trkpt>
<trkpt lat="33.8103115" lon="-118.3944444">
  <ele>-44.564</ele>
  <time>2026-09-01T01:14:10Z</time>
  <course>225.52</course>
  <speed>0.15033296378372907</speed>
  <fix>3d</fix>
</trkpt>
<trkpt lat="33.8103116" lon="-118.3944442">
  <ele>-43.86</ele>
  <time>2026-09-01T01:14:10Z</time>
  <course>268.45</course>
  <speed>0.19</speed>
  <fix>3d</fix>
</trkpt>
<trkpt lat="33.8103115" lon="-118.3944446">
  <ele>-44.44</ele>
  <time>2026-09-01T01:14:10Z</time>
  <course>225.6</course>
  <speed>0.140356688476182</speed>
  <fix>3d</fix>
</trkpt>
<trkpt lat="33.8103116" lon="-118.3944446">
  <ele>-43.62</ele>
  <time>2026-09-01T01:14:10Z</time>
  <course>267.5</course>
  <speed>0.17</speed>
  <fix>3d</fix>
</trkpt>
<trkpt lat="33.8103115" lon="-118.3944448">
  <ele>-44.316</ele>
  <time>2026-09-01T01:14:10Z</time>
  <course>225.63</course>
  <speed>0.140356688476182</speed>
  <fix>3d</fix>
</trkpt>
<trkpt lat="33.8103116" lon="-118.3944446">
  <ele>-43.62</ele>
  <time>2026-09-01T01:14:10Z</time>
  <course>267.5</course>
  <speed>0.17</speed>
  <fix>3d</fix>
</trkpt>
<trkpt lat="33.8103115" lon="-118.3944449">
  <ele>-44.192</ele>
  <time>2026-09-01T01:14:10Z</time>
  <course>225.65</course>
  <speed>0.130384048104053</speed>
  <fix>3d</fix>
</trkpt>
<trkpt lat="33.8103116" lon="-118.394445">
  <ele>-43.37</ele>
  <time>2026-09-01T01:14:10Z</time>
  <course>266.52</course>
  <speed>0.15</speed>
  <fix>3d</fix>
</trkpt>
<trkpt lat="33.8103115" lon="-118.3944451">
  <ele>-44.066</ele>
  <time>2026-09-01T01:14:10Z</time>
  <course>225.65</course>
  <speed>0.12041594578792296</speed>
  <fix>3d</fix>
</trkpt>
<trkpt lat="33.8103116" lon="-118.394445">
  <ele>-43.37</ele>
  <time>2026-09-01T01:14:10Z</time>
  <course>266.52</course>
  <speed>0.15</speed>
  <fix>3d</fix>
</trkpt>
<trkpt lat="33.8103115" lon="-118.3944453">
  <ele>-43.938</ele>
  <time>2026-09-01T01:14:10Z</time>
  <course>225.63</course>
  <speed>0.12041594578792296</speed>
  <fix>3d</fix>
</trkpt>
<trkpt lat="33.8103116" lon="-118.3944453">
  <ele>-43.12</ele>
  <time>2026-09-01T01:14:10Z</time>
  <course>265.58</course>
  <speed>0.14</speed>
  <fix>3d</fix>
</trkpt>
<trkpt lat="33.8103115" lon="-118.3944454">
  <ele>-43.811</ele>
  <time>2026-09-01T01:14:10Z</time>
  <course>225.58</course>
  <speed>0.11045361017187261</speed>
  <fix>3d</fix>
</trkpt>
<trkpt lat="33.8103116" lon="-118.3944453">
  <ele>-43.12</ele>
  <time>2026-09-01T01:14:10Z</time>
  <course>265.58</course>
  <speed>0.14</speed>
  <fix>3d</fix>
</trkpt>
<trkpt lat="33.8103115" lon="-118.3944456">
  <ele>-43.685</ele>
  <time>2026-09-01T01:14:10Z</time>
  <course>225.56</course>
  <speed>0.11045361017187261</speed>
  <fix>3d</fix>
</trkpt>
<trkpt lat="33.8103116" lon="-118.3944456">
  <ele>-42.88</ele>
  <time>2026-09-01T01:14:10Z</time>
  <course>264.74</course>
  <speed>0.13</speed>
  <fix>3d</fix>
</trkpt>
<trkpt lat="33.8103115" lon="-118.3944457">
  <ele>-43.558</ele>
  <time>2026-09-01T01:14:10Z</time>
  <course>225.53</course>
  <speed>0.11045361017187261</speed>
  <fix>3d</fix>
</trkpt>
<trkpt lat="33.8103116" lon="-118.3944456">
  <ele>-42.88</ele>
  <time>2026-09-01T01:14:10Z</time>
  <course>264.74</course>
  <speed>0.13</speed>
  <fix>3d</fix>
</trkpt>
<trkpt lat="33.8103115" lon="-118.3944458">
  <ele>-43.432</ele>
  <time>2026-09-01T01:14:10Z</time>
  <course>225.55</course>
  <speed>0.11045361017187261</speed>
  <fix>3d</fix>
</trkpt>
<trkpt lat="33.8103116" lon="-118.3944459">
  <ele>-42.64</ele>
  <time>2026-09-01T01:14:10Z</time>
  <course>263.76</course>
  <speed>0.12</speed>
  <fix>3d</fix>
</trkpt>
<trkpt lat="33.8103115" lon="-118.394446">
  <ele>-43.305</ele>
  <time>2026-09-01T01:14:10Z</time>
  <course>225.59</course>
  <speed>0.11045361017187261</speed>
  <fix>3d</fix>
</trkpt>
<trkpt lat="33.8103116" lon="-118.3944459">
  <ele>-42.64</ele>
  <time>2026-09-01T01:14:10Z</time>
  <course>263.76</course>
  <speed>0.12</speed>
  <fix>3d</fix>
</trkpt>
<trkpt lat="33.8103115" lon="-118.3944461">
  <ele>-43.178</ele>
  <time>2026-09-01T01:14:10Z</time>
  <course>225.66</course>
  <speed>0.11045361017187261</speed>
  <fix>3d</fix>
</trkpt>
<trkpt lat="33.8103116" lon="-118.3944461">
  <ele>-42.39</ele>
  <time>2026-09-01T01:14:10Z</time>
  <course>262.27</course>
  <speed>0.11</speed>
  <fix>3d</fix>
</trkpt>
<trkpt lat="33.8103115" lon="-118.3944463">
  <ele>-43.052</ele>
  <time>2026-09-01T01:14:10Z</time>
  <course>225.72</course>
  <speed>0.11045361017187261</speed>
  <fix>3d</fix>
</trkpt>
<trkpt lat="33.8103116" lon="-118.3944461">
  <ele>-42.39</ele>
  <time>2026-09-01T01:14:10Z</time>
  <course>262.27</course>
  <speed>0.11</speed>
  <fix>3d</fix>
</trkpt>
<trkpt lat="33.8103115" lon="-118.3944464">
  <ele>-42.926</ele>
  <time>2026-09-01T01:14:10Z</time>
  <course>225.71</course>
  <speed>0.11</speed>
  <fix>3d</fix>
</trkpt>
<trkpt lat="33.8103116" lon="-118.3944464">
  <ele>-42.15</ele>
  <time>2026-09-01T01:14:10Z</time>
  <course>261.06</course>
  <speed>0.11</speed>
  <fix>3d</fix>
</trkpt>
<trkpt lat="33.8103115" lon="-118.3944465">
  <ele>-42.801</ele>
  <time>2026-09-01T01:14:10Z</time>
  <course>225.69</course>
  <speed>0.11</speed>
  <fix>3d</fix>
</trkpt>
<trkpt lat="33.8103116" lon="-118.3944464">
  <ele>-42.15</ele>
  <time>2026-09-01T01:14:10Z</time>
  <course>261.06</course>
  <speed>0.11</speed>
  <fix>3d</fix>
</trkpt>
<trkpt lat="33.8103115" lon="-118.3944467">
  <ele>-42.675</ele>
  <time>2026-09-01T01:14:10Z</time>
  <course>225.65</course>
  <speed>0.11</speed>
  <fix>3d</fix>
</trkpt>
<trkpt lat="33.8103115" lon="-118.3944466">
  <ele>-41.9</ele>
  <time>2026-09-01T01:14:10Z</time>
  <course>260.88</course>
  <speed>0.11</speed>
  <fix>3d</fix>
</trkpt>
<trkpt lat="33.8103115" lon="-118.3944468">
  <ele>-42.549</ele>
  <time>2026-09-01T01:14:10Z</time>
  <course>225.61</course>
  <speed>0.12</speed>
  <fix>3d</fix>
</trkpt>
<trkpt lat="33.8103115" lon="-118.3944466">
  <ele>-41.9</ele>
  <time>2026-09-01T01:14:10Z</time>
  <course>260.88</course>
  <speed>0.11</speed>
  <fix>3d</fix>
</trkpt>
<trkpt lat="33.8103115" lon="-118.3944469">
  <ele>-42.421</ele>
  <time>2026-09-01T01:14:10Z</time>
  <course>225.55</course>
  <speed>0.12</speed>
  <fix>3d</fix>
</trkpt>
<trkpt lat="33.8103115" lon="-118.3944469">
  <ele>-41.66</ele>
  <time>2026-09-01T01:14:10Z</time>
  <course>261.38</course>
  <speed>0.11</speed>
  <fix>3d</fix>
</trkpt>
<trkpt lat="33.8103115" lon="-118.3944471">
  <ele>-42.293</ele>
  <time>2026-09-01T01:14:10Z</time>
  <course>225.51</course>
  <speed>0.13</speed>
  <fix>3d</fix>
</trkpt>
<trkpt lat="33.8103115" lon="-118.3944469">
  <ele>-41.66</ele>
  <time>2026-09-01T01:14:10Z</time>
  <course>261.38</course>
  <speed>0.11</speed>
  <fix>3d</fix>
</trkpt>
<trkpt lat="33.8103115" lon="-118.3944472">
  <ele>-42.165</ele>
  <time>2026-09-01T01:14:10Z</time>
  <course>225.49</course>
  <speed>0.14</speed>
  <fix>3d</fix>
</trkpt>
<trkpt lat="33.8103115" lon="-118.3944471">
  <ele>-41.41</ele>
  <time>2026-09-01T01:14:10Z</time>
  <course>262.26</course>
  <speed>0.12</speed>
  <fix>3d</fix>
</trkpt>
<trkpt lat="33.8103115" lon="-118.3944474">
  <ele>-42.037</ele>
  <time>2026-09-01T01:14:10Z</time>
  <course>225.5</course>
  <speed>0.14</speed>
  <fix>3d</fix>
</trkpt>
<trkpt lat="33.8103115" lon="-118.3944471">
  <ele>-41.41</ele>
  <time>2026-09-01T01:14:10Z</time>
  <course>262.26</course>
  <speed>0.12</speed>
  <fix>3d</fix>
</trkpt>
<trkpt lat="33.8103115" lon="-118.3944476">
  <ele>-41.91</ele>
  <time>2026-09-01T01:14:10Z</time>
  <course>225.54</course>
  <speed>0.15</speed>
  <fix>3d</fix>
</trkpt>
<trkpt lat="33.8103114" lon="-118.3944474">
  <ele>-41.17</ele>
  <time>2026-09-01T01:14:10Z</time>
  <course>263.12</course>
  <speed>0.14</speed>
  <fix>3d</fix>
</trkpt>
<trkpt lat="33.8103115" lon="-118.3944477">
  <ele>-41.785</ele>
  <time>2026-09-01T01:14:10Z</time>
  <course>225.61</course>
  <speed>0.16</speed>
  <fix>3d</fix>
</trkpt>
<trkpt lat="33.8103114" lon="-118.3944474">
  <ele>-41.17</ele>
  <time>2026-09-01T01:14:10Z</time>
  <course>263.12</course>
  <speed>0.14</speed>
  <fix>3d</fix>
</trkpt>
<trkpt lat="33.8103115" lon="-118.3944479">
  <ele>-41.66</ele>
  <time>2026-09-01T01:14:10Z</time>
  <course>225.69</course>
  <speed>0.17</speed>
  <fix>3d</fix>
</trkpt>
<trkpt lat="33.8103113" lon="-118.3944477">
  <ele>-40.92</ele>
  <time>2026-09-01T01:14:10Z</time>
  <course>263.98</course>
  <speed>0.15</speed>
  <fix>3d</fix>
</trkpt>
<trkpt lat="33.8103115" lon="-118.3944481">
  <ele>-41.534</ele>
  <time>2026-09-01T01:14:10Z</time>
  <course>225.8</course>
  <speed>0.18</speed>
  <fix>3d</fix>
</trkpt>
<trkpt lat="33.8103113" lon="-118.3944477">
  <ele>-40.92</ele>
  <time>2026-09-01T01:14:10Z</time>
  <course>263.98</course>
  <speed>0.15</speed>
  <fix>3d</fix>
</trkpt>
<trkpt lat="33.8103115" lon="-118.3944483">
  <ele>-41.409</ele>
  <time>2026-09-01T01:14:10Z</time>
  <course>226.17</course>
  <speed>0.19</speed>
  <fix>3d</fix>
</trkpt>
<trkpt lat="33.8103113" lon="-118.3944481">
  <ele>-40.67</ele>
  <time>2026-09-01T01:14:10Z</time>
  <course>265.01</course>
  <speed>0.17</speed>
  <fix>3d</fix>
</trkpt>
<trkpt lat="33.8103115" lon="-118.3944485">
  <ele>-41.282</ele>
  <time>2026-09-01T01:14:10Z</time>
  <course>227.09</course>
  <speed>0.19026297590440447</speed>
  <fix>3d</fix>
</trkpt>
<trkpt lat="33.8103113" lon="-118.3944481">
  <ele>-40.67</ele>
  <time>2026-09-01T01:14:10Z</time>
  <course>265.01</course>
  <speed>0.17</speed>
  <fix>3d</fix>
</trkpt>
<trkpt lat="33.8103115" lon="-118.3944487">
  <ele>-41.157</ele>
  <time>2026-09-01T01:14:10Z</time>
  <course>228.31</course>
  <speed>0.2002498439450079</speed>
  <fix>3d</fix>
</trkpt>
<trkpt lat="33.8103113" lon="-118.3944485">
  <ele>-40.43</ele>
  <time>2026-09-01T01:14:10Z</time>
  <course>266.05</course>
  <speed>0.18</speed>
  <fix>3d</fix>
</trkpt>
<trkpt lat="33.8103114" lon="-118.394449">
  <ele>-41.033</ele>
  <time>2026-09-01T01:14:10Z</time>
  <course>229.65</course>
  <speed>0.2102379604162864</speed>
  <fix>3d</fix>
</trkpt>
<trkpt lat="33.8103113" lon="-118.3944485">
  <ele>-40.43</ele>
  <time>2026-09-01T01:14:10Z</time>
  <course>266.05</course>
  <speed>0.18</speed>
  <fix>3d</fix>
</trkpt>
<trkpt lat="33.8103114" lon="-118.3944492">
  <ele>-40.908</ele>
  <time>2026-09-01T01:14:10Z</time>
  <course>230.98</course>
  <speed>0.22022715545545238</speed>
  <fix>3d</fix>
</trkpt>
<trkpt lat="33.8103113" lon="-118.3944488">
  <ele>-40.18</ele>
  <time>2026-09-01T01:14:10Z</time>
  <course>266.84</course>
  <speed>0.2</speed>
  <fix>3d</fix>
</trkpt>
<trkpt lat="33.8103114" lon="-118.3944494">
  <ele>-40.783</ele>
  <time>2026-09-01T01:14:10Z</time>
  <course>232.32</course>
  <speed>0.22022715545545238</speed>
  <fix>3d</fix>
</trkpt>
<trkpt lat="33.8103113" lon="-118.3944488">
  <ele>-40.18</ele>
  <time>2026-09-01T01:14:10Z</time>
  <course>266.84</course>
  <speed>0.2</speed>
  <fix>3d</fix>
</trkpt>
<trkpt lat="33.8103114" lon="-118.3944497">
  <ele>-40.658</ele>
  <time>2026-09-01T01:14:11Z</time>
  <course>233.65</course>
  <speed>0.23021728866442676</speed>
  <fix>3d</fix>
</trkpt>
<trkpt lat="33.8103112" lon="-118.3944493">
  <ele>-39.94</ele>
  <time>2026-09-01T01:14:11Z</time>
  <course>267.3</course>
  <speed>0.21</speed>
  <fix>3d</fix>
</trkpt>
<trkpt lat="33.8103114" lon="-118.3944499">
  <ele>-40.534</ele>
  <time>2026-09-01T01:14:11Z</time>
  <course>234.97</course>
  <speed>0.24020824298928628</speed>
  <fix>3d</fix>
</trkpt>
<trkpt lat="33.8103112" lon="-118.3944493">
  <ele>-39.94</ele>
  <time>2026-09-01T01:14:11Z</time>
  <course>267.3</course>
  <speed>0.21</speed>
  <fix>3d</fix>
</trkpt>
<trkpt lat="33.8103114" lon="-118.3944502">
  <ele>-40.408</ele>
  <time>2026-09-01T01:14:11Z</time>
  <course>236.27</course>
  <speed>0.24083189157584592</speed>
  <fix>3d</fix>
</trkpt>
<trkpt lat="33.8103112" lon="-118.3944498">
  <ele>-39.69</ele>
  <time>2026-09-01T01:14:11Z</time>
  <course>267.7</course>
  <speed>0.23</speed>
  <fix>3d</fix>
</trkpt>
<trkpt lat="33.8103114" lon="-118.3944504">
  <ele>-40.281</ele>
  <time>2026-09-01T01:14:11Z</time>
  <course>237.54</course>
  <speed>0.24083189157584592</speed>
  <fix>3d</fix>
</trkpt>
<trkpt lat="33.8103112" lon="-118.3944498">
  <ele>-39.69</ele>
  <time>2026-09-01T01:14:11Z</time>
  <course>267.7</course>
  <speed>0.23</speed>
  <fix>3d</fix>
</trkpt>
<trkpt lat="33.8103114" lon="-118.3944507">
  <ele>-40.154</ele>
  <time>2026-09-01T01:14:11Z</time>
  <course>238.76</course>
  <speed>0.25079872407968906</speed>
  <fix>3d</fix>
</trkpt>
<trkpt lat="33.8103112" lon="-118.3944503">
  <ele>-39.45</ele>
  <time>2026-09-01T01:14:11Z</time>
  <course>268.2</course>
  <speed>0.24</speed>
  <fix>3d</fix>
</trkpt>
<trkpt lat="33.8103114" lon="-118.394451">
  <ele>-40.027</ele>
  <time>2026-09-01T01:14:11Z</time>
  <course>239.88</course>
  <speed>0.25079872407968906</speed>
  <fix>3d</fix>
</trkpt>
<trkpt lat="33.8103112" lon="-118.3944503">
  <ele>-39.45</ele>
  <time>2026-09-01T01:14:11Z</time>
  <course>268.2</course>
  <speed>0.24</speed>
  <fix>3d</fix>
</trkpt>
<trkpt lat="33.8103114" lon="-118.3944512">
  <ele>-39.9</ele>
  <time>2026-09-01T01:14:11Z</time>
  <course>240.92</course>
  <speed>0.25079872407968906</speed>
  <fix>3d</fix>
</trkpt>
<trkpt lat="33.8103112" lon="-118.3944509">
  <ele>-39.2</ele>
  <time>2026-09-01T01:14:11Z</time>
  <course>268.78</course>
  <speed>0.24</speed>
  <fix>3d</fix>
</trkpt>
<trkpt lat="33.8103114" lon="-118.3944515">
  <ele>-39.773</ele>
  <time>2026-09-01T01:14:11Z</time>
  <course>241.83</course>
  <speed>0.260768096208106</speed>
  <fix>3d</fix>
</trkpt>
<trkpt lat="33.8103112" lon="-118.3944509">
  <ele>-39.2</ele>
  <time>2026-09-01T01:14:11Z</time>
  <course>268.78</course>
  <speed>0.24</speed>
  <fix>3d</fix>
</trkpt>
<trkpt lat="33.8103114" lon="-118.3944518">
  <ele>-39.647</ele>
  <time>2026-09-01T01:14:11Z</time>
  <course>242.64</course>
  <speed>0.260768096208106</speed>
  <fix>3d</fix>
</trkpt>
<trkpt lat="33.8103112" lon="-118.3944514">
  <ele>-38.96</ele>
  <time>2026-09-01T01:14:11Z</time>
  <course>269.22</course>
  <speed>0.25</speed>
  <fix>3d</fix>
</trkpt>
<trkpt lat="33.8103114" lon="-118.3944521">
  <ele>-39.52</ele>
  <time>2026-09-01T01:14:11Z</time>
  <course>243.31</course>
  <speed>0.260768096208106</speed>
  <fix>3d</fix>
</trkpt>
<trkpt lat="33.8103112" lon="-118.3944514">
  <ele>-38.96</ele>
  <time>2026-09-01T01:14:11Z</time>
  <course>269.22</course>
  <speed>0.25</speed>
  <fix>3d</fix>
</trkpt>
<trkpt lat="33.8103114" lon="-118.3944524">
  <ele>-39.393</ele>
  <time>2026-09-01T01:14:11Z</time>
  <course>243.9</course>
  <speed>0.260768096208106</speed>
  <fix>3d</fix>
</trkpt>
<trkpt lat="33.8103112" lon="-118.394452">
  <ele>-38.71</ele>
  <time>2026-09-01T01:14:11Z</time>
  <course>269.25</course>
  <speed>0.25</speed>
  <fix>3d</fix>
</trkpt>
<trkpt lat="33.8103114" lon="-118.3944527">
  <ele>-39.267</ele>
  <time>2026-09-01T01:14:11Z</time>
  <course>244.41</course>
  <speed>0.260768096208106</speed>
  <fix>3d</fix>
</trkpt>
<trkpt lat="33.8103112" lon="-118.394452">
  <ele>-38.71</ele>
  <time>2026-09-01T01:14:11Z</time>
  <course>269.25</course>
  <speed>0.25</speed>
  <fix>3d</fix>
</trkpt>
<trkpt lat="33.8103114" lon="-118.3944529">
  <ele>-39.142</ele>
  <time>2026-09-01T01:14:11Z</time>
  <course>244.87</course>
  <speed>0.2707397274136177</speed>
  <fix>3d</fix>
</trkpt>
<trkpt lat="33.8103112" lon="-118.3944526">
  <ele>-38.47</ele>
  <time>2026-09-01T01:14:11Z</time>
  <course>269.03</course>
  <speed>0.26</speed>
  <fix>3d</fix>
</trkpt>
<trkpt lat="33.8103114" lon="-118.3944532">
  <ele>-39.016</ele>
  <time>2026-09-01T01:14:11Z</time>
  <course>245.25</course>
  <speed>0.260768096208106</speed>
  <fix>3d</fix>
</trkpt>
<trkpt lat="33.8103112" lon="-118.3944526">
  <ele>-38.47</ele>
  <time>2026-09-01T01:14:11Z</time>
  <course>269.03</course>
  <speed>0.26</speed>
  <fix>3d</fix>
</trkpt>
<trkpt lat="33.8103114" lon="-118.3944535">
  <ele>-38.889</ele>
  <time>2026-09-01T01:14:11Z</time>
  <course>245.61</course>
  <speed>0.260768096208106</speed>
  <fix>3d</fix>
</trkpt>
<trkpt lat="33.8103112" lon="-118.3944531">
  <ele>-38.22</ele>
  <time>2026-09-01T01:14:11Z</time>
  <course>268.71</course>
  <speed>0.26</speed>
  <fix>3d</fix>
</trkpt>
<trkpt lat="33.8103114" lon="-118.3944538">
  <ele>-38.763</ele>
  <time>2026-09-01T01:14:11Z</time>
  <course>245.91</course>
  <speed>0.260768096208106</speed>
  <fix>3d</fix>
</trkpt>
<trkpt lat="33.8103112" lon="-118.3944531">
  <ele>-38.22</ele>
  <time>2026-09-01T01:14:11Z</time>
  <course>268.71</course>
  <speed>0.26</speed>
  <fix>3d</fix>
</trkpt>
<trkpt lat="33.8103114" lon="-118.3944541">
  <ele>-38.635</ele>
  <time>2026-09-01T01:14:11Z</time>
  <course>246.21</course>
  <speed>0.260768096208106</speed>
  <fix>3d</fix>
</trkpt>
<trkpt lat="33.8103112" lon="-118.3944536">
  <ele>-37.98</ele>
  <time>2026-09-01T01:14:11Z</time>
  <course>268.4</course>
  <speed>0.26</speed>
  <fix>3d</fix>
</trkpt>
<trkpt lat="33.8103114" lon="-118.3944544">
  <ele>-38.509</ele>
  <time>2026-09-01T01:14:11Z</time>
  <course>246.46</course>
  <speed>0.260768096208106</speed>
  <fix>3d</fix>
</trkpt>
<trkpt lat="33.8103112" lon="-118.3944536">
  <ele>-37.98</ele>
  <time>2026-09-01T01:14:11Z</time>
  <course>268.4</course>
  <speed>0.26</speed>
  <fix>3d</fix>
</trkpt>
<trkpt lat="33.8103114" lon="-118.3944547">
  <ele>-38.384</ele>
  <time>2026-09-01T01:14:11Z</time>
  <course>246.74</course>
  <speed>0.260768096208106</speed>
  <fix>3d</fix>
</trkpt>
<trkpt lat="33.8103112" lon="-118.3944543">
  <ele>-37.73</ele>
  <time>2026-09-01T01:14:11Z</time>
  <course>268.17</course>
  <speed>0.26</speed>
  <fix>3d</fix>
</trkpt>
<trkpt lat="33.8103114" lon="-118.3944549">
  <ele>-38.259</ele>
  <time>2026-09-01T01:14:11Z</time>
  <course>246.98</course>
  <speed>0.260768096208106</speed>
  <fix>3d</fix>
</trkpt>
<trkpt lat="33.8103112" lon="-118.3944543">
  <ele>-37.73</ele>
  <time>2026-09-01T01:14:11Z</time>
  <course>268.17</course>
  <speed>0.26</speed>
  <fix>3d</fix>
</trkpt>
<trkpt lat="33.8103114" lon="-118.3944552">
  <ele>-38.135</ele>
  <time>2026-09-01T01:14:11Z</time>
  <course>247.21</course>
  <speed>0.260768096208106</speed>
  <fix>3d</fix>
</trkpt>
<trkpt lat="33.8103112" lon="-118.3944548">
  <ele>-37.48</ele>
  <time>2026-09-01T01:14:11Z</time>
  <course>267.93</course>
  <speed>0.26</speed>
  <fix>3d</fix>
</trkpt>
<trkpt lat="33.8103114" lon="-118.3944555">
  <ele>-38.011</ele>
  <time>2026-09-01T01:14:11Z</time>
  <course>247.38</course>
  <speed>0.260768096208106</speed>
  <fix>3d</fix>
</trkpt>
<trkpt lat="33.8103112" lon="-118.3944548">
  <ele>-37.48</ele>
  <time>2026-09-01T01:14:11Z</time>
  <course>267.93</course>
  <speed>0.26</speed>
  <fix>3d</fix>
</trkpt>
<trkpt lat="33.8103114" lon="-118.3944558">
  <ele>-37.886</ele>
  <time>2026-09-01T01:14:11Z</time>
  <course>247.54</course>
  <speed>0.25079872407968906</speed>
  <fix>3d</fix>
</trkpt>
<trkpt lat="33.8103112" lon="-118.3944554">
  <ele>-37.24</ele>
  <time>2026-09-01T01:14:11Z</time>
  <course>267.62</course>
  <speed>0.25</speed>
  <fix>3d</fix>
</trkpt>
<trkpt lat="33.8103114" lon="-118.394456">
  <ele>-37.762</ele>
  <time>2026-09-01T01:14:11Z</time>
  <course>247.66</course>
  <speed>0.25079872407968906</speed>
  <fix>3d</fix>
</trkpt>
<trkpt lat="33.8103112" lon="-118.3944554">
  <ele>-37.24</ele>
  <time>2026-09-01T01:14:11Z</time>
  <course>267.62</course>
  <speed>0.25</speed>
  <fix>3d</fix>
</trkpt>
<trkpt lat="33.8103114" lon="-118.3944563">
  <ele>-37.638</ele>
  <time>2026-09-01T01:14:11Z</time>
  <course>247.78</course>
  <speed>0.25079872407968906</speed>
  <fix>3d</fix>
</trkpt>
<trkpt lat="33.8103112" lon="-118.394456">
  <ele>-37.0</ele>
  <time>2026-09-01T01:14:11Z</time>
  <course>267.31</course>
  <speed>0.25</speed>
  <fix>3d</fix>
</trkpt>
<trkpt lat="33.8103114" lon="-118.3944566">
  <ele>-37.514</ele>
  <time>2026-09-01T01:14:11Z</time>
  <course>247.86</course>
  <speed>0.25079872407968906</speed>
  <fix>3d</fix>
</trkpt>
<trkpt lat="33.8103112" lon="-118.394456">
  <ele>-37.0</ele>
  <time>2026-09-01T01:14:11Z</time>
  <course>267.31</course>
  <speed>0.25</speed>
  <fix>3d</fix>
</trkpt>
<trkpt lat="33.8103114" lon="-118.3944569">
  <ele>-37.39</ele>
  <time>2026-09-01T01:14:11Z</time>
  <course>247.94</course>
  <speed>0.24083189157584592</speed>
  <fix>3d</fix>
</trkpt>
<trkpt lat="33.8103111" lon="-118.3944565">
  <ele>-36.75</ele>
  <time>2026-09-01T01:14:11Z</time>
  <course>266.99</course>
  <speed>0.25</speed>
  <fix>3d</fix>
</trkpt>
<trkpt lat="33.8103114" lon="-118.3944571">
  <ele>-37.266</ele>
  <time>2026-09-01T01:14:11Z</time>
  <course>247.97</course>
  <speed>0.24186773244895649</speed>
  <fix>3d</fix>
</trkpt>
<trkpt lat="33.8103111" lon="-118.3944565">
  <ele>-36.75</ele>
  <time>2026-09-01T01:14:11Z</time>
  <course>266.99</course>
  <speed>0.25</speed>
  <fix>3d</fix>
</trkpt>
<trkpt lat="33.8103114" lon="-118.3944574">
  <ele>-37.142</ele>
  <time>2026-09-01T01:14:11Z</time>
  <course>248.08</course>
  <speed>0.24186773244895649</speed>
  <fix>3d</fix>
</trkpt>
<trkpt lat="33.8103111" lon="-118.394457">
  <ele>-36.51</ele>
  <time>2026-09-01T01:14:11Z</time>
  <course>266.76</course>
  <speed>0.24</speed>
  <fix>3d</fix>
</trkpt>
<trkpt lat="33.8103114" lon="-118.3944576">
  <ele>-37.016</ele>
  <time>2026-09-01T01:14:11Z</time>
  <course>248.2</course>
  <speed>0.23194827009486402</speed>
  <fix>3d</fix>
</trkpt>
<trkpt lat="33.8103111" lon="-118.394457">
  <ele>-36.51</ele>
  <time>2026-09-01T01:14:11Z</time>
  <course>266.76</course>
  <speed>0.24</speed>
  <fix>3d</fix>
</trkpt>
<trkpt lat="33.8103114" lon="-118.3944579">
  <ele>-36.891</ele>
  <time>2026-09-01T01:14:11Z</time>
  <course>248.4</course>
  <speed>0.23194827009486402</speed>
  <fix>3d</fix>
</trkpt>
<trkpt lat="33.8103111" lon="-118.3944575">
  <ele>-36.26</ele>
  <time>2026-09-01T01:14:11Z</time>
  <course>266.8</course>
  <speed>0.23</speed>
  <fix>3d</fix>
</trkpt>
<trkpt lat="33.8103114" lon="-118.3944581">
  <ele>-36.765</ele>
  <time>2026-09-01T01:14:11Z</time>
  <course>248.6</course>
  <speed>0.2220360331117452</speed>
  <fix>3d</fix>
</trkpt>
<trkpt lat="33.8103111" lon="-118.3944575">
  <ele>-36.26</ele>
  <time>2026-09-01T01:14:11Z</time>
  <course>266.8</course>
  <speed>0.23</speed>
  <fix>3d</fix>
</trkpt>
<trkpt lat="33.8103114" lon="-118.3944584">
  <ele>-36.639</ele>
  <time>2026-09-01T01:14:11Z</time>
  <course>248.85</course>
  <speed>0.2220360331117452</speed>
  <fix>3d</fix>
</trkpt>
<trkpt lat="33.8103111" lon="-118.3944581">
  <ele>-36.02</ele>
  <time>2026-09-01T01:14:11Z</time>
  <course>267.02</course>
  <speed>0.23</speed>
  <fix>3d</fix>
</trkpt>
<trkpt lat="33.8103114" lon="-118.3944586">
  <ele>-36.514</ele>
  <time>2026-09-01T01:14:11Z</time>
  <course>249.06</course>
  <speed>0.2220360331117452</speed>
  <fix>3d</fix>
</trkpt>
<trkpt lat="33.8103111" lon="-118.3944581">
  <ele>-36.02</ele>
  <time>2026-09-01T01:14:11Z</time>
  <course>267.02</course>
  <speed>0.23</speed>
  <fix>3d</fix>
</trkpt>
<trkpt lat="33.8103114" lon="-118.3944589">
  <ele>-36.387</ele>
  <time>2026-09-01T01:14:11Z</time>
  <course>249.27</course>
  <speed>0.21213203435596426</speed>
  <fix>3d</fix>
</trkpt>
<trkpt lat="33.8103111" lon="-118.3944586">
  <ele>-35.77</ele>
  <time>2026-09-01T01:14:11Z</time>
  <course>267.21</course>
  <speed>0.22</speed>
  <fix>3d</fix>
</trkpt>
<trkpt lat="33.8103114" lon="-118.3944591">
  <ele>-36.259</ele>
  <time>2026-09-01T01:14:11Z</time>
  <course>249.41</course>
  <speed>0.21213203435596426</speed>
  <fix>3d</fix>
</trkpt>
<trkpt lat="33.8103111" lon="-118.3944586">
  <ele>-35.77</ele>
  <time>2026-09-01T01:14:11Z</time>
  <course>267.21</course>
  <speed>0.22</speed>
  <fix>3d</fix>
</trkpt>
<trkpt lat="33.8103114" lon="-118.3944593">
  <ele>-36.131</ele>
  <time>2026-09-01T01:14:11Z</time>
  <course>249.56</course>
  <speed>0.21213203435596426</speed>
  <fix>3d</fix>
</trkpt>
<trkpt lat="33.810311" lon="-118.394459">
  <ele>-35.53</ele>
  <time>2026-09-01T01:14:11Z</time>
  <course>267.31</course>
  <speed>0.21</speed>
  <fix>3d</fix>
</trkpt>
<trkpt lat="33.8103113" lon="-118.3944596">
  <ele>-36.003</ele>
  <time>2026-09-01T01:14:11Z</time>
  <course>249.67</course>
  <speed>0.21213203435596426</speed>
  <fix>3d</fix>
</trkpt>
<trkpt lat="33.810311" lon="-118.394459">
  <ele>-35.53</ele>
  <time>2026-09-01T01:14:11Z</time>
  <course>267.31</course>
  <speed>0.21</speed>
  <fix>3d</fix>
</trkpt>
<trkpt lat="33.8103113" lon="-118.3944598">
  <ele>-35.875</ele>
  <time>2026-09-01T01:14:11Z</time>
  <course>249.87</course>
  <speed>0.20223748416156684</speed>
  <fix>3d</fix>
</trkpt>
<trkpt lat="33.810311" lon="-118.3944595">
  <ele>-35.28</ele>
  <time>2026-09-01T01:14:11Z</time>
  <course>267.54</course>
  <speed>0.21</speed>
  <fix>3d</fix>
</trkpt>
<trkpt lat="33.8103113" lon="-118.39446">
  <ele>-35.747</ele>
  <time>2026-09-01T01:14:11Z</time>
  <course>250.13</course>
  <speed>0.20223748416156684</speed>
  <fix>3d</fix>
</trkpt>
<trkpt lat="33.810311" lon="-118.3944595">
  <ele>-35.28</ele>
  <time>2026-09-01T01:14:11Z</time>
  <course>267.54</course>
  <speed>0.21</speed>
  <fix>3d</fix>
</trkpt>
<trkpt lat="33.8103113" lon="-118.3944602">
  <ele>-35.619</ele>
  <time>2026-09-01T01:14:11Z</time>
  <course>250.48</course>
  <speed>0.20223748416156684</speed>
  <fix>3d</fix>
</trkpt>
<trkpt lat="33.810311" lon="-118.39446">
  <ele>-35.04</ele>
  <time>2026-09-01T01:14:11Z</time>
  <course>267.95</course>
  <speed>0.2</speed>
  <fix>3d</fix>
</trkpt>
<trkpt lat="33.8103113" lon="-118.3944604">
  <ele>-35.49</ele>
  <time>2026-09-01T01:14:11Z</time>
  <course>250.86</course>
  <speed>0.2039607805437114</speed>
  <fix>3d</fix>
</trkpt>
<trkpt lat="33.810311" lon="-118.39446">
  <ele>-35.04</ele>
  <time>2026-09-01T01:14:11Z</time>
  <course>267.95</course>
  <speed>0.2</speed>
  <fix>3d</fix>
</trkpt>
<trkpt lat="33.8103113" lon="-118.3944607">
  <ele>-35.362</ele>
  <time>2026-09-01T01:14:11Z</time>
  <course>251.28</course>
  <speed>0.2039607805437114</speed>
  <fix>3d</fix>
</trkpt>
<trkpt lat="33.810311" lon="-118.3944604">
  <ele>-34.79</ele>
  <time>2026-09-01T01:14:11Z</time>
  <course>268.36</course>
  <speed>0.2</speed>
  <fix>3d</fix>
</trkpt>
<trkpt lat="33.8103113" lon="-118.3944609">
  <ele>-35.235</ele>
  <time>2026-09-01T01:14:11Z</time>
  <course>251.71</course>
  <speed>0.194164878389476</speed>
  <fix>3d</fix>
</trkpt>
<trkpt lat="33.810311" lon="-118.3944604">
  <ele>-34.79</ele>
  <time>2026-09-01T01:14:11Z</time>
  <course>268.36</course>
  <speed>0.2</speed>
  <fix>3d</fix>
</trkpt>
<trkpt lat="33.8103113" lon="-118.3944611">
  <ele>-35.108</ele>
  <time>2026-09-01T01:14:11Z</time>
  <course>252.18</course>
  <speed>0.194164878389476</speed>
  <fix>3d</fix>
</trkpt>
<trkpt lat="33.810311" lon="-118.3944609">
  <ele>-34.55</ele>
  <time>2026-09-01T01:14:11Z</time>
  <course>268.81</course>
  <speed>0.2</speed>
  <fix>3d</fix>
</trkpt>
<trkpt lat="33.8103113" lon="-118.3944613">
  <ele>-34.982</ele>
  <time>2026-09-01T01:14:11Z</time>
  <course>252.63</course>
  <speed>0.194164878389476</speed>
  <fix>3d</fix>
</trkpt>
<trkpt lat="33.810311" lon="-118.3944609">
  <ele>-34.55</ele>
  <time>2026-09-01T01:14:11Z</time>
  <course>268.81</course>
  <speed>0.2</speed>
  <fix>3d</fix>
</trkpt>
<trkpt lat="33.8103113" lon="-118.3944615">
  <ele>-34.856</ele>
  <time>2026-09-01T01:14:11Z</time>
  <course>253.1</course>
  <speed>0.194164878389476</speed>
  <fix>3d</fix>
</trkpt>
<trkpt lat="33.810311" lon="-118.3944613">
  <ele>-34.3</ele>
  <time>2026-09-01T01:14:11Z</time>
  <course>269.2</course>
  <speed>0.2</speed>
  <fix>3d</fix>
</trkpt>
<trkpt lat="33.8103113" lon="-118.3944617">
  <ele>-34.73</ele>
  <time>2026-09-01T01:14:11Z</time>
  <course>253.56</course>
  <speed>0.194164878389476</speed>
  <fix>3d</fix>
</trkpt>
<trkpt lat="33.810311" lon="-118.3944613">
  <ele>-34.3</ele>
  <time>2026-09-01T01:14:11Z</time>
  <course>269.2</course>
  <speed>0.2</speed>
  <fix>3d</fix>
</trkpt>
<trkpt lat="33.8103113" lon="-118.394462">
  <ele>-34.603</ele>
  <time>2026-09-01T01:14:11Z</time>
  <course>254.03</course>
  <speed>0.194164878389476</speed>
  <fix>3d</fix>
</trkpt>
<trkpt lat="33.810311" lon="-118.3944617">
  <ele>-34.05</ele>
  <time>2026-09-01T01:14:11Z</time>
  <course>269.48</course>
  <speed>0.2</speed>
  <fix>3d</fix>
</trkpt>
<trkpt lat="33.8103113" lon="-118.3944622">
  <ele>-34.476</ele>
  <time>2026-09-01T01:14:11Z</time>
  <course>254.49</course>
  <speed>0.194164878389476</speed>
  <fix>3d</fix>
</trkpt>
<trkpt lat="33.810311" lon="-118.3944617">
  <ele>-34.05</ele>
  <time>2026-09-01T01:14:11Z</time>
  <course>269.48</course>
  <speed>0.2</speed>
  <fix>3d</fix>
</trkpt>
<trkpt lat="33.8103113" lon="-118.3944624">
  <ele>-34.35</ele>
  <time>2026-09-01T01:14:11Z</time>
  <course>254.96</course>
  <speed>0.194164878389476</speed>
  <fix>3d</fix>
</trkpt>
<trkpt lat="33.810311" lon="-118.3944622">
  <ele>-33.81</ele>
  <time>2026-09-01T01:14:11Z</time>
  <course>269.68</course>
  <speed>0.2</speed>
  <fix>3d</fix>
</trkpt>
<trkpt lat="33.8103113" lon="-118.3944626">
  <ele>-34.224</ele>
  <time>2026-09-01T01:14:11Z</time>
  <course>255.44</course>
  <speed>0.194164878389476</speed>
  <fix>3d</fix>
</trkpt>
<trkpt lat="33.810311" lon="-118.3944622">
  <ele>-33.81</ele>
  <time>2026-09-01T01:14:11Z</time>
  <course>269.68</course>
  <speed>0.2</speed>
  <fix>3d</fix>
</trkpt>
<trkpt lat="33.8103113" lon="-118.3944628">
  <ele>-34.097</ele>
  <time>2026-09-01T01:14:11Z</time>
  <course>255.93</course>
  <speed>0.2039607805437114</speed>
  <fix>3d</fix>
</trkpt>
<trkpt lat="33.810311" lon="-118.3944626">
  <ele>-33.57</ele>
  <time>2026-09-01T01:14:11Z</time>
  <course>269.83</course>
  <speed>0.2</speed>
  <fix>3d</fix>
</trkpt>
<trkpt lat="33.8103113" lon="-118.394463">
  <ele>-33.97</ele>
  <time>2026-09-01T01:14:11Z</time>
  <course>256.42</course>
  <speed>0.2039607805437114</speed>
  <fix>3d</fix>
</trkpt>
<trkpt lat="33.810311" lon="-118.3944626">
  <ele>-33.57</ele>
  <time>2026-09-01T01:14:11Z</time>
  <course>269.83</course>
  <speed>0.2</speed>
  <fix>3d</fix>
</trkpt>
<trkpt lat="33.8103113" lon="-118.3944633">
  <ele>-33.843</ele>
  <time>2026-09-01T01:14:11Z</time>
  <course>256.92</course>
  <speed>0.2039607805437114</speed>
  <fix>3d</fix>
</trkpt>
<trkpt lat="33.810311" lon="-118.3944631">
  <ele>-33.32</ele>
  <time>2026-09-01T01:14:11Z</time>
  <course>269.96</course>
  <speed>0.2</speed>
  <fix>3d</fix>
</trkpt>
<trkpt lat="33.8103113" lon="-118.3944635">
  <ele>-33.718</ele>
  <time>2026-09-01T01:14:11Z</time>
  <course>257.43</course>
  <speed>0.2039607805437114</speed>
  <fix>3d</fix>
</trkpt>
<trkpt lat="33.810311" lon="-118.3944631">
  <ele>-33.32</ele>
  <time>2026-09-01T01:14:11Z</time>
  <course>269.96</course>
  <speed>0.2</speed>
  <fix>3d</fix>
</trkpt>
<trkpt lat="33.8103113" lon="-118.3944637">
  <ele>-33.593</ele>
  <time>2026-09-01T01:14:11Z</time>
  <course>257.93</course>
  <speed>0.2039607805437114</speed>
  <fix>3d</fix>
</trkpt>
<trkpt lat="33.810311" lon="-118.3944635">
  <ele>-33.08</ele>
  <time>2026-09-01T01:14:11Z</time>
  <course>270.08</course>
  <speed>0.21</speed>
  <fix>3d</fix>
</trkpt>
<trkpt lat="33.8103113" lon="-118.3944639">
  <ele>-33.467</ele>
  <time>2026-09-01T01:14:11Z</time>
  <course>258.44</course>
  <speed>0.2039607805437114</speed>
  <fix>3d</fix>
</trkpt>
<trkpt lat="33.810311" lon="-118.3944635">
  <ele>-33.08</ele>
  <time>2026-09-01T01:14:11Z</time>
  <course>270.08</course>
  <speed>0.21</speed>
  <fix>3d</fix>
</trkpt>
<trkpt lat="33.8103113" lon="-118.3944642">
  <ele>-33.342</ele>
  <time>2026-09-01T01:14:11Z</time>
  <course>258.94</course>
  <speed>0.2039607805437114</speed>
  <fix>3d</fix>
</trkpt>
<trkpt lat="33.810311" lon="-118.394464">
  <ele>-32.83</ele>
  <time>2026-09-01T01:14:11Z</time>
  <course>270.22</course>
  <speed>0.21</speed>
  <fix>3d</fix>
</trkpt>
<trkpt lat="33.8103113" lon="-118.3944644">
  <ele>-33.217</ele>
  <time>2026-09-01T01:14:11Z</time>
  <course>259.45</course>
  <speed>0.21377558326431947</speed>
  <fix>3d</fix>
</trkpt>
<trkpt lat="33.810311" lon="-118.394464">
  <ele>-32.83</ele>
  <time>2026-09-01T01:14:11Z</time>
  <course>270.22</course>
  <speed>0.21</speed>
  <fix>3d</fix>
</trkpt>
<trkpt lat="33.8103113" lon="-118.3944646">
  <ele>-33.094</ele>
  <time>2026-09-01T01:14:11Z</time>
  <course>259.94</course>
  <speed>0.21377558326431947</speed>
  <fix>3d</fix>
</trkpt>
<trkpt lat="33.810311" lon="-118.3944644">
  <ele>-32.59</ele>
  <time>2026-09-01T01:14:11Z</time>
  <course>270.39</course>
  <speed>0.21</speed>
  <fix>3d</fix>
</trkpt>
<trkpt lat="33.8103113" lon="-118.3944649">
  <ele>-32.97</ele>
  <time>2026-09-01T01:14:11Z</time>
  <course>260.43</course>
  <speed>0.21377558326431947</speed>
  <fix>3d</fix>
</trkpt>
<trkpt lat="33.810311" lon="-118.3944644">
  <ele>-32.59</ele>
  <time>2026-09-01T01:14:11Z</time>
  <course>270.39</course>
  <speed>0.21</speed>
  <fix>3d</fix>
</trkpt>
<trkpt lat="33.8103113" lon="-118.3944651">
  <ele>-32.847</ele>
  <time>2026-09-01T01:14:11Z</time>
  <course>260.92</course>
  <speed>0.21377558326431947</speed>
  <fix>3d</fix>
</trkpt>
<trkpt lat="33.810311" lon="-118.3944649">
  <ele>-32.34</ele>
  <time>2026-09-01T01:14:11Z</time>
  <course>270.58</course>
  <speed>0.22</speed>
  <fix>3d</fix>
</trkpt>
<trkpt lat="33.8103113" lon="-118.3944654">
  <ele>-32.723</ele>
  <time>2026-09-01T01:14:11Z</time>
  <course>261.4</course>
  <speed>0.21377558326431947</speed>
  <fix>3d</fix>
</trkpt>
<trkpt lat="33.810311" lon="-118.3944649">
  <ele>-32.34</ele>
  <time>2026-09-01T01:14:11Z</time>
  <course>270.58</course>
  <speed>0.22</speed>
  <fix>3d</fix>
</trkpt>
<trkpt lat="33.8103113" lon="-118.3944656">
  <ele>-32.598</ele>
  <time>2026-09-01T01:14:11Z</time>
  <course>261.87</course>
  <speed>0.21377558326431947</speed>
  <fix>3d</fix>
</trkpt>
<trkpt lat="33.810311" lon="-118.3944654">
  <ele>-32.09</ele>
  <time>2026-09-01T01:14:11Z</time>
  <course>270.74</course>
  <speed>0.22</speed>
  <fix>3d</fix>
</trkpt>
<trkpt lat="33.8103113" lon="-118.3944658">
  <ele>-32.474</ele>
  <time>2026-09-01T01:14:11Z</time>
  <course>262.32</course>
  <speed>0.223606797749979</speed>
  <fix>3d</fix>
</trkpt>
<trkpt lat="33.810311" lon="-118.3944654">
  <ele>-32.09</ele>
  <time>2026-09-01T01:14:11Z</time>
  <course>270.74</course>
  <speed>0.22</speed>
  <fix>3d</fix>
</trkpt>
<trkpt lat="33.8103113" lon="-118.3944661">
  <ele>-32.35</ele>
  <time>2026-09-01T01:14:11Z</time>
  <course>262.77</course>
  <speed>0.223606797749979</speed>
  <fix>3d</fix>
</trkpt>
<trkpt lat="33.810311" lon="-118.3944659">
  <ele>-31.85</ele>
  <time>2026-09-01T01:14:11Z</time>
  <course>270.91</course>
  <speed>0.23</speed>
  <fix>3d</fix>
</trkpt>
<trkpt lat="33.8103113" lon="-118.3944663">
  <ele>-32.226</ele>
  <time>2026-09-01T01:14:11Z</time>
  <course>263.21</course>
  <speed>0.223606797749979</speed>
  <fix>3d</fix>
</trkpt>
<trkpt lat="33.810311" lon="-118.3944659">
  <ele>-31.85</ele>
  <time>2026-09-01T01:14:11Z</time>
  <course>270.91</course>
  <speed>0.23</speed>
  <fix>3d</fix>
</trkpt>
<trkpt lat="33.8103113" lon="-118.3944666">
  <ele>-32.101</ele>
  <time>2026-09-01T01:14:11Z</time>
  <course>263.64</course>
  <speed>0.223606797749979</speed>
  <fix>3d</fix>
</trkpt>
<trkpt lat="33.810311" lon="-118.3944664">
  <ele>-31.61</ele>
  <time>2026-09-01T01:14:11Z</time>
  <course>271.12</course>
  <speed>0.23</speed>
  <fix>3d</fix>
</trkpt>
<trkpt lat="33.8103113" lon="-118.3944668">
  <ele>-31.976</ele>
  <time>2026-09-01T01:14:11Z</time>
  <course>264.06</course>
  <speed>0.223606797749979</speed>
  <fix>3d</fix>
</trkpt>
<trkpt lat="33.810311" lon="-118.3944664">
  <ele>-31.61</ele>
  <time>2026-09-01T01:14:11Z</time>
  <course>271.12</course>
  <speed>0.23</speed>
  <fix>3d</fix>
</trkpt>
<trkpt lat="33.8103113" lon="-118.3944671">
  <ele>-31.849</ele>
  <time>2026-09-01T01:14:11Z</time>
  <course>264.46</course>
  <speed>0.223606797749979</speed>
  <fix>3d</fix>
</trkpt>
<trkpt lat="33.810311" lon="-118.3944669">
  <ele>-31.36</ele>
  <time>2026-09-01T01:14:11Z</time>
  <course>271.35</course>
  <speed>0.23</speed>
  <fix>3d</fix>
</trkpt>
<trkpt lat="33.8103113" lon="-118.3944673">
  <ele>-31.723</ele>
  <time>2026-09-01T01:14:11Z</time>
  <course>264.85</course>
  <speed>0.223606797749979</speed>
  <fix>3d</fix>
</trkpt>
<trkpt lat="33.810311" lon="-118.3944669">
  <ele>-31.36</ele>
  <time>2026-09-01T01:14:11Z</time>
  <course>271.35</course>
  <speed>0.23</speed>
  <fix>3d</fix>
</trkpt>
<trkpt lat="33.8103113" lon="-118.3944676">
  <ele>-31.597</ele>
  <time>2026-09-01T01:14:11Z</time>
  <course>265.23</course>
  <speed>0.223606797749979</speed>
  <fix>3d</fix>
</trkpt>
<trkpt lat="33.810311" lon="-118.3944674">
  <ele>-31.11</ele>
  <time>2026-09-01T01:14:11Z</time>
  <course>271.6</course>
  <speed>0.23</speed>
  <fix>3d</fix>
</trkpt>
<trkpt lat="33.8103113" lon="-118.3944679">
  <ele>-31.47</ele>
  <time>2026-09-01T01:14:11Z</time>
  <course>265.6</course>
  <speed>0.223606797749979</speed>
  <fix>3d</fix>
</trkpt>
<trkpt lat="33.810311" lon="-118.3944674">
  <ele>-31.11</ele>
  <time>2026-09-01T01:14:11Z</time>
  <course>271.6</course>
  <speed>0.23</speed>
  <fix>3d</fix>
</trkpt>
<trkpt lat="33.8103113" lon="-118.3944681">
  <ele>-31.343</ele>
  <time>2026-09-01T01:14:11Z</time>
  <course>265.97</course>
  <speed>0.223606797749979</speed>
  <fix>3d</fix>
</trkpt>
<trkpt lat="33.810311" lon="-118.3944679">
  <ele>-30.87</ele>
  <time>2026-09-01T01:14:11Z</time>
  <course>271.87</course>
  <speed>0.23</speed>
  <fix>3d</fix>
</trkpt>
<trkpt lat="33.8103113" lon="-118.3944684">
  <ele>-31.216</ele>
  <time>2026-09-01T01:14:11Z</time>
  <course>266.33</course>
  <speed>0.223606797749979</speed>
  <fix>3d</fix>
</trkpt>
<trkpt lat="33.810311" lon="-118.3944679">
  <ele>-30.87</ele>
  <time>2026-09-01T01:14:11Z</time>
  <course>271.87</course>
  <speed>0.23</speed>
  <fix>3d</fix>
</trkpt>
<trkpt lat="33.8103113" lon="-118.3944686">
  <ele>-31.088</ele>
  <time>2026-09-01T01:14:11Z</time>
  <course>266.69</course>
  <speed>0.223606797749979</speed>
  <fix>3d</fix>
</trkpt>
<trkpt lat="33.810311" lon="-118.3944684">
  <ele>-30.63</ele>
  <time>2026-09-01T01:14:11Z</time>
  <course>272.17</course>
  <speed>0.23</speed>
  <fix>3d</fix>
</trkpt>
<trkpt lat="33.8103113" lon="-118.3944689">
  <ele>-30.959</ele>
  <time>2026-09-01T01:14:11Z</time>
  <course>267.04</course>
  <speed>0.223606797749979</speed>
  <fix>3d</fix>
</trkpt>
<trkpt lat="33.810311" lon="-118.3944684">
  <ele>-30.63</ele>
  <time>2026-09-01T01:14:11Z</time>
  <course>272.17</course>
  <speed>0.23</speed>
  <fix>3d</fix>
</trkpt>
<trkpt lat="33.8103114" lon="-118.3944691">
  <ele>-30.83</ele>
  <time>2026-09-01T01:14:11Z</time>
  <course>267.39</course>
  <speed>0.223606797749979</speed>
  <fix>3d</fix>
</trkpt>
<trkpt lat="33.810311" lon="-118.3944689">
  <ele>-30.38</ele>
  <time>2026-09-01T01:14:11Z</time>
  <course>272.47</course>
  <speed>0.24</speed>
  <fix>3d</fix>
</trkpt>
<trkpt lat="33.8103114" lon="-118.3944694">
  <ele>-30.702</ele>
  <time>2026-09-01T01:14:11Z</time>
  <course>267.73</course>
  <speed>0.223606797749979</speed>
  <fix>3d</fix>
</trkpt>
<trkpt lat="33.810311" lon="-118.3944689">
  <ele>-30.38</ele>
  <time>2026-09-01T01:14:11Z</time>
  <course>272.47</course>
  <speed>0.24</speed>
  <fix>3d</fix>
</trkpt>
<trkpt lat="33.8103114" lon="-118.3944696">
  <ele>-30.576</ele>
  <time>2026-09-01T01:14:11Z</time>
  <course>268.07</course>
  <speed>0.223606797749979</speed>
  <fix>3d</fix>
</trkpt>
<trkpt lat="33.810311" lon="-118.3944695">
  <ele>-30.14</ele>
  <time>2026-09-01T01:14:11Z</time>
  <course>272.8</course>
  <speed>0.24</speed>
  <fix>3d</fix>
</trkpt>
<trkpt lat="33.8103114" lon="-118.3944699">
  <ele>-30.453</ele>
  <time>2026-09-01T01:14:11Z</time>
  <course>268.4</course>
  <speed>0.223606797749979</speed>
  <fix>3d</fix>
</trkpt>
<trkpt lat="33.810311" lon="-118.3944695">
  <ele>-30.14</ele>
  <time>2026-09-01T01:14:11Z</time>
  <course>272.8</course>
  <speed>0.24</speed>
  <fix>3d</fix>
</trkpt>
<trkpt lat="33.8103114" lon="-118.3944701">
  <ele>-30.331</ele>
  <time>2026-09-01T01:14:11Z</time>
  <course>268.73</course>
  <speed>0.223606797749979</speed>
  <fix>3d</fix>
</trkpt>
<trkpt lat="33.810311" lon="-118.39447">
  <ele>-29.89</ele>
  <time>2026-09-01T01:14:11Z</time>
  <course>273.12</course>
  <speed>0.24</speed>
  <fix>3d</fix>
</trkpt>
<trkpt lat="33.8103114" lon="-118.3944704">
  <ele>-30.211</ele>
  <time>2026-09-01T01:14:11Z</time>
  <course>269.04</course>
  <speed>0.223606797749979</speed>
  <fix>3d</fix>
</trkpt>
<trkpt lat="33.810311" lon="-118.39447">
  <ele>-29.89</ele>
  <time>2026-09-01T01:14:11Z</time>
  <course>273.12</course>
  <speed>0.24</speed>
  <fix>3d</fix>
</trkpt>
<trkpt lat="33.8103114" lon="-118.3944707">
  <ele>-30.089</ele>
  <time>2026-09-01T01:14:11Z</time>
  <course>269.35</course>
  <speed>0.223606797749979</speed>
  <fix>3d</fix>
</trkpt>
<trkpt lat="33.810311" lon="-118.3944705">
  <ele>-29.65</ele>
  <time>2026-09-01T01:14:11Z</time>
  <course>273.43</course>
  <speed>0.24</speed>
  <fix>3d</fix>
</trkpt>
<trkpt lat="33.8103114" lon="-118.3944709">
  <ele>-29.967</ele>
  <time>2026-09-01T01:14:11Z</time>
  <course>269.66</course>
  <speed>0.21377558326431947</speed>
  <fix>3d</fix>
</trkpt>
<trkpt lat="33.810311" lon="-118.3944705">
  <ele>-29.65</ele>
  <time>2026-09-01T01:14:11Z</time>
  <course>273.43</course>
  <speed>0.24</speed>
  <fix>3d</fix>
</trkpt>
<trkpt lat="33.8103114" lon="-118.3944712">
  <ele>-29.844</ele>
  <time>2026-09-01T01:14:11Z</time>
  <course>269.98</course>
  <speed>0.21377558326431947</speed>
  <fix>3d</fix>
</trkpt>
<trkpt lat="33.810311" lon="-118.394471">
  <ele>-29.4</ele>
  <time>2026-09-01T01:14:11Z</time>
  <course>273.8</course>
  <speed>0.23</speed>
  <fix>3d</fix>
</trkpt>
<trkpt lat="33.8103114" lon="-118.3944714">
  <ele>-29.722</ele>
  <time>2026-09-01T01:14:11Z</time>
  <course>270.29</course>
  <speed>0.21377558326431947</speed>
  <fix>3d</fix>
</trkpt>
<trkpt lat="33.810311" lon="-118.394471">
  <ele>-29.4</ele>
  <time>2026-09-01T01:14:11Z</time>
  <course>273.8</course>
  <speed>0.23</speed>
  <fix>3d</fix>
</trkpt>
<trkpt lat="33.8103114" lon="-118.3944717">
  <ele>-29.6</ele>
  <time>2026-09-01T01:14:11Z</time>
  <course>270.61</course>
  <speed>0.21377558326431947</speed>
  <fix>3d</fix>
</trkpt>
<trkpt lat="33.8103111" lon="-118.3944715">
  <ele>-29.16</ele>
  <time>2026-09-01T01:14:11Z</time>
  <course>274.21</course>
  <speed>0.23</speed>
  <fix>3d</fix>
</trkpt>
<trkpt lat="33.8103114" lon="-118.3944719">
  <ele>-29.476</ele>
  <time>2026-09-01T01:14:11Z</time>
  <course>270.92</course>
  <speed>0.21377558326431947</speed>
  <fix>3d</fix>
</trkpt>
<trkpt lat="33.8103111" lon="-118.3944715">
  <ele>-29.16</ele>
  <time>2026-09-01T01:14:11Z</time>
  <course>274.21</course>
  <speed>0.23</speed>
  <fix>3d</fix>
</trkpt>
<trkpt lat="33.8103114" lon="-118.3944722">
  <ele>-29.353</ele>
  <time>2026-09-01T01:14:11Z</time>
  <course>271.18</course>
  <speed>0.21377558326431947</speed>
  <fix>3d</fix>
</trkpt>
<trkpt lat="33.8103111" lon="-118.3944721">
  <ele>-28.91</ele>
  <time>2026-09-01T01:14:11Z</time>
  <course>274.48</course>
  <speed>0.23</speed>
  <fix>3d</fix>
</trkpt>
<trkpt lat="33.8103114" lon="-118.3944724">
  <ele>-29.23</ele>
  <time>2026-09-01T01:14:11Z</time>
  <course>271.34</course>
  <speed>0.21377558326431947</speed>
  <fix>3d</fix>
</trkpt>
<trkpt lat="33.8103111" lon="-118.3944721">
  <ele>-28.91</ele>
  <time>2026-09-01T01:14:11Z</time>
  <course>274.48</course>
  <speed>0.23</speed>
  <fix>3d</fix>
</trkpt>
<trkpt lat="33.8103114" lon="-118.3944727">
  <ele>-29.107</ele>
  <time>2026-09-01T01:14:11Z</time>
  <course>271.46</course>
  <speed>0.2039607805437114</speed>
  <fix>3d</fix>
</trkpt>
<trkpt lat="33.8103111" lon="-118.3944726">
  <ele>-28.67</ele>
  <time>2026-09-01T01:14:11Z</time>
  <course>274.5</course>
  <speed>0.23</speed>
  <fix>3d</fix>
</trkpt>
<trkpt lat="33.8103114" lon="-118.3944729">
  <ele>-28.984</ele>
  <time>2026-09-01T01:14:11Z</time>
  <course>271.53</course>
  <speed>0.2039607805437114</speed>
  <fix>3d</fix>
</trkpt>
<trkpt lat="33.8103111" lon="-118.3944726">
  <ele>-28.67</ele>
  <time>2026-09-01T01:14:11Z</time>
  <course>274.5</course>
  <speed>0.23</speed>
  <fix>3d</fix>
</trkpt>
<trkpt lat="33.8103114" lon="-118.3944731">
  <ele>-28.861</ele>
  <time>2026-09-01T01:14:11Z</time>
  <course>271.6</course>
  <speed>0.2039607805437114</speed>
  <fix>3d</fix>
</trkpt>
<trkpt lat="33.8103112" lon="-118.3944731">
  <ele>-28.42</ele>
  <time>2026-09-01T01:14:11Z</time>
  <course>274.56</course>
  <speed>0.22</speed>
  <fix>3d</fix>
</trkpt>
<trkpt lat="33.8103114" lon="-118.3944734">
  <ele>-28.738</ele>
  <time>2026-09-01T01:14:11Z</time>
  <course>271.68</course>
  <speed>0.194164878389476</speed>
  <fix>3d</fix>
</trkpt>
<trkpt lat="33.8103112" lon="-118.3944731">
  <ele>-28.42</ele>
  <time>2026-09-01T01:14:11Z</time>
  <course>274.56</course>
  <speed>0.22</speed>
  <fix>3d</fix>
</trkpt>
<trkpt lat="33.8103114" lon="-118.3944736">
  <ele>-28.614</ele>
  <time>2026-09-01T01:14:11Z</time>
  <course>271.73</course>
  <speed>0.194164878389476</speed>
  <fix>3d</fix>
</trkpt>
<trkpt lat="33.8103112" lon="-118.3944735">
  <ele>-28.18</ele>
  <time>2026-09-01T01:14:11Z</time>
  <course>274.65</course>
  <speed>0.22</speed>
  <fix>3d</fix>
</trkpt>
<trkpt lat="33.8103115" lon="-118.3944738">
  <ele>-28.491</ele>
  <time>2026-09-01T01:14:11Z</time>
  <course>271.71</course>
  <speed>0.194164878389476</speed>
  <fix>3d</fix>
</trkpt>
<trkpt lat="33.8103112" lon="-118.3944735">
  <ele>-28.18</ele>
  <time>2026-09-01T01:14:11Z</time>
  <course>274.65</course>
  <speed>0.22</speed>
  <fix>3d</fix>
</trkpt>
<trkpt lat="33.8103115" lon="-118.3944741">
  <ele>-28.367</ele>
  <time>2026-09-01T01:14:11Z</time>
  <course>271.65</course>
  <speed>0.18439088914585774</speed>
  <fix>3d</fix>
</trkpt>
<trkpt lat="33.8103112" lon="-118.394474">
  <ele>-27.93</ele>
  <time>2026-09-01T01:14:11Z</time>
  <course>274.59</course>
  <speed>0.21</speed>
  <fix>3d</fix>
</trkpt>
<trkpt lat="33.8103115" lon="-118.3944743">
  <ele>-28.242</ele>
  <time>2026-09-01T01:14:11Z</time>
  <course>271.57</course>
  <speed>0.18439088914585774</speed>
  <fix>3d</fix>
</trkpt>
<trkpt lat="33.8103112" lon="-118.394474">
  <ele>-27.93</ele>
  <time>2026-09-01T01:14:11Z</time>
  <course>274.59</course>
  <speed>0.21</speed>
  <fix>3d</fix>
</trkpt>
<trkpt lat="33.8103115" lon="-118.3944745">
  <ele>-28.118</ele>
  <time>2026-09-01T01:14:11Z</time>
  <course>271.5</course>
  <speed>0.18439088914585774</speed>
  <fix>3d</fix>
</trkpt>
<trkpt lat="33.8103112" lon="-118.3944745">
  <ele>-27.68</ele>
  <time>2026-09-01T01:14:11Z</time>
  <course>274.52</course>
  <speed>0.2</speed>
  <fix>3d</fix>
</trkpt>
<trkpt lat="33.8103115" lon="-118.3944747">
  <ele>-27.993</ele>
  <time>2026-09-01T01:14:11Z</time>
  <course>271.45</course>
  <speed>0.17464249196572978</speed>
  <fix>3d</fix>
</trkpt>
<trkpt lat="33.8103112" lon="-118.3944745">
  <ele>-27.68</ele>
  <time>2026-09-01T01:14:11Z</time>
  <course>274.52</course>
  <speed>0.2</speed>
  <fix>3d</fix>
</trkpt>
<trkpt lat="33.8103115" lon="-118.3944749">
  <ele>-27.868</ele>
  <time>2026-09-01T01:14:11Z</time>
  <course>271.45</course>
  <speed>0.17464249196572978</speed>
  <fix>3d</fix>
</trkpt>
<trkpt lat="33.8103112" lon="-118.3944749">
  <ele>-27.44</ele>
  <time>2026-09-01T01:14:11Z</time>
  <course>274.71</course>
  <speed>0.19</speed>
  <fix>3d</fix>
</trkpt>
<trkpt lat="33.8103115" lon="-118.3944751">
  <ele>-27.744</ele>
  <time>2026-09-01T01:14:11Z</time>
  <course>271.49</course>
  <speed>0.1649242250247064</speed>
  <fix>3d</fix>
</trkpt>
<trkpt lat="33.8103112" lon="-118.3944749">
  <ele>-27.44</ele>
  <time>2026-09-01T01:14:11Z</time>
  <course>274.71</course>
  <speed>0.19</speed>
  <fix>3d</fix>
</trkpt>
<trkpt lat="33.8103115" lon="-118.3944753">
  <ele>-27.618</ele>
  <time>2026-09-01T01:14:11Z</time>
  <course>271.57</course>
  <speed>0.1649242250247064</speed>
  <fix>3d</fix>
</trkpt>
<trkpt lat="33.8103112" lon="-118.3944754">
  <ele>-27.2</ele>
  <time>2026-09-01T01:14:11Z</time>
  <course>275.16</course>
  <speed>0.19</speed>
  <fix>3d</fix>
</trkpt>
<trkpt lat="33.8103115" lon="-118.3944755">
  <ele>-27.491</ele>
  <time>2026-09-01T01:14:11Z</time>
  <course>271.68</course>
  <speed>0.1649242250247064</speed>
  <fix>3d</fix>
</trkpt>
<trkpt lat="33.8103112" lon="-118.3944754">
  <ele>-27.2</ele>
  <time>2026-09-01T01:14:11Z</time>
  <course>275.16</course>
  <speed>0.19</speed>
  <fix>3d</fix>
</trkpt>
<trkpt lat="33.8103115" lon="-118.3944757">
  <ele>-27.364</ele>
  <time>2026-09-01T01:14:11Z</time>
  <course>271.82</course>
  <speed>0.15524174696260024</speed>
  <fix>3d</fix>
</trkpt>
<trkpt lat="33.8103113" lon="-118.3944758">
  <ele>-26.95</ele>
  <time>2026-09-01T01:14:11Z</time>
  <course>275.66</course>
  <speed>0.18</speed>
  <fix>3d</fix>
</trkpt>
<trkpt lat="33.8103115" lon="-118.3944759">
  <ele>-27.238</ele>
  <time>2026-09-01T01:14:11Z</time>
  <course>271.96</course>
  <speed>0.15524174696260024</speed>
  <fix>3d</fix>
</trkpt>
<trkpt lat="33.8103113" lon="-118.3944758">
  <ele>-26.95</ele>
  <time>2026-09-01T01:14:11Z</time>
  <course>275.66</course>
  <speed>0.18</speed>
  <fix>3d</fix>
</trkpt>
<trkpt lat="33.8103115" lon="-118.3944761">
  <ele>-27.112</ele>
  <time>2026-09-01T01:14:11Z</time>
  <course>272.07</course>
  <speed>0.15297058540778355</speed>
  <fix>3d</fix>
</trkpt>
<trkpt lat="33.8103113" lon="-118.3944761">
  <ele>-26.71</ele>
  <time>2026-09-01T01:14:11Z</time>
  <course>275.98</course>
  <speed>0.17</speed>
  <fix>3d</fix>
</trkpt>
<trkpt lat="33.8103115" lon="-118.3944763">
  <ele>-26.986</ele>
  <time>2026-09-01T01:14:11Z</time>
  <course>272.09</course>
  <speed>0.14317821063276354</speed>
  <fix>3d</fix>
</trkpt>
<trkpt lat="33.8103113" lon="-118.3944761">
  <ele>-26.71</ele>
  <time>2026-09-01T01:14:11Z</time>
  <course>275.98</course>
  <speed>0.17</speed>
  <fix>3d</fix>
</trkpt>
<trkpt lat="33.8103115" lon="-118.3944765">
  <ele>-26.858</ele>
  <time>2026-09-01T01:14:11Z</time>
  <course>272.04</course>
  <speed>0.14317821063276354</speed>
  <fix>3d</fix>
</trkpt>
<trkpt lat="33.8103113" lon="-118.3944765">
  <ele>-26.46</ele>
  <time>2026-09-01T01:14:11Z</time>
  <course>275.87</course>
  <speed>0.16</speed>
  <fix>3d</fix>
</trkpt>
<trkpt lat="33.8103116" lon="-118.3944767">
  <ele>-26.731</ele>
  <time>2026-09-01T01:14:11Z</time>
  <course>271.91</course>
  <speed>0.13341664064126335</speed>
  <fix>3d</fix>
</trkpt>
<trkpt lat="33.8103113" lon="-118.3944765">
  <ele>-26.46</ele>
  <time>2026-09-01T01:14:11Z</time>
  <course>275.87</course>
  <speed>0.16</speed>
  <fix>3d</fix>
</trkpt>
<trkpt lat="33.8103116" lon="-118.3944768">
  <ele>-26.603</ele>
  <time>2026-09-01T01:14:11Z</time>
  <course>271.78</course>
  <speed>0.13341664064126335</speed>
  <fix>3d</fix>
</trkpt>
<trkpt lat="33.8103114" lon="-118.3944769">
  <ele>-26.22</ele>
  <time>2026-09-01T01:14:11Z</time>
  <course>275.65</course>
  <speed>0.16</speed>
  <fix>3d</fix>
</trkpt>
<trkpt lat="33.8103116" lon="-118.394477">
  <ele>-26.478</ele>
  <time>2026-09-01T01:14:11Z</time>
  <course>271.56</course>
  <speed>0.13341664064126335</speed>
  <fix>3d</fix>
</trkpt>
<trkpt lat="33.8103114" lon="-118.3944769">
  <ele>-26.22</ele>
  <time>2026-09-01T01:14:11Z</time>
  <course>275.65</course>
  <speed>0.16</speed>
  <fix>3d</fix>
</trkpt>
<trkpt lat="33.8103116" lon="-118.3944772">
  <ele>-26.36</ele>
  <time>2026-09-01T01:14:11Z</time>
  <course>271.08</course>
  <speed>0.13601470508735444</speed>
  <fix>3d</fix>
</trkpt>
<trkpt lat="33.8103115" lon="-118.3944772">
  <ele>-25.97</ele>
  <time>2026-09-01T01:14:11Z</time>
  <course>276.6</course>
  <speed>0.15</speed>
  <fix>3d</fix>
</trkpt>
<trkpt lat="33.8103116" lon="-118.3944773">
  <ele>-26.249</ele>
  <time>2026-09-01T01:14:11Z</time>
  <course>270.35</course>
  <speed>0.13601470508735444</speed>
  <fix>3d</fix>
</trkpt>
<trkpt lat="33.8103115" lon="-118.3944772">
  <ele>-25.97</ele>
  <time>2026-09-01T01:14:11Z</time>
  <course>276.6</course>
  <speed>0.15</speed>
  <fix>3d</fix>
</trkpt>
<trkpt lat="33.8103116" lon="-118.3944775">
  <ele>-26.146</ele>
  <time>2026-09-01T01:14:11Z</time>
  <course>269.41</course>
  <speed>0.13601470508735444</speed>
  <fix>3d</fix>
</trkpt>
<trkpt lat="33.8103115" lon="-118.3944775">
  <ele>-25.74</ele>
  <time>2026-09-01T01:14:11Z</time>
  <course>278.34</course>
  <speed>0.15</speed>
  <fix>3d</fix>
</trkpt>
<trkpt lat="33.8103117" lon="-118.3944777">
  <ele>-26.049</ele>
  <time>2026-09-01T01:14:11Z</time>
  <course>268.29</course>
  <speed>0.13601470508735444</speed>
  <fix>3d</fix>
</trkpt>
<trkpt lat="33.8103115" lon="-118.3944775">
  <ele>-25.74</ele>
  <time>2026-09-01T01:14:11Z</time>
  <course>278.34</course>
  <speed>0.15</speed>
  <fix>3d</fix>
</trkpt>
<trkpt lat="33.8103117" lon="-118.3944778">
  <ele>-25.957</ele>
  <time>2026-09-01T01:14:11Z</time>
  <course>267.05</course>
  <speed>0.13601470508735444</speed>
  <fix>3d</fix>
</trkpt>
<trkpt lat="33.8103115" lon="-118.3944779">
  <ele>-25.54</ele>
  <time>2026-09-01T01:14:11Z</time>
  <course>278.81</course>
  <speed>0.15</speed>
  <fix>3d</fix>
</trkpt>
<trkpt lat="33.8103117" lon="-118.394478">
  <ele>-25.871</ele>
  <time>2026-09-01T01:14:11Z</time>
  <course>265.69</course>
  <speed>0.14560219778561037</speed>
  <fix>3d</fix>
</trkpt>
<trkpt lat="33.8103115" lon="-118.3944779">
  <ele>-25.54</ele>
  <time>2026-09-01T01:14:11Z</time>
  <course>278.81</course>
  <speed>0.15</speed>
  <fix>3d</fix>
</trkpt>
<trkpt lat="33.8103117" lon="-118.3944782">
  <ele>-25.789</ele>
  <time>2026-09-01T01:14:11Z</time>
  <course>264.06</course>
  <speed>0.14317821063276354</speed>
  <fix>3d</fix>
</trkpt>
<trkpt lat="33.8103116" lon="-118.3944782">
  <ele>-25.35</ele>
  <time>2026-09-01T01:14:11Z</time>
  <course>277.72</course>
  <speed>0.16</speed>
  <fix>3d</fix>
</trkpt>
<trkpt lat="33.8103117" lon="-118.3944784">
  <ele>-25.712</ele>
  <time>2026-09-01T01:14:11Z</time>
  <course>262.59</course>
  <speed>0.13341664064126335</speed>
  <fix>3d</fix>
</trkpt>
<trkpt lat="33.8103116" lon="-118.3944782">
  <ele>-25.35</ele>
  <time>2026-09-01T01:14:11Z</time>
  <course>277.72</course>
  <speed>0.16</speed>
  <fix>3d</fix>
</trkpt>
<trkpt lat="33.8103117" lon="-118.3944785">
  <ele>-25.639</ele>
  <time>2026-09-01T01:14:11Z</time>
  <course>262.02</course>
  <speed>0.12369316876852982</speed>
  <fix>3d</fix>
</trkpt>
<trkpt lat="33.8103116" lon="-118.3944786">
  <ele>-25.19</ele>
  <time>2026-09-01T01:14:11Z</time>
  <course>276.59</course>
  <speed>0.15</speed>
  <fix>3d</fix>
</trkpt>
<trkpt lat="33.8103118" lon="-118.3944787">
  <ele>-25.57</ele>
  <time>2026-09-01T01:14:11Z</time>
  <course>262.99</course>
  <speed>0.12369316876852982</speed>
  <fix>3d</fix>
</trkpt>
<trkpt lat="33.8103116" lon="-118.3944786">
  <ele>-25.19</ele>
  <time>2026-09-01T01:14:11Z</time>
  <course>276.59</course>
  <speed>0.15</speed>
  <fix>3d</fix>
</trkpt>
<trkpt lat="33.8103118" lon="-118.3944788">
  <ele>-25.506</ele>
  <time>2026-09-01T01:14:11Z</time>
  <course>264.44</course>
  <speed>0.1118033988749895</speed>
  <fix>3d</fix>
</trkpt>
<trkpt lat="33.8103117" lon="-118.3944789">
  <ele>-25.05</ele>
  <time>2026-09-01T01:14:11Z</time>
  <course>275.18</course>
  <speed>0.14</speed>
  <fix>3d</fix>
</trkpt>
<trkpt lat="33.8103118" lon="-118.394479">
  <ele>-25.445</ele>
  <time>2026-09-01T01:14:11Z</time>
  <course>265.67</course>
  <speed>0.1019803902718557</speed>
  <fix>3d</fix>
</trkpt>
<trkpt lat="33.8103117" lon="-118.3944789">
  <ele>-25.05</ele>
  <time>2026-09-01T01:14:11Z</time>
  <course>275.18</course>
  <speed>0.14</speed>
  <fix>3d</fix>
</trkpt>
<trkpt lat="33.8103118" lon="-118.3944791">
  <ele>-25.387</ele>
  <time>2026-09-01T01:14:11Z</time>
  <course>266.59</course>
  <speed>0.09219544457292887</speed>
  <fix>3d</fix>
</trkpt>
<trkpt lat="33.8103117" lon="-118.3944792">
  <ele>-24.92</ele>
  <time>2026-09-01T01:14:11Z</time>
  <course>273.0</course>
  <speed>0.13</speed>
  <fix>3d</fix>
</trkpt>
<trkpt lat="33.8103118" lon="-118.3944792">
  <ele>-25.333</ele>
  <time>2026-09-01T01:14:11Z</time>
  <course>267.33</course>
  <speed>0.0824621125123532</speed>
  <fix>3d</fix>
</trkpt>
<trkpt lat="33.8103117" lon="-118.3944792">
  <ele>-24.92</ele>
  <time>2026-09-01T01:14:11Z</time>
  <course>273.0</course>
  <speed>0.13</speed>
  <fix>3d</fix>
</trkpt>
<trkpt lat="33.8103118" lon="-118.3944793">
  <ele>-25.282</ele>
  <time>2026-09-01T01:14:11Z</time>
  <course>267.97</course>
  <speed>0.0824621125123532</speed>
  <fix>3d</fix>
</trkpt>
<trkpt lat="33.8103117" lon="-118.3944795">
  <ele>-24.8</ele>
  <time>2026-09-01T01:14:11Z</time>
  <course>271.09</course>
  <speed>0.11</speed>
  <fix>3d</fix>
</trkpt>
<trkpt lat="33.8103118" lon="-118.3944795">
  <ele>-25.236</ele>
  <time>2026-09-01T01:14:11Z</time>
  <course>268.56</course>
  <speed>0.07071067811865475</speed>
  <fix>3d</fix>
</trkpt>
<trkpt lat="33.8103117" lon="-118.3944795">
  <ele>-24.8</ele>
  <time>2026-09-01T01:14:11Z</time>
  <course>271.09</course>
  <speed>0.11</speed>
  <fix>3d</fix>
</trkpt>
<trkpt lat="33.8103118" lon="-118.3944796">
  <ele>-25.194</ele>
  <time>2026-09-01T01:14:11Z</time>
  <course>269.12</course>
  <speed>0.06082762530298219</speed>
  <fix>3d</fix>
</trkpt>
<trkpt lat="33.8103117" lon="-118.3944797">
  <ele>-24.7</ele>
  <time>2026-09-01T01:14:11Z</time>
  <course>269.28</course>
  <speed>0.1</speed>
  <fix>3d</fix>
</trkpt>
<trkpt lat="33.8103118" lon="-118.3944796">
  <ele>-25.157</ele>
  <time>2026-09-01T01:14:11Z</time>
  <course>269.67</course>
  <speed>0.06082762530298219</speed>
  <fix>3d</fix>
</trkpt>
<trkpt lat="33.8103117" lon="-118.3944797">
  <ele>-24.7</ele>
  <time>2026-09-01T01:14:11Z</time>
  <course>269.28</course>
  <speed>0.1</speed>
  <fix>3d</fix>
</trkpt>
<trkpt lat="33.8103118" lon="-118.3944797">
  <ele>-25.124</ele>
  <time>2026-09-01T01:14:11Z</time>
  <course>270.22</course>
  <speed>0.05099019513592785</speed>
  <fix>3d</fix>
</trkpt>
<trkpt lat="33.8103117" lon="-118.3944799">
  <ele>-24.61</ele>
  <time>2026-09-01T01:14:11Z</time>
  <course>266.66</course>
  <speed>0.08</speed>
  <fix>3d</fix>
</trkpt>
<trkpt lat="33.8103118" lon="-118.3944798">
  <ele>-25.096</ele>
  <time>2026-09-01T01:14:11Z</time>
  <course>270.69</course>
  <speed>0.0412310562561766</speed>
  <fix>3d</fix>
</trkpt>
<trkpt lat="33.8103117" lon="-118.3944799">
  <ele>-24.61</ele>
  <time>2026-09-01T01:14:11Z</time>
  <course>266.66</course>
  <speed>0.08</speed>
  <fix>3d</fix>
</trkpt>
<trkpt lat="33.8103118" lon="-118.3944799">
  <ele>-25.072</ele>
  <time>2026-09-01T01:14:11Z</time>
  <course>270.91</course>
  <speed>0.0316227766016838</speed>
  <fix>3d</fix>
</trkpt>
<trkpt lat="33.8103117" lon="-118.3944801">
  <ele>-24.54</ele>
  <time>2026-09-01T01:14:11Z</time>
  <course>263.8</course>
  <speed>0.07</speed>
  <fix>3d</fix>
</trkpt>
<trkpt lat="33.8103118" lon="-118.3944799">
  <ele>-25.052</ele>
  <time>2026-09-01T01:14:11Z</time>
  <course>270.27</course>
  <speed>0.01414213562373095</speed>
  <fix>3d</fix>
</trkpt>
<trkpt lat="33.8103117" lon="-118.3944801">
  <ele>-24.54</ele>
  <time>2026-09-01T01:14:11Z</time>
  <course>263.8</course>
  <speed>0.07</speed>
  <fix>3d</fix>
</trkpt>
<trkpt lat="33.8103118" lon="-118.39448">
  <ele>-25.035</ele>
  <time>2026-09-01T01:14:11Z</time>
  <course>268.13</course>
  <speed>0.01</speed>
  <fix>3d</fix>
</trkpt>
<trkpt lat="33.8103117" lon="-118.3944802">
  <ele>-24.48</ele>
  <time>2026-09-01T01:14:11Z</time>
  <course>259.76</course>
  <speed>0.04</speed>
  <fix>3d</fix>
</trkpt>
<trkpt lat="33.8103118" lon="-118.39448">
  <ele>-25.022</ele>
  <time>2026-09-01T01:14:11Z</time>
  <course>265.05</course>
  <speed>0.022360679774997897</speed>
  <fix>3d</fix>
</trkpt>
<trkpt lat="33.8103117" lon="-118.3944802">
  <ele>-24.48</ele>
  <time>2026-09-01T01:14:11Z</time>
  <course>259.76</course>
  <speed>0.04</speed>
  <fix>3d</fix>
</trkpt>
<trkpt lat="33.8103118" lon="-118.39448">
  <ele>-25.014</ele>
  <time>2026-09-01T01:14:11Z</time>
  <course>261.53</course>
  <speed>0.022360679774997897</speed>
  <fix>3d</fix>
</trkpt>
<trkpt lat="33.8103117" lon="-118.3944803">
  <ele>-24.44</ele>
  <time>2026-09-01T01:14:11Z</time>
  <course>238.76</course>
  <speed>0.01</speed>
  <fix>3d</fix>
</trkpt>
<trkpt lat="33.8103118" lon="-118.39448">
  <ele>-25.01</ele>
  <time>2026-09-01T01:14:11Z</time>
  <course>257.72</course>
  <speed>0.0316227766016838</speed>
  <fix>3d</fix>
</trkpt>
<trkpt lat="33.8103117" lon="-118.3944803">
  <ele>-24.44</ele>
  <time>2026-09-01T01:14:11Z</time>
  <course>238.76</course>
  <speed>0.01</speed>
  <fix>3d</fix>
</trkpt>
<trkpt lat="33.8103118" lon="-118.39448">
  <ele>-25.009</ele>
  <time>2026-09-01T01:14:11Z</time>
  <course>253.69</course>
  <speed>0.0316227766016838</speed>
  <fix>3d</fix>
</trkpt>
<trkpt lat="33.8103117" lon="-118.3944803">
  <ele>-24.42</ele>
  <time>2026-09-01T01:14:11Z</time>
  <course>135.6</course>
  <speed>0.01</speed>
  <fix>3d</fix>
</trkpt>
<trkpt lat="33.8103118" lon="-118.39448">
  <ele>-25.009</ele>
  <time>2026-09-01T01:14:11Z</time>
  <course>249.55</course>
  <speed>0.0316227766016838</speed>
  <fix>3d</fix>
</trkpt>
<trkpt lat="33.8103117" lon="-118.3944803">
  <ele>-24.42</ele>
  <time>2026-09-01T01:14:11Z</time>
  <course>135.6</course>
  <speed>0.01</speed>
  <fix>3d</fix>
</trkpt>
<trkpt lat="33.8103118" lon="-118.39448">
  <ele>-25.01</ele>
  <time>2026-09-01T01:14:11Z</time>
  <course>245.88</course>
  <speed>0.0316227766016838</speed>
  <fix>3d</fix>
</trkpt>
<trkpt lat="33.8103117" lon="-118.3944803">
  <ele>-24.4</ele>
  <time>2026-09-01T01:14:11Z</time>
  <course>118.51</course>
  <speed>0.01</speed>
  <fix>3d</fix>
</trkpt>
<trkpt lat="33.8103118" lon="-118.39448">
  <ele>-25.011</ele>
  <time>2026-09-01T01:14:11Z</time>
  <course>242.78</course>
  <speed>0.0316227766016838</speed>
  <fix>3d</fix>
</trkpt>
<trkpt lat="33.8103117" lon="-118.3944803">
  <ele>-24.4</ele>
  <time>2026-09-01T01:14:11Z</time>
  <course>118.51</course>
  <speed>0.01</speed>
  <fix>3d</fix>
</trkpt>
<trkpt lat="33.8103118" lon="-118.39448">
  <ele>-25.012</ele>
  <time>2026-09-01T01:14:11Z</time>
  <course>240.14</course>
  <speed>0.0316227766016838</speed>
  <fix>3d</fix>
</trkpt>
<trkpt lat="33.8103117" lon="-118.3944803">
  <ele>-24.4</ele>
  <time>2026-09-01T01:14:11Z</time>
  <course>119.59</course>
  <speed>0.01</speed>
  <fix>3d</fix>
</trkpt>
<trkpt lat="33.8103118" lon="-118.39448">
  <ele>-25.011</ele>
  <time>2026-09-01T01:14:11Z</time>
  <course>237.83</course>
  <speed>0.0316227766016838</speed>
  <fix>3d</fix>
</trkpt>
<trkpt lat="33.8103117" lon="-118.3944803">
  <ele>-24.4</ele>
  <time>2026-09-01T01:14:11Z</time>
  <course>119.59</course>
  <speed>0.01</speed>
  <fix>3d</fix>
</trkpt>
<trkpt lat="33.8103118" lon="-118.39448">
  <ele>-25.012</ele>
  <time>2026-09-01T01:14:11Z</time>
  <course>235.97</course>
  <speed>0.0412310562561766</speed>
  <fix>3d</fix>
</trkpt>
<trkpt lat="33.8103117" lon="-118.3944803">
  <ele>-24.4</ele>
  <time>2026-09-01T01:14:11Z</time>
  <course>122.27</course>
  <speed>0.01</speed>
  <fix>3d</fix>
</trkpt>
<trkpt lat="33.8103118" lon="-118.39448">
  <ele>-25.012</ele>
  <time>2026-09-01T01:14:11Z</time>
  <course>234.96</course>
  <speed>0.0412310562561766</speed>
  <fix>3d</fix>
</trkpt>
<trkpt lat="33.8103117" lon="-118.3944803">
  <ele>-24.4</ele>
  <time>2026-09-01T01:14:11Z</time>
  <course>122.27</course>
  <speed>0.01</speed>
  <fix>3d</fix>
</trkpt>
<trkpt lat="33.8103118" lon="-118.3944799">
  <ele>-25.011</ele>
  <time>2026-09-01T01:14:11Z</time>
  <course>235.33</course>
  <speed>0.053851648071345036</speed>
  <fix>3d</fix>
</trkpt>
<trkpt lat="33.8103117" lon="-118.3944803">
  <ele>-24.4</ele>
  <time>2026-09-01T01:14:11Z</time>
  <course>126.84</course>
  <speed>0.02</speed>
  <fix>3d</fix>
</trkpt>
<trkpt lat="33.8103118" lon="-118.3944799">
  <ele>-25.011</ele>
  <time>2026-09-01T01:14:11Z</time>
  <course>237.54</course>
  <speed>0.08602325267042626</speed>
  <fix>3d</fix>
</trkpt>
<trkpt lat="33.8103117" lon="-118.3944803">
  <ele>-24.4</ele>
  <time>2026-09-01T01:14:11Z</time>
  <course>126.84</course>
  <speed>0.02</speed>
  <fix>3d</fix>
</trkpt>
<trkpt lat="33.8103117" lon="-118.3944799">
  <ele>-25.012</ele>
  <time>2026-09-01T01:14:11Z</time>
  <course>240.58</course>
  <speed>0.1392838827718412</speed>
  <fix>3d</fix>
</trkpt>
<trkpt lat="33.8103116" lon="-118.3944802">
  <ele>-24.4</ele>
  <time>2026-09-01T01:14:11Z</time>
  <course>154.59</course>
  <speed>0.07</speed>
  <fix>3d</fix>
</trkpt>
<trkpt lat="33.8103115" lon="-118.3944798">
  <ele>-25.012</ele>
  <time>2026-09-01T01:14:11Z</time>
  <course>243.99</course>
  <speed>0.20615528128088303</speed>
  <fix>3d</fix>
</trkpt>
<trkpt lat="33.8103116" lon="-118.3944802">
  <ele>-24.4</ele>
  <time>2026-09-01T01:14:11Z</time>
  <course>154.59</course>
  <speed>0.07</speed>
  <fix>3d</fix>
</trkpt>
<trkpt lat="33.8103113" lon="-118.3944798">
  <ele>-25.013</ele>
  <time>2026-09-01T01:14:11Z</time>
  <course>247.64</course>
  <speed>0.26476404589747454</speed>
  <fix>3d</fix>
</trkpt>
<trkpt lat="33.8103113" lon="-118.3944801">
  <ele>-24.4</ele>
  <time>2026-09-01T01:14:11Z</time>
  <course>168.2</course>
  <speed>0.18</speed>
  <fix>3d</fix>
</trkpt>
<trkpt lat="33.810311" lon="-118.3944798">
  <ele>-25.012</ele>
  <time>2026-09-01T01:14:11Z</time>
  <course>251.19</course>
  <speed>0.3125699921617557</speed>
  <fix>3d</fix>
</trkpt>
<trkpt lat="33.8103113" lon="-118.3944801">
  <ele>-24.4</ele>
  <time>2026-09-01T01:14:11Z</time>
  <course>168.2</course>
  <speed>0.18</speed>
  <fix>3d</fix>
</trkpt>
<trkpt lat="33.8103107" lon="-118.3944798">
  <ele>-25.011</ele>
  <time>2026-09-01T01:14:11Z</time>
  <course>254.56</course>
  <speed>0.35128336140500593</speed>
  <fix>3d</fix>
</trkpt>
<trkpt lat="33.8103109" lon="-118.39448">
  <ele>-24.4</ele>
  <time>2026-09-01T01:14:11Z</time>
  <course>173.92</course>
  <speed>0.3</speed>
  <fix>3d</fix>
</trkpt>
<trkpt lat="33.8103103" lon="-118.3944798">
  <ele>-25.011</ele>
  <time>2026-09-01T01:14:11Z</time>
  <course>257.65</course>
  <speed>0.3905124837953327</speed>
  <fix>3d</fix>
</trkpt>
<trkpt lat="33.8103109" lon="-118.39448">
  <ele>-24.4</ele>
  <time>2026-09-01T01:14:11Z</time>
  <course>173.92</course>
  <speed>0.3</speed>
  <fix>3d</fix>
</trkpt>
<trkpt lat="33.8103099" lon="-118.3944798">
  <ele>-25.012</ele>
  <time>2026-09-01T01:14:11Z</time>
  <course>260.4</course>
  <speed>0.44045431091090476</speed>
  <fix>3d</fix>
</trkpt>
<trkpt lat="33.8103103" lon="-118.39448">
  <ele>-24.4</ele>
  <time>2026-09-01T01:14:11Z</time>
  <course>177.18</course>
  <speed>0.39</speed>
  <fix>3d</fix>
</trkpt>
<trkpt lat="33.8103095" lon="-118.3944798">
  <ele>-25.012</ele>
  <time>2026-09-01T01:14:11Z</time>
  <course>262.81</course>
  <speed>0.49040799340956914</speed>
  <fix>3d</fix>
</trkpt>
<trkpt lat="33.8103103" lon="-118.39448">
  <ele>-24.4</ele>
  <time>2026-09-01T01:14:11Z</time>
  <course>177.18</course>
  <speed>0.39</speed>
  <fix>3d</fix>
</trkpt>
<trkpt lat="33.810309" lon="-118.3944798">
  <ele>-25.012</ele>
  <time>2026-09-01T01:14:11Z</time>
  <course>264.86</course>
  <speed>0.5403702434442519</speed>
  <fix>3d</fix>
</trkpt>
<trkpt lat="33.8103095" lon="-118.39448">
  <ele>-24.4</ele>
  <time>2026-09-01T01:14:11Z</time>
  <course>178.53</course>
  <speed>0.49</speed>
  <fix>3d</fix>
</trkpt>
<trkpt lat="33.8103085" lon="-118.3944798">
  <ele>-25.012</ele>
  <time>2026-09-01T01:14:11Z</time>
  <course>266.49</course>
  <speed>0.5907622195096772</speed>
  <fix>3d</fix>
</trkpt>
<trkpt lat="33.8103095" lon="-118.39448">
  <ele>-24.4</ele>
  <time>2026-09-01T01:14:11Z</time>
  <course>178.53</course>
  <speed>0.49</speed>
  <fix>3d</fix>
</trkpt>
<trkpt lat="33.8103079" lon="-118.3944797">
  <ele>-25.012</ele>
  <time>2026-09-01T01:14:11Z</time>
  <course>267.64</course>
  <speed>0.6307138812488592</speed>
  <fix>3d</fix>
</trkpt>
<trkpt lat="33.8103085" lon="-118.3944799">
  <ele>-24.4</ele>
  <time>2026-09-01T01:14:11Z</time>
  <course>178.49</course>
  <speed>0.59</speed>
  <fix>3d</fix>
</trkpt>
<trkpt lat="33.8103073" lon="-118.3944797">
  <ele>-25.011</ele>
  <time>2026-09-01T01:14:11Z</time>
  <course>268.35</course>
  <speed>0.6706713054842887</speed>
  <fix>3d</fix>
</trkpt>
<trkpt lat="33.8103085" lon="-118.3944799">
  <ele>-24.4</ele>
  <time>2026-09-01T01:14:11Z</time>
  <course>178.49</course>
  <speed>0.59</speed>
  <fix>3d</fix>
</trkpt>
<trkpt lat="33.8103066" lon="-118.3944797">
  <ele>-25.01</ele>
  <time>2026-09-01T01:14:11Z</time>
  <course>268.73</course>
  <speed>0.7106335201775947</speed>
  <fix>3d</fix>
</trkpt>
<trkpt lat="33.8103074" lon="-118.3944799">
  <ele>-24.4</ele>
  <time>2026-09-01T01:14:11Z</time>
  <course>178.38</course>
  <speed>0.68</speed>
  <fix>3d</fix>
</trkpt>
<trkpt lat="33.810306" lon="-118.3944797">
  <ele>-25.009</ele>
  <time>2026-09-01T01:14:11Z</time>
  <course>268.94</course>
  <speed>0.7402702209328699</speed>
  <fix>3d</fix>
</trkpt>
<trkpt lat="33.8103074" lon="-118.3944799">
  <ele>-24.4</ele>
  <time>2026-09-01T01:14:11Z</time>
  <course>178.38</course>
  <speed>0.68</speed>
  <fix>3d</fix>
</trkpt>
<trkpt lat="33.8103053" lon="-118.3944797">
  <ele>-25.008</ele>
  <time>2026-09-01T01:14:11Z</time>
  <course>269.09</course>
  <speed>0.7702596964660685</speed>
  <fix>3d</fix>
</trkpt>
<trkpt lat="33.8103061" lon="-118.3944799">
  <ele>-24.4</ele>
  <time>2026-09-01T01:14:11Z</time>
  <course>178.67</course>
  <speed>0.75</speed>
  <fix>3d</fix>
</trkpt>
<trkpt lat="33.8103046" lon="-118.3944797">
  <ele>-25.007</ele>
  <time>2026-09-01T01:14:11Z</time>
  <course>269.21</course>
  <speed>0.7902531240052139</speed>
  <fix>3d</fix>
</trkpt>
<trkpt lat="33.8103061" lon="-118.3944799">
  <ele>-24.4</ele>
  <time>2026-09-01T01:14:11Z</time>
  <course>178.67</course>
  <speed>0.75</speed>
  <fix>3d</fix>
</trkpt>
<trkpt lat="33.8103038" lon="-118.3944797">
  <ele>-25.008</ele>
  <time>2026-09-01T01:14:11Z</time>
  <course>269.33</course>
  <speed>0.8100617260431454</speed>
  <fix>3d</fix>
</trkpt>
<trkpt lat="33.8103046" lon="-118.3944798">
  <ele>-24.4</ele>
  <time>2026-09-01T01:14:11Z</time>
  <course>179.21</course>
  <speed>0.81</speed>
  <fix>3d</fix>
</trkpt>
<trkpt lat="33.8103031" lon="-118.3944797">
  <ele>-25.009</ele>
  <time>2026-09-01T01:14:11Z</time>
  <course>269.45</course>
  <speed>0.8300602387778854</speed>
  <fix>3d</fix>
</trkpt>
<trkpt lat="33.8103046" lon="-118.3944798">
  <ele>-24.4</ele>
  <time>2026-09-01T01:14:11Z</time>
  <course>179.21</course>
  <speed>0.81</speed>
  <fix>3d</fix>
</trkpt>
<trkpt lat="33.8103023" lon="-118.3944797">
  <ele>-25.011</ele>
  <time>2026-09-01T01:14:11Z</time>
  <course>269.57</course>
  <speed>0.85</speed>
  <fix>3d</fix>
</trkpt>
<trkpt lat="33.8103031" lon="-118.3944798">
  <ele>-24.4</ele>
  <time>2026-09-01T01:14:11Z</time>
  <course>179.79</course>
  <speed>0.86</speed>
  <fix>3d</fix>
</trkpt>
<trkpt lat="33.8103015" lon="-118.3944797">
  <ele>-25.013</ele>
  <time>2026-09-01T01:14:11Z</time>
  <course>269.69</course>
  <speed>0.87</speed>
  <fix>3d</fix>
</trkpt>
<trkpt lat="33.8103031" lon="-118.3944798">
  <ele>-24.4</ele>
  <time>2026-09-01T01:14:11Z</time>
  <course>179.79</course>
  <speed>0.86</speed>
  <fix>3d</fix>
</trkpt>
<trkpt lat="33.8103007" lon="-118.3944797">
  <ele>-25.014</ele>
  <time>2026-09-01T01:14:11Z</time>
  <course>269.81</course>
  <speed>0.88</speed>
  <fix>3d</fix>
</trkpt>
<trkpt lat="33.8103016" lon="-118.3944798">
  <ele>-24.4</ele>
  <time>2026-09-01T01:14:11Z</time>
  <course>180.34</course>
  <speed>0.9</speed>
  <fix>3d</fix>
</trkpt>
<trkpt lat="33.8102999" lon="-118.3944797">
  <ele>-25.014</ele>
  <time>2026-09-01T01:14:11Z</time>
  <course>269.94</course>
  <speed>0.9</speed>
  <fix>3d</fix>
</trkpt>
<trkpt lat="33.8103016" lon="-118.3944798">
  <ele>-24.4</ele>
  <time>2026-09-01T01:14:11Z</time>
  <course>180.34</course>
  <speed>0.9</speed>
  <fix>3d</fix>
</trkpt>
<trkpt lat="33.810299" lon="-118.3944797">
  <ele>-25.014</ele>
  <time>2026-09-01T01:14:11Z</time>
  <course>270.06</course>
  <speed>0.91</speed>
  <fix>3d</fix>
</trkpt>
<trkpt lat="33.8102999" lon="-118.3944798">
  <ele>-24.41</ele>
  <time>2026-09-01T01:14:11Z</time>
  <course>180.83</course>
  <speed>0.93</speed>
  <fix>3d</fix>
</trkpt>
<trkpt lat="33.8102982" lon="-118.3944797">
  <ele>-25.014</ele>
  <time>2026-09-01T01:14:11Z</time>
  <course>270.18</course>
  <speed>0.9200543462209175</speed>
  <fix>3d</fix>
</trkpt>
<trkpt lat="33.8102999" lon="-118.3944798">
  <ele>-24.41</ele>
  <time>2026-09-01T01:14:11Z</time>
  <course>180.83</course>
  <speed>0.93</speed>
  <fix>3d</fix>
</trkpt>
<trkpt lat="33.8102973" lon="-118.3944797">
  <ele>-25.014</ele>
  <time>2026-09-01T01:14:11Z</time>
  <course>270.31</course>
  <speed>0.9200543462209175</speed>
  <fix>3d</fix>
</trkpt>
<trkpt lat="33.8102982" lon="-118.3944798">
  <ele>-24.41</ele>
  <time>2026-09-01T01:14:11Z</time>
  <course>181.25</course>
  <speed>0.95</speed>
  <fix>3d</fix>
</trkpt>
<trkpt lat="33.8102965" lon="-118.3944797">
  <ele>-25.013</ele>
  <time>2026-09-01T01:14:11Z</time>
  <course>270.43</course>
  <speed>0.9300537618869137</speed>
  <fix>3d</fix>
</trkpt>
<trkpt lat="33.8102982" lon="-118.3944798">
  <ele>-24.41</ele>
  <time>2026-09-01T01:14:11Z</time>
  <course>181.25</course>
  <speed>0.95</speed>
  <fix>3d</fix>
</trkpt>
<trkpt lat="33.8102956" lon="-118.3944798">
  <ele>-25.013</ele>
  <time>2026-09-01T01:14:11Z</time>
  <course>270.56</course>
  <speed>0.9400531899844816</speed>
  <fix>3d</fix>
</trkpt>
<trkpt lat="33.8102964" lon="-118.3944798">
  <ele>-24.41</ele>
  <time>2026-09-01T01:14:11Z</time>
  <course>181.65</course>
  <speed>0.97</speed>
  <fix>3d</fix>
</trkpt>
<trkpt lat="33.8102947" lon="-118.3944798">
  <ele>-25.012</ele>
  <time>2026-09-01T01:14:11Z</time>
  <course>270.68</course>
  <speed>0.9402127418834527</speed>
  <fix>3d</fix>
</trkpt>
<trkpt lat="33.8102964" lon="-118.3944798">
  <ele>-24.41</ele>
  <time>2026-09-01T01:14:11Z</time>
  <course>181.65</course>
  <speed>0.97</speed>
  <fix>3d</fix>
</trkpt>
<trkpt lat="33.8102938" lon="-118.3944798">
  <ele>-25.012</ele>
  <time>2026-09-01T01:14:11Z</time>
  <course>270.81</course>
  <speed>0.9502105029939419</speed>
  <fix>3d</fix>
</trkpt>
<trkpt lat="33.8102947" lon="-118.3944799">
  <ele>-24.41</ele>
  <time>2026-09-01T01:14:11Z</time>
  <course>182.06</course>
  <speed>0.98</speed>
  <fix>3d</fix>
</trkpt>
<trkpt lat="33.8102929" lon="-118.3944799">
  <ele>-25.013</ele>
  <time>2026-09-01T01:14:11Z</time>
  <course>270.94</course>
  <speed>0.9502105029939419</speed>
  <fix>3d</fix>
</trkpt>
<trkpt lat="33.8102947" lon="-118.3944799">
  <ele>-24.41</ele>
  <time>2026-09-01T01:14:11Z</time>
  <course>182.06</course>
  <speed>0.98</speed>
  <fix>3d</fix>
</trkpt>
<trkpt lat="33.8102921" lon="-118.3944799">
  <ele>-25.014</ele>
  <time>2026-09-01T01:14:11Z</time>
  <course>271.06</course>
  <speed>0.9502105029939419</speed>
  <fix>3d</fix>
</trkpt>
<trkpt lat="33.810293" lon="-118.39448">
  <ele>-24.41</ele>
  <time>2026-09-01T01:14:11Z</time>
  <course>182.45</course>
  <speed>0.99</speed>
  <fix>3d</fix>
</trkpt>
<trkpt lat="33.8102912" lon="-118.3944799">
  <ele>-25.015</ele>
  <time>2026-09-01T01:14:11Z</time>
  <course>271.19</course>
  <speed>0.9604686356149272</speed>
  <fix>3d</fix>
</trkpt>
<trkpt lat="33.810293" lon="-118.39448">
  <ele>-24.41</ele>
  <time>2026-09-01T01:14:11Z</time>
  <course>182.45</course>
  <speed>0.99</speed>
  <fix>3d</fix>
</trkpt>
<trkpt lat="33.8102903" lon="-118.39448">
  <ele>-25.015</ele>
  <time>2026-09-01T01:14:11Z</time>
  <course>271.32</course>
  <speed>0.9604686356149272</speed>
  <fix>3d</fix>
</trkpt>
<trkpt lat="33.8102911" lon="-118.3944801">
  <ele>-24.41</ele>
  <time>2026-09-01T01:14:11Z</time>
  <course>182.77</course>
  <speed>1.0</speed>
  <fix>3d</fix>
</trkpt>
<trkpt lat="33.8102894" lon="-118.39448">
  <ele>-25.016</ele>
  <time>2026-09-01T01:14:11Z</time>
  <course>271.44</course>
  <speed>0.9604686356149272</speed>
  <fix>3d</fix>
</trkpt>
<trkpt lat="33.8102911" lon="-118.3944801">
  <ele>-24.41</ele>
  <time>2026-09-01T01:14:11Z</time>
  <course>182.77</course>
  <speed>1.0</speed>
  <fix>3d</fix>
</trkpt>
<trkpt lat="33.8102885" lon="-118.3944801">
  <ele>-25.016</ele>
  <time>2026-09-01T01:14:11Z</time>
  <course>271.57</course>
  <speed>0.9604686356149272</speed>
  <fix>3d</fix>
</trkpt>
<trkpt lat="33.8102894" lon="-118.3944802">
  <ele>-24.4</ele>
  <time>2026-09-01T01:14:11Z</time>
  <course>183.03</course>
  <speed>1.01</speed>
  <fix>3d</fix>
</trkpt>
<trkpt lat="33.8102876" lon="-118.3944801">
  <ele>-25.016</ele>
  <time>2026-09-01T01:14:11Z</time>
  <course>271.69</course>
  <speed>0.9704638066409278</speed>
  <fix>3d</fix>
</trkpt>
<trkpt lat="33.8102894" lon="-118.3944802">
  <ele>-24.4</ele>
  <time>2026-09-01T01:14:11Z</time>
  <course>183.03</course>
  <speed>1.01</speed>
  <fix>3d</fix>
</trkpt>
<trkpt lat="33.8102867" lon="-118.3944802">
  <ele>-25.016</ele>
  <time>2026-09-01T01:14:11Z</time>
  <course>271.82</course>
  <speed>0.9704638066409278</speed>
  <fix>3d</fix>
</trkpt>
<trkpt lat="33.8102875" lon="-118.3944803">
  <ele>-24.4</ele>
  <time>2026-09-01T01:14:11Z</time>
  <course>183.27</course>
  <speed>1.01</speed>
  <fix>3d</fix>
</trkpt>
<trkpt lat="33.8102857" lon="-118.3944803">
  <ele>-25.016</ele>
  <time>2026-09-01T01:14:11Z</time>
  <course>271.94</course>
  <speed>0.97082439194738</speed>
  <fix>3d</fix>
</trkpt>
<trkpt lat="33.8102875" lon="-118.3944803">
  <ele>-24.4</ele>
  <time>2026-09-01T01:14:11Z</time>
  <course>183.27</course>
  <speed>1.01</speed>
  <fix>3d</fix>
</trkpt>
<trkpt lat="33.8102848" lon="-118.3944803">
  <ele>-25.015</ele>
  <time>2026-09-01T01:14:11Z</time>
  <course>272.07</course>
  <speed>0.97082439194738</speed>
  <fix>3d</fix>
</trkpt>
<trkpt lat="33.8102856" lon="-118.3944804">
  <ele>-24.4</ele>
  <time>2026-09-01T01:14:11Z</time>
  <course>183.51</course>
  <speed>1.01</speed>
  <fix>3d</fix>
</trkpt>
<trkpt lat="33.8102839" lon="-118.3944804">
  <ele>-25.013</ele>
  <time>2026-09-01T01:14:11Z</time>
  <course>272.19</course>
  <speed>0.97082439194738</speed>
  <fix>3d</fix>
</trkpt>
<trkpt lat="33.8102856" lon="-118.3944804">
  <ele>-24.4</ele>
  <time>2026-09-01T01:14:11Z</time>
  <course>183.51</course>
  <speed>1.01</speed>
  <fix>3d</fix>
</trkpt>
<trkpt lat="33.810283" lon="-118.3944804">
  <ele>-25.01</ele>
  <time>2026-09-01T01:14:11Z</time>
  <course>272.32</course>
  <speed>0.97082439194738</speed>
  <fix>3d</fix>
</trkpt>
<trkpt lat="33.8102839" lon="-118.3944806">
  <ele>-24.4</ele>
  <time>2026-09-01T01:14:11Z</time>
  <course>183.75</course>
  <speed>1.01</speed>
  <fix>3d</fix>
</trkpt>
<trkpt lat="33.8102821" lon="-118.3944805">
  <ele>-25.008</ele>
  <time>2026-09-01T01:14:11Z</time>
  <course>272.45</course>
  <speed>0.97082439194738</speed>
  <fix>3d</fix>
</trkpt>
<trkpt lat="33.8102839" lon="-118.3944806">
  <ele>-24.4</ele>
  <time>2026-09-01T01:14:11Z</time>
  <course>183.75</course>
  <speed>1.01</speed>
  <fix>3d</fix>
</trkpt>
<trkpt lat="33.8102812" lon="-118.3944806">
  <ele>-25.007</ele>
  <time>2026-09-01T01:14:11Z</time>
  <course>272.57</course>
  <speed>0.97082439194738</speed>
  <fix>3d</fix>
</trkpt>
<trkpt lat="33.810282" lon="-118.3944807">
  <ele>-24.4</ele>
  <time>2026-09-01T01:14:11Z</time>
  <course>183.99</course>
  <speed>1.01</speed>
  <fix>3d</fix>
</trkpt>
<trkpt lat="33.8102803" lon="-118.3944807">
  <ele>-25.007</ele>
  <time>2026-09-01T01:14:11Z</time>
  <course>272.69</course>
  <speed>0.97082439194738</speed>
  <fix>3d</fix>
</trkpt>
<trkpt lat="33.810282" lon="-118.3944807">
  <ele>-24.4</ele>
  <time>2026-09-01T01:14:11Z</time>
  <course>183.99</course>
  <speed>1.01</speed>
  <fix>3d</fix>
</trkpt>
<trkpt lat="33.8102794" lon="-118.3944807">
  <ele>-25.008</ele>
  <time>2026-09-01T01:14:11Z</time>
  <course>272.82</course>
  <speed>0.9712878049270464</speed>
  <fix>3d</fix>
</trkpt>
<trkpt lat="33.8102803" lon="-118.3944809">
  <ele>-24.4</ele>
  <time>2026-09-01T01:14:11Z</time>
  <course>184.2</course>
  <speed>1.01</speed>
  <fix>3d</fix>
</trkpt>
<trkpt lat="33.8102785" lon="-118.3944808">
  <ele>-25.009</ele>
  <time>2026-09-01T01:14:11Z</time>
  <course>272.94</course>
  <speed>0.9712878049270464</speed>
  <fix>3d</fix>
</trkpt>
<trkpt lat="33.8102803" lon="-118.3944809">
  <ele>-24.4</ele>
  <time>2026-09-01T01:14:11Z</time>
  <course>184.2</course>
  <speed>1.01</speed>
  <fix>3d</fix>
</trkpt>
<trkpt lat="33.8102776" lon="-118.3944809">
  <ele>-25.01</ele>
  <time>2026-09-01T01:14:11Z</time>
  <course>273.07</course>
  <speed>0.9712878049270464</speed>
  <fix>3d</fix>
</trkpt>
<trkpt lat="33.8102784" lon="-118.3944811">
  <ele>-24.4</ele>
  <time>2026-09-01T01:14:11Z</time>
  <course>184.41</course>
  <speed>1.01</speed>
  <fix>3d</fix>
</trkpt>
<trkpt lat="33.8102766" lon="-118.394481">
  <ele>-25.011</ele>
  <time>2026-09-01T01:14:11Z</time>
  <course>273.19</course>
  <speed>0.9712878049270464</speed>
  <fix>3d</fix>
</trkpt>
<trkpt lat="33.8102784" lon="-118.3944811">
  <ele>-24.4</ele>
  <time>2026-09-01T01:14:11Z</time>
  <course>184.41</course>
  <speed>1.01</speed>
  <fix>3d</fix>
</trkpt>
<trkpt lat="33.8102757" lon="-118.3944811">
  <ele>-25.013</ele>
  <time>2026-09-01T01:14:11Z</time>
  <course>273.32</course>
  <speed>0.9712878049270464</speed>
  <fix>3d</fix>
</trkpt>
<trkpt lat="33.8102765" lon="-118.3944812">
  <ele>-24.4</ele>
  <time>2026-09-01T01:14:11Z</time>
  <course>184.57</course>
  <speed>1.01</speed>
  <fix>3d</fix>
</trkpt>
<trkpt lat="33.8102748" lon="-118.3944811">
  <ele>-25.014</ele>
  <time>2026-09-01T01:14:11Z</time>
  <course>273.45</course>
  <speed>0.9712878049270464</speed>
  <fix>3d</fix>
</trkpt>
<trkpt lat="33.8102765" lon="-118.3944812">
  <ele>-24.4</ele>
  <time>2026-09-01T01:14:11Z</time>
  <course>184.57</course>
  <speed>1.01</speed>
  <fix>3d</fix>
</trkpt>
<trkpt lat="33.8102739" lon="-118.3944812">
  <ele>-25.015</ele>
  <time>2026-09-01T01:14:11Z</time>
  <course>273.57</course>
  <speed>0.9712878049270464</speed>
  <fix>3d</fix>
</trkpt>
<trkpt lat="33.8102748" lon="-118.3944814">
  <ele>-24.41</ele>
  <time>2026-09-01T01:14:11Z</time>
  <course>184.73</course>
  <speed>1.01</speed>
  <fix>3d</fix>
</trkpt>
<trkpt lat="33.810273" lon="-118.3944813">
  <ele>-25.016</ele>
  <time>2026-09-01T01:14:11Z</time>
  <course>273.7</course>
  <speed>0.9718538984847466</speed>
  <fix>3d</fix>
</trkpt>
<trkpt lat="33.8102748" lon="-118.3944814">
  <ele>-24.41</ele>
  <time>2026-09-01T01:14:11Z</time>
  <course>184.73</course>
  <speed>1.01</speed>
  <fix>3d</fix>
</trkpt>
<trkpt lat="33.8102721" lon="-118.3944814">
  <ele>-25.016</ele>
  <time>2026-09-01T01:14:11Z</time>
  <course>273.82</course>
  <speed>0.9718538984847466</speed>
  <fix>3d</fix>
</trkpt>
<trkpt lat="33.8102729" lon="-118.3944816">
  <ele>-24.41</ele>
  <time>2026-09-01T01:14:11Z</time>
  <course>184.94</course>
  <speed>1.01</speed>
  <fix>3d</fix>
</trkpt>
<trkpt lat="33.8102712" lon="-118.3944815">
  <ele>-25.014</ele>
  <time>2026-09-01T01:14:11Z</time>
  <course>273.94</course>
  <speed>0.9718538984847466</speed>
  <fix>3d</fix>
</trkpt>
<trkpt lat="33.8102729" lon="-118.3944816">
  <ele>-24.41</ele>
  <time>2026-09-01T01:14:11Z</time>
  <course>184.94</course>
  <speed>1.01</speed>
  <fix>3d</fix>
</trkpt>
<trkpt lat="33.8102703" lon="-118.3944816">
  <ele>-25.014</ele>
  <time>2026-09-01T01:14:11Z</time>
  <course>274.07</course>
  <speed>0.9718538984847466</speed>
  <fix>3d</fix>
</trkpt>
<trkpt lat="33.8102712" lon="-118.3944818">
  <ele>-24.41</ele>
  <time>2026-09-01T01:14:11Z</time>
  <course>185.14</course>
  <speed>1.01</speed>
  <fix>3d</fix>
</trkpt>
<trkpt lat="33.8102693" lon="-118.3944817">
  <ele>-25.012</ele>
  <time>2026-09-01T01:14:11Z</time>
  <course>274.18</course>
  <speed>0.9718538984847466</speed>
  <fix>3d</fix>
</trkpt>
<trkpt lat="33.8102712" lon="-118.3944818">
  <ele>-24.41</ele>
  <time>2026-09-01T01:14:11Z</time>
  <course>185.14</course>
  <speed>1.01</speed>
  <fix>3d</fix>
</trkpt>
<trkpt lat="33.8102684" lon="-118.3944818">
  <ele>-25.012</ele>
  <time>2026-09-01T01:14:11Z</time>
  <course>274.31</course>
  <speed>0.9718538984847466</speed>
  <fix>3d</fix>
</trkpt>
<trkpt lat="33.8102693" lon="-118.3944819">
  <ele>-24.41</ele>
  <time>2026-09-01T01:14:11Z</time>
  <course>185.33</course>
  <speed>1.01</speed>
  <fix>3d</fix>
</trkpt>
<trkpt lat="33.8102675" lon="-118.3944819">
  <ele>-25.013</ele>
  <time>2026-09-01T01:14:12Z</time>
  <course>274.44</course>
  <speed>0.9718538984847466</speed>
  <fix>3d</fix>
</trkpt>
<trkpt lat="33.8102693" lon="-118.3944819">
  <ele>-24.41</ele>
  <time>2026-09-01T01:14:12Z</time>
  <course>185.33</course>
  <speed>1.01</speed>
  <fix>3d</fix>
</trkpt>
<trkpt lat="33.8102666" lon="-118.394482">
  <ele>-25.015</ele>
  <time>2026-09-01T01:14:12Z</time>
  <course>274.56</course>
  <speed>0.9725224933131367</speed>
  <fix>3d</fix>
</trkpt>
<trkpt lat="33.8102675" lon="-118.3944822">
  <ele>-24.41</ele>
  <time>2026-09-01T01:14:12Z</time>
  <course>185.55</course>
  <speed>1.01</speed>
  <fix>3d</fix>
</trkpt>
<trkpt lat="33.8102657" lon="-118.3944821">
  <ele>-25.017</ele>
  <time>2026-09-01T01:14:12Z</time>
  <course>274.69</course>
  <speed>0.9725224933131367</speed>
  <fix>3d</fix>
</trkpt>
<trkpt lat="33.8102675" lon="-118.3944822">
  <ele>-24.41</ele>
  <time>2026-09-01T01:14:12Z</time>
  <course>185.55</course>
  <speed>1.01</speed>
  <fix>3d</fix>
</trkpt>
<trkpt lat="33.8102648" lon="-118.3944822">
  <ele>-25.018</ele>
  <time>2026-09-01T01:14:12Z</time>
  <course>274.81</course>
  <speed>0.9725224933131367</speed>
  <fix>3d</fix>
</trkpt>
<trkpt lat="33.8102657" lon="-118.3944823">
  <ele>-24.41</ele>
  <time>2026-09-01T01:14:12Z</time>
  <course>185.8</course>
  <speed>1.01</speed>
  <fix>3d</fix>
</trkpt>
<trkpt lat="33.8102639" lon="-118.3944823">
  <ele>-25.019</ele>
  <time>2026-09-01T01:14:12Z</time>
  <course>274.93</course>
  <speed>0.9725224933131367</speed>
  <fix>3d</fix>
</trkpt>
<trkpt lat="33.8102657" lon="-118.3944823">
  <ele>-24.41</ele>
  <time>2026-09-01T01:14:12Z</time>
  <course>185.8</course>
  <speed>1.01</speed>
  <fix>3d</fix>
</trkpt>
<trkpt lat="33.810263" lon="-118.3944824">
  <ele>-25.019</ele>
  <time>2026-09-01T01:14:12Z</time>
  <course>275.06</course>
  <speed>0.9732933781753578</speed>
  <fix>3d</fix>
</trkpt>
<trkpt lat="33.8102638" lon="-118.3944826">
  <ele>-24.41</ele>
  <time>2026-09-01T01:14:12Z</time>
  <course>186.05</course>
  <speed>1.0</speed>
  <fix>3d</fix>
</trkpt>
<trkpt lat="33.8102621" lon="-118.3944825">
  <ele>-25.017</ele>
  <time>2026-09-01T01:14:12Z</time>
  <course>275.18</course>
  <speed>0.9732933781753578</speed>
  <fix>3d</fix>
</trkpt>
<trkpt lat="33.8102638" lon="-118.3944826">
  <ele>-24.41</ele>
  <time>2026-09-01T01:14:12Z</time>
  <course>186.05</course>
  <speed>1.0</speed>
  <fix>3d</fix>
</trkpt>
<trkpt lat="33.8102612" lon="-118.3944827">
  <ele>-25.014</ele>
  <time>2026-09-01T01:14:12Z</time>
  <course>275.31</course>
  <speed>0.9732933781753578</speed>
  <fix>3d</fix>
</trkpt>
<trkpt lat="33.8102621" lon="-118.3944828">
  <ele>-24.4</ele>
  <time>2026-09-01T01:14:12Z</time>
  <course>186.32</course>
  <speed>1.0</speed>
  <fix>3d</fix>
</trkpt>
<trkpt lat="33.8102603" lon="-118.3944828">
  <ele>-25.013</ele>
  <time>2026-09-01T01:14:12Z</time>
  <course>275.43</course>
  <speed>0.9732933781753578</speed>
  <fix>3d</fix>
</trkpt>
<trkpt lat="33.8102621" lon="-118.3944828">
  <ele>-24.4</ele>
  <time>2026-09-01T01:14:12Z</time>
  <course>186.32</course>
  <speed>1.0</speed>
  <fix>3d</fix>
</trkpt>
<trkpt lat="33.8102594" lon="-118.3944829">
  <ele>-25.011</ele>
  <time>2026-09-01T01:14:12Z</time>
  <course>275.55</course>
  <speed>0.9732933781753578</speed>
  <fix>3d</fix>
</trkpt>
<trkpt lat="33.8102602" lon="-118.3944831">
  <ele>-24.4</ele>
  <time>2026-09-01T01:14:12Z</time>
  <course>186.57</course>
  <speed>1.0</speed>
  <fix>3d</fix>
</trkpt>
<trkpt lat="33.8102585" lon="-118.394483">
  <ele>-25.011</ele>
  <time>2026-09-01T01:14:12Z</time>
  <course>275.67</course>
  <speed>0.9732933781753578</speed>
  <fix>3d</fix>
</trkpt>
<trkpt lat="33.8102602" lon="-118.3944831">
  <ele>-24.4</ele>
  <time>2026-09-01T01:14:12Z</time>
  <course>186.57</course>
  <speed>1.0</speed>
  <fix>3d</fix>
</trkpt>
<trkpt lat="33.8102576" lon="-118.3944832">
  <ele>-25.012</ele>
  <time>2026-09-01T01:14:12Z</time>
  <course>275.79</course>
  <speed>0.9741663102366043</speed>
  <fix>3d</fix>
</trkpt>
<trkpt lat="33.8102585" lon="-118.3944833">
  <ele>-24.4</ele>
  <time>2026-09-01T01:14:12Z</time>
  <course>186.8</course>
  <speed>1.0</speed>
  <fix>3d</fix>
</trkpt>
<trkpt lat="33.8102567" lon="-118.3944833">
  <ele>-25.013</ele>
  <time>2026-09-01T01:14:12Z</time>
  <course>275.92</course>
  <speed>0.9741663102366043</speed>
  <fix>3d</fix>
</trkpt>
<trkpt lat="33.8102585" lon="-118.3944833">
  <ele>-24.4</ele>
  <time>2026-09-01T01:14:12Z</time>
  <course>186.8</course>
  <speed>1.0</speed>
  <fix>3d</fix>
</trkpt>
<trkpt lat="33.8102558" lon="-118.3944834">
  <ele>-25.014</ele>
  <time>2026-09-01T01:14:12Z</time>
  <course>276.04</course>
  <speed>0.9741663102366043</speed>
  <fix>3d</fix>
</trkpt>
<trkpt lat="33.8102568" lon="-118.3944836">
  <ele>-24.4</ele>
  <time>2026-09-01T01:14:12Z</time>
  <course>187.0</course>
  <speed>1.0</speed>
  <fix>3d</fix>
</trkpt>
<trkpt lat="33.8102549" lon="-118.3944835">
  <ele>-25.014</ele>
  <time>2026-09-01T01:14:12Z</time>
  <course>276.17</course>
  <speed>0.9741663102366043</speed>
  <fix>3d</fix>
</trkpt>
<trkpt lat="33.8102568" lon="-118.3944836">
  <ele>-24.4</ele>
  <time>2026-09-01T01:14:12Z</time>
  <course>187.0</course>
  <speed>1.0</speed>
  <fix>3d</fix>
</trkpt>
<trkpt lat="33.810254" lon="-118.3944837">
  <ele>-25.012</ele>
  <time>2026-09-01T01:14:12Z</time>
  <course>276.28</course>
  <speed>0.9741663102366043</speed>
  <fix>3d</fix>
</trkpt>
<trkpt lat="33.810255" lon="-118.3944838">
  <ele>-24.4</ele>
  <time>2026-09-01T01:14:12Z</time>
  <course>187.17</course>
  <speed>1.0</speed>
  <fix>3d</fix>
</trkpt>
<trkpt lat="33.8102531" lon="-118.3944838">
  <ele>-25.01</ele>
  <time>2026-09-01T01:14:12Z</time>
  <course>276.4</course>
  <speed>0.9741663102366043</speed>
  <fix>3d</fix>
</trkpt>
<trkpt lat="33.810255" lon="-118.3944838">
  <ele>-24.4</ele>
  <time>2026-09-01T01:14:12Z</time>
  <course>187.17</course>
  <speed>1.0</speed>
  <fix>3d</fix>
</trkpt>
<trkpt lat="33.8102522" lon="-118.394484">
  <ele>-25.007</ele>
  <time>2026-09-01T01:14:12Z</time>
  <course>276.53</course>
  <speed>0.9751410154434076</speed>
  <fix>3d</fix>
</trkpt>
<trkpt lat="33.8102532" lon="-118.3944841">
  <ele>-24.4</ele>
  <time>2026-09-01T01:14:12Z</time>
  <course>187.35</course>
  <speed>1.0</speed>
  <fix>3d</fix>
</trkpt>
<trkpt lat="33.8102513" lon="-118.3944841">
  <ele>-25.007</ele>
  <time>2026-09-01T01:14:12Z</time>
  <course>276.65</course>
  <speed>0.9751410154434076</speed>
  <fix>3d</fix>
</trkpt>
<trkpt lat="33.8102532" lon="-118.3944841">
  <ele>-24.4</ele>
  <time>2026-09-01T01:14:12Z</time>
  <course>187.35</course>
  <speed>1.0</speed>
  <fix>3d</fix>
</trkpt>
<trkpt lat="33.8102504" lon="-118.3944842">
  <ele>-25.008</ele>
  <time>2026-09-01T01:14:12Z</time>
  <course>276.77</course>
  <speed>0.9850888284819801</speed>
  <fix>3d</fix>
</trkpt>
<trkpt lat="33.8102514" lon="-118.3944844">
  <ele>-24.4</ele>
  <time>2026-09-01T01:14:12Z</time>
  <course>187.57</course>
  <speed>1.0</speed>
  <fix>3d</fix>
</trkpt>
<trkpt lat="33.8102495" lon="-118.3944844">
  <ele>-25.009</ele>
  <time>2026-09-01T01:14:12Z</time>
  <course>276.9</course>
  <speed>0.9850888284819801</speed>
  <fix>3d</fix>
</trkpt>
<trkpt lat="33.8102514" lon="-118.3944844">
  <ele>-24.4</ele>
  <time>2026-09-01T01:14:12Z</time>
  <course>187.57</course>
  <speed>1.0</speed>
  <fix>3d</fix>
</trkpt>
<trkpt lat="33.8102486" lon="-118.3944845">
  <ele>-25.011</ele>
  <time>2026-09-01T01:14:12Z</time>
  <course>277.02</course>
  <speed>0.9850888284819801</speed>
  <fix>3d</fix>
</trkpt>
<trkpt lat="33.8102495" lon="-118.3944847">
  <ele>-24.4</ele>
  <time>2026-09-01T01:14:12Z</time>
  <course>187.76</course>
  <speed>1.0</speed>
  <fix>3d</fix>
</trkpt>
<trkpt lat="33.8102477" lon="-118.3944847">
  <ele>-25.013</ele>
  <time>2026-09-01T01:14:12Z</time>
  <course>277.14</course>
  <speed>0.9751410154434076</speed>
  <fix>3d</fix>
</trkpt>
<trkpt lat="33.8102495" lon="-118.3944847">
  <ele>-24.4</ele>
  <time>2026-09-01T01:14:12Z</time>
  <course>187.76</course>
  <speed>1.0</speed>
  <fix>3d</fix>
</trkpt>
<trkpt lat="33.8102468" lon="-118.3944848">
  <ele>-25.014</ele>
  <time>2026-09-01T01:14:12Z</time>
  <course>277.26</course>
  <speed>0.9762171889492625</speed>
  <fix>3d</fix>
</trkpt>
<trkpt lat="33.8102478" lon="-118.394485">
  <ele>-24.4</ele>
  <time>2026-09-01T01:14:12Z</time>
  <course>187.95</course>
  <speed>1.0</speed>
  <fix>3d</fix>
</trkpt>
<trkpt lat="33.8102459" lon="-118.394485">
  <ele>-25.016</ele>
  <time>2026-09-01T01:14:12Z</time>
  <course>277.39</course>
  <speed>0.9762171889492625</speed>
  <fix>3d</fix>
</trkpt>
<trkpt lat="33.8102478" lon="-118.394485">
  <ele>-24.4</ele>
  <time>2026-09-01T01:14:12Z</time>
  <course>187.95</course>
  <speed>1.0</speed>
  <fix>3d</fix>
</trkpt>
<trkpt lat="33.810245" lon="-118.3944851">
  <ele>-25.017</ele>
  <time>2026-09-01T01:14:12Z</time>
  <course>277.51</course>
  <speed>0.9762171889492625</speed>
  <fix>3d</fix>
</trkpt>
<trkpt lat="33.8102459" lon="-118.3944853">
  <ele>-24.41</ele>
  <time>2026-09-01T01:14:12Z</time>
  <course>188.15</course>
  <speed>1.0</speed>
  <fix>3d</fix>
</trkpt>
<trkpt lat="33.8102441" lon="-118.3944853">
  <ele>-25.018</ele>
  <time>2026-09-01T01:14:12Z</time>
  <course>277.63</course>
  <speed>0.9762171889492625</speed>
  <fix>3d</fix>
</trkpt>
<trkpt lat="33.8102459" lon="-118.3944853">
  <ele>-24.41</ele>
  <time>2026-09-01T01:14:12Z</time>
  <course>188.15</course>
  <speed>1.0</speed>
  <fix>3d</fix>
</trkpt>
<trkpt lat="33.8102432" lon="-118.3944855">
  <ele>-25.018</ele>
  <time>2026-09-01T01:14:12Z</time>
  <course>277.75</course>
  <speed>0.9762171889492625</speed>
  <fix>3d</fix>
</trkpt>
<trkpt lat="33.8102442" lon="-118.3944856">
  <ele>-24.41</ele>
  <time>2026-09-01T01:14:12Z</time>
  <course>188.35</course>
  <speed>1.0</speed>
  <fix>3d</fix>
</trkpt>
<trkpt lat="33.8102423" lon="-118.3944856">
  <ele>-25.017</ele>
  <time>2026-09-01T01:14:12Z</time>
  <course>277.87</course>
  <speed>0.9762171889492625</speed>
  <fix>3d</fix>
</trkpt>
<trkpt lat="33.8102442" lon="-118.3944856">
  <ele>-24.41</ele>
  <time>2026-09-01T01:14:12Z</time>
  <course>188.35</course>
  <speed>1.0</speed>
  <fix>3d</fix>
</trkpt>
<trkpt lat="33.8102414" lon="-118.3944858">
  <ele>-25.016</ele>
  <time>2026-09-01T01:14:12Z</time>
  <course>277.99</course>
  <speed>0.9773944955850733</speed>
  <fix>3d</fix>
</trkpt>
<trkpt lat="33.8102423" lon="-118.394486">
  <ele>-24.41</ele>
  <time>2026-09-01T01:14:12Z</time>
  <course>188.56</course>
  <speed>1.0</speed>
  <fix>3d</fix>
</trkpt>
<trkpt lat="33.8102405" lon="-118.394486">
  <ele>-25.016</ele>
  <time>2026-09-01T01:14:12Z</time>
  <course>278.11</course>
  <speed>0.9773944955850733</speed>
  <fix>3d</fix>
</trkpt>
<trkpt lat="33.8102423" lon="-118.394486">
  <ele>-24.41</ele>
  <time>2026-09-01T01:14:12Z</time>
  <course>188.56</course>
  <speed>1.0</speed>
  <fix>3d</fix>
</trkpt>
<trkpt lat="33.8102396" lon="-118.3944861">
  <ele>-25.015</ele>
  <time>2026-09-01T01:14:12Z</time>
  <course>278.23</course>
  <speed>0.9773944955850733</speed>
  <fix>3d</fix>
</trkpt>
<trkpt lat="33.8102406" lon="-118.3944863">
  <ele>-24.4</ele>
  <time>2026-09-01T01:14:12Z</time>
  <course>188.74</course>
  <speed>1.0</speed>
  <fix>3d</fix>
</trkpt>
<trkpt lat="33.8102387" lon="-118.3944863">
  <ele>-25.014</ele>
  <time>2026-09-01T01:14:12Z</time>
  <course>278.36</course>
  <speed>0.9773944955850733</speed>
  <fix>3d</fix>
</trkpt>
<trkpt lat="33.8102406" lon="-118.3944863">
  <ele>-24.4</ele>
  <time>2026-09-01T01:14:12Z</time>
  <course>188.74</course>
  <speed>1.0</speed>
  <fix>3d</fix>
</trkpt>
<trkpt lat="33.8102378" lon="-118.3944865">
  <ele>-25.013</ele>
  <time>2026-09-01T01:14:12Z</time>
  <course>278.48</course>
  <speed>0.9773944955850733</speed>
  <fix>3d</fix>
</trkpt>
<trkpt lat="33.8102387" lon="-118.3944866">
  <ele>-24.4</ele>
  <time>2026-09-01T01:14:12Z</time>
  <course>188.9</course>
  <speed>1.0</speed>
  <fix>3d</fix>
</trkpt>
<trkpt lat="33.8102369" lon="-118.3944866">
  <ele>-25.013</ele>
  <time>2026-09-01T01:14:12Z</time>
  <course>278.6</course>
  <speed>0.9786725703727472</speed>
  <fix>3d</fix>
</trkpt>
<trkpt lat="33.8102387" lon="-118.3944866">
  <ele>-24.4</ele>
  <time>2026-09-01T01:14:12Z</time>
  <course>188.9</course>
  <speed>1.0</speed>
  <fix>3d</fix>
</trkpt>
<trkpt lat="33.810236" lon="-118.3944868">
  <ele>-25.013</ele>
  <time>2026-09-01T01:14:12Z</time>
  <course>278.72</course>
  <speed>0.9786725703727472</speed>
  <fix>3d</fix>
</trkpt>
<trkpt lat="33.810237" lon="-118.394487">
  <ele>-24.4</ele>
  <time>2026-09-01T01:14:12Z</time>
  <course>189.1</course>
  <speed>1.0</speed>
  <fix>3d</fix>
</trkpt>
<trkpt lat="33.8102351" lon="-118.394487">
  <ele>-25.012</ele>
  <time>2026-09-01T01:14:12Z</time>
  <course>278.84</course>
  <speed>0.9786725703727472</speed>
  <fix>3d</fix>
</trkpt>
<trkpt lat="33.810237" lon="-118.394487">
  <ele>-24.4</ele>
  <time>2026-09-01T01:14:12Z</time>
  <course>189.1</course>
  <speed>1.0</speed>
  <fix>3d</fix>
</trkpt>
<trkpt lat="33.8102342" lon="-118.3944872">
  <ele>-25.012</ele>
  <time>2026-09-01T01:14:12Z</time>
  <course>278.96</course>
  <speed>0.9786725703727472</speed>
  <fix>3d</fix>
</trkpt>
<trkpt lat="33.8102353" lon="-118.3944873">
  <ele>-24.4</ele>
  <time>2026-09-01T01:14:12Z</time>
  <course>189.32</course>
  <speed>1.0</speed>
  <fix>3d</fix>
</trkpt>
<trkpt lat="33.8102333" lon="-118.3944874">
  <ele>-25.012</ele>
  <time>2026-09-01T01:14:12Z</time>
  <course>279.09</course>
  <speed>0.9786725703727472</speed>
  <fix>3d</fix>
</trkpt>
<trkpt lat="33.8102353" lon="-118.3944873">
  <ele>-24.4</ele>
  <time>2026-09-01T01:14:12Z</time>
  <course>189.32</course>
  <speed>1.0</speed>
  <fix>3d</fix>
</trkpt>
<trkpt lat="33.8102324" lon="-118.3944875">
  <ele>-25.012</ele>
  <time>2026-09-01T01:14:12Z</time>
  <course>279.21</course>
  <speed>0.9800510190801294</speed>
  <fix>3d</fix>
</trkpt>
<trkpt lat="33.8102334" lon="-118.3944877">
  <ele>-24.4</ele>
  <time>2026-09-01T01:14:12Z</time>
  <course>189.52</course>
  <speed>1.0</speed>
  <fix>3d</fix>
</trkpt>
<trkpt lat="33.8102315" lon="-118.3944877">
  <ele>-25.011</ele>
  <time>2026-09-01T01:14:12Z</time>
  <course>279.33</course>
  <speed>0.9800510190801294</speed>
  <fix>3d</fix>
</trkpt>
<trkpt lat="33.8102334" lon="-118.3944877">
  <ele>-24.4</ele>
  <time>2026-09-01T01:14:12Z</time>
  <course>189.52</course>
  <speed>1.0</speed>
  <fix>3d</fix>
</trkpt>
<trkpt lat="33.8102306" lon="-118.3944879">
  <ele>-25.01</ele>
  <time>2026-09-01T01:14:12Z</time>
  <course>279.45</course>
  <speed>0.9800510190801294</speed>
  <fix>3d</fix>
</trkpt>
<trkpt lat="33.8102317" lon="-118.394488">
  <ele>-24.4</ele>
  <time>2026-09-01T01:14:12Z</time>
  <course>189.72</course>
  <speed>1.0</speed>
  <fix>3d</fix>
</trkpt>
<trkpt lat="33.8102297" lon="-118.3944881">
  <ele>-25.009</ele>
  <time>2026-09-01T01:14:12Z</time>
  <course>279.57</course>
  <speed>0.9800510190801294</speed>
  <fix>3d</fix>
</trkpt>
<trkpt lat="33.8102317" lon="-118.394488">
  <ele>-24.4</ele>
  <time>2026-09-01T01:14:12Z</time>
  <course>189.72</course>
  <speed>1.0</speed>
  <fix>3d</fix>
</trkpt>
<trkpt lat="33.8102288" lon="-118.3944883">
  <ele>-25.009</ele>
  <time>2026-09-01T01:14:12Z</time>
  <course>279.69</course>
  <speed>0.9800510190801294</speed>
  <fix>3d</fix>
</trkpt>
<trkpt lat="33.8102298" lon="-118.3944884">
  <ele>-24.4</ele>
  <time>2026-09-01T01:14:12Z</time>
  <course>189.96</course>
  <speed>1.0</speed>
  <fix>3d</fix>
</trkpt>
<trkpt lat="33.8102279" lon="-118.3944885">
  <ele>-25.009</ele>
  <time>2026-09-01T01:14:12Z</time>
  <course>279.81</course>
  <speed>0.9815294188153507</speed>
  <fix>3d</fix>
</trkpt>
<trkpt lat="33.8102298" lon="-118.3944884">
  <ele>-24.4</ele>
  <time>2026-09-01T01:14:12Z</time>
  <course>189.96</course>
  <speed>1.0</speed>
  <fix>3d</fix>
</trkpt>
<trkpt lat="33.810227" lon="-118.3944887">
  <ele>-25.01</ele>
  <time>2026-09-01T01:14:12Z</time>
  <course>279.93</course>
  <speed>0.9815294188153507</speed>
  <fix>3d</fix>
</trkpt>
<trkpt lat="33.8102281" lon="-118.3944888">
  <ele>-24.4</ele>
  <time>2026-09-01T01:14:12Z</time>
  <course>190.23</course>
  <speed>1.0</speed>
  <fix>3d</fix>
</trkpt>
<trkpt lat="33.8102262" lon="-118.3944889">
  <ele>-25.012</ele>
  <time>2026-09-01T01:14:12Z</time>
  <course>280.05</course>
  <speed>0.9815294188153507</speed>
  <fix>3d</fix>
</trkpt>
<trkpt lat="33.8102281" lon="-118.3944888">
  <ele>-24.4</ele>
  <time>2026-09-01T01:14:12Z</time>
  <course>190.23</course>
  <speed>1.0</speed>
  <fix>3d</fix>
</trkpt>
<trkpt lat="33.8102253" lon="-118.3944891">
  <ele>-25.013</ele>
  <time>2026-09-01T01:14:12Z</time>
  <course>280.17</course>
  <speed>0.9815294188153507</speed>
  <fix>3d</fix>
</trkpt>
<trkpt lat="33.8102264" lon="-118.3944892">
  <ele>-24.4</ele>
  <time>2026-09-01T01:14:12Z</time>
  <course>190.5</course>
  <speed>1.0</speed>
  <fix>3d</fix>
</trkpt>
<trkpt lat="33.8102244" lon="-118.3944893">
  <ele>-25.014</ele>
  <time>2026-09-01T01:14:12Z</time>
  <course>280.29</course>
  <speed>0.9831073186585481</speed>
  <fix>3d</fix>
</trkpt>
<trkpt lat="33.8102264" lon="-118.3944892">
  <ele>-24.4</ele>
  <time>2026-09-01T01:14:12Z</time>
  <course>190.5</course>
  <speed>1.0</speed>
  <fix>3d</fix>
</trkpt>
<trkpt lat="33.8102235" lon="-118.3944895">
  <ele>-25.014</ele>
  <time>2026-09-01T01:14:12Z</time>
  <course>280.41</course>
  <speed>0.9831073186585481</speed>
  <fix>3d</fix>
</trkpt>
<trkpt lat="33.8102246" lon="-118.3944895">
  <ele>-24.41</ele>
  <time>2026-09-01T01:14:12Z</time>
  <course>190.71</course>
  <speed>1.0</speed>
  <fix>3d</fix>
</trkpt>
<trkpt lat="33.8102226" lon="-118.3944897">
  <ele>-25.013</ele>
  <time>2026-09-01T01:14:12Z</time>
  <course>280.53</course>
  <speed>0.9831073186585481</speed>
  <fix>3d</fix>
</trkpt>
<trkpt lat="33.8102246" lon="-118.3944895">
  <ele>-24.41</ele>
  <time>2026-09-01T01:14:12Z</time>
  <course>190.71</course>
  <speed>1.0</speed>
  <fix>3d</fix>
</trkpt>
<trkpt lat="33.8102217" lon="-118.3944899">
  <ele>-25.013</ele>
  <time>2026-09-01T01:14:12Z</time>
  <course>280.65</course>
  <speed>0.9831073186585481</speed>
  <fix>3d</fix>
</trkpt>
<trkpt lat="33.8102228" lon="-118.39449">
  <ele>-24.41</ele>
  <time>2026-09-01T01:14:12Z</time>
  <course>190.95</course>
  <speed>1.0</speed>
  <fix>3d</fix>
</trkpt>
<trkpt lat="33.8102208" lon="-118.3944901">
  <ele>-25.013</ele>
  <time>2026-09-01T01:14:12Z</time>
  <course>280.77</course>
  <speed>0.9831073186585481</speed>
  <fix>3d</fix>
</trkpt>
<trkpt lat="33.8102228" lon="-118.39449">
  <ele>-24.41</ele>
  <time>2026-09-01T01:14:12Z</time>
  <course>190.95</course>
  <speed>1.0</speed>
  <fix>3d</fix>
</trkpt>
<trkpt lat="33.8102199" lon="-118.3944904">
  <ele>-25.013</ele>
  <time>2026-09-01T01:14:12Z</time>
  <course>280.89</course>
  <speed>0.9847842403288144</speed>
  <fix>3d</fix>
</trkpt>
<trkpt lat="33.810221" lon="-118.3944904">
  <ele>-24.41</ele>
  <time>2026-09-01T01:14:12Z</time>
  <course>191.21</course>
  <speed>1.0</speed>
  <fix>3d</fix>
</trkpt>
<trkpt lat="33.8102191" lon="-118.3944906">
  <ele>-25.013</ele>
  <time>2026-09-01T01:14:12Z</time>
  <course>281.01</course>
  <speed>0.9847842403288144</speed>
  <fix>3d</fix>
</trkpt>
<trkpt lat="33.810221" lon="-118.3944904">
  <ele>-24.41</ele>
  <time>2026-09-01T01:14:12Z</time>
  <course>191.21</course>
  <speed>1.0</speed>
  <fix>3d</fix>
</trkpt>
<trkpt lat="33.8102182" lon="-118.3944908">
  <ele>-25.014</ele>
  <time>2026-09-01T01:14:12Z</time>
  <course>281.13</course>
  <speed>0.9847842403288144</speed>
  <fix>3d</fix>
</trkpt>
<trkpt lat="33.8102193" lon="-118.3944908">
  <ele>-24.41</ele>
  <time>2026-09-01T01:14:12Z</time>
  <course>191.45</course>
  <speed>1.0</speed>
  <fix>3d</fix>
</trkpt>
<trkpt lat="33.8102173" lon="-118.394491">
  <ele>-25.015</ele>
  <time>2026-09-01T01:14:12Z</time>
  <course>281.25</course>
  <speed>0.9847842403288144</speed>
  <fix>3d</fix>
</trkpt>
<trkpt lat="33.8102193" lon="-118.3944908">
  <ele>-24.41</ele>
  <time>2026-09-01T01:14:12Z</time>
  <course>191.45</course>
  <speed>1.0</speed>
  <fix>3d</fix>
</trkpt>
<trkpt lat="33.8102164" lon="-118.3944912">
  <ele>-25.016</ele>
  <time>2026-09-01T01:14:12Z</time>
  <course>281.38</course>
  <speed>0.9865596788841515</speed>
  <fix>3d</fix>
</trkpt>
<trkpt lat="33.8102174" lon="-118.3944913">
  <ele>-24.41</ele>
  <time>2026-09-01T01:14:12Z</time>
  <course>191.71</course>
  <speed>1.0</speed>
  <fix>3d</fix>
</trkpt>
<trkpt lat="33.8102155" lon="-118.3944915">
  <ele>-25.018</ele>
  <time>2026-09-01T01:14:12Z</time>
  <course>281.49</course>
  <speed>0.9865596788841515</speed>
  <fix>3d</fix>
</trkpt>
<trkpt lat="33.8102174" lon="-118.3944913">
  <ele>-24.41</ele>
  <time>2026-09-01T01:14:12Z</time>
  <course>191.71</course>
  <speed>1.0</speed>
  <fix>3d</fix>
</trkpt>
<trkpt lat="33.8102146" lon="-118.3944917">
  <ele>-25.018</ele>
  <time>2026-09-01T01:14:12Z</time>
  <course>281.61</course>
  <speed>0.9767292357659824</speed>
  <fix>3d</fix>
</trkpt>
<trkpt lat="33.8102157" lon="-118.3944917">
  <ele>-24.41</ele>
  <time>2026-09-01T01:14:12Z</time>
  <course>191.95</course>
  <speed>1.0</speed>
  <fix>3d</fix>
</trkpt>
<trkpt lat="33.8102137" lon="-118.3944919">
  <ele>-25.018</ele>
  <time>2026-09-01T01:14:12Z</time>
  <course>281.73</course>
  <speed>0.9767292357659824</speed>
  <fix>3d</fix>
</trkpt>
<trkpt lat="33.8102157" lon="-118.3944917">
  <ele>-24.41</ele>
  <time>2026-09-01T01:14:12Z</time>
  <course>191.95</course>
  <speed>1.0</speed>
  <fix>3d</fix>
</trkpt>
<trkpt lat="33.8102128" lon="-118.3944922">
  <ele>-25.017</ele>
  <time>2026-09-01T01:14:12Z</time>
  <course>281.85</course>
  <speed>0.9767292357659824</speed>
  <fix>3d</fix>
</trkpt>
<trkpt lat="33.810214" lon="-118.3944922">
  <ele>-24.41</ele>
  <time>2026-09-01T01:14:12Z</time>
  <course>192.16</course>
  <speed>1.0</speed>
  <fix>3d</fix>
</trkpt>
<trkpt lat="33.810212" lon="-118.3944924">
  <ele>-25.015</ele>
  <time>2026-09-01T01:14:12Z</time>
  <course>281.97</course>
  <speed>0.9767292357659824</speed>
  <fix>3d</fix>
</trkpt>
<trkpt lat="33.810214" lon="-118.3944922">
  <ele>-24.41</ele>
  <time>2026-09-01T01:14:12Z</time>
  <course>192.16</course>
  <speed>1.0</speed>
  <fix>3d</fix>
</trkpt>
<trkpt lat="33.8102111" lon="-118.3944926">
  <ele>-25.014</ele>
  <time>2026-09-01T01:14:12Z</time>
  <course>282.09</course>
  <speed>0.9786214794290998</speed>
  <fix>3d</fix>
</trkpt>
<trkpt lat="33.8102121" lon="-118.3944926">
  <ele>-24.41</ele>
  <time>2026-09-01T01:14:12Z</time>
  <course>192.39</course>
  <speed>1.0</speed>
  <fix>3d</fix>
</trkpt>
<trkpt lat="33.8102102" lon="-118.3944929">
  <ele>-25.013</ele>
  <time>2026-09-01T01:14:12Z</time>
  <course>282.21</course>
  <speed>0.9786214794290998</speed>
  <fix>3d</fix>
</trkpt>
<trkpt lat="33.8102121" lon="-118.3944926">
  <ele>-24.41</ele>
  <time>2026-09-01T01:14:12Z</time>
  <course>192.39</course>
  <speed>1.0</speed>
  <fix>3d</fix>
</trkpt>
<trkpt lat="33.8102093" lon="-118.3944931">
  <ele>-25.013</ele>
  <time>2026-09-01T01:14:12Z</time>
  <course>282.33</course>
  <speed>0.9786214794290998</speed>
  <fix>3d</fix>
</trkpt>
<trkpt lat="33.8102104" lon="-118.3944931">
  <ele>-24.41</ele>
  <time>2026-09-01T01:14:12Z</time>
  <course>192.62</course>
  <speed>1.0</speed>
  <fix>3d</fix>
</trkpt>
<trkpt lat="33.8102084" lon="-118.3944933">
  <ele>-25.013</ele>
  <time>2026-09-01T01:14:12Z</time>
  <course>282.44</course>
  <speed>0.9786214794290998</speed>
  <fix>3d</fix>
</trkpt>
<trkpt lat="33.8102104" lon="-118.3944931">
  <ele>-24.41</ele>
  <time>2026-09-01T01:14:12Z</time>
  <course>192.62</course>
  <speed>1.0</speed>
  <fix>3d</fix>
</trkpt>
<trkpt lat="33.8102076" lon="-118.3944936">
  <ele>-25.014</ele>
  <time>2026-09-01T01:14:12Z</time>
  <course>282.56</course>
  <speed>0.980612053770501</speed>
  <fix>3d</fix>
</trkpt>
<trkpt lat="33.8102087" lon="-118.3944936">
  <ele>-24.41</ele>
  <time>2026-09-01T01:14:12Z</time>
  <course>192.87</course>
  <speed>1.0</speed>
  <fix>3d</fix>
</trkpt>
<trkpt lat="33.8102067" lon="-118.3944938">
  <ele>-25.015</ele>
  <time>2026-09-01T01:14:12Z</time>
  <course>282.68</course>
  <speed>0.980612053770501</speed>
  <fix>3d</fix>
</trkpt>
<trkpt lat="33.8102087" lon="-118.3944936">
  <ele>-24.41</ele>
  <time>2026-09-01T01:14:12Z</time>
  <course>192.87</course>
  <speed>1.0</speed>
  <fix>3d</fix>
</trkpt>
<trkpt lat="33.8102058" lon="-118.3944941">
  <ele>-25.017</ele>
  <time>2026-09-01T01:14:12Z</time>
  <course>282.81</course>
  <speed>0.980612053770501</speed>
  <fix>3d</fix>
</trkpt>
<trkpt lat="33.8102069" lon="-118.3944941">
  <ele>-24.41</ele>
  <time>2026-09-01T01:14:12Z</time>
  <course>193.11</course>
  <speed>1.0</speed>
  <fix>3d</fix>
</trkpt>
<trkpt lat="33.8102049" lon="-118.3944943">
  <ele>-25.017</ele>
  <time>2026-09-01T01:14:12Z</time>
  <course>282.93</course>
  <speed>0.980612053770501</speed>
  <fix>3d</fix>
</trkpt>
<trkpt lat="33.8102069" lon="-118.3944941">
  <ele>-24.41</ele>
  <time>2026-09-01T01:14:12Z</time>
  <course>193.11</course>
  <speed>1.0</speed>
  <fix>3d</fix>
</trkpt>
<trkpt lat="33.810204" lon="-118.3944946">
  <ele>-25.017</ele>
  <time>2026-09-01T01:14:12Z</time>
  <course>283.04</course>
  <speed>0.980612053770501</speed>
  <fix>3d</fix>
</trkpt>
<trkpt lat="33.8102051" lon="-118.3944945">
  <ele>-24.41</ele>
  <time>2026-09-01T01:14:12Z</time>
  <course>193.31</course>
  <speed>1.0</speed>
  <fix>3d</fix>
</trkpt>
<trkpt lat="33.8102032" lon="-118.3944948">
  <ele>-25.015</ele>
  <time>2026-09-01T01:14:12Z</time>
  <course>283.16</course>
  <speed>0.980612053770501</speed>
  <fix>3d</fix>
</trkpt>
<trkpt lat="33.8102051" lon="-118.3944945">
  <ele>-24.41</ele>
  <time>2026-09-01T01:14:12Z</time>
  <course>193.31</course>
  <speed>1.0</speed>
  <fix>3d</fix>
</trkpt>
<trkpt lat="33.8102023" lon="-118.3944951">
  <ele>-25.013</ele>
  <time>2026-09-01T01:14:12Z</time>
  <course>283.28</course>
  <speed>0.982700361249552</speed>
  <fix>3d</fix>
</trkpt>
<trkpt lat="33.8102033" lon="-118.3944951">
  <ele>-24.4</ele>
  <time>2026-09-01T01:14:12Z</time>
  <course>193.55</course>
  <speed>1.0</speed>
  <fix>3d</fix>
</trkpt>
<trkpt lat="33.8102014" lon="-118.3944954">
  <ele>-25.011</ele>
  <time>2026-09-01T01:14:12Z</time>
  <course>283.4</course>
  <speed>0.982700361249552</speed>
  <fix>3d</fix>
</trkpt>
<trkpt lat="33.8102033" lon="-118.3944951">
  <ele>-24.4</ele>
  <time>2026-09-01T01:14:12Z</time>
  <course>193.55</course>
  <speed>1.0</speed>
  <fix>3d</fix>
</trkpt>
<trkpt lat="33.8102005" lon="-118.3944956">
  <ele>-25.01</ele>
  <time>2026-09-01T01:14:12Z</time>
  <course>283.52</course>
  <speed>0.982700361249552</speed>
  <fix>3d</fix>
</trkpt>
<trkpt lat="33.8102016" lon="-118.3944956">
  <ele>-24.4</ele>
  <time>2026-09-01T01:14:12Z</time>
  <course>193.83</course>
  <speed>1.0</speed>
  <fix>3d</fix>
</trkpt>
<trkpt lat="33.8101996" lon="-118.3944959">
  <ele>-25.009</ele>
  <time>2026-09-01T01:14:12Z</time>
  <course>283.64</course>
  <speed>0.982700361249552</speed>
  <fix>3d</fix>
</trkpt>
<trkpt lat="33.8102016" lon="-118.3944956">
  <ele>-24.4</ele>
  <time>2026-09-01T01:14:12Z</time>
  <course>193.83</course>
  <speed>1.0</speed>
  <fix>3d</fix>
</trkpt>
<trkpt lat="33.8101988" lon="-118.3944962">
  <ele>-25.009</ele>
  <time>2026-09-01T01:14:12Z</time>
  <course>283.76</course>
  <speed>0.9848857801796105</speed>
  <fix>3d</fix>
</trkpt>
<trkpt lat="33.8101998" lon="-118.3944961">
  <ele>-24.4</ele>
  <time>2026-09-01T01:14:12Z</time>
  <course>194.08</course>
  <speed>1.0</speed>
  <fix>3d</fix>
</trkpt>
<trkpt lat="33.8101979" lon="-118.3944964">
  <ele>-25.01</ele>
  <time>2026-09-01T01:14:12Z</time>
  <course>283.87</course>
  <speed>0.9751410154434076</speed>
  <fix>3d</fix>
</trkpt>
<trkpt lat="33.8101998" lon="-118.3944961">
  <ele>-24.4</ele>
  <time>2026-09-01T01:14:12Z</time>
  <course>194.08</course>
  <speed>1.0</speed>
  <fix>3d</fix>
</trkpt>
<trkpt lat="33.810197" lon="-118.3944967">
  <ele>-25.012</ele>
  <time>2026-09-01T01:14:12Z</time>
  <course>284.0</course>
  <speed>0.9751410154434076</speed>
  <fix>3d</fix>
</trkpt>
<trkpt lat="33.810198" lon="-118.3944966">
  <ele>-24.4</ele>
  <time>2026-09-01T01:14:12Z</time>
  <course>194.33</course>
  <speed>1.0</speed>
  <fix>3d</fix>
</trkpt>
<trkpt lat="33.8101961" lon="-118.394497">
  <ele>-25.012</ele>
  <time>2026-09-01T01:14:12Z</time>
  <course>284.12</course>
  <speed>0.9751410154434076</speed>
  <fix>3d</fix>
</trkpt>
<trkpt lat="33.810198" lon="-118.3944966">
  <ele>-24.4</ele>
  <time>2026-09-01T01:14:12Z</time>
  <course>194.33</course>
  <speed>1.0</speed>
  <fix>3d</fix>
</trkpt>
<trkpt lat="33.8101952" lon="-118.3944972">
  <ele>-25.012</ele>
  <time>2026-09-01T01:14:12Z</time>
  <course>284.23</course>
  <speed>0.9751410154434076</speed>
  <fix>3d</fix>
</trkpt>
<trkpt lat="33.8101963" lon="-118.3944972">
  <ele>-24.4</ele>
  <time>2026-09-01T01:14:12Z</time>
  <course>194.59</course>
  <speed>1.0</speed>
  <fix>3d</fix>
</trkpt>
<trkpt lat="33.8101944" lon="-118.3944975">
  <ele>-25.013</ele>
  <time>2026-09-01T01:14:12Z</time>
  <course>284.35</course>
  <speed>0.9774456506629922</speed>
  <fix>3d</fix>
</trkpt>
<trkpt lat="33.8101963" lon="-118.3944972">
  <ele>-24.4</ele>
  <time>2026-09-01T01:14:12Z</time>
  <course>194.59</course>
  <speed>1.0</speed>
  <fix>3d</fix>
</trkpt>
<trkpt lat="33.8101935" lon="-118.3944978">
  <ele>-25.015</ele>
  <time>2026-09-01T01:14:12Z</time>
  <course>284.47</course>
  <speed>0.9774456506629922</speed>
  <fix>3d</fix>
</trkpt>
<trkpt lat="33.8101946" lon="-118.3944978">
  <ele>-24.41</ele>
  <time>2026-09-01T01:14:12Z</time>
  <course>194.86</course>
  <speed>1.0</speed>
  <fix>3d</fix>
</trkpt>
<trkpt lat="33.8101926" lon="-118.3944981">
  <ele>-25.015</ele>
  <time>2026-09-01T01:14:12Z</time>
  <course>284.59</course>
  <speed>0.9774456506629922</speed>
  <fix>3d</fix>
</trkpt>
<trkpt lat="33.8101946" lon="-118.3944978">
  <ele>-24.41</ele>
  <time>2026-09-01T01:14:12Z</time>
  <course>194.86</course>
  <speed>1.0</speed>
  <fix>3d</fix>
</trkpt>
<trkpt lat="33.8101917" lon="-118.3944984">
  <ele>-25.015</ele>
  <time>2026-09-01T01:14:12Z</time>
  <course>284.71</course>
  <speed>0.9774456506629922</speed>
  <fix>3d</fix>
</trkpt>
<trkpt lat="33.8101928" lon="-118.3944983">
  <ele>-24.41</ele>
  <time>2026-09-01T01:14:12Z</time>
  <course>195.08</course>
  <speed>1.0</speed>
  <fix>3d</fix>
</trkpt>
<trkpt lat="33.8101909" lon="-118.3944987">
  <ele>-25.014</ele>
  <time>2026-09-01T01:14:12Z</time>
  <course>284.83</course>
  <speed>0.9774456506629922</speed>
  <fix>3d</fix>
</trkpt>
<trkpt lat="33.8101928" lon="-118.3944983">
  <ele>-24.41</ele>
  <time>2026-09-01T01:14:12Z</time>
  <course>195.08</course>
  <speed>1.0</speed>
  <fix>3d</fix>
</trkpt>
<trkpt lat="33.81019" lon="-118.3944989">
  <ele>-25.014</ele>
  <time>2026-09-01T01:14:12Z</time>
  <course>284.95</course>
  <speed>0.9774456506629922</speed>
  <fix>3d</fix>
</trkpt>
<trkpt lat="33.8101911" lon="-118.3944989">
  <ele>-24.41</ele>
  <time>2026-09-01T01:14:12Z</time>
  <course>195.27</course>
  <speed>1.0</speed>
  <fix>3d</fix>
</trkpt>
<trkpt lat="33.8101891" lon="-118.3944992">
  <ele>-25.014</ele>
  <time>2026-09-01T01:14:12Z</time>
  <course>285.06</course>
  <speed>0.9798469268207153</speed>
  <fix>3d</fix>
</trkpt>
<trkpt lat="33.8101911" lon="-118.3944989">
  <ele>-24.41</ele>
  <time>2026-09-01T01:14:12Z</time>
  <course>195.27</course>
  <speed>1.0</speed>
  <fix>3d</fix>
</trkpt>
<trkpt lat="33.8101883" lon="-118.3944995">
  <ele>-25.014</ele>
  <time>2026-09-01T01:14:12Z</time>
  <course>285.18</course>
  <speed>0.9798469268207153</speed>
  <fix>3d</fix>
</trkpt>
<trkpt lat="33.8101894" lon="-118.3944995">
  <ele>-24.41</ele>
  <time>2026-09-01T01:14:12Z</time>
  <course>195.47</course>
  <speed>1.0</speed>
  <fix>3d</fix>
</trkpt>
<trkpt lat="33.8101874" lon="-118.3944998">
  <ele>-25.013</ele>
  <time>2026-09-01T01:14:12Z</time>
  <course>285.3</course>
  <speed>0.9798469268207153</speed>
  <fix>3d</fix>
</trkpt>
<trkpt lat="33.8101894" lon="-118.3944995">
  <ele>-24.41</ele>
  <time>2026-09-01T01:14:12Z</time>
  <course>195.47</course>
  <speed>1.0</speed>
  <fix>3d</fix>
</trkpt>
<trkpt lat="33.8101865" lon="-118.3945001">
  <ele>-25.012</ele>
  <time>2026-09-01T01:14:12Z</time>
  <course>285.42</course>
  <speed>0.9798469268207153</speed>
  <fix>3d</fix>
</trkpt>
<trkpt lat="33.8101876" lon="-118.3945">
  <ele>-24.41</ele>
  <time>2026-09-01T01:14:12Z</time>
  <course>195.66</course>
  <speed>1.0</speed>
  <fix>3d</fix>
</trkpt>
<trkpt lat="33.8101857" lon="-118.3945004">
  <ele>-25.013</ele>
  <time>2026-09-01T01:14:12Z</time>
  <course>285.54</course>
  <speed>0.9798469268207153</speed>
  <fix>3d</fix>
</trkpt>
<trkpt lat="33.8101876" lon="-118.3945">
  <ele>-24.41</ele>
  <time>2026-09-01T01:14:12Z</time>
  <course>195.66</course>
  <speed>1.0</speed>
  <fix>3d</fix>
</trkpt>
<trkpt lat="33.8101848" lon="-118.3945007">
  <ele>-25.014</ele>
  <time>2026-09-01T01:14:12Z</time>
  <course>285.66</course>
  <speed>0.9798469268207153</speed>
  <fix>3d</fix>
</trkpt>
<trkpt lat="33.8101858" lon="-118.3945007">
  <ele>-24.41</ele>
  <time>2026-09-01T01:14:12Z</time>
  <course>195.86</course>
  <speed>1.0</speed>
  <fix>3d</fix>
</trkpt>
<trkpt lat="33.8101839" lon="-118.394501">
  <ele>-25.015</ele>
  <time>2026-09-01T01:14:12Z</time>
  <course>285.77</course>
  <speed>0.982344135219425</speed>
  <fix>3d</fix>
</trkpt>
<trkpt lat="33.8101858" lon="-118.3945007">
  <ele>-24.41</ele>
  <time>2026-09-01T01:14:12Z</time>
  <course>195.86</course>
  <speed>1.0</speed>
  <fix>3d</fix>
</trkpt>
<trkpt lat="33.8101831" lon="-118.3945013">
  <ele>-25.015</ele>
  <time>2026-09-01T01:14:12Z</time>
  <course>285.89</course>
  <speed>0.9726767191621274</speed>
  <fix>3d</fix>
</trkpt>
<trkpt lat="33.8101841" lon="-118.3945013">
  <ele>-24.41</ele>
  <time>2026-09-01T01:14:12Z</time>
  <course>196.09</course>
  <speed>1.0</speed>
  <fix>3d</fix>
</trkpt>
<trkpt lat="33.8101822" lon="-118.3945016">
  <ele>-25.014</ele>
  <time>2026-09-01T01:14:12Z</time>
  <course>286.01</course>
  <speed>0.9726767191621274</speed>
  <fix>3d</fix>
</trkpt>
<trkpt lat="33.8101841" lon="-118.3945013">
  <ele>-24.41</ele>
  <time>2026-09-01T01:14:12Z</time>
  <course>196.09</course>
  <speed>1.0</speed>
  <fix>3d</fix>
</trkpt>
<trkpt lat="33.8101813" lon="-118.3945019">
  <ele>-25.014</ele>
  <time>2026-09-01T01:14:12Z</time>
  <course>286.13</course>
  <speed>0.9726767191621274</speed>
  <fix>3d</fix>
</trkpt>
<trkpt lat="33.8101824" lon="-118.3945019">
  <ele>-24.41</ele>
  <time>2026-09-01T01:14:12Z</time>
  <course>196.31</course>
  <speed>1.0</speed>
  <fix>3d</fix>
</trkpt>
<trkpt lat="33.8101804" lon="-118.3945023">
  <ele>-25.013</ele>
  <time>2026-09-01T01:14:12Z</time>
  <course>286.25</course>
  <speed>0.9726767191621274</speed>
  <fix>3d</fix>
</trkpt>
<trkpt lat="33.8101824" lon="-118.3945019">
  <ele>-24.41</ele>
  <time>2026-09-01T01:14:12Z</time>
  <course>196.31</course>
  <speed>1.0</speed>
  <fix>3d</fix>
</trkpt>
<trkpt lat="33.8101796" lon="-118.3945026">
  <ele>-25.013</ele>
  <time>2026-09-01T01:14:12Z</time>
  <course>286.37</course>
  <speed>0.9726767191621274</speed>
  <fix>3d</fix>
</trkpt>
<trkpt lat="33.8101807" lon="-118.3945024">
  <ele>-24.41</ele>
  <time>2026-09-01T01:14:12Z</time>
  <course>196.5</course>
  <speed>1.0</speed>
  <fix>3d</fix>
</trkpt>
<trkpt lat="33.8101787" lon="-118.3945029">
  <ele>-25.013</ele>
  <time>2026-09-01T01:14:12Z</time>
  <course>286.48</course>
  <speed>0.9752948272189288</speed>
  <fix>3d</fix>
</trkpt>
<trkpt lat="33.8101807" lon="-118.3945024">
  <ele>-24.41</ele>
  <time>2026-09-01T01:14:12Z</time>
  <course>196.5</course>
  <speed>1.0</speed>
  <fix>3d</fix>
</trkpt>
<trkpt lat="33.8101779" lon="-118.3945032">
  <ele>-25.014</ele>
  <time>2026-09-01T01:14:12Z</time>
  <course>286.6</course>
  <speed>0.9752948272189288</speed>
  <fix>3d</fix>
</trkpt>
<trkpt lat="33.8101789" lon="-118.3945031">
  <ele>-24.41</ele>
  <time>2026-09-01T01:14:12Z</time>
  <course>196.73</course>
  <speed>1.0</speed>
  <fix>3d</fix>
</trkpt>
<trkpt lat="33.810177" lon="-118.3945035">
  <ele>-25.014</ele>
  <time>2026-09-01T01:14:12Z</time>
  <course>286.71</course>
  <speed>0.9752948272189288</speed>
  <fix>3d</fix>
</trkpt>
<trkpt lat="33.8101789" lon="-118.3945031">
  <ele>-24.41</ele>
  <time>2026-09-01T01:14:12Z</time>
  <course>196.73</course>
  <speed>1.0</speed>
  <fix>3d</fix>
</trkpt>
<trkpt lat="33.8101761" lon="-118.3945038">
  <ele>-25.015</ele>
  <time>2026-09-01T01:14:12Z</time>
  <course>286.83</course>
  <speed>0.978008179924892</speed>
  <fix>3d</fix>
</trkpt>
<trkpt lat="33.8101772" lon="-118.3945037">
  <ele>-24.41</ele>
  <time>2026-09-01T01:14:12Z</time>
  <course>197.01</course>
  <speed>1.0</speed>
  <fix>3d</fix>
</trkpt>
<trkpt lat="33.8101753" lon="-118.3945041">
  <ele>-25.015</ele>
  <time>2026-09-01T01:14:12Z</time>
  <course>286.95</course>
  <speed>0.978008179924892</speed>
  <fix>3d</fix>
</trkpt>
<trkpt lat="33.8101772" lon="-118.3945037">
  <ele>-24.41</ele>
  <time>2026-09-01T01:14:12Z</time>
  <course>197.01</course>
  <speed>1.0</speed>
  <fix>3d</fix>
</trkpt>
<trkpt lat="33.8101744" lon="-118.3945045">
  <ele>-25.015</ele>
  <time>2026-09-01T01:14:12Z</time>
  <course>287.07</course>
  <speed>0.978008179924892</speed>
  <fix>3d</fix>
</trkpt>
<trkpt lat="33.8101755" lon="-118.3945043">
  <ele>-24.41</ele>
  <time>2026-09-01T01:14:12Z</time>
  <course>197.29</course>
  <speed>1.0</speed>
  <fix>3d</fix>
</trkpt>
<trkpt lat="33.8101736" lon="-118.3945048">
  <ele>-25.015</ele>
  <time>2026-09-01T01:14:12Z</time>
  <course>287.19</course>
  <speed>0.978008179924892</speed>
  <fix>3d</fix>
</trkpt>
<trkpt lat="33.8101755" lon="-118.3945043">
  <ele>-24.41</ele>
  <time>2026-09-01T01:14:12Z</time>
  <course>197.29</course>
  <speed>1.0</speed>
  <fix>3d</fix>
</trkpt>
<trkpt lat="33.8101727" lon="-118.3945051">
  <ele>-25.015</ele>
  <time>2026-09-01T01:14:12Z</time>
  <course>287.31</course>
  <speed>0.978008179924892</speed>
  <fix>3d</fix>
</trkpt>
<trkpt lat="33.8101738" lon="-118.394505">
  <ele>-24.41</ele>
  <time>2026-09-01T01:14:12Z</time>
  <course>197.56</course>
  <speed>1.0</speed>
  <fix>3d</fix>
</trkpt>
<trkpt lat="33.8101719" lon="-118.3945054">
  <ele>-25.015</ele>
  <time>2026-09-01T01:14:12Z</time>
  <course>287.43</course>
  <speed>0.9808159868191383</speed>
  <fix>3d</fix>
</trkpt>
<trkpt lat="33.8101738" lon="-118.394505">
  <ele>-24.41</ele>
  <time>2026-09-01T01:14:12Z</time>
  <course>197.56</course>
  <speed>1.0</speed>
  <fix>3d</fix>
</trkpt>
<trkpt lat="33.810171" lon="-118.3945058">
  <ele>-25.013</ele>
  <time>2026-09-01T01:14:12Z</time>
  <course>287.54</course>
  <speed>0.9808159868191383</speed>
  <fix>3d</fix>
</trkpt>
<trkpt lat="33.810172" lon="-118.3945056">
  <ele>-24.4</ele>
  <time>2026-09-01T01:14:12Z</time>
  <course>197.82</course>
  <speed>1.01</speed>
  <fix>3d</fix>
</trkpt>
<trkpt lat="33.8101701" lon="-118.3945061">
  <ele>-25.011</ele>
  <time>2026-09-01T01:14:12Z</time>
  <course>287.66</course>
  <speed>0.9808159868191383</speed>
  <fix>3d</fix>
</trkpt>
<trkpt lat="33.810172" lon="-118.3945056">
  <ele>-24.4</ele>
  <time>2026-09-01T01:14:12Z</time>
  <course>197.82</course>
  <speed>1.01</speed>
  <fix>3d</fix>
</trkpt>
<trkpt lat="33.8101693" lon="-118.3945064">
  <ele>-25.009</ele>
  <time>2026-09-01T01:14:12Z</time>
  <course>287.78</course>
  <speed>0.9808159868191383</speed>
  <fix>3d</fix>
</trkpt>
<trkpt lat="33.8101703" lon="-118.3945063">
  <ele>-24.4</ele>
  <time>2026-09-01T01:14:12Z</time>
  <course>198.09</course>
  <speed>1.01</speed>
  <fix>3d</fix>
</trkpt>
<trkpt lat="33.8101684" lon="-118.3945068">
  <ele>-25.01</ele>
  <time>2026-09-01T01:14:12Z</time>
  <course>287.9</course>
  <speed>0.9808159868191383</speed>
  <fix>3d</fix>
</trkpt>
<trkpt lat="33.8101703" lon="-118.3945063">
  <ele>-24.4</ele>
  <time>2026-09-01T01:14:12Z</time>
  <course>198.09</course>
  <speed>1.01</speed>
  <fix>3d</fix>
</trkpt>
<trkpt lat="33.8101676" lon="-118.3945071">
  <ele>-25.011</ele>
  <time>2026-09-01T01:14:12Z</time>
  <course>288.01</course>
  <speed>0.9837174391053561</speed>
  <fix>3d</fix>
</trkpt>
<trkpt lat="33.8101686" lon="-118.394507">
  <ele>-24.4</ele>
  <time>2026-09-01T01:14:12Z</time>
  <course>198.35</course>
  <speed>1.01</speed>
  <fix>3d</fix>
</trkpt>
<trkpt lat="33.8101667" lon="-118.3945075">
  <ele>-25.013</ele>
  <time>2026-09-01T01:14:12Z</time>
  <course>288.13</course>
  <speed>0.9837174391053561</speed>
  <fix>3d</fix>
</trkpt>
<trkpt lat="33.8101686" lon="-118.394507">
  <ele>-24.4</ele>
  <time>2026-09-01T01:14:12Z</time>
  <course>198.35</course>
  <speed>1.01</speed>
  <fix>3d</fix>
</trkpt>
<trkpt lat="33.8101658" lon="-118.3945078">
  <ele>-25.014</ele>
  <time>2026-09-01T01:14:12Z</time>
  <course>288.25</course>
  <speed>0.9837174391053561</speed>
  <fix>3d</fix>
</trkpt>
<trkpt lat="33.8101668" lon="-118.3945077">
  <ele>-24.4</ele>
  <time>2026-09-01T01:14:12Z</time>
  <course>198.6</course>
  <speed>1.01</speed>
  <fix>3d</fix>
</trkpt>
<trkpt lat="33.810165" lon="-118.3945082">
  <ele>-25.014</ele>
  <time>2026-09-01T01:14:12Z</time>
  <course>288.37</course>
  <speed>0.9741663102366043</speed>
  <fix>3d</fix>
</trkpt>
<trkpt lat="33.8101668" lon="-118.3945077">
  <ele>-24.4</ele>
  <time>2026-09-01T01:14:12Z</time>
  <course>198.6</course>
  <speed>1.01</speed>
  <fix>3d</fix>
</trkpt>
<trkpt lat="33.8101641" lon="-118.3945085">
  <ele>-25.015</ele>
  <time>2026-09-01T01:14:12Z</time>
  <course>288.48</course>
  <speed>0.9741663102366043</speed>
  <fix>3d</fix>
</trkpt>
<trkpt lat="33.8101651" lon="-118.3945084">
  <ele>-24.41</ele>
  <time>2026-09-01T01:14:12Z</time>
  <course>198.83</course>
  <speed>1.01</speed>
  <fix>3d</fix>
</trkpt>
<trkpt lat="33.8101633" lon="-118.3945089">
  <ele>-25.015</ele>
  <time>2026-09-01T01:14:12Z</time>
  <course>288.6</course>
  <speed>0.9741663102366043</speed>
  <fix>3d</fix>
</trkpt>
<trkpt lat="33.8101651" lon="-118.3945084">
  <ele>-24.41</ele>
  <time>2026-09-01T01:14:12Z</time>
  <course>198.83</course>
  <speed>1.01</speed>
  <fix>3d</fix>
</trkpt>
<trkpt lat="33.8101624" lon="-118.3945092">
  <ele>-25.015</ele>
  <time>2026-09-01T01:14:12Z</time>
  <course>288.71</course>
  <speed>0.9771898484941398</speed>
  <fix>3d</fix>
</trkpt>
<trkpt lat="33.8101634" lon="-118.3945091">
  <ele>-24.41</ele>
  <time>2026-09-01T01:14:12Z</time>
  <course>199.07</course>
  <speed>1.01</speed>
  <fix>3d</fix>
</trkpt>
<trkpt lat="33.8101616" lon="-118.3945096">
  <ele>-25.015</ele>
  <time>2026-09-01T01:14:12Z</time>
  <course>288.83</course>
  <speed>0.9771898484941398</speed>
  <fix>3d</fix>
</trkpt>
<trkpt lat="33.8101634" lon="-118.3945091">
  <ele>-24.41</ele>
  <time>2026-09-01T01:14:12Z</time>
  <course>199.07</course>
  <speed>1.01</speed>
  <fix>3d</fix>
</trkpt>
<trkpt lat="33.8101607" lon="-118.39451">
  <ele>-25.016</ele>
  <time>2026-09-01T01:14:12Z</time>
  <course>288.95</course>
  <speed>0.9771898484941398</speed>
  <fix>3d</fix>
</trkpt>
<trkpt lat="33.8101617" lon="-118.3945098">
  <ele>-24.41</ele>
  <time>2026-09-01T01:14:12Z</time>
  <course>199.29</course>
  <speed>1.01</speed>
  <fix>3d</fix>
</trkpt>
<trkpt lat="33.8101599" lon="-118.3945103">
  <ele>-25.015</ele>
  <time>2026-09-01T01:14:12Z</time>
  <course>289.07</course>
  <speed>0.9771898484941398</speed>
  <fix>3d</fix>
</trkpt>
<trkpt lat="33.8101617" lon="-118.3945098">
  <ele>-24.41</ele>
  <time>2026-09-01T01:14:12Z</time>
  <course>199.29</course>
  <speed>1.01</speed>
  <fix>3d</fix>
</trkpt>
<trkpt lat="33.810159" lon="-118.3945107">
  <ele>-25.013</ele>
  <time>2026-09-01T01:14:12Z</time>
  <course>289.19</course>
  <speed>0.9771898484941398</speed>
  <fix>3d</fix>
</trkpt>
<trkpt lat="33.81016" lon="-118.3945106">
  <ele>-24.41</ele>
  <time>2026-09-01T01:14:12Z</time>
  <course>199.52</course>
  <speed>1.01</speed>
  <fix>3d</fix>
</trkpt>
<trkpt lat="33.8101582" lon="-118.394511">
  <ele>-25.012</ele>
  <time>2026-09-01T01:14:12Z</time>
  <course>289.3</course>
  <speed>0.9771898484941398</speed>
  <fix>3d</fix>
</trkpt>
<trkpt lat="33.81016" lon="-118.3945106">
  <ele>-24.41</ele>
  <time>2026-09-01T01:14:12Z</time>
  <course>199.52</course>
  <speed>1.01</speed>
  <fix>3d</fix>
</trkpt>
<trkpt lat="33.8101573" lon="-118.3945114">
  <ele>-25.011</ele>
  <time>2026-09-01T01:14:12Z</time>
  <course>289.42</course>
  <speed>0.9803060746521975</speed>
  <fix>3d</fix>
</trkpt>
<trkpt lat="33.8101583" lon="-118.3945113">
  <ele>-24.41</ele>
  <time>2026-09-01T01:14:12Z</time>
  <course>199.72</course>
  <speed>1.0</speed>
  <fix>3d</fix>
</trkpt>
<trkpt lat="33.8101565" lon="-118.3945118">
  <ele>-25.012</ele>
  <time>2026-09-01T01:14:12Z</time>
  <course>289.54</course>
  <speed>0.97082439194738</speed>
  <fix>3d</fix>
</trkpt>
<trkpt lat="33.8101583" lon="-118.3945113">
  <ele>-24.41</ele>
  <time>2026-09-01T01:14:12Z</time>
  <course>199.72</course>
  <speed>1.0</speed>
  <fix>3d</fix>
</trkpt>
<trkpt lat="33.8101556" lon="-118.3945122">
  <ele>-25.013</ele>
  <time>2026-09-01T01:14:12Z</time>
  <course>289.66</course>
  <speed>0.97082439194738</speed>
  <fix>3d</fix>
</trkpt>
<trkpt lat="33.8101565" lon="-118.394512">
  <ele>-24.41</ele>
  <time>2026-09-01T01:14:12Z</time>
  <course>199.91</course>
  <speed>1.0</speed>
  <fix>3d</fix>
</trkpt>
<trkpt lat="33.8101547" lon="-118.3945125">
  <ele>-25.015</ele>
  <time>2026-09-01T01:14:12Z</time>
  <course>289.77</course>
  <speed>0.97082439194738</speed>
  <fix>3d</fix>
</trkpt>
<trkpt lat="33.8101565" lon="-118.394512">
  <ele>-24.41</ele>
  <time>2026-09-01T01:14:12Z</time>
  <course>199.91</course>
  <speed>1.0</speed>
  <fix>3d</fix>
</trkpt>
<trkpt lat="33.8101539" lon="-118.3945129">
  <ele>-25.017</ele>
  <time>2026-09-01T01:14:12Z</time>
  <course>289.89</course>
  <speed>0.97082439194738</speed>
  <fix>3d</fix>
</trkpt>
<trkpt lat="33.8101548" lon="-118.3945128">
  <ele>-24.41</ele>
  <time>2026-09-01T01:14:12Z</time>
  <course>200.13</course>
  <speed>1.0</speed>
  <fix>3d</fix>
</trkpt>
<trkpt lat="33.810153" lon="-118.3945133">
  <ele>-25.017</ele>
  <time>2026-09-01T01:14:12Z</time>
  <course>290.01</course>
  <speed>0.97082439194738</speed>
  <fix>3d</fix>
</trkpt>
<trkpt lat="33.8101548" lon="-118.3945128">
  <ele>-24.41</ele>
  <time>2026-09-01T01:14:12Z</time>
  <course>200.13</course>
  <speed>1.0</speed>
  <fix>3d</fix>
</trkpt>
<trkpt lat="33.8101522" lon="-118.3945137">
  <ele>-25.016</ele>
  <time>2026-09-01T01:14:12Z</time>
  <course>290.12</course>
  <speed>0.9740636529508737</speed>
  <fix>3d</fix>
</trkpt>
<trkpt lat="33.8101532" lon="-118.3945135">
  <ele>-24.41</ele>
  <time>2026-09-01T01:14:12Z</time>
  <course>200.38</course>
  <speed>1.0</speed>
  <fix>3d</fix>
</trkpt>
<trkpt lat="33.8101514" lon="-118.394514">
  <ele>-25.014</ele>
  <time>2026-09-01T01:14:12Z</time>
  <course>290.24</course>
  <speed>0.9740636529508737</speed>
  <fix>3d</fix>
</trkpt>
<trkpt lat="33.8101532" lon="-118.3945135">
  <ele>-24.41</ele>
  <time>2026-09-01T01:14:12Z</time>
  <course>200.38</course>
  <speed>1.0</speed>
  <fix>3d</fix>
</trkpt>
<trkpt lat="33.8101505" lon="-118.3945144">
  <ele>-25.011</ele>
  <time>2026-09-01T01:14:12Z</time>
  <course>290.36</course>
  <speed>0.9740636529508737</speed>
  <fix>3d</fix>
</trkpt>
<trkpt lat="33.8101515" lon="-118.3945143">
  <ele>-24.4</ele>
  <time>2026-09-01T01:14:12Z</time>
  <course>200.63</course>
  <speed>1.0</speed>
  <fix>3d</fix>
</trkpt>
<trkpt lat="33.8101497" lon="-118.3945148">
  <ele>-25.009</ele>
  <time>2026-09-01T01:14:12Z</time>
  <course>290.48</course>
  <speed>0.9740636529508737</speed>
  <fix>3d</fix>
</trkpt>
<trkpt lat="33.8101515" lon="-118.3945143">
  <ele>-24.4</ele>
  <time>2026-09-01T01:14:12Z</time>
  <course>200.63</course>
  <speed>1.0</speed>
  <fix>3d</fix>
</trkpt>
<trkpt lat="33.8101488" lon="-118.3945152">
  <ele>-25.008</ele>
  <time>2026-09-01T01:14:12Z</time>
  <course>290.59</course>
  <speed>0.9740636529508737</speed>
  <fix>3d</fix>
</trkpt>
<trkpt lat="33.8101498" lon="-118.3945151">
  <ele>-24.4</ele>
  <time>2026-09-01T01:14:12Z</time>
  <course>200.85</course>
  <speed>1.0</speed>
  <fix>3d</fix>
</trkpt>
<trkpt lat="33.810148" lon="-118.3945156">
  <ele>-25.008</ele>
  <time>2026-09-01T01:14:12Z</time>
  <course>290.71</course>
  <speed>0.9740636529508737</speed>
  <fix>3d</fix>
</trkpt>
<trkpt lat="33.8101498" lon="-118.3945151">
  <ele>-24.4</ele>
  <time>2026-09-01T01:14:12Z</time>
  <course>200.85</course>
  <speed>1.0</speed>
  <fix>3d</fix>
</trkpt>
<trkpt lat="33.8101471" lon="-118.394516">
  <ele>-25.008</ele>
  <time>2026-09-01T01:14:12Z</time>
  <course>290.83</course>
  <speed>0.9679876032264049</speed>
  <fix>3d</fix>
</trkpt>
<trkpt lat="33.8101481" lon="-118.3945158">
  <ele>-24.4</ele>
  <time>2026-09-01T01:14:12Z</time>
  <course>201.04</course>
  <speed>1.0</speed>
  <fix>3d</fix>
</trkpt>
<trkpt lat="33.8101463" lon="-118.3945164">
  <ele>-25.008</ele>
  <time>2026-09-01T01:14:12Z</time>
  <course>290.95</course>
  <speed>0.9679876032264049</speed>
  <fix>3d</fix>
</trkpt>
<trkpt lat="33.8101481" lon="-118.3945158">
  <ele>-24.4</ele>
  <time>2026-09-01T01:14:12Z</time>
  <course>201.04</course>
  <speed>1.0</speed>
  <fix>3d</fix>
</trkpt>
<trkpt lat="33.8101455" lon="-118.3945168">
  <ele>-25.01</ele>
  <time>2026-09-01T01:14:12Z</time>
  <course>291.06</course>
  <speed>0.9679876032264049</speed>
  <fix>3d</fix>
</trkpt>
<trkpt lat="33.8101464" lon="-118.3945167">
  <ele>-24.4</ele>
  <time>2026-09-01T01:14:12Z</time>
  <course>201.25</course>
  <speed>1.0</speed>
  <fix>3d</fix>
</trkpt>
<trkpt lat="33.8101446" lon="-118.3945172">
  <ele>-25.013</ele>
  <time>2026-09-01T01:14:12Z</time>
  <course>291.17</course>
  <speed>0.9679876032264049</speed>
  <fix>3d</fix>
</trkpt>
<trkpt lat="33.8101464" lon="-118.3945167">
  <ele>-24.4</ele>
  <time>2026-09-01T01:14:12Z</time>
  <course>201.25</course>
  <speed>1.0</speed>
  <fix>3d</fix>
</trkpt>
<trkpt lat="33.8101438" lon="-118.3945176">
  <ele>-25.016</ele>
  <time>2026-09-01T01:14:12Z</time>
  <course>291.29</course>
  <speed>0.9679876032264049</speed>
  <fix>3d</fix>
</trkpt>
<trkpt lat="33.8101447" lon="-118.3945174">
  <ele>-24.41</ele>
  <time>2026-09-01T01:14:12Z</time>
  <course>201.47</course>
  <speed>1.0</speed>
  <fix>3d</fix>
</trkpt>
<trkpt lat="33.8101429" lon="-118.394518">
  <ele>-25.017</ele>
  <time>2026-09-01T01:14:12Z</time>
  <course>291.41</course>
  <speed>0.9679876032264049</speed>
  <fix>3d</fix>
</trkpt>
<trkpt lat="33.8101447" lon="-118.3945174">
  <ele>-24.41</ele>
  <time>2026-09-01T01:14:12Z</time>
  <course>201.47</course>
  <speed>1.0</speed>
  <fix>3d</fix>
</trkpt>
<trkpt lat="33.8101421" lon="-118.3945184">
  <ele>-25.018</ele>
  <time>2026-09-01T01:14:12Z</time>
  <course>291.52</course>
  <speed>0.9714422267947797</speed>
  <fix>3d</fix>
</trkpt>
<trkpt lat="33.8101431" lon="-118.3945182">
  <ele>-24.41</ele>
  <time>2026-09-01T01:14:12Z</time>
  <course>201.69</course>
  <speed>1.0</speed>
  <fix>3d</fix>
</trkpt>
<trkpt lat="33.8101413" lon="-118.3945188">
  <ele>-25.018</ele>
  <time>2026-09-01T01:14:12Z</time>
  <course>291.64</course>
  <speed>0.9714422267947797</speed>
  <fix>3d</fix>
</trkpt>
<trkpt lat="33.8101431" lon="-118.3945182">
  <ele>-24.41</ele>
  <time>2026-09-01T01:14:12Z</time>
  <course>201.69</course>
  <speed>1.0</speed>
  <fix>3d</fix>
</trkpt>
<trkpt lat="33.8101404" lon="-118.3945192">
  <ele>-25.017</ele>
  <time>2026-09-01T01:14:12Z</time>
  <course>291.76</course>
  <speed>0.9714422267947797</speed>
  <fix>3d</fix>
</trkpt>
<trkpt lat="33.8101414" lon="-118.3945191">
  <ele>-24.41</ele>
  <time>2026-09-01T01:14:12Z</time>
  <course>201.92</course>
  <speed>1.0</speed>
  <fix>3d</fix>
</trkpt>
<trkpt lat="33.8101396" lon="-118.3945196">
  <ele>-25.017</ele>
  <time>2026-09-01T01:14:12Z</time>
  <course>291.88</course>
  <speed>0.9714422267947797</speed>
  <fix>3d</fix>
</trkpt>
<trkpt lat="33.8101414" lon="-118.3945191">
  <ele>-24.41</ele>
  <time>2026-09-01T01:14:12Z</time>
  <course>201.92</course>
  <speed>1.0</speed>
  <fix>3d</fix>
</trkpt>
<trkpt lat="33.8101388" lon="-118.39452">
  <ele>-25.017</ele>
  <time>2026-09-01T01:14:12Z</time>
  <course>292.0</course>
  <speed>0.9714422267947797</speed>
  <fix>3d</fix>
</trkpt>
<trkpt lat="33.8101397" lon="-118.3945199">
  <ele>-24.41</ele>
  <time>2026-09-01T01:14:12Z</time>
  <course>202.15</course>
  <speed>1.0</speed>
  <fix>3d</fix>
</trkpt>
<trkpt lat="33.8101379" lon="-118.3945204">
  <ele>-25.018</ele>
  <time>2026-09-01T01:14:12Z</time>
  <course>292.11</course>
  <speed>0.9714422267947797</speed>
  <fix>3d</fix>
</trkpt>
<trkpt lat="33.8101397" lon="-118.3945199">
  <ele>-24.41</ele>
  <time>2026-09-01T01:14:12Z</time>
  <course>202.15</course>
  <speed>1.0</speed>
  <fix>3d</fix>
</trkpt>
<trkpt lat="33.8101371" lon="-118.3945208">
  <ele>-25.018</ele>
  <time>2026-09-01T01:14:12Z</time>
  <course>292.23</course>
  <speed>0.9749871794028884</speed>
  <fix>3d</fix>
</trkpt>
<trkpt lat="33.8101381" lon="-118.3945206">
  <ele>-24.41</ele>
  <time>2026-09-01T01:14:12Z</time>
  <course>202.33</course>
  <speed>1.0</speed>
  <fix>3d</fix>
</trkpt>
<trkpt lat="33.8101363" lon="-118.3945213">
  <ele>-25.017</ele>
  <time>2026-09-01T01:14:12Z</time>
  <course>292.34</course>
  <speed>0.9749871794028884</speed>
  <fix>3d</fix>
</trkpt>
<trkpt lat="33.8101381" lon="-118.3945206">
  <ele>-24.41</ele>
  <time>2026-09-01T01:14:12Z</time>
  <course>202.33</course>
  <speed>1.0</speed>
  <fix>3d</fix>
</trkpt>
<trkpt lat="33.8101354" lon="-118.3945217">
  <ele>-25.017</ele>
  <time>2026-09-01T01:14:12Z</time>
  <course>292.46</course>
  <speed>0.9749871794028884</speed>
  <fix>3d</fix>
</trkpt>
<trkpt lat="33.8101364" lon="-118.3945215">
  <ele>-24.41</ele>
  <time>2026-09-01T01:14:12Z</time>
  <course>202.55</course>
  <speed>1.0</speed>
  <fix>3d</fix>
</trkpt>
<trkpt lat="33.8101346" lon="-118.3945221">
  <ele>-25.015</ele>
  <time>2026-09-01T01:14:12Z</time>
  <course>292.57</course>
  <speed>0.9656603957913983</speed>
  <fix>3d</fix>
</trkpt>
<trkpt lat="33.8101364" lon="-118.3945215">
  <ele>-24.41</ele>
  <time>2026-09-01T01:14:12Z</time>
  <course>202.55</course>
  <speed>1.0</speed>
  <fix>3d</fix>
</trkpt>
<trkpt lat="33.8101338" lon="-118.3945225">
  <ele>-25.012</ele>
  <time>2026-09-01T01:14:12Z</time>
  <course>292.69</course>
  <speed>0.9693296652842107</speed>
  <fix>3d</fix>
</trkpt>
<trkpt lat="33.8101347" lon="-118.3945223">
  <ele>-24.4</ele>
  <time>2026-09-01T01:14:12Z</time>
  <course>202.81</course>
  <speed>1.0</speed>
  <fix>3d</fix>
</trkpt>
<trkpt lat="33.8101329" lon="-118.3945229">
  <ele>-25.009</ele>
  <time>2026-09-01T01:14:12Z</time>
  <course>292.81</course>
  <speed>0.9693296652842107</speed>
  <fix>3d</fix>
</trkpt>
<trkpt lat="33.8101347" lon="-118.3945223">
  <ele>-24.4</ele>
  <time>2026-09-01T01:14:12Z</time>
  <course>202.81</course>
  <speed>1.0</speed>
  <fix>3d</fix>
</trkpt>
<trkpt lat="33.8101321" lon="-118.3945234">
  <ele>-25.007</ele>
  <time>2026-09-01T01:14:12Z</time>
  <course>292.93</course>
  <speed>0.9693296652842107</speed>
  <fix>3d</fix>
</trkpt>
<trkpt lat="33.8101331" lon="-118.3945232">
  <ele>-24.4</ele>
  <time>2026-09-01T01:14:12Z</time>
  <course>203.09</course>
  <speed>1.0</speed>
  <fix>3d</fix>
</trkpt>
<trkpt lat="33.8101313" lon="-118.3945238">
  <ele>-25.007</ele>
  <time>2026-09-01T01:14:12Z</time>
  <course>293.04</course>
  <speed>0.9693296652842107</speed>
  <fix>3d</fix>
</trkpt>
<trkpt lat="33.8101331" lon="-118.3945232">
  <ele>-24.4</ele>
  <time>2026-09-01T01:14:12Z</time>
  <course>203.09</course>
  <speed>1.0</speed>
  <fix>3d</fix>
</trkpt>
<trkpt lat="33.8101305" lon="-118.3945242">
  <ele>-25.008</ele>
  <time>2026-09-01T01:14:12Z</time>
  <course>293.16</course>
  <speed>0.9693296652842107</speed>
  <fix>3d</fix>
</trkpt>
<trkpt lat="33.8101314" lon="-118.394524">
  <ele>-24.4</ele>
  <time>2026-09-01T01:14:12Z</time>
  <course>203.35</course>
  <speed>1.0</speed>
  <fix>3d</fix>
</trkpt>
<trkpt lat="33.8101296" lon="-118.3945247">
  <ele>-25.01</ele>
  <time>2026-09-01T01:14:12Z</time>
  <course>293.28</course>
  <speed>0.9693296652842107</speed>
  <fix>3d</fix>
</trkpt>
<trkpt lat="33.8101314" lon="-118.394524">
  <ele>-24.4</ele>
  <time>2026-09-01T01:14:12Z</time>
  <course>203.35</course>
  <speed>1.0</speed>
  <fix>3d</fix>
</trkpt>
<trkpt lat="33.8101288" lon="-118.3945251">
  <ele>-25.012</ele>
  <time>2026-09-01T01:14:12Z</time>
  <course>293.39</course>
  <speed>0.9730878685915265</speed>
  <fix>3d</fix>
</trkpt>
<trkpt lat="33.8101298" lon="-118.3945249">
  <ele>-24.4</ele>
  <time>2026-09-01T01:14:12Z</time>
  <course>203.58</course>
  <speed>1.0</speed>
  <fix>3d</fix>
</trkpt>
<trkpt lat="33.810128" lon="-118.3945255">
  <ele>-25.013</ele>
  <time>2026-09-01T01:14:12Z</time>
  <course>293.51</course>
  <speed>0.9730878685915265</speed>
  <fix>3d</fix>
</trkpt>
<trkpt lat="33.8101298" lon="-118.3945249">
  <ele>-24.4</ele>
  <time>2026-09-01T01:14:12Z</time>
  <course>203.58</course>
  <speed>1.0</speed>
  <fix>3d</fix>
</trkpt>
<trkpt lat="33.8101272" lon="-118.394526">
  <ele>-25.014</ele>
  <time>2026-09-01T01:14:12Z</time>
  <course>293.63</course>
  <speed>0.9730878685915265</speed>
  <fix>3d</fix>
</trkpt>
<trkpt lat="33.8101281" lon="-118.3945257">
  <ele>-24.41</ele>
  <time>2026-09-01T01:14:12Z</time>
  <course>203.82</course>
  <speed>1.0</speed>
  <fix>3d</fix>
</trkpt>
<trkpt lat="33.8101263" lon="-118.3945264">
  <ele>-25.015</ele>
  <time>2026-09-01T01:14:12Z</time>
  <course>293.74</course>
  <speed>0.9730878685915265</speed>
  <fix>3d</fix>
</trkpt>
<trkpt lat="33.8101281" lon="-118.3945257">
  <ele>-24.41</ele>
  <time>2026-09-01T01:14:12Z</time>
  <course>203.82</course>
  <speed>1.0</speed>
  <fix>3d</fix>
</trkpt>
<trkpt lat="33.8101255" lon="-118.3945269">
  <ele>-25.016</ele>
  <time>2026-09-01T01:14:12Z</time>
  <course>293.86</course>
  <speed>0.976933979345585</speed>
  <fix>3d</fix>
</trkpt>
<trkpt lat="33.8101264" lon="-118.3945266">
  <ele>-24.41</ele>
  <time>2026-09-01T01:14:12Z</time>
  <course>204.08</course>
  <speed>1.0</speed>
  <fix>3d</fix>
</trkpt>
<trkpt lat="33.8101247" lon="-118.3945273">
  <ele>-25.017</ele>
  <time>2026-09-01T01:14:12Z</time>
  <course>293.97</course>
  <speed>0.9677293009927931</speed>
  <fix>3d</fix>
</trkpt>
<trkpt lat="33.8101264" lon="-118.3945266">
  <ele>-24.41</ele>
  <time>2026-09-01T01:14:12Z</time>
  <course>204.08</course>
  <speed>1.0</speed>
  <fix>3d</fix>
</trkpt>
<trkpt lat="33.8101239" lon="-118.3945277">
  <ele>-25.019</ele>
  <time>2026-09-01T01:14:12Z</time>
  <course>294.09</course>
  <speed>0.9677293009927931</speed>
  <fix>3d</fix>
</trkpt>
<trkpt lat="33.8101249" lon="-118.3945275">
  <ele>-24.41</ele>
  <time>2026-09-01T01:14:12Z</time>
  <course>204.38</course>
  <speed>1.0</speed>
  <fix>3d</fix>
</trkpt>
<trkpt lat="33.810123" lon="-118.3945282">
  <ele>-25.02</ele>
  <time>2026-09-01T01:14:12Z</time>
  <course>294.21</course>
  <speed>0.9677293009927931</speed>
  <fix>3d</fix>
</trkpt>
<trkpt lat="33.8101249" lon="-118.3945275">
  <ele>-24.41</ele>
  <time>2026-09-01T01:14:12Z</time>
  <course>204.38</course>
  <speed>1.0</speed>
  <fix>3d</fix>
</trkpt>
<trkpt lat="33.8101222" lon="-118.3945286">
  <ele>-25.019</ele>
  <time>2026-09-01T01:14:12Z</time>
  <course>294.32</course>
  <speed>0.9677293009927931</speed>
  <fix>3d</fix>
</trkpt>
<trkpt lat="33.8101232" lon="-118.3945284">
  <ele>-24.41</ele>
  <time>2026-09-01T01:14:12Z</time>
  <course>204.65</course>
  <speed>1.0</speed>
  <fix>3d</fix>
</trkpt>
<trkpt lat="33.8101214" lon="-118.3945291">
  <ele>-25.018</ele>
  <time>2026-09-01T01:14:12Z</time>
  <course>294.44</course>
  <speed>0.9677293009927931</speed>
  <fix>3d</fix>
</trkpt>
<trkpt lat="33.8101232" lon="-118.3945284">
  <ele>-24.41</ele>
  <time>2026-09-01T01:14:12Z</time>
  <course>204.65</course>
  <speed>1.0</speed>
  <fix>3d</fix>
</trkpt>
<trkpt lat="33.8101206" lon="-118.3945296">
  <ele>-25.016</ele>
  <time>2026-09-01T01:14:12Z</time>
  <course>294.56</course>
  <speed>0.9716995420396163</speed>
  <fix>3d</fix>
</trkpt>
<trkpt lat="33.8101216" lon="-118.3945293">
  <ele>-24.4</ele>
  <time>2026-09-01T01:14:12Z</time>
  <course>204.87</course>
  <speed>1.0</speed>
  <fix>3d</fix>
</trkpt>
<trkpt lat="33.8101198" lon="-118.39453">
  <ele>-25.014</ele>
  <time>2026-09-01T01:14:12Z</time>
  <course>294.67</course>
  <speed>0.9716995420396163</speed>
  <fix>3d</fix>
</trkpt>
<trkpt lat="33.8101216" lon="-118.3945293">
  <ele>-24.4</ele>
  <time>2026-09-01T01:14:12Z</time>
  <course>204.87</course>
  <speed>1.0</speed>
  <fix>3d</fix>
</trkpt>
<trkpt lat="33.810119" lon="-118.3945305">
  <ele>-25.012</ele>
  <time>2026-09-01T01:14:12Z</time>
  <course>294.79</course>
  <speed>0.9716995420396163</speed>
  <fix>3d</fix>
</trkpt>
<trkpt lat="33.81012" lon="-118.3945302">
  <ele>-24.4</ele>
  <time>2026-09-01T01:14:12Z</time>
  <course>205.08</course>
  <speed>1.0</speed>
  <fix>3d</fix>
</trkpt>
<trkpt lat="33.8101182" lon="-118.3945309">
  <ele>-25.01</ele>
  <time>2026-09-01T01:14:12Z</time>
  <course>294.91</course>
  <speed>0.9716995420396163</speed>
  <fix>3d</fix>
</trkpt>
<trkpt lat="33.81012" lon="-118.3945302">
  <ele>-24.4</ele>
  <time>2026-09-01T01:14:12Z</time>
  <course>205.08</course>
  <speed>1.0</speed>
  <fix>3d</fix>
</trkpt>
<trkpt lat="33.8101173" lon="-118.3945314">
  <ele>-25.01</ele>
  <time>2026-09-01T01:14:12Z</time>
  <course>295.02</course>
  <speed>0.9716995420396163</speed>
  <fix>3d</fix>
</trkpt>
<trkpt lat="33.8101183" lon="-118.3945311">
  <ele>-24.4</ele>
  <time>2026-09-01T01:14:12Z</time>
  <course>205.28</course>
  <speed>1.0</speed>
  <fix>3d</fix>
</trkpt>
<trkpt lat="33.8101165" lon="-118.3945319">
  <ele>-25.01</ele>
  <time>2026-09-01T01:14:12Z</time>
  <course>295.13</course>
  <speed>0.9716995420396163</speed>
  <fix>3d</fix>
</trkpt>
<trkpt lat="33.8101183" lon="-118.3945311">
  <ele>-24.4</ele>
  <time>2026-09-01T01:14:12Z</time>
  <course>205.28</course>
  <speed>1.0</speed>
  <fix>3d</fix>
</trkpt>
<trkpt lat="33.8101157" lon="-118.3945323">
  <ele>-25.011</ele>
  <time>2026-09-01T01:14:12Z</time>
  <course>295.25</course>
  <speed>0.9757561170702442</speed>
  <fix>3d</fix>
</trkpt>
<trkpt lat="33.8101166" lon="-118.3945321">
  <ele>-24.4</ele>
  <time>2026-09-01T01:14:12Z</time>
  <course>205.5</course>
  <speed>1.0</speed>
  <fix>3d</fix>
</trkpt>
<trkpt lat="33.8101149" lon="-118.3945328">
  <ele>-25.011</ele>
  <time>2026-09-01T01:14:12Z</time>
  <course>295.37</course>
  <speed>0.9757561170702442</speed>
  <fix>3d</fix>
</trkpt>
<trkpt lat="33.8101166" lon="-118.3945321">
  <ele>-24.4</ele>
  <time>2026-09-01T01:14:12Z</time>
  <course>205.5</course>
  <speed>1.0</speed>
  <fix>3d</fix>
</trkpt>
<trkpt lat="33.8101141" lon="-118.3945333">
  <ele>-25.012</ele>
  <time>2026-09-01T01:14:12Z</time>
  <course>295.49</course>
  <speed>0.9666436778875658</speed>
  <fix>3d</fix>
</trkpt>
<trkpt lat="33.8101151" lon="-118.394533">
  <ele>-24.4</ele>
  <time>2026-09-01T01:14:12Z</time>
  <course>205.76</course>
  <speed>1.0</speed>
  <fix>3d</fix>
</trkpt>
<trkpt lat="33.8101133" lon="-118.3945337">
  <ele>-25.013</ele>
  <time>2026-09-01T01:14:12Z</time>
  <course>295.6</course>
  <speed>0.9666436778875658</speed>
  <fix>3d</fix>
</trkpt>
<trkpt lat="33.8101151" lon="-118.394533">
  <ele>-24.4</ele>
  <time>2026-09-01T01:14:12Z</time>
  <course>205.76</course>
  <speed>1.0</speed>
  <fix>3d</fix>
</trkpt>
<trkpt lat="33.8101125" lon="-118.3945342">
  <ele>-25.014</ele>
  <time>2026-09-01T01:14:12Z</time>
  <course>295.72</course>
  <speed>0.9666436778875658</speed>
  <fix>3d</fix>
</trkpt>
<trkpt lat="33.8101135" lon="-118.394534">
  <ele>-24.4</ele>
  <time>2026-09-01T01:14:12Z</time>
  <course>206.0</course>
  <speed>0.99</speed>
  <fix>3d</fix>
</trkpt>
<trkpt lat="33.8101117" lon="-118.3945347">
  <ele>-25.014</ele>
  <time>2026-09-01T01:14:12Z</time>
  <course>295.83</course>
  <speed>0.9666436778875658</speed>
  <fix>3d</fix>
</trkpt>
<trkpt lat="33.8101135" lon="-118.394534">
  <ele>-24.4</ele>
  <time>2026-09-01T01:14:12Z</time>
  <course>206.0</course>
  <speed>0.99</speed>
  <fix>3d</fix>
</trkpt>
<trkpt lat="33.8101109" lon="-118.3945352">
  <ele>-25.012</ele>
  <time>2026-09-01T01:14:12Z</time>
  <course>295.95</course>
  <speed>0.97082439194738</speed>
  <fix>3d</fix>
</trkpt>
<trkpt lat="33.8101118" lon="-118.3945349">
  <ele>-24.4</ele>
  <time>2026-09-01T01:14:12Z</time>
  <course>206.17</course>
  <speed>0.99</speed>
  <fix>3d</fix>
</trkpt>
<trkpt lat="33.81011" lon="-118.3945357">
  <ele>-25.011</ele>
  <time>2026-09-01T01:14:12Z</time>
  <course>296.07</course>
  <speed>0.97082439194738</speed>
  <fix>3d</fix>
</trkpt>
<trkpt lat="33.8101118" lon="-118.3945349">
  <ele>-24.4</ele>
  <time>2026-09-01T01:14:12Z</time>
  <course>206.17</course>
  <speed>0.99</speed>
  <fix>3d</fix>
</trkpt>
<trkpt lat="33.8101093" lon="-118.3945361">
  <ele>-25.008</ele>
  <time>2026-09-01T01:14:12Z</time>
  <course>296.18</course>
  <speed>0.97082439194738</speed>
  <fix>3d</fix>
</trkpt>
<trkpt lat="33.8101103" lon="-118.3945359">
  <ele>-24.4</ele>
  <time>2026-09-01T01:14:12Z</time>
  <course>206.35</course>
  <speed>0.99</speed>
  <fix>3d</fix>
</trkpt>
<trkpt lat="33.8101084" lon="-118.3945366">
  <ele>-25.006</ele>
  <time>2026-09-01T01:14:12Z</time>
  <course>296.3</course>
  <speed>0.97082439194738</speed>
  <fix>3d</fix>
</trkpt>
<trkpt lat="33.8101103" lon="-118.3945359">
  <ele>-24.4</ele>
  <time>2026-09-01T01:14:12Z</time>
  <course>206.35</course>
  <speed>0.99</speed>
  <fix>3d</fix>
</trkpt>
<trkpt lat="33.8101076" lon="-118.3945371">
  <ele>-25.006</ele>
  <time>2026-09-01T01:14:12Z</time>
  <course>296.42</course>
  <speed>0.97082439194738</speed>
  <fix>3d</fix>
</trkpt>
<trkpt lat="33.8101087" lon="-118.3945368">
  <ele>-24.4</ele>
  <time>2026-09-01T01:14:12Z</time>
  <course>206.53</course>
  <speed>1.0</speed>
  <fix>3d</fix>
</trkpt>
<trkpt lat="33.8101068" lon="-118.3945376">
  <ele>-25.007</ele>
  <time>2026-09-01T01:14:12Z</time>
  <course>296.53</course>
  <speed>0.97082439194738</speed>
  <fix>3d</fix>
</trkpt>
<trkpt lat="33.8101087" lon="-118.3945368">
  <ele>-24.4</ele>
  <time>2026-09-01T01:14:12Z</time>
  <course>206.53</course>
  <speed>1.0</speed>
  <fix>3d</fix>
</trkpt>
<trkpt lat="33.810106" lon="-118.3945381">
  <ele>-25.009</ele>
  <time>2026-09-01T01:14:12Z</time>
  <course>296.64</course>
  <speed>0.9750897394599124</speed>
  <fix>3d</fix>
</trkpt>
<trkpt lat="33.810107" lon="-118.3945378">
  <ele>-24.4</ele>
  <time>2026-09-01T01:14:12Z</time>
  <course>206.71</course>
  <speed>1.0</speed>
  <fix>3d</fix>
</trkpt>
<trkpt lat="33.8101052" lon="-118.3945386">
  <ele>-25.012</ele>
  <time>2026-09-01T01:14:12Z</time>
  <course>296.76</course>
  <speed>0.9750897394599124</speed>
  <fix>3d</fix>
</trkpt>
<trkpt lat="33.810107" lon="-118.3945378">
  <ele>-24.4</ele>
  <time>2026-09-01T01:14:12Z</time>
  <course>206.71</course>
  <speed>1.0</speed>
  <fix>3d</fix>
</trkpt>
<trkpt lat="33.8101044" lon="-118.3945391">
  <ele>-25.014</ele>
  <time>2026-09-01T01:14:12Z</time>
  <course>296.88</course>
  <speed>0.9750897394599124</speed>
  <fix>3d</fix>
</trkpt>
<trkpt lat="33.8101054" lon="-118.3945388">
  <ele>-24.41</ele>
  <time>2026-09-01T01:14:12Z</time>
  <course>206.93</course>
  <speed>1.0</speed>
  <fix>3d</fix>
</trkpt>
<trkpt lat="33.8101036" lon="-118.3945396">
  <ele>-25.017</ele>
  <time>2026-09-01T01:14:12Z</time>
  <course>297.0</course>
  <speed>0.9750897394599124</speed>
  <fix>3d</fix>
</trkpt>
<trkpt lat="33.8101054" lon="-118.3945388">
  <ele>-24.41</ele>
  <time>2026-09-01T01:14:12Z</time>
  <course>206.93</course>
  <speed>1.0</speed>
  <fix>3d</fix>
</trkpt>
<trkpt lat="33.8101028" lon="-118.3945401">
  <ele>-25.019</ele>
  <time>2026-09-01T01:14:12Z</time>
  <course>297.11</course>
  <speed>0.9660745312862771</speed>
  <fix>3d</fix>
</trkpt>
<trkpt lat="33.8101037" lon="-118.3945398">
  <ele>-24.41</ele>
  <time>2026-09-01T01:14:12Z</time>
  <course>207.17</course>
  <speed>1.0</speed>
  <fix>3d</fix>
</trkpt>
<trkpt lat="33.810102" lon="-118.3945406">
  <ele>-25.021</ele>
  <time>2026-09-01T01:14:12Z</time>
  <course>297.23</course>
  <speed>0.9660745312862771</speed>
  <fix>3d</fix>
</trkpt>
<trkpt lat="33.8101037" lon="-118.3945398">
  <ele>-24.41</ele>
  <time>2026-09-01T01:14:12Z</time>
  <course>207.17</course>
  <speed>1.0</speed>
  <fix>3d</fix>
</trkpt>
<trkpt lat="33.8101012" lon="-118.3945411">
  <ele>-25.021</ele>
  <time>2026-09-01T01:14:12Z</time>
  <course>297.34</course>
  <speed>0.9704638066409278</speed>
  <fix>3d</fix>
</trkpt>
<trkpt lat="33.8101022" lon="-118.3945407">
  <ele>-24.42</ele>
  <time>2026-09-01T01:14:12Z</time>
  <course>207.44</course>
  <speed>0.99</speed>
  <fix>3d</fix>
</trkpt>
<trkpt lat="33.8101004" lon="-118.3945416">
  <ele>-25.021</ele>
  <time>2026-09-01T01:14:12Z</time>
  <course>297.46</course>
  <speed>0.9704638066409278</speed>
  <fix>3d</fix>
</trkpt>
<trkpt lat="33.8101022" lon="-118.3945407">
  <ele>-24.42</ele>
  <time>2026-09-01T01:14:12Z</time>
  <course>207.44</course>
  <speed>0.99</speed>
  <fix>3d</fix>
</trkpt>
<trkpt lat="33.8100996" lon="-118.3945421">
  <ele>-25.022</ele>
  <time>2026-09-01T01:14:12Z</time>
  <course>297.58</course>
  <speed>0.9704638066409278</speed>
  <fix>3d</fix>
</trkpt>
<trkpt lat="33.8101007" lon="-118.3945418">
  <ele>-24.42</ele>
  <time>2026-09-01T01:14:12Z</time>
  <course>207.73</course>
  <speed>0.99</speed>
  <fix>3d</fix>
</trkpt>
<trkpt lat="33.8100988" lon="-118.3945426">
  <ele>-25.021</ele>
  <time>2026-09-01T01:14:12Z</time>
  <course>297.69</course>
  <speed>0.9704638066409278</speed>
  <fix>3d</fix>
</trkpt>
<trkpt lat="33.8101007" lon="-118.3945418">
  <ele>-24.42</ele>
  <time>2026-09-01T01:14:12Z</time>
  <course>207.73</course>
  <speed>0.99</speed>
  <fix>3d</fix>
</trkpt>
<trkpt lat="33.810098" lon="-118.3945431">
  <ele>-25.019</ele>
  <time>2026-09-01T01:14:12Z</time>
  <course>297.81</course>
  <speed>0.9704638066409278</speed>
  <fix>3d</fix>
</trkpt>
<trkpt lat="33.8100991" lon="-118.3945428">
  <ele>-24.41</ele>
  <time>2026-09-01T01:14:12Z</time>
  <course>207.96</course>
  <speed>0.99</speed>
  <fix>3d</fix>
</trkpt>
<trkpt lat="33.8100972" lon="-118.3945436">
  <ele>-25.016</ele>
  <time>2026-09-01T01:14:13Z</time>
  <course>297.92</course>
  <speed>0.9749358953285082</speed>
  <fix>3d</fix>
</trkpt>
<trkpt lat="33.8100991" lon="-118.3945428">
  <ele>-24.41</ele>
  <time>2026-09-01T01:14:13Z</time>
  <course>207.96</course>
  <speed>0.99</speed>
  <fix>3d</fix>
</trkpt>
<trkpt lat="33.8100965" lon="-118.3945441">
  <ele>-25.014</ele>
  <time>2026-09-01T01:14:13Z</time>
  <course>298.04</course>
  <speed>0.9749358953285082</speed>
  <fix>3d</fix>
</trkpt>
<trkpt lat="33.8100975" lon="-118.3945438">
  <ele>-24.41</ele>
  <time>2026-09-01T01:14:13Z</time>
  <course>208.12</course>
  <speed>0.99</speed>
  <fix>3d</fix>
</trkpt>
<trkpt lat="33.8100957" lon="-118.3945446">
  <ele>-25.014</ele>
  <time>2026-09-01T01:14:13Z</time>
  <course>298.16</course>
  <speed>0.9749358953285082</speed>
  <fix>3d</fix>
</trkpt>
<trkpt lat="33.8100975" lon="-118.3945438">
  <ele>-24.41</ele>
  <time>2026-09-01T01:14:13Z</time>
  <course>208.12</course>
  <speed>0.99</speed>
  <fix>3d</fix>
</trkpt>
<trkpt lat="33.8100949" lon="-118.3945452">
  <ele>-25.013</ele>
  <time>2026-09-01T01:14:13Z</time>
  <course>298.27</course>
  <speed>0.9749358953285082</speed>
  <fix>3d</fix>
</trkpt>
<trkpt lat="33.8100958" lon="-118.3945448">
  <ele>-24.4</ele>
  <time>2026-09-01T01:14:13Z</time>
  <course>208.29</course>
  <speed>1.0</speed>
  <fix>3d</fix>
</trkpt>
<trkpt lat="33.8100941" lon="-118.3945457">
  <ele>-25.012</ele>
  <time>2026-09-01T01:14:13Z</time>
  <course>298.39</course>
  <speed>0.9749358953285082</speed>
  <fix>3d</fix>
</trkpt>
<trkpt lat="33.8100958" lon="-118.3945448">
  <ele>-24.4</ele>
  <time>2026-09-01T01:14:13Z</time>
  <course>208.29</course>
  <speed>1.0</speed>
  <fix>3d</fix>
</trkpt>
<trkpt lat="33.8100933" lon="-118.3945462">
  <ele>-25.012</ele>
  <time>2026-09-01T01:14:13Z</time>
  <course>298.5</course>
  <speed>0.9660227740586658</speed>
  <fix>3d</fix>
</trkpt>
<trkpt lat="33.8100943" lon="-118.3945458">
  <ele>-24.4</ele>
  <time>2026-09-01T01:14:13Z</time>
  <course>208.51</course>
  <speed>1.0</speed>
  <fix>3d</fix>
</trkpt>
<trkpt lat="33.8100925" lon="-118.3945467">
  <ele>-25.013</ele>
  <time>2026-09-01T01:14:13Z</time>
  <course>298.62</course>
  <speed>0.9706183596038146</speed>
  <fix>3d</fix>
</trkpt>
<trkpt lat="33.8100943" lon="-118.3945458">
  <ele>-24.4</ele>
  <time>2026-09-01T01:14:13Z</time>
  <course>208.51</course>
  <speed>1.0</speed>
  <fix>3d</fix>
</trkpt>
<trkpt lat="33.8100917" lon="-118.3945472">
  <ele>-25.013</ele>
  <time>2026-09-01T01:14:13Z</time>
  <course>298.73</course>
  <speed>0.9706183596038146</speed>
  <fix>3d</fix>
</trkpt>
<trkpt lat="33.8100927" lon="-118.3945469">
  <ele>-24.4</ele>
  <time>2026-09-01T01:14:13Z</time>
  <course>208.79</course>
  <speed>1.0</speed>
  <fix>3d</fix>
</trkpt>
<trkpt lat="33.8100909" lon="-118.3945478">
  <ele>-25.014</ele>
  <time>2026-09-01T01:14:13Z</time>
  <course>298.85</course>
  <speed>0.9706183596038146</speed>
  <fix>3d</fix>
</trkpt>
<trkpt lat="33.8100927" lon="-118.3945469">
  <ele>-24.4</ele>
  <time>2026-09-01T01:14:13Z</time>
  <course>208.79</course>
  <speed>1.0</speed>
  <fix>3d</fix>
</trkpt>
<trkpt lat="33.8100901" lon="-118.3945483">
  <ele>-25.014</ele>
  <time>2026-09-01T01:14:13Z</time>
  <course>298.97</course>
  <speed>0.9706183596038146</speed>
  <fix>3d</fix>
</trkpt>
<trkpt lat="33.8100912" lon="-118.3945479">
  <ele>-24.4</ele>
  <time>2026-09-01T01:14:13Z</time>
  <course>209.07</course>
  <speed>1.0</speed>
  <fix>3d</fix>
</trkpt>
<trkpt lat="33.8100894" lon="-118.3945488">
  <ele>-25.013</ele>
  <time>2026-09-01T01:14:13Z</time>
  <course>299.08</course>
  <speed>0.9706183596038146</speed>
  <fix>3d</fix>
</trkpt>
<trkpt lat="33.8100912" lon="-118.3945479">
  <ele>-24.4</ele>
  <time>2026-09-01T01:14:13Z</time>
  <course>209.07</course>
  <speed>1.0</speed>
  <fix>3d</fix>
</trkpt>
<trkpt lat="33.8100886" lon="-118.3945493">
  <ele>-25.012</ele>
  <time>2026-09-01T01:14:13Z</time>
  <course>299.2</course>
  <speed>0.9752948272189288</speed>
  <fix>3d</fix>
</trkpt>
<trkpt lat="33.8100896" lon="-118.394549">
  <ele>-24.4</ele>
  <time>2026-09-01T01:14:13Z</time>
  <course>209.31</course>
  <speed>1.0</speed>
  <fix>3d</fix>
</trkpt>
<trkpt lat="33.8100878" lon="-118.3945499">
  <ele>-25.011</ele>
  <time>2026-09-01T01:14:13Z</time>
  <course>299.31</course>
  <speed>0.9752948272189288</speed>
  <fix>3d</fix>
</trkpt>
<trkpt lat="33.8100896" lon="-118.394549">
  <ele>-24.4</ele>
  <time>2026-09-01T01:14:13Z</time>
  <course>209.31</course>
  <speed>1.0</speed>
  <fix>3d</fix>
</trkpt>
<trkpt lat="33.810087" lon="-118.3945504">
  <ele>-25.011</ele>
  <time>2026-09-01T01:14:13Z</time>
  <course>299.43</course>
  <speed>0.9752948272189288</speed>
  <fix>3d</fix>
</trkpt>
<trkpt lat="33.810088" lon="-118.39455">
  <ele>-24.4</ele>
  <time>2026-09-01T01:14:13Z</time>
  <course>209.53</course>
  <speed>1.0</speed>
  <fix>3d</fix>
</trkpt>
<trkpt lat="33.8100862" lon="-118.394551">
  <ele>-25.011</ele>
  <time>2026-09-01T01:14:13Z</time>
  <course>299.54</course>
  <speed>0.9752948272189288</speed>
  <fix>3d</fix>
</trkpt>
<trkpt lat="33.810088" lon="-118.39455">
  <ele>-24.4</ele>
  <time>2026-09-01T01:14:13Z</time>
  <course>209.53</course>
  <speed>1.0</speed>
  <fix>3d</fix>
</trkpt>
<trkpt lat="33.8100855" lon="-118.3945515">
  <ele>-25.011</ele>
  <time>2026-09-01T01:14:13Z</time>
  <course>299.66</course>
  <speed>0.9752948272189288</speed>
  <fix>3d</fix>
</trkpt>
<trkpt lat="33.8100865" lon="-118.3945511">
  <ele>-24.4</ele>
  <time>2026-09-01T01:14:13Z</time>
  <course>209.77</course>
  <speed>1.0</speed>
  <fix>3d</fix>
</trkpt>
<trkpt lat="33.8100847" lon="-118.394552">
  <ele>-25.011</ele>
  <time>2026-09-01T01:14:13Z</time>
  <course>299.77</course>
  <speed>0.9664884893261793</speed>
  <fix>3d</fix>
</trkpt>
<trkpt lat="33.8100865" lon="-118.3945511">
  <ele>-24.4</ele>
  <time>2026-09-01T01:14:13Z</time>
  <course>209.77</course>
  <speed>1.0</speed>
  <fix>3d</fix>
</trkpt>
<trkpt lat="33.8100839" lon="-118.3945526">
  <ele>-25.012</ele>
  <time>2026-09-01T01:14:13Z</time>
  <course>299.89</course>
  <speed>0.9712878049270464</speed>
  <fix>3d</fix>
</trkpt>
<trkpt lat="33.8100849" lon="-118.3945522">
  <ele>-24.4</ele>
  <time>2026-09-01T01:14:13Z</time>
  <course>210.0</course>
  <speed>1.0</speed>
  <fix>3d</fix>
</trkpt>
<trkpt lat="33.8100831" lon="-118.3945531">
  <ele>-25.012</ele>
  <time>2026-09-01T01:14:13Z</time>
  <course>300.01</course>
  <speed>0.9712878049270464</speed>
  <fix>3d</fix>
</trkpt>
<trkpt lat="33.8100849" lon="-118.3945522">
  <ele>-24.4</ele>
  <time>2026-09-01T01:14:13Z</time>
  <course>210.0</course>
  <speed>1.0</speed>
  <fix>3d</fix>
</trkpt>
<trkpt lat="33.8100823" lon="-118.3945537">
  <ele>-25.012</ele>
  <time>2026-09-01T01:14:13Z</time>
  <course>300.12</course>
  <speed>0.9712878049270464</speed>
  <fix>3d</fix>
</trkpt>
<trkpt lat="33.8100833" lon="-118.3945533">
  <ele>-24.4</ele>
  <time>2026-09-01T01:14:13Z</time>
  <course>210.21</course>
  <speed>1.0</speed>
  <fix>3d</fix>
</trkpt>
<trkpt lat="33.8100816" lon="-118.3945542">
  <ele>-25.012</ele>
  <time>2026-09-01T01:14:13Z</time>
  <course>300.24</course>
  <speed>0.9712878049270464</speed>
  <fix>3d</fix>
</trkpt>
<trkpt lat="33.8100833" lon="-118.3945533">
  <ele>-24.4</ele>
  <time>2026-09-01T01:14:13Z</time>
  <course>210.21</course>
  <speed>1.0</speed>
  <fix>3d</fix>
</trkpt>
<trkpt lat="33.8100808" lon="-118.3945548">
  <ele>-25.014</ele>
  <time>2026-09-01T01:14:13Z</time>
  <course>300.35</course>
  <speed>0.9712878049270464</speed>
  <fix>3d</fix>
</trkpt>
<trkpt lat="33.8100818" lon="-118.3945543">
  <ele>-24.4</ele>
  <time>2026-09-01T01:14:13Z</time>
  <course>210.41</course>
  <speed>1.0</speed>
  <fix>3d</fix>
</trkpt>
<trkpt lat="33.81008" lon="-118.3945553">
  <ele>-25.015</ele>
  <time>2026-09-01T01:14:13Z</time>
  <course>300.47</course>
  <speed>0.9712878049270464</speed>
  <fix>3d</fix>
</trkpt>
<trkpt lat="33.8100818" lon="-118.3945543">
  <ele>-24.4</ele>
  <time>2026-09-01T01:14:13Z</time>
  <course>210.41</course>
  <speed>1.0</speed>
  <fix>3d</fix>
</trkpt>
<trkpt lat="33.8100792" lon="-118.3945559">
  <ele>-25.016</ele>
  <time>2026-09-01T01:14:13Z</time>
  <course>300.59</course>
  <speed>0.9761659694949419</speed>
  <fix>3d</fix>
</trkpt>
<trkpt lat="33.8100802" lon="-118.3945555">
  <ele>-24.41</ele>
  <time>2026-09-01T01:14:13Z</time>
  <course>210.67</course>
  <speed>1.0</speed>
  <fix>3d</fix>
</trkpt>
<trkpt lat="33.8100785" lon="-118.3945564">
  <ele>-25.017</ele>
  <time>2026-09-01T01:14:13Z</time>
  <course>300.7</course>
  <speed>0.9761659694949419</speed>
  <fix>3d</fix>
</trkpt>
<trkpt lat="33.8100802" lon="-118.3945555">
  <ele>-24.41</ele>
  <time>2026-09-01T01:14:13Z</time>
  <course>210.67</course>
  <speed>1.0</speed>
  <fix>3d</fix>
</trkpt>
<trkpt lat="33.8100777" lon="-118.394557">
  <ele>-25.017</ele>
  <time>2026-09-01T01:14:13Z</time>
  <course>300.81</course>
  <speed>0.9674709297958259</speed>
  <fix>3d</fix>
</trkpt>
<trkpt lat="33.8100787" lon="-118.3945566">
  <ele>-24.41</ele>
  <time>2026-09-01T01:14:13Z</time>
  <course>210.93</course>
  <speed>1.0</speed>
  <fix>3d</fix>
</trkpt>
<trkpt lat="33.8100769" lon="-118.3945576">
  <ele>-25.018</ele>
  <time>2026-09-01T01:14:13Z</time>
  <course>300.93</course>
  <speed>0.9674709297958259</speed>
  <fix>3d</fix>
</trkpt>
<trkpt lat="33.8100787" lon="-118.3945566">
  <ele>-24.41</ele>
  <time>2026-09-01T01:14:13Z</time>
  <course>210.93</course>
  <speed>1.0</speed>
  <fix>3d</fix>
</trkpt>
<trkpt lat="33.8100761" lon="-118.3945581">
  <ele>-25.017</ele>
  <time>2026-09-01T01:14:13Z</time>
  <course>301.04</course>
  <speed>0.9674709297958259</speed>
  <fix>3d</fix>
</trkpt>
<trkpt lat="33.8100771" lon="-118.3945577">
  <ele>-24.4</ele>
  <time>2026-09-01T01:14:13Z</time>
  <course>211.16</course>
  <speed>1.0</speed>
  <fix>3d</fix>
</trkpt>
<trkpt lat="33.8100754" lon="-118.3945587">
  <ele>-25.014</ele>
  <time>2026-09-01T01:14:13Z</time>
  <course>301.16</course>
  <speed>0.9674709297958259</speed>
  <fix>3d</fix>
</trkpt>
<trkpt lat="33.8100771" lon="-118.3945577">
  <ele>-24.4</ele>
  <time>2026-09-01T01:14:13Z</time>
  <course>211.16</course>
  <speed>1.0</speed>
  <fix>3d</fix>
</trkpt>
<trkpt lat="33.8100746" lon="-118.3945592">
  <ele>-25.011</ele>
  <time>2026-09-01T01:14:13Z</time>
  <course>301.28</course>
  <speed>0.9724710792614863</speed>
  <fix>3d</fix>
</trkpt>
<trkpt lat="33.8100756" lon="-118.3945588">
  <ele>-24.4</ele>
  <time>2026-09-01T01:14:13Z</time>
  <course>211.4</course>
  <speed>1.0</speed>
  <fix>3d</fix>
</trkpt>
<trkpt lat="33.8100738" lon="-118.3945598">
  <ele>-25.009</ele>
  <time>2026-09-01T01:14:13Z</time>
  <course>301.39</course>
  <speed>0.9724710792614863</speed>
  <fix>3d</fix>
</trkpt>
<trkpt lat="33.8100756" lon="-118.3945588">
  <ele>-24.4</ele>
  <time>2026-09-01T01:14:13Z</time>
  <course>211.4</course>
  <speed>1.0</speed>
  <fix>3d</fix>
</trkpt>
<trkpt lat="33.8100731" lon="-118.3945604">
  <ele>-25.008</ele>
  <time>2026-09-01T01:14:13Z</time>
  <course>301.51</course>
  <speed>0.9724710792614863</speed>
  <fix>3d</fix>
</trkpt>
<trkpt lat="33.810074" lon="-118.3945599">
  <ele>-24.4</ele>
  <time>2026-09-01T01:14:13Z</time>
  <course>211.65</course>
  <speed>1.0</speed>
  <fix>3d</fix>
</trkpt>
<trkpt lat="33.8100723" lon="-118.394561">
  <ele>-25.009</ele>
  <time>2026-09-01T01:14:13Z</time>
  <course>301.63</course>
  <speed>0.9724710792614863</speed>
  <fix>3d</fix>
</trkpt>
<trkpt lat="33.810074" lon="-118.3945599">
  <ele>-24.4</ele>
  <time>2026-09-01T01:14:13Z</time>
  <course>211.65</course>
  <speed>1.0</speed>
  <fix>3d</fix>
</trkpt>
<trkpt lat="33.8100715" lon="-118.3945615">
  <ele>-25.01</ele>
  <time>2026-09-01T01:14:13Z</time>
  <course>301.74</course>
  <speed>0.9638464608017192</speed>
  <fix>3d</fix>
</trkpt>
<trkpt lat="33.8100725" lon="-118.3945611">
  <ele>-24.4</ele>
  <time>2026-09-01T01:14:13Z</time>
  <course>211.93</course>
  <speed>1.0</speed>
  <fix>3d</fix>
</trkpt>
<trkpt lat="33.8100708" lon="-118.3945621">
  <ele>-25.011</ele>
  <time>2026-09-01T01:14:13Z</time>
  <course>301.86</course>
  <speed>0.9689685237405805</speed>
  <fix>3d</fix>
</trkpt>
<trkpt lat="33.8100725" lon="-118.3945611">
  <ele>-24.4</ele>
  <time>2026-09-01T01:14:13Z</time>
  <course>211.93</course>
  <speed>1.0</speed>
  <fix>3d</fix>
</trkpt>
<trkpt lat="33.81007" lon="-118.3945627">
  <ele>-25.011</ele>
  <time>2026-09-01T01:14:13Z</time>
  <course>301.97</course>
  <speed>0.9689685237405805</speed>
  <fix>3d</fix>
</trkpt>
<trkpt lat="33.810071" lon="-118.3945622">
  <ele>-24.4</ele>
  <time>2026-09-01T01:14:13Z</time>
  <course>212.22</course>
  <speed>0.99</speed>
  <fix>3d</fix>
</trkpt>
<trkpt lat="33.8100693" lon="-118.3945633">
  <ele>-25.011</ele>
  <time>2026-09-01T01:14:13Z</time>
  <course>302.09</course>
  <speed>0.9689685237405805</speed>
  <fix>3d</fix>
</trkpt>
<trkpt lat="33.810071" lon="-118.3945622">
  <ele>-24.4</ele>
  <time>2026-09-01T01:14:13Z</time>
  <course>212.22</course>
  <speed>0.99</speed>
  <fix>3d</fix>
</trkpt>
<trkpt lat="33.8100685" lon="-118.3945638">
  <ele>-25.012</ele>
  <time>2026-09-01T01:14:13Z</time>
  <course>302.2</course>
  <speed>0.9689685237405805</speed>
  <fix>3d</fix>
</trkpt>
<trkpt lat="33.8100695" lon="-118.3945633">
  <ele>-24.4</ele>
  <time>2026-09-01T01:14:13Z</time>
  <course>212.47</course>
  <speed>0.99</speed>
  <fix>3d</fix>
</trkpt>
<trkpt lat="33.8100677" lon="-118.3945644">
  <ele>-25.013</ele>
  <time>2026-09-01T01:14:13Z</time>
  <course>302.32</course>
  <speed>0.9689685237405805</speed>
  <fix>3d</fix>
</trkpt>
<trkpt lat="33.8100695" lon="-118.3945633">
  <ele>-24.4</ele>
  <time>2026-09-01T01:14:13Z</time>
  <course>212.47</course>
  <speed>0.99</speed>
  <fix>3d</fix>
</trkpt>
<trkpt lat="33.810067" lon="-118.394565">
  <ele>-25.013</ele>
  <time>2026-09-01T01:14:13Z</time>
  <course>302.43</course>
  <speed>0.9741663102366043</speed>
  <fix>3d</fix>
</trkpt>
<trkpt lat="33.810068" lon="-118.3945646">
  <ele>-24.41</ele>
  <time>2026-09-01T01:14:13Z</time>
  <course>212.71</course>
  <speed>1.0</speed>
  <fix>3d</fix>
</trkpt>
<trkpt lat="33.8100662" lon="-118.3945656">
  <ele>-25.012</ele>
  <time>2026-09-01T01:14:13Z</time>
  <course>302.55</course>
  <speed>0.9741663102366043</speed>
  <fix>3d</fix>
</trkpt>
<trkpt lat="33.810068" lon="-118.3945646">
  <ele>-24.41</ele>
  <time>2026-09-01T01:14:13Z</time>
  <course>212.71</course>
  <speed>1.0</speed>
  <fix>3d</fix>
</trkpt>
<trkpt lat="33.8100655" lon="-118.3945662">
  <ele>-25.012</ele>
  <time>2026-09-01T01:14:13Z</time>
  <course>302.67</course>
  <speed>0.9741663102366043</speed>
  <fix>3d</fix>
</trkpt>
<trkpt lat="33.8100665" lon="-118.3945657">
  <ele>-24.41</ele>
  <time>2026-09-01T01:14:13Z</time>
  <course>212.93</course>
  <speed>1.0</speed>
  <fix>3d</fix>
</trkpt>
<trkpt lat="33.8100647" lon="-118.3945668">
  <ele>-25.013</ele>
  <time>2026-09-01T01:14:13Z</time>
  <course>302.78</course>
  <speed>0.9741663102366043</speed>
  <fix>3d</fix>
</trkpt>
<trkpt lat="33.8100665" lon="-118.3945657">
  <ele>-24.41</ele>
  <time>2026-09-01T01:14:13Z</time>
  <course>212.93</course>
  <speed>1.0</speed>
  <fix>3d</fix>
</trkpt>
<trkpt lat="33.810064" lon="-118.3945674">
  <ele>-25.014</ele>
  <time>2026-09-01T01:14:13Z</time>
  <course>302.9</course>
  <speed>0.9741663102366043</speed>
  <fix>3d</fix>
</trkpt>
<trkpt lat="33.8100649" lon="-118.3945669">
  <ele>-24.41</ele>
  <time>2026-09-01T01:14:13Z</time>
  <course>213.11</course>
  <speed>1.0</speed>
  <fix>3d</fix>
</trkpt>
<trkpt lat="33.8100632" lon="-118.3945679">
  <ele>-25.015</ele>
  <time>2026-09-01T01:14:13Z</time>
  <course>303.01</course>
  <speed>0.9741663102366043</speed>
  <fix>3d</fix>
</trkpt>
<trkpt lat="33.8100649" lon="-118.3945669">
  <ele>-24.41</ele>
  <time>2026-09-01T01:14:13Z</time>
  <course>213.11</course>
  <speed>1.0</speed>
  <fix>3d</fix>
</trkpt>
<trkpt lat="33.8100625" lon="-118.3945685">
  <ele>-25.016</ele>
  <time>2026-09-01T01:14:13Z</time>
  <course>303.13</course>
  <speed>0.9656603957913983</speed>
  <fix>3d</fix>
</trkpt>
<trkpt lat="33.8100634" lon="-118.394568">
  <ele>-24.41</ele>
  <time>2026-09-01T01:14:13Z</time>
  <course>213.31</course>
  <speed>1.0</speed>
  <fix>3d</fix>
</trkpt>
<trkpt lat="33.8100617" lon="-118.3945691">
  <ele>-25.016</ele>
  <time>2026-09-01T01:14:13Z</time>
  <course>303.24</course>
  <speed>0.9709788875150684</speed>
  <fix>3d</fix>
</trkpt>
<trkpt lat="33.8100634" lon="-118.394568">
  <ele>-24.41</ele>
  <time>2026-09-01T01:14:13Z</time>
  <course>213.31</course>
  <speed>1.0</speed>
  <fix>3d</fix>
</trkpt>
<trkpt lat="33.810061" lon="-118.3945697">
  <ele>-25.016</ele>
  <time>2026-09-01T01:14:13Z</time>
  <course>303.36</course>
  <speed>0.9709788875150684</speed>
  <fix>3d</fix>
</trkpt>
<trkpt lat="33.8100619" lon="-118.3945693">
  <ele>-24.41</ele>
  <time>2026-09-01T01:14:13Z</time>
  <course>213.58</course>
  <speed>1.0</speed>
  <fix>3d</fix>
</trkpt>
<trkpt lat="33.8100602" lon="-118.3945703">
  <ele>-25.015</ele>
  <time>2026-09-01T01:14:13Z</time>
  <course>303.47</course>
  <speed>0.9709788875150684</speed>
  <fix>3d</fix>
</trkpt>
<trkpt lat="33.8100619" lon="-118.3945693">
  <ele>-24.41</ele>
  <time>2026-09-01T01:14:13Z</time>
  <course>213.58</course>
  <speed>1.0</speed>
  <fix>3d</fix>
</trkpt>
<trkpt lat="33.8100595" lon="-118.3945709">
  <ele>-25.014</ele>
  <time>2026-09-01T01:14:13Z</time>
  <course>303.59</course>
  <speed>0.9709788875150684</speed>
  <fix>3d</fix>
</trkpt>
<trkpt lat="33.8100604" lon="-118.3945704">
  <ele>-24.41</ele>
  <time>2026-09-01T01:14:13Z</time>
  <course>213.86</course>
  <speed>1.0</speed>
  <fix>3d</fix>
</trkpt>
<trkpt lat="33.8100587" lon="-118.3945715">
  <ele>-25.015</ele>
  <time>2026-09-01T01:14:13Z</time>
  <course>303.7</course>
  <speed>0.9709788875150684</speed>
  <fix>3d</fix>
</trkpt>
<trkpt lat="33.8100604" lon="-118.3945704">
  <ele>-24.41</ele>
  <time>2026-09-01T01:14:13Z</time>
  <course>213.86</course>
  <speed>1.0</speed>
  <fix>3d</fix>
</trkpt>
<trkpt lat="33.810058" lon="-118.3945721">
  <ele>-25.016</ele>
  <time>2026-09-01T01:14:13Z</time>
  <course>303.82</course>
  <speed>0.9763708311906906</speed>
  <fix>3d</fix>
</trkpt>
<trkpt lat="33.8100589" lon="-118.3945717">
  <ele>-24.41</ele>
  <time>2026-09-01T01:14:13Z</time>
  <course>214.13</course>
  <speed>1.0</speed>
  <fix>3d</fix>
</trkpt>
<trkpt lat="33.8100572" lon="-118.3945728">
  <ele>-25.017</ele>
  <time>2026-09-01T01:14:13Z</time>
  <course>303.94</course>
  <speed>0.9763708311906906</speed>
  <fix>3d</fix>
</trkpt>
<trkpt lat="33.8100589" lon="-118.3945717">
  <ele>-24.41</ele>
  <time>2026-09-01T01:14:13Z</time>
  <course>214.13</course>
  <speed>1.0</speed>
  <fix>3d</fix>
</trkpt>
<trkpt lat="33.8100565" lon="-118.3945734">
  <ele>-25.017</ele>
  <time>2026-09-01T01:14:13Z</time>
  <course>304.05</course>
  <speed>0.9763708311906906</speed>
  <fix>3d</fix>
</trkpt>
<trkpt lat="33.8100575" lon="-118.3945729">
  <ele>-24.41</ele>
  <time>2026-09-01T01:14:13Z</time>
  <course>214.4</course>
  <speed>1.0</speed>
  <fix>3d</fix>
</trkpt>
<trkpt lat="33.8100558" lon="-118.394574">
  <ele>-25.016</ele>
  <time>2026-09-01T01:14:13Z</time>
  <course>304.17</course>
  <speed>0.9763708311906906</speed>
  <fix>3d</fix>
</trkpt>
<trkpt lat="33.8100575" lon="-118.3945729">
  <ele>-24.41</ele>
  <time>2026-09-01T01:14:13Z</time>
  <course>214.4</course>
  <speed>1.0</speed>
  <fix>3d</fix>
</trkpt>
<trkpt lat="33.810055" lon="-118.3945746">
  <ele>-25.015</ele>
  <time>2026-09-01T01:14:13Z</time>
  <course>304.28</course>
  <speed>0.9763708311906906</speed>
  <fix>3d</fix>
</trkpt>
<trkpt lat="33.810056" lon="-118.3945742">
  <ele>-24.41</ele>
  <time>2026-09-01T01:14:13Z</time>
  <course>214.62</course>
  <speed>1.0</speed>
  <fix>3d</fix>
</trkpt>
<trkpt lat="33.8100543" lon="-118.3945752">
  <ele>-25.015</ele>
  <time>2026-09-01T01:14:13Z</time>
  <course>304.39</course>
  <speed>0.9763708311906906</speed>
  <fix>3d</fix>
</trkpt>
<trkpt lat="33.810056" lon="-118.3945742">
  <ele>-24.41</ele>
  <time>2026-09-01T01:14:13Z</time>
  <course>214.62</course>
  <speed>1.0</speed>
  <fix>3d</fix>
</trkpt>
<trkpt lat="33.8100535" lon="-118.3945758">
  <ele>-25.015</ele>
  <time>2026-09-01T01:14:13Z</time>
  <course>304.51</course>
  <speed>0.9679876032264049</speed>
  <fix>3d</fix>
</trkpt>
<trkpt lat="33.8100545" lon="-118.3945754">
  <ele>-24.41</ele>
  <time>2026-09-01T01:14:13Z</time>
  <course>214.74</course>
  <speed>1.0</speed>
  <fix>3d</fix>
</trkpt>
<trkpt lat="33.8100528" lon="-118.3945764">
  <ele>-25.015</ele>
  <time>2026-09-01T01:14:13Z</time>
  <course>304.62</course>
  <speed>0.973498844375277</speed>
  <fix>3d</fix>
</trkpt>
<trkpt lat="33.8100545" lon="-118.3945754">
  <ele>-24.41</ele>
  <time>2026-09-01T01:14:13Z</time>
  <course>214.74</course>
  <speed>1.0</speed>
  <fix>3d</fix>
</trkpt>
<trkpt lat="33.8100521" lon="-118.3945771">
  <ele>-25.015</ele>
  <time>2026-09-01T01:14:13Z</time>
  <course>304.74</course>
  <speed>0.973498844375277</speed>
  <fix>3d</fix>
</trkpt>
<trkpt lat="33.810053" lon="-118.3945766">
  <ele>-24.41</ele>
  <time>2026-09-01T01:14:13Z</time>
  <course>214.85</course>
  <speed>1.0</speed>
  <fix>3d</fix>
</trkpt>
<trkpt lat="33.8100513" lon="-118.3945777">
  <ele>-25.015</ele>
  <time>2026-09-01T01:14:13Z</time>
  <course>304.85</course>
  <speed>0.973498844375277</speed>
  <fix>3d</fix>
</trkpt>
<trkpt lat="33.810053" lon="-118.3945766">
  <ele>-24.41</ele>
  <time>2026-09-01T01:14:13Z</time>
  <course>214.85</course>
  <speed>1.0</speed>
  <fix>3d</fix>
</trkpt>
<trkpt lat="33.8100506" lon="-118.3945783">
  <ele>-25.014</ele>
  <time>2026-09-01T01:14:13Z</time>
  <course>304.97</course>
  <speed>0.973498844375277</speed>
  <fix>3d</fix>
</trkpt>
<trkpt lat="33.8100515" lon="-118.3945779">
  <ele>-24.41</ele>
  <time>2026-09-01T01:14:13Z</time>
  <course>215.02</course>
  <speed>1.0</speed>
  <fix>3d</fix>
</trkpt>
<trkpt lat="33.8100499" lon="-118.3945789">
  <ele>-25.014</ele>
  <time>2026-09-01T01:14:13Z</time>
  <course>305.09</course>
  <speed>0.973498844375277</speed>
  <fix>3d</fix>
</trkpt>
<trkpt lat="33.8100515" lon="-118.3945779">
  <ele>-24.41</ele>
  <time>2026-09-01T01:14:13Z</time>
  <course>215.02</course>
  <speed>1.0</speed>
  <fix>3d</fix>
</trkpt>
<trkpt lat="33.8100491" lon="-118.3945796">
  <ele>-25.015</ele>
  <time>2026-09-01T01:14:13Z</time>
  <course>305.2</course>
  <speed>0.973498844375277</speed>
  <fix>3d</fix>
</trkpt>
<trkpt lat="33.8100501" lon="-118.3945791">
  <ele>-24.41</ele>
  <time>2026-09-01T01:14:13Z</time>
  <course>215.23</course>
  <speed>1.0</speed>
  <fix>3d</fix>
</trkpt>
<trkpt lat="33.8100484" lon="-118.3945802">
  <ele>-25.016</ele>
  <time>2026-09-01T01:14:13Z</time>
  <course>305.31</course>
  <speed>0.973498844375277</speed>
  <fix>3d</fix>
</trkpt>
<trkpt lat="33.8100501" lon="-118.3945791">
  <ele>-24.41</ele>
  <time>2026-09-01T01:14:13Z</time>
  <course>215.23</course>
  <speed>1.0</speed>
  <fix>3d</fix>
</trkpt>
<trkpt lat="33.8100477" lon="-118.3945808">
  <ele>-25.016</ele>
  <time>2026-09-01T01:14:13Z</time>
  <course>305.43</course>
  <speed>0.979081201943945</speed>
  <fix>3d</fix>
</trkpt>
<trkpt lat="33.8100486" lon="-118.3945804">
  <ele>-24.41</ele>
  <time>2026-09-01T01:14:13Z</time>
  <course>215.44</course>
  <speed>1.0</speed>
  <fix>3d</fix>
</trkpt>
<trkpt lat="33.8100469" lon="-118.3945815">
  <ele>-25.015</ele>
  <time>2026-09-01T01:14:13Z</time>
  <course>305.55</course>
  <speed>0.97082439194738</speed>
  <fix>3d</fix>
</trkpt>
<trkpt lat="33.8100486" lon="-118.3945804">
  <ele>-24.41</ele>
  <time>2026-09-01T01:14:13Z</time>
  <course>215.44</course>
  <speed>1.0</speed>
  <fix>3d</fix>
</trkpt>
<trkpt lat="33.8100462" lon="-118.3945821">
  <ele>-25.015</ele>
  <time>2026-09-01T01:14:13Z</time>
  <course>305.66</course>
  <speed>0.97082439194738</speed>
  <fix>3d</fix>
</trkpt>
<trkpt lat="33.8100471" lon="-118.3945816">
  <ele>-24.4</ele>
  <time>2026-09-01T01:14:13Z</time>
  <course>215.65</course>
  <speed>1.0</speed>
  <fix>3d</fix>
</trkpt>
<trkpt lat="33.8100455" lon="-118.3945827">
  <ele>-25.015</ele>
  <time>2026-09-01T01:14:13Z</time>
  <course>305.78</course>
  <speed>0.97082439194738</speed>
  <fix>3d</fix>
</trkpt>
<trkpt lat="33.8100471" lon="-118.3945816">
  <ele>-24.4</ele>
  <time>2026-09-01T01:14:13Z</time>
  <course>215.65</course>
  <speed>1.0</speed>
  <fix>3d</fix>
</trkpt>
<trkpt lat="33.8100447" lon="-118.3945834">
  <ele>-25.015</ele>
  <time>2026-09-01T01:14:13Z</time>
  <course>305.9</course>
  <speed>0.97082439194738</speed>
  <fix>3d</fix>
</trkpt>
<trkpt lat="33.8100456" lon="-118.3945829">
  <ele>-24.4</ele>
  <time>2026-09-01T01:14:13Z</time>
  <course>215.89</course>
  <speed>1.0</speed>
  <fix>3d</fix>
</trkpt>
<trkpt lat="33.810044" lon="-118.394584">
  <ele>-25.013</ele>
  <time>2026-09-01T01:14:13Z</time>
  <course>306.01</course>
  <speed>0.97082439194738</speed>
  <fix>3d</fix>
</trkpt>
<trkpt lat="33.8100456" lon="-118.3945829">
  <ele>-24.4</ele>
  <time>2026-09-01T01:14:13Z</time>
  <course>215.89</course>
  <speed>1.0</speed>
  <fix>3d</fix>
</trkpt>
<trkpt lat="33.8100433" lon="-118.3945846">
  <ele>-25.011</ele>
  <time>2026-09-01T01:14:13Z</time>
  <course>306.13</course>
  <speed>0.9765244492586962</speed>
  <fix>3d</fix>
</trkpt>
<trkpt lat="33.8100442" lon="-118.3945842">
  <ele>-24.4</ele>
  <time>2026-09-01T01:14:13Z</time>
  <course>216.18</course>
  <speed>1.0</speed>
  <fix>3d</fix>
</trkpt>
<trkpt lat="33.8100426" lon="-118.3945853">
  <ele>-25.01</ele>
  <time>2026-09-01T01:14:13Z</time>
  <course>306.24</course>
  <speed>0.9765244492586962</speed>
  <fix>3d</fix>
</trkpt>
<trkpt lat="33.8100442" lon="-118.3945842">
  <ele>-24.4</ele>
  <time>2026-09-01T01:14:13Z</time>
  <course>216.18</course>
  <speed>1.0</speed>
  <fix>3d</fix>
</trkpt>
<trkpt lat="33.8100418" lon="-118.3945859">
  <ele>-25.008</ele>
  <time>2026-09-01T01:14:13Z</time>
  <course>306.36</course>
  <speed>0.9683491106000975</speed>
  <fix>3d</fix>
</trkpt>
<trkpt lat="33.8100428" lon="-118.3945855">
  <ele>-24.4</ele>
  <time>2026-09-01T01:14:13Z</time>
  <course>216.44</course>
  <speed>1.0</speed>
  <fix>3d</fix>
</trkpt>
<trkpt lat="33.8100411" lon="-118.3945866">
  <ele>-25.008</ele>
  <time>2026-09-01T01:14:13Z</time>
  <course>306.47</course>
  <speed>0.9683491106000975</speed>
  <fix>3d</fix>
</trkpt>
<trkpt lat="33.8100428" lon="-118.3945855">
  <ele>-24.4</ele>
  <time>2026-09-01T01:14:13Z</time>
  <course>216.44</course>
  <speed>1.0</speed>
  <fix>3d</fix>
</trkpt>
<trkpt lat="33.8100404" lon="-118.3945872">
  <ele>-25.009</ele>
  <time>2026-09-01T01:14:13Z</time>
  <course>306.59</course>
  <speed>0.9683491106000975</speed>
  <fix>3d</fix>
</trkpt>
<trkpt lat="33.8100413" lon="-118.3945867">
  <ele>-24.4</ele>
  <time>2026-09-01T01:14:13Z</time>
  <course>216.65</course>
  <speed>1.0</speed>
  <fix>3d</fix>
</trkpt>
<trkpt lat="33.8100397" lon="-118.3945879">
  <ele>-25.009</ele>
  <time>2026-09-01T01:14:13Z</time>
  <course>306.7</course>
  <speed>0.9683491106000975</speed>
  <fix>3d</fix>
</trkpt>
<trkpt lat="33.8100413" lon="-118.3945867">
  <ele>-24.4</ele>
  <time>2026-09-01T01:14:13Z</time>
  <course>216.65</course>
  <speed>1.0</speed>
  <fix>3d</fix>
</trkpt>
<trkpt lat="33.810039" lon="-118.3945885">
  <ele>-25.009</ele>
  <time>2026-09-01T01:14:13Z</time>
  <course>306.82</course>
  <speed>0.9741663102366043</speed>
  <fix>3d</fix>
</trkpt>
<trkpt lat="33.8100399" lon="-118.394588">
  <ele>-24.4</ele>
  <time>2026-09-01T01:14:13Z</time>
  <course>216.86</course>
  <speed>1.0</speed>
  <fix>3d</fix>
</trkpt>
<trkpt lat="33.8100383" lon="-118.3945892">
  <ele>-25.009</ele>
  <time>2026-09-01T01:14:13Z</time>
  <course>306.93</course>
  <speed>0.9741663102366043</speed>
  <fix>3d</fix>
</trkpt>
<trkpt lat="33.8100399" lon="-118.394588">
  <ele>-24.4</ele>
  <time>2026-09-01T01:14:13Z</time>
  <course>216.86</course>
  <speed>1.0</speed>
  <fix>3d</fix>
</trkpt>
<trkpt lat="33.8100375" lon="-118.3945898">
  <ele>-25.011</ele>
  <time>2026-09-01T01:14:13Z</time>
  <course>307.05</course>
  <speed>0.9741663102366043</speed>
  <fix>3d</fix>
</trkpt>
<trkpt lat="33.8100384" lon="-118.3945894">
  <ele>-24.4</ele>
  <time>2026-09-01T01:14:13Z</time>
  <course>217.12</course>
  <speed>1.0</speed>
  <fix>3d</fix>
</trkpt>
<trkpt lat="33.8100368" lon="-118.3945905">
  <ele>-25.013</ele>
  <time>2026-09-01T01:14:13Z</time>
  <course>307.16</course>
  <speed>0.9741663102366043</speed>
  <fix>3d</fix>
</trkpt>
<trkpt lat="33.8100384" lon="-118.3945894">
  <ele>-24.4</ele>
  <time>2026-09-01T01:14:13Z</time>
  <course>217.12</course>
  <speed>1.0</speed>
  <fix>3d</fix>
</trkpt>
<trkpt lat="33.8100361" lon="-118.3945912">
  <ele>-25.015</ele>
  <time>2026-09-01T01:14:13Z</time>
  <course>307.28</course>
  <speed>0.9660745312862771</speed>
  <fix>3d</fix>
</trkpt>
<trkpt lat="33.8100369" lon="-118.3945907">
  <ele>-24.41</ele>
  <time>2026-09-01T01:14:13Z</time>
  <course>217.35</course>
  <speed>1.0</speed>
  <fix>3d</fix>
</trkpt>
<trkpt lat="33.8100354" lon="-118.3945918">
  <ele>-25.016</ele>
  <time>2026-09-01T01:14:13Z</time>
  <course>307.39</course>
  <speed>0.9660745312862771</speed>
  <fix>3d</fix>
</trkpt>
<trkpt lat="33.8100369" lon="-118.3945907">
  <ele>-24.41</ele>
  <time>2026-09-01T01:14:13Z</time>
  <course>217.35</course>
  <speed>1.0</speed>
  <fix>3d</fix>
</trkpt>
<trkpt lat="33.8100347" lon="-118.3945925">
  <ele>-25.017</ele>
  <time>2026-09-01T01:14:13Z</time>
  <course>307.5</course>
  <speed>0.9660745312862771</speed>
  <fix>3d</fix>
</trkpt>
<trkpt lat="33.8100356" lon="-118.394592">
  <ele>-24.41</ele>
  <time>2026-09-01T01:14:13Z</time>
  <course>217.58</course>
  <speed>1.0</speed>
  <fix>3d</fix>
</trkpt>
<trkpt lat="33.810034" lon="-118.3945931">
  <ele>-25.015</ele>
  <time>2026-09-01T01:14:13Z</time>
  <course>307.61</course>
  <speed>0.9660745312862771</speed>
  <fix>3d</fix>
</trkpt>
<trkpt lat="33.8100356" lon="-118.394592">
  <ele>-24.41</ele>
  <time>2026-09-01T01:14:13Z</time>
  <course>217.58</course>
  <speed>1.0</speed>
  <fix>3d</fix>
</trkpt>
<trkpt lat="33.8100332" lon="-118.3945938">
  <ele>-25.014</ele>
  <time>2026-09-01T01:14:13Z</time>
  <course>307.72</course>
  <speed>0.9720082304178294</speed>
  <fix>3d</fix>
</trkpt>
<trkpt lat="33.8100341" lon="-118.3945933">
  <ele>-24.41</ele>
  <time>2026-09-01T01:14:13Z</time>
  <course>217.81</course>
  <speed>1.0</speed>
  <fix>3d</fix>
</trkpt>
<trkpt lat="33.8100325" lon="-118.3945945">
  <ele>-25.014</ele>
  <time>2026-09-01T01:14:13Z</time>
  <course>307.84</course>
  <speed>0.9720082304178294</speed>
  <fix>3d</fix>
</trkpt>
<trkpt lat="33.8100341" lon="-118.3945933">
  <ele>-24.41</ele>
  <time>2026-09-01T01:14:13Z</time>
  <course>217.81</course>
  <speed>1.0</speed>
  <fix>3d</fix>
</trkpt>
<trkpt lat="33.8100318" lon="-118.3945952">
  <ele>-25.014</ele>
  <time>2026-09-01T01:14:13Z</time>
  <course>307.97</course>
  <speed>0.9720082304178294</speed>
  <fix>3d</fix>
</trkpt>
<trkpt lat="33.8100327" lon="-118.3945947">
  <ele>-24.41</ele>
  <time>2026-09-01T01:14:13Z</time>
  <course>218.05</course>
  <speed>1.0</speed>
  <fix>3d</fix>
</trkpt>
<trkpt lat="33.8100311" lon="-118.3945958">
  <ele>-25.014</ele>
  <time>2026-09-01T01:14:13Z</time>
  <course>308.08</course>
  <speed>0.9640020746865642</speed>
  <fix>3d</fix>
</trkpt>
<trkpt lat="33.8100327" lon="-118.3945947">
  <ele>-24.41</ele>
  <time>2026-09-01T01:14:13Z</time>
  <course>218.05</course>
  <speed>1.0</speed>
  <fix>3d</fix>
</trkpt>
<trkpt lat="33.8100304" lon="-118.3945965">
  <ele>-25.015</ele>
  <time>2026-09-01T01:14:13Z</time>
  <course>308.2</course>
  <speed>0.9640020746865642</speed>
  <fix>3d</fix>
</trkpt>
<trkpt lat="33.8100313" lon="-118.394596">
  <ele>-24.41</ele>
  <time>2026-09-01T01:14:13Z</time>
  <course>218.29</course>
  <speed>1.0</speed>
  <fix>3d</fix>
</trkpt>
<trkpt lat="33.8100297" lon="-118.3945972">
  <ele>-25.016</ele>
  <time>2026-09-01T01:14:13Z</time>
  <course>308.31</course>
  <speed>0.9640020746865642</speed>
  <fix>3d</fix>
</trkpt>
<trkpt lat="33.8100313" lon="-118.394596">
  <ele>-24.41</ele>
  <time>2026-09-01T01:14:13Z</time>
  <course>218.29</course>
  <speed>1.0</speed>
  <fix>3d</fix>
</trkpt>
<trkpt lat="33.810029" lon="-118.3945978">
  <ele>-25.017</ele>
  <time>2026-09-01T01:14:13Z</time>
  <course>308.42</course>
  <speed>0.970051545022222</speed>
  <fix>3d</fix>
</trkpt>
<trkpt lat="33.8100298" lon="-118.3945973">
  <ele>-24.41</ele>
  <time>2026-09-01T01:14:13Z</time>
  <course>218.5</course>
  <speed>1.0</speed>
  <fix>3d</fix>
</trkpt>
<trkpt lat="33.8100283" lon="-118.3945985">
  <ele>-25.017</ele>
  <time>2026-09-01T01:14:13Z</time>
  <course>308.54</course>
  <speed>0.970051545022222</speed>
  <fix>3d</fix>
</trkpt>
<trkpt lat="33.8100298" lon="-118.3945973">
  <ele>-24.41</ele>
  <time>2026-09-01T01:14:13Z</time>
  <course>218.5</course>
  <speed>1.0</speed>
  <fix>3d</fix>
</trkpt>
<trkpt lat="33.8100276" lon="-118.3945992">
  <ele>-25.016</ele>
  <time>2026-09-01T01:14:13Z</time>
  <course>308.66</course>
  <speed>0.970051545022222</speed>
  <fix>3d</fix>
</trkpt>
<trkpt lat="33.8100285" lon="-118.3945987">
  <ele>-24.41</ele>
  <time>2026-09-01T01:14:13Z</time>
  <course>218.76</course>
  <speed>0.99</speed>
  <fix>3d</fix>
</trkpt>
<trkpt lat="33.8100269" lon="-118.3945999">
  <ele>-25.016</ele>
  <time>2026-09-01T01:14:13Z</time>
  <course>308.77</course>
  <speed>0.970051545022222</speed>
  <fix>3d</fix>
</trkpt>
<trkpt lat="33.8100285" lon="-118.3945987">
  <ele>-24.41</ele>
  <time>2026-09-01T01:14:13Z</time>
  <course>218.76</course>
  <speed>0.99</speed>
  <fix>3d</fix>
</trkpt>
<trkpt lat="33.8100262" lon="-118.3946006">
  <ele>-25.016</ele>
  <time>2026-09-01T01:14:13Z</time>
  <course>308.89</course>
  <speed>0.970051545022222</speed>
  <fix>3d</fix>
</trkpt>
<trkpt lat="33.8100271" lon="-118.3946001">
  <ele>-24.41</ele>
  <time>2026-09-01T01:14:13Z</time>
  <course>219.04</course>
  <speed>0.99</speed>
  <fix>3d</fix>
</trkpt>
<trkpt lat="33.8100255" lon="-118.3946013">
  <ele>-25.016</ele>
  <time>2026-09-01T01:14:13Z</time>
  <course>309.01</course>
  <speed>0.9621330469326995</speed>
  <fix>3d</fix>
</trkpt>
<trkpt lat="33.8100271" lon="-118.3946001">
  <ele>-24.41</ele>
  <time>2026-09-01T01:14:13Z</time>
  <course>219.04</course>
  <speed>0.99</speed>
  <fix>3d</fix>
</trkpt>
<trkpt lat="33.8100248" lon="-118.3946019">
  <ele>-25.016</ele>
  <time>2026-09-01T01:14:13Z</time>
  <course>309.12</course>
  <speed>0.9621330469326995</speed>
  <fix>3d</fix>
</trkpt>
<trkpt lat="33.8100257" lon="-118.3946014">
  <ele>-24.41</ele>
  <time>2026-09-01T01:14:13Z</time>
  <course>219.24</course>
  <speed>0.99</speed>
  <fix>3d</fix>
</trkpt>
<trkpt lat="33.8100241" lon="-118.3946026">
  <ele>-25.015</ele>
  <time>2026-09-01T01:14:13Z</time>
  <course>309.23</course>
  <speed>0.9682974749528164</speed>
  <fix>3d</fix>
</trkpt>
<trkpt lat="33.8100257" lon="-118.3946014">
  <ele>-24.41</ele>
  <time>2026-09-01T01:14:13Z</time>
  <course>219.24</course>
  <speed>0.99</speed>
  <fix>3d</fix>
</trkpt>
<trkpt lat="33.8100234" lon="-118.3946033">
  <ele>-25.013</ele>
  <time>2026-09-01T01:14:13Z</time>
  <course>309.35</course>
  <speed>0.9682974749528164</speed>
  <fix>3d</fix>
</trkpt>
<trkpt lat="33.8100242" lon="-118.3946028">
  <ele>-24.4</ele>
  <time>2026-09-01T01:14:13Z</time>
  <course>219.42</course>
  <speed>0.99</speed>
  <fix>3d</fix>
</trkpt>
<trkpt lat="33.8100227" lon="-118.394604">
  <ele>-25.011</ele>
  <time>2026-09-01T01:14:13Z</time>
  <course>309.46</course>
  <speed>0.9682974749528164</speed>
  <fix>3d</fix>
</trkpt>
<trkpt lat="33.8100242" lon="-118.3946028">
  <ele>-24.4</ele>
  <time>2026-09-01T01:14:13Z</time>
  <course>219.42</course>
  <speed>0.99</speed>
  <fix>3d</fix>
</trkpt>
<trkpt lat="33.810022" lon="-118.3946047">
  <ele>-25.009</ele>
  <time>2026-09-01T01:14:13Z</time>
  <course>309.57</course>
  <speed>0.9682974749528164</speed>
  <fix>3d</fix>
</trkpt>
<trkpt lat="33.8100229" lon="-118.3946042">
  <ele>-24.4</ele>
  <time>2026-09-01T01:14:13Z</time>
  <course>219.65</course>
  <speed>0.99</speed>
  <fix>3d</fix>
</trkpt>
<trkpt lat="33.8100213" lon="-118.3946054">
  <ele>-25.008</ele>
  <time>2026-09-01T01:14:13Z</time>
  <course>309.69</course>
  <speed>0.9682974749528164</speed>
  <fix>3d</fix>
</trkpt>
<trkpt lat="33.8100229" lon="-118.3946042">
  <ele>-24.4</ele>
  <time>2026-09-01T01:14:13Z</time>
  <course>219.65</course>
  <speed>0.99</speed>
  <fix>3d</fix>
</trkpt>
<trkpt lat="33.8100207" lon="-118.3946061">
  <ele>-25.008</ele>
  <time>2026-09-01T01:14:13Z</time>
  <course>309.81</course>
  <speed>0.9604686356149272</speed>
  <fix>3d</fix>
</trkpt>
<trkpt lat="33.8100216" lon="-118.3946056">
  <ele>-24.4</ele>
  <time>2026-09-01T01:14:13Z</time>
  <course>219.91</course>
  <speed>0.99</speed>
  <fix>3d</fix>
</trkpt>
<trkpt lat="33.81002" lon="-118.3946068">
  <ele>-25.01</ele>
  <time>2026-09-01T01:14:13Z</time>
  <course>309.92</course>
  <speed>0.9604686356149272</speed>
  <fix>3d</fix>
</trkpt>
<trkpt lat="33.8100216" lon="-118.3946056">
  <ele>-24.4</ele>
  <time>2026-09-01T01:14:13Z</time>
  <course>219.91</course>
  <speed>0.99</speed>
  <fix>3d</fix>
</trkpt>
<trkpt lat="33.8100193" lon="-118.3946075">
  <ele>-25.012</ele>
  <time>2026-09-01T01:14:13Z</time>
  <course>310.03</course>
  <speed>0.9667471230885561</speed>
  <fix>3d</fix>
</trkpt>
<trkpt lat="33.8100201" lon="-118.3946069">
  <ele>-24.4</ele>
  <time>2026-09-01T01:14:13Z</time>
  <course>220.13</course>
  <speed>0.99</speed>
  <fix>3d</fix>
</trkpt>
<trkpt lat="33.8100186" lon="-118.3946082">
  <ele>-25.013</ele>
  <time>2026-09-01T01:14:13Z</time>
  <course>310.15</course>
  <speed>0.9667471230885561</speed>
  <fix>3d</fix>
</trkpt>
<trkpt lat="33.8100201" lon="-118.3946069">
  <ele>-24.4</ele>
  <time>2026-09-01T01:14:13Z</time>
  <course>220.13</course>
  <speed>0.99</speed>
  <fix>3d</fix>
</trkpt>
<trkpt lat="33.8100179" lon="-118.3946089">
  <ele>-25.013</ele>
  <time>2026-09-01T01:14:13Z</time>
  <course>310.27</course>
  <speed>0.9667471230885561</speed>
  <fix>3d</fix>
</trkpt>
<trkpt lat="33.8100188" lon="-118.3946082">
  <ele>-24.41</ele>
  <time>2026-09-01T01:14:13Z</time>
  <course>220.32</course>
  <speed>0.99</speed>
  <fix>3d</fix>
</trkpt>
<trkpt lat="33.8100172" lon="-118.3946096">
  <ele>-25.014</ele>
  <time>2026-09-01T01:14:13Z</time>
  <course>310.38</course>
  <speed>0.9667471230885561</speed>
  <fix>3d</fix>
</trkpt>
<trkpt lat="33.8100188" lon="-118.3946082">
  <ele>-24.41</ele>
  <time>2026-09-01T01:14:13Z</time>
  <course>220.32</course>
  <speed>0.99</speed>
  <fix>3d</fix>
</trkpt>
<trkpt lat="33.8100166" lon="-118.3946103">
  <ele>-25.014</ele>
  <time>2026-09-01T01:14:13Z</time>
  <course>310.5</course>
  <speed>0.9667471230885561</speed>
  <fix>3d</fix>
</trkpt>
<trkpt lat="33.8100175" lon="-118.3946097">
  <ele>-24.41</ele>
  <time>2026-09-01T01:14:13Z</time>
  <course>220.61</course>
  <speed>0.99</speed>
  <fix>3d</fix>
</trkpt>
<trkpt lat="33.8100159" lon="-118.394611">
  <ele>-25.015</ele>
  <time>2026-09-01T01:14:13Z</time>
  <course>310.61</course>
  <speed>0.9730878685915265</speed>
  <fix>3d</fix>
</trkpt>
<trkpt lat="33.8100175" lon="-118.3946097">
  <ele>-24.41</ele>
  <time>2026-09-01T01:14:13Z</time>
  <course>220.61</course>
  <speed>0.99</speed>
  <fix>3d</fix>
</trkpt>
<trkpt lat="33.8100152" lon="-118.3946117">
  <ele>-25.015</ele>
  <time>2026-09-01T01:14:13Z</time>
  <course>310.73</course>
  <speed>0.9730878685915265</speed>
  <fix>3d</fix>
</trkpt>
<trkpt lat="33.8100161" lon="-118.3946111">
  <ele>-24.41</ele>
  <time>2026-09-01T01:14:13Z</time>
  <course>220.9</course>
  <speed>0.99</speed>
  <fix>3d</fix>
</trkpt>
<trkpt lat="33.8100145" lon="-118.3946124">
  <ele>-25.015</ele>
  <time>2026-09-01T01:14:13Z</time>
  <course>310.84</course>
  <speed>0.9730878685915265</speed>
  <fix>3d</fix>
</trkpt>
<trkpt lat="33.8100161" lon="-118.3946111">
  <ele>-24.41</ele>
  <time>2026-09-01T01:14:13Z</time>
  <course>220.9</course>
  <speed>0.99</speed>
  <fix>3d</fix>
</trkpt>
<trkpt lat="33.8100138" lon="-118.3946131">
  <ele>-25.014</ele>
  <time>2026-09-01T01:14:13Z</time>
  <course>310.96</course>
  <speed>0.9730878685915265</speed>
  <fix>3d</fix>
</trkpt>
<trkpt lat="33.8100147" lon="-118.3946125">
  <ele>-24.41</ele>
  <time>2026-09-01T01:14:13Z</time>
  <course>221.13</course>
  <speed>0.99</speed>
  <fix>3d</fix>
</trkpt>
<trkpt lat="33.8100132" lon="-118.3946138">
  <ele>-25.013</ele>
  <time>2026-09-01T01:14:13Z</time>
  <course>311.07</course>
  <speed>0.9654014708917736</speed>
  <fix>3d</fix>
</trkpt>
<trkpt lat="33.8100147" lon="-118.3946125">
  <ele>-24.41</ele>
  <time>2026-09-01T01:14:13Z</time>
  <course>221.13</course>
  <speed>0.99</speed>
  <fix>3d</fix>
</trkpt>
<trkpt lat="33.8100125" lon="-118.3946145">
  <ele>-25.014</ele>
  <time>2026-09-01T01:14:13Z</time>
  <course>311.19</course>
  <speed>0.9718538984847466</speed>
  <fix>3d</fix>
</trkpt>
<trkpt lat="33.8100134" lon="-118.394614">
  <ele>-24.41</ele>
  <time>2026-09-01T01:14:13Z</time>
  <course>221.36</course>
  <speed>1.0</speed>
  <fix>3d</fix>
</trkpt>
<trkpt lat="33.8100118" lon="-118.3946153">
  <ele>-25.015</ele>
  <time>2026-09-01T01:14:13Z</time>
  <course>311.3</course>
  <speed>0.9718538984847466</speed>
  <fix>3d</fix>
</trkpt>
<trkpt lat="33.8100134" lon="-118.394614">
  <ele>-24.41</ele>
  <time>2026-09-01T01:14:13Z</time>
  <course>221.36</course>
  <speed>1.0</speed>
  <fix>3d</fix>
</trkpt>
<trkpt lat="33.8100112" lon="-118.394616">
  <ele>-25.014</ele>
  <time>2026-09-01T01:14:13Z</time>
  <course>311.42</course>
  <speed>0.9718538984847466</speed>
  <fix>3d</fix>
</trkpt>
<trkpt lat="33.810012" lon="-118.3946154">
  <ele>-24.41</ele>
  <time>2026-09-01T01:14:13Z</time>
  <course>221.58</course>
  <speed>1.0</speed>
  <fix>3d</fix>
</trkpt>
<trkpt lat="33.8100105" lon="-118.3946167">
  <ele>-25.013</ele>
  <time>2026-09-01T01:14:13Z</time>
  <course>311.53</course>
  <speed>0.9718538984847466</speed>
  <fix>3d</fix>
</trkpt>
<trkpt lat="33.810012" lon="-118.3946154">
  <ele>-24.41</ele>
  <time>2026-09-01T01:14:13Z</time>
  <course>221.58</course>
  <speed>1.0</speed>
  <fix>3d</fix>
</trkpt>
<trkpt lat="33.8100098" lon="-118.3946174">
  <ele>-25.012</ele>
  <time>2026-09-01T01:14:13Z</time>
  <course>311.65</course>
  <speed>0.9718538984847466</speed>
  <fix>3d</fix>
</trkpt>
<trkpt lat="33.8100107" lon="-118.3946168">
  <ele>-24.41</ele>
  <time>2026-09-01T01:14:13Z</time>
  <course>221.79</course>
  <speed>1.0</speed>
  <fix>3d</fix>
</trkpt>
<trkpt lat="33.8100091" lon="-118.3946182">
  <ele>-25.012</ele>
  <time>2026-09-01T01:14:13Z</time>
  <course>311.76</course>
  <speed>0.9718538984847466</speed>
  <fix>3d</fix>
</trkpt>
<trkpt lat="33.8100107" lon="-118.3946168">
  <ele>-24.41</ele>
  <time>2026-09-01T01:14:13Z</time>
  <course>221.79</course>
  <speed>1.0</speed>
  <fix>3d</fix>
</trkpt>
<trkpt lat="33.8100085" lon="-118.3946189">
  <ele>-25.013</ele>
  <time>2026-09-01T01:14:13Z</time>
  <course>311.88</course>
  <speed>0.9718538984847466</speed>
  <fix>3d</fix>
</trkpt>
<trkpt lat="33.8100094" lon="-118.3946183">
  <ele>-24.41</ele>
  <time>2026-09-01T01:14:13Z</time>
  <course>222.01</course>
  <speed>1.0</speed>
  <fix>3d</fix>
</trkpt>
<trkpt lat="33.8100078" lon="-118.3946196">
  <ele>-25.015</ele>
  <time>2026-09-01T01:14:13Z</time>
  <course>311.99</course>
  <speed>0.9718538984847466</speed>
  <fix>3d</fix>
</trkpt>
<trkpt lat="33.8100094" lon="-118.3946183">
  <ele>-24.41</ele>
  <time>2026-09-01T01:14:13Z</time>
  <course>222.01</course>
  <speed>1.0</speed>
  <fix>3d</fix>
</trkpt>
<trkpt lat="33.8100072" lon="-118.3946203">
  <ele>-25.015</ele>
  <time>2026-09-01T01:14:13Z</time>
  <course>312.11</course>
  <speed>0.97082439194738</speed>
  <fix>3d</fix>
</trkpt>
<trkpt lat="33.810008" lon="-118.3946197">
  <ele>-24.41</ele>
  <time>2026-09-01T01:14:13Z</time>
  <course>222.21</course>
  <speed>1.0</speed>
  <fix>3d</fix>
</trkpt>
<trkpt lat="33.8100065" lon="-118.3946211">
  <ele>-25.015</ele>
  <time>2026-09-01T01:14:13Z</time>
  <course>312.22</course>
  <speed>0.97082439194738</speed>
  <fix>3d</fix>
</trkpt>
<trkpt lat="33.810008" lon="-118.3946197">
  <ele>-24.41</ele>
  <time>2026-09-01T01:14:13Z</time>
  <course>222.21</course>
  <speed>1.0</speed>
  <fix>3d</fix>
</trkpt>
<trkpt lat="33.8100058" lon="-118.3946218">
  <ele>-25.016</ele>
  <time>2026-09-01T01:14:13Z</time>
  <course>312.34</course>
  <speed>0.97082439194738</speed>
  <fix>3d</fix>
</trkpt>
<trkpt lat="33.8100067" lon="-118.3946212">
  <ele>-24.41</ele>
  <time>2026-09-01T01:14:13Z</time>
  <course>222.42</course>
  <speed>1.0</speed>
  <fix>3d</fix>
</trkpt>
<trkpt lat="33.8100052" lon="-118.3946225">
  <ele>-25.016</ele>
  <time>2026-09-01T01:14:13Z</time>
  <course>312.45</course>
  <speed>0.97082439194738</speed>
  <fix>3d</fix>
</trkpt>
<trkpt lat="33.8100067" lon="-118.3946212">
  <ele>-24.41</ele>
  <time>2026-09-01T01:14:13Z</time>
  <course>222.42</course>
  <speed>1.0</speed>
  <fix>3d</fix>
</trkpt>
<trkpt lat="33.8100045" lon="-118.3946233">
  <ele>-25.017</ele>
  <time>2026-09-01T01:14:13Z</time>
  <course>312.57</course>
  <speed>0.97082439194738</speed>
  <fix>3d</fix>
</trkpt>
<trkpt lat="33.8100053" lon="-118.3946226">
  <ele>-24.41</ele>
  <time>2026-09-01T01:14:13Z</time>
  <course>222.64</course>
  <speed>1.0</speed>
  <fix>3d</fix>
</trkpt>
<trkpt lat="33.8100038" lon="-118.394624">
  <ele>-25.016</ele>
  <time>2026-09-01T01:14:13Z</time>
  <course>312.68</course>
  <speed>0.97082439194738</speed>
  <fix>3d</fix>
</trkpt>
<trkpt lat="33.8100053" lon="-118.3946226">
  <ele>-24.41</ele>
  <time>2026-09-01T01:14:13Z</time>
  <course>222.64</course>
  <speed>1.0</speed>
  <fix>3d</fix>
</trkpt>
<trkpt lat="33.8100032" lon="-118.3946247">
  <ele>-25.016</ele>
  <time>2026-09-01T01:14:13Z</time>
  <course>312.8</course>
  <speed>0.97</speed>
  <fix>3d</fix>
</trkpt>
<trkpt lat="33.810004" lon="-118.3946241">
  <ele>-24.41</ele>
  <time>2026-09-01T01:14:13Z</time>
  <course>222.91</course>
  <speed>1.0</speed>
  <fix>3d</fix>
</trkpt>
<trkpt lat="33.8100025" lon="-118.3946255">
  <ele>-25.016</ele>
  <time>2026-09-01T01:14:13Z</time>
  <course>312.91</course>
  <speed>0.97</speed>
  <fix>3d</fix>
</trkpt>
<trkpt lat="33.810004" lon="-118.3946241">
  <ele>-24.41</ele>
  <time>2026-09-01T01:14:13Z</time>
  <course>222.91</course>
  <speed>1.0</speed>
  <fix>3d</fix>
</trkpt>
<trkpt lat="33.8100019" lon="-118.3946262">
  <ele>-25.016</ele>
  <time>2026-09-01T01:14:13Z</time>
  <course>313.03</course>
  <speed>0.97</speed>
  <fix>3d</fix>
</trkpt>
<trkpt lat="33.8100027" lon="-118.3946256">
  <ele>-24.41</ele>
  <time>2026-09-01T01:14:13Z</time>
  <course>223.22</course>
  <speed>1.0</speed>
  <fix>3d</fix>
</trkpt>
<trkpt lat="33.8100012" lon="-118.394627">
  <ele>-25.017</ele>
  <time>2026-09-01T01:14:13Z</time>
  <course>313.14</course>
  <speed>0.97</speed>
  <fix>3d</fix>
</trkpt>
<trkpt lat="33.8100027" lon="-118.3946256">
  <ele>-24.41</ele>
  <time>2026-09-01T01:14:13Z</time>
  <course>223.22</course>
  <speed>1.0</speed>
  <fix>3d</fix>
</trkpt>
<trkpt lat="33.8100006" lon="-118.3946277">
  <ele>-25.017</ele>
  <time>2026-09-01T01:14:13Z</time>
  <course>313.26</course>
  <speed>0.97</speed>
  <fix>3d</fix>
</trkpt>
<trkpt lat="33.8100014" lon="-118.3946271">
  <ele>-24.41</ele>
  <time>2026-09-01T01:14:13Z</time>
  <course>223.49</course>
  <speed>0.99</speed>
  <fix>3d</fix>
</trkpt>
<trkpt lat="33.8099999" lon="-118.3946285">
  <ele>-25.016</ele>
  <time>2026-09-01T01:14:13Z</time>
  <course>313.37</course>
  <speed>0.97</speed>
  <fix>3d</fix>
</trkpt>
<trkpt lat="33.8100014" lon="-118.3946271">
  <ele>-24.41</ele>
  <time>2026-09-01T01:14:13Z</time>
  <course>223.49</course>
  <speed>0.99</speed>
  <fix>3d</fix>
</trkpt>
<trkpt lat="33.8099993" lon="-118.3946292">
  <ele>-25.014</ele>
  <time>2026-09-01T01:14:13Z</time>
  <course>313.49</course>
  <speed>0.97</speed>
  <fix>3d</fix>
</trkpt>
<trkpt lat="33.8100001" lon="-118.3946286">
  <ele>-24.4</ele>
  <time>2026-09-01T01:14:13Z</time>
  <course>223.73</course>
  <speed>0.99</speed>
  <fix>3d</fix>
</trkpt>
<trkpt lat="33.8099986" lon="-118.39463">
  <ele>-25.012</ele>
  <time>2026-09-01T01:14:13Z</time>
  <course>313.6</course>
  <speed>0.9626006440887103</speed>
  <fix>3d</fix>
</trkpt>
<trkpt lat="33.8100001" lon="-118.3946286">
  <ele>-24.4</ele>
  <time>2026-09-01T01:14:13Z</time>
  <course>223.73</course>
  <speed>0.99</speed>
  <fix>3d</fix>
</trkpt>
<trkpt lat="33.809998" lon="-118.3946307">
  <ele>-25.01</ele>
  <time>2026-09-01T01:14:13Z</time>
  <course>313.72</course>
  <speed>0.9693812459502195</speed>
  <fix>3d</fix>
</trkpt>
<trkpt lat="33.8099988" lon="-118.39463">
  <ele>-24.4</ele>
  <time>2026-09-01T01:14:13Z</time>
  <course>223.92</course>
  <speed>0.99</speed>
  <fix>3d</fix>
</trkpt>
<trkpt lat="33.8099973" lon="-118.3946315">
  <ele>-25.009</ele>
  <time>2026-09-01T01:14:13Z</time>
  <course>313.83</course>
  <speed>0.9693812459502195</speed>
  <fix>3d</fix>
</trkpt>
<trkpt lat="33.8099988" lon="-118.39463">
  <ele>-24.4</ele>
  <time>2026-09-01T01:14:13Z</time>
  <course>223.92</course>
  <speed>0.99</speed>
  <fix>3d</fix>
</trkpt>
<trkpt lat="33.8099967" lon="-118.3946322">
  <ele>-25.009</ele>
  <time>2026-09-01T01:14:13Z</time>
  <course>313.95</course>
  <speed>0.9693812459502195</speed>
  <fix>3d</fix>
</trkpt>
<trkpt lat="33.8099975" lon="-118.3946315">
  <ele>-24.4</ele>
  <time>2026-09-01T01:14:13Z</time>
  <course>224.13</course>
  <speed>0.99</speed>
  <fix>3d</fix>
</trkpt>
<trkpt lat="33.809996" lon="-118.394633">
  <ele>-25.008</ele>
  <time>2026-09-01T01:14:13Z</time>
  <course>314.06</course>
  <speed>0.9693812459502195</speed>
  <fix>3d</fix>
</trkpt>
<trkpt lat="33.8099975" lon="-118.3946315">
  <ele>-24.4</ele>
  <time>2026-09-01T01:14:13Z</time>
  <course>224.13</course>
  <speed>0.99</speed>
  <fix>3d</fix>
</trkpt>
<trkpt lat="33.8099954" lon="-118.3946337">
  <ele>-25.008</ele>
  <time>2026-09-01T01:14:13Z</time>
  <course>314.18</course>
  <speed>0.9693812459502195</speed>
  <fix>3d</fix>
</trkpt>
<trkpt lat="33.8099963" lon="-118.3946331">
  <ele>-24.4</ele>
  <time>2026-09-01T01:14:13Z</time>
  <course>224.4</course>
  <speed>0.99</speed>
  <fix>3d</fix>
</trkpt>
<trkpt lat="33.8099947" lon="-118.3946345">
  <ele>-25.008</ele>
  <time>2026-09-01T01:14:13Z</time>
  <course>314.29</course>
  <speed>0.9693812459502195</speed>
  <fix>3d</fix>
</trkpt>
<trkpt lat="33.8099963" lon="-118.3946331">
  <ele>-24.4</ele>
  <time>2026-09-01T01:14:13Z</time>
  <course>224.4</course>
  <speed>0.99</speed>
  <fix>3d</fix>
</trkpt>
<trkpt lat="33.8099941" lon="-118.3946352">
  <ele>-25.008</ele>
  <time>2026-09-01T01:14:13Z</time>
  <course>314.41</course>
  <speed>0.9693812459502195</speed>
  <fix>3d</fix>
</trkpt>
<trkpt lat="33.809995" lon="-118.3946346">
  <ele>-24.4</ele>
  <time>2026-09-01T01:14:13Z</time>
  <course>224.61</course>
  <speed>0.99</speed>
  <fix>3d</fix>
</trkpt>
<trkpt lat="33.8099935" lon="-118.394636">
  <ele>-25.009</ele>
  <time>2026-09-01T01:14:13Z</time>
  <course>314.52</course>
  <speed>0.9693812459502195</speed>
  <fix>3d</fix>
</trkpt>
<trkpt lat="33.809995" lon="-118.3946346">
  <ele>-24.4</ele>
  <time>2026-09-01T01:14:13Z</time>
  <course>224.61</course>
  <speed>0.99</speed>
  <fix>3d</fix>
</trkpt>
<trkpt lat="33.8099928" lon="-118.3946368">
  <ele>-25.01</ele>
  <time>2026-09-01T01:14:13Z</time>
  <course>314.63</course>
  <speed>0.9689685237405805</speed>
  <fix>3d</fix>
</trkpt>
<trkpt lat="33.8099937" lon="-118.3946361">
  <ele>-24.4</ele>
  <time>2026-09-01T01:14:13Z</time>
  <course>224.76</course>
  <speed>1.0</speed>
  <fix>3d</fix>
</trkpt>
<trkpt lat="33.8099922" lon="-118.3946375">
  <ele>-25.01</ele>
  <time>2026-09-01T01:14:13Z</time>
  <course>314.75</course>
  <speed>0.9689685237405805</speed>
  <fix>3d</fix>
</trkpt>
<trkpt lat="33.8099937" lon="-118.3946361">
  <ele>-24.4</ele>
  <time>2026-09-01T01:14:13Z</time>
  <course>224.76</course>
  <speed>1.0</speed>
  <fix>3d</fix>
</trkpt>
<trkpt lat="33.8099916" lon="-118.3946383">
  <ele>-25.012</ele>
  <time>2026-09-01T01:14:13Z</time>
  <course>314.87</course>
  <speed>0.9689685237405805</speed>
  <fix>3d</fix>
</trkpt>
<trkpt lat="33.8099924" lon="-118.3946376">
  <ele>-24.41</ele>
  <time>2026-09-01T01:14:13Z</time>
  <course>224.91</course>
  <speed>0.99</speed>
  <fix>3d</fix>
</trkpt>
<trkpt lat="33.8099909" lon="-118.3946391">
  <ele>-25.014</ele>
  <time>2026-09-01T01:14:13Z</time>
  <course>314.98</course>
  <speed>0.9689685237405805</speed>
  <fix>3d</fix>
</trkpt>
<trkpt lat="33.8099924" lon="-118.3946376">
  <ele>-24.41</ele>
  <time>2026-09-01T01:14:13Z</time>
  <course>224.91</course>
  <speed>0.99</speed>
  <fix>3d</fix>
</trkpt>
<trkpt lat="33.8099903" lon="-118.3946398">
  <ele>-25.015</ele>
  <time>2026-09-01T01:14:13Z</time>
  <course>315.1</course>
  <speed>0.9689685237405805</speed>
  <fix>3d</fix>
</trkpt>
<trkpt lat="33.8099912" lon="-118.3946392">
  <ele>-24.41</ele>
  <time>2026-09-01T01:14:13Z</time>
  <course>225.12</course>
  <speed>1.0</speed>
  <fix>3d</fix>
</trkpt>
<trkpt lat="33.8099897" lon="-118.3946406">
  <ele>-25.016</ele>
  <time>2026-09-01T01:14:13Z</time>
  <course>315.21</course>
  <speed>0.9689685237405805</speed>
  <fix>3d</fix>
</trkpt>
<trkpt lat="33.8099912" lon="-118.3946392">
  <ele>-24.41</ele>
  <time>2026-09-01T01:14:13Z</time>
  <course>225.12</course>
  <speed>1.0</speed>
  <fix>3d</fix>
</trkpt>
<trkpt lat="33.809989" lon="-118.3946414">
  <ele>-25.017</ele>
  <time>2026-09-01T01:14:13Z</time>
  <course>315.33</course>
  <speed>0.9689685237405805</speed>
  <fix>3d</fix>
</trkpt>
<trkpt lat="33.8099899" lon="-118.3946407">
  <ele>-24.42</ele>
  <time>2026-09-01T01:14:13Z</time>
  <course>225.34</course>
  <speed>1.0</speed>
  <fix>3d</fix>
</trkpt>
<trkpt lat="33.8099884" lon="-118.3946421">
  <ele>-25.018</ele>
  <time>2026-09-01T01:14:13Z</time>
  <course>315.44</course>
  <speed>0.9759098319004681</speed>
  <fix>3d</fix>
</trkpt>
<trkpt lat="33.8099899" lon="-118.3946407">
  <ele>-24.42</ele>
  <time>2026-09-01T01:14:13Z</time>
  <course>225.34</course>
  <speed>1.0</speed>
  <fix>3d</fix>
</trkpt>
<trkpt lat="33.8099878" lon="-118.3946429">
  <ele>-25.02</ele>
  <time>2026-09-01T01:14:13Z</time>
  <course>315.56</course>
  <speed>0.9687620966986684</speed>
  <fix>3d</fix>
</trkpt>
<trkpt lat="33.8099886" lon="-118.3946422">
  <ele>-24.42</ele>
  <time>2026-09-01T01:14:13Z</time>
  <course>225.53</course>
  <speed>1.0</speed>
  <fix>3d</fix>
</trkpt>
<trkpt lat="33.8099871" lon="-118.3946437">
  <ele>-25.021</ele>
  <time>2026-09-01T01:14:13Z</time>
  <course>315.67</course>
  <speed>0.9687620966986684</speed>
  <fix>3d</fix>
</trkpt>
<trkpt lat="33.8099886" lon="-118.3946422">
  <ele>-24.42</ele>
  <time>2026-09-01T01:14:13Z</time>
  <course>225.53</course>
  <speed>1.0</speed>
  <fix>3d</fix>
</trkpt>
<trkpt lat="33.8099865" lon="-118.3946445">
  <ele>-25.021</ele>
  <time>2026-09-01T01:14:13Z</time>
  <course>315.78</course>
  <speed>0.9687620966986684</speed>
  <fix>3d</fix>
</trkpt>
<trkpt lat="33.8099874" lon="-118.3946437">
  <ele>-24.41</ele>
  <time>2026-09-01T01:14:13Z</time>
  <course>225.76</course>
  <speed>1.0</speed>
  <fix>3d</fix>
</trkpt>
<trkpt lat="33.8099859" lon="-118.3946452">
  <ele>-25.018</ele>
  <time>2026-09-01T01:14:13Z</time>
  <course>315.9</course>
  <speed>0.9687620966986684</speed>
  <fix>3d</fix>
</trkpt>
<trkpt lat="33.8099874" lon="-118.3946437">
  <ele>-24.41</ele>
  <time>2026-09-01T01:14:13Z</time>
  <course>225.76</course>
  <speed>1.0</speed>
  <fix>3d</fix>
</trkpt>
<trkpt lat="33.8099853" lon="-118.394646">
  <ele>-25.015</ele>
  <time>2026-09-01T01:14:13Z</time>
  <course>316.01</course>
  <speed>0.9687620966986684</speed>
  <fix>3d</fix>
</trkpt>
<trkpt lat="33.8099861" lon="-118.3946453">
  <ele>-24.41</ele>
  <time>2026-09-01T01:14:13Z</time>
  <course>226.05</course>
  <speed>1.0</speed>
  <fix>3d</fix>
</trkpt>
<trkpt lat="33.8099847" lon="-118.3946468">
  <ele>-25.013</ele>
  <time>2026-09-01T01:14:13Z</time>
  <course>316.13</course>
  <speed>0.9758073580374357</speed>
  <fix>3d</fix>
</trkpt>
<trkpt lat="33.8099861" lon="-118.3946453">
  <ele>-24.41</ele>
  <time>2026-09-01T01:14:13Z</time>
  <course>226.05</course>
  <speed>1.0</speed>
  <fix>3d</fix>
</trkpt>
<trkpt lat="33.809984" lon="-118.3946476">
  <ele>-25.013</ele>
  <time>2026-09-01T01:14:13Z</time>
  <course>316.24</course>
  <speed>0.9687620966986684</speed>
  <fix>3d</fix>
</trkpt>
<trkpt lat="33.8099848" lon="-118.3946469">
  <ele>-24.41</ele>
  <time>2026-09-01T01:14:13Z</time>
  <course>226.33</course>
  <speed>1.0</speed>
  <fix>3d</fix>
</trkpt>
<trkpt lat="33.8099834" lon="-118.3946484">
  <ele>-25.014</ele>
  <time>2026-09-01T01:14:13Z</time>
  <course>316.36</course>
  <speed>0.9687620966986684</speed>
  <fix>3d</fix>
</trkpt>
<trkpt lat="33.8099848" lon="-118.3946469">
  <ele>-24.41</ele>
  <time>2026-09-01T01:14:13Z</time>
  <course>226.33</course>
  <speed>1.0</speed>
  <fix>3d</fix>
</trkpt>
<trkpt lat="33.8099828" lon="-118.3946492">
  <ele>-25.014</ele>
  <time>2026-09-01T01:14:13Z</time>
  <course>316.47</course>
  <speed>0.9687620966986684</speed>
  <fix>3d</fix>
</trkpt>
<trkpt lat="33.8099836" lon="-118.3946485">
  <ele>-24.4</ele>
  <time>2026-09-01T01:14:13Z</time>
  <course>226.62</course>
  <speed>1.0</speed>
  <fix>3d</fix>
</trkpt>
<trkpt lat="33.8099822" lon="-118.39465">
  <ele>-25.014</ele>
  <time>2026-09-01T01:14:13Z</time>
  <course>316.59</course>
  <speed>0.9687620966986684</speed>
  <fix>3d</fix>
</trkpt>
<trkpt lat="33.8099836" lon="-118.3946485">
  <ele>-24.4</ele>
  <time>2026-09-01T01:14:13Z</time>
  <course>226.62</course>
  <speed>1.0</speed>
  <fix>3d</fix>
</trkpt>
<trkpt lat="33.8099816" lon="-118.3946508">
  <ele>-25.013</ele>
  <time>2026-09-01T01:14:13Z</time>
  <course>316.7</course>
  <speed>0.9687620966986684</speed>
  <fix>3d</fix>
</trkpt>
<trkpt lat="33.8099824" lon="-118.3946501">
  <ele>-24.4</ele>
  <time>2026-09-01T01:14:13Z</time>
  <course>226.89</course>
  <speed>0.99</speed>
  <fix>3d</fix>
</trkpt>
<trkpt lat="33.8099809" lon="-118.3946515">
  <ele>-25.012</ele>
  <time>2026-09-01T01:14:13Z</time>
  <course>316.82</course>
  <speed>0.9687620966986684</speed>
  <fix>3d</fix>
</trkpt>
<trkpt lat="33.8099824" lon="-118.3946501">
  <ele>-24.4</ele>
  <time>2026-09-01T01:14:13Z</time>
  <course>226.89</course>
  <speed>0.99</speed>
  <fix>3d</fix>
</trkpt>
<trkpt lat="33.8099803" lon="-118.3946523">
  <ele>-25.012</ele>
  <time>2026-09-01T01:14:13Z</time>
  <course>316.93</course>
  <speed>0.9617692030835673</speed>
  <fix>3d</fix>
</trkpt>
<trkpt lat="33.8099811" lon="-118.3946516">
  <ele>-24.4</ele>
  <time>2026-09-01T01:14:13Z</time>
  <course>227.08</course>
  <speed>0.99</speed>
  <fix>3d</fix>
</trkpt>
<trkpt lat="33.8099797" lon="-118.3946531">
  <ele>-25.012</ele>
  <time>2026-09-01T01:14:13Z</time>
  <course>317.05</course>
  <speed>0.9617692030835673</speed>
  <fix>3d</fix>
</trkpt>
<trkpt lat="33.8099811" lon="-118.3946516">
  <ele>-24.4</ele>
  <time>2026-09-01T01:14:13Z</time>
  <course>227.08</course>
  <speed>0.99</speed>
  <fix>3d</fix>
</trkpt>
<trkpt lat="33.8099791" lon="-118.3946539">
  <ele>-25.012</ele>
  <time>2026-09-01T01:14:13Z</time>
  <course>317.16</course>
  <speed>0.9689685237405805</speed>
  <fix>3d</fix>
</trkpt>
<trkpt lat="33.8099799" lon="-118.3946532">
  <ele>-24.4</ele>
  <time>2026-09-01T01:14:13Z</time>
  <course>227.27</course>
  <speed>0.99</speed>
  <fix>3d</fix>
</trkpt>
<trkpt lat="33.8099785" lon="-118.3946547">
  <ele>-25.011</ele>
  <time>2026-09-01T01:14:13Z</time>
  <course>317.28</course>
  <speed>0.9689685237405805</speed>
  <fix>3d</fix>
</trkpt>
<trkpt lat="33.8099799" lon="-118.3946532">
  <ele>-24.4</ele>
  <time>2026-09-01T01:14:13Z</time>
  <course>227.27</course>
  <speed>0.99</speed>
  <fix>3d</fix>
</trkpt>
<trkpt lat="33.8099779" lon="-118.3946555">
  <ele>-25.011</ele>
  <time>2026-09-01T01:14:13Z</time>
  <course>317.4</course>
  <speed>0.9689685237405805</speed>
  <fix>3d</fix>
</trkpt>
<trkpt lat="33.8099787" lon="-118.3946547">
  <ele>-24.4</ele>
  <time>2026-09-01T01:14:13Z</time>
  <course>227.53</course>
  <speed>0.99</speed>
  <fix>3d</fix>
</trkpt>
<trkpt lat="33.8099773" lon="-118.3946563">
  <ele>-25.011</ele>
  <time>2026-09-01T01:14:13Z</time>
  <course>317.51</course>
  <speed>0.9689685237405805</speed>
  <fix>3d</fix>
</trkpt>
<trkpt lat="33.8099787" lon="-118.3946547">
  <ele>-24.4</ele>
  <time>2026-09-01T01:14:13Z</time>
  <course>227.53</course>
  <speed>0.99</speed>
  <fix>3d</fix>
</trkpt>
<trkpt lat="33.8099767" lon="-118.3946571">
  <ele>-25.012</ele>
  <time>2026-09-01T01:14:13Z</time>
  <course>317.63</course>
  <speed>0.9620810776644555</speed>
  <fix>3d</fix>
</trkpt>
<trkpt lat="33.8099775" lon="-118.3946564">
  <ele>-24.41</ele>
  <time>2026-09-01T01:14:13Z</time>
  <course>227.83</course>
  <speed>0.99</speed>
  <fix>3d</fix>
</trkpt>
<trkpt lat="33.8099761" lon="-118.3946579">
  <ele>-25.012</ele>
  <time>2026-09-01T01:14:13Z</time>
  <course>317.74</course>
  <speed>0.9620810776644555</speed>
  <fix>3d</fix>
</trkpt>
<trkpt lat="33.8099775" lon="-118.3946564">
  <ele>-24.41</ele>
  <time>2026-09-01T01:14:13Z</time>
  <course>227.83</course>
  <speed>0.99</speed>
  <fix>3d</fix>
</trkpt>
<trkpt lat="33.8099755" lon="-118.3946587">
  <ele>-25.013</ele>
  <time>2026-09-01T01:14:13Z</time>
  <course>317.85</course>
  <speed>0.9693812459502195</speed>
  <fix>3d</fix>
</trkpt>
<trkpt lat="33.8099763" lon="-118.394658">
  <ele>-24.41</ele>
  <time>2026-09-01T01:14:13Z</time>
  <course>228.11</course>
  <speed>0.99</speed>
  <fix>3d</fix>
</trkpt>
<trkpt lat="33.8099749" lon="-118.3946595">
  <ele>-25.014</ele>
  <time>2026-09-01T01:14:13Z</time>
  <course>317.97</course>
  <speed>0.9693812459502195</speed>
  <fix>3d</fix>
</trkpt>
<trkpt lat="33.8099763" lon="-118.394658">
  <ele>-24.41</ele>
  <time>2026-09-01T01:14:13Z</time>
  <course>228.11</course>
  <speed>0.99</speed>
  <fix>3d</fix>
</trkpt>
<trkpt lat="33.8099743" lon="-118.3946603">
  <ele>-25.014</ele>
  <time>2026-09-01T01:14:13Z</time>
  <course>318.08</course>
  <speed>0.9693812459502195</speed>
  <fix>3d</fix>
</trkpt>
<trkpt lat="33.8099751" lon="-118.3946595">
  <ele>-24.41</ele>
  <time>2026-09-01T01:14:13Z</time>
  <course>228.34</course>
  <speed>0.99</speed>
  <fix>3d</fix>
</trkpt>
<trkpt lat="33.8099737" lon="-118.3946611">
  <ele>-25.014</ele>
  <time>2026-09-01T01:14:13Z</time>
  <course>318.2</course>
  <speed>0.9693812459502195</speed>
  <fix>3d</fix>
</trkpt>
<trkpt lat="33.8099751" lon="-118.3946595">
  <ele>-24.41</ele>
  <time>2026-09-01T01:14:13Z</time>
  <course>228.34</course>
  <speed>0.99</speed>
  <fix>3d</fix>
</trkpt>
<trkpt lat="33.8099731" lon="-118.3946619">
  <ele>-25.015</ele>
  <time>2026-09-01T01:14:13Z</time>
  <course>318.31</course>
  <speed>0.9693812459502195</speed>
  <fix>3d</fix>
</trkpt>
<trkpt lat="33.8099739" lon="-118.3946612">
  <ele>-24.41</ele>
  <time>2026-09-01T01:14:13Z</time>
  <course>228.56</course>
  <speed>0.99</speed>
  <fix>3d</fix>
</trkpt>
<trkpt lat="33.8099725" lon="-118.3946628">
  <ele>-25.014</ele>
  <time>2026-09-01T01:14:13Z</time>
  <course>318.43</course>
  <speed>0.9693812459502195</speed>
  <fix>3d</fix>
</trkpt>
<trkpt lat="33.8099739" lon="-118.3946612">
  <ele>-24.41</ele>
  <time>2026-09-01T01:14:13Z</time>
  <course>228.56</course>
  <speed>0.99</speed>
  <fix>3d</fix>
</trkpt>
<trkpt lat="33.8099719" lon="-118.3946636">
  <ele>-25.014</ele>
  <time>2026-09-01T01:14:13Z</time>
  <course>318.54</course>
  <speed>0.9767292357659824</speed>
  <fix>3d</fix>
</trkpt>
<trkpt lat="33.8099728" lon="-118.3946628">
  <ele>-24.41</ele>
  <time>2026-09-01T01:14:13Z</time>
  <course>228.81</course>
  <speed>1.0</speed>
  <fix>3d</fix>
</trkpt>
<trkpt lat="33.8099713" lon="-118.3946644">
  <ele>-25.013</ele>
  <time>2026-09-01T01:14:13Z</time>
  <course>318.66</course>
  <speed>0.9767292357659824</speed>
  <fix>3d</fix>
</trkpt>
<trkpt lat="33.8099728" lon="-118.3946628">
  <ele>-24.41</ele>
  <time>2026-09-01T01:14:13Z</time>
  <course>228.81</course>
  <speed>1.0</speed>
  <fix>3d</fix>
</trkpt>
<trkpt lat="33.8099707" lon="-118.3946652">
  <ele>-25.014</ele>
  <time>2026-09-01T01:14:13Z</time>
  <course>318.77</course>
  <speed>0.9767292357659824</speed>
  <fix>3d</fix>
</trkpt>
<trkpt lat="33.8099716" lon="-118.3946645">
  <ele>-24.41</ele>
  <time>2026-09-01T01:14:13Z</time>
  <course>229.0</course>
  <speed>1.0</speed>
  <fix>3d</fix>
</trkpt>
<trkpt lat="33.8099702" lon="-118.394666">
  <ele>-25.015</ele>
  <time>2026-09-01T01:14:13Z</time>
  <course>318.88</course>
  <speed>0.9767292357659824</speed>
  <fix>3d</fix>
</trkpt>
<trkpt lat="33.8099716" lon="-118.3946645">
  <ele>-24.41</ele>
  <time>2026-09-01T01:14:13Z</time>
  <course>229.0</course>
  <speed>1.0</speed>
  <fix>3d</fix>
</trkpt>
<trkpt lat="33.8099696" lon="-118.3946668">
  <ele>-25.016</ele>
  <time>2026-09-01T01:14:13Z</time>
  <course>319.0</course>
  <speed>0.97</speed>
  <fix>3d</fix>
</trkpt>
<trkpt lat="33.8099704" lon="-118.3946661">
  <ele>-24.41</ele>
  <time>2026-09-01T01:14:13Z</time>
  <course>229.14</course>
  <speed>1.0</speed>
  <fix>3d</fix>
</trkpt>
<trkpt lat="33.809969" lon="-118.3946676">
  <ele>-25.017</ele>
  <time>2026-09-01T01:14:13Z</time>
  <course>319.11</course>
  <speed>0.97</speed>
  <fix>3d</fix>
</trkpt>
<trkpt lat="33.8099704" lon="-118.3946661">
  <ele>-24.41</ele>
  <time>2026-09-01T01:14:13Z</time>
  <course>229.14</course>
  <speed>1.0</speed>
  <fix>3d</fix>
</trkpt>
<trkpt lat="33.8099684" lon="-118.3946685">
  <ele>-25.017</ele>
  <time>2026-09-01T01:14:13Z</time>
  <course>319.23</course>
  <speed>0.97</speed>
  <fix>3d</fix>
</trkpt>
<trkpt lat="33.8099693" lon="-118.3946678">
  <ele>-24.41</ele>
  <time>2026-09-01T01:14:13Z</time>
  <course>229.25</course>
  <speed>1.0</speed>
  <fix>3d</fix>
</trkpt>
<trkpt lat="33.8099678" lon="-118.3946693">
  <ele>-25.017</ele>
  <time>2026-09-01T01:14:13Z</time>
  <course>319.34</course>
  <speed>0.97</speed>
  <fix>3d</fix>
</trkpt>
<trkpt lat="33.8099693" lon="-118.3946678">
  <ele>-24.41</ele>
  <time>2026-09-01T01:14:13Z</time>
  <course>229.25</course>
  <speed>1.0</speed>
  <fix>3d</fix>
</trkpt>
<trkpt lat="33.8099673" lon="-118.3946701">
  <ele>-25.017</ele>
  <time>2026-09-01T01:14:13Z</time>
  <course>319.46</course>
  <speed>0.97</speed>
  <fix>3d</fix>
</trkpt>
<trkpt lat="33.8099681" lon="-118.3946694">
  <ele>-24.41</ele>
  <time>2026-09-01T01:14:13Z</time>
  <course>229.36</course>
  <speed>1.0</speed>
  <fix>3d</fix>
</trkpt>
<trkpt lat="33.8099667" lon="-118.3946709">
  <ele>-25.018</ele>
  <time>2026-09-01T01:14:13Z</time>
  <course>319.57</course>
  <speed>0.9774456506629922</speed>
  <fix>3d</fix>
</trkpt>
<trkpt lat="33.8099681" lon="-118.3946694">
  <ele>-24.41</ele>
  <time>2026-09-01T01:14:13Z</time>
  <course>229.36</course>
  <speed>1.0</speed>
  <fix>3d</fix>
</trkpt>
<trkpt lat="33.8099661" lon="-118.3946718">
  <ele>-25.018</ele>
  <time>2026-09-01T01:14:13Z</time>
  <course>319.69</course>
  <speed>0.9774456506629922</speed>
  <fix>3d</fix>
</trkpt>
<trkpt lat="33.8099669" lon="-118.3946711">
  <ele>-24.41</ele>
  <time>2026-09-01T01:14:13Z</time>
  <course>229.48</course>
  <speed>1.0</speed>
  <fix>3d</fix>
</trkpt>
<trkpt lat="33.8099655" lon="-118.3946726">
  <ele>-25.017</ele>
  <time>2026-09-01T01:14:13Z</time>
  <course>319.8</course>
  <speed>0.9774456506629922</speed>
  <fix>3d</fix>
</trkpt>
<trkpt lat="33.8099669" lon="-118.3946711">
  <ele>-24.41</ele>
  <time>2026-09-01T01:14:13Z</time>
  <course>229.48</course>
  <speed>1.0</speed>
  <fix>3d</fix>
</trkpt>
<trkpt lat="33.8099649" lon="-118.3946734">
  <ele>-25.015</ele>
  <time>2026-09-01T01:14:13Z</time>
  <course>319.92</course>
  <speed>0.97082439194738</speed>
  <fix>3d</fix>
</trkpt>
<trkpt lat="33.8099657" lon="-118.3946727">
  <ele>-24.4</ele>
  <time>2026-09-01T01:14:13Z</time>
  <course>229.65</course>
  <speed>1.0</speed>
  <fix>3d</fix>
</trkpt>
<trkpt lat="33.8099644" lon="-118.3946743">
  <ele>-25.012</ele>
  <time>2026-09-01T01:14:13Z</time>
  <course>320.03</course>
  <speed>0.97082439194738</speed>
  <fix>3d</fix>
</trkpt>
<trkpt lat="33.8099657" lon="-118.3946727">
  <ele>-24.4</ele>
  <time>2026-09-01T01:14:13Z</time>
  <course>229.65</course>
  <speed>1.0</speed>
  <fix>3d</fix>
</trkpt>
<trkpt lat="33.8099638" lon="-118.3946751">
  <ele>-25.01</ele>
  <time>2026-09-01T01:14:13Z</time>
  <course>320.15</course>
  <speed>0.97082439194738</speed>
  <fix>3d</fix>
</trkpt>
<trkpt lat="33.8099645" lon="-118.3946744">
  <ele>-24.4</ele>
  <time>2026-09-01T01:14:13Z</time>
  <course>229.9</course>
  <speed>1.0</speed>
  <fix>3d</fix>
</trkpt>
<trkpt lat="33.8099632" lon="-118.3946759">
  <ele>-25.009</ele>
  <time>2026-09-01T01:14:13Z</time>
  <course>320.26</course>
  <speed>0.97082439194738</speed>
  <fix>3d</fix>
</trkpt>
<trkpt lat="33.8099645" lon="-118.3946744">
  <ele>-24.4</ele>
  <time>2026-09-01T01:14:13Z</time>
  <course>229.9</course>
  <speed>1.0</speed>
  <fix>3d</fix>
</trkpt>
<trkpt lat="33.8099626" lon="-118.3946768">
  <ele>-25.008</ele>
  <time>2026-09-01T01:14:13Z</time>
  <course>320.38</course>
  <speed>0.9642613753542137</speed>
  <fix>3d</fix>
</trkpt>
<trkpt lat="33.8099634" lon="-118.3946761">
  <ele>-24.4</ele>
  <time>2026-09-01T01:14:13Z</time>
  <course>230.18</course>
  <speed>1.0</speed>
  <fix>3d</fix>
</trkpt>
<trkpt lat="33.8099621" lon="-118.3946776">
  <ele>-25.009</ele>
  <time>2026-09-01T01:14:13Z</time>
  <course>320.49</course>
  <speed>0.9642613753542137</speed>
  <fix>3d</fix>
</trkpt>
<trkpt lat="33.8099634" lon="-118.3946761">
  <ele>-24.4</ele>
  <time>2026-09-01T01:14:13Z</time>
  <course>230.18</course>
  <speed>1.0</speed>
  <fix>3d</fix>
</trkpt>
<trkpt lat="33.8099615" lon="-118.3946785">
  <ele>-25.01</ele>
  <time>2026-09-01T01:14:13Z</time>
  <course>320.61</course>
  <speed>0.9718538984847466</speed>
  <fix>3d</fix>
</trkpt>
<trkpt lat="33.8099622" lon="-118.3946777">
  <ele>-24.4</ele>
  <time>2026-09-01T01:14:13Z</time>
  <course>230.46</course>
  <speed>1.0</speed>
  <fix>3d</fix>
</trkpt>
<trkpt lat="33.8099609" lon="-118.3946793">
  <ele>-25.011</ele>
  <time>2026-09-01T01:14:13Z</time>
  <course>320.72</course>
  <speed>0.9718538984847466</speed>
  <fix>3d</fix>
</trkpt>
<trkpt lat="33.8099622" lon="-118.3946777">
  <ele>-24.4</ele>
  <time>2026-09-01T01:14:13Z</time>
  <course>230.46</course>
  <speed>1.0</speed>
  <fix>3d</fix>
</trkpt>
<trkpt lat="33.8099603" lon="-118.3946801">
  <ele>-25.012</ele>
  <time>2026-09-01T01:14:13Z</time>
  <course>320.84</course>
  <speed>0.9718538984847466</speed>
  <fix>3d</fix>
</trkpt>
<trkpt lat="33.809961" lon="-118.3946794">
  <ele>-24.4</ele>
  <time>2026-09-01T01:14:13Z</time>
  <course>230.74</course>
  <speed>1.0</speed>
  <fix>3d</fix>
</trkpt>
<trkpt lat="33.8099598" lon="-118.394681">
  <ele>-25.012</ele>
  <time>2026-09-01T01:14:13Z</time>
  <course>320.95</course>
  <speed>0.9654014708917736</speed>
  <fix>3d</fix>
</trkpt>
<trkpt lat="33.809961" lon="-118.3946794">
  <ele>-24.4</ele>
  <time>2026-09-01T01:14:13Z</time>
  <course>230.74</course>
  <speed>1.0</speed>
  <fix>3d</fix>
</trkpt>
<trkpt lat="33.8099592" lon="-118.3946818">
  <ele>-25.013</ele>
  <time>2026-09-01T01:14:13Z</time>
  <course>321.07</course>
  <speed>0.9654014708917736</speed>
  <fix>3d</fix>
</trkpt>
<trkpt lat="33.8099599" lon="-118.3946811">
  <ele>-24.4</ele>
  <time>2026-09-01T01:14:13Z</time>
  <course>231.08</course>
  <speed>1.0</speed>
  <fix>3d</fix>
</trkpt>
<trkpt lat="33.8099586" lon="-118.3946827">
  <ele>-25.014</ele>
  <time>2026-09-01T01:14:13Z</time>
  <course>321.18</course>
  <speed>0.9654014708917736</speed>
  <fix>3d</fix>
</trkpt>
<trkpt lat="33.8099599" lon="-118.3946811">
  <ele>-24.4</ele>
  <time>2026-09-01T01:14:13Z</time>
  <course>231.08</course>
  <speed>1.0</speed>
  <fix>3d</fix>
</trkpt>
<trkpt lat="33.8099581" lon="-118.3946835">
  <ele>-25.015</ele>
  <time>2026-09-01T01:14:13Z</time>
  <course>321.29</course>
  <speed>0.9730878685915265</speed>
  <fix>3d</fix>
</trkpt>
<trkpt lat="33.8099588" lon="-118.3946828">
  <ele>-24.41</ele>
  <time>2026-09-01T01:14:13Z</time>
  <course>231.42</course>
  <speed>1.0</speed>
  <fix>3d</fix>
</trkpt>
<trkpt lat="33.8099575" lon="-118.3946844">
  <ele>-25.015</ele>
  <time>2026-09-01T01:14:14Z</time>
  <course>321.41</course>
  <speed>0.9730878685915265</speed>
  <fix>3d</fix>
</trkpt>
<trkpt lat="33.8099588" lon="-118.3946828">
  <ele>-24.41</ele>
  <time>2026-09-01T01:14:14Z</time>
  <course>231.42</course>
  <speed>1.0</speed>
  <fix>3d</fix>
</trkpt>
<trkpt lat="33.809957" lon="-118.3946852">
  <ele>-25.015</ele>
  <time>2026-09-01T01:14:14Z</time>
  <course>321.53</course>
  <speed>0.9667471230885561</speed>
  <fix>3d</fix>
</trkpt>
<trkpt lat="33.8099577" lon="-118.3946845">
  <ele>-24.41</ele>
  <time>2026-09-01T01:14:14Z</time>
  <course>231.69</course>
  <speed>1.0</speed>
  <fix>3d</fix>
</trkpt>
<trkpt lat="33.8099564" lon="-118.3946861">
  <ele>-25.016</ele>
  <time>2026-09-01T01:14:14Z</time>
  <course>321.64</course>
  <speed>0.9667471230885561</speed>
  <fix>3d</fix>
</trkpt>
<trkpt lat="33.8099577" lon="-118.3946845">
  <ele>-24.41</ele>
  <time>2026-09-01T01:14:14Z</time>
  <course>231.69</course>
  <speed>1.0</speed>
  <fix>3d</fix>
</trkpt>
<trkpt lat="33.8099559" lon="-118.3946869">
  <ele>-25.017</ele>
  <time>2026-09-01T01:14:14Z</time>
  <course>321.76</course>
  <speed>0.9667471230885561</speed>
  <fix>3d</fix>
</trkpt>
<trkpt lat="33.8099566" lon="-118.3946862">
  <ele>-24.41</ele>
  <time>2026-09-01T01:14:14Z</time>
  <course>231.91</course>
  <speed>1.0</speed>
  <fix>3d</fix>
</trkpt>
<trkpt lat="33.8099553" lon="-118.3946878">
  <ele>-25.019</ele>
  <time>2026-09-01T01:14:14Z</time>
  <course>321.87</course>
  <speed>0.9667471230885561</speed>
  <fix>3d</fix>
</trkpt>
<trkpt lat="33.8099566" lon="-118.3946862">
  <ele>-24.41</ele>
  <time>2026-09-01T01:14:14Z</time>
  <course>231.91</course>
  <speed>1.0</speed>
  <fix>3d</fix>
</trkpt>
<trkpt lat="33.8099548" lon="-118.3946886">
  <ele>-25.019</ele>
  <time>2026-09-01T01:14:14Z</time>
  <course>321.99</course>
  <speed>0.9667471230885561</speed>
  <fix>3d</fix>
</trkpt>
<trkpt lat="33.8099554" lon="-118.3946879">
  <ele>-24.4</ele>
  <time>2026-09-01T01:14:14Z</time>
  <course>232.08</course>
  <speed>1.0</speed>
  <fix>3d</fix>
</trkpt>
<trkpt lat="33.8099542" lon="-118.3946895">
  <ele>-25.019</ele>
  <time>2026-09-01T01:14:14Z</time>
  <course>322.1</course>
  <speed>0.9667471230885561</speed>
  <fix>3d</fix>
</trkpt>
<trkpt lat="33.8099554" lon="-118.3946879">
  <ele>-24.4</ele>
  <time>2026-09-01T01:14:14Z</time>
  <course>232.08</course>
  <speed>1.0</speed>
  <fix>3d</fix>
</trkpt>
<trkpt lat="33.8099537" lon="-118.3946903">
  <ele>-25.017</ele>
  <time>2026-09-01T01:14:14Z</time>
  <course>322.21</course>
  <speed>0.9667471230885561</speed>
  <fix>3d</fix>
</trkpt>
<trkpt lat="33.8099543" lon="-118.3946896">
  <ele>-24.4</ele>
  <time>2026-09-01T01:14:14Z</time>
  <course>232.3</course>
  <speed>1.0</speed>
  <fix>3d</fix>
</trkpt>
<trkpt lat="33.8099531" lon="-118.3946912">
  <ele>-25.016</ele>
  <time>2026-09-01T01:14:14Z</time>
  <course>322.33</course>
  <speed>0.9604686356149272</speed>
  <fix>3d</fix>
</trkpt>
<trkpt lat="33.8099543" lon="-118.3946896">
  <ele>-24.4</ele>
  <time>2026-09-01T01:14:14Z</time>
  <course>232.3</course>
  <speed>1.0</speed>
  <fix>3d</fix>
</trkpt>
<trkpt lat="33.8099526" lon="-118.3946921">
  <ele>-25.015</ele>
  <time>2026-09-01T01:14:14Z</time>
  <course>322.44</course>
  <speed>0.9682974749528164</speed>
  <fix>3d</fix>
</trkpt>
<trkpt lat="33.8099532" lon="-118.3946913">
  <ele>-24.4</ele>
  <time>2026-09-01T01:14:14Z</time>
  <course>232.58</course>
  <speed>1.0</speed>
  <fix>3d</fix>
</trkpt>
<trkpt lat="33.809952" lon="-118.3946929">
  <ele>-25.014</ele>
  <time>2026-09-01T01:14:14Z</time>
  <course>322.56</course>
  <speed>0.9682974749528164</speed>
  <fix>3d</fix>
</trkpt>
<trkpt lat="33.8099532" lon="-118.3946913">
  <ele>-24.4</ele>
  <time>2026-09-01T01:14:14Z</time>
  <course>232.58</course>
  <speed>1.0</speed>
  <fix>3d</fix>
</trkpt>
<trkpt lat="33.8099515" lon="-118.3946938">
  <ele>-25.014</ele>
  <time>2026-09-01T01:14:14Z</time>
  <course>322.67</course>
  <speed>0.9682974749528164</speed>
  <fix>3d</fix>
</trkpt>
<trkpt lat="33.8099522" lon="-118.3946931">
  <ele>-24.39</ele>
  <time>2026-09-01T01:14:14Z</time>
  <course>232.89</course>
  <speed>1.0</speed>
  <fix>3d</fix>
</trkpt>
<trkpt lat="33.8099509" lon="-118.3946947">
  <ele>-25.014</ele>
  <time>2026-09-01T01:14:14Z</time>
  <course>322.79</course>
  <speed>0.9682974749528164</speed>
  <fix>3d</fix>
</trkpt>
<trkpt lat="33.8099522" lon="-118.3946931">
  <ele>-24.39</ele>
  <time>2026-09-01T01:14:14Z</time>
  <course>232.89</course>
  <speed>1.0</speed>
  <fix>3d</fix>
</trkpt>
<trkpt lat="33.8099504" lon="-118.3946955">
  <ele>-25.013</ele>
  <time>2026-09-01T01:14:14Z</time>
  <course>322.9</course>
  <speed>0.9682974749528164</speed>
  <fix>3d</fix>
</trkpt>
<trkpt lat="33.8099511" lon="-118.3946948">
  <ele>-24.39</ele>
  <time>2026-09-01T01:14:14Z</time>
  <course>233.14</course>
  <speed>1.0</speed>
  <fix>3d</fix>
</trkpt>
<trkpt lat="33.8099498" lon="-118.3946964">
  <ele>-25.011</ele>
  <time>2026-09-01T01:14:14Z</time>
  <course>323.02</course>
  <speed>0.9621330469326995</speed>
  <fix>3d</fix>
</trkpt>
<trkpt lat="33.8099511" lon="-118.3946948">
  <ele>-24.39</ele>
  <time>2026-09-01T01:14:14Z</time>
  <course>233.14</course>
  <speed>1.0</speed>
  <fix>3d</fix>
</trkpt>
<trkpt lat="33.8099493" lon="-118.3946973">
  <ele>-25.008</ele>
  <time>2026-09-01T01:14:14Z</time>
  <course>323.13</course>
  <speed>0.9621330469326995</speed>
  <fix>3d</fix>
</trkpt>
<trkpt lat="33.80995" lon="-118.3946965">
  <ele>-24.39</ele>
  <time>2026-09-01T01:14:14Z</time>
  <course>233.32</course>
  <speed>1.0</speed>
  <fix>3d</fix>
</trkpt>
<trkpt lat="33.8099488" lon="-118.3946981">
  <ele>-25.007</ele>
  <time>2026-09-01T01:14:14Z</time>
  <course>323.25</course>
  <speed>0.9621330469326995</speed>
  <fix>3d</fix>
</trkpt>
<trkpt lat="33.80995" lon="-118.3946965">
  <ele>-24.39</ele>
  <time>2026-09-01T01:14:14Z</time>
  <course>233.32</course>
  <speed>1.0</speed>
  <fix>3d</fix>
</trkpt>
<trkpt lat="33.8099482" lon="-118.394699">
  <ele>-25.007</ele>
  <time>2026-09-01T01:14:14Z</time>
  <course>323.36</course>
  <speed>0.9621330469326995</speed>
  <fix>3d</fix>
</trkpt>
<trkpt lat="33.8099489" lon="-118.3946982">
  <ele>-24.39</ele>
  <time>2026-09-01T01:14:14Z</time>
  <course>233.52</course>
  <speed>0.99</speed>
  <fix>3d</fix>
</trkpt>
<trkpt lat="33.8099477" lon="-118.3946999">
  <ele>-25.008</ele>
  <time>2026-09-01T01:14:14Z</time>
  <course>323.47</course>
  <speed>0.970051545022222</speed>
  <fix>3d</fix>
</trkpt>
<trkpt lat="33.8099489" lon="-118.3946982">
  <ele>-24.39</ele>
  <time>2026-09-01T01:14:14Z</time>
  <course>233.52</course>
  <speed>0.99</speed>
  <fix>3d</fix>
</trkpt>
<trkpt lat="33.8099472" lon="-118.3947007">
  <ele>-25.008</ele>
  <time>2026-09-01T01:14:14Z</time>
  <course>323.59</course>
  <speed>0.970051545022222</speed>
  <fix>3d</fix>
</trkpt>
<trkpt lat="33.8099479" lon="-118.3947">
  <ele>-24.39</ele>
  <time>2026-09-01T01:14:14Z</time>
  <course>233.76</course>
  <speed>0.99</speed>
  <fix>3d</fix>
</trkpt>
<trkpt lat="33.8099466" lon="-118.3947016">
  <ele>-25.008</ele>
  <time>2026-09-01T01:14:14Z</time>
  <course>323.7</course>
  <speed>0.970051545022222</speed>
  <fix>3d</fix>
</trkpt>
<trkpt lat="33.8099479" lon="-118.3947">
  <ele>-24.39</ele>
  <time>2026-09-01T01:14:14Z</time>
  <course>233.76</course>
  <speed>0.99</speed>
  <fix>3d</fix>
</trkpt>
<trkpt lat="33.8099461" lon="-118.3947025">
  <ele>-25.009</ele>
  <time>2026-09-01T01:14:14Z</time>
  <course>323.82</course>
  <speed>0.9640020746865642</speed>
  <fix>3d</fix>
</trkpt>
<trkpt lat="33.8099468" lon="-118.3947017">
  <ele>-24.39</ele>
  <time>2026-09-01T01:14:14Z</time>
  <course>234.0</course>
  <speed>0.99</speed>
  <fix>3d</fix>
</trkpt>
<trkpt lat="33.8099456" lon="-118.3947034">
  <ele>-25.01</ele>
  <time>2026-09-01T01:14:14Z</time>
  <course>323.93</course>
  <speed>0.9640020746865642</speed>
  <fix>3d</fix>
</trkpt>
<trkpt lat="33.8099468" lon="-118.3947017">
  <ele>-24.39</ele>
  <time>2026-09-01T01:14:14Z</time>
  <course>234.0</course>
  <speed>0.99</speed>
  <fix>3d</fix>
</trkpt>
<trkpt lat="33.8099451" lon="-118.3947042">
  <ele>-25.011</ele>
  <time>2026-09-01T01:14:14Z</time>
  <course>324.05</course>
  <speed>0.9640020746865642</speed>
  <fix>3d</fix>
</trkpt>
<trkpt lat="33.8099457" lon="-118.3947035">
  <ele>-24.4</ele>
  <time>2026-09-01T01:14:14Z</time>
  <course>234.21</course>
  <speed>0.99</speed>
  <fix>3d</fix>
</trkpt>
<trkpt lat="33.8099445" lon="-118.3947051">
  <ele>-25.01</ele>
  <time>2026-09-01T01:14:14Z</time>
  <course>324.16</course>
  <speed>0.9640020746865642</speed>
  <fix>3d</fix>
</trkpt>
<trkpt lat="33.8099457" lon="-118.3947035">
  <ele>-24.4</ele>
  <time>2026-09-01T01:14:14Z</time>
  <course>234.21</course>
  <speed>0.99</speed>
  <fix>3d</fix>
</trkpt>
<trkpt lat="33.809944" lon="-118.394706">
  <ele>-25.01</ele>
  <time>2026-09-01T01:14:14Z</time>
  <course>324.27</course>
  <speed>0.9640020746865642</speed>
  <fix>3d</fix>
</trkpt>
<trkpt lat="33.8099447" lon="-118.3947053">
  <ele>-24.4</ele>
  <time>2026-09-01T01:14:14Z</time>
  <course>234.47</course>
  <speed>0.99</speed>
  <fix>3d</fix>
</trkpt>
<trkpt lat="33.8099435" lon="-118.3947069">
  <ele>-25.009</ele>
  <time>2026-09-01T01:14:14Z</time>
  <course>324.39</course>
  <speed>0.9640020746865642</speed>
  <fix>3d</fix>
</trkpt>
<trkpt lat="33.8099447" lon="-118.3947053">
  <ele>-24.4</ele>
  <time>2026-09-01T01:14:14Z</time>
  <course>234.47</course>
  <speed>0.99</speed>
  <fix>3d</fix>
</trkpt>
<trkpt lat="33.809943" lon="-118.3947078">
  <ele>-25.01</ele>
  <time>2026-09-01T01:14:14Z</time>
  <course>324.51</course>
  <speed>0.9660745312862771</speed>
  <fix>3d</fix>
</trkpt>
<trkpt lat="33.8099437" lon="-118.394707">
  <ele>-24.4</ele>
  <time>2026-09-01T01:14:14Z</time>
  <course>234.71</course>
  <speed>0.99</speed>
  <fix>3d</fix>
</trkpt>
<trkpt lat="33.8099425" lon="-118.3947087">
  <ele>-25.01</ele>
  <time>2026-09-01T01:14:14Z</time>
  <course>324.62</course>
  <speed>0.9660745312862771</speed>
  <fix>3d</fix>
</trkpt>
<trkpt lat="33.8099437" lon="-118.394707">
  <ele>-24.4</ele>
  <time>2026-09-01T01:14:14Z</time>
  <course>234.71</course>
  <speed>0.99</speed>
  <fix>3d</fix>
</trkpt>
<trkpt lat="33.8099419" lon="-118.3947095">
  <ele>-25.011</ele>
  <time>2026-09-01T01:14:14Z</time>
  <course>324.73</course>
  <speed>0.9660745312862771</speed>
  <fix>3d</fix>
</trkpt>
<trkpt lat="33.8099427" lon="-118.3947088">
  <ele>-24.41</ele>
  <time>2026-09-01T01:14:14Z</time>
  <course>234.9</course>
  <speed>0.99</speed>
  <fix>3d</fix>
</trkpt>
<trkpt lat="33.8099414" lon="-118.3947104">
  <ele>-25.011</ele>
  <time>2026-09-01T01:14:14Z</time>
  <course>324.85</course>
  <speed>0.9660745312862771</speed>
  <fix>3d</fix>
</trkpt>
<trkpt lat="33.8099427" lon="-118.3947088">
  <ele>-24.41</ele>
  <time>2026-09-01T01:14:14Z</time>
  <course>234.9</course>
  <speed>0.99</speed>
  <fix>3d</fix>
</trkpt>
<trkpt lat="33.8099409" lon="-118.3947113">
  <ele>-25.012</ele>
  <time>2026-09-01T01:14:14Z</time>
  <course>324.96</course>
  <speed>0.9660745312862771</speed>
  <fix>3d</fix>
</trkpt>
<trkpt lat="33.8099416" lon="-118.3947106">
  <ele>-24.41</ele>
  <time>2026-09-01T01:14:14Z</time>
  <course>235.05</course>
  <speed>0.99</speed>
  <fix>3d</fix>
</trkpt>
<trkpt lat="33.8099404" lon="-118.3947122">
  <ele>-25.014</ele>
  <time>2026-09-01T01:14:14Z</time>
  <course>325.08</course>
  <speed>0.9660745312862771</speed>
  <fix>3d</fix>
</trkpt>
<trkpt lat="33.8099416" lon="-118.3947106">
  <ele>-24.41</ele>
  <time>2026-09-01T01:14:14Z</time>
  <course>235.05</course>
  <speed>0.99</speed>
  <fix>3d</fix>
</trkpt>
<trkpt lat="33.8099399" lon="-118.3947131">
  <ele>-25.016</ele>
  <time>2026-09-01T01:14:14Z</time>
  <course>325.2</course>
  <speed>0.9660745312862771</speed>
  <fix>3d</fix>
</trkpt>
<trkpt lat="33.8099406" lon="-118.3947123">
  <ele>-24.42</ele>
  <time>2026-09-01T01:14:14Z</time>
  <course>235.2</course>
  <speed>0.99</speed>
  <fix>3d</fix>
</trkpt>
<trkpt lat="33.8099394" lon="-118.394714">
  <ele>-25.018</ele>
  <time>2026-09-01T01:14:14Z</time>
  <course>325.31</course>
  <speed>0.9660745312862771</speed>
  <fix>3d</fix>
</trkpt>
<trkpt lat="33.8099406" lon="-118.3947123">
  <ele>-24.42</ele>
  <time>2026-09-01T01:14:14Z</time>
  <course>235.2</course>
  <speed>0.99</speed>
  <fix>3d</fix>
</trkpt>
<trkpt lat="33.8099389" lon="-118.3947149">
  <ele>-25.02</ele>
  <time>2026-09-01T01:14:14Z</time>
  <course>325.42</course>
  <speed>0.9602083107326242</speed>
  <fix>3d</fix>
</trkpt>
<trkpt lat="33.8099396" lon="-118.394714">
  <ele>-24.42</ele>
  <time>2026-09-01T01:14:14Z</time>
  <course>235.4</course>
  <speed>0.99</speed>
  <fix>3d</fix>
</trkpt>
<trkpt lat="33.8099384" lon="-118.3947158">
  <ele>-25.022</ele>
  <time>2026-09-01T01:14:14Z</time>
  <course>325.53</course>
  <speed>0.9683491106000975</speed>
  <fix>3d</fix>
</trkpt>
<trkpt lat="33.8099396" lon="-118.394714">
  <ele>-24.42</ele>
  <time>2026-09-01T01:14:14Z</time>
  <course>235.4</course>
  <speed>0.99</speed>
  <fix>3d</fix>
</trkpt>
<trkpt lat="33.8099379" lon="-118.3947167">
  <ele>-25.023</ele>
  <time>2026-09-01T01:14:14Z</time>
  <course>325.65</course>
  <speed>0.9683491106000975</speed>
  <fix>3d</fix>
</trkpt>
<trkpt lat="33.8099385" lon="-118.3947159">
  <ele>-24.42</ele>
  <time>2026-09-01T01:14:14Z</time>
  <course>235.65</course>
  <speed>0.99</speed>
  <fix>3d</fix>
</trkpt>
<trkpt lat="33.8099374" lon="-118.3947176">
  <ele>-25.022</ele>
  <time>2026-09-01T01:14:14Z</time>
  <course>325.77</course>
  <speed>0.9683491106000975</speed>
  <fix>3d</fix>
</trkpt>
<trkpt lat="33.8099385" lon="-118.3947159">
  <ele>-24.42</ele>
  <time>2026-09-01T01:14:14Z</time>
  <course>235.65</course>
  <speed>0.99</speed>
  <fix>3d</fix>
</trkpt>
<trkpt lat="33.8099369" lon="-118.3947185">
  <ele>-25.021</ele>
  <time>2026-09-01T01:14:14Z</time>
  <course>325.88</course>
  <speed>0.9683491106000975</speed>
  <fix>3d</fix>
</trkpt>
<trkpt lat="33.8099376" lon="-118.3947177">
  <ele>-24.42</ele>
  <time>2026-09-01T01:14:14Z</time>
  <course>235.93</course>
  <speed>0.99</speed>
  <fix>3d</fix>
</trkpt>
<trkpt lat="33.8099364" lon="-118.3947194">
  <ele>-25.019</ele>
  <time>2026-09-01T01:14:14Z</time>
  <course>326.0</course>
  <speed>0.9683491106000975</speed>
  <fix>3d</fix>
</trkpt>
<trkpt lat="33.8099376" lon="-118.3947177">
  <ele>-24.42</ele>
  <time>2026-09-01T01:14:14Z</time>
  <course>235.93</course>
  <speed>0.99</speed>
  <fix>3d</fix>
</trkpt>
<trkpt lat="33.8099359" lon="-118.3947203">
  <ele>-25.016</ele>
  <time>2026-09-01T01:14:14Z</time>
  <course>326.11</course>
  <speed>0.9626006440887103</speed>
  <fix>3d</fix>
</trkpt>
<trkpt lat="33.8099366" lon="-118.3947195">
  <ele>-24.41</ele>
  <time>2026-09-01T01:14:14Z</time>
  <course>236.17</course>
  <speed>0.99</speed>
  <fix>3d</fix>
</trkpt>
<trkpt lat="33.8099354" lon="-118.3947212">
  <ele>-25.014</ele>
  <time>2026-09-01T01:14:14Z</time>
  <course>326.23</course>
  <speed>0.9626006440887103</speed>
  <fix>3d</fix>
</trkpt>
<trkpt lat="33.8099366" lon="-118.3947195">
  <ele>-24.41</ele>
  <time>2026-09-01T01:14:14Z</time>
  <course>236.17</course>
  <speed>0.99</speed>
  <fix>3d</fix>
</trkpt>
<trkpt lat="33.8099349" lon="-118.3947221">
  <ele>-25.012</ele>
  <time>2026-09-01T01:14:14Z</time>
  <course>326.34</course>
  <speed>0.9626006440887103</speed>
  <fix>3d</fix>
</trkpt>
<trkpt lat="33.8099356" lon="-118.3947212">
  <ele>-24.41</ele>
  <time>2026-09-01T01:14:14Z</time>
  <course>236.34</course>
  <speed>0.99</speed>
  <fix>3d</fix>
</trkpt>
<trkpt lat="33.8099344" lon="-118.394723">
  <ele>-25.011</ele>
  <time>2026-09-01T01:14:14Z</time>
  <course>326.46</course>
  <speed>0.9626006440887103</speed>
  <fix>3d</fix>
</trkpt>
<trkpt lat="33.8099356" lon="-118.3947212">
  <ele>-24.41</ele>
  <time>2026-09-01T01:14:14Z</time>
  <course>236.34</course>
  <speed>0.99</speed>
  <fix>3d</fix>
</trkpt>
<trkpt lat="33.8099339" lon="-118.3947239">
  <ele>-25.012</ele>
  <time>2026-09-01T01:14:14Z</time>
  <course>326.57</course>
  <speed>0.97082439194738</speed>
  <fix>3d</fix>
</trkpt>
<trkpt lat="33.8099346" lon="-118.394723">
  <ele>-24.41</ele>
  <time>2026-09-01T01:14:14Z</time>
  <course>236.5</course>
  <speed>0.99</speed>
  <fix>3d</fix>
</trkpt>
<trkpt lat="33.8099334" lon="-118.3947248">
  <ele>-25.014</ele>
  <time>2026-09-01T01:14:14Z</time>
  <course>326.69</course>
  <speed>0.97082439194738</speed>
  <fix>3d</fix>
</trkpt>
<trkpt lat="33.8099346" lon="-118.394723">
  <ele>-24.41</ele>
  <time>2026-09-01T01:14:14Z</time>
  <course>236.5</course>
  <speed>0.99</speed>
  <fix>3d</fix>
</trkpt>
<trkpt lat="33.8099329" lon="-118.3947257">
  <ele>-25.014</ele>
  <time>2026-09-01T01:14:14Z</time>
  <course>326.8</course>
  <speed>0.97082439194738</speed>
  <fix>3d</fix>
</trkpt>
<trkpt lat="33.8099335" lon="-118.3947248">
  <ele>-24.41</ele>
  <time>2026-09-01T01:14:14Z</time>
  <course>236.72</course>
  <speed>0.99</speed>
  <fix>3d</fix>
</trkpt>
<trkpt lat="33.8099324" lon="-118.3947266">
  <ele>-25.014</ele>
  <time>2026-09-01T01:14:14Z</time>
  <course>326.91</course>
  <speed>0.9651942809610924</speed>
  <fix>3d</fix>
</trkpt>
<trkpt lat="33.8099335" lon="-118.3947248">
  <ele>-24.41</ele>
  <time>2026-09-01T01:14:14Z</time>
  <course>236.72</course>
  <speed>0.99</speed>
  <fix>3d</fix>
</trkpt>
<trkpt lat="33.8099319" lon="-118.3947275">
  <ele>-25.015</ele>
  <time>2026-09-01T01:14:14Z</time>
  <course>327.03</course>
  <speed>0.9651942809610924</speed>
  <fix>3d</fix>
</trkpt>
<trkpt lat="33.8099325" lon="-118.3947267">
  <ele>-24.41</ele>
  <time>2026-09-01T01:14:14Z</time>
  <course>237.02</course>
  <speed>0.99</speed>
  <fix>3d</fix>
</trkpt>
<trkpt lat="33.8099314" lon="-118.3947284">
  <ele>-25.015</ele>
  <time>2026-09-01T01:14:14Z</time>
  <course>327.15</course>
  <speed>0.9651942809610924</speed>
  <fix>3d</fix>
</trkpt>
<trkpt lat="33.8099325" lon="-118.3947267">
  <ele>-24.41</ele>
  <time>2026-09-01T01:14:14Z</time>
  <course>237.02</course>
  <speed>0.99</speed>
  <fix>3d</fix>
</trkpt>
<trkpt lat="33.809931" lon="-118.3947293">
  <ele>-25.017</ele>
  <time>2026-09-01T01:14:14Z</time>
  <course>327.26</course>
  <speed>0.9651942809610924</speed>
  <fix>3d</fix>
</trkpt>
<trkpt lat="33.8099316" lon="-118.3947284">
  <ele>-24.41</ele>
  <time>2026-09-01T01:14:14Z</time>
  <course>237.37</course>
  <speed>0.99</speed>
  <fix>3d</fix>
</trkpt>
<trkpt lat="33.8099305" lon="-118.3947302">
  <ele>-25.017</ele>
  <time>2026-09-01T01:14:14Z</time>
  <course>327.38</course>
  <speed>0.9679876032264049</speed>
  <fix>3d</fix>
</trkpt>
<trkpt lat="33.8099316" lon="-118.3947284">
  <ele>-24.41</ele>
  <time>2026-09-01T01:14:14Z</time>
  <course>237.37</course>
  <speed>0.99</speed>
  <fix>3d</fix>
</trkpt>
<trkpt lat="33.80993" lon="-118.3947311">
  <ele>-25.016</ele>
  <time>2026-09-01T01:14:14Z</time>
  <course>327.49</course>
  <speed>0.9679876032264049</speed>
  <fix>3d</fix>
</trkpt>
<trkpt lat="33.8099306" lon="-118.3947303">
  <ele>-24.41</ele>
  <time>2026-09-01T01:14:14Z</time>
  <course>237.7</course>
  <speed>0.99</speed>
  <fix>3d</fix>
</trkpt>
<trkpt lat="33.8099295" lon="-118.3947321">
  <ele>-25.015</ele>
  <time>2026-09-01T01:14:14Z</time>
  <course>327.6</course>
  <speed>0.9679876032264049</speed>
  <fix>3d</fix>
</trkpt>
<trkpt lat="33.8099306" lon="-118.3947303">
  <ele>-24.41</ele>
  <time>2026-09-01T01:14:14Z</time>
  <course>237.7</course>
  <speed>0.99</speed>
  <fix>3d</fix>
</trkpt>
<trkpt lat="33.809929" lon="-118.394733">
  <ele>-25.013</ele>
  <time>2026-09-01T01:14:14Z</time>
  <course>327.72</course>
  <speed>0.9679876032264049</speed>
  <fix>3d</fix>
</trkpt>
<trkpt lat="33.8099297" lon="-118.3947321">
  <ele>-24.4</ele>
  <time>2026-09-01T01:14:14Z</time>
  <course>238.01</course>
  <speed>0.99</speed>
  <fix>3d</fix>
</trkpt>
<trkpt lat="33.8099285" lon="-118.3947339">
  <ele>-25.013</ele>
  <time>2026-09-01T01:14:14Z</time>
  <course>327.83</course>
  <speed>0.9679876032264049</speed>
  <fix>3d</fix>
</trkpt>
<trkpt lat="33.8099297" lon="-118.3947321">
  <ele>-24.4</ele>
  <time>2026-09-01T01:14:14Z</time>
  <course>238.01</course>
  <speed>0.99</speed>
  <fix>3d</fix>
</trkpt>
<trkpt lat="33.8099281" lon="-118.3947348">
  <ele>-25.012</ele>
  <time>2026-09-01T01:14:14Z</time>
  <course>327.95</course>
  <speed>0.9679876032264049</speed>
  <fix>3d</fix>
</trkpt>
<trkpt lat="33.8099287" lon="-118.3947339">
  <ele>-24.4</ele>
  <time>2026-09-01T01:14:14Z</time>
  <course>238.27</course>
  <speed>0.99</speed>
  <fix>3d</fix>
</trkpt>
<trkpt lat="33.8099276" lon="-118.3947357">
  <ele>-25.011</ele>
  <time>2026-09-01T01:14:14Z</time>
  <course>328.07</course>
  <speed>0.9625487000666512</speed>
  <fix>3d</fix>
</trkpt>
<trkpt lat="33.8099287" lon="-118.3947339">
  <ele>-24.4</ele>
  <time>2026-09-01T01:14:14Z</time>
  <course>238.27</course>
  <speed>0.99</speed>
  <fix>3d</fix>
</trkpt>
<trkpt lat="33.8099271" lon="-118.3947367">
  <ele>-25.009</ele>
  <time>2026-09-01T01:14:14Z</time>
  <course>328.18</course>
  <speed>0.9625487000666512</speed>
  <fix>3d</fix>
</trkpt>
<trkpt lat="33.8099278" lon="-118.3947358">
  <ele>-24.4</ele>
  <time>2026-09-01T01:14:14Z</time>
  <course>238.5</course>
  <speed>0.99</speed>
  <fix>3d</fix>
</trkpt>
<trkpt lat="33.8099267" lon="-118.3947376">
  <ele>-25.008</ele>
  <time>2026-09-01T01:14:14Z</time>
  <course>328.29</course>
  <speed>0.9625487000666512</speed>
  <fix>3d</fix>
</trkpt>
<trkpt lat="33.8099278" lon="-118.3947358">
  <ele>-24.4</ele>
  <time>2026-09-01T01:14:14Z</time>
  <course>238.5</course>
  <speed>0.99</speed>
  <fix>3d</fix>
</trkpt>
<trkpt lat="33.8099262" lon="-118.3947385">
  <ele>-25.007</ele>
  <time>2026-09-01T01:14:14Z</time>
  <course>328.41</course>
  <speed>0.9709788875150684</speed>
  <fix>3d</fix>
</trkpt>
<trkpt lat="33.8099269" lon="-118.3947375">
  <ele>-24.4</ele>
  <time>2026-09-01T01:14:14Z</time>
  <course>238.73</course>
  <speed>0.99</speed>
  <fix>3d</fix>
</trkpt>
<trkpt lat="33.8099257" lon="-118.3947394">
  <ele>-25.008</ele>
  <time>2026-09-01T01:14:14Z</time>
  <course>328.52</course>
  <speed>0.9709788875150684</speed>
  <fix>3d</fix>
</trkpt>
<trkpt lat="33.8099269" lon="-118.3947375">
  <ele>-24.4</ele>
  <time>2026-09-01T01:14:14Z</time>
  <course>238.73</course>
  <speed>0.99</speed>
  <fix>3d</fix>
</trkpt>
<trkpt lat="33.8099253" lon="-118.3947403">
  <ele>-25.008</ele>
  <time>2026-09-01T01:14:14Z</time>
  <course>328.64</course>
  <speed>0.9709788875150684</speed>
  <fix>3d</fix>
</trkpt>
<trkpt lat="33.809926" lon="-118.3947394">
  <ele>-24.4</ele>
  <time>2026-09-01T01:14:14Z</time>
  <course>238.93</course>
  <speed>0.99</speed>
  <fix>3d</fix>
</trkpt>
<trkpt lat="33.8099248" lon="-118.3947413">
  <ele>-25.009</ele>
  <time>2026-09-01T01:14:14Z</time>
  <course>328.75</course>
  <speed>0.9709788875150684</speed>
  <fix>3d</fix>
</trkpt>
<trkpt lat="33.809926" lon="-118.3947394">
  <ele>-24.4</ele>
  <time>2026-09-01T01:14:14Z</time>
  <course>238.93</course>
  <speed>0.99</speed>
  <fix>3d</fix>
</trkpt>
<trkpt lat="33.8099244" lon="-118.3947422">
  <ele>-25.01</ele>
  <time>2026-09-01T01:14:14Z</time>
  <course>328.87</course>
  <speed>0.9709788875150684</speed>
  <fix>3d</fix>
</trkpt>
<trkpt lat="33.809925" lon="-118.3947413">
  <ele>-24.41</ele>
  <time>2026-09-01T01:14:14Z</time>
  <course>239.1</course>
  <speed>0.99</speed>
  <fix>3d</fix>
</trkpt>
<trkpt lat="33.8099239" lon="-118.3947431">
  <ele>-25.011</ele>
  <time>2026-09-01T01:14:14Z</time>
  <course>328.98</course>
  <speed>0.9656603957913983</speed>
  <fix>3d</fix>
</trkpt>
<trkpt lat="33.809925" lon="-118.3947413">
  <ele>-24.41</ele>
  <time>2026-09-01T01:14:14Z</time>
  <course>239.1</course>
  <speed>0.99</speed>
  <fix>3d</fix>
</trkpt>
<trkpt lat="33.8099234" lon="-118.3947441">
  <ele>-25.013</ele>
  <time>2026-09-01T01:14:14Z</time>
  <course>329.09</course>
  <speed>0.9656603957913983</speed>
  <fix>3d</fix>
</trkpt>
<trkpt lat="33.8099241" lon="-118.3947431">
  <ele>-24.41</ele>
  <time>2026-09-01T01:14:14Z</time>
  <course>239.27</course>
  <speed>0.99</speed>
  <fix>3d</fix>
</trkpt>
<trkpt lat="33.809923" lon="-118.394745">
  <ele>-25.015</ele>
  <time>2026-09-01T01:14:14Z</time>
  <course>329.21</course>
  <speed>0.9656603957913983</speed>
  <fix>3d</fix>
</trkpt>
<trkpt lat="33.8099241" lon="-118.3947431">
  <ele>-24.41</ele>
  <time>2026-09-01T01:14:14Z</time>
  <course>239.27</course>
  <speed>0.99</speed>
  <fix>3d</fix>
</trkpt>
<trkpt lat="33.8099225" lon="-118.3947459">
  <ele>-25.017</ele>
  <time>2026-09-01T01:14:14Z</time>
  <course>329.33</course>
  <speed>0.9741663102366043</speed>
  <fix>3d</fix>
</trkpt>
<trkpt lat="33.8099232" lon="-118.394745">
  <ele>-24.42</ele>
  <time>2026-09-01T01:14:14Z</time>
  <course>239.48</course>
  <speed>0.99</speed>
  <fix>3d</fix>
</trkpt>
<trkpt lat="33.8099221" lon="-118.3947468">
  <ele>-25.019</ele>
  <time>2026-09-01T01:14:14Z</time>
  <course>329.44</course>
  <speed>0.9741663102366043</speed>
  <fix>3d</fix>
</trkpt>
<trkpt lat="33.8099232" lon="-118.394745">
  <ele>-24.42</ele>
  <time>2026-09-01T01:14:14Z</time>
  <course>239.48</course>
  <speed>0.99</speed>
  <fix>3d</fix>
</trkpt>
<trkpt lat="33.8099216" lon="-118.3947478">
  <ele>-25.02</ele>
  <time>2026-09-01T01:14:14Z</time>
  <course>329.55</course>
  <speed>0.9741663102366043</speed>
  <fix>3d</fix>
</trkpt>
<trkpt lat="33.8099223" lon="-118.3947469">
  <ele>-24.42</ele>
  <time>2026-09-01T01:14:14Z</time>
  <course>239.7</course>
  <speed>0.99</speed>
  <fix>3d</fix>
</trkpt>
<trkpt lat="33.8099212" lon="-118.3947487">
  <ele>-25.021</ele>
  <time>2026-09-01T01:14:14Z</time>
  <course>329.67</course>
  <speed>0.9741663102366043</speed>
  <fix>3d</fix>
</trkpt>
<trkpt lat="33.8099223" lon="-118.3947469">
  <ele>-24.42</ele>
  <time>2026-09-01T01:14:14Z</time>
  <course>239.7</course>
  <speed>0.99</speed>
  <fix>3d</fix>
</trkpt>
<trkpt lat="33.8099207" lon="-118.3947497">
  <ele>-25.021</ele>
  <time>2026-09-01T01:14:14Z</time>
  <course>329.78</course>
  <speed>0.9689685237405805</speed>
  <fix>3d</fix>
</trkpt>
<trkpt lat="33.8099214" lon="-118.3947487">
  <ele>-24.42</ele>
  <time>2026-09-01T01:14:14Z</time>
  <course>239.9</course>
  <speed>0.99</speed>
  <fix>3d</fix>
</trkpt>
<trkpt lat="33.8099203" lon="-118.3947506">
  <ele>-25.02</ele>
  <time>2026-09-01T01:14:14Z</time>
  <course>329.9</course>
  <speed>0.9689685237405805</speed>
  <fix>3d</fix>
</trkpt>
<trkpt lat="33.8099214" lon="-118.3947487">
  <ele>-24.42</ele>
  <time>2026-09-01T01:14:14Z</time>
  <course>239.9</course>
  <speed>0.99</speed>
  <fix>3d</fix>
</trkpt>
<trkpt lat="33.8099198" lon="-118.3947515">
  <ele>-25.019</ele>
  <time>2026-09-01T01:14:14Z</time>
  <course>330.01</course>
  <speed>0.9689685237405805</speed>
  <fix>3d</fix>
</trkpt>
<trkpt lat="33.8099205" lon="-118.3947506">
  <ele>-24.41</ele>
  <time>2026-09-01T01:14:14Z</time>
  <course>240.09</course>
  <speed>0.99</speed>
  <fix>3d</fix>
</trkpt>
<trkpt lat="33.8099194" lon="-118.3947525">
  <ele>-25.018</ele>
  <time>2026-09-01T01:14:14Z</time>
  <course>330.13</course>
  <speed>0.9689685237405805</speed>
  <fix>3d</fix>
</trkpt>
<trkpt lat="33.8099205" lon="-118.3947506">
  <ele>-24.41</ele>
  <time>2026-09-01T01:14:14Z</time>
  <course>240.09</course>
  <speed>0.99</speed>
  <fix>3d</fix>
</trkpt>
<trkpt lat="33.8099189" lon="-118.3947534">
  <ele>-25.017</ele>
  <time>2026-09-01T01:14:14Z</time>
  <course>330.24</course>
  <speed>0.9689685237405805</speed>
  <fix>3d</fix>
</trkpt>
<trkpt lat="33.8099196" lon="-118.3947525">
  <ele>-24.41</ele>
  <time>2026-09-01T01:14:14Z</time>
  <course>240.3</course>
  <speed>1.0</speed>
  <fix>3d</fix>
</trkpt>
<trkpt lat="33.8099185" lon="-118.3947544">
  <ele>-25.015</ele>
  <time>2026-09-01T01:14:14Z</time>
  <course>330.36</course>
  <speed>0.9689685237405805</speed>
  <fix>3d</fix>
</trkpt>
<trkpt lat="33.8099196" lon="-118.3947525">
  <ele>-24.41</ele>
  <time>2026-09-01T01:14:14Z</time>
  <course>240.3</course>
  <speed>1.0</speed>
  <fix>3d</fix>
</trkpt>
<trkpt lat="33.809918" lon="-118.3947553">
  <ele>-25.014</ele>
  <time>2026-09-01T01:14:14Z</time>
  <course>330.47</course>
  <speed>0.9638464608017192</speed>
  <fix>3d</fix>
</trkpt>
<trkpt lat="33.8099187" lon="-118.3947544">
  <ele>-24.4</ele>
  <time>2026-09-01T01:14:14Z</time>
  <course>240.51</course>
  <speed>1.0</speed>
  <fix>3d</fix>
</trkpt>
<trkpt lat="33.8099176" lon="-118.3947562">
  <ele>-25.012</ele>
  <time>2026-09-01T01:14:14Z</time>
  <course>330.58</course>
  <speed>0.9638464608017192</speed>
  <fix>3d</fix>
</trkpt>
<trkpt lat="33.8099187" lon="-118.3947544">
  <ele>-24.4</ele>
  <time>2026-09-01T01:14:14Z</time>
  <course>240.51</course>
  <speed>1.0</speed>
  <fix>3d</fix>
</trkpt>
<trkpt lat="33.8099172" lon="-118.3947572">
  <ele>-25.011</ele>
  <time>2026-09-01T01:14:14Z</time>
  <course>330.7</course>
  <speed>0.9724710792614863</speed>
  <fix>3d</fix>
</trkpt>
<trkpt lat="33.8099178" lon="-118.3947562">
  <ele>-24.4</ele>
  <time>2026-09-01T01:14:14Z</time>
  <course>240.72</course>
  <speed>1.0</speed>
  <fix>3d</fix>
</trkpt>
<trkpt lat="33.8099167" lon="-118.3947581">
  <ele>-25.009</ele>
  <time>2026-09-01T01:14:14Z</time>
  <course>330.81</course>
  <speed>0.9724710792614863</speed>
  <fix>3d</fix>
</trkpt>
<trkpt lat="33.8099178" lon="-118.3947562">
  <ele>-24.4</ele>
  <time>2026-09-01T01:14:14Z</time>
  <course>240.72</course>
  <speed>1.0</speed>
  <fix>3d</fix>
</trkpt>
<trkpt lat="33.8099163" lon="-118.3947591">
  <ele>-25.008</ele>
  <time>2026-09-01T01:14:14Z</time>
  <course>330.93</course>
  <speed>0.9724710792614863</speed>
  <fix>3d</fix>
</trkpt>
<trkpt lat="33.809917" lon="-118.3947581">
  <ele>-24.4</ele>
  <time>2026-09-01T01:14:14Z</time>
  <course>240.97</course>
  <speed>1.0</speed>
  <fix>3d</fix>
</trkpt>
<trkpt lat="33.8099159" lon="-118.39476">
  <ele>-25.007</ele>
  <time>2026-09-01T01:14:14Z</time>
  <course>331.04</course>
  <speed>0.9724710792614863</speed>
  <fix>3d</fix>
</trkpt>
<trkpt lat="33.809917" lon="-118.3947581">
  <ele>-24.4</ele>
  <time>2026-09-01T01:14:14Z</time>
  <course>240.97</course>
  <speed>1.0</speed>
  <fix>3d</fix>
</trkpt>
<trkpt lat="33.8099154" lon="-118.394761">
  <ele>-25.008</ele>
  <time>2026-09-01T01:14:14Z</time>
  <course>331.15</course>
  <speed>0.9674709297958259</speed>
  <fix>3d</fix>
</trkpt>
<trkpt lat="33.8099161" lon="-118.39476">
  <ele>-24.4</ele>
  <time>2026-09-01T01:14:14Z</time>
  <course>241.21</course>
  <speed>1.0</speed>
  <fix>3d</fix>
</trkpt>
<trkpt lat="33.809915" lon="-118.3947619">
  <ele>-25.008</ele>
  <time>2026-09-01T01:14:14Z</time>
  <course>331.27</course>
  <speed>0.9674709297958259</speed>
  <fix>3d</fix>
</trkpt>
<trkpt lat="33.8099161" lon="-118.39476">
  <ele>-24.4</ele>
  <time>2026-09-01T01:14:14Z</time>
  <course>241.21</course>
  <speed>1.0</speed>
  <fix>3d</fix>
</trkpt>
<trkpt lat="33.8099146" lon="-118.3947629">
  <ele>-25.01</ele>
  <time>2026-09-01T01:14:14Z</time>
  <course>331.39</course>
  <speed>0.9674709297958259</speed>
  <fix>3d</fix>
</trkpt>
<trkpt lat="33.8099152" lon="-118.3947619">
  <ele>-24.4</ele>
  <time>2026-09-01T01:14:14Z</time>
  <course>241.43</course>
  <speed>1.0</speed>
  <fix>3d</fix>
</trkpt>
<trkpt lat="33.8099142" lon="-118.3947638">
  <ele>-25.012</ele>
  <time>2026-09-01T01:14:14Z</time>
  <course>331.5</course>
  <speed>0.9674709297958259</speed>
  <fix>3d</fix>
</trkpt>
<trkpt lat="33.8099152" lon="-118.3947619">
  <ele>-24.4</ele>
  <time>2026-09-01T01:14:14Z</time>
  <course>241.43</course>
  <speed>1.0</speed>
  <fix>3d</fix>
</trkpt>
<trkpt lat="33.8099137" lon="-118.3947648">
  <ele>-25.014</ele>
  <time>2026-09-01T01:14:14Z</time>
  <course>331.61</course>
  <speed>0.9761659694949419</speed>
  <fix>3d</fix>
</trkpt>
<trkpt lat="33.8099143" lon="-118.3947638">
  <ele>-24.41</ele>
  <time>2026-09-01T01:14:14Z</time>
  <course>241.66</course>
  <speed>1.0</speed>
  <fix>3d</fix>
</trkpt>
<trkpt lat="33.8099133" lon="-118.3947657">
  <ele>-25.015</ele>
  <time>2026-09-01T01:14:14Z</time>
  <course>331.73</course>
  <speed>0.9712878049270464</speed>
  <fix>3d</fix>
</trkpt>
<trkpt lat="33.8099143" lon="-118.3947638">
  <ele>-24.41</ele>
  <time>2026-09-01T01:14:14Z</time>
  <course>241.66</course>
  <speed>1.0</speed>
  <fix>3d</fix>
</trkpt>
<trkpt lat="33.8099129" lon="-118.3947667">
  <ele>-25.016</ele>
  <time>2026-09-01T01:14:14Z</time>
  <course>331.85</course>
  <speed>0.9712878049270464</speed>
  <fix>3d</fix>
</trkpt>
<trkpt lat="33.8099135" lon="-118.3947657">
  <ele>-24.41</ele>
  <time>2026-09-01T01:14:14Z</time>
  <course>241.95</course>
  <speed>1.0</speed>
  <fix>3d</fix>
</trkpt>
<trkpt lat="33.8099125" lon="-118.3947676">
  <ele>-25.015</ele>
  <time>2026-09-01T01:14:14Z</time>
  <course>331.96</course>
  <speed>0.9712878049270464</speed>
  <fix>3d</fix>
</trkpt>
<trkpt lat="33.8099135" lon="-118.3947657">
  <ele>-24.41</ele>
  <time>2026-09-01T01:14:14Z</time>
  <course>241.95</course>
  <speed>1.0</speed>
  <fix>3d</fix>
</trkpt>
<trkpt lat="33.809912" lon="-118.3947686">
  <ele>-25.014</ele>
  <time>2026-09-01T01:14:14Z</time>
  <course>332.07</course>
  <speed>0.9712878049270464</speed>
  <fix>3d</fix>
</trkpt>
<trkpt lat="33.8099127" lon="-118.3947676">
  <ele>-24.41</ele>
  <time>2026-09-01T01:14:14Z</time>
  <course>242.24</course>
  <speed>1.0</speed>
  <fix>3d</fix>
</trkpt>
<trkpt lat="33.8099116" lon="-118.3947696">
  <ele>-25.014</ele>
  <time>2026-09-01T01:14:14Z</time>
  <course>332.19</course>
  <speed>0.9712878049270464</speed>
  <fix>3d</fix>
</trkpt>
<trkpt lat="33.8099127" lon="-118.3947676">
  <ele>-24.41</ele>
  <time>2026-09-01T01:14:14Z</time>
  <course>242.24</course>
  <speed>1.0</speed>
  <fix>3d</fix>
</trkpt>
<trkpt lat="33.8099112" lon="-118.3947705">
  <ele>-25.014</ele>
  <time>2026-09-01T01:14:14Z</time>
  <course>332.3</course>
  <speed>0.9712878049270464</speed>
  <fix>3d</fix>
</trkpt>
<trkpt lat="33.8099119" lon="-118.3947696">
  <ele>-24.41</ele>
  <time>2026-09-01T01:14:14Z</time>
  <course>242.49</course>
  <speed>1.0</speed>
  <fix>3d</fix>
</trkpt>
<trkpt lat="33.8099108" lon="-118.3947715">
  <ele>-25.015</ele>
  <time>2026-09-01T01:14:14Z</time>
  <course>332.42</course>
  <speed>0.9664884893261793</speed>
  <fix>3d</fix>
</trkpt>
<trkpt lat="33.8099119" lon="-118.3947696">
  <ele>-24.41</ele>
  <time>2026-09-01T01:14:14Z</time>
  <course>242.49</course>
  <speed>1.0</speed>
  <fix>3d</fix>
</trkpt>
<trkpt lat="33.8099104" lon="-118.3947725">
  <ele>-25.017</ele>
  <time>2026-09-01T01:14:14Z</time>
  <course>332.54</course>
  <speed>0.9664884893261793</speed>
  <fix>3d</fix>
</trkpt>
<trkpt lat="33.809911" lon="-118.3947715">
  <ele>-24.41</ele>
  <time>2026-09-01T01:14:14Z</time>
  <course>242.67</course>
  <speed>1.0</speed>
  <fix>3d</fix>
</trkpt>
<trkpt lat="33.80991" lon="-118.3947734">
  <ele>-25.017</ele>
  <time>2026-09-01T01:14:14Z</time>
  <course>332.65</course>
  <speed>0.9664884893261793</speed>
  <fix>3d</fix>
</trkpt>
<trkpt lat="33.809911" lon="-118.3947715">
  <ele>-24.41</ele>
  <time>2026-09-01T01:14:14Z</time>
  <course>242.67</course>
  <speed>1.0</speed>
  <fix>3d</fix>
</trkpt>
<trkpt lat="33.8099096" lon="-118.3947744">
  <ele>-25.017</ele>
  <time>2026-09-01T01:14:14Z</time>
  <course>332.76</course>
  <speed>0.9664884893261793</speed>
  <fix>3d</fix>
</trkpt>
<trkpt lat="33.8099102" lon="-118.3947734">
  <ele>-24.41</ele>
  <time>2026-09-01T01:14:14Z</time>
  <course>242.83</course>
  <speed>1.0</speed>
  <fix>3d</fix>
</trkpt>
<trkpt lat="33.8099092" lon="-118.3947753">
  <ele>-25.017</ele>
  <time>2026-09-01T01:14:14Z</time>
  <course>332.88</course>
  <speed>0.9664884893261793</speed>
  <fix>3d</fix>
</trkpt>
<trkpt lat="33.8099102" lon="-118.3947734">
  <ele>-24.41</ele>
  <time>2026-09-01T01:14:14Z</time>
  <course>242.83</course>
  <speed>1.0</speed>
  <fix>3d</fix>
</trkpt>
<trkpt lat="33.8099088" lon="-118.3947763">
  <ele>-25.017</ele>
  <time>2026-09-01T01:14:14Z</time>
  <course>332.99</course>
  <speed>0.9664884893261793</speed>
  <fix>3d</fix>
</trkpt>
<trkpt lat="33.8099093" lon="-118.3947753">
  <ele>-24.41</ele>
  <time>2026-09-01T01:14:14Z</time>
  <course>243.01</course>
  <speed>1.0</speed>
  <fix>3d</fix>
</trkpt>
<trkpt lat="33.8099083" lon="-118.3947773">
  <ele>-25.017</ele>
  <time>2026-09-01T01:14:14Z</time>
  <course>333.1</course>
  <speed>0.9706183596038146</speed>
  <fix>3d</fix>
</trkpt>
<trkpt lat="33.8099093" lon="-118.3947753">
  <ele>-24.41</ele>
  <time>2026-09-01T01:14:14Z</time>
  <course>243.01</course>
  <speed>1.0</speed>
  <fix>3d</fix>
</trkpt>
<trkpt lat="33.8099079" lon="-118.3947782">
  <ele>-25.016</ele>
  <time>2026-09-01T01:14:14Z</time>
  <course>333.22</course>
  <speed>0.9706183596038146</speed>
  <fix>3d</fix>
</trkpt>
<trkpt lat="33.8099086" lon="-118.3947772">
  <ele>-24.41</ele>
  <time>2026-09-01T01:14:14Z</time>
  <course>243.27</course>
  <speed>1.0</speed>
  <fix>3d</fix>
</trkpt>
<trkpt lat="33.8099075" lon="-118.3947792">
  <ele>-25.015</ele>
  <time>2026-09-01T01:14:14Z</time>
  <course>333.34</course>
  <speed>0.9706183596038146</speed>
  <fix>3d</fix>
</trkpt>
<trkpt lat="33.8099086" lon="-118.3947772">
  <ele>-24.41</ele>
  <time>2026-09-01T01:14:14Z</time>
  <course>243.27</course>
  <speed>1.0</speed>
  <fix>3d</fix>
</trkpt>
<trkpt lat="33.8099071" lon="-118.3947802">
  <ele>-25.015</ele>
  <time>2026-09-01T01:14:14Z</time>
  <course>333.45</course>
  <speed>0.9706183596038146</speed>
  <fix>3d</fix>
</trkpt>
<trkpt lat="33.8099078" lon="-118.3947792">
  <ele>-24.41</ele>
  <time>2026-09-01T01:14:14Z</time>
  <course>243.54</course>
  <speed>1.0</speed>
  <fix>3d</fix>
</trkpt>
<trkpt lat="33.8099067" lon="-118.3947811">
  <ele>-25.014</ele>
  <time>2026-09-01T01:14:14Z</time>
  <course>333.57</course>
  <speed>0.9706183596038146</speed>
  <fix>3d</fix>
</trkpt>
<trkpt lat="33.8099078" lon="-118.3947792">
  <ele>-24.41</ele>
  <time>2026-09-01T01:14:14Z</time>
  <course>243.54</course>
  <speed>1.0</speed>
  <fix>3d</fix>
</trkpt>
<trkpt lat="33.8099063" lon="-118.3947821">
  <ele>-25.015</ele>
  <time>2026-09-01T01:14:14Z</time>
  <course>333.68</course>
  <speed>0.9706183596038146</speed>
  <fix>3d</fix>
</trkpt>
<trkpt lat="33.8099069" lon="-118.3947812">
  <ele>-24.41</ele>
  <time>2026-09-01T01:14:14Z</time>
  <course>243.76</course>
  <speed>1.0</speed>
  <fix>3d</fix>
</trkpt>
<trkpt lat="33.809906" lon="-118.3947831">
  <ele>-25.016</ele>
  <time>2026-09-01T01:14:14Z</time>
  <course>333.8</course>
  <speed>0.9660227740586658</speed>
  <fix>3d</fix>
</trkpt>
<trkpt lat="33.8099069" lon="-118.3947812">
  <ele>-24.41</ele>
  <time>2026-09-01T01:14:14Z</time>
  <course>243.76</course>
  <speed>1.0</speed>
  <fix>3d</fix>
</trkpt>
<trkpt lat="33.8099056" lon="-118.3947841">
  <ele>-25.016</ele>
  <time>2026-09-01T01:14:14Z</time>
  <course>333.91</course>
  <speed>0.9660227740586658</speed>
  <fix>3d</fix>
</trkpt>
<trkpt lat="33.8099062" lon="-118.3947831">
  <ele>-24.4</ele>
  <time>2026-09-01T01:14:14Z</time>
  <course>243.98</course>
  <speed>1.0</speed>
  <fix>3d</fix>
</trkpt>
<trkpt lat="33.8099052" lon="-118.394785">
  <ele>-25.016</ele>
  <time>2026-09-01T01:14:14Z</time>
  <course>334.02</course>
  <speed>0.9660227740586658</speed>
  <fix>3d</fix>
</trkpt>
<trkpt lat="33.8099062" lon="-118.3947831">
  <ele>-24.4</ele>
  <time>2026-09-01T01:14:14Z</time>
  <course>243.98</course>
  <speed>1.0</speed>
  <fix>3d</fix>
</trkpt>
<trkpt lat="33.8099048" lon="-118.394786">
  <ele>-25.015</ele>
  <time>2026-09-01T01:14:14Z</time>
  <course>334.14</course>
  <speed>0.9660227740586658</speed>
  <fix>3d</fix>
</trkpt>
<trkpt lat="33.8099054" lon="-118.3947851">
  <ele>-24.4</ele>
  <time>2026-09-01T01:14:14Z</time>
  <course>244.19</course>
  <speed>0.99</speed>
  <fix>3d</fix>
</trkpt>
<trkpt lat="33.8099044" lon="-118.394787">
  <ele>-25.015</ele>
  <time>2026-09-01T01:14:14Z</time>
  <course>334.25</course>
  <speed>0.9660227740586658</speed>
  <fix>3d</fix>
</trkpt>
<trkpt lat="33.8099054" lon="-118.3947851">
  <ele>-24.4</ele>
  <time>2026-09-01T01:14:14Z</time>
  <course>244.19</course>
  <speed>0.99</speed>
  <fix>3d</fix>
</trkpt>
<trkpt lat="33.809904" lon="-118.394788">
  <ele>-25.014</ele>
  <time>2026-09-01T01:14:14Z</time>
  <course>334.37</course>
  <speed>0.9615092303249095</speed>
  <fix>3d</fix>
</trkpt>
<trkpt lat="33.8099046" lon="-118.394787">
  <ele>-24.4</ele>
  <time>2026-09-01T01:14:14Z</time>
  <course>244.37</course>
  <speed>0.99</speed>
  <fix>3d</fix>
</trkpt>
<trkpt lat="33.8099036" lon="-118.394789">
  <ele>-25.013</ele>
  <time>2026-09-01T01:14:14Z</time>
  <course>334.48</course>
  <speed>0.9615092303249095</speed>
  <fix>3d</fix>
</trkpt>
<trkpt lat="33.8099046" lon="-118.394787">
  <ele>-24.4</ele>
  <time>2026-09-01T01:14:14Z</time>
  <course>244.37</course>
  <speed>0.99</speed>
  <fix>3d</fix>
</trkpt>
<trkpt lat="33.8099032" lon="-118.3947899">
  <ele>-25.012</ele>
  <time>2026-09-01T01:14:14Z</time>
  <course>334.6</course>
  <speed>0.9615092303249095</speed>
  <fix>3d</fix>
</trkpt>
<trkpt lat="33.8099038" lon="-118.3947889">
  <ele>-24.4</ele>
  <time>2026-09-01T01:14:14Z</time>
  <course>244.57</course>
  <speed>0.99</speed>
  <fix>3d</fix>
</trkpt>
<trkpt lat="33.8099029" lon="-118.3947909">
  <ele>-25.012</ele>
  <time>2026-09-01T01:14:14Z</time>
  <course>334.71</course>
  <speed>0.9704638066409278</speed>
  <fix>3d</fix>
</trkpt>
<trkpt lat="33.8099038" lon="-118.3947889">
  <ele>-24.4</ele>
  <time>2026-09-01T01:14:14Z</time>
  <course>244.57</course>
  <speed>0.99</speed>
  <fix>3d</fix>
</trkpt>
<trkpt lat="33.8099025" lon="-118.3947919">
  <ele>-25.012</ele>
  <time>2026-09-01T01:14:14Z</time>
  <course>334.83</course>
  <speed>0.9704638066409278</speed>
  <fix>3d</fix>
</trkpt>
<trkpt lat="33.8099031" lon="-118.3947909">
  <ele>-24.4</ele>
  <time>2026-09-01T01:14:14Z</time>
  <course>244.82</course>
  <speed>0.99</speed>
  <fix>3d</fix>
</trkpt>
<trkpt lat="33.8099021" lon="-118.3947929">
  <ele>-25.012</ele>
  <time>2026-09-01T01:14:14Z</time>
  <course>334.95</course>
  <speed>0.9704638066409278</speed>
  <fix>3d</fix>
</trkpt>
<trkpt lat="33.8099031" lon="-118.3947909">
  <ele>-24.4</ele>
  <time>2026-09-01T01:14:14Z</time>
  <course>244.82</course>
  <speed>0.99</speed>
  <fix>3d</fix>
</trkpt>
<trkpt lat="33.8099017" lon="-118.3947938">
  <ele>-25.013</ele>
  <time>2026-09-01T01:14:14Z</time>
  <course>335.06</course>
  <speed>0.9660745312862771</speed>
  <fix>3d</fix>
</trkpt>
<trkpt lat="33.8099023" lon="-118.3947929">
  <ele>-24.4</ele>
  <time>2026-09-01T01:14:14Z</time>
  <course>245.07</course>
  <speed>0.99</speed>
  <fix>3d</fix>
</trkpt>
<trkpt lat="33.8099013" lon="-118.3947948">
  <ele>-25.013</ele>
  <time>2026-09-01T01:14:14Z</time>
  <course>335.17</course>
  <speed>0.9660745312862771</speed>
  <fix>3d</fix>
</trkpt>
<trkpt lat="33.8099023" lon="-118.3947929">
  <ele>-24.4</ele>
  <time>2026-09-01T01:14:14Z</time>
  <course>245.07</course>
  <speed>0.99</speed>
  <fix>3d</fix>
</trkpt>
<trkpt lat="33.809901" lon="-118.3947958">
  <ele>-25.013</ele>
  <time>2026-09-01T01:14:14Z</time>
  <course>335.28</course>
  <speed>0.9660745312862771</speed>
  <fix>3d</fix>
</trkpt>
<trkpt lat="33.8099016" lon="-118.3947948">
  <ele>-24.4</ele>
  <time>2026-09-01T01:14:14Z</time>
  <course>245.29</course>
  <speed>1.0</speed>
  <fix>3d</fix>
</trkpt>
<trkpt lat="33.8099006" lon="-118.3947968">
  <ele>-25.013</ele>
  <time>2026-09-01T01:14:14Z</time>
  <course>335.4</course>
  <speed>0.9660745312862771</speed>
  <fix>3d</fix>
</trkpt>
<trkpt lat="33.8099016" lon="-118.3947948">
  <ele>-24.4</ele>
  <time>2026-09-01T01:14:14Z</time>
  <course>245.29</course>
  <speed>1.0</speed>
  <fix>3d</fix>
</trkpt>
<trkpt lat="33.8099002" lon="-118.3947978">
  <ele>-25.013</ele>
  <time>2026-09-01T01:14:14Z</time>
  <course>335.52</course>
  <speed>0.9750897394599124</speed>
  <fix>3d</fix>
</trkpt>
<trkpt lat="33.8099008" lon="-118.3947968">
  <ele>-24.4</ele>
  <time>2026-09-01T01:14:14Z</time>
  <course>245.51</course>
  <speed>1.0</speed>
  <fix>3d</fix>
</trkpt>
<trkpt lat="33.8098999" lon="-118.3947988">
  <ele>-25.013</ele>
  <time>2026-09-01T01:14:14Z</time>
  <course>335.63</course>
  <speed>0.9750897394599124</speed>
  <fix>3d</fix>
</trkpt>
<trkpt lat="33.8099008" lon="-118.3947968">
  <ele>-24.4</ele>
  <time>2026-09-01T01:14:14Z</time>
  <course>245.51</course>
  <speed>1.0</speed>
  <fix>3d</fix>
</trkpt>
<trkpt lat="33.8098995" lon="-118.3947997">
  <ele>-25.013</ele>
  <time>2026-09-01T01:14:14Z</time>
  <course>335.74</course>
  <speed>0.9750897394599124</speed>
  <fix>3d</fix>
</trkpt>
<trkpt lat="33.8099" lon="-118.3947988">
  <ele>-24.4</ele>
  <time>2026-09-01T01:14:14Z</time>
  <course>245.72</course>
  <speed>1.0</speed>
  <fix>3d</fix>
</trkpt>
<trkpt lat="33.8098991" lon="-118.3948007">
  <ele>-25.014</ele>
  <time>2026-09-01T01:14:14Z</time>
  <course>335.86</course>
  <speed>0.97082439194738</speed>
  <fix>3d</fix>
</trkpt>
<trkpt lat="33.8099" lon="-118.3947988">
  <ele>-24.4</ele>
  <time>2026-09-01T01:14:14Z</time>
  <course>245.72</course>
  <speed>1.0</speed>
  <fix>3d</fix>
</trkpt>
<trkpt lat="33.8098988" lon="-118.3948017">
  <ele>-25.013</ele>
  <time>2026-09-01T01:14:14Z</time>
  <course>335.98</course>
  <speed>0.97082439194738</speed>
  <fix>3d</fix>
</trkpt>
<trkpt lat="33.8098993" lon="-118.3948008">
  <ele>-24.4</ele>
  <time>2026-09-01T01:14:14Z</time>
  <course>245.96</course>
  <speed>1.0</speed>
  <fix>3d</fix>
</trkpt>
<trkpt lat="33.8098984" lon="-118.3948027">
  <ele>-25.012</ele>
  <time>2026-09-01T01:14:14Z</time>
  <course>336.09</course>
  <speed>0.97082439194738</speed>
  <fix>3d</fix>
</trkpt>
<trkpt lat="33.8098993" lon="-118.3948008">
  <ele>-24.4</ele>
  <time>2026-09-01T01:14:14Z</time>
  <course>245.96</course>
  <speed>1.0</speed>
  <fix>3d</fix>
</trkpt>
<trkpt lat="33.809898" lon="-118.3948037">
  <ele>-25.011</ele>
  <time>2026-09-01T01:14:14Z</time>
  <course>336.2</course>
  <speed>0.97082439194738</speed>
  <fix>3d</fix>
</trkpt>
<trkpt lat="33.8098986" lon="-118.3948027">
  <ele>-24.4</ele>
  <time>2026-09-01T01:14:14Z</time>
  <course>246.22</course>
  <speed>1.0</speed>
  <fix>3d</fix>
</trkpt>
<trkpt lat="33.8098977" lon="-118.3948047">
  <ele>-25.01</ele>
  <time>2026-09-01T01:14:14Z</time>
  <course>336.32</course>
  <speed>0.9666436778875658</speed>
  <fix>3d</fix>
</trkpt>
<trkpt lat="33.8098986" lon="-118.3948027">
  <ele>-24.4</ele>
  <time>2026-09-01T01:14:14Z</time>
  <course>246.22</course>
  <speed>1.0</speed>
  <fix>3d</fix>
</trkpt>
<trkpt lat="33.8098973" lon="-118.3948057">
  <ele>-25.01</ele>
  <time>2026-09-01T01:14:14Z</time>
  <course>336.43</course>
  <speed>0.9666436778875658</speed>
  <fix>3d</fix>
</trkpt>
<trkpt lat="33.8098978" lon="-118.3948047">
  <ele>-24.4</ele>
  <time>2026-09-01T01:14:14Z</time>
  <course>246.48</course>
  <speed>1.0</speed>
  <fix>3d</fix>
</trkpt>
<trkpt lat="33.809897" lon="-118.3948067">
  <ele>-25.01</ele>
  <time>2026-09-01T01:14:14Z</time>
  <course>336.55</course>
  <speed>0.9666436778875658</speed>
  <fix>3d</fix>
</trkpt>
<trkpt lat="33.8098978" lon="-118.3948047">
  <ele>-24.4</ele>
  <time>2026-09-01T01:14:14Z</time>
  <course>246.48</course>
  <speed>1.0</speed>
  <fix>3d</fix>
</trkpt>
<trkpt lat="33.8098966" lon="-118.3948077">
  <ele>-25.012</ele>
  <time>2026-09-01T01:14:14Z</time>
  <course>336.66</course>
  <speed>0.9666436778875658</speed>
  <fix>3d</fix>
</trkpt>
<trkpt lat="33.8098971" lon="-118.3948067">
  <ele>-24.4</ele>
  <time>2026-09-01T01:14:14Z</time>
  <course>246.76</course>
  <speed>1.0</speed>
  <fix>3d</fix>
</trkpt>
<trkpt lat="33.8098963" lon="-118.3948087">
  <ele>-25.013</ele>
  <time>2026-09-01T01:14:14Z</time>
  <course>336.78</course>
  <speed>0.9757561170702442</speed>
  <fix>3d</fix>
</trkpt>
<trkpt lat="33.8098971" lon="-118.3948067">
  <ele>-24.4</ele>
  <time>2026-09-01T01:14:14Z</time>
  <course>246.76</course>
  <speed>1.0</speed>
  <fix>3d</fix>
</trkpt>
<trkpt lat="33.8098959" lon="-118.3948097">
  <ele>-25.014</ele>
  <time>2026-09-01T01:14:14Z</time>
  <course>336.89</course>
  <speed>0.9716995420396163</speed>
  <fix>3d</fix>
</trkpt>
<trkpt lat="33.8098964" lon="-118.3948087">
  <ele>-24.4</ele>
  <time>2026-09-01T01:14:14Z</time>
  <course>247.07</course>
  <speed>1.0</speed>
  <fix>3d</fix>
</trkpt>
<trkpt lat="33.8098956" lon="-118.3948107">
  <ele>-25.014</ele>
  <time>2026-09-01T01:14:14Z</time>
  <course>337.01</course>
  <speed>0.9716995420396163</speed>
  <fix>3d</fix>
</trkpt>
<trkpt lat="33.8098964" lon="-118.3948087">
  <ele>-24.4</ele>
  <time>2026-09-01T01:14:14Z</time>
  <course>247.07</course>
  <speed>1.0</speed>
  <fix>3d</fix>
</trkpt>
<trkpt lat="33.8098952" lon="-118.3948117">
  <ele>-25.014</ele>
  <time>2026-09-01T01:14:14Z</time>
  <course>337.12</course>
  <speed>0.9716995420396163</speed>
  <fix>3d</fix>
</trkpt>
<trkpt lat="33.8098957" lon="-118.3948107">
  <ele>-24.4</ele>
  <time>2026-09-01T01:14:14Z</time>
  <course>247.36</course>
  <speed>1.0</speed>
  <fix>3d</fix>
</trkpt>
<trkpt lat="33.8098949" lon="-118.3948127">
  <ele>-25.014</ele>
  <time>2026-09-01T01:14:14Z</time>
  <course>337.24</course>
  <speed>0.9716995420396163</speed>
  <fix>3d</fix>
</trkpt>
<trkpt lat="33.8098957" lon="-118.3948107">
  <ele>-24.4</ele>
  <time>2026-09-01T01:14:14Z</time>
  <course>247.36</course>
  <speed>1.0</speed>
  <fix>3d</fix>
</trkpt>
<trkpt lat="33.8098945" lon="-118.3948137">
  <ele>-25.013</ele>
  <time>2026-09-01T01:14:14Z</time>
  <course>337.35</course>
  <speed>0.9677293009927931</speed>
  <fix>3d</fix>
</trkpt>
<trkpt lat="33.809895" lon="-118.3948127">
  <ele>-24.4</ele>
  <time>2026-09-01T01:14:14Z</time>
  <course>247.63</course>
  <speed>1.0</speed>
  <fix>3d</fix>
</trkpt>
<trkpt lat="33.8098942" lon="-118.3948147">
  <ele>-25.011</ele>
  <time>2026-09-01T01:14:14Z</time>
  <course>337.46</course>
  <speed>0.9677293009927931</speed>
  <fix>3d</fix>
</trkpt>
<trkpt lat="33.809895" lon="-118.3948127">
  <ele>-24.4</ele>
  <time>2026-09-01T01:14:14Z</time>
  <course>247.63</course>
  <speed>1.0</speed>
  <fix>3d</fix>
</trkpt>
<trkpt lat="33.8098938" lon="-118.3948157">
  <ele>-25.008</ele>
  <time>2026-09-01T01:14:14Z</time>
  <course>337.58</course>
  <speed>0.9677293009927931</speed>
  <fix>3d</fix>
</trkpt>
<trkpt lat="33.8098944" lon="-118.3948147">
  <ele>-24.4</ele>
  <time>2026-09-01T01:14:14Z</time>
  <course>247.88</course>
  <speed>1.0</speed>
  <fix>3d</fix>
</trkpt>
<trkpt lat="33.8098935" lon="-118.3948167">
  <ele>-25.008</ele>
  <time>2026-09-01T01:14:14Z</time>
  <course>337.69</course>
  <speed>0.9677293009927931</speed>
  <fix>3d</fix>
</trkpt>
<trkpt lat="33.8098944" lon="-118.3948147">
  <ele>-24.4</ele>
  <time>2026-09-01T01:14:14Z</time>
  <course>247.88</course>
  <speed>1.0</speed>
  <fix>3d</fix>
</trkpt>
<trkpt lat="33.8098932" lon="-118.3948177">
  <ele>-25.009</ele>
  <time>2026-09-01T01:14:14Z</time>
  <course>337.81</course>
  <speed>0.9677293009927931</speed>
  <fix>3d</fix>
</trkpt>
<trkpt lat="33.8098937" lon="-118.3948167">
  <ele>-24.4</ele>
  <time>2026-09-01T01:14:14Z</time>
  <course>248.08</course>
  <speed>1.0</speed>
  <fix>3d</fix>
</trkpt>
<trkpt lat="33.8098928" lon="-118.3948187">
  <ele>-25.012</ele>
  <time>2026-09-01T01:14:14Z</time>
  <course>337.92</course>
  <speed>0.9677293009927931</speed>
  <fix>3d</fix>
</trkpt>
<trkpt lat="33.8098937" lon="-118.3948167">
  <ele>-24.4</ele>
  <time>2026-09-01T01:14:14Z</time>
  <course>248.08</course>
  <speed>1.0</speed>
  <fix>3d</fix>
</trkpt>
<trkpt lat="33.8098925" lon="-118.3948197">
  <ele>-25.014</ele>
  <time>2026-09-01T01:14:14Z</time>
  <course>338.04</course>
  <speed>0.9677293009927931</speed>
  <fix>3d</fix>
</trkpt>
<trkpt lat="33.809893" lon="-118.3948188">
  <ele>-24.41</ele>
  <time>2026-09-01T01:14:14Z</time>
  <course>248.24</course>
  <speed>1.0</speed>
  <fix>3d</fix>
</trkpt>
<trkpt lat="33.8098922" lon="-118.3948207">
  <ele>-25.015</ele>
  <time>2026-09-01T01:14:14Z</time>
  <course>338.16</course>
  <speed>0.9677293009927931</speed>
  <fix>3d</fix>
</trkpt>
<trkpt lat="33.809893" lon="-118.3948188">
  <ele>-24.41</ele>
  <time>2026-09-01T01:14:14Z</time>
  <course>248.24</course>
  <speed>1.0</speed>
  <fix>3d</fix>
</trkpt>
<trkpt lat="33.8098918" lon="-118.3948217">
  <ele>-25.016</ele>
  <time>2026-09-01T01:14:14Z</time>
  <course>338.27</course>
  <speed>0.9638464608017192</speed>
  <fix>3d</fix>
</trkpt>
<trkpt lat="33.8098923" lon="-118.3948208">
  <ele>-24.41</ele>
  <time>2026-09-01T01:14:14Z</time>
  <course>248.41</course>
  <speed>1.0</speed>
  <fix>3d</fix>
</trkpt>
<trkpt lat="33.8098915" lon="-118.3948227">
  <ele>-25.017</ele>
  <time>2026-09-01T01:14:14Z</time>
  <course>338.38</course>
  <speed>0.9638464608017192</speed>
  <fix>3d</fix>
</trkpt>
<trkpt lat="33.8098923" lon="-118.3948208">
  <ele>-24.41</ele>
  <time>2026-09-01T01:14:14Z</time>
  <course>248.41</course>
  <speed>1.0</speed>
  <fix>3d</fix>
</trkpt>
<trkpt lat="33.8098912" lon="-118.3948237">
  <ele>-25.016</ele>
  <time>2026-09-01T01:14:14Z</time>
  <course>338.49</course>
  <speed>0.9638464608017192</speed>
  <fix>3d</fix>
</trkpt>
<trkpt lat="33.8098917" lon="-118.3948227">
  <ele>-24.41</ele>
  <time>2026-09-01T01:14:14Z</time>
  <course>248.6</course>
  <speed>1.0</speed>
  <fix>3d</fix>
</trkpt>
<trkpt lat="33.8098909" lon="-118.3948247">
  <ele>-25.017</ele>
  <time>2026-09-01T01:14:14Z</time>
  <course>338.61</course>
  <speed>0.9638464608017192</speed>
  <fix>3d</fix>
</trkpt>
<trkpt lat="33.8098917" lon="-118.3948227">
  <ele>-24.41</ele>
  <time>2026-09-01T01:14:14Z</time>
  <course>248.6</course>
  <speed>1.0</speed>
  <fix>3d</fix>
</trkpt>
<trkpt lat="33.8098905" lon="-118.3948258">
  <ele>-25.017</ele>
  <time>2026-09-01T01:14:14Z</time>
  <course>338.73</course>
  <speed>0.9730878685915265</speed>
  <fix>3d</fix>
</trkpt>
<trkpt lat="33.8098911" lon="-118.3948248">
  <ele>-24.41</ele>
  <time>2026-09-01T01:14:14Z</time>
  <course>248.83</course>
  <speed>1.0</speed>
  <fix>3d</fix>
</trkpt>
<trkpt lat="33.8098902" lon="-118.3948268">
  <ele>-25.017</ele>
  <time>2026-09-01T01:14:14Z</time>
  <course>338.84</course>
  <speed>0.9693296652842107</speed>
  <fix>3d</fix>
</trkpt>
<trkpt lat="33.8098911" lon="-118.3948248">
  <ele>-24.41</ele>
  <time>2026-09-01T01:14:14Z</time>
  <course>248.83</course>
  <speed>1.0</speed>
  <fix>3d</fix>
</trkpt>
<trkpt lat="33.8098899" lon="-118.3948278">
  <ele>-25.016</ele>
  <time>2026-09-01T01:14:14Z</time>
  <course>338.96</course>
  <speed>0.9693296652842107</speed>
  <fix>3d</fix>
</trkpt>
<trkpt lat="33.8098904" lon="-118.3948268">
  <ele>-24.41</ele>
  <time>2026-09-01T01:14:14Z</time>
  <course>249.03</course>
  <speed>1.0</speed>
  <fix>3d</fix>
</trkpt>
<trkpt lat="33.8098896" lon="-118.3948288">
  <ele>-25.016</ele>
  <time>2026-09-01T01:14:14Z</time>
  <course>339.07</course>
  <speed>0.9693296652842107</speed>
  <fix>3d</fix>
</trkpt>
<trkpt lat="33.8098904" lon="-118.3948268">
  <ele>-24.41</ele>
  <time>2026-09-01T01:14:14Z</time>
  <course>249.03</course>
  <speed>1.0</speed>
  <fix>3d</fix>
</trkpt>
<trkpt lat="33.8098893" lon="-118.3948298">
  <ele>-25.015</ele>
  <time>2026-09-01T01:14:14Z</time>
  <course>339.18</course>
  <speed>0.9693296652842107</speed>
  <fix>3d</fix>
</trkpt>
<trkpt lat="33.8098897" lon="-118.3948288">
  <ele>-24.41</ele>
  <time>2026-09-01T01:14:14Z</time>
  <course>249.2</course>
  <speed>1.0</speed>
  <fix>3d</fix>
</trkpt>
<trkpt lat="33.8098889" lon="-118.3948308">
  <ele>-25.015</ele>
  <time>2026-09-01T01:14:14Z</time>
  <course>339.3</course>
  <speed>0.9693296652842107</speed>
  <fix>3d</fix>
</trkpt>
<trkpt lat="33.8098897" lon="-118.3948288">
  <ele>-24.41</ele>
  <time>2026-09-01T01:14:14Z</time>
  <course>249.2</course>
  <speed>1.0</speed>
  <fix>3d</fix>
</trkpt>
<trkpt lat="33.8098886" lon="-118.3948318">
  <ele>-25.015</ele>
  <time>2026-09-01T01:14:14Z</time>
  <course>339.42</course>
  <speed>0.9656603957913983</speed>
  <fix>3d</fix>
</trkpt>
<trkpt lat="33.8098891" lon="-118.3948309">
  <ele>-24.41</ele>
  <time>2026-09-01T01:14:14Z</time>
  <course>249.45</course>
  <speed>1.0</speed>
  <fix>3d</fix>
</trkpt>
<trkpt lat="33.8098883" lon="-118.3948328">
  <ele>-25.016</ele>
  <time>2026-09-01T01:14:14Z</time>
  <course>339.53</course>
  <speed>0.9656603957913983</speed>
  <fix>3d</fix>
</trkpt>
<trkpt lat="33.8098891" lon="-118.3948309">
  <ele>-24.41</ele>
  <time>2026-09-01T01:14:14Z</time>
  <course>249.45</course>
  <speed>1.0</speed>
  <fix>3d</fix>
</trkpt>
<trkpt lat="33.809888" lon="-118.3948339">
  <ele>-25.016</ele>
  <time>2026-09-01T01:14:14Z</time>
  <course>339.64</course>
  <speed>0.9656603957913983</speed>
  <fix>3d</fix>
</trkpt>
<trkpt lat="33.8098885" lon="-118.3948329">
  <ele>-24.41</ele>
  <time>2026-09-01T01:14:14Z</time>
  <course>249.73</course>
  <speed>0.99</speed>
  <fix>3d</fix>
</trkpt>
<trkpt lat="33.8098877" lon="-118.3948349">
  <ele>-25.017</ele>
  <time>2026-09-01T01:14:14Z</time>
  <course>339.76</course>
  <speed>0.9656603957913983</speed>
  <fix>3d</fix>
</trkpt>
<trkpt lat="33.8098885" lon="-118.3948329">
  <ele>-24.41</ele>
  <time>2026-09-01T01:14:14Z</time>
  <course>249.73</course>
  <speed>0.99</speed>
  <fix>3d</fix>
</trkpt>
<trkpt lat="33.8098874" lon="-118.3948359">
  <ele>-25.017</ele>
  <time>2026-09-01T01:14:14Z</time>
  <course>339.87</course>
  <speed>0.9656603957913983</speed>
  <fix>3d</fix>
</trkpt>
<trkpt lat="33.8098878" lon="-118.3948349">
  <ele>-24.41</ele>
  <time>2026-09-01T01:14:14Z</time>
  <course>249.97</course>
  <speed>0.99</speed>
  <fix>3d</fix>
</trkpt>
<trkpt lat="33.8098871" lon="-118.3948369">
  <ele>-25.016</ele>
  <time>2026-09-01T01:14:14Z</time>
  <course>339.99</course>
  <speed>0.9656603957913983</speed>
  <fix>3d</fix>
</trkpt>
<trkpt lat="33.8098878" lon="-118.3948349">
  <ele>-24.41</ele>
  <time>2026-09-01T01:14:14Z</time>
  <course>249.97</course>
  <speed>0.99</speed>
  <fix>3d</fix>
</trkpt>
<trkpt lat="33.8098868" lon="-118.3948379">
  <ele>-25.015</ele>
  <time>2026-09-01T01:14:14Z</time>
  <course>340.1</course>
  <speed>0.9620810776644555</speed>
  <fix>3d</fix>
</trkpt>
<trkpt lat="33.8098873" lon="-118.3948369">
  <ele>-24.4</ele>
  <time>2026-09-01T01:14:14Z</time>
  <course>250.21</course>
  <speed>0.99</speed>
  <fix>3d</fix>
</trkpt>
<trkpt lat="33.8098865" lon="-118.3948389">
  <ele>-25.013</ele>
  <time>2026-09-01T01:14:14Z</time>
  <course>340.21</course>
  <speed>0.9620810776644555</speed>
  <fix>3d</fix>
</trkpt>
<trkpt lat="33.8098873" lon="-118.3948369">
  <ele>-24.4</ele>
  <time>2026-09-01T01:14:14Z</time>
  <course>250.21</course>
  <speed>0.99</speed>
  <fix>3d</fix>
</trkpt>
<trkpt lat="33.8098862" lon="-118.39484">
  <ele>-25.012</ele>
  <time>2026-09-01T01:14:14Z</time>
  <course>340.33</course>
  <speed>0.9714422267947797</speed>
  <fix>3d</fix>
</trkpt>
<trkpt lat="33.8098866" lon="-118.394839">
  <ele>-24.4</ele>
  <time>2026-09-01T01:14:14Z</time>
  <course>250.45</course>
  <speed>0.99</speed>
  <fix>3d</fix>
</trkpt>
<trkpt lat="33.8098859" lon="-118.394841">
  <ele>-25.011</ele>
  <time>2026-09-01T01:14:14Z</time>
  <course>340.44</course>
  <speed>0.9714422267947797</speed>
  <fix>3d</fix>
</trkpt>
<trkpt lat="33.8098866" lon="-118.394839">
  <ele>-24.4</ele>
  <time>2026-09-01T01:14:14Z</time>
  <course>250.45</course>
  <speed>0.99</speed>
  <fix>3d</fix>
</trkpt>
<trkpt lat="33.8098856" lon="-118.394842">
  <ele>-25.01</ele>
  <time>2026-09-01T01:14:14Z</time>
  <course>340.56</course>
  <speed>0.9714422267947797</speed>
  <fix>3d</fix>
</trkpt>
<trkpt lat="33.8098861" lon="-118.3948409">
  <ele>-24.4</ele>
  <time>2026-09-01T01:14:14Z</time>
  <course>250.67</course>
  <speed>0.99</speed>
  <fix>3d</fix>
</trkpt>
<trkpt lat="33.8098853" lon="-118.394843">
  <ele>-25.01</ele>
  <time>2026-09-01T01:14:14Z</time>
  <course>340.67</course>
  <speed>0.9679876032264049</speed>
  <fix>3d</fix>
</trkpt>
<trkpt lat="33.8098861" lon="-118.3948409">
  <ele>-24.4</ele>
  <time>2026-09-01T01:14:14Z</time>
  <course>250.67</course>
  <speed>0.99</speed>
  <fix>3d</fix>
</trkpt>
<trkpt lat="33.809885" lon="-118.394844">
  <ele>-25.009</ele>
  <time>2026-09-01T01:14:14Z</time>
  <course>340.79</course>
  <speed>0.9679876032264049</speed>
  <fix>3d</fix>
</trkpt>
<trkpt lat="33.8098854" lon="-118.394843">
  <ele>-24.4</ele>
  <time>2026-09-01T01:14:14Z</time>
  <course>250.89</course>
  <speed>0.99</speed>
  <fix>3d</fix>
</trkpt>
<trkpt lat="33.8098847" lon="-118.3948451">
  <ele>-25.01</ele>
  <time>2026-09-01T01:14:14Z</time>
  <course>340.9</course>
  <speed>0.9679876032264049</speed>
  <fix>3d</fix>
</trkpt>
<trkpt lat="33.8098854" lon="-118.394843">
  <ele>-24.4</ele>
  <time>2026-09-01T01:14:14Z</time>
  <course>250.89</course>
  <speed>0.99</speed>
  <fix>3d</fix>
</trkpt>
<trkpt lat="33.8098844" lon="-118.3948461">
  <ele>-25.012</ele>
  <time>2026-09-01T01:14:14Z</time>
  <course>341.02</course>
  <speed>0.9679876032264049</speed>
  <fix>3d</fix>
</trkpt>
<trkpt lat="33.8098849" lon="-118.3948451">
  <ele>-24.4</ele>
  <time>2026-09-01T01:14:14Z</time>
  <course>251.13</course>
  <speed>1.0</speed>
  <fix>3d</fix>
</trkpt>
<trkpt lat="33.8098841" lon="-118.3948471">
  <ele>-25.014</ele>
  <time>2026-09-01T01:14:14Z</time>
  <course>341.13</course>
  <speed>0.9679876032264049</speed>
  <fix>3d</fix>
</trkpt>
<trkpt lat="33.8098849" lon="-118.3948451">
  <ele>-24.4</ele>
  <time>2026-09-01T01:14:14Z</time>
  <course>251.13</course>
  <speed>1.0</speed>
  <fix>3d</fix>
</trkpt>
<trkpt lat="33.8098838" lon="-118.3948481">
  <ele>-25.016</ele>
  <time>2026-09-01T01:14:14Z</time>
  <course>341.25</course>
  <speed>0.9679876032264049</speed>
  <fix>3d</fix>
</trkpt>
<trkpt lat="33.8098843" lon="-118.3948471">
  <ele>-24.41</ele>
  <time>2026-09-01T01:14:14Z</time>
  <course>251.38</course>
  <speed>1.0</speed>
  <fix>3d</fix>
</trkpt>
<trkpt lat="33.8098836" lon="-118.3948492">
  <ele>-25.017</ele>
  <time>2026-09-01T01:14:14Z</time>
  <course>341.36</course>
  <speed>0.9646242791885347</speed>
  <fix>3d</fix>
</trkpt>
<trkpt lat="33.8098843" lon="-118.3948471">
  <ele>-24.41</ele>
  <time>2026-09-01T01:14:14Z</time>
  <course>251.38</course>
  <speed>1.0</speed>
  <fix>3d</fix>
</trkpt>
<trkpt lat="33.8098833" lon="-118.3948502">
  <ele>-25.017</ele>
  <time>2026-09-01T01:14:14Z</time>
  <course>341.47</course>
  <speed>0.9646242791885347</speed>
  <fix>3d</fix>
</trkpt>
<trkpt lat="33.8098837" lon="-118.3948492">
  <ele>-24.41</ele>
  <time>2026-09-01T01:14:14Z</time>
  <course>251.58</course>
  <speed>1.0</speed>
  <fix>3d</fix>
</trkpt>
<trkpt lat="33.809883" lon="-118.3948512">
  <ele>-25.018</ele>
  <time>2026-09-01T01:14:14Z</time>
  <course>341.59</course>
  <speed>0.9646242791885347</speed>
  <fix>3d</fix>
</trkpt>
<trkpt lat="33.8098837" lon="-118.3948492">
  <ele>-24.41</ele>
  <time>2026-09-01T01:14:14Z</time>
  <course>251.58</course>
  <speed>1.0</speed>
  <fix>3d</fix>
</trkpt>
<trkpt lat="33.8098827" lon="-118.3948523">
  <ele>-25.016</ele>
  <time>2026-09-01T01:14:14Z</time>
  <course>341.7</course>
  <speed>0.9740636529508737</speed>
  <fix>3d</fix>
</trkpt>
<trkpt lat="33.8098832" lon="-118.3948512">
  <ele>-24.41</ele>
  <time>2026-09-01T01:14:14Z</time>
  <course>251.8</course>
  <speed>0.99</speed>
  <fix>3d</fix>
</trkpt>
<trkpt lat="33.8098824" lon="-118.3948533">
  <ele>-25.014</ele>
  <time>2026-09-01T01:14:14Z</time>
  <course>341.82</course>
  <speed>0.9740636529508737</speed>
  <fix>3d</fix>
</trkpt>
<trkpt lat="33.8098832" lon="-118.3948512">
  <ele>-24.41</ele>
  <time>2026-09-01T01:14:14Z</time>
  <course>251.8</course>
  <speed>0.99</speed>
  <fix>3d</fix>
</trkpt>
<trkpt lat="33.8098822" lon="-118.3948543">
  <ele>-25.012</ele>
  <time>2026-09-01T01:14:14Z</time>
  <course>341.94</course>
  <speed>0.97082439194738</speed>
  <fix>3d</fix>
</trkpt>
<trkpt lat="33.8098826" lon="-118.3948533">
  <ele>-24.41</ele>
  <time>2026-09-01T01:14:14Z</time>
  <course>252.01</course>
  <speed>0.99</speed>
  <fix>3d</fix>
</trkpt>
<trkpt lat="33.8098819" lon="-118.3948553">
  <ele>-25.012</ele>
  <time>2026-09-01T01:14:14Z</time>
  <course>342.05</course>
  <speed>0.97082439194738</speed>
  <fix>3d</fix>
</trkpt>
<trkpt lat="33.8098826" lon="-118.3948533">
  <ele>-24.41</ele>
  <time>2026-09-01T01:14:14Z</time>
  <course>252.01</course>
  <speed>0.99</speed>
  <fix>3d</fix>
</trkpt>
<trkpt lat="33.8098816" lon="-118.3948564">
  <ele>-25.011</ele>
  <time>2026-09-01T01:14:14Z</time>
  <course>342.16</course>
  <speed>0.97082439194738</speed>
  <fix>3d</fix>
</trkpt>
<trkpt lat="33.809882" lon="-118.3948553">
  <ele>-24.4</ele>
  <time>2026-09-01T01:14:14Z</time>
  <course>252.2</course>
  <speed>0.99</speed>
  <fix>3d</fix>
</trkpt>
<trkpt lat="33.8098813" lon="-118.3948574">
  <ele>-25.011</ele>
  <time>2026-09-01T01:14:14Z</time>
  <course>342.28</course>
  <speed>0.97082439194738</speed>
  <fix>3d</fix>
</trkpt>
<trkpt lat="33.809882" lon="-118.3948553">
  <ele>-24.4</ele>
  <time>2026-09-01T01:14:14Z</time>
  <course>252.2</course>
  <speed>0.99</speed>
  <fix>3d</fix>
</trkpt>
<trkpt lat="33.8098811" lon="-118.3948584">
  <ele>-25.012</ele>
  <time>2026-09-01T01:14:14Z</time>
  <course>342.39</course>
  <speed>0.97082439194738</speed>
  <fix>3d</fix>
</trkpt>
<trkpt lat="33.8098815" lon="-118.3948574">
  <ele>-24.4</ele>
  <time>2026-09-01T01:14:14Z</time>
  <course>252.45</course>
  <speed>0.99</speed>
  <fix>3d</fix>
</trkpt>
<trkpt lat="33.8098808" lon="-118.3948595">
  <ele>-25.013</ele>
  <time>2026-09-01T01:14:14Z</time>
  <course>342.51</course>
  <speed>0.9676776322722356</speed>
  <fix>3d</fix>
</trkpt>
<trkpt lat="33.8098815" lon="-118.3948574">
  <ele>-24.4</ele>
  <time>2026-09-01T01:14:14Z</time>
  <course>252.45</course>
  <speed>0.99</speed>
  <fix>3d</fix>
</trkpt>
<trkpt lat="33.8098805" lon="-118.3948605">
  <ele>-25.015</ele>
  <time>2026-09-01T01:14:14Z</time>
  <course>342.62</course>
  <speed>0.9676776322722356</speed>
  <fix>3d</fix>
</trkpt>
<trkpt lat="33.809881" lon="-118.3948595">
  <ele>-24.41</ele>
  <time>2026-09-01T01:14:14Z</time>
  <course>252.71</course>
  <speed>0.99</speed>
  <fix>3d</fix>
</trkpt>
<trkpt lat="33.8098803" lon="-118.3948615">
  <ele>-25.016</ele>
  <time>2026-09-01T01:14:14Z</time>
  <course>342.73</course>
  <speed>0.9676776322722356</speed>
  <fix>3d</fix>
</trkpt>
<trkpt lat="33.809881" lon="-118.3948595">
  <ele>-24.41</ele>
  <time>2026-09-01T01:14:14Z</time>
  <course>252.71</course>
  <speed>0.99</speed>
  <fix>3d</fix>
</trkpt>
<trkpt lat="33.80988" lon="-118.3948626">
  <ele>-25.017</ele>
  <time>2026-09-01T01:14:14Z</time>
  <course>342.85</course>
  <speed>0.9676776322722356</speed>
  <fix>3d</fix>
</trkpt>
<trkpt lat="33.8098805" lon="-118.3948615">
  <ele>-24.41</ele>
  <time>2026-09-01T01:14:14Z</time>
  <course>252.91</course>
  <speed>0.99</speed>
  <fix>3d</fix>
</trkpt>
<trkpt lat="33.8098798" lon="-118.3948636">
  <ele>-25.018</ele>
  <time>2026-09-01T01:14:14Z</time>
  <course>342.96</course>
  <speed>0.9676776322722356</speed>
  <fix>3d</fix>
</trkpt>
<trkpt lat="33.8098805" lon="-118.3948615">
  <ele>-24.41</ele>
  <time>2026-09-01T01:14:14Z</time>
  <course>252.91</course>
  <speed>0.99</speed>
  <fix>3d</fix>
</trkpt>
<trkpt lat="33.8098795" lon="-118.3948646">
  <ele>-25.017</ele>
  <time>2026-09-01T01:14:14Z</time>
  <course>343.08</course>
  <speed>0.9676776322722356</speed>
  <fix>3d</fix>
</trkpt>
<trkpt lat="33.8098799" lon="-118.3948636">
  <ele>-24.41</ele>
  <time>2026-09-01T01:14:14Z</time>
  <course>253.05</course>
  <speed>0.99</speed>
  <fix>3d</fix>
</trkpt>
<trkpt lat="33.8098792" lon="-118.3948657">
  <ele>-25.016</ele>
  <time>2026-09-01T01:14:14Z</time>
  <course>343.2</course>
  <speed>0.9646242791885347</speed>
  <fix>3d</fix>
</trkpt>
<trkpt lat="33.8098799" lon="-118.3948636">
  <ele>-24.41</ele>
  <time>2026-09-01T01:14:14Z</time>
  <course>253.05</course>
  <speed>0.99</speed>
  <fix>3d</fix>
</trkpt>
<trkpt lat="33.809879" lon="-118.3948667">
  <ele>-25.015</ele>
  <time>2026-09-01T01:14:14Z</time>
  <course>343.31</course>
  <speed>0.9646242791885347</speed>
  <fix>3d</fix>
</trkpt>
<trkpt lat="33.8098794" lon="-118.3948656">
  <ele>-24.4</ele>
  <time>2026-09-01T01:14:14Z</time>
  <course>253.19</course>
  <speed>0.99</speed>
  <fix>3d</fix>
</trkpt>
<trkpt lat="33.8098787" lon="-118.3948678">
  <ele>-25.014</ele>
  <time>2026-09-01T01:14:14Z</time>
  <course>343.43</course>
  <speed>0.9646242791885347</speed>
  <fix>3d</fix>
</trkpt>
<trkpt lat="33.8098794" lon="-118.3948656">
  <ele>-24.4</ele>
  <time>2026-09-01T01:14:14Z</time>
  <course>253.19</course>
  <speed>0.99</speed>
  <fix>3d</fix>
</trkpt>
<trkpt lat="33.8098785" lon="-118.3948688">
  <ele>-25.012</ele>
  <time>2026-09-01T01:14:14Z</time>
  <course>343.54</course>
  <speed>0.9741663102366043</speed>
  <fix>3d</fix>
</trkpt>
<trkpt lat="33.8098789" lon="-118.3948677">
  <ele>-24.4</ele>
  <time>2026-09-01T01:14:14Z</time>
  <course>253.41</course>
  <speed>0.99</speed>
  <fix>3d</fix>
</trkpt>
<trkpt lat="33.8098782" lon="-118.3948698">
  <ele>-25.011</ele>
  <time>2026-09-01T01:14:14Z</time>
  <course>343.66</course>
  <speed>0.9741663102366043</speed>
  <fix>3d</fix>
</trkpt>
<trkpt lat="33.8098789" lon="-118.3948677">
  <ele>-24.4</ele>
  <time>2026-09-01T01:14:14Z</time>
  <course>253.41</course>
  <speed>0.99</speed>
  <fix>3d</fix>
</trkpt>
<trkpt lat="33.809878" lon="-118.3948709">
  <ele>-25.011</ele>
  <time>2026-09-01T01:14:14Z</time>
  <course>343.77</course>
  <speed>0.9712363255150623</speed>
  <fix>3d</fix>
</trkpt>
<trkpt lat="33.8098784" lon="-118.3948698">
  <ele>-24.4</ele>
  <time>2026-09-01T01:14:14Z</time>
  <course>253.67</course>
  <speed>0.99</speed>
  <fix>3d</fix>
</trkpt>
<trkpt lat="33.8098777" lon="-118.3948719">
  <ele>-25.011</ele>
  <time>2026-09-01T01:14:14Z</time>
  <course>343.89</course>
  <speed>0.9712363255150623</speed>
  <fix>3d</fix>
</trkpt>
<trkpt lat="33.8098784" lon="-118.3948698">
  <ele>-24.4</ele>
  <time>2026-09-01T01:14:14Z</time>
  <course>253.67</course>
  <speed>0.99</speed>
  <fix>3d</fix>
</trkpt>
<trkpt lat="33.8098775" lon="-118.3948729">
  <ele>-25.011</ele>
  <time>2026-09-01T01:14:15Z</time>
  <course>344.0</course>
  <speed>0.9712363255150623</speed>
  <fix>3d</fix>
</trkpt>
<trkpt lat="33.8098779" lon="-118.3948718">
  <ele>-24.4</ele>
  <time>2026-09-01T01:14:15Z</time>
  <course>253.9</course>
  <speed>0.99</speed>
  <fix>3d</fix>
</trkpt>
<trkpt lat="33.8098772" lon="-118.394874">
  <ele>-25.011</ele>
  <time>2026-09-01T01:14:15Z</time>
  <course>344.11</course>
  <speed>0.9712363255150623</speed>
  <fix>3d</fix>
</trkpt>
<trkpt lat="33.8098779" lon="-118.3948718">
  <ele>-24.4</ele>
  <time>2026-09-01T01:14:15Z</time>
  <course>253.9</course>
  <speed>0.99</speed>
  <fix>3d</fix>
</trkpt>
<trkpt lat="33.809877" lon="-118.394875">
  <ele>-25.011</ele>
  <time>2026-09-01T01:14:15Z</time>
  <course>344.23</course>
  <speed>0.9712363255150623</speed>
  <fix>3d</fix>
</trkpt>
<trkpt lat="33.8098774" lon="-118.3948739">
  <ele>-24.4</ele>
  <time>2026-09-01T01:14:15Z</time>
  <course>254.11</course>
  <speed>0.99</speed>
  <fix>3d</fix>
</trkpt>
<trkpt lat="33.8098768" lon="-118.3948761">
  <ele>-25.013</ele>
  <time>2026-09-01T01:14:15Z</time>
  <course>344.34</course>
  <speed>0.9684007434941384</speed>
  <fix>3d</fix>
</trkpt>
<trkpt lat="33.8098774" lon="-118.3948739">
  <ele>-24.4</ele>
  <time>2026-09-01T01:14:15Z</time>
  <course>254.11</course>
  <speed>0.99</speed>
  <fix>3d</fix>
</trkpt>
<trkpt lat="33.8098765" lon="-118.3948771">
  <ele>-25.014</ele>
  <time>2026-09-01T01:14:15Z</time>
  <course>344.45</course>
  <speed>0.9684007434941384</speed>
  <fix>3d</fix>
</trkpt>
<trkpt lat="33.8098769" lon="-118.394876">
  <ele>-24.4</ele>
  <time>2026-09-01T01:14:15Z</time>
  <course>254.34</course>
  <speed>0.99</speed>
  <fix>3d</fix>
</trkpt>
<trkpt lat="33.8098763" lon="-118.3948782">
  <ele>-25.014</ele>
  <time>2026-09-01T01:14:15Z</time>
  <course>344.57</course>
  <speed>0.9684007434941384</speed>
  <fix>3d</fix>
</trkpt>
<trkpt lat="33.8098769" lon="-118.394876">
  <ele>-24.4</ele>
  <time>2026-09-01T01:14:15Z</time>
  <course>254.34</course>
  <speed>0.99</speed>
  <fix>3d</fix>
</trkpt>
<trkpt lat="33.809876" lon="-118.3948792">
  <ele>-25.015</ele>
  <time>2026-09-01T01:14:15Z</time>
  <course>344.68</course>
  <speed>0.9684007434941384</speed>
  <fix>3d</fix>
</trkpt>
<trkpt lat="33.8098764" lon="-118.3948781">
  <ele>-24.41</ele>
  <time>2026-09-01T01:14:15Z</time>
  <course>254.57</course>
  <speed>0.99</speed>
  <fix>3d</fix>
</trkpt>
<trkpt lat="33.8098758" lon="-118.3948802">
  <ele>-25.015</ele>
  <time>2026-09-01T01:14:15Z</time>
  <course>344.8</course>
  <speed>0.9684007434941384</speed>
  <fix>3d</fix>
</trkpt>
<trkpt lat="33.8098764" lon="-118.3948781">
  <ele>-24.41</ele>
  <time>2026-09-01T01:14:15Z</time>
  <course>254.57</course>
  <speed>0.99</speed>
  <fix>3d</fix>
</trkpt>
<trkpt lat="33.8098756" lon="-118.3948813">
  <ele>-25.015</ele>
  <time>2026-09-01T01:14:15Z</time>
  <course>344.91</course>
  <speed>0.9752948272189288</speed>
  <fix>3d</fix>
</trkpt>
<trkpt lat="33.809876" lon="-118.3948801">
  <ele>-24.41</ele>
  <time>2026-09-01T01:14:15Z</time>
  <course>254.82</course>
  <speed>0.99</speed>
  <fix>3d</fix>
</trkpt>
<trkpt lat="33.8098753" lon="-118.3948823">
  <ele>-25.015</ele>
  <time>2026-09-01T01:14:15Z</time>
  <course>345.03</course>
  <speed>0.9752948272189288</speed>
  <fix>3d</fix>
</trkpt>
<trkpt lat="33.809876" lon="-118.3948801">
  <ele>-24.41</ele>
  <time>2026-09-01T01:14:15Z</time>
  <course>254.82</course>
  <speed>0.99</speed>
  <fix>3d</fix>
</trkpt>
<trkpt lat="33.8098751" lon="-118.3948834">
  <ele>-25.015</ele>
  <time>2026-09-01T01:14:15Z</time>
  <course>345.14</course>
  <speed>0.9752948272189288</speed>
  <fix>3d</fix>
</trkpt>
<trkpt lat="33.8098755" lon="-118.3948822">
  <ele>-24.41</ele>
  <time>2026-09-01T01:14:15Z</time>
  <course>255.06</course>
  <speed>0.99</speed>
  <fix>3d</fix>
</trkpt>
<trkpt lat="33.8098749" lon="-118.3948844">
  <ele>-25.014</ele>
  <time>2026-09-01T01:14:15Z</time>
  <course>345.26</course>
  <speed>0.9752948272189288</speed>
  <fix>3d</fix>
</trkpt>
<trkpt lat="33.8098755" lon="-118.3948822">
  <ele>-24.41</ele>
  <time>2026-09-01T01:14:15Z</time>
  <course>255.06</course>
  <speed>0.99</speed>
  <fix>3d</fix>
</trkpt>
<trkpt lat="33.8098747" lon="-118.3948855">
  <ele>-25.012</ele>
  <time>2026-09-01T01:14:15Z</time>
  <course>345.37</course>
  <speed>0.9752948272189288</speed>
  <fix>3d</fix>
</trkpt>
<trkpt lat="33.8098751" lon="-118.3948843">
  <ele>-24.41</ele>
  <time>2026-09-01T01:14:15Z</time>
  <course>255.28</course>
  <speed>0.99</speed>
  <fix>3d</fix>
</trkpt>
<trkpt lat="33.8098744" lon="-118.3948865">
  <ele>-25.01</ele>
  <time>2026-09-01T01:14:15Z</time>
  <course>345.48</course>
  <speed>0.9726767191621274</speed>
  <fix>3d</fix>
</trkpt>
<trkpt lat="33.8098751" lon="-118.3948843">
  <ele>-24.41</ele>
  <time>2026-09-01T01:14:15Z</time>
  <course>255.28</course>
  <speed>0.99</speed>
  <fix>3d</fix>
</trkpt>
<trkpt lat="33.8098742" lon="-118.3948876">
  <ele>-25.01</ele>
  <time>2026-09-01T01:14:15Z</time>
  <course>345.6</course>
  <speed>0.9726767191621274</speed>
  <fix>3d</fix>
</trkpt>
<trkpt lat="33.8098746" lon="-118.3948864">
  <ele>-24.41</ele>
  <time>2026-09-01T01:14:15Z</time>
  <course>255.48</course>
  <speed>0.99</speed>
  <fix>3d</fix>
</trkpt>
<trkpt lat="33.809874" lon="-118.3948886">
  <ele>-25.011</ele>
  <time>2026-09-01T01:14:15Z</time>
  <course>345.72</course>
  <speed>0.9726767191621274</speed>
  <fix>3d</fix>
</trkpt>
<trkpt lat="33.8098746" lon="-118.3948864">
  <ele>-24.41</ele>
  <time>2026-09-01T01:14:15Z</time>
  <course>255.48</course>
  <speed>0.99</speed>
  <fix>3d</fix>
</trkpt>
<trkpt lat="33.8098738" lon="-118.3948897">
  <ele>-25.013</ele>
  <time>2026-09-01T01:14:15Z</time>
  <course>345.83</course>
  <speed>0.9726767191621274</speed>
  <fix>3d</fix>
</trkpt>
<trkpt lat="33.8098741" lon="-118.3948885">
  <ele>-24.41</ele>
  <time>2026-09-01T01:14:15Z</time>
  <course>255.66</course>
  <speed>0.99</speed>
  <fix>3d</fix>
</trkpt>
<trkpt lat="33.8098736" lon="-118.3948907">
  <ele>-25.015</ele>
  <time>2026-09-01T01:14:15Z</time>
  <course>345.94</course>
  <speed>0.9726767191621274</speed>
  <fix>3d</fix>
</trkpt>
<trkpt lat="33.8098741" lon="-118.3948885">
  <ele>-24.41</ele>
  <time>2026-09-01T01:14:15Z</time>
  <course>255.66</course>
  <speed>0.99</speed>
  <fix>3d</fix>
</trkpt>
<trkpt lat="33.8098734" lon="-118.3948918">
  <ele>-25.016</ele>
  <time>2026-09-01T01:14:15Z</time>
  <course>346.06</course>
  <speed>0.9701546268507922</speed>
  <fix>3d</fix>
</trkpt>
<trkpt lat="33.8098737" lon="-118.3948906">
  <ele>-24.41</ele>
  <time>2026-09-01T01:14:15Z</time>
  <course>255.91</course>
  <speed>0.99</speed>
  <fix>3d</fix>
</trkpt>
<trkpt lat="33.8098731" lon="-118.3948928">
  <ele>-25.017</ele>
  <time>2026-09-01T01:14:15Z</time>
  <course>346.17</course>
  <speed>0.9701546268507922</speed>
  <fix>3d</fix>
</trkpt>
<trkpt lat="33.8098737" lon="-118.3948906">
  <ele>-24.41</ele>
  <time>2026-09-01T01:14:15Z</time>
  <course>255.91</course>
  <speed>0.99</speed>
  <fix>3d</fix>
</trkpt>
<trkpt lat="33.8098729" lon="-118.3948939">
  <ele>-25.017</ele>
  <time>2026-09-01T01:14:15Z</time>
  <course>346.29</course>
  <speed>0.9701546268507922</speed>
  <fix>3d</fix>
</trkpt>
<trkpt lat="33.8098733" lon="-118.3948926">
  <ele>-24.41</ele>
  <time>2026-09-01T01:14:15Z</time>
  <course>256.17</course>
  <speed>0.99</speed>
  <fix>3d</fix>
</trkpt>
<trkpt lat="33.8098727" lon="-118.3948949">
  <ele>-25.017</ele>
  <time>2026-09-01T01:14:15Z</time>
  <course>346.4</course>
  <speed>0.9798469268207153</speed>
  <fix>3d</fix>
</trkpt>
<trkpt lat="33.8098733" lon="-118.3948926">
  <ele>-24.41</ele>
  <time>2026-09-01T01:14:15Z</time>
  <course>256.17</course>
  <speed>0.99</speed>
  <fix>3d</fix>
</trkpt>
<trkpt lat="33.8098725" lon="-118.394896">
  <ele>-25.016</ele>
  <time>2026-09-01T01:14:15Z</time>
  <course>346.52</course>
  <speed>0.9798469268207153</speed>
  <fix>3d</fix>
</trkpt>
<trkpt lat="33.8098729" lon="-118.3948947">
  <ele>-24.41</ele>
  <time>2026-09-01T01:14:15Z</time>
  <course>256.42</course>
  <speed>0.99</speed>
  <fix>3d</fix>
</trkpt>
<trkpt lat="33.8098723" lon="-118.394897">
  <ele>-25.015</ele>
  <time>2026-09-01T01:14:15Z</time>
  <course>346.63</course>
  <speed>0.9774456506629922</speed>
  <fix>3d</fix>
</trkpt>
<trkpt lat="33.8098729" lon="-118.3948947">
  <ele>-24.41</ele>
  <time>2026-09-01T01:14:15Z</time>
  <course>256.42</course>
  <speed>0.99</speed>
  <fix>3d</fix>
</trkpt>
<trkpt lat="33.8098721" lon="-118.3948981">
  <ele>-25.015</ele>
  <time>2026-09-01T01:14:15Z</time>
  <course>346.75</course>
  <speed>0.9774456506629922</speed>
  <fix>3d</fix>
</trkpt>
<trkpt lat="33.8098725" lon="-118.3948968">
  <ele>-24.4</ele>
  <time>2026-09-01T01:14:15Z</time>
  <course>256.63</course>
  <speed>0.99</speed>
  <fix>3d</fix>
</trkpt>
<trkpt lat="33.8098719" lon="-118.3948991">
  <ele>-25.015</ele>
  <time>2026-09-01T01:14:15Z</time>
  <course>346.86</course>
  <speed>0.9774456506629922</speed>
  <fix>3d</fix>
</trkpt>
<trkpt lat="33.8098725" lon="-118.3948968">
  <ele>-24.4</ele>
  <time>2026-09-01T01:14:15Z</time>
  <course>256.63</course>
  <speed>0.99</speed>
  <fix>3d</fix>
</trkpt>
<trkpt lat="33.8098717" lon="-118.3949002">
  <ele>-25.015</ele>
  <time>2026-09-01T01:14:15Z</time>
  <course>346.97</course>
  <speed>0.9774456506629922</speed>
  <fix>3d</fix>
</trkpt>
<trkpt lat="33.809872" lon="-118.3948989">
  <ele>-24.4</ele>
  <time>2026-09-01T01:14:15Z</time>
  <course>256.82</course>
  <speed>0.99</speed>
  <fix>3d</fix>
</trkpt>
<trkpt lat="33.8098715" lon="-118.3949012">
  <ele>-25.015</ele>
  <time>2026-09-01T01:14:15Z</time>
  <course>347.09</course>
  <speed>0.9774456506629922</speed>
  <fix>3d</fix>
</trkpt>
<trkpt lat="33.809872" lon="-118.3948989">
  <ele>-24.4</ele>
  <time>2026-09-01T01:14:15Z</time>
  <course>256.82</course>
  <speed>0.99</speed>
  <fix>3d</fix>
</trkpt>
<trkpt lat="33.8098713" lon="-118.3949023">
  <ele>-25.013</ele>
  <time>2026-09-01T01:14:15Z</time>
  <course>347.2</course>
  <speed>0.9751410154434076</speed>
  <fix>3d</fix>
</trkpt>
<trkpt lat="33.8098717" lon="-118.394901">
  <ele>-24.4</ele>
  <time>2026-09-01T01:14:15Z</time>
  <course>257.04</course>
  <speed>0.99</speed>
  <fix>3d</fix>
</trkpt>
<trkpt lat="33.8098711" lon="-118.3949033">
  <ele>-25.012</ele>
  <time>2026-09-01T01:14:15Z</time>
  <course>347.32</course>
  <speed>0.9751410154434076</speed>
  <fix>3d</fix>
</trkpt>
<trkpt lat="33.8098717" lon="-118.394901">
  <ele>-24.4</ele>
  <time>2026-09-01T01:14:15Z</time>
  <course>257.04</course>
  <speed>0.99</speed>
  <fix>3d</fix>
</trkpt>
<trkpt lat="33.8098709" lon="-118.3949044">
  <ele>-25.012</ele>
  <time>2026-09-01T01:14:15Z</time>
  <course>347.44</course>
  <speed>0.9751410154434076</speed>
  <fix>3d</fix>
</trkpt>
<trkpt lat="33.8098713" lon="-118.3949031">
  <ele>-24.4</ele>
  <time>2026-09-01T01:14:15Z</time>
  <course>257.26</course>
  <speed>0.99</speed>
  <fix>3d</fix>
</trkpt>
<trkpt lat="33.8098707" lon="-118.3949054">
  <ele>-25.012</ele>
  <time>2026-09-01T01:14:15Z</time>
  <course>347.55</course>
  <speed>0.9751410154434076</speed>
  <fix>3d</fix>
</trkpt>
<trkpt lat="33.8098713" lon="-118.3949031">
  <ele>-24.4</ele>
  <time>2026-09-01T01:14:15Z</time>
  <course>257.26</course>
  <speed>0.99</speed>
  <fix>3d</fix>
</trkpt>
<trkpt lat="33.8098705" lon="-118.3949065">
  <ele>-25.013</ele>
  <time>2026-09-01T01:14:15Z</time>
  <course>347.67</course>
  <speed>0.9848857801796105</speed>
  <fix>3d</fix>
</trkpt>
<trkpt lat="33.8098708" lon="-118.3949052">
  <ele>-24.4</ele>
  <time>2026-09-01T01:14:15Z</time>
  <course>257.43</course>
  <speed>0.99</speed>
  <fix>3d</fix>
</trkpt>
<trkpt lat="33.8098704" lon="-118.3949076">
  <ele>-25.015</ele>
  <time>2026-09-01T01:14:15Z</time>
  <course>347.78</course>
  <speed>0.982700361249552</speed>
  <fix>3d</fix>
</trkpt>
<trkpt lat="33.8098708" lon="-118.3949052">
  <ele>-24.4</ele>
  <time>2026-09-01T01:14:15Z</time>
  <course>257.43</course>
  <speed>0.99</speed>
  <fix>3d</fix>
</trkpt>
<trkpt lat="33.8098702" lon="-118.3949086">
  <ele>-25.016</ele>
  <time>2026-09-01T01:14:15Z</time>
  <course>347.9</course>
  <speed>0.982700361249552</speed>
  <fix>3d</fix>
</trkpt>
<trkpt lat="33.8098705" lon="-118.3949073">
  <ele>-24.4</ele>
  <time>2026-09-01T01:14:15Z</time>
  <course>257.64</course>
  <speed>0.99</speed>
  <fix>3d</fix>
</trkpt>
<trkpt lat="33.80987" lon="-118.3949097">
  <ele>-25.016</ele>
  <time>2026-09-01T01:14:15Z</time>
  <course>348.01</course>
  <speed>0.982700361249552</speed>
  <fix>3d</fix>
</trkpt>
<trkpt lat="33.8098705" lon="-118.3949073">
  <ele>-24.4</ele>
  <time>2026-09-01T01:14:15Z</time>
  <course>257.64</course>
  <speed>0.99</speed>
  <fix>3d</fix>
</trkpt>
<trkpt lat="33.8098698" lon="-118.3949107">
  <ele>-25.015</ele>
  <time>2026-09-01T01:14:15Z</time>
  <course>348.12</course>
  <speed>0.982700361249552</speed>
  <fix>3d</fix>
</trkpt>
<trkpt lat="33.8098701" lon="-118.3949094">
  <ele>-24.4</ele>
  <time>2026-09-01T01:14:15Z</time>
  <course>257.9</course>
  <speed>0.99</speed>
  <fix>3d</fix>
</trkpt>
<trkpt lat="33.8098696" lon="-118.3949118">
  <ele>-25.014</ele>
  <time>2026-09-01T01:14:15Z</time>
  <course>348.24</course>
  <speed>0.982700361249552</speed>
  <fix>3d</fix>
</trkpt>
<trkpt lat="33.8098701" lon="-118.3949094">
  <ele>-24.4</ele>
  <time>2026-09-01T01:14:15Z</time>
  <course>257.9</course>
  <speed>0.99</speed>
  <fix>3d</fix>
</trkpt>
<trkpt lat="33.8098694" lon="-118.3949128">
  <ele>-25.012</ele>
  <time>2026-09-01T01:14:15Z</time>
  <course>348.35</course>
  <speed>0.980612053770501</speed>
  <fix>3d</fix>
</trkpt>
<trkpt lat="33.8098696" lon="-118.3949116">
  <ele>-24.4</ele>
  <time>2026-09-01T01:14:15Z</time>
  <course>258.14</course>
  <speed>0.99</speed>
  <fix>3d</fix>
</trkpt>
<trkpt lat="33.8098693" lon="-118.3949139">
  <ele>-25.011</ele>
  <time>2026-09-01T01:14:15Z</time>
  <course>348.47</course>
  <speed>0.980612053770501</speed>
  <fix>3d</fix>
</trkpt>
<trkpt lat="33.8098696" lon="-118.3949116">
  <ele>-24.4</ele>
  <time>2026-09-01T01:14:15Z</time>
  <course>258.14</course>
  <speed>0.99</speed>
  <fix>3d</fix>
</trkpt>
<trkpt lat="33.8098691" lon="-118.394915">
  <ele>-25.01</ele>
  <time>2026-09-01T01:14:15Z</time>
  <course>348.58</course>
  <speed>0.980612053770501</speed>
  <fix>3d</fix>
</trkpt>
<trkpt lat="33.8098693" lon="-118.3949137">
  <ele>-24.4</ele>
  <time>2026-09-01T01:14:15Z</time>
  <course>258.45</course>
  <speed>0.99</speed>
  <fix>3d</fix>
</trkpt>
<trkpt lat="33.8098689" lon="-118.394916">
  <ele>-25.008</ele>
  <time>2026-09-01T01:14:15Z</time>
  <course>348.7</course>
  <speed>0.9786214794290998</speed>
  <fix>3d</fix>
</trkpt>
<trkpt lat="33.8098693" lon="-118.3949137">
  <ele>-24.4</ele>
  <time>2026-09-01T01:14:15Z</time>
  <course>258.45</course>
  <speed>0.99</speed>
  <fix>3d</fix>
</trkpt>
<trkpt lat="33.8098687" lon="-118.3949171">
  <ele>-25.007</ele>
  <time>2026-09-01T01:14:15Z</time>
  <course>348.81</course>
  <speed>0.9786214794290998</speed>
  <fix>3d</fix>
</trkpt>
<trkpt lat="33.809869" lon="-118.3949158">
  <ele>-24.4</ele>
  <time>2026-09-01T01:14:15Z</time>
  <course>258.8</course>
  <speed>0.99</speed>
  <fix>3d</fix>
</trkpt>
<trkpt lat="33.8098686" lon="-118.3949182">
  <ele>-25.008</ele>
  <time>2026-09-01T01:14:15Z</time>
  <course>348.93</course>
  <speed>0.9786214794290998</speed>
  <fix>3d</fix>
</trkpt>
<trkpt lat="33.809869" lon="-118.3949158">
  <ele>-24.4</ele>
  <time>2026-09-01T01:14:15Z</time>
  <course>258.8</course>
  <speed>0.99</speed>
  <fix>3d</fix>
</trkpt>
<trkpt lat="33.8098684" lon="-118.3949192">
  <ele>-25.01</ele>
  <time>2026-09-01T01:14:15Z</time>
  <course>349.04</course>
  <speed>0.9786214794290998</speed>
  <fix>3d</fix>
</trkpt>
<trkpt lat="33.8098686" lon="-118.3949179">
  <ele>-24.4</ele>
  <time>2026-09-01T01:14:15Z</time>
  <course>259.08</course>
  <speed>0.99</speed>
  <fix>3d</fix>
</trkpt>
<trkpt lat="33.8098682" lon="-118.3949203">
  <ele>-25.013</ele>
  <time>2026-09-01T01:14:15Z</time>
  <course>349.16</course>
  <speed>0.9786214794290998</speed>
  <fix>3d</fix>
</trkpt>
<trkpt lat="33.8098686" lon="-118.3949179">
  <ele>-24.4</ele>
  <time>2026-09-01T01:14:15Z</time>
  <course>259.08</course>
  <speed>0.99</speed>
  <fix>3d</fix>
</trkpt>
<trkpt lat="33.8098681" lon="-118.3949213">
  <ele>-25.014</ele>
  <time>2026-09-01T01:14:15Z</time>
  <course>349.27</course>
  <speed>0.9767292357659824</speed>
  <fix>3d</fix>
</trkpt>
<trkpt lat="33.8098683" lon="-118.39492">
  <ele>-24.4</ele>
  <time>2026-09-01T01:14:15Z</time>
  <course>259.33</course>
  <speed>0.99</speed>
  <fix>3d</fix>
</trkpt>
<trkpt lat="33.8098679" lon="-118.3949224">
  <ele>-25.015</ele>
  <time>2026-09-01T01:14:15Z</time>
  <course>349.39</course>
  <speed>0.9767292357659824</speed>
  <fix>3d</fix>
</trkpt>
<trkpt lat="33.8098683" lon="-118.39492">
  <ele>-24.4</ele>
  <time>2026-09-01T01:14:15Z</time>
  <course>259.33</course>
  <speed>0.99</speed>
  <fix>3d</fix>
</trkpt>
<trkpt lat="33.8098677" lon="-118.3949235">
  <ele>-25.015</ele>
  <time>2026-09-01T01:14:15Z</time>
  <course>349.5</course>
  <speed>0.9865596788841515</speed>
  <fix>3d</fix>
</trkpt>
<trkpt lat="33.8098679" lon="-118.3949221">
  <ele>-24.4</ele>
  <time>2026-09-01T01:14:15Z</time>
  <course>259.58</course>
  <speed>0.99</speed>
  <fix>3d</fix>
</trkpt>
<trkpt lat="33.8098676" lon="-118.3949245">
  <ele>-25.013</ele>
  <time>2026-09-01T01:14:15Z</time>
  <course>349.62</course>
  <speed>0.9865596788841515</speed>
  <fix>3d</fix>
</trkpt>
<trkpt lat="33.8098679" lon="-118.3949221">
  <ele>-24.4</ele>
  <time>2026-09-01T01:14:15Z</time>
  <course>259.58</course>
  <speed>0.99</speed>
  <fix>3d</fix>
</trkpt>
<trkpt lat="33.8098674" lon="-118.3949256">
  <ele>-25.013</ele>
  <time>2026-09-01T01:14:15Z</time>
  <course>349.73</course>
  <speed>0.9847842403288144</speed>
  <fix>3d</fix>
</trkpt>
<trkpt lat="33.8098676" lon="-118.3949242">
  <ele>-24.41</ele>
  <time>2026-09-01T01:14:15Z</time>
  <course>259.83</course>
  <speed>0.99</speed>
  <fix>3d</fix>
</trkpt>
<trkpt lat="33.8098672" lon="-118.3949267">
  <ele>-25.013</ele>
  <time>2026-09-01T01:14:15Z</time>
  <course>349.85</course>
  <speed>0.9847842403288144</speed>
  <fix>3d</fix>
</trkpt>
<trkpt lat="33.8098676" lon="-118.3949242">
  <ele>-24.41</ele>
  <time>2026-09-01T01:14:15Z</time>
  <course>259.83</course>
  <speed>0.99</speed>
  <fix>3d</fix>
</trkpt>
<trkpt lat="33.8098671" lon="-118.3949277">
  <ele>-25.013</ele>
  <time>2026-09-01T01:14:15Z</time>
  <course>349.96</course>
  <speed>0.9847842403288144</speed>
  <fix>3d</fix>
</trkpt>
<trkpt lat="33.8098673" lon="-118.3949264">
  <ele>-24.41</ele>
  <time>2026-09-01T01:14:15Z</time>
  <course>260.11</course>
  <speed>0.99</speed>
  <fix>3d</fix>
</trkpt>
<trkpt lat="33.8098669" lon="-118.3949288">
  <ele>-25.013</ele>
  <time>2026-09-01T01:14:15Z</time>
  <course>350.07</course>
  <speed>0.9847842403288144</speed>
  <fix>3d</fix>
</trkpt>
<trkpt lat="33.8098673" lon="-118.3949264">
  <ele>-24.41</ele>
  <time>2026-09-01T01:14:15Z</time>
  <course>260.11</course>
  <speed>0.99</speed>
  <fix>3d</fix>
</trkpt>
<trkpt lat="33.8098668" lon="-118.3949298">
  <ele>-25.014</ele>
  <time>2026-09-01T01:14:15Z</time>
  <course>350.19</course>
  <speed>0.9847842403288144</speed>
  <fix>3d</fix>
</trkpt>
<trkpt lat="33.809867" lon="-118.3949285">
  <ele>-24.41</ele>
  <time>2026-09-01T01:14:15Z</time>
  <course>260.38</course>
  <speed>0.99</speed>
  <fix>3d</fix>
</trkpt>
<trkpt lat="33.8098666" lon="-118.3949309">
  <ele>-25.015</ele>
  <time>2026-09-01T01:14:15Z</time>
  <course>350.3</course>
  <speed>0.9831073186585481</speed>
  <fix>3d</fix>
</trkpt>
<trkpt lat="33.809867" lon="-118.3949285">
  <ele>-24.41</ele>
  <time>2026-09-01T01:14:15Z</time>
  <course>260.38</course>
  <speed>0.99</speed>
  <fix>3d</fix>
</trkpt>
<trkpt lat="33.8098665" lon="-118.394932">
  <ele>-25.017</ele>
  <time>2026-09-01T01:14:15Z</time>
  <course>350.41</course>
  <speed>0.9831073186585481</speed>
  <fix>3d</fix>
</trkpt>
<trkpt lat="33.8098667" lon="-118.3949306">
  <ele>-24.41</ele>
  <time>2026-09-01T01:14:15Z</time>
  <course>260.59</course>
  <speed>0.99</speed>
  <fix>3d</fix>
</trkpt>
<trkpt lat="33.8098664" lon="-118.394933">
  <ele>-25.018</ele>
  <time>2026-09-01T01:14:15Z</time>
  <course>350.53</course>
  <speed>0.9831073186585481</speed>
  <fix>3d</fix>
</trkpt>
<trkpt lat="33.8098667" lon="-118.3949306">
  <ele>-24.41</ele>
  <time>2026-09-01T01:14:15Z</time>
  <course>260.59</course>
  <speed>0.99</speed>
  <fix>3d</fix>
</trkpt>
<trkpt lat="33.8098662" lon="-118.3949341">
  <ele>-25.018</ele>
  <time>2026-09-01T01:14:15Z</time>
  <course>350.64</course>
  <speed>0.9831073186585481</speed>
  <fix>3d</fix>
</trkpt>
<trkpt lat="33.8098664" lon="-118.3949328">
  <ele>-24.41</ele>
  <time>2026-09-01T01:14:15Z</time>
  <course>260.79</course>
  <speed>0.99</speed>
  <fix>3d</fix>
</trkpt>
<trkpt lat="33.8098661" lon="-118.3949352">
  <ele>-25.017</ele>
  <time>2026-09-01T01:14:15Z</time>
  <course>350.76</course>
  <speed>0.9831073186585481</speed>
  <fix>3d</fix>
</trkpt>
<trkpt lat="33.8098664" lon="-118.3949328">
  <ele>-24.41</ele>
  <time>2026-09-01T01:14:15Z</time>
  <course>260.79</course>
  <speed>0.99</speed>
  <fix>3d</fix>
</trkpt>
<trkpt lat="33.8098659" lon="-118.3949363">
  <ele>-25.016</ele>
  <time>2026-09-01T01:14:15Z</time>
  <course>350.87</course>
  <speed>0.9815294188153507</speed>
  <fix>3d</fix>
</trkpt>
<trkpt lat="33.8098662" lon="-118.3949349">
  <ele>-24.41</ele>
  <time>2026-09-01T01:14:15Z</time>
  <course>261.02</course>
  <speed>0.99</speed>
  <fix>3d</fix>
</trkpt>
<trkpt lat="33.8098658" lon="-118.3949373">
  <ele>-25.015</ele>
  <time>2026-09-01T01:14:15Z</time>
  <course>350.99</course>
  <speed>0.9815294188153507</speed>
  <fix>3d</fix>
</trkpt>
<trkpt lat="33.8098662" lon="-118.3949349">
  <ele>-24.41</ele>
  <time>2026-09-01T01:14:15Z</time>
  <course>261.02</course>
  <speed>0.99</speed>
  <fix>3d</fix>
</trkpt>
<trkpt lat="33.8098657" lon="-118.3949384">
  <ele>-25.014</ele>
  <time>2026-09-01T01:14:15Z</time>
  <course>351.1</course>
  <speed>0.9815294188153507</speed>
  <fix>3d</fix>
</trkpt>
<trkpt lat="33.8098659" lon="-118.394937">
  <ele>-24.4</ele>
  <time>2026-09-01T01:14:15Z</time>
  <course>261.19</course>
  <speed>0.99</speed>
  <fix>3d</fix>
</trkpt>
<trkpt lat="33.8098655" lon="-118.3949395">
  <ele>-25.012</ele>
  <time>2026-09-01T01:14:15Z</time>
  <course>351.22</course>
  <speed>0.9815294188153507</speed>
  <fix>3d</fix>
</trkpt>
<trkpt lat="33.8098659" lon="-118.394937">
  <ele>-24.4</ele>
  <time>2026-09-01T01:14:15Z</time>
  <course>261.19</course>
  <speed>0.99</speed>
  <fix>3d</fix>
</trkpt>
<trkpt lat="33.8098654" lon="-118.3949405">
  <ele>-25.011</ele>
  <time>2026-09-01T01:14:15Z</time>
  <course>351.33</course>
  <speed>0.9815294188153507</speed>
  <fix>3d</fix>
</trkpt>
<trkpt lat="33.8098656" lon="-118.3949391">
  <ele>-24.4</ele>
  <time>2026-09-01T01:14:15Z</time>
  <course>261.32</course>
  <speed>0.99</speed>
  <fix>3d</fix>
</trkpt>
<trkpt lat="33.8098653" lon="-118.3949416">
  <ele>-25.011</ele>
  <time>2026-09-01T01:14:15Z</time>
  <course>351.45</course>
  <speed>0.9914131328563285</speed>
  <fix>3d</fix>
</trkpt>
<trkpt lat="33.8098656" lon="-118.3949391">
  <ele>-24.4</ele>
  <time>2026-09-01T01:14:15Z</time>
  <course>261.32</course>
  <speed>0.99</speed>
  <fix>3d</fix>
</trkpt>
<trkpt lat="33.8098651" lon="-118.3949427">
  <ele>-25.011</ele>
  <time>2026-09-01T01:14:15Z</time>
  <course>351.56</course>
  <speed>0.9914131328563285</speed>
  <fix>3d</fix>
</trkpt>
<trkpt lat="33.8098654" lon="-118.3949413">
  <ele>-24.4</ele>
  <time>2026-09-01T01:14:15Z</time>
  <course>261.48</course>
  <speed>0.99</speed>
  <fix>3d</fix>
</trkpt>
<trkpt lat="33.809865" lon="-118.3949437">
  <ele>-25.012</ele>
  <time>2026-09-01T01:14:15Z</time>
  <course>351.68</course>
  <speed>0.9899494936611666</speed>
  <fix>3d</fix>
</trkpt>
<trkpt lat="33.8098654" lon="-118.3949413">
  <ele>-24.4</ele>
  <time>2026-09-01T01:14:15Z</time>
  <course>261.48</course>
  <speed>0.99</speed>
  <fix>3d</fix>
</trkpt>
<trkpt lat="33.8098649" lon="-118.3949448">
  <ele>-25.013</ele>
  <time>2026-09-01T01:14:15Z</time>
  <course>351.79</course>
  <speed>0.9899494936611666</speed>
  <fix>3d</fix>
</trkpt>
<trkpt lat="33.8098651" lon="-118.3949434">
  <ele>-24.4</ele>
  <time>2026-09-01T01:14:15Z</time>
  <course>261.66</course>
  <speed>0.99</speed>
  <fix>3d</fix>
</trkpt>
<trkpt lat="33.8098648" lon="-118.3949459">
  <ele>-25.014</ele>
  <time>2026-09-01T01:14:15Z</time>
  <course>351.91</course>
  <speed>0.9899494936611666</speed>
  <fix>3d</fix>
</trkpt>
<trkpt lat="33.8098651" lon="-118.3949434">
  <ele>-24.4</ele>
  <time>2026-09-01T01:14:15Z</time>
  <course>261.66</course>
  <speed>0.99</speed>
  <fix>3d</fix>
</trkpt>
<trkpt lat="33.8098646" lon="-118.3949469">
  <ele>-25.014</ele>
  <time>2026-09-01T01:14:15Z</time>
  <course>352.02</course>
  <speed>0.9899494936611666</speed>
  <fix>3d</fix>
</trkpt>
<trkpt lat="33.8098648" lon="-118.3949456">
  <ele>-24.4</ele>
  <time>2026-09-01T01:14:15Z</time>
  <course>261.83</course>
  <speed>1.0</speed>
  <fix>3d</fix>
</trkpt>
<trkpt lat="33.8098645" lon="-118.394948">
  <ele>-25.015</ele>
  <time>2026-09-01T01:14:15Z</time>
  <course>352.14</course>
  <speed>0.9899494936611666</speed>
  <fix>3d</fix>
</trkpt>
<trkpt lat="33.8098648" lon="-118.3949456">
  <ele>-24.4</ele>
  <time>2026-09-01T01:14:15Z</time>
  <course>261.83</course>
  <speed>1.0</speed>
  <fix>3d</fix>
</trkpt>
<trkpt lat="33.8098644" lon="-118.3949491">
  <ele>-25.015</ele>
  <time>2026-09-01T01:14:15Z</time>
  <course>352.25</course>
  <speed>0.9885848471426213</speed>
  <fix>3d</fix>
</trkpt>
<trkpt lat="33.8098646" lon="-118.3949477">
  <ele>-24.41</ele>
  <time>2026-09-01T01:14:15Z</time>
  <course>262.04</course>
  <speed>1.0</speed>
  <fix>3d</fix>
</trkpt>
<trkpt lat="33.8098643" lon="-118.3949501">
  <ele>-25.016</ele>
  <time>2026-09-01T01:14:15Z</time>
  <course>352.37</course>
  <speed>0.9885848471426213</speed>
  <fix>3d</fix>
</trkpt>
<trkpt lat="33.8098646" lon="-118.3949477">
  <ele>-24.41</ele>
  <time>2026-09-01T01:14:15Z</time>
  <course>262.04</course>
  <speed>1.0</speed>
  <fix>3d</fix>
</trkpt>
<trkpt lat="33.8098642" lon="-118.3949512">
  <ele>-25.016</ele>
  <time>2026-09-01T01:14:15Z</time>
  <course>352.48</course>
  <speed>0.9885848471426213</speed>
  <fix>3d</fix>
</trkpt>
<trkpt lat="33.8098643" lon="-118.3949499">
  <ele>-24.41</ele>
  <time>2026-09-01T01:14:15Z</time>
  <course>262.28</course>
  <speed>1.0</speed>
  <fix>3d</fix>
</trkpt>
<trkpt lat="33.8098641" lon="-118.3949523">
  <ele>-25.015</ele>
  <time>2026-09-01T01:14:15Z</time>
  <course>352.6</course>
  <speed>0.9885848471426213</speed>
  <fix>3d</fix>
</trkpt>
<trkpt lat="33.8098643" lon="-118.3949499">
  <ele>-24.41</ele>
  <time>2026-09-01T01:14:15Z</time>
  <course>262.28</course>
  <speed>1.0</speed>
  <fix>3d</fix>
</trkpt>
<trkpt lat="33.8098639" lon="-118.3949534">
  <ele>-25.015</ele>
  <time>2026-09-01T01:14:15Z</time>
  <course>352.71</course>
  <speed>0.9873196037757986</speed>
  <fix>3d</fix>
</trkpt>
<trkpt lat="33.8098641" lon="-118.394952">
  <ele>-24.41</ele>
  <time>2026-09-01T01:14:15Z</time>
  <course>262.52</course>
  <speed>1.0</speed>
  <fix>3d</fix>
</trkpt>
<trkpt lat="33.8098638" lon="-118.3949544">
  <ele>-25.015</ele>
  <time>2026-09-01T01:14:15Z</time>
  <course>352.82</course>
  <speed>0.9873196037757986</speed>
  <fix>3d</fix>
</trkpt>
<trkpt lat="33.8098641" lon="-118.394952">
  <ele>-24.41</ele>
  <time>2026-09-01T01:14:15Z</time>
  <course>262.52</course>
  <speed>1.0</speed>
  <fix>3d</fix>
</trkpt>
<trkpt lat="33.8098637" lon="-118.3949555">
  <ele>-25.014</ele>
  <time>2026-09-01T01:14:15Z</time>
  <course>352.94</course>
  <speed>0.9873196037757986</speed>
  <fix>3d</fix>
</trkpt>
<trkpt lat="33.8098638" lon="-118.3949542">
  <ele>-24.4</ele>
  <time>2026-09-01T01:14:15Z</time>
  <course>262.78</course>
  <speed>1.0</speed>
  <fix>3d</fix>
</trkpt>
<trkpt lat="33.8098636" lon="-118.3949566">
  <ele>-25.013</ele>
  <time>2026-09-01T01:14:15Z</time>
  <course>353.06</course>
  <speed>0.9873196037757986</speed>
  <fix>3d</fix>
</trkpt>
<trkpt lat="33.8098638" lon="-118.3949542">
  <ele>-24.4</ele>
  <time>2026-09-01T01:14:15Z</time>
  <course>262.78</course>
  <speed>1.0</speed>
  <fix>3d</fix>
</trkpt>
<trkpt lat="33.8098635" lon="-118.3949577">
  <ele>-25.01</ele>
  <time>2026-09-01T01:14:15Z</time>
  <course>353.17</course>
  <speed>0.986154146165801</speed>
  <fix>3d</fix>
</trkpt>
<trkpt lat="33.8098636" lon="-118.3949563">
  <ele>-24.4</ele>
  <time>2026-09-01T01:14:15Z</time>
  <course>263.06</course>
  <speed>1.0</speed>
  <fix>3d</fix>
</trkpt>
<trkpt lat="33.8098634" lon="-118.3949587">
  <ele>-25.008</ele>
  <time>2026-09-01T01:14:15Z</time>
  <course>353.27</course>
  <speed>0.986154146165801</speed>
  <fix>3d</fix>
</trkpt>
<trkpt lat="33.8098636" lon="-118.3949563">
  <ele>-24.4</ele>
  <time>2026-09-01T01:14:15Z</time>
  <course>263.06</course>
  <speed>1.0</speed>
  <fix>3d</fix>
</trkpt>
<trkpt lat="33.8098633" lon="-118.3949598">
  <ele>-25.007</ele>
  <time>2026-09-01T01:14:15Z</time>
  <course>353.38</course>
  <speed>0.986154146165801</speed>
  <fix>3d</fix>
</trkpt>
<trkpt lat="33.8098635" lon="-118.3949585">
  <ele>-24.4</ele>
  <time>2026-09-01T01:14:15Z</time>
  <course>263.36</course>
  <speed>1.0</speed>
  <fix>3d</fix>
</trkpt>
<trkpt lat="33.8098632" lon="-118.3949609">
  <ele>-25.006</ele>
  <time>2026-09-01T01:14:15Z</time>
  <course>353.51</course>
  <speed>0.986154146165801</speed>
  <fix>3d</fix>
</trkpt>
<trkpt lat="33.8098635" lon="-118.3949585">
  <ele>-24.4</ele>
  <time>2026-09-01T01:14:15Z</time>
  <course>263.36</course>
  <speed>1.0</speed>
  <fix>3d</fix>
</trkpt>
<trkpt lat="33.8098631" lon="-118.394962">
  <ele>-25.007</ele>
  <time>2026-09-01T01:14:15Z</time>
  <course>353.62</course>
  <speed>0.986154146165801</speed>
  <fix>3d</fix>
</trkpt>
<trkpt lat="33.8098632" lon="-118.3949606">
  <ele>-24.4</ele>
  <time>2026-09-01T01:14:15Z</time>
  <course>263.61</course>
  <speed>1.0</speed>
  <fix>3d</fix>
</trkpt>
<trkpt lat="33.809863" lon="-118.394963">
  <ele>-25.008</ele>
  <time>2026-09-01T01:14:15Z</time>
  <course>353.74</course>
  <speed>0.9850888284819801</speed>
  <fix>3d</fix>
</trkpt>
<trkpt lat="33.8098632" lon="-118.3949606">
  <ele>-24.4</ele>
  <time>2026-09-01T01:14:15Z</time>
  <course>263.61</course>
  <speed>1.0</speed>
  <fix>3d</fix>
</trkpt>
<trkpt lat="33.8098629" lon="-118.3949641">
  <ele>-25.011</ele>
  <time>2026-09-01T01:14:15Z</time>
  <course>353.85</course>
  <speed>0.9850888284819801</speed>
  <fix>3d</fix>
</trkpt>
<trkpt lat="33.8098631" lon="-118.3949628">
  <ele>-24.41</ele>
  <time>2026-09-01T01:14:15Z</time>
  <course>263.79</course>
  <speed>1.0</speed>
  <fix>3d</fix>
</trkpt>
<trkpt lat="33.8098628" lon="-118.3949652">
  <ele>-25.013</ele>
  <time>2026-09-01T01:14:15Z</time>
  <course>353.96</course>
  <speed>0.9950376877284599</speed>
  <fix>3d</fix>
</trkpt>
<trkpt lat="33.8098631" lon="-118.3949628">
  <ele>-24.41</ele>
  <time>2026-09-01T01:14:15Z</time>
  <course>263.79</course>
  <speed>1.0</speed>
  <fix>3d</fix>
</trkpt>
<trkpt lat="33.8098627" lon="-118.3949663">
  <ele>-25.015</ele>
  <time>2026-09-01T01:14:15Z</time>
  <course>354.08</course>
  <speed>0.9950376877284599</speed>
  <fix>3d</fix>
</trkpt>
<trkpt lat="33.8098629" lon="-118.3949649">
  <ele>-24.41</ele>
  <time>2026-09-01T01:14:15Z</time>
  <course>263.96</course>
  <speed>1.0</speed>
  <fix>3d</fix>
</trkpt>
<trkpt lat="33.8098626" lon="-118.3949673">
  <ele>-25.017</ele>
  <time>2026-09-01T01:14:15Z</time>
  <course>354.2</course>
  <speed>0.9950376877284599</speed>
  <fix>3d</fix>
</trkpt>
<trkpt lat="33.8098629" lon="-118.3949649">
  <ele>-24.41</ele>
  <time>2026-09-01T01:14:15Z</time>
  <course>263.96</course>
  <speed>1.0</speed>
  <fix>3d</fix>
</trkpt>
<trkpt lat="33.8098626" lon="-118.3949684">
  <ele>-25.018</ele>
  <time>2026-09-01T01:14:15Z</time>
  <course>354.31</course>
  <speed>0.9950376877284599</speed>
  <fix>3d</fix>
</trkpt>
<trkpt lat="33.8098626" lon="-118.3949671">
  <ele>-24.42</ele>
  <time>2026-09-01T01:14:15Z</time>
  <course>264.09</course>
  <speed>1.0</speed>
  <fix>3d</fix>
</trkpt>
<trkpt lat="33.8098625" lon="-118.3949695">
  <ele>-25.019</ele>
  <time>2026-09-01T01:14:15Z</time>
  <course>354.43</course>
  <speed>0.9940824915468535</speed>
  <fix>3d</fix>
</trkpt>
<trkpt lat="33.8098626" lon="-118.3949671">
  <ele>-24.42</ele>
  <time>2026-09-01T01:14:15Z</time>
  <course>264.09</course>
  <speed>1.0</speed>
  <fix>3d</fix>
</trkpt>
<trkpt lat="33.8098624" lon="-118.3949706">
  <ele>-25.019</ele>
  <time>2026-09-01T01:14:15Z</time>
  <course>354.54</course>
  <speed>0.9940824915468535</speed>
  <fix>3d</fix>
</trkpt>
<trkpt lat="33.8098624" lon="-118.3949692">
  <ele>-24.42</ele>
  <time>2026-09-01T01:14:15Z</time>
  <course>264.3</course>
  <speed>0.99</speed>
  <fix>3d</fix>
</trkpt>
<trkpt lat="33.8098623" lon="-118.3949717">
  <ele>-25.02</ele>
  <time>2026-09-01T01:14:15Z</time>
  <course>354.66</course>
  <speed>0.9940824915468535</speed>
  <fix>3d</fix>
</trkpt>
<trkpt lat="33.8098624" lon="-118.3949692">
  <ele>-24.42</ele>
  <time>2026-09-01T01:14:15Z</time>
  <course>264.3</course>
  <speed>0.99</speed>
  <fix>3d</fix>
</trkpt>
<trkpt lat="33.8098622" lon="-118.3949727">
  <ele>-25.019</ele>
  <time>2026-09-01T01:14:15Z</time>
  <course>354.77</course>
  <speed>0.9932270636667125</speed>
  <fix>3d</fix>
</trkpt>
<trkpt lat="33.8098623" lon="-118.3949714">
  <ele>-24.42</ele>
  <time>2026-09-01T01:14:15Z</time>
  <course>264.63</course>
  <speed>0.99</speed>
  <fix>3d</fix>
</trkpt>
<trkpt lat="33.8098621" lon="-118.3949738">
  <ele>-25.017</ele>
  <time>2026-09-01T01:14:15Z</time>
  <course>354.89</course>
  <speed>0.9932270636667125</speed>
  <fix>3d</fix>
</trkpt>
<trkpt lat="33.8098623" lon="-118.3949714">
  <ele>-24.42</ele>
  <time>2026-09-01T01:14:15Z</time>
  <course>264.63</course>
  <speed>0.99</speed>
  <fix>3d</fix>
</trkpt>
<trkpt lat="33.8098621" lon="-118.3949749">
  <ele>-25.016</ele>
  <time>2026-09-01T01:14:15Z</time>
  <course>355.0</course>
  <speed>0.9932270636667125</speed>
  <fix>3d</fix>
</trkpt>
<trkpt lat="33.8098621" lon="-118.3949735">
  <ele>-24.41</ele>
  <time>2026-09-01T01:14:15Z</time>
  <course>264.95</course>
  <speed>0.99</speed>
  <fix>3d</fix>
</trkpt>
<trkpt lat="33.809862" lon="-118.394976">
  <ele>-25.014</ele>
  <time>2026-09-01T01:14:15Z</time>
  <course>355.11</course>
  <speed>0.9932270636667125</speed>
  <fix>3d</fix>
</trkpt>
<trkpt lat="33.8098621" lon="-118.3949735">
  <ele>-24.41</ele>
  <time>2026-09-01T01:14:15Z</time>
  <course>264.95</course>
  <speed>0.99</speed>
  <fix>3d</fix>
</trkpt>
<trkpt lat="33.8098619" lon="-118.394977">
  <ele>-25.012</ele>
  <time>2026-09-01T01:14:15Z</time>
  <course>355.23</course>
  <speed>0.9924716620639604</speed>
  <fix>3d</fix>
</trkpt>
<trkpt lat="33.8098619" lon="-118.3949757">
  <ele>-24.41</ele>
  <time>2026-09-01T01:14:15Z</time>
  <course>265.23</course>
  <speed>0.99</speed>
  <fix>3d</fix>
</trkpt>
<trkpt lat="33.8098618" lon="-118.3949781">
  <ele>-25.012</ele>
  <time>2026-09-01T01:14:15Z</time>
  <course>355.35</course>
  <speed>0.9924716620639604</speed>
  <fix>3d</fix>
</trkpt>
<trkpt lat="33.8098619" lon="-118.3949757">
  <ele>-24.41</ele>
  <time>2026-09-01T01:14:15Z</time>
  <course>265.23</course>
  <speed>0.99</speed>
  <fix>3d</fix>
</trkpt>
<trkpt lat="33.8098618" lon="-118.3949792">
  <ele>-25.013</ele>
  <time>2026-09-01T01:14:15Z</time>
  <course>355.46</course>
  <speed>0.9924716620639604</speed>
  <fix>3d</fix>
</trkpt>
<trkpt lat="33.8098618" lon="-118.3949778">
  <ele>-24.41</ele>
  <time>2026-09-01T01:14:15Z</time>
  <course>265.53</course>
  <speed>0.99</speed>
  <fix>3d</fix>
</trkpt>
<trkpt lat="33.8098617" lon="-118.3949803">
  <ele>-25.014</ele>
  <time>2026-09-01T01:14:15Z</time>
  <course>355.57</course>
  <speed>0.9924716620639604</speed>
  <fix>3d</fix>
</trkpt>
<trkpt lat="33.8098618" lon="-118.3949778">
  <ele>-24.41</ele>
  <time>2026-09-01T01:14:15Z</time>
  <course>265.53</course>
  <speed>0.99</speed>
  <fix>3d</fix>
</trkpt>
<trkpt lat="33.8098616" lon="-118.3949814">
  <ele>-25.015</ele>
  <time>2026-09-01T01:14:15Z</time>
  <course>355.69</course>
  <speed>0.9924716620639604</speed>
  <fix>3d</fix>
</trkpt>
<trkpt lat="33.8098617" lon="-118.39498">
  <ele>-24.41</ele>
  <time>2026-09-01T01:14:15Z</time>
  <course>265.82</course>
  <speed>0.99</speed>
  <fix>3d</fix>
</trkpt>
<trkpt lat="33.8098616" lon="-118.3949824">
  <ele>-25.016</ele>
  <time>2026-09-01T01:14:15Z</time>
  <course>355.8</course>
  <speed>0.9918165152889924</speed>
  <fix>3d</fix>
</trkpt>
<trkpt lat="33.8098617" lon="-118.39498">
  <ele>-24.41</ele>
  <time>2026-09-01T01:14:15Z</time>
  <course>265.82</course>
  <speed>0.99</speed>
  <fix>3d</fix>
</trkpt>
<trkpt lat="33.8098615" lon="-118.3949835">
  <ele>-25.015</ele>
  <time>2026-09-01T01:14:15Z</time>
  <course>355.91</course>
  <speed>0.9918165152889924</speed>
  <fix>3d</fix>
</trkpt>
<trkpt lat="33.8098616" lon="-118.3949821">
  <ele>-24.41</ele>
  <time>2026-09-01T01:14:15Z</time>
  <course>266.06</course>
  <speed>0.99</speed>
  <fix>3d</fix>
</trkpt>
<trkpt lat="33.8098615" lon="-118.3949846">
  <ele>-25.014</ele>
  <time>2026-09-01T01:14:15Z</time>
  <course>356.03</course>
  <speed>0.9918165152889924</speed>
  <fix>3d</fix>
</trkpt>
<trkpt lat="33.8098616" lon="-118.3949821">
  <ele>-24.41</ele>
  <time>2026-09-01T01:14:15Z</time>
  <course>266.06</course>
  <speed>0.99</speed>
  <fix>3d</fix>
</trkpt>
<trkpt lat="33.8098614" lon="-118.3949857">
  <ele>-25.013</ele>
  <time>2026-09-01T01:14:15Z</time>
  <course>356.15</course>
  <speed>0.9918165152889924</speed>
  <fix>3d</fix>
</trkpt>
<trkpt lat="33.8098614" lon="-118.3949843">
  <ele>-24.41</ele>
  <time>2026-09-01T01:14:15Z</time>
  <course>266.23</course>
  <speed>0.99</speed>
  <fix>3d</fix>
</trkpt>
<trkpt lat="33.8098613" lon="-118.3949868">
  <ele>-25.012</ele>
  <time>2026-09-01T01:14:15Z</time>
  <course>356.26</course>
  <speed>0.9918165152889924</speed>
  <fix>3d</fix>
</trkpt>
<trkpt lat="33.8098614" lon="-118.3949843">
  <ele>-24.41</ele>
  <time>2026-09-01T01:14:15Z</time>
  <course>266.23</course>
  <speed>0.99</speed>
  <fix>3d</fix>
</trkpt>
<trkpt lat="33.8098613" lon="-118.3949878">
  <ele>-25.012</ele>
  <time>2026-09-01T01:14:15Z</time>
  <course>356.37</course>
  <speed>0.9912618221237011</speed>
  <fix>3d</fix>
</trkpt>
<trkpt lat="33.8098613" lon="-118.3949864">
  <ele>-24.41</ele>
  <time>2026-09-01T01:14:15Z</time>
  <course>266.42</course>
  <speed>0.99</speed>
  <fix>3d</fix>
</trkpt>
<trkpt lat="33.8098612" lon="-118.3949889">
  <ele>-25.012</ele>
  <time>2026-09-01T01:14:15Z</time>
  <course>356.49</course>
  <speed>0.9912618221237011</speed>
  <fix>3d</fix>
</trkpt>
<trkpt lat="33.8098613" lon="-118.3949864">
  <ele>-24.41</ele>
  <time>2026-09-01T01:14:15Z</time>
  <course>266.42</course>
  <speed>0.99</speed>
  <fix>3d</fix>
</trkpt>
<trkpt lat="33.8098612" lon="-118.39499">
  <ele>-25.012</ele>
  <time>2026-09-01T01:14:15Z</time>
  <course>356.61</course>
  <speed>0.9912618221237011</speed>
  <fix>3d</fix>
</trkpt>
<trkpt lat="33.8098612" lon="-118.3949886">
  <ele>-24.41</ele>
  <time>2026-09-01T01:14:15Z</time>
  <course>266.65</course>
  <speed>0.99</speed>
  <fix>3d</fix>
</trkpt>
<trkpt lat="33.8098611" lon="-118.3949911">
  <ele>-25.013</ele>
  <time>2026-09-01T01:14:15Z</time>
  <course>356.72</course>
  <speed>0.9912618221237011</speed>
  <fix>3d</fix>
</trkpt>
<trkpt lat="33.8098612" lon="-118.3949886">
  <ele>-24.41</ele>
  <time>2026-09-01T01:14:15Z</time>
  <course>266.65</course>
  <speed>0.99</speed>
  <fix>3d</fix>
</trkpt>
<trkpt lat="33.8098611" lon="-118.3949922">
  <ele>-25.013</ele>
  <time>2026-09-01T01:14:15Z</time>
  <course>356.84</course>
  <speed>0.9912618221237011</speed>
  <fix>3d</fix>
</trkpt>
<trkpt lat="33.8098611" lon="-118.3949907">
  <ele>-24.41</ele>
  <time>2026-09-01T01:14:15Z</time>
  <course>266.9</course>
  <speed>0.99</speed>
  <fix>3d</fix>
</trkpt>
<trkpt lat="33.809861" lon="-118.3949932">
  <ele>-25.014</ele>
  <time>2026-09-01T01:14:15Z</time>
  <course>356.95</course>
  <speed>0.9908077512817509</speed>
  <fix>3d</fix>
</trkpt>
<trkpt lat="33.8098611" lon="-118.3949907">
  <ele>-24.41</ele>
  <time>2026-09-01T01:14:15Z</time>
  <course>266.9</course>
  <speed>0.99</speed>
  <fix>3d</fix>
</trkpt>
<trkpt lat="33.809861" lon="-118.3949943">
  <ele>-25.015</ele>
  <time>2026-09-01T01:14:15Z</time>
  <course>357.06</course>
  <speed>0.9908077512817509</speed>
  <fix>3d</fix>
</trkpt>
<trkpt lat="33.809861" lon="-118.3949929">
  <ele>-24.41</ele>
  <time>2026-09-01T01:14:15Z</time>
  <course>267.11</course>
  <speed>0.99</speed>
  <fix>3d</fix>
</trkpt>
<trkpt lat="33.809861" lon="-118.3949954">
  <ele>-25.017</ele>
  <time>2026-09-01T01:14:15Z</time>
  <course>357.18</course>
  <speed>0.9908077512817509</speed>
  <fix>3d</fix>
</trkpt>
<trkpt lat="33.809861" lon="-118.3949929">
  <ele>-24.41</ele>
  <time>2026-09-01T01:14:15Z</time>
  <course>267.11</course>
  <speed>0.99</speed>
  <fix>3d</fix>
</trkpt>
<trkpt lat="33.8098609" lon="-118.3949965">
  <ele>-25.019</ele>
  <time>2026-09-01T01:14:15Z</time>
  <course>357.29</course>
  <speed>0.9908077512817509</speed>
  <fix>3d</fix>
</trkpt>
<trkpt lat="33.8098609" lon="-118.3949951">
  <ele>-24.42</ele>
  <time>2026-09-01T01:14:15Z</time>
  <course>267.32</course>
  <speed>0.99</speed>
  <fix>3d</fix>
</trkpt>
<trkpt lat="33.8098609" lon="-118.3949976">
  <ele>-25.021</ele>
  <time>2026-09-01T01:14:15Z</time>
  <course>357.4</course>
  <speed>0.9908077512817509</speed>
  <fix>3d</fix>
</trkpt>
<trkpt lat="33.8098609" lon="-118.3949951">
  <ele>-24.42</ele>
  <time>2026-09-01T01:14:15Z</time>
  <course>267.32</course>
  <speed>0.99</speed>
  <fix>3d</fix>
</trkpt>
<trkpt lat="33.8098608" lon="-118.3949986">
  <ele>-25.02</ele>
  <time>2026-09-01T01:14:15Z</time>
  <course>357.52</course>
  <speed>0.9904544411531506</speed>
  <fix>3d</fix>
</trkpt>
<trkpt lat="33.8098608" lon="-118.3949972">
  <ele>-24.41</ele>
  <time>2026-09-01T01:14:15Z</time>
  <course>267.55</course>
  <speed>0.99</speed>
  <fix>3d</fix>
</trkpt>
<trkpt lat="33.8098608" lon="-118.3949997">
  <ele>-25.019</ele>
  <time>2026-09-01T01:14:15Z</time>
  <course>357.64</course>
  <speed>0.9904544411531506</speed>
  <fix>3d</fix>
</trkpt>
<trkpt lat="33.8098608" lon="-118.3949972">
  <ele>-24.41</ele>
  <time>2026-09-01T01:14:15Z</time>
  <course>267.55</course>
  <speed>0.99</speed>
  <fix>3d</fix>
</trkpt>
<trkpt lat="33.8098608" lon="-118.3950008">
  <ele>-25.017</ele>
  <time>2026-09-01T01:14:15Z</time>
  <course>357.75</course>
  <speed>0.9904544411531506</speed>
  <fix>3d</fix>
</trkpt>
<trkpt lat="33.8098608" lon="-118.3949994">
  <ele>-24.41</ele>
  <time>2026-09-01T01:14:15Z</time>
  <course>267.8</course>
  <speed>0.99</speed>
  <fix>3d</fix>
</trkpt>
<trkpt lat="33.8098607" lon="-118.3950019">
  <ele>-25.015</ele>
  <time>2026-09-01T01:14:15Z</time>
  <course>357.87</course>
  <speed>0.9904544411531506</speed>
  <fix>3d</fix>
</trkpt>
<trkpt lat="33.8098608" lon="-118.3949994">
  <ele>-24.41</ele>
  <time>2026-09-01T01:14:15Z</time>
  <course>267.8</course>
  <speed>0.99</speed>
  <fix>3d</fix>
</trkpt>
<trkpt lat="33.8098607" lon="-118.395003">
  <ele>-25.014</ele>
  <time>2026-09-01T01:14:15Z</time>
  <course>357.98</course>
  <speed>0.9904544411531506</speed>
  <fix>3d</fix>
</trkpt>
<trkpt lat="33.8098607" lon="-118.3950015">
  <ele>-24.41</ele>
  <time>2026-09-01T01:14:15Z</time>
  <course>268.02</course>
  <speed>0.99</speed>
  <fix>3d</fix>
</trkpt>
<trkpt lat="33.8098607" lon="-118.395004">
  <ele>-25.013</ele>
  <time>2026-09-01T01:14:15Z</time>
  <course>358.1</course>
  <speed>0.9902019995940222</speed>
  <fix>3d</fix>
</trkpt>
<trkpt lat="33.8098607" lon="-118.3950015">
  <ele>-24.41</ele>
  <time>2026-09-01T01:14:15Z</time>
  <course>268.02</course>
  <speed>0.99</speed>
  <fix>3d</fix>
</trkpt>
<trkpt lat="33.8098607" lon="-118.3950051">
  <ele>-25.012</ele>
  <time>2026-09-01T01:14:15Z</time>
  <course>358.21</course>
  <speed>0.9902019995940222</speed>
  <fix>3d</fix>
</trkpt>
<trkpt lat="33.8098607" lon="-118.3950037">
  <ele>-24.4</ele>
  <time>2026-09-01T01:14:15Z</time>
  <course>268.23</course>
  <speed>0.99</speed>
  <fix>3d</fix>
</trkpt>
<trkpt lat="33.8098606" lon="-118.3950062">
  <ele>-25.012</ele>
  <time>2026-09-01T01:14:15Z</time>
  <course>358.33</course>
  <speed>0.9902019995940222</speed>
  <fix>3d</fix>
</trkpt>
<trkpt lat="33.8098607" lon="-118.3950037">
  <ele>-24.4</ele>
  <time>2026-09-01T01:14:15Z</time>
  <course>268.23</course>
  <speed>0.99</speed>
  <fix>3d</fix>
</trkpt>
<trkpt lat="33.8098606" lon="-118.3950073">
  <ele>-25.012</ele>
  <time>2026-09-01T01:14:15Z</time>
  <course>358.44</course>
  <speed>1.000199980003999</speed>
  <fix>3d</fix>
</trkpt>
<trkpt lat="33.8098606" lon="-118.3950058">
  <ele>-24.4</ele>
  <time>2026-09-01T01:14:15Z</time>
  <course>268.41</course>
  <speed>0.99</speed>
  <fix>3d</fix>
</trkpt>
<trkpt lat="33.8098606" lon="-118.3950084">
  <ele>-25.012</ele>
  <time>2026-09-01T01:14:15Z</time>
  <course>358.56</course>
  <speed>1.000199980003999</speed>
  <fix>3d</fix>
</trkpt>
<trkpt lat="33.8098606" lon="-118.3950058">
  <ele>-24.4</ele>
  <time>2026-09-01T01:14:15Z</time>
  <course>268.41</course>
  <speed>0.99</speed>
  <fix>3d</fix>
</trkpt>
<trkpt lat="33.8098606" lon="-118.3950095">
  <ele>-25.011</ele>
  <time>2026-09-01T01:14:15Z</time>
  <course>358.67</course>
  <speed>1.000199980003999</speed>
  <fix>3d</fix>
</trkpt>
<trkpt lat="33.8098606" lon="-118.395008">
  <ele>-24.4</ele>
  <time>2026-09-01T01:14:15Z</time>
  <course>268.59</course>
  <speed>0.99</speed>
  <fix>3d</fix>
</trkpt>
<trkpt lat="33.8098606" lon="-118.3950105">
  <ele>-25.011</ele>
  <time>2026-09-01T01:14:15Z</time>
  <course>358.79</course>
  <speed>1.0000499987500624</speed>
  <fix>3d</fix>
</trkpt>
<trkpt lat="33.8098606" lon="-118.395008">
  <ele>-24.4</ele>
  <time>2026-09-01T01:14:15Z</time>
  <course>268.59</course>
  <speed>0.99</speed>
  <fix>3d</fix>
</trkpt>
<trkpt lat="33.8098605" lon="-118.3950116">
  <ele>-25.012</ele>
  <time>2026-09-01T01:14:15Z</time>
  <course>358.9</course>
  <speed>1.0000499987500624</speed>
  <fix>3d</fix>
</trkpt>
<trkpt lat="33.8098605" lon="-118.3950101">
  <ele>-24.4</ele>
  <time>2026-09-01T01:14:15Z</time>
  <course>268.77</course>
  <speed>0.99</speed>
  <fix>3d</fix>
</trkpt>
<trkpt lat="33.8098605" lon="-118.3950127">
  <ele>-25.012</ele>
  <time>2026-09-01T01:14:15Z</time>
  <course>359.02</course>
  <speed>1.0000499987500624</speed>
  <fix>3d</fix>
</trkpt>
<trkpt lat="33.8098605" lon="-118.3950101">
  <ele>-24.4</ele>
  <time>2026-09-01T01:14:15Z</time>
  <course>268.77</course>
  <speed>0.99</speed>
  <fix>3d</fix>
</trkpt>
<trkpt lat="33.8098605" lon="-118.3950138">
  <ele>-25.013</ele>
  <time>2026-09-01T01:14:15Z</time>
  <course>359.13</course>
  <speed>1.0000499987500624</speed>
  <fix>3d</fix>
</trkpt>
<trkpt lat="33.8098605" lon="-118.3950123">
  <ele>-24.4</ele>
  <time>2026-09-01T01:14:15Z</time>
  <course>268.98</course>
  <speed>0.99</speed>
  <fix>3d</fix>
</trkpt>
<trkpt lat="33.8098605" lon="-118.3950148">
  <ele>-25.013</ele>
  <time>2026-09-01T01:14:15Z</time>
  <course>359.24</course>
  <speed>1.0</speed>
  <fix>3d</fix>
</trkpt>
<trkpt lat="33.8098605" lon="-118.3950123">
  <ele>-24.4</ele>
  <time>2026-09-01T01:14:15Z</time>
  <course>268.98</course>
  <speed>0.99</speed>
  <fix>3d</fix>
</trkpt>
<trkpt lat="33.8098605" lon="-118.3950159">
  <ele>-25.012</ele>
  <time>2026-09-01T01:14:15Z</time>
  <course>359.36</course>
  <speed>1.0</speed>
  <fix>3d</fix>
</trkpt>
<trkpt lat="33.8098605" lon="-118.3950144">
  <ele>-24.4</ele>
  <time>2026-09-01T01:14:15Z</time>
  <course>269.21</course>
  <speed>0.99</speed>
  <fix>3d</fix>
</trkpt>
<trkpt lat="33.8098605" lon="-118.395017">
  <ele>-25.011</ele>
  <time>2026-09-01T01:14:15Z</time>
  <course>359.47</course>
  <speed>1.0</speed>
  <fix>3d</fix>
</trkpt>
<trkpt lat="33.8098605" lon="-118.3950144">
  <ele>-24.4</ele>
  <time>2026-09-01T01:14:15Z</time>
  <course>269.21</course>
  <speed>0.99</speed>
  <fix>3d</fix>
</trkpt>
<trkpt lat="33.8098605" lon="-118.3950181">
  <ele>-25.012</ele>
  <time>2026-09-01T01:14:15Z</time>
  <course>359.58</course>
  <speed>1.0</speed>
  <fix>3d</fix>
</trkpt>
<trkpt lat="33.8098605" lon="-118.3950166">
  <ele>-24.4</ele>
  <time>2026-09-01T01:14:15Z</time>
  <course>269.44</course>
  <speed>0.99</speed>
  <fix>3d</fix>
</trkpt>
<trkpt lat="33.8098605" lon="-118.3950192">
  <ele>-25.013</ele>
  <time>2026-09-01T01:14:15Z</time>
  <course>359.7</course>
  <speed>1.0</speed>
  <fix>3d</fix>
</trkpt>
<trkpt lat="33.8098605" lon="-118.3950166">
  <ele>-24.4</ele>
  <time>2026-09-01T01:14:15Z</time>
  <course>269.44</course>
  <speed>0.99</speed>
  <fix>3d</fix>
</trkpt>
<trkpt lat="33.8098605" lon="-118.3950202">
  <ele>-25.014</ele>
  <time>2026-09-01T01:14:15Z</time>
  <course>359.81</course>
  <speed>1.0</speed>
  <fix>3d</fix>
</trkpt>
<trkpt lat="33.8098605" lon="-118.3950188">
  <ele>-24.41</ele>
  <time>2026-09-01T01:14:15Z</time>
  <course>269.62</course>
  <speed>0.99</speed>
  <fix>3d</fix>
</trkpt>
<trkpt lat="33.8098605" lon="-118.3950213">
  <ele>-25.014</ele>
  <time>2026-09-01T01:14:15Z</time>
  <course>359.93</course>
  <speed>1.0</speed>
  <fix>3d</fix>
</trkpt>
<trkpt lat="33.8098605" lon="-118.3950188">
  <ele>-24.41</ele>
  <time>2026-09-01T01:14:15Z</time>
  <course>269.62</course>
  <speed>0.99</speed>
  <fix>3d</fix>
</trkpt>
<trkpt lat="33.8098605" lon="-118.3950224">
  <ele>-25.013</ele>
  <time>2026-09-01T01:14:15Z</time>
  <course>0.03</course>
  <speed>1.0</speed>
  <fix>3d</fix>
</trkpt>
<trkpt lat="33.8098605" lon="-118.3950209">
  <ele>-24.41</ele>
  <time>2026-09-01T01:14:15Z</time>
  <course>269.75</course>
  <speed>0.99</speed>
  <fix>3d</fix>
</trkpt>
<trkpt lat="33.8098605" lon="-118.3950235">
  <ele>-25.014</ele>
  <time>2026-09-01T01:14:15Z</time>
  <course>0.15</course>
  <speed>1.0</speed>
  <fix>3d</fix>
</trkpt>
<trkpt lat="33.8098605" lon="-118.3950209">
  <ele>-24.41</ele>
  <time>2026-09-01T01:14:15Z</time>
  <course>269.75</course>
  <speed>0.99</speed>
  <fix>3d</fix>
</trkpt>
<trkpt lat="33.8098605" lon="-118.3950246">
  <ele>-25.015</ele>
  <time>2026-09-01T01:14:15Z</time>
  <course>0.26</course>
  <speed>1.0</speed>
  <fix>3d</fix>
</trkpt>
<trkpt lat="33.8098605" lon="-118.3950231">
  <ele>-24.41</ele>
  <time>2026-09-01T01:14:15Z</time>
  <course>269.9</course>
  <speed>0.99</speed>
  <fix>3d</fix>
</trkpt>
<trkpt lat="33.8098605" lon="-118.3950257">
  <ele>-25.016</ele>
  <time>2026-09-01T01:14:15Z</time>
  <course>0.38</course>
  <speed>1.0</speed>
  <fix>3d</fix>
</trkpt>
<trkpt lat="33.8098605" lon="-118.3950231">
  <ele>-24.41</ele>
  <time>2026-09-01T01:14:15Z</time>
  <course>269.9</course>
  <speed>0.99</speed>
  <fix>3d</fix>
</trkpt>
<trkpt lat="33.8098605" lon="-118.3950267">
  <ele>-25.017</ele>
  <time>2026-09-01T01:14:15Z</time>
  <course>0.49</course>
  <speed>1.0000499987500624</speed>
  <fix>3d</fix>
</trkpt>
<trkpt lat="33.8098605" lon="-118.3950252">
  <ele>-24.41</ele>
  <time>2026-09-01T01:14:15Z</time>
  <course>270.08</course>
  <speed>0.99</speed>
  <fix>3d</fix>
</trkpt>
<trkpt lat="33.8098605" lon="-118.3950278">
  <ele>-25.016</ele>
  <time>2026-09-01T01:14:15Z</time>
  <course>0.6</course>
  <speed>1.0000499987500624</speed>
  <fix>3d</fix>
</trkpt>
<trkpt lat="33.8098605" lon="-118.3950252">
  <ele>-24.41</ele>
  <time>2026-09-01T01:14:15Z</time>
  <course>270.08</course>
  <speed>0.99</speed>
  <fix>3d</fix>
</trkpt>
<trkpt lat="33.8098605" lon="-118.3950289">
  <ele>-25.014</ele>
  <time>2026-09-01T01:14:15Z</time>
  <course>0.72</course>
  <speed>1.0000499987500624</speed>
  <fix>3d</fix>
</trkpt>
<trkpt lat="33.8098605" lon="-118.3950274">
  <ele>-24.41</ele>
  <time>2026-09-01T01:14:15Z</time>
  <course>270.29</course>
  <speed>0.99</speed>
  <fix>3d</fix>
</trkpt>
<trkpt lat="33.8098605" lon="-118.39503">
  <ele>-25.012</ele>
  <time>2026-09-01T01:14:15Z</time>
  <course>0.83</course>
  <speed>1.0000499987500624</speed>
  <fix>3d</fix>
</trkpt>
<trkpt lat="33.8098605" lon="-118.3950274">
  <ele>-24.41</ele>
  <time>2026-09-01T01:14:15Z</time>
  <course>270.29</course>
  <speed>0.99</speed>
  <fix>3d</fix>
</trkpt>
<trkpt lat="33.8098605" lon="-118.3950311">
  <ele>-25.01</ele>
  <time>2026-09-01T01:14:15Z</time>
  <course>0.95</course>
  <speed>1.000199980003999</speed>
  <fix>3d</fix>
</trkpt>
<trkpt lat="33.8098605" lon="-118.3950295">
  <ele>-24.4</ele>
  <time>2026-09-01T01:14:15Z</time>
  <course>270.52</course>
  <speed>0.99</speed>
  <fix>3d</fix>
</trkpt>
<trkpt lat="33.8098605" lon="-118.3950321">
  <ele>-25.01</ele>
  <time>2026-09-01T01:14:15Z</time>
  <course>1.06</course>
  <speed>1.000199980003999</speed>
  <fix>3d</fix>
</trkpt>
<trkpt lat="33.8098605" lon="-118.3950295">
  <ele>-24.4</ele>
  <time>2026-09-01T01:14:15Z</time>
  <course>270.52</course>
  <speed>0.99</speed>
  <fix>3d</fix>
</trkpt>
<trkpt lat="33.8098605" lon="-118.3950332">
  <ele>-25.01</ele>
  <time>2026-09-01T01:14:15Z</time>
  <course>1.18</course>
  <speed>1.000199980003999</speed>
  <fix>3d</fix>
</trkpt>
<trkpt lat="33.8098605" lon="-118.3950317">
  <ele>-24.4</ele>
  <time>2026-09-01T01:14:15Z</time>
  <course>270.79</course>
  <speed>0.99</speed>
  <fix>3d</fix>
</trkpt>
<trkpt lat="33.8098605" lon="-118.3950343">
  <ele>-25.009</ele>
  <time>2026-09-01T01:14:15Z</time>
  <course>1.3</course>
  <speed>1.000199980003999</speed>
  <fix>3d</fix>
</trkpt>
<trkpt lat="33.8098605" lon="-118.3950317">
  <ele>-24.4</ele>
  <time>2026-09-01T01:14:15Z</time>
  <course>270.79</course>
  <speed>0.99</speed>
  <fix>3d</fix>
</trkpt>
<trkpt lat="33.8098606" lon="-118.3950354">
  <ele>-25.009</ele>
  <time>2026-09-01T01:14:15Z</time>
  <course>1.41</course>
  <speed>1.0004498987955368</speed>
  <fix>3d</fix>
</trkpt>
<trkpt lat="33.8098605" lon="-118.3950338">
  <ele>-24.4</ele>
  <time>2026-09-01T01:14:15Z</time>
  <course>271.09</course>
  <speed>0.99</speed>
  <fix>3d</fix>
</trkpt>
<trkpt lat="33.8098606" lon="-118.3950365">
  <ele>-25.011</ele>
  <time>2026-09-01T01:14:15Z</time>
  <course>1.52</course>
  <speed>1.0004498987955368</speed>
  <fix>3d</fix>
</trkpt>
<trkpt lat="33.8098605" lon="-118.3950338">
  <ele>-24.4</ele>
  <time>2026-09-01T01:14:15Z</time>
  <course>271.09</course>
  <speed>0.99</speed>
  <fix>3d</fix>
</trkpt>
<trkpt lat="33.8098606" lon="-118.3950375">
  <ele>-25.011</ele>
  <time>2026-09-01T01:14:15Z</time>
  <course>1.64</course>
  <speed>1.0004498987955368</speed>
  <fix>3d</fix>
</trkpt>
<trkpt lat="33.8098605" lon="-118.395036">
  <ele>-24.41</ele>
  <time>2026-09-01T01:14:15Z</time>
  <course>271.42</course>
  <speed>0.99</speed>
  <fix>3d</fix>
</trkpt>
<trkpt lat="33.8098606" lon="-118.3950386">
  <ele>-25.011</ele>
  <time>2026-09-01T01:14:15Z</time>
  <course>1.76</course>
  <speed>1.0007996802557444</speed>
  <fix>3d</fix>
</trkpt>
<trkpt lat="33.8098605" lon="-118.395036">
  <ele>-24.41</ele>
  <time>2026-09-01T01:14:15Z</time>
  <course>271.42</course>
  <speed>0.99</speed>
  <fix>3d</fix>
</trkpt>
<trkpt lat="33.8098607" lon="-118.3950397">
  <ele>-25.011</ele>
  <time>2026-09-01T01:14:15Z</time>
  <course>1.87</course>
  <speed>1.0007996802557444</speed>
  <fix>3d</fix>
</trkpt>
<trkpt lat="33.8098605" lon="-118.3950381">
  <ele>-24.41</ele>
  <time>2026-09-01T01:14:15Z</time>
  <course>271.79</course>
  <speed>0.99</speed>
  <fix>3d</fix>
</trkpt>
<trkpt lat="33.8098607" lon="-118.3950408">
  <ele>-25.012</ele>
  <time>2026-09-01T01:14:15Z</time>
  <course>1.98</course>
  <speed>1.0007996802557444</speed>
  <fix>3d</fix>
</trkpt>
<trkpt lat="33.8098605" lon="-118.3950381">
  <ele>-24.41</ele>
  <time>2026-09-01T01:14:15Z</time>
  <course>271.79</course>
  <speed>0.99</speed>
  <fix>3d</fix>
</trkpt>
<trkpt lat="33.8098607" lon="-118.3950419">
  <ele>-25.012</ele>
  <time>2026-09-01T01:14:15Z</time>
  <course>2.1</course>
  <speed>1.0012492197250393</speed>
  <fix>3d</fix>
</trkpt>
<trkpt lat="33.8098605" lon="-118.3950403">
  <ele>-24.41</ele>
  <time>2026-09-01T01:14:15Z</time>
  <course>272.18</course>
  <speed>1.0</speed>
  <fix>3d</fix>
</trkpt>
<trkpt lat="33.8098608" lon="-118.3950429">
  <ele>-25.013</ele>
  <time>2026-09-01T01:14:15Z</time>
  <course>2.21</course>
  <speed>1.0012492197250393</speed>
  <fix>3d</fix>
</trkpt>
<trkpt lat="33.8098605" lon="-118.3950403">
  <ele>-24.41</ele>
  <time>2026-09-01T01:14:15Z</time>
  <course>272.18</course>
  <speed>1.0</speed>
  <fix>3d</fix>
</trkpt>
<trkpt lat="33.8098608" lon="-118.395044">
  <ele>-25.015</ele>
  <time>2026-09-01T01:14:15Z</time>
  <course>2.33</course>
  <speed>1.0012492197250393</speed>
  <fix>3d</fix>
</trkpt>
<trkpt lat="33.8098606" lon="-118.3950425">
  <ele>-24.41</ele>
  <time>2026-09-01T01:14:15Z</time>
  <course>272.6</course>
  <speed>1.0</speed>
  <fix>3d</fix>
</trkpt>
<trkpt lat="33.8098608" lon="-118.3950451">
  <ele>-25.016</ele>
  <time>2026-09-01T01:14:15Z</time>
  <course>2.44</course>
  <speed>1.0017983829094554</speed>
  <fix>3d</fix>
</trkpt>
<trkpt lat="33.8098606" lon="-118.3950425">
  <ele>-24.41</ele>
  <time>2026-09-01T01:14:15Z</time>
  <course>272.6</course>
  <speed>1.0</speed>
  <fix>3d</fix>
</trkpt>
<trkpt lat="33.8098609" lon="-118.3950462">
  <ele>-25.018</ele>
  <time>2026-09-01T01:14:15Z</time>
  <course>2.55</course>
  <speed>1.0017983829094554</speed>
  <fix>3d</fix>
</trkpt>
<trkpt lat="33.8098607" lon="-118.3950447">
  <ele>-24.42</ele>
  <time>2026-09-01T01:14:15Z</time>
  <course>273.03</course>
  <speed>1.0</speed>
  <fix>3d</fix>
</trkpt>
<trkpt lat="33.8098609" lon="-118.3950473">
  <ele>-25.019</ele>
  <time>2026-09-01T01:14:15Z</time>
  <course>2.67</course>
  <speed>1.0017983829094554</speed>
  <fix>3d</fix>
</trkpt>
<trkpt lat="33.8098607" lon="-118.3950447">
  <ele>-24.42</ele>
  <time>2026-09-01T01:14:15Z</time>
  <course>273.03</course>
  <speed>1.0</speed>
  <fix>3d</fix>
</trkpt>
<trkpt lat="33.809861" lon="-118.3950483">
  <ele>-25.02</ele>
  <time>2026-09-01T01:14:15Z</time>
  <course>2.79</course>
  <speed>1.0017983829094554</speed>
  <fix>3d</fix>
</trkpt>
<trkpt lat="33.8098608" lon="-118.3950468">
  <ele>-24.42</ele>
  <time>2026-09-01T01:14:15Z</time>
  <course>273.39</course>
  <speed>0.99</speed>
  <fix>3d</fix>
</trkpt>
<trkpt lat="33.809861" lon="-118.3950494">
  <ele>-25.02</ele>
  <time>2026-09-01T01:14:15Z</time>
  <course>2.9</course>
  <speed>1.0017983829094554</speed>
  <fix>3d</fix>
</trkpt>
<trkpt lat="33.8098608" lon="-118.3950468">
  <ele>-24.42</ele>
  <time>2026-09-01T01:14:15Z</time>
  <course>273.39</course>
  <speed>0.99</speed>
  <fix>3d</fix>
</trkpt>
<trkpt lat="33.8098611" lon="-118.3950505">
  <ele>-25.019</ele>
  <time>2026-09-01T01:14:15Z</time>
  <course>3.01</course>
  <speed>1.0024470060806208</speed>
  <fix>3d</fix>
</trkpt>
<trkpt lat="33.8098609" lon="-118.395049">
  <ele>-24.41</ele>
  <time>2026-09-01T01:14:15Z</time>
  <course>273.68</course>
  <speed>0.99</speed>
  <fix>3d</fix>
</trkpt>
<trkpt lat="33.8098611" lon="-118.3950516">
  <ele>-25.018</ele>
  <time>2026-09-01T01:14:15Z</time>
  <course>3.13</course>
  <speed>1.0024470060806208</speed>
  <fix>3d</fix>
</trkpt>
<trkpt lat="33.8098609" lon="-118.395049">
  <ele>-24.41</ele>
  <time>2026-09-01T01:14:15Z</time>
  <course>273.68</course>
  <speed>0.99</speed>
  <fix>3d</fix>
</trkpt>
<trkpt lat="33.8098612" lon="-118.3950527">
  <ele>-25.017</ele>
  <time>2026-09-01T01:14:15Z</time>
  <course>3.24</course>
  <speed>1.0024470060806208</speed>
  <fix>3d</fix>
</trkpt>
<trkpt lat="33.809861" lon="-118.3950511">
  <ele>-24.41</ele>
  <time>2026-09-01T01:14:15Z</time>
  <course>273.92</course>
  <speed>0.99</speed>
  <fix>3d</fix>
</trkpt>
<trkpt lat="33.8098612" lon="-118.3950538">
  <ele>-25.015</ele>
  <time>2026-09-01T01:14:15Z</time>
  <course>3.36</course>
  <speed>1.0024470060806208</speed>
  <fix>3d</fix>
</trkpt>
<trkpt lat="33.809861" lon="-118.3950511">
  <ele>-24.41</ele>
  <time>2026-09-01T01:14:15Z</time>
  <course>273.92</course>
  <speed>0.99</speed>
  <fix>3d</fix>
</trkpt>
<trkpt lat="33.8098613" lon="-118.3950548">
  <ele>-25.014</ele>
  <time>2026-09-01T01:14:15Z</time>
  <course>3.47</course>
  <speed>1.0024470060806208</speed>
  <fix>3d</fix>
</trkpt>
<trkpt lat="33.8098612" lon="-118.3950533">
  <ele>-24.41</ele>
  <time>2026-09-01T01:14:15Z</time>
  <course>274.14</course>
  <speed>0.99</speed>
  <fix>3d</fix>
</trkpt>
<trkpt lat="33.8098613" lon="-118.3950559">
  <ele>-25.015</ele>
  <time>2026-09-01T01:14:15Z</time>
  <course>3.59</course>
  <speed>1.0024470060806208</speed>
  <fix>3d</fix>
</trkpt>
<trkpt lat="33.8098612" lon="-118.3950533">
  <ele>-24.41</ele>
  <time>2026-09-01T01:14:15Z</time>
  <course>274.14</course>
  <speed>0.99</speed>
  <fix>3d</fix>
</trkpt>
<trkpt lat="33.8098614" lon="-118.395057">
  <ele>-25.015</ele>
  <time>2026-09-01T01:14:15Z</time>
  <course>3.7</course>
  <speed>1.0024470060806208</speed>
  <fix>3d</fix>
</trkpt>
<trkpt lat="33.8098613" lon="-118.3950554">
  <ele>-24.41</ele>
  <time>2026-09-01T01:14:15Z</time>
  <course>274.32</course>
  <speed>0.99</speed>
  <fix>3d</fix>
</trkpt>
<trkpt lat="33.8098615" lon="-118.3950581">
  <ele>-25.015</ele>
  <time>2026-09-01T01:14:15Z</time>
  <course>3.81</course>
  <speed>1.0031948963187562</speed>
  <fix>3d</fix>
</trkpt>
<trkpt lat="33.8098613" lon="-118.3950554">
  <ele>-24.41</ele>
  <time>2026-09-01T01:14:15Z</time>
  <course>274.32</course>
  <speed>0.99</speed>
  <fix>3d</fix>
</trkpt>
<trkpt lat="33.8098615" lon="-118.3950592">
  <ele>-25.015</ele>
  <time>2026-09-01T01:14:15Z</time>
  <course>3.93</course>
  <speed>1.0031948963187562</speed>
  <fix>3d</fix>
</trkpt>
<trkpt lat="33.8098614" lon="-118.3950576">
  <ele>-24.4</ele>
  <time>2026-09-01T01:14:15Z</time>
  <course>274.45</course>
  <speed>0.99</speed>
  <fix>3d</fix>
</trkpt>
<trkpt lat="33.8098616" lon="-118.3950602">
  <ele>-25.014</ele>
  <time>2026-09-01T01:14:15Z</time>
  <course>4.05</course>
  <speed>1.0031948963187562</speed>
  <fix>3d</fix>
</trkpt>
<trkpt lat="33.8098614" lon="-118.3950576">
  <ele>-24.4</ele>
  <time>2026-09-01T01:14:15Z</time>
  <course>274.45</course>
  <speed>0.99</speed>
  <fix>3d</fix>
</trkpt>
<trkpt lat="33.8098617" lon="-118.3950613">
  <ele>-25.011</ele>
  <time>2026-09-01T01:14:15Z</time>
  <course>4.16</course>
  <speed>1.0031948963187562</speed>
  <fix>3d</fix>
</trkpt>
<trkpt lat="33.8098616" lon="-118.3950597">
  <ele>-24.4</ele>
  <time>2026-09-01T01:14:15Z</time>
  <course>274.6</course>
  <speed>0.99</speed>
  <fix>3d</fix>
</trkpt>
<trkpt lat="33.8098618" lon="-118.3950624">
  <ele>-25.01</ele>
  <time>2026-09-01T01:14:15Z</time>
  <course>4.27</course>
  <speed>1.0031948963187562</speed>
  <fix>3d</fix>
</trkpt>
<trkpt lat="33.8098616" lon="-118.3950597">
  <ele>-24.4</ele>
  <time>2026-09-01T01:14:15Z</time>
  <course>274.6</course>
  <speed>0.99</speed>
  <fix>3d</fix>
</trkpt>
<trkpt lat="33.8098618" lon="-118.3950635">
  <ele>-25.01</ele>
  <time>2026-09-01T01:14:15Z</time>
  <course>4.39</course>
  <speed>1.0031948963187562</speed>
  <fix>3d</fix>
</trkpt>
<trkpt lat="33.8098617" lon="-118.3950619">
  <ele>-24.4</ele>
  <time>2026-09-01T01:14:15Z</time>
  <course>274.75</course>
  <speed>0.99</speed>
  <fix>3d</fix>
</trkpt>
<trkpt lat="33.8098619" lon="-118.3950645">
  <ele>-25.01</ele>
  <time>2026-09-01T01:14:15Z</time>
  <course>4.5</course>
  <speed>1.0031948963187562</speed>
  <fix>3d</fix>
</trkpt>
<trkpt lat="33.8098617" lon="-118.3950619">
  <ele>-24.4</ele>
  <time>2026-09-01T01:14:15Z</time>
  <course>274.75</course>
  <speed>0.99</speed>
  <fix>3d</fix>
</trkpt>
<trkpt lat="33.809862" lon="-118.3950656">
  <ele>-25.01</ele>
  <time>2026-09-01T01:14:15Z</time>
  <course>4.62</course>
  <speed>1.004041831797859</speed>
  <fix>3d</fix>
</trkpt>
<trkpt lat="33.8098619" lon="-118.395064">
  <ele>-24.4</ele>
  <time>2026-09-01T01:14:15Z</time>
  <course>274.9</course>
  <speed>0.99</speed>
  <fix>3d</fix>
</trkpt>
<trkpt lat="33.8098621" lon="-118.3950667">
  <ele>-25.01</ele>
  <time>2026-09-01T01:14:15Z</time>
  <course>4.73</course>
  <speed>1.004041831797859</speed>
  <fix>3d</fix>
</trkpt>
<trkpt lat="33.8098619" lon="-118.395064">
  <ele>-24.4</ele>
  <time>2026-09-01T01:14:15Z</time>
  <course>274.9</course>
  <speed>0.99</speed>
  <fix>3d</fix>
</trkpt>
<trkpt lat="33.8098621" lon="-118.3950678">
  <ele>-25.01</ele>
  <time>2026-09-01T01:14:15Z</time>
  <course>4.85</course>
  <speed>1.004041831797859</speed>
  <fix>3d</fix>
</trkpt>
<trkpt lat="33.809862" lon="-118.3950662">
  <ele>-24.4</ele>
  <time>2026-09-01T01:14:15Z</time>
  <course>275.06</course>
  <speed>0.99</speed>
  <fix>3d</fix>
</trkpt>
<trkpt lat="33.8098622" lon="-118.3950688">
  <ele>-25.011</ele>
  <time>2026-09-01T01:14:15Z</time>
  <course>4.96</course>
  <speed>1.004041831797859</speed>
  <fix>3d</fix>
</trkpt>
<trkpt lat="33.809862" lon="-118.3950662">
  <ele>-24.4</ele>
  <time>2026-09-01T01:14:15Z</time>
  <course>275.06</course>
  <speed>0.99</speed>
  <fix>3d</fix>
</trkpt>
<trkpt lat="33.8098623" lon="-118.3950699">
  <ele>-25.013</ele>
  <time>2026-09-01T01:14:15Z</time>
  <course>5.08</course>
  <speed>1.004041831797859</speed>
  <fix>3d</fix>
</trkpt>
<trkpt lat="33.8098622" lon="-118.3950683">
  <ele>-24.4</ele>
  <time>2026-09-01T01:14:15Z</time>
  <course>275.24</course>
  <speed>0.99</speed>
  <fix>3d</fix>
</trkpt>
<trkpt lat="33.8098624" lon="-118.395071">
  <ele>-25.014</ele>
  <time>2026-09-01T01:14:15Z</time>
  <course>5.19</course>
  <speed>1.004987562112089</speed>
  <fix>3d</fix>
</trkpt>
<trkpt lat="33.8098622" lon="-118.3950683">
  <ele>-24.4</ele>
  <time>2026-09-01T01:14:15Z</time>
  <course>275.24</course>
  <speed>0.99</speed>
  <fix>3d</fix>
</trkpt>
<trkpt lat="33.8098625" lon="-118.3950721">
  <ele>-25.015</ele>
  <time>2026-09-01T01:14:15Z</time>
  <course>5.31</course>
  <speed>1.004987562112089</speed>
  <fix>3d</fix>
</trkpt>
<trkpt lat="33.8098624" lon="-118.3950705">
  <ele>-24.41</ele>
  <time>2026-09-01T01:14:15Z</time>
  <course>275.44</course>
  <speed>0.99</speed>
  <fix>3d</fix>
</trkpt>
<trkpt lat="33.8098626" lon="-118.3950732">
  <ele>-25.015</ele>
  <time>2026-09-01T01:14:15Z</time>
  <course>5.42</course>
  <speed>1.004987562112089</speed>
  <fix>3d</fix>
</trkpt>
<trkpt lat="33.8098624" lon="-118.3950705">
  <ele>-24.41</ele>
  <time>2026-09-01T01:14:15Z</time>
  <course>275.44</course>
  <speed>0.99</speed>
  <fix>3d</fix>
</trkpt>
<trkpt lat="33.8098627" lon="-118.3950742">
  <ele>-25.014</ele>
  <time>2026-09-01T01:14:16Z</time>
  <course>5.53</course>
  <speed>1.004987562112089</speed>
  <fix>3d</fix>
</trkpt>
<trkpt lat="33.8098626" lon="-118.3950726">
  <ele>-24.41</ele>
  <time>2026-09-01T01:14:16Z</time>
  <course>275.6</course>
  <speed>0.99</speed>
  <fix>3d</fix>
</trkpt>
<trkpt lat="33.8098627" lon="-118.3950753">
  <ele>-25.015</ele>
  <time>2026-09-01T01:14:16Z</time>
  <course>5.65</course>
  <speed>1.004987562112089</speed>
  <fix>3d</fix>
</trkpt>
<trkpt lat="33.8098626" lon="-118.3950726">
  <ele>-24.41</ele>
  <time>2026-09-01T01:14:16Z</time>
  <course>275.6</course>
  <speed>0.99</speed>
  <fix>3d</fix>
</trkpt>
<trkpt lat="33.8098628" lon="-118.3950764">
  <ele>-25.016</ele>
  <time>2026-09-01T01:14:16Z</time>
  <course>5.76</course>
  <speed>1.004987562112089</speed>
  <fix>3d</fix>
</trkpt>
<trkpt lat="33.8098627" lon="-118.3950748">
  <ele>-24.41</ele>
  <time>2026-09-01T01:14:16Z</time>
  <course>275.73</course>
  <speed>0.99</speed>
  <fix>3d</fix>
</trkpt>
<trkpt lat="33.8098629" lon="-118.3950775">
  <ele>-25.016</ele>
  <time>2026-09-01T01:14:16Z</time>
  <course>5.88</course>
  <speed>1.0060318086422517</speed>
  <fix>3d</fix>
</trkpt>
<trkpt lat="33.8098627" lon="-118.3950748">
  <ele>-24.41</ele>
  <time>2026-09-01T01:14:16Z</time>
  <course>275.73</course>
  <speed>0.99</speed>
  <fix>3d</fix>
</trkpt>
<trkpt lat="33.809863" lon="-118.3950785">
  <ele>-25.017</ele>
  <time>2026-09-01T01:14:16Z</time>
  <course>6.0</course>
  <speed>1.0060318086422517</speed>
  <fix>3d</fix>
</trkpt>
<trkpt lat="33.8098629" lon="-118.3950769">
  <ele>-24.41</ele>
  <time>2026-09-01T01:14:16Z</time>
  <course>275.9</course>
  <speed>1.0</speed>
  <fix>3d</fix>
</trkpt>
<trkpt lat="33.8098631" lon="-118.3950796">
  <ele>-25.016</ele>
  <time>2026-09-01T01:14:16Z</time>
  <course>6.11</course>
  <speed>1.0060318086422517</speed>
  <fix>3d</fix>
</trkpt>
<trkpt lat="33.8098629" lon="-118.3950769">
  <ele>-24.41</ele>
  <time>2026-09-01T01:14:16Z</time>
  <course>275.9</course>
  <speed>1.0</speed>
  <fix>3d</fix>
</trkpt>
<trkpt lat="33.8098632" lon="-118.3950807">
  <ele>-25.016</ele>
  <time>2026-09-01T01:14:16Z</time>
  <course>6.23</course>
  <speed>1.0060318086422517</speed>
  <fix>3d</fix>
</trkpt>
<trkpt lat="33.8098631" lon="-118.3950791">
  <ele>-24.41</ele>
  <time>2026-09-01T01:14:16Z</time>
  <course>276.11</course>
  <speed>1.0</speed>
  <fix>3d</fix>
</trkpt>
<trkpt lat="33.8098633" lon="-118.3950817">
  <ele>-25.015</ele>
  <time>2026-09-01T01:14:16Z</time>
  <course>6.34</course>
  <speed>1.0060318086422517</speed>
  <fix>3d</fix>
</trkpt>
<trkpt lat="33.8098631" lon="-118.3950791">
  <ele>-24.41</ele>
  <time>2026-09-01T01:14:16Z</time>
  <course>276.11</course>
  <speed>1.0</speed>
  <fix>3d</fix>
</trkpt>
<trkpt lat="33.8098634" lon="-118.3950828">
  <ele>-25.015</ele>
  <time>2026-09-01T01:14:16Z</time>
  <course>6.45</course>
  <speed>1.0071742649611337</speed>
  <fix>3d</fix>
</trkpt>
<trkpt lat="33.8098632" lon="-118.3950812">
  <ele>-24.41</ele>
  <time>2026-09-01T01:14:16Z</time>
  <course>276.33</course>
  <speed>1.0</speed>
  <fix>3d</fix>
</trkpt>
<trkpt lat="33.8098635" lon="-118.3950839">
  <ele>-25.015</ele>
  <time>2026-09-01T01:14:16Z</time>
  <course>6.57</course>
  <speed>1.0071742649611337</speed>
  <fix>3d</fix>
</trkpt>
<trkpt lat="33.8098632" lon="-118.3950812">
  <ele>-24.41</ele>
  <time>2026-09-01T01:14:16Z</time>
  <course>276.33</course>
  <speed>1.0</speed>
  <fix>3d</fix>
</trkpt>
<trkpt lat="33.8098636" lon="-118.395085">
  <ele>-25.015</ele>
  <time>2026-09-01T01:14:16Z</time>
  <course>6.68</course>
  <speed>1.0071742649611337</speed>
  <fix>3d</fix>
</trkpt>
<trkpt lat="33.8098635" lon="-118.3950834">
  <ele>-24.4</ele>
  <time>2026-09-01T01:14:16Z</time>
  <course>276.61</course>
  <speed>1.0</speed>
  <fix>3d</fix>
</trkpt>
<trkpt lat="33.8098637" lon="-118.395086">
  <ele>-25.015</ele>
  <time>2026-09-01T01:14:16Z</time>
  <course>6.79</course>
  <speed>1.0071742649611337</speed>
  <fix>3d</fix>
</trkpt>
<trkpt lat="33.8098635" lon="-118.3950834">
  <ele>-24.4</ele>
  <time>2026-09-01T01:14:16Z</time>
  <course>276.61</course>
  <speed>1.0</speed>
  <fix>3d</fix>
</trkpt>
<trkpt lat="33.8098638" lon="-118.3950871">
  <ele>-25.014</ele>
  <time>2026-09-01T01:14:16Z</time>
  <course>6.91</course>
  <speed>1.0084145972763385</speed>
  <fix>3d</fix>
</trkpt>
<trkpt lat="33.8098636" lon="-118.3950855">
  <ele>-24.4</ele>
  <time>2026-09-01T01:14:16Z</time>
  <course>276.88</course>
  <speed>1.0</speed>
  <fix>3d</fix>
</trkpt>
<trkpt lat="33.809864" lon="-118.3950882">
  <ele>-25.012</ele>
  <time>2026-09-01T01:14:16Z</time>
  <course>7.02</course>
  <speed>1.0084145972763385</speed>
  <fix>3d</fix>
</trkpt>
<trkpt lat="33.8098636" lon="-118.3950855">
  <ele>-24.4</ele>
  <time>2026-09-01T01:14:16Z</time>
  <course>276.88</course>
  <speed>1.0</speed>
  <fix>3d</fix>
</trkpt>
<trkpt lat="33.8098641" lon="-118.3950892">
  <ele>-25.01</ele>
  <time>2026-09-01T01:14:16Z</time>
  <course>7.14</course>
  <speed>1.0084145972763385</speed>
  <fix>3d</fix>
</trkpt>
<trkpt lat="33.8098639" lon="-118.3950878">
  <ele>-24.4</ele>
  <time>2026-09-01T01:14:16Z</time>
  <course>277.13</course>
  <speed>1.0</speed>
  <fix>3d</fix>
</trkpt>
<trkpt lat="33.8098642" lon="-118.3950903">
  <ele>-25.008</ele>
  <time>2026-09-01T01:14:16Z</time>
  <course>7.25</course>
  <speed>1.0084145972763385</speed>
  <fix>3d</fix>
</trkpt>
<trkpt lat="33.8098639" lon="-118.3950878">
  <ele>-24.4</ele>
  <time>2026-09-01T01:14:16Z</time>
  <course>277.13</course>
  <speed>1.0</speed>
  <fix>3d</fix>
</trkpt>
<trkpt lat="33.8098643" lon="-118.3950914">
  <ele>-25.007</ele>
  <time>2026-09-01T01:14:16Z</time>
  <course>7.37</course>
  <speed>1.009752444909147</speed>
  <fix>3d</fix>
</trkpt>
<trkpt lat="33.8098642" lon="-118.3950899">
  <ele>-24.4</ele>
  <time>2026-09-01T01:14:16Z</time>
  <course>277.42</course>
  <speed>1.0</speed>
  <fix>3d</fix>
</trkpt>
<trkpt lat="33.8098644" lon="-118.3950925">
  <ele>-25.006</ele>
  <time>2026-09-01T01:14:16Z</time>
  <course>7.48</course>
  <speed>1.009752444909147</speed>
  <fix>3d</fix>
</trkpt>
<trkpt lat="33.8098642" lon="-118.3950899">
  <ele>-24.4</ele>
  <time>2026-09-01T01:14:16Z</time>
  <course>277.42</course>
  <speed>1.0</speed>
  <fix>3d</fix>
</trkpt>
<trkpt lat="33.8098645" lon="-118.3950935">
  <ele>-25.005</ele>
  <time>2026-09-01T01:14:16Z</time>
  <course>7.6</course>
  <speed>1.009752444909147</speed>
  <fix>3d</fix>
</trkpt>
<trkpt lat="33.8098643" lon="-118.3950921">
  <ele>-24.4</ele>
  <time>2026-09-01T01:14:16Z</time>
  <course>277.64</course>
  <speed>1.0</speed>
  <fix>3d</fix>
</trkpt>
<trkpt lat="33.8098647" lon="-118.3950946">
  <ele>-25.006</ele>
  <time>2026-09-01T01:14:16Z</time>
  <course>7.71</course>
  <speed>1.009752444909147</speed>
  <fix>3d</fix>
</trkpt>
<trkpt lat="33.8098643" lon="-118.3950921">
  <ele>-24.4</ele>
  <time>2026-09-01T01:14:16Z</time>
  <course>277.64</course>
  <speed>1.0</speed>
  <fix>3d</fix>
</trkpt>
<trkpt lat="33.8098648" lon="-118.3950957">
  <ele>-25.007</ele>
  <time>2026-09-01T01:14:16Z</time>
  <course>7.83</course>
  <speed>1.009752444909147</speed>
  <fix>3d</fix>
</trkpt>
<trkpt lat="33.8098646" lon="-118.3950942">
  <ele>-24.4</ele>
  <time>2026-09-01T01:14:16Z</time>
  <course>277.84</course>
  <speed>1.0</speed>
  <fix>3d</fix>
</trkpt>
<trkpt lat="33.8098649" lon="-118.3950968">
  <ele>-25.01</ele>
  <time>2026-09-01T01:14:16Z</time>
  <course>7.94</course>
  <speed>1.0111874208078342</speed>
  <fix>3d</fix>
</trkpt>
<trkpt lat="33.8098646" lon="-118.3950942">
  <ele>-24.4</ele>
  <time>2026-09-01T01:14:16Z</time>
  <course>277.84</course>
  <speed>1.0</speed>
  <fix>3d</fix>
</trkpt>
<trkpt lat="33.809865" lon="-118.3950978">
  <ele>-25.012</ele>
  <time>2026-09-01T01:14:16Z</time>
  <course>8.06</course>
  <speed>1.0012991560967182</speed>
  <fix>3d</fix>
</trkpt>
<trkpt lat="33.8098648" lon="-118.3950964">
  <ele>-24.41</ele>
  <time>2026-09-01T01:14:16Z</time>
  <course>278.09</course>
  <speed>1.0</speed>
  <fix>3d</fix>
</trkpt>
<trkpt lat="33.8098652" lon="-118.3950989">
  <ele>-25.014</ele>
  <time>2026-09-01T01:14:16Z</time>
  <course>8.17</course>
  <speed>1.0012991560967182</speed>
  <fix>3d</fix>
</trkpt>
<trkpt lat="33.8098648" lon="-118.3950964">
  <ele>-24.41</ele>
  <time>2026-09-01T01:14:16Z</time>
  <course>278.09</course>
  <speed>1.0</speed>
  <fix>3d</fix>
</trkpt>
<trkpt lat="33.8098653" lon="-118.3951">
  <ele>-25.016</ele>
  <time>2026-09-01T01:14:16Z</time>
  <course>8.28</course>
  <speed>1.0012991560967182</speed>
  <fix>3d</fix>
</trkpt>
<trkpt lat="33.8098651" lon="-118.3950985">
  <ele>-24.41</ele>
  <time>2026-09-01T01:14:16Z</time>
  <course>278.36</course>
  <speed>1.0</speed>
  <fix>3d</fix>
</trkpt>
<trkpt lat="33.8098654" lon="-118.3951011">
  <ele>-25.017</ele>
  <time>2026-09-01T01:14:16Z</time>
  <course>8.39</course>
  <speed>1.002845950283492</speed>
  <fix>3d</fix>
</trkpt>
<trkpt lat="33.8098651" lon="-118.3950985">
  <ele>-24.41</ele>
  <time>2026-09-01T01:14:16Z</time>
  <course>278.36</course>
  <speed>1.0</speed>
  <fix>3d</fix>
</trkpt>
<trkpt lat="33.8098656" lon="-118.3951021">
  <ele>-25.018</ele>
  <time>2026-09-01T01:14:16Z</time>
  <course>8.51</course>
  <speed>1.002845950283492</speed>
  <fix>3d</fix>
</trkpt>
<trkpt lat="33.8098654" lon="-118.3951007">
  <ele>-24.42</ele>
  <time>2026-09-01T01:14:16Z</time>
  <course>278.63</course>
  <speed>1.0</speed>
  <fix>3d</fix>
</trkpt>
<trkpt lat="33.8098657" lon="-118.3951032">
  <ele>-25.019</ele>
  <time>2026-09-01T01:14:16Z</time>
  <course>8.63</course>
  <speed>1.002845950283492</speed>
  <fix>3d</fix>
</trkpt>
<trkpt lat="33.8098654" lon="-118.3951007">
  <ele>-24.42</ele>
  <time>2026-09-01T01:14:16Z</time>
  <course>278.63</course>
  <speed>1.0</speed>
  <fix>3d</fix>
</trkpt>
<trkpt lat="33.8098659" lon="-118.3951043">
  <ele>-25.018</ele>
  <time>2026-09-01T01:14:16Z</time>
  <course>8.74</course>
  <speed>1.002845950283492</speed>
  <fix>3d</fix>
</trkpt>
<trkpt lat="33.8098657" lon="-118.3951028">
  <ele>-24.42</ele>
  <time>2026-09-01T01:14:16Z</time>
  <course>278.84</course>
  <speed>1.0</speed>
  <fix>3d</fix>
</trkpt>
<trkpt lat="33.809866" lon="-118.3951053">
  <ele>-25.018</ele>
  <time>2026-09-01T01:14:16Z</time>
  <course>8.86</course>
  <speed>1.002845950283492</speed>
  <fix>3d</fix>
</trkpt>
<trkpt lat="33.8098657" lon="-118.3951028">
  <ele>-24.42</ele>
  <time>2026-09-01T01:14:16Z</time>
  <course>278.84</course>
  <speed>1.0</speed>
  <fix>3d</fix>
</trkpt>
<trkpt lat="33.8098661" lon="-118.3951064">
  <ele>-25.017</ele>
  <time>2026-09-01T01:14:16Z</time>
  <course>8.97</course>
  <speed>1.002845950283492</speed>
  <fix>3d</fix>
</trkpt>
<trkpt lat="33.8098659" lon="-118.3951049">
  <ele>-24.42</ele>
  <time>2026-09-01T01:14:16Z</time>
  <course>278.99</course>
  <speed>1.0</speed>
  <fix>3d</fix>
</trkpt>
<trkpt lat="33.8098663" lon="-118.3951075">
  <ele>-25.017</ele>
  <time>2026-09-01T01:14:16Z</time>
  <course>9.09</course>
  <speed>1.0044899203078146</speed>
  <fix>3d</fix>
</trkpt>
<trkpt lat="33.8098659" lon="-118.3951049">
  <ele>-24.42</ele>
  <time>2026-09-01T01:14:16Z</time>
  <course>278.99</course>
  <speed>1.0</speed>
  <fix>3d</fix>
</trkpt>
<trkpt lat="33.8098664" lon="-118.3951086">
  <ele>-25.018</ele>
  <time>2026-09-01T01:14:16Z</time>
  <course>9.2</course>
  <speed>1.0044899203078146</speed>
  <fix>3d</fix>
</trkpt>
<trkpt lat="33.8098662" lon="-118.3951071">
  <ele>-24.42</ele>
  <time>2026-09-01T01:14:16Z</time>
  <course>279.17</course>
  <speed>1.0</speed>
  <fix>3d</fix>
</trkpt>
<trkpt lat="33.8098666" lon="-118.3951096">
  <ele>-25.019</ele>
  <time>2026-09-01T01:14:16Z</time>
  <course>9.32</course>
  <speed>1.0044899203078146</speed>
  <fix>3d</fix>
</trkpt>
<trkpt lat="33.8098662" lon="-118.3951071">
  <ele>-24.42</ele>
  <time>2026-09-01T01:14:16Z</time>
  <course>279.17</course>
  <speed>1.0</speed>
  <fix>3d</fix>
</trkpt>
<trkpt lat="33.8098667" lon="-118.3951107">
  <ele>-25.021</ele>
  <time>2026-09-01T01:14:16Z</time>
  <course>9.43</course>
  <speed>1.0044899203078146</speed>
  <fix>3d</fix>
</trkpt>
<trkpt lat="33.8098665" lon="-118.3951092">
  <ele>-24.41</ele>
  <time>2026-09-01T01:14:16Z</time>
  <course>279.4</course>
  <speed>1.0</speed>
  <fix>3d</fix>
</trkpt>
<trkpt lat="33.8098669" lon="-118.3951118">
  <ele>-25.02</ele>
  <time>2026-09-01T01:14:16Z</time>
  <course>9.55</course>
  <speed>1.0044899203078146</speed>
  <fix>3d</fix>
</trkpt>
<trkpt lat="33.8098665" lon="-118.3951092">
  <ele>-24.41</ele>
  <time>2026-09-01T01:14:16Z</time>
  <course>279.4</course>
  <speed>1.0</speed>
  <fix>3d</fix>
</trkpt>
<trkpt lat="33.809867" lon="-118.3951128">
  <ele>-25.019</ele>
  <time>2026-09-01T01:14:16Z</time>
  <course>9.66</course>
  <speed>1.0062305898749053</speed>
  <fix>3d</fix>
</trkpt>
<trkpt lat="33.8098668" lon="-118.3951113">
  <ele>-24.41</ele>
  <time>2026-09-01T01:14:16Z</time>
  <course>279.65</course>
  <speed>1.0</speed>
  <fix>3d</fix>
</trkpt>
<trkpt lat="33.8098672" lon="-118.3951139">
  <ele>-25.016</ele>
  <time>2026-09-01T01:14:16Z</time>
  <course>9.78</course>
  <speed>1.0062305898749053</speed>
  <fix>3d</fix>
</trkpt>
<trkpt lat="33.8098668" lon="-118.3951113">
  <ele>-24.41</ele>
  <time>2026-09-01T01:14:16Z</time>
  <course>279.65</course>
  <speed>1.0</speed>
  <fix>3d</fix>
</trkpt>
<trkpt lat="33.8098673" lon="-118.3951149">
  <ele>-25.014</ele>
  <time>2026-09-01T01:14:16Z</time>
  <course>9.89</course>
  <speed>1.0062305898749053</speed>
  <fix>3d</fix>
</trkpt>
<trkpt lat="33.8098671" lon="-118.3951135">
  <ele>-24.41</ele>
  <time>2026-09-01T01:14:16Z</time>
  <course>279.89</course>
  <speed>1.0</speed>
  <fix>3d</fix>
</trkpt>
<trkpt lat="33.8098675" lon="-118.395116">
  <ele>-25.012</ele>
  <time>2026-09-01T01:14:16Z</time>
  <course>10.01</course>
  <speed>1.0062305898749053</speed>
  <fix>3d</fix>
</trkpt>
<trkpt lat="33.8098671" lon="-118.3951135">
  <ele>-24.41</ele>
  <time>2026-09-01T01:14:16Z</time>
  <course>279.89</course>
  <speed>1.0</speed>
  <fix>3d</fix>
</trkpt>
<trkpt lat="33.8098677" lon="-118.3951171">
  <ele>-25.011</ele>
  <time>2026-09-01T01:14:16Z</time>
  <course>10.12</course>
  <speed>1.0080674580602231</speed>
  <fix>3d</fix>
</trkpt>
<trkpt lat="33.8098674" lon="-118.3951156">
  <ele>-24.4</ele>
  <time>2026-09-01T01:14:16Z</time>
  <course>280.13</course>
  <speed>0.99</speed>
  <fix>3d</fix>
</trkpt>
<trkpt lat="33.8098678" lon="-118.3951181">
  <ele>-25.009</ele>
  <time>2026-09-01T01:14:16Z</time>
  <course>10.23</course>
  <speed>1.0080674580602231</speed>
  <fix>3d</fix>
</trkpt>
<trkpt lat="33.8098674" lon="-118.3951156">
  <ele>-24.4</ele>
  <time>2026-09-01T01:14:16Z</time>
  <course>280.13</course>
  <speed>0.99</speed>
  <fix>3d</fix>
</trkpt>
<trkpt lat="33.809868" lon="-118.3951192">
  <ele>-25.008</ele>
  <time>2026-09-01T01:14:16Z</time>
  <course>10.35</course>
  <speed>1.0080674580602231</speed>
  <fix>3d</fix>
</trkpt>
<trkpt lat="33.8098678" lon="-118.3951177">
  <ele>-24.4</ele>
  <time>2026-09-01T01:14:16Z</time>
  <course>280.37</course>
  <speed>0.99</speed>
  <fix>3d</fix>
</trkpt>
<trkpt lat="33.8098682" lon="-118.3951203">
  <ele>-25.008</ele>
  <time>2026-09-01T01:14:16Z</time>
  <course>10.46</course>
  <speed>1.0080674580602231</speed>
  <fix>3d</fix>
</trkpt>
<trkpt lat="33.8098678" lon="-118.3951177">
  <ele>-24.4</ele>
  <time>2026-09-01T01:14:16Z</time>
  <course>280.37</course>
  <speed>0.99</speed>
  <fix>3d</fix>
</trkpt>
<trkpt lat="33.8098683" lon="-118.3951213">
  <ele>-25.009</ele>
  <time>2026-09-01T01:14:16Z</time>
  <course>10.58</course>
  <speed>1.0080674580602231</speed>
  <fix>3d</fix>
</trkpt>
<trkpt lat="33.8098681" lon="-118.3951198">
  <ele>-24.4</ele>
  <time>2026-09-01T01:14:16Z</time>
  <course>280.57</course>
  <speed>0.99</speed>
  <fix>3d</fix>
</trkpt>
<trkpt lat="33.8098685" lon="-118.3951224">
  <ele>-25.01</ele>
  <time>2026-09-01T01:14:16Z</time>
  <course>10.69</course>
  <speed>1.0080674580602231</speed>
  <fix>3d</fix>
</trkpt>
<trkpt lat="33.8098681" lon="-118.3951198">
  <ele>-24.4</ele>
  <time>2026-09-01T01:14:16Z</time>
  <course>280.57</course>
  <speed>0.99</speed>
  <fix>3d</fix>
</trkpt>
<trkpt lat="33.8098687" lon="-118.3951235">
  <ele>-25.011</ele>
  <time>2026-09-01T01:14:16Z</time>
  <course>10.81</course>
  <speed>1.01</speed>
  <fix>3d</fix>
</trkpt>
<trkpt lat="33.8098684" lon="-118.3951219">
  <ele>-24.4</ele>
  <time>2026-09-01T01:14:16Z</time>
  <course>280.73</course>
  <speed>0.99</speed>
  <fix>3d</fix>
</trkpt>
<trkpt lat="33.8098688" lon="-118.3951245">
  <ele>-25.012</ele>
  <time>2026-09-01T01:14:16Z</time>
  <course>10.92</course>
  <speed>1.01</speed>
  <fix>3d</fix>
</trkpt>
<trkpt lat="33.8098684" lon="-118.3951219">
  <ele>-24.4</ele>
  <time>2026-09-01T01:14:16Z</time>
  <course>280.73</course>
  <speed>0.99</speed>
  <fix>3d</fix>
</trkpt>
<trkpt lat="33.809869" lon="-118.3951256">
  <ele>-25.012</ele>
  <time>2026-09-01T01:14:16Z</time>
  <course>11.04</course>
  <speed>1.01</speed>
  <fix>3d</fix>
</trkpt>
<trkpt lat="33.8098688" lon="-118.3951241">
  <ele>-24.41</ele>
  <time>2026-09-01T01:14:16Z</time>
  <course>280.91</course>
  <speed>0.99</speed>
  <fix>3d</fix>
</trkpt>
<trkpt lat="33.8098692" lon="-118.3951266">
  <ele>-25.013</ele>
  <time>2026-09-01T01:14:16Z</time>
  <course>11.15</course>
  <speed>1.01</speed>
  <fix>3d</fix>
</trkpt>
<trkpt lat="33.8098688" lon="-118.3951241">
  <ele>-24.41</ele>
  <time>2026-09-01T01:14:16Z</time>
  <course>280.91</course>
  <speed>0.99</speed>
  <fix>3d</fix>
</trkpt>
<trkpt lat="33.8098694" lon="-118.3951277">
  <ele>-25.015</ele>
  <time>2026-09-01T01:14:16Z</time>
  <course>11.27</course>
  <speed>1.01</speed>
  <fix>3d</fix>
</trkpt>
<trkpt lat="33.8098691" lon="-118.3951262">
  <ele>-24.41</ele>
  <time>2026-09-01T01:14:16Z</time>
  <course>281.11</course>
  <speed>0.99</speed>
  <fix>3d</fix>
</trkpt>
<trkpt lat="33.8098696" lon="-118.3951288">
  <ele>-25.017</ele>
  <time>2026-09-01T01:14:16Z</time>
  <course>11.38</course>
  <speed>1.01202766760598</speed>
  <fix>3d</fix>
</trkpt>
<trkpt lat="33.8098691" lon="-118.3951262">
  <ele>-24.41</ele>
  <time>2026-09-01T01:14:16Z</time>
  <course>281.11</course>
  <speed>0.99</speed>
  <fix>3d</fix>
</trkpt>
<trkpt lat="33.8098697" lon="-118.3951298">
  <ele>-25.018</ele>
  <time>2026-09-01T01:14:16Z</time>
  <course>11.5</course>
  <speed>1.01202766760598</speed>
  <fix>3d</fix>
</trkpt>
<trkpt lat="33.8098695" lon="-118.3951283">
  <ele>-24.41</ele>
  <time>2026-09-01T01:14:16Z</time>
  <course>281.3</course>
  <speed>0.99</speed>
  <fix>3d</fix>
</trkpt>
<trkpt lat="33.8098699" lon="-118.3951309">
  <ele>-25.017</ele>
  <time>2026-09-01T01:14:16Z</time>
  <course>11.61</course>
  <speed>1.01202766760598</speed>
  <fix>3d</fix>
</trkpt>
<trkpt lat="33.8098695" lon="-118.3951283">
  <ele>-24.41</ele>
  <time>2026-09-01T01:14:16Z</time>
  <course>281.3</course>
  <speed>0.99</speed>
  <fix>3d</fix>
</trkpt>
<trkpt lat="33.8098701" lon="-118.3951319">
  <ele>-25.015</ele>
  <time>2026-09-01T01:14:16Z</time>
  <course>11.72</course>
  <speed>1.0022474744293448</speed>
  <fix>3d</fix>
</trkpt>
<trkpt lat="33.8098698" lon="-118.3951305">
  <ele>-24.41</ele>
  <time>2026-09-01T01:14:16Z</time>
  <course>281.5</course>
  <speed>0.99</speed>
  <fix>3d</fix>
</trkpt>
<trkpt lat="33.8098703" lon="-118.395133">
  <ele>-25.013</ele>
  <time>2026-09-01T01:14:16Z</time>
  <course>11.84</course>
  <speed>1.0022474744293448</speed>
  <fix>3d</fix>
</trkpt>
<trkpt lat="33.8098698" lon="-118.3951305">
  <ele>-24.41</ele>
  <time>2026-09-01T01:14:16Z</time>
  <course>281.5</course>
  <speed>0.99</speed>
  <fix>3d</fix>
</trkpt>
<trkpt lat="33.8098705" lon="-118.3951341">
  <ele>-25.012</ele>
  <time>2026-09-01T01:14:16Z</time>
  <course>11.95</course>
  <speed>1.0043903623591774</speed>
  <fix>3d</fix>
</trkpt>
<trkpt lat="33.8098702" lon="-118.3951326">
  <ele>-24.41</ele>
  <time>2026-09-01T01:14:16Z</time>
  <course>281.73</course>
  <speed>0.99</speed>
  <fix>3d</fix>
</trkpt>
<trkpt lat="33.8098707" lon="-118.3951351">
  <ele>-25.013</ele>
  <time>2026-09-01T01:14:16Z</time>
  <course>12.07</course>
  <speed>1.0043903623591774</speed>
  <fix>3d</fix>
</trkpt>
<trkpt lat="33.8098702" lon="-118.3951326">
  <ele>-24.41</ele>
  <time>2026-09-01T01:14:16Z</time>
  <course>281.73</course>
  <speed>0.99</speed>
  <fix>3d</fix>
</trkpt>
<trkpt lat="33.8098709" lon="-118.3951362">
  <ele>-25.015</ele>
  <time>2026-09-01T01:14:16Z</time>
  <course>12.18</course>
  <speed>1.0043903623591774</speed>
  <fix>3d</fix>
</trkpt>
<trkpt lat="33.8098705" lon="-118.3951347">
  <ele>-24.41</ele>
  <time>2026-09-01T01:14:16Z</time>
  <course>281.99</course>
  <speed>0.99</speed>
  <fix>3d</fix>
</trkpt>
<trkpt lat="33.809871" lon="-118.3951372">
  <ele>-25.016</ele>
  <time>2026-09-01T01:14:16Z</time>
  <course>12.29</course>
  <speed>1.0043903623591774</speed>
  <fix>3d</fix>
</trkpt>
<trkpt lat="33.8098705" lon="-118.3951347">
  <ele>-24.41</ele>
  <time>2026-09-01T01:14:16Z</time>
  <course>281.99</course>
  <speed>0.99</speed>
  <fix>3d</fix>
</trkpt>
<trkpt lat="33.8098712" lon="-118.3951383">
  <ele>-25.017</ele>
  <time>2026-09-01T01:14:16Z</time>
  <course>12.41</course>
  <speed>1.006628034578811</speed>
  <fix>3d</fix>
</trkpt>
<trkpt lat="33.8098708" lon="-118.3951368">
  <ele>-24.41</ele>
  <time>2026-09-01T01:14:16Z</time>
  <course>282.27</course>
  <speed>0.99</speed>
  <fix>3d</fix>
</trkpt>
<trkpt lat="33.8098714" lon="-118.3951393">
  <ele>-25.018</ele>
  <time>2026-09-01T01:14:16Z</time>
  <course>12.53</course>
  <speed>1.006628034578811</speed>
  <fix>3d</fix>
</trkpt>
<trkpt lat="33.8098708" lon="-118.3951368">
  <ele>-24.41</ele>
  <time>2026-09-01T01:14:16Z</time>
  <course>282.27</course>
  <speed>0.99</speed>
  <fix>3d</fix>
</trkpt>
<trkpt lat="33.8098716" lon="-118.3951404">
  <ele>-25.017</ele>
  <time>2026-09-01T01:14:16Z</time>
  <course>12.64</course>
  <speed>1.006628034578811</speed>
  <fix>3d</fix>
</trkpt>
<trkpt lat="33.8098713" lon="-118.3951389">
  <ele>-24.41</ele>
  <time>2026-09-01T01:14:16Z</time>
  <course>282.6</course>
  <speed>0.99</speed>
  <fix>3d</fix>
</trkpt>
<trkpt lat="33.8098718" lon="-118.3951415">
  <ele>-25.015</ele>
  <time>2026-09-01T01:14:16Z</time>
  <course>12.76</course>
  <speed>1.0089598604503551</speed>
  <fix>3d</fix>
</trkpt>
<trkpt lat="33.8098713" lon="-118.3951389">
  <ele>-24.41</ele>
  <time>2026-09-01T01:14:16Z</time>
  <course>282.6</course>
  <speed>0.99</speed>
  <fix>3d</fix>
</trkpt>
<trkpt lat="33.809872" lon="-118.3951425">
  <ele>-25.012</ele>
  <time>2026-09-01T01:14:16Z</time>
  <course>12.87</course>
  <speed>1.0089598604503551</speed>
  <fix>3d</fix>
</trkpt>
<trkpt lat="33.8098717" lon="-118.395141">
  <ele>-24.4</ele>
  <time>2026-09-01T01:14:16Z</time>
  <course>282.95</course>
  <speed>0.99</speed>
  <fix>3d</fix>
</trkpt>
<trkpt lat="33.8098722" lon="-118.3951436">
  <ele>-25.01</ele>
  <time>2026-09-01T01:14:16Z</time>
  <course>12.98</course>
  <speed>1.0089598604503551</speed>
  <fix>3d</fix>
</trkpt>
<trkpt lat="33.8098717" lon="-118.395141">
  <ele>-24.4</ele>
  <time>2026-09-01T01:14:16Z</time>
  <course>282.95</course>
  <speed>0.99</speed>
  <fix>3d</fix>
</trkpt>
<trkpt lat="33.8098724" lon="-118.3951446">
  <ele>-25.008</ele>
  <time>2026-09-01T01:14:16Z</time>
  <course>13.1</course>
  <speed>1.0089598604503551</speed>
  <fix>3d</fix>
</trkpt>
<trkpt lat="33.809872" lon="-118.3951431">
  <ele>-24.4</ele>
  <time>2026-09-01T01:14:16Z</time>
  <course>283.22</course>
  <speed>0.99</speed>
  <fix>3d</fix>
</trkpt>
<trkpt lat="33.8098726" lon="-118.3951457">
  <ele>-25.006</ele>
  <time>2026-09-01T01:14:16Z</time>
  <course>13.22</course>
  <speed>1.0089598604503551</speed>
  <fix>3d</fix>
</trkpt>
<trkpt lat="33.809872" lon="-118.3951431">
  <ele>-24.4</ele>
  <time>2026-09-01T01:14:16Z</time>
  <course>283.22</course>
  <speed>0.99</speed>
  <fix>3d</fix>
</trkpt>
<trkpt lat="33.8098729" lon="-118.3951467">
  <ele>-25.006</ele>
  <time>2026-09-01T01:14:16Z</time>
  <course>13.33</course>
  <speed>1.0113851887386922</speed>
  <fix>3d</fix>
</trkpt>
<trkpt lat="33.8098725" lon="-118.3951452">
  <ele>-24.4</ele>
  <time>2026-09-01T01:14:16Z</time>
  <course>283.47</course>
  <speed>0.99</speed>
  <fix>3d</fix>
</trkpt>
<trkpt lat="33.8098731" lon="-118.3951478">
  <ele>-25.008</ele>
  <time>2026-09-01T01:14:16Z</time>
  <course>13.44</course>
  <speed>1.0113851887386922</speed>
  <fix>3d</fix>
</trkpt>
<trkpt lat="33.8098725" lon="-118.3951452">
  <ele>-24.4</ele>
  <time>2026-09-01T01:14:16Z</time>
  <course>283.47</course>
  <speed>0.99</speed>
  <fix>3d</fix>
</trkpt>
<trkpt lat="33.8098733" lon="-118.3951488">
  <ele>-25.01</ele>
  <time>2026-09-01T01:14:16Z</time>
  <course>13.56</course>
  <speed>1.0113851887386922</speed>
  <fix>3d</fix>
</trkpt>
<trkpt lat="33.8098729" lon="-118.3951473">
  <ele>-24.4</ele>
  <time>2026-09-01T01:14:16Z</time>
  <course>283.74</course>
  <speed>0.99</speed>
  <fix>3d</fix>
</trkpt>
<trkpt lat="33.8098735" lon="-118.3951499">
  <ele>-25.013</ele>
  <time>2026-09-01T01:14:16Z</time>
  <course>13.67</course>
  <speed>1.0113851887386922</speed>
  <fix>3d</fix>
</trkpt>
<trkpt lat="33.8098729" lon="-118.3951473">
  <ele>-24.4</ele>
  <time>2026-09-01T01:14:16Z</time>
  <course>283.74</course>
  <speed>0.99</speed>
  <fix>3d</fix>
</trkpt>
<trkpt lat="33.8098737" lon="-118.3951509">
  <ele>-25.016</ele>
  <time>2026-09-01T01:14:16Z</time>
  <course>13.79</course>
  <speed>1.0113851887386922</speed>
  <fix>3d</fix>
</trkpt>
<trkpt lat="33.8098734" lon="-118.3951494">
  <ele>-24.41</ele>
  <time>2026-09-01T01:14:16Z</time>
  <course>283.95</course>
  <speed>0.99</speed>
  <fix>3d</fix>
</trkpt>
<trkpt lat="33.8098739" lon="-118.395152">
  <ele>-25.016</ele>
  <time>2026-09-01T01:14:16Z</time>
  <course>13.9</course>
  <speed>1.0113851887386922</speed>
  <fix>3d</fix>
</trkpt>
<trkpt lat="33.8098734" lon="-118.3951494">
  <ele>-24.41</ele>
  <time>2026-09-01T01:14:16Z</time>
  <course>283.95</course>
  <speed>0.99</speed>
  <fix>3d</fix>
</trkpt>
<trkpt lat="33.8098742" lon="-118.395153">
  <ele>-25.016</ele>
  <time>2026-09-01T01:14:16Z</time>
  <course>14.01</course>
  <speed>1.0139033484509261</speed>
  <fix>3d</fix>
</trkpt>
<trkpt lat="33.8098738" lon="-118.3951515">
  <ele>-24.41</ele>
  <time>2026-09-01T01:14:16Z</time>
  <course>284.12</course>
  <speed>0.99</speed>
  <fix>3d</fix>
</trkpt>
<trkpt lat="33.8098744" lon="-118.3951541">
  <ele>-25.016</ele>
  <time>2026-09-01T01:14:16Z</time>
  <course>14.13</course>
  <speed>1.0139033484509261</speed>
  <fix>3d</fix>
</trkpt>
<trkpt lat="33.8098738" lon="-118.3951515">
  <ele>-24.41</ele>
  <time>2026-09-01T01:14:16Z</time>
  <course>284.12</course>
  <speed>0.99</speed>
  <fix>3d</fix>
</trkpt>
<trkpt lat="33.8098746" lon="-118.3951551">
  <ele>-25.015</ele>
  <time>2026-09-01T01:14:16Z</time>
  <course>14.24</course>
  <speed>1.0042410069301093</speed>
  <fix>3d</fix>
</trkpt>
<trkpt lat="33.8098742" lon="-118.3951536">
  <ele>-24.42</ele>
  <time>2026-09-01T01:14:16Z</time>
  <course>284.26</course>
  <speed>0.99</speed>
  <fix>3d</fix>
</trkpt>
<trkpt lat="33.8098748" lon="-118.3951562">
  <ele>-25.014</ele>
  <time>2026-09-01T01:14:16Z</time>
  <course>14.36</course>
  <speed>1.0042410069301093</speed>
  <fix>3d</fix>
</trkpt>
<trkpt lat="33.8098742" lon="-118.3951536">
  <ele>-24.42</ele>
  <time>2026-09-01T01:14:16Z</time>
  <course>284.26</course>
  <speed>0.99</speed>
  <fix>3d</fix>
</trkpt>
<trkpt lat="33.8098751" lon="-118.3951572">
  <ele>-25.014</ele>
  <time>2026-09-01T01:14:16Z</time>
  <course>14.47</course>
  <speed>1.0042410069301093</speed>
  <fix>3d</fix>
</trkpt>
<trkpt lat="33.8098746" lon="-118.3951557">
  <ele>-24.41</ele>
  <time>2026-09-01T01:14:16Z</time>
  <course>284.45</course>
  <speed>0.99</speed>
  <fix>3d</fix>
</trkpt>
<trkpt lat="33.8098753" lon="-118.3951582">
  <ele>-25.014</ele>
  <time>2026-09-01T01:14:16Z</time>
  <course>14.59</course>
  <speed>1.0068763578513502</speed>
  <fix>3d</fix>
</trkpt>
<trkpt lat="33.8098746" lon="-118.3951557">
  <ele>-24.41</ele>
  <time>2026-09-01T01:14:16Z</time>
  <course>284.45</course>
  <speed>0.99</speed>
  <fix>3d</fix>
</trkpt>
<trkpt lat="33.8098755" lon="-118.3951593">
  <ele>-25.014</ele>
  <time>2026-09-01T01:14:16Z</time>
  <course>14.7</course>
  <speed>1.0068763578513502</speed>
  <fix>3d</fix>
</trkpt>
<trkpt lat="33.8098751" lon="-118.3951577">
  <ele>-24.41</ele>
  <time>2026-09-01T01:14:16Z</time>
  <course>284.73</course>
  <speed>0.99</speed>
  <fix>3d</fix>
</trkpt>
<trkpt lat="33.8098757" lon="-118.3951603">
  <ele>-25.015</ele>
  <time>2026-09-01T01:14:16Z</time>
  <course>14.82</course>
  <speed>1.0068763578513502</speed>
  <fix>3d</fix>
</trkpt>
<trkpt lat="33.8098751" lon="-118.3951577">
  <ele>-24.41</ele>
  <time>2026-09-01T01:14:16Z</time>
  <course>284.73</course>
  <speed>0.99</speed>
  <fix>3d</fix>
</trkpt>
<trkpt lat="33.809876" lon="-118.3951614">
  <ele>-25.015</ele>
  <time>2026-09-01T01:14:16Z</time>
  <course>14.93</course>
  <speed>1.0068763578513502</speed>
  <fix>3d</fix>
</trkpt>
<trkpt lat="33.8098756" lon="-118.3951598">
  <ele>-24.41</ele>
  <time>2026-09-01T01:14:16Z</time>
  <course>285.01</course>
  <speed>0.99</speed>
  <fix>3d</fix>
</trkpt>
<trkpt lat="33.8098762" lon="-118.3951624">
  <ele>-25.015</ele>
  <time>2026-09-01T01:14:16Z</time>
  <course>15.04</course>
  <speed>1.0068763578513502</speed>
  <fix>3d</fix>
</trkpt>
<trkpt lat="33.8098756" lon="-118.3951598">
  <ele>-24.41</ele>
  <time>2026-09-01T01:14:16Z</time>
  <course>285.01</course>
  <speed>0.99</speed>
  <fix>3d</fix>
</trkpt>
<trkpt lat="33.8098765" lon="-118.3951635">
  <ele>-25.016</ele>
  <time>2026-09-01T01:14:16Z</time>
  <course>15.16</course>
  <speed>1.009603882718366</speed>
  <fix>3d</fix>
</trkpt>
<trkpt lat="33.809876" lon="-118.3951619">
  <ele>-24.41</ele>
  <time>2026-09-01T01:14:16Z</time>
  <course>285.22</course>
  <speed>0.99</speed>
  <fix>3d</fix>
</trkpt>
<trkpt lat="33.8098767" lon="-118.3951645">
  <ele>-25.017</ele>
  <time>2026-09-01T01:14:16Z</time>
  <course>15.28</course>
  <speed>1.009603882718366</speed>
  <fix>3d</fix>
</trkpt>
<trkpt lat="33.809876" lon="-118.3951619">
  <ele>-24.41</ele>
  <time>2026-09-01T01:14:16Z</time>
  <course>285.22</course>
  <speed>0.99</speed>
  <fix>3d</fix>
</trkpt>
<trkpt lat="33.8098769" lon="-118.3951655">
  <ele>-25.017</ele>
  <time>2026-09-01T01:14:16Z</time>
  <course>15.39</course>
  <speed>1.009603882718366</speed>
  <fix>3d</fix>
</trkpt>
<trkpt lat="33.8098765" lon="-118.395164">
  <ele>-24.41</ele>
  <time>2026-09-01T01:14:16Z</time>
  <course>285.42</course>
  <speed>0.99</speed>
  <fix>3d</fix>
</trkpt>
<trkpt lat="33.8098772" lon="-118.3951666">
  <ele>-25.017</ele>
  <time>2026-09-01T01:14:16Z</time>
  <course>15.51</course>
  <speed>1.009603882718366</speed>
  <fix>3d</fix>
</trkpt>
<trkpt lat="33.8098765" lon="-118.395164">
  <ele>-24.41</ele>
  <time>2026-09-01T01:14:16Z</time>
  <course>285.42</course>
  <speed>0.99</speed>
  <fix>3d</fix>
</trkpt>
<trkpt lat="33.8098774" lon="-118.3951676">
  <ele>-25.017</ele>
  <time>2026-09-01T01:14:16Z</time>
  <course>15.62</course>
  <speed>1.009603882718366</speed>
  <fix>3d</fix>
</trkpt>
<trkpt lat="33.809877" lon="-118.3951661">
  <ele>-24.41</ele>
  <time>2026-09-01T01:14:16Z</time>
  <course>285.66</course>
  <speed>1.0</speed>
  <fix>3d</fix>
</trkpt>
<trkpt lat="33.8098777" lon="-118.3951687">
  <ele>-25.017</ele>
  <time>2026-09-01T01:14:16Z</time>
  <course>15.74</course>
  <speed>1.0124228365658294</speed>
  <fix>3d</fix>
</trkpt>
<trkpt lat="33.809877" lon="-118.3951661">
  <ele>-24.41</ele>
  <time>2026-09-01T01:14:16Z</time>
  <course>285.66</course>
  <speed>1.0</speed>
  <fix>3d</fix>
</trkpt>
<trkpt lat="33.8098779" lon="-118.3951697">
  <ele>-25.016</ele>
  <time>2026-09-01T01:14:16Z</time>
  <course>15.85</course>
  <speed>1.0124228365658294</speed>
  <fix>3d</fix>
</trkpt>
<trkpt lat="33.8098775" lon="-118.3951682">
  <ele>-24.41</ele>
  <time>2026-09-01T01:14:16Z</time>
  <course>285.89</course>
  <speed>1.0</speed>
  <fix>3d</fix>
</trkpt>
<trkpt lat="33.8098782" lon="-118.3951708">
  <ele>-25.015</ele>
  <time>2026-09-01T01:14:16Z</time>
  <course>15.96</course>
  <speed>1.0124228365658294</speed>
  <fix>3d</fix>
</trkpt>
<trkpt lat="33.8098775" lon="-118.3951682">
  <ele>-24.41</ele>
  <time>2026-09-01T01:14:16Z</time>
  <course>285.89</course>
  <speed>1.0</speed>
  <fix>3d</fix>
</trkpt>
<trkpt lat="33.8098784" lon="-118.3951718">
  <ele>-25.014</ele>
  <time>2026-09-01T01:14:16Z</time>
  <course>16.08</course>
  <speed>1.0124228365658294</speed>
  <fix>3d</fix>
</trkpt>
<trkpt lat="33.809878" lon="-118.3951703">
  <ele>-24.41</ele>
  <time>2026-09-01T01:14:16Z</time>
  <course>286.11</course>
  <speed>0.99</speed>
  <fix>3d</fix>
</trkpt>
<trkpt lat="33.8098787" lon="-118.3951728">
  <ele>-25.014</ele>
  <time>2026-09-01T01:14:16Z</time>
  <course>16.19</course>
  <speed>1.0124228365658294</speed>
  <fix>3d</fix>
</trkpt>
<trkpt lat="33.809878" lon="-118.3951703">
  <ele>-24.41</ele>
  <time>2026-09-01T01:14:16Z</time>
  <course>286.11</course>
  <speed>0.99</speed>
  <fix>3d</fix>
</trkpt>
<trkpt lat="33.8098789" lon="-118.3951739">
  <ele>-25.013</ele>
  <time>2026-09-01T01:14:16Z</time>
  <course>16.31</course>
  <speed>1.015332457867865</speed>
  <fix>3d</fix>
</trkpt>
<trkpt lat="33.8098785" lon="-118.3951723">
  <ele>-24.4</ele>
  <time>2026-09-01T01:14:16Z</time>
  <course>286.33</course>
  <speed>0.99</speed>
  <fix>3d</fix>
</trkpt>
<trkpt lat="33.8098792" lon="-118.3951749">
  <ele>-25.011</ele>
  <time>2026-09-01T01:14:16Z</time>
  <course>16.43</course>
  <speed>1.015332457867865</speed>
  <fix>3d</fix>
</trkpt>
<trkpt lat="33.8098785" lon="-118.3951723">
  <ele>-24.4</ele>
  <time>2026-09-01T01:14:16Z</time>
  <course>286.33</course>
  <speed>0.99</speed>
  <fix>3d</fix>
</trkpt>
<trkpt lat="33.8098794" lon="-118.3951759">
  <ele>-25.01</ele>
  <time>2026-09-01T01:14:16Z</time>
  <course>16.54</course>
  <speed>1.0057832768544126</speed>
  <fix>3d</fix>
</trkpt>
<trkpt lat="33.809879" lon="-118.3951744">
  <ele>-24.4</ele>
  <time>2026-09-01T01:14:16Z</time>
  <course>286.5</course>
  <speed>0.99</speed>
  <fix>3d</fix>
</trkpt>
<trkpt lat="33.8098797" lon="-118.395177">
  <ele>-25.009</ele>
  <time>2026-09-01T01:14:16Z</time>
  <course>16.65</course>
  <speed>1.0057832768544126</speed>
  <fix>3d</fix>
</trkpt>
<trkpt lat="33.809879" lon="-118.3951744">
  <ele>-24.4</ele>
  <time>2026-09-01T01:14:16Z</time>
  <course>286.5</course>
  <speed>0.99</speed>
  <fix>3d</fix>
</trkpt>
<trkpt lat="33.80988" lon="-118.395178">
  <ele>-25.009</ele>
  <time>2026-09-01T01:14:16Z</time>
  <course>16.77</course>
  <speed>1.0057832768544126</speed>
  <fix>3d</fix>
</trkpt>
<trkpt lat="33.8098795" lon="-118.3951765">
  <ele>-24.4</ele>
  <time>2026-09-01T01:14:16Z</time>
  <course>286.7</course>
  <speed>0.99</speed>
  <fix>3d</fix>
</trkpt>
<trkpt lat="33.8098802" lon="-118.3951791">
  <ele>-25.01</ele>
  <time>2026-09-01T01:14:16Z</time>
  <course>16.88</course>
  <speed>1.0088111815399352</speed>
  <fix>3d</fix>
</trkpt>
<trkpt lat="33.8098795" lon="-118.3951765">
  <ele>-24.4</ele>
  <time>2026-09-01T01:14:16Z</time>
  <course>286.7</course>
  <speed>0.99</speed>
  <fix>3d</fix>
</trkpt>
<trkpt lat="33.8098805" lon="-118.3951801">
  <ele>-25.011</ele>
  <time>2026-09-01T01:14:16Z</time>
  <course>16.99</course>
  <speed>1.0088111815399352</speed>
  <fix>3d</fix>
</trkpt>
<trkpt lat="33.80988" lon="-118.3951785">
  <ele>-24.4</ele>
  <time>2026-09-01T01:14:16Z</time>
  <course>286.94</course>
  <speed>0.99</speed>
  <fix>3d</fix>
</trkpt>
<trkpt lat="33.8098808" lon="-118.3951811">
  <ele>-25.012</ele>
  <time>2026-09-01T01:14:16Z</time>
  <course>17.11</course>
  <speed>1.0088111815399352</speed>
  <fix>3d</fix>
</trkpt>
<trkpt lat="33.80988" lon="-118.3951785">
  <ele>-24.4</ele>
  <time>2026-09-01T01:14:16Z</time>
  <course>286.94</course>
  <speed>0.99</speed>
  <fix>3d</fix>
</trkpt>
<trkpt lat="33.809881" lon="-118.3951821">
  <ele>-25.014</ele>
  <time>2026-09-01T01:14:16Z</time>
  <course>17.22</course>
  <speed>1.0088111815399352</speed>
  <fix>3d</fix>
</trkpt>
<trkpt lat="33.8098806" lon="-118.3951806">
  <ele>-24.41</ele>
  <time>2026-09-01T01:14:16Z</time>
  <course>287.19</course>
  <speed>0.99</speed>
  <fix>3d</fix>
</trkpt>
<trkpt lat="33.8098813" lon="-118.3951832">
  <ele>-25.014</ele>
  <time>2026-09-01T01:14:16Z</time>
  <course>17.34</course>
  <speed>1.0088111815399352</speed>
  <fix>3d</fix>
</trkpt>
<trkpt lat="33.8098806" lon="-118.3951806">
  <ele>-24.41</ele>
  <time>2026-09-01T01:14:16Z</time>
  <course>287.19</course>
  <speed>0.99</speed>
  <fix>3d</fix>
</trkpt>
<trkpt lat="33.8098816" lon="-118.3951842">
  <ele>-25.014</ele>
  <time>2026-09-01T01:14:16Z</time>
  <course>17.45</course>
  <speed>1.0119288512538815</speed>
  <fix>3d</fix>
</trkpt>
<trkpt lat="33.8098811" lon="-118.3951827">
  <ele>-24.41</ele>
  <time>2026-09-01T01:14:16Z</time>
  <course>287.42</course>
  <speed>0.99</speed>
  <fix>3d</fix>
</trkpt>
<trkpt lat="33.8098818" lon="-118.3951852">
  <ele>-25.014</ele>
  <time>2026-09-01T01:14:16Z</time>
  <course>17.57</course>
  <speed>1.0119288512538815</speed>
  <fix>3d</fix>
</trkpt>
<trkpt lat="33.8098811" lon="-118.3951827">
  <ele>-24.41</ele>
  <time>2026-09-01T01:14:16Z</time>
  <course>287.42</course>
  <speed>0.99</speed>
  <fix>3d</fix>
</trkpt>
<trkpt lat="33.8098821" lon="-118.3951863">
  <ele>-25.014</ele>
  <time>2026-09-01T01:14:16Z</time>
  <course>17.68</course>
  <speed>1.0119288512538815</speed>
  <fix>3d</fix>
</trkpt>
<trkpt lat="33.8098816" lon="-118.3951847">
  <ele>-24.41</ele>
  <time>2026-09-01T01:14:16Z</time>
  <course>287.63</course>
  <speed>0.99</speed>
  <fix>3d</fix>
</trkpt>
<trkpt lat="33.8098824" lon="-118.3951873">
  <ele>-25.013</ele>
  <time>2026-09-01T01:14:16Z</time>
  <course>17.8</course>
  <speed>1.0119288512538815</speed>
  <fix>3d</fix>
</trkpt>
<trkpt lat="33.8098816" lon="-118.3951847">
  <ele>-24.41</ele>
  <time>2026-09-01T01:14:16Z</time>
  <course>287.63</course>
  <speed>0.99</speed>
  <fix>3d</fix>
</trkpt>
<trkpt lat="33.8098827" lon="-118.3951883">
  <ele>-25.013</ele>
  <time>2026-09-01T01:14:16Z</time>
  <course>17.91</course>
  <speed>1.0119288512538815</speed>
  <fix>3d</fix>
</trkpt>
<trkpt lat="33.8098822" lon="-118.3951868">
  <ele>-24.41</ele>
  <time>2026-09-01T01:14:16Z</time>
  <course>287.87</course>
  <speed>0.99</speed>
  <fix>3d</fix>
</trkpt>
<trkpt lat="33.809883" lon="-118.3951894">
  <ele>-25.014</ele>
  <time>2026-09-01T01:14:16Z</time>
  <course>18.03</course>
  <speed>1.0151354589413177</speed>
  <fix>3d</fix>
</trkpt>
<trkpt lat="33.8098822" lon="-118.3951868">
  <ele>-24.41</ele>
  <time>2026-09-01T01:14:16Z</time>
  <course>287.87</course>
  <speed>0.99</speed>
  <fix>3d</fix>
</trkpt>
<trkpt lat="33.8098832" lon="-118.3951904">
  <ele>-25.015</ele>
  <time>2026-09-01T01:14:16Z</time>
  <course>18.14</course>
  <speed>1.0151354589413177</speed>
  <fix>3d</fix>
</trkpt>
<trkpt lat="33.8098827" lon="-118.3951888">
  <ele>-24.41</ele>
  <time>2026-09-01T01:14:16Z</time>
  <course>288.12</course>
  <speed>0.99</speed>
  <fix>3d</fix>
</trkpt>
<trkpt lat="33.8098835" lon="-118.3951914">
  <ele>-25.017</ele>
  <time>2026-09-01T01:14:16Z</time>
  <course>18.26</course>
  <speed>1.0151354589413177</speed>
  <fix>3d</fix>
</trkpt>
<trkpt lat="33.8098827" lon="-118.3951888">
  <ele>-24.41</ele>
  <time>2026-09-01T01:14:16Z</time>
  <course>288.12</course>
  <speed>0.99</speed>
  <fix>3d</fix>
</trkpt>
<trkpt lat="33.8098838" lon="-118.3951924">
  <ele>-25.017</ele>
  <time>2026-09-01T01:14:16Z</time>
  <course>18.37</course>
  <speed>1.0151354589413177</speed>
  <fix>3d</fix>
</trkpt>
<trkpt lat="33.8098833" lon="-118.3951909">
  <ele>-24.41</ele>
  <time>2026-09-01T01:14:16Z</time>
  <course>288.36</course>
  <speed>0.99</speed>
  <fix>3d</fix>
</trkpt>
<trkpt lat="33.8098841" lon="-118.3951935">
  <ele>-25.018</ele>
  <time>2026-09-01T01:14:16Z</time>
  <course>18.48</course>
  <speed>1.0151354589413177</speed>
  <fix>3d</fix>
</trkpt>
<trkpt lat="33.8098833" lon="-118.3951909">
  <ele>-24.41</ele>
  <time>2026-09-01T01:14:16Z</time>
  <course>288.36</course>
  <speed>0.99</speed>
  <fix>3d</fix>
</trkpt>
<trkpt lat="33.8098844" lon="-118.3951945">
  <ele>-25.018</ele>
  <time>2026-09-01T01:14:16Z</time>
  <course>18.6</course>
  <speed>1.0184301645179212</speed>
  <fix>3d</fix>
</trkpt>
<trkpt lat="33.8098839" lon="-118.3951929">
  <ele>-24.41</ele>
  <time>2026-09-01T01:14:16Z</time>
  <course>288.61</course>
  <speed>1.0</speed>
  <fix>3d</fix>
</trkpt>
<trkpt lat="33.8098847" lon="-118.3951955">
  <ele>-25.018</ele>
  <time>2026-09-01T01:14:16Z</time>
  <course>18.71</course>
  <speed>1.0184301645179212</speed>
  <fix>3d</fix>
</trkpt>
<trkpt lat="33.8098839" lon="-118.3951929">
  <ele>-24.41</ele>
  <time>2026-09-01T01:14:16Z</time>
  <course>288.61</course>
  <speed>1.0</speed>
  <fix>3d</fix>
</trkpt>
<trkpt lat="33.809885" lon="-118.3951965">
  <ele>-25.018</ele>
  <time>2026-09-01T01:14:16Z</time>
  <course>18.83</course>
  <speed>1.0090094152187086</speed>
  <fix>3d</fix>
</trkpt>
<trkpt lat="33.8098844" lon="-118.395195">
  <ele>-24.41</ele>
  <time>2026-09-01T01:14:16Z</time>
  <course>288.84</course>
  <speed>1.0</speed>
  <fix>3d</fix>
</trkpt>
<trkpt lat="33.8098853" lon="-118.3951975">
  <ele>-25.017</ele>
  <time>2026-09-01T01:14:16Z</time>
  <course>18.94</course>
  <speed>1.0090094152187086</speed>
  <fix>3d</fix>
</trkpt>
<trkpt lat="33.8098844" lon="-118.395195">
  <ele>-24.41</ele>
  <time>2026-09-01T01:14:16Z</time>
  <course>288.84</course>
  <speed>1.0</speed>
  <fix>3d</fix>
</trkpt>
<trkpt lat="33.8098856" lon="-118.3951986">
  <ele>-25.015</ele>
  <time>2026-09-01T01:14:16Z</time>
  <course>19.06</course>
  <speed>1.0090094152187086</speed>
  <fix>3d</fix>
</trkpt>
<trkpt lat="33.8098851" lon="-118.395197">
  <ele>-24.4</ele>
  <time>2026-09-01T01:14:16Z</time>
  <course>289.08</course>
  <speed>1.0</speed>
  <fix>3d</fix>
</trkpt>
<trkpt lat="33.8098859" lon="-118.3951996">
  <ele>-25.014</ele>
  <time>2026-09-01T01:14:16Z</time>
  <course>19.17</course>
  <speed>1.0124228365658294</speed>
  <fix>3d</fix>
</trkpt>
<trkpt lat="33.8098851" lon="-118.395197">
  <ele>-24.4</ele>
  <time>2026-09-01T01:14:16Z</time>
  <course>289.08</course>
  <speed>1.0</speed>
  <fix>3d</fix>
</trkpt>
<trkpt lat="33.8098862" lon="-118.3952006">
  <ele>-25.012</ele>
  <time>2026-09-01T01:14:16Z</time>
  <course>19.29</course>
  <speed>1.0124228365658294</speed>
  <fix>3d</fix>
</trkpt>
<trkpt lat="33.8098856" lon="-118.395199">
  <ele>-24.4</ele>
  <time>2026-09-01T01:14:16Z</time>
  <course>289.3</course>
  <speed>1.0</speed>
  <fix>3d</fix>
</trkpt>
<trkpt lat="33.8098865" lon="-118.3952016">
  <ele>-25.011</ele>
  <time>2026-09-01T01:14:16Z</time>
  <course>19.4</course>
  <speed>1.0124228365658294</speed>
  <fix>3d</fix>
</trkpt>
<trkpt lat="33.8098856" lon="-118.395199">
  <ele>-24.4</ele>
  <time>2026-09-01T01:14:16Z</time>
  <course>289.3</course>
  <speed>1.0</speed>
  <fix>3d</fix>
</trkpt>
<trkpt lat="33.8098868" lon="-118.3952026">
  <ele>-25.01</ele>
  <time>2026-09-01T01:14:16Z</time>
  <course>19.52</course>
  <speed>1.0124228365658294</speed>
  <fix>3d</fix>
</trkpt>
<trkpt lat="33.8098863" lon="-118.3952011">
  <ele>-24.4</ele>
  <time>2026-09-01T01:14:16Z</time>
  <course>289.48</course>
  <speed>1.0</speed>
  <fix>3d</fix>
</trkpt>
<trkpt lat="33.8098871" lon="-118.3952037">
  <ele>-25.011</ele>
  <time>2026-09-01T01:14:16Z</time>
  <course>19.63</course>
  <speed>1.0124228365658294</speed>
  <fix>3d</fix>
</trkpt>
<trkpt lat="33.8098863" lon="-118.3952011">
  <ele>-24.4</ele>
  <time>2026-09-01T01:14:16Z</time>
  <course>289.48</course>
  <speed>1.0</speed>
  <fix>3d</fix>
</trkpt>
<trkpt lat="33.8098874" lon="-118.3952047">
  <ele>-25.012</ele>
  <time>2026-09-01T01:14:16Z</time>
  <course>19.75</course>
  <speed>1.0124228365658294</speed>
  <fix>3d</fix>
</trkpt>
<trkpt lat="33.8098868" lon="-118.3952032">
  <ele>-24.4</ele>
  <time>2026-09-01T01:14:16Z</time>
  <course>289.66</course>
  <speed>1.0</speed>
  <fix>3d</fix>
</trkpt>
<trkpt lat="33.8098877" lon="-118.3952057">
  <ele>-25.012</ele>
  <time>2026-09-01T01:14:16Z</time>
  <course>19.86</course>
  <speed>1.0159232254457027</speed>
  <fix>3d</fix>
</trkpt>
<trkpt lat="33.8098868" lon="-118.3952032">
  <ele>-24.4</ele>
  <time>2026-09-01T01:14:16Z</time>
  <course>289.66</course>
  <speed>1.0</speed>
  <fix>3d</fix>
</trkpt>
<trkpt lat="33.809888" lon="-118.3952067">
  <ele>-25.012</ele>
  <time>2026-09-01T01:14:16Z</time>
  <course>19.98</course>
  <speed>1.0159232254457027</speed>
  <fix>3d</fix>
</trkpt>
<trkpt lat="33.8098875" lon="-118.3952052">
  <ele>-24.4</ele>
  <time>2026-09-01T01:14:16Z</time>
  <course>289.87</course>
  <speed>1.0</speed>
  <fix>3d</fix>
</trkpt>
<trkpt lat="33.8098883" lon="-118.3952077">
  <ele>-25.012</ele>
  <time>2026-09-01T01:14:16Z</time>
  <course>20.09</course>
  <speed>1.0159232254457027</speed>
  <fix>3d</fix>
</trkpt>
<trkpt lat="33.8098875" lon="-118.3952052">
  <ele>-24.4</ele>
  <time>2026-09-01T01:14:16Z</time>
  <course>289.87</course>
  <speed>1.0</speed>
  <fix>3d</fix>
</trkpt>
<trkpt lat="33.8098886" lon="-118.3952088">
  <ele>-25.011</ele>
  <time>2026-09-01T01:14:16Z</time>
  <course>20.21</course>
  <speed>1.0159232254457027</speed>
  <fix>3d</fix>
</trkpt>
<trkpt lat="33.809888" lon="-118.3952073">
  <ele>-24.4</ele>
  <time>2026-09-01T01:14:16Z</time>
  <course>290.09</course>
  <speed>1.0</speed>
  <fix>3d</fix>
</trkpt>
<trkpt lat="33.8098889" lon="-118.3952098">
  <ele>-25.01</ele>
  <time>2026-09-01T01:14:16Z</time>
  <course>20.32</course>
  <speed>1.0065783625729297</speed>
  <fix>3d</fix>
</trkpt>
<trkpt lat="33.809888" lon="-118.3952073">
  <ele>-24.4</ele>
  <time>2026-09-01T01:14:16Z</time>
  <course>290.09</course>
  <speed>1.0</speed>
  <fix>3d</fix>
</trkpt>
<trkpt lat="33.8098892" lon="-118.3952108">
  <ele>-25.009</ele>
  <time>2026-09-01T01:14:16Z</time>
  <course>20.43</course>
  <speed>1.010198000393982</speed>
  <fix>3d</fix>
</trkpt>
<trkpt lat="33.8098887" lon="-118.3952093">
  <ele>-24.4</ele>
  <time>2026-09-01T01:14:16Z</time>
  <course>290.36</course>
  <speed>0.99</speed>
  <fix>3d</fix>
</trkpt>
<trkpt lat="33.8098896" lon="-118.3952118">
  <ele>-25.008</ele>
  <time>2026-09-01T01:14:16Z</time>
  <course>20.55</course>
  <speed>1.010198000393982</speed>
  <fix>3d</fix>
</trkpt>
<trkpt lat="33.8098887" lon="-118.3952093">
  <ele>-24.4</ele>
  <time>2026-09-01T01:14:16Z</time>
  <course>290.36</course>
  <speed>0.99</speed>
  <fix>3d</fix>
</trkpt>
<trkpt lat="33.8098899" lon="-118.3952128">
  <ele>-25.008</ele>
  <time>2026-09-01T01:14:16Z</time>
  <course>20.66</course>
  <speed>1.010198000393982</speed>
  <fix>3d</fix>
</trkpt>
<trkpt lat="33.8098893" lon="-118.3952113">
  <ele>-24.4</ele>
  <time>2026-09-01T01:14:16Z</time>
  <course>290.67</course>
  <speed>0.99</speed>
  <fix>3d</fix>
</trkpt>
<trkpt lat="33.8098902" lon="-118.3952138">
  <ele>-25.009</ele>
  <time>2026-09-01T01:14:16Z</time>
  <course>20.78</course>
  <speed>1.010198000393982</speed>
  <fix>3d</fix>
</trkpt>
<trkpt lat="33.8098893" lon="-118.3952113">
  <ele>-24.4</ele>
  <time>2026-09-01T01:14:16Z</time>
  <course>290.67</course>
  <speed>0.99</speed>
  <fix>3d</fix>
</trkpt>
<trkpt lat="33.8098905" lon="-118.3952148">
  <ele>-25.01</ele>
  <time>2026-09-01T01:14:16Z</time>
  <course>20.89</course>
  <speed>1.0139033484509261</speed>
  <fix>3d</fix>
</trkpt>
<trkpt lat="33.8098899" lon="-118.3952133">
  <ele>-24.4</ele>
  <time>2026-09-01T01:14:16Z</time>
  <course>290.95</course>
  <speed>0.99</speed>
  <fix>3d</fix>
</trkpt>
<trkpt lat="33.8098908" lon="-118.3952158">
  <ele>-25.011</ele>
  <time>2026-09-01T01:14:16Z</time>
  <course>21.01</course>
  <speed>1.0139033484509261</speed>
  <fix>3d</fix>
</trkpt>
<trkpt lat="33.8098899" lon="-118.3952133">
  <ele>-24.4</ele>
  <time>2026-09-01T01:14:16Z</time>
  <course>290.95</course>
  <speed>0.99</speed>
  <fix>3d</fix>
</trkpt>
<trkpt lat="33.8098912" lon="-118.3952169">
  <ele>-25.014</ele>
  <time>2026-09-01T01:14:16Z</time>
  <course>21.12</course>
  <speed>1.0139033484509261</speed>
  <fix>3d</fix>
</trkpt>
<trkpt lat="33.8098906" lon="-118.3952153">
  <ele>-24.41</ele>
  <time>2026-09-01T01:14:16Z</time>
  <course>291.21</course>
  <speed>0.99</speed>
  <fix>3d</fix>
</trkpt>
<trkpt lat="33.8098915" lon="-118.3952179">
  <ele>-25.016</ele>
  <time>2026-09-01T01:14:16Z</time>
  <course>21.24</course>
  <speed>1.0139033484509261</speed>
  <fix>3d</fix>
</trkpt>
<trkpt lat="33.8098906" lon="-118.3952153">
  <ele>-24.41</ele>
  <time>2026-09-01T01:14:16Z</time>
  <course>291.21</course>
  <speed>0.99</speed>
  <fix>3d</fix>
</trkpt>
<trkpt lat="33.8098918" lon="-118.3952189">
  <ele>-25.016</ele>
  <time>2026-09-01T01:14:16Z</time>
  <course>21.35</course>
  <speed>1.0139033484509261</speed>
  <fix>3d</fix>
</trkpt>
<trkpt lat="33.8098912" lon="-118.3952174">
  <ele>-24.41</ele>
  <time>2026-09-01T01:14:16Z</time>
  <course>291.42</course>
  <speed>0.99</speed>
  <fix>3d</fix>
</trkpt>
<trkpt lat="33.8098922" lon="-118.3952199">
  <ele>-25.017</ele>
  <time>2026-09-01T01:14:16Z</time>
  <course>21.46</course>
  <speed>1.0139033484509261</speed>
  <fix>3d</fix>
</trkpt>
<trkpt lat="33.8098912" lon="-118.3952174">
  <ele>-24.41</ele>
  <time>2026-09-01T01:14:16Z</time>
  <course>291.42</course>
  <speed>0.99</speed>
  <fix>3d</fix>
</trkpt>
<trkpt lat="33.8098925" lon="-118.3952209">
  <ele>-25.017</ele>
  <time>2026-09-01T01:14:16Z</time>
  <course>21.58</course>
  <speed>1.0084641788382966</speed>
  <fix>3d</fix>
</trkpt>
<trkpt lat="33.8098919" lon="-118.3952194">
  <ele>-24.41</ele>
  <time>2026-09-01T01:14:16Z</time>
  <course>291.65</course>
  <speed>0.99</speed>
  <fix>3d</fix>
</trkpt>
<trkpt lat="33.8098928" lon="-118.3952219">
  <ele>-25.016</ele>
  <time>2026-09-01T01:14:16Z</time>
  <course>21.69</course>
  <speed>1.0084641788382966</speed>
  <fix>3d</fix>
</trkpt>
<trkpt lat="33.8098919" lon="-118.3952194">
  <ele>-24.41</ele>
  <time>2026-09-01T01:14:16Z</time>
  <course>291.65</course>
  <speed>0.99</speed>
  <fix>3d</fix>
</trkpt>
<trkpt lat="33.8098932" lon="-118.3952229">
  <ele>-25.016</ele>
  <time>2026-09-01T01:14:16Z</time>
  <course>21.81</course>
  <speed>1.0084641788382966</speed>
  <fix>3d</fix>
</trkpt>
<trkpt lat="33.8098926" lon="-118.3952214">
  <ele>-24.41</ele>
  <time>2026-09-01T01:14:16Z</time>
  <course>291.92</course>
  <speed>0.99</speed>
  <fix>3d</fix>
</trkpt>
<trkpt lat="33.8098935" lon="-118.3952239">
  <ele>-25.015</ele>
  <time>2026-09-01T01:14:16Z</time>
  <course>21.92</course>
  <speed>1.0084641788382966</speed>
  <fix>3d</fix>
</trkpt>
<trkpt lat="33.8098926" lon="-118.3952214">
  <ele>-24.41</ele>
  <time>2026-09-01T01:14:16Z</time>
  <course>291.92</course>
  <speed>0.99</speed>
  <fix>3d</fix>
</trkpt>
<trkpt lat="33.8098938" lon="-118.3952249">
  <ele>-25.013</ele>
  <time>2026-09-01T01:14:16Z</time>
  <course>22.03</course>
  <speed>1.0084641788382966</speed>
  <fix>3d</fix>
</trkpt>
<trkpt lat="33.8098932" lon="-118.3952234">
  <ele>-24.41</ele>
  <time>2026-09-01T01:14:16Z</time>
  <course>292.15</course>
  <speed>0.99</speed>
  <fix>3d</fix>
</trkpt>
<trkpt lat="33.8098942" lon="-118.3952259">
  <ele>-25.013</ele>
  <time>2026-09-01T01:14:16Z</time>
  <course>22.15</course>
  <speed>1.0123734488813898</speed>
  <fix>3d</fix>
</trkpt>
<trkpt lat="33.8098932" lon="-118.3952234">
  <ele>-24.41</ele>
  <time>2026-09-01T01:14:16Z</time>
  <course>292.15</course>
  <speed>0.99</speed>
  <fix>3d</fix>
</trkpt>
<trkpt lat="33.8098945" lon="-118.3952269">
  <ele>-25.012</ele>
  <time>2026-09-01T01:14:16Z</time>
  <course>22.27</course>
  <speed>1.0123734488813898</speed>
  <fix>3d</fix>
</trkpt>
<trkpt lat="33.8098939" lon="-118.3952253">
  <ele>-24.41</ele>
  <time>2026-09-01T01:14:16Z</time>
  <course>292.37</course>
  <speed>0.99</speed>
  <fix>3d</fix>
</trkpt>
<trkpt lat="33.8098949" lon="-118.3952279">
  <ele>-25.013</ele>
  <time>2026-09-01T01:14:16Z</time>
  <course>22.38</course>
  <speed>1.0123734488813898</speed>
  <fix>3d</fix>
</trkpt>
<trkpt lat="33.8098939" lon="-118.3952253">
  <ele>-24.41</ele>
  <time>2026-09-01T01:14:16Z</time>
  <course>292.37</course>
  <speed>0.99</speed>
  <fix>3d</fix>
</trkpt>
<trkpt lat="33.8098952" lon="-118.3952289">
  <ele>-25.013</ele>
  <time>2026-09-01T01:14:16Z</time>
  <course>22.5</course>
  <speed>1.0123734488813898</speed>
  <fix>3d</fix>
</trkpt>
<trkpt lat="33.8098946" lon="-118.3952274">
  <ele>-24.41</ele>
  <time>2026-09-01T01:14:16Z</time>
  <course>292.59</course>
  <speed>0.99</speed>
  <fix>3d</fix>
</trkpt>
<trkpt lat="33.8098956" lon="-118.3952299">
  <ele>-25.015</ele>
  <time>2026-09-01T01:14:16Z</time>
  <course>22.61</course>
  <speed>1.0123734488813898</speed>
  <fix>3d</fix>
</trkpt>
<trkpt lat="33.8098946" lon="-118.3952274">
  <ele>-24.41</ele>
  <time>2026-09-01T01:14:16Z</time>
  <course>292.59</course>
  <speed>0.99</speed>
  <fix>3d</fix>
</trkpt>
<trkpt lat="33.8098959" lon="-118.3952309">
  <ele>-25.016</ele>
  <time>2026-09-01T01:14:16Z</time>
  <course>22.73</course>
  <speed>1.016366075781753</speed>
  <fix>3d</fix>
</trkpt>
<trkpt lat="33.8098953" lon="-118.3952294">
  <ele>-24.41</ele>
  <time>2026-09-01T01:14:16Z</time>
  <course>292.78</course>
  <speed>0.99</speed>
  <fix>3d</fix>
</trkpt>
<trkpt lat="33.8098963" lon="-118.3952319">
  <ele>-25.016</ele>
  <time>2026-09-01T01:14:16Z</time>
  <course>22.84</course>
  <speed>1.016366075781753</speed>
  <fix>3d</fix>
</trkpt>
<trkpt lat="33.8098953" lon="-118.3952294">
  <ele>-24.41</ele>
  <time>2026-09-01T01:14:16Z</time>
  <course>292.78</course>
  <speed>0.99</speed>
  <fix>3d</fix>
</trkpt>
<trkpt lat="33.8098966" lon="-118.3952329">
  <ele>-25.017</ele>
  <time>2026-09-01T01:14:16Z</time>
  <course>22.95</course>
  <speed>1.016366075781753</speed>
  <fix>3d</fix>
</trkpt>
<trkpt lat="33.809896" lon="-118.3952313">
  <ele>-24.41</ele>
  <time>2026-09-01T01:14:16Z</time>
  <course>293.0</course>
  <speed>1.0</speed>
  <fix>3d</fix>
</trkpt>
<trkpt lat="33.809897" lon="-118.3952338">
  <ele>-25.017</ele>
  <time>2026-09-01T01:14:16Z</time>
  <course>23.07</course>
  <speed>1.016366075781753</speed>
  <fix>3d</fix>
</trkpt>
<trkpt lat="33.809896" lon="-118.3952313">
  <ele>-24.41</ele>
  <time>2026-09-01T01:14:16Z</time>
  <course>293.0</course>
  <speed>1.0</speed>
  <fix>3d</fix>
</trkpt>
<trkpt lat="33.8098973" lon="-118.3952348">
  <ele>-25.016</ele>
  <time>2026-09-01T01:14:16Z</time>
  <course>23.18</course>
  <speed>1.016366075781753</speed>
  <fix>3d</fix>
</trkpt>
<trkpt lat="33.8098967" lon="-118.3952333">
  <ele>-24.41</ele>
  <time>2026-09-01T01:14:16Z</time>
  <course>293.22</course>
  <speed>1.0</speed>
  <fix>3d</fix>
</trkpt>
<trkpt lat="33.8098977" lon="-118.3952358">
  <ele>-25.016</ele>
  <time>2026-09-01T01:14:16Z</time>
  <course>23.3</course>
  <speed>1.0204410811016968</speed>
  <fix>3d</fix>
</trkpt>
<trkpt lat="33.8098967" lon="-118.3952333">
  <ele>-24.41</ele>
  <time>2026-09-01T01:14:16Z</time>
  <course>293.22</course>
  <speed>1.0</speed>
  <fix>3d</fix>
</trkpt>
<trkpt lat="33.809898" lon="-118.3952368">
  <ele>-25.016</ele>
  <time>2026-09-01T01:14:16Z</time>
  <course>23.41</course>
  <speed>1.0204410811016968</speed>
  <fix>3d</fix>
</trkpt>
<trkpt lat="33.8098974" lon="-118.3952353">
  <ele>-24.41</ele>
  <time>2026-09-01T01:14:16Z</time>
  <course>293.42</course>
  <speed>1.0</speed>
  <fix>3d</fix>
</trkpt>
<trkpt lat="33.8098984" lon="-118.3952378">
  <ele>-25.014</ele>
  <time>2026-09-01T01:14:16Z</time>
  <course>23.53</course>
  <speed>1.0204410811016968</speed>
  <fix>3d</fix>
</trkpt>
<trkpt lat="33.8098974" lon="-118.3952353">
  <ele>-24.41</ele>
  <time>2026-09-01T01:14:16Z</time>
  <course>293.42</course>
  <speed>1.0</speed>
  <fix>3d</fix>
</trkpt>
<trkpt lat="33.8098988" lon="-118.3952388">
  <ele>-25.013</ele>
  <time>2026-09-01T01:14:16Z</time>
  <course>23.64</course>
  <speed>1.0204410811016968</speed>
  <fix>3d</fix>
</trkpt>
<trkpt lat="33.8098981" lon="-118.3952373">
  <ele>-24.41</ele>
  <time>2026-09-01T01:14:16Z</time>
  <course>293.62</course>
  <speed>1.0</speed>
  <fix>3d</fix>
</trkpt>
<trkpt lat="33.8098991" lon="-118.3952398">
  <ele>-25.012</ele>
  <time>2026-09-01T01:14:16Z</time>
  <course>23.76</course>
  <speed>1.0204410811016968</speed>
  <fix>3d</fix>
</trkpt>
<trkpt lat="33.8098981" lon="-118.3952373">
  <ele>-24.41</ele>
  <time>2026-09-01T01:14:16Z</time>
  <course>293.62</course>
  <speed>1.0</speed>
  <fix>3d</fix>
</trkpt>
<trkpt lat="33.8098995" lon="-118.3952408">
  <ele>-25.013</ele>
  <time>2026-09-01T01:14:16Z</time>
  <course>23.87</course>
  <speed>1.0204410811016968</speed>
  <fix>3d</fix>
</trkpt>
<trkpt lat="33.8098988" lon="-118.3952392">
  <ele>-24.41</ele>
  <time>2026-09-01T01:14:16Z</time>
  <course>293.83</course>
  <speed>1.0</speed>
  <fix>3d</fix>
</trkpt>
<trkpt lat="33.8098999" lon="-118.3952417">
  <ele>-25.013</ele>
  <time>2026-09-01T01:14:16Z</time>
  <course>23.99</course>
  <speed>1.0155294185792945</speed>
  <fix>3d</fix>
</trkpt>
<trkpt lat="33.8098988" lon="-118.3952392">
  <ele>-24.41</ele>
  <time>2026-09-01T01:14:16Z</time>
  <course>293.83</course>
  <speed>1.0</speed>
  <fix>3d</fix>
</trkpt>
<trkpt lat="33.8099002" lon="-118.3952427">
  <ele>-25.015</ele>
  <time>2026-09-01T01:14:16Z</time>
  <course>24.1</course>
  <speed>1.0155294185792945</speed>
  <fix>3d</fix>
</trkpt>
<trkpt lat="33.8098996" lon="-118.3952413">
  <ele>-24.41</ele>
  <time>2026-09-01T01:14:16Z</time>
  <course>294.07</course>
  <speed>1.0</speed>
  <fix>3d</fix>
</trkpt>
<trkpt lat="33.8099006" lon="-118.3952437">
  <ele>-25.017</ele>
  <time>2026-09-01T01:14:16Z</time>
  <course>24.22</course>
  <speed>1.0155294185792945</speed>
  <fix>3d</fix>
</trkpt>
<trkpt lat="33.8098996" lon="-118.3952413">
  <ele>-24.41</ele>
  <time>2026-09-01T01:14:16Z</time>
  <course>294.07</course>
  <speed>1.0</speed>
  <fix>3d</fix>
</trkpt>
<trkpt lat="33.809901" lon="-118.3952447">
  <ele>-25.019</ele>
  <time>2026-09-01T01:14:16Z</time>
  <course>24.33</course>
  <speed>1.0155294185792945</speed>
  <fix>3d</fix>
</trkpt>
<trkpt lat="33.8099004" lon="-118.3952433">
  <ele>-24.41</ele>
  <time>2026-09-01T01:14:16Z</time>
  <course>294.32</course>
  <speed>1.0</speed>
  <fix>3d</fix>
</trkpt>
<trkpt lat="33.8099013" lon="-118.3952457">
  <ele>-25.019</ele>
  <time>2026-09-01T01:14:16Z</time>
  <course>24.45</course>
  <speed>1.0155294185792945</speed>
  <fix>3d</fix>
</trkpt>
<trkpt lat="33.8099004" lon="-118.3952433">
  <ele>-24.41</ele>
  <time>2026-09-01T01:14:16Z</time>
  <course>294.32</course>
  <speed>1.0</speed>
  <fix>3d</fix>
</trkpt>
<trkpt lat="33.8099017" lon="-118.3952467">
  <ele>-25.018</ele>
  <time>2026-09-01T01:14:16Z</time>
  <course>24.56</course>
  <speed>1.019803902718557</speed>
  <fix>3d</fix>
</trkpt>
<trkpt lat="33.8099011" lon="-118.3952453">
  <ele>-24.41</ele>
  <time>2026-09-01T01:14:16Z</time>
  <course>294.54</course>
  <speed>1.0</speed>
  <fix>3d</fix>
</trkpt>
<trkpt lat="33.8099021" lon="-118.3952477">
  <ele>-25.015</ele>
  <time>2026-09-01T01:14:16Z</time>
  <course>24.67</course>
  <speed>1.019803902718557</speed>
  <fix>3d</fix>
</trkpt>
<trkpt lat="33.8099011" lon="-118.3952453">
  <ele>-24.41</ele>
  <time>2026-09-01T01:14:16Z</time>
  <course>294.54</course>
  <speed>1.0</speed>
  <fix>3d</fix>
</trkpt>
<trkpt lat="33.8099025" lon="-118.3952487">
  <ele>-25.012</ele>
  <time>2026-09-01T01:14:16Z</time>
  <course>24.79</course>
  <speed>1.019803902718557</speed>
  <fix>3d</fix>
</trkpt>
<trkpt lat="33.8099019" lon="-118.3952473">
  <ele>-24.4</ele>
  <time>2026-09-01T01:14:16Z</time>
  <course>294.73</course>
  <speed>1.0</speed>
  <fix>3d</fix>
</trkpt>
<trkpt lat="33.8099029" lon="-118.3952496">
  <ele>-25.009</ele>
  <time>2026-09-01T01:14:16Z</time>
  <course>24.9</course>
  <speed>1.0107917688624102</speed>
  <fix>3d</fix>
</trkpt>
<trkpt lat="33.8099019" lon="-118.3952473">
  <ele>-24.4</ele>
  <time>2026-09-01T01:14:16Z</time>
  <course>294.73</course>
  <speed>1.0</speed>
  <fix>3d</fix>
</trkpt>
<trkpt lat="33.8099032" lon="-118.3952506">
  <ele>-25.007</ele>
  <time>2026-09-01T01:14:16Z</time>
  <course>25.02</course>
  <speed>1.0107917688624102</speed>
  <fix>3d</fix>
</trkpt>
<trkpt lat="33.8099026" lon="-118.3952492">
  <ele>-24.4</ele>
  <time>2026-09-01T01:14:16Z</time>
  <course>294.93</course>
  <speed>1.0</speed>
  <fix>3d</fix>
</trkpt>
<trkpt lat="33.8099036" lon="-118.3952516">
  <ele>-25.007</ele>
  <time>2026-09-01T01:14:16Z</time>
  <course>25.13</course>
  <speed>1.0107917688624102</speed>
  <fix>3d</fix>
</trkpt>
<trkpt lat="33.8099026" lon="-118.3952492">
  <ele>-24.4</ele>
  <time>2026-09-01T01:14:16Z</time>
  <course>294.93</course>
  <speed>1.0</speed>
  <fix>3d</fix>
</trkpt>
<trkpt lat="33.809904" lon="-118.3952526">
  <ele>-25.007</ele>
  <time>2026-09-01T01:14:16Z</time>
  <course>25.25</course>
  <speed>1.0151847122568385</speed>
  <fix>3d</fix>
</trkpt>
<trkpt lat="33.8099033" lon="-118.3952512">
  <ele>-24.4</ele>
  <time>2026-09-01T01:14:16Z</time>
  <course>295.15</course>
  <speed>1.0</speed>
  <fix>3d</fix>
</trkpt>
<trkpt lat="33.8099044" lon="-118.3952536">
  <ele>-25.008</ele>
  <time>2026-09-01T01:14:16Z</time>
  <course>25.36</course>
  <speed>1.0151847122568385</speed>
  <fix>3d</fix>
</trkpt>
<trkpt lat="33.8099033" lon="-118.3952512">
  <ele>-24.4</ele>
  <time>2026-09-01T01:14:16Z</time>
  <course>295.15</course>
  <speed>1.0</speed>
  <fix>3d</fix>
</trkpt>
<trkpt lat="33.8099048" lon="-118.3952545">
  <ele>-25.009</ele>
  <time>2026-09-01T01:14:16Z</time>
  <course>25.48</course>
  <speed>1.0151847122568385</speed>
  <fix>3d</fix>
</trkpt>
<trkpt lat="33.8099042" lon="-118.3952532">
  <ele>-24.4</ele>
  <time>2026-09-01T01:14:16Z</time>
  <course>295.43</course>
  <speed>1.0</speed>
  <fix>3d</fix>
</trkpt>
<trkpt lat="33.8099052" lon="-118.3952555">
  <ele>-25.011</ele>
  <time>2026-09-01T01:14:16Z</time>
  <course>25.59</course>
  <speed>1.0151847122568385</speed>
  <fix>3d</fix>
</trkpt>
<trkpt lat="33.8099042" lon="-118.3952532">
  <ele>-24.4</ele>
  <time>2026-09-01T01:14:16Z</time>
  <course>295.43</course>
  <speed>1.0</speed>
  <fix>3d</fix>
</trkpt>
<trkpt lat="33.8099056" lon="-118.3952565">
  <ele>-25.013</ele>
  <time>2026-09-01T01:14:16Z</time>
  <course>25.71</course>
  <speed>1.0151847122568385</speed>
  <fix>3d</fix>
</trkpt>
<trkpt lat="33.8099049" lon="-118.3952551">
  <ele>-24.4</ele>
  <time>2026-09-01T01:14:16Z</time>
  <course>295.71</course>
  <speed>1.0</speed>
  <fix>3d</fix>
</trkpt>
<trkpt lat="33.809906" lon="-118.3952575">
  <ele>-25.015</ele>
  <time>2026-09-01T01:14:16Z</time>
  <course>25.82</course>
  <speed>1.0107423014794623</speed>
  <fix>3d</fix>
</trkpt>
<trkpt lat="33.8099049" lon="-118.3952551">
  <ele>-24.4</ele>
  <time>2026-09-01T01:14:16Z</time>
  <course>295.71</course>
  <speed>1.0</speed>
  <fix>3d</fix>
</trkpt>
<trkpt lat="33.8099064" lon="-118.3952584">
  <ele>-25.016</ele>
  <time>2026-09-01T01:14:16Z</time>
  <course>25.93</course>
  <speed>1.0107423014794623</speed>
  <fix>3d</fix>
</trkpt>
<trkpt lat="33.8099057" lon="-118.395257">
  <ele>-24.41</ele>
  <time>2026-09-01T01:14:16Z</time>
  <course>295.95</course>
  <speed>1.0</speed>
  <fix>3d</fix>
</trkpt>
<trkpt lat="33.8099068" lon="-118.3952594">
  <ele>-25.018</ele>
  <time>2026-09-01T01:14:16Z</time>
  <course>26.05</course>
  <speed>1.0107423014794623</speed>
  <fix>3d</fix>
</trkpt>
<trkpt lat="33.8099057" lon="-118.395257">
  <ele>-24.41</ele>
  <time>2026-09-01T01:14:16Z</time>
  <course>295.95</course>
  <speed>1.0</speed>
  <fix>3d</fix>
</trkpt>
<trkpt lat="33.8099072" lon="-118.3952604">
  <ele>-25.019</ele>
  <time>2026-09-01T01:14:16Z</time>
  <course>26.16</course>
  <speed>1.0107423014794623</speed>
  <fix>3d</fix>
</trkpt>
<trkpt lat="33.8099064" lon="-118.395259">
  <ele>-24.41</ele>
  <time>2026-09-01T01:14:16Z</time>
  <course>296.18</course>
  <speed>1.0</speed>
  <fix>3d</fix>
</trkpt>
<trkpt lat="33.8099076" lon="-118.3952613">
  <ele>-25.019</ele>
  <time>2026-09-01T01:14:16Z</time>
  <course>26.28</course>
  <speed>1.0107423014794623</speed>
  <fix>3d</fix>
</trkpt>
<trkpt lat="33.8099064" lon="-118.395259">
  <ele>-24.41</ele>
  <time>2026-09-01T01:14:16Z</time>
  <course>296.18</course>
  <speed>1.0</speed>
  <fix>3d</fix>
</trkpt>
<trkpt lat="33.809908" lon="-118.3952623">
  <ele>-25.019</ele>
  <time>2026-09-01T01:14:16Z</time>
  <course>26.39</course>
  <speed>1.015332457867865</speed>
  <fix>3d</fix>
</trkpt>
<trkpt lat="33.8099073" lon="-118.3952609">
  <ele>-24.41</ele>
  <time>2026-09-01T01:14:16Z</time>
  <course>296.44</course>
  <speed>1.0</speed>
  <fix>3d</fix>
</trkpt>
<trkpt lat="33.8099084" lon="-118.3952633">
  <ele>-25.018</ele>
  <time>2026-09-01T01:14:16Z</time>
  <course>26.51</course>
  <speed>1.015332457867865</speed>
  <fix>3d</fix>
</trkpt>
<trkpt lat="33.8099073" lon="-118.3952609">
  <ele>-24.41</ele>
  <time>2026-09-01T01:14:16Z</time>
  <course>296.44</course>
  <speed>1.0</speed>
  <fix>3d</fix>
</trkpt>
<trkpt lat="33.8099088" lon="-118.3952642">
  <ele>-25.016</ele>
  <time>2026-09-01T01:14:16Z</time>
  <course>26.62</course>
  <speed>1.015332457867865</speed>
  <fix>3d</fix>
</trkpt>
<trkpt lat="33.8099081" lon="-118.3952629">
  <ele>-24.41</ele>
  <time>2026-09-01T01:14:16Z</time>
  <course>296.71</course>
  <speed>1.0</speed>
  <fix>3d</fix>
</trkpt>
<trkpt lat="33.8099092" lon="-118.3952652">
  <ele>-25.014</ele>
  <time>2026-09-01T01:14:16Z</time>
  <course>26.73</course>
  <speed>1.015332457867865</speed>
  <fix>3d</fix>
</trkpt>
<trkpt lat="33.8099081" lon="-118.3952629">
  <ele>-24.41</ele>
  <time>2026-09-01T01:14:16Z</time>
  <course>296.71</course>
  <speed>1.0</speed>
  <fix>3d</fix>
</trkpt>
<trkpt lat="33.8099096" lon="-118.3952662">
  <ele>-25.012</ele>
  <time>2026-09-01T01:14:16Z</time>
  <course>26.85</course>
  <speed>1.015332457867865</speed>
  <fix>3d</fix>
</trkpt>
<trkpt lat="33.8099089" lon="-118.3952648">
  <ele>-24.4</ele>
  <time>2026-09-01T01:14:16Z</time>
  <course>296.93</course>
  <speed>1.0</speed>
  <fix>3d</fix>
</trkpt>
<trkpt lat="33.80991" lon="-118.3952671">
  <ele>-25.01</ele>
  <time>2026-09-01T01:14:16Z</time>
  <course>26.97</course>
  <speed>1.015332457867865</speed>
  <fix>3d</fix>
</trkpt>
<trkpt lat="33.8099089" lon="-118.3952648">
  <ele>-24.4</ele>
  <time>2026-09-01T01:14:16Z</time>
  <course>296.93</course>
  <speed>1.0</speed>
  <fix>3d</fix>
</trkpt>
<trkpt lat="33.8099104" lon="-118.3952681">
  <ele>-25.009</ele>
  <time>2026-09-01T01:14:16Z</time>
  <course>27.08</course>
  <speed>1.0064790112068907</speed>
  <fix>3d</fix>
</trkpt>
<trkpt lat="33.8099098" lon="-118.3952667">
  <ele>-24.4</ele>
  <time>2026-09-01T01:14:16Z</time>
  <course>297.14</course>
  <speed>1.0</speed>
  <fix>3d</fix>
</trkpt>
<trkpt lat="33.8099108" lon="-118.3952691">
  <ele>-25.008</ele>
  <time>2026-09-01T01:14:17Z</time>
  <course>27.2</course>
  <speed>1.0111874208078342</speed>
  <fix>3d</fix>
</trkpt>
<trkpt lat="33.8099098" lon="-118.3952667">
  <ele>-24.4</ele>
  <time>2026-09-01T01:14:17Z</time>
  <course>297.14</course>
  <speed>1.0</speed>
  <fix>3d</fix>
</trkpt>
<trkpt lat="33.8099112" lon="-118.39527">
  <ele>-25.008</ele>
  <time>2026-09-01T01:14:17Z</time>
  <course>27.31</course>
  <speed>1.0111874208078342</speed>
  <fix>3d</fix>
</trkpt>
<trkpt lat="33.8099105" lon="-118.3952686">
  <ele>-24.4</ele>
  <time>2026-09-01T01:14:17Z</time>
  <course>297.31</course>
  <speed>1.0</speed>
  <fix>3d</fix>
</trkpt>
<trkpt lat="33.8099117" lon="-118.395271">
  <ele>-25.009</ele>
  <time>2026-09-01T01:14:17Z</time>
  <course>27.42</course>
  <speed>1.0111874208078342</speed>
  <fix>3d</fix>
</trkpt>
<trkpt lat="33.8099105" lon="-118.3952686">
  <ele>-24.4</ele>
  <time>2026-09-01T01:14:17Z</time>
  <course>297.31</course>
  <speed>1.0</speed>
  <fix>3d</fix>
</trkpt>
<trkpt lat="33.8099121" lon="-118.3952719">
  <ele>-25.01</ele>
  <time>2026-09-01T01:14:17Z</time>
  <course>27.54</course>
  <speed>1.0111874208078342</speed>
  <fix>3d</fix>
</trkpt>
<trkpt lat="33.8099114" lon="-118.3952706">
  <ele>-24.4</ele>
  <time>2026-09-01T01:14:17Z</time>
  <course>297.49</course>
  <speed>1.0</speed>
  <fix>3d</fix>
</trkpt>
<trkpt lat="33.8099125" lon="-118.3952729">
  <ele>-25.011</ele>
  <time>2026-09-01T01:14:17Z</time>
  <course>27.65</course>
  <speed>1.0111874208078342</speed>
  <fix>3d</fix>
</trkpt>
<trkpt lat="33.8099114" lon="-118.3952706">
  <ele>-24.4</ele>
  <time>2026-09-01T01:14:17Z</time>
  <course>297.49</course>
  <speed>1.0</speed>
  <fix>3d</fix>
</trkpt>
<trkpt lat="33.8099129" lon="-118.3952739">
  <ele>-25.012</ele>
  <time>2026-09-01T01:14:17Z</time>
  <course>27.77</course>
  <speed>1.0159724405711013</speed>
  <fix>3d</fix>
</trkpt>
<trkpt lat="33.8099122" lon="-118.3952725">
  <ele>-24.41</ele>
  <time>2026-09-01T01:14:17Z</time>
  <course>297.72</course>
  <speed>1.0</speed>
  <fix>3d</fix>
</trkpt>
<trkpt lat="33.8099133" lon="-118.3952748">
  <ele>-25.014</ele>
  <time>2026-09-01T01:14:17Z</time>
  <course>27.88</course>
  <speed>1.0159724405711013</speed>
  <fix>3d</fix>
</trkpt>
<trkpt lat="33.8099122" lon="-118.3952725">
  <ele>-24.41</ele>
  <time>2026-09-01T01:14:17Z</time>
  <course>297.72</course>
  <speed>1.0</speed>
  <fix>3d</fix>
</trkpt>
<trkpt lat="33.8099138" lon="-118.3952758">
  <ele>-25.015</ele>
  <time>2026-09-01T01:14:17Z</time>
  <course>28.0</course>
  <speed>1.0159724405711013</speed>
  <fix>3d</fix>
</trkpt>
<trkpt lat="33.8099131" lon="-118.3952744">
  <ele>-24.41</ele>
  <time>2026-09-01T01:14:17Z</time>
  <course>297.96</course>
  <speed>1.0</speed>
  <fix>3d</fix>
</trkpt>
<trkpt lat="33.8099142" lon="-118.3952767">
  <ele>-25.016</ele>
  <time>2026-09-01T01:14:17Z</time>
  <course>28.11</course>
  <speed>1.0159724405711013</speed>
  <fix>3d</fix>
</trkpt>
<trkpt lat="33.8099131" lon="-118.3952744">
  <ele>-24.41</ele>
  <time>2026-09-01T01:14:17Z</time>
  <course>297.96</course>
  <speed>1.0</speed>
  <fix>3d</fix>
</trkpt>
<trkpt lat="33.8099146" lon="-118.3952777">
  <ele>-25.016</ele>
  <time>2026-09-01T01:14:17Z</time>
  <course>28.23</course>
  <speed>1.0159724405711013</speed>
  <fix>3d</fix>
</trkpt>
<trkpt lat="33.8099139" lon="-118.3952763">
  <ele>-24.41</ele>
  <time>2026-09-01T01:14:17Z</time>
  <course>298.19</course>
  <speed>1.0</speed>
  <fix>3d</fix>
</trkpt>
<trkpt lat="33.809915" lon="-118.3952786">
  <ele>-25.016</ele>
  <time>2026-09-01T01:14:17Z</time>
  <course>28.34</course>
  <speed>1.0072239075796403</speed>
  <fix>3d</fix>
</trkpt>
<trkpt lat="33.8099139" lon="-118.3952763">
  <ele>-24.41</ele>
  <time>2026-09-01T01:14:17Z</time>
  <course>298.19</course>
  <speed>1.0</speed>
  <fix>3d</fix>
</trkpt>
<trkpt lat="33.8099155" lon="-118.3952796">
  <ele>-25.015</ele>
  <time>2026-09-01T01:14:17Z</time>
  <course>28.46</course>
  <speed>1.0121264743103995</speed>
  <fix>3d</fix>
</trkpt>
<trkpt lat="33.8099148" lon="-118.3952782">
  <ele>-24.41</ele>
  <time>2026-09-01T01:14:17Z</time>
  <course>298.39</course>
  <speed>1.0</speed>
  <fix>3d</fix>
</trkpt>
<trkpt lat="33.8099159" lon="-118.3952805">
  <ele>-25.016</ele>
  <time>2026-09-01T01:14:17Z</time>
  <course>28.57</course>
  <speed>1.0121264743103995</speed>
  <fix>3d</fix>
</trkpt>
<trkpt lat="33.8099148" lon="-118.3952782">
  <ele>-24.41</ele>
  <time>2026-09-01T01:14:17Z</time>
  <course>298.39</course>
  <speed>1.0</speed>
  <fix>3d</fix>
</trkpt>
<trkpt lat="33.8099163" lon="-118.3952815">
  <ele>-25.016</ele>
  <time>2026-09-01T01:14:17Z</time>
  <course>28.69</course>
  <speed>1.0121264743103995</speed>
  <fix>3d</fix>
</trkpt>
<trkpt lat="33.8099156" lon="-118.3952801">
  <ele>-24.41</ele>
  <time>2026-09-01T01:14:17Z</time>
  <course>298.59</course>
  <speed>0.99</speed>
  <fix>3d</fix>
</trkpt>
<trkpt lat="33.8099168" lon="-118.3952824">
  <ele>-25.016</ele>
  <time>2026-09-01T01:14:17Z</time>
  <course>28.8</course>
  <speed>1.0121264743103995</speed>
  <fix>3d</fix>
</trkpt>
<trkpt lat="33.8099156" lon="-118.3952801">
  <ele>-24.41</ele>
  <time>2026-09-01T01:14:17Z</time>
  <course>298.59</course>
  <speed>0.99</speed>
  <fix>3d</fix>
</trkpt>
<trkpt lat="33.8099172" lon="-118.3952834">
  <ele>-25.016</ele>
  <time>2026-09-01T01:14:17Z</time>
  <course>28.91</course>
  <speed>1.0121264743103995</speed>
  <fix>3d</fix>
</trkpt>
<trkpt lat="33.8099165" lon="-118.395282">
  <ele>-24.41</ele>
  <time>2026-09-01T01:14:17Z</time>
  <course>298.8</course>
  <speed>0.99</speed>
  <fix>3d</fix>
</trkpt>
<trkpt lat="33.8099177" lon="-118.3952843">
  <ele>-25.016</ele>
  <time>2026-09-01T01:14:17Z</time>
  <course>29.03</course>
  <speed>1.0121264743103995</speed>
  <fix>3d</fix>
</trkpt>
<trkpt lat="33.8099165" lon="-118.395282">
  <ele>-24.41</ele>
  <time>2026-09-01T01:14:17Z</time>
  <course>298.8</course>
  <speed>0.99</speed>
  <fix>3d</fix>
</trkpt>
<trkpt lat="33.8099181" lon="-118.3952852">
  <ele>-25.015</ele>
  <time>2026-09-01T01:14:17Z</time>
  <course>29.14</course>
  <speed>1.0171037311896953</speed>
  <fix>3d</fix>
</trkpt>
<trkpt lat="33.8099173" lon="-118.3952839">
  <ele>-24.41</ele>
  <time>2026-09-01T01:14:17Z</time>
  <course>299.03</course>
  <speed>0.99</speed>
  <fix>3d</fix>
</trkpt>
<trkpt lat="33.8099185" lon="-118.3952862">
  <ele>-25.014</ele>
  <time>2026-09-01T01:14:17Z</time>
  <course>29.26</course>
  <speed>1.0171037311896953</speed>
  <fix>3d</fix>
</trkpt>
<trkpt lat="33.8099173" lon="-118.3952839">
  <ele>-24.41</ele>
  <time>2026-09-01T01:14:17Z</time>
  <course>299.03</course>
  <speed>0.99</speed>
  <fix>3d</fix>
</trkpt>
<trkpt lat="33.809919" lon="-118.3952871">
  <ele>-25.014</ele>
  <time>2026-09-01T01:14:17Z</time>
  <course>29.37</course>
  <speed>1.0084641788382966</speed>
  <fix>3d</fix>
</trkpt>
<trkpt lat="33.8099182" lon="-118.3952858">
  <ele>-24.41</ele>
  <time>2026-09-01T01:14:17Z</time>
  <course>299.29</course>
  <speed>0.99</speed>
  <fix>3d</fix>
</trkpt>
<trkpt lat="33.8099194" lon="-118.3952881">
  <ele>-25.015</ele>
  <time>2026-09-01T01:14:17Z</time>
  <course>29.49</course>
  <speed>1.0084641788382966</speed>
  <fix>3d</fix>
</trkpt>
<trkpt lat="33.8099182" lon="-118.3952858">
  <ele>-24.41</ele>
  <time>2026-09-01T01:14:17Z</time>
  <course>299.29</course>
  <speed>0.99</speed>
  <fix>3d</fix>
</trkpt>
<trkpt lat="33.8099199" lon="-118.395289">
  <ele>-25.017</ele>
  <time>2026-09-01T01:14:17Z</time>
  <course>29.6</course>
  <speed>1.0135580891098448</speed>
  <fix>3d</fix>
</trkpt>
<trkpt lat="33.8099191" lon="-118.3952877">
  <ele>-24.41</ele>
  <time>2026-09-01T01:14:17Z</time>
  <course>299.59</course>
  <speed>1.0</speed>
  <fix>3d</fix>
</trkpt>
<trkpt lat="33.8099203" lon="-118.39529">
  <ele>-25.018</ele>
  <time>2026-09-01T01:14:17Z</time>
  <course>29.72</course>
  <speed>1.0135580891098448</speed>
  <fix>3d</fix>
</trkpt>
<trkpt lat="33.8099191" lon="-118.3952877">
  <ele>-24.41</ele>
  <time>2026-09-01T01:14:17Z</time>
  <course>299.59</course>
  <speed>1.0</speed>
  <fix>3d</fix>
</trkpt>
<trkpt lat="33.8099208" lon="-118.3952909">
  <ele>-25.019</ele>
  <time>2026-09-01T01:14:17Z</time>
  <course>29.83</course>
  <speed>1.0135580891098448</speed>
  <fix>3d</fix>
</trkpt>
<trkpt lat="33.80992" lon="-118.3952895">
  <ele>-24.41</ele>
  <time>2026-09-01T01:14:17Z</time>
  <course>299.88</course>
  <speed>0.99</speed>
  <fix>3d</fix>
</trkpt>
<trkpt lat="33.8099212" lon="-118.3952918">
  <ele>-25.019</ele>
  <time>2026-09-01T01:14:17Z</time>
  <course>29.95</course>
  <speed>1.0135580891098448</speed>
  <fix>3d</fix>
</trkpt>
<trkpt lat="33.80992" lon="-118.3952895">
  <ele>-24.41</ele>
  <time>2026-09-01T01:14:17Z</time>
  <course>299.88</course>
  <speed>0.99</speed>
  <fix>3d</fix>
</trkpt>
<trkpt lat="33.8099217" lon="-118.3952928">
  <ele>-25.018</ele>
  <time>2026-09-01T01:14:17Z</time>
  <course>30.06</course>
  <speed>1.0135580891098448</speed>
  <fix>3d</fix>
</trkpt>
<trkpt lat="33.8099209" lon="-118.3952914">
  <ele>-24.4</ele>
  <time>2026-09-01T01:14:17Z</time>
  <course>300.12</course>
  <speed>0.99</speed>
  <fix>3d</fix>
</trkpt>
<trkpt lat="33.8099221" lon="-118.3952937">
  <ele>-25.018</ele>
  <time>2026-09-01T01:14:17Z</time>
  <course>30.18</course>
  <speed>1.0135580891098448</speed>
  <fix>3d</fix>
</trkpt>
<trkpt lat="33.8099209" lon="-118.3952914">
  <ele>-24.4</ele>
  <time>2026-09-01T01:14:17Z</time>
  <course>300.12</course>
  <speed>0.99</speed>
  <fix>3d</fix>
</trkpt>
<trkpt lat="33.8099226" lon="-118.3952946">
  <ele>-25.016</ele>
  <time>2026-09-01T01:14:17Z</time>
  <course>30.29</course>
  <speed>1.0187246929372038</speed>
  <fix>3d</fix>
</trkpt>
<trkpt lat="33.8099218" lon="-118.3952933">
  <ele>-24.4</ele>
  <time>2026-09-01T01:14:17Z</time>
  <course>300.32</course>
  <speed>0.99</speed>
  <fix>3d</fix>
</trkpt>
<trkpt lat="33.809923" lon="-118.3952956">
  <ele>-25.015</ele>
  <time>2026-09-01T01:14:17Z</time>
  <course>30.4</course>
  <speed>1.0187246929372038</speed>
  <fix>3d</fix>
</trkpt>
<trkpt lat="33.8099218" lon="-118.3952933">
  <ele>-24.4</ele>
  <time>2026-09-01T01:14:17Z</time>
  <course>300.32</course>
  <speed>0.99</speed>
  <fix>3d</fix>
</trkpt>
<trkpt lat="33.8099235" lon="-118.3952965">
  <ele>-25.014</ele>
  <time>2026-09-01T01:14:17Z</time>
  <course>30.52</course>
  <speed>1.0187246929372038</speed>
  <fix>3d</fix>
</trkpt>
<trkpt lat="33.8099227" lon="-118.3952951">
  <ele>-24.4</ele>
  <time>2026-09-01T01:14:17Z</time>
  <course>300.53</course>
  <speed>0.99</speed>
  <fix>3d</fix>
</trkpt>
<trkpt lat="33.809924" lon="-118.3952974">
  <ele>-25.014</ele>
  <time>2026-09-01T01:14:17Z</time>
  <course>30.63</course>
  <speed>1.010198000393982</speed>
  <fix>3d</fix>
</trkpt>
<trkpt lat="33.8099227" lon="-118.3952951">
  <ele>-24.4</ele>
  <time>2026-09-01T01:14:17Z</time>
  <course>300.53</course>
  <speed>0.99</speed>
  <fix>3d</fix>
</trkpt>
<trkpt lat="33.8099244" lon="-118.3952983">
  <ele>-25.012</ele>
  <time>2026-09-01T01:14:17Z</time>
  <course>30.75</course>
  <speed>1.010198000393982</speed>
  <fix>3d</fix>
</trkpt>
<trkpt lat="33.8099236" lon="-118.395297">
  <ele>-24.39</ele>
  <time>2026-09-01T01:14:17Z</time>
  <course>300.74</course>
  <speed>0.99</speed>
  <fix>3d</fix>
</trkpt>
<trkpt lat="33.8099249" lon="-118.3952993">
  <ele>-25.011</ele>
  <time>2026-09-01T01:14:17Z</time>
  <course>30.86</course>
  <speed>1.0154801819828883</speed>
  <fix>3d</fix>
</trkpt>
<trkpt lat="33.8099236" lon="-118.395297">
  <ele>-24.39</ele>
  <time>2026-09-01T01:14:17Z</time>
  <course>300.74</course>
  <speed>0.99</speed>
  <fix>3d</fix>
</trkpt>
<trkpt lat="33.8099253" lon="-118.3953002">
  <ele>-25.01</ele>
  <time>2026-09-01T01:14:17Z</time>
  <course>30.97</course>
  <speed>1.0154801819828883</speed>
  <fix>3d</fix>
</trkpt>
<trkpt lat="33.8099245" lon="-118.3952989">
  <ele>-24.39</ele>
  <time>2026-09-01T01:14:17Z</time>
  <course>300.96</course>
  <speed>0.99</speed>
  <fix>3d</fix>
</trkpt>
<trkpt lat="33.8099258" lon="-118.3953011">
  <ele>-25.008</ele>
  <time>2026-09-01T01:14:17Z</time>
  <course>31.09</course>
  <speed>1.0154801819828883</speed>
  <fix>3d</fix>
</trkpt>
<trkpt lat="33.8099245" lon="-118.3952989">
  <ele>-24.39</ele>
  <time>2026-09-01T01:14:17Z</time>
  <course>300.96</course>
  <speed>0.99</speed>
  <fix>3d</fix>
</trkpt>
<trkpt lat="33.8099263" lon="-118.395302">
  <ele>-25.006</ele>
  <time>2026-09-01T01:14:17Z</time>
  <course>31.21</course>
  <speed>1.0154801819828883</speed>
  <fix>3d</fix>
</trkpt>
<trkpt lat="33.8099255" lon="-118.3953007">
  <ele>-24.39</ele>
  <time>2026-09-01T01:14:17Z</time>
  <course>301.23</course>
  <speed>0.99</speed>
  <fix>3d</fix>
</trkpt>
<trkpt lat="33.8099267" lon="-118.395303">
  <ele>-25.006</ele>
  <time>2026-09-01T01:14:17Z</time>
  <course>31.32</course>
  <speed>1.0154801819828883</speed>
  <fix>3d</fix>
</trkpt>
<trkpt lat="33.8099255" lon="-118.3953007">
  <ele>-24.39</ele>
  <time>2026-09-01T01:14:17Z</time>
  <course>301.23</course>
  <speed>0.99</speed>
  <fix>3d</fix>
</trkpt>
<trkpt lat="33.8099272" lon="-118.3953039">
  <ele>-25.006</ele>
  <time>2026-09-01T01:14:17Z</time>
  <course>31.44</course>
  <speed>1.0154801819828883</speed>
  <fix>3d</fix>
</trkpt>
<trkpt lat="33.8099264" lon="-118.3953026">
  <ele>-24.39</ele>
  <time>2026-09-01T01:14:17Z</time>
  <course>301.49</course>
  <speed>0.99</speed>
  <fix>3d</fix>
</trkpt>
<trkpt lat="33.8099277" lon="-118.3953048">
  <ele>-25.008</ele>
  <time>2026-09-01T01:14:17Z</time>
  <course>31.55</course>
  <speed>1.0124228365658294</speed>
  <fix>3d</fix>
</trkpt>
<trkpt lat="33.8099264" lon="-118.3953026">
  <ele>-24.39</ele>
  <time>2026-09-01T01:14:17Z</time>
  <course>301.49</course>
  <speed>0.99</speed>
  <fix>3d</fix>
</trkpt>
<trkpt lat="33.8099282" lon="-118.3953057">
  <ele>-25.009</ele>
  <time>2026-09-01T01:14:17Z</time>
  <course>31.66</course>
  <speed>1.0124228365658294</speed>
  <fix>3d</fix>
</trkpt>
<trkpt lat="33.8099273" lon="-118.3953044">
  <ele>-24.39</ele>
  <time>2026-09-01T01:14:17Z</time>
  <course>301.72</course>
  <speed>0.99</speed>
  <fix>3d</fix>
</trkpt>
<trkpt lat="33.8099286" lon="-118.3953066">
  <ele>-25.01</ele>
  <time>2026-09-01T01:14:17Z</time>
  <course>31.78</course>
  <speed>1.0124228365658294</speed>
  <fix>3d</fix>
</trkpt>
<trkpt lat="33.8099273" lon="-118.3953044">
  <ele>-24.39</ele>
  <time>2026-09-01T01:14:17Z</time>
  <course>301.72</course>
  <speed>0.99</speed>
  <fix>3d</fix>
</trkpt>
<trkpt lat="33.8099291" lon="-118.3953076">
  <ele>-25.011</ele>
  <time>2026-09-01T01:14:17Z</time>
  <course>31.89</course>
  <speed>1.0124228365658294</speed>
  <fix>3d</fix>
</trkpt>
<trkpt lat="33.8099282" lon="-118.3953062">
  <ele>-24.4</ele>
  <time>2026-09-01T01:14:17Z</time>
  <course>301.97</course>
  <speed>0.99</speed>
  <fix>3d</fix>
</trkpt>
<trkpt lat="33.8099296" lon="-118.3953085">
  <ele>-25.011</ele>
  <time>2026-09-01T01:14:17Z</time>
  <course>32.01</course>
  <speed>1.0124228365658294</speed>
  <fix>3d</fix>
</trkpt>
<trkpt lat="33.8099282" lon="-118.3953062">
  <ele>-24.4</ele>
  <time>2026-09-01T01:14:17Z</time>
  <course>301.97</course>
  <speed>0.99</speed>
  <fix>3d</fix>
</trkpt>
<trkpt lat="33.8099301" lon="-118.3953094">
  <ele>-25.011</ele>
  <time>2026-09-01T01:14:17Z</time>
  <course>32.13</course>
  <speed>1.0178899744078433</speed>
  <fix>3d</fix>
</trkpt>
<trkpt lat="33.8099293" lon="-118.3953081">
  <ele>-24.4</ele>
  <time>2026-09-01T01:14:17Z</time>
  <course>302.25</course>
  <speed>0.99</speed>
  <fix>3d</fix>
</trkpt>
<trkpt lat="33.8099305" lon="-118.3953103">
  <ele>-25.011</ele>
  <time>2026-09-01T01:14:17Z</time>
  <course>32.24</course>
  <speed>1.0178899744078433</speed>
  <fix>3d</fix>
</trkpt>
<trkpt lat="33.8099293" lon="-118.3953081">
  <ele>-24.4</ele>
  <time>2026-09-01T01:14:17Z</time>
  <course>302.25</course>
  <speed>0.99</speed>
  <fix>3d</fix>
</trkpt>
<trkpt lat="33.809931" lon="-118.3953112">
  <ele>-25.011</ele>
  <time>2026-09-01T01:14:17Z</time>
  <course>32.35</course>
  <speed>1.0178899744078433</speed>
  <fix>3d</fix>
</trkpt>
<trkpt lat="33.8099302" lon="-118.3953099">
  <ele>-24.41</ele>
  <time>2026-09-01T01:14:17Z</time>
  <course>302.49</course>
  <speed>0.99</speed>
  <fix>3d</fix>
</trkpt>
<trkpt lat="33.8099315" lon="-118.3953121">
  <ele>-25.012</ele>
  <time>2026-09-01T01:14:17Z</time>
  <course>32.47</course>
  <speed>1.0178899744078433</speed>
  <fix>3d</fix>
</trkpt>
<trkpt lat="33.8099302" lon="-118.3953099">
  <ele>-24.41</ele>
  <time>2026-09-01T01:14:17Z</time>
  <course>302.49</course>
  <speed>0.99</speed>
  <fix>3d</fix>
</trkpt>
<trkpt lat="33.809932" lon="-118.395313">
  <ele>-25.014</ele>
  <time>2026-09-01T01:14:17Z</time>
  <course>32.58</course>
  <speed>1.009554357129917</speed>
  <fix>3d</fix>
</trkpt>
<trkpt lat="33.8099311" lon="-118.3953117">
  <ele>-24.41</ele>
  <time>2026-09-01T01:14:17Z</time>
  <course>302.7</course>
  <speed>0.99</speed>
  <fix>3d</fix>
</trkpt>
<trkpt lat="33.8099325" lon="-118.395314">
  <ele>-25.015</ele>
  <time>2026-09-01T01:14:17Z</time>
  <course>32.7</course>
  <speed>1.009554357129917</speed>
  <fix>3d</fix>
</trkpt>
<trkpt lat="33.8099311" lon="-118.3953117">
  <ele>-24.41</ele>
  <time>2026-09-01T01:14:17Z</time>
  <course>302.7</course>
  <speed>0.99</speed>
  <fix>3d</fix>
</trkpt>
<trkpt lat="33.809933" lon="-118.3953149">
  <ele>-25.016</ele>
  <time>2026-09-01T01:14:17Z</time>
  <course>32.81</course>
  <speed>1.0151354589413177</speed>
  <fix>3d</fix>
</trkpt>
<trkpt lat="33.8099322" lon="-118.3953136">
  <ele>-24.41</ele>
  <time>2026-09-01T01:14:17Z</time>
  <course>302.93</course>
  <speed>0.99</speed>
  <fix>3d</fix>
</trkpt>
<trkpt lat="33.8099335" lon="-118.3953158">
  <ele>-25.016</ele>
  <time>2026-09-01T01:14:17Z</time>
  <course>32.93</course>
  <speed>1.0151354589413177</speed>
  <fix>3d</fix>
</trkpt>
<trkpt lat="33.8099322" lon="-118.3953136">
  <ele>-24.41</ele>
  <time>2026-09-01T01:14:17Z</time>
  <course>302.93</course>
  <speed>0.99</speed>
  <fix>3d</fix>
</trkpt>
<trkpt lat="33.809934" lon="-118.3953167">
  <ele>-25.015</ele>
  <time>2026-09-01T01:14:17Z</time>
  <course>33.04</course>
  <speed>1.0151354589413177</speed>
  <fix>3d</fix>
</trkpt>
<trkpt lat="33.8099331" lon="-118.3953153">
  <ele>-24.41</ele>
  <time>2026-09-01T01:14:17Z</time>
  <course>303.16</course>
  <speed>0.99</speed>
  <fix>3d</fix>
</trkpt>
<trkpt lat="33.8099345" lon="-118.3953176">
  <ele>-25.014</ele>
  <time>2026-09-01T01:14:17Z</time>
  <course>33.15</course>
  <speed>1.0151354589413177</speed>
  <fix>3d</fix>
</trkpt>
<trkpt lat="33.8099331" lon="-118.3953153">
  <ele>-24.41</ele>
  <time>2026-09-01T01:14:17Z</time>
  <course>303.16</course>
  <speed>0.99</speed>
  <fix>3d</fix>
</trkpt>
<trkpt lat="33.809935" lon="-118.3953185">
  <ele>-25.014</ele>
  <time>2026-09-01T01:14:17Z</time>
  <course>33.27</course>
  <speed>1.0151354589413177</speed>
  <fix>3d</fix>
</trkpt>
<trkpt lat="33.8099341" lon="-118.3953172">
  <ele>-24.41</ele>
  <time>2026-09-01T01:14:17Z</time>
  <course>303.35</course>
  <speed>0.99</speed>
  <fix>3d</fix>
</trkpt>
<trkpt lat="33.8099355" lon="-118.3953194">
  <ele>-25.014</ele>
  <time>2026-09-01T01:14:17Z</time>
  <course>33.38</course>
  <speed>1.0151354589413177</speed>
  <fix>3d</fix>
</trkpt>
<trkpt lat="33.8099341" lon="-118.3953172">
  <ele>-24.41</ele>
  <time>2026-09-01T01:14:17Z</time>
  <course>303.35</course>
  <speed>0.99</speed>
  <fix>3d</fix>
</trkpt>
<trkpt lat="33.809936" lon="-118.3953203">
  <ele>-25.014</ele>
  <time>2026-09-01T01:14:17Z</time>
  <course>33.49</course>
  <speed>1.0151354589413177</speed>
  <fix>3d</fix>
</trkpt>
<trkpt lat="33.8099351" lon="-118.395319">
  <ele>-24.41</ele>
  <time>2026-09-01T01:14:17Z</time>
  <course>303.55</course>
  <speed>0.99</speed>
  <fix>3d</fix>
</trkpt>
<trkpt lat="33.8099365" lon="-118.3953212">
  <ele>-25.014</ele>
  <time>2026-09-01T01:14:17Z</time>
  <course>33.61</course>
  <speed>1.0125709851659783</speed>
  <fix>3d</fix>
</trkpt>
<trkpt lat="33.8099351" lon="-118.395319">
  <ele>-24.41</ele>
  <time>2026-09-01T01:14:17Z</time>
  <course>303.55</course>
  <speed>0.99</speed>
  <fix>3d</fix>
</trkpt>
<trkpt lat="33.809937" lon="-118.3953221">
  <ele>-25.016</ele>
  <time>2026-09-01T01:14:17Z</time>
  <course>33.73</course>
  <speed>1.0125709851659783</speed>
  <fix>3d</fix>
</trkpt>
<trkpt lat="33.8099361" lon="-118.3953208">
  <ele>-24.41</ele>
  <time>2026-09-01T01:14:17Z</time>
  <course>303.79</course>
  <speed>0.99</speed>
  <fix>3d</fix>
</trkpt>
<trkpt lat="33.8099375" lon="-118.395323">
  <ele>-25.017</ele>
  <time>2026-09-01T01:14:17Z</time>
  <course>33.84</course>
  <speed>1.0125709851659783</speed>
  <fix>3d</fix>
</trkpt>
<trkpt lat="33.8099361" lon="-118.3953208">
  <ele>-24.41</ele>
  <time>2026-09-01T01:14:17Z</time>
  <course>303.79</course>
  <speed>0.99</speed>
  <fix>3d</fix>
</trkpt>
<trkpt lat="33.809938" lon="-118.3953239">
  <ele>-25.018</ele>
  <time>2026-09-01T01:14:17Z</time>
  <course>33.96</course>
  <speed>1.0125709851659783</speed>
  <fix>3d</fix>
</trkpt>
<trkpt lat="33.8099371" lon="-118.3953225">
  <ele>-24.41</ele>
  <time>2026-09-01T01:14:17Z</time>
  <course>304.02</course>
  <speed>0.99</speed>
  <fix>3d</fix>
</trkpt>
<trkpt lat="33.8099385" lon="-118.3953248">
  <ele>-25.018</ele>
  <time>2026-09-01T01:14:17Z</time>
  <course>34.07</course>
  <speed>1.0125709851659783</speed>
  <fix>3d</fix>
</trkpt>
<trkpt lat="33.8099371" lon="-118.3953225">
  <ele>-24.41</ele>
  <time>2026-09-01T01:14:17Z</time>
  <course>304.02</course>
  <speed>0.99</speed>
  <fix>3d</fix>
</trkpt>
<trkpt lat="33.809939" lon="-118.3953257">
  <ele>-25.017</ele>
  <time>2026-09-01T01:14:17Z</time>
  <course>34.19</course>
  <speed>1.0125709851659783</speed>
  <fix>3d</fix>
</trkpt>
<trkpt lat="33.809938" lon="-118.3953243">
  <ele>-24.41</ele>
  <time>2026-09-01T01:14:17Z</time>
  <course>304.23</course>
  <speed>0.99</speed>
  <fix>3d</fix>
</trkpt>
<trkpt lat="33.8099395" lon="-118.3953266">
  <ele>-25.016</ele>
  <time>2026-09-01T01:14:17Z</time>
  <course>34.3</course>
  <speed>1.0183319694480775</speed>
  <fix>3d</fix>
</trkpt>
<trkpt lat="33.809938" lon="-118.3953243">
  <ele>-24.41</ele>
  <time>2026-09-01T01:14:17Z</time>
  <course>304.23</course>
  <speed>0.99</speed>
  <fix>3d</fix>
</trkpt>
<trkpt lat="33.80994" lon="-118.3953274">
  <ele>-25.014</ele>
  <time>2026-09-01T01:14:17Z</time>
  <course>34.42</course>
  <speed>1.0183319694480775</speed>
  <fix>3d</fix>
</trkpt>
<trkpt lat="33.809939" lon="-118.3953261">
  <ele>-24.41</ele>
  <time>2026-09-01T01:14:17Z</time>
  <course>304.45</course>
  <speed>0.99</speed>
  <fix>3d</fix>
</trkpt>
<trkpt lat="33.8099405" lon="-118.3953283">
  <ele>-25.014</ele>
  <time>2026-09-01T01:14:17Z</time>
  <course>34.53</course>
  <speed>1.0183319694480775</speed>
  <fix>3d</fix>
</trkpt>
<trkpt lat="33.809939" lon="-118.3953261">
  <ele>-24.41</ele>
  <time>2026-09-01T01:14:17Z</time>
  <course>304.45</course>
  <speed>0.99</speed>
  <fix>3d</fix>
</trkpt>
<trkpt lat="33.809941" lon="-118.3953292">
  <ele>-25.014</ele>
  <time>2026-09-01T01:14:17Z</time>
  <course>34.65</course>
  <speed>1.0183319694480775</speed>
  <fix>3d</fix>
</trkpt>
<trkpt lat="33.8099401" lon="-118.3953279">
  <ele>-24.41</ele>
  <time>2026-09-01T01:14:17Z</time>
  <course>304.74</course>
  <speed>0.99</speed>
  <fix>3d</fix>
</trkpt>
<trkpt lat="33.8099415" lon="-118.3953301">
  <ele>-25.014</ele>
  <time>2026-09-01T01:14:17Z</time>
  <course>34.76</course>
  <speed>1.016070863670443</speed>
  <fix>3d</fix>
</trkpt>
<trkpt lat="33.8099401" lon="-118.3953279">
  <ele>-24.41</ele>
  <time>2026-09-01T01:14:17Z</time>
  <course>304.74</course>
  <speed>0.99</speed>
  <fix>3d</fix>
</trkpt>
<trkpt lat="33.809942" lon="-118.395331">
  <ele>-25.014</ele>
  <time>2026-09-01T01:14:17Z</time>
  <course>34.87</course>
  <speed>1.016070863670443</speed>
  <fix>3d</fix>
</trkpt>
<trkpt lat="33.8099412" lon="-118.3953297">
  <ele>-24.41</ele>
  <time>2026-09-01T01:14:17Z</time>
  <course>305.03</course>
  <speed>1.0</speed>
  <fix>3d</fix>
</trkpt>
<trkpt lat="33.8099426" lon="-118.3953319">
  <ele>-25.015</ele>
  <time>2026-09-01T01:14:17Z</time>
  <course>34.99</course>
  <speed>1.016070863670443</speed>
  <fix>3d</fix>
</trkpt>
<trkpt lat="33.8099412" lon="-118.3953297">
  <ele>-24.41</ele>
  <time>2026-09-01T01:14:17Z</time>
  <course>305.03</course>
  <speed>1.0</speed>
  <fix>3d</fix>
</trkpt>
<trkpt lat="33.8099431" lon="-118.3953328">
  <ele>-25.016</ele>
  <time>2026-09-01T01:14:17Z</time>
  <course>35.1</course>
  <speed>1.016070863670443</speed>
  <fix>3d</fix>
</trkpt>
<trkpt lat="33.8099421" lon="-118.3953314">
  <ele>-24.41</ele>
  <time>2026-09-01T01:14:17Z</time>
  <course>305.25</course>
  <speed>1.0</speed>
  <fix>3d</fix>
</trkpt>
<trkpt lat="33.8099436" lon="-118.3953336">
  <ele>-25.016</ele>
  <time>2026-09-01T01:14:17Z</time>
  <course>35.22</course>
  <speed>1.016070863670443</speed>
  <fix>3d</fix>
</trkpt>
<trkpt lat="33.8099421" lon="-118.3953314">
  <ele>-24.41</ele>
  <time>2026-09-01T01:14:17Z</time>
  <course>305.25</course>
  <speed>1.0</speed>
  <fix>3d</fix>
</trkpt>
<trkpt lat="33.8099441" lon="-118.3953345">
  <ele>-25.016</ele>
  <time>2026-09-01T01:14:17Z</time>
  <course>35.33</course>
  <speed>1.016070863670443</speed>
  <fix>3d</fix>
</trkpt>
<trkpt lat="33.8099432" lon="-118.3953332">
  <ele>-24.41</ele>
  <time>2026-09-01T01:14:17Z</time>
  <course>305.45</course>
  <speed>1.0</speed>
  <fix>3d</fix>
</trkpt>
<trkpt lat="33.8099446" lon="-118.3953354">
  <ele>-25.016</ele>
  <time>2026-09-01T01:14:17Z</time>
  <course>35.45</course>
  <speed>1.0220078277586722</speed>
  <fix>3d</fix>
</trkpt>
<trkpt lat="33.8099432" lon="-118.3953332">
  <ele>-24.41</ele>
  <time>2026-09-01T01:14:17Z</time>
  <course>305.45</course>
  <speed>1.0</speed>
  <fix>3d</fix>
</trkpt>
<trkpt lat="33.8099452" lon="-118.3953363">
  <ele>-25.015</ele>
  <time>2026-09-01T01:14:17Z</time>
  <course>35.56</course>
  <speed>1.0220078277586722</speed>
  <fix>3d</fix>
</trkpt>
<trkpt lat="33.8099443" lon="-118.3953349">
  <ele>-24.41</ele>
  <time>2026-09-01T01:14:17Z</time>
  <course>305.68</course>
  <speed>1.0</speed>
  <fix>3d</fix>
</trkpt>
<trkpt lat="33.8099457" lon="-118.3953372">
  <ele>-25.014</ele>
  <time>2026-09-01T01:14:17Z</time>
  <course>35.68</course>
  <speed>1.0220078277586722</speed>
  <fix>3d</fix>
</trkpt>
<trkpt lat="33.8099443" lon="-118.3953349">
  <ele>-24.41</ele>
  <time>2026-09-01T01:14:17Z</time>
  <course>305.68</course>
  <speed>1.0</speed>
  <fix>3d</fix>
</trkpt>
<trkpt lat="33.8099462" lon="-118.395338">
  <ele>-25.013</ele>
  <time>2026-09-01T01:14:17Z</time>
  <course>35.79</course>
  <speed>1.0140019723846694</speed>
  <fix>3d</fix>
</trkpt>
<trkpt lat="33.8099453" lon="-118.3953367">
  <ele>-24.41</ele>
  <time>2026-09-01T01:14:17Z</time>
  <course>305.85</course>
  <speed>1.0</speed>
  <fix>3d</fix>
</trkpt>
<trkpt lat="33.8099468" lon="-118.3953389">
  <ele>-25.014</ele>
  <time>2026-09-01T01:14:17Z</time>
  <course>35.91</course>
  <speed>1.0140019723846694</speed>
  <fix>3d</fix>
</trkpt>
<trkpt lat="33.8099453" lon="-118.3953367">
  <ele>-24.41</ele>
  <time>2026-09-01T01:14:17Z</time>
  <course>305.85</course>
  <speed>1.0</speed>
  <fix>3d</fix>
</trkpt>
<trkpt lat="33.8099473" lon="-118.3953398">
  <ele>-25.015</ele>
  <time>2026-09-01T01:14:17Z</time>
  <course>36.02</course>
  <speed>1.0140019723846694</speed>
  <fix>3d</fix>
</trkpt>
<trkpt lat="33.8099464" lon="-118.3953385">
  <ele>-24.41</ele>
  <time>2026-09-01T01:14:17Z</time>
  <course>306.01</course>
  <speed>1.0</speed>
  <fix>3d</fix>
</trkpt>
<trkpt lat="33.8099478" lon="-118.3953406">
  <ele>-25.015</ele>
  <time>2026-09-01T01:14:17Z</time>
  <course>36.13</course>
  <speed>1.0140019723846694</speed>
  <fix>3d</fix>
</trkpt>
<trkpt lat="33.8099464" lon="-118.3953385">
  <ele>-24.41</ele>
  <time>2026-09-01T01:14:17Z</time>
  <course>306.01</course>
  <speed>1.0</speed>
  <fix>3d</fix>
</trkpt>
<trkpt lat="33.8099484" lon="-118.3953415">
  <ele>-25.015</ele>
  <time>2026-09-01T01:14:17Z</time>
  <course>36.25</course>
  <speed>1.0140019723846694</speed>
  <fix>3d</fix>
</trkpt>
<trkpt lat="33.8099474" lon="-118.3953402">
  <ele>-24.41</ele>
  <time>2026-09-01T01:14:17Z</time>
  <course>306.2</course>
  <speed>1.0</speed>
  <fix>3d</fix>
</trkpt>
<trkpt lat="33.8099489" lon="-118.3953424">
  <ele>-25.014</ele>
  <time>2026-09-01T01:14:17Z</time>
  <course>36.36</course>
  <speed>1.0200490184299968</speed>
  <fix>3d</fix>
</trkpt>
<trkpt lat="33.8099474" lon="-118.3953402">
  <ele>-24.41</ele>
  <time>2026-09-01T01:14:17Z</time>
  <course>306.2</course>
  <speed>1.0</speed>
  <fix>3d</fix>
</trkpt>
<trkpt lat="33.8099494" lon="-118.3953433">
  <ele>-25.014</ele>
  <time>2026-09-01T01:14:17Z</time>
  <course>36.48</course>
  <speed>1.0200490184299968</speed>
  <fix>3d</fix>
</trkpt>
<trkpt lat="33.8099485" lon="-118.3953419">
  <ele>-24.41</ele>
  <time>2026-09-01T01:14:17Z</time>
  <course>306.43</course>
  <speed>0.99</speed>
  <fix>3d</fix>
</trkpt>
<trkpt lat="33.80995" lon="-118.3953441">
  <ele>-25.014</ele>
  <time>2026-09-01T01:14:17Z</time>
  <course>36.59</course>
  <speed>1.0200490184299968</speed>
  <fix>3d</fix>
</trkpt>
<trkpt lat="33.8099485" lon="-118.3953419">
  <ele>-24.41</ele>
  <time>2026-09-01T01:14:17Z</time>
  <course>306.43</course>
  <speed>0.99</speed>
  <fix>3d</fix>
</trkpt>
<trkpt lat="33.8099505" lon="-118.395345">
  <ele>-25.013</ele>
  <time>2026-09-01T01:14:17Z</time>
  <course>36.71</course>
  <speed>1.0200490184299968</speed>
  <fix>3d</fix>
</trkpt>
<trkpt lat="33.8099495" lon="-118.3953437">
  <ele>-24.4</ele>
  <time>2026-09-01T01:14:17Z</time>
  <course>306.64</course>
  <speed>0.99</speed>
  <fix>3d</fix>
</trkpt>
<trkpt lat="33.809951" lon="-118.3953459">
  <ele>-25.012</ele>
  <time>2026-09-01T01:14:17Z</time>
  <course>36.82</course>
  <speed>1.0121264743103995</speed>
  <fix>3d</fix>
</trkpt>
<trkpt lat="33.8099495" lon="-118.3953437">
  <ele>-24.4</ele>
  <time>2026-09-01T01:14:17Z</time>
  <course>306.64</course>
  <speed>0.99</speed>
  <fix>3d</fix>
</trkpt>
<trkpt lat="33.8099516" lon="-118.3953467">
  <ele>-25.01</ele>
  <time>2026-09-01T01:14:17Z</time>
  <course>36.94</course>
  <speed>1.0182828683622247</speed>
  <fix>3d</fix>
</trkpt>
<trkpt lat="33.8099506" lon="-118.3953454">
  <ele>-24.4</ele>
  <time>2026-09-01T01:14:17Z</time>
  <course>306.89</course>
  <speed>1.0</speed>
  <fix>3d</fix>
</trkpt>
<trkpt lat="33.8099521" lon="-118.3953476">
  <ele>-25.008</ele>
  <time>2026-09-01T01:14:17Z</time>
  <course>37.05</course>
  <speed>1.0182828683622247</speed>
  <fix>3d</fix>
</trkpt>
<trkpt lat="33.8099506" lon="-118.3953454">
  <ele>-24.4</ele>
  <time>2026-09-01T01:14:17Z</time>
  <course>306.89</course>
  <speed>1.0</speed>
  <fix>3d</fix>
</trkpt>
<trkpt lat="33.8099527" lon="-118.3953484">
  <ele>-25.007</ele>
  <time>2026-09-01T01:14:17Z</time>
  <course>37.16</course>
  <speed>1.0182828683622247</speed>
  <fix>3d</fix>
</trkpt>
<trkpt lat="33.8099517" lon="-118.3953471">
  <ele>-24.4</ele>
  <time>2026-09-01T01:14:17Z</time>
  <course>307.19</course>
  <speed>1.0</speed>
  <fix>3d</fix>
</trkpt>
<trkpt lat="33.8099532" lon="-118.3953493">
  <ele>-25.007</ele>
  <time>2026-09-01T01:14:17Z</time>
  <course>37.28</course>
  <speed>1.0182828683622247</speed>
  <fix>3d</fix>
</trkpt>
<trkpt lat="33.8099517" lon="-118.3953471">
  <ele>-24.4</ele>
  <time>2026-09-01T01:14:17Z</time>
  <course>307.19</course>
  <speed>1.0</speed>
  <fix>3d</fix>
</trkpt>
<trkpt lat="33.8099538" lon="-118.3953502">
  <ele>-25.009</ele>
  <time>2026-09-01T01:14:17Z</time>
  <course>37.39</course>
  <speed>1.0182828683622247</speed>
  <fix>3d</fix>
</trkpt>
<trkpt lat="33.8099528" lon="-118.3953488">
  <ele>-24.4</ele>
  <time>2026-09-01T01:14:17Z</time>
  <course>307.44</course>
  <speed>1.0</speed>
  <fix>3d</fix>
</trkpt>
<trkpt lat="33.8099543" lon="-118.395351">
  <ele>-25.012</ele>
  <time>2026-09-01T01:14:17Z</time>
  <course>37.51</course>
  <speed>1.0182828683622247</speed>
  <fix>3d</fix>
</trkpt>
<trkpt lat="33.8099528" lon="-118.3953488">
  <ele>-24.4</ele>
  <time>2026-09-01T01:14:17Z</time>
  <course>307.44</course>
  <speed>1.0</speed>
  <fix>3d</fix>
</trkpt>
<trkpt lat="33.8099549" lon="-118.3953519">
  <ele>-25.014</ele>
  <time>2026-09-01T01:14:17Z</time>
  <course>37.63</course>
  <speed>1.0244998779892558</speed>
  <fix>3d</fix>
</trkpt>
<trkpt lat="33.8099539" lon="-118.3953506">
  <ele>-24.41</ele>
  <time>2026-09-01T01:14:17Z</time>
  <course>307.64</course>
  <speed>1.0</speed>
  <fix>3d</fix>
</trkpt>
<trkpt lat="33.8099554" lon="-118.3953527">
  <ele>-25.015</ele>
  <time>2026-09-01T01:14:17Z</time>
  <course>37.74</course>
  <speed>1.0167103815738285</speed>
  <fix>3d</fix>
</trkpt>
<trkpt lat="33.8099539" lon="-118.3953506">
  <ele>-24.41</ele>
  <time>2026-09-01T01:14:17Z</time>
  <course>307.64</course>
  <speed>1.0</speed>
  <fix>3d</fix>
</trkpt>
<trkpt lat="33.809956" lon="-118.3953536">
  <ele>-25.016</ele>
  <time>2026-09-01T01:14:17Z</time>
  <course>37.86</course>
  <speed>1.0167103815738285</speed>
  <fix>3d</fix>
</trkpt>
<trkpt lat="33.809955" lon="-118.3953523">
  <ele>-24.41</ele>
  <time>2026-09-01T01:14:17Z</time>
  <course>307.83</course>
  <speed>1.0</speed>
  <fix>3d</fix>
</trkpt>
<trkpt lat="33.8099565" lon="-118.3953544">
  <ele>-25.015</ele>
  <time>2026-09-01T01:14:17Z</time>
  <course>37.97</course>
  <speed>1.0167103815738285</speed>
  <fix>3d</fix>
</trkpt>
<trkpt lat="33.809955" lon="-118.3953523">
  <ele>-24.41</ele>
  <time>2026-09-01T01:14:17Z</time>
  <course>307.83</course>
  <speed>1.0</speed>
  <fix>3d</fix>
</trkpt>
<trkpt lat="33.8099571" lon="-118.3953553">
  <ele>-25.014</ele>
  <time>2026-09-01T01:14:17Z</time>
  <course>38.08</course>
  <speed>1.0167103815738285</speed>
  <fix>3d</fix>
</trkpt>
<trkpt lat="33.8099561" lon="-118.395354">
  <ele>-24.41</ele>
  <time>2026-09-01T01:14:17Z</time>
  <course>308.04</course>
  <speed>1.0</speed>
  <fix>3d</fix>
</trkpt>
<trkpt lat="33.8099576" lon="-118.3953561">
  <ele>-25.012</ele>
  <time>2026-09-01T01:14:17Z</time>
  <course>38.2</course>
  <speed>1.0167103815738285</speed>
  <fix>3d</fix>
</trkpt>
<trkpt lat="33.8099561" lon="-118.395354">
  <ele>-24.41</ele>
  <time>2026-09-01T01:14:17Z</time>
  <course>308.04</course>
  <speed>1.0</speed>
  <fix>3d</fix>
</trkpt>
<trkpt lat="33.8099582" lon="-118.395357">
  <ele>-25.01</ele>
  <time>2026-09-01T01:14:17Z</time>
  <course>38.31</course>
  <speed>1.0167103815738285</speed>
  <fix>3d</fix>
</trkpt>
<trkpt lat="33.8099572" lon="-118.3953557">
  <ele>-24.41</ele>
  <time>2026-09-01T01:14:17Z</time>
  <course>308.27</course>
  <speed>1.0</speed>
  <fix>3d</fix>
</trkpt>
<trkpt lat="33.8099588" lon="-118.3953578">
  <ele>-25.009</ele>
  <time>2026-09-01T01:14:17Z</time>
  <course>38.43</course>
  <speed>1.0230347012687302</speed>
  <fix>3d</fix>
</trkpt>
<trkpt lat="33.8099572" lon="-118.3953557">
  <ele>-24.41</ele>
  <time>2026-09-01T01:14:17Z</time>
  <course>308.27</course>
  <speed>1.0</speed>
  <fix>3d</fix>
</trkpt>
<trkpt lat="33.8099593" lon="-118.3953587">
  <ele>-25.009</ele>
  <time>2026-09-01T01:14:17Z</time>
  <course>38.54</course>
  <speed>1.015332457867865</speed>
  <fix>3d</fix>
</trkpt>
<trkpt lat="33.8099584" lon="-118.3953574">
  <ele>-24.41</ele>
  <time>2026-09-01T01:14:17Z</time>
  <course>308.52</course>
  <speed>1.0</speed>
  <fix>3d</fix>
</trkpt>
<trkpt lat="33.8099599" lon="-118.3953595">
  <ele>-25.011</ele>
  <time>2026-09-01T01:14:17Z</time>
  <course>38.66</course>
  <speed>1.015332457867865</speed>
  <fix>3d</fix>
</trkpt>
<trkpt lat="33.8099584" lon="-118.3953574">
  <ele>-24.41</ele>
  <time>2026-09-01T01:14:17Z</time>
  <course>308.52</course>
  <speed>1.0</speed>
  <fix>3d</fix>
</trkpt>
<trkpt lat="33.8099605" lon="-118.3953603">
  <ele>-25.015</ele>
  <time>2026-09-01T01:14:17Z</time>
  <course>38.77</course>
  <speed>1.015332457867865</speed>
  <fix>3d</fix>
</trkpt>
<trkpt lat="33.8099595" lon="-118.3953591">
  <ele>-24.41</ele>
  <time>2026-09-01T01:14:17Z</time>
  <course>308.73</course>
  <speed>1.0</speed>
  <fix>3d</fix>
</trkpt>
<trkpt lat="33.809961" lon="-118.3953612">
  <ele>-25.019</ele>
  <time>2026-09-01T01:14:17Z</time>
  <course>38.88</course>
  <speed>1.015332457867865</speed>
  <fix>3d</fix>
</trkpt>
<trkpt lat="33.8099595" lon="-118.3953591">
  <ele>-24.41</ele>
  <time>2026-09-01T01:14:17Z</time>
  <course>308.73</course>
  <speed>1.0</speed>
  <fix>3d</fix>
</trkpt>
<trkpt lat="33.8099616" lon="-118.395362">
  <ele>-25.022</ele>
  <time>2026-09-01T01:14:17Z</time>
  <course>39.0</course>
  <speed>1.015332457867865</speed>
  <fix>3d</fix>
</trkpt>
<trkpt lat="33.8099606" lon="-118.3953608">
  <ele>-24.42</ele>
  <time>2026-09-01T01:14:17Z</time>
  <course>308.91</course>
  <speed>1.0</speed>
  <fix>3d</fix>
</trkpt>
<trkpt lat="33.8099622" lon="-118.3953629">
  <ele>-25.025</ele>
  <time>2026-09-01T01:14:17Z</time>
  <course>39.12</course>
  <speed>1.015332457867865</speed>
  <fix>3d</fix>
</trkpt>
<trkpt lat="33.8099606" lon="-118.3953608">
  <ele>-24.42</ele>
  <time>2026-09-01T01:14:17Z</time>
  <course>308.91</course>
  <speed>1.0</speed>
  <fix>3d</fix>
</trkpt>
<trkpt lat="33.8099627" lon="-118.3953637">
  <ele>-25.027</ele>
  <time>2026-09-01T01:14:17Z</time>
  <course>39.23</course>
  <speed>1.0217631819555841</speed>
  <fix>3d</fix>
</trkpt>
<trkpt lat="33.8099617" lon="-118.3953625">
  <ele>-24.42</ele>
  <time>2026-09-01T01:14:17Z</time>
  <course>309.11</course>
  <speed>1.0</speed>
  <fix>3d</fix>
</trkpt>
<trkpt lat="33.8099633" lon="-118.3953645">
  <ele>-25.027</ele>
  <time>2026-09-01T01:14:17Z</time>
  <course>39.34</course>
  <speed>1.0141498903022177</speed>
  <fix>3d</fix>
</trkpt>
<trkpt lat="33.8099617" lon="-118.3953625">
  <ele>-24.42</ele>
  <time>2026-09-01T01:14:17Z</time>
  <course>309.11</course>
  <speed>1.0</speed>
  <fix>3d</fix>
</trkpt>
<trkpt lat="33.8099639" lon="-118.3953654">
  <ele>-25.026</ele>
  <time>2026-09-01T01:14:17Z</time>
  <course>39.46</course>
  <speed>1.0141498903022177</speed>
  <fix>3d</fix>
</trkpt>
<trkpt lat="33.8099628" lon="-118.3953641">
  <ele>-24.42</ele>
  <time>2026-09-01T01:14:17Z</time>
  <course>309.36</course>
  <speed>1.0</speed>
  <fix>3d</fix>
</trkpt>
<trkpt lat="33.8099644" lon="-118.3953662">
  <ele>-25.024</ele>
  <time>2026-09-01T01:14:17Z</time>
  <course>39.57</course>
  <speed>1.0141498903022177</speed>
  <fix>3d</fix>
</trkpt>
<trkpt lat="33.8099628" lon="-118.3953641">
  <ele>-24.42</ele>
  <time>2026-09-01T01:14:17Z</time>
  <course>309.36</course>
  <speed>1.0</speed>
  <fix>3d</fix>
</trkpt>
<trkpt lat="33.809965" lon="-118.395367">
  <ele>-25.021</ele>
  <time>2026-09-01T01:14:17Z</time>
  <course>39.69</course>
  <speed>1.0206860437960343</speed>
  <fix>3d</fix>
</trkpt>
<trkpt lat="33.809964" lon="-118.3953658">
  <ele>-24.41</ele>
  <time>2026-09-01T01:14:17Z</time>
  <course>309.66</course>
  <speed>1.0</speed>
  <fix>3d</fix>
</trkpt>
<trkpt lat="33.8099656" lon="-118.3953679">
  <ele>-25.017</ele>
  <time>2026-09-01T01:14:17Z</time>
  <course>39.8</course>
  <speed>1.0206860437960343</speed>
  <fix>3d</fix>
</trkpt>
<trkpt lat="33.809964" lon="-118.3953658">
  <ele>-24.41</ele>
  <time>2026-09-01T01:14:17Z</time>
  <course>309.66</course>
  <speed>1.0</speed>
  <fix>3d</fix>
</trkpt>
<trkpt lat="33.8099662" lon="-118.3953687">
  <ele>-25.014</ele>
  <time>2026-09-01T01:14:17Z</time>
  <course>39.92</course>
  <speed>1.0206860437960343</speed>
  <fix>3d</fix>
</trkpt>
<trkpt lat="33.8099652" lon="-118.3953675">
  <ele>-24.41</ele>
  <time>2026-09-01T01:14:17Z</time>
  <course>309.95</course>
  <speed>1.0</speed>
  <fix>3d</fix>
</trkpt>
<trkpt lat="33.8099667" lon="-118.3953695">
  <ele>-25.012</ele>
  <time>2026-09-01T01:14:17Z</time>
  <course>40.03</course>
  <speed>1.0206860437960343</speed>
  <fix>3d</fix>
</trkpt>
<trkpt lat="33.8099652" lon="-118.3953675">
  <ele>-24.41</ele>
  <time>2026-09-01T01:14:17Z</time>
  <course>309.95</course>
  <speed>1.0</speed>
  <fix>3d</fix>
</trkpt>
<trkpt lat="33.8099673" lon="-118.3953703">
  <ele>-25.01</ele>
  <time>2026-09-01T01:14:17Z</time>
  <course>40.14</course>
  <speed>1.0206860437960343</speed>
  <fix>3d</fix>
</trkpt>
<trkpt lat="33.8099664" lon="-118.3953691">
  <ele>-24.4</ele>
  <time>2026-09-01T01:14:17Z</time>
  <course>310.19</course>
  <speed>1.0</speed>
  <fix>3d</fix>
</trkpt>
<trkpt lat="33.8099679" lon="-118.3953712">
  <ele>-25.007</ele>
  <time>2026-09-01T01:14:17Z</time>
  <course>40.26</course>
  <speed>1.0206860437960343</speed>
  <fix>3d</fix>
</trkpt>
<trkpt lat="33.8099664" lon="-118.3953691">
  <ele>-24.4</ele>
  <time>2026-09-01T01:14:17Z</time>
  <course>310.19</course>
  <speed>1.0</speed>
  <fix>3d</fix>
</trkpt>
<trkpt lat="33.8099685" lon="-118.395372">
  <ele>-25.007</ele>
  <time>2026-09-01T01:14:17Z</time>
  <course>40.37</course>
  <speed>1.0206860437960343</speed>
  <fix>3d</fix>
</trkpt>
<trkpt lat="33.8099675" lon="-118.3953708">
  <ele>-24.4</ele>
  <time>2026-09-01T01:14:17Z</time>
  <course>310.36</course>
  <speed>1.0</speed>
  <fix>3d</fix>
</trkpt>
<trkpt lat="33.8099691" lon="-118.3953728">
  <ele>-25.007</ele>
  <time>2026-09-01T01:14:17Z</time>
  <course>40.49</course>
  <speed>1.019803902718557</speed>
  <fix>3d</fix>
</trkpt>
<trkpt lat="33.8099675" lon="-118.3953708">
  <ele>-24.4</ele>
  <time>2026-09-01T01:14:17Z</time>
  <course>310.36</course>
  <speed>1.0</speed>
  <fix>3d</fix>
</trkpt>
<trkpt lat="33.8099697" lon="-118.3953736">
  <ele>-25.009</ele>
  <time>2026-09-01T01:14:17Z</time>
  <course>40.6</course>
  <speed>1.019803902718557</speed>
  <fix>3d</fix>
</trkpt>
<trkpt lat="33.8099687" lon="-118.3953725">
  <ele>-24.4</ele>
  <time>2026-09-01T01:14:17Z</time>
  <course>310.52</course>
  <speed>1.0</speed>
  <fix>3d</fix>
</trkpt>
<trkpt lat="33.8099703" lon="-118.3953744">
  <ele>-25.011</ele>
  <time>2026-09-01T01:14:17Z</time>
  <course>40.72</course>
  <speed>1.019803902718557</speed>
  <fix>3d</fix>
</trkpt>
<trkpt lat="33.8099687" lon="-118.3953725">
  <ele>-24.4</ele>
  <time>2026-09-01T01:14:17Z</time>
  <course>310.52</course>
  <speed>1.0</speed>
  <fix>3d</fix>
</trkpt>
<trkpt lat="33.8099708" lon="-118.3953753">
  <ele>-25.012</ele>
  <time>2026-09-01T01:14:17Z</time>
  <course>40.83</course>
  <speed>1.019803902718557</speed>
  <fix>3d</fix>
</trkpt>
<trkpt lat="33.8099699" lon="-118.3953741">
  <ele>-24.4</ele>
  <time>2026-09-01T01:14:17Z</time>
  <course>310.74</course>
  <speed>1.0</speed>
  <fix>3d</fix>
</trkpt>
<trkpt lat="33.8099714" lon="-118.3953761">
  <ele>-25.012</ele>
  <time>2026-09-01T01:14:17Z</time>
  <course>40.95</course>
  <speed>1.019803902718557</speed>
  <fix>3d</fix>
</trkpt>
<trkpt lat="33.8099699" lon="-118.3953741">
  <ele>-24.4</ele>
  <time>2026-09-01T01:14:17Z</time>
  <course>310.74</course>
  <speed>1.0</speed>
  <fix>3d</fix>
</trkpt>
<trkpt lat="33.809972" lon="-118.3953769">
  <ele>-25.011</ele>
  <time>2026-09-01T01:14:17Z</time>
  <course>41.06</course>
  <speed>1.019803902718557</speed>
  <fix>3d</fix>
</trkpt>
<trkpt lat="33.8099711" lon="-118.3953758">
  <ele>-24.4</ele>
  <time>2026-09-01T01:14:17Z</time>
  <course>310.96</course>
  <speed>1.0</speed>
  <fix>3d</fix>
</trkpt>
<trkpt lat="33.8099726" lon="-118.3953777">
  <ele>-25.011</ele>
  <time>2026-09-01T01:14:17Z</time>
  <course>41.18</course>
  <speed>1.0123734488813898</speed>
  <fix>3d</fix>
</trkpt>
<trkpt lat="33.8099711" lon="-118.3953758">
  <ele>-24.4</ele>
  <time>2026-09-01T01:14:17Z</time>
  <course>310.96</course>
  <speed>1.0</speed>
  <fix>3d</fix>
</trkpt>
<trkpt lat="33.8099732" lon="-118.3953785">
  <ele>-25.01</ele>
  <time>2026-09-01T01:14:17Z</time>
  <course>41.29</course>
  <speed>1.0123734488813898</speed>
  <fix>3d</fix>
</trkpt>
<trkpt lat="33.8099723" lon="-118.3953774">
  <ele>-24.4</ele>
  <time>2026-09-01T01:14:17Z</time>
  <course>311.17</course>
  <speed>1.0</speed>
  <fix>3d</fix>
</trkpt>
<trkpt lat="33.8099738" lon="-118.3953793">
  <ele>-25.009</ele>
  <time>2026-09-01T01:14:17Z</time>
  <course>41.41</course>
  <speed>1.0191172650877818</speed>
  <fix>3d</fix>
</trkpt>
<trkpt lat="33.8099723" lon="-118.3953774">
  <ele>-24.4</ele>
  <time>2026-09-01T01:14:17Z</time>
  <course>311.17</course>
  <speed>1.0</speed>
  <fix>3d</fix>
</trkpt>
<trkpt lat="33.8099744" lon="-118.3953801">
  <ele>-25.009</ele>
  <time>2026-09-01T01:14:17Z</time>
  <course>41.52</course>
  <speed>1.0191172650877818</speed>
  <fix>3d</fix>
</trkpt>
<trkpt lat="33.8099735" lon="-118.395379">
  <ele>-24.4</ele>
  <time>2026-09-01T01:14:17Z</time>
  <course>311.39</course>
  <speed>1.0</speed>
  <fix>3d</fix>
</trkpt>
<trkpt lat="33.809975" lon="-118.395381">
  <ele>-25.009</ele>
  <time>2026-09-01T01:14:17Z</time>
  <course>41.64</course>
  <speed>1.0191172650877818</speed>
  <fix>3d</fix>
</trkpt>
<trkpt lat="33.8099735" lon="-118.395379">
  <ele>-24.4</ele>
  <time>2026-09-01T01:14:17Z</time>
  <course>311.39</course>
  <speed>1.0</speed>
  <fix>3d</fix>
</trkpt>
<trkpt lat="33.8099756" lon="-118.3953818">
  <ele>-25.009</ele>
  <time>2026-09-01T01:14:17Z</time>
  <course>41.75</course>
  <speed>1.0191172650877818</speed>
  <fix>3d</fix>
</trkpt>
<trkpt lat="33.8099747" lon="-118.3953807">
  <ele>-24.4</ele>
  <time>2026-09-01T01:14:17Z</time>
  <course>311.59</course>
  <speed>1.0</speed>
  <fix>3d</fix>
</trkpt>
<trkpt lat="33.8099762" lon="-118.3953826">
  <ele>-25.01</ele>
  <time>2026-09-01T01:14:17Z</time>
  <course>41.86</course>
  <speed>1.0117806086301515</speed>
  <fix>3d</fix>
</trkpt>
<trkpt lat="33.8099747" lon="-118.3953807">
  <ele>-24.4</ele>
  <time>2026-09-01T01:14:17Z</time>
  <course>311.59</course>
  <speed>1.0</speed>
  <fix>3d</fix>
</trkpt>
<trkpt lat="33.8099768" lon="-118.3953834">
  <ele>-25.013</ele>
  <time>2026-09-01T01:14:17Z</time>
  <course>41.98</course>
  <speed>1.0117806086301515</speed>
  <fix>3d</fix>
</trkpt>
<trkpt lat="33.8099759" lon="-118.3953823">
  <ele>-24.4</ele>
  <time>2026-09-01T01:14:17Z</time>
  <course>311.77</course>
  <speed>1.0</speed>
  <fix>3d</fix>
</trkpt>
<trkpt lat="33.8099775" lon="-118.3953842">
  <ele>-25.015</ele>
  <time>2026-09-01T01:14:17Z</time>
  <course>42.09</course>
  <speed>1.0117806086301515</speed>
  <fix>3d</fix>
</trkpt>
<trkpt lat="33.8099759" lon="-118.3953823">
  <ele>-24.4</ele>
  <time>2026-09-01T01:14:17Z</time>
  <course>311.77</course>
  <speed>1.0</speed>
  <fix>3d</fix>
</trkpt>
<trkpt lat="33.8099781" lon="-118.395385">
  <ele>-25.018</ele>
  <time>2026-09-01T01:14:17Z</time>
  <course>42.2</course>
  <speed>1.0117806086301515</speed>
  <fix>3d</fix>
</trkpt>
<trkpt lat="33.8099771" lon="-118.3953838">
  <ele>-24.41</ele>
  <time>2026-09-01T01:14:17Z</time>
  <course>311.99</course>
  <speed>0.99</speed>
  <fix>3d</fix>
</trkpt>
<trkpt lat="33.8099787" lon="-118.3953858">
  <ele>-25.02</ele>
  <time>2026-09-01T01:14:17Z</time>
  <course>42.32</course>
  <speed>1.0186265262597474</speed>
  <fix>3d</fix>
</trkpt>
<trkpt lat="33.8099771" lon="-118.3953838">
  <ele>-24.41</ele>
  <time>2026-09-01T01:14:17Z</time>
  <course>311.99</course>
  <speed>0.99</speed>
  <fix>3d</fix>
</trkpt>
<trkpt lat="33.8099793" lon="-118.3953866">
  <ele>-25.021</ele>
  <time>2026-09-01T01:14:17Z</time>
  <course>42.44</course>
  <speed>1.0186265262597474</speed>
  <fix>3d</fix>
</trkpt>
<trkpt lat="33.8099783" lon="-118.3953855">
  <ele>-24.41</ele>
  <time>2026-09-01T01:14:17Z</time>
  <course>312.21</course>
  <speed>0.99</speed>
  <fix>3d</fix>
</trkpt>
<trkpt lat="33.8099799" lon="-118.3953874">
  <ele>-25.02</ele>
  <time>2026-09-01T01:14:17Z</time>
  <course>42.55</course>
  <speed>1.0113851887386922</speed>
  <fix>3d</fix>
</trkpt>
<trkpt lat="33.8099783" lon="-118.3953855">
  <ele>-24.41</ele>
  <time>2026-09-01T01:14:17Z</time>
  <course>312.21</course>
  <speed>0.99</speed>
  <fix>3d</fix>
</trkpt>
<trkpt lat="33.8099805" lon="-118.3953882">
  <ele>-25.017</ele>
  <time>2026-09-01T01:14:17Z</time>
  <course>42.66</course>
  <speed>1.0113851887386922</speed>
  <fix>3d</fix>
</trkpt>
<trkpt lat="33.8099795" lon="-118.3953871">
  <ele>-24.41</ele>
  <time>2026-09-01T01:14:17Z</time>
  <course>312.42</course>
  <speed>0.99</speed>
  <fix>3d</fix>
</trkpt>
<trkpt lat="33.8099811" lon="-118.395389">
  <ele>-25.014</ele>
  <time>2026-09-01T01:14:17Z</time>
  <course>42.78</course>
  <speed>1.0113851887386922</speed>
  <fix>3d</fix>
</trkpt>
<trkpt lat="33.8099795" lon="-118.3953871">
  <ele>-24.41</ele>
  <time>2026-09-01T01:14:17Z</time>
  <course>312.42</course>
  <speed>0.99</speed>
  <fix>3d</fix>
</trkpt>
<trkpt lat="33.8099817" lon="-118.3953897">
  <ele>-25.012</ele>
  <time>2026-09-01T01:14:17Z</time>
  <course>42.89</course>
  <speed>1.0113851887386922</speed>
  <fix>3d</fix>
</trkpt>
<trkpt lat="33.8099806" lon="-118.3953886">
  <ele>-24.41</ele>
  <time>2026-09-01T01:14:17Z</time>
  <course>312.65</course>
  <speed>0.99</speed>
  <fix>3d</fix>
</trkpt>
<trkpt lat="33.8099823" lon="-118.3953905">
  <ele>-25.01</ele>
  <time>2026-09-01T01:14:17Z</time>
  <course>43.01</course>
  <speed>1.0183319694480775</speed>
  <fix>3d</fix>
</trkpt>
<trkpt lat="33.8099806" lon="-118.3953886">
  <ele>-24.41</ele>
  <time>2026-09-01T01:14:17Z</time>
  <course>312.65</course>
  <speed>0.99</speed>
  <fix>3d</fix>
</trkpt>
<trkpt lat="33.8099829" lon="-118.3953913">
  <ele>-25.008</ele>
  <time>2026-09-01T01:14:17Z</time>
  <course>43.12</course>
  <speed>1.0183319694480775</speed>
  <fix>3d</fix>
</trkpt>
<trkpt lat="33.8099818" lon="-118.3953903">
  <ele>-24.4</ele>
  <time>2026-09-01T01:14:17Z</time>
  <course>312.94</course>
  <speed>0.99</speed>
  <fix>3d</fix>
</trkpt>
<trkpt lat="33.8099835" lon="-118.3953921">
  <ele>-25.008</ele>
  <time>2026-09-01T01:14:17Z</time>
  <course>43.24</course>
  <speed>1.0111874208078342</speed>
  <fix>3d</fix>
</trkpt>
<trkpt lat="33.8099818" lon="-118.3953903">
  <ele>-24.4</ele>
  <time>2026-09-01T01:14:17Z</time>
  <course>312.94</course>
  <speed>0.99</speed>
  <fix>3d</fix>
</trkpt>
<trkpt lat="33.8099842" lon="-118.3953929">
  <ele>-25.008</ele>
  <time>2026-09-01T01:14:17Z</time>
  <course>43.35</course>
  <speed>1.0111874208078342</speed>
  <fix>3d</fix>
</trkpt>
<trkpt lat="33.809983" lon="-118.3953919">
  <ele>-24.4</ele>
  <time>2026-09-01T01:14:17Z</time>
  <course>313.31</course>
  <speed>0.99</speed>
  <fix>3d</fix>
</trkpt>
<trkpt lat="33.8099848" lon="-118.3953937">
  <ele>-25.009</ele>
  <time>2026-09-01T01:14:17Z</time>
  <course>43.47</course>
  <speed>1.0182337649086284</speed>
  <fix>3d</fix>
</trkpt>
<trkpt lat="33.809983" lon="-118.3953919">
  <ele>-24.4</ele>
  <time>2026-09-01T01:14:17Z</time>
  <course>313.31</course>
  <speed>0.99</speed>
  <fix>3d</fix>
</trkpt>
<trkpt lat="33.8099854" lon="-118.3953945">
  <ele>-25.011</ele>
  <time>2026-09-01T01:14:17Z</time>
  <course>43.58</course>
  <speed>1.0182337649086284</speed>
  <fix>3d</fix>
</trkpt>
<trkpt lat="33.8099843" lon="-118.3953934">
  <ele>-24.4</ele>
  <time>2026-09-01T01:14:17Z</time>
  <course>313.74</course>
  <speed>1.0</speed>
  <fix>3d</fix>
</trkpt>
<trkpt lat="33.809986" lon="-118.3953952">
  <ele>-25.012</ele>
  <time>2026-09-01T01:14:17Z</time>
  <course>43.69</course>
  <speed>1.0182337649086284</speed>
  <fix>3d</fix>
</trkpt>
<trkpt lat="33.8099843" lon="-118.3953934">
  <ele>-24.4</ele>
  <time>2026-09-01T01:14:17Z</time>
  <course>313.74</course>
  <speed>1.0</speed>
  <fix>3d</fix>
</trkpt>
<trkpt lat="33.8099866" lon="-118.395396">
  <ele>-25.014</ele>
  <time>2026-09-01T01:14:17Z</time>
  <course>43.81</course>
  <speed>1.0182337649086284</speed>
  <fix>3d</fix>
</trkpt>
<trkpt lat="33.8099856" lon="-118.395395">
  <ele>-24.41</ele>
  <time>2026-09-01T01:14:17Z</time>
  <course>314.14</course>
  <speed>1.0</speed>
  <fix>3d</fix>
</trkpt>
<trkpt lat="33.8099873" lon="-118.3953968">
  <ele>-25.015</ele>
  <time>2026-09-01T01:14:17Z</time>
  <course>43.92</course>
  <speed>1.0111874208078342</speed>
  <fix>3d</fix>
</trkpt>
<trkpt lat="33.8099856" lon="-118.395395">
  <ele>-24.41</ele>
  <time>2026-09-01T01:14:17Z</time>
  <course>314.14</course>
  <speed>1.0</speed>
  <fix>3d</fix>
</trkpt>
<trkpt lat="33.8099879" lon="-118.3953976">
  <ele>-25.017</ele>
  <time>2026-09-01T01:14:17Z</time>
  <course>44.04</course>
  <speed>1.0183319694480775</speed>
  <fix>3d</fix>
</trkpt>
<trkpt lat="33.8099868" lon="-118.3953965">
  <ele>-24.41</ele>
  <time>2026-09-01T01:14:17Z</time>
  <course>314.44</course>
  <speed>1.0</speed>
  <fix>3d</fix>
</trkpt>
<trkpt lat="33.8099885" lon="-118.3953983">
  <ele>-25.018</ele>
  <time>2026-09-01T01:14:17Z</time>
  <course>44.15</course>
  <speed>1.0183319694480775</speed>
  <fix>3d</fix>
</trkpt>
<trkpt lat="33.8099868" lon="-118.3953965">
  <ele>-24.41</ele>
  <time>2026-09-01T01:14:17Z</time>
  <course>314.44</course>
  <speed>1.0</speed>
  <fix>3d</fix>
</trkpt>
<trkpt lat="33.8099892" lon="-118.3953991">
  <ele>-25.018</ele>
  <time>2026-09-01T01:14:17Z</time>
  <course>44.27</course>
  <speed>1.0183319694480775</speed>
  <fix>3d</fix>
</trkpt>
<trkpt lat="33.8099881" lon="-118.3953981">
  <ele>-24.41</ele>
  <time>2026-09-01T01:14:17Z</time>
  <course>314.65</course>
  <speed>1.0</speed>
  <fix>3d</fix>
</trkpt>
<trkpt lat="33.8099898" lon="-118.3953999">
  <ele>-25.017</ele>
  <time>2026-09-01T01:14:17Z</time>
  <course>44.38</course>
  <speed>1.0183319694480775</speed>
  <fix>3d</fix>
</trkpt>
<trkpt lat="33.8099881" lon="-118.3953981">
  <ele>-24.41</ele>
  <time>2026-09-01T01:14:17Z</time>
  <course>314.65</course>
  <speed>1.0</speed>
  <fix>3d</fix>
</trkpt>
<trkpt lat="33.8099904" lon="-118.3954007">
  <ele>-25.015</ele>
  <time>2026-09-01T01:14:17Z</time>
  <course>44.5</course>
  <speed>1.0183319694480775</speed>
  <fix>3d</fix>
</trkpt>
<trkpt lat="33.8099894" lon="-118.3953996">
  <ele>-24.41</ele>
  <time>2026-09-01T01:14:17Z</time>
  <course>314.83</course>
  <speed>1.0</speed>
  <fix>3d</fix>
</trkpt>
<trkpt lat="33.8099911" lon="-118.3954014">
  <ele>-25.013</ele>
  <time>2026-09-01T01:14:17Z</time>
  <course>44.61</course>
  <speed>1.0183319694480775</speed>
  <fix>3d</fix>
</trkpt>
<trkpt lat="33.8099894" lon="-118.3953996">
  <ele>-24.41</ele>
  <time>2026-09-01T01:14:17Z</time>
  <course>314.83</course>
  <speed>1.0</speed>
  <fix>3d</fix>
</trkpt>
<trkpt lat="33.8099917" lon="-118.3954022">
  <ele>-25.011</ele>
  <time>2026-09-01T01:14:17Z</time>
  <course>44.73</course>
  <speed>1.0183319694480775</speed>
  <fix>3d</fix>
</trkpt>
<trkpt lat="33.8099906" lon="-118.3954011">
  <ele>-24.41</ele>
  <time>2026-09-01T01:14:17Z</time>
  <course>315.0</course>
  <speed>0.99</speed>
  <fix>3d</fix>
</trkpt>
<trkpt lat="33.8099923" lon="-118.395403">
  <ele>-25.011</ele>
  <time>2026-09-01T01:14:17Z</time>
  <course>44.84</course>
  <speed>1.0183319694480775</speed>
  <fix>3d</fix>
</trkpt>
<trkpt lat="33.8099906" lon="-118.3954011">
  <ele>-24.41</ele>
  <time>2026-09-01T01:14:17Z</time>
  <course>315.0</course>
  <speed>0.99</speed>
  <fix>3d</fix>
</trkpt>
<trkpt lat="33.809993" lon="-118.3954037">
  <ele>-25.012</ele>
  <time>2026-09-01T01:14:17Z</time>
  <course>44.96</course>
  <speed>1.0113851887386922</speed>
  <fix>3d</fix>
</trkpt>
<trkpt lat="33.8099919" lon="-118.3954026">
  <ele>-24.41</ele>
  <time>2026-09-01T01:14:17Z</time>
  <course>315.16</course>
  <speed>0.99</speed>
  <fix>3d</fix>
</trkpt>
<trkpt lat="33.8099936" lon="-118.3954045">
  <ele>-25.013</ele>
  <time>2026-09-01T01:14:17Z</time>
  <course>45.07</course>
  <speed>1.0113851887386922</speed>
  <fix>3d</fix>
</trkpt>
<trkpt lat="33.8099919" lon="-118.3954026">
  <ele>-24.41</ele>
  <time>2026-09-01T01:14:17Z</time>
  <course>315.16</course>
  <speed>0.99</speed>
  <fix>3d</fix>
</trkpt>
<trkpt lat="33.8099943" lon="-118.3954052">
  <ele>-25.014</ele>
  <time>2026-09-01T01:14:17Z</time>
  <course>45.19</course>
  <speed>1.0186265262597474</speed>
  <fix>3d</fix>
</trkpt>
<trkpt lat="33.8099932" lon="-118.3954042">
  <ele>-24.41</ele>
  <time>2026-09-01T01:14:17Z</time>
  <course>315.34</course>
  <speed>1.0</speed>
  <fix>3d</fix>
</trkpt>
<trkpt lat="33.8099949" lon="-118.395406">
  <ele>-25.014</ele>
  <time>2026-09-01T01:14:17Z</time>
  <course>45.3</course>
  <speed>1.0186265262597474</speed>
  <fix>3d</fix>
</trkpt>
<trkpt lat="33.8099932" lon="-118.3954042">
  <ele>-24.41</ele>
  <time>2026-09-01T01:14:17Z</time>
  <course>315.34</course>
  <speed>1.0</speed>
  <fix>3d</fix>
</trkpt>
<trkpt lat="33.8099955" lon="-118.3954068">
  <ele>-25.014</ele>
  <time>2026-09-01T01:14:17Z</time>
  <course>45.42</course>
  <speed>1.0186265262597474</speed>
  <fix>3d</fix>
</trkpt>
<trkpt lat="33.8099944" lon="-118.3954057">
  <ele>-24.41</ele>
  <time>2026-09-01T01:14:17Z</time>
  <course>315.52</course>
  <speed>1.0</speed>
  <fix>3d</fix>
</trkpt>
<trkpt lat="33.8099962" lon="-118.3954075">
  <ele>-25.014</ele>
  <time>2026-09-01T01:14:17Z</time>
  <course>45.53</course>
  <speed>1.0186265262597474</speed>
  <fix>3d</fix>
</trkpt>
<trkpt lat="33.8099944" lon="-118.3954057">
  <ele>-24.41</ele>
  <time>2026-09-01T01:14:17Z</time>
  <course>315.52</course>
  <speed>1.0</speed>
  <fix>3d</fix>
</trkpt>
<trkpt lat="33.8099968" lon="-118.3954083">
  <ele>-25.014</ele>
  <time>2026-09-01T01:14:17Z</time>
  <course>45.65</course>
  <speed>1.0186265262597474</speed>
  <fix>3d</fix>
</trkpt>
<trkpt lat="33.8099957" lon="-118.3954072">
  <ele>-24.41</ele>
  <time>2026-09-01T01:14:17Z</time>
  <course>315.74</course>
  <speed>0.99</speed>
  <fix>3d</fix>
</trkpt>
<trkpt lat="33.8099975" lon="-118.395409">
  <ele>-25.014</ele>
  <time>2026-09-01T01:14:17Z</time>
  <course>45.76</course>
  <speed>1.0186265262597474</speed>
  <fix>3d</fix>
</trkpt>
<trkpt lat="33.8099957" lon="-118.3954072">
  <ele>-24.41</ele>
  <time>2026-09-01T01:14:17Z</time>
  <course>315.74</course>
  <speed>0.99</speed>
  <fix>3d</fix>
</trkpt>
<trkpt lat="33.8099981" lon="-118.3954098">
  <ele>-25.014</ele>
  <time>2026-09-01T01:14:17Z</time>
  <course>45.88</course>
  <speed>1.0117806086301515</speed>
  <fix>3d</fix>
</trkpt>
<trkpt lat="33.809997" lon="-118.3954087">
  <ele>-24.41</ele>
  <time>2026-09-01T01:14:17Z</time>
  <course>316.0</course>
  <speed>1.0</speed>
  <fix>3d</fix>
</trkpt>
<trkpt lat="33.8099988" lon="-118.3954105">
  <ele>-25.013</ele>
  <time>2026-09-01T01:14:17Z</time>
  <course>45.99</course>
  <speed>1.0191172650877818</speed>
  <fix>3d</fix>
</trkpt>
<trkpt lat="33.809997" lon="-118.3954087">
  <ele>-24.41</ele>
  <time>2026-09-01T01:14:17Z</time>
  <course>316.0</course>
  <speed>1.0</speed>
  <fix>3d</fix>
</trkpt>
<trkpt lat="33.8099994" lon="-118.3954113">
  <ele>-25.012</ele>
  <time>2026-09-01T01:14:17Z</time>
  <course>46.1</course>
  <speed>1.0191172650877818</speed>
  <fix>3d</fix>
</trkpt>
<trkpt lat="33.8099983" lon="-118.3954102">
  <ele>-24.41</ele>
  <time>2026-09-01T01:14:17Z</time>
  <course>316.25</course>
  <speed>1.0</speed>
  <fix>3d</fix>
</trkpt>
<trkpt lat="33.8100001" lon="-118.395412">
  <ele>-25.012</ele>
  <time>2026-09-01T01:14:17Z</time>
  <course>46.22</course>
  <speed>1.0191172650877818</speed>
  <fix>3d</fix>
</trkpt>
<trkpt lat="33.8099983" lon="-118.3954102">
  <ele>-24.41</ele>
  <time>2026-09-01T01:14:17Z</time>
  <course>316.25</course>
  <speed>1.0</speed>
  <fix>3d</fix>
</trkpt>
<trkpt lat="33.8100007" lon="-118.3954128">
  <ele>-25.011</ele>
  <time>2026-09-01T01:14:17Z</time>
  <course>46.33</course>
  <speed>1.0191172650877818</speed>
  <fix>3d</fix>
</trkpt>
<trkpt lat="33.8099996" lon="-118.3954117">
  <ele>-24.41</ele>
  <time>2026-09-01T01:14:17Z</time>
  <course>316.49</course>
  <speed>1.0</speed>
  <fix>3d</fix>
</trkpt>
<trkpt lat="33.8100014" lon="-118.3954135">
  <ele>-25.012</ele>
  <time>2026-09-01T01:14:17Z</time>
  <course>46.45</course>
  <speed>1.0191172650877818</speed>
  <fix>3d</fix>
</trkpt>
<trkpt lat="33.8099996" lon="-118.3954117">
  <ele>-24.41</ele>
  <time>2026-09-01T01:14:17Z</time>
  <course>316.49</course>
  <speed>1.0</speed>
  <fix>3d</fix>
</trkpt>
<trkpt lat="33.810002" lon="-118.3954142">
  <ele>-25.013</ele>
  <time>2026-09-01T01:14:17Z</time>
  <course>46.56</course>
  <speed>1.0191172650877818</speed>
  <fix>3d</fix>
</trkpt>
<trkpt lat="33.8100009" lon="-118.3954132">
  <ele>-24.41</ele>
  <time>2026-09-01T01:14:17Z</time>
  <course>316.72</course>
  <speed>1.0</speed>
  <fix>3d</fix>
</trkpt>
<trkpt lat="33.8100027" lon="-118.395415">
  <ele>-25.014</ele>
  <time>2026-09-01T01:14:17Z</time>
  <course>46.68</course>
  <speed>1.0123734488813898</speed>
  <fix>3d</fix>
</trkpt>
<trkpt lat="33.8100009" lon="-118.3954132">
  <ele>-24.41</ele>
  <time>2026-09-01T01:14:17Z</time>
  <course>316.72</course>
  <speed>1.0</speed>
  <fix>3d</fix>
</trkpt>
<trkpt lat="33.8100033" lon="-118.3954157">
  <ele>-25.014</ele>
  <time>2026-09-01T01:14:17Z</time>
  <course>46.79</course>
  <speed>1.019803902718557</speed>
  <fix>3d</fix>
</trkpt>
<trkpt lat="33.8100022" lon="-118.3954147">
  <ele>-24.41</ele>
  <time>2026-09-01T01:14:17Z</time>
  <course>316.94</course>
  <speed>1.0</speed>
  <fix>3d</fix>
</trkpt>
<trkpt lat="33.810004" lon="-118.3954165">
  <ele>-25.015</ele>
  <time>2026-09-01T01:14:17Z</time>
  <course>46.9</course>
  <speed>1.019803902718557</speed>
  <fix>3d</fix>
</trkpt>
<trkpt lat="33.8100022" lon="-118.3954147">
  <ele>-24.41</ele>
  <time>2026-09-01T01:14:17Z</time>
  <course>316.94</course>
  <speed>1.0</speed>
  <fix>3d</fix>
</trkpt>
<trkpt lat="33.8100047" lon="-118.3954172">
  <ele>-25.015</ele>
  <time>2026-09-01T01:14:17Z</time>
  <course>47.02</course>
  <speed>1.019803902718557</speed>
  <fix>3d</fix>
</trkpt>
<trkpt lat="33.8100036" lon="-118.3954161">
  <ele>-24.41</ele>
  <time>2026-09-01T01:14:17Z</time>
  <course>317.18</course>
  <speed>1.0</speed>
  <fix>3d</fix>
</trkpt>
<trkpt lat="33.8100053" lon="-118.3954179">
  <ele>-25.016</ele>
  <time>2026-09-01T01:14:17Z</time>
  <course>47.14</course>
  <speed>1.019803902718557</speed>
  <fix>3d</fix>
</trkpt>
<trkpt lat="33.8100036" lon="-118.3954161">
  <ele>-24.41</ele>
  <time>2026-09-01T01:14:17Z</time>
  <course>317.18</course>
  <speed>1.0</speed>
  <fix>3d</fix>
</trkpt>
<trkpt lat="33.810006" lon="-118.3954186">
  <ele>-25.016</ele>
  <time>2026-09-01T01:14:17Z</time>
  <course>47.25</course>
  <speed>1.019803902718557</speed>
  <fix>3d</fix>
</trkpt>
<trkpt lat="33.8100049" lon="-118.3954176">
  <ele>-24.42</ele>
  <time>2026-09-01T01:14:17Z</time>
  <course>317.38</course>
  <speed>1.0</speed>
  <fix>3d</fix>
</trkpt>
<trkpt lat="33.8100066" lon="-118.3954194">
  <ele>-25.016</ele>
  <time>2026-09-01T01:14:17Z</time>
  <course>47.37</course>
  <speed>1.019803902718557</speed>
  <fix>3d</fix>
</trkpt>
<trkpt lat="33.8100049" lon="-118.3954176">
  <ele>-24.42</ele>
  <time>2026-09-01T01:14:17Z</time>
  <course>317.38</course>
  <speed>1.0</speed>
  <fix>3d</fix>
</trkpt>
<trkpt lat="33.8100073" lon="-118.3954201">
  <ele>-25.017</ele>
  <time>2026-09-01T01:14:17Z</time>
  <course>47.48</course>
  <speed>1.0131633629380803</speed>
  <fix>3d</fix>
</trkpt>
<trkpt lat="33.8100062" lon="-118.3954191">
  <ele>-24.41</ele>
  <time>2026-09-01T01:14:17Z</time>
  <course>317.53</course>
  <speed>1.0</speed>
  <fix>3d</fix>
</trkpt>
<trkpt lat="33.810008" lon="-118.3954208">
  <ele>-25.018</ele>
  <time>2026-09-01T01:14:17Z</time>
  <course>47.6</course>
  <speed>1.0131633629380803</speed>
  <fix>3d</fix>
</trkpt>
<trkpt lat="33.8100062" lon="-118.3954191">
  <ele>-24.41</ele>
  <time>2026-09-01T01:14:17Z</time>
  <course>317.53</course>
  <speed>1.0</speed>
  <fix>3d</fix>
</trkpt>
<trkpt lat="33.8100086" lon="-118.3954216">
  <ele>-25.017</ele>
  <time>2026-09-01T01:14:17Z</time>
  <course>47.71</course>
  <speed>1.0131633629380803</speed>
  <fix>3d</fix>
</trkpt>
<trkpt lat="33.8100075" lon="-118.3954205">
  <ele>-24.41</ele>
  <time>2026-09-01T01:14:17Z</time>
  <course>317.7</course>
  <speed>1.0</speed>
  <fix>3d</fix>
</trkpt>
<trkpt lat="33.8100093" lon="-118.3954223">
  <ele>-25.017</ele>
  <time>2026-09-01T01:14:17Z</time>
  <course>47.82</course>
  <speed>1.0206860437960343</speed>
  <fix>3d</fix>
</trkpt>
<trkpt lat="33.8100075" lon="-118.3954205">
  <ele>-24.41</ele>
  <time>2026-09-01T01:14:17Z</time>
  <course>317.7</course>
  <speed>1.0</speed>
  <fix>3d</fix>
</trkpt>
<trkpt lat="33.81001" lon="-118.395423">
  <ele>-25.016</ele>
  <time>2026-09-01T01:14:17Z</time>
  <course>47.94</course>
  <speed>1.0206860437960343</speed>
  <fix>3d</fix>
</trkpt>
<trkpt lat="33.8100089" lon="-118.395422">
  <ele>-24.41</ele>
  <time>2026-09-01T01:14:17Z</time>
  <course>317.92</course>
  <speed>1.0</speed>
  <fix>3d</fix>
</trkpt>
<trkpt lat="33.8100106" lon="-118.3954237">
  <ele>-25.015</ele>
  <time>2026-09-01T01:14:17Z</time>
  <course>48.05</course>
  <speed>1.0206860437960343</speed>
  <fix>3d</fix>
</trkpt>
<trkpt lat="33.8100089" lon="-118.395422">
  <ele>-24.41</ele>
  <time>2026-09-01T01:14:17Z</time>
  <course>317.92</course>
  <speed>1.0</speed>
  <fix>3d</fix>
</trkpt>
<trkpt lat="33.8100113" lon="-118.3954244">
  <ele>-25.014</ele>
  <time>2026-09-01T01:14:17Z</time>
  <course>48.17</course>
  <speed>1.0206860437960343</speed>
  <fix>3d</fix>
</trkpt>
<trkpt lat="33.8100102" lon="-118.3954234">
  <ele>-24.41</ele>
  <time>2026-09-01T01:14:17Z</time>
  <course>318.13</course>
  <speed>1.0</speed>
  <fix>3d</fix>
</trkpt>
<trkpt lat="33.810012" lon="-118.3954252">
  <ele>-25.013</ele>
  <time>2026-09-01T01:14:17Z</time>
  <course>48.28</course>
  <speed>1.0141498903022177</speed>
  <fix>3d</fix>
</trkpt>
<trkpt lat="33.8100102" lon="-118.3954234">
  <ele>-24.41</ele>
  <time>2026-09-01T01:14:17Z</time>
  <course>318.13</course>
  <speed>1.0</speed>
  <fix>3d</fix>
</trkpt>
<trkpt lat="33.8100127" lon="-118.3954259">
  <ele>-25.012</ele>
  <time>2026-09-01T01:14:17Z</time>
  <course>48.4</course>
  <speed>1.0141498903022177</speed>
  <fix>3d</fix>
</trkpt>
<trkpt lat="33.8100115" lon="-118.3954249">
  <ele>-24.41</ele>
  <time>2026-09-01T01:14:17Z</time>
  <course>318.34</course>
  <speed>1.0</speed>
  <fix>3d</fix>
</trkpt>
<trkpt lat="33.8100133" lon="-118.3954266">
  <ele>-25.012</ele>
  <time>2026-09-01T01:14:17Z</time>
  <course>48.51</course>
  <speed>1.0217631819555841</speed>
  <fix>3d</fix>
</trkpt>
<trkpt lat="33.8100115" lon="-118.3954249">
  <ele>-24.41</ele>
  <time>2026-09-01T01:14:17Z</time>
  <course>318.34</course>
  <speed>1.0</speed>
  <fix>3d</fix>
</trkpt>
<trkpt lat="33.810014" lon="-118.3954273">
  <ele>-25.011</ele>
  <time>2026-09-01T01:14:17Z</time>
  <course>48.63</course>
  <speed>1.0217631819555841</speed>
  <fix>3d</fix>
</trkpt>
<trkpt lat="33.8100129" lon="-118.3954263">
  <ele>-24.4</ele>
  <time>2026-09-01T01:14:17Z</time>
  <course>318.58</course>
  <speed>1.0</speed>
  <fix>3d</fix>
</trkpt>
<trkpt lat="33.8100147" lon="-118.395428">
  <ele>-25.011</ele>
  <time>2026-09-01T01:14:17Z</time>
  <course>48.74</course>
  <speed>1.0217631819555841</speed>
  <fix>3d</fix>
</trkpt>
<trkpt lat="33.8100129" lon="-118.3954263">
  <ele>-24.4</ele>
  <time>2026-09-01T01:14:17Z</time>
  <course>318.58</course>
  <speed>1.0</speed>
  <fix>3d</fix>
</trkpt>
<trkpt lat="33.8100154" lon="-118.3954287">
  <ele>-25.011</ele>
  <time>2026-09-01T01:14:17Z</time>
  <course>48.86</course>
  <speed>1.0217631819555841</speed>
  <fix>3d</fix>
</trkpt>
<trkpt lat="33.8100143" lon="-118.3954278">
  <ele>-24.4</ele>
  <time>2026-09-01T01:14:17Z</time>
  <course>318.83</course>
  <speed>1.0</speed>
  <fix>3d</fix>
</trkpt>
<trkpt lat="33.8100161" lon="-118.3954295">
  <ele>-25.011</ele>
  <time>2026-09-01T01:14:17Z</time>
  <course>48.97</course>
  <speed>1.015332457867865</speed>
  <fix>3d</fix>
</trkpt>
<trkpt lat="33.8100143" lon="-118.3954278">
  <ele>-24.4</ele>
  <time>2026-09-01T01:14:17Z</time>
  <course>318.83</course>
  <speed>1.0</speed>
  <fix>3d</fix>
</trkpt>
<trkpt lat="33.8100167" lon="-118.3954302">
  <ele>-25.012</ele>
  <time>2026-09-01T01:14:17Z</time>
  <course>49.08</course>
  <speed>1.015332457867865</speed>
  <fix>3d</fix>
</trkpt>
<trkpt lat="33.8100156" lon="-118.3954292">
  <ele>-24.41</ele>
  <time>2026-09-01T01:14:17Z</time>
  <course>319.07</course>
  <speed>0.99</speed>
  <fix>3d</fix>
</trkpt>
<trkpt lat="33.8100174" lon="-118.3954309">
  <ele>-25.013</ele>
  <time>2026-09-01T01:14:17Z</time>
  <course>49.2</course>
  <speed>1.015332457867865</speed>
  <fix>3d</fix>
</trkpt>
<trkpt lat="33.8100156" lon="-118.3954292">
  <ele>-24.41</ele>
  <time>2026-09-01T01:14:17Z</time>
  <course>319.07</course>
  <speed>0.99</speed>
  <fix>3d</fix>
</trkpt>
<trkpt lat="33.8100181" lon="-118.3954316">
  <ele>-25.015</ele>
  <time>2026-09-01T01:14:17Z</time>
  <course>49.31</course>
  <speed>1.015332457867865</speed>
  <fix>3d</fix>
</trkpt>
<trkpt lat="33.810017" lon="-118.3954306">
  <ele>-24.41</ele>
  <time>2026-09-01T01:14:17Z</time>
  <course>319.33</course>
  <speed>0.99</speed>
  <fix>3d</fix>
</trkpt>
<trkpt lat="33.8100188" lon="-118.3954323">
  <ele>-25.016</ele>
  <time>2026-09-01T01:14:17Z</time>
  <course>49.43</course>
  <speed>1.015332457867865</speed>
  <fix>3d</fix>
</trkpt>
<trkpt lat="33.810017" lon="-118.3954306">
  <ele>-24.41</ele>
  <time>2026-09-01T01:14:17Z</time>
  <course>319.33</course>
  <speed>0.99</speed>
  <fix>3d</fix>
</trkpt>
<trkpt lat="33.8100195" lon="-118.395433">
  <ele>-25.016</ele>
  <time>2026-09-01T01:14:17Z</time>
  <course>49.54</course>
  <speed>1.0167103815738285</speed>
  <fix>3d</fix>
</trkpt>
<trkpt lat="33.8100183" lon="-118.395432">
  <ele>-24.41</ele>
  <time>2026-09-01T01:14:17Z</time>
  <course>319.56</course>
  <speed>0.99</speed>
  <fix>3d</fix>
</trkpt>
<trkpt lat="33.8100202" lon="-118.3954337">
  <ele>-25.016</ele>
  <time>2026-09-01T01:14:17Z</time>
  <course>49.66</course>
  <speed>1.0167103815738285</speed>
  <fix>3d</fix>
</trkpt>
<trkpt lat="33.8100183" lon="-118.395432">
  <ele>-24.41</ele>
  <time>2026-09-01T01:14:17Z</time>
  <course>319.56</course>
  <speed>0.99</speed>
  <fix>3d</fix>
</trkpt>
<trkpt lat="33.8100209" lon="-118.3954344">
  <ele>-25.017</ele>
  <time>2026-09-01T01:14:17Z</time>
  <course>49.77</course>
  <speed>1.0167103815738285</speed>
  <fix>3d</fix>
</trkpt>
<trkpt lat="33.8100197" lon="-118.3954334">
  <ele>-24.41</ele>
  <time>2026-09-01T01:14:17Z</time>
  <course>319.79</course>
  <speed>0.99</speed>
  <fix>3d</fix>
</trkpt>
<trkpt lat="33.8100215" lon="-118.3954351">
  <ele>-25.017</ele>
  <time>2026-09-01T01:14:17Z</time>
  <course>49.89</course>
  <speed>1.0167103815738285</speed>
  <fix>3d</fix>
</trkpt>
<trkpt lat="33.8100197" lon="-118.3954334">
  <ele>-24.41</ele>
  <time>2026-09-01T01:14:17Z</time>
  <course>319.79</course>
  <speed>0.99</speed>
  <fix>3d</fix>
</trkpt>
<trkpt lat="33.8100222" lon="-118.3954358">
  <ele>-25.017</ele>
  <time>2026-09-01T01:14:17Z</time>
  <course>50.0</course>
  <speed>1.0167103815738285</speed>
  <fix>3d</fix>
</trkpt>
<trkpt lat="33.8100211" lon="-118.3954348">
  <ele>-24.41</ele>
  <time>2026-09-01T01:14:17Z</time>
  <course>320.01</course>
  <speed>0.99</speed>
  <fix>3d</fix>
</trkpt>
<trkpt lat="33.8100229" lon="-118.3954364">
  <ele>-25.017</ele>
  <time>2026-09-01T01:14:17Z</time>
  <course>50.11</course>
  <speed>1.0167103815738285</speed>
  <fix>3d</fix>
</trkpt>
<trkpt lat="33.8100211" lon="-118.3954348">
  <ele>-24.41</ele>
  <time>2026-09-01T01:14:17Z</time>
  <course>320.01</course>
  <speed>0.99</speed>
  <fix>3d</fix>
</trkpt>
<trkpt lat="33.8100236" lon="-118.3954371">
  <ele>-25.016</ele>
  <time>2026-09-01T01:14:17Z</time>
  <course>50.23</course>
  <speed>1.0104454463255303</speed>
  <fix>3d</fix>
</trkpt>
<trkpt lat="33.8100225" lon="-118.3954362">
  <ele>-24.4</ele>
  <time>2026-09-01T01:14:17Z</time>
  <course>320.21</course>
  <speed>0.99</speed>
  <fix>3d</fix>
</trkpt>
<trkpt lat="33.8100243" lon="-118.3954378">
  <ele>-25.014</ele>
  <time>2026-09-01T01:14:18Z</time>
  <course>50.34</course>
  <speed>1.0104454463255303</speed>
  <fix>3d</fix>
</trkpt>
<trkpt lat="33.8100225" lon="-118.3954362">
  <ele>-24.4</ele>
  <time>2026-09-01T01:14:18Z</time>
  <course>320.21</course>
  <speed>0.99</speed>
  <fix>3d</fix>
</trkpt>
<trkpt lat="33.810025" lon="-118.3954385">
  <ele>-25.012</ele>
  <time>2026-09-01T01:14:18Z</time>
  <course>50.46</course>
  <speed>1.0182828683622247</speed>
  <fix>3d</fix>
</trkpt>
<trkpt lat="33.8100238" lon="-118.3954375">
  <ele>-24.4</ele>
  <time>2026-09-01T01:14:18Z</time>
  <course>320.43</course>
  <speed>0.99</speed>
  <fix>3d</fix>
</trkpt>
<trkpt lat="33.8100257" lon="-118.3954392">
  <ele>-25.01</ele>
  <time>2026-09-01T01:14:18Z</time>
  <course>50.57</course>
  <speed>1.0182828683622247</speed>
  <fix>3d</fix>
</trkpt>
<trkpt lat="33.8100238" lon="-118.3954375">
  <ele>-24.4</ele>
  <time>2026-09-01T01:14:18Z</time>
  <course>320.43</course>
  <speed>0.99</speed>
  <fix>3d</fix>
</trkpt>
<trkpt lat="33.8100264" lon="-118.3954399">
  <ele>-25.009</ele>
  <time>2026-09-01T01:14:18Z</time>
  <course>50.69</course>
  <speed>1.0182828683622247</speed>
  <fix>3d</fix>
</trkpt>
<trkpt lat="33.8100252" lon="-118.3954388">
  <ele>-24.4</ele>
  <time>2026-09-01T01:14:18Z</time>
  <course>320.65</course>
  <speed>0.99</speed>
  <fix>3d</fix>
</trkpt>
<trkpt lat="33.8100271" lon="-118.3954406">
  <ele>-25.008</ele>
  <time>2026-09-01T01:14:18Z</time>
  <course>50.8</course>
  <speed>1.0182828683622247</speed>
  <fix>3d</fix>
</trkpt>
<trkpt lat="33.8100252" lon="-118.3954388">
  <ele>-24.4</ele>
  <time>2026-09-01T01:14:18Z</time>
  <course>320.65</course>
  <speed>0.99</speed>
  <fix>3d</fix>
</trkpt>
<trkpt lat="33.8100278" lon="-118.3954412">
  <ele>-25.008</ele>
  <time>2026-09-01T01:14:18Z</time>
  <course>50.92</course>
  <speed>1.0182828683622247</speed>
  <fix>3d</fix>
</trkpt>
<trkpt lat="33.8100266" lon="-118.3954403">
  <ele>-24.4</ele>
  <time>2026-09-01T01:14:18Z</time>
  <course>320.83</course>
  <speed>0.99</speed>
  <fix>3d</fix>
</trkpt>
<trkpt lat="33.8100285" lon="-118.3954419">
  <ele>-25.008</ele>
  <time>2026-09-01T01:14:18Z</time>
  <course>51.04</course>
  <speed>1.0182828683622247</speed>
  <fix>3d</fix>
</trkpt>
<trkpt lat="33.8100266" lon="-118.3954403">
  <ele>-24.4</ele>
  <time>2026-09-01T01:14:18Z</time>
  <course>320.83</course>
  <speed>0.99</speed>
  <fix>3d</fix>
</trkpt>
<trkpt lat="33.8100292" lon="-118.3954426">
  <ele>-25.008</ele>
  <time>2026-09-01T01:14:18Z</time>
  <course>51.15</course>
  <speed>1.0121264743103995</speed>
  <fix>3d</fix>
</trkpt>
<trkpt lat="33.810028" lon="-118.3954416">
  <ele>-24.4</ele>
  <time>2026-09-01T01:14:18Z</time>
  <course>321.02</course>
  <speed>0.99</speed>
  <fix>3d</fix>
</trkpt>
<trkpt lat="33.8100299" lon="-118.3954433">
  <ele>-25.01</ele>
  <time>2026-09-01T01:14:18Z</time>
  <course>51.26</course>
  <speed>1.0200490184299968</speed>
  <fix>3d</fix>
</trkpt>
<trkpt lat="33.810028" lon="-118.3954416">
  <ele>-24.4</ele>
  <time>2026-09-01T01:14:18Z</time>
  <course>321.02</course>
  <speed>0.99</speed>
  <fix>3d</fix>
</trkpt>
<trkpt lat="33.8100306" lon="-118.3954439">
  <ele>-25.011</ele>
  <time>2026-09-01T01:14:18Z</time>
  <course>51.38</course>
  <speed>1.0200490184299968</speed>
  <fix>3d</fix>
</trkpt>
<trkpt lat="33.8100294" lon="-118.395443">
  <ele>-24.4</ele>
  <time>2026-09-01T01:14:18Z</time>
  <course>321.25</course>
  <speed>0.99</speed>
  <fix>3d</fix>
</trkpt>
<trkpt lat="33.8100313" lon="-118.3954446">
  <ele>-25.013</ele>
  <time>2026-09-01T01:14:18Z</time>
  <course>51.49</course>
  <speed>1.0200490184299968</speed>
  <fix>3d</fix>
</trkpt>
<trkpt lat="33.8100294" lon="-118.395443">
  <ele>-24.4</ele>
  <time>2026-09-01T01:14:18Z</time>
  <course>321.25</course>
  <speed>0.99</speed>
  <fix>3d</fix>
</trkpt>
<trkpt lat="33.810032" lon="-118.3954453">
  <ele>-25.014</ele>
  <time>2026-09-01T01:14:18Z</time>
  <course>51.6</course>
  <speed>1.0200490184299968</speed>
  <fix>3d</fix>
</trkpt>
<trkpt lat="33.8100308" lon="-118.3954443">
  <ele>-24.41</ele>
  <time>2026-09-01T01:14:18Z</time>
  <course>321.5</course>
  <speed>0.99</speed>
  <fix>3d</fix>
</trkpt>
<trkpt lat="33.8100327" lon="-118.3954459">
  <ele>-25.014</ele>
  <time>2026-09-01T01:14:18Z</time>
  <course>51.72</course>
  <speed>1.0200490184299968</speed>
  <fix>3d</fix>
</trkpt>
<trkpt lat="33.8100308" lon="-118.3954443">
  <ele>-24.41</ele>
  <time>2026-09-01T01:14:18Z</time>
  <course>321.5</course>
  <speed>0.99</speed>
  <fix>3d</fix>
</trkpt>
<trkpt lat="33.8100334" lon="-118.3954466">
  <ele>-25.015</ele>
  <time>2026-09-01T01:14:18Z</time>
  <course>51.83</course>
  <speed>1.0140019723846694</speed>
  <fix>3d</fix>
</trkpt>
<trkpt lat="33.8100321" lon="-118.3954457">
  <ele>-24.41</ele>
  <time>2026-09-01T01:14:18Z</time>
  <course>321.75</course>
  <speed>0.99</speed>
  <fix>3d</fix>
</trkpt>
<trkpt lat="33.8100341" lon="-118.3954473">
  <ele>-25.015</ele>
  <time>2026-09-01T01:14:18Z</time>
  <course>51.95</course>
  <speed>1.0220078277586722</speed>
  <fix>3d</fix>
</trkpt>
<trkpt lat="33.8100321" lon="-118.3954457">
  <ele>-24.41</ele>
  <time>2026-09-01T01:14:18Z</time>
  <course>321.75</course>
  <speed>0.99</speed>
  <fix>3d</fix>
</trkpt>
<trkpt lat="33.8100348" lon="-118.3954479">
  <ele>-25.015</ele>
  <time>2026-09-01T01:14:18Z</time>
  <course>52.07</course>
  <speed>1.0220078277586722</speed>
  <fix>3d</fix>
</trkpt>
<trkpt lat="33.8100336" lon="-118.395447">
  <ele>-24.41</ele>
  <time>2026-09-01T01:14:18Z</time>
  <course>322.04</course>
  <speed>1.0</speed>
  <fix>3d</fix>
</trkpt>
<trkpt lat="33.8100355" lon="-118.3954486">
  <ele>-25.016</ele>
  <time>2026-09-01T01:14:18Z</time>
  <course>52.18</course>
  <speed>1.0220078277586722</speed>
  <fix>3d</fix>
</trkpt>
<trkpt lat="33.8100336" lon="-118.395447">
  <ele>-24.41</ele>
  <time>2026-09-01T01:14:18Z</time>
  <course>322.04</course>
  <speed>1.0</speed>
  <fix>3d</fix>
</trkpt>
<trkpt lat="33.8100363" lon="-118.3954493">
  <ele>-25.018</ele>
  <time>2026-09-01T01:14:18Z</time>
  <course>52.3</course>
  <speed>1.0220078277586722</speed>
  <fix>3d</fix>
</trkpt>
<trkpt lat="33.8100351" lon="-118.3954483">
  <ele>-24.41</ele>
  <time>2026-09-01T01:14:18Z</time>
  <course>322.36</course>
  <speed>1.0</speed>
  <fix>3d</fix>
</trkpt>
<trkpt lat="33.810037" lon="-118.3954499">
  <ele>-25.019</ele>
  <time>2026-09-01T01:14:18Z</time>
  <course>52.41</course>
  <speed>1.016070863670443</speed>
  <fix>3d</fix>
</trkpt>
<trkpt lat="33.8100351" lon="-118.3954483">
  <ele>-24.41</ele>
  <time>2026-09-01T01:14:18Z</time>
  <course>322.36</course>
  <speed>1.0</speed>
  <fix>3d</fix>
</trkpt>
<trkpt lat="33.8100377" lon="-118.3954506">
  <ele>-25.019</ele>
  <time>2026-09-01T01:14:18Z</time>
  <course>52.52</course>
  <speed>1.016070863670443</speed>
  <fix>3d</fix>
</trkpt>
<trkpt lat="33.8100364" lon="-118.3954496">
  <ele>-24.41</ele>
  <time>2026-09-01T01:14:18Z</time>
  <course>322.58</course>
  <speed>1.0</speed>
  <fix>3d</fix>
</trkpt>
<trkpt lat="33.8100384" lon="-118.3954512">
  <ele>-25.02</ele>
  <time>2026-09-01T01:14:18Z</time>
  <course>52.64</course>
  <speed>1.016070863670443</speed>
  <fix>3d</fix>
</trkpt>
<trkpt lat="33.8100364" lon="-118.3954496">
  <ele>-24.41</ele>
  <time>2026-09-01T01:14:18Z</time>
  <course>322.58</course>
  <speed>1.0</speed>
  <fix>3d</fix>
</trkpt>
<trkpt lat="33.8100391" lon="-118.3954519">
  <ele>-25.019</ele>
  <time>2026-09-01T01:14:18Z</time>
  <course>52.75</course>
  <speed>1.016070863670443</speed>
  <fix>3d</fix>
</trkpt>
<trkpt lat="33.8100379" lon="-118.3954509">
  <ele>-24.41</ele>
  <time>2026-09-01T01:14:18Z</time>
  <course>322.76</course>
  <speed>1.0</speed>
  <fix>3d</fix>
</trkpt>
<trkpt lat="33.8100398" lon="-118.3954525">
  <ele>-25.018</ele>
  <time>2026-09-01T01:14:18Z</time>
  <course>52.87</course>
  <speed>1.0241581909060729</speed>
  <fix>3d</fix>
</trkpt>
<trkpt lat="33.8100379" lon="-118.3954509">
  <ele>-24.41</ele>
  <time>2026-09-01T01:14:18Z</time>
  <course>322.76</course>
  <speed>1.0</speed>
  <fix>3d</fix>
</trkpt>
<trkpt lat="33.8100406" lon="-118.3954532">
  <ele>-25.016</ele>
  <time>2026-09-01T01:14:18Z</time>
  <course>52.98</course>
  <speed>1.0241581909060729</speed>
  <fix>3d</fix>
</trkpt>
<trkpt lat="33.8100393" lon="-118.3954523">
  <ele>-24.4</ele>
  <time>2026-09-01T01:14:18Z</time>
  <course>322.95</course>
  <speed>1.0</speed>
  <fix>3d</fix>
</trkpt>
<trkpt lat="33.8100413" lon="-118.3954538">
  <ele>-25.013</ele>
  <time>2026-09-01T01:14:18Z</time>
  <course>53.09</course>
  <speed>1.0241581909060729</speed>
  <fix>3d</fix>
</trkpt>
<trkpt lat="33.8100393" lon="-118.3954523">
  <ele>-24.4</ele>
  <time>2026-09-01T01:14:18Z</time>
  <course>322.95</course>
  <speed>1.0</speed>
  <fix>3d</fix>
</trkpt>
<trkpt lat="33.810042" lon="-118.3954545">
  <ele>-25.01</ele>
  <time>2026-09-01T01:14:18Z</time>
  <course>53.21</course>
  <speed>1.0183319694480775</speed>
  <fix>3d</fix>
</trkpt>
<trkpt lat="33.8100407" lon="-118.3954536">
  <ele>-24.4</ele>
  <time>2026-09-01T01:14:18Z</time>
  <course>323.17</course>
  <speed>1.0</speed>
  <fix>3d</fix>
</trkpt>
<trkpt lat="33.8100427" lon="-118.3954551">
  <ele>-25.009</ele>
  <time>2026-09-01T01:14:18Z</time>
  <course>53.33</course>
  <speed>1.0183319694480775</speed>
  <fix>3d</fix>
</trkpt>
<trkpt lat="33.8100407" lon="-118.3954536">
  <ele>-24.4</ele>
  <time>2026-09-01T01:14:18Z</time>
  <course>323.17</course>
  <speed>1.0</speed>
  <fix>3d</fix>
</trkpt>
<trkpt lat="33.8100434" lon="-118.3954558">
  <ele>-25.008</ele>
  <time>2026-09-01T01:14:18Z</time>
  <course>53.44</course>
  <speed>1.0183319694480775</speed>
  <fix>3d</fix>
</trkpt>
<trkpt lat="33.8100422" lon="-118.3954549">
  <ele>-24.4</ele>
  <time>2026-09-01T01:14:18Z</time>
  <course>323.46</course>
  <speed>1.0</speed>
  <fix>3d</fix>
</trkpt>
<trkpt lat="33.8100442" lon="-118.3954564">
  <ele>-25.008</ele>
  <time>2026-09-01T01:14:18Z</time>
  <course>53.56</course>
  <speed>1.0183319694480775</speed>
  <fix>3d</fix>
</trkpt>
<trkpt lat="33.8100422" lon="-118.3954549">
  <ele>-24.4</ele>
  <time>2026-09-01T01:14:18Z</time>
  <course>323.46</course>
  <speed>1.0</speed>
  <fix>3d</fix>
</trkpt>
<trkpt lat="33.8100449" lon="-118.395457">
  <ele>-25.008</ele>
  <time>2026-09-01T01:14:18Z</time>
  <course>53.67</course>
  <speed>1.0183319694480775</speed>
  <fix>3d</fix>
</trkpt>
<trkpt lat="33.8100436" lon="-118.3954561">
  <ele>-24.4</ele>
  <time>2026-09-01T01:14:18Z</time>
  <course>323.75</course>
  <speed>1.0</speed>
  <fix>3d</fix>
</trkpt>
<trkpt lat="33.8100456" lon="-118.3954577">
  <ele>-25.009</ele>
  <time>2026-09-01T01:14:18Z</time>
  <course>53.78</course>
  <speed>1.026498904042279</speed>
  <fix>3d</fix>
</trkpt>
<trkpt lat="33.8100436" lon="-118.3954561">
  <ele>-24.4</ele>
  <time>2026-09-01T01:14:18Z</time>
  <course>323.75</course>
  <speed>1.0</speed>
  <fix>3d</fix>
</trkpt>
<trkpt lat="33.8100463" lon="-118.3954583">
  <ele>-25.01</ele>
  <time>2026-09-01T01:14:18Z</time>
  <course>53.9</course>
  <speed>1.0207840124139878</speed>
  <fix>3d</fix>
</trkpt>
<trkpt lat="33.8100451" lon="-118.3954574">
  <ele>-24.4</ele>
  <time>2026-09-01T01:14:18Z</time>
  <course>324.01</course>
  <speed>1.0</speed>
  <fix>3d</fix>
</trkpt>
<trkpt lat="33.8100471" lon="-118.3954589">
  <ele>-25.011</ele>
  <time>2026-09-01T01:14:18Z</time>
  <course>54.01</course>
  <speed>1.0207840124139878</speed>
  <fix>3d</fix>
</trkpt>
<trkpt lat="33.8100451" lon="-118.3954574">
  <ele>-24.4</ele>
  <time>2026-09-01T01:14:18Z</time>
  <course>324.01</course>
  <speed>1.0</speed>
  <fix>3d</fix>
</trkpt>
<trkpt lat="33.8100478" lon="-118.3954596">
  <ele>-25.013</ele>
  <time>2026-09-01T01:14:18Z</time>
  <course>54.13</course>
  <speed>1.0207840124139878</speed>
  <fix>3d</fix>
</trkpt>
<trkpt lat="33.8100466" lon="-118.3954587">
  <ele>-24.4</ele>
  <time>2026-09-01T01:14:18Z</time>
  <course>324.23</course>
  <speed>1.0</speed>
  <fix>3d</fix>
</trkpt>
<trkpt lat="33.8100485" lon="-118.3954602">
  <ele>-25.014</ele>
  <time>2026-09-01T01:14:18Z</time>
  <course>54.24</course>
  <speed>1.0207840124139878</speed>
  <fix>3d</fix>
</trkpt>
<trkpt lat="33.8100466" lon="-118.3954587">
  <ele>-24.4</ele>
  <time>2026-09-01T01:14:18Z</time>
  <course>324.23</course>
  <speed>1.0</speed>
  <fix>3d</fix>
</trkpt>
<trkpt lat="33.8100493" lon="-118.3954608">
  <ele>-25.014</ele>
  <time>2026-09-01T01:14:18Z</time>
  <course>54.35</course>
  <speed>1.0207840124139878</speed>
  <fix>3d</fix>
</trkpt>
<trkpt lat="33.810048" lon="-118.3954599">
  <ele>-24.41</ele>
  <time>2026-09-01T01:14:18Z</time>
  <course>324.41</course>
  <speed>1.0</speed>
  <fix>3d</fix>
</trkpt>
<trkpt lat="33.81005" lon="-118.3954614">
  <ele>-25.015</ele>
  <time>2026-09-01T01:14:18Z</time>
  <course>54.47</course>
  <speed>1.0207840124139878</speed>
  <fix>3d</fix>
</trkpt>
<trkpt lat="33.810048" lon="-118.3954599">
  <ele>-24.41</ele>
  <time>2026-09-01T01:14:18Z</time>
  <course>324.41</course>
  <speed>1.0</speed>
  <fix>3d</fix>
</trkpt>
<trkpt lat="33.8100507" lon="-118.3954621">
  <ele>-25.015</ele>
  <time>2026-09-01T01:14:18Z</time>
  <course>54.59</course>
  <speed>1.0290286682109493</speed>
  <fix>3d</fix>
</trkpt>
<trkpt lat="33.8100495" lon="-118.3954612">
  <ele>-24.41</ele>
  <time>2026-09-01T01:14:18Z</time>
  <course>324.59</course>
  <speed>1.0</speed>
  <fix>3d</fix>
</trkpt>
<trkpt lat="33.8100515" lon="-118.3954627">
  <ele>-25.016</ele>
  <time>2026-09-01T01:14:18Z</time>
  <course>54.7</course>
  <speed>1.0290286682109493</speed>
  <fix>3d</fix>
</trkpt>
<trkpt lat="33.8100495" lon="-118.3954612">
  <ele>-24.41</ele>
  <time>2026-09-01T01:14:18Z</time>
  <course>324.59</course>
  <speed>1.0</speed>
  <fix>3d</fix>
</trkpt>
<trkpt lat="33.8100522" lon="-118.3954633">
  <ele>-25.017</ele>
  <time>2026-09-01T01:14:18Z</time>
  <course>54.82</course>
  <speed>1.0234256201600582</speed>
  <fix>3d</fix>
</trkpt>
<trkpt lat="33.810051" lon="-118.3954625">
  <ele>-24.41</ele>
  <time>2026-09-01T01:14:18Z</time>
  <course>324.78</course>
  <speed>1.0</speed>
  <fix>3d</fix>
</trkpt>
<trkpt lat="33.8100529" lon="-118.3954639">
  <ele>-25.016</ele>
  <time>2026-09-01T01:14:18Z</time>
  <course>54.93</course>
  <speed>1.0234256201600582</speed>
  <fix>3d</fix>
</trkpt>
<trkpt lat="33.810051" lon="-118.3954625">
  <ele>-24.41</ele>
  <time>2026-09-01T01:14:18Z</time>
  <course>324.78</course>
  <speed>1.0</speed>
  <fix>3d</fix>
</trkpt>
<trkpt lat="33.8100537" lon="-118.3954645">
  <ele>-25.015</ele>
  <time>2026-09-01T01:14:18Z</time>
  <course>55.04</course>
  <speed>1.0234256201600582</speed>
  <fix>3d</fix>
</trkpt>
<trkpt lat="33.8100525" lon="-118.3954637">
  <ele>-24.41</ele>
  <time>2026-09-01T01:14:18Z</time>
  <course>324.99</course>
  <speed>1.0</speed>
  <fix>3d</fix>
</trkpt>
<trkpt lat="33.8100544" lon="-118.3954652">
  <ele>-25.014</ele>
  <time>2026-09-01T01:14:18Z</time>
  <course>55.16</course>
  <speed>1.0234256201600582</speed>
  <fix>3d</fix>
</trkpt>
<trkpt lat="33.8100525" lon="-118.3954637">
  <ele>-24.41</ele>
  <time>2026-09-01T01:14:18Z</time>
  <course>324.99</course>
  <speed>1.0</speed>
  <fix>3d</fix>
</trkpt>
<trkpt lat="33.8100552" lon="-118.3954658">
  <ele>-25.014</ele>
  <time>2026-09-01T01:14:18Z</time>
  <course>55.27</course>
  <speed>1.0234256201600582</speed>
  <fix>3d</fix>
</trkpt>
<trkpt lat="33.810054" lon="-118.395465">
  <ele>-24.41</ele>
  <time>2026-09-01T01:14:18Z</time>
  <course>325.21</course>
  <speed>1.0</speed>
  <fix>3d</fix>
</trkpt>
<trkpt lat="33.8100559" lon="-118.3954664">
  <ele>-25.014</ele>
  <time>2026-09-01T01:14:18Z</time>
  <course>55.39</course>
  <speed>1.0178899744078433</speed>
  <fix>3d</fix>
</trkpt>
<trkpt lat="33.810054" lon="-118.395465">
  <ele>-24.41</ele>
  <time>2026-09-01T01:14:18Z</time>
  <course>325.21</course>
  <speed>1.0</speed>
  <fix>3d</fix>
</trkpt>
<trkpt lat="33.8100567" lon="-118.395467">
  <ele>-25.015</ele>
  <time>2026-09-01T01:14:18Z</time>
  <course>55.5</course>
  <speed>1.0178899744078433</speed>
  <fix>3d</fix>
</trkpt>
<trkpt lat="33.8100555" lon="-118.3954662">
  <ele>-24.41</ele>
  <time>2026-09-01T01:14:18Z</time>
  <course>325.42</course>
  <speed>1.0</speed>
  <fix>3d</fix>
</trkpt>
<trkpt lat="33.8100574" lon="-118.3954676">
  <ele>-25.015</ele>
  <time>2026-09-01T01:14:18Z</time>
  <course>55.61</course>
  <speed>1.0178899744078433</speed>
  <fix>3d</fix>
</trkpt>
<trkpt lat="33.8100555" lon="-118.3954662">
  <ele>-24.41</ele>
  <time>2026-09-01T01:14:18Z</time>
  <course>325.42</course>
  <speed>1.0</speed>
  <fix>3d</fix>
</trkpt>
<trkpt lat="33.8100582" lon="-118.3954682">
  <ele>-25.014</ele>
  <time>2026-09-01T01:14:18Z</time>
  <course>55.73</course>
  <speed>1.0178899744078433</speed>
  <fix>3d</fix>
</trkpt>
<trkpt lat="33.8100569" lon="-118.3954675">
  <ele>-24.41</ele>
  <time>2026-09-01T01:14:18Z</time>
  <course>325.62</course>
  <speed>1.0</speed>
  <fix>3d</fix>
</trkpt>
<trkpt lat="33.8100589" lon="-118.3954688">
  <ele>-25.013</ele>
  <time>2026-09-01T01:14:18Z</time>
  <course>55.85</course>
  <speed>1.0178899744078433</speed>
  <fix>3d</fix>
</trkpt>
<trkpt lat="33.8100569" lon="-118.3954675">
  <ele>-24.41</ele>
  <time>2026-09-01T01:14:18Z</time>
  <course>325.62</course>
  <speed>1.0</speed>
  <fix>3d</fix>
</trkpt>
<trkpt lat="33.8100596" lon="-118.3954694">
  <ele>-25.011</ele>
  <time>2026-09-01T01:14:18Z</time>
  <course>55.96</course>
  <speed>1.0124228365658294</speed>
  <fix>3d</fix>
</trkpt>
<trkpt lat="33.8100584" lon="-118.3954686">
  <ele>-24.41</ele>
  <time>2026-09-01T01:14:18Z</time>
  <course>325.86</course>
  <speed>1.0</speed>
  <fix>3d</fix>
</trkpt>
<trkpt lat="33.8100604" lon="-118.39547">
  <ele>-25.011</ele>
  <time>2026-09-01T01:14:18Z</time>
  <course>56.08</course>
  <speed>1.0208329931972222</speed>
  <fix>3d</fix>
</trkpt>
<trkpt lat="33.8100584" lon="-118.3954686">
  <ele>-24.41</ele>
  <time>2026-09-01T01:14:18Z</time>
  <course>325.86</course>
  <speed>1.0</speed>
  <fix>3d</fix>
</trkpt>
<trkpt lat="33.8100611" lon="-118.3954706">
  <ele>-25.011</ele>
  <time>2026-09-01T01:14:18Z</time>
  <course>56.19</course>
  <speed>1.0208329931972222</speed>
  <fix>3d</fix>
</trkpt>
<trkpt lat="33.8100599" lon="-118.3954699">
  <ele>-24.41</ele>
  <time>2026-09-01T01:14:18Z</time>
  <course>326.13</course>
  <speed>1.0</speed>
  <fix>3d</fix>
</trkpt>
<trkpt lat="33.8100619" lon="-118.3954712">
  <ele>-25.013</ele>
  <time>2026-09-01T01:14:18Z</time>
  <course>56.3</course>
  <speed>1.0208329931972222</speed>
  <fix>3d</fix>
</trkpt>
<trkpt lat="33.8100599" lon="-118.3954699">
  <ele>-24.41</ele>
  <time>2026-09-01T01:14:18Z</time>
  <course>326.13</course>
  <speed>1.0</speed>
  <fix>3d</fix>
</trkpt>
<trkpt lat="33.8100626" lon="-118.3954718">
  <ele>-25.014</ele>
  <time>2026-09-01T01:14:18Z</time>
  <course>56.42</course>
  <speed>1.0208329931972222</speed>
  <fix>3d</fix>
</trkpt>
<trkpt lat="33.8100614" lon="-118.3954711">
  <ele>-24.41</ele>
  <time>2026-09-01T01:14:18Z</time>
  <course>326.39</course>
  <speed>1.0</speed>
  <fix>3d</fix>
</trkpt>
<trkpt lat="33.8100634" lon="-118.3954724">
  <ele>-25.015</ele>
  <time>2026-09-01T01:14:18Z</time>
  <course>56.54</course>
  <speed>1.0154801819828883</speed>
  <fix>3d</fix>
</trkpt>
<trkpt lat="33.8100614" lon="-118.3954711">
  <ele>-24.41</ele>
  <time>2026-09-01T01:14:18Z</time>
  <course>326.39</course>
  <speed>1.0</speed>
  <fix>3d</fix>
</trkpt>
<trkpt lat="33.8100641" lon="-118.395473">
  <ele>-25.014</ele>
  <time>2026-09-01T01:14:18Z</time>
  <course>56.65</course>
  <speed>1.0154801819828883</speed>
  <fix>3d</fix>
</trkpt>
<trkpt lat="33.8100629" lon="-118.3954723">
  <ele>-24.41</ele>
  <time>2026-09-01T01:14:18Z</time>
  <course>326.66</course>
  <speed>1.0</speed>
  <fix>3d</fix>
</trkpt>
<trkpt lat="33.8100649" lon="-118.3954736">
  <ele>-25.013</ele>
  <time>2026-09-01T01:14:18Z</time>
  <course>56.76</course>
  <speed>1.0239628899525608</speed>
  <fix>3d</fix>
</trkpt>
<trkpt lat="33.8100629" lon="-118.3954723">
  <ele>-24.41</ele>
  <time>2026-09-01T01:14:18Z</time>
  <course>326.66</course>
  <speed>1.0</speed>
  <fix>3d</fix>
</trkpt>
<trkpt lat="33.8100656" lon="-118.3954742">
  <ele>-25.014</ele>
  <time>2026-09-01T01:14:18Z</time>
  <course>56.88</course>
  <speed>1.0239628899525608</speed>
  <fix>3d</fix>
</trkpt>
<trkpt lat="33.8100644" lon="-118.3954735">
  <ele>-24.41</ele>
  <time>2026-09-01T01:14:18Z</time>
  <course>326.94</course>
  <speed>1.0</speed>
  <fix>3d</fix>
</trkpt>
<trkpt lat="33.8100664" lon="-118.3954748">
  <ele>-25.014</ele>
  <time>2026-09-01T01:14:18Z</time>
  <course>56.99</course>
  <speed>1.0239628899525608</speed>
  <fix>3d</fix>
</trkpt>
<trkpt lat="33.8100644" lon="-118.3954735">
  <ele>-24.41</ele>
  <time>2026-09-01T01:14:18Z</time>
  <course>326.94</course>
  <speed>1.0</speed>
  <fix>3d</fix>
</trkpt>
<trkpt lat="33.8100672" lon="-118.3954754">
  <ele>-25.015</ele>
  <time>2026-09-01T01:14:18Z</time>
  <course>57.11</course>
  <speed>1.0187246929372038</speed>
  <fix>3d</fix>
</trkpt>
<trkpt lat="33.810066" lon="-118.3954747">
  <ele>-24.41</ele>
  <time>2026-09-01T01:14:18Z</time>
  <course>327.22</course>
  <speed>1.0</speed>
  <fix>3d</fix>
</trkpt>
<trkpt lat="33.8100679" lon="-118.395476">
  <ele>-25.016</ele>
  <time>2026-09-01T01:14:18Z</time>
  <course>57.22</course>
  <speed>1.0187246929372038</speed>
  <fix>3d</fix>
</trkpt>
<trkpt lat="33.810066" lon="-118.3954747">
  <ele>-24.41</ele>
  <time>2026-09-01T01:14:18Z</time>
  <course>327.22</course>
  <speed>1.0</speed>
  <fix>3d</fix>
</trkpt>
<trkpt lat="33.8100687" lon="-118.3954766">
  <ele>-25.015</ele>
  <time>2026-09-01T01:14:18Z</time>
  <course>57.34</course>
  <speed>1.0187246929372038</speed>
  <fix>3d</fix>
</trkpt>
<trkpt lat="33.8100675" lon="-118.3954759">
  <ele>-24.41</ele>
  <time>2026-09-01T01:14:18Z</time>
  <course>327.49</course>
  <speed>1.0</speed>
  <fix>3d</fix>
</trkpt>
<trkpt lat="33.8100694" lon="-118.3954771">
  <ele>-25.013</ele>
  <time>2026-09-01T01:14:18Z</time>
  <course>57.45</course>
  <speed>1.0187246929372038</speed>
  <fix>3d</fix>
</trkpt>
<trkpt lat="33.8100675" lon="-118.3954759">
  <ele>-24.41</ele>
  <time>2026-09-01T01:14:18Z</time>
  <course>327.49</course>
  <speed>1.0</speed>
  <fix>3d</fix>
</trkpt>
<trkpt lat="33.8100702" lon="-118.3954777">
  <ele>-25.012</ele>
  <time>2026-09-01T01:14:18Z</time>
  <course>57.56</course>
  <speed>1.0187246929372038</speed>
  <fix>3d</fix>
</trkpt>
<trkpt lat="33.810069" lon="-118.395477">
  <ele>-24.41</ele>
  <time>2026-09-01T01:14:18Z</time>
  <course>327.73</course>
  <speed>1.0</speed>
  <fix>3d</fix>
</trkpt>
<trkpt lat="33.810071" lon="-118.3954783">
  <ele>-25.011</ele>
  <time>2026-09-01T01:14:18Z</time>
  <course>57.68</course>
  <speed>1.0135580891098448</speed>
  <fix>3d</fix>
</trkpt>
<trkpt lat="33.810069" lon="-118.395477">
  <ele>-24.41</ele>
  <time>2026-09-01T01:14:18Z</time>
  <course>327.73</course>
  <speed>1.0</speed>
  <fix>3d</fix>
</trkpt>
<trkpt lat="33.8100717" lon="-118.3954789">
  <ele>-25.011</ele>
  <time>2026-09-01T01:14:18Z</time>
  <course>57.79</course>
  <speed>1.0135580891098448</speed>
  <fix>3d</fix>
</trkpt>
<trkpt lat="33.8100705" lon="-118.3954781">
  <ele>-24.41</ele>
  <time>2026-09-01T01:14:18Z</time>
  <course>327.95</course>
  <speed>1.0</speed>
  <fix>3d</fix>
</trkpt>
<trkpt lat="33.8100725" lon="-118.3954794">
  <ele>-25.012</ele>
  <time>2026-09-01T01:14:18Z</time>
  <course>57.91</course>
  <speed>1.0135580891098448</speed>
  <fix>3d</fix>
</trkpt>
<trkpt lat="33.8100705" lon="-118.3954781">
  <ele>-24.41</ele>
  <time>2026-09-01T01:14:18Z</time>
  <course>327.95</course>
  <speed>1.0</speed>
  <fix>3d</fix>
</trkpt>
<trkpt lat="33.8100733" lon="-118.39548">
  <ele>-25.013</ele>
  <time>2026-09-01T01:14:18Z</time>
  <course>58.02</course>
  <speed>1.0135580891098448</speed>
  <fix>3d</fix>
</trkpt>
<trkpt lat="33.8100721" lon="-118.3954793">
  <ele>-24.41</ele>
  <time>2026-09-01T01:14:18Z</time>
  <course>328.15</course>
  <speed>1.0</speed>
  <fix>3d</fix>
</trkpt>
<trkpt lat="33.810074" lon="-118.3954806">
  <ele>-25.014</ele>
  <time>2026-09-01T01:14:18Z</time>
  <course>58.13</course>
  <speed>1.0135580891098448</speed>
  <fix>3d</fix>
</trkpt>
<trkpt lat="33.8100721" lon="-118.3954793">
  <ele>-24.41</ele>
  <time>2026-09-01T01:14:18Z</time>
  <course>328.15</course>
  <speed>1.0</speed>
  <fix>3d</fix>
</trkpt>
<trkpt lat="33.8100748" lon="-118.3954811">
  <ele>-25.016</ele>
  <time>2026-09-01T01:14:18Z</time>
  <course>58.25</course>
  <speed>1.0135580891098448</speed>
  <fix>3d</fix>
</trkpt>
<trkpt lat="33.8100736" lon="-118.3954805">
  <ele>-24.41</ele>
  <time>2026-09-01T01:14:18Z</time>
  <course>328.31</course>
  <speed>1.0</speed>
  <fix>3d</fix>
</trkpt>
<trkpt lat="33.8100756" lon="-118.3954817">
  <ele>-25.018</ele>
  <time>2026-09-01T01:14:18Z</time>
  <course>58.37</course>
  <speed>1.0171037311896953</speed>
  <fix>3d</fix>
</trkpt>
<trkpt lat="33.8100736" lon="-118.3954805">
  <ele>-24.41</ele>
  <time>2026-09-01T01:14:18Z</time>
  <course>328.31</course>
  <speed>1.0</speed>
  <fix>3d</fix>
</trkpt>
<trkpt lat="33.8100763" lon="-118.3954823">
  <ele>-25.018</ele>
  <time>2026-09-01T01:14:18Z</time>
  <course>58.48</course>
  <speed>1.0171037311896953</speed>
  <fix>3d</fix>
</trkpt>
<trkpt lat="33.8100751" lon="-118.3954816">
  <ele>-24.41</ele>
  <time>2026-09-01T01:14:18Z</time>
  <course>328.49</course>
  <speed>0.99</speed>
  <fix>3d</fix>
</trkpt>
<trkpt lat="33.8100771" lon="-118.3954828">
  <ele>-25.017</ele>
  <time>2026-09-01T01:14:18Z</time>
  <course>58.6</course>
  <speed>1.0171037311896953</speed>
  <fix>3d</fix>
</trkpt>
<trkpt lat="33.8100751" lon="-118.3954816">
  <ele>-24.41</ele>
  <time>2026-09-01T01:14:18Z</time>
  <course>328.49</course>
  <speed>0.99</speed>
  <fix>3d</fix>
</trkpt>
<trkpt lat="33.8100779" lon="-118.3954834">
  <ele>-25.015</ele>
  <time>2026-09-01T01:14:18Z</time>
  <course>58.71</course>
  <speed>1.0171037311896953</speed>
  <fix>3d</fix>
</trkpt>
<trkpt lat="33.8100766" lon="-118.3954827">
  <ele>-24.41</ele>
  <time>2026-09-01T01:14:18Z</time>
  <course>328.75</course>
  <speed>0.99</speed>
  <fix>3d</fix>
</trkpt>
<trkpt lat="33.8100786" lon="-118.395484">
  <ele>-25.013</ele>
  <time>2026-09-01T01:14:18Z</time>
  <course>58.82</course>
  <speed>1.0171037311896953</speed>
  <fix>3d</fix>
</trkpt>
<trkpt lat="33.8100766" lon="-118.3954827">
  <ele>-24.41</ele>
  <time>2026-09-01T01:14:18Z</time>
  <course>328.75</course>
  <speed>0.99</speed>
  <fix>3d</fix>
</trkpt>
<trkpt lat="33.8100794" lon="-118.3954845">
  <ele>-25.013</ele>
  <time>2026-09-01T01:14:18Z</time>
  <course>58.94</course>
  <speed>1.0171037311896953</speed>
  <fix>3d</fix>
</trkpt>
<trkpt lat="33.8100782" lon="-118.3954838">
  <ele>-24.41</ele>
  <time>2026-09-01T01:14:18Z</time>
  <course>329.02</course>
  <speed>0.99</speed>
  <fix>3d</fix>
</trkpt>
<trkpt lat="33.8100802" lon="-118.3954851">
  <ele>-25.013</ele>
  <time>2026-09-01T01:14:18Z</time>
  <course>59.06</course>
  <speed>1.0121264743103995</speed>
  <fix>3d</fix>
</trkpt>
<trkpt lat="33.8100782" lon="-118.3954838">
  <ele>-24.41</ele>
  <time>2026-09-01T01:14:18Z</time>
  <course>329.02</course>
  <speed>0.99</speed>
  <fix>3d</fix>
</trkpt>
<trkpt lat="33.810081" lon="-118.3954856">
  <ele>-25.015</ele>
  <time>2026-09-01T01:14:18Z</time>
  <course>59.17</course>
  <speed>1.0121264743103995</speed>
  <fix>3d</fix>
</trkpt>
<trkpt lat="33.8100797" lon="-118.3954849">
  <ele>-24.41</ele>
  <time>2026-09-01T01:14:18Z</time>
  <course>329.25</course>
  <speed>0.99</speed>
  <fix>3d</fix>
</trkpt>
<trkpt lat="33.8100817" lon="-118.3954862">
  <ele>-25.018</ele>
  <time>2026-09-01T01:14:18Z</time>
  <course>59.28</course>
  <speed>1.0121264743103995</speed>
  <fix>3d</fix>
</trkpt>
<trkpt lat="33.8100797" lon="-118.3954849">
  <ele>-24.41</ele>
  <time>2026-09-01T01:14:18Z</time>
  <course>329.25</course>
  <speed>0.99</speed>
  <fix>3d</fix>
</trkpt>
<trkpt lat="33.8100825" lon="-118.3954867">
  <ele>-25.02</ele>
  <time>2026-09-01T01:14:18Z</time>
  <course>59.4</course>
  <speed>1.0121264743103995</speed>
  <fix>3d</fix>
</trkpt>
<trkpt lat="33.8100812" lon="-118.395486">
  <ele>-24.41</ele>
  <time>2026-09-01T01:14:18Z</time>
  <course>329.44</course>
  <speed>0.99</speed>
  <fix>3d</fix>
</trkpt>
<trkpt lat="33.8100833" lon="-118.3954873">
  <ele>-25.02</ele>
  <time>2026-09-01T01:14:18Z</time>
  <course>59.51</course>
  <speed>1.0208329931972222</speed>
  <fix>3d</fix>
</trkpt>
<trkpt lat="33.8100812" lon="-118.395486">
  <ele>-24.41</ele>
  <time>2026-09-01T01:14:18Z</time>
  <course>329.44</course>
  <speed>0.99</speed>
  <fix>3d</fix>
</trkpt>
<trkpt lat="33.810084" lon="-118.3954878">
  <ele>-25.019</ele>
  <time>2026-09-01T01:14:18Z</time>
  <course>59.63</course>
  <speed>1.0208329931972222</speed>
  <fix>3d</fix>
</trkpt>
<trkpt lat="33.8100828" lon="-118.3954871">
  <ele>-24.41</ele>
  <time>2026-09-01T01:14:18Z</time>
  <course>329.64</course>
  <speed>0.99</speed>
  <fix>3d</fix>
</trkpt>
<trkpt lat="33.8100848" lon="-118.3954883">
  <ele>-25.018</ele>
  <time>2026-09-01T01:14:18Z</time>
  <course>59.74</course>
  <speed>1.0159724405711013</speed>
  <fix>3d</fix>
</trkpt>
<trkpt lat="33.8100828" lon="-118.3954871">
  <ele>-24.41</ele>
  <time>2026-09-01T01:14:18Z</time>
  <course>329.64</course>
  <speed>0.99</speed>
  <fix>3d</fix>
</trkpt>
<trkpt lat="33.8100856" lon="-118.3954889">
  <ele>-25.015</ele>
  <time>2026-09-01T01:14:18Z</time>
  <course>59.86</course>
  <speed>1.0159724405711013</speed>
  <fix>3d</fix>
</trkpt>
<trkpt lat="33.8100843" lon="-118.3954882">
  <ele>-24.4</ele>
  <time>2026-09-01T01:14:18Z</time>
  <course>329.86</course>
  <speed>1.0</speed>
  <fix>3d</fix>
</trkpt>
<trkpt lat="33.8100864" lon="-118.3954894">
  <ele>-25.012</ele>
  <time>2026-09-01T01:14:18Z</time>
  <course>59.97</course>
  <speed>1.0159724405711013</speed>
  <fix>3d</fix>
</trkpt>
<trkpt lat="33.8100843" lon="-118.3954882">
  <ele>-24.4</ele>
  <time>2026-09-01T01:14:18Z</time>
  <course>329.86</course>
  <speed>1.0</speed>
  <fix>3d</fix>
</trkpt>
<trkpt lat="33.8100872" lon="-118.39549">
  <ele>-25.009</ele>
  <time>2026-09-01T01:14:18Z</time>
  <course>60.08</course>
  <speed>1.0159724405711013</speed>
  <fix>3d</fix>
</trkpt>
<trkpt lat="33.810086" lon="-118.3954893">
  <ele>-24.4</ele>
  <time>2026-09-01T01:14:18Z</time>
  <course>330.1</course>
  <speed>1.0</speed>
  <fix>3d</fix>
</trkpt>
<trkpt lat="33.8100879" lon="-118.3954905">
  <ele>-25.008</ele>
  <time>2026-09-01T01:14:18Z</time>
  <course>60.2</course>
  <speed>1.0159724405711013</speed>
  <fix>3d</fix>
</trkpt>
<trkpt lat="33.810086" lon="-118.3954893">
  <ele>-24.4</ele>
  <time>2026-09-01T01:14:18Z</time>
  <course>330.1</course>
  <speed>1.0</speed>
  <fix>3d</fix>
</trkpt>
<trkpt lat="33.8100887" lon="-118.395491">
  <ele>-25.008</ele>
  <time>2026-09-01T01:14:18Z</time>
  <course>60.32</course>
  <speed>1.0159724405711013</speed>
  <fix>3d</fix>
</trkpt>
<trkpt lat="33.8100875" lon="-118.3954904">
  <ele>-24.4</ele>
  <time>2026-09-01T01:14:18Z</time>
  <course>330.32</course>
  <speed>1.0</speed>
  <fix>3d</fix>
</trkpt>
<trkpt lat="33.8100895" lon="-118.3954916">
  <ele>-25.01</ele>
  <time>2026-09-01T01:14:18Z</time>
  <course>60.43</course>
  <speed>1.0111874208078342</speed>
  <fix>3d</fix>
</trkpt>
<trkpt lat="33.8100875" lon="-118.3954904">
  <ele>-24.4</ele>
  <time>2026-09-01T01:14:18Z</time>
  <course>330.32</course>
  <speed>1.0</speed>
  <fix>3d</fix>
</trkpt>
<trkpt lat="33.8100903" lon="-118.3954921">
  <ele>-25.012</ele>
  <time>2026-09-01T01:14:18Z</time>
  <course>60.54</course>
  <speed>1.0111874208078342</speed>
  <fix>3d</fix>
</trkpt>
<trkpt lat="33.8100891" lon="-118.3954915">
  <ele>-24.4</ele>
  <time>2026-09-01T01:14:18Z</time>
  <course>330.54</course>
  <speed>0.99</speed>
  <fix>3d</fix>
</trkpt>
<trkpt lat="33.8100911" lon="-118.3954926">
  <ele>-25.014</ele>
  <time>2026-09-01T01:14:18Z</time>
  <course>60.66</course>
  <speed>1.02</speed>
  <fix>3d</fix>
</trkpt>
<trkpt lat="33.8100891" lon="-118.3954915">
  <ele>-24.4</ele>
  <time>2026-09-01T01:14:18Z</time>
  <course>330.54</course>
  <speed>0.99</speed>
  <fix>3d</fix>
</trkpt>
<trkpt lat="33.8100919" lon="-118.3954932">
  <ele>-25.013</ele>
  <time>2026-09-01T01:14:18Z</time>
  <course>60.77</course>
  <speed>1.02</speed>
  <fix>3d</fix>
</trkpt>
<trkpt lat="33.8100906" lon="-118.3954925">
  <ele>-24.4</ele>
  <time>2026-09-01T01:14:18Z</time>
  <course>330.79</course>
  <speed>0.99</speed>
  <fix>3d</fix>
</trkpt>
<trkpt lat="33.8100927" lon="-118.3954937">
  <ele>-25.011</ele>
  <time>2026-09-01T01:14:18Z</time>
  <course>60.89</course>
  <speed>1.015332457867865</speed>
  <fix>3d</fix>
</trkpt>
<trkpt lat="33.8100906" lon="-118.3954925">
  <ele>-24.4</ele>
  <time>2026-09-01T01:14:18Z</time>
  <course>330.79</course>
  <speed>0.99</speed>
  <fix>3d</fix>
</trkpt>
<trkpt lat="33.8100935" lon="-118.3954942">
  <ele>-25.009</ele>
  <time>2026-09-01T01:14:18Z</time>
  <course>61.0</course>
  <speed>1.015332457867865</speed>
  <fix>3d</fix>
</trkpt>
<trkpt lat="33.8100922" lon="-118.3954936">
  <ele>-24.4</ele>
  <time>2026-09-01T01:14:18Z</time>
  <course>331.04</course>
  <speed>0.99</speed>
  <fix>3d</fix>
</trkpt>
<trkpt lat="33.8100942" lon="-118.3954947">
  <ele>-25.008</ele>
  <time>2026-09-01T01:14:18Z</time>
  <course>61.11</course>
  <speed>1.015332457867865</speed>
  <fix>3d</fix>
</trkpt>
<trkpt lat="33.8100922" lon="-118.3954936">
  <ele>-24.4</ele>
  <time>2026-09-01T01:14:18Z</time>
  <course>331.04</course>
  <speed>0.99</speed>
  <fix>3d</fix>
</trkpt>
<trkpt lat="33.810095" lon="-118.3954952">
  <ele>-25.008</ele>
  <time>2026-09-01T01:14:18Z</time>
  <course>61.23</course>
  <speed>1.015332457867865</speed>
  <fix>3d</fix>
</trkpt>
<trkpt lat="33.8100938" lon="-118.3954946">
  <ele>-24.4</ele>
  <time>2026-09-01T01:14:18Z</time>
  <course>331.28</course>
  <speed>0.99</speed>
  <fix>3d</fix>
</trkpt>
<trkpt lat="33.8100958" lon="-118.3954958">
  <ele>-25.009</ele>
  <time>2026-09-01T01:14:18Z</time>
  <course>61.35</course>
  <speed>1.015332457867865</speed>
  <fix>3d</fix>
</trkpt>
<trkpt lat="33.8100938" lon="-118.3954946">
  <ele>-24.4</ele>
  <time>2026-09-01T01:14:18Z</time>
  <course>331.28</course>
  <speed>0.99</speed>
  <fix>3d</fix>
</trkpt>
<trkpt lat="33.8100966" lon="-118.3954963">
  <ele>-25.01</ele>
  <time>2026-09-01T01:14:18Z</time>
  <course>61.46</course>
  <speed>1.015332457867865</speed>
  <fix>3d</fix>
</trkpt>
<trkpt lat="33.8100953" lon="-118.3954956">
  <ele>-24.4</ele>
  <time>2026-09-01T01:14:18Z</time>
  <course>331.52</course>
  <speed>0.99</speed>
  <fix>3d</fix>
</trkpt>
<trkpt lat="33.8100974" lon="-118.3954968">
  <ele>-25.012</ele>
  <time>2026-09-01T01:14:18Z</time>
  <course>61.58</course>
  <speed>1.0107423014794623</speed>
  <fix>3d</fix>
</trkpt>
<trkpt lat="33.8100953" lon="-118.3954956">
  <ele>-24.4</ele>
  <time>2026-09-01T01:14:18Z</time>
  <course>331.52</course>
  <speed>0.99</speed>
  <fix>3d</fix>
</trkpt>
<trkpt lat="33.8100982" lon="-118.3954973">
  <ele>-25.014</ele>
  <time>2026-09-01T01:14:18Z</time>
  <course>61.69</course>
  <speed>1.0107423014794623</speed>
  <fix>3d</fix>
</trkpt>
<trkpt lat="33.8100969" lon="-118.3954967">
  <ele>-24.41</ele>
  <time>2026-09-01T01:14:18Z</time>
  <course>331.73</course>
  <speed>0.99</speed>
  <fix>3d</fix>
</trkpt>
<trkpt lat="33.810099" lon="-118.3954978">
  <ele>-25.015</ele>
  <time>2026-09-01T01:14:18Z</time>
  <course>61.8</course>
  <speed>1.0196568050084303</speed>
  <fix>3d</fix>
</trkpt>
<trkpt lat="33.8100969" lon="-118.3954967">
  <ele>-24.41</ele>
  <time>2026-09-01T01:14:18Z</time>
  <course>331.73</course>
  <speed>0.99</speed>
  <fix>3d</fix>
</trkpt>
<trkpt lat="33.8100998" lon="-118.3954983">
  <ele>-25.015</ele>
  <time>2026-09-01T01:14:18Z</time>
  <course>61.92</course>
  <speed>1.0196568050084303</speed>
  <fix>3d</fix>
</trkpt>
<trkpt lat="33.8100984" lon="-118.3954977">
  <ele>-24.41</ele>
  <time>2026-09-01T01:14:18Z</time>
  <course>331.98</course>
  <speed>0.99</speed>
  <fix>3d</fix>
</trkpt>
<trkpt lat="33.8101006" lon="-118.3954988">
  <ele>-25.015</ele>
  <time>2026-09-01T01:14:18Z</time>
  <course>62.03</course>
  <speed>1.0196568050084303</speed>
  <fix>3d</fix>
</trkpt>
<trkpt lat="33.8100984" lon="-118.3954977">
  <ele>-24.41</ele>
  <time>2026-09-01T01:14:18Z</time>
  <course>331.98</course>
  <speed>0.99</speed>
  <fix>3d</fix>
</trkpt>
<trkpt lat="33.8101014" lon="-118.3954993">
  <ele>-25.016</ele>
  <time>2026-09-01T01:14:18Z</time>
  <course>62.15</course>
  <speed>1.0151847122568385</speed>
  <fix>3d</fix>
</trkpt>
<trkpt lat="33.8101001" lon="-118.3954987">
  <ele>-24.41</ele>
  <time>2026-09-01T01:14:18Z</time>
  <course>332.27</course>
  <speed>0.99</speed>
  <fix>3d</fix>
</trkpt>
<trkpt lat="33.8101022" lon="-118.3954998">
  <ele>-25.016</ele>
  <time>2026-09-01T01:14:18Z</time>
  <course>62.26</course>
  <speed>1.0151847122568385</speed>
  <fix>3d</fix>
</trkpt>
<trkpt lat="33.8101001" lon="-118.3954987">
  <ele>-24.41</ele>
  <time>2026-09-01T01:14:18Z</time>
  <course>332.27</course>
  <speed>0.99</speed>
  <fix>3d</fix>
</trkpt>
<trkpt lat="33.810103" lon="-118.3955003">
  <ele>-25.017</ele>
  <time>2026-09-01T01:14:18Z</time>
  <course>62.38</course>
  <speed>1.0151847122568385</speed>
  <fix>3d</fix>
</trkpt>
<trkpt lat="33.8101017" lon="-118.3954996">
  <ele>-24.41</ele>
  <time>2026-09-01T01:14:18Z</time>
  <course>332.54</course>
  <speed>0.99</speed>
  <fix>3d</fix>
</trkpt>
<trkpt lat="33.8101038" lon="-118.3955008">
  <ele>-25.016</ele>
  <time>2026-09-01T01:14:18Z</time>
  <course>62.49</course>
  <speed>1.0151847122568385</speed>
  <fix>3d</fix>
</trkpt>
<trkpt lat="33.8101017" lon="-118.3954996">
  <ele>-24.41</ele>
  <time>2026-09-01T01:14:18Z</time>
  <course>332.54</course>
  <speed>0.99</speed>
  <fix>3d</fix>
</trkpt>
<trkpt lat="33.8101046" lon="-118.3955013">
  <ele>-25.016</ele>
  <time>2026-09-01T01:14:18Z</time>
  <course>62.61</course>
  <speed>1.0151847122568385</speed>
  <fix>3d</fix>
</trkpt>
<trkpt lat="33.8101032" lon="-118.3955007">
  <ele>-24.41</ele>
  <time>2026-09-01T01:14:18Z</time>
  <course>332.7</course>
  <speed>0.99</speed>
  <fix>3d</fix>
</trkpt>
<trkpt lat="33.8101054" lon="-118.3955018">
  <ele>-25.016</ele>
  <time>2026-09-01T01:14:18Z</time>
  <course>62.72</course>
  <speed>1.0151847122568385</speed>
  <fix>3d</fix>
</trkpt>
<trkpt lat="33.8101032" lon="-118.3955007">
  <ele>-24.41</ele>
  <time>2026-09-01T01:14:18Z</time>
  <course>332.7</course>
  <speed>0.99</speed>
  <fix>3d</fix>
</trkpt>
<trkpt lat="33.8101062" lon="-118.3955023">
  <ele>-25.016</ele>
  <time>2026-09-01T01:14:18Z</time>
  <course>62.84</course>
  <speed>1.0241581909060729</speed>
  <fix>3d</fix>
</trkpt>
<trkpt lat="33.8101049" lon="-118.3955017">
  <ele>-24.41</ele>
  <time>2026-09-01T01:14:18Z</time>
  <course>332.87</course>
  <speed>0.99</speed>
  <fix>3d</fix>
</trkpt>
<trkpt lat="33.810107" lon="-118.3955028">
  <ele>-25.016</ele>
  <time>2026-09-01T01:14:18Z</time>
  <course>62.95</course>
  <speed>1.019803902718557</speed>
  <fix>3d</fix>
</trkpt>
<trkpt lat="33.8101049" lon="-118.3955017">
  <ele>-24.41</ele>
  <time>2026-09-01T01:14:18Z</time>
  <course>332.87</course>
  <speed>0.99</speed>
  <fix>3d</fix>
</trkpt>
<trkpt lat="33.8101078" lon="-118.3955033">
  <ele>-25.016</ele>
  <time>2026-09-01T01:14:18Z</time>
  <course>63.06</course>
  <speed>1.019803902718557</speed>
  <fix>3d</fix>
</trkpt>
<trkpt lat="33.8101065" lon="-118.3955026">
  <ele>-24.41</ele>
  <time>2026-09-01T01:14:18Z</time>
  <course>333.08</course>
  <speed>0.99</speed>
  <fix>3d</fix>
</trkpt>
<trkpt lat="33.8101086" lon="-118.3955037">
  <ele>-25.015</ele>
  <time>2026-09-01T01:14:18Z</time>
  <course>63.18</course>
  <speed>1.019803902718557</speed>
  <fix>3d</fix>
</trkpt>
<trkpt lat="33.8101065" lon="-118.3955026">
  <ele>-24.41</ele>
  <time>2026-09-01T01:14:18Z</time>
  <course>333.08</course>
  <speed>0.99</speed>
  <fix>3d</fix>
</trkpt>
<trkpt lat="33.8101094" lon="-118.3955042">
  <ele>-25.014</ele>
  <time>2026-09-01T01:14:18Z</time>
  <course>63.3</course>
  <speed>1.019803902718557</speed>
  <fix>3d</fix>
</trkpt>
<trkpt lat="33.810108" lon="-118.3955036">
  <ele>-24.41</ele>
  <time>2026-09-01T01:14:18Z</time>
  <course>333.27</course>
  <speed>0.99</speed>
  <fix>3d</fix>
</trkpt>
<trkpt lat="33.8101102" lon="-118.3955047">
  <ele>-25.013</ele>
  <time>2026-09-01T01:14:18Z</time>
  <course>63.41</course>
  <speed>1.019803902718557</speed>
  <fix>3d</fix>
</trkpt>
<trkpt lat="33.810108" lon="-118.3955036">
  <ele>-24.41</ele>
  <time>2026-09-01T01:14:18Z</time>
  <course>333.27</course>
  <speed>0.99</speed>
  <fix>3d</fix>
</trkpt>
<trkpt lat="33.810111" lon="-118.3955052">
  <ele>-25.013</ele>
  <time>2026-09-01T01:14:18Z</time>
  <course>63.52</course>
  <speed>1.019803902718557</speed>
  <fix>3d</fix>
</trkpt>
<trkpt lat="33.8101097" lon="-118.3955046">
  <ele>-24.41</ele>
  <time>2026-09-01T01:14:18Z</time>
  <course>333.46</course>
  <speed>0.99</speed>
  <fix>3d</fix>
</trkpt>
<trkpt lat="33.8101118" lon="-118.3955057">
  <ele>-25.012</ele>
  <time>2026-09-01T01:14:18Z</time>
  <course>63.64</course>
  <speed>1.0155294185792945</speed>
  <fix>3d</fix>
</trkpt>
<trkpt lat="33.8101097" lon="-118.3955046">
  <ele>-24.41</ele>
  <time>2026-09-01T01:14:18Z</time>
  <course>333.46</course>
  <speed>0.99</speed>
  <fix>3d</fix>
</trkpt>
<trkpt lat="33.8101126" lon="-118.3955061">
  <ele>-25.012</ele>
  <time>2026-09-01T01:14:18Z</time>
  <course>63.75</course>
  <speed>1.0155294185792945</speed>
  <fix>3d</fix>
</trkpt>
<trkpt lat="33.8101113" lon="-118.3955055">
  <ele>-24.41</ele>
  <time>2026-09-01T01:14:18Z</time>
  <course>333.68</course>
  <speed>0.99</speed>
  <fix>3d</fix>
</trkpt>
<trkpt lat="33.8101134" lon="-118.3955066">
  <ele>-25.012</ele>
  <time>2026-09-01T01:14:18Z</time>
  <course>63.87</course>
  <speed>1.0155294185792945</speed>
  <fix>3d</fix>
</trkpt>
<trkpt lat="33.8101113" lon="-118.3955055">
  <ele>-24.41</ele>
  <time>2026-09-01T01:14:18Z</time>
  <course>333.68</course>
  <speed>0.99</speed>
  <fix>3d</fix>
</trkpt>
<trkpt lat="33.8101142" lon="-118.3955071">
  <ele>-25.012</ele>
  <time>2026-09-01T01:14:18Z</time>
  <course>63.98</course>
  <speed>1.0155294185792945</speed>
  <fix>3d</fix>
</trkpt>
<trkpt lat="33.8101128" lon="-118.3955065">
  <ele>-24.41</ele>
  <time>2026-09-01T01:14:18Z</time>
  <course>333.9</course>
  <speed>0.99</speed>
  <fix>3d</fix>
</trkpt>
<trkpt lat="33.810115" lon="-118.3955076">
  <ele>-25.013</ele>
  <time>2026-09-01T01:14:18Z</time>
  <course>64.1</course>
  <speed>1.0245974819410792</speed>
  <fix>3d</fix>
</trkpt>
<trkpt lat="33.8101128" lon="-118.3955065">
  <ele>-24.41</ele>
  <time>2026-09-01T01:14:18Z</time>
  <course>333.9</course>
  <speed>0.99</speed>
  <fix>3d</fix>
</trkpt>
<trkpt lat="33.8101158" lon="-118.395508">
  <ele>-25.014</ele>
  <time>2026-09-01T01:14:18Z</time>
  <course>64.21</course>
  <speed>1.0204410811016968</speed>
  <fix>3d</fix>
</trkpt>
<trkpt lat="33.8101145" lon="-118.3955074">
  <ele>-24.41</ele>
  <time>2026-09-01T01:14:18Z</time>
  <course>334.13</course>
  <speed>0.99</speed>
  <fix>3d</fix>
</trkpt>
<trkpt lat="33.8101166" lon="-118.3955085">
  <ele>-25.015</ele>
  <time>2026-09-01T01:14:18Z</time>
  <course>64.32</course>
  <speed>1.0204410811016968</speed>
  <fix>3d</fix>
</trkpt>
<trkpt lat="33.8101145" lon="-118.3955074">
  <ele>-24.41</ele>
  <time>2026-09-01T01:14:18Z</time>
  <course>334.13</course>
  <speed>0.99</speed>
  <fix>3d</fix>
</trkpt>
<trkpt lat="33.8101175" lon="-118.395509">
  <ele>-25.016</ele>
  <time>2026-09-01T01:14:18Z</time>
  <course>64.44</course>
  <speed>1.0204410811016968</speed>
  <fix>3d</fix>
</trkpt>
<trkpt lat="33.8101161" lon="-118.3955084">
  <ele>-24.41</ele>
  <time>2026-09-01T01:14:18Z</time>
  <course>334.36</course>
  <speed>0.99</speed>
  <fix>3d</fix>
</trkpt>
<trkpt lat="33.8101183" lon="-118.3955094">
  <ele>-25.015</ele>
  <time>2026-09-01T01:14:18Z</time>
  <course>64.55</course>
  <speed>1.0204410811016968</speed>
  <fix>3d</fix>
</trkpt>
<trkpt lat="33.8101161" lon="-118.3955084">
  <ele>-24.41</ele>
  <time>2026-09-01T01:14:18Z</time>
  <course>334.36</course>
  <speed>0.99</speed>
  <fix>3d</fix>
</trkpt>
<trkpt lat="33.8101191" lon="-118.3955099">
  <ele>-25.015</ele>
  <time>2026-09-01T01:14:18Z</time>
  <course>64.67</course>
  <speed>1.0204410811016968</speed>
  <fix>3d</fix>
</trkpt>
<trkpt lat="33.8101177" lon="-118.3955093">
  <ele>-24.41</ele>
  <time>2026-09-01T01:14:18Z</time>
  <course>334.59</course>
  <speed>0.99</speed>
  <fix>3d</fix>
</trkpt>
<trkpt lat="33.8101199" lon="-118.3955103">
  <ele>-25.016</ele>
  <time>2026-09-01T01:14:18Z</time>
  <course>64.78</course>
  <speed>1.016366075781753</speed>
  <fix>3d</fix>
</trkpt>
<trkpt lat="33.8101177" lon="-118.3955093">
  <ele>-24.41</ele>
  <time>2026-09-01T01:14:18Z</time>
  <course>334.59</course>
  <speed>0.99</speed>
  <fix>3d</fix>
</trkpt>
<trkpt lat="33.8101207" lon="-118.3955108">
  <ele>-25.016</ele>
  <time>2026-09-01T01:14:18Z</time>
  <course>64.9</course>
  <speed>1.016366075781753</speed>
  <fix>3d</fix>
</trkpt>
<trkpt lat="33.8101193" lon="-118.3955102">
  <ele>-24.41</ele>
  <time>2026-09-01T01:14:18Z</time>
  <course>334.84</course>
  <speed>0.99</speed>
  <fix>3d</fix>
</trkpt>
<trkpt lat="33.8101215" lon="-118.3955112">
  <ele>-25.017</ele>
  <time>2026-09-01T01:14:18Z</time>
  <course>65.01</course>
  <speed>1.016366075781753</speed>
  <fix>3d</fix>
</trkpt>
<trkpt lat="33.8101193" lon="-118.3955102">
  <ele>-24.41</ele>
  <time>2026-09-01T01:14:18Z</time>
  <course>334.84</course>
  <speed>0.99</speed>
  <fix>3d</fix>
</trkpt>
<trkpt lat="33.8101223" lon="-118.3955117">
  <ele>-25.017</ele>
  <time>2026-09-01T01:14:18Z</time>
  <course>65.13</course>
  <speed>1.0255242561733973</speed>
  <fix>3d</fix>
</trkpt>
<trkpt lat="33.8101209" lon="-118.3955111">
  <ele>-24.41</ele>
  <time>2026-09-01T01:14:18Z</time>
  <course>335.08</course>
  <speed>0.99</speed>
  <fix>3d</fix>
</trkpt>
<trkpt lat="33.8101232" lon="-118.3955122">
  <ele>-25.017</ele>
  <time>2026-09-01T01:14:18Z</time>
  <course>65.24</course>
  <speed>1.0255242561733973</speed>
  <fix>3d</fix>
</trkpt>
<trkpt lat="33.8101209" lon="-118.3955111">
  <ele>-24.41</ele>
  <time>2026-09-01T01:14:18Z</time>
  <course>335.08</course>
  <speed>0.99</speed>
  <fix>3d</fix>
</trkpt>
<trkpt lat="33.810124" lon="-118.3955126">
  <ele>-25.018</ele>
  <time>2026-09-01T01:14:18Z</time>
  <course>65.36</course>
  <speed>1.0255242561733973</speed>
  <fix>3d</fix>
</trkpt>
<trkpt lat="33.8101226" lon="-118.395512">
  <ele>-24.41</ele>
  <time>2026-09-01T01:14:18Z</time>
  <course>335.32</course>
  <speed>1.0</speed>
  <fix>3d</fix>
</trkpt>
<trkpt lat="33.8101248" lon="-118.395513">
  <ele>-25.018</ele>
  <time>2026-09-01T01:14:18Z</time>
  <course>65.47</course>
  <speed>1.0215674231297707</speed>
  <fix>3d</fix>
</trkpt>
<trkpt lat="33.8101226" lon="-118.395512">
  <ele>-24.41</ele>
  <time>2026-09-01T01:14:18Z</time>
  <course>335.32</course>
  <speed>1.0</speed>
  <fix>3d</fix>
</trkpt>
<trkpt lat="33.8101256" lon="-118.3955135">
  <ele>-25.017</ele>
  <time>2026-09-01T01:14:18Z</time>
  <course>65.59</course>
  <speed>1.0215674231297707</speed>
  <fix>3d</fix>
</trkpt>
<trkpt lat="33.8101242" lon="-118.3955129">
  <ele>-24.4</ele>
  <time>2026-09-01T01:14:18Z</time>
  <course>335.55</course>
  <speed>1.0</speed>
  <fix>3d</fix>
</trkpt>
<trkpt lat="33.8101264" lon="-118.3955139">
  <ele>-25.015</ele>
  <time>2026-09-01T01:14:18Z</time>
  <course>65.7</course>
  <speed>1.0215674231297707</speed>
  <fix>3d</fix>
</trkpt>
<trkpt lat="33.8101242" lon="-118.3955129">
  <ele>-24.4</ele>
  <time>2026-09-01T01:14:18Z</time>
  <course>335.55</course>
  <speed>1.0</speed>
  <fix>3d</fix>
</trkpt>
<trkpt lat="33.8101272" lon="-118.3955144">
  <ele>-25.014</ele>
  <time>2026-09-01T01:14:18Z</time>
  <course>65.82</course>
  <speed>1.0215674231297707</speed>
  <fix>3d</fix>
</trkpt>
<trkpt lat="33.8101259" lon="-118.3955138">
  <ele>-24.4</ele>
  <time>2026-09-01T01:14:18Z</time>
  <course>335.76</course>
  <speed>1.0</speed>
  <fix>3d</fix>
</trkpt>
<trkpt lat="33.8101281" lon="-118.3955148">
  <ele>-25.013</ele>
  <time>2026-09-01T01:14:18Z</time>
  <course>65.93</course>
  <speed>1.0215674231297707</speed>
  <fix>3d</fix>
</trkpt>
<trkpt lat="33.8101259" lon="-118.3955138">
  <ele>-24.4</ele>
  <time>2026-09-01T01:14:18Z</time>
  <course>335.76</course>
  <speed>1.0</speed>
  <fix>3d</fix>
</trkpt>
<trkpt lat="33.8101289" lon="-118.3955152">
  <ele>-25.012</ele>
  <time>2026-09-01T01:14:18Z</time>
  <course>66.04</course>
  <speed>1.0215674231297707</speed>
  <fix>3d</fix>
</trkpt>
<trkpt lat="33.8101274" lon="-118.3955147">
  <ele>-24.4</ele>
  <time>2026-09-01T01:14:18Z</time>
  <course>335.96</course>
  <speed>1.0</speed>
  <fix>3d</fix>
</trkpt>
<trkpt lat="33.8101297" lon="-118.3955157">
  <ele>-25.011</ele>
  <time>2026-09-01T01:14:18Z</time>
  <course>66.16</course>
  <speed>1.0176934705499492</speed>
  <fix>3d</fix>
</trkpt>
<trkpt lat="33.8101274" lon="-118.3955147">
  <ele>-24.4</ele>
  <time>2026-09-01T01:14:18Z</time>
  <course>335.96</course>
  <speed>1.0</speed>
  <fix>3d</fix>
</trkpt>
<trkpt lat="33.8101305" lon="-118.3955161">
  <ele>-25.012</ele>
  <time>2026-09-01T01:14:18Z</time>
  <course>66.28</course>
  <speed>1.0269371937952194</speed>
  <fix>3d</fix>
</trkpt>
<trkpt lat="33.8101291" lon="-118.3955156">
  <ele>-24.4</ele>
  <time>2026-09-01T01:14:18Z</time>
  <course>336.19</course>
  <speed>1.0</speed>
  <fix>3d</fix>
</trkpt>
<trkpt lat="33.8101314" lon="-118.3955165">
  <ele>-25.013</ele>
  <time>2026-09-01T01:14:18Z</time>
  <course>66.39</course>
  <speed>1.0269371937952194</speed>
  <fix>3d</fix>
</trkpt>
<trkpt lat="33.8101291" lon="-118.3955156">
  <ele>-24.4</ele>
  <time>2026-09-01T01:14:18Z</time>
  <course>336.19</course>
  <speed>1.0</speed>
  <fix>3d</fix>
</trkpt>
<trkpt lat="33.8101322" lon="-118.395517">
  <ele>-25.013</ele>
  <time>2026-09-01T01:14:18Z</time>
  <course>66.5</course>
  <speed>1.0269371937952194</speed>
  <fix>3d</fix>
</trkpt>
<trkpt lat="33.8101308" lon="-118.3955164">
  <ele>-24.4</ele>
  <time>2026-09-01T01:14:18Z</time>
  <course>336.47</course>
  <speed>1.0</speed>
  <fix>3d</fix>
</trkpt>
<trkpt lat="33.810133" lon="-118.3955174">
  <ele>-25.013</ele>
  <time>2026-09-01T01:14:18Z</time>
  <course>66.62</course>
  <speed>1.0231813133555558</speed>
  <fix>3d</fix>
</trkpt>
<trkpt lat="33.8101308" lon="-118.3955164">
  <ele>-24.4</ele>
  <time>2026-09-01T01:14:18Z</time>
  <course>336.47</course>
  <speed>1.0</speed>
  <fix>3d</fix>
</trkpt>
<trkpt lat="33.8101338" lon="-118.3955178">
  <ele>-25.012</ele>
  <time>2026-09-01T01:14:18Z</time>
  <course>66.74</course>
  <speed>1.0231813133555558</speed>
  <fix>3d</fix>
</trkpt>
<trkpt lat="33.8101324" lon="-118.3955173">
  <ele>-24.4</ele>
  <time>2026-09-01T01:14:18Z</time>
  <course>336.73</course>
  <speed>1.0</speed>
  <fix>3d</fix>
</trkpt>
<trkpt lat="33.8101347" lon="-118.3955182">
  <ele>-25.011</ele>
  <time>2026-09-01T01:14:18Z</time>
  <course>66.85</course>
  <speed>1.0231813133555558</speed>
  <fix>3d</fix>
</trkpt>
<trkpt lat="33.8101324" lon="-118.3955173">
  <ele>-24.4</ele>
  <time>2026-09-01T01:14:18Z</time>
  <course>336.73</course>
  <speed>1.0</speed>
  <fix>3d</fix>
</trkpt>
<trkpt lat="33.8101355" lon="-118.3955187">
  <ele>-25.01</ele>
  <time>2026-09-01T01:14:18Z</time>
  <course>66.96</course>
  <speed>1.0231813133555558</speed>
  <fix>3d</fix>
</trkpt>
<trkpt lat="33.8101341" lon="-118.3955182">
  <ele>-24.4</ele>
  <time>2026-09-01T01:14:18Z</time>
  <course>336.96</course>
  <speed>1.0</speed>
  <fix>3d</fix>
</trkpt>
<trkpt lat="33.8101363" lon="-118.3955191">
  <ele>-25.01</ele>
  <time>2026-09-01T01:14:18Z</time>
  <course>67.08</course>
  <speed>1.0231813133555558</speed>
  <fix>3d</fix>
</trkpt>
<trkpt lat="33.8101341" lon="-118.3955182">
  <ele>-24.4</ele>
  <time>2026-09-01T01:14:18Z</time>
  <course>336.96</course>
  <speed>1.0</speed>
  <fix>3d</fix>
</trkpt>
<trkpt lat="33.8101371" lon="-118.3955195">
  <ele>-25.011</ele>
  <time>2026-09-01T01:14:18Z</time>
  <course>67.19</course>
  <speed>1.0195096860746347</speed>
  <fix>3d</fix>
</trkpt>
<trkpt lat="33.8101358" lon="-118.395519">
  <ele>-24.4</ele>
  <time>2026-09-01T01:14:18Z</time>
  <course>337.21</course>
  <speed>1.0</speed>
  <fix>3d</fix>
</trkpt>
<trkpt lat="33.810138" lon="-118.3955199">
  <ele>-25.011</ele>
  <time>2026-09-01T01:14:18Z</time>
  <course>67.3</course>
  <speed>1.0195096860746347</speed>
  <fix>3d</fix>
</trkpt>
<trkpt lat="33.8101358" lon="-118.395519">
  <ele>-24.4</ele>
  <time>2026-09-01T01:14:18Z</time>
  <course>337.21</course>
  <speed>1.0</speed>
  <fix>3d</fix>
</trkpt>
<trkpt lat="33.8101388" lon="-118.3955203">
  <ele>-25.012</ele>
  <time>2026-09-01T01:14:18Z</time>
  <course>67.42</course>
  <speed>1.0195096860746347</speed>
  <fix>3d</fix>
</trkpt>
<trkpt lat="33.8101374" lon="-118.3955199">
  <ele>-24.4</ele>
  <time>2026-09-01T01:14:18Z</time>
  <course>337.46</course>
  <speed>1.0</speed>
  <fix>3d</fix>
</trkpt>
<trkpt lat="33.8101396" lon="-118.3955207">
  <ele>-25.011</ele>
  <time>2026-09-01T01:14:18Z</time>
  <course>67.54</course>
  <speed>1.0195096860746347</speed>
  <fix>3d</fix>
</trkpt>
<trkpt lat="33.8101374" lon="-118.3955199">
  <ele>-24.4</ele>
  <time>2026-09-01T01:14:18Z</time>
  <course>337.46</course>
  <speed>1.0</speed>
  <fix>3d</fix>
</trkpt>
<trkpt lat="33.8101405" lon="-118.3955212">
  <ele>-25.01</ele>
  <time>2026-09-01T01:14:18Z</time>
  <course>67.65</course>
  <speed>1.0195096860746347</speed>
  <fix>3d</fix>
</trkpt>
<trkpt lat="33.8101391" lon="-118.3955207">
  <ele>-24.4</ele>
  <time>2026-09-01T01:14:18Z</time>
  <course>337.71</course>
  <speed>1.0</speed>
  <fix>3d</fix>
</trkpt>
<trkpt lat="33.8101413" lon="-118.3955216">
  <ele>-25.01</ele>
  <time>2026-09-01T01:14:18Z</time>
  <course>67.76</course>
  <speed>1.0159232254457027</speed>
  <fix>3d</fix>
</trkpt>
<trkpt lat="33.8101391" lon="-118.3955207">
  <ele>-24.4</ele>
  <time>2026-09-01T01:14:18Z</time>
  <course>337.71</course>
  <speed>1.0</speed>
  <fix>3d</fix>
</trkpt>
<trkpt lat="33.8101422" lon="-118.395522">
  <ele>-25.011</ele>
  <time>2026-09-01T01:14:18Z</time>
  <course>67.88</course>
  <speed>1.0159232254457027</speed>
  <fix>3d</fix>
</trkpt>
<trkpt lat="33.8101408" lon="-118.3955215">
  <ele>-24.4</ele>
  <time>2026-09-01T01:14:18Z</time>
  <course>337.98</course>
  <speed>1.0</speed>
  <fix>3d</fix>
</trkpt>
<trkpt lat="33.810143" lon="-118.3955224">
  <ele>-25.011</ele>
  <time>2026-09-01T01:14:18Z</time>
  <course>67.99</course>
  <speed>1.0159232254457027</speed>
  <fix>3d</fix>
</trkpt>
<trkpt lat="33.8101408" lon="-118.3955215">
  <ele>-24.4</ele>
  <time>2026-09-01T01:14:18Z</time>
  <course>337.98</course>
  <speed>1.0</speed>
  <fix>3d</fix>
</trkpt>
<trkpt lat="33.8101438" lon="-118.3955228">
  <ele>-25.011</ele>
  <time>2026-09-01T01:14:18Z</time>
  <course>68.11</course>
  <speed>1.0159232254457027</speed>
  <fix>3d</fix>
</trkpt>
<trkpt lat="33.8101424" lon="-118.3955223">
  <ele>-24.4</ele>
  <time>2026-09-01T01:14:18Z</time>
  <course>338.22</course>
  <speed>1.0</speed>
  <fix>3d</fix>
</trkpt>
<trkpt lat="33.8101447" lon="-118.3955232">
  <ele>-25.01</ele>
  <time>2026-09-01T01:14:18Z</time>
  <course>68.22</course>
  <speed>1.0159232254457027</speed>
  <fix>3d</fix>
</trkpt>
<trkpt lat="33.8101424" lon="-118.3955223">
  <ele>-24.4</ele>
  <time>2026-09-01T01:14:18Z</time>
  <course>338.22</course>
  <speed>1.0</speed>
  <fix>3d</fix>
</trkpt>
<trkpt lat="33.8101455" lon="-118.3955236">
  <ele>-25.01</ele>
  <time>2026-09-01T01:14:18Z</time>
  <course>68.34</course>
  <speed>1.0218121158021176</speed>
  <fix>3d</fix>
</trkpt>
<trkpt lat="33.8101441" lon="-118.3955231">
  <ele>-24.4</ele>
  <time>2026-09-01T01:14:18Z</time>
  <course>338.43</course>
  <speed>1.0</speed>
  <fix>3d</fix>
</trkpt>
<trkpt lat="33.8101463" lon="-118.395524">
  <ele>-25.012</ele>
  <time>2026-09-01T01:14:18Z</time>
  <course>68.45</course>
  <speed>1.0218121158021176</speed>
  <fix>3d</fix>
</trkpt>
<trkpt lat="33.8101441" lon="-118.3955231">
  <ele>-24.4</ele>
  <time>2026-09-01T01:14:18Z</time>
  <course>338.43</course>
  <speed>1.0</speed>
  <fix>3d</fix>
</trkpt>
<trkpt lat="33.8101472" lon="-118.3955244">
  <ele>-25.013</ele>
  <time>2026-09-01T01:14:18Z</time>
  <course>68.56</course>
  <speed>1.0218121158021176</speed>
  <fix>3d</fix>
</trkpt>
<trkpt lat="33.8101458" lon="-118.3955239">
  <ele>-24.41</ele>
  <time>2026-09-01T01:14:18Z</time>
  <course>338.64</course>
  <speed>1.0</speed>
  <fix>3d</fix>
</trkpt>
<trkpt lat="33.810148" lon="-118.3955247">
  <ele>-25.014</ele>
  <time>2026-09-01T01:14:18Z</time>
  <course>68.68</course>
  <speed>1.0218121158021176</speed>
  <fix>3d</fix>
</trkpt>
<trkpt lat="33.8101458" lon="-118.3955239">
  <ele>-24.41</ele>
  <time>2026-09-01T01:14:18Z</time>
  <course>338.64</course>
  <speed>1.0</speed>
  <fix>3d</fix>
</trkpt>
<trkpt lat="33.8101489" lon="-118.3955251">
  <ele>-25.014</ele>
  <time>2026-09-01T01:14:18Z</time>
  <course>68.79</course>
  <speed>1.0218121158021176</speed>
  <fix>3d</fix>
</trkpt>
<trkpt lat="33.8101475" lon="-118.3955247">
  <ele>-24.41</ele>
  <time>2026-09-01T01:14:18Z</time>
  <course>338.85</course>
  <speed>1.0</speed>
  <fix>3d</fix>
</trkpt>
<trkpt lat="33.8101497" lon="-118.3955255">
  <ele>-25.014</ele>
  <time>2026-09-01T01:14:18Z</time>
  <course>68.91</course>
  <speed>1.0218121158021176</speed>
  <fix>3d</fix>
</trkpt>
<trkpt lat="33.8101475" lon="-118.3955247">
  <ele>-24.41</ele>
  <time>2026-09-01T01:14:18Z</time>
  <course>338.85</course>
  <speed>1.0</speed>
  <fix>3d</fix>
</trkpt>
<trkpt lat="33.8101505" lon="-118.3955259">
  <ele>-25.015</ele>
  <time>2026-09-01T01:14:18Z</time>
  <course>69.02</course>
  <speed>1.0184301645179212</speed>
  <fix>3d</fix>
</trkpt>
<trkpt lat="33.8101491" lon="-118.3955255">
  <ele>-24.41</ele>
  <time>2026-09-01T01:14:18Z</time>
  <course>339.06</course>
  <speed>1.0</speed>
  <fix>3d</fix>
</trkpt>
<trkpt lat="33.8101514" lon="-118.3955263">
  <ele>-25.014</ele>
  <time>2026-09-01T01:14:18Z</time>
  <course>69.14</course>
  <speed>1.0184301645179212</speed>
  <fix>3d</fix>
</trkpt>
<trkpt lat="33.8101491" lon="-118.3955255">
  <ele>-24.41</ele>
  <time>2026-09-01T01:14:18Z</time>
  <course>339.06</course>
  <speed>1.0</speed>
  <fix>3d</fix>
</trkpt>
<trkpt lat="33.8101522" lon="-118.3955267">
  <ele>-25.014</ele>
  <time>2026-09-01T01:14:18Z</time>
  <course>69.25</course>
  <speed>1.0184301645179212</speed>
  <fix>3d</fix>
</trkpt>
<trkpt lat="33.8101508" lon="-118.3955263">
  <ele>-24.41</ele>
  <time>2026-09-01T01:14:18Z</time>
  <course>339.29</course>
  <speed>1.0</speed>
  <fix>3d</fix>
</trkpt>
<trkpt lat="33.8101531" lon="-118.3955271">
  <ele>-25.013</ele>
  <time>2026-09-01T01:14:18Z</time>
  <course>69.37</course>
  <speed>1.0184301645179212</speed>
  <fix>3d</fix>
</trkpt>
<trkpt lat="33.8101508" lon="-118.3955263">
  <ele>-24.41</ele>
  <time>2026-09-01T01:14:18Z</time>
  <course>339.29</course>
  <speed>1.0</speed>
  <fix>3d</fix>
</trkpt>
<trkpt lat="33.8101539" lon="-118.3955274">
  <ele>-25.013</ele>
  <time>2026-09-01T01:14:18Z</time>
  <course>69.48</course>
  <speed>1.0151354589413177</speed>
  <fix>3d</fix>
</trkpt>
<trkpt lat="33.8101525" lon="-118.395527">
  <ele>-24.41</ele>
  <time>2026-09-01T01:14:18Z</time>
  <course>339.57</course>
  <speed>1.0</speed>
  <fix>3d</fix>
</trkpt>
<trkpt lat="33.8101547" lon="-118.3955278">
  <ele>-25.013</ele>
  <time>2026-09-01T01:14:18Z</time>
  <course>69.59</course>
  <speed>1.0151354589413177</speed>
  <fix>3d</fix>
</trkpt>
<trkpt lat="33.8101525" lon="-118.395527">
  <ele>-24.41</ele>
  <time>2026-09-01T01:14:18Z</time>
  <course>339.57</course>
  <speed>1.0</speed>
  <fix>3d</fix>
</trkpt>
<trkpt lat="33.8101556" lon="-118.3955282">
  <ele>-25.013</ele>
  <time>2026-09-01T01:14:18Z</time>
  <course>69.71</course>
  <speed>1.0151354589413177</speed>
  <fix>3d</fix>
</trkpt>
<trkpt lat="33.8101542" lon="-118.3955278">
  <ele>-24.41</ele>
  <time>2026-09-01T01:14:18Z</time>
  <course>339.84</course>
  <speed>1.0</speed>
  <fix>3d</fix>
</trkpt>
<trkpt lat="33.8101564" lon="-118.3955286">
  <ele>-25.014</ele>
  <time>2026-09-01T01:14:18Z</time>
  <course>69.83</course>
  <speed>1.0151354589413177</speed>
  <fix>3d</fix>
</trkpt>
<trkpt lat="33.8101542" lon="-118.3955278">
  <ele>-24.41</ele>
  <time>2026-09-01T01:14:18Z</time>
  <course>339.84</course>
  <speed>1.0</speed>
  <fix>3d</fix>
</trkpt>
<trkpt lat="33.8101573" lon="-118.3955289">
  <ele>-25.015</ele>
  <time>2026-09-01T01:14:18Z</time>
  <course>69.94</course>
  <speed>1.0151354589413177</speed>
  <fix>3d</fix>
</trkpt>
<trkpt lat="33.8101559" lon="-118.3955285">
  <ele>-24.41</ele>
  <time>2026-09-01T01:14:18Z</time>
  <course>340.1</course>
  <speed>1.0</speed>
  <fix>3d</fix>
</trkpt>
<trkpt lat="33.8101581" lon="-118.3955293">
  <ele>-25.017</ele>
  <time>2026-09-01T01:14:18Z</time>
  <course>70.05</course>
  <speed>1.0119288512538815</speed>
  <fix>3d</fix>
</trkpt>
<trkpt lat="33.8101559" lon="-118.3955285">
  <ele>-24.41</ele>
  <time>2026-09-01T01:14:18Z</time>
  <course>340.1</course>
  <speed>1.0</speed>
  <fix>3d</fix>
</trkpt>
<trkpt lat="33.810159" lon="-118.3955297">
  <ele>-25.017</ele>
  <time>2026-09-01T01:14:18Z</time>
  <course>70.17</course>
  <speed>1.0119288512538815</speed>
  <fix>3d</fix>
</trkpt>
<trkpt lat="33.8101576" lon="-118.3955292">
  <ele>-24.41</ele>
  <time>2026-09-01T01:14:18Z</time>
  <course>340.33</course>
  <speed>0.99</speed>
  <fix>3d</fix>
</trkpt>
<trkpt lat="33.8101598" lon="-118.39553">
  <ele>-25.017</ele>
  <time>2026-09-01T01:14:18Z</time>
  <course>70.29</course>
  <speed>1.021420579389313</speed>
  <fix>3d</fix>
</trkpt>
<trkpt lat="33.8101576" lon="-118.3955292">
  <ele>-24.41</ele>
  <time>2026-09-01T01:14:18Z</time>
  <course>340.33</course>
  <speed>0.99</speed>
  <fix>3d</fix>
</trkpt>
<trkpt lat="33.8101607" lon="-118.3955304">
  <ele>-25.018</ele>
  <time>2026-09-01T01:14:18Z</time>
  <course>70.4</course>
  <speed>1.021420579389313</speed>
  <fix>3d</fix>
</trkpt>
<trkpt lat="33.8101593" lon="-118.3955299">
  <ele>-24.41</ele>
  <time>2026-09-01T01:14:18Z</time>
  <course>340.52</course>
  <speed>0.99</speed>
  <fix>3d</fix>
</trkpt>
<trkpt lat="33.8101615" lon="-118.3955307">
  <ele>-25.019</ele>
  <time>2026-09-01T01:14:18Z</time>
  <course>70.51</course>
  <speed>1.021420579389313</speed>
  <fix>3d</fix>
</trkpt>
<trkpt lat="33.8101593" lon="-118.3955299">
  <ele>-24.41</ele>
  <time>2026-09-01T01:14:18Z</time>
  <course>340.52</course>
  <speed>0.99</speed>
  <fix>3d</fix>
</trkpt>
<trkpt lat="33.8101624" lon="-118.3955311">
  <ele>-25.018</ele>
  <time>2026-09-01T01:14:18Z</time>
  <course>70.63</course>
  <speed>1.021420579389313</speed>
  <fix>3d</fix>
</trkpt>
<trkpt lat="33.8101609" lon="-118.3955307">
  <ele>-24.41</ele>
  <time>2026-09-01T01:14:18Z</time>
  <course>340.67</course>
  <speed>1.0</speed>
  <fix>3d</fix>
</trkpt>
<trkpt lat="33.8101632" lon="-118.3955314">
  <ele>-25.018</ele>
  <time>2026-09-01T01:14:18Z</time>
  <course>70.74</course>
  <speed>1.021420579389313</speed>
  <fix>3d</fix>
</trkpt>
<trkpt lat="33.8101609" lon="-118.3955307">
  <ele>-24.41</ele>
  <time>2026-09-01T01:14:18Z</time>
  <course>340.67</course>
  <speed>1.0</speed>
  <fix>3d</fix>
</trkpt>
<trkpt lat="33.8101641" lon="-118.3955318">
  <ele>-25.017</ele>
  <time>2026-09-01T01:14:18Z</time>
  <course>70.85</course>
  <speed>1.0183319694480775</speed>
  <fix>3d</fix>
</trkpt>
<trkpt lat="33.8101626" lon="-118.3955314">
  <ele>-24.41</ele>
  <time>2026-09-01T01:14:18Z</time>
  <course>340.85</course>
  <speed>1.0</speed>
  <fix>3d</fix>
</trkpt>
<trkpt lat="33.8101649" lon="-118.3955321">
  <ele>-25.015</ele>
  <time>2026-09-01T01:14:18Z</time>
  <course>70.97</course>
  <speed>1.0183319694480775</speed>
  <fix>3d</fix>
</trkpt>
<trkpt lat="33.8101626" lon="-118.3955314">
  <ele>-24.41</ele>
  <time>2026-09-01T01:14:18Z</time>
  <course>340.85</course>
  <speed>1.0</speed>
  <fix>3d</fix>
</trkpt>
<trkpt lat="33.8101657" lon="-118.3955325">
  <ele>-25.014</ele>
  <time>2026-09-01T01:14:18Z</time>
  <course>71.08</course>
  <speed>1.027861858422619</speed>
  <fix>3d</fix>
</trkpt>
<trkpt lat="33.8101644" lon="-118.3955321">
  <ele>-24.41</ele>
  <time>2026-09-01T01:14:18Z</time>
  <course>341.12</course>
  <speed>1.0</speed>
  <fix>3d</fix>
</trkpt>
<trkpt lat="33.8101666" lon="-118.3955328">
  <ele>-25.013</ele>
  <time>2026-09-01T01:14:18Z</time>
  <course>71.2</course>
  <speed>1.027861858422619</speed>
  <fix>3d</fix>
</trkpt>
<trkpt lat="33.8101644" lon="-118.3955321">
  <ele>-24.41</ele>
  <time>2026-09-01T01:14:18Z</time>
  <course>341.12</course>
  <speed>1.0</speed>
  <fix>3d</fix>
</trkpt>
<trkpt lat="33.8101675" lon="-118.3955332">
  <ele>-25.012</ele>
  <time>2026-09-01T01:14:18Z</time>
  <course>71.32</course>
  <speed>1.027861858422619</speed>
  <fix>3d</fix>
</trkpt>
<trkpt lat="33.8101661" lon="-118.3955328">
  <ele>-24.4</ele>
  <time>2026-09-01T01:14:19Z</time>
  <course>341.37</course>
  <speed>1.0</speed>
  <fix>3d</fix>
</trkpt>
<trkpt lat="33.8101683" lon="-118.3955335">
  <ele>-25.01</ele>
  <time>2026-09-01T01:14:19Z</time>
  <course>71.43</course>
  <speed>1.0248902380255165</speed>
  <fix>3d</fix>
</trkpt>
<trkpt lat="33.8101661" lon="-118.3955328">
  <ele>-24.4</ele>
  <time>2026-09-01T01:14:19Z</time>
  <course>341.37</course>
  <speed>1.0</speed>
  <fix>3d</fix>
</trkpt>
<trkpt lat="33.8101692" lon="-118.3955338">
  <ele>-25.008</ele>
  <time>2026-09-01T01:14:19Z</time>
  <course>71.54</course>
  <speed>1.0248902380255165</speed>
  <fix>3d</fix>
</trkpt>
<trkpt lat="33.8101678" lon="-118.3955335">
  <ele>-24.4</ele>
  <time>2026-09-01T01:14:19Z</time>
  <course>341.59</course>
  <speed>1.0</speed>
  <fix>3d</fix>
</trkpt>
<trkpt lat="33.81017" lon="-118.3955342">
  <ele>-25.008</ele>
  <time>2026-09-01T01:14:19Z</time>
  <course>71.66</course>
  <speed>1.0248902380255165</speed>
  <fix>3d</fix>
</trkpt>
<trkpt lat="33.8101678" lon="-118.3955335">
  <ele>-24.4</ele>
  <time>2026-09-01T01:14:19Z</time>
  <course>341.59</course>
  <speed>1.0</speed>
  <fix>3d</fix>
</trkpt>
<trkpt lat="33.8101709" lon="-118.3955345">
  <ele>-25.008</ele>
  <time>2026-09-01T01:14:19Z</time>
  <course>71.77</course>
  <speed>1.0248902380255165</speed>
  <fix>3d</fix>
</trkpt>
<trkpt lat="33.8101695" lon="-118.3955341">
  <ele>-24.4</ele>
  <time>2026-09-01T01:14:19Z</time>
  <course>341.82</course>
  <speed>1.0</speed>
  <fix>3d</fix>
</trkpt>
<trkpt lat="33.8101717" lon="-118.3955348">
  <ele>-25.01</ele>
  <time>2026-09-01T01:14:19Z</time>
  <course>71.89</course>
  <speed>1.0248902380255165</speed>
  <fix>3d</fix>
</trkpt>
<trkpt lat="33.8101695" lon="-118.3955341">
  <ele>-24.4</ele>
  <time>2026-09-01T01:14:19Z</time>
  <course>341.82</course>
  <speed>1.0</speed>
  <fix>3d</fix>
</trkpt>
<trkpt lat="33.8101726" lon="-118.3955352">
  <ele>-25.012</ele>
  <time>2026-09-01T01:14:19Z</time>
  <course>72.0</course>
  <speed>1.0248902380255165</speed>
  <fix>3d</fix>
</trkpt>
<trkpt lat="33.8101712" lon="-118.3955348">
  <ele>-24.41</ele>
  <time>2026-09-01T01:14:19Z</time>
  <course>342.02</course>
  <speed>1.0</speed>
  <fix>3d</fix>
</trkpt>
<trkpt lat="33.8101734" lon="-118.3955355">
  <ele>-25.015</ele>
  <time>2026-09-01T01:14:19Z</time>
  <course>72.12</course>
  <speed>1.0220078277586722</speed>
  <fix>3d</fix>
</trkpt>
<trkpt lat="33.8101712" lon="-118.3955348">
  <ele>-24.41</ele>
  <time>2026-09-01T01:14:19Z</time>
  <course>342.02</course>
  <speed>1.0</speed>
  <fix>3d</fix>
</trkpt>
<trkpt lat="33.8101743" lon="-118.3955358">
  <ele>-25.017</ele>
  <time>2026-09-01T01:14:19Z</time>
  <course>72.23</course>
  <speed>1.0220078277586722</speed>
  <fix>3d</fix>
</trkpt>
<trkpt lat="33.8101729" lon="-118.3955355">
  <ele>-24.41</ele>
  <time>2026-09-01T01:14:19Z</time>
  <course>342.2</course>
  <speed>1.0</speed>
  <fix>3d</fix>
</trkpt>
<trkpt lat="33.8101751" lon="-118.3955362">
  <ele>-25.018</ele>
  <time>2026-09-01T01:14:19Z</time>
  <course>72.35</course>
  <speed>1.0220078277586722</speed>
  <fix>3d</fix>
</trkpt>
<trkpt lat="33.8101729" lon="-118.3955355">
  <ele>-24.41</ele>
  <time>2026-09-01T01:14:19Z</time>
  <course>342.2</course>
  <speed>1.0</speed>
  <fix>3d</fix>
</trkpt>
<trkpt lat="33.810176" lon="-118.3955365">
  <ele>-25.018</ele>
  <time>2026-09-01T01:14:19Z</time>
  <course>72.46</course>
  <speed>1.0220078277586722</speed>
  <fix>3d</fix>
</trkpt>
<trkpt lat="33.8101747" lon="-118.3955362">
  <ele>-24.41</ele>
  <time>2026-09-01T01:14:19Z</time>
  <course>342.4</course>
  <speed>1.0</speed>
  <fix>3d</fix>
</trkpt>
<trkpt lat="33.8101769" lon="-118.3955368">
  <ele>-25.017</ele>
  <time>2026-09-01T01:14:19Z</time>
  <course>72.58</course>
  <speed>1.0192153844992726</speed>
  <fix>3d</fix>
</trkpt>
<trkpt lat="33.8101747" lon="-118.3955362">
  <ele>-24.41</ele>
  <time>2026-09-01T01:14:19Z</time>
  <course>342.4</course>
  <speed>1.0</speed>
  <fix>3d</fix>
</trkpt>
<trkpt lat="33.8101777" lon="-118.3955371">
  <ele>-25.015</ele>
  <time>2026-09-01T01:14:19Z</time>
  <course>72.69</course>
  <speed>1.0192153844992726</speed>
  <fix>3d</fix>
</trkpt>
<trkpt lat="33.8101764" lon="-118.3955368">
  <ele>-24.41</ele>
  <time>2026-09-01T01:14:19Z</time>
  <course>342.64</course>
  <speed>1.0</speed>
  <fix>3d</fix>
</trkpt>
<trkpt lat="33.8101786" lon="-118.3955375">
  <ele>-25.014</ele>
  <time>2026-09-01T01:14:19Z</time>
  <course>72.8</course>
  <speed>1.0192153844992726</speed>
  <fix>3d</fix>
</trkpt>
<trkpt lat="33.8101764" lon="-118.3955368">
  <ele>-24.41</ele>
  <time>2026-09-01T01:14:19Z</time>
  <course>342.64</course>
  <speed>1.0</speed>
  <fix>3d</fix>
</trkpt>
<trkpt lat="33.8101795" lon="-118.3955378">
  <ele>-25.013</ele>
  <time>2026-09-01T01:14:19Z</time>
  <course>72.92</course>
  <speed>1.0192153844992726</speed>
  <fix>3d</fix>
</trkpt>
<trkpt lat="33.8101781" lon="-118.3955375">
  <ele>-24.41</ele>
  <time>2026-09-01T01:14:19Z</time>
  <course>342.88</course>
  <speed>1.0</speed>
  <fix>3d</fix>
</trkpt>
<trkpt lat="33.8101803" lon="-118.3955381">
  <ele>-25.013</ele>
  <time>2026-09-01T01:14:19Z</time>
  <course>73.04</course>
  <speed>1.0192153844992726</speed>
  <fix>3d</fix>
</trkpt>
<trkpt lat="33.8101781" lon="-118.3955375">
  <ele>-24.41</ele>
  <time>2026-09-01T01:14:19Z</time>
  <course>342.88</course>
  <speed>1.0</speed>
  <fix>3d</fix>
</trkpt>
<trkpt lat="33.8101812" lon="-118.3955384">
  <ele>-25.013</ele>
  <time>2026-09-01T01:14:19Z</time>
  <course>73.15</course>
  <speed>1.0165136496870073</speed>
  <fix>3d</fix>
</trkpt>
<trkpt lat="33.8101798" lon="-118.3955381">
  <ele>-24.41</ele>
  <time>2026-09-01T01:14:19Z</time>
  <course>343.12</course>
  <speed>1.0</speed>
  <fix>3d</fix>
</trkpt>
<trkpt lat="33.810182" lon="-118.3955387">
  <ele>-25.014</ele>
  <time>2026-09-01T01:14:19Z</time>
  <course>73.27</course>
  <speed>1.0165136496870073</speed>
  <fix>3d</fix>
</trkpt>
<trkpt lat="33.8101798" lon="-118.3955381">
  <ele>-24.41</ele>
  <time>2026-09-01T01:14:19Z</time>
  <course>343.12</course>
  <speed>1.0</speed>
  <fix>3d</fix>
</trkpt>
<trkpt lat="33.8101829" lon="-118.395539">
  <ele>-25.015</ele>
  <time>2026-09-01T01:14:19Z</time>
  <course>73.38</course>
  <speed>1.0165136496870073</speed>
  <fix>3d</fix>
</trkpt>
<trkpt lat="33.8101816" lon="-118.3955388">
  <ele>-24.41</ele>
  <time>2026-09-01T01:14:19Z</time>
  <course>343.4</course>
  <speed>1.0</speed>
  <fix>3d</fix>
</trkpt>
<trkpt lat="33.8101838" lon="-118.3955393">
  <ele>-25.016</ele>
  <time>2026-09-01T01:14:19Z</time>
  <course>73.49</course>
  <speed>1.0165136496870073</speed>
  <fix>3d</fix>
</trkpt>
<trkpt lat="33.8101816" lon="-118.3955388">
  <ele>-24.41</ele>
  <time>2026-09-01T01:14:19Z</time>
  <course>343.4</course>
  <speed>1.0</speed>
  <fix>3d</fix>
</trkpt>
<trkpt lat="33.8101846" lon="-118.3955396">
  <ele>-25.017</ele>
  <time>2026-09-01T01:14:19Z</time>
  <course>73.61</course>
  <speed>1.0139033484509261</speed>
  <fix>3d</fix>
</trkpt>
<trkpt lat="33.8101833" lon="-118.3955394">
  <ele>-24.41</ele>
  <time>2026-09-01T01:14:19Z</time>
  <course>343.67</course>
  <speed>1.0</speed>
  <fix>3d</fix>
</trkpt>
<trkpt lat="33.8101855" lon="-118.3955399">
  <ele>-25.018</ele>
  <time>2026-09-01T01:14:19Z</time>
  <course>73.72</course>
  <speed>1.0139033484509261</speed>
  <fix>3d</fix>
</trkpt>
<trkpt lat="33.8101833" lon="-118.3955394">
  <ele>-24.41</ele>
  <time>2026-09-01T01:14:19Z</time>
  <course>343.67</course>
  <speed>1.0</speed>
  <fix>3d</fix>
</trkpt>
<trkpt lat="33.8101864" lon="-118.3955402">
  <ele>-25.017</ele>
  <time>2026-09-01T01:14:19Z</time>
  <course>73.84</course>
  <speed>1.0139033484509261</speed>
  <fix>3d</fix>
</trkpt>
<trkpt lat="33.8101851" lon="-118.39554">
  <ele>-24.41</ele>
  <time>2026-09-01T01:14:19Z</time>
  <course>343.95</course>
  <speed>1.0</speed>
  <fix>3d</fix>
</trkpt>
<trkpt lat="33.8101872" lon="-118.3955405">
  <ele>-25.015</ele>
  <time>2026-09-01T01:14:19Z</time>
  <course>73.95</course>
  <speed>1.0139033484509261</speed>
  <fix>3d</fix>
</trkpt>
<trkpt lat="33.8101851" lon="-118.39554">
  <ele>-24.41</ele>
  <time>2026-09-01T01:14:19Z</time>
  <course>343.95</course>
  <speed>1.0</speed>
  <fix>3d</fix>
</trkpt>
<trkpt lat="33.8101881" lon="-118.3955408">
  <ele>-25.014</ele>
  <time>2026-09-01T01:14:19Z</time>
  <course>74.07</course>
  <speed>1.0113851887386922</speed>
  <fix>3d</fix>
</trkpt>
<trkpt lat="33.8101868" lon="-118.3955406">
  <ele>-24.41</ele>
  <time>2026-09-01T01:14:19Z</time>
  <course>344.21</course>
  <speed>1.0</speed>
  <fix>3d</fix>
</trkpt>
<trkpt lat="33.810189" lon="-118.3955411">
  <ele>-25.013</ele>
  <time>2026-09-01T01:14:19Z</time>
  <course>74.18</course>
  <speed>1.0113851887386922</speed>
  <fix>3d</fix>
</trkpt>
<trkpt lat="33.8101868" lon="-118.3955406">
  <ele>-24.41</ele>
  <time>2026-09-01T01:14:19Z</time>
  <course>344.21</course>
  <speed>1.0</speed>
  <fix>3d</fix>
</trkpt>
<trkpt lat="33.8101898" lon="-118.3955414">
  <ele>-25.012</ele>
  <time>2026-09-01T01:14:19Z</time>
  <course>74.29</course>
  <speed>1.0113851887386922</speed>
  <fix>3d</fix>
</trkpt>
<trkpt lat="33.8101885" lon="-118.3955412">
  <ele>-24.4</ele>
  <time>2026-09-01T01:14:19Z</time>
  <course>344.45</course>
  <speed>0.99</speed>
  <fix>3d</fix>
</trkpt>
<trkpt lat="33.8101907" lon="-118.3955417">
  <ele>-25.011</ele>
  <time>2026-09-01T01:14:19Z</time>
  <course>74.41</course>
  <speed>1.0113851887386922</speed>
  <fix>3d</fix>
</trkpt>
<trkpt lat="33.8101885" lon="-118.3955412">
  <ele>-24.4</ele>
  <time>2026-09-01T01:14:19Z</time>
  <course>344.45</course>
  <speed>0.99</speed>
  <fix>3d</fix>
</trkpt>
<trkpt lat="33.8101916" lon="-118.395542">
  <ele>-25.01</ele>
  <time>2026-09-01T01:14:19Z</time>
  <course>74.52</course>
  <speed>1.0113851887386922</speed>
  <fix>3d</fix>
</trkpt>
<trkpt lat="33.8101903" lon="-118.3955417">
  <ele>-24.4</ele>
  <time>2026-09-01T01:14:19Z</time>
  <course>344.7</course>
  <speed>0.99</speed>
  <fix>3d</fix>
</trkpt>
<trkpt lat="33.8101925" lon="-118.3955423">
  <ele>-25.011</ele>
  <time>2026-09-01T01:14:19Z</time>
  <course>74.64</course>
  <speed>1.0089598604503551</speed>
  <fix>3d</fix>
</trkpt>
<trkpt lat="33.8101903" lon="-118.3955417">
  <ele>-24.4</ele>
  <time>2026-09-01T01:14:19Z</time>
  <course>344.7</course>
  <speed>0.99</speed>
  <fix>3d</fix>
</trkpt>
<trkpt lat="33.8101933" lon="-118.3955425">
  <ele>-25.012</ele>
  <time>2026-09-01T01:14:19Z</time>
  <course>74.75</course>
  <speed>1.0089598604503551</speed>
  <fix>3d</fix>
</trkpt>
<trkpt lat="33.810192" lon="-118.3955423">
  <ele>-24.4</ele>
  <time>2026-09-01T01:14:19Z</time>
  <course>344.92</course>
  <speed>0.99</speed>
  <fix>3d</fix>
</trkpt>
<trkpt lat="33.8101942" lon="-118.3955428">
  <ele>-25.014</ele>
  <time>2026-09-01T01:14:19Z</time>
  <course>74.87</course>
  <speed>1.0089598604503551</speed>
  <fix>3d</fix>
</trkpt>
<trkpt lat="33.810192" lon="-118.3955423">
  <ele>-24.4</ele>
  <time>2026-09-01T01:14:19Z</time>
  <course>344.92</course>
  <speed>0.99</speed>
  <fix>3d</fix>
</trkpt>
<trkpt lat="33.8101951" lon="-118.3955431">
  <ele>-25.016</ele>
  <time>2026-09-01T01:14:19Z</time>
  <course>74.98</course>
  <speed>1.0186756107809787</speed>
  <fix>3d</fix>
</trkpt>
<trkpt lat="33.8101937" lon="-118.3955428">
  <ele>-24.4</ele>
  <time>2026-09-01T01:14:19Z</time>
  <course>345.1</course>
  <speed>0.99</speed>
  <fix>3d</fix>
</trkpt>
<trkpt lat="33.8101959" lon="-118.3955434">
  <ele>-25.017</ele>
  <time>2026-09-01T01:14:19Z</time>
  <course>75.1</course>
  <speed>1.0186756107809787</speed>
  <fix>3d</fix>
</trkpt>
<trkpt lat="33.8101937" lon="-118.3955428">
  <ele>-24.4</ele>
  <time>2026-09-01T01:14:19Z</time>
  <course>345.1</course>
  <speed>0.99</speed>
  <fix>3d</fix>
</trkpt>
<trkpt lat="33.8101968" lon="-118.3955436">
  <ele>-25.018</ele>
  <time>2026-09-01T01:14:19Z</time>
  <course>75.21</course>
  <speed>1.0186756107809787</speed>
  <fix>3d</fix>
</trkpt>
<trkpt lat="33.8101954" lon="-118.3955434">
  <ele>-24.41</ele>
  <time>2026-09-01T01:14:19Z</time>
  <course>345.27</course>
  <speed>0.99</speed>
  <fix>3d</fix>
</trkpt>
<trkpt lat="33.8101977" lon="-118.3955439">
  <ele>-25.016</ele>
  <time>2026-09-01T01:14:19Z</time>
  <course>75.33</course>
  <speed>1.0186756107809787</speed>
  <fix>3d</fix>
</trkpt>
<trkpt lat="33.8101954" lon="-118.3955434">
  <ele>-24.41</ele>
  <time>2026-09-01T01:14:19Z</time>
  <course>345.27</course>
  <speed>0.99</speed>
  <fix>3d</fix>
</trkpt>
<trkpt lat="33.8101985" lon="-118.3955442">
  <ele>-25.014</ele>
  <time>2026-09-01T01:14:19Z</time>
  <course>75.44</course>
  <speed>1.016366075781753</speed>
  <fix>3d</fix>
</trkpt>
<trkpt lat="33.8101972" lon="-118.3955439">
  <ele>-24.4</ele>
  <time>2026-09-01T01:14:19Z</time>
  <course>345.45</course>
  <speed>0.99</speed>
  <fix>3d</fix>
</trkpt>
<trkpt lat="33.8101994" lon="-118.3955444">
  <ele>-25.011</ele>
  <time>2026-09-01T01:14:19Z</time>
  <course>75.55</course>
  <speed>1.016366075781753</speed>
  <fix>3d</fix>
</trkpt>
<trkpt lat="33.8101972" lon="-118.3955439">
  <ele>-24.4</ele>
  <time>2026-09-01T01:14:19Z</time>
  <course>345.45</course>
  <speed>0.99</speed>
  <fix>3d</fix>
</trkpt>
<trkpt lat="33.8102003" lon="-118.3955447">
  <ele>-25.011</ele>
  <time>2026-09-01T01:14:19Z</time>
  <course>75.67</course>
  <speed>1.016366075781753</speed>
  <fix>3d</fix>
</trkpt>
<trkpt lat="33.8101989" lon="-118.3955445">
  <ele>-24.4</ele>
  <time>2026-09-01T01:14:19Z</time>
  <course>345.63</course>
  <speed>0.99</speed>
  <fix>3d</fix>
</trkpt>
<trkpt lat="33.8102011" lon="-118.395545">
  <ele>-25.011</ele>
  <time>2026-09-01T01:14:19Z</time>
  <course>75.78</course>
  <speed>1.016366075781753</speed>
  <fix>3d</fix>
</trkpt>
<trkpt lat="33.8101989" lon="-118.3955445">
  <ele>-24.4</ele>
  <time>2026-09-01T01:14:19Z</time>
  <course>345.63</course>
  <speed>0.99</speed>
  <fix>3d</fix>
</trkpt>
<trkpt lat="33.810202" lon="-118.3955452">
  <ele>-25.011</ele>
  <time>2026-09-01T01:14:19Z</time>
  <course>75.9</course>
  <speed>1.016366075781753</speed>
  <fix>3d</fix>
</trkpt>
<trkpt lat="33.8102006" lon="-118.395545">
  <ele>-24.4</ele>
  <time>2026-09-01T01:14:19Z</time>
  <course>345.85</course>
  <speed>0.99</speed>
  <fix>3d</fix>
</trkpt>
<trkpt lat="33.8102029" lon="-118.3955455">
  <ele>-25.011</ele>
  <time>2026-09-01T01:14:19Z</time>
  <course>76.01</course>
  <speed>1.0141498903022177</speed>
  <fix>3d</fix>
</trkpt>
<trkpt lat="33.8102006" lon="-118.395545">
  <ele>-24.4</ele>
  <time>2026-09-01T01:14:19Z</time>
  <course>345.85</course>
  <speed>0.99</speed>
  <fix>3d</fix>
</trkpt>
<trkpt lat="33.8102038" lon="-118.3955457">
  <ele>-25.011</ele>
  <time>2026-09-01T01:14:19Z</time>
  <course>76.13</course>
  <speed>1.0141498903022177</speed>
  <fix>3d</fix>
</trkpt>
<trkpt lat="33.8102024" lon="-118.3955455">
  <ele>-24.4</ele>
  <time>2026-09-01T01:14:19Z</time>
  <course>346.11</course>
  <speed>1.0</speed>
  <fix>3d</fix>
</trkpt>
<trkpt lat="33.8102046" lon="-118.395546">
  <ele>-25.012</ele>
  <time>2026-09-01T01:14:19Z</time>
  <course>76.24</course>
  <speed>1.0141498903022177</speed>
  <fix>3d</fix>
</trkpt>
<trkpt lat="33.8102024" lon="-118.3955455">
  <ele>-24.4</ele>
  <time>2026-09-01T01:14:19Z</time>
  <course>346.11</course>
  <speed>1.0</speed>
  <fix>3d</fix>
</trkpt>
<trkpt lat="33.8102055" lon="-118.3955463">
  <ele>-25.013</ele>
  <time>2026-09-01T01:14:19Z</time>
  <course>76.36</course>
  <speed>1.0141498903022177</speed>
  <fix>3d</fix>
</trkpt>
<trkpt lat="33.8102042" lon="-118.395546">
  <ele>-24.4</ele>
  <time>2026-09-01T01:14:19Z</time>
  <course>346.35</course>
  <speed>1.0</speed>
  <fix>3d</fix>
</trkpt>
<trkpt lat="33.8102064" lon="-118.3955465">
  <ele>-25.014</ele>
  <time>2026-09-01T01:14:19Z</time>
  <course>76.47</course>
  <speed>1.0141498903022177</speed>
  <fix>3d</fix>
</trkpt>
<trkpt lat="33.8102042" lon="-118.395546">
  <ele>-24.4</ele>
  <time>2026-09-01T01:14:19Z</time>
  <course>346.35</course>
  <speed>1.0</speed>
  <fix>3d</fix>
</trkpt>
<trkpt lat="33.8102073" lon="-118.3955467">
  <ele>-25.014</ele>
  <time>2026-09-01T01:14:19Z</time>
  <course>76.58</course>
  <speed>1.0141498903022177</speed>
  <fix>3d</fix>
</trkpt>
<trkpt lat="33.8102059" lon="-118.3955465">
  <ele>-24.41</ele>
  <time>2026-09-01T01:14:19Z</time>
  <course>346.54</course>
  <speed>1.0</speed>
  <fix>3d</fix>
</trkpt>
<trkpt lat="33.8102081" lon="-118.395547">
  <ele>-25.014</ele>
  <time>2026-09-01T01:14:19Z</time>
  <course>76.7</course>
  <speed>1.01202766760598</speed>
  <fix>3d</fix>
</trkpt>
<trkpt lat="33.8102059" lon="-118.3955465">
  <ele>-24.41</ele>
  <time>2026-09-01T01:14:19Z</time>
  <course>346.54</course>
  <speed>1.0</speed>
  <fix>3d</fix>
</trkpt>
<trkpt lat="33.810209" lon="-118.3955472">
  <ele>-25.015</ele>
  <time>2026-09-01T01:14:19Z</time>
  <course>76.81</course>
  <speed>1.01202766760598</speed>
  <fix>3d</fix>
</trkpt>
<trkpt lat="33.8102076" lon="-118.395547">
  <ele>-24.41</ele>
  <time>2026-09-01T01:14:19Z</time>
  <course>346.72</course>
  <speed>0.99</speed>
  <fix>3d</fix>
</trkpt>
<trkpt lat="33.8102099" lon="-118.3955475">
  <ele>-25.015</ele>
  <time>2026-09-01T01:14:19Z</time>
  <course>76.92</course>
  <speed>1.0218121158021176</speed>
  <fix>3d</fix>
</trkpt>
<trkpt lat="33.8102076" lon="-118.395547">
  <ele>-24.41</ele>
  <time>2026-09-01T01:14:19Z</time>
  <course>346.72</course>
  <speed>0.99</speed>
  <fix>3d</fix>
</trkpt>
<trkpt lat="33.8102108" lon="-118.3955477">
  <ele>-25.015</ele>
  <time>2026-09-01T01:14:19Z</time>
  <course>77.04</course>
  <speed>1.0218121158021176</speed>
  <fix>3d</fix>
</trkpt>
<trkpt lat="33.8102094" lon="-118.3955475">
  <ele>-24.41</ele>
  <time>2026-09-01T01:14:19Z</time>
  <course>346.91</course>
  <speed>0.99</speed>
  <fix>3d</fix>
</trkpt>
<trkpt lat="33.8102116" lon="-118.395548">
  <ele>-25.016</ele>
  <time>2026-09-01T01:14:19Z</time>
  <course>77.16</course>
  <speed>1.0218121158021176</speed>
  <fix>3d</fix>
</trkpt>
<trkpt lat="33.8102094" lon="-118.3955475">
  <ele>-24.41</ele>
  <time>2026-09-01T01:14:19Z</time>
  <course>346.91</course>
  <speed>0.99</speed>
  <fix>3d</fix>
</trkpt>
<trkpt lat="33.8102125" lon="-118.3955482">
  <ele>-25.016</ele>
  <time>2026-09-01T01:14:19Z</time>
  <course>77.27</course>
  <speed>1.019803902718557</speed>
  <fix>3d</fix>
</trkpt>
<trkpt lat="33.8102112" lon="-118.395548">
  <ele>-24.41</ele>
  <time>2026-09-01T01:14:19Z</time>
  <course>347.12</course>
  <speed>1.0</speed>
  <fix>3d</fix>
</trkpt>
<trkpt lat="33.8102134" lon="-118.3955484">
  <ele>-25.016</ele>
  <time>2026-09-01T01:14:19Z</time>
  <course>77.39</course>
  <speed>1.019803902718557</speed>
  <fix>3d</fix>
</trkpt>
<trkpt lat="33.8102112" lon="-118.395548">
  <ele>-24.41</ele>
  <time>2026-09-01T01:14:19Z</time>
  <course>347.12</course>
  <speed>1.0</speed>
  <fix>3d</fix>
</trkpt>
<trkpt lat="33.8102143" lon="-118.3955487">
  <ele>-25.016</ele>
  <time>2026-09-01T01:14:19Z</time>
  <course>77.5</course>
  <speed>1.019803902718557</speed>
  <fix>3d</fix>
</trkpt>
<trkpt lat="33.8102129" lon="-118.3955485">
  <ele>-24.41</ele>
  <time>2026-09-01T01:14:19Z</time>
  <course>347.35</course>
  <speed>0.99</speed>
  <fix>3d</fix>
</trkpt>
<trkpt lat="33.8102152" lon="-118.3955489">
  <ele>-25.017</ele>
  <time>2026-09-01T01:14:19Z</time>
  <course>77.62</course>
  <speed>1.019803902718557</speed>
  <fix>3d</fix>
</trkpt>
<trkpt lat="33.8102129" lon="-118.3955485">
  <ele>-24.41</ele>
  <time>2026-09-01T01:14:19Z</time>
  <course>347.35</course>
  <speed>0.99</speed>
  <fix>3d</fix>
</trkpt>
<trkpt lat="33.810216" lon="-118.3955491">
  <ele>-25.017</ele>
  <time>2026-09-01T01:14:19Z</time>
  <course>77.73</course>
  <speed>1.0178899744078433</speed>
  <fix>3d</fix>
</trkpt>
<trkpt lat="33.8102147" lon="-118.395549">
  <ele>-24.4</ele>
  <time>2026-09-01T01:14:19Z</time>
  <course>347.61</course>
  <speed>0.99</speed>
  <fix>3d</fix>
</trkpt>
<trkpt lat="33.8102169" lon="-118.3955493">
  <ele>-25.016</ele>
  <time>2026-09-01T01:14:19Z</time>
  <course>77.84</course>
  <speed>1.0178899744078433</speed>
  <fix>3d</fix>
</trkpt>
<trkpt lat="33.8102147" lon="-118.395549">
  <ele>-24.4</ele>
  <time>2026-09-01T01:14:19Z</time>
  <course>347.61</course>
  <speed>0.99</speed>
  <fix>3d</fix>
</trkpt>
<trkpt lat="33.8102178" lon="-118.3955496">
  <ele>-25.014</ele>
  <time>2026-09-01T01:14:19Z</time>
  <course>77.96</course>
  <speed>1.0178899744078433</speed>
  <fix>3d</fix>
</trkpt>
<trkpt lat="33.8102164" lon="-118.3955494">
  <ele>-24.4</ele>
  <time>2026-09-01T01:14:19Z</time>
  <course>347.9</course>
  <speed>0.99</speed>
  <fix>3d</fix>
</trkpt>
<trkpt lat="33.8102187" lon="-118.3955498">
  <ele>-25.013</ele>
  <time>2026-09-01T01:14:19Z</time>
  <course>78.07</course>
  <speed>1.0178899744078433</speed>
  <fix>3d</fix>
</trkpt>
<trkpt lat="33.8102164" lon="-118.3955494">
  <ele>-24.4</ele>
  <time>2026-09-01T01:14:19Z</time>
  <course>347.9</course>
  <speed>0.99</speed>
  <fix>3d</fix>
</trkpt>
<trkpt lat="33.8102196" lon="-118.39555">
  <ele>-25.012</ele>
  <time>2026-09-01T01:14:19Z</time>
  <course>78.19</course>
  <speed>1.0178899744078433</speed>
  <fix>3d</fix>
</trkpt>
<trkpt lat="33.8102181" lon="-118.3955499">
  <ele>-24.4</ele>
  <time>2026-09-01T01:14:19Z</time>
  <course>348.18</course>
  <speed>0.99</speed>
  <fix>3d</fix>
</trkpt>
<trkpt lat="33.8102204" lon="-118.3955502">
  <ele>-25.01</ele>
  <time>2026-09-01T01:14:19Z</time>
  <course>78.3</course>
  <speed>1.016070863670443</speed>
  <fix>3d</fix>
</trkpt>
<trkpt lat="33.8102181" lon="-118.3955499">
  <ele>-24.4</ele>
  <time>2026-09-01T01:14:19Z</time>
  <course>348.18</course>
  <speed>0.99</speed>
  <fix>3d</fix>
</trkpt>
<trkpt lat="33.8102213" lon="-118.3955504">
  <ele>-25.009</ele>
  <time>2026-09-01T01:14:19Z</time>
  <course>78.42</course>
  <speed>1.016070863670443</speed>
  <fix>3d</fix>
</trkpt>
<trkpt lat="33.8102199" lon="-118.3955503">
  <ele>-24.4</ele>
  <time>2026-09-01T01:14:19Z</time>
  <course>348.44</course>
  <speed>0.99</speed>
  <fix>3d</fix>
</trkpt>
<trkpt lat="33.8102222" lon="-118.3955507">
  <ele>-25.008</ele>
  <time>2026-09-01T01:14:19Z</time>
  <course>78.53</course>
  <speed>1.016070863670443</speed>
  <fix>3d</fix>
</trkpt>
<trkpt lat="33.8102199" lon="-118.3955503">
  <ele>-24.4</ele>
  <time>2026-09-01T01:14:19Z</time>
  <course>348.44</course>
  <speed>0.99</speed>
  <fix>3d</fix>
</trkpt>
<trkpt lat="33.8102231" lon="-118.3955509">
  <ele>-25.007</ele>
  <time>2026-09-01T01:14:19Z</time>
  <course>78.65</course>
  <speed>1.016070863670443</speed>
  <fix>3d</fix>
</trkpt>
<trkpt lat="33.8102217" lon="-118.3955508">
  <ele>-24.4</ele>
  <time>2026-09-01T01:14:19Z</time>
  <course>348.71</course>
  <speed>0.99</speed>
  <fix>3d</fix>
</trkpt>
<trkpt lat="33.810224" lon="-118.3955511">
  <ele>-25.007</ele>
  <time>2026-09-01T01:14:19Z</time>
  <course>78.76</course>
  <speed>1.014347080638575</speed>
  <fix>3d</fix>
</trkpt>
<trkpt lat="33.8102217" lon="-118.3955508">
  <ele>-24.4</ele>
  <time>2026-09-01T01:14:19Z</time>
  <course>348.71</course>
  <speed>0.99</speed>
  <fix>3d</fix>
</trkpt>
<trkpt lat="33.8102248" lon="-118.3955513">
  <ele>-25.008</ele>
  <time>2026-09-01T01:14:19Z</time>
  <course>78.88</course>
  <speed>1.014347080638575</speed>
  <fix>3d</fix>
</trkpt>
<trkpt lat="33.8102234" lon="-118.3955512">
  <ele>-24.4</ele>
  <time>2026-09-01T01:14:19Z</time>
  <course>348.98</course>
  <speed>0.99</speed>
  <fix>3d</fix>
</trkpt>
<trkpt lat="33.8102257" lon="-118.3955515">
  <ele>-25.011</ele>
  <time>2026-09-01T01:14:19Z</time>
  <course>78.99</course>
  <speed>1.014347080638575</speed>
  <fix>3d</fix>
</trkpt>
<trkpt lat="33.8102234" lon="-118.3955512">
  <ele>-24.4</ele>
  <time>2026-09-01T01:14:19Z</time>
  <course>348.98</course>
  <speed>0.99</speed>
  <fix>3d</fix>
</trkpt>
<trkpt lat="33.8102266" lon="-118.3955517">
  <ele>-25.014</ele>
  <time>2026-09-01T01:14:19Z</time>
  <course>79.11</course>
  <speed>1.014347080638575</speed>
  <fix>3d</fix>
</trkpt>
<trkpt lat="33.8102252" lon="-118.3955516">
  <ele>-24.4</ele>
  <time>2026-09-01T01:14:19Z</time>
  <course>349.26</course>
  <speed>0.99</speed>
  <fix>3d</fix>
</trkpt>
<trkpt lat="33.8102275" lon="-118.3955519">
  <ele>-25.017</ele>
  <time>2026-09-01T01:14:19Z</time>
  <course>79.22</course>
  <speed>1.0225947388873073</speed>
  <fix>3d</fix>
</trkpt>
<trkpt lat="33.8102252" lon="-118.3955516">
  <ele>-24.4</ele>
  <time>2026-09-01T01:14:19Z</time>
  <course>349.26</course>
  <speed>0.99</speed>
  <fix>3d</fix>
</trkpt>
<trkpt lat="33.8102284" lon="-118.3955521">
  <ele>-25.019</ele>
  <time>2026-09-01T01:14:19Z</time>
  <course>79.33</course>
  <speed>1.0225947388873073</speed>
  <fix>3d</fix>
</trkpt>
<trkpt lat="33.810227" lon="-118.395552">
  <ele>-24.41</ele>
  <time>2026-09-01T01:14:19Z</time>
  <course>349.53</course>
  <speed>0.99</speed>
  <fix>3d</fix>
</trkpt>
<trkpt lat="33.8102293" lon="-118.3955523">
  <ele>-25.02</ele>
  <time>2026-09-01T01:14:19Z</time>
  <course>79.45</course>
  <speed>1.0225947388873073</speed>
  <fix>3d</fix>
</trkpt>
<trkpt lat="33.810227" lon="-118.395552">
  <ele>-24.41</ele>
  <time>2026-09-01T01:14:19Z</time>
  <course>349.53</course>
  <speed>0.99</speed>
  <fix>3d</fix>
</trkpt>
<trkpt lat="33.8102302" lon="-118.3955525">
  <ele>-25.021</ele>
  <time>2026-09-01T01:14:19Z</time>
  <course>79.57</course>
  <speed>1.0225947388873073</speed>
  <fix>3d</fix>
</trkpt>
<trkpt lat="33.8102288" lon="-118.3955523">
  <ele>-24.41</ele>
  <time>2026-09-01T01:14:19Z</time>
  <course>349.77</course>
  <speed>0.99</speed>
  <fix>3d</fix>
</trkpt>
<trkpt lat="33.810231" lon="-118.3955527">
  <ele>-25.021</ele>
  <time>2026-09-01T01:14:19Z</time>
  <course>79.68</course>
  <speed>1.0225947388873073</speed>
  <fix>3d</fix>
</trkpt>
<trkpt lat="33.8102288" lon="-118.3955523">
  <ele>-24.41</ele>
  <time>2026-09-01T01:14:19Z</time>
  <course>349.77</course>
  <speed>0.99</speed>
  <fix>3d</fix>
</trkpt>
<trkpt lat="33.8102319" lon="-118.3955529">
  <ele>-25.021</ele>
  <time>2026-09-01T01:14:19Z</time>
  <course>79.79</course>
  <speed>1.0225947388873073</speed>
  <fix>3d</fix>
</trkpt>
<trkpt lat="33.8102305" lon="-118.3955527">
  <ele>-24.41</ele>
  <time>2026-09-01T01:14:19Z</time>
  <course>349.96</course>
  <speed>0.99</speed>
  <fix>3d</fix>
</trkpt>
<trkpt lat="33.8102328" lon="-118.395553">
  <ele>-25.02</ele>
  <time>2026-09-01T01:14:19Z</time>
  <course>79.91</course>
  <speed>1.0225947388873073</speed>
  <fix>3d</fix>
</trkpt>
<trkpt lat="33.8102305" lon="-118.3955527">
  <ele>-24.41</ele>
  <time>2026-09-01T01:14:19Z</time>
  <course>349.96</course>
  <speed>0.99</speed>
  <fix>3d</fix>
</trkpt>
<trkpt lat="33.8102337" lon="-118.3955532">
  <ele>-25.017</ele>
  <time>2026-09-01T01:14:19Z</time>
  <course>80.02</course>
  <speed>1.021077861869505</speed>
  <fix>3d</fix>
</trkpt>
<trkpt lat="33.8102322" lon="-118.3955531">
  <ele>-24.41</ele>
  <time>2026-09-01T01:14:19Z</time>
  <course>350.1</course>
  <speed>0.99</speed>
  <fix>3d</fix>
</trkpt>
<trkpt lat="33.8102346" lon="-118.3955534">
  <ele>-25.013</ele>
  <time>2026-09-01T01:14:19Z</time>
  <course>80.14</course>
  <speed>1.021077861869505</speed>
  <fix>3d</fix>
</trkpt>
<trkpt lat="33.8102322" lon="-118.3955531">
  <ele>-24.41</ele>
  <time>2026-09-01T01:14:19Z</time>
  <course>350.1</course>
  <speed>0.99</speed>
  <fix>3d</fix>
</trkpt>
<trkpt lat="33.8102355" lon="-118.3955536">
  <ele>-25.01</ele>
  <time>2026-09-01T01:14:19Z</time>
  <course>80.25</course>
  <speed>1.021077861869505</speed>
  <fix>3d</fix>
</trkpt>
<trkpt lat="33.8102341" lon="-118.3955535">
  <ele>-24.4</ele>
  <time>2026-09-01T01:14:19Z</time>
  <course>350.25</course>
  <speed>0.99</speed>
  <fix>3d</fix>
</trkpt>
<trkpt lat="33.8102364" lon="-118.3955538">
  <ele>-25.009</ele>
  <time>2026-09-01T01:14:19Z</time>
  <course>80.37</course>
  <speed>1.021077861869505</speed>
  <fix>3d</fix>
</trkpt>
<trkpt lat="33.8102341" lon="-118.3955535">
  <ele>-24.4</ele>
  <time>2026-09-01T01:14:19Z</time>
  <course>350.25</course>
  <speed>0.99</speed>
  <fix>3d</fix>
</trkpt>
<trkpt lat="33.8102372" lon="-118.3955539">
  <ele>-25.008</ele>
  <time>2026-09-01T01:14:19Z</time>
  <course>80.48</course>
  <speed>1.021077861869505</speed>
  <fix>3d</fix>
</trkpt>
<trkpt lat="33.8102358" lon="-118.3955538">
  <ele>-24.4</ele>
  <time>2026-09-01T01:14:19Z</time>
  <course>350.46</course>
  <speed>0.99</speed>
  <fix>3d</fix>
</trkpt>
<trkpt lat="33.8102381" lon="-118.3955541">
  <ele>-25.008</ele>
  <time>2026-09-01T01:14:19Z</time>
  <course>80.6</course>
  <speed>1.0196568050084303</speed>
  <fix>3d</fix>
</trkpt>
<trkpt lat="33.8102358" lon="-118.3955538">
  <ele>-24.4</ele>
  <time>2026-09-01T01:14:19Z</time>
  <course>350.46</course>
  <speed>0.99</speed>
  <fix>3d</fix>
</trkpt>
<trkpt lat="33.810239" lon="-118.3955543">
  <ele>-25.009</ele>
  <time>2026-09-01T01:14:19Z</time>
  <course>80.71</course>
  <speed>1.0196568050084303</speed>
  <fix>3d</fix>
</trkpt>
<trkpt lat="33.8102375" lon="-118.3955542">
  <ele>-24.4</ele>
  <time>2026-09-01T01:14:19Z</time>
  <course>350.68</course>
  <speed>0.99</speed>
  <fix>3d</fix>
</trkpt>
<trkpt lat="33.8102399" lon="-118.3955544">
  <ele>-25.009</ele>
  <time>2026-09-01T01:14:19Z</time>
  <course>80.83</course>
  <speed>1.0196568050084303</speed>
  <fix>3d</fix>
</trkpt>
<trkpt lat="33.8102375" lon="-118.3955542">
  <ele>-24.4</ele>
  <time>2026-09-01T01:14:19Z</time>
  <course>350.68</course>
  <speed>0.99</speed>
  <fix>3d</fix>
</trkpt>
<trkpt lat="33.8102408" lon="-118.3955546">
  <ele>-25.009</ele>
  <time>2026-09-01T01:14:19Z</time>
  <course>80.94</course>
  <speed>1.0196568050084303</speed>
  <fix>3d</fix>
</trkpt>
<trkpt lat="33.8102394" lon="-118.3955545">
  <ele>-24.4</ele>
  <time>2026-09-01T01:14:19Z</time>
  <course>350.89</course>
  <speed>1.0</speed>
  <fix>3d</fix>
</trkpt>
<trkpt lat="33.8102417" lon="-118.3955548">
  <ele>-25.009</ele>
  <time>2026-09-01T01:14:19Z</time>
  <course>81.06</course>
  <speed>1.0196568050084303</speed>
  <fix>3d</fix>
</trkpt>
<trkpt lat="33.8102394" lon="-118.3955545">
  <ele>-24.4</ele>
  <time>2026-09-01T01:14:19Z</time>
  <course>350.89</course>
  <speed>1.0</speed>
  <fix>3d</fix>
</trkpt>
<trkpt lat="33.8102426" lon="-118.3955549">
  <ele>-25.011</ele>
  <time>2026-09-01T01:14:19Z</time>
  <course>81.17</course>
  <speed>1.0183319694480775</speed>
  <fix>3d</fix>
</trkpt>
<trkpt lat="33.8102411" lon="-118.3955549">
  <ele>-24.4</ele>
  <time>2026-09-01T01:14:19Z</time>
  <course>351.12</course>
  <speed>1.0</speed>
  <fix>3d</fix>
</trkpt>
<trkpt lat="33.8102435" lon="-118.3955551">
  <ele>-25.012</ele>
  <time>2026-09-01T01:14:19Z</time>
  <course>81.29</course>
  <speed>1.0183319694480775</speed>
  <fix>3d</fix>
</trkpt>
<trkpt lat="33.8102411" lon="-118.3955549">
  <ele>-24.4</ele>
  <time>2026-09-01T01:14:19Z</time>
  <course>351.12</course>
  <speed>1.0</speed>
  <fix>3d</fix>
</trkpt>
<trkpt lat="33.8102443" lon="-118.3955553">
  <ele>-25.013</ele>
  <time>2026-09-01T01:14:19Z</time>
  <course>81.4</course>
  <speed>1.0183319694480775</speed>
  <fix>3d</fix>
</trkpt>
<trkpt lat="33.8102428" lon="-118.3955552">
  <ele>-24.41</ele>
  <time>2026-09-01T01:14:19Z</time>
  <course>351.37</course>
  <speed>0.99</speed>
  <fix>3d</fix>
</trkpt>
<trkpt lat="33.8102452" lon="-118.3955554">
  <ele>-25.014</ele>
  <time>2026-09-01T01:14:19Z</time>
  <course>81.51</course>
  <speed>1.0183319694480775</speed>
  <fix>3d</fix>
</trkpt>
<trkpt lat="33.8102428" lon="-118.3955552">
  <ele>-24.41</ele>
  <time>2026-09-01T01:14:19Z</time>
  <course>351.37</course>
  <speed>0.99</speed>
  <fix>3d</fix>
</trkpt>
<trkpt lat="33.8102461" lon="-118.3955556">
  <ele>-25.015</ele>
  <time>2026-09-01T01:14:19Z</time>
  <course>81.63</course>
  <speed>1.0171037311896953</speed>
  <fix>3d</fix>
</trkpt>
<trkpt lat="33.8102447" lon="-118.3955555">
  <ele>-24.41</ele>
  <time>2026-09-01T01:14:19Z</time>
  <course>351.64</course>
  <speed>1.0</speed>
  <fix>3d</fix>
</trkpt>
<trkpt lat="33.810247" lon="-118.3955557">
  <ele>-25.015</ele>
  <time>2026-09-01T01:14:19Z</time>
  <course>81.74</course>
  <speed>1.0171037311896953</speed>
  <fix>3d</fix>
</trkpt>
<trkpt lat="33.8102447" lon="-118.3955555">
  <ele>-24.41</ele>
  <time>2026-09-01T01:14:19Z</time>
  <course>351.64</course>
  <speed>1.0</speed>
  <fix>3d</fix>
</trkpt>
<trkpt lat="33.8102479" lon="-118.3955559">
  <ele>-25.016</ele>
  <time>2026-09-01T01:14:19Z</time>
  <course>81.86</course>
  <speed>1.0171037311896953</speed>
  <fix>3d</fix>
</trkpt>
<trkpt lat="33.8102465" lon="-118.3955558">
  <ele>-24.41</ele>
  <time>2026-09-01T01:14:19Z</time>
  <course>351.89</course>
  <speed>1.0</speed>
  <fix>3d</fix>
</trkpt>
<trkpt lat="33.8102488" lon="-118.395556">
  <ele>-25.018</ele>
  <time>2026-09-01T01:14:19Z</time>
  <course>81.97</course>
  <speed>1.0171037311896953</speed>
  <fix>3d</fix>
</trkpt>
<trkpt lat="33.8102465" lon="-118.3955558">
  <ele>-24.41</ele>
  <time>2026-09-01T01:14:19Z</time>
  <course>351.89</course>
  <speed>1.0</speed>
  <fix>3d</fix>
</trkpt>
<trkpt lat="33.8102497" lon="-118.3955562">
  <ele>-25.018</ele>
  <time>2026-09-01T01:14:19Z</time>
  <course>82.09</course>
  <speed>1.0171037311896953</speed>
  <fix>3d</fix>
</trkpt>
<trkpt lat="33.8102483" lon="-118.3955561">
  <ele>-24.41</ele>
  <time>2026-09-01T01:14:19Z</time>
  <course>352.08</course>
  <speed>1.0</speed>
  <fix>3d</fix>
</trkpt>
<trkpt lat="33.8102506" lon="-118.3955563">
  <ele>-25.017</ele>
  <time>2026-09-01T01:14:19Z</time>
  <course>82.2</course>
  <speed>1.0171037311896953</speed>
  <fix>3d</fix>
</trkpt>
<trkpt lat="33.8102483" lon="-118.3955561">
  <ele>-24.41</ele>
  <time>2026-09-01T01:14:19Z</time>
  <course>352.08</course>
  <speed>1.0</speed>
  <fix>3d</fix>
</trkpt>
<trkpt lat="33.8102515" lon="-118.3955565">
  <ele>-25.015</ele>
  <time>2026-09-01T01:14:19Z</time>
  <course>82.32</course>
  <speed>1.0159724405711013</speed>
  <fix>3d</fix>
</trkpt>
<trkpt lat="33.81025" lon="-118.3955564">
  <ele>-24.41</ele>
  <time>2026-09-01T01:14:19Z</time>
  <course>352.26</course>
  <speed>1.0</speed>
  <fix>3d</fix>
</trkpt>
<trkpt lat="33.8102524" lon="-118.3955566">
  <ele>-25.012</ele>
  <time>2026-09-01T01:14:19Z</time>
  <course>82.43</course>
  <speed>1.0159724405711013</speed>
  <fix>3d</fix>
</trkpt>
<trkpt lat="33.81025" lon="-118.3955564">
  <ele>-24.41</ele>
  <time>2026-09-01T01:14:19Z</time>
  <course>352.26</course>
  <speed>1.0</speed>
  <fix>3d</fix>
</trkpt>
<trkpt lat="33.8102533" lon="-118.3955567">
  <ele>-25.01</ele>
  <time>2026-09-01T01:14:19Z</time>
  <course>82.55</course>
  <speed>1.0159724405711013</speed>
  <fix>3d</fix>
</trkpt>
<trkpt lat="33.8102518" lon="-118.3955567">
  <ele>-24.41</ele>
  <time>2026-09-01T01:14:19Z</time>
  <course>352.45</course>
  <speed>0.99</speed>
  <fix>3d</fix>
</trkpt>
<trkpt lat="33.8102541" lon="-118.3955569">
  <ele>-25.01</ele>
  <time>2026-09-01T01:14:19Z</time>
  <course>82.66</course>
  <speed>1.0159724405711013</speed>
  <fix>3d</fix>
</trkpt>
<trkpt lat="33.8102518" lon="-118.3955567">
  <ele>-24.41</ele>
  <time>2026-09-01T01:14:19Z</time>
  <course>352.45</course>
  <speed>0.99</speed>
  <fix>3d</fix>
</trkpt>
<trkpt lat="33.810255" lon="-118.395557">
  <ele>-25.01</ele>
  <time>2026-09-01T01:14:19Z</time>
  <course>82.78</course>
  <speed>1.0159724405711013</speed>
  <fix>3d</fix>
</trkpt>
<trkpt lat="33.8102535" lon="-118.395557">
  <ele>-24.41</ele>
  <time>2026-09-01T01:14:19Z</time>
  <course>352.67</course>
  <speed>0.99</speed>
  <fix>3d</fix>
</trkpt>
<trkpt lat="33.8102559" lon="-118.3955571">
  <ele>-25.011</ele>
  <time>2026-09-01T01:14:19Z</time>
  <course>82.89</course>
  <speed>1.0248902380255165</speed>
  <fix>3d</fix>
</trkpt>
<trkpt lat="33.8102535" lon="-118.395557">
  <ele>-24.41</ele>
  <time>2026-09-01T01:14:19Z</time>
  <course>352.67</course>
  <speed>0.99</speed>
  <fix>3d</fix>
</trkpt>
<trkpt lat="33.8102568" lon="-118.3955573">
  <ele>-25.012</ele>
  <time>2026-09-01T01:14:19Z</time>
  <course>83.0</course>
  <speed>1.0248902380255165</speed>
  <fix>3d</fix>
</trkpt>
<trkpt lat="33.8102554" lon="-118.3955573">
  <ele>-24.41</ele>
  <time>2026-09-01T01:14:19Z</time>
  <course>352.94</course>
  <speed>1.0</speed>
  <fix>3d</fix>
</trkpt>
<trkpt lat="33.8102577" lon="-118.3955574">
  <ele>-25.015</ele>
  <time>2026-09-01T01:14:19Z</time>
  <course>83.12</course>
  <speed>1.0248902380255165</speed>
  <fix>3d</fix>
</trkpt>
<trkpt lat="33.8102554" lon="-118.3955573">
  <ele>-24.41</ele>
  <time>2026-09-01T01:14:19Z</time>
  <course>352.94</course>
  <speed>1.0</speed>
  <fix>3d</fix>
</trkpt>
<trkpt lat="33.8102586" lon="-118.3955575">
  <ele>-25.016</ele>
  <time>2026-09-01T01:14:19Z</time>
  <course>83.23</course>
  <speed>1.0248902380255165</speed>
  <fix>3d</fix>
</trkpt>
<trkpt lat="33.8102571" lon="-118.3955575">
  <ele>-24.41</ele>
  <time>2026-09-01T01:14:19Z</time>
  <course>353.23</course>
  <speed>1.0</speed>
  <fix>3d</fix>
</trkpt>
<trkpt lat="33.8102595" lon="-118.3955576">
  <ele>-25.016</ele>
  <time>2026-09-01T01:14:19Z</time>
  <course>83.35</course>
  <speed>1.0239628899525608</speed>
  <fix>3d</fix>
</trkpt>
<trkpt lat="33.8102571" lon="-118.3955575">
  <ele>-24.41</ele>
  <time>2026-09-01T01:14:19Z</time>
  <course>353.23</course>
  <speed>1.0</speed>
  <fix>3d</fix>
</trkpt>
<trkpt lat="33.8102604" lon="-118.3955578">
  <ele>-25.017</ele>
  <time>2026-09-01T01:14:19Z</time>
  <course>83.46</course>
  <speed>1.0239628899525608</speed>
  <fix>3d</fix>
</trkpt>
<trkpt lat="33.810259" lon="-118.3955578">
  <ele>-24.41</ele>
  <time>2026-09-01T01:14:19Z</time>
  <course>353.49</course>
  <speed>1.0</speed>
  <fix>3d</fix>
</trkpt>
<trkpt lat="33.8102613" lon="-118.3955579">
  <ele>-25.017</ele>
  <time>2026-09-01T01:14:19Z</time>
  <course>83.58</course>
  <speed>1.0239628899525608</speed>
  <fix>3d</fix>
</trkpt>
<trkpt lat="33.810259" lon="-118.3955578">
  <ele>-24.41</ele>
  <time>2026-09-01T01:14:19Z</time>
  <course>353.49</course>
  <speed>1.0</speed>
  <fix>3d</fix>
</trkpt>
<trkpt lat="33.8102622" lon="-118.395558">
  <ele>-25.017</ele>
  <time>2026-09-01T01:14:19Z</time>
  <course>83.69</course>
  <speed>1.0239628899525608</speed>
  <fix>3d</fix>
</trkpt>
<trkpt lat="33.8102607" lon="-118.395558">
  <ele>-24.41</ele>
  <time>2026-09-01T01:14:19Z</time>
  <course>353.72</course>
  <speed>1.0</speed>
  <fix>3d</fix>
</trkpt>
<trkpt lat="33.8102631" lon="-118.3955581">
  <ele>-25.017</ele>
  <time>2026-09-01T01:14:19Z</time>
  <course>83.81</course>
  <speed>1.0239628899525608</speed>
  <fix>3d</fix>
</trkpt>
<trkpt lat="33.8102607" lon="-118.395558">
  <ele>-24.41</ele>
  <time>2026-09-01T01:14:19Z</time>
  <course>353.72</course>
  <speed>1.0</speed>
  <fix>3d</fix>
</trkpt>
<trkpt lat="33.810264" lon="-118.3955582">
  <ele>-25.016</ele>
  <time>2026-09-01T01:14:19Z</time>
  <course>83.92</course>
  <speed>1.0231324449942931</speed>
  <fix>3d</fix>
</trkpt>
<trkpt lat="33.8102624" lon="-118.3955583">
  <ele>-24.41</ele>
  <time>2026-09-01T01:14:19Z</time>
  <course>353.96</course>
  <speed>0.99</speed>
  <fix>3d</fix>
</trkpt>
<trkpt lat="33.8102649" lon="-118.3955583">
  <ele>-25.014</ele>
  <time>2026-09-01T01:14:19Z</time>
  <course>84.03</course>
  <speed>1.0231324449942931</speed>
  <fix>3d</fix>
</trkpt>
<trkpt lat="33.8102624" lon="-118.3955583">
  <ele>-24.41</ele>
  <time>2026-09-01T01:14:19Z</time>
  <course>353.96</course>
  <speed>0.99</speed>
  <fix>3d</fix>
</trkpt>
<trkpt lat="33.8102657" lon="-118.3955584">
  <ele>-25.013</ele>
  <time>2026-09-01T01:14:19Z</time>
  <course>84.15</course>
  <speed>1.0231324449942931</speed>
  <fix>3d</fix>
</trkpt>
<trkpt lat="33.8102643" lon="-118.3955585">
  <ele>-24.41</ele>
  <time>2026-09-01T01:14:19Z</time>
  <course>354.23</course>
  <speed>1.0</speed>
  <fix>3d</fix>
</trkpt>
<trkpt lat="33.8102666" lon="-118.3955586">
  <ele>-25.013</ele>
  <time>2026-09-01T01:14:19Z</time>
  <course>84.26</course>
  <speed>1.0231324449942931</speed>
  <fix>3d</fix>
</trkpt>
<trkpt lat="33.8102643" lon="-118.3955585">
  <ele>-24.41</ele>
  <time>2026-09-01T01:14:19Z</time>
  <course>354.23</course>
  <speed>1.0</speed>
  <fix>3d</fix>
</trkpt>
<trkpt lat="33.8102675" lon="-118.3955587">
  <ele>-25.015</ele>
  <time>2026-09-01T01:14:19Z</time>
  <course>84.38</course>
  <speed>1.022399139279763</speed>
  <fix>3d</fix>
</trkpt>
<trkpt lat="33.810266" lon="-118.3955587">
  <ele>-24.41</ele>
  <time>2026-09-01T01:14:19Z</time>
  <course>354.52</course>
  <speed>1.0</speed>
  <fix>3d</fix>
</trkpt>
<trkpt lat="33.8102684" lon="-118.3955588">
  <ele>-25.017</ele>
  <time>2026-09-01T01:14:19Z</time>
  <course>84.5</course>
  <speed>1.022399139279763</speed>
  <fix>3d</fix>
</trkpt>
<trkpt lat="33.810266" lon="-118.3955587">
  <ele>-24.41</ele>
  <time>2026-09-01T01:14:19Z</time>
  <course>354.52</course>
  <speed>1.0</speed>
  <fix>3d</fix>
</trkpt>
<trkpt lat="33.8102693" lon="-118.3955589">
  <ele>-25.019</ele>
  <time>2026-09-01T01:14:19Z</time>
  <course>84.61</course>
  <speed>1.022399139279763</speed>
  <fix>3d</fix>
</trkpt>
<trkpt lat="33.8102679" lon="-118.3955589">
  <ele>-24.41</ele>
  <time>2026-09-01T01:14:19Z</time>
  <course>354.77</course>
  <speed>1.0</speed>
  <fix>3d</fix>
</trkpt>
<trkpt lat="33.8102702" lon="-118.3955589">
  <ele>-25.02</ele>
  <time>2026-09-01T01:14:19Z</time>
  <course>84.73</course>
  <speed>1.022399139279763</speed>
  <fix>3d</fix>
</trkpt>
<trkpt lat="33.8102679" lon="-118.3955589">
  <ele>-24.41</ele>
  <time>2026-09-01T01:14:19Z</time>
  <course>354.77</course>
  <speed>1.0</speed>
  <fix>3d</fix>
</trkpt>
<trkpt lat="33.8102711" lon="-118.395559">
  <ele>-25.02</ele>
  <time>2026-09-01T01:14:19Z</time>
  <course>84.84</course>
  <speed>1.022399139279763</speed>
  <fix>3d</fix>
</trkpt>
<trkpt lat="33.8102696" lon="-118.395559">
  <ele>-24.41</ele>
  <time>2026-09-01T01:14:19Z</time>
  <course>354.99</course>
  <speed>1.0</speed>
  <fix>3d</fix>
</trkpt>
<trkpt lat="33.810272" lon="-118.3955591">
  <ele>-25.02</ele>
  <time>2026-09-01T01:14:19Z</time>
  <course>84.95</course>
  <speed>1.022399139279763</speed>
  <fix>3d</fix>
</trkpt>
<trkpt lat="33.8102696" lon="-118.395559">
  <ele>-24.41</ele>
  <time>2026-09-01T01:14:19Z</time>
  <course>354.99</course>
  <speed>1.0</speed>
  <fix>3d</fix>
</trkpt>
<trkpt lat="33.8102729" lon="-118.3955592">
  <ele>-25.018</ele>
  <time>2026-09-01T01:14:19Z</time>
  <course>85.07</course>
  <speed>1.0217631819555841</speed>
  <fix>3d</fix>
</trkpt>
<trkpt lat="33.8102715" lon="-118.3955593">
  <ele>-24.4</ele>
  <time>2026-09-01T01:14:19Z</time>
  <course>355.16</course>
  <speed>1.0</speed>
  <fix>3d</fix>
</trkpt>
<trkpt lat="33.8102738" lon="-118.3955593">
  <ele>-25.016</ele>
  <time>2026-09-01T01:14:19Z</time>
  <course>85.18</course>
  <speed>1.0217631819555841</speed>
  <fix>3d</fix>
</trkpt>
<trkpt lat="33.8102715" lon="-118.3955593">
  <ele>-24.4</ele>
  <time>2026-09-01T01:14:19Z</time>
  <course>355.16</course>
  <speed>1.0</speed>
  <fix>3d</fix>
</trkpt>
<trkpt lat="33.8102747" lon="-118.3955594">
  <ele>-25.012</ele>
  <time>2026-09-01T01:14:19Z</time>
  <course>85.29</course>
  <speed>1.0217631819555841</speed>
  <fix>3d</fix>
</trkpt>
<trkpt lat="33.8102732" lon="-118.3955595">
  <ele>-24.4</ele>
  <time>2026-09-01T01:14:19Z</time>
  <course>355.33</course>
  <speed>1.0</speed>
  <fix>3d</fix>
</trkpt>
<trkpt lat="33.8102756" lon="-118.3955595">
  <ele>-25.01</ele>
  <time>2026-09-01T01:14:19Z</time>
  <course>85.41</course>
  <speed>1.0217631819555841</speed>
  <fix>3d</fix>
</trkpt>
<trkpt lat="33.8102732" lon="-118.3955595">
  <ele>-24.4</ele>
  <time>2026-09-01T01:14:19Z</time>
  <course>355.33</course>
  <speed>1.0</speed>
  <fix>3d</fix>
</trkpt>
<trkpt lat="33.8102765" lon="-118.3955596">
  <ele>-25.008</ele>
  <time>2026-09-01T01:14:19Z</time>
  <course>85.53</course>
  <speed>1.0217631819555841</speed>
  <fix>3d</fix>
</trkpt>
<trkpt lat="33.8102751" lon="-118.3955596">
  <ele>-24.4</ele>
  <time>2026-09-01T01:14:19Z</time>
  <course>355.56</course>
  <speed>1.0</speed>
  <fix>3d</fix>
</trkpt>
<trkpt lat="33.8102774" lon="-118.3955596">
  <ele>-25.007</ele>
  <time>2026-09-01T01:14:19Z</time>
  <course>85.64</course>
  <speed>1.0212247548899311</speed>
  <fix>3d</fix>
</trkpt>
<trkpt lat="33.8102751" lon="-118.3955596">
  <ele>-24.4</ele>
  <time>2026-09-01T01:14:19Z</time>
  <course>355.56</course>
  <speed>1.0</speed>
  <fix>3d</fix>
</trkpt>
<trkpt lat="33.8102783" lon="-118.3955597">
  <ele>-25.007</ele>
  <time>2026-09-01T01:14:19Z</time>
  <course>85.76</course>
  <speed>1.0212247548899311</speed>
  <fix>3d</fix>
</trkpt>
<trkpt lat="33.8102769" lon="-118.3955598">
  <ele>-24.4</ele>
  <time>2026-09-01T01:14:19Z</time>
  <course>355.79</course>
  <speed>1.0</speed>
  <fix>3d</fix>
</trkpt>
<trkpt lat="33.8102792" lon="-118.3955598">
  <ele>-25.008</ele>
  <time>2026-09-01T01:14:19Z</time>
  <course>85.87</course>
  <speed>1.0212247548899311</speed>
  <fix>3d</fix>
</trkpt>
<trkpt lat="33.8102769" lon="-118.3955598">
  <ele>-24.4</ele>
  <time>2026-09-01T01:14:19Z</time>
  <course>355.79</course>
  <speed>1.0</speed>
  <fix>3d</fix>
</trkpt>
<trkpt lat="33.8102801" lon="-118.3955599">
  <ele>-25.009</ele>
  <time>2026-09-01T01:14:19Z</time>
  <course>85.98</course>
  <speed>1.0212247548899311</speed>
  <fix>3d</fix>
</trkpt>
<trkpt lat="33.8102787" lon="-118.3955599">
  <ele>-24.4</ele>
  <time>2026-09-01T01:14:19Z</time>
  <course>356.0</course>
  <speed>1.0</speed>
  <fix>3d</fix>
</trkpt>
<trkpt lat="33.810281" lon="-118.3955599">
  <ele>-25.009</ele>
  <time>2026-09-01T01:14:19Z</time>
  <course>86.1</course>
  <speed>1.0212247548899311</speed>
  <fix>3d</fix>
</trkpt>
<trkpt lat="33.8102787" lon="-118.3955599">
  <ele>-24.4</ele>
  <time>2026-09-01T01:14:19Z</time>
  <course>356.0</course>
  <speed>1.0</speed>
  <fix>3d</fix>
</trkpt>
<trkpt lat="33.8102819" lon="-118.39556">
  <ele>-25.009</ele>
  <time>2026-09-01T01:14:19Z</time>
  <course>86.21</course>
  <speed>1.0207840124139878</speed>
  <fix>3d</fix>
</trkpt>
<trkpt lat="33.8102805" lon="-118.39556">
  <ele>-24.4</ele>
  <time>2026-09-01T01:14:19Z</time>
  <course>356.21</course>
  <speed>0.99</speed>
  <fix>3d</fix>
</trkpt>
<trkpt lat="33.8102828" lon="-118.3955601">
  <ele>-25.009</ele>
  <time>2026-09-01T01:14:19Z</time>
  <course>86.33</course>
  <speed>1.0207840124139878</speed>
  <fix>3d</fix>
</trkpt>
<trkpt lat="33.8102805" lon="-118.39556">
  <ele>-24.4</ele>
  <time>2026-09-01T01:14:19Z</time>
  <course>356.21</course>
  <speed>0.99</speed>
  <fix>3d</fix>
</trkpt>
<trkpt lat="33.8102837" lon="-118.3955601">
  <ele>-25.009</ele>
  <time>2026-09-01T01:14:19Z</time>
  <course>86.44</course>
  <speed>1.0207840124139878</speed>
  <fix>3d</fix>
</trkpt>
<trkpt lat="33.8102823" lon="-118.3955602">
  <ele>-24.4</ele>
  <time>2026-09-01T01:14:19Z</time>
  <course>356.38</course>
  <speed>0.99</speed>
  <fix>3d</fix>
</trkpt>
<trkpt lat="33.8102846" lon="-118.3955602">
  <ele>-25.011</ele>
  <time>2026-09-01T01:14:19Z</time>
  <course>86.56</course>
  <speed>1.0207840124139878</speed>
  <fix>3d</fix>
</trkpt>
<trkpt lat="33.8102823" lon="-118.3955602">
  <ele>-24.4</ele>
  <time>2026-09-01T01:14:19Z</time>
  <course>356.38</course>
  <speed>0.99</speed>
  <fix>3d</fix>
</trkpt>
<trkpt lat="33.8102855" lon="-118.3955602">
  <ele>-25.013</ele>
  <time>2026-09-01T01:14:19Z</time>
  <course>86.67</course>
  <speed>1.0207840124139878</speed>
  <fix>3d</fix>
</trkpt>
<trkpt lat="33.8102841" lon="-118.3955603">
  <ele>-24.41</ele>
  <time>2026-09-01T01:14:19Z</time>
  <course>356.55</course>
  <speed>0.99</speed>
  <fix>3d</fix>
</trkpt>
<trkpt lat="33.8102864" lon="-118.3955603">
  <ele>-25.015</ele>
  <time>2026-09-01T01:14:19Z</time>
  <course>86.78</course>
  <speed>1.0207840124139878</speed>
  <fix>3d</fix>
</trkpt>
<trkpt lat="33.8102841" lon="-118.3955603">
  <ele>-24.41</ele>
  <time>2026-09-01T01:14:19Z</time>
  <course>356.55</course>
  <speed>0.99</speed>
  <fix>3d</fix>
</trkpt>
<trkpt lat="33.8102873" lon="-118.3955604">
  <ele>-25.016</ele>
  <time>2026-09-01T01:14:19Z</time>
  <course>86.9</course>
  <speed>1.0204410811016968</speed>
  <fix>3d</fix>
</trkpt>
<trkpt lat="33.8102858" lon="-118.3955604">
  <ele>-24.41</ele>
  <time>2026-09-01T01:14:19Z</time>
  <course>356.74</course>
  <speed>0.99</speed>
  <fix>3d</fix>
</trkpt>
<trkpt lat="33.8102882" lon="-118.3955604">
  <ele>-25.017</ele>
  <time>2026-09-01T01:14:19Z</time>
  <course>87.01</course>
  <speed>1.0204410811016968</speed>
  <fix>3d</fix>
</trkpt>
<trkpt lat="33.8102858" lon="-118.3955604">
  <ele>-24.41</ele>
  <time>2026-09-01T01:14:19Z</time>
  <course>356.74</course>
  <speed>0.99</speed>
  <fix>3d</fix>
</trkpt>
<trkpt lat="33.8102891" lon="-118.3955605">
  <ele>-25.018</ele>
  <time>2026-09-01T01:14:19Z</time>
  <course>87.13</course>
  <speed>1.0204410811016968</speed>
  <fix>3d</fix>
</trkpt>
<trkpt lat="33.8102875" lon="-118.3955606">
  <ele>-24.41</ele>
  <time>2026-09-01T01:14:19Z</time>
  <course>356.92</course>
  <speed>0.99</speed>
  <fix>3d</fix>
</trkpt>
<trkpt lat="33.81029" lon="-118.3955605">
  <ele>-25.018</ele>
  <time>2026-09-01T01:14:19Z</time>
  <course>87.24</course>
  <speed>1.0204410811016968</speed>
  <fix>3d</fix>
</trkpt>
<trkpt lat="33.8102875" lon="-118.3955606">
  <ele>-24.41</ele>
  <time>2026-09-01T01:14:19Z</time>
  <course>356.92</course>
  <speed>0.99</speed>
  <fix>3d</fix>
</trkpt>
<trkpt lat="33.8102909" lon="-118.3955606">
  <ele>-25.018</ele>
  <time>2026-09-01T01:14:19Z</time>
  <course>87.36</course>
  <speed>1.0204410811016968</speed>
  <fix>3d</fix>
</trkpt>
<trkpt lat="33.8102894" lon="-118.3955607">
  <ele>-24.41</ele>
  <time>2026-09-01T01:14:19Z</time>
  <course>357.15</course>
  <speed>1.0</speed>
  <fix>3d</fix>
</trkpt>
<trkpt lat="33.8102918" lon="-118.3955606">
  <ele>-25.018</ele>
  <time>2026-09-01T01:14:19Z</time>
  <course>87.47</course>
  <speed>1.020196059588548</speed>
  <fix>3d</fix>
</trkpt>
<trkpt lat="33.8102894" lon="-118.3955607">
  <ele>-24.41</ele>
  <time>2026-09-01T01:14:19Z</time>
  <course>357.15</course>
  <speed>1.0</speed>
  <fix>3d</fix>
</trkpt>
<trkpt lat="33.8102926" lon="-118.3955607">
  <ele>-25.016</ele>
  <time>2026-09-01T01:14:19Z</time>
  <course>87.59</course>
  <speed>1.020196059588548</speed>
  <fix>3d</fix>
</trkpt>
<trkpt lat="33.8102911" lon="-118.3955608">
  <ele>-24.41</ele>
  <time>2026-09-01T01:14:19Z</time>
  <course>357.44</course>
  <speed>1.0</speed>
  <fix>3d</fix>
</trkpt>
<trkpt lat="33.8102935" lon="-118.3955607">
  <ele>-25.014</ele>
  <time>2026-09-01T01:14:19Z</time>
  <course>87.7</course>
  <speed>1.030194156457898</speed>
  <fix>3d</fix>
</trkpt>
<trkpt lat="33.8102911" lon="-118.3955608">
  <ele>-24.41</ele>
  <time>2026-09-01T01:14:19Z</time>
  <course>357.44</course>
  <speed>1.0</speed>
  <fix>3d</fix>
</trkpt>
<trkpt lat="33.8102944" lon="-118.3955607">
  <ele>-25.013</ele>
  <time>2026-09-01T01:14:19Z</time>
  <course>87.82</course>
  <speed>1.030194156457898</speed>
  <fix>3d</fix>
</trkpt>
<trkpt lat="33.810293" lon="-118.3955609">
  <ele>-24.41</ele>
  <time>2026-09-01T01:14:19Z</time>
  <course>357.74</course>
  <speed>1.0</speed>
  <fix>3d</fix>
</trkpt>
<trkpt lat="33.8102953" lon="-118.3955608">
  <ele>-25.013</ele>
  <time>2026-09-01T01:14:19Z</time>
  <course>87.93</course>
  <speed>1.0300485425454473</speed>
  <fix>3d</fix>
</trkpt>
<trkpt lat="33.810293" lon="-118.3955609">
  <ele>-24.41</ele>
  <time>2026-09-01T01:14:19Z</time>
  <course>357.74</course>
  <speed>1.0</speed>
  <fix>3d</fix>
</trkpt>
<trkpt lat="33.8102962" lon="-118.3955608">
  <ele>-25.014</ele>
  <time>2026-09-01T01:14:19Z</time>
  <course>88.04</course>
  <speed>1.0300485425454473</speed>
  <fix>3d</fix>
</trkpt>
<trkpt lat="33.8102948" lon="-118.395561">
  <ele>-24.41</ele>
  <time>2026-09-01T01:14:19Z</time>
  <course>358.04</course>
  <speed>1.0</speed>
  <fix>3d</fix>
</trkpt>
<trkpt lat="33.8102971" lon="-118.3955608">
  <ele>-25.015</ele>
  <time>2026-09-01T01:14:19Z</time>
  <course>88.16</course>
  <speed>1.0300485425454473</speed>
  <fix>3d</fix>
</trkpt>
<trkpt lat="33.8102948" lon="-118.395561">
  <ele>-24.41</ele>
  <time>2026-09-01T01:14:19Z</time>
  <course>358.04</course>
  <speed>1.0</speed>
  <fix>3d</fix>
</trkpt>
<trkpt lat="33.810298" lon="-118.3955609">
  <ele>-25.016</ele>
  <time>2026-09-01T01:14:19Z</time>
  <course>88.28</course>
  <speed>1.0200490184299968</speed>
  <fix>3d</fix>
</trkpt>
<trkpt lat="33.8102966" lon="-118.395561">
  <ele>-24.41</ele>
  <time>2026-09-01T01:14:19Z</time>
  <course>358.34</course>
  <speed>1.01</speed>
  <fix>3d</fix>
</trkpt>
<trkpt lat="33.8102989" lon="-118.3955609">
  <ele>-25.015</ele>
  <time>2026-09-01T01:14:19Z</time>
  <course>88.39</course>
  <speed>1.02</speed>
  <fix>3d</fix>
</trkpt>
<trkpt lat="33.8102966" lon="-118.395561">
  <ele>-24.41</ele>
  <time>2026-09-01T01:14:19Z</time>
  <course>358.34</course>
  <speed>1.01</speed>
  <fix>3d</fix>
</trkpt>
<trkpt lat="33.8102998" lon="-118.3955609">
  <ele>-25.014</ele>
  <time>2026-09-01T01:14:19Z</time>
  <course>88.5</course>
  <speed>1.02</speed>
  <fix>3d</fix>
</trkpt>
<trkpt lat="33.8102985" lon="-118.3955611">
  <ele>-24.4</ele>
  <time>2026-09-01T01:14:19Z</time>
  <course>358.59</course>
  <speed>1.0</speed>
  <fix>3d</fix>
</trkpt>
<trkpt lat="33.8103007" lon="-118.3955609">
  <ele>-25.012</ele>
  <time>2026-09-01T01:14:19Z</time>
  <course>88.62</course>
  <speed>1.02</speed>
  <fix>3d</fix>
</trkpt>
<trkpt lat="33.8102985" lon="-118.3955611">
  <ele>-24.4</ele>
  <time>2026-09-01T01:14:19Z</time>
  <course>358.59</course>
  <speed>1.0</speed>
  <fix>3d</fix>
</trkpt>
<trkpt lat="33.8103016" lon="-118.395561">
  <ele>-25.009</ele>
  <time>2026-09-01T01:14:19Z</time>
  <course>88.73</course>
  <speed>1.02</speed>
  <fix>3d</fix>
</trkpt>
<trkpt lat="33.8103002" lon="-118.3955612">
  <ele>-24.4</ele>
  <time>2026-09-01T01:14:19Z</time>
  <course>358.81</course>
  <speed>1.0</speed>
  <fix>3d</fix>
</trkpt>
<trkpt lat="33.8103025" lon="-118.395561">
  <ele>-25.008</ele>
  <time>2026-09-01T01:14:19Z</time>
  <course>88.85</course>
  <speed>1.02</speed>
  <fix>3d</fix>
</trkpt>
<trkpt lat="33.8103002" lon="-118.3955612">
  <ele>-24.4</ele>
  <time>2026-09-01T01:14:19Z</time>
  <course>358.81</course>
  <speed>1.0</speed>
  <fix>3d</fix>
</trkpt>
<trkpt lat="33.8103034" lon="-118.395561">
  <ele>-25.008</ele>
  <time>2026-09-01T01:14:19Z</time>
  <course>88.96</course>
  <speed>1.02</speed>
  <fix>3d</fix>
</trkpt>
<trkpt lat="33.8103021" lon="-118.3955612">
  <ele>-24.4</ele>
  <time>2026-09-01T01:14:19Z</time>
  <course>359.06</course>
  <speed>1.0</speed>
  <fix>3d</fix>
</trkpt>
<trkpt lat="33.8103043" lon="-118.395561">
  <ele>-25.009</ele>
  <time>2026-09-01T01:14:19Z</time>
  <course>89.08</course>
  <speed>1.02</speed>
  <fix>3d</fix>
</trkpt>
<trkpt lat="33.8103021" lon="-118.3955612">
  <ele>-24.4</ele>
  <time>2026-09-01T01:14:19Z</time>
  <course>359.06</course>
  <speed>1.0</speed>
  <fix>3d</fix>
</trkpt>
<trkpt lat="33.8103052" lon="-118.3955611">
  <ele>-25.012</ele>
  <time>2026-09-01T01:14:19Z</time>
  <course>89.19</course>
  <speed>1.02</speed>
  <fix>3d</fix>
</trkpt>
<trkpt lat="33.8103038" lon="-118.3955612">
  <ele>-24.4</ele>
  <time>2026-09-01T01:14:19Z</time>
  <course>359.32</course>
  <speed>1.0</speed>
  <fix>3d</fix>
</trkpt>
<trkpt lat="33.8103061" lon="-118.3955611">
  <ele>-25.015</ele>
  <time>2026-09-01T01:14:19Z</time>
  <course>89.31</course>
  <speed>1.02</speed>
  <fix>3d</fix>
</trkpt>
<trkpt lat="33.8103038" lon="-118.3955612">
  <ele>-24.4</ele>
  <time>2026-09-01T01:14:19Z</time>
  <course>359.32</course>
  <speed>1.0</speed>
  <fix>3d</fix>
</trkpt>
<trkpt lat="33.810307" lon="-118.3955611">
  <ele>-25.017</ele>
  <time>2026-09-01T01:14:19Z</time>
  <course>89.42</course>
  <speed>1.02</speed>
  <fix>3d</fix>
</trkpt>
<trkpt lat="33.8103057" lon="-118.3955613">
  <ele>-24.41</ele>
  <time>2026-09-01T01:14:19Z</time>
  <course>359.55</course>
  <speed>1.0</speed>
  <fix>3d</fix>
</trkpt>
<trkpt lat="33.8103079" lon="-118.3955611">
  <ele>-25.018</ele>
  <time>2026-09-01T01:14:19Z</time>
  <course>89.54</course>
  <speed>1.0200490184299968</speed>
  <fix>3d</fix>
</trkpt>
<trkpt lat="33.8103057" lon="-118.3955613">
  <ele>-24.41</ele>
  <time>2026-09-01T01:14:19Z</time>
  <course>359.55</course>
  <speed>1.0</speed>
  <fix>3d</fix>
</trkpt>
<trkpt lat="33.8103088" lon="-118.3955611">
  <ele>-25.017</ele>
  <time>2026-09-01T01:14:19Z</time>
  <course>89.65</course>
  <speed>1.0200490184299968</speed>
  <fix>3d</fix>
</trkpt>
<trkpt lat="33.8103074" lon="-118.3955613">
  <ele>-24.41</ele>
  <time>2026-09-01T01:14:19Z</time>
  <course>359.76</course>
  <speed>1.0</speed>
  <fix>3d</fix>
</trkpt>
<trkpt lat="33.8103097" lon="-118.3955611">
  <ele>-25.016</ele>
  <time>2026-09-01T01:14:19Z</time>
  <course>89.76</course>
  <speed>1.0200490184299968</speed>
  <fix>3d</fix>
</trkpt>
<trkpt lat="33.8103074" lon="-118.3955613">
  <ele>-24.41</ele>
  <time>2026-09-01T01:14:19Z</time>
  <course>359.76</course>
  <speed>1.0</speed>
  <fix>3d</fix>
</trkpt>
<trkpt lat="33.8103106" lon="-118.3955611">
  <ele>-25.013</ele>
  <time>2026-09-01T01:14:19Z</time>
  <course>89.88</course>
  <speed>1.0200490184299968</speed>
  <fix>3d</fix>
</trkpt>
<trkpt lat="33.8103093" lon="-118.3955613">
  <ele>-24.41</ele>
  <time>2026-09-01T01:14:19Z</time>
  <course>0.01</course>
  <speed>1.0</speed>
  <fix>3d</fix>
</trkpt>
<trkpt lat="33.8103115" lon="-118.3955611">
  <ele>-25.011</ele>
  <time>2026-09-01T01:14:19Z</time>
  <course>89.99</course>
  <speed>1.020196059588548</speed>
  <fix>3d</fix>
</trkpt>
<trkpt lat="33.8103093" lon="-118.3955613">
  <ele>-24.41</ele>
  <time>2026-09-01T01:14:19Z</time>
  <course>0.01</course>
  <speed>1.0</speed>
  <fix>3d</fix>
</trkpt>
<trkpt lat="33.8103124" lon="-118.3955611">
  <ele>-25.01</ele>
  <time>2026-09-01T01:14:19Z</time>
  <course>90.11</course>
  <speed>1.020196059588548</speed>
  <fix>3d</fix>
</trkpt>
<trkpt lat="33.810311" lon="-118.3955613">
  <ele>-24.41</ele>
  <time>2026-09-01T01:14:19Z</time>
  <course>0.28</course>
  <speed>1.0</speed>
  <fix>3d</fix>
</trkpt>
<trkpt lat="33.8103133" lon="-118.3955611">
  <ele>-25.011</ele>
  <time>2026-09-01T01:14:19Z</time>
  <course>90.23</course>
  <speed>1.020196059588548</speed>
  <fix>3d</fix>
</trkpt>
<trkpt lat="33.810311" lon="-118.3955613">
  <ele>-24.41</ele>
  <time>2026-09-01T01:14:19Z</time>
  <course>0.28</course>
  <speed>1.0</speed>
  <fix>3d</fix>
</trkpt>
<trkpt lat="33.8103142" lon="-118.3955611">
  <ele>-25.013</ele>
  <time>2026-09-01T01:14:19Z</time>
  <course>90.34</course>
  <speed>1.020196059588548</speed>
  <fix>3d</fix>
</trkpt>
<trkpt lat="33.8103129" lon="-118.3955613">
  <ele>-24.41</ele>
  <time>2026-09-01T01:14:19Z</time>
  <course>0.54</course>
  <speed>1.0</speed>
  <fix>3d</fix>
</trkpt>
<trkpt lat="33.8103151" lon="-118.3955611">
  <ele>-25.015</ele>
  <time>2026-09-01T01:14:19Z</time>
  <course>90.45</course>
  <speed>1.020196059588548</speed>
  <fix>3d</fix>
</trkpt>
<trkpt lat="33.8103129" lon="-118.3955613">
  <ele>-24.41</ele>
  <time>2026-09-01T01:14:19Z</time>
  <course>0.54</course>
  <speed>1.0</speed>
  <fix>3d</fix>
</trkpt>
<trkpt lat="33.810316" lon="-118.3955611">
  <ele>-25.018</ele>
  <time>2026-09-01T01:14:19Z</time>
  <course>90.57</course>
  <speed>1.0204410811016968</speed>
  <fix>3d</fix>
</trkpt>
<trkpt lat="33.8103146" lon="-118.3955613">
  <ele>-24.41</ele>
  <time>2026-09-01T01:14:19Z</time>
  <course>0.79</course>
  <speed>1.0</speed>
  <fix>3d</fix>
</trkpt>
<trkpt lat="33.8103169" lon="-118.3955611">
  <ele>-25.019</ele>
  <time>2026-09-01T01:14:19Z</time>
  <course>90.68</course>
  <speed>1.0204410811016968</speed>
  <fix>3d</fix>
</trkpt>
<trkpt lat="33.8103146" lon="-118.3955613">
  <ele>-24.41</ele>
  <time>2026-09-01T01:14:19Z</time>
  <course>0.79</course>
  <speed>1.0</speed>
  <fix>3d</fix>
</trkpt>
<trkpt lat="33.8103178" lon="-118.3955611">
  <ele>-25.018</ele>
  <time>2026-09-01T01:14:19Z</time>
  <course>90.8</course>
  <speed>1.0204410811016968</speed>
  <fix>3d</fix>
</trkpt>
<trkpt lat="33.8103165" lon="-118.3955613">
  <ele>-24.41</ele>
  <time>2026-09-01T01:14:19Z</time>
  <course>1.04</course>
  <speed>1.0</speed>
  <fix>3d</fix>
</trkpt>
<trkpt lat="33.8103187" lon="-118.3955611">
  <ele>-25.017</ele>
  <time>2026-09-01T01:14:19Z</time>
  <course>90.91</course>
  <speed>1.0204410811016968</speed>
  <fix>3d</fix>
</trkpt>
<trkpt lat="33.8103165" lon="-118.3955613">
  <ele>-24.41</ele>
  <time>2026-09-01T01:14:19Z</time>
  <course>1.04</course>
  <speed>1.0</speed>
  <fix>3d</fix>
</trkpt>
<trkpt lat="33.8103196" lon="-118.395561">
  <ele>-25.016</ele>
  <time>2026-09-01T01:14:19Z</time>
  <course>91.03</course>
  <speed>1.0207840124139878</speed>
  <fix>3d</fix>
</trkpt>
<trkpt lat="33.8103184" lon="-118.3955612">
  <ele>-24.41</ele>
  <time>2026-09-01T01:14:19Z</time>
  <course>1.32</course>
  <speed>1.0</speed>
  <fix>3d</fix>
</trkpt>
<trkpt lat="33.8103205" lon="-118.395561">
  <ele>-25.016</ele>
  <time>2026-09-01T01:14:19Z</time>
  <course>91.14</course>
  <speed>1.0207840124139878</speed>
  <fix>3d</fix>
</trkpt>
<trkpt lat="33.8103184" lon="-118.3955612">
  <ele>-24.41</ele>
  <time>2026-09-01T01:14:19Z</time>
  <course>1.32</course>
  <speed>1.0</speed>
  <fix>3d</fix>
</trkpt>
<trkpt lat="33.8103214" lon="-118.395561">
  <ele>-25.016</ele>
  <time>2026-09-01T01:14:19Z</time>
  <course>91.26</course>
  <speed>1.0207840124139878</speed>
  <fix>3d</fix>
</trkpt>
<trkpt lat="33.8103201" lon="-118.3955612">
  <ele>-24.41</ele>
  <time>2026-09-01T01:14:19Z</time>
  <course>1.59</course>
  <speed>1.0</speed>
  <fix>3d</fix>
</trkpt>
<trkpt lat="33.8103223" lon="-118.395561">
  <ele>-25.015</ele>
  <time>2026-09-01T01:14:19Z</time>
  <course>91.37</course>
  <speed>1.0207840124139878</speed>
  <fix>3d</fix>
</trkpt>
<trkpt lat="33.8103201" lon="-118.3955612">
  <ele>-24.41</ele>
  <time>2026-09-01T01:14:19Z</time>
  <course>1.59</course>
  <speed>1.0</speed>
  <fix>3d</fix>
</trkpt>
<trkpt lat="33.8103233" lon="-118.3955609">
  <ele>-25.014</ele>
  <time>2026-09-01T01:14:19Z</time>
  <course>91.48</course>
  <speed>1.0107917688624102</speed>
  <fix>3d</fix>
</trkpt>
<trkpt lat="33.810322" lon="-118.3955611">
  <ele>-24.41</ele>
  <time>2026-09-01T01:14:19Z</time>
  <course>1.83</course>
  <speed>1.0</speed>
  <fix>3d</fix>
</trkpt>
<trkpt lat="33.8103242" lon="-118.3955609">
  <ele>-25.013</ele>
  <time>2026-09-01T01:14:19Z</time>
  <course>91.6</course>
  <speed>1.011236866416568</speed>
  <fix>3d</fix>
</trkpt>
<trkpt lat="33.810322" lon="-118.3955611">
  <ele>-24.41</ele>
  <time>2026-09-01T01:14:19Z</time>
  <course>1.83</course>
  <speed>1.0</speed>
  <fix>3d</fix>
</trkpt>
<trkpt lat="33.8103251" lon="-118.3955609">
  <ele>-25.013</ele>
  <time>2026-09-01T01:14:19Z</time>
  <course>91.71</course>
  <speed>1.011236866416568</speed>
  <fix>3d</fix>
</trkpt>
<trkpt lat="33.8103237" lon="-118.395561">
  <ele>-24.4</ele>
  <time>2026-09-01T01:14:19Z</time>
  <course>2.07</course>
  <speed>0.99</speed>
  <fix>3d</fix>
</trkpt>
<trkpt lat="33.810326" lon="-118.3955608">
  <ele>-25.013</ele>
  <time>2026-09-01T01:14:19Z</time>
  <course>91.83</course>
  <speed>1.011236866416568</speed>
  <fix>3d</fix>
</trkpt>
<trkpt lat="33.8103237" lon="-118.395561">
  <ele>-24.4</ele>
  <time>2026-09-01T01:14:19Z</time>
  <course>2.07</course>
  <speed>0.99</speed>
  <fix>3d</fix>
</trkpt>
<trkpt lat="33.8103269" lon="-118.3955608">
  <ele>-25.013</ele>
  <time>2026-09-01T01:14:19Z</time>
  <course>91.94</course>
  <speed>1.011236866416568</speed>
  <fix>3d</fix>
</trkpt>
<trkpt lat="33.8103255" lon="-118.3955609">
  <ele>-24.4</ele>
  <time>2026-09-01T01:14:19Z</time>
  <course>2.27</course>
  <speed>0.99</speed>
  <fix>3d</fix>
</trkpt>
<trkpt lat="33.8103278" lon="-118.3955607">
  <ele>-25.012</ele>
  <time>2026-09-01T01:14:19Z</time>
  <course>92.06</course>
  <speed>1.011236866416568</speed>
  <fix>3d</fix>
</trkpt>
<trkpt lat="33.8103255" lon="-118.3955609">
  <ele>-24.4</ele>
  <time>2026-09-01T01:14:19Z</time>
  <course>2.27</course>
  <speed>0.99</speed>
  <fix>3d</fix>
</trkpt>
<trkpt lat="33.8103287" lon="-118.3955607">
  <ele>-25.011</ele>
  <time>2026-09-01T01:14:19Z</time>
  <course>92.17</course>
  <speed>1.011236866416568</speed>
  <fix>3d</fix>
</trkpt>
<trkpt lat="33.8103273" lon="-118.3955609">
  <ele>-24.4</ele>
  <time>2026-09-01T01:14:19Z</time>
  <course>2.42</course>
  <speed>0.99</speed>
  <fix>3d</fix>
</trkpt>
<trkpt lat="33.8103296" lon="-118.3955606">
  <ele>-25.01</ele>
  <time>2026-09-01T01:14:19Z</time>
  <course>92.29</course>
  <speed>1.0117806086301515</speed>
  <fix>3d</fix>
</trkpt>
<trkpt lat="33.8103273" lon="-118.3955609">
  <ele>-24.4</ele>
  <time>2026-09-01T01:14:19Z</time>
  <course>2.42</course>
  <speed>0.99</speed>
  <fix>3d</fix>
</trkpt>
<trkpt lat="33.8103304" lon="-118.3955606">
  <ele>-25.009</ele>
  <time>2026-09-01T01:14:19Z</time>
  <course>92.4</course>
  <speed>1.0117806086301515</speed>
  <fix>3d</fix>
</trkpt>
<trkpt lat="33.8103291" lon="-118.3955608">
  <ele>-24.4</ele>
  <time>2026-09-01T01:14:19Z</time>
  <course>2.6</course>
  <speed>0.99</speed>
  <fix>3d</fix>
</trkpt>
<trkpt lat="33.8103313" lon="-118.3955605">
  <ele>-25.008</ele>
  <time>2026-09-01T01:14:19Z</time>
  <course>92.52</course>
  <speed>1.0117806086301515</speed>
  <fix>3d</fix>
</trkpt>
<trkpt lat="33.8103291" lon="-118.3955608">
  <ele>-24.4</ele>
  <time>2026-09-01T01:14:19Z</time>
  <course>2.6</course>
  <speed>0.99</speed>
  <fix>3d</fix>
</trkpt>
<trkpt lat="33.8103322" lon="-118.3955605">
  <ele>-25.008</ele>
  <time>2026-09-01T01:14:19Z</time>
  <course>92.63</course>
  <speed>1.0117806086301515</speed>
  <fix>3d</fix>
</trkpt>
<trkpt lat="33.8103308" lon="-118.3955607">
  <ele>-24.4</ele>
  <time>2026-09-01T01:14:19Z</time>
  <course>2.83</course>
  <speed>0.99</speed>
  <fix>3d</fix>
</trkpt>
<trkpt lat="33.8103331" lon="-118.3955604">
  <ele>-25.009</ele>
  <time>2026-09-01T01:14:19Z</time>
  <course>92.74</course>
  <speed>1.0117806086301515</speed>
  <fix>3d</fix>
</trkpt>
<trkpt lat="33.8103308" lon="-118.3955607">
  <ele>-24.4</ele>
  <time>2026-09-01T01:14:19Z</time>
  <course>2.83</course>
  <speed>0.99</speed>
  <fix>3d</fix>
</trkpt>
<trkpt lat="33.810334" lon="-118.3955604">
  <ele>-25.01</ele>
  <time>2026-09-01T01:14:19Z</time>
  <course>92.86</course>
  <speed>1.0124228365658294</speed>
  <fix>3d</fix>
</trkpt>
<trkpt lat="33.8103327" lon="-118.3955605">
  <ele>-24.41</ele>
  <time>2026-09-01T01:14:19Z</time>
  <course>3.06</course>
  <speed>0.99</speed>
  <fix>3d</fix>
</trkpt>
<trkpt lat="33.8103349" lon="-118.3955603">
  <ele>-25.011</ele>
  <time>2026-09-01T01:14:19Z</time>
  <course>92.97</course>
  <speed>1.0124228365658294</speed>
  <fix>3d</fix>
</trkpt>
<trkpt lat="33.8103327" lon="-118.3955605">
  <ele>-24.41</ele>
  <time>2026-09-01T01:14:19Z</time>
  <course>3.06</course>
  <speed>0.99</speed>
  <fix>3d</fix>
</trkpt>
<trkpt lat="33.8103358" lon="-118.3955603">
  <ele>-25.012</ele>
  <time>2026-09-01T01:14:19Z</time>
  <course>93.09</course>
  <speed>1.0124228365658294</speed>
  <fix>3d</fix>
</trkpt>
<trkpt lat="33.8103344" lon="-118.3955604">
  <ele>-24.41</ele>
  <time>2026-09-01T01:14:19Z</time>
  <course>3.26</course>
  <speed>0.99</speed>
  <fix>3d</fix>
</trkpt>
<trkpt lat="33.8103367" lon="-118.3955602">
  <ele>-25.013</ele>
  <time>2026-09-01T01:14:19Z</time>
  <course>93.2</course>
  <speed>1.0124228365658294</speed>
  <fix>3d</fix>
</trkpt>
<trkpt lat="33.8103344" lon="-118.3955604">
  <ele>-24.41</ele>
  <time>2026-09-01T01:14:19Z</time>
  <course>3.26</course>
  <speed>0.99</speed>
  <fix>3d</fix>
</trkpt>
<trkpt lat="33.8103376" lon="-118.3955601">
  <ele>-25.013</ele>
  <time>2026-09-01T01:14:19Z</time>
  <course>93.32</course>
  <speed>1.0124228365658294</speed>
  <fix>3d</fix>
</trkpt>
<trkpt lat="33.8103363" lon="-118.3955603">
  <ele>-24.41</ele>
  <time>2026-09-01T01:14:19Z</time>
  <course>3.41</course>
  <speed>0.99</speed>
  <fix>3d</fix>
</trkpt>
<trkpt lat="33.8103385" lon="-118.3955601">
  <ele>-25.014</ele>
  <time>2026-09-01T01:14:19Z</time>
  <course>93.43</course>
  <speed>1.0124228365658294</speed>
  <fix>3d</fix>
</trkpt>
<trkpt lat="33.8103363" lon="-118.3955603">
  <ele>-24.41</ele>
  <time>2026-09-01T01:14:19Z</time>
  <course>3.41</course>
  <speed>0.99</speed>
  <fix>3d</fix>
</trkpt>
<trkpt lat="33.8103394" lon="-118.39556">
  <ele>-25.014</ele>
  <time>2026-09-01T01:14:19Z</time>
  <course>93.55</course>
  <speed>1.0131633629380803</speed>
  <fix>3d</fix>
</trkpt>
<trkpt lat="33.810338" lon="-118.3955602">
  <ele>-24.42</ele>
  <time>2026-09-01T01:14:19Z</time>
  <course>3.58</course>
  <speed>0.99</speed>
  <fix>3d</fix>
</trkpt>
<trkpt lat="33.8103403" lon="-118.3955599">
  <ele>-25.015</ele>
  <time>2026-09-01T01:14:19Z</time>
  <course>93.66</course>
  <speed>1.0131633629380803</speed>
  <fix>3d</fix>
</trkpt>
<trkpt lat="33.810338" lon="-118.3955602">
  <ele>-24.42</ele>
  <time>2026-09-01T01:14:19Z</time>
  <course>3.58</course>
  <speed>0.99</speed>
  <fix>3d</fix>
</trkpt>
<trkpt lat="33.8103412" lon="-118.3955598">
  <ele>-25.016</ele>
  <time>2026-09-01T01:14:19Z</time>
  <course>93.78</course>
  <speed>1.0131633629380803</speed>
  <fix>3d</fix>
</trkpt>
<trkpt lat="33.8103399" lon="-118.39556">
  <ele>-24.42</ele>
  <time>2026-09-01T01:14:19Z</time>
  <course>3.79</course>
  <speed>0.99</speed>
  <fix>3d</fix>
</trkpt>
<trkpt lat="33.8103421" lon="-118.3955598">
  <ele>-25.017</ele>
  <time>2026-09-01T01:14:19Z</time>
  <course>93.89</course>
  <speed>1.0131633629380803</speed>
  <fix>3d</fix>
</trkpt>
<trkpt lat="33.8103399" lon="-118.39556">
  <ele>-24.42</ele>
  <time>2026-09-01T01:14:19Z</time>
  <course>3.79</course>
  <speed>0.99</speed>
  <fix>3d</fix>
</trkpt>
<trkpt lat="33.810343" lon="-118.3955597">
  <ele>-25.018</ele>
  <time>2026-09-01T01:14:19Z</time>
  <course>94.0</course>
  <speed>1.0131633629380803</speed>
  <fix>3d</fix>
</trkpt>
<trkpt lat="33.8103416" lon="-118.3955599">
  <ele>-24.42</ele>
  <time>2026-09-01T01:14:19Z</time>
  <course>4.01</course>
  <speed>0.99</speed>
  <fix>3d</fix>
</trkpt>
<trkpt lat="33.8103439" lon="-118.3955596">
  <ele>-25.018</ele>
  <time>2026-09-01T01:14:19Z</time>
  <course>94.12</course>
  <speed>1.0140019723846694</speed>
  <fix>3d</fix>
</trkpt>
<trkpt lat="33.8103416" lon="-118.3955599">
  <ele>-24.42</ele>
  <time>2026-09-01T01:14:19Z</time>
  <course>4.01</course>
  <speed>0.99</speed>
  <fix>3d</fix>
</trkpt>
<trkpt lat="33.8103448" lon="-118.3955595">
  <ele>-25.018</ele>
  <time>2026-09-01T01:14:19Z</time>
  <course>94.23</course>
  <speed>1.0140019723846694</speed>
  <fix>3d</fix>
</trkpt>
<trkpt lat="33.8103434" lon="-118.3955598">
  <ele>-24.42</ele>
  <time>2026-09-01T01:14:19Z</time>
  <course>4.23</course>
  <speed>0.99</speed>
  <fix>3d</fix>
</trkpt>
<trkpt lat="33.8103457" lon="-118.3955594">
  <ele>-25.017</ele>
  <time>2026-09-01T01:14:19Z</time>
  <course>94.35</course>
  <speed>1.0140019723846694</speed>
  <fix>3d</fix>
</trkpt>
<trkpt lat="33.8103434" lon="-118.3955598">
  <ele>-24.42</ele>
  <time>2026-09-01T01:14:19Z</time>
  <course>4.23</course>
  <speed>0.99</speed>
  <fix>3d</fix>
</trkpt>
<trkpt lat="33.8103466" lon="-118.3955594">
  <ele>-25.016</ele>
  <time>2026-09-01T01:14:19Z</time>
  <course>94.46</course>
  <speed>1.0140019723846694</speed>
  <fix>3d</fix>
</trkpt>
<trkpt lat="33.8103452" lon="-118.3955595">
  <ele>-24.42</ele>
  <time>2026-09-01T01:14:19Z</time>
  <course>4.48</course>
  <speed>0.99</speed>
  <fix>3d</fix>
</trkpt>
<trkpt lat="33.8103475" lon="-118.3955593">
  <ele>-25.015</ele>
  <time>2026-09-01T01:14:19Z</time>
  <course>94.58</course>
  <speed>1.0140019723846694</speed>
  <fix>3d</fix>
</trkpt>
<trkpt lat="33.8103452" lon="-118.3955595">
  <ele>-24.42</ele>
  <time>2026-09-01T01:14:19Z</time>
  <course>4.48</course>
  <speed>0.99</speed>
  <fix>3d</fix>
</trkpt>
<trkpt lat="33.8103484" lon="-118.3955592">
  <ele>-25.015</ele>
  <time>2026-09-01T01:14:19Z</time>
  <course>94.69</course>
  <speed>1.0149384217774002</speed>
  <fix>3d</fix>
</trkpt>
<trkpt lat="33.8103469" lon="-118.3955594">
  <ele>-24.42</ele>
  <time>2026-09-01T01:14:19Z</time>
  <course>4.72</course>
  <speed>0.99</speed>
  <fix>3d</fix>
</trkpt>
<trkpt lat="33.8103493" lon="-118.3955591">
  <ele>-25.015</ele>
  <time>2026-09-01T01:14:19Z</time>
  <course>94.81</course>
  <speed>1.0149384217774002</speed>
  <fix>3d</fix>
</trkpt>
<trkpt lat="33.8103469" lon="-118.3955594">
  <ele>-24.42</ele>
  <time>2026-09-01T01:14:19Z</time>
  <course>4.72</course>
  <speed>0.99</speed>
  <fix>3d</fix>
</trkpt>
<trkpt lat="33.8103502" lon="-118.395559">
  <ele>-25.015</ele>
  <time>2026-09-01T01:14:19Z</time>
  <course>94.92</course>
  <speed>1.0149384217774002</speed>
  <fix>3d</fix>
</trkpt>
<trkpt lat="33.8103488" lon="-118.3955592">
  <ele>-24.41</ele>
  <time>2026-09-01T01:14:19Z</time>
  <course>4.91</course>
  <speed>0.99</speed>
  <fix>3d</fix>
</trkpt>
<trkpt lat="33.8103511" lon="-118.3955589">
  <ele>-25.015</ele>
  <time>2026-09-01T01:14:20Z</time>
  <course>95.03</course>
  <speed>1.0149384217774002</speed>
  <fix>3d</fix>
</trkpt>
<trkpt lat="33.8103488" lon="-118.3955592">
  <ele>-24.41</ele>
  <time>2026-09-01T01:14:20Z</time>
  <course>4.91</course>
  <speed>0.99</speed>
  <fix>3d</fix>
</trkpt>
<trkpt lat="33.8103519" lon="-118.3955588">
  <ele>-25.014</ele>
  <time>2026-09-01T01:14:20Z</time>
  <course>95.15</course>
  <speed>1.0149384217774002</speed>
  <fix>3d</fix>
</trkpt>
<trkpt lat="33.8103505" lon="-118.395559">
  <ele>-24.41</ele>
  <time>2026-09-01T01:14:20Z</time>
  <course>5.1</course>
  <speed>1.0</speed>
  <fix>3d</fix>
</trkpt>
<trkpt lat="33.8103528" lon="-118.3955587">
  <ele>-25.014</ele>
  <time>2026-09-01T01:14:20Z</time>
  <course>95.27</course>
  <speed>1.0159724405711013</speed>
  <fix>3d</fix>
</trkpt>
<trkpt lat="33.8103505" lon="-118.395559">
  <ele>-24.41</ele>
  <time>2026-09-01T01:14:20Z</time>
  <course>5.1</course>
  <speed>1.0</speed>
  <fix>3d</fix>
</trkpt>
<trkpt lat="33.8103537" lon="-118.3955586">
  <ele>-25.014</ele>
  <time>2026-09-01T01:14:20Z</time>
  <course>95.38</course>
  <speed>1.0159724405711013</speed>
  <fix>3d</fix>
</trkpt>
<trkpt lat="33.8103524" lon="-118.3955589">
  <ele>-24.41</ele>
  <time>2026-09-01T01:14:20Z</time>
  <course>5.3</course>
  <speed>1.0</speed>
  <fix>3d</fix>
</trkpt>
<trkpt lat="33.8103546" lon="-118.3955585">
  <ele>-25.014</ele>
  <time>2026-09-01T01:14:20Z</time>
  <course>95.49</course>
  <speed>1.0159724405711013</speed>
  <fix>3d</fix>
</trkpt>
<trkpt lat="33.8103524" lon="-118.3955589">
  <ele>-24.41</ele>
  <time>2026-09-01T01:14:20Z</time>
  <course>5.3</course>
  <speed>1.0</speed>
  <fix>3d</fix>
</trkpt>
<trkpt lat="33.8103555" lon="-118.3955584">
  <ele>-25.014</ele>
  <time>2026-09-01T01:14:20Z</time>
  <course>95.61</course>
  <speed>1.0159724405711013</speed>
  <fix>3d</fix>
</trkpt>
<trkpt lat="33.8103541" lon="-118.3955587">
  <ele>-24.41</ele>
  <time>2026-09-01T01:14:20Z</time>
  <course>5.55</course>
  <speed>1.0</speed>
  <fix>3d</fix>
</trkpt>
<trkpt lat="33.8103564" lon="-118.3955583">
  <ele>-25.013</ele>
  <time>2026-09-01T01:14:20Z</time>
  <course>95.72</course>
  <speed>1.0171037311896953</speed>
  <fix>3d</fix>
</trkpt>
<trkpt lat="33.8103541" lon="-118.3955587">
  <ele>-24.41</ele>
  <time>2026-09-01T01:14:20Z</time>
  <course>5.55</course>
  <speed>1.0</speed>
  <fix>3d</fix>
</trkpt>
<trkpt lat="33.8103573" lon="-118.3955582">
  <ele>-25.013</ele>
  <time>2026-09-01T01:14:20Z</time>
  <course>95.84</course>
  <speed>1.0171037311896953</speed>
  <fix>3d</fix>
</trkpt>
<trkpt lat="33.810356" lon="-118.3955584">
  <ele>-24.41</ele>
  <time>2026-09-01T01:14:20Z</time>
  <course>5.86</course>
  <speed>1.0</speed>
  <fix>3d</fix>
</trkpt>
<trkpt lat="33.8103582" lon="-118.395558">
  <ele>-25.013</ele>
  <time>2026-09-01T01:14:20Z</time>
  <course>95.95</course>
  <speed>1.0171037311896953</speed>
  <fix>3d</fix>
</trkpt>
<trkpt lat="33.810356" lon="-118.3955584">
  <ele>-24.41</ele>
  <time>2026-09-01T01:14:20Z</time>
  <course>5.86</course>
  <speed>1.0</speed>
  <fix>3d</fix>
</trkpt>
<trkpt lat="33.8103591" lon="-118.3955579">
  <ele>-25.013</ele>
  <time>2026-09-01T01:14:20Z</time>
  <course>96.07</course>
  <speed>1.0171037311896953</speed>
  <fix>3d</fix>
</trkpt>
<trkpt lat="33.8103577" lon="-118.3955581">
  <ele>-24.41</ele>
  <time>2026-09-01T01:14:20Z</time>
  <course>6.14</course>
  <speed>1.0</speed>
  <fix>3d</fix>
</trkpt>
<trkpt lat="33.81036" lon="-118.3955578">
  <ele>-25.014</ele>
  <time>2026-09-01T01:14:20Z</time>
  <course>96.18</course>
  <speed>1.0171037311896953</speed>
  <fix>3d</fix>
</trkpt>
<trkpt lat="33.8103577" lon="-118.3955581">
  <ele>-24.41</ele>
  <time>2026-09-01T01:14:20Z</time>
  <course>6.14</course>
  <speed>1.0</speed>
  <fix>3d</fix>
</trkpt>
<trkpt lat="33.8103609" lon="-118.3955577">
  <ele>-25.015</ele>
  <time>2026-09-01T01:14:20Z</time>
  <course>96.3</course>
  <speed>1.0183319694480775</speed>
  <fix>3d</fix>
</trkpt>
<trkpt lat="33.8103595" lon="-118.395558">
  <ele>-24.41</ele>
  <time>2026-09-01T01:14:20Z</time>
  <course>6.34</course>
  <speed>0.99</speed>
  <fix>3d</fix>
</trkpt>
<trkpt lat="33.8103618" lon="-118.3955575">
  <ele>-25.015</ele>
  <time>2026-09-01T01:14:20Z</time>
  <course>96.41</course>
  <speed>1.0183319694480775</speed>
  <fix>3d</fix>
</trkpt>
<trkpt lat="33.8103595" lon="-118.395558">
  <ele>-24.41</ele>
  <time>2026-09-01T01:14:20Z</time>
  <course>6.34</course>
  <speed>0.99</speed>
  <fix>3d</fix>
</trkpt>
<trkpt lat="33.8103627" lon="-118.3955574">
  <ele>-25.014</ele>
  <time>2026-09-01T01:14:20Z</time>
  <course>96.53</course>
  <speed>1.0183319694480775</speed>
  <fix>3d</fix>
</trkpt>
<trkpt lat="33.8103612" lon="-118.3955577">
  <ele>-24.41</ele>
  <time>2026-09-01T01:14:20Z</time>
  <course>6.51</course>
  <speed>0.99</speed>
  <fix>3d</fix>
</trkpt>
<trkpt lat="33.8103636" lon="-118.3955573">
  <ele>-25.015</ele>
  <time>2026-09-01T01:14:20Z</time>
  <course>96.64</course>
  <speed>1.0183319694480775</speed>
  <fix>3d</fix>
</trkpt>
<trkpt lat="33.8103612" lon="-118.3955577">
  <ele>-24.41</ele>
  <time>2026-09-01T01:14:20Z</time>
  <course>6.51</course>
  <speed>0.99</speed>
  <fix>3d</fix>
</trkpt>
<trkpt lat="33.8103645" lon="-118.3955572">
  <ele>-25.016</ele>
  <time>2026-09-01T01:14:20Z</time>
  <course>96.76</course>
  <speed>1.0183319694480775</speed>
  <fix>3d</fix>
</trkpt>
<trkpt lat="33.8103631" lon="-118.3955575">
  <ele>-24.41</ele>
  <time>2026-09-01T01:14:20Z</time>
  <course>6.73</course>
  <speed>1.0</speed>
  <fix>3d</fix>
</trkpt>
<trkpt lat="33.8103654" lon="-118.395557">
  <ele>-25.016</ele>
  <time>2026-09-01T01:14:20Z</time>
  <course>96.87</course>
  <speed>1.0196568050084303</speed>
  <fix>3d</fix>
</trkpt>
<trkpt lat="33.8103631" lon="-118.3955575">
  <ele>-24.41</ele>
  <time>2026-09-01T01:14:20Z</time>
  <course>6.73</course>
  <speed>1.0</speed>
  <fix>3d</fix>
</trkpt>
<trkpt lat="33.8103662" lon="-118.3955569">
  <ele>-25.016</ele>
  <time>2026-09-01T01:14:20Z</time>
  <course>96.99</course>
  <speed>1.0196568050084303</speed>
  <fix>3d</fix>
</trkpt>
<trkpt lat="33.8103648" lon="-118.3955572">
  <ele>-24.41</ele>
  <time>2026-09-01T01:14:20Z</time>
  <course>6.97</course>
  <speed>1.0</speed>
  <fix>3d</fix>
</trkpt>
<trkpt lat="33.8103671" lon="-118.3955568">
  <ele>-25.015</ele>
  <time>2026-09-01T01:14:20Z</time>
  <course>97.1</course>
  <speed>1.0196568050084303</speed>
  <fix>3d</fix>
</trkpt>
<trkpt lat="33.8103648" lon="-118.3955572">
  <ele>-24.41</ele>
  <time>2026-09-01T01:14:20Z</time>
  <course>6.97</course>
  <speed>1.0</speed>
  <fix>3d</fix>
</trkpt>
<trkpt lat="33.810368" lon="-118.3955566">
  <ele>-25.013</ele>
  <time>2026-09-01T01:14:20Z</time>
  <course>97.21</course>
  <speed>1.0196568050084303</speed>
  <fix>3d</fix>
</trkpt>
<trkpt lat="33.8103667" lon="-118.3955569">
  <ele>-24.41</ele>
  <time>2026-09-01T01:14:20Z</time>
  <course>7.21</course>
  <speed>1.0</speed>
  <fix>3d</fix>
</trkpt>
<trkpt lat="33.8103689" lon="-118.3955565">
  <ele>-25.012</ele>
  <time>2026-09-01T01:14:20Z</time>
  <course>97.33</course>
  <speed>1.0196568050084303</speed>
  <fix>3d</fix>
</trkpt>
<trkpt lat="33.8103667" lon="-118.3955569">
  <ele>-24.41</ele>
  <time>2026-09-01T01:14:20Z</time>
  <course>7.21</course>
  <speed>1.0</speed>
  <fix>3d</fix>
</trkpt>
<trkpt lat="33.8103698" lon="-118.3955563">
  <ele>-25.012</ele>
  <time>2026-09-01T01:14:20Z</time>
  <course>97.44</course>
  <speed>1.021077861869505</speed>
  <fix>3d</fix>
</trkpt>
<trkpt lat="33.8103684" lon="-118.3955566">
  <ele>-24.41</ele>
  <time>2026-09-01T01:14:20Z</time>
  <course>7.44</course>
  <speed>1.0</speed>
  <fix>3d</fix>
</trkpt>
<trkpt lat="33.8103707" lon="-118.3955562">
  <ele>-25.012</ele>
  <time>2026-09-01T01:14:20Z</time>
  <course>97.56</course>
  <speed>1.021077861869505</speed>
  <fix>3d</fix>
</trkpt>
<trkpt lat="33.8103684" lon="-118.3955566">
  <ele>-24.41</ele>
  <time>2026-09-01T01:14:20Z</time>
  <course>7.44</course>
  <speed>1.0</speed>
  <fix>3d</fix>
</trkpt>
<trkpt lat="33.8103716" lon="-118.395556">
  <ele>-25.013</ele>
  <time>2026-09-01T01:14:20Z</time>
  <course>97.67</course>
  <speed>1.021077861869505</speed>
  <fix>3d</fix>
</trkpt>
<trkpt lat="33.8103702" lon="-118.3955564">
  <ele>-24.41</ele>
  <time>2026-09-01T01:14:20Z</time>
  <course>7.64</course>
  <speed>1.0</speed>
  <fix>3d</fix>
</trkpt>
<trkpt lat="33.8103725" lon="-118.3955559">
  <ele>-25.015</ele>
  <time>2026-09-01T01:14:20Z</time>
  <course>97.79</course>
  <speed>1.021077861869505</speed>
  <fix>3d</fix>
</trkpt>
<trkpt lat="33.8103702" lon="-118.3955564">
  <ele>-24.41</ele>
  <time>2026-09-01T01:14:20Z</time>
  <course>7.64</course>
  <speed>1.0</speed>
  <fix>3d</fix>
</trkpt>
<trkpt lat="33.8103734" lon="-118.3955557">
  <ele>-25.017</ele>
  <time>2026-09-01T01:14:20Z</time>
  <course>97.9</course>
  <speed>1.021077861869505</speed>
  <fix>3d</fix>
</trkpt>
<trkpt lat="33.810372" lon="-118.3955561">
  <ele>-24.41</ele>
  <time>2026-09-01T01:14:20Z</time>
  <course>7.84</course>
  <speed>1.0</speed>
  <fix>3d</fix>
</trkpt>
<trkpt lat="33.8103743" lon="-118.3955556">
  <ele>-25.019</ele>
  <time>2026-09-01T01:14:20Z</time>
  <course>98.01</course>
  <speed>1.0225947388873073</speed>
  <fix>3d</fix>
</trkpt>
<trkpt lat="33.810372" lon="-118.3955561">
  <ele>-24.41</ele>
  <time>2026-09-01T01:14:20Z</time>
  <course>7.84</course>
  <speed>1.0</speed>
  <fix>3d</fix>
</trkpt>
<trkpt lat="33.8103752" lon="-118.3955554">
  <ele>-25.019</ele>
  <time>2026-09-01T01:14:20Z</time>
  <course>98.13</course>
  <speed>1.0225947388873073</speed>
  <fix>3d</fix>
</trkpt>
<trkpt lat="33.8103737" lon="-118.3955558">
  <ele>-24.41</ele>
  <time>2026-09-01T01:14:20Z</time>
  <course>8.09</course>
  <speed>0.99</speed>
  <fix>3d</fix>
</trkpt>
<trkpt lat="33.810376" lon="-118.3955553">
  <ele>-25.018</ele>
  <time>2026-09-01T01:14:20Z</time>
  <course>98.24</course>
  <speed>1.0225947388873073</speed>
  <fix>3d</fix>
</trkpt>
<trkpt lat="33.8103737" lon="-118.3955558">
  <ele>-24.41</ele>
  <time>2026-09-01T01:14:20Z</time>
  <course>8.09</course>
  <speed>0.99</speed>
  <fix>3d</fix>
</trkpt>
<trkpt lat="33.8103769" lon="-118.3955551">
  <ele>-25.017</ele>
  <time>2026-09-01T01:14:20Z</time>
  <course>98.36</course>
  <speed>1.0225947388873073</speed>
  <fix>3d</fix>
</trkpt>
<trkpt lat="33.8103756" lon="-118.3955555">
  <ele>-24.41</ele>
  <time>2026-09-01T01:14:20Z</time>
  <course>8.34</course>
  <speed>1.0</speed>
  <fix>3d</fix>
</trkpt>
<trkpt lat="33.8103778" lon="-118.395555">
  <ele>-25.016</ele>
  <time>2026-09-01T01:14:20Z</time>
  <course>98.47</course>
  <speed>1.0242070103255494</speed>
  <fix>3d</fix>
</trkpt>
<trkpt lat="33.8103756" lon="-118.3955555">
  <ele>-24.41</ele>
  <time>2026-09-01T01:14:20Z</time>
  <course>8.34</course>
  <speed>1.0</speed>
  <fix>3d</fix>
</trkpt>
<trkpt lat="33.8103787" lon="-118.3955548">
  <ele>-25.015</ele>
  <time>2026-09-01T01:14:20Z</time>
  <course>98.59</course>
  <speed>1.014347080638575</speed>
  <fix>3d</fix>
</trkpt>
<trkpt lat="33.8103773" lon="-118.3955551">
  <ele>-24.4</ele>
  <time>2026-09-01T01:14:20Z</time>
  <course>8.6</course>
  <speed>1.0</speed>
  <fix>3d</fix>
</trkpt>
<trkpt lat="33.8103796" lon="-118.3955546">
  <ele>-25.014</ele>
  <time>2026-09-01T01:14:20Z</time>
  <course>98.7</course>
  <speed>1.014347080638575</speed>
  <fix>3d</fix>
</trkpt>
<trkpt lat="33.8103773" lon="-118.3955551">
  <ele>-24.4</ele>
  <time>2026-09-01T01:14:20Z</time>
  <course>8.6</course>
  <speed>1.0</speed>
  <fix>3d</fix>
</trkpt>
<trkpt lat="33.8103805" lon="-118.3955545">
  <ele>-25.013</ele>
  <time>2026-09-01T01:14:20Z</time>
  <course>98.82</course>
  <speed>1.014347080638575</speed>
  <fix>3d</fix>
</trkpt>
<trkpt lat="33.8103791" lon="-118.3955548">
  <ele>-24.4</ele>
  <time>2026-09-01T01:14:20Z</time>
  <course>8.84</course>
  <speed>1.0</speed>
  <fix>3d</fix>
</trkpt>
<trkpt lat="33.8103814" lon="-118.3955543">
  <ele>-25.013</ele>
  <time>2026-09-01T01:14:20Z</time>
  <course>98.93</course>
  <speed>1.014347080638575</speed>
  <fix>3d</fix>
</trkpt>
<trkpt lat="33.8103791" lon="-118.3955548">
  <ele>-24.4</ele>
  <time>2026-09-01T01:14:20Z</time>
  <course>8.84</course>
  <speed>1.0</speed>
  <fix>3d</fix>
</trkpt>
<trkpt lat="33.8103823" lon="-118.3955541">
  <ele>-25.012</ele>
  <time>2026-09-01T01:14:20Z</time>
  <course>99.05</course>
  <speed>1.014347080638575</speed>
  <fix>3d</fix>
</trkpt>
<trkpt lat="33.8103809" lon="-118.3955545">
  <ele>-24.4</ele>
  <time>2026-09-01T01:14:20Z</time>
  <course>9.03</course>
  <speed>1.0</speed>
  <fix>3d</fix>
</trkpt>
<trkpt lat="33.8103832" lon="-118.3955539">
  <ele>-25.011</ele>
  <time>2026-09-01T01:14:20Z</time>
  <course>99.16</course>
  <speed>1.016070863670443</speed>
  <fix>3d</fix>
</trkpt>
<trkpt lat="33.8103809" lon="-118.3955545">
  <ele>-24.4</ele>
  <time>2026-09-01T01:14:20Z</time>
  <course>9.03</course>
  <speed>1.0</speed>
  <fix>3d</fix>
</trkpt>
<trkpt lat="33.8103841" lon="-118.3955538">
  <ele>-25.01</ele>
  <time>2026-09-01T01:14:20Z</time>
  <course>99.28</course>
  <speed>1.016070863670443</speed>
  <fix>3d</fix>
</trkpt>
<trkpt lat="33.8103827" lon="-118.3955542">
  <ele>-24.4</ele>
  <time>2026-09-01T01:14:20Z</time>
  <course>9.23</course>
  <speed>1.0</speed>
  <fix>3d</fix>
</trkpt>
<trkpt lat="33.8103849" lon="-118.3955536">
  <ele>-25.011</ele>
  <time>2026-09-01T01:14:20Z</time>
  <course>99.39</course>
  <speed>1.016070863670443</speed>
  <fix>3d</fix>
</trkpt>
<trkpt lat="33.8103827" lon="-118.3955542">
  <ele>-24.4</ele>
  <time>2026-09-01T01:14:20Z</time>
  <course>9.23</course>
  <speed>1.0</speed>
  <fix>3d</fix>
</trkpt>
<trkpt lat="33.8103858" lon="-118.3955534">
  <ele>-25.011</ele>
  <time>2026-09-01T01:14:20Z</time>
  <course>99.5</course>
  <speed>1.016070863670443</speed>
  <fix>3d</fix>
</trkpt>
<trkpt lat="33.8103844" lon="-118.3955537">
  <ele>-24.4</ele>
  <time>2026-09-01T01:14:20Z</time>
  <course>9.5</course>
  <speed>0.99</speed>
  <fix>3d</fix>
</trkpt>
<trkpt lat="33.8103867" lon="-118.3955532">
  <ele>-25.011</ele>
  <time>2026-09-01T01:14:20Z</time>
  <course>99.62</course>
  <speed>1.0178899744078433</speed>
  <fix>3d</fix>
</trkpt>
<trkpt lat="33.8103844" lon="-118.3955537">
  <ele>-24.4</ele>
  <time>2026-09-01T01:14:20Z</time>
  <course>9.5</course>
  <speed>0.99</speed>
  <fix>3d</fix>
</trkpt>
<trkpt lat="33.8103876" lon="-118.395553">
  <ele>-25.011</ele>
  <time>2026-09-01T01:14:20Z</time>
  <course>99.73</course>
  <speed>1.0178899744078433</speed>
  <fix>3d</fix>
</trkpt>
<trkpt lat="33.8103861" lon="-118.3955534">
  <ele>-24.4</ele>
  <time>2026-09-01T01:14:20Z</time>
  <course>9.74</course>
  <speed>0.99</speed>
  <fix>3d</fix>
</trkpt>
<trkpt lat="33.8103885" lon="-118.3955528">
  <ele>-25.011</ele>
  <time>2026-09-01T01:14:20Z</time>
  <course>99.85</course>
  <speed>1.0178899744078433</speed>
  <fix>3d</fix>
</trkpt>
<trkpt lat="33.8103861" lon="-118.3955534">
  <ele>-24.4</ele>
  <time>2026-09-01T01:14:20Z</time>
  <course>9.74</course>
  <speed>0.99</speed>
  <fix>3d</fix>
</trkpt>
<trkpt lat="33.8103894" lon="-118.3955526">
  <ele>-25.011</ele>
  <time>2026-09-01T01:14:20Z</time>
  <course>99.96</course>
  <speed>1.0178899744078433</speed>
  <fix>3d</fix>
</trkpt>
<trkpt lat="33.810388" lon="-118.3955531">
  <ele>-24.4</ele>
  <time>2026-09-01T01:14:20Z</time>
  <course>9.91</course>
  <speed>1.0</speed>
  <fix>3d</fix>
</trkpt>
<trkpt lat="33.8103902" lon="-118.3955525">
  <ele>-25.012</ele>
  <time>2026-09-01T01:14:20Z</time>
  <course>100.08</course>
  <speed>1.0178899744078433</speed>
  <fix>3d</fix>
</trkpt>
<trkpt lat="33.810388" lon="-118.3955531">
  <ele>-24.4</ele>
  <time>2026-09-01T01:14:20Z</time>
  <course>9.91</course>
  <speed>1.0</speed>
  <fix>3d</fix>
</trkpt>
<trkpt lat="33.8103911" lon="-118.3955523">
  <ele>-25.013</ele>
  <time>2026-09-01T01:14:20Z</time>
  <course>100.19</course>
  <speed>1.0178899744078433</speed>
  <fix>3d</fix>
</trkpt>
<trkpt lat="33.8103897" lon="-118.3955527">
  <ele>-24.4</ele>
  <time>2026-09-01T01:14:20Z</time>
  <course>10.12</course>
  <speed>1.0</speed>
  <fix>3d</fix>
</trkpt>
<trkpt lat="33.810392" lon="-118.3955521">
  <ele>-25.014</ele>
  <time>2026-09-01T01:14:20Z</time>
  <course>100.3</course>
  <speed>1.019803902718557</speed>
  <fix>3d</fix>
</trkpt>
<trkpt lat="33.8103897" lon="-118.3955527">
  <ele>-24.4</ele>
  <time>2026-09-01T01:14:20Z</time>
  <course>10.12</course>
  <speed>1.0</speed>
  <fix>3d</fix>
</trkpt>
<trkpt lat="33.8103929" lon="-118.3955519">
  <ele>-25.014</ele>
  <time>2026-09-01T01:14:20Z</time>
  <course>100.42</course>
  <speed>1.019803902718557</speed>
  <fix>3d</fix>
</trkpt>
<trkpt lat="33.8103915" lon="-118.3955523">
  <ele>-24.4</ele>
  <time>2026-09-01T01:14:20Z</time>
  <course>10.38</course>
  <speed>1.0</speed>
  <fix>3d</fix>
</trkpt>
<trkpt lat="33.8103938" lon="-118.3955517">
  <ele>-25.013</ele>
  <time>2026-09-01T01:14:20Z</time>
  <course>100.53</course>
  <speed>1.019803902718557</speed>
  <fix>3d</fix>
</trkpt>
<trkpt lat="33.8103915" lon="-118.3955523">
  <ele>-24.4</ele>
  <time>2026-09-01T01:14:20Z</time>
  <course>10.38</course>
  <speed>1.0</speed>
  <fix>3d</fix>
</trkpt>
<trkpt lat="33.8103947" lon="-118.3955515">
  <ele>-25.012</ele>
  <time>2026-09-01T01:14:20Z</time>
  <course>100.65</course>
  <speed>1.019803902718557</speed>
  <fix>3d</fix>
</trkpt>
<trkpt lat="33.8103933" lon="-118.3955518">
  <ele>-24.4</ele>
  <time>2026-09-01T01:14:20Z</time>
  <course>10.65</course>
  <speed>1.0</speed>
  <fix>3d</fix>
</trkpt>
<trkpt lat="33.8103955" lon="-118.3955513">
  <ele>-25.011</ele>
  <time>2026-09-01T01:14:20Z</time>
  <course>100.76</course>
  <speed>1.0218121158021176</speed>
  <fix>3d</fix>
</trkpt>
<trkpt lat="33.8103933" lon="-118.3955518">
  <ele>-24.4</ele>
  <time>2026-09-01T01:14:20Z</time>
  <course>10.65</course>
  <speed>1.0</speed>
  <fix>3d</fix>
</trkpt>
<trkpt lat="33.8103964" lon="-118.395551">
  <ele>-25.01</ele>
  <time>2026-09-01T01:14:20Z</time>
  <course>100.88</course>
  <speed>1.0218121158021176</speed>
  <fix>3d</fix>
</trkpt>
<trkpt lat="33.810395" lon="-118.3955515">
  <ele>-24.4</ele>
  <time>2026-09-01T01:14:20Z</time>
  <course>10.86</course>
  <speed>1.0</speed>
  <fix>3d</fix>
</trkpt>
<trkpt lat="33.8103973" lon="-118.3955508">
  <ele>-25.009</ele>
  <time>2026-09-01T01:14:20Z</time>
  <course>101.0</course>
  <speed>1.0218121158021176</speed>
  <fix>3d</fix>
</trkpt>
<trkpt lat="33.810395" lon="-118.3955515">
  <ele>-24.4</ele>
  <time>2026-09-01T01:14:20Z</time>
  <course>10.86</course>
  <speed>1.0</speed>
  <fix>3d</fix>
</trkpt>
<trkpt lat="33.8103982" lon="-118.3955506">
  <ele>-25.01</ele>
  <time>2026-09-01T01:14:20Z</time>
  <course>101.11</course>
  <speed>1.0218121158021176</speed>
  <fix>3d</fix>
</trkpt>
<trkpt lat="33.8103968" lon="-118.3955511">
  <ele>-24.4</ele>
  <time>2026-09-01T01:14:20Z</time>
  <course>11.03</course>
  <speed>1.0</speed>
  <fix>3d</fix>
</trkpt>
<trkpt lat="33.8103991" lon="-118.3955504">
  <ele>-25.011</ele>
  <time>2026-09-01T01:14:20Z</time>
  <course>101.22</course>
  <speed>1.0218121158021176</speed>
  <fix>3d</fix>
</trkpt>
<trkpt lat="33.8103968" lon="-118.3955511">
  <ele>-24.4</ele>
  <time>2026-09-01T01:14:20Z</time>
  <course>11.03</course>
  <speed>1.0</speed>
  <fix>3d</fix>
</trkpt>
<trkpt lat="33.8104" lon="-118.3955502">
  <ele>-25.012</ele>
  <time>2026-09-01T01:14:20Z</time>
  <course>101.34</course>
  <speed>1.0239140588936164</speed>
  <fix>3d</fix>
</trkpt>
<trkpt lat="33.8103986" lon="-118.3955507">
  <ele>-24.4</ele>
  <time>2026-09-01T01:14:20Z</time>
  <course>11.27</course>
  <speed>1.0</speed>
  <fix>3d</fix>
</trkpt>
<trkpt lat="33.8104008" lon="-118.39555">
  <ele>-25.015</ele>
  <time>2026-09-01T01:14:20Z</time>
  <course>101.45</course>
  <speed>1.0239140588936164</speed>
  <fix>3d</fix>
</trkpt>
<trkpt lat="33.8103986" lon="-118.3955507">
  <ele>-24.4</ele>
  <time>2026-09-01T01:14:20Z</time>
  <course>11.27</course>
  <speed>1.0</speed>
  <fix>3d</fix>
</trkpt>
<trkpt lat="33.8104017" lon="-118.3955498">
  <ele>-25.017</ele>
  <time>2026-09-01T01:14:20Z</time>
  <course>101.57</course>
  <speed>1.0239140588936164</speed>
  <fix>3d</fix>
</trkpt>
<trkpt lat="33.8104003" lon="-118.3955503">
  <ele>-24.41</ele>
  <time>2026-09-01T01:14:20Z</time>
  <course>11.54</course>
  <speed>1.0</speed>
  <fix>3d</fix>
</trkpt>
<trkpt lat="33.8104026" lon="-118.3955496">
  <ele>-25.019</ele>
  <time>2026-09-01T01:14:20Z</time>
  <course>101.68</course>
  <speed>1.0239140588936164</speed>
  <fix>3d</fix>
</trkpt>
<trkpt lat="33.8104003" lon="-118.3955503">
  <ele>-24.41</ele>
  <time>2026-09-01T01:14:20Z</time>
  <course>11.54</course>
  <speed>1.0</speed>
  <fix>3d</fix>
</trkpt>
<trkpt lat="33.8104035" lon="-118.3955493">
  <ele>-25.02</ele>
  <time>2026-09-01T01:14:20Z</time>
  <course>101.79</course>
  <speed>1.0261091559868278</speed>
  <fix>3d</fix>
</trkpt>
<trkpt lat="33.8104021" lon="-118.3955498">
  <ele>-24.41</ele>
  <time>2026-09-01T01:14:20Z</time>
  <course>11.84</course>
  <speed>1.0</speed>
  <fix>3d</fix>
</trkpt>
<trkpt lat="33.8104043" lon="-118.3955491">
  <ele>-25.02</ele>
  <time>2026-09-01T01:14:20Z</time>
  <course>101.91</course>
  <speed>1.0261091559868278</speed>
  <fix>3d</fix>
</trkpt>
<trkpt lat="33.8104021" lon="-118.3955498">
  <ele>-24.41</ele>
  <time>2026-09-01T01:14:20Z</time>
  <course>11.84</course>
  <speed>1.0</speed>
  <fix>3d</fix>
</trkpt>
<trkpt lat="33.8104052" lon="-118.3955489">
  <ele>-25.02</ele>
  <time>2026-09-01T01:14:20Z</time>
  <course>102.02</course>
  <speed>1.0261091559868278</speed>
  <fix>3d</fix>
</trkpt>
<trkpt lat="33.8104039" lon="-118.3955494">
  <ele>-24.41</ele>
  <time>2026-09-01T01:14:20Z</time>
  <course>12.13</course>
  <speed>1.0</speed>
  <fix>3d</fix>
</trkpt>
<trkpt lat="33.8104061" lon="-118.3955487">
  <ele>-25.018</ele>
  <time>2026-09-01T01:14:20Z</time>
  <course>102.14</course>
  <speed>1.0261091559868278</speed>
  <fix>3d</fix>
</trkpt>
<trkpt lat="33.8104039" lon="-118.3955494">
  <ele>-24.41</ele>
  <time>2026-09-01T01:14:20Z</time>
  <course>12.13</course>
  <speed>1.0</speed>
  <fix>3d</fix>
</trkpt>
<trkpt lat="33.810407" lon="-118.3955484">
  <ele>-25.015</ele>
  <time>2026-09-01T01:14:20Z</time>
  <course>102.25</course>
  <speed>1.016366075781753</speed>
  <fix>3d</fix>
</trkpt>
<trkpt lat="33.8104057" lon="-118.3955489">
  <ele>-24.4</ele>
  <time>2026-09-01T01:14:20Z</time>
  <course>12.38</course>
  <speed>1.0</speed>
  <fix>3d</fix>
</trkpt>
<trkpt lat="33.8104079" lon="-118.3955482">
  <ele>-25.013</ele>
  <time>2026-09-01T01:14:20Z</time>
  <course>102.37</course>
  <speed>1.0186756107809787</speed>
  <fix>3d</fix>
</trkpt>
<trkpt lat="33.8104057" lon="-118.3955489">
  <ele>-24.4</ele>
  <time>2026-09-01T01:14:20Z</time>
  <course>12.38</course>
  <speed>1.0</speed>
  <fix>3d</fix>
</trkpt>
<trkpt lat="33.8104087" lon="-118.3955479">
  <ele>-25.01</ele>
  <time>2026-09-01T01:14:20Z</time>
  <course>102.48</course>
  <speed>1.0186756107809787</speed>
  <fix>3d</fix>
</trkpt>
<trkpt lat="33.8104074" lon="-118.3955484">
  <ele>-24.4</ele>
  <time>2026-09-01T01:14:20Z</time>
  <course>12.62</course>
  <speed>1.0</speed>
  <fix>3d</fix>
</trkpt>
<trkpt lat="33.8104096" lon="-118.3955477">
  <ele>-25.009</ele>
  <time>2026-09-01T01:14:20Z</time>
  <course>102.6</course>
  <speed>1.0186756107809787</speed>
  <fix>3d</fix>
</trkpt>
<trkpt lat="33.8104074" lon="-118.3955484">
  <ele>-24.4</ele>
  <time>2026-09-01T01:14:20Z</time>
  <course>12.62</course>
  <speed>1.0</speed>
  <fix>3d</fix>
</trkpt>
<trkpt lat="33.8104105" lon="-118.3955475">
  <ele>-25.008</ele>
  <time>2026-09-01T01:14:20Z</time>
  <course>102.71</course>
  <speed>1.0186756107809787</speed>
  <fix>3d</fix>
</trkpt>
<trkpt lat="33.8104091" lon="-118.3955479">
  <ele>-24.4</ele>
  <time>2026-09-01T01:14:20Z</time>
  <course>12.83</course>
  <speed>1.0</speed>
  <fix>3d</fix>
</trkpt>
<trkpt lat="33.8104114" lon="-118.3955472">
  <ele>-25.008</ele>
  <time>2026-09-01T01:14:20Z</time>
  <course>102.83</course>
  <speed>1.0186756107809787</speed>
  <fix>3d</fix>
</trkpt>
<trkpt lat="33.8104091" lon="-118.3955479">
  <ele>-24.4</ele>
  <time>2026-09-01T01:14:20Z</time>
  <course>12.83</course>
  <speed>1.0</speed>
  <fix>3d</fix>
</trkpt>
<trkpt lat="33.8104122" lon="-118.395547">
  <ele>-25.008</ele>
  <time>2026-09-01T01:14:20Z</time>
  <course>102.94</course>
  <speed>1.0186756107809787</speed>
  <fix>3d</fix>
</trkpt>
<trkpt lat="33.810411" lon="-118.3955474">
  <ele>-24.4</ele>
  <time>2026-09-01T01:14:20Z</time>
  <course>13.0</course>
  <speed>1.0</speed>
  <fix>3d</fix>
</trkpt>
<trkpt lat="33.8104131" lon="-118.3955467">
  <ele>-25.008</ele>
  <time>2026-09-01T01:14:20Z</time>
  <course>103.06</course>
  <speed>1.021077861869505</speed>
  <fix>3d</fix>
</trkpt>
<trkpt lat="33.810411" lon="-118.3955474">
  <ele>-24.4</ele>
  <time>2026-09-01T01:14:20Z</time>
  <course>13.0</course>
  <speed>1.0</speed>
  <fix>3d</fix>
</trkpt>
<trkpt lat="33.810414" lon="-118.3955465">
  <ele>-25.009</ele>
  <time>2026-09-01T01:14:20Z</time>
  <course>103.17</course>
  <speed>1.021077861869505</speed>
  <fix>3d</fix>
</trkpt>
<trkpt lat="33.8104127" lon="-118.3955469">
  <ele>-24.4</ele>
  <time>2026-09-01T01:14:20Z</time>
  <course>13.15</course>
  <speed>1.0</speed>
  <fix>3d</fix>
</trkpt>
<trkpt lat="33.8104149" lon="-118.3955462">
  <ele>-25.01</ele>
  <time>2026-09-01T01:14:20Z</time>
  <course>103.29</course>
  <speed>1.021077861869505</speed>
  <fix>3d</fix>
</trkpt>
<trkpt lat="33.8104127" lon="-118.3955469">
  <ele>-24.4</ele>
  <time>2026-09-01T01:14:20Z</time>
  <course>13.15</course>
  <speed>1.0</speed>
  <fix>3d</fix>
</trkpt>
<trkpt lat="33.8104157" lon="-118.395546">
  <ele>-25.01</ele>
  <time>2026-09-01T01:14:20Z</time>
  <course>103.4</course>
  <speed>1.021077861869505</speed>
  <fix>3d</fix>
</trkpt>
<trkpt lat="33.8104144" lon="-118.3955464">
  <ele>-24.4</ele>
  <time>2026-09-01T01:14:20Z</time>
  <course>13.3</course>
  <speed>1.0</speed>
  <fix>3d</fix>
</trkpt>
<trkpt lat="33.8104166" lon="-118.3955457">
  <ele>-25.011</ele>
  <time>2026-09-01T01:14:20Z</time>
  <course>103.51</course>
  <speed>1.021077861869505</speed>
  <fix>3d</fix>
</trkpt>
<trkpt lat="33.8104144" lon="-118.3955464">
  <ele>-24.4</ele>
  <time>2026-09-01T01:14:20Z</time>
  <course>13.3</course>
  <speed>1.0</speed>
  <fix>3d</fix>
</trkpt>
<trkpt lat="33.8104175" lon="-118.3955454">
  <ele>-25.011</ele>
  <time>2026-09-01T01:14:20Z</time>
  <course>103.63</course>
  <speed>1.021077861869505</speed>
  <fix>3d</fix>
</trkpt>
<trkpt lat="33.8104162" lon="-118.3955459">
  <ele>-24.41</ele>
  <time>2026-09-01T01:14:20Z</time>
  <course>13.46</course>
  <speed>1.0</speed>
  <fix>3d</fix>
</trkpt>
<trkpt lat="33.8104184" lon="-118.3955452">
  <ele>-25.011</ele>
  <time>2026-09-01T01:14:20Z</time>
  <course>103.75</course>
  <speed>1.0235721762533407</speed>
  <fix>3d</fix>
</trkpt>
<trkpt lat="33.8104162" lon="-118.3955459">
  <ele>-24.41</ele>
  <time>2026-09-01T01:14:20Z</time>
  <course>13.46</course>
  <speed>1.0</speed>
  <fix>3d</fix>
</trkpt>
<trkpt lat="33.8104192" lon="-118.3955449">
  <ele>-25.012</ele>
  <time>2026-09-01T01:14:20Z</time>
  <course>103.86</course>
  <speed>1.0139033484509261</speed>
  <fix>3d</fix>
</trkpt>
<trkpt lat="33.810418" lon="-118.3955454">
  <ele>-24.41</ele>
  <time>2026-09-01T01:14:20Z</time>
  <course>13.65</course>
  <speed>1.0</speed>
  <fix>3d</fix>
</trkpt>
<trkpt lat="33.8104201" lon="-118.3955447">
  <ele>-25.015</ele>
  <time>2026-09-01T01:14:20Z</time>
  <course>103.97</course>
  <speed>1.0139033484509261</speed>
  <fix>3d</fix>
</trkpt>
<trkpt lat="33.810418" lon="-118.3955454">
  <ele>-24.41</ele>
  <time>2026-09-01T01:14:20Z</time>
  <course>13.65</course>
  <speed>1.0</speed>
  <fix>3d</fix>
</trkpt>
<trkpt lat="33.810421" lon="-118.3955444">
  <ele>-25.018</ele>
  <time>2026-09-01T01:14:20Z</time>
  <course>104.09</course>
  <speed>1.0139033484509261</speed>
  <fix>3d</fix>
</trkpt>
<trkpt lat="33.8104197" lon="-118.3955449">
  <ele>-24.41</ele>
  <time>2026-09-01T01:14:20Z</time>
  <course>13.88</course>
  <speed>1.0</speed>
  <fix>3d</fix>
</trkpt>
<trkpt lat="33.8104219" lon="-118.3955441">
  <ele>-25.02</ele>
  <time>2026-09-01T01:14:20Z</time>
  <course>104.21</course>
  <speed>1.0139033484509261</speed>
  <fix>3d</fix>
</trkpt>
<trkpt lat="33.8104197" lon="-118.3955449">
  <ele>-24.41</ele>
  <time>2026-09-01T01:14:20Z</time>
  <course>13.88</course>
  <speed>1.0</speed>
  <fix>3d</fix>
</trkpt>
<trkpt lat="33.8104227" lon="-118.3955439">
  <ele>-25.021</ele>
  <time>2026-09-01T01:14:20Z</time>
  <course>104.32</course>
  <speed>1.0165136496870073</speed>
  <fix>3d</fix>
</trkpt>
<trkpt lat="33.8104215" lon="-118.3955444">
  <ele>-24.42</ele>
  <time>2026-09-01T01:14:20Z</time>
  <course>14.13</course>
  <speed>1.0</speed>
  <fix>3d</fix>
</trkpt>
<trkpt lat="33.8104236" lon="-118.3955436">
  <ele>-25.022</ele>
  <time>2026-09-01T01:14:20Z</time>
  <course>104.43</course>
  <speed>1.0165136496870073</speed>
  <fix>3d</fix>
</trkpt>
<trkpt lat="33.8104215" lon="-118.3955444">
  <ele>-24.42</ele>
  <time>2026-09-01T01:14:20Z</time>
  <course>14.13</course>
  <speed>1.0</speed>
  <fix>3d</fix>
</trkpt>
<trkpt lat="33.8104245" lon="-118.3955433">
  <ele>-25.022</ele>
  <time>2026-09-01T01:14:20Z</time>
  <course>104.55</course>
  <speed>1.0165136496870073</speed>
  <fix>3d</fix>
</trkpt>
<trkpt lat="33.8104232" lon="-118.3955439">
  <ele>-24.42</ele>
  <time>2026-09-01T01:14:20Z</time>
  <course>14.43</course>
  <speed>1.0</speed>
  <fix>3d</fix>
</trkpt>
<trkpt lat="33.8104253" lon="-118.395543">
  <ele>-25.022</ele>
  <time>2026-09-01T01:14:20Z</time>
  <course>104.66</course>
  <speed>1.0165136496870073</speed>
  <fix>3d</fix>
</trkpt>
<trkpt lat="33.8104232" lon="-118.3955439">
  <ele>-24.42</ele>
  <time>2026-09-01T01:14:20Z</time>
  <course>14.43</course>
  <speed>1.0</speed>
  <fix>3d</fix>
</trkpt>
<trkpt lat="33.8104262" lon="-118.3955428">
  <ele>-25.021</ele>
  <time>2026-09-01T01:14:20Z</time>
  <course>104.78</course>
  <speed>1.0192153844992726</speed>
  <fix>3d</fix>
</trkpt>
<trkpt lat="33.8104249" lon="-118.3955433">
  <ele>-24.41</ele>
  <time>2026-09-01T01:14:20Z</time>
  <course>14.74</course>
  <speed>1.0</speed>
  <fix>3d</fix>
</trkpt>
<trkpt lat="33.8104271" lon="-118.3955425">
  <ele>-25.02</ele>
  <time>2026-09-01T01:14:20Z</time>
  <course>104.89</course>
  <speed>1.0192153844992726</speed>
  <fix>3d</fix>
</trkpt>
<trkpt lat="33.8104249" lon="-118.3955433">
  <ele>-24.41</ele>
  <time>2026-09-01T01:14:20Z</time>
  <course>14.74</course>
  <speed>1.0</speed>
  <fix>3d</fix>
</trkpt>
<trkpt lat="33.8104279" lon="-118.3955422">
  <ele>-25.018</ele>
  <time>2026-09-01T01:14:20Z</time>
  <course>105.01</course>
  <speed>1.0192153844992726</speed>
  <fix>3d</fix>
</trkpt>
<trkpt lat="33.8104267" lon="-118.3955427">
  <ele>-24.41</ele>
  <time>2026-09-01T01:14:20Z</time>
  <course>15.02</course>
  <speed>1.0</speed>
  <fix>3d</fix>
</trkpt>
<trkpt lat="33.8104288" lon="-118.3955419">
  <ele>-25.017</ele>
  <time>2026-09-01T01:14:20Z</time>
  <course>105.12</course>
  <speed>1.0192153844992726</speed>
  <fix>3d</fix>
</trkpt>
<trkpt lat="33.8104267" lon="-118.3955427">
  <ele>-24.41</ele>
  <time>2026-09-01T01:14:20Z</time>
  <course>15.02</course>
  <speed>1.0</speed>
  <fix>3d</fix>
</trkpt>
<trkpt lat="33.8104297" lon="-118.3955416">
  <ele>-25.015</ele>
  <time>2026-09-01T01:14:20Z</time>
  <course>105.24</course>
  <speed>1.0192153844992726</speed>
  <fix>3d</fix>
</trkpt>
<trkpt lat="33.8104284" lon="-118.3955422">
  <ele>-24.4</ele>
  <time>2026-09-01T01:14:20Z</time>
  <course>15.25</course>
  <speed>1.0</speed>
  <fix>3d</fix>
</trkpt>
<trkpt lat="33.8104305" lon="-118.3955413">
  <ele>-25.013</ele>
  <time>2026-09-01T01:14:20Z</time>
  <course>105.35</course>
  <speed>1.0220078277586722</speed>
  <fix>3d</fix>
</trkpt>
<trkpt lat="33.8104284" lon="-118.3955422">
  <ele>-24.4</ele>
  <time>2026-09-01T01:14:20Z</time>
  <course>15.25</course>
  <speed>1.0</speed>
  <fix>3d</fix>
</trkpt>
<trkpt lat="33.8104314" lon="-118.395541">
  <ele>-25.011</ele>
  <time>2026-09-01T01:14:20Z</time>
  <course>105.47</course>
  <speed>1.0124228365658294</speed>
  <fix>3d</fix>
</trkpt>
<trkpt lat="33.8104302" lon="-118.3955416">
  <ele>-24.4</ele>
  <time>2026-09-01T01:14:20Z</time>
  <course>15.48</course>
  <speed>1.0</speed>
  <fix>3d</fix>
</trkpt>
<trkpt lat="33.8104323" lon="-118.3955407">
  <ele>-25.011</ele>
  <time>2026-09-01T01:14:20Z</time>
  <course>105.58</course>
  <speed>1.0124228365658294</speed>
  <fix>3d</fix>
</trkpt>
<trkpt lat="33.8104302" lon="-118.3955416">
  <ele>-24.4</ele>
  <time>2026-09-01T01:14:20Z</time>
  <course>15.48</course>
  <speed>1.0</speed>
  <fix>3d</fix>
</trkpt>
<trkpt lat="33.8104331" lon="-118.3955405">
  <ele>-25.012</ele>
  <time>2026-09-01T01:14:20Z</time>
  <course>105.7</course>
  <speed>1.0124228365658294</speed>
  <fix>3d</fix>
</trkpt>
<trkpt lat="33.8104319" lon="-118.3955411">
  <ele>-24.4</ele>
  <time>2026-09-01T01:14:20Z</time>
  <course>15.73</course>
  <speed>1.0</speed>
  <fix>3d</fix>
</trkpt>
<trkpt lat="33.810434" lon="-118.3955402">
  <ele>-25.012</ele>
  <time>2026-09-01T01:14:20Z</time>
  <course>105.81</course>
  <speed>1.0124228365658294</speed>
  <fix>3d</fix>
</trkpt>
<trkpt lat="33.8104319" lon="-118.3955411">
  <ele>-24.4</ele>
  <time>2026-09-01T01:14:20Z</time>
  <course>15.73</course>
  <speed>1.0</speed>
  <fix>3d</fix>
</trkpt>
<trkpt lat="33.8104349" lon="-118.3955399">
  <ele>-25.011</ele>
  <time>2026-09-01T01:14:20Z</time>
  <course>105.92</course>
  <speed>1.015332457867865</speed>
  <fix>3d</fix>
</trkpt>
<trkpt lat="33.8104337" lon="-118.3955405">
  <ele>-24.4</ele>
  <time>2026-09-01T01:14:20Z</time>
  <course>16.03</course>
  <speed>1.0</speed>
  <fix>3d</fix>
</trkpt>
<trkpt lat="33.8104357" lon="-118.3955396">
  <ele>-25.011</ele>
  <time>2026-09-01T01:14:20Z</time>
  <course>106.04</course>
  <speed>1.015332457867865</speed>
  <fix>3d</fix>
</trkpt>
<trkpt lat="33.8104337" lon="-118.3955405">
  <ele>-24.4</ele>
  <time>2026-09-01T01:14:20Z</time>
  <course>16.03</course>
  <speed>1.0</speed>
  <fix>3d</fix>
</trkpt>
<trkpt lat="33.8104366" lon="-118.3955393">
  <ele>-25.012</ele>
  <time>2026-09-01T01:14:20Z</time>
  <course>106.15</course>
  <speed>1.015332457867865</speed>
  <fix>3d</fix>
</trkpt>
<trkpt lat="33.8104354" lon="-118.3955399">
  <ele>-24.4</ele>
  <time>2026-09-01T01:14:20Z</time>
  <course>16.33</course>
  <speed>1.0</speed>
  <fix>3d</fix>
</trkpt>
<trkpt lat="33.8104375" lon="-118.395539">
  <ele>-25.013</ele>
  <time>2026-09-01T01:14:20Z</time>
  <course>106.27</course>
  <speed>1.015332457867865</speed>
  <fix>3d</fix>
</trkpt>
<trkpt lat="33.8104354" lon="-118.3955399">
  <ele>-24.4</ele>
  <time>2026-09-01T01:14:20Z</time>
  <course>16.33</course>
  <speed>1.0</speed>
  <fix>3d</fix>
</trkpt>
<trkpt lat="33.8104383" lon="-118.3955386">
  <ele>-25.013</ele>
  <time>2026-09-01T01:14:20Z</time>
  <course>106.38</course>
  <speed>1.0183319694480775</speed>
  <fix>3d</fix>
</trkpt>
<trkpt lat="33.8104371" lon="-118.3955393">
  <ele>-24.4</ele>
  <time>2026-09-01T01:14:20Z</time>
  <course>16.65</course>
  <speed>1.0</speed>
  <fix>3d</fix>
</trkpt>
<trkpt lat="33.8104392" lon="-118.3955383">
  <ele>-25.013</ele>
  <time>2026-09-01T01:14:20Z</time>
  <course>106.49</course>
  <speed>1.0183319694480775</speed>
  <fix>3d</fix>
</trkpt>
<trkpt lat="33.8104371" lon="-118.3955393">
  <ele>-24.4</ele>
  <time>2026-09-01T01:14:20Z</time>
  <course>16.65</course>
  <speed>1.0</speed>
  <fix>3d</fix>
</trkpt>
<trkpt lat="33.8104401" lon="-118.395538">
  <ele>-25.012</ele>
  <time>2026-09-01T01:14:20Z</time>
  <course>106.61</course>
  <speed>1.0183319694480775</speed>
  <fix>3d</fix>
</trkpt>
<trkpt lat="33.8104388" lon="-118.3955386">
  <ele>-24.4</ele>
  <time>2026-09-01T01:14:20Z</time>
  <course>16.96</course>
  <speed>0.99</speed>
  <fix>3d</fix>
</trkpt>
<trkpt lat="33.8104409" lon="-118.3955377">
  <ele>-25.011</ele>
  <time>2026-09-01T01:14:20Z</time>
  <course>106.72</course>
  <speed>1.0183319694480775</speed>
  <fix>3d</fix>
</trkpt>
<trkpt lat="33.8104388" lon="-118.3955386">
  <ele>-24.4</ele>
  <time>2026-09-01T01:14:20Z</time>
  <course>16.96</course>
  <speed>0.99</speed>
  <fix>3d</fix>
</trkpt>
<trkpt lat="33.8104418" lon="-118.3955374">
  <ele>-25.009</ele>
  <time>2026-09-01T01:14:20Z</time>
  <course>106.84</course>
  <speed>1.0183319694480775</speed>
  <fix>3d</fix>
</trkpt>
<trkpt lat="33.8104405" lon="-118.3955379">
  <ele>-24.4</ele>
  <time>2026-09-01T01:14:20Z</time>
  <course>17.22</course>
  <speed>1.0</speed>
  <fix>3d</fix>
</trkpt>
<trkpt lat="33.8104426" lon="-118.3955371">
  <ele>-25.009</ele>
  <time>2026-09-01T01:14:20Z</time>
  <course>106.95</course>
  <speed>1.0183319694480775</speed>
  <fix>3d</fix>
</trkpt>
<trkpt lat="33.8104405" lon="-118.3955379">
  <ele>-24.4</ele>
  <time>2026-09-01T01:14:20Z</time>
  <course>17.22</course>
  <speed>1.0</speed>
  <fix>3d</fix>
</trkpt>
<trkpt lat="33.8104435" lon="-118.3955367">
  <ele>-25.01</ele>
  <time>2026-09-01T01:14:20Z</time>
  <course>107.06</course>
  <speed>1.0088111815399352</speed>
  <fix>3d</fix>
</trkpt>
<trkpt lat="33.8104422" lon="-118.3955373">
  <ele>-24.4</ele>
  <time>2026-09-01T01:14:20Z</time>
  <course>17.38</course>
  <speed>1.0</speed>
  <fix>3d</fix>
</trkpt>
<trkpt lat="33.8104444" lon="-118.3955364">
  <ele>-25.011</ele>
  <time>2026-09-01T01:14:20Z</time>
  <course>107.18</course>
  <speed>1.0119288512538815</speed>
  <fix>3d</fix>
</trkpt>
<trkpt lat="33.8104422" lon="-118.3955373">
  <ele>-24.4</ele>
  <time>2026-09-01T01:14:20Z</time>
  <course>17.38</course>
  <speed>1.0</speed>
  <fix>3d</fix>
</trkpt>
<trkpt lat="33.8104452" lon="-118.3955361">
  <ele>-25.011</ele>
  <time>2026-09-01T01:14:20Z</time>
  <course>107.3</course>
  <speed>1.0119288512538815</speed>
  <fix>3d</fix>
</trkpt>
<trkpt lat="33.810444" lon="-118.3955367">
  <ele>-24.4</ele>
  <time>2026-09-01T01:14:20Z</time>
  <course>17.48</course>
  <speed>1.0</speed>
  <fix>3d</fix>
</trkpt>
<trkpt lat="33.8104461" lon="-118.3955358">
  <ele>-25.012</ele>
  <time>2026-09-01T01:14:20Z</time>
  <course>107.41</course>
  <speed>1.0119288512538815</speed>
  <fix>3d</fix>
</trkpt>
<trkpt lat="33.810444" lon="-118.3955367">
  <ele>-24.4</ele>
  <time>2026-09-01T01:14:20Z</time>
  <course>17.48</course>
  <speed>1.0</speed>
  <fix>3d</fix>
</trkpt>
<trkpt lat="33.8104469" lon="-118.3955354">
  <ele>-25.013</ele>
  <time>2026-09-01T01:14:20Z</time>
  <course>107.53</course>
  <speed>1.0119288512538815</speed>
  <fix>3d</fix>
</trkpt>
<trkpt lat="33.8104457" lon="-118.395536">
  <ele>-24.4</ele>
  <time>2026-09-01T01:14:20Z</time>
  <course>17.62</course>
  <speed>1.0</speed>
  <fix>3d</fix>
</trkpt>
<trkpt lat="33.8104478" lon="-118.3955351">
  <ele>-25.013</ele>
  <time>2026-09-01T01:14:20Z</time>
  <course>107.64</course>
  <speed>1.0119288512538815</speed>
  <fix>3d</fix>
</trkpt>
<trkpt lat="33.8104457" lon="-118.395536">
  <ele>-24.4</ele>
  <time>2026-09-01T01:14:20Z</time>
  <course>17.62</course>
  <speed>1.0</speed>
  <fix>3d</fix>
</trkpt>
<trkpt lat="33.8104486" lon="-118.3955348">
  <ele>-25.014</ele>
  <time>2026-09-01T01:14:20Z</time>
  <course>107.76</course>
  <speed>1.0119288512538815</speed>
  <fix>3d</fix>
</trkpt>
<trkpt lat="33.8104474" lon="-118.3955354">
  <ele>-24.41</ele>
  <time>2026-09-01T01:14:20Z</time>
  <course>17.82</course>
  <speed>0.99</speed>
  <fix>3d</fix>
</trkpt>
<trkpt lat="33.8104495" lon="-118.3955344">
  <ele>-25.016</ele>
  <time>2026-09-01T01:14:20Z</time>
  <course>107.87</course>
  <speed>1.0151354589413177</speed>
  <fix>3d</fix>
</trkpt>
<trkpt lat="33.8104474" lon="-118.3955354">
  <ele>-24.41</ele>
  <time>2026-09-01T01:14:20Z</time>
  <course>17.82</course>
  <speed>0.99</speed>
  <fix>3d</fix>
</trkpt>
<trkpt lat="33.8104503" lon="-118.3955341">
  <ele>-25.017</ele>
  <time>2026-09-01T01:14:20Z</time>
  <course>107.99</course>
  <speed>1.0151354589413177</speed>
  <fix>3d</fix>
</trkpt>
<trkpt lat="33.8104491" lon="-118.3955347">
  <ele>-24.41</ele>
  <time>2026-09-01T01:14:20Z</time>
  <course>18.06</course>
  <speed>0.99</speed>
  <fix>3d</fix>
</trkpt>
<trkpt lat="33.8104512" lon="-118.3955338">
  <ele>-25.017</ele>
  <time>2026-09-01T01:14:20Z</time>
  <course>108.1</course>
  <speed>1.0151354589413177</speed>
  <fix>3d</fix>
</trkpt>
<trkpt lat="33.8104491" lon="-118.3955347">
  <ele>-24.41</ele>
  <time>2026-09-01T01:14:20Z</time>
  <course>18.06</course>
  <speed>0.99</speed>
  <fix>3d</fix>
</trkpt>
<trkpt lat="33.8104521" lon="-118.3955334">
  <ele>-25.018</ele>
  <time>2026-09-01T01:14:20Z</time>
  <course>108.21</course>
  <speed>1.0151354589413177</speed>
  <fix>3d</fix>
</trkpt>
<trkpt lat="33.8104508" lon="-118.395534">
  <ele>-24.41</ele>
  <time>2026-09-01T01:14:20Z</time>
  <course>18.31</course>
  <speed>0.99</speed>
  <fix>3d</fix>
</trkpt>
<trkpt lat="33.8104529" lon="-118.3955331">
  <ele>-25.018</ele>
  <time>2026-09-01T01:14:20Z</time>
  <course>108.33</course>
  <speed>1.0151354589413177</speed>
  <fix>3d</fix>
</trkpt>
<trkpt lat="33.8104508" lon="-118.395534">
  <ele>-24.41</ele>
  <time>2026-09-01T01:14:20Z</time>
  <course>18.31</course>
  <speed>0.99</speed>
  <fix>3d</fix>
</trkpt>
<trkpt lat="33.8104538" lon="-118.3955327">
  <ele>-25.018</ele>
  <time>2026-09-01T01:14:20Z</time>
  <course>108.44</course>
  <speed>1.0184301645179212</speed>
  <fix>3d</fix>
</trkpt>
<trkpt lat="33.8104525" lon="-118.3955333">
  <ele>-24.4</ele>
  <time>2026-09-01T01:14:20Z</time>
  <course>18.52</course>
  <speed>0.99</speed>
  <fix>3d</fix>
</trkpt>
<trkpt lat="33.8104546" lon="-118.3955324">
  <ele>-25.018</ele>
  <time>2026-09-01T01:14:20Z</time>
  <course>108.56</course>
  <speed>1.0184301645179212</speed>
  <fix>3d</fix>
</trkpt>
<trkpt lat="33.8104525" lon="-118.3955333">
  <ele>-24.4</ele>
  <time>2026-09-01T01:14:20Z</time>
  <course>18.52</course>
  <speed>0.99</speed>
  <fix>3d</fix>
</trkpt>
<trkpt lat="33.8104555" lon="-118.395532">
  <ele>-25.017</ele>
  <time>2026-09-01T01:14:20Z</time>
  <course>108.67</course>
  <speed>1.0184301645179212</speed>
  <fix>3d</fix>
</trkpt>
<trkpt lat="33.8104542" lon="-118.3955326">
  <ele>-24.4</ele>
  <time>2026-09-01T01:14:20Z</time>
  <course>18.71</course>
  <speed>0.99</speed>
  <fix>3d</fix>
</trkpt>
<trkpt lat="33.8104563" lon="-118.3955317">
  <ele>-25.015</ele>
  <time>2026-09-01T01:14:20Z</time>
  <course>108.79</course>
  <speed>1.0184301645179212</speed>
  <fix>3d</fix>
</trkpt>
<trkpt lat="33.8104542" lon="-118.3955326">
  <ele>-24.4</ele>
  <time>2026-09-01T01:14:20Z</time>
  <course>18.71</course>
  <speed>0.99</speed>
  <fix>3d</fix>
</trkpt>
<trkpt lat="33.8104572" lon="-118.3955313">
  <ele>-25.012</ele>
  <time>2026-09-01T01:14:20Z</time>
  <course>108.9</course>
  <speed>1.0184301645179212</speed>
  <fix>3d</fix>
</trkpt>
<trkpt lat="33.8104559" lon="-118.3955319">
  <ele>-24.4</ele>
  <time>2026-09-01T01:14:20Z</time>
  <course>18.88</course>
  <speed>0.99</speed>
  <fix>3d</fix>
</trkpt>
<trkpt lat="33.810458" lon="-118.395531">
  <ele>-25.009</ele>
  <time>2026-09-01T01:14:20Z</time>
  <course>109.02</course>
  <speed>1.0184301645179212</speed>
  <fix>3d</fix>
</trkpt>
<trkpt lat="33.8104559" lon="-118.3955319">
  <ele>-24.4</ele>
  <time>2026-09-01T01:14:20Z</time>
  <course>18.88</course>
  <speed>0.99</speed>
  <fix>3d</fix>
</trkpt>
<trkpt lat="33.8104589" lon="-118.3955306">
  <ele>-25.008</ele>
  <time>2026-09-01T01:14:20Z</time>
  <course>109.13</course>
  <speed>1.0090094152187086</speed>
  <fix>3d</fix>
</trkpt>
<trkpt lat="33.8104576" lon="-118.3955312">
  <ele>-24.4</ele>
  <time>2026-09-01T01:14:20Z</time>
  <course>19.05</course>
  <speed>0.99</speed>
  <fix>3d</fix>
</trkpt>
<trkpt lat="33.8104597" lon="-118.3955302">
  <ele>-25.009</ele>
  <time>2026-09-01T01:14:20Z</time>
  <course>109.24</course>
  <speed>1.0124228365658294</speed>
  <fix>3d</fix>
</trkpt>
<trkpt lat="33.8104576" lon="-118.3955312">
  <ele>-24.4</ele>
  <time>2026-09-01T01:14:20Z</time>
  <course>19.05</course>
  <speed>0.99</speed>
  <fix>3d</fix>
</trkpt>
<trkpt lat="33.8104606" lon="-118.3955299">
  <ele>-25.01</ele>
  <time>2026-09-01T01:14:20Z</time>
  <course>109.36</course>
  <speed>1.0124228365658294</speed>
  <fix>3d</fix>
</trkpt>
<trkpt lat="33.8104593" lon="-118.3955305">
  <ele>-24.4</ele>
  <time>2026-09-01T01:14:20Z</time>
  <course>19.22</course>
  <speed>0.99</speed>
  <fix>3d</fix>
</trkpt>
<trkpt lat="33.8104614" lon="-118.3955295">
  <ele>-25.011</ele>
  <time>2026-09-01T01:14:20Z</time>
  <course>109.48</course>
  <speed>1.0124228365658294</speed>
  <fix>3d</fix>
</trkpt>
<trkpt lat="33.8104593" lon="-118.3955305">
  <ele>-24.4</ele>
  <time>2026-09-01T01:14:20Z</time>
  <course>19.22</course>
  <speed>0.99</speed>
  <fix>3d</fix>
</trkpt>
<trkpt lat="33.8104622" lon="-118.3955291">
  <ele>-25.011</ele>
  <time>2026-09-01T01:14:20Z</time>
  <course>109.59</course>
  <speed>1.0124228365658294</speed>
  <fix>3d</fix>
</trkpt>
<trkpt lat="33.810461" lon="-118.3955298">
  <ele>-24.4</ele>
  <time>2026-09-01T01:14:20Z</time>
  <course>19.42</course>
  <speed>0.99</speed>
  <fix>3d</fix>
</trkpt>
<trkpt lat="33.8104631" lon="-118.3955288">
  <ele>-25.011</ele>
  <time>2026-09-01T01:14:20Z</time>
  <course>109.71</course>
  <speed>1.0124228365658294</speed>
  <fix>3d</fix>
</trkpt>
<trkpt lat="33.810461" lon="-118.3955298">
  <ele>-24.4</ele>
  <time>2026-09-01T01:14:20Z</time>
  <course>19.42</course>
  <speed>0.99</speed>
  <fix>3d</fix>
</trkpt>
<trkpt lat="33.8104639" lon="-118.3955284">
  <ele>-25.011</ele>
  <time>2026-09-01T01:14:20Z</time>
  <course>109.82</course>
  <speed>1.0159232254457027</speed>
  <fix>3d</fix>
</trkpt>
<trkpt lat="33.8104627" lon="-118.3955291">
  <ele>-24.4</ele>
  <time>2026-09-01T01:14:20Z</time>
  <course>19.64</course>
  <speed>0.99</speed>
  <fix>3d</fix>
</trkpt>
<trkpt lat="33.8104648" lon="-118.395528">
  <ele>-25.011</ele>
  <time>2026-09-01T01:14:20Z</time>
  <course>109.93</course>
  <speed>1.0159232254457027</speed>
  <fix>3d</fix>
</trkpt>
<trkpt lat="33.8104627" lon="-118.3955291">
  <ele>-24.4</ele>
  <time>2026-09-01T01:14:20Z</time>
  <course>19.64</course>
  <speed>0.99</speed>
  <fix>3d</fix>
</trkpt>
<trkpt lat="33.8104656" lon="-118.3955277">
  <ele>-25.011</ele>
  <time>2026-09-01T01:14:20Z</time>
  <course>110.05</course>
  <speed>1.0159232254457027</speed>
  <fix>3d</fix>
</trkpt>
<trkpt lat="33.8104644" lon="-118.3955284">
  <ele>-24.4</ele>
  <time>2026-09-01T01:14:20Z</time>
  <course>19.91</course>
  <speed>0.99</speed>
  <fix>3d</fix>
</trkpt>
<trkpt lat="33.8104665" lon="-118.3955273">
  <ele>-25.012</ele>
  <time>2026-09-01T01:14:20Z</time>
  <course>110.16</course>
  <speed>1.0159232254457027</speed>
  <fix>3d</fix>
</trkpt>
<trkpt lat="33.8104644" lon="-118.3955284">
  <ele>-24.4</ele>
  <time>2026-09-01T01:14:20Z</time>
  <course>19.91</course>
  <speed>0.99</speed>
  <fix>3d</fix>
</trkpt>
<trkpt lat="33.8104673" lon="-118.3955269">
  <ele>-25.013</ele>
  <time>2026-09-01T01:14:20Z</time>
  <course>110.27</course>
  <speed>1.0195096860746347</speed>
  <fix>3d</fix>
</trkpt>
<trkpt lat="33.810466" lon="-118.3955277">
  <ele>-24.41</ele>
  <time>2026-09-01T01:14:20Z</time>
  <course>20.22</course>
  <speed>0.99</speed>
  <fix>3d</fix>
</trkpt>
<trkpt lat="33.8104682" lon="-118.3955266">
  <ele>-25.014</ele>
  <time>2026-09-01T01:14:20Z</time>
  <course>110.39</course>
  <speed>1.0195096860746347</speed>
  <fix>3d</fix>
</trkpt>
<trkpt lat="33.810466" lon="-118.3955277">
  <ele>-24.41</ele>
  <time>2026-09-01T01:14:20Z</time>
  <course>20.22</course>
  <speed>0.99</speed>
  <fix>3d</fix>
</trkpt>
<trkpt lat="33.810469" lon="-118.3955262">
  <ele>-25.015</ele>
  <time>2026-09-01T01:14:20Z</time>
  <course>110.5</course>
  <speed>1.0195096860746347</speed>
  <fix>3d</fix>
</trkpt>
<trkpt lat="33.8104677" lon="-118.3955269">
  <ele>-24.41</ele>
  <time>2026-09-01T01:14:20Z</time>
  <course>20.54</course>
  <speed>0.99</speed>
  <fix>3d</fix>
</trkpt>
<trkpt lat="33.8104698" lon="-118.3955258">
  <ele>-25.016</ele>
  <time>2026-09-01T01:14:20Z</time>
  <course>110.62</course>
  <speed>1.0195096860746347</speed>
  <fix>3d</fix>
</trkpt>
<trkpt lat="33.8104677" lon="-118.3955269">
  <ele>-24.41</ele>
  <time>2026-09-01T01:14:20Z</time>
  <course>20.54</course>
  <speed>0.99</speed>
  <fix>3d</fix>
</trkpt>
<trkpt lat="33.8104707" lon="-118.3955254">
  <ele>-25.016</ele>
  <time>2026-09-01T01:14:20Z</time>
  <course>110.74</course>
  <speed>1.0139033484509261</speed>
  <fix>3d</fix>
</trkpt>
<trkpt lat="33.8104694" lon="-118.3955261">
  <ele>-24.41</ele>
  <time>2026-09-01T01:14:20Z</time>
  <course>20.83</course>
  <speed>0.99</speed>
  <fix>3d</fix>
</trkpt>
<trkpt lat="33.8104715" lon="-118.395525">
  <ele>-25.017</ele>
  <time>2026-09-01T01:14:20Z</time>
  <course>110.85</course>
  <speed>1.0139033484509261</speed>
  <fix>3d</fix>
</trkpt>
<trkpt lat="33.8104694" lon="-118.3955261">
  <ele>-24.41</ele>
  <time>2026-09-01T01:14:20Z</time>
  <course>20.83</course>
  <speed>0.99</speed>
  <fix>3d</fix>
</trkpt>
<trkpt lat="33.8104723" lon="-118.3955246">
  <ele>-25.016</ele>
  <time>2026-09-01T01:14:20Z</time>
  <course>110.97</course>
  <speed>1.0139033484509261</speed>
  <fix>3d</fix>
</trkpt>
<trkpt lat="33.8104711" lon="-118.3955254">
  <ele>-24.41</ele>
  <time>2026-09-01T01:14:20Z</time>
  <course>21.06</course>
  <speed>1.0</speed>
  <fix>3d</fix>
</trkpt>
<trkpt lat="33.8104732" lon="-118.3955242">
  <ele>-25.015</ele>
  <time>2026-09-01T01:14:20Z</time>
  <course>111.08</course>
  <speed>1.0139033484509261</speed>
  <fix>3d</fix>
</trkpt>
<trkpt lat="33.8104711" lon="-118.3955254">
  <ele>-24.41</ele>
  <time>2026-09-01T01:14:20Z</time>
  <course>21.06</course>
  <speed>1.0</speed>
  <fix>3d</fix>
</trkpt>
<trkpt lat="33.810474" lon="-118.3955238">
  <ele>-25.014</ele>
  <time>2026-09-01T01:14:20Z</time>
  <course>111.2</course>
  <speed>1.0139033484509261</speed>
  <fix>3d</fix>
</trkpt>
<trkpt lat="33.8104728" lon="-118.3955245">
  <ele>-24.41</ele>
  <time>2026-09-01T01:14:20Z</time>
  <course>21.3</course>
  <speed>1.0</speed>
  <fix>3d</fix>
</trkpt>
<trkpt lat="33.8104749" lon="-118.3955234">
  <ele>-25.012</ele>
  <time>2026-09-01T01:14:20Z</time>
  <course>111.31</course>
  <speed>1.0176934705499492</speed>
  <fix>3d</fix>
</trkpt>
<trkpt lat="33.8104728" lon="-118.3955245">
  <ele>-24.41</ele>
  <time>2026-09-01T01:14:20Z</time>
  <course>21.3</course>
  <speed>1.0</speed>
  <fix>3d</fix>
</trkpt>
<trkpt lat="33.8104757" lon="-118.395523">
  <ele>-25.012</ele>
  <time>2026-09-01T01:14:20Z</time>
  <course>111.42</course>
  <speed>1.0176934705499492</speed>
  <fix>3d</fix>
</trkpt>
<trkpt lat="33.8104744" lon="-118.3955238">
  <ele>-24.41</ele>
  <time>2026-09-01T01:14:20Z</time>
  <course>21.53</course>
  <speed>0.99</speed>
  <fix>3d</fix>
</trkpt>
<trkpt lat="33.8104765" lon="-118.3955226">
  <ele>-25.012</ele>
  <time>2026-09-01T01:14:20Z</time>
  <course>111.54</course>
  <speed>1.0176934705499492</speed>
  <fix>3d</fix>
</trkpt>
<trkpt lat="33.8104744" lon="-118.3955238">
  <ele>-24.41</ele>
  <time>2026-09-01T01:14:20Z</time>
  <course>21.53</course>
  <speed>0.99</speed>
  <fix>3d</fix>
</trkpt>
<trkpt lat="33.8104774" lon="-118.3955222">
  <ele>-25.012</ele>
  <time>2026-09-01T01:14:20Z</time>
  <course>111.65</course>
  <speed>1.0176934705499492</speed>
  <fix>3d</fix>
</trkpt>
<trkpt lat="33.8104761" lon="-118.395523">
  <ele>-24.41</ele>
  <time>2026-09-01T01:14:20Z</time>
  <course>21.73</course>
  <speed>0.99</speed>
  <fix>3d</fix>
</trkpt>
<trkpt lat="33.8104782" lon="-118.3955218">
  <ele>-25.013</ele>
  <time>2026-09-01T01:14:20Z</time>
  <course>111.77</course>
  <speed>1.0176934705499492</speed>
  <fix>3d</fix>
</trkpt>
<trkpt lat="33.8104761" lon="-118.395523">
  <ele>-24.41</ele>
  <time>2026-09-01T01:14:20Z</time>
  <course>21.73</course>
  <speed>0.99</speed>
  <fix>3d</fix>
</trkpt>
<trkpt lat="33.810479" lon="-118.3955214">
  <ele>-25.014</ele>
  <time>2026-09-01T01:14:20Z</time>
  <course>111.88</course>
  <speed>1.0176934705499492</speed>
  <fix>3d</fix>
</trkpt>
<trkpt lat="33.8104778" lon="-118.3955221">
  <ele>-24.41</ele>
  <time>2026-09-01T01:14:20Z</time>
  <course>21.94</course>
  <speed>1.0</speed>
  <fix>3d</fix>
</trkpt>
<trkpt lat="33.8104799" lon="-118.395521">
  <ele>-25.015</ele>
  <time>2026-09-01T01:14:20Z</time>
  <course>112.0</course>
  <speed>1.0215674231297707</speed>
  <fix>3d</fix>
</trkpt>
<trkpt lat="33.8104778" lon="-118.3955221">
  <ele>-24.41</ele>
  <time>2026-09-01T01:14:20Z</time>
  <course>21.94</course>
  <speed>1.0</speed>
  <fix>3d</fix>
</trkpt>
<trkpt lat="33.8104807" lon="-118.3955206">
  <ele>-25.014</ele>
  <time>2026-09-01T01:14:20Z</time>
  <course>112.11</course>
  <speed>1.0215674231297707</speed>
  <fix>3d</fix>
</trkpt>
<trkpt lat="33.8104794" lon="-118.3955214">
  <ele>-24.41</ele>
  <time>2026-09-01T01:14:20Z</time>
  <course>22.15</course>
  <speed>0.99</speed>
  <fix>3d</fix>
</trkpt>
<trkpt lat="33.8104815" lon="-118.3955202">
  <ele>-25.014</ele>
  <time>2026-09-01T01:14:20Z</time>
  <course>112.23</course>
  <speed>1.0123734488813898</speed>
  <fix>3d</fix>
</trkpt>
<trkpt lat="33.8104794" lon="-118.3955214">
  <ele>-24.41</ele>
  <time>2026-09-01T01:14:20Z</time>
  <course>22.15</course>
  <speed>0.99</speed>
  <fix>3d</fix>
</trkpt>
<trkpt lat="33.8104824" lon="-118.3955198">
  <ele>-25.013</ele>
  <time>2026-09-01T01:14:20Z</time>
  <course>112.34</course>
  <speed>1.0123734488813898</speed>
  <fix>3d</fix>
</trkpt>
<trkpt lat="33.8104811" lon="-118.3955206">
  <ele>-24.41</ele>
  <time>2026-09-01T01:14:20Z</time>
  <course>22.35</course>
  <speed>0.99</speed>
  <fix>3d</fix>
</trkpt>
<trkpt lat="33.8104832" lon="-118.3955194">
  <ele>-25.013</ele>
  <time>2026-09-01T01:14:20Z</time>
  <course>112.46</course>
  <speed>1.0123734488813898</speed>
  <fix>3d</fix>
</trkpt>
<trkpt lat="33.8104811" lon="-118.3955206">
  <ele>-24.41</ele>
  <time>2026-09-01T01:14:20Z</time>
  <course>22.35</course>
  <speed>0.99</speed>
  <fix>3d</fix>
</trkpt>
<trkpt lat="33.810484" lon="-118.395519">
  <ele>-25.013</ele>
  <time>2026-09-01T01:14:20Z</time>
  <course>112.57</course>
  <speed>1.016366075781753</speed>
  <fix>3d</fix>
</trkpt>
<trkpt lat="33.8104828" lon="-118.3955197">
  <ele>-24.41</ele>
  <time>2026-09-01T01:14:20Z</time>
  <course>22.59</course>
  <speed>0.99</speed>
  <fix>3d</fix>
</trkpt>
<trkpt lat="33.8104848" lon="-118.3955185">
  <ele>-25.014</ele>
  <time>2026-09-01T01:14:20Z</time>
  <course>112.68</course>
  <speed>1.016366075781753</speed>
  <fix>3d</fix>
</trkpt>
<trkpt lat="33.8104828" lon="-118.3955197">
  <ele>-24.41</ele>
  <time>2026-09-01T01:14:20Z</time>
  <course>22.59</course>
  <speed>0.99</speed>
  <fix>3d</fix>
</trkpt>
<trkpt lat="33.8104857" lon="-118.3955181">
  <ele>-25.015</ele>
  <time>2026-09-01T01:14:20Z</time>
  <course>112.8</course>
  <speed>1.016366075781753</speed>
  <fix>3d</fix>
</trkpt>
<trkpt lat="33.8104844" lon="-118.3955188">
  <ele>-24.41</ele>
  <time>2026-09-01T01:14:20Z</time>
  <course>22.86</course>
  <speed>0.99</speed>
  <fix>3d</fix>
</trkpt>
<trkpt lat="33.8104865" lon="-118.3955177">
  <ele>-25.016</ele>
  <time>2026-09-01T01:14:20Z</time>
  <course>112.91</course>
  <speed>1.016366075781753</speed>
  <fix>3d</fix>
</trkpt>
<trkpt lat="33.8104844" lon="-118.3955188">
  <ele>-24.41</ele>
  <time>2026-09-01T01:14:20Z</time>
  <course>22.86</course>
  <speed>0.99</speed>
  <fix>3d</fix>
</trkpt>
<trkpt lat="33.8104873" lon="-118.3955173">
  <ele>-25.016</ele>
  <time>2026-09-01T01:14:20Z</time>
  <course>113.03</course>
  <speed>1.016366075781753</speed>
  <fix>3d</fix>
</trkpt>
<trkpt lat="33.8104861" lon="-118.3955181">
  <ele>-24.41</ele>
  <time>2026-09-01T01:14:20Z</time>
  <course>23.06</course>
  <speed>0.99</speed>
  <fix>3d</fix>
</trkpt>
<trkpt lat="33.8104882" lon="-118.3955168">
  <ele>-25.017</ele>
  <time>2026-09-01T01:14:20Z</time>
  <course>113.14</course>
  <speed>1.016366075781753</speed>
  <fix>3d</fix>
</trkpt>
<trkpt lat="33.8104861" lon="-118.3955181">
  <ele>-24.41</ele>
  <time>2026-09-01T01:14:20Z</time>
  <course>23.06</course>
  <speed>0.99</speed>
  <fix>3d</fix>
</trkpt>
<trkpt lat="33.810489" lon="-118.3955164">
  <ele>-25.016</ele>
  <time>2026-09-01T01:14:20Z</time>
  <course>113.26</course>
  <speed>1.0204410811016968</speed>
  <fix>3d</fix>
</trkpt>
<trkpt lat="33.8104877" lon="-118.3955172">
  <ele>-24.41</ele>
  <time>2026-09-01T01:14:20Z</time>
  <course>23.26</course>
  <speed>0.99</speed>
  <fix>3d</fix>
</trkpt>
<trkpt lat="33.8104898" lon="-118.395516">
  <ele>-25.015</ele>
  <time>2026-09-01T01:14:20Z</time>
  <course>113.37</course>
  <speed>1.0204410811016968</speed>
  <fix>3d</fix>
</trkpt>
<trkpt lat="33.8104877" lon="-118.3955172">
  <ele>-24.41</ele>
  <time>2026-09-01T01:14:20Z</time>
  <course>23.26</course>
  <speed>0.99</speed>
  <fix>3d</fix>
</trkpt>
<trkpt lat="33.8104906" lon="-118.3955155">
  <ele>-25.013</ele>
  <time>2026-09-01T01:14:20Z</time>
  <course>113.49</course>
  <speed>1.0204410811016968</speed>
  <fix>3d</fix>
</trkpt>
<trkpt lat="33.8104893" lon="-118.3955163">
  <ele>-24.41</ele>
  <time>2026-09-01T01:14:20Z</time>
  <course>23.52</course>
  <speed>0.99</speed>
  <fix>3d</fix>
</trkpt>
<trkpt lat="33.8104914" lon="-118.3955151">
  <ele>-25.012</ele>
  <time>2026-09-01T01:14:20Z</time>
  <course>113.6</course>
  <speed>1.0204410811016968</speed>
  <fix>3d</fix>
</trkpt>
<trkpt lat="33.8104893" lon="-118.3955163">
  <ele>-24.41</ele>
  <time>2026-09-01T01:14:20Z</time>
  <course>23.52</course>
  <speed>0.99</speed>
  <fix>3d</fix>
</trkpt>
<trkpt lat="33.8104923" lon="-118.3955147">
  <ele>-25.012</ele>
  <time>2026-09-01T01:14:20Z</time>
  <course>113.72</course>
  <speed>1.0204410811016968</speed>
  <fix>3d</fix>
</trkpt>
<trkpt lat="33.810491" lon="-118.3955154">
  <ele>-24.41</ele>
  <time>2026-09-01T01:14:20Z</time>
  <course>23.74</course>
  <speed>1.0</speed>
  <fix>3d</fix>
</trkpt>
<trkpt lat="33.8104931" lon="-118.3955142">
  <ele>-25.013</ele>
  <time>2026-09-01T01:14:20Z</time>
  <course>113.83</course>
  <speed>1.0245974819410792</speed>
  <fix>3d</fix>
</trkpt>
<trkpt lat="33.810491" lon="-118.3955154">
  <ele>-24.41</ele>
  <time>2026-09-01T01:14:20Z</time>
  <course>23.74</course>
  <speed>1.0</speed>
  <fix>3d</fix>
</trkpt>
<trkpt lat="33.8104939" lon="-118.3955138">
  <ele>-25.015</ele>
  <time>2026-09-01T01:14:20Z</time>
  <course>113.94</course>
  <speed>1.0245974819410792</speed>
  <fix>3d</fix>
</trkpt>
<trkpt lat="33.8104927" lon="-118.3955146">
  <ele>-24.41</ele>
  <time>2026-09-01T01:14:20Z</time>
  <course>23.92</course>
  <speed>1.0</speed>
  <fix>3d</fix>
</trkpt>
<trkpt lat="33.8104947" lon="-118.3955133">
  <ele>-25.017</ele>
  <time>2026-09-01T01:14:20Z</time>
  <course>114.06</course>
  <speed>1.0155294185792945</speed>
  <fix>3d</fix>
</trkpt>
<trkpt lat="33.8104927" lon="-118.3955146">
  <ele>-24.41</ele>
  <time>2026-09-01T01:14:20Z</time>
  <course>23.92</course>
  <speed>1.0</speed>
  <fix>3d</fix>
</trkpt>
<trkpt lat="33.8104955" lon="-118.3955129">
  <ele>-25.018</ele>
  <time>2026-09-01T01:14:20Z</time>
  <course>114.17</course>
  <speed>1.0155294185792945</speed>
  <fix>3d</fix>
</trkpt>
<trkpt lat="33.8104943" lon="-118.3955137">
  <ele>-24.41</ele>
  <time>2026-09-01T01:14:20Z</time>
  <course>24.12</course>
  <speed>1.0</speed>
  <fix>3d</fix>
</trkpt>
<trkpt lat="33.8104964" lon="-118.3955124">
  <ele>-25.018</ele>
  <time>2026-09-01T01:14:20Z</time>
  <course>114.29</course>
  <speed>1.0155294185792945</speed>
  <fix>3d</fix>
</trkpt>
<trkpt lat="33.8104943" lon="-118.3955137">
  <ele>-24.41</ele>
  <time>2026-09-01T01:14:20Z</time>
  <course>24.12</course>
  <speed>1.0</speed>
  <fix>3d</fix>
</trkpt>
<trkpt lat="33.8104972" lon="-118.395512">
  <ele>-25.018</ele>
  <time>2026-09-01T01:14:20Z</time>
  <course>114.4</course>
  <speed>1.0155294185792945</speed>
  <fix>3d</fix>
</trkpt>
<trkpt lat="33.810496" lon="-118.3955128">
  <ele>-24.41</ele>
  <time>2026-09-01T01:14:20Z</time>
  <course>24.36</course>
  <speed>1.0</speed>
  <fix>3d</fix>
</trkpt>
<trkpt lat="33.810498" lon="-118.3955115">
  <ele>-25.017</ele>
  <time>2026-09-01T01:14:20Z</time>
  <course>114.52</course>
  <speed>1.019803902718557</speed>
  <fix>3d</fix>
</trkpt>
<trkpt lat="33.810496" lon="-118.3955128">
  <ele>-24.41</ele>
  <time>2026-09-01T01:14:20Z</time>
  <course>24.36</course>
  <speed>1.0</speed>
  <fix>3d</fix>
</trkpt>
<trkpt lat="33.8104988" lon="-118.3955111">
  <ele>-25.016</ele>
  <time>2026-09-01T01:14:20Z</time>
  <course>114.63</course>
  <speed>1.019803902718557</speed>
  <fix>3d</fix>
</trkpt>
<trkpt lat="33.8104976" lon="-118.3955119">
  <ele>-24.41</ele>
  <time>2026-09-01T01:14:20Z</time>
  <course>24.61</course>
  <speed>1.0</speed>
  <fix>3d</fix>
</trkpt>
<trkpt lat="33.8104996" lon="-118.3955106">
  <ele>-25.016</ele>
  <time>2026-09-01T01:14:20Z</time>
  <course>114.75</course>
  <speed>1.019803902718557</speed>
  <fix>3d</fix>
</trkpt>
<trkpt lat="33.8104976" lon="-118.3955119">
  <ele>-24.41</ele>
  <time>2026-09-01T01:14:20Z</time>
  <course>24.61</course>
  <speed>1.0</speed>
  <fix>3d</fix>
</trkpt>
<trkpt lat="33.8105005" lon="-118.3955102">
  <ele>-25.016</ele>
  <time>2026-09-01T01:14:20Z</time>
  <course>114.86</course>
  <speed>1.019803902718557</speed>
  <fix>3d</fix>
</trkpt>
<trkpt lat="33.8104992" lon="-118.395511">
  <ele>-24.4</ele>
  <time>2026-09-01T01:14:20Z</time>
  <course>24.86</course>
  <speed>0.99</speed>
  <fix>3d</fix>
</trkpt>
<trkpt lat="33.8105013" lon="-118.3955097">
  <ele>-25.015</ele>
  <time>2026-09-01T01:14:20Z</time>
  <course>114.97</course>
  <speed>1.0107917688624102</speed>
  <fix>3d</fix>
</trkpt>
<trkpt lat="33.8104992" lon="-118.395511">
  <ele>-24.4</ele>
  <time>2026-09-01T01:14:20Z</time>
  <course>24.86</course>
  <speed>0.99</speed>
  <fix>3d</fix>
</trkpt>
<trkpt lat="33.8105021" lon="-118.3955093">
  <ele>-25.013</ele>
  <time>2026-09-01T01:14:20Z</time>
  <course>115.09</course>
  <speed>1.0151847122568385</speed>
  <fix>3d</fix>
</trkpt>
<trkpt lat="33.8105008" lon="-118.3955101">
  <ele>-24.4</ele>
  <time>2026-09-01T01:14:20Z</time>
  <course>25.09</course>
  <speed>0.99</speed>
  <fix>3d</fix>
</trkpt>
<trkpt lat="33.8105029" lon="-118.3955088">
  <ele>-25.011</ele>
  <time>2026-09-01T01:14:20Z</time>
  <course>115.2</course>
  <speed>1.0151847122568385</speed>
  <fix>3d</fix>
</trkpt>
<trkpt lat="33.8105008" lon="-118.3955101">
  <ele>-24.4</ele>
  <time>2026-09-01T01:14:20Z</time>
  <course>25.09</course>
  <speed>0.99</speed>
  <fix>3d</fix>
</trkpt>
<trkpt lat="33.8105037" lon="-118.3955083">
  <ele>-25.009</ele>
  <time>2026-09-01T01:14:20Z</time>
  <course>115.32</course>
  <speed>1.0151847122568385</speed>
  <fix>3d</fix>
</trkpt>
<trkpt lat="33.8105025" lon="-118.3955092">
  <ele>-24.4</ele>
  <time>2026-09-01T01:14:20Z</time>
  <course>25.32</course>
  <speed>1.0</speed>
  <fix>3d</fix>
</trkpt>
<trkpt lat="33.8105045" lon="-118.3955079">
  <ele>-25.009</ele>
  <time>2026-09-01T01:14:20Z</time>
  <course>115.43</course>
  <speed>1.0151847122568385</speed>
  <fix>3d</fix>
</trkpt>
<trkpt lat="33.8105025" lon="-118.3955092">
  <ele>-24.4</ele>
  <time>2026-09-01T01:14:20Z</time>
  <course>25.32</course>
  <speed>1.0</speed>
  <fix>3d</fix>
</trkpt>
<trkpt lat="33.8105053" lon="-118.3955074">
  <ele>-25.009</ele>
  <time>2026-09-01T01:14:20Z</time>
  <course>115.55</course>
  <speed>1.0151847122568385</speed>
  <fix>3d</fix>
</trkpt>
<trkpt lat="33.8105041" lon="-118.3955083">
  <ele>-24.4</ele>
  <time>2026-09-01T01:14:20Z</time>
  <course>25.57</course>
  <speed>1.0</speed>
  <fix>3d</fix>
</trkpt>
<trkpt lat="33.8105061" lon="-118.3955069">
  <ele>-25.008</ele>
  <time>2026-09-01T01:14:20Z</time>
  <course>115.66</course>
  <speed>1.0196568050084303</speed>
  <fix>3d</fix>
</trkpt>
<trkpt lat="33.8105041" lon="-118.3955083">
  <ele>-24.4</ele>
  <time>2026-09-01T01:14:20Z</time>
  <course>25.57</course>
  <speed>1.0</speed>
  <fix>3d</fix>
</trkpt>
<trkpt lat="33.8105069" lon="-118.3955065">
  <ele>-25.008</ele>
  <time>2026-09-01T01:14:20Z</time>
  <course>115.78</course>
  <speed>1.0196568050084303</speed>
  <fix>3d</fix>
</trkpt>
<trkpt lat="33.8105057" lon="-118.3955073">
  <ele>-24.4</ele>
  <time>2026-09-01T01:14:20Z</time>
  <course>25.83</course>
  <speed>1.0</speed>
  <fix>3d</fix>
</trkpt>
<trkpt lat="33.8105078" lon="-118.395506">
  <ele>-25.008</ele>
  <time>2026-09-01T01:14:20Z</time>
  <course>115.89</course>
  <speed>1.0196568050084303</speed>
  <fix>3d</fix>
</trkpt>
<trkpt lat="33.8105057" lon="-118.3955073">
  <ele>-24.4</ele>
  <time>2026-09-01T01:14:20Z</time>
  <course>25.83</course>
  <speed>1.0</speed>
  <fix>3d</fix>
</trkpt>
<trkpt lat="33.8105086" lon="-118.3955055">
  <ele>-25.01</ele>
  <time>2026-09-01T01:14:20Z</time>
  <course>116.0</course>
  <speed>1.0196568050084303</speed>
  <fix>3d</fix>
</trkpt>
<trkpt lat="33.8105074" lon="-118.3955063">
  <ele>-24.4</ele>
  <time>2026-09-01T01:14:20Z</time>
  <course>26.1</course>
  <speed>1.0</speed>
  <fix>3d</fix>
</trkpt>
<trkpt lat="33.8105094" lon="-118.395505">
  <ele>-25.012</ele>
  <time>2026-09-01T01:14:20Z</time>
  <course>116.12</course>
  <speed>1.0196568050084303</speed>
  <fix>3d</fix>
</trkpt>
<trkpt lat="33.8105074" lon="-118.3955063">
  <ele>-24.4</ele>
  <time>2026-09-01T01:14:20Z</time>
  <course>26.1</course>
  <speed>1.0</speed>
  <fix>3d</fix>
</trkpt>
<trkpt lat="33.8105102" lon="-118.3955045">
  <ele>-25.015</ele>
  <time>2026-09-01T01:14:20Z</time>
  <course>116.24</course>
  <speed>1.0107423014794623</speed>
  <fix>3d</fix>
</trkpt>
<trkpt lat="33.8105089" lon="-118.3955054">
  <ele>-24.41</ele>
  <time>2026-09-01T01:14:20Z</time>
  <course>26.32</course>
  <speed>1.0</speed>
  <fix>3d</fix>
</trkpt>
<trkpt lat="33.810511" lon="-118.395504">
  <ele>-25.016</ele>
  <time>2026-09-01T01:14:20Z</time>
  <course>116.35</course>
  <speed>1.015332457867865</speed>
  <fix>3d</fix>
</trkpt>
<trkpt lat="33.8105089" lon="-118.3955054">
  <ele>-24.41</ele>
  <time>2026-09-01T01:14:20Z</time>
  <course>26.32</course>
  <speed>1.0</speed>
  <fix>3d</fix>
</trkpt>
<trkpt lat="33.8105118" lon="-118.3955036">
  <ele>-25.017</ele>
  <time>2026-09-01T01:14:20Z</time>
  <course>116.46</course>
  <speed>1.015332457867865</speed>
  <fix>3d</fix>
</trkpt>
<trkpt lat="33.8105106" lon="-118.3955044">
  <ele>-24.41</ele>
  <time>2026-09-01T01:14:20Z</time>
  <course>26.5</course>
  <speed>1.0</speed>
  <fix>3d</fix>
</trkpt>
<trkpt lat="33.8105126" lon="-118.3955031">
  <ele>-25.017</ele>
  <time>2026-09-01T01:14:20Z</time>
  <course>116.58</course>
  <speed>1.015332457867865</speed>
  <fix>3d</fix>
</trkpt>
<trkpt lat="33.8105106" lon="-118.3955044">
  <ele>-24.41</ele>
  <time>2026-09-01T01:14:20Z</time>
  <course>26.5</course>
  <speed>1.0</speed>
  <fix>3d</fix>
</trkpt>
<trkpt lat="33.8105134" lon="-118.3955026">
  <ele>-25.015</ele>
  <time>2026-09-01T01:14:20Z</time>
  <course>116.69</course>
  <speed>1.015332457867865</speed>
  <fix>3d</fix>
</trkpt>
<trkpt lat="33.8105122" lon="-118.3955035">
  <ele>-24.41</ele>
  <time>2026-09-01T01:14:20Z</time>
  <course>26.68</course>
  <speed>1.0</speed>
  <fix>3d</fix>
</trkpt>
<trkpt lat="33.8105142" lon="-118.3955021">
  <ele>-25.014</ele>
  <time>2026-09-01T01:14:20Z</time>
  <course>116.81</course>
  <speed>1.015332457867865</speed>
  <fix>3d</fix>
</trkpt>
<trkpt lat="33.8105122" lon="-118.3955035">
  <ele>-24.41</ele>
  <time>2026-09-01T01:14:20Z</time>
  <course>26.68</course>
  <speed>1.0</speed>
  <fix>3d</fix>
</trkpt>
<trkpt lat="33.810515" lon="-118.3955016">
  <ele>-25.013</ele>
  <time>2026-09-01T01:14:20Z</time>
  <course>116.92</course>
  <speed>1.015332457867865</speed>
  <fix>3d</fix>
</trkpt>
<trkpt lat="33.8105137" lon="-118.3955025">
  <ele>-24.41</ele>
  <time>2026-09-01T01:14:20Z</time>
  <course>26.91</course>
  <speed>0.99</speed>
  <fix>3d</fix>
</trkpt>
<trkpt lat="33.8105158" lon="-118.3955011">
  <ele>-25.014</ele>
  <time>2026-09-01T01:14:20Z</time>
  <course>117.03</course>
  <speed>1.02</speed>
  <fix>3d</fix>
</trkpt>
<trkpt lat="33.8105137" lon="-118.3955025">
  <ele>-24.41</ele>
  <time>2026-09-01T01:14:20Z</time>
  <course>26.91</course>
  <speed>0.99</speed>
  <fix>3d</fix>
</trkpt>
<trkpt lat="33.8105166" lon="-118.3955006">
  <ele>-25.014</ele>
  <time>2026-09-01T01:14:20Z</time>
  <course>117.15</course>
  <speed>1.02</speed>
  <fix>3d</fix>
</trkpt>
<trkpt lat="33.8105154" lon="-118.3955016">
  <ele>-24.41</ele>
  <time>2026-09-01T01:14:20Z</time>
  <course>27.14</course>
  <speed>0.99</speed>
  <fix>3d</fix>
</trkpt>
<trkpt lat="33.8105174" lon="-118.3955001">
  <ele>-25.014</ele>
  <time>2026-09-01T01:14:20Z</time>
  <course>117.26</course>
  <speed>1.02</speed>
  <fix>3d</fix>
</trkpt>
<trkpt lat="33.8105154" lon="-118.3955016">
  <ele>-24.41</ele>
  <time>2026-09-01T01:14:20Z</time>
  <course>27.14</course>
  <speed>0.99</speed>
  <fix>3d</fix>
</trkpt>
<trkpt lat="33.8105182" lon="-118.3954996">
  <ele>-25.014</ele>
  <time>2026-09-01T01:14:20Z</time>
  <course>117.38</course>
  <speed>1.0111874208078342</speed>
  <fix>3d</fix>
</trkpt>
<trkpt lat="33.810517" lon="-118.3955006">
  <ele>-24.41</ele>
  <time>2026-09-01T01:14:20Z</time>
  <course>27.4</course>
  <speed>1.0</speed>
  <fix>3d</fix>
</trkpt>
<trkpt lat="33.810519" lon="-118.3954991">
  <ele>-25.013</ele>
  <time>2026-09-01T01:14:20Z</time>
  <course>117.49</course>
  <speed>1.0159724405711013</speed>
  <fix>3d</fix>
</trkpt>
<trkpt lat="33.810517" lon="-118.3955006">
  <ele>-24.41</ele>
  <time>2026-09-01T01:14:20Z</time>
  <course>27.4</course>
  <speed>1.0</speed>
  <fix>3d</fix>
</trkpt>
<trkpt lat="33.8105198" lon="-118.3954986">
  <ele>-25.012</ele>
  <time>2026-09-01T01:14:20Z</time>
  <course>117.61</course>
  <speed>1.0159724405711013</speed>
  <fix>3d</fix>
</trkpt>
<trkpt lat="33.8105185" lon="-118.3954996">
  <ele>-24.41</ele>
  <time>2026-09-01T01:14:20Z</time>
  <course>27.72</course>
  <speed>1.0</speed>
  <fix>3d</fix>
</trkpt>
<trkpt lat="33.8105206" lon="-118.3954981">
  <ele>-25.011</ele>
  <time>2026-09-01T01:14:20Z</time>
  <course>117.73</course>
  <speed>1.0159724405711013</speed>
  <fix>3d</fix>
</trkpt>
<trkpt lat="33.8105185" lon="-118.3954996">
  <ele>-24.41</ele>
  <time>2026-09-01T01:14:20Z</time>
  <course>27.72</course>
  <speed>1.0</speed>
  <fix>3d</fix>
</trkpt>
<trkpt lat="33.8105214" lon="-118.3954976">
  <ele>-25.012</ele>
  <time>2026-09-01T01:14:20Z</time>
  <course>117.84</course>
  <speed>1.0159724405711013</speed>
  <fix>3d</fix>
</trkpt>
<trkpt lat="33.8105202" lon="-118.3954985">
  <ele>-24.41</ele>
  <time>2026-09-01T01:14:20Z</time>
  <course>28.03</course>
  <speed>1.0</speed>
  <fix>3d</fix>
</trkpt>
<trkpt lat="33.8105222" lon="-118.3954971">
  <ele>-25.014</ele>
  <time>2026-09-01T01:14:20Z</time>
  <course>117.96</course>
  <speed>1.0159724405711013</speed>
  <fix>3d</fix>
</trkpt>
<trkpt lat="33.8105202" lon="-118.3954985">
  <ele>-24.41</ele>
  <time>2026-09-01T01:14:20Z</time>
  <course>28.03</course>
  <speed>1.0</speed>
  <fix>3d</fix>
</trkpt>
<trkpt lat="33.8105229" lon="-118.3954966">
  <ele>-25.017</ele>
  <time>2026-09-01T01:14:20Z</time>
  <course>118.07</course>
  <speed>1.0208329931972222</speed>
  <fix>3d</fix>
</trkpt>
<trkpt lat="33.8105218" lon="-118.3954975">
  <ele>-24.41</ele>
  <time>2026-09-01T01:14:20Z</time>
  <course>28.26</course>
  <speed>1.0</speed>
  <fix>3d</fix>
</trkpt>
<trkpt lat="33.8105237" lon="-118.3954961">
  <ele>-25.018</ele>
  <time>2026-09-01T01:14:20Z</time>
  <course>118.19</course>
  <speed>1.0208329931972222</speed>
  <fix>3d</fix>
</trkpt>
<trkpt lat="33.8105218" lon="-118.3954975">
  <ele>-24.41</ele>
  <time>2026-09-01T01:14:20Z</time>
  <course>28.26</course>
  <speed>1.0</speed>
  <fix>3d</fix>
</trkpt>
<trkpt lat="33.8105245" lon="-118.3954956">
  <ele>-25.019</ele>
  <time>2026-09-01T01:14:20Z</time>
  <course>118.3</course>
  <speed>1.0208329931972222</speed>
  <fix>3d</fix>
</trkpt>
<trkpt lat="33.8105233" lon="-118.3954965">
  <ele>-24.41</ele>
  <time>2026-09-01T01:14:20Z</time>
  <course>28.45</course>
  <speed>1.0</speed>
  <fix>3d</fix>
</trkpt>
<trkpt lat="33.8105253" lon="-118.395495">
  <ele>-25.019</ele>
  <time>2026-09-01T01:14:20Z</time>
  <course>118.41</course>
  <speed>1.0208329931972222</speed>
  <fix>3d</fix>
</trkpt>
<trkpt lat="33.8105233" lon="-118.3954965">
  <ele>-24.41</ele>
  <time>2026-09-01T01:14:20Z</time>
  <course>28.45</course>
  <speed>1.0</speed>
  <fix>3d</fix>
</trkpt>
<trkpt lat="33.8105261" lon="-118.3954945">
  <ele>-25.016</ele>
  <time>2026-09-01T01:14:21Z</time>
  <course>118.53</course>
  <speed>1.0208329931972222</speed>
  <fix>3d</fix>
</trkpt>
<trkpt lat="33.8105249" lon="-118.3954954">
  <ele>-24.41</ele>
  <time>2026-09-01T01:14:21Z</time>
  <course>28.65</course>
  <speed>1.0</speed>
  <fix>3d</fix>
</trkpt>
<trkpt lat="33.8105269" lon="-118.395494">
  <ele>-25.014</ele>
  <time>2026-09-01T01:14:21Z</time>
  <course>118.64</course>
  <speed>1.0208329931972222</speed>
  <fix>3d</fix>
</trkpt>
<trkpt lat="33.8105249" lon="-118.3954954">
  <ele>-24.41</ele>
  <time>2026-09-01T01:14:21Z</time>
  <course>28.65</course>
  <speed>1.0</speed>
  <fix>3d</fix>
</trkpt>
<trkpt lat="33.8105277" lon="-118.3954935">
  <ele>-25.013</ele>
  <time>2026-09-01T01:14:21Z</time>
  <course>118.76</course>
  <speed>1.0257680049601858</speed>
  <fix>3d</fix>
</trkpt>
<trkpt lat="33.8105264" lon="-118.3954944">
  <ele>-24.41</ele>
  <time>2026-09-01T01:14:21Z</time>
  <course>28.84</course>
  <speed>1.0</speed>
  <fix>3d</fix>
</trkpt>
<trkpt lat="33.8105284" lon="-118.395493">
  <ele>-25.012</ele>
  <time>2026-09-01T01:14:21Z</time>
  <course>118.87</course>
  <speed>1.0257680049601858</speed>
  <fix>3d</fix>
</trkpt>
<trkpt lat="33.8105264" lon="-118.3954944">
  <ele>-24.41</ele>
  <time>2026-09-01T01:14:21Z</time>
  <course>28.84</course>
  <speed>1.0</speed>
  <fix>3d</fix>
</trkpt>
<trkpt lat="33.8105292" lon="-118.3954924">
  <ele>-25.012</ele>
  <time>2026-09-01T01:14:21Z</time>
  <course>118.99</course>
  <speed>1.0257680049601858</speed>
  <fix>3d</fix>
</trkpt>
<trkpt lat="33.8105281" lon="-118.3954933">
  <ele>-24.41</ele>
  <time>2026-09-01T01:14:21Z</time>
  <course>28.99</course>
  <speed>1.0</speed>
  <fix>3d</fix>
</trkpt>
<trkpt lat="33.81053" lon="-118.3954919">
  <ele>-25.012</ele>
  <time>2026-09-01T01:14:21Z</time>
  <course>119.1</course>
  <speed>1.0171037311896953</speed>
  <fix>3d</fix>
</trkpt>
<trkpt lat="33.8105281" lon="-118.3954933">
  <ele>-24.41</ele>
  <time>2026-09-01T01:14:21Z</time>
  <course>28.99</course>
  <speed>1.0</speed>
  <fix>3d</fix>
</trkpt>
<trkpt lat="33.8105308" lon="-118.3954914">
  <ele>-25.012</ele>
  <time>2026-09-01T01:14:21Z</time>
  <course>119.21</course>
  <speed>1.0171037311896953</speed>
  <fix>3d</fix>
</trkpt>
<trkpt lat="33.8105297" lon="-118.3954923">
  <ele>-24.41</ele>
  <time>2026-09-01T01:14:21Z</time>
  <course>29.15</course>
  <speed>1.0</speed>
  <fix>3d</fix>
</trkpt>
<trkpt lat="33.8105316" lon="-118.3954908">
  <ele>-25.013</ele>
  <time>2026-09-01T01:14:21Z</time>
  <course>119.33</course>
  <speed>1.0171037311896953</speed>
  <fix>3d</fix>
</trkpt>
<trkpt lat="33.8105297" lon="-118.3954923">
  <ele>-24.41</ele>
  <time>2026-09-01T01:14:21Z</time>
  <course>29.15</course>
  <speed>1.0</speed>
  <fix>3d</fix>
</trkpt>
<trkpt lat="33.8105324" lon="-118.3954903">
  <ele>-25.015</ele>
  <time>2026-09-01T01:14:21Z</time>
  <course>119.44</course>
  <speed>1.0171037311896953</speed>
  <fix>3d</fix>
</trkpt>
<trkpt lat="33.8105312" lon="-118.3954912">
  <ele>-24.41</ele>
  <time>2026-09-01T01:14:21Z</time>
  <course>29.37</course>
  <speed>1.0</speed>
  <fix>3d</fix>
</trkpt>
<trkpt lat="33.8105331" lon="-118.3954898">
  <ele>-25.017</ele>
  <time>2026-09-01T01:14:21Z</time>
  <course>119.56</course>
  <speed>1.022154587134451</speed>
  <fix>3d</fix>
</trkpt>
<trkpt lat="33.8105312" lon="-118.3954912">
  <ele>-24.41</ele>
  <time>2026-09-01T01:14:21Z</time>
  <course>29.37</course>
  <speed>1.0</speed>
  <fix>3d</fix>
</trkpt>
<trkpt lat="33.8105339" lon="-118.3954892">
  <ele>-25.017</ele>
  <time>2026-09-01T01:14:21Z</time>
  <course>119.67</course>
  <speed>1.022154587134451</speed>
  <fix>3d</fix>
</trkpt>
<trkpt lat="33.8105328" lon="-118.3954901">
  <ele>-24.41</ele>
  <time>2026-09-01T01:14:21Z</time>
  <course>29.61</course>
  <speed>1.0</speed>
  <fix>3d</fix>
</trkpt>
<trkpt lat="33.8105347" lon="-118.3954887">
  <ele>-25.017</ele>
  <time>2026-09-01T01:14:21Z</time>
  <course>119.79</course>
  <speed>1.022154587134451</speed>
  <fix>3d</fix>
</trkpt>
<trkpt lat="33.8105328" lon="-118.3954901">
  <ele>-24.41</ele>
  <time>2026-09-01T01:14:21Z</time>
  <course>29.61</course>
  <speed>1.0</speed>
  <fix>3d</fix>
</trkpt>
<trkpt lat="33.8105355" lon="-118.3954881">
  <ele>-25.015</ele>
  <time>2026-09-01T01:14:21Z</time>
  <course>119.9</course>
  <speed>1.0135580891098448</speed>
  <fix>3d</fix>
</trkpt>
<trkpt lat="33.8105343" lon="-118.395489">
  <ele>-24.41</ele>
  <time>2026-09-01T01:14:21Z</time>
  <course>29.82</course>
  <speed>1.0</speed>
  <fix>3d</fix>
</trkpt>
<trkpt lat="33.8105363" lon="-118.3954876">
  <ele>-25.013</ele>
  <time>2026-09-01T01:14:21Z</time>
  <course>120.02</course>
  <speed>1.0135580891098448</speed>
  <fix>3d</fix>
</trkpt>
<trkpt lat="33.8105343" lon="-118.395489">
  <ele>-24.41</ele>
  <time>2026-09-01T01:14:21Z</time>
  <course>29.82</course>
  <speed>1.0</speed>
  <fix>3d</fix>
</trkpt>
<trkpt lat="33.810537" lon="-118.395487">
  <ele>-25.011</ele>
  <time>2026-09-01T01:14:21Z</time>
  <course>120.13</course>
  <speed>1.0135580891098448</speed>
  <fix>3d</fix>
</trkpt>
<trkpt lat="33.810536" lon="-118.3954879">
  <ele>-24.41</ele>
  <time>2026-09-01T01:14:21Z</time>
  <course>29.99</course>
  <speed>1.0</speed>
  <fix>3d</fix>
</trkpt>
<trkpt lat="33.8105378" lon="-118.3954865">
  <ele>-25.01</ele>
  <time>2026-09-01T01:14:21Z</time>
  <course>120.25</course>
  <speed>1.0187246929372038</speed>
  <fix>3d</fix>
</trkpt>
<trkpt lat="33.810536" lon="-118.3954879">
  <ele>-24.41</ele>
  <time>2026-09-01T01:14:21Z</time>
  <course>29.99</course>
  <speed>1.0</speed>
  <fix>3d</fix>
</trkpt>
<trkpt lat="33.8105386" lon="-118.3954859">
  <ele>-25.011</ele>
  <time>2026-09-01T01:14:21Z</time>
  <course>120.36</course>
  <speed>1.0187246929372038</speed>
  <fix>3d</fix>
</trkpt>
<trkpt lat="33.8105375" lon="-118.3954869">
  <ele>-24.41</ele>
  <time>2026-09-01T01:14:21Z</time>
  <course>30.17</course>
  <speed>1.0</speed>
  <fix>3d</fix>
</trkpt>
<trkpt lat="33.8105394" lon="-118.3954854">
  <ele>-25.011</ele>
  <time>2026-09-01T01:14:21Z</time>
  <course>120.48</course>
  <speed>1.0187246929372038</speed>
  <fix>3d</fix>
</trkpt>
<trkpt lat="33.8105375" lon="-118.3954869">
  <ele>-24.41</ele>
  <time>2026-09-01T01:14:21Z</time>
  <course>30.17</course>
  <speed>1.0</speed>
  <fix>3d</fix>
</trkpt>
<trkpt lat="33.8105402" lon="-118.3954848">
  <ele>-25.012</ele>
  <time>2026-09-01T01:14:21Z</time>
  <course>120.59</course>
  <speed>1.0187246929372038</speed>
  <fix>3d</fix>
</trkpt>
<trkpt lat="33.8105391" lon="-118.3954858">
  <ele>-24.41</ele>
  <time>2026-09-01T01:14:21Z</time>
  <course>30.39</course>
  <speed>1.0</speed>
  <fix>3d</fix>
</trkpt>
<trkpt lat="33.8105409" lon="-118.3954843">
  <ele>-25.014</ele>
  <time>2026-09-01T01:14:21Z</time>
  <course>120.71</course>
  <speed>1.010198000393982</speed>
  <fix>3d</fix>
</trkpt>
<trkpt lat="33.8105391" lon="-118.3954858">
  <ele>-24.41</ele>
  <time>2026-09-01T01:14:21Z</time>
  <course>30.39</course>
  <speed>1.0</speed>
  <fix>3d</fix>
</trkpt>
<trkpt lat="33.8105417" lon="-118.3954837">
  <ele>-25.015</ele>
  <time>2026-09-01T01:14:21Z</time>
  <course>120.82</course>
  <speed>1.0154801819828883</speed>
  <fix>3d</fix>
</trkpt>
<trkpt lat="33.8105407" lon="-118.3954847">
  <ele>-24.41</ele>
  <time>2026-09-01T01:14:21Z</time>
  <course>30.68</course>
  <speed>1.0</speed>
  <fix>3d</fix>
</trkpt>
<trkpt lat="33.8105425" lon="-118.3954832">
  <ele>-25.016</ele>
  <time>2026-09-01T01:14:21Z</time>
  <course>120.93</course>
  <speed>1.0154801819828883</speed>
  <fix>3d</fix>
</trkpt>
<trkpt lat="33.8105407" lon="-118.3954847">
  <ele>-24.41</ele>
  <time>2026-09-01T01:14:21Z</time>
  <course>30.68</course>
  <speed>1.0</speed>
  <fix>3d</fix>
</trkpt>
<trkpt lat="33.8105433" lon="-118.3954826">
  <ele>-25.017</ele>
  <time>2026-09-01T01:14:21Z</time>
  <course>121.05</course>
  <speed>1.0154801819828883</speed>
  <fix>3d</fix>
</trkpt>
<trkpt lat="33.8105422" lon="-118.3954835">
  <ele>-24.41</ele>
  <time>2026-09-01T01:14:21Z</time>
  <course>31.02</course>
  <speed>1.0</speed>
  <fix>3d</fix>
</trkpt>
<trkpt lat="33.810544" lon="-118.395482">
  <ele>-25.016</ele>
  <time>2026-09-01T01:14:21Z</time>
  <course>121.17</course>
  <speed>1.0154801819828883</speed>
  <fix>3d</fix>
</trkpt>
<trkpt lat="33.8105422" lon="-118.3954835">
  <ele>-24.41</ele>
  <time>2026-09-01T01:14:21Z</time>
  <course>31.02</course>
  <speed>1.0</speed>
  <fix>3d</fix>
</trkpt>
<trkpt lat="33.8105448" lon="-118.3954815">
  <ele>-25.015</ele>
  <time>2026-09-01T01:14:21Z</time>
  <course>121.28</course>
  <speed>1.0154801819828883</speed>
  <fix>3d</fix>
</trkpt>
<trkpt lat="33.8105437" lon="-118.3954824">
  <ele>-24.41</ele>
  <time>2026-09-01T01:14:21Z</time>
  <course>31.32</course>
  <speed>1.0</speed>
  <fix>3d</fix>
</trkpt>
<trkpt lat="33.8105456" lon="-118.3954809">
  <ele>-25.015</ele>
  <time>2026-09-01T01:14:21Z</time>
  <course>121.39</course>
  <speed>1.0070253224224304</speed>
  <fix>3d</fix>
</trkpt>
<trkpt lat="33.8105437" lon="-118.3954824">
  <ele>-24.41</ele>
  <time>2026-09-01T01:14:21Z</time>
  <course>31.32</course>
  <speed>1.0</speed>
  <fix>3d</fix>
</trkpt>
<trkpt lat="33.8105463" lon="-118.3954803">
  <ele>-25.014</ele>
  <time>2026-09-01T01:14:21Z</time>
  <course>121.51</course>
  <speed>1.0070253224224304</speed>
  <fix>3d</fix>
</trkpt>
<trkpt lat="33.8105453" lon="-118.3954813">
  <ele>-24.41</ele>
  <time>2026-09-01T01:14:21Z</time>
  <course>31.54</course>
  <speed>1.0</speed>
  <fix>3d</fix>
</trkpt>
<trkpt lat="33.8105471" lon="-118.3954798">
  <ele>-25.014</ele>
  <time>2026-09-01T01:14:21Z</time>
  <course>121.63</course>
  <speed>1.0124228365658294</speed>
  <fix>3d</fix>
</trkpt>
<trkpt lat="33.8105453" lon="-118.3954813">
  <ele>-24.41</ele>
  <time>2026-09-01T01:14:21Z</time>
  <course>31.54</course>
  <speed>1.0</speed>
  <fix>3d</fix>
</trkpt>
<trkpt lat="33.8105479" lon="-118.3954792">
  <ele>-25.015</ele>
  <time>2026-09-01T01:14:21Z</time>
  <course>121.74</course>
  <speed>1.0124228365658294</speed>
  <fix>3d</fix>
</trkpt>
<trkpt lat="33.8105468" lon="-118.3954802">
  <ele>-24.41</ele>
  <time>2026-09-01T01:14:21Z</time>
  <course>31.74</course>
  <speed>1.0</speed>
  <fix>3d</fix>
</trkpt>
<trkpt lat="33.8105486" lon="-118.3954786">
  <ele>-25.015</ele>
  <time>2026-09-01T01:14:21Z</time>
  <course>121.85</course>
  <speed>1.0124228365658294</speed>
  <fix>3d</fix>
</trkpt>
<trkpt lat="33.8105468" lon="-118.3954802">
  <ele>-24.41</ele>
  <time>2026-09-01T01:14:21Z</time>
  <course>31.74</course>
  <speed>1.0</speed>
  <fix>3d</fix>
</trkpt>
<trkpt lat="33.8105494" lon="-118.3954781">
  <ele>-25.015</ele>
  <time>2026-09-01T01:14:21Z</time>
  <course>121.97</course>
  <speed>1.0124228365658294</speed>
  <fix>3d</fix>
</trkpt>
<trkpt lat="33.8105483" lon="-118.395479">
  <ele>-24.4</ele>
  <time>2026-09-01T01:14:21Z</time>
  <course>31.98</course>
  <speed>0.99</speed>
  <fix>3d</fix>
</trkpt>
<trkpt lat="33.8105501" lon="-118.3954775">
  <ele>-25.013</ele>
  <time>2026-09-01T01:14:21Z</time>
  <course>122.08</course>
  <speed>1.0124228365658294</speed>
  <fix>3d</fix>
</trkpt>
<trkpt lat="33.8105483" lon="-118.395479">
  <ele>-24.4</ele>
  <time>2026-09-01T01:14:21Z</time>
  <course>31.98</course>
  <speed>0.99</speed>
  <fix>3d</fix>
</trkpt>
<trkpt lat="33.8105509" lon="-118.3954769">
  <ele>-25.013</ele>
  <time>2026-09-01T01:14:21Z</time>
  <course>122.19</course>
  <speed>1.0178899744078433</speed>
  <fix>3d</fix>
</trkpt>
<trkpt lat="33.8105498" lon="-118.3954779">
  <ele>-24.4</ele>
  <time>2026-09-01T01:14:21Z</time>
  <course>32.22</course>
  <speed>0.99</speed>
  <fix>3d</fix>
</trkpt>
<trkpt lat="33.8105517" lon="-118.3954763">
  <ele>-25.013</ele>
  <time>2026-09-01T01:14:21Z</time>
  <course>122.31</course>
  <speed>1.0178899744078433</speed>
  <fix>3d</fix>
</trkpt>
<trkpt lat="33.8105498" lon="-118.3954779">
  <ele>-24.4</ele>
  <time>2026-09-01T01:14:21Z</time>
  <course>32.22</course>
  <speed>0.99</speed>
  <fix>3d</fix>
</trkpt>
<trkpt lat="33.8105524" lon="-118.3954757">
  <ele>-25.012</ele>
  <time>2026-09-01T01:14:21Z</time>
  <course>122.43</course>
  <speed>1.0178899744078433</speed>
  <fix>3d</fix>
</trkpt>
<trkpt lat="33.8105513" lon="-118.3954767">
  <ele>-24.4</ele>
  <time>2026-09-01T01:14:21Z</time>
  <course>32.43</course>
  <speed>1.0</speed>
  <fix>3d</fix>
</trkpt>
<trkpt lat="33.8105532" lon="-118.3954751">
  <ele>-25.011</ele>
  <time>2026-09-01T01:14:21Z</time>
  <course>122.54</course>
  <speed>1.009554357129917</speed>
  <fix>3d</fix>
</trkpt>
<trkpt lat="33.8105513" lon="-118.3954767">
  <ele>-24.4</ele>
  <time>2026-09-01T01:14:21Z</time>
  <course>32.43</course>
  <speed>1.0</speed>
  <fix>3d</fix>
</trkpt>
<trkpt lat="33.8105539" lon="-118.3954746">
  <ele>-25.01</ele>
  <time>2026-09-01T01:14:21Z</time>
  <course>122.65</course>
  <speed>1.009554357129917</speed>
  <fix>3d</fix>
</trkpt>
<trkpt lat="33.8105529" lon="-118.3954756">
  <ele>-24.4</ele>
  <time>2026-09-01T01:14:21Z</time>
  <course>32.65</course>
  <speed>1.0</speed>
  <fix>3d</fix>
</trkpt>
<trkpt lat="33.8105547" lon="-118.395474">
  <ele>-25.011</ele>
  <time>2026-09-01T01:14:21Z</time>
  <course>122.77</course>
  <speed>1.0151354589413177</speed>
  <fix>3d</fix>
</trkpt>
<trkpt lat="33.8105529" lon="-118.3954756">
  <ele>-24.4</ele>
  <time>2026-09-01T01:14:21Z</time>
  <course>32.65</course>
  <speed>1.0</speed>
  <fix>3d</fix>
</trkpt>
<trkpt lat="33.8105554" lon="-118.3954734">
  <ele>-25.011</ele>
  <time>2026-09-01T01:14:21Z</time>
  <course>122.88</course>
  <speed>1.0151354589413177</speed>
  <fix>3d</fix>
</trkpt>
<trkpt lat="33.8105544" lon="-118.3954743">
  <ele>-24.4</ele>
  <time>2026-09-01T01:14:21Z</time>
  <course>32.88</course>
  <speed>1.0</speed>
  <fix>3d</fix>
</trkpt>
<trkpt lat="33.8105562" lon="-118.3954728">
  <ele>-25.012</ele>
  <time>2026-09-01T01:14:21Z</time>
  <course>122.99</course>
  <speed>1.0151354589413177</speed>
  <fix>3d</fix>
</trkpt>
<trkpt lat="33.8105544" lon="-118.3954743">
  <ele>-24.4</ele>
  <time>2026-09-01T01:14:21Z</time>
  <course>32.88</course>
  <speed>1.0</speed>
  <fix>3d</fix>
</trkpt>
<trkpt lat="33.8105569" lon="-118.3954722">
  <ele>-25.013</ele>
  <time>2026-09-01T01:14:21Z</time>
  <course>123.11</course>
  <speed>1.0151354589413177</speed>
  <fix>3d</fix>
</trkpt>
<trkpt lat="33.8105559" lon="-118.3954732">
  <ele>-24.4</ele>
  <time>2026-09-01T01:14:21Z</time>
  <course>33.1</course>
  <speed>1.0</speed>
  <fix>3d</fix>
</trkpt>
<trkpt lat="33.8105577" lon="-118.3954716">
  <ele>-25.014</ele>
  <time>2026-09-01T01:14:21Z</time>
  <course>123.22</course>
  <speed>1.0151354589413177</speed>
  <fix>3d</fix>
</trkpt>
<trkpt lat="33.8105559" lon="-118.3954732">
  <ele>-24.4</ele>
  <time>2026-09-01T01:14:21Z</time>
  <course>33.1</course>
  <speed>1.0</speed>
  <fix>3d</fix>
</trkpt>
<trkpt lat="33.8105584" lon="-118.395471">
  <ele>-25.015</ele>
  <time>2026-09-01T01:14:21Z</time>
  <course>123.34</course>
  <speed>1.0151354589413177</speed>
  <fix>3d</fix>
</trkpt>
<trkpt lat="33.8105574" lon="-118.395472">
  <ele>-24.41</ele>
  <time>2026-09-01T01:14:21Z</time>
  <course>33.31</course>
  <speed>1.0</speed>
  <fix>3d</fix>
</trkpt>
<trkpt lat="33.8105592" lon="-118.3954704">
  <ele>-25.016</ele>
  <time>2026-09-01T01:14:21Z</time>
  <course>123.45</course>
  <speed>1.0151354589413177</speed>
  <fix>3d</fix>
</trkpt>
<trkpt lat="33.8105574" lon="-118.395472">
  <ele>-24.41</ele>
  <time>2026-09-01T01:14:21Z</time>
  <course>33.31</course>
  <speed>1.0</speed>
  <fix>3d</fix>
</trkpt>
<trkpt lat="33.8105599" lon="-118.3954698">
  <ele>-25.016</ele>
  <time>2026-09-01T01:14:21Z</time>
  <course>123.57</course>
  <speed>1.0125709851659783</speed>
  <fix>3d</fix>
</trkpt>
<trkpt lat="33.8105589" lon="-118.3954709">
  <ele>-24.41</ele>
  <time>2026-09-01T01:14:21Z</time>
  <course>33.55</course>
  <speed>1.0</speed>
  <fix>3d</fix>
</trkpt>
<trkpt lat="33.8105607" lon="-118.3954692">
  <ele>-25.015</ele>
  <time>2026-09-01T01:14:21Z</time>
  <course>123.68</course>
  <speed>1.0125709851659783</speed>
  <fix>3d</fix>
</trkpt>
<trkpt lat="33.8105589" lon="-118.3954709">
  <ele>-24.41</ele>
  <time>2026-09-01T01:14:21Z</time>
  <course>33.55</course>
  <speed>1.0</speed>
  <fix>3d</fix>
</trkpt>
<trkpt lat="33.8105614" lon="-118.3954686">
  <ele>-25.014</ele>
  <time>2026-09-01T01:14:21Z</time>
  <course>123.8</course>
  <speed>1.0125709851659783</speed>
  <fix>3d</fix>
</trkpt>
<trkpt lat="33.8105604" lon="-118.3954697">
  <ele>-24.41</ele>
  <time>2026-09-01T01:14:21Z</time>
  <course>33.82</course>
  <speed>1.0</speed>
  <fix>3d</fix>
</trkpt>
<trkpt lat="33.8105622" lon="-118.395468">
  <ele>-25.013</ele>
  <time>2026-09-01T01:14:21Z</time>
  <course>123.91</course>
  <speed>1.0125709851659783</speed>
  <fix>3d</fix>
</trkpt>
<trkpt lat="33.8105604" lon="-118.3954697">
  <ele>-24.41</ele>
  <time>2026-09-01T01:14:21Z</time>
  <course>33.82</course>
  <speed>1.0</speed>
  <fix>3d</fix>
</trkpt>
<trkpt lat="33.8105629" lon="-118.3954674">
  <ele>-25.012</ele>
  <time>2026-09-01T01:14:21Z</time>
  <course>124.03</course>
  <speed>1.0125709851659783</speed>
  <fix>3d</fix>
</trkpt>
<trkpt lat="33.8105619" lon="-118.3954684">
  <ele>-24.4</ele>
  <time>2026-09-01T01:14:21Z</time>
  <course>34.13</course>
  <speed>1.0</speed>
  <fix>3d</fix>
</trkpt>
<trkpt lat="33.8105637" lon="-118.3954668">
  <ele>-25.011</ele>
  <time>2026-09-01T01:14:21Z</time>
  <course>124.14</course>
  <speed>1.0183319694480775</speed>
  <fix>3d</fix>
</trkpt>
<trkpt lat="33.8105619" lon="-118.3954684">
  <ele>-24.4</ele>
  <time>2026-09-01T01:14:21Z</time>
  <course>34.13</course>
  <speed>1.0</speed>
  <fix>3d</fix>
</trkpt>
<trkpt lat="33.8105644" lon="-118.3954662">
  <ele>-25.01</ele>
  <time>2026-09-01T01:14:21Z</time>
  <course>124.26</course>
  <speed>1.0183319694480775</speed>
  <fix>3d</fix>
</trkpt>
<trkpt lat="33.8105634" lon="-118.3954671">
  <ele>-24.4</ele>
  <time>2026-09-01T01:14:21Z</time>
  <course>34.41</course>
  <speed>1.0</speed>
  <fix>3d</fix>
</trkpt>
<trkpt lat="33.8105651" lon="-118.3954656">
  <ele>-25.009</ele>
  <time>2026-09-01T01:14:21Z</time>
  <course>124.37</course>
  <speed>1.010198000393982</speed>
  <fix>3d</fix>
</trkpt>
<trkpt lat="33.8105634" lon="-118.3954671">
  <ele>-24.4</ele>
  <time>2026-09-01T01:14:21Z</time>
  <course>34.41</course>
  <speed>1.0</speed>
  <fix>3d</fix>
</trkpt>
<trkpt lat="33.8105659" lon="-118.3954649">
  <ele>-25.008</ele>
  <time>2026-09-01T01:14:21Z</time>
  <course>124.49</course>
  <speed>1.010198000393982</speed>
  <fix>3d</fix>
</trkpt>
<trkpt lat="33.8105649" lon="-118.395466">
  <ele>-24.4</ele>
  <time>2026-09-01T01:14:21Z</time>
  <course>34.62</course>
  <speed>0.99</speed>
  <fix>3d</fix>
</trkpt>
<trkpt lat="33.8105666" lon="-118.3954643">
  <ele>-25.006</ele>
  <time>2026-09-01T01:14:21Z</time>
  <course>124.6</course>
  <speed>1.010198000393982</speed>
  <fix>3d</fix>
</trkpt>
<trkpt lat="33.8105649" lon="-118.395466">
  <ele>-24.4</ele>
  <time>2026-09-01T01:14:21Z</time>
  <course>34.62</course>
  <speed>0.99</speed>
  <fix>3d</fix>
</trkpt>
<trkpt lat="33.8105674" lon="-118.3954637">
  <ele>-25.006</ele>
  <time>2026-09-01T01:14:21Z</time>
  <course>124.71</course>
  <speed>1.010198000393982</speed>
  <fix>3d</fix>
</trkpt>
<trkpt lat="33.8105663" lon="-118.3954647">
  <ele>-24.41</ele>
  <time>2026-09-01T01:14:21Z</time>
  <course>34.81</course>
  <speed>0.99</speed>
  <fix>3d</fix>
</trkpt>
<trkpt lat="33.8105681" lon="-118.3954631">
  <ele>-25.007</ele>
  <time>2026-09-01T01:14:21Z</time>
  <course>124.83</course>
  <speed>1.010198000393982</speed>
  <fix>3d</fix>
</trkpt>
<trkpt lat="33.8105663" lon="-118.3954647">
  <ele>-24.41</ele>
  <time>2026-09-01T01:14:21Z</time>
  <course>34.81</course>
  <speed>0.99</speed>
  <fix>3d</fix>
</trkpt>
<trkpt lat="33.8105688" lon="-118.3954624">
  <ele>-25.01</ele>
  <time>2026-09-01T01:14:21Z</time>
  <course>124.94</course>
  <speed>1.016070863670443</speed>
  <fix>3d</fix>
</trkpt>
<trkpt lat="33.8105678" lon="-118.3954635">
  <ele>-24.41</ele>
  <time>2026-09-01T01:14:21Z</time>
  <course>35.02</course>
  <speed>0.99</speed>
  <fix>3d</fix>
</trkpt>
<trkpt lat="33.8105696" lon="-118.3954618">
  <ele>-25.013</ele>
  <time>2026-09-01T01:14:21Z</time>
  <course>125.06</course>
  <speed>1.016070863670443</speed>
  <fix>3d</fix>
</trkpt>
<trkpt lat="33.8105678" lon="-118.3954635">
  <ele>-24.41</ele>
  <time>2026-09-01T01:14:21Z</time>
  <course>35.02</course>
  <speed>0.99</speed>
  <fix>3d</fix>
</trkpt>
<trkpt lat="33.8105703" lon="-118.3954612">
  <ele>-25.017</ele>
  <time>2026-09-01T01:14:21Z</time>
  <course>125.17</course>
  <speed>1.016070863670443</speed>
  <fix>3d</fix>
</trkpt>
<trkpt lat="33.8105693" lon="-118.3954623">
  <ele>-24.41</ele>
  <time>2026-09-01T01:14:21Z</time>
  <course>35.2</course>
  <speed>0.99</speed>
  <fix>3d</fix>
</trkpt>
<trkpt lat="33.810571" lon="-118.3954606">
  <ele>-25.019</ele>
  <time>2026-09-01T01:14:21Z</time>
  <course>125.29</course>
  <speed>1.016070863670443</speed>
  <fix>3d</fix>
</trkpt>
<trkpt lat="33.8105693" lon="-118.3954623">
  <ele>-24.41</ele>
  <time>2026-09-01T01:14:21Z</time>
  <course>35.2</course>
  <speed>0.99</speed>
  <fix>3d</fix>
</trkpt>
<trkpt lat="33.8105718" lon="-118.3954599">
  <ele>-25.021</ele>
  <time>2026-09-01T01:14:21Z</time>
  <course>125.41</course>
  <speed>1.016070863670443</speed>
  <fix>3d</fix>
</trkpt>
<trkpt lat="33.8105707" lon="-118.395461">
  <ele>-24.42</ele>
  <time>2026-09-01T01:14:21Z</time>
  <course>35.43</course>
  <speed>0.99</speed>
  <fix>3d</fix>
</trkpt>
<trkpt lat="33.8105725" lon="-118.3954593">
  <ele>-25.022</ele>
  <time>2026-09-01T01:14:21Z</time>
  <course>125.52</course>
  <speed>1.0080178569846865</speed>
  <fix>3d</fix>
</trkpt>
<trkpt lat="33.8105707" lon="-118.395461">
  <ele>-24.42</ele>
  <time>2026-09-01T01:14:21Z</time>
  <course>35.43</course>
  <speed>0.99</speed>
  <fix>3d</fix>
</trkpt>
<trkpt lat="33.8105732" lon="-118.3954587">
  <ele>-25.022</ele>
  <time>2026-09-01T01:14:21Z</time>
  <course>125.63</course>
  <speed>1.0140019723846694</speed>
  <fix>3d</fix>
</trkpt>
<trkpt lat="33.8105722" lon="-118.3954598">
  <ele>-24.42</ele>
  <time>2026-09-01T01:14:21Z</time>
  <course>35.66</course>
  <speed>0.99</speed>
  <fix>3d</fix>
</trkpt>
<trkpt lat="33.8105739" lon="-118.395458">
  <ele>-25.023</ele>
  <time>2026-09-01T01:14:21Z</time>
  <course>125.75</course>
  <speed>1.0140019723846694</speed>
  <fix>3d</fix>
</trkpt>
<trkpt lat="33.8105722" lon="-118.3954598">
  <ele>-24.42</ele>
  <time>2026-09-01T01:14:21Z</time>
  <course>35.66</course>
  <speed>0.99</speed>
  <fix>3d</fix>
</trkpt>
<trkpt lat="33.8105747" lon="-118.3954574">
  <ele>-25.022</ele>
  <time>2026-09-01T01:14:21Z</time>
  <course>125.86</course>
  <speed>1.0140019723846694</speed>
  <fix>3d</fix>
</trkpt>
<trkpt lat="33.8105737" lon="-118.3954585">
  <ele>-24.42</ele>
  <time>2026-09-01T01:14:21Z</time>
  <course>35.88</course>
  <speed>0.99</speed>
  <fix>3d</fix>
</trkpt>
<trkpt lat="33.8105754" lon="-118.3954568">
  <ele>-25.021</ele>
  <time>2026-09-01T01:14:21Z</time>
  <course>125.98</course>
  <speed>1.0140019723846694</speed>
  <fix>3d</fix>
</trkpt>
<trkpt lat="33.8105737" lon="-118.3954585">
  <ele>-24.42</ele>
  <time>2026-09-01T01:14:21Z</time>
  <course>35.88</course>
  <speed>0.99</speed>
  <fix>3d</fix>
</trkpt>
<trkpt lat="33.8105761" lon="-118.3954561">
  <ele>-25.019</ele>
  <time>2026-09-01T01:14:21Z</time>
  <course>126.09</course>
  <speed>1.0140019723846694</speed>
  <fix>3d</fix>
</trkpt>
<trkpt lat="33.8105751" lon="-118.3954572">
  <ele>-24.42</ele>
  <time>2026-09-01T01:14:21Z</time>
  <course>36.15</course>
  <speed>0.99</speed>
  <fix>3d</fix>
</trkpt>
<trkpt lat="33.8105769" lon="-118.3954555">
  <ele>-25.017</ele>
  <time>2026-09-01T01:14:21Z</time>
  <course>126.21</course>
  <speed>1.0200490184299968</speed>
  <fix>3d</fix>
</trkpt>
<trkpt lat="33.8105751" lon="-118.3954572">
  <ele>-24.42</ele>
  <time>2026-09-01T01:14:21Z</time>
  <course>36.15</course>
  <speed>0.99</speed>
  <fix>3d</fix>
</trkpt>
<trkpt lat="33.8105776" lon="-118.3954548">
  <ele>-25.017</ele>
  <time>2026-09-01T01:14:21Z</time>
  <course>126.32</course>
  <speed>1.0121264743103995</speed>
  <fix>3d</fix>
</trkpt>
<trkpt lat="33.8105766" lon="-118.3954559">
  <ele>-24.41</ele>
  <time>2026-09-01T01:14:21Z</time>
  <course>36.4</course>
  <speed>1.0</speed>
  <fix>3d</fix>
</trkpt>
<trkpt lat="33.8105783" lon="-118.3954542">
  <ele>-25.016</ele>
  <time>2026-09-01T01:14:21Z</time>
  <course>126.43</course>
  <speed>1.0121264743103995</speed>
  <fix>3d</fix>
</trkpt>
<trkpt lat="33.8105766" lon="-118.3954559">
  <ele>-24.41</ele>
  <time>2026-09-01T01:14:21Z</time>
  <course>36.4</course>
  <speed>1.0</speed>
  <fix>3d</fix>
</trkpt>
<trkpt lat="33.810579" lon="-118.3954536">
  <ele>-25.017</ele>
  <time>2026-09-01T01:14:21Z</time>
  <course>126.55</course>
  <speed>1.0121264743103995</speed>
  <fix>3d</fix>
</trkpt>
<trkpt lat="33.810578" lon="-118.3954546">
  <ele>-24.41</ele>
  <time>2026-09-01T01:14:21Z</time>
  <course>36.61</course>
  <speed>0.99</speed>
  <fix>3d</fix>
</trkpt>
<trkpt lat="33.8105797" lon="-118.3954529">
  <ele>-25.017</ele>
  <time>2026-09-01T01:14:21Z</time>
  <course>126.66</course>
  <speed>1.0121264743103995</speed>
  <fix>3d</fix>
</trkpt>
<trkpt lat="33.810578" lon="-118.3954546">
  <ele>-24.41</ele>
  <time>2026-09-01T01:14:21Z</time>
  <course>36.61</course>
  <speed>0.99</speed>
  <fix>3d</fix>
</trkpt>
<trkpt lat="33.8105805" lon="-118.3954523">
  <ele>-25.016</ele>
  <time>2026-09-01T01:14:21Z</time>
  <course>126.78</course>
  <speed>1.0121264743103995</speed>
  <fix>3d</fix>
</trkpt>
<trkpt lat="33.8105795" lon="-118.3954534">
  <ele>-24.4</ele>
  <time>2026-09-01T01:14:21Z</time>
  <course>36.81</course>
  <speed>0.99</speed>
  <fix>3d</fix>
</trkpt>
<trkpt lat="33.8105812" lon="-118.3954516">
  <ele>-25.015</ele>
  <time>2026-09-01T01:14:21Z</time>
  <course>126.89</course>
  <speed>1.0121264743103995</speed>
  <fix>3d</fix>
</trkpt>
<trkpt lat="33.8105795" lon="-118.3954534">
  <ele>-24.4</ele>
  <time>2026-09-01T01:14:21Z</time>
  <course>36.81</course>
  <speed>0.99</speed>
  <fix>3d</fix>
</trkpt>
<trkpt lat="33.8105819" lon="-118.395451">
  <ele>-25.012</ele>
  <time>2026-09-01T01:14:21Z</time>
  <course>127.01</course>
  <speed>1.0182828683622247</speed>
  <fix>3d</fix>
</trkpt>
<trkpt lat="33.8105809" lon="-118.3954521">
  <ele>-24.4</ele>
  <time>2026-09-01T01:14:21Z</time>
  <course>37.04</course>
  <speed>0.99</speed>
  <fix>3d</fix>
</trkpt>
<trkpt lat="33.8105826" lon="-118.3954503">
  <ele>-25.009</ele>
  <time>2026-09-01T01:14:21Z</time>
  <course>127.12</course>
  <speed>1.0182828683622247</speed>
  <fix>3d</fix>
</trkpt>
<trkpt lat="33.8105809" lon="-118.3954521">
  <ele>-24.4</ele>
  <time>2026-09-01T01:14:21Z</time>
  <course>37.04</course>
  <speed>0.99</speed>
  <fix>3d</fix>
</trkpt>
<trkpt lat="33.8105833" lon="-118.3954497">
  <ele>-25.007</ele>
  <time>2026-09-01T01:14:21Z</time>
  <course>127.23</course>
  <speed>1.0104454463255303</speed>
  <fix>3d</fix>
</trkpt>
<trkpt lat="33.8105823" lon="-118.3954508">
  <ele>-24.4</ele>
  <time>2026-09-01T01:14:21Z</time>
  <course>37.31</course>
  <speed>0.99</speed>
  <fix>3d</fix>
</trkpt>
<trkpt lat="33.810584" lon="-118.395449">
  <ele>-25.007</ele>
  <time>2026-09-01T01:14:21Z</time>
  <course>127.35</course>
  <speed>1.0104454463255303</speed>
  <fix>3d</fix>
</trkpt>
<trkpt lat="33.8105823" lon="-118.3954508">
  <ele>-24.4</ele>
  <time>2026-09-01T01:14:21Z</time>
  <course>37.31</course>
  <speed>0.99</speed>
  <fix>3d</fix>
</trkpt>
<trkpt lat="33.8105847" lon="-118.3954483">
  <ele>-25.007</ele>
  <time>2026-09-01T01:14:21Z</time>
  <course>127.47</course>
  <speed>1.0104454463255303</speed>
  <fix>3d</fix>
</trkpt>
<trkpt lat="33.8105837" lon="-118.3954494">
  <ele>-24.4</ele>
  <time>2026-09-01T01:14:21Z</time>
  <course>37.57</course>
  <speed>0.99</speed>
  <fix>3d</fix>
</trkpt>
<trkpt lat="33.8105855" lon="-118.3954477">
  <ele>-25.009</ele>
  <time>2026-09-01T01:14:21Z</time>
  <course>127.58</course>
  <speed>1.0104454463255303</speed>
  <fix>3d</fix>
</trkpt>
<trkpt lat="33.8105837" lon="-118.3954494">
  <ele>-24.4</ele>
  <time>2026-09-01T01:14:21Z</time>
  <course>37.57</course>
  <speed>0.99</speed>
  <fix>3d</fix>
</trkpt>
<trkpt lat="33.8105862" lon="-118.395447">
  <ele>-25.011</ele>
  <time>2026-09-01T01:14:21Z</time>
  <course>127.7</course>
  <speed>1.0167103815738285</speed>
  <fix>3d</fix>
</trkpt>
<trkpt lat="33.8105852" lon="-118.3954481">
  <ele>-24.4</ele>
  <time>2026-09-01T01:14:21Z</time>
  <course>37.77</course>
  <speed>0.99</speed>
  <fix>3d</fix>
</trkpt>
<trkpt lat="33.8105869" lon="-118.3954463">
  <ele>-25.012</ele>
  <time>2026-09-01T01:14:21Z</time>
  <course>127.81</course>
  <speed>1.0167103815738285</speed>
  <fix>3d</fix>
</trkpt>
<trkpt lat="33.8105852" lon="-118.3954481">
  <ele>-24.4</ele>
  <time>2026-09-01T01:14:21Z</time>
  <course>37.77</course>
  <speed>0.99</speed>
  <fix>3d</fix>
</trkpt>
<trkpt lat="33.8105876" lon="-118.3954457">
  <ele>-25.013</ele>
  <time>2026-09-01T01:14:21Z</time>
  <course>127.92</course>
  <speed>1.0167103815738285</speed>
  <fix>3d</fix>
</trkpt>
<trkpt lat="33.8105866" lon="-118.3954468">
  <ele>-24.4</ele>
  <time>2026-09-01T01:14:21Z</time>
  <course>37.96</course>
  <speed>0.99</speed>
  <fix>3d</fix>
</trkpt>
<trkpt lat="33.8105883" lon="-118.395445">
  <ele>-25.014</ele>
  <time>2026-09-01T01:14:21Z</time>
  <course>128.04</course>
  <speed>1.0167103815738285</speed>
  <fix>3d</fix>
</trkpt>
<trkpt lat="33.8105866" lon="-118.3954468">
  <ele>-24.4</ele>
  <time>2026-09-01T01:14:21Z</time>
  <course>37.96</course>
  <speed>0.99</speed>
  <fix>3d</fix>
</trkpt>
<trkpt lat="33.810589" lon="-118.3954443">
  <ele>-25.014</ele>
  <time>2026-09-01T01:14:21Z</time>
  <course>128.15</course>
  <speed>1.0167103815738285</speed>
  <fix>3d</fix>
</trkpt>
<trkpt lat="33.8105879" lon="-118.3954455">
  <ele>-24.4</ele>
  <time>2026-09-01T01:14:21Z</time>
  <course>38.18</course>
  <speed>0.99</speed>
  <fix>3d</fix>
</trkpt>
<trkpt lat="33.8105897" lon="-118.3954436">
  <ele>-25.014</ele>
  <time>2026-09-01T01:14:21Z</time>
  <course>128.27</course>
  <speed>1.0167103815738285</speed>
  <fix>3d</fix>
</trkpt>
<trkpt lat="33.8105879" lon="-118.3954455">
  <ele>-24.4</ele>
  <time>2026-09-01T01:14:21Z</time>
  <course>38.18</course>
  <speed>0.99</speed>
  <fix>3d</fix>
</trkpt>
<trkpt lat="33.8105904" lon="-118.395443">
  <ele>-25.013</ele>
  <time>2026-09-01T01:14:21Z</time>
  <course>128.38</course>
  <speed>1.0089598604503551</speed>
  <fix>3d</fix>
</trkpt>
<trkpt lat="33.8105894" lon="-118.3954441">
  <ele>-24.4</ele>
  <time>2026-09-01T01:14:21Z</time>
  <course>38.39</course>
  <speed>0.99</speed>
  <fix>3d</fix>
</trkpt>
<trkpt lat="33.8105911" lon="-118.3954423">
  <ele>-25.013</ele>
  <time>2026-09-01T01:14:21Z</time>
  <course>128.5</course>
  <speed>1.015332457867865</speed>
  <fix>3d</fix>
</trkpt>
<trkpt lat="33.8105894" lon="-118.3954441">
  <ele>-24.4</ele>
  <time>2026-09-01T01:14:21Z</time>
  <course>38.39</course>
  <speed>0.99</speed>
  <fix>3d</fix>
</trkpt>
<trkpt lat="33.8105918" lon="-118.3954416">
  <ele>-25.013</ele>
  <time>2026-09-01T01:14:21Z</time>
  <course>128.61</course>
  <speed>1.015332457867865</speed>
  <fix>3d</fix>
</trkpt>
<trkpt lat="33.8105908" lon="-118.3954428">
  <ele>-24.4</ele>
  <time>2026-09-01T01:14:21Z</time>
  <course>38.57</course>
  <speed>1.0</speed>
  <fix>3d</fix>
</trkpt>
<trkpt lat="33.8105925" lon="-118.3954409">
  <ele>-25.012</ele>
  <time>2026-09-01T01:14:21Z</time>
  <course>128.73</course>
  <speed>1.015332457867865</speed>
  <fix>3d</fix>
</trkpt>
<trkpt lat="33.8105908" lon="-118.3954428">
  <ele>-24.4</ele>
  <time>2026-09-01T01:14:21Z</time>
  <course>38.57</course>
  <speed>1.0</speed>
  <fix>3d</fix>
</trkpt>
<trkpt lat="33.8105932" lon="-118.3954403">
  <ele>-25.011</ele>
  <time>2026-09-01T01:14:21Z</time>
  <course>128.84</course>
  <speed>1.015332457867865</speed>
  <fix>3d</fix>
</trkpt>
<trkpt lat="33.8105922" lon="-118.3954415">
  <ele>-24.4</ele>
  <time>2026-09-01T01:14:21Z</time>
  <course>38.78</course>
  <speed>0.99</speed>
  <fix>3d</fix>
</trkpt>
<trkpt lat="33.8105939" lon="-118.3954396">
  <ele>-25.01</ele>
  <time>2026-09-01T01:14:21Z</time>
  <course>128.95</course>
  <speed>1.015332457867865</speed>
  <fix>3d</fix>
</trkpt>
<trkpt lat="33.8105922" lon="-118.3954415">
  <ele>-24.4</ele>
  <time>2026-09-01T01:14:21Z</time>
  <course>38.78</course>
  <speed>0.99</speed>
  <fix>3d</fix>
</trkpt>
<trkpt lat="33.8105946" lon="-118.3954389">
  <ele>-25.01</ele>
  <time>2026-09-01T01:14:21Z</time>
  <course>129.07</course>
  <speed>1.0217631819555841</speed>
  <fix>3d</fix>
</trkpt>
<trkpt lat="33.8105936" lon="-118.3954401">
  <ele>-24.4</ele>
  <time>2026-09-01T01:14:21Z</time>
  <course>39.04</course>
  <speed>1.0</speed>
  <fix>3d</fix>
</trkpt>
<trkpt lat="33.8105953" lon="-118.3954382">
  <ele>-25.009</ele>
  <time>2026-09-01T01:14:21Z</time>
  <course>129.18</course>
  <speed>1.0141498903022177</speed>
  <fix>3d</fix>
</trkpt>
<trkpt lat="33.8105936" lon="-118.3954401">
  <ele>-24.4</ele>
  <time>2026-09-01T01:14:21Z</time>
  <course>39.04</course>
  <speed>1.0</speed>
  <fix>3d</fix>
</trkpt>
<trkpt lat="33.810596" lon="-118.3954375">
  <ele>-25.01</ele>
  <time>2026-09-01T01:14:21Z</time>
  <course>129.3</course>
  <speed>1.0141498903022177</speed>
  <fix>3d</fix>
</trkpt>
<trkpt lat="33.810595" lon="-118.3954387">
  <ele>-24.41</ele>
  <time>2026-09-01T01:14:21Z</time>
  <course>39.33</course>
  <speed>1.0</speed>
  <fix>3d</fix>
</trkpt>
<trkpt lat="33.8105967" lon="-118.3954368">
  <ele>-25.01</ele>
  <time>2026-09-01T01:14:21Z</time>
  <course>129.41</course>
  <speed>1.0141498903022177</speed>
  <fix>3d</fix>
</trkpt>
<trkpt lat="33.810595" lon="-118.3954387">
  <ele>-24.41</ele>
  <time>2026-09-01T01:14:21Z</time>
  <course>39.33</course>
  <speed>1.0</speed>
  <fix>3d</fix>
</trkpt>
<trkpt lat="33.8105974" lon="-118.3954362">
  <ele>-25.011</ele>
  <time>2026-09-01T01:14:21Z</time>
  <course>129.53</course>
  <speed>1.0141498903022177</speed>
  <fix>3d</fix>
</trkpt>
<trkpt lat="33.8105963" lon="-118.3954374">
  <ele>-24.41</ele>
  <time>2026-09-01T01:14:21Z</time>
  <course>39.59</course>
  <speed>1.0</speed>
  <fix>3d</fix>
</trkpt>
<trkpt lat="33.8105981" lon="-118.3954355">
  <ele>-25.012</ele>
  <time>2026-09-01T01:14:21Z</time>
  <course>129.65</course>
  <speed>1.0141498903022177</speed>
  <fix>3d</fix>
</trkpt>
<trkpt lat="33.8105963" lon="-118.3954374">
  <ele>-24.41</ele>
  <time>2026-09-01T01:14:21Z</time>
  <course>39.59</course>
  <speed>1.0</speed>
  <fix>3d</fix>
</trkpt>
<trkpt lat="33.8105987" lon="-118.3954348">
  <ele>-25.013</ele>
  <time>2026-09-01T01:14:21Z</time>
  <course>129.76</course>
  <speed>1.0206860437960343</speed>
  <fix>3d</fix>
</trkpt>
<trkpt lat="33.8105977" lon="-118.395436">
  <ele>-24.41</ele>
  <time>2026-09-01T01:14:21Z</time>
  <course>39.82</course>
  <speed>1.0</speed>
  <fix>3d</fix>
</trkpt>
<trkpt lat="33.8105994" lon="-118.3954341">
  <ele>-25.013</ele>
  <time>2026-09-01T01:14:21Z</time>
  <course>129.87</course>
  <speed>1.0206860437960343</speed>
  <fix>3d</fix>
</trkpt>
<trkpt lat="33.8105977" lon="-118.395436">
  <ele>-24.41</ele>
  <time>2026-09-01T01:14:21Z</time>
  <course>39.82</course>
  <speed>1.0</speed>
  <fix>3d</fix>
</trkpt>
<trkpt lat="33.8106001" lon="-118.3954334">
  <ele>-25.014</ele>
  <time>2026-09-01T01:14:21Z</time>
  <course>129.98</course>
  <speed>1.0206860437960343</speed>
  <fix>3d</fix>
</trkpt>
<trkpt lat="33.8105992" lon="-118.3954345">
  <ele>-24.41</ele>
  <time>2026-09-01T01:14:21Z</time>
  <course>40.03</course>
  <speed>1.0</speed>
  <fix>3d</fix>
</trkpt>
<trkpt lat="33.8106008" lon="-118.3954327">
  <ele>-25.016</ele>
  <time>2026-09-01T01:14:21Z</time>
  <course>130.1</course>
  <speed>1.0131633629380803</speed>
  <fix>3d</fix>
</trkpt>
<trkpt lat="33.8105992" lon="-118.3954345">
  <ele>-24.41</ele>
  <time>2026-09-01T01:14:21Z</time>
  <course>40.03</course>
  <speed>1.0</speed>
  <fix>3d</fix>
</trkpt>
<trkpt lat="33.8106015" lon="-118.395432">
  <ele>-25.017</ele>
  <time>2026-09-01T01:14:21Z</time>
  <course>130.21</course>
  <speed>1.0131633629380803</speed>
  <fix>3d</fix>
</trkpt>
<trkpt lat="33.8106005" lon="-118.3954332">
  <ele>-24.42</ele>
  <time>2026-09-01T01:14:21Z</time>
  <course>40.23</course>
  <speed>1.0</speed>
  <fix>3d</fix>
</trkpt>
<trkpt lat="33.8106022" lon="-118.3954313">
  <ele>-25.018</ele>
  <time>2026-09-01T01:14:21Z</time>
  <course>130.33</course>
  <speed>1.0131633629380803</speed>
  <fix>3d</fix>
</trkpt>
<trkpt lat="33.8106005" lon="-118.3954332">
  <ele>-24.42</ele>
  <time>2026-09-01T01:14:21Z</time>
  <course>40.23</course>
  <speed>1.0</speed>
  <fix>3d</fix>
</trkpt>
<trkpt lat="33.8106029" lon="-118.3954306">
  <ele>-25.019</ele>
  <time>2026-09-01T01:14:21Z</time>
  <course>130.45</course>
  <speed>1.0131633629380803</speed>
  <fix>3d</fix>
</trkpt>
<trkpt lat="33.8106018" lon="-118.3954318">
  <ele>-24.42</ele>
  <time>2026-09-01T01:14:21Z</time>
  <course>40.44</course>
  <speed>1.0</speed>
  <fix>3d</fix>
</trkpt>
<trkpt lat="33.8106035" lon="-118.3954299">
  <ele>-25.02</ele>
  <time>2026-09-01T01:14:21Z</time>
  <course>130.56</course>
  <speed>1.019803902718557</speed>
  <fix>3d</fix>
</trkpt>
<trkpt lat="33.8106018" lon="-118.3954318">
  <ele>-24.42</ele>
  <time>2026-09-01T01:14:21Z</time>
  <course>40.44</course>
  <speed>1.0</speed>
  <fix>3d</fix>
</trkpt>
<trkpt lat="33.8106042" lon="-118.3954291">
  <ele>-25.02</ele>
  <time>2026-09-01T01:14:21Z</time>
  <course>130.68</course>
  <speed>1.019803902718557</speed>
  <fix>3d</fix>
</trkpt>
<trkpt lat="33.8106032" lon="-118.3954304">
  <ele>-24.41</ele>
  <time>2026-09-01T01:14:21Z</time>
  <course>40.64</course>
  <speed>1.0</speed>
  <fix>3d</fix>
</trkpt>
<trkpt lat="33.8106049" lon="-118.3954284">
  <ele>-25.019</ele>
  <time>2026-09-01T01:14:21Z</time>
  <course>130.79</course>
  <speed>1.019803902718557</speed>
  <fix>3d</fix>
</trkpt>
<trkpt lat="33.8106032" lon="-118.3954304">
  <ele>-24.41</ele>
  <time>2026-09-01T01:14:21Z</time>
  <course>40.64</course>
  <speed>1.0</speed>
  <fix>3d</fix>
</trkpt>
<trkpt lat="33.8106056" lon="-118.3954277">
  <ele>-25.018</ele>
  <time>2026-09-01T01:14:21Z</time>
  <course>130.91</course>
  <speed>1.019803902718557</speed>
  <fix>3d</fix>
</trkpt>
<trkpt lat="33.8106046" lon="-118.395429">
  <ele>-24.41</ele>
  <time>2026-09-01T01:14:21Z</time>
  <course>40.84</course>
  <speed>1.0</speed>
  <fix>3d</fix>
</trkpt>
<trkpt lat="33.8106063" lon="-118.395427">
  <ele>-25.017</ele>
  <time>2026-09-01T01:14:21Z</time>
  <course>131.02</course>
  <speed>1.0123734488813898</speed>
  <fix>3d</fix>
</trkpt>
<trkpt lat="33.8106046" lon="-118.395429">
  <ele>-24.41</ele>
  <time>2026-09-01T01:14:21Z</time>
  <course>40.84</course>
  <speed>1.0</speed>
  <fix>3d</fix>
</trkpt>
<trkpt lat="33.8106069" lon="-118.3954263">
  <ele>-25.015</ele>
  <time>2026-09-01T01:14:21Z</time>
  <course>131.13</course>
  <speed>1.0123734488813898</speed>
  <fix>3d</fix>
</trkpt>
<trkpt lat="33.810606" lon="-118.3954275">
  <ele>-24.41</ele>
  <time>2026-09-01T01:14:21Z</time>
  <course>41.06</course>
  <speed>1.0</speed>
  <fix>3d</fix>
</trkpt>
<trkpt lat="33.8106076" lon="-118.3954256">
  <ele>-25.013</ele>
  <time>2026-09-01T01:14:21Z</time>
  <course>131.25</course>
  <speed>1.0123734488813898</speed>
  <fix>3d</fix>
</trkpt>
<trkpt lat="33.810606" lon="-118.3954275">
  <ele>-24.41</ele>
  <time>2026-09-01T01:14:21Z</time>
  <course>41.06</course>
  <speed>1.0</speed>
  <fix>3d</fix>
</trkpt>
<trkpt lat="33.8106083" lon="-118.3954249">
  <ele>-25.012</ele>
  <time>2026-09-01T01:14:21Z</time>
  <course>131.36</course>
  <speed>1.0191172650877818</speed>
  <fix>3d</fix>
</trkpt>
<trkpt lat="33.8106073" lon="-118.3954261">
  <ele>-24.4</ele>
  <time>2026-09-01T01:14:21Z</time>
  <course>41.31</course>
  <speed>1.0</speed>
  <fix>3d</fix>
</trkpt>
<trkpt lat="33.810609" lon="-118.3954241">
  <ele>-25.011</ele>
  <time>2026-09-01T01:14:21Z</time>
  <course>131.47</course>
  <speed>1.0191172650877818</speed>
  <fix>3d</fix>
</trkpt>
<trkpt lat="33.8106073" lon="-118.3954261">
  <ele>-24.4</ele>
  <time>2026-09-01T01:14:21Z</time>
  <course>41.31</course>
  <speed>1.0</speed>
  <fix>3d</fix>
</trkpt>
<trkpt lat="33.8106096" lon="-118.3954234">
  <ele>-25.011</ele>
  <time>2026-09-01T01:14:21Z</time>
  <course>131.59</course>
  <speed>1.0191172650877818</speed>
  <fix>3d</fix>
</trkpt>
<trkpt lat="33.8106087" lon="-118.3954247">
  <ele>-24.4</ele>
  <time>2026-09-01T01:14:21Z</time>
  <course>41.55</course>
  <speed>1.0</speed>
  <fix>3d</fix>
</trkpt>
<trkpt lat="33.8106103" lon="-118.3954227">
  <ele>-25.011</ele>
  <time>2026-09-01T01:14:21Z</time>
  <course>131.7</course>
  <speed>1.0117806086301515</speed>
  <fix>3d</fix>
</trkpt>
<trkpt lat="33.8106087" lon="-118.3954247">
  <ele>-24.4</ele>
  <time>2026-09-01T01:14:21Z</time>
  <course>41.55</course>
  <speed>1.0</speed>
  <fix>3d</fix>
</trkpt>
<trkpt lat="33.810611" lon="-118.395422">
  <ele>-25.012</ele>
  <time>2026-09-01T01:14:21Z</time>
  <course>131.82</course>
  <speed>1.0117806086301515</speed>
  <fix>3d</fix>
</trkpt>
<trkpt lat="33.81061" lon="-118.3954232">
  <ele>-24.4</ele>
  <time>2026-09-01T01:14:21Z</time>
  <course>41.79</course>
  <speed>1.0</speed>
  <fix>3d</fix>
</trkpt>
<trkpt lat="33.8106116" lon="-118.3954213">
  <ele>-25.012</ele>
  <time>2026-09-01T01:14:21Z</time>
  <course>131.93</course>
  <speed>1.0117806086301515</speed>
  <fix>3d</fix>
</trkpt>
<trkpt lat="33.81061" lon="-118.3954232">
  <ele>-24.4</ele>
  <time>2026-09-01T01:14:21Z</time>
  <course>41.79</course>
  <speed>1.0</speed>
  <fix>3d</fix>
</trkpt>
<trkpt lat="33.8106123" lon="-118.3954205">
  <ele>-25.012</ele>
  <time>2026-09-01T01:14:21Z</time>
  <course>132.05</course>
  <speed>1.0117806086301515</speed>
  <fix>3d</fix>
</trkpt>
<trkpt lat="33.8106114" lon="-118.3954218">
  <ele>-24.4</ele>
  <time>2026-09-01T01:14:21Z</time>
  <course>42.04</course>
  <speed>1.0</speed>
  <fix>3d</fix>
</trkpt>
<trkpt lat="33.810613" lon="-118.3954198">
  <ele>-25.012</ele>
  <time>2026-09-01T01:14:21Z</time>
  <course>132.16</course>
  <speed>1.0186265262597474</speed>
  <fix>3d</fix>
</trkpt>
<trkpt lat="33.8106114" lon="-118.3954218">
  <ele>-24.4</ele>
  <time>2026-09-01T01:14:21Z</time>
  <course>42.04</course>
  <speed>1.0</speed>
  <fix>3d</fix>
</trkpt>
<trkpt lat="33.8106136" lon="-118.3954191">
  <ele>-25.012</ele>
  <time>2026-09-01T01:14:21Z</time>
  <course>132.28</course>
  <speed>1.0186265262597474</speed>
  <fix>3d</fix>
</trkpt>
<trkpt lat="33.8106127" lon="-118.3954203">
  <ele>-24.41</ele>
  <time>2026-09-01T01:14:21Z</time>
  <course>42.28</course>
  <speed>1.0</speed>
  <fix>3d</fix>
</trkpt>
<trkpt lat="33.8106143" lon="-118.3954183">
  <ele>-25.013</ele>
  <time>2026-09-01T01:14:21Z</time>
  <course>132.39</course>
  <speed>1.0113851887386922</speed>
  <fix>3d</fix>
</trkpt>
<trkpt lat="33.8106127" lon="-118.3954203">
  <ele>-24.41</ele>
  <time>2026-09-01T01:14:21Z</time>
  <course>42.28</course>
  <speed>1.0</speed>
  <fix>3d</fix>
</trkpt>
<trkpt lat="33.810615" lon="-118.3954176">
  <ele>-25.013</ele>
  <time>2026-09-01T01:14:21Z</time>
  <course>132.51</course>
  <speed>1.0113851887386922</speed>
  <fix>3d</fix>
</trkpt>
<trkpt lat="33.810614" lon="-118.3954189">
  <ele>-24.41</ele>
  <time>2026-09-01T01:14:21Z</time>
  <course>42.53</course>
  <speed>1.0</speed>
  <fix>3d</fix>
</trkpt>
<trkpt lat="33.8106156" lon="-118.3954169">
  <ele>-25.013</ele>
  <time>2026-09-01T01:14:21Z</time>
  <course>132.62</course>
  <speed>1.0113851887386922</speed>
  <fix>3d</fix>
</trkpt>
<trkpt lat="33.810614" lon="-118.3954189">
  <ele>-24.41</ele>
  <time>2026-09-01T01:14:21Z</time>
  <course>42.53</course>
  <speed>1.0</speed>
  <fix>3d</fix>
</trkpt>
<trkpt lat="33.8106163" lon="-118.3954161">
  <ele>-25.013</ele>
  <time>2026-09-01T01:14:21Z</time>
  <course>132.74</course>
  <speed>1.0113851887386922</speed>
  <fix>3d</fix>
</trkpt>
<trkpt lat="33.8106153" lon="-118.3954174">
  <ele>-24.41</ele>
  <time>2026-09-01T01:14:21Z</time>
  <course>42.76</course>
  <speed>0.99</speed>
  <fix>3d</fix>
</trkpt>
<trkpt lat="33.8106169" lon="-118.3954154">
  <ele>-25.013</ele>
  <time>2026-09-01T01:14:21Z</time>
  <course>132.85</course>
  <speed>1.0183319694480775</speed>
  <fix>3d</fix>
</trkpt>
<trkpt lat="33.8106153" lon="-118.3954174">
  <ele>-24.41</ele>
  <time>2026-09-01T01:14:21Z</time>
  <course>42.76</course>
  <speed>0.99</speed>
  <fix>3d</fix>
</trkpt>
<trkpt lat="33.8106176" lon="-118.3954147">
  <ele>-25.013</ele>
  <time>2026-09-01T01:14:21Z</time>
  <course>132.96</course>
  <speed>1.0183319694480775</speed>
  <fix>3d</fix>
</trkpt>
<trkpt lat="33.8106167" lon="-118.3954159">
  <ele>-24.41</ele>
  <time>2026-09-01T01:14:21Z</time>
  <course>42.98</course>
  <speed>1.0</speed>
  <fix>3d</fix>
</trkpt>
<trkpt lat="33.8106182" lon="-118.3954139">
  <ele>-25.014</ele>
  <time>2026-09-01T01:14:21Z</time>
  <course>133.08</course>
  <speed>1.0183319694480775</speed>
  <fix>3d</fix>
</trkpt>
<trkpt lat="33.8106167" lon="-118.3954159">
  <ele>-24.41</ele>
  <time>2026-09-01T01:14:21Z</time>
  <course>42.98</course>
  <speed>1.0</speed>
  <fix>3d</fix>
</trkpt>
<trkpt lat="33.8106189" lon="-118.3954132">
  <ele>-25.014</ele>
  <time>2026-09-01T01:14:21Z</time>
  <course>133.2</course>
  <speed>1.0183319694480775</speed>
  <fix>3d</fix>
</trkpt>
<trkpt lat="33.810618" lon="-118.3954144">
  <ele>-24.41</ele>
  <time>2026-09-01T01:14:21Z</time>
  <course>43.19</course>
  <speed>1.0</speed>
  <fix>3d</fix>
</trkpt>
<trkpt lat="33.8106196" lon="-118.3954124">
  <ele>-25.014</ele>
  <time>2026-09-01T01:14:21Z</time>
  <course>133.31</course>
  <speed>1.0111874208078342</speed>
  <fix>3d</fix>
</trkpt>
<trkpt lat="33.810618" lon="-118.3954144">
  <ele>-24.41</ele>
  <time>2026-09-01T01:14:21Z</time>
  <course>43.19</course>
  <speed>1.0</speed>
  <fix>3d</fix>
</trkpt>
<trkpt lat="33.8106202" lon="-118.3954117">
  <ele>-25.013</ele>
  <time>2026-09-01T01:14:21Z</time>
  <course>133.43</course>
  <speed>1.0111874208078342</speed>
  <fix>3d</fix>
</trkpt>
<trkpt lat="33.8106193" lon="-118.395413">
  <ele>-24.41</ele>
  <time>2026-09-01T01:14:21Z</time>
  <course>43.42</course>
  <speed>1.0</speed>
  <fix>3d</fix>
</trkpt>
<trkpt lat="33.8106209" lon="-118.3954109">
  <ele>-25.012</ele>
  <time>2026-09-01T01:14:21Z</time>
  <course>133.54</course>
  <speed>1.0111874208078342</speed>
  <fix>3d</fix>
</trkpt>
<trkpt lat="33.8106193" lon="-118.395413">
  <ele>-24.41</ele>
  <time>2026-09-01T01:14:21Z</time>
  <course>43.42</course>
  <speed>1.0</speed>
  <fix>3d</fix>
</trkpt>
<trkpt lat="33.8106215" lon="-118.3954102">
  <ele>-25.012</ele>
  <time>2026-09-01T01:14:21Z</time>
  <course>133.66</course>
  <speed>1.0111874208078342</speed>
  <fix>3d</fix>
</trkpt>
<trkpt lat="33.8106206" lon="-118.3954115">
  <ele>-24.41</ele>
  <time>2026-09-01T01:14:21Z</time>
  <course>43.68</course>
  <speed>0.99</speed>
  <fix>3d</fix>
</trkpt>
<trkpt lat="33.8106222" lon="-118.3954094">
  <ele>-25.012</ele>
  <time>2026-09-01T01:14:21Z</time>
  <course>133.77</course>
  <speed>1.0182337649086284</speed>
  <fix>3d</fix>
</trkpt>
<trkpt lat="33.8106206" lon="-118.3954115">
  <ele>-24.41</ele>
  <time>2026-09-01T01:14:21Z</time>
  <course>43.68</course>
  <speed>0.99</speed>
  <fix>3d</fix>
</trkpt>
<trkpt lat="33.8106228" lon="-118.3954087">
  <ele>-25.013</ele>
  <time>2026-09-01T01:14:21Z</time>
  <course>133.89</course>
  <speed>1.0182337649086284</speed>
  <fix>3d</fix>
</trkpt>
<trkpt lat="33.8106219" lon="-118.39541">
  <ele>-24.41</ele>
  <time>2026-09-01T01:14:21Z</time>
  <course>43.95</course>
  <speed>0.99</speed>
  <fix>3d</fix>
</trkpt>
<trkpt lat="33.8106234" lon="-118.3954079">
  <ele>-25.015</ele>
  <time>2026-09-01T01:14:21Z</time>
  <course>134.0</course>
  <speed>1.0111874208078342</speed>
  <fix>3d</fix>
</trkpt>
<trkpt lat="33.8106219" lon="-118.39541">
  <ele>-24.41</ele>
  <time>2026-09-01T01:14:21Z</time>
  <course>43.95</course>
  <speed>0.99</speed>
  <fix>3d</fix>
</trkpt>
<trkpt lat="33.8106241" lon="-118.3954072">
  <ele>-25.016</ele>
  <time>2026-09-01T01:14:21Z</time>
  <course>134.11</course>
  <speed>1.0111874208078342</speed>
  <fix>3d</fix>
</trkpt>
<trkpt lat="33.8106232" lon="-118.3954085">
  <ele>-24.41</ele>
  <time>2026-09-01T01:14:21Z</time>
  <course>44.21</course>
  <speed>1.0</speed>
  <fix>3d</fix>
</trkpt>
<trkpt lat="33.8106247" lon="-118.3954064">
  <ele>-25.016</ele>
  <time>2026-09-01T01:14:21Z</time>
  <course>134.23</course>
  <speed>1.0111874208078342</speed>
  <fix>3d</fix>
</trkpt>
<trkpt lat="33.8106232" lon="-118.3954085">
  <ele>-24.41</ele>
  <time>2026-09-01T01:14:21Z</time>
  <course>44.21</course>
  <speed>1.0</speed>
  <fix>3d</fix>
</trkpt>
<trkpt lat="33.8106254" lon="-118.3954057">
  <ele>-25.016</ele>
  <time>2026-09-01T01:14:21Z</time>
  <course>134.34</course>
  <speed>1.0111874208078342</speed>
  <fix>3d</fix>
</trkpt>
<trkpt lat="33.8106244" lon="-118.3954069">
  <ele>-24.41</ele>
  <time>2026-09-01T01:14:21Z</time>
  <course>44.48</course>
  <speed>1.0</speed>
  <fix>3d</fix>
</trkpt>
<trkpt lat="33.810626" lon="-118.3954049">
  <ele>-25.016</ele>
  <time>2026-09-01T01:14:21Z</time>
  <course>134.46</course>
  <speed>1.0183319694480775</speed>
  <fix>3d</fix>
</trkpt>
<trkpt lat="33.8106244" lon="-118.3954069">
  <ele>-24.41</ele>
  <time>2026-09-01T01:14:21Z</time>
  <course>44.48</course>
  <speed>1.0</speed>
  <fix>3d</fix>
</trkpt>
<trkpt lat="33.8106266" lon="-118.3954041">
  <ele>-25.015</ele>
  <time>2026-09-01T01:14:21Z</time>
  <course>134.57</course>
  <speed>1.0183319694480775</speed>
  <fix>3d</fix>
</trkpt>
<trkpt lat="33.8106257" lon="-118.3954054">
  <ele>-24.41</ele>
  <time>2026-09-01T01:14:21Z</time>
  <course>44.68</course>
  <speed>1.0</speed>
  <fix>3d</fix>
</trkpt>
<trkpt lat="33.8106273" lon="-118.3954034">
  <ele>-25.014</ele>
  <time>2026-09-01T01:14:21Z</time>
  <course>134.68</course>
  <speed>1.0183319694480775</speed>
  <fix>3d</fix>
</trkpt>
<trkpt lat="33.8106257" lon="-118.3954054">
  <ele>-24.41</ele>
  <time>2026-09-01T01:14:21Z</time>
  <course>44.68</course>
  <speed>1.0</speed>
  <fix>3d</fix>
</trkpt>
<trkpt lat="33.8106279" lon="-118.3954026">
  <ele>-25.014</ele>
  <time>2026-09-01T01:14:21Z</time>
  <course>134.8</course>
  <speed>1.0183319694480775</speed>
  <fix>3d</fix>
</trkpt>
<trkpt lat="33.810627" lon="-118.3954039">
  <ele>-24.41</ele>
  <time>2026-09-01T01:14:21Z</time>
  <course>44.82</course>
  <speed>1.0</speed>
  <fix>3d</fix>
</trkpt>
<trkpt lat="33.8106285" lon="-118.3954018">
  <ele>-25.014</ele>
  <time>2026-09-01T01:14:21Z</time>
  <course>134.92</course>
  <speed>1.0183319694480775</speed>
  <fix>3d</fix>
</trkpt>
<trkpt lat="33.810627" lon="-118.3954039">
  <ele>-24.41</ele>
  <time>2026-09-01T01:14:21Z</time>
  <course>44.82</course>
  <speed>1.0</speed>
  <fix>3d</fix>
</trkpt>
<trkpt lat="33.8106292" lon="-118.3954011">
  <ele>-25.014</ele>
  <time>2026-09-01T01:14:21Z</time>
  <course>135.03</course>
  <speed>1.0183319694480775</speed>
  <fix>3d</fix>
</trkpt>
<trkpt lat="33.8106283" lon="-118.3954024">
  <ele>-24.41</ele>
  <time>2026-09-01T01:14:21Z</time>
  <course>44.96</course>
  <speed>1.0</speed>
  <fix>3d</fix>
</trkpt>
<trkpt lat="33.8106298" lon="-118.3954003">
  <ele>-25.016</ele>
  <time>2026-09-01T01:14:21Z</time>
  <course>135.14</course>
  <speed>1.0186265262597474</speed>
  <fix>3d</fix>
</trkpt>
<trkpt lat="33.8106283" lon="-118.3954024">
  <ele>-24.41</ele>
  <time>2026-09-01T01:14:21Z</time>
  <course>44.96</course>
  <speed>1.0</speed>
  <fix>3d</fix>
</trkpt>
<trkpt lat="33.8106304" lon="-118.3953995">
  <ele>-25.017</ele>
  <time>2026-09-01T01:14:21Z</time>
  <course>135.26</course>
  <speed>1.0186265262597474</speed>
  <fix>3d</fix>
</trkpt>
<trkpt lat="33.8106296" lon="-118.3954009">
  <ele>-24.41</ele>
  <time>2026-09-01T01:14:21Z</time>
  <course>45.17</course>
  <speed>1.0</speed>
  <fix>3d</fix>
</trkpt>
<trkpt lat="33.8106311" lon="-118.3953988">
  <ele>-25.018</ele>
  <time>2026-09-01T01:14:21Z</time>
  <course>135.37</course>
  <speed>1.0186265262597474</speed>
  <fix>3d</fix>
</trkpt>
<trkpt lat="33.8106296" lon="-118.3954009">
  <ele>-24.41</ele>
  <time>2026-09-01T01:14:21Z</time>
  <course>45.17</course>
  <speed>1.0</speed>
  <fix>3d</fix>
</trkpt>
<trkpt lat="33.8106317" lon="-118.395398">
  <ele>-25.018</ele>
  <time>2026-09-01T01:14:21Z</time>
  <course>135.48</course>
  <speed>1.0186265262597474</speed>
  <fix>3d</fix>
</trkpt>
<trkpt lat="33.8106308" lon="-118.3953993">
  <ele>-24.41</ele>
  <time>2026-09-01T01:14:21Z</time>
  <course>45.45</course>
  <speed>1.0</speed>
  <fix>3d</fix>
</trkpt>
<trkpt lat="33.8106323" lon="-118.3953972">
  <ele>-25.018</ele>
  <time>2026-09-01T01:14:21Z</time>
  <course>135.6</course>
  <speed>1.0186265262597474</speed>
  <fix>3d</fix>
</trkpt>
<trkpt lat="33.8106308" lon="-118.3953993">
  <ele>-24.41</ele>
  <time>2026-09-01T01:14:21Z</time>
  <course>45.45</course>
  <speed>1.0</speed>
  <fix>3d</fix>
</trkpt>
<trkpt lat="33.8106329" lon="-118.3953965">
  <ele>-25.019</ele>
  <time>2026-09-01T01:14:21Z</time>
  <course>135.72</course>
  <speed>1.0186265262597474</speed>
  <fix>3d</fix>
</trkpt>
<trkpt lat="33.8106321" lon="-118.3953977">
  <ele>-24.41</ele>
  <time>2026-09-01T01:14:21Z</time>
  <course>45.74</course>
  <speed>1.0</speed>
  <fix>3d</fix>
</trkpt>
<trkpt lat="33.8106336" lon="-118.3953957">
  <ele>-25.018</ele>
  <time>2026-09-01T01:14:21Z</time>
  <course>135.83</course>
  <speed>1.0117806086301515</speed>
  <fix>3d</fix>
</trkpt>
<trkpt lat="33.8106321" lon="-118.3953977">
  <ele>-24.41</ele>
  <time>2026-09-01T01:14:21Z</time>
  <course>45.74</course>
  <speed>1.0</speed>
  <fix>3d</fix>
</trkpt>
<trkpt lat="33.8106342" lon="-118.3953949">
  <ele>-25.015</ele>
  <time>2026-09-01T01:14:21Z</time>
  <course>135.95</course>
  <speed>1.0191172650877818</speed>
  <fix>3d</fix>
</trkpt>
<trkpt lat="33.8106334" lon="-118.3953962">
  <ele>-24.4</ele>
  <time>2026-09-01T01:14:21Z</time>
  <course>45.95</course>
  <speed>1.0</speed>
  <fix>3d</fix>
</trkpt>
<trkpt lat="33.8106348" lon="-118.3953941">
  <ele>-25.011</ele>
  <time>2026-09-01T01:14:21Z</time>
  <course>136.06</course>
  <speed>1.0191172650877818</speed>
  <fix>3d</fix>
</trkpt>
<trkpt lat="33.8106334" lon="-118.3953962">
  <ele>-24.4</ele>
  <time>2026-09-01T01:14:21Z</time>
  <course>45.95</course>
  <speed>1.0</speed>
  <fix>3d</fix>
</trkpt>
<trkpt lat="33.8106354" lon="-118.3953933">
  <ele>-25.008</ele>
  <time>2026-09-01T01:14:21Z</time>
  <course>136.17</course>
  <speed>1.0191172650877818</speed>
  <fix>3d</fix>
</trkpt>
<trkpt lat="33.8106346" lon="-118.3953946">
  <ele>-24.4</ele>
  <time>2026-09-01T01:14:21Z</time>
  <course>46.18</course>
  <speed>1.0</speed>
  <fix>3d</fix>
</trkpt>
<trkpt lat="33.8106361" lon="-118.3953925">
  <ele>-25.007</ele>
  <time>2026-09-01T01:14:21Z</time>
  <course>136.29</course>
  <speed>1.0191172650877818</speed>
  <fix>3d</fix>
</trkpt>
<trkpt lat="33.8106346" lon="-118.3953946">
  <ele>-24.4</ele>
  <time>2026-09-01T01:14:21Z</time>
  <course>46.18</course>
  <speed>1.0</speed>
  <fix>3d</fix>
</trkpt>
<trkpt lat="33.8106367" lon="-118.3953918">
  <ele>-25.007</ele>
  <time>2026-09-01T01:14:21Z</time>
  <course>136.4</course>
  <speed>1.0191172650877818</speed>
  <fix>3d</fix>
</trkpt>
<trkpt lat="33.8106359" lon="-118.3953931">
  <ele>-24.4</ele>
  <time>2026-09-01T01:14:21Z</time>
  <course>46.43</course>
  <speed>1.0</speed>
  <fix>3d</fix>
</trkpt>
<trkpt lat="33.8106373" lon="-118.395391">
  <ele>-25.01</ele>
  <time>2026-09-01T01:14:21Z</time>
  <course>136.52</course>
  <speed>1.0123734488813898</speed>
  <fix>3d</fix>
</trkpt>
<trkpt lat="33.8106359" lon="-118.3953931">
  <ele>-24.4</ele>
  <time>2026-09-01T01:14:21Z</time>
  <course>46.43</course>
  <speed>1.0</speed>
  <fix>3d</fix>
</trkpt>
<trkpt lat="33.8106379" lon="-118.3953902">
  <ele>-25.011</ele>
  <time>2026-09-01T01:14:21Z</time>
  <course>136.63</course>
  <speed>1.0123734488813898</speed>
  <fix>3d</fix>
</trkpt>
<trkpt lat="33.8106371" lon="-118.3953915">
  <ele>-24.4</ele>
  <time>2026-09-01T01:14:21Z</time>
  <course>46.68</course>
  <speed>1.0</speed>
  <fix>3d</fix>
</trkpt>
<trkpt lat="33.8106385" lon="-118.3953894">
  <ele>-25.013</ele>
  <time>2026-09-01T01:14:21Z</time>
  <course>136.75</course>
  <speed>1.019803902718557</speed>
  <fix>3d</fix>
</trkpt>
<trkpt lat="33.8106371" lon="-118.3953915">
  <ele>-24.4</ele>
  <time>2026-09-01T01:14:21Z</time>
  <course>46.68</course>
  <speed>1.0</speed>
  <fix>3d</fix>
</trkpt>
<trkpt lat="33.8106391" lon="-118.3953886">
  <ele>-25.014</ele>
  <time>2026-09-01T01:14:21Z</time>
  <course>136.86</course>
  <speed>1.019803902718557</speed>
  <fix>3d</fix>
</trkpt>
<trkpt lat="33.8106384" lon="-118.3953899">
  <ele>-24.4</ele>
  <time>2026-09-01T01:14:21Z</time>
  <course>46.95</course>
  <speed>1.0</speed>
  <fix>3d</fix>
</trkpt>
<trkpt lat="33.8106398" lon="-118.3953878">
  <ele>-25.015</ele>
  <time>2026-09-01T01:14:21Z</time>
  <course>136.98</course>
  <speed>1.019803902718557</speed>
  <fix>3d</fix>
</trkpt>
<trkpt lat="33.8106384" lon="-118.3953899">
  <ele>-24.4</ele>
  <time>2026-09-01T01:14:21Z</time>
  <course>46.95</course>
  <speed>1.0</speed>
  <fix>3d</fix>
</trkpt>
<trkpt lat="33.8106404" lon="-118.395387">
  <ele>-25.015</ele>
  <time>2026-09-01T01:14:21Z</time>
  <course>137.09</course>
  <speed>1.0131633629380803</speed>
  <fix>3d</fix>
</trkpt>
<trkpt lat="33.8106396" lon="-118.3953883">
  <ele>-24.4</ele>
  <time>2026-09-01T01:14:21Z</time>
  <course>47.21</course>
  <speed>1.0</speed>
  <fix>3d</fix>
</trkpt>
<trkpt lat="33.810641" lon="-118.3953862">
  <ele>-25.014</ele>
  <time>2026-09-01T01:14:21Z</time>
  <course>137.21</course>
  <speed>1.0131633629380803</speed>
  <fix>3d</fix>
</trkpt>
<trkpt lat="33.8106396" lon="-118.3953883">
  <ele>-24.4</ele>
  <time>2026-09-01T01:14:21Z</time>
  <course>47.21</course>
  <speed>1.0</speed>
  <fix>3d</fix>
</trkpt>
<trkpt lat="33.8106416" lon="-118.3953854">
  <ele>-25.012</ele>
  <time>2026-09-01T01:14:21Z</time>
  <course>137.32</course>
  <speed>1.0131633629380803</speed>
  <fix>3d</fix>
</trkpt>
<trkpt lat="33.8106408" lon="-118.3953867">
  <ele>-24.4</ele>
  <time>2026-09-01T01:14:21Z</time>
  <course>47.47</course>
  <speed>1.0</speed>
  <fix>3d</fix>
</trkpt>
<trkpt lat="33.8106422" lon="-118.3953846">
  <ele>-25.011</ele>
  <time>2026-09-01T01:14:21Z</time>
  <course>137.44</course>
  <speed>1.0131633629380803</speed>
  <fix>3d</fix>
</trkpt>
<trkpt lat="33.8106408" lon="-118.3953867">
  <ele>-24.4</ele>
  <time>2026-09-01T01:14:21Z</time>
  <course>47.47</course>
  <speed>1.0</speed>
  <fix>3d</fix>
</trkpt>
<trkpt lat="33.8106428" lon="-118.3953838">
  <ele>-25.011</ele>
  <time>2026-09-01T01:14:21Z</time>
  <course>137.55</course>
  <speed>1.0131633629380803</speed>
  <fix>3d</fix>
</trkpt>
<trkpt lat="33.810642" lon="-118.3953851">
  <ele>-24.4</ele>
  <time>2026-09-01T01:14:21Z</time>
  <course>47.7</course>
  <speed>1.0</speed>
  <fix>3d</fix>
</trkpt>
<trkpt lat="33.8106434" lon="-118.395383">
  <ele>-25.011</ele>
  <time>2026-09-01T01:14:21Z</time>
  <course>137.67</course>
  <speed>1.0131633629380803</speed>
  <fix>3d</fix>
</trkpt>
<trkpt lat="33.810642" lon="-118.3953851">
  <ele>-24.4</ele>
  <time>2026-09-01T01:14:21Z</time>
  <course>47.7</course>
  <speed>1.0</speed>
  <fix>3d</fix>
</trkpt>
<trkpt lat="33.810644" lon="-118.3953822">
  <ele>-25.012</ele>
  <time>2026-09-01T01:14:21Z</time>
  <course>137.78</course>
  <speed>1.0206860437960343</speed>
  <fix>3d</fix>
</trkpt>
<trkpt lat="33.8106432" lon="-118.3953835">
  <ele>-24.4</ele>
  <time>2026-09-01T01:14:21Z</time>
  <course>47.91</course>
  <speed>1.0</speed>
  <fix>3d</fix>
</trkpt>
<trkpt lat="33.8106446" lon="-118.3953814">
  <ele>-25.014</ele>
  <time>2026-09-01T01:14:21Z</time>
  <course>137.89</course>
  <speed>1.0141498903022177</speed>
  <fix>3d</fix>
</trkpt>
<trkpt lat="33.8106432" lon="-118.3953835">
  <ele>-24.4</ele>
  <time>2026-09-01T01:14:21Z</time>
  <course>47.91</course>
  <speed>1.0</speed>
  <fix>3d</fix>
</trkpt>
<trkpt lat="33.8106452" lon="-118.3953806">
  <ele>-25.016</ele>
  <time>2026-09-01T01:14:21Z</time>
  <course>138.01</course>
  <speed>1.0141498903022177</speed>
  <fix>3d</fix>
</trkpt>
<trkpt lat="33.8106444" lon="-118.3953819">
  <ele>-24.41</ele>
  <time>2026-09-01T01:14:21Z</time>
  <course>48.09</course>
  <speed>1.0</speed>
  <fix>3d</fix>
</trkpt>
<trkpt lat="33.8106458" lon="-118.3953798">
  <ele>-25.018</ele>
  <time>2026-09-01T01:14:21Z</time>
  <course>138.12</course>
  <speed>1.0141498903022177</speed>
  <fix>3d</fix>
</trkpt>
<trkpt lat="33.8106444" lon="-118.3953819">
  <ele>-24.41</ele>
  <time>2026-09-01T01:14:21Z</time>
  <course>48.09</course>
  <speed>1.0</speed>
  <fix>3d</fix>
</trkpt>
<trkpt lat="33.8106464" lon="-118.395379">
  <ele>-25.019</ele>
  <time>2026-09-01T01:14:21Z</time>
  <course>138.24</course>
  <speed>1.0141498903022177</speed>
  <fix>3d</fix>
</trkpt>
<trkpt lat="33.8106456" lon="-118.3953803">
  <ele>-24.41</ele>
  <time>2026-09-01T01:14:21Z</time>
  <course>48.25</course>
  <speed>1.0</speed>
  <fix>3d</fix>
</trkpt>
<trkpt lat="33.810647" lon="-118.3953782">
  <ele>-25.018</ele>
  <time>2026-09-01T01:14:21Z</time>
  <course>138.35</course>
  <speed>1.0141498903022177</speed>
  <fix>3d</fix>
</trkpt>
<trkpt lat="33.8106456" lon="-118.3953803">
  <ele>-24.41</ele>
  <time>2026-09-01T01:14:21Z</time>
  <course>48.25</course>
  <speed>1.0</speed>
  <fix>3d</fix>
</trkpt>
<trkpt lat="33.8106476" lon="-118.3953773">
  <ele>-25.017</ele>
  <time>2026-09-01T01:14:21Z</time>
  <course>138.47</course>
  <speed>1.0141498903022177</speed>
  <fix>3d</fix>
</trkpt>
<trkpt lat="33.8106469" lon="-118.3953786">
  <ele>-24.41</ele>
  <time>2026-09-01T01:14:21Z</time>
  <course>48.44</course>
  <speed>1.0</speed>
  <fix>3d</fix>
</trkpt>
<trkpt lat="33.8106482" lon="-118.3953765">
  <ele>-25.017</ele>
  <time>2026-09-01T01:14:21Z</time>
  <course>138.58</course>
  <speed>1.007670581092849</speed>
  <fix>3d</fix>
</trkpt>
<trkpt lat="33.8106469" lon="-118.3953786">
  <ele>-24.41</ele>
  <time>2026-09-01T01:14:21Z</time>
  <course>48.44</course>
  <speed>1.0</speed>
  <fix>3d</fix>
</trkpt>
<trkpt lat="33.8106488" lon="-118.3953757">
  <ele>-25.016</ele>
  <time>2026-09-01T01:14:21Z</time>
  <course>138.7</course>
  <speed>1.007670581092849</speed>
  <fix>3d</fix>
</trkpt>
<trkpt lat="33.8106481" lon="-118.395377">
  <ele>-24.4</ele>
  <time>2026-09-01T01:14:21Z</time>
  <course>48.68</course>
  <speed>1.0</speed>
  <fix>3d</fix>
</trkpt>
<trkpt lat="33.8106494" lon="-118.3953749">
  <ele>-25.014</ele>
  <time>2026-09-01T01:14:21Z</time>
  <course>138.81</course>
  <speed>1.015332457867865</speed>
  <fix>3d</fix>
</trkpt>
<trkpt lat="33.8106481" lon="-118.395377">
  <ele>-24.4</ele>
  <time>2026-09-01T01:14:21Z</time>
  <course>48.68</course>
  <speed>1.0</speed>
  <fix>3d</fix>
</trkpt>
<trkpt lat="33.81065" lon="-118.3953741">
  <ele>-25.011</ele>
  <time>2026-09-01T01:14:21Z</time>
  <course>138.93</course>
  <speed>1.015332457867865</speed>
  <fix>3d</fix>
</trkpt>
<trkpt lat="33.8106492" lon="-118.3953754">
  <ele>-24.4</ele>
  <time>2026-09-01T01:14:21Z</time>
  <course>48.95</course>
  <speed>1.0</speed>
  <fix>3d</fix>
</trkpt>
<trkpt lat="33.8106506" lon="-118.3953733">
  <ele>-25.008</ele>
  <time>2026-09-01T01:14:21Z</time>
  <course>139.04</course>
  <speed>1.015332457867865</speed>
  <fix>3d</fix>
</trkpt>
<trkpt lat="33.8106492" lon="-118.3953754">
  <ele>-24.4</ele>
  <time>2026-09-01T01:14:21Z</time>
  <course>48.95</course>
  <speed>1.0</speed>
  <fix>3d</fix>
</trkpt>
<trkpt lat="33.8106511" lon="-118.3953724">
  <ele>-25.008</ele>
  <time>2026-09-01T01:14:21Z</time>
  <course>139.16</course>
  <speed>1.015332457867865</speed>
  <fix>3d</fix>
</trkpt>
<trkpt lat="33.8106504" lon="-118.3953737">
  <ele>-24.4</ele>
  <time>2026-09-01T01:14:21Z</time>
  <course>49.21</course>
  <speed>1.0</speed>
  <fix>3d</fix>
</trkpt>
<trkpt lat="33.8106517" lon="-118.3953716">
  <ele>-25.009</ele>
  <time>2026-09-01T01:14:21Z</time>
  <course>139.27</course>
  <speed>1.0089598604503551</speed>
  <fix>3d</fix>
</trkpt>
<trkpt lat="33.8106504" lon="-118.3953737">
  <ele>-24.4</ele>
  <time>2026-09-01T01:14:21Z</time>
  <course>49.21</course>
  <speed>1.0</speed>
  <fix>3d</fix>
</trkpt>
<trkpt lat="33.8106523" lon="-118.3953708">
  <ele>-25.011</ele>
  <time>2026-09-01T01:14:21Z</time>
  <course>139.39</course>
  <speed>1.0089598604503551</speed>
  <fix>3d</fix>
</trkpt>
<trkpt lat="33.8106516" lon="-118.3953721">
  <ele>-24.4</ele>
  <time>2026-09-01T01:14:21Z</time>
  <course>49.44</course>
  <speed>0.99</speed>
  <fix>3d</fix>
</trkpt>
<trkpt lat="33.8106529" lon="-118.39537">
  <ele>-25.013</ele>
  <time>2026-09-01T01:14:21Z</time>
  <course>139.5</course>
  <speed>1.0089598604503551</speed>
  <fix>3d</fix>
</trkpt>
<trkpt lat="33.8106516" lon="-118.3953721">
  <ele>-24.4</ele>
  <time>2026-09-01T01:14:21Z</time>
  <course>49.44</course>
  <speed>0.99</speed>
  <fix>3d</fix>
</trkpt>
<trkpt lat="33.8106535" lon="-118.3953691">
  <ele>-25.015</ele>
  <time>2026-09-01T01:14:21Z</time>
  <course>139.61</course>
  <speed>1.0089598604503551</speed>
  <fix>3d</fix>
</trkpt>
<trkpt lat="33.8106527" lon="-118.3953704">
  <ele>-24.4</ele>
  <time>2026-09-01T01:14:21Z</time>
  <course>49.68</course>
  <speed>0.99</speed>
  <fix>3d</fix>
</trkpt>
<trkpt lat="33.8106541" lon="-118.3953683">
  <ele>-25.015</ele>
  <time>2026-09-01T01:14:21Z</time>
  <course>139.73</course>
  <speed>1.0089598604503551</speed>
  <fix>3d</fix>
</trkpt>
<trkpt lat="33.8106527" lon="-118.3953704">
  <ele>-24.4</ele>
  <time>2026-09-01T01:14:21Z</time>
  <course>49.68</course>
  <speed>0.99</speed>
  <fix>3d</fix>
</trkpt>
<trkpt lat="33.8106546" lon="-118.3953675">
  <ele>-25.013</ele>
  <time>2026-09-01T01:14:21Z</time>
  <course>139.84</course>
  <speed>1.0167103815738285</speed>
  <fix>3d</fix>
</trkpt>
<trkpt lat="33.8106539" lon="-118.3953688">
  <ele>-24.4</ele>
  <time>2026-09-01T01:14:21Z</time>
  <course>49.88</course>
  <speed>0.99</speed>
  <fix>3d</fix>
</trkpt>
<trkpt lat="33.8106552" lon="-118.3953666">
  <ele>-25.012</ele>
  <time>2026-09-01T01:14:21Z</time>
  <course>139.96</course>
  <speed>1.0104454463255303</speed>
  <fix>3d</fix>
</trkpt>
<trkpt lat="33.8106539" lon="-118.3953688">
  <ele>-24.4</ele>
  <time>2026-09-01T01:14:21Z</time>
  <course>49.88</course>
  <speed>0.99</speed>
  <fix>3d</fix>
</trkpt>
<trkpt lat="33.8106558" lon="-118.3953658">
  <ele>-25.01</ele>
  <time>2026-09-01T01:14:21Z</time>
  <course>140.07</course>
  <speed>1.0104454463255303</speed>
  <fix>3d</fix>
</trkpt>
<trkpt lat="33.810655" lon="-118.3953672">
  <ele>-24.4</ele>
  <time>2026-09-01T01:14:21Z</time>
  <course>50.08</course>
  <speed>0.99</speed>
  <fix>3d</fix>
</trkpt>
<trkpt lat="33.8106564" lon="-118.395365">
  <ele>-25.008</ele>
  <time>2026-09-01T01:14:21Z</time>
  <course>140.19</course>
  <speed>1.0104454463255303</speed>
  <fix>3d</fix>
</trkpt>
<trkpt lat="33.810655" lon="-118.3953672">
  <ele>-24.4</ele>
  <time>2026-09-01T01:14:21Z</time>
  <course>50.08</course>
  <speed>0.99</speed>
  <fix>3d</fix>
</trkpt>
<trkpt lat="33.8106569" lon="-118.3953641">
  <ele>-25.009</ele>
  <time>2026-09-01T01:14:21Z</time>
  <course>140.3</course>
  <speed>1.0104454463255303</speed>
  <fix>3d</fix>
</trkpt>
<trkpt lat="33.8106561" lon="-118.3953655">
  <ele>-24.4</ele>
  <time>2026-09-01T01:14:21Z</time>
  <course>50.29</course>
  <speed>0.99</speed>
  <fix>3d</fix>
</trkpt>
<trkpt lat="33.8106575" lon="-118.3953633">
  <ele>-25.01</ele>
  <time>2026-09-01T01:14:21Z</time>
  <course>140.42</course>
  <speed>1.0104454463255303</speed>
  <fix>3d</fix>
</trkpt>
<trkpt lat="33.8106561" lon="-118.3953655">
  <ele>-24.4</ele>
  <time>2026-09-01T01:14:21Z</time>
  <course>50.29</course>
  <speed>0.99</speed>
  <fix>3d</fix>
</trkpt>
<trkpt lat="33.8106581" lon="-118.3953625">
  <ele>-25.013</ele>
  <time>2026-09-01T01:14:21Z</time>
  <course>140.53</course>
  <speed>1.0104454463255303</speed>
  <fix>3d</fix>
</trkpt>
<trkpt lat="33.8106573" lon="-118.3953638">
  <ele>-24.41</ele>
  <time>2026-09-01T01:14:21Z</time>
  <course>50.47</course>
  <speed>0.99</speed>
  <fix>3d</fix>
</trkpt>
<trkpt lat="33.8106586" lon="-118.3953616">
  <ele>-25.016</ele>
  <time>2026-09-01T01:14:21Z</time>
  <course>140.64</course>
  <speed>1.0182828683622247</speed>
  <fix>3d</fix>
</trkpt>
<trkpt lat="33.8106573" lon="-118.3953638">
  <ele>-24.41</ele>
  <time>2026-09-01T01:14:21Z</time>
  <course>50.47</course>
  <speed>0.99</speed>
  <fix>3d</fix>
</trkpt>
<trkpt lat="33.8106592" lon="-118.3953608">
  <ele>-25.017</ele>
  <time>2026-09-01T01:14:21Z</time>
  <course>140.76</course>
  <speed>1.0182828683622247</speed>
  <fix>3d</fix>
</trkpt>
<trkpt lat="33.8106584" lon="-118.3953622">
  <ele>-24.41</ele>
  <time>2026-09-01T01:14:21Z</time>
  <course>50.64</course>
  <speed>0.99</speed>
  <fix>3d</fix>
</trkpt>
<trkpt lat="33.8106598" lon="-118.39536">
  <ele>-25.019</ele>
  <time>2026-09-01T01:14:21Z</time>
  <course>140.87</course>
  <speed>1.0121264743103995</speed>
  <fix>3d</fix>
</trkpt>
<trkpt lat="33.8106584" lon="-118.3953622">
  <ele>-24.41</ele>
  <time>2026-09-01T01:14:21Z</time>
  <course>50.64</course>
  <speed>0.99</speed>
  <fix>3d</fix>
</trkpt>
<trkpt lat="33.8106603" lon="-118.3953591">
  <ele>-25.02</ele>
  <time>2026-09-01T01:14:21Z</time>
  <course>140.99</course>
  <speed>1.0121264743103995</speed>
  <fix>3d</fix>
</trkpt>
<trkpt lat="33.8106596" lon="-118.3953605">
  <ele>-24.41</ele>
  <time>2026-09-01T01:14:21Z</time>
  <course>50.84</course>
  <speed>1.0</speed>
  <fix>3d</fix>
</trkpt>
<trkpt lat="33.8106609" lon="-118.3953583">
  <ele>-25.02</ele>
  <time>2026-09-01T01:14:22Z</time>
  <course>141.1</course>
  <speed>1.0121264743103995</speed>
  <fix>3d</fix>
</trkpt>
<trkpt lat="33.8106596" lon="-118.3953605">
  <ele>-24.41</ele>
  <time>2026-09-01T01:14:22Z</time>
  <course>50.84</course>
  <speed>1.0</speed>
  <fix>3d</fix>
</trkpt>
<trkpt lat="33.8106614" lon="-118.3953574">
  <ele>-25.019</ele>
  <time>2026-09-01T01:14:22Z</time>
  <course>141.21</course>
  <speed>1.0121264743103995</speed>
  <fix>3d</fix>
</trkpt>
<trkpt lat="33.8106607" lon="-118.3953588">
  <ele>-24.41</ele>
  <time>2026-09-01T01:14:22Z</time>
  <course>51.07</course>
  <speed>1.0</speed>
  <fix>3d</fix>
</trkpt>
<trkpt lat="33.810662" lon="-118.3953566">
  <ele>-25.018</ele>
  <time>2026-09-01T01:14:22Z</time>
  <course>141.33</course>
  <speed>1.0121264743103995</speed>
  <fix>3d</fix>
</trkpt>
<trkpt lat="33.8106607" lon="-118.3953588">
  <ele>-24.41</ele>
  <time>2026-09-01T01:14:22Z</time>
  <course>51.07</course>
  <speed>1.0</speed>
  <fix>3d</fix>
</trkpt>
<trkpt lat="33.8106626" lon="-118.3953557">
  <ele>-25.017</ele>
  <time>2026-09-01T01:14:22Z</time>
  <course>141.44</course>
  <speed>1.0200490184299968</speed>
  <fix>3d</fix>
</trkpt>
<trkpt lat="33.8106619" lon="-118.3953571">
  <ele>-24.41</ele>
  <time>2026-09-01T01:14:22Z</time>
  <course>51.32</course>
  <speed>1.0</speed>
  <fix>3d</fix>
</trkpt>
<trkpt lat="33.8106631" lon="-118.3953549">
  <ele>-25.015</ele>
  <time>2026-09-01T01:14:22Z</time>
  <course>141.56</course>
  <speed>1.0140019723846694</speed>
  <fix>3d</fix>
</trkpt>
<trkpt lat="33.8106619" lon="-118.3953571">
  <ele>-24.41</ele>
  <time>2026-09-01T01:14:22Z</time>
  <course>51.32</course>
  <speed>1.0</speed>
  <fix>3d</fix>
</trkpt>
<trkpt lat="33.8106637" lon="-118.395354">
  <ele>-25.014</ele>
  <time>2026-09-01T01:14:22Z</time>
  <course>141.67</course>
  <speed>1.0140019723846694</speed>
  <fix>3d</fix>
</trkpt>
<trkpt lat="33.810663" lon="-118.3953554">
  <ele>-24.4</ele>
  <time>2026-09-01T01:14:22Z</time>
  <course>51.59</course>
  <speed>1.0</speed>
  <fix>3d</fix>
</trkpt>
<trkpt lat="33.8106642" lon="-118.3953532">
  <ele>-25.014</ele>
  <time>2026-09-01T01:14:22Z</time>
  <course>141.79</course>
  <speed>1.0140019723846694</speed>
  <fix>3d</fix>
</trkpt>
<trkpt lat="33.810663" lon="-118.3953554">
  <ele>-24.4</ele>
  <time>2026-09-01T01:14:22Z</time>
  <course>51.59</course>
  <speed>1.0</speed>
  <fix>3d</fix>
</trkpt>
<trkpt lat="33.8106648" lon="-118.3953523">
  <ele>-25.014</ele>
  <time>2026-09-01T01:14:22Z</time>
  <course>141.91</course>
  <speed>1.0140019723846694</speed>
  <fix>3d</fix>
</trkpt>
<trkpt lat="33.8106641" lon="-118.3953537">
  <ele>-24.4</ele>
  <time>2026-09-01T01:14:22Z</time>
  <course>51.89</course>
  <speed>0.99</speed>
  <fix>3d</fix>
</trkpt>
<trkpt lat="33.8106654" lon="-118.3953515">
  <ele>-25.014</ele>
  <time>2026-09-01T01:14:22Z</time>
  <course>142.02</course>
  <speed>1.0140019723846694</speed>
  <fix>3d</fix>
</trkpt>
<trkpt lat="33.8106641" lon="-118.3953537">
  <ele>-24.4</ele>
  <time>2026-09-01T01:14:22Z</time>
  <course>51.89</course>
  <speed>0.99</speed>
  <fix>3d</fix>
</trkpt>
<trkpt lat="33.8106659" lon="-118.3953506">
  <ele>-25.013</ele>
  <time>2026-09-01T01:14:22Z</time>
  <course>142.13</course>
  <speed>1.0080178569846865</speed>
  <fix>3d</fix>
</trkpt>
<trkpt lat="33.8106652" lon="-118.395352">
  <ele>-24.4</ele>
  <time>2026-09-01T01:14:22Z</time>
  <course>52.16</course>
  <speed>0.99</speed>
  <fix>3d</fix>
</trkpt>
<trkpt lat="33.8106664" lon="-118.3953498">
  <ele>-25.012</ele>
  <time>2026-09-01T01:14:22Z</time>
  <course>142.25</course>
  <speed>1.0080178569846865</speed>
  <fix>3d</fix>
</trkpt>
<trkpt lat="33.8106652" lon="-118.395352">
  <ele>-24.4</ele>
  <time>2026-09-01T01:14:22Z</time>
  <course>52.16</course>
  <speed>0.99</speed>
  <fix>3d</fix>
</trkpt>
<trkpt lat="33.810667" lon="-118.3953489">
  <ele>-25.01</ele>
  <time>2026-09-01T01:14:22Z</time>
  <course>142.36</course>
  <speed>1.016070863670443</speed>
  <fix>3d</fix>
</trkpt>
<trkpt lat="33.8106663" lon="-118.3953503">
  <ele>-24.4</ele>
  <time>2026-09-01T01:14:22Z</time>
  <course>52.42</course>
  <speed>0.99</speed>
  <fix>3d</fix>
</trkpt>
<trkpt lat="33.8106675" lon="-118.395348">
  <ele>-25.008</ele>
  <time>2026-09-01T01:14:22Z</time>
  <course>142.48</course>
  <speed>1.016070863670443</speed>
  <fix>3d</fix>
</trkpt>
<trkpt lat="33.8106663" lon="-118.3953503">
  <ele>-24.4</ele>
  <time>2026-09-01T01:14:22Z</time>
  <course>52.42</course>
  <speed>0.99</speed>
  <fix>3d</fix>
</trkpt>
<trkpt lat="33.8106681" lon="-118.3953472">
  <ele>-25.008</ele>
  <time>2026-09-01T01:14:22Z</time>
  <course>142.59</course>
  <speed>1.016070863670443</speed>
  <fix>3d</fix>
</trkpt>
<trkpt lat="33.8106674" lon="-118.3953486">
  <ele>-24.4</ele>
  <time>2026-09-01T01:14:22Z</time>
  <course>52.65</course>
  <speed>0.99</speed>
  <fix>3d</fix>
</trkpt>
<trkpt lat="33.8106686" lon="-118.3953463">
  <ele>-25.009</ele>
  <time>2026-09-01T01:14:22Z</time>
  <course>142.71</course>
  <speed>1.016070863670443</speed>
  <fix>3d</fix>
</trkpt>
<trkpt lat="33.8106674" lon="-118.3953486">
  <ele>-24.4</ele>
  <time>2026-09-01T01:14:22Z</time>
  <course>52.65</course>
  <speed>0.99</speed>
  <fix>3d</fix>
</trkpt>
<trkpt lat="33.8106692" lon="-118.3953455">
  <ele>-25.011</ele>
  <time>2026-09-01T01:14:22Z</time>
  <course>142.82</course>
  <speed>1.010198000393982</speed>
  <fix>3d</fix>
</trkpt>
<trkpt lat="33.8106685" lon="-118.3953469">
  <ele>-24.4</ele>
  <time>2026-09-01T01:14:22Z</time>
  <course>52.87</course>
  <speed>0.99</speed>
  <fix>3d</fix>
</trkpt>
<trkpt lat="33.8106697" lon="-118.3953446">
  <ele>-25.013</ele>
  <time>2026-09-01T01:14:22Z</time>
  <course>142.93</course>
  <speed>1.010198000393982</speed>
  <fix>3d</fix>
</trkpt>
<trkpt lat="33.8106685" lon="-118.3953469">
  <ele>-24.4</ele>
  <time>2026-09-01T01:14:22Z</time>
  <course>52.87</course>
  <speed>0.99</speed>
  <fix>3d</fix>
</trkpt>
<trkpt lat="33.8106702" lon="-118.3953437">
  <ele>-25.014</ele>
  <time>2026-09-01T01:14:22Z</time>
  <course>143.05</course>
  <speed>1.010198000393982</speed>
  <fix>3d</fix>
</trkpt>
<trkpt lat="33.8106696" lon="-118.3953452">
  <ele>-24.4</ele>
  <time>2026-09-01T01:14:22Z</time>
  <course>53.11</course>
  <speed>0.99</speed>
  <fix>3d</fix>
</trkpt>
<trkpt lat="33.8106708" lon="-118.3953429">
  <ele>-25.015</ele>
  <time>2026-09-01T01:14:22Z</time>
  <course>143.16</course>
  <speed>1.0183319694480775</speed>
  <fix>3d</fix>
</trkpt>
<trkpt lat="33.8106696" lon="-118.3953452">
  <ele>-24.4</ele>
  <time>2026-09-01T01:14:22Z</time>
  <course>53.11</course>
  <speed>0.99</speed>
  <fix>3d</fix>
</trkpt>
<trkpt lat="33.8106713" lon="-118.395342">
  <ele>-25.015</ele>
  <time>2026-09-01T01:14:22Z</time>
  <course>143.28</course>
  <speed>1.0183319694480775</speed>
  <fix>3d</fix>
</trkpt>
<trkpt lat="33.8106706" lon="-118.3953434">
  <ele>-24.41</ele>
  <time>2026-09-01T01:14:22Z</time>
  <course>53.38</course>
  <speed>0.99</speed>
  <fix>3d</fix>
</trkpt>
<trkpt lat="33.8106719" lon="-118.3953411">
  <ele>-25.015</ele>
  <time>2026-09-01T01:14:22Z</time>
  <course>143.4</course>
  <speed>1.0183319694480775</speed>
  <fix>3d</fix>
</trkpt>
<trkpt lat="33.8106706" lon="-118.3953434">
  <ele>-24.41</ele>
  <time>2026-09-01T01:14:22Z</time>
  <course>53.38</course>
  <speed>0.99</speed>
  <fix>3d</fix>
</trkpt>
<trkpt lat="33.8106724" lon="-118.3953403">
  <ele>-25.015</ele>
  <time>2026-09-01T01:14:22Z</time>
  <course>143.51</course>
  <speed>1.0125709851659783</speed>
  <fix>3d</fix>
</trkpt>
<trkpt lat="33.8106717" lon="-118.3953417">
  <ele>-24.41</ele>
  <time>2026-09-01T01:14:22Z</time>
  <course>53.64</course>
  <speed>1.0</speed>
  <fix>3d</fix>
</trkpt>
<trkpt lat="33.8106729" lon="-118.3953394">
  <ele>-25.014</ele>
  <time>2026-09-01T01:14:22Z</time>
  <course>143.62</course>
  <speed>1.0125709851659783</speed>
  <fix>3d</fix>
</trkpt>
<trkpt lat="33.8106717" lon="-118.3953417">
  <ele>-24.41</ele>
  <time>2026-09-01T01:14:22Z</time>
  <course>53.64</course>
  <speed>1.0</speed>
  <fix>3d</fix>
</trkpt>
<trkpt lat="33.8106734" lon="-118.3953385">
  <ele>-25.013</ele>
  <time>2026-09-01T01:14:22Z</time>
  <course>143.74</course>
  <speed>1.0125709851659783</speed>
  <fix>3d</fix>
</trkpt>
<trkpt lat="33.8106728" lon="-118.3953399">
  <ele>-24.41</ele>
  <time>2026-09-01T01:14:22Z</time>
  <course>53.85</course>
  <speed>1.0</speed>
  <fix>3d</fix>
</trkpt>
<trkpt lat="33.810674" lon="-118.3953376">
  <ele>-25.013</ele>
  <time>2026-09-01T01:14:22Z</time>
  <course>143.85</course>
  <speed>1.0125709851659783</speed>
  <fix>3d</fix>
</trkpt>
<trkpt lat="33.8106728" lon="-118.3953399">
  <ele>-24.41</ele>
  <time>2026-09-01T01:14:22Z</time>
  <course>53.85</course>
  <speed>1.0</speed>
  <fix>3d</fix>
</trkpt>
<trkpt lat="33.8106745" lon="-118.3953367">
  <ele>-25.015</ele>
  <time>2026-09-01T01:14:22Z</time>
  <course>143.97</course>
  <speed>1.0125709851659783</speed>
  <fix>3d</fix>
</trkpt>
<trkpt lat="33.8106738" lon="-118.3953382">
  <ele>-24.41</ele>
  <time>2026-09-01T01:14:22Z</time>
  <course>54.06</course>
  <speed>1.0</speed>
  <fix>3d</fix>
</trkpt>
<trkpt lat="33.810675" lon="-118.3953359">
  <ele>-25.016</ele>
  <time>2026-09-01T01:14:22Z</time>
  <course>144.08</course>
  <speed>1.0125709851659783</speed>
  <fix>3d</fix>
</trkpt>
<trkpt lat="33.8106738" lon="-118.3953382">
  <ele>-24.41</ele>
  <time>2026-09-01T01:14:22Z</time>
  <course>54.06</course>
  <speed>1.0</speed>
  <fix>3d</fix>
</trkpt>
<trkpt lat="33.8106755" lon="-118.395335">
  <ele>-25.017</ele>
  <time>2026-09-01T01:14:22Z</time>
  <course>144.19</course>
  <speed>1.0207840124139878</speed>
  <fix>3d</fix>
</trkpt>
<trkpt lat="33.8106748" lon="-118.3953364">
  <ele>-24.41</ele>
  <time>2026-09-01T01:14:22Z</time>
  <course>54.27</course>
  <speed>1.0</speed>
  <fix>3d</fix>
</trkpt>
<trkpt lat="33.8106761" lon="-118.3953341">
  <ele>-25.017</ele>
  <time>2026-09-01T01:14:22Z</time>
  <course>144.31</course>
  <speed>1.0151354589413177</speed>
  <fix>3d</fix>
</trkpt>
<trkpt lat="33.8106748" lon="-118.3953364">
  <ele>-24.41</ele>
  <time>2026-09-01T01:14:22Z</time>
  <course>54.27</course>
  <speed>1.0</speed>
  <fix>3d</fix>
</trkpt>
<trkpt lat="33.8106766" lon="-118.3953332">
  <ele>-25.017</ele>
  <time>2026-09-01T01:14:22Z</time>
  <course>144.42</course>
  <speed>1.0151354589413177</speed>
  <fix>3d</fix>
</trkpt>
<trkpt lat="33.8106759" lon="-118.3953347">
  <ele>-24.41</ele>
  <time>2026-09-01T01:14:22Z</time>
  <course>54.44</course>
  <speed>1.0</speed>
  <fix>3d</fix>
</trkpt>
<trkpt lat="33.8106771" lon="-118.3953323">
  <ele>-25.015</ele>
  <time>2026-09-01T01:14:22Z</time>
  <course>144.54</course>
  <speed>1.0151354589413177</speed>
  <fix>3d</fix>
</trkpt>
<trkpt lat="33.8106759" lon="-118.3953347">
  <ele>-24.41</ele>
  <time>2026-09-01T01:14:22Z</time>
  <course>54.44</course>
  <speed>1.0</speed>
  <fix>3d</fix>
</trkpt>
<trkpt lat="33.8106776" lon="-118.3953315">
  <ele>-25.013</ele>
  <time>2026-09-01T01:14:22Z</time>
  <course>144.65</course>
  <speed>1.0151354589413177</speed>
  <fix>3d</fix>
</trkpt>
<trkpt lat="33.810677" lon="-118.3953329">
  <ele>-24.4</ele>
  <time>2026-09-01T01:14:22Z</time>
  <course>54.61</course>
  <speed>1.0</speed>
  <fix>3d</fix>
</trkpt>
<trkpt lat="33.8106781" lon="-118.3953306">
  <ele>-25.011</ele>
  <time>2026-09-01T01:14:22Z</time>
  <course>144.77</course>
  <speed>1.0151354589413177</speed>
  <fix>3d</fix>
</trkpt>
<trkpt lat="33.810677" lon="-118.3953329">
  <ele>-24.4</ele>
  <time>2026-09-01T01:14:22Z</time>
  <course>54.61</course>
  <speed>1.0</speed>
  <fix>3d</fix>
</trkpt>
<trkpt lat="33.8106787" lon="-118.3953297">
  <ele>-25.011</ele>
  <time>2026-09-01T01:14:22Z</time>
  <course>144.88</course>
  <speed>1.0151354589413177</speed>
  <fix>3d</fix>
</trkpt>
<trkpt lat="33.810678" lon="-118.3953311">
  <ele>-24.4</ele>
  <time>2026-09-01T01:14:22Z</time>
  <course>54.83</course>
  <speed>1.0</speed>
  <fix>3d</fix>
</trkpt>
<trkpt lat="33.8106792" lon="-118.3953288">
  <ele>-25.01</ele>
  <time>2026-09-01T01:14:22Z</time>
  <course>145.0</course>
  <speed>1.009554357129917</speed>
  <fix>3d</fix>
</trkpt>
<trkpt lat="33.810678" lon="-118.3953311">
  <ele>-24.4</ele>
  <time>2026-09-01T01:14:22Z</time>
  <course>54.83</course>
  <speed>1.0</speed>
  <fix>3d</fix>
</trkpt>
<trkpt lat="33.8106797" lon="-118.3953279">
  <ele>-25.009</ele>
  <time>2026-09-01T01:14:22Z</time>
  <course>145.11</course>
  <speed>1.009554357129917</speed>
  <fix>3d</fix>
</trkpt>
<trkpt lat="33.8106791" lon="-118.3953294">
  <ele>-24.4</ele>
  <time>2026-09-01T01:14:22Z</time>
  <course>55.09</course>
  <speed>1.0</speed>
  <fix>3d</fix>
</trkpt>
<trkpt lat="33.8106802" lon="-118.395327">
  <ele>-25.007</ele>
  <time>2026-09-01T01:14:22Z</time>
  <course>145.23</course>
  <speed>1.0178899744078433</speed>
  <fix>3d</fix>
</trkpt>
<trkpt lat="33.8106791" lon="-118.3953294">
  <ele>-24.4</ele>
  <time>2026-09-01T01:14:22Z</time>
  <course>55.09</course>
  <speed>1.0</speed>
  <fix>3d</fix>
</trkpt>
<trkpt lat="33.8106807" lon="-118.3953261">
  <ele>-25.006</ele>
  <time>2026-09-01T01:14:22Z</time>
  <course>145.34</course>
  <speed>1.0178899744078433</speed>
  <fix>3d</fix>
</trkpt>
<trkpt lat="33.8106801" lon="-118.3953276">
  <ele>-24.4</ele>
  <time>2026-09-01T01:14:22Z</time>
  <course>55.37</course>
  <speed>1.0</speed>
  <fix>3d</fix>
</trkpt>
<trkpt lat="33.8106812" lon="-118.3953252">
  <ele>-25.006</ele>
  <time>2026-09-01T01:14:22Z</time>
  <course>145.46</course>
  <speed>1.0124228365658294</speed>
  <fix>3d</fix>
</trkpt>
<trkpt lat="33.8106801" lon="-118.3953276">
  <ele>-24.4</ele>
  <time>2026-09-01T01:14:22Z</time>
  <course>55.37</course>
  <speed>1.0</speed>
  <fix>3d</fix>
</trkpt>
<trkpt lat="33.8106817" lon="-118.3953243">
  <ele>-25.007</ele>
  <time>2026-09-01T01:14:22Z</time>
  <course>145.57</course>
  <speed>1.0124228365658294</speed>
  <fix>3d</fix>
</trkpt>
<trkpt lat="33.810681" lon="-118.3953258">
  <ele>-24.4</ele>
  <time>2026-09-01T01:14:22Z</time>
  <course>55.67</course>
  <speed>0.99</speed>
  <fix>3d</fix>
</trkpt>
<trkpt lat="33.8106822" lon="-118.3953234">
  <ele>-25.01</ele>
  <time>2026-09-01T01:14:22Z</time>
  <course>145.69</course>
  <speed>1.0124228365658294</speed>
  <fix>3d</fix>
</trkpt>
<trkpt lat="33.810681" lon="-118.3953258">
  <ele>-24.4</ele>
  <time>2026-09-01T01:14:22Z</time>
  <course>55.67</course>
  <speed>0.99</speed>
  <fix>3d</fix>
</trkpt>
<trkpt lat="33.8106827" lon="-118.3953225">
  <ele>-25.014</ele>
  <time>2026-09-01T01:14:22Z</time>
  <course>145.8</course>
  <speed>1.0124228365658294</speed>
  <fix>3d</fix>
</trkpt>
<trkpt lat="33.810682" lon="-118.3953241">
  <ele>-24.41</ele>
  <time>2026-09-01T01:14:22Z</time>
  <course>55.9</course>
  <speed>0.99</speed>
  <fix>3d</fix>
</trkpt>
<trkpt lat="33.8106832" lon="-118.3953217">
  <ele>-25.018</ele>
  <time>2026-09-01T01:14:22Z</time>
  <course>145.92</course>
  <speed>1.0124228365658294</speed>
  <fix>3d</fix>
</trkpt>
<trkpt lat="33.810682" lon="-118.3953241">
  <ele>-24.41</ele>
  <time>2026-09-01T01:14:22Z</time>
  <course>55.9</course>
  <speed>0.99</speed>
  <fix>3d</fix>
</trkpt>
<trkpt lat="33.8106837" lon="-118.3953208">
  <ele>-25.021</ele>
  <time>2026-09-01T01:14:22Z</time>
  <course>146.03</course>
  <speed>1.0124228365658294</speed>
  <fix>3d</fix>
</trkpt>
<trkpt lat="33.8106831" lon="-118.3953223">
  <ele>-24.41</ele>
  <time>2026-09-01T01:14:22Z</time>
  <course>56.06</course>
  <speed>1.0</speed>
  <fix>3d</fix>
</trkpt>
<trkpt lat="33.8106842" lon="-118.3953199">
  <ele>-25.023</ele>
  <time>2026-09-01T01:14:22Z</time>
  <course>146.15</course>
  <speed>1.0208329931972222</speed>
  <fix>3d</fix>
</trkpt>
<trkpt lat="33.8106831" lon="-118.3953223">
  <ele>-24.41</ele>
  <time>2026-09-01T01:14:22Z</time>
  <course>56.06</course>
  <speed>1.0</speed>
  <fix>3d</fix>
</trkpt>
<trkpt lat="33.8106847" lon="-118.395319">
  <ele>-25.024</ele>
  <time>2026-09-01T01:14:22Z</time>
  <course>146.26</course>
  <speed>1.0208329931972222</speed>
  <fix>3d</fix>
</trkpt>
<trkpt lat="33.8106841" lon="-118.3953205">
  <ele>-24.42</ele>
  <time>2026-09-01T01:14:22Z</time>
  <course>56.26</course>
  <speed>1.0</speed>
  <fix>3d</fix>
</trkpt>
<trkpt lat="33.8106852" lon="-118.3953181">
  <ele>-25.025</ele>
  <time>2026-09-01T01:14:22Z</time>
  <course>146.37</course>
  <speed>1.0154801819828883</speed>
  <fix>3d</fix>
</trkpt>
<trkpt lat="33.8106841" lon="-118.3953205">
  <ele>-24.42</ele>
  <time>2026-09-01T01:14:22Z</time>
  <course>56.26</course>
  <speed>1.0</speed>
  <fix>3d</fix>
</trkpt>
<trkpt lat="33.8106857" lon="-118.3953172">
  <ele>-25.026</ele>
  <time>2026-09-01T01:14:22Z</time>
  <course>146.49</course>
  <speed>1.0154801819828883</speed>
  <fix>3d</fix>
</trkpt>
<trkpt lat="33.8106851" lon="-118.3953187">
  <ele>-24.42</ele>
  <time>2026-09-01T01:14:22Z</time>
  <course>56.51</course>
  <speed>1.0</speed>
  <fix>3d</fix>
</trkpt>
<trkpt lat="33.8106862" lon="-118.3953162">
  <ele>-25.025</ele>
  <time>2026-09-01T01:14:22Z</time>
  <course>146.6</course>
  <speed>1.0154801819828883</speed>
  <fix>3d</fix>
</trkpt>
<trkpt lat="33.8106851" lon="-118.3953187">
  <ele>-24.42</ele>
  <time>2026-09-01T01:14:22Z</time>
  <course>56.51</course>
  <speed>1.0</speed>
  <fix>3d</fix>
</trkpt>
<trkpt lat="33.8106867" lon="-118.3953153">
  <ele>-25.022</ele>
  <time>2026-09-01T01:14:22Z</time>
  <course>146.72</course>
  <speed>1.0154801819828883</speed>
  <fix>3d</fix>
</trkpt>
<trkpt lat="33.8106861" lon="-118.3953168">
  <ele>-24.42</ele>
  <time>2026-09-01T01:14:22Z</time>
  <course>56.79</course>
  <speed>1.0</speed>
  <fix>3d</fix>
</trkpt>
<trkpt lat="33.8106872" lon="-118.3953144">
  <ele>-25.019</ele>
  <time>2026-09-01T01:14:22Z</time>
  <course>146.83</course>
  <speed>1.0154801819828883</speed>
  <fix>3d</fix>
</trkpt>
<trkpt lat="33.8106861" lon="-118.3953168">
  <ele>-24.42</ele>
  <time>2026-09-01T01:14:22Z</time>
  <course>56.79</course>
  <speed>1.0</speed>
  <fix>3d</fix>
</trkpt>
<trkpt lat="33.8106877" lon="-118.3953135">
  <ele>-25.016</ele>
  <time>2026-09-01T01:14:22Z</time>
  <course>146.95</course>
  <speed>1.010198000393982</speed>
  <fix>3d</fix>
</trkpt>
<trkpt lat="33.810687" lon="-118.395315">
  <ele>-24.41</ele>
  <time>2026-09-01T01:14:22Z</time>
  <course>57.04</course>
  <speed>1.0</speed>
  <fix>3d</fix>
</trkpt>
<trkpt lat="33.8106882" lon="-118.3953126">
  <ele>-25.012</ele>
  <time>2026-09-01T01:14:22Z</time>
  <course>147.06</course>
  <speed>1.010198000393982</speed>
  <fix>3d</fix>
</trkpt>
<trkpt lat="33.810687" lon="-118.395315">
  <ele>-24.41</ele>
  <time>2026-09-01T01:14:22Z</time>
  <course>57.04</course>
  <speed>1.0</speed>
  <fix>3d</fix>
</trkpt>
<trkpt lat="33.8106887" lon="-118.3953117">
  <ele>-25.01</ele>
  <time>2026-09-01T01:14:22Z</time>
  <course>147.17</course>
  <speed>1.010198000393982</speed>
  <fix>3d</fix>
</trkpt>
<trkpt lat="33.8106881" lon="-118.3953132">
  <ele>-24.41</ele>
  <time>2026-09-01T01:14:22Z</time>
  <course>57.24</course>
  <speed>1.0</speed>
  <fix>3d</fix>
</trkpt>
<trkpt lat="33.8106891" lon="-118.3953108">
  <ele>-25.01</ele>
  <time>2026-09-01T01:14:22Z</time>
  <course>147.29</course>
  <speed>1.0187246929372038</speed>
  <fix>3d</fix>
</trkpt>
<trkpt lat="33.8106881" lon="-118.3953132">
  <ele>-24.41</ele>
  <time>2026-09-01T01:14:22Z</time>
  <course>57.24</course>
  <speed>1.0</speed>
  <fix>3d</fix>
</trkpt>
<trkpt lat="33.8106896" lon="-118.3953099">
  <ele>-25.01</ele>
  <time>2026-09-01T01:14:22Z</time>
  <course>147.4</course>
  <speed>1.0187246929372038</speed>
  <fix>3d</fix>
</trkpt>
<trkpt lat="33.810689" lon="-118.3953114">
  <ele>-24.4</ele>
  <time>2026-09-01T01:14:22Z</time>
  <course>57.44</course>
  <speed>1.0</speed>
  <fix>3d</fix>
</trkpt>
<trkpt lat="33.8106901" lon="-118.3953089">
  <ele>-25.011</ele>
  <time>2026-09-01T01:14:22Z</time>
  <course>147.52</course>
  <speed>1.0187246929372038</speed>
  <fix>3d</fix>
</trkpt>
<trkpt lat="33.810689" lon="-118.3953114">
  <ele>-24.4</ele>
  <time>2026-09-01T01:14:22Z</time>
  <course>57.44</course>
  <speed>1.0</speed>
  <fix>3d</fix>
</trkpt>
<trkpt lat="33.8106906" lon="-118.395308">
  <ele>-25.012</ele>
  <time>2026-09-01T01:14:22Z</time>
  <course>147.63</course>
  <speed>1.0135580891098448</speed>
  <fix>3d</fix>
</trkpt>
<trkpt lat="33.8106899" lon="-118.3953096">
  <ele>-24.4</ele>
  <time>2026-09-01T01:14:22Z</time>
  <course>57.67</course>
  <speed>1.0</speed>
  <fix>3d</fix>
</trkpt>
<trkpt lat="33.8106911" lon="-118.3953071">
  <ele>-25.011</ele>
  <time>2026-09-01T01:14:22Z</time>
  <course>147.75</course>
  <speed>1.0135580891098448</speed>
  <fix>3d</fix>
</trkpt>
<trkpt lat="33.8106899" lon="-118.3953096">
  <ele>-24.4</ele>
  <time>2026-09-01T01:14:22Z</time>
  <course>57.67</course>
  <speed>1.0</speed>
  <fix>3d</fix>
</trkpt>
<trkpt lat="33.8106915" lon="-118.3953062">
  <ele>-25.011</ele>
  <time>2026-09-01T01:14:22Z</time>
  <course>147.87</course>
  <speed>1.0135580891098448</speed>
  <fix>3d</fix>
</trkpt>
<trkpt lat="33.8106909" lon="-118.3953077">
  <ele>-24.4</ele>
  <time>2026-09-01T01:14:22Z</time>
  <course>57.89</course>
  <speed>1.0</speed>
  <fix>3d</fix>
</trkpt>
<trkpt lat="33.810692" lon="-118.3953053">
  <ele>-25.011</ele>
  <time>2026-09-01T01:14:22Z</time>
  <course>147.98</course>
  <speed>1.0135580891098448</speed>
  <fix>3d</fix>
</trkpt>
<trkpt lat="33.8106909" lon="-118.3953077">
  <ele>-24.4</ele>
  <time>2026-09-01T01:14:22Z</time>
  <course>57.89</course>
  <speed>1.0</speed>
  <fix>3d</fix>
</trkpt>
<trkpt lat="33.8106925" lon="-118.3953044">
  <ele>-25.01</ele>
  <time>2026-09-01T01:14:22Z</time>
  <course>148.09</course>
  <speed>1.0135580891098448</speed>
  <fix>3d</fix>
</trkpt>
<trkpt lat="33.8106918" lon="-118.3953059">
  <ele>-24.4</ele>
  <time>2026-09-01T01:14:22Z</time>
  <course>58.08</course>
  <speed>1.0</speed>
  <fix>3d</fix>
</trkpt>
<trkpt lat="33.8106929" lon="-118.3953034">
  <ele>-25.009</ele>
  <time>2026-09-01T01:14:22Z</time>
  <course>148.21</course>
  <speed>1.0135580891098448</speed>
  <fix>3d</fix>
</trkpt>
<trkpt lat="33.8106918" lon="-118.3953059">
  <ele>-24.4</ele>
  <time>2026-09-01T01:14:22Z</time>
  <course>58.08</course>
  <speed>1.0</speed>
  <fix>3d</fix>
</trkpt>
<trkpt lat="33.8106934" lon="-118.3953025">
  <ele>-25.008</ele>
  <time>2026-09-01T01:14:22Z</time>
  <course>148.32</course>
  <speed>1.0135580891098448</speed>
  <fix>3d</fix>
</trkpt>
<trkpt lat="33.8106928" lon="-118.395304">
  <ele>-24.4</ele>
  <time>2026-09-01T01:14:22Z</time>
  <course>58.25</course>
  <speed>1.0</speed>
  <fix>3d</fix>
</trkpt>
<trkpt lat="33.8106939" lon="-118.3953016">
  <ele>-25.008</ele>
  <time>2026-09-01T01:14:22Z</time>
  <course>148.44</course>
  <speed>1.0084641788382966</speed>
  <fix>3d</fix>
</trkpt>
<trkpt lat="33.8106928" lon="-118.395304">
  <ele>-24.4</ele>
  <time>2026-09-01T01:14:22Z</time>
  <course>58.25</course>
  <speed>1.0</speed>
  <fix>3d</fix>
</trkpt>
<trkpt lat="33.8106943" lon="-118.3953007">
  <ele>-25.008</ele>
  <time>2026-09-01T01:14:22Z</time>
  <course>148.55</course>
  <speed>1.0171037311896953</speed>
  <fix>3d</fix>
</trkpt>
<trkpt lat="33.8106937" lon="-118.3953022">
  <ele>-24.4</ele>
  <time>2026-09-01T01:14:22Z</time>
  <course>58.41</course>
  <speed>1.0</speed>
  <fix>3d</fix>
</trkpt>
<trkpt lat="33.8106948" lon="-118.3952997">
  <ele>-25.009</ele>
  <time>2026-09-01T01:14:22Z</time>
  <course>148.67</course>
  <speed>1.0171037311896953</speed>
  <fix>3d</fix>
</trkpt>
<trkpt lat="33.8106937" lon="-118.3953022">
  <ele>-24.4</ele>
  <time>2026-09-01T01:14:22Z</time>
  <course>58.41</course>
  <speed>1.0</speed>
  <fix>3d</fix>
</trkpt>
<trkpt lat="33.8106953" lon="-118.3952988">
  <ele>-25.01</ele>
  <time>2026-09-01T01:14:22Z</time>
  <course>148.78</course>
  <speed>1.0171037311896953</speed>
  <fix>3d</fix>
</trkpt>
<trkpt lat="33.8106947" lon="-118.3953003">
  <ele>-24.41</ele>
  <time>2026-09-01T01:14:22Z</time>
  <course>58.59</course>
  <speed>1.0</speed>
  <fix>3d</fix>
</trkpt>
<trkpt lat="33.8106957" lon="-118.3952979">
  <ele>-25.012</ele>
  <time>2026-09-01T01:14:22Z</time>
  <course>148.89</course>
  <speed>1.0171037311896953</speed>
  <fix>3d</fix>
</trkpt>
<trkpt lat="33.8106947" lon="-118.3953003">
  <ele>-24.41</ele>
  <time>2026-09-01T01:14:22Z</time>
  <course>58.59</course>
  <speed>1.0</speed>
  <fix>3d</fix>
</trkpt>
<trkpt lat="33.8106962" lon="-118.3952969">
  <ele>-25.014</ele>
  <time>2026-09-01T01:14:22Z</time>
  <course>149.01</course>
  <speed>1.0171037311896953</speed>
  <fix>3d</fix>
</trkpt>
<trkpt lat="33.8106956" lon="-118.3952985">
  <ele>-24.41</ele>
  <time>2026-09-01T01:14:22Z</time>
  <course>58.78</course>
  <speed>1.0</speed>
  <fix>3d</fix>
</trkpt>
<trkpt lat="33.8106967" lon="-118.395296">
  <ele>-25.016</ele>
  <time>2026-09-01T01:14:22Z</time>
  <course>149.12</course>
  <speed>1.0121264743103995</speed>
  <fix>3d</fix>
</trkpt>
<trkpt lat="33.8106956" lon="-118.3952985">
  <ele>-24.41</ele>
  <time>2026-09-01T01:14:22Z</time>
  <course>58.78</course>
  <speed>1.0</speed>
  <fix>3d</fix>
</trkpt>
<trkpt lat="33.8106971" lon="-118.3952951">
  <ele>-25.017</ele>
  <time>2026-09-01T01:14:22Z</time>
  <course>149.24</course>
  <speed>1.0121264743103995</speed>
  <fix>3d</fix>
</trkpt>
<trkpt lat="33.8106966" lon="-118.3952966">
  <ele>-24.41</ele>
  <time>2026-09-01T01:14:22Z</time>
  <course>59.01</course>
  <speed>1.0</speed>
  <fix>3d</fix>
</trkpt>
<trkpt lat="33.8106976" lon="-118.3952942">
  <ele>-25.017</ele>
  <time>2026-09-01T01:14:22Z</time>
  <course>149.36</course>
  <speed>1.0121264743103995</speed>
  <fix>3d</fix>
</trkpt>
<trkpt lat="33.8106966" lon="-118.3952966">
  <ele>-24.41</ele>
  <time>2026-09-01T01:14:22Z</time>
  <course>59.01</course>
  <speed>1.0</speed>
  <fix>3d</fix>
</trkpt>
<trkpt lat="33.810698" lon="-118.3952932">
  <ele>-25.017</ele>
  <time>2026-09-01T01:14:22Z</time>
  <course>149.47</course>
  <speed>1.0208329931972222</speed>
  <fix>3d</fix>
</trkpt>
<trkpt lat="33.8106975" lon="-118.3952947">
  <ele>-24.42</ele>
  <time>2026-09-01T01:14:22Z</time>
  <course>59.28</course>
  <speed>1.0</speed>
  <fix>3d</fix>
</trkpt>
<trkpt lat="33.8106985" lon="-118.3952923">
  <ele>-25.017</ele>
  <time>2026-09-01T01:14:22Z</time>
  <course>149.58</course>
  <speed>1.0159724405711013</speed>
  <fix>3d</fix>
</trkpt>
<trkpt lat="33.8106975" lon="-118.3952947">
  <ele>-24.42</ele>
  <time>2026-09-01T01:14:22Z</time>
  <course>59.28</course>
  <speed>1.0</speed>
  <fix>3d</fix>
</trkpt>
<trkpt lat="33.8106989" lon="-118.3952914">
  <ele>-25.017</ele>
  <time>2026-09-01T01:14:22Z</time>
  <course>149.7</course>
  <speed>1.0159724405711013</speed>
  <fix>3d</fix>
</trkpt>
<trkpt lat="33.8106984" lon="-118.3952929">
  <ele>-24.41</ele>
  <time>2026-09-01T01:14:22Z</time>
  <course>59.56</course>
  <speed>1.0</speed>
  <fix>3d</fix>
</trkpt>
<trkpt lat="33.8106994" lon="-118.3952904">
  <ele>-25.016</ele>
  <time>2026-09-01T01:14:22Z</time>
  <course>149.81</course>
  <speed>1.0159724405711013</speed>
  <fix>3d</fix>
</trkpt>
<trkpt lat="33.8106984" lon="-118.3952929">
  <ele>-24.41</ele>
  <time>2026-09-01T01:14:22Z</time>
  <course>59.56</course>
  <speed>1.0</speed>
  <fix>3d</fix>
</trkpt>
<trkpt lat="33.8106998" lon="-118.3952895">
  <ele>-25.014</ele>
  <time>2026-09-01T01:14:22Z</time>
  <course>149.93</course>
  <speed>1.0159724405711013</speed>
  <fix>3d</fix>
</trkpt>
<trkpt lat="33.8106993" lon="-118.395291">
  <ele>-24.41</ele>
  <time>2026-09-01T01:14:22Z</time>
  <course>59.82</course>
  <speed>1.0</speed>
  <fix>3d</fix>
</trkpt>
<trkpt lat="33.8107003" lon="-118.3952886">
  <ele>-25.013</ele>
  <time>2026-09-01T01:14:22Z</time>
  <course>150.04</course>
  <speed>1.0159724405711013</speed>
  <fix>3d</fix>
</trkpt>
<trkpt lat="33.8106993" lon="-118.395291">
  <ele>-24.41</ele>
  <time>2026-09-01T01:14:22Z</time>
  <course>59.82</course>
  <speed>1.0</speed>
  <fix>3d</fix>
</trkpt>
<trkpt lat="33.8107007" lon="-118.3952876">
  <ele>-25.013</ele>
  <time>2026-09-01T01:14:22Z</time>
  <course>150.16</course>
  <speed>1.0159724405711013</speed>
  <fix>3d</fix>
</trkpt>
<trkpt lat="33.8107002" lon="-118.3952891">
  <ele>-24.41</ele>
  <time>2026-09-01T01:14:22Z</time>
  <course>60.06</course>
  <speed>1.0</speed>
  <fix>3d</fix>
</trkpt>
<trkpt lat="33.8107012" lon="-118.3952867">
  <ele>-25.015</ele>
  <time>2026-09-01T01:14:22Z</time>
  <course>150.27</course>
  <speed>1.0111874208078342</speed>
  <fix>3d</fix>
</trkpt>
<trkpt lat="33.8107002" lon="-118.3952891">
  <ele>-24.41</ele>
  <time>2026-09-01T01:14:22Z</time>
  <course>60.06</course>
  <speed>1.0</speed>
  <fix>3d</fix>
</trkpt>
<trkpt lat="33.8107016" lon="-118.3952857">
  <ele>-25.016</ele>
  <time>2026-09-01T01:14:22Z</time>
  <course>150.39</course>
  <speed>1.0111874208078342</speed>
  <fix>3d</fix>
</trkpt>
<trkpt lat="33.8107011" lon="-118.3952873">
  <ele>-24.41</ele>
  <time>2026-09-01T01:14:22Z</time>
  <course>60.29</course>
  <speed>1.0</speed>
  <fix>3d</fix>
</trkpt>
<trkpt lat="33.8107021" lon="-118.3952848">
  <ele>-25.016</ele>
  <time>2026-09-01T01:14:22Z</time>
  <course>150.5</course>
  <speed>1.02</speed>
  <fix>3d</fix>
</trkpt>
<trkpt lat="33.8107011" lon="-118.3952873">
  <ele>-24.41</ele>
  <time>2026-09-01T01:14:22Z</time>
  <course>60.29</course>
  <speed>1.0</speed>
  <fix>3d</fix>
</trkpt>
<trkpt lat="33.8107025" lon="-118.3952839">
  <ele>-25.015</ele>
  <time>2026-09-01T01:14:22Z</time>
  <course>150.62</course>
  <speed>1.02</speed>
  <fix>3d</fix>
</trkpt>
<trkpt lat="33.810702" lon="-118.3952854">
  <ele>-24.41</ele>
  <time>2026-09-01T01:14:22Z</time>
  <course>60.52</course>
  <speed>1.0</speed>
  <fix>3d</fix>
</trkpt>
<trkpt lat="33.8107029" lon="-118.3952829">
  <ele>-25.014</ele>
  <time>2026-09-01T01:14:22Z</time>
  <course>150.73</course>
  <speed>1.02</speed>
  <fix>3d</fix>
</trkpt>
<trkpt lat="33.810702" lon="-118.3952854">
  <ele>-24.41</ele>
  <time>2026-09-01T01:14:22Z</time>
  <course>60.52</course>
  <speed>1.0</speed>
  <fix>3d</fix>
</trkpt>
<trkpt lat="33.8107034" lon="-118.395282">
  <ele>-25.012</ele>
  <time>2026-09-01T01:14:22Z</time>
  <course>150.84</course>
  <speed>1.015332457867865</speed>
  <fix>3d</fix>
</trkpt>
<trkpt lat="33.8107029" lon="-118.3952835">
  <ele>-24.41</ele>
  <time>2026-09-01T01:14:22Z</time>
  <course>60.79</course>
  <speed>1.0</speed>
  <fix>3d</fix>
</trkpt>
<trkpt lat="33.8107038" lon="-118.395281">
  <ele>-25.012</ele>
  <time>2026-09-01T01:14:22Z</time>
  <course>150.96</course>
  <speed>1.015332457867865</speed>
  <fix>3d</fix>
</trkpt>
<trkpt lat="33.8107029" lon="-118.3952835">
  <ele>-24.41</ele>
  <time>2026-09-01T01:14:22Z</time>
  <course>60.79</course>
  <speed>1.0</speed>
  <fix>3d</fix>
</trkpt>
<trkpt lat="33.8107042" lon="-118.3952801">
  <ele>-25.012</ele>
  <time>2026-09-01T01:14:22Z</time>
  <course>151.07</course>
  <speed>1.015332457867865</speed>
  <fix>3d</fix>
</trkpt>
<trkpt lat="33.8107038" lon="-118.3952816">
  <ele>-24.41</ele>
  <time>2026-09-01T01:14:22Z</time>
  <course>61.07</course>
  <speed>1.0</speed>
  <fix>3d</fix>
</trkpt>
<trkpt lat="33.8107047" lon="-118.3952791">
  <ele>-25.012</ele>
  <time>2026-09-01T01:14:22Z</time>
  <course>151.19</course>
  <speed>1.015332457867865</speed>
  <fix>3d</fix>
</trkpt>
<trkpt lat="33.8107038" lon="-118.3952816">
  <ele>-24.41</ele>
  <time>2026-09-01T01:14:22Z</time>
  <course>61.07</course>
  <speed>1.0</speed>
  <fix>3d</fix>
</trkpt>
<trkpt lat="33.8107051" lon="-118.3952782">
  <ele>-25.013</ele>
  <time>2026-09-01T01:14:22Z</time>
  <course>151.3</course>
  <speed>1.0107423014794623</speed>
  <fix>3d</fix>
</trkpt>
<trkpt lat="33.8107047" lon="-118.3952797">
  <ele>-24.41</ele>
  <time>2026-09-01T01:14:22Z</time>
  <course>61.36</course>
  <speed>1.0</speed>
  <fix>3d</fix>
</trkpt>
<trkpt lat="33.8107055" lon="-118.3952772">
  <ele>-25.014</ele>
  <time>2026-09-01T01:14:22Z</time>
  <course>151.42</course>
  <speed>1.0196568050084303</speed>
  <fix>3d</fix>
</trkpt>
<trkpt lat="33.8107047" lon="-118.3952797">
  <ele>-24.41</ele>
  <time>2026-09-01T01:14:22Z</time>
  <course>61.36</course>
  <speed>1.0</speed>
  <fix>3d</fix>
</trkpt>
<trkpt lat="33.810706" lon="-118.3952763">
  <ele>-25.015</ele>
  <time>2026-09-01T01:14:22Z</time>
  <course>151.53</course>
  <speed>1.0196568050084303</speed>
  <fix>3d</fix>
</trkpt>
<trkpt lat="33.8107055" lon="-118.3952778">
  <ele>-24.41</ele>
  <time>2026-09-01T01:14:22Z</time>
  <course>61.67</course>
  <speed>1.0</speed>
  <fix>3d</fix>
</trkpt>
<trkpt lat="33.8107064" lon="-118.3952753">
  <ele>-25.016</ele>
  <time>2026-09-01T01:14:22Z</time>
  <course>151.65</course>
  <speed>1.0196568050084303</speed>
  <fix>3d</fix>
</trkpt>
<trkpt lat="33.8107055" lon="-118.3952778">
  <ele>-24.41</ele>
  <time>2026-09-01T01:14:22Z</time>
  <course>61.67</course>
  <speed>1.0</speed>
  <fix>3d</fix>
</trkpt>
<trkpt lat="33.8107068" lon="-118.3952744">
  <ele>-25.016</ele>
  <time>2026-09-01T01:14:22Z</time>
  <course>151.76</course>
  <speed>1.0196568050084303</speed>
  <fix>3d</fix>
</trkpt>
<trkpt lat="33.8107064" lon="-118.3952758">
  <ele>-24.41</ele>
  <time>2026-09-01T01:14:22Z</time>
  <course>61.96</course>
  <speed>1.0</speed>
  <fix>3d</fix>
</trkpt>
<trkpt lat="33.8107072" lon="-118.3952734">
  <ele>-25.016</ele>
  <time>2026-09-01T01:14:22Z</time>
  <course>151.88</course>
  <speed>1.0151847122568385</speed>
  <fix>3d</fix>
</trkpt>
<trkpt lat="33.8107064" lon="-118.3952758">
  <ele>-24.41</ele>
  <time>2026-09-01T01:14:22Z</time>
  <course>61.96</course>
  <speed>1.0</speed>
  <fix>3d</fix>
</trkpt>
<trkpt lat="33.8107077" lon="-118.3952724">
  <ele>-25.015</ele>
  <time>2026-09-01T01:14:22Z</time>
  <course>151.99</course>
  <speed>1.0151847122568385</speed>
  <fix>3d</fix>
</trkpt>
<trkpt lat="33.8107072" lon="-118.3952739">
  <ele>-24.41</ele>
  <time>2026-09-01T01:14:22Z</time>
  <course>62.21</course>
  <speed>1.0</speed>
  <fix>3d</fix>
</trkpt>
<trkpt lat="33.8107081" lon="-118.3952715">
  <ele>-25.014</ele>
  <time>2026-09-01T01:14:22Z</time>
  <course>152.1</course>
  <speed>1.0151847122568385</speed>
  <fix>3d</fix>
</trkpt>
<trkpt lat="33.8107072" lon="-118.3952739">
  <ele>-24.41</ele>
  <time>2026-09-01T01:14:22Z</time>
  <course>62.21</course>
  <speed>1.0</speed>
  <fix>3d</fix>
</trkpt>
<trkpt lat="33.8107085" lon="-118.3952705">
  <ele>-25.012</ele>
  <time>2026-09-01T01:14:22Z</time>
  <course>152.22</course>
  <speed>1.0151847122568385</speed>
  <fix>3d</fix>
</trkpt>
<trkpt lat="33.8107081" lon="-118.395272">
  <ele>-24.41</ele>
  <time>2026-09-01T01:14:22Z</time>
  <course>62.43</course>
  <speed>1.0</speed>
  <fix>3d</fix>
</trkpt>
<trkpt lat="33.8107089" lon="-118.3952695">
  <ele>-25.011</ele>
  <time>2026-09-01T01:14:22Z</time>
  <course>152.33</course>
  <speed>1.0151847122568385</speed>
  <fix>3d</fix>
</trkpt>
<trkpt lat="33.8107081" lon="-118.395272">
  <ele>-24.41</ele>
  <time>2026-09-01T01:14:22Z</time>
  <course>62.43</course>
  <speed>1.0</speed>
  <fix>3d</fix>
</trkpt>
<trkpt lat="33.8107093" lon="-118.3952686">
  <ele>-25.01</ele>
  <time>2026-09-01T01:14:22Z</time>
  <course>152.45</course>
  <speed>1.0151847122568385</speed>
  <fix>3d</fix>
</trkpt>
<trkpt lat="33.8107088" lon="-118.3952701">
  <ele>-24.41</ele>
  <time>2026-09-01T01:14:22Z</time>
  <course>62.64</course>
  <speed>1.0</speed>
  <fix>3d</fix>
</trkpt>
<trkpt lat="33.8107097" lon="-118.3952676">
  <ele>-25.011</ele>
  <time>2026-09-01T01:14:22Z</time>
  <course>152.56</course>
  <speed>1.0107917688624102</speed>
  <fix>3d</fix>
</trkpt>
<trkpt lat="33.8107088" lon="-118.3952701">
  <ele>-24.41</ele>
  <time>2026-09-01T01:14:22Z</time>
  <course>62.64</course>
  <speed>1.0</speed>
  <fix>3d</fix>
</trkpt>
<trkpt lat="33.8107101" lon="-118.3952667">
  <ele>-25.012</ele>
  <time>2026-09-01T01:14:22Z</time>
  <course>152.68</course>
  <speed>1.0107917688624102</speed>
  <fix>3d</fix>
</trkpt>
<trkpt lat="33.8107097" lon="-118.3952682">
  <ele>-24.41</ele>
  <time>2026-09-01T01:14:22Z</time>
  <course>62.82</course>
  <speed>1.0</speed>
  <fix>3d</fix>
</trkpt>
<trkpt lat="33.8107105" lon="-118.3952657">
  <ele>-25.013</ele>
  <time>2026-09-01T01:14:22Z</time>
  <course>152.79</course>
  <speed>1.0107917688624102</speed>
  <fix>3d</fix>
</trkpt>
<trkpt lat="33.8107097" lon="-118.3952682">
  <ele>-24.41</ele>
  <time>2026-09-01T01:14:22Z</time>
  <course>62.82</course>
  <speed>1.0</speed>
  <fix>3d</fix>
</trkpt>
<trkpt lat="33.810711" lon="-118.3952647">
  <ele>-25.014</ele>
  <time>2026-09-01T01:14:22Z</time>
  <course>152.91</course>
  <speed>1.0107917688624102</speed>
  <fix>3d</fix>
</trkpt>
<trkpt lat="33.8107105" lon="-118.3952662">
  <ele>-24.41</ele>
  <time>2026-09-01T01:14:22Z</time>
  <course>62.97</course>
  <speed>1.0</speed>
  <fix>3d</fix>
</trkpt>
<trkpt lat="33.8107114" lon="-118.3952638">
  <ele>-25.014</ele>
  <time>2026-09-01T01:14:22Z</time>
  <course>153.02</course>
  <speed>1.0107917688624102</speed>
  <fix>3d</fix>
</trkpt>
<trkpt lat="33.8107105" lon="-118.3952662">
  <ele>-24.41</ele>
  <time>2026-09-01T01:14:22Z</time>
  <course>62.97</course>
  <speed>1.0</speed>
  <fix>3d</fix>
</trkpt>
<trkpt lat="33.8107118" lon="-118.3952628">
  <ele>-25.013</ele>
  <time>2026-09-01T01:14:22Z</time>
  <course>153.13</course>
  <speed>1.0107917688624102</speed>
  <fix>3d</fix>
</trkpt>
<trkpt lat="33.8107114" lon="-118.3952643">
  <ele>-24.41</ele>
  <time>2026-09-01T01:14:22Z</time>
  <course>63.16</course>
  <speed>1.0</speed>
  <fix>3d</fix>
</trkpt>
<trkpt lat="33.8107122" lon="-118.3952618">
  <ele>-25.013</ele>
  <time>2026-09-01T01:14:22Z</time>
  <course>153.24</course>
  <speed>1.0155294185792945</speed>
  <fix>3d</fix>
</trkpt>
<trkpt lat="33.8107114" lon="-118.3952643">
  <ele>-24.41</ele>
  <time>2026-09-01T01:14:22Z</time>
  <course>63.16</course>
  <speed>1.0</speed>
  <fix>3d</fix>
</trkpt>
<trkpt lat="33.8107126" lon="-118.3952609">
  <ele>-25.014</ele>
  <time>2026-09-01T01:14:22Z</time>
  <course>153.36</course>
  <speed>1.0155294185792945</speed>
  <fix>3d</fix>
</trkpt>
<trkpt lat="33.8107122" lon="-118.3952624">
  <ele>-24.41</ele>
  <time>2026-09-01T01:14:22Z</time>
  <course>63.41</course>
  <speed>1.0</speed>
  <fix>3d</fix>
</trkpt>
<trkpt lat="33.810713" lon="-118.3952599">
  <ele>-25.015</ele>
  <time>2026-09-01T01:14:22Z</time>
  <course>153.47</course>
  <speed>1.0155294185792945</speed>
  <fix>3d</fix>
</trkpt>
<trkpt lat="33.8107122" lon="-118.3952624">
  <ele>-24.41</ele>
  <time>2026-09-01T01:14:22Z</time>
  <course>63.41</course>
  <speed>1.0</speed>
  <fix>3d</fix>
</trkpt>
<trkpt lat="33.8107134" lon="-118.3952589">
  <ele>-25.015</ele>
  <time>2026-09-01T01:14:22Z</time>
  <course>153.58</course>
  <speed>1.0155294185792945</speed>
  <fix>3d</fix>
</trkpt>
<trkpt lat="33.8107129" lon="-118.3952604">
  <ele>-24.41</ele>
  <time>2026-09-01T01:14:22Z</time>
  <course>63.71</course>
  <speed>1.0</speed>
  <fix>3d</fix>
</trkpt>
<trkpt lat="33.8107138" lon="-118.3952579">
  <ele>-25.015</ele>
  <time>2026-09-01T01:14:22Z</time>
  <course>153.7</course>
  <speed>1.0155294185792945</speed>
  <fix>3d</fix>
</trkpt>
<trkpt lat="33.8107129" lon="-118.3952604">
  <ele>-24.41</ele>
  <time>2026-09-01T01:14:22Z</time>
  <course>63.71</course>
  <speed>1.0</speed>
  <fix>3d</fix>
</trkpt>
<trkpt lat="33.8107142" lon="-118.395257">
  <ele>-25.014</ele>
  <time>2026-09-01T01:14:22Z</time>
  <course>153.82</course>
  <speed>1.0113357503816425</speed>
  <fix>3d</fix>
</trkpt>
<trkpt lat="33.8107138" lon="-118.3952585">
  <ele>-24.41</ele>
  <time>2026-09-01T01:14:22Z</time>
  <course>63.96</course>
  <speed>1.0</speed>
  <fix>3d</fix>
</trkpt>
<trkpt lat="33.8107146" lon="-118.395256">
  <ele>-25.014</ele>
  <time>2026-09-01T01:14:22Z</time>
  <course>153.94</course>
  <speed>1.0113357503816425</speed>
  <fix>3d</fix>
</trkpt>
<trkpt lat="33.8107138" lon="-118.3952585">
  <ele>-24.41</ele>
  <time>2026-09-01T01:14:22Z</time>
  <course>63.96</course>
  <speed>1.0</speed>
  <fix>3d</fix>
</trkpt>
<trkpt lat="33.810715" lon="-118.395255">
  <ele>-25.013</ele>
  <time>2026-09-01T01:14:22Z</time>
  <course>154.05</course>
  <speed>1.0113357503816425</speed>
  <fix>3d</fix>
</trkpt>
<trkpt lat="33.8107146" lon="-118.3952565">
  <ele>-24.41</ele>
  <time>2026-09-01T01:14:22Z</time>
  <course>64.17</course>
  <speed>1.0</speed>
  <fix>3d</fix>
</trkpt>
<trkpt lat="33.8107153" lon="-118.395254">
  <ele>-25.014</ele>
  <time>2026-09-01T01:14:22Z</time>
  <course>154.17</course>
  <speed>1.0113357503816425</speed>
  <fix>3d</fix>
</trkpt>
<trkpt lat="33.8107146" lon="-118.3952565">
  <ele>-24.41</ele>
  <time>2026-09-01T01:14:22Z</time>
  <course>64.17</course>
  <speed>1.0</speed>
  <fix>3d</fix>
</trkpt>
<trkpt lat="33.8107157" lon="-118.3952531">
  <ele>-25.015</ele>
  <time>2026-09-01T01:14:22Z</time>
  <course>154.28</course>
  <speed>1.0113357503816425</speed>
  <fix>3d</fix>
</trkpt>
<trkpt lat="33.8107153" lon="-118.3952545">
  <ele>-24.41</ele>
  <time>2026-09-01T01:14:22Z</time>
  <course>64.42</course>
  <speed>1.0</speed>
  <fix>3d</fix>
</trkpt>
<trkpt lat="33.8107161" lon="-118.3952521">
  <ele>-25.015</ele>
  <time>2026-09-01T01:14:22Z</time>
  <course>154.4</course>
  <speed>1.0072239075796403</speed>
  <fix>3d</fix>
</trkpt>
<trkpt lat="33.8107153" lon="-118.3952545">
  <ele>-24.41</ele>
  <time>2026-09-01T01:14:22Z</time>
  <course>64.42</course>
  <speed>1.0</speed>
  <fix>3d</fix>
</trkpt>
<trkpt lat="33.8107165" lon="-118.3952511">
  <ele>-25.014</ele>
  <time>2026-09-01T01:14:22Z</time>
  <course>154.51</course>
  <speed>1.0072239075796403</speed>
  <fix>3d</fix>
</trkpt>
<trkpt lat="33.810716" lon="-118.3952526">
  <ele>-24.41</ele>
  <time>2026-09-01T01:14:22Z</time>
  <course>64.66</course>
  <speed>0.99</speed>
  <fix>3d</fix>
</trkpt>
<trkpt lat="33.8107169" lon="-118.3952501">
  <ele>-25.015</ele>
  <time>2026-09-01T01:14:22Z</time>
  <course>154.62</course>
  <speed>1.0072239075796403</speed>
  <fix>3d</fix>
</trkpt>
<trkpt lat="33.810716" lon="-118.3952526">
  <ele>-24.41</ele>
  <time>2026-09-01T01:14:22Z</time>
  <course>64.66</course>
  <speed>0.99</speed>
  <fix>3d</fix>
</trkpt>
<trkpt lat="33.8107173" lon="-118.3952491">
  <ele>-25.015</ele>
  <time>2026-09-01T01:14:22Z</time>
  <course>154.74</course>
  <speed>1.0072239075796403</speed>
  <fix>3d</fix>
</trkpt>
<trkpt lat="33.8107169" lon="-118.3952507">
  <ele>-24.41</ele>
  <time>2026-09-01T01:14:22Z</time>
  <course>64.8</course>
  <speed>0.99</speed>
  <fix>3d</fix>
</trkpt>
<trkpt lat="33.8107176" lon="-118.3952482">
  <ele>-25.014</ele>
  <time>2026-09-01T01:14:22Z</time>
  <course>154.85</course>
  <speed>1.016366075781753</speed>
  <fix>3d</fix>
</trkpt>
<trkpt lat="33.8107169" lon="-118.3952507">
  <ele>-24.41</ele>
  <time>2026-09-01T01:14:22Z</time>
  <course>64.8</course>
  <speed>0.99</speed>
  <fix>3d</fix>
</trkpt>
<trkpt lat="33.810718" lon="-118.3952472">
  <ele>-25.013</ele>
  <time>2026-09-01T01:14:22Z</time>
  <course>154.97</course>
  <speed>1.016366075781753</speed>
  <fix>3d</fix>
</trkpt>
<trkpt lat="33.8107176" lon="-118.3952487">
  <ele>-24.41</ele>
  <time>2026-09-01T01:14:22Z</time>
  <course>64.95</course>
  <speed>0.99</speed>
  <fix>3d</fix>
</trkpt>
<trkpt lat="33.8107184" lon="-118.3952462">
  <ele>-25.012</ele>
  <time>2026-09-01T01:14:22Z</time>
  <course>155.08</course>
  <speed>1.0123734488813898</speed>
  <fix>3d</fix>
</trkpt>
<trkpt lat="33.8107176" lon="-118.3952487">
  <ele>-24.41</ele>
  <time>2026-09-01T01:14:22Z</time>
  <course>64.95</course>
  <speed>0.99</speed>
  <fix>3d</fix>
</trkpt>
<trkpt lat="33.8107188" lon="-118.3952452">
  <ele>-25.012</ele>
  <time>2026-09-01T01:14:22Z</time>
  <course>155.2</course>
  <speed>1.0123734488813898</speed>
  <fix>3d</fix>
</trkpt>
<trkpt lat="33.8107184" lon="-118.3952468">
  <ele>-24.41</ele>
  <time>2026-09-01T01:14:22Z</time>
  <course>65.17</course>
  <speed>0.99</speed>
  <fix>3d</fix>
</trkpt>
<trkpt lat="33.8107191" lon="-118.3952442">
  <ele>-25.012</ele>
  <time>2026-09-01T01:14:22Z</time>
  <course>155.31</course>
  <speed>1.0123734488813898</speed>
  <fix>3d</fix>
</trkpt>
<trkpt lat="33.8107184" lon="-118.3952468">
  <ele>-24.41</ele>
  <time>2026-09-01T01:14:22Z</time>
  <course>65.17</course>
  <speed>0.99</speed>
  <fix>3d</fix>
</trkpt>
<trkpt lat="33.8107195" lon="-118.3952433">
  <ele>-25.013</ele>
  <time>2026-09-01T01:14:22Z</time>
  <course>155.43</course>
  <speed>1.0123734488813898</speed>
  <fix>3d</fix>
</trkpt>
<trkpt lat="33.8107191" lon="-118.3952448">
  <ele>-24.41</ele>
  <time>2026-09-01T01:14:22Z</time>
  <course>65.41</course>
  <speed>0.99</speed>
  <fix>3d</fix>
</trkpt>
<trkpt lat="33.8107199" lon="-118.3952423">
  <ele>-25.014</ele>
  <time>2026-09-01T01:14:22Z</time>
  <course>155.54</course>
  <speed>1.0123734488813898</speed>
  <fix>3d</fix>
</trkpt>
<trkpt lat="33.8107191" lon="-118.3952448">
  <ele>-24.41</ele>
  <time>2026-09-01T01:14:22Z</time>
  <course>65.41</course>
  <speed>0.99</speed>
  <fix>3d</fix>
</trkpt>
<trkpt lat="33.8107202" lon="-118.3952413">
  <ele>-25.015</ele>
  <time>2026-09-01T01:14:22Z</time>
  <course>155.66</course>
  <speed>1.0123734488813898</speed>
  <fix>3d</fix>
</trkpt>
<trkpt lat="33.8107198" lon="-118.3952428">
  <ele>-24.41</ele>
  <time>2026-09-01T01:14:22Z</time>
  <course>65.66</course>
  <speed>0.99</speed>
  <fix>3d</fix>
</trkpt>
<trkpt lat="33.8107206" lon="-118.3952403">
  <ele>-25.016</ele>
  <time>2026-09-01T01:14:22Z</time>
  <course>155.77</course>
  <speed>1.0084641788382966</speed>
  <fix>3d</fix>
</trkpt>
<trkpt lat="33.8107198" lon="-118.3952428">
  <ele>-24.41</ele>
  <time>2026-09-01T01:14:22Z</time>
  <course>65.66</course>
  <speed>0.99</speed>
  <fix>3d</fix>
</trkpt>
<trkpt lat="33.810721" lon="-118.3952393">
  <ele>-25.017</ele>
  <time>2026-09-01T01:14:22Z</time>
  <course>155.89</course>
  <speed>1.0084641788382966</speed>
  <fix>3d</fix>
</trkpt>
<trkpt lat="33.8107206" lon="-118.3952409">
  <ele>-24.41</ele>
  <time>2026-09-01T01:14:22Z</time>
  <course>65.85</course>
  <speed>0.99</speed>
  <fix>3d</fix>
</trkpt>
<trkpt lat="33.8107213" lon="-118.3952383">
  <ele>-25.018</ele>
  <time>2026-09-01T01:14:22Z</time>
  <course>156.0</course>
  <speed>1.0176934705499492</speed>
  <fix>3d</fix>
</trkpt>
<trkpt lat="33.8107206" lon="-118.3952409">
  <ele>-24.41</ele>
  <time>2026-09-01T01:14:22Z</time>
  <course>65.85</course>
  <speed>0.99</speed>
  <fix>3d</fix>
</trkpt>
<trkpt lat="33.8107217" lon="-118.3952373">
  <ele>-25.018</ele>
  <time>2026-09-01T01:14:22Z</time>
  <course>156.11</course>
  <speed>1.0176934705499492</speed>
  <fix>3d</fix>
</trkpt>
<trkpt lat="33.8107213" lon="-118.3952389">
  <ele>-24.41</ele>
  <time>2026-09-01T01:14:22Z</time>
  <course>66.04</course>
  <speed>1.0</speed>
  <fix>3d</fix>
</trkpt>
<trkpt lat="33.8107221" lon="-118.3952363">
  <ele>-25.018</ele>
  <time>2026-09-01T01:14:22Z</time>
  <course>156.23</course>
  <speed>1.0176934705499492</speed>
  <fix>3d</fix>
</trkpt>
<trkpt lat="33.8107213" lon="-118.3952389">
  <ele>-24.41</ele>
  <time>2026-09-01T01:14:22Z</time>
  <course>66.04</course>
  <speed>1.0</speed>
  <fix>3d</fix>
</trkpt>
<trkpt lat="33.8107224" lon="-118.3952353">
  <ele>-25.018</ele>
  <time>2026-09-01T01:14:22Z</time>
  <course>156.34</course>
  <speed>1.0176934705499492</speed>
  <fix>3d</fix>
</trkpt>
<trkpt lat="33.8107221" lon="-118.3952368">
  <ele>-24.41</ele>
  <time>2026-09-01T01:14:22Z</time>
  <course>66.27</course>
  <speed>1.0</speed>
  <fix>3d</fix>
</trkpt>
<trkpt lat="33.8107228" lon="-118.3952343">
  <ele>-25.018</ele>
  <time>2026-09-01T01:14:22Z</time>
  <course>156.46</course>
  <speed>1.0139033484509261</speed>
  <fix>3d</fix>
</trkpt>
<trkpt lat="33.8107221" lon="-118.3952368">
  <ele>-24.41</ele>
  <time>2026-09-01T01:14:22Z</time>
  <course>66.27</course>
  <speed>1.0</speed>
  <fix>3d</fix>
</trkpt>
<trkpt lat="33.8107231" lon="-118.3952333">
  <ele>-25.016</ele>
  <time>2026-09-01T01:14:22Z</time>
  <course>156.57</course>
  <speed>1.0139033484509261</speed>
  <fix>3d</fix>
</trkpt>
<trkpt lat="33.8107228" lon="-118.3952349">
  <ele>-24.4</ele>
  <time>2026-09-01T01:14:22Z</time>
  <course>66.51</course>
  <speed>0.99</speed>
  <fix>3d</fix>
</trkpt>
<trkpt lat="33.8107235" lon="-118.3952324">
  <ele>-25.014</ele>
  <time>2026-09-01T01:14:22Z</time>
  <course>156.69</course>
  <speed>1.0139033484509261</speed>
  <fix>3d</fix>
</trkpt>
<trkpt lat="33.8107228" lon="-118.3952349">
  <ele>-24.4</ele>
  <time>2026-09-01T01:14:22Z</time>
  <course>66.51</course>
  <speed>0.99</speed>
  <fix>3d</fix>
</trkpt>
<trkpt lat="33.8107238" lon="-118.3952314">
  <ele>-25.012</ele>
  <time>2026-09-01T01:14:22Z</time>
  <course>156.8</course>
  <speed>1.0139033484509261</speed>
  <fix>3d</fix>
</trkpt>
<trkpt lat="33.8107235" lon="-118.395233">
  <ele>-24.4</ele>
  <time>2026-09-01T01:14:22Z</time>
  <course>66.78</course>
  <speed>0.99</speed>
  <fix>3d</fix>
</trkpt>
<trkpt lat="33.8107242" lon="-118.3952304">
  <ele>-25.011</ele>
  <time>2026-09-01T01:14:22Z</time>
  <course>156.92</course>
  <speed>1.010198000393982</speed>
  <fix>3d</fix>
</trkpt>
<trkpt lat="33.8107235" lon="-118.395233">
  <ele>-24.4</ele>
  <time>2026-09-01T01:14:22Z</time>
  <course>66.78</course>
  <speed>0.99</speed>
  <fix>3d</fix>
</trkpt>
<trkpt lat="33.8107245" lon="-118.3952294">
  <ele>-25.009</ele>
  <time>2026-09-01T01:14:22Z</time>
  <course>157.03</course>
  <speed>1.010198000393982</speed>
  <fix>3d</fix>
</trkpt>
<trkpt lat="33.8107242" lon="-118.395231">
  <ele>-24.4</ele>
  <time>2026-09-01T01:14:22Z</time>
  <course>67.07</course>
  <speed>0.99</speed>
  <fix>3d</fix>
</trkpt>
<trkpt lat="33.8107249" lon="-118.3952284">
  <ele>-25.009</ele>
  <time>2026-09-01T01:14:22Z</time>
  <course>157.15</course>
  <speed>1.010198000393982</speed>
  <fix>3d</fix>
</trkpt>
<trkpt lat="33.8107242" lon="-118.395231">
  <ele>-24.4</ele>
  <time>2026-09-01T01:14:22Z</time>
  <course>67.07</course>
  <speed>0.99</speed>
  <fix>3d</fix>
</trkpt>
<trkpt lat="33.8107252" lon="-118.3952274">
  <ele>-25.01</ele>
  <time>2026-09-01T01:14:22Z</time>
  <course>157.26</course>
  <speed>1.0195096860746347</speed>
  <fix>3d</fix>
</trkpt>
<trkpt lat="33.8107249" lon="-118.395229">
  <ele>-24.4</ele>
  <time>2026-09-01T01:14:22Z</time>
  <course>67.34</course>
  <speed>0.99</speed>
  <fix>3d</fix>
</trkpt>
<trkpt lat="33.8107256" lon="-118.3952264">
  <ele>-25.01</ele>
  <time>2026-09-01T01:14:22Z</time>
  <course>157.37</course>
  <speed>1.0195096860746347</speed>
  <fix>3d</fix>
</trkpt>
<trkpt lat="33.8107249" lon="-118.395229">
  <ele>-24.4</ele>
  <time>2026-09-01T01:14:22Z</time>
  <course>67.34</course>
  <speed>0.99</speed>
  <fix>3d</fix>
</trkpt>
<trkpt lat="33.8107259" lon="-118.3952254">
  <ele>-25.011</ele>
  <time>2026-09-01T01:14:22Z</time>
  <course>157.49</course>
  <speed>1.0159232254457027</speed>
  <fix>3d</fix>
</trkpt>
<trkpt lat="33.8107256" lon="-118.395227">
  <ele>-24.4</ele>
  <time>2026-09-01T01:14:22Z</time>
  <course>67.6</course>
  <speed>1.0</speed>
  <fix>3d</fix>
</trkpt>
<trkpt lat="33.8107263" lon="-118.3952244">
  <ele>-25.012</ele>
  <time>2026-09-01T01:14:22Z</time>
  <course>157.6</course>
  <speed>1.0159232254457027</speed>
  <fix>3d</fix>
</trkpt>
<trkpt lat="33.8107256" lon="-118.395227">
  <ele>-24.4</ele>
  <time>2026-09-01T01:14:22Z</time>
  <course>67.6</course>
  <speed>1.0</speed>
  <fix>3d</fix>
</trkpt>
<trkpt lat="33.8107266" lon="-118.3952234">
  <ele>-25.012</ele>
  <time>2026-09-01T01:14:22Z</time>
  <course>157.71</course>
  <speed>1.0159232254457027</speed>
  <fix>3d</fix>
</trkpt>
<trkpt lat="33.8107263" lon="-118.395225">
  <ele>-24.4</ele>
  <time>2026-09-01T01:14:22Z</time>
  <course>67.86</course>
  <speed>1.0</speed>
  <fix>3d</fix>
</trkpt>
<trkpt lat="33.8107269" lon="-118.3952224">
  <ele>-25.012</ele>
  <time>2026-09-01T01:14:22Z</time>
  <course>157.83</course>
  <speed>1.0159232254457027</speed>
  <fix>3d</fix>
</trkpt>
<trkpt lat="33.8107263" lon="-118.395225">
  <ele>-24.4</ele>
  <time>2026-09-01T01:14:22Z</time>
  <course>67.86</course>
  <speed>1.0</speed>
  <fix>3d</fix>
</trkpt>
<trkpt lat="33.8107273" lon="-118.3952214">
  <ele>-25.012</ele>
  <time>2026-09-01T01:14:22Z</time>
  <course>157.95</course>
  <speed>1.0159232254457027</speed>
  <fix>3d</fix>
</trkpt>
<trkpt lat="33.8107269" lon="-118.3952229">
  <ele>-24.4</ele>
  <time>2026-09-01T01:14:22Z</time>
  <course>68.12</course>
  <speed>1.0</speed>
  <fix>3d</fix>
</trkpt>
<trkpt lat="33.8107276" lon="-118.3952204">
  <ele>-25.013</ele>
  <time>2026-09-01T01:14:22Z</time>
  <course>158.06</course>
  <speed>1.0124228365658294</speed>
  <fix>3d</fix>
</trkpt>
<trkpt lat="33.8107269" lon="-118.3952229">
  <ele>-24.4</ele>
  <time>2026-09-01T01:14:22Z</time>
  <course>68.12</course>
  <speed>1.0</speed>
  <fix>3d</fix>
</trkpt>
<trkpt lat="33.8107279" lon="-118.3952194">
  <ele>-25.014</ele>
  <time>2026-09-01T01:14:22Z</time>
  <course>158.18</course>
  <speed>1.0124228365658294</speed>
  <fix>3d</fix>
</trkpt>
<trkpt lat="33.8107276" lon="-118.395221">
  <ele>-24.4</ele>
  <time>2026-09-01T01:14:22Z</time>
  <course>68.34</course>
  <speed>1.0</speed>
  <fix>3d</fix>
</trkpt>
<trkpt lat="33.8107283" lon="-118.3952183">
  <ele>-25.016</ele>
  <time>2026-09-01T01:14:22Z</time>
  <course>158.3</course>
  <speed>1.0124228365658294</speed>
  <fix>3d</fix>
</trkpt>
<trkpt lat="33.8107276" lon="-118.395221">
  <ele>-24.4</ele>
  <time>2026-09-01T01:14:22Z</time>
  <course>68.34</course>
  <speed>1.0</speed>
  <fix>3d</fix>
</trkpt>
<trkpt lat="33.8107286" lon="-118.3952173">
  <ele>-25.017</ele>
  <time>2026-09-01T01:14:22Z</time>
  <course>158.41</course>
  <speed>1.0124228365658294</speed>
  <fix>3d</fix>
</trkpt>
<trkpt lat="33.8107282" lon="-118.395219">
  <ele>-24.41</ele>
  <time>2026-09-01T01:14:22Z</time>
  <course>68.51</course>
  <speed>1.0</speed>
  <fix>3d</fix>
</trkpt>
<trkpt lat="33.8107289" lon="-118.3952163">
  <ele>-25.017</ele>
  <time>2026-09-01T01:14:22Z</time>
  <course>158.52</course>
  <speed>1.0124228365658294</speed>
  <fix>3d</fix>
</trkpt>
<trkpt lat="33.8107282" lon="-118.395219">
  <ele>-24.41</ele>
  <time>2026-09-01T01:14:22Z</time>
  <course>68.51</course>
  <speed>1.0</speed>
  <fix>3d</fix>
</trkpt>
<trkpt lat="33.8107292" lon="-118.3952153">
  <ele>-25.017</ele>
  <time>2026-09-01T01:14:22Z</time>
  <course>158.63</course>
  <speed>1.0124228365658294</speed>
  <fix>3d</fix>
</trkpt>
<trkpt lat="33.8107289" lon="-118.3952169">
  <ele>-24.41</ele>
  <time>2026-09-01T01:14:22Z</time>
  <course>68.69</course>
  <speed>1.0</speed>
  <fix>3d</fix>
</trkpt>
<trkpt lat="33.8107296" lon="-118.3952143">
  <ele>-25.016</ele>
  <time>2026-09-01T01:14:22Z</time>
  <course>158.75</course>
  <speed>1.0124228365658294</speed>
  <fix>3d</fix>
</trkpt>
<trkpt lat="33.8107289" lon="-118.3952169">
  <ele>-24.41</ele>
  <time>2026-09-01T01:14:22Z</time>
  <course>68.69</course>
  <speed>1.0</speed>
  <fix>3d</fix>
</trkpt>
<trkpt lat="33.8107299" lon="-118.3952133">
  <ele>-25.015</ele>
  <time>2026-09-01T01:14:22Z</time>
  <course>158.86</course>
  <speed>1.0090094152187086</speed>
  <fix>3d</fix>
</trkpt>
<trkpt lat="33.8107296" lon="-118.3952149">
  <ele>-24.4</ele>
  <time>2026-09-01T01:14:22Z</time>
  <course>68.87</course>
  <speed>1.0</speed>
  <fix>3d</fix>
</trkpt>
<trkpt lat="33.8107302" lon="-118.3952123">
  <ele>-25.013</ele>
  <time>2026-09-01T01:14:22Z</time>
  <course>158.98</course>
  <speed>1.0184301645179212</speed>
  <fix>3d</fix>
</trkpt>
<trkpt lat="33.8107296" lon="-118.3952149">
  <ele>-24.4</ele>
  <time>2026-09-01T01:14:22Z</time>
  <course>68.87</course>
  <speed>1.0</speed>
  <fix>3d</fix>
</trkpt>
<trkpt lat="33.8107305" lon="-118.3952113">
  <ele>-25.011</ele>
  <time>2026-09-01T01:14:22Z</time>
  <course>159.09</course>
  <speed>1.0184301645179212</speed>
  <fix>3d</fix>
</trkpt>
<trkpt lat="33.8107302" lon="-118.3952129">
  <ele>-24.4</ele>
  <time>2026-09-01T01:14:22Z</time>
  <course>69.07</course>
  <speed>1.0</speed>
  <fix>3d</fix>
</trkpt>
<trkpt lat="33.8107308" lon="-118.3952103">
  <ele>-25.009</ele>
  <time>2026-09-01T01:14:22Z</time>
  <course>159.21</course>
  <speed>1.0184301645179212</speed>
  <fix>3d</fix>
</trkpt>
<trkpt lat="33.8107302" lon="-118.3952129">
  <ele>-24.4</ele>
  <time>2026-09-01T01:14:22Z</time>
  <course>69.07</course>
  <speed>1.0</speed>
  <fix>3d</fix>
</trkpt>
<trkpt lat="33.8107312" lon="-118.3952093">
  <ele>-25.008</ele>
  <time>2026-09-01T01:14:22Z</time>
  <course>159.32</course>
  <speed>1.0184301645179212</speed>
  <fix>3d</fix>
</trkpt>
<trkpt lat="33.8107308" lon="-118.3952109">
  <ele>-24.4</ele>
  <time>2026-09-01T01:14:22Z</time>
  <course>69.31</course>
  <speed>1.0</speed>
  <fix>3d</fix>
</trkpt>
<trkpt lat="33.8107315" lon="-118.3952082">
  <ele>-25.009</ele>
  <time>2026-09-01T01:14:22Z</time>
  <course>159.44</course>
  <speed>1.0151354589413177</speed>
  <fix>3d</fix>
</trkpt>
<trkpt lat="33.8107308" lon="-118.3952109">
  <ele>-24.4</ele>
  <time>2026-09-01T01:14:22Z</time>
  <course>69.31</course>
  <speed>1.0</speed>
  <fix>3d</fix>
</trkpt>
<trkpt lat="33.8107318" lon="-118.3952072">
  <ele>-25.01</ele>
  <time>2026-09-01T01:14:22Z</time>
  <course>159.55</course>
  <speed>1.0151354589413177</speed>
  <fix>3d</fix>
</trkpt>
<trkpt lat="33.8107315" lon="-118.3952089">
  <ele>-24.4</ele>
  <time>2026-09-01T01:14:22Z</time>
  <course>69.53</course>
  <speed>1.0</speed>
  <fix>3d</fix>
</trkpt>
<trkpt lat="33.8107321" lon="-118.3952062">
  <ele>-25.01</ele>
  <time>2026-09-01T01:14:22Z</time>
  <course>159.67</course>
  <speed>1.0151354589413177</speed>
  <fix>3d</fix>
</trkpt>
<trkpt lat="33.8107315" lon="-118.3952089">
  <ele>-24.4</ele>
  <time>2026-09-01T01:14:22Z</time>
  <course>69.53</course>
  <speed>1.0</speed>
  <fix>3d</fix>
</trkpt>
<trkpt lat="33.8107324" lon="-118.3952052">
  <ele>-25.011</ele>
  <time>2026-09-01T01:14:22Z</time>
  <course>159.78</course>
  <speed>1.0151354589413177</speed>
  <fix>3d</fix>
</trkpt>
<trkpt lat="33.8107321" lon="-118.3952068">
  <ele>-24.4</ele>
  <time>2026-09-01T01:14:22Z</time>
  <course>69.76</course>
  <speed>1.0</speed>
  <fix>3d</fix>
</trkpt>
<trkpt lat="33.8107327" lon="-118.3952042">
  <ele>-25.012</ele>
  <time>2026-09-01T01:14:22Z</time>
  <course>159.89</course>
  <speed>1.0151354589413177</speed>
  <fix>3d</fix>
</trkpt>
<trkpt lat="33.8107321" lon="-118.3952068">
  <ele>-24.4</ele>
  <time>2026-09-01T01:14:22Z</time>
  <course>69.76</course>
  <speed>1.0</speed>
  <fix>3d</fix>
</trkpt>
<trkpt lat="33.810733" lon="-118.3952032">
  <ele>-25.012</ele>
  <time>2026-09-01T01:14:22Z</time>
  <course>160.01</course>
  <speed>1.0119288512538815</speed>
  <fix>3d</fix>
</trkpt>
<trkpt lat="33.8107327" lon="-118.3952047">
  <ele>-24.4</ele>
  <time>2026-09-01T01:14:22Z</time>
  <course>70.0</course>
  <speed>1.0</speed>
  <fix>3d</fix>
</trkpt>
<trkpt lat="33.8107333" lon="-118.3952021">
  <ele>-25.012</ele>
  <time>2026-09-01T01:14:22Z</time>
  <course>160.13</course>
  <speed>1.0119288512538815</speed>
  <fix>3d</fix>
</trkpt>
<trkpt lat="33.8107327" lon="-118.3952047">
  <ele>-24.4</ele>
  <time>2026-09-01T01:14:22Z</time>
  <course>70.0</course>
  <speed>1.0</speed>
  <fix>3d</fix>
</trkpt>
<trkpt lat="33.8107336" lon="-118.3952011">
  <ele>-25.012</ele>
  <time>2026-09-01T01:14:22Z</time>
  <course>160.24</course>
  <speed>1.0119288512538815</speed>
  <fix>3d</fix>
</trkpt>
<trkpt lat="33.8107334" lon="-118.3952027">
  <ele>-24.41</ele>
  <time>2026-09-01T01:14:22Z</time>
  <course>70.22</course>
  <speed>0.99</speed>
  <fix>3d</fix>
</trkpt>
<trkpt lat="33.8107339" lon="-118.3952001">
  <ele>-25.013</ele>
  <time>2026-09-01T01:14:22Z</time>
  <course>160.35</course>
  <speed>1.0119288512538815</speed>
  <fix>3d</fix>
</trkpt>
<trkpt lat="33.8107334" lon="-118.3952027">
  <ele>-24.41</ele>
  <time>2026-09-01T01:14:22Z</time>
  <course>70.22</course>
  <speed>0.99</speed>
  <fix>3d</fix>
</trkpt>
<trkpt lat="33.8107342" lon="-118.3951991">
  <ele>-25.014</ele>
  <time>2026-09-01T01:14:22Z</time>
  <course>160.47</course>
  <speed>1.0119288512538815</speed>
  <fix>3d</fix>
</trkpt>
<trkpt lat="33.8107339" lon="-118.3952007">
  <ele>-24.41</ele>
  <time>2026-09-01T01:14:22Z</time>
  <course>70.46</course>
  <speed>0.99</speed>
  <fix>3d</fix>
</trkpt>
<trkpt lat="33.8107345" lon="-118.395198">
  <ele>-25.014</ele>
  <time>2026-09-01T01:14:22Z</time>
  <course>160.58</course>
  <speed>1.0088111815399352</speed>
  <fix>3d</fix>
</trkpt>
<trkpt lat="33.8107339" lon="-118.3952007">
  <ele>-24.41</ele>
  <time>2026-09-01T01:14:22Z</time>
  <course>70.46</course>
  <speed>0.99</speed>
  <fix>3d</fix>
</trkpt>
<trkpt lat="33.8107348" lon="-118.395197">
  <ele>-25.013</ele>
  <time>2026-09-01T01:14:22Z</time>
  <course>160.7</course>
  <speed>1.0088111815399352</speed>
  <fix>3d</fix>
</trkpt>
<trkpt lat="33.8107346" lon="-118.3951987">
  <ele>-24.41</ele>
  <time>2026-09-01T01:14:22Z</time>
  <course>70.7</course>
  <speed>0.99</speed>
  <fix>3d</fix>
</trkpt>
<trkpt lat="33.8107351" lon="-118.395196">
  <ele>-25.013</ele>
  <time>2026-09-01T01:14:22Z</time>
  <course>160.81</course>
  <speed>1.0183319694480775</speed>
  <fix>3d</fix>
</trkpt>
<trkpt lat="33.8107346" lon="-118.3951987">
  <ele>-24.41</ele>
  <time>2026-09-01T01:14:22Z</time>
  <course>70.7</course>
  <speed>0.99</speed>
  <fix>3d</fix>
</trkpt>
<trkpt lat="33.8107354" lon="-118.395195">
  <ele>-25.014</ele>
  <time>2026-09-01T01:14:22Z</time>
  <course>160.93</course>
  <speed>1.0183319694480775</speed>
  <fix>3d</fix>
</trkpt>
<trkpt lat="33.8107351" lon="-118.3951966">
  <ele>-24.41</ele>
  <time>2026-09-01T01:14:22Z</time>
  <course>70.94</course>
  <speed>0.99</speed>
  <fix>3d</fix>
</trkpt>
<trkpt lat="33.8107357" lon="-118.395194">
  <ele>-25.015</ele>
  <time>2026-09-01T01:14:22Z</time>
  <course>161.04</course>
  <speed>1.0183319694480775</speed>
  <fix>3d</fix>
</trkpt>
<trkpt lat="33.8107351" lon="-118.3951966">
  <ele>-24.41</ele>
  <time>2026-09-01T01:14:22Z</time>
  <course>70.94</course>
  <speed>0.99</speed>
  <fix>3d</fix>
</trkpt>
<trkpt lat="33.810736" lon="-118.3951929">
  <ele>-25.015</ele>
  <time>2026-09-01T01:14:22Z</time>
  <course>161.16</course>
  <speed>1.015332457867865</speed>
  <fix>3d</fix>
</trkpt>
<trkpt lat="33.8107357" lon="-118.3951946">
  <ele>-24.41</ele>
  <time>2026-09-01T01:14:22Z</time>
  <course>71.19</course>
  <speed>0.99</speed>
  <fix>3d</fix>
</trkpt>
<trkpt lat="33.8107363" lon="-118.3951919">
  <ele>-25.013</ele>
  <time>2026-09-01T01:14:22Z</time>
  <course>161.27</course>
  <speed>1.015332457867865</speed>
  <fix>3d</fix>
</trkpt>
<trkpt lat="33.8107357" lon="-118.3951946">
  <ele>-24.41</ele>
  <time>2026-09-01T01:14:22Z</time>
  <course>71.19</course>
  <speed>0.99</speed>
  <fix>3d</fix>
</trkpt>
<trkpt lat="33.8107366" lon="-118.3951909">
  <ele>-25.013</ele>
  <time>2026-09-01T01:14:22Z</time>
  <course>161.38</course>
  <speed>1.015332457867865</speed>
  <fix>3d</fix>
</trkpt>
<trkpt lat="33.8107363" lon="-118.3951926">
  <ele>-24.41</ele>
  <time>2026-09-01T01:14:22Z</time>
  <course>71.4</course>
  <speed>0.99</speed>
  <fix>3d</fix>
</trkpt>
<trkpt lat="33.8107368" lon="-118.3951899">
  <ele>-25.014</ele>
  <time>2026-09-01T01:14:22Z</time>
  <course>161.5</course>
  <speed>1.015332457867865</speed>
  <fix>3d</fix>
</trkpt>
<trkpt lat="33.8107363" lon="-118.3951926">
  <ele>-24.41</ele>
  <time>2026-09-01T01:14:22Z</time>
  <course>71.4</course>
  <speed>0.99</speed>
  <fix>3d</fix>
</trkpt>
<trkpt lat="33.8107371" lon="-118.3951888">
  <ele>-25.015</ele>
  <time>2026-09-01T01:14:22Z</time>
  <course>161.62</course>
  <speed>1.015332457867865</speed>
  <fix>3d</fix>
</trkpt>
<trkpt lat="33.8107368" lon="-118.3951905">
  <ele>-24.42</ele>
  <time>2026-09-01T01:14:22Z</time>
  <course>71.62</course>
  <speed>0.99</speed>
  <fix>3d</fix>
</trkpt>
<trkpt lat="33.8107374" lon="-118.3951878">
  <ele>-25.016</ele>
  <time>2026-09-01T01:14:22Z</time>
  <course>161.73</course>
  <speed>1.0124228365658294</speed>
  <fix>3d</fix>
</trkpt>
<trkpt lat="33.8107368" lon="-118.3951905">
  <ele>-24.42</ele>
  <time>2026-09-01T01:14:22Z</time>
  <course>71.62</course>
  <speed>0.99</speed>
  <fix>3d</fix>
</trkpt>
<trkpt lat="33.8107377" lon="-118.3951868">
  <ele>-25.016</ele>
  <time>2026-09-01T01:14:22Z</time>
  <course>161.84</course>
  <speed>1.0124228365658294</speed>
  <fix>3d</fix>
</trkpt>
<trkpt lat="33.8107374" lon="-118.3951884">
  <ele>-24.42</ele>
  <time>2026-09-01T01:14:22Z</time>
  <course>71.84</course>
  <speed>1.0</speed>
  <fix>3d</fix>
</trkpt>
<trkpt lat="33.8107379" lon="-118.3951857">
  <ele>-25.017</ele>
  <time>2026-09-01T01:14:22Z</time>
  <course>161.96</course>
  <speed>1.0124228365658294</speed>
  <fix>3d</fix>
</trkpt>
<trkpt lat="33.8107374" lon="-118.3951884">
  <ele>-24.42</ele>
  <time>2026-09-01T01:14:22Z</time>
  <course>71.84</course>
  <speed>1.0</speed>
  <fix>3d</fix>
</trkpt>
<trkpt lat="33.8107382" lon="-118.3951847">
  <ele>-25.018</ele>
  <time>2026-09-01T01:14:22Z</time>
  <course>162.07</course>
  <speed>1.0124228365658294</speed>
  <fix>3d</fix>
</trkpt>
<trkpt lat="33.810738" lon="-118.3951864">
  <ele>-24.42</ele>
  <time>2026-09-01T01:14:22Z</time>
  <course>72.03</course>
  <speed>1.0</speed>
  <fix>3d</fix>
</trkpt>
<trkpt lat="33.8107385" lon="-118.3951837">
  <ele>-25.019</ele>
  <time>2026-09-01T01:14:22Z</time>
  <course>162.19</course>
  <speed>1.0124228365658294</speed>
  <fix>3d</fix>
</trkpt>
<trkpt lat="33.810738" lon="-118.3951864">
  <ele>-24.42</ele>
  <time>2026-09-01T01:14:22Z</time>
  <course>72.03</course>
  <speed>1.0</speed>
  <fix>3d</fix>
</trkpt>
<trkpt lat="33.8107388" lon="-118.3951827">
  <ele>-25.019</ele>
  <time>2026-09-01T01:14:22Z</time>
  <course>162.3</course>
  <speed>1.009603882718366</speed>
  <fix>3d</fix>
</trkpt>
<trkpt lat="33.8107385" lon="-118.3951843">
  <ele>-24.41</ele>
  <time>2026-09-01T01:14:22Z</time>
  <course>72.24</course>
  <speed>1.0</speed>
  <fix>3d</fix>
</trkpt>
<trkpt lat="33.810739" lon="-118.3951816">
  <ele>-25.019</ele>
  <time>2026-09-01T01:14:23Z</time>
  <course>162.41</course>
  <speed>1.009603882718366</speed>
  <fix>3d</fix>
</trkpt>
<trkpt lat="33.8107385" lon="-118.3951843">
  <ele>-24.41</ele>
  <time>2026-09-01T01:14:23Z</time>
  <course>72.24</course>
  <speed>1.0</speed>
  <fix>3d</fix>
</trkpt>
<trkpt lat="33.8107393" lon="-118.3951806">
  <ele>-25.017</ele>
  <time>2026-09-01T01:14:23Z</time>
  <course>162.53</course>
  <speed>1.0192153844992726</speed>
  <fix>3d</fix>
</trkpt>
<trkpt lat="33.810739" lon="-118.3951822">
  <ele>-24.41</ele>
  <time>2026-09-01T01:14:23Z</time>
  <course>72.48</course>
  <speed>1.0</speed>
  <fix>3d</fix>
</trkpt>
<trkpt lat="33.8107396" lon="-118.3951796">
  <ele>-25.015</ele>
  <time>2026-09-01T01:14:23Z</time>
  <course>162.64</course>
  <speed>1.0192153844992726</speed>
  <fix>3d</fix>
</trkpt>
<trkpt lat="33.810739" lon="-118.3951822">
  <ele>-24.41</ele>
  <time>2026-09-01T01:14:23Z</time>
  <course>72.48</course>
  <speed>1.0</speed>
  <fix>3d</fix>
</trkpt>
<trkpt lat="33.8107398" lon="-118.3951785">
  <ele>-25.012</ele>
  <time>2026-09-01T01:14:23Z</time>
  <course>162.76</course>
  <speed>1.0192153844992726</speed>
  <fix>3d</fix>
</trkpt>
<trkpt lat="33.8107396" lon="-118.3951802">
  <ele>-24.41</ele>
  <time>2026-09-01T01:14:23Z</time>
  <course>72.67</course>
  <speed>1.0</speed>
  <fix>3d</fix>
</trkpt>
<trkpt lat="33.8107401" lon="-118.3951775">
  <ele>-25.011</ele>
  <time>2026-09-01T01:14:23Z</time>
  <course>162.87</course>
  <speed>1.0192153844992726</speed>
  <fix>3d</fix>
</trkpt>
<trkpt lat="33.8107396" lon="-118.3951802">
  <ele>-24.41</ele>
  <time>2026-09-01T01:14:23Z</time>
  <course>72.67</course>
  <speed>1.0</speed>
  <fix>3d</fix>
</trkpt>
<trkpt lat="33.8107403" lon="-118.3951765">
  <ele>-25.011</ele>
  <time>2026-09-01T01:14:23Z</time>
  <course>162.99</course>
  <speed>1.0165136496870073</speed>
  <fix>3d</fix>
</trkpt>
<trkpt lat="33.8107401" lon="-118.3951781">
  <ele>-24.41</ele>
  <time>2026-09-01T01:14:23Z</time>
  <course>72.85</course>
  <speed>1.0</speed>
  <fix>3d</fix>
</trkpt>
<trkpt lat="33.8107406" lon="-118.3951754">
  <ele>-25.012</ele>
  <time>2026-09-01T01:14:23Z</time>
  <course>163.1</course>
  <speed>1.0165136496870073</speed>
  <fix>3d</fix>
</trkpt>
<trkpt lat="33.8107401" lon="-118.3951781">
  <ele>-24.41</ele>
  <time>2026-09-01T01:14:23Z</time>
  <course>72.85</course>
  <speed>1.0</speed>
  <fix>3d</fix>
</trkpt>
<trkpt lat="33.8107409" lon="-118.3951744">
  <ele>-25.014</ele>
  <time>2026-09-01T01:14:23Z</time>
  <course>163.21</course>
  <speed>1.0165136496870073</speed>
  <fix>3d</fix>
</trkpt>
<trkpt lat="33.8107406" lon="-118.395176">
  <ele>-24.41</ele>
  <time>2026-09-01T01:14:23Z</time>
  <course>73.07</course>
  <speed>1.0</speed>
  <fix>3d</fix>
</trkpt>
<trkpt lat="33.8107411" lon="-118.3951733">
  <ele>-25.017</ele>
  <time>2026-09-01T01:14:23Z</time>
  <course>163.33</course>
  <speed>1.0165136496870073</speed>
  <fix>3d</fix>
</trkpt>
<trkpt lat="33.8107406" lon="-118.395176">
  <ele>-24.41</ele>
  <time>2026-09-01T01:14:23Z</time>
  <course>73.07</course>
  <speed>1.0</speed>
  <fix>3d</fix>
</trkpt>
<trkpt lat="33.8107414" lon="-118.3951723">
  <ele>-25.019</ele>
  <time>2026-09-01T01:14:23Z</time>
  <course>163.44</course>
  <speed>1.0165136496870073</speed>
  <fix>3d</fix>
</trkpt>
<trkpt lat="33.8107412" lon="-118.395174">
  <ele>-24.41</ele>
  <time>2026-09-01T01:14:23Z</time>
  <course>73.27</course>
  <speed>1.0</speed>
  <fix>3d</fix>
</trkpt>
<trkpt lat="33.8107416" lon="-118.3951713">
  <ele>-25.021</ele>
  <time>2026-09-01T01:14:23Z</time>
  <course>163.56</course>
  <speed>1.0139033484509261</speed>
  <fix>3d</fix>
</trkpt>
<trkpt lat="33.8107412" lon="-118.395174">
  <ele>-24.41</ele>
  <time>2026-09-01T01:14:23Z</time>
  <course>73.27</course>
  <speed>1.0</speed>
  <fix>3d</fix>
</trkpt>
<trkpt lat="33.8107419" lon="-118.3951702">
  <ele>-25.021</ele>
  <time>2026-09-01T01:14:23Z</time>
  <course>163.68</course>
  <speed>1.0139033484509261</speed>
  <fix>3d</fix>
</trkpt>
<trkpt lat="33.8107417" lon="-118.3951719">
  <ele>-24.41</ele>
  <time>2026-09-01T01:14:23Z</time>
  <course>73.49</course>
  <speed>1.0</speed>
  <fix>3d</fix>
</trkpt>
<trkpt lat="33.8107421" lon="-118.3951692">
  <ele>-25.019</ele>
  <time>2026-09-01T01:14:23Z</time>
  <course>163.79</course>
  <speed>1.0139033484509261</speed>
  <fix>3d</fix>
</trkpt>
<trkpt lat="33.8107417" lon="-118.3951719">
  <ele>-24.41</ele>
  <time>2026-09-01T01:14:23Z</time>
  <course>73.49</course>
  <speed>1.0</speed>
  <fix>3d</fix>
</trkpt>
<trkpt lat="33.8107424" lon="-118.3951681">
  <ele>-25.018</ele>
  <time>2026-09-01T01:14:23Z</time>
  <course>163.91</course>
  <speed>1.0139033484509261</speed>
  <fix>3d</fix>
</trkpt>
<trkpt lat="33.8107422" lon="-118.3951698">
  <ele>-24.41</ele>
  <time>2026-09-01T01:14:23Z</time>
  <course>73.77</course>
  <speed>1.0</speed>
  <fix>3d</fix>
</trkpt>
<trkpt lat="33.8107426" lon="-118.3951671">
  <ele>-25.016</ele>
  <time>2026-09-01T01:14:23Z</time>
  <course>164.02</course>
  <speed>1.0113851887386922</speed>
  <fix>3d</fix>
</trkpt>
<trkpt lat="33.8107422" lon="-118.3951698">
  <ele>-24.41</ele>
  <time>2026-09-01T01:14:23Z</time>
  <course>73.77</course>
  <speed>1.0</speed>
  <fix>3d</fix>
</trkpt>
<trkpt lat="33.8107429" lon="-118.3951661">
  <ele>-25.014</ele>
  <time>2026-09-01T01:14:23Z</time>
  <course>164.13</course>
  <speed>1.0113851887386922</speed>
  <fix>3d</fix>
</trkpt>
<trkpt lat="33.8107427" lon="-118.3951678">
  <ele>-24.4</ele>
  <time>2026-09-01T01:14:23Z</time>
  <course>74.07</course>
  <speed>1.0</speed>
  <fix>3d</fix>
</trkpt>
<trkpt lat="33.8107431" lon="-118.395165">
  <ele>-25.012</ele>
  <time>2026-09-01T01:14:23Z</time>
  <course>164.25</course>
  <speed>1.0113851887386922</speed>
  <fix>3d</fix>
</trkpt>
<trkpt lat="33.8107427" lon="-118.3951678">
  <ele>-24.4</ele>
  <time>2026-09-01T01:14:23Z</time>
  <course>74.07</course>
  <speed>1.0</speed>
  <fix>3d</fix>
</trkpt>
<trkpt lat="33.8107434" lon="-118.395164">
  <ele>-25.011</ele>
  <time>2026-09-01T01:14:23Z</time>
  <course>164.36</course>
  <speed>1.021077861869505</speed>
  <fix>3d</fix>
</trkpt>
<trkpt lat="33.8107432" lon="-118.3951657">
  <ele>-24.4</ele>
  <time>2026-09-01T01:14:23Z</time>
  <course>74.36</course>
  <speed>1.0</speed>
  <fix>3d</fix>
</trkpt>
<trkpt lat="33.8107436" lon="-118.3951629">
  <ele>-25.01</ele>
  <time>2026-09-01T01:14:23Z</time>
  <course>164.48</course>
  <speed>1.0186756107809787</speed>
  <fix>3d</fix>
</trkpt>
<trkpt lat="33.8107432" lon="-118.3951657">
  <ele>-24.4</ele>
  <time>2026-09-01T01:14:23Z</time>
  <course>74.36</course>
  <speed>1.0</speed>
  <fix>3d</fix>
</trkpt>
<trkpt lat="33.8107438" lon="-118.3951619">
  <ele>-25.009</ele>
  <time>2026-09-01T01:14:23Z</time>
  <course>164.59</course>
  <speed>1.0186756107809787</speed>
  <fix>3d</fix>
</trkpt>
<trkpt lat="33.8107437" lon="-118.3951636">
  <ele>-24.4</ele>
  <time>2026-09-01T01:14:23Z</time>
  <course>74.65</course>
  <speed>1.0</speed>
  <fix>3d</fix>
</trkpt>
<trkpt lat="33.8107441" lon="-118.3951608">
  <ele>-25.009</ele>
  <time>2026-09-01T01:14:23Z</time>
  <course>164.71</course>
  <speed>1.0186756107809787</speed>
  <fix>3d</fix>
</trkpt>
<trkpt lat="33.8107437" lon="-118.3951636">
  <ele>-24.4</ele>
  <time>2026-09-01T01:14:23Z</time>
  <course>74.65</course>
  <speed>1.0</speed>
  <fix>3d</fix>
</trkpt>
<trkpt lat="33.8107443" lon="-118.3951598">
  <ele>-25.009</ele>
  <time>2026-09-01T01:14:23Z</time>
  <course>164.82</course>
  <speed>1.0186756107809787</speed>
  <fix>3d</fix>
</trkpt>
<trkpt lat="33.8107441" lon="-118.3951615">
  <ele>-24.4</ele>
  <time>2026-09-01T01:14:23Z</time>
  <course>74.94</course>
  <speed>1.0</speed>
  <fix>3d</fix>
</trkpt>
<trkpt lat="33.8107445" lon="-118.3951588">
  <ele>-25.009</ele>
  <time>2026-09-01T01:14:23Z</time>
  <course>164.94</course>
  <speed>1.0186756107809787</speed>
  <fix>3d</fix>
</trkpt>
<trkpt lat="33.8107441" lon="-118.3951615">
  <ele>-24.4</ele>
  <time>2026-09-01T01:14:23Z</time>
  <course>74.94</course>
  <speed>1.0</speed>
  <fix>3d</fix>
</trkpt>
<trkpt lat="33.8107448" lon="-118.3951577">
  <ele>-25.01</ele>
  <time>2026-09-01T01:14:23Z</time>
  <course>165.05</course>
  <speed>1.016366075781753</speed>
  <fix>3d</fix>
</trkpt>
<trkpt lat="33.8107446" lon="-118.3951594">
  <ele>-24.4</ele>
  <time>2026-09-01T01:14:23Z</time>
  <course>75.19</course>
  <speed>1.0</speed>
  <fix>3d</fix>
</trkpt>
<trkpt lat="33.810745" lon="-118.3951567">
  <ele>-25.012</ele>
  <time>2026-09-01T01:14:23Z</time>
  <course>165.17</course>
  <speed>1.016366075781753</speed>
  <fix>3d</fix>
</trkpt>
<trkpt lat="33.8107446" lon="-118.3951594">
  <ele>-24.4</ele>
  <time>2026-09-01T01:14:23Z</time>
  <course>75.19</course>
  <speed>1.0</speed>
  <fix>3d</fix>
</trkpt>
<trkpt lat="33.8107452" lon="-118.3951556">
  <ele>-25.013</ele>
  <time>2026-09-01T01:14:23Z</time>
  <course>165.28</course>
  <speed>1.016366075781753</speed>
  <fix>3d</fix>
</trkpt>
<trkpt lat="33.8107451" lon="-118.3951573">
  <ele>-24.4</ele>
  <time>2026-09-01T01:14:23Z</time>
  <course>75.4</course>
  <speed>1.0</speed>
  <fix>3d</fix>
</trkpt>
<trkpt lat="33.8107454" lon="-118.3951546">
  <ele>-25.012</ele>
  <time>2026-09-01T01:14:23Z</time>
  <course>165.4</course>
  <speed>1.016366075781753</speed>
  <fix>3d</fix>
</trkpt>
<trkpt lat="33.8107451" lon="-118.3951573">
  <ele>-24.4</ele>
  <time>2026-09-01T01:14:23Z</time>
  <course>75.4</course>
  <speed>1.0</speed>
  <fix>3d</fix>
</trkpt>
<trkpt lat="33.8107457" lon="-118.3951535">
  <ele>-25.011</ele>
  <time>2026-09-01T01:14:23Z</time>
  <course>165.51</course>
  <speed>1.016366075781753</speed>
  <fix>3d</fix>
</trkpt>
<trkpt lat="33.8107455" lon="-118.3951552">
  <ele>-24.4</ele>
  <time>2026-09-01T01:14:23Z</time>
  <course>75.62</course>
  <speed>1.0</speed>
  <fix>3d</fix>
</trkpt>
<trkpt lat="33.8107459" lon="-118.3951525">
  <ele>-25.01</ele>
  <time>2026-09-01T01:14:23Z</time>
  <course>165.62</course>
  <speed>1.016366075781753</speed>
  <fix>3d</fix>
</trkpt>
<trkpt lat="33.8107455" lon="-118.3951552">
  <ele>-24.4</ele>
  <time>2026-09-01T01:14:23Z</time>
  <course>75.62</course>
  <speed>1.0</speed>
  <fix>3d</fix>
</trkpt>
<trkpt lat="33.8107461" lon="-118.3951514">
  <ele>-25.01</ele>
  <time>2026-09-01T01:14:23Z</time>
  <course>165.74</course>
  <speed>1.0141498903022177</speed>
  <fix>3d</fix>
</trkpt>
<trkpt lat="33.8107459" lon="-118.3951531">
  <ele>-24.4</ele>
  <time>2026-09-01T01:14:23Z</time>
  <course>75.84</course>
  <speed>1.0</speed>
  <fix>3d</fix>
</trkpt>
<trkpt lat="33.8107463" lon="-118.3951504">
  <ele>-25.01</ele>
  <time>2026-09-01T01:14:23Z</time>
  <course>165.85</course>
  <speed>1.0141498903022177</speed>
  <fix>3d</fix>
</trkpt>
<trkpt lat="33.8107459" lon="-118.3951531">
  <ele>-24.4</ele>
  <time>2026-09-01T01:14:23Z</time>
  <course>75.84</course>
  <speed>1.0</speed>
  <fix>3d</fix>
</trkpt>
<trkpt lat="33.8107465" lon="-118.3951493">
  <ele>-25.011</ele>
  <time>2026-09-01T01:14:23Z</time>
  <course>165.97</course>
  <speed>1.0141498903022177</speed>
  <fix>3d</fix>
</trkpt>
<trkpt lat="33.8107464" lon="-118.395151">
  <ele>-24.4</ele>
  <time>2026-09-01T01:14:23Z</time>
  <course>76.03</course>
  <speed>1.0</speed>
  <fix>3d</fix>
</trkpt>
<trkpt lat="33.8107467" lon="-118.3951483">
  <ele>-25.013</ele>
  <time>2026-09-01T01:14:23Z</time>
  <course>166.09</course>
  <speed>1.0141498903022177</speed>
  <fix>3d</fix>
</trkpt>
<trkpt lat="33.8107464" lon="-118.395151">
  <ele>-24.4</ele>
  <time>2026-09-01T01:14:23Z</time>
  <course>76.03</course>
  <speed>1.0</speed>
  <fix>3d</fix>
</trkpt>
<trkpt lat="33.810747" lon="-118.3951472">
  <ele>-25.014</ele>
  <time>2026-09-01T01:14:23Z</time>
  <course>166.2</course>
  <speed>1.0141498903022177</speed>
  <fix>3d</fix>
</trkpt>
<trkpt lat="33.8107468" lon="-118.3951489">
  <ele>-24.41</ele>
  <time>2026-09-01T01:14:23Z</time>
  <course>76.21</course>
  <speed>1.0</speed>
  <fix>3d</fix>
</trkpt>
<trkpt lat="33.8107472" lon="-118.3951462">
  <ele>-25.016</ele>
  <time>2026-09-01T01:14:23Z</time>
  <course>166.31</course>
  <speed>1.0141498903022177</speed>
  <fix>3d</fix>
</trkpt>
<trkpt lat="33.8107468" lon="-118.3951489">
  <ele>-24.41</ele>
  <time>2026-09-01T01:14:23Z</time>
  <course>76.21</course>
  <speed>1.0</speed>
  <fix>3d</fix>
</trkpt>
<trkpt lat="33.8107474" lon="-118.3951451">
  <ele>-25.017</ele>
  <time>2026-09-01T01:14:23Z</time>
  <course>166.42</course>
  <speed>1.0218121158021176</speed>
  <fix>3d</fix>
</trkpt>
<trkpt lat="33.8107473" lon="-118.3951468">
  <ele>-24.41</ele>
  <time>2026-09-01T01:14:23Z</time>
  <course>76.41</course>
  <speed>1.0</speed>
  <fix>3d</fix>
</trkpt>
<trkpt lat="33.8107476" lon="-118.3951441">
  <ele>-25.018</ele>
  <time>2026-09-01T01:14:23Z</time>
  <course>166.54</course>
  <speed>1.0218121158021176</speed>
  <fix>3d</fix>
</trkpt>
<trkpt lat="33.8107473" lon="-118.3951468">
  <ele>-24.41</ele>
  <time>2026-09-01T01:14:23Z</time>
  <course>76.41</course>
  <speed>1.0</speed>
  <fix>3d</fix>
</trkpt>
<trkpt lat="33.8107478" lon="-118.395143">
  <ele>-25.017</ele>
  <time>2026-09-01T01:14:23Z</time>
  <course>166.65</course>
  <speed>1.0218121158021176</speed>
  <fix>3d</fix>
</trkpt>
<trkpt lat="33.8107476" lon="-118.3951447">
  <ele>-24.41</ele>
  <time>2026-09-01T01:14:23Z</time>
  <course>76.67</course>
  <speed>1.0</speed>
  <fix>3d</fix>
</trkpt>
<trkpt lat="33.810748" lon="-118.395142">
  <ele>-25.015</ele>
  <time>2026-09-01T01:14:23Z</time>
  <course>166.77</course>
  <speed>1.0218121158021176</speed>
  <fix>3d</fix>
</trkpt>
<trkpt lat="33.8107476" lon="-118.3951447">
  <ele>-24.41</ele>
  <time>2026-09-01T01:14:23Z</time>
  <course>76.67</course>
  <speed>1.0</speed>
  <fix>3d</fix>
</trkpt>
<trkpt lat="33.8107482" lon="-118.3951409">
  <ele>-25.013</ele>
  <time>2026-09-01T01:14:23Z</time>
  <course>166.88</course>
  <speed>1.0218121158021176</speed>
  <fix>3d</fix>
</trkpt>
<trkpt lat="33.8107481" lon="-118.3951426">
  <ele>-24.41</ele>
  <time>2026-09-01T01:14:23Z</time>
  <course>76.92</course>
  <speed>1.0</speed>
  <fix>3d</fix>
</trkpt>
<trkpt lat="33.8107484" lon="-118.3951399">
  <ele>-25.011</ele>
  <time>2026-09-01T01:14:23Z</time>
  <course>167.0</course>
  <speed>1.019803902718557</speed>
  <fix>3d</fix>
</trkpt>
<trkpt lat="33.8107481" lon="-118.3951426">
  <ele>-24.41</ele>
  <time>2026-09-01T01:14:23Z</time>
  <course>76.92</course>
  <speed>1.0</speed>
  <fix>3d</fix>
</trkpt>
<trkpt lat="33.8107486" lon="-118.3951388">
  <ele>-25.01</ele>
  <time>2026-09-01T01:14:23Z</time>
  <course>167.11</course>
  <speed>1.019803902718557</speed>
  <fix>3d</fix>
</trkpt>
<trkpt lat="33.8107485" lon="-118.3951405">
  <ele>-24.41</ele>
  <time>2026-09-01T01:14:23Z</time>
  <course>77.13</course>
  <speed>1.0</speed>
  <fix>3d</fix>
</trkpt>
<trkpt lat="33.8107488" lon="-118.3951378">
  <ele>-25.01</ele>
  <time>2026-09-01T01:14:23Z</time>
  <course>167.23</course>
  <speed>1.019803902718557</speed>
  <fix>3d</fix>
</trkpt>
<trkpt lat="33.8107485" lon="-118.3951405">
  <ele>-24.41</ele>
  <time>2026-09-01T01:14:23Z</time>
  <course>77.13</course>
  <speed>1.0</speed>
  <fix>3d</fix>
</trkpt>
<trkpt lat="33.810749" lon="-118.3951367">
  <ele>-25.012</ele>
  <time>2026-09-01T01:14:23Z</time>
  <course>167.34</course>
  <speed>1.019803902718557</speed>
  <fix>3d</fix>
</trkpt>
<trkpt lat="33.8107488" lon="-118.3951383">
  <ele>-24.41</ele>
  <time>2026-09-01T01:14:23Z</time>
  <course>77.38</course>
  <speed>1.0</speed>
  <fix>3d</fix>
</trkpt>
<trkpt lat="33.8107492" lon="-118.3951356">
  <ele>-25.014</ele>
  <time>2026-09-01T01:14:23Z</time>
  <course>167.46</course>
  <speed>1.019803902718557</speed>
  <fix>3d</fix>
</trkpt>
<trkpt lat="33.8107488" lon="-118.3951383">
  <ele>-24.41</ele>
  <time>2026-09-01T01:14:23Z</time>
  <course>77.38</course>
  <speed>1.0</speed>
  <fix>3d</fix>
</trkpt>
<trkpt lat="33.8107494" lon="-118.3951346">
  <ele>-25.016</ele>
  <time>2026-09-01T01:14:23Z</time>
  <course>167.57</course>
  <speed>1.0178899744078433</speed>
  <fix>3d</fix>
</trkpt>
<trkpt lat="33.8107493" lon="-118.3951362">
  <ele>-24.41</ele>
  <time>2026-09-01T01:14:23Z</time>
  <course>77.58</course>
  <speed>1.0</speed>
  <fix>3d</fix>
</trkpt>
<trkpt lat="33.8107495" lon="-118.3951335">
  <ele>-25.018</ele>
  <time>2026-09-01T01:14:23Z</time>
  <course>167.69</course>
  <speed>1.0178899744078433</speed>
  <fix>3d</fix>
</trkpt>
<trkpt lat="33.8107493" lon="-118.3951362">
  <ele>-24.41</ele>
  <time>2026-09-01T01:14:23Z</time>
  <course>77.58</course>
  <speed>1.0</speed>
  <fix>3d</fix>
</trkpt>
<trkpt lat="33.8107497" lon="-118.3951325">
  <ele>-25.019</ele>
  <time>2026-09-01T01:14:23Z</time>
  <course>167.8</course>
  <speed>1.0178899744078433</speed>
  <fix>3d</fix>
</trkpt>
<trkpt lat="33.8107497" lon="-118.3951341">
  <ele>-24.41</ele>
  <time>2026-09-01T01:14:23Z</time>
  <course>77.79</course>
  <speed>1.0</speed>
  <fix>3d</fix>
</trkpt>
<trkpt lat="33.8107499" lon="-118.3951314">
  <ele>-25.018</ele>
  <time>2026-09-01T01:14:23Z</time>
  <course>167.92</course>
  <speed>1.0178899744078433</speed>
  <fix>3d</fix>
</trkpt>
<trkpt lat="33.8107497" lon="-118.3951341">
  <ele>-24.41</ele>
  <time>2026-09-01T01:14:23Z</time>
  <course>77.79</course>
  <speed>1.0</speed>
  <fix>3d</fix>
</trkpt>
<trkpt lat="33.8107501" lon="-118.3951303">
  <ele>-25.017</ele>
  <time>2026-09-01T01:14:23Z</time>
  <course>168.03</course>
  <speed>1.016070863670443</speed>
  <fix>3d</fix>
</trkpt>
<trkpt lat="33.81075" lon="-118.3951319">
  <ele>-24.41</ele>
  <time>2026-09-01T01:14:23Z</time>
  <course>78.05</course>
  <speed>1.0</speed>
  <fix>3d</fix>
</trkpt>
<trkpt lat="33.8107503" lon="-118.3951293">
  <ele>-25.016</ele>
  <time>2026-09-01T01:14:23Z</time>
  <course>168.14</course>
  <speed>1.016070863670443</speed>
  <fix>3d</fix>
</trkpt>
<trkpt lat="33.81075" lon="-118.3951319">
  <ele>-24.41</ele>
  <time>2026-09-01T01:14:23Z</time>
  <course>78.05</course>
  <speed>1.0</speed>
  <fix>3d</fix>
</trkpt>
<trkpt lat="33.8107505" lon="-118.3951282">
  <ele>-25.015</ele>
  <time>2026-09-01T01:14:23Z</time>
  <course>168.26</course>
  <speed>1.016070863670443</speed>
  <fix>3d</fix>
</trkpt>
<trkpt lat="33.8107504" lon="-118.3951298">
  <ele>-24.41</ele>
  <time>2026-09-01T01:14:23Z</time>
  <course>78.29</course>
  <speed>1.0</speed>
  <fix>3d</fix>
</trkpt>
<trkpt lat="33.8107507" lon="-118.3951271">
  <ele>-25.013</ele>
  <time>2026-09-01T01:14:23Z</time>
  <course>168.38</course>
  <speed>1.016070863670443</speed>
  <fix>3d</fix>
</trkpt>
<trkpt lat="33.8107504" lon="-118.3951298">
  <ele>-24.41</ele>
  <time>2026-09-01T01:14:23Z</time>
  <course>78.29</course>
  <speed>1.0</speed>
  <fix>3d</fix>
</trkpt>
<trkpt lat="33.8107508" lon="-118.3951261">
  <ele>-25.011</ele>
  <time>2026-09-01T01:14:23Z</time>
  <course>168.49</course>
  <speed>1.016070863670443</speed>
  <fix>3d</fix>
</trkpt>
<trkpt lat="33.8107507" lon="-118.3951277">
  <ele>-24.4</ele>
  <time>2026-09-01T01:14:23Z</time>
  <course>78.49</course>
  <speed>1.0</speed>
  <fix>3d</fix>
</trkpt>
<trkpt lat="33.810751" lon="-118.395125">
  <ele>-25.009</ele>
  <time>2026-09-01T01:14:23Z</time>
  <course>168.61</course>
  <speed>1.016070863670443</speed>
  <fix>3d</fix>
</trkpt>
<trkpt lat="33.8107507" lon="-118.3951277">
  <ele>-24.4</ele>
  <time>2026-09-01T01:14:23Z</time>
  <course>78.49</course>
  <speed>1.0</speed>
  <fix>3d</fix>
</trkpt>
<trkpt lat="33.8107512" lon="-118.395124">
  <ele>-25.007</ele>
  <time>2026-09-01T01:14:23Z</time>
  <course>168.72</course>
  <speed>1.014347080638575</speed>
  <fix>3d</fix>
</trkpt>
<trkpt lat="33.8107511" lon="-118.3951256">
  <ele>-24.4</ele>
  <time>2026-09-01T01:14:23Z</time>
  <course>78.68</course>
  <speed>1.0</speed>
  <fix>3d</fix>
</trkpt>
<trkpt lat="33.8107513" lon="-118.3951229">
  <ele>-25.006</ele>
  <time>2026-09-01T01:14:23Z</time>
  <course>168.84</course>
  <speed>1.014347080638575</speed>
  <fix>3d</fix>
</trkpt>
<trkpt lat="33.8107511" lon="-118.3951256">
  <ele>-24.4</ele>
  <time>2026-09-01T01:14:23Z</time>
  <course>78.68</course>
  <speed>1.0</speed>
  <fix>3d</fix>
</trkpt>
<trkpt lat="33.8107515" lon="-118.3951218">
  <ele>-25.007</ele>
  <time>2026-09-01T01:14:23Z</time>
  <course>168.95</course>
  <speed>1.014347080638575</speed>
  <fix>3d</fix>
</trkpt>
<trkpt lat="33.8107514" lon="-118.3951234">
  <ele>-24.4</ele>
  <time>2026-09-01T01:14:23Z</time>
  <course>78.86</course>
  <speed>1.0</speed>
  <fix>3d</fix>
</trkpt>
<trkpt lat="33.8107517" lon="-118.3951208">
  <ele>-25.009</ele>
  <time>2026-09-01T01:14:23Z</time>
  <course>169.06</course>
  <speed>1.014347080638575</speed>
  <fix>3d</fix>
</trkpt>
<trkpt lat="33.8107514" lon="-118.3951234">
  <ele>-24.4</ele>
  <time>2026-09-01T01:14:23Z</time>
  <course>78.86</course>
  <speed>1.0</speed>
  <fix>3d</fix>
</trkpt>
<trkpt lat="33.8107518" lon="-118.3951197">
  <ele>-25.011</ele>
  <time>2026-09-01T01:14:23Z</time>
  <course>169.18</course>
  <speed>1.014347080638575</speed>
  <fix>3d</fix>
</trkpt>
<trkpt lat="33.8107518" lon="-118.3951213">
  <ele>-24.4</ele>
  <time>2026-09-01T01:14:23Z</time>
  <course>79.04</course>
  <speed>1.0</speed>
  <fix>3d</fix>
</trkpt>
<trkpt lat="33.810752" lon="-118.3951186">
  <ele>-25.014</ele>
  <time>2026-09-01T01:14:23Z</time>
  <course>169.29</course>
  <speed>1.012719112093773</speed>
  <fix>3d</fix>
</trkpt>
<trkpt lat="33.8107518" lon="-118.3951213">
  <ele>-24.4</ele>
  <time>2026-09-01T01:14:23Z</time>
  <course>79.04</course>
  <speed>1.0</speed>
  <fix>3d</fix>
</trkpt>
<trkpt lat="33.8107522" lon="-118.3951176">
  <ele>-25.015</ele>
  <time>2026-09-01T01:14:23Z</time>
  <course>169.41</course>
  <speed>1.012719112093773</speed>
  <fix>3d</fix>
</trkpt>
<trkpt lat="33.8107521" lon="-118.3951191">
  <ele>-24.41</ele>
  <time>2026-09-01T01:14:23Z</time>
  <course>79.22</course>
  <speed>1.0</speed>
  <fix>3d</fix>
</trkpt>
<trkpt lat="33.8107523" lon="-118.3951165">
  <ele>-25.017</ele>
  <time>2026-09-01T01:14:23Z</time>
  <course>169.52</course>
  <speed>1.012719112093773</speed>
  <fix>3d</fix>
</trkpt>
<trkpt lat="33.8107521" lon="-118.3951191">
  <ele>-24.41</ele>
  <time>2026-09-01T01:14:23Z</time>
  <course>79.22</course>
  <speed>1.0</speed>
  <fix>3d</fix>
</trkpt>
<trkpt lat="33.8107525" lon="-118.3951154">
  <ele>-25.019</ele>
  <time>2026-09-01T01:14:23Z</time>
  <course>169.64</course>
  <speed>1.012719112093773</speed>
  <fix>3d</fix>
</trkpt>
<trkpt lat="33.8107525" lon="-118.395117">
  <ele>-24.41</ele>
  <time>2026-09-01T01:14:23Z</time>
  <course>79.43</course>
  <speed>1.0</speed>
  <fix>3d</fix>
</trkpt>
<trkpt lat="33.8107527" lon="-118.3951144">
  <ele>-25.021</ele>
  <time>2026-09-01T01:14:23Z</time>
  <course>169.75</course>
  <speed>1.0111874208078342</speed>
  <fix>3d</fix>
</trkpt>
<trkpt lat="33.8107525" lon="-118.395117">
  <ele>-24.41</ele>
  <time>2026-09-01T01:14:23Z</time>
  <course>79.43</course>
  <speed>1.0</speed>
  <fix>3d</fix>
</trkpt>
<trkpt lat="33.8107528" lon="-118.3951133">
  <ele>-25.023</ele>
  <time>2026-09-01T01:14:23Z</time>
  <course>169.87</course>
  <speed>1.0111874208078342</speed>
  <fix>3d</fix>
</trkpt>
<trkpt lat="33.8107528" lon="-118.3951149">
  <ele>-24.42</ele>
  <time>2026-09-01T01:14:23Z</time>
  <course>79.67</course>
  <speed>1.0</speed>
  <fix>3d</fix>
</trkpt>
<trkpt lat="33.810753" lon="-118.3951122">
  <ele>-25.024</ele>
  <time>2026-09-01T01:14:23Z</time>
  <course>169.98</course>
  <speed>1.0111874208078342</speed>
  <fix>3d</fix>
</trkpt>
<trkpt lat="33.8107528" lon="-118.3951149">
  <ele>-24.42</ele>
  <time>2026-09-01T01:14:23Z</time>
  <course>79.67</course>
  <speed>1.0</speed>
  <fix>3d</fix>
</trkpt>
<trkpt lat="33.8107531" lon="-118.3951112">
  <ele>-25.023</ele>
  <time>2026-09-01T01:14:23Z</time>
  <course>170.09</course>
  <speed>1.0111874208078342</speed>
  <fix>3d</fix>
</trkpt>
<trkpt lat="33.8107531" lon="-118.3951128">
  <ele>-24.41</ele>
  <time>2026-09-01T01:14:23Z</time>
  <course>79.95</course>
  <speed>1.0</speed>
  <fix>3d</fix>
</trkpt>
<trkpt lat="33.8107533" lon="-118.3951101">
  <ele>-25.021</ele>
  <time>2026-09-01T01:14:23Z</time>
  <course>170.21</course>
  <speed>1.0111874208078342</speed>
  <fix>3d</fix>
</trkpt>
<trkpt lat="33.8107531" lon="-118.3951128">
  <ele>-24.41</ele>
  <time>2026-09-01T01:14:23Z</time>
  <course>79.95</course>
  <speed>1.0</speed>
  <fix>3d</fix>
</trkpt>
<trkpt lat="33.8107534" lon="-118.395109">
  <ele>-25.017</ele>
  <time>2026-09-01T01:14:23Z</time>
  <course>170.32</course>
  <speed>1.009752444909147</speed>
  <fix>3d</fix>
</trkpt>
<trkpt lat="33.8107534" lon="-118.3951106">
  <ele>-24.41</ele>
  <time>2026-09-01T01:14:23Z</time>
  <course>80.23</course>
  <speed>1.0</speed>
  <fix>3d</fix>
</trkpt>
<trkpt lat="33.8107536" lon="-118.395108">
  <ele>-25.013</ele>
  <time>2026-09-01T01:14:23Z</time>
  <course>170.44</course>
  <speed>1.009752444909147</speed>
  <fix>3d</fix>
</trkpt>
<trkpt lat="33.8107534" lon="-118.3951106">
  <ele>-24.41</ele>
  <time>2026-09-01T01:14:23Z</time>
  <course>80.23</course>
  <speed>1.0</speed>
  <fix>3d</fix>
</trkpt>
<trkpt lat="33.8107537" lon="-118.3951069">
  <ele>-25.01</ele>
  <time>2026-09-01T01:14:23Z</time>
  <course>170.55</course>
  <speed>1.009752444909147</speed>
  <fix>3d</fix>
</trkpt>
<trkpt lat="33.8107537" lon="-118.3951085">
  <ele>-24.4</ele>
  <time>2026-09-01T01:14:23Z</time>
  <course>80.48</course>
  <speed>1.0</speed>
  <fix>3d</fix>
</trkpt>
<trkpt lat="33.8107539" lon="-118.3951058">
  <ele>-25.008</ele>
  <time>2026-09-01T01:14:23Z</time>
  <course>170.67</course>
  <speed>1.009752444909147</speed>
  <fix>3d</fix>
</trkpt>
<trkpt lat="33.8107537" lon="-118.3951085">
  <ele>-24.4</ele>
  <time>2026-09-01T01:14:23Z</time>
  <course>80.48</course>
  <speed>1.0</speed>
  <fix>3d</fix>
</trkpt>
<trkpt lat="33.810754" lon="-118.3951048">
  <ele>-25.006</ele>
  <time>2026-09-01T01:14:23Z</time>
  <course>170.78</course>
  <speed>1.009752444909147</speed>
  <fix>3d</fix>
</trkpt>
<trkpt lat="33.810754" lon="-118.3951064">
  <ele>-24.4</ele>
  <time>2026-09-01T01:14:23Z</time>
  <course>80.71</course>
  <speed>0.99</speed>
  <fix>3d</fix>
</trkpt>
<trkpt lat="33.8107541" lon="-118.3951037">
  <ele>-25.006</ele>
  <time>2026-09-01T01:14:23Z</time>
  <course>170.9</course>
  <speed>1.0084145972763385</speed>
  <fix>3d</fix>
</trkpt>
<trkpt lat="33.810754" lon="-118.3951064">
  <ele>-24.4</ele>
  <time>2026-09-01T01:14:23Z</time>
  <course>80.71</course>
  <speed>0.99</speed>
  <fix>3d</fix>
</trkpt>
<trkpt lat="33.8107543" lon="-118.3951026">
  <ele>-25.007</ele>
  <time>2026-09-01T01:14:23Z</time>
  <course>171.01</course>
  <speed>1.0084145972763385</speed>
  <fix>3d</fix>
</trkpt>
<trkpt lat="33.8107543" lon="-118.3951042">
  <ele>-24.4</ele>
  <time>2026-09-01T01:14:23Z</time>
  <course>80.95</course>
  <speed>0.99</speed>
  <fix>3d</fix>
</trkpt>
<trkpt lat="33.8107544" lon="-118.3951015">
  <ele>-25.008</ele>
  <time>2026-09-01T01:14:23Z</time>
  <course>171.13</course>
  <speed>1.0183319694480775</speed>
  <fix>3d</fix>
</trkpt>
<trkpt lat="33.8107543" lon="-118.3951042">
  <ele>-24.4</ele>
  <time>2026-09-01T01:14:23Z</time>
  <course>80.95</course>
  <speed>0.99</speed>
  <fix>3d</fix>
</trkpt>
<trkpt lat="33.8107546" lon="-118.3951005">
  <ele>-25.009</ele>
  <time>2026-09-01T01:14:23Z</time>
  <course>171.24</course>
  <speed>1.0183319694480775</speed>
  <fix>3d</fix>
</trkpt>
<trkpt lat="33.8107546" lon="-118.3951021">
  <ele>-24.4</ele>
  <time>2026-09-01T01:14:23Z</time>
  <course>81.2</course>
  <speed>0.99</speed>
  <fix>3d</fix>
</trkpt>
<trkpt lat="33.8107547" lon="-118.3950994">
  <ele>-25.011</ele>
  <time>2026-09-01T01:14:23Z</time>
  <course>171.35</course>
  <speed>1.0171037311896953</speed>
  <fix>3d</fix>
</trkpt>
<trkpt lat="33.8107546" lon="-118.3951021">
  <ele>-24.4</ele>
  <time>2026-09-01T01:14:23Z</time>
  <course>81.2</course>
  <speed>0.99</speed>
  <fix>3d</fix>
</trkpt>
<trkpt lat="33.8107548" lon="-118.3950983">
  <ele>-25.014</ele>
  <time>2026-09-01T01:14:23Z</time>
  <course>171.47</course>
  <speed>1.0171037311896953</speed>
  <fix>3d</fix>
</trkpt>
<trkpt lat="33.8107549" lon="-118.3950999">
  <ele>-24.41</ele>
  <time>2026-09-01T01:14:23Z</time>
  <course>81.48</course>
  <speed>1.0</speed>
  <fix>3d</fix>
</trkpt>
<trkpt lat="33.810755" lon="-118.3950973">
  <ele>-25.016</ele>
  <time>2026-09-01T01:14:23Z</time>
  <course>171.58</course>
  <speed>1.0171037311896953</speed>
  <fix>3d</fix>
</trkpt>
<trkpt lat="33.8107549" lon="-118.3950999">
  <ele>-24.41</ele>
  <time>2026-09-01T01:14:23Z</time>
  <course>81.48</course>
  <speed>1.0</speed>
  <fix>3d</fix>
</trkpt>
<trkpt lat="33.8107551" lon="-118.3950962">
  <ele>-25.017</ele>
  <time>2026-09-01T01:14:23Z</time>
  <course>171.7</course>
  <speed>1.0171037311896953</speed>
  <fix>3d</fix>
</trkpt>
<trkpt lat="33.8107552" lon="-118.3950978">
  <ele>-24.41</ele>
  <time>2026-09-01T01:14:23Z</time>
  <course>81.77</course>
  <speed>1.0</speed>
  <fix>3d</fix>
</trkpt>
<trkpt lat="33.8107552" lon="-118.3950951">
  <ele>-25.017</ele>
  <time>2026-09-01T01:14:23Z</time>
  <course>171.81</course>
  <speed>1.0159724405711013</speed>
  <fix>3d</fix>
</trkpt>
<trkpt lat="33.8107552" lon="-118.3950978">
  <ele>-24.41</ele>
  <time>2026-09-01T01:14:23Z</time>
  <course>81.77</course>
  <speed>1.0</speed>
  <fix>3d</fix>
</trkpt>
<trkpt lat="33.8107553" lon="-118.395094">
  <ele>-25.016</ele>
  <time>2026-09-01T01:14:23Z</time>
  <course>171.93</course>
  <speed>1.0159724405711013</speed>
  <fix>3d</fix>
</trkpt>
<trkpt lat="33.8107554" lon="-118.3950957">
  <ele>-24.41</ele>
  <time>2026-09-01T01:14:23Z</time>
  <course>82.09</course>
  <speed>0.99</speed>
  <fix>3d</fix>
</trkpt>
<trkpt lat="33.8107555" lon="-118.395093">
  <ele>-25.015</ele>
  <time>2026-09-01T01:14:23Z</time>
  <course>172.04</course>
  <speed>1.0159724405711013</speed>
  <fix>3d</fix>
</trkpt>
<trkpt lat="33.8107554" lon="-118.3950957">
  <ele>-24.41</ele>
  <time>2026-09-01T01:14:23Z</time>
  <course>82.09</course>
  <speed>0.99</speed>
  <fix>3d</fix>
</trkpt>
<trkpt lat="33.8107556" lon="-118.3950919">
  <ele>-25.013</ele>
  <time>2026-09-01T01:14:23Z</time>
  <course>172.16</course>
  <speed>1.0159724405711013</speed>
  <fix>3d</fix>
</trkpt>
<trkpt lat="33.8107557" lon="-118.3950936">
  <ele>-24.41</ele>
  <time>2026-09-01T01:14:23Z</time>
  <course>82.41</course>
  <speed>0.99</speed>
  <fix>3d</fix>
</trkpt>
<trkpt lat="33.8107557" lon="-118.3950908">
  <ele>-25.013</ele>
  <time>2026-09-01T01:14:23Z</time>
  <course>172.27</course>
  <speed>1.0149384217774002</speed>
  <fix>3d</fix>
</trkpt>
<trkpt lat="33.8107557" lon="-118.3950936">
  <ele>-24.41</ele>
  <time>2026-09-01T01:14:23Z</time>
  <course>82.41</course>
  <speed>0.99</speed>
  <fix>3d</fix>
</trkpt>
<trkpt lat="33.8107558" lon="-118.3950898">
  <ele>-25.012</ele>
  <time>2026-09-01T01:14:23Z</time>
  <course>172.38</course>
  <speed>1.0149384217774002</speed>
  <fix>3d</fix>
</trkpt>
<trkpt lat="33.8107558" lon="-118.3950914">
  <ele>-24.41</ele>
  <time>2026-09-01T01:14:23Z</time>
  <course>82.71</course>
  <speed>0.99</speed>
  <fix>3d</fix>
</trkpt>
<trkpt lat="33.8107559" lon="-118.3950887">
  <ele>-25.013</ele>
  <time>2026-09-01T01:14:23Z</time>
  <course>172.5</course>
  <speed>1.0149384217774002</speed>
  <fix>3d</fix>
</trkpt>
<trkpt lat="33.8107558" lon="-118.3950914">
  <ele>-24.41</ele>
  <time>2026-09-01T01:14:23Z</time>
  <course>82.71</course>
  <speed>0.99</speed>
  <fix>3d</fix>
</trkpt>
<trkpt lat="33.810756" lon="-118.3950876">
  <ele>-25.014</ele>
  <time>2026-09-01T01:14:23Z</time>
  <course>172.61</course>
  <speed>1.0149384217774002</speed>
  <fix>3d</fix>
</trkpt>
<trkpt lat="33.8107561" lon="-118.3950893">
  <ele>-24.41</ele>
  <time>2026-09-01T01:14:23Z</time>
  <course>82.94</course>
  <speed>1.0</speed>
  <fix>3d</fix>
</trkpt>
<trkpt lat="33.8107561" lon="-118.3950865">
  <ele>-25.013</ele>
  <time>2026-09-01T01:14:23Z</time>
  <course>172.73</course>
  <speed>1.0149384217774002</speed>
  <fix>3d</fix>
</trkpt>
<trkpt lat="33.8107561" lon="-118.3950893">
  <ele>-24.41</ele>
  <time>2026-09-01T01:14:23Z</time>
  <course>82.94</course>
  <speed>1.0</speed>
  <fix>3d</fix>
</trkpt>
<trkpt lat="33.8107563" lon="-118.3950855">
  <ele>-25.013</ele>
  <time>2026-09-01T01:14:23Z</time>
  <course>172.85</course>
  <speed>1.0149384217774002</speed>
  <fix>3d</fix>
</trkpt>
<trkpt lat="33.8107563" lon="-118.3950871">
  <ele>-24.41</ele>
  <time>2026-09-01T01:14:23Z</time>
  <course>83.11</course>
  <speed>1.0</speed>
  <fix>3d</fix>
</trkpt>
<trkpt lat="33.8107564" lon="-118.3950844">
  <ele>-25.012</ele>
  <time>2026-09-01T01:14:23Z</time>
  <course>172.96</course>
  <speed>1.0140019723846694</speed>
  <fix>3d</fix>
</trkpt>
<trkpt lat="33.8107563" lon="-118.3950871">
  <ele>-24.41</ele>
  <time>2026-09-01T01:14:23Z</time>
  <course>83.11</course>
  <speed>1.0</speed>
  <fix>3d</fix>
</trkpt>
<trkpt lat="33.8107565" lon="-118.3950833">
  <ele>-25.011</ele>
  <time>2026-09-01T01:14:23Z</time>
  <course>173.07</course>
  <speed>1.0140019723846694</speed>
  <fix>3d</fix>
</trkpt>
<trkpt lat="33.8107566" lon="-118.395085">
  <ele>-24.41</ele>
  <time>2026-09-01T01:14:23Z</time>
  <course>83.28</course>
  <speed>1.0</speed>
  <fix>3d</fix>
</trkpt>
<trkpt lat="33.8107566" lon="-118.3950822">
  <ele>-25.011</ele>
  <time>2026-09-01T01:14:23Z</time>
  <course>173.19</course>
  <speed>1.0140019723846694</speed>
  <fix>3d</fix>
</trkpt>
<trkpt lat="33.8107566" lon="-118.395085">
  <ele>-24.41</ele>
  <time>2026-09-01T01:14:23Z</time>
  <course>83.28</course>
  <speed>1.0</speed>
  <fix>3d</fix>
</trkpt>
<trkpt lat="33.8107567" lon="-118.3950812">
  <ele>-25.011</ele>
  <time>2026-09-01T01:14:23Z</time>
  <course>173.3</course>
  <speed>1.0140019723846694</speed>
  <fix>3d</fix>
</trkpt>
<trkpt lat="33.8107568" lon="-118.3950828">
  <ele>-24.41</ele>
  <time>2026-09-01T01:14:23Z</time>
  <course>83.5</course>
  <speed>1.0</speed>
  <fix>3d</fix>
</trkpt>
<trkpt lat="33.8107568" lon="-118.3950801">
  <ele>-25.012</ele>
  <time>2026-09-01T01:14:23Z</time>
  <course>173.42</course>
  <speed>1.0140019723846694</speed>
  <fix>3d</fix>
</trkpt>
<trkpt lat="33.8107568" lon="-118.3950828">
  <ele>-24.41</ele>
  <time>2026-09-01T01:14:23Z</time>
  <course>83.5</course>
  <speed>1.0</speed>
  <fix>3d</fix>
</trkpt>
<trkpt lat="33.8107569" lon="-118.395079">
  <ele>-25.014</ele>
  <time>2026-09-01T01:14:23Z</time>
  <course>173.53</course>
  <speed>1.0131633629380803</speed>
  <fix>3d</fix>
</trkpt>
<trkpt lat="33.8107569" lon="-118.3950807">
  <ele>-24.41</ele>
  <time>2026-09-01T01:14:23Z</time>
  <course>83.78</course>
  <speed>1.0</speed>
  <fix>3d</fix>
</trkpt>
<trkpt lat="33.810757" lon="-118.3950779">
  <ele>-25.016</ele>
  <time>2026-09-01T01:14:23Z</time>
  <course>173.65</course>
  <speed>1.0131633629380803</speed>
  <fix>3d</fix>
</trkpt>
<trkpt lat="33.8107569" lon="-118.3950807">
  <ele>-24.41</ele>
  <time>2026-09-01T01:14:23Z</time>
  <course>83.78</course>
  <speed>1.0</speed>
  <fix>3d</fix>
</trkpt>
<trkpt lat="33.8107571" lon="-118.3950769">
  <ele>-25.017</ele>
  <time>2026-09-01T01:14:23Z</time>
  <course>173.76</course>
  <speed>1.0131633629380803</speed>
  <fix>3d</fix>
</trkpt>
<trkpt lat="33.8107572" lon="-118.3950785">
  <ele>-24.41</ele>
  <time>2026-09-01T01:14:23Z</time>
  <course>84.03</course>
  <speed>1.0</speed>
  <fix>3d</fix>
</trkpt>
<trkpt lat="33.8107572" lon="-118.3950758">
  <ele>-25.018</ele>
  <time>2026-09-01T01:14:23Z</time>
  <course>173.88</course>
  <speed>1.0131633629380803</speed>
  <fix>3d</fix>
</trkpt>
<trkpt lat="33.8107572" lon="-118.3950785">
  <ele>-24.41</ele>
  <time>2026-09-01T01:14:23Z</time>
  <course>84.03</course>
  <speed>1.0</speed>
  <fix>3d</fix>
</trkpt>
<trkpt lat="33.8107573" lon="-118.3950747">
  <ele>-25.019</ele>
  <time>2026-09-01T01:14:23Z</time>
  <course>173.99</course>
  <speed>1.0131633629380803</speed>
  <fix>3d</fix>
</trkpt>
<trkpt lat="33.8107573" lon="-118.3950764">
  <ele>-24.42</ele>
  <time>2026-09-01T01:14:23Z</time>
  <course>84.26</course>
  <speed>1.0</speed>
  <fix>3d</fix>
</trkpt>
<trkpt lat="33.8107573" lon="-118.3950736">
  <ele>-25.019</ele>
  <time>2026-09-01T01:14:23Z</time>
  <course>174.11</course>
  <speed>1.0124228365658294</speed>
  <fix>3d</fix>
</trkpt>
<trkpt lat="33.8107573" lon="-118.3950764">
  <ele>-24.42</ele>
  <time>2026-09-01T01:14:23Z</time>
  <course>84.26</course>
  <speed>1.0</speed>
  <fix>3d</fix>
</trkpt>
<trkpt lat="33.8107574" lon="-118.3950726">
  <ele>-25.018</ele>
  <time>2026-09-01T01:14:23Z</time>
  <course>174.22</course>
  <speed>1.0124228365658294</speed>
  <fix>3d</fix>
</trkpt>
<trkpt lat="33.8107574" lon="-118.3950742">
  <ele>-24.41</ele>
  <time>2026-09-01T01:14:23Z</time>
  <course>84.47</course>
  <speed>1.0</speed>
  <fix>3d</fix>
</trkpt>
<trkpt lat="33.8107575" lon="-118.3950715">
  <ele>-25.017</ele>
  <time>2026-09-01T01:14:23Z</time>
  <course>174.33</course>
  <speed>1.0124228365658294</speed>
  <fix>3d</fix>
</trkpt>
<trkpt lat="33.8107574" lon="-118.3950742">
  <ele>-24.41</ele>
  <time>2026-09-01T01:14:23Z</time>
  <course>84.47</course>
  <speed>1.0</speed>
  <fix>3d</fix>
</trkpt>
<trkpt lat="33.8107576" lon="-118.3950704">
  <ele>-25.015</ele>
  <time>2026-09-01T01:14:23Z</time>
  <course>174.43</course>
  <speed>1.0124228365658294</speed>
  <fix>3d</fix>
</trkpt>
<trkpt lat="33.8107576" lon="-118.3950721">
  <ele>-24.41</ele>
  <time>2026-09-01T01:14:23Z</time>
  <course>84.61</course>
  <speed>1.0</speed>
  <fix>3d</fix>
</trkpt>
<trkpt lat="33.8107577" lon="-118.3950693">
  <ele>-25.014</ele>
  <time>2026-09-01T01:14:23Z</time>
  <course>174.56</course>
  <speed>1.0124228365658294</speed>
  <fix>3d</fix>
</trkpt>
<trkpt lat="33.8107576" lon="-118.3950721">
  <ele>-24.41</ele>
  <time>2026-09-01T01:14:23Z</time>
  <course>84.61</course>
  <speed>1.0</speed>
  <fix>3d</fix>
</trkpt>
<trkpt lat="33.8107577" lon="-118.3950683">
  <ele>-25.013</ele>
  <time>2026-09-01T01:14:23Z</time>
  <course>174.68</course>
  <speed>1.0124228365658294</speed>
  <fix>3d</fix>
</trkpt>
<trkpt lat="33.8107578" lon="-118.3950699">
  <ele>-24.41</ele>
  <time>2026-09-01T01:14:23Z</time>
  <course>84.7</course>
  <speed>1.0</speed>
  <fix>3d</fix>
</trkpt>
<trkpt lat="33.8107578" lon="-118.3950672">
  <ele>-25.012</ele>
  <time>2026-09-01T01:14:23Z</time>
  <course>174.8</course>
  <speed>1.0124228365658294</speed>
  <fix>3d</fix>
</trkpt>
<trkpt lat="33.8107578" lon="-118.3950699">
  <ele>-24.41</ele>
  <time>2026-09-01T01:14:23Z</time>
  <course>84.7</course>
  <speed>1.0</speed>
  <fix>3d</fix>
</trkpt>
<trkpt lat="33.8107579" lon="-118.3950661">
  <ele>-25.011</ele>
  <time>2026-09-01T01:14:23Z</time>
  <course>174.91</course>
  <speed>1.0124228365658294</speed>
  <fix>3d</fix>
</trkpt>
<trkpt lat="33.810758" lon="-118.3950678">
  <ele>-24.41</ele>
  <time>2026-09-01T01:14:23Z</time>
  <course>84.83</course>
  <speed>1.0</speed>
  <fix>3d</fix>
</trkpt>
<trkpt lat="33.810758" lon="-118.395065">
  <ele>-25.01</ele>
  <time>2026-09-01T01:14:23Z</time>
  <course>175.02</course>
  <speed>1.0117806086301515</speed>
  <fix>3d</fix>
</trkpt>
<trkpt lat="33.810758" lon="-118.3950678">
  <ele>-24.41</ele>
  <time>2026-09-01T01:14:23Z</time>
  <course>84.83</course>
  <speed>1.0</speed>
  <fix>3d</fix>
</trkpt>
<trkpt lat="33.8107581" lon="-118.3950639">
  <ele>-25.011</ele>
  <time>2026-09-01T01:14:23Z</time>
  <course>175.14</course>
  <speed>1.0117806086301515</speed>
  <fix>3d</fix>
</trkpt>
<trkpt lat="33.8107581" lon="-118.3950656">
  <ele>-24.41</ele>
  <time>2026-09-01T01:14:23Z</time>
  <course>85.03</course>
  <speed>1.0</speed>
  <fix>3d</fix>
</trkpt>
<trkpt lat="33.8107581" lon="-118.3950629">
  <ele>-25.013</ele>
  <time>2026-09-01T01:14:23Z</time>
  <course>175.25</course>
  <speed>1.0117806086301515</speed>
  <fix>3d</fix>
</trkpt>
<trkpt lat="33.8107581" lon="-118.3950656">
  <ele>-24.41</ele>
  <time>2026-09-01T01:14:23Z</time>
  <course>85.03</course>
  <speed>1.0</speed>
  <fix>3d</fix>
</trkpt>
<trkpt lat="33.8107582" lon="-118.3950618">
  <ele>-25.015</ele>
  <time>2026-09-01T01:14:23Z</time>
  <course>175.37</course>
  <speed>1.0117806086301515</speed>
  <fix>3d</fix>
</trkpt>
<trkpt lat="33.8107583" lon="-118.3950635">
  <ele>-24.41</ele>
  <time>2026-09-01T01:14:23Z</time>
  <course>85.26</course>
  <speed>1.0</speed>
  <fix>3d</fix>
</trkpt>
<trkpt lat="33.8107583" lon="-118.3950607">
  <ele>-25.017</ele>
  <time>2026-09-01T01:14:23Z</time>
  <course>175.48</course>
  <speed>1.011236866416568</speed>
  <fix>3d</fix>
</trkpt>
<trkpt lat="33.8107583" lon="-118.3950635">
  <ele>-24.41</ele>
  <time>2026-09-01T01:14:23Z</time>
  <course>85.26</course>
  <speed>1.0</speed>
  <fix>3d</fix>
</trkpt>
<trkpt lat="33.8107583" lon="-118.3950596">
  <ele>-25.018</ele>
  <time>2026-09-01T01:14:23Z</time>
  <course>175.6</course>
  <speed>1.011236866416568</speed>
  <fix>3d</fix>
</trkpt>
<trkpt lat="33.8107584" lon="-118.3950613">
  <ele>-24.41</ele>
  <time>2026-09-01T01:14:23Z</time>
  <course>85.49</course>
  <speed>1.0</speed>
  <fix>3d</fix>
</trkpt>
<trkpt lat="33.8107584" lon="-118.3950585">
  <ele>-25.019</ele>
  <time>2026-09-01T01:14:23Z</time>
  <course>175.71</course>
  <speed>1.0212247548899311</speed>
  <fix>3d</fix>
</trkpt>
<trkpt lat="33.8107584" lon="-118.3950613">
  <ele>-24.41</ele>
  <time>2026-09-01T01:14:23Z</time>
  <course>85.49</course>
  <speed>1.0</speed>
  <fix>3d</fix>
</trkpt>
<trkpt lat="33.8107585" lon="-118.3950575">
  <ele>-25.019</ele>
  <time>2026-09-01T01:14:23Z</time>
  <course>175.83</course>
  <speed>1.011236866416568</speed>
  <fix>3d</fix>
</trkpt>
<trkpt lat="33.8107586" lon="-118.3950591">
  <ele>-24.41</ele>
  <time>2026-09-01T01:14:23Z</time>
  <course>85.72</course>
  <speed>1.0</speed>
  <fix>3d</fix>
</trkpt>
<trkpt lat="33.8107585" lon="-118.3950564">
  <ele>-25.017</ele>
  <time>2026-09-01T01:14:23Z</time>
  <course>175.94</course>
  <speed>1.0212247548899311</speed>
  <fix>3d</fix>
</trkpt>
<trkpt lat="33.8107586" lon="-118.3950591">
  <ele>-24.41</ele>
  <time>2026-09-01T01:14:23Z</time>
  <course>85.72</course>
  <speed>1.0</speed>
  <fix>3d</fix>
</trkpt>
<trkpt lat="33.8107586" lon="-118.3950553">
  <ele>-25.014</ele>
  <time>2026-09-01T01:14:23Z</time>
  <course>176.05</course>
  <speed>1.0107917688624102</speed>
  <fix>3d</fix>
</trkpt>
<trkpt lat="33.8107587" lon="-118.395057">
  <ele>-24.4</ele>
  <time>2026-09-01T01:14:23Z</time>
  <course>85.98</course>
  <speed>1.0</speed>
  <fix>3d</fix>
</trkpt>
<trkpt lat="33.8107586" lon="-118.3950542">
  <ele>-25.012</ele>
  <time>2026-09-01T01:14:23Z</time>
  <course>176.17</course>
  <speed>1.0207840124139878</speed>
  <fix>3d</fix>
</trkpt>
<trkpt lat="33.8107587" lon="-118.395057">
  <ele>-24.4</ele>
  <time>2026-09-01T01:14:23Z</time>
  <course>85.98</course>
  <speed>1.0</speed>
  <fix>3d</fix>
</trkpt>
<trkpt lat="33.8107587" lon="-118.3950531">
  <ele>-25.011</ele>
  <time>2026-09-01T01:14:23Z</time>
  <course>176.28</course>
  <speed>1.0107917688624102</speed>
  <fix>3d</fix>
</trkpt>
<trkpt lat="33.8107588" lon="-118.3950548">
  <ele>-24.4</ele>
  <time>2026-09-01T01:14:23Z</time>
  <course>86.26</course>
  <speed>1.0</speed>
  <fix>3d</fix>
</trkpt>
<trkpt lat="33.8107588" lon="-118.3950521">
  <ele>-25.01</ele>
  <time>2026-09-01T01:14:23Z</time>
  <course>176.4</course>
  <speed>1.0107917688624102</speed>
  <fix>3d</fix>
</trkpt>
<trkpt lat="33.8107588" lon="-118.3950548">
  <ele>-24.4</ele>
  <time>2026-09-01T01:14:23Z</time>
  <course>86.26</course>
  <speed>1.0</speed>
  <fix>3d</fix>
</trkpt>
<trkpt lat="33.8107588" lon="-118.395051">
  <ele>-25.01</ele>
  <time>2026-09-01T01:14:23Z</time>
  <course>176.51</course>
  <speed>1.0104454463255303</speed>
  <fix>3d</fix>
</trkpt>
<trkpt lat="33.8107589" lon="-118.3950527">
  <ele>-24.4</ele>
  <time>2026-09-01T01:14:23Z</time>
  <course>86.5</course>
  <speed>1.0</speed>
  <fix>3d</fix>
</trkpt>
<trkpt lat="33.8107589" lon="-118.3950499">
  <ele>-25.011</ele>
  <time>2026-09-01T01:14:23Z</time>
  <course>176.63</course>
  <speed>1.0104454463255303</speed>
  <fix>3d</fix>
</trkpt>
<trkpt lat="33.8107589" lon="-118.3950527">
  <ele>-24.4</ele>
  <time>2026-09-01T01:14:23Z</time>
  <course>86.5</course>
  <speed>1.0</speed>
  <fix>3d</fix>
</trkpt>
<trkpt lat="33.8107589" lon="-118.3950488">
  <ele>-25.013</ele>
  <time>2026-09-01T01:14:23Z</time>
  <course>176.74</course>
  <speed>1.0104454463255303</speed>
  <fix>3d</fix>
</trkpt>
<trkpt lat="33.810759" lon="-118.3950505">
  <ele>-24.4</ele>
  <time>2026-09-01T01:14:23Z</time>
  <course>86.71</course>
  <speed>0.99</speed>
  <fix>3d</fix>
</trkpt>
<trkpt lat="33.8107589" lon="-118.3950477">
  <ele>-25.014</ele>
  <time>2026-09-01T01:14:23Z</time>
  <course>176.86</course>
  <speed>1.0204410811016968</speed>
  <fix>3d</fix>
</trkpt>
<trkpt lat="33.810759" lon="-118.3950505">
  <ele>-24.4</ele>
  <time>2026-09-01T01:14:23Z</time>
  <course>86.71</course>
  <speed>0.99</speed>
  <fix>3d</fix>
</trkpt>
<trkpt lat="33.810759" lon="-118.3950467">
  <ele>-25.015</ele>
  <time>2026-09-01T01:14:23Z</time>
  <course>176.97</course>
  <speed>1.0104454463255303</speed>
  <fix>3d</fix>
</trkpt>
<trkpt lat="33.8107591" lon="-118.3950483">
  <ele>-24.4</ele>
  <time>2026-09-01T01:14:23Z</time>
  <course>86.88</course>
  <speed>0.99</speed>
  <fix>3d</fix>
</trkpt>
<trkpt lat="33.810759" lon="-118.3950456">
  <ele>-25.014</ele>
  <time>2026-09-01T01:14:23Z</time>
  <course>177.08</course>
  <speed>1.0104454463255303</speed>
  <fix>3d</fix>
</trkpt>
<trkpt lat="33.8107591" lon="-118.3950483">
  <ele>-24.4</ele>
  <time>2026-09-01T01:14:23Z</time>
  <course>86.88</course>
  <speed>0.99</speed>
  <fix>3d</fix>
</trkpt>
<trkpt lat="33.8107591" lon="-118.3950445">
  <ele>-25.014</ele>
  <time>2026-09-01T01:14:23Z</time>
  <course>177.2</course>
  <speed>1.010198000393982</speed>
  <fix>3d</fix>
</trkpt>
<trkpt lat="33.8107592" lon="-118.3950462">
  <ele>-24.4</ele>
  <time>2026-09-01T01:14:23Z</time>
  <course>87.07</course>
  <speed>0.99</speed>
  <fix>3d</fix>
</trkpt>
<trkpt lat="33.8107591" lon="-118.3950434">
  <ele>-25.012</ele>
  <time>2026-09-01T01:14:23Z</time>
  <course>177.32</course>
  <speed>1.020196059588548</speed>
  <fix>3d</fix>
</trkpt>
<trkpt lat="33.8107592" lon="-118.3950462">
  <ele>-24.4</ele>
  <time>2026-09-01T01:14:23Z</time>
  <course>87.07</course>
  <speed>0.99</speed>
  <fix>3d</fix>
</trkpt>
<trkpt lat="33.8107592" lon="-118.3950423">
  <ele>-25.012</ele>
  <time>2026-09-01T01:14:23Z</time>
  <course>177.43</course>
  <speed>1.020196059588548</speed>
  <fix>3d</fix>
</trkpt>
<trkpt lat="33.8107593" lon="-118.395044">
  <ele>-24.4</ele>
  <time>2026-09-01T01:14:23Z</time>
  <course>87.27</course>
  <speed>0.99</speed>
  <fix>3d</fix>
</trkpt>
<trkpt lat="33.8107592" lon="-118.3950412">
  <ele>-25.012</ele>
  <time>2026-09-01T01:14:23Z</time>
  <course>177.54</course>
  <speed>1.020196059588548</speed>
  <fix>3d</fix>
</trkpt>
<trkpt lat="33.8107593" lon="-118.395044">
  <ele>-24.4</ele>
  <time>2026-09-01T01:14:23Z</time>
  <course>87.27</course>
  <speed>0.99</speed>
  <fix>3d</fix>
</trkpt>
<trkpt lat="33.8107592" lon="-118.3950402">
  <ele>-25.013</ele>
  <time>2026-09-01T01:14:23Z</time>
  <course>177.66</course>
  <speed>1.020196059588548</speed>
  <fix>3d</fix>
</trkpt>
<trkpt lat="33.8107594" lon="-118.3950419">
  <ele>-24.4</ele>
  <time>2026-09-01T01:14:23Z</time>
  <course>87.5</course>
  <speed>0.99</speed>
  <fix>3d</fix>
</trkpt>
<trkpt lat="33.8107593" lon="-118.3950391">
  <ele>-25.013</ele>
  <time>2026-09-01T01:14:23Z</time>
  <course>177.77</course>
  <speed>1.0200490184299968</speed>
  <fix>3d</fix>
</trkpt>
<trkpt lat="33.8107594" lon="-118.3950419">
  <ele>-24.4</ele>
  <time>2026-09-01T01:14:23Z</time>
  <course>87.5</course>
  <speed>0.99</speed>
  <fix>3d</fix>
</trkpt>
<trkpt lat="33.8107593" lon="-118.395038">
  <ele>-25.014</ele>
  <time>2026-09-01T01:14:23Z</time>
  <course>177.89</course>
  <speed>1.0200490184299968</speed>
  <fix>3d</fix>
</trkpt>
<trkpt lat="33.8107595" lon="-118.3950396">
  <ele>-24.4</ele>
  <time>2026-09-01T01:14:23Z</time>
  <course>87.76</course>
  <speed>0.99</speed>
  <fix>3d</fix>
</trkpt>
<trkpt lat="33.8107593" lon="-118.3950369">
  <ele>-25.015</ele>
  <time>2026-09-01T01:14:23Z</time>
  <course>178.0</course>
  <speed>1.010049503737317</speed>
  <fix>3d</fix>
</trkpt>
<trkpt lat="33.8107595" lon="-118.3950396">
  <ele>-24.4</ele>
  <time>2026-09-01T01:14:23Z</time>
  <course>87.76</course>
  <speed>0.99</speed>
  <fix>3d</fix>
</trkpt>
<trkpt lat="33.8107594" lon="-118.3950358">
  <ele>-25.015</ele>
  <time>2026-09-01T01:14:23Z</time>
  <course>178.12</course>
  <speed>1.01</speed>
  <fix>3d</fix>
</trkpt>
<trkpt lat="33.8107596" lon="-118.3950375">
  <ele>-24.4</ele>
  <time>2026-09-01T01:14:23Z</time>
  <course>88.05</course>
  <speed>0.99</speed>
  <fix>3d</fix>
</trkpt>
<trkpt lat="33.8107594" lon="-118.3950348">
  <ele>-25.014</ele>
  <time>2026-09-01T01:14:23Z</time>
  <course>178.23</course>
  <speed>1.01</speed>
  <fix>3d</fix>
</trkpt>
<trkpt lat="33.8107596" lon="-118.3950375">
  <ele>-24.4</ele>
  <time>2026-09-01T01:14:23Z</time>
  <course>88.05</course>
  <speed>0.99</speed>
  <fix>3d</fix>
</trkpt>
<trkpt lat="33.8107594" lon="-118.3950337">
  <ele>-25.013</ele>
  <time>2026-09-01T01:14:23Z</time>
  <course>178.34</course>
  <speed>1.01</speed>
  <fix>3d</fix>
</trkpt>
<trkpt lat="33.8107596" lon="-118.3950353">
  <ele>-24.4</ele>
  <time>2026-09-01T01:14:23Z</time>
  <course>88.37</course>
  <speed>0.99</speed>
  <fix>3d</fix>
</trkpt>
<trkpt lat="33.8107594" lon="-118.3950326">
  <ele>-25.012</ele>
  <time>2026-09-01T01:14:23Z</time>
  <course>178.46</course>
  <speed>1.01</speed>
  <fix>3d</fix>
</trkpt>
<trkpt lat="33.8107596" lon="-118.3950353">
  <ele>-24.4</ele>
  <time>2026-09-01T01:14:23Z</time>
  <course>88.37</course>
  <speed>0.99</speed>
  <fix>3d</fix>
</trkpt>
<trkpt lat="33.8107595" lon="-118.3950315">
  <ele>-25.011</ele>
  <time>2026-09-01T01:14:23Z</time>
  <course>178.57</course>
  <speed>1.01</speed>
  <fix>3d</fix>
</trkpt>
<trkpt lat="33.8107597" lon="-118.3950332">
  <ele>-24.4</ele>
  <time>2026-09-01T01:14:23Z</time>
  <course>88.68</course>
  <speed>0.99</speed>
  <fix>3d</fix>
</trkpt>
<trkpt lat="33.8107595" lon="-118.3950304">
  <ele>-25.012</ele>
  <time>2026-09-01T01:14:23Z</time>
  <course>178.69</course>
  <speed>1.01</speed>
  <fix>3d</fix>
</trkpt>
<trkpt lat="33.8107597" lon="-118.3950332">
  <ele>-24.4</ele>
  <time>2026-09-01T01:14:23Z</time>
  <course>88.68</course>
  <speed>0.99</speed>
  <fix>3d</fix>
</trkpt>
<trkpt lat="33.8107595" lon="-118.3950293">
  <ele>-25.013</ele>
  <time>2026-09-01T01:14:23Z</time>
  <course>178.8</course>
  <speed>1.01</speed>
  <fix>3d</fix>
</trkpt>
<trkpt lat="33.8107597" lon="-118.395031">
  <ele>-24.4</ele>
  <time>2026-09-01T01:14:23Z</time>
  <course>88.96</course>
  <speed>0.99</speed>
  <fix>3d</fix>
</trkpt>
<trkpt lat="33.8107595" lon="-118.3950283">
  <ele>-25.014</ele>
  <time>2026-09-01T01:14:23Z</time>
  <course>178.92</course>
  <speed>1.01</speed>
  <fix>3d</fix>
</trkpt>
<trkpt lat="33.8107597" lon="-118.395031">
  <ele>-24.4</ele>
  <time>2026-09-01T01:14:23Z</time>
  <course>88.96</course>
  <speed>0.99</speed>
  <fix>3d</fix>
</trkpt>
<trkpt lat="33.8107595" lon="-118.3950272">
  <ele>-25.015</ele>
  <time>2026-09-01T01:14:23Z</time>
  <course>179.03</course>
  <speed>1.01</speed>
  <fix>3d</fix>
</trkpt>
<trkpt lat="33.8107597" lon="-118.3950289">
  <ele>-24.4</ele>
  <time>2026-09-01T01:14:23Z</time>
  <course>89.22</course>
  <speed>0.99</speed>
  <fix>3d</fix>
</trkpt>
<trkpt lat="33.8107595" lon="-118.3950261">
  <ele>-25.015</ele>
  <time>2026-09-01T01:14:23Z</time>
  <course>179.15</course>
  <speed>1.010049503737317</speed>
  <fix>3d</fix>
</trkpt>
<trkpt lat="33.8107597" lon="-118.3950289">
  <ele>-24.4</ele>
  <time>2026-09-01T01:14:23Z</time>
  <course>89.22</course>
  <speed>0.99</speed>
  <fix>3d</fix>
</trkpt>
<trkpt lat="33.8107595" lon="-118.395025">
  <ele>-25.015</ele>
  <time>2026-09-01T01:14:23Z</time>
  <course>179.26</course>
  <speed>1.010049503737317</speed>
  <fix>3d</fix>
</trkpt>
<trkpt lat="33.8107598" lon="-118.3950267">
  <ele>-24.4</ele>
  <time>2026-09-01T01:14:23Z</time>
  <course>89.44</course>
  <speed>0.99</speed>
  <fix>3d</fix>
</trkpt>
<trkpt lat="33.8107595" lon="-118.3950239">
  <ele>-25.013</ele>
  <time>2026-09-01T01:14:23Z</time>
  <course>179.37</course>
  <speed>1.010049503737317</speed>
  <fix>3d</fix>
</trkpt>
<trkpt lat="33.8107598" lon="-118.3950267">
  <ele>-24.4</ele>
  <time>2026-09-01T01:14:23Z</time>
  <course>89.44</course>
  <speed>0.99</speed>
  <fix>3d</fix>
</trkpt>
<trkpt lat="33.8107595" lon="-118.3950229">
  <ele>-25.01</ele>
  <time>2026-09-01T01:14:23Z</time>
  <course>179.49</course>
  <speed>1.010049503737317</speed>
  <fix>3d</fix>
</trkpt>
<trkpt lat="33.8107598" lon="-118.3950246">
  <ele>-24.4</ele>
  <time>2026-09-01T01:14:23Z</time>
  <course>89.67</course>
  <speed>0.99</speed>
  <fix>3d</fix>
</trkpt>
<trkpt lat="33.8107596" lon="-118.3950218">
  <ele>-25.008</ele>
  <time>2026-09-01T01:14:23Z</time>
  <course>179.6</course>
  <speed>1.0200490184299968</speed>
  <fix>3d</fix>
</trkpt>
<trkpt lat="33.8107598" lon="-118.3950246">
  <ele>-24.4</ele>
  <time>2026-09-01T01:14:23Z</time>
  <course>89.67</course>
  <speed>0.99</speed>
  <fix>3d</fix>
</trkpt>
<trkpt lat="33.8107596" lon="-118.3950207">
  <ele>-25.007</ele>
  <time>2026-09-01T01:14:23Z</time>
  <course>179.72</course>
  <speed>1.020196059588548</speed>
  <fix>3d</fix>
</trkpt>
<trkpt lat="33.8107598" lon="-118.3950224">
  <ele>-24.4</ele>
  <time>2026-09-01T01:14:23Z</time>
  <course>89.93</course>
  <speed>0.99</speed>
  <fix>3d</fix>
</trkpt>
<trkpt lat="33.8107596" lon="-118.3950196">
  <ele>-25.007</ele>
  <time>2026-09-01T01:14:23Z</time>
  <course>179.83</course>
  <speed>1.020196059588548</speed>
  <fix>3d</fix>
</trkpt>
<trkpt lat="33.8107598" lon="-118.3950224">
  <ele>-24.4</ele>
  <time>2026-09-01T01:14:23Z</time>
  <course>89.93</course>
  <speed>0.99</speed>
  <fix>3d</fix>
</trkpt>
<trkpt lat="33.8107596" lon="-118.3950185">
  <ele>-25.008</ele>
  <time>2026-09-01T01:14:23Z</time>
  <course>179.95</course>
  <speed>1.020196059588548</speed>
  <fix>3d</fix>
</trkpt>
<trkpt lat="33.8107598" lon="-118.3950203">
  <ele>-24.4</ele>
  <time>2026-09-01T01:14:23Z</time>
  <course>90.19</course>
  <speed>0.99</speed>
  <fix>3d</fix>
</trkpt>
<trkpt lat="33.8107595" lon="-118.3950175">
  <ele>-25.009</ele>
  <time>2026-09-01T01:14:23Z</time>
  <course>180.07</course>
  <speed>1.020196059588548</speed>
  <fix>3d</fix>
</trkpt>
<trkpt lat="33.8107598" lon="-118.3950203">
  <ele>-24.4</ele>
  <time>2026-09-01T01:14:23Z</time>
  <course>90.19</course>
  <speed>0.99</speed>
  <fix>3d</fix>
</trkpt>
<trkpt lat="33.8107596" lon="-118.3950164">
  <ele>-25.011</ele>
  <time>2026-09-01T01:14:23Z</time>
  <course>180.19</course>
  <speed>1.020196059588548</speed>
  <fix>3d</fix>
</trkpt>
<trkpt lat="33.8107598" lon="-118.3950181">
  <ele>-24.41</ele>
  <time>2026-09-01T01:14:23Z</time>
  <course>90.42</course>
  <speed>0.99</speed>
  <fix>3d</fix>
</trkpt>
<trkpt lat="33.8107596" lon="-118.3950153">
  <ele>-25.014</ele>
  <time>2026-09-01T01:14:23Z</time>
  <course>180.3</course>
  <speed>1.0204410811016968</speed>
  <fix>3d</fix>
</trkpt>
<trkpt lat="33.8107598" lon="-118.3950181">
  <ele>-24.41</ele>
  <time>2026-09-01T01:14:23Z</time>
  <course>90.42</course>
  <speed>0.99</speed>
  <fix>3d</fix>
</trkpt>
<trkpt lat="33.8107596" lon="-118.3950142">
  <ele>-25.016</ele>
  <time>2026-09-01T01:14:23Z</time>
  <course>180.42</course>
  <speed>1.0204410811016968</speed>
  <fix>3d</fix>
</trkpt>
<trkpt lat="33.8107598" lon="-118.395016">
  <ele>-24.41</ele>
  <time>2026-09-01T01:14:23Z</time>
  <course>90.64</course>
  <speed>0.99</speed>
  <fix>3d</fix>
</trkpt>
<trkpt lat="33.8107596" lon="-118.3950131">
  <ele>-25.018</ele>
  <time>2026-09-01T01:14:23Z</time>
  <course>180.53</course>
  <speed>1.0204410811016968</speed>
  <fix>3d</fix>
</trkpt>
<trkpt lat="33.8107598" lon="-118.395016">
  <ele>-24.41</ele>
  <time>2026-09-01T01:14:23Z</time>
  <course>90.64</course>
  <speed>0.99</speed>
  <fix>3d</fix>
</trkpt>
<trkpt lat="33.8107596" lon="-118.3950121">
  <ele>-25.02</ele>
  <time>2026-09-01T01:14:23Z</time>
  <course>180.65</course>
  <speed>1.0204410811016968</speed>
  <fix>3d</fix>
</trkpt>
<trkpt lat="33.8107598" lon="-118.3950138">
  <ele>-24.41</ele>
  <time>2026-09-01T01:14:23Z</time>
  <course>90.87</course>
  <speed>1.0</speed>
  <fix>3d</fix>
</trkpt>
<trkpt lat="33.8107596" lon="-118.395011">
  <ele>-25.021</ele>
  <time>2026-09-01T01:14:23Z</time>
  <course>180.76</course>
  <speed>1.0207840124139878</speed>
  <fix>3d</fix>
</trkpt>
<trkpt lat="33.8107598" lon="-118.3950138">
  <ele>-24.41</ele>
  <time>2026-09-01T01:14:23Z</time>
  <course>90.87</course>
  <speed>1.0</speed>
  <fix>3d</fix>
</trkpt>
<trkpt lat="33.8107596" lon="-118.3950099">
  <ele>-25.022</ele>
  <time>2026-09-01T01:14:23Z</time>
  <course>180.88</course>
  <speed>1.0207840124139878</speed>
  <fix>3d</fix>
</trkpt>
<trkpt lat="33.8107598" lon="-118.3950117">
  <ele>-24.42</ele>
  <time>2026-09-01T01:14:23Z</time>
  <course>91.13</course>
  <speed>1.0</speed>
  <fix>3d</fix>
</trkpt>
<trkpt lat="33.8107596" lon="-118.3950088">
  <ele>-25.022</ele>
  <time>2026-09-01T01:14:23Z</time>
  <course>180.99</course>
  <speed>1.0207840124139878</speed>
  <fix>3d</fix>
</trkpt>
<trkpt lat="33.8107598" lon="-118.3950117">
  <ele>-24.42</ele>
  <time>2026-09-01T01:14:23Z</time>
  <course>91.13</course>
  <speed>1.0</speed>
  <fix>3d</fix>
</trkpt>
<trkpt lat="33.8107595" lon="-118.3950077">
  <ele>-25.021</ele>
  <time>2026-09-01T01:14:23Z</time>
  <course>181.11</course>
  <speed>1.0207840124139878</speed>
  <fix>3d</fix>
</trkpt>
<trkpt lat="33.8107598" lon="-118.3950094">
  <ele>-24.41</ele>
  <time>2026-09-01T01:14:23Z</time>
  <course>91.4</course>
  <speed>1.0</speed>
  <fix>3d</fix>
</trkpt>
<trkpt lat="33.8107595" lon="-118.3950067">
  <ele>-25.018</ele>
  <time>2026-09-01T01:14:23Z</time>
  <course>181.22</course>
  <speed>1.0212247548899311</speed>
  <fix>3d</fix>
</trkpt>
<trkpt lat="33.8107598" lon="-118.3950094">
  <ele>-24.41</ele>
  <time>2026-09-01T01:14:23Z</time>
  <course>91.4</course>
  <speed>1.0</speed>
  <fix>3d</fix>
</trkpt>
<trkpt lat="33.8107595" lon="-118.3950056">
  <ele>-25.014</ele>
  <time>2026-09-01T01:14:23Z</time>
  <course>181.34</course>
  <speed>1.0212247548899311</speed>
  <fix>3d</fix>
</trkpt>
<trkpt lat="33.8107597" lon="-118.3950073">
  <ele>-24.41</ele>
  <time>2026-09-01T01:14:23Z</time>
  <course>91.71</course>
  <speed>1.0</speed>
  <fix>3d</fix>
</trkpt>
<trkpt lat="33.8107595" lon="-118.3950045">
  <ele>-25.01</ele>
  <time>2026-09-01T01:14:23Z</time>
  <course>181.45</course>
  <speed>1.0212247548899311</speed>
  <fix>3d</fix>
</trkpt>
<trkpt lat="33.8107597" lon="-118.3950073">
  <ele>-24.41</ele>
  <time>2026-09-01T01:14:23Z</time>
  <course>91.71</course>
  <speed>1.0</speed>
  <fix>3d</fix>
</trkpt>
<trkpt lat="33.8107594" lon="-118.3950034">
  <ele>-25.007</ele>
  <time>2026-09-01T01:14:23Z</time>
  <course>181.57</course>
  <speed>1.0212247548899311</speed>
  <fix>3d</fix>
</trkpt>
<trkpt lat="33.8107596" lon="-118.3950051">
  <ele>-24.4</ele>
  <time>2026-09-01T01:14:23Z</time>
  <course>92.0</course>
  <speed>1.0</speed>
  <fix>3d</fix>
</trkpt>
<trkpt lat="33.8107594" lon="-118.3950023">
  <ele>-25.006</ele>
  <time>2026-09-01T01:14:23Z</time>
  <course>181.68</course>
  <speed>1.0212247548899311</speed>
  <fix>3d</fix>
</trkpt>
<trkpt lat="33.8107596" lon="-118.3950051">
  <ele>-24.4</ele>
  <time>2026-09-01T01:14:23Z</time>
  <course>92.0</course>
  <speed>1.0</speed>
  <fix>3d</fix>
</trkpt>
<trkpt lat="33.8107594" lon="-118.3950012">
  <ele>-25.007</ele>
  <time>2026-09-01T01:14:23Z</time>
  <course>181.79</course>
  <speed>1.0212247548899311</speed>
  <fix>3d</fix>
</trkpt>
<trkpt lat="33.8107596" lon="-118.395003">
  <ele>-24.4</ele>
  <time>2026-09-01T01:14:23Z</time>
  <course>92.22</course>
  <speed>1.0</speed>
  <fix>3d</fix>
</trkpt>
<trkpt lat="33.8107594" lon="-118.3950002">
  <ele>-25.009</ele>
  <time>2026-09-01T01:14:23Z</time>
  <course>181.91</course>
  <speed>1.0217631819555841</speed>
  <fix>3d</fix>
</trkpt>
<trkpt lat="33.8107596" lon="-118.395003">
  <ele>-24.4</ele>
  <time>2026-09-01T01:14:23Z</time>
  <course>92.22</course>
  <speed>1.0</speed>
  <fix>3d</fix>
</trkpt>
<trkpt lat="33.8107593" lon="-118.3949991">
  <ele>-25.012</ele>
  <time>2026-09-01T01:14:23Z</time>
  <course>182.02</course>
  <speed>1.0217631819555841</speed>
  <fix>3d</fix>
</trkpt>
<trkpt lat="33.8107595" lon="-118.3950008">
  <ele>-24.4</ele>
  <time>2026-09-01T01:14:23Z</time>
  <course>92.41</course>
  <speed>1.0</speed>
  <fix>3d</fix>
</trkpt>
<trkpt lat="33.8107593" lon="-118.394998">
  <ele>-25.014</ele>
  <time>2026-09-01T01:14:23Z</time>
  <course>182.14</course>
  <speed>1.0217631819555841</speed>
  <fix>3d</fix>
</trkpt>
<trkpt lat="33.8107595" lon="-118.3950008">
  <ele>-24.4</ele>
  <time>2026-09-01T01:14:23Z</time>
  <course>92.41</course>
  <speed>1.0</speed>
  <fix>3d</fix>
</trkpt>
<trkpt lat="33.8107592" lon="-118.3949969">
  <ele>-25.016</ele>
  <time>2026-09-01T01:14:23Z</time>
  <course>182.26</course>
  <speed>1.0217631819555841</speed>
  <fix>3d</fix>
</trkpt>
<trkpt lat="33.8107594" lon="-118.3949987">
  <ele>-24.41</ele>
  <time>2026-09-01T01:14:23Z</time>
  <course>92.6</course>
  <speed>1.0</speed>
  <fix>3d</fix>
</trkpt>
<trkpt lat="33.8107592" lon="-118.3949958">
  <ele>-25.017</ele>
  <time>2026-09-01T01:14:23Z</time>
  <course>182.37</course>
  <speed>1.0217631819555841</speed>
  <fix>3d</fix>
</trkpt>
<trkpt lat="33.8107594" lon="-118.3949987">
  <ele>-24.41</ele>
  <time>2026-09-01T01:14:23Z</time>
  <course>92.6</course>
  <speed>1.0</speed>
  <fix>3d</fix>
</trkpt>
<trkpt lat="33.8107592" lon="-118.3949948">
  <ele>-25.018</ele>
  <time>2026-09-01T01:14:23Z</time>
  <course>182.48</course>
  <speed>1.0217631819555841</speed>
  <fix>3d</fix>
</trkpt>
<trkpt lat="33.8107593" lon="-118.3949965">
  <ele>-24.41</ele>
  <time>2026-09-01T01:14:23Z</time>
  <course>92.76</course>
  <speed>1.0</speed>
  <fix>3d</fix>
</trkpt>
<trkpt lat="33.8107591" lon="-118.3949937">
  <ele>-25.018</ele>
  <time>2026-09-01T01:14:23Z</time>
  <course>182.59</course>
  <speed>1.0217631819555841</speed>
  <fix>3d</fix>
</trkpt>
<trkpt lat="33.8107593" lon="-118.3949965">
  <ele>-24.41</ele>
  <time>2026-09-01T01:14:23Z</time>
  <course>92.76</course>
  <speed>1.0</speed>
  <fix>3d</fix>
</trkpt>
<trkpt lat="33.8107591" lon="-118.3949926">
  <ele>-25.016</ele>
  <time>2026-09-01T01:14:23Z</time>
  <course>182.71</course>
  <speed>1.022399139279763</speed>
  <fix>3d</fix>
</trkpt>
<trkpt lat="33.8107592" lon="-118.3949943">
  <ele>-24.41</ele>
  <time>2026-09-01T01:14:23Z</time>
  <course>92.9</course>
  <speed>1.0</speed>
  <fix>3d</fix>
</trkpt>
<trkpt lat="33.810759" lon="-118.3949915">
  <ele>-25.016</ele>
  <time>2026-09-01T01:14:23Z</time>
  <course>182.83</course>
  <speed>1.022399139279763</speed>
  <fix>3d</fix>
</trkpt>
<trkpt lat="33.8107592" lon="-118.3949943">
  <ele>-24.41</ele>
  <time>2026-09-01T01:14:23Z</time>
  <course>92.9</course>
  <speed>1.0</speed>
  <fix>3d</fix>
</trkpt>
<trkpt lat="33.810759" lon="-118.3949905">
  <ele>-25.016</ele>
  <time>2026-09-01T01:14:23Z</time>
  <course>182.94</course>
  <speed>1.022399139279763</speed>
  <fix>3d</fix>
</trkpt>
<trkpt lat="33.8107591" lon="-118.3949921">
  <ele>-24.41</ele>
  <time>2026-09-01T01:14:23Z</time>
  <course>93.03</course>
  <speed>1.0</speed>
  <fix>3d</fix>
</trkpt>
<trkpt lat="33.8107589" lon="-118.3949894">
  <ele>-25.016</ele>
  <time>2026-09-01T01:14:23Z</time>
  <course>183.05</course>
  <speed>1.022399139279763</speed>
  <fix>3d</fix>
</trkpt>
<trkpt lat="33.8107591" lon="-118.3949921">
  <ele>-24.41</ele>
  <time>2026-09-01T01:14:23Z</time>
  <course>93.03</course>
  <speed>1.0</speed>
  <fix>3d</fix>
</trkpt>
<trkpt lat="33.8107589" lon="-118.3949883">
  <ele>-25.017</ele>
  <time>2026-09-01T01:14:23Z</time>
  <course>183.17</course>
  <speed>1.022399139279763</speed>
  <fix>3d</fix>
</trkpt>
<trkpt lat="33.810759" lon="-118.39499">
  <ele>-24.41</ele>
  <time>2026-09-01T01:14:23Z</time>
  <course>93.16</course>
  <speed>1.0</speed>
  <fix>3d</fix>
</trkpt>
<trkpt lat="33.8107588" lon="-118.3949872">
  <ele>-25.018</ele>
  <time>2026-09-01T01:14:23Z</time>
  <course>183.28</course>
  <speed>1.022399139279763</speed>
  <fix>3d</fix>
</trkpt>
<trkpt lat="33.810759" lon="-118.39499">
  <ele>-24.41</ele>
  <time>2026-09-01T01:14:23Z</time>
  <course>93.16</course>
  <speed>1.0</speed>
  <fix>3d</fix>
</trkpt>
<trkpt lat="33.8107587" lon="-118.3949861">
  <ele>-25.017</ele>
  <time>2026-09-01T01:14:23Z</time>
  <course>183.4</course>
  <speed>1.0231324449942931</speed>
  <fix>3d</fix>
</trkpt>
<trkpt lat="33.8107589" lon="-118.3949878">
  <ele>-24.41</ele>
  <time>2026-09-01T01:14:23Z</time>
  <course>93.32</course>
  <speed>1.0</speed>
  <fix>3d</fix>
</trkpt>
<trkpt lat="33.8107587" lon="-118.3949851">
  <ele>-25.016</ele>
  <time>2026-09-01T01:14:23Z</time>
  <course>183.51</course>
  <speed>1.0231324449942931</speed>
  <fix>3d</fix>
</trkpt>
<trkpt lat="33.8107589" lon="-118.3949878">
  <ele>-24.41</ele>
  <time>2026-09-01T01:14:23Z</time>
  <course>93.32</course>
  <speed>1.0</speed>
  <fix>3d</fix>
</trkpt>
<trkpt lat="33.8107586" lon="-118.394984">
  <ele>-25.014</ele>
  <time>2026-09-01T01:14:23Z</time>
  <course>183.63</course>
  <speed>1.0231324449942931</speed>
  <fix>3d</fix>
</trkpt>
<trkpt lat="33.8107588" lon="-118.3949855">
  <ele>-24.4</ele>
  <time>2026-09-01T01:14:23Z</time>
  <course>93.5</course>
  <speed>1.01</speed>
  <fix>3d</fix>
</trkpt>
<trkpt lat="33.8107586" lon="-118.3949829">
  <ele>-25.012</ele>
  <time>2026-09-01T01:14:24Z</time>
  <course>183.74</course>
  <speed>1.0231324449942931</speed>
  <fix>3d</fix>
</trkpt>
<trkpt lat="33.8107588" lon="-118.3949855">
  <ele>-24.4</ele>
  <time>2026-09-01T01:14:24Z</time>
  <course>93.5</course>
  <speed>1.01</speed>
  <fix>3d</fix>
</trkpt>
<trkpt lat="33.8107585" lon="-118.3949818">
  <ele>-25.011</ele>
  <time>2026-09-01T01:14:24Z</time>
  <course>183.86</course>
  <speed>1.0131633629380803</speed>
  <fix>3d</fix>
</trkpt>
<trkpt lat="33.8107587" lon="-118.3949834">
  <ele>-24.4</ele>
  <time>2026-09-01T01:14:24Z</time>
  <course>93.68</course>
  <speed>1.01</speed>
  <fix>3d</fix>
</trkpt>
<trkpt lat="33.8107584" lon="-118.3949807">
  <ele>-25.011</ele>
  <time>2026-09-01T01:14:24Z</time>
  <course>183.97</course>
  <speed>1.0140019723846694</speed>
  <fix>3d</fix>
</trkpt>
<trkpt lat="33.8107587" lon="-118.3949834">
  <ele>-24.4</ele>
  <time>2026-09-01T01:14:24Z</time>
  <course>93.68</course>
  <speed>1.01</speed>
  <fix>3d</fix>
</trkpt>
<trkpt lat="33.8107584" lon="-118.3949796">
  <ele>-25.012</ele>
  <time>2026-09-01T01:14:24Z</time>
  <course>184.09</course>
  <speed>1.0140019723846694</speed>
  <fix>3d</fix>
</trkpt>
<trkpt lat="33.8107586" lon="-118.3949812">
  <ele>-24.4</ele>
  <time>2026-09-01T01:14:24Z</time>
  <course>93.91</course>
  <speed>1.0</speed>
  <fix>3d</fix>
</trkpt>
<trkpt lat="33.8107583" lon="-118.3949786">
  <ele>-25.014</ele>
  <time>2026-09-01T01:14:24Z</time>
  <course>184.2</course>
  <speed>1.0140019723846694</speed>
  <fix>3d</fix>
</trkpt>
<trkpt lat="33.8107586" lon="-118.3949812">
  <ele>-24.4</ele>
  <time>2026-09-01T01:14:24Z</time>
  <course>93.91</course>
  <speed>1.0</speed>
  <fix>3d</fix>
</trkpt>
<trkpt lat="33.8107582" lon="-118.3949775">
  <ele>-25.015</ele>
  <time>2026-09-01T01:14:24Z</time>
  <course>184.31</course>
  <speed>1.0140019723846694</speed>
  <fix>3d</fix>
</trkpt>
<trkpt lat="33.8107585" lon="-118.3949791">
  <ele>-24.4</ele>
  <time>2026-09-01T01:14:24Z</time>
  <course>94.19</course>
  <speed>1.0</speed>
  <fix>3d</fix>
</trkpt>
<trkpt lat="33.8107582" lon="-118.3949764">
  <ele>-25.015</ele>
  <time>2026-09-01T01:14:24Z</time>
  <course>184.42</course>
  <speed>1.0149384217774002</speed>
  <fix>3d</fix>
</trkpt>
<trkpt lat="33.8107585" lon="-118.3949791">
  <ele>-24.4</ele>
  <time>2026-09-01T01:14:24Z</time>
  <course>94.19</course>
  <speed>1.0</speed>
  <fix>3d</fix>
</trkpt>
<trkpt lat="33.8107581" lon="-118.3949753">
  <ele>-25.014</ele>
  <time>2026-09-01T01:14:24Z</time>
  <course>184.54</course>
  <speed>1.0149384217774002</speed>
  <fix>3d</fix>
</trkpt>
<trkpt lat="33.8107583" lon="-118.3949769">
  <ele>-24.4</ele>
  <time>2026-09-01T01:14:24Z</time>
  <course>94.5</course>
  <speed>1.0</speed>
  <fix>3d</fix>
</trkpt>
<trkpt lat="33.810758" lon="-118.3949742">
  <ele>-25.012</ele>
  <time>2026-09-01T01:14:24Z</time>
  <course>184.66</course>
  <speed>1.0149384217774002</speed>
  <fix>3d</fix>
</trkpt>
<trkpt lat="33.8107583" lon="-118.3949769">
  <ele>-24.4</ele>
  <time>2026-09-01T01:14:24Z</time>
  <course>94.5</course>
  <speed>1.0</speed>
  <fix>3d</fix>
</trkpt>
<trkpt lat="33.8107579" lon="-118.3949732">
  <ele>-25.009</ele>
  <time>2026-09-01T01:14:24Z</time>
  <course>184.77</course>
  <speed>1.0149384217774002</speed>
  <fix>3d</fix>
</trkpt>
<trkpt lat="33.8107581" lon="-118.3949747">
  <ele>-24.4</ele>
  <time>2026-09-01T01:14:24Z</time>
  <course>94.77</course>
  <speed>1.0</speed>
  <fix>3d</fix>
</trkpt>
<trkpt lat="33.8107579" lon="-118.3949721">
  <ele>-25.007</ele>
  <time>2026-09-01T01:14:24Z</time>
  <course>184.88</course>
  <speed>1.0149384217774002</speed>
  <fix>3d</fix>
</trkpt>
<trkpt lat="33.8107581" lon="-118.3949747">
  <ele>-24.4</ele>
  <time>2026-09-01T01:14:24Z</time>
  <course>94.77</course>
  <speed>1.0</speed>
  <fix>3d</fix>
</trkpt>
<trkpt lat="33.8107578" lon="-118.394971">
  <ele>-25.007</ele>
  <time>2026-09-01T01:14:24Z</time>
  <course>185.0</course>
  <speed>1.0149384217774002</speed>
  <fix>3d</fix>
</trkpt>
<trkpt lat="33.810758" lon="-118.3949726">
  <ele>-24.4</ele>
  <time>2026-09-01T01:14:24Z</time>
  <course>94.95</course>
  <speed>1.0</speed>
  <fix>3d</fix>
</trkpt>
<trkpt lat="33.8107577" lon="-118.3949699">
  <ele>-25.008</ele>
  <time>2026-09-01T01:14:24Z</time>
  <course>185.12</course>
  <speed>1.0159724405711013</speed>
  <fix>3d</fix>
</trkpt>
<trkpt lat="33.810758" lon="-118.3949726">
  <ele>-24.4</ele>
  <time>2026-09-01T01:14:24Z</time>
  <course>94.95</course>
  <speed>1.0</speed>
  <fix>3d</fix>
</trkpt>
<trkpt lat="33.8107576" lon="-118.3949688">
  <ele>-25.01</ele>
  <time>2026-09-01T01:14:24Z</time>
  <course>185.23</course>
  <speed>1.0159724405711013</speed>
  <fix>3d</fix>
</trkpt>
<trkpt lat="33.8107579" lon="-118.3949704">
  <ele>-24.4</ele>
  <time>2026-09-01T01:14:24Z</time>
  <course>95.1</course>
  <speed>1.0</speed>
  <fix>3d</fix>
</trkpt>
<trkpt lat="33.8107575" lon="-118.3949678">
  <ele>-25.012</ele>
  <time>2026-09-01T01:14:24Z</time>
  <course>185.35</course>
  <speed>1.0159724405711013</speed>
  <fix>3d</fix>
</trkpt>
<trkpt lat="33.8107579" lon="-118.3949704">
  <ele>-24.4</ele>
  <time>2026-09-01T01:14:24Z</time>
  <course>95.1</course>
  <speed>1.0</speed>
  <fix>3d</fix>
</trkpt>
<trkpt lat="33.8107575" lon="-118.3949667">
  <ele>-25.014</ele>
  <time>2026-09-01T01:14:24Z</time>
  <course>185.46</course>
  <speed>1.0159724405711013</speed>
  <fix>3d</fix>
</trkpt>
<trkpt lat="33.8107577" lon="-118.3949682">
  <ele>-24.4</ele>
  <time>2026-09-01T01:14:24Z</time>
  <course>95.33</course>
  <speed>1.0</speed>
  <fix>3d</fix>
</trkpt>
<trkpt lat="33.8107574" lon="-118.3949656">
  <ele>-25.015</ele>
  <time>2026-09-01T01:14:24Z</time>
  <course>185.58</course>
  <speed>1.0171037311896953</speed>
  <fix>3d</fix>
</trkpt>
<trkpt lat="33.8107577" lon="-118.3949682">
  <ele>-24.4</ele>
  <time>2026-09-01T01:14:24Z</time>
  <course>95.33</course>
  <speed>1.0</speed>
  <fix>3d</fix>
</trkpt>
<trkpt lat="33.8107573" lon="-118.3949645">
  <ele>-25.016</ele>
  <time>2026-09-01T01:14:24Z</time>
  <course>185.69</course>
  <speed>1.0171037311896953</speed>
  <fix>3d</fix>
</trkpt>
<trkpt lat="33.8107576" lon="-118.3949661">
  <ele>-24.41</ele>
  <time>2026-09-01T01:14:24Z</time>
  <course>95.61</course>
  <speed>1.0</speed>
  <fix>3d</fix>
</trkpt>
<trkpt lat="33.8107572" lon="-118.3949634">
  <ele>-25.016</ele>
  <time>2026-09-01T01:14:24Z</time>
  <course>185.8</course>
  <speed>1.0171037311896953</speed>
  <fix>3d</fix>
</trkpt>
<trkpt lat="33.8107576" lon="-118.3949661">
  <ele>-24.41</ele>
  <time>2026-09-01T01:14:24Z</time>
  <course>95.61</course>
  <speed>1.0</speed>
  <fix>3d</fix>
</trkpt>
<trkpt lat="33.8107571" lon="-118.3949624">
  <ele>-25.014</ele>
  <time>2026-09-01T01:14:24Z</time>
  <course>185.92</course>
  <speed>1.0171037311896953</speed>
  <fix>3d</fix>
</trkpt>
<trkpt lat="33.8107574" lon="-118.3949639">
  <ele>-24.41</ele>
  <time>2026-09-01T01:14:24Z</time>
  <course>95.91</course>
  <speed>1.0</speed>
  <fix>3d</fix>
</trkpt>
<trkpt lat="33.810757" lon="-118.3949613">
  <ele>-25.014</ele>
  <time>2026-09-01T01:14:24Z</time>
  <course>186.03</course>
  <speed>1.0084145972763385</speed>
  <fix>3d</fix>
</trkpt>
<trkpt lat="33.8107574" lon="-118.3949639">
  <ele>-24.41</ele>
  <time>2026-09-01T01:14:24Z</time>
  <course>95.91</course>
  <speed>1.0</speed>
  <fix>3d</fix>
</trkpt>
<trkpt lat="33.8107569" lon="-118.3949602">
  <ele>-25.013</ele>
  <time>2026-09-01T01:14:24Z</time>
  <course>186.15</course>
  <speed>1.0084145972763385</speed>
  <fix>3d</fix>
</trkpt>
<trkpt lat="33.8107572" lon="-118.3949618">
  <ele>-24.41</ele>
  <time>2026-09-01T01:14:24Z</time>
  <course>96.23</course>
  <speed>1.0</speed>
  <fix>3d</fix>
</trkpt>
<trkpt lat="33.8107568" lon="-118.3949591">
  <ele>-25.013</ele>
  <time>2026-09-01T01:14:24Z</time>
  <course>186.26</course>
  <speed>1.0084145972763385</speed>
  <fix>3d</fix>
</trkpt>
<trkpt lat="33.8107572" lon="-118.3949618">
  <ele>-24.41</ele>
  <time>2026-09-01T01:14:24Z</time>
  <course>96.23</course>
  <speed>1.0</speed>
  <fix>3d</fix>
</trkpt>
<trkpt lat="33.8107567" lon="-118.3949581">
  <ele>-25.013</ele>
  <time>2026-09-01T01:14:24Z</time>
  <course>186.38</course>
  <speed>1.0084145972763385</speed>
  <fix>3d</fix>
</trkpt>
<trkpt lat="33.8107569" lon="-118.3949596">
  <ele>-24.41</ele>
  <time>2026-09-01T01:14:24Z</time>
  <course>96.51</course>
  <speed>1.0</speed>
  <fix>3d</fix>
</trkpt>
<trkpt lat="33.8107566" lon="-118.394957">
  <ele>-25.013</ele>
  <time>2026-09-01T01:14:24Z</time>
  <course>186.49</course>
  <speed>1.009752444909147</speed>
  <fix>3d</fix>
</trkpt>
<trkpt lat="33.8107569" lon="-118.3949596">
  <ele>-24.41</ele>
  <time>2026-09-01T01:14:24Z</time>
  <course>96.51</course>
  <speed>1.0</speed>
  <fix>3d</fix>
</trkpt>
<trkpt lat="33.8107565" lon="-118.3949559">
  <ele>-25.014</ele>
  <time>2026-09-01T01:14:24Z</time>
  <course>186.61</course>
  <speed>1.009752444909147</speed>
  <fix>3d</fix>
</trkpt>
<trkpt lat="33.8107568" lon="-118.3949575">
  <ele>-24.41</ele>
  <time>2026-09-01T01:14:24Z</time>
  <course>96.73</course>
  <speed>1.0</speed>
  <fix>3d</fix>
</trkpt>
<trkpt lat="33.8107564" lon="-118.3949548">
  <ele>-25.014</ele>
  <time>2026-09-01T01:14:24Z</time>
  <course>186.72</course>
  <speed>1.009752444909147</speed>
  <fix>3d</fix>
</trkpt>
<trkpt lat="33.8107568" lon="-118.3949575">
  <ele>-24.41</ele>
  <time>2026-09-01T01:14:24Z</time>
  <course>96.73</course>
  <speed>1.0</speed>
  <fix>3d</fix>
</trkpt>
<trkpt lat="33.8107563" lon="-118.3949538">
  <ele>-25.013</ele>
  <time>2026-09-01T01:14:24Z</time>
  <course>186.84</course>
  <speed>1.009752444909147</speed>
  <fix>3d</fix>
</trkpt>
<trkpt lat="33.8107566" lon="-118.3949553">
  <ele>-24.41</ele>
  <time>2026-09-01T01:14:24Z</time>
  <course>96.91</course>
  <speed>1.0</speed>
  <fix>3d</fix>
</trkpt>
<trkpt lat="33.8107562" lon="-118.3949527">
  <ele>-25.012</ele>
  <time>2026-09-01T01:14:24Z</time>
  <course>186.95</course>
  <speed>1.009752444909147</speed>
  <fix>3d</fix>
</trkpt>
<trkpt lat="33.8107566" lon="-118.3949553">
  <ele>-24.41</ele>
  <time>2026-09-01T01:14:24Z</time>
  <course>96.91</course>
  <speed>1.0</speed>
  <fix>3d</fix>
</trkpt>
<trkpt lat="33.810756" lon="-118.3949516">
  <ele>-25.011</ele>
  <time>2026-09-01T01:14:24Z</time>
  <course>187.07</course>
  <speed>1.0111874208078342</speed>
  <fix>3d</fix>
</trkpt>
<trkpt lat="33.8107564" lon="-118.3949532">
  <ele>-24.41</ele>
  <time>2026-09-01T01:14:24Z</time>
  <course>97.15</course>
  <speed>1.0</speed>
  <fix>3d</fix>
</trkpt>
<trkpt lat="33.8107559" lon="-118.3949505">
  <ele>-25.011</ele>
  <time>2026-09-01T01:14:24Z</time>
  <course>187.18</course>
  <speed>1.0111874208078342</speed>
  <fix>3d</fix>
</trkpt>
<trkpt lat="33.8107564" lon="-118.3949532">
  <ele>-24.41</ele>
  <time>2026-09-01T01:14:24Z</time>
  <course>97.15</course>
  <speed>1.0</speed>
  <fix>3d</fix>
</trkpt>
<trkpt lat="33.8107558" lon="-118.3949495">
  <ele>-25.011</ele>
  <time>2026-09-01T01:14:24Z</time>
  <course>187.29</course>
  <speed>1.0111874208078342</speed>
  <fix>3d</fix>
</trkpt>
<trkpt lat="33.8107561" lon="-118.394951">
  <ele>-24.41</ele>
  <time>2026-09-01T01:14:24Z</time>
  <course>97.45</course>
  <speed>1.0</speed>
  <fix>3d</fix>
</trkpt>
<trkpt lat="33.8107557" lon="-118.3949484">
  <ele>-25.012</ele>
  <time>2026-09-01T01:14:24Z</time>
  <course>187.41</course>
  <speed>1.0111874208078342</speed>
  <fix>3d</fix>
</trkpt>
<trkpt lat="33.8107561" lon="-118.394951">
  <ele>-24.41</ele>
  <time>2026-09-01T01:14:24Z</time>
  <course>97.45</course>
  <speed>1.0</speed>
  <fix>3d</fix>
</trkpt>
<trkpt lat="33.8107556" lon="-118.3949473">
  <ele>-25.013</ele>
  <time>2026-09-01T01:14:24Z</time>
  <course>187.52</course>
  <speed>1.0111874208078342</speed>
  <fix>3d</fix>
</trkpt>
<trkpt lat="33.8107558" lon="-118.3949489">
  <ele>-24.41</ele>
  <time>2026-09-01T01:14:24Z</time>
  <course>97.7</course>
  <speed>1.0</speed>
  <fix>3d</fix>
</trkpt>
<trkpt lat="33.8107554" lon="-118.3949462">
  <ele>-25.015</ele>
  <time>2026-09-01T01:14:24Z</time>
  <course>187.64</course>
  <speed>1.0111874208078342</speed>
  <fix>3d</fix>
</trkpt>
<trkpt lat="33.8107558" lon="-118.3949489">
  <ele>-24.41</ele>
  <time>2026-09-01T01:14:24Z</time>
  <course>97.7</course>
  <speed>1.0</speed>
  <fix>3d</fix>
</trkpt>
<trkpt lat="33.8107553" lon="-118.3949452">
  <ele>-25.015</ele>
  <time>2026-09-01T01:14:24Z</time>
  <course>187.75</course>
  <speed>1.012719112093773</speed>
  <fix>3d</fix>
</trkpt>
<trkpt lat="33.8107556" lon="-118.3949467">
  <ele>-24.41</ele>
  <time>2026-09-01T01:14:24Z</time>
  <course>97.87</course>
  <speed>0.99</speed>
  <fix>3d</fix>
</trkpt>
<trkpt lat="33.8107552" lon="-118.3949441">
  <ele>-25.015</ele>
  <time>2026-09-01T01:14:24Z</time>
  <course>187.87</course>
  <speed>1.012719112093773</speed>
  <fix>3d</fix>
</trkpt>
<trkpt lat="33.8107556" lon="-118.3949467">
  <ele>-24.41</ele>
  <time>2026-09-01T01:14:24Z</time>
  <course>97.87</course>
  <speed>0.99</speed>
  <fix>3d</fix>
</trkpt>
<trkpt lat="33.8107551" lon="-118.394943">
  <ele>-25.015</ele>
  <time>2026-09-01T01:14:24Z</time>
  <course>187.98</course>
  <speed>1.012719112093773</speed>
  <fix>3d</fix>
</trkpt>
<trkpt lat="33.8107554" lon="-118.3949446">
  <ele>-24.41</ele>
  <time>2026-09-01T01:14:24Z</time>
  <course>98.0</course>
  <speed>0.99</speed>
  <fix>3d</fix>
</trkpt>
<trkpt lat="33.8107549" lon="-118.3949419">
  <ele>-25.014</ele>
  <time>2026-09-01T01:14:24Z</time>
  <course>188.09</course>
  <speed>1.012719112093773</speed>
  <fix>3d</fix>
</trkpt>
<trkpt lat="33.8107554" lon="-118.3949446">
  <ele>-24.41</ele>
  <time>2026-09-01T01:14:24Z</time>
  <course>98.0</course>
  <speed>0.99</speed>
  <fix>3d</fix>
</trkpt>
<trkpt lat="33.8107548" lon="-118.3949409">
  <ele>-25.013</ele>
  <time>2026-09-01T01:14:24Z</time>
  <course>188.21</course>
  <speed>1.012719112093773</speed>
  <fix>3d</fix>
</trkpt>
<trkpt lat="33.8107551" lon="-118.3949424">
  <ele>-24.41</ele>
  <time>2026-09-01T01:14:24Z</time>
  <course>98.17</course>
  <speed>0.99</speed>
  <fix>3d</fix>
</trkpt>
<trkpt lat="33.8107547" lon="-118.3949398">
  <ele>-25.012</ele>
  <time>2026-09-01T01:14:24Z</time>
  <course>188.33</course>
  <speed>1.014347080638575</speed>
  <fix>3d</fix>
</trkpt>
<trkpt lat="33.8107551" lon="-118.3949424">
  <ele>-24.41</ele>
  <time>2026-09-01T01:14:24Z</time>
  <course>98.17</course>
  <speed>0.99</speed>
  <fix>3d</fix>
</trkpt>
<trkpt lat="33.8107545" lon="-118.3949387">
  <ele>-25.011</ele>
  <time>2026-09-01T01:14:24Z</time>
  <course>188.44</course>
  <speed>1.014347080638575</speed>
  <fix>3d</fix>
</trkpt>
<trkpt lat="33.8107549" lon="-118.3949403">
  <ele>-24.41</ele>
  <time>2026-09-01T01:14:24Z</time>
  <course>98.37</course>
  <speed>0.99</speed>
  <fix>3d</fix>
</trkpt>
<trkpt lat="33.8107544" lon="-118.3949377">
  <ele>-25.011</ele>
  <time>2026-09-01T01:14:24Z</time>
  <course>188.55</course>
  <speed>1.014347080638575</speed>
  <fix>3d</fix>
</trkpt>
<trkpt lat="33.8107549" lon="-118.3949403">
  <ele>-24.41</ele>
  <time>2026-09-01T01:14:24Z</time>
  <course>98.37</course>
  <speed>0.99</speed>
  <fix>3d</fix>
</trkpt>
<trkpt lat="33.8107543" lon="-118.3949366">
  <ele>-25.011</ele>
  <time>2026-09-01T01:14:24Z</time>
  <course>188.67</course>
  <speed>1.014347080638575</speed>
  <fix>3d</fix>
</trkpt>
<trkpt lat="33.8107546" lon="-118.3949381">
  <ele>-24.41</ele>
  <time>2026-09-01T01:14:24Z</time>
  <course>98.61</course>
  <speed>0.99</speed>
  <fix>3d</fix>
</trkpt>
<trkpt lat="33.8107541" lon="-118.3949355">
  <ele>-25.012</ele>
  <time>2026-09-01T01:14:24Z</time>
  <course>188.79</course>
  <speed>1.014347080638575</speed>
  <fix>3d</fix>
</trkpt>
<trkpt lat="33.8107546" lon="-118.3949381">
  <ele>-24.41</ele>
  <time>2026-09-01T01:14:24Z</time>
  <course>98.61</course>
  <speed>0.99</speed>
  <fix>3d</fix>
</trkpt>
<trkpt lat="33.810754" lon="-118.3949345">
  <ele>-25.013</ele>
  <time>2026-09-01T01:14:24Z</time>
  <course>188.9</course>
  <speed>1.016070863670443</speed>
  <fix>3d</fix>
</trkpt>
<trkpt lat="33.8107543" lon="-118.394936">
  <ele>-24.42</ele>
  <time>2026-09-01T01:14:24Z</time>
  <course>98.86</course>
  <speed>0.99</speed>
  <fix>3d</fix>
</trkpt>
<trkpt lat="33.8107538" lon="-118.3949334">
  <ele>-25.014</ele>
  <time>2026-09-01T01:14:24Z</time>
  <course>189.01</course>
  <speed>1.016070863670443</speed>
  <fix>3d</fix>
</trkpt>
<trkpt lat="33.8107543" lon="-118.394936">
  <ele>-24.42</ele>
  <time>2026-09-01T01:14:24Z</time>
  <course>98.86</course>
  <speed>0.99</speed>
  <fix>3d</fix>
</trkpt>
<trkpt lat="33.8107537" lon="-118.3949323">
  <ele>-25.014</ele>
  <time>2026-09-01T01:14:24Z</time>
  <course>189.13</course>
  <speed>1.016070863670443</speed>
  <fix>3d</fix>
</trkpt>
<trkpt lat="33.810754" lon="-118.3949339">
  <ele>-24.42</ele>
  <time>2026-09-01T01:14:24Z</time>
  <course>99.09</course>
  <speed>0.99</speed>
  <fix>3d</fix>
</trkpt>
<trkpt lat="33.8107536" lon="-118.3949313">
  <ele>-25.015</ele>
  <time>2026-09-01T01:14:24Z</time>
  <course>189.24</course>
  <speed>1.016070863670443</speed>
  <fix>3d</fix>
</trkpt>
<trkpt lat="33.810754" lon="-118.3949339">
  <ele>-24.42</ele>
  <time>2026-09-01T01:14:24Z</time>
  <course>99.09</course>
  <speed>0.99</speed>
  <fix>3d</fix>
</trkpt>
<trkpt lat="33.8107534" lon="-118.3949302">
  <ele>-25.017</ele>
  <time>2026-09-01T01:14:24Z</time>
  <course>189.36</course>
  <speed>1.016070863670443</speed>
  <fix>3d</fix>
</trkpt>
<trkpt lat="33.8107537" lon="-118.3949318">
  <ele>-24.42</ele>
  <time>2026-09-01T01:14:24Z</time>
  <course>99.29</course>
  <speed>0.99</speed>
  <fix>3d</fix>
</trkpt>
<trkpt lat="33.8107532" lon="-118.3949291">
  <ele>-25.018</ele>
  <time>2026-09-01T01:14:24Z</time>
  <course>189.47</course>
  <speed>1.0178899744078433</speed>
  <fix>3d</fix>
</trkpt>
<trkpt lat="33.8107537" lon="-118.3949318">
  <ele>-24.42</ele>
  <time>2026-09-01T01:14:24Z</time>
  <course>99.29</course>
  <speed>0.99</speed>
  <fix>3d</fix>
</trkpt>
<trkpt lat="33.8107531" lon="-118.3949281">
  <ele>-25.019</ele>
  <time>2026-09-01T01:14:24Z</time>
  <course>189.58</course>
  <speed>1.0178899744078433</speed>
  <fix>3d</fix>
</trkpt>
<trkpt lat="33.8107534" lon="-118.3949296">
  <ele>-24.42</ele>
  <time>2026-09-01T01:14:24Z</time>
  <course>99.48</course>
  <speed>0.99</speed>
  <fix>3d</fix>
</trkpt>
<trkpt lat="33.8107529" lon="-118.394927">
  <ele>-25.019</ele>
  <time>2026-09-01T01:14:24Z</time>
  <course>189.7</course>
  <speed>1.0178899744078433</speed>
  <fix>3d</fix>
</trkpt>
<trkpt lat="33.8107534" lon="-118.3949296">
  <ele>-24.42</ele>
  <time>2026-09-01T01:14:24Z</time>
  <course>99.48</course>
  <speed>0.99</speed>
  <fix>3d</fix>
</trkpt>
<trkpt lat="33.8107528" lon="-118.3949259">
  <ele>-25.02</ele>
  <time>2026-09-01T01:14:24Z</time>
  <course>189.82</course>
  <speed>1.0178899744078433</speed>
  <fix>3d</fix>
</trkpt>
<trkpt lat="33.8107532" lon="-118.3949275">
  <ele>-24.42</ele>
  <time>2026-09-01T01:14:24Z</time>
  <course>99.65</course>
  <speed>0.99</speed>
  <fix>3d</fix>
</trkpt>
<trkpt lat="33.8107526" lon="-118.3949249">
  <ele>-25.021</ele>
  <time>2026-09-01T01:14:24Z</time>
  <course>189.93</course>
  <speed>1.0178899744078433</speed>
  <fix>3d</fix>
</trkpt>
<trkpt lat="33.8107532" lon="-118.3949275">
  <ele>-24.42</ele>
  <time>2026-09-01T01:14:24Z</time>
  <course>99.65</course>
  <speed>0.99</speed>
  <fix>3d</fix>
</trkpt>
<trkpt lat="33.8107525" lon="-118.3949238">
  <ele>-25.021</ele>
  <time>2026-09-01T01:14:24Z</time>
  <course>190.04</course>
  <speed>1.01</speed>
  <fix>3d</fix>
</trkpt>
<trkpt lat="33.8107529" lon="-118.3949254">
  <ele>-24.42</ele>
  <time>2026-09-01T01:14:24Z</time>
  <course>99.87</course>
  <speed>0.99</speed>
  <fix>3d</fix>
</trkpt>
<trkpt lat="33.8107523" lon="-118.3949227">
  <ele>-25.022</ele>
  <time>2026-09-01T01:14:24Z</time>
  <course>190.16</course>
  <speed>1.01</speed>
  <fix>3d</fix>
</trkpt>
<trkpt lat="33.8107529" lon="-118.3949254">
  <ele>-24.42</ele>
  <time>2026-09-01T01:14:24Z</time>
  <course>99.87</course>
  <speed>0.99</speed>
  <fix>3d</fix>
</trkpt>
<trkpt lat="33.8107522" lon="-118.3949217">
  <ele>-25.023</ele>
  <time>2026-09-01T01:14:24Z</time>
  <course>190.27</course>
  <speed>1.01</speed>
  <fix>3d</fix>
</trkpt>
<trkpt lat="33.8107525" lon="-118.3949233">
  <ele>-24.41</ele>
  <time>2026-09-01T01:14:24Z</time>
  <course>100.18</course>
  <speed>0.99</speed>
  <fix>3d</fix>
</trkpt>
<trkpt lat="33.810752" lon="-118.3949206">
  <ele>-25.022</ele>
  <time>2026-09-01T01:14:24Z</time>
  <course>190.39</course>
  <speed>1.01</speed>
  <fix>3d</fix>
</trkpt>
<trkpt lat="33.8107525" lon="-118.3949233">
  <ele>-24.41</ele>
  <time>2026-09-01T01:14:24Z</time>
  <course>100.18</course>
  <speed>0.99</speed>
  <fix>3d</fix>
</trkpt>
<trkpt lat="33.8107518" lon="-118.3949196">
  <ele>-25.02</ele>
  <time>2026-09-01T01:14:24Z</time>
  <course>190.5</course>
  <speed>1.01</speed>
  <fix>3d</fix>
</trkpt>
<trkpt lat="33.8107522" lon="-118.3949212">
  <ele>-24.41</ele>
  <time>2026-09-01T01:14:24Z</time>
  <course>100.47</course>
  <speed>0.99</speed>
  <fix>3d</fix>
</trkpt>
<trkpt lat="33.8107517" lon="-118.3949185">
  <ele>-25.019</ele>
  <time>2026-09-01T01:14:24Z</time>
  <course>190.62</course>
  <speed>1.01202766760598</speed>
  <fix>3d</fix>
</trkpt>
<trkpt lat="33.8107522" lon="-118.3949212">
  <ele>-24.41</ele>
  <time>2026-09-01T01:14:24Z</time>
  <course>100.47</course>
  <speed>0.99</speed>
  <fix>3d</fix>
</trkpt>
<trkpt lat="33.8107515" lon="-118.3949174">
  <ele>-25.016</ele>
  <time>2026-09-01T01:14:24Z</time>
  <course>190.73</course>
  <speed>1.01202766760598</speed>
  <fix>3d</fix>
</trkpt>
<trkpt lat="33.8107519" lon="-118.394919">
  <ele>-24.4</ele>
  <time>2026-09-01T01:14:24Z</time>
  <course>100.69</course>
  <speed>0.99</speed>
  <fix>3d</fix>
</trkpt>
<trkpt lat="33.8107513" lon="-118.3949164">
  <ele>-25.013</ele>
  <time>2026-09-01T01:14:24Z</time>
  <course>190.85</course>
  <speed>1.01202766760598</speed>
  <fix>3d</fix>
</trkpt>
<trkpt lat="33.8107519" lon="-118.394919">
  <ele>-24.4</ele>
  <time>2026-09-01T01:14:24Z</time>
  <course>100.69</course>
  <speed>0.99</speed>
  <fix>3d</fix>
</trkpt>
<trkpt lat="33.8107511" lon="-118.3949153">
  <ele>-25.012</ele>
  <time>2026-09-01T01:14:24Z</time>
  <course>190.96</course>
  <speed>1.01202766760598</speed>
  <fix>3d</fix>
</trkpt>
<trkpt lat="33.8107516" lon="-118.3949169">
  <ele>-24.4</ele>
  <time>2026-09-01T01:14:24Z</time>
  <course>100.92</course>
  <speed>1.0</speed>
  <fix>3d</fix>
</trkpt>
<trkpt lat="33.810751" lon="-118.3949143">
  <ele>-25.011</ele>
  <time>2026-09-01T01:14:24Z</time>
  <course>191.07</course>
  <speed>1.0141498903022177</speed>
  <fix>3d</fix>
</trkpt>
<trkpt lat="33.8107516" lon="-118.3949169">
  <ele>-24.4</ele>
  <time>2026-09-01T01:14:24Z</time>
  <course>100.92</course>
  <speed>1.0</speed>
  <fix>3d</fix>
</trkpt>
<trkpt lat="33.8107508" lon="-118.3949132">
  <ele>-25.011</ele>
  <time>2026-09-01T01:14:24Z</time>
  <course>191.19</course>
  <speed>1.0141498903022177</speed>
  <fix>3d</fix>
</trkpt>
<trkpt lat="33.8107512" lon="-118.3949148">
  <ele>-24.39</ele>
  <time>2026-09-01T01:14:24Z</time>
  <course>101.19</course>
  <speed>1.0</speed>
  <fix>3d</fix>
</trkpt>
<trkpt lat="33.8107506" lon="-118.3949121">
  <ele>-25.01</ele>
  <time>2026-09-01T01:14:24Z</time>
  <course>191.31</course>
  <speed>1.0141498903022177</speed>
  <fix>3d</fix>
</trkpt>
<trkpt lat="33.8107512" lon="-118.3949148">
  <ele>-24.39</ele>
  <time>2026-09-01T01:14:24Z</time>
  <course>101.19</course>
  <speed>1.0</speed>
  <fix>3d</fix>
</trkpt>
<trkpt lat="33.8107504" lon="-118.3949111">
  <ele>-25.009</ele>
  <time>2026-09-01T01:14:24Z</time>
  <course>191.42</course>
  <speed>1.0141498903022177</speed>
  <fix>3d</fix>
</trkpt>
<trkpt lat="33.8107509" lon="-118.3949127">
  <ele>-24.39</ele>
  <time>2026-09-01T01:14:24Z</time>
  <course>101.47</course>
  <speed>1.0</speed>
  <fix>3d</fix>
</trkpt>
<trkpt lat="33.8107503" lon="-118.39491">
  <ele>-25.008</ele>
  <time>2026-09-01T01:14:24Z</time>
  <course>191.53</course>
  <speed>1.016366075781753</speed>
  <fix>3d</fix>
</trkpt>
<trkpt lat="33.8107509" lon="-118.3949127">
  <ele>-24.39</ele>
  <time>2026-09-01T01:14:24Z</time>
  <course>101.47</course>
  <speed>1.0</speed>
  <fix>3d</fix>
</trkpt>
<trkpt lat="33.8107501" lon="-118.394909">
  <ele>-25.007</ele>
  <time>2026-09-01T01:14:24Z</time>
  <course>191.65</course>
  <speed>1.016366075781753</speed>
  <fix>3d</fix>
</trkpt>
<trkpt lat="33.8107505" lon="-118.3949105">
  <ele>-24.39</ele>
  <time>2026-09-01T01:14:24Z</time>
  <course>101.75</course>
  <speed>1.0</speed>
  <fix>3d</fix>
</trkpt>
<trkpt lat="33.8107499" lon="-118.3949079">
  <ele>-25.007</ele>
  <time>2026-09-01T01:14:24Z</time>
  <course>191.76</course>
  <speed>1.016366075781753</speed>
  <fix>3d</fix>
</trkpt>
<trkpt lat="33.8107505" lon="-118.3949105">
  <ele>-24.39</ele>
  <time>2026-09-01T01:14:24Z</time>
  <course>101.75</course>
  <speed>1.0</speed>
  <fix>3d</fix>
</trkpt>
<trkpt lat="33.8107497" lon="-118.3949068">
  <ele>-25.007</ele>
  <time>2026-09-01T01:14:24Z</time>
  <course>191.88</course>
  <speed>1.016366075781753</speed>
  <fix>3d</fix>
</trkpt>
<trkpt lat="33.8107502" lon="-118.3949084">
  <ele>-24.39</ele>
  <time>2026-09-01T01:14:24Z</time>
  <course>102.01</course>
  <speed>1.0</speed>
  <fix>3d</fix>
</trkpt>
<trkpt lat="33.8107495" lon="-118.3949058">
  <ele>-25.008</ele>
  <time>2026-09-01T01:14:24Z</time>
  <course>191.99</course>
  <speed>1.016366075781753</speed>
  <fix>3d</fix>
</trkpt>
<trkpt lat="33.8107502" lon="-118.3949084">
  <ele>-24.39</ele>
  <time>2026-09-01T01:14:24Z</time>
  <course>102.01</course>
  <speed>1.0</speed>
  <fix>3d</fix>
</trkpt>
<trkpt lat="33.8107493" lon="-118.3949047">
  <ele>-25.009</ele>
  <time>2026-09-01T01:14:24Z</time>
  <course>192.11</course>
  <speed>1.0186756107809787</speed>
  <fix>3d</fix>
</trkpt>
<trkpt lat="33.8107497" lon="-118.3949063">
  <ele>-24.4</ele>
  <time>2026-09-01T01:14:24Z</time>
  <course>102.27</course>
  <speed>1.0</speed>
  <fix>3d</fix>
</trkpt>
<trkpt lat="33.8107491" lon="-118.3949037">
  <ele>-25.011</ele>
  <time>2026-09-01T01:14:24Z</time>
  <course>192.22</course>
  <speed>1.0186756107809787</speed>
  <fix>3d</fix>
</trkpt>
<trkpt lat="33.8107497" lon="-118.3949063">
  <ele>-24.4</ele>
  <time>2026-09-01T01:14:24Z</time>
  <course>102.27</course>
  <speed>1.0</speed>
  <fix>3d</fix>
</trkpt>
<trkpt lat="33.8107489" lon="-118.3949026">
  <ele>-25.012</ele>
  <time>2026-09-01T01:14:24Z</time>
  <course>192.34</course>
  <speed>1.0186756107809787</speed>
  <fix>3d</fix>
</trkpt>
<trkpt lat="33.8107494" lon="-118.3949042">
  <ele>-24.4</ele>
  <time>2026-09-01T01:14:24Z</time>
  <course>102.5</course>
  <speed>1.0</speed>
  <fix>3d</fix>
</trkpt>
<trkpt lat="33.8107487" lon="-118.3949015">
  <ele>-25.013</ele>
  <time>2026-09-01T01:14:24Z</time>
  <course>192.45</course>
  <speed>1.0186756107809787</speed>
  <fix>3d</fix>
</trkpt>
<trkpt lat="33.8107494" lon="-118.3949042">
  <ele>-24.4</ele>
  <time>2026-09-01T01:14:24Z</time>
  <course>102.5</course>
  <speed>1.0</speed>
  <fix>3d</fix>
</trkpt>
<trkpt lat="33.8107485" lon="-118.3949005">
  <ele>-25.014</ele>
  <time>2026-09-01T01:14:24Z</time>
  <course>192.57</course>
  <speed>1.0186756107809787</speed>
  <fix>3d</fix>
</trkpt>
<trkpt lat="33.810749" lon="-118.3949021">
  <ele>-24.4</ele>
  <time>2026-09-01T01:14:24Z</time>
  <course>102.69</course>
  <speed>1.0</speed>
  <fix>3d</fix>
</trkpt>
<trkpt lat="33.8107483" lon="-118.3948994">
  <ele>-25.014</ele>
  <time>2026-09-01T01:14:24Z</time>
  <course>192.68</course>
  <speed>1.021077861869505</speed>
  <fix>3d</fix>
</trkpt>
<trkpt lat="33.810749" lon="-118.3949021">
  <ele>-24.4</ele>
  <time>2026-09-01T01:14:24Z</time>
  <course>102.69</course>
  <speed>1.0</speed>
  <fix>3d</fix>
</trkpt>
<trkpt lat="33.8107481" lon="-118.3948984">
  <ele>-25.013</ele>
  <time>2026-09-01T01:14:24Z</time>
  <course>192.79</course>
  <speed>1.021077861869505</speed>
  <fix>3d</fix>
</trkpt>
<trkpt lat="33.8107485" lon="-118.3949">
  <ele>-24.41</ele>
  <time>2026-09-01T01:14:24Z</time>
  <course>102.92</course>
  <speed>1.0</speed>
  <fix>3d</fix>
</trkpt>
<trkpt lat="33.8107479" lon="-118.3948973">
  <ele>-25.013</ele>
  <time>2026-09-01T01:14:24Z</time>
  <course>192.91</course>
  <speed>1.021077861869505</speed>
  <fix>3d</fix>
</trkpt>
<trkpt lat="33.8107485" lon="-118.3949">
  <ele>-24.41</ele>
  <time>2026-09-01T01:14:24Z</time>
  <course>102.92</course>
  <speed>1.0</speed>
  <fix>3d</fix>
</trkpt>
<trkpt lat="33.8107477" lon="-118.3948963">
  <ele>-25.012</ele>
  <time>2026-09-01T01:14:24Z</time>
  <course>193.03</course>
  <speed>1.021077861869505</speed>
  <fix>3d</fix>
</trkpt>
<trkpt lat="33.8107482" lon="-118.3948979">
  <ele>-24.41</ele>
  <time>2026-09-01T01:14:24Z</time>
  <course>103.11</course>
  <speed>1.0</speed>
  <fix>3d</fix>
</trkpt>
<trkpt lat="33.8107475" lon="-118.3948952">
  <ele>-25.011</ele>
  <time>2026-09-01T01:14:24Z</time>
  <course>193.14</course>
  <speed>1.0113851887386922</speed>
  <fix>3d</fix>
</trkpt>
<trkpt lat="33.8107482" lon="-118.3948979">
  <ele>-24.41</ele>
  <time>2026-09-01T01:14:24Z</time>
  <course>103.11</course>
  <speed>1.0</speed>
  <fix>3d</fix>
</trkpt>
<trkpt lat="33.8107473" lon="-118.3948942">
  <ele>-25.011</ele>
  <time>2026-09-01T01:14:24Z</time>
  <course>193.26</course>
  <speed>1.0113851887386922</speed>
  <fix>3d</fix>
</trkpt>
<trkpt lat="33.8107478" lon="-118.3948958">
  <ele>-24.41</ele>
  <time>2026-09-01T01:14:24Z</time>
  <course>103.27</course>
  <speed>1.0</speed>
  <fix>3d</fix>
</trkpt>
<trkpt lat="33.8107471" lon="-118.3948931">
  <ele>-25.012</ele>
  <time>2026-09-01T01:14:24Z</time>
  <course>193.37</course>
  <speed>1.0139033484509261</speed>
  <fix>3d</fix>
</trkpt>
<trkpt lat="33.8107478" lon="-118.3948958">
  <ele>-24.41</ele>
  <time>2026-09-01T01:14:24Z</time>
  <course>103.27</course>
  <speed>1.0</speed>
  <fix>3d</fix>
</trkpt>
<trkpt lat="33.8107469" lon="-118.3948921">
  <ele>-25.014</ele>
  <time>2026-09-01T01:14:24Z</time>
  <course>193.48</course>
  <speed>1.0139033484509261</speed>
  <fix>3d</fix>
</trkpt>
<trkpt lat="33.8107473" lon="-118.3948936">
  <ele>-24.41</ele>
  <time>2026-09-01T01:14:24Z</time>
  <course>103.49</course>
  <speed>1.0</speed>
  <fix>3d</fix>
</trkpt>
<trkpt lat="33.8107467" lon="-118.394891">
  <ele>-25.014</ele>
  <time>2026-09-01T01:14:24Z</time>
  <course>193.6</course>
  <speed>1.0139033484509261</speed>
  <fix>3d</fix>
</trkpt>
<trkpt lat="33.8107473" lon="-118.3948936">
  <ele>-24.41</ele>
  <time>2026-09-01T01:14:24Z</time>
  <course>103.49</course>
  <speed>1.0</speed>
  <fix>3d</fix>
</trkpt>
<trkpt lat="33.8107465" lon="-118.39489">
  <ele>-25.015</ele>
  <time>2026-09-01T01:14:24Z</time>
  <course>193.71</course>
  <speed>1.0139033484509261</speed>
  <fix>3d</fix>
</trkpt>
<trkpt lat="33.8107469" lon="-118.3948915">
  <ele>-24.41</ele>
  <time>2026-09-01T01:14:24Z</time>
  <course>103.73</course>
  <speed>1.0</speed>
  <fix>3d</fix>
</trkpt>
<trkpt lat="33.8107462" lon="-118.3948889">
  <ele>-25.014</ele>
  <time>2026-09-01T01:14:24Z</time>
  <course>193.82</course>
  <speed>1.0139033484509261</speed>
  <fix>3d</fix>
</trkpt>
<trkpt lat="33.8107469" lon="-118.3948915">
  <ele>-24.41</ele>
  <time>2026-09-01T01:14:24Z</time>
  <course>103.73</course>
  <speed>1.0</speed>
  <fix>3d</fix>
</trkpt>
<trkpt lat="33.810746" lon="-118.3948879">
  <ele>-25.013</ele>
  <time>2026-09-01T01:14:24Z</time>
  <course>193.94</course>
  <speed>1.0139033484509261</speed>
  <fix>3d</fix>
</trkpt>
<trkpt lat="33.8107464" lon="-118.3948894">
  <ele>-24.41</ele>
  <time>2026-09-01T01:14:24Z</time>
  <course>103.93</course>
  <speed>1.0</speed>
  <fix>3d</fix>
</trkpt>
<trkpt lat="33.8107458" lon="-118.3948868">
  <ele>-25.012</ele>
  <time>2026-09-01T01:14:24Z</time>
  <course>194.06</course>
  <speed>1.0139033484509261</speed>
  <fix>3d</fix>
</trkpt>
<trkpt lat="33.8107464" lon="-118.3948894">
  <ele>-24.41</ele>
  <time>2026-09-01T01:14:24Z</time>
  <course>103.93</course>
  <speed>1.0</speed>
  <fix>3d</fix>
</trkpt>
<trkpt lat="33.8107456" lon="-118.3948857">
  <ele>-25.012</ele>
  <time>2026-09-01T01:14:24Z</time>
  <course>194.17</course>
  <speed>1.0165136496870073</speed>
  <fix>3d</fix>
</trkpt>
<trkpt lat="33.8107461" lon="-118.3948873">
  <ele>-24.41</ele>
  <time>2026-09-01T01:14:24Z</time>
  <course>104.1</course>
  <speed>0.99</speed>
  <fix>3d</fix>
</trkpt>
<trkpt lat="33.8107454" lon="-118.3948847">
  <ele>-25.013</ele>
  <time>2026-09-01T01:14:24Z</time>
  <course>194.28</course>
  <speed>1.0165136496870073</speed>
  <fix>3d</fix>
</trkpt>
<trkpt lat="33.8107461" lon="-118.3948873">
  <ele>-24.41</ele>
  <time>2026-09-01T01:14:24Z</time>
  <course>104.1</course>
  <speed>0.99</speed>
  <fix>3d</fix>
</trkpt>
<trkpt lat="33.8107451" lon="-118.3948837">
  <ele>-25.014</ele>
  <time>2026-09-01T01:14:24Z</time>
  <course>194.4</course>
  <speed>1.0165136496870073</speed>
  <fix>3d</fix>
</trkpt>
<trkpt lat="33.8107456" lon="-118.3948852">
  <ele>-24.41</ele>
  <time>2026-09-01T01:14:24Z</time>
  <course>104.32</course>
  <speed>0.99</speed>
  <fix>3d</fix>
</trkpt>
<trkpt lat="33.8107449" lon="-118.3948826">
  <ele>-25.016</ele>
  <time>2026-09-01T01:14:24Z</time>
  <course>194.51</course>
  <speed>1.0165136496870073</speed>
  <fix>3d</fix>
</trkpt>
<trkpt lat="33.8107456" lon="-118.3948852">
  <ele>-24.41</ele>
  <time>2026-09-01T01:14:24Z</time>
  <course>104.32</course>
  <speed>0.99</speed>
  <fix>3d</fix>
</trkpt>
<trkpt lat="33.8107447" lon="-118.3948816">
  <ele>-25.018</ele>
  <time>2026-09-01T01:14:24Z</time>
  <course>194.63</course>
  <speed>1.0192153844992726</speed>
  <fix>3d</fix>
</trkpt>
<trkpt lat="33.8107452" lon="-118.3948832">
  <ele>-24.41</ele>
  <time>2026-09-01T01:14:24Z</time>
  <course>104.6</course>
  <speed>0.99</speed>
  <fix>3d</fix>
</trkpt>
<trkpt lat="33.8107444" lon="-118.3948805">
  <ele>-25.019</ele>
  <time>2026-09-01T01:14:24Z</time>
  <course>194.74</course>
  <speed>1.0192153844992726</speed>
  <fix>3d</fix>
</trkpt>
<trkpt lat="33.8107452" lon="-118.3948832">
  <ele>-24.41</ele>
  <time>2026-09-01T01:14:24Z</time>
  <course>104.6</course>
  <speed>0.99</speed>
  <fix>3d</fix>
</trkpt>
<trkpt lat="33.8107442" lon="-118.3948795">
  <ele>-25.018</ele>
  <time>2026-09-01T01:14:24Z</time>
  <course>194.86</course>
  <speed>1.0192153844992726</speed>
  <fix>3d</fix>
</trkpt>
<trkpt lat="33.8107447" lon="-118.3948811">
  <ele>-24.41</ele>
  <time>2026-09-01T01:14:24Z</time>
  <course>104.87</course>
  <speed>0.99</speed>
  <fix>3d</fix>
</trkpt>
<trkpt lat="33.810744" lon="-118.3948784">
  <ele>-25.016</ele>
  <time>2026-09-01T01:14:24Z</time>
  <course>194.97</course>
  <speed>1.0192153844992726</speed>
  <fix>3d</fix>
</trkpt>
<trkpt lat="33.8107447" lon="-118.3948811">
  <ele>-24.41</ele>
  <time>2026-09-01T01:14:24Z</time>
  <course>104.87</course>
  <speed>0.99</speed>
  <fix>3d</fix>
</trkpt>
<trkpt lat="33.8107437" lon="-118.3948774">
  <ele>-25.015</ele>
  <time>2026-09-01T01:14:24Z</time>
  <course>195.09</course>
  <speed>1.0192153844992726</speed>
  <fix>3d</fix>
</trkpt>
<trkpt lat="33.8107442" lon="-118.394879">
  <ele>-24.41</ele>
  <time>2026-09-01T01:14:24Z</time>
  <course>105.11</course>
  <speed>0.99</speed>
  <fix>3d</fix>
</trkpt>
<trkpt lat="33.8107435" lon="-118.3948763">
  <ele>-25.014</ele>
  <time>2026-09-01T01:14:24Z</time>
  <course>195.2</course>
  <speed>1.0220078277586722</speed>
  <fix>3d</fix>
</trkpt>
<trkpt lat="33.8107442" lon="-118.394879">
  <ele>-24.41</ele>
  <time>2026-09-01T01:14:24Z</time>
  <course>105.11</course>
  <speed>0.99</speed>
  <fix>3d</fix>
</trkpt>
<trkpt lat="33.8107433" lon="-118.3948753">
  <ele>-25.014</ele>
  <time>2026-09-01T01:14:24Z</time>
  <course>195.31</course>
  <speed>1.0124228365658294</speed>
  <fix>3d</fix>
</trkpt>
<trkpt lat="33.8107438" lon="-118.3948769">
  <ele>-24.41</ele>
  <time>2026-09-01T01:14:24Z</time>
  <course>105.32</course>
  <speed>1.0</speed>
  <fix>3d</fix>
</trkpt>
<trkpt lat="33.810743" lon="-118.3948743">
  <ele>-25.015</ele>
  <time>2026-09-01T01:14:24Z</time>
  <course>195.43</course>
  <speed>1.0124228365658294</speed>
  <fix>3d</fix>
</trkpt>
<trkpt lat="33.8107438" lon="-118.3948769">
  <ele>-24.41</ele>
  <time>2026-09-01T01:14:24Z</time>
  <course>105.32</course>
  <speed>1.0</speed>
  <fix>3d</fix>
</trkpt>
<trkpt lat="33.8107428" lon="-118.3948732">
  <ele>-25.015</ele>
  <time>2026-09-01T01:14:24Z</time>
  <course>195.54</course>
  <speed>1.0124228365658294</speed>
  <fix>3d</fix>
</trkpt>
<trkpt lat="33.8107433" lon="-118.3948748">
  <ele>-24.41</ele>
  <time>2026-09-01T01:14:24Z</time>
  <course>105.55</course>
  <speed>1.0</speed>
  <fix>3d</fix>
</trkpt>
<trkpt lat="33.8107425" lon="-118.3948722">
  <ele>-25.016</ele>
  <time>2026-09-01T01:14:24Z</time>
  <course>195.66</course>
  <speed>1.0124228365658294</speed>
  <fix>3d</fix>
</trkpt>
<trkpt lat="33.8107433" lon="-118.3948748">
  <ele>-24.41</ele>
  <time>2026-09-01T01:14:24Z</time>
  <course>105.55</course>
  <speed>1.0</speed>
  <fix>3d</fix>
</trkpt>
<trkpt lat="33.8107423" lon="-118.3948711">
  <ele>-25.016</ele>
  <time>2026-09-01T01:14:24Z</time>
  <course>195.77</course>
  <speed>1.015332457867865</speed>
  <fix>3d</fix>
</trkpt>
<trkpt lat="33.8107428" lon="-118.3948727">
  <ele>-24.41</ele>
  <time>2026-09-01T01:14:24Z</time>
  <course>105.79</course>
  <speed>1.0</speed>
  <fix>3d</fix>
</trkpt>
<trkpt lat="33.810742" lon="-118.3948701">
  <ele>-25.016</ele>
  <time>2026-09-01T01:14:24Z</time>
  <course>195.89</course>
  <speed>1.015332457867865</speed>
  <fix>3d</fix>
</trkpt>
<trkpt lat="33.8107428" lon="-118.3948727">
  <ele>-24.41</ele>
  <time>2026-09-01T01:14:24Z</time>
  <course>105.79</course>
  <speed>1.0</speed>
  <fix>3d</fix>
</trkpt>
<trkpt lat="33.8107418" lon="-118.3948691">
  <ele>-25.015</ele>
  <time>2026-09-01T01:14:24Z</time>
  <course>196.0</course>
  <speed>1.015332457867865</speed>
  <fix>3d</fix>
</trkpt>
<trkpt lat="33.8107423" lon="-118.3948706">
  <ele>-24.41</ele>
  <time>2026-09-01T01:14:24Z</time>
  <course>106.03</course>
  <speed>1.0</speed>
  <fix>3d</fix>
</trkpt>
<trkpt lat="33.8107415" lon="-118.394868">
  <ele>-25.014</ele>
  <time>2026-09-01T01:14:24Z</time>
  <course>196.12</course>
  <speed>1.015332457867865</speed>
  <fix>3d</fix>
</trkpt>
<trkpt lat="33.8107423" lon="-118.3948706">
  <ele>-24.41</ele>
  <time>2026-09-01T01:14:24Z</time>
  <course>106.03</course>
  <speed>1.0</speed>
  <fix>3d</fix>
</trkpt>
<trkpt lat="33.8107413" lon="-118.394867">
  <ele>-25.013</ele>
  <time>2026-09-01T01:14:24Z</time>
  <course>196.23</course>
  <speed>1.015332457867865</speed>
  <fix>3d</fix>
</trkpt>
<trkpt lat="33.8107418" lon="-118.3948686">
  <ele>-24.41</ele>
  <time>2026-09-01T01:14:24Z</time>
  <course>106.25</course>
  <speed>1.0</speed>
  <fix>3d</fix>
</trkpt>
<trkpt lat="33.810741" lon="-118.3948659">
  <ele>-25.013</ele>
  <time>2026-09-01T01:14:24Z</time>
  <course>196.35</course>
  <speed>1.0183319694480775</speed>
  <fix>3d</fix>
</trkpt>
<trkpt lat="33.8107418" lon="-118.3948686">
  <ele>-24.41</ele>
  <time>2026-09-01T01:14:24Z</time>
  <course>106.25</course>
  <speed>1.0</speed>
  <fix>3d</fix>
</trkpt>
<trkpt lat="33.8107408" lon="-118.3948649">
  <ele>-25.014</ele>
  <time>2026-09-01T01:14:24Z</time>
  <course>196.46</course>
  <speed>1.0183319694480775</speed>
  <fix>3d</fix>
</trkpt>
<trkpt lat="33.8107413" lon="-118.3948665">
  <ele>-24.4</ele>
  <time>2026-09-01T01:14:24Z</time>
  <course>106.47</course>
  <speed>1.0</speed>
  <fix>3d</fix>
</trkpt>
<trkpt lat="33.8107405" lon="-118.3948639">
  <ele>-25.014</ele>
  <time>2026-09-01T01:14:24Z</time>
  <course>196.58</course>
  <speed>1.0183319694480775</speed>
  <fix>3d</fix>
</trkpt>
<trkpt lat="33.8107413" lon="-118.3948665">
  <ele>-24.4</ele>
  <time>2026-09-01T01:14:24Z</time>
  <course>106.47</course>
  <speed>1.0</speed>
  <fix>3d</fix>
</trkpt>
<trkpt lat="33.8107402" lon="-118.3948628">
  <ele>-25.013</ele>
  <time>2026-09-01T01:14:24Z</time>
  <course>196.69</course>
  <speed>1.0183319694480775</speed>
  <fix>3d</fix>
</trkpt>
<trkpt lat="33.8107408" lon="-118.3948644">
  <ele>-24.4</ele>
  <time>2026-09-01T01:14:24Z</time>
  <course>106.68</course>
  <speed>1.0</speed>
  <fix>3d</fix>
</trkpt>
<trkpt lat="33.81074" lon="-118.3948618">
  <ele>-25.011</ele>
  <time>2026-09-01T01:14:24Z</time>
  <course>196.81</course>
  <speed>1.0183319694480775</speed>
  <fix>3d</fix>
</trkpt>
<trkpt lat="33.8107408" lon="-118.3948644">
  <ele>-24.4</ele>
  <time>2026-09-01T01:14:24Z</time>
  <course>106.68</course>
  <speed>1.0</speed>
  <fix>3d</fix>
</trkpt>
<trkpt lat="33.8107397" lon="-118.3948608">
  <ele>-25.01</ele>
  <time>2026-09-01T01:14:24Z</time>
  <course>196.92</course>
  <speed>1.021420579389313</speed>
  <fix>3d</fix>
</trkpt>
<trkpt lat="33.8107402" lon="-118.3948623">
  <ele>-24.4</ele>
  <time>2026-09-01T01:14:24Z</time>
  <course>106.92</course>
  <speed>1.0</speed>
  <fix>3d</fix>
</trkpt>
<trkpt lat="33.8107395" lon="-118.3948597">
  <ele>-25.009</ele>
  <time>2026-09-01T01:14:24Z</time>
  <course>197.04</course>
  <speed>1.021420579389313</speed>
  <fix>3d</fix>
</trkpt>
<trkpt lat="33.8107402" lon="-118.3948623">
  <ele>-24.4</ele>
  <time>2026-09-01T01:14:24Z</time>
  <course>106.92</course>
  <speed>1.0</speed>
  <fix>3d</fix>
</trkpt>
<trkpt lat="33.8107392" lon="-118.3948587">
  <ele>-25.009</ele>
  <time>2026-09-01T01:14:24Z</time>
  <course>197.15</course>
  <speed>1.021420579389313</speed>
  <fix>3d</fix>
</trkpt>
<trkpt lat="33.8107397" lon="-118.3948603">
  <ele>-24.4</ele>
  <time>2026-09-01T01:14:24Z</time>
  <course>107.14</course>
  <speed>1.0</speed>
  <fix>3d</fix>
</trkpt>
<trkpt lat="33.8107389" lon="-118.3948577">
  <ele>-25.009</ele>
  <time>2026-09-01T01:14:24Z</time>
  <course>197.26</course>
  <speed>1.021420579389313</speed>
  <fix>3d</fix>
</trkpt>
<trkpt lat="33.8107397" lon="-118.3948603">
  <ele>-24.4</ele>
  <time>2026-09-01T01:14:24Z</time>
  <course>107.14</course>
  <speed>1.0</speed>
  <fix>3d</fix>
</trkpt>
<trkpt lat="33.8107387" lon="-118.3948567">
  <ele>-25.009</ele>
  <time>2026-09-01T01:14:24Z</time>
  <course>197.38</course>
  <speed>1.021420579389313</speed>
  <fix>3d</fix>
</trkpt>
<trkpt lat="33.8107392" lon="-118.3948582">
  <ele>-24.41</ele>
  <time>2026-09-01T01:14:24Z</time>
  <course>107.29</course>
  <speed>1.0</speed>
  <fix>3d</fix>
</trkpt>
<trkpt lat="33.8107384" lon="-118.3948556">
  <ele>-25.009</ele>
  <time>2026-09-01T01:14:24Z</time>
  <course>197.49</course>
  <speed>1.0245974819410792</speed>
  <fix>3d</fix>
</trkpt>
<trkpt lat="33.8107392" lon="-118.3948582">
  <ele>-24.41</ele>
  <time>2026-09-01T01:14:24Z</time>
  <course>107.29</course>
  <speed>1.0</speed>
  <fix>3d</fix>
</trkpt>
<trkpt lat="33.8107381" lon="-118.3948546">
  <ele>-25.009</ele>
  <time>2026-09-01T01:14:24Z</time>
  <course>197.61</course>
  <speed>1.0245974819410792</speed>
  <fix>3d</fix>
</trkpt>
<trkpt lat="33.8107387" lon="-118.3948561">
  <ele>-24.41</ele>
  <time>2026-09-01T01:14:24Z</time>
  <course>107.48</course>
  <speed>1.0</speed>
  <fix>3d</fix>
</trkpt>
<trkpt lat="33.8107378" lon="-118.3948536">
  <ele>-25.009</ele>
  <time>2026-09-01T01:14:24Z</time>
  <course>197.72</course>
  <speed>1.0151354589413177</speed>
  <fix>3d</fix>
</trkpt>
<trkpt lat="33.8107387" lon="-118.3948561">
  <ele>-24.41</ele>
  <time>2026-09-01T01:14:24Z</time>
  <course>107.48</course>
  <speed>1.0</speed>
  <fix>3d</fix>
</trkpt>
<trkpt lat="33.8107376" lon="-118.3948525">
  <ele>-25.011</ele>
  <time>2026-09-01T01:14:24Z</time>
  <course>197.84</course>
  <speed>1.0151354589413177</speed>
  <fix>3d</fix>
</trkpt>
<trkpt lat="33.8107381" lon="-118.3948541">
  <ele>-24.41</ele>
  <time>2026-09-01T01:14:24Z</time>
  <course>107.74</course>
  <speed>1.0</speed>
  <fix>3d</fix>
</trkpt>
<trkpt lat="33.8107373" lon="-118.3948515">
  <ele>-25.013</ele>
  <time>2026-09-01T01:14:24Z</time>
  <course>197.95</course>
  <speed>1.0151354589413177</speed>
  <fix>3d</fix>
</trkpt>
<trkpt lat="33.8107381" lon="-118.3948541">
  <ele>-24.41</ele>
  <time>2026-09-01T01:14:24Z</time>
  <course>107.74</course>
  <speed>1.0</speed>
  <fix>3d</fix>
</trkpt>
<trkpt lat="33.810737" lon="-118.3948505">
  <ele>-25.015</ele>
  <time>2026-09-01T01:14:24Z</time>
  <course>198.06</course>
  <speed>1.0151354589413177</speed>
  <fix>3d</fix>
</trkpt>
<trkpt lat="33.8107375" lon="-118.394852">
  <ele>-24.42</ele>
  <time>2026-09-01T01:14:24Z</time>
  <course>107.98</course>
  <speed>1.0</speed>
  <fix>3d</fix>
</trkpt>
<trkpt lat="33.8107367" lon="-118.3948495">
  <ele>-25.016</ele>
  <time>2026-09-01T01:14:24Z</time>
  <course>198.18</course>
  <speed>1.0184301645179212</speed>
  <fix>3d</fix>
</trkpt>
<trkpt lat="33.8107375" lon="-118.394852">
  <ele>-24.42</ele>
  <time>2026-09-01T01:14:24Z</time>
  <course>107.98</course>
  <speed>1.0</speed>
  <fix>3d</fix>
</trkpt>
<trkpt lat="33.8107364" lon="-118.3948484">
  <ele>-25.016</ele>
  <time>2026-09-01T01:14:24Z</time>
  <course>198.29</course>
  <speed>1.0184301645179212</speed>
  <fix>3d</fix>
</trkpt>
<trkpt lat="33.810737" lon="-118.3948499">
  <ele>-24.42</ele>
  <time>2026-09-01T01:14:24Z</time>
  <course>108.18</course>
  <speed>1.0</speed>
  <fix>3d</fix>
</trkpt>
<trkpt lat="33.8107361" lon="-118.3948474">
  <ele>-25.016</ele>
  <time>2026-09-01T01:14:24Z</time>
  <course>198.41</course>
  <speed>1.0184301645179212</speed>
  <fix>3d</fix>
</trkpt>
<trkpt lat="33.810737" lon="-118.3948499">
  <ele>-24.42</ele>
  <time>2026-09-01T01:14:24Z</time>
  <course>108.18</course>
  <speed>1.0</speed>
  <fix>3d</fix>
</trkpt>
<trkpt lat="33.8107359" lon="-118.3948464">
  <ele>-25.015</ele>
  <time>2026-09-01T01:14:24Z</time>
  <course>198.52</course>
  <speed>1.0184301645179212</speed>
  <fix>3d</fix>
</trkpt>
<trkpt lat="33.8107365" lon="-118.3948478">
  <ele>-24.42</ele>
  <time>2026-09-01T01:14:24Z</time>
  <course>108.39</course>
  <speed>1.0</speed>
  <fix>3d</fix>
</trkpt>
<trkpt lat="33.8107356" lon="-118.3948453">
  <ele>-25.015</ele>
  <time>2026-09-01T01:14:24Z</time>
  <course>198.63</course>
  <speed>1.0218121158021176</speed>
  <fix>3d</fix>
</trkpt>
<trkpt lat="33.8107365" lon="-118.3948478">
  <ele>-24.42</ele>
  <time>2026-09-01T01:14:24Z</time>
  <course>108.39</course>
  <speed>1.0</speed>
  <fix>3d</fix>
</trkpt>
<trkpt lat="33.8107353" lon="-118.3948443">
  <ele>-25.015</ele>
  <time>2026-09-01T01:14:24Z</time>
  <course>198.75</course>
  <speed>1.0218121158021176</speed>
  <fix>3d</fix>
</trkpt>
<trkpt lat="33.8107359" lon="-118.3948458">
  <ele>-24.42</ele>
  <time>2026-09-01T01:14:24Z</time>
  <course>108.68</course>
  <speed>1.0</speed>
  <fix>3d</fix>
</trkpt>
<trkpt lat="33.810735" lon="-118.3948433">
  <ele>-25.016</ele>
  <time>2026-09-01T01:14:24Z</time>
  <course>198.86</course>
  <speed>1.0124228365658294</speed>
  <fix>3d</fix>
</trkpt>
<trkpt lat="33.8107359" lon="-118.3948458">
  <ele>-24.42</ele>
  <time>2026-09-01T01:14:24Z</time>
  <course>108.68</course>
  <speed>1.0</speed>
  <fix>3d</fix>
</trkpt>
<trkpt lat="33.8107347" lon="-118.3948423">
  <ele>-25.016</ele>
  <time>2026-09-01T01:14:24Z</time>
  <course>198.98</course>
  <speed>1.0124228365658294</speed>
  <fix>3d</fix>
</trkpt>
<trkpt lat="33.8107353" lon="-118.3948437">
  <ele>-24.42</ele>
  <time>2026-09-01T01:14:24Z</time>
  <course>109.03</course>
  <speed>1.0</speed>
  <fix>3d</fix>
</trkpt>
<trkpt lat="33.8107344" lon="-118.3948412">
  <ele>-25.016</ele>
  <time>2026-09-01T01:14:24Z</time>
  <course>199.1</course>
  <speed>1.0159232254457027</speed>
  <fix>3d</fix>
</trkpt>
<trkpt lat="33.8107353" lon="-118.3948437">
  <ele>-24.42</ele>
  <time>2026-09-01T01:14:24Z</time>
  <course>109.03</course>
  <speed>1.0</speed>
  <fix>3d</fix>
</trkpt>
<trkpt lat="33.8107341" lon="-118.3948402">
  <ele>-25.016</ele>
  <time>2026-09-01T01:14:24Z</time>
  <course>199.21</course>
  <speed>1.0159232254457027</speed>
  <fix>3d</fix>
</trkpt>
<trkpt lat="33.8107347" lon="-118.3948417">
  <ele>-24.42</ele>
  <time>2026-09-01T01:14:24Z</time>
  <course>109.33</course>
  <speed>1.0</speed>
  <fix>3d</fix>
</trkpt>
<trkpt lat="33.8107338" lon="-118.3948392">
  <ele>-25.017</ele>
  <time>2026-09-01T01:14:24Z</time>
  <course>199.32</course>
  <speed>1.0159232254457027</speed>
  <fix>3d</fix>
</trkpt>
<trkpt lat="33.8107347" lon="-118.3948417">
  <ele>-24.42</ele>
  <time>2026-09-01T01:14:24Z</time>
  <course>109.33</course>
  <speed>1.0</speed>
  <fix>3d</fix>
</trkpt>
<trkpt lat="33.8107335" lon="-118.3948382">
  <ele>-25.017</ele>
  <time>2026-09-01T01:14:24Z</time>
  <course>199.44</course>
  <speed>1.0159232254457027</speed>
  <fix>3d</fix>
</trkpt>
<trkpt lat="33.8107341" lon="-118.3948396">
  <ele>-24.42</ele>
  <time>2026-09-01T01:14:24Z</time>
  <course>109.59</course>
  <speed>1.0</speed>
  <fix>3d</fix>
</trkpt>
<trkpt lat="33.8107332" lon="-118.3948372">
  <ele>-25.018</ele>
  <time>2026-09-01T01:14:24Z</time>
  <course>199.55</course>
  <speed>1.0159232254457027</speed>
  <fix>3d</fix>
</trkpt>
<trkpt lat="33.8107341" lon="-118.3948396">
  <ele>-24.42</ele>
  <time>2026-09-01T01:14:24Z</time>
  <course>109.59</course>
  <speed>1.0</speed>
  <fix>3d</fix>
</trkpt>
<trkpt lat="33.8107329" lon="-118.3948361">
  <ele>-25.018</ele>
  <time>2026-09-01T01:14:24Z</time>
  <course>199.67</course>
  <speed>1.0159232254457027</speed>
  <fix>3d</fix>
</trkpt>
<trkpt lat="33.8107335" lon="-118.3948376">
  <ele>-24.42</ele>
  <time>2026-09-01T01:14:24Z</time>
  <course>109.82</course>
  <speed>1.0</speed>
  <fix>3d</fix>
</trkpt>
<trkpt lat="33.8107326" lon="-118.3948351">
  <ele>-25.018</ele>
  <time>2026-09-01T01:14:24Z</time>
  <course>199.79</course>
  <speed>1.0195096860746347</speed>
  <fix>3d</fix>
</trkpt>
<trkpt lat="33.8107335" lon="-118.3948376">
  <ele>-24.42</ele>
  <time>2026-09-01T01:14:24Z</time>
  <course>109.82</course>
  <speed>1.0</speed>
  <fix>3d</fix>
</trkpt>
<trkpt lat="33.8107323" lon="-118.3948341">
  <ele>-25.018</ele>
  <time>2026-09-01T01:14:24Z</time>
  <course>199.9</course>
  <speed>1.0195096860746347</speed>
  <fix>3d</fix>
</trkpt>
<trkpt lat="33.8107329" lon="-118.3948355">
  <ele>-24.42</ele>
  <time>2026-09-01T01:14:24Z</time>
  <course>110.04</course>
  <speed>1.0</speed>
  <fix>3d</fix>
</trkpt>
<trkpt lat="33.810732" lon="-118.3948331">
  <ele>-25.018</ele>
  <time>2026-09-01T01:14:24Z</time>
  <course>200.02</course>
  <speed>1.0195096860746347</speed>
  <fix>3d</fix>
</trkpt>
<trkpt lat="33.8107329" lon="-118.3948355">
  <ele>-24.42</ele>
  <time>2026-09-01T01:14:24Z</time>
  <course>110.04</course>
  <speed>1.0</speed>
  <fix>3d</fix>
</trkpt>
<trkpt lat="33.8107317" lon="-118.3948321">
  <ele>-25.018</ele>
  <time>2026-09-01T01:14:24Z</time>
  <course>200.13</course>
  <speed>1.0195096860746347</speed>
  <fix>3d</fix>
</trkpt>
<trkpt lat="33.8107323" lon="-118.3948335">
  <ele>-24.41</ele>
  <time>2026-09-01T01:14:24Z</time>
  <course>110.27</course>
  <speed>1.0</speed>
  <fix>3d</fix>
</trkpt>
<trkpt lat="33.8107313" lon="-118.3948311">
  <ele>-25.017</ele>
  <time>2026-09-01T01:14:24Z</time>
  <course>200.24</course>
  <speed>1.010198000393982</speed>
  <fix>3d</fix>
</trkpt>
<trkpt lat="33.8107323" lon="-118.3948335">
  <ele>-24.41</ele>
  <time>2026-09-01T01:14:24Z</time>
  <course>110.27</course>
  <speed>1.0</speed>
  <fix>3d</fix>
</trkpt>
<trkpt lat="33.810731" lon="-118.39483">
  <ele>-25.015</ele>
  <time>2026-09-01T01:14:24Z</time>
  <course>200.36</course>
  <speed>1.010198000393982</speed>
  <fix>3d</fix>
</trkpt>
<trkpt lat="33.8107316" lon="-118.3948315">
  <ele>-24.41</ele>
  <time>2026-09-01T01:14:24Z</time>
  <course>110.53</course>
  <speed>1.0</speed>
  <fix>3d</fix>
</trkpt>
<trkpt lat="33.8107307" lon="-118.394829">
  <ele>-25.013</ele>
  <time>2026-09-01T01:14:24Z</time>
  <course>200.47</course>
  <speed>1.0139033484509261</speed>
  <fix>3d</fix>
</trkpt>
<trkpt lat="33.8107316" lon="-118.3948315">
  <ele>-24.41</ele>
  <time>2026-09-01T01:14:24Z</time>
  <course>110.53</course>
  <speed>1.0</speed>
  <fix>3d</fix>
</trkpt>
<trkpt lat="33.8107304" lon="-118.394828">
  <ele>-25.013</ele>
  <time>2026-09-01T01:14:24Z</time>
  <course>200.59</course>
  <speed>1.0139033484509261</speed>
  <fix>3d</fix>
</trkpt>
<trkpt lat="33.810731" lon="-118.3948294">
  <ele>-24.41</ele>
  <time>2026-09-01T01:14:24Z</time>
  <course>110.76</course>
  <speed>1.0</speed>
  <fix>3d</fix>
</trkpt>
<trkpt lat="33.8107301" lon="-118.394827">
  <ele>-25.013</ele>
  <time>2026-09-01T01:14:24Z</time>
  <course>200.7</course>
  <speed>1.0139033484509261</speed>
  <fix>3d</fix>
</trkpt>
<trkpt lat="33.810731" lon="-118.3948294">
  <ele>-24.41</ele>
  <time>2026-09-01T01:14:24Z</time>
  <course>110.76</course>
  <speed>1.0</speed>
  <fix>3d</fix>
</trkpt>
<trkpt lat="33.8107297" lon="-118.394826">
  <ele>-25.013</ele>
  <time>2026-09-01T01:14:24Z</time>
  <course>200.82</course>
  <speed>1.0139033484509261</speed>
  <fix>3d</fix>
</trkpt>
<trkpt lat="33.8107303" lon="-118.3948274">
  <ele>-24.41</ele>
  <time>2026-09-01T01:14:24Z</time>
  <course>110.96</course>
  <speed>1.0</speed>
  <fix>3d</fix>
</trkpt>
<trkpt lat="33.8107294" lon="-118.394825">
  <ele>-25.013</ele>
  <time>2026-09-01T01:14:24Z</time>
  <course>200.93</course>
  <speed>1.0139033484509261</speed>
  <fix>3d</fix>
</trkpt>
<trkpt lat="33.8107303" lon="-118.3948274">
  <ele>-24.41</ele>
  <time>2026-09-01T01:14:24Z</time>
  <course>110.96</course>
  <speed>1.0</speed>
  <fix>3d</fix>
</trkpt>
<trkpt lat="33.8107291" lon="-118.394824">
  <ele>-25.014</ele>
  <time>2026-09-01T01:14:24Z</time>
  <course>201.04</course>
  <speed>1.0139033484509261</speed>
  <fix>3d</fix>
</trkpt>
<trkpt lat="33.8107296" lon="-118.3948254">
  <ele>-24.41</ele>
  <time>2026-09-01T01:14:24Z</time>
  <course>111.14</course>
  <speed>1.0</speed>
  <fix>3d</fix>
</trkpt>
<trkpt lat="33.8107288" lon="-118.394823">
  <ele>-25.014</ele>
  <time>2026-09-01T01:14:24Z</time>
  <course>201.16</course>
  <speed>1.0139033484509261</speed>
  <fix>3d</fix>
</trkpt>
<trkpt lat="33.8107296" lon="-118.3948254">
  <ele>-24.41</ele>
  <time>2026-09-01T01:14:24Z</time>
  <course>111.14</course>
  <speed>1.0</speed>
  <fix>3d</fix>
</trkpt>
<trkpt lat="33.8107284" lon="-118.394822">
  <ele>-25.015</ele>
  <time>2026-09-01T01:14:24Z</time>
  <course>201.27</course>
  <speed>1.0176934705499492</speed>
  <fix>3d</fix>
</trkpt>
<trkpt lat="33.810729" lon="-118.3948234">
  <ele>-24.41</ele>
  <time>2026-09-01T01:14:24Z</time>
  <course>111.27</course>
  <speed>1.0</speed>
  <fix>3d</fix>
</trkpt>
<trkpt lat="33.8107281" lon="-118.3948209">
  <ele>-25.015</ele>
  <time>2026-09-01T01:14:24Z</time>
  <course>201.39</course>
  <speed>1.0176934705499492</speed>
  <fix>3d</fix>
</trkpt>
<trkpt lat="33.810729" lon="-118.3948234">
  <ele>-24.41</ele>
  <time>2026-09-01T01:14:24Z</time>
  <course>111.27</course>
  <speed>1.0</speed>
  <fix>3d</fix>
</trkpt>
<trkpt lat="33.8107278" lon="-118.3948199">
  <ele>-25.016</ele>
  <time>2026-09-01T01:14:24Z</time>
  <course>201.5</course>
  <speed>1.0176934705499492</speed>
  <fix>3d</fix>
</trkpt>
<trkpt lat="33.8107284" lon="-118.3948213">
  <ele>-24.41</ele>
  <time>2026-09-01T01:14:24Z</time>
  <course>111.39</course>
  <speed>1.0</speed>
  <fix>3d</fix>
</trkpt>
<trkpt lat="33.8107274" lon="-118.3948189">
  <ele>-25.016</ele>
  <time>2026-09-01T01:14:24Z</time>
  <course>201.62</course>
  <speed>1.0084641788382966</speed>
  <fix>3d</fix>
</trkpt>
<trkpt lat="33.8107284" lon="-118.3948213">
  <ele>-24.41</ele>
  <time>2026-09-01T01:14:24Z</time>
  <course>111.39</course>
  <speed>1.0</speed>
  <fix>3d</fix>
</trkpt>
<trkpt lat="33.8107271" lon="-118.3948179">
  <ele>-25.015</ele>
  <time>2026-09-01T01:14:24Z</time>
  <course>201.73</course>
  <speed>1.0084641788382966</speed>
  <fix>3d</fix>
</trkpt>
<trkpt lat="33.8107277" lon="-118.3948193">
  <ele>-24.4</ele>
  <time>2026-09-01T01:14:24Z</time>
  <course>111.57</course>
  <speed>1.0</speed>
  <fix>3d</fix>
</trkpt>
<trkpt lat="33.8107268" lon="-118.3948169">
  <ele>-25.014</ele>
  <time>2026-09-01T01:14:24Z</time>
  <course>201.85</course>
  <speed>1.0084641788382966</speed>
  <fix>3d</fix>
</trkpt>
<trkpt lat="33.8107277" lon="-118.3948193">
  <ele>-24.4</ele>
  <time>2026-09-01T01:14:24Z</time>
  <course>111.57</course>
  <speed>1.0</speed>
  <fix>3d</fix>
</trkpt>
<trkpt lat="33.8107264" lon="-118.3948159">
  <ele>-25.013</ele>
  <time>2026-09-01T01:14:24Z</time>
  <course>201.96</course>
  <speed>1.0123734488813898</speed>
  <fix>3d</fix>
</trkpt>
<trkpt lat="33.810727" lon="-118.3948173">
  <ele>-24.4</ele>
  <time>2026-09-01T01:14:24Z</time>
  <course>111.81</course>
  <speed>1.0</speed>
  <fix>3d</fix>
</trkpt>
<trkpt lat="33.8107261" lon="-118.3948149">
  <ele>-25.012</ele>
  <time>2026-09-01T01:14:24Z</time>
  <course>202.08</course>
  <speed>1.0123734488813898</speed>
  <fix>3d</fix>
</trkpt>
<trkpt lat="33.810727" lon="-118.3948173">
  <ele>-24.4</ele>
  <time>2026-09-01T01:14:24Z</time>
  <course>111.81</course>
  <speed>1.0</speed>
  <fix>3d</fix>
</trkpt>
<trkpt lat="33.8107257" lon="-118.3948139">
  <ele>-25.01</ele>
  <time>2026-09-01T01:14:24Z</time>
  <course>202.19</course>
  <speed>1.0123734488813898</speed>
  <fix>3d</fix>
</trkpt>
<trkpt lat="33.8107263" lon="-118.3948153">
  <ele>-24.4</ele>
  <time>2026-09-01T01:14:24Z</time>
  <course>112.05</course>
  <speed>1.0</speed>
  <fix>3d</fix>
</trkpt>
<trkpt lat="33.8107254" lon="-118.3948129">
  <ele>-25.009</ele>
  <time>2026-09-01T01:14:24Z</time>
  <course>202.31</course>
  <speed>1.0123734488813898</speed>
  <fix>3d</fix>
</trkpt>
<trkpt lat="33.8107263" lon="-118.3948153">
  <ele>-24.4</ele>
  <time>2026-09-01T01:14:24Z</time>
  <course>112.05</course>
  <speed>1.0</speed>
  <fix>3d</fix>
</trkpt>
<trkpt lat="33.810725" lon="-118.3948119">
  <ele>-25.008</ele>
  <time>2026-09-01T01:14:24Z</time>
  <course>202.42</course>
  <speed>1.0123734488813898</speed>
  <fix>3d</fix>
</trkpt>
<trkpt lat="33.8107257" lon="-118.3948133">
  <ele>-24.4</ele>
  <time>2026-09-01T01:14:24Z</time>
  <course>112.25</course>
  <speed>0.99</speed>
  <fix>3d</fix>
</trkpt>
<trkpt lat="33.8107247" lon="-118.3948109">
  <ele>-25.007</ele>
  <time>2026-09-01T01:14:24Z</time>
  <course>202.54</course>
  <speed>1.016366075781753</speed>
  <fix>3d</fix>
</trkpt>
<trkpt lat="33.8107257" lon="-118.3948133">
  <ele>-24.4</ele>
  <time>2026-09-01T01:14:24Z</time>
  <course>112.25</course>
  <speed>0.99</speed>
  <fix>3d</fix>
</trkpt>
<trkpt lat="33.8107244" lon="-118.3948099">
  <ele>-25.007</ele>
  <time>2026-09-01T01:14:24Z</time>
  <course>202.65</course>
  <speed>1.016366075781753</speed>
  <fix>3d</fix>
</trkpt>
<trkpt lat="33.810725" lon="-118.3948112">
  <ele>-24.4</ele>
  <time>2026-09-01T01:14:24Z</time>
  <course>112.47</course>
  <speed>0.99</speed>
  <fix>3d</fix>
</trkpt>
<trkpt lat="33.810724" lon="-118.3948089">
  <ele>-25.007</ele>
  <time>2026-09-01T01:14:24Z</time>
  <course>202.77</course>
  <speed>1.0072239075796403</speed>
  <fix>3d</fix>
</trkpt>
<trkpt lat="33.810725" lon="-118.3948112">
  <ele>-24.4</ele>
  <time>2026-09-01T01:14:24Z</time>
  <course>112.47</course>
  <speed>0.99</speed>
  <fix>3d</fix>
</trkpt>
<trkpt lat="33.8107237" lon="-118.3948079">
  <ele>-25.008</ele>
  <time>2026-09-01T01:14:24Z</time>
  <course>202.88</course>
  <speed>1.0072239075796403</speed>
  <fix>3d</fix>
</trkpt>
<trkpt lat="33.8107243" lon="-118.3948093">
  <ele>-24.4</ele>
  <time>2026-09-01T01:14:24Z</time>
  <course>112.74</course>
  <speed>0.99</speed>
  <fix>3d</fix>
</trkpt>
<trkpt lat="33.8107233" lon="-118.3948069">
  <ele>-25.009</ele>
  <time>2026-09-01T01:14:24Z</time>
  <course>202.99</course>
  <speed>1.0113357503816425</speed>
  <fix>3d</fix>
</trkpt>
<trkpt lat="33.8107243" lon="-118.3948093">
  <ele>-24.4</ele>
  <time>2026-09-01T01:14:24Z</time>
  <course>112.74</course>
  <speed>0.99</speed>
  <fix>3d</fix>
</trkpt>
<trkpt lat="33.810723" lon="-118.3948059">
  <ele>-25.009</ele>
  <time>2026-09-01T01:14:24Z</time>
  <course>203.11</course>
  <speed>1.0113357503816425</speed>
  <fix>3d</fix>
</trkpt>
<trkpt lat="33.8107236" lon="-118.3948073">
  <ele>-24.4</ele>
  <time>2026-09-01T01:14:24Z</time>
  <course>113.03</course>
  <speed>0.99</speed>
  <fix>3d</fix>
</trkpt>
<trkpt lat="33.8107226" lon="-118.3948049">
  <ele>-25.011</ele>
  <time>2026-09-01T01:14:24Z</time>
  <course>203.22</course>
  <speed>1.0113357503816425</speed>
  <fix>3d</fix>
</trkpt>
<trkpt lat="33.8107236" lon="-118.3948073">
  <ele>-24.4</ele>
  <time>2026-09-01T01:14:24Z</time>
  <course>113.03</course>
  <speed>0.99</speed>
  <fix>3d</fix>
</trkpt>
<trkpt lat="33.8107222" lon="-118.3948039">
  <ele>-25.013</ele>
  <time>2026-09-01T01:14:24Z</time>
  <course>203.34</course>
  <speed>1.0113357503816425</speed>
  <fix>3d</fix>
</trkpt>
<trkpt lat="33.8107229" lon="-118.3948053">
  <ele>-24.41</ele>
  <time>2026-09-01T01:14:24Z</time>
  <course>113.29</course>
  <speed>0.99</speed>
  <fix>3d</fix>
</trkpt>
<trkpt lat="33.8107219" lon="-118.3948029">
  <ele>-25.013</ele>
  <time>2026-09-01T01:14:24Z</time>
  <course>203.45</course>
  <speed>1.0113357503816425</speed>
  <fix>3d</fix>
</trkpt>
<trkpt lat="33.8107229" lon="-118.3948053">
  <ele>-24.41</ele>
  <time>2026-09-01T01:14:24Z</time>
  <course>113.29</course>
  <speed>0.99</speed>
  <fix>3d</fix>
</trkpt>
<trkpt lat="33.8107215" lon="-118.394802">
  <ele>-25.013</ele>
  <time>2026-09-01T01:14:24Z</time>
  <course>203.57</course>
  <speed>1.0113357503816425</speed>
  <fix>3d</fix>
</trkpt>
<trkpt lat="33.8107222" lon="-118.3948033">
  <ele>-24.41</ele>
  <time>2026-09-01T01:14:24Z</time>
  <course>113.54</course>
  <speed>0.99</speed>
  <fix>3d</fix>
</trkpt>
<trkpt lat="33.8107212" lon="-118.394801">
  <ele>-25.014</ele>
  <time>2026-09-01T01:14:24Z</time>
  <course>203.68</course>
  <speed>1.0155294185792945</speed>
  <fix>3d</fix>
</trkpt>
<trkpt lat="33.8107222" lon="-118.3948033">
  <ele>-24.41</ele>
  <time>2026-09-01T01:14:24Z</time>
  <course>113.54</course>
  <speed>0.99</speed>
  <fix>3d</fix>
</trkpt>
<trkpt lat="33.8107208" lon="-118.3948">
  <ele>-25.014</ele>
  <time>2026-09-01T01:14:24Z</time>
  <course>203.8</course>
  <speed>1.0155294185792945</speed>
  <fix>3d</fix>
</trkpt>
<trkpt lat="33.8107215" lon="-118.3948014">
  <ele>-24.42</ele>
  <time>2026-09-01T01:14:24Z</time>
  <course>113.79</course>
  <speed>0.99</speed>
  <fix>3d</fix>
</trkpt>
<trkpt lat="33.8107204" lon="-118.394799">
  <ele>-25.015</ele>
  <time>2026-09-01T01:14:24Z</time>
  <course>203.91</course>
  <speed>1.0155294185792945</speed>
  <fix>3d</fix>
</trkpt>
<trkpt lat="33.8107215" lon="-118.3948014">
  <ele>-24.42</ele>
  <time>2026-09-01T01:14:24Z</time>
  <course>113.79</course>
  <speed>0.99</speed>
  <fix>3d</fix>
</trkpt>
<trkpt lat="33.8107201" lon="-118.394798">
  <ele>-25.015</ele>
  <time>2026-09-01T01:14:24Z</time>
  <course>204.02</course>
  <speed>1.0064790112068907</speed>
  <fix>3d</fix>
</trkpt>
<trkpt lat="33.8107208" lon="-118.3947994">
  <ele>-24.42</ele>
  <time>2026-09-01T01:14:24Z</time>
  <course>114.05</course>
  <speed>0.99</speed>
  <fix>3d</fix>
</trkpt>
<trkpt lat="33.8107197" lon="-118.394797">
  <ele>-25.016</ele>
  <time>2026-09-01T01:14:24Z</time>
  <course>204.14</course>
  <speed>1.0107917688624102</speed>
  <fix>3d</fix>
</trkpt>
<trkpt lat="33.8107208" lon="-118.3947994">
  <ele>-24.42</ele>
  <time>2026-09-01T01:14:24Z</time>
  <course>114.05</course>
  <speed>0.99</speed>
  <fix>3d</fix>
</trkpt>
<trkpt lat="33.8107193" lon="-118.394796">
  <ele>-25.017</ele>
  <time>2026-09-01T01:14:24Z</time>
  <course>204.25</course>
  <speed>1.0107917688624102</speed>
  <fix>3d</fix>
</trkpt>
<trkpt lat="33.81072" lon="-118.3947974">
  <ele>-24.42</ele>
  <time>2026-09-01T01:14:24Z</time>
  <course>114.32</course>
  <speed>0.99</speed>
  <fix>3d</fix>
</trkpt>
<trkpt lat="33.8107189" lon="-118.394795">
  <ele>-25.017</ele>
  <time>2026-09-01T01:14:24Z</time>
  <course>204.37</course>
  <speed>1.0107917688624102</speed>
  <fix>3d</fix>
</trkpt>
<trkpt lat="33.81072" lon="-118.3947974">
  <ele>-24.42</ele>
  <time>2026-09-01T01:14:24Z</time>
  <course>114.32</course>
  <speed>0.99</speed>
  <fix>3d</fix>
</trkpt>
<trkpt lat="33.8107186" lon="-118.3947941">
  <ele>-25.018</ele>
  <time>2026-09-01T01:14:24Z</time>
  <course>204.48</course>
  <speed>1.0107917688624102</speed>
  <fix>3d</fix>
</trkpt>
<trkpt lat="33.8107193" lon="-118.3947954">
  <ele>-24.42</ele>
  <time>2026-09-01T01:14:24Z</time>
  <course>114.57</course>
  <speed>0.99</speed>
  <fix>3d</fix>
</trkpt>
<trkpt lat="33.8107182" lon="-118.3947931">
  <ele>-25.019</ele>
  <time>2026-09-01T01:14:25Z</time>
  <course>204.6</course>
  <speed>1.0107917688624102</speed>
  <fix>3d</fix>
</trkpt>
<trkpt lat="33.8107193" lon="-118.3947954">
  <ele>-24.42</ele>
  <time>2026-09-01T01:14:25Z</time>
  <course>114.57</course>
  <speed>0.99</speed>
  <fix>3d</fix>
</trkpt>
<trkpt lat="33.8107178" lon="-118.3947921">
  <ele>-25.019</ele>
  <time>2026-09-01T01:14:25Z</time>
  <course>204.71</course>
  <speed>1.0151847122568385</speed>
  <fix>3d</fix>
</trkpt>
<trkpt lat="33.8107185" lon="-118.3947935">
  <ele>-24.42</ele>
  <time>2026-09-01T01:14:25Z</time>
  <course>114.82</course>
  <speed>0.99</speed>
  <fix>3d</fix>
</trkpt>
<trkpt lat="33.8107174" lon="-118.3947911">
  <ele>-25.02</ele>
  <time>2026-09-01T01:14:25Z</time>
  <course>204.83</course>
  <speed>1.0151847122568385</speed>
  <fix>3d</fix>
</trkpt>
<trkpt lat="33.8107185" lon="-118.3947935">
  <ele>-24.42</ele>
  <time>2026-09-01T01:14:25Z</time>
  <course>114.82</course>
  <speed>0.99</speed>
  <fix>3d</fix>
</trkpt>
<trkpt lat="33.8107171" lon="-118.3947901">
  <ele>-25.021</ele>
  <time>2026-09-01T01:14:25Z</time>
  <course>204.94</course>
  <speed>1.0151847122568385</speed>
  <fix>3d</fix>
</trkpt>
<trkpt lat="33.8107178" lon="-118.3947915">
  <ele>-24.41</ele>
  <time>2026-09-01T01:14:25Z</time>
  <course>115.05</course>
  <speed>0.99</speed>
  <fix>3d</fix>
</trkpt>
<trkpt lat="33.8107167" lon="-118.3947892">
  <ele>-25.021</ele>
  <time>2026-09-01T01:14:25Z</time>
  <course>205.05</course>
  <speed>1.0151847122568385</speed>
  <fix>3d</fix>
</trkpt>
<trkpt lat="33.8107178" lon="-118.3947915">
  <ele>-24.41</ele>
  <time>2026-09-01T01:14:25Z</time>
  <course>115.05</course>
  <speed>0.99</speed>
  <fix>3d</fix>
</trkpt>
<trkpt lat="33.8107163" lon="-118.3947882">
  <ele>-25.019</ele>
  <time>2026-09-01T01:14:25Z</time>
  <course>205.17</course>
  <speed>1.0151847122568385</speed>
  <fix>3d</fix>
</trkpt>
<trkpt lat="33.810717" lon="-118.3947896">
  <ele>-24.41</ele>
  <time>2026-09-01T01:14:25Z</time>
  <course>115.26</course>
  <speed>0.99</speed>
  <fix>3d</fix>
</trkpt>
<trkpt lat="33.8107159" lon="-118.3947872">
  <ele>-25.016</ele>
  <time>2026-09-01T01:14:25Z</time>
  <course>205.28</course>
  <speed>1.0151847122568385</speed>
  <fix>3d</fix>
</trkpt>
<trkpt lat="33.810717" lon="-118.3947896">
  <ele>-24.41</ele>
  <time>2026-09-01T01:14:25Z</time>
  <course>115.26</course>
  <speed>0.99</speed>
  <fix>3d</fix>
</trkpt>
<trkpt lat="33.8107155" lon="-118.3947862">
  <ele>-25.013</ele>
  <time>2026-09-01T01:14:25Z</time>
  <course>205.4</course>
  <speed>1.0196568050084303</speed>
  <fix>3d</fix>
</trkpt>
<trkpt lat="33.8107162" lon="-118.3947876">
  <ele>-24.4</ele>
  <time>2026-09-01T01:14:25Z</time>
  <course>115.48</course>
  <speed>0.99</speed>
  <fix>3d</fix>
</trkpt>
<trkpt lat="33.8107151" lon="-118.3947853">
  <ele>-25.011</ele>
  <time>2026-09-01T01:14:25Z</time>
  <course>205.51</course>
  <speed>1.0107423014794623</speed>
  <fix>3d</fix>
</trkpt>
<trkpt lat="33.8107162" lon="-118.3947876">
  <ele>-24.4</ele>
  <time>2026-09-01T01:14:25Z</time>
  <course>115.48</course>
  <speed>0.99</speed>
  <fix>3d</fix>
</trkpt>
<trkpt lat="33.8107147" lon="-118.3947843">
  <ele>-25.008</ele>
  <time>2026-09-01T01:14:25Z</time>
  <course>205.63</course>
  <speed>1.0107423014794623</speed>
  <fix>3d</fix>
</trkpt>
<trkpt lat="33.8107155" lon="-118.3947857">
  <ele>-24.4</ele>
  <time>2026-09-01T01:14:25Z</time>
  <course>115.68</course>
  <speed>0.99</speed>
  <fix>3d</fix>
</trkpt>
<trkpt lat="33.8107143" lon="-118.3947833">
  <ele>-25.007</ele>
  <time>2026-09-01T01:14:25Z</time>
  <course>205.74</course>
  <speed>1.0107423014794623</speed>
  <fix>3d</fix>
</trkpt>
<trkpt lat="33.8107155" lon="-118.3947857">
  <ele>-24.4</ele>
  <time>2026-09-01T01:14:25Z</time>
  <course>115.68</course>
  <speed>0.99</speed>
  <fix>3d</fix>
</trkpt>
<trkpt lat="33.8107139" lon="-118.3947823">
  <ele>-25.008</ele>
  <time>2026-09-01T01:14:25Z</time>
  <course>205.86</course>
  <speed>1.0107423014794623</speed>
  <fix>3d</fix>
</trkpt>
<trkpt lat="33.8107147" lon="-118.3947837">
  <ele>-24.4</ele>
  <time>2026-09-01T01:14:25Z</time>
  <course>115.88</course>
  <speed>0.99</speed>
  <fix>3d</fix>
</trkpt>
<trkpt lat="33.8107136" lon="-118.3947814">
  <ele>-25.01</ele>
  <time>2026-09-01T01:14:25Z</time>
  <course>205.97</course>
  <speed>1.015332457867865</speed>
  <fix>3d</fix>
</trkpt>
<trkpt lat="33.8107147" lon="-118.3947837">
  <ele>-24.4</ele>
  <time>2026-09-01T01:14:25Z</time>
  <course>115.88</course>
  <speed>0.99</speed>
  <fix>3d</fix>
</trkpt>
<trkpt lat="33.8107132" lon="-118.3947804">
  <ele>-25.011</ele>
  <time>2026-09-01T01:14:25Z</time>
  <course>206.09</course>
  <speed>1.015332457867865</speed>
  <fix>3d</fix>
</trkpt>
<trkpt lat="33.8107138" lon="-118.3947818">
  <ele>-24.4</ele>
  <time>2026-09-01T01:14:25Z</time>
  <course>116.13</course>
  <speed>0.99</speed>
  <fix>3d</fix>
</trkpt>
<trkpt lat="33.8107127" lon="-118.3947794">
  <ele>-25.013</ele>
  <time>2026-09-01T01:14:25Z</time>
  <course>206.2</course>
  <speed>1.015332457867865</speed>
  <fix>3d</fix>
</trkpt>
<trkpt lat="33.8107138" lon="-118.3947818">
  <ele>-24.4</ele>
  <time>2026-09-01T01:14:25Z</time>
  <course>116.13</course>
  <speed>0.99</speed>
  <fix>3d</fix>
</trkpt>
<trkpt lat="33.8107123" lon="-118.3947785">
  <ele>-25.014</ele>
  <time>2026-09-01T01:14:25Z</time>
  <course>206.32</course>
  <speed>1.015332457867865</speed>
  <fix>3d</fix>
</trkpt>
<trkpt lat="33.8107131" lon="-118.3947799">
  <ele>-24.4</ele>
  <time>2026-09-01T01:14:25Z</time>
  <course>116.34</course>
  <speed>0.99</speed>
  <fix>3d</fix>
</trkpt>
<trkpt lat="33.8107119" lon="-118.3947775">
  <ele>-25.016</ele>
  <time>2026-09-01T01:14:25Z</time>
  <course>206.43</course>
  <speed>1.015332457867865</speed>
  <fix>3d</fix>
</trkpt>
<trkpt lat="33.8107131" lon="-118.3947799">
  <ele>-24.4</ele>
  <time>2026-09-01T01:14:25Z</time>
  <course>116.34</course>
  <speed>0.99</speed>
  <fix>3d</fix>
</trkpt>
<trkpt lat="33.8107115" lon="-118.3947765">
  <ele>-25.017</ele>
  <time>2026-09-01T01:14:25Z</time>
  <course>206.54</course>
  <speed>1.015332457867865</speed>
  <fix>3d</fix>
</trkpt>
<trkpt lat="33.8107123" lon="-118.3947779">
  <ele>-24.41</ele>
  <time>2026-09-01T01:14:25Z</time>
  <course>116.49</course>
  <speed>0.99</speed>
  <fix>3d</fix>
</trkpt>
<trkpt lat="33.8107111" lon="-118.3947756">
  <ele>-25.017</ele>
  <time>2026-09-01T01:14:25Z</time>
  <course>206.66</course>
  <speed>1.015332457867865</speed>
  <fix>3d</fix>
</trkpt>
<trkpt lat="33.8107123" lon="-118.3947779">
  <ele>-24.41</ele>
  <time>2026-09-01T01:14:25Z</time>
  <course>116.49</course>
  <speed>0.99</speed>
  <fix>3d</fix>
</trkpt>
<trkpt lat="33.8107107" lon="-118.3947746">
  <ele>-25.018</ele>
  <time>2026-09-01T01:14:25Z</time>
  <course>206.78</course>
  <speed>1.02</speed>
  <fix>3d</fix>
</trkpt>
<trkpt lat="33.8107114" lon="-118.394776">
  <ele>-24.41</ele>
  <time>2026-09-01T01:14:25Z</time>
  <course>116.69</course>
  <speed>0.99</speed>
  <fix>3d</fix>
</trkpt>
<trkpt lat="33.8107103" lon="-118.3947736">
  <ele>-25.018</ele>
  <time>2026-09-01T01:14:25Z</time>
  <course>206.89</course>
  <speed>1.02</speed>
  <fix>3d</fix>
</trkpt>
<trkpt lat="33.8107114" lon="-118.394776">
  <ele>-24.41</ele>
  <time>2026-09-01T01:14:25Z</time>
  <course>116.69</course>
  <speed>0.99</speed>
  <fix>3d</fix>
</trkpt>
<trkpt lat="33.8107099" lon="-118.3947727">
  <ele>-25.017</ele>
  <time>2026-09-01T01:14:25Z</time>
  <course>207.0</course>
  <speed>1.02</speed>
  <fix>3d</fix>
</trkpt>
<trkpt lat="33.8107107" lon="-118.3947741">
  <ele>-24.4</ele>
  <time>2026-09-01T01:14:25Z</time>
  <course>116.9</course>
  <speed>0.99</speed>
  <fix>3d</fix>
</trkpt>
<trkpt lat="33.8107095" lon="-118.3947717">
  <ele>-25.015</ele>
  <time>2026-09-01T01:14:25Z</time>
  <course>207.12</course>
  <speed>1.0111874208078342</speed>
  <fix>3d</fix>
</trkpt>
<trkpt lat="33.8107107" lon="-118.3947741">
  <ele>-24.4</ele>
  <time>2026-09-01T01:14:25Z</time>
  <course>116.9</course>
  <speed>0.99</speed>
  <fix>3d</fix>
</trkpt>
<trkpt lat="33.8107091" lon="-118.3947707">
  <ele>-25.012</ele>
  <time>2026-09-01T01:14:25Z</time>
  <course>207.23</course>
  <speed>1.0111874208078342</speed>
  <fix>3d</fix>
</trkpt>
<trkpt lat="33.8107099" lon="-118.3947721">
  <ele>-24.4</ele>
  <time>2026-09-01T01:14:25Z</time>
  <course>117.09</course>
  <speed>0.99</speed>
  <fix>3d</fix>
</trkpt>
<trkpt lat="33.8107087" lon="-118.3947698">
  <ele>-25.01</ele>
  <time>2026-09-01T01:14:25Z</time>
  <course>207.35</course>
  <speed>1.0159724405711013</speed>
  <fix>3d</fix>
</trkpt>
<trkpt lat="33.8107099" lon="-118.3947721">
  <ele>-24.4</ele>
  <time>2026-09-01T01:14:25Z</time>
  <course>117.09</course>
  <speed>0.99</speed>
  <fix>3d</fix>
</trkpt>
<trkpt lat="33.8107083" lon="-118.3947688">
  <ele>-25.008</ele>
  <time>2026-09-01T01:14:25Z</time>
  <course>207.46</course>
  <speed>1.0159724405711013</speed>
  <fix>3d</fix>
</trkpt>
<trkpt lat="33.810709" lon="-118.3947702">
  <ele>-24.4</ele>
  <time>2026-09-01T01:14:25Z</time>
  <course>117.34</course>
  <speed>0.99</speed>
  <fix>3d</fix>
</trkpt>
<trkpt lat="33.8107078" lon="-118.3947679">
  <ele>-25.007</ele>
  <time>2026-09-01T01:14:25Z</time>
  <course>207.58</course>
  <speed>1.0159724405711013</speed>
  <fix>3d</fix>
</trkpt>
<trkpt lat="33.810709" lon="-118.3947702">
  <ele>-24.4</ele>
  <time>2026-09-01T01:14:25Z</time>
  <course>117.34</course>
  <speed>0.99</speed>
  <fix>3d</fix>
</trkpt>
<trkpt lat="33.8107074" lon="-118.3947669">
  <ele>-25.007</ele>
  <time>2026-09-01T01:14:25Z</time>
  <course>207.69</course>
  <speed>1.0159724405711013</speed>
  <fix>3d</fix>
</trkpt>
<trkpt lat="33.8107083" lon="-118.3947683">
  <ele>-24.4</ele>
  <time>2026-09-01T01:14:25Z</time>
  <course>117.62</course>
  <speed>0.99</speed>
  <fix>3d</fix>
</trkpt>
<trkpt lat="33.810707" lon="-118.394766">
  <ele>-25.008</ele>
  <time>2026-09-01T01:14:25Z</time>
  <course>207.8</course>
  <speed>1.0159724405711013</speed>
  <fix>3d</fix>
</trkpt>
<trkpt lat="33.8107083" lon="-118.3947683">
  <ele>-24.4</ele>
  <time>2026-09-01T01:14:25Z</time>
  <course>117.62</course>
  <speed>0.99</speed>
  <fix>3d</fix>
</trkpt>
<trkpt lat="33.8107066" lon="-118.394765">
  <ele>-25.009</ele>
  <time>2026-09-01T01:14:25Z</time>
  <course>207.92</course>
  <speed>1.0208329931972222</speed>
  <fix>3d</fix>
</trkpt>
<trkpt lat="33.8107074" lon="-118.3947664">
  <ele>-24.4</ele>
  <time>2026-09-01T01:14:25Z</time>
  <course>117.9</course>
  <speed>0.99</speed>
  <fix>3d</fix>
</trkpt>
<trkpt lat="33.8107062" lon="-118.3947641">
  <ele>-25.01</ele>
  <time>2026-09-01T01:14:25Z</time>
  <course>208.04</course>
  <speed>1.0121264743103995</speed>
  <fix>3d</fix>
</trkpt>
<trkpt lat="33.8107074" lon="-118.3947664">
  <ele>-24.4</ele>
  <time>2026-09-01T01:14:25Z</time>
  <course>117.9</course>
  <speed>0.99</speed>
  <fix>3d</fix>
</trkpt>
<trkpt lat="33.8107057" lon="-118.3947631">
  <ele>-25.012</ele>
  <time>2026-09-01T01:14:25Z</time>
  <course>208.15</course>
  <speed>1.0121264743103995</speed>
  <fix>3d</fix>
</trkpt>
<trkpt lat="33.8107066" lon="-118.3947645">
  <ele>-24.4</ele>
  <time>2026-09-01T01:14:25Z</time>
  <course>118.21</course>
  <speed>0.99</speed>
  <fix>3d</fix>
</trkpt>
<trkpt lat="33.8107053" lon="-118.3947621">
  <ele>-25.014</ele>
  <time>2026-09-01T01:14:25Z</time>
  <course>208.26</course>
  <speed>1.0121264743103995</speed>
  <fix>3d</fix>
</trkpt>
<trkpt lat="33.8107066" lon="-118.3947645">
  <ele>-24.4</ele>
  <time>2026-09-01T01:14:25Z</time>
  <course>118.21</course>
  <speed>0.99</speed>
  <fix>3d</fix>
</trkpt>
<trkpt lat="33.8107049" lon="-118.3947612">
  <ele>-25.016</ele>
  <time>2026-09-01T01:14:25Z</time>
  <course>208.38</course>
  <speed>1.0171037311896953</speed>
  <fix>3d</fix>
</trkpt>
<trkpt lat="33.8107057" lon="-118.3947626">
  <ele>-24.41</ele>
  <time>2026-09-01T01:14:25Z</time>
  <course>118.5</course>
  <speed>1.0</speed>
  <fix>3d</fix>
</trkpt>
<trkpt lat="33.8107044" lon="-118.3947602">
  <ele>-25.017</ele>
  <time>2026-09-01T01:14:25Z</time>
  <course>208.5</course>
  <speed>1.0171037311896953</speed>
  <fix>3d</fix>
</trkpt>
<trkpt lat="33.8107057" lon="-118.3947626">
  <ele>-24.41</ele>
  <time>2026-09-01T01:14:25Z</time>
  <course>118.5</course>
  <speed>1.0</speed>
  <fix>3d</fix>
</trkpt>
<trkpt lat="33.810704" lon="-118.3947593">
  <ele>-25.018</ele>
  <time>2026-09-01T01:14:25Z</time>
  <course>208.61</course>
  <speed>1.0171037311896953</speed>
  <fix>3d</fix>
</trkpt>
<trkpt lat="33.8107048" lon="-118.3947607">
  <ele>-24.41</ele>
  <time>2026-09-01T01:14:25Z</time>
  <course>118.77</course>
  <speed>1.0</speed>
  <fix>3d</fix>
</trkpt>
<trkpt lat="33.8107036" lon="-118.3947584">
  <ele>-25.017</ele>
  <time>2026-09-01T01:14:25Z</time>
  <course>208.73</course>
  <speed>1.0171037311896953</speed>
  <fix>3d</fix>
</trkpt>
<trkpt lat="33.8107048" lon="-118.3947607">
  <ele>-24.41</ele>
  <time>2026-09-01T01:14:25Z</time>
  <course>118.77</course>
  <speed>1.0</speed>
  <fix>3d</fix>
</trkpt>
<trkpt lat="33.8107031" lon="-118.3947574">
  <ele>-25.017</ele>
  <time>2026-09-01T01:14:25Z</time>
  <course>208.84</course>
  <speed>1.0171037311896953</speed>
  <fix>3d</fix>
</trkpt>
<trkpt lat="33.810704" lon="-118.3947588">
  <ele>-24.41</ele>
  <time>2026-09-01T01:14:25Z</time>
  <course>118.98</course>
  <speed>1.0</speed>
  <fix>3d</fix>
</trkpt>
<trkpt lat="33.8107027" lon="-118.3947565">
  <ele>-25.018</ele>
  <time>2026-09-01T01:14:25Z</time>
  <course>208.95</course>
  <speed>1.0171037311896953</speed>
  <fix>3d</fix>
</trkpt>
<trkpt lat="33.810704" lon="-118.3947588">
  <ele>-24.41</ele>
  <time>2026-09-01T01:14:25Z</time>
  <course>118.98</course>
  <speed>1.0</speed>
  <fix>3d</fix>
</trkpt>
<trkpt lat="33.8107023" lon="-118.3947555">
  <ele>-25.018</ele>
  <time>2026-09-01T01:14:25Z</time>
  <course>209.07</course>
  <speed>1.0171037311896953</speed>
  <fix>3d</fix>
</trkpt>
<trkpt lat="33.8107031" lon="-118.3947569">
  <ele>-24.41</ele>
  <time>2026-09-01T01:14:25Z</time>
  <course>119.17</course>
  <speed>1.0</speed>
  <fix>3d</fix>
</trkpt>
<trkpt lat="33.8107018" lon="-118.3947546">
  <ele>-25.017</ele>
  <time>2026-09-01T01:14:25Z</time>
  <course>209.18</course>
  <speed>1.022154587134451</speed>
  <fix>3d</fix>
</trkpt>
<trkpt lat="33.8107031" lon="-118.3947569">
  <ele>-24.41</ele>
  <time>2026-09-01T01:14:25Z</time>
  <course>119.17</course>
  <speed>1.0</speed>
  <fix>3d</fix>
</trkpt>
<trkpt lat="33.8107014" lon="-118.3947536">
  <ele>-25.016</ele>
  <time>2026-09-01T01:14:25Z</time>
  <course>209.3</course>
  <speed>1.022154587134451</speed>
  <fix>3d</fix>
</trkpt>
<trkpt lat="33.8107022" lon="-118.394755">
  <ele>-24.41</ele>
  <time>2026-09-01T01:14:25Z</time>
  <course>119.39</course>
  <speed>1.0</speed>
  <fix>3d</fix>
</trkpt>
<trkpt lat="33.8107009" lon="-118.3947527">
  <ele>-25.015</ele>
  <time>2026-09-01T01:14:25Z</time>
  <course>209.41</course>
  <speed>1.0135580891098448</speed>
  <fix>3d</fix>
</trkpt>
<trkpt lat="33.8107022" lon="-118.394755">
  <ele>-24.41</ele>
  <time>2026-09-01T01:14:25Z</time>
  <course>119.39</course>
  <speed>1.0</speed>
  <fix>3d</fix>
</trkpt>
<trkpt lat="33.8107005" lon="-118.3947518">
  <ele>-25.014</ele>
  <time>2026-09-01T01:14:25Z</time>
  <course>209.53</course>
  <speed>1.0135580891098448</speed>
  <fix>3d</fix>
</trkpt>
<trkpt lat="33.8107013" lon="-118.3947531">
  <ele>-24.4</ele>
  <time>2026-09-01T01:14:25Z</time>
  <course>119.6</course>
  <speed>1.0</speed>
  <fix>3d</fix>
</trkpt>
<trkpt lat="33.8107" lon="-118.3947508">
  <ele>-25.013</ele>
  <time>2026-09-01T01:14:25Z</time>
  <course>209.64</course>
  <speed>1.0135580891098448</speed>
  <fix>3d</fix>
</trkpt>
<trkpt lat="33.8107013" lon="-118.3947531">
  <ele>-24.4</ele>
  <time>2026-09-01T01:14:25Z</time>
  <course>119.6</course>
  <speed>1.0</speed>
  <fix>3d</fix>
</trkpt>
<trkpt lat="33.8106996" lon="-118.3947499">
  <ele>-25.013</ele>
  <time>2026-09-01T01:14:25Z</time>
  <course>209.75</course>
  <speed>1.0135580891098448</speed>
  <fix>3d</fix>
</trkpt>
<trkpt lat="33.8107004" lon="-118.3947512">
  <ele>-24.4</ele>
  <time>2026-09-01T01:14:25Z</time>
  <course>119.79</course>
  <speed>1.0</speed>
  <fix>3d</fix>
</trkpt>
<trkpt lat="33.8106991" lon="-118.3947489">
  <ele>-25.013</ele>
  <time>2026-09-01T01:14:25Z</time>
  <course>209.87</course>
  <speed>1.0187246929372038</speed>
  <fix>3d</fix>
</trkpt>
<trkpt lat="33.8107004" lon="-118.3947512">
  <ele>-24.4</ele>
  <time>2026-09-01T01:14:25Z</time>
  <course>119.79</course>
  <speed>1.0</speed>
  <fix>3d</fix>
</trkpt>
<trkpt lat="33.8106987" lon="-118.394748">
  <ele>-25.015</ele>
  <time>2026-09-01T01:14:25Z</time>
  <course>209.98</course>
  <speed>1.0187246929372038</speed>
  <fix>3d</fix>
</trkpt>
<trkpt lat="33.8106995" lon="-118.3947493">
  <ele>-24.4</ele>
  <time>2026-09-01T01:14:25Z</time>
  <course>119.97</course>
  <speed>1.0</speed>
  <fix>3d</fix>
</trkpt>
<trkpt lat="33.8106982" lon="-118.3947471">
  <ele>-25.016</ele>
  <time>2026-09-01T01:14:25Z</time>
  <course>210.1</course>
  <speed>1.0187246929372038</speed>
  <fix>3d</fix>
</trkpt>
<trkpt lat="33.8106995" lon="-118.3947493">
  <ele>-24.4</ele>
  <time>2026-09-01T01:14:25Z</time>
  <course>119.97</course>
  <speed>1.0</speed>
  <fix>3d</fix>
</trkpt>
<trkpt lat="33.8106978" lon="-118.3947461">
  <ele>-25.016</ele>
  <time>2026-09-01T01:14:25Z</time>
  <course>210.21</course>
  <speed>1.0187246929372038</speed>
  <fix>3d</fix>
</trkpt>
<trkpt lat="33.8106986" lon="-118.3947475">
  <ele>-24.4</ele>
  <time>2026-09-01T01:14:25Z</time>
  <course>120.16</course>
  <speed>1.0</speed>
  <fix>3d</fix>
</trkpt>
<trkpt lat="33.8106973" lon="-118.3947452">
  <ele>-25.015</ele>
  <time>2026-09-01T01:14:25Z</time>
  <course>210.33</course>
  <speed>1.010198000393982</speed>
  <fix>3d</fix>
</trkpt>
<trkpt lat="33.8106986" lon="-118.3947475">
  <ele>-24.4</ele>
  <time>2026-09-01T01:14:25Z</time>
  <course>120.16</course>
  <speed>1.0</speed>
  <fix>3d</fix>
</trkpt>
<trkpt lat="33.8106969" lon="-118.3947443">
  <ele>-25.013</ele>
  <time>2026-09-01T01:14:25Z</time>
  <course>210.44</course>
  <speed>1.010198000393982</speed>
  <fix>3d</fix>
</trkpt>
<trkpt lat="33.8106977" lon="-118.3947456">
  <ele>-24.4</ele>
  <time>2026-09-01T01:14:25Z</time>
  <course>120.36</course>
  <speed>1.0</speed>
  <fix>3d</fix>
</trkpt>
<trkpt lat="33.8106964" lon="-118.3947433">
  <ele>-25.012</ele>
  <time>2026-09-01T01:14:25Z</time>
  <course>210.56</course>
  <speed>1.010198000393982</speed>
  <fix>3d</fix>
</trkpt>
<trkpt lat="33.8106977" lon="-118.3947456">
  <ele>-24.4</ele>
  <time>2026-09-01T01:14:25Z</time>
  <course>120.36</course>
  <speed>1.0</speed>
  <fix>3d</fix>
</trkpt>
<trkpt lat="33.810696" lon="-118.3947424">
  <ele>-25.01</ele>
  <time>2026-09-01T01:14:25Z</time>
  <course>210.67</course>
  <speed>1.0154801819828883</speed>
  <fix>3d</fix>
</trkpt>
<trkpt lat="33.8106968" lon="-118.3947437">
  <ele>-24.4</ele>
  <time>2026-09-01T01:14:25Z</time>
  <course>120.57</course>
  <speed>1.0</speed>
  <fix>3d</fix>
</trkpt>
<trkpt lat="33.8106955" lon="-118.3947415">
  <ele>-25.008</ele>
  <time>2026-09-01T01:14:25Z</time>
  <course>210.79</course>
  <speed>1.0154801819828883</speed>
  <fix>3d</fix>
</trkpt>
<trkpt lat="33.8106968" lon="-118.3947437">
  <ele>-24.4</ele>
  <time>2026-09-01T01:14:25Z</time>
  <course>120.57</course>
  <speed>1.0</speed>
  <fix>3d</fix>
</trkpt>
<trkpt lat="33.810695" lon="-118.3947405">
  <ele>-25.007</ele>
  <time>2026-09-01T01:14:25Z</time>
  <course>210.9</course>
  <speed>1.0154801819828883</speed>
  <fix>3d</fix>
</trkpt>
<trkpt lat="33.8106959" lon="-118.3947418">
  <ele>-24.4</ele>
  <time>2026-09-01T01:14:25Z</time>
  <course>120.82</course>
  <speed>1.0</speed>
  <fix>3d</fix>
</trkpt>
<trkpt lat="33.8106946" lon="-118.3947396">
  <ele>-25.006</ele>
  <time>2026-09-01T01:14:25Z</time>
  <course>211.02</course>
  <speed>1.0154801819828883</speed>
  <fix>3d</fix>
</trkpt>
<trkpt lat="33.8106959" lon="-118.3947418">
  <ele>-24.4</ele>
  <time>2026-09-01T01:14:25Z</time>
  <course>120.82</course>
  <speed>1.0</speed>
  <fix>3d</fix>
</trkpt>
<trkpt lat="33.8106941" lon="-118.3947387">
  <ele>-25.007</ele>
  <time>2026-09-01T01:14:25Z</time>
  <course>211.13</course>
  <speed>1.0154801819828883</speed>
  <fix>3d</fix>
</trkpt>
<trkpt lat="33.8106949" lon="-118.39474">
  <ele>-24.4</ele>
  <time>2026-09-01T01:14:25Z</time>
  <course>121.12</course>
  <speed>0.99</speed>
  <fix>3d</fix>
</trkpt>
<trkpt lat="33.8106936" lon="-118.3947378">
  <ele>-25.009</ele>
  <time>2026-09-01T01:14:25Z</time>
  <course>211.24</course>
  <speed>1.0124228365658294</speed>
  <fix>3d</fix>
</trkpt>
<trkpt lat="33.8106949" lon="-118.39474">
  <ele>-24.4</ele>
  <time>2026-09-01T01:14:25Z</time>
  <course>121.12</course>
  <speed>0.99</speed>
  <fix>3d</fix>
</trkpt>
<trkpt lat="33.8106932" lon="-118.3947368">
  <ele>-25.011</ele>
  <time>2026-09-01T01:14:25Z</time>
  <course>211.36</course>
  <speed>1.0124228365658294</speed>
  <fix>3d</fix>
</trkpt>
<trkpt lat="33.810694" lon="-118.3947382">
  <ele>-24.4</ele>
  <time>2026-09-01T01:14:25Z</time>
  <course>121.39</course>
  <speed>0.99</speed>
  <fix>3d</fix>
</trkpt>
<trkpt lat="33.8106927" lon="-118.3947359">
  <ele>-25.013</ele>
  <time>2026-09-01T01:14:25Z</time>
  <course>211.47</course>
  <speed>1.0124228365658294</speed>
  <fix>3d</fix>
</trkpt>
<trkpt lat="33.810694" lon="-118.3947382">
  <ele>-24.4</ele>
  <time>2026-09-01T01:14:25Z</time>
  <course>121.39</course>
  <speed>0.99</speed>
  <fix>3d</fix>
</trkpt>
<trkpt lat="33.8106922" lon="-118.394735">
  <ele>-25.013</ele>
  <time>2026-09-01T01:14:25Z</time>
  <course>211.59</course>
  <speed>1.0124228365658294</speed>
  <fix>3d</fix>
</trkpt>
<trkpt lat="33.8106931" lon="-118.3947363">
  <ele>-24.4</ele>
  <time>2026-09-01T01:14:25Z</time>
  <course>121.59</course>
  <speed>0.99</speed>
  <fix>3d</fix>
</trkpt>
<trkpt lat="33.8106917" lon="-118.3947341">
  <ele>-25.014</ele>
  <time>2026-09-01T01:14:25Z</time>
  <course>211.7</course>
  <speed>1.0124228365658294</speed>
  <fix>3d</fix>
</trkpt>
<trkpt lat="33.8106931" lon="-118.3947363">
  <ele>-24.4</ele>
  <time>2026-09-01T01:14:25Z</time>
  <course>121.59</course>
  <speed>0.99</speed>
  <fix>3d</fix>
</trkpt>
<trkpt lat="33.8106913" lon="-118.3947332">
  <ele>-25.015</ele>
  <time>2026-09-01T01:14:25Z</time>
  <course>211.82</course>
  <speed>1.0124228365658294</speed>
  <fix>3d</fix>
</trkpt>
<trkpt lat="33.8106922" lon="-118.3947345">
  <ele>-24.41</ele>
  <time>2026-09-01T01:14:25Z</time>
  <course>121.79</course>
  <speed>0.99</speed>
  <fix>3d</fix>
</trkpt>
<trkpt lat="33.8106908" lon="-118.3947322">
  <ele>-25.015</ele>
  <time>2026-09-01T01:14:25Z</time>
  <course>211.93</course>
  <speed>1.0178899744078433</speed>
  <fix>3d</fix>
</trkpt>
<trkpt lat="33.8106922" lon="-118.3947345">
  <ele>-24.41</ele>
  <time>2026-09-01T01:14:25Z</time>
  <course>121.79</course>
  <speed>0.99</speed>
  <fix>3d</fix>
</trkpt>
<trkpt lat="33.8106903" lon="-118.3947313">
  <ele>-25.014</ele>
  <time>2026-09-01T01:14:25Z</time>
  <course>212.05</course>
  <speed>1.0178899744078433</speed>
  <fix>3d</fix>
</trkpt>
<trkpt lat="33.8106912" lon="-118.3947327">
  <ele>-24.41</ele>
  <time>2026-09-01T01:14:25Z</time>
  <course>122.05</course>
  <speed>0.99</speed>
  <fix>3d</fix>
</trkpt>
<trkpt lat="33.8106898" lon="-118.3947304">
  <ele>-25.013</ele>
  <time>2026-09-01T01:14:25Z</time>
  <course>212.16</course>
  <speed>1.0178899744078433</speed>
  <fix>3d</fix>
</trkpt>
<trkpt lat="33.8106912" lon="-118.3947327">
  <ele>-24.41</ele>
  <time>2026-09-01T01:14:25Z</time>
  <course>122.05</course>
  <speed>0.99</speed>
  <fix>3d</fix>
</trkpt>
<trkpt lat="33.8106893" lon="-118.3947295">
  <ele>-25.012</ele>
  <time>2026-09-01T01:14:25Z</time>
  <course>212.28</course>
  <speed>1.0178899744078433</speed>
  <fix>3d</fix>
</trkpt>
<trkpt lat="33.8106903" lon="-118.3947308">
  <ele>-24.41</ele>
  <time>2026-09-01T01:14:25Z</time>
  <course>122.32</course>
  <speed>1.0</speed>
  <fix>3d</fix>
</trkpt>
<trkpt lat="33.8106889" lon="-118.3947286">
  <ele>-25.013</ele>
  <time>2026-09-01T01:14:25Z</time>
  <course>212.39</course>
  <speed>1.0151354589413177</speed>
  <fix>3d</fix>
</trkpt>
<trkpt lat="33.8106903" lon="-118.3947308">
  <ele>-24.41</ele>
  <time>2026-09-01T01:14:25Z</time>
  <course>122.32</course>
  <speed>1.0</speed>
  <fix>3d</fix>
</trkpt>
<trkpt lat="33.8106884" lon="-118.3947277">
  <ele>-25.014</ele>
  <time>2026-09-01T01:14:25Z</time>
  <course>212.5</course>
  <speed>1.0151354589413177</speed>
  <fix>3d</fix>
</trkpt>
<trkpt lat="33.8106893" lon="-118.394729">
  <ele>-24.41</ele>
  <time>2026-09-01T01:14:25Z</time>
  <course>122.58</course>
  <speed>1.0</speed>
  <fix>3d</fix>
</trkpt>
<trkpt lat="33.8106879" lon="-118.3947268">
  <ele>-25.014</ele>
  <time>2026-09-01T01:14:25Z</time>
  <course>212.62</course>
  <speed>1.0151354589413177</speed>
  <fix>3d</fix>
</trkpt>
<trkpt lat="33.8106893" lon="-118.394729">
  <ele>-24.41</ele>
  <time>2026-09-01T01:14:25Z</time>
  <course>122.58</course>
  <speed>1.0</speed>
  <fix>3d</fix>
</trkpt>
<trkpt lat="33.8106874" lon="-118.3947259">
  <ele>-25.014</ele>
  <time>2026-09-01T01:14:25Z</time>
  <course>212.73</course>
  <speed>1.0151354589413177</speed>
  <fix>3d</fix>
</trkpt>
<trkpt lat="33.8106883" lon="-118.3947272">
  <ele>-24.41</ele>
  <time>2026-09-01T01:14:25Z</time>
  <course>122.84</course>
  <speed>1.0</speed>
  <fix>3d</fix>
</trkpt>
<trkpt lat="33.8106869" lon="-118.394725">
  <ele>-25.014</ele>
  <time>2026-09-01T01:14:25Z</time>
  <course>212.85</course>
  <speed>1.0151354589413177</speed>
  <fix>3d</fix>
</trkpt>
<trkpt lat="33.8106883" lon="-118.3947272">
  <ele>-24.41</ele>
  <time>2026-09-01T01:14:25Z</time>
  <course>122.84</course>
  <speed>1.0</speed>
  <fix>3d</fix>
</trkpt>
<trkpt lat="33.8106864" lon="-118.3947241">
  <ele>-25.014</ele>
  <time>2026-09-01T01:14:25Z</time>
  <course>212.97</course>
  <speed>1.0151354589413177</speed>
  <fix>3d</fix>
</trkpt>
<trkpt lat="33.8106874" lon="-118.3947254">
  <ele>-24.41</ele>
  <time>2026-09-01T01:14:25Z</time>
  <course>123.07</course>
  <speed>1.0</speed>
  <fix>3d</fix>
</trkpt>
<trkpt lat="33.8106859" lon="-118.3947232">
  <ele>-25.014</ele>
  <time>2026-09-01T01:14:25Z</time>
  <course>213.08</course>
  <speed>1.0207840124139878</speed>
  <fix>3d</fix>
</trkpt>
<trkpt lat="33.8106874" lon="-118.3947254">
  <ele>-24.41</ele>
  <time>2026-09-01T01:14:25Z</time>
  <course>123.07</course>
  <speed>1.0</speed>
  <fix>3d</fix>
</trkpt>
<trkpt lat="33.8106854" lon="-118.3947222">
  <ele>-25.012</ele>
  <time>2026-09-01T01:14:25Z</time>
  <course>213.19</course>
  <speed>1.0207840124139878</speed>
  <fix>3d</fix>
</trkpt>
<trkpt lat="33.8106863" lon="-118.3947236">
  <ele>-24.41</ele>
  <time>2026-09-01T01:14:25Z</time>
  <course>123.29</course>
  <speed>1.0</speed>
  <fix>3d</fix>
</trkpt>
<trkpt lat="33.8106849" lon="-118.3947213">
  <ele>-25.011</ele>
  <time>2026-09-01T01:14:25Z</time>
  <course>213.31</course>
  <speed>1.0207840124139878</speed>
  <fix>3d</fix>
</trkpt>
<trkpt lat="33.8106863" lon="-118.3947236">
  <ele>-24.41</ele>
  <time>2026-09-01T01:14:25Z</time>
  <course>123.29</course>
  <speed>1.0</speed>
  <fix>3d</fix>
</trkpt>
<trkpt lat="33.8106844" lon="-118.3947204">
  <ele>-25.011</ele>
  <time>2026-09-01T01:14:25Z</time>
  <course>213.42</course>
  <speed>1.0207840124139878</speed>
  <fix>3d</fix>
</trkpt>
<trkpt lat="33.8106853" lon="-118.3947217">
  <ele>-24.41</ele>
  <time>2026-09-01T01:14:25Z</time>
  <course>123.48</course>
  <speed>1.0</speed>
  <fix>3d</fix>
</trkpt>
<trkpt lat="33.8106839" lon="-118.3947195">
  <ele>-25.011</ele>
  <time>2026-09-01T01:14:25Z</time>
  <course>213.54</course>
  <speed>1.0125709851659783</speed>
  <fix>3d</fix>
</trkpt>
<trkpt lat="33.8106853" lon="-118.3947217">
  <ele>-24.41</ele>
  <time>2026-09-01T01:14:25Z</time>
  <course>123.48</course>
  <speed>1.0</speed>
  <fix>3d</fix>
</trkpt>
<trkpt lat="33.8106834" lon="-118.3947186">
  <ele>-25.013</ele>
  <time>2026-09-01T01:14:25Z</time>
  <course>213.65</course>
  <speed>1.0125709851659783</speed>
  <fix>3d</fix>
</trkpt>
<trkpt lat="33.8106844" lon="-118.39472">
  <ele>-24.41</ele>
  <time>2026-09-01T01:14:25Z</time>
  <course>123.63</course>
  <speed>1.0</speed>
  <fix>3d</fix>
</trkpt>
<trkpt lat="33.8106829" lon="-118.3947178">
  <ele>-25.016</ele>
  <time>2026-09-01T01:14:25Z</time>
  <course>213.76</course>
  <speed>1.0125709851659783</speed>
  <fix>3d</fix>
</trkpt>
<trkpt lat="33.8106844" lon="-118.39472">
  <ele>-24.41</ele>
  <time>2026-09-01T01:14:25Z</time>
  <course>123.63</course>
  <speed>1.0</speed>
  <fix>3d</fix>
</trkpt>
<trkpt lat="33.8106824" lon="-118.3947169">
  <ele>-25.018</ele>
  <time>2026-09-01T01:14:25Z</time>
  <course>213.88</course>
  <speed>1.0183319694480775</speed>
  <fix>3d</fix>
</trkpt>
<trkpt lat="33.8106834" lon="-118.3947182">
  <ele>-24.41</ele>
  <time>2026-09-01T01:14:25Z</time>
  <course>123.8</course>
  <speed>1.0</speed>
  <fix>3d</fix>
</trkpt>
<trkpt lat="33.8106819" lon="-118.394716">
  <ele>-25.019</ele>
  <time>2026-09-01T01:14:25Z</time>
  <course>213.99</course>
  <speed>1.0183319694480775</speed>
  <fix>3d</fix>
</trkpt>
<trkpt lat="33.8106834" lon="-118.3947182">
  <ele>-24.41</ele>
  <time>2026-09-01T01:14:25Z</time>
  <course>123.8</course>
  <speed>1.0</speed>
  <fix>3d</fix>
</trkpt>
<trkpt lat="33.8106814" lon="-118.3947151">
  <ele>-25.02</ele>
  <time>2026-09-01T01:14:25Z</time>
  <course>214.11</course>
  <speed>1.0183319694480775</speed>
  <fix>3d</fix>
</trkpt>
<trkpt lat="33.8106824" lon="-118.3947164">
  <ele>-24.42</ele>
  <time>2026-09-01T01:14:25Z</time>
  <course>124.01</course>
  <speed>1.0</speed>
  <fix>3d</fix>
</trkpt>
<trkpt lat="33.8106809" lon="-118.3947142">
  <ele>-25.02</ele>
  <time>2026-09-01T01:14:25Z</time>
  <course>214.22</course>
  <speed>1.0183319694480775</speed>
  <fix>3d</fix>
</trkpt>
<trkpt lat="33.8106824" lon="-118.3947164">
  <ele>-24.42</ele>
  <time>2026-09-01T01:14:25Z</time>
  <course>124.01</course>
  <speed>1.0</speed>
  <fix>3d</fix>
</trkpt>
<trkpt lat="33.8106804" lon="-118.3947133">
  <ele>-25.02</ele>
  <time>2026-09-01T01:14:25Z</time>
  <course>214.34</course>
  <speed>1.0241581909060729</speed>
  <fix>3d</fix>
</trkpt>
<trkpt lat="33.8106814" lon="-118.3947145">
  <ele>-24.42</ele>
  <time>2026-09-01T01:14:25Z</time>
  <course>124.28</course>
  <speed>1.0</speed>
  <fix>3d</fix>
</trkpt>
<trkpt lat="33.8106799" lon="-118.3947124">
  <ele>-25.02</ele>
  <time>2026-09-01T01:14:25Z</time>
  <course>214.45</course>
  <speed>1.0241581909060729</speed>
  <fix>3d</fix>
</trkpt>
<trkpt lat="33.8106814" lon="-118.3947145">
  <ele>-24.42</ele>
  <time>2026-09-01T01:14:25Z</time>
  <course>124.28</course>
  <speed>1.0</speed>
  <fix>3d</fix>
</trkpt>
<trkpt lat="33.8106794" lon="-118.3947115">
  <ele>-25.02</ele>
  <time>2026-09-01T01:14:25Z</time>
  <course>214.56</course>
  <speed>1.0241581909060729</speed>
  <fix>3d</fix>
</trkpt>
<trkpt lat="33.8106803" lon="-118.3947128">
  <ele>-24.41</ele>
  <time>2026-09-01T01:14:25Z</time>
  <course>124.58</course>
  <speed>1.01</speed>
  <fix>3d</fix>
</trkpt>
<trkpt lat="33.8106789" lon="-118.3947106">
  <ele>-25.019</ele>
  <time>2026-09-01T01:14:25Z</time>
  <course>214.68</course>
  <speed>1.016070863670443</speed>
  <fix>3d</fix>
</trkpt>
<trkpt lat="33.8106803" lon="-118.3947128">
  <ele>-24.41</ele>
  <time>2026-09-01T01:14:25Z</time>
  <course>124.58</course>
  <speed>1.01</speed>
  <fix>3d</fix>
</trkpt>
<trkpt lat="33.8106784" lon="-118.3947097">
  <ele>-25.016</ele>
  <time>2026-09-01T01:14:25Z</time>
  <course>214.8</course>
  <speed>1.016070863670443</speed>
  <fix>3d</fix>
</trkpt>
<trkpt lat="33.8106792" lon="-118.394711">
  <ele>-24.41</ele>
  <time>2026-09-01T01:14:25Z</time>
  <course>124.85</course>
  <speed>1.01</speed>
  <fix>3d</fix>
</trkpt>
<trkpt lat="33.8106779" lon="-118.3947089">
  <ele>-25.015</ele>
  <time>2026-09-01T01:14:25Z</time>
  <course>214.91</course>
  <speed>1.016070863670443</speed>
  <fix>3d</fix>
</trkpt>
<trkpt lat="33.8106792" lon="-118.394711">
  <ele>-24.41</ele>
  <time>2026-09-01T01:14:25Z</time>
  <course>124.85</course>
  <speed>1.01</speed>
  <fix>3d</fix>
</trkpt>
<trkpt lat="33.8106773" lon="-118.394708">
  <ele>-25.014</ele>
  <time>2026-09-01T01:14:25Z</time>
  <course>215.02</course>
  <speed>1.016070863670443</speed>
  <fix>3d</fix>
</trkpt>
<trkpt lat="33.8106783" lon="-118.3947092">
  <ele>-24.4</ele>
  <time>2026-09-01T01:14:25Z</time>
  <course>125.01</course>
  <speed>1.01</speed>
  <fix>3d</fix>
</trkpt>
<trkpt lat="33.8106768" lon="-118.3947071">
  <ele>-25.012</ele>
  <time>2026-09-01T01:14:25Z</time>
  <course>215.14</course>
  <speed>1.0220078277586722</speed>
  <fix>3d</fix>
</trkpt>
<trkpt lat="33.8106783" lon="-118.3947092">
  <ele>-24.4</ele>
  <time>2026-09-01T01:14:25Z</time>
  <course>125.01</course>
  <speed>1.01</speed>
  <fix>3d</fix>
</trkpt>
<trkpt lat="33.8106763" lon="-118.3947062">
  <ele>-25.011</ele>
  <time>2026-09-01T01:14:25Z</time>
  <course>215.25</course>
  <speed>1.0220078277586722</speed>
  <fix>3d</fix>
</trkpt>
<trkpt lat="33.8106772" lon="-118.3947073">
  <ele>-24.4</ele>
  <time>2026-09-01T01:14:25Z</time>
  <course>125.16</course>
  <speed>1.0</speed>
  <fix>3d</fix>
</trkpt>
<trkpt lat="33.8106758" lon="-118.3947053">
  <ele>-25.01</ele>
  <time>2026-09-01T01:14:25Z</time>
  <course>215.37</course>
  <speed>1.0220078277586722</speed>
  <fix>3d</fix>
</trkpt>
<trkpt lat="33.8106772" lon="-118.3947073">
  <ele>-24.4</ele>
  <time>2026-09-01T01:14:25Z</time>
  <course>125.16</course>
  <speed>1.0</speed>
  <fix>3d</fix>
</trkpt>
<trkpt lat="33.8106752" lon="-118.3947044">
  <ele>-25.01</ele>
  <time>2026-09-01T01:14:25Z</time>
  <course>215.48</course>
  <speed>1.0140019723846694</speed>
  <fix>3d</fix>
</trkpt>
<trkpt lat="33.8106762" lon="-118.3947056">
  <ele>-24.4</ele>
  <time>2026-09-01T01:14:25Z</time>
  <course>125.41</course>
  <speed>1.0</speed>
  <fix>3d</fix>
</trkpt>
<trkpt lat="33.8106747" lon="-118.3947035">
  <ele>-25.011</ele>
  <time>2026-09-01T01:14:25Z</time>
  <course>215.6</course>
  <speed>1.0140019723846694</speed>
  <fix>3d</fix>
</trkpt>
<trkpt lat="33.8106762" lon="-118.3947056">
  <ele>-24.4</ele>
  <time>2026-09-01T01:14:25Z</time>
  <course>125.41</course>
  <speed>1.0</speed>
  <fix>3d</fix>
</trkpt>
<trkpt lat="33.8106742" lon="-118.3947027">
  <ele>-25.012</ele>
  <time>2026-09-01T01:14:25Z</time>
  <course>215.71</course>
  <speed>1.0140019723846694</speed>
  <fix>3d</fix>
</trkpt>
<trkpt lat="33.8106751" lon="-118.3947038">
  <ele>-24.4</ele>
  <time>2026-09-01T01:14:25Z</time>
  <course>125.71</course>
  <speed>1.0</speed>
  <fix>3d</fix>
</trkpt>
<trkpt lat="33.8106737" lon="-118.3947018">
  <ele>-25.014</ele>
  <time>2026-09-01T01:14:25Z</time>
  <course>215.83</course>
  <speed>1.0200490184299968</speed>
  <fix>3d</fix>
</trkpt>
<trkpt lat="33.8106751" lon="-118.3947038">
  <ele>-24.4</ele>
  <time>2026-09-01T01:14:25Z</time>
  <course>125.71</course>
  <speed>1.0</speed>
  <fix>3d</fix>
</trkpt>
<trkpt lat="33.8106731" lon="-118.3947009">
  <ele>-25.013</ele>
  <time>2026-09-01T01:14:25Z</time>
  <course>215.94</course>
  <speed>1.0200490184299968</speed>
  <fix>3d</fix>
</trkpt>
<trkpt lat="33.810674" lon="-118.394702">
  <ele>-24.4</ele>
  <time>2026-09-01T01:14:25Z</time>
  <course>125.99</course>
  <speed>1.0</speed>
  <fix>3d</fix>
</trkpt>
<trkpt lat="33.8106726" lon="-118.3947">
  <ele>-25.013</ele>
  <time>2026-09-01T01:14:25Z</time>
  <course>216.06</course>
  <speed>1.0121264743103995</speed>
  <fix>3d</fix>
</trkpt>
<trkpt lat="33.810674" lon="-118.394702">
  <ele>-24.4</ele>
  <time>2026-09-01T01:14:25Z</time>
  <course>125.99</course>
  <speed>1.0</speed>
  <fix>3d</fix>
</trkpt>
<trkpt lat="33.8106721" lon="-118.3946992">
  <ele>-25.012</ele>
  <time>2026-09-01T01:14:25Z</time>
  <course>216.17</course>
  <speed>1.0121264743103995</speed>
  <fix>3d</fix>
</trkpt>
<trkpt lat="33.8106729" lon="-118.3947003">
  <ele>-24.4</ele>
  <time>2026-09-01T01:14:25Z</time>
  <course>126.23</course>
  <speed>1.0</speed>
  <fix>3d</fix>
</trkpt>
<trkpt lat="33.8106715" lon="-118.3946983">
  <ele>-25.011</ele>
  <time>2026-09-01T01:14:25Z</time>
  <course>216.29</course>
  <speed>1.0121264743103995</speed>
  <fix>3d</fix>
</trkpt>
<trkpt lat="33.8106729" lon="-118.3947003">
  <ele>-24.4</ele>
  <time>2026-09-01T01:14:25Z</time>
  <course>126.23</course>
  <speed>1.0</speed>
  <fix>3d</fix>
</trkpt>
<trkpt lat="33.810671" lon="-118.3946974">
  <ele>-25.011</ele>
  <time>2026-09-01T01:14:25Z</time>
  <course>216.4</course>
  <speed>1.0121264743103995</speed>
  <fix>3d</fix>
</trkpt>
<trkpt lat="33.8106719" lon="-118.3946985">
  <ele>-24.4</ele>
  <time>2026-09-01T01:14:25Z</time>
  <course>126.41</course>
  <speed>1.0</speed>
  <fix>3d</fix>
</trkpt>
<trkpt lat="33.8106704" lon="-118.3946965">
  <ele>-25.011</ele>
  <time>2026-09-01T01:14:25Z</time>
  <course>216.51</course>
  <speed>1.0121264743103995</speed>
  <fix>3d</fix>
</trkpt>
<trkpt lat="33.8106719" lon="-118.3946985">
  <ele>-24.4</ele>
  <time>2026-09-01T01:14:25Z</time>
  <course>126.41</course>
  <speed>1.0</speed>
  <fix>3d</fix>
</trkpt>
<trkpt lat="33.8106699" lon="-118.3946957">
  <ele>-25.012</ele>
  <time>2026-09-01T01:14:25Z</time>
  <course>216.63</course>
  <speed>1.0121264743103995</speed>
  <fix>3d</fix>
</trkpt>
<trkpt lat="33.8106708" lon="-118.3946968">
  <ele>-24.4</ele>
  <time>2026-09-01T01:14:25Z</time>
  <course>126.6</course>
  <speed>1.0</speed>
  <fix>3d</fix>
</trkpt>
<trkpt lat="33.8106694" lon="-118.3946948">
  <ele>-25.013</ele>
  <time>2026-09-01T01:14:25Z</time>
  <course>216.74</course>
  <speed>1.0121264743103995</speed>
  <fix>3d</fix>
</trkpt>
<trkpt lat="33.8106708" lon="-118.3946968">
  <ele>-24.4</ele>
  <time>2026-09-01T01:14:25Z</time>
  <course>126.6</course>
  <speed>1.0</speed>
  <fix>3d</fix>
</trkpt>
<trkpt lat="33.8106688" lon="-118.3946939">
  <ele>-25.013</ele>
  <time>2026-09-01T01:14:25Z</time>
  <course>216.86</course>
  <speed>1.0104454463255303</speed>
  <fix>3d</fix>
</trkpt>
<trkpt lat="33.8106698" lon="-118.3946951">
  <ele>-24.41</ele>
  <time>2026-09-01T01:14:25Z</time>
  <course>126.8</course>
  <speed>1.0</speed>
  <fix>3d</fix>
</trkpt>
<trkpt lat="33.8106683" lon="-118.3946931">
  <ele>-25.014</ele>
  <time>2026-09-01T01:14:25Z</time>
  <course>216.97</course>
  <speed>1.0104454463255303</speed>
  <fix>3d</fix>
</trkpt>
<trkpt lat="33.8106698" lon="-118.3946951">
  <ele>-24.41</ele>
  <time>2026-09-01T01:14:25Z</time>
  <course>126.8</course>
  <speed>1.0</speed>
  <fix>3d</fix>
</trkpt>
<trkpt lat="33.8106677" lon="-118.3946922">
  <ele>-25.014</ele>
  <time>2026-09-01T01:14:25Z</time>
  <course>217.09</course>
  <speed>1.0104454463255303</speed>
  <fix>3d</fix>
</trkpt>
<trkpt lat="33.8106687" lon="-118.3946933">
  <ele>-24.41</ele>
  <time>2026-09-01T01:14:25Z</time>
  <course>127.02</course>
  <speed>1.0</speed>
  <fix>3d</fix>
</trkpt>
<trkpt lat="33.8106672" lon="-118.3946913">
  <ele>-25.015</ele>
  <time>2026-09-01T01:14:25Z</time>
  <course>217.2</course>
  <speed>1.0104454463255303</speed>
  <fix>3d</fix>
</trkpt>
<trkpt lat="33.8106687" lon="-118.3946933">
  <ele>-24.41</ele>
  <time>2026-09-01T01:14:25Z</time>
  <course>127.02</course>
  <speed>1.0</speed>
  <fix>3d</fix>
</trkpt>
<trkpt lat="33.8106667" lon="-118.3946905">
  <ele>-25.015</ele>
  <time>2026-09-01T01:14:25Z</time>
  <course>217.32</course>
  <speed>1.0104454463255303</speed>
  <fix>3d</fix>
</trkpt>
<trkpt lat="33.8106676" lon="-118.3946916">
  <ele>-24.41</ele>
  <time>2026-09-01T01:14:25Z</time>
  <course>127.29</course>
  <speed>0.99</speed>
  <fix>3d</fix>
</trkpt>
<trkpt lat="33.8106661" lon="-118.3946896">
  <ele>-25.015</ele>
  <time>2026-09-01T01:14:25Z</time>
  <course>217.43</course>
  <speed>1.0167103815738285</speed>
  <fix>3d</fix>
</trkpt>
<trkpt lat="33.8106676" lon="-118.3946916">
  <ele>-24.41</ele>
  <time>2026-09-01T01:14:25Z</time>
  <course>127.29</course>
  <speed>0.99</speed>
  <fix>3d</fix>
</trkpt>
<trkpt lat="33.8106656" lon="-118.3946888">
  <ele>-25.016</ele>
  <time>2026-09-01T01:14:25Z</time>
  <course>217.55</course>
  <speed>1.0167103815738285</speed>
  <fix>3d</fix>
</trkpt>
<trkpt lat="33.8106665" lon="-118.3946899">
  <ele>-24.41</ele>
  <time>2026-09-01T01:14:25Z</time>
  <course>127.57</course>
  <speed>0.99</speed>
  <fix>3d</fix>
</trkpt>
<trkpt lat="33.810665" lon="-118.3946879">
  <ele>-25.016</ele>
  <time>2026-09-01T01:14:25Z</time>
  <course>217.66</course>
  <speed>1.0167103815738285</speed>
  <fix>3d</fix>
</trkpt>
<trkpt lat="33.8106665" lon="-118.3946899">
  <ele>-24.41</ele>
  <time>2026-09-01T01:14:25Z</time>
  <course>127.57</course>
  <speed>0.99</speed>
  <fix>3d</fix>
</trkpt>
<trkpt lat="33.8106645" lon="-118.3946871">
  <ele>-25.016</ele>
  <time>2026-09-01T01:14:25Z</time>
  <course>217.78</course>
  <speed>1.0089598604503551</speed>
  <fix>3d</fix>
</trkpt>
<trkpt lat="33.8106654" lon="-118.3946882">
  <ele>-24.41</ele>
  <time>2026-09-01T01:14:25Z</time>
  <course>127.82</course>
  <speed>0.99</speed>
  <fix>3d</fix>
</trkpt>
<trkpt lat="33.8106639" lon="-118.3946862">
  <ele>-25.015</ele>
  <time>2026-09-01T01:14:25Z</time>
  <course>217.89</course>
  <speed>1.0089598604503551</speed>
  <fix>3d</fix>
</trkpt>
<trkpt lat="33.8106654" lon="-118.3946882">
  <ele>-24.41</ele>
  <time>2026-09-01T01:14:25Z</time>
  <course>127.82</course>
  <speed>0.99</speed>
  <fix>3d</fix>
</trkpt>
<trkpt lat="33.8106633" lon="-118.3946854">
  <ele>-25.014</ele>
  <time>2026-09-01T01:14:25Z</time>
  <course>218.0</course>
  <speed>1.0089598604503551</speed>
  <fix>3d</fix>
</trkpt>
<trkpt lat="33.8106643" lon="-118.3946864">
  <ele>-24.41</ele>
  <time>2026-09-01T01:14:25Z</time>
  <course>128.04</course>
  <speed>0.99</speed>
  <fix>3d</fix>
</trkpt>
<trkpt lat="33.8106628" lon="-118.3946845">
  <ele>-25.013</ele>
  <time>2026-09-01T01:14:25Z</time>
  <course>218.12</course>
  <speed>1.015332457867865</speed>
  <fix>3d</fix>
</trkpt>
<trkpt lat="33.8106643" lon="-118.3946864">
  <ele>-24.41</ele>
  <time>2026-09-01T01:14:25Z</time>
  <course>128.04</course>
  <speed>0.99</speed>
  <fix>3d</fix>
</trkpt>
<trkpt lat="33.8106622" lon="-118.3946837">
  <ele>-25.012</ele>
  <time>2026-09-01T01:14:25Z</time>
  <course>218.23</course>
  <speed>1.015332457867865</speed>
  <fix>3d</fix>
</trkpt>
<trkpt lat="33.8106632" lon="-118.3946847">
  <ele>-24.4</ele>
  <time>2026-09-01T01:14:25Z</time>
  <course>128.27</course>
  <speed>0.99</speed>
  <fix>3d</fix>
</trkpt>
<trkpt lat="33.8106617" lon="-118.3946828">
  <ele>-25.011</ele>
  <time>2026-09-01T01:14:25Z</time>
  <course>218.35</course>
  <speed>1.015332457867865</speed>
  <fix>3d</fix>
</trkpt>
<trkpt lat="33.8106632" lon="-118.3946847">
  <ele>-24.4</ele>
  <time>2026-09-01T01:14:25Z</time>
  <course>128.27</course>
  <speed>0.99</speed>
  <fix>3d</fix>
</trkpt>
<trkpt lat="33.8106611" lon="-118.394682">
  <ele>-25.011</ele>
  <time>2026-09-01T01:14:25Z</time>
  <course>218.46</course>
  <speed>1.015332457867865</speed>
  <fix>3d</fix>
</trkpt>
<trkpt lat="33.8106621" lon="-118.3946831">
  <ele>-24.4</ele>
  <time>2026-09-01T01:14:25Z</time>
  <course>128.55</course>
  <speed>0.99</speed>
  <fix>3d</fix>
</trkpt>
<trkpt lat="33.8106605" lon="-118.3946811">
  <ele>-25.01</ele>
  <time>2026-09-01T01:14:25Z</time>
  <course>218.58</course>
  <speed>1.007670581092849</speed>
  <fix>3d</fix>
</trkpt>
<trkpt lat="33.8106621" lon="-118.3946831">
  <ele>-24.4</ele>
  <time>2026-09-01T01:14:25Z</time>
  <course>128.55</course>
  <speed>0.99</speed>
  <fix>3d</fix>
</trkpt>
<trkpt lat="33.81066" lon="-118.3946803">
  <ele>-25.01</ele>
  <time>2026-09-01T01:14:25Z</time>
  <course>218.69</course>
  <speed>1.007670581092849</speed>
  <fix>3d</fix>
</trkpt>
<trkpt lat="33.8106609" lon="-118.3946814">
  <ele>-24.4</ele>
  <time>2026-09-01T01:14:25Z</time>
  <course>128.82</course>
  <speed>0.99</speed>
  <fix>3d</fix>
</trkpt>
<trkpt lat="33.8106594" lon="-118.3946794">
  <ele>-25.011</ele>
  <time>2026-09-01T01:14:25Z</time>
  <course>218.81</course>
  <speed>1.0141498903022177</speed>
  <fix>3d</fix>
</trkpt>
<trkpt lat="33.8106609" lon="-118.3946814">
  <ele>-24.4</ele>
  <time>2026-09-01T01:14:25Z</time>
  <course>128.82</course>
  <speed>0.99</speed>
  <fix>3d</fix>
</trkpt>
<trkpt lat="33.8106588" lon="-118.3946786">
  <ele>-25.013</ele>
  <time>2026-09-01T01:14:25Z</time>
  <course>218.92</course>
  <speed>1.0141498903022177</speed>
  <fix>3d</fix>
</trkpt>
<trkpt lat="33.8106598" lon="-118.3946797">
  <ele>-24.4</ele>
  <time>2026-09-01T01:14:25Z</time>
  <course>129.01</course>
  <speed>0.99</speed>
  <fix>3d</fix>
</trkpt>
<trkpt lat="33.8106583" lon="-118.3946778">
  <ele>-25.015</ele>
  <time>2026-09-01T01:14:25Z</time>
  <course>219.03</course>
  <speed>1.0141498903022177</speed>
  <fix>3d</fix>
</trkpt>
<trkpt lat="33.8106598" lon="-118.3946797">
  <ele>-24.4</ele>
  <time>2026-09-01T01:14:25Z</time>
  <course>129.01</course>
  <speed>0.99</speed>
  <fix>3d</fix>
</trkpt>
<trkpt lat="33.8106577" lon="-118.3946769">
  <ele>-25.018</ele>
  <time>2026-09-01T01:14:25Z</time>
  <course>219.15</course>
  <speed>1.0141498903022177</speed>
  <fix>3d</fix>
</trkpt>
<trkpt lat="33.8106587" lon="-118.394678">
  <ele>-24.41</ele>
  <time>2026-09-01T01:14:25Z</time>
  <course>129.17</course>
  <speed>0.99</speed>
  <fix>3d</fix>
</trkpt>
<trkpt lat="33.8106571" lon="-118.3946761">
  <ele>-25.018</ele>
  <time>2026-09-01T01:14:25Z</time>
  <course>219.26</course>
  <speed>1.0141498903022177</speed>
  <fix>3d</fix>
</trkpt>
<trkpt lat="33.8106587" lon="-118.394678">
  <ele>-24.41</ele>
  <time>2026-09-01T01:14:25Z</time>
  <course>129.17</course>
  <speed>0.99</speed>
  <fix>3d</fix>
</trkpt>
<trkpt lat="33.8106566" lon="-118.3946753">
  <ele>-25.018</ele>
  <time>2026-09-01T01:14:25Z</time>
  <course>219.38</course>
  <speed>1.0141498903022177</speed>
  <fix>3d</fix>
</trkpt>
<trkpt lat="33.8106576" lon="-118.3946764">
  <ele>-24.41</ele>
  <time>2026-09-01T01:14:25Z</time>
  <course>129.35</course>
  <speed>0.99</speed>
  <fix>3d</fix>
</trkpt>
<trkpt lat="33.810656" lon="-118.3946744">
  <ele>-25.017</ele>
  <time>2026-09-01T01:14:25Z</time>
  <course>219.5</course>
  <speed>1.0141498903022177</speed>
  <fix>3d</fix>
</trkpt>
<trkpt lat="33.8106576" lon="-118.3946764">
  <ele>-24.41</ele>
  <time>2026-09-01T01:14:25Z</time>
  <course>129.35</course>
  <speed>0.99</speed>
  <fix>3d</fix>
</trkpt>
<trkpt lat="33.8106554" lon="-118.3946736">
  <ele>-25.016</ele>
  <time>2026-09-01T01:14:25Z</time>
  <course>219.61</course>
  <speed>1.0131633629380803</speed>
  <fix>3d</fix>
</trkpt>
<trkpt lat="33.8106564" lon="-118.3946747">
  <ele>-24.41</ele>
  <time>2026-09-01T01:14:25Z</time>
  <course>129.57</course>
  <speed>0.99</speed>
  <fix>3d</fix>
</trkpt>
<trkpt lat="33.8106548" lon="-118.3946728">
  <ele>-25.016</ele>
  <time>2026-09-01T01:14:25Z</time>
  <course>219.73</course>
  <speed>1.0131633629380803</speed>
  <fix>3d</fix>
</trkpt>
<trkpt lat="33.8106564" lon="-118.3946747">
  <ele>-24.41</ele>
  <time>2026-09-01T01:14:25Z</time>
  <course>129.57</course>
  <speed>0.99</speed>
  <fix>3d</fix>
</trkpt>
<trkpt lat="33.8106543" lon="-118.3946719">
  <ele>-25.015</ele>
  <time>2026-09-01T01:14:25Z</time>
  <course>219.84</course>
  <speed>1.0131633629380803</speed>
  <fix>3d</fix>
</trkpt>
<trkpt lat="33.8106553" lon="-118.394673">
  <ele>-24.4</ele>
  <time>2026-09-01T01:14:25Z</time>
  <course>129.81</course>
  <speed>1.0</speed>
  <fix>3d</fix>
</trkpt>
<trkpt lat="33.8106537" lon="-118.3946711">
  <ele>-25.013</ele>
  <time>2026-09-01T01:14:25Z</time>
  <course>219.95</course>
  <speed>1.0131633629380803</speed>
  <fix>3d</fix>
</trkpt>
<trkpt lat="33.8106553" lon="-118.394673">
  <ele>-24.4</ele>
  <time>2026-09-01T01:14:25Z</time>
  <course>129.81</course>
  <speed>1.0</speed>
  <fix>3d</fix>
</trkpt>
<trkpt lat="33.8106531" lon="-118.3946703">
  <ele>-25.013</ele>
  <time>2026-09-01T01:14:25Z</time>
  <course>220.07</course>
  <speed>1.0131633629380803</speed>
  <fix>3d</fix>
</trkpt>
<trkpt lat="33.8106541" lon="-118.3946714">
  <ele>-24.4</ele>
  <time>2026-09-01T01:14:25Z</time>
  <course>130.06</course>
  <speed>1.0</speed>
  <fix>3d</fix>
</trkpt>
<trkpt lat="33.8106525" lon="-118.3946695">
  <ele>-25.013</ele>
  <time>2026-09-01T01:14:25Z</time>
  <course>220.18</course>
  <speed>1.0131633629380803</speed>
  <fix>3d</fix>
</trkpt>
<trkpt lat="33.8106541" lon="-118.3946714">
  <ele>-24.4</ele>
  <time>2026-09-01T01:14:25Z</time>
  <course>130.06</course>
  <speed>1.0</speed>
  <fix>3d</fix>
</trkpt>
<trkpt lat="33.810652" lon="-118.3946686">
  <ele>-25.013</ele>
  <time>2026-09-01T01:14:25Z</time>
  <course>220.3</course>
  <speed>1.019803902718557</speed>
  <fix>3d</fix>
</trkpt>
<trkpt lat="33.810653" lon="-118.3946697">
  <ele>-24.4</ele>
  <time>2026-09-01T01:14:25Z</time>
  <course>130.32</course>
  <speed>1.0</speed>
  <fix>3d</fix>
</trkpt>
<trkpt lat="33.8106514" lon="-118.3946678">
  <ele>-25.013</ele>
  <time>2026-09-01T01:14:25Z</time>
  <course>220.41</course>
  <speed>1.019803902718557</speed>
  <fix>3d</fix>
</trkpt>
<trkpt lat="33.810653" lon="-118.3946697">
  <ele>-24.4</ele>
  <time>2026-09-01T01:14:25Z</time>
  <course>130.32</course>
  <speed>1.0</speed>
  <fix>3d</fix>
</trkpt>
<trkpt lat="33.8106508" lon="-118.394667">
  <ele>-25.013</ele>
  <time>2026-09-01T01:14:25Z</time>
  <course>220.53</course>
  <speed>1.0123734488813898</speed>
  <fix>3d</fix>
</trkpt>
<trkpt lat="33.8106517" lon="-118.3946681">
  <ele>-24.4</ele>
  <time>2026-09-01T01:14:25Z</time>
  <course>130.57</course>
  <speed>1.0</speed>
  <fix>3d</fix>
</trkpt>
<trkpt lat="33.8106502" lon="-118.3946662">
  <ele>-25.013</ele>
  <time>2026-09-01T01:14:25Z</time>
  <course>220.64</course>
  <speed>1.0123734488813898</speed>
  <fix>3d</fix>
</trkpt>
<trkpt lat="33.8106517" lon="-118.3946681">
  <ele>-24.4</ele>
  <time>2026-09-01T01:14:25Z</time>
  <course>130.57</course>
  <speed>1.0</speed>
  <fix>3d</fix>
</trkpt>
<trkpt lat="33.8106496" lon="-118.3946654">
  <ele>-25.012</ele>
  <time>2026-09-01T01:14:25Z</time>
  <course>220.76</course>
  <speed>1.0123734488813898</speed>
  <fix>3d</fix>
</trkpt>
<trkpt lat="33.8106506" lon="-118.3946664">
  <ele>-24.4</ele>
  <time>2026-09-01T01:14:25Z</time>
  <course>130.77</course>
  <speed>1.0</speed>
  <fix>3d</fix>
</trkpt>
<trkpt lat="33.810649" lon="-118.3946645">
  <ele>-25.011</ele>
  <time>2026-09-01T01:14:25Z</time>
  <course>220.87</course>
  <speed>1.0123734488813898</speed>
  <fix>3d</fix>
</trkpt>
<trkpt lat="33.8106506" lon="-118.3946664">
  <ele>-24.4</ele>
  <time>2026-09-01T01:14:25Z</time>
  <course>130.77</course>
  <speed>1.0</speed>
  <fix>3d</fix>
</trkpt>
<trkpt lat="33.8106484" lon="-118.3946637">
  <ele>-25.009</ele>
  <time>2026-09-01T01:14:25Z</time>
  <course>220.98</course>
  <speed>1.0123734488813898</speed>
  <fix>3d</fix>
</trkpt>
<trkpt lat="33.8106494" lon="-118.3946647">
  <ele>-24.4</ele>
  <time>2026-09-01T01:14:25Z</time>
  <course>130.95</course>
  <speed>0.99</speed>
  <fix>3d</fix>
</trkpt>
<trkpt lat="33.8106478" lon="-118.3946629">
  <ele>-25.007</ele>
  <time>2026-09-01T01:14:25Z</time>
  <course>221.1</course>
  <speed>1.0191172650877818</speed>
  <fix>3d</fix>
</trkpt>
<trkpt lat="33.8106494" lon="-118.3946647">
  <ele>-24.4</ele>
  <time>2026-09-01T01:14:25Z</time>
  <course>130.95</course>
  <speed>0.99</speed>
  <fix>3d</fix>
</trkpt>
<trkpt lat="33.8106472" lon="-118.3946621">
  <ele>-25.007</ele>
  <time>2026-09-01T01:14:25Z</time>
  <course>221.21</course>
  <speed>1.0117806086301515</speed>
  <fix>3d</fix>
</trkpt>
<trkpt lat="33.8106482" lon="-118.3946632">
  <ele>-24.4</ele>
  <time>2026-09-01T01:14:25Z</time>
  <course>131.19</course>
  <speed>0.99</speed>
  <fix>3d</fix>
</trkpt>
<trkpt lat="33.8106466" lon="-118.3946613">
  <ele>-25.008</ele>
  <time>2026-09-01T01:14:25Z</time>
  <course>221.33</course>
  <speed>1.0117806086301515</speed>
  <fix>3d</fix>
</trkpt>
<trkpt lat="33.8106482" lon="-118.3946632">
  <ele>-24.4</ele>
  <time>2026-09-01T01:14:25Z</time>
  <course>131.19</course>
  <speed>0.99</speed>
  <fix>3d</fix>
</trkpt>
<trkpt lat="33.810646" lon="-118.3946605">
  <ele>-25.009</ele>
  <time>2026-09-01T01:14:25Z</time>
  <course>221.45</course>
  <speed>1.0117806086301515</speed>
  <fix>3d</fix>
</trkpt>
<trkpt lat="33.8106471" lon="-118.3946616">
  <ele>-24.4</ele>
  <time>2026-09-01T01:14:25Z</time>
  <course>131.42</course>
  <speed>0.99</speed>
  <fix>3d</fix>
</trkpt>
<trkpt lat="33.8106454" lon="-118.3946597">
  <ele>-25.01</ele>
  <time>2026-09-01T01:14:25Z</time>
  <course>221.56</course>
  <speed>1.0117806086301515</speed>
  <fix>3d</fix>
</trkpt>
<trkpt lat="33.8106471" lon="-118.3946616">
  <ele>-24.4</ele>
  <time>2026-09-01T01:14:25Z</time>
  <course>131.42</course>
  <speed>0.99</speed>
  <fix>3d</fix>
</trkpt>
<trkpt lat="33.8106448" lon="-118.3946589">
  <ele>-25.011</ele>
  <time>2026-09-01T01:14:25Z</time>
  <course>221.67</course>
  <speed>1.0117806086301515</speed>
  <fix>3d</fix>
</trkpt>
<trkpt lat="33.8106459" lon="-118.3946599">
  <ele>-24.41</ele>
  <time>2026-09-01T01:14:25Z</time>
  <course>131.61</course>
  <speed>0.99</speed>
  <fix>3d</fix>
</trkpt>
<trkpt lat="33.8106442" lon="-118.3946581">
  <ele>-25.014</ele>
  <time>2026-09-01T01:14:25Z</time>
  <course>221.79</course>
  <speed>1.0117806086301515</speed>
  <fix>3d</fix>
</trkpt>
<trkpt lat="33.8106459" lon="-118.3946599">
  <ele>-24.41</ele>
  <time>2026-09-01T01:14:25Z</time>
  <course>131.61</course>
  <speed>0.99</speed>
  <fix>3d</fix>
</trkpt>
<trkpt lat="33.8106436" lon="-118.3946573">
  <ele>-25.016</ele>
  <time>2026-09-01T01:14:25Z</time>
  <course>221.9</course>
  <speed>1.0186265262597474</speed>
  <fix>3d</fix>
</trkpt>
<trkpt lat="33.8106447" lon="-118.3946583">
  <ele>-24.41</ele>
  <time>2026-09-01T01:14:25Z</time>
  <course>131.83</course>
  <speed>0.99</speed>
  <fix>3d</fix>
</trkpt>
<trkpt lat="33.810643" lon="-118.3946565">
  <ele>-25.018</ele>
  <time>2026-09-01T01:14:25Z</time>
  <course>222.01</course>
  <speed>1.0186265262597474</speed>
  <fix>3d</fix>
</trkpt>
<trkpt lat="33.8106447" lon="-118.3946583">
  <ele>-24.41</ele>
  <time>2026-09-01T01:14:25Z</time>
  <course>131.83</course>
  <speed>0.99</speed>
  <fix>3d</fix>
</trkpt>
<trkpt lat="33.8106424" lon="-118.3946557">
  <ele>-25.019</ele>
  <time>2026-09-01T01:14:25Z</time>
  <course>222.13</course>
  <speed>1.0113851887386922</speed>
  <fix>3d</fix>
</trkpt>
<trkpt lat="33.8106435" lon="-118.3946566">
  <ele>-24.42</ele>
  <time>2026-09-01T01:14:25Z</time>
  <course>132.1</course>
  <speed>0.99</speed>
  <fix>3d</fix>
</trkpt>
<trkpt lat="33.8106418" lon="-118.3946548">
  <ele>-25.019</ele>
  <time>2026-09-01T01:14:25Z</time>
  <course>222.25</course>
  <speed>1.0113851887386922</speed>
  <fix>3d</fix>
</trkpt>
<trkpt lat="33.8106435" lon="-118.3946566">
  <ele>-24.42</ele>
  <time>2026-09-01T01:14:25Z</time>
  <course>132.1</course>
  <speed>0.99</speed>
  <fix>3d</fix>
</trkpt>
<trkpt lat="33.8106412" lon="-118.394654">
  <ele>-25.018</ele>
  <time>2026-09-01T01:14:25Z</time>
  <course>222.36</course>
  <speed>1.0113851887386922</speed>
  <fix>3d</fix>
</trkpt>
<trkpt lat="33.8106423" lon="-118.3946551">
  <ele>-24.42</ele>
  <time>2026-09-01T01:14:25Z</time>
  <course>132.41</course>
  <speed>0.99</speed>
  <fix>3d</fix>
</trkpt>
<trkpt lat="33.8106406" lon="-118.3946533">
  <ele>-25.017</ele>
  <time>2026-09-01T01:14:25Z</time>
  <course>222.47</course>
  <speed>1.0183319694480775</speed>
  <fix>3d</fix>
</trkpt>
<trkpt lat="33.8106423" lon="-118.3946551">
  <ele>-24.42</ele>
  <time>2026-09-01T01:14:25Z</time>
  <course>132.41</course>
  <speed>0.99</speed>
  <fix>3d</fix>
</trkpt>
<trkpt lat="33.81064" lon="-118.3946525">
  <ele>-25.015</ele>
  <time>2026-09-01T01:14:25Z</time>
  <course>222.59</course>
  <speed>1.0183319694480775</speed>
  <fix>3d</fix>
</trkpt>
<trkpt lat="33.8106411" lon="-118.3946535">
  <ele>-24.41</ele>
  <time>2026-09-01T01:14:25Z</time>
  <course>132.71</course>
  <speed>0.99</speed>
  <fix>3d</fix>
</trkpt>
<trkpt lat="33.8106394" lon="-118.3946517">
  <ele>-25.013</ele>
  <time>2026-09-01T01:14:25Z</time>
  <course>222.7</course>
  <speed>1.0183319694480775</speed>
  <fix>3d</fix>
</trkpt>
<trkpt lat="33.8106411" lon="-118.3946535">
  <ele>-24.41</ele>
  <time>2026-09-01T01:14:25Z</time>
  <course>132.71</course>
  <speed>0.99</speed>
  <fix>3d</fix>
</trkpt>
<trkpt lat="33.8106388" lon="-118.3946509">
  <ele>-25.011</ele>
  <time>2026-09-01T01:14:25Z</time>
  <course>222.82</course>
  <speed>1.0183319694480775</speed>
  <fix>3d</fix>
</trkpt>
<trkpt lat="33.8106399" lon="-118.394652">
  <ele>-24.41</ele>
  <time>2026-09-01T01:14:25Z</time>
  <course>132.98</course>
  <speed>0.99</speed>
  <fix>3d</fix>
</trkpt>
<trkpt lat="33.8106382" lon="-118.3946501">
  <ele>-25.011</ele>
  <time>2026-09-01T01:14:25Z</time>
  <course>222.93</course>
  <speed>1.0111874208078342</speed>
  <fix>3d</fix>
</trkpt>
<trkpt lat="33.8106399" lon="-118.394652">
  <ele>-24.41</ele>
  <time>2026-09-01T01:14:25Z</time>
  <course>132.98</course>
  <speed>0.99</speed>
  <fix>3d</fix>
</trkpt>
<trkpt lat="33.8106375" lon="-118.3946493">
  <ele>-25.011</ele>
  <time>2026-09-01T01:14:25Z</time>
  <course>223.05</course>
  <speed>1.0111874208078342</speed>
  <fix>3d</fix>
</trkpt>
<trkpt lat="33.8106386" lon="-118.3946504">
  <ele>-24.41</ele>
  <time>2026-09-01T01:14:25Z</time>
  <course>133.22</course>
  <speed>1.0</speed>
  <fix>3d</fix>
</trkpt>
<trkpt lat="33.8106369" lon="-118.3946485">
  <ele>-25.012</ele>
  <time>2026-09-01T01:14:25Z</time>
  <course>223.16</course>
  <speed>1.0182337649086284</speed>
  <fix>3d</fix>
</trkpt>
<trkpt lat="33.8106386" lon="-118.3946504">
  <ele>-24.41</ele>
  <time>2026-09-01T01:14:25Z</time>
  <course>133.22</course>
  <speed>1.0</speed>
  <fix>3d</fix>
</trkpt>
<trkpt lat="33.8106363" lon="-118.3946477">
  <ele>-25.014</ele>
  <time>2026-09-01T01:14:25Z</time>
  <course>223.28</course>
  <speed>1.0182337649086284</speed>
  <fix>3d</fix>
</trkpt>
<trkpt lat="33.8106374" lon="-118.3946488">
  <ele>-24.41</ele>
  <time>2026-09-01T01:14:25Z</time>
  <course>133.4</course>
  <speed>1.0</speed>
  <fix>3d</fix>
</trkpt>
<trkpt lat="33.8106357" lon="-118.394647">
  <ele>-25.016</ele>
  <time>2026-09-01T01:14:25Z</time>
  <course>223.39</course>
  <speed>1.0182337649086284</speed>
  <fix>3d</fix>
</trkpt>
<trkpt lat="33.8106374" lon="-118.3946488">
  <ele>-24.41</ele>
  <time>2026-09-01T01:14:25Z</time>
  <course>133.4</course>
  <speed>1.0</speed>
  <fix>3d</fix>
</trkpt>
<trkpt lat="33.8106351" lon="-118.3946462">
  <ele>-25.017</ele>
  <time>2026-09-01T01:14:25Z</time>
  <course>223.51</course>
  <speed>1.0182337649086284</speed>
  <fix>3d</fix>
</trkpt>
<trkpt lat="33.8106362" lon="-118.3946472">
  <ele>-24.41</ele>
  <time>2026-09-01T01:14:25Z</time>
  <course>133.56</course>
  <speed>1.0</speed>
  <fix>3d</fix>
</trkpt>
<trkpt lat="33.8106344" lon="-118.3946454">
  <ele>-25.019</ele>
  <time>2026-09-01T01:14:25Z</time>
  <course>223.62</course>
  <speed>1.0182337649086284</speed>
  <fix>3d</fix>
</trkpt>
<trkpt lat="33.8106362" lon="-118.3946472">
  <ele>-24.41</ele>
  <time>2026-09-01T01:14:25Z</time>
  <course>133.56</course>
  <speed>1.0</speed>
  <fix>3d</fix>
</trkpt>
<trkpt lat="33.8106338" lon="-118.3946446">
  <ele>-25.019</ele>
  <time>2026-09-01T01:14:25Z</time>
  <course>223.74</course>
  <speed>1.0182337649086284</speed>
  <fix>3d</fix>
</trkpt>
<trkpt lat="33.8106349" lon="-118.3946456">
  <ele>-24.42</ele>
  <time>2026-09-01T01:14:25Z</time>
  <course>133.77</course>
  <speed>1.0</speed>
  <fix>3d</fix>
</trkpt>
<trkpt lat="33.8106332" lon="-118.3946438">
  <ele>-25.018</ele>
  <time>2026-09-01T01:14:25Z</time>
  <course>223.85</course>
  <speed>1.0111874208078342</speed>
  <fix>3d</fix>
</trkpt>
<trkpt lat="33.8106349" lon="-118.3946456">
  <ele>-24.42</ele>
  <time>2026-09-01T01:14:25Z</time>
  <course>133.77</course>
  <speed>1.0</speed>
  <fix>3d</fix>
</trkpt>
<trkpt lat="33.8106326" lon="-118.394643">
  <ele>-25.018</ele>
  <time>2026-09-01T01:14:25Z</time>
  <course>223.97</course>
  <speed>1.0111874208078342</speed>
  <fix>3d</fix>
</trkpt>
<trkpt lat="33.8106336" lon="-118.3946441">
  <ele>-24.41</ele>
  <time>2026-09-01T01:14:25Z</time>
  <course>134.01</course>
  <speed>1.0</speed>
  <fix>3d</fix>
</trkpt>
<trkpt lat="33.8106319" lon="-118.3946423">
  <ele>-25.017</ele>
  <time>2026-09-01T01:14:25Z</time>
  <course>224.08</course>
  <speed>1.0111874208078342</speed>
  <fix>3d</fix>
</trkpt>
<trkpt lat="33.8106336" lon="-118.3946441">
  <ele>-24.41</ele>
  <time>2026-09-01T01:14:25Z</time>
  <course>134.01</course>
  <speed>1.0</speed>
  <fix>3d</fix>
</trkpt>
<trkpt lat="33.8106313" lon="-118.3946415">
  <ele>-25.016</ele>
  <time>2026-09-01T01:14:25Z</time>
  <course>224.19</course>
  <speed>1.0111874208078342</speed>
  <fix>3d</fix>
</trkpt>
<trkpt lat="33.8106324" lon="-118.3946425">
  <ele>-24.41</ele>
  <time>2026-09-01T01:14:25Z</time>
  <course>134.23</course>
  <speed>1.0</speed>
  <fix>3d</fix>
</trkpt>
<trkpt lat="33.8106307" lon="-118.3946407">
  <ele>-25.015</ele>
  <time>2026-09-01T01:14:25Z</time>
  <course>224.31</course>
  <speed>1.0183319694480775</speed>
  <fix>3d</fix>
</trkpt>
<trkpt lat="33.8106324" lon="-118.3946425">
  <ele>-24.41</ele>
  <time>2026-09-01T01:14:25Z</time>
  <course>134.23</course>
  <speed>1.0</speed>
  <fix>3d</fix>
</trkpt>
<trkpt lat="33.81063" lon="-118.39464">
  <ele>-25.013</ele>
  <time>2026-09-01T01:14:25Z</time>
  <course>224.42</course>
  <speed>1.0183319694480775</speed>
  <fix>3d</fix>
</trkpt>
<trkpt lat="33.8106311" lon="-118.394641">
  <ele>-24.41</ele>
  <time>2026-09-01T01:14:25Z</time>
  <course>134.42</course>
  <speed>0.99</speed>
  <fix>3d</fix>
</trkpt>
<trkpt lat="33.8106294" lon="-118.3946392">
  <ele>-25.012</ele>
  <time>2026-09-01T01:14:25Z</time>
  <course>224.53</course>
  <speed>1.0183319694480775</speed>
  <fix>3d</fix>
</trkpt>
<trkpt lat="33.8106311" lon="-118.394641">
  <ele>-24.41</ele>
  <time>2026-09-01T01:14:25Z</time>
  <course>134.42</course>
  <speed>0.99</speed>
  <fix>3d</fix>
</trkpt>
<trkpt lat="33.8106288" lon="-118.3946384">
  <ele>-25.011</ele>
  <time>2026-09-01T01:14:25Z</time>
  <course>224.65</course>
  <speed>1.0113851887386922</speed>
  <fix>3d</fix>
</trkpt>
<trkpt lat="33.8106299" lon="-118.3946394">
  <ele>-24.41</ele>
  <time>2026-09-01T01:14:25Z</time>
  <course>134.62</course>
  <speed>0.99</speed>
  <fix>3d</fix>
</trkpt>
<trkpt lat="33.8106281" lon="-118.3946376">
  <ele>-25.01</ele>
  <time>2026-09-01T01:14:25Z</time>
  <course>224.76</course>
  <speed>1.0113851887386922</speed>
  <fix>3d</fix>
</trkpt>
<trkpt lat="33.8106299" lon="-118.3946394">
  <ele>-24.41</ele>
  <time>2026-09-01T01:14:25Z</time>
  <course>134.62</course>
  <speed>0.99</speed>
  <fix>3d</fix>
</trkpt>
<trkpt lat="33.8106275" lon="-118.3946369">
  <ele>-25.012</ele>
  <time>2026-09-01T01:14:25Z</time>
  <course>224.88</course>
  <speed>1.0113851887386922</speed>
  <fix>3d</fix>
</trkpt>
<trkpt lat="33.8106286" lon="-118.3946379">
  <ele>-24.41</ele>
  <time>2026-09-01T01:14:25Z</time>
  <course>134.84</course>
  <speed>0.99</speed>
  <fix>3d</fix>
</trkpt>
<trkpt lat="33.8106269" lon="-118.3946361">
  <ele>-25.014</ele>
  <time>2026-09-01T01:14:25Z</time>
  <course>224.99</course>
  <speed>1.0113851887386922</speed>
  <fix>3d</fix>
</trkpt>
<trkpt lat="33.8106286" lon="-118.3946379">
  <ele>-24.41</ele>
  <time>2026-09-01T01:14:25Z</time>
  <course>134.84</course>
  <speed>0.99</speed>
  <fix>3d</fix>
</trkpt>
<trkpt lat="33.8106262" lon="-118.3946354">
  <ele>-25.015</ele>
  <time>2026-09-01T01:14:25Z</time>
  <course>225.11</course>
  <speed>1.0186265262597474</speed>
  <fix>3d</fix>
</trkpt>
<trkpt lat="33.8106274" lon="-118.3946364">
  <ele>-24.41</ele>
  <time>2026-09-01T01:14:25Z</time>
  <course>135.09</course>
  <speed>0.99</speed>
  <fix>3d</fix>
</trkpt>
<trkpt lat="33.8106256" lon="-118.3946346">
  <ele>-25.016</ele>
  <time>2026-09-01T01:14:25Z</time>
  <course>225.23</course>
  <speed>1.0186265262597474</speed>
  <fix>3d</fix>
</trkpt>
<trkpt lat="33.8106274" lon="-118.3946364">
  <ele>-24.41</ele>
  <time>2026-09-01T01:14:25Z</time>
  <course>135.09</course>
  <speed>0.99</speed>
  <fix>3d</fix>
</trkpt>
<trkpt lat="33.810625" lon="-118.3946338">
  <ele>-25.017</ele>
  <time>2026-09-01T01:14:25Z</time>
  <course>225.34</course>
  <speed>1.0117806086301515</speed>
  <fix>3d</fix>
</trkpt>
<trkpt lat="33.8106261" lon="-118.3946348">
  <ele>-24.41</ele>
  <time>2026-09-01T01:14:25Z</time>
  <course>135.32</course>
  <speed>0.99</speed>
  <fix>3d</fix>
</trkpt>
<trkpt lat="33.8106243" lon="-118.3946331">
  <ele>-25.017</ele>
  <time>2026-09-01T01:14:25Z</time>
  <course>225.45</course>
  <speed>1.0117806086301515</speed>
  <fix>3d</fix>
</trkpt>
<trkpt lat="33.8106261" lon="-118.3946348">
  <ele>-24.41</ele>
  <time>2026-09-01T01:14:25Z</time>
  <course>135.32</course>
  <speed>0.99</speed>
  <fix>3d</fix>
</trkpt>
<trkpt lat="33.8106237" lon="-118.3946323">
  <ele>-25.018</ele>
  <time>2026-09-01T01:14:25Z</time>
  <course>225.57</course>
  <speed>1.0117806086301515</speed>
  <fix>3d</fix>
</trkpt>
<trkpt lat="33.8106248" lon="-118.3946333">
  <ele>-24.41</ele>
  <time>2026-09-01T01:14:25Z</time>
  <course>135.58</course>
  <speed>0.99</speed>
  <fix>3d</fix>
</trkpt>
<trkpt lat="33.810623" lon="-118.3946316">
  <ele>-25.018</ele>
  <time>2026-09-01T01:14:25Z</time>
  <course>225.68</course>
  <speed>1.0117806086301515</speed>
  <fix>3d</fix>
</trkpt>
<trkpt lat="33.8106248" lon="-118.3946333">
  <ele>-24.41</ele>
  <time>2026-09-01T01:14:25Z</time>
  <course>135.58</course>
  <speed>0.99</speed>
  <fix>3d</fix>
</trkpt>
<trkpt lat="33.8106224" lon="-118.3946308">
  <ele>-25.018</ele>
  <time>2026-09-01T01:14:25Z</time>
  <course>225.8</course>
  <speed>1.0191172650877818</speed>
  <fix>3d</fix>
</trkpt>
<trkpt lat="33.8106235" lon="-118.3946318">
  <ele>-24.4</ele>
  <time>2026-09-01T01:14:25Z</time>
  <course>135.86</course>
  <speed>0.99</speed>
  <fix>3d</fix>
</trkpt>
<trkpt lat="33.8106217" lon="-118.3946301">
  <ele>-25.017</ele>
  <time>2026-09-01T01:14:25Z</time>
  <course>225.91</course>
  <speed>1.0191172650877818</speed>
  <fix>3d</fix>
</trkpt>
<trkpt lat="33.8106235" lon="-118.3946318">
  <ele>-24.4</ele>
  <time>2026-09-01T01:14:25Z</time>
  <course>135.86</course>
  <speed>0.99</speed>
  <fix>3d</fix>
</trkpt>
<trkpt lat="33.8106211" lon="-118.3946293">
  <ele>-25.016</ele>
  <time>2026-09-01T01:14:25Z</time>
  <course>226.03</course>
  <speed>1.0123734488813898</speed>
  <fix>3d</fix>
</trkpt>
<trkpt lat="33.8106222" lon="-118.3946303">
  <ele>-24.4</ele>
  <time>2026-09-01T01:14:25Z</time>
  <course>136.11</course>
  <speed>0.99</speed>
  <fix>3d</fix>
</trkpt>
<trkpt lat="33.8106204" lon="-118.3946286">
  <ele>-25.015</ele>
  <time>2026-09-01T01:14:25Z</time>
  <course>226.14</course>
  <speed>1.0123734488813898</speed>
  <fix>3d</fix>
</trkpt>
<trkpt lat="33.8106222" lon="-118.3946303">
  <ele>-24.4</ele>
  <time>2026-09-01T01:14:25Z</time>
  <course>136.11</course>
  <speed>0.99</speed>
  <fix>3d</fix>
</trkpt>
<trkpt lat="33.8106198" lon="-118.3946278">
  <ele>-25.013</ele>
  <time>2026-09-01T01:14:25Z</time>
  <course>226.25</course>
  <speed>1.0123734488813898</speed>
  <fix>3d</fix>
</trkpt>
<trkpt lat="33.8106209" lon="-118.3946288">
  <ele>-24.4</ele>
  <time>2026-09-01T01:14:25Z</time>
  <course>136.34</course>
  <speed>0.99</speed>
  <fix>3d</fix>
</trkpt>
<trkpt lat="33.8106191" lon="-118.3946271">
  <ele>-25.011</ele>
  <time>2026-09-01T01:14:25Z</time>
  <course>226.37</course>
  <speed>1.0123734488813898</speed>
  <fix>3d</fix>
</trkpt>
<trkpt lat="33.8106209" lon="-118.3946288">
  <ele>-24.4</ele>
  <time>2026-09-01T01:14:25Z</time>
  <course>136.34</course>
  <speed>0.99</speed>
  <fix>3d</fix>
</trkpt>
<trkpt lat="33.8106185" lon="-118.3946263">
  <ele>-25.01</ele>
  <time>2026-09-01T01:14:25Z</time>
  <course>226.48</course>
  <speed>1.0123734488813898</speed>
  <fix>3d</fix>
</trkpt>
<trkpt lat="33.8106196" lon="-118.3946273">
  <ele>-24.39</ele>
  <time>2026-09-01T01:14:25Z</time>
  <course>136.53</course>
  <speed>0.99</speed>
  <fix>3d</fix>
</trkpt>
<trkpt lat="33.8106178" lon="-118.3946256">
  <ele>-25.008</ele>
  <time>2026-09-01T01:14:25Z</time>
  <course>226.6</course>
  <speed>1.0123734488813898</speed>
  <fix>3d</fix>
</trkpt>
<trkpt lat="33.8106196" lon="-118.3946273">
  <ele>-24.39</ele>
  <time>2026-09-01T01:14:25Z</time>
  <course>136.53</course>
  <speed>0.99</speed>
  <fix>3d</fix>
</trkpt>
<trkpt lat="33.8106172" lon="-118.3946249">
  <ele>-25.008</ele>
  <time>2026-09-01T01:14:25Z</time>
  <course>226.71</course>
  <speed>1.019803902718557</speed>
  <fix>3d</fix>
</trkpt>
<trkpt lat="33.8106183" lon="-118.3946259">
  <ele>-24.39</ele>
  <time>2026-09-01T01:14:25Z</time>
  <course>136.72</course>
  <speed>0.99</speed>
  <fix>3d</fix>
</trkpt>
<trkpt lat="33.8106165" lon="-118.3946241">
  <ele>-25.009</ele>
  <time>2026-09-01T01:14:25Z</time>
  <course>226.83</course>
  <speed>1.019803902718557</speed>
  <fix>3d</fix>
</trkpt>
<trkpt lat="33.8106183" lon="-118.3946259">
  <ele>-24.39</ele>
  <time>2026-09-01T01:14:25Z</time>
  <course>136.72</course>
  <speed>0.99</speed>
  <fix>3d</fix>
</trkpt>
<trkpt lat="33.8106158" lon="-118.3946234">
  <ele>-25.011</ele>
  <time>2026-09-01T01:14:25Z</time>
  <course>226.94</course>
  <speed>1.0131633629380803</speed>
  <fix>3d</fix>
</trkpt>
<trkpt lat="33.810617" lon="-118.3946244">
  <ele>-24.39</ele>
  <time>2026-09-01T01:14:25Z</time>
  <course>136.91</course>
  <speed>0.99</speed>
  <fix>3d</fix>
</trkpt>
<trkpt lat="33.8106152" lon="-118.3946226">
  <ele>-25.013</ele>
  <time>2026-09-01T01:14:25Z</time>
  <course>227.06</course>
  <speed>1.0131633629380803</speed>
  <fix>3d</fix>
</trkpt>
<trkpt lat="33.810617" lon="-118.3946244">
  <ele>-24.39</ele>
  <time>2026-09-01T01:14:25Z</time>
  <course>136.91</course>
  <speed>0.99</speed>
  <fix>3d</fix>
</trkpt>
<trkpt lat="33.8106145" lon="-118.3946219">
  <ele>-25.014</ele>
  <time>2026-09-01T01:14:25Z</time>
  <course>227.17</course>
  <speed>1.0131633629380803</speed>
  <fix>3d</fix>
</trkpt>
<trkpt lat="33.8106157" lon="-118.3946229">
  <ele>-24.4</ele>
  <time>2026-09-01T01:14:25Z</time>
  <course>137.08</course>
  <speed>0.99</speed>
  <fix>3d</fix>
</trkpt>
<trkpt lat="33.8106139" lon="-118.3946212">
  <ele>-25.014</ele>
  <time>2026-09-01T01:14:25Z</time>
  <course>227.29</course>
  <speed>1.0131633629380803</speed>
  <fix>3d</fix>
</trkpt>
<trkpt lat="33.8106157" lon="-118.3946229">
  <ele>-24.4</ele>
  <time>2026-09-01T01:14:25Z</time>
  <course>137.08</course>
  <speed>0.99</speed>
  <fix>3d</fix>
</trkpt>
<trkpt lat="33.8106132" lon="-118.3946205">
  <ele>-25.011</ele>
  <time>2026-09-01T01:14:26Z</time>
  <course>227.4</course>
  <speed>1.0131633629380803</speed>
  <fix>3d</fix>
</trkpt>
<trkpt lat="33.8106144" lon="-118.3946215">
  <ele>-24.4</ele>
  <time>2026-09-01T01:14:26Z</time>
  <course>137.28</course>
  <speed>0.99</speed>
  <fix>3d</fix>
</trkpt>
<trkpt lat="33.8106125" lon="-118.3946197">
  <ele>-25.009</ele>
  <time>2026-09-01T01:14:26Z</time>
  <course>227.51</course>
  <speed>1.0206860437960343</speed>
  <fix>3d</fix>
</trkpt>
<trkpt lat="33.8106144" lon="-118.3946215">
  <ele>-24.4</ele>
  <time>2026-09-01T01:14:26Z</time>
  <course>137.28</course>
  <speed>0.99</speed>
  <fix>3d</fix>
</trkpt>
<trkpt lat="33.8106119" lon="-118.394619">
  <ele>-25.009</ele>
  <time>2026-09-01T01:14:26Z</time>
  <course>227.62</course>
  <speed>1.0206860437960343</speed>
  <fix>3d</fix>
</trkpt>
<trkpt lat="33.8106131" lon="-118.39462">
  <ele>-24.4</ele>
  <time>2026-09-01T01:14:26Z</time>
  <course>137.51</course>
  <speed>1.0</speed>
  <fix>3d</fix>
</trkpt>
<trkpt lat="33.8106112" lon="-118.3946183">
  <ele>-25.009</ele>
  <time>2026-09-01T01:14:26Z</time>
  <course>227.74</course>
  <speed>1.0141498903022177</speed>
  <fix>3d</fix>
</trkpt>
<trkpt lat="33.8106131" lon="-118.39462">
  <ele>-24.4</ele>
  <time>2026-09-01T01:14:26Z</time>
  <course>137.51</course>
  <speed>1.0</speed>
  <fix>3d</fix>
</trkpt>
<trkpt lat="33.8106105" lon="-118.3946175">
  <ele>-25.009</ele>
  <time>2026-09-01T01:14:26Z</time>
  <course>227.86</course>
  <speed>1.0141498903022177</speed>
  <fix>3d</fix>
</trkpt>
<trkpt lat="33.8106117" lon="-118.3946185">
  <ele>-24.4</ele>
  <time>2026-09-01T01:14:26Z</time>
  <course>137.76</course>
  <speed>1.0</speed>
  <fix>3d</fix>
</trkpt>
<trkpt lat="33.8106099" lon="-118.3946168">
  <ele>-25.01</ele>
  <time>2026-09-01T01:14:26Z</time>
  <course>227.98</course>
  <speed>1.0141498903022177</speed>
  <fix>3d</fix>
</trkpt>
<trkpt lat="33.8106117" lon="-118.3946185">
  <ele>-24.4</ele>
  <time>2026-09-01T01:14:26Z</time>
  <course>137.76</course>
  <speed>1.0</speed>
  <fix>3d</fix>
</trkpt>
<trkpt lat="33.8106092" lon="-118.3946161">
  <ele>-25.01</ele>
  <time>2026-09-01T01:14:26Z</time>
  <course>228.09</course>
  <speed>1.0141498903022177</speed>
  <fix>3d</fix>
</trkpt>
<trkpt lat="33.8106104" lon="-118.3946171">
  <ele>-24.4</ele>
  <time>2026-09-01T01:14:26Z</time>
  <course>138.02</course>
  <speed>1.0</speed>
  <fix>3d</fix>
</trkpt>
<trkpt lat="33.8106085" lon="-118.3946154">
  <ele>-25.011</ele>
  <time>2026-09-01T01:14:26Z</time>
  <course>228.21</course>
  <speed>1.0217631819555841</speed>
  <fix>3d</fix>
</trkpt>
<trkpt lat="33.8106104" lon="-118.3946171">
  <ele>-24.4</ele>
  <time>2026-09-01T01:14:26Z</time>
  <course>138.02</course>
  <speed>1.0</speed>
  <fix>3d</fix>
</trkpt>
<trkpt lat="33.8106079" lon="-118.3946147">
  <ele>-25.012</ele>
  <time>2026-09-01T01:14:26Z</time>
  <course>228.32</course>
  <speed>1.0217631819555841</speed>
  <fix>3d</fix>
</trkpt>
<trkpt lat="33.8106091" lon="-118.3946156">
  <ele>-24.4</ele>
  <time>2026-09-01T01:14:26Z</time>
  <course>138.26</course>
  <speed>1.0</speed>
  <fix>3d</fix>
</trkpt>
<trkpt lat="33.8106072" lon="-118.394614">
  <ele>-25.013</ele>
  <time>2026-09-01T01:14:26Z</time>
  <course>228.44</course>
  <speed>1.015332457867865</speed>
  <fix>3d</fix>
</trkpt>
<trkpt lat="33.8106091" lon="-118.3946156">
  <ele>-24.4</ele>
  <time>2026-09-01T01:14:26Z</time>
  <course>138.26</course>
  <speed>1.0</speed>
  <fix>3d</fix>
</trkpt>
<trkpt lat="33.8106065" lon="-118.3946132">
  <ele>-25.013</ele>
  <time>2026-09-01T01:14:26Z</time>
  <course>228.55</course>
  <speed>1.015332457867865</speed>
  <fix>3d</fix>
</trkpt>
<trkpt lat="33.8106077" lon="-118.3946142">
  <ele>-24.41</ele>
  <time>2026-09-01T01:14:26Z</time>
  <course>138.51</course>
  <speed>1.0</speed>
  <fix>3d</fix>
</trkpt>
<trkpt lat="33.8106058" lon="-118.3946125">
  <ele>-25.014</ele>
  <time>2026-09-01T01:14:26Z</time>
  <course>228.67</course>
  <speed>1.015332457867865</speed>
  <fix>3d</fix>
</trkpt>
<trkpt lat="33.8106077" lon="-118.3946142">
  <ele>-24.41</ele>
  <time>2026-09-01T01:14:26Z</time>
  <course>138.51</course>
  <speed>1.0</speed>
  <fix>3d</fix>
</trkpt>
<trkpt lat="33.8106052" lon="-118.3946118">
  <ele>-25.015</ele>
  <time>2026-09-01T01:14:26Z</time>
  <course>228.78</course>
  <speed>1.015332457867865</speed>
  <fix>3d</fix>
</trkpt>
<trkpt lat="33.8106064" lon="-118.3946128">
  <ele>-24.41</ele>
  <time>2026-09-01T01:14:26Z</time>
  <course>138.76</course>
  <speed>1.0</speed>
  <fix>3d</fix>
</trkpt>
<trkpt lat="33.8106045" lon="-118.3946111">
  <ele>-25.014</ele>
  <time>2026-09-01T01:14:26Z</time>
  <course>228.89</course>
  <speed>1.015332457867865</speed>
  <fix>3d</fix>
</trkpt>
<trkpt lat="33.8106064" lon="-118.3946128">
  <ele>-24.41</ele>
  <time>2026-09-01T01:14:26Z</time>
  <course>138.76</course>
  <speed>1.0</speed>
  <fix>3d</fix>
</trkpt>
<trkpt lat="33.8106038" lon="-118.3946104">
  <ele>-25.014</ele>
  <time>2026-09-01T01:14:26Z</time>
  <course>229.01</course>
  <speed>1.015332457867865</speed>
  <fix>3d</fix>
</trkpt>
<trkpt lat="33.810605" lon="-118.3946114">
  <ele>-24.41</ele>
  <time>2026-09-01T01:14:26Z</time>
  <course>138.98</course>
  <speed>1.0</speed>
  <fix>3d</fix>
</trkpt>
<trkpt lat="33.8106031" lon="-118.3946097">
  <ele>-25.015</ele>
  <time>2026-09-01T01:14:26Z</time>
  <course>229.12</course>
  <speed>1.0230347012687302</speed>
  <fix>3d</fix>
</trkpt>
<trkpt lat="33.810605" lon="-118.3946114">
  <ele>-24.41</ele>
  <time>2026-09-01T01:14:26Z</time>
  <course>138.98</course>
  <speed>1.0</speed>
  <fix>3d</fix>
</trkpt>
<trkpt lat="33.8106024" lon="-118.394609">
  <ele>-25.015</ele>
  <time>2026-09-01T01:14:26Z</time>
  <course>229.24</course>
  <speed>1.0167103815738285</speed>
  <fix>3d</fix>
</trkpt>
<trkpt lat="33.8106037" lon="-118.3946099">
  <ele>-24.41</ele>
  <time>2026-09-01T01:14:26Z</time>
  <course>139.18</course>
  <speed>1.0</speed>
  <fix>3d</fix>
</trkpt>
<trkpt lat="33.8106018" lon="-118.3946083">
  <ele>-25.015</ele>
  <time>2026-09-01T01:14:26Z</time>
  <course>229.35</course>
  <speed>1.0167103815738285</speed>
  <fix>3d</fix>
</trkpt>
<trkpt lat="33.8106037" lon="-118.3946099">
  <ele>-24.41</ele>
  <time>2026-09-01T01:14:26Z</time>
  <course>139.18</course>
  <speed>1.0</speed>
  <fix>3d</fix>
</trkpt>
<trkpt lat="33.8106011" lon="-118.3946076">
  <ele>-25.016</ele>
  <time>2026-09-01T01:14:26Z</time>
  <course>229.47</course>
  <speed>1.0167103815738285</speed>
  <fix>3d</fix>
</trkpt>
<trkpt lat="33.8106023" lon="-118.3946085">
  <ele>-24.41</ele>
  <time>2026-09-01T01:14:26Z</time>
  <course>139.39</course>
  <speed>1.0</speed>
  <fix>3d</fix>
</trkpt>
<trkpt lat="33.8106004" lon="-118.3946069">
  <ele>-25.016</ele>
  <time>2026-09-01T01:14:26Z</time>
  <course>229.58</course>
  <speed>1.0167103815738285</speed>
  <fix>3d</fix>
</trkpt>
<trkpt lat="33.8106023" lon="-118.3946085">
  <ele>-24.41</ele>
  <time>2026-09-01T01:14:26Z</time>
  <course>139.39</course>
  <speed>1.0</speed>
  <fix>3d</fix>
</trkpt>
<trkpt lat="33.8105997" lon="-118.3946062">
  <ele>-25.015</ele>
  <time>2026-09-01T01:14:26Z</time>
  <course>229.69</course>
  <speed>1.0167103815738285</speed>
  <fix>3d</fix>
</trkpt>
<trkpt lat="33.8106009" lon="-118.3946071">
  <ele>-24.41</ele>
  <time>2026-09-01T01:14:26Z</time>
  <course>139.66</course>
  <speed>1.0</speed>
  <fix>3d</fix>
</trkpt>
<trkpt lat="33.810599" lon="-118.3946055">
  <ele>-25.014</ele>
  <time>2026-09-01T01:14:26Z</time>
  <course>229.81</course>
  <speed>1.0167103815738285</speed>
  <fix>3d</fix>
</trkpt>
<trkpt lat="33.8106009" lon="-118.3946071">
  <ele>-24.41</ele>
  <time>2026-09-01T01:14:26Z</time>
  <course>139.66</course>
  <speed>1.0</speed>
  <fix>3d</fix>
</trkpt>
<trkpt lat="33.8105983" lon="-118.3946048">
  <ele>-25.013</ele>
  <time>2026-09-01T01:14:26Z</time>
  <course>229.92</course>
  <speed>1.0182828683622247</speed>
  <fix>3d</fix>
</trkpt>
<trkpt lat="33.8105995" lon="-118.3946057">
  <ele>-24.41</ele>
  <time>2026-09-01T01:14:26Z</time>
  <course>139.92</course>
  <speed>1.0</speed>
  <fix>3d</fix>
</trkpt>
<trkpt lat="33.8105976" lon="-118.3946041">
  <ele>-25.013</ele>
  <time>2026-09-01T01:14:26Z</time>
  <course>230.04</course>
  <speed>1.0182828683622247</speed>
  <fix>3d</fix>
</trkpt>
<trkpt lat="33.8105995" lon="-118.3946057">
  <ele>-24.41</ele>
  <time>2026-09-01T01:14:26Z</time>
  <course>139.92</course>
  <speed>1.0</speed>
  <fix>3d</fix>
</trkpt>
<trkpt lat="33.8105969" lon="-118.3946034">
  <ele>-25.012</ele>
  <time>2026-09-01T01:14:26Z</time>
  <course>230.15</course>
  <speed>1.0182828683622247</speed>
  <fix>3d</fix>
</trkpt>
<trkpt lat="33.8105982" lon="-118.3946043">
  <ele>-24.41</ele>
  <time>2026-09-01T01:14:26Z</time>
  <course>140.15</course>
  <speed>1.0</speed>
  <fix>3d</fix>
</trkpt>
<trkpt lat="33.8105962" lon="-118.3946027">
  <ele>-25.013</ele>
  <time>2026-09-01T01:14:26Z</time>
  <course>230.27</course>
  <speed>1.0182828683622247</speed>
  <fix>3d</fix>
</trkpt>
<trkpt lat="33.8105982" lon="-118.3946043">
  <ele>-24.41</ele>
  <time>2026-09-01T01:14:26Z</time>
  <course>140.15</course>
  <speed>1.0</speed>
  <fix>3d</fix>
</trkpt>
<trkpt lat="33.8105956" lon="-118.394602">
  <ele>-25.015</ele>
  <time>2026-09-01T01:14:26Z</time>
  <course>230.38</course>
  <speed>1.0182828683622247</speed>
  <fix>3d</fix>
</trkpt>
<trkpt lat="33.8105968" lon="-118.3946029">
  <ele>-24.41</ele>
  <time>2026-09-01T01:14:26Z</time>
  <course>140.37</course>
  <speed>1.0</speed>
  <fix>3d</fix>
</trkpt>
<trkpt lat="33.8105949" lon="-118.3946013">
  <ele>-25.016</ele>
  <time>2026-09-01T01:14:26Z</time>
  <course>230.5</course>
  <speed>1.0182828683622247</speed>
  <fix>3d</fix>
</trkpt>
<trkpt lat="33.8105968" lon="-118.3946029">
  <ele>-24.41</ele>
  <time>2026-09-01T01:14:26Z</time>
  <course>140.37</course>
  <speed>1.0</speed>
  <fix>3d</fix>
</trkpt>
<trkpt lat="33.8105942" lon="-118.3946007">
  <ele>-25.018</ele>
  <time>2026-09-01T01:14:26Z</time>
  <course>230.61</course>
  <speed>1.0121264743103995</speed>
  <fix>3d</fix>
</trkpt>
<trkpt lat="33.8105953" lon="-118.3946015">
  <ele>-24.41</ele>
  <time>2026-09-01T01:14:26Z</time>
  <course>140.63</course>
  <speed>1.0</speed>
  <fix>3d</fix>
</trkpt>
<trkpt lat="33.8105935" lon="-118.3946">
  <ele>-25.019</ele>
  <time>2026-09-01T01:14:26Z</time>
  <course>230.73</course>
  <speed>1.0200490184299968</speed>
  <fix>3d</fix>
</trkpt>
<trkpt lat="33.8105953" lon="-118.3946015">
  <ele>-24.41</ele>
  <time>2026-09-01T01:14:26Z</time>
  <course>140.63</course>
  <speed>1.0</speed>
  <fix>3d</fix>
</trkpt>
<trkpt lat="33.8105928" lon="-118.3945993">
  <ele>-25.019</ele>
  <time>2026-09-01T01:14:26Z</time>
  <course>230.84</course>
  <speed>1.0200490184299968</speed>
  <fix>3d</fix>
</trkpt>
<trkpt lat="33.8105939" lon="-118.3946002">
  <ele>-24.41</ele>
  <time>2026-09-01T01:14:26Z</time>
  <course>140.89</course>
  <speed>1.0</speed>
  <fix>3d</fix>
</trkpt>
<trkpt lat="33.8105921" lon="-118.3945986">
  <ele>-25.019</ele>
  <time>2026-09-01T01:14:26Z</time>
  <course>230.95</course>
  <speed>1.0200490184299968</speed>
  <fix>3d</fix>
</trkpt>
<trkpt lat="33.8105939" lon="-118.3946002">
  <ele>-24.41</ele>
  <time>2026-09-01T01:14:26Z</time>
  <course>140.89</course>
  <speed>1.0</speed>
  <fix>3d</fix>
</trkpt>
<trkpt lat="33.8105914" lon="-118.3945979">
  <ele>-25.019</ele>
  <time>2026-09-01T01:14:26Z</time>
  <course>231.07</course>
  <speed>1.0200490184299968</speed>
  <fix>3d</fix>
</trkpt>
<trkpt lat="33.8105926" lon="-118.3945988">
  <ele>-24.41</ele>
  <time>2026-09-01T01:14:26Z</time>
  <course>141.07</course>
  <speed>1.0</speed>
  <fix>3d</fix>
</trkpt>
<trkpt lat="33.8105907" lon="-118.3945973">
  <ele>-25.019</ele>
  <time>2026-09-01T01:14:26Z</time>
  <course>231.19</course>
  <speed>1.0200490184299968</speed>
  <fix>3d</fix>
</trkpt>
<trkpt lat="33.8105926" lon="-118.3945988">
  <ele>-24.41</ele>
  <time>2026-09-01T01:14:26Z</time>
  <course>141.07</course>
  <speed>1.0</speed>
  <fix>3d</fix>
</trkpt>
<trkpt lat="33.81059" lon="-118.3945966">
  <ele>-25.018</ele>
  <time>2026-09-01T01:14:26Z</time>
  <course>231.3</course>
  <speed>1.0200490184299968</speed>
  <fix>3d</fix>
</trkpt>
<trkpt lat="33.8105912" lon="-118.3945974">
  <ele>-24.41</ele>
  <time>2026-09-01T01:14:26Z</time>
  <course>141.23</course>
  <speed>1.0</speed>
  <fix>3d</fix>
</trkpt>
<trkpt lat="33.8105893" lon="-118.3945959">
  <ele>-25.017</ele>
  <time>2026-09-01T01:14:26Z</time>
  <course>231.41</course>
  <speed>1.0140019723846694</speed>
  <fix>3d</fix>
</trkpt>
<trkpt lat="33.8105912" lon="-118.3945974">
  <ele>-24.41</ele>
  <time>2026-09-01T01:14:26Z</time>
  <course>141.23</course>
  <speed>1.0</speed>
  <fix>3d</fix>
</trkpt>
<trkpt lat="33.8105886" lon="-118.3945953">
  <ele>-25.016</ele>
  <time>2026-09-01T01:14:26Z</time>
  <course>231.53</course>
  <speed>1.0140019723846694</speed>
  <fix>3d</fix>
</trkpt>
<trkpt lat="33.8105898" lon="-118.3945961">
  <ele>-24.4</ele>
  <time>2026-09-01T01:14:26Z</time>
  <course>141.46</course>
  <speed>1.0</speed>
  <fix>3d</fix>
</trkpt>
<trkpt lat="33.8105879" lon="-118.3945946">
  <ele>-25.016</ele>
  <time>2026-09-01T01:14:26Z</time>
  <course>231.64</course>
  <speed>1.0220078277586722</speed>
  <fix>3d</fix>
</trkpt>
<trkpt lat="33.8105898" lon="-118.3945961">
  <ele>-24.4</ele>
  <time>2026-09-01T01:14:26Z</time>
  <course>141.46</course>
  <speed>1.0</speed>
  <fix>3d</fix>
</trkpt>
<trkpt lat="33.8105871" lon="-118.3945939">
  <ele>-25.014</ele>
  <time>2026-09-01T01:14:26Z</time>
  <course>231.76</course>
  <speed>1.0220078277586722</speed>
  <fix>3d</fix>
</trkpt>
<trkpt lat="33.8105883" lon="-118.3945947">
  <ele>-24.4</ele>
  <time>2026-09-01T01:14:26Z</time>
  <course>141.73</course>
  <speed>1.0</speed>
  <fix>3d</fix>
</trkpt>
<trkpt lat="33.8105864" lon="-118.3945932">
  <ele>-25.013</ele>
  <time>2026-09-01T01:14:26Z</time>
  <course>231.87</course>
  <speed>1.0220078277586722</speed>
  <fix>3d</fix>
</trkpt>
<trkpt lat="33.8105883" lon="-118.3945947">
  <ele>-24.4</ele>
  <time>2026-09-01T01:14:26Z</time>
  <course>141.73</course>
  <speed>1.0</speed>
  <fix>3d</fix>
</trkpt>
<trkpt lat="33.8105857" lon="-118.3945926">
  <ele>-25.011</ele>
  <time>2026-09-01T01:14:26Z</time>
  <course>231.99</course>
  <speed>1.016070863670443</speed>
  <fix>3d</fix>
</trkpt>
<trkpt lat="33.8105868" lon="-118.3945934">
  <ele>-24.4</ele>
  <time>2026-09-01T01:14:26Z</time>
  <course>141.98</course>
  <speed>1.0</speed>
  <fix>3d</fix>
</trkpt>
<trkpt lat="33.810585" lon="-118.3945919">
  <ele>-25.009</ele>
  <time>2026-09-01T01:14:26Z</time>
  <course>232.1</course>
  <speed>1.016070863670443</speed>
  <fix>3d</fix>
</trkpt>
<trkpt lat="33.8105868" lon="-118.3945934">
  <ele>-24.4</ele>
  <time>2026-09-01T01:14:26Z</time>
  <course>141.98</course>
  <speed>1.0</speed>
  <fix>3d</fix>
</trkpt>
<trkpt lat="33.8105843" lon="-118.3945913">
  <ele>-25.008</ele>
  <time>2026-09-01T01:14:26Z</time>
  <course>232.22</course>
  <speed>1.016070863670443</speed>
  <fix>3d</fix>
</trkpt>
<trkpt lat="33.8105855" lon="-118.394592">
  <ele>-24.4</ele>
  <time>2026-09-01T01:14:26Z</time>
  <course>142.19</course>
  <speed>1.0</speed>
  <fix>3d</fix>
</trkpt>
<trkpt lat="33.8105836" lon="-118.3945906">
  <ele>-25.007</ele>
  <time>2026-09-01T01:14:26Z</time>
  <course>232.33</course>
  <speed>1.016070863670443</speed>
  <fix>3d</fix>
</trkpt>
<trkpt lat="33.8105855" lon="-118.394592">
  <ele>-24.4</ele>
  <time>2026-09-01T01:14:26Z</time>
  <course>142.19</course>
  <speed>1.0</speed>
  <fix>3d</fix>
</trkpt>
<trkpt lat="33.8105829" lon="-118.3945899">
  <ele>-25.007</ele>
  <time>2026-09-01T01:14:26Z</time>
  <course>232.44</course>
  <speed>1.016070863670443</speed>
  <fix>3d</fix>
</trkpt>
<trkpt lat="33.810584" lon="-118.3945907">
  <ele>-24.4</ele>
  <time>2026-09-01T01:14:26Z</time>
  <course>142.39</course>
  <speed>1.0</speed>
  <fix>3d</fix>
</trkpt>
<trkpt lat="33.8105821" lon="-118.3945893">
  <ele>-25.007</ele>
  <time>2026-09-01T01:14:26Z</time>
  <course>232.56</course>
  <speed>1.016070863670443</speed>
  <fix>3d</fix>
</trkpt>
<trkpt lat="33.810584" lon="-118.3945907">
  <ele>-24.4</ele>
  <time>2026-09-01T01:14:26Z</time>
  <course>142.39</course>
  <speed>1.0</speed>
  <fix>3d</fix>
</trkpt>
<trkpt lat="33.8105814" lon="-118.3945886">
  <ele>-25.008</ele>
  <time>2026-09-01T01:14:26Z</time>
  <course>232.68</course>
  <speed>1.010198000393982</speed>
  <fix>3d</fix>
</trkpt>
<trkpt lat="33.8105825" lon="-118.3945894">
  <ele>-24.4</ele>
  <time>2026-09-01T01:14:26Z</time>
  <course>142.61</course>
  <speed>1.0</speed>
  <fix>3d</fix>
</trkpt>
<trkpt lat="33.8105807" lon="-118.394588">
  <ele>-25.01</ele>
  <time>2026-09-01T01:14:26Z</time>
  <course>232.79</course>
  <speed>1.010198000393982</speed>
  <fix>3d</fix>
</trkpt>
<trkpt lat="33.8105825" lon="-118.3945894">
  <ele>-24.4</ele>
  <time>2026-09-01T01:14:26Z</time>
  <course>142.61</course>
  <speed>1.0</speed>
  <fix>3d</fix>
</trkpt>
<trkpt lat="33.81058" lon="-118.3945873">
  <ele>-25.012</ele>
  <time>2026-09-01T01:14:26Z</time>
  <course>232.9</course>
  <speed>1.010198000393982</speed>
  <fix>3d</fix>
</trkpt>
<trkpt lat="33.8105812" lon="-118.394588">
  <ele>-24.4</ele>
  <time>2026-09-01T01:14:26Z</time>
  <course>142.81</course>
  <speed>1.0</speed>
  <fix>3d</fix>
</trkpt>
<trkpt lat="33.8105793" lon="-118.3945867">
  <ele>-25.013</ele>
  <time>2026-09-01T01:14:26Z</time>
  <course>233.02</course>
  <speed>1.0183319694480775</speed>
  <fix>3d</fix>
</trkpt>
<trkpt lat="33.8105812" lon="-118.394588">
  <ele>-24.4</ele>
  <time>2026-09-01T01:14:26Z</time>
  <course>142.81</course>
  <speed>1.0</speed>
  <fix>3d</fix>
</trkpt>
<trkpt lat="33.8105785" lon="-118.394586">
  <ele>-25.013</ele>
  <time>2026-09-01T01:14:26Z</time>
  <course>233.13</course>
  <speed>1.0183319694480775</speed>
  <fix>3d</fix>
</trkpt>
<trkpt lat="33.8105797" lon="-118.3945867">
  <ele>-24.41</ele>
  <time>2026-09-01T01:14:26Z</time>
  <course>143.03</course>
  <speed>1.0</speed>
  <fix>3d</fix>
</trkpt>
<trkpt lat="33.8105778" lon="-118.3945854">
  <ele>-25.013</ele>
  <time>2026-09-01T01:14:26Z</time>
  <course>233.25</course>
  <speed>1.0125709851659783</speed>
  <fix>3d</fix>
</trkpt>
<trkpt lat="33.8105797" lon="-118.3945867">
  <ele>-24.41</ele>
  <time>2026-09-01T01:14:26Z</time>
  <course>143.03</course>
  <speed>1.0</speed>
  <fix>3d</fix>
</trkpt>
<trkpt lat="33.8105771" lon="-118.3945847">
  <ele>-25.013</ele>
  <time>2026-09-01T01:14:26Z</time>
  <course>233.36</course>
  <speed>1.0125709851659783</speed>
  <fix>3d</fix>
</trkpt>
<trkpt lat="33.8105783" lon="-118.3945854">
  <ele>-24.41</ele>
  <time>2026-09-01T01:14:26Z</time>
  <course>143.32</course>
  <speed>1.0</speed>
  <fix>3d</fix>
</trkpt>
<trkpt lat="33.8105764" lon="-118.3945841">
  <ele>-25.013</ele>
  <time>2026-09-01T01:14:26Z</time>
  <course>233.47</course>
  <speed>1.0125709851659783</speed>
  <fix>3d</fix>
</trkpt>
<trkpt lat="33.8105783" lon="-118.3945854">
  <ele>-24.41</ele>
  <time>2026-09-01T01:14:26Z</time>
  <course>143.32</course>
  <speed>1.0</speed>
  <fix>3d</fix>
</trkpt>
<trkpt lat="33.8105756" lon="-118.3945834">
  <ele>-25.013</ele>
  <time>2026-09-01T01:14:26Z</time>
  <course>233.59</course>
  <speed>1.0125709851659783</speed>
  <fix>3d</fix>
</trkpt>
<trkpt lat="33.8105769" lon="-118.3945841">
  <ele>-24.41</ele>
  <time>2026-09-01T01:14:26Z</time>
  <course>143.63</course>
  <speed>1.0</speed>
  <fix>3d</fix>
</trkpt>
<trkpt lat="33.8105749" lon="-118.3945828">
  <ele>-25.013</ele>
  <time>2026-09-01T01:14:26Z</time>
  <course>233.71</course>
  <speed>1.0068763578513502</speed>
  <fix>3d</fix>
</trkpt>
<trkpt lat="33.8105769" lon="-118.3945841">
  <ele>-24.41</ele>
  <time>2026-09-01T01:14:26Z</time>
  <course>143.63</course>
  <speed>1.0</speed>
  <fix>3d</fix>
</trkpt>
<trkpt lat="33.8105742" lon="-118.3945821">
  <ele>-25.013</ele>
  <time>2026-09-01T01:14:26Z</time>
  <course>233.82</course>
  <speed>1.0068763578513502</speed>
  <fix>3d</fix>
</trkpt>
<trkpt lat="33.8105754" lon="-118.3945829">
  <ele>-24.41</ele>
  <time>2026-09-01T01:14:26Z</time>
  <course>143.95</course>
  <speed>0.99</speed>
  <fix>3d</fix>
</trkpt>
<trkpt lat="33.8105735" lon="-118.3945815">
  <ele>-25.012</ele>
  <time>2026-09-01T01:14:26Z</time>
  <course>233.93</course>
  <speed>1.0151354589413177</speed>
  <fix>3d</fix>
</trkpt>
<trkpt lat="33.8105754" lon="-118.3945829">
  <ele>-24.41</ele>
  <time>2026-09-01T01:14:26Z</time>
  <course>143.95</course>
  <speed>0.99</speed>
  <fix>3d</fix>
</trkpt>
<trkpt lat="33.8105727" lon="-118.3945809">
  <ele>-25.012</ele>
  <time>2026-09-01T01:14:26Z</time>
  <course>234.05</course>
  <speed>1.0151354589413177</speed>
  <fix>3d</fix>
</trkpt>
<trkpt lat="33.8105739" lon="-118.3945816">
  <ele>-24.41</ele>
  <time>2026-09-01T01:14:26Z</time>
  <course>144.23</course>
  <speed>0.99</speed>
  <fix>3d</fix>
</trkpt>
<trkpt lat="33.810572" lon="-118.3945803">
  <ele>-25.013</ele>
  <time>2026-09-01T01:14:26Z</time>
  <course>234.16</course>
  <speed>1.0151354589413177</speed>
  <fix>3d</fix>
</trkpt>
<trkpt lat="33.8105739" lon="-118.3945816">
  <ele>-24.41</ele>
  <time>2026-09-01T01:14:26Z</time>
  <course>144.23</course>
  <speed>0.99</speed>
  <fix>3d</fix>
</trkpt>
<trkpt lat="33.8105713" lon="-118.3945796">
  <ele>-25.015</ele>
  <time>2026-09-01T01:14:26Z</time>
  <course>234.28</course>
  <speed>1.0151354589413177</speed>
  <fix>3d</fix>
</trkpt>
<trkpt lat="33.8105725" lon="-118.3945803">
  <ele>-24.41</ele>
  <time>2026-09-01T01:14:26Z</time>
  <course>144.43</course>
  <speed>0.99</speed>
  <fix>3d</fix>
</trkpt>
<trkpt lat="33.8105705" lon="-118.394579">
  <ele>-25.018</ele>
  <time>2026-09-01T01:14:26Z</time>
  <course>234.39</course>
  <speed>1.0151354589413177</speed>
  <fix>3d</fix>
</trkpt>
<trkpt lat="33.8105725" lon="-118.3945803">
  <ele>-24.41</ele>
  <time>2026-09-01T01:14:26Z</time>
  <course>144.43</course>
  <speed>0.99</speed>
  <fix>3d</fix>
</trkpt>
<trkpt lat="33.8105698" lon="-118.3945784">
  <ele>-25.02</ele>
  <time>2026-09-01T01:14:26Z</time>
  <course>234.51</course>
  <speed>1.009554357129917</speed>
  <fix>3d</fix>
</trkpt>
<trkpt lat="33.810571" lon="-118.394579">
  <ele>-24.42</ele>
  <time>2026-09-01T01:14:26Z</time>
  <course>144.64</course>
  <speed>0.99</speed>
  <fix>3d</fix>
</trkpt>
<trkpt lat="33.8105691" lon="-118.3945777">
  <ele>-25.022</ele>
  <time>2026-09-01T01:14:26Z</time>
  <course>234.62</course>
  <speed>1.009554357129917</speed>
  <fix>3d</fix>
</trkpt>
<trkpt lat="33.810571" lon="-118.394579">
  <ele>-24.42</ele>
  <time>2026-09-01T01:14:26Z</time>
  <course>144.64</course>
  <speed>0.99</speed>
  <fix>3d</fix>
</trkpt>
<trkpt lat="33.8105683" lon="-118.3945771">
  <ele>-25.024</ele>
  <time>2026-09-01T01:14:26Z</time>
  <course>234.74</course>
  <speed>1.009554357129917</speed>
  <fix>3d</fix>
</trkpt>
<trkpt lat="33.8105695" lon="-118.3945779">
  <ele>-24.42</ele>
  <time>2026-09-01T01:14:26Z</time>
  <course>144.9</course>
  <speed>0.99</speed>
  <fix>3d</fix>
</trkpt>
<trkpt lat="33.8105676" lon="-118.3945765">
  <ele>-25.025</ele>
  <time>2026-09-01T01:14:26Z</time>
  <course>234.85</course>
  <speed>1.0178899744078433</speed>
  <fix>3d</fix>
</trkpt>
<trkpt lat="33.8105695" lon="-118.3945779">
  <ele>-24.42</ele>
  <time>2026-09-01T01:14:26Z</time>
  <course>144.9</course>
  <speed>0.99</speed>
  <fix>3d</fix>
</trkpt>
<trkpt lat="33.8105669" lon="-118.3945759">
  <ele>-25.023</ele>
  <time>2026-09-01T01:14:26Z</time>
  <course>234.97</course>
  <speed>1.0178899744078433</speed>
  <fix>3d</fix>
</trkpt>
<trkpt lat="33.8105681" lon="-118.3945766">
  <ele>-24.41</ele>
  <time>2026-09-01T01:14:26Z</time>
  <course>145.11</course>
  <speed>0.99</speed>
  <fix>3d</fix>
</trkpt>
<trkpt lat="33.8105661" lon="-118.3945753">
  <ele>-25.019</ele>
  <time>2026-09-01T01:14:26Z</time>
  <course>235.08</course>
  <speed>1.0178899744078433</speed>
  <fix>3d</fix>
</trkpt>
<trkpt lat="33.8105681" lon="-118.3945766">
  <ele>-24.41</ele>
  <time>2026-09-01T01:14:26Z</time>
  <course>145.11</course>
  <speed>0.99</speed>
  <fix>3d</fix>
</trkpt>
<trkpt lat="33.8105654" lon="-118.3945747">
  <ele>-25.015</ele>
  <time>2026-09-01T01:14:26Z</time>
  <course>235.19</course>
  <speed>1.0124228365658294</speed>
  <fix>3d</fix>
</trkpt>
<trkpt lat="33.8105666" lon="-118.3945754">
  <ele>-24.41</ele>
  <time>2026-09-01T01:14:26Z</time>
  <course>145.29</course>
  <speed>0.99</speed>
  <fix>3d</fix>
</trkpt>
<trkpt lat="33.8105646" lon="-118.394574">
  <ele>-25.012</ele>
  <time>2026-09-01T01:14:26Z</time>
  <course>235.31</course>
  <speed>1.0124228365658294</speed>
  <fix>3d</fix>
</trkpt>
<trkpt lat="33.8105666" lon="-118.3945754">
  <ele>-24.41</ele>
  <time>2026-09-01T01:14:26Z</time>
  <course>145.29</course>
  <speed>0.99</speed>
  <fix>3d</fix>
</trkpt>
<trkpt lat="33.8105639" lon="-118.3945734">
  <ele>-25.011</ele>
  <time>2026-09-01T01:14:26Z</time>
  <course>235.42</course>
  <speed>1.0124228365658294</speed>
  <fix>3d</fix>
</trkpt>
<trkpt lat="33.8105651" lon="-118.3945742">
  <ele>-24.4</ele>
  <time>2026-09-01T01:14:26Z</time>
  <course>145.47</course>
  <speed>0.99</speed>
  <fix>3d</fix>
</trkpt>
<trkpt lat="33.8105632" lon="-118.3945728">
  <ele>-25.01</ele>
  <time>2026-09-01T01:14:26Z</time>
  <course>235.53</course>
  <speed>1.0124228365658294</speed>
  <fix>3d</fix>
</trkpt>
<trkpt lat="33.8105651" lon="-118.3945742">
  <ele>-24.4</ele>
  <time>2026-09-01T01:14:26Z</time>
  <course>145.47</course>
  <speed>0.99</speed>
  <fix>3d</fix>
</trkpt>
<trkpt lat="33.8105624" lon="-118.3945722">
  <ele>-25.01</ele>
  <time>2026-09-01T01:14:26Z</time>
  <course>235.65</course>
  <speed>1.0124228365658294</speed>
  <fix>3d</fix>
</trkpt>
<trkpt lat="33.8105636" lon="-118.394573">
  <ele>-24.4</ele>
  <time>2026-09-01T01:14:26Z</time>
  <course>145.64</course>
  <speed>0.99</speed>
  <fix>3d</fix>
</trkpt>
<trkpt lat="33.8105617" lon="-118.3945716">
  <ele>-25.01</ele>
  <time>2026-09-01T01:14:26Z</time>
  <course>235.77</course>
  <speed>1.0124228365658294</speed>
  <fix>3d</fix>
</trkpt>
<trkpt lat="33.8105636" lon="-118.394573">
  <ele>-24.4</ele>
  <time>2026-09-01T01:14:26Z</time>
  <course>145.64</course>
  <speed>0.99</speed>
  <fix>3d</fix>
</trkpt>
<trkpt lat="33.8105609" lon="-118.394571">
  <ele>-25.01</ele>
  <time>2026-09-01T01:14:26Z</time>
  <course>235.88</course>
  <speed>1.0124228365658294</speed>
  <fix>3d</fix>
</trkpt>
<trkpt lat="33.8105622" lon="-118.3945717">
  <ele>-24.4</ele>
  <time>2026-09-01T01:14:26Z</time>
  <course>145.78</course>
  <speed>0.99</speed>
  <fix>3d</fix>
</trkpt>
<trkpt lat="33.8105602" lon="-118.3945704">
  <ele>-25.011</ele>
  <time>2026-09-01T01:14:26Z</time>
  <course>236.0</course>
  <speed>1.0208329931972222</speed>
  <fix>3d</fix>
</trkpt>
<trkpt lat="33.8105622" lon="-118.3945717">
  <ele>-24.4</ele>
  <time>2026-09-01T01:14:26Z</time>
  <course>145.78</course>
  <speed>0.99</speed>
  <fix>3d</fix>
</trkpt>
<trkpt lat="33.8105594" lon="-118.3945698">
  <ele>-25.011</ele>
  <time>2026-09-01T01:14:26Z</time>
  <course>236.11</course>
  <speed>1.0154801819828883</speed>
  <fix>3d</fix>
</trkpt>
<trkpt lat="33.8105607" lon="-118.3945704">
  <ele>-24.4</ele>
  <time>2026-09-01T01:14:26Z</time>
  <course>145.96</course>
  <speed>0.99</speed>
  <fix>3d</fix>
</trkpt>
<trkpt lat="33.8105587" lon="-118.3945692">
  <ele>-25.01</ele>
  <time>2026-09-01T01:14:26Z</time>
  <course>236.23</course>
  <speed>1.0154801819828883</speed>
  <fix>3d</fix>
</trkpt>
<trkpt lat="33.8105607" lon="-118.3945704">
  <ele>-24.4</ele>
  <time>2026-09-01T01:14:26Z</time>
  <course>145.96</course>
  <speed>0.99</speed>
  <fix>3d</fix>
</trkpt>
<trkpt lat="33.8105579" lon="-118.3945686">
  <ele>-25.009</ele>
  <time>2026-09-01T01:14:26Z</time>
  <course>236.34</course>
  <speed>1.0154801819828883</speed>
  <fix>3d</fix>
</trkpt>
<trkpt lat="33.8105592" lon="-118.3945693">
  <ele>-24.4</ele>
  <time>2026-09-01T01:14:26Z</time>
  <course>146.27</course>
  <speed>0.99</speed>
  <fix>3d</fix>
</trkpt>
<trkpt lat="33.8105572" lon="-118.394568">
  <ele>-25.01</ele>
  <time>2026-09-01T01:14:26Z</time>
  <course>236.46</course>
  <speed>1.0154801819828883</speed>
  <fix>3d</fix>
</trkpt>
<trkpt lat="33.8105592" lon="-118.3945693">
  <ele>-24.4</ele>
  <time>2026-09-01T01:14:26Z</time>
  <course>146.27</course>
  <speed>0.99</speed>
  <fix>3d</fix>
</trkpt>
<trkpt lat="33.8105564" lon="-118.3945674">
  <ele>-25.011</ele>
  <time>2026-09-01T01:14:26Z</time>
  <course>236.57</course>
  <speed>1.010198000393982</speed>
  <fix>3d</fix>
</trkpt>
<trkpt lat="33.8105577" lon="-118.394568">
  <ele>-24.4</ele>
  <time>2026-09-01T01:14:26Z</time>
  <course>146.6</course>
  <speed>0.99</speed>
  <fix>3d</fix>
</trkpt>
<trkpt lat="33.8105557" lon="-118.3945668">
  <ele>-25.013</ele>
  <time>2026-09-01T01:14:26Z</time>
  <course>236.69</course>
  <speed>1.010198000393982</speed>
  <fix>3d</fix>
</trkpt>
<trkpt lat="33.8105577" lon="-118.394568">
  <ele>-24.4</ele>
  <time>2026-09-01T01:14:26Z</time>
  <course>146.6</course>
  <speed>0.99</speed>
  <fix>3d</fix>
</trkpt>
<trkpt lat="33.8105549" lon="-118.3945662">
  <ele>-25.015</ele>
  <time>2026-09-01T01:14:26Z</time>
  <course>236.8</course>
  <speed>1.0187246929372038</speed>
  <fix>3d</fix>
</trkpt>
<trkpt lat="33.8105562" lon="-118.3945669">
  <ele>-24.41</ele>
  <time>2026-09-01T01:14:26Z</time>
  <course>146.91</course>
  <speed>0.99</speed>
  <fix>3d</fix>
</trkpt>
<trkpt lat="33.8105542" lon="-118.3945656">
  <ele>-25.017</ele>
  <time>2026-09-01T01:14:26Z</time>
  <course>236.91</course>
  <speed>1.0187246929372038</speed>
  <fix>3d</fix>
</trkpt>
<trkpt lat="33.8105562" lon="-118.3945669">
  <ele>-24.41</ele>
  <time>2026-09-01T01:14:26Z</time>
  <course>146.91</course>
  <speed>0.99</speed>
  <fix>3d</fix>
</trkpt>
<trkpt lat="33.8105534" lon="-118.394565">
  <ele>-25.019</ele>
  <time>2026-09-01T01:14:26Z</time>
  <course>237.03</course>
  <speed>1.0187246929372038</speed>
  <fix>3d</fix>
</trkpt>
<trkpt lat="33.8105547" lon="-118.3945657">
  <ele>-24.41</ele>
  <time>2026-09-01T01:14:26Z</time>
  <course>147.2</course>
  <speed>0.99</speed>
  <fix>3d</fix>
</trkpt>
<trkpt lat="33.8105527" lon="-118.3945645">
  <ele>-25.018</ele>
  <time>2026-09-01T01:14:26Z</time>
  <course>237.14</course>
  <speed>1.0135580891098448</speed>
  <fix>3d</fix>
</trkpt>
<trkpt lat="33.8105547" lon="-118.3945657">
  <ele>-24.41</ele>
  <time>2026-09-01T01:14:26Z</time>
  <course>147.2</course>
  <speed>0.99</speed>
  <fix>3d</fix>
</trkpt>
<trkpt lat="33.8105519" lon="-118.3945639">
  <ele>-25.017</ele>
  <time>2026-09-01T01:14:26Z</time>
  <course>237.26</course>
  <speed>1.0135580891098448</speed>
  <fix>3d</fix>
</trkpt>
<trkpt lat="33.8105532" lon="-118.3945646">
  <ele>-24.41</ele>
  <time>2026-09-01T01:14:26Z</time>
  <course>147.45</course>
  <speed>0.99</speed>
  <fix>3d</fix>
</trkpt>
<trkpt lat="33.8105511" lon="-118.3945633">
  <ele>-25.014</ele>
  <time>2026-09-01T01:14:26Z</time>
  <course>237.37</course>
  <speed>1.0135580891098448</speed>
  <fix>3d</fix>
</trkpt>
<trkpt lat="33.8105532" lon="-118.3945646">
  <ele>-24.41</ele>
  <time>2026-09-01T01:14:26Z</time>
  <course>147.45</course>
  <speed>0.99</speed>
  <fix>3d</fix>
</trkpt>
<trkpt lat="33.8105504" lon="-118.3945627">
  <ele>-25.011</ele>
  <time>2026-09-01T01:14:26Z</time>
  <course>237.48</course>
  <speed>1.0135580891098448</speed>
  <fix>3d</fix>
</trkpt>
<trkpt lat="33.8105516" lon="-118.3945634">
  <ele>-24.41</ele>
  <time>2026-09-01T01:14:26Z</time>
  <course>147.66</course>
  <speed>0.99</speed>
  <fix>3d</fix>
</trkpt>
<trkpt lat="33.8105496" lon="-118.3945622">
  <ele>-25.009</ele>
  <time>2026-09-01T01:14:26Z</time>
  <course>237.6</course>
  <speed>1.0135580891098448</speed>
  <fix>3d</fix>
</trkpt>
<trkpt lat="33.8105516" lon="-118.3945634">
  <ele>-24.41</ele>
  <time>2026-09-01T01:14:26Z</time>
  <course>147.66</course>
  <speed>0.99</speed>
  <fix>3d</fix>
</trkpt>
<trkpt lat="33.8105489" lon="-118.3945616">
  <ele>-25.009</ele>
  <time>2026-09-01T01:14:26Z</time>
  <course>237.72</course>
  <speed>1.0135580891098448</speed>
  <fix>3d</fix>
</trkpt>
<trkpt lat="33.8105501" lon="-118.3945623">
  <ele>-24.41</ele>
  <time>2026-09-01T01:14:26Z</time>
  <course>147.82</course>
  <speed>1.0</speed>
  <fix>3d</fix>
</trkpt>
<trkpt lat="33.8105481" lon="-118.394561">
  <ele>-25.009</ele>
  <time>2026-09-01T01:14:26Z</time>
  <course>237.83</course>
  <speed>1.0135580891098448</speed>
  <fix>3d</fix>
</trkpt>
<trkpt lat="33.8105501" lon="-118.3945623">
  <ele>-24.41</ele>
  <time>2026-09-01T01:14:26Z</time>
  <course>147.82</course>
  <speed>1.0</speed>
  <fix>3d</fix>
</trkpt>
<trkpt lat="33.8105473" lon="-118.3945604">
  <ele>-25.011</ele>
  <time>2026-09-01T01:14:26Z</time>
  <course>237.95</course>
  <speed>1.0135580891098448</speed>
  <fix>3d</fix>
</trkpt>
<trkpt lat="33.8105486" lon="-118.3945611">
  <ele>-24.41</ele>
  <time>2026-09-01T01:14:26Z</time>
  <course>147.96</course>
  <speed>0.99</speed>
  <fix>3d</fix>
</trkpt>
<trkpt lat="33.8105466" lon="-118.3945599">
  <ele>-25.013</ele>
  <time>2026-09-01T01:14:26Z</time>
  <course>238.06</course>
  <speed>1.022154587134451</speed>
  <fix>3d</fix>
</trkpt>
<trkpt lat="33.8105486" lon="-118.3945611">
  <ele>-24.41</ele>
  <time>2026-09-01T01:14:26Z</time>
  <course>147.96</course>
  <speed>0.99</speed>
  <fix>3d</fix>
</trkpt>
<trkpt lat="33.8105458" lon="-118.3945593">
  <ele>-25.014</ele>
  <time>2026-09-01T01:14:26Z</time>
  <course>238.17</course>
  <speed>1.0171037311896953</speed>
  <fix>3d</fix>
</trkpt>
<trkpt lat="33.8105471" lon="-118.3945599">
  <ele>-24.41</ele>
  <time>2026-09-01T01:14:26Z</time>
  <course>148.12</course>
  <speed>0.99</speed>
  <fix>3d</fix>
</trkpt>
<trkpt lat="33.810545" lon="-118.3945587">
  <ele>-25.015</ele>
  <time>2026-09-01T01:14:26Z</time>
  <course>238.29</course>
  <speed>1.0171037311896953</speed>
  <fix>3d</fix>
</trkpt>
<trkpt lat="33.8105471" lon="-118.3945599">
  <ele>-24.41</ele>
  <time>2026-09-01T01:14:26Z</time>
  <course>148.12</course>
  <speed>0.99</speed>
  <fix>3d</fix>
</trkpt>
<trkpt lat="33.8105443" lon="-118.3945582">
  <ele>-25.014</ele>
  <time>2026-09-01T01:14:26Z</time>
  <course>238.4</course>
  <speed>1.0171037311896953</speed>
  <fix>3d</fix>
</trkpt>
<trkpt lat="33.8105456" lon="-118.3945588">
  <ele>-24.41</ele>
  <time>2026-09-01T01:14:26Z</time>
  <course>148.35</course>
  <speed>1.0</speed>
  <fix>3d</fix>
</trkpt>
<trkpt lat="33.8105435" lon="-118.3945576">
  <ele>-25.014</ele>
  <time>2026-09-01T01:14:26Z</time>
  <course>238.52</course>
  <speed>1.0171037311896953</speed>
  <fix>3d</fix>
</trkpt>
<trkpt lat="33.8105456" lon="-118.3945588">
  <ele>-24.41</ele>
  <time>2026-09-01T01:14:26Z</time>
  <course>148.35</course>
  <speed>1.0</speed>
  <fix>3d</fix>
</trkpt>
<trkpt lat="33.8105427" lon="-118.394557">
  <ele>-25.015</ele>
  <time>2026-09-01T01:14:26Z</time>
  <course>238.63</course>
  <speed>1.0121264743103995</speed>
  <fix>3d</fix>
</trkpt>
<trkpt lat="33.810544" lon="-118.3945577">
  <ele>-24.41</ele>
  <time>2026-09-01T01:14:26Z</time>
  <course>148.63</course>
  <speed>1.0</speed>
  <fix>3d</fix>
</trkpt>
<trkpt lat="33.810542" lon="-118.3945565">
  <ele>-25.016</ele>
  <time>2026-09-01T01:14:26Z</time>
  <course>238.74</course>
  <speed>1.0121264743103995</speed>
  <fix>3d</fix>
</trkpt>
<trkpt lat="33.810544" lon="-118.3945577">
  <ele>-24.41</ele>
  <time>2026-09-01T01:14:26Z</time>
  <course>148.63</course>
  <speed>1.0</speed>
  <fix>3d</fix>
</trkpt>
<trkpt lat="33.8105412" lon="-118.3945559">
  <ele>-25.018</ele>
  <time>2026-09-01T01:14:26Z</time>
  <course>238.86</course>
  <speed>1.0121264743103995</speed>
  <fix>3d</fix>
</trkpt>
<trkpt lat="33.8105425" lon="-118.3945566">
  <ele>-24.41</ele>
  <time>2026-09-01T01:14:26Z</time>
  <course>148.88</course>
  <speed>1.0</speed>
  <fix>3d</fix>
</trkpt>
<trkpt lat="33.8105404" lon="-118.3945554">
  <ele>-25.018</ele>
  <time>2026-09-01T01:14:26Z</time>
  <course>238.97</course>
  <speed>1.0208329931972222</speed>
  <fix>3d</fix>
</trkpt>
<trkpt lat="33.8105425" lon="-118.3945566">
  <ele>-24.41</ele>
  <time>2026-09-01T01:14:26Z</time>
  <course>148.88</course>
  <speed>1.0</speed>
  <fix>3d</fix>
</trkpt>
<trkpt lat="33.8105397" lon="-118.3945548">
  <ele>-25.016</ele>
  <time>2026-09-01T01:14:26Z</time>
  <course>239.09</course>
  <speed>1.0208329931972222</speed>
  <fix>3d</fix>
</trkpt>
<trkpt lat="33.810541" lon="-118.3945555">
  <ele>-24.41</ele>
  <time>2026-09-01T01:14:26Z</time>
  <course>149.09</course>
  <speed>1.0</speed>
  <fix>3d</fix>
</trkpt>
<trkpt lat="33.8105389" lon="-118.3945543">
  <ele>-25.015</ele>
  <time>2026-09-01T01:14:26Z</time>
  <course>239.21</course>
  <speed>1.0208329931972222</speed>
  <fix>3d</fix>
</trkpt>
<trkpt lat="33.810541" lon="-118.3945555">
  <ele>-24.41</ele>
  <time>2026-09-01T01:14:26Z</time>
  <course>149.09</course>
  <speed>1.0</speed>
  <fix>3d</fix>
</trkpt>
<trkpt lat="33.8105381" lon="-118.3945537">
  <ele>-25.013</ele>
  <time>2026-09-01T01:14:26Z</time>
  <course>239.32</course>
  <speed>1.0208329931972222</speed>
  <fix>3d</fix>
</trkpt>
<trkpt lat="33.8105394" lon="-118.3945543">
  <ele>-24.41</ele>
  <time>2026-09-01T01:14:26Z</time>
  <course>149.29</course>
  <speed>1.0</speed>
  <fix>3d</fix>
</trkpt>
<trkpt lat="33.8105373" lon="-118.3945532">
  <ele>-25.011</ele>
  <time>2026-09-01T01:14:26Z</time>
  <course>239.44</course>
  <speed>1.0159724405711013</speed>
  <fix>3d</fix>
</trkpt>
<trkpt lat="33.8105394" lon="-118.3945543">
  <ele>-24.41</ele>
  <time>2026-09-01T01:14:26Z</time>
  <course>149.29</course>
  <speed>1.0</speed>
  <fix>3d</fix>
</trkpt>
<trkpt lat="33.8105366" lon="-118.3945526">
  <ele>-25.011</ele>
  <time>2026-09-01T01:14:26Z</time>
  <course>239.55</course>
  <speed>1.0159724405711013</speed>
  <fix>3d</fix>
</trkpt>
<trkpt lat="33.8105379" lon="-118.3945532">
  <ele>-24.41</ele>
  <time>2026-09-01T01:14:26Z</time>
  <course>149.52</course>
  <speed>1.0</speed>
  <fix>3d</fix>
</trkpt>
<trkpt lat="33.8105358" lon="-118.3945521">
  <ele>-25.012</ele>
  <time>2026-09-01T01:14:26Z</time>
  <course>239.66</course>
  <speed>1.0159724405711013</speed>
  <fix>3d</fix>
</trkpt>
<trkpt lat="33.8105379" lon="-118.3945532">
  <ele>-24.41</ele>
  <time>2026-09-01T01:14:26Z</time>
  <course>149.52</course>
  <speed>1.0</speed>
  <fix>3d</fix>
</trkpt>
<trkpt lat="33.810535" lon="-118.3945515">
  <ele>-25.013</ele>
  <time>2026-09-01T01:14:26Z</time>
  <course>239.78</course>
  <speed>1.0159724405711013</speed>
  <fix>3d</fix>
</trkpt>
<trkpt lat="33.8105363" lon="-118.3945521">
  <ele>-24.41</ele>
  <time>2026-09-01T01:14:26Z</time>
  <course>149.8</course>
  <speed>1.0</speed>
  <fix>3d</fix>
</trkpt>
<trkpt lat="33.8105342" lon="-118.394551">
  <ele>-25.013</ele>
  <time>2026-09-01T01:14:26Z</time>
  <course>239.89</course>
  <speed>1.0111874208078342</speed>
  <fix>3d</fix>
</trkpt>
<trkpt lat="33.8105363" lon="-118.3945521">
  <ele>-24.41</ele>
  <time>2026-09-01T01:14:26Z</time>
  <course>149.8</course>
  <speed>1.0</speed>
  <fix>3d</fix>
</trkpt>
<trkpt lat="33.8105334" lon="-118.3945505">
  <ele>-25.014</ele>
  <time>2026-09-01T01:14:26Z</time>
  <course>240.0</course>
  <speed>1.02</speed>
  <fix>3d</fix>
</trkpt>
<trkpt lat="33.8105348" lon="-118.3945511">
  <ele>-24.41</ele>
  <time>2026-09-01T01:14:26Z</time>
  <course>150.07</course>
  <speed>1.0</speed>
  <fix>3d</fix>
</trkpt>
<trkpt lat="33.8105327" lon="-118.3945499">
  <ele>-25.015</ele>
  <time>2026-09-01T01:14:26Z</time>
  <course>240.12</course>
  <speed>1.02</speed>
  <fix>3d</fix>
</trkpt>
<trkpt lat="33.8105348" lon="-118.3945511">
  <ele>-24.41</ele>
  <time>2026-09-01T01:14:26Z</time>
  <course>150.07</course>
  <speed>1.0</speed>
  <fix>3d</fix>
</trkpt>
<trkpt lat="33.8105319" lon="-118.3945494">
  <ele>-25.016</ele>
  <time>2026-09-01T01:14:26Z</time>
  <course>240.24</course>
  <speed>1.02</speed>
  <fix>3d</fix>
</trkpt>
<trkpt lat="33.8105331" lon="-118.39455">
  <ele>-24.41</ele>
  <time>2026-09-01T01:14:26Z</time>
  <course>150.32</course>
  <speed>1.0</speed>
  <fix>3d</fix>
</trkpt>
<trkpt lat="33.8105311" lon="-118.3945489">
  <ele>-25.016</ele>
  <time>2026-09-01T01:14:26Z</time>
  <course>240.35</course>
  <speed>1.02</speed>
  <fix>3d</fix>
</trkpt>
<trkpt lat="33.8105331" lon="-118.39455">
  <ele>-24.41</ele>
  <time>2026-09-01T01:14:26Z</time>
  <course>150.32</course>
  <speed>1.0</speed>
  <fix>3d</fix>
</trkpt>
<trkpt lat="33.8105303" lon="-118.3945483">
  <ele>-25.017</ele>
  <time>2026-09-01T01:14:26Z</time>
  <course>240.46</course>
  <speed>1.02</speed>
  <fix>3d</fix>
</trkpt>
<trkpt lat="33.8105316" lon="-118.3945489">
  <ele>-24.41</ele>
  <time>2026-09-01T01:14:26Z</time>
  <course>150.51</course>
  <speed>1.0</speed>
  <fix>3d</fix>
</trkpt>
<trkpt lat="33.8105295" lon="-118.3945478">
  <ele>-25.016</ele>
  <time>2026-09-01T01:14:26Z</time>
  <course>240.58</course>
  <speed>1.02</speed>
  <fix>3d</fix>
</trkpt>
<trkpt lat="33.8105316" lon="-118.3945489">
  <ele>-24.41</ele>
  <time>2026-09-01T01:14:26Z</time>
  <course>150.51</course>
  <speed>1.0</speed>
  <fix>3d</fix>
</trkpt>
<trkpt lat="33.8105287" lon="-118.3945473">
  <ele>-25.015</ele>
  <time>2026-09-01T01:14:26Z</time>
  <course>240.7</course>
  <speed>1.015332457867865</speed>
  <fix>3d</fix>
</trkpt>
<trkpt lat="33.81053" lon="-118.3945479">
  <ele>-24.41</ele>
  <time>2026-09-01T01:14:26Z</time>
  <course>150.66</course>
  <speed>1.0</speed>
  <fix>3d</fix>
</trkpt>
<trkpt lat="33.8105279" lon="-118.3945467">
  <ele>-25.014</ele>
  <time>2026-09-01T01:14:26Z</time>
  <course>240.81</course>
  <speed>1.015332457867865</speed>
  <fix>3d</fix>
</trkpt>
<trkpt lat="33.81053" lon="-118.3945479">
  <ele>-24.41</ele>
  <time>2026-09-01T01:14:26Z</time>
  <course>150.66</course>
  <speed>1.0</speed>
  <fix>3d</fix>
</trkpt>
<trkpt lat="33.8105272" lon="-118.3945462">
  <ele>-25.014</ele>
  <time>2026-09-01T01:14:26Z</time>
  <course>240.92</course>
  <speed>1.015332457867865</speed>
  <fix>3d</fix>
</trkpt>
<trkpt lat="33.8105285" lon="-118.3945468">
  <ele>-24.41</ele>
  <time>2026-09-01T01:14:26Z</time>
  <course>150.81</course>
  <speed>0.99</speed>
  <fix>3d</fix>
</trkpt>
<trkpt lat="33.8105264" lon="-118.3945457">
  <ele>-25.015</ele>
  <time>2026-09-01T01:14:26Z</time>
  <course>241.04</course>
  <speed>1.015332457867865</speed>
  <fix>3d</fix>
</trkpt>
<trkpt lat="33.8105285" lon="-118.3945468">
  <ele>-24.41</ele>
  <time>2026-09-01T01:14:26Z</time>
  <course>150.81</course>
  <speed>0.99</speed>
  <fix>3d</fix>
</trkpt>
<trkpt lat="33.8105256" lon="-118.3945452">
  <ele>-25.016</ele>
  <time>2026-09-01T01:14:26Z</time>
  <course>241.15</course>
  <speed>1.015332457867865</speed>
  <fix>3d</fix>
</trkpt>
<trkpt lat="33.8105269" lon="-118.3945458">
  <ele>-24.41</ele>
  <time>2026-09-01T01:14:26Z</time>
  <course>151.0</course>
  <speed>0.99</speed>
  <fix>3d</fix>
</trkpt>
<trkpt lat="33.8105248" lon="-118.3945447">
  <ele>-25.017</ele>
  <time>2026-09-01T01:14:26Z</time>
  <course>241.27</course>
  <speed>1.0107423014794623</speed>
  <fix>3d</fix>
</trkpt>
<trkpt lat="33.8105269" lon="-118.3945458">
  <ele>-24.41</ele>
  <time>2026-09-01T01:14:26Z</time>
  <course>151.0</course>
  <speed>0.99</speed>
  <fix>3d</fix>
</trkpt>
<trkpt lat="33.810524" lon="-118.3945441">
  <ele>-25.017</ele>
  <time>2026-09-01T01:14:26Z</time>
  <course>241.38</course>
  <speed>1.0107423014794623</speed>
  <fix>3d</fix>
</trkpt>
<trkpt lat="33.8105254" lon="-118.3945447">
  <ele>-24.4</ele>
  <time>2026-09-01T01:14:26Z</time>
  <course>151.21</course>
  <speed>0.99</speed>
  <fix>3d</fix>
</trkpt>
<trkpt lat="33.8105232" lon="-118.3945436">
  <ele>-25.016</ele>
  <time>2026-09-01T01:14:26Z</time>
  <course>241.5</course>
  <speed>1.0196568050084303</speed>
  <fix>3d</fix>
</trkpt>
<trkpt lat="33.8105254" lon="-118.3945447">
  <ele>-24.4</ele>
  <time>2026-09-01T01:14:26Z</time>
  <course>151.21</course>
  <speed>0.99</speed>
  <fix>3d</fix>
</trkpt>
<trkpt lat="33.8105224" lon="-118.3945431">
  <ele>-25.015</ele>
  <time>2026-09-01T01:14:26Z</time>
  <course>241.61</course>
  <speed>1.0196568050084303</speed>
  <fix>3d</fix>
</trkpt>
<trkpt lat="33.8105238" lon="-118.3945437">
  <ele>-24.4</ele>
  <time>2026-09-01T01:14:26Z</time>
  <course>151.45</course>
  <speed>0.99</speed>
  <fix>3d</fix>
</trkpt>
<trkpt lat="33.8105216" lon="-118.3945426">
  <ele>-25.013</ele>
  <time>2026-09-01T01:14:26Z</time>
  <course>241.72</course>
  <speed>1.0196568050084303</speed>
  <fix>3d</fix>
</trkpt>
<trkpt lat="33.8105238" lon="-118.3945437">
  <ele>-24.4</ele>
  <time>2026-09-01T01:14:26Z</time>
  <course>151.45</course>
  <speed>0.99</speed>
  <fix>3d</fix>
</trkpt>
<trkpt lat="33.8105208" lon="-118.3945421">
  <ele>-25.011</ele>
  <time>2026-09-01T01:14:26Z</time>
  <course>241.84</course>
  <speed>1.0151847122568385</speed>
  <fix>3d</fix>
</trkpt>
<trkpt lat="33.8105221" lon="-118.3945427">
  <ele>-24.4</ele>
  <time>2026-09-01T01:14:26Z</time>
  <course>151.73</course>
  <speed>1.0</speed>
  <fix>3d</fix>
</trkpt>
<trkpt lat="33.81052" lon="-118.3945416">
  <ele>-25.009</ele>
  <time>2026-09-01T01:14:26Z</time>
  <course>241.96</course>
  <speed>1.0151847122568385</speed>
  <fix>3d</fix>
</trkpt>
<trkpt lat="33.8105221" lon="-118.3945427">
  <ele>-24.4</ele>
  <time>2026-09-01T01:14:26Z</time>
  <course>151.73</course>
  <speed>1.0</speed>
  <fix>3d</fix>
</trkpt>
<trkpt lat="33.8105193" lon="-118.3945411">
  <ele>-25.008</ele>
  <time>2026-09-01T01:14:26Z</time>
  <course>242.07</course>
  <speed>1.0151847122568385</speed>
  <fix>3d</fix>
</trkpt>
<trkpt lat="33.8105206" lon="-118.3945417">
  <ele>-24.4</ele>
  <time>2026-09-01T01:14:26Z</time>
  <course>151.96</course>
  <speed>1.0</speed>
  <fix>3d</fix>
</trkpt>
<trkpt lat="33.8105185" lon="-118.3945406">
  <ele>-25.008</ele>
  <time>2026-09-01T01:14:26Z</time>
  <course>242.18</course>
  <speed>1.0151847122568385</speed>
  <fix>3d</fix>
</trkpt>
<trkpt lat="33.8105206" lon="-118.3945417">
  <ele>-24.4</ele>
  <time>2026-09-01T01:14:26Z</time>
  <course>151.96</course>
  <speed>1.0</speed>
  <fix>3d</fix>
</trkpt>
<trkpt lat="33.8105177" lon="-118.3945401">
  <ele>-25.008</ele>
  <time>2026-09-01T01:14:26Z</time>
  <course>242.3</course>
  <speed>1.0151847122568385</speed>
  <fix>3d</fix>
</trkpt>
<trkpt lat="33.810519" lon="-118.3945406">
  <ele>-24.4</ele>
  <time>2026-09-01T01:14:26Z</time>
  <course>152.13</course>
  <speed>1.0</speed>
  <fix>3d</fix>
</trkpt>
<trkpt lat="33.8105169" lon="-118.3945396">
  <ele>-25.009</ele>
  <time>2026-09-01T01:14:26Z</time>
  <course>242.41</course>
  <speed>1.0151847122568385</speed>
  <fix>3d</fix>
</trkpt>
<trkpt lat="33.810519" lon="-118.3945406">
  <ele>-24.4</ele>
  <time>2026-09-01T01:14:26Z</time>
  <course>152.13</course>
  <speed>1.0</speed>
  <fix>3d</fix>
</trkpt>
<trkpt lat="33.8105161" lon="-118.3945391">
  <ele>-25.01</ele>
  <time>2026-09-01T01:14:26Z</time>
  <course>242.53</course>
  <speed>1.0107917688624102</speed>
  <fix>3d</fix>
</trkpt>
<trkpt lat="33.8105175" lon="-118.3945396">
  <ele>-24.4</ele>
  <time>2026-09-01T01:14:26Z</time>
  <course>152.33</course>
  <speed>1.0</speed>
  <fix>3d</fix>
</trkpt>
<trkpt lat="33.8105153" lon="-118.3945386">
  <ele>-25.012</ele>
  <time>2026-09-01T01:14:26Z</time>
  <course>242.64</course>
  <speed>1.019803902718557</speed>
  <fix>3d</fix>
</trkpt>
<trkpt lat="33.8105175" lon="-118.3945396">
  <ele>-24.4</ele>
  <time>2026-09-01T01:14:26Z</time>
  <course>152.33</course>
  <speed>1.0</speed>
  <fix>3d</fix>
</trkpt>
<trkpt lat="33.8105145" lon="-118.3945381">
  <ele>-25.014</ele>
  <time>2026-09-01T01:14:26Z</time>
  <course>242.76</course>
  <speed>1.019803902718557</speed>
  <fix>3d</fix>
</trkpt>
<trkpt lat="33.8105159" lon="-118.3945386">
  <ele>-24.4</ele>
  <time>2026-09-01T01:14:26Z</time>
  <course>152.61</course>
  <speed>1.0</speed>
  <fix>3d</fix>
</trkpt>
<trkpt lat="33.8105137" lon="-118.3945376">
  <ele>-25.016</ele>
  <time>2026-09-01T01:14:26Z</time>
  <course>242.87</course>
  <speed>1.019803902718557</speed>
  <fix>3d</fix>
</trkpt>
<trkpt lat="33.8105159" lon="-118.3945386">
  <ele>-24.4</ele>
  <time>2026-09-01T01:14:26Z</time>
  <course>152.61</course>
  <speed>1.0</speed>
  <fix>3d</fix>
</trkpt>
<trkpt lat="33.8105129" lon="-118.3945371">
  <ele>-25.017</ele>
  <time>2026-09-01T01:14:26Z</time>
  <course>242.99</course>
  <speed>1.0155294185792945</speed>
  <fix>3d</fix>
</trkpt>
<trkpt lat="33.8105142" lon="-118.3945376">
  <ele>-24.41</ele>
  <time>2026-09-01T01:14:26Z</time>
  <course>152.95</course>
  <speed>1.0</speed>
  <fix>3d</fix>
</trkpt>
<trkpt lat="33.8105121" lon="-118.3945366">
  <ele>-25.017</ele>
  <time>2026-09-01T01:14:26Z</time>
  <course>243.1</course>
  <speed>1.0155294185792945</speed>
  <fix>3d</fix>
</trkpt>
<trkpt lat="33.8105142" lon="-118.3945376">
  <ele>-24.41</ele>
  <time>2026-09-01T01:14:26Z</time>
  <course>152.95</course>
  <speed>1.0</speed>
  <fix>3d</fix>
</trkpt>
<trkpt lat="33.8105113" lon="-118.3945361">
  <ele>-25.016</ele>
  <time>2026-09-01T01:14:26Z</time>
  <course>243.22</course>
  <speed>1.0155294185792945</speed>
  <fix>3d</fix>
</trkpt>
<trkpt lat="33.8105127" lon="-118.3945367">
  <ele>-24.41</ele>
  <time>2026-09-01T01:14:26Z</time>
  <course>153.26</course>
  <speed>1.0</speed>
  <fix>3d</fix>
</trkpt>
<trkpt lat="33.8105105" lon="-118.3945357">
  <ele>-25.016</ele>
  <time>2026-09-01T01:14:26Z</time>
  <course>243.33</course>
  <speed>1.0155294185792945</speed>
  <fix>3d</fix>
</trkpt>
<trkpt lat="33.8105127" lon="-118.3945367">
  <ele>-24.41</ele>
  <time>2026-09-01T01:14:26Z</time>
  <course>153.26</course>
  <speed>1.0</speed>
  <fix>3d</fix>
</trkpt>
<trkpt lat="33.8105097" lon="-118.3945352">
  <ele>-25.015</ele>
  <time>2026-09-01T01:14:26Z</time>
  <course>243.45</course>
  <speed>1.0155294185792945</speed>
  <fix>3d</fix>
</trkpt>
<trkpt lat="33.810511" lon="-118.3945357">
  <ele>-24.41</ele>
  <time>2026-09-01T01:14:26Z</time>
  <course>153.51</course>
  <speed>1.0</speed>
  <fix>3d</fix>
</trkpt>
<trkpt lat="33.8105088" lon="-118.3945347">
  <ele>-25.014</ele>
  <time>2026-09-01T01:14:26Z</time>
  <course>243.56</course>
  <speed>1.0155294185792945</speed>
  <fix>3d</fix>
</trkpt>
<trkpt lat="33.810511" lon="-118.3945357">
  <ele>-24.41</ele>
  <time>2026-09-01T01:14:26Z</time>
  <course>153.51</course>
  <speed>1.0</speed>
  <fix>3d</fix>
</trkpt>
<trkpt lat="33.810508" lon="-118.3945342">
  <ele>-25.012</ele>
  <time>2026-09-01T01:14:26Z</time>
  <course>243.67</course>
  <speed>1.0204410811016968</speed>
  <fix>3d</fix>
</trkpt>
<trkpt lat="33.8105094" lon="-118.3945347">
  <ele>-24.4</ele>
  <time>2026-09-01T01:14:26Z</time>
  <course>153.71</course>
  <speed>1.0</speed>
  <fix>3d</fix>
</trkpt>
<trkpt lat="33.8105072" lon="-118.3945337">
  <ele>-25.011</ele>
  <time>2026-09-01T01:14:26Z</time>
  <course>243.79</course>
  <speed>1.0204410811016968</speed>
  <fix>3d</fix>
</trkpt>
<trkpt lat="33.8105094" lon="-118.3945347">
  <ele>-24.4</ele>
  <time>2026-09-01T01:14:26Z</time>
  <course>153.71</course>
  <speed>1.0</speed>
  <fix>3d</fix>
</trkpt>
<trkpt lat="33.8105064" lon="-118.3945333">
  <ele>-25.01</ele>
  <time>2026-09-01T01:14:26Z</time>
  <course>243.9</course>
  <speed>1.0204410811016968</speed>
  <fix>3d</fix>
</trkpt>
<trkpt lat="33.8105077" lon="-118.3945338">
  <ele>-24.4</ele>
  <time>2026-09-01T01:14:26Z</time>
  <course>153.91</course>
  <speed>1.0</speed>
  <fix>3d</fix>
</trkpt>
<trkpt lat="33.8105056" lon="-118.3945328">
  <ele>-25.009</ele>
  <time>2026-09-01T01:14:26Z</time>
  <course>244.02</course>
  <speed>1.0204410811016968</speed>
  <fix>3d</fix>
</trkpt>
<trkpt lat="33.8105077" lon="-118.3945338">
  <ele>-24.4</ele>
  <time>2026-09-01T01:14:26Z</time>
  <course>153.91</course>
  <speed>1.0</speed>
  <fix>3d</fix>
</trkpt>
<trkpt lat="33.8105048" lon="-118.3945323">
  <ele>-25.009</ele>
  <time>2026-09-01T01:14:26Z</time>
  <course>244.13</course>
  <speed>1.0204410811016968</speed>
  <fix>3d</fix>
</trkpt>
<trkpt lat="33.8105062" lon="-118.3945328">
  <ele>-24.4</ele>
  <time>2026-09-01T01:14:26Z</time>
  <course>154.09</course>
  <speed>1.0</speed>
  <fix>3d</fix>
</trkpt>
<trkpt lat="33.810504" lon="-118.3945319">
  <ele>-25.01</ele>
  <time>2026-09-01T01:14:26Z</time>
  <course>244.25</course>
  <speed>1.016366075781753</speed>
  <fix>3d</fix>
</trkpt>
<trkpt lat="33.8105062" lon="-118.3945328">
  <ele>-24.4</ele>
  <time>2026-09-01T01:14:26Z</time>
  <course>154.09</course>
  <speed>1.0</speed>
  <fix>3d</fix>
</trkpt>
<trkpt lat="33.8105032" lon="-118.3945314">
  <ele>-25.012</ele>
  <time>2026-09-01T01:14:26Z</time>
  <course>244.36</course>
  <speed>1.016366075781753</speed>
  <fix>3d</fix>
</trkpt>
<trkpt lat="33.8105046" lon="-118.3945319">
  <ele>-24.41</ele>
  <time>2026-09-01T01:14:26Z</time>
  <course>154.27</course>
  <speed>1.0</speed>
  <fix>3d</fix>
</trkpt>
<trkpt lat="33.8105024" lon="-118.3945309">
  <ele>-25.014</ele>
  <time>2026-09-01T01:14:26Z</time>
  <course>244.48</course>
  <speed>1.016366075781753</speed>
  <fix>3d</fix>
</trkpt>
<trkpt lat="33.8105046" lon="-118.3945319">
  <ele>-24.41</ele>
  <time>2026-09-01T01:14:26Z</time>
  <course>154.27</course>
  <speed>1.0</speed>
  <fix>3d</fix>
</trkpt>
<trkpt lat="33.8105016" lon="-118.3945305">
  <ele>-25.015</ele>
  <time>2026-09-01T01:14:26Z</time>
  <course>244.59</course>
  <speed>1.016366075781753</speed>
  <fix>3d</fix>
</trkpt>
<trkpt lat="33.8105029" lon="-118.3945309">
  <ele>-24.41</ele>
  <time>2026-09-01T01:14:26Z</time>
  <course>154.52</course>
  <speed>1.0</speed>
  <fix>3d</fix>
</trkpt>
<trkpt lat="33.8105007" lon="-118.39453">
  <ele>-25.016</ele>
  <time>2026-09-01T01:14:26Z</time>
  <course>244.71</course>
  <speed>1.016366075781753</speed>
  <fix>3d</fix>
</trkpt>
<trkpt lat="33.8105029" lon="-118.3945309">
  <ele>-24.41</ele>
  <time>2026-09-01T01:14:26Z</time>
  <course>154.52</course>
  <speed>1.0</speed>
  <fix>3d</fix>
</trkpt>
<trkpt lat="33.8104999" lon="-118.3945296">
  <ele>-25.017</ele>
  <time>2026-09-01T01:14:26Z</time>
  <course>244.82</course>
  <speed>1.016366075781753</speed>
  <fix>3d</fix>
</trkpt>
<trkpt lat="33.8105013" lon="-118.39453">
  <ele>-24.41</ele>
  <time>2026-09-01T01:14:26Z</time>
  <course>154.79</course>
  <speed>1.0</speed>
  <fix>3d</fix>
</trkpt>
<trkpt lat="33.8104991" lon="-118.3945291">
  <ele>-25.017</ele>
  <time>2026-09-01T01:14:26Z</time>
  <course>244.94</course>
  <speed>1.0215674231297707</speed>
  <fix>3d</fix>
</trkpt>
<trkpt lat="33.8105013" lon="-118.39453">
  <ele>-24.41</ele>
  <time>2026-09-01T01:14:26Z</time>
  <course>154.79</course>
  <speed>1.0</speed>
  <fix>3d</fix>
</trkpt>
<trkpt lat="33.8104983" lon="-118.3945286">
  <ele>-25.017</ele>
  <time>2026-09-01T01:14:26Z</time>
  <course>245.05</course>
  <speed>1.0215674231297707</speed>
  <fix>3d</fix>
</trkpt>
<trkpt lat="33.8104996" lon="-118.3945291">
  <ele>-24.41</ele>
  <time>2026-09-01T01:14:26Z</time>
  <course>155.05</course>
  <speed>1.0</speed>
  <fix>3d</fix>
</trkpt>
<trkpt lat="33.8104975" lon="-118.3945282">
  <ele>-25.016</ele>
  <time>2026-09-01T01:14:26Z</time>
  <course>245.17</course>
  <speed>1.0215674231297707</speed>
  <fix>3d</fix>
</trkpt>
<trkpt lat="33.8104996" lon="-118.3945291">
  <ele>-24.41</ele>
  <time>2026-09-01T01:14:26Z</time>
  <course>155.05</course>
  <speed>1.0</speed>
  <fix>3d</fix>
</trkpt>
<trkpt lat="33.8104967" lon="-118.3945277">
  <ele>-25.014</ele>
  <time>2026-09-01T01:14:26Z</time>
  <course>245.28</course>
  <speed>1.0215674231297707</speed>
  <fix>3d</fix>
</trkpt>
<trkpt lat="33.810498" lon="-118.3945282">
  <ele>-24.41</ele>
  <time>2026-09-01T01:14:26Z</time>
  <course>155.29</course>
  <speed>1.0</speed>
  <fix>3d</fix>
</trkpt>
<trkpt lat="33.8104958" lon="-118.3945273">
  <ele>-25.012</ele>
  <time>2026-09-01T01:14:26Z</time>
  <course>245.39</course>
  <speed>1.0215674231297707</speed>
  <fix>3d</fix>
</trkpt>
<trkpt lat="33.810498" lon="-118.3945282">
  <ele>-24.41</ele>
  <time>2026-09-01T01:14:26Z</time>
  <course>155.29</course>
  <speed>1.0</speed>
  <fix>3d</fix>
</trkpt>
<trkpt lat="33.810495" lon="-118.3945268">
  <ele>-25.012</ele>
  <time>2026-09-01T01:14:26Z</time>
  <course>245.51</course>
  <speed>1.0215674231297707</speed>
  <fix>3d</fix>
</trkpt>
<trkpt lat="33.8104964" lon="-118.3945272">
  <ele>-24.41</ele>
  <time>2026-09-01T01:14:26Z</time>
  <course>155.5</course>
  <speed>1.0</speed>
  <fix>3d</fix>
</trkpt>
<trkpt lat="33.8104942" lon="-118.3945264">
  <ele>-25.012</ele>
  <time>2026-09-01T01:14:26Z</time>
  <course>245.62</course>
  <speed>1.0176934705499492</speed>
  <fix>3d</fix>
</trkpt>
<trkpt lat="33.8104964" lon="-118.3945272">
  <ele>-24.41</ele>
  <time>2026-09-01T01:14:26Z</time>
  <course>155.5</course>
  <speed>1.0</speed>
  <fix>3d</fix>
</trkpt>
<trkpt lat="33.8104934" lon="-118.394526">
  <ele>-25.012</ele>
  <time>2026-09-01T01:14:26Z</time>
  <course>245.74</course>
  <speed>1.0176934705499492</speed>
  <fix>3d</fix>
</trkpt>
<trkpt lat="33.8104948" lon="-118.3945264">
  <ele>-24.41</ele>
  <time>2026-09-01T01:14:26Z</time>
  <course>155.76</course>
  <speed>1.0</speed>
  <fix>3d</fix>
</trkpt>
<trkpt lat="33.8104926" lon="-118.3945255">
  <ele>-25.012</ele>
  <time>2026-09-01T01:14:26Z</time>
  <course>245.85</course>
  <speed>1.0176934705499492</speed>
  <fix>3d</fix>
</trkpt>
<trkpt lat="33.8104948" lon="-118.3945264">
  <ele>-24.41</ele>
  <time>2026-09-01T01:14:26Z</time>
  <course>155.76</course>
  <speed>1.0</speed>
  <fix>3d</fix>
</trkpt>
<trkpt lat="33.8104918" lon="-118.3945251">
  <ele>-25.013</ele>
  <time>2026-09-01T01:14:26Z</time>
  <course>245.97</course>
  <speed>1.0176934705499492</speed>
  <fix>3d</fix>
</trkpt>
<trkpt lat="33.8104931" lon="-118.3945255">
  <ele>-24.41</ele>
  <time>2026-09-01T01:14:26Z</time>
  <course>156.04</course>
  <speed>1.0</speed>
  <fix>3d</fix>
</trkpt>
<trkpt lat="33.8104909" lon="-118.3945246">
  <ele>-25.013</ele>
  <time>2026-09-01T01:14:26Z</time>
  <course>246.08</course>
  <speed>1.0231813133555558</speed>
  <fix>3d</fix>
</trkpt>
<trkpt lat="33.8104931" lon="-118.3945255">
  <ele>-24.41</ele>
  <time>2026-09-01T01:14:26Z</time>
  <course>156.04</course>
  <speed>1.0</speed>
  <fix>3d</fix>
</trkpt>
<trkpt lat="33.8104901" lon="-118.3945242">
  <ele>-25.013</ele>
  <time>2026-09-01T01:14:26Z</time>
  <course>246.19</course>
  <speed>1.0231813133555558</speed>
  <fix>3d</fix>
</trkpt>
<trkpt lat="33.8104914" lon="-118.3945246">
  <ele>-24.41</ele>
  <time>2026-09-01T01:14:26Z</time>
  <course>156.29</course>
  <speed>1.0</speed>
  <fix>3d</fix>
</trkpt>
<trkpt lat="33.8104893" lon="-118.3945238">
  <ele>-25.013</ele>
  <time>2026-09-01T01:14:26Z</time>
  <course>246.31</course>
  <speed>1.0231813133555558</speed>
  <fix>3d</fix>
</trkpt>
<trkpt lat="33.8104914" lon="-118.3945246">
  <ele>-24.41</ele>
  <time>2026-09-01T01:14:26Z</time>
  <course>156.29</course>
  <speed>1.0</speed>
  <fix>3d</fix>
</trkpt>
<trkpt lat="33.8104885" lon="-118.3945234">
  <ele>-25.012</ele>
  <time>2026-09-01T01:14:26Z</time>
  <course>246.42</course>
  <speed>1.0231813133555558</speed>
  <fix>3d</fix>
</trkpt>
<trkpt lat="33.8104898" lon="-118.3945237">
  <ele>-24.41</ele>
  <time>2026-09-01T01:14:26Z</time>
  <course>156.52</course>
  <speed>1.0</speed>
  <fix>3d</fix>
</trkpt>
<trkpt lat="33.8104876" lon="-118.3945229">
  <ele>-25.012</ele>
  <time>2026-09-01T01:14:26Z</time>
  <course>246.54</course>
  <speed>1.0231813133555558</speed>
  <fix>3d</fix>
</trkpt>
<trkpt lat="33.8104898" lon="-118.3945237">
  <ele>-24.41</ele>
  <time>2026-09-01T01:14:26Z</time>
  <course>156.52</course>
  <speed>1.0</speed>
  <fix>3d</fix>
</trkpt>
<trkpt lat="33.8104868" lon="-118.3945225">
  <ele>-25.013</ele>
  <time>2026-09-01T01:14:26Z</time>
  <course>246.66</course>
  <speed>1.0231813133555558</speed>
  <fix>3d</fix>
</trkpt>
<trkpt lat="33.8104881" lon="-118.3945229">
  <ele>-24.41</ele>
  <time>2026-09-01T01:14:26Z</time>
  <course>156.73</course>
  <speed>1.0</speed>
  <fix>3d</fix>
</trkpt>
<trkpt lat="33.810486" lon="-118.3945221">
  <ele>-25.015</ele>
  <time>2026-09-01T01:14:26Z</time>
  <course>246.77</course>
  <speed>1.0195096860746347</speed>
  <fix>3d</fix>
</trkpt>
<trkpt lat="33.8104881" lon="-118.3945229">
  <ele>-24.41</ele>
  <time>2026-09-01T01:14:26Z</time>
  <course>156.73</course>
  <speed>1.0</speed>
  <fix>3d</fix>
</trkpt>
<trkpt lat="33.8104851" lon="-118.3945216">
  <ele>-25.017</ele>
  <time>2026-09-01T01:14:26Z</time>
  <course>246.89</course>
  <speed>1.0195096860746347</speed>
  <fix>3d</fix>
</trkpt>
<trkpt lat="33.8104864" lon="-118.394522">
  <ele>-24.41</ele>
  <time>2026-09-01T01:14:26Z</time>
  <course>156.95</course>
  <speed>1.0</speed>
  <fix>3d</fix>
</trkpt>
<trkpt lat="33.8104843" lon="-118.3945212">
  <ele>-25.019</ele>
  <time>2026-09-01T01:14:26Z</time>
  <course>247.0</course>
  <speed>1.0195096860746347</speed>
  <fix>3d</fix>
</trkpt>
<trkpt lat="33.8104864" lon="-118.394522">
  <ele>-24.41</ele>
  <time>2026-09-01T01:14:26Z</time>
  <course>156.95</course>
  <speed>1.0</speed>
  <fix>3d</fix>
</trkpt>
<trkpt lat="33.8104835" lon="-118.3945208">
  <ele>-25.02</ele>
  <time>2026-09-01T01:14:26Z</time>
  <course>247.11</course>
  <speed>1.0195096860746347</speed>
  <fix>3d</fix>
</trkpt>
<trkpt lat="33.8104848" lon="-118.3945211">
  <ele>-24.42</ele>
  <time>2026-09-01T01:14:26Z</time>
  <course>157.16</course>
  <speed>1.0</speed>
  <fix>3d</fix>
</trkpt>
<trkpt lat="33.8104826" lon="-118.3945204">
  <ele>-25.019</ele>
  <time>2026-09-01T01:14:26Z</time>
  <course>247.22</course>
  <speed>1.0159232254457027</speed>
  <fix>3d</fix>
</trkpt>
<trkpt lat="33.8104848" lon="-118.3945211">
  <ele>-24.42</ele>
  <time>2026-09-01T01:14:26Z</time>
  <course>157.16</course>
  <speed>1.0</speed>
  <fix>3d</fix>
</trkpt>
<trkpt lat="33.8104818" lon="-118.39452">
  <ele>-25.018</ele>
  <time>2026-09-01T01:14:26Z</time>
  <course>247.34</course>
  <speed>1.0159232254457027</speed>
  <fix>3d</fix>
</trkpt>
<trkpt lat="33.8104831" lon="-118.3945203">
  <ele>-24.41</ele>
  <time>2026-09-01T01:14:26Z</time>
  <course>157.41</course>
  <speed>1.0</speed>
  <fix>3d</fix>
</trkpt>
<trkpt lat="33.810481" lon="-118.3945196">
  <ele>-25.016</ele>
  <time>2026-09-01T01:14:26Z</time>
  <course>247.45</course>
  <speed>1.0159232254457027</speed>
  <fix>3d</fix>
</trkpt>
<trkpt lat="33.8104831" lon="-118.3945203">
  <ele>-24.41</ele>
  <time>2026-09-01T01:14:26Z</time>
  <course>157.41</course>
  <speed>1.0</speed>
  <fix>3d</fix>
</trkpt>
<trkpt lat="33.8104801" lon="-118.3945191">
  <ele>-25.013</ele>
  <time>2026-09-01T01:14:26Z</time>
  <course>247.57</course>
  <speed>1.0159232254457027</speed>
  <fix>3d</fix>
</trkpt>
<trkpt lat="33.8104814" lon="-118.3945195">
  <ele>-24.41</ele>
  <time>2026-09-01T01:14:26Z</time>
  <course>157.67</course>
  <speed>1.0</speed>
  <fix>3d</fix>
</trkpt>
<trkpt lat="33.8104793" lon="-118.3945187">
  <ele>-25.012</ele>
  <time>2026-09-01T01:14:26Z</time>
  <course>247.68</course>
  <speed>1.0159232254457027</speed>
  <fix>3d</fix>
</trkpt>
<trkpt lat="33.8104814" lon="-118.3945195">
  <ele>-24.41</ele>
  <time>2026-09-01T01:14:26Z</time>
  <course>157.67</course>
  <speed>1.0</speed>
  <fix>3d</fix>
</trkpt>
<trkpt lat="33.8104785" lon="-118.3945183">
  <ele>-25.012</ele>
  <time>2026-09-01T01:14:26Z</time>
  <course>247.8</course>
  <speed>1.0159232254457027</speed>
  <fix>3d</fix>
</trkpt>
<trkpt lat="33.8104798" lon="-118.3945187">
  <ele>-24.41</ele>
  <time>2026-09-01T01:14:26Z</time>
  <course>157.9</course>
  <speed>1.0</speed>
  <fix>3d</fix>
</trkpt>
<trkpt lat="33.8104776" lon="-118.3945179">
  <ele>-25.013</ele>
  <time>2026-09-01T01:14:26Z</time>
  <course>247.91</course>
  <speed>1.0124228365658294</speed>
  <fix>3d</fix>
</trkpt>
<trkpt lat="33.8104798" lon="-118.3945187">
  <ele>-24.41</ele>
  <time>2026-09-01T01:14:26Z</time>
  <course>157.9</course>
  <speed>1.0</speed>
  <fix>3d</fix>
</trkpt>
<trkpt lat="33.8104768" lon="-118.3945175">
  <ele>-25.015</ele>
  <time>2026-09-01T01:14:26Z</time>
  <course>248.03</course>
  <speed>1.0124228365658294</speed>
  <fix>3d</fix>
</trkpt>
<trkpt lat="33.8104781" lon="-118.3945179">
  <ele>-24.41</ele>
  <time>2026-09-01T01:14:26Z</time>
  <course>158.1</course>
  <speed>1.0</speed>
  <fix>3d</fix>
</trkpt>
<trkpt lat="33.810476" lon="-118.3945171">
  <ele>-25.017</ele>
  <time>2026-09-01T01:14:26Z</time>
  <course>248.15</course>
  <speed>1.0124228365658294</speed>
  <fix>3d</fix>
</trkpt>
<trkpt lat="33.8104781" lon="-118.3945179">
  <ele>-24.41</ele>
  <time>2026-09-01T01:14:26Z</time>
  <course>158.1</course>
  <speed>1.0</speed>
  <fix>3d</fix>
</trkpt>
<trkpt lat="33.8104751" lon="-118.3945167">
  <ele>-25.018</ele>
  <time>2026-09-01T01:14:26Z</time>
  <course>248.26</course>
  <speed>1.0124228365658294</speed>
  <fix>3d</fix>
</trkpt>
<trkpt lat="33.8104764" lon="-118.3945171">
  <ele>-24.41</ele>
  <time>2026-09-01T01:14:26Z</time>
  <course>158.29</course>
  <speed>1.0</speed>
  <fix>3d</fix>
</trkpt>
<trkpt lat="33.8104743" lon="-118.3945163">
  <ele>-25.019</ele>
  <time>2026-09-01T01:14:26Z</time>
  <course>248.38</course>
  <speed>1.0124228365658294</speed>
  <fix>3d</fix>
</trkpt>
<trkpt lat="33.8104764" lon="-118.3945171">
  <ele>-24.41</ele>
  <time>2026-09-01T01:14:26Z</time>
  <course>158.29</course>
  <speed>1.0</speed>
  <fix>3d</fix>
</trkpt>
<trkpt lat="33.8104735" lon="-118.3945159">
  <ele>-25.018</ele>
  <time>2026-09-01T01:14:26Z</time>
  <course>248.49</course>
  <speed>1.0124228365658294</speed>
  <fix>3d</fix>
</trkpt>
<trkpt lat="33.8104748" lon="-118.3945163">
  <ele>-24.41</ele>
  <time>2026-09-01T01:14:26Z</time>
  <course>158.45</course>
  <speed>1.0</speed>
  <fix>3d</fix>
</trkpt>
<trkpt lat="33.8104726" lon="-118.3945156">
  <ele>-25.016</ele>
  <time>2026-09-01T01:14:26Z</time>
  <course>248.6</course>
  <speed>1.0184301645179212</speed>
  <fix>3d</fix>
</trkpt>
<trkpt lat="33.8104748" lon="-118.3945163">
  <ele>-24.41</ele>
  <time>2026-09-01T01:14:26Z</time>
  <course>158.45</course>
  <speed>1.0</speed>
  <fix>3d</fix>
</trkpt>
<trkpt lat="33.8104718" lon="-118.3945152">
  <ele>-25.013</ele>
  <time>2026-09-01T01:14:26Z</time>
  <course>248.72</course>
  <speed>1.0184301645179212</speed>
  <fix>3d</fix>
</trkpt>
<trkpt lat="33.8104731" lon="-118.3945154">
  <ele>-24.4</ele>
  <time>2026-09-01T01:14:26Z</time>
  <course>158.63</course>
  <speed>1.0</speed>
  <fix>3d</fix>
</trkpt>
<trkpt lat="33.8104709" lon="-118.3945148">
  <ele>-25.011</ele>
  <time>2026-09-01T01:14:26Z</time>
  <course>248.83</course>
  <speed>1.0184301645179212</speed>
  <fix>3d</fix>
</trkpt>
<trkpt lat="33.8104731" lon="-118.3945154">
  <ele>-24.4</ele>
  <time>2026-09-01T01:14:26Z</time>
  <course>158.63</course>
  <speed>1.0</speed>
  <fix>3d</fix>
</trkpt>
<trkpt lat="33.8104701" lon="-118.3945144">
  <ele>-25.01</ele>
  <time>2026-09-01T01:14:26Z</time>
  <course>248.95</course>
  <speed>1.0184301645179212</speed>
  <fix>3d</fix>
</trkpt>
<trkpt lat="33.8104715" lon="-118.3945147">
  <ele>-24.4</ele>
  <time>2026-09-01T01:14:26Z</time>
  <course>158.89</course>
  <speed>1.0</speed>
  <fix>3d</fix>
</trkpt>
<trkpt lat="33.8104693" lon="-118.394514">
  <ele>-25.009</ele>
  <time>2026-09-01T01:14:26Z</time>
  <course>249.06</course>
  <speed>1.0151354589413177</speed>
  <fix>3d</fix>
</trkpt>
<trkpt lat="33.8104715" lon="-118.3945147">
  <ele>-24.4</ele>
  <time>2026-09-01T01:14:26Z</time>
  <course>158.89</course>
  <speed>1.0</speed>
  <fix>3d</fix>
</trkpt>
<trkpt lat="33.8104684" lon="-118.3945136">
  <ele>-25.009</ele>
  <time>2026-09-01T01:14:26Z</time>
  <course>249.18</course>
  <speed>1.0151354589413177</speed>
  <fix>3d</fix>
</trkpt>
<trkpt lat="33.8104698" lon="-118.3945139">
  <ele>-24.4</ele>
  <time>2026-09-01T01:14:26Z</time>
  <course>159.2</course>
  <speed>1.0</speed>
  <fix>3d</fix>
</trkpt>
<trkpt lat="33.8104676" lon="-118.3945132">
  <ele>-25.009</ele>
  <time>2026-09-01T01:14:26Z</time>
  <course>249.29</course>
  <speed>1.0151354589413177</speed>
  <fix>3d</fix>
</trkpt>
<trkpt lat="33.8104698" lon="-118.3945139">
  <ele>-24.4</ele>
  <time>2026-09-01T01:14:26Z</time>
  <course>159.2</course>
  <speed>1.0</speed>
  <fix>3d</fix>
</trkpt>
<trkpt lat="33.8104667" lon="-118.3945128">
  <ele>-25.009</ele>
  <time>2026-09-01T01:14:26Z</time>
  <course>249.4</course>
  <speed>1.0151354589413177</speed>
  <fix>3d</fix>
</trkpt>
<trkpt lat="33.8104681" lon="-118.3945132">
  <ele>-24.4</ele>
  <time>2026-09-01T01:14:26Z</time>
  <course>159.5</course>
  <speed>1.0</speed>
  <fix>3d</fix>
</trkpt>
<trkpt lat="33.8104659" lon="-118.3945125">
  <ele>-25.011</ele>
  <time>2026-09-01T01:14:26Z</time>
  <course>249.52</course>
  <speed>1.0151354589413177</speed>
  <fix>3d</fix>
</trkpt>
<trkpt lat="33.8104681" lon="-118.3945132">
  <ele>-24.4</ele>
  <time>2026-09-01T01:14:26Z</time>
  <course>159.5</course>
  <speed>1.0</speed>
  <fix>3d</fix>
</trkpt>
<trkpt lat="33.8104651" lon="-118.3945121">
  <ele>-25.013</ele>
  <time>2026-09-01T01:14:26Z</time>
  <course>249.64</course>
  <speed>1.0151354589413177</speed>
  <fix>3d</fix>
</trkpt>
<trkpt lat="33.8104664" lon="-118.3945124">
  <ele>-24.4</ele>
  <time>2026-09-01T01:14:26Z</time>
  <course>159.76</course>
  <speed>1.0</speed>
  <fix>3d</fix>
</trkpt>
<trkpt lat="33.8104642" lon="-118.3945117">
  <ele>-25.015</ele>
  <time>2026-09-01T01:14:26Z</time>
  <course>249.75</course>
  <speed>1.021420579389313</speed>
  <fix>3d</fix>
</trkpt>
<trkpt lat="33.8104664" lon="-118.3945124">
  <ele>-24.4</ele>
  <time>2026-09-01T01:14:26Z</time>
  <course>159.76</course>
  <speed>1.0</speed>
  <fix>3d</fix>
</trkpt>
<trkpt lat="33.8104634" lon="-118.3945114">
  <ele>-25.016</ele>
  <time>2026-09-01T01:14:26Z</time>
  <course>249.86</course>
  <speed>1.021420579389313</speed>
  <fix>3d</fix>
</trkpt>
<trkpt lat="33.8104647" lon="-118.3945117">
  <ele>-24.41</ele>
  <time>2026-09-01T01:14:26Z</time>
  <course>159.96</course>
  <speed>1.0</speed>
  <fix>3d</fix>
</trkpt>
<trkpt lat="33.8104625" lon="-118.394511">
  <ele>-25.017</ele>
  <time>2026-09-01T01:14:26Z</time>
  <course>249.98</course>
  <speed>1.021420579389313</speed>
  <fix>3d</fix>
</trkpt>
<trkpt lat="33.8104647" lon="-118.3945117">
  <ele>-24.41</ele>
  <time>2026-09-01T01:14:26Z</time>
  <course>159.96</course>
  <speed>1.0</speed>
  <fix>3d</fix>
</trkpt>
<trkpt lat="33.8104617" lon="-118.3945106">
  <ele>-25.018</ele>
  <time>2026-09-01T01:14:26Z</time>
  <course>250.09</course>
  <speed>1.021420579389313</speed>
  <fix>3d</fix>
</trkpt>
<trkpt lat="33.810463" lon="-118.3945109">
  <ele>-24.41</ele>
  <time>2026-09-01T01:14:26Z</time>
  <course>160.15</course>
  <speed>1.0</speed>
  <fix>3d</fix>
</trkpt>
<trkpt lat="33.8104608" lon="-118.3945103">
  <ele>-25.017</ele>
  <time>2026-09-01T01:14:26Z</time>
  <course>250.2</course>
  <speed>1.021420579389313</speed>
  <fix>3d</fix>
</trkpt>
<trkpt lat="33.810463" lon="-118.3945109">
  <ele>-24.41</ele>
  <time>2026-09-01T01:14:26Z</time>
  <course>160.15</course>
  <speed>1.0</speed>
  <fix>3d</fix>
</trkpt>
<trkpt lat="33.81046" lon="-118.3945099">
  <ele>-25.016</ele>
  <time>2026-09-01T01:14:26Z</time>
  <course>250.32</course>
  <speed>1.021420579389313</speed>
  <fix>3d</fix>
</trkpt>
<trkpt lat="33.8104613" lon="-118.3945102">
  <ele>-24.41</ele>
  <time>2026-09-01T01:14:26Z</time>
  <course>160.34</course>
  <speed>1.0</speed>
  <fix>3d</fix>
</trkpt>
<trkpt lat="33.8104591" lon="-118.3945095">
  <ele>-25.014</ele>
  <time>2026-09-01T01:14:27Z</time>
  <course>250.43</course>
  <speed>1.0183319694480775</speed>
  <fix>3d</fix>
</trkpt>
<trkpt lat="33.8104613" lon="-118.3945102">
  <ele>-24.41</ele>
  <time>2026-09-01T01:14:27Z</time>
  <course>160.34</course>
  <speed>1.0</speed>
  <fix>3d</fix>
</trkpt>
<trkpt lat="33.8104583" lon="-118.3945092">
  <ele>-25.013</ele>
  <time>2026-09-01T01:14:27Z</time>
  <course>250.55</course>
  <speed>1.0183319694480775</speed>
  <fix>3d</fix>
</trkpt>
<trkpt lat="33.8104596" lon="-118.3945095">
  <ele>-24.4</ele>
  <time>2026-09-01T01:14:27Z</time>
  <course>160.55</course>
  <speed>1.0</speed>
  <fix>3d</fix>
</trkpt>
<trkpt lat="33.8104574" lon="-118.3945088">
  <ele>-25.012</ele>
  <time>2026-09-01T01:14:27Z</time>
  <course>250.67</course>
  <speed>1.0183319694480775</speed>
  <fix>3d</fix>
</trkpt>
<trkpt lat="33.8104596" lon="-118.3945095">
  <ele>-24.4</ele>
  <time>2026-09-01T01:14:27Z</time>
  <course>160.55</course>
  <speed>1.0</speed>
  <fix>3d</fix>
</trkpt>
<trkpt lat="33.8104566" lon="-118.3945085">
  <ele>-25.012</ele>
  <time>2026-09-01T01:14:27Z</time>
  <course>250.78</course>
  <speed>1.0183319694480775</speed>
  <fix>3d</fix>
</trkpt>
<trkpt lat="33.8104579" lon="-118.3945087">
  <ele>-24.4</ele>
  <time>2026-09-01T01:14:27Z</time>
  <course>160.74</course>
  <speed>0.99</speed>
  <fix>3d</fix>
</trkpt>
<trkpt lat="33.8104557" lon="-118.3945081">
  <ele>-25.012</ele>
  <time>2026-09-01T01:14:27Z</time>
  <course>250.89</course>
  <speed>1.015332457867865</speed>
  <fix>3d</fix>
</trkpt>
<trkpt lat="33.8104579" lon="-118.3945087">
  <ele>-24.4</ele>
  <time>2026-09-01T01:14:27Z</time>
  <course>160.74</course>
  <speed>0.99</speed>
  <fix>3d</fix>
</trkpt>
<trkpt lat="33.8104549" lon="-118.3945078">
  <ele>-25.013</ele>
  <time>2026-09-01T01:14:27Z</time>
  <course>251.01</course>
  <speed>1.015332457867865</speed>
  <fix>3d</fix>
</trkpt>
<trkpt lat="33.8104562" lon="-118.394508">
  <ele>-24.4</ele>
  <time>2026-09-01T01:14:27Z</time>
  <course>160.96</course>
  <speed>0.99</speed>
  <fix>3d</fix>
</trkpt>
<trkpt lat="33.810454" lon="-118.3945074">
  <ele>-25.013</ele>
  <time>2026-09-01T01:14:27Z</time>
  <course>251.12</course>
  <speed>1.015332457867865</speed>
  <fix>3d</fix>
</trkpt>
<trkpt lat="33.8104562" lon="-118.394508">
  <ele>-24.4</ele>
  <time>2026-09-01T01:14:27Z</time>
  <course>160.96</course>
  <speed>0.99</speed>
  <fix>3d</fix>
</trkpt>
<trkpt lat="33.8104532" lon="-118.3945071">
  <ele>-25.014</ele>
  <time>2026-09-01T01:14:27Z</time>
  <course>251.24</course>
  <speed>1.015332457867865</speed>
  <fix>3d</fix>
</trkpt>
<trkpt lat="33.8104545" lon="-118.3945073">
  <ele>-24.4</ele>
  <time>2026-09-01T01:14:27Z</time>
  <course>161.23</course>
  <speed>0.99</speed>
  <fix>3d</fix>
</trkpt>
<trkpt lat="33.8104523" lon="-118.3945067">
  <ele>-25.015</ele>
  <time>2026-09-01T01:14:27Z</time>
  <course>251.35</course>
  <speed>1.015332457867865</speed>
  <fix>3d</fix>
</trkpt>
<trkpt lat="33.8104545" lon="-118.3945073">
  <ele>-24.4</ele>
  <time>2026-09-01T01:14:27Z</time>
  <course>161.23</course>
  <speed>0.99</speed>
  <fix>3d</fix>
</trkpt>
<trkpt lat="33.8104515" lon="-118.3945064">
  <ele>-25.015</ele>
  <time>2026-09-01T01:14:27Z</time>
  <course>251.47</course>
  <speed>1.0124228365658294</speed>
  <fix>3d</fix>
</trkpt>
<trkpt lat="33.8104528" lon="-118.3945066">
  <ele>-24.4</ele>
  <time>2026-09-01T01:14:27Z</time>
  <course>161.51</course>
  <speed>0.99</speed>
  <fix>3d</fix>
</trkpt>
<trkpt lat="33.8104506" lon="-118.394506">
  <ele>-25.014</ele>
  <time>2026-09-01T01:14:27Z</time>
  <course>251.58</course>
  <speed>1.0124228365658294</speed>
  <fix>3d</fix>
</trkpt>
<trkpt lat="33.8104528" lon="-118.3945066">
  <ele>-24.4</ele>
  <time>2026-09-01T01:14:27Z</time>
  <course>161.51</course>
  <speed>0.99</speed>
  <fix>3d</fix>
</trkpt>
<trkpt lat="33.8104497" lon="-118.3945057">
  <ele>-25.013</ele>
  <time>2026-09-01T01:14:27Z</time>
  <course>251.69</course>
  <speed>1.0124228365658294</speed>
  <fix>3d</fix>
</trkpt>
<trkpt lat="33.8104511" lon="-118.394506">
  <ele>-24.4</ele>
  <time>2026-09-01T01:14:27Z</time>
  <course>161.78</course>
  <speed>0.99</speed>
  <fix>3d</fix>
</trkpt>
<trkpt lat="33.8104489" lon="-118.3945054">
  <ele>-25.012</ele>
  <time>2026-09-01T01:14:27Z</time>
  <course>251.81</course>
  <speed>1.0124228365658294</speed>
  <fix>3d</fix>
</trkpt>
<trkpt lat="33.8104511" lon="-118.394506">
  <ele>-24.4</ele>
  <time>2026-09-01T01:14:27Z</time>
  <course>161.78</course>
  <speed>0.99</speed>
  <fix>3d</fix>
</trkpt>
<trkpt lat="33.810448" lon="-118.394505">
  <ele>-25.011</ele>
  <time>2026-09-01T01:14:27Z</time>
  <course>251.92</course>
  <speed>1.0124228365658294</speed>
  <fix>3d</fix>
</trkpt>
<trkpt lat="33.8104494" lon="-118.3945053">
  <ele>-24.4</ele>
  <time>2026-09-01T01:14:27Z</time>
  <course>162.0</course>
  <speed>0.99</speed>
  <fix>3d</fix>
</trkpt>
<trkpt lat="33.8104472" lon="-118.3945047">
  <ele>-25.01</ele>
  <time>2026-09-01T01:14:27Z</time>
  <course>252.04</course>
  <speed>1.0192153844992726</speed>
  <fix>3d</fix>
</trkpt>
<trkpt lat="33.8104494" lon="-118.3945053">
  <ele>-24.4</ele>
  <time>2026-09-01T01:14:27Z</time>
  <course>162.0</course>
  <speed>0.99</speed>
  <fix>3d</fix>
</trkpt>
<trkpt lat="33.8104463" lon="-118.3945044">
  <ele>-25.009</ele>
  <time>2026-09-01T01:14:27Z</time>
  <course>252.15</course>
  <speed>1.0192153844992726</speed>
  <fix>3d</fix>
</trkpt>
<trkpt lat="33.8104477" lon="-118.3945046">
  <ele>-24.4</ele>
  <time>2026-09-01T01:14:27Z</time>
  <course>162.19</course>
  <speed>0.99</speed>
  <fix>3d</fix>
</trkpt>
<trkpt lat="33.8104455" lon="-118.3945041">
  <ele>-25.01</ele>
  <time>2026-09-01T01:14:27Z</time>
  <course>252.27</course>
  <speed>1.0192153844992726</speed>
  <fix>3d</fix>
</trkpt>
<trkpt lat="33.8104477" lon="-118.3945046">
  <ele>-24.4</ele>
  <time>2026-09-01T01:14:27Z</time>
  <course>162.19</course>
  <speed>0.99</speed>
  <fix>3d</fix>
</trkpt>
<trkpt lat="33.8104446" lon="-118.3945037">
  <ele>-25.011</ele>
  <time>2026-09-01T01:14:27Z</time>
  <course>252.38</course>
  <speed>1.0192153844992726</speed>
  <fix>3d</fix>
</trkpt>
<trkpt lat="33.810446" lon="-118.394504">
  <ele>-24.4</ele>
  <time>2026-09-01T01:14:27Z</time>
  <course>162.4</course>
  <speed>0.99</speed>
  <fix>3d</fix>
</trkpt>
<trkpt lat="33.8104438" lon="-118.3945034">
  <ele>-25.011</ele>
  <time>2026-09-01T01:14:27Z</time>
  <course>252.5</course>
  <speed>1.0192153844992726</speed>
  <fix>3d</fix>
</trkpt>
<trkpt lat="33.810446" lon="-118.394504">
  <ele>-24.4</ele>
  <time>2026-09-01T01:14:27Z</time>
  <course>162.4</course>
  <speed>0.99</speed>
  <fix>3d</fix>
</trkpt>
<trkpt lat="33.8104429" lon="-118.3945031">
  <ele>-25.013</ele>
  <time>2026-09-01T01:14:27Z</time>
  <course>252.61</course>
  <speed>1.0192153844992726</speed>
  <fix>3d</fix>
</trkpt>
<trkpt lat="33.8104443" lon="-118.3945033">
  <ele>-24.4</ele>
  <time>2026-09-01T01:14:27Z</time>
  <course>162.6</course>
  <speed>0.99</speed>
  <fix>3d</fix>
</trkpt>
<trkpt lat="33.810442" lon="-118.3945028">
  <ele>-25.014</ele>
  <time>2026-09-01T01:14:27Z</time>
  <course>252.73</course>
  <speed>1.0165136496870073</speed>
  <fix>3d</fix>
</trkpt>
<trkpt lat="33.8104443" lon="-118.3945033">
  <ele>-24.4</ele>
  <time>2026-09-01T01:14:27Z</time>
  <course>162.6</course>
  <speed>0.99</speed>
  <fix>3d</fix>
</trkpt>
<trkpt lat="33.8104412" lon="-118.3945025">
  <ele>-25.016</ele>
  <time>2026-09-01T01:14:27Z</time>
  <course>252.84</course>
  <speed>1.0165136496870073</speed>
  <fix>3d</fix>
</trkpt>
<trkpt lat="33.8104426" lon="-118.3945027">
  <ele>-24.41</ele>
  <time>2026-09-01T01:14:27Z</time>
  <course>162.8</course>
  <speed>0.99</speed>
  <fix>3d</fix>
</trkpt>
<trkpt lat="33.8104403" lon="-118.3945021">
  <ele>-25.017</ele>
  <time>2026-09-01T01:14:27Z</time>
  <course>252.96</course>
  <speed>1.0165136496870073</speed>
  <fix>3d</fix>
</trkpt>
<trkpt lat="33.8104426" lon="-118.3945027">
  <ele>-24.41</ele>
  <time>2026-09-01T01:14:27Z</time>
  <course>162.8</course>
  <speed>0.99</speed>
  <fix>3d</fix>
</trkpt>
<trkpt lat="33.8104395" lon="-118.3945018">
  <ele>-25.017</ele>
  <time>2026-09-01T01:14:27Z</time>
  <course>253.07</course>
  <speed>1.0165136496870073</speed>
  <fix>3d</fix>
</trkpt>
<trkpt lat="33.8104409" lon="-118.3945021">
  <ele>-24.41</ele>
  <time>2026-09-01T01:14:27Z</time>
  <course>163.03</course>
  <speed>0.99</speed>
  <fix>3d</fix>
</trkpt>
<trkpt lat="33.8104386" lon="-118.3945015">
  <ele>-25.017</ele>
  <time>2026-09-01T01:14:27Z</time>
  <course>253.18</course>
  <speed>1.0165136496870073</speed>
  <fix>3d</fix>
</trkpt>
<trkpt lat="33.8104409" lon="-118.3945021">
  <ele>-24.41</ele>
  <time>2026-09-01T01:14:27Z</time>
  <course>163.03</course>
  <speed>0.99</speed>
  <fix>3d</fix>
</trkpt>
<trkpt lat="33.8104378" lon="-118.3945012">
  <ele>-25.016</ele>
  <time>2026-09-01T01:14:27Z</time>
  <course>253.3</course>
  <speed>1.0139033484509261</speed>
  <fix>3d</fix>
</trkpt>
<trkpt lat="33.8104392" lon="-118.3945015">
  <ele>-24.41</ele>
  <time>2026-09-01T01:14:27Z</time>
  <course>163.24</course>
  <speed>0.99</speed>
  <fix>3d</fix>
</trkpt>
<trkpt lat="33.8104369" lon="-118.3945009">
  <ele>-25.015</ele>
  <time>2026-09-01T01:14:27Z</time>
  <course>253.42</course>
  <speed>1.0235721762533407</speed>
  <fix>3d</fix>
</trkpt>
<trkpt lat="33.8104392" lon="-118.3945015">
  <ele>-24.41</ele>
  <time>2026-09-01T01:14:27Z</time>
  <course>163.24</course>
  <speed>0.99</speed>
  <fix>3d</fix>
</trkpt>
<trkpt lat="33.810436" lon="-118.3945006">
  <ele>-25.014</ele>
  <time>2026-09-01T01:14:27Z</time>
  <course>253.53</course>
  <speed>1.0235721762533407</speed>
  <fix>3d</fix>
</trkpt>
<trkpt lat="33.8104374" lon="-118.3945008">
  <ele>-24.41</ele>
  <time>2026-09-01T01:14:27Z</time>
  <course>163.44</course>
  <speed>1.0</speed>
  <fix>3d</fix>
</trkpt>
<trkpt lat="33.8104352" lon="-118.3945003">
  <ele>-25.014</ele>
  <time>2026-09-01T01:14:27Z</time>
  <course>253.64</course>
  <speed>1.0235721762533407</speed>
  <fix>3d</fix>
</trkpt>
<trkpt lat="33.8104374" lon="-118.3945008">
  <ele>-24.41</ele>
  <time>2026-09-01T01:14:27Z</time>
  <course>163.44</course>
  <speed>1.0</speed>
  <fix>3d</fix>
</trkpt>
<trkpt lat="33.8104343" lon="-118.3945">
  <ele>-25.013</ele>
  <time>2026-09-01T01:14:27Z</time>
  <course>253.76</course>
  <speed>1.0235721762533407</speed>
  <fix>3d</fix>
</trkpt>
<trkpt lat="33.8104357" lon="-118.3945002">
  <ele>-24.4</ele>
  <time>2026-09-01T01:14:27Z</time>
  <course>163.64</course>
  <speed>1.0</speed>
  <fix>3d</fix>
</trkpt>
<trkpt lat="33.8104334" lon="-118.3944997">
  <ele>-25.014</ele>
  <time>2026-09-01T01:14:27Z</time>
  <course>253.87</course>
  <speed>1.021077861869505</speed>
  <fix>3d</fix>
</trkpt>
<trkpt lat="33.8104357" lon="-118.3945002">
  <ele>-24.4</ele>
  <time>2026-09-01T01:14:27Z</time>
  <course>163.64</course>
  <speed>1.0</speed>
  <fix>3d</fix>
</trkpt>
<trkpt lat="33.8104326" lon="-118.3944994">
  <ele>-25.013</ele>
  <time>2026-09-01T01:14:27Z</time>
  <course>253.99</course>
  <speed>1.021077861869505</speed>
  <fix>3d</fix>
</trkpt>
<trkpt lat="33.810434" lon="-118.3944996">
  <ele>-24.4</ele>
  <time>2026-09-01T01:14:27Z</time>
  <course>163.88</course>
  <speed>1.0</speed>
  <fix>3d</fix>
</trkpt>
<trkpt lat="33.8104317" lon="-118.3944991">
  <ele>-25.012</ele>
  <time>2026-09-01T01:14:27Z</time>
  <course>254.1</course>
  <speed>1.021077861869505</speed>
  <fix>3d</fix>
</trkpt>
<trkpt lat="33.810434" lon="-118.3944996">
  <ele>-24.4</ele>
  <time>2026-09-01T01:14:27Z</time>
  <course>163.88</course>
  <speed>1.0</speed>
  <fix>3d</fix>
</trkpt>
<trkpt lat="33.8104308" lon="-118.3944988">
  <ele>-25.011</ele>
  <time>2026-09-01T01:14:27Z</time>
  <course>254.21</course>
  <speed>1.021077861869505</speed>
  <fix>3d</fix>
</trkpt>
<trkpt lat="33.8104323" lon="-118.394499">
  <ele>-24.4</ele>
  <time>2026-09-01T01:14:27Z</time>
  <course>164.13</course>
  <speed>1.0</speed>
  <fix>3d</fix>
</trkpt>
<trkpt lat="33.81043" lon="-118.3944985">
  <ele>-25.01</ele>
  <time>2026-09-01T01:14:27Z</time>
  <course>254.33</course>
  <speed>1.021077861869505</speed>
  <fix>3d</fix>
</trkpt>
<trkpt lat="33.8104323" lon="-118.394499">
  <ele>-24.4</ele>
  <time>2026-09-01T01:14:27Z</time>
  <course>164.13</course>
  <speed>1.0</speed>
  <fix>3d</fix>
</trkpt>
<trkpt lat="33.8104291" lon="-118.3944982">
  <ele>-25.01</ele>
  <time>2026-09-01T01:14:27Z</time>
  <course>254.45</course>
  <speed>1.0186756107809787</speed>
  <fix>3d</fix>
</trkpt>
<trkpt lat="33.8104305" lon="-118.3944984">
  <ele>-24.4</ele>
  <time>2026-09-01T01:14:27Z</time>
  <course>164.39</course>
  <speed>1.0</speed>
  <fix>3d</fix>
</trkpt>
<trkpt lat="33.8104282" lon="-118.394498">
  <ele>-25.01</ele>
  <time>2026-09-01T01:14:27Z</time>
  <course>254.56</course>
  <speed>1.0186756107809787</speed>
  <fix>3d</fix>
</trkpt>
<trkpt lat="33.8104305" lon="-118.3944984">
  <ele>-24.4</ele>
  <time>2026-09-01T01:14:27Z</time>
  <course>164.39</course>
  <speed>1.0</speed>
  <fix>3d</fix>
</trkpt>
<trkpt lat="33.8104274" lon="-118.3944977">
  <ele>-25.01</ele>
  <time>2026-09-01T01:14:27Z</time>
  <course>254.67</course>
  <speed>1.0186756107809787</speed>
  <fix>3d</fix>
</trkpt>
<trkpt lat="33.8104288" lon="-118.3944979">
  <ele>-24.41</ele>
  <time>2026-09-01T01:14:27Z</time>
  <course>164.65</course>
  <speed>1.0</speed>
  <fix>3d</fix>
</trkpt>
<trkpt lat="33.8104265" lon="-118.3944974">
  <ele>-25.011</ele>
  <time>2026-09-01T01:14:27Z</time>
  <course>254.79</course>
  <speed>1.0186756107809787</speed>
  <fix>3d</fix>
</trkpt>
<trkpt lat="33.8104288" lon="-118.3944979">
  <ele>-24.41</ele>
  <time>2026-09-01T01:14:27Z</time>
  <course>164.65</course>
  <speed>1.0</speed>
  <fix>3d</fix>
</trkpt>
<trkpt lat="33.8104256" lon="-118.3944971">
  <ele>-25.012</ele>
  <time>2026-09-01T01:14:27Z</time>
  <course>254.91</course>
  <speed>1.0186756107809787</speed>
  <fix>3d</fix>
</trkpt>
<trkpt lat="33.8104271" lon="-118.3944973">
  <ele>-24.41</ele>
  <time>2026-09-01T01:14:27Z</time>
  <course>164.87</course>
  <speed>1.0</speed>
  <fix>3d</fix>
</trkpt>
<trkpt lat="33.8104248" lon="-118.3944968">
  <ele>-25.013</ele>
  <time>2026-09-01T01:14:27Z</time>
  <course>255.02</course>
  <speed>1.016366075781753</speed>
  <fix>3d</fix>
</trkpt>
<trkpt lat="33.8104271" lon="-118.3944973">
  <ele>-24.41</ele>
  <time>2026-09-01T01:14:27Z</time>
  <course>164.87</course>
  <speed>1.0</speed>
  <fix>3d</fix>
</trkpt>
<trkpt lat="33.8104239" lon="-118.3944966">
  <ele>-25.014</ele>
  <time>2026-09-01T01:14:27Z</time>
  <course>255.13</course>
  <speed>1.016366075781753</speed>
  <fix>3d</fix>
</trkpt>
<trkpt lat="33.8104253" lon="-118.3944967">
  <ele>-24.41</ele>
  <time>2026-09-01T01:14:27Z</time>
  <course>165.07</course>
  <speed>1.0</speed>
  <fix>3d</fix>
</trkpt>
<trkpt lat="33.810423" lon="-118.3944963">
  <ele>-25.014</ele>
  <time>2026-09-01T01:14:27Z</time>
  <course>255.25</course>
  <speed>1.016366075781753</speed>
  <fix>3d</fix>
</trkpt>
<trkpt lat="33.8104253" lon="-118.3944967">
  <ele>-24.41</ele>
  <time>2026-09-01T01:14:27Z</time>
  <course>165.07</course>
  <speed>1.0</speed>
  <fix>3d</fix>
</trkpt>
<trkpt lat="33.8104222" lon="-118.394496">
  <ele>-25.014</ele>
  <time>2026-09-01T01:14:27Z</time>
  <course>255.36</course>
  <speed>1.016366075781753</speed>
  <fix>3d</fix>
</trkpt>
<trkpt lat="33.8104235" lon="-118.3944962">
  <ele>-24.41</ele>
  <time>2026-09-01T01:14:27Z</time>
  <course>165.28</course>
  <speed>1.0</speed>
  <fix>3d</fix>
</trkpt>
<trkpt lat="33.8104213" lon="-118.3944958">
  <ele>-25.014</ele>
  <time>2026-09-01T01:14:27Z</time>
  <course>255.48</course>
  <speed>1.016366075781753</speed>
  <fix>3d</fix>
</trkpt>
<trkpt lat="33.8104235" lon="-118.3944962">
  <ele>-24.41</ele>
  <time>2026-09-01T01:14:27Z</time>
  <course>165.28</course>
  <speed>1.0</speed>
  <fix>3d</fix>
</trkpt>
<trkpt lat="33.8104204" lon="-118.3944955">
  <ele>-25.015</ele>
  <time>2026-09-01T01:14:27Z</time>
  <course>255.6</course>
  <speed>1.0141498903022177</speed>
  <fix>3d</fix>
</trkpt>
<trkpt lat="33.8104218" lon="-118.3944956">
  <ele>-24.41</ele>
  <time>2026-09-01T01:14:27Z</time>
  <course>165.49</course>
  <speed>1.0</speed>
  <fix>3d</fix>
</trkpt>
<trkpt lat="33.8104195" lon="-118.3944952">
  <ele>-25.016</ele>
  <time>2026-09-01T01:14:27Z</time>
  <course>255.71</course>
  <speed>1.0141498903022177</speed>
  <fix>3d</fix>
</trkpt>
<trkpt lat="33.8104218" lon="-118.3944956">
  <ele>-24.41</ele>
  <time>2026-09-01T01:14:27Z</time>
  <course>165.49</course>
  <speed>1.0</speed>
  <fix>3d</fix>
</trkpt>
<trkpt lat="33.8104187" lon="-118.394495">
  <ele>-25.018</ele>
  <time>2026-09-01T01:14:27Z</time>
  <course>255.82</course>
  <speed>1.0141498903022177</speed>
  <fix>3d</fix>
</trkpt>
<trkpt lat="33.8104201" lon="-118.3944951">
  <ele>-24.42</ele>
  <time>2026-09-01T01:14:27Z</time>
  <course>165.69</course>
  <speed>1.0</speed>
  <fix>3d</fix>
</trkpt>
<trkpt lat="33.8104178" lon="-118.3944947">
  <ele>-25.019</ele>
  <time>2026-09-01T01:14:27Z</time>
  <course>255.94</course>
  <speed>1.0141498903022177</speed>
  <fix>3d</fix>
</trkpt>
<trkpt lat="33.8104201" lon="-118.3944951">
  <ele>-24.42</ele>
  <time>2026-09-01T01:14:27Z</time>
  <course>165.69</course>
  <speed>1.0</speed>
  <fix>3d</fix>
</trkpt>
<trkpt lat="33.8104169" lon="-118.3944944">
  <ele>-25.019</ele>
  <time>2026-09-01T01:14:27Z</time>
  <course>256.05</course>
  <speed>1.0141498903022177</speed>
  <fix>3d</fix>
</trkpt>
<trkpt lat="33.8104184" lon="-118.3944945">
  <ele>-24.41</ele>
  <time>2026-09-01T01:14:27Z</time>
  <course>165.93</course>
  <speed>0.99</speed>
  <fix>3d</fix>
</trkpt>
<trkpt lat="33.810416" lon="-118.3944942">
  <ele>-25.019</ele>
  <time>2026-09-01T01:14:27Z</time>
  <course>256.16</course>
  <speed>1.0218121158021176</speed>
  <fix>3d</fix>
</trkpt>
<trkpt lat="33.8104184" lon="-118.3944945">
  <ele>-24.41</ele>
  <time>2026-09-01T01:14:27Z</time>
  <course>165.93</course>
  <speed>0.99</speed>
  <fix>3d</fix>
</trkpt>
<trkpt lat="33.8104152" lon="-118.3944939">
  <ele>-25.019</ele>
  <time>2026-09-01T01:14:27Z</time>
  <course>256.28</course>
  <speed>1.0218121158021176</speed>
  <fix>3d</fix>
</trkpt>
<trkpt lat="33.8104166" lon="-118.394494">
  <ele>-24.41</ele>
  <time>2026-09-01T01:14:27Z</time>
  <course>166.21</course>
  <speed>0.99</speed>
  <fix>3d</fix>
</trkpt>
<trkpt lat="33.8104143" lon="-118.3944937">
  <ele>-25.017</ele>
  <time>2026-09-01T01:14:27Z</time>
  <course>256.39</course>
  <speed>1.0218121158021176</speed>
  <fix>3d</fix>
</trkpt>
<trkpt lat="33.8104166" lon="-118.394494">
  <ele>-24.41</ele>
  <time>2026-09-01T01:14:27Z</time>
  <course>166.21</course>
  <speed>0.99</speed>
  <fix>3d</fix>
</trkpt>
<trkpt lat="33.8104134" lon="-118.3944934">
  <ele>-25.015</ele>
  <time>2026-09-01T01:14:27Z</time>
  <course>256.51</course>
  <speed>1.0218121158021176</speed>
  <fix>3d</fix>
</trkpt>
<trkpt lat="33.8104149" lon="-118.3944935">
  <ele>-24.41</ele>
  <time>2026-09-01T01:14:27Z</time>
  <course>166.51</course>
  <speed>1.0</speed>
  <fix>3d</fix>
</trkpt>
<trkpt lat="33.8104125" lon="-118.3944932">
  <ele>-25.013</ele>
  <time>2026-09-01T01:14:27Z</time>
  <course>256.62</course>
  <speed>1.019803902718557</speed>
  <fix>3d</fix>
</trkpt>
<trkpt lat="33.8104149" lon="-118.3944935">
  <ele>-24.41</ele>
  <time>2026-09-01T01:14:27Z</time>
  <course>166.51</course>
  <speed>1.0</speed>
  <fix>3d</fix>
</trkpt>
<trkpt lat="33.8104117" lon="-118.3944929">
  <ele>-25.011</ele>
  <time>2026-09-01T01:14:27Z</time>
  <course>256.73</course>
  <speed>1.019803902718557</speed>
  <fix>3d</fix>
</trkpt>
<trkpt lat="33.8104131" lon="-118.394493">
  <ele>-24.41</ele>
  <time>2026-09-01T01:14:27Z</time>
  <course>166.82</course>
  <speed>1.0</speed>
  <fix>3d</fix>
</trkpt>
<trkpt lat="33.8104108" lon="-118.3944927">
  <ele>-25.01</ele>
  <time>2026-09-01T01:14:27Z</time>
  <course>256.85</course>
  <speed>1.019803902718557</speed>
  <fix>3d</fix>
</trkpt>
<trkpt lat="33.8104131" lon="-118.394493">
  <ele>-24.41</ele>
  <time>2026-09-01T01:14:27Z</time>
  <course>166.82</course>
  <speed>1.0</speed>
  <fix>3d</fix>
</trkpt>
<trkpt lat="33.8104099" lon="-118.3944924">
  <ele>-25.009</ele>
  <time>2026-09-01T01:14:27Z</time>
  <course>256.96</course>
  <speed>1.019803902718557</speed>
  <fix>3d</fix>
</trkpt>
<trkpt lat="33.8104113" lon="-118.3944925">
  <ele>-24.4</ele>
  <time>2026-09-01T01:14:27Z</time>
  <course>167.1</course>
  <speed>1.0</speed>
  <fix>3d</fix>
</trkpt>
<trkpt lat="33.810409" lon="-118.3944922">
  <ele>-25.009</ele>
  <time>2026-09-01T01:14:27Z</time>
  <course>257.08</course>
  <speed>1.0178899744078433</speed>
  <fix>3d</fix>
</trkpt>
<trkpt lat="33.8104113" lon="-118.3944925">
  <ele>-24.4</ele>
  <time>2026-09-01T01:14:27Z</time>
  <course>167.1</course>
  <speed>1.0</speed>
  <fix>3d</fix>
</trkpt>
<trkpt lat="33.8104082" lon="-118.394492">
  <ele>-25.011</ele>
  <time>2026-09-01T01:14:27Z</time>
  <course>257.2</course>
  <speed>1.0178899744078433</speed>
  <fix>3d</fix>
</trkpt>
<trkpt lat="33.8104096" lon="-118.394492">
  <ele>-24.4</ele>
  <time>2026-09-01T01:14:27Z</time>
  <course>167.33</course>
  <speed>1.0</speed>
  <fix>3d</fix>
</trkpt>
<trkpt lat="33.8104073" lon="-118.3944917">
  <ele>-25.013</ele>
  <time>2026-09-01T01:14:27Z</time>
  <course>257.31</course>
  <speed>1.0178899744078433</speed>
  <fix>3d</fix>
</trkpt>
<trkpt lat="33.8104096" lon="-118.394492">
  <ele>-24.4</ele>
  <time>2026-09-01T01:14:27Z</time>
  <course>167.33</course>
  <speed>1.0</speed>
  <fix>3d</fix>
</trkpt>
<trkpt lat="33.8104064" lon="-118.3944915">
  <ele>-25.015</ele>
  <time>2026-09-01T01:14:27Z</time>
  <course>257.43</course>
  <speed>1.0178899744078433</speed>
  <fix>3d</fix>
</trkpt>
<trkpt lat="33.8104079" lon="-118.3944916">
  <ele>-24.41</ele>
  <time>2026-09-01T01:14:27Z</time>
  <course>167.57</course>
  <speed>1.0</speed>
  <fix>3d</fix>
</trkpt>
<trkpt lat="33.8104055" lon="-118.3944913">
  <ele>-25.016</ele>
  <time>2026-09-01T01:14:27Z</time>
  <course>257.54</course>
  <speed>1.0178899744078433</speed>
  <fix>3d</fix>
</trkpt>
<trkpt lat="33.8104079" lon="-118.3944916">
  <ele>-24.41</ele>
  <time>2026-09-01T01:14:27Z</time>
  <course>167.57</course>
  <speed>1.0</speed>
  <fix>3d</fix>
</trkpt>
<trkpt lat="33.8104047" lon="-118.394491">
  <ele>-25.017</ele>
  <time>2026-09-01T01:14:27Z</time>
  <course>257.66</course>
  <speed>1.0178899744078433</speed>
  <fix>3d</fix>
</trkpt>
<trkpt lat="33.8104061" lon="-118.3944911">
  <ele>-24.41</ele>
  <time>2026-09-01T01:14:27Z</time>
  <course>167.79</course>
  <speed>1.0</speed>
  <fix>3d</fix>
</trkpt>
<trkpt lat="33.8104038" lon="-118.3944908">
  <ele>-25.017</ele>
  <time>2026-09-01T01:14:27Z</time>
  <course>257.77</course>
  <speed>1.016070863670443</speed>
  <fix>3d</fix>
</trkpt>
<trkpt lat="33.8104061" lon="-118.3944911">
  <ele>-24.41</ele>
  <time>2026-09-01T01:14:27Z</time>
  <course>167.79</course>
  <speed>1.0</speed>
  <fix>3d</fix>
</trkpt>
<trkpt lat="33.8104029" lon="-118.3944906">
  <ele>-25.018</ele>
  <time>2026-09-01T01:14:27Z</time>
  <course>257.88</course>
  <speed>1.016070863670443</speed>
  <fix>3d</fix>
</trkpt>
<trkpt lat="33.8104043" lon="-118.3944907">
  <ele>-24.41</ele>
  <time>2026-09-01T01:14:27Z</time>
  <course>168.01</course>
  <speed>1.0</speed>
  <fix>3d</fix>
</trkpt>
<trkpt lat="33.810402" lon="-118.3944904">
  <ele>-25.018</ele>
  <time>2026-09-01T01:14:27Z</time>
  <course>258.0</course>
  <speed>1.016070863670443</speed>
  <fix>3d</fix>
</trkpt>
<trkpt lat="33.8104043" lon="-118.3944907">
  <ele>-24.41</ele>
  <time>2026-09-01T01:14:27Z</time>
  <course>168.01</course>
  <speed>1.0</speed>
  <fix>3d</fix>
</trkpt>
<trkpt lat="33.8104011" lon="-118.3944901">
  <ele>-25.018</ele>
  <time>2026-09-01T01:14:27Z</time>
  <course>258.11</course>
  <speed>1.016070863670443</speed>
  <fix>3d</fix>
</trkpt>
<trkpt lat="33.8104026" lon="-118.3944902">
  <ele>-24.41</ele>
  <time>2026-09-01T01:14:27Z</time>
  <course>168.2</course>
  <speed>1.0</speed>
  <fix>3d</fix>
</trkpt>
<trkpt lat="33.8104003" lon="-118.3944899">
  <ele>-25.018</ele>
  <time>2026-09-01T01:14:27Z</time>
  <course>258.23</course>
  <speed>1.016070863670443</speed>
  <fix>3d</fix>
</trkpt>
<trkpt lat="33.8104026" lon="-118.3944902">
  <ele>-24.41</ele>
  <time>2026-09-01T01:14:27Z</time>
  <course>168.2</course>
  <speed>1.0</speed>
  <fix>3d</fix>
</trkpt>
<trkpt lat="33.8103994" lon="-118.3944897">
  <ele>-25.018</ele>
  <time>2026-09-01T01:14:27Z</time>
  <course>258.34</course>
  <speed>1.016070863670443</speed>
  <fix>3d</fix>
</trkpt>
<trkpt lat="33.8104008" lon="-118.3944898">
  <ele>-24.41</ele>
  <time>2026-09-01T01:14:27Z</time>
  <course>168.38</course>
  <speed>1.0</speed>
  <fix>3d</fix>
</trkpt>
<trkpt lat="33.8103985" lon="-118.3944895">
  <ele>-25.017</ele>
  <time>2026-09-01T01:14:27Z</time>
  <course>258.46</course>
  <speed>1.014347080638575</speed>
  <fix>3d</fix>
</trkpt>
<trkpt lat="33.8104008" lon="-118.3944898">
  <ele>-24.41</ele>
  <time>2026-09-01T01:14:27Z</time>
  <course>168.38</course>
  <speed>1.0</speed>
  <fix>3d</fix>
</trkpt>
<trkpt lat="33.8103976" lon="-118.3944893">
  <ele>-25.015</ele>
  <time>2026-09-01T01:14:27Z</time>
  <course>258.57</course>
  <speed>1.0242070103255494</speed>
  <fix>3d</fix>
</trkpt>
<trkpt lat="33.8103991" lon="-118.3944894">
  <ele>-24.4</ele>
  <time>2026-09-01T01:14:27Z</time>
  <course>168.58</course>
  <speed>1.0</speed>
  <fix>3d</fix>
</trkpt>
<trkpt lat="33.8103967" lon="-118.3944891">
  <ele>-25.013</ele>
  <time>2026-09-01T01:14:27Z</time>
  <course>258.69</course>
  <speed>1.0242070103255494</speed>
  <fix>3d</fix>
</trkpt>
<trkpt lat="33.8103991" lon="-118.3944894">
  <ele>-24.4</ele>
  <time>2026-09-01T01:14:27Z</time>
  <course>168.58</course>
  <speed>1.0</speed>
  <fix>3d</fix>
</trkpt>
<trkpt lat="33.8103958" lon="-118.3944889">
  <ele>-25.012</ele>
  <time>2026-09-01T01:14:27Z</time>
  <course>258.8</course>
  <speed>1.0242070103255494</speed>
  <fix>3d</fix>
</trkpt>
<trkpt lat="33.8103973" lon="-118.3944889">
  <ele>-24.4</ele>
  <time>2026-09-01T01:14:27Z</time>
  <course>168.77</course>
  <speed>1.0</speed>
  <fix>3d</fix>
</trkpt>
<trkpt lat="33.810395" lon="-118.3944887">
  <ele>-25.01</ele>
  <time>2026-09-01T01:14:27Z</time>
  <course>258.92</course>
  <speed>1.0242070103255494</speed>
  <fix>3d</fix>
</trkpt>
<trkpt lat="33.8103973" lon="-118.3944889">
  <ele>-24.4</ele>
  <time>2026-09-01T01:14:27Z</time>
  <course>168.77</course>
  <speed>1.0</speed>
  <fix>3d</fix>
</trkpt>
<trkpt lat="33.8103941" lon="-118.3944885">
  <ele>-25.008</ele>
  <time>2026-09-01T01:14:27Z</time>
  <course>259.03</course>
  <speed>1.0225947388873073</speed>
  <fix>3d</fix>
</trkpt>
<trkpt lat="33.8103955" lon="-118.3944885">
  <ele>-24.4</ele>
  <time>2026-09-01T01:14:27Z</time>
  <course>168.98</course>
  <speed>1.0</speed>
  <fix>3d</fix>
</trkpt>
<trkpt lat="33.8103932" lon="-118.3944883">
  <ele>-25.008</ele>
  <time>2026-09-01T01:14:27Z</time>
  <course>259.15</course>
  <speed>1.0225947388873073</speed>
  <fix>3d</fix>
</trkpt>
<trkpt lat="33.8103955" lon="-118.3944885">
  <ele>-24.4</ele>
  <time>2026-09-01T01:14:27Z</time>
  <course>168.98</course>
  <speed>1.0</speed>
  <fix>3d</fix>
</trkpt>
<trkpt lat="33.8103923" lon="-118.3944881">
  <ele>-25.009</ele>
  <time>2026-09-01T01:14:27Z</time>
  <course>259.26</course>
  <speed>1.0225947388873073</speed>
  <fix>3d</fix>
</trkpt>
<trkpt lat="33.8103938" lon="-118.3944881">
  <ele>-24.4</ele>
  <time>2026-09-01T01:14:27Z</time>
  <course>169.23</course>
  <speed>1.0</speed>
  <fix>3d</fix>
</trkpt>
<trkpt lat="33.8103914" lon="-118.3944879">
  <ele>-25.009</ele>
  <time>2026-09-01T01:14:27Z</time>
  <course>259.37</course>
  <speed>1.0225947388873073</speed>
  <fix>3d</fix>
</trkpt>
<trkpt lat="33.8103938" lon="-118.3944881">
  <ele>-24.4</ele>
  <time>2026-09-01T01:14:27Z</time>
  <course>169.23</course>
  <speed>1.0</speed>
  <fix>3d</fix>
</trkpt>
<trkpt lat="33.8103905" lon="-118.3944877">
  <ele>-25.011</ele>
  <time>2026-09-01T01:14:27Z</time>
  <course>259.49</course>
  <speed>1.0225947388873073</speed>
  <fix>3d</fix>
</trkpt>
<trkpt lat="33.8103919" lon="-118.3944877">
  <ele>-24.4</ele>
  <time>2026-09-01T01:14:27Z</time>
  <course>169.47</course>
  <speed>1.0</speed>
  <fix>3d</fix>
</trkpt>
<trkpt lat="33.8103896" lon="-118.3944875">
  <ele>-25.012</ele>
  <time>2026-09-01T01:14:27Z</time>
  <course>259.6</course>
  <speed>1.021077861869505</speed>
  <fix>3d</fix>
</trkpt>
<trkpt lat="33.8103919" lon="-118.3944877">
  <ele>-24.4</ele>
  <time>2026-09-01T01:14:27Z</time>
  <course>169.47</course>
  <speed>1.0</speed>
  <fix>3d</fix>
</trkpt>
<trkpt lat="33.8103888" lon="-118.3944873">
  <ele>-25.014</ele>
  <time>2026-09-01T01:14:27Z</time>
  <course>259.72</course>
  <speed>1.021077861869505</speed>
  <fix>3d</fix>
</trkpt>
<trkpt lat="33.8103902" lon="-118.3944873">
  <ele>-24.4</ele>
  <time>2026-09-01T01:14:27Z</time>
  <course>169.71</course>
  <speed>1.0</speed>
  <fix>3d</fix>
</trkpt>
<trkpt lat="33.8103879" lon="-118.3944871">
  <ele>-25.014</ele>
  <time>2026-09-01T01:14:27Z</time>
  <course>259.83</course>
  <speed>1.021077861869505</speed>
  <fix>3d</fix>
</trkpt>
<trkpt lat="33.8103902" lon="-118.3944873">
  <ele>-24.4</ele>
  <time>2026-09-01T01:14:27Z</time>
  <course>169.71</course>
  <speed>1.0</speed>
  <fix>3d</fix>
</trkpt>
<trkpt lat="33.810387" lon="-118.3944869">
  <ele>-25.014</ele>
  <time>2026-09-01T01:14:27Z</time>
  <course>259.95</course>
  <speed>1.021077861869505</speed>
  <fix>3d</fix>
</trkpt>
<trkpt lat="33.8103885" lon="-118.3944869">
  <ele>-24.4</ele>
  <time>2026-09-01T01:14:27Z</time>
  <course>169.92</course>
  <speed>1.0</speed>
  <fix>3d</fix>
</trkpt>
<trkpt lat="33.8103861" lon="-118.3944867">
  <ele>-25.015</ele>
  <time>2026-09-01T01:14:27Z</time>
  <course>260.06</course>
  <speed>1.021077861869505</speed>
  <fix>3d</fix>
</trkpt>
<trkpt lat="33.8103885" lon="-118.3944869">
  <ele>-24.4</ele>
  <time>2026-09-01T01:14:27Z</time>
  <course>169.92</course>
  <speed>1.0</speed>
  <fix>3d</fix>
</trkpt>
<trkpt lat="33.8103852" lon="-118.3944865">
  <ele>-25.016</ele>
  <time>2026-09-01T01:14:27Z</time>
  <course>260.18</course>
  <speed>1.0196568050084303</speed>
  <fix>3d</fix>
</trkpt>
<trkpt lat="33.8103866" lon="-118.3944866">
  <ele>-24.41</ele>
  <time>2026-09-01T01:14:27Z</time>
  <course>170.16</course>
  <speed>1.0</speed>
  <fix>3d</fix>
</trkpt>
<trkpt lat="33.8103843" lon="-118.3944864">
  <ele>-25.016</ele>
  <time>2026-09-01T01:14:27Z</time>
  <course>260.29</course>
  <speed>1.0196568050084303</speed>
  <fix>3d</fix>
</trkpt>
<trkpt lat="33.8103866" lon="-118.3944866">
  <ele>-24.41</ele>
  <time>2026-09-01T01:14:27Z</time>
  <course>170.16</course>
  <speed>1.0</speed>
  <fix>3d</fix>
</trkpt>
<trkpt lat="33.8103834" lon="-118.3944862">
  <ele>-25.016</ele>
  <time>2026-09-01T01:14:27Z</time>
  <course>260.41</course>
  <speed>1.0196568050084303</speed>
  <fix>3d</fix>
</trkpt>
<trkpt lat="33.8103849" lon="-118.3944862">
  <ele>-24.41</ele>
  <time>2026-09-01T01:14:27Z</time>
  <course>170.38</course>
  <speed>1.0</speed>
  <fix>3d</fix>
</trkpt>
<trkpt lat="33.8103826" lon="-118.394486">
  <ele>-25.016</ele>
  <time>2026-09-01T01:14:27Z</time>
  <course>260.52</course>
  <speed>1.0196568050084303</speed>
  <fix>3d</fix>
</trkpt>
<trkpt lat="33.8103849" lon="-118.3944862">
  <ele>-24.41</ele>
  <time>2026-09-01T01:14:27Z</time>
  <course>170.38</course>
  <speed>1.0</speed>
  <fix>3d</fix>
</trkpt>
<trkpt lat="33.8103817" lon="-118.3944858">
  <ele>-25.015</ele>
  <time>2026-09-01T01:14:27Z</time>
  <course>260.63</course>
  <speed>1.0196568050084303</speed>
  <fix>3d</fix>
</trkpt>
<trkpt lat="33.8103831" lon="-118.3944858">
  <ele>-24.4</ele>
  <time>2026-09-01T01:14:27Z</time>
  <course>170.57</course>
  <speed>0.99</speed>
  <fix>3d</fix>
</trkpt>
<trkpt lat="33.8103808" lon="-118.3944857">
  <ele>-25.014</ele>
  <time>2026-09-01T01:14:27Z</time>
  <course>260.75</course>
  <speed>1.0183319694480775</speed>
  <fix>3d</fix>
</trkpt>
<trkpt lat="33.8103831" lon="-118.3944858">
  <ele>-24.4</ele>
  <time>2026-09-01T01:14:27Z</time>
  <course>170.57</course>
  <speed>0.99</speed>
  <fix>3d</fix>
</trkpt>
<trkpt lat="33.8103799" lon="-118.3944855">
  <ele>-25.013</ele>
  <time>2026-09-01T01:14:27Z</time>
  <course>260.86</course>
  <speed>1.0183319694480775</speed>
  <fix>3d</fix>
</trkpt>
<trkpt lat="33.8103814" lon="-118.3944855">
  <ele>-24.4</ele>
  <time>2026-09-01T01:14:27Z</time>
  <course>170.8</course>
  <speed>0.99</speed>
  <fix>3d</fix>
</trkpt>
<trkpt lat="33.810379" lon="-118.3944853">
  <ele>-25.011</ele>
  <time>2026-09-01T01:14:27Z</time>
  <course>260.98</course>
  <speed>1.0183319694480775</speed>
  <fix>3d</fix>
</trkpt>
<trkpt lat="33.8103814" lon="-118.3944855">
  <ele>-24.4</ele>
  <time>2026-09-01T01:14:27Z</time>
  <course>170.8</course>
  <speed>0.99</speed>
  <fix>3d</fix>
</trkpt>
<trkpt lat="33.8103781" lon="-118.3944852">
  <ele>-25.01</ele>
  <time>2026-09-01T01:14:27Z</time>
  <course>261.09</course>
  <speed>1.0183319694480775</speed>
  <fix>3d</fix>
</trkpt>
<trkpt lat="33.8103796" lon="-118.3944851">
  <ele>-24.4</ele>
  <time>2026-09-01T01:14:27Z</time>
  <course>171.05</course>
  <speed>0.99</speed>
  <fix>3d</fix>
</trkpt>
<trkpt lat="33.8103772" lon="-118.394485">
  <ele>-25.008</ele>
  <time>2026-09-01T01:14:27Z</time>
  <course>261.2</course>
  <speed>1.0171037311896953</speed>
  <fix>3d</fix>
</trkpt>
<trkpt lat="33.8103796" lon="-118.3944851">
  <ele>-24.4</ele>
  <time>2026-09-01T01:14:27Z</time>
  <course>171.05</course>
  <speed>0.99</speed>
  <fix>3d</fix>
</trkpt>
<trkpt lat="33.8103763" lon="-118.3944848">
  <ele>-25.008</ele>
  <time>2026-09-01T01:14:27Z</time>
  <course>261.32</course>
  <speed>1.0171037311896953</speed>
  <fix>3d</fix>
</trkpt>
<trkpt lat="33.8103778" lon="-118.3944848">
  <ele>-24.4</ele>
  <time>2026-09-01T01:14:27Z</time>
  <course>171.31</course>
  <speed>1.0</speed>
  <fix>3d</fix>
</trkpt>
<trkpt lat="33.8103755" lon="-118.3944847">
  <ele>-25.008</ele>
  <time>2026-09-01T01:14:27Z</time>
  <course>261.44</course>
  <speed>1.0171037311896953</speed>
  <fix>3d</fix>
</trkpt>
<trkpt lat="33.8103778" lon="-118.3944848">
  <ele>-24.4</ele>
  <time>2026-09-01T01:14:27Z</time>
  <course>171.31</course>
  <speed>1.0</speed>
  <fix>3d</fix>
</trkpt>
<trkpt lat="33.8103746" lon="-118.3944845">
  <ele>-25.009</ele>
  <time>2026-09-01T01:14:27Z</time>
  <course>261.55</course>
  <speed>1.0171037311896953</speed>
  <fix>3d</fix>
</trkpt>
<trkpt lat="33.810376" lon="-118.3944845">
  <ele>-24.4</ele>
  <time>2026-09-01T01:14:27Z</time>
  <course>171.58</course>
  <speed>1.0</speed>
  <fix>3d</fix>
</trkpt>
<trkpt lat="33.8103737" lon="-118.3944844">
  <ele>-25.011</ele>
  <time>2026-09-01T01:14:27Z</time>
  <course>261.67</course>
  <speed>1.0270345661174214</speed>
  <fix>3d</fix>
</trkpt>
<trkpt lat="33.810376" lon="-118.3944845">
  <ele>-24.4</ele>
  <time>2026-09-01T01:14:27Z</time>
  <course>171.58</course>
  <speed>1.0</speed>
  <fix>3d</fix>
</trkpt>
<trkpt lat="33.8103728" lon="-118.3944842">
  <ele>-25.014</ele>
  <time>2026-09-01T01:14:27Z</time>
  <course>261.78</course>
  <speed>1.0259142264341596</speed>
  <fix>3d</fix>
</trkpt>
<trkpt lat="33.8103742" lon="-118.3944841">
  <ele>-24.41</ele>
  <time>2026-09-01T01:14:27Z</time>
  <course>171.81</course>
  <speed>1.0</speed>
  <fix>3d</fix>
</trkpt>
<trkpt lat="33.8103719" lon="-118.3944841">
  <ele>-25.017</ele>
  <time>2026-09-01T01:14:27Z</time>
  <course>261.9</course>
  <speed>1.0259142264341596</speed>
  <fix>3d</fix>
</trkpt>
<trkpt lat="33.8103742" lon="-118.3944841">
  <ele>-24.41</ele>
  <time>2026-09-01T01:14:27Z</time>
  <course>171.81</course>
  <speed>1.0</speed>
  <fix>3d</fix>
</trkpt>
<trkpt lat="33.810371" lon="-118.3944839">
  <ele>-25.018</ele>
  <time>2026-09-01T01:14:27Z</time>
  <course>262.01</course>
  <speed>1.0259142264341596</speed>
  <fix>3d</fix>
</trkpt>
<trkpt lat="33.8103725" lon="-118.3944838">
  <ele>-24.41</ele>
  <time>2026-09-01T01:14:27Z</time>
  <course>172.06</course>
  <speed>1.0</speed>
  <fix>3d</fix>
</trkpt>
<trkpt lat="33.8103701" lon="-118.3944838">
  <ele>-25.019</ele>
  <time>2026-09-01T01:14:27Z</time>
  <course>262.12</course>
  <speed>1.0259142264341596</speed>
  <fix>3d</fix>
</trkpt>
<trkpt lat="33.8103725" lon="-118.3944838">
  <ele>-24.41</ele>
  <time>2026-09-01T01:14:27Z</time>
  <course>172.06</course>
  <speed>1.0</speed>
  <fix>3d</fix>
</trkpt>
<trkpt lat="33.8103692" lon="-118.3944836">
  <ele>-25.02</ele>
  <time>2026-09-01T01:14:27Z</time>
  <course>262.24</course>
  <speed>1.0248902380255165</speed>
  <fix>3d</fix>
</trkpt>
<trkpt lat="33.8103706" lon="-118.3944835">
  <ele>-24.41</ele>
  <time>2026-09-01T01:14:27Z</time>
  <course>172.35</course>
  <speed>1.0</speed>
  <fix>3d</fix>
</trkpt>
<trkpt lat="33.8103683" lon="-118.3944835">
  <ele>-25.02</ele>
  <time>2026-09-01T01:14:27Z</time>
  <course>262.35</course>
  <speed>1.0248902380255165</speed>
  <fix>3d</fix>
</trkpt>
<trkpt lat="33.8103706" lon="-118.3944835">
  <ele>-24.41</ele>
  <time>2026-09-01T01:14:27Z</time>
  <course>172.35</course>
  <speed>1.0</speed>
  <fix>3d</fix>
</trkpt>
<trkpt lat="33.8103675" lon="-118.3944833">
  <ele>-25.019</ele>
  <time>2026-09-01T01:14:27Z</time>
  <course>262.47</course>
  <speed>1.0248902380255165</speed>
  <fix>3d</fix>
</trkpt>
<trkpt lat="33.8103689" lon="-118.3944833">
  <ele>-24.41</ele>
  <time>2026-09-01T01:14:27Z</time>
  <course>172.62</course>
  <speed>1.0</speed>
  <fix>3d</fix>
</trkpt>
<trkpt lat="33.8103666" lon="-118.3944832">
  <ele>-25.017</ele>
  <time>2026-09-01T01:14:27Z</time>
  <course>262.58</course>
  <speed>1.0248902380255165</speed>
  <fix>3d</fix>
</trkpt>
<trkpt lat="33.8103689" lon="-118.3944833">
  <ele>-24.41</ele>
  <time>2026-09-01T01:14:27Z</time>
  <course>172.62</course>
  <speed>1.0</speed>
  <fix>3d</fix>
</trkpt>
<trkpt lat="33.8103657" lon="-118.3944831">
  <ele>-25.015</ele>
  <time>2026-09-01T01:14:27Z</time>
  <course>262.7</course>
  <speed>1.0248902380255165</speed>
  <fix>3d</fix>
</trkpt>
<trkpt lat="33.810367" lon="-118.394483">
  <ele>-24.41</ele>
  <time>2026-09-01T01:14:27Z</time>
  <course>172.85</course>
  <speed>1.0</speed>
  <fix>3d</fix>
</trkpt>
<trkpt lat="33.8103648" lon="-118.3944829">
  <ele>-25.013</ele>
  <time>2026-09-01T01:14:27Z</time>
  <course>262.81</course>
  <speed>1.0248902380255165</speed>
  <fix>3d</fix>
</trkpt>
<trkpt lat="33.810367" lon="-118.394483">
  <ele>-24.41</ele>
  <time>2026-09-01T01:14:27Z</time>
  <course>172.85</course>
  <speed>1.0</speed>
  <fix>3d</fix>
</trkpt>
<trkpt lat="33.8103639" lon="-118.3944828">
  <ele>-25.011</ele>
  <time>2026-09-01T01:14:27Z</time>
  <course>262.93</course>
  <speed>1.0239628899525608</speed>
  <fix>3d</fix>
</trkpt>
<trkpt lat="33.8103653" lon="-118.3944827">
  <ele>-24.4</ele>
  <time>2026-09-01T01:14:27Z</time>
  <course>173.05</course>
  <speed>1.0</speed>
  <fix>3d</fix>
</trkpt>
<trkpt lat="33.810363" lon="-118.3944827">
  <ele>-25.01</ele>
  <time>2026-09-01T01:14:27Z</time>
  <course>263.04</course>
  <speed>1.0239628899525608</speed>
  <fix>3d</fix>
</trkpt>
<trkpt lat="33.8103653" lon="-118.3944827">
  <ele>-24.4</ele>
  <time>2026-09-01T01:14:27Z</time>
  <course>173.05</course>
  <speed>1.0</speed>
  <fix>3d</fix>
</trkpt>
<trkpt lat="33.8103621" lon="-118.3944826">
  <ele>-25.008</ele>
  <time>2026-09-01T01:14:27Z</time>
  <course>263.15</course>
  <speed>1.0239628899525608</speed>
  <fix>3d</fix>
</trkpt>
<trkpt lat="33.8103634" lon="-118.3944825">
  <ele>-24.4</ele>
  <time>2026-09-01T01:14:27Z</time>
  <course>173.23</course>
  <speed>1.0</speed>
  <fix>3d</fix>
</trkpt>
<trkpt lat="33.8103612" lon="-118.3944824">
  <ele>-25.008</ele>
  <time>2026-09-01T01:14:27Z</time>
  <course>263.27</course>
  <speed>1.0239628899525608</speed>
  <fix>3d</fix>
</trkpt>
<trkpt lat="33.8103634" lon="-118.3944825">
  <ele>-24.4</ele>
  <time>2026-09-01T01:14:27Z</time>
  <course>173.23</course>
  <speed>1.0</speed>
  <fix>3d</fix>
</trkpt>
<trkpt lat="33.8103603" lon="-118.3944823">
  <ele>-25.007</ele>
  <time>2026-09-01T01:14:27Z</time>
  <course>263.39</course>
  <speed>1.0239628899525608</speed>
  <fix>3d</fix>
</trkpt>
<trkpt lat="33.8103617" lon="-118.3944822">
  <ele>-24.4</ele>
  <time>2026-09-01T01:14:27Z</time>
  <course>173.43</course>
  <speed>1.0</speed>
  <fix>3d</fix>
</trkpt>
<trkpt lat="33.8103594" lon="-118.3944822">
  <ele>-25.009</ele>
  <time>2026-09-01T01:14:27Z</time>
  <course>263.5</course>
  <speed>1.0231324449942931</speed>
  <fix>3d</fix>
</trkpt>
<trkpt lat="33.8103617" lon="-118.3944822">
  <ele>-24.4</ele>
  <time>2026-09-01T01:14:27Z</time>
  <course>173.43</course>
  <speed>1.0</speed>
  <fix>3d</fix>
</trkpt>
<trkpt lat="33.8103585" lon="-118.3944821">
  <ele>-25.011</ele>
  <time>2026-09-01T01:14:27Z</time>
  <course>263.62</course>
  <speed>1.0231324449942931</speed>
  <fix>3d</fix>
</trkpt>
<trkpt lat="33.8103598" lon="-118.3944819">
  <ele>-24.41</ele>
  <time>2026-09-01T01:14:27Z</time>
  <course>173.64</course>
  <speed>1.0</speed>
  <fix>3d</fix>
</trkpt>
<trkpt lat="33.8103576" lon="-118.394482">
  <ele>-25.014</ele>
  <time>2026-09-01T01:14:27Z</time>
  <course>263.73</course>
  <speed>1.0231324449942931</speed>
  <fix>3d</fix>
</trkpt>
<trkpt lat="33.8103598" lon="-118.3944819">
  <ele>-24.41</ele>
  <time>2026-09-01T01:14:27Z</time>
  <course>173.64</course>
  <speed>1.0</speed>
  <fix>3d</fix>
</trkpt>
<trkpt lat="33.8103567" lon="-118.3944818">
  <ele>-25.015</ele>
  <time>2026-09-01T01:14:27Z</time>
  <course>263.84</course>
  <speed>1.0131633629380803</speed>
  <fix>3d</fix>
</trkpt>
<trkpt lat="33.8103581" lon="-118.3944818">
  <ele>-24.41</ele>
  <time>2026-09-01T01:14:27Z</time>
  <course>173.88</course>
  <speed>1.0</speed>
  <fix>3d</fix>
</trkpt>
<trkpt lat="33.8103558" lon="-118.3944817">
  <ele>-25.015</ele>
  <time>2026-09-01T01:14:27Z</time>
  <course>263.96</course>
  <speed>1.0231324449942931</speed>
  <fix>3d</fix>
</trkpt>
<trkpt lat="33.8103581" lon="-118.3944818">
  <ele>-24.41</ele>
  <time>2026-09-01T01:14:27Z</time>
  <course>173.88</course>
  <speed>1.0</speed>
  <fix>3d</fix>
</trkpt>
<trkpt lat="33.8103549" lon="-118.3944816">
  <ele>-25.015</ele>
  <time>2026-09-01T01:14:27Z</time>
  <course>264.07</course>
  <speed>1.0124228365658294</speed>
  <fix>3d</fix>
</trkpt>
<trkpt lat="33.8103563" lon="-118.3944815">
  <ele>-24.41</ele>
  <time>2026-09-01T01:14:27Z</time>
  <course>174.1</course>
  <speed>1.0</speed>
  <fix>3d</fix>
</trkpt>
<trkpt lat="33.810354" lon="-118.3944815">
  <ele>-25.015</ele>
  <time>2026-09-01T01:14:27Z</time>
  <course>264.19</course>
  <speed>1.022399139279763</speed>
  <fix>3d</fix>
</trkpt>
<trkpt lat="33.8103563" lon="-118.3944815">
  <ele>-24.41</ele>
  <time>2026-09-01T01:14:27Z</time>
  <course>174.1</course>
  <speed>1.0</speed>
  <fix>3d</fix>
</trkpt>
<trkpt lat="33.8103531" lon="-118.3944814">
  <ele>-25.015</ele>
  <time>2026-09-01T01:14:27Z</time>
  <course>264.3</course>
  <speed>1.022399139279763</speed>
  <fix>3d</fix>
</trkpt>
<trkpt lat="33.8103545" lon="-118.3944813">
  <ele>-24.41</ele>
  <time>2026-09-01T01:14:27Z</time>
  <course>174.29</course>
  <speed>1.0</speed>
  <fix>3d</fix>
</trkpt>
<trkpt lat="33.8103522" lon="-118.3944813">
  <ele>-25.014</ele>
  <time>2026-09-01T01:14:27Z</time>
  <course>264.42</course>
  <speed>1.022399139279763</speed>
  <fix>3d</fix>
</trkpt>
<trkpt lat="33.8103545" lon="-118.3944813">
  <ele>-24.41</ele>
  <time>2026-09-01T01:14:27Z</time>
  <course>174.29</course>
  <speed>1.0</speed>
  <fix>3d</fix>
</trkpt>
<trkpt lat="33.8103513" lon="-118.3944812">
  <ele>-25.013</ele>
  <time>2026-09-01T01:14:27Z</time>
  <course>264.53</course>
  <speed>1.022399139279763</speed>
  <fix>3d</fix>
</trkpt>
<trkpt lat="33.8103528" lon="-118.3944811">
  <ele>-24.41</ele>
  <time>2026-09-01T01:14:27Z</time>
  <course>174.5</course>
  <speed>1.0</speed>
  <fix>3d</fix>
</trkpt>
<trkpt lat="33.8103504" lon="-118.3944811">
  <ele>-25.013</ele>
  <time>2026-09-01T01:14:27Z</time>
  <course>264.65</course>
  <speed>1.0217631819555841</speed>
  <fix>3d</fix>
</trkpt>
<trkpt lat="33.8103528" lon="-118.3944811">
  <ele>-24.41</ele>
  <time>2026-09-01T01:14:27Z</time>
  <course>174.5</course>
  <speed>1.0</speed>
  <fix>3d</fix>
</trkpt>
<trkpt lat="33.8103496" lon="-118.394481">
  <ele>-25.014</ele>
  <time>2026-09-01T01:14:27Z</time>
  <course>264.76</course>
  <speed>1.0217631819555841</speed>
  <fix>3d</fix>
</trkpt>
<trkpt lat="33.810351" lon="-118.3944809">
  <ele>-24.41</ele>
  <time>2026-09-01T01:14:27Z</time>
  <course>174.73</course>
  <speed>1.0</speed>
  <fix>3d</fix>
</trkpt>
<trkpt lat="33.8103487" lon="-118.3944809">
  <ele>-25.014</ele>
  <time>2026-09-01T01:14:27Z</time>
  <course>264.88</course>
  <speed>1.0217631819555841</speed>
  <fix>3d</fix>
</trkpt>
<trkpt lat="33.810351" lon="-118.3944809">
  <ele>-24.41</ele>
  <time>2026-09-01T01:14:27Z</time>
  <course>174.73</course>
  <speed>1.0</speed>
  <fix>3d</fix>
</trkpt>
<trkpt lat="33.8103478" lon="-118.3944808">
  <ele>-25.014</ele>
  <time>2026-09-01T01:14:27Z</time>
  <course>264.99</course>
  <speed>1.0217631819555841</speed>
  <fix>3d</fix>
</trkpt>
<trkpt lat="33.8103492" lon="-118.3944807">
  <ele>-24.41</ele>
  <time>2026-09-01T01:14:27Z</time>
  <course>174.96</course>
  <speed>1.0</speed>
  <fix>3d</fix>
</trkpt>
<trkpt lat="33.8103469" lon="-118.3944808">
  <ele>-25.014</ele>
  <time>2026-09-01T01:14:27Z</time>
  <course>265.11</course>
  <speed>1.0217631819555841</speed>
  <fix>3d</fix>
</trkpt>
<trkpt lat="33.8103492" lon="-118.3944807">
  <ele>-24.41</ele>
  <time>2026-09-01T01:14:27Z</time>
  <course>174.96</course>
  <speed>1.0</speed>
  <fix>3d</fix>
</trkpt>
<trkpt lat="33.810346" lon="-118.3944807">
  <ele>-25.014</ele>
  <time>2026-09-01T01:14:27Z</time>
  <course>265.22</course>
  <speed>1.0212247548899311</speed>
  <fix>3d</fix>
</trkpt>
<trkpt lat="33.8103474" lon="-118.3944804">
  <ele>-24.41</ele>
  <time>2026-09-01T01:14:27Z</time>
  <course>175.17</course>
  <speed>1.0</speed>
  <fix>3d</fix>
</trkpt>
<trkpt lat="33.8103451" lon="-118.3944806">
  <ele>-25.015</ele>
  <time>2026-09-01T01:14:27Z</time>
  <course>265.33</course>
  <speed>1.0212247548899311</speed>
  <fix>3d</fix>
</trkpt>
<trkpt lat="33.8103474" lon="-118.3944804">
  <ele>-24.41</ele>
  <time>2026-09-01T01:14:27Z</time>
  <course>175.17</course>
  <speed>1.0</speed>
  <fix>3d</fix>
</trkpt>
<trkpt lat="33.8103442" lon="-118.3944805">
  <ele>-25.016</ele>
  <time>2026-09-01T01:14:27Z</time>
  <course>265.45</course>
  <speed>1.0212247548899311</speed>
  <fix>3d</fix>
</trkpt>
<trkpt lat="33.8103456" lon="-118.3944803">
  <ele>-24.42</ele>
  <time>2026-09-01T01:14:27Z</time>
  <course>175.43</course>
  <speed>1.0</speed>
  <fix>3d</fix>
</trkpt>
<trkpt lat="33.8103433" lon="-118.3944804">
  <ele>-25.016</ele>
  <time>2026-09-01T01:14:27Z</time>
  <course>265.56</course>
  <speed>1.0212247548899311</speed>
  <fix>3d</fix>
</trkpt>
<trkpt lat="33.8103456" lon="-118.3944803">
  <ele>-24.42</ele>
  <time>2026-09-01T01:14:27Z</time>
  <course>175.43</course>
  <speed>1.0</speed>
  <fix>3d</fix>
</trkpt>
<trkpt lat="33.8103424" lon="-118.3944803">
  <ele>-25.017</ele>
  <time>2026-09-01T01:14:27Z</time>
  <course>265.68</course>
  <speed>1.0207840124139878</speed>
  <fix>3d</fix>
</trkpt>
<trkpt lat="33.8103438" lon="-118.3944802">
  <ele>-24.42</ele>
  <time>2026-09-01T01:14:27Z</time>
  <course>175.73</course>
  <speed>1.0</speed>
  <fix>3d</fix>
</trkpt>
<trkpt lat="33.8103415" lon="-118.3944803">
  <ele>-25.018</ele>
  <time>2026-09-01T01:14:27Z</time>
  <course>265.79</course>
  <speed>1.0207840124139878</speed>
  <fix>3d</fix>
</trkpt>
<trkpt lat="33.8103438" lon="-118.3944802">
  <ele>-24.42</ele>
  <time>2026-09-01T01:14:27Z</time>
  <course>175.73</course>
  <speed>1.0</speed>
  <fix>3d</fix>
</trkpt>
<trkpt lat="33.8103406" lon="-118.3944802">
  <ele>-25.018</ele>
  <time>2026-09-01T01:14:27Z</time>
  <course>265.91</course>
  <speed>1.0207840124139878</speed>
  <fix>3d</fix>
</trkpt>
<trkpt lat="33.810342" lon="-118.39448">
  <ele>-24.41</ele>
  <time>2026-09-01T01:14:27Z</time>
  <course>175.97</course>
  <speed>1.0</speed>
  <fix>3d</fix>
</trkpt>
<trkpt lat="33.8103397" lon="-118.3944801">
  <ele>-25.018</ele>
  <time>2026-09-01T01:14:27Z</time>
  <course>266.02</course>
  <speed>1.0207840124139878</speed>
  <fix>3d</fix>
</trkpt>
<trkpt lat="33.810342" lon="-118.39448">
  <ele>-24.41</ele>
  <time>2026-09-01T01:14:27Z</time>
  <course>175.97</course>
  <speed>1.0</speed>
  <fix>3d</fix>
</trkpt>
<trkpt lat="33.8103388" lon="-118.39448">
  <ele>-25.017</ele>
  <time>2026-09-01T01:14:27Z</time>
  <course>266.14</course>
  <speed>1.0207840124139878</speed>
  <fix>3d</fix>
</trkpt>
<trkpt lat="33.8103402" lon="-118.3944799">
  <ele>-24.41</ele>
  <time>2026-09-01T01:14:27Z</time>
  <course>176.16</course>
  <speed>1.0</speed>
  <fix>3d</fix>
</trkpt>
<trkpt lat="33.8103379" lon="-118.39448">
  <ele>-25.016</ele>
  <time>2026-09-01T01:14:27Z</time>
  <course>266.25</course>
  <speed>1.0207840124139878</speed>
  <fix>3d</fix>
</trkpt>
<trkpt lat="33.8103402" lon="-118.3944799">
  <ele>-24.41</ele>
  <time>2026-09-01T01:14:27Z</time>
  <course>176.16</course>
  <speed>1.0</speed>
  <fix>3d</fix>
</trkpt>
<trkpt lat="33.810337" lon="-118.3944799">
  <ele>-25.014</ele>
  <time>2026-09-01T01:14:27Z</time>
  <course>266.36</course>
  <speed>1.0204410811016968</speed>
  <fix>3d</fix>
</trkpt>
<trkpt lat="33.8103383" lon="-118.3944797">
  <ele>-24.41</ele>
  <time>2026-09-01T01:14:27Z</time>
  <course>176.35</course>
  <speed>1.0</speed>
  <fix>3d</fix>
</trkpt>
<trkpt lat="33.8103361" lon="-118.3944798">
  <ele>-25.014</ele>
  <time>2026-09-01T01:14:27Z</time>
  <course>266.48</course>
  <speed>1.0204410811016968</speed>
  <fix>3d</fix>
</trkpt>
<trkpt lat="33.8103383" lon="-118.3944797">
  <ele>-24.41</ele>
  <time>2026-09-01T01:14:27Z</time>
  <course>176.35</course>
  <speed>1.0</speed>
  <fix>3d</fix>
</trkpt>
<trkpt lat="33.8103352" lon="-118.3944798">
  <ele>-25.015</ele>
  <time>2026-09-01T01:14:27Z</time>
  <course>266.59</course>
  <speed>1.0204410811016968</speed>
  <fix>3d</fix>
</trkpt>
<trkpt lat="33.8103366" lon="-118.3944795">
  <ele>-24.41</ele>
  <time>2026-09-01T01:14:27Z</time>
  <course>176.54</course>
  <speed>1.0</speed>
  <fix>3d</fix>
</trkpt>
<trkpt lat="33.8103343" lon="-118.3944797">
  <ele>-25.015</ele>
  <time>2026-09-01T01:14:27Z</time>
  <course>266.71</course>
  <speed>1.0204410811016968</speed>
  <fix>3d</fix>
</trkpt>
<trkpt lat="33.8103366" lon="-118.3944795">
  <ele>-24.41</ele>
  <time>2026-09-01T01:14:27Z</time>
  <course>176.54</course>
  <speed>1.0</speed>
  <fix>3d</fix>
</trkpt>
<trkpt lat="33.8103334" lon="-118.3944797">
  <ele>-25.014</ele>
  <time>2026-09-01T01:14:27Z</time>
  <course>266.82</course>
  <speed>1.020196059588548</speed>
  <fix>3d</fix>
</trkpt>
<trkpt lat="33.8103347" lon="-118.3944794">
  <ele>-24.41</ele>
  <time>2026-09-01T01:14:27Z</time>
  <course>176.79</course>
  <speed>1.0</speed>
  <fix>3d</fix>
</trkpt>
<trkpt lat="33.8103325" lon="-118.3944796">
  <ele>-25.013</ele>
  <time>2026-09-01T01:14:27Z</time>
  <course>266.94</course>
  <speed>1.020196059588548</speed>
  <fix>3d</fix>
</trkpt>
<trkpt lat="33.8103347" lon="-118.3944794">
  <ele>-24.41</ele>
  <time>2026-09-01T01:14:27Z</time>
  <course>176.79</course>
  <speed>1.0</speed>
  <fix>3d</fix>
</trkpt>
<trkpt lat="33.8103316" lon="-118.3944795">
  <ele>-25.011</ele>
  <time>2026-09-01T01:14:27Z</time>
  <course>267.05</course>
  <speed>1.020196059588548</speed>
  <fix>3d</fix>
</trkpt>
<trkpt lat="33.810333" lon="-118.3944793">
  <ele>-24.4</ele>
  <time>2026-09-01T01:14:27Z</time>
  <course>177.09</course>
  <speed>1.0</speed>
  <fix>3d</fix>
</trkpt>
<trkpt lat="33.8103307" lon="-118.3944795">
  <ele>-25.011</ele>
  <time>2026-09-01T01:14:27Z</time>
  <course>267.16</course>
  <speed>1.020196059588548</speed>
  <fix>3d</fix>
</trkpt>
<trkpt lat="33.810333" lon="-118.3944793">
  <ele>-24.4</ele>
  <time>2026-09-01T01:14:27Z</time>
  <course>177.09</course>
  <speed>1.0</speed>
  <fix>3d</fix>
</trkpt>
<trkpt lat="33.8103298" lon="-118.3944794">
  <ele>-25.011</ele>
  <time>2026-09-01T01:14:27Z</time>
  <course>267.28</course>
  <speed>1.0200490184299968</speed>
  <fix>3d</fix>
</trkpt>
<trkpt lat="33.8103311" lon="-118.3944792">
  <ele>-24.4</ele>
  <time>2026-09-01T01:14:27Z</time>
  <course>177.36</course>
  <speed>0.99</speed>
  <fix>3d</fix>
</trkpt>
<trkpt lat="33.8103289" lon="-118.3944794">
  <ele>-25.011</ele>
  <time>2026-09-01T01:14:27Z</time>
  <course>267.4</course>
  <speed>1.0200490184299968</speed>
  <fix>3d</fix>
</trkpt>
<trkpt lat="33.8103311" lon="-118.3944792">
  <ele>-24.4</ele>
  <time>2026-09-01T01:14:27Z</time>
  <course>177.36</course>
  <speed>0.99</speed>
  <fix>3d</fix>
</trkpt>
<trkpt lat="33.810328" lon="-118.3944794">
  <ele>-25.011</ele>
  <time>2026-09-01T01:14:27Z</time>
  <course>267.51</course>
  <speed>1.0200490184299968</speed>
  <fix>3d</fix>
</trkpt>
<trkpt lat="33.8103294" lon="-118.3944791">
  <ele>-24.4</ele>
  <time>2026-09-01T01:14:27Z</time>
  <course>177.61</course>
  <speed>0.99</speed>
  <fix>3d</fix>
</trkpt>
<trkpt lat="33.8103271" lon="-118.3944793">
  <ele>-25.011</ele>
  <time>2026-09-01T01:14:27Z</time>
  <course>267.62</course>
  <speed>1.0200490184299968</speed>
  <fix>3d</fix>
</trkpt>
<trkpt lat="33.8103294" lon="-118.3944791">
  <ele>-24.4</ele>
  <time>2026-09-01T01:14:27Z</time>
  <course>177.61</course>
  <speed>0.99</speed>
  <fix>3d</fix>
</trkpt>
<trkpt lat="33.8103262" lon="-118.3944793">
  <ele>-25.012</ele>
  <time>2026-09-01T01:14:27Z</time>
  <course>267.74</course>
  <speed>1.0200490184299968</speed>
  <fix>3d</fix>
</trkpt>
<trkpt lat="33.8103275" lon="-118.394479">
  <ele>-24.41</ele>
  <time>2026-09-01T01:14:27Z</time>
  <course>177.85</course>
  <speed>0.99</speed>
  <fix>3d</fix>
</trkpt>
<trkpt lat="33.8103253" lon="-118.3944792">
  <ele>-25.013</ele>
  <time>2026-09-01T01:14:27Z</time>
  <course>267.85</course>
  <speed>1.02</speed>
  <fix>3d</fix>
</trkpt>
<trkpt lat="33.8103275" lon="-118.394479">
  <ele>-24.41</ele>
  <time>2026-09-01T01:14:27Z</time>
  <course>177.85</course>
  <speed>0.99</speed>
  <fix>3d</fix>
</trkpt>
<trkpt lat="33.8103244" lon="-118.3944792">
  <ele>-25.014</ele>
  <time>2026-09-01T01:14:27Z</time>
  <course>267.96</course>
  <speed>1.02</speed>
  <fix>3d</fix>
</trkpt>
<trkpt lat="33.8103258" lon="-118.394479">
  <ele>-24.41</ele>
  <time>2026-09-01T01:14:27Z</time>
  <course>178.08</course>
  <speed>0.99</speed>
  <fix>3d</fix>
</trkpt>
<trkpt lat="33.8103235" lon="-118.3944792">
  <ele>-25.014</ele>
  <time>2026-09-01T01:14:27Z</time>
  <course>268.08</course>
  <speed>1.0</speed>
  <fix>3d</fix>
</trkpt>
<trkpt lat="33.8103258" lon="-118.394479">
  <ele>-24.41</ele>
  <time>2026-09-01T01:14:27Z</time>
  <course>178.08</course>
  <speed>0.99</speed>
  <fix>3d</fix>
</trkpt>
<trkpt lat="33.8103227" lon="-118.3944791">
  <ele>-25.015</ele>
  <time>2026-09-01T01:14:27Z</time>
  <course>267.35</course>
  <speed>0.84</speed>
  <fix>3d</fix>
</trkpt>
<trkpt lat="33.810324" lon="-118.3944789">
  <ele>-24.41</ele>
  <time>2026-09-01T01:14:27Z</time>
  <course>178.23</course>
  <speed>0.96</speed>
  <fix>3d</fix>
</trkpt>
<trkpt lat="33.810322" lon="-118.3944791">
  <ele>-25.015</ele>
  <time>2026-09-01T01:14:27Z</time>
  <course>264.48</course>
  <speed>0.71</speed>
  <fix>3d</fix>
</trkpt>
<trkpt lat="33.810324" lon="-118.3944789">
  <ele>-24.41</ele>
  <time>2026-09-01T01:14:27Z</time>
  <course>178.23</course>
  <speed>0.96</speed>
  <fix>3d</fix>
</trkpt>
<trkpt lat="33.8103215" lon="-118.3944791">
  <ele>-25.016</ele>
  <time>2026-09-01T01:14:27Z</time>
  <course>260.87</course>
  <speed>0.61</speed>
  <fix>3d</fix>
</trkpt>
<trkpt lat="33.8103225" lon="-118.3944788">
  <ele>-24.41</ele>
  <time>2026-09-01T01:14:27Z</time>
  <course>177.99</course>
  <speed>0.8</speed>
  <fix>3d</fix>
</trkpt>
<trkpt lat="33.810321" lon="-118.394479">
  <ele>-25.016</ele>
  <time>2026-09-01T01:14:27Z</time>
  <course>257.28</course>
  <speed>0.5300943312279428</speed>
  <fix>3d</fix>
</trkpt>
<trkpt lat="33.8103225" lon="-118.3944788">
  <ele>-24.41</ele>
  <time>2026-09-01T01:14:27Z</time>
  <course>177.99</course>
  <speed>0.8</speed>
  <fix>3d</fix>
</trkpt>
<trkpt lat="33.8103205" lon="-118.394479">
  <ele>-25.015</ele>
  <time>2026-09-01T01:14:27Z</time>
  <course>253.82</course>
  <speed>0.45177427992306074</speed>
  <fix>3d</fix>
</trkpt>
<trkpt lat="33.8103212" lon="-118.3944788">
  <ele>-24.41</ele>
  <time>2026-09-01T01:14:27Z</time>
  <course>175.97</course>
  <speed>0.57</speed>
  <fix>3d</fix>
</trkpt>
<trkpt lat="33.8103202" lon="-118.3944789">
  <ele>-25.014</ele>
  <time>2026-09-01T01:14:27Z</time>
  <course>250.66</course>
  <speed>0.37483329627982626</speed>
  <fix>3d</fix>
</trkpt>
<trkpt lat="33.8103212" lon="-118.3944788">
  <ele>-24.41</ele>
  <time>2026-09-01T01:14:27Z</time>
  <course>175.97</course>
  <speed>0.57</speed>
  <fix>3d</fix>
</trkpt>
<trkpt lat="33.8103199" lon="-118.3944788">
  <ele>-25.014</ele>
  <time>2026-09-01T01:14:27Z</time>
  <course>248.71</course>
  <speed>0.30083217912982646</speed>
  <fix>3d</fix>
</trkpt>
<trkpt lat="33.8103203" lon="-118.3944787">
  <ele>-24.41</ele>
  <time>2026-09-01T01:14:27Z</time>
  <course>169.44</course>
  <speed>0.41</speed>
  <fix>3d</fix>
</trkpt>
<trkpt lat="33.8103196" lon="-118.3944787">
  <ele>-25.014</ele>
  <time>2026-09-01T01:14:27Z</time>
  <course>248.81</course>
  <speed>0.23706539182259395</speed>
  <fix>3d</fix>
</trkpt>
<trkpt lat="33.8103203" lon="-118.3944787">
  <ele>-24.41</ele>
  <time>2026-09-01T01:14:27Z</time>
  <course>169.44</course>
  <speed>0.41</speed>
  <fix>3d</fix>
</trkpt>
<trkpt lat="33.8103195" lon="-118.3944785">
  <ele>-25.014</ele>
  <time>2026-09-01T01:14:27Z</time>
  <course>251.12</course>
  <speed>0.212602916254693</speed>
  <fix>3d</fix>
</trkpt>
<trkpt lat="33.8103197" lon="-118.3944784">
  <ele>-24.41</ele>
  <time>2026-09-01T01:14:27Z</time>
  <course>152.57</course>
  <speed>0.28</speed>
  <fix>3d</fix>
</trkpt>
<trkpt lat="33.8103194" lon="-118.3944783">
  <ele>-25.015</ele>
  <time>2026-09-01T01:14:27Z</time>
  <course>254.29</course>
  <speed>0.21840329667841554</speed>
  <fix>3d</fix>
</trkpt>
<trkpt lat="33.8103197" lon="-118.3944784">
  <ele>-24.41</ele>
  <time>2026-09-01T01:14:27Z</time>
  <course>152.57</course>
  <speed>0.28</speed>
  <fix>3d</fix>
</trkpt>
<trkpt lat="33.8103194" lon="-118.394478">
  <ele>-25.015</ele>
  <time>2026-09-01T01:14:27Z</time>
  <course>257.87</course>
  <speed>0.2501999200639361</speed>
  <fix>3d</fix>
</trkpt>
<trkpt lat="33.8103194" lon="-118.394478">
  <ele>-24.41</ele>
  <time>2026-09-01T01:14:27Z</time>
  <course>114.21</course>
  <speed>0.22</speed>
  <fix>3d</fix>
</trkpt>
<trkpt lat="33.8103194" lon="-118.3944777">
  <ele>-25.016</ele>
  <time>2026-09-01T01:14:27Z</time>
  <course>261.64</course>
  <speed>0.29120439557122074</speed>
  <fix>3d</fix>
</trkpt>
<trkpt lat="33.8103194" lon="-118.394478">
  <ele>-24.41</ele>
  <time>2026-09-01T01:14:27Z</time>
  <course>114.21</course>
  <speed>0.22</speed>
  <fix>3d</fix>
</trkpt>
<trkpt lat="33.8103195" lon="-118.3944773">
  <ele>-25.017</ele>
  <time>2026-09-01T01:14:27Z</time>
  <course>265.57</course>
  <speed>0.340147027033899</speed>
  <fix>3d</fix>
</trkpt>
<trkpt lat="33.8103194" lon="-118.3944775">
  <ele>-24.41</ele>
  <time>2026-09-01T01:14:27Z</time>
  <course>78.33</course>
  <speed>0.29</speed>
  <fix>3d</fix>
</trkpt>
<trkpt lat="33.8103197" lon="-118.3944769">
  <ele>-25.017</ele>
  <time>2026-09-01T01:14:27Z</time>
  <course>269.6</course>
  <speed>0.38948684188300897</speed>
  <fix>3d</fix>
</trkpt>
<trkpt lat="33.8103194" lon="-118.3944775">
  <ele>-24.41</ele>
  <time>2026-09-01T01:14:27Z</time>
  <course>78.33</course>
  <speed>0.29</speed>
  <fix>3d</fix>
</trkpt>
<trkpt lat="33.8103199" lon="-118.3944765">
  <ele>-25.016</ele>
  <time>2026-09-01T01:14:27Z</time>
  <course>273.79</course>
  <speed>0.42720018726587655</speed>
  <fix>3d</fix>
</trkpt>
<trkpt lat="33.8103196" lon="-118.3944769">
  <ele>-24.41</ele>
  <time>2026-09-01T01:14:27Z</time>
  <course>62.14</course>
  <speed>0.4</speed>
  <fix>3d</fix>
</trkpt>
<trkpt lat="33.81032" lon="-118.3944761">
  <ele>-25.015</ele>
  <time>2026-09-01T01:14:27Z</time>
  <course>278.14</course>
  <speed>0.4604345773288535</speed>
  <fix>3d</fix>
</trkpt>
<trkpt lat="33.8103196" lon="-118.3944769">
  <ele>-24.41</ele>
  <time>2026-09-01T01:14:27Z</time>
  <course>62.14</course>
  <speed>0.4</speed>
  <fix>3d</fix>
</trkpt>
<trkpt lat="33.8103203" lon="-118.3944757">
  <ele>-25.015</ele>
  <time>2026-09-01T01:14:27Z</time>
  <course>282.63</course>
  <speed>0.4882622246293481</speed>
  <fix>3d</fix>
</trkpt>
<trkpt lat="33.8103199" lon="-118.394476">
  <ele>-24.41</ele>
  <time>2026-09-01T01:14:27Z</time>
  <course>56.09</course>
  <speed>0.48</speed>
  <fix>3d</fix>
</trkpt>
<trkpt lat="33.8103205" lon="-118.3944752">
  <ele>-25.015</ele>
  <time>2026-09-01T01:14:27Z</time>
  <course>287.26</course>
  <speed>0.5021951811795887</speed>
  <fix>3d</fix>
</trkpt>
<trkpt lat="33.8103199" lon="-118.394476">
  <ele>-24.41</ele>
  <time>2026-09-01T01:14:27Z</time>
  <course>56.09</course>
  <speed>0.48</speed>
  <fix>3d</fix>
</trkpt>
<trkpt lat="33.8103208" lon="-118.3944747">
  <ele>-25.016</ele>
  <time>2026-09-01T01:14:27Z</time>
  <course>292.03</course>
  <speed>0.5243090691567331</speed>
  <fix>3d</fix>
</trkpt>
<trkpt lat="33.8103205" lon="-118.3944751">
  <ele>-24.41</ele>
  <time>2026-09-01T01:14:27Z</time>
  <course>54.05</course>
  <speed>0.54</speed>
  <fix>3d</fix>
</trkpt>
<trkpt lat="33.8103211" lon="-118.3944742">
  <ele>-25.016</ele>
  <time>2026-09-01T01:14:27Z</time>
  <course>296.95</course>
  <speed>0.5300943312279428</speed>
  <fix>3d</fix>
</trkpt>
<trkpt lat="33.8103205" lon="-118.3944751">
  <ele>-24.41</ele>
  <time>2026-09-01T01:14:27Z</time>
  <course>54.05</course>
  <speed>0.54</speed>
  <fix>3d</fix>
</trkpt>
<trkpt lat="33.8103214" lon="-118.3944737">
  <ele>-25.016</ele>
  <time>2026-09-01T01:14:27Z</time>
  <course>302.07</course>
  <speed>0.5440588203494178</speed>
  <fix>3d</fix>
</trkpt>
<trkpt lat="33.810321" lon="-118.3944741">
  <ele>-24.41</ele>
  <time>2026-09-01T01:14:27Z</time>
  <course>53.26</course>
  <speed>0.58</speed>
  <fix>3d</fix>
</trkpt>
<trkpt lat="33.8103217" lon="-118.3944732">
  <ele>-25.016</ele>
  <time>2026-09-01T01:14:27Z</time>
  <course>307.28</course>
  <speed>0.55</speed>
  <fix>3d</fix>
</trkpt>
<trkpt lat="33.810321" lon="-118.3944741">
  <ele>-24.41</ele>
  <time>2026-09-01T01:14:27Z</time>
  <course>53.26</course>
  <speed>0.58</speed>
  <fix>3d</fix>
</trkpt>
<trkpt lat="33.810322" lon="-118.3944727">
  <ele>-25.015</ele>
  <time>2026-09-01T01:14:27Z</time>
  <course>312.63</course>
  <speed>0.5560575509783138</speed>
  <fix>3d</fix>
</trkpt>
<trkpt lat="33.8103217" lon="-118.3944731">
  <ele>-24.41</ele>
  <time>2026-09-01T01:14:27Z</time>
  <course>52.49</course>
  <speed>0.6</speed>
  <fix>3d</fix>
</trkpt>
<trkpt lat="33.8103223" lon="-118.3944722">
  <ele>-25.015</ele>
  <time>2026-09-01T01:14:27Z</time>
  <course>318.08</course>
  <speed>0.5622277118748239</speed>
  <fix>3d</fix>
</trkpt>
<trkpt lat="33.8103217" lon="-118.3944731">
  <ele>-24.41</ele>
  <time>2026-09-01T01:14:27Z</time>
  <course>52.49</course>
  <speed>0.6</speed>
  <fix>3d</fix>
</trkpt>
<trkpt lat="33.8103227" lon="-118.3944717">
  <ele>-25.015</ele>
  <time>2026-09-01T01:14:27Z</time>
  <course>323.62</course>
  <speed>0.5685068161420758</speed>
  <fix>3d</fix>
</trkpt>
<trkpt lat="33.8103224" lon="-118.394472">
  <ele>-24.41</ele>
  <time>2026-09-01T01:14:27Z</time>
  <course>51.16</course>
  <speed>0.61</speed>
  <fix>3d</fix>
</trkpt>
<trkpt lat="33.810323" lon="-118.3944712">
  <ele>-25.015</ele>
  <time>2026-09-01T01:14:27Z</time>
  <course>329.17</course>
  <speed>0.5748912940721924</speed>
  <fix>3d</fix>
</trkpt>
<trkpt lat="33.8103224" lon="-118.394472">
  <ele>-24.41</ele>
  <time>2026-09-01T01:14:27Z</time>
  <course>51.16</course>
  <speed>0.61</speed>
  <fix>3d</fix>
</trkpt>
<trkpt lat="33.8103234" lon="-118.3944706">
  <ele>-25.015</ele>
  <time>2026-09-01T01:14:27Z</time>
  <course>334.75</course>
  <speed>0.5813776741499453</speed>
  <fix>3d</fix>
</trkpt>
<trkpt lat="33.8103231" lon="-118.394471">
  <ele>-24.41</ele>
  <time>2026-09-01T01:14:27Z</time>
  <course>49.4</course>
  <speed>0.63</speed>
  <fix>3d</fix>
</trkpt>
<trkpt lat="33.8103238" lon="-118.3944701">
  <ele>-25.015</ele>
  <time>2026-09-01T01:14:27Z</time>
  <course>340.3</course>
  <speed>0.587962583843564</speed>
  <fix>3d</fix>
</trkpt>
<trkpt lat="33.8103231" lon="-118.394471">
  <ele>-24.41</ele>
  <time>2026-09-01T01:14:27Z</time>
  <course>49.4</course>
  <speed>0.63</speed>
  <fix>3d</fix>
</trkpt>
<trkpt lat="33.8103241" lon="-118.3944696">
  <ele>-25.015</ele>
  <time>2026-09-01T01:14:27Z</time>
  <course>345.84</course>
  <speed>0.5954829972383763</speed>
  <fix>3d</fix>
</trkpt>
<trkpt lat="33.8103239" lon="-118.39447">
  <ele>-24.41</ele>
  <time>2026-09-01T01:14:27Z</time>
  <course>48.22</course>
  <speed>0.64</speed>
  <fix>3d</fix>
</trkpt>
<trkpt lat="33.8103245" lon="-118.3944691">
  <ele>-25.014</ele>
  <time>2026-09-01T01:14:27Z</time>
  <course>351.34</course>
  <speed>0.6030754513325841</speed>
  <fix>3d</fix>
</trkpt>
<trkpt lat="33.8103239" lon="-118.39447">
  <ele>-24.41</ele>
  <time>2026-09-01T01:14:27Z</time>
  <course>48.22</course>
  <speed>0.64</speed>
  <fix>3d</fix>
</trkpt>
<trkpt lat="33.8103249" lon="-118.3944685">
  <ele>-25.013</ele>
  <time>2026-09-01T01:14:27Z</time>
  <course>356.8</course>
  <speed>0.6107372593840988</speed>
  <fix>3d</fix>
</trkpt>
<trkpt lat="33.8103246" lon="-118.3944689">
  <ele>-24.41</ele>
  <time>2026-09-01T01:14:27Z</time>
  <course>48.36</course>
  <speed>0.66</speed>
  <fix>3d</fix>
</trkpt>
<trkpt lat="33.8103253" lon="-118.394468">
  <ele>-25.013</ele>
  <time>2026-09-01T01:14:27Z</time>
  <course>1.83</course>
  <speed>0.6044005294504631</speed>
  <fix>3d</fix>
</trkpt>
<trkpt lat="33.8103246" lon="-118.3944689">
  <ele>-24.41</ele>
  <time>2026-09-01T01:14:27Z</time>
  <course>48.36</course>
  <speed>0.66</speed>
  <fix>3d</fix>
</trkpt>
<trkpt lat="33.8103256" lon="-118.3944674">
  <ele>-25.015</ele>
  <time>2026-09-01T01:14:27Z</time>
  <course>6.41</course>
  <speed>0.5981638571495272</speed>
  <fix>3d</fix>
</trkpt>
<trkpt lat="33.8103255" lon="-118.3944678">
  <ele>-24.41</ele>
  <time>2026-09-01T01:14:27Z</time>
  <course>49.38</course>
  <speed>0.66</speed>
  <fix>3d</fix>
</trkpt>
<trkpt lat="33.810326" lon="-118.3944669">
  <ele>-25.016</ele>
  <time>2026-09-01T01:14:27Z</time>
  <course>10.64</course>
  <speed>0.5841232746604094</speed>
  <fix>3d</fix>
</trkpt>
<trkpt lat="33.8103255" lon="-118.3944678">
  <ele>-24.41</ele>
  <time>2026-09-01T01:14:27Z</time>
  <course>49.38</course>
  <speed>0.66</speed>
  <fix>3d</fix>
</trkpt>
<trkpt lat="33.8103264" lon="-118.3944664">
  <ele>-25.017</ele>
  <time>2026-09-01T01:14:27Z</time>
  <course>14.6</course>
  <speed>0.5860034129593444</speed>
  <fix>3d</fix>
</trkpt>
<trkpt lat="33.8103262" lon="-118.3944667">
  <ele>-24.41</ele>
  <time>2026-09-01T01:14:27Z</time>
  <course>50.71</course>
  <speed>0.65</speed>
  <fix>3d</fix>
</trkpt>
<trkpt lat="33.8103267" lon="-118.3944658">
  <ele>-25.018</ele>
  <time>2026-09-01T01:14:27Z</time>
  <course>18.33</course>
  <speed>0.5800862004909271</speed>
  <fix>3d</fix>
</trkpt>
<trkpt lat="33.8103262" lon="-118.3944667">
  <ele>-24.41</ele>
  <time>2026-09-01T01:14:28Z</time>
  <course>50.71</course>
  <speed>0.65</speed>
  <fix>3d</fix>
</trkpt>
<trkpt lat="33.810327" lon="-118.3944653">
  <ele>-25.018</ele>
  <time>2026-09-01T01:14:28Z</time>
  <course>21.89</course>
  <speed>0.5742821606144493</speed>
  <fix>3d</fix>
</trkpt>
<trkpt lat="33.8103269" lon="-118.3944656">
  <ele>-24.41</ele>
  <time>2026-09-01T01:14:28Z</time>
  <course>52.28</course>
  <speed>0.64</speed>
  <fix>3d</fix>
</trkpt>
<trkpt lat="33.8103274" lon="-118.3944647">
  <ele>-25.018</ele>
  <time>2026-09-01T01:14:28Z</time>
  <course>25.3</course>
  <speed>0.56859475903318</speed>
  <fix>3d</fix>
</trkpt>
<trkpt lat="33.8103269" lon="-118.3944656">
  <ele>-24.41</ele>
  <time>2026-09-01T01:14:28Z</time>
  <course>52.28</course>
  <speed>0.64</speed>
  <fix>3d</fix>
</trkpt>
<trkpt lat="33.8103277" lon="-118.3944641">
  <ele>-25.017</ele>
  <time>2026-09-01T01:14:28Z</time>
  <course>28.54</course>
  <speed>0.5630275304103699</speed>
  <fix>3d</fix>
</trkpt>
<trkpt lat="33.8103276" lon="-118.3944645">
  <ele>-24.41</ele>
  <time>2026-09-01T01:14:28Z</time>
  <course>54.06</course>
  <speed>0.62</speed>
  <fix>3d</fix>
</trkpt>
<trkpt lat="33.810328" lon="-118.3944636">
  <ele>-25.016</ele>
  <time>2026-09-01T01:14:28Z</time>
  <course>31.42</course>
  <speed>0.5630275304103699</speed>
  <fix>3d</fix>
</trkpt>
<trkpt lat="33.8103276" lon="-118.3944645">
  <ele>-24.41</ele>
  <time>2026-09-01T01:14:28Z</time>
  <course>54.06</course>
  <speed>0.62</speed>
  <fix>3d</fix>
</trkpt>
<trkpt lat="33.8103283" lon="-118.394463">
  <ele>-25.014</ele>
  <time>2026-09-01T01:14:28Z</time>
  <course>33.74</course>
  <speed>0.5630275304103699</speed>
  <fix>3d</fix>
</trkpt>
<trkpt lat="33.8103282" lon="-118.3944634">
  <ele>-24.41</ele>
  <time>2026-09-01T01:14:28Z</time>
  <course>55.35</course>
  <speed>0.61</speed>
  <fix>3d</fix>
</trkpt>
<trkpt lat="33.8103286" lon="-118.3944625">
  <ele>-25.013</ele>
  <time>2026-09-01T01:14:28Z</time>
  <course>35.36</course>
  <speed>0.5547071299343466</speed>
  <fix>3d</fix>
</trkpt>
<trkpt lat="33.8103282" lon="-118.3944634">
  <ele>-24.41</ele>
  <time>2026-09-01T01:14:28Z</time>
  <course>55.35</course>
  <speed>0.61</speed>
  <fix>3d</fix>
</trkpt>
<trkpt lat="33.810329" lon="-118.3944619">
  <ele>-25.013</ele>
  <time>2026-09-01T01:14:28Z</time>
  <course>36.29</course>
  <speed>0.560357029044876</speed>
  <fix>3d</fix>
</trkpt>
<trkpt lat="33.8103289" lon="-118.3944623">
  <ele>-24.41</ele>
  <time>2026-09-01T01:14:28Z</time>
  <course>55.41</course>
  <speed>0.6</speed>
  <fix>3d</fix>
</trkpt>
<trkpt lat="33.8103293" lon="-118.3944614">
  <ele>-25.014</ele>
  <time>2026-09-01T01:14:28Z</time>
  <course>36.72</course>
  <speed>0.560357029044876</speed>
  <fix>3d</fix>
</trkpt>
<trkpt lat="33.8103289" lon="-118.3944623">
  <ele>-24.41</ele>
  <time>2026-09-01T01:14:28Z</time>
  <course>55.41</course>
  <speed>0.6</speed>
  <fix>3d</fix>
</trkpt>
<trkpt lat="33.8103296" lon="-118.3944609">
  <ele>-25.015</ele>
  <time>2026-09-01T01:14:28Z</time>
  <course>36.82</course>
  <speed>0.5661271941887265</speed>
  <fix>3d</fix>
</trkpt>
<trkpt lat="33.8103296" lon="-118.3944612">
  <ele>-24.41</ele>
  <time>2026-09-01T01:14:28Z</time>
  <course>54.73</course>
  <speed>0.6</speed>
  <fix>3d</fix>
</trkpt>
<trkpt lat="33.81033" lon="-118.3944603">
  <ele>-25.015</ele>
  <time>2026-09-01T01:14:28Z</time>
  <course>36.78</course>
  <speed>0.5661271941887265</speed>
  <fix>3d</fix>
</trkpt>
<trkpt lat="33.8103296" lon="-118.3944612">
  <ele>-24.41</ele>
  <time>2026-09-01T01:14:28Z</time>
  <course>54.73</course>
  <speed>0.6</speed>
  <fix>3d</fix>
</trkpt>
<trkpt lat="33.8103303" lon="-118.3944598">
  <ele>-25.016</ele>
  <time>2026-09-01T01:14:28Z</time>
  <course>36.72</course>
  <speed>0.5720139858430037</speed>
  <fix>3d</fix>
</trkpt>
<trkpt lat="33.8103301" lon="-118.3944602">
  <ele>-24.41</ele>
  <time>2026-09-01T01:14:28Z</time>
  <course>54.13</course>
  <speed>0.6</speed>
  <fix>3d</fix>
</trkpt>
<trkpt lat="33.8103306" lon="-118.3944592">
  <ele>-25.016</ele>
  <time>2026-09-01T01:14:28Z</time>
  <course>36.69</course>
  <speed>0.5720139858430037</speed>
  <fix>3d</fix>
</trkpt>
<trkpt lat="33.8103301" lon="-118.3944602">
  <ele>-24.41</ele>
  <time>2026-09-01T01:14:28Z</time>
  <course>54.13</course>
  <speed>0.6</speed>
  <fix>3d</fix>
</trkpt>
<trkpt lat="33.810331" lon="-118.3944587">
  <ele>-25.017</ele>
  <time>2026-09-01T01:14:28Z</time>
  <course>36.68</course>
  <speed>0.5720139858430037</speed>
  <fix>3d</fix>
</trkpt>
<trkpt lat="33.8103308" lon="-118.3944591">
  <ele>-24.41</ele>
  <time>2026-09-01T01:14:28Z</time>
  <course>53.75</course>
  <speed>0.61</speed>
  <fix>3d</fix>
</trkpt>
<trkpt lat="33.8103313" lon="-118.3944581">
  <ele>-25.018</ele>
  <time>2026-09-01T01:14:28Z</time>
  <course>36.7</course>
  <speed>0.5860034129593444</speed>
  <fix>3d</fix>
</trkpt>
<trkpt lat="33.8103308" lon="-118.3944591">
  <ele>-24.41</ele>
  <time>2026-09-01T01:14:28Z</time>
  <course>53.75</course>
  <speed>0.61</speed>
  <fix>3d</fix>
</trkpt>
<trkpt lat="33.8103317" lon="-118.3944576">
  <ele>-25.018</ele>
  <time>2026-09-01T01:14:28Z</time>
  <course>36.72</course>
  <speed>0.5860034129593444</speed>
  <fix>3d</fix>
</trkpt>
<trkpt lat="33.8103315" lon="-118.3944581">
  <ele>-24.41</ele>
  <time>2026-09-01T01:14:28Z</time>
  <course>53.48</course>
  <speed>0.61</speed>
  <fix>3d</fix>
</trkpt>
<trkpt lat="33.810332" lon="-118.3944571">
  <ele>-25.016</ele>
  <time>2026-09-01T01:14:28Z</time>
  <course>36.76</course>
  <speed>0.5860034129593444</speed>
  <fix>3d</fix>
</trkpt>
<trkpt lat="33.8103315" lon="-118.3944581">
  <ele>-24.41</ele>
  <time>2026-09-01T01:14:28Z</time>
  <course>53.48</course>
  <speed>0.61</speed>
  <fix>3d</fix>
</trkpt>
<trkpt lat="33.8103323" lon="-118.3944565">
  <ele>-25.015</ele>
  <time>2026-09-01T01:14:28Z</time>
  <course>36.82</course>
  <speed>0.5860034129593444</speed>
  <fix>3d</fix>
</trkpt>
<trkpt lat="33.8103321" lon="-118.394457">
  <ele>-24.4</ele>
  <time>2026-09-01T01:14:28Z</time>
  <course>53.39</course>
  <speed>0.61</speed>
  <fix>3d</fix>
</trkpt>
<trkpt lat="33.8103327" lon="-118.394456">
  <ele>-25.013</ele>
  <time>2026-09-01T01:14:28Z</time>
  <course>36.89</course>
  <speed>0.5860034129593444</speed>
  <fix>3d</fix>
</trkpt>
<trkpt lat="33.8103321" lon="-118.394457">
  <ele>-24.4</ele>
  <time>2026-09-01T01:14:28Z</time>
  <course>53.39</course>
  <speed>0.61</speed>
  <fix>3d</fix>
</trkpt>
<trkpt lat="33.810333" lon="-118.3944554">
  <ele>-25.011</ele>
  <time>2026-09-01T01:14:28Z</time>
  <course>36.96</course>
  <speed>0.5920304046246274</speed>
  <fix>3d</fix>
</trkpt>
<trkpt lat="33.8103328" lon="-118.3944559">
  <ele>-24.4</ele>
  <time>2026-09-01T01:14:28Z</time>
  <course>53.4</course>
  <speed>0.61</speed>
  <fix>3d</fix>
</trkpt>
<trkpt lat="33.8103334" lon="-118.3944549">
  <ele>-25.01</ele>
  <time>2026-09-01T01:14:28Z</time>
  <course>37.03</course>
  <speed>0.5920304046246274</speed>
  <fix>3d</fix>
</trkpt>
<trkpt lat="33.8103328" lon="-118.3944559">
  <ele>-24.4</ele>
  <time>2026-09-01T01:14:28Z</time>
  <course>53.4</course>
  <speed>0.61</speed>
  <fix>3d</fix>
</trkpt>
<trkpt lat="33.8103337" lon="-118.3944544">
  <ele>-25.009</ele>
  <time>2026-09-01T01:14:28Z</time>
  <course>37.09</course>
  <speed>0.5920304046246274</speed>
  <fix>3d</fix>
</trkpt>
<trkpt lat="33.8103334" lon="-118.3944549">
  <ele>-24.4</ele>
  <time>2026-09-01T01:14:28Z</time>
  <course>53.39</course>
  <speed>0.61</speed>
  <fix>3d</fix>
</trkpt>
<trkpt lat="33.8103341" lon="-118.3944538">
  <ele>-25.008</ele>
  <time>2026-09-01T01:14:28Z</time>
  <course>37.15</course>
  <speed>0.5920304046246274</speed>
  <fix>3d</fix>
</trkpt>
<trkpt lat="33.8103334" lon="-118.3944549">
  <ele>-24.4</ele>
  <time>2026-09-01T01:14:28Z</time>
  <course>53.39</course>
  <speed>0.61</speed>
  <fix>3d</fix>
</trkpt>
<trkpt lat="33.8103344" lon="-118.3944533">
  <ele>-25.008</ele>
  <time>2026-09-01T01:14:28Z</time>
  <course>37.21</course>
  <speed>0.5920304046246274</speed>
  <fix>3d</fix>
</trkpt>
<trkpt lat="33.8103341" lon="-118.3944538">
  <ele>-24.4</ele>
  <time>2026-09-01T01:14:28Z</time>
  <course>53.37</course>
  <speed>0.61</speed>
  <fix>3d</fix>
</trkpt>
<trkpt lat="33.8103347" lon="-118.3944527">
  <ele>-25.009</ele>
  <time>2026-09-01T01:14:28Z</time>
  <course>37.29</course>
  <speed>0.5981638571495272</speed>
  <fix>3d</fix>
</trkpt>
<trkpt lat="33.8103341" lon="-118.3944538">
  <ele>-24.4</ele>
  <time>2026-09-01T01:14:28Z</time>
  <course>53.37</course>
  <speed>0.61</speed>
  <fix>3d</fix>
</trkpt>
<trkpt lat="33.8103351" lon="-118.3944522">
  <ele>-25.011</ele>
  <time>2026-09-01T01:14:28Z</time>
  <course>37.36</course>
  <speed>0.6060528029800704</speed>
  <fix>3d</fix>
</trkpt>
<trkpt lat="33.8103347" lon="-118.3944527">
  <ele>-24.4</ele>
  <time>2026-09-01T01:14:28Z</time>
  <course>53.33</course>
  <speed>0.61</speed>
  <fix>3d</fix>
</trkpt>
<trkpt lat="33.8103354" lon="-118.3944517">
  <ele>-25.013</ele>
  <time>2026-09-01T01:14:28Z</time>
  <course>37.43</course>
  <speed>0.6060528029800704</speed>
  <fix>3d</fix>
</trkpt>
<trkpt lat="33.8103347" lon="-118.3944527">
  <ele>-24.4</ele>
  <time>2026-09-01T01:14:28Z</time>
  <course>53.33</course>
  <speed>0.61</speed>
  <fix>3d</fix>
</trkpt>
<trkpt lat="33.8103358" lon="-118.3944511">
  <ele>-25.014</ele>
  <time>2026-09-01T01:14:28Z</time>
  <course>37.49</course>
  <speed>0.6060528029800704</speed>
  <fix>3d</fix>
</trkpt>
<trkpt lat="33.8103354" lon="-118.3944517">
  <ele>-24.41</ele>
  <time>2026-09-01T01:14:28Z</time>
  <course>53.26</course>
  <speed>0.61</speed>
  <fix>3d</fix>
</trkpt>
<trkpt lat="33.8103361" lon="-118.3944506">
  <ele>-25.014</ele>
  <time>2026-09-01T01:14:28Z</time>
  <course>37.55</course>
  <speed>0.6060528029800704</speed>
  <fix>3d</fix>
</trkpt>
<trkpt lat="33.8103354" lon="-118.3944517">
  <ele>-24.41</ele>
  <time>2026-09-01T01:14:28Z</time>
  <course>53.26</course>
  <speed>0.61</speed>
  <fix>3d</fix>
</trkpt>
<trkpt lat="33.8103365" lon="-118.39445">
  <ele>-25.014</ele>
  <time>2026-09-01T01:14:28Z</time>
  <course>37.62</course>
  <speed>0.6122091146005587</speed>
  <fix>3d</fix>
</trkpt>
<trkpt lat="33.8103361" lon="-118.3944506">
  <ele>-24.41</ele>
  <time>2026-09-01T01:14:28Z</time>
  <course>53.2</course>
  <speed>0.61</speed>
  <fix>3d</fix>
</trkpt>
<trkpt lat="33.8103368" lon="-118.3944495">
  <ele>-25.015</ele>
  <time>2026-09-01T01:14:28Z</time>
  <course>37.71</course>
  <speed>0.6122091146005587</speed>
  <fix>3d</fix>
</trkpt>
<trkpt lat="33.8103361" lon="-118.3944506">
  <ele>-24.41</ele>
  <time>2026-09-01T01:14:28Z</time>
  <course>53.2</course>
  <speed>0.61</speed>
  <fix>3d</fix>
</trkpt>
<trkpt lat="33.8103372" lon="-118.3944489">
  <ele>-25.016</ele>
  <time>2026-09-01T01:14:28Z</time>
  <course>37.81</course>
  <speed>0.6122091146005587</speed>
  <fix>3d</fix>
</trkpt>
<trkpt lat="33.8103367" lon="-118.3944495">
  <ele>-24.42</ele>
  <time>2026-09-01T01:14:28Z</time>
  <course>53.21</course>
  <speed>0.61</speed>
  <fix>3d</fix>
</trkpt>
<trkpt lat="33.8103375" lon="-118.3944484">
  <ele>-25.018</ele>
  <time>2026-09-01T01:14:28Z</time>
  <course>37.91</course>
  <speed>0.6200806399170998</speed>
  <fix>3d</fix>
</trkpt>
<trkpt lat="33.8103367" lon="-118.3944495">
  <ele>-24.42</ele>
  <time>2026-09-01T01:14:28Z</time>
  <course>53.21</course>
  <speed>0.61</speed>
  <fix>3d</fix>
</trkpt>
<trkpt lat="33.8103379" lon="-118.3944478">
  <ele>-25.019</ele>
  <time>2026-09-01T01:14:28Z</time>
  <course>38.0</course>
  <speed>0.6200806399170998</speed>
  <fix>3d</fix>
</trkpt>
<trkpt lat="33.8103374" lon="-118.3944485">
  <ele>-24.42</ele>
  <time>2026-09-01T01:14:28Z</time>
  <course>53.2</course>
  <speed>0.61</speed>
  <fix>3d</fix>
</trkpt>
<trkpt lat="33.8103382" lon="-118.3944473">
  <ele>-25.02</ele>
  <time>2026-09-01T01:14:28Z</time>
  <course>38.09</course>
  <speed>0.6262587324740471</speed>
  <fix>3d</fix>
</trkpt>
<trkpt lat="33.8103374" lon="-118.3944485">
  <ele>-24.42</ele>
  <time>2026-09-01T01:14:28Z</time>
  <course>53.2</course>
  <speed>0.61</speed>
  <fix>3d</fix>
</trkpt>
<trkpt lat="33.8103385" lon="-118.3944468">
  <ele>-25.02</ele>
  <time>2026-09-01T01:14:28Z</time>
  <course>38.19</course>
  <speed>0.6262587324740471</speed>
  <fix>3d</fix>
</trkpt>
<trkpt lat="33.810338" lon="-118.3944474">
  <ele>-24.42</ele>
  <time>2026-09-01T01:14:28Z</time>
  <course>53.19</course>
  <speed>0.62</speed>
  <fix>3d</fix>
</trkpt>
<trkpt lat="33.8103389" lon="-118.3944462">
  <ele>-25.019</ele>
  <time>2026-09-01T01:14:28Z</time>
  <course>38.3</course>
  <speed>0.6262587324740471</speed>
  <fix>3d</fix>
</trkpt>
<trkpt lat="33.810338" lon="-118.3944474">
  <ele>-24.42</ele>
  <time>2026-09-01T01:14:28Z</time>
  <course>53.19</course>
  <speed>0.62</speed>
  <fix>3d</fix>
</trkpt>
<trkpt lat="33.8103392" lon="-118.3944457">
  <ele>-25.017</ele>
  <time>2026-09-01T01:14:28Z</time>
  <course>38.41</course>
  <speed>0.6341135544995076</speed>
  <fix>3d</fix>
</trkpt>
<trkpt lat="33.8103387" lon="-118.3944463">
  <ele>-24.41</ele>
  <time>2026-09-01T01:14:28Z</time>
  <course>53.18</course>
  <speed>0.62</speed>
  <fix>3d</fix>
</trkpt>
<trkpt lat="33.8103396" lon="-118.3944451">
  <ele>-25.016</ele>
  <time>2026-09-01T01:14:28Z</time>
  <course>38.51</course>
  <speed>0.6403124237432849</speed>
  <fix>3d</fix>
</trkpt>
<trkpt lat="33.8103387" lon="-118.3944463">
  <ele>-24.41</ele>
  <time>2026-09-01T01:14:28Z</time>
  <course>53.18</course>
  <speed>0.62</speed>
  <fix>3d</fix>
</trkpt>
<trkpt lat="33.8103399" lon="-118.3944446">
  <ele>-25.015</ele>
  <time>2026-09-01T01:14:28Z</time>
  <course>38.61</course>
  <speed>0.6403124237432849</speed>
  <fix>3d</fix>
</trkpt>
<trkpt lat="33.8103394" lon="-118.3944452">
  <ele>-24.41</ele>
  <time>2026-09-01T01:14:28Z</time>
  <course>53.13</course>
  <speed>0.63</speed>
  <fix>3d</fix>
</trkpt>
<trkpt lat="33.8103403" lon="-118.394444">
  <ele>-25.014</ele>
  <time>2026-09-01T01:14:28Z</time>
  <course>38.69</course>
  <speed>0.6403124237432849</speed>
  <fix>3d</fix>
</trkpt>
<trkpt lat="33.8103394" lon="-118.3944452">
  <ele>-24.41</ele>
  <time>2026-09-01T01:14:28Z</time>
  <course>53.13</course>
  <speed>0.63</speed>
  <fix>3d</fix>
</trkpt>
<trkpt lat="33.8103406" lon="-118.3944434">
  <ele>-25.013</ele>
  <time>2026-09-01T01:14:28Z</time>
  <course>38.79</course>
  <speed>0.6403124237432849</speed>
  <fix>3d</fix>
</trkpt>
<trkpt lat="33.8103401" lon="-118.3944441">
  <ele>-24.41</ele>
  <time>2026-09-01T01:14:28Z</time>
  <course>53.09</course>
  <speed>0.63</speed>
  <fix>3d</fix>
</trkpt>
<trkpt lat="33.810341" lon="-118.3944429">
  <ele>-25.012</ele>
  <time>2026-09-01T01:14:28Z</time>
  <course>38.88</course>
  <speed>0.6403124237432849</speed>
  <fix>3d</fix>
</trkpt>
<trkpt lat="33.8103401" lon="-118.3944441">
  <ele>-24.41</ele>
  <time>2026-09-01T01:14:28Z</time>
  <course>53.09</course>
  <speed>0.63</speed>
  <fix>3d</fix>
</trkpt>
<trkpt lat="33.8103413" lon="-118.3944423">
  <ele>-25.011</ele>
  <time>2026-09-01T01:14:28Z</time>
  <course>38.98</course>
  <speed>0.6543699259593154</speed>
  <fix>3d</fix>
</trkpt>
<trkpt lat="33.8103408" lon="-118.394443">
  <ele>-24.41</ele>
  <time>2026-09-01T01:14:28Z</time>
  <course>53.09</course>
  <speed>0.64</speed>
  <fix>3d</fix>
</trkpt>
<trkpt lat="33.8103417" lon="-118.3944418">
  <ele>-25.013</ele>
  <time>2026-09-01T01:14:28Z</time>
  <course>39.09</course>
  <speed>0.6543699259593154</speed>
  <fix>3d</fix>
</trkpt>
<trkpt lat="33.8103408" lon="-118.394443">
  <ele>-24.41</ele>
  <time>2026-09-01T01:14:28Z</time>
  <course>53.09</course>
  <speed>0.64</speed>
  <fix>3d</fix>
</trkpt>
<trkpt lat="33.8103421" lon="-118.3944412">
  <ele>-25.015</ele>
  <time>2026-09-01T01:14:28Z</time>
  <course>39.21</course>
  <speed>0.6543699259593154</speed>
  <fix>3d</fix>
</trkpt>
<trkpt lat="33.8103415" lon="-118.3944419">
  <ele>-24.41</ele>
  <time>2026-09-01T01:14:28Z</time>
  <course>53.13</course>
  <speed>0.64</speed>
  <fix>3d</fix>
</trkpt>
<trkpt lat="33.8103424" lon="-118.3944406">
  <ele>-25.015</ele>
  <time>2026-09-01T01:14:28Z</time>
  <course>39.33</course>
  <speed>0.6543699259593154</speed>
  <fix>3d</fix>
</trkpt>
<trkpt lat="33.8103415" lon="-118.3944419">
  <ele>-24.41</ele>
  <time>2026-09-01T01:14:28Z</time>
  <course>53.13</course>
  <speed>0.64</speed>
  <fix>3d</fix>
</trkpt>
<trkpt lat="33.8103428" lon="-118.3944401">
  <ele>-25.016</ele>
  <time>2026-09-01T01:14:28Z</time>
  <course>39.45</course>
  <speed>0.6543699259593154</speed>
  <fix>3d</fix>
</trkpt>
<trkpt lat="33.8103422" lon="-118.3944408">
  <ele>-24.41</ele>
  <time>2026-09-01T01:14:28Z</time>
  <course>53.19</course>
  <speed>0.64</speed>
  <fix>3d</fix>
</trkpt>
<trkpt lat="33.8103431" lon="-118.3944395">
  <ele>-25.017</ele>
  <time>2026-09-01T01:14:28Z</time>
  <course>39.58</course>
  <speed>0.6543699259593154</speed>
  <fix>3d</fix>
</trkpt>
<trkpt lat="33.8103422" lon="-118.3944408">
  <ele>-24.41</ele>
  <time>2026-09-01T01:14:28Z</time>
  <course>53.19</course>
  <speed>0.64</speed>
  <fix>3d</fix>
</trkpt>
<trkpt lat="33.8103435" lon="-118.3944389">
  <ele>-25.018</ele>
  <time>2026-09-01T01:14:28Z</time>
  <course>39.71</course>
  <speed>0.6684309986827361</speed>
  <fix>3d</fix>
</trkpt>
<trkpt lat="33.8103429" lon="-118.3944397">
  <ele>-24.41</ele>
  <time>2026-09-01T01:14:28Z</time>
  <course>53.27</course>
  <speed>0.65</speed>
  <fix>3d</fix>
</trkpt>
<trkpt lat="33.8103439" lon="-118.3944384">
  <ele>-25.018</ele>
  <time>2026-09-01T01:14:28Z</time>
  <course>39.83</course>
  <speed>0.6684309986827361</speed>
  <fix>3d</fix>
</trkpt>
<trkpt lat="33.8103429" lon="-118.3944397">
  <ele>-24.41</ele>
  <time>2026-09-01T01:14:28Z</time>
  <course>53.27</course>
  <speed>0.65</speed>
  <fix>3d</fix>
</trkpt>
<trkpt lat="33.8103442" lon="-118.3944378">
  <ele>-25.018</ele>
  <time>2026-09-01T01:14:28Z</time>
  <course>39.97</course>
  <speed>0.6684309986827361</speed>
  <fix>3d</fix>
</trkpt>
<trkpt lat="33.8103436" lon="-118.3944385">
  <ele>-24.41</ele>
  <time>2026-09-01T01:14:28Z</time>
  <course>53.36</course>
  <speed>0.65</speed>
  <fix>3d</fix>
</trkpt>
<trkpt lat="33.8103446" lon="-118.3944372">
  <ele>-25.016</ele>
  <time>2026-09-01T01:14:28Z</time>
  <course>40.11</course>
  <speed>0.6684309986827361</speed>
  <fix>3d</fix>
</trkpt>
<trkpt lat="33.8103436" lon="-118.3944385">
  <ele>-24.41</ele>
  <time>2026-09-01T01:14:28Z</time>
  <course>53.36</course>
  <speed>0.65</speed>
  <fix>3d</fix>
</trkpt>
<trkpt lat="33.8103449" lon="-118.3944367">
  <ele>-25.015</ele>
  <time>2026-09-01T01:14:28Z</time>
  <course>40.23</course>
  <speed>0.6762396025078685</speed>
  <fix>3d</fix>
</trkpt>
<trkpt lat="33.8103443" lon="-118.3944373">
  <ele>-24.41</ele>
  <time>2026-09-01T01:14:28Z</time>
  <course>53.44</course>
  <speed>0.66</speed>
  <fix>3d</fix>
</trkpt>
<trkpt lat="33.8103453" lon="-118.3944361">
  <ele>-25.013</ele>
  <time>2026-09-01T01:14:28Z</time>
  <course>40.35</course>
  <speed>0.6824954212300622</speed>
  <fix>3d</fix>
</trkpt>
<trkpt lat="33.8103443" lon="-118.3944373">
  <ele>-24.41</ele>
  <time>2026-09-01T01:14:28Z</time>
  <course>53.44</course>
  <speed>0.66</speed>
  <fix>3d</fix>
</trkpt>
<trkpt lat="33.8103457" lon="-118.3944355">
  <ele>-25.014</ele>
  <time>2026-09-01T01:14:28Z</time>
  <course>40.43</course>
  <speed>0.6824954212300622</speed>
  <fix>3d</fix>
</trkpt>
<trkpt lat="33.810345" lon="-118.3944362">
  <ele>-24.41</ele>
  <time>2026-09-01T01:14:28Z</time>
  <course>53.43</course>
  <speed>0.66</speed>
  <fix>3d</fix>
</trkpt>
<trkpt lat="33.810346" lon="-118.3944349">
  <ele>-25.014</ele>
  <time>2026-09-01T01:14:28Z</time>
  <course>40.52</course>
  <speed>0.6824954212300622</speed>
  <fix>3d</fix>
</trkpt>
<trkpt lat="33.810345" lon="-118.3944362">
  <ele>-24.41</ele>
  <time>2026-09-01T01:14:28Z</time>
  <course>53.43</course>
  <speed>0.66</speed>
  <fix>3d</fix>
</trkpt>
<trkpt lat="33.8103464" lon="-118.3944343">
  <ele>-25.015</ele>
  <time>2026-09-01T01:14:28Z</time>
  <course>40.59</course>
  <speed>0.6824954212300622</speed>
  <fix>3d</fix>
</trkpt>
<trkpt lat="33.8103457" lon="-118.394435">
  <ele>-24.41</ele>
  <time>2026-09-01T01:14:28Z</time>
  <course>53.36</course>
  <speed>0.67</speed>
  <fix>3d</fix>
</trkpt>
<trkpt lat="33.8103468" lon="-118.3944337">
  <ele>-25.016</ele>
  <time>2026-09-01T01:14:28Z</time>
  <course>40.67</course>
  <speed>0.688839603971781</speed>
  <fix>3d</fix>
</trkpt>
<trkpt lat="33.8103457" lon="-118.394435">
  <ele>-24.41</ele>
  <time>2026-09-01T01:14:28Z</time>
  <course>53.36</course>
  <speed>0.67</speed>
  <fix>3d</fix>
</trkpt>
<trkpt lat="33.8103471" lon="-118.3944332">
  <ele>-25.016</ele>
  <time>2026-09-01T01:14:28Z</time>
  <course>40.74</course>
  <speed>0.688839603971781</speed>
  <fix>3d</fix>
</trkpt>
<trkpt lat="33.8103464" lon="-118.3944339">
  <ele>-24.41</ele>
  <time>2026-09-01T01:14:28Z</time>
  <course>53.3</course>
  <speed>0.67</speed>
  <fix>3d</fix>
</trkpt>
<trkpt lat="33.8103475" lon="-118.3944326">
  <ele>-25.016</ele>
  <time>2026-09-01T01:14:28Z</time>
  <course>40.81</course>
  <speed>0.6965629906907199</speed>
  <fix>3d</fix>
</trkpt>
<trkpt lat="33.8103464" lon="-118.3944339">
  <ele>-24.41</ele>
  <time>2026-09-01T01:14:28Z</time>
  <course>53.3</course>
  <speed>0.67</speed>
  <fix>3d</fix>
</trkpt>
<trkpt lat="33.8103479" lon="-118.394432">
  <ele>-25.015</ele>
  <time>2026-09-01T01:14:28Z</time>
  <course>40.88</course>
  <speed>0.6965629906907199</speed>
  <fix>3d</fix>
</trkpt>
<trkpt lat="33.8103471" lon="-118.3944327">
  <ele>-24.4</ele>
  <time>2026-09-01T01:14:28Z</time>
  <course>53.24</course>
  <speed>0.68</speed>
  <fix>3d</fix>
</trkpt>
<trkpt lat="33.8103482" lon="-118.3944314">
  <ele>-25.013</ele>
  <time>2026-09-01T01:14:28Z</time>
  <course>40.95</course>
  <speed>0.6965629906907199</speed>
  <fix>3d</fix>
</trkpt>
<trkpt lat="33.8103471" lon="-118.3944327">
  <ele>-24.4</ele>
  <time>2026-09-01T01:14:28Z</time>
  <course>53.24</course>
  <speed>0.68</speed>
  <fix>3d</fix>
</trkpt>
<trkpt lat="33.8103486" lon="-118.3944308">
  <ele>-25.012</ele>
  <time>2026-09-01T01:14:28Z</time>
  <course>41.02</course>
  <speed>0.6965629906907199</speed>
  <fix>3d</fix>
</trkpt>
<trkpt lat="33.8103479" lon="-118.3944316">
  <ele>-24.4</ele>
  <time>2026-09-01T01:14:28Z</time>
  <course>53.17</course>
  <speed>0.68</speed>
  <fix>3d</fix>
</trkpt>
<trkpt lat="33.810349" lon="-118.3944302">
  <ele>-25.01</ele>
  <time>2026-09-01T01:14:28Z</time>
  <course>41.1</course>
  <speed>0.702922470831599</speed>
  <fix>3d</fix>
</trkpt>
<trkpt lat="33.8103479" lon="-118.3944316">
  <ele>-24.4</ele>
  <time>2026-09-01T01:14:28Z</time>
  <course>53.17</course>
  <speed>0.68</speed>
  <fix>3d</fix>
</trkpt>
<trkpt lat="33.8103494" lon="-118.3944296">
  <ele>-25.009</ele>
  <time>2026-09-01T01:14:28Z</time>
  <course>41.2</course>
  <speed>0.702922470831599</speed>
  <fix>3d</fix>
</trkpt>
<trkpt lat="33.8103487" lon="-118.3944304">
  <ele>-24.4</ele>
  <time>2026-09-01T01:14:28Z</time>
  <course>53.17</course>
  <speed>0.69</speed>
  <fix>3d</fix>
</trkpt>
<trkpt lat="33.8103497" lon="-118.394429">
  <ele>-25.01</ele>
  <time>2026-09-01T01:14:28Z</time>
  <course>41.31</course>
  <speed>0.7106335201775947</speed>
  <fix>3d</fix>
</trkpt>
<trkpt lat="33.8103487" lon="-118.3944304">
  <ele>-24.4</ele>
  <time>2026-09-01T01:14:28Z</time>
  <course>53.17</course>
  <speed>0.69</speed>
  <fix>3d</fix>
</trkpt>
<trkpt lat="33.8103501" lon="-118.3944284">
  <ele>-25.011</ele>
  <time>2026-09-01T01:14:28Z</time>
  <course>41.45</course>
  <speed>0.7106335201775947</speed>
  <fix>3d</fix>
</trkpt>
<trkpt lat="33.8103494" lon="-118.3944291">
  <ele>-24.4</ele>
  <time>2026-09-01T01:14:28Z</time>
  <course>53.28</course>
  <speed>0.7</speed>
  <fix>3d</fix>
</trkpt>
<trkpt lat="33.8103505" lon="-118.3944278">
  <ele>-25.012</ele>
  <time>2026-09-01T01:14:28Z</time>
  <course>41.58</course>
  <speed>0.7106335201775947</speed>
  <fix>3d</fix>
</trkpt>
<trkpt lat="33.8103494" lon="-118.3944291">
  <ele>-24.4</ele>
  <time>2026-09-01T01:14:28Z</time>
  <course>53.28</course>
  <speed>0.7</speed>
  <fix>3d</fix>
</trkpt>
<trkpt lat="33.8103509" lon="-118.3944272">
  <ele>-25.013</ele>
  <time>2026-09-01T01:14:28Z</time>
  <course>41.69</course>
  <speed>0.7106335201775947</speed>
  <fix>3d</fix>
</trkpt>
<trkpt lat="33.8103502" lon="-118.3944278">
  <ele>-24.4</ele>
  <time>2026-09-01T01:14:28Z</time>
  <course>53.37</course>
  <speed>0.7</speed>
  <fix>3d</fix>
</trkpt>
<trkpt lat="33.8103513" lon="-118.3944266">
  <ele>-25.013</ele>
  <time>2026-09-01T01:14:28Z</time>
  <course>41.79</course>
  <speed>0.7106335201775947</speed>
  <fix>3d</fix>
</trkpt>
<trkpt lat="33.8103502" lon="-118.3944278">
  <ele>-24.4</ele>
  <time>2026-09-01T01:14:28Z</time>
  <course>53.37</course>
  <speed>0.7</speed>
  <fix>3d</fix>
</trkpt>
<trkpt lat="33.8103517" lon="-118.394426">
  <ele>-25.013</ele>
  <time>2026-09-01T01:14:28Z</time>
  <course>41.86</course>
  <speed>0.7106335201775947</speed>
  <fix>3d</fix>
</trkpt>
<trkpt lat="33.8103509" lon="-118.3944267">
  <ele>-24.41</ele>
  <time>2026-09-01T01:14:28Z</time>
  <course>53.37</course>
  <speed>0.7</speed>
  <fix>3d</fix>
</trkpt>
<trkpt lat="33.810352" lon="-118.3944254">
  <ele>-25.012</ele>
  <time>2026-09-01T01:14:28Z</time>
  <course>41.92</course>
  <speed>0.717007670809734</speed>
  <fix>3d</fix>
</trkpt>
<trkpt lat="33.8103509" lon="-118.3944267">
  <ele>-24.41</ele>
  <time>2026-09-01T01:14:28Z</time>
  <course>53.37</course>
  <speed>0.7</speed>
  <fix>3d</fix>
</trkpt>
<trkpt lat="33.8103524" lon="-118.3944248">
  <ele>-25.012</ele>
  <time>2026-09-01T01:14:28Z</time>
  <course>41.98</course>
  <speed>0.717007670809734</speed>
  <fix>3d</fix>
</trkpt>
<trkpt lat="33.8103517" lon="-118.3944254">
  <ele>-24.41</ele>
  <time>2026-09-01T01:14:28Z</time>
  <course>53.34</course>
  <speed>0.7</speed>
  <fix>3d</fix>
</trkpt>
<trkpt lat="33.8103528" lon="-118.3944241">
  <ele>-25.014</ele>
  <time>2026-09-01T01:14:28Z</time>
  <course>42.05</course>
  <speed>0.717007670809734</speed>
  <fix>3d</fix>
</trkpt>
<trkpt lat="33.8103517" lon="-118.3944254">
  <ele>-24.41</ele>
  <time>2026-09-01T01:14:28Z</time>
  <course>53.34</course>
  <speed>0.7</speed>
  <fix>3d</fix>
</trkpt>
<trkpt lat="33.8103532" lon="-118.3944235">
  <ele>-25.015</ele>
  <time>2026-09-01T01:14:28Z</time>
  <course>42.12</course>
  <speed>0.717007670809734</speed>
  <fix>3d</fix>
</trkpt>
<trkpt lat="33.8103524" lon="-118.3944242">
  <ele>-24.41</ele>
  <time>2026-09-01T01:14:28Z</time>
  <course>53.32</course>
  <speed>0.71</speed>
  <fix>3d</fix>
</trkpt>
<trkpt lat="33.8103536" lon="-118.3944229">
  <ele>-25.016</ele>
  <time>2026-09-01T01:14:28Z</time>
  <course>42.19</course>
  <speed>0.7247068372797375</speed>
  <fix>3d</fix>
</trkpt>
<trkpt lat="33.8103524" lon="-118.3944242">
  <ele>-24.41</ele>
  <time>2026-09-01T01:14:28Z</time>
  <course>53.32</course>
  <speed>0.71</speed>
  <fix>3d</fix>
</trkpt>
<trkpt lat="33.810354" lon="-118.3944223">
  <ele>-25.016</ele>
  <time>2026-09-01T01:14:28Z</time>
  <course>42.24</course>
  <speed>0.7247068372797375</speed>
  <fix>3d</fix>
</trkpt>
<trkpt lat="33.8103532" lon="-118.394423">
  <ele>-24.41</ele>
  <time>2026-09-01T01:14:28Z</time>
  <course>53.27</course>
  <speed>0.71</speed>
  <fix>3d</fix>
</trkpt>
<trkpt lat="33.8103544" lon="-118.3944217">
  <ele>-25.016</ele>
  <time>2026-09-01T01:14:28Z</time>
  <course>42.31</course>
  <speed>0.7247068372797375</speed>
  <fix>3d</fix>
</trkpt>
<trkpt lat="33.8103532" lon="-118.394423">
  <ele>-24.41</ele>
  <time>2026-09-01T01:14:28Z</time>
  <course>53.27</course>
  <speed>0.71</speed>
  <fix>3d</fix>
</trkpt>
<trkpt lat="33.8103547" lon="-118.394421">
  <ele>-25.014</ele>
  <time>2026-09-01T01:14:28Z</time>
  <course>42.38</course>
  <speed>0.7247068372797375</speed>
  <fix>3d</fix>
</trkpt>
<trkpt lat="33.810354" lon="-118.3944217">
  <ele>-24.41</ele>
  <time>2026-09-01T01:14:28Z</time>
  <course>53.23</course>
  <speed>0.71</speed>
  <fix>3d</fix>
</trkpt>
<trkpt lat="33.8103551" lon="-118.3944204">
  <ele>-25.014</ele>
  <time>2026-09-01T01:14:28Z</time>
  <course>42.46</course>
  <speed>0.7310950690573697</speed>
  <fix>3d</fix>
</trkpt>
<trkpt lat="33.810354" lon="-118.3944217">
  <ele>-24.41</ele>
  <time>2026-09-01T01:14:28Z</time>
  <course>53.23</course>
  <speed>0.71</speed>
  <fix>3d</fix>
</trkpt>
<trkpt lat="33.8103555" lon="-118.3944198">
  <ele>-25.014</ele>
  <time>2026-09-01T01:14:28Z</time>
  <course>42.53</course>
  <speed>0.7310950690573697</speed>
  <fix>3d</fix>
</trkpt>
<trkpt lat="33.8103548" lon="-118.3944205">
  <ele>-24.41</ele>
  <time>2026-09-01T01:14:28Z</time>
  <course>53.21</course>
  <speed>0.72</speed>
  <fix>3d</fix>
</trkpt>
<trkpt lat="33.8103559" lon="-118.3944192">
  <ele>-25.015</ele>
  <time>2026-09-01T01:14:28Z</time>
  <course>42.61</course>
  <speed>0.7310950690573697</speed>
  <fix>3d</fix>
</trkpt>
<trkpt lat="33.8103548" lon="-118.3944205">
  <ele>-24.41</ele>
  <time>2026-09-01T01:14:28Z</time>
  <course>53.21</course>
  <speed>0.72</speed>
  <fix>3d</fix>
</trkpt>
<trkpt lat="33.8103563" lon="-118.3944185">
  <ele>-25.016</ele>
  <time>2026-09-01T01:14:28Z</time>
  <course>42.7</course>
  <speed>0.7310950690573697</speed>
  <fix>3d</fix>
</trkpt>
<trkpt lat="33.8103555" lon="-118.3944192">
  <ele>-24.41</ele>
  <time>2026-09-01T01:14:28Z</time>
  <course>53.24</course>
  <speed>0.72</speed>
  <fix>3d</fix>
</trkpt>
<trkpt lat="33.8103567" lon="-118.3944179">
  <ele>-25.016</ele>
  <time>2026-09-01T01:14:28Z</time>
  <course>42.8</course>
  <speed>0.7387827826905551</speed>
  <fix>3d</fix>
</trkpt>
<trkpt lat="33.8103555" lon="-118.3944192">
  <ele>-24.41</ele>
  <time>2026-09-01T01:14:28Z</time>
  <course>53.24</course>
  <speed>0.72</speed>
  <fix>3d</fix>
</trkpt>
<trkpt lat="33.8103571" lon="-118.3944173">
  <ele>-25.016</ele>
  <time>2026-09-01T01:14:28Z</time>
  <course>42.88</course>
  <speed>0.7387827826905551</speed>
  <fix>3d</fix>
</trkpt>
<trkpt lat="33.8103563" lon="-118.394418">
  <ele>-24.41</ele>
  <time>2026-09-01T01:14:28Z</time>
  <course>53.24</course>
  <speed>0.72</speed>
  <fix>3d</fix>
</trkpt>
<trkpt lat="33.8103575" lon="-118.3944167">
  <ele>-25.017</ele>
  <time>2026-09-01T01:14:28Z</time>
  <course>42.95</course>
  <speed>0.7387827826905551</speed>
  <fix>3d</fix>
</trkpt>
<trkpt lat="33.8103563" lon="-118.394418">
  <ele>-24.41</ele>
  <time>2026-09-01T01:14:28Z</time>
  <course>53.24</course>
  <speed>0.72</speed>
  <fix>3d</fix>
</trkpt>
<trkpt lat="33.8103579" lon="-118.394416">
  <ele>-25.018</ele>
  <time>2026-09-01T01:14:28Z</time>
  <course>43.03</course>
  <speed>0.7387827826905551</speed>
  <fix>3d</fix>
</trkpt>
<trkpt lat="33.8103571" lon="-118.3944167">
  <ele>-24.4</ele>
  <time>2026-09-01T01:14:28Z</time>
  <course>53.2</course>
  <speed>0.73</speed>
  <fix>3d</fix>
</trkpt>
<trkpt lat="33.8103583" lon="-118.3944154">
  <ele>-25.019</ele>
  <time>2026-09-01T01:14:28Z</time>
  <course>43.1</course>
  <speed>0.7451845409024532</speed>
  <fix>3d</fix>
</trkpt>
<trkpt lat="33.8103571" lon="-118.3944167">
  <ele>-24.4</ele>
  <time>2026-09-01T01:14:28Z</time>
  <course>53.2</course>
  <speed>0.73</speed>
  <fix>3d</fix>
</trkpt>
<trkpt lat="33.8103587" lon="-118.3944147">
  <ele>-25.017</ele>
  <time>2026-09-01T01:14:28Z</time>
  <course>43.18</course>
  <speed>0.7451845409024532</speed>
  <fix>3d</fix>
</trkpt>
<trkpt lat="33.8103579" lon="-118.3944154">
  <ele>-24.4</ele>
  <time>2026-09-01T01:14:28Z</time>
  <course>53.16</course>
  <speed>0.73</speed>
  <fix>3d</fix>
</trkpt>
<trkpt lat="33.8103591" lon="-118.3944141">
  <ele>-25.015</ele>
  <time>2026-09-01T01:14:28Z</time>
  <course>43.26</course>
  <speed>0.7451845409024532</speed>
  <fix>3d</fix>
</trkpt>
<trkpt lat="33.8103579" lon="-118.3944154">
  <ele>-24.4</ele>
  <time>2026-09-01T01:14:28Z</time>
  <course>53.16</course>
  <speed>0.73</speed>
  <fix>3d</fix>
</trkpt>
<trkpt lat="33.8103595" lon="-118.3944135">
  <ele>-25.013</ele>
  <time>2026-09-01T01:14:28Z</time>
  <course>43.33</course>
  <speed>0.7451845409024532</speed>
  <fix>3d</fix>
</trkpt>
<trkpt lat="33.8103586" lon="-118.3944141">
  <ele>-24.4</ele>
  <time>2026-09-01T01:14:28Z</time>
  <course>53.12</course>
  <speed>0.74</speed>
  <fix>3d</fix>
</trkpt>
<trkpt lat="33.8103599" lon="-118.3944128">
  <ele>-25.011</ele>
  <time>2026-09-01T01:14:28Z</time>
  <course>43.4</course>
  <speed>0.7528612089887484</speed>
  <fix>3d</fix>
</trkpt>
<trkpt lat="33.8103586" lon="-118.3944141">
  <ele>-24.4</ele>
  <time>2026-09-01T01:14:28Z</time>
  <course>53.12</course>
  <speed>0.74</speed>
  <fix>3d</fix>
</trkpt>
<trkpt lat="33.8103603" lon="-118.3944122">
  <ele>-25.01</ele>
  <time>2026-09-01T01:14:28Z</time>
  <course>43.45</course>
  <speed>0.7528612089887484</speed>
  <fix>3d</fix>
</trkpt>
<trkpt lat="33.8103595" lon="-118.3944129">
  <ele>-24.4</ele>
  <time>2026-09-01T01:14:28Z</time>
  <course>53.03</course>
  <speed>0.74</speed>
  <fix>3d</fix>
</trkpt>
<trkpt lat="33.8103607" lon="-118.3944115">
  <ele>-25.008</ele>
  <time>2026-09-01T01:14:28Z</time>
  <course>43.49</course>
  <speed>0.7528612089887484</speed>
  <fix>3d</fix>
</trkpt>
<trkpt lat="33.8103595" lon="-118.3944129">
  <ele>-24.4</ele>
  <time>2026-09-01T01:14:28Z</time>
  <course>53.03</course>
  <speed>0.74</speed>
  <fix>3d</fix>
</trkpt>
<trkpt lat="33.8103611" lon="-118.3944109">
  <ele>-25.007</ele>
  <time>2026-09-01T01:14:28Z</time>
  <course>43.55</course>
  <speed>0.7528612089887484</speed>
  <fix>3d</fix>
</trkpt>
<trkpt lat="33.8103603" lon="-118.3944116">
  <ele>-24.4</ele>
  <time>2026-09-01T01:14:28Z</time>
  <course>52.96</course>
  <speed>0.74</speed>
  <fix>3d</fix>
</trkpt>
<trkpt lat="33.8103615" lon="-118.3944102">
  <ele>-25.008</ele>
  <time>2026-09-01T01:14:28Z</time>
  <course>43.65</course>
  <speed>0.7592759709091287</speed>
  <fix>3d</fix>
</trkpt>
<trkpt lat="33.8103603" lon="-118.3944116">
  <ele>-24.4</ele>
  <time>2026-09-01T01:14:28Z</time>
  <course>52.96</course>
  <speed>0.74</speed>
  <fix>3d</fix>
</trkpt>
<trkpt lat="33.8103619" lon="-118.3944096">
  <ele>-25.008</ele>
  <time>2026-09-01T01:14:28Z</time>
  <course>43.74</course>
  <speed>0.7592759709091287</speed>
  <fix>3d</fix>
</trkpt>
<trkpt lat="33.810361" lon="-118.3944103">
  <ele>-24.4</ele>
  <time>2026-09-01T01:14:28Z</time>
  <course>52.98</course>
  <speed>0.75</speed>
  <fix>3d</fix>
</trkpt>
<trkpt lat="33.8103623" lon="-118.3944089">
  <ele>-25.009</ele>
  <time>2026-09-01T01:14:28Z</time>
  <course>43.84</course>
  <speed>0.7592759709091287</speed>
  <fix>3d</fix>
</trkpt>
<trkpt lat="33.810361" lon="-118.3944103">
  <ele>-24.4</ele>
  <time>2026-09-01T01:14:28Z</time>
  <course>52.98</course>
  <speed>0.75</speed>
  <fix>3d</fix>
</trkpt>
<trkpt lat="33.8103627" lon="-118.3944083">
  <ele>-25.01</ele>
  <time>2026-09-01T01:14:28Z</time>
  <course>43.92</course>
  <speed>0.7669419795525605</speed>
  <fix>3d</fix>
</trkpt>
<trkpt lat="33.8103619" lon="-118.394409">
  <ele>-24.4</ele>
  <time>2026-09-01T01:14:28Z</time>
  <course>52.95</course>
  <speed>0.75</speed>
  <fix>3d</fix>
</trkpt>
<trkpt lat="33.8103631" lon="-118.3944076">
  <ele>-25.011</ele>
  <time>2026-09-01T01:14:28Z</time>
  <course>43.99</course>
  <speed>0.7669419795525605</speed>
  <fix>3d</fix>
</trkpt>
<trkpt lat="33.8103619" lon="-118.394409">
  <ele>-24.4</ele>
  <time>2026-09-01T01:14:28Z</time>
  <course>52.95</course>
  <speed>0.75</speed>
  <fix>3d</fix>
</trkpt>
<trkpt lat="33.8103636" lon="-118.394407">
  <ele>-25.012</ele>
  <time>2026-09-01T01:14:28Z</time>
  <course>44.07</course>
  <speed>0.7669419795525605</speed>
  <fix>3d</fix>
</trkpt>
<trkpt lat="33.8103627" lon="-118.3944077">
  <ele>-24.4</ele>
  <time>2026-09-01T01:14:28Z</time>
  <course>52.89</course>
  <speed>0.75</speed>
  <fix>3d</fix>
</trkpt>
<trkpt lat="33.810364" lon="-118.3944063">
  <ele>-25.013</ele>
  <time>2026-09-01T01:14:28Z</time>
  <course>44.15</course>
  <speed>0.7669419795525605</speed>
  <fix>3d</fix>
</trkpt>
<trkpt lat="33.8103627" lon="-118.3944077">
  <ele>-24.4</ele>
  <time>2026-09-01T01:14:28Z</time>
  <course>52.89</course>
  <speed>0.75</speed>
  <fix>3d</fix>
</trkpt>
<trkpt lat="33.8103644" lon="-118.3944057">
  <ele>-25.013</ele>
  <time>2026-09-01T01:14:28Z</time>
  <course>44.24</course>
  <speed>0.7669419795525605</speed>
  <fix>3d</fix>
</trkpt>
<trkpt lat="33.8103636" lon="-118.3944064">
  <ele>-24.41</ele>
  <time>2026-09-01T01:14:28Z</time>
  <course>52.88</course>
  <speed>0.76</speed>
  <fix>3d</fix>
</trkpt>
<trkpt lat="33.8103648" lon="-118.394405">
  <ele>-25.015</ele>
  <time>2026-09-01T01:14:28Z</time>
  <course>44.33</course>
  <speed>0.7669419795525605</speed>
  <fix>3d</fix>
</trkpt>
<trkpt lat="33.8103636" lon="-118.3944064">
  <ele>-24.41</ele>
  <time>2026-09-01T01:14:28Z</time>
  <course>52.88</course>
  <speed>0.76</speed>
  <fix>3d</fix>
</trkpt>
<trkpt lat="33.8103652" lon="-118.3944043">
  <ele>-25.016</ele>
  <time>2026-09-01T01:14:28Z</time>
  <course>44.44</course>
  <speed>0.7669419795525605</speed>
  <fix>3d</fix>
</trkpt>
<trkpt lat="33.8103644" lon="-118.394405">
  <ele>-24.41</ele>
  <time>2026-09-01T01:14:28Z</time>
  <course>52.92</course>
  <speed>0.76</speed>
  <fix>3d</fix>
</trkpt>
<trkpt lat="33.8103656" lon="-118.3944037">
  <ele>-25.017</ele>
  <time>2026-09-01T01:14:28Z</time>
  <course>44.55</course>
  <speed>0.7669419795525605</speed>
  <fix>3d</fix>
</trkpt>
<trkpt lat="33.8103644" lon="-118.394405">
  <ele>-24.41</ele>
  <time>2026-09-01T01:14:28Z</time>
  <course>52.92</course>
  <speed>0.76</speed>
  <fix>3d</fix>
</trkpt>
<trkpt lat="33.810366" lon="-118.394403">
  <ele>-25.017</ele>
  <time>2026-09-01T01:14:28Z</time>
  <course>44.65</course>
  <speed>0.7746612162745725</speed>
  <fix>3d</fix>
</trkpt>
<trkpt lat="33.8103652" lon="-118.3944037">
  <ele>-24.41</ele>
  <time>2026-09-01T01:14:28Z</time>
  <course>52.97</course>
  <speed>0.76</speed>
  <fix>3d</fix>
</trkpt>
<trkpt lat="33.8103665" lon="-118.3944023">
  <ele>-25.016</ele>
  <time>2026-09-01T01:14:28Z</time>
  <course>44.74</course>
  <speed>0.7810249675906654</speed>
  <fix>3d</fix>
</trkpt>
<trkpt lat="33.8103652" lon="-118.3944037">
  <ele>-24.41</ele>
  <time>2026-09-01T01:14:28Z</time>
  <course>52.97</course>
  <speed>0.76</speed>
  <fix>3d</fix>
</trkpt>
<trkpt lat="33.8103669" lon="-118.3944017">
  <ele>-25.015</ele>
  <time>2026-09-01T01:14:28Z</time>
  <course>44.82</course>
  <speed>0.7810249675906654</speed>
  <fix>3d</fix>
</trkpt>
<trkpt lat="33.810366" lon="-118.3944024">
  <ele>-24.41</ele>
  <time>2026-09-01T01:14:28Z</time>
  <course>52.96</course>
  <speed>0.77</speed>
  <fix>3d</fix>
</trkpt>
<trkpt lat="33.8103673" lon="-118.394401">
  <ele>-25.014</ele>
  <time>2026-09-01T01:14:28Z</time>
  <course>44.89</course>
  <speed>0.7810249675906654</speed>
  <fix>3d</fix>
</trkpt>
<trkpt lat="33.810366" lon="-118.3944024">
  <ele>-24.41</ele>
  <time>2026-09-01T01:14:28Z</time>
  <course>52.96</course>
  <speed>0.77</speed>
  <fix>3d</fix>
</trkpt>
<trkpt lat="33.8103677" lon="-118.3944003">
  <ele>-25.013</ele>
  <time>2026-09-01T01:14:28Z</time>
  <course>44.96</course>
  <speed>0.7810249675906654</speed>
  <fix>3d</fix>
</trkpt>
<trkpt lat="33.8103669" lon="-118.3944011">
  <ele>-24.41</ele>
  <time>2026-09-01T01:14:28Z</time>
  <course>52.92</course>
  <speed>0.77</speed>
  <fix>3d</fix>
</trkpt>
<trkpt lat="33.8103681" lon="-118.3943997">
  <ele>-25.013</ele>
  <time>2026-09-01T01:14:28Z</time>
  <course>45.04</course>
  <speed>0.7810249675906654</speed>
  <fix>3d</fix>
</trkpt>
<trkpt lat="33.8103669" lon="-118.3944011">
  <ele>-24.41</ele>
  <time>2026-09-01T01:14:28Z</time>
  <course>52.92</course>
  <speed>0.77</speed>
  <fix>3d</fix>
</trkpt>
<trkpt lat="33.8103686" lon="-118.394399">
  <ele>-25.013</ele>
  <time>2026-09-01T01:14:28Z</time>
  <course>45.12</course>
  <speed>0.7810249675906654</speed>
  <fix>3d</fix>
</trkpt>
<trkpt lat="33.8103677" lon="-118.3943997">
  <ele>-24.4</ele>
  <time>2026-09-01T01:14:28Z</time>
  <course>52.91</course>
  <speed>0.77</speed>
  <fix>3d</fix>
</trkpt>
<trkpt lat="33.810369" lon="-118.3943983">
  <ele>-25.012</ele>
  <time>2026-09-01T01:14:28Z</time>
  <course>45.22</course>
  <speed>0.7887331614684399</speed>
  <fix>3d</fix>
</trkpt>
<trkpt lat="33.8103677" lon="-118.3943997">
  <ele>-24.4</ele>
  <time>2026-09-01T01:14:28Z</time>
  <course>52.91</course>
  <speed>0.77</speed>
  <fix>3d</fix>
</trkpt>
<trkpt lat="33.8103694" lon="-118.3943976">
  <ele>-25.012</ele>
  <time>2026-09-01T01:14:28Z</time>
  <course>45.31</course>
  <speed>0.7887331614684399</speed>
  <fix>3d</fix>
</trkpt>
<trkpt lat="33.8103686" lon="-118.3943984">
  <ele>-24.4</ele>
  <time>2026-09-01T01:14:28Z</time>
  <course>52.92</course>
  <speed>0.78</speed>
  <fix>3d</fix>
</trkpt>
<trkpt lat="33.8103698" lon="-118.394397">
  <ele>-25.012</ele>
  <time>2026-09-01T01:14:28Z</time>
  <course>45.4</course>
  <speed>0.7887331614684399</speed>
  <fix>3d</fix>
</trkpt>
<trkpt lat="33.8103686" lon="-118.3943984">
  <ele>-24.4</ele>
  <time>2026-09-01T01:14:28Z</time>
  <course>52.92</course>
  <speed>0.78</speed>
  <fix>3d</fix>
</trkpt>
<trkpt lat="33.8103703" lon="-118.3943963">
  <ele>-25.012</ele>
  <time>2026-09-01T01:14:28Z</time>
  <course>45.49</course>
  <speed>0.7887331614684399</speed>
  <fix>3d</fix>
</trkpt>
<trkpt lat="33.8103694" lon="-118.394397">
  <ele>-24.4</ele>
  <time>2026-09-01T01:14:28Z</time>
  <course>52.93</course>
  <speed>0.78</speed>
  <fix>3d</fix>
</trkpt>
<trkpt lat="33.8103707" lon="-118.3943956">
  <ele>-25.012</ele>
  <time>2026-09-01T01:14:28Z</time>
  <course>45.58</course>
  <speed>0.7951100552753688</speed>
  <fix>3d</fix>
</trkpt>
<trkpt lat="33.8103694" lon="-118.394397">
  <ele>-24.4</ele>
  <time>2026-09-01T01:14:28Z</time>
  <course>52.93</course>
  <speed>0.78</speed>
  <fix>3d</fix>
</trkpt>
<trkpt lat="33.8103711" lon="-118.3943949">
  <ele>-25.013</ele>
  <time>2026-09-01T01:14:28Z</time>
  <course>45.67</course>
  <speed>0.7951100552753688</speed>
  <fix>3d</fix>
</trkpt>
<trkpt lat="33.8103703" lon="-118.3943957">
  <ele>-24.4</ele>
  <time>2026-09-01T01:14:28Z</time>
  <course>52.94</course>
  <speed>0.78</speed>
  <fix>3d</fix>
</trkpt>
<trkpt lat="33.8103715" lon="-118.3943942">
  <ele>-25.013</ele>
  <time>2026-09-01T01:14:28Z</time>
  <course>45.76</course>
  <speed>0.7951100552753688</speed>
  <fix>3d</fix>
</trkpt>
<trkpt lat="33.8103703" lon="-118.3943957">
  <ele>-24.4</ele>
  <time>2026-09-01T01:14:28Z</time>
  <course>52.94</course>
  <speed>0.78</speed>
  <fix>3d</fix>
</trkpt>
<trkpt lat="33.810372" lon="-118.3943936">
  <ele>-25.014</ele>
  <time>2026-09-01T01:14:28Z</time>
  <course>45.85</course>
  <speed>0.802807573457052</speed>
  <fix>3d</fix>
</trkpt>
<trkpt lat="33.8103711" lon="-118.3943943">
  <ele>-24.41</ele>
  <time>2026-09-01T01:14:28Z</time>
  <course>52.96</course>
  <speed>0.79</speed>
  <fix>3d</fix>
</trkpt>
<trkpt lat="33.8103724" lon="-118.3943929">
  <ele>-25.014</ele>
  <time>2026-09-01T01:14:28Z</time>
  <course>45.95</course>
  <speed>0.802807573457052</speed>
  <fix>3d</fix>
</trkpt>
<trkpt lat="33.8103711" lon="-118.3943943">
  <ele>-24.41</ele>
  <time>2026-09-01T01:14:28Z</time>
  <course>52.96</course>
  <speed>0.79</speed>
  <fix>3d</fix>
</trkpt>
<trkpt lat="33.8103728" lon="-118.3943922">
  <ele>-25.014</ele>
  <time>2026-09-01T01:14:28Z</time>
  <course>46.04</course>
  <speed>0.802807573457052</speed>
  <fix>3d</fix>
</trkpt>
<trkpt lat="33.810372" lon="-118.394393">
  <ele>-24.41</ele>
  <time>2026-09-01T01:14:28Z</time>
  <course>52.99</course>
  <speed>0.79</speed>
  <fix>3d</fix>
</trkpt>
<trkpt lat="33.8103733" lon="-118.3943915">
  <ele>-25.015</ele>
  <time>2026-09-01T01:14:28Z</time>
  <course>46.12</course>
  <speed>0.802807573457052</speed>
  <fix>3d</fix>
</trkpt>
<trkpt lat="33.810372" lon="-118.394393">
  <ele>-24.41</ele>
  <time>2026-09-01T01:14:28Z</time>
  <course>52.99</course>
  <speed>0.79</speed>
  <fix>3d</fix>
</trkpt>
<trkpt lat="33.8103737" lon="-118.3943908">
  <ele>-25.016</ele>
  <time>2026-09-01T01:14:28Z</time>
  <course>46.21</course>
  <speed>0.802807573457052</speed>
  <fix>3d</fix>
</trkpt>
<trkpt lat="33.8103728" lon="-118.3943916">
  <ele>-24.41</ele>
  <time>2026-09-01T01:14:28Z</time>
  <course>53.01</course>
  <speed>0.79</speed>
  <fix>3d</fix>
</trkpt>
<trkpt lat="33.8103741" lon="-118.3943901">
  <ele>-25.018</ele>
  <time>2026-09-01T01:14:28Z</time>
  <course>46.31</course>
  <speed>0.802807573457052</speed>
  <fix>3d</fix>
</trkpt>
<trkpt lat="33.8103728" lon="-118.3943916">
  <ele>-24.41</ele>
  <time>2026-09-01T01:14:28Z</time>
  <course>53.01</course>
  <speed>0.79</speed>
  <fix>3d</fix>
</trkpt>
<trkpt lat="33.8103745" lon="-118.3943894">
  <ele>-25.018</ele>
  <time>2026-09-01T01:14:28Z</time>
  <course>46.39</course>
  <speed>0.802807573457052</speed>
  <fix>3d</fix>
</trkpt>
<trkpt lat="33.8103737" lon="-118.3943902">
  <ele>-24.41</ele>
  <time>2026-09-01T01:14:28Z</time>
  <course>53.05</course>
  <speed>0.79</speed>
  <fix>3d</fix>
</trkpt>
<trkpt lat="33.810375" lon="-118.3943887">
  <ele>-25.018</ele>
  <time>2026-09-01T01:14:28Z</time>
  <course>46.47</course>
  <speed>0.802807573457052</speed>
  <fix>3d</fix>
</trkpt>
<trkpt lat="33.8103737" lon="-118.3943902">
  <ele>-24.41</ele>
  <time>2026-09-01T01:14:28Z</time>
  <course>53.05</course>
  <speed>0.79</speed>
  <fix>3d</fix>
</trkpt>
<trkpt lat="33.8103754" lon="-118.394388">
  <ele>-25.017</ele>
  <time>2026-09-01T01:14:28Z</time>
  <course>46.55</course>
  <speed>0.8105553651663777</speed>
  <fix>3d</fix>
</trkpt>
<trkpt lat="33.8103746" lon="-118.3943888">
  <ele>-24.4</ele>
  <time>2026-09-01T01:14:28Z</time>
  <course>53.04</course>
  <speed>0.8</speed>
  <fix>3d</fix>
</trkpt>
<trkpt lat="33.8103758" lon="-118.3943873">
  <ele>-25.015</ele>
  <time>2026-09-01T01:14:28Z</time>
  <course>46.63</course>
  <speed>0.8105553651663777</speed>
  <fix>3d</fix>
</trkpt>
<trkpt lat="33.8103746" lon="-118.3943888">
  <ele>-24.4</ele>
  <time>2026-09-01T01:14:28Z</time>
  <course>53.04</course>
  <speed>0.8</speed>
  <fix>3d</fix>
</trkpt>
<trkpt lat="33.8103763" lon="-118.3943866">
  <ele>-25.014</ele>
  <time>2026-09-01T01:14:28Z</time>
  <course>46.7</course>
  <speed>0.8105553651663777</speed>
  <fix>3d</fix>
</trkpt>
<trkpt lat="33.8103754" lon="-118.3943874">
  <ele>-24.4</ele>
  <time>2026-09-01T01:14:28Z</time>
  <course>53.04</course>
  <speed>0.8</speed>
  <fix>3d</fix>
</trkpt>
<trkpt lat="33.8103767" lon="-118.3943859">
  <ele>-25.013</ele>
  <time>2026-09-01T01:14:28Z</time>
  <course>46.77</course>
  <speed>0.816884324736373</speed>
  <fix>3d</fix>
</trkpt>
<trkpt lat="33.8103754" lon="-118.3943874">
  <ele>-24.4</ele>
  <time>2026-09-01T01:14:28Z</time>
  <course>53.04</course>
  <speed>0.8</speed>
  <fix>3d</fix>
</trkpt>
<trkpt lat="33.8103772" lon="-118.3943852">
  <ele>-25.013</ele>
  <time>2026-09-01T01:14:28Z</time>
  <course>46.83</course>
  <speed>0.816884324736373</speed>
  <fix>3d</fix>
</trkpt>
<trkpt lat="33.8103763" lon="-118.3943861">
  <ele>-24.4</ele>
  <time>2026-09-01T01:14:28Z</time>
  <course>53.03</course>
  <speed>0.8</speed>
  <fix>3d</fix>
</trkpt>
<trkpt lat="33.8103776" lon="-118.3943845">
  <ele>-25.012</ele>
  <time>2026-09-01T01:14:28Z</time>
  <course>46.89</course>
  <speed>0.816884324736373</speed>
  <fix>3d</fix>
</trkpt>
<trkpt lat="33.8103763" lon="-118.3943861">
  <ele>-24.4</ele>
  <time>2026-09-01T01:14:28Z</time>
  <course>53.03</course>
  <speed>0.8</speed>
  <fix>3d</fix>
</trkpt>
<trkpt lat="33.810378" lon="-118.3943838">
  <ele>-25.012</ele>
  <time>2026-09-01T01:14:28Z</time>
  <course>46.97</course>
  <speed>0.816884324736373</speed>
  <fix>3d</fix>
</trkpt>
<trkpt lat="33.8103772" lon="-118.3943847">
  <ele>-24.4</ele>
  <time>2026-09-01T01:14:28Z</time>
  <course>53.03</course>
  <speed>0.81</speed>
  <fix>3d</fix>
</trkpt>
<trkpt lat="33.8103785" lon="-118.3943831">
  <ele>-25.012</ele>
  <time>2026-09-01T01:14:28Z</time>
  <course>47.06</course>
  <speed>0.8246211251235321</speed>
  <fix>3d</fix>
</trkpt>
<trkpt lat="33.8103772" lon="-118.3943847">
  <ele>-24.4</ele>
  <time>2026-09-01T01:14:28Z</time>
  <course>53.03</course>
  <speed>0.81</speed>
  <fix>3d</fix>
</trkpt>
<trkpt lat="33.8103789" lon="-118.3943824">
  <ele>-25.012</ele>
  <time>2026-09-01T01:14:28Z</time>
  <course>47.15</course>
  <speed>0.8246211251235321</speed>
  <fix>3d</fix>
</trkpt>
<trkpt lat="33.810378" lon="-118.3943832">
  <ele>-24.4</ele>
  <time>2026-09-01T01:14:28Z</time>
  <course>53.07</course>
  <speed>0.81</speed>
  <fix>3d</fix>
</trkpt>
<trkpt lat="33.8103794" lon="-118.3943817">
  <ele>-25.012</ele>
  <time>2026-09-01T01:14:28Z</time>
  <course>47.24</course>
  <speed>0.8246211251235321</speed>
  <fix>3d</fix>
</trkpt>
<trkpt lat="33.810378" lon="-118.3943832">
  <ele>-24.4</ele>
  <time>2026-09-01T01:14:28Z</time>
  <course>53.07</course>
  <speed>0.81</speed>
  <fix>3d</fix>
</trkpt>
<trkpt lat="33.8103798" lon="-118.394381">
  <ele>-25.011</ele>
  <time>2026-09-01T01:14:28Z</time>
  <course>47.3</course>
  <speed>0.8246211251235321</speed>
  <fix>3d</fix>
</trkpt>
<trkpt lat="33.8103789" lon="-118.3943818">
  <ele>-24.4</ele>
  <time>2026-09-01T01:14:28Z</time>
  <course>53.08</course>
  <speed>0.81</speed>
  <fix>3d</fix>
</trkpt>
<trkpt lat="33.8103802" lon="-118.3943803">
  <ele>-25.01</ele>
  <time>2026-09-01T01:14:28Z</time>
  <course>47.35</course>
  <speed>0.8246211251235321</speed>
  <fix>3d</fix>
</trkpt>
<trkpt lat="33.8103789" lon="-118.3943818">
  <ele>-24.4</ele>
  <time>2026-09-01T01:14:28Z</time>
  <course>53.08</course>
  <speed>0.81</speed>
  <fix>3d</fix>
</trkpt>
<trkpt lat="33.8103807" lon="-118.3943796">
  <ele>-25.01</ele>
  <time>2026-09-01T01:14:28Z</time>
  <course>47.39</course>
  <speed>0.8246211251235321</speed>
  <fix>3d</fix>
</trkpt>
<trkpt lat="33.8103798" lon="-118.3943804">
  <ele>-24.4</ele>
  <time>2026-09-01T01:14:28Z</time>
  <course>53.01</course>
  <speed>0.81</speed>
  <fix>3d</fix>
</trkpt>
<trkpt lat="33.8103811" lon="-118.3943789">
  <ele>-25.01</ele>
  <time>2026-09-01T01:14:28Z</time>
  <course>47.44</course>
  <speed>0.8246211251235321</speed>
  <fix>3d</fix>
</trkpt>
<trkpt lat="33.8103798" lon="-118.3943804">
  <ele>-24.4</ele>
  <time>2026-09-01T01:14:28Z</time>
  <course>53.01</course>
  <speed>0.81</speed>
  <fix>3d</fix>
</trkpt>
<trkpt lat="33.8103816" lon="-118.3943782">
  <ele>-25.009</ele>
  <time>2026-09-01T01:14:28Z</time>
  <course>47.48</course>
  <speed>0.8246211251235321</speed>
  <fix>3d</fix>
</trkpt>
<trkpt lat="33.8103807" lon="-118.3943789">
  <ele>-24.4</ele>
  <time>2026-09-01T01:14:28Z</time>
  <course>52.96</course>
  <speed>0.82</speed>
  <fix>3d</fix>
</trkpt>
<trkpt lat="33.810382" lon="-118.3943774">
  <ele>-25.01</ele>
  <time>2026-09-01T01:14:28Z</time>
  <course>47.54</course>
  <speed>0.8309632964216891</speed>
  <fix>3d</fix>
</trkpt>
<trkpt lat="33.8103807" lon="-118.3943789">
  <ele>-24.4</ele>
  <time>2026-09-01T01:14:28Z</time>
  <course>52.96</course>
  <speed>0.82</speed>
  <fix>3d</fix>
</trkpt>
<trkpt lat="33.8103825" lon="-118.3943767">
  <ele>-25.01</ele>
  <time>2026-09-01T01:14:28Z</time>
  <course>47.57</course>
  <speed>0.8309632964216891</speed>
  <fix>3d</fix>
</trkpt>
<trkpt lat="33.8103816" lon="-118.3943776">
  <ele>-24.4</ele>
  <time>2026-09-01T01:14:28Z</time>
  <course>52.93</course>
  <speed>0.82</speed>
  <fix>3d</fix>
</trkpt>
<trkpt lat="33.8103829" lon="-118.394376">
  <ele>-25.011</ele>
  <time>2026-09-01T01:14:28Z</time>
  <course>47.63</course>
  <speed>0.8309632964216891</speed>
  <fix>3d</fix>
</trkpt>
<trkpt lat="33.8103816" lon="-118.3943776">
  <ele>-24.4</ele>
  <time>2026-09-01T01:14:28Z</time>
  <course>52.93</course>
  <speed>0.82</speed>
  <fix>3d</fix>
</trkpt>
<trkpt lat="33.8103833" lon="-118.3943753">
  <ele>-25.011</ele>
  <time>2026-09-01T01:14:28Z</time>
  <course>47.7</course>
  <speed>0.8386894538504702</speed>
  <fix>3d</fix>
</trkpt>
<trkpt lat="33.8103825" lon="-118.3943762">
  <ele>-24.4</ele>
  <time>2026-09-01T01:14:28Z</time>
  <course>52.93</course>
  <speed>0.82</speed>
  <fix>3d</fix>
</trkpt>
<trkpt lat="33.8103838" lon="-118.3943746">
  <ele>-25.011</ele>
  <time>2026-09-01T01:14:28Z</time>
  <course>47.78</course>
  <speed>0.8386894538504702</speed>
  <fix>3d</fix>
</trkpt>
<trkpt lat="33.8103825" lon="-118.3943762">
  <ele>-24.4</ele>
  <time>2026-09-01T01:14:28Z</time>
  <course>52.93</course>
  <speed>0.82</speed>
  <fix>3d</fix>
</trkpt>
<trkpt lat="33.8103842" lon="-118.3943739">
  <ele>-25.012</ele>
  <time>2026-09-01T01:14:28Z</time>
  <course>47.88</course>
  <speed>0.8386894538504702</speed>
  <fix>3d</fix>
</trkpt>
<trkpt lat="33.8103834" lon="-118.3943747">
  <ele>-24.4</ele>
  <time>2026-09-01T01:14:28Z</time>
  <course>52.99</course>
  <speed>0.82</speed>
  <fix>3d</fix>
</trkpt>
<trkpt lat="33.8103847" lon="-118.3943731">
  <ele>-25.012</ele>
  <time>2026-09-01T01:14:28Z</time>
  <course>47.98</course>
  <speed>0.8386894538504702</speed>
  <fix>3d</fix>
</trkpt>
<trkpt lat="33.8103834" lon="-118.3943747">
  <ele>-24.4</ele>
  <time>2026-09-01T01:14:28Z</time>
  <course>52.99</course>
  <speed>0.82</speed>
  <fix>3d</fix>
</trkpt>
<trkpt lat="33.8103851" lon="-118.3943724">
  <ele>-25.013</ele>
  <time>2026-09-01T01:14:28Z</time>
  <course>48.06</course>
  <speed>0.8386894538504702</speed>
  <fix>3d</fix>
</trkpt>
<trkpt lat="33.8103843" lon="-118.3943733">
  <ele>-24.4</ele>
  <time>2026-09-01T01:14:28Z</time>
  <course>53.07</course>
  <speed>0.83</speed>
  <fix>3d</fix>
</trkpt>
<trkpt lat="33.8103856" lon="-118.3943717">
  <ele>-25.012</ele>
  <time>2026-09-01T01:14:28Z</time>
  <course>48.15</course>
  <speed>0.8386894538504702</speed>
  <fix>3d</fix>
</trkpt>
<trkpt lat="33.8103843" lon="-118.3943733">
  <ele>-24.4</ele>
  <time>2026-09-01T01:14:28Z</time>
  <course>53.07</course>
  <speed>0.83</speed>
  <fix>3d</fix>
</trkpt>
<trkpt lat="33.8103861" lon="-118.394371">
  <ele>-25.01</ele>
  <time>2026-09-01T01:14:28Z</time>
  <course>48.23</course>
  <speed>0.8464632301523793</speed>
  <fix>3d</fix>
</trkpt>
<trkpt lat="33.8103852" lon="-118.3943718">
  <ele>-24.4</ele>
  <time>2026-09-01T01:14:28Z</time>
  <course>53.13</course>
  <speed>0.83</speed>
  <fix>3d</fix>
</trkpt>
<trkpt lat="33.8103865" lon="-118.3943702">
  <ele>-25.009</ele>
  <time>2026-09-01T01:14:28Z</time>
  <course>48.32</course>
  <speed>0.8464632301523793</speed>
  <fix>3d</fix>
</trkpt>
<trkpt lat="33.8103852" lon="-118.3943718">
  <ele>-24.4</ele>
  <time>2026-09-01T01:14:28Z</time>
  <course>53.13</course>
  <speed>0.83</speed>
  <fix>3d</fix>
</trkpt>
<trkpt lat="33.810387" lon="-118.3943695">
  <ele>-25.008</ele>
  <time>2026-09-01T01:14:28Z</time>
  <course>48.39</course>
  <speed>0.8464632301523793</speed>
  <fix>3d</fix>
</trkpt>
<trkpt lat="33.8103861" lon="-118.3943704">
  <ele>-24.4</ele>
  <time>2026-09-01T01:14:28Z</time>
  <course>53.15</course>
  <speed>0.83</speed>
  <fix>3d</fix>
</trkpt>
<trkpt lat="33.8103874" lon="-118.3943688">
  <ele>-25.009</ele>
  <time>2026-09-01T01:14:28Z</time>
  <course>48.45</course>
  <speed>0.8464632301523793</speed>
  <fix>3d</fix>
</trkpt>
<trkpt lat="33.8103861" lon="-118.3943704">
  <ele>-24.4</ele>
  <time>2026-09-01T01:14:28Z</time>
  <course>53.15</course>
  <speed>0.83</speed>
  <fix>3d</fix>
</trkpt>
<trkpt lat="33.8103879" lon="-118.3943681">
  <ele>-25.012</ele>
  <time>2026-09-01T01:14:28Z</time>
  <course>48.51</course>
  <speed>0.8464632301523793</speed>
  <fix>3d</fix>
</trkpt>
<trkpt lat="33.810387" lon="-118.3943689">
  <ele>-24.41</ele>
  <time>2026-09-01T01:14:28Z</time>
  <course>53.17</course>
  <speed>0.83</speed>
  <fix>3d</fix>
</trkpt>
<trkpt lat="33.8103883" lon="-118.3943673">
  <ele>-25.015</ele>
  <time>2026-09-01T01:14:28Z</time>
  <course>48.58</course>
  <speed>0.8464632301523793</speed>
  <fix>3d</fix>
</trkpt>
<trkpt lat="33.810387" lon="-118.3943689">
  <ele>-24.41</ele>
  <time>2026-09-01T01:14:28Z</time>
  <course>53.17</course>
  <speed>0.83</speed>
  <fix>3d</fix>
</trkpt>
<trkpt lat="33.8103888" lon="-118.3943666">
  <ele>-25.018</ele>
  <time>2026-09-01T01:14:28Z</time>
  <course>48.64</course>
  <speed>0.8464632301523793</speed>
  <fix>3d</fix>
</trkpt>
<trkpt lat="33.8103879" lon="-118.3943674">
  <ele>-24.41</ele>
  <time>2026-09-01T01:14:28Z</time>
  <course>53.19</course>
  <speed>0.84</speed>
  <fix>3d</fix>
</trkpt>
<trkpt lat="33.8103892" lon="-118.3943659">
  <ele>-25.02</ele>
  <time>2026-09-01T01:14:28Z</time>
  <course>48.68</course>
  <speed>0.8464632301523793</speed>
  <fix>3d</fix>
</trkpt>
<trkpt lat="33.8103879" lon="-118.3943674">
  <ele>-24.41</ele>
  <time>2026-09-01T01:14:28Z</time>
  <course>53.19</course>
  <speed>0.84</speed>
  <fix>3d</fix>
</trkpt>
<trkpt lat="33.8103897" lon="-118.3943651">
  <ele>-25.021</ele>
  <time>2026-09-01T01:14:28Z</time>
  <course>48.72</course>
  <speed>0.8464632301523793</speed>
  <fix>3d</fix>
</trkpt>
<trkpt lat="33.8103888" lon="-118.394366">
  <ele>-24.41</ele>
  <time>2026-09-01T01:14:28Z</time>
  <course>53.16</course>
  <speed>0.84</speed>
  <fix>3d</fix>
</trkpt>
<trkpt lat="33.8103901" lon="-118.3943644">
  <ele>-25.021</ele>
  <time>2026-09-01T01:14:28Z</time>
  <course>48.76</course>
  <speed>0.8527602242131137</speed>
  <fix>3d</fix>
</trkpt>
<trkpt lat="33.8103888" lon="-118.394366">
  <ele>-24.41</ele>
  <time>2026-09-01T01:14:28Z</time>
  <course>53.16</course>
  <speed>0.84</speed>
  <fix>3d</fix>
</trkpt>
<trkpt lat="33.8103906" lon="-118.3943637">
  <ele>-25.021</ele>
  <time>2026-09-01T01:14:28Z</time>
  <course>48.79</course>
  <speed>0.8527602242131137</speed>
  <fix>3d</fix>
</trkpt>
<trkpt lat="33.8103897" lon="-118.3943646">
  <ele>-24.41</ele>
  <time>2026-09-01T01:14:28Z</time>
  <course>53.13</course>
  <speed>0.84</speed>
  <fix>3d</fix>
</trkpt>
<trkpt lat="33.8103911" lon="-118.3943629">
  <ele>-25.019</ele>
  <time>2026-09-01T01:14:28Z</time>
  <course>48.84</course>
  <speed>0.8605230967266364</speed>
  <fix>3d</fix>
</trkpt>
<trkpt lat="33.8103897" lon="-118.3943646">
  <ele>-24.41</ele>
  <time>2026-09-01T01:14:28Z</time>
  <course>53.13</course>
  <speed>0.84</speed>
  <fix>3d</fix>
</trkpt>
<trkpt lat="33.8103915" lon="-118.3943622">
  <ele>-25.017</ele>
  <time>2026-09-01T01:14:28Z</time>
  <course>48.89</course>
  <speed>0.8605230967266364</speed>
  <fix>3d</fix>
</trkpt>
<trkpt lat="33.8103906" lon="-118.3943631">
  <ele>-24.41</ele>
  <time>2026-09-01T01:14:28Z</time>
  <course>53.12</course>
  <speed>0.84</speed>
  <fix>3d</fix>
</trkpt>
<trkpt lat="33.810392" lon="-118.3943615">
  <ele>-25.014</ele>
  <time>2026-09-01T01:14:28Z</time>
  <course>48.95</course>
  <speed>0.8605230967266364</speed>
  <fix>3d</fix>
</trkpt>
<trkpt lat="33.8103906" lon="-118.3943631">
  <ele>-24.41</ele>
  <time>2026-09-01T01:14:28Z</time>
  <course>53.12</course>
  <speed>0.84</speed>
  <fix>3d</fix>
</trkpt>
<trkpt lat="33.8103924" lon="-118.3943607">
  <ele>-25.011</ele>
  <time>2026-09-01T01:14:28Z</time>
  <course>49.0</course>
  <speed>0.8605230967266364</speed>
  <fix>3d</fix>
</trkpt>
<trkpt lat="33.8103915" lon="-118.3943616">
  <ele>-24.4</ele>
  <time>2026-09-01T01:14:28Z</time>
  <course>53.14</course>
  <speed>0.84</speed>
  <fix>3d</fix>
</trkpt>
<trkpt lat="33.8103929" lon="-118.39436">
  <ele>-25.008</ele>
  <time>2026-09-01T01:14:28Z</time>
  <course>49.05</course>
  <speed>0.8605230967266364</speed>
  <fix>3d</fix>
</trkpt>
<trkpt lat="33.8103915" lon="-118.3943616">
  <ele>-24.4</ele>
  <time>2026-09-01T01:14:28Z</time>
  <course>53.14</course>
  <speed>0.84</speed>
  <fix>3d</fix>
</trkpt>
<trkpt lat="33.8103933" lon="-118.3943592">
  <ele>-25.005</ele>
  <time>2026-09-01T01:14:28Z</time>
  <course>49.09</course>
  <speed>0.8605230967266364</speed>
  <fix>3d</fix>
</trkpt>
<trkpt lat="33.8103924" lon="-118.3943602">
  <ele>-24.4</ele>
  <time>2026-09-01T01:14:28Z</time>
  <course>53.13</course>
  <speed>0.85</speed>
  <fix>3d</fix>
</trkpt>
<trkpt lat="33.8103938" lon="-118.3943585">
  <ele>-25.004</ele>
  <time>2026-09-01T01:14:28Z</time>
  <course>49.13</course>
  <speed>0.8605230967266364</speed>
  <fix>3d</fix>
</trkpt>
<trkpt lat="33.8103924" lon="-118.3943602">
  <ele>-24.4</ele>
  <time>2026-09-01T01:14:28Z</time>
  <course>53.13</course>
  <speed>0.85</speed>
  <fix>3d</fix>
</trkpt>
<trkpt lat="33.8103943" lon="-118.3943578">
  <ele>-25.005</ele>
  <time>2026-09-01T01:14:28Z</time>
  <course>49.16</course>
  <speed>0.8683317338436964</speed>
  <fix>3d</fix>
</trkpt>
<trkpt lat="33.8103933" lon="-118.3943587">
  <ele>-24.4</ele>
  <time>2026-09-01T01:14:28Z</time>
  <course>53.09</course>
  <speed>0.85</speed>
  <fix>3d</fix>
</trkpt>
<trkpt lat="33.8103947" lon="-118.394357">
  <ele>-25.007</ele>
  <time>2026-09-01T01:14:28Z</time>
  <course>49.2</course>
  <speed>0.8745856161634491</speed>
  <fix>3d</fix>
</trkpt>
<trkpt lat="33.8103933" lon="-118.3943587">
  <ele>-24.4</ele>
  <time>2026-09-01T01:14:28Z</time>
  <course>53.09</course>
  <speed>0.85</speed>
  <fix>3d</fix>
</trkpt>
<trkpt lat="33.8103952" lon="-118.3943563">
  <ele>-25.008</ele>
  <time>2026-09-01T01:14:28Z</time>
  <course>49.24</course>
  <speed>0.8683317338436964</speed>
  <fix>3d</fix>
</trkpt>
<trkpt lat="33.8103943" lon="-118.3943572">
  <ele>-24.4</ele>
  <time>2026-09-01T01:14:28Z</time>
  <course>53.07</course>
  <speed>0.85</speed>
  <fix>3d</fix>
</trkpt>
<trkpt lat="33.8103956" lon="-118.3943555">
  <ele>-25.009</ele>
  <time>2026-09-01T01:14:28Z</time>
  <course>49.29</course>
  <speed>0.8745856161634491</speed>
  <fix>3d</fix>
</trkpt>
<trkpt lat="33.8103943" lon="-118.3943572">
  <ele>-24.4</ele>
  <time>2026-09-01T01:14:28Z</time>
  <course>53.07</course>
  <speed>0.85</speed>
  <fix>3d</fix>
</trkpt>
<trkpt lat="33.8103961" lon="-118.3943548">
  <ele>-25.01</ele>
  <time>2026-09-01T01:14:28Z</time>
  <course>49.35</course>
  <speed>0.8745856161634491</speed>
  <fix>3d</fix>
</trkpt>
<trkpt lat="33.8103952" lon="-118.3943557">
  <ele>-24.4</ele>
  <time>2026-09-01T01:14:28Z</time>
  <course>53.09</course>
  <speed>0.86</speed>
  <fix>3d</fix>
</trkpt>
<trkpt lat="33.8103966" lon="-118.394354">
  <ele>-25.011</ele>
  <time>2026-09-01T01:14:28Z</time>
  <course>49.42</course>
  <speed>0.8745856161634491</speed>
  <fix>3d</fix>
</trkpt>
<trkpt lat="33.8103952" lon="-118.3943557">
  <ele>-24.4</ele>
  <time>2026-09-01T01:14:28Z</time>
  <course>53.09</course>
  <speed>0.86</speed>
  <fix>3d</fix>
</trkpt>
<trkpt lat="33.810397" lon="-118.3943533">
  <ele>-25.012</ele>
  <time>2026-09-01T01:14:28Z</time>
  <course>49.48</course>
  <speed>0.8745856161634491</speed>
  <fix>3d</fix>
</trkpt>
<trkpt lat="33.8103962" lon="-118.3943542">
  <ele>-24.41</ele>
  <time>2026-09-01T01:14:28Z</time>
  <course>53.13</course>
  <speed>0.86</speed>
  <fix>3d</fix>
</trkpt>
<trkpt lat="33.8103975" lon="-118.3943525">
  <ele>-25.013</ele>
  <time>2026-09-01T01:14:28Z</time>
  <course>49.53</course>
  <speed>0.8823831367382311</speed>
  <fix>3d</fix>
</trkpt>
<trkpt lat="33.8103962" lon="-118.3943542">
  <ele>-24.41</ele>
  <time>2026-09-01T01:14:28Z</time>
  <course>53.13</course>
  <speed>0.86</speed>
  <fix>3d</fix>
</trkpt>
<trkpt lat="33.810398" lon="-118.3943518">
  <ele>-25.014</ele>
  <time>2026-09-01T01:14:28Z</time>
  <course>49.59</course>
  <speed>0.8823831367382311</speed>
  <fix>3d</fix>
</trkpt>
<trkpt lat="33.8103971" lon="-118.3943527">
  <ele>-24.41</ele>
  <time>2026-09-01T01:14:28Z</time>
  <course>53.17</course>
  <speed>0.86</speed>
  <fix>3d</fix>
</trkpt>
<trkpt lat="33.8103984" lon="-118.394351">
  <ele>-25.014</ele>
  <time>2026-09-01T01:14:28Z</time>
  <course>49.67</course>
  <speed>0.8823831367382311</speed>
  <fix>3d</fix>
</trkpt>
<trkpt lat="33.8103971" lon="-118.3943527">
  <ele>-24.41</ele>
  <time>2026-09-01T01:14:28Z</time>
  <course>53.17</course>
  <speed>0.86</speed>
  <fix>3d</fix>
</trkpt>
<trkpt lat="33.8103989" lon="-118.3943503">
  <ele>-25.014</ele>
  <time>2026-09-01T01:14:28Z</time>
  <course>49.73</course>
  <speed>0.8823831367382311</speed>
  <fix>3d</fix>
</trkpt>
<trkpt lat="33.810398" lon="-118.3943512">
  <ele>-24.41</ele>
  <time>2026-09-01T01:14:28Z</time>
  <course>53.22</course>
  <speed>0.87</speed>
  <fix>3d</fix>
</trkpt>
<trkpt lat="33.8103994" lon="-118.3943495">
  <ele>-25.013</ele>
  <time>2026-09-01T01:14:28Z</time>
  <course>49.79</course>
  <speed>0.8823831367382311</speed>
  <fix>3d</fix>
</trkpt>
<trkpt lat="33.810398" lon="-118.3943512">
  <ele>-24.41</ele>
  <time>2026-09-01T01:14:28Z</time>
  <course>53.22</course>
  <speed>0.87</speed>
  <fix>3d</fix>
</trkpt>
<trkpt lat="33.8103998" lon="-118.3943488">
  <ele>-25.013</ele>
  <time>2026-09-01T01:14:28Z</time>
  <course>49.83</course>
  <speed>0.8823831367382311</speed>
  <fix>3d</fix>
</trkpt>
<trkpt lat="33.8103989" lon="-118.3943497">
  <ele>-24.41</ele>
  <time>2026-09-01T01:14:28Z</time>
  <course>53.23</course>
  <speed>0.87</speed>
  <fix>3d</fix>
</trkpt>
<trkpt lat="33.8104003" lon="-118.394348">
  <ele>-25.012</ele>
  <time>2026-09-01T01:14:28Z</time>
  <course>49.88</course>
  <speed>0.8823831367382311</speed>
  <fix>3d</fix>
</trkpt>
<trkpt lat="33.8103989" lon="-118.3943497">
  <ele>-24.41</ele>
  <time>2026-09-01T01:14:28Z</time>
  <course>53.23</course>
  <speed>0.87</speed>
  <fix>3d</fix>
</trkpt>
<trkpt lat="33.8104008" lon="-118.3943472">
  <ele>-25.012</ele>
  <time>2026-09-01T01:14:28Z</time>
  <course>49.9</course>
  <speed>0.8823831367382311</speed>
  <fix>3d</fix>
</trkpt>
<trkpt lat="33.8103999" lon="-118.3943482">
  <ele>-24.41</ele>
  <time>2026-09-01T01:14:28Z</time>
  <course>53.21</course>
  <speed>0.87</speed>
  <fix>3d</fix>
</trkpt>
<trkpt lat="33.8104012" lon="-118.3943465">
  <ele>-25.012</ele>
  <time>2026-09-01T01:14:28Z</time>
  <course>49.93</course>
  <speed>0.8823831367382311</speed>
  <fix>3d</fix>
</trkpt>
<trkpt lat="33.8103999" lon="-118.3943482">
  <ele>-24.41</ele>
  <time>2026-09-01T01:14:28Z</time>
  <course>53.21</course>
  <speed>0.87</speed>
  <fix>3d</fix>
</trkpt>
<trkpt lat="33.8104017" lon="-118.3943457">
  <ele>-25.012</ele>
  <time>2026-09-01T01:14:28Z</time>
  <course>49.96</course>
  <speed>0.8823831367382311</speed>
  <fix>3d</fix>
</trkpt>
<trkpt lat="33.8104009" lon="-118.3943467">
  <ele>-24.41</ele>
  <time>2026-09-01T01:14:28Z</time>
  <course>53.2</course>
  <speed>0.88</speed>
  <fix>3d</fix>
</trkpt>
<trkpt lat="33.8104022" lon="-118.394345">
  <ele>-25.013</ele>
  <time>2026-09-01T01:14:28Z</time>
  <course>50.01</course>
  <speed>0.8902246907382428</speed>
  <fix>3d</fix>
</trkpt>
<trkpt lat="33.8104009" lon="-118.3943467">
  <ele>-24.41</ele>
  <time>2026-09-01T01:14:28Z</time>
  <course>53.2</course>
  <speed>0.88</speed>
  <fix>3d</fix>
</trkpt>
<trkpt lat="33.8104027" lon="-118.3943442">
  <ele>-25.014</ele>
  <time>2026-09-01T01:14:28Z</time>
  <course>50.07</course>
  <speed>0.8902246907382428</speed>
  <fix>3d</fix>
</trkpt>
<trkpt lat="33.8104018" lon="-118.3943451">
  <ele>-24.41</ele>
  <time>2026-09-01T01:14:28Z</time>
  <course>53.25</course>
  <speed>0.88</speed>
  <fix>3d</fix>
</trkpt>
<trkpt lat="33.8104031" lon="-118.3943434">
  <ele>-25.014</ele>
  <time>2026-09-01T01:14:28Z</time>
  <course>50.15</course>
  <speed>0.8902246907382428</speed>
  <fix>3d</fix>
</trkpt>
<trkpt lat="33.8104018" lon="-118.3943451">
  <ele>-24.41</ele>
  <time>2026-09-01T01:14:28Z</time>
  <course>53.25</course>
  <speed>0.88</speed>
  <fix>3d</fix>
</trkpt>
<trkpt lat="33.8104036" lon="-118.3943427">
  <ele>-25.013</ele>
  <time>2026-09-01T01:14:28Z</time>
  <course>50.2</course>
  <speed>0.8902246907382428</speed>
  <fix>3d</fix>
</trkpt>
<trkpt lat="33.8104028" lon="-118.3943436">
  <ele>-24.41</ele>
  <time>2026-09-01T01:14:28Z</time>
  <course>53.32</course>
  <speed>0.88</speed>
  <fix>3d</fix>
</trkpt>
<trkpt lat="33.8104041" lon="-118.3943419">
  <ele>-25.012</ele>
  <time>2026-09-01T01:14:28Z</time>
  <course>50.25</course>
  <speed>0.8902246907382428</speed>
  <fix>3d</fix>
</trkpt>
<trkpt lat="33.8104028" lon="-118.3943436">
  <ele>-24.41</ele>
  <time>2026-09-01T01:14:28Z</time>
  <course>53.32</course>
  <speed>0.88</speed>
  <fix>3d</fix>
</trkpt>
<trkpt lat="33.8104046" lon="-118.3943411">
  <ele>-25.011</ele>
  <time>2026-09-01T01:14:28Z</time>
  <course>50.3</course>
  <speed>0.8902246907382428</speed>
  <fix>3d</fix>
</trkpt>
<trkpt lat="33.8104037" lon="-118.3943421">
  <ele>-24.41</ele>
  <time>2026-09-01T01:14:28Z</time>
  <course>53.37</course>
  <speed>0.88</speed>
  <fix>3d</fix>
</trkpt>
<trkpt lat="33.810405" lon="-118.3943404">
  <ele>-25.01</ele>
  <time>2026-09-01T01:14:28Z</time>
  <course>50.35</course>
  <speed>0.8902246907382428</speed>
  <fix>3d</fix>
</trkpt>
<trkpt lat="33.8104037" lon="-118.3943421">
  <ele>-24.41</ele>
  <time>2026-09-01T01:14:28Z</time>
  <course>53.37</course>
  <speed>0.88</speed>
  <fix>3d</fix>
</trkpt>
<trkpt lat="33.8104055" lon="-118.3943396">
  <ele>-25.01</ele>
  <time>2026-09-01T01:14:28Z</time>
  <course>50.39</course>
  <speed>0.8902246907382428</speed>
  <fix>3d</fix>
</trkpt>
<trkpt lat="33.8104047" lon="-118.3943405">
  <ele>-24.41</ele>
  <time>2026-09-01T01:14:28Z</time>
  <course>53.41</course>
  <speed>0.88</speed>
  <fix>3d</fix>
</trkpt>
<trkpt lat="33.810406" lon="-118.3943388">
  <ele>-25.011</ele>
  <time>2026-09-01T01:14:28Z</time>
  <course>50.44</course>
  <speed>0.8902246907382428</speed>
  <fix>3d</fix>
</trkpt>
<trkpt lat="33.8104047" lon="-118.3943405">
  <ele>-24.41</ele>
  <time>2026-09-01T01:14:28Z</time>
  <course>53.41</course>
  <speed>0.88</speed>
  <fix>3d</fix>
</trkpt>
<trkpt lat="33.8104065" lon="-118.3943381">
  <ele>-25.012</ele>
  <time>2026-09-01T01:14:28Z</time>
  <course>50.48</course>
  <speed>0.8902246907382428</speed>
  <fix>3d</fix>
</trkpt>
<trkpt lat="33.8104056" lon="-118.394339">
  <ele>-24.41</ele>
  <time>2026-09-01T01:14:28Z</time>
  <course>53.43</course>
  <speed>0.88</speed>
  <fix>3d</fix>
</trkpt>
<trkpt lat="33.8104069" lon="-118.3943373">
  <ele>-25.014</ele>
  <time>2026-09-01T01:14:28Z</time>
  <course>50.52</course>
  <speed>0.8964373932405988</speed>
  <fix>3d</fix>
</trkpt>
<trkpt lat="33.8104056" lon="-118.394339">
  <ele>-24.41</ele>
  <time>2026-09-01T01:14:28Z</time>
  <course>53.43</course>
  <speed>0.88</speed>
  <fix>3d</fix>
</trkpt>
<trkpt lat="33.8104074" lon="-118.3943365">
  <ele>-25.014</ele>
  <time>2026-09-01T01:14:28Z</time>
  <course>50.55</course>
  <speed>0.8964373932405988</speed>
  <fix>3d</fix>
</trkpt>
<trkpt lat="33.8104066" lon="-118.3943374">
  <ele>-24.42</ele>
  <time>2026-09-01T01:14:28Z</time>
  <course>53.45</course>
  <speed>0.88</speed>
  <fix>3d</fix>
</trkpt>
<trkpt lat="33.8104079" lon="-118.3943358">
  <ele>-25.015</ele>
  <time>2026-09-01T01:14:28Z</time>
  <course>50.58</course>
  <speed>0.8964373932405988</speed>
  <fix>3d</fix>
</trkpt>
<trkpt lat="33.8104066" lon="-118.3943374">
  <ele>-24.42</ele>
  <time>2026-09-01T01:14:28Z</time>
  <course>53.45</course>
  <speed>0.88</speed>
  <fix>3d</fix>
</trkpt>
<trkpt lat="33.8104084" lon="-118.394335">
  <ele>-25.016</ele>
  <time>2026-09-01T01:14:28Z</time>
  <course>50.6</course>
  <speed>0.8964373932405988</speed>
  <fix>3d</fix>
</trkpt>
<trkpt lat="33.8104075" lon="-118.3943359">
  <ele>-24.42</ele>
  <time>2026-09-01T01:14:28Z</time>
  <course>53.45</course>
  <speed>0.88</speed>
  <fix>3d</fix>
</trkpt>
<trkpt lat="33.8104088" lon="-118.3943342">
  <ele>-25.018</ele>
  <time>2026-09-01T01:14:28Z</time>
  <course>50.62</course>
  <speed>0.8964373932405988</speed>
  <fix>3d</fix>
</trkpt>
<trkpt lat="33.8104075" lon="-118.3943359">
  <ele>-24.42</ele>
  <time>2026-09-01T01:14:28Z</time>
  <course>53.45</course>
  <speed>0.88</speed>
  <fix>3d</fix>
</trkpt>
<trkpt lat="33.8104093" lon="-118.3943334">
  <ele>-25.019</ele>
  <time>2026-09-01T01:14:28Z</time>
  <course>50.63</course>
  <speed>0.904267659490264</speed>
  <fix>3d</fix>
</trkpt>
<trkpt lat="33.8104084" lon="-118.3943344">
  <ele>-24.42</ele>
  <time>2026-09-01T01:14:28Z</time>
  <course>53.44</course>
  <speed>0.89</speed>
  <fix>3d</fix>
</trkpt>
<trkpt lat="33.8104098" lon="-118.3943327">
  <ele>-25.018</ele>
  <time>2026-09-01T01:14:28Z</time>
  <course>50.65</course>
  <speed>0.904267659490264</speed>
  <fix>3d</fix>
</trkpt>
<trkpt lat="33.8104084" lon="-118.3943344">
  <ele>-24.42</ele>
  <time>2026-09-01T01:14:28Z</time>
  <course>53.44</course>
  <speed>0.89</speed>
  <fix>3d</fix>
</trkpt>
<trkpt lat="33.8104103" lon="-118.3943319">
  <ele>-25.016</ele>
  <time>2026-09-01T01:14:28Z</time>
  <course>50.66</course>
  <speed>0.904267659490264</speed>
  <fix>3d</fix>
</trkpt>
<trkpt lat="33.8104094" lon="-118.3943328">
  <ele>-24.41</ele>
  <time>2026-09-01T01:14:28Z</time>
  <course>53.41</course>
  <speed>0.89</speed>
  <fix>3d</fix>
</trkpt>
<trkpt lat="33.8104108" lon="-118.3943311">
  <ele>-25.014</ele>
  <time>2026-09-01T01:14:28Z</time>
  <course>50.67</course>
  <speed>0.904267659490264</speed>
  <fix>3d</fix>
</trkpt>
<trkpt lat="33.8104094" lon="-118.3943328">
  <ele>-24.41</ele>
  <time>2026-09-01T01:14:28Z</time>
  <course>53.41</course>
  <speed>0.89</speed>
  <fix>3d</fix>
</trkpt>
<trkpt lat="33.8104112" lon="-118.3943303">
  <ele>-25.013</ele>
  <time>2026-09-01T01:14:28Z</time>
  <course>50.67</course>
  <speed>0.904267659490264</speed>
  <fix>3d</fix>
</trkpt>
<trkpt lat="33.8104103" lon="-118.3943313">
  <ele>-24.41</ele>
  <time>2026-09-01T01:14:28Z</time>
  <course>53.37</course>
  <speed>0.89</speed>
  <fix>3d</fix>
</trkpt>
<trkpt lat="33.8104117" lon="-118.3943296">
  <ele>-25.013</ele>
  <time>2026-09-01T01:14:29Z</time>
  <course>50.68</course>
  <speed>0.904267659490264</speed>
  <fix>3d</fix>
</trkpt>
<trkpt lat="33.8104103" lon="-118.3943313">
  <ele>-24.41</ele>
  <time>2026-09-01T01:14:29Z</time>
  <course>53.37</course>
  <speed>0.89</speed>
  <fix>3d</fix>
</trkpt>
<trkpt lat="33.8104122" lon="-118.3943288">
  <ele>-25.012</ele>
  <time>2026-09-01T01:14:29Z</time>
  <course>50.67</course>
  <speed>0.904267659490264</speed>
  <fix>3d</fix>
</trkpt>
<trkpt lat="33.8104113" lon="-118.3943296">
  <ele>-24.4</ele>
  <time>2026-09-01T01:14:29Z</time>
  <course>53.33</course>
  <speed>0.89</speed>
  <fix>3d</fix>
</trkpt>
<trkpt lat="33.8104127" lon="-118.394328">
  <ele>-25.011</ele>
  <time>2026-09-01T01:14:29Z</time>
  <course>50.68</course>
  <speed>0.904267659490264</speed>
  <fix>3d</fix>
</trkpt>
<trkpt lat="33.8104113" lon="-118.3943296">
  <ele>-24.4</ele>
  <time>2026-09-01T01:14:29Z</time>
  <course>53.33</course>
  <speed>0.89</speed>
  <fix>3d</fix>
</trkpt>
<trkpt lat="33.8104131" lon="-118.3943272">
  <ele>-25.011</ele>
  <time>2026-09-01T01:14:29Z</time>
  <course>50.66</course>
  <speed>0.904267659490264</speed>
  <fix>3d</fix>
</trkpt>
<trkpt lat="33.8104122" lon="-118.3943281">
  <ele>-24.4</ele>
  <time>2026-09-01T01:14:29Z</time>
  <course>53.26</course>
  <speed>0.9</speed>
  <fix>3d</fix>
</trkpt>
<trkpt lat="33.8104136" lon="-118.3943264">
  <ele>-25.011</ele>
  <time>2026-09-01T01:14:29Z</time>
  <course>50.65</course>
  <speed>0.910494371207203</speed>
  <fix>3d</fix>
</trkpt>
<trkpt lat="33.8104122" lon="-118.3943281">
  <ele>-24.4</ele>
  <time>2026-09-01T01:14:29Z</time>
  <course>53.26</course>
  <speed>0.9</speed>
  <fix>3d</fix>
</trkpt>
<trkpt lat="33.8104141" lon="-118.3943256">
  <ele>-25.012</ele>
  <time>2026-09-01T01:14:29Z</time>
  <course>50.62</course>
  <speed>0.910494371207203</speed>
  <fix>3d</fix>
</trkpt>
<trkpt lat="33.8104133" lon="-118.3943266">
  <ele>-24.4</ele>
  <time>2026-09-01T01:14:29Z</time>
  <course>53.18</course>
  <speed>0.9</speed>
  <fix>3d</fix>
</trkpt>
<trkpt lat="33.8104146" lon="-118.3943249">
  <ele>-25.011</ele>
  <time>2026-09-01T01:14:29Z</time>
  <course>50.61</course>
  <speed>0.910494371207203</speed>
  <fix>3d</fix>
</trkpt>
<trkpt lat="33.8104133" lon="-118.3943266">
  <ele>-24.4</ele>
  <time>2026-09-01T01:14:29Z</time>
  <course>53.18</course>
  <speed>0.9</speed>
  <fix>3d</fix>
</trkpt>
<trkpt lat="33.8104151" lon="-118.3943241">
  <ele>-25.012</ele>
  <time>2026-09-01T01:14:29Z</time>
  <course>50.62</course>
  <speed>0.910494371207203</speed>
  <fix>3d</fix>
</trkpt>
<trkpt lat="33.8104143" lon="-118.394325">
  <ele>-24.4</ele>
  <time>2026-09-01T01:14:29Z</time>
  <course>53.16</course>
  <speed>0.9</speed>
  <fix>3d</fix>
</trkpt>
<trkpt lat="33.8104156" lon="-118.3943233">
  <ele>-25.012</ele>
  <time>2026-09-01T01:14:29Z</time>
  <course>50.67</course>
  <speed>0.910494371207203</speed>
  <fix>3d</fix>
</trkpt>
<trkpt lat="33.8104143" lon="-118.394325">
  <ele>-24.4</ele>
  <time>2026-09-01T01:14:29Z</time>
  <course>53.16</course>
  <speed>0.9</speed>
  <fix>3d</fix>
</trkpt>
<trkpt lat="33.8104161" lon="-118.3943225">
  <ele>-25.012</ele>
  <time>2026-09-01T01:14:29Z</time>
  <course>50.73</course>
  <speed>0.9121403400793103</speed>
  <fix>3d</fix>
</trkpt>
<trkpt lat="33.8104152" lon="-118.3943234">
  <ele>-24.4</ele>
  <time>2026-09-01T01:14:29Z</time>
  <course>53.24</course>
  <speed>0.9</speed>
  <fix>3d</fix>
</trkpt>
<trkpt lat="33.8104165" lon="-118.3943217">
  <ele>-25.012</ele>
  <time>2026-09-01T01:14:29Z</time>
  <course>50.8</course>
  <speed>0.918313671900838</speed>
  <fix>3d</fix>
</trkpt>
<trkpt lat="33.8104152" lon="-118.3943234">
  <ele>-24.4</ele>
  <time>2026-09-01T01:14:29Z</time>
  <course>53.24</course>
  <speed>0.9</speed>
  <fix>3d</fix>
</trkpt>
<trkpt lat="33.810417" lon="-118.3943209">
  <ele>-25.01</ele>
  <time>2026-09-01T01:14:29Z</time>
  <course>50.85</course>
  <speed>0.9121403400793103</speed>
  <fix>3d</fix>
</trkpt>
<trkpt lat="33.8104162" lon="-118.3943219">
  <ele>-24.4</ele>
  <time>2026-09-01T01:14:29Z</time>
  <course>53.33</course>
  <speed>0.9</speed>
  <fix>3d</fix>
</trkpt>
<trkpt lat="33.8104175" lon="-118.3943201">
  <ele>-25.008</ele>
  <time>2026-09-01T01:14:29Z</time>
  <course>50.9</course>
  <speed>0.918313671900838</speed>
  <fix>3d</fix>
</trkpt>
<trkpt lat="33.8104162" lon="-118.3943219">
  <ele>-24.4</ele>
  <time>2026-09-01T01:14:29Z</time>
  <course>53.33</course>
  <speed>0.9</speed>
  <fix>3d</fix>
</trkpt>
<trkpt lat="33.810418" lon="-118.3943194">
  <ele>-25.006</ele>
  <time>2026-09-01T01:14:29Z</time>
  <course>50.94</course>
  <speed>0.918313671900838</speed>
  <fix>3d</fix>
</trkpt>
<trkpt lat="33.8104171" lon="-118.3943203">
  <ele>-24.4</ele>
  <time>2026-09-01T01:14:29Z</time>
  <course>53.38</course>
  <speed>0.9</speed>
  <fix>3d</fix>
</trkpt>
<trkpt lat="33.8104185" lon="-118.3943186">
  <ele>-25.004</ele>
  <time>2026-09-01T01:14:29Z</time>
  <course>50.97</course>
  <speed>0.918313671900838</speed>
  <fix>3d</fix>
</trkpt>
<trkpt lat="33.8104171" lon="-118.3943203">
  <ele>-24.4</ele>
  <time>2026-09-01T01:14:29Z</time>
  <course>53.38</course>
  <speed>0.9</speed>
  <fix>3d</fix>
</trkpt>
<trkpt lat="33.810419" lon="-118.3943178">
  <ele>-25.003</ele>
  <time>2026-09-01T01:14:29Z</time>
  <course>51.0</course>
  <speed>0.918313671900838</speed>
  <fix>3d</fix>
</trkpt>
<trkpt lat="33.8104181" lon="-118.3943188">
  <ele>-24.4</ele>
  <time>2026-09-01T01:14:29Z</time>
  <course>53.38</course>
  <speed>0.9</speed>
  <fix>3d</fix>
</trkpt>
<trkpt lat="33.8104195" lon="-118.394317">
  <ele>-25.004</ele>
  <time>2026-09-01T01:14:29Z</time>
  <course>51.03</course>
  <speed>0.918313671900838</speed>
  <fix>3d</fix>
</trkpt>
<trkpt lat="33.8104181" lon="-118.3943188">
  <ele>-24.4</ele>
  <time>2026-09-01T01:14:29Z</time>
  <course>53.38</course>
  <speed>0.9</speed>
  <fix>3d</fix>
</trkpt>
<trkpt lat="33.81042" lon="-118.3943162">
  <ele>-25.005</ele>
  <time>2026-09-01T01:14:29Z</time>
  <course>51.05</course>
  <speed>0.918313671900838</speed>
  <fix>3d</fix>
</trkpt>
<trkpt lat="33.8104191" lon="-118.3943172">
  <ele>-24.4</ele>
  <time>2026-09-01T01:14:29Z</time>
  <course>53.37</course>
  <speed>0.9</speed>
  <fix>3d</fix>
</trkpt>
<trkpt lat="33.8104204" lon="-118.3943154">
  <ele>-25.006</ele>
  <time>2026-09-01T01:14:29Z</time>
  <course>51.09</course>
  <speed>0.918313671900838</speed>
  <fix>3d</fix>
</trkpt>
<trkpt lat="33.8104191" lon="-118.3943172">
  <ele>-24.4</ele>
  <time>2026-09-01T01:14:29Z</time>
  <course>53.37</course>
  <speed>0.9</speed>
  <fix>3d</fix>
</trkpt>
<trkpt lat="33.8104209" lon="-118.3943146">
  <ele>-25.009</ele>
  <time>2026-09-01T01:14:29Z</time>
  <course>51.12</course>
  <speed>0.918313671900838</speed>
  <fix>3d</fix>
</trkpt>
<trkpt lat="33.8104201" lon="-118.3943156">
  <ele>-24.4</ele>
  <time>2026-09-01T01:14:29Z</time>
  <course>53.4</course>
  <speed>0.91</speed>
  <fix>3d</fix>
</trkpt>
<trkpt lat="33.8104214" lon="-118.3943138">
  <ele>-25.011</ele>
  <time>2026-09-01T01:14:29Z</time>
  <course>51.16</course>
  <speed>0.918313671900838</speed>
  <fix>3d</fix>
</trkpt>
<trkpt lat="33.8104201" lon="-118.3943156">
  <ele>-24.4</ele>
  <time>2026-09-01T01:14:29Z</time>
  <course>53.4</course>
  <speed>0.91</speed>
  <fix>3d</fix>
</trkpt>
<trkpt lat="33.8104219" lon="-118.394313">
  <ele>-25.013</ele>
  <time>2026-09-01T01:14:29Z</time>
  <course>51.2</course>
  <speed>0.9261749294814667</speed>
  <fix>3d</fix>
</trkpt>
<trkpt lat="33.8104211" lon="-118.394314">
  <ele>-24.41</ele>
  <time>2026-09-01T01:14:29Z</time>
  <course>53.46</course>
  <speed>0.91</speed>
  <fix>3d</fix>
</trkpt>
<trkpt lat="33.8104224" lon="-118.3943122">
  <ele>-25.013</ele>
  <time>2026-09-01T01:14:29Z</time>
  <course>51.24</course>
  <speed>0.9261749294814667</speed>
  <fix>3d</fix>
</trkpt>
<trkpt lat="33.8104211" lon="-118.394314">
  <ele>-24.41</ele>
  <time>2026-09-01T01:14:29Z</time>
  <course>53.46</course>
  <speed>0.91</speed>
  <fix>3d</fix>
</trkpt>
<trkpt lat="33.8104229" lon="-118.3943114">
  <ele>-25.014</ele>
  <time>2026-09-01T01:14:29Z</time>
  <course>51.28</course>
  <speed>0.9261749294814667</speed>
  <fix>3d</fix>
</trkpt>
<trkpt lat="33.810422" lon="-118.3943124">
  <ele>-24.41</ele>
  <time>2026-09-01T01:14:29Z</time>
  <course>53.51</course>
  <speed>0.91</speed>
  <fix>3d</fix>
</trkpt>
<trkpt lat="33.8104234" lon="-118.3943106">
  <ele>-25.014</ele>
  <time>2026-09-01T01:14:29Z</time>
  <course>51.32</course>
  <speed>0.9261749294814667</speed>
  <fix>3d</fix>
</trkpt>
<trkpt lat="33.810422" lon="-118.3943124">
  <ele>-24.41</ele>
  <time>2026-09-01T01:14:29Z</time>
  <course>53.51</course>
  <speed>0.91</speed>
  <fix>3d</fix>
</trkpt>
<trkpt lat="33.8104239" lon="-118.3943098">
  <ele>-25.013</ele>
  <time>2026-09-01T01:14:29Z</time>
  <course>51.34</course>
  <speed>0.9261749294814667</speed>
  <fix>3d</fix>
</trkpt>
<trkpt lat="33.810423" lon="-118.3943108">
  <ele>-24.41</ele>
  <time>2026-09-01T01:14:29Z</time>
  <course>53.53</course>
  <speed>0.91</speed>
  <fix>3d</fix>
</trkpt>
<trkpt lat="33.8104244" lon="-118.394309">
  <ele>-25.013</ele>
  <time>2026-09-01T01:14:29Z</time>
  <course>51.34</course>
  <speed>0.9261749294814667</speed>
  <fix>3d</fix>
</trkpt>
<trkpt lat="33.810423" lon="-118.3943108">
  <ele>-24.41</ele>
  <time>2026-09-01T01:14:29Z</time>
  <course>53.53</course>
  <speed>0.91</speed>
  <fix>3d</fix>
</trkpt>
<trkpt lat="33.8104249" lon="-118.3943082">
  <ele>-25.013</ele>
  <time>2026-09-01T01:14:29Z</time>
  <course>51.34</course>
  <speed>0.9261749294814667</speed>
  <fix>3d</fix>
</trkpt>
<trkpt lat="33.810424" lon="-118.3943092">
  <ele>-24.41</ele>
  <time>2026-09-01T01:14:29Z</time>
  <course>53.51</course>
  <speed>0.91</speed>
  <fix>3d</fix>
</trkpt>
<trkpt lat="33.8104254" lon="-118.3943074">
  <ele>-25.012</ele>
  <time>2026-09-01T01:14:29Z</time>
  <course>51.34</course>
  <speed>0.9261749294814667</speed>
  <fix>3d</fix>
</trkpt>
<trkpt lat="33.810424" lon="-118.3943092">
  <ele>-24.41</ele>
  <time>2026-09-01T01:14:29Z</time>
  <course>53.51</course>
  <speed>0.91</speed>
  <fix>3d</fix>
</trkpt>
<trkpt lat="33.8104259" lon="-118.3943066">
  <ele>-25.012</ele>
  <time>2026-09-01T01:14:29Z</time>
  <course>51.33</course>
  <speed>0.9261749294814667</speed>
  <fix>3d</fix>
</trkpt>
<trkpt lat="33.8104249" lon="-118.3943076">
  <ele>-24.41</ele>
  <time>2026-09-01T01:14:29Z</time>
  <course>53.49</course>
  <speed>0.91</speed>
  <fix>3d</fix>
</trkpt>
<trkpt lat="33.8104263" lon="-118.3943058">
  <ele>-25.011</ele>
  <time>2026-09-01T01:14:29Z</time>
  <course>51.34</course>
  <speed>0.9323625904121208</speed>
  <fix>3d</fix>
</trkpt>
<trkpt lat="33.8104249" lon="-118.3943076">
  <ele>-24.41</ele>
  <time>2026-09-01T01:14:29Z</time>
  <course>53.49</course>
  <speed>0.91</speed>
  <fix>3d</fix>
</trkpt>
<trkpt lat="33.8104268" lon="-118.394305">
  <ele>-25.011</ele>
  <time>2026-09-01T01:14:29Z</time>
  <course>51.32</course>
  <speed>0.9323625904121208</speed>
  <fix>3d</fix>
</trkpt>
<trkpt lat="33.810426" lon="-118.394306">
  <ele>-24.41</ele>
  <time>2026-09-01T01:14:29Z</time>
  <course>53.43</course>
  <speed>0.92</speed>
  <fix>3d</fix>
</trkpt>
<trkpt lat="33.8104273" lon="-118.3943042">
  <ele>-25.011</ele>
  <time>2026-09-01T01:14:29Z</time>
  <course>51.3</course>
  <speed>0.9323625904121208</speed>
  <fix>3d</fix>
</trkpt>
<trkpt lat="33.810426" lon="-118.394306">
  <ele>-24.41</ele>
  <time>2026-09-01T01:14:29Z</time>
  <course>53.43</course>
  <speed>0.92</speed>
  <fix>3d</fix>
</trkpt>
<trkpt lat="33.8104278" lon="-118.3943034">
  <ele>-25.012</ele>
  <time>2026-09-01T01:14:29Z</time>
  <course>51.3</course>
  <speed>0.9323625904121208</speed>
  <fix>3d</fix>
</trkpt>
<trkpt lat="33.810427" lon="-118.3943044">
  <ele>-24.41</ele>
  <time>2026-09-01T01:14:29Z</time>
  <course>53.39</course>
  <speed>0.92</speed>
  <fix>3d</fix>
</trkpt>
<trkpt lat="33.8104283" lon="-118.3943026">
  <ele>-25.012</ele>
  <time>2026-09-01T01:14:29Z</time>
  <course>51.32</course>
  <speed>0.9323625904121208</speed>
  <fix>3d</fix>
</trkpt>
<trkpt lat="33.810427" lon="-118.3943044">
  <ele>-24.41</ele>
  <time>2026-09-01T01:14:29Z</time>
  <course>53.39</course>
  <speed>0.92</speed>
  <fix>3d</fix>
</trkpt>
<trkpt lat="33.8104288" lon="-118.3943018">
  <ele>-25.013</ele>
  <time>2026-09-01T01:14:29Z</time>
  <course>51.35</course>
  <speed>0.9323625904121208</speed>
  <fix>3d</fix>
</trkpt>
<trkpt lat="33.810428" lon="-118.3943028">
  <ele>-24.41</ele>
  <time>2026-09-01T01:14:29Z</time>
  <course>53.42</course>
  <speed>0.92</speed>
  <fix>3d</fix>
</trkpt>
<trkpt lat="33.8104293" lon="-118.394301">
  <ele>-25.013</ele>
  <time>2026-09-01T01:14:29Z</time>
  <course>51.39</course>
  <speed>0.9323625904121208</speed>
  <fix>3d</fix>
</trkpt>
<trkpt lat="33.810428" lon="-118.3943028">
  <ele>-24.41</ele>
  <time>2026-09-01T01:14:29Z</time>
  <course>53.42</course>
  <speed>0.92</speed>
  <fix>3d</fix>
</trkpt>
<trkpt lat="33.8104298" lon="-118.3943002">
  <ele>-25.013</ele>
  <time>2026-09-01T01:14:29Z</time>
  <course>51.43</course>
  <speed>0.9402127418834527</speed>
  <fix>3d</fix>
</trkpt>
<trkpt lat="33.8104289" lon="-118.3943012">
  <ele>-24.41</ele>
  <time>2026-09-01T01:14:29Z</time>
  <course>53.5</course>
  <speed>0.92</speed>
  <fix>3d</fix>
</trkpt>
<trkpt lat="33.8104303" lon="-118.3942994">
  <ele>-25.012</ele>
  <time>2026-09-01T01:14:29Z</time>
  <course>51.46</course>
  <speed>0.9402127418834527</speed>
  <fix>3d</fix>
</trkpt>
<trkpt lat="33.8104289" lon="-118.3943012">
  <ele>-24.41</ele>
  <time>2026-09-01T01:14:29Z</time>
  <course>53.5</course>
  <speed>0.92</speed>
  <fix>3d</fix>
</trkpt>
<trkpt lat="33.8104308" lon="-118.3942986">
  <ele>-25.012</ele>
  <time>2026-09-01T01:14:29Z</time>
  <course>51.47</course>
  <speed>0.9402127418834527</speed>
  <fix>3d</fix>
</trkpt>
<trkpt lat="33.8104299" lon="-118.3942996">
  <ele>-24.41</ele>
  <time>2026-09-01T01:14:29Z</time>
  <course>53.53</course>
  <speed>0.92</speed>
  <fix>3d</fix>
</trkpt>
<trkpt lat="33.8104313" lon="-118.3942978">
  <ele>-25.013</ele>
  <time>2026-09-01T01:14:29Z</time>
  <course>51.48</course>
  <speed>0.9402127418834527</speed>
  <fix>3d</fix>
</trkpt>
<trkpt lat="33.8104299" lon="-118.3942996">
  <ele>-24.41</ele>
  <time>2026-09-01T01:14:29Z</time>
  <course>53.53</course>
  <speed>0.92</speed>
  <fix>3d</fix>
</trkpt>
<trkpt lat="33.8104318" lon="-118.394297">
  <ele>-25.014</ele>
  <time>2026-09-01T01:14:29Z</time>
  <course>51.48</course>
  <speed>0.9402127418834527</speed>
  <fix>3d</fix>
</trkpt>
<trkpt lat="33.8104309" lon="-118.394298">
  <ele>-24.41</ele>
  <time>2026-09-01T01:14:29Z</time>
  <course>53.49</course>
  <speed>0.92</speed>
  <fix>3d</fix>
</trkpt>
<trkpt lat="33.8104323" lon="-118.3942962">
  <ele>-25.015</ele>
  <time>2026-09-01T01:14:29Z</time>
  <course>51.48</course>
  <speed>0.9402127418834527</speed>
  <fix>3d</fix>
</trkpt>
<trkpt lat="33.8104309" lon="-118.394298">
  <ele>-24.41</ele>
  <time>2026-09-01T01:14:29Z</time>
  <course>53.49</course>
  <speed>0.92</speed>
  <fix>3d</fix>
</trkpt>
<trkpt lat="33.8104328" lon="-118.3942954">
  <ele>-25.015</ele>
  <time>2026-09-01T01:14:29Z</time>
  <course>51.47</course>
  <speed>0.9402127418834527</speed>
  <fix>3d</fix>
</trkpt>
<trkpt lat="33.8104319" lon="-118.3942964">
  <ele>-24.41</ele>
  <time>2026-09-01T01:14:29Z</time>
  <course>53.47</course>
  <speed>0.92</speed>
  <fix>3d</fix>
</trkpt>
<trkpt lat="33.8104333" lon="-118.3942945">
  <ele>-25.014</ele>
  <time>2026-09-01T01:14:29Z</time>
  <course>51.49</course>
  <speed>0.9402127418834527</speed>
  <fix>3d</fix>
</trkpt>
<trkpt lat="33.8104319" lon="-118.3942964">
  <ele>-24.41</ele>
  <time>2026-09-01T01:14:29Z</time>
  <course>53.47</course>
  <speed>0.92</speed>
  <fix>3d</fix>
</trkpt>
<trkpt lat="33.8104338" lon="-118.3942937">
  <ele>-25.012</ele>
  <time>2026-09-01T01:14:29Z</time>
  <course>51.5</course>
  <speed>0.9402127418834527</speed>
  <fix>3d</fix>
</trkpt>
<trkpt lat="33.8104328" lon="-118.3942947">
  <ele>-24.4</ele>
  <time>2026-09-01T01:14:29Z</time>
  <course>53.47</course>
  <speed>0.93</speed>
  <fix>3d</fix>
</trkpt>
<trkpt lat="33.8104343" lon="-118.3942929">
  <ele>-25.009</ele>
  <time>2026-09-01T01:14:29Z</time>
  <course>51.5</course>
  <speed>0.9402127418834527</speed>
  <fix>3d</fix>
</trkpt>
<trkpt lat="33.8104328" lon="-118.3942947">
  <ele>-24.4</ele>
  <time>2026-09-01T01:14:29Z</time>
  <course>53.47</course>
  <speed>0.93</speed>
  <fix>3d</fix>
</trkpt>
<trkpt lat="33.8104348" lon="-118.3942921">
  <ele>-25.006</ele>
  <time>2026-09-01T01:14:29Z</time>
  <course>51.48</course>
  <speed>0.9402127418834527</speed>
  <fix>3d</fix>
</trkpt>
<trkpt lat="33.8104339" lon="-118.3942932">
  <ele>-24.4</ele>
  <time>2026-09-01T01:14:29Z</time>
  <course>53.42</course>
  <speed>0.93</speed>
  <fix>3d</fix>
</trkpt>
<trkpt lat="33.8104353" lon="-118.3942913">
  <ele>-25.003</ele>
  <time>2026-09-01T01:14:29Z</time>
  <course>51.45</course>
  <speed>0.9464142856064675</speed>
  <fix>3d</fix>
</trkpt>
<trkpt lat="33.8104339" lon="-118.3942932">
  <ele>-24.4</ele>
  <time>2026-09-01T01:14:29Z</time>
  <course>53.42</course>
  <speed>0.93</speed>
  <fix>3d</fix>
</trkpt>
<trkpt lat="33.8104358" lon="-118.3942905">
  <ele>-25.003</ele>
  <time>2026-09-01T01:14:29Z</time>
  <course>51.44</course>
  <speed>0.9464142856064675</speed>
  <fix>3d</fix>
</trkpt>
<trkpt lat="33.8104349" lon="-118.3942915">
  <ele>-24.4</ele>
  <time>2026-09-01T01:14:29Z</time>
  <course>53.36</course>
  <speed>0.93</speed>
  <fix>3d</fix>
</trkpt>
<trkpt lat="33.8104363" lon="-118.3942897">
  <ele>-25.006</ele>
  <time>2026-09-01T01:14:29Z</time>
  <course>51.46</course>
  <speed>0.9464142856064675</speed>
  <fix>3d</fix>
</trkpt>
<trkpt lat="33.8104349" lon="-118.3942915">
  <ele>-24.4</ele>
  <time>2026-09-01T01:14:29Z</time>
  <course>53.36</course>
  <speed>0.93</speed>
  <fix>3d</fix>
</trkpt>
<trkpt lat="33.8104368" lon="-118.3942888">
  <ele>-25.008</ele>
  <time>2026-09-01T01:14:29Z</time>
  <course>51.48</course>
  <speed>0.9542536350467836</speed>
  <fix>3d</fix>
</trkpt>
<trkpt lat="33.8104359" lon="-118.3942899">
  <ele>-24.4</ele>
  <time>2026-09-01T01:14:29Z</time>
  <course>53.38</course>
  <speed>0.93</speed>
  <fix>3d</fix>
</trkpt>
<trkpt lat="33.8104373" lon="-118.394288">
  <ele>-25.01</ele>
  <time>2026-09-01T01:14:29Z</time>
  <course>51.5</course>
  <speed>0.9542536350467836</speed>
  <fix>3d</fix>
</trkpt>
<trkpt lat="33.8104359" lon="-118.3942899">
  <ele>-24.4</ele>
  <time>2026-09-01T01:14:29Z</time>
  <course>53.38</course>
  <speed>0.93</speed>
  <fix>3d</fix>
</trkpt>
<trkpt lat="33.8104378" lon="-118.3942872">
  <ele>-25.013</ele>
  <time>2026-09-01T01:14:29Z</time>
  <course>51.53</course>
  <speed>0.9542536350467836</speed>
  <fix>3d</fix>
</trkpt>
<trkpt lat="33.8104369" lon="-118.3942883">
  <ele>-24.4</ele>
  <time>2026-09-01T01:14:29Z</time>
  <course>53.41</course>
  <speed>0.93</speed>
  <fix>3d</fix>
</trkpt>
<trkpt lat="33.8104383" lon="-118.3942864">
  <ele>-25.016</ele>
  <time>2026-09-01T01:14:29Z</time>
  <course>51.55</course>
  <speed>0.9542536350467836</speed>
  <fix>3d</fix>
</trkpt>
<trkpt lat="33.8104369" lon="-118.3942883">
  <ele>-24.4</ele>
  <time>2026-09-01T01:14:29Z</time>
  <course>53.41</course>
  <speed>0.93</speed>
  <fix>3d</fix>
</trkpt>
<trkpt lat="33.8104388" lon="-118.3942856">
  <ele>-25.018</ele>
  <time>2026-09-01T01:14:29Z</time>
  <course>51.58</course>
  <speed>0.9542536350467836</speed>
  <fix>3d</fix>
</trkpt>
<trkpt lat="33.8104378" lon="-118.3942867">
  <ele>-24.41</ele>
  <time>2026-09-01T01:14:29Z</time>
  <course>53.45</course>
  <speed>0.93</speed>
  <fix>3d</fix>
</trkpt>
<trkpt lat="33.8104393" lon="-118.3942848">
  <ele>-25.02</ele>
  <time>2026-09-01T01:14:29Z</time>
  <course>51.61</course>
  <speed>0.9542536350467836</speed>
  <fix>3d</fix>
</trkpt>
<trkpt lat="33.8104378" lon="-118.3942867">
  <ele>-24.41</ele>
  <time>2026-09-01T01:14:29Z</time>
  <course>53.45</course>
  <speed>0.93</speed>
  <fix>3d</fix>
</trkpt>
<trkpt lat="33.8104398" lon="-118.394284">
  <ele>-25.02</ele>
  <time>2026-09-01T01:14:29Z</time>
  <course>51.61</course>
  <speed>0.9542536350467836</speed>
  <fix>3d</fix>
</trkpt>
<trkpt lat="33.8104388" lon="-118.394285">
  <ele>-24.41</ele>
  <time>2026-09-01T01:14:29Z</time>
  <course>53.46</course>
  <speed>0.94</speed>
  <fix>3d</fix>
</trkpt>
<trkpt lat="33.8104403" lon="-118.3942831">
  <ele>-25.02</ele>
  <time>2026-09-01T01:14:29Z</time>
  <course>51.59</course>
  <speed>0.9542536350467836</speed>
  <fix>3d</fix>
</trkpt>
<trkpt lat="33.8104388" lon="-118.394285">
  <ele>-24.41</ele>
  <time>2026-09-01T01:14:29Z</time>
  <course>53.46</course>
  <speed>0.94</speed>
  <fix>3d</fix>
</trkpt>
<trkpt lat="33.8104408" lon="-118.3942823">
  <ele>-25.019</ele>
  <time>2026-09-01T01:14:29Z</time>
  <course>51.57</course>
  <speed>0.9542536350467836</speed>
  <fix>3d</fix>
</trkpt>
<trkpt lat="33.8104399" lon="-118.3942834">
  <ele>-24.41</ele>
  <time>2026-09-01T01:14:29Z</time>
  <course>53.39</course>
  <speed>0.94</speed>
  <fix>3d</fix>
</trkpt>
<trkpt lat="33.8104413" lon="-118.3942815">
  <ele>-25.017</ele>
  <time>2026-09-01T01:14:29Z</time>
  <course>51.55</course>
  <speed>0.9542536350467836</speed>
  <fix>3d</fix>
</trkpt>
<trkpt lat="33.8104399" lon="-118.3942834">
  <ele>-24.41</ele>
  <time>2026-09-01T01:14:29Z</time>
  <course>53.39</course>
  <speed>0.94</speed>
  <fix>3d</fix>
</trkpt>
<trkpt lat="33.8104418" lon="-118.3942807">
  <ele>-25.013</ele>
  <time>2026-09-01T01:14:29Z</time>
  <course>51.54</course>
  <speed>0.9542536350467836</speed>
  <fix>3d</fix>
</trkpt>
<trkpt lat="33.8104409" lon="-118.3942817">
  <ele>-24.4</ele>
  <time>2026-09-01T01:14:29Z</time>
  <course>53.34</course>
  <speed>0.94</speed>
  <fix>3d</fix>
</trkpt>
<trkpt lat="33.8104423" lon="-118.3942798">
  <ele>-25.008</ele>
  <time>2026-09-01T01:14:29Z</time>
  <course>51.55</course>
  <speed>0.9542536350467836</speed>
  <fix>3d</fix>
</trkpt>
<trkpt lat="33.8104409" lon="-118.3942817">
  <ele>-24.4</ele>
  <time>2026-09-01T01:14:29Z</time>
  <course>53.34</course>
  <speed>0.94</speed>
  <fix>3d</fix>
</trkpt>
<trkpt lat="33.8104429" lon="-118.394279">
  <ele>-25.004</ele>
  <time>2026-09-01T01:14:29Z</time>
  <course>51.55</course>
  <speed>0.9542536350467836</speed>
  <fix>3d</fix>
</trkpt>
<trkpt lat="33.8104419" lon="-118.3942801">
  <ele>-24.39</ele>
  <time>2026-09-01T01:14:29Z</time>
  <course>53.33</course>
  <speed>0.94</speed>
  <fix>3d</fix>
</trkpt>
<trkpt lat="33.8104434" lon="-118.3942782">
  <ele>-25.002</ele>
  <time>2026-09-01T01:14:29Z</time>
  <course>51.55</course>
  <speed>0.9542536350467836</speed>
  <fix>3d</fix>
</trkpt>
<trkpt lat="33.8104419" lon="-118.3942801">
  <ele>-24.39</ele>
  <time>2026-09-01T01:14:29Z</time>
  <course>53.33</course>
  <speed>0.94</speed>
  <fix>3d</fix>
</trkpt>
<trkpt lat="33.8104439" lon="-118.3942774">
  <ele>-25.002</ele>
  <time>2026-09-01T01:14:29Z</time>
  <course>51.56</course>
  <speed>0.9542536350467836</speed>
  <fix>3d</fix>
</trkpt>
<trkpt lat="33.810443" lon="-118.3942784">
  <ele>-24.39</ele>
  <time>2026-09-01T01:14:29Z</time>
  <course>53.33</course>
  <speed>0.94</speed>
  <fix>3d</fix>
</trkpt>
<trkpt lat="33.8104444" lon="-118.3942766">
  <ele>-25.004</ele>
  <time>2026-09-01T01:14:29Z</time>
  <course>51.58</course>
  <speed>0.9542536350467836</speed>
  <fix>3d</fix>
</trkpt>
<trkpt lat="33.810443" lon="-118.3942784">
  <ele>-24.39</ele>
  <time>2026-09-01T01:14:29Z</time>
  <course>53.33</course>
  <speed>0.94</speed>
  <fix>3d</fix>
</trkpt>
<trkpt lat="33.8104449" lon="-118.3942757">
  <ele>-25.005</ele>
  <time>2026-09-01T01:14:29Z</time>
  <course>51.6</course>
  <speed>0.9542536350467836</speed>
  <fix>3d</fix>
</trkpt>
<trkpt lat="33.8104439" lon="-118.3942768">
  <ele>-24.39</ele>
  <time>2026-09-01T01:14:29Z</time>
  <course>53.35</course>
  <speed>0.94</speed>
  <fix>3d</fix>
</trkpt>
<trkpt lat="33.8104454" lon="-118.3942749">
  <ele>-25.005</ele>
  <time>2026-09-01T01:14:29Z</time>
  <course>51.62</course>
  <speed>0.9542536350467836</speed>
  <fix>3d</fix>
</trkpt>
<trkpt lat="33.8104439" lon="-118.3942768">
  <ele>-24.39</ele>
  <time>2026-09-01T01:14:29Z</time>
  <course>53.35</course>
  <speed>0.94</speed>
  <fix>3d</fix>
</trkpt>
<trkpt lat="33.8104459" lon="-118.3942741">
  <ele>-25.006</ele>
  <time>2026-09-01T01:14:29Z</time>
  <course>51.64</course>
  <speed>0.9621330469326995</speed>
  <fix>3d</fix>
</trkpt>
<trkpt lat="33.810445" lon="-118.3942752">
  <ele>-24.39</ele>
  <time>2026-09-01T01:14:29Z</time>
  <course>53.37</course>
  <speed>0.94</speed>
  <fix>3d</fix>
</trkpt>
<trkpt lat="33.8104464" lon="-118.3942732">
  <ele>-25.007</ele>
  <time>2026-09-01T01:14:29Z</time>
  <course>51.65</course>
  <speed>0.9621330469326995</speed>
  <fix>3d</fix>
</trkpt>
<trkpt lat="33.810445" lon="-118.3942752">
  <ele>-24.39</ele>
  <time>2026-09-01T01:14:29Z</time>
  <course>53.37</course>
  <speed>0.94</speed>
  <fix>3d</fix>
</trkpt>
<trkpt lat="33.8104469" lon="-118.3942724">
  <ele>-25.008</ele>
  <time>2026-09-01T01:14:29Z</time>
  <course>51.67</course>
  <speed>0.9621330469326995</speed>
  <fix>3d</fix>
</trkpt>
<trkpt lat="33.810446" lon="-118.3942735">
  <ele>-24.4</ele>
  <time>2026-09-01T01:14:29Z</time>
  <course>53.4</course>
  <speed>0.95</speed>
  <fix>3d</fix>
</trkpt>
<trkpt lat="33.8104474" lon="-118.3942716">
  <ele>-25.008</ele>
  <time>2026-09-01T01:14:29Z</time>
  <course>51.71</course>
  <speed>0.9621330469326995</speed>
  <fix>3d</fix>
</trkpt>
<trkpt lat="33.810446" lon="-118.3942735">
  <ele>-24.4</ele>
  <time>2026-09-01T01:14:29Z</time>
  <course>53.4</course>
  <speed>0.95</speed>
  <fix>3d</fix>
</trkpt>
<trkpt lat="33.8104479" lon="-118.3942708">
  <ele>-25.008</ele>
  <time>2026-09-01T01:14:29Z</time>
  <course>51.73</course>
  <speed>0.9621330469326995</speed>
  <fix>3d</fix>
</trkpt>
<trkpt lat="33.810447" lon="-118.3942719">
  <ele>-24.4</ele>
  <time>2026-09-01T01:14:29Z</time>
  <course>53.43</course>
  <speed>0.95</speed>
  <fix>3d</fix>
</trkpt>
<trkpt lat="33.8104485" lon="-118.3942699">
  <ele>-25.007</ele>
  <time>2026-09-01T01:14:29Z</time>
  <course>51.76</course>
  <speed>0.9621330469326995</speed>
  <fix>3d</fix>
</trkpt>
<trkpt lat="33.810447" lon="-118.3942719">
  <ele>-24.4</ele>
  <time>2026-09-01T01:14:29Z</time>
  <course>53.43</course>
  <speed>0.95</speed>
  <fix>3d</fix>
</trkpt>
<trkpt lat="33.810449" lon="-118.3942691">
  <ele>-25.006</ele>
  <time>2026-09-01T01:14:29Z</time>
  <course>51.78</course>
  <speed>0.9621330469326995</speed>
  <fix>3d</fix>
</trkpt>
<trkpt lat="33.8104481" lon="-118.3942702">
  <ele>-24.4</ele>
  <time>2026-09-01T01:14:29Z</time>
  <course>53.46</course>
  <speed>0.95</speed>
  <fix>3d</fix>
</trkpt>
<trkpt lat="33.8104495" lon="-118.3942683">
  <ele>-25.005</ele>
  <time>2026-09-01T01:14:29Z</time>
  <course>51.81</course>
  <speed>0.9621330469326995</speed>
  <fix>3d</fix>
</trkpt>
<trkpt lat="33.8104481" lon="-118.3942702">
  <ele>-24.4</ele>
  <time>2026-09-01T01:14:29Z</time>
  <course>53.46</course>
  <speed>0.95</speed>
  <fix>3d</fix>
</trkpt>
<trkpt lat="33.81045" lon="-118.3942675">
  <ele>-25.005</ele>
  <time>2026-09-01T01:14:29Z</time>
  <course>51.84</course>
  <speed>0.9621330469326995</speed>
  <fix>3d</fix>
</trkpt>
<trkpt lat="33.8104491" lon="-118.3942686">
  <ele>-24.4</ele>
  <time>2026-09-01T01:14:29Z</time>
  <course>53.51</course>
  <speed>0.95</speed>
  <fix>3d</fix>
</trkpt>
<trkpt lat="33.8104505" lon="-118.3942666">
  <ele>-25.007</ele>
  <time>2026-09-01T01:14:29Z</time>
  <course>51.88</course>
  <speed>0.9621330469326995</speed>
  <fix>3d</fix>
</trkpt>
<trkpt lat="33.8104491" lon="-118.3942686">
  <ele>-24.4</ele>
  <time>2026-09-01T01:14:29Z</time>
  <course>53.51</course>
  <speed>0.95</speed>
  <fix>3d</fix>
</trkpt>
<trkpt lat="33.810451" lon="-118.3942658">
  <ele>-25.009</ele>
  <time>2026-09-01T01:14:29Z</time>
  <course>51.92</course>
  <speed>0.9621330469326995</speed>
  <fix>3d</fix>
</trkpt>
<trkpt lat="33.8104501" lon="-118.3942669">
  <ele>-24.41</ele>
  <time>2026-09-01T01:14:29Z</time>
  <course>53.58</course>
  <speed>0.95</speed>
  <fix>3d</fix>
</trkpt>
<trkpt lat="33.8104515" lon="-118.394265">
  <ele>-25.011</ele>
  <time>2026-09-01T01:14:29Z</time>
  <course>51.97</course>
  <speed>0.9621330469326995</speed>
  <fix>3d</fix>
</trkpt>
<trkpt lat="33.8104501" lon="-118.3942669">
  <ele>-24.41</ele>
  <time>2026-09-01T01:14:29Z</time>
  <course>53.58</course>
  <speed>0.95</speed>
  <fix>3d</fix>
</trkpt>
<trkpt lat="33.810452" lon="-118.3942641">
  <ele>-25.011</ele>
  <time>2026-09-01T01:14:29Z</time>
  <course>51.99</course>
  <speed>0.9621330469326995</speed>
  <fix>3d</fix>
</trkpt>
<trkpt lat="33.810451" lon="-118.3942652">
  <ele>-24.41</ele>
  <time>2026-09-01T01:14:29Z</time>
  <course>53.63</course>
  <speed>0.95</speed>
  <fix>3d</fix>
</trkpt>
<trkpt lat="33.8104525" lon="-118.3942633">
  <ele>-25.011</ele>
  <time>2026-09-01T01:14:29Z</time>
  <course>52.0</course>
  <speed>0.9682974749528164</speed>
  <fix>3d</fix>
</trkpt>
<trkpt lat="33.810451" lon="-118.3942652">
  <ele>-24.41</ele>
  <time>2026-09-01T01:14:29Z</time>
  <course>53.63</course>
  <speed>0.95</speed>
  <fix>3d</fix>
</trkpt>
<trkpt lat="33.8104531" lon="-118.3942625">
  <ele>-25.012</ele>
  <time>2026-09-01T01:14:29Z</time>
  <course>51.99</course>
  <speed>0.9682974749528164</speed>
  <fix>3d</fix>
</trkpt>
<trkpt lat="33.8104521" lon="-118.3942635">
  <ele>-24.41</ele>
  <time>2026-09-01T01:14:29Z</time>
  <course>53.59</course>
  <speed>0.95</speed>
  <fix>3d</fix>
</trkpt>
<trkpt lat="33.8104536" lon="-118.3942616">
  <ele>-25.012</ele>
  <time>2026-09-01T01:14:29Z</time>
  <course>51.94</course>
  <speed>0.9682974749528164</speed>
  <fix>3d</fix>
</trkpt>
<trkpt lat="33.8104521" lon="-118.3942635">
  <ele>-24.41</ele>
  <time>2026-09-01T01:14:29Z</time>
  <course>53.59</course>
  <speed>0.95</speed>
  <fix>3d</fix>
</trkpt>
<trkpt lat="33.8104541" lon="-118.3942608">
  <ele>-25.012</ele>
  <time>2026-09-01T01:14:29Z</time>
  <course>51.89</course>
  <speed>0.9682974749528164</speed>
  <fix>3d</fix>
</trkpt>
<trkpt lat="33.8104532" lon="-118.3942619">
  <ele>-24.41</ele>
  <time>2026-09-01T01:14:29Z</time>
  <course>53.48</course>
  <speed>0.95</speed>
  <fix>3d</fix>
</trkpt>
<trkpt lat="33.8104546" lon="-118.39426">
  <ele>-25.011</ele>
  <time>2026-09-01T01:14:29Z</time>
  <course>51.87</course>
  <speed>0.9682974749528164</speed>
  <fix>3d</fix>
</trkpt>
<trkpt lat="33.8104532" lon="-118.3942619">
  <ele>-24.41</ele>
  <time>2026-09-01T01:14:29Z</time>
  <course>53.48</course>
  <speed>0.95</speed>
  <fix>3d</fix>
</trkpt>
<trkpt lat="33.8104551" lon="-118.3942591">
  <ele>-25.011</ele>
  <time>2026-09-01T01:14:29Z</time>
  <course>51.86</course>
  <speed>0.9682974749528164</speed>
  <fix>3d</fix>
</trkpt>
<trkpt lat="33.8104541" lon="-118.3942602">
  <ele>-24.41</ele>
  <time>2026-09-01T01:14:29Z</time>
  <course>53.45</course>
  <speed>0.95</speed>
  <fix>3d</fix>
</trkpt>
<trkpt lat="33.8104556" lon="-118.3942583">
  <ele>-25.011</ele>
  <time>2026-09-01T01:14:29Z</time>
  <course>51.86</course>
  <speed>0.9682974749528164</speed>
  <fix>3d</fix>
</trkpt>
<trkpt lat="33.8104541" lon="-118.3942602">
  <ele>-24.41</ele>
  <time>2026-09-01T01:14:29Z</time>
  <course>53.45</course>
  <speed>0.95</speed>
  <fix>3d</fix>
</trkpt>
<trkpt lat="33.8104561" lon="-118.3942575">
  <ele>-25.01</ele>
  <time>2026-09-01T01:14:29Z</time>
  <course>51.86</course>
  <speed>0.9761659694949419</speed>
  <fix>3d</fix>
</trkpt>
<trkpt lat="33.8104552" lon="-118.3942586">
  <ele>-24.41</ele>
  <time>2026-09-01T01:14:29Z</time>
  <course>53.46</course>
  <speed>0.96</speed>
  <fix>3d</fix>
</trkpt>
<trkpt lat="33.8104567" lon="-118.3942566">
  <ele>-25.01</ele>
  <time>2026-09-01T01:14:29Z</time>
  <course>51.85</course>
  <speed>0.9761659694949419</speed>
  <fix>3d</fix>
</trkpt>
<trkpt lat="33.8104552" lon="-118.3942586">
  <ele>-24.41</ele>
  <time>2026-09-01T01:14:29Z</time>
  <course>53.46</course>
  <speed>0.96</speed>
  <fix>3d</fix>
</trkpt>
<trkpt lat="33.8104572" lon="-118.3942558">
  <ele>-25.01</ele>
  <time>2026-09-01T01:14:29Z</time>
  <course>51.85</course>
  <speed>0.9761659694949419</speed>
  <fix>3d</fix>
</trkpt>
<trkpt lat="33.8104562" lon="-118.3942569">
  <ele>-24.41</ele>
  <time>2026-09-01T01:14:29Z</time>
  <course>53.45</course>
  <speed>0.96</speed>
  <fix>3d</fix>
</trkpt>
<trkpt lat="33.8104577" lon="-118.3942549">
  <ele>-25.01</ele>
  <time>2026-09-01T01:14:29Z</time>
  <course>51.86</course>
  <speed>0.9761659694949419</speed>
  <fix>3d</fix>
</trkpt>
<trkpt lat="33.8104562" lon="-118.3942569">
  <ele>-24.41</ele>
  <time>2026-09-01T01:14:29Z</time>
  <course>53.45</course>
  <speed>0.96</speed>
  <fix>3d</fix>
</trkpt>
<trkpt lat="33.8104582" lon="-118.3942541">
  <ele>-25.01</ele>
  <time>2026-09-01T01:14:29Z</time>
  <course>51.86</course>
  <speed>0.9761659694949419</speed>
  <fix>3d</fix>
</trkpt>
<trkpt lat="33.8104572" lon="-118.3942552">
  <ele>-24.41</ele>
  <time>2026-09-01T01:14:29Z</time>
  <course>53.45</course>
  <speed>0.96</speed>
  <fix>3d</fix>
</trkpt>
<trkpt lat="33.8104587" lon="-118.3942533">
  <ele>-25.011</ele>
  <time>2026-09-01T01:14:29Z</time>
  <course>51.86</course>
  <speed>0.9761659694949419</speed>
  <fix>3d</fix>
</trkpt>
<trkpt lat="33.8104572" lon="-118.3942552">
  <ele>-24.41</ele>
  <time>2026-09-01T01:14:29Z</time>
  <course>53.45</course>
  <speed>0.96</speed>
  <fix>3d</fix>
</trkpt>
<trkpt lat="33.8104592" lon="-118.3942524">
  <ele>-25.011</ele>
  <time>2026-09-01T01:14:29Z</time>
  <course>51.86</course>
  <speed>0.9761659694949419</speed>
  <fix>3d</fix>
</trkpt>
<trkpt lat="33.8104583" lon="-118.3942535">
  <ele>-24.41</ele>
  <time>2026-09-01T01:14:29Z</time>
  <course>53.45</course>
  <speed>0.96</speed>
  <fix>3d</fix>
</trkpt>
<trkpt lat="33.8104597" lon="-118.3942516">
  <ele>-25.011</ele>
  <time>2026-09-01T01:14:29Z</time>
  <course>51.85</course>
  <speed>0.9761659694949419</speed>
  <fix>3d</fix>
</trkpt>
<trkpt lat="33.8104583" lon="-118.3942535">
  <ele>-24.41</ele>
  <time>2026-09-01T01:14:29Z</time>
  <course>53.45</course>
  <speed>0.96</speed>
  <fix>3d</fix>
</trkpt>
<trkpt lat="33.8104603" lon="-118.3942508">
  <ele>-25.011</ele>
  <time>2026-09-01T01:14:29Z</time>
  <course>51.85</course>
  <speed>0.9761659694949419</speed>
  <fix>3d</fix>
</trkpt>
<trkpt lat="33.8104593" lon="-118.3942519">
  <ele>-24.41</ele>
  <time>2026-09-01T01:14:29Z</time>
  <course>53.44</course>
  <speed>0.96</speed>
  <fix>3d</fix>
</trkpt>
<trkpt lat="33.8104608" lon="-118.3942499">
  <ele>-25.012</ele>
  <time>2026-09-01T01:14:29Z</time>
  <course>51.85</course>
  <speed>0.9761659694949419</speed>
  <fix>3d</fix>
</trkpt>
<trkpt lat="33.8104593" lon="-118.3942519">
  <ele>-24.41</ele>
  <time>2026-09-01T01:14:29Z</time>
  <course>53.44</course>
  <speed>0.96</speed>
  <fix>3d</fix>
</trkpt>
<trkpt lat="33.8104613" lon="-118.3942491">
  <ele>-25.014</ele>
  <time>2026-09-01T01:14:29Z</time>
  <course>51.86</course>
  <speed>0.9761659694949419</speed>
  <fix>3d</fix>
</trkpt>
<trkpt lat="33.8104603" lon="-118.3942502">
  <ele>-24.41</ele>
  <time>2026-09-01T01:14:29Z</time>
  <course>53.45</course>
  <speed>0.96</speed>
  <fix>3d</fix>
</trkpt>
<trkpt lat="33.8104618" lon="-118.3942482">
  <ele>-25.014</ele>
  <time>2026-09-01T01:14:29Z</time>
  <course>51.88</course>
  <speed>0.9761659694949419</speed>
  <fix>3d</fix>
</trkpt>
<trkpt lat="33.8104603" lon="-118.3942502">
  <ele>-24.41</ele>
  <time>2026-09-01T01:14:29Z</time>
  <course>53.45</course>
  <speed>0.96</speed>
  <fix>3d</fix>
</trkpt>
<trkpt lat="33.8104623" lon="-118.3942474">
  <ele>-25.014</ele>
  <time>2026-09-01T01:14:29Z</time>
  <course>51.88</course>
  <speed>0.9761659694949419</speed>
  <fix>3d</fix>
</trkpt>
<trkpt lat="33.8104613" lon="-118.3942485">
  <ele>-24.41</ele>
  <time>2026-09-01T01:14:29Z</time>
  <course>53.45</course>
  <speed>0.96</speed>
  <fix>3d</fix>
</trkpt>
<trkpt lat="33.8104628" lon="-118.3942465">
  <ele>-25.014</ele>
  <time>2026-09-01T01:14:29Z</time>
  <course>51.88</course>
  <speed>0.9761659694949419</speed>
  <fix>3d</fix>
</trkpt>
<trkpt lat="33.8104613" lon="-118.3942485">
  <ele>-24.41</ele>
  <time>2026-09-01T01:14:29Z</time>
  <course>53.45</course>
  <speed>0.96</speed>
  <fix>3d</fix>
</trkpt>
<trkpt lat="33.8104634" lon="-118.3942457">
  <ele>-25.012</ele>
  <time>2026-09-01T01:14:29Z</time>
  <course>51.85</course>
  <speed>0.9761659694949419</speed>
  <fix>3d</fix>
</trkpt>
<trkpt lat="33.8104624" lon="-118.3942468">
  <ele>-24.41</ele>
  <time>2026-09-01T01:14:29Z</time>
  <course>53.41</course>
  <speed>0.96</speed>
  <fix>3d</fix>
</trkpt>
<trkpt lat="33.8104639" lon="-118.3942449">
  <ele>-25.011</ele>
  <time>2026-09-01T01:14:29Z</time>
  <course>51.84</course>
  <speed>0.9761659694949419</speed>
  <fix>3d</fix>
</trkpt>
<trkpt lat="33.8104624" lon="-118.3942468">
  <ele>-24.41</ele>
  <time>2026-09-01T01:14:29Z</time>
  <course>53.41</course>
  <speed>0.96</speed>
  <fix>3d</fix>
</trkpt>
<trkpt lat="33.8104644" lon="-118.394244">
  <ele>-25.011</ele>
  <time>2026-09-01T01:14:29Z</time>
  <course>51.83</course>
  <speed>0.9761659694949419</speed>
  <fix>3d</fix>
</trkpt>
<trkpt lat="33.8104635" lon="-118.3942451">
  <ele>-24.41</ele>
  <time>2026-09-01T01:14:29Z</time>
  <course>53.37</course>
  <speed>0.96</speed>
  <fix>3d</fix>
</trkpt>
<trkpt lat="33.8104649" lon="-118.3942432">
  <ele>-25.011</ele>
  <time>2026-09-01T01:14:29Z</time>
  <course>51.83</course>
  <speed>0.9761659694949419</speed>
  <fix>3d</fix>
</trkpt>
<trkpt lat="33.8104635" lon="-118.3942451">
  <ele>-24.41</ele>
  <time>2026-09-01T01:14:29Z</time>
  <course>53.37</course>
  <speed>0.96</speed>
  <fix>3d</fix>
</trkpt>
<trkpt lat="33.8104654" lon="-118.3942423">
  <ele>-25.01</ele>
  <time>2026-09-01T01:14:29Z</time>
  <course>51.84</course>
  <speed>0.9761659694949419</speed>
  <fix>3d</fix>
</trkpt>
<trkpt lat="33.8104644" lon="-118.3942434">
  <ele>-24.4</ele>
  <time>2026-09-01T01:14:29Z</time>
  <course>53.38</course>
  <speed>0.96</speed>
  <fix>3d</fix>
</trkpt>
<trkpt lat="33.810466" lon="-118.3942415">
  <ele>-25.01</ele>
  <time>2026-09-01T01:14:29Z</time>
  <course>51.85</course>
  <speed>0.9761659694949419</speed>
  <fix>3d</fix>
</trkpt>
<trkpt lat="33.8104644" lon="-118.3942434">
  <ele>-24.4</ele>
  <time>2026-09-01T01:14:29Z</time>
  <course>53.38</course>
  <speed>0.96</speed>
  <fix>3d</fix>
</trkpt>
<trkpt lat="33.8104665" lon="-118.3942406">
  <ele>-25.01</ele>
  <time>2026-09-01T01:14:29Z</time>
  <course>51.85</course>
  <speed>0.9761659694949419</speed>
  <fix>3d</fix>
</trkpt>
<trkpt lat="33.8104655" lon="-118.3942418">
  <ele>-24.4</ele>
  <time>2026-09-01T01:14:29Z</time>
  <course>53.37</course>
  <speed>0.96</speed>
  <fix>3d</fix>
</trkpt>
<trkpt lat="33.810467" lon="-118.3942398">
  <ele>-25.011</ele>
  <time>2026-09-01T01:14:29Z</time>
  <course>51.83</course>
  <speed>0.982344135219425</speed>
  <fix>3d</fix>
</trkpt>
<trkpt lat="33.8104655" lon="-118.3942418">
  <ele>-24.4</ele>
  <time>2026-09-01T01:14:29Z</time>
  <course>53.37</course>
  <speed>0.96</speed>
  <fix>3d</fix>
</trkpt>
<trkpt lat="33.8104675" lon="-118.3942389">
  <ele>-25.01</ele>
  <time>2026-09-01T01:14:29Z</time>
  <course>51.82</course>
  <speed>0.9761659694949419</speed>
  <fix>3d</fix>
</trkpt>
<trkpt lat="33.8104666" lon="-118.3942401">
  <ele>-24.4</ele>
  <time>2026-09-01T01:14:29Z</time>
  <course>53.35</course>
  <speed>0.97</speed>
  <fix>3d</fix>
</trkpt>
<trkpt lat="33.810468" lon="-118.3942381">
  <ele>-25.01</ele>
  <time>2026-09-01T01:14:29Z</time>
  <course>51.84</course>
  <speed>0.9902019995940222</speed>
  <fix>3d</fix>
</trkpt>
<trkpt lat="33.8104666" lon="-118.3942401">
  <ele>-24.4</ele>
  <time>2026-09-01T01:14:29Z</time>
  <course>53.35</course>
  <speed>0.97</speed>
  <fix>3d</fix>
</trkpt>
<trkpt lat="33.8104686" lon="-118.3942373">
  <ele>-25.008</ele>
  <time>2026-09-01T01:14:29Z</time>
  <course>51.88</course>
  <speed>0.9902019995940222</speed>
  <fix>3d</fix>
</trkpt>
<trkpt lat="33.8104676" lon="-118.3942384">
  <ele>-24.4</ele>
  <time>2026-09-01T01:14:29Z</time>
  <course>53.38</course>
  <speed>0.97</speed>
  <fix>3d</fix>
</trkpt>
<trkpt lat="33.8104691" lon="-118.3942364">
  <ele>-25.008</ele>
  <time>2026-09-01T01:14:29Z</time>
  <course>51.92</course>
  <speed>0.9902019995940222</speed>
  <fix>3d</fix>
</trkpt>
<trkpt lat="33.8104676" lon="-118.3942384">
  <ele>-24.4</ele>
  <time>2026-09-01T01:14:29Z</time>
  <course>53.38</course>
  <speed>0.97</speed>
  <fix>3d</fix>
</trkpt>
<trkpt lat="33.8104696" lon="-118.3942356">
  <ele>-25.008</ele>
  <time>2026-09-01T01:14:29Z</time>
  <course>51.95</course>
  <speed>0.9902019995940222</speed>
  <fix>3d</fix>
</trkpt>
<trkpt lat="33.8104687" lon="-118.3942367">
  <ele>-24.4</ele>
  <time>2026-09-01T01:14:29Z</time>
  <course>53.44</course>
  <speed>0.97</speed>
  <fix>3d</fix>
</trkpt>
<trkpt lat="33.8104701" lon="-118.3942347">
  <ele>-25.008</ele>
  <time>2026-09-01T01:14:29Z</time>
  <course>51.98</course>
  <speed>0.9902019995940222</speed>
  <fix>3d</fix>
</trkpt>
<trkpt lat="33.8104687" lon="-118.3942367">
  <ele>-24.4</ele>
  <time>2026-09-01T01:14:29Z</time>
  <course>53.44</course>
  <speed>0.97</speed>
  <fix>3d</fix>
</trkpt>
<trkpt lat="33.8104706" lon="-118.3942339">
  <ele>-25.007</ele>
  <time>2026-09-01T01:14:29Z</time>
  <course>52.01</course>
  <speed>0.9902019995940222</speed>
  <fix>3d</fix>
</trkpt>
<trkpt lat="33.8104697" lon="-118.394235">
  <ele>-24.4</ele>
  <time>2026-09-01T01:14:29Z</time>
  <course>53.48</course>
  <speed>0.97</speed>
  <fix>3d</fix>
</trkpt>
<trkpt lat="33.8104712" lon="-118.394233">
  <ele>-25.007</ele>
  <time>2026-09-01T01:14:29Z</time>
  <course>52.04</course>
  <speed>0.9902019995940222</speed>
  <fix>3d</fix>
</trkpt>
<trkpt lat="33.8104697" lon="-118.394235">
  <ele>-24.4</ele>
  <time>2026-09-01T01:14:29Z</time>
  <course>53.48</course>
  <speed>0.97</speed>
  <fix>3d</fix>
</trkpt>
<trkpt lat="33.8104717" lon="-118.3942322">
  <ele>-25.006</ele>
  <time>2026-09-01T01:14:29Z</time>
  <course>52.06</course>
  <speed>0.9902019995940222</speed>
  <fix>3d</fix>
</trkpt>
<trkpt lat="33.8104708" lon="-118.3942333">
  <ele>-24.4</ele>
  <time>2026-09-01T01:14:29Z</time>
  <course>53.52</course>
  <speed>0.97</speed>
  <fix>3d</fix>
</trkpt>
<trkpt lat="33.8104722" lon="-118.3942313">
  <ele>-25.006</ele>
  <time>2026-09-01T01:14:29Z</time>
  <course>52.08</course>
  <speed>0.9902019995940222</speed>
  <fix>3d</fix>
</trkpt>
<trkpt lat="33.8104708" lon="-118.3942333">
  <ele>-24.4</ele>
  <time>2026-09-01T01:14:29Z</time>
  <course>53.52</course>
  <speed>0.97</speed>
  <fix>3d</fix>
</trkpt>
<trkpt lat="33.8104727" lon="-118.3942305">
  <ele>-25.007</ele>
  <time>2026-09-01T01:14:29Z</time>
  <course>52.1</course>
  <speed>0.9902019995940222</speed>
  <fix>3d</fix>
</trkpt>
<trkpt lat="33.8104718" lon="-118.3942316">
  <ele>-24.4</ele>
  <time>2026-09-01T01:14:29Z</time>
  <course>53.56</course>
  <speed>0.98</speed>
  <fix>3d</fix>
</trkpt>
<trkpt lat="33.8104733" lon="-118.3942297">
  <ele>-25.008</ele>
  <time>2026-09-01T01:14:29Z</time>
  <course>52.12</course>
  <speed>0.9902019995940222</speed>
  <fix>3d</fix>
</trkpt>
<trkpt lat="33.8104718" lon="-118.3942316">
  <ele>-24.4</ele>
  <time>2026-09-01T01:14:29Z</time>
  <course>53.56</course>
  <speed>0.98</speed>
  <fix>3d</fix>
</trkpt>
<trkpt lat="33.8104738" lon="-118.3942288">
  <ele>-25.01</ele>
  <time>2026-09-01T01:14:29Z</time>
  <course>52.13</course>
  <speed>0.9902019995940222</speed>
  <fix>3d</fix>
</trkpt>
<trkpt lat="33.8104728" lon="-118.3942299">
  <ele>-24.4</ele>
  <time>2026-09-01T01:14:29Z</time>
  <course>53.59</course>
  <speed>0.98</speed>
  <fix>3d</fix>
</trkpt>
<trkpt lat="33.8104743" lon="-118.394228">
  <ele>-25.011</ele>
  <time>2026-09-01T01:14:29Z</time>
  <course>52.14</course>
  <speed>0.9902019995940222</speed>
  <fix>3d</fix>
</trkpt>
<trkpt lat="33.8104728" lon="-118.3942299">
  <ele>-24.4</ele>
  <time>2026-09-01T01:14:29Z</time>
  <course>53.59</course>
  <speed>0.98</speed>
  <fix>3d</fix>
</trkpt>
<trkpt lat="33.8104748" lon="-118.3942271">
  <ele>-25.012</ele>
  <time>2026-09-01T01:14:29Z</time>
  <course>52.13</course>
  <speed>0.9902019995940222</speed>
  <fix>3d</fix>
</trkpt>
<trkpt lat="33.8104739" lon="-118.3942282">
  <ele>-24.4</ele>
  <time>2026-09-01T01:14:29Z</time>
  <course>53.57</course>
  <speed>0.98</speed>
  <fix>3d</fix>
</trkpt>
<trkpt lat="33.8104753" lon="-118.3942262">
  <ele>-25.013</ele>
  <time>2026-09-01T01:14:29Z</time>
  <course>52.11</course>
  <speed>0.9902019995940222</speed>
  <fix>3d</fix>
</trkpt>
<trkpt lat="33.8104739" lon="-118.3942282">
  <ele>-24.4</ele>
  <time>2026-09-01T01:14:29Z</time>
  <course>53.57</course>
  <speed>0.98</speed>
  <fix>3d</fix>
</trkpt>
<trkpt lat="33.8104759" lon="-118.3942254">
  <ele>-25.013</ele>
  <time>2026-09-01T01:14:29Z</time>
  <course>52.1</course>
  <speed>0.9902019995940222</speed>
  <fix>3d</fix>
</trkpt>
<trkpt lat="33.8104749" lon="-118.3942265">
  <ele>-24.4</ele>
  <time>2026-09-01T01:14:29Z</time>
  <course>53.53</course>
  <speed>0.98</speed>
  <fix>3d</fix>
</trkpt>
<trkpt lat="33.8104764" lon="-118.3942245">
  <ele>-25.011</ele>
  <time>2026-09-01T01:14:29Z</time>
  <course>52.1</course>
  <speed>0.9902019995940222</speed>
  <fix>3d</fix>
</trkpt>
<trkpt lat="33.8104749" lon="-118.3942265">
  <ele>-24.4</ele>
  <time>2026-09-01T01:14:29Z</time>
  <course>53.53</course>
  <speed>0.98</speed>
  <fix>3d</fix>
</trkpt>
<trkpt lat="33.8104769" lon="-118.3942237">
  <ele>-25.009</ele>
  <time>2026-09-01T01:14:29Z</time>
  <course>52.1</course>
  <speed>0.9902019995940222</speed>
  <fix>3d</fix>
</trkpt>
<trkpt lat="33.8104759" lon="-118.3942248">
  <ele>-24.4</ele>
  <time>2026-09-01T01:14:29Z</time>
  <course>53.53</course>
  <speed>0.98</speed>
  <fix>3d</fix>
</trkpt>
<trkpt lat="33.8104774" lon="-118.3942228">
  <ele>-25.008</ele>
  <time>2026-09-01T01:14:29Z</time>
  <course>52.08</course>
  <speed>0.9902019995940222</speed>
  <fix>3d</fix>
</trkpt>
<trkpt lat="33.8104759" lon="-118.3942248">
  <ele>-24.4</ele>
  <time>2026-09-01T01:14:29Z</time>
  <course>53.53</course>
  <speed>0.98</speed>
  <fix>3d</fix>
</trkpt>
<trkpt lat="33.810478" lon="-118.394222">
  <ele>-25.006</ele>
  <time>2026-09-01T01:14:29Z</time>
  <course>52.06</course>
  <speed>0.9902019995940222</speed>
  <fix>3d</fix>
</trkpt>
<trkpt lat="33.810477" lon="-118.3942231">
  <ele>-24.4</ele>
  <time>2026-09-01T01:14:29Z</time>
  <course>53.51</course>
  <speed>0.98</speed>
  <fix>3d</fix>
</trkpt>
<trkpt lat="33.8104785" lon="-118.3942211">
  <ele>-25.005</ele>
  <time>2026-09-01T01:14:29Z</time>
  <course>52.03</course>
  <speed>0.9902019995940222</speed>
  <fix>3d</fix>
</trkpt>
<trkpt lat="33.810477" lon="-118.3942231">
  <ele>-24.4</ele>
  <time>2026-09-01T01:14:29Z</time>
  <course>53.51</course>
  <speed>0.98</speed>
  <fix>3d</fix>
</trkpt>
<trkpt lat="33.810479" lon="-118.3942203">
  <ele>-25.005</ele>
  <time>2026-09-01T01:14:29Z</time>
  <course>52.01</course>
  <speed>0.9902019995940222</speed>
  <fix>3d</fix>
</trkpt>
<trkpt lat="33.8104781" lon="-118.3942213">
  <ele>-24.4</ele>
  <time>2026-09-01T01:14:29Z</time>
  <course>53.46</course>
  <speed>0.98</speed>
  <fix>3d</fix>
</trkpt>
<trkpt lat="33.8104795" lon="-118.3942194">
  <ele>-25.007</ele>
  <time>2026-09-01T01:14:29Z</time>
  <course>52.01</course>
  <speed>0.9902019995940222</speed>
  <fix>3d</fix>
</trkpt>
<trkpt lat="33.8104781" lon="-118.3942213">
  <ele>-24.4</ele>
  <time>2026-09-01T01:14:29Z</time>
  <course>53.46</course>
  <speed>0.98</speed>
  <fix>3d</fix>
</trkpt>
<trkpt lat="33.8104801" lon="-118.3942186">
  <ele>-25.008</ele>
  <time>2026-09-01T01:14:29Z</time>
  <course>52.0</course>
  <speed>0.9902019995940222</speed>
  <fix>3d</fix>
</trkpt>
<trkpt lat="33.8104792" lon="-118.3942196">
  <ele>-24.4</ele>
  <time>2026-09-01T01:14:29Z</time>
  <course>53.46</course>
  <speed>0.98</speed>
  <fix>3d</fix>
</trkpt>
<trkpt lat="33.8104806" lon="-118.3942177">
  <ele>-25.008</ele>
  <time>2026-09-01T01:14:29Z</time>
  <course>52.0</course>
  <speed>0.9902019995940222</speed>
  <fix>3d</fix>
</trkpt>
<trkpt lat="33.8104792" lon="-118.3942196">
  <ele>-24.4</ele>
  <time>2026-09-01T01:14:29Z</time>
  <course>53.46</course>
  <speed>0.98</speed>
  <fix>3d</fix>
</trkpt>
<trkpt lat="33.8104811" lon="-118.3942168">
  <ele>-25.008</ele>
  <time>2026-09-01T01:14:29Z</time>
  <course>52.01</course>
  <speed>0.9902019995940222</speed>
  <fix>3d</fix>
</trkpt>
<trkpt lat="33.8104802" lon="-118.3942179">
  <ele>-24.4</ele>
  <time>2026-09-01T01:14:29Z</time>
  <course>53.48</course>
  <speed>0.98</speed>
  <fix>3d</fix>
</trkpt>
<trkpt lat="33.8104816" lon="-118.394216">
  <ele>-25.009</ele>
  <time>2026-09-01T01:14:29Z</time>
  <course>52.03</course>
  <speed>0.9902019995940222</speed>
  <fix>3d</fix>
</trkpt>
<trkpt lat="33.8104802" lon="-118.3942179">
  <ele>-24.4</ele>
  <time>2026-09-01T01:14:29Z</time>
  <course>53.48</course>
  <speed>0.98</speed>
  <fix>3d</fix>
</trkpt>
<trkpt lat="33.8104822" lon="-118.3942151">
  <ele>-25.009</ele>
  <time>2026-09-01T01:14:29Z</time>
  <course>52.04</course>
  <speed>0.9902019995940222</speed>
  <fix>3d</fix>
</trkpt>
<trkpt lat="33.8104813" lon="-118.3942162">
  <ele>-24.4</ele>
  <time>2026-09-01T01:14:29Z</time>
  <course>53.5</course>
  <speed>0.98</speed>
  <fix>3d</fix>
</trkpt>
<trkpt lat="33.8104827" lon="-118.3942143">
  <ele>-25.008</ele>
  <time>2026-09-01T01:14:29Z</time>
  <course>52.05</course>
  <speed>0.9902019995940222</speed>
  <fix>3d</fix>
</trkpt>
<trkpt lat="33.8104813" lon="-118.3942162">
  <ele>-24.4</ele>
  <time>2026-09-01T01:14:29Z</time>
  <course>53.5</course>
  <speed>0.98</speed>
  <fix>3d</fix>
</trkpt>
<trkpt lat="33.8104832" lon="-118.3942134">
  <ele>-25.007</ele>
  <time>2026-09-01T01:14:29Z</time>
  <course>52.07</course>
  <speed>0.9902019995940222</speed>
  <fix>3d</fix>
</trkpt>
<trkpt lat="33.8104823" lon="-118.3942145">
  <ele>-24.4</ele>
  <time>2026-09-01T01:14:29Z</time>
  <course>53.53</course>
  <speed>0.98</speed>
  <fix>3d</fix>
</trkpt>
<trkpt lat="33.8104838" lon="-118.3942126">
  <ele>-25.007</ele>
  <time>2026-09-01T01:14:29Z</time>
  <course>52.08</course>
  <speed>0.9902019995940222</speed>
  <fix>3d</fix>
</trkpt>
<trkpt lat="33.8104823" lon="-118.3942145">
  <ele>-24.4</ele>
  <time>2026-09-01T01:14:29Z</time>
  <course>53.53</course>
  <speed>0.98</speed>
  <fix>3d</fix>
</trkpt>
<trkpt lat="33.8104843" lon="-118.3942117">
  <ele>-25.006</ele>
  <time>2026-09-01T01:14:29Z</time>
  <course>52.09</course>
  <speed>0.9902019995940222</speed>
  <fix>3d</fix>
</trkpt>
<trkpt lat="33.8104833" lon="-118.3942128">
  <ele>-24.4</ele>
  <time>2026-09-01T01:14:29Z</time>
  <course>53.57</course>
  <speed>0.98</speed>
  <fix>3d</fix>
</trkpt>
<trkpt lat="33.8104848" lon="-118.3942108">
  <ele>-25.006</ele>
  <time>2026-09-01T01:14:29Z</time>
  <course>52.1</course>
  <speed>0.9902019995940222</speed>
  <fix>3d</fix>
</trkpt>
<trkpt lat="33.8104833" lon="-118.3942128">
  <ele>-24.4</ele>
  <time>2026-09-01T01:14:29Z</time>
  <course>53.57</course>
  <speed>0.98</speed>
  <fix>3d</fix>
</trkpt>
<trkpt lat="33.8104853" lon="-118.39421">
  <ele>-25.006</ele>
  <time>2026-09-01T01:14:29Z</time>
  <course>52.08</course>
  <speed>0.9902019995940222</speed>
  <fix>3d</fix>
</trkpt>
<trkpt lat="33.8104844" lon="-118.3942111">
  <ele>-24.4</ele>
  <time>2026-09-01T01:14:29Z</time>
  <course>53.57</course>
  <speed>0.98</speed>
  <fix>3d</fix>
</trkpt>
<trkpt lat="33.8104859" lon="-118.3942091">
  <ele>-25.006</ele>
  <time>2026-09-01T01:14:29Z</time>
  <course>52.07</course>
  <speed>0.9980981915623331</speed>
  <fix>3d</fix>
</trkpt>
<trkpt lat="33.8104844" lon="-118.3942111">
  <ele>-24.4</ele>
  <time>2026-09-01T01:14:29Z</time>
  <course>53.57</course>
  <speed>0.98</speed>
  <fix>3d</fix>
</trkpt>
<trkpt lat="33.8104864" lon="-118.3942083">
  <ele>-25.007</ele>
  <time>2026-09-01T01:14:29Z</time>
  <course>52.05</course>
  <speed>0.9980981915623331</speed>
  <fix>3d</fix>
</trkpt>
<trkpt lat="33.8104855" lon="-118.3942093">
  <ele>-24.4</ele>
  <time>2026-09-01T01:14:29Z</time>
  <course>53.54</course>
  <speed>0.98</speed>
  <fix>3d</fix>
</trkpt>
<trkpt lat="33.8104869" lon="-118.3942074">
  <ele>-25.009</ele>
  <time>2026-09-01T01:14:29Z</time>
  <course>52.06</course>
  <speed>0.9980981915623331</speed>
  <fix>3d</fix>
</trkpt>
<trkpt lat="33.8104855" lon="-118.3942093">
  <ele>-24.4</ele>
  <time>2026-09-01T01:14:29Z</time>
  <course>53.54</course>
  <speed>0.98</speed>
  <fix>3d</fix>
</trkpt>
<trkpt lat="33.8104874" lon="-118.3942066">
  <ele>-25.011</ele>
  <time>2026-09-01T01:14:29Z</time>
  <course>52.05</course>
  <speed>0.9980981915623331</speed>
  <fix>3d</fix>
</trkpt>
<trkpt lat="33.8104865" lon="-118.3942076">
  <ele>-24.41</ele>
  <time>2026-09-01T01:14:29Z</time>
  <course>53.54</course>
  <speed>0.98</speed>
  <fix>3d</fix>
</trkpt>
<trkpt lat="33.810488" lon="-118.3942057">
  <ele>-25.013</ele>
  <time>2026-09-01T01:14:29Z</time>
  <course>52.06</course>
  <speed>0.9980981915623331</speed>
  <fix>3d</fix>
</trkpt>
<trkpt lat="33.8104865" lon="-118.3942076">
  <ele>-24.41</ele>
  <time>2026-09-01T01:14:29Z</time>
  <course>53.54</course>
  <speed>0.98</speed>
  <fix>3d</fix>
</trkpt>
<trkpt lat="33.8104885" lon="-118.3942048">
  <ele>-25.013</ele>
  <time>2026-09-01T01:14:29Z</time>
  <course>52.04</course>
  <speed>0.9980981915623331</speed>
  <fix>3d</fix>
</trkpt>
<trkpt lat="33.8104876" lon="-118.3942059">
  <ele>-24.41</ele>
  <time>2026-09-01T01:14:29Z</time>
  <course>53.53</course>
  <speed>0.98</speed>
  <fix>3d</fix>
</trkpt>
<trkpt lat="33.810489" lon="-118.394204">
  <ele>-25.014</ele>
  <time>2026-09-01T01:14:29Z</time>
  <course>52.04</course>
  <speed>0.9980981915623331</speed>
  <fix>3d</fix>
</trkpt>
<trkpt lat="33.8104876" lon="-118.3942059">
  <ele>-24.41</ele>
  <time>2026-09-01T01:14:29Z</time>
  <course>53.53</course>
  <speed>0.98</speed>
  <fix>3d</fix>
</trkpt>
<trkpt lat="33.8104896" lon="-118.3942031">
  <ele>-25.015</ele>
  <time>2026-09-01T01:14:29Z</time>
  <course>52.02</course>
  <speed>0.9980981915623331</speed>
  <fix>3d</fix>
</trkpt>
<trkpt lat="33.8104886" lon="-118.3942042">
  <ele>-24.41</ele>
  <time>2026-09-01T01:14:29Z</time>
  <course>53.51</course>
  <speed>0.98</speed>
  <fix>3d</fix>
</trkpt>
<trkpt lat="33.8104901" lon="-118.3942022">
  <ele>-25.013</ele>
  <time>2026-09-01T01:14:29Z</time>
  <course>52.03</course>
  <speed>0.9980981915623331</speed>
  <fix>3d</fix>
</trkpt>
<trkpt lat="33.8104886" lon="-118.3942042">
  <ele>-24.41</ele>
  <time>2026-09-01T01:14:29Z</time>
  <course>53.51</course>
  <speed>0.98</speed>
  <fix>3d</fix>
</trkpt>
<trkpt lat="33.8104906" lon="-118.3942014">
  <ele>-25.011</ele>
  <time>2026-09-01T01:14:29Z</time>
  <course>52.02</course>
  <speed>0.9980981915623331</speed>
  <fix>3d</fix>
</trkpt>
<trkpt lat="33.8104897" lon="-118.3942025">
  <ele>-24.4</ele>
  <time>2026-09-01T01:14:29Z</time>
  <course>53.51</course>
  <speed>0.98</speed>
  <fix>3d</fix>
</trkpt>
<trkpt lat="33.8104911" lon="-118.3942005">
  <ele>-25.008</ele>
  <time>2026-09-01T01:14:29Z</time>
  <course>52.03</course>
  <speed>0.9980981915623331</speed>
  <fix>3d</fix>
</trkpt>
<trkpt lat="33.8104897" lon="-118.3942025">
  <ele>-24.4</ele>
  <time>2026-09-01T01:14:29Z</time>
  <course>53.51</course>
  <speed>0.98</speed>
  <fix>3d</fix>
</trkpt>
<trkpt lat="33.8104917" lon="-118.3941997">
  <ele>-25.005</ele>
  <time>2026-09-01T01:14:29Z</time>
  <course>52.03</course>
  <speed>0.9980981915623331</speed>
  <fix>3d</fix>
</trkpt>
<trkpt lat="33.8104907" lon="-118.3942007">
  <ele>-24.4</ele>
  <time>2026-09-01T01:14:29Z</time>
  <course>53.51</course>
  <speed>0.98</speed>
  <fix>3d</fix>
</trkpt>
<trkpt lat="33.8104922" lon="-118.3941988">
  <ele>-25.003</ele>
  <time>2026-09-01T01:14:29Z</time>
  <course>52.03</course>
  <speed>1.0042410069301093</speed>
  <fix>3d</fix>
</trkpt>
<trkpt lat="33.8104907" lon="-118.3942007">
  <ele>-24.4</ele>
  <time>2026-09-01T01:14:29Z</time>
  <course>53.51</course>
  <speed>0.98</speed>
  <fix>3d</fix>
</trkpt>
<trkpt lat="33.8104927" lon="-118.3941979">
  <ele>-25.003</ele>
  <time>2026-09-01T01:14:29Z</time>
  <course>52.02</course>
  <speed>1.0042410069301093</speed>
  <fix>3d</fix>
</trkpt>
<trkpt lat="33.8104918" lon="-118.394199">
  <ele>-24.4</ele>
  <time>2026-09-01T01:14:29Z</time>
  <course>53.5</course>
  <speed>0.99</speed>
  <fix>3d</fix>
</trkpt>
<trkpt lat="33.8104933" lon="-118.3941971">
  <ele>-25.004</ele>
  <time>2026-09-01T01:14:29Z</time>
  <course>52.0</course>
  <speed>1.0042410069301093</speed>
  <fix>3d</fix>
</trkpt>
<trkpt lat="33.8104918" lon="-118.394199">
  <ele>-24.4</ele>
  <time>2026-09-01T01:14:29Z</time>
  <course>53.5</course>
  <speed>0.99</speed>
  <fix>3d</fix>
</trkpt>
<trkpt lat="33.8104938" lon="-118.3941962">
  <ele>-25.006</ele>
  <time>2026-09-01T01:14:29Z</time>
  <course>51.98</course>
  <speed>1.0042410069301093</speed>
  <fix>3d</fix>
</trkpt>
<trkpt lat="33.8104929" lon="-118.3941973">
  <ele>-24.4</ele>
  <time>2026-09-01T01:14:29Z</time>
  <course>53.45</course>
  <speed>0.99</speed>
  <fix>3d</fix>
</trkpt>
<trkpt lat="33.8104943" lon="-118.3941953">
  <ele>-25.008</ele>
  <time>2026-09-01T01:14:29Z</time>
  <course>51.98</course>
  <speed>1.0042410069301093</speed>
  <fix>3d</fix>
</trkpt>
<trkpt lat="33.8104929" lon="-118.3941973">
  <ele>-24.4</ele>
  <time>2026-09-01T01:14:29Z</time>
  <course>53.45</course>
  <speed>0.99</speed>
  <fix>3d</fix>
</trkpt>
<trkpt lat="33.8104949" lon="-118.3941945">
  <ele>-25.01</ele>
  <time>2026-09-01T01:14:29Z</time>
  <course>51.99</course>
  <speed>1.0042410069301093</speed>
  <fix>3d</fix>
</trkpt>
<trkpt lat="33.8104939" lon="-118.3941956">
  <ele>-24.4</ele>
  <time>2026-09-01T01:14:29Z</time>
  <course>53.46</course>
  <speed>0.99</speed>
  <fix>3d</fix>
</trkpt>
<trkpt lat="33.8104954" lon="-118.3941936">
  <ele>-25.012</ele>
  <time>2026-09-01T01:14:29Z</time>
  <course>52.0</course>
  <speed>1.0042410069301093</speed>
  <fix>3d</fix>
</trkpt>
<trkpt lat="33.8104939" lon="-118.3941956">
  <ele>-24.4</ele>
  <time>2026-09-01T01:14:29Z</time>
  <course>53.46</course>
  <speed>0.99</speed>
  <fix>3d</fix>
</trkpt>
<trkpt lat="33.8104959" lon="-118.3941928">
  <ele>-25.012</ele>
  <time>2026-09-01T01:14:29Z</time>
  <course>52.01</course>
  <speed>1.0042410069301093</speed>
  <fix>3d</fix>
</trkpt>
<trkpt lat="33.810495" lon="-118.3941939">
  <ele>-24.4</ele>
  <time>2026-09-01T01:14:29Z</time>
  <course>53.49</course>
  <speed>0.99</speed>
  <fix>3d</fix>
</trkpt>
<trkpt lat="33.8104965" lon="-118.3941919">
  <ele>-25.011</ele>
  <time>2026-09-01T01:14:29Z</time>
  <course>52.02</course>
  <speed>1.0042410069301093</speed>
  <fix>3d</fix>
</trkpt>
<trkpt lat="33.810495" lon="-118.3941939">
  <ele>-24.4</ele>
  <time>2026-09-01T01:14:29Z</time>
  <course>53.49</course>
  <speed>0.99</speed>
  <fix>3d</fix>
</trkpt>
<trkpt lat="33.810497" lon="-118.394191">
  <ele>-25.009</ele>
  <time>2026-09-01T01:14:29Z</time>
  <course>52.04</course>
  <speed>1.0042410069301093</speed>
  <fix>3d</fix>
</trkpt>
<trkpt lat="33.810496" lon="-118.3941921">
  <ele>-24.4</ele>
  <time>2026-09-01T01:14:29Z</time>
  <course>53.51</course>
  <speed>0.99</speed>
  <fix>3d</fix>
</trkpt>
<trkpt lat="33.8104975" lon="-118.3941902">
  <ele>-25.007</ele>
  <time>2026-09-01T01:14:29Z</time>
  <course>52.06</course>
  <speed>1.0042410069301093</speed>
  <fix>3d</fix>
</trkpt>
<trkpt lat="33.810496" lon="-118.3941921">
  <ele>-24.4</ele>
  <time>2026-09-01T01:14:29Z</time>
  <course>53.51</course>
  <speed>0.99</speed>
  <fix>3d</fix>
</trkpt>
<trkpt lat="33.810498" lon="-118.3941893">
  <ele>-25.005</ele>
  <time>2026-09-01T01:14:29Z</time>
  <course>52.06</course>
  <speed>1.0042410069301093</speed>
  <fix>3d</fix>
</trkpt>
<trkpt lat="33.8104971" lon="-118.3941904">
  <ele>-24.4</ele>
  <time>2026-09-01T01:14:29Z</time>
  <course>53.51</course>
  <speed>0.99</speed>
  <fix>3d</fix>
</trkpt>
<trkpt lat="33.8104986" lon="-118.3941884">
  <ele>-25.005</ele>
  <time>2026-09-01T01:14:29Z</time>
  <course>52.04</course>
  <speed>1.0042410069301093</speed>
  <fix>3d</fix>
</trkpt>
<trkpt lat="33.8104971" lon="-118.3941904">
  <ele>-24.4</ele>
  <time>2026-09-01T01:14:29Z</time>
  <course>53.51</course>
  <speed>0.99</speed>
  <fix>3d</fix>
</trkpt>
<trkpt lat="33.8104991" lon="-118.3941876">
  <ele>-25.005</ele>
  <time>2026-09-01T01:14:29Z</time>
  <course>52.03</course>
  <speed>1.0042410069301093</speed>
  <fix>3d</fix>
</trkpt>
<trkpt lat="33.8104982" lon="-118.3941887">
  <ele>-24.4</ele>
  <time>2026-09-01T01:14:29Z</time>
  <course>53.47</course>
  <speed>0.99</speed>
  <fix>3d</fix>
</trkpt>
<trkpt lat="33.8104996" lon="-118.3941867">
  <ele>-25.005</ele>
  <time>2026-09-01T01:14:29Z</time>
  <course>52.03</course>
  <speed>1.0042410069301093</speed>
  <fix>3d</fix>
</trkpt>
<trkpt lat="33.8104982" lon="-118.3941887">
  <ele>-24.4</ele>
  <time>2026-09-01T01:14:29Z</time>
  <course>53.47</course>
  <speed>0.99</speed>
  <fix>3d</fix>
</trkpt>
<trkpt lat="33.8105002" lon="-118.3941858">
  <ele>-25.006</ele>
  <time>2026-09-01T01:14:29Z</time>
  <course>52.04</course>
  <speed>1.0042410069301093</speed>
  <fix>3d</fix>
</trkpt>
<trkpt lat="33.8104992" lon="-118.3941869">
  <ele>-24.4</ele>
  <time>2026-09-01T01:14:29Z</time>
  <course>53.47</course>
  <speed>0.99</speed>
  <fix>3d</fix>
</trkpt>
<trkpt lat="33.8105007" lon="-118.394185">
  <ele>-25.007</ele>
  <time>2026-09-01T01:14:29Z</time>
  <course>52.05</course>
  <speed>1.0042410069301093</speed>
  <fix>3d</fix>
</trkpt>
<trkpt lat="33.8104992" lon="-118.3941869">
  <ele>-24.4</ele>
  <time>2026-09-01T01:14:29Z</time>
  <course>53.47</course>
  <speed>0.99</speed>
  <fix>3d</fix>
</trkpt>
<trkpt lat="33.8105012" lon="-118.3941841">
  <ele>-25.008</ele>
  <time>2026-09-01T01:14:29Z</time>
  <course>52.05</course>
  <speed>1.0042410069301093</speed>
  <fix>3d</fix>
</trkpt>
<trkpt lat="33.8105003" lon="-118.3941852">
  <ele>-24.4</ele>
  <time>2026-09-01T01:14:29Z</time>
  <course>53.47</course>
  <speed>0.99</speed>
  <fix>3d</fix>
</trkpt>
<trkpt lat="33.8105018" lon="-118.3941832">
  <ele>-25.009</ele>
  <time>2026-09-01T01:14:29Z</time>
  <course>52.04</course>
  <speed>1.0042410069301093</speed>
  <fix>3d</fix>
</trkpt>
<trkpt lat="33.8105003" lon="-118.3941852">
  <ele>-24.4</ele>
  <time>2026-09-01T01:14:29Z</time>
  <course>53.47</course>
  <speed>0.99</speed>
  <fix>3d</fix>
</trkpt>
<trkpt lat="33.8105023" lon="-118.3941824">
  <ele>-25.009</ele>
  <time>2026-09-01T01:14:29Z</time>
  <course>52.03</course>
  <speed>1.0042410069301093</speed>
  <fix>3d</fix>
</trkpt>
<trkpt lat="33.8105014" lon="-118.3941835">
  <ele>-24.4</ele>
  <time>2026-09-01T01:14:29Z</time>
  <course>53.45</course>
  <speed>0.99</speed>
  <fix>3d</fix>
</trkpt>
<trkpt lat="33.8105028" lon="-118.3941815">
  <ele>-25.01</ele>
  <time>2026-09-01T01:14:29Z</time>
  <course>52.04</course>
  <speed>1.0042410069301093</speed>
  <fix>3d</fix>
</trkpt>
<trkpt lat="33.8105014" lon="-118.3941835">
  <ele>-24.4</ele>
  <time>2026-09-01T01:14:29Z</time>
  <course>53.45</course>
  <speed>0.99</speed>
  <fix>3d</fix>
</trkpt>
<trkpt lat="33.8105034" lon="-118.3941806">
  <ele>-25.012</ele>
  <time>2026-09-01T01:14:29Z</time>
  <course>52.05</course>
  <speed>1.0042410069301093</speed>
  <fix>3d</fix>
</trkpt>
<trkpt lat="33.8105024" lon="-118.3941817">
  <ele>-24.41</ele>
  <time>2026-09-01T01:14:29Z</time>
  <course>53.46</course>
  <speed>0.99</speed>
  <fix>3d</fix>
</trkpt>
<trkpt lat="33.8105039" lon="-118.3941798">
  <ele>-25.013</ele>
  <time>2026-09-01T01:14:29Z</time>
  <course>52.07</course>
  <speed>1.0042410069301093</speed>
  <fix>3d</fix>
</trkpt>
<trkpt lat="33.8105024" lon="-118.3941817">
  <ele>-24.41</ele>
  <time>2026-09-01T01:14:29Z</time>
  <course>53.46</course>
  <speed>0.99</speed>
  <fix>3d</fix>
</trkpt>
<trkpt lat="33.8105044" lon="-118.3941789">
  <ele>-25.014</ele>
  <time>2026-09-01T01:14:29Z</time>
  <course>52.07</course>
  <speed>1.0042410069301093</speed>
  <fix>3d</fix>
</trkpt>
<trkpt lat="33.8105035" lon="-118.39418">
  <ele>-24.4</ele>
  <time>2026-09-01T01:14:29Z</time>
  <course>53.48</course>
  <speed>0.99</speed>
  <fix>3d</fix>
</trkpt>
<trkpt lat="33.810505" lon="-118.394178">
  <ele>-25.014</ele>
  <time>2026-09-01T01:14:29Z</time>
  <course>52.06</course>
  <speed>1.0042410069301093</speed>
  <fix>3d</fix>
</trkpt>
<trkpt lat="33.8105035" lon="-118.39418">
  <ele>-24.4</ele>
  <time>2026-09-01T01:14:29Z</time>
  <course>53.48</course>
  <speed>0.99</speed>
  <fix>3d</fix>
</trkpt>
<trkpt lat="33.8105055" lon="-118.3941772">
  <ele>-25.012</ele>
  <time>2026-09-01T01:14:29Z</time>
  <course>52.05</course>
  <speed>1.0042410069301093</speed>
  <fix>3d</fix>
</trkpt>
<trkpt lat="33.8105046" lon="-118.3941783">
  <ele>-24.4</ele>
  <time>2026-09-01T01:14:29Z</time>
  <course>53.47</course>
  <speed>0.99</speed>
  <fix>3d</fix>
</trkpt>
<trkpt lat="33.810506" lon="-118.3941763">
  <ele>-25.01</ele>
  <time>2026-09-01T01:14:29Z</time>
  <course>52.05</course>
  <speed>1.0042410069301093</speed>
  <fix>3d</fix>
</trkpt>
<trkpt lat="33.8105046" lon="-118.3941783">
  <ele>-24.4</ele>
  <time>2026-09-01T01:14:29Z</time>
  <course>53.47</course>
  <speed>0.99</speed>
  <fix>3d</fix>
</trkpt>
<trkpt lat="33.8105066" lon="-118.3941754">
  <ele>-25.006</ele>
  <time>2026-09-01T01:14:29Z</time>
  <course>52.07</course>
  <speed>1.0042410069301093</speed>
  <fix>3d</fix>
</trkpt>
<trkpt lat="33.8105056" lon="-118.3941766">
  <ele>-24.4</ele>
  <time>2026-09-01T01:14:29Z</time>
  <course>53.49</course>
  <speed>0.99</speed>
  <fix>3d</fix>
</trkpt>
<trkpt lat="33.8105071" lon="-118.3941746">
  <ele>-25.004</ele>
  <time>2026-09-01T01:14:29Z</time>
  <course>52.09</course>
  <speed>1.0042410069301093</speed>
  <fix>3d</fix>
</trkpt>
<trkpt lat="33.8105056" lon="-118.3941766">
  <ele>-24.4</ele>
  <time>2026-09-01T01:14:29Z</time>
  <course>53.49</course>
  <speed>0.99</speed>
  <fix>3d</fix>
</trkpt>
<trkpt lat="33.8105076" lon="-118.3941737">
  <ele>-25.002</ele>
  <time>2026-09-01T01:14:29Z</time>
  <course>52.1</course>
  <speed>1.0042410069301093</speed>
  <fix>3d</fix>
</trkpt>
<trkpt lat="33.8105067" lon="-118.3941748">
  <ele>-24.39</ele>
  <time>2026-09-01T01:14:29Z</time>
  <course>53.53</course>
  <speed>0.99</speed>
  <fix>3d</fix>
</trkpt>
<trkpt lat="33.8105082" lon="-118.3941728">
  <ele>-25.001</ele>
  <time>2026-09-01T01:14:29Z</time>
  <course>52.11</course>
  <speed>1.0121264743103995</speed>
  <fix>3d</fix>
</trkpt>
<trkpt lat="33.8105067" lon="-118.3941748">
  <ele>-24.39</ele>
  <time>2026-09-01T01:14:29Z</time>
  <course>53.53</course>
  <speed>0.99</speed>
  <fix>3d</fix>
</trkpt>
<trkpt lat="33.8105087" lon="-118.394172">
  <ele>-25.001</ele>
  <time>2026-09-01T01:14:29Z</time>
  <course>52.11</course>
  <speed>1.0121264743103995</speed>
  <fix>3d</fix>
</trkpt>
<trkpt lat="33.8105077" lon="-118.3941731">
  <ele>-24.39</ele>
  <time>2026-09-01T01:14:29Z</time>
  <course>53.55</course>
  <speed>0.99</speed>
  <fix>3d</fix>
</trkpt>
<trkpt lat="33.8105092" lon="-118.3941711">
  <ele>-25.001</ele>
  <time>2026-09-01T01:14:29Z</time>
  <course>52.11</course>
  <speed>1.0121264743103995</speed>
  <fix>3d</fix>
</trkpt>
<trkpt lat="33.8105077" lon="-118.3941731">
  <ele>-24.39</ele>
  <time>2026-09-01T01:14:29Z</time>
  <course>53.55</course>
  <speed>0.99</speed>
  <fix>3d</fix>
</trkpt>
<trkpt lat="33.8105098" lon="-118.3941702">
  <ele>-25.002</ele>
  <time>2026-09-01T01:14:29Z</time>
  <course>52.09</course>
  <speed>1.0121264743103995</speed>
  <fix>3d</fix>
</trkpt>
<trkpt lat="33.8105088" lon="-118.3941714">
  <ele>-24.39</ele>
  <time>2026-09-01T01:14:29Z</time>
  <course>53.53</course>
  <speed>0.99</speed>
  <fix>3d</fix>
</trkpt>
<trkpt lat="33.8105103" lon="-118.3941694">
  <ele>-25.003</ele>
  <time>2026-09-01T01:14:29Z</time>
  <course>52.08</course>
  <speed>1.0121264743103995</speed>
  <fix>3d</fix>
</trkpt>
<trkpt lat="33.8105088" lon="-118.3941714">
  <ele>-24.39</ele>
  <time>2026-09-01T01:14:29Z</time>
  <course>53.53</course>
  <speed>0.99</speed>
  <fix>3d</fix>
</trkpt>
<trkpt lat="33.8105108" lon="-118.3941685">
  <ele>-25.005</ele>
  <time>2026-09-01T01:14:29Z</time>
  <course>52.07</course>
  <speed>1.0121264743103995</speed>
  <fix>3d</fix>
</trkpt>
<trkpt lat="33.8105099" lon="-118.3941696">
  <ele>-24.4</ele>
  <time>2026-09-01T01:14:29Z</time>
  <course>53.51</course>
  <speed>0.99</speed>
  <fix>3d</fix>
</trkpt>
<trkpt lat="33.8105114" lon="-118.3941676">
  <ele>-25.006</ele>
  <time>2026-09-01T01:14:29Z</time>
  <course>52.06</course>
  <speed>1.0121264743103995</speed>
  <fix>3d</fix>
</trkpt>
<trkpt lat="33.8105099" lon="-118.3941696">
  <ele>-24.4</ele>
  <time>2026-09-01T01:14:29Z</time>
  <course>53.51</course>
  <speed>0.99</speed>
  <fix>3d</fix>
</trkpt>
<trkpt lat="33.8105119" lon="-118.3941668">
  <ele>-25.008</ele>
  <time>2026-09-01T01:14:29Z</time>
  <course>52.06</course>
  <speed>1.0121264743103995</speed>
  <fix>3d</fix>
</trkpt>
<trkpt lat="33.8105109" lon="-118.3941679">
  <ele>-24.4</ele>
  <time>2026-09-01T01:14:29Z</time>
  <course>53.51</course>
  <speed>0.99</speed>
  <fix>3d</fix>
</trkpt>
<trkpt lat="33.8105124" lon="-118.3941659">
  <ele>-25.01</ele>
  <time>2026-09-01T01:14:29Z</time>
  <course>52.06</course>
  <speed>1.0121264743103995</speed>
  <fix>3d</fix>
</trkpt>
<trkpt lat="33.8105109" lon="-118.3941679">
  <ele>-24.4</ele>
  <time>2026-09-01T01:14:29Z</time>
  <course>53.51</course>
  <speed>0.99</speed>
  <fix>3d</fix>
</trkpt>
<trkpt lat="33.810513" lon="-118.394165">
  <ele>-25.012</ele>
  <time>2026-09-01T01:14:29Z</time>
  <course>52.05</course>
  <speed>1.0121264743103995</speed>
  <fix>3d</fix>
</trkpt>
<trkpt lat="33.810512" lon="-118.3941662">
  <ele>-24.41</ele>
  <time>2026-09-01T01:14:29Z</time>
  <course>53.5</course>
  <speed>0.99</speed>
  <fix>3d</fix>
</trkpt>
<trkpt lat="33.8105135" lon="-118.3941642">
  <ele>-25.013</ele>
  <time>2026-09-01T01:14:30Z</time>
  <course>52.04</course>
  <speed>1.0121264743103995</speed>
  <fix>3d</fix>
</trkpt>
<trkpt lat="33.810512" lon="-118.3941662">
  <ele>-24.41</ele>
  <time>2026-09-01T01:14:30Z</time>
  <course>53.5</course>
  <speed>0.99</speed>
  <fix>3d</fix>
</trkpt>
<trkpt lat="33.810514" lon="-118.3941633">
  <ele>-25.014</ele>
  <time>2026-09-01T01:14:30Z</time>
  <course>52.03</course>
  <speed>1.0121264743103995</speed>
  <fix>3d</fix>
</trkpt>
<trkpt lat="33.810513" lon="-118.3941644">
  <ele>-24.41</ele>
  <time>2026-09-01T01:14:30Z</time>
  <course>53.48</course>
  <speed>0.99</speed>
  <fix>3d</fix>
</trkpt>
<trkpt lat="33.8105146" lon="-118.3941624">
  <ele>-25.014</ele>
  <time>2026-09-01T01:14:30Z</time>
  <course>52.03</course>
  <speed>1.0121264743103995</speed>
  <fix>3d</fix>
</trkpt>
<trkpt lat="33.810513" lon="-118.3941644">
  <ele>-24.41</ele>
  <time>2026-09-01T01:14:30Z</time>
  <course>53.48</course>
  <speed>0.99</speed>
  <fix>3d</fix>
</trkpt>
<trkpt lat="33.8105151" lon="-118.3941615">
  <ele>-25.013</ele>
  <time>2026-09-01T01:14:30Z</time>
  <course>52.01</course>
  <speed>1.0121264743103995</speed>
  <fix>3d</fix>
</trkpt>
<trkpt lat="33.8105141" lon="-118.3941627">
  <ele>-24.41</ele>
  <time>2026-09-01T01:14:30Z</time>
  <course>53.45</course>
  <speed>0.99</speed>
  <fix>3d</fix>
</trkpt>
<trkpt lat="33.8105156" lon="-118.3941607">
  <ele>-25.012</ele>
  <time>2026-09-01T01:14:30Z</time>
  <course>51.98</course>
  <speed>1.0121264743103995</speed>
  <fix>3d</fix>
</trkpt>
<trkpt lat="33.8105141" lon="-118.3941627">
  <ele>-24.41</ele>
  <time>2026-09-01T01:14:30Z</time>
  <course>53.45</course>
  <speed>0.99</speed>
  <fix>3d</fix>
</trkpt>
<trkpt lat="33.8105162" lon="-118.3941598">
  <ele>-25.01</ele>
  <time>2026-09-01T01:14:30Z</time>
  <course>51.96</course>
  <speed>1.0121264743103995</speed>
  <fix>3d</fix>
</trkpt>
<trkpt lat="33.8105152" lon="-118.394161">
  <ele>-24.4</ele>
  <time>2026-09-01T01:14:30Z</time>
  <course>53.39</course>
  <speed>0.99</speed>
  <fix>3d</fix>
</trkpt>
<trkpt lat="33.8105167" lon="-118.3941589">
  <ele>-25.007</ele>
  <time>2026-09-01T01:14:30Z</time>
  <course>51.95</course>
  <speed>1.0121264743103995</speed>
  <fix>3d</fix>
</trkpt>
<trkpt lat="33.8105152" lon="-118.394161">
  <ele>-24.4</ele>
  <time>2026-09-01T01:14:30Z</time>
  <course>53.39</course>
  <speed>0.99</speed>
  <fix>3d</fix>
</trkpt>
<trkpt lat="33.8105172" lon="-118.3941581">
  <ele>-25.005</ele>
  <time>2026-09-01T01:14:30Z</time>
  <course>51.96</course>
  <speed>1.0121264743103995</speed>
  <fix>3d</fix>
</trkpt>
<trkpt lat="33.8105162" lon="-118.3941592">
  <ele>-24.4</ele>
  <time>2026-09-01T01:14:30Z</time>
  <course>53.38</course>
  <speed>0.99</speed>
  <fix>3d</fix>
</trkpt>
<trkpt lat="33.8105178" lon="-118.3941572">
  <ele>-25.004</ele>
  <time>2026-09-01T01:14:30Z</time>
  <course>51.97</course>
  <speed>1.0121264743103995</speed>
  <fix>3d</fix>
</trkpt>
<trkpt lat="33.8105162" lon="-118.3941592">
  <ele>-24.4</ele>
  <time>2026-09-01T01:14:30Z</time>
  <course>53.38</course>
  <speed>0.99</speed>
  <fix>3d</fix>
</trkpt>
<trkpt lat="33.8105183" lon="-118.3941563">
  <ele>-25.005</ele>
  <time>2026-09-01T01:14:30Z</time>
  <course>51.96</course>
  <speed>1.0121264743103995</speed>
  <fix>3d</fix>
</trkpt>
<trkpt lat="33.8105173" lon="-118.3941575">
  <ele>-24.4</ele>
  <time>2026-09-01T01:14:30Z</time>
  <course>53.37</course>
  <speed>0.99</speed>
  <fix>3d</fix>
</trkpt>
<trkpt lat="33.8105188" lon="-118.3941555">
  <ele>-25.006</ele>
  <time>2026-09-01T01:14:30Z</time>
  <course>51.95</course>
  <speed>1.0121264743103995</speed>
  <fix>3d</fix>
</trkpt>
<trkpt lat="33.8105173" lon="-118.3941575">
  <ele>-24.4</ele>
  <time>2026-09-01T01:14:30Z</time>
  <course>53.37</course>
  <speed>0.99</speed>
  <fix>3d</fix>
</trkpt>
<trkpt lat="33.8105194" lon="-118.3941546">
  <ele>-25.007</ele>
  <time>2026-09-01T01:14:30Z</time>
  <course>51.94</course>
  <speed>1.0121264743103995</speed>
  <fix>3d</fix>
</trkpt>
<trkpt lat="33.8105184" lon="-118.3941558">
  <ele>-24.4</ele>
  <time>2026-09-01T01:14:30Z</time>
  <course>53.34</course>
  <speed>0.99</speed>
  <fix>3d</fix>
</trkpt>
<trkpt lat="33.8105199" lon="-118.3941537">
  <ele>-25.008</ele>
  <time>2026-09-01T01:14:30Z</time>
  <course>51.95</course>
  <speed>1.0121264743103995</speed>
  <fix>3d</fix>
</trkpt>
<trkpt lat="33.8105184" lon="-118.3941558">
  <ele>-24.4</ele>
  <time>2026-09-01T01:14:30Z</time>
  <course>53.34</course>
  <speed>0.99</speed>
  <fix>3d</fix>
</trkpt>
<trkpt lat="33.8105204" lon="-118.3941529">
  <ele>-25.009</ele>
  <time>2026-09-01T01:14:30Z</time>
  <course>51.96</course>
  <speed>1.0121264743103995</speed>
  <fix>3d</fix>
</trkpt>
<trkpt lat="33.8105195" lon="-118.394154">
  <ele>-24.4</ele>
  <time>2026-09-01T01:14:30Z</time>
  <course>53.36</course>
  <speed>1.0</speed>
  <fix>3d</fix>
</trkpt>
<trkpt lat="33.810521" lon="-118.394152">
  <ele>-25.01</ele>
  <time>2026-09-01T01:14:30Z</time>
  <course>51.98</course>
  <speed>1.0121264743103995</speed>
  <fix>3d</fix>
</trkpt>
<trkpt lat="33.8105195" lon="-118.394154">
  <ele>-24.4</ele>
  <time>2026-09-01T01:14:30Z</time>
  <course>53.36</course>
  <speed>1.0</speed>
  <fix>3d</fix>
</trkpt>
<trkpt lat="33.8105215" lon="-118.3941511">
  <ele>-25.009</ele>
  <time>2026-09-01T01:14:30Z</time>
  <course>52.01</course>
  <speed>1.0121264743103995</speed>
  <fix>3d</fix>
</trkpt>
<trkpt lat="33.8105205" lon="-118.3941523">
  <ele>-24.4</ele>
  <time>2026-09-01T01:14:30Z</time>
  <course>53.4</course>
  <speed>1.0</speed>
  <fix>3d</fix>
</trkpt>
<trkpt lat="33.810522" lon="-118.3941503">
  <ele>-25.008</ele>
  <time>2026-09-01T01:14:30Z</time>
  <course>52.03</course>
  <speed>1.0121264743103995</speed>
  <fix>3d</fix>
</trkpt>
<trkpt lat="33.8105205" lon="-118.3941523">
  <ele>-24.4</ele>
  <time>2026-09-01T01:14:30Z</time>
  <course>53.4</course>
  <speed>1.0</speed>
  <fix>3d</fix>
</trkpt>
<trkpt lat="33.8105226" lon="-118.3941494">
  <ele>-25.006</ele>
  <time>2026-09-01T01:14:30Z</time>
  <course>52.04</course>
  <speed>1.0121264743103995</speed>
  <fix>3d</fix>
</trkpt>
<trkpt lat="33.8105216" lon="-118.3941506">
  <ele>-24.4</ele>
  <time>2026-09-01T01:14:30Z</time>
  <course>53.42</course>
  <speed>1.0</speed>
  <fix>3d</fix>
</trkpt>
<trkpt lat="33.8105231" lon="-118.3941485">
  <ele>-25.006</ele>
  <time>2026-09-01T01:14:30Z</time>
  <course>52.05</course>
  <speed>1.0121264743103995</speed>
  <fix>3d</fix>
</trkpt>
<trkpt lat="33.8105216" lon="-118.3941506">
  <ele>-24.4</ele>
  <time>2026-09-01T01:14:30Z</time>
  <course>53.42</course>
  <speed>1.0</speed>
  <fix>3d</fix>
</trkpt>
<trkpt lat="33.8105237" lon="-118.3941477">
  <ele>-25.005</ele>
  <time>2026-09-01T01:14:30Z</time>
  <course>52.06</course>
  <speed>1.0121264743103995</speed>
  <fix>3d</fix>
</trkpt>
<trkpt lat="33.8105227" lon="-118.3941488">
  <ele>-24.4</ele>
  <time>2026-09-01T01:14:30Z</time>
  <course>53.43</course>
  <speed>1.0</speed>
  <fix>3d</fix>
</trkpt>
<trkpt lat="33.8105242" lon="-118.3941468">
  <ele>-25.005</ele>
  <time>2026-09-01T01:14:30Z</time>
  <course>52.08</course>
  <speed>1.0121264743103995</speed>
  <fix>3d</fix>
</trkpt>
<trkpt lat="33.8105227" lon="-118.3941488">
  <ele>-24.4</ele>
  <time>2026-09-01T01:14:30Z</time>
  <course>53.43</course>
  <speed>1.0</speed>
  <fix>3d</fix>
</trkpt>
<trkpt lat="33.8105247" lon="-118.3941459">
  <ele>-25.005</ele>
  <time>2026-09-01T01:14:30Z</time>
  <course>52.09</course>
  <speed>1.0121264743103995</speed>
  <fix>3d</fix>
</trkpt>
<trkpt lat="33.8105238" lon="-118.3941471">
  <ele>-24.4</ele>
  <time>2026-09-01T01:14:30Z</time>
  <course>53.46</course>
  <speed>1.0</speed>
  <fix>3d</fix>
</trkpt>
<trkpt lat="33.8105253" lon="-118.394145">
  <ele>-25.005</ele>
  <time>2026-09-01T01:14:30Z</time>
  <course>52.11</course>
  <speed>1.0121264743103995</speed>
  <fix>3d</fix>
</trkpt>
<trkpt lat="33.8105238" lon="-118.3941471">
  <ele>-24.4</ele>
  <time>2026-09-01T01:14:30Z</time>
  <course>53.46</course>
  <speed>1.0</speed>
  <fix>3d</fix>
</trkpt>
<trkpt lat="33.8105258" lon="-118.3941442">
  <ele>-25.006</ele>
  <time>2026-09-01T01:14:30Z</time>
  <course>52.13</course>
  <speed>1.0121264743103995</speed>
  <fix>3d</fix>
</trkpt>
<trkpt lat="33.8105248" lon="-118.3941453">
  <ele>-24.4</ele>
  <time>2026-09-01T01:14:30Z</time>
  <course>53.49</course>
  <speed>1.0</speed>
  <fix>3d</fix>
</trkpt>
<trkpt lat="33.8105263" lon="-118.3941433">
  <ele>-25.007</ele>
  <time>2026-09-01T01:14:30Z</time>
  <course>52.17</course>
  <speed>1.0121264743103995</speed>
  <fix>3d</fix>
</trkpt>
<trkpt lat="33.8105248" lon="-118.3941453">
  <ele>-24.4</ele>
  <time>2026-09-01T01:14:30Z</time>
  <course>53.49</course>
  <speed>1.0</speed>
  <fix>3d</fix>
</trkpt>
<trkpt lat="33.8105269" lon="-118.3941424">
  <ele>-25.008</ele>
  <time>2026-09-01T01:14:30Z</time>
  <course>52.18</course>
  <speed>1.0121264743103995</speed>
  <fix>3d</fix>
</trkpt>
<trkpt lat="33.8105259" lon="-118.3941436">
  <ele>-24.4</ele>
  <time>2026-09-01T01:14:30Z</time>
  <course>53.51</course>
  <speed>0.99</speed>
  <fix>3d</fix>
</trkpt>
<trkpt lat="33.8105274" lon="-118.3941416">
  <ele>-25.009</ele>
  <time>2026-09-01T01:14:30Z</time>
  <course>52.17</course>
  <speed>1.0121264743103995</speed>
  <fix>3d</fix>
</trkpt>
<trkpt lat="33.8105259" lon="-118.3941436">
  <ele>-24.4</ele>
  <time>2026-09-01T01:14:30Z</time>
  <course>53.51</course>
  <speed>0.99</speed>
  <fix>3d</fix>
</trkpt>
<trkpt lat="33.8105279" lon="-118.3941407">
  <ele>-25.008</ele>
  <time>2026-09-01T01:14:30Z</time>
  <course>52.16</course>
  <speed>1.0121264743103995</speed>
  <fix>3d</fix>
</trkpt>
<trkpt lat="33.810527" lon="-118.3941419">
  <ele>-24.4</ele>
  <time>2026-09-01T01:14:30Z</time>
  <course>53.5</course>
  <speed>0.99</speed>
  <fix>3d</fix>
</trkpt>
<trkpt lat="33.8105285" lon="-118.3941398">
  <ele>-25.006</ele>
  <time>2026-09-01T01:14:30Z</time>
  <course>52.16</course>
  <speed>1.0121264743103995</speed>
  <fix>3d</fix>
</trkpt>
<trkpt lat="33.810527" lon="-118.3941419">
  <ele>-24.4</ele>
  <time>2026-09-01T01:14:30Z</time>
  <course>53.5</course>
  <speed>0.99</speed>
  <fix>3d</fix>
</trkpt>
<trkpt lat="33.810529" lon="-118.394139">
  <ele>-25.004</ele>
  <time>2026-09-01T01:14:30Z</time>
  <course>52.18</course>
  <speed>1.0121264743103995</speed>
  <fix>3d</fix>
</trkpt>
<trkpt lat="33.810528" lon="-118.3941401">
  <ele>-24.4</ele>
  <time>2026-09-01T01:14:30Z</time>
  <course>53.52</course>
  <speed>0.99</speed>
  <fix>3d</fix>
</trkpt>
<trkpt lat="33.8105295" lon="-118.3941381">
  <ele>-25.004</ele>
  <time>2026-09-01T01:14:30Z</time>
  <course>52.2</course>
  <speed>1.0121264743103995</speed>
  <fix>3d</fix>
</trkpt>
<trkpt lat="33.810528" lon="-118.3941401">
  <ele>-24.4</ele>
  <time>2026-09-01T01:14:30Z</time>
  <course>53.52</course>
  <speed>0.99</speed>
  <fix>3d</fix>
</trkpt>
<trkpt lat="33.8105301" lon="-118.3941372">
  <ele>-25.005</ele>
  <time>2026-09-01T01:14:30Z</time>
  <course>52.2</course>
  <speed>1.0121264743103995</speed>
  <fix>3d</fix>
</trkpt>
<trkpt lat="33.8105291" lon="-118.3941384">
  <ele>-24.4</ele>
  <time>2026-09-01T01:14:30Z</time>
  <course>53.54</course>
  <speed>0.99</speed>
  <fix>3d</fix>
</trkpt>
<trkpt lat="33.8105306" lon="-118.3941363">
  <ele>-25.007</ele>
  <time>2026-09-01T01:14:30Z</time>
  <course>52.2</course>
  <speed>1.0121264743103995</speed>
  <fix>3d</fix>
</trkpt>
<trkpt lat="33.8105291" lon="-118.3941384">
  <ele>-24.4</ele>
  <time>2026-09-01T01:14:30Z</time>
  <course>53.54</course>
  <speed>0.99</speed>
  <fix>3d</fix>
</trkpt>
<trkpt lat="33.8105311" lon="-118.3941355">
  <ele>-25.008</ele>
  <time>2026-09-01T01:14:30Z</time>
  <course>52.19</course>
  <speed>1.0121264743103995</speed>
  <fix>3d</fix>
</trkpt>
<trkpt lat="33.8105302" lon="-118.3941367">
  <ele>-24.4</ele>
  <time>2026-09-01T01:14:30Z</time>
  <course>53.52</course>
  <speed>0.99</speed>
  <fix>3d</fix>
</trkpt>
<trkpt lat="33.8105317" lon="-118.3941346">
  <ele>-25.009</ele>
  <time>2026-09-01T01:14:30Z</time>
  <course>52.19</course>
  <speed>1.0121264743103995</speed>
  <fix>3d</fix>
</trkpt>
<trkpt lat="33.8105302" lon="-118.3941367">
  <ele>-24.4</ele>
  <time>2026-09-01T01:14:30Z</time>
  <course>53.52</course>
  <speed>0.99</speed>
  <fix>3d</fix>
</trkpt>
<trkpt lat="33.8105322" lon="-118.3941337">
  <ele>-25.008</ele>
  <time>2026-09-01T01:14:30Z</time>
  <course>52.21</course>
  <speed>1.0121264743103995</speed>
  <fix>3d</fix>
</trkpt>
<trkpt lat="33.8105312" lon="-118.3941349">
  <ele>-24.4</ele>
  <time>2026-09-01T01:14:30Z</time>
  <course>53.54</course>
  <speed>0.99</speed>
  <fix>3d</fix>
</trkpt>
<trkpt lat="33.8105327" lon="-118.3941329">
  <ele>-25.006</ele>
  <time>2026-09-01T01:14:30Z</time>
  <course>52.23</course>
  <speed>1.0121264743103995</speed>
  <fix>3d</fix>
</trkpt>
<trkpt lat="33.8105312" lon="-118.3941349">
  <ele>-24.4</ele>
  <time>2026-09-01T01:14:30Z</time>
  <course>53.54</course>
  <speed>0.99</speed>
  <fix>3d</fix>
</trkpt>
<trkpt lat="33.8105333" lon="-118.394132">
  <ele>-25.004</ele>
  <time>2026-09-01T01:14:30Z</time>
  <course>52.22</course>
  <speed>1.0121264743103995</speed>
  <fix>3d</fix>
</trkpt>
<trkpt lat="33.8105323" lon="-118.3941332">
  <ele>-24.4</ele>
  <time>2026-09-01T01:14:30Z</time>
  <course>53.55</course>
  <speed>0.99</speed>
  <fix>3d</fix>
</trkpt>
<trkpt lat="33.8105338" lon="-118.3941311">
  <ele>-25.003</ele>
  <time>2026-09-01T01:14:30Z</time>
  <course>52.21</course>
  <speed>1.0121264743103995</speed>
  <fix>3d</fix>
</trkpt>
<trkpt lat="33.8105323" lon="-118.3941332">
  <ele>-24.4</ele>
  <time>2026-09-01T01:14:30Z</time>
  <course>53.55</course>
  <speed>0.99</speed>
  <fix>3d</fix>
</trkpt>
<trkpt lat="33.8105344" lon="-118.3941303">
  <ele>-25.003</ele>
  <time>2026-09-01T01:14:30Z</time>
  <course>52.2</course>
  <speed>1.0121264743103995</speed>
  <fix>3d</fix>
</trkpt>
<trkpt lat="33.8105334" lon="-118.3941314">
  <ele>-24.4</ele>
  <time>2026-09-01T01:14:30Z</time>
  <course>53.52</course>
  <speed>0.99</speed>
  <fix>3d</fix>
</trkpt>
<trkpt lat="33.8105349" lon="-118.3941294">
  <ele>-25.003</ele>
  <time>2026-09-01T01:14:30Z</time>
  <course>52.2</course>
  <speed>1.0121264743103995</speed>
  <fix>3d</fix>
</trkpt>
<trkpt lat="33.8105334" lon="-118.3941314">
  <ele>-24.4</ele>
  <time>2026-09-01T01:14:30Z</time>
  <course>53.52</course>
  <speed>0.99</speed>
  <fix>3d</fix>
</trkpt>
<trkpt lat="33.8105354" lon="-118.3941285">
  <ele>-25.004</ele>
  <time>2026-09-01T01:14:30Z</time>
  <course>52.2</course>
  <speed>1.0121264743103995</speed>
  <fix>3d</fix>
</trkpt>
<trkpt lat="33.8105345" lon="-118.3941297">
  <ele>-24.4</ele>
  <time>2026-09-01T01:14:30Z</time>
  <course>53.51</course>
  <speed>0.99</speed>
  <fix>3d</fix>
</trkpt>
<trkpt lat="33.810536" lon="-118.3941276">
  <ele>-25.004</ele>
  <time>2026-09-01T01:14:30Z</time>
  <course>52.2</course>
  <speed>1.0121264743103995</speed>
  <fix>3d</fix>
</trkpt>
<trkpt lat="33.8105345" lon="-118.3941297">
  <ele>-24.4</ele>
  <time>2026-09-01T01:14:30Z</time>
  <course>53.51</course>
  <speed>0.99</speed>
  <fix>3d</fix>
</trkpt>
<trkpt lat="33.8105365" lon="-118.3941268">
  <ele>-25.005</ele>
  <time>2026-09-01T01:14:30Z</time>
  <course>52.21</course>
  <speed>1.0121264743103995</speed>
  <fix>3d</fix>
</trkpt>
<trkpt lat="33.8105355" lon="-118.394128">
  <ele>-24.4</ele>
  <time>2026-09-01T01:14:30Z</time>
  <course>53.54</course>
  <speed>0.99</speed>
  <fix>3d</fix>
</trkpt>
<trkpt lat="33.810537" lon="-118.3941259">
  <ele>-25.006</ele>
  <time>2026-09-01T01:14:30Z</time>
  <course>52.23</course>
  <speed>1.0121264743103995</speed>
  <fix>3d</fix>
</trkpt>
<trkpt lat="33.8105355" lon="-118.394128">
  <ele>-24.4</ele>
  <time>2026-09-01T01:14:30Z</time>
  <course>53.54</course>
  <speed>0.99</speed>
  <fix>3d</fix>
</trkpt>
<trkpt lat="33.8105376" lon="-118.394125">
  <ele>-25.007</ele>
  <time>2026-09-01T01:14:30Z</time>
  <course>52.24</course>
  <speed>1.0121264743103995</speed>
  <fix>3d</fix>
</trkpt>
<trkpt lat="33.8105366" lon="-118.3941262">
  <ele>-24.41</ele>
  <time>2026-09-01T01:14:30Z</time>
  <course>53.58</course>
  <speed>0.99</speed>
  <fix>3d</fix>
</trkpt>
<trkpt lat="33.8105381" lon="-118.3941242">
  <ele>-25.007</ele>
  <time>2026-09-01T01:14:30Z</time>
  <course>52.25</course>
  <speed>1.0121264743103995</speed>
  <fix>3d</fix>
</trkpt>
<trkpt lat="33.8105366" lon="-118.3941262">
  <ele>-24.41</ele>
  <time>2026-09-01T01:14:30Z</time>
  <course>53.58</course>
  <speed>0.99</speed>
  <fix>3d</fix>
</trkpt>
<trkpt lat="33.8105386" lon="-118.3941233">
  <ele>-25.007</ele>
  <time>2026-09-01T01:14:30Z</time>
  <course>52.25</course>
  <speed>1.0121264743103995</speed>
  <fix>3d</fix>
</trkpt>
<trkpt lat="33.8105377" lon="-118.3941245">
  <ele>-24.41</ele>
  <time>2026-09-01T01:14:30Z</time>
  <course>53.58</course>
  <speed>0.99</speed>
  <fix>3d</fix>
</trkpt>
<trkpt lat="33.8105392" lon="-118.3941224">
  <ele>-25.009</ele>
  <time>2026-09-01T01:14:30Z</time>
  <course>52.26</course>
  <speed>1.0121264743103995</speed>
  <fix>3d</fix>
</trkpt>
<trkpt lat="33.8105377" lon="-118.3941245">
  <ele>-24.41</ele>
  <time>2026-09-01T01:14:30Z</time>
  <course>53.58</course>
  <speed>0.99</speed>
  <fix>3d</fix>
</trkpt>
<trkpt lat="33.8105397" lon="-118.3941216">
  <ele>-25.01</ele>
  <time>2026-09-01T01:14:30Z</time>
  <course>52.27</course>
  <speed>1.0121264743103995</speed>
  <fix>3d</fix>
</trkpt>
<trkpt lat="33.8105387" lon="-118.3941228">
  <ele>-24.41</ele>
  <time>2026-09-01T01:14:30Z</time>
  <course>53.6</course>
  <speed>1.0</speed>
  <fix>3d</fix>
</trkpt>
<trkpt lat="33.8105402" lon="-118.3941207">
  <ele>-25.01</ele>
  <time>2026-09-01T01:14:30Z</time>
  <course>52.28</course>
  <speed>1.0121264743103995</speed>
  <fix>3d</fix>
</trkpt>
<trkpt lat="33.8105387" lon="-118.3941228">
  <ele>-24.41</ele>
  <time>2026-09-01T01:14:30Z</time>
  <course>53.6</course>
  <speed>1.0</speed>
  <fix>3d</fix>
</trkpt>
<trkpt lat="33.8105408" lon="-118.3941198">
  <ele>-25.011</ele>
  <time>2026-09-01T01:14:30Z</time>
  <course>52.29</course>
  <speed>1.0121264743103995</speed>
  <fix>3d</fix>
</trkpt>
<trkpt lat="33.8105398" lon="-118.394121">
  <ele>-24.41</ele>
  <time>2026-09-01T01:14:30Z</time>
  <course>53.63</course>
  <speed>1.0</speed>
  <fix>3d</fix>
</trkpt>
<trkpt lat="33.8105413" lon="-118.394119">
  <ele>-25.011</ele>
  <time>2026-09-01T01:14:30Z</time>
  <course>52.28</course>
  <speed>1.0121264743103995</speed>
  <fix>3d</fix>
</trkpt>
<trkpt lat="33.8105398" lon="-118.394121">
  <ele>-24.41</ele>
  <time>2026-09-01T01:14:30Z</time>
  <course>53.63</course>
  <speed>1.0</speed>
  <fix>3d</fix>
</trkpt>
<trkpt lat="33.8105418" lon="-118.3941181">
  <ele>-25.011</ele>
  <time>2026-09-01T01:14:30Z</time>
  <course>52.28</course>
  <speed>1.0121264743103995</speed>
  <fix>3d</fix>
</trkpt>
<trkpt lat="33.8105408" lon="-118.3941193">
  <ele>-24.41</ele>
  <time>2026-09-01T01:14:30Z</time>
  <course>53.63</course>
  <speed>1.0</speed>
  <fix>3d</fix>
</trkpt>
<trkpt lat="33.8105424" lon="-118.3941172">
  <ele>-25.011</ele>
  <time>2026-09-01T01:14:30Z</time>
  <course>52.26</course>
  <speed>1.0121264743103995</speed>
  <fix>3d</fix>
</trkpt>
<trkpt lat="33.8105408" lon="-118.3941193">
  <ele>-24.41</ele>
  <time>2026-09-01T01:14:30Z</time>
  <course>53.63</course>
  <speed>1.0</speed>
  <fix>3d</fix>
</trkpt>
<trkpt lat="33.8105429" lon="-118.3941163">
  <ele>-25.01</ele>
  <time>2026-09-01T01:14:30Z</time>
  <course>52.24</course>
  <speed>1.0121264743103995</speed>
  <fix>3d</fix>
</trkpt>
<trkpt lat="33.8105419" lon="-118.3941175">
  <ele>-24.41</ele>
  <time>2026-09-01T01:14:30Z</time>
  <course>53.59</course>
  <speed>1.0</speed>
  <fix>3d</fix>
</trkpt>
<trkpt lat="33.8105434" lon="-118.3941155">
  <ele>-25.009</ele>
  <time>2026-09-01T01:14:30Z</time>
  <course>52.22</course>
  <speed>1.0121264743103995</speed>
  <fix>3d</fix>
</trkpt>
<trkpt lat="33.8105419" lon="-118.3941175">
  <ele>-24.41</ele>
  <time>2026-09-01T01:14:30Z</time>
  <course>53.59</course>
  <speed>1.0</speed>
  <fix>3d</fix>
</trkpt>
<trkpt lat="33.810544" lon="-118.3941146">
  <ele>-25.009</ele>
  <time>2026-09-01T01:14:30Z</time>
  <course>52.19</course>
  <speed>1.0121264743103995</speed>
  <fix>3d</fix>
</trkpt>
<trkpt lat="33.810543" lon="-118.3941158">
  <ele>-24.4</ele>
  <time>2026-09-01T01:14:30Z</time>
  <course>53.53</course>
  <speed>1.0</speed>
  <fix>3d</fix>
</trkpt>
<trkpt lat="33.8105445" lon="-118.3941137">
  <ele>-25.009</ele>
  <time>2026-09-01T01:14:30Z</time>
  <course>52.17</course>
  <speed>1.0121264743103995</speed>
  <fix>3d</fix>
</trkpt>
<trkpt lat="33.810543" lon="-118.3941158">
  <ele>-24.4</ele>
  <time>2026-09-01T01:14:30Z</time>
  <course>53.53</course>
  <speed>1.0</speed>
  <fix>3d</fix>
</trkpt>
<trkpt lat="33.810545" lon="-118.3941129">
  <ele>-25.009</ele>
  <time>2026-09-01T01:14:30Z</time>
  <course>52.16</course>
  <speed>1.0121264743103995</speed>
  <fix>3d</fix>
</trkpt>
<trkpt lat="33.8105441" lon="-118.394114">
  <ele>-24.4</ele>
  <time>2026-09-01T01:14:30Z</time>
  <course>53.5</course>
  <speed>1.0</speed>
  <fix>3d</fix>
</trkpt>
<trkpt lat="33.8105456" lon="-118.394112">
  <ele>-25.008</ele>
  <time>2026-09-01T01:14:30Z</time>
  <course>52.16</course>
  <speed>1.0121264743103995</speed>
  <fix>3d</fix>
</trkpt>
<trkpt lat="33.8105441" lon="-118.394114">
  <ele>-24.4</ele>
  <time>2026-09-01T01:14:30Z</time>
  <course>53.5</course>
  <speed>1.0</speed>
  <fix>3d</fix>
</trkpt>
<trkpt lat="33.8105461" lon="-118.3941111">
  <ele>-25.008</ele>
  <time>2026-09-01T01:14:30Z</time>
  <course>52.16</course>
  <speed>1.0121264743103995</speed>
  <fix>3d</fix>
</trkpt>
<trkpt lat="33.8105451" lon="-118.3941123">
  <ele>-24.4</ele>
  <time>2026-09-01T01:14:30Z</time>
  <course>53.51</course>
  <speed>1.0</speed>
  <fix>3d</fix>
</trkpt>
<trkpt lat="33.8105466" lon="-118.3941103">
  <ele>-25.008</ele>
  <time>2026-09-01T01:14:30Z</time>
  <course>52.17</course>
  <speed>1.0121264743103995</speed>
  <fix>3d</fix>
</trkpt>
<trkpt lat="33.8105451" lon="-118.3941123">
  <ele>-24.4</ele>
  <time>2026-09-01T01:14:30Z</time>
  <course>53.51</course>
  <speed>1.0</speed>
  <fix>3d</fix>
</trkpt>
<trkpt lat="33.8105472" lon="-118.3941094">
  <ele>-25.009</ele>
  <time>2026-09-01T01:14:30Z</time>
  <course>52.17</course>
  <speed>1.0121264743103995</speed>
  <fix>3d</fix>
</trkpt>
<trkpt lat="33.8105462" lon="-118.3941106">
  <ele>-24.4</ele>
  <time>2026-09-01T01:14:30Z</time>
  <course>53.49</course>
  <speed>1.0</speed>
  <fix>3d</fix>
</trkpt>
<trkpt lat="33.8105477" lon="-118.3941085">
  <ele>-25.008</ele>
  <time>2026-09-01T01:14:30Z</time>
  <course>52.15</course>
  <speed>1.0121264743103995</speed>
  <fix>3d</fix>
</trkpt>
<trkpt lat="33.8105462" lon="-118.3941106">
  <ele>-24.4</ele>
  <time>2026-09-01T01:14:30Z</time>
  <course>53.49</course>
  <speed>1.0</speed>
  <fix>3d</fix>
</trkpt>
<trkpt lat="33.8105482" lon="-118.3941077">
  <ele>-25.006</ele>
  <time>2026-09-01T01:14:30Z</time>
  <course>52.14</course>
  <speed>1.0121264743103995</speed>
  <fix>3d</fix>
</trkpt>
<trkpt lat="33.8105472" lon="-118.3941088">
  <ele>-24.39</ele>
  <time>2026-09-01T01:14:30Z</time>
  <course>53.45</course>
  <speed>1.0</speed>
  <fix>3d</fix>
</trkpt>
<trkpt lat="33.8105488" lon="-118.3941068">
  <ele>-25.004</ele>
  <time>2026-09-01T01:14:30Z</time>
  <course>52.14</course>
  <speed>1.0121264743103995</speed>
  <fix>3d</fix>
</trkpt>
<trkpt lat="33.8105472" lon="-118.3941088">
  <ele>-24.39</ele>
  <time>2026-09-01T01:14:30Z</time>
  <course>53.45</course>
  <speed>1.0</speed>
  <fix>3d</fix>
</trkpt>
<trkpt lat="33.8105493" lon="-118.3941059">
  <ele>-25.003</ele>
  <time>2026-09-01T01:14:30Z</time>
  <course>52.12</course>
  <speed>1.0121264743103995</speed>
  <fix>3d</fix>
</trkpt>
<trkpt lat="33.8105483" lon="-118.394107">
  <ele>-24.39</ele>
  <time>2026-09-01T01:14:30Z</time>
  <course>53.41</course>
  <speed>1.0</speed>
  <fix>3d</fix>
</trkpt>
<trkpt lat="33.8105498" lon="-118.394105">
  <ele>-25.003</ele>
  <time>2026-09-01T01:14:30Z</time>
  <course>52.09</course>
  <speed>1.0121264743103995</speed>
  <fix>3d</fix>
</trkpt>
<trkpt lat="33.8105483" lon="-118.394107">
  <ele>-24.39</ele>
  <time>2026-09-01T01:14:30Z</time>
  <course>53.41</course>
  <speed>1.0</speed>
  <fix>3d</fix>
</trkpt>
<trkpt lat="33.8105504" lon="-118.3941042">
  <ele>-25.003</ele>
  <time>2026-09-01T01:14:30Z</time>
  <course>52.06</course>
  <speed>1.0121264743103995</speed>
  <fix>3d</fix>
</trkpt>
<trkpt lat="33.8105494" lon="-118.3941053">
  <ele>-24.39</ele>
  <time>2026-09-01T01:14:30Z</time>
  <course>53.31</course>
  <speed>1.0</speed>
  <fix>3d</fix>
</trkpt>
<trkpt lat="33.8105509" lon="-118.3941033">
  <ele>-25.003</ele>
  <time>2026-09-01T01:14:30Z</time>
  <course>52.02</course>
  <speed>1.0121264743103995</speed>
  <fix>3d</fix>
</trkpt>
<trkpt lat="33.8105494" lon="-118.3941053">
  <ele>-24.39</ele>
  <time>2026-09-01T01:14:30Z</time>
  <course>53.31</course>
  <speed>1.0</speed>
  <fix>3d</fix>
</trkpt>
<trkpt lat="33.8105514" lon="-118.3941024">
  <ele>-25.002</ele>
  <time>2026-09-01T01:14:30Z</time>
  <course>51.99</course>
  <speed>1.0121264743103995</speed>
  <fix>3d</fix>
</trkpt>
<trkpt lat="33.8105505" lon="-118.3941036">
  <ele>-24.39</ele>
  <time>2026-09-01T01:14:30Z</time>
  <course>53.24</course>
  <speed>1.0</speed>
  <fix>3d</fix>
</trkpt>
<trkpt lat="33.810552" lon="-118.3941016">
  <ele>-25.001</ele>
  <time>2026-09-01T01:14:30Z</time>
  <course>51.98</course>
  <speed>1.0121264743103995</speed>
  <fix>3d</fix>
</trkpt>
<trkpt lat="33.8105505" lon="-118.3941036">
  <ele>-24.39</ele>
  <time>2026-09-01T01:14:30Z</time>
  <course>53.24</course>
  <speed>1.0</speed>
  <fix>3d</fix>
</trkpt>
<trkpt lat="33.8105525" lon="-118.3941007">
  <ele>-25.001</ele>
  <time>2026-09-01T01:14:30Z</time>
  <course>51.99</course>
  <speed>1.0121264743103995</speed>
  <fix>3d</fix>
</trkpt>
<trkpt lat="33.8105516" lon="-118.3941018">
  <ele>-24.39</ele>
  <time>2026-09-01T01:14:30Z</time>
  <course>53.23</course>
  <speed>1.0</speed>
  <fix>3d</fix>
</trkpt>
<trkpt lat="33.810553" lon="-118.3940998">
  <ele>-25.001</ele>
  <time>2026-09-01T01:14:30Z</time>
  <course>52.02</course>
  <speed>1.0121264743103995</speed>
  <fix>3d</fix>
</trkpt>
<trkpt lat="33.8105516" lon="-118.3941018">
  <ele>-24.39</ele>
  <time>2026-09-01T01:14:30Z</time>
  <course>53.23</course>
  <speed>1.0</speed>
  <fix>3d</fix>
</trkpt>
<trkpt lat="33.8105536" lon="-118.394099">
  <ele>-25.003</ele>
  <time>2026-09-01T01:14:30Z</time>
  <course>52.05</course>
  <speed>1.0121264743103995</speed>
  <fix>3d</fix>
</trkpt>
<trkpt lat="33.8105527" lon="-118.3941001">
  <ele>-24.39</ele>
  <time>2026-09-01T01:14:30Z</time>
  <course>53.26</course>
  <speed>1.0</speed>
  <fix>3d</fix>
</trkpt>
<trkpt lat="33.8105541" lon="-118.3940981">
  <ele>-25.005</ele>
  <time>2026-09-01T01:14:30Z</time>
  <course>52.08</course>
  <speed>1.0121264743103995</speed>
  <fix>3d</fix>
</trkpt>
<trkpt lat="33.8105527" lon="-118.3941001">
  <ele>-24.39</ele>
  <time>2026-09-01T01:14:30Z</time>
  <course>53.26</course>
  <speed>1.0</speed>
  <fix>3d</fix>
</trkpt>
<trkpt lat="33.8105547" lon="-118.3940972">
  <ele>-25.007</ele>
  <time>2026-09-01T01:14:30Z</time>
  <course>52.12</course>
  <speed>1.0121264743103995</speed>
  <fix>3d</fix>
</trkpt>
<trkpt lat="33.8105537" lon="-118.3940983">
  <ele>-24.4</ele>
  <time>2026-09-01T01:14:30Z</time>
  <course>53.31</course>
  <speed>1.0</speed>
  <fix>3d</fix>
</trkpt>
<trkpt lat="33.8105552" lon="-118.3940963">
  <ele>-25.008</ele>
  <time>2026-09-01T01:14:30Z</time>
  <course>52.15</course>
  <speed>1.0121264743103995</speed>
  <fix>3d</fix>
</trkpt>
<trkpt lat="33.8105537" lon="-118.3940983">
  <ele>-24.4</ele>
  <time>2026-09-01T01:14:30Z</time>
  <course>53.31</course>
  <speed>1.0</speed>
  <fix>3d</fix>
</trkpt>
<trkpt lat="33.8105557" lon="-118.3940955">
  <ele>-25.008</ele>
  <time>2026-09-01T01:14:30Z</time>
  <course>52.17</course>
  <speed>1.0121264743103995</speed>
  <fix>3d</fix>
</trkpt>
<trkpt lat="33.8105548" lon="-118.3940966">
  <ele>-24.4</ele>
  <time>2026-09-01T01:14:30Z</time>
  <course>53.32</course>
  <speed>1.0</speed>
  <fix>3d</fix>
</trkpt>
<trkpt lat="33.8105563" lon="-118.3940946">
  <ele>-25.008</ele>
  <time>2026-09-01T01:14:30Z</time>
  <course>52.18</course>
  <speed>1.0121264743103995</speed>
  <fix>3d</fix>
</trkpt>
<trkpt lat="33.8105548" lon="-118.3940966">
  <ele>-24.4</ele>
  <time>2026-09-01T01:14:30Z</time>
  <course>53.32</course>
  <speed>1.0</speed>
  <fix>3d</fix>
</trkpt>
<trkpt lat="33.8105568" lon="-118.3940937">
  <ele>-25.007</ele>
  <time>2026-09-01T01:14:30Z</time>
  <course>52.19</course>
  <speed>1.0121264743103995</speed>
  <fix>3d</fix>
</trkpt>
<trkpt lat="33.8105559" lon="-118.3940948">
  <ele>-24.4</ele>
  <time>2026-09-01T01:14:30Z</time>
  <course>53.27</course>
  <speed>1.0</speed>
  <fix>3d</fix>
</trkpt>
<trkpt lat="33.8105573" lon="-118.3940929">
  <ele>-25.007</ele>
  <time>2026-09-01T01:14:30Z</time>
  <course>52.2</course>
  <speed>1.0121264743103995</speed>
  <fix>3d</fix>
</trkpt>
<trkpt lat="33.8105559" lon="-118.3940948">
  <ele>-24.4</ele>
  <time>2026-09-01T01:14:30Z</time>
  <course>53.27</course>
  <speed>1.0</speed>
  <fix>3d</fix>
</trkpt>
<trkpt lat="33.8105579" lon="-118.394092">
  <ele>-25.006</ele>
  <time>2026-09-01T01:14:30Z</time>
  <course>52.2</course>
  <speed>1.0121264743103995</speed>
  <fix>3d</fix>
</trkpt>
<trkpt lat="33.810557" lon="-118.3940931">
  <ele>-24.4</ele>
  <time>2026-09-01T01:14:30Z</time>
  <course>53.25</course>
  <speed>1.0</speed>
  <fix>3d</fix>
</trkpt>
<trkpt lat="33.8105584" lon="-118.3940911">
  <ele>-25.006</ele>
  <time>2026-09-01T01:14:30Z</time>
  <course>52.22</course>
  <speed>1.0121264743103995</speed>
  <fix>3d</fix>
</trkpt>
<trkpt lat="33.810557" lon="-118.3940931">
  <ele>-24.4</ele>
  <time>2026-09-01T01:14:30Z</time>
  <course>53.25</course>
  <speed>1.0</speed>
  <fix>3d</fix>
</trkpt>
<trkpt lat="33.810559" lon="-118.3940902">
  <ele>-25.006</ele>
  <time>2026-09-01T01:14:30Z</time>
  <course>52.24</course>
  <speed>1.0121264743103995</speed>
  <fix>3d</fix>
</trkpt>
<trkpt lat="33.8105581" lon="-118.3940913">
  <ele>-24.4</ele>
  <time>2026-09-01T01:14:30Z</time>
  <course>53.25</course>
  <speed>1.0</speed>
  <fix>3d</fix>
</trkpt>
<trkpt lat="33.8105595" lon="-118.3940894">
  <ele>-25.007</ele>
  <time>2026-09-01T01:14:30Z</time>
  <course>52.28</course>
  <speed>1.0121264743103995</speed>
  <fix>3d</fix>
</trkpt>
<trkpt lat="33.8105581" lon="-118.3940913">
  <ele>-24.4</ele>
  <time>2026-09-01T01:14:30Z</time>
  <course>53.25</course>
  <speed>1.0</speed>
  <fix>3d</fix>
</trkpt>
<trkpt lat="33.81056" lon="-118.3940885">
  <ele>-25.008</ele>
  <time>2026-09-01T01:14:30Z</time>
  <course>52.3</course>
  <speed>1.0060318086422517</speed>
  <fix>3d</fix>
</trkpt>
<trkpt lat="33.8105592" lon="-118.3940896">
  <ele>-24.4</ele>
  <time>2026-09-01T01:14:30Z</time>
  <course>53.26</course>
  <speed>1.0</speed>
  <fix>3d</fix>
</trkpt>
<trkpt lat="33.8105606" lon="-118.3940876">
  <ele>-25.008</ele>
  <time>2026-09-01T01:14:30Z</time>
  <course>52.34</course>
  <speed>1.0060318086422517</speed>
  <fix>3d</fix>
</trkpt>
<trkpt lat="33.8105592" lon="-118.3940896">
  <ele>-24.4</ele>
  <time>2026-09-01T01:14:30Z</time>
  <course>53.26</course>
  <speed>1.0</speed>
  <fix>3d</fix>
</trkpt>
<trkpt lat="33.8105611" lon="-118.3940868">
  <ele>-25.007</ele>
  <time>2026-09-01T01:14:30Z</time>
  <course>52.38</course>
  <speed>1.0060318086422517</speed>
  <fix>3d</fix>
</trkpt>
<trkpt lat="33.8105602" lon="-118.3940879">
  <ele>-24.4</ele>
  <time>2026-09-01T01:14:30Z</time>
  <course>53.29</course>
  <speed>1.0</speed>
  <fix>3d</fix>
</trkpt>
<trkpt lat="33.8105616" lon="-118.3940859">
  <ele>-25.007</ele>
  <time>2026-09-01T01:14:30Z</time>
  <course>52.42</course>
  <speed>1.0060318086422517</speed>
  <fix>3d</fix>
</trkpt>
<trkpt lat="33.8105602" lon="-118.3940879">
  <ele>-24.4</ele>
  <time>2026-09-01T01:14:30Z</time>
  <course>53.29</course>
  <speed>1.0</speed>
  <fix>3d</fix>
</trkpt>
<trkpt lat="33.8105622" lon="-118.394085">
  <ele>-25.007</ele>
  <time>2026-09-01T01:14:30Z</time>
  <course>52.45</course>
  <speed>1.0060318086422517</speed>
  <fix>3d</fix>
</trkpt>
<trkpt lat="33.8105613" lon="-118.3940861">
  <ele>-24.4</ele>
  <time>2026-09-01T01:14:30Z</time>
  <course>53.31</course>
  <speed>1.0</speed>
  <fix>3d</fix>
</trkpt>
<trkpt lat="33.8105627" lon="-118.3940842">
  <ele>-25.005</ele>
  <time>2026-09-01T01:14:30Z</time>
  <course>52.48</course>
  <speed>1.0060318086422517</speed>
  <fix>3d</fix>
</trkpt>
<trkpt lat="33.8105613" lon="-118.3940861">
  <ele>-24.4</ele>
  <time>2026-09-01T01:14:30Z</time>
  <course>53.31</course>
  <speed>1.0</speed>
  <fix>3d</fix>
</trkpt>
<trkpt lat="33.8105632" lon="-118.3940833">
  <ele>-25.004</ele>
  <time>2026-09-01T01:14:30Z</time>
  <course>52.49</course>
  <speed>1.0060318086422517</speed>
  <fix>3d</fix>
</trkpt>
<trkpt lat="33.8105624" lon="-118.3940844">
  <ele>-24.39</ele>
  <time>2026-09-01T01:14:30Z</time>
  <course>53.3</course>
  <speed>1.0</speed>
  <fix>3d</fix>
</trkpt>
<trkpt lat="33.8105638" lon="-118.3940824">
  <ele>-25.004</ele>
  <time>2026-09-01T01:14:30Z</time>
  <course>52.51</course>
  <speed>1.0060318086422517</speed>
  <fix>3d</fix>
</trkpt>
<trkpt lat="33.8105624" lon="-118.3940844">
  <ele>-24.39</ele>
  <time>2026-09-01T01:14:30Z</time>
  <course>53.3</course>
  <speed>1.0</speed>
  <fix>3d</fix>
</trkpt>
<trkpt lat="33.8105643" lon="-118.3940815">
  <ele>-25.003</ele>
  <time>2026-09-01T01:14:30Z</time>
  <course>52.54</course>
  <speed>1.0060318086422517</speed>
  <fix>3d</fix>
</trkpt>
<trkpt lat="33.8105635" lon="-118.3940826">
  <ele>-24.39</ele>
  <time>2026-09-01T01:14:30Z</time>
  <course>53.3</course>
  <speed>1.0</speed>
  <fix>3d</fix>
</trkpt>
<trkpt lat="33.8105649" lon="-118.3940807">
  <ele>-25.002</ele>
  <time>2026-09-01T01:14:30Z</time>
  <course>52.56</course>
  <speed>1.0060318086422517</speed>
  <fix>3d</fix>
</trkpt>
<trkpt lat="33.8105635" lon="-118.3940826">
  <ele>-24.39</ele>
  <time>2026-09-01T01:14:30Z</time>
  <course>53.3</course>
  <speed>1.0</speed>
  <fix>3d</fix>
</trkpt>
<trkpt lat="33.8105654" lon="-118.3940798">
  <ele>-25.001</ele>
  <time>2026-09-01T01:14:30Z</time>
  <course>52.59</course>
  <speed>1.0060318086422517</speed>
  <fix>3d</fix>
</trkpt>
<trkpt lat="33.8105646" lon="-118.3940809">
  <ele>-24.39</ele>
  <time>2026-09-01T01:14:30Z</time>
  <course>53.32</course>
  <speed>1.0</speed>
  <fix>3d</fix>
</trkpt>
<trkpt lat="33.8105659" lon="-118.3940789">
  <ele>-25.0</ele>
  <time>2026-09-01T01:14:30Z</time>
  <course>52.62</course>
  <speed>1.0060318086422517</speed>
  <fix>3d</fix>
</trkpt>
<trkpt lat="33.8105646" lon="-118.3940809">
  <ele>-24.39</ele>
  <time>2026-09-01T01:14:30Z</time>
  <course>53.32</course>
  <speed>1.0</speed>
  <fix>3d</fix>
</trkpt>
<trkpt lat="33.8105665" lon="-118.3940781">
  <ele>-25.001</ele>
  <time>2026-09-01T01:14:30Z</time>
  <course>52.66</course>
  <speed>1.0060318086422517</speed>
  <fix>3d</fix>
</trkpt>
<trkpt lat="33.8105656" lon="-118.3940792">
  <ele>-24.39</ele>
  <time>2026-09-01T01:14:30Z</time>
  <course>53.34</course>
  <speed>1.0</speed>
  <fix>3d</fix>
</trkpt>
<trkpt lat="33.810567" lon="-118.3940772">
  <ele>-25.002</ele>
  <time>2026-09-01T01:14:30Z</time>
  <course>52.7</course>
  <speed>1.0060318086422517</speed>
  <fix>3d</fix>
</trkpt>
<trkpt lat="33.8105656" lon="-118.3940792">
  <ele>-24.39</ele>
  <time>2026-09-01T01:14:30Z</time>
  <course>53.34</course>
  <speed>1.0</speed>
  <fix>3d</fix>
</trkpt>
<trkpt lat="33.8105675" lon="-118.3940763">
  <ele>-25.005</ele>
  <time>2026-09-01T01:14:30Z</time>
  <course>52.73</course>
  <speed>1.0060318086422517</speed>
  <fix>3d</fix>
</trkpt>
<trkpt lat="33.8105667" lon="-118.3940774">
  <ele>-24.39</ele>
  <time>2026-09-01T01:14:30Z</time>
  <course>53.36</course>
  <speed>1.0</speed>
  <fix>3d</fix>
</trkpt>
<trkpt lat="33.8105681" lon="-118.3940755">
  <ele>-25.007</ele>
  <time>2026-09-01T01:14:30Z</time>
  <course>52.75</course>
  <speed>1.0060318086422517</speed>
  <fix>3d</fix>
</trkpt>
<trkpt lat="33.8105667" lon="-118.3940774">
  <ele>-24.39</ele>
  <time>2026-09-01T01:14:30Z</time>
  <course>53.36</course>
  <speed>1.0</speed>
  <fix>3d</fix>
</trkpt>
<trkpt lat="33.8105686" lon="-118.3940746">
  <ele>-25.01</ele>
  <time>2026-09-01T01:14:30Z</time>
  <course>52.77</course>
  <speed>0.9980981915623331</speed>
  <fix>3d</fix>
</trkpt>
<trkpt lat="33.8105678" lon="-118.3940757">
  <ele>-24.4</ele>
  <time>2026-09-01T01:14:30Z</time>
  <course>53.35</course>
  <speed>1.0</speed>
  <fix>3d</fix>
</trkpt>
<trkpt lat="33.8105692" lon="-118.3940737">
  <ele>-25.011</ele>
  <time>2026-09-01T01:14:30Z</time>
  <course>52.79</course>
  <speed>0.9980981915623331</speed>
  <fix>3d</fix>
</trkpt>
<trkpt lat="33.8105678" lon="-118.3940757">
  <ele>-24.4</ele>
  <time>2026-09-01T01:14:30Z</time>
  <course>53.35</course>
  <speed>1.0</speed>
  <fix>3d</fix>
</trkpt>
<trkpt lat="33.8105697" lon="-118.3940729">
  <ele>-25.011</ele>
  <time>2026-09-01T01:14:30Z</time>
  <course>52.81</course>
  <speed>1.0060318086422517</speed>
  <fix>3d</fix>
</trkpt>
<trkpt lat="33.8105688" lon="-118.394074">
  <ele>-24.4</ele>
  <time>2026-09-01T01:14:30Z</time>
  <course>53.36</course>
  <speed>1.0</speed>
  <fix>3d</fix>
</trkpt>
<trkpt lat="33.8105702" lon="-118.394072">
  <ele>-25.01</ele>
  <time>2026-09-01T01:14:30Z</time>
  <course>52.84</course>
  <speed>1.0060318086422517</speed>
  <fix>3d</fix>
</trkpt>
<trkpt lat="33.8105688" lon="-118.394074">
  <ele>-24.4</ele>
  <time>2026-09-01T01:14:30Z</time>
  <course>53.36</course>
  <speed>1.0</speed>
  <fix>3d</fix>
</trkpt>
<trkpt lat="33.8105708" lon="-118.3940711">
  <ele>-25.009</ele>
  <time>2026-09-01T01:14:30Z</time>
  <course>52.85</course>
  <speed>1.0060318086422517</speed>
  <fix>3d</fix>
</trkpt>
<trkpt lat="33.8105699" lon="-118.3940722">
  <ele>-24.4</ele>
  <time>2026-09-01T01:14:30Z</time>
  <course>53.37</course>
  <speed>1.0</speed>
  <fix>3d</fix>
</trkpt>
<trkpt lat="33.8105713" lon="-118.3940702">
  <ele>-25.008</ele>
  <time>2026-09-01T01:14:30Z</time>
  <course>52.87</course>
  <speed>1.0060318086422517</speed>
  <fix>3d</fix>
</trkpt>
<trkpt lat="33.8105699" lon="-118.3940722">
  <ele>-24.4</ele>
  <time>2026-09-01T01:14:30Z</time>
  <course>53.37</course>
  <speed>1.0</speed>
  <fix>3d</fix>
</trkpt>
<trkpt lat="33.8105718" lon="-118.3940694">
  <ele>-25.007</ele>
  <time>2026-09-01T01:14:30Z</time>
  <course>52.87</course>
  <speed>1.0060318086422517</speed>
  <fix>3d</fix>
</trkpt>
<trkpt lat="33.810571" lon="-118.3940705">
  <ele>-24.4</ele>
  <time>2026-09-01T01:14:30Z</time>
  <course>53.35</course>
  <speed>1.0</speed>
  <fix>3d</fix>
</trkpt>
<trkpt lat="33.8105724" lon="-118.3940685">
  <ele>-25.004</ele>
  <time>2026-09-01T01:14:30Z</time>
  <course>52.88</course>
  <speed>1.0060318086422517</speed>
  <fix>3d</fix>
</trkpt>
<trkpt lat="33.810571" lon="-118.3940705">
  <ele>-24.4</ele>
  <time>2026-09-01T01:14:30Z</time>
  <course>53.35</course>
  <speed>1.0</speed>
  <fix>3d</fix>
</trkpt>
<trkpt lat="33.8105729" lon="-118.3940676">
  <ele>-25.001</ele>
  <time>2026-09-01T01:14:30Z</time>
  <course>52.88</course>
  <speed>1.0060318086422517</speed>
  <fix>3d</fix>
</trkpt>
<trkpt lat="33.8105721" lon="-118.3940687">
  <ele>-24.39</ele>
  <time>2026-09-01T01:14:30Z</time>
  <course>53.34</course>
  <speed>1.0</speed>
  <fix>3d</fix>
</trkpt>
<trkpt lat="33.8105734" lon="-118.3940668">
  <ele>-24.998</ele>
  <time>2026-09-01T01:14:30Z</time>
  <course>52.9</course>
  <speed>0.9980981915623331</speed>
  <fix>3d</fix>
</trkpt>
<trkpt lat="33.8105721" lon="-118.3940687">
  <ele>-24.39</ele>
  <time>2026-09-01T01:14:30Z</time>
  <course>53.34</course>
  <speed>1.0</speed>
  <fix>3d</fix>
</trkpt>
<trkpt lat="33.810574" lon="-118.3940659">
  <ele>-24.997</ele>
  <time>2026-09-01T01:14:30Z</time>
  <course>52.92</course>
  <speed>0.9980981915623331</speed>
  <fix>3d</fix>
</trkpt>
<trkpt lat="33.8105731" lon="-118.394067">
  <ele>-24.39</ele>
  <time>2026-09-01T01:14:30Z</time>
  <course>53.34</course>
  <speed>1.0</speed>
  <fix>3d</fix>
</trkpt>
<trkpt lat="33.8105745" lon="-118.394065">
  <ele>-24.997</ele>
  <time>2026-09-01T01:14:30Z</time>
  <course>52.93</course>
  <speed>0.9980981915623331</speed>
  <fix>3d</fix>
</trkpt>
<trkpt lat="33.8105731" lon="-118.394067">
  <ele>-24.39</ele>
  <time>2026-09-01T01:14:30Z</time>
  <course>53.34</course>
  <speed>1.0</speed>
  <fix>3d</fix>
</trkpt>
<trkpt lat="33.810575" lon="-118.3940642">
  <ele>-24.998</ele>
  <time>2026-09-01T01:14:30Z</time>
  <course>52.94</course>
  <speed>0.9980981915623331</speed>
  <fix>3d</fix>
</trkpt>
<trkpt lat="33.8105742" lon="-118.3940653">
  <ele>-24.39</ele>
  <time>2026-09-01T01:14:30Z</time>
  <course>53.32</course>
  <speed>1.0</speed>
  <fix>3d</fix>
</trkpt>
<trkpt lat="33.8105756" lon="-118.3940633">
  <ele>-25.0</ele>
  <time>2026-09-01T01:14:30Z</time>
  <course>52.95</course>
  <speed>0.9980981915623331</speed>
  <fix>3d</fix>
</trkpt>
<trkpt lat="33.8105742" lon="-118.3940653">
  <ele>-24.39</ele>
  <time>2026-09-01T01:14:30Z</time>
  <course>53.32</course>
  <speed>1.0</speed>
  <fix>3d</fix>
</trkpt>
<trkpt lat="33.8105761" lon="-118.3940624">
  <ele>-25.003</ele>
  <time>2026-09-01T01:14:30Z</time>
  <course>52.96</course>
  <speed>1.0060318086422517</speed>
  <fix>3d</fix>
</trkpt>
<trkpt lat="33.8105753" lon="-118.3940635">
  <ele>-24.4</ele>
  <time>2026-09-01T01:14:30Z</time>
  <course>53.31</course>
  <speed>1.0</speed>
  <fix>3d</fix>
</trkpt>
<trkpt lat="33.8105766" lon="-118.3940616">
  <ele>-25.005</ele>
  <time>2026-09-01T01:14:30Z</time>
  <course>52.97</course>
  <speed>0.9980981915623331</speed>
  <fix>3d</fix>
</trkpt>
<trkpt lat="33.8105753" lon="-118.3940635">
  <ele>-24.4</ele>
  <time>2026-09-01T01:14:30Z</time>
  <course>53.31</course>
  <speed>1.0</speed>
  <fix>3d</fix>
</trkpt>
<trkpt lat="33.8105772" lon="-118.3940607">
  <ele>-25.007</ele>
  <time>2026-09-01T01:14:30Z</time>
  <course>52.98</course>
  <speed>0.9980981915623331</speed>
  <fix>3d</fix>
</trkpt>
<trkpt lat="33.8105764" lon="-118.3940618">
  <ele>-24.4</ele>
  <time>2026-09-01T01:14:30Z</time>
  <course>53.31</course>
  <speed>1.0</speed>
  <fix>3d</fix>
</trkpt>
<trkpt lat="33.8105777" lon="-118.3940598">
  <ele>-25.008</ele>
  <time>2026-09-01T01:14:30Z</time>
  <course>53.0</course>
  <speed>1.0</speed>
  <fix>3d</fix>
</trkpt>
<trkpt lat="33.8105764" lon="-118.3940618">
  <ele>-24.4</ele>
  <time>2026-09-01T01:14:30Z</time>
  <course>53.31</course>
  <speed>1.0</speed>
  <fix>3d</fix>
</trkpt>
<trkpt lat="33.8105783" lon="-118.3940589">
  <ele>-25.007</ele>
  <time>2026-09-01T01:14:30Z</time>
  <course>53.02</course>
  <speed>1.0</speed>
  <fix>3d</fix>
</trkpt>
<trkpt lat="33.8105774" lon="-118.3940601">
  <ele>-24.41</ele>
  <time>2026-09-01T01:14:30Z</time>
  <course>53.33</course>
  <speed>1.0</speed>
  <fix>3d</fix>
</trkpt>
<trkpt lat="33.8105788" lon="-118.3940581">
  <ele>-25.007</ele>
  <time>2026-09-01T01:14:30Z</time>
  <course>53.05</course>
  <speed>1.0</speed>
  <fix>3d</fix>
</trkpt>
<trkpt lat="33.8105774" lon="-118.3940601">
  <ele>-24.41</ele>
  <time>2026-09-01T01:14:30Z</time>
  <course>53.33</course>
  <speed>1.0</speed>
  <fix>3d</fix>
</trkpt>
<trkpt lat="33.8105793" lon="-118.3940572">
  <ele>-25.007</ele>
  <time>2026-09-01T01:14:30Z</time>
  <course>53.08</course>
  <speed>1.0</speed>
  <fix>3d</fix>
</trkpt>
<trkpt lat="33.8105785" lon="-118.3940583">
  <ele>-24.41</ele>
  <time>2026-09-01T01:14:30Z</time>
  <course>53.35</course>
  <speed>1.0</speed>
  <fix>3d</fix>
</trkpt>
<trkpt lat="33.8105799" lon="-118.3940563">
  <ele>-25.007</ele>
  <time>2026-09-01T01:14:30Z</time>
  <course>53.1</course>
  <speed>1.0</speed>
  <fix>3d</fix>
</trkpt>
<trkpt lat="33.8105785" lon="-118.3940583">
  <ele>-24.41</ele>
  <time>2026-09-01T01:14:30Z</time>
  <course>53.35</course>
  <speed>1.0</speed>
  <fix>3d</fix>
</trkpt>
<trkpt lat="33.8105804" lon="-118.3940555">
  <ele>-25.007</ele>
  <time>2026-09-01T01:14:30Z</time>
  <course>53.11</course>
  <speed>1.0</speed>
  <fix>3d</fix>
</trkpt>
<trkpt lat="33.8105796" lon="-118.3940566">
  <ele>-24.41</ele>
  <time>2026-09-01T01:14:30Z</time>
  <course>53.34</course>
  <speed>1.0</speed>
  <fix>3d</fix>
</trkpt>
<trkpt lat="33.8105809" lon="-118.3940546">
  <ele>-25.006</ele>
  <time>2026-09-01T01:14:30Z</time>
  <course>53.12</course>
  <speed>1.0</speed>
  <fix>3d</fix>
</trkpt>
<trkpt lat="33.8105796" lon="-118.3940566">
  <ele>-24.41</ele>
  <time>2026-09-01T01:14:30Z</time>
  <course>53.34</course>
  <speed>1.0</speed>
  <fix>3d</fix>
</trkpt>
<trkpt lat="33.8105815" lon="-118.3940537">
  <ele>-25.006</ele>
  <time>2026-09-01T01:14:30Z</time>
  <course>53.13</course>
  <speed>1.0</speed>
  <fix>3d</fix>
</trkpt>
<trkpt lat="33.8105807" lon="-118.3940548">
  <ele>-24.41</ele>
  <time>2026-09-01T01:14:30Z</time>
  <course>53.33</course>
  <speed>1.0</speed>
  <fix>3d</fix>
</trkpt>
<trkpt lat="33.810582" lon="-118.3940529">
  <ele>-25.006</ele>
  <time>2026-09-01T01:14:30Z</time>
  <course>53.15</course>
  <speed>1.0</speed>
  <fix>3d</fix>
</trkpt>
<trkpt lat="33.8105807" lon="-118.3940548">
  <ele>-24.41</ele>
  <time>2026-09-01T01:14:30Z</time>
  <course>53.33</course>
  <speed>1.0</speed>
  <fix>3d</fix>
</trkpt>
<trkpt lat="33.8105825" lon="-118.394052">
  <ele>-25.008</ele>
  <time>2026-09-01T01:14:30Z</time>
  <course>53.17</course>
  <speed>1.0</speed>
  <fix>3d</fix>
</trkpt>
<trkpt lat="33.8105817" lon="-118.3940531">
  <ele>-24.41</ele>
  <time>2026-09-01T01:14:30Z</time>
  <course>53.33</course>
  <speed>1.0</speed>
  <fix>3d</fix>
</trkpt>
<trkpt lat="33.8105831" lon="-118.3940511">
  <ele>-25.008</ele>
  <time>2026-09-01T01:14:30Z</time>
  <course>53.19</course>
  <speed>1.0</speed>
  <fix>3d</fix>
</trkpt>
<trkpt lat="33.8105817" lon="-118.3940531">
  <ele>-24.41</ele>
  <time>2026-09-01T01:14:30Z</time>
  <course>53.33</course>
  <speed>1.0</speed>
  <fix>3d</fix>
</trkpt>
<trkpt lat="33.8105836" lon="-118.3940503">
  <ele>-25.009</ele>
  <time>2026-09-01T01:14:30Z</time>
  <course>53.19</course>
  <speed>1.0</speed>
  <fix>3d</fix>
</trkpt>
<trkpt lat="33.8105828" lon="-118.3940514">
  <ele>-24.4</ele>
  <time>2026-09-01T01:14:30Z</time>
  <course>53.32</course>
  <speed>1.0</speed>
  <fix>3d</fix>
</trkpt>
<trkpt lat="33.8105841" lon="-118.3940494">
  <ele>-25.008</ele>
  <time>2026-09-01T01:14:30Z</time>
  <course>53.2</course>
  <speed>1.0</speed>
  <fix>3d</fix>
</trkpt>
<trkpt lat="33.8105828" lon="-118.3940514">
  <ele>-24.4</ele>
  <time>2026-09-01T01:14:30Z</time>
  <course>53.32</course>
  <speed>1.0</speed>
  <fix>3d</fix>
</trkpt>
<trkpt lat="33.8105847" lon="-118.3940485">
  <ele>-25.007</ele>
  <time>2026-09-01T01:14:30Z</time>
  <course>53.21</course>
  <speed>1.0</speed>
  <fix>3d</fix>
</trkpt>
<trkpt lat="33.8105839" lon="-118.3940496">
  <ele>-24.4</ele>
  <time>2026-09-01T01:14:30Z</time>
  <course>53.31</course>
  <speed>1.0</speed>
  <fix>3d</fix>
</trkpt>
<trkpt lat="33.8105852" lon="-118.3940476">
  <ele>-25.007</ele>
  <time>2026-09-01T01:14:30Z</time>
  <course>53.23</course>
  <speed>1.0</speed>
  <fix>3d</fix>
</trkpt>
<trkpt lat="33.8105839" lon="-118.3940496">
  <ele>-24.4</ele>
  <time>2026-09-01T01:14:30Z</time>
  <course>53.31</course>
  <speed>1.0</speed>
  <fix>3d</fix>
</trkpt>
<trkpt lat="33.8105857" lon="-118.3940468">
  <ele>-25.007</ele>
  <time>2026-09-01T01:14:30Z</time>
  <course>53.24</course>
  <speed>1.0</speed>
  <fix>3d</fix>
</trkpt>
<trkpt lat="33.810585" lon="-118.3940479">
  <ele>-24.4</ele>
  <time>2026-09-01T01:14:30Z</time>
  <course>53.31</course>
  <speed>1.0</speed>
  <fix>3d</fix>
</trkpt>
<trkpt lat="33.8105863" lon="-118.3940459">
  <ele>-25.006</ele>
  <time>2026-09-01T01:14:30Z</time>
  <course>53.26</course>
  <speed>1.0</speed>
  <fix>3d</fix>
</trkpt>
<trkpt lat="33.810585" lon="-118.3940479">
  <ele>-24.4</ele>
  <time>2026-09-01T01:14:30Z</time>
  <course>53.31</course>
  <speed>1.0</speed>
  <fix>3d</fix>
</trkpt>
<trkpt lat="33.8105868" lon="-118.394045">
  <ele>-25.005</ele>
  <time>2026-09-01T01:14:30Z</time>
  <course>53.28</course>
  <speed>1.0</speed>
  <fix>3d</fix>
</trkpt>
<trkpt lat="33.810586" lon="-118.3940462">
  <ele>-24.4</ele>
  <time>2026-09-01T01:14:30Z</time>
  <course>53.32</course>
  <speed>1.0</speed>
  <fix>3d</fix>
</trkpt>
<trkpt lat="33.8105874" lon="-118.3940442">
  <ele>-25.003</ele>
  <time>2026-09-01T01:14:30Z</time>
  <course>53.31</course>
  <speed>1.0</speed>
  <fix>3d</fix>
</trkpt>
<trkpt lat="33.810586" lon="-118.3940462">
  <ele>-24.4</ele>
  <time>2026-09-01T01:14:30Z</time>
  <course>53.32</course>
  <speed>1.0</speed>
  <fix>3d</fix>
</trkpt>
<trkpt lat="33.8105879" lon="-118.3940433">
  <ele>-25.002</ele>
  <time>2026-09-01T01:14:30Z</time>
  <course>53.33</course>
  <speed>1.0</speed>
  <fix>3d</fix>
</trkpt>
<trkpt lat="33.8105871" lon="-118.3940444">
  <ele>-24.4</ele>
  <time>2026-09-01T01:14:30Z</time>
  <course>53.34</course>
  <speed>1.0</speed>
  <fix>3d</fix>
</trkpt>
<trkpt lat="33.8105884" lon="-118.3940424">
  <ele>-25.002</ele>
  <time>2026-09-01T01:14:30Z</time>
  <course>53.35</course>
  <speed>1.0</speed>
  <fix>3d</fix>
</trkpt>
<trkpt lat="33.8105871" lon="-118.3940444">
  <ele>-24.4</ele>
  <time>2026-09-01T01:14:30Z</time>
  <course>53.34</course>
  <speed>1.0</speed>
  <fix>3d</fix>
</trkpt>
<trkpt lat="33.810589" lon="-118.3940416">
  <ele>-25.002</ele>
  <time>2026-09-01T01:14:30Z</time>
  <course>53.36</course>
  <speed>1.0</speed>
  <fix>3d</fix>
</trkpt>
<trkpt lat="33.8105882" lon="-118.3940427">
  <ele>-24.4</ele>
  <time>2026-09-01T01:14:30Z</time>
  <course>53.32</course>
  <speed>1.0</speed>
  <fix>3d</fix>
</trkpt>
<trkpt lat="33.8105895" lon="-118.3940407">
  <ele>-25.002</ele>
  <time>2026-09-01T01:14:30Z</time>
  <course>53.37</course>
  <speed>1.0</speed>
  <fix>3d</fix>
</trkpt>
<trkpt lat="33.8105882" lon="-118.3940427">
  <ele>-24.4</ele>
  <time>2026-09-01T01:14:30Z</time>
  <course>53.32</course>
  <speed>1.0</speed>
  <fix>3d</fix>
</trkpt>
<trkpt lat="33.81059" lon="-118.3940398">
  <ele>-25.003</ele>
  <time>2026-09-01T01:14:30Z</time>
  <course>53.38</course>
  <speed>1.0</speed>
  <fix>3d</fix>
</trkpt>
<trkpt lat="33.8105892" lon="-118.3940409">
  <ele>-24.4</ele>
  <time>2026-09-01T01:14:30Z</time>
  <course>53.31</course>
  <speed>1.0</speed>
  <fix>3d</fix>
</trkpt>
<trkpt lat="33.8105906" lon="-118.3940389">
  <ele>-25.004</ele>
  <time>2026-09-01T01:14:30Z</time>
  <course>53.39</course>
  <speed>1.0</speed>
  <fix>3d</fix>
</trkpt>
<trkpt lat="33.8105892" lon="-118.3940409">
  <ele>-24.4</ele>
  <time>2026-09-01T01:14:30Z</time>
  <course>53.31</course>
  <speed>1.0</speed>
  <fix>3d</fix>
</trkpt>
<trkpt lat="33.8105911" lon="-118.3940381">
  <ele>-25.005</ele>
  <time>2026-09-01T01:14:30Z</time>
  <course>53.39</course>
  <speed>1.0</speed>
  <fix>3d</fix>
</trkpt>
<trkpt lat="33.8105903" lon="-118.3940392">
  <ele>-24.4</ele>
  <time>2026-09-01T01:14:30Z</time>
  <course>53.28</course>
  <speed>1.0</speed>
  <fix>3d</fix>
</trkpt>
<trkpt lat="33.8105916" lon="-118.3940372">
  <ele>-25.006</ele>
  <time>2026-09-01T01:14:30Z</time>
  <course>53.38</course>
  <speed>1.0</speed>
  <fix>3d</fix>
</trkpt>
<trkpt lat="33.8105903" lon="-118.3940392">
  <ele>-24.4</ele>
  <time>2026-09-01T01:14:30Z</time>
  <course>53.28</course>
  <speed>1.0</speed>
  <fix>3d</fix>
</trkpt>
<trkpt lat="33.8105922" lon="-118.3940363">
  <ele>-25.006</ele>
  <time>2026-09-01T01:14:30Z</time>
  <course>53.36</course>
  <speed>1.0</speed>
  <fix>3d</fix>
</trkpt>
<trkpt lat="33.8105914" lon="-118.3940375">
  <ele>-24.4</ele>
  <time>2026-09-01T01:14:30Z</time>
  <course>53.23</course>
  <speed>1.0</speed>
  <fix>3d</fix>
</trkpt>
<trkpt lat="33.8105927" lon="-118.3940355">
  <ele>-25.006</ele>
  <time>2026-09-01T01:14:30Z</time>
  <course>53.37</course>
  <speed>1.0</speed>
  <fix>3d</fix>
</trkpt>
<trkpt lat="33.8105914" lon="-118.3940375">
  <ele>-24.4</ele>
  <time>2026-09-01T01:14:30Z</time>
  <course>53.23</course>
  <speed>1.0</speed>
  <fix>3d</fix>
</trkpt>
<trkpt lat="33.8105932" lon="-118.3940346">
  <ele>-25.007</ele>
  <time>2026-09-01T01:14:30Z</time>
  <course>53.38</course>
  <speed>1.0</speed>
  <fix>3d</fix>
</trkpt>
<trkpt lat="33.8105925" lon="-118.3940358">
  <ele>-24.4</ele>
  <time>2026-09-01T01:14:30Z</time>
  <course>53.22</course>
  <speed>1.0</speed>
  <fix>3d</fix>
</trkpt>
<trkpt lat="33.8105938" lon="-118.3940337">
  <ele>-25.008</ele>
  <time>2026-09-01T01:14:30Z</time>
  <course>53.4</course>
  <speed>1.0</speed>
  <fix>3d</fix>
</trkpt>
<trkpt lat="33.8105925" lon="-118.3940358">
  <ele>-24.4</ele>
  <time>2026-09-01T01:14:30Z</time>
  <course>53.22</course>
  <speed>1.0</speed>
  <fix>3d</fix>
</trkpt>
<trkpt lat="33.8105943" lon="-118.3940329">
  <ele>-25.008</ele>
  <time>2026-09-01T01:14:30Z</time>
  <course>53.45</course>
  <speed>1.0</speed>
  <fix>3d</fix>
</trkpt>
<trkpt lat="33.8105936" lon="-118.394034">
  <ele>-24.4</ele>
  <time>2026-09-01T01:14:30Z</time>
  <course>53.27</course>
  <speed>1.0</speed>
  <fix>3d</fix>
</trkpt>
<trkpt lat="33.8105949" lon="-118.394032">
  <ele>-25.007</ele>
  <time>2026-09-01T01:14:30Z</time>
  <course>53.49</course>
  <speed>1.0</speed>
  <fix>3d</fix>
</trkpt>
<trkpt lat="33.8105936" lon="-118.394034">
  <ele>-24.4</ele>
  <time>2026-09-01T01:14:30Z</time>
  <course>53.27</course>
  <speed>1.0</speed>
  <fix>3d</fix>
</trkpt>
<trkpt lat="33.8105954" lon="-118.3940311">
  <ele>-25.005</ele>
  <time>2026-09-01T01:14:30Z</time>
  <course>53.54</course>
  <speed>1.0</speed>
  <fix>3d</fix>
</trkpt>
<trkpt lat="33.8105946" lon="-118.3940323">
  <ele>-24.39</ele>
  <time>2026-09-01T01:14:30Z</time>
  <course>53.34</course>
  <speed>1.0</speed>
  <fix>3d</fix>
</trkpt>
<trkpt lat="33.8105959" lon="-118.3940303">
  <ele>-25.003</ele>
  <time>2026-09-01T01:14:30Z</time>
  <course>53.58</course>
  <speed>1.0</speed>
  <fix>3d</fix>
</trkpt>
<trkpt lat="33.8105946" lon="-118.3940323">
  <ele>-24.39</ele>
  <time>2026-09-01T01:14:30Z</time>
  <course>53.34</course>
  <speed>1.0</speed>
  <fix>3d</fix>
</trkpt>
<trkpt lat="33.8105965" lon="-118.3940294">
  <ele>-25.002</ele>
  <time>2026-09-01T01:14:30Z</time>
  <course>53.61</course>
  <speed>1.0</speed>
  <fix>3d</fix>
</trkpt>
<trkpt lat="33.8105957" lon="-118.3940305">
  <ele>-24.39</ele>
  <time>2026-09-01T01:14:30Z</time>
  <course>53.36</course>
  <speed>1.0</speed>
  <fix>3d</fix>
</trkpt>
<trkpt lat="33.810597" lon="-118.3940285">
  <ele>-25.001</ele>
  <time>2026-09-01T01:14:30Z</time>
  <course>53.63</course>
  <speed>1.0</speed>
  <fix>3d</fix>
</trkpt>
<trkpt lat="33.8105957" lon="-118.3940305">
  <ele>-24.39</ele>
  <time>2026-09-01T01:14:30Z</time>
  <course>53.36</course>
  <speed>1.0</speed>
  <fix>3d</fix>
</trkpt>
<trkpt lat="33.8105975" lon="-118.3940277">
  <ele>-24.999</ele>
  <time>2026-09-01T01:14:30Z</time>
  <course>53.64</course>
  <speed>0.9940321926376429</speed>
  <fix>3d</fix>
</trkpt>
<trkpt lat="33.8105968" lon="-118.3940288">
  <ele>-24.39</ele>
  <time>2026-09-01T01:14:30Z</time>
  <course>53.34</course>
  <speed>1.0</speed>
  <fix>3d</fix>
</trkpt>
<trkpt lat="33.8105981" lon="-118.3940268">
  <ele>-24.998</ele>
  <time>2026-09-01T01:14:30Z</time>
  <course>53.64</course>
  <speed>0.9940321926376429</speed>
  <fix>3d</fix>
</trkpt>
<trkpt lat="33.8105968" lon="-118.3940288">
  <ele>-24.39</ele>
  <time>2026-09-01T01:14:30Z</time>
  <course>53.34</course>
  <speed>1.0</speed>
  <fix>3d</fix>
</trkpt>
<trkpt lat="33.8105986" lon="-118.3940259">
  <ele>-24.997</ele>
  <time>2026-09-01T01:14:30Z</time>
  <course>53.66</course>
  <speed>0.9940321926376429</speed>
  <fix>3d</fix>
</trkpt>
<trkpt lat="33.8105979" lon="-118.3940271">
  <ele>-24.39</ele>
  <time>2026-09-01T01:14:30Z</time>
  <course>53.33</course>
  <speed>1.0</speed>
  <fix>3d</fix>
</trkpt>
<trkpt lat="33.8105991" lon="-118.3940251">
  <ele>-24.997</ele>
  <time>2026-09-01T01:14:30Z</time>
  <course>53.68</course>
  <speed>0.9940321926376429</speed>
  <fix>3d</fix>
</trkpt>
<trkpt lat="33.8105979" lon="-118.3940271">
  <ele>-24.39</ele>
  <time>2026-09-01T01:14:30Z</time>
  <course>53.33</course>
  <speed>1.0</speed>
  <fix>3d</fix>
</trkpt>
<trkpt lat="33.8105997" lon="-118.3940242">
  <ele>-24.998</ele>
  <time>2026-09-01T01:14:30Z</time>
  <course>53.71</course>
  <speed>0.9940321926376429</speed>
  <fix>3d</fix>
</trkpt>
<trkpt lat="33.8105989" lon="-118.3940253">
  <ele>-24.39</ele>
  <time>2026-09-01T01:14:30Z</time>
  <course>53.37</course>
  <speed>1.0</speed>
  <fix>3d</fix>
</trkpt>
<trkpt lat="33.8106002" lon="-118.3940233">
  <ele>-25.001</ele>
  <time>2026-09-01T01:14:30Z</time>
  <course>53.74</course>
  <speed>0.9940321926376429</speed>
  <fix>3d</fix>
</trkpt>
<trkpt lat="33.8105989" lon="-118.3940253">
  <ele>-24.39</ele>
  <time>2026-09-01T01:14:30Z</time>
  <course>53.37</course>
  <speed>1.0</speed>
  <fix>3d</fix>
</trkpt>
<trkpt lat="33.8106007" lon="-118.3940224">
  <ele>-25.003</ele>
  <time>2026-09-01T01:14:30Z</time>
  <course>53.75</course>
  <speed>0.9940321926376429</speed>
  <fix>3d</fix>
</trkpt>
<trkpt lat="33.8106" lon="-118.3940236">
  <ele>-24.4</ele>
  <time>2026-09-01T01:14:30Z</time>
  <course>53.39</course>
  <speed>1.0</speed>
  <fix>3d</fix>
</trkpt>
<trkpt lat="33.8106013" lon="-118.3940216">
  <ele>-25.004</ele>
  <time>2026-09-01T01:14:30Z</time>
  <course>53.76</course>
  <speed>0.9940321926376429</speed>
  <fix>3d</fix>
</trkpt>
<trkpt lat="33.8106" lon="-118.3940236">
  <ele>-24.4</ele>
  <time>2026-09-01T01:14:30Z</time>
  <course>53.39</course>
  <speed>1.0</speed>
  <fix>3d</fix>
</trkpt>
<trkpt lat="33.8106018" lon="-118.3940207">
  <ele>-25.006</ele>
  <time>2026-09-01T01:14:30Z</time>
  <course>53.77</course>
  <speed>0.9940321926376429</speed>
  <fix>3d</fix>
</trkpt>
<trkpt lat="33.8106011" lon="-118.3940218">
  <ele>-24.4</ele>
  <time>2026-09-01T01:14:30Z</time>
  <course>53.38</course>
  <speed>1.0</speed>
  <fix>3d</fix>
</trkpt>
<trkpt lat="33.8106024" lon="-118.3940198">
  <ele>-25.008</ele>
  <time>2026-09-01T01:14:30Z</time>
  <course>53.77</course>
  <speed>0.9940321926376429</speed>
  <fix>3d</fix>
</trkpt>
<trkpt lat="33.8106011" lon="-118.3940218">
  <ele>-24.4</ele>
  <time>2026-09-01T01:14:30Z</time>
  <course>53.38</course>
  <speed>1.0</speed>
  <fix>3d</fix>
</trkpt>
<trkpt lat="33.8106029" lon="-118.394019">
  <ele>-25.009</ele>
  <time>2026-09-01T01:14:30Z</time>
  <course>53.78</course>
  <speed>0.9940321926376429</speed>
  <fix>3d</fix>
</trkpt>
<trkpt lat="33.8106022" lon="-118.3940201">
  <ele>-24.4</ele>
  <time>2026-09-01T01:14:30Z</time>
  <course>53.37</course>
  <speed>1.0</speed>
  <fix>3d</fix>
</trkpt>
<trkpt lat="33.8106034" lon="-118.3940181">
  <ele>-25.01</ele>
  <time>2026-09-01T01:14:30Z</time>
  <course>53.78</course>
  <speed>0.9860020283954795</speed>
  <fix>3d</fix>
</trkpt>
<trkpt lat="33.8106022" lon="-118.3940201">
  <ele>-24.4</ele>
  <time>2026-09-01T01:14:30Z</time>
  <course>53.37</course>
  <speed>1.0</speed>
  <fix>3d</fix>
</trkpt>
<trkpt lat="33.810604" lon="-118.3940172">
  <ele>-25.009</ele>
  <time>2026-09-01T01:14:30Z</time>
  <course>53.8</course>
  <speed>0.9940321926376429</speed>
  <fix>3d</fix>
</trkpt>
<trkpt lat="33.8106032" lon="-118.3940184">
  <ele>-24.4</ele>
  <time>2026-09-01T01:14:30Z</time>
  <course>53.38</course>
  <speed>0.99</speed>
  <fix>3d</fix>
</trkpt>
<trkpt lat="33.8106045" lon="-118.3940164">
  <ele>-25.008</ele>
  <time>2026-09-01T01:14:30Z</time>
  <course>53.82</course>
  <speed>0.9940321926376429</speed>
  <fix>3d</fix>
</trkpt>
<trkpt lat="33.8106032" lon="-118.3940184">
  <ele>-24.4</ele>
  <time>2026-09-01T01:14:30Z</time>
  <course>53.38</course>
  <speed>0.99</speed>
  <fix>3d</fix>
</trkpt>
<trkpt lat="33.810605" lon="-118.3940155">
  <ele>-25.006</ele>
  <time>2026-09-01T01:14:30Z</time>
  <course>53.84</course>
  <speed>0.9940321926376429</speed>
  <fix>3d</fix>
</trkpt>
<trkpt lat="33.8106043" lon="-118.3940166">
  <ele>-24.4</ele>
  <time>2026-09-01T01:14:30Z</time>
  <course>53.4</course>
  <speed>0.99</speed>
  <fix>3d</fix>
</trkpt>
<trkpt lat="33.8106056" lon="-118.3940146">
  <ele>-25.004</ele>
  <time>2026-09-01T01:14:30Z</time>
  <course>53.86</course>
  <speed>0.9940321926376429</speed>
  <fix>3d</fix>
</trkpt>
<trkpt lat="33.8106043" lon="-118.3940166">
  <ele>-24.4</ele>
  <time>2026-09-01T01:14:30Z</time>
  <course>53.4</course>
  <speed>0.99</speed>
  <fix>3d</fix>
</trkpt>
<trkpt lat="33.8106061" lon="-118.3940137">
  <ele>-25.004</ele>
  <time>2026-09-01T01:14:30Z</time>
  <course>53.86</course>
  <speed>0.9940321926376429</speed>
  <fix>3d</fix>
</trkpt>
<trkpt lat="33.8106054" lon="-118.3940149">
  <ele>-24.4</ele>
  <time>2026-09-01T01:14:30Z</time>
  <course>53.4</course>
  <speed>1.0</speed>
  <fix>3d</fix>
</trkpt>
<trkpt lat="33.8106066" lon="-118.3940129">
  <ele>-25.004</ele>
  <time>2026-09-01T01:14:30Z</time>
  <course>53.86</course>
  <speed>0.9940321926376429</speed>
  <fix>3d</fix>
</trkpt>
<trkpt lat="33.8106054" lon="-118.3940149">
  <ele>-24.4</ele>
  <time>2026-09-01T01:14:30Z</time>
  <course>53.4</course>
  <speed>1.0</speed>
  <fix>3d</fix>
</trkpt>
<trkpt lat="33.8106072" lon="-118.394012">
  <ele>-25.004</ele>
  <time>2026-09-01T01:14:30Z</time>
  <course>53.88</course>
  <speed>0.9940321926376429</speed>
  <fix>3d</fix>
</trkpt>
<trkpt lat="33.8106064" lon="-118.3940132">
  <ele>-24.4</ele>
  <time>2026-09-01T01:14:30Z</time>
  <course>53.39</course>
  <speed>0.99</speed>
  <fix>3d</fix>
</trkpt>
<trkpt lat="33.8106077" lon="-118.3940111">
  <ele>-25.004</ele>
  <time>2026-09-01T01:14:30Z</time>
  <course>53.89</course>
  <speed>0.9940321926376429</speed>
  <fix>3d</fix>
</trkpt>
<trkpt lat="33.8106064" lon="-118.3940132">
  <ele>-24.4</ele>
  <time>2026-09-01T01:14:30Z</time>
  <course>53.39</course>
  <speed>0.99</speed>
  <fix>3d</fix>
</trkpt>
<trkpt lat="33.8106082" lon="-118.3940103">
  <ele>-25.003</ele>
  <time>2026-09-01T01:14:30Z</time>
  <course>53.89</course>
  <speed>0.9940321926376429</speed>
  <fix>3d</fix>
</trkpt>
<trkpt lat="33.8106075" lon="-118.3940114">
  <ele>-24.4</ele>
  <time>2026-09-01T01:14:30Z</time>
  <course>53.39</course>
  <speed>0.99</speed>
  <fix>3d</fix>
</trkpt>
<trkpt lat="33.8106088" lon="-118.3940094">
  <ele>-25.004</ele>
  <time>2026-09-01T01:14:30Z</time>
  <course>53.9</course>
  <speed>0.9940321926376429</speed>
  <fix>3d</fix>
</trkpt>
<trkpt lat="33.8106075" lon="-118.3940114">
  <ele>-24.4</ele>
  <time>2026-09-01T01:14:30Z</time>
  <course>53.39</course>
  <speed>0.99</speed>
  <fix>3d</fix>
</trkpt>
<trkpt lat="33.8106093" lon="-118.3940085">
  <ele>-25.005</ele>
  <time>2026-09-01T01:14:30Z</time>
  <course>53.89</course>
  <speed>0.9940321926376429</speed>
  <fix>3d</fix>
</trkpt>
<trkpt lat="33.8106086" lon="-118.3940097">
  <ele>-24.4</ele>
  <time>2026-09-01T01:14:30Z</time>
  <course>53.37</course>
  <speed>0.99</speed>
  <fix>3d</fix>
</trkpt>
<trkpt lat="33.8106098" lon="-118.3940077">
  <ele>-25.007</ele>
  <time>2026-09-01T01:14:30Z</time>
  <course>53.88</course>
  <speed>0.9940321926376429</speed>
  <fix>3d</fix>
</trkpt>
<trkpt lat="33.8106086" lon="-118.3940097">
  <ele>-24.4</ele>
  <time>2026-09-01T01:14:30Z</time>
  <course>53.37</course>
  <speed>0.99</speed>
  <fix>3d</fix>
</trkpt>
<trkpt lat="33.8106104" lon="-118.3940068">
  <ele>-25.008</ele>
  <time>2026-09-01T01:14:30Z</time>
  <course>53.89</course>
  <speed>0.9940321926376429</speed>
  <fix>3d</fix>
</trkpt>
<trkpt lat="33.8106097" lon="-118.3940079">
  <ele>-24.4</ele>
  <time>2026-09-01T01:14:30Z</time>
  <course>53.36</course>
  <speed>0.99</speed>
  <fix>3d</fix>
</trkpt>
<trkpt lat="33.8106109" lon="-118.3940059">
  <ele>-25.01</ele>
  <time>2026-09-01T01:14:30Z</time>
  <course>53.89</course>
  <speed>0.9940321926376429</speed>
  <fix>3d</fix>
</trkpt>
<trkpt lat="33.8106097" lon="-118.3940079">
  <ele>-24.4</ele>
  <time>2026-09-01T01:14:30Z</time>
  <course>53.36</course>
  <speed>0.99</speed>
  <fix>3d</fix>
</trkpt>
<trkpt lat="33.8106115" lon="-118.394005">
  <ele>-25.01</ele>
  <time>2026-09-01T01:14:30Z</time>
  <course>53.9</course>
  <speed>0.9940321926376429</speed>
  <fix>3d</fix>
</trkpt>
<trkpt lat="33.8106107" lon="-118.3940062">
  <ele>-24.39</ele>
  <time>2026-09-01T01:14:30Z</time>
  <course>53.38</course>
  <speed>0.99</speed>
  <fix>3d</fix>
</trkpt>
<trkpt lat="33.810612" lon="-118.3940042">
  <ele>-25.007</ele>
  <time>2026-09-01T01:14:30Z</time>
  <course>53.92</course>
  <speed>0.9940321926376429</speed>
  <fix>3d</fix>
</trkpt>
<trkpt lat="33.8106107" lon="-118.3940062">
  <ele>-24.39</ele>
  <time>2026-09-01T01:14:30Z</time>
  <course>53.38</course>
  <speed>0.99</speed>
  <fix>3d</fix>
</trkpt>
<trkpt lat="33.8106125" lon="-118.3940033">
  <ele>-25.004</ele>
  <time>2026-09-01T01:14:30Z</time>
  <course>53.93</course>
  <speed>0.9940321926376429</speed>
  <fix>3d</fix>
</trkpt>
<trkpt lat="33.8106118" lon="-118.3940045">
  <ele>-24.39</ele>
  <time>2026-09-01T01:14:30Z</time>
  <course>53.39</course>
  <speed>0.99</speed>
  <fix>3d</fix>
</trkpt>
<trkpt lat="33.810613" lon="-118.3940024">
  <ele>-25.001</ele>
  <time>2026-09-01T01:14:30Z</time>
  <course>53.93</course>
  <speed>0.9940321926376429</speed>
  <fix>3d</fix>
</trkpt>
<trkpt lat="33.8106118" lon="-118.3940045">
  <ele>-24.39</ele>
  <time>2026-09-01T01:14:30Z</time>
  <course>53.39</course>
  <speed>0.99</speed>
  <fix>3d</fix>
</trkpt>
<trkpt lat="33.8106136" lon="-118.3940016">
  <ele>-24.999</ele>
  <time>2026-09-01T01:14:30Z</time>
  <course>53.93</course>
  <speed>0.9940321926376429</speed>
  <fix>3d</fix>
</trkpt>
<trkpt lat="33.8106128" lon="-118.3940028">
  <ele>-24.39</ele>
  <time>2026-09-01T01:14:30Z</time>
  <course>53.38</course>
  <speed>0.99</speed>
  <fix>3d</fix>
</trkpt>
<trkpt lat="33.8106141" lon="-118.3940007">
  <ele>-24.997</ele>
  <time>2026-09-01T01:14:30Z</time>
  <course>53.94</course>
  <speed>0.9940321926376429</speed>
  <fix>3d</fix>
</trkpt>
<trkpt lat="33.8106128" lon="-118.3940028">
  <ele>-24.39</ele>
  <time>2026-09-01T01:14:30Z</time>
  <course>53.38</course>
  <speed>0.99</speed>
  <fix>3d</fix>
</trkpt>
<trkpt lat="33.8106146" lon="-118.3939999">
  <ele>-24.996</ele>
  <time>2026-09-01T01:14:30Z</time>
  <course>53.94</course>
  <speed>0.9940321926376429</speed>
  <fix>3d</fix>
</trkpt>
<trkpt lat="33.8106139" lon="-118.394001">
  <ele>-24.38</ele>
  <time>2026-09-01T01:14:30Z</time>
  <course>53.37</course>
  <speed>1.0</speed>
  <fix>3d</fix>
</trkpt>
<trkpt lat="33.8106152" lon="-118.393999">
  <ele>-24.997</ele>
  <time>2026-09-01T01:14:30Z</time>
  <course>53.93</course>
  <speed>0.9940321926376429</speed>
  <fix>3d</fix>
</trkpt>
<trkpt lat="33.8106139" lon="-118.394001">
  <ele>-24.38</ele>
  <time>2026-09-01T01:14:30Z</time>
  <course>53.37</course>
  <speed>1.0</speed>
  <fix>3d</fix>
</trkpt>
<trkpt lat="33.8106157" lon="-118.3939981">
  <ele>-24.998</ele>
  <time>2026-09-01T01:14:30Z</time>
  <course>53.92</course>
  <speed>0.9940321926376429</speed>
  <fix>3d</fix>
</trkpt>
<trkpt lat="33.810615" lon="-118.3939993">
  <ele>-24.38</ele>
  <time>2026-09-01T01:14:30Z</time>
  <course>53.34</course>
  <speed>1.0</speed>
  <fix>3d</fix>
</trkpt>
<trkpt lat="33.8106162" lon="-118.3939973">
  <ele>-25.0</ele>
  <time>2026-09-01T01:14:30Z</time>
  <course>53.91</course>
  <speed>0.9940321926376429</speed>
  <fix>3d</fix>
</trkpt>
<trkpt lat="33.810615" lon="-118.3939993">
  <ele>-24.38</ele>
  <time>2026-09-01T01:14:30Z</time>
  <course>53.34</course>
  <speed>1.0</speed>
  <fix>3d</fix>
</trkpt>
<trkpt lat="33.8106168" lon="-118.3939964">
  <ele>-25.0</ele>
  <time>2026-09-01T01:14:30Z</time>
  <course>53.91</course>
  <speed>0.9940321926376429</speed>
  <fix>3d</fix>
</trkpt>
<trkpt lat="33.8106161" lon="-118.3939975">
  <ele>-24.39</ele>
  <time>2026-09-01T01:14:30Z</time>
  <course>53.32</course>
  <speed>1.0</speed>
  <fix>3d</fix>
</trkpt>
<trkpt lat="33.8106173" lon="-118.3939955">
  <ele>-25.001</ele>
  <time>2026-09-01T01:14:30Z</time>
  <course>53.92</course>
  <speed>0.9940321926376429</speed>
  <fix>3d</fix>
</trkpt>
<trkpt lat="33.8106161" lon="-118.3939975">
  <ele>-24.39</ele>
  <time>2026-09-01T01:14:30Z</time>
  <course>53.32</course>
  <speed>1.0</speed>
  <fix>3d</fix>
</trkpt>
<trkpt lat="33.8106178" lon="-118.3939946">
  <ele>-25.002</ele>
  <time>2026-09-01T01:14:30Z</time>
  <course>53.93</course>
  <speed>0.9940321926376429</speed>
  <fix>3d</fix>
</trkpt>
<trkpt lat="33.8106172" lon="-118.3939958">
  <ele>-24.39</ele>
  <time>2026-09-01T01:14:30Z</time>
  <course>53.34</course>
  <speed>1.0</speed>
  <fix>3d</fix>
</trkpt>
<trkpt lat="33.8106184" lon="-118.3939938">
  <ele>-25.002</ele>
  <time>2026-09-01T01:14:31Z</time>
  <course>53.94</course>
  <speed>0.9940321926376429</speed>
  <fix>3d</fix>
</trkpt>
<trkpt lat="33.8106172" lon="-118.3939958">
  <ele>-24.39</ele>
  <time>2026-09-01T01:14:31Z</time>
  <course>53.34</course>
  <speed>1.0</speed>
  <fix>3d</fix>
</trkpt>
<trkpt lat="33.8106189" lon="-118.3939929">
  <ele>-25.002</ele>
  <time>2026-09-01T01:14:31Z</time>
  <course>53.97</course>
  <speed>0.9940321926376429</speed>
  <fix>3d</fix>
</trkpt>
<trkpt lat="33.8106183" lon="-118.393994">
  <ele>-24.4</ele>
  <time>2026-09-01T01:14:31Z</time>
  <course>53.37</course>
  <speed>1.0</speed>
  <fix>3d</fix>
</trkpt>
<trkpt lat="33.8106195" lon="-118.393992">
  <ele>-25.002</ele>
  <time>2026-09-01T01:14:31Z</time>
  <course>54.01</course>
  <speed>0.9940321926376429</speed>
  <fix>3d</fix>
</trkpt>
<trkpt lat="33.8106183" lon="-118.393994">
  <ele>-24.4</ele>
  <time>2026-09-01T01:14:31Z</time>
  <course>53.37</course>
  <speed>1.0</speed>
  <fix>3d</fix>
</trkpt>
<trkpt lat="33.81062" lon="-118.3939912">
  <ele>-25.003</ele>
  <time>2026-09-01T01:14:31Z</time>
  <course>54.04</course>
  <speed>0.9940321926376429</speed>
  <fix>3d</fix>
</trkpt>
<trkpt lat="33.8106193" lon="-118.3939923">
  <ele>-24.4</ele>
  <time>2026-09-01T01:14:31Z</time>
  <course>53.41</course>
  <speed>1.0</speed>
  <fix>3d</fix>
</trkpt>
<trkpt lat="33.8106205" lon="-118.3939903">
  <ele>-25.003</ele>
  <time>2026-09-01T01:14:31Z</time>
  <course>54.06</course>
  <speed>0.9940321926376429</speed>
  <fix>3d</fix>
</trkpt>
<trkpt lat="33.8106193" lon="-118.3939923">
  <ele>-24.4</ele>
  <time>2026-09-01T01:14:31Z</time>
  <course>53.41</course>
  <speed>1.0</speed>
  <fix>3d</fix>
</trkpt>
<trkpt lat="33.8106211" lon="-118.3939894">
  <ele>-25.004</ele>
  <time>2026-09-01T01:14:31Z</time>
  <course>54.08</course>
  <speed>0.9940321926376429</speed>
  <fix>3d</fix>
</trkpt>
<trkpt lat="33.8106204" lon="-118.3939906">
  <ele>-24.4</ele>
  <time>2026-09-01T01:14:31Z</time>
  <course>53.43</course>
  <speed>1.0</speed>
  <fix>3d</fix>
</trkpt>
<trkpt lat="33.8106216" lon="-118.3939886">
  <ele>-25.004</ele>
  <time>2026-09-01T01:14:31Z</time>
  <course>54.09</course>
  <speed>0.9940321926376429</speed>
  <fix>3d</fix>
</trkpt>
<trkpt lat="33.8106204" lon="-118.3939906">
  <ele>-24.4</ele>
  <time>2026-09-01T01:14:31Z</time>
  <course>53.43</course>
  <speed>1.0</speed>
  <fix>3d</fix>
</trkpt>
<trkpt lat="33.8106221" lon="-118.3939877">
  <ele>-25.003</ele>
  <time>2026-09-01T01:14:31Z</time>
  <course>54.11</course>
  <speed>0.9940321926376429</speed>
  <fix>3d</fix>
</trkpt>
<trkpt lat="33.8106215" lon="-118.3939888">
  <ele>-24.4</ele>
  <time>2026-09-01T01:14:31Z</time>
  <course>53.44</course>
  <speed>1.0</speed>
  <fix>3d</fix>
</trkpt>
<trkpt lat="33.8106227" lon="-118.3939868">
  <ele>-25.003</ele>
  <time>2026-09-01T01:14:31Z</time>
  <course>54.13</course>
  <speed>0.9940321926376429</speed>
  <fix>3d</fix>
</trkpt>
<trkpt lat="33.8106215" lon="-118.3939888">
  <ele>-24.4</ele>
  <time>2026-09-01T01:14:31Z</time>
  <course>53.44</course>
  <speed>1.0</speed>
  <fix>3d</fix>
</trkpt>
<trkpt lat="33.8106232" lon="-118.3939859">
  <ele>-25.004</ele>
  <time>2026-09-01T01:14:31Z</time>
  <course>54.14</course>
  <speed>0.9940321926376429</speed>
  <fix>3d</fix>
</trkpt>
<trkpt lat="33.8106226" lon="-118.3939871">
  <ele>-24.4</ele>
  <time>2026-09-01T01:14:31Z</time>
  <course>53.45</course>
  <speed>1.0</speed>
  <fix>3d</fix>
</trkpt>
<trkpt lat="33.8106237" lon="-118.3939851">
  <ele>-25.005</ele>
  <time>2026-09-01T01:14:31Z</time>
  <course>54.16</course>
  <speed>0.9940321926376429</speed>
  <fix>3d</fix>
</trkpt>
<trkpt lat="33.8106226" lon="-118.3939871">
  <ele>-24.4</ele>
  <time>2026-09-01T01:14:31Z</time>
  <course>53.45</course>
  <speed>1.0</speed>
  <fix>3d</fix>
</trkpt>
<trkpt lat="33.8106243" lon="-118.3939842">
  <ele>-25.006</ele>
  <time>2026-09-01T01:14:31Z</time>
  <course>54.19</course>
  <speed>0.9940321926376429</speed>
  <fix>3d</fix>
</trkpt>
<trkpt lat="33.8106236" lon="-118.3939853">
  <ele>-24.4</ele>
  <time>2026-09-01T01:14:31Z</time>
  <course>53.49</course>
  <speed>1.0</speed>
  <fix>3d</fix>
</trkpt>
<trkpt lat="33.8106248" lon="-118.3939833">
  <ele>-25.006</ele>
  <time>2026-09-01T01:14:31Z</time>
  <course>54.21</course>
  <speed>0.9940321926376429</speed>
  <fix>3d</fix>
</trkpt>
<trkpt lat="33.8106236" lon="-118.3939853">
  <ele>-24.4</ele>
  <time>2026-09-01T01:14:31Z</time>
  <course>53.49</course>
  <speed>1.0</speed>
  <fix>3d</fix>
</trkpt>
<trkpt lat="33.8106253" lon="-118.3939825">
  <ele>-25.005</ele>
  <time>2026-09-01T01:14:31Z</time>
  <course>54.21</course>
  <speed>0.9940321926376429</speed>
  <fix>3d</fix>
</trkpt>
<trkpt lat="33.8106247" lon="-118.3939835">
  <ele>-24.4</ele>
  <time>2026-09-01T01:14:31Z</time>
  <course>53.51</course>
  <speed>1.0</speed>
  <fix>3d</fix>
</trkpt>
<trkpt lat="33.8106259" lon="-118.3939816">
  <ele>-25.004</ele>
  <time>2026-09-01T01:14:31Z</time>
  <course>54.21</course>
  <speed>0.9940321926376429</speed>
  <fix>3d</fix>
</trkpt>
<trkpt lat="33.8106247" lon="-118.3939835">
  <ele>-24.4</ele>
  <time>2026-09-01T01:14:31Z</time>
  <course>53.51</course>
  <speed>1.0</speed>
  <fix>3d</fix>
</trkpt>
<trkpt lat="33.8106264" lon="-118.3939807">
  <ele>-25.004</ele>
  <time>2026-09-01T01:14:31Z</time>
  <course>54.19</course>
  <speed>0.9940321926376429</speed>
  <fix>3d</fix>
</trkpt>
<trkpt lat="33.8106258" lon="-118.3939818">
  <ele>-24.4</ele>
  <time>2026-09-01T01:14:31Z</time>
  <course>53.46</course>
  <speed>1.0</speed>
  <fix>3d</fix>
</trkpt>
<trkpt lat="33.8106269" lon="-118.3939799">
  <ele>-25.004</ele>
  <time>2026-09-01T01:14:31Z</time>
  <course>54.16</course>
  <speed>0.9940321926376429</speed>
  <fix>3d</fix>
</trkpt>
<trkpt lat="33.8106258" lon="-118.3939818">
  <ele>-24.4</ele>
  <time>2026-09-01T01:14:31Z</time>
  <course>53.46</course>
  <speed>1.0</speed>
  <fix>3d</fix>
</trkpt>
<trkpt lat="33.8106275" lon="-118.393979">
  <ele>-25.005</ele>
  <time>2026-09-01T01:14:31Z</time>
  <course>54.15</course>
  <speed>0.98812954616285</speed>
  <fix>3d</fix>
</trkpt>
<trkpt lat="33.8106269" lon="-118.3939801">
  <ele>-24.4</ele>
  <time>2026-09-01T01:14:31Z</time>
  <course>53.42</course>
  <speed>1.0</speed>
  <fix>3d</fix>
</trkpt>
<trkpt lat="33.810628" lon="-118.3939781">
  <ele>-25.005</ele>
  <time>2026-09-01T01:14:31Z</time>
  <course>54.15</course>
  <speed>0.98812954616285</speed>
  <fix>3d</fix>
</trkpt>
<trkpt lat="33.8106269" lon="-118.3939801">
  <ele>-24.4</ele>
  <time>2026-09-01T01:14:31Z</time>
  <course>53.42</course>
  <speed>1.0</speed>
  <fix>3d</fix>
</trkpt>
<trkpt lat="33.8106286" lon="-118.3939772">
  <ele>-25.005</ele>
  <time>2026-09-01T01:14:31Z</time>
  <course>54.17</course>
  <speed>0.98812954616285</speed>
  <fix>3d</fix>
</trkpt>
<trkpt lat="33.8106279" lon="-118.3939783">
  <ele>-24.4</ele>
  <time>2026-09-01T01:14:31Z</time>
  <course>53.45</course>
  <speed>1.0</speed>
  <fix>3d</fix>
</trkpt>
<trkpt lat="33.8106291" lon="-118.3939764">
  <ele>-25.004</ele>
  <time>2026-09-01T01:14:31Z</time>
  <course>54.19</course>
  <speed>0.98812954616285</speed>
  <fix>3d</fix>
</trkpt>
<trkpt lat="33.8106279" lon="-118.3939783">
  <ele>-24.4</ele>
  <time>2026-09-01T01:14:31Z</time>
  <course>53.45</course>
  <speed>1.0</speed>
  <fix>3d</fix>
</trkpt>
<trkpt lat="33.8106296" lon="-118.3939755">
  <ele>-25.004</ele>
  <time>2026-09-01T01:14:31Z</time>
  <course>54.2</course>
  <speed>0.98812954616285</speed>
  <fix>3d</fix>
</trkpt>
<trkpt lat="33.810629" lon="-118.3939766">
  <ele>-24.4</ele>
  <time>2026-09-01T01:14:31Z</time>
  <course>53.46</course>
  <speed>1.0</speed>
  <fix>3d</fix>
</trkpt>
<trkpt lat="33.8106302" lon="-118.3939746">
  <ele>-25.004</ele>
  <time>2026-09-01T01:14:31Z</time>
  <course>54.19</course>
  <speed>0.98812954616285</speed>
  <fix>3d</fix>
</trkpt>
<trkpt lat="33.810629" lon="-118.3939766">
  <ele>-24.4</ele>
  <time>2026-09-01T01:14:31Z</time>
  <course>53.46</course>
  <speed>1.0</speed>
  <fix>3d</fix>
</trkpt>
<trkpt lat="33.8106307" lon="-118.3939738">
  <ele>-25.004</ele>
  <time>2026-09-01T01:14:31Z</time>
  <course>54.18</course>
  <speed>0.98812954616285</speed>
  <fix>3d</fix>
</trkpt>
<trkpt lat="33.8106301" lon="-118.3939748">
  <ele>-24.4</ele>
  <time>2026-09-01T01:14:31Z</time>
  <course>53.44</course>
  <speed>1.0</speed>
  <fix>3d</fix>
</trkpt>
<trkpt lat="33.8106312" lon="-118.3939729">
  <ele>-25.004</ele>
  <time>2026-09-01T01:14:31Z</time>
  <course>54.17</course>
  <speed>0.98812954616285</speed>
  <fix>3d</fix>
</trkpt>
<trkpt lat="33.8106301" lon="-118.3939748">
  <ele>-24.4</ele>
  <time>2026-09-01T01:14:31Z</time>
  <course>53.44</course>
  <speed>1.0</speed>
  <fix>3d</fix>
</trkpt>
<trkpt lat="33.8106318" lon="-118.393972">
  <ele>-25.005</ele>
  <time>2026-09-01T01:14:31Z</time>
  <course>54.16</course>
  <speed>0.98812954616285</speed>
  <fix>3d</fix>
</trkpt>
<trkpt lat="33.8106312" lon="-118.3939731">
  <ele>-24.39</ele>
  <time>2026-09-01T01:14:31Z</time>
  <course>53.44</course>
  <speed>1.0</speed>
  <fix>3d</fix>
</trkpt>
<trkpt lat="33.8106323" lon="-118.3939712">
  <ele>-25.004</ele>
  <time>2026-09-01T01:14:31Z</time>
  <course>54.17</course>
  <speed>0.98812954616285</speed>
  <fix>3d</fix>
</trkpt>
<trkpt lat="33.8106312" lon="-118.3939731">
  <ele>-24.39</ele>
  <time>2026-09-01T01:14:31Z</time>
  <course>53.44</course>
  <speed>1.0</speed>
  <fix>3d</fix>
</trkpt>
<trkpt lat="33.8106328" lon="-118.3939703">
  <ele>-25.003</ele>
  <time>2026-09-01T01:14:31Z</time>
  <course>54.19</course>
  <speed>0.9800510190801294</speed>
  <fix>3d</fix>
</trkpt>
<trkpt lat="33.8106322" lon="-118.3939713">
  <ele>-24.39</ele>
  <time>2026-09-01T01:14:31Z</time>
  <course>53.46</course>
  <speed>1.0</speed>
  <fix>3d</fix>
</trkpt>
<trkpt lat="33.8106334" lon="-118.3939694">
  <ele>-25.002</ele>
  <time>2026-09-01T01:14:31Z</time>
  <course>54.2</course>
  <speed>0.9800510190801294</speed>
  <fix>3d</fix>
</trkpt>
<trkpt lat="33.8106322" lon="-118.3939713">
  <ele>-24.39</ele>
  <time>2026-09-01T01:14:31Z</time>
  <course>53.46</course>
  <speed>1.0</speed>
  <fix>3d</fix>
</trkpt>
<trkpt lat="33.8106339" lon="-118.3939685">
  <ele>-25.001</ele>
  <time>2026-09-01T01:14:31Z</time>
  <course>54.19</course>
  <speed>0.9800510190801294</speed>
  <fix>3d</fix>
</trkpt>
<trkpt lat="33.8106333" lon="-118.3939696">
  <ele>-24.39</ele>
  <time>2026-09-01T01:14:31Z</time>
  <course>53.46</course>
  <speed>1.0</speed>
  <fix>3d</fix>
</trkpt>
<trkpt lat="33.8106344" lon="-118.3939677">
  <ele>-25.0</ele>
  <time>2026-09-01T01:14:31Z</time>
  <course>54.18</course>
  <speed>0.9800510190801294</speed>
  <fix>3d</fix>
</trkpt>
<trkpt lat="33.8106333" lon="-118.3939696">
  <ele>-24.39</ele>
  <time>2026-09-01T01:14:31Z</time>
  <course>53.46</course>
  <speed>1.0</speed>
  <fix>3d</fix>
</trkpt>
<trkpt lat="33.810635" lon="-118.3939668">
  <ele>-25.0</ele>
  <time>2026-09-01T01:14:31Z</time>
  <course>54.17</course>
  <speed>0.9800510190801294</speed>
  <fix>3d</fix>
</trkpt>
<trkpt lat="33.8106344" lon="-118.3939678">
  <ele>-24.39</ele>
  <time>2026-09-01T01:14:31Z</time>
  <course>53.42</course>
  <speed>1.0</speed>
  <fix>3d</fix>
</trkpt>
<trkpt lat="33.8106355" lon="-118.3939659">
  <ele>-25.0</ele>
  <time>2026-09-01T01:14:31Z</time>
  <course>54.16</course>
  <speed>0.9800510190801294</speed>
  <fix>3d</fix>
</trkpt>
<trkpt lat="33.8106344" lon="-118.3939678">
  <ele>-24.39</ele>
  <time>2026-09-01T01:14:31Z</time>
  <course>53.42</course>
  <speed>1.0</speed>
  <fix>3d</fix>
</trkpt>
<trkpt lat="33.810636" lon="-118.393965">
  <ele>-25.0</ele>
  <time>2026-09-01T01:14:31Z</time>
  <course>54.15</course>
  <speed>0.9800510190801294</speed>
  <fix>3d</fix>
</trkpt>
<trkpt lat="33.8106354" lon="-118.3939661">
  <ele>-24.39</ele>
  <time>2026-09-01T01:14:31Z</time>
  <course>53.4</course>
  <speed>1.0</speed>
  <fix>3d</fix>
</trkpt>
<trkpt lat="33.8106366" lon="-118.3939642">
  <ele>-25.0</ele>
  <time>2026-09-01T01:14:31Z</time>
  <course>54.14</course>
  <speed>0.9800510190801294</speed>
  <fix>3d</fix>
</trkpt>
<trkpt lat="33.8106354" lon="-118.3939661">
  <ele>-24.39</ele>
  <time>2026-09-01T01:14:31Z</time>
  <course>53.4</course>
  <speed>1.0</speed>
  <fix>3d</fix>
</trkpt>
<trkpt lat="33.8106371" lon="-118.3939633">
  <ele>-25.0</ele>
  <time>2026-09-01T01:14:31Z</time>
  <course>54.13</course>
  <speed>0.9800510190801294</speed>
  <fix>3d</fix>
</trkpt>
<trkpt lat="33.8106365" lon="-118.3939643">
  <ele>-24.39</ele>
  <time>2026-09-01T01:14:31Z</time>
  <course>53.37</course>
  <speed>1.0</speed>
  <fix>3d</fix>
</trkpt>
<trkpt lat="33.8106376" lon="-118.3939624">
  <ele>-24.999</ele>
  <time>2026-09-01T01:14:31Z</time>
  <course>54.11</course>
  <speed>0.9800510190801294</speed>
  <fix>3d</fix>
</trkpt>
<trkpt lat="33.8106365" lon="-118.3939643">
  <ele>-24.39</ele>
  <time>2026-09-01T01:14:31Z</time>
  <course>53.37</course>
  <speed>1.0</speed>
  <fix>3d</fix>
</trkpt>
<trkpt lat="33.8106382" lon="-118.3939616">
  <ele>-25.0</ele>
  <time>2026-09-01T01:14:31Z</time>
  <course>54.08</course>
  <speed>0.9800510190801294</speed>
  <fix>3d</fix>
</trkpt>
<trkpt lat="33.8106376" lon="-118.3939626">
  <ele>-24.39</ele>
  <time>2026-09-01T01:14:31Z</time>
  <course>53.32</course>
  <speed>0.99</speed>
  <fix>3d</fix>
</trkpt>
<trkpt lat="33.8106387" lon="-118.3939607">
  <ele>-25.001</ele>
  <time>2026-09-01T01:14:31Z</time>
  <course>54.05</course>
  <speed>0.9800510190801294</speed>
  <fix>3d</fix>
</trkpt>
<trkpt lat="33.8106376" lon="-118.3939626">
  <ele>-24.39</ele>
  <time>2026-09-01T01:14:31Z</time>
  <course>53.32</course>
  <speed>0.99</speed>
  <fix>3d</fix>
</trkpt>
<trkpt lat="33.8106393" lon="-118.3939598">
  <ele>-25.003</ele>
  <time>2026-09-01T01:14:31Z</time>
  <course>54.03</course>
  <speed>0.9800510190801294</speed>
  <fix>3d</fix>
</trkpt>
<trkpt lat="33.8106387" lon="-118.3939609">
  <ele>-24.4</ele>
  <time>2026-09-01T01:14:31Z</time>
  <course>53.29</course>
  <speed>0.99</speed>
  <fix>3d</fix>
</trkpt>
<trkpt lat="33.8106398" lon="-118.393959">
  <ele>-25.004</ele>
  <time>2026-09-01T01:14:31Z</time>
  <course>54.04</course>
  <speed>0.9800510190801294</speed>
  <fix>3d</fix>
</trkpt>
<trkpt lat="33.8106387" lon="-118.3939609">
  <ele>-24.4</ele>
  <time>2026-09-01T01:14:31Z</time>
  <course>53.29</course>
  <speed>0.99</speed>
  <fix>3d</fix>
</trkpt>
<trkpt lat="33.8106403" lon="-118.3939581">
  <ele>-25.005</ele>
  <time>2026-09-01T01:14:31Z</time>
  <course>54.06</course>
  <speed>0.9800510190801294</speed>
  <fix>3d</fix>
</trkpt>
<trkpt lat="33.8106398" lon="-118.3939592">
  <ele>-24.4</ele>
  <time>2026-09-01T01:14:31Z</time>
  <course>53.31</course>
  <speed>0.99</speed>
  <fix>3d</fix>
</trkpt>
<trkpt lat="33.8106409" lon="-118.3939572">
  <ele>-25.006</ele>
  <time>2026-09-01T01:14:31Z</time>
  <course>54.1</course>
  <speed>0.9800510190801294</speed>
  <fix>3d</fix>
</trkpt>
<trkpt lat="33.8106398" lon="-118.3939592">
  <ele>-24.4</ele>
  <time>2026-09-01T01:14:31Z</time>
  <course>53.31</course>
  <speed>0.99</speed>
  <fix>3d</fix>
</trkpt>
<trkpt lat="33.8106414" lon="-118.3939563">
  <ele>-25.006</ele>
  <time>2026-09-01T01:14:31Z</time>
  <course>54.15</course>
  <speed>0.9800510190801294</speed>
  <fix>3d</fix>
</trkpt>
<trkpt lat="33.8106408" lon="-118.3939574">
  <ele>-24.4</ele>
  <time>2026-09-01T01:14:31Z</time>
  <course>53.38</course>
  <speed>0.99</speed>
  <fix>3d</fix>
</trkpt>
<trkpt lat="33.8106419" lon="-118.3939555">
  <ele>-25.007</ele>
  <time>2026-09-01T01:14:31Z</time>
  <course>54.2</course>
  <speed>0.9800510190801294</speed>
  <fix>3d</fix>
</trkpt>
<trkpt lat="33.8106408" lon="-118.3939574">
  <ele>-24.4</ele>
  <time>2026-09-01T01:14:31Z</time>
  <course>53.38</course>
  <speed>0.99</speed>
  <fix>3d</fix>
</trkpt>
<trkpt lat="33.8106425" lon="-118.3939546">
  <ele>-25.006</ele>
  <time>2026-09-01T01:14:31Z</time>
  <course>54.23</course>
  <speed>0.9800510190801294</speed>
  <fix>3d</fix>
</trkpt>
<trkpt lat="33.8106419" lon="-118.3939557">
  <ele>-24.4</ele>
  <time>2026-09-01T01:14:31Z</time>
  <course>53.43</course>
  <speed>0.99</speed>
  <fix>3d</fix>
</trkpt>
<trkpt lat="33.810643" lon="-118.3939537">
  <ele>-25.004</ele>
  <time>2026-09-01T01:14:31Z</time>
  <course>54.25</course>
  <speed>0.9800510190801294</speed>
  <fix>3d</fix>
</trkpt>
<trkpt lat="33.8106419" lon="-118.3939557">
  <ele>-24.4</ele>
  <time>2026-09-01T01:14:31Z</time>
  <course>53.43</course>
  <speed>0.99</speed>
  <fix>3d</fix>
</trkpt>
<trkpt lat="33.8106435" lon="-118.3939529">
  <ele>-25.002</ele>
  <time>2026-09-01T01:14:31Z</time>
  <course>54.27</course>
  <speed>0.9800510190801294</speed>
  <fix>3d</fix>
</trkpt>
<trkpt lat="33.810643" lon="-118.393954">
  <ele>-24.4</ele>
  <time>2026-09-01T01:14:31Z</time>
  <course>53.43</course>
  <speed>0.99</speed>
  <fix>3d</fix>
</trkpt>
<trkpt lat="33.8106441" lon="-118.393952">
  <ele>-24.999</ele>
  <time>2026-09-01T01:14:31Z</time>
  <course>54.29</course>
  <speed>0.9800510190801294</speed>
  <fix>3d</fix>
</trkpt>
<trkpt lat="33.810643" lon="-118.393954">
  <ele>-24.4</ele>
  <time>2026-09-01T01:14:31Z</time>
  <course>53.43</course>
  <speed>0.99</speed>
  <fix>3d</fix>
</trkpt>
<trkpt lat="33.8106446" lon="-118.3939511">
  <ele>-24.997</ele>
  <time>2026-09-01T01:14:31Z</time>
  <course>54.32</course>
  <speed>0.9800510190801294</speed>
  <fix>3d</fix>
</trkpt>
<trkpt lat="33.810644" lon="-118.3939522">
  <ele>-24.39</ele>
  <time>2026-09-01T01:14:31Z</time>
  <course>53.47</course>
  <speed>0.99</speed>
  <fix>3d</fix>
</trkpt>
<trkpt lat="33.8106451" lon="-118.3939503">
  <ele>-24.997</ele>
  <time>2026-09-01T01:14:31Z</time>
  <course>54.34</course>
  <speed>0.9800510190801294</speed>
  <fix>3d</fix>
</trkpt>
<trkpt lat="33.810644" lon="-118.3939522">
  <ele>-24.39</ele>
  <time>2026-09-01T01:14:31Z</time>
  <course>53.47</course>
  <speed>0.99</speed>
  <fix>3d</fix>
</trkpt>
<trkpt lat="33.8106457" lon="-118.3939494">
  <ele>-24.997</ele>
  <time>2026-09-01T01:14:31Z</time>
  <course>54.35</course>
  <speed>0.9800510190801294</speed>
  <fix>3d</fix>
</trkpt>
<trkpt lat="33.8106451" lon="-118.3939505">
  <ele>-24.39</ele>
  <time>2026-09-01T01:14:31Z</time>
  <course>53.49</course>
  <speed>0.99</speed>
  <fix>3d</fix>
</trkpt>
<trkpt lat="33.8106462" lon="-118.3939485">
  <ele>-24.997</ele>
  <time>2026-09-01T01:14:31Z</time>
  <course>54.35</course>
  <speed>0.9800510190801294</speed>
  <fix>3d</fix>
</trkpt>
<trkpt lat="33.8106451" lon="-118.3939505">
  <ele>-24.39</ele>
  <time>2026-09-01T01:14:31Z</time>
  <course>53.49</course>
  <speed>0.99</speed>
  <fix>3d</fix>
</trkpt>
<trkpt lat="33.8106467" lon="-118.3939477">
  <ele>-24.999</ele>
  <time>2026-09-01T01:14:31Z</time>
  <course>54.35</course>
  <speed>0.9800510190801294</speed>
  <fix>3d</fix>
</trkpt>
<trkpt lat="33.8106461" lon="-118.3939488">
  <ele>-24.39</ele>
  <time>2026-09-01T01:14:31Z</time>
  <course>53.48</course>
  <speed>0.99</speed>
  <fix>3d</fix>
</trkpt>
<trkpt lat="33.8106473" lon="-118.3939468">
  <ele>-25.0</ele>
  <time>2026-09-01T01:14:31Z</time>
  <course>54.35</course>
  <speed>0.9800510190801294</speed>
  <fix>3d</fix>
</trkpt>
<trkpt lat="33.8106461" lon="-118.3939488">
  <ele>-24.39</ele>
  <time>2026-09-01T01:14:31Z</time>
  <course>53.48</course>
  <speed>0.99</speed>
  <fix>3d</fix>
</trkpt>
<trkpt lat="33.8106478" lon="-118.3939459">
  <ele>-25.002</ele>
  <time>2026-09-01T01:14:31Z</time>
  <course>54.33</course>
  <speed>0.9800510190801294</speed>
  <fix>3d</fix>
</trkpt>
<trkpt lat="33.8106472" lon="-118.393947">
  <ele>-24.4</ele>
  <time>2026-09-01T01:14:31Z</time>
  <course>53.47</course>
  <speed>0.99</speed>
  <fix>3d</fix>
</trkpt>
<trkpt lat="33.8106483" lon="-118.3939451">
  <ele>-25.003</ele>
  <time>2026-09-01T01:14:31Z</time>
  <course>54.32</course>
  <speed>0.9800510190801294</speed>
  <fix>3d</fix>
</trkpt>
<trkpt lat="33.8106472" lon="-118.393947">
  <ele>-24.4</ele>
  <time>2026-09-01T01:14:31Z</time>
  <course>53.47</course>
  <speed>0.99</speed>
  <fix>3d</fix>
</trkpt>
<trkpt lat="33.8106489" lon="-118.3939442">
  <ele>-25.004</ele>
  <time>2026-09-01T01:14:31Z</time>
  <course>54.3</course>
  <speed>0.9800510190801294</speed>
  <fix>3d</fix>
</trkpt>
<trkpt lat="33.8106483" lon="-118.3939453">
  <ele>-24.4</ele>
  <time>2026-09-01T01:14:31Z</time>
  <course>53.45</course>
  <speed>0.99</speed>
  <fix>3d</fix>
</trkpt>
<trkpt lat="33.8106494" lon="-118.3939433">
  <ele>-25.005</ele>
  <time>2026-09-01T01:14:31Z</time>
  <course>54.28</course>
  <speed>0.9800510190801294</speed>
  <fix>3d</fix>
</trkpt>
<trkpt lat="33.8106483" lon="-118.3939453">
  <ele>-24.4</ele>
  <time>2026-09-01T01:14:31Z</time>
  <course>53.45</course>
  <speed>0.99</speed>
  <fix>3d</fix>
</trkpt>
<trkpt lat="33.8106499" lon="-118.3939425">
  <ele>-25.005</ele>
  <time>2026-09-01T01:14:31Z</time>
  <course>54.27</course>
  <speed>0.9800510190801294</speed>
  <fix>3d</fix>
</trkpt>
<trkpt lat="33.8106494" lon="-118.3939436">
  <ele>-24.4</ele>
  <time>2026-09-01T01:14:31Z</time>
  <course>53.43</course>
  <speed>0.99</speed>
  <fix>3d</fix>
</trkpt>
<trkpt lat="33.8106505" lon="-118.3939416">
  <ele>-25.005</ele>
  <time>2026-09-01T01:14:31Z</time>
  <course>54.28</course>
  <speed>0.9800510190801294</speed>
  <fix>3d</fix>
</trkpt>
<trkpt lat="33.8106494" lon="-118.3939436">
  <ele>-24.4</ele>
  <time>2026-09-01T01:14:31Z</time>
  <course>53.43</course>
  <speed>0.99</speed>
  <fix>3d</fix>
</trkpt>
<trkpt lat="33.810651" lon="-118.3939407">
  <ele>-25.003</ele>
  <time>2026-09-01T01:14:31Z</time>
  <course>54.3</course>
  <speed>0.9800510190801294</speed>
  <fix>3d</fix>
</trkpt>
<trkpt lat="33.8106504" lon="-118.3939418">
  <ele>-24.4</ele>
  <time>2026-09-01T01:14:31Z</time>
  <course>53.45</course>
  <speed>0.99</speed>
  <fix>3d</fix>
</trkpt>
<trkpt lat="33.8106516" lon="-118.3939398">
  <ele>-25.002</ele>
  <time>2026-09-01T01:14:31Z</time>
  <course>54.33</course>
  <speed>0.9800510190801294</speed>
  <fix>3d</fix>
</trkpt>
<trkpt lat="33.8106504" lon="-118.3939418">
  <ele>-24.4</ele>
  <time>2026-09-01T01:14:31Z</time>
  <course>53.45</course>
  <speed>0.99</speed>
  <fix>3d</fix>
</trkpt>
<trkpt lat="33.8106521" lon="-118.393939">
  <ele>-25.0</ele>
  <time>2026-09-01T01:14:31Z</time>
  <course>54.34</course>
  <speed>0.9800510190801294</speed>
  <fix>3d</fix>
</trkpt>
<trkpt lat="33.8106515" lon="-118.3939401">
  <ele>-24.4</ele>
  <time>2026-09-01T01:14:31Z</time>
  <course>53.48</course>
  <speed>0.99</speed>
  <fix>3d</fix>
</trkpt>
<trkpt lat="33.8106526" lon="-118.3939381">
  <ele>-24.999</ele>
  <time>2026-09-01T01:14:31Z</time>
  <course>54.34</course>
  <speed>0.9800510190801294</speed>
  <fix>3d</fix>
</trkpt>
<trkpt lat="33.8106515" lon="-118.3939401">
  <ele>-24.4</ele>
  <time>2026-09-01T01:14:31Z</time>
  <course>53.48</course>
  <speed>0.99</speed>
  <fix>3d</fix>
</trkpt>
<trkpt lat="33.8106532" lon="-118.3939372">
  <ele>-25.0</ele>
  <time>2026-09-01T01:14:31Z</time>
  <course>54.33</course>
  <speed>0.9800510190801294</speed>
  <fix>3d</fix>
</trkpt>
<trkpt lat="33.8106526" lon="-118.3939383">
  <ele>-24.4</ele>
  <time>2026-09-01T01:14:31Z</time>
  <course>53.47</course>
  <speed>0.99</speed>
  <fix>3d</fix>
</trkpt>
<trkpt lat="33.8106537" lon="-118.3939364">
  <ele>-25.001</ele>
  <time>2026-09-01T01:14:31Z</time>
  <course>54.33</course>
  <speed>0.9800510190801294</speed>
  <fix>3d</fix>
</trkpt>
<trkpt lat="33.8106526" lon="-118.3939383">
  <ele>-24.4</ele>
  <time>2026-09-01T01:14:31Z</time>
  <course>53.47</course>
  <speed>0.99</speed>
  <fix>3d</fix>
</trkpt>
<trkpt lat="33.8106542" lon="-118.3939355">
  <ele>-25.003</ele>
  <time>2026-09-01T01:14:31Z</time>
  <course>54.34</course>
  <speed>0.9800510190801294</speed>
  <fix>3d</fix>
</trkpt>
<trkpt lat="33.8106537" lon="-118.3939366">
  <ele>-24.4</ele>
  <time>2026-09-01T01:14:31Z</time>
  <course>53.47</course>
  <speed>0.99</speed>
  <fix>3d</fix>
</trkpt>
<trkpt lat="33.8106548" lon="-118.3939346">
  <ele>-25.004</ele>
  <time>2026-09-01T01:14:31Z</time>
  <course>54.35</course>
  <speed>0.9800510190801294</speed>
  <fix>3d</fix>
</trkpt>
<trkpt lat="33.8106537" lon="-118.3939366">
  <ele>-24.4</ele>
  <time>2026-09-01T01:14:31Z</time>
  <course>53.47</course>
  <speed>0.99</speed>
  <fix>3d</fix>
</trkpt>
<trkpt lat="33.8106553" lon="-118.3939338">
  <ele>-25.004</ele>
  <time>2026-09-01T01:14:31Z</time>
  <course>54.37</course>
  <speed>0.9800510190801294</speed>
  <fix>3d</fix>
</trkpt>
<trkpt lat="33.8106547" lon="-118.3939349">
  <ele>-24.4</ele>
  <time>2026-09-01T01:14:31Z</time>
  <course>53.5</course>
  <speed>0.99</speed>
  <fix>3d</fix>
</trkpt>
<trkpt lat="33.8106558" lon="-118.3939329">
  <ele>-25.003</ele>
  <time>2026-09-01T01:14:31Z</time>
  <course>54.39</course>
  <speed>0.9800510190801294</speed>
  <fix>3d</fix>
</trkpt>
<trkpt lat="33.8106547" lon="-118.3939349">
  <ele>-24.4</ele>
  <time>2026-09-01T01:14:31Z</time>
  <course>53.5</course>
  <speed>0.99</speed>
  <fix>3d</fix>
</trkpt>
<trkpt lat="33.8106564" lon="-118.393932">
  <ele>-25.002</ele>
  <time>2026-09-01T01:14:31Z</time>
  <course>54.4</course>
  <speed>0.9800510190801294</speed>
  <fix>3d</fix>
</trkpt>
<trkpt lat="33.8106558" lon="-118.3939331">
  <ele>-24.4</ele>
  <time>2026-09-01T01:14:31Z</time>
  <course>53.54</course>
  <speed>0.99</speed>
  <fix>3d</fix>
</trkpt>
<trkpt lat="33.8106569" lon="-118.3939311">
  <ele>-25.003</ele>
  <time>2026-09-01T01:14:31Z</time>
  <course>54.4</course>
  <speed>0.9800510190801294</speed>
  <fix>3d</fix>
</trkpt>
<trkpt lat="33.8106558" lon="-118.3939331">
  <ele>-24.4</ele>
  <time>2026-09-01T01:14:31Z</time>
  <course>53.54</course>
  <speed>0.99</speed>
  <fix>3d</fix>
</trkpt>
<trkpt lat="33.8106574" lon="-118.3939303">
  <ele>-25.004</ele>
  <time>2026-09-01T01:14:31Z</time>
  <course>54.4</course>
  <speed>0.9800510190801294</speed>
  <fix>3d</fix>
</trkpt>
<trkpt lat="33.8106569" lon="-118.3939314">
  <ele>-24.4</ele>
  <time>2026-09-01T01:14:31Z</time>
  <course>53.54</course>
  <speed>0.99</speed>
  <fix>3d</fix>
</trkpt>
<trkpt lat="33.810658" lon="-118.3939294">
  <ele>-25.004</ele>
  <time>2026-09-01T01:14:31Z</time>
  <course>54.4</course>
  <speed>0.9741663102366043</speed>
  <fix>3d</fix>
</trkpt>
<trkpt lat="33.8106569" lon="-118.3939314">
  <ele>-24.4</ele>
  <time>2026-09-01T01:14:31Z</time>
  <course>53.54</course>
  <speed>0.99</speed>
  <fix>3d</fix>
</trkpt>
<trkpt lat="33.8106585" lon="-118.3939285">
  <ele>-25.003</ele>
  <time>2026-09-01T01:14:31Z</time>
  <course>54.4</course>
  <speed>0.9741663102366043</speed>
  <fix>3d</fix>
</trkpt>
<trkpt lat="33.8106579" lon="-118.3939297">
  <ele>-24.4</ele>
  <time>2026-09-01T01:14:31Z</time>
  <course>53.54</course>
  <speed>0.99</speed>
  <fix>3d</fix>
</trkpt>
<trkpt lat="33.810659" lon="-118.3939277">
  <ele>-25.004</ele>
  <time>2026-09-01T01:14:31Z</time>
  <course>54.41</course>
  <speed>0.9822932352408826</speed>
  <fix>3d</fix>
</trkpt>
<trkpt lat="33.8106579" lon="-118.3939297">
  <ele>-24.4</ele>
  <time>2026-09-01T01:14:31Z</time>
  <course>53.54</course>
  <speed>0.99</speed>
  <fix>3d</fix>
</trkpt>
<trkpt lat="33.8106596" lon="-118.3939268">
  <ele>-25.005</ele>
  <time>2026-09-01T01:14:31Z</time>
  <course>54.41</course>
  <speed>0.98812954616285</speed>
  <fix>3d</fix>
</trkpt>
<trkpt lat="33.810659" lon="-118.3939279">
  <ele>-24.4</ele>
  <time>2026-09-01T01:14:31Z</time>
  <course>53.56</course>
  <speed>0.99</speed>
  <fix>3d</fix>
</trkpt>
<trkpt lat="33.8106601" lon="-118.3939259">
  <ele>-25.004</ele>
  <time>2026-09-01T01:14:31Z</time>
  <course>54.41</course>
  <speed>0.9800510190801294</speed>
  <fix>3d</fix>
</trkpt>
<trkpt lat="33.810659" lon="-118.3939279">
  <ele>-24.4</ele>
  <time>2026-09-01T01:14:31Z</time>
  <course>53.56</course>
  <speed>0.99</speed>
  <fix>3d</fix>
</trkpt>
<trkpt lat="33.8106606" lon="-118.3939251">
  <ele>-25.005</ele>
  <time>2026-09-01T01:14:31Z</time>
  <course>54.41</course>
  <speed>0.98812954616285</speed>
  <fix>3d</fix>
</trkpt>
<trkpt lat="33.8106601" lon="-118.3939262">
  <ele>-24.4</ele>
  <time>2026-09-01T01:14:31Z</time>
  <course>53.55</course>
  <speed>0.99</speed>
  <fix>3d</fix>
</trkpt>
<trkpt lat="33.8106612" lon="-118.3939242">
  <ele>-25.005</ele>
  <time>2026-09-01T01:14:31Z</time>
  <course>54.41</course>
  <speed>0.98812954616285</speed>
  <fix>3d</fix>
</trkpt>
<trkpt lat="33.8106601" lon="-118.3939262">
  <ele>-24.4</ele>
  <time>2026-09-01T01:14:31Z</time>
  <course>53.55</course>
  <speed>0.99</speed>
  <fix>3d</fix>
</trkpt>
<trkpt lat="33.8106617" lon="-118.3939233">
  <ele>-25.006</ele>
  <time>2026-09-01T01:14:31Z</time>
  <course>54.41</course>
  <speed>0.98812954616285</speed>
  <fix>3d</fix>
</trkpt>
<trkpt lat="33.8106611" lon="-118.3939244">
  <ele>-24.4</ele>
  <time>2026-09-01T01:14:31Z</time>
  <course>53.54</course>
  <speed>0.99</speed>
  <fix>3d</fix>
</trkpt>
<trkpt lat="33.8106622" lon="-118.3939224">
  <ele>-25.006</ele>
  <time>2026-09-01T01:14:31Z</time>
  <course>54.42</course>
  <speed>0.98812954616285</speed>
  <fix>3d</fix>
</trkpt>
<trkpt lat="33.8106611" lon="-118.3939244">
  <ele>-24.4</ele>
  <time>2026-09-01T01:14:31Z</time>
  <course>53.54</course>
  <speed>0.99</speed>
  <fix>3d</fix>
</trkpt>
<trkpt lat="33.8106628" lon="-118.3939216">
  <ele>-25.007</ele>
  <time>2026-09-01T01:14:31Z</time>
  <course>54.41</course>
  <speed>0.9800510190801294</speed>
  <fix>3d</fix>
</trkpt>
<trkpt lat="33.8106622" lon="-118.3939227">
  <ele>-24.4</ele>
  <time>2026-09-01T01:14:31Z</time>
  <course>53.53</course>
  <speed>0.99</speed>
  <fix>3d</fix>
</trkpt>
<trkpt lat="33.8106633" lon="-118.3939207">
  <ele>-25.006</ele>
  <time>2026-09-01T01:14:31Z</time>
  <course>54.4</course>
  <speed>0.9741663102366043</speed>
  <fix>3d</fix>
</trkpt>
<trkpt lat="33.8106622" lon="-118.3939227">
  <ele>-24.4</ele>
  <time>2026-09-01T01:14:31Z</time>
  <course>53.53</course>
  <speed>0.99</speed>
  <fix>3d</fix>
</trkpt>
<trkpt lat="33.8106639" lon="-118.3939198">
  <ele>-25.004</ele>
  <time>2026-09-01T01:14:31Z</time>
  <course>54.38</course>
  <speed>0.9800510190801294</speed>
  <fix>3d</fix>
</trkpt>
<trkpt lat="33.8106633" lon="-118.393921">
  <ele>-24.39</ele>
  <time>2026-09-01T01:14:31Z</time>
  <course>53.49</course>
  <speed>0.99</speed>
  <fix>3d</fix>
</trkpt>
<trkpt lat="33.8106644" lon="-118.393919">
  <ele>-25.002</ele>
  <time>2026-09-01T01:14:31Z</time>
  <course>54.36</course>
  <speed>0.9741663102366043</speed>
  <fix>3d</fix>
</trkpt>
<trkpt lat="33.8106633" lon="-118.393921">
  <ele>-24.39</ele>
  <time>2026-09-01T01:14:31Z</time>
  <course>53.49</course>
  <speed>0.99</speed>
  <fix>3d</fix>
</trkpt>
<trkpt lat="33.8106649" lon="-118.3939181">
  <ele>-24.999</ele>
  <time>2026-09-01T01:14:31Z</time>
  <course>54.37</course>
  <speed>0.9741663102366043</speed>
  <fix>3d</fix>
</trkpt>
<trkpt lat="33.8106643" lon="-118.3939192">
  <ele>-24.39</ele>
  <time>2026-09-01T01:14:31Z</time>
  <course>53.49</course>
  <speed>0.99</speed>
  <fix>3d</fix>
</trkpt>
<trkpt lat="33.8106655" lon="-118.3939172">
  <ele>-24.997</ele>
  <time>2026-09-01T01:14:31Z</time>
  <course>54.38</course>
  <speed>0.9800510190801294</speed>
  <fix>3d</fix>
</trkpt>
<trkpt lat="33.8106643" lon="-118.3939192">
  <ele>-24.39</ele>
  <time>2026-09-01T01:14:31Z</time>
  <course>53.49</course>
  <speed>0.99</speed>
  <fix>3d</fix>
</trkpt>
<trkpt lat="33.810666" lon="-118.3939164">
  <ele>-24.997</ele>
  <time>2026-09-01T01:14:31Z</time>
  <course>54.38</course>
  <speed>0.9800510190801294</speed>
  <fix>3d</fix>
</trkpt>
<trkpt lat="33.8106654" lon="-118.3939175">
  <ele>-24.39</ele>
  <time>2026-09-01T01:14:31Z</time>
  <course>53.49</course>
  <speed>0.99</speed>
  <fix>3d</fix>
</trkpt>
<trkpt lat="33.8106665" lon="-118.3939155">
  <ele>-24.996</ele>
  <time>2026-09-01T01:14:31Z</time>
  <course>54.36</course>
  <speed>0.9800510190801294</speed>
  <fix>3d</fix>
</trkpt>
<trkpt lat="33.8106654" lon="-118.3939175">
  <ele>-24.39</ele>
  <time>2026-09-01T01:14:31Z</time>
  <course>53.49</course>
  <speed>0.99</speed>
  <fix>3d</fix>
</trkpt>
<trkpt lat="33.8106671" lon="-118.3939146">
  <ele>-24.997</ele>
  <time>2026-09-01T01:14:31Z</time>
  <course>54.35</course>
  <speed>0.9800510190801294</speed>
  <fix>3d</fix>
</trkpt>
<trkpt lat="33.8106664" lon="-118.3939158">
  <ele>-24.39</ele>
  <time>2026-09-01T01:14:31Z</time>
  <course>53.46</course>
  <speed>0.99</speed>
  <fix>3d</fix>
</trkpt>
<trkpt lat="33.8106676" lon="-118.3939137">
  <ele>-24.997</ele>
  <time>2026-09-01T01:14:31Z</time>
  <course>54.34</course>
  <speed>0.98812954616285</speed>
  <fix>3d</fix>
</trkpt>
<trkpt lat="33.8106664" lon="-118.3939158">
  <ele>-24.39</ele>
  <time>2026-09-01T01:14:31Z</time>
  <course>53.46</course>
  <speed>0.99</speed>
  <fix>3d</fix>
</trkpt>
<trkpt lat="33.8106681" lon="-118.3939129">
  <ele>-24.998</ele>
  <time>2026-09-01T01:14:31Z</time>
  <course>54.32</course>
  <speed>0.98812954616285</speed>
  <fix>3d</fix>
</trkpt>
<trkpt lat="33.8106675" lon="-118.393914">
  <ele>-24.39</ele>
  <time>2026-09-01T01:14:31Z</time>
  <course>53.43</course>
  <speed>1.0</speed>
  <fix>3d</fix>
</trkpt>
<trkpt lat="33.8106687" lon="-118.393912">
  <ele>-24.998</ele>
  <time>2026-09-01T01:14:31Z</time>
  <course>54.31</course>
  <speed>0.98812954616285</speed>
  <fix>3d</fix>
</trkpt>
<trkpt lat="33.8106675" lon="-118.393914">
  <ele>-24.39</ele>
  <time>2026-09-01T01:14:31Z</time>
  <course>53.43</course>
  <speed>1.0</speed>
  <fix>3d</fix>
</trkpt>
<trkpt lat="33.8106692" lon="-118.3939111">
  <ele>-24.997</ele>
  <time>2026-09-01T01:14:31Z</time>
  <course>54.29</course>
  <speed>0.98812954616285</speed>
  <fix>3d</fix>
</trkpt>
<trkpt lat="33.8106686" lon="-118.3939123">
  <ele>-24.39</ele>
  <time>2026-09-01T01:14:31Z</time>
  <course>53.39</course>
  <speed>1.0</speed>
  <fix>3d</fix>
</trkpt>
<trkpt lat="33.8106697" lon="-118.3939103">
  <ele>-24.997</ele>
  <time>2026-09-01T01:14:31Z</time>
  <course>54.27</course>
  <speed>0.98812954616285</speed>
  <fix>3d</fix>
</trkpt>
<trkpt lat="33.8106686" lon="-118.3939123">
  <ele>-24.39</ele>
  <time>2026-09-01T01:14:31Z</time>
  <course>53.39</course>
  <speed>1.0</speed>
  <fix>3d</fix>
</trkpt>
<trkpt lat="33.8106703" lon="-118.3939094">
  <ele>-24.996</ele>
  <time>2026-09-01T01:14:31Z</time>
  <course>54.27</course>
  <speed>0.98812954616285</speed>
  <fix>3d</fix>
</trkpt>
<trkpt lat="33.8106697" lon="-118.3939105">
  <ele>-24.39</ele>
  <time>2026-09-01T01:14:31Z</time>
  <course>53.37</course>
  <speed>1.0</speed>
  <fix>3d</fix>
</trkpt>
<trkpt lat="33.8106708" lon="-118.3939085">
  <ele>-24.996</ele>
  <time>2026-09-01T01:14:31Z</time>
  <course>54.26</course>
  <speed>0.98812954616285</speed>
  <fix>3d</fix>
</trkpt>
<trkpt lat="33.8106697" lon="-118.3939105">
  <ele>-24.39</ele>
  <time>2026-09-01T01:14:31Z</time>
  <course>53.37</course>
  <speed>1.0</speed>
  <fix>3d</fix>
</trkpt>
<trkpt lat="33.8106713" lon="-118.3939077">
  <ele>-24.998</ele>
  <time>2026-09-01T01:14:31Z</time>
  <course>54.27</course>
  <speed>0.98812954616285</speed>
  <fix>3d</fix>
</trkpt>
<trkpt lat="33.8106707" lon="-118.3939088">
  <ele>-24.39</ele>
  <time>2026-09-01T01:14:31Z</time>
  <course>53.37</course>
  <speed>1.0</speed>
  <fix>3d</fix>
</trkpt>
<trkpt lat="33.8106719" lon="-118.3939068">
  <ele>-25.0</ele>
  <time>2026-09-01T01:14:31Z</time>
  <course>54.27</course>
  <speed>0.98812954616285</speed>
  <fix>3d</fix>
</trkpt>
<trkpt lat="33.8106707" lon="-118.3939088">
  <ele>-24.39</ele>
  <time>2026-09-01T01:14:31Z</time>
  <course>53.37</course>
  <speed>1.0</speed>
  <fix>3d</fix>
</trkpt>
<trkpt lat="33.8106724" lon="-118.3939059">
  <ele>-25.003</ele>
  <time>2026-09-01T01:14:31Z</time>
  <course>54.27</course>
  <speed>0.98812954616285</speed>
  <fix>3d</fix>
</trkpt>
<trkpt lat="33.8106718" lon="-118.3939071">
  <ele>-24.4</ele>
  <time>2026-09-01T01:14:31Z</time>
  <course>53.37</course>
  <speed>1.0</speed>
  <fix>3d</fix>
</trkpt>
<trkpt lat="33.8106729" lon="-118.393905">
  <ele>-25.005</ele>
  <time>2026-09-01T01:14:31Z</time>
  <course>54.27</course>
  <speed>0.98812954616285</speed>
  <fix>3d</fix>
</trkpt>
<trkpt lat="33.8106718" lon="-118.3939071">
  <ele>-24.4</ele>
  <time>2026-09-01T01:14:31Z</time>
  <course>53.37</course>
  <speed>1.0</speed>
  <fix>3d</fix>
</trkpt>
<trkpt lat="33.8106735" lon="-118.3939042">
  <ele>-25.007</ele>
  <time>2026-09-01T01:14:31Z</time>
  <course>54.27</course>
  <speed>0.98812954616285</speed>
  <fix>3d</fix>
</trkpt>
<trkpt lat="33.8106729" lon="-118.3939053">
  <ele>-24.4</ele>
  <time>2026-09-01T01:14:31Z</time>
  <course>53.37</course>
  <speed>1.0</speed>
  <fix>3d</fix>
</trkpt>
<trkpt lat="33.810674" lon="-118.3939033">
  <ele>-25.009</ele>
  <time>2026-09-01T01:14:31Z</time>
  <course>54.27</course>
  <speed>0.98812954616285</speed>
  <fix>3d</fix>
</trkpt>
<trkpt lat="33.8106729" lon="-118.3939053">
  <ele>-24.4</ele>
  <time>2026-09-01T01:14:31Z</time>
  <course>53.37</course>
  <speed>1.0</speed>
  <fix>3d</fix>
</trkpt>
<trkpt lat="33.8106745" lon="-118.3939024">
  <ele>-25.009</ele>
  <time>2026-09-01T01:14:31Z</time>
  <course>54.28</course>
  <speed>0.98812954616285</speed>
  <fix>3d</fix>
</trkpt>
<trkpt lat="33.810674" lon="-118.3939035">
  <ele>-24.4</ele>
  <time>2026-09-01T01:14:31Z</time>
  <course>53.37</course>
  <speed>1.0</speed>
  <fix>3d</fix>
</trkpt>
<trkpt lat="33.8106751" lon="-118.3939016">
  <ele>-25.008</ele>
  <time>2026-09-01T01:14:31Z</time>
  <course>54.29</course>
  <speed>0.9822932352408826</speed>
  <fix>3d</fix>
</trkpt>
<trkpt lat="33.810674" lon="-118.3939035">
  <ele>-24.4</ele>
  <time>2026-09-01T01:14:31Z</time>
  <course>53.37</course>
  <speed>1.0</speed>
  <fix>3d</fix>
</trkpt>
<trkpt lat="33.8106756" lon="-118.3939007">
  <ele>-25.007</ele>
  <time>2026-09-01T01:14:31Z</time>
  <course>54.3</course>
  <speed>0.9741663102366043</speed>
  <fix>3d</fix>
</trkpt>
<trkpt lat="33.8106751" lon="-118.3939018">
  <ele>-24.4</ele>
  <time>2026-09-01T01:14:31Z</time>
  <course>53.36</course>
  <speed>1.0</speed>
  <fix>3d</fix>
</trkpt>
<trkpt lat="33.8106762" lon="-118.3938998">
  <ele>-25.005</ele>
  <time>2026-09-01T01:14:31Z</time>
  <course>54.31</course>
  <speed>0.9741663102366043</speed>
  <fix>3d</fix>
</trkpt>
<trkpt lat="33.8106751" lon="-118.3939018">
  <ele>-24.4</ele>
  <time>2026-09-01T01:14:31Z</time>
  <course>53.36</course>
  <speed>1.0</speed>
  <fix>3d</fix>
</trkpt>
<trkpt lat="33.8106767" lon="-118.3938989">
  <ele>-25.004</ele>
  <time>2026-09-01T01:14:31Z</time>
  <course>54.33</course>
  <speed>0.9741663102366043</speed>
  <fix>3d</fix>
</trkpt>
<trkpt lat="33.8106761" lon="-118.3939001">
  <ele>-24.39</ele>
  <time>2026-09-01T01:14:31Z</time>
  <course>53.38</course>
  <speed>1.0</speed>
  <fix>3d</fix>
</trkpt>
<trkpt lat="33.8106772" lon="-118.3938981">
  <ele>-25.003</ele>
  <time>2026-09-01T01:14:31Z</time>
  <course>54.35</course>
  <speed>0.9741663102366043</speed>
  <fix>3d</fix>
</trkpt>
<trkpt lat="33.8106761" lon="-118.3939001">
  <ele>-24.39</ele>
  <time>2026-09-01T01:14:31Z</time>
  <course>53.38</course>
  <speed>1.0</speed>
  <fix>3d</fix>
</trkpt>
<trkpt lat="33.8106778" lon="-118.3938972">
  <ele>-25.0</ele>
  <time>2026-09-01T01:14:31Z</time>
  <course>54.37</course>
  <speed>0.9822932352408826</speed>
  <fix>3d</fix>
</trkpt>
<trkpt lat="33.8106772" lon="-118.3938984">
  <ele>-24.39</ele>
  <time>2026-09-01T01:14:31Z</time>
  <course>53.4</course>
  <speed>1.0</speed>
  <fix>3d</fix>
</trkpt>
<trkpt lat="33.8106783" lon="-118.3938963">
  <ele>-24.997</ele>
  <time>2026-09-01T01:14:31Z</time>
  <course>54.39</course>
  <speed>0.9822932352408826</speed>
  <fix>3d</fix>
</trkpt>
<trkpt lat="33.8106772" lon="-118.3938984">
  <ele>-24.39</ele>
  <time>2026-09-01T01:14:31Z</time>
  <course>53.4</course>
  <speed>1.0</speed>
  <fix>3d</fix>
</trkpt>
<trkpt lat="33.8106788" lon="-118.3938955">
  <ele>-24.996</ele>
  <time>2026-09-01T01:14:31Z</time>
  <course>54.41</course>
  <speed>0.9822932352408826</speed>
  <fix>3d</fix>
</trkpt>
<trkpt lat="33.8106783" lon="-118.3938966">
  <ele>-24.39</ele>
  <time>2026-09-01T01:14:31Z</time>
  <course>53.42</course>
  <speed>1.0</speed>
  <fix>3d</fix>
</trkpt>
<trkpt lat="33.8106794" lon="-118.3938946">
  <ele>-24.995</ele>
  <time>2026-09-01T01:14:31Z</time>
  <course>54.43</course>
  <speed>0.9822932352408826</speed>
  <fix>3d</fix>
</trkpt>
<trkpt lat="33.8106783" lon="-118.3938966">
  <ele>-24.39</ele>
  <time>2026-09-01T01:14:31Z</time>
  <course>53.42</course>
  <speed>1.0</speed>
  <fix>3d</fix>
</trkpt>
<trkpt lat="33.8106799" lon="-118.3938937">
  <ele>-24.996</ele>
  <time>2026-09-01T01:14:31Z</time>
  <course>54.46</course>
  <speed>0.9822932352408826</speed>
  <fix>3d</fix>
</trkpt>
<trkpt lat="33.8106793" lon="-118.3938949">
  <ele>-24.39</ele>
  <time>2026-09-01T01:14:31Z</time>
  <course>53.45</course>
  <speed>1.0</speed>
  <fix>3d</fix>
</trkpt>
<trkpt lat="33.8106804" lon="-118.3938929">
  <ele>-24.997</ele>
  <time>2026-09-01T01:14:31Z</time>
  <course>54.47</course>
  <speed>0.9822932352408826</speed>
  <fix>3d</fix>
</trkpt>
<trkpt lat="33.8106793" lon="-118.3938949">
  <ele>-24.39</ele>
  <time>2026-09-01T01:14:31Z</time>
  <course>53.45</course>
  <speed>1.0</speed>
  <fix>3d</fix>
</trkpt>
<trkpt lat="33.810681" lon="-118.393892">
  <ele>-24.998</ele>
  <time>2026-09-01T01:14:31Z</time>
  <course>54.48</course>
  <speed>0.9822932352408826</speed>
  <fix>3d</fix>
</trkpt>
<trkpt lat="33.8106804" lon="-118.3938931">
  <ele>-24.39</ele>
  <time>2026-09-01T01:14:31Z</time>
  <course>53.46</course>
  <speed>1.0</speed>
  <fix>3d</fix>
</trkpt>
<trkpt lat="33.8106815" lon="-118.3938911">
  <ele>-25.0</ele>
  <time>2026-09-01T01:14:31Z</time>
  <course>54.48</course>
  <speed>0.9822932352408826</speed>
  <fix>3d</fix>
</trkpt>
<trkpt lat="33.8106804" lon="-118.3938931">
  <ele>-24.39</ele>
  <time>2026-09-01T01:14:31Z</time>
  <course>53.46</course>
  <speed>1.0</speed>
  <fix>3d</fix>
</trkpt>
<trkpt lat="33.810682" lon="-118.3938902">
  <ele>-25.001</ele>
  <time>2026-09-01T01:14:31Z</time>
  <course>54.48</course>
  <speed>0.9822932352408826</speed>
  <fix>3d</fix>
</trkpt>
<trkpt lat="33.8106815" lon="-118.3938914">
  <ele>-24.39</ele>
  <time>2026-09-01T01:14:31Z</time>
  <course>53.43</course>
  <speed>1.0</speed>
  <fix>3d</fix>
</trkpt>
<trkpt lat="33.8106826" lon="-118.3938894">
  <ele>-25.001</ele>
  <time>2026-09-01T01:14:31Z</time>
  <course>54.47</course>
  <speed>0.9822932352408826</speed>
  <fix>3d</fix>
</trkpt>
<trkpt lat="33.8106815" lon="-118.3938914">
  <ele>-24.39</ele>
  <time>2026-09-01T01:14:31Z</time>
  <course>53.43</course>
  <speed>1.0</speed>
  <fix>3d</fix>
</trkpt>
<trkpt lat="33.8106831" lon="-118.3938885">
  <ele>-25.0</ele>
  <time>2026-09-01T01:14:31Z</time>
  <course>54.47</course>
  <speed>0.9822932352408826</speed>
  <fix>3d</fix>
</trkpt>
<trkpt lat="33.8106826" lon="-118.3938897">
  <ele>-24.39</ele>
  <time>2026-09-01T01:14:31Z</time>
  <course>53.42</course>
  <speed>1.0</speed>
  <fix>3d</fix>
</trkpt>
<trkpt lat="33.8106837" lon="-118.3938876">
  <ele>-24.998</ele>
  <time>2026-09-01T01:14:31Z</time>
  <course>54.49</course>
  <speed>0.9822932352408826</speed>
  <fix>3d</fix>
</trkpt>
<trkpt lat="33.8106826" lon="-118.3938897">
  <ele>-24.39</ele>
  <time>2026-09-01T01:14:31Z</time>
  <course>53.42</course>
  <speed>1.0</speed>
  <fix>3d</fix>
</trkpt>
<trkpt lat="33.8106842" lon="-118.3938868">
  <ele>-24.997</ele>
  <time>2026-09-01T01:14:31Z</time>
  <course>54.52</course>
  <speed>0.9822932352408826</speed>
  <fix>3d</fix>
</trkpt>
<trkpt lat="33.8106836" lon="-118.3938879">
  <ele>-24.39</ele>
  <time>2026-09-01T01:14:31Z</time>
  <course>53.47</course>
  <speed>1.0</speed>
  <fix>3d</fix>
</trkpt>
<trkpt lat="33.8106847" lon="-118.3938859">
  <ele>-24.997</ele>
  <time>2026-09-01T01:14:31Z</time>
  <course>54.54</course>
  <speed>0.9822932352408826</speed>
  <fix>3d</fix>
</trkpt>
<trkpt lat="33.8106836" lon="-118.3938879">
  <ele>-24.39</ele>
  <time>2026-09-01T01:14:31Z</time>
  <course>53.47</course>
  <speed>1.0</speed>
  <fix>3d</fix>
</trkpt>
<trkpt lat="33.8106853" lon="-118.393885">
  <ele>-24.997</ele>
  <time>2026-09-01T01:14:31Z</time>
  <course>54.55</course>
  <speed>0.9822932352408826</speed>
  <fix>3d</fix>
</trkpt>
<trkpt lat="33.8106847" lon="-118.3938862">
  <ele>-24.39</ele>
  <time>2026-09-01T01:14:31Z</time>
  <course>53.51</course>
  <speed>1.0</speed>
  <fix>3d</fix>
</trkpt>
<trkpt lat="33.8106858" lon="-118.3938842">
  <ele>-24.997</ele>
  <time>2026-09-01T01:14:31Z</time>
  <course>54.55</course>
  <speed>0.9822932352408826</speed>
  <fix>3d</fix>
</trkpt>
<trkpt lat="33.8106847" lon="-118.3938862">
  <ele>-24.39</ele>
  <time>2026-09-01T01:14:31Z</time>
  <course>53.51</course>
  <speed>1.0</speed>
  <fix>3d</fix>
</trkpt>
<trkpt lat="33.8106863" lon="-118.3938833">
  <ele>-24.999</ele>
  <time>2026-09-01T01:14:31Z</time>
  <course>54.55</course>
  <speed>0.9822932352408826</speed>
  <fix>3d</fix>
</trkpt>
<trkpt lat="33.8106858" lon="-118.3938844">
  <ele>-24.39</ele>
  <time>2026-09-01T01:14:31Z</time>
  <course>53.5</course>
  <speed>1.0</speed>
  <fix>3d</fix>
</trkpt>
<trkpt lat="33.8106869" lon="-118.3938824">
  <ele>-25.0</ele>
  <time>2026-09-01T01:14:31Z</time>
  <course>54.55</course>
  <speed>0.9822932352408826</speed>
  <fix>3d</fix>
</trkpt>
<trkpt lat="33.8106858" lon="-118.3938844">
  <ele>-24.39</ele>
  <time>2026-09-01T01:14:31Z</time>
  <course>53.5</course>
  <speed>1.0</speed>
  <fix>3d</fix>
</trkpt>
<trkpt lat="33.8106874" lon="-118.3938815">
  <ele>-25.001</ele>
  <time>2026-09-01T01:14:31Z</time>
  <course>54.55</course>
  <speed>0.9741663102366043</speed>
  <fix>3d</fix>
</trkpt>
<trkpt lat="33.8106868" lon="-118.3938827">
  <ele>-24.4</ele>
  <time>2026-09-01T01:14:31Z</time>
  <course>53.49</course>
  <speed>1.0</speed>
  <fix>3d</fix>
</trkpt>
<trkpt lat="33.8106879" lon="-118.3938807">
  <ele>-25.001</ele>
  <time>2026-09-01T01:14:31Z</time>
  <course>54.55</course>
  <speed>0.9741663102366043</speed>
  <fix>3d</fix>
</trkpt>
<trkpt lat="33.8106868" lon="-118.3938827">
  <ele>-24.4</ele>
  <time>2026-09-01T01:14:31Z</time>
  <course>53.49</course>
  <speed>1.0</speed>
  <fix>3d</fix>
</trkpt>
<trkpt lat="33.8106885" lon="-118.3938798">
  <ele>-25.001</ele>
  <time>2026-09-01T01:14:31Z</time>
  <course>54.54</course>
  <speed>0.9822932352408826</speed>
  <fix>3d</fix>
</trkpt>
<trkpt lat="33.8106879" lon="-118.393881">
  <ele>-24.4</ele>
  <time>2026-09-01T01:14:31Z</time>
  <course>53.47</course>
  <speed>1.0</speed>
  <fix>3d</fix>
</trkpt>
<trkpt lat="33.810689" lon="-118.3938789">
  <ele>-25.0</ele>
  <time>2026-09-01T01:14:31Z</time>
  <course>54.53</course>
  <speed>0.9822932352408826</speed>
  <fix>3d</fix>
</trkpt>
<trkpt lat="33.8106879" lon="-118.393881">
  <ele>-24.4</ele>
  <time>2026-09-01T01:14:31Z</time>
  <course>53.47</course>
  <speed>1.0</speed>
  <fix>3d</fix>
</trkpt>
<trkpt lat="33.8106895" lon="-118.3938781">
  <ele>-25.0</ele>
  <time>2026-09-01T01:14:31Z</time>
  <course>54.52</course>
  <speed>0.9822932352408826</speed>
  <fix>3d</fix>
</trkpt>
<trkpt lat="33.810689" lon="-118.3938792">
  <ele>-24.4</ele>
  <time>2026-09-01T01:14:31Z</time>
  <course>53.45</course>
  <speed>1.0</speed>
  <fix>3d</fix>
</trkpt>
<trkpt lat="33.8106901" lon="-118.3938772">
  <ele>-25.0</ele>
  <time>2026-09-01T01:14:31Z</time>
  <course>54.52</course>
  <speed>0.9822932352408826</speed>
  <fix>3d</fix>
</trkpt>
<trkpt lat="33.810689" lon="-118.3938792">
  <ele>-24.4</ele>
  <time>2026-09-01T01:14:31Z</time>
  <course>53.45</course>
  <speed>1.0</speed>
  <fix>3d</fix>
</trkpt>
<trkpt lat="33.8106906" lon="-118.3938763">
  <ele>-25.0</ele>
  <time>2026-09-01T01:14:31Z</time>
  <course>54.53</course>
  <speed>0.9822932352408826</speed>
  <fix>3d</fix>
</trkpt>
<trkpt lat="33.8106901" lon="-118.3938775">
  <ele>-24.4</ele>
  <time>2026-09-01T01:14:31Z</time>
  <course>53.46</course>
  <speed>1.0</speed>
  <fix>3d</fix>
</trkpt>
<trkpt lat="33.8106911" lon="-118.3938755">
  <ele>-25.0</ele>
  <time>2026-09-01T01:14:31Z</time>
  <course>54.54</course>
  <speed>0.9822932352408826</speed>
  <fix>3d</fix>
</trkpt>
<trkpt lat="33.8106901" lon="-118.3938775">
  <ele>-24.4</ele>
  <time>2026-09-01T01:14:31Z</time>
  <course>53.46</course>
  <speed>1.0</speed>
  <fix>3d</fix>
</trkpt>
<trkpt lat="33.8106917" lon="-118.3938746">
  <ele>-25.0</ele>
  <time>2026-09-01T01:14:31Z</time>
  <course>54.55</course>
  <speed>0.9822932352408826</speed>
  <fix>3d</fix>
</trkpt>
<trkpt lat="33.8106911" lon="-118.3938757">
  <ele>-24.4</ele>
  <time>2026-09-01T01:14:31Z</time>
  <course>53.5</course>
  <speed>1.0</speed>
  <fix>3d</fix>
</trkpt>
<trkpt lat="33.8106922" lon="-118.3938737">
  <ele>-24.999</ele>
  <time>2026-09-01T01:14:31Z</time>
  <course>54.56</course>
  <speed>0.9822932352408826</speed>
  <fix>3d</fix>
</trkpt>
<trkpt lat="33.8106911" lon="-118.3938757">
  <ele>-24.4</ele>
  <time>2026-09-01T01:14:31Z</time>
  <course>53.5</course>
  <speed>1.0</speed>
  <fix>3d</fix>
</trkpt>
<trkpt lat="33.8106927" lon="-118.3938728">
  <ele>-24.999</ele>
  <time>2026-09-01T01:14:31Z</time>
  <course>54.56</course>
  <speed>0.9822932352408826</speed>
  <fix>3d</fix>
</trkpt>
<trkpt lat="33.8106922" lon="-118.393874">
  <ele>-24.4</ele>
  <time>2026-09-01T01:14:31Z</time>
  <course>53.52</course>
  <speed>1.0</speed>
  <fix>3d</fix>
</trkpt>
<trkpt lat="33.8106933" lon="-118.393872">
  <ele>-25.0</ele>
  <time>2026-09-01T01:14:31Z</time>
  <course>54.55</course>
  <speed>0.9822932352408826</speed>
  <fix>3d</fix>
</trkpt>
<trkpt lat="33.8106922" lon="-118.393874">
  <ele>-24.4</ele>
  <time>2026-09-01T01:14:31Z</time>
  <course>53.52</course>
  <speed>1.0</speed>
  <fix>3d</fix>
</trkpt>
<trkpt lat="33.8106938" lon="-118.3938711">
  <ele>-25.001</ele>
  <time>2026-09-01T01:14:31Z</time>
  <course>54.54</course>
  <speed>0.9822932352408826</speed>
  <fix>3d</fix>
</trkpt>
<trkpt lat="33.8106932" lon="-118.3938722">
  <ele>-24.4</ele>
  <time>2026-09-01T01:14:31Z</time>
  <course>53.49</course>
  <speed>1.0</speed>
  <fix>3d</fix>
</trkpt>
<trkpt lat="33.8106943" lon="-118.3938702">
  <ele>-25.003</ele>
  <time>2026-09-01T01:14:31Z</time>
  <course>54.53</course>
  <speed>0.9822932352408826</speed>
  <fix>3d</fix>
</trkpt>
<trkpt lat="33.8106932" lon="-118.3938722">
  <ele>-24.4</ele>
  <time>2026-09-01T01:14:31Z</time>
  <course>53.49</course>
  <speed>1.0</speed>
  <fix>3d</fix>
</trkpt>
<trkpt lat="33.8106949" lon="-118.3938694">
  <ele>-25.004</ele>
  <time>2026-09-01T01:14:31Z</time>
  <course>54.5</course>
  <speed>0.9822932352408826</speed>
  <fix>3d</fix>
</trkpt>
<trkpt lat="33.8106943" lon="-118.3938705">
  <ele>-24.4</ele>
  <time>2026-09-01T01:14:31Z</time>
  <course>53.44</course>
  <speed>1.0</speed>
  <fix>3d</fix>
</trkpt>
<trkpt lat="33.8106954" lon="-118.3938685">
  <ele>-25.005</ele>
  <time>2026-09-01T01:14:31Z</time>
  <course>54.47</course>
  <speed>0.9822932352408826</speed>
  <fix>3d</fix>
</trkpt>
<trkpt lat="33.8106943" lon="-118.3938705">
  <ele>-24.4</ele>
  <time>2026-09-01T01:14:31Z</time>
  <course>53.44</course>
  <speed>1.0</speed>
  <fix>3d</fix>
</trkpt>
<trkpt lat="33.8106959" lon="-118.3938676">
  <ele>-25.005</ele>
  <time>2026-09-01T01:14:31Z</time>
  <course>54.44</course>
  <speed>0.9822932352408826</speed>
  <fix>3d</fix>
</trkpt>
<trkpt lat="33.8106954" lon="-118.3938688">
  <ele>-24.4</ele>
  <time>2026-09-01T01:14:31Z</time>
  <course>53.4</course>
  <speed>1.0</speed>
  <fix>3d</fix>
</trkpt>
<trkpt lat="33.8106965" lon="-118.3938668">
  <ele>-25.005</ele>
  <time>2026-09-01T01:14:31Z</time>
  <course>54.41</course>
  <speed>0.9822932352408826</speed>
  <fix>3d</fix>
</trkpt>
<trkpt lat="33.8106954" lon="-118.3938688">
  <ele>-24.4</ele>
  <time>2026-09-01T01:14:31Z</time>
  <course>53.4</course>
  <speed>1.0</speed>
  <fix>3d</fix>
</trkpt>
<trkpt lat="33.810697" lon="-118.3938659">
  <ele>-25.004</ele>
  <time>2026-09-01T01:14:31Z</time>
  <course>54.41</course>
  <speed>0.9822932352408826</speed>
  <fix>3d</fix>
</trkpt>
<trkpt lat="33.8106965" lon="-118.393867">
  <ele>-24.4</ele>
  <time>2026-09-01T01:14:31Z</time>
  <course>53.4</course>
  <speed>1.0</speed>
  <fix>3d</fix>
</trkpt>
<trkpt lat="33.8106975" lon="-118.393865">
  <ele>-25.002</ele>
  <time>2026-09-01T01:14:31Z</time>
  <course>54.41</course>
  <speed>0.9822932352408826</speed>
  <fix>3d</fix>
</trkpt>
<trkpt lat="33.8106965" lon="-118.393867">
  <ele>-24.4</ele>
  <time>2026-09-01T01:14:31Z</time>
  <course>53.4</course>
  <speed>1.0</speed>
  <fix>3d</fix>
</trkpt>
<trkpt lat="33.8106981" lon="-118.3938642">
  <ele>-25.0</ele>
  <time>2026-09-01T01:14:31Z</time>
  <course>54.43</course>
  <speed>0.9822932352408826</speed>
  <fix>3d</fix>
</trkpt>
<trkpt lat="33.8106976" lon="-118.3938652">
  <ele>-24.4</ele>
  <time>2026-09-01T01:14:31Z</time>
  <course>53.41</course>
  <speed>1.0</speed>
  <fix>3d</fix>
</trkpt>
<trkpt lat="33.8106986" lon="-118.3938633">
  <ele>-24.998</ele>
  <time>2026-09-01T01:14:31Z</time>
  <course>54.44</course>
  <speed>0.9822932352408826</speed>
  <fix>3d</fix>
</trkpt>
<trkpt lat="33.8106976" lon="-118.3938652">
  <ele>-24.4</ele>
  <time>2026-09-01T01:14:31Z</time>
  <course>53.41</course>
  <speed>1.0</speed>
  <fix>3d</fix>
</trkpt>
<trkpt lat="33.8106992" lon="-118.3938624">
  <ele>-24.997</ele>
  <time>2026-09-01T01:14:31Z</time>
  <course>54.46</course>
  <speed>0.9822932352408826</speed>
  <fix>3d</fix>
</trkpt>
<trkpt lat="33.8106987" lon="-118.3938635">
  <ele>-24.4</ele>
  <time>2026-09-01T01:14:31Z</time>
  <course>53.43</course>
  <speed>1.0</speed>
  <fix>3d</fix>
</trkpt>
<trkpt lat="33.8106997" lon="-118.3938615">
  <ele>-24.998</ele>
  <time>2026-09-01T01:14:31Z</time>
  <course>54.48</course>
  <speed>0.9822932352408826</speed>
  <fix>3d</fix>
</trkpt>
<trkpt lat="33.8106987" lon="-118.3938635">
  <ele>-24.4</ele>
  <time>2026-09-01T01:14:31Z</time>
  <course>53.43</course>
  <speed>1.0</speed>
  <fix>3d</fix>
</trkpt>
<trkpt lat="33.8107002" lon="-118.3938607">
  <ele>-24.999</ele>
  <time>2026-09-01T01:14:31Z</time>
  <course>54.5</course>
  <speed>0.9822932352408826</speed>
  <fix>3d</fix>
</trkpt>
<trkpt lat="33.8106997" lon="-118.3938617">
  <ele>-24.4</ele>
  <time>2026-09-01T01:14:31Z</time>
  <course>53.46</course>
  <speed>1.0</speed>
  <fix>3d</fix>
</trkpt>
<trkpt lat="33.8107008" lon="-118.3938598">
  <ele>-25.001</ele>
  <time>2026-09-01T01:14:31Z</time>
  <course>54.52</course>
  <speed>0.9822932352408826</speed>
  <fix>3d</fix>
</trkpt>
<trkpt lat="33.8106997" lon="-118.3938617">
  <ele>-24.4</ele>
  <time>2026-09-01T01:14:31Z</time>
  <course>53.46</course>
  <speed>1.0</speed>
  <fix>3d</fix>
</trkpt>
<trkpt lat="33.8107013" lon="-118.3938589">
  <ele>-25.002</ele>
  <time>2026-09-01T01:14:31Z</time>
  <course>54.53</course>
  <speed>0.9822932352408826</speed>
  <fix>3d</fix>
</trkpt>
<trkpt lat="33.8107008" lon="-118.39386">
  <ele>-24.4</ele>
  <time>2026-09-01T01:14:31Z</time>
  <course>53.46</course>
  <speed>1.0</speed>
  <fix>3d</fix>
</trkpt>
<trkpt lat="33.8107018" lon="-118.393858">
  <ele>-25.002</ele>
  <time>2026-09-01T01:14:31Z</time>
  <course>54.52</course>
  <speed>0.9822932352408826</speed>
  <fix>3d</fix>
</trkpt>
<trkpt lat="33.8107008" lon="-118.39386">
  <ele>-24.4</ele>
  <time>2026-09-01T01:14:31Z</time>
  <course>53.46</course>
  <speed>1.0</speed>
  <fix>3d</fix>
</trkpt>
<trkpt lat="33.8107024" lon="-118.3938572">
  <ele>-25.002</ele>
  <time>2026-09-01T01:14:31Z</time>
  <course>54.52</course>
  <speed>0.9822932352408826</speed>
  <fix>3d</fix>
</trkpt>
<trkpt lat="33.8107019" lon="-118.3938582">
  <ele>-24.4</ele>
  <time>2026-09-01T01:14:31Z</time>
  <course>53.43</course>
  <speed>1.0</speed>
  <fix>3d</fix>
</trkpt>
<trkpt lat="33.8107029" lon="-118.3938563">
  <ele>-25.003</ele>
  <time>2026-09-01T01:14:31Z</time>
  <course>54.52</course>
  <speed>0.9741663102366043</speed>
  <fix>3d</fix>
</trkpt>
<trkpt lat="33.8107019" lon="-118.3938582">
  <ele>-24.4</ele>
  <time>2026-09-01T01:14:31Z</time>
  <course>53.43</course>
  <speed>1.0</speed>
  <fix>3d</fix>
</trkpt>
<trkpt lat="33.8107035" lon="-118.3938554">
  <ele>-25.004</ele>
  <time>2026-09-01T01:14:31Z</time>
  <course>54.52</course>
  <speed>0.9741663102366043</speed>
  <fix>3d</fix>
</trkpt>
<trkpt lat="33.810703" lon="-118.3938565">
  <ele>-24.4</ele>
  <time>2026-09-01T01:14:31Z</time>
  <course>53.42</course>
  <speed>1.0</speed>
  <fix>3d</fix>
</trkpt>
<trkpt lat="33.810704" lon="-118.3938545">
  <ele>-25.005</ele>
  <time>2026-09-01T01:14:31Z</time>
  <course>54.52</course>
  <speed>0.9741663102366043</speed>
  <fix>3d</fix>
</trkpt>
<trkpt lat="33.810703" lon="-118.3938565">
  <ele>-24.4</ele>
  <time>2026-09-01T01:14:31Z</time>
  <course>53.42</course>
  <speed>1.0</speed>
  <fix>3d</fix>
</trkpt>
<trkpt lat="33.8107045" lon="-118.3938537">
  <ele>-25.005</ele>
  <time>2026-09-01T01:14:31Z</time>
  <course>54.54</course>
  <speed>0.9741663102366043</speed>
  <fix>3d</fix>
</trkpt>
<trkpt lat="33.810704" lon="-118.3938547">
  <ele>-24.39</ele>
  <time>2026-09-01T01:14:31Z</time>
  <course>53.44</course>
  <speed>1.0</speed>
  <fix>3d</fix>
</trkpt>
<trkpt lat="33.8107051" lon="-118.3938528">
  <ele>-25.005</ele>
  <time>2026-09-01T01:14:31Z</time>
  <course>54.54</course>
  <speed>0.9741663102366043</speed>
  <fix>3d</fix>
</trkpt>
<trkpt lat="33.810704" lon="-118.3938547">
  <ele>-24.39</ele>
  <time>2026-09-01T01:14:31Z</time>
  <course>53.44</course>
  <speed>1.0</speed>
  <fix>3d</fix>
</trkpt>
<trkpt lat="33.8107056" lon="-118.3938519">
  <ele>-25.004</ele>
  <time>2026-09-01T01:14:31Z</time>
  <course>54.54</course>
  <speed>0.9741663102366043</speed>
  <fix>3d</fix>
</trkpt>
<trkpt lat="33.8107051" lon="-118.393853">
  <ele>-24.39</ele>
  <time>2026-09-01T01:14:31Z</time>
  <course>53.43</course>
  <speed>1.0</speed>
  <fix>3d</fix>
</trkpt>
<trkpt lat="33.8107061" lon="-118.3938511">
  <ele>-25.003</ele>
  <time>2026-09-01T01:14:31Z</time>
  <course>54.53</course>
  <speed>0.9741663102366043</speed>
  <fix>3d</fix>
</trkpt>
<trkpt lat="33.8107051" lon="-118.393853">
  <ele>-24.39</ele>
  <time>2026-09-01T01:14:31Z</time>
  <course>53.43</course>
  <speed>1.0</speed>
  <fix>3d</fix>
</trkpt>
<trkpt lat="33.8107067" lon="-118.3938502">
  <ele>-25.002</ele>
  <time>2026-09-01T01:14:31Z</time>
  <course>54.52</course>
  <speed>0.9741663102366043</speed>
  <fix>3d</fix>
</trkpt>
<trkpt lat="33.8107062" lon="-118.3938513">
  <ele>-24.39</ele>
  <time>2026-09-01T01:14:31Z</time>
  <course>53.41</course>
  <speed>1.0</speed>
  <fix>3d</fix>
</trkpt>
<trkpt lat="33.8107072" lon="-118.3938493">
  <ele>-25.001</ele>
  <time>2026-09-01T01:14:31Z</time>
  <course>54.52</course>
  <speed>0.9741663102366043</speed>
  <fix>3d</fix>
</trkpt>
<trkpt lat="33.8107062" lon="-118.3938513">
  <ele>-24.39</ele>
  <time>2026-09-01T01:14:31Z</time>
  <course>53.41</course>
  <speed>1.0</speed>
  <fix>3d</fix>
</trkpt>
<trkpt lat="33.8107077" lon="-118.3938484">
  <ele>-24.998</ele>
  <time>2026-09-01T01:14:31Z</time>
  <course>54.53</course>
  <speed>0.9741663102366043</speed>
  <fix>3d</fix>
</trkpt>
<trkpt lat="33.8107073" lon="-118.3938495">
  <ele>-24.38</ele>
  <time>2026-09-01T01:14:31Z</time>
  <course>53.44</course>
  <speed>1.0</speed>
  <fix>3d</fix>
</trkpt>
<trkpt lat="33.8107083" lon="-118.3938476">
  <ele>-24.997</ele>
  <time>2026-09-01T01:14:31Z</time>
  <course>54.55</course>
  <speed>0.9741663102366043</speed>
  <fix>3d</fix>
</trkpt>
<trkpt lat="33.8107073" lon="-118.3938495">
  <ele>-24.38</ele>
  <time>2026-09-01T01:14:31Z</time>
  <course>53.44</course>
  <speed>1.0</speed>
  <fix>3d</fix>
</trkpt>
<trkpt lat="33.8107088" lon="-118.3938467">
  <ele>-24.995</ele>
  <time>2026-09-01T01:14:31Z</time>
  <course>54.58</course>
  <speed>0.9741663102366043</speed>
  <fix>3d</fix>
</trkpt>
<trkpt lat="33.8107083" lon="-118.3938478">
  <ele>-24.38</ele>
  <time>2026-09-01T01:14:31Z</time>
  <course>53.49</course>
  <speed>1.0</speed>
  <fix>3d</fix>
</trkpt>
<trkpt lat="33.8107093" lon="-118.3938458">
  <ele>-24.994</ele>
  <time>2026-09-01T01:14:31Z</time>
  <course>54.6</course>
  <speed>0.9741663102366043</speed>
  <fix>3d</fix>
</trkpt>
<trkpt lat="33.8107083" lon="-118.3938478">
  <ele>-24.38</ele>
  <time>2026-09-01T01:14:31Z</time>
  <course>53.49</course>
  <speed>1.0</speed>
  <fix>3d</fix>
</trkpt>
<trkpt lat="33.8107099" lon="-118.393845">
  <ele>-24.993</ele>
  <time>2026-09-01T01:14:31Z</time>
  <course>54.61</course>
  <speed>0.9741663102366043</speed>
  <fix>3d</fix>
</trkpt>
<trkpt lat="33.8107094" lon="-118.3938461">
  <ele>-24.38</ele>
  <time>2026-09-01T01:14:31Z</time>
  <course>53.49</course>
  <speed>1.0</speed>
  <fix>3d</fix>
</trkpt>
<trkpt lat="33.8107104" lon="-118.3938441">
  <ele>-24.993</ele>
  <time>2026-09-01T01:14:31Z</time>
  <course>54.62</course>
  <speed>0.9741663102366043</speed>
  <fix>3d</fix>
</trkpt>
<trkpt lat="33.8107094" lon="-118.3938461">
  <ele>-24.38</ele>
  <time>2026-09-01T01:14:31Z</time>
  <course>53.49</course>
  <speed>1.0</speed>
  <fix>3d</fix>
</trkpt>
<trkpt lat="33.810711" lon="-118.3938432">
  <ele>-24.993</ele>
  <time>2026-09-01T01:14:31Z</time>
  <course>54.63</course>
  <speed>0.9741663102366043</speed>
  <fix>3d</fix>
</trkpt>
<trkpt lat="33.8107105" lon="-118.3938443">
  <ele>-24.38</ele>
  <time>2026-09-01T01:14:31Z</time>
  <course>53.49</course>
  <speed>1.0</speed>
  <fix>3d</fix>
</trkpt>
<trkpt lat="33.8107115" lon="-118.3938424">
  <ele>-24.994</ele>
  <time>2026-09-01T01:14:31Z</time>
  <course>54.65</course>
  <speed>0.9741663102366043</speed>
  <fix>3d</fix>
</trkpt>
<trkpt lat="33.8107105" lon="-118.3938443">
  <ele>-24.38</ele>
  <time>2026-09-01T01:14:31Z</time>
  <course>53.49</course>
  <speed>1.0</speed>
  <fix>3d</fix>
</trkpt>
<trkpt lat="33.810712" lon="-118.3938415">
  <ele>-24.994</ele>
  <time>2026-09-01T01:14:31Z</time>
  <course>54.66</course>
  <speed>0.9741663102366043</speed>
  <fix>3d</fix>
</trkpt>
<trkpt lat="33.8107116" lon="-118.3938426">
  <ele>-24.38</ele>
  <time>2026-09-01T01:14:31Z</time>
  <course>53.52</course>
  <speed>1.0</speed>
  <fix>3d</fix>
</trkpt>
<trkpt lat="33.8107126" lon="-118.3938406">
  <ele>-24.995</ele>
  <time>2026-09-01T01:14:31Z</time>
  <course>54.68</course>
  <speed>0.9741663102366043</speed>
  <fix>3d</fix>
</trkpt>
<trkpt lat="33.8107116" lon="-118.3938426">
  <ele>-24.38</ele>
  <time>2026-09-01T01:14:31Z</time>
  <course>53.52</course>
  <speed>1.0</speed>
  <fix>3d</fix>
</trkpt>
<trkpt lat="33.8107131" lon="-118.3938397">
  <ele>-24.997</ele>
  <time>2026-09-01T01:14:31Z</time>
  <course>54.71</course>
  <speed>0.9741663102366043</speed>
  <fix>3d</fix>
</trkpt>
<trkpt lat="33.8107126" lon="-118.3938408">
  <ele>-24.39</ele>
  <time>2026-09-01T01:14:31Z</time>
  <course>53.56</course>
  <speed>1.0</speed>
  <fix>3d</fix>
</trkpt>
<trkpt lat="33.8107136" lon="-118.3938389">
  <ele>-24.999</ele>
  <time>2026-09-01T01:14:31Z</time>
  <course>54.73</course>
  <speed>0.9741663102366043</speed>
  <fix>3d</fix>
</trkpt>
<trkpt lat="33.8107126" lon="-118.3938408">
  <ele>-24.39</ele>
  <time>2026-09-01T01:14:31Z</time>
  <course>53.56</course>
  <speed>1.0</speed>
  <fix>3d</fix>
</trkpt>
<trkpt lat="33.8107142" lon="-118.393838">
  <ele>-25.0</ele>
  <time>2026-09-01T01:14:31Z</time>
  <course>54.74</course>
  <speed>0.9741663102366043</speed>
  <fix>3d</fix>
</trkpt>
<trkpt lat="33.8107137" lon="-118.3938391">
  <ele>-24.39</ele>
  <time>2026-09-01T01:14:31Z</time>
  <course>53.57</course>
  <speed>1.0</speed>
  <fix>3d</fix>
</trkpt>
<trkpt lat="33.8107147" lon="-118.3938371">
  <ele>-25.0</ele>
  <time>2026-09-01T01:14:31Z</time>
  <course>54.73</course>
  <speed>0.9741663102366043</speed>
  <fix>3d</fix>
</trkpt>
<trkpt lat="33.8107137" lon="-118.3938391">
  <ele>-24.39</ele>
  <time>2026-09-01T01:14:31Z</time>
  <course>53.57</course>
  <speed>1.0</speed>
  <fix>3d</fix>
</trkpt>
<trkpt lat="33.8107152" lon="-118.3938363">
  <ele>-24.999</ele>
  <time>2026-09-01T01:14:31Z</time>
  <course>54.73</course>
  <speed>0.9741663102366043</speed>
  <fix>3d</fix>
</trkpt>
<trkpt lat="33.8107148" lon="-118.3938373">
  <ele>-24.39</ele>
  <time>2026-09-01T01:14:31Z</time>
  <course>53.55</course>
  <speed>1.0</speed>
  <fix>3d</fix>
</trkpt>
<trkpt lat="33.8107158" lon="-118.3938354">
  <ele>-24.998</ele>
  <time>2026-09-01T01:14:31Z</time>
  <course>54.72</course>
  <speed>0.9741663102366043</speed>
  <fix>3d</fix>
</trkpt>
<trkpt lat="33.8107148" lon="-118.3938373">
  <ele>-24.39</ele>
  <time>2026-09-01T01:14:31Z</time>
  <course>53.55</course>
  <speed>1.0</speed>
  <fix>3d</fix>
</trkpt>
<trkpt lat="33.8107163" lon="-118.3938345">
  <ele>-24.997</ele>
  <time>2026-09-01T01:14:31Z</time>
  <course>54.72</course>
  <speed>0.9741663102366043</speed>
  <fix>3d</fix>
</trkpt>
<trkpt lat="33.8107158" lon="-118.3938356">
  <ele>-24.39</ele>
  <time>2026-09-01T01:14:31Z</time>
  <course>53.56</course>
  <speed>0.99</speed>
  <fix>3d</fix>
</trkpt>
<trkpt lat="33.8107168" lon="-118.3938336">
  <ele>-24.997</ele>
  <time>2026-09-01T01:14:31Z</time>
  <course>54.72</course>
  <speed>0.9741663102366043</speed>
  <fix>3d</fix>
</trkpt>
<trkpt lat="33.8107158" lon="-118.3938356">
  <ele>-24.39</ele>
  <time>2026-09-01T01:14:31Z</time>
  <course>53.56</course>
  <speed>0.99</speed>
  <fix>3d</fix>
</trkpt>
<trkpt lat="33.8107174" lon="-118.3938328">
  <ele>-24.998</ele>
  <time>2026-09-01T01:14:31Z</time>
  <course>54.71</course>
  <speed>0.9741663102366043</speed>
  <fix>3d</fix>
</trkpt>
<trkpt lat="33.8107169" lon="-118.3938339">
  <ele>-24.39</ele>
  <time>2026-09-01T01:14:31Z</time>
  <course>53.55</course>
  <speed>0.99</speed>
  <fix>3d</fix>
</trkpt>
<trkpt lat="33.8107179" lon="-118.3938319">
  <ele>-24.999</ele>
  <time>2026-09-01T01:14:31Z</time>
  <course>54.69</course>
  <speed>0.9741663102366043</speed>
  <fix>3d</fix>
</trkpt>
<trkpt lat="33.8107169" lon="-118.3938339">
  <ele>-24.39</ele>
  <time>2026-09-01T01:14:31Z</time>
  <course>53.55</course>
  <speed>0.99</speed>
  <fix>3d</fix>
</trkpt>
<trkpt lat="33.8107184" lon="-118.393831">
  <ele>-24.999</ele>
  <time>2026-09-01T01:14:31Z</time>
  <course>54.69</course>
  <speed>0.9741663102366043</speed>
  <fix>3d</fix>
</trkpt>
<trkpt lat="33.8107179" lon="-118.3938321">
  <ele>-24.39</ele>
  <time>2026-09-01T01:14:31Z</time>
  <course>53.51</course>
  <speed>1.0</speed>
  <fix>3d</fix>
</trkpt>
<trkpt lat="33.810719" lon="-118.3938302">
  <ele>-24.998</ele>
  <time>2026-09-01T01:14:31Z</time>
  <course>54.67</course>
  <speed>0.9741663102366043</speed>
  <fix>3d</fix>
</trkpt>
<trkpt lat="33.8107179" lon="-118.3938321">
  <ele>-24.39</ele>
  <time>2026-09-01T01:14:31Z</time>
  <course>53.51</course>
  <speed>1.0</speed>
  <fix>3d</fix>
</trkpt>
<trkpt lat="33.8107195" lon="-118.3938293">
  <ele>-24.998</ele>
  <time>2026-09-01T01:14:31Z</time>
  <course>54.64</course>
  <speed>0.9741663102366043</speed>
  <fix>3d</fix>
</trkpt>
<trkpt lat="33.810719" lon="-118.3938304">
  <ele>-24.4</ele>
  <time>2026-09-01T01:14:31Z</time>
  <course>53.48</course>
  <speed>1.0</speed>
  <fix>3d</fix>
</trkpt>
<trkpt lat="33.81072" lon="-118.3938284">
  <ele>-24.999</ele>
  <time>2026-09-01T01:14:31Z</time>
  <course>54.61</course>
  <speed>0.9741663102366043</speed>
  <fix>3d</fix>
</trkpt>
<trkpt lat="33.810719" lon="-118.3938304">
  <ele>-24.4</ele>
  <time>2026-09-01T01:14:31Z</time>
  <course>53.48</course>
  <speed>1.0</speed>
  <fix>3d</fix>
</trkpt>
<trkpt lat="33.8107206" lon="-118.3938276">
  <ele>-25.0</ele>
  <time>2026-09-01T01:14:32Z</time>
  <course>54.59</course>
  <speed>0.9741663102366043</speed>
  <fix>3d</fix>
</trkpt>
<trkpt lat="33.8107201" lon="-118.3938287">
  <ele>-24.4</ele>
  <time>2026-09-01T01:14:32Z</time>
  <course>53.43</course>
  <speed>1.0</speed>
  <fix>3d</fix>
</trkpt>
<trkpt lat="33.8107211" lon="-118.3938267">
  <ele>-25.001</ele>
  <time>2026-09-01T01:14:32Z</time>
  <course>54.57</course>
  <speed>0.9741663102366043</speed>
  <fix>3d</fix>
</trkpt>
<trkpt lat="33.8107201" lon="-118.3938287">
  <ele>-24.4</ele>
  <time>2026-09-01T01:14:32Z</time>
  <course>53.43</course>
  <speed>1.0</speed>
  <fix>3d</fix>
</trkpt>
<trkpt lat="33.8107216" lon="-118.3938258">
  <ele>-25.002</ele>
  <time>2026-09-01T01:14:32Z</time>
  <course>54.57</course>
  <speed>0.9822932352408826</speed>
  <fix>3d</fix>
</trkpt>
<trkpt lat="33.8107212" lon="-118.3938269">
  <ele>-24.4</ele>
  <time>2026-09-01T01:14:32Z</time>
  <course>53.42</course>
  <speed>1.0</speed>
  <fix>3d</fix>
</trkpt>
<trkpt lat="33.8107222" lon="-118.393825">
  <ele>-25.003</ele>
  <time>2026-09-01T01:14:32Z</time>
  <course>54.58</course>
  <speed>0.9822932352408826</speed>
  <fix>3d</fix>
</trkpt>
<trkpt lat="33.8107212" lon="-118.3938269">
  <ele>-24.4</ele>
  <time>2026-09-01T01:14:32Z</time>
  <course>53.42</course>
  <speed>1.0</speed>
  <fix>3d</fix>
</trkpt>
<trkpt lat="33.8107227" lon="-118.3938241">
  <ele>-25.004</ele>
  <time>2026-09-01T01:14:32Z</time>
  <course>54.6</course>
  <speed>0.9822932352408826</speed>
  <fix>3d</fix>
</trkpt>
<trkpt lat="33.8107222" lon="-118.3938252">
  <ele>-24.4</ele>
  <time>2026-09-01T01:14:32Z</time>
  <course>53.45</course>
  <speed>1.0</speed>
  <fix>3d</fix>
</trkpt>
<trkpt lat="33.8107233" lon="-118.3938232">
  <ele>-25.005</ele>
  <time>2026-09-01T01:14:32Z</time>
  <course>54.62</course>
  <speed>0.9822932352408826</speed>
  <fix>3d</fix>
</trkpt>
<trkpt lat="33.8107222" lon="-118.3938252">
  <ele>-24.4</ele>
  <time>2026-09-01T01:14:32Z</time>
  <course>53.45</course>
  <speed>1.0</speed>
  <fix>3d</fix>
</trkpt>
<trkpt lat="33.8107238" lon="-118.3938223">
  <ele>-25.005</ele>
  <time>2026-09-01T01:14:32Z</time>
  <course>54.63</course>
  <speed>0.9822932352408826</speed>
  <fix>3d</fix>
</trkpt>
<trkpt lat="33.8107233" lon="-118.3938234">
  <ele>-24.4</ele>
  <time>2026-09-01T01:14:32Z</time>
  <course>53.47</course>
  <speed>1.0</speed>
  <fix>3d</fix>
</trkpt>
<trkpt lat="33.8107243" lon="-118.3938215">
  <ele>-25.005</ele>
  <time>2026-09-01T01:14:32Z</time>
  <course>54.63</course>
  <speed>0.9741663102366043</speed>
  <fix>3d</fix>
</trkpt>
<trkpt lat="33.8107233" lon="-118.3938234">
  <ele>-24.4</ele>
  <time>2026-09-01T01:14:32Z</time>
  <course>53.47</course>
  <speed>1.0</speed>
  <fix>3d</fix>
</trkpt>
<trkpt lat="33.8107249" lon="-118.3938206">
  <ele>-25.004</ele>
  <time>2026-09-01T01:14:32Z</time>
  <course>54.62</course>
  <speed>0.9741663102366043</speed>
  <fix>3d</fix>
</trkpt>
<trkpt lat="33.8107244" lon="-118.3938217">
  <ele>-24.39</ele>
  <time>2026-09-01T01:14:32Z</time>
  <course>53.45</course>
  <speed>1.0</speed>
  <fix>3d</fix>
</trkpt>
<trkpt lat="33.8107254" lon="-118.3938197">
  <ele>-25.002</ele>
  <time>2026-09-01T01:14:32Z</time>
  <course>54.61</course>
  <speed>0.9741663102366043</speed>
  <fix>3d</fix>
</trkpt>
<trkpt lat="33.8107244" lon="-118.3938217">
  <ele>-24.39</ele>
  <time>2026-09-01T01:14:32Z</time>
  <course>53.45</course>
  <speed>1.0</speed>
  <fix>3d</fix>
</trkpt>
<trkpt lat="33.8107259" lon="-118.3938189">
  <ele>-25.001</ele>
  <time>2026-09-01T01:14:32Z</time>
  <course>54.62</course>
  <speed>0.9741663102366043</speed>
  <fix>3d</fix>
</trkpt>
<trkpt lat="33.8107254" lon="-118.39382">
  <ele>-24.39</ele>
  <time>2026-09-01T01:14:32Z</time>
  <course>53.45</course>
  <speed>1.0</speed>
  <fix>3d</fix>
</trkpt>
<trkpt lat="33.8107265" lon="-118.393818">
  <ele>-24.999</ele>
  <time>2026-09-01T01:14:32Z</time>
  <course>54.63</course>
  <speed>0.9822932352408826</speed>
  <fix>3d</fix>
</trkpt>
<trkpt lat="33.8107254" lon="-118.39382">
  <ele>-24.39</ele>
  <time>2026-09-01T01:14:32Z</time>
  <course>53.45</course>
  <speed>1.0</speed>
  <fix>3d</fix>
</trkpt>
<trkpt lat="33.810727" lon="-118.3938171">
  <ele>-24.998</ele>
  <time>2026-09-01T01:14:32Z</time>
  <course>54.63</course>
  <speed>0.9822932352408826</speed>
  <fix>3d</fix>
</trkpt>
<trkpt lat="33.8107265" lon="-118.3938182">
  <ele>-24.39</ele>
  <time>2026-09-01T01:14:32Z</time>
  <course>53.45</course>
  <speed>1.0</speed>
  <fix>3d</fix>
</trkpt>
<trkpt lat="33.8107275" lon="-118.3938162">
  <ele>-24.996</ele>
  <time>2026-09-01T01:14:32Z</time>
  <course>54.63</course>
  <speed>0.9822932352408826</speed>
  <fix>3d</fix>
</trkpt>
<trkpt lat="33.8107265" lon="-118.3938182">
  <ele>-24.39</ele>
  <time>2026-09-01T01:14:32Z</time>
  <course>53.45</course>
  <speed>1.0</speed>
  <fix>3d</fix>
</trkpt>
<trkpt lat="33.8107281" lon="-118.3938154">
  <ele>-24.994</ele>
  <time>2026-09-01T01:14:32Z</time>
  <course>54.62</course>
  <speed>0.9822932352408826</speed>
  <fix>3d</fix>
</trkpt>
<trkpt lat="33.8107276" lon="-118.3938164">
  <ele>-24.38</ele>
  <time>2026-09-01T01:14:32Z</time>
  <course>53.43</course>
  <speed>1.0</speed>
  <fix>3d</fix>
</trkpt>
<trkpt lat="33.8107286" lon="-118.3938145">
  <ele>-24.993</ele>
  <time>2026-09-01T01:14:32Z</time>
  <course>54.61</course>
  <speed>0.9741663102366043</speed>
  <fix>3d</fix>
</trkpt>
<trkpt lat="33.8107276" lon="-118.3938164">
  <ele>-24.38</ele>
  <time>2026-09-01T01:14:32Z</time>
  <course>53.43</course>
  <speed>1.0</speed>
  <fix>3d</fix>
</trkpt>
<trkpt lat="33.8107291" lon="-118.3938136">
  <ele>-24.991</ele>
  <time>2026-09-01T01:14:32Z</time>
  <course>54.6</course>
  <speed>0.9741663102366043</speed>
  <fix>3d</fix>
</trkpt>
<trkpt lat="33.8107287" lon="-118.3938147">
  <ele>-24.38</ele>
  <time>2026-09-01T01:14:32Z</time>
  <course>53.41</course>
  <speed>1.0</speed>
  <fix>3d</fix>
</trkpt>
<trkpt lat="33.8107297" lon="-118.3938128">
  <ele>-24.991</ele>
  <time>2026-09-01T01:14:32Z</time>
  <course>54.59</course>
  <speed>0.9741663102366043</speed>
  <fix>3d</fix>
</trkpt>
<trkpt lat="33.8107287" lon="-118.3938147">
  <ele>-24.38</ele>
  <time>2026-09-01T01:14:32Z</time>
  <course>53.41</course>
  <speed>1.0</speed>
  <fix>3d</fix>
</trkpt>
<trkpt lat="33.8107302" lon="-118.3938119">
  <ele>-24.994</ele>
  <time>2026-09-01T01:14:32Z</time>
  <course>54.59</course>
  <speed>0.9741663102366043</speed>
  <fix>3d</fix>
</trkpt>
<trkpt lat="33.8107297" lon="-118.393813">
  <ele>-24.38</ele>
  <time>2026-09-01T01:14:32Z</time>
  <course>53.4</course>
  <speed>0.99</speed>
  <fix>3d</fix>
</trkpt>
<trkpt lat="33.8107307" lon="-118.393811">
  <ele>-24.997</ele>
  <time>2026-09-01T01:14:32Z</time>
  <course>54.59</course>
  <speed>0.9741663102366043</speed>
  <fix>3d</fix>
</trkpt>
<trkpt lat="33.8107297" lon="-118.393813">
  <ele>-24.38</ele>
  <time>2026-09-01T01:14:32Z</time>
  <course>53.4</course>
  <speed>0.99</speed>
  <fix>3d</fix>
</trkpt>
<trkpt lat="33.8107313" lon="-118.3938101">
  <ele>-25.001</ele>
  <time>2026-09-01T01:14:32Z</time>
  <course>54.6</course>
  <speed>0.9741663102366043</speed>
  <fix>3d</fix>
</trkpt>
<trkpt lat="33.8107308" lon="-118.3938113">
  <ele>-24.39</ele>
  <time>2026-09-01T01:14:32Z</time>
  <course>53.42</course>
  <speed>0.99</speed>
  <fix>3d</fix>
</trkpt>
<trkpt lat="33.8107318" lon="-118.3938093">
  <ele>-25.004</ele>
  <time>2026-09-01T01:14:32Z</time>
  <course>54.6</course>
  <speed>0.9741663102366043</speed>
  <fix>3d</fix>
</trkpt>
<trkpt lat="33.8107308" lon="-118.3938113">
  <ele>-24.39</ele>
  <time>2026-09-01T01:14:32Z</time>
  <course>53.42</course>
  <speed>0.99</speed>
  <fix>3d</fix>
</trkpt>
<trkpt lat="33.8107324" lon="-118.3938084">
  <ele>-25.005</ele>
  <time>2026-09-01T01:14:32Z</time>
  <course>54.6</course>
  <speed>0.9822932352408826</speed>
  <fix>3d</fix>
</trkpt>
<trkpt lat="33.8107319" lon="-118.3938095">
  <ele>-24.39</ele>
  <time>2026-09-01T01:14:32Z</time>
  <course>53.43</course>
  <speed>0.99</speed>
  <fix>3d</fix>
</trkpt>
<trkpt lat="33.8107329" lon="-118.3938075">
  <ele>-25.005</ele>
  <time>2026-09-01T01:14:32Z</time>
  <course>54.61</course>
  <speed>0.9822932352408826</speed>
  <fix>3d</fix>
</trkpt>
<trkpt lat="33.8107319" lon="-118.3938095">
  <ele>-24.39</ele>
  <time>2026-09-01T01:14:32Z</time>
  <course>53.43</course>
  <speed>0.99</speed>
  <fix>3d</fix>
</trkpt>
<trkpt lat="33.8107334" lon="-118.3938067">
  <ele>-25.004</ele>
  <time>2026-09-01T01:14:32Z</time>
  <course>54.63</course>
  <speed>0.9822932352408826</speed>
  <fix>3d</fix>
</trkpt>
<trkpt lat="33.8107329" lon="-118.3938078">
  <ele>-24.4</ele>
  <time>2026-09-01T01:14:32Z</time>
  <course>53.45</course>
  <speed>0.99</speed>
  <fix>3d</fix>
</trkpt>
<trkpt lat="33.810734" lon="-118.3938058">
  <ele>-25.002</ele>
  <time>2026-09-01T01:14:32Z</time>
  <course>54.63</course>
  <speed>0.9822932352408826</speed>
  <fix>3d</fix>
</trkpt>
<trkpt lat="33.8107329" lon="-118.3938078">
  <ele>-24.4</ele>
  <time>2026-09-01T01:14:32Z</time>
  <course>53.45</course>
  <speed>0.99</speed>
  <fix>3d</fix>
</trkpt>
<trkpt lat="33.8107345" lon="-118.3938049">
  <ele>-24.999</ele>
  <time>2026-09-01T01:14:32Z</time>
  <course>54.63</course>
  <speed>0.9822932352408826</speed>
  <fix>3d</fix>
</trkpt>
<trkpt lat="33.810734" lon="-118.3938061">
  <ele>-24.39</ele>
  <time>2026-09-01T01:14:32Z</time>
  <course>53.45</course>
  <speed>0.99</speed>
  <fix>3d</fix>
</trkpt>
<trkpt lat="33.810735" lon="-118.3938041">
  <ele>-24.997</ele>
  <time>2026-09-01T01:14:32Z</time>
  <course>54.63</course>
  <speed>0.9822932352408826</speed>
  <fix>3d</fix>
</trkpt>
<trkpt lat="33.810734" lon="-118.3938061">
  <ele>-24.39</ele>
  <time>2026-09-01T01:14:32Z</time>
  <course>53.45</course>
  <speed>0.99</speed>
  <fix>3d</fix>
</trkpt>
<trkpt lat="33.8107356" lon="-118.3938032">
  <ele>-24.996</ele>
  <time>2026-09-01T01:14:32Z</time>
  <course>54.64</course>
  <speed>0.9822932352408826</speed>
  <fix>3d</fix>
</trkpt>
<trkpt lat="33.8107351" lon="-118.3938043">
  <ele>-24.39</ele>
  <time>2026-09-01T01:14:32Z</time>
  <course>53.44</course>
  <speed>0.99</speed>
  <fix>3d</fix>
</trkpt>
<trkpt lat="33.8107361" lon="-118.3938023">
  <ele>-24.996</ele>
  <time>2026-09-01T01:14:32Z</time>
  <course>54.64</course>
  <speed>0.9822932352408826</speed>
  <fix>3d</fix>
</trkpt>
<trkpt lat="33.8107351" lon="-118.3938043">
  <ele>-24.39</ele>
  <time>2026-09-01T01:14:32Z</time>
  <course>53.44</course>
  <speed>0.99</speed>
  <fix>3d</fix>
</trkpt>
<trkpt lat="33.8107366" lon="-118.3938014">
  <ele>-24.997</ele>
  <time>2026-09-01T01:14:32Z</time>
  <course>54.66</course>
  <speed>0.9822932352408826</speed>
  <fix>3d</fix>
</trkpt>
<trkpt lat="33.8107361" lon="-118.3938026">
  <ele>-24.39</ele>
  <time>2026-09-01T01:14:32Z</time>
  <course>53.46</course>
  <speed>0.99</speed>
  <fix>3d</fix>
</trkpt>
<trkpt lat="33.8107372" lon="-118.3938006">
  <ele>-24.998</ele>
  <time>2026-09-01T01:14:32Z</time>
  <course>54.68</course>
  <speed>0.9822932352408826</speed>
  <fix>3d</fix>
</trkpt>
<trkpt lat="33.8107361" lon="-118.3938026">
  <ele>-24.39</ele>
  <time>2026-09-01T01:14:32Z</time>
  <course>53.46</course>
  <speed>0.99</speed>
  <fix>3d</fix>
</trkpt>
<trkpt lat="33.8107377" lon="-118.3937997">
  <ele>-24.998</ele>
  <time>2026-09-01T01:14:32Z</time>
  <course>54.68</course>
  <speed>0.9822932352408826</speed>
  <fix>3d</fix>
</trkpt>
<trkpt lat="33.8107372" lon="-118.3938009">
  <ele>-24.39</ele>
  <time>2026-09-01T01:14:32Z</time>
  <course>53.47</course>
  <speed>0.99</speed>
  <fix>3d</fix>
</trkpt>
<trkpt lat="33.8107382" lon="-118.3937988">
  <ele>-24.998</ele>
  <time>2026-09-01T01:14:32Z</time>
  <course>54.68</course>
  <speed>0.9822932352408826</speed>
  <fix>3d</fix>
</trkpt>
<trkpt lat="33.8107372" lon="-118.3938009">
  <ele>-24.39</ele>
  <time>2026-09-01T01:14:32Z</time>
  <course>53.47</course>
  <speed>0.99</speed>
  <fix>3d</fix>
</trkpt>
<trkpt lat="33.8107388" lon="-118.393798">
  <ele>-24.999</ele>
  <time>2026-09-01T01:14:32Z</time>
  <course>54.68</course>
  <speed>0.9822932352408826</speed>
  <fix>3d</fix>
</trkpt>
<trkpt lat="33.8107383" lon="-118.3937991">
  <ele>-24.39</ele>
  <time>2026-09-01T01:14:32Z</time>
  <course>53.47</course>
  <speed>1.0</speed>
  <fix>3d</fix>
</trkpt>
<trkpt lat="33.8107393" lon="-118.3937971">
  <ele>-25.0</ele>
  <time>2026-09-01T01:14:32Z</time>
  <course>54.69</course>
  <speed>0.9822932352408826</speed>
  <fix>3d</fix>
</trkpt>
<trkpt lat="33.8107383" lon="-118.3937991">
  <ele>-24.39</ele>
  <time>2026-09-01T01:14:32Z</time>
  <course>53.47</course>
  <speed>1.0</speed>
  <fix>3d</fix>
</trkpt>
<trkpt lat="33.8107398" lon="-118.3937962">
  <ele>-25.001</ele>
  <time>2026-09-01T01:14:32Z</time>
  <course>54.7</course>
  <speed>0.9822932352408826</speed>
  <fix>3d</fix>
</trkpt>
<trkpt lat="33.8107394" lon="-118.3937974">
  <ele>-24.39</ele>
  <time>2026-09-01T01:14:32Z</time>
  <course>53.48</course>
  <speed>1.0</speed>
  <fix>3d</fix>
</trkpt>
<trkpt lat="33.8107404" lon="-118.3937954">
  <ele>-25.001</ele>
  <time>2026-09-01T01:14:32Z</time>
  <course>54.72</course>
  <speed>0.9765244492586962</speed>
  <fix>3d</fix>
</trkpt>
<trkpt lat="33.8107394" lon="-118.3937974">
  <ele>-24.39</ele>
  <time>2026-09-01T01:14:32Z</time>
  <course>53.48</course>
  <speed>1.0</speed>
  <fix>3d</fix>
</trkpt>
<trkpt lat="33.8107409" lon="-118.3937945">
  <ele>-25.0</ele>
  <time>2026-09-01T01:14:32Z</time>
  <course>54.74</course>
  <speed>0.9822932352408826</speed>
  <fix>3d</fix>
</trkpt>
<trkpt lat="33.8107404" lon="-118.3937957">
  <ele>-24.39</ele>
  <time>2026-09-01T01:14:32Z</time>
  <course>53.52</course>
  <speed>1.0</speed>
  <fix>3d</fix>
</trkpt>
<trkpt lat="33.8107415" lon="-118.3937936">
  <ele>-24.998</ele>
  <time>2026-09-01T01:14:32Z</time>
  <course>54.77</course>
  <speed>0.9765244492586962</speed>
  <fix>3d</fix>
</trkpt>
<trkpt lat="33.8107404" lon="-118.3937957">
  <ele>-24.39</ele>
  <time>2026-09-01T01:14:32Z</time>
  <course>53.52</course>
  <speed>1.0</speed>
  <fix>3d</fix>
</trkpt>
<trkpt lat="33.810742" lon="-118.3937928">
  <ele>-24.997</ele>
  <time>2026-09-01T01:14:32Z</time>
  <course>54.79</course>
  <speed>0.9822932352408826</speed>
  <fix>3d</fix>
</trkpt>
<trkpt lat="33.8107415" lon="-118.3937939">
  <ele>-24.39</ele>
  <time>2026-09-01T01:14:32Z</time>
  <course>53.57</course>
  <speed>1.0</speed>
  <fix>3d</fix>
</trkpt>
<trkpt lat="33.8107425" lon="-118.3937919">
  <ele>-24.996</ele>
  <time>2026-09-01T01:14:32Z</time>
  <course>54.8</course>
  <speed>0.9765244492586962</speed>
  <fix>3d</fix>
</trkpt>
<trkpt lat="33.8107415" lon="-118.3937939">
  <ele>-24.39</ele>
  <time>2026-09-01T01:14:32Z</time>
  <course>53.57</course>
  <speed>1.0</speed>
  <fix>3d</fix>
</trkpt>
<trkpt lat="33.8107431" lon="-118.393791">
  <ele>-24.996</ele>
  <time>2026-09-01T01:14:32Z</time>
  <course>54.8</course>
  <speed>0.9822932352408826</speed>
  <fix>3d</fix>
</trkpt>
<trkpt lat="33.8107426" lon="-118.3937922">
  <ele>-24.39</ele>
  <time>2026-09-01T01:14:32Z</time>
  <course>53.56</course>
  <speed>1.0</speed>
  <fix>3d</fix>
</trkpt>
<trkpt lat="33.8107436" lon="-118.3937901">
  <ele>-24.997</ele>
  <time>2026-09-01T01:14:32Z</time>
  <course>54.81</course>
  <speed>0.9765244492586962</speed>
  <fix>3d</fix>
</trkpt>
<trkpt lat="33.8107426" lon="-118.3937922">
  <ele>-24.39</ele>
  <time>2026-09-01T01:14:32Z</time>
  <course>53.56</course>
  <speed>1.0</speed>
  <fix>3d</fix>
</trkpt>
<trkpt lat="33.8107441" lon="-118.3937893">
  <ele>-24.997</ele>
  <time>2026-09-01T01:14:32Z</time>
  <course>54.83</course>
  <speed>0.9765244492586962</speed>
  <fix>3d</fix>
</trkpt>
<trkpt lat="33.8107436" lon="-118.3937904">
  <ele>-24.39</ele>
  <time>2026-09-01T01:14:32Z</time>
  <course>53.58</course>
  <speed>1.0</speed>
  <fix>3d</fix>
</trkpt>
<trkpt lat="33.8107447" lon="-118.3937884">
  <ele>-24.999</ele>
  <time>2026-09-01T01:14:32Z</time>
  <course>54.84</course>
  <speed>0.9765244492586962</speed>
  <fix>3d</fix>
</trkpt>
<trkpt lat="33.8107436" lon="-118.3937904">
  <ele>-24.39</ele>
  <time>2026-09-01T01:14:32Z</time>
  <course>53.58</course>
  <speed>1.0</speed>
  <fix>3d</fix>
</trkpt>
<trkpt lat="33.8107452" lon="-118.3937875">
  <ele>-24.999</ele>
  <time>2026-09-01T01:14:32Z</time>
  <course>54.83</course>
  <speed>0.9822932352408826</speed>
  <fix>3d</fix>
</trkpt>
<trkpt lat="33.8107447" lon="-118.3937886">
  <ele>-24.39</ele>
  <time>2026-09-01T01:14:32Z</time>
  <course>53.58</course>
  <speed>1.0</speed>
  <fix>3d</fix>
</trkpt>
<trkpt lat="33.8107457" lon="-118.3937867">
  <ele>-24.999</ele>
  <time>2026-09-01T01:14:32Z</time>
  <course>54.81</course>
  <speed>0.9765244492586962</speed>
  <fix>3d</fix>
</trkpt>
<trkpt lat="33.8107447" lon="-118.3937886">
  <ele>-24.39</ele>
  <time>2026-09-01T01:14:32Z</time>
  <course>53.58</course>
  <speed>1.0</speed>
  <fix>3d</fix>
</trkpt>
<trkpt lat="33.8107463" lon="-118.3937858">
  <ele>-24.999</ele>
  <time>2026-09-01T01:14:32Z</time>
  <course>54.79</course>
  <speed>0.9822932352408826</speed>
  <fix>3d</fix>
</trkpt>
<trkpt lat="33.8107458" lon="-118.3937869">
  <ele>-24.39</ele>
  <time>2026-09-01T01:14:32Z</time>
  <course>53.53</course>
  <speed>1.0</speed>
  <fix>3d</fix>
</trkpt>
<trkpt lat="33.8107468" lon="-118.3937849">
  <ele>-24.999</ele>
  <time>2026-09-01T01:14:32Z</time>
  <course>54.76</course>
  <speed>0.9765244492586962</speed>
  <fix>3d</fix>
</trkpt>
<trkpt lat="33.8107458" lon="-118.3937869">
  <ele>-24.39</ele>
  <time>2026-09-01T01:14:32Z</time>
  <course>53.53</course>
  <speed>1.0</speed>
  <fix>3d</fix>
</trkpt>
<trkpt lat="33.8107473" lon="-118.393784">
  <ele>-24.998</ele>
  <time>2026-09-01T01:14:32Z</time>
  <course>54.74</course>
  <speed>0.9683491106000975</speed>
  <fix>3d</fix>
</trkpt>
<trkpt lat="33.8107468" lon="-118.3937852">
  <ele>-24.39</ele>
  <time>2026-09-01T01:14:32Z</time>
  <course>53.51</course>
  <speed>0.99</speed>
  <fix>3d</fix>
</trkpt>
<trkpt lat="33.8107479" lon="-118.3937832">
  <ele>-24.999</ele>
  <time>2026-09-01T01:14:32Z</time>
  <course>54.72</course>
  <speed>0.9765244492586962</speed>
  <fix>3d</fix>
</trkpt>
<trkpt lat="33.8107468" lon="-118.3937852">
  <ele>-24.39</ele>
  <time>2026-09-01T01:14:32Z</time>
  <course>53.51</course>
  <speed>0.99</speed>
  <fix>3d</fix>
</trkpt>
<trkpt lat="33.8107484" lon="-118.3937823">
  <ele>-24.999</ele>
  <time>2026-09-01T01:14:32Z</time>
  <course>54.7</course>
  <speed>0.9822932352408826</speed>
  <fix>3d</fix>
</trkpt>
<trkpt lat="33.8107479" lon="-118.3937835">
  <ele>-24.39</ele>
  <time>2026-09-01T01:14:32Z</time>
  <course>53.51</course>
  <speed>0.99</speed>
  <fix>3d</fix>
</trkpt>
<trkpt lat="33.8107489" lon="-118.3937814">
  <ele>-24.999</ele>
  <time>2026-09-01T01:14:32Z</time>
  <course>54.68</course>
  <speed>0.9765244492586962</speed>
  <fix>3d</fix>
</trkpt>
<trkpt lat="33.8107479" lon="-118.3937835">
  <ele>-24.39</ele>
  <time>2026-09-01T01:14:32Z</time>
  <course>53.51</course>
  <speed>0.99</speed>
  <fix>3d</fix>
</trkpt>
<trkpt lat="33.8107495" lon="-118.3937806">
  <ele>-24.997</ele>
  <time>2026-09-01T01:14:32Z</time>
  <course>54.68</course>
  <speed>0.9822932352408826</speed>
  <fix>3d</fix>
</trkpt>
<trkpt lat="33.810749" lon="-118.3937817">
  <ele>-24.39</ele>
  <time>2026-09-01T01:14:32Z</time>
  <course>53.5</course>
  <speed>0.99</speed>
  <fix>3d</fix>
</trkpt>
<trkpt lat="33.81075" lon="-118.3937797">
  <ele>-24.996</ele>
  <time>2026-09-01T01:14:32Z</time>
  <course>54.67</course>
  <speed>0.9765244492586962</speed>
  <fix>3d</fix>
</trkpt>
<trkpt lat="33.810749" lon="-118.3937817">
  <ele>-24.39</ele>
  <time>2026-09-01T01:14:32Z</time>
  <course>53.5</course>
  <speed>0.99</speed>
  <fix>3d</fix>
</trkpt>
<trkpt lat="33.8107505" lon="-118.3937788">
  <ele>-24.996</ele>
  <time>2026-09-01T01:14:32Z</time>
  <course>54.68</course>
  <speed>0.9822932352408826</speed>
  <fix>3d</fix>
</trkpt>
<trkpt lat="33.81075" lon="-118.39378">
  <ele>-24.39</ele>
  <time>2026-09-01T01:14:32Z</time>
  <course>53.51</course>
  <speed>0.99</speed>
  <fix>3d</fix>
</trkpt>
<trkpt lat="33.8107511" lon="-118.3937779">
  <ele>-24.997</ele>
  <time>2026-09-01T01:14:32Z</time>
  <course>54.69</course>
  <speed>0.9822932352408826</speed>
  <fix>3d</fix>
</trkpt>
<trkpt lat="33.81075" lon="-118.39378">
  <ele>-24.39</ele>
  <time>2026-09-01T01:14:32Z</time>
  <course>53.51</course>
  <speed>0.99</speed>
  <fix>3d</fix>
</trkpt>
<trkpt lat="33.8107516" lon="-118.3937771">
  <ele>-24.999</ele>
  <time>2026-09-01T01:14:32Z</time>
  <course>54.68</course>
  <speed>0.9822932352408826</speed>
  <fix>3d</fix>
</trkpt>
<trkpt lat="33.8107511" lon="-118.3937783">
  <ele>-24.39</ele>
  <time>2026-09-01T01:14:32Z</time>
  <course>53.49</course>
  <speed>0.99</speed>
  <fix>3d</fix>
</trkpt>
<trkpt lat="33.8107521" lon="-118.3937762">
  <ele>-25.001</ele>
  <time>2026-09-01T01:14:32Z</time>
  <course>54.68</course>
  <speed>0.9765244492586962</speed>
  <fix>3d</fix>
</trkpt>
<trkpt lat="33.8107511" lon="-118.3937783">
  <ele>-24.39</ele>
  <time>2026-09-01T01:14:32Z</time>
  <course>53.49</course>
  <speed>0.99</speed>
  <fix>3d</fix>
</trkpt>
<trkpt lat="33.8107527" lon="-118.3937753">
  <ele>-25.0</ele>
  <time>2026-09-01T01:14:32Z</time>
  <course>54.69</course>
  <speed>0.9822932352408826</speed>
  <fix>3d</fix>
</trkpt>
<trkpt lat="33.8107521" lon="-118.3937765">
  <ele>-24.39</ele>
  <time>2026-09-01T01:14:32Z</time>
  <course>53.48</course>
  <speed>1.0</speed>
  <fix>3d</fix>
</trkpt>
<trkpt lat="33.8107532" lon="-118.3937745">
  <ele>-24.999</ele>
  <time>2026-09-01T01:14:32Z</time>
  <course>54.68</course>
  <speed>0.9822932352408826</speed>
  <fix>3d</fix>
</trkpt>
<trkpt lat="33.8107521" lon="-118.3937765">
  <ele>-24.39</ele>
  <time>2026-09-01T01:14:32Z</time>
  <course>53.48</course>
  <speed>1.0</speed>
  <fix>3d</fix>
</trkpt>
<trkpt lat="33.8107537" lon="-118.3937736">
  <ele>-24.998</ele>
  <time>2026-09-01T01:14:32Z</time>
  <course>54.66</course>
  <speed>0.9822932352408826</speed>
  <fix>3d</fix>
</trkpt>
<trkpt lat="33.8107532" lon="-118.3937748">
  <ele>-24.39</ele>
  <time>2026-09-01T01:14:32Z</time>
  <course>53.46</course>
  <speed>1.0</speed>
  <fix>3d</fix>
</trkpt>
<trkpt lat="33.8107543" lon="-118.3937727">
  <ele>-24.996</ele>
  <time>2026-09-01T01:14:32Z</time>
  <course>54.64</course>
  <speed>0.9822932352408826</speed>
  <fix>3d</fix>
</trkpt>
<trkpt lat="33.8107532" lon="-118.3937748">
  <ele>-24.39</ele>
  <time>2026-09-01T01:14:32Z</time>
  <course>53.46</course>
  <speed>1.0</speed>
  <fix>3d</fix>
</trkpt>
<trkpt lat="33.8107548" lon="-118.3937719">
  <ele>-24.994</ele>
  <time>2026-09-01T01:14:32Z</time>
  <course>54.62</course>
  <speed>0.9822932352408826</speed>
  <fix>3d</fix>
</trkpt>
<trkpt lat="33.8107543" lon="-118.3937731">
  <ele>-24.38</ele>
  <time>2026-09-01T01:14:32Z</time>
  <course>53.42</course>
  <speed>1.0</speed>
  <fix>3d</fix>
</trkpt>
<trkpt lat="33.8107553" lon="-118.393771">
  <ele>-24.991</ele>
  <time>2026-09-01T01:14:32Z</time>
  <course>54.61</course>
  <speed>0.9822932352408826</speed>
  <fix>3d</fix>
</trkpt>
<trkpt lat="33.8107543" lon="-118.3937731">
  <ele>-24.38</ele>
  <time>2026-09-01T01:14:32Z</time>
  <course>53.42</course>
  <speed>1.0</speed>
  <fix>3d</fix>
</trkpt>
<trkpt lat="33.8107559" lon="-118.3937701">
  <ele>-24.99</ele>
  <time>2026-09-01T01:14:32Z</time>
  <course>54.61</course>
  <speed>0.9822932352408826</speed>
  <fix>3d</fix>
</trkpt>
<trkpt lat="33.8107554" lon="-118.3937713">
  <ele>-24.38</ele>
  <time>2026-09-01T01:14:32Z</time>
  <course>53.43</course>
  <speed>1.0</speed>
  <fix>3d</fix>
</trkpt>
<trkpt lat="33.8107564" lon="-118.3937693">
  <ele>-24.989</ele>
  <time>2026-09-01T01:14:32Z</time>
  <course>54.62</course>
  <speed>0.9822932352408826</speed>
  <fix>3d</fix>
</trkpt>
<trkpt lat="33.8107554" lon="-118.3937713">
  <ele>-24.38</ele>
  <time>2026-09-01T01:14:32Z</time>
  <course>53.43</course>
  <speed>1.0</speed>
  <fix>3d</fix>
</trkpt>
<trkpt lat="33.810757" lon="-118.3937684">
  <ele>-24.991</ele>
  <time>2026-09-01T01:14:32Z</time>
  <course>54.64</course>
  <speed>0.9822932352408826</speed>
  <fix>3d</fix>
</trkpt>
<trkpt lat="33.8107564" lon="-118.3937695">
  <ele>-24.38</ele>
  <time>2026-09-01T01:14:32Z</time>
  <course>53.46</course>
  <speed>1.0</speed>
  <fix>3d</fix>
</trkpt>
<trkpt lat="33.8107575" lon="-118.3937675">
  <ele>-24.994</ele>
  <time>2026-09-01T01:14:32Z</time>
  <course>54.64</course>
  <speed>0.9822932352408826</speed>
  <fix>3d</fix>
</trkpt>
<trkpt lat="33.8107564" lon="-118.3937695">
  <ele>-24.38</ele>
  <time>2026-09-01T01:14:32Z</time>
  <course>53.46</course>
  <speed>1.0</speed>
  <fix>3d</fix>
</trkpt>
<trkpt lat="33.810758" lon="-118.3937666">
  <ele>-24.997</ele>
  <time>2026-09-01T01:14:32Z</time>
  <course>54.63</course>
  <speed>0.9822932352408826</speed>
  <fix>3d</fix>
</trkpt>
<trkpt lat="33.8107575" lon="-118.3937678">
  <ele>-24.39</ele>
  <time>2026-09-01T01:14:32Z</time>
  <course>53.45</course>
  <speed>1.0</speed>
  <fix>3d</fix>
</trkpt>
<trkpt lat="33.8107586" lon="-118.3937658">
  <ele>-25.0</ele>
  <time>2026-09-01T01:14:32Z</time>
  <course>54.61</course>
  <speed>0.9822932352408826</speed>
  <fix>3d</fix>
</trkpt>
<trkpt lat="33.8107575" lon="-118.3937678">
  <ele>-24.39</ele>
  <time>2026-09-01T01:14:32Z</time>
  <course>53.45</course>
  <speed>1.0</speed>
  <fix>3d</fix>
</trkpt>
<trkpt lat="33.8107591" lon="-118.3937649">
  <ele>-25.001</ele>
  <time>2026-09-01T01:14:32Z</time>
  <course>54.6</course>
  <speed>0.9822932352408826</speed>
  <fix>3d</fix>
</trkpt>
<trkpt lat="33.8107586" lon="-118.3937661">
  <ele>-24.39</ele>
  <time>2026-09-01T01:14:32Z</time>
  <course>53.41</course>
  <speed>1.0</speed>
  <fix>3d</fix>
</trkpt>
<trkpt lat="33.8107596" lon="-118.393764">
  <ele>-25.002</ele>
  <time>2026-09-01T01:14:32Z</time>
  <course>54.59</course>
  <speed>0.9822932352408826</speed>
  <fix>3d</fix>
</trkpt>
<trkpt lat="33.8107586" lon="-118.3937661">
  <ele>-24.39</ele>
  <time>2026-09-01T01:14:32Z</time>
  <course>53.41</course>
  <speed>1.0</speed>
  <fix>3d</fix>
</trkpt>
<trkpt lat="33.8107602" lon="-118.3937632">
  <ele>-25.003</ele>
  <time>2026-09-01T01:14:32Z</time>
  <course>54.6</course>
  <speed>0.9822932352408826</speed>
  <fix>3d</fix>
</trkpt>
<trkpt lat="33.8107597" lon="-118.3937643">
  <ele>-24.4</ele>
  <time>2026-09-01T01:14:32Z</time>
  <course>53.4</course>
  <speed>1.0</speed>
  <fix>3d</fix>
</trkpt>
<trkpt lat="33.8107607" lon="-118.3937623">
  <ele>-25.004</ele>
  <time>2026-09-01T01:14:32Z</time>
  <course>54.61</course>
  <speed>0.9822932352408826</speed>
  <fix>3d</fix>
</trkpt>
<trkpt lat="33.8107597" lon="-118.3937643">
  <ele>-24.4</ele>
  <time>2026-09-01T01:14:32Z</time>
  <course>53.4</course>
  <speed>1.0</speed>
  <fix>3d</fix>
</trkpt>
<trkpt lat="33.8107612" lon="-118.3937614">
  <ele>-25.004</ele>
  <time>2026-09-01T01:14:32Z</time>
  <course>54.63</course>
  <speed>0.9822932352408826</speed>
  <fix>3d</fix>
</trkpt>
<trkpt lat="33.8107607" lon="-118.3937626">
  <ele>-24.4</ele>
  <time>2026-09-01T01:14:32Z</time>
  <course>53.43</course>
  <speed>1.0</speed>
  <fix>3d</fix>
</trkpt>
<trkpt lat="33.8107618" lon="-118.3937605">
  <ele>-25.004</ele>
  <time>2026-09-01T01:14:32Z</time>
  <course>54.65</course>
  <speed>0.9822932352408826</speed>
  <fix>3d</fix>
</trkpt>
<trkpt lat="33.8107607" lon="-118.3937626">
  <ele>-24.4</ele>
  <time>2026-09-01T01:14:32Z</time>
  <course>53.43</course>
  <speed>1.0</speed>
  <fix>3d</fix>
</trkpt>
<trkpt lat="33.8107623" lon="-118.3937597">
  <ele>-25.003</ele>
  <time>2026-09-01T01:14:32Z</time>
  <course>54.66</course>
  <speed>0.9822932352408826</speed>
  <fix>3d</fix>
</trkpt>
<trkpt lat="33.8107618" lon="-118.3937609">
  <ele>-24.4</ele>
  <time>2026-09-01T01:14:32Z</time>
  <course>53.45</course>
  <speed>1.0</speed>
  <fix>3d</fix>
</trkpt>
<trkpt lat="33.8107628" lon="-118.3937588">
  <ele>-25.001</ele>
  <time>2026-09-01T01:14:32Z</time>
  <course>54.66</course>
  <speed>0.9765244492586962</speed>
  <fix>3d</fix>
</trkpt>
<trkpt lat="33.8107618" lon="-118.3937609">
  <ele>-24.4</ele>
  <time>2026-09-01T01:14:32Z</time>
  <course>53.45</course>
  <speed>1.0</speed>
  <fix>3d</fix>
</trkpt>
<trkpt lat="33.8107634" lon="-118.3937579">
  <ele>-24.998</ele>
  <time>2026-09-01T01:14:32Z</time>
  <course>54.67</course>
  <speed>0.9765244492586962</speed>
  <fix>3d</fix>
</trkpt>
<trkpt lat="33.8107629" lon="-118.3937591">
  <ele>-24.39</ele>
  <time>2026-09-01T01:14:32Z</time>
  <course>53.47</course>
  <speed>1.0</speed>
  <fix>3d</fix>
</trkpt>
<trkpt lat="33.8107639" lon="-118.3937571">
  <ele>-24.996</ele>
  <time>2026-09-01T01:14:32Z</time>
  <course>54.68</course>
  <speed>0.9765244492586962</speed>
  <fix>3d</fix>
</trkpt>
<trkpt lat="33.8107629" lon="-118.3937591">
  <ele>-24.39</ele>
  <time>2026-09-01T01:14:32Z</time>
  <course>53.47</course>
  <speed>1.0</speed>
  <fix>3d</fix>
</trkpt>
<trkpt lat="33.8107645" lon="-118.3937562">
  <ele>-24.995</ele>
  <time>2026-09-01T01:14:32Z</time>
  <course>54.69</course>
  <speed>0.9765244492586962</speed>
  <fix>3d</fix>
</trkpt>
<trkpt lat="33.810764" lon="-118.3937574">
  <ele>-24.39</ele>
  <time>2026-09-01T01:14:32Z</time>
  <course>53.49</course>
  <speed>1.0</speed>
  <fix>3d</fix>
</trkpt>
<trkpt lat="33.810765" lon="-118.3937553">
  <ele>-24.995</ele>
  <time>2026-09-01T01:14:32Z</time>
  <course>54.71</course>
  <speed>0.9765244492586962</speed>
  <fix>3d</fix>
</trkpt>
<trkpt lat="33.810764" lon="-118.3937574">
  <ele>-24.39</ele>
  <time>2026-09-01T01:14:32Z</time>
  <course>53.49</course>
  <speed>1.0</speed>
  <fix>3d</fix>
</trkpt>
<trkpt lat="33.8107655" lon="-118.3937545">
  <ele>-24.995</ele>
  <time>2026-09-01T01:14:32Z</time>
  <course>54.74</course>
  <speed>0.9765244492586962</speed>
  <fix>3d</fix>
</trkpt>
<trkpt lat="33.810765" lon="-118.3937556">
  <ele>-24.39</ele>
  <time>2026-09-01T01:14:32Z</time>
  <course>53.53</course>
  <speed>1.0</speed>
  <fix>3d</fix>
</trkpt>
<trkpt lat="33.8107661" lon="-118.3937536">
  <ele>-24.995</ele>
  <time>2026-09-01T01:14:32Z</time>
  <course>54.76</course>
  <speed>0.9765244492586962</speed>
  <fix>3d</fix>
</trkpt>
<trkpt lat="33.810765" lon="-118.3937556">
  <ele>-24.39</ele>
  <time>2026-09-01T01:14:32Z</time>
  <course>53.53</course>
  <speed>1.0</speed>
  <fix>3d</fix>
</trkpt>
<trkpt lat="33.8107666" lon="-118.3937527">
  <ele>-24.996</ele>
  <time>2026-09-01T01:14:32Z</time>
  <course>54.77</course>
  <speed>0.9765244492586962</speed>
  <fix>3d</fix>
</trkpt>
<trkpt lat="33.8107661" lon="-118.3937539">
  <ele>-24.39</ele>
  <time>2026-09-01T01:14:32Z</time>
  <course>53.54</course>
  <speed>1.0</speed>
  <fix>3d</fix>
</trkpt>
<trkpt lat="33.8107671" lon="-118.3937518">
  <ele>-24.997</ele>
  <time>2026-09-01T01:14:32Z</time>
  <course>54.76</course>
  <speed>0.9765244492586962</speed>
  <fix>3d</fix>
</trkpt>
<trkpt lat="33.8107661" lon="-118.3937539">
  <ele>-24.39</ele>
  <time>2026-09-01T01:14:32Z</time>
  <course>53.54</course>
  <speed>1.0</speed>
  <fix>3d</fix>
</trkpt>
<trkpt lat="33.8107677" lon="-118.393751">
  <ele>-24.998</ele>
  <time>2026-09-01T01:14:32Z</time>
  <course>54.77</course>
  <speed>0.9765244492586962</speed>
  <fix>3d</fix>
</trkpt>
<trkpt lat="33.8107672" lon="-118.3937522">
  <ele>-24.39</ele>
  <time>2026-09-01T01:14:32Z</time>
  <course>53.53</course>
  <speed>1.0</speed>
  <fix>3d</fix>
</trkpt>
<trkpt lat="33.8107682" lon="-118.3937501">
  <ele>-24.998</ele>
  <time>2026-09-01T01:14:32Z</time>
  <course>54.76</course>
  <speed>0.9765244492586962</speed>
  <fix>3d</fix>
</trkpt>
<trkpt lat="33.8107672" lon="-118.3937522">
  <ele>-24.39</ele>
  <time>2026-09-01T01:14:32Z</time>
  <course>53.53</course>
  <speed>1.0</speed>
  <fix>3d</fix>
</trkpt>
<trkpt lat="33.8107687" lon="-118.3937492">
  <ele>-24.999</ele>
  <time>2026-09-01T01:14:32Z</time>
  <course>54.77</course>
  <speed>0.9765244492586962</speed>
  <fix>3d</fix>
</trkpt>
<trkpt lat="33.8107682" lon="-118.3937504">
  <ele>-24.39</ele>
  <time>2026-09-01T01:14:32Z</time>
  <course>53.55</course>
  <speed>1.0</speed>
  <fix>3d</fix>
</trkpt>
<trkpt lat="33.8107693" lon="-118.3937484">
  <ele>-24.999</ele>
  <time>2026-09-01T01:14:32Z</time>
  <course>54.78</course>
  <speed>0.9765244492586962</speed>
  <fix>3d</fix>
</trkpt>
<trkpt lat="33.8107682" lon="-118.3937504">
  <ele>-24.39</ele>
  <time>2026-09-01T01:14:32Z</time>
  <course>53.55</course>
  <speed>1.0</speed>
  <fix>3d</fix>
</trkpt>
<trkpt lat="33.8107698" lon="-118.3937475">
  <ele>-24.999</ele>
  <time>2026-09-01T01:14:32Z</time>
  <course>54.79</course>
  <speed>0.9822932352408826</speed>
  <fix>3d</fix>
</trkpt>
<trkpt lat="33.8107693" lon="-118.3937487">
  <ele>-24.39</ele>
  <time>2026-09-01T01:14:32Z</time>
  <course>53.55</course>
  <speed>1.0</speed>
  <fix>3d</fix>
</trkpt>
<trkpt lat="33.8107703" lon="-118.3937466">
  <ele>-24.998</ele>
  <time>2026-09-01T01:14:32Z</time>
  <course>54.78</course>
  <speed>0.9822932352408826</speed>
  <fix>3d</fix>
</trkpt>
<trkpt lat="33.8107693" lon="-118.3937487">
  <ele>-24.39</ele>
  <time>2026-09-01T01:14:32Z</time>
  <course>53.55</course>
  <speed>1.0</speed>
  <fix>3d</fix>
</trkpt>
<trkpt lat="33.8107709" lon="-118.3937458">
  <ele>-24.997</ele>
  <time>2026-09-01T01:14:32Z</time>
  <course>54.77</course>
  <speed>0.9822932352408826</speed>
  <fix>3d</fix>
</trkpt>
<trkpt lat="33.8107704" lon="-118.3937469">
  <ele>-24.39</ele>
  <time>2026-09-01T01:14:32Z</time>
  <course>53.53</course>
  <speed>1.0</speed>
  <fix>3d</fix>
</trkpt>
<trkpt lat="33.8107714" lon="-118.3937449">
  <ele>-24.996</ele>
  <time>2026-09-01T01:14:32Z</time>
  <course>54.77</course>
  <speed>0.9822932352408826</speed>
  <fix>3d</fix>
</trkpt>
<trkpt lat="33.8107704" lon="-118.3937469">
  <ele>-24.39</ele>
  <time>2026-09-01T01:14:32Z</time>
  <course>53.53</course>
  <speed>1.0</speed>
  <fix>3d</fix>
</trkpt>
<trkpt lat="33.8107719" lon="-118.393744">
  <ele>-24.996</ele>
  <time>2026-09-01T01:14:32Z</time>
  <course>54.77</course>
  <speed>0.9822932352408826</speed>
  <fix>3d</fix>
</trkpt>
<trkpt lat="33.8107715" lon="-118.3937452">
  <ele>-24.39</ele>
  <time>2026-09-01T01:14:32Z</time>
  <course>53.54</course>
  <speed>1.0</speed>
  <fix>3d</fix>
</trkpt>
<trkpt lat="33.8107725" lon="-118.3937432">
  <ele>-24.997</ele>
  <time>2026-09-01T01:14:32Z</time>
  <course>54.77</course>
  <speed>0.9822932352408826</speed>
  <fix>3d</fix>
</trkpt>
<trkpt lat="33.8107715" lon="-118.3937452">
  <ele>-24.39</ele>
  <time>2026-09-01T01:14:32Z</time>
  <course>53.54</course>
  <speed>1.0</speed>
  <fix>3d</fix>
</trkpt>
<trkpt lat="33.810773" lon="-118.3937423">
  <ele>-24.997</ele>
  <time>2026-09-01T01:14:32Z</time>
  <course>54.79</course>
  <speed>0.9822932352408826</speed>
  <fix>3d</fix>
</trkpt>
<trkpt lat="33.8107725" lon="-118.3937434">
  <ele>-24.39</ele>
  <time>2026-09-01T01:14:32Z</time>
  <course>53.57</course>
  <speed>1.0</speed>
  <fix>3d</fix>
</trkpt>
<trkpt lat="33.8107735" lon="-118.3937414">
  <ele>-24.997</ele>
  <time>2026-09-01T01:14:32Z</time>
  <course>54.79</course>
  <speed>0.9822932352408826</speed>
  <fix>3d</fix>
</trkpt>
<trkpt lat="33.8107725" lon="-118.3937434">
  <ele>-24.39</ele>
  <time>2026-09-01T01:14:32Z</time>
  <course>53.57</course>
  <speed>1.0</speed>
  <fix>3d</fix>
</trkpt>
<trkpt lat="33.8107741" lon="-118.3937405">
  <ele>-24.996</ele>
  <time>2026-09-01T01:14:32Z</time>
  <course>54.79</course>
  <speed>0.9822932352408826</speed>
  <fix>3d</fix>
</trkpt>
<trkpt lat="33.8107736" lon="-118.3937417">
  <ele>-24.39</ele>
  <time>2026-09-01T01:14:32Z</time>
  <course>53.59</course>
  <speed>1.0</speed>
  <fix>3d</fix>
</trkpt>
<trkpt lat="33.8107746" lon="-118.3937397">
  <ele>-24.996</ele>
  <time>2026-09-01T01:14:32Z</time>
  <course>54.78</course>
  <speed>0.9822932352408826</speed>
  <fix>3d</fix>
</trkpt>
<trkpt lat="33.8107736" lon="-118.3937417">
  <ele>-24.39</ele>
  <time>2026-09-01T01:14:32Z</time>
  <course>53.59</course>
  <speed>1.0</speed>
  <fix>3d</fix>
</trkpt>
<trkpt lat="33.8107751" lon="-118.3937388">
  <ele>-24.996</ele>
  <time>2026-09-01T01:14:32Z</time>
  <course>54.77</course>
  <speed>0.9822932352408826</speed>
  <fix>3d</fix>
</trkpt>
<trkpt lat="33.8107747" lon="-118.3937399">
  <ele>-24.39</ele>
  <time>2026-09-01T01:14:32Z</time>
  <course>53.57</course>
  <speed>1.0</speed>
  <fix>3d</fix>
</trkpt>
<trkpt lat="33.8107757" lon="-118.3937379">
  <ele>-24.996</ele>
  <time>2026-09-01T01:14:32Z</time>
  <course>54.76</course>
  <speed>0.9765244492586962</speed>
  <fix>3d</fix>
</trkpt>
<trkpt lat="33.8107747" lon="-118.3937399">
  <ele>-24.39</ele>
  <time>2026-09-01T01:14:32Z</time>
  <course>53.57</course>
  <speed>1.0</speed>
  <fix>3d</fix>
</trkpt>
<trkpt lat="33.8107762" lon="-118.3937371">
  <ele>-24.996</ele>
  <time>2026-09-01T01:14:32Z</time>
  <course>54.75</course>
  <speed>0.9822932352408826</speed>
  <fix>3d</fix>
</trkpt>
<trkpt lat="33.8107758" lon="-118.3937382">
  <ele>-24.39</ele>
  <time>2026-09-01T01:14:32Z</time>
  <course>53.55</course>
  <speed>1.0</speed>
  <fix>3d</fix>
</trkpt>
<trkpt lat="33.8107767" lon="-118.3937362">
  <ele>-24.996</ele>
  <time>2026-09-01T01:14:32Z</time>
  <course>54.75</course>
  <speed>0.9765244492586962</speed>
  <fix>3d</fix>
</trkpt>
<trkpt lat="33.8107758" lon="-118.3937382">
  <ele>-24.39</ele>
  <time>2026-09-01T01:14:32Z</time>
  <course>53.55</course>
  <speed>1.0</speed>
  <fix>3d</fix>
</trkpt>
<trkpt lat="33.8107773" lon="-118.3937353">
  <ele>-24.997</ele>
  <time>2026-09-01T01:14:32Z</time>
  <course>54.76</course>
  <speed>0.9765244492586962</speed>
  <fix>3d</fix>
</trkpt>
<trkpt lat="33.8107768" lon="-118.3937364">
  <ele>-24.39</ele>
  <time>2026-09-01T01:14:32Z</time>
  <course>53.56</course>
  <speed>1.0</speed>
  <fix>3d</fix>
</trkpt>
<trkpt lat="33.8107778" lon="-118.3937344">
  <ele>-24.998</ele>
  <time>2026-09-01T01:14:32Z</time>
  <course>54.77</course>
  <speed>0.9765244492586962</speed>
  <fix>3d</fix>
</trkpt>
<trkpt lat="33.8107768" lon="-118.3937364">
  <ele>-24.39</ele>
  <time>2026-09-01T01:14:32Z</time>
  <course>53.56</course>
  <speed>1.0</speed>
  <fix>3d</fix>
</trkpt>
<trkpt lat="33.8107784" lon="-118.3937336">
  <ele>-24.997</ele>
  <time>2026-09-01T01:14:32Z</time>
  <course>54.77</course>
  <speed>0.9765244492586962</speed>
  <fix>3d</fix>
</trkpt>
<trkpt lat="33.8107779" lon="-118.3937346">
  <ele>-24.39</ele>
  <time>2026-09-01T01:14:32Z</time>
  <course>53.56</course>
  <speed>1.0</speed>
  <fix>3d</fix>
</trkpt>
<trkpt lat="33.8107789" lon="-118.3937327">
  <ele>-24.996</ele>
  <time>2026-09-01T01:14:32Z</time>
  <course>54.75</course>
  <speed>0.9765244492586962</speed>
  <fix>3d</fix>
</trkpt>
<trkpt lat="33.8107779" lon="-118.3937346">
  <ele>-24.39</ele>
  <time>2026-09-01T01:14:32Z</time>
  <course>53.56</course>
  <speed>1.0</speed>
  <fix>3d</fix>
</trkpt>
<trkpt lat="33.8107794" lon="-118.3937318">
  <ele>-24.995</ele>
  <time>2026-09-01T01:14:32Z</time>
  <course>54.74</course>
  <speed>0.9765244492586962</speed>
  <fix>3d</fix>
</trkpt>
<trkpt lat="33.810779" lon="-118.3937329">
  <ele>-24.39</ele>
  <time>2026-09-01T01:14:32Z</time>
  <course>53.51</course>
  <speed>1.0</speed>
  <fix>3d</fix>
</trkpt>
<trkpt lat="33.81078" lon="-118.3937309">
  <ele>-24.993</ele>
  <time>2026-09-01T01:14:32Z</time>
  <course>54.71</course>
  <speed>0.9765244492586962</speed>
  <fix>3d</fix>
</trkpt>
<trkpt lat="33.810779" lon="-118.3937329">
  <ele>-24.39</ele>
  <time>2026-09-01T01:14:32Z</time>
  <course>53.51</course>
  <speed>1.0</speed>
  <fix>3d</fix>
</trkpt>
<trkpt lat="33.8107805" lon="-118.3937301">
  <ele>-24.993</ele>
  <time>2026-09-01T01:14:32Z</time>
  <course>54.69</course>
  <speed>0.9765244492586962</speed>
  <fix>3d</fix>
</trkpt>
<trkpt lat="33.8107801" lon="-118.3937311">
  <ele>-24.39</ele>
  <time>2026-09-01T01:14:32Z</time>
  <course>53.48</course>
  <speed>1.0</speed>
  <fix>3d</fix>
</trkpt>
<trkpt lat="33.810781" lon="-118.3937292">
  <ele>-24.995</ele>
  <time>2026-09-01T01:14:32Z</time>
  <course>54.69</course>
  <speed>0.9683491106000975</speed>
  <fix>3d</fix>
</trkpt>
<trkpt lat="33.8107801" lon="-118.3937311">
  <ele>-24.39</ele>
  <time>2026-09-01T01:14:32Z</time>
  <course>53.48</course>
  <speed>1.0</speed>
  <fix>3d</fix>
</trkpt>
<trkpt lat="33.8107816" lon="-118.3937283">
  <ele>-24.996</ele>
  <time>2026-09-01T01:14:32Z</time>
  <course>54.69</course>
  <speed>0.9683491106000975</speed>
  <fix>3d</fix>
</trkpt>
<trkpt lat="33.8107811" lon="-118.3937294">
  <ele>-24.39</ele>
  <time>2026-09-01T01:14:32Z</time>
  <course>53.48</course>
  <speed>1.0</speed>
  <fix>3d</fix>
</trkpt>
<trkpt lat="33.8107821" lon="-118.3937275">
  <ele>-24.997</ele>
  <time>2026-09-01T01:14:32Z</time>
  <course>54.68</course>
  <speed>0.9683491106000975</speed>
  <fix>3d</fix>
</trkpt>
<trkpt lat="33.8107811" lon="-118.3937294">
  <ele>-24.39</ele>
  <time>2026-09-01T01:14:32Z</time>
  <course>53.48</course>
  <speed>1.0</speed>
  <fix>3d</fix>
</trkpt>
<trkpt lat="33.8107826" lon="-118.3937266">
  <ele>-24.997</ele>
  <time>2026-09-01T01:14:32Z</time>
  <course>54.68</course>
  <speed>0.9683491106000975</speed>
  <fix>3d</fix>
</trkpt>
<trkpt lat="33.8107822" lon="-118.3937277">
  <ele>-24.39</ele>
  <time>2026-09-01T01:14:32Z</time>
  <course>53.47</course>
  <speed>1.0</speed>
  <fix>3d</fix>
</trkpt>
<trkpt lat="33.8107832" lon="-118.3937257">
  <ele>-24.996</ele>
  <time>2026-09-01T01:14:32Z</time>
  <course>54.66</course>
  <speed>0.9683491106000975</speed>
  <fix>3d</fix>
</trkpt>
<trkpt lat="33.8107822" lon="-118.3937277">
  <ele>-24.39</ele>
  <time>2026-09-01T01:14:32Z</time>
  <course>53.47</course>
  <speed>1.0</speed>
  <fix>3d</fix>
</trkpt>
<trkpt lat="33.8107837" lon="-118.3937248">
  <ele>-24.995</ele>
  <time>2026-09-01T01:14:32Z</time>
  <course>54.67</course>
  <speed>0.9683491106000975</speed>
  <fix>3d</fix>
</trkpt>
<trkpt lat="33.8107833" lon="-118.3937259">
  <ele>-24.39</ele>
  <time>2026-09-01T01:14:32Z</time>
  <course>53.46</course>
  <speed>1.0</speed>
  <fix>3d</fix>
</trkpt>
<trkpt lat="33.8107843" lon="-118.393724">
  <ele>-24.993</ele>
  <time>2026-09-01T01:14:32Z</time>
  <course>54.67</course>
  <speed>0.9683491106000975</speed>
  <fix>3d</fix>
</trkpt>
<trkpt lat="33.8107833" lon="-118.3937259">
  <ele>-24.39</ele>
  <time>2026-09-01T01:14:32Z</time>
  <course>53.46</course>
  <speed>1.0</speed>
  <fix>3d</fix>
</trkpt>
<trkpt lat="33.8107848" lon="-118.3937231">
  <ele>-24.992</ele>
  <time>2026-09-01T01:14:32Z</time>
  <course>54.68</course>
  <speed>0.9683491106000975</speed>
  <fix>3d</fix>
</trkpt>
<trkpt lat="33.8107844" lon="-118.3937242">
  <ele>-24.39</ele>
  <time>2026-09-01T01:14:32Z</time>
  <course>53.47</course>
  <speed>1.0</speed>
  <fix>3d</fix>
</trkpt>
<trkpt lat="33.8107853" lon="-118.3937222">
  <ele>-24.99</ele>
  <time>2026-09-01T01:14:32Z</time>
  <course>54.69</course>
  <speed>0.9683491106000975</speed>
  <fix>3d</fix>
</trkpt>
<trkpt lat="33.8107844" lon="-118.3937242">
  <ele>-24.39</ele>
  <time>2026-09-01T01:14:32Z</time>
  <course>53.47</course>
  <speed>1.0</speed>
  <fix>3d</fix>
</trkpt>
<trkpt lat="33.8107859" lon="-118.3937214">
  <ele>-24.99</ele>
  <time>2026-09-01T01:14:32Z</time>
  <course>54.71</course>
  <speed>0.9683491106000975</speed>
  <fix>3d</fix>
</trkpt>
<trkpt lat="33.8107854" lon="-118.3937224">
  <ele>-24.39</ele>
  <time>2026-09-01T01:14:32Z</time>
  <course>53.51</course>
  <speed>1.0</speed>
  <fix>3d</fix>
</trkpt>
<trkpt lat="33.8107864" lon="-118.3937205">
  <ele>-24.991</ele>
  <time>2026-09-01T01:14:32Z</time>
  <course>54.72</course>
  <speed>0.9683491106000975</speed>
  <fix>3d</fix>
</trkpt>
<trkpt lat="33.8107854" lon="-118.3937224">
  <ele>-24.39</ele>
  <time>2026-09-01T01:14:32Z</time>
  <course>53.51</course>
  <speed>1.0</speed>
  <fix>3d</fix>
</trkpt>
<trkpt lat="33.8107869" lon="-118.3937196">
  <ele>-24.993</ele>
  <time>2026-09-01T01:14:32Z</time>
  <course>54.74</course>
  <speed>0.9683491106000975</speed>
  <fix>3d</fix>
</trkpt>
<trkpt lat="33.8107865" lon="-118.3937207">
  <ele>-24.39</ele>
  <time>2026-09-01T01:14:32Z</time>
  <course>53.52</course>
  <speed>1.0</speed>
  <fix>3d</fix>
</trkpt>
<trkpt lat="33.8107875" lon="-118.3937187">
  <ele>-24.995</ele>
  <time>2026-09-01T01:14:32Z</time>
  <course>54.73</course>
  <speed>0.9683491106000975</speed>
  <fix>3d</fix>
</trkpt>
<trkpt lat="33.8107865" lon="-118.3937207">
  <ele>-24.39</ele>
  <time>2026-09-01T01:14:32Z</time>
  <course>53.52</course>
  <speed>1.0</speed>
  <fix>3d</fix>
</trkpt>
<trkpt lat="33.810788" lon="-118.3937179">
  <ele>-24.997</ele>
  <time>2026-09-01T01:14:32Z</time>
  <course>54.72</course>
  <speed>0.9683491106000975</speed>
  <fix>3d</fix>
</trkpt>
<trkpt lat="33.8107876" lon="-118.393719">
  <ele>-24.4</ele>
  <time>2026-09-01T01:14:32Z</time>
  <course>53.5</course>
  <speed>0.99</speed>
  <fix>3d</fix>
</trkpt>
<trkpt lat="33.8107885" lon="-118.393717">
  <ele>-25.0</ele>
  <time>2026-09-01T01:14:32Z</time>
  <course>54.72</course>
  <speed>0.9683491106000975</speed>
  <fix>3d</fix>
</trkpt>
<trkpt lat="33.8107876" lon="-118.393719">
  <ele>-24.4</ele>
  <time>2026-09-01T01:14:32Z</time>
  <course>53.5</course>
  <speed>0.99</speed>
  <fix>3d</fix>
</trkpt>
<trkpt lat="33.8107891" lon="-118.3937161">
  <ele>-25.001</ele>
  <time>2026-09-01T01:14:32Z</time>
  <course>54.74</course>
  <speed>0.9683491106000975</speed>
  <fix>3d</fix>
</trkpt>
<trkpt lat="33.8107886" lon="-118.3937172">
  <ele>-24.4</ele>
  <time>2026-09-01T01:14:32Z</time>
  <course>53.52</course>
  <speed>0.99</speed>
  <fix>3d</fix>
</trkpt>
<trkpt lat="33.8107896" lon="-118.3937153">
  <ele>-25.001</ele>
  <time>2026-09-01T01:14:32Z</time>
  <course>54.75</course>
  <speed>0.9683491106000975</speed>
  <fix>3d</fix>
</trkpt>
<trkpt lat="33.8107886" lon="-118.3937172">
  <ele>-24.4</ele>
  <time>2026-09-01T01:14:32Z</time>
  <course>53.52</course>
  <speed>0.99</speed>
  <fix>3d</fix>
</trkpt>
<trkpt lat="33.8107901" lon="-118.3937144">
  <ele>-25.001</ele>
  <time>2026-09-01T01:14:32Z</time>
  <course>54.76</course>
  <speed>0.9683491106000975</speed>
  <fix>3d</fix>
</trkpt>
<trkpt lat="33.8107897" lon="-118.3937154">
  <ele>-24.41</ele>
  <time>2026-09-01T01:14:32Z</time>
  <course>53.53</course>
  <speed>0.99</speed>
  <fix>3d</fix>
</trkpt>
<trkpt lat="33.8107907" lon="-118.3937135">
  <ele>-25.0</ele>
  <time>2026-09-01T01:14:32Z</time>
  <course>54.74</course>
  <speed>0.9683491106000975</speed>
  <fix>3d</fix>
</trkpt>
<trkpt lat="33.8107897" lon="-118.3937154">
  <ele>-24.41</ele>
  <time>2026-09-01T01:14:32Z</time>
  <course>53.53</course>
  <speed>0.99</speed>
  <fix>3d</fix>
</trkpt>
<trkpt lat="33.8107912" lon="-118.3937126">
  <ele>-24.999</ele>
  <time>2026-09-01T01:14:32Z</time>
  <course>54.72</course>
  <speed>0.9683491106000975</speed>
  <fix>3d</fix>
</trkpt>
<trkpt lat="33.8107908" lon="-118.3937137">
  <ele>-24.4</ele>
  <time>2026-09-01T01:14:32Z</time>
  <course>53.5</course>
  <speed>0.99</speed>
  <fix>3d</fix>
</trkpt>
<trkpt lat="33.8107917" lon="-118.3937118">
  <ele>-24.999</ele>
  <time>2026-09-01T01:14:32Z</time>
  <course>54.69</course>
  <speed>0.9683491106000975</speed>
  <fix>3d</fix>
</trkpt>
<trkpt lat="33.8107908" lon="-118.3937137">
  <ele>-24.4</ele>
  <time>2026-09-01T01:14:32Z</time>
  <course>53.5</course>
  <speed>0.99</speed>
  <fix>3d</fix>
</trkpt>
<trkpt lat="33.8107923" lon="-118.3937109">
  <ele>-24.998</ele>
  <time>2026-09-01T01:14:32Z</time>
  <course>54.68</course>
  <speed>0.9683491106000975</speed>
  <fix>3d</fix>
</trkpt>
<trkpt lat="33.8107918" lon="-118.393712">
  <ele>-24.4</ele>
  <time>2026-09-01T01:14:32Z</time>
  <course>53.46</course>
  <speed>0.99</speed>
  <fix>3d</fix>
</trkpt>
<trkpt lat="33.8107928" lon="-118.39371">
  <ele>-24.998</ele>
  <time>2026-09-01T01:14:32Z</time>
  <course>54.67</course>
  <speed>0.9683491106000975</speed>
  <fix>3d</fix>
</trkpt>
<trkpt lat="33.8107918" lon="-118.393712">
  <ele>-24.4</ele>
  <time>2026-09-01T01:14:32Z</time>
  <course>53.46</course>
  <speed>0.99</speed>
  <fix>3d</fix>
</trkpt>
<trkpt lat="33.8107934" lon="-118.3937092">
  <ele>-24.998</ele>
  <time>2026-09-01T01:14:32Z</time>
  <course>54.66</course>
  <speed>0.9683491106000975</speed>
  <fix>3d</fix>
</trkpt>
<trkpt lat="33.8107929" lon="-118.3937103">
  <ele>-24.4</ele>
  <time>2026-09-01T01:14:32Z</time>
  <course>53.44</course>
  <speed>0.99</speed>
  <fix>3d</fix>
</trkpt>
<trkpt lat="33.8107939" lon="-118.3937083">
  <ele>-24.999</ele>
  <time>2026-09-01T01:14:32Z</time>
  <course>54.65</course>
  <speed>0.9683491106000975</speed>
  <fix>3d</fix>
</trkpt>
<trkpt lat="33.8107929" lon="-118.3937103">
  <ele>-24.4</ele>
  <time>2026-09-01T01:14:32Z</time>
  <course>53.44</course>
  <speed>0.99</speed>
  <fix>3d</fix>
</trkpt>
<trkpt lat="33.8107944" lon="-118.3937074">
  <ele>-25.0</ele>
  <time>2026-09-01T01:14:32Z</time>
  <course>54.65</course>
  <speed>0.9683491106000975</speed>
  <fix>3d</fix>
</trkpt>
<trkpt lat="33.810794" lon="-118.3937085">
  <ele>-24.4</ele>
  <time>2026-09-01T01:14:32Z</time>
  <course>53.43</course>
  <speed>0.99</speed>
  <fix>3d</fix>
</trkpt>
<trkpt lat="33.810795" lon="-118.3937066">
  <ele>-25.001</ele>
  <time>2026-09-01T01:14:32Z</time>
  <course>54.65</course>
  <speed>0.9683491106000975</speed>
  <fix>3d</fix>
</trkpt>
<trkpt lat="33.810794" lon="-118.3937085">
  <ele>-24.4</ele>
  <time>2026-09-01T01:14:32Z</time>
  <course>53.43</course>
  <speed>0.99</speed>
  <fix>3d</fix>
</trkpt>
<trkpt lat="33.8107955" lon="-118.3937057">
  <ele>-25.0</ele>
  <time>2026-09-01T01:14:32Z</time>
  <course>54.66</course>
  <speed>0.9683491106000975</speed>
  <fix>3d</fix>
</trkpt>
<trkpt lat="33.810795" lon="-118.3937068">
  <ele>-24.4</ele>
  <time>2026-09-01T01:14:32Z</time>
  <course>53.46</course>
  <speed>0.99</speed>
  <fix>3d</fix>
</trkpt>
<trkpt lat="33.810796" lon="-118.3937048">
  <ele>-25.0</ele>
  <time>2026-09-01T01:14:32Z</time>
  <course>54.67</course>
  <speed>0.9683491106000975</speed>
  <fix>3d</fix>
</trkpt>
<trkpt lat="33.810795" lon="-118.3937068">
  <ele>-24.4</ele>
  <time>2026-09-01T01:14:32Z</time>
  <course>53.46</course>
  <speed>0.99</speed>
  <fix>3d</fix>
</trkpt>
<trkpt lat="33.8107966" lon="-118.3937039">
  <ele>-24.999</ele>
  <time>2026-09-01T01:14:32Z</time>
  <course>54.67</course>
  <speed>0.9683491106000975</speed>
  <fix>3d</fix>
</trkpt>
<trkpt lat="33.8107961" lon="-118.3937051">
  <ele>-24.4</ele>
  <time>2026-09-01T01:14:32Z</time>
  <course>53.46</course>
  <speed>0.99</speed>
  <fix>3d</fix>
</trkpt>
<trkpt lat="33.8107971" lon="-118.3937031">
  <ele>-24.998</ele>
  <time>2026-09-01T01:14:32Z</time>
  <course>54.66</course>
  <speed>0.9683491106000975</speed>
  <fix>3d</fix>
</trkpt>
<trkpt lat="33.8107961" lon="-118.3937051">
  <ele>-24.4</ele>
  <time>2026-09-01T01:14:32Z</time>
  <course>53.46</course>
  <speed>0.99</speed>
  <fix>3d</fix>
</trkpt>
<trkpt lat="33.8107976" lon="-118.3937022">
  <ele>-24.997</ele>
  <time>2026-09-01T01:14:32Z</time>
  <course>54.66</course>
  <speed>0.9683491106000975</speed>
  <fix>3d</fix>
</trkpt>
<trkpt lat="33.8107971" lon="-118.3937033">
  <ele>-24.39</ele>
  <time>2026-09-01T01:14:32Z</time>
  <course>53.45</course>
  <speed>0.99</speed>
  <fix>3d</fix>
</trkpt>
<trkpt lat="33.8107982" lon="-118.3937013">
  <ele>-24.996</ele>
  <time>2026-09-01T01:14:32Z</time>
  <course>54.66</course>
  <speed>0.9683491106000975</speed>
  <fix>3d</fix>
</trkpt>
<trkpt lat="33.8107971" lon="-118.3937033">
  <ele>-24.39</ele>
  <time>2026-09-01T01:14:32Z</time>
  <course>53.45</course>
  <speed>0.99</speed>
  <fix>3d</fix>
</trkpt>
<trkpt lat="33.8107987" lon="-118.3937005">
  <ele>-24.995</ele>
  <time>2026-09-01T01:14:32Z</time>
  <course>54.64</course>
  <speed>0.9683491106000975</speed>
  <fix>3d</fix>
</trkpt>
<trkpt lat="33.8107982" lon="-118.3937016">
  <ele>-24.39</ele>
  <time>2026-09-01T01:14:32Z</time>
  <course>53.43</course>
  <speed>0.99</speed>
  <fix>3d</fix>
</trkpt>
<trkpt lat="33.8107992" lon="-118.3936996">
  <ele>-24.995</ele>
  <time>2026-09-01T01:14:32Z</time>
  <course>54.61</course>
  <speed>0.9683491106000975</speed>
  <fix>3d</fix>
</trkpt>
<trkpt lat="33.8107982" lon="-118.3937016">
  <ele>-24.39</ele>
  <time>2026-09-01T01:14:32Z</time>
  <course>53.43</course>
  <speed>0.99</speed>
  <fix>3d</fix>
</trkpt>
<trkpt lat="33.8107998" lon="-118.3936987">
  <ele>-24.994</ele>
  <time>2026-09-01T01:14:32Z</time>
  <course>54.59</course>
  <speed>0.9765244492586962</speed>
  <fix>3d</fix>
</trkpt>
<trkpt lat="33.8107993" lon="-118.3936999">
  <ele>-24.39</ele>
  <time>2026-09-01T01:14:32Z</time>
  <course>53.37</course>
  <speed>1.0</speed>
  <fix>3d</fix>
</trkpt>
<trkpt lat="33.8108003" lon="-118.3936979">
  <ele>-24.993</ele>
  <time>2026-09-01T01:14:32Z</time>
  <course>54.59</course>
  <speed>0.9765244492586962</speed>
  <fix>3d</fix>
</trkpt>
<trkpt lat="33.8107993" lon="-118.3936999">
  <ele>-24.39</ele>
  <time>2026-09-01T01:14:32Z</time>
  <course>53.37</course>
  <speed>1.0</speed>
  <fix>3d</fix>
</trkpt>
<trkpt lat="33.8108008" lon="-118.393697">
  <ele>-24.993</ele>
  <time>2026-09-01T01:14:32Z</time>
  <course>54.6</course>
  <speed>0.9765244492586962</speed>
  <fix>3d</fix>
</trkpt>
<trkpt lat="33.8108004" lon="-118.3936981">
  <ele>-24.39</ele>
  <time>2026-09-01T01:14:32Z</time>
  <course>53.35</course>
  <speed>1.0</speed>
  <fix>3d</fix>
</trkpt>
<trkpt lat="33.8108014" lon="-118.3936961">
  <ele>-24.993</ele>
  <time>2026-09-01T01:14:32Z</time>
  <course>54.61</course>
  <speed>0.9765244492586962</speed>
  <fix>3d</fix>
</trkpt>
<trkpt lat="33.8108004" lon="-118.3936981">
  <ele>-24.39</ele>
  <time>2026-09-01T01:14:32Z</time>
  <course>53.35</course>
  <speed>1.0</speed>
  <fix>3d</fix>
</trkpt>
<trkpt lat="33.8108019" lon="-118.3936953">
  <ele>-24.994</ele>
  <time>2026-09-01T01:14:32Z</time>
  <course>54.64</course>
  <speed>0.9765244492586962</speed>
  <fix>3d</fix>
</trkpt>
<trkpt lat="33.8108014" lon="-118.3936964">
  <ele>-24.39</ele>
  <time>2026-09-01T01:14:32Z</time>
  <course>53.38</course>
  <speed>1.0</speed>
  <fix>3d</fix>
</trkpt>
<trkpt lat="33.8108024" lon="-118.3936944">
  <ele>-24.995</ele>
  <time>2026-09-01T01:14:32Z</time>
  <course>54.66</course>
  <speed>0.9765244492586962</speed>
  <fix>3d</fix>
</trkpt>
<trkpt lat="33.8108014" lon="-118.3936964">
  <ele>-24.39</ele>
  <time>2026-09-01T01:14:32Z</time>
  <course>53.38</course>
  <speed>1.0</speed>
  <fix>3d</fix>
</trkpt>
<trkpt lat="33.810803" lon="-118.3936935">
  <ele>-24.996</ele>
  <time>2026-09-01T01:14:32Z</time>
  <course>54.67</course>
  <speed>0.9765244492586962</speed>
  <fix>3d</fix>
</trkpt>
<trkpt lat="33.8108025" lon="-118.3936946">
  <ele>-24.39</ele>
  <time>2026-09-01T01:14:32Z</time>
  <course>53.4</course>
  <speed>1.0</speed>
  <fix>3d</fix>
</trkpt>
<trkpt lat="33.8108035" lon="-118.3936926">
  <ele>-24.996</ele>
  <time>2026-09-01T01:14:32Z</time>
  <course>54.67</course>
  <speed>0.9765244492586962</speed>
  <fix>3d</fix>
</trkpt>
<trkpt lat="33.8108025" lon="-118.3936946">
  <ele>-24.39</ele>
  <time>2026-09-01T01:14:32Z</time>
  <course>53.4</course>
  <speed>1.0</speed>
  <fix>3d</fix>
</trkpt>
<trkpt lat="33.810804" lon="-118.3936918">
  <ele>-24.996</ele>
  <time>2026-09-01T01:14:32Z</time>
  <course>54.67</course>
  <speed>0.9765244492586962</speed>
  <fix>3d</fix>
</trkpt>
<trkpt lat="33.8108036" lon="-118.3936929">
  <ele>-24.39</ele>
  <time>2026-09-01T01:14:32Z</time>
  <course>53.37</course>
  <speed>1.0</speed>
  <fix>3d</fix>
</trkpt>
<trkpt lat="33.8108046" lon="-118.3936909">
  <ele>-24.997</ele>
  <time>2026-09-01T01:14:32Z</time>
  <course>54.66</course>
  <speed>0.9765244492586962</speed>
  <fix>3d</fix>
</trkpt>
<trkpt lat="33.8108036" lon="-118.3936929">
  <ele>-24.39</ele>
  <time>2026-09-01T01:14:32Z</time>
  <course>53.37</course>
  <speed>1.0</speed>
  <fix>3d</fix>
</trkpt>
<trkpt lat="33.8108051" lon="-118.39369">
  <ele>-24.998</ele>
  <time>2026-09-01T01:14:32Z</time>
  <course>54.68</course>
  <speed>0.9765244492586962</speed>
  <fix>3d</fix>
</trkpt>
<trkpt lat="33.8108047" lon="-118.3936912">
  <ele>-24.39</ele>
  <time>2026-09-01T01:14:32Z</time>
  <course>53.36</course>
  <speed>1.0</speed>
  <fix>3d</fix>
</trkpt>
<trkpt lat="33.8108057" lon="-118.3936892">
  <ele>-24.998</ele>
  <time>2026-09-01T01:14:32Z</time>
  <course>54.69</course>
  <speed>0.9765244492586962</speed>
  <fix>3d</fix>
</trkpt>
<trkpt lat="33.8108047" lon="-118.3936912">
  <ele>-24.39</ele>
  <time>2026-09-01T01:14:32Z</time>
  <course>53.36</course>
  <speed>1.0</speed>
  <fix>3d</fix>
</trkpt>
<trkpt lat="33.8108062" lon="-118.3936883">
  <ele>-24.999</ele>
  <time>2026-09-01T01:14:32Z</time>
  <course>54.73</course>
  <speed>0.9765244492586962</speed>
  <fix>3d</fix>
</trkpt>
<trkpt lat="33.8108058" lon="-118.3936894">
  <ele>-24.39</ele>
  <time>2026-09-01T01:14:32Z</time>
  <course>53.41</course>
  <speed>1.0</speed>
  <fix>3d</fix>
</trkpt>
<trkpt lat="33.8108067" lon="-118.3936874">
  <ele>-24.999</ele>
  <time>2026-09-01T01:14:32Z</time>
  <course>54.76</course>
  <speed>0.9765244492586962</speed>
  <fix>3d</fix>
</trkpt>
<trkpt lat="33.8108058" lon="-118.3936894">
  <ele>-24.39</ele>
  <time>2026-09-01T01:14:32Z</time>
  <course>53.41</course>
  <speed>1.0</speed>
  <fix>3d</fix>
</trkpt>
<trkpt lat="33.8108073" lon="-118.3936866">
  <ele>-24.999</ele>
  <time>2026-09-01T01:14:32Z</time>
  <course>54.8</course>
  <speed>0.9765244492586962</speed>
  <fix>3d</fix>
</trkpt>
<trkpt lat="33.8108068" lon="-118.3936877">
  <ele>-24.39</ele>
  <time>2026-09-01T01:14:32Z</time>
  <course>53.48</course>
  <speed>1.0</speed>
  <fix>3d</fix>
</trkpt>
<trkpt lat="33.8108078" lon="-118.3936857">
  <ele>-24.999</ele>
  <time>2026-09-01T01:14:32Z</time>
  <course>54.84</course>
  <speed>0.9765244492586962</speed>
  <fix>3d</fix>
</trkpt>
<trkpt lat="33.8108068" lon="-118.3936877">
  <ele>-24.39</ele>
  <time>2026-09-01T01:14:32Z</time>
  <course>53.48</course>
  <speed>1.0</speed>
  <fix>3d</fix>
</trkpt>
<trkpt lat="33.8108083" lon="-118.3936848">
  <ele>-24.998</ele>
  <time>2026-09-01T01:14:32Z</time>
  <course>54.87</course>
  <speed>0.9765244492586962</speed>
  <fix>3d</fix>
</trkpt>
<trkpt lat="33.8108079" lon="-118.393686">
  <ele>-24.39</ele>
  <time>2026-09-01T01:14:32Z</time>
  <course>53.53</course>
  <speed>0.99</speed>
  <fix>3d</fix>
</trkpt>
<trkpt lat="33.8108089" lon="-118.3936839">
  <ele>-24.996</ele>
  <time>2026-09-01T01:14:32Z</time>
  <course>54.88</course>
  <speed>0.9765244492586962</speed>
  <fix>3d</fix>
</trkpt>
<trkpt lat="33.8108079" lon="-118.393686">
  <ele>-24.39</ele>
  <time>2026-09-01T01:14:32Z</time>
  <course>53.53</course>
  <speed>0.99</speed>
  <fix>3d</fix>
</trkpt>
<trkpt lat="33.8108094" lon="-118.3936831">
  <ele>-24.994</ele>
  <time>2026-09-01T01:14:32Z</time>
  <course>54.9</course>
  <speed>0.9765244492586962</speed>
  <fix>3d</fix>
</trkpt>
<trkpt lat="33.810809" lon="-118.3936842">
  <ele>-24.39</ele>
  <time>2026-09-01T01:14:32Z</time>
  <course>53.55</course>
  <speed>0.99</speed>
  <fix>3d</fix>
</trkpt>
<trkpt lat="33.8108099" lon="-118.3936822">
  <ele>-24.993</ele>
  <time>2026-09-01T01:14:32Z</time>
  <course>54.91</course>
  <speed>0.9765244492586962</speed>
  <fix>3d</fix>
</trkpt>
<trkpt lat="33.810809" lon="-118.3936842">
  <ele>-24.39</ele>
  <time>2026-09-01T01:14:32Z</time>
  <course>53.55</course>
  <speed>0.99</speed>
  <fix>3d</fix>
</trkpt>
<trkpt lat="33.8108105" lon="-118.3936813">
  <ele>-24.994</ele>
  <time>2026-09-01T01:14:32Z</time>
  <course>54.94</course>
  <speed>0.9765244492586962</speed>
  <fix>3d</fix>
</trkpt>
<trkpt lat="33.81081" lon="-118.3936825">
  <ele>-24.39</ele>
  <time>2026-09-01T01:14:32Z</time>
  <course>53.58</course>
  <speed>0.99</speed>
  <fix>3d</fix>
</trkpt>
<trkpt lat="33.810811" lon="-118.3936805">
  <ele>-24.995</ele>
  <time>2026-09-01T01:14:32Z</time>
  <course>54.95</course>
  <speed>0.9765244492586962</speed>
  <fix>3d</fix>
</trkpt>
<trkpt lat="33.81081" lon="-118.3936825">
  <ele>-24.39</ele>
  <time>2026-09-01T01:14:32Z</time>
  <course>53.58</course>
  <speed>0.99</speed>
  <fix>3d</fix>
</trkpt>
<trkpt lat="33.8108115" lon="-118.3936796">
  <ele>-24.997</ele>
  <time>2026-09-01T01:14:32Z</time>
  <course>54.96</course>
  <speed>0.9765244492586962</speed>
  <fix>3d</fix>
</trkpt>
<trkpt lat="33.8108111" lon="-118.3936807">
  <ele>-24.39</ele>
  <time>2026-09-01T01:14:32Z</time>
  <course>53.58</course>
  <speed>0.99</speed>
  <fix>3d</fix>
</trkpt>
<trkpt lat="33.8108121" lon="-118.3936787">
  <ele>-24.998</ele>
  <time>2026-09-01T01:14:32Z</time>
  <course>54.96</course>
  <speed>0.9765244492586962</speed>
  <fix>3d</fix>
</trkpt>
<trkpt lat="33.8108111" lon="-118.3936807">
  <ele>-24.39</ele>
  <time>2026-09-01T01:14:32Z</time>
  <course>53.58</course>
  <speed>0.99</speed>
  <fix>3d</fix>
</trkpt>
<trkpt lat="33.8108126" lon="-118.3936779">
  <ele>-24.999</ele>
  <time>2026-09-01T01:14:32Z</time>
  <course>54.94</course>
  <speed>0.9765244492586962</speed>
  <fix>3d</fix>
</trkpt>
<trkpt lat="33.8108122" lon="-118.393679">
  <ele>-24.39</ele>
  <time>2026-09-01T01:14:32Z</time>
  <course>53.56</course>
  <speed>0.99</speed>
  <fix>3d</fix>
</trkpt>
<trkpt lat="33.8108132" lon="-118.393677">
  <ele>-25.0</ele>
  <time>2026-09-01T01:14:32Z</time>
  <course>54.92</course>
  <speed>0.9765244492586962</speed>
  <fix>3d</fix>
</trkpt>
<trkpt lat="33.8108122" lon="-118.393679">
  <ele>-24.39</ele>
  <time>2026-09-01T01:14:32Z</time>
  <course>53.56</course>
  <speed>0.99</speed>
  <fix>3d</fix>
</trkpt>
<trkpt lat="33.8108137" lon="-118.3936761">
  <ele>-24.999</ele>
  <time>2026-09-01T01:14:32Z</time>
  <course>54.92</course>
  <speed>0.9765244492586962</speed>
  <fix>3d</fix>
</trkpt>
<trkpt lat="33.8108132" lon="-118.3936773">
  <ele>-24.38</ele>
  <time>2026-09-01T01:14:32Z</time>
  <course>53.57</course>
  <speed>0.99</speed>
  <fix>3d</fix>
</trkpt>
<trkpt lat="33.8108142" lon="-118.3936752">
  <ele>-24.996</ele>
  <time>2026-09-01T01:14:32Z</time>
  <course>54.93</course>
  <speed>0.9765244492586962</speed>
  <fix>3d</fix>
</trkpt>
<trkpt lat="33.8108132" lon="-118.3936773">
  <ele>-24.38</ele>
  <time>2026-09-01T01:14:32Z</time>
  <course>53.57</course>
  <speed>0.99</speed>
  <fix>3d</fix>
</trkpt>
<trkpt lat="33.8108148" lon="-118.3936744">
  <ele>-24.992</ele>
  <time>2026-09-01T01:14:32Z</time>
  <course>54.92</course>
  <speed>0.9765244492586962</speed>
  <fix>3d</fix>
</trkpt>
<trkpt lat="33.8108143" lon="-118.3936755">
  <ele>-24.38</ele>
  <time>2026-09-01T01:14:32Z</time>
  <course>53.58</course>
  <speed>0.99</speed>
  <fix>3d</fix>
</trkpt>
<trkpt lat="33.8108153" lon="-118.3936735">
  <ele>-24.989</ele>
  <time>2026-09-01T01:14:32Z</time>
  <course>54.92</course>
  <speed>0.9765244492586962</speed>
  <fix>3d</fix>
</trkpt>
<trkpt lat="33.8108143" lon="-118.3936755">
  <ele>-24.38</ele>
  <time>2026-09-01T01:14:32Z</time>
  <course>53.58</course>
  <speed>0.99</speed>
  <fix>3d</fix>
</trkpt>
<trkpt lat="33.8108158" lon="-118.3936726">
  <ele>-24.989</ele>
  <time>2026-09-01T01:14:32Z</time>
  <course>54.9</course>
  <speed>0.9765244492586962</speed>
  <fix>3d</fix>
</trkpt>
<trkpt lat="33.8108153" lon="-118.3936738">
  <ele>-24.38</ele>
  <time>2026-09-01T01:14:32Z</time>
  <course>53.57</course>
  <speed>0.99</speed>
  <fix>3d</fix>
</trkpt>
<trkpt lat="33.8108164" lon="-118.3936718">
  <ele>-24.99</ele>
  <time>2026-09-01T01:14:32Z</time>
  <course>54.88</course>
  <speed>0.9765244492586962</speed>
  <fix>3d</fix>
</trkpt>
<trkpt lat="33.8108153" lon="-118.3936738">
  <ele>-24.38</ele>
  <time>2026-09-01T01:14:32Z</time>
  <course>53.57</course>
  <speed>0.99</speed>
  <fix>3d</fix>
</trkpt>
<trkpt lat="33.8108169" lon="-118.3936709">
  <ele>-24.992</ele>
  <time>2026-09-01T01:14:32Z</time>
  <course>54.87</course>
  <speed>0.9765244492586962</speed>
  <fix>3d</fix>
</trkpt>
<trkpt lat="33.8108164" lon="-118.3936721">
  <ele>-24.38</ele>
  <time>2026-09-01T01:14:32Z</time>
  <course>53.53</course>
  <speed>0.99</speed>
  <fix>3d</fix>
</trkpt>
<trkpt lat="33.8108174" lon="-118.39367">
  <ele>-24.994</ele>
  <time>2026-09-01T01:14:32Z</time>
  <course>54.84</course>
  <speed>0.9765244492586962</speed>
  <fix>3d</fix>
</trkpt>
<trkpt lat="33.8108164" lon="-118.3936721">
  <ele>-24.38</ele>
  <time>2026-09-01T01:14:32Z</time>
  <course>53.53</course>
  <speed>0.99</speed>
  <fix>3d</fix>
</trkpt>
<trkpt lat="33.810818" lon="-118.3936692">
  <ele>-24.996</ele>
  <time>2026-09-01T01:14:32Z</time>
  <course>54.83</course>
  <speed>0.9765244492586962</speed>
  <fix>3d</fix>
</trkpt>
<trkpt lat="33.8108175" lon="-118.3936703">
  <ele>-24.38</ele>
  <time>2026-09-01T01:14:32Z</time>
  <course>53.49</course>
  <speed>1.0</speed>
  <fix>3d</fix>
</trkpt>
<trkpt lat="33.8108185" lon="-118.3936683">
  <ele>-24.995</ele>
  <time>2026-09-01T01:14:32Z</time>
  <course>54.82</course>
  <speed>0.9765244492586962</speed>
  <fix>3d</fix>
</trkpt>
<trkpt lat="33.8108175" lon="-118.3936703">
  <ele>-24.38</ele>
  <time>2026-09-01T01:14:32Z</time>
  <course>53.49</course>
  <speed>1.0</speed>
  <fix>3d</fix>
</trkpt>
<trkpt lat="33.810819" lon="-118.3936674">
  <ele>-24.993</ele>
  <time>2026-09-01T01:14:32Z</time>
  <course>54.82</course>
  <speed>0.9765244492586962</speed>
  <fix>3d</fix>
</trkpt>
<trkpt lat="33.8108186" lon="-118.3936686">
  <ele>-24.38</ele>
  <time>2026-09-01T01:14:32Z</time>
  <course>53.51</course>
  <speed>1.0</speed>
  <fix>3d</fix>
</trkpt>
<trkpt lat="33.8108196" lon="-118.3936665">
  <ele>-24.991</ele>
  <time>2026-09-01T01:14:32Z</time>
  <course>54.82</course>
  <speed>0.9765244492586962</speed>
  <fix>3d</fix>
</trkpt>
<trkpt lat="33.8108186" lon="-118.3936686">
  <ele>-24.38</ele>
  <time>2026-09-01T01:14:32Z</time>
  <course>53.51</course>
  <speed>1.0</speed>
  <fix>3d</fix>
</trkpt>
<trkpt lat="33.8108201" lon="-118.3936657">
  <ele>-24.99</ele>
  <time>2026-09-01T01:14:32Z</time>
  <course>54.85</course>
  <speed>0.9765244492586962</speed>
  <fix>3d</fix>
</trkpt>
<trkpt lat="33.8108196" lon="-118.3936668">
  <ele>-24.38</ele>
  <time>2026-09-01T01:14:32Z</time>
  <course>53.54</course>
  <speed>1.0</speed>
  <fix>3d</fix>
</trkpt>
<trkpt lat="33.8108206" lon="-118.3936648">
  <ele>-24.989</ele>
  <time>2026-09-01T01:14:32Z</time>
  <course>54.86</course>
  <speed>0.9765244492586962</speed>
  <fix>3d</fix>
</trkpt>
<trkpt lat="33.8108196" lon="-118.3936668">
  <ele>-24.38</ele>
  <time>2026-09-01T01:14:32Z</time>
  <course>53.54</course>
  <speed>1.0</speed>
  <fix>3d</fix>
</trkpt>
<trkpt lat="33.8108212" lon="-118.3936639">
  <ele>-24.99</ele>
  <time>2026-09-01T01:14:32Z</time>
  <course>54.86</course>
  <speed>0.9765244492586962</speed>
  <fix>3d</fix>
</trkpt>
<trkpt lat="33.8108207" lon="-118.3936651">
  <ele>-24.38</ele>
  <time>2026-09-01T01:14:32Z</time>
  <course>53.54</course>
  <speed>1.0</speed>
  <fix>3d</fix>
</trkpt>
<trkpt lat="33.8108217" lon="-118.3936631">
  <ele>-24.992</ele>
  <time>2026-09-01T01:14:32Z</time>
  <course>54.84</course>
  <speed>0.9765244492586962</speed>
  <fix>3d</fix>
</trkpt>
<trkpt lat="33.8108207" lon="-118.3936651">
  <ele>-24.38</ele>
  <time>2026-09-01T01:14:32Z</time>
  <course>53.54</course>
  <speed>1.0</speed>
  <fix>3d</fix>
</trkpt>
<trkpt lat="33.8108222" lon="-118.3936622">
  <ele>-24.993</ele>
  <time>2026-09-01T01:14:32Z</time>
  <course>54.84</course>
  <speed>0.9765244492586962</speed>
  <fix>3d</fix>
</trkpt>
<trkpt lat="33.8108218" lon="-118.3936634">
  <ele>-24.38</ele>
  <time>2026-09-01T01:14:32Z</time>
  <course>53.52</course>
  <speed>1.0</speed>
  <fix>3d</fix>
</trkpt>
<trkpt lat="33.8108228" lon="-118.3936613">
  <ele>-24.994</ele>
  <time>2026-09-01T01:14:33Z</time>
  <course>54.84</course>
  <speed>0.9765244492586962</speed>
  <fix>3d</fix>
</trkpt>
<trkpt lat="33.8108218" lon="-118.3936634">
  <ele>-24.38</ele>
  <time>2026-09-01T01:14:33Z</time>
  <course>53.52</course>
  <speed>1.0</speed>
  <fix>3d</fix>
</trkpt>
<trkpt lat="33.8108233" lon="-118.3936604">
  <ele>-24.996</ele>
  <time>2026-09-01T01:14:33Z</time>
  <course>54.86</course>
  <speed>0.9765244492586962</speed>
  <fix>3d</fix>
</trkpt>
<trkpt lat="33.8108228" lon="-118.3936616">
  <ele>-24.39</ele>
  <time>2026-09-01T01:14:33Z</time>
  <course>53.54</course>
  <speed>1.0</speed>
  <fix>3d</fix>
</trkpt>
<trkpt lat="33.8108238" lon="-118.3936596">
  <ele>-24.997</ele>
  <time>2026-09-01T01:14:33Z</time>
  <course>54.87</course>
  <speed>0.9765244492586962</speed>
  <fix>3d</fix>
</trkpt>
<trkpt lat="33.8108228" lon="-118.3936616">
  <ele>-24.39</ele>
  <time>2026-09-01T01:14:33Z</time>
  <course>53.54</course>
  <speed>1.0</speed>
  <fix>3d</fix>
</trkpt>
<trkpt lat="33.8108244" lon="-118.3936587">
  <ele>-24.998</ele>
  <time>2026-09-01T01:14:33Z</time>
  <course>54.87</course>
  <speed>0.9765244492586962</speed>
  <fix>3d</fix>
</trkpt>
<trkpt lat="33.8108239" lon="-118.3936599">
  <ele>-24.39</ele>
  <time>2026-09-01T01:14:33Z</time>
  <course>53.55</course>
  <speed>1.0</speed>
  <fix>3d</fix>
</trkpt>
<trkpt lat="33.8108249" lon="-118.3936578">
  <ele>-24.997</ele>
  <time>2026-09-01T01:14:33Z</time>
  <course>54.86</course>
  <speed>0.9765244492586962</speed>
  <fix>3d</fix>
</trkpt>
<trkpt lat="33.8108239" lon="-118.3936599">
  <ele>-24.39</ele>
  <time>2026-09-01T01:14:33Z</time>
  <course>53.55</course>
  <speed>1.0</speed>
  <fix>3d</fix>
</trkpt>
<trkpt lat="33.8108254" lon="-118.393657">
  <ele>-24.996</ele>
  <time>2026-09-01T01:14:33Z</time>
  <course>54.85</course>
  <speed>0.9765244492586962</speed>
  <fix>3d</fix>
</trkpt>
<trkpt lat="33.8108249" lon="-118.3936581">
  <ele>-24.39</ele>
  <time>2026-09-01T01:14:33Z</time>
  <course>53.52</course>
  <speed>1.0</speed>
  <fix>3d</fix>
</trkpt>
<trkpt lat="33.810826" lon="-118.3936561">
  <ele>-24.994</ele>
  <time>2026-09-01T01:14:33Z</time>
  <course>54.84</course>
  <speed>0.9765244492586962</speed>
  <fix>3d</fix>
</trkpt>
<trkpt lat="33.8108249" lon="-118.3936581">
  <ele>-24.39</ele>
  <time>2026-09-01T01:14:33Z</time>
  <course>53.52</course>
  <speed>1.0</speed>
  <fix>3d</fix>
</trkpt>
<trkpt lat="33.8108265" lon="-118.3936552">
  <ele>-24.993</ele>
  <time>2026-09-01T01:14:33Z</time>
  <course>54.81</course>
  <speed>0.9765244492586962</speed>
  <fix>3d</fix>
</trkpt>
<trkpt lat="33.810826" lon="-118.3936564">
  <ele>-24.39</ele>
  <time>2026-09-01T01:14:33Z</time>
  <course>53.48</course>
  <speed>1.0</speed>
  <fix>3d</fix>
</trkpt>
<trkpt lat="33.810827" lon="-118.3936544">
  <ele>-24.993</ele>
  <time>2026-09-01T01:14:33Z</time>
  <course>54.77</course>
  <speed>0.9765244492586962</speed>
  <fix>3d</fix>
</trkpt>
<trkpt lat="33.810826" lon="-118.3936564">
  <ele>-24.39</ele>
  <time>2026-09-01T01:14:33Z</time>
  <course>53.48</course>
  <speed>1.0</speed>
  <fix>3d</fix>
</trkpt>
<trkpt lat="33.8108276" lon="-118.3936535">
  <ele>-24.993</ele>
  <time>2026-09-01T01:14:33Z</time>
  <course>54.74</course>
  <speed>0.9765244492586962</speed>
  <fix>3d</fix>
</trkpt>
<trkpt lat="33.8108271" lon="-118.3936546">
  <ele>-24.39</ele>
  <time>2026-09-01T01:14:33Z</time>
  <course>53.42</course>
  <speed>1.0</speed>
  <fix>3d</fix>
</trkpt>
<trkpt lat="33.8108281" lon="-118.3936526">
  <ele>-24.992</ele>
  <time>2026-09-01T01:14:33Z</time>
  <course>54.71</course>
  <speed>0.9765244492586962</speed>
  <fix>3d</fix>
</trkpt>
<trkpt lat="33.8108271" lon="-118.3936546">
  <ele>-24.39</ele>
  <time>2026-09-01T01:14:33Z</time>
  <course>53.42</course>
  <speed>1.0</speed>
  <fix>3d</fix>
</trkpt>
<trkpt lat="33.8108286" lon="-118.3936517">
  <ele>-24.993</ele>
  <time>2026-09-01T01:14:33Z</time>
  <course>54.7</course>
  <speed>0.9765244492586962</speed>
  <fix>3d</fix>
</trkpt>
<trkpt lat="33.8108282" lon="-118.3936529">
  <ele>-24.39</ele>
  <time>2026-09-01T01:14:33Z</time>
  <course>53.39</course>
  <speed>1.0</speed>
  <fix>3d</fix>
</trkpt>
<trkpt lat="33.8108292" lon="-118.3936509">
  <ele>-24.994</ele>
  <time>2026-09-01T01:14:33Z</time>
  <course>54.68</course>
  <speed>0.9765244492586962</speed>
  <fix>3d</fix>
</trkpt>
<trkpt lat="33.8108282" lon="-118.3936529">
  <ele>-24.39</ele>
  <time>2026-09-01T01:14:33Z</time>
  <course>53.39</course>
  <speed>1.0</speed>
  <fix>3d</fix>
</trkpt>
<trkpt lat="33.8108297" lon="-118.39365">
  <ele>-24.995</ele>
  <time>2026-09-01T01:14:33Z</time>
  <course>54.69</course>
  <speed>0.9765244492586962</speed>
  <fix>3d</fix>
</trkpt>
<trkpt lat="33.8108292" lon="-118.3936512">
  <ele>-24.39</ele>
  <time>2026-09-01T01:14:33Z</time>
  <course>53.39</course>
  <speed>1.0</speed>
  <fix>3d</fix>
</trkpt>
<trkpt lat="33.8108303" lon="-118.3936491">
  <ele>-24.996</ele>
  <time>2026-09-01T01:14:33Z</time>
  <course>54.69</course>
  <speed>0.9765244492586962</speed>
  <fix>3d</fix>
</trkpt>
<trkpt lat="33.8108292" lon="-118.3936512">
  <ele>-24.39</ele>
  <time>2026-09-01T01:14:33Z</time>
  <course>53.39</course>
  <speed>1.0</speed>
  <fix>3d</fix>
</trkpt>
<trkpt lat="33.8108308" lon="-118.3936483">
  <ele>-24.997</ele>
  <time>2026-09-01T01:14:33Z</time>
  <course>54.7</course>
  <speed>0.9765244492586962</speed>
  <fix>3d</fix>
</trkpt>
<trkpt lat="33.8108303" lon="-118.3936495">
  <ele>-24.39</ele>
  <time>2026-09-01T01:14:33Z</time>
  <course>53.41</course>
  <speed>1.0</speed>
  <fix>3d</fix>
</trkpt>
<trkpt lat="33.8108313" lon="-118.3936474">
  <ele>-24.997</ele>
  <time>2026-09-01T01:14:33Z</time>
  <course>54.71</course>
  <speed>0.9765244492586962</speed>
  <fix>3d</fix>
</trkpt>
<trkpt lat="33.8108303" lon="-118.3936495">
  <ele>-24.39</ele>
  <time>2026-09-01T01:14:33Z</time>
  <course>53.41</course>
  <speed>1.0</speed>
  <fix>3d</fix>
</trkpt>
<trkpt lat="33.8108319" lon="-118.3936465">
  <ele>-24.998</ele>
  <time>2026-09-01T01:14:33Z</time>
  <course>54.71</course>
  <speed>0.9765244492586962</speed>
  <fix>3d</fix>
</trkpt>
<trkpt lat="33.8108314" lon="-118.3936477">
  <ele>-24.4</ele>
  <time>2026-09-01T01:14:33Z</time>
  <course>53.43</course>
  <speed>1.0</speed>
  <fix>3d</fix>
</trkpt>
<trkpt lat="33.8108324" lon="-118.3936457">
  <ele>-24.998</ele>
  <time>2026-09-01T01:14:33Z</time>
  <course>54.73</course>
  <speed>0.9765244492586962</speed>
  <fix>3d</fix>
</trkpt>
<trkpt lat="33.8108314" lon="-118.3936477">
  <ele>-24.4</ele>
  <time>2026-09-01T01:14:33Z</time>
  <course>53.43</course>
  <speed>1.0</speed>
  <fix>3d</fix>
</trkpt>
<trkpt lat="33.8108329" lon="-118.3936448">
  <ele>-24.999</ele>
  <time>2026-09-01T01:14:33Z</time>
  <course>54.75</course>
  <speed>0.9765244492586962</speed>
  <fix>3d</fix>
</trkpt>
<trkpt lat="33.8108324" lon="-118.393646">
  <ele>-24.39</ele>
  <time>2026-09-01T01:14:33Z</time>
  <course>53.46</course>
  <speed>1.0</speed>
  <fix>3d</fix>
</trkpt>
<trkpt lat="33.8108335" lon="-118.3936439">
  <ele>-24.999</ele>
  <time>2026-09-01T01:14:33Z</time>
  <course>54.76</course>
  <speed>0.9765244492586962</speed>
  <fix>3d</fix>
</trkpt>
<trkpt lat="33.8108324" lon="-118.393646">
  <ele>-24.39</ele>
  <time>2026-09-01T01:14:33Z</time>
  <course>53.46</course>
  <speed>1.0</speed>
  <fix>3d</fix>
</trkpt>
<trkpt lat="33.810834" lon="-118.393643">
  <ele>-24.999</ele>
  <time>2026-09-01T01:14:33Z</time>
  <course>54.77</course>
  <speed>0.9765244492586962</speed>
  <fix>3d</fix>
</trkpt>
<trkpt lat="33.8108335" lon="-118.3936442">
  <ele>-24.39</ele>
  <time>2026-09-01T01:14:33Z</time>
  <course>53.46</course>
  <speed>1.0</speed>
  <fix>3d</fix>
</trkpt>
<trkpt lat="33.8108345" lon="-118.3936422">
  <ele>-24.999</ele>
  <time>2026-09-01T01:14:33Z</time>
  <course>54.76</course>
  <speed>0.9765244492586962</speed>
  <fix>3d</fix>
</trkpt>
<trkpt lat="33.8108335" lon="-118.3936442">
  <ele>-24.39</ele>
  <time>2026-09-01T01:14:33Z</time>
  <course>53.46</course>
  <speed>1.0</speed>
  <fix>3d</fix>
</trkpt>
<trkpt lat="33.8108351" lon="-118.3936413">
  <ele>-24.997</ele>
  <time>2026-09-01T01:14:33Z</time>
  <course>54.76</course>
  <speed>0.9765244492586962</speed>
  <fix>3d</fix>
</trkpt>
<trkpt lat="33.8108346" lon="-118.3936425">
  <ele>-24.39</ele>
  <time>2026-09-01T01:14:33Z</time>
  <course>53.44</course>
  <speed>1.0</speed>
  <fix>3d</fix>
</trkpt>
<trkpt lat="33.8108356" lon="-118.3936404">
  <ele>-24.995</ele>
  <time>2026-09-01T01:14:33Z</time>
  <course>54.74</course>
  <speed>0.9765244492586962</speed>
  <fix>3d</fix>
</trkpt>
<trkpt lat="33.8108346" lon="-118.3936425">
  <ele>-24.39</ele>
  <time>2026-09-01T01:14:33Z</time>
  <course>53.44</course>
  <speed>1.0</speed>
  <fix>3d</fix>
</trkpt>
<trkpt lat="33.8108361" lon="-118.3936396">
  <ele>-24.994</ele>
  <time>2026-09-01T01:14:33Z</time>
  <course>54.74</course>
  <speed>0.9765244492586962</speed>
  <fix>3d</fix>
</trkpt>
<trkpt lat="33.8108357" lon="-118.3936407">
  <ele>-24.39</ele>
  <time>2026-09-01T01:14:33Z</time>
  <course>53.43</course>
  <speed>1.0</speed>
  <fix>3d</fix>
</trkpt>
<trkpt lat="33.8108367" lon="-118.3936387">
  <ele>-24.994</ele>
  <time>2026-09-01T01:14:33Z</time>
  <course>54.73</course>
  <speed>0.9765244492586962</speed>
  <fix>3d</fix>
</trkpt>
<trkpt lat="33.8108357" lon="-118.3936407">
  <ele>-24.39</ele>
  <time>2026-09-01T01:14:33Z</time>
  <course>53.43</course>
  <speed>1.0</speed>
  <fix>3d</fix>
</trkpt>
<trkpt lat="33.8108372" lon="-118.3936378">
  <ele>-24.994</ele>
  <time>2026-09-01T01:14:33Z</time>
  <course>54.74</course>
  <speed>0.9765244492586962</speed>
  <fix>3d</fix>
</trkpt>
<trkpt lat="33.8108367" lon="-118.393639">
  <ele>-24.39</ele>
  <time>2026-09-01T01:14:33Z</time>
  <course>53.45</course>
  <speed>1.0</speed>
  <fix>3d</fix>
</trkpt>
<trkpt lat="33.8108377" lon="-118.393637">
  <ele>-24.994</ele>
  <time>2026-09-01T01:14:33Z</time>
  <course>54.75</course>
  <speed>0.9765244492586962</speed>
  <fix>3d</fix>
</trkpt>
<trkpt lat="33.8108367" lon="-118.393639">
  <ele>-24.39</ele>
  <time>2026-09-01T01:14:33Z</time>
  <course>53.45</course>
  <speed>1.0</speed>
  <fix>3d</fix>
</trkpt>
<trkpt lat="33.8108383" lon="-118.3936361">
  <ele>-24.995</ele>
  <time>2026-09-01T01:14:33Z</time>
  <course>54.76</course>
  <speed>0.9765244492586962</speed>
  <fix>3d</fix>
</trkpt>
<trkpt lat="33.8108378" lon="-118.3936373">
  <ele>-24.39</ele>
  <time>2026-09-01T01:14:33Z</time>
  <course>53.44</course>
  <speed>1.0</speed>
  <fix>3d</fix>
</trkpt>
<trkpt lat="33.8108388" lon="-118.3936352">
  <ele>-24.995</ele>
  <time>2026-09-01T01:14:33Z</time>
  <course>54.76</course>
  <speed>0.9765244492586962</speed>
  <fix>3d</fix>
</trkpt>
<trkpt lat="33.8108378" lon="-118.3936373">
  <ele>-24.39</ele>
  <time>2026-09-01T01:14:33Z</time>
  <course>53.44</course>
  <speed>1.0</speed>
  <fix>3d</fix>
</trkpt>
<trkpt lat="33.8108393" lon="-118.3936344">
  <ele>-24.995</ele>
  <time>2026-09-01T01:14:33Z</time>
  <course>54.77</course>
  <speed>0.9765244492586962</speed>
  <fix>3d</fix>
</trkpt>
<trkpt lat="33.8108389" lon="-118.3936355">
  <ele>-24.38</ele>
  <time>2026-09-01T01:14:33Z</time>
  <course>53.44</course>
  <speed>1.0</speed>
  <fix>3d</fix>
</trkpt>
<trkpt lat="33.8108399" lon="-118.3936335">
  <ele>-24.995</ele>
  <time>2026-09-01T01:14:33Z</time>
  <course>54.77</course>
  <speed>0.9765244492586962</speed>
  <fix>3d</fix>
</trkpt>
<trkpt lat="33.8108389" lon="-118.3936355">
  <ele>-24.38</ele>
  <time>2026-09-01T01:14:33Z</time>
  <course>53.44</course>
  <speed>1.0</speed>
  <fix>3d</fix>
</trkpt>
<trkpt lat="33.8108404" lon="-118.3936326">
  <ele>-24.994</ele>
  <time>2026-09-01T01:14:33Z</time>
  <course>54.79</course>
  <speed>0.9765244492586962</speed>
  <fix>3d</fix>
</trkpt>
<trkpt lat="33.81084" lon="-118.3936338">
  <ele>-24.38</ele>
  <time>2026-09-01T01:14:33Z</time>
  <course>53.47</course>
  <speed>1.0</speed>
  <fix>3d</fix>
</trkpt>
<trkpt lat="33.8108409" lon="-118.3936317">
  <ele>-24.992</ele>
  <time>2026-09-01T01:14:33Z</time>
  <course>54.8</course>
  <speed>0.9765244492586962</speed>
  <fix>3d</fix>
</trkpt>
<trkpt lat="33.81084" lon="-118.3936338">
  <ele>-24.38</ele>
  <time>2026-09-01T01:14:33Z</time>
  <course>53.47</course>
  <speed>1.0</speed>
  <fix>3d</fix>
</trkpt>
<trkpt lat="33.8108415" lon="-118.3936309">
  <ele>-24.991</ele>
  <time>2026-09-01T01:14:33Z</time>
  <course>54.83</course>
  <speed>0.9765244492586962</speed>
  <fix>3d</fix>
</trkpt>
<trkpt lat="33.810841" lon="-118.393632">
  <ele>-24.38</ele>
  <time>2026-09-01T01:14:33Z</time>
  <course>53.53</course>
  <speed>1.0</speed>
  <fix>3d</fix>
</trkpt>
<trkpt lat="33.810842" lon="-118.39363">
  <ele>-24.991</ele>
  <time>2026-09-01T01:14:33Z</time>
  <course>54.85</course>
  <speed>0.9765244492586962</speed>
  <fix>3d</fix>
</trkpt>
<trkpt lat="33.810841" lon="-118.393632">
  <ele>-24.38</ele>
  <time>2026-09-01T01:14:33Z</time>
  <course>53.53</course>
  <speed>1.0</speed>
  <fix>3d</fix>
</trkpt>
<trkpt lat="33.8108425" lon="-118.3936291">
  <ele>-24.99</ele>
  <time>2026-09-01T01:14:33Z</time>
  <course>54.85</course>
  <speed>0.9765244492586962</speed>
  <fix>3d</fix>
</trkpt>
<trkpt lat="33.8108421" lon="-118.3936303">
  <ele>-24.38</ele>
  <time>2026-09-01T01:14:33Z</time>
  <course>53.55</course>
  <speed>1.0</speed>
  <fix>3d</fix>
</trkpt>
<trkpt lat="33.8108431" lon="-118.3936283">
  <ele>-24.991</ele>
  <time>2026-09-01T01:14:33Z</time>
  <course>54.85</course>
  <speed>0.9765244492586962</speed>
  <fix>3d</fix>
</trkpt>
<trkpt lat="33.8108421" lon="-118.3936303">
  <ele>-24.38</ele>
  <time>2026-09-01T01:14:33Z</time>
  <course>53.55</course>
  <speed>1.0</speed>
  <fix>3d</fix>
</trkpt>
<trkpt lat="33.8108436" lon="-118.3936274">
  <ele>-24.992</ele>
  <time>2026-09-01T01:14:33Z</time>
  <course>54.84</course>
  <speed>0.9765244492586962</speed>
  <fix>3d</fix>
</trkpt>
<trkpt lat="33.8108432" lon="-118.3936285">
  <ele>-24.38</ele>
  <time>2026-09-01T01:14:33Z</time>
  <course>53.53</course>
  <speed>1.0</speed>
  <fix>3d</fix>
</trkpt>
<trkpt lat="33.8108442" lon="-118.3936265">
  <ele>-24.994</ele>
  <time>2026-09-01T01:14:33Z</time>
  <course>54.84</course>
  <speed>0.9765244492586962</speed>
  <fix>3d</fix>
</trkpt>
<trkpt lat="33.8108432" lon="-118.3936285">
  <ele>-24.38</ele>
  <time>2026-09-01T01:14:33Z</time>
  <course>53.53</course>
  <speed>1.0</speed>
  <fix>3d</fix>
</trkpt>
<trkpt lat="33.8108447" lon="-118.3936257">
  <ele>-24.996</ele>
  <time>2026-09-01T01:14:33Z</time>
  <course>54.84</course>
  <speed>0.9765244492586962</speed>
  <fix>3d</fix>
</trkpt>
<trkpt lat="33.8108443" lon="-118.3936268">
  <ele>-24.39</ele>
  <time>2026-09-01T01:14:33Z</time>
  <course>53.51</course>
  <speed>1.0</speed>
  <fix>3d</fix>
</trkpt>
<trkpt lat="33.8108452" lon="-118.3936248">
  <ele>-24.998</ele>
  <time>2026-09-01T01:14:33Z</time>
  <course>54.84</course>
  <speed>0.9765244492586962</speed>
  <fix>3d</fix>
</trkpt>
<trkpt lat="33.8108443" lon="-118.3936268">
  <ele>-24.39</ele>
  <time>2026-09-01T01:14:33Z</time>
  <course>53.51</course>
  <speed>1.0</speed>
  <fix>3d</fix>
</trkpt>
<trkpt lat="33.8108458" lon="-118.3936239">
  <ele>-24.999</ele>
  <time>2026-09-01T01:14:33Z</time>
  <course>54.86</course>
  <speed>0.9765244492586962</speed>
  <fix>3d</fix>
</trkpt>
<trkpt lat="33.8108454" lon="-118.393625">
  <ele>-24.39</ele>
  <time>2026-09-01T01:14:33Z</time>
  <course>53.53</course>
  <speed>1.0</speed>
  <fix>3d</fix>
</trkpt>
<trkpt lat="33.8108463" lon="-118.393623">
  <ele>-25.0</ele>
  <time>2026-09-01T01:14:33Z</time>
  <course>54.88</course>
  <speed>0.9765244492586962</speed>
  <fix>3d</fix>
</trkpt>
<trkpt lat="33.8108454" lon="-118.393625">
  <ele>-24.39</ele>
  <time>2026-09-01T01:14:33Z</time>
  <course>53.53</course>
  <speed>1.0</speed>
  <fix>3d</fix>
</trkpt>
<trkpt lat="33.8108468" lon="-118.3936222">
  <ele>-25.0</ele>
  <time>2026-09-01T01:14:33Z</time>
  <course>54.91</course>
  <speed>0.9765244492586962</speed>
  <fix>3d</fix>
</trkpt>
<trkpt lat="33.8108464" lon="-118.3936233">
  <ele>-24.39</ele>
  <time>2026-09-01T01:14:33Z</time>
  <course>53.58</course>
  <speed>1.0</speed>
  <fix>3d</fix>
</trkpt>
<trkpt lat="33.8108474" lon="-118.3936213">
  <ele>-24.999</ele>
  <time>2026-09-01T01:14:33Z</time>
  <course>54.93</course>
  <speed>0.9765244492586962</speed>
  <fix>3d</fix>
</trkpt>
<trkpt lat="33.8108464" lon="-118.3936233">
  <ele>-24.39</ele>
  <time>2026-09-01T01:14:33Z</time>
  <course>53.58</course>
  <speed>1.0</speed>
  <fix>3d</fix>
</trkpt>
<trkpt lat="33.8108479" lon="-118.3936204">
  <ele>-24.997</ele>
  <time>2026-09-01T01:14:33Z</time>
  <course>54.94</course>
  <speed>0.9765244492586962</speed>
  <fix>3d</fix>
</trkpt>
<trkpt lat="33.8108475" lon="-118.3936215">
  <ele>-24.38</ele>
  <time>2026-09-01T01:14:33Z</time>
  <course>53.6</course>
  <speed>1.0</speed>
  <fix>3d</fix>
</trkpt>
<trkpt lat="33.8108484" lon="-118.3936195">
  <ele>-24.995</ele>
  <time>2026-09-01T01:14:33Z</time>
  <course>54.95</course>
  <speed>0.9765244492586962</speed>
  <fix>3d</fix>
</trkpt>
<trkpt lat="33.8108475" lon="-118.3936215">
  <ele>-24.38</ele>
  <time>2026-09-01T01:14:33Z</time>
  <course>53.6</course>
  <speed>1.0</speed>
  <fix>3d</fix>
</trkpt>
<trkpt lat="33.810849" lon="-118.3936187">
  <ele>-24.993</ele>
  <time>2026-09-01T01:14:33Z</time>
  <course>54.94</course>
  <speed>0.9765244492586962</speed>
  <fix>3d</fix>
</trkpt>
<trkpt lat="33.8108486" lon="-118.3936198">
  <ele>-24.38</ele>
  <time>2026-09-01T01:14:33Z</time>
  <course>53.6</course>
  <speed>1.0</speed>
  <fix>3d</fix>
</trkpt>
<trkpt lat="33.8108495" lon="-118.3936178">
  <ele>-24.991</ele>
  <time>2026-09-01T01:14:33Z</time>
  <course>54.94</course>
  <speed>0.9765244492586962</speed>
  <fix>3d</fix>
</trkpt>
<trkpt lat="33.8108486" lon="-118.3936198">
  <ele>-24.38</ele>
  <time>2026-09-01T01:14:33Z</time>
  <course>53.6</course>
  <speed>1.0</speed>
  <fix>3d</fix>
</trkpt>
<trkpt lat="33.8108501" lon="-118.3936169">
  <ele>-24.99</ele>
  <time>2026-09-01T01:14:33Z</time>
  <course>54.94</course>
  <speed>0.9765244492586962</speed>
  <fix>3d</fix>
</trkpt>
<trkpt lat="33.8108496" lon="-118.393618">
  <ele>-24.38</ele>
  <time>2026-09-01T01:14:33Z</time>
  <course>53.61</course>
  <speed>1.0</speed>
  <fix>3d</fix>
</trkpt>
<trkpt lat="33.8108506" lon="-118.3936161">
  <ele>-24.991</ele>
  <time>2026-09-01T01:14:33Z</time>
  <course>54.93</course>
  <speed>0.9765244492586962</speed>
  <fix>3d</fix>
</trkpt>
<trkpt lat="33.8108496" lon="-118.393618">
  <ele>-24.38</ele>
  <time>2026-09-01T01:14:33Z</time>
  <course>53.61</course>
  <speed>1.0</speed>
  <fix>3d</fix>
</trkpt>
<trkpt lat="33.8108511" lon="-118.3936152">
  <ele>-24.991</ele>
  <time>2026-09-01T01:14:33Z</time>
  <course>54.92</course>
  <speed>0.9765244492586962</speed>
  <fix>3d</fix>
</trkpt>
<trkpt lat="33.8108507" lon="-118.3936163">
  <ele>-24.38</ele>
  <time>2026-09-01T01:14:33Z</time>
  <course>53.59</course>
  <speed>1.0</speed>
  <fix>3d</fix>
</trkpt>
<trkpt lat="33.8108517" lon="-118.3936143">
  <ele>-24.99</ele>
  <time>2026-09-01T01:14:33Z</time>
  <course>54.9</course>
  <speed>0.9765244492586962</speed>
  <fix>3d</fix>
</trkpt>
<trkpt lat="33.8108507" lon="-118.3936163">
  <ele>-24.38</ele>
  <time>2026-09-01T01:14:33Z</time>
  <course>53.59</course>
  <speed>1.0</speed>
  <fix>3d</fix>
</trkpt>
<trkpt lat="33.8108522" lon="-118.3936134">
  <ele>-24.99</ele>
  <time>2026-09-01T01:14:33Z</time>
  <course>54.88</course>
  <speed>0.9765244492586962</speed>
  <fix>3d</fix>
</trkpt>
<trkpt lat="33.8108518" lon="-118.3936145">
  <ele>-24.38</ele>
  <time>2026-09-01T01:14:33Z</time>
  <course>53.56</course>
  <speed>1.0</speed>
  <fix>3d</fix>
</trkpt>
<trkpt lat="33.8108527" lon="-118.3936126">
  <ele>-24.99</ele>
  <time>2026-09-01T01:14:33Z</time>
  <course>54.86</course>
  <speed>0.9765244492586962</speed>
  <fix>3d</fix>
</trkpt>
<trkpt lat="33.8108518" lon="-118.3936145">
  <ele>-24.38</ele>
  <time>2026-09-01T01:14:33Z</time>
  <course>53.56</course>
  <speed>1.0</speed>
  <fix>3d</fix>
</trkpt>
<trkpt lat="33.8108533" lon="-118.3936117">
  <ele>-24.989</ele>
  <time>2026-09-01T01:14:33Z</time>
  <course>54.84</course>
  <speed>0.9765244492586962</speed>
  <fix>3d</fix>
</trkpt>
<trkpt lat="33.8108529" lon="-118.3936128">
  <ele>-24.38</ele>
  <time>2026-09-01T01:14:33Z</time>
  <course>53.54</course>
  <speed>1.0</speed>
  <fix>3d</fix>
</trkpt>
<trkpt lat="33.8108538" lon="-118.3936108">
  <ele>-24.989</ele>
  <time>2026-09-01T01:14:33Z</time>
  <course>54.84</course>
  <speed>0.9765244492586962</speed>
  <fix>3d</fix>
</trkpt>
<trkpt lat="33.8108529" lon="-118.3936128">
  <ele>-24.38</ele>
  <time>2026-09-01T01:14:33Z</time>
  <course>53.54</course>
  <speed>1.0</speed>
  <fix>3d</fix>
</trkpt>
<trkpt lat="33.8108543" lon="-118.39361">
  <ele>-24.99</ele>
  <time>2026-09-01T01:14:33Z</time>
  <course>54.85</course>
  <speed>0.9765244492586962</speed>
  <fix>3d</fix>
</trkpt>
<trkpt lat="33.8108539" lon="-118.393611">
  <ele>-24.38</ele>
  <time>2026-09-01T01:14:33Z</time>
  <course>53.54</course>
  <speed>1.0</speed>
  <fix>3d</fix>
</trkpt>
<trkpt lat="33.8108549" lon="-118.3936091">
  <ele>-24.991</ele>
  <time>2026-09-01T01:14:33Z</time>
  <course>54.86</course>
  <speed>0.9765244492586962</speed>
  <fix>3d</fix>
</trkpt>
<trkpt lat="33.8108539" lon="-118.393611">
  <ele>-24.38</ele>
  <time>2026-09-01T01:14:33Z</time>
  <course>53.54</course>
  <speed>1.0</speed>
  <fix>3d</fix>
</trkpt>
<trkpt lat="33.8108554" lon="-118.3936082">
  <ele>-24.993</ele>
  <time>2026-09-01T01:14:33Z</time>
  <course>54.85</course>
  <speed>0.9765244492586962</speed>
  <fix>3d</fix>
</trkpt>
<trkpt lat="33.810855" lon="-118.3936093">
  <ele>-24.38</ele>
  <time>2026-09-01T01:14:33Z</time>
  <course>53.53</course>
  <speed>1.0</speed>
  <fix>3d</fix>
</trkpt>
<trkpt lat="33.8108559" lon="-118.3936073">
  <ele>-24.995</ele>
  <time>2026-09-01T01:14:33Z</time>
  <course>54.84</course>
  <speed>0.9765244492586962</speed>
  <fix>3d</fix>
</trkpt>
<trkpt lat="33.810855" lon="-118.3936093">
  <ele>-24.38</ele>
  <time>2026-09-01T01:14:33Z</time>
  <course>53.53</course>
  <speed>1.0</speed>
  <fix>3d</fix>
</trkpt>
<trkpt lat="33.8108565" lon="-118.3936065">
  <ele>-24.996</ele>
  <time>2026-09-01T01:14:33Z</time>
  <course>54.83</course>
  <speed>0.9765244492586962</speed>
  <fix>3d</fix>
</trkpt>
<trkpt lat="33.810856" lon="-118.3936076">
  <ele>-24.39</ele>
  <time>2026-09-01T01:14:33Z</time>
  <course>53.5</course>
  <speed>1.0</speed>
  <fix>3d</fix>
</trkpt>
<trkpt lat="33.810857" lon="-118.3936056">
  <ele>-24.996</ele>
  <time>2026-09-01T01:14:33Z</time>
  <course>54.82</course>
  <speed>0.9765244492586962</speed>
  <fix>3d</fix>
</trkpt>
<trkpt lat="33.810856" lon="-118.3936076">
  <ele>-24.39</ele>
  <time>2026-09-01T01:14:33Z</time>
  <course>53.5</course>
  <speed>1.0</speed>
  <fix>3d</fix>
</trkpt>
<trkpt lat="33.8108575" lon="-118.3936047">
  <ele>-24.995</ele>
  <time>2026-09-01T01:14:33Z</time>
  <course>54.81</course>
  <speed>0.9765244492586962</speed>
  <fix>3d</fix>
</trkpt>
<trkpt lat="33.8108571" lon="-118.3936058">
  <ele>-24.39</ele>
  <time>2026-09-01T01:14:33Z</time>
  <course>53.49</course>
  <speed>1.0</speed>
  <fix>3d</fix>
</trkpt>
<trkpt lat="33.8108581" lon="-118.3936039">
  <ele>-24.995</ele>
  <time>2026-09-01T01:14:33Z</time>
  <course>54.79</course>
  <speed>0.9765244492586962</speed>
  <fix>3d</fix>
</trkpt>
<trkpt lat="33.8108571" lon="-118.3936058">
  <ele>-24.39</ele>
  <time>2026-09-01T01:14:33Z</time>
  <course>53.49</course>
  <speed>1.0</speed>
  <fix>3d</fix>
</trkpt>
<trkpt lat="33.8108586" lon="-118.393603">
  <ele>-24.993</ele>
  <time>2026-09-01T01:14:33Z</time>
  <course>54.77</course>
  <speed>0.9765244492586962</speed>
  <fix>3d</fix>
</trkpt>
<trkpt lat="33.8108582" lon="-118.3936041">
  <ele>-24.39</ele>
  <time>2026-09-01T01:14:33Z</time>
  <course>53.46</course>
  <speed>1.0</speed>
  <fix>3d</fix>
</trkpt>
<trkpt lat="33.8108591" lon="-118.3936021">
  <ele>-24.993</ele>
  <time>2026-09-01T01:14:33Z</time>
  <course>54.76</course>
  <speed>0.9765244492586962</speed>
  <fix>3d</fix>
</trkpt>
<trkpt lat="33.8108582" lon="-118.3936041">
  <ele>-24.39</ele>
  <time>2026-09-01T01:14:33Z</time>
  <course>53.46</course>
  <speed>1.0</speed>
  <fix>3d</fix>
</trkpt>
<trkpt lat="33.8108597" lon="-118.3936012">
  <ele>-24.994</ele>
  <time>2026-09-01T01:14:33Z</time>
  <course>54.75</course>
  <speed>0.9765244492586962</speed>
  <fix>3d</fix>
</trkpt>
<trkpt lat="33.8108593" lon="-118.3936023">
  <ele>-24.39</ele>
  <time>2026-09-01T01:14:33Z</time>
  <course>53.44</course>
  <speed>1.0</speed>
  <fix>3d</fix>
</trkpt>
<trkpt lat="33.8108602" lon="-118.3936004">
  <ele>-24.994</ele>
  <time>2026-09-01T01:14:33Z</time>
  <course>54.75</course>
  <speed>0.9765244492586962</speed>
  <fix>3d</fix>
</trkpt>
<trkpt lat="33.8108593" lon="-118.3936023">
  <ele>-24.39</ele>
  <time>2026-09-01T01:14:33Z</time>
  <course>53.44</course>
  <speed>1.0</speed>
  <fix>3d</fix>
</trkpt>
<trkpt lat="33.8108608" lon="-118.3935995">
  <ele>-24.995</ele>
  <time>2026-09-01T01:14:33Z</time>
  <course>54.76</course>
  <speed>0.9765244492586962</speed>
  <fix>3d</fix>
</trkpt>
<trkpt lat="33.8108603" lon="-118.3936006">
  <ele>-24.39</ele>
  <time>2026-09-01T01:14:33Z</time>
  <course>53.46</course>
  <speed>1.0</speed>
  <fix>3d</fix>
</trkpt>
<trkpt lat="33.8108613" lon="-118.3935986">
  <ele>-24.996</ele>
  <time>2026-09-01T01:14:33Z</time>
  <course>54.77</course>
  <speed>0.9765244492586962</speed>
  <fix>3d</fix>
</trkpt>
<trkpt lat="33.8108603" lon="-118.3936006">
  <ele>-24.39</ele>
  <time>2026-09-01T01:14:33Z</time>
  <course>53.46</course>
  <speed>1.0</speed>
  <fix>3d</fix>
</trkpt>
<trkpt lat="33.8108618" lon="-118.3935978">
  <ele>-24.996</ele>
  <time>2026-09-01T01:14:33Z</time>
  <course>54.76</course>
  <speed>0.9765244492586962</speed>
  <fix>3d</fix>
</trkpt>
<trkpt lat="33.8108614" lon="-118.3935989">
  <ele>-24.39</ele>
  <time>2026-09-01T01:14:33Z</time>
  <course>53.46</course>
  <speed>1.0</speed>
  <fix>3d</fix>
</trkpt>
<trkpt lat="33.8108624" lon="-118.3935969">
  <ele>-24.995</ele>
  <time>2026-09-01T01:14:33Z</time>
  <course>54.76</course>
  <speed>0.9765244492586962</speed>
  <fix>3d</fix>
</trkpt>
<trkpt lat="33.8108614" lon="-118.3935989">
  <ele>-24.39</ele>
  <time>2026-09-01T01:14:33Z</time>
  <course>53.46</course>
  <speed>1.0</speed>
  <fix>3d</fix>
</trkpt>
<trkpt lat="33.8108629" lon="-118.393596">
  <ele>-24.994</ele>
  <time>2026-09-01T01:14:33Z</time>
  <course>54.76</course>
  <speed>0.9765244492586962</speed>
  <fix>3d</fix>
</trkpt>
<trkpt lat="33.8108625" lon="-118.3935971">
  <ele>-24.39</ele>
  <time>2026-09-01T01:14:33Z</time>
  <course>53.45</course>
  <speed>1.0</speed>
  <fix>3d</fix>
</trkpt>
<trkpt lat="33.8108634" lon="-118.3935952">
  <ele>-24.994</ele>
  <time>2026-09-01T01:14:33Z</time>
  <course>54.76</course>
  <speed>0.9765244492586962</speed>
  <fix>3d</fix>
</trkpt>
<trkpt lat="33.8108625" lon="-118.3935971">
  <ele>-24.39</ele>
  <time>2026-09-01T01:14:33Z</time>
  <course>53.45</course>
  <speed>1.0</speed>
  <fix>3d</fix>
</trkpt>
<trkpt lat="33.810864" lon="-118.3935943">
  <ele>-24.993</ele>
  <time>2026-09-01T01:14:33Z</time>
  <course>54.78</course>
  <speed>0.9765244492586962</speed>
  <fix>3d</fix>
</trkpt>
<trkpt lat="33.8108636" lon="-118.3935954">
  <ele>-24.39</ele>
  <time>2026-09-01T01:14:33Z</time>
  <course>53.47</course>
  <speed>1.0</speed>
  <fix>3d</fix>
</trkpt>
<trkpt lat="33.8108645" lon="-118.3935934">
  <ele>-24.993</ele>
  <time>2026-09-01T01:14:33Z</time>
  <course>54.78</course>
  <speed>0.9765244492586962</speed>
  <fix>3d</fix>
</trkpt>
<trkpt lat="33.8108636" lon="-118.3935954">
  <ele>-24.39</ele>
  <time>2026-09-01T01:14:33Z</time>
  <course>53.47</course>
  <speed>1.0</speed>
  <fix>3d</fix>
</trkpt>
<trkpt lat="33.810865" lon="-118.3935925">
  <ele>-24.992</ele>
  <time>2026-09-01T01:14:33Z</time>
  <course>54.81</course>
  <speed>0.9765244492586962</speed>
  <fix>3d</fix>
</trkpt>
<trkpt lat="33.8108646" lon="-118.3935936">
  <ele>-24.39</ele>
  <time>2026-09-01T01:14:33Z</time>
  <course>53.52</course>
  <speed>0.99</speed>
  <fix>3d</fix>
</trkpt>
<trkpt lat="33.8108656" lon="-118.3935917">
  <ele>-24.991</ele>
  <time>2026-09-01T01:14:33Z</time>
  <course>54.83</course>
  <speed>0.9765244492586962</speed>
  <fix>3d</fix>
</trkpt>
<trkpt lat="33.8108646" lon="-118.3935936">
  <ele>-24.39</ele>
  <time>2026-09-01T01:14:33Z</time>
  <course>53.52</course>
  <speed>0.99</speed>
  <fix>3d</fix>
</trkpt>
<trkpt lat="33.8108661" lon="-118.3935908">
  <ele>-24.991</ele>
  <time>2026-09-01T01:14:33Z</time>
  <course>54.84</course>
  <speed>0.9765244492586962</speed>
  <fix>3d</fix>
</trkpt>
<trkpt lat="33.8108657" lon="-118.3935919">
  <ele>-24.39</ele>
  <time>2026-09-01T01:14:33Z</time>
  <course>53.54</course>
  <speed>0.99</speed>
  <fix>3d</fix>
</trkpt>
<trkpt lat="33.8108666" lon="-118.3935899">
  <ele>-24.992</ele>
  <time>2026-09-01T01:14:33Z</time>
  <course>54.84</course>
  <speed>0.9765244492586962</speed>
  <fix>3d</fix>
</trkpt>
<trkpt lat="33.8108657" lon="-118.3935919">
  <ele>-24.39</ele>
  <time>2026-09-01T01:14:33Z</time>
  <course>53.54</course>
  <speed>0.99</speed>
  <fix>3d</fix>
</trkpt>
<trkpt lat="33.8108672" lon="-118.3935891">
  <ele>-24.993</ele>
  <time>2026-09-01T01:14:33Z</time>
  <course>54.83</course>
  <speed>0.9765244492586962</speed>
  <fix>3d</fix>
</trkpt>
<trkpt lat="33.8108668" lon="-118.3935902">
  <ele>-24.39</ele>
  <time>2026-09-01T01:14:33Z</time>
  <course>53.53</course>
  <speed>0.99</speed>
  <fix>3d</fix>
</trkpt>
<trkpt lat="33.8108677" lon="-118.3935882">
  <ele>-24.995</ele>
  <time>2026-09-01T01:14:33Z</time>
  <course>54.83</course>
  <speed>0.9765244492586962</speed>
  <fix>3d</fix>
</trkpt>
<trkpt lat="33.8108668" lon="-118.3935902">
  <ele>-24.39</ele>
  <time>2026-09-01T01:14:33Z</time>
  <course>53.53</course>
  <speed>0.99</speed>
  <fix>3d</fix>
</trkpt>
<trkpt lat="33.8108683" lon="-118.3935873">
  <ele>-24.997</ele>
  <time>2026-09-01T01:14:33Z</time>
  <course>54.84</course>
  <speed>0.9765244492586962</speed>
  <fix>3d</fix>
</trkpt>
<trkpt lat="33.8108678" lon="-118.3935884">
  <ele>-24.39</ele>
  <time>2026-09-01T01:14:33Z</time>
  <course>53.54</course>
  <speed>0.99</speed>
  <fix>3d</fix>
</trkpt>
<trkpt lat="33.8108688" lon="-118.3935864">
  <ele>-24.998</ele>
  <time>2026-09-01T01:14:33Z</time>
  <course>54.86</course>
  <speed>0.9765244492586962</speed>
  <fix>3d</fix>
</trkpt>
<trkpt lat="33.8108678" lon="-118.3935884">
  <ele>-24.39</ele>
  <time>2026-09-01T01:14:33Z</time>
  <course>53.54</course>
  <speed>0.99</speed>
  <fix>3d</fix>
</trkpt>
<trkpt lat="33.8108693" lon="-118.3935856">
  <ele>-24.998</ele>
  <time>2026-09-01T01:14:33Z</time>
  <course>54.86</course>
  <speed>0.9765244492586962</speed>
  <fix>3d</fix>
</trkpt>
<trkpt lat="33.8108689" lon="-118.3935867">
  <ele>-24.39</ele>
  <time>2026-09-01T01:14:33Z</time>
  <course>53.55</course>
  <speed>0.99</speed>
  <fix>3d</fix>
</trkpt>
<trkpt lat="33.8108699" lon="-118.3935847">
  <ele>-24.997</ele>
  <time>2026-09-01T01:14:33Z</time>
  <course>54.84</course>
  <speed>0.9765244492586962</speed>
  <fix>3d</fix>
</trkpt>
<trkpt lat="33.8108689" lon="-118.3935867">
  <ele>-24.39</ele>
  <time>2026-09-01T01:14:33Z</time>
  <course>53.55</course>
  <speed>0.99</speed>
  <fix>3d</fix>
</trkpt>
<trkpt lat="33.8108704" lon="-118.3935838">
  <ele>-24.995</ele>
  <time>2026-09-01T01:14:33Z</time>
  <course>54.84</course>
  <speed>0.9765244492586962</speed>
  <fix>3d</fix>
</trkpt>
<trkpt lat="33.8108699" lon="-118.393585">
  <ele>-24.38</ele>
  <time>2026-09-01T01:14:33Z</time>
  <course>53.52</course>
  <speed>0.99</speed>
  <fix>3d</fix>
</trkpt>
<trkpt lat="33.8108709" lon="-118.393583">
  <ele>-24.993</ele>
  <time>2026-09-01T01:14:33Z</time>
  <course>54.83</course>
  <speed>0.9765244492586962</speed>
  <fix>3d</fix>
</trkpt>
<trkpt lat="33.8108699" lon="-118.393585">
  <ele>-24.38</ele>
  <time>2026-09-01T01:14:33Z</time>
  <course>53.52</course>
  <speed>0.99</speed>
  <fix>3d</fix>
</trkpt>
<trkpt lat="33.8108715" lon="-118.3935821">
  <ele>-24.991</ele>
  <time>2026-09-01T01:14:33Z</time>
  <course>54.81</course>
  <speed>0.9765244492586962</speed>
  <fix>3d</fix>
</trkpt>
<trkpt lat="33.810871" lon="-118.3935832">
  <ele>-24.38</ele>
  <time>2026-09-01T01:14:33Z</time>
  <course>53.5</course>
  <speed>0.99</speed>
  <fix>3d</fix>
</trkpt>
<trkpt lat="33.810872" lon="-118.3935812">
  <ele>-24.989</ele>
  <time>2026-09-01T01:14:33Z</time>
  <course>54.8</course>
  <speed>0.9765244492586962</speed>
  <fix>3d</fix>
</trkpt>
<trkpt lat="33.810871" lon="-118.3935832">
  <ele>-24.38</ele>
  <time>2026-09-01T01:14:33Z</time>
  <course>53.5</course>
  <speed>0.99</speed>
  <fix>3d</fix>
</trkpt>
<trkpt lat="33.8108725" lon="-118.3935804">
  <ele>-24.988</ele>
  <time>2026-09-01T01:14:33Z</time>
  <course>54.78</course>
  <speed>0.9765244492586962</speed>
  <fix>3d</fix>
</trkpt>
<trkpt lat="33.8108721" lon="-118.3935815">
  <ele>-24.38</ele>
  <time>2026-09-01T01:14:33Z</time>
  <course>53.46</course>
  <speed>0.99</speed>
  <fix>3d</fix>
</trkpt>
<trkpt lat="33.8108731" lon="-118.3935795">
  <ele>-24.988</ele>
  <time>2026-09-01T01:14:33Z</time>
  <course>54.76</course>
  <speed>0.9765244492586962</speed>
  <fix>3d</fix>
</trkpt>
<trkpt lat="33.8108721" lon="-118.3935815">
  <ele>-24.38</ele>
  <time>2026-09-01T01:14:33Z</time>
  <course>53.46</course>
  <speed>0.99</speed>
  <fix>3d</fix>
</trkpt>
<trkpt lat="33.8108736" lon="-118.3935786">
  <ele>-24.988</ele>
  <time>2026-09-01T01:14:33Z</time>
  <course>54.76</course>
  <speed>0.9765244492586962</speed>
  <fix>3d</fix>
</trkpt>
<trkpt lat="33.8108732" lon="-118.3935797">
  <ele>-24.38</ele>
  <time>2026-09-01T01:14:33Z</time>
  <course>53.44</course>
  <speed>0.99</speed>
  <fix>3d</fix>
</trkpt>
<trkpt lat="33.8108741" lon="-118.3935777">
  <ele>-24.988</ele>
  <time>2026-09-01T01:14:33Z</time>
  <course>54.76</course>
  <speed>0.9765244492586962</speed>
  <fix>3d</fix>
</trkpt>
<trkpt lat="33.8108732" lon="-118.3935797">
  <ele>-24.38</ele>
  <time>2026-09-01T01:14:33Z</time>
  <course>53.44</course>
  <speed>0.99</speed>
  <fix>3d</fix>
</trkpt>
<trkpt lat="33.8108747" lon="-118.3935769">
  <ele>-24.988</ele>
  <time>2026-09-01T01:14:33Z</time>
  <course>54.78</course>
  <speed>0.9765244492586962</speed>
  <fix>3d</fix>
</trkpt>
<trkpt lat="33.8108742" lon="-118.393578">
  <ele>-24.38</ele>
  <time>2026-09-01T01:14:33Z</time>
  <course>53.46</course>
  <speed>0.99</speed>
  <fix>3d</fix>
</trkpt>
<trkpt lat="33.8108752" lon="-118.393576">
  <ele>-24.989</ele>
  <time>2026-09-01T01:14:33Z</time>
  <course>54.79</course>
  <speed>0.9765244492586962</speed>
  <fix>3d</fix>
</trkpt>
<trkpt lat="33.8108742" lon="-118.393578">
  <ele>-24.38</ele>
  <time>2026-09-01T01:14:33Z</time>
  <course>53.46</course>
  <speed>0.99</speed>
  <fix>3d</fix>
</trkpt>
<trkpt lat="33.8108757" lon="-118.3935751">
  <ele>-24.99</ele>
  <time>2026-09-01T01:14:33Z</time>
  <course>54.79</course>
  <speed>0.9765244492586962</speed>
  <fix>3d</fix>
</trkpt>
<trkpt lat="33.8108753" lon="-118.3935763">
  <ele>-24.39</ele>
  <time>2026-09-01T01:14:33Z</time>
  <course>53.47</course>
  <speed>0.99</speed>
  <fix>3d</fix>
</trkpt>
<trkpt lat="33.8108763" lon="-118.3935743">
  <ele>-24.992</ele>
  <time>2026-09-01T01:14:33Z</time>
  <course>54.79</course>
  <speed>0.9765244492586962</speed>
  <fix>3d</fix>
</trkpt>
<trkpt lat="33.8108753" lon="-118.3935763">
  <ele>-24.39</ele>
  <time>2026-09-01T01:14:33Z</time>
  <course>53.47</course>
  <speed>0.99</speed>
  <fix>3d</fix>
</trkpt>
<trkpt lat="33.8108768" lon="-118.3935734">
  <ele>-24.992</ele>
  <time>2026-09-01T01:14:33Z</time>
  <course>54.79</course>
  <speed>0.9765244492586962</speed>
  <fix>3d</fix>
</trkpt>
<trkpt lat="33.8108764" lon="-118.3935745">
  <ele>-24.39</ele>
  <time>2026-09-01T01:14:33Z</time>
  <course>53.47</course>
  <speed>0.99</speed>
  <fix>3d</fix>
</trkpt>
<trkpt lat="33.8108773" lon="-118.3935725">
  <ele>-24.993</ele>
  <time>2026-09-01T01:14:33Z</time>
  <course>54.8</course>
  <speed>0.9765244492586962</speed>
  <fix>3d</fix>
</trkpt>
<trkpt lat="33.8108764" lon="-118.3935745">
  <ele>-24.39</ele>
  <time>2026-09-01T01:14:33Z</time>
  <course>53.47</course>
  <speed>0.99</speed>
  <fix>3d</fix>
</trkpt>
<trkpt lat="33.8108779" lon="-118.3935717">
  <ele>-24.994</ele>
  <time>2026-09-01T01:14:33Z</time>
  <course>54.81</course>
  <speed>0.9765244492586962</speed>
  <fix>3d</fix>
</trkpt>
<trkpt lat="33.8108774" lon="-118.3935728">
  <ele>-24.39</ele>
  <time>2026-09-01T01:14:33Z</time>
  <course>53.47</course>
  <speed>0.99</speed>
  <fix>3d</fix>
</trkpt>
<trkpt lat="33.8108784" lon="-118.3935708">
  <ele>-24.996</ele>
  <time>2026-09-01T01:14:33Z</time>
  <course>54.81</course>
  <speed>0.9765244492586962</speed>
  <fix>3d</fix>
</trkpt>
<trkpt lat="33.8108774" lon="-118.3935728">
  <ele>-24.39</ele>
  <time>2026-09-01T01:14:33Z</time>
  <course>53.47</course>
  <speed>0.99</speed>
  <fix>3d</fix>
</trkpt>
<trkpt lat="33.8108789" lon="-118.3935699">
  <ele>-24.998</ele>
  <time>2026-09-01T01:14:33Z</time>
  <course>54.81</course>
  <speed>0.9765244492586962</speed>
  <fix>3d</fix>
</trkpt>
<trkpt lat="33.8108785" lon="-118.3935711">
  <ele>-24.39</ele>
  <time>2026-09-01T01:14:33Z</time>
  <course>53.47</course>
  <speed>0.99</speed>
  <fix>3d</fix>
</trkpt>
<trkpt lat="33.8108795" lon="-118.393569">
  <ele>-24.999</ele>
  <time>2026-09-01T01:14:33Z</time>
  <course>54.8</course>
  <speed>0.9765244492586962</speed>
  <fix>3d</fix>
</trkpt>
<trkpt lat="33.8108785" lon="-118.3935711">
  <ele>-24.39</ele>
  <time>2026-09-01T01:14:33Z</time>
  <course>53.47</course>
  <speed>0.99</speed>
  <fix>3d</fix>
</trkpt>
<trkpt lat="33.81088" lon="-118.3935682">
  <ele>-25.0</ele>
  <time>2026-09-01T01:14:33Z</time>
  <course>54.81</course>
  <speed>0.9765244492586962</speed>
  <fix>3d</fix>
</trkpt>
<trkpt lat="33.8108796" lon="-118.3935693">
  <ele>-24.4</ele>
  <time>2026-09-01T01:14:33Z</time>
  <course>53.47</course>
  <speed>0.99</speed>
  <fix>3d</fix>
</trkpt>
<trkpt lat="33.8108805" lon="-118.3935673">
  <ele>-25.0</ele>
  <time>2026-09-01T01:14:33Z</time>
  <course>54.81</course>
  <speed>0.9765244492586962</speed>
  <fix>3d</fix>
</trkpt>
<trkpt lat="33.8108796" lon="-118.3935693">
  <ele>-24.4</ele>
  <time>2026-09-01T01:14:33Z</time>
  <course>53.47</course>
  <speed>0.99</speed>
  <fix>3d</fix>
</trkpt>
<trkpt lat="33.8108811" lon="-118.3935664">
  <ele>-25.0</ele>
  <time>2026-09-01T01:14:33Z</time>
  <course>54.83</course>
  <speed>0.9765244492586962</speed>
  <fix>3d</fix>
</trkpt>
<trkpt lat="33.8108806" lon="-118.3935676">
  <ele>-24.39</ele>
  <time>2026-09-01T01:14:33Z</time>
  <course>53.49</course>
  <speed>0.99</speed>
  <fix>3d</fix>
</trkpt>
<trkpt lat="33.8108816" lon="-118.3935656">
  <ele>-24.998</ele>
  <time>2026-09-01T01:14:33Z</time>
  <course>54.83</course>
  <speed>0.9765244492586962</speed>
  <fix>3d</fix>
</trkpt>
<trkpt lat="33.8108806" lon="-118.3935676">
  <ele>-24.39</ele>
  <time>2026-09-01T01:14:33Z</time>
  <course>53.49</course>
  <speed>0.99</speed>
  <fix>3d</fix>
</trkpt>
<trkpt lat="33.8108822" lon="-118.3935647">
  <ele>-24.996</ele>
  <time>2026-09-01T01:14:33Z</time>
  <course>54.83</course>
  <speed>0.9765244492586962</speed>
  <fix>3d</fix>
</trkpt>
<trkpt lat="33.8108817" lon="-118.3935659">
  <ele>-24.39</ele>
  <time>2026-09-01T01:14:33Z</time>
  <course>53.49</course>
  <speed>0.99</speed>
  <fix>3d</fix>
</trkpt>
<trkpt lat="33.8108827" lon="-118.3935638">
  <ele>-24.994</ele>
  <time>2026-09-01T01:14:33Z</time>
  <course>54.82</course>
  <speed>0.9765244492586962</speed>
  <fix>3d</fix>
</trkpt>
<trkpt lat="33.8108817" lon="-118.3935659">
  <ele>-24.39</ele>
  <time>2026-09-01T01:14:33Z</time>
  <course>53.49</course>
  <speed>0.99</speed>
  <fix>3d</fix>
</trkpt>
<trkpt lat="33.8108832" lon="-118.393563">
  <ele>-24.991</ele>
  <time>2026-09-01T01:14:33Z</time>
  <course>54.82</course>
  <speed>0.9765244492586962</speed>
  <fix>3d</fix>
</trkpt>
<trkpt lat="33.8108828" lon="-118.3935641">
  <ele>-24.38</ele>
  <time>2026-09-01T01:14:33Z</time>
  <course>53.47</course>
  <speed>0.99</speed>
  <fix>3d</fix>
</trkpt>
<trkpt lat="33.8108838" lon="-118.3935621">
  <ele>-24.99</ele>
  <time>2026-09-01T01:14:33Z</time>
  <course>54.83</course>
  <speed>0.9765244492586962</speed>
  <fix>3d</fix>
</trkpt>
<trkpt lat="33.8108828" lon="-118.3935641">
  <ele>-24.38</ele>
  <time>2026-09-01T01:14:33Z</time>
  <course>53.47</course>
  <speed>0.99</speed>
  <fix>3d</fix>
</trkpt>
<trkpt lat="33.8108843" lon="-118.3935612">
  <ele>-24.99</ele>
  <time>2026-09-01T01:14:33Z</time>
  <course>54.85</course>
  <speed>0.9765244492586962</speed>
  <fix>3d</fix>
</trkpt>
<trkpt lat="33.8108839" lon="-118.3935624">
  <ele>-24.38</ele>
  <time>2026-09-01T01:14:33Z</time>
  <course>53.48</course>
  <speed>0.99</speed>
  <fix>3d</fix>
</trkpt>
<trkpt lat="33.8108848" lon="-118.3935603">
  <ele>-24.989</ele>
  <time>2026-09-01T01:14:33Z</time>
  <course>54.87</course>
  <speed>0.9765244492586962</speed>
  <fix>3d</fix>
</trkpt>
<trkpt lat="33.8108839" lon="-118.3935624">
  <ele>-24.38</ele>
  <time>2026-09-01T01:14:33Z</time>
  <course>53.48</course>
  <speed>0.99</speed>
  <fix>3d</fix>
</trkpt>
<trkpt lat="33.8108854" lon="-118.3935595">
  <ele>-24.988</ele>
  <time>2026-09-01T01:14:33Z</time>
  <course>54.9</course>
  <speed>0.9765244492586962</speed>
  <fix>3d</fix>
</trkpt>
<trkpt lat="33.8108849" lon="-118.3935607">
  <ele>-24.38</ele>
  <time>2026-09-01T01:14:33Z</time>
  <course>53.52</course>
  <speed>0.99</speed>
  <fix>3d</fix>
</trkpt>
<trkpt lat="33.8108859" lon="-118.3935586">
  <ele>-24.989</ele>
  <time>2026-09-01T01:14:33Z</time>
  <course>54.93</course>
  <speed>0.9765244492586962</speed>
  <fix>3d</fix>
</trkpt>
<trkpt lat="33.8108849" lon="-118.3935607">
  <ele>-24.38</ele>
  <time>2026-09-01T01:14:33Z</time>
  <course>53.52</course>
  <speed>0.99</speed>
  <fix>3d</fix>
</trkpt>
<trkpt lat="33.8108864" lon="-118.3935577">
  <ele>-24.989</ele>
  <time>2026-09-01T01:14:33Z</time>
  <course>54.95</course>
  <speed>0.9765244492586962</speed>
  <fix>3d</fix>
</trkpt>
<trkpt lat="33.810886" lon="-118.3935589">
  <ele>-24.38</ele>
  <time>2026-09-01T01:14:33Z</time>
  <course>53.56</course>
  <speed>0.99</speed>
  <fix>3d</fix>
</trkpt>
<trkpt lat="33.810887" lon="-118.3935569">
  <ele>-24.989</ele>
  <time>2026-09-01T01:14:33Z</time>
  <course>54.96</course>
  <speed>0.9765244492586962</speed>
  <fix>3d</fix>
</trkpt>
<trkpt lat="33.810886" lon="-118.3935589">
  <ele>-24.38</ele>
  <time>2026-09-01T01:14:33Z</time>
  <course>53.56</course>
  <speed>0.99</speed>
  <fix>3d</fix>
</trkpt>
<trkpt lat="33.8108875" lon="-118.393556">
  <ele>-24.988</ele>
  <time>2026-09-01T01:14:33Z</time>
  <course>54.97</course>
  <speed>0.9765244492586962</speed>
  <fix>3d</fix>
</trkpt>
<trkpt lat="33.8108871" lon="-118.3935572">
  <ele>-24.38</ele>
  <time>2026-09-01T01:14:33Z</time>
  <course>53.57</course>
  <speed>0.99</speed>
  <fix>3d</fix>
</trkpt>
<trkpt lat="33.810888" lon="-118.3935551">
  <ele>-24.988</ele>
  <time>2026-09-01T01:14:33Z</time>
  <course>54.97</course>
  <speed>0.9765244492586962</speed>
  <fix>3d</fix>
</trkpt>
<trkpt lat="33.8108871" lon="-118.3935572">
  <ele>-24.38</ele>
  <time>2026-09-01T01:14:33Z</time>
  <course>53.57</course>
  <speed>0.99</speed>
  <fix>3d</fix>
</trkpt>
<trkpt lat="33.8108886" lon="-118.3935543">
  <ele>-24.988</ele>
  <time>2026-09-01T01:14:33Z</time>
  <course>54.99</course>
  <speed>0.9765244492586962</speed>
  <fix>3d</fix>
</trkpt>
<trkpt lat="33.8108881" lon="-118.3935554">
  <ele>-24.38</ele>
  <time>2026-09-01T01:14:33Z</time>
  <course>53.59</course>
  <speed>0.99</speed>
  <fix>3d</fix>
</trkpt>
<trkpt lat="33.8108891" lon="-118.3935534">
  <ele>-24.989</ele>
  <time>2026-09-01T01:14:33Z</time>
  <course>55.0</course>
  <speed>0.9765244492586962</speed>
  <fix>3d</fix>
</trkpt>
<trkpt lat="33.8108881" lon="-118.3935554">
  <ele>-24.38</ele>
  <time>2026-09-01T01:14:33Z</time>
  <course>53.59</course>
  <speed>0.99</speed>
  <fix>3d</fix>
</trkpt>
<trkpt lat="33.8108896" lon="-118.3935525">
  <ele>-24.99</ele>
  <time>2026-09-01T01:14:33Z</time>
  <course>55.0</course>
  <speed>0.9765244492586962</speed>
  <fix>3d</fix>
</trkpt>
<trkpt lat="33.8108892" lon="-118.3935537">
  <ele>-24.39</ele>
  <time>2026-09-01T01:14:33Z</time>
  <course>53.59</course>
  <speed>0.99</speed>
  <fix>3d</fix>
</trkpt>
<trkpt lat="33.8108902" lon="-118.3935516">
  <ele>-24.991</ele>
  <time>2026-09-01T01:14:33Z</time>
  <course>54.98</course>
  <speed>0.9765244492586962</speed>
  <fix>3d</fix>
</trkpt>
<trkpt lat="33.8108892" lon="-118.3935537">
  <ele>-24.39</ele>
  <time>2026-09-01T01:14:33Z</time>
  <course>53.59</course>
  <speed>0.99</speed>
  <fix>3d</fix>
</trkpt>
<trkpt lat="33.8108907" lon="-118.3935508">
  <ele>-24.992</ele>
  <time>2026-09-01T01:14:33Z</time>
  <course>54.96</course>
  <speed>0.9765244492586962</speed>
  <fix>3d</fix>
</trkpt>
<trkpt lat="33.8108902" lon="-118.393552">
  <ele>-24.39</ele>
  <time>2026-09-01T01:14:33Z</time>
  <course>53.57</course>
  <speed>0.99</speed>
  <fix>3d</fix>
</trkpt>
<trkpt lat="33.8108912" lon="-118.3935499">
  <ele>-24.993</ele>
  <time>2026-09-01T01:14:33Z</time>
  <course>54.95</course>
  <speed>0.9765244492586962</speed>
  <fix>3d</fix>
</trkpt>
<trkpt lat="33.8108902" lon="-118.393552">
  <ele>-24.39</ele>
  <time>2026-09-01T01:14:33Z</time>
  <course>53.57</course>
  <speed>0.99</speed>
  <fix>3d</fix>
</trkpt>
<trkpt lat="33.8108918" lon="-118.393549">
  <ele>-24.995</ele>
  <time>2026-09-01T01:14:33Z</time>
  <course>54.93</course>
  <speed>0.9765244492586962</speed>
  <fix>3d</fix>
</trkpt>
<trkpt lat="33.8108913" lon="-118.3935502">
  <ele>-24.39</ele>
  <time>2026-09-01T01:14:33Z</time>
  <course>53.54</course>
  <speed>0.99</speed>
  <fix>3d</fix>
</trkpt>
<trkpt lat="33.8108923" lon="-118.3935482">
  <ele>-24.996</ele>
  <time>2026-09-01T01:14:33Z</time>
  <course>54.91</course>
  <speed>0.9765244492586962</speed>
  <fix>3d</fix>
</trkpt>
<trkpt lat="33.8108913" lon="-118.3935502">
  <ele>-24.39</ele>
  <time>2026-09-01T01:14:33Z</time>
  <course>53.54</course>
  <speed>0.99</speed>
  <fix>3d</fix>
</trkpt>
<trkpt lat="33.8108928" lon="-118.3935473">
  <ele>-24.996</ele>
  <time>2026-09-01T01:14:33Z</time>
  <course>54.89</course>
  <speed>0.9765244492586962</speed>
  <fix>3d</fix>
</trkpt>
<trkpt lat="33.8108924" lon="-118.3935485">
  <ele>-24.4</ele>
  <time>2026-09-01T01:14:33Z</time>
  <course>53.49</course>
  <speed>1.0</speed>
  <fix>3d</fix>
</trkpt>
<trkpt lat="33.8108934" lon="-118.3935464">
  <ele>-24.997</ele>
  <time>2026-09-01T01:14:33Z</time>
  <course>54.88</course>
  <speed>0.9765244492586962</speed>
  <fix>3d</fix>
</trkpt>
<trkpt lat="33.8108924" lon="-118.3935485">
  <ele>-24.4</ele>
  <time>2026-09-01T01:14:33Z</time>
  <course>53.49</course>
  <speed>1.0</speed>
  <fix>3d</fix>
</trkpt>
<trkpt lat="33.8108939" lon="-118.3935456">
  <ele>-24.998</ele>
  <time>2026-09-01T01:14:33Z</time>
  <course>54.87</course>
  <speed>0.9765244492586962</speed>
  <fix>3d</fix>
</trkpt>
<trkpt lat="33.8108935" lon="-118.3935467">
  <ele>-24.4</ele>
  <time>2026-09-01T01:14:33Z</time>
  <course>53.48</course>
  <speed>1.0</speed>
  <fix>3d</fix>
</trkpt>
<trkpt lat="33.8108945" lon="-118.3935447">
  <ele>-24.998</ele>
  <time>2026-09-01T01:14:33Z</time>
  <course>54.87</course>
  <speed>0.9765244492586962</speed>
  <fix>3d</fix>
</trkpt>
<trkpt lat="33.8108935" lon="-118.3935467">
  <ele>-24.4</ele>
  <time>2026-09-01T01:14:33Z</time>
  <course>53.48</course>
  <speed>1.0</speed>
  <fix>3d</fix>
</trkpt>
<trkpt lat="33.810895" lon="-118.3935438">
  <ele>-24.998</ele>
  <time>2026-09-01T01:14:33Z</time>
  <course>54.88</course>
  <speed>0.9765244492586962</speed>
  <fix>3d</fix>
</trkpt>
<trkpt lat="33.8108945" lon="-118.393545">
  <ele>-24.39</ele>
  <time>2026-09-01T01:14:33Z</time>
  <course>53.5</course>
  <speed>1.0</speed>
  <fix>3d</fix>
</trkpt>
<trkpt lat="33.8108955" lon="-118.3935429">
  <ele>-24.998</ele>
  <time>2026-09-01T01:14:33Z</time>
  <course>54.88</course>
  <speed>0.9765244492586962</speed>
  <fix>3d</fix>
</trkpt>
<trkpt lat="33.8108945" lon="-118.393545">
  <ele>-24.39</ele>
  <time>2026-09-01T01:14:33Z</time>
  <course>53.5</course>
  <speed>1.0</speed>
  <fix>3d</fix>
</trkpt>
<trkpt lat="33.8108961" lon="-118.3935421">
  <ele>-24.996</ele>
  <time>2026-09-01T01:14:33Z</time>
  <course>54.88</course>
  <speed>0.9765244492586962</speed>
  <fix>3d</fix>
</trkpt>
<trkpt lat="33.8108956" lon="-118.3935433">
  <ele>-24.39</ele>
  <time>2026-09-01T01:14:33Z</time>
  <course>53.51</course>
  <speed>1.0</speed>
  <fix>3d</fix>
</trkpt>
<trkpt lat="33.8108966" lon="-118.3935412">
  <ele>-24.993</ele>
  <time>2026-09-01T01:14:33Z</time>
  <course>54.88</course>
  <speed>0.9765244492586962</speed>
  <fix>3d</fix>
</trkpt>
<trkpt lat="33.8108956" lon="-118.3935433">
  <ele>-24.39</ele>
  <time>2026-09-01T01:14:33Z</time>
  <course>53.51</course>
  <speed>1.0</speed>
  <fix>3d</fix>
</trkpt>
<trkpt lat="33.8108971" lon="-118.3935403">
  <ele>-24.991</ele>
  <time>2026-09-01T01:14:33Z</time>
  <course>54.88</course>
  <speed>0.9765244492586962</speed>
  <fix>3d</fix>
</trkpt>
<trkpt lat="33.8108967" lon="-118.3935415">
  <ele>-24.39</ele>
  <time>2026-09-01T01:14:33Z</time>
  <course>53.52</course>
  <speed>1.0</speed>
  <fix>3d</fix>
</trkpt>
<trkpt lat="33.8108977" lon="-118.3935395">
  <ele>-24.989</ele>
  <time>2026-09-01T01:14:33Z</time>
  <course>54.88</course>
  <speed>0.9765244492586962</speed>
  <fix>3d</fix>
</trkpt>
<trkpt lat="33.8108967" lon="-118.3935415">
  <ele>-24.39</ele>
  <time>2026-09-01T01:14:33Z</time>
  <course>53.52</course>
  <speed>1.0</speed>
  <fix>3d</fix>
</trkpt>
<trkpt lat="33.8108982" lon="-118.3935386">
  <ele>-24.987</ele>
  <time>2026-09-01T01:14:33Z</time>
  <course>54.9</course>
  <speed>0.9765244492586962</speed>
  <fix>3d</fix>
</trkpt>
<trkpt lat="33.8108977" lon="-118.3935397">
  <ele>-24.38</ele>
  <time>2026-09-01T01:14:33Z</time>
  <course>53.54</course>
  <speed>1.0</speed>
  <fix>3d</fix>
</trkpt>
<trkpt lat="33.8108987" lon="-118.3935377">
  <ele>-24.986</ele>
  <time>2026-09-01T01:14:33Z</time>
  <course>54.89</course>
  <speed>0.9765244492586962</speed>
  <fix>3d</fix>
</trkpt>
<trkpt lat="33.8108977" lon="-118.3935397">
  <ele>-24.38</ele>
  <time>2026-09-01T01:14:33Z</time>
  <course>53.54</course>
  <speed>1.0</speed>
  <fix>3d</fix>
</trkpt>
<trkpt lat="33.8108993" lon="-118.3935369">
  <ele>-24.986</ele>
  <time>2026-09-01T01:14:33Z</time>
  <course>54.87</course>
  <speed>0.9765244492586962</speed>
  <fix>3d</fix>
</trkpt>
<trkpt lat="33.8108988" lon="-118.393538">
  <ele>-24.38</ele>
  <time>2026-09-01T01:14:33Z</time>
  <course>53.51</course>
  <speed>1.0</speed>
  <fix>3d</fix>
</trkpt>
<trkpt lat="33.8108998" lon="-118.393536">
  <ele>-24.986</ele>
  <time>2026-09-01T01:14:33Z</time>
  <course>54.84</course>
  <speed>0.9765244492586962</speed>
  <fix>3d</fix>
</trkpt>
<trkpt lat="33.8108988" lon="-118.393538">
  <ele>-24.38</ele>
  <time>2026-09-01T01:14:33Z</time>
  <course>53.51</course>
  <speed>1.0</speed>
  <fix>3d</fix>
</trkpt>
<trkpt lat="33.8109003" lon="-118.3935351">
  <ele>-24.987</ele>
  <time>2026-09-01T01:14:33Z</time>
  <course>54.82</course>
  <speed>0.9765244492586962</speed>
  <fix>3d</fix>
</trkpt>
<trkpt lat="33.8108998" lon="-118.3935363">
  <ele>-24.38</ele>
  <time>2026-09-01T01:14:33Z</time>
  <course>53.45</course>
  <speed>1.0</speed>
  <fix>3d</fix>
</trkpt>
<trkpt lat="33.8109009" lon="-118.3935342">
  <ele>-24.988</ele>
  <time>2026-09-01T01:14:33Z</time>
  <course>54.8</course>
  <speed>0.9765244492586962</speed>
  <fix>3d</fix>
</trkpt>
<trkpt lat="33.8108998" lon="-118.3935363">
  <ele>-24.38</ele>
  <time>2026-09-01T01:14:33Z</time>
  <course>53.45</course>
  <speed>1.0</speed>
  <fix>3d</fix>
</trkpt>
<trkpt lat="33.8109014" lon="-118.3935334">
  <ele>-24.99</ele>
  <time>2026-09-01T01:14:33Z</time>
  <course>54.77</course>
  <speed>0.9765244492586962</speed>
  <fix>3d</fix>
</trkpt>
<trkpt lat="33.8109009" lon="-118.3935346">
  <ele>-24.39</ele>
  <time>2026-09-01T01:14:33Z</time>
  <course>53.41</course>
  <speed>1.0</speed>
  <fix>3d</fix>
</trkpt>
<trkpt lat="33.8109019" lon="-118.3935325">
  <ele>-24.992</ele>
  <time>2026-09-01T01:14:33Z</time>
  <course>54.75</course>
  <speed>0.9765244492586962</speed>
  <fix>3d</fix>
</trkpt>
<trkpt lat="33.8109009" lon="-118.3935346">
  <ele>-24.39</ele>
  <time>2026-09-01T01:14:33Z</time>
  <course>53.41</course>
  <speed>1.0</speed>
  <fix>3d</fix>
</trkpt>
<trkpt lat="33.8109025" lon="-118.3935316">
  <ele>-24.994</ele>
  <time>2026-09-01T01:14:33Z</time>
  <course>54.73</course>
  <speed>0.9765244492586962</speed>
  <fix>3d</fix>
</trkpt>
<trkpt lat="33.810902" lon="-118.3935328">
  <ele>-24.39</ele>
  <time>2026-09-01T01:14:33Z</time>
  <course>53.39</course>
  <speed>1.0</speed>
  <fix>3d</fix>
</trkpt>
<trkpt lat="33.810903" lon="-118.3935308">
  <ele>-24.996</ele>
  <time>2026-09-01T01:14:33Z</time>
  <course>54.72</course>
  <speed>0.9765244492586962</speed>
  <fix>3d</fix>
</trkpt>
<trkpt lat="33.810902" lon="-118.3935328">
  <ele>-24.39</ele>
  <time>2026-09-01T01:14:33Z</time>
  <course>53.39</course>
  <speed>1.0</speed>
  <fix>3d</fix>
</trkpt>
<trkpt lat="33.8109035" lon="-118.3935299">
  <ele>-24.997</ele>
  <time>2026-09-01T01:14:33Z</time>
  <course>54.72</course>
  <speed>0.9765244492586962</speed>
  <fix>3d</fix>
</trkpt>
<trkpt lat="33.8109031" lon="-118.3935311">
  <ele>-24.39</ele>
  <time>2026-09-01T01:14:33Z</time>
  <course>53.4</course>
  <speed>1.0</speed>
  <fix>3d</fix>
</trkpt>
<trkpt lat="33.8109041" lon="-118.393529">
  <ele>-24.998</ele>
  <time>2026-09-01T01:14:33Z</time>
  <course>54.73</course>
  <speed>0.9765244492586962</speed>
  <fix>3d</fix>
</trkpt>
<trkpt lat="33.8109031" lon="-118.3935311">
  <ele>-24.39</ele>
  <time>2026-09-01T01:14:33Z</time>
  <course>53.4</course>
  <speed>1.0</speed>
  <fix>3d</fix>
</trkpt>
<trkpt lat="33.8109046" lon="-118.3935281">
  <ele>-24.999</ele>
  <time>2026-09-01T01:14:33Z</time>
  <course>54.74</course>
  <speed>0.9765244492586962</speed>
  <fix>3d</fix>
</trkpt>
<trkpt lat="33.8109041" lon="-118.3935293">
  <ele>-24.39</ele>
  <time>2026-09-01T01:14:33Z</time>
  <course>53.41</course>
  <speed>1.0</speed>
  <fix>3d</fix>
</trkpt>
<trkpt lat="33.8109051" lon="-118.3935273">
  <ele>-24.997</ele>
  <time>2026-09-01T01:14:33Z</time>
  <course>54.75</course>
  <speed>0.9765244492586962</speed>
  <fix>3d</fix>
</trkpt>
<trkpt lat="33.8109041" lon="-118.3935293">
  <ele>-24.39</ele>
  <time>2026-09-01T01:14:33Z</time>
  <course>53.41</course>
  <speed>1.0</speed>
  <fix>3d</fix>
</trkpt>
<trkpt lat="33.8109057" lon="-118.3935264">
  <ele>-24.995</ele>
  <time>2026-09-01T01:14:33Z</time>
  <course>54.75</course>
  <speed>0.9765244492586962</speed>
  <fix>3d</fix>
</trkpt>
<trkpt lat="33.8109052" lon="-118.3935276">
  <ele>-24.39</ele>
  <time>2026-09-01T01:14:33Z</time>
  <course>53.4</course>
  <speed>1.0</speed>
  <fix>3d</fix>
</trkpt>
<trkpt lat="33.8109062" lon="-118.3935255">
  <ele>-24.993</ele>
  <time>2026-09-01T01:14:33Z</time>
  <course>54.74</course>
  <speed>0.9765244492586962</speed>
  <fix>3d</fix>
</trkpt>
<trkpt lat="33.8109052" lon="-118.3935276">
  <ele>-24.39</ele>
  <time>2026-09-01T01:14:33Z</time>
  <course>53.4</course>
  <speed>1.0</speed>
  <fix>3d</fix>
</trkpt>
<trkpt lat="33.8109068" lon="-118.3935247">
  <ele>-24.99</ele>
  <time>2026-09-01T01:14:33Z</time>
  <course>54.74</course>
  <speed>0.9765244492586962</speed>
  <fix>3d</fix>
</trkpt>
<trkpt lat="33.8109063" lon="-118.3935258">
  <ele>-24.39</ele>
  <time>2026-09-01T01:14:33Z</time>
  <course>53.38</course>
  <speed>1.0</speed>
  <fix>3d</fix>
</trkpt>
<trkpt lat="33.8109073" lon="-118.3935238">
  <ele>-24.988</ele>
  <time>2026-09-01T01:14:33Z</time>
  <course>54.73</course>
  <speed>0.9765244492586962</speed>
  <fix>3d</fix>
</trkpt>
<trkpt lat="33.8109063" lon="-118.3935258">
  <ele>-24.39</ele>
  <time>2026-09-01T01:14:33Z</time>
  <course>53.38</course>
  <speed>1.0</speed>
  <fix>3d</fix>
</trkpt>
<trkpt lat="33.8109078" lon="-118.3935229">
  <ele>-24.986</ele>
  <time>2026-09-01T01:14:33Z</time>
  <course>54.74</course>
  <speed>0.9765244492586962</speed>
  <fix>3d</fix>
</trkpt>
<trkpt lat="33.8109074" lon="-118.3935241">
  <ele>-24.38</ele>
  <time>2026-09-01T01:14:33Z</time>
  <course>53.39</course>
  <speed>1.0</speed>
  <fix>3d</fix>
</trkpt>
<trkpt lat="33.8109084" lon="-118.393522">
  <ele>-24.985</ele>
  <time>2026-09-01T01:14:33Z</time>
  <course>54.74</course>
  <speed>0.9765244492586962</speed>
  <fix>3d</fix>
</trkpt>
<trkpt lat="33.8109074" lon="-118.3935241">
  <ele>-24.38</ele>
  <time>2026-09-01T01:14:33Z</time>
  <course>53.39</course>
  <speed>1.0</speed>
  <fix>3d</fix>
</trkpt>
<trkpt lat="33.8109089" lon="-118.3935212">
  <ele>-24.985</ele>
  <time>2026-09-01T01:14:33Z</time>
  <course>54.76</course>
  <speed>0.9765244492586962</speed>
  <fix>3d</fix>
</trkpt>
<trkpt lat="33.8109084" lon="-118.3935224">
  <ele>-24.38</ele>
  <time>2026-09-01T01:14:33Z</time>
  <course>53.41</course>
  <speed>1.0</speed>
  <fix>3d</fix>
</trkpt>
<trkpt lat="33.8109094" lon="-118.3935203">
  <ele>-24.987</ele>
  <time>2026-09-01T01:14:33Z</time>
  <course>54.78</course>
  <speed>0.9765244492586962</speed>
  <fix>3d</fix>
</trkpt>
<trkpt lat="33.8109084" lon="-118.3935224">
  <ele>-24.38</ele>
  <time>2026-09-01T01:14:33Z</time>
  <course>53.41</course>
  <speed>1.0</speed>
  <fix>3d</fix>
</trkpt>
<trkpt lat="33.81091" lon="-118.3935194">
  <ele>-24.989</ele>
  <time>2026-09-01T01:14:33Z</time>
  <course>54.79</course>
  <speed>0.9765244492586962</speed>
  <fix>3d</fix>
</trkpt>
<trkpt lat="33.8109095" lon="-118.3935206">
  <ele>-24.39</ele>
  <time>2026-09-01T01:14:33Z</time>
  <course>53.43</course>
  <speed>1.0</speed>
  <fix>3d</fix>
</trkpt>
<trkpt lat="33.8109105" lon="-118.3935186">
  <ele>-24.992</ele>
  <time>2026-09-01T01:14:33Z</time>
  <course>54.81</course>
  <speed>0.9765244492586962</speed>
  <fix>3d</fix>
</trkpt>
<trkpt lat="33.8109095" lon="-118.3935206">
  <ele>-24.39</ele>
  <time>2026-09-01T01:14:33Z</time>
  <course>53.43</course>
  <speed>1.0</speed>
  <fix>3d</fix>
</trkpt>
<trkpt lat="33.810911" lon="-118.3935177">
  <ele>-24.995</ele>
  <time>2026-09-01T01:14:33Z</time>
  <course>54.81</course>
  <speed>0.9765244492586962</speed>
  <fix>3d</fix>
</trkpt>
<trkpt lat="33.8109106" lon="-118.3935189">
  <ele>-24.39</ele>
  <time>2026-09-01T01:14:33Z</time>
  <course>53.43</course>
  <speed>1.0</speed>
  <fix>3d</fix>
</trkpt>
<trkpt lat="33.8109116" lon="-118.3935168">
  <ele>-24.996</ele>
  <time>2026-09-01T01:14:33Z</time>
  <course>54.82</course>
  <speed>0.9765244492586962</speed>
  <fix>3d</fix>
</trkpt>
<trkpt lat="33.8109106" lon="-118.3935189">
  <ele>-24.39</ele>
  <time>2026-09-01T01:14:33Z</time>
  <course>53.43</course>
  <speed>1.0</speed>
  <fix>3d</fix>
</trkpt>
<trkpt lat="33.8109121" lon="-118.393516">
  <ele>-24.996</ele>
  <time>2026-09-01T01:14:33Z</time>
  <course>54.83</course>
  <speed>0.9765244492586962</speed>
  <fix>3d</fix>
</trkpt>
<trkpt lat="33.8109117" lon="-118.3935172">
  <ele>-24.39</ele>
  <time>2026-09-01T01:14:33Z</time>
  <course>53.44</course>
  <speed>1.0</speed>
  <fix>3d</fix>
</trkpt>
<trkpt lat="33.8109126" lon="-118.3935151">
  <ele>-24.997</ele>
  <time>2026-09-01T01:14:33Z</time>
  <course>54.86</course>
  <speed>0.9765244492586962</speed>
  <fix>3d</fix>
</trkpt>
<trkpt lat="33.8109117" lon="-118.3935172">
  <ele>-24.39</ele>
  <time>2026-09-01T01:14:33Z</time>
  <course>53.44</course>
  <speed>1.0</speed>
  <fix>3d</fix>
</trkpt>
<trkpt lat="33.8109132" lon="-118.3935142">
  <ele>-24.996</ele>
  <time>2026-09-01T01:14:33Z</time>
  <course>54.9</course>
  <speed>0.9765244492586962</speed>
  <fix>3d</fix>
</trkpt>
<trkpt lat="33.8109127" lon="-118.3935154">
  <ele>-24.4</ele>
  <time>2026-09-01T01:14:33Z</time>
  <course>53.49</course>
  <speed>1.0</speed>
  <fix>3d</fix>
</trkpt>
<trkpt lat="33.8109137" lon="-118.3935134">
  <ele>-24.995</ele>
  <time>2026-09-01T01:14:33Z</time>
  <course>54.92</course>
  <speed>0.9765244492586962</speed>
  <fix>3d</fix>
</trkpt>
<trkpt lat="33.8109127" lon="-118.3935154">
  <ele>-24.4</ele>
  <time>2026-09-01T01:14:33Z</time>
  <course>53.49</course>
  <speed>1.0</speed>
  <fix>3d</fix>
</trkpt>
<trkpt lat="33.8109142" lon="-118.3935125">
  <ele>-24.995</ele>
  <time>2026-09-01T01:14:33Z</time>
  <course>54.93</course>
  <speed>0.9765244492586962</speed>
  <fix>3d</fix>
</trkpt>
<trkpt lat="33.8109138" lon="-118.3935137">
  <ele>-24.39</ele>
  <time>2026-09-01T01:14:33Z</time>
  <course>53.54</course>
  <speed>1.0</speed>
  <fix>3d</fix>
</trkpt>
<trkpt lat="33.8109148" lon="-118.3935116">
  <ele>-24.994</ele>
  <time>2026-09-01T01:14:33Z</time>
  <course>54.93</course>
  <speed>0.9765244492586962</speed>
  <fix>3d</fix>
</trkpt>
<trkpt lat="33.8109138" lon="-118.3935137">
  <ele>-24.39</ele>
  <time>2026-09-01T01:14:33Z</time>
  <course>53.54</course>
  <speed>1.0</speed>
  <fix>3d</fix>
</trkpt>
<trkpt lat="33.8109153" lon="-118.3935108">
  <ele>-24.994</ele>
  <time>2026-09-01T01:14:33Z</time>
  <course>54.93</course>
  <speed>0.9765244492586962</speed>
  <fix>3d</fix>
</trkpt>
<trkpt lat="33.8109149" lon="-118.3935119">
  <ele>-24.39</ele>
  <time>2026-09-01T01:14:33Z</time>
  <course>53.53</course>
  <speed>1.0</speed>
  <fix>3d</fix>
</trkpt>
<trkpt lat="33.8109158" lon="-118.3935099">
  <ele>-24.992</ele>
  <time>2026-09-01T01:14:33Z</time>
  <course>54.94</course>
  <speed>0.9765244492586962</speed>
  <fix>3d</fix>
</trkpt>
<trkpt lat="33.8109149" lon="-118.3935119">
  <ele>-24.39</ele>
  <time>2026-09-01T01:14:33Z</time>
  <course>53.53</course>
  <speed>1.0</speed>
  <fix>3d</fix>
</trkpt>
<trkpt lat="33.8109164" lon="-118.393509">
  <ele>-24.991</ele>
  <time>2026-09-01T01:14:33Z</time>
  <course>54.95</course>
  <speed>0.9765244492586962</speed>
  <fix>3d</fix>
</trkpt>
<trkpt lat="33.8109159" lon="-118.3935102">
  <ele>-24.39</ele>
  <time>2026-09-01T01:14:33Z</time>
  <course>53.54</course>
  <speed>1.0</speed>
  <fix>3d</fix>
</trkpt>
<trkpt lat="33.8109169" lon="-118.3935081">
  <ele>-24.99</ele>
  <time>2026-09-01T01:14:33Z</time>
  <course>54.96</course>
  <speed>0.9765244492586962</speed>
  <fix>3d</fix>
</trkpt>
<trkpt lat="33.8109159" lon="-118.3935102">
  <ele>-24.39</ele>
  <time>2026-09-01T01:14:33Z</time>
  <course>53.54</course>
  <speed>1.0</speed>
  <fix>3d</fix>
</trkpt>
<trkpt lat="33.8109174" lon="-118.3935073">
  <ele>-24.989</ele>
  <time>2026-09-01T01:14:33Z</time>
  <course>54.95</course>
  <speed>0.9765244492586962</speed>
  <fix>3d</fix>
</trkpt>
<trkpt lat="33.810917" lon="-118.3935085">
  <ele>-24.38</ele>
  <time>2026-09-01T01:14:33Z</time>
  <course>53.54</course>
  <speed>1.0</speed>
  <fix>3d</fix>
</trkpt>
<trkpt lat="33.810918" lon="-118.3935064">
  <ele>-24.988</ele>
  <time>2026-09-01T01:14:33Z</time>
  <course>54.94</course>
  <speed>0.9765244492586962</speed>
  <fix>3d</fix>
</trkpt>
<trkpt lat="33.810917" lon="-118.3935085">
  <ele>-24.38</ele>
  <time>2026-09-01T01:14:33Z</time>
  <course>53.54</course>
  <speed>1.0</speed>
  <fix>3d</fix>
</trkpt>
<trkpt lat="33.8109185" lon="-118.3935055">
  <ele>-24.987</ele>
  <time>2026-09-01T01:14:33Z</time>
  <course>54.94</course>
  <speed>0.9765244492586962</speed>
  <fix>3d</fix>
</trkpt>
<trkpt lat="33.8109181" lon="-118.3935067">
  <ele>-24.38</ele>
  <time>2026-09-01T01:14:33Z</time>
  <course>53.55</course>
  <speed>1.0</speed>
  <fix>3d</fix>
</trkpt>
<trkpt lat="33.8109191" lon="-118.3935047">
  <ele>-24.987</ele>
  <time>2026-09-01T01:14:33Z</time>
  <course>54.94</course>
  <speed>0.9765244492586962</speed>
  <fix>3d</fix>
</trkpt>
<trkpt lat="33.8109181" lon="-118.3935067">
  <ele>-24.38</ele>
  <time>2026-09-01T01:14:33Z</time>
  <course>53.55</course>
  <speed>1.0</speed>
  <fix>3d</fix>
</trkpt>
<trkpt lat="33.8109196" lon="-118.3935038">
  <ele>-24.987</ele>
  <time>2026-09-01T01:14:33Z</time>
  <course>54.95</course>
  <speed>0.9765244492586962</speed>
  <fix>3d</fix>
</trkpt>
<trkpt lat="33.8109192" lon="-118.393505">
  <ele>-24.38</ele>
  <time>2026-09-01T01:14:33Z</time>
  <course>53.56</course>
  <speed>1.0</speed>
  <fix>3d</fix>
</trkpt>
<trkpt lat="33.8109201" lon="-118.3935029">
  <ele>-24.989</ele>
  <time>2026-09-01T01:14:33Z</time>
  <course>54.95</course>
  <speed>0.9765244492586962</speed>
  <fix>3d</fix>
</trkpt>
<trkpt lat="33.8109192" lon="-118.393505">
  <ele>-24.38</ele>
  <time>2026-09-01T01:14:33Z</time>
  <course>53.56</course>
  <speed>1.0</speed>
  <fix>3d</fix>
</trkpt>
<trkpt lat="33.8109207" lon="-118.3935021">
  <ele>-24.992</ele>
  <time>2026-09-01T01:14:33Z</time>
  <course>54.98</course>
  <speed>0.9765244492586962</speed>
  <fix>3d</fix>
</trkpt>
<trkpt lat="33.8109202" lon="-118.3935032">
  <ele>-24.38</ele>
  <time>2026-09-01T01:14:33Z</time>
  <course>53.59</course>
  <speed>1.0</speed>
  <fix>3d</fix>
</trkpt>
<trkpt lat="33.8109212" lon="-118.3935012">
  <ele>-24.995</ele>
  <time>2026-09-01T01:14:33Z</time>
  <course>54.99</course>
  <speed>0.9765244492586962</speed>
  <fix>3d</fix>
</trkpt>
<trkpt lat="33.8109202" lon="-118.3935032">
  <ele>-24.38</ele>
  <time>2026-09-01T01:14:33Z</time>
  <course>53.59</course>
  <speed>1.0</speed>
  <fix>3d</fix>
</trkpt>
<trkpt lat="33.8109217" lon="-118.3935003">
  <ele>-24.996</ele>
  <time>2026-09-01T01:14:33Z</time>
  <course>54.99</course>
  <speed>0.9765244492586962</speed>
  <fix>3d</fix>
</trkpt>
<trkpt lat="33.8109213" lon="-118.3935014">
  <ele>-24.39</ele>
  <time>2026-09-01T01:14:33Z</time>
  <course>53.61</course>
  <speed>1.0</speed>
  <fix>3d</fix>
</trkpt>
<trkpt lat="33.8109223" lon="-118.3934994">
  <ele>-24.997</ele>
  <time>2026-09-01T01:14:33Z</time>
  <course>54.98</course>
  <speed>0.9765244492586962</speed>
  <fix>3d</fix>
</trkpt>
<trkpt lat="33.8109213" lon="-118.3935014">
  <ele>-24.39</ele>
  <time>2026-09-01T01:14:33Z</time>
  <course>53.61</course>
  <speed>1.0</speed>
  <fix>3d</fix>
</trkpt>
<trkpt lat="33.8109228" lon="-118.3934986">
  <ele>-24.998</ele>
  <time>2026-09-01T01:14:33Z</time>
  <course>54.96</course>
  <speed>0.9765244492586962</speed>
  <fix>3d</fix>
</trkpt>
<trkpt lat="33.8109224" lon="-118.3934997">
  <ele>-24.39</ele>
  <time>2026-09-01T01:14:33Z</time>
  <course>53.57</course>
  <speed>1.0</speed>
  <fix>3d</fix>
</trkpt>
<trkpt lat="33.8109233" lon="-118.3934977">
  <ele>-24.998</ele>
  <time>2026-09-01T01:14:33Z</time>
  <course>54.93</course>
  <speed>0.9765244492586962</speed>
  <fix>3d</fix>
</trkpt>
<trkpt lat="33.8109224" lon="-118.3934997">
  <ele>-24.39</ele>
  <time>2026-09-01T01:14:33Z</time>
  <course>53.57</course>
  <speed>1.0</speed>
  <fix>3d</fix>
</trkpt>
<trkpt lat="33.8109239" lon="-118.3934968">
  <ele>-24.998</ele>
  <time>2026-09-01T01:14:33Z</time>
  <course>54.93</course>
  <speed>0.9765244492586962</speed>
  <fix>3d</fix>
</trkpt>
<trkpt lat="33.8109235" lon="-118.3934979">
  <ele>-24.39</ele>
  <time>2026-09-01T01:14:33Z</time>
  <course>53.53</course>
  <speed>1.0</speed>
  <fix>3d</fix>
</trkpt>
<trkpt lat="33.8109244" lon="-118.3934959">
  <ele>-24.997</ele>
  <time>2026-09-01T01:14:33Z</time>
  <course>54.92</course>
  <speed>0.9765244492586962</speed>
  <fix>3d</fix>
</trkpt>
<trkpt lat="33.8109235" lon="-118.3934979">
  <ele>-24.39</ele>
  <time>2026-09-01T01:14:33Z</time>
  <course>53.53</course>
  <speed>1.0</speed>
  <fix>3d</fix>
</trkpt>
<trkpt lat="33.810925" lon="-118.3934951">
  <ele>-24.993</ele>
  <time>2026-09-01T01:14:33Z</time>
  <course>54.92</course>
  <speed>0.9765244492586962</speed>
  <fix>3d</fix>
</trkpt>
<trkpt lat="33.8109246" lon="-118.3934961">
  <ele>-24.38</ele>
  <time>2026-09-01T01:14:33Z</time>
  <course>53.54</course>
  <speed>1.0</speed>
  <fix>3d</fix>
</trkpt>
<trkpt lat="33.8109255" lon="-118.3934942">
  <ele>-24.99</ele>
  <time>2026-09-01T01:14:33Z</time>
  <course>54.93</course>
  <speed>0.9765244492586962</speed>
  <fix>3d</fix>
</trkpt>
<trkpt lat="33.8109246" lon="-118.3934961">
  <ele>-24.38</ele>
  <time>2026-09-01T01:14:33Z</time>
  <course>53.54</course>
  <speed>1.0</speed>
  <fix>3d</fix>
</trkpt>
<trkpt lat="33.810926" lon="-118.3934933">
  <ele>-24.989</ele>
  <time>2026-09-01T01:14:33Z</time>
  <course>54.93</course>
  <speed>0.9765244492586962</speed>
  <fix>3d</fix>
</trkpt>
<trkpt lat="33.8109256" lon="-118.3934944">
  <ele>-24.38</ele>
  <time>2026-09-01T01:14:33Z</time>
  <course>53.55</course>
  <speed>1.0</speed>
  <fix>3d</fix>
</trkpt>
<trkpt lat="33.8109266" lon="-118.3934924">
  <ele>-24.987</ele>
  <time>2026-09-01T01:14:33Z</time>
  <course>54.93</course>
  <speed>0.9765244492586962</speed>
  <fix>3d</fix>
</trkpt>
<trkpt lat="33.8109256" lon="-118.3934944">
  <ele>-24.38</ele>
  <time>2026-09-01T01:14:33Z</time>
  <course>53.55</course>
  <speed>1.0</speed>
  <fix>3d</fix>
</trkpt>
<trkpt lat="33.8109271" lon="-118.3934916">
  <ele>-24.986</ele>
  <time>2026-09-01T01:14:33Z</time>
  <course>54.92</course>
  <speed>0.9765244492586962</speed>
  <fix>3d</fix>
</trkpt>
<trkpt lat="33.8109267" lon="-118.3934927">
  <ele>-24.37</ele>
  <time>2026-09-01T01:14:33Z</time>
  <course>53.52</course>
  <speed>1.0</speed>
  <fix>3d</fix>
</trkpt>
<trkpt lat="33.8109276" lon="-118.3934907">
  <ele>-24.984</ele>
  <time>2026-09-01T01:14:33Z</time>
  <course>54.9</course>
  <speed>0.9765244492586962</speed>
  <fix>3d</fix>
</trkpt>
<trkpt lat="33.8109267" lon="-118.3934927">
  <ele>-24.37</ele>
  <time>2026-09-01T01:14:33Z</time>
  <course>53.52</course>
  <speed>1.0</speed>
  <fix>3d</fix>
</trkpt>
<trkpt lat="33.8109282" lon="-118.3934898">
  <ele>-24.983</ele>
  <time>2026-09-01T01:14:33Z</time>
  <course>54.9</course>
  <speed>0.9765244492586962</speed>
  <fix>3d</fix>
</trkpt>
<trkpt lat="33.8109278" lon="-118.3934909">
  <ele>-24.37</ele>
  <time>2026-09-01T01:14:33Z</time>
  <course>53.52</course>
  <speed>1.0</speed>
  <fix>3d</fix>
</trkpt>
<trkpt lat="33.8109287" lon="-118.393489">
  <ele>-24.982</ele>
  <time>2026-09-01T01:14:33Z</time>
  <course>54.9</course>
  <speed>0.9765244492586962</speed>
  <fix>3d</fix>
</trkpt>
<trkpt lat="33.8109278" lon="-118.3934909">
  <ele>-24.37</ele>
  <time>2026-09-01T01:14:33Z</time>
  <course>53.52</course>
  <speed>1.0</speed>
  <fix>3d</fix>
</trkpt>
<trkpt lat="33.8109292" lon="-118.3934881">
  <ele>-24.983</ele>
  <time>2026-09-01T01:14:34Z</time>
  <course>54.91</course>
  <speed>0.9765244492586962</speed>
  <fix>3d</fix>
</trkpt>
<trkpt lat="33.8109288" lon="-118.3934892">
  <ele>-24.37</ele>
  <time>2026-09-01T01:14:34Z</time>
  <course>53.54</course>
  <speed>1.0</speed>
  <fix>3d</fix>
</trkpt>
<trkpt lat="33.8109298" lon="-118.3934872">
  <ele>-24.984</ele>
  <time>2026-09-01T01:14:34Z</time>
  <course>54.91</course>
  <speed>0.9765244492586962</speed>
  <fix>3d</fix>
</trkpt>
<trkpt lat="33.8109288" lon="-118.3934892">
  <ele>-24.37</ele>
  <time>2026-09-01T01:14:34Z</time>
  <course>53.54</course>
  <speed>1.0</speed>
  <fix>3d</fix>
</trkpt>
<trkpt lat="33.8109303" lon="-118.3934863">
  <ele>-24.988</ele>
  <time>2026-09-01T01:14:34Z</time>
  <course>54.91</course>
  <speed>0.9683491106000975</speed>
  <fix>3d</fix>
</trkpt>
<trkpt lat="33.8109299" lon="-118.3934875">
  <ele>-24.37</ele>
  <time>2026-09-01T01:14:34Z</time>
  <course>53.53</course>
  <speed>0.99</speed>
  <fix>3d</fix>
</trkpt>
<trkpt lat="33.8109308" lon="-118.3934855">
  <ele>-24.99</ele>
  <time>2026-09-01T01:14:34Z</time>
  <course>54.9</course>
  <speed>0.9765244492586962</speed>
  <fix>3d</fix>
</trkpt>
<trkpt lat="33.8109299" lon="-118.3934875">
  <ele>-24.37</ele>
  <time>2026-09-01T01:14:34Z</time>
  <course>53.53</course>
  <speed>0.99</speed>
  <fix>3d</fix>
</trkpt>
<trkpt lat="33.8109314" lon="-118.3934846">
  <ele>-24.991</ele>
  <time>2026-09-01T01:14:34Z</time>
  <course>54.9</course>
  <speed>0.9765244492586962</speed>
  <fix>3d</fix>
</trkpt>
<trkpt lat="33.8109309" lon="-118.3934857">
  <ele>-24.38</ele>
  <time>2026-09-01T01:14:34Z</time>
  <course>53.52</course>
  <speed>0.99</speed>
  <fix>3d</fix>
</trkpt>
<trkpt lat="33.8109319" lon="-118.3934837">
  <ele>-24.992</ele>
  <time>2026-09-01T01:14:34Z</time>
  <course>54.9</course>
  <speed>0.9765244492586962</speed>
  <fix>3d</fix>
</trkpt>
<trkpt lat="33.8109309" lon="-118.3934857">
  <ele>-24.38</ele>
  <time>2026-09-01T01:14:34Z</time>
  <course>53.52</course>
  <speed>0.99</speed>
  <fix>3d</fix>
</trkpt>
<trkpt lat="33.8109324" lon="-118.3934829">
  <ele>-24.993</ele>
  <time>2026-09-01T01:14:34Z</time>
  <course>54.88</course>
  <speed>0.9765244492586962</speed>
  <fix>3d</fix>
</trkpt>
<trkpt lat="33.810932" lon="-118.393484">
  <ele>-24.38</ele>
  <time>2026-09-01T01:14:34Z</time>
  <course>53.48</course>
  <speed>0.99</speed>
  <fix>3d</fix>
</trkpt>
<trkpt lat="33.810933" lon="-118.393482">
  <ele>-24.993</ele>
  <time>2026-09-01T01:14:34Z</time>
  <course>54.86</course>
  <speed>0.9765244492586962</speed>
  <fix>3d</fix>
</trkpt>
<trkpt lat="33.810932" lon="-118.393484">
  <ele>-24.38</ele>
  <time>2026-09-01T01:14:34Z</time>
  <course>53.48</course>
  <speed>0.99</speed>
  <fix>3d</fix>
</trkpt>
<trkpt lat="33.8109335" lon="-118.3934811">
  <ele>-24.993</ele>
  <time>2026-09-01T01:14:34Z</time>
  <course>54.84</course>
  <speed>0.9765244492586962</speed>
  <fix>3d</fix>
</trkpt>
<trkpt lat="33.8109331" lon="-118.3934822">
  <ele>-24.39</ele>
  <time>2026-09-01T01:14:34Z</time>
  <course>53.42</course>
  <speed>1.0</speed>
  <fix>3d</fix>
</trkpt>
<trkpt lat="33.810934" lon="-118.3934803">
  <ele>-24.993</ele>
  <time>2026-09-01T01:14:34Z</time>
  <course>54.82</course>
  <speed>0.9765244492586962</speed>
  <fix>3d</fix>
</trkpt>
<trkpt lat="33.8109331" lon="-118.3934822">
  <ele>-24.39</ele>
  <time>2026-09-01T01:14:34Z</time>
  <course>53.42</course>
  <speed>1.0</speed>
  <fix>3d</fix>
</trkpt>
<trkpt lat="33.8109346" lon="-118.3934794">
  <ele>-24.992</ele>
  <time>2026-09-01T01:14:34Z</time>
  <course>54.81</course>
  <speed>0.9765244492586962</speed>
  <fix>3d</fix>
</trkpt>
<trkpt lat="33.8109342" lon="-118.3934805">
  <ele>-24.38</ele>
  <time>2026-09-01T01:14:34Z</time>
  <course>53.4</course>
  <speed>1.0</speed>
  <fix>3d</fix>
</trkpt>
<trkpt lat="33.8109351" lon="-118.3934785">
  <ele>-24.99</ele>
  <time>2026-09-01T01:14:34Z</time>
  <course>54.8</course>
  <speed>0.9765244492586962</speed>
  <fix>3d</fix>
</trkpt>
<trkpt lat="33.8109342" lon="-118.3934805">
  <ele>-24.38</ele>
  <time>2026-09-01T01:14:34Z</time>
  <course>53.4</course>
  <speed>1.0</speed>
  <fix>3d</fix>
</trkpt>
<trkpt lat="33.8109357" lon="-118.3934776">
  <ele>-24.99</ele>
  <time>2026-09-01T01:14:34Z</time>
  <course>54.81</course>
  <speed>0.9765244492586962</speed>
  <fix>3d</fix>
</trkpt>
<trkpt lat="33.8109353" lon="-118.3934788">
  <ele>-24.38</ele>
  <time>2026-09-01T01:14:34Z</time>
  <course>53.42</course>
  <speed>1.0</speed>
  <fix>3d</fix>
</trkpt>
<trkpt lat="33.8109362" lon="-118.3934768">
  <ele>-24.989</ele>
  <time>2026-09-01T01:14:34Z</time>
  <course>54.83</course>
  <speed>0.9765244492586962</speed>
  <fix>3d</fix>
</trkpt>
<trkpt lat="33.8109353" lon="-118.3934788">
  <ele>-24.38</ele>
  <time>2026-09-01T01:14:34Z</time>
  <course>53.42</course>
  <speed>1.0</speed>
  <fix>3d</fix>
</trkpt>
<trkpt lat="33.8109367" lon="-118.3934759">
  <ele>-24.988</ele>
  <time>2026-09-01T01:14:34Z</time>
  <course>54.87</course>
  <speed>0.9765244492586962</speed>
  <fix>3d</fix>
</trkpt>
<trkpt lat="33.8109363" lon="-118.393477">
  <ele>-24.38</ele>
  <time>2026-09-01T01:14:34Z</time>
  <course>53.48</course>
  <speed>0.99</speed>
  <fix>3d</fix>
</trkpt>
<trkpt lat="33.8109373" lon="-118.393475">
  <ele>-24.987</ele>
  <time>2026-09-01T01:14:34Z</time>
  <course>54.91</course>
  <speed>0.9765244492586962</speed>
  <fix>3d</fix>
</trkpt>
<trkpt lat="33.8109363" lon="-118.393477">
  <ele>-24.38</ele>
  <time>2026-09-01T01:14:34Z</time>
  <course>53.48</course>
  <speed>0.99</speed>
  <fix>3d</fix>
</trkpt>
<trkpt lat="33.8109378" lon="-118.3934742">
  <ele>-24.986</ele>
  <time>2026-09-01T01:14:34Z</time>
  <course>54.92</course>
  <speed>0.9765244492586962</speed>
  <fix>3d</fix>
</trkpt>
<trkpt lat="33.8109374" lon="-118.3934753">
  <ele>-24.38</ele>
  <time>2026-09-01T01:14:34Z</time>
  <course>53.52</course>
  <speed>0.99</speed>
  <fix>3d</fix>
</trkpt>
<trkpt lat="33.8109383" lon="-118.3934733">
  <ele>-24.986</ele>
  <time>2026-09-01T01:14:34Z</time>
  <course>54.92</course>
  <speed>0.9765244492586962</speed>
  <fix>3d</fix>
</trkpt>
<trkpt lat="33.8109374" lon="-118.3934753">
  <ele>-24.38</ele>
  <time>2026-09-01T01:14:34Z</time>
  <course>53.52</course>
  <speed>0.99</speed>
  <fix>3d</fix>
</trkpt>
<trkpt lat="33.8109389" lon="-118.3934724">
  <ele>-24.987</ele>
  <time>2026-09-01T01:14:34Z</time>
  <course>54.93</course>
  <speed>0.9765244492586962</speed>
  <fix>3d</fix>
</trkpt>
<trkpt lat="33.8109385" lon="-118.3934736">
  <ele>-24.38</ele>
  <time>2026-09-01T01:14:34Z</time>
  <course>53.52</course>
  <speed>0.99</speed>
  <fix>3d</fix>
</trkpt>
<trkpt lat="33.8109394" lon="-118.3934716">
  <ele>-24.988</ele>
  <time>2026-09-01T01:14:34Z</time>
  <course>54.93</course>
  <speed>0.9765244492586962</speed>
  <fix>3d</fix>
</trkpt>
<trkpt lat="33.8109385" lon="-118.3934736">
  <ele>-24.38</ele>
  <time>2026-09-01T01:14:34Z</time>
  <course>53.52</course>
  <speed>0.99</speed>
  <fix>3d</fix>
</trkpt>
<trkpt lat="33.8109399" lon="-118.3934707">
  <ele>-24.989</ele>
  <time>2026-09-01T01:14:34Z</time>
  <course>54.96</course>
  <speed>0.9765244492586962</speed>
  <fix>3d</fix>
</trkpt>
<trkpt lat="33.8109395" lon="-118.3934718">
  <ele>-24.38</ele>
  <time>2026-09-01T01:14:34Z</time>
  <course>53.55</course>
  <speed>0.99</speed>
  <fix>3d</fix>
</trkpt>
<trkpt lat="33.8109405" lon="-118.3934698">
  <ele>-24.991</ele>
  <time>2026-09-01T01:14:34Z</time>
  <course>54.98</course>
  <speed>0.9765244492586962</speed>
  <fix>3d</fix>
</trkpt>
<trkpt lat="33.8109395" lon="-118.3934718">
  <ele>-24.38</ele>
  <time>2026-09-01T01:14:34Z</time>
  <course>53.55</course>
  <speed>0.99</speed>
  <fix>3d</fix>
</trkpt>
<trkpt lat="33.810941" lon="-118.393469">
  <ele>-24.993</ele>
  <time>2026-09-01T01:14:34Z</time>
  <course>54.99</course>
  <speed>0.9765244492586962</speed>
  <fix>3d</fix>
</trkpt>
<trkpt lat="33.8109406" lon="-118.3934701">
  <ele>-24.39</ele>
  <time>2026-09-01T01:14:34Z</time>
  <course>53.55</course>
  <speed>1.0</speed>
  <fix>3d</fix>
</trkpt>
<trkpt lat="33.8109415" lon="-118.3934681">
  <ele>-24.994</ele>
  <time>2026-09-01T01:14:34Z</time>
  <course>54.99</course>
  <speed>0.9765244492586962</speed>
  <fix>3d</fix>
</trkpt>
<trkpt lat="33.8109406" lon="-118.3934701">
  <ele>-24.39</ele>
  <time>2026-09-01T01:14:34Z</time>
  <course>53.55</course>
  <speed>1.0</speed>
  <fix>3d</fix>
</trkpt>
<trkpt lat="33.8109421" lon="-118.3934672">
  <ele>-24.995</ele>
  <time>2026-09-01T01:14:34Z</time>
  <course>54.99</course>
  <speed>0.9765244492586962</speed>
  <fix>3d</fix>
</trkpt>
<trkpt lat="33.8109417" lon="-118.3934684">
  <ele>-24.39</ele>
  <time>2026-09-01T01:14:34Z</time>
  <course>53.54</course>
  <speed>1.0</speed>
  <fix>3d</fix>
</trkpt>
<trkpt lat="33.8109426" lon="-118.3934663">
  <ele>-24.994</ele>
  <time>2026-09-01T01:14:34Z</time>
  <course>54.99</course>
  <speed>0.9765244492586962</speed>
  <fix>3d</fix>
</trkpt>
<trkpt lat="33.8109417" lon="-118.3934684">
  <ele>-24.39</ele>
  <time>2026-09-01T01:14:34Z</time>
  <course>53.54</course>
  <speed>1.0</speed>
  <fix>3d</fix>
</trkpt>
<trkpt lat="33.8109431" lon="-118.3934655">
  <ele>-24.992</ele>
  <time>2026-09-01T01:14:34Z</time>
  <course>55.01</course>
  <speed>0.9765244492586962</speed>
  <fix>3d</fix>
</trkpt>
<trkpt lat="33.8109427" lon="-118.3934666">
  <ele>-24.39</ele>
  <time>2026-09-01T01:14:34Z</time>
  <course>53.57</course>
  <speed>1.0</speed>
  <fix>3d</fix>
</trkpt>
<trkpt lat="33.8109437" lon="-118.3934646">
  <ele>-24.99</ele>
  <time>2026-09-01T01:14:34Z</time>
  <course>55.03</course>
  <speed>0.9765244492586962</speed>
  <fix>3d</fix>
</trkpt>
<trkpt lat="33.8109427" lon="-118.3934666">
  <ele>-24.39</ele>
  <time>2026-09-01T01:14:34Z</time>
  <course>53.57</course>
  <speed>1.0</speed>
  <fix>3d</fix>
</trkpt>
<trkpt lat="33.8109442" lon="-118.3934637">
  <ele>-24.988</ele>
  <time>2026-09-01T01:14:34Z</time>
  <course>55.04</course>
  <speed>0.9765244492586962</speed>
  <fix>3d</fix>
</trkpt>
<trkpt lat="33.8109438" lon="-118.3934649">
  <ele>-24.39</ele>
  <time>2026-09-01T01:14:34Z</time>
  <course>53.59</course>
  <speed>1.0</speed>
  <fix>3d</fix>
</trkpt>
<trkpt lat="33.8109447" lon="-118.3934629">
  <ele>-24.987</ele>
  <time>2026-09-01T01:14:34Z</time>
  <course>55.03</course>
  <speed>0.9765244492586962</speed>
  <fix>3d</fix>
</trkpt>
<trkpt lat="33.8109438" lon="-118.3934649">
  <ele>-24.39</ele>
  <time>2026-09-01T01:14:34Z</time>
  <course>53.59</course>
  <speed>1.0</speed>
  <fix>3d</fix>
</trkpt>
<trkpt lat="33.8109453" lon="-118.393462">
  <ele>-24.986</ele>
  <time>2026-09-01T01:14:34Z</time>
  <course>55.03</course>
  <speed>0.9765244492586962</speed>
  <fix>3d</fix>
</trkpt>
<trkpt lat="33.8109448" lon="-118.3934631">
  <ele>-24.39</ele>
  <time>2026-09-01T01:14:34Z</time>
  <course>53.58</course>
  <speed>1.0</speed>
  <fix>3d</fix>
</trkpt>
<trkpt lat="33.8109458" lon="-118.3934611">
  <ele>-24.986</ele>
  <time>2026-09-01T01:14:34Z</time>
  <course>55.01</course>
  <speed>0.9765244492586962</speed>
  <fix>3d</fix>
</trkpt>
<trkpt lat="33.8109448" lon="-118.3934631">
  <ele>-24.39</ele>
  <time>2026-09-01T01:14:34Z</time>
  <course>53.58</course>
  <speed>1.0</speed>
  <fix>3d</fix>
</trkpt>
<trkpt lat="33.8109463" lon="-118.3934603">
  <ele>-24.988</ele>
  <time>2026-09-01T01:14:34Z</time>
  <course>54.98</course>
  <speed>0.9765244492586962</speed>
  <fix>3d</fix>
</trkpt>
<trkpt lat="33.8109459" lon="-118.3934614">
  <ele>-24.39</ele>
  <time>2026-09-01T01:14:34Z</time>
  <course>53.56</course>
  <speed>1.0</speed>
  <fix>3d</fix>
</trkpt>
<trkpt lat="33.8109469" lon="-118.3934594">
  <ele>-24.989</ele>
  <time>2026-09-01T01:14:34Z</time>
  <course>54.95</course>
  <speed>0.9765244492586962</speed>
  <fix>3d</fix>
</trkpt>
<trkpt lat="33.8109459" lon="-118.3934614">
  <ele>-24.39</ele>
  <time>2026-09-01T01:14:34Z</time>
  <course>53.56</course>
  <speed>1.0</speed>
  <fix>3d</fix>
</trkpt>
<trkpt lat="33.8109474" lon="-118.3934585">
  <ele>-24.991</ele>
  <time>2026-09-01T01:14:34Z</time>
  <course>54.92</course>
  <speed>0.9765244492586962</speed>
  <fix>3d</fix>
</trkpt>
<trkpt lat="33.810947" lon="-118.3934596">
  <ele>-24.39</ele>
  <time>2026-09-01T01:14:34Z</time>
  <course>53.5</course>
  <speed>1.0</speed>
  <fix>3d</fix>
</trkpt>
<trkpt lat="33.810948" lon="-118.3934576">
  <ele>-24.992</ele>
  <time>2026-09-01T01:14:34Z</time>
  <course>54.89</course>
  <speed>0.9765244492586962</speed>
  <fix>3d</fix>
</trkpt>
<trkpt lat="33.810947" lon="-118.3934596">
  <ele>-24.39</ele>
  <time>2026-09-01T01:14:34Z</time>
  <course>53.5</course>
  <speed>1.0</speed>
  <fix>3d</fix>
</trkpt>
<trkpt lat="33.8109485" lon="-118.3934568">
  <ele>-24.992</ele>
  <time>2026-09-01T01:14:34Z</time>
  <course>54.87</course>
  <speed>0.9765244492586962</speed>
  <fix>3d</fix>
</trkpt>
<trkpt lat="33.8109481" lon="-118.3934579">
  <ele>-24.39</ele>
  <time>2026-09-01T01:14:34Z</time>
  <course>53.47</course>
  <speed>1.0</speed>
  <fix>3d</fix>
</trkpt>
<trkpt lat="33.810949" lon="-118.3934559">
  <ele>-24.991</ele>
  <time>2026-09-01T01:14:34Z</time>
  <course>54.86</course>
  <speed>0.9765244492586962</speed>
  <fix>3d</fix>
</trkpt>
<trkpt lat="33.8109481" lon="-118.3934579">
  <ele>-24.39</ele>
  <time>2026-09-01T01:14:34Z</time>
  <course>53.47</course>
  <speed>1.0</speed>
  <fix>3d</fix>
</trkpt>
<trkpt lat="33.8109496" lon="-118.393455">
  <ele>-24.99</ele>
  <time>2026-09-01T01:14:34Z</time>
  <course>54.86</course>
  <speed>0.9765244492586962</speed>
  <fix>3d</fix>
</trkpt>
<trkpt lat="33.8109491" lon="-118.3934562">
  <ele>-24.39</ele>
  <time>2026-09-01T01:14:34Z</time>
  <course>53.48</course>
  <speed>1.0</speed>
  <fix>3d</fix>
</trkpt>
<trkpt lat="33.8109501" lon="-118.3934542">
  <ele>-24.99</ele>
  <time>2026-09-01T01:14:34Z</time>
  <course>54.86</course>
  <speed>0.9765244492586962</speed>
  <fix>3d</fix>
</trkpt>
<trkpt lat="33.8109491" lon="-118.3934562">
  <ele>-24.39</ele>
  <time>2026-09-01T01:14:34Z</time>
  <course>53.48</course>
  <speed>1.0</speed>
  <fix>3d</fix>
</trkpt>
<trkpt lat="33.8109506" lon="-118.3934533">
  <ele>-24.99</ele>
  <time>2026-09-01T01:14:34Z</time>
  <course>54.88</course>
  <speed>0.9765244492586962</speed>
  <fix>3d</fix>
</trkpt>
<trkpt lat="33.8109502" lon="-118.3934544">
  <ele>-24.39</ele>
  <time>2026-09-01T01:14:34Z</time>
  <course>53.51</course>
  <speed>1.0</speed>
  <fix>3d</fix>
</trkpt>
<trkpt lat="33.8109512" lon="-118.3934524">
  <ele>-24.989</ele>
  <time>2026-09-01T01:14:34Z</time>
  <course>54.87</course>
  <speed>0.9765244492586962</speed>
  <fix>3d</fix>
</trkpt>
<trkpt lat="33.8109502" lon="-118.3934544">
  <ele>-24.39</ele>
  <time>2026-09-01T01:14:34Z</time>
  <course>53.51</course>
  <speed>1.0</speed>
  <fix>3d</fix>
</trkpt>
<trkpt lat="33.8109517" lon="-118.3934515">
  <ele>-24.989</ele>
  <time>2026-09-01T01:14:34Z</time>
  <course>54.87</course>
  <speed>0.9765244492586962</speed>
  <fix>3d</fix>
</trkpt>
<trkpt lat="33.8109513" lon="-118.3934527">
  <ele>-24.39</ele>
  <time>2026-09-01T01:14:34Z</time>
  <course>53.51</course>
  <speed>1.0</speed>
  <fix>3d</fix>
</trkpt>
<trkpt lat="33.8109522" lon="-118.3934507">
  <ele>-24.989</ele>
  <time>2026-09-01T01:14:34Z</time>
  <course>54.86</course>
  <speed>0.9765244492586962</speed>
  <fix>3d</fix>
</trkpt>
<trkpt lat="33.8109513" lon="-118.3934527">
  <ele>-24.39</ele>
  <time>2026-09-01T01:14:34Z</time>
  <course>53.51</course>
  <speed>1.0</speed>
  <fix>3d</fix>
</trkpt>
<trkpt lat="33.8109528" lon="-118.3934498">
  <ele>-24.99</ele>
  <time>2026-09-01T01:14:34Z</time>
  <course>54.87</course>
  <speed>0.9765244492586962</speed>
  <fix>3d</fix>
</trkpt>
<trkpt lat="33.8109523" lon="-118.393451">
  <ele>-24.39</ele>
  <time>2026-09-01T01:14:34Z</time>
  <course>53.53</course>
  <speed>1.0</speed>
  <fix>3d</fix>
</trkpt>
<trkpt lat="33.8109533" lon="-118.3934489">
  <ele>-24.992</ele>
  <time>2026-09-01T01:14:34Z</time>
  <course>54.88</course>
  <speed>0.9765244492586962</speed>
  <fix>3d</fix>
</trkpt>
<trkpt lat="33.8109523" lon="-118.393451">
  <ele>-24.39</ele>
  <time>2026-09-01T01:14:34Z</time>
  <course>53.53</course>
  <speed>1.0</speed>
  <fix>3d</fix>
</trkpt>
<trkpt lat="33.8109538" lon="-118.3934481">
  <ele>-24.992</ele>
  <time>2026-09-01T01:14:34Z</time>
  <course>54.89</course>
  <speed>0.9765244492586962</speed>
  <fix>3d</fix>
</trkpt>
<trkpt lat="33.8109534" lon="-118.3934492">
  <ele>-24.4</ele>
  <time>2026-09-01T01:14:34Z</time>
  <course>53.55</course>
  <speed>1.0</speed>
  <fix>3d</fix>
</trkpt>
<trkpt lat="33.8109544" lon="-118.3934472">
  <ele>-24.993</ele>
  <time>2026-09-01T01:14:34Z</time>
  <course>54.89</course>
  <speed>0.9765244492586962</speed>
  <fix>3d</fix>
</trkpt>
<trkpt lat="33.8109534" lon="-118.3934492">
  <ele>-24.4</ele>
  <time>2026-09-01T01:14:34Z</time>
  <course>53.55</course>
  <speed>1.0</speed>
  <fix>3d</fix>
</trkpt>
<trkpt lat="33.8109549" lon="-118.3934463">
  <ele>-24.994</ele>
  <time>2026-09-01T01:14:34Z</time>
  <course>54.88</course>
  <speed>0.9765244492586962</speed>
  <fix>3d</fix>
</trkpt>
<trkpt lat="33.8109545" lon="-118.3934475">
  <ele>-24.4</ele>
  <time>2026-09-01T01:14:34Z</time>
  <course>53.54</course>
  <speed>1.0</speed>
  <fix>3d</fix>
</trkpt>
<trkpt lat="33.8109554" lon="-118.3934455">
  <ele>-24.995</ele>
  <time>2026-09-01T01:14:34Z</time>
  <course>54.88</course>
  <speed>0.9765244492586962</speed>
  <fix>3d</fix>
</trkpt>
<trkpt lat="33.8109545" lon="-118.3934475">
  <ele>-24.4</ele>
  <time>2026-09-01T01:14:34Z</time>
  <course>53.54</course>
  <speed>1.0</speed>
  <fix>3d</fix>
</trkpt>
<trkpt lat="33.810956" lon="-118.3934446">
  <ele>-24.997</ele>
  <time>2026-09-01T01:14:34Z</time>
  <course>54.89</course>
  <speed>0.9765244492586962</speed>
  <fix>3d</fix>
</trkpt>
<trkpt lat="33.8109556" lon="-118.3934457">
  <ele>-24.39</ele>
  <time>2026-09-01T01:14:34Z</time>
  <course>53.55</course>
  <speed>1.0</speed>
  <fix>3d</fix>
</trkpt>
<trkpt lat="33.8109565" lon="-118.3934437">
  <ele>-24.997</ele>
  <time>2026-09-01T01:14:34Z</time>
  <course>54.89</course>
  <speed>0.9765244492586962</speed>
  <fix>3d</fix>
</trkpt>
<trkpt lat="33.8109556" lon="-118.3934457">
  <ele>-24.39</ele>
  <time>2026-09-01T01:14:34Z</time>
  <course>53.55</course>
  <speed>1.0</speed>
  <fix>3d</fix>
</trkpt>
<trkpt lat="33.8109571" lon="-118.3934428">
  <ele>-24.996</ele>
  <time>2026-09-01T01:14:34Z</time>
  <course>54.91</course>
  <speed>0.9765244492586962</speed>
  <fix>3d</fix>
</trkpt>
<trkpt lat="33.8109566" lon="-118.393444">
  <ele>-24.39</ele>
  <time>2026-09-01T01:14:34Z</time>
  <course>53.58</course>
  <speed>1.0</speed>
  <fix>3d</fix>
</trkpt>
<trkpt lat="33.8109576" lon="-118.393442">
  <ele>-24.994</ele>
  <time>2026-09-01T01:14:34Z</time>
  <course>54.92</course>
  <speed>0.9765244492586962</speed>
  <fix>3d</fix>
</trkpt>
<trkpt lat="33.8109566" lon="-118.393444">
  <ele>-24.39</ele>
  <time>2026-09-01T01:14:34Z</time>
  <course>53.58</course>
  <speed>1.0</speed>
  <fix>3d</fix>
</trkpt>
<trkpt lat="33.8109581" lon="-118.3934411">
  <ele>-24.993</ele>
  <time>2026-09-01T01:14:34Z</time>
  <course>54.93</course>
  <speed>0.9765244492586962</speed>
  <fix>3d</fix>
</trkpt>
<trkpt lat="33.8109577" lon="-118.3934422">
  <ele>-24.39</ele>
  <time>2026-09-01T01:14:34Z</time>
  <course>53.59</course>
  <speed>1.0</speed>
  <fix>3d</fix>
</trkpt>
<trkpt lat="33.8109587" lon="-118.3934402">
  <ele>-24.991</ele>
  <time>2026-09-01T01:14:34Z</time>
  <course>54.92</course>
  <speed>0.9765244492586962</speed>
  <fix>3d</fix>
</trkpt>
<trkpt lat="33.8109577" lon="-118.3934422">
  <ele>-24.39</ele>
  <time>2026-09-01T01:14:34Z</time>
  <course>53.59</course>
  <speed>1.0</speed>
  <fix>3d</fix>
</trkpt>
<trkpt lat="33.8109592" lon="-118.3934394">
  <ele>-24.99</ele>
  <time>2026-09-01T01:14:34Z</time>
  <course>54.91</course>
  <speed>0.9765244492586962</speed>
  <fix>3d</fix>
</trkpt>
<trkpt lat="33.8109587" lon="-118.3934405">
  <ele>-24.38</ele>
  <time>2026-09-01T01:14:34Z</time>
  <course>53.57</course>
  <speed>0.99</speed>
  <fix>3d</fix>
</trkpt>
<trkpt lat="33.8109597" lon="-118.3934385">
  <ele>-24.989</ele>
  <time>2026-09-01T01:14:34Z</time>
  <course>54.89</course>
  <speed>0.9765244492586962</speed>
  <fix>3d</fix>
</trkpt>
<trkpt lat="33.8109587" lon="-118.3934405">
  <ele>-24.38</ele>
  <time>2026-09-01T01:14:34Z</time>
  <course>53.57</course>
  <speed>0.99</speed>
  <fix>3d</fix>
</trkpt>
<trkpt lat="33.8109603" lon="-118.3934376">
  <ele>-24.989</ele>
  <time>2026-09-01T01:14:34Z</time>
  <course>54.86</course>
  <speed>0.9765244492586962</speed>
  <fix>3d</fix>
</trkpt>
<trkpt lat="33.8109598" lon="-118.3934387">
  <ele>-24.38</ele>
  <time>2026-09-01T01:14:34Z</time>
  <course>53.54</course>
  <speed>0.99</speed>
  <fix>3d</fix>
</trkpt>
<trkpt lat="33.8109608" lon="-118.3934367">
  <ele>-24.989</ele>
  <time>2026-09-01T01:14:34Z</time>
  <course>54.82</course>
  <speed>0.9765244492586962</speed>
  <fix>3d</fix>
</trkpt>
<trkpt lat="33.8109598" lon="-118.3934387">
  <ele>-24.38</ele>
  <time>2026-09-01T01:14:34Z</time>
  <course>53.54</course>
  <speed>0.99</speed>
  <fix>3d</fix>
</trkpt>
<trkpt lat="33.8109613" lon="-118.3934359">
  <ele>-24.989</ele>
  <time>2026-09-01T01:14:34Z</time>
  <course>54.78</course>
  <speed>0.9765244492586962</speed>
  <fix>3d</fix>
</trkpt>
<trkpt lat="33.8109609" lon="-118.393437">
  <ele>-24.38</ele>
  <time>2026-09-01T01:14:34Z</time>
  <course>53.48</course>
  <speed>0.99</speed>
  <fix>3d</fix>
</trkpt>
<trkpt lat="33.8109619" lon="-118.393435">
  <ele>-24.989</ele>
  <time>2026-09-01T01:14:34Z</time>
  <course>54.75</course>
  <speed>0.9765244492586962</speed>
  <fix>3d</fix>
</trkpt>
<trkpt lat="33.8109609" lon="-118.393437">
  <ele>-24.38</ele>
  <time>2026-09-01T01:14:34Z</time>
  <course>53.48</course>
  <speed>0.99</speed>
  <fix>3d</fix>
</trkpt>
<trkpt lat="33.8109624" lon="-118.3934341">
  <ele>-24.988</ele>
  <time>2026-09-01T01:14:34Z</time>
  <course>54.74</course>
  <speed>0.9765244492586962</speed>
  <fix>3d</fix>
</trkpt>
<trkpt lat="33.8109619" lon="-118.3934353">
  <ele>-24.38</ele>
  <time>2026-09-01T01:14:34Z</time>
  <course>53.45</course>
  <speed>0.99</speed>
  <fix>3d</fix>
</trkpt>
<trkpt lat="33.8109629" lon="-118.3934333">
  <ele>-24.989</ele>
  <time>2026-09-01T01:14:34Z</time>
  <course>54.72</course>
  <speed>0.9765244492586962</speed>
  <fix>3d</fix>
</trkpt>
<trkpt lat="33.8109619" lon="-118.3934353">
  <ele>-24.38</ele>
  <time>2026-09-01T01:14:34Z</time>
  <course>53.45</course>
  <speed>0.99</speed>
  <fix>3d</fix>
</trkpt>
<trkpt lat="33.8109635" lon="-118.3934324">
  <ele>-24.99</ele>
  <time>2026-09-01T01:14:34Z</time>
  <course>54.71</course>
  <speed>0.9765244492586962</speed>
  <fix>3d</fix>
</trkpt>
<trkpt lat="33.810963" lon="-118.3934336">
  <ele>-24.38</ele>
  <time>2026-09-01T01:14:34Z</time>
  <course>53.44</course>
  <speed>0.99</speed>
  <fix>3d</fix>
</trkpt>
<trkpt lat="33.810964" lon="-118.3934315">
  <ele>-24.991</ele>
  <time>2026-09-01T01:14:34Z</time>
  <course>54.69</course>
  <speed>0.9765244492586962</speed>
  <fix>3d</fix>
</trkpt>
<trkpt lat="33.810963" lon="-118.3934336">
  <ele>-24.38</ele>
  <time>2026-09-01T01:14:34Z</time>
  <course>53.44</course>
  <speed>0.99</speed>
  <fix>3d</fix>
</trkpt>
<trkpt lat="33.8109645" lon="-118.3934306">
  <ele>-24.992</ele>
  <time>2026-09-01T01:14:34Z</time>
  <course>54.69</course>
  <speed>0.9765244492586962</speed>
  <fix>3d</fix>
</trkpt>
<trkpt lat="33.8109641" lon="-118.3934318">
  <ele>-24.38</ele>
  <time>2026-09-01T01:14:34Z</time>
  <course>53.43</course>
  <speed>0.99</speed>
  <fix>3d</fix>
</trkpt>
<trkpt lat="33.8109651" lon="-118.3934298">
  <ele>-24.992</ele>
  <time>2026-09-01T01:14:34Z</time>
  <course>54.69</course>
  <speed>0.9765244492586962</speed>
  <fix>3d</fix>
</trkpt>
<trkpt lat="33.8109641" lon="-118.3934318">
  <ele>-24.38</ele>
  <time>2026-09-01T01:14:34Z</time>
  <course>53.43</course>
  <speed>0.99</speed>
  <fix>3d</fix>
</trkpt>
<trkpt lat="33.8109656" lon="-118.3934289">
  <ele>-24.991</ele>
  <time>2026-09-01T01:14:34Z</time>
  <course>54.71</course>
  <speed>0.9765244492586962</speed>
  <fix>3d</fix>
</trkpt>
<trkpt lat="33.8109652" lon="-118.3934301">
  <ele>-24.37</ele>
  <time>2026-09-01T01:14:34Z</time>
  <course>53.44</course>
  <speed>0.99</speed>
  <fix>3d</fix>
</trkpt>
<trkpt lat="33.8109661" lon="-118.393428">
  <ele>-24.99</ele>
  <time>2026-09-01T01:14:34Z</time>
  <course>54.73</course>
  <speed>0.9765244492586962</speed>
  <fix>3d</fix>
</trkpt>
<trkpt lat="33.8109652" lon="-118.3934301">
  <ele>-24.37</ele>
  <time>2026-09-01T01:14:34Z</time>
  <course>53.44</course>
  <speed>0.99</speed>
  <fix>3d</fix>
</trkpt>
<trkpt lat="33.8109667" lon="-118.3934272">
  <ele>-24.989</ele>
  <time>2026-09-01T01:14:34Z</time>
  <course>54.76</course>
  <speed>0.9765244492586962</speed>
  <fix>3d</fix>
</trkpt>
<trkpt lat="33.8109662" lon="-118.3934284">
  <ele>-24.37</ele>
  <time>2026-09-01T01:14:34Z</time>
  <course>53.48</course>
  <speed>0.99</speed>
  <fix>3d</fix>
</trkpt>
<trkpt lat="33.8109672" lon="-118.3934263">
  <ele>-24.987</ele>
  <time>2026-09-01T01:14:34Z</time>
  <course>54.79</course>
  <speed>0.9765244492586962</speed>
  <fix>3d</fix>
</trkpt>
<trkpt lat="33.8109662" lon="-118.3934284">
  <ele>-24.37</ele>
  <time>2026-09-01T01:14:34Z</time>
  <course>53.48</course>
  <speed>0.99</speed>
  <fix>3d</fix>
</trkpt>
<trkpt lat="33.8109677" lon="-118.3934254">
  <ele>-24.984</ele>
  <time>2026-09-01T01:14:34Z</time>
  <course>54.82</course>
  <speed>0.9765244492586962</speed>
  <fix>3d</fix>
</trkpt>
<trkpt lat="33.8109673" lon="-118.3934266">
  <ele>-24.37</ele>
  <time>2026-09-01T01:14:34Z</time>
  <course>53.51</course>
  <speed>0.99</speed>
  <fix>3d</fix>
</trkpt>
<trkpt lat="33.8109683" lon="-118.3934246">
  <ele>-24.982</ele>
  <time>2026-09-01T01:14:34Z</time>
  <course>54.83</course>
  <speed>0.9765244492586962</speed>
  <fix>3d</fix>
</trkpt>
<trkpt lat="33.8109673" lon="-118.3934266">
  <ele>-24.37</ele>
  <time>2026-09-01T01:14:34Z</time>
  <course>53.51</course>
  <speed>0.99</speed>
  <fix>3d</fix>
</trkpt>
<trkpt lat="33.8109688" lon="-118.3934237">
  <ele>-24.981</ele>
  <time>2026-09-01T01:14:34Z</time>
  <course>54.85</course>
  <speed>0.9765244492586962</speed>
  <fix>3d</fix>
</trkpt>
<trkpt lat="33.8109684" lon="-118.3934248">
  <ele>-24.37</ele>
  <time>2026-09-01T01:14:34Z</time>
  <course>53.51</course>
  <speed>0.99</speed>
  <fix>3d</fix>
</trkpt>
<trkpt lat="33.8109694" lon="-118.3934228">
  <ele>-24.98</ele>
  <time>2026-09-01T01:14:34Z</time>
  <course>54.86</course>
  <speed>0.9765244492586962</speed>
  <fix>3d</fix>
</trkpt>
<trkpt lat="33.8109684" lon="-118.3934248">
  <ele>-24.37</ele>
  <time>2026-09-01T01:14:34Z</time>
  <course>53.51</course>
  <speed>0.99</speed>
  <fix>3d</fix>
</trkpt>
<trkpt lat="33.8109699" lon="-118.3934219">
  <ele>-24.982</ele>
  <time>2026-09-01T01:14:34Z</time>
  <course>54.86</course>
  <speed>0.9765244492586962</speed>
  <fix>3d</fix>
</trkpt>
<trkpt lat="33.8109694" lon="-118.3934231">
  <ele>-24.37</ele>
  <time>2026-09-01T01:14:34Z</time>
  <course>53.51</course>
  <speed>0.99</speed>
  <fix>3d</fix>
</trkpt>
<trkpt lat="33.8109704" lon="-118.3934211">
  <ele>-24.984</ele>
  <time>2026-09-01T01:14:34Z</time>
  <course>54.85</course>
  <speed>0.9765244492586962</speed>
  <fix>3d</fix>
</trkpt>
<trkpt lat="33.8109694" lon="-118.3934231">
  <ele>-24.37</ele>
  <time>2026-09-01T01:14:34Z</time>
  <course>53.51</course>
  <speed>0.99</speed>
  <fix>3d</fix>
</trkpt>
<trkpt lat="33.810971" lon="-118.3934202">
  <ele>-24.987</ele>
  <time>2026-09-01T01:14:34Z</time>
  <course>54.84</course>
  <speed>0.9765244492586962</speed>
  <fix>3d</fix>
</trkpt>
<trkpt lat="33.8109705" lon="-118.3934214">
  <ele>-24.37</ele>
  <time>2026-09-01T01:14:34Z</time>
  <course>53.49</course>
  <speed>0.99</speed>
  <fix>3d</fix>
</trkpt>
<trkpt lat="33.8109715" lon="-118.3934193">
  <ele>-24.99</ele>
  <time>2026-09-01T01:14:34Z</time>
  <course>54.82</course>
  <speed>0.9765244492586962</speed>
  <fix>3d</fix>
</trkpt>
<trkpt lat="33.8109705" lon="-118.3934214">
  <ele>-24.37</ele>
  <time>2026-09-01T01:14:34Z</time>
  <course>53.49</course>
  <speed>0.99</speed>
  <fix>3d</fix>
</trkpt>
<trkpt lat="33.810972" lon="-118.3934185">
  <ele>-24.991</ele>
  <time>2026-09-01T01:14:34Z</time>
  <course>54.81</course>
  <speed>0.9765244492586962</speed>
  <fix>3d</fix>
</trkpt>
<trkpt lat="33.8109716" lon="-118.3934197">
  <ele>-24.38</ele>
  <time>2026-09-01T01:14:34Z</time>
  <course>53.46</course>
  <speed>0.99</speed>
  <fix>3d</fix>
</trkpt>
<trkpt lat="33.8109726" lon="-118.3934176">
  <ele>-24.992</ele>
  <time>2026-09-01T01:14:34Z</time>
  <course>54.8</course>
  <speed>0.9765244492586962</speed>
  <fix>3d</fix>
</trkpt>
<trkpt lat="33.8109716" lon="-118.3934197">
  <ele>-24.38</ele>
  <time>2026-09-01T01:14:34Z</time>
  <course>53.46</course>
  <speed>0.99</speed>
  <fix>3d</fix>
</trkpt>
<trkpt lat="33.8109731" lon="-118.3934167">
  <ele>-24.991</ele>
  <time>2026-09-01T01:14:34Z</time>
  <course>54.82</course>
  <speed>0.9765244492586962</speed>
  <fix>3d</fix>
</trkpt>
<trkpt lat="33.8109726" lon="-118.3934179">
  <ele>-24.38</ele>
  <time>2026-09-01T01:14:34Z</time>
  <course>53.48</course>
  <speed>0.99</speed>
  <fix>3d</fix>
</trkpt>
<trkpt lat="33.8109736" lon="-118.3934159">
  <ele>-24.989</ele>
  <time>2026-09-01T01:14:34Z</time>
  <course>54.84</course>
  <speed>0.9765244492586962</speed>
  <fix>3d</fix>
</trkpt>
<trkpt lat="33.8109726" lon="-118.3934179">
  <ele>-24.38</ele>
  <time>2026-09-01T01:14:34Z</time>
  <course>53.48</course>
  <speed>0.99</speed>
  <fix>3d</fix>
</trkpt>
<trkpt lat="33.8109742" lon="-118.393415">
  <ele>-24.987</ele>
  <time>2026-09-01T01:14:34Z</time>
  <course>54.85</course>
  <speed>0.9765244492586962</speed>
  <fix>3d</fix>
</trkpt>
<trkpt lat="33.8109737" lon="-118.3934162">
  <ele>-24.38</ele>
  <time>2026-09-01T01:14:34Z</time>
  <course>53.5</course>
  <speed>0.99</speed>
  <fix>3d</fix>
</trkpt>
<trkpt lat="33.8109747" lon="-118.3934141">
  <ele>-24.986</ele>
  <time>2026-09-01T01:14:34Z</time>
  <course>54.84</course>
  <speed>0.9765244492586962</speed>
  <fix>3d</fix>
</trkpt>
<trkpt lat="33.8109737" lon="-118.3934162">
  <ele>-24.38</ele>
  <time>2026-09-01T01:14:34Z</time>
  <course>53.5</course>
  <speed>0.99</speed>
  <fix>3d</fix>
</trkpt>
<trkpt lat="33.8109752" lon="-118.3934132">
  <ele>-24.987</ele>
  <time>2026-09-01T01:14:34Z</time>
  <course>54.84</course>
  <speed>0.9765244492586962</speed>
  <fix>3d</fix>
</trkpt>
<trkpt lat="33.8109747" lon="-118.3934145">
  <ele>-24.38</ele>
  <time>2026-09-01T01:14:34Z</time>
  <course>53.47</course>
  <speed>0.99</speed>
  <fix>3d</fix>
</trkpt>
<trkpt lat="33.8109758" lon="-118.3934124">
  <ele>-24.988</ele>
  <time>2026-09-01T01:14:34Z</time>
  <course>54.83</course>
  <speed>0.9765244492586962</speed>
  <fix>3d</fix>
</trkpt>
<trkpt lat="33.8109747" lon="-118.3934145">
  <ele>-24.38</ele>
  <time>2026-09-01T01:14:34Z</time>
  <course>53.47</course>
  <speed>0.99</speed>
  <fix>3d</fix>
</trkpt>
<trkpt lat="33.8109763" lon="-118.3934115">
  <ele>-24.989</ele>
  <time>2026-09-01T01:14:34Z</time>
  <course>54.82</course>
  <speed>0.9765244492586962</speed>
  <fix>3d</fix>
</trkpt>
<trkpt lat="33.8109758" lon="-118.3934127">
  <ele>-24.38</ele>
  <time>2026-09-01T01:14:34Z</time>
  <course>53.44</course>
  <speed>0.99</speed>
  <fix>3d</fix>
</trkpt>
<trkpt lat="33.8109768" lon="-118.3934106">
  <ele>-24.99</ele>
  <time>2026-09-01T01:14:34Z</time>
  <course>54.81</course>
  <speed>0.9765244492586962</speed>
  <fix>3d</fix>
</trkpt>
<trkpt lat="33.8109758" lon="-118.3934127">
  <ele>-24.38</ele>
  <time>2026-09-01T01:14:34Z</time>
  <course>53.44</course>
  <speed>0.99</speed>
  <fix>3d</fix>
</trkpt>
<trkpt lat="33.8109774" lon="-118.3934098">
  <ele>-24.99</ele>
  <time>2026-09-01T01:14:34Z</time>
  <course>54.79</course>
  <speed>0.9765244492586962</speed>
  <fix>3d</fix>
</trkpt>
<trkpt lat="33.8109769" lon="-118.3934109">
  <ele>-24.38</ele>
  <time>2026-09-01T01:14:34Z</time>
  <course>53.4</course>
  <speed>1.0</speed>
  <fix>3d</fix>
</trkpt>
<trkpt lat="33.8109779" lon="-118.3934089">
  <ele>-24.99</ele>
  <time>2026-09-01T01:14:34Z</time>
  <course>54.78</course>
  <speed>0.9765244492586962</speed>
  <fix>3d</fix>
</trkpt>
<trkpt lat="33.8109769" lon="-118.3934109">
  <ele>-24.38</ele>
  <time>2026-09-01T01:14:34Z</time>
  <course>53.4</course>
  <speed>1.0</speed>
  <fix>3d</fix>
</trkpt>
<trkpt lat="33.8109784" lon="-118.393408">
  <ele>-24.989</ele>
  <time>2026-09-01T01:14:34Z</time>
  <course>54.77</course>
  <speed>0.9765244492586962</speed>
  <fix>3d</fix>
</trkpt>
<trkpt lat="33.810978" lon="-118.3934092">
  <ele>-24.38</ele>
  <time>2026-09-01T01:14:34Z</time>
  <course>53.37</course>
  <speed>1.0</speed>
  <fix>3d</fix>
</trkpt>
<trkpt lat="33.810979" lon="-118.3934071">
  <ele>-24.988</ele>
  <time>2026-09-01T01:14:34Z</time>
  <course>54.75</course>
  <speed>0.9765244492586962</speed>
  <fix>3d</fix>
</trkpt>
<trkpt lat="33.810978" lon="-118.3934092">
  <ele>-24.38</ele>
  <time>2026-09-01T01:14:34Z</time>
  <course>53.37</course>
  <speed>1.0</speed>
  <fix>3d</fix>
</trkpt>
<trkpt lat="33.8109795" lon="-118.3934063">
  <ele>-24.988</ele>
  <time>2026-09-01T01:14:34Z</time>
  <course>54.76</course>
  <speed>0.9765244492586962</speed>
  <fix>3d</fix>
</trkpt>
<trkpt lat="33.8109791" lon="-118.3934075">
  <ele>-24.38</ele>
  <time>2026-09-01T01:14:34Z</time>
  <course>53.37</course>
  <speed>1.0</speed>
  <fix>3d</fix>
</trkpt>
<trkpt lat="33.81098" lon="-118.3934054">
  <ele>-24.989</ele>
  <time>2026-09-01T01:14:34Z</time>
  <course>54.77</course>
  <speed>0.9765244492586962</speed>
  <fix>3d</fix>
</trkpt>
<trkpt lat="33.8109791" lon="-118.3934075">
  <ele>-24.38</ele>
  <time>2026-09-01T01:14:34Z</time>
  <course>53.37</course>
  <speed>1.0</speed>
  <fix>3d</fix>
</trkpt>
<trkpt lat="33.8109806" lon="-118.3934045">
  <ele>-24.991</ele>
  <time>2026-09-01T01:14:34Z</time>
  <course>54.8</course>
  <speed>0.9765244492586962</speed>
  <fix>3d</fix>
</trkpt>
<trkpt lat="33.8109801" lon="-118.3934058">
  <ele>-24.38</ele>
  <time>2026-09-01T01:14:34Z</time>
  <course>53.42</course>
  <speed>0.99</speed>
  <fix>3d</fix>
</trkpt>
<trkpt lat="33.8109811" lon="-118.3934037">
  <ele>-24.992</ele>
  <time>2026-09-01T01:14:34Z</time>
  <course>54.83</course>
  <speed>0.9765244492586962</speed>
  <fix>3d</fix>
</trkpt>
<trkpt lat="33.8109801" lon="-118.3934058">
  <ele>-24.38</ele>
  <time>2026-09-01T01:14:34Z</time>
  <course>53.42</course>
  <speed>0.99</speed>
  <fix>3d</fix>
</trkpt>
<trkpt lat="33.8109817" lon="-118.3934028">
  <ele>-24.992</ele>
  <time>2026-09-01T01:14:34Z</time>
  <course>54.87</course>
  <speed>0.9765244492586962</speed>
  <fix>3d</fix>
</trkpt>
<trkpt lat="33.8109812" lon="-118.393404">
  <ele>-24.38</ele>
  <time>2026-09-01T01:14:34Z</time>
  <course>53.47</course>
  <speed>0.99</speed>
  <fix>3d</fix>
</trkpt>
<trkpt lat="33.8109822" lon="-118.3934019">
  <ele>-24.991</ele>
  <time>2026-09-01T01:14:34Z</time>
  <course>54.88</course>
  <speed>0.9765244492586962</speed>
  <fix>3d</fix>
</trkpt>
<trkpt lat="33.8109812" lon="-118.393404">
  <ele>-24.38</ele>
  <time>2026-09-01T01:14:34Z</time>
  <course>53.47</course>
  <speed>0.99</speed>
  <fix>3d</fix>
</trkpt>
<trkpt lat="33.8109827" lon="-118.3934011">
  <ele>-24.989</ele>
  <time>2026-09-01T01:14:34Z</time>
  <course>54.9</course>
  <speed>0.9765244492586962</speed>
  <fix>3d</fix>
</trkpt>
<trkpt lat="33.8109823" lon="-118.3934023">
  <ele>-24.38</ele>
  <time>2026-09-01T01:14:34Z</time>
  <course>53.48</course>
  <speed>0.99</speed>
  <fix>3d</fix>
</trkpt>
<trkpt lat="33.8109833" lon="-118.3934002">
  <ele>-24.986</ele>
  <time>2026-09-01T01:14:34Z</time>
  <course>54.91</course>
  <speed>0.9765244492586962</speed>
  <fix>3d</fix>
</trkpt>
<trkpt lat="33.8109823" lon="-118.3934023">
  <ele>-24.38</ele>
  <time>2026-09-01T01:14:34Z</time>
  <course>53.48</course>
  <speed>0.99</speed>
  <fix>3d</fix>
</trkpt>
<trkpt lat="33.8109838" lon="-118.3933993">
  <ele>-24.985</ele>
  <time>2026-09-01T01:14:34Z</time>
  <course>54.93</course>
  <speed>0.9765244492586962</speed>
  <fix>3d</fix>
</trkpt>
<trkpt lat="33.8109833" lon="-118.3934006">
  <ele>-24.38</ele>
  <time>2026-09-01T01:14:34Z</time>
  <course>53.51</course>
  <speed>1.0</speed>
  <fix>3d</fix>
</trkpt>
<trkpt lat="33.8109843" lon="-118.3933985">
  <ele>-24.985</ele>
  <time>2026-09-01T01:14:34Z</time>
  <course>54.96</course>
  <speed>0.9765244492586962</speed>
  <fix>3d</fix>
</trkpt>
<trkpt lat="33.8109833" lon="-118.3934006">
  <ele>-24.38</ele>
  <time>2026-09-01T01:14:34Z</time>
  <course>53.51</course>
  <speed>1.0</speed>
  <fix>3d</fix>
</trkpt>
<trkpt lat="33.8109849" lon="-118.3933976">
  <ele>-24.985</ele>
  <time>2026-09-01T01:14:34Z</time>
  <course>54.97</course>
  <speed>0.9765244492586962</speed>
  <fix>3d</fix>
</trkpt>
<trkpt lat="33.8109844" lon="-118.3933988">
  <ele>-24.38</ele>
  <time>2026-09-01T01:14:34Z</time>
  <course>53.54</course>
  <speed>1.0</speed>
  <fix>3d</fix>
</trkpt>
<trkpt lat="33.8109854" lon="-118.3933967">
  <ele>-24.985</ele>
  <time>2026-09-01T01:14:34Z</time>
  <course>54.97</course>
  <speed>0.9765244492586962</speed>
  <fix>3d</fix>
</trkpt>
<trkpt lat="33.8109844" lon="-118.3933988">
  <ele>-24.38</ele>
  <time>2026-09-01T01:14:34Z</time>
  <course>53.54</course>
  <speed>1.0</speed>
  <fix>3d</fix>
</trkpt>
<trkpt lat="33.8109859" lon="-118.3933959">
  <ele>-24.986</ele>
  <time>2026-09-01T01:14:34Z</time>
  <course>54.98</course>
  <speed>0.9765244492586962</speed>
  <fix>3d</fix>
</trkpt>
<trkpt lat="33.8109855" lon="-118.3933971">
  <ele>-24.38</ele>
  <time>2026-09-01T01:14:34Z</time>
  <course>53.54</course>
  <speed>1.0</speed>
  <fix>3d</fix>
</trkpt>
<trkpt lat="33.8109865" lon="-118.393395">
  <ele>-24.986</ele>
  <time>2026-09-01T01:14:34Z</time>
  <course>54.98</course>
  <speed>0.9765244492586962</speed>
  <fix>3d</fix>
</trkpt>
<trkpt lat="33.8109855" lon="-118.3933971">
  <ele>-24.38</ele>
  <time>2026-09-01T01:14:34Z</time>
  <course>53.54</course>
  <speed>1.0</speed>
  <fix>3d</fix>
</trkpt>
<trkpt lat="33.810987" lon="-118.3933941">
  <ele>-24.987</ele>
  <time>2026-09-01T01:14:34Z</time>
  <course>54.99</course>
  <speed>0.9765244492586962</speed>
  <fix>3d</fix>
</trkpt>
<trkpt lat="33.8109865" lon="-118.3933954">
  <ele>-24.38</ele>
  <time>2026-09-01T01:14:34Z</time>
  <course>53.56</course>
  <speed>1.0</speed>
  <fix>3d</fix>
</trkpt>
<trkpt lat="33.8109875" lon="-118.3933932">
  <ele>-24.988</ele>
  <time>2026-09-01T01:14:34Z</time>
  <course>55.0</course>
  <speed>0.9765244492586962</speed>
  <fix>3d</fix>
</trkpt>
<trkpt lat="33.8109865" lon="-118.3933954">
  <ele>-24.38</ele>
  <time>2026-09-01T01:14:34Z</time>
  <course>53.56</course>
  <speed>1.0</speed>
  <fix>3d</fix>
</trkpt>
<trkpt lat="33.8109881" lon="-118.3933924">
  <ele>-24.989</ele>
  <time>2026-09-01T01:14:34Z</time>
  <course>55.01</course>
  <speed>0.9765244492586962</speed>
  <fix>3d</fix>
</trkpt>
<trkpt lat="33.8109876" lon="-118.3933936">
  <ele>-24.38</ele>
  <time>2026-09-01T01:14:34Z</time>
  <course>53.59</course>
  <speed>1.0</speed>
  <fix>3d</fix>
</trkpt>
<trkpt lat="33.8109886" lon="-118.3933915">
  <ele>-24.989</ele>
  <time>2026-09-01T01:14:34Z</time>
  <course>55.01</course>
  <speed>0.9765244492586962</speed>
  <fix>3d</fix>
</trkpt>
<trkpt lat="33.8109876" lon="-118.3933936">
  <ele>-24.38</ele>
  <time>2026-09-01T01:14:34Z</time>
  <course>53.59</course>
  <speed>1.0</speed>
  <fix>3d</fix>
</trkpt>
<trkpt lat="33.8109891" lon="-118.3933906">
  <ele>-24.988</ele>
  <time>2026-09-01T01:14:34Z</time>
  <course>55.01</course>
  <speed>0.9765244492586962</speed>
  <fix>3d</fix>
</trkpt>
<trkpt lat="33.8109886" lon="-118.3933919">
  <ele>-24.39</ele>
  <time>2026-09-01T01:14:34Z</time>
  <course>53.6</course>
  <speed>1.0</speed>
  <fix>3d</fix>
</trkpt>
<trkpt lat="33.8109897" lon="-118.3933898">
  <ele>-24.988</ele>
  <time>2026-09-01T01:14:34Z</time>
  <course>54.99</course>
  <speed>0.9765244492586962</speed>
  <fix>3d</fix>
</trkpt>
<trkpt lat="33.8109886" lon="-118.3933919">
  <ele>-24.39</ele>
  <time>2026-09-01T01:14:34Z</time>
  <course>53.6</course>
  <speed>1.0</speed>
  <fix>3d</fix>
</trkpt>
<trkpt lat="33.8109902" lon="-118.3933889">
  <ele>-24.988</ele>
  <time>2026-09-01T01:14:34Z</time>
  <course>54.97</course>
  <speed>0.9765244492586962</speed>
  <fix>3d</fix>
</trkpt>
<trkpt lat="33.8109897" lon="-118.3933901">
  <ele>-24.39</ele>
  <time>2026-09-01T01:14:34Z</time>
  <course>53.56</course>
  <speed>1.0</speed>
  <fix>3d</fix>
</trkpt>
<trkpt lat="33.8109907" lon="-118.393388">
  <ele>-24.989</ele>
  <time>2026-09-01T01:14:34Z</time>
  <course>54.94</course>
  <speed>0.9765244492586962</speed>
  <fix>3d</fix>
</trkpt>
<trkpt lat="33.8109897" lon="-118.3933901">
  <ele>-24.39</ele>
  <time>2026-09-01T01:14:34Z</time>
  <course>53.56</course>
  <speed>1.0</speed>
  <fix>3d</fix>
</trkpt>
<trkpt lat="33.8109913" lon="-118.3933872">
  <ele>-24.991</ele>
  <time>2026-09-01T01:14:34Z</time>
  <course>54.92</course>
  <speed>0.9765244492586962</speed>
  <fix>3d</fix>
</trkpt>
<trkpt lat="33.8109908" lon="-118.3933884">
  <ele>-24.39</ele>
  <time>2026-09-01T01:14:34Z</time>
  <course>53.52</course>
  <speed>1.0</speed>
  <fix>3d</fix>
</trkpt>
<trkpt lat="33.8109918" lon="-118.3933863">
  <ele>-24.993</ele>
  <time>2026-09-01T01:14:34Z</time>
  <course>54.88</course>
  <speed>0.9765244492586962</speed>
  <fix>3d</fix>
</trkpt>
<trkpt lat="33.8109908" lon="-118.3933884">
  <ele>-24.39</ele>
  <time>2026-09-01T01:14:34Z</time>
  <course>53.52</course>
  <speed>1.0</speed>
  <fix>3d</fix>
</trkpt>
<trkpt lat="33.8109923" lon="-118.3933854">
  <ele>-24.994</ele>
  <time>2026-09-01T01:14:34Z</time>
  <course>54.86</course>
  <speed>0.9765244492586962</speed>
  <fix>3d</fix>
</trkpt>
<trkpt lat="33.8109919" lon="-118.3933866">
  <ele>-24.39</ele>
  <time>2026-09-01T01:14:34Z</time>
  <course>53.48</course>
  <speed>1.0</speed>
  <fix>3d</fix>
</trkpt>
<trkpt lat="33.8109929" lon="-118.3933846">
  <ele>-24.995</ele>
  <time>2026-09-01T01:14:34Z</time>
  <course>54.85</course>
  <speed>0.9765244492586962</speed>
  <fix>3d</fix>
</trkpt>
<trkpt lat="33.8109919" lon="-118.3933866">
  <ele>-24.39</ele>
  <time>2026-09-01T01:14:34Z</time>
  <course>53.48</course>
  <speed>1.0</speed>
  <fix>3d</fix>
</trkpt>
<trkpt lat="33.8109934" lon="-118.3933837">
  <ele>-24.994</ele>
  <time>2026-09-01T01:14:34Z</time>
  <course>54.86</course>
  <speed>0.9765244492586962</speed>
  <fix>3d</fix>
</trkpt>
<trkpt lat="33.8109929" lon="-118.3933849">
  <ele>-24.39</ele>
  <time>2026-09-01T01:14:34Z</time>
  <course>53.47</course>
  <speed>1.0</speed>
  <fix>3d</fix>
</trkpt>
<trkpt lat="33.8109939" lon="-118.3933828">
  <ele>-24.992</ele>
  <time>2026-09-01T01:14:34Z</time>
  <course>54.86</course>
  <speed>0.9765244492586962</speed>
  <fix>3d</fix>
</trkpt>
<trkpt lat="33.8109929" lon="-118.3933849">
  <ele>-24.39</ele>
  <time>2026-09-01T01:14:34Z</time>
  <course>53.47</course>
  <speed>1.0</speed>
  <fix>3d</fix>
</trkpt>
<trkpt lat="33.8109945" lon="-118.3933819">
  <ele>-24.99</ele>
  <time>2026-09-01T01:14:34Z</time>
  <course>54.85</course>
  <speed>0.9765244492586962</speed>
  <fix>3d</fix>
</trkpt>
<trkpt lat="33.810994" lon="-118.3933831">
  <ele>-24.38</ele>
  <time>2026-09-01T01:14:34Z</time>
  <course>53.49</course>
  <speed>1.0</speed>
  <fix>3d</fix>
</trkpt>
<trkpt lat="33.810995" lon="-118.3933811">
  <ele>-24.988</ele>
  <time>2026-09-01T01:14:34Z</time>
  <course>54.84</course>
  <speed>0.9765244492586962</speed>
  <fix>3d</fix>
</trkpt>
<trkpt lat="33.810994" lon="-118.3933831">
  <ele>-24.38</ele>
  <time>2026-09-01T01:14:34Z</time>
  <course>53.49</course>
  <speed>1.0</speed>
  <fix>3d</fix>
</trkpt>
<trkpt lat="33.8109955" lon="-118.3933802">
  <ele>-24.987</ele>
  <time>2026-09-01T01:14:34Z</time>
  <course>54.83</course>
  <speed>0.9765244492586962</speed>
  <fix>3d</fix>
</trkpt>
<trkpt lat="33.8109951" lon="-118.3933814">
  <ele>-24.38</ele>
  <time>2026-09-01T01:14:34Z</time>
  <course>53.48</course>
  <speed>1.0</speed>
  <fix>3d</fix>
</trkpt>
<trkpt lat="33.8109961" lon="-118.3933793">
  <ele>-24.987</ele>
  <time>2026-09-01T01:14:34Z</time>
  <course>54.81</course>
  <speed>0.9765244492586962</speed>
  <fix>3d</fix>
</trkpt>
<trkpt lat="33.8109951" lon="-118.3933814">
  <ele>-24.38</ele>
  <time>2026-09-01T01:14:34Z</time>
  <course>53.48</course>
  <speed>1.0</speed>
  <fix>3d</fix>
</trkpt>
<trkpt lat="33.8109966" lon="-118.3933785">
  <ele>-24.987</ele>
  <time>2026-09-01T01:14:34Z</time>
  <course>54.81</course>
  <speed>0.9765244492586962</speed>
  <fix>3d</fix>
</trkpt>
<trkpt lat="33.8109962" lon="-118.3933796">
  <ele>-24.38</ele>
  <time>2026-09-01T01:14:34Z</time>
  <course>53.46</course>
  <speed>1.01</speed>
  <fix>3d</fix>
</trkpt>
<trkpt lat="33.8109971" lon="-118.3933776">
  <ele>-24.987</ele>
  <time>2026-09-01T01:14:34Z</time>
  <course>54.81</course>
  <speed>0.9765244492586962</speed>
  <fix>3d</fix>
</trkpt>
<trkpt lat="33.8109962" lon="-118.3933796">
  <ele>-24.38</ele>
  <time>2026-09-01T01:14:34Z</time>
  <course>53.46</course>
  <speed>1.01</speed>
  <fix>3d</fix>
</trkpt>
<trkpt lat="33.8109977" lon="-118.3933767">
  <ele>-24.987</ele>
  <time>2026-09-01T01:14:34Z</time>
  <course>54.82</course>
  <speed>0.9765244492586962</speed>
  <fix>3d</fix>
</trkpt>
<trkpt lat="33.8109973" lon="-118.3933779">
  <ele>-24.38</ele>
  <time>2026-09-01T01:14:34Z</time>
  <course>53.48</course>
  <speed>1.0</speed>
  <fix>3d</fix>
</trkpt>
<trkpt lat="33.8109982" lon="-118.3933759">
  <ele>-24.987</ele>
  <time>2026-09-01T01:14:34Z</time>
  <course>54.83</course>
  <speed>0.9765244492586962</speed>
  <fix>3d</fix>
</trkpt>
<trkpt lat="33.8109973" lon="-118.3933779">
  <ele>-24.38</ele>
  <time>2026-09-01T01:14:34Z</time>
  <course>53.48</course>
  <speed>1.0</speed>
  <fix>3d</fix>
</trkpt>
<trkpt lat="33.8109988" lon="-118.393375">
  <ele>-24.988</ele>
  <time>2026-09-01T01:14:34Z</time>
  <course>54.86</course>
  <speed>0.9765244492586962</speed>
  <fix>3d</fix>
</trkpt>
<trkpt lat="33.8109984" lon="-118.3933761">
  <ele>-24.38</ele>
  <time>2026-09-01T01:14:34Z</time>
  <course>53.52</course>
  <speed>1.0</speed>
  <fix>3d</fix>
</trkpt>
<trkpt lat="33.8109993" lon="-118.3933741">
  <ele>-24.988</ele>
  <time>2026-09-01T01:14:34Z</time>
  <course>54.89</course>
  <speed>0.9765244492586962</speed>
  <fix>3d</fix>
</trkpt>
<trkpt lat="33.8109984" lon="-118.3933761">
  <ele>-24.38</ele>
  <time>2026-09-01T01:14:34Z</time>
  <course>53.52</course>
  <speed>1.0</speed>
  <fix>3d</fix>
</trkpt>
<trkpt lat="33.8109998" lon="-118.3933732">
  <ele>-24.988</ele>
  <time>2026-09-01T01:14:34Z</time>
  <course>54.93</course>
  <speed>0.9765244492586962</speed>
  <fix>3d</fix>
</trkpt>
<trkpt lat="33.8109994" lon="-118.3933744">
  <ele>-24.38</ele>
  <time>2026-09-01T01:14:34Z</time>
  <course>53.56</course>
  <speed>1.0</speed>
  <fix>3d</fix>
</trkpt>
<trkpt lat="33.8110004" lon="-118.3933724">
  <ele>-24.987</ele>
  <time>2026-09-01T01:14:34Z</time>
  <course>54.95</course>
  <speed>0.9765244492586962</speed>
  <fix>3d</fix>
</trkpt>
<trkpt lat="33.8109994" lon="-118.3933744">
  <ele>-24.38</ele>
  <time>2026-09-01T01:14:34Z</time>
  <course>53.56</course>
  <speed>1.0</speed>
  <fix>3d</fix>
</trkpt>
<trkpt lat="33.8110009" lon="-118.3933715">
  <ele>-24.986</ele>
  <time>2026-09-01T01:14:34Z</time>
  <course>54.97</course>
  <speed>0.9765244492586962</speed>
  <fix>3d</fix>
</trkpt>
<trkpt lat="33.8110005" lon="-118.3933726">
  <ele>-24.38</ele>
  <time>2026-09-01T01:14:34Z</time>
  <course>53.58</course>
  <speed>1.0</speed>
  <fix>3d</fix>
</trkpt>
<trkpt lat="33.8110014" lon="-118.3933706">
  <ele>-24.985</ele>
  <time>2026-09-01T01:14:34Z</time>
  <course>54.98</course>
  <speed>0.9765244492586962</speed>
  <fix>3d</fix>
</trkpt>
<trkpt lat="33.8110005" lon="-118.3933726">
  <ele>-24.38</ele>
  <time>2026-09-01T01:14:34Z</time>
  <course>53.58</course>
  <speed>1.0</speed>
  <fix>3d</fix>
</trkpt>
<trkpt lat="33.811002" lon="-118.3933697">
  <ele>-24.984</ele>
  <time>2026-09-01T01:14:34Z</time>
  <course>54.98</course>
  <speed>0.9765244492586962</speed>
  <fix>3d</fix>
</trkpt>
<trkpt lat="33.8110016" lon="-118.3933708">
  <ele>-24.38</ele>
  <time>2026-09-01T01:14:34Z</time>
  <course>53.57</course>
  <speed>1.0</speed>
  <fix>3d</fix>
</trkpt>
<trkpt lat="33.8110025" lon="-118.3933689">
  <ele>-24.984</ele>
  <time>2026-09-01T01:14:34Z</time>
  <course>54.97</course>
  <speed>0.9765244492586962</speed>
  <fix>3d</fix>
</trkpt>
<trkpt lat="33.8110016" lon="-118.3933708">
  <ele>-24.38</ele>
  <time>2026-09-01T01:14:34Z</time>
  <course>53.57</course>
  <speed>1.0</speed>
  <fix>3d</fix>
</trkpt>
<trkpt lat="33.8110031" lon="-118.393368">
  <ele>-24.985</ele>
  <time>2026-09-01T01:14:34Z</time>
  <course>54.97</course>
  <speed>0.9765244492586962</speed>
  <fix>3d</fix>
</trkpt>
<trkpt lat="33.8110027" lon="-118.3933691">
  <ele>-24.38</ele>
  <time>2026-09-01T01:14:34Z</time>
  <course>53.56</course>
  <speed>1.0</speed>
  <fix>3d</fix>
</trkpt>
<trkpt lat="33.8110036" lon="-118.3933671">
  <ele>-24.987</ele>
  <time>2026-09-01T01:14:34Z</time>
  <course>54.96</course>
  <speed>0.9765244492586962</speed>
  <fix>3d</fix>
</trkpt>
<trkpt lat="33.8110027" lon="-118.3933691">
  <ele>-24.38</ele>
  <time>2026-09-01T01:14:34Z</time>
  <course>53.56</course>
  <speed>1.0</speed>
  <fix>3d</fix>
</trkpt>
<trkpt lat="33.8110041" lon="-118.3933662">
  <ele>-24.987</ele>
  <time>2026-09-01T01:14:34Z</time>
  <course>54.97</course>
  <speed>0.9765244492586962</speed>
  <fix>3d</fix>
</trkpt>
<trkpt lat="33.8110037" lon="-118.3933673">
  <ele>-24.38</ele>
  <time>2026-09-01T01:14:34Z</time>
  <course>53.56</course>
  <speed>1.0</speed>
  <fix>3d</fix>
</trkpt>
<trkpt lat="33.8110047" lon="-118.3933654">
  <ele>-24.988</ele>
  <time>2026-09-01T01:14:34Z</time>
  <course>54.97</course>
  <speed>0.9765244492586962</speed>
  <fix>3d</fix>
</trkpt>
<trkpt lat="33.8110037" lon="-118.3933673">
  <ele>-24.38</ele>
  <time>2026-09-01T01:14:34Z</time>
  <course>53.56</course>
  <speed>1.0</speed>
  <fix>3d</fix>
</trkpt>
<trkpt lat="33.8110052" lon="-118.3933645">
  <ele>-24.987</ele>
  <time>2026-09-01T01:14:34Z</time>
  <course>54.96</course>
  <speed>0.9765244492586962</speed>
  <fix>3d</fix>
</trkpt>
<trkpt lat="33.8110048" lon="-118.3933656">
  <ele>-24.38</ele>
  <time>2026-09-01T01:14:34Z</time>
  <course>53.55</course>
  <speed>1.0</speed>
  <fix>3d</fix>
</trkpt>
<trkpt lat="33.8110057" lon="-118.3933636">
  <ele>-24.987</ele>
  <time>2026-09-01T01:14:34Z</time>
  <course>54.94</course>
  <speed>0.9765244492586962</speed>
  <fix>3d</fix>
</trkpt>
<trkpt lat="33.8110048" lon="-118.3933656">
  <ele>-24.38</ele>
  <time>2026-09-01T01:14:34Z</time>
  <course>53.55</course>
  <speed>1.0</speed>
  <fix>3d</fix>
</trkpt>
<trkpt lat="33.8110063" lon="-118.3933628">
  <ele>-24.988</ele>
  <time>2026-09-01T01:14:34Z</time>
  <course>54.93</course>
  <speed>0.9765244492586962</speed>
  <fix>3d</fix>
</trkpt>
<trkpt lat="33.8110059" lon="-118.3933639">
  <ele>-24.38</ele>
  <time>2026-09-01T01:14:34Z</time>
  <course>53.52</course>
  <speed>1.0</speed>
  <fix>3d</fix>
</trkpt>
<trkpt lat="33.8110068" lon="-118.3933619">
  <ele>-24.989</ele>
  <time>2026-09-01T01:14:34Z</time>
  <course>54.92</course>
  <speed>0.9765244492586962</speed>
  <fix>3d</fix>
</trkpt>
<trkpt lat="33.8110059" lon="-118.3933639">
  <ele>-24.38</ele>
  <time>2026-09-01T01:14:34Z</time>
  <course>53.52</course>
  <speed>1.0</speed>
  <fix>3d</fix>
</trkpt>
<trkpt lat="33.8110073" lon="-118.393361">
  <ele>-24.99</ele>
  <time>2026-09-01T01:14:34Z</time>
  <course>54.93</course>
  <speed>0.9765244492586962</speed>
  <fix>3d</fix>
</trkpt>
<trkpt lat="33.8110069" lon="-118.3933621">
  <ele>-24.38</ele>
  <time>2026-09-01T01:14:34Z</time>
  <course>53.54</course>
  <speed>1.0</speed>
  <fix>3d</fix>
</trkpt>
<trkpt lat="33.8110079" lon="-118.3933601">
  <ele>-24.99</ele>
  <time>2026-09-01T01:14:34Z</time>
  <course>54.94</course>
  <speed>0.9765244492586962</speed>
  <fix>3d</fix>
</trkpt>
<trkpt lat="33.8110069" lon="-118.3933621">
  <ele>-24.38</ele>
  <time>2026-09-01T01:14:34Z</time>
  <course>53.54</course>
  <speed>1.0</speed>
  <fix>3d</fix>
</trkpt>
<trkpt lat="33.8110084" lon="-118.3933593">
  <ele>-24.989</ele>
  <time>2026-09-01T01:14:34Z</time>
  <course>54.94</course>
  <speed>0.9765244492586962</speed>
  <fix>3d</fix>
</trkpt>
<trkpt lat="33.811008" lon="-118.3933604">
  <ele>-24.38</ele>
  <time>2026-09-01T01:14:34Z</time>
  <course>53.56</course>
  <speed>1.0</speed>
  <fix>3d</fix>
</trkpt>
<trkpt lat="33.8110089" lon="-118.3933584">
  <ele>-24.987</ele>
  <time>2026-09-01T01:14:34Z</time>
  <course>54.92</course>
  <speed>0.9765244492586962</speed>
  <fix>3d</fix>
</trkpt>
<trkpt lat="33.811008" lon="-118.3933604">
  <ele>-24.38</ele>
  <time>2026-09-01T01:14:34Z</time>
  <course>53.56</course>
  <speed>1.0</speed>
  <fix>3d</fix>
</trkpt>
<trkpt lat="33.8110095" lon="-118.3933575">
  <ele>-24.985</ele>
  <time>2026-09-01T01:14:34Z</time>
  <course>54.91</course>
  <speed>0.9765244492586962</speed>
  <fix>3d</fix>
</trkpt>
<trkpt lat="33.8110091" lon="-118.3933586">
  <ele>-24.38</ele>
  <time>2026-09-01T01:14:34Z</time>
  <course>53.54</course>
  <speed>1.0</speed>
  <fix>3d</fix>
</trkpt>
<trkpt lat="33.81101" lon="-118.3933567">
  <ele>-24.984</ele>
  <time>2026-09-01T01:14:34Z</time>
  <course>54.9</course>
  <speed>0.9765244492586962</speed>
  <fix>3d</fix>
</trkpt>
<trkpt lat="33.8110091" lon="-118.3933586">
  <ele>-24.38</ele>
  <time>2026-09-01T01:14:34Z</time>
  <course>53.54</course>
  <speed>1.0</speed>
  <fix>3d</fix>
</trkpt>
<trkpt lat="33.8110105" lon="-118.3933558">
  <ele>-24.985</ele>
  <time>2026-09-01T01:14:34Z</time>
  <course>54.91</course>
  <speed>0.9765244492586962</speed>
  <fix>3d</fix>
</trkpt>
<trkpt lat="33.8110101" lon="-118.3933569">
  <ele>-24.38</ele>
  <time>2026-09-01T01:14:34Z</time>
  <course>53.53</course>
  <speed>0.99</speed>
  <fix>3d</fix>
</trkpt>
<trkpt lat="33.8110111" lon="-118.3933549">
  <ele>-24.985</ele>
  <time>2026-09-01T01:14:34Z</time>
  <course>54.89</course>
  <speed>0.9765244492586962</speed>
  <fix>3d</fix>
</trkpt>
<trkpt lat="33.8110101" lon="-118.3933569">
  <ele>-24.38</ele>
  <time>2026-09-01T01:14:34Z</time>
  <course>53.53</course>
  <speed>0.99</speed>
  <fix>3d</fix>
</trkpt>
<trkpt lat="33.8110116" lon="-118.3933541">
  <ele>-24.985</ele>
  <time>2026-09-01T01:14:34Z</time>
  <course>54.88</course>
  <speed>0.9765244492586962</speed>
  <fix>3d</fix>
</trkpt>
<trkpt lat="33.8110112" lon="-118.3933552">
  <ele>-24.38</ele>
  <time>2026-09-01T01:14:34Z</time>
  <course>53.51</course>
  <speed>0.99</speed>
  <fix>3d</fix>
</trkpt>
<trkpt lat="33.8110121" lon="-118.3933532">
  <ele>-24.985</ele>
  <time>2026-09-01T01:14:34Z</time>
  <course>54.86</course>
  <speed>0.9765244492586962</speed>
  <fix>3d</fix>
</trkpt>
<trkpt lat="33.8110112" lon="-118.3933552">
  <ele>-24.38</ele>
  <time>2026-09-01T01:14:34Z</time>
  <course>53.51</course>
  <speed>0.99</speed>
  <fix>3d</fix>
</trkpt>
<trkpt lat="33.8110127" lon="-118.3933523">
  <ele>-24.985</ele>
  <time>2026-09-01T01:14:34Z</time>
  <course>54.86</course>
  <speed>0.9765244492586962</speed>
  <fix>3d</fix>
</trkpt>
<trkpt lat="33.8110123" lon="-118.3933534">
  <ele>-24.38</ele>
  <time>2026-09-01T01:14:34Z</time>
  <course>53.5</course>
  <speed>1.0</speed>
  <fix>3d</fix>
</trkpt>
<trkpt lat="33.8110132" lon="-118.3933514">
  <ele>-24.985</ele>
  <time>2026-09-01T01:14:34Z</time>
  <course>54.85</course>
  <speed>0.9765244492586962</speed>
  <fix>3d</fix>
</trkpt>
<trkpt lat="33.8110123" lon="-118.3933534">
  <ele>-24.38</ele>
  <time>2026-09-01T01:14:34Z</time>
  <course>53.5</course>
  <speed>1.0</speed>
  <fix>3d</fix>
</trkpt>
<trkpt lat="33.8110138" lon="-118.3933506">
  <ele>-24.986</ele>
  <time>2026-09-01T01:14:34Z</time>
  <course>54.86</course>
  <speed>0.9765244492586962</speed>
  <fix>3d</fix>
</trkpt>
<trkpt lat="33.8110134" lon="-118.3933517">
  <ele>-24.39</ele>
  <time>2026-09-01T01:14:34Z</time>
  <course>53.51</course>
  <speed>1.0</speed>
  <fix>3d</fix>
</trkpt>
<trkpt lat="33.8110143" lon="-118.3933497">
  <ele>-24.988</ele>
  <time>2026-09-01T01:14:34Z</time>
  <course>54.87</course>
  <speed>0.9765244492586962</speed>
  <fix>3d</fix>
</trkpt>
<trkpt lat="33.8110134" lon="-118.3933517">
  <ele>-24.39</ele>
  <time>2026-09-01T01:14:34Z</time>
  <course>53.51</course>
  <speed>1.0</speed>
  <fix>3d</fix>
</trkpt>
<trkpt lat="33.8110148" lon="-118.3933488">
  <ele>-24.99</ele>
  <time>2026-09-01T01:14:34Z</time>
  <course>54.89</course>
  <speed>0.9765244492586962</speed>
  <fix>3d</fix>
</trkpt>
<trkpt lat="33.8110144" lon="-118.3933499">
  <ele>-24.39</ele>
  <time>2026-09-01T01:14:34Z</time>
  <course>53.54</course>
  <speed>0.99</speed>
  <fix>3d</fix>
</trkpt>
<trkpt lat="33.8110154" lon="-118.393348">
  <ele>-24.992</ele>
  <time>2026-09-01T01:14:34Z</time>
  <course>54.91</course>
  <speed>0.9765244492586962</speed>
  <fix>3d</fix>
</trkpt>
<trkpt lat="33.8110144" lon="-118.3933499">
  <ele>-24.39</ele>
  <time>2026-09-01T01:14:34Z</time>
  <course>53.54</course>
  <speed>0.99</speed>
  <fix>3d</fix>
</trkpt>
<trkpt lat="33.8110159" lon="-118.3933471">
  <ele>-24.993</ele>
  <time>2026-09-01T01:14:34Z</time>
  <course>54.91</course>
  <speed>0.9765244492586962</speed>
  <fix>3d</fix>
</trkpt>
<trkpt lat="33.8110155" lon="-118.3933482">
  <ele>-24.39</ele>
  <time>2026-09-01T01:14:34Z</time>
  <course>53.56</course>
  <speed>0.99</speed>
  <fix>3d</fix>
</trkpt>
<trkpt lat="33.8110164" lon="-118.3933462">
  <ele>-24.995</ele>
  <time>2026-09-01T01:14:34Z</time>
  <course>54.89</course>
  <speed>0.9765244492586962</speed>
  <fix>3d</fix>
</trkpt>
<trkpt lat="33.8110155" lon="-118.3933482">
  <ele>-24.39</ele>
  <time>2026-09-01T01:14:34Z</time>
  <course>53.56</course>
  <speed>0.99</speed>
  <fix>3d</fix>
</trkpt>
<trkpt lat="33.811017" lon="-118.3933453">
  <ele>-24.995</ele>
  <time>2026-09-01T01:14:34Z</time>
  <course>54.88</course>
  <speed>0.9765244492586962</speed>
  <fix>3d</fix>
</trkpt>
<trkpt lat="33.8110166" lon="-118.3933465">
  <ele>-24.39</ele>
  <time>2026-09-01T01:14:34Z</time>
  <course>53.55</course>
  <speed>0.99</speed>
  <fix>3d</fix>
</trkpt>
<trkpt lat="33.8110175" lon="-118.3933445">
  <ele>-24.994</ele>
  <time>2026-09-01T01:14:34Z</time>
  <course>54.88</course>
  <speed>0.9765244492586962</speed>
  <fix>3d</fix>
</trkpt>
<trkpt lat="33.8110166" lon="-118.3933465">
  <ele>-24.39</ele>
  <time>2026-09-01T01:14:34Z</time>
  <course>53.55</course>
  <speed>0.99</speed>
  <fix>3d</fix>
</trkpt>
<trkpt lat="33.811018" lon="-118.3933436">
  <ele>-24.992</ele>
  <time>2026-09-01T01:14:34Z</time>
  <course>54.89</course>
  <speed>0.9765244492586962</speed>
  <fix>3d</fix>
</trkpt>
<trkpt lat="33.8110176" lon="-118.3933447">
  <ele>-24.38</ele>
  <time>2026-09-01T01:14:34Z</time>
  <course>53.56</course>
  <speed>0.99</speed>
  <fix>3d</fix>
</trkpt>
<trkpt lat="33.8110186" lon="-118.3933427">
  <ele>-24.99</ele>
  <time>2026-09-01T01:14:34Z</time>
  <course>54.91</course>
  <speed>0.9765244492586962</speed>
  <fix>3d</fix>
</trkpt>
<trkpt lat="33.8110176" lon="-118.3933447">
  <ele>-24.38</ele>
  <time>2026-09-01T01:14:34Z</time>
  <course>53.56</course>
  <speed>0.99</speed>
  <fix>3d</fix>
</trkpt>
<trkpt lat="33.8110191" lon="-118.3933419">
  <ele>-24.989</ele>
  <time>2026-09-01T01:14:34Z</time>
  <course>54.91</course>
  <speed>0.9765244492586962</speed>
  <fix>3d</fix>
</trkpt>
<trkpt lat="33.8110187" lon="-118.393343">
  <ele>-24.38</ele>
  <time>2026-09-01T01:14:34Z</time>
  <course>53.58</course>
  <speed>0.99</speed>
  <fix>3d</fix>
</trkpt>
<trkpt lat="33.8110196" lon="-118.393341">
  <ele>-24.988</ele>
  <time>2026-09-01T01:14:34Z</time>
  <course>54.9</course>
  <speed>0.9765244492586962</speed>
  <fix>3d</fix>
</trkpt>
<trkpt lat="33.8110187" lon="-118.393343">
  <ele>-24.38</ele>
  <time>2026-09-01T01:14:34Z</time>
  <course>53.58</course>
  <speed>0.99</speed>
  <fix>3d</fix>
</trkpt>
<trkpt lat="33.8110202" lon="-118.3933401">
  <ele>-24.986</ele>
  <time>2026-09-01T01:14:34Z</time>
  <course>54.89</course>
  <speed>0.9765244492586962</speed>
  <fix>3d</fix>
</trkpt>
<trkpt lat="33.8110197" lon="-118.3933413">
  <ele>-24.38</ele>
  <time>2026-09-01T01:14:34Z</time>
  <course>53.56</course>
  <speed>0.99</speed>
  <fix>3d</fix>
</trkpt>
<trkpt lat="33.8110207" lon="-118.3933393">
  <ele>-24.985</ele>
  <time>2026-09-01T01:14:34Z</time>
  <course>54.88</course>
  <speed>0.9765244492586962</speed>
  <fix>3d</fix>
</trkpt>
<trkpt lat="33.8110197" lon="-118.3933413">
  <ele>-24.38</ele>
  <time>2026-09-01T01:14:34Z</time>
  <course>53.56</course>
  <speed>0.99</speed>
  <fix>3d</fix>
</trkpt>
<trkpt lat="33.8110212" lon="-118.3933384">
  <ele>-24.985</ele>
  <time>2026-09-01T01:14:34Z</time>
  <course>54.87</course>
  <speed>0.9765244492586962</speed>
  <fix>3d</fix>
</trkpt>
<trkpt lat="33.8110208" lon="-118.3933395">
  <ele>-24.37</ele>
  <time>2026-09-01T01:14:34Z</time>
  <course>53.54</course>
  <speed>0.99</speed>
  <fix>3d</fix>
</trkpt>
<trkpt lat="33.8110218" lon="-118.3933375">
  <ele>-24.985</ele>
  <time>2026-09-01T01:14:34Z</time>
  <course>54.85</course>
  <speed>0.9765244492586962</speed>
  <fix>3d</fix>
</trkpt>
<trkpt lat="33.8110208" lon="-118.3933395">
  <ele>-24.37</ele>
  <time>2026-09-01T01:14:34Z</time>
  <course>53.54</course>
  <speed>0.99</speed>
  <fix>3d</fix>
</trkpt>
<trkpt lat="33.8110223" lon="-118.3933366">
  <ele>-24.984</ele>
  <time>2026-09-01T01:14:34Z</time>
  <course>54.83</course>
  <speed>0.9765244492586962</speed>
  <fix>3d</fix>
</trkpt>
<trkpt lat="33.8110219" lon="-118.3933378">
  <ele>-24.37</ele>
  <time>2026-09-01T01:14:34Z</time>
  <course>53.51</course>
  <speed>0.99</speed>
  <fix>3d</fix>
</trkpt>
<trkpt lat="33.8110228" lon="-118.3933358">
  <ele>-24.984</ele>
  <time>2026-09-01T01:14:34Z</time>
  <course>54.81</course>
  <speed>0.9765244492586962</speed>
  <fix>3d</fix>
</trkpt>
<trkpt lat="33.8110219" lon="-118.3933378">
  <ele>-24.37</ele>
  <time>2026-09-01T01:14:34Z</time>
  <course>53.51</course>
  <speed>0.99</speed>
  <fix>3d</fix>
</trkpt>
<trkpt lat="33.8110234" lon="-118.3933349">
  <ele>-24.984</ele>
  <time>2026-09-01T01:14:34Z</time>
  <course>54.81</course>
  <speed>0.9765244492586962</speed>
  <fix>3d</fix>
</trkpt>
<trkpt lat="33.8110229" lon="-118.393336">
  <ele>-24.37</ele>
  <time>2026-09-01T01:14:34Z</time>
  <course>53.5</course>
  <speed>0.99</speed>
  <fix>3d</fix>
</trkpt>
<trkpt lat="33.8110239" lon="-118.393334">
  <ele>-24.985</ele>
  <time>2026-09-01T01:14:34Z</time>
  <course>54.8</course>
  <speed>0.9765244492586962</speed>
  <fix>3d</fix>
</trkpt>
<trkpt lat="33.8110229" lon="-118.393336">
  <ele>-24.37</ele>
  <time>2026-09-01T01:14:34Z</time>
  <course>53.5</course>
  <speed>0.99</speed>
  <fix>3d</fix>
</trkpt>
<trkpt lat="33.8110244" lon="-118.3933332">
  <ele>-24.986</ele>
  <time>2026-09-01T01:14:34Z</time>
  <course>54.78</course>
  <speed>0.9765244492586962</speed>
  <fix>3d</fix>
</trkpt>
<trkpt lat="33.811024" lon="-118.3933343">
  <ele>-24.38</ele>
  <time>2026-09-01T01:14:34Z</time>
  <course>53.48</course>
  <speed>0.99</speed>
  <fix>3d</fix>
</trkpt>
<trkpt lat="33.811025" lon="-118.3933323">
  <ele>-24.986</ele>
  <time>2026-09-01T01:14:34Z</time>
  <course>54.76</course>
  <speed>0.9765244492586962</speed>
  <fix>3d</fix>
</trkpt>
<trkpt lat="33.811024" lon="-118.3933343">
  <ele>-24.38</ele>
  <time>2026-09-01T01:14:34Z</time>
  <course>53.48</course>
  <speed>0.99</speed>
  <fix>3d</fix>
</trkpt>
<trkpt lat="33.8110255" lon="-118.3933314">
  <ele>-24.986</ele>
  <time>2026-09-01T01:14:34Z</time>
  <course>54.74</course>
  <speed>0.9765244492586962</speed>
  <fix>3d</fix>
</trkpt>
<trkpt lat="33.8110251" lon="-118.3933326">
  <ele>-24.38</ele>
  <time>2026-09-01T01:14:34Z</time>
  <course>53.43</course>
  <speed>0.99</speed>
  <fix>3d</fix>
</trkpt>
<trkpt lat="33.8110261" lon="-118.3933305">
  <ele>-24.984</ele>
  <time>2026-09-01T01:14:34Z</time>
  <course>54.72</course>
  <speed>0.9765244492586962</speed>
  <fix>3d</fix>
</trkpt>
<trkpt lat="33.8110251" lon="-118.3933326">
  <ele>-24.38</ele>
  <time>2026-09-01T01:14:34Z</time>
  <course>53.43</course>
  <speed>0.99</speed>
  <fix>3d</fix>
</trkpt>
<trkpt lat="33.8110266" lon="-118.3933297">
  <ele>-24.983</ele>
  <time>2026-09-01T01:14:34Z</time>
  <course>54.73</course>
  <speed>0.9765244492586962</speed>
  <fix>3d</fix>
</trkpt>
<trkpt lat="33.8110262" lon="-118.3933308">
  <ele>-24.38</ele>
  <time>2026-09-01T01:14:34Z</time>
  <course>53.44</course>
  <speed>0.99</speed>
  <fix>3d</fix>
</trkpt>
<trkpt lat="33.8110271" lon="-118.3933288">
  <ele>-24.981</ele>
  <time>2026-09-01T01:14:34Z</time>
  <course>54.74</course>
  <speed>0.9765244492586962</speed>
  <fix>3d</fix>
</trkpt>
<trkpt lat="33.8110262" lon="-118.3933308">
  <ele>-24.38</ele>
  <time>2026-09-01T01:14:34Z</time>
  <course>53.44</course>
  <speed>0.99</speed>
  <fix>3d</fix>
</trkpt>
<trkpt lat="33.8110277" lon="-118.3933279">
  <ele>-24.981</ele>
  <time>2026-09-01T01:14:34Z</time>
  <course>54.77</course>
  <speed>0.9765244492586962</speed>
  <fix>3d</fix>
</trkpt>
<trkpt lat="33.8110272" lon="-118.3933291">
  <ele>-24.38</ele>
  <time>2026-09-01T01:14:34Z</time>
  <course>53.48</course>
  <speed>0.99</speed>
  <fix>3d</fix>
</trkpt>
<trkpt lat="33.8110282" lon="-118.3933271">
  <ele>-24.981</ele>
  <time>2026-09-01T01:14:34Z</time>
  <course>54.79</course>
  <speed>0.9765244492586962</speed>
  <fix>3d</fix>
</trkpt>
<trkpt lat="33.8110272" lon="-118.3933291">
  <ele>-24.38</ele>
  <time>2026-09-01T01:14:34Z</time>
  <course>53.48</course>
  <speed>0.99</speed>
  <fix>3d</fix>
</trkpt>
<trkpt lat="33.8110287" lon="-118.3933262">
  <ele>-24.982</ele>
  <time>2026-09-01T01:14:34Z</time>
  <course>54.81</course>
  <speed>0.9765244492586962</speed>
  <fix>3d</fix>
</trkpt>
<trkpt lat="33.8110283" lon="-118.3933274">
  <ele>-24.38</ele>
  <time>2026-09-01T01:14:34Z</time>
  <course>53.49</course>
  <speed>0.99</speed>
  <fix>3d</fix>
</trkpt>
<trkpt lat="33.8110293" lon="-118.3933253">
  <ele>-24.983</ele>
  <time>2026-09-01T01:14:34Z</time>
  <course>54.81</course>
  <speed>0.9765244492586962</speed>
  <fix>3d</fix>
</trkpt>
<trkpt lat="33.8110283" lon="-118.3933274">
  <ele>-24.38</ele>
  <time>2026-09-01T01:14:34Z</time>
  <course>53.49</course>
  <speed>0.99</speed>
  <fix>3d</fix>
</trkpt>
<trkpt lat="33.8110298" lon="-118.3933245">
  <ele>-24.985</ele>
  <time>2026-09-01T01:14:34Z</time>
  <course>54.82</course>
  <speed>0.9765244492586962</speed>
  <fix>3d</fix>
</trkpt>
<trkpt lat="33.8110293" lon="-118.3933256">
  <ele>-24.38</ele>
  <time>2026-09-01T01:14:34Z</time>
  <course>53.48</course>
  <speed>1.0</speed>
  <fix>3d</fix>
</trkpt>
<trkpt lat="33.8110303" lon="-118.3933236">
  <ele>-24.987</ele>
  <time>2026-09-01T01:14:34Z</time>
  <course>54.83</course>
  <speed>0.9765244492586962</speed>
  <fix>3d</fix>
</trkpt>
<trkpt lat="33.8110293" lon="-118.3933256">
  <ele>-24.38</ele>
  <time>2026-09-01T01:14:34Z</time>
  <course>53.48</course>
  <speed>1.0</speed>
  <fix>3d</fix>
</trkpt>
<trkpt lat="33.8110309" lon="-118.3933227">
  <ele>-24.988</ele>
  <time>2026-09-01T01:14:34Z</time>
  <course>54.82</course>
  <speed>0.9765244492586962</speed>
  <fix>3d</fix>
</trkpt>
<trkpt lat="33.8110304" lon="-118.3933239">
  <ele>-24.39</ele>
  <time>2026-09-01T01:14:34Z</time>
  <course>53.47</course>
  <speed>1.0</speed>
  <fix>3d</fix>
</trkpt>
<trkpt lat="33.8110314" lon="-118.3933219">
  <ele>-24.99</ele>
  <time>2026-09-01T01:14:34Z</time>
  <course>54.8</course>
  <speed>0.9765244492586962</speed>
  <fix>3d</fix>
</trkpt>
<trkpt lat="33.8110304" lon="-118.3933239">
  <ele>-24.39</ele>
  <time>2026-09-01T01:14:34Z</time>
  <course>53.47</course>
  <speed>1.0</speed>
  <fix>3d</fix>
</trkpt>
<trkpt lat="33.8110319" lon="-118.393321">
  <ele>-24.992</ele>
  <time>2026-09-01T01:14:34Z</time>
  <course>54.79</course>
  <speed>0.9765244492586962</speed>
  <fix>3d</fix>
</trkpt>
<trkpt lat="33.8110315" lon="-118.3933222">
  <ele>-24.39</ele>
  <time>2026-09-01T01:14:34Z</time>
  <course>53.44</course>
  <speed>1.0</speed>
  <fix>3d</fix>
</trkpt>
<trkpt lat="33.8110325" lon="-118.3933201">
  <ele>-24.993</ele>
  <time>2026-09-01T01:14:34Z</time>
  <course>54.79</course>
  <speed>0.9765244492586962</speed>
  <fix>3d</fix>
</trkpt>
<trkpt lat="33.8110315" lon="-118.3933222">
  <ele>-24.39</ele>
  <time>2026-09-01T01:14:34Z</time>
  <course>53.44</course>
  <speed>1.0</speed>
  <fix>3d</fix>
</trkpt>
<trkpt lat="33.811033" lon="-118.3933193">
  <ele>-24.992</ele>
  <time>2026-09-01T01:14:34Z</time>
  <course>54.8</course>
  <speed>0.9765244492586962</speed>
  <fix>3d</fix>
</trkpt>
<trkpt lat="33.8110326" lon="-118.3933204">
  <ele>-24.39</ele>
  <time>2026-09-01T01:14:34Z</time>
  <course>53.44</course>
  <speed>1.0</speed>
  <fix>3d</fix>
</trkpt>
<trkpt lat="33.8110335" lon="-118.3933184">
  <ele>-24.99</ele>
  <time>2026-09-01T01:14:34Z</time>
  <course>54.81</course>
  <speed>0.9765244492586962</speed>
  <fix>3d</fix>
</trkpt>
<trkpt lat="33.8110326" lon="-118.3933204">
  <ele>-24.39</ele>
  <time>2026-09-01T01:14:34Z</time>
  <course>53.44</course>
  <speed>1.0</speed>
  <fix>3d</fix>
</trkpt>
<trkpt lat="33.8110341" lon="-118.3933175">
  <ele>-24.989</ele>
  <time>2026-09-01T01:14:34Z</time>
  <course>54.84</course>
  <speed>0.9765244492586962</speed>
  <fix>3d</fix>
</trkpt>
<trkpt lat="33.8110336" lon="-118.3933187">
  <ele>-24.39</ele>
  <time>2026-09-01T01:14:34Z</time>
  <course>53.47</course>
  <speed>1.0</speed>
  <fix>3d</fix>
</trkpt>
<trkpt lat="33.8110346" lon="-118.3933166">
  <ele>-24.989</ele>
  <time>2026-09-01T01:14:34Z</time>
  <course>54.85</course>
  <speed>0.9765244492586962</speed>
  <fix>3d</fix>
</trkpt>
<trkpt lat="33.8110336" lon="-118.3933187">
  <ele>-24.39</ele>
  <time>2026-09-01T01:14:34Z</time>
  <course>53.47</course>
  <speed>1.0</speed>
  <fix>3d</fix>
</trkpt>
<trkpt lat="33.8110351" lon="-118.3933158">
  <ele>-24.989</ele>
  <time>2026-09-01T01:14:34Z</time>
  <course>54.87</course>
  <speed>0.9765244492586962</speed>
  <fix>3d</fix>
</trkpt>
<trkpt lat="33.8110347" lon="-118.3933169">
  <ele>-24.39</ele>
  <time>2026-09-01T01:14:34Z</time>
  <course>53.49</course>
  <speed>1.0</speed>
  <fix>3d</fix>
</trkpt>
<trkpt lat="33.8110357" lon="-118.3933149">
  <ele>-24.989</ele>
  <time>2026-09-01T01:14:34Z</time>
  <course>54.87</course>
  <speed>0.9765244492586962</speed>
  <fix>3d</fix>
</trkpt>
<trkpt lat="33.8110347" lon="-118.3933169">
  <ele>-24.39</ele>
  <time>2026-09-01T01:14:34Z</time>
  <course>53.49</course>
  <speed>1.0</speed>
  <fix>3d</fix>
</trkpt>
<trkpt lat="33.8110362" lon="-118.393314">
  <ele>-24.989</ele>
  <time>2026-09-01T01:14:34Z</time>
  <course>54.86</course>
  <speed>0.9765244492586962</speed>
  <fix>3d</fix>
</trkpt>
<trkpt lat="33.8110358" lon="-118.3933152">
  <ele>-24.39</ele>
  <time>2026-09-01T01:14:34Z</time>
  <course>53.47</course>
  <speed>1.0</speed>
  <fix>3d</fix>
</trkpt>
<trkpt lat="33.8110368" lon="-118.3933132">
  <ele>-24.99</ele>
  <time>2026-09-01T01:14:34Z</time>
  <course>54.86</course>
  <speed>0.9765244492586962</speed>
  <fix>3d</fix>
</trkpt>
<trkpt lat="33.8110358" lon="-118.3933152">
  <ele>-24.39</ele>
  <time>2026-09-01T01:14:34Z</time>
  <course>53.47</course>
  <speed>1.0</speed>
  <fix>3d</fix>
</trkpt>
<trkpt lat="33.8110373" lon="-118.3933123">
  <ele>-24.99</ele>
  <time>2026-09-01T01:14:34Z</time>
  <course>54.87</course>
  <speed>0.9765244492586962</speed>
  <fix>3d</fix>
</trkpt>
<trkpt lat="33.8110369" lon="-118.3933135">
  <ele>-24.38</ele>
  <time>2026-09-01T01:14:34Z</time>
  <course>53.47</course>
  <speed>1.0</speed>
  <fix>3d</fix>
</trkpt>
<trkpt lat="33.8110378" lon="-118.3933114">
  <ele>-24.99</ele>
  <time>2026-09-01T01:14:34Z</time>
  <course>54.88</course>
  <speed>0.9765244492586962</speed>
  <fix>3d</fix>
</trkpt>
<trkpt lat="33.8110369" lon="-118.3933135">
  <ele>-24.38</ele>
  <time>2026-09-01T01:14:34Z</time>
  <course>53.47</course>
  <speed>1.0</speed>
  <fix>3d</fix>
</trkpt>
<trkpt lat="33.8110384" lon="-118.3933105">
  <ele>-24.989</ele>
  <time>2026-09-01T01:14:35Z</time>
  <course>54.92</course>
  <speed>0.9765244492586962</speed>
  <fix>3d</fix>
</trkpt>
<trkpt lat="33.8110379" lon="-118.3933117">
  <ele>-24.38</ele>
  <time>2026-09-01T01:14:35Z</time>
  <course>53.51</course>
  <speed>1.0</speed>
  <fix>3d</fix>
</trkpt>
<trkpt lat="33.8110389" lon="-118.3933097">
  <ele>-24.988</ele>
  <time>2026-09-01T01:14:35Z</time>
  <course>54.94</course>
  <speed>0.9765244492586962</speed>
  <fix>3d</fix>
</trkpt>
<trkpt lat="33.8110379" lon="-118.3933117">
  <ele>-24.38</ele>
  <time>2026-09-01T01:14:35Z</time>
  <course>53.51</course>
  <speed>1.0</speed>
  <fix>3d</fix>
</trkpt>
<trkpt lat="33.8110394" lon="-118.3933088">
  <ele>-24.986</ele>
  <time>2026-09-01T01:14:35Z</time>
  <course>54.96</course>
  <speed>0.9765244492586962</speed>
  <fix>3d</fix>
</trkpt>
<trkpt lat="33.811039" lon="-118.3933099">
  <ele>-24.38</ele>
  <time>2026-09-01T01:14:35Z</time>
  <course>53.55</course>
  <speed>1.0</speed>
  <fix>3d</fix>
</trkpt>
<trkpt lat="33.81104" lon="-118.3933079">
  <ele>-24.984</ele>
  <time>2026-09-01T01:14:35Z</time>
  <course>54.96</course>
  <speed>0.9765244492586962</speed>
  <fix>3d</fix>
</trkpt>
<trkpt lat="33.811039" lon="-118.3933099">
  <ele>-24.38</ele>
  <time>2026-09-01T01:14:35Z</time>
  <course>53.55</course>
  <speed>1.0</speed>
  <fix>3d</fix>
</trkpt>
<trkpt lat="33.8110405" lon="-118.3933071">
  <ele>-24.983</ele>
  <time>2026-09-01T01:14:35Z</time>
  <course>54.95</course>
  <speed>0.9765244492586962</speed>
  <fix>3d</fix>
</trkpt>
<trkpt lat="33.8110401" lon="-118.3933082">
  <ele>-24.38</ele>
  <time>2026-09-01T01:14:35Z</time>
  <course>53.53</course>
  <speed>1.0</speed>
  <fix>3d</fix>
</trkpt>
<trkpt lat="33.811041" lon="-118.3933062">
  <ele>-24.982</ele>
  <time>2026-09-01T01:14:35Z</time>
  <course>54.93</course>
  <speed>0.9765244492586962</speed>
  <fix>3d</fix>
</trkpt>
<trkpt lat="33.8110401" lon="-118.3933082">
  <ele>-24.38</ele>
  <time>2026-09-01T01:14:35Z</time>
  <course>53.53</course>
  <speed>1.0</speed>
  <fix>3d</fix>
</trkpt>
<trkpt lat="33.8110416" lon="-118.3933053">
  <ele>-24.982</ele>
  <time>2026-09-01T01:14:35Z</time>
  <course>54.92</course>
  <speed>0.9765244492586962</speed>
  <fix>3d</fix>
</trkpt>
<trkpt lat="33.8110411" lon="-118.3933065">
  <ele>-24.38</ele>
  <time>2026-09-01T01:14:35Z</time>
  <course>53.51</course>
  <speed>0.99</speed>
  <fix>3d</fix>
</trkpt>
<trkpt lat="33.8110421" lon="-118.3933044">
  <ele>-24.983</ele>
  <time>2026-09-01T01:14:35Z</time>
  <course>54.91</course>
  <speed>0.9765244492586962</speed>
  <fix>3d</fix>
</trkpt>
<trkpt lat="33.8110411" lon="-118.3933065">
  <ele>-24.38</ele>
  <time>2026-09-01T01:14:35Z</time>
  <course>53.51</course>
  <speed>0.99</speed>
  <fix>3d</fix>
</trkpt>
<trkpt lat="33.8110426" lon="-118.3933036">
  <ele>-24.983</ele>
  <time>2026-09-01T01:14:35Z</time>
  <course>54.91</course>
  <speed>0.9765244492586962</speed>
  <fix>3d</fix>
</trkpt>
<trkpt lat="33.8110422" lon="-118.3933048">
  <ele>-24.38</ele>
  <time>2026-09-01T01:14:35Z</time>
  <course>53.51</course>
  <speed>0.99</speed>
  <fix>3d</fix>
</trkpt>
<trkpt lat="33.8110432" lon="-118.3933027">
  <ele>-24.984</ele>
  <time>2026-09-01T01:14:35Z</time>
  <course>54.9</course>
  <speed>0.9765244492586962</speed>
  <fix>3d</fix>
</trkpt>
<trkpt lat="33.8110422" lon="-118.3933048">
  <ele>-24.38</ele>
  <time>2026-09-01T01:14:35Z</time>
  <course>53.51</course>
  <speed>0.99</speed>
  <fix>3d</fix>
</trkpt>
<trkpt lat="33.8110437" lon="-118.3933018">
  <ele>-24.985</ele>
  <time>2026-09-01T01:14:35Z</time>
  <course>54.91</course>
  <speed>0.9765244492586962</speed>
  <fix>3d</fix>
</trkpt>
<trkpt lat="33.8110432" lon="-118.393303">
  <ele>-24.38</ele>
  <time>2026-09-01T01:14:35Z</time>
  <course>53.51</course>
  <speed>0.99</speed>
  <fix>3d</fix>
</trkpt>
<trkpt lat="33.8110442" lon="-118.393301">
  <ele>-24.986</ele>
  <time>2026-09-01T01:14:35Z</time>
  <course>54.91</course>
  <speed>0.9765244492586962</speed>
  <fix>3d</fix>
</trkpt>
<trkpt lat="33.8110432" lon="-118.393303">
  <ele>-24.38</ele>
  <time>2026-09-01T01:14:35Z</time>
  <course>53.51</course>
  <speed>0.99</speed>
  <fix>3d</fix>
</trkpt>
<trkpt lat="33.8110448" lon="-118.3933001">
  <ele>-24.987</ele>
  <time>2026-09-01T01:14:35Z</time>
  <course>54.9</course>
  <speed>0.9765244492586962</speed>
  <fix>3d</fix>
</trkpt>
<trkpt lat="33.8110443" lon="-118.3933013">
  <ele>-24.38</ele>
  <time>2026-09-01T01:14:35Z</time>
  <course>53.47</course>
  <speed>0.99</speed>
  <fix>3d</fix>
</trkpt>
<trkpt lat="33.8110453" lon="-118.3932992">
  <ele>-24.988</ele>
  <time>2026-09-01T01:14:35Z</time>
  <course>54.87</course>
  <speed>0.9765244492586962</speed>
  <fix>3d</fix>
</trkpt>
<trkpt lat="33.8110443" lon="-118.3933013">
  <ele>-24.38</ele>
  <time>2026-09-01T01:14:35Z</time>
  <course>53.47</course>
  <speed>0.99</speed>
  <fix>3d</fix>
</trkpt>
<trkpt lat="33.8110458" lon="-118.3932984">
  <ele>-24.988</ele>
  <time>2026-09-01T01:14:35Z</time>
  <course>54.86</course>
  <speed>0.9765244492586962</speed>
  <fix>3d</fix>
</trkpt>
<trkpt lat="33.8110454" lon="-118.3932995">
  <ele>-24.38</ele>
  <time>2026-09-01T01:14:35Z</time>
  <course>53.42</course>
  <speed>1.0</speed>
  <fix>3d</fix>
</trkpt>
<trkpt lat="33.8110464" lon="-118.3932975">
  <ele>-24.986</ele>
  <time>2026-09-01T01:14:35Z</time>
  <course>54.84</course>
  <speed>0.9765244492586962</speed>
  <fix>3d</fix>
</trkpt>
<trkpt lat="33.8110454" lon="-118.3932995">
  <ele>-24.38</ele>
  <time>2026-09-01T01:14:35Z</time>
  <course>53.42</course>
  <speed>1.0</speed>
  <fix>3d</fix>
</trkpt>
<trkpt lat="33.8110469" lon="-118.3932966">
  <ele>-24.985</ele>
  <time>2026-09-01T01:14:35Z</time>
  <course>54.84</course>
  <speed>0.9765244492586962</speed>
  <fix>3d</fix>
</trkpt>
<trkpt lat="33.8110464" lon="-118.3932978">
  <ele>-24.38</ele>
  <time>2026-09-01T01:14:35Z</time>
  <course>53.4</course>
  <speed>1.0</speed>
  <fix>3d</fix>
</trkpt>
<trkpt lat="33.8110474" lon="-118.3932957">
  <ele>-24.984</ele>
  <time>2026-09-01T01:14:35Z</time>
  <course>54.82</course>
  <speed>0.9765244492586962</speed>
  <fix>3d</fix>
</trkpt>
<trkpt lat="33.8110464" lon="-118.3932978">
  <ele>-24.38</ele>
  <time>2026-09-01T01:14:35Z</time>
  <course>53.4</course>
  <speed>1.0</speed>
  <fix>3d</fix>
</trkpt>
<trkpt lat="33.811048" lon="-118.3932949">
  <ele>-24.984</ele>
  <time>2026-09-01T01:14:35Z</time>
  <course>54.81</course>
  <speed>0.9765244492586962</speed>
  <fix>3d</fix>
</trkpt>
<trkpt lat="33.8110475" lon="-118.393296">
  <ele>-24.38</ele>
  <time>2026-09-01T01:14:35Z</time>
  <course>53.38</course>
  <speed>1.0</speed>
  <fix>3d</fix>
</trkpt>
<trkpt lat="33.8110485" lon="-118.393294">
  <ele>-24.984</ele>
  <time>2026-09-01T01:14:35Z</time>
  <course>54.79</course>
  <speed>0.9765244492586962</speed>
  <fix>3d</fix>
</trkpt>
<trkpt lat="33.8110475" lon="-118.393296">
  <ele>-24.38</ele>
  <time>2026-09-01T01:14:35Z</time>
  <course>53.38</course>
  <speed>1.0</speed>
  <fix>3d</fix>
</trkpt>
<trkpt lat="33.811049" lon="-118.3932931">
  <ele>-24.985</ele>
  <time>2026-09-01T01:14:35Z</time>
  <course>54.78</course>
  <speed>0.9765244492586962</speed>
  <fix>3d</fix>
</trkpt>
<trkpt lat="33.8110486" lon="-118.3932943">
  <ele>-24.38</ele>
  <time>2026-09-01T01:14:35Z</time>
  <course>53.33</course>
  <speed>1.0</speed>
  <fix>3d</fix>
</trkpt>
<trkpt lat="33.8110496" lon="-118.3932923">
  <ele>-24.987</ele>
  <time>2026-09-01T01:14:35Z</time>
  <course>54.75</course>
  <speed>0.9765244492586962</speed>
  <fix>3d</fix>
</trkpt>
<trkpt lat="33.8110486" lon="-118.3932943">
  <ele>-24.38</ele>
  <time>2026-09-01T01:14:35Z</time>
  <course>53.33</course>
  <speed>1.0</speed>
  <fix>3d</fix>
</trkpt>
<trkpt lat="33.8110501" lon="-118.3932914">
  <ele>-24.987</ele>
  <time>2026-09-01T01:14:35Z</time>
  <course>54.74</course>
  <speed>0.9765244492586962</speed>
  <fix>3d</fix>
</trkpt>
<trkpt lat="33.8110497" lon="-118.3932926">
  <ele>-24.38</ele>
  <time>2026-09-01T01:14:35Z</time>
  <course>53.32</course>
  <speed>0.99</speed>
  <fix>3d</fix>
</trkpt>
<trkpt lat="33.8110507" lon="-118.3932905">
  <ele>-24.987</ele>
  <time>2026-09-01T01:14:35Z</time>
  <course>54.74</course>
  <speed>0.9765244492586962</speed>
  <fix>3d</fix>
</trkpt>
<trkpt lat="33.8110497" lon="-118.3932926">
  <ele>-24.38</ele>
  <time>2026-09-01T01:14:35Z</time>
  <course>53.32</course>
  <speed>0.99</speed>
  <fix>3d</fix>
</trkpt>
<trkpt lat="33.8110512" lon="-118.3932896">
  <ele>-24.986</ele>
  <time>2026-09-01T01:14:35Z</time>
  <course>54.77</course>
  <speed>0.9765244492586962</speed>
  <fix>3d</fix>
</trkpt>
<trkpt lat="33.8110507" lon="-118.3932909">
  <ele>-24.38</ele>
  <time>2026-09-01T01:14:35Z</time>
  <course>53.36</course>
  <speed>0.99</speed>
  <fix>3d</fix>
</trkpt>
<trkpt lat="33.8110517" lon="-118.3932888">
  <ele>-24.986</ele>
  <time>2026-09-01T01:14:35Z</time>
  <course>54.8</course>
  <speed>0.9765244492586962</speed>
  <fix>3d</fix>
</trkpt>
<trkpt lat="33.8110507" lon="-118.3932909">
  <ele>-24.38</ele>
  <time>2026-09-01T01:14:35Z</time>
  <course>53.36</course>
  <speed>0.99</speed>
  <fix>3d</fix>
</trkpt>
<trkpt lat="33.8110523" lon="-118.3932879">
  <ele>-24.986</ele>
  <time>2026-09-01T01:14:35Z</time>
  <course>54.83</course>
  <speed>0.9765244492586962</speed>
  <fix>3d</fix>
</trkpt>
<trkpt lat="33.8110518" lon="-118.3932891">
  <ele>-24.38</ele>
  <time>2026-09-01T01:14:35Z</time>
  <course>53.4</course>
  <speed>1.0</speed>
  <fix>3d</fix>
</trkpt>
<trkpt lat="33.8110528" lon="-118.393287">
  <ele>-24.987</ele>
  <time>2026-09-01T01:14:35Z</time>
  <course>54.84</course>
  <speed>0.9765244492586962</speed>
  <fix>3d</fix>
</trkpt>
<trkpt lat="33.8110518" lon="-118.3932891">
  <ele>-24.38</ele>
  <time>2026-09-01T01:14:35Z</time>
  <course>53.4</course>
  <speed>1.0</speed>
  <fix>3d</fix>
</trkpt>
<trkpt lat="33.8110533" lon="-118.3932862">
  <ele>-24.988</ele>
  <time>2026-09-01T01:14:35Z</time>
  <course>54.85</course>
  <speed>0.9765244492586962</speed>
  <fix>3d</fix>
</trkpt>
<trkpt lat="33.8110529" lon="-118.3932874">
  <ele>-24.38</ele>
  <time>2026-09-01T01:14:35Z</time>
  <course>53.41</course>
  <speed>1.0</speed>
  <fix>3d</fix>
</trkpt>
<trkpt lat="33.8110539" lon="-118.3932853">
  <ele>-24.988</ele>
  <time>2026-09-01T01:14:35Z</time>
  <course>54.86</course>
  <speed>0.9765244492586962</speed>
  <fix>3d</fix>
</trkpt>
<trkpt lat="33.8110529" lon="-118.3932874">
  <ele>-24.38</ele>
  <time>2026-09-01T01:14:35Z</time>
  <course>53.41</course>
  <speed>1.0</speed>
  <fix>3d</fix>
</trkpt>
<trkpt lat="33.8110544" lon="-118.3932844">
  <ele>-24.988</ele>
  <time>2026-09-01T01:14:35Z</time>
  <course>54.88</course>
  <speed>0.9765244492586962</speed>
  <fix>3d</fix>
</trkpt>
<trkpt lat="33.811054" lon="-118.3932857">
  <ele>-24.38</ele>
  <time>2026-09-01T01:14:35Z</time>
  <course>53.42</course>
  <speed>1.0</speed>
  <fix>3d</fix>
</trkpt>
<trkpt lat="33.8110549" lon="-118.3932836">
  <ele>-24.986</ele>
  <time>2026-09-01T01:14:35Z</time>
  <course>54.91</course>
  <speed>0.9765244492586962</speed>
  <fix>3d</fix>
</trkpt>
<trkpt lat="33.811054" lon="-118.3932857">
  <ele>-24.38</ele>
  <time>2026-09-01T01:14:35Z</time>
  <course>53.42</course>
  <speed>1.0</speed>
  <fix>3d</fix>
</trkpt>
<trkpt lat="33.8110555" lon="-118.3932827">
  <ele>-24.983</ele>
  <time>2026-09-01T01:14:35Z</time>
  <course>54.95</course>
  <speed>0.9765244492586962</speed>
  <fix>3d</fix>
</trkpt>
<trkpt lat="33.811055" lon="-118.3932839">
  <ele>-24.38</ele>
  <time>2026-09-01T01:14:35Z</time>
  <course>53.49</course>
  <speed>1.0</speed>
  <fix>3d</fix>
</trkpt>
<trkpt lat="33.811056" lon="-118.3932818">
  <ele>-24.982</ele>
  <time>2026-09-01T01:14:35Z</time>
  <course>54.99</course>
  <speed>0.9765244492586962</speed>
  <fix>3d</fix>
</trkpt>
<trkpt lat="33.811055" lon="-118.3932839">
  <ele>-24.38</ele>
  <time>2026-09-01T01:14:35Z</time>
  <course>53.49</course>
  <speed>1.0</speed>
  <fix>3d</fix>
</trkpt>
<trkpt lat="33.8110565" lon="-118.393281">
  <ele>-24.983</ele>
  <time>2026-09-01T01:14:35Z</time>
  <course>55.01</course>
  <speed>0.9765244492586962</speed>
  <fix>3d</fix>
</trkpt>
<trkpt lat="33.8110561" lon="-118.3932821">
  <ele>-24.38</ele>
  <time>2026-09-01T01:14:35Z</time>
  <course>53.53</course>
  <speed>1.0</speed>
  <fix>3d</fix>
</trkpt>
<trkpt lat="33.8110571" lon="-118.3932801">
  <ele>-24.984</ele>
  <time>2026-09-01T01:14:35Z</time>
  <course>55.02</course>
  <speed>0.9765244492586962</speed>
  <fix>3d</fix>
</trkpt>
<trkpt lat="33.8110561" lon="-118.3932821">
  <ele>-24.38</ele>
  <time>2026-09-01T01:14:35Z</time>
  <course>53.53</course>
  <speed>1.0</speed>
  <fix>3d</fix>
</trkpt>
<trkpt lat="33.8110576" lon="-118.3932792">
  <ele>-24.985</ele>
  <time>2026-09-01T01:14:35Z</time>
  <course>55.02</course>
  <speed>0.9765244492586962</speed>
  <fix>3d</fix>
</trkpt>
<trkpt lat="33.8110572" lon="-118.3932804">
  <ele>-24.38</ele>
  <time>2026-09-01T01:14:35Z</time>
  <course>53.51</course>
  <speed>1.0</speed>
  <fix>3d</fix>
</trkpt>
<trkpt lat="33.8110582" lon="-118.3932783">
  <ele>-24.987</ele>
  <time>2026-09-01T01:14:35Z</time>
  <course>55.0</course>
  <speed>0.9765244492586962</speed>
  <fix>3d</fix>
</trkpt>
<trkpt lat="33.8110572" lon="-118.3932804">
  <ele>-24.38</ele>
  <time>2026-09-01T01:14:35Z</time>
  <course>53.51</course>
  <speed>1.0</speed>
  <fix>3d</fix>
</trkpt>
<trkpt lat="33.8110587" lon="-118.3932775">
  <ele>-24.989</ele>
  <time>2026-09-01T01:14:35Z</time>
  <course>54.99</course>
  <speed>0.9765244492586962</speed>
  <fix>3d</fix>
</trkpt>
<trkpt lat="33.8110582" lon="-118.3932787">
  <ele>-24.38</ele>
  <time>2026-09-01T01:14:35Z</time>
  <course>53.48</course>
  <speed>1.0</speed>
  <fix>3d</fix>
</trkpt>
<trkpt lat="33.8110592" lon="-118.3932766">
  <ele>-24.989</ele>
  <time>2026-09-01T01:14:35Z</time>
  <course>54.98</course>
  <speed>0.9765244492586962</speed>
  <fix>3d</fix>
</trkpt>
<trkpt lat="33.8110582" lon="-118.3932787">
  <ele>-24.38</ele>
  <time>2026-09-01T01:14:35Z</time>
  <course>53.48</course>
  <speed>1.0</speed>
  <fix>3d</fix>
</trkpt>
<trkpt lat="33.8110597" lon="-118.3932757">
  <ele>-24.988</ele>
  <time>2026-09-01T01:14:35Z</time>
  <course>54.98</course>
  <speed>0.9765244492586962</speed>
  <fix>3d</fix>
</trkpt>
<trkpt lat="33.8110593" lon="-118.393277">
  <ele>-24.38</ele>
  <time>2026-09-01T01:14:35Z</time>
  <course>53.48</course>
  <speed>1.0</speed>
  <fix>3d</fix>
</trkpt>
<trkpt lat="33.8110603" lon="-118.3932749">
  <ele>-24.988</ele>
  <time>2026-09-01T01:14:35Z</time>
  <course>54.97</course>
  <speed>0.9765244492586962</speed>
  <fix>3d</fix>
</trkpt>
<trkpt lat="33.8110593" lon="-118.393277">
  <ele>-24.38</ele>
  <time>2026-09-01T01:14:35Z</time>
  <course>53.48</course>
  <speed>1.0</speed>
  <fix>3d</fix>
</trkpt>
<trkpt lat="33.8110608" lon="-118.393274">
  <ele>-24.989</ele>
  <time>2026-09-01T01:14:35Z</time>
  <course>54.98</course>
  <speed>0.9765244492586962</speed>
  <fix>3d</fix>
</trkpt>
<trkpt lat="33.8110604" lon="-118.3932752">
  <ele>-24.38</ele>
  <time>2026-09-01T01:14:35Z</time>
  <course>53.49</course>
  <speed>1.0</speed>
  <fix>3d</fix>
</trkpt>
<trkpt lat="33.8110614" lon="-118.3932731">
  <ele>-24.989</ele>
  <time>2026-09-01T01:14:35Z</time>
  <course>54.99</course>
  <speed>0.9765244492586962</speed>
  <fix>3d</fix>
</trkpt>
<trkpt lat="33.8110604" lon="-118.3932752">
  <ele>-24.38</ele>
  <time>2026-09-01T01:14:35Z</time>
  <course>53.49</course>
  <speed>1.0</speed>
  <fix>3d</fix>
</trkpt>
<trkpt lat="33.8110619" lon="-118.3932723">
  <ele>-24.989</ele>
  <time>2026-09-01T01:14:35Z</time>
  <course>55.0</course>
  <speed>0.9765244492586962</speed>
  <fix>3d</fix>
</trkpt>
<trkpt lat="33.8110614" lon="-118.3932735">
  <ele>-24.37</ele>
  <time>2026-09-01T01:14:35Z</time>
  <course>53.52</course>
  <speed>1.0</speed>
  <fix>3d</fix>
</trkpt>
<trkpt lat="33.8110624" lon="-118.3932714">
  <ele>-24.988</ele>
  <time>2026-09-01T01:14:35Z</time>
  <course>55.01</course>
  <speed>0.9765244492586962</speed>
  <fix>3d</fix>
</trkpt>
<trkpt lat="33.8110614" lon="-118.3932735">
  <ele>-24.37</ele>
  <time>2026-09-01T01:14:35Z</time>
  <course>53.52</course>
  <speed>1.0</speed>
  <fix>3d</fix>
</trkpt>
<trkpt lat="33.8110629" lon="-118.3932705">
  <ele>-24.986</ele>
  <time>2026-09-01T01:14:35Z</time>
  <course>55.01</course>
  <speed>0.9765244492586962</speed>
  <fix>3d</fix>
</trkpt>
<trkpt lat="33.8110625" lon="-118.3932717">
  <ele>-24.37</ele>
  <time>2026-09-01T01:14:35Z</time>
  <course>53.53</course>
  <speed>1.0</speed>
  <fix>3d</fix>
</trkpt>
<trkpt lat="33.8110635" lon="-118.3932697">
  <ele>-24.983</ele>
  <time>2026-09-01T01:14:35Z</time>
  <course>55.0</course>
  <speed>0.9765244492586962</speed>
  <fix>3d</fix>
</trkpt>
<trkpt lat="33.8110625" lon="-118.3932717">
  <ele>-24.37</ele>
  <time>2026-09-01T01:14:35Z</time>
  <course>53.53</course>
  <speed>1.0</speed>
  <fix>3d</fix>
</trkpt>
<trkpt lat="33.811064" lon="-118.3932688">
  <ele>-24.981</ele>
  <time>2026-09-01T01:14:35Z</time>
  <course>54.99</course>
  <speed>0.9765244492586962</speed>
  <fix>3d</fix>
</trkpt>
<trkpt lat="33.8110636" lon="-118.39327">
  <ele>-24.37</ele>
  <time>2026-09-01T01:14:35Z</time>
  <course>53.5</course>
  <speed>1.0</speed>
  <fix>3d</fix>
</trkpt>
<trkpt lat="33.8110646" lon="-118.3932679">
  <ele>-24.98</ele>
  <time>2026-09-01T01:14:35Z</time>
  <course>54.98</course>
  <speed>0.9765244492586962</speed>
  <fix>3d</fix>
</trkpt>
<trkpt lat="33.8110636" lon="-118.39327">
  <ele>-24.37</ele>
  <time>2026-09-01T01:14:35Z</time>
  <course>53.5</course>
  <speed>1.0</speed>
  <fix>3d</fix>
</trkpt>
<trkpt lat="33.8110651" lon="-118.3932671">
  <ele>-24.98</ele>
  <time>2026-09-01T01:14:35Z</time>
  <course>54.98</course>
  <speed>0.9765244492586962</speed>
  <fix>3d</fix>
</trkpt>
<trkpt lat="33.8110647" lon="-118.3932682">
  <ele>-24.37</ele>
  <time>2026-09-01T01:14:35Z</time>
  <course>53.49</course>
  <speed>1.0</speed>
  <fix>3d</fix>
</trkpt>
<trkpt lat="33.8110656" lon="-118.3932662">
  <ele>-24.981</ele>
  <time>2026-09-01T01:14:35Z</time>
  <course>54.98</course>
  <speed>0.9765244492586962</speed>
  <fix>3d</fix>
</trkpt>
<trkpt lat="33.8110647" lon="-118.3932682">
  <ele>-24.37</ele>
  <time>2026-09-01T01:14:35Z</time>
  <course>53.49</course>
  <speed>1.0</speed>
  <fix>3d</fix>
</trkpt>
<trkpt lat="33.8110662" lon="-118.3932653">
  <ele>-24.982</ele>
  <time>2026-09-01T01:14:35Z</time>
  <course>55.0</course>
  <speed>0.9765244492586962</speed>
  <fix>3d</fix>
</trkpt>
<trkpt lat="33.8110657" lon="-118.3932665">
  <ele>-24.37</ele>
  <time>2026-09-01T01:14:35Z</time>
  <course>53.52</course>
  <speed>1.0</speed>
  <fix>3d</fix>
</trkpt>
<trkpt lat="33.8110667" lon="-118.3932644">
  <ele>-24.983</ele>
  <time>2026-09-01T01:14:35Z</time>
  <course>55.01</course>
  <speed>0.9765244492586962</speed>
  <fix>3d</fix>
</trkpt>
<trkpt lat="33.8110657" lon="-118.3932665">
  <ele>-24.37</ele>
  <time>2026-09-01T01:14:35Z</time>
  <course>53.52</course>
  <speed>1.0</speed>
  <fix>3d</fix>
</trkpt>
<trkpt lat="33.8110672" lon="-118.3932636">
  <ele>-24.984</ele>
  <time>2026-09-01T01:14:35Z</time>
  <course>55.01</course>
  <speed>0.9765244492586962</speed>
  <fix>3d</fix>
</trkpt>
<trkpt lat="33.8110668" lon="-118.3932647">
  <ele>-24.37</ele>
  <time>2026-09-01T01:14:35Z</time>
  <course>53.53</course>
  <speed>1.0</speed>
  <fix>3d</fix>
</trkpt>
<trkpt lat="33.8110678" lon="-118.3932627">
  <ele>-24.985</ele>
  <time>2026-09-01T01:14:35Z</time>
  <course>54.99</course>
  <speed>0.9765244492586962</speed>
  <fix>3d</fix>
</trkpt>
<trkpt lat="33.8110668" lon="-118.3932647">
  <ele>-24.37</ele>
  <time>2026-09-01T01:14:35Z</time>
  <course>53.53</course>
  <speed>1.0</speed>
  <fix>3d</fix>
</trkpt>
<trkpt lat="33.8110683" lon="-118.3932618">
  <ele>-24.987</ele>
  <time>2026-09-01T01:14:35Z</time>
  <course>54.98</course>
  <speed>0.9765244492586962</speed>
  <fix>3d</fix>
</trkpt>
<trkpt lat="33.8110679" lon="-118.393263">
  <ele>-24.37</ele>
  <time>2026-09-01T01:14:35Z</time>
  <course>53.51</course>
  <speed>1.0</speed>
  <fix>3d</fix>
</trkpt>
<trkpt lat="33.8110688" lon="-118.393261">
  <ele>-24.988</ele>
  <time>2026-09-01T01:14:35Z</time>
  <course>54.96</course>
  <speed>0.9765244492586962</speed>
  <fix>3d</fix>
</trkpt>
<trkpt lat="33.8110679" lon="-118.393263">
  <ele>-24.37</ele>
  <time>2026-09-01T01:14:35Z</time>
  <course>53.51</course>
  <speed>1.0</speed>
  <fix>3d</fix>
</trkpt>
<trkpt lat="33.8110694" lon="-118.3932601">
  <ele>-24.987</ele>
  <time>2026-09-01T01:14:35Z</time>
  <course>54.96</course>
  <speed>0.9765244492586962</speed>
  <fix>3d</fix>
</trkpt>
<trkpt lat="33.811069" lon="-118.3932612">
  <ele>-24.38</ele>
  <time>2026-09-01T01:14:35Z</time>
  <course>53.49</course>
  <speed>1.0</speed>
  <fix>3d</fix>
</trkpt>
<trkpt lat="33.8110699" lon="-118.3932592">
  <ele>-24.986</ele>
  <time>2026-09-01T01:14:35Z</time>
  <course>54.97</course>
  <speed>0.9765244492586962</speed>
  <fix>3d</fix>
</trkpt>
<trkpt lat="33.811069" lon="-118.3932612">
  <ele>-24.38</ele>
  <time>2026-09-01T01:14:35Z</time>
  <course>53.49</course>
  <speed>1.0</speed>
  <fix>3d</fix>
</trkpt>
<trkpt lat="33.8110705" lon="-118.3932583">
  <ele>-24.984</ele>
  <time>2026-09-01T01:14:35Z</time>
  <course>54.98</course>
  <speed>0.9765244492586962</speed>
  <fix>3d</fix>
</trkpt>
<trkpt lat="33.8110701" lon="-118.3932595">
  <ele>-24.38</ele>
  <time>2026-09-01T01:14:35Z</time>
  <course>53.5</course>
  <speed>1.0</speed>
  <fix>3d</fix>
</trkpt>
<trkpt lat="33.811071" lon="-118.3932575">
  <ele>-24.983</ele>
  <time>2026-09-01T01:14:35Z</time>
  <course>55.0</course>
  <speed>0.9765244492586962</speed>
  <fix>3d</fix>
</trkpt>
<trkpt lat="33.8110701" lon="-118.3932595">
  <ele>-24.38</ele>
  <time>2026-09-01T01:14:35Z</time>
  <course>53.5</course>
  <speed>1.0</speed>
  <fix>3d</fix>
</trkpt>
<trkpt lat="33.8110715" lon="-118.3932566">
  <ele>-24.982</ele>
  <time>2026-09-01T01:14:35Z</time>
  <course>55.03</course>
  <speed>0.9765244492586962</speed>
  <fix>3d</fix>
</trkpt>
<trkpt lat="33.8110712" lon="-118.3932577">
  <ele>-24.37</ele>
  <time>2026-09-01T01:14:35Z</time>
  <course>53.54</course>
  <speed>1.0</speed>
  <fix>3d</fix>
</trkpt>
<trkpt lat="33.8110721" lon="-118.3932557">
  <ele>-24.981</ele>
  <time>2026-09-01T01:14:35Z</time>
  <course>55.05</course>
  <speed>0.9765244492586962</speed>
  <fix>3d</fix>
</trkpt>
<trkpt lat="33.8110712" lon="-118.3932577">
  <ele>-24.37</ele>
  <time>2026-09-01T01:14:35Z</time>
  <course>53.54</course>
  <speed>1.0</speed>
  <fix>3d</fix>
</trkpt>
<trkpt lat="33.8110726" lon="-118.3932549">
  <ele>-24.98</ele>
  <time>2026-09-01T01:14:35Z</time>
  <course>55.08</course>
  <speed>0.9765244492586962</speed>
  <fix>3d</fix>
</trkpt>
<trkpt lat="33.8110722" lon="-118.393256">
  <ele>-24.37</ele>
  <time>2026-09-01T01:14:35Z</time>
  <course>53.61</course>
  <speed>1.0</speed>
  <fix>3d</fix>
</trkpt>
<trkpt lat="33.8110731" lon="-118.393254">
  <ele>-24.98</ele>
  <time>2026-09-01T01:14:35Z</time>
  <course>55.12</course>
  <speed>0.9765244492586962</speed>
  <fix>3d</fix>
</trkpt>
<trkpt lat="33.8110722" lon="-118.393256">
  <ele>-24.37</ele>
  <time>2026-09-01T01:14:35Z</time>
  <course>53.61</course>
  <speed>1.0</speed>
  <fix>3d</fix>
</trkpt>
<trkpt lat="33.8110737" lon="-118.3932531">
  <ele>-24.98</ele>
  <time>2026-09-01T01:14:35Z</time>
  <course>55.14</course>
  <speed>0.9765244492586962</speed>
  <fix>3d</fix>
</trkpt>
<trkpt lat="33.8110733" lon="-118.3932542">
  <ele>-24.37</ele>
  <time>2026-09-01T01:14:35Z</time>
  <course>53.65</course>
  <speed>1.0</speed>
  <fix>3d</fix>
</trkpt>
<trkpt lat="33.8110742" lon="-118.3932522">
  <ele>-24.982</ele>
  <time>2026-09-01T01:14:35Z</time>
  <course>55.15</course>
  <speed>0.9765244492586962</speed>
  <fix>3d</fix>
</trkpt>
<trkpt lat="33.8110733" lon="-118.3932542">
  <ele>-24.37</ele>
  <time>2026-09-01T01:14:35Z</time>
  <course>53.65</course>
  <speed>1.0</speed>
  <fix>3d</fix>
</trkpt>
<trkpt lat="33.8110747" lon="-118.3932514">
  <ele>-24.983</ele>
  <time>2026-09-01T01:14:35Z</time>
  <course>55.15</course>
  <speed>0.9765244492586962</speed>
  <fix>3d</fix>
</trkpt>
<trkpt lat="33.8110743" lon="-118.3932525">
  <ele>-24.38</ele>
  <time>2026-09-01T01:14:35Z</time>
  <course>53.65</course>
  <speed>1.0</speed>
  <fix>3d</fix>
</trkpt>
<trkpt lat="33.8110753" lon="-118.3932505">
  <ele>-24.984</ele>
  <time>2026-09-01T01:14:35Z</time>
  <course>55.13</course>
  <speed>0.9765244492586962</speed>
  <fix>3d</fix>
</trkpt>
<trkpt lat="33.8110743" lon="-118.3932525">
  <ele>-24.38</ele>
  <time>2026-09-01T01:14:35Z</time>
  <course>53.65</course>
  <speed>1.0</speed>
  <fix>3d</fix>
</trkpt>
<trkpt lat="33.8110758" lon="-118.3932496">
  <ele>-24.985</ele>
  <time>2026-09-01T01:14:35Z</time>
  <course>55.11</course>
  <speed>0.9765244492586962</speed>
  <fix>3d</fix>
</trkpt>
<trkpt lat="33.8110754" lon="-118.3932507">
  <ele>-24.38</ele>
  <time>2026-09-01T01:14:35Z</time>
  <course>53.63</course>
  <speed>1.0</speed>
  <fix>3d</fix>
</trkpt>
<trkpt lat="33.8110763" lon="-118.3932487">
  <ele>-24.985</ele>
  <time>2026-09-01T01:14:35Z</time>
  <course>55.08</course>
  <speed>0.9765244492586962</speed>
  <fix>3d</fix>
</trkpt>
<trkpt lat="33.8110754" lon="-118.3932507">
  <ele>-24.38</ele>
  <time>2026-09-01T01:14:35Z</time>
  <course>53.63</course>
  <speed>1.0</speed>
  <fix>3d</fix>
</trkpt>
<trkpt lat="33.8110769" lon="-118.3932479">
  <ele>-24.986</ele>
  <time>2026-09-01T01:14:35Z</time>
  <course>55.05</course>
  <speed>0.9765244492586962</speed>
  <fix>3d</fix>
</trkpt>
<trkpt lat="33.8110765" lon="-118.393249">
  <ele>-24.38</ele>
  <time>2026-09-01T01:14:35Z</time>
  <course>53.58</course>
  <speed>1.0</speed>
  <fix>3d</fix>
</trkpt>
<trkpt lat="33.8110774" lon="-118.393247">
  <ele>-24.988</ele>
  <time>2026-09-01T01:14:35Z</time>
  <course>55.01</course>
  <speed>0.9765244492586962</speed>
  <fix>3d</fix>
</trkpt>
<trkpt lat="33.8110765" lon="-118.393249">
  <ele>-24.38</ele>
  <time>2026-09-01T01:14:35Z</time>
  <course>53.58</course>
  <speed>1.0</speed>
  <fix>3d</fix>
</trkpt>
<trkpt lat="33.8110779" lon="-118.3932461">
  <ele>-24.99</ele>
  <time>2026-09-01T01:14:35Z</time>
  <course>55.0</course>
  <speed>0.9765244492586962</speed>
  <fix>3d</fix>
</trkpt>
<trkpt lat="33.8110776" lon="-118.3932472">
  <ele>-24.39</ele>
  <time>2026-09-01T01:14:35Z</time>
  <course>53.55</course>
  <speed>1.0</speed>
  <fix>3d</fix>
</trkpt>
<trkpt lat="33.8110785" lon="-118.3932453">
  <ele>-24.991</ele>
  <time>2026-09-01T01:14:35Z</time>
  <course>54.99</course>
  <speed>0.9765244492586962</speed>
  <fix>3d</fix>
</trkpt>
<trkpt lat="33.8110776" lon="-118.3932472">
  <ele>-24.39</ele>
  <time>2026-09-01T01:14:35Z</time>
  <course>53.55</course>
  <speed>1.0</speed>
  <fix>3d</fix>
</trkpt>
<trkpt lat="33.811079" lon="-118.3932444">
  <ele>-24.992</ele>
  <time>2026-09-01T01:14:35Z</time>
  <course>54.99</course>
  <speed>0.9765244492586962</speed>
  <fix>3d</fix>
</trkpt>
<trkpt lat="33.8110786" lon="-118.3932455">
  <ele>-24.39</ele>
  <time>2026-09-01T01:14:35Z</time>
  <course>53.55</course>
  <speed>1.0</speed>
  <fix>3d</fix>
</trkpt>
<trkpt lat="33.8110796" lon="-118.3932435">
  <ele>-24.991</ele>
  <time>2026-09-01T01:14:35Z</time>
  <course>54.99</course>
  <speed>0.9765244492586962</speed>
  <fix>3d</fix>
</trkpt>
<trkpt lat="33.8110786" lon="-118.3932455">
  <ele>-24.39</ele>
  <time>2026-09-01T01:14:35Z</time>
  <course>53.55</course>
  <speed>1.0</speed>
  <fix>3d</fix>
</trkpt>
<trkpt lat="33.8110801" lon="-118.3932426">
  <ele>-24.99</ele>
  <time>2026-09-01T01:14:35Z</time>
  <course>54.98</course>
  <speed>0.9765244492586962</speed>
  <fix>3d</fix>
</trkpt>
<trkpt lat="33.8110797" lon="-118.3932437">
  <ele>-24.38</ele>
  <time>2026-09-01T01:14:35Z</time>
  <course>53.54</course>
  <speed>1.0</speed>
  <fix>3d</fix>
</trkpt>
<trkpt lat="33.8110806" lon="-118.3932418">
  <ele>-24.988</ele>
  <time>2026-09-01T01:14:35Z</time>
  <course>54.97</course>
  <speed>0.9765244492586962</speed>
  <fix>3d</fix>
</trkpt>
<trkpt lat="33.8110797" lon="-118.3932437">
  <ele>-24.38</ele>
  <time>2026-09-01T01:14:35Z</time>
  <course>53.54</course>
  <speed>1.0</speed>
  <fix>3d</fix>
</trkpt>
<trkpt lat="33.8110812" lon="-118.3932409">
  <ele>-24.986</ele>
  <time>2026-09-01T01:14:35Z</time>
  <course>54.96</course>
  <speed>0.9765244492586962</speed>
  <fix>3d</fix>
</trkpt>
<trkpt lat="33.8110808" lon="-118.3932419">
  <ele>-24.38</ele>
  <time>2026-09-01T01:14:35Z</time>
  <course>53.51</course>
  <speed>1.0</speed>
  <fix>3d</fix>
</trkpt>
<trkpt lat="33.8110817" lon="-118.39324">
  <ele>-24.984</ele>
  <time>2026-09-01T01:14:35Z</time>
  <course>54.94</course>
  <speed>0.9765244492586962</speed>
  <fix>3d</fix>
</trkpt>
<trkpt lat="33.8110808" lon="-118.3932419">
  <ele>-24.38</ele>
  <time>2026-09-01T01:14:35Z</time>
  <course>53.51</course>
  <speed>1.0</speed>
  <fix>3d</fix>
</trkpt>
<trkpt lat="33.8110822" lon="-118.3932391">
  <ele>-24.982</ele>
  <time>2026-09-01T01:14:35Z</time>
  <course>54.93</course>
  <speed>0.9683491106000975</speed>
  <fix>3d</fix>
</trkpt>
<trkpt lat="33.8110819" lon="-118.3932402">
  <ele>-24.37</ele>
  <time>2026-09-01T01:14:35Z</time>
  <course>53.5</course>
  <speed>0.99</speed>
  <fix>3d</fix>
</trkpt>
<trkpt lat="33.8110828" lon="-118.3932383">
  <ele>-24.981</ele>
  <time>2026-09-01T01:14:35Z</time>
  <course>54.91</course>
  <speed>0.9683491106000975</speed>
  <fix>3d</fix>
</trkpt>
<trkpt lat="33.8110819" lon="-118.3932402">
  <ele>-24.37</ele>
  <time>2026-09-01T01:14:35Z</time>
  <course>53.5</course>
  <speed>0.99</speed>
  <fix>3d</fix>
</trkpt>
<trkpt lat="33.8110833" lon="-118.3932374">
  <ele>-24.982</ele>
  <time>2026-09-01T01:14:35Z</time>
  <course>54.91</course>
  <speed>0.9683491106000975</speed>
  <fix>3d</fix>
</trkpt>
<trkpt lat="33.8110829" lon="-118.3932385">
  <ele>-24.37</ele>
  <time>2026-09-01T01:14:35Z</time>
  <course>53.49</course>
  <speed>0.99</speed>
  <fix>3d</fix>
</trkpt>
<trkpt lat="33.8110838" lon="-118.3932365">
  <ele>-24.982</ele>
  <time>2026-09-01T01:14:35Z</time>
  <course>54.9</course>
  <speed>0.9683491106000975</speed>
  <fix>3d</fix>
</trkpt>
<trkpt lat="33.8110829" lon="-118.3932385">
  <ele>-24.37</ele>
  <time>2026-09-01T01:14:35Z</time>
  <course>53.49</course>
  <speed>0.99</speed>
  <fix>3d</fix>
</trkpt>
<trkpt lat="33.8110844" lon="-118.3932357">
  <ele>-24.982</ele>
  <time>2026-09-01T01:14:35Z</time>
  <course>54.91</course>
  <speed>0.9765244492586962</speed>
  <fix>3d</fix>
</trkpt>
<trkpt lat="33.811084" lon="-118.3932368">
  <ele>-24.37</ele>
  <time>2026-09-01T01:14:35Z</time>
  <course>53.48</course>
  <speed>0.99</speed>
  <fix>3d</fix>
</trkpt>
<trkpt lat="33.8110849" lon="-118.3932348">
  <ele>-24.981</ele>
  <time>2026-09-01T01:14:35Z</time>
  <course>54.9</course>
  <speed>0.9765244492586962</speed>
  <fix>3d</fix>
</trkpt>
<trkpt lat="33.811084" lon="-118.3932368">
  <ele>-24.37</ele>
  <time>2026-09-01T01:14:35Z</time>
  <course>53.48</course>
  <speed>0.99</speed>
  <fix>3d</fix>
</trkpt>
<trkpt lat="33.8110855" lon="-118.3932339">
  <ele>-24.981</ele>
  <time>2026-09-01T01:14:35Z</time>
  <course>54.91</course>
  <speed>0.9765244492586962</speed>
  <fix>3d</fix>
</trkpt>
<trkpt lat="33.8110851" lon="-118.393235">
  <ele>-24.37</ele>
  <time>2026-09-01T01:14:35Z</time>
  <course>53.51</course>
  <speed>0.99</speed>
  <fix>3d</fix>
</trkpt>
<trkpt lat="33.811086" lon="-118.3932331">
  <ele>-24.982</ele>
  <time>2026-09-01T01:14:35Z</time>
  <course>54.92</course>
  <speed>0.9683491106000975</speed>
  <fix>3d</fix>
</trkpt>
<trkpt lat="33.8110851" lon="-118.393235">
  <ele>-24.37</ele>
  <time>2026-09-01T01:14:35Z</time>
  <course>53.51</course>
  <speed>0.99</speed>
  <fix>3d</fix>
</trkpt>
<trkpt lat="33.8110865" lon="-118.3932322">
  <ele>-24.983</ele>
  <time>2026-09-01T01:14:35Z</time>
  <course>54.94</course>
  <speed>0.9683491106000975</speed>
  <fix>3d</fix>
</trkpt>
<trkpt lat="33.8110861" lon="-118.3932333">
  <ele>-24.38</ele>
  <time>2026-09-01T01:14:35Z</time>
  <course>53.55</course>
  <speed>0.99</speed>
  <fix>3d</fix>
</trkpt>
<trkpt lat="33.8110871" lon="-118.3932313">
  <ele>-24.985</ele>
  <time>2026-09-01T01:14:35Z</time>
  <course>54.95</course>
  <speed>0.9683491106000975</speed>
  <fix>3d</fix>
</trkpt>
<trkpt lat="33.8110861" lon="-118.3932333">
  <ele>-24.38</ele>
  <time>2026-09-01T01:14:35Z</time>
  <course>53.55</course>
  <speed>0.99</speed>
  <fix>3d</fix>
</trkpt>
<trkpt lat="33.8110876" lon="-118.3932304">
  <ele>-24.987</ele>
  <time>2026-09-01T01:14:35Z</time>
  <course>54.96</course>
  <speed>0.9765244492586962</speed>
  <fix>3d</fix>
</trkpt>
<trkpt lat="33.8110872" lon="-118.3932316">
  <ele>-24.38</ele>
  <time>2026-09-01T01:14:35Z</time>
  <course>53.57</course>
  <speed>0.99</speed>
  <fix>3d</fix>
</trkpt>
<trkpt lat="33.8110881" lon="-118.3932296">
  <ele>-24.987</ele>
  <time>2026-09-01T01:14:35Z</time>
  <course>54.95</course>
  <speed>0.9765244492586962</speed>
  <fix>3d</fix>
</trkpt>
<trkpt lat="33.8110872" lon="-118.3932316">
  <ele>-24.38</ele>
  <time>2026-09-01T01:14:35Z</time>
  <course>53.57</course>
  <speed>0.99</speed>
  <fix>3d</fix>
</trkpt>
<trkpt lat="33.8110887" lon="-118.3932287">
  <ele>-24.987</ele>
  <time>2026-09-01T01:14:35Z</time>
  <course>54.96</course>
  <speed>0.9765244492586962</speed>
  <fix>3d</fix>
</trkpt>
<trkpt lat="33.8110882" lon="-118.3932298">
  <ele>-24.38</ele>
  <time>2026-09-01T01:14:35Z</time>
  <course>53.57</course>
  <speed>0.99</speed>
  <fix>3d</fix>
</trkpt>
<trkpt lat="33.8110892" lon="-118.3932278">
  <ele>-24.985</ele>
  <time>2026-09-01T01:14:35Z</time>
  <course>54.96</course>
  <speed>0.9765244492586962</speed>
  <fix>3d</fix>
</trkpt>
<trkpt lat="33.8110882" lon="-118.3932298">
  <ele>-24.38</ele>
  <time>2026-09-01T01:14:35Z</time>
  <course>53.57</course>
  <speed>0.99</speed>
  <fix>3d</fix>
</trkpt>
<trkpt lat="33.8110897" lon="-118.393227">
  <ele>-24.985</ele>
  <time>2026-09-01T01:14:35Z</time>
  <course>54.94</course>
  <speed>0.9765244492586962</speed>
  <fix>3d</fix>
</trkpt>
<trkpt lat="33.8110893" lon="-118.3932281">
  <ele>-24.38</ele>
  <time>2026-09-01T01:14:35Z</time>
  <course>53.56</course>
  <speed>0.99</speed>
  <fix>3d</fix>
</trkpt>
<trkpt lat="33.8110903" lon="-118.3932261">
  <ele>-24.984</ele>
  <time>2026-09-01T01:14:35Z</time>
  <course>54.91</course>
  <speed>0.9765244492586962</speed>
  <fix>3d</fix>
</trkpt>
<trkpt lat="33.8110893" lon="-118.3932281">
  <ele>-24.38</ele>
  <time>2026-09-01T01:14:35Z</time>
  <course>53.56</course>
  <speed>0.99</speed>
  <fix>3d</fix>
</trkpt>
<trkpt lat="33.8110908" lon="-118.3932252">
  <ele>-24.984</ele>
  <time>2026-09-01T01:14:35Z</time>
  <course>54.89</course>
  <speed>0.9765244492586962</speed>
  <fix>3d</fix>
</trkpt>
<trkpt lat="33.8110904" lon="-118.3932264">
  <ele>-24.38</ele>
  <time>2026-09-01T01:14:35Z</time>
  <course>53.52</course>
  <speed>0.99</speed>
  <fix>3d</fix>
</trkpt>
<trkpt lat="33.8110913" lon="-118.3932244">
  <ele>-24.983</ele>
  <time>2026-09-01T01:14:35Z</time>
  <course>54.88</course>
  <speed>0.9765244492586962</speed>
  <fix>3d</fix>
</trkpt>
<trkpt lat="33.8110904" lon="-118.3932264">
  <ele>-24.38</ele>
  <time>2026-09-01T01:14:35Z</time>
  <course>53.52</course>
  <speed>0.99</speed>
  <fix>3d</fix>
</trkpt>
<trkpt lat="33.8110919" lon="-118.3932235">
  <ele>-24.983</ele>
  <time>2026-09-01T01:14:35Z</time>
  <course>54.88</course>
  <speed>0.9765244492586962</speed>
  <fix>3d</fix>
</trkpt>
<trkpt lat="33.8110914" lon="-118.3932246">
  <ele>-24.38</ele>
  <time>2026-09-01T01:14:35Z</time>
  <course>53.52</course>
  <speed>0.99</speed>
  <fix>3d</fix>
</trkpt>
<trkpt lat="33.8110924" lon="-118.3932226">
  <ele>-24.984</ele>
  <time>2026-09-01T01:14:35Z</time>
  <course>54.89</course>
  <speed>0.9765244492586962</speed>
  <fix>3d</fix>
</trkpt>
<trkpt lat="33.8110914" lon="-118.3932246">
  <ele>-24.38</ele>
  <time>2026-09-01T01:14:35Z</time>
  <course>53.52</course>
  <speed>0.99</speed>
  <fix>3d</fix>
</trkpt>
<trkpt lat="33.8110929" lon="-118.3932217">
  <ele>-24.983</ele>
  <time>2026-09-01T01:14:35Z</time>
  <course>54.88</course>
  <speed>0.9765244492586962</speed>
  <fix>3d</fix>
</trkpt>
<trkpt lat="33.8110925" lon="-118.3932229">
  <ele>-24.38</ele>
  <time>2026-09-01T01:14:35Z</time>
  <course>53.51</course>
  <speed>0.99</speed>
  <fix>3d</fix>
</trkpt>
<trkpt lat="33.8110935" lon="-118.3932209">
  <ele>-24.984</ele>
  <time>2026-09-01T01:14:35Z</time>
  <course>54.86</course>
  <speed>0.9765244492586962</speed>
  <fix>3d</fix>
</trkpt>
<trkpt lat="33.8110925" lon="-118.3932229">
  <ele>-24.38</ele>
  <time>2026-09-01T01:14:35Z</time>
  <course>53.51</course>
  <speed>0.99</speed>
  <fix>3d</fix>
</trkpt>
<trkpt lat="33.811094" lon="-118.39322">
  <ele>-24.984</ele>
  <time>2026-09-01T01:14:35Z</time>
  <course>54.85</course>
  <speed>0.9765244492586962</speed>
  <fix>3d</fix>
</trkpt>
<trkpt lat="33.8110936" lon="-118.3932212">
  <ele>-24.38</ele>
  <time>2026-09-01T01:14:35Z</time>
  <course>53.48</course>
  <speed>0.99</speed>
  <fix>3d</fix>
</trkpt>
<trkpt lat="33.8110945" lon="-118.3932191">
  <ele>-24.984</ele>
  <time>2026-09-01T01:14:35Z</time>
  <course>54.84</course>
  <speed>0.9765244492586962</speed>
  <fix>3d</fix>
</trkpt>
<trkpt lat="33.8110936" lon="-118.3932212">
  <ele>-24.38</ele>
  <time>2026-09-01T01:14:35Z</time>
  <course>53.48</course>
  <speed>0.99</speed>
  <fix>3d</fix>
</trkpt>
<trkpt lat="33.8110951" lon="-118.3932183">
  <ele>-24.984</ele>
  <time>2026-09-01T01:14:35Z</time>
  <course>54.85</course>
  <speed>0.9765244492586962</speed>
  <fix>3d</fix>
</trkpt>
<trkpt lat="33.8110947" lon="-118.3932194">
  <ele>-24.38</ele>
  <time>2026-09-01T01:14:35Z</time>
  <course>53.5</course>
  <speed>0.99</speed>
  <fix>3d</fix>
</trkpt>
<trkpt lat="33.8110956" lon="-118.3932174">
  <ele>-24.984</ele>
  <time>2026-09-01T01:14:35Z</time>
  <course>54.87</course>
  <speed>0.9765244492586962</speed>
  <fix>3d</fix>
</trkpt>
<trkpt lat="33.8110947" lon="-118.3932194">
  <ele>-24.38</ele>
  <time>2026-09-01T01:14:35Z</time>
  <course>53.5</course>
  <speed>0.99</speed>
  <fix>3d</fix>
</trkpt>
<trkpt lat="33.8110961" lon="-118.3932165">
  <ele>-24.984</ele>
  <time>2026-09-01T01:14:35Z</time>
  <course>54.9</course>
  <speed>0.9765244492586962</speed>
  <fix>3d</fix>
</trkpt>
<trkpt lat="33.8110957" lon="-118.3932177">
  <ele>-24.38</ele>
  <time>2026-09-01T01:14:35Z</time>
  <course>53.55</course>
  <speed>0.99</speed>
  <fix>3d</fix>
</trkpt>
<trkpt lat="33.8110967" lon="-118.3932157">
  <ele>-24.984</ele>
  <time>2026-09-01T01:14:35Z</time>
  <course>54.92</course>
  <speed>0.9765244492586962</speed>
  <fix>3d</fix>
</trkpt>
<trkpt lat="33.8110957" lon="-118.3932177">
  <ele>-24.38</ele>
  <time>2026-09-01T01:14:35Z</time>
  <course>53.55</course>
  <speed>0.99</speed>
  <fix>3d</fix>
</trkpt>
<trkpt lat="33.8110972" lon="-118.3932148">
  <ele>-24.984</ele>
  <time>2026-09-01T01:14:35Z</time>
  <course>54.94</course>
  <speed>0.9765244492586962</speed>
  <fix>3d</fix>
</trkpt>
<trkpt lat="33.8110968" lon="-118.3932159">
  <ele>-24.38</ele>
  <time>2026-09-01T01:14:35Z</time>
  <course>53.57</course>
  <speed>0.99</speed>
  <fix>3d</fix>
</trkpt>
<trkpt lat="33.8110977" lon="-118.3932139">
  <ele>-24.984</ele>
  <time>2026-09-01T01:14:35Z</time>
  <course>54.94</course>
  <speed>0.9765244492586962</speed>
  <fix>3d</fix>
</trkpt>
<trkpt lat="33.8110968" lon="-118.3932159">
  <ele>-24.38</ele>
  <time>2026-09-01T01:14:35Z</time>
  <course>53.57</course>
  <speed>0.99</speed>
  <fix>3d</fix>
</trkpt>
<trkpt lat="33.8110983" lon="-118.393213">
  <ele>-24.983</ele>
  <time>2026-09-01T01:14:35Z</time>
  <course>54.94</course>
  <speed>0.9765244492586962</speed>
  <fix>3d</fix>
</trkpt>
<trkpt lat="33.8110979" lon="-118.3932142">
  <ele>-24.38</ele>
  <time>2026-09-01T01:14:35Z</time>
  <course>53.56</course>
  <speed>0.99</speed>
  <fix>3d</fix>
</trkpt>
<trkpt lat="33.8110988" lon="-118.3932122">
  <ele>-24.983</ele>
  <time>2026-09-01T01:14:35Z</time>
  <course>54.93</course>
  <speed>0.9765244492586962</speed>
  <fix>3d</fix>
</trkpt>
<trkpt lat="33.8110979" lon="-118.3932142">
  <ele>-24.38</ele>
  <time>2026-09-01T01:14:35Z</time>
  <course>53.56</course>
  <speed>0.99</speed>
  <fix>3d</fix>
</trkpt>
<trkpt lat="33.8110993" lon="-118.3932113">
  <ele>-24.982</ele>
  <time>2026-09-01T01:14:35Z</time>
  <course>54.94</course>
  <speed>0.9765244492586962</speed>
  <fix>3d</fix>
</trkpt>
<trkpt lat="33.8110989" lon="-118.3932125">
  <ele>-24.38</ele>
  <time>2026-09-01T01:14:35Z</time>
  <course>53.57</course>
  <speed>0.99</speed>
  <fix>3d</fix>
</trkpt>
<trkpt lat="33.8110999" lon="-118.3932104">
  <ele>-24.982</ele>
  <time>2026-09-01T01:14:35Z</time>
  <course>54.94</course>
  <speed>0.9765244492586962</speed>
  <fix>3d</fix>
</trkpt>
<trkpt lat="33.8110989" lon="-118.3932125">
  <ele>-24.38</ele>
  <time>2026-09-01T01:14:35Z</time>
  <course>53.57</course>
  <speed>0.99</speed>
  <fix>3d</fix>
</trkpt>
<trkpt lat="33.8111004" lon="-118.3932096">
  <ele>-24.983</ele>
  <time>2026-09-01T01:14:35Z</time>
  <course>54.95</course>
  <speed>0.9765244492586962</speed>
  <fix>3d</fix>
</trkpt>
<trkpt lat="33.8111" lon="-118.3932107">
  <ele>-24.38</ele>
  <time>2026-09-01T01:14:35Z</time>
  <course>53.58</course>
  <speed>0.99</speed>
  <fix>3d</fix>
</trkpt>
<trkpt lat="33.811101" lon="-118.3932087">
  <ele>-24.984</ele>
  <time>2026-09-01T01:14:35Z</time>
  <course>54.94</course>
  <speed>0.9765244492586962</speed>
  <fix>3d</fix>
</trkpt>
<trkpt lat="33.8111" lon="-118.3932107">
  <ele>-24.38</ele>
  <time>2026-09-01T01:14:35Z</time>
  <course>53.58</course>
  <speed>0.99</speed>
  <fix>3d</fix>
</trkpt>
<trkpt lat="33.8111015" lon="-118.3932078">
  <ele>-24.985</ele>
  <time>2026-09-01T01:14:35Z</time>
  <course>54.94</course>
  <speed>0.9765244492586962</speed>
  <fix>3d</fix>
</trkpt>
<trkpt lat="33.8111011" lon="-118.3932089">
  <ele>-24.38</ele>
  <time>2026-09-01T01:14:35Z</time>
  <course>53.57</course>
  <speed>0.99</speed>
  <fix>3d</fix>
</trkpt>
<trkpt lat="33.811102" lon="-118.3932069">
  <ele>-24.986</ele>
  <time>2026-09-01T01:14:35Z</time>
  <course>54.92</course>
  <speed>0.9765244492586962</speed>
  <fix>3d</fix>
</trkpt>
<trkpt lat="33.8111011" lon="-118.3932089">
  <ele>-24.38</ele>
  <time>2026-09-01T01:14:35Z</time>
  <course>53.57</course>
  <speed>0.99</speed>
  <fix>3d</fix>
</trkpt>
<trkpt lat="33.8111026" lon="-118.3932061">
  <ele>-24.987</ele>
  <time>2026-09-01T01:14:35Z</time>
  <course>54.91</course>
  <speed>0.9765244492586962</speed>
  <fix>3d</fix>
</trkpt>
<trkpt lat="33.8111021" lon="-118.3932072">
  <ele>-24.38</ele>
  <time>2026-09-01T01:14:35Z</time>
  <course>53.55</course>
  <speed>0.99</speed>
  <fix>3d</fix>
</trkpt>
<trkpt lat="33.8111031" lon="-118.3932052">
  <ele>-24.987</ele>
  <time>2026-09-01T01:14:35Z</time>
  <course>54.9</course>
  <speed>0.9765244492586962</speed>
  <fix>3d</fix>
</trkpt>
<trkpt lat="33.8111021" lon="-118.3932072">
  <ele>-24.38</ele>
  <time>2026-09-01T01:14:35Z</time>
  <course>53.55</course>
  <speed>0.99</speed>
  <fix>3d</fix>
</trkpt>
<trkpt lat="33.8111036" lon="-118.3932043">
  <ele>-24.986</ele>
  <time>2026-09-01T01:14:35Z</time>
  <course>54.88</course>
  <speed>0.9765244492586962</speed>
  <fix>3d</fix>
</trkpt>
<trkpt lat="33.8111032" lon="-118.3932055">
  <ele>-24.38</ele>
  <time>2026-09-01T01:14:35Z</time>
  <course>53.5</course>
  <speed>0.99</speed>
  <fix>3d</fix>
</trkpt>
<trkpt lat="33.8111042" lon="-118.3932035">
  <ele>-24.986</ele>
  <time>2026-09-01T01:14:35Z</time>
  <course>54.85</course>
  <speed>0.9765244492586962</speed>
  <fix>3d</fix>
</trkpt>
<trkpt lat="33.8111032" lon="-118.3932055">
  <ele>-24.38</ele>
  <time>2026-09-01T01:14:35Z</time>
  <course>53.5</course>
  <speed>0.99</speed>
  <fix>3d</fix>
</trkpt>
<trkpt lat="33.8111047" lon="-118.3932026">
  <ele>-24.986</ele>
  <time>2026-09-01T01:14:35Z</time>
  <course>54.84</course>
  <speed>0.9765244492586962</speed>
  <fix>3d</fix>
</trkpt>
<trkpt lat="33.8111042" lon="-118.3932038">
  <ele>-24.38</ele>
  <time>2026-09-01T01:14:35Z</time>
  <course>53.46</course>
  <speed>0.99</speed>
  <fix>3d</fix>
</trkpt>
<trkpt lat="33.8111052" lon="-118.3932017">
  <ele>-24.987</ele>
  <time>2026-09-01T01:14:35Z</time>
  <course>54.84</course>
  <speed>0.9765244492586962</speed>
  <fix>3d</fix>
</trkpt>
<trkpt lat="33.8111042" lon="-118.3932038">
  <ele>-24.38</ele>
  <time>2026-09-01T01:14:35Z</time>
  <course>53.46</course>
  <speed>0.99</speed>
  <fix>3d</fix>
</trkpt>
<trkpt lat="33.8111058" lon="-118.3932009">
  <ele>-24.988</ele>
  <time>2026-09-01T01:14:35Z</time>
  <course>54.82</course>
  <speed>0.9765244492586962</speed>
  <fix>3d</fix>
</trkpt>
<trkpt lat="33.8111053" lon="-118.393202">
  <ele>-24.38</ele>
  <time>2026-09-01T01:14:35Z</time>
  <course>53.45</course>
  <speed>0.99</speed>
  <fix>3d</fix>
</trkpt>
<trkpt lat="33.8111063" lon="-118.3932">
  <ele>-24.988</ele>
  <time>2026-09-01T01:14:35Z</time>
  <course>54.81</course>
  <speed>0.9765244492586962</speed>
  <fix>3d</fix>
</trkpt>
<trkpt lat="33.8111053" lon="-118.393202">
  <ele>-24.38</ele>
  <time>2026-09-01T01:14:35Z</time>
  <course>53.45</course>
  <speed>0.99</speed>
  <fix>3d</fix>
</trkpt>
<trkpt lat="33.8111068" lon="-118.3931991">
  <ele>-24.988</ele>
  <time>2026-09-01T01:14:35Z</time>
  <course>54.79</course>
  <speed>0.9765244492586962</speed>
  <fix>3d</fix>
</trkpt>
<trkpt lat="33.8111064" lon="-118.3932003">
  <ele>-24.37</ele>
  <time>2026-09-01T01:14:35Z</time>
  <course>53.44</course>
  <speed>0.99</speed>
  <fix>3d</fix>
</trkpt>
<trkpt lat="33.8111074" lon="-118.3931982">
  <ele>-24.987</ele>
  <time>2026-09-01T01:14:35Z</time>
  <course>54.77</course>
  <speed>0.9765244492586962</speed>
  <fix>3d</fix>
</trkpt>
<trkpt lat="33.8111064" lon="-118.3932003">
  <ele>-24.37</ele>
  <time>2026-09-01T01:14:35Z</time>
  <course>53.44</course>
  <speed>0.99</speed>
  <fix>3d</fix>
</trkpt>
<trkpt lat="33.8111079" lon="-118.3931974">
  <ele>-24.985</ele>
  <time>2026-09-01T01:14:35Z</time>
  <course>54.77</course>
  <speed>0.9765244492586962</speed>
  <fix>3d</fix>
</trkpt>
<trkpt lat="33.8111074" lon="-118.3931986">
  <ele>-24.37</ele>
  <time>2026-09-01T01:14:35Z</time>
  <course>53.43</course>
  <speed>0.99</speed>
  <fix>3d</fix>
</trkpt>
<trkpt lat="33.8111084" lon="-118.3931965">
  <ele>-24.982</ele>
  <time>2026-09-01T01:14:35Z</time>
  <course>54.77</course>
  <speed>0.9765244492586962</speed>
  <fix>3d</fix>
</trkpt>
<trkpt lat="33.8111074" lon="-118.3931986">
  <ele>-24.37</ele>
  <time>2026-09-01T01:14:35Z</time>
  <course>53.43</course>
  <speed>0.99</speed>
  <fix>3d</fix>
</trkpt>
<trkpt lat="33.811109" lon="-118.3931956">
  <ele>-24.979</ele>
  <time>2026-09-01T01:14:35Z</time>
  <course>54.78</course>
  <speed>0.9765244492586962</speed>
  <fix>3d</fix>
</trkpt>
<trkpt lat="33.8111085" lon="-118.3931968">
  <ele>-24.37</ele>
  <time>2026-09-01T01:14:35Z</time>
  <course>53.43</course>
  <speed>0.99</speed>
  <fix>3d</fix>
</trkpt>
<trkpt lat="33.8111095" lon="-118.3931948">
  <ele>-24.978</ele>
  <time>2026-09-01T01:14:35Z</time>
  <course>54.77</course>
  <speed>0.9765244492586962</speed>
  <fix>3d</fix>
</trkpt>
<trkpt lat="33.8111085" lon="-118.3931968">
  <ele>-24.37</ele>
  <time>2026-09-01T01:14:35Z</time>
  <course>53.43</course>
  <speed>0.99</speed>
  <fix>3d</fix>
</trkpt>
<trkpt lat="33.81111" lon="-118.3931939">
  <ele>-24.978</ele>
  <time>2026-09-01T01:14:35Z</time>
  <course>54.77</course>
  <speed>0.9765244492586962</speed>
  <fix>3d</fix>
</trkpt>
<trkpt lat="33.8111096" lon="-118.3931951">
  <ele>-24.37</ele>
  <time>2026-09-01T01:14:35Z</time>
  <course>53.41</course>
  <speed>0.99</speed>
  <fix>3d</fix>
</trkpt>
<trkpt lat="33.8111106" lon="-118.393193">
  <ele>-24.979</ele>
  <time>2026-09-01T01:14:35Z</time>
  <course>54.76</course>
  <speed>0.9765244492586962</speed>
  <fix>3d</fix>
</trkpt>
<trkpt lat="33.8111096" lon="-118.3931951">
  <ele>-24.37</ele>
  <time>2026-09-01T01:14:35Z</time>
  <course>53.41</course>
  <speed>0.99</speed>
  <fix>3d</fix>
</trkpt>
<trkpt lat="33.8111111" lon="-118.3931922">
  <ele>-24.98</ele>
  <time>2026-09-01T01:14:35Z</time>
  <course>54.77</course>
  <speed>0.9765244492586962</speed>
  <fix>3d</fix>
</trkpt>
<trkpt lat="33.8111107" lon="-118.3931934">
  <ele>-24.37</ele>
  <time>2026-09-01T01:14:35Z</time>
  <course>53.41</course>
  <speed>0.99</speed>
  <fix>3d</fix>
</trkpt>
<trkpt lat="33.8111116" lon="-118.3931913">
  <ele>-24.982</ele>
  <time>2026-09-01T01:14:35Z</time>
  <course>54.79</course>
  <speed>0.9765244492586962</speed>
  <fix>3d</fix>
</trkpt>
<trkpt lat="33.8111107" lon="-118.3931934">
  <ele>-24.37</ele>
  <time>2026-09-01T01:14:35Z</time>
  <course>53.41</course>
  <speed>0.99</speed>
  <fix>3d</fix>
</trkpt>
<trkpt lat="33.8111122" lon="-118.3931904">
  <ele>-24.982</ele>
  <time>2026-09-01T01:14:35Z</time>
  <course>54.82</course>
  <speed>0.9765244492586962</speed>
  <fix>3d</fix>
</trkpt>
<trkpt lat="33.8111117" lon="-118.3931916">
  <ele>-24.37</ele>
  <time>2026-09-01T01:14:35Z</time>
  <course>53.45</course>
  <speed>0.99</speed>
  <fix>3d</fix>
</trkpt>
<trkpt lat="33.8111127" lon="-118.3931896">
  <ele>-24.982</ele>
  <time>2026-09-01T01:14:35Z</time>
  <course>54.85</course>
  <speed>0.9765244492586962</speed>
  <fix>3d</fix>
</trkpt>
<trkpt lat="33.8111117" lon="-118.3931916">
  <ele>-24.37</ele>
  <time>2026-09-01T01:14:35Z</time>
  <course>53.45</course>
  <speed>0.99</speed>
  <fix>3d</fix>
</trkpt>
<trkpt lat="33.8111132" lon="-118.3931887">
  <ele>-24.981</ele>
  <time>2026-09-01T01:14:35Z</time>
  <course>54.87</course>
  <speed>0.9765244492586962</speed>
  <fix>3d</fix>
</trkpt>
<trkpt lat="33.8111128" lon="-118.3931899">
  <ele>-24.37</ele>
  <time>2026-09-01T01:14:35Z</time>
  <course>53.48</course>
  <speed>1.0</speed>
  <fix>3d</fix>
</trkpt>
<trkpt lat="33.8111138" lon="-118.3931878">
  <ele>-24.981</ele>
  <time>2026-09-01T01:14:35Z</time>
  <course>54.88</course>
  <speed>0.9765244492586962</speed>
  <fix>3d</fix>
</trkpt>
<trkpt lat="33.8111128" lon="-118.3931899">
  <ele>-24.37</ele>
  <time>2026-09-01T01:14:35Z</time>
  <course>53.48</course>
  <speed>1.0</speed>
  <fix>3d</fix>
</trkpt>
<trkpt lat="33.8111143" lon="-118.3931869">
  <ele>-24.981</ele>
  <time>2026-09-01T01:14:35Z</time>
  <course>54.88</course>
  <speed>0.9765244492586962</speed>
  <fix>3d</fix>
</trkpt>
<trkpt lat="33.8111138" lon="-118.3931882">
  <ele>-24.37</ele>
  <time>2026-09-01T01:14:35Z</time>
  <course>53.47</course>
  <speed>1.0</speed>
  <fix>3d</fix>
</trkpt>
<trkpt lat="33.8111148" lon="-118.3931861">
  <ele>-24.981</ele>
  <time>2026-09-01T01:14:35Z</time>
  <course>54.89</course>
  <speed>0.9765244492586962</speed>
  <fix>3d</fix>
</trkpt>
<trkpt lat="33.8111138" lon="-118.3931882">
  <ele>-24.37</ele>
  <time>2026-09-01T01:14:35Z</time>
  <course>53.47</course>
  <speed>1.0</speed>
  <fix>3d</fix>
</trkpt>
<trkpt lat="33.8111154" lon="-118.3931852">
  <ele>-24.982</ele>
  <time>2026-09-01T01:14:35Z</time>
  <course>54.89</course>
  <speed>0.9765244492586962</speed>
  <fix>3d</fix>
</trkpt>
<trkpt lat="33.8111149" lon="-118.3931864">
  <ele>-24.37</ele>
  <time>2026-09-01T01:14:35Z</time>
  <course>53.47</course>
  <speed>1.0</speed>
  <fix>3d</fix>
</trkpt>
<trkpt lat="33.8111159" lon="-118.3931843">
  <ele>-24.983</ele>
  <time>2026-09-01T01:14:35Z</time>
  <course>54.88</course>
  <speed>0.9765244492586962</speed>
  <fix>3d</fix>
</trkpt>
<trkpt lat="33.8111149" lon="-118.3931864">
  <ele>-24.37</ele>
  <time>2026-09-01T01:14:35Z</time>
  <course>53.47</course>
  <speed>1.0</speed>
  <fix>3d</fix>
</trkpt>
<trkpt lat="33.8111164" lon="-118.3931835">
  <ele>-24.983</ele>
  <time>2026-09-01T01:14:35Z</time>
  <course>54.86</course>
  <speed>0.9765244492586962</speed>
  <fix>3d</fix>
</trkpt>
<trkpt lat="33.811116" lon="-118.3931847">
  <ele>-24.37</ele>
  <time>2026-09-01T01:14:35Z</time>
  <course>53.46</course>
  <speed>1.0</speed>
  <fix>3d</fix>
</trkpt>
<trkpt lat="33.811117" lon="-118.3931826">
  <ele>-24.983</ele>
  <time>2026-09-01T01:14:35Z</time>
  <course>54.86</course>
  <speed>0.9765244492586962</speed>
  <fix>3d</fix>
</trkpt>
<trkpt lat="33.811116" lon="-118.3931847">
  <ele>-24.37</ele>
  <time>2026-09-01T01:14:35Z</time>
  <course>53.46</course>
  <speed>1.0</speed>
  <fix>3d</fix>
</trkpt>
<trkpt lat="33.8111175" lon="-118.3931817">
  <ele>-24.984</ele>
  <time>2026-09-01T01:14:35Z</time>
  <course>54.86</course>
  <speed>0.9765244492586962</speed>
  <fix>3d</fix>
</trkpt>
<trkpt lat="33.8111171" lon="-118.3931829">
  <ele>-24.37</ele>
  <time>2026-09-01T01:14:35Z</time>
  <course>53.44</course>
  <speed>1.0</speed>
  <fix>3d</fix>
</trkpt>
<trkpt lat="33.8111181" lon="-118.3931809">
  <ele>-24.985</ele>
  <time>2026-09-01T01:14:35Z</time>
  <course>54.86</course>
  <speed>0.9765244492586962</speed>
  <fix>3d</fix>
</trkpt>
<trkpt lat="33.8111171" lon="-118.3931829">
  <ele>-24.37</ele>
  <time>2026-09-01T01:14:35Z</time>
  <course>53.44</course>
  <speed>1.0</speed>
  <fix>3d</fix>
</trkpt>
<trkpt lat="33.8111186" lon="-118.39318">
  <ele>-24.986</ele>
  <time>2026-09-01T01:14:35Z</time>
  <course>54.87</course>
  <speed>0.9765244492586962</speed>
  <fix>3d</fix>
</trkpt>
<trkpt lat="33.8111181" lon="-118.3931812">
  <ele>-24.38</ele>
  <time>2026-09-01T01:14:35Z</time>
  <course>53.46</course>
  <speed>1.0</speed>
  <fix>3d</fix>
</trkpt>
<trkpt lat="33.8111191" lon="-118.3931791">
  <ele>-24.986</ele>
  <time>2026-09-01T01:14:35Z</time>
  <course>54.87</course>
  <speed>0.9765244492586962</speed>
  <fix>3d</fix>
</trkpt>
<trkpt lat="33.8111181" lon="-118.3931812">
  <ele>-24.38</ele>
  <time>2026-09-01T01:14:35Z</time>
  <course>53.46</course>
  <speed>1.0</speed>
  <fix>3d</fix>
</trkpt>
<trkpt lat="33.8111197" lon="-118.3931783">
  <ele>-24.985</ele>
  <time>2026-09-01T01:14:35Z</time>
  <course>54.88</course>
  <speed>0.9765244492586962</speed>
  <fix>3d</fix>
</trkpt>
<trkpt lat="33.8111192" lon="-118.3931795">
  <ele>-24.37</ele>
  <time>2026-09-01T01:14:35Z</time>
  <course>53.47</course>
  <speed>1.0</speed>
  <fix>3d</fix>
</trkpt>
<trkpt lat="33.8111202" lon="-118.3931774">
  <ele>-24.983</ele>
  <time>2026-09-01T01:14:35Z</time>
  <course>54.87</course>
  <speed>0.9765244492586962</speed>
  <fix>3d</fix>
</trkpt>
<trkpt lat="33.8111192" lon="-118.3931795">
  <ele>-24.37</ele>
  <time>2026-09-01T01:14:35Z</time>
  <course>53.47</course>
  <speed>1.0</speed>
  <fix>3d</fix>
</trkpt>
<trkpt lat="33.8111207" lon="-118.3931765">
  <ele>-24.981</ele>
  <time>2026-09-01T01:14:35Z</time>
  <course>54.88</course>
  <speed>0.9765244492586962</speed>
  <fix>3d</fix>
</trkpt>
<trkpt lat="33.8111203" lon="-118.3931777">
  <ele>-24.37</ele>
  <time>2026-09-01T01:14:35Z</time>
  <course>53.48</course>
  <speed>1.0</speed>
  <fix>3d</fix>
</trkpt>
<trkpt lat="33.8111213" lon="-118.3931756">
  <ele>-24.98</ele>
  <time>2026-09-01T01:14:35Z</time>
  <course>54.88</course>
  <speed>0.9765244492586962</speed>
  <fix>3d</fix>
</trkpt>
<trkpt lat="33.8111203" lon="-118.3931777">
  <ele>-24.37</ele>
  <time>2026-09-01T01:14:35Z</time>
  <course>53.48</course>
  <speed>1.0</speed>
  <fix>3d</fix>
</trkpt>
<trkpt lat="33.8111218" lon="-118.3931748">
  <ele>-24.98</ele>
  <time>2026-09-01T01:14:35Z</time>
  <course>54.89</course>
  <speed>0.9765244492586962</speed>
  <fix>3d</fix>
</trkpt>
<trkpt lat="33.8111214" lon="-118.393176">
  <ele>-24.37</ele>
  <time>2026-09-01T01:14:35Z</time>
  <course>53.5</course>
  <speed>1.0</speed>
  <fix>3d</fix>
</trkpt>
<trkpt lat="33.8111223" lon="-118.3931739">
  <ele>-24.979</ele>
  <time>2026-09-01T01:14:35Z</time>
  <course>54.9</course>
  <speed>0.9765244492586962</speed>
  <fix>3d</fix>
</trkpt>
<trkpt lat="33.8111214" lon="-118.393176">
  <ele>-24.37</ele>
  <time>2026-09-01T01:14:35Z</time>
  <course>53.5</course>
  <speed>1.0</speed>
  <fix>3d</fix>
</trkpt>
<trkpt lat="33.8111229" lon="-118.393173">
  <ele>-24.979</ele>
  <time>2026-09-01T01:14:35Z</time>
  <course>54.93</course>
  <speed>0.9765244492586962</speed>
  <fix>3d</fix>
</trkpt>
<trkpt lat="33.8111224" lon="-118.3931742">
  <ele>-24.37</ele>
  <time>2026-09-01T01:14:35Z</time>
  <course>53.54</course>
  <speed>1.0</speed>
  <fix>3d</fix>
</trkpt>
<trkpt lat="33.8111234" lon="-118.3931722">
  <ele>-24.98</ele>
  <time>2026-09-01T01:14:35Z</time>
  <course>54.95</course>
  <speed>0.9765244492586962</speed>
  <fix>3d</fix>
</trkpt>
<trkpt lat="33.8111224" lon="-118.3931742">
  <ele>-24.37</ele>
  <time>2026-09-01T01:14:35Z</time>
  <course>53.54</course>
  <speed>1.0</speed>
  <fix>3d</fix>
</trkpt>
<trkpt lat="33.8111239" lon="-118.3931713">
  <ele>-24.982</ele>
  <time>2026-09-01T01:14:35Z</time>
  <course>54.95</course>
  <speed>0.9765244492586962</speed>
  <fix>3d</fix>
</trkpt>
<trkpt lat="33.8111235" lon="-118.3931725">
  <ele>-24.37</ele>
  <time>2026-09-01T01:14:35Z</time>
  <course>53.55</course>
  <speed>1.0</speed>
  <fix>3d</fix>
</trkpt>
<trkpt lat="33.8111245" lon="-118.3931704">
  <ele>-24.983</ele>
  <time>2026-09-01T01:14:35Z</time>
  <course>54.95</course>
  <speed>0.9765244492586962</speed>
  <fix>3d</fix>
</trkpt>
<trkpt lat="33.8111235" lon="-118.3931725">
  <ele>-24.37</ele>
  <time>2026-09-01T01:14:35Z</time>
  <course>53.55</course>
  <speed>1.0</speed>
  <fix>3d</fix>
</trkpt>
<trkpt lat="33.811125" lon="-118.3931695">
  <ele>-24.985</ele>
  <time>2026-09-01T01:14:35Z</time>
  <course>54.95</course>
  <speed>0.9765244492586962</speed>
  <fix>3d</fix>
</trkpt>
<trkpt lat="33.8111246" lon="-118.3931707">
  <ele>-24.38</ele>
  <time>2026-09-01T01:14:35Z</time>
  <course>53.54</course>
  <speed>1.0</speed>
  <fix>3d</fix>
</trkpt>
<trkpt lat="33.8111256" lon="-118.3931687">
  <ele>-24.986</ele>
  <time>2026-09-01T01:14:35Z</time>
  <course>54.95</course>
  <speed>0.9765244492586962</speed>
  <fix>3d</fix>
</trkpt>
<trkpt lat="33.8111246" lon="-118.3931707">
  <ele>-24.38</ele>
  <time>2026-09-01T01:14:35Z</time>
  <course>53.54</course>
  <speed>1.0</speed>
  <fix>3d</fix>
</trkpt>
<trkpt lat="33.8111261" lon="-118.3931678">
  <ele>-24.986</ele>
  <time>2026-09-01T01:14:35Z</time>
  <course>54.95</course>
  <speed>0.9765244492586962</speed>
  <fix>3d</fix>
</trkpt>
<trkpt lat="33.8111257" lon="-118.393169">
  <ele>-24.38</ele>
  <time>2026-09-01T01:14:35Z</time>
  <course>53.53</course>
  <speed>1.0</speed>
  <fix>3d</fix>
</trkpt>
<trkpt lat="33.8111266" lon="-118.3931669">
  <ele>-24.986</ele>
  <time>2026-09-01T01:14:35Z</time>
  <course>54.96</course>
  <speed>0.9765244492586962</speed>
  <fix>3d</fix>
</trkpt>
<trkpt lat="33.8111257" lon="-118.393169">
  <ele>-24.38</ele>
  <time>2026-09-01T01:14:35Z</time>
  <course>53.53</course>
  <speed>1.0</speed>
  <fix>3d</fix>
</trkpt>
<trkpt lat="33.8111272" lon="-118.3931661">
  <ele>-24.986</ele>
  <time>2026-09-01T01:14:35Z</time>
  <course>54.98</course>
  <speed>0.9765244492586962</speed>
  <fix>3d</fix>
</trkpt>
<trkpt lat="33.8111267" lon="-118.3931672">
  <ele>-24.38</ele>
  <time>2026-09-01T01:14:35Z</time>
  <course>53.54</course>
  <speed>1.0</speed>
  <fix>3d</fix>
</trkpt>
<trkpt lat="33.8111277" lon="-118.3931652">
  <ele>-24.984</ele>
  <time>2026-09-01T01:14:35Z</time>
  <course>54.99</course>
  <speed>0.9765244492586962</speed>
  <fix>3d</fix>
</trkpt>
<trkpt lat="33.8111267" lon="-118.3931672">
  <ele>-24.38</ele>
  <time>2026-09-01T01:14:35Z</time>
  <course>53.54</course>
  <speed>1.0</speed>
  <fix>3d</fix>
</trkpt>
<trkpt lat="33.8111282" lon="-118.3931643">
  <ele>-24.982</ele>
  <time>2026-09-01T01:14:35Z</time>
  <course>54.99</course>
  <speed>0.9765244492586962</speed>
  <fix>3d</fix>
</trkpt>
<trkpt lat="33.8111278" lon="-118.3931655">
  <ele>-24.37</ele>
  <time>2026-09-01T01:14:35Z</time>
  <course>53.55</course>
  <speed>1.0</speed>
  <fix>3d</fix>
</trkpt>
<trkpt lat="33.8111288" lon="-118.3931634">
  <ele>-24.98</ele>
  <time>2026-09-01T01:14:35Z</time>
  <course>54.98</course>
  <speed>0.9765244492586962</speed>
  <fix>3d</fix>
</trkpt>
<trkpt lat="33.8111278" lon="-118.3931655">
  <ele>-24.37</ele>
  <time>2026-09-01T01:14:35Z</time>
  <course>53.55</course>
  <speed>1.0</speed>
  <fix>3d</fix>
</trkpt>
<trkpt lat="33.8111293" lon="-118.3931626">
  <ele>-24.978</ele>
  <time>2026-09-01T01:14:35Z</time>
  <course>54.97</course>
  <speed>0.9765244492586962</speed>
  <fix>3d</fix>
</trkpt>
<trkpt lat="33.8111289" lon="-118.3931638">
  <ele>-24.37</ele>
  <time>2026-09-01T01:14:35Z</time>
  <course>53.54</course>
  <speed>1.0</speed>
  <fix>3d</fix>
</trkpt>
<trkpt lat="33.8111298" lon="-118.3931617">
  <ele>-24.976</ele>
  <time>2026-09-01T01:14:35Z</time>
  <course>54.97</course>
  <speed>0.9765244492586962</speed>
  <fix>3d</fix>
</trkpt>
<trkpt lat="33.8111289" lon="-118.3931638">
  <ele>-24.37</ele>
  <time>2026-09-01T01:14:35Z</time>
  <course>53.54</course>
  <speed>1.0</speed>
  <fix>3d</fix>
</trkpt>
<trkpt lat="33.8111304" lon="-118.3931608">
  <ele>-24.975</ele>
  <time>2026-09-01T01:14:35Z</time>
  <course>54.99</course>
  <speed>0.9765244492586962</speed>
  <fix>3d</fix>
</trkpt>
<trkpt lat="33.8111299" lon="-118.393162">
  <ele>-24.37</ele>
  <time>2026-09-01T01:14:35Z</time>
  <course>53.56</course>
  <speed>1.0</speed>
  <fix>3d</fix>
</trkpt>
<trkpt lat="33.8111309" lon="-118.39316">
  <ele>-24.976</ele>
  <time>2026-09-01T01:14:35Z</time>
  <course>55.0</course>
  <speed>0.9765244492586962</speed>
  <fix>3d</fix>
</trkpt>
<trkpt lat="33.8111299" lon="-118.393162">
  <ele>-24.37</ele>
  <time>2026-09-01T01:14:35Z</time>
  <course>53.56</course>
  <speed>1.0</speed>
  <fix>3d</fix>
</trkpt>
<trkpt lat="33.8111314" lon="-118.3931591">
  <ele>-24.978</ele>
  <time>2026-09-01T01:14:35Z</time>
  <course>55.01</course>
  <speed>0.9765244492586962</speed>
  <fix>3d</fix>
</trkpt>
<trkpt lat="33.811131" lon="-118.3931603">
  <ele>-24.37</ele>
  <time>2026-09-01T01:14:35Z</time>
  <course>53.58</course>
  <speed>0.99</speed>
  <fix>3d</fix>
</trkpt>
<trkpt lat="33.811132" lon="-118.3931582">
  <ele>-24.981</ele>
  <time>2026-09-01T01:14:35Z</time>
  <course>55.0</course>
  <speed>0.9765244492586962</speed>
  <fix>3d</fix>
</trkpt>
<trkpt lat="33.811131" lon="-118.3931603">
  <ele>-24.37</ele>
  <time>2026-09-01T01:14:35Z</time>
  <course>53.58</course>
  <speed>0.99</speed>
  <fix>3d</fix>
</trkpt>
<trkpt lat="33.8111325" lon="-118.3931574">
  <ele>-24.983</ele>
  <time>2026-09-01T01:14:35Z</time>
  <course>54.99</course>
  <speed>0.9765244492586962</speed>
  <fix>3d</fix>
</trkpt>
<trkpt lat="33.811132" lon="-118.3931586">
  <ele>-24.38</ele>
  <time>2026-09-01T01:14:35Z</time>
  <course>53.57</course>
  <speed>0.99</speed>
  <fix>3d</fix>
</trkpt>
<trkpt lat="33.811133" lon="-118.3931565">
  <ele>-24.984</ele>
  <time>2026-09-01T01:14:35Z</time>
  <course>54.97</course>
  <speed>0.9765244492586962</speed>
  <fix>3d</fix>
</trkpt>
<trkpt lat="33.811132" lon="-118.3931586">
  <ele>-24.38</ele>
  <time>2026-09-01T01:14:35Z</time>
  <course>53.57</course>
  <speed>0.99</speed>
  <fix>3d</fix>
</trkpt>
<trkpt lat="33.8111336" lon="-118.3931556">
  <ele>-24.985</ele>
  <time>2026-09-01T01:14:35Z</time>
  <course>54.96</course>
  <speed>0.9765244492586962</speed>
  <fix>3d</fix>
</trkpt>
<trkpt lat="33.8111331" lon="-118.3931568">
  <ele>-24.38</ele>
  <time>2026-09-01T01:14:35Z</time>
  <course>53.54</course>
  <speed>1.0</speed>
  <fix>3d</fix>
</trkpt>
<trkpt lat="33.8111341" lon="-118.3931547">
  <ele>-24.986</ele>
  <time>2026-09-01T01:14:35Z</time>
  <course>54.94</course>
  <speed>0.9765244492586962</speed>
  <fix>3d</fix>
</trkpt>
<trkpt lat="33.8111331" lon="-118.3931568">
  <ele>-24.38</ele>
  <time>2026-09-01T01:14:35Z</time>
  <course>53.54</course>
  <speed>1.0</speed>
  <fix>3d</fix>
</trkpt>
<trkpt lat="33.8111346" lon="-118.3931539">
  <ele>-24.986</ele>
  <time>2026-09-01T01:14:35Z</time>
  <course>54.92</course>
  <speed>0.9765244492586962</speed>
  <fix>3d</fix>
</trkpt>
<trkpt lat="33.8111342" lon="-118.3931551">
  <ele>-24.39</ele>
  <time>2026-09-01T01:14:35Z</time>
  <course>53.5</course>
  <speed>1.0</speed>
  <fix>3d</fix>
</trkpt>
<trkpt lat="33.8111352" lon="-118.393153">
  <ele>-24.986</ele>
  <time>2026-09-01T01:14:35Z</time>
  <course>54.91</course>
  <speed>0.9765244492586962</speed>
  <fix>3d</fix>
</trkpt>
<trkpt lat="33.8111342" lon="-118.3931551">
  <ele>-24.39</ele>
  <time>2026-09-01T01:14:35Z</time>
  <course>53.5</course>
  <speed>1.0</speed>
  <fix>3d</fix>
</trkpt>
<trkpt lat="33.8111357" lon="-118.3931521">
  <ele>-24.986</ele>
  <time>2026-09-01T01:14:35Z</time>
  <course>54.9</course>
  <speed>0.9765244492586962</speed>
  <fix>3d</fix>
</trkpt>
<trkpt lat="33.8111352" lon="-118.3931533">
  <ele>-24.39</ele>
  <time>2026-09-01T01:14:35Z</time>
  <course>53.49</course>
  <speed>1.0</speed>
  <fix>3d</fix>
</trkpt>
<trkpt lat="33.8111362" lon="-118.3931513">
  <ele>-24.986</ele>
  <time>2026-09-01T01:14:35Z</time>
  <course>54.88</course>
  <speed>0.9765244492586962</speed>
  <fix>3d</fix>
</trkpt>
<trkpt lat="33.8111352" lon="-118.3931533">
  <ele>-24.39</ele>
  <time>2026-09-01T01:14:35Z</time>
  <course>53.49</course>
  <speed>1.0</speed>
  <fix>3d</fix>
</trkpt>
<trkpt lat="33.8111368" lon="-118.3931504">
  <ele>-24.987</ele>
  <time>2026-09-01T01:14:35Z</time>
  <course>54.86</course>
  <speed>0.9765244492586962</speed>
  <fix>3d</fix>
</trkpt>
<trkpt lat="33.8111363" lon="-118.3931516">
  <ele>-24.39</ele>
  <time>2026-09-01T01:14:35Z</time>
  <course>53.48</course>
  <speed>1.0</speed>
  <fix>3d</fix>
</trkpt>
<trkpt lat="33.8111373" lon="-118.3931495">
  <ele>-24.987</ele>
  <time>2026-09-01T01:14:35Z</time>
  <course>54.83</course>
  <speed>0.9765244492586962</speed>
  <fix>3d</fix>
</trkpt>
<trkpt lat="33.8111363" lon="-118.3931516">
  <ele>-24.39</ele>
  <time>2026-09-01T01:14:35Z</time>
  <course>53.48</course>
  <speed>1.0</speed>
  <fix>3d</fix>
</trkpt>
<trkpt lat="33.8111378" lon="-118.3931487">
  <ele>-24.986</ele>
  <time>2026-09-01T01:14:35Z</time>
  <course>54.81</course>
  <speed>0.9765244492586962</speed>
  <fix>3d</fix>
</trkpt>
<trkpt lat="33.8111374" lon="-118.3931498">
  <ele>-24.38</ele>
  <time>2026-09-01T01:14:35Z</time>
  <course>53.43</course>
  <speed>1.0</speed>
  <fix>3d</fix>
</trkpt>
<trkpt lat="33.8111384" lon="-118.3931478">
  <ele>-24.986</ele>
  <time>2026-09-01T01:14:35Z</time>
  <course>54.79</course>
  <speed>0.9765244492586962</speed>
  <fix>3d</fix>
</trkpt>
<trkpt lat="33.8111374" lon="-118.3931498">
  <ele>-24.38</ele>
  <time>2026-09-01T01:14:35Z</time>
  <course>53.43</course>
  <speed>1.0</speed>
  <fix>3d</fix>
</trkpt>
<trkpt lat="33.8111389" lon="-118.3931469">
  <ele>-24.986</ele>
  <time>2026-09-01T01:14:35Z</time>
  <course>54.78</course>
  <speed>0.9765244492586962</speed>
  <fix>3d</fix>
</trkpt>
<trkpt lat="33.8111385" lon="-118.3931481">
  <ele>-24.38</ele>
  <time>2026-09-01T01:14:35Z</time>
  <course>53.4</course>
  <speed>1.0</speed>
  <fix>3d</fix>
</trkpt>
<trkpt lat="33.8111394" lon="-118.3931461">
  <ele>-24.986</ele>
  <time>2026-09-01T01:14:35Z</time>
  <course>54.78</course>
  <speed>0.9765244492586962</speed>
  <fix>3d</fix>
</trkpt>
<trkpt lat="33.8111385" lon="-118.3931481">
  <ele>-24.38</ele>
  <time>2026-09-01T01:14:35Z</time>
  <course>53.4</course>
  <speed>1.0</speed>
  <fix>3d</fix>
</trkpt>
<trkpt lat="33.81114" lon="-118.3931452">
  <ele>-24.986</ele>
  <time>2026-09-01T01:14:35Z</time>
  <course>54.79</course>
  <speed>0.9765244492586962</speed>
  <fix>3d</fix>
</trkpt>
<trkpt lat="33.8111396" lon="-118.3931464">
  <ele>-24.38</ele>
  <time>2026-09-01T01:14:35Z</time>
  <course>53.42</course>
  <speed>1.0</speed>
  <fix>3d</fix>
</trkpt>
<trkpt lat="33.8111405" lon="-118.3931443">
  <ele>-24.985</ele>
  <time>2026-09-01T01:14:35Z</time>
  <course>54.82</course>
  <speed>0.9765244492586962</speed>
  <fix>3d</fix>
</trkpt>
<trkpt lat="33.8111396" lon="-118.3931464">
  <ele>-24.38</ele>
  <time>2026-09-01T01:14:35Z</time>
  <course>53.42</course>
  <speed>1.0</speed>
  <fix>3d</fix>
</trkpt>
<trkpt lat="33.8111411" lon="-118.3931434">
  <ele>-24.984</ele>
  <time>2026-09-01T01:14:35Z</time>
  <course>54.86</course>
  <speed>0.9765244492586962</speed>
  <fix>3d</fix>
</trkpt>
<trkpt lat="33.8111406" lon="-118.3931446">
  <ele>-24.38</ele>
  <time>2026-09-01T01:14:35Z</time>
  <course>53.5</course>
  <speed>1.0</speed>
  <fix>3d</fix>
</trkpt>
<trkpt lat="33.8111416" lon="-118.3931426">
  <ele>-24.982</ele>
  <time>2026-09-01T01:14:35Z</time>
  <course>54.89</course>
  <speed>0.9765244492586962</speed>
  <fix>3d</fix>
</trkpt>
<trkpt lat="33.8111406" lon="-118.3931446">
  <ele>-24.38</ele>
  <time>2026-09-01T01:14:35Z</time>
  <course>53.5</course>
  <speed>1.0</speed>
  <fix>3d</fix>
</trkpt>
<trkpt lat="33.8111421" lon="-118.3931417">
  <ele>-24.98</ele>
  <time>2026-09-01T01:14:35Z</time>
  <course>54.91</course>
  <speed>0.9765244492586962</speed>
  <fix>3d</fix>
</trkpt>
<trkpt lat="33.8111417" lon="-118.3931428">
  <ele>-24.37</ele>
  <time>2026-09-01T01:14:35Z</time>
  <course>53.55</course>
  <speed>1.0</speed>
  <fix>3d</fix>
</trkpt>
<trkpt lat="33.8111427" lon="-118.3931408">
  <ele>-24.98</ele>
  <time>2026-09-01T01:14:35Z</time>
  <course>54.91</course>
  <speed>0.9765244492586962</speed>
  <fix>3d</fix>
</trkpt>
<trkpt lat="33.8111417" lon="-118.3931428">
  <ele>-24.37</ele>
  <time>2026-09-01T01:14:35Z</time>
  <course>53.55</course>
  <speed>1.0</speed>
  <fix>3d</fix>
</trkpt>
<trkpt lat="33.8111432" lon="-118.39314">
  <ele>-24.979</ele>
  <time>2026-09-01T01:14:35Z</time>
  <course>54.9</course>
  <speed>0.9765244492586962</speed>
  <fix>3d</fix>
</trkpt>
<trkpt lat="33.8111428" lon="-118.3931411">
  <ele>-24.37</ele>
  <time>2026-09-01T01:14:35Z</time>
  <course>53.53</course>
  <speed>1.0</speed>
  <fix>3d</fix>
</trkpt>
<trkpt lat="33.8111437" lon="-118.3931391">
  <ele>-24.979</ele>
  <time>2026-09-01T01:14:35Z</time>
  <course>54.89</course>
  <speed>0.9765244492586962</speed>
  <fix>3d</fix>
</trkpt>
<trkpt lat="33.8111428" lon="-118.3931411">
  <ele>-24.37</ele>
  <time>2026-09-01T01:14:35Z</time>
  <course>53.53</course>
  <speed>1.0</speed>
  <fix>3d</fix>
</trkpt>
<trkpt lat="33.8111443" lon="-118.3931382">
  <ele>-24.979</ele>
  <time>2026-09-01T01:14:35Z</time>
  <course>54.89</course>
  <speed>0.9765244492586962</speed>
  <fix>3d</fix>
</trkpt>
<trkpt lat="33.8111439" lon="-118.3931394">
  <ele>-24.37</ele>
  <time>2026-09-01T01:14:35Z</time>
  <course>53.51</course>
  <speed>1.0</speed>
  <fix>3d</fix>
</trkpt>
<trkpt lat="33.8111448" lon="-118.3931373">
  <ele>-24.978</ele>
  <time>2026-09-01T01:14:35Z</time>
  <course>54.9</course>
  <speed>0.9765244492586962</speed>
  <fix>3d</fix>
</trkpt>
<trkpt lat="33.8111439" lon="-118.3931394">
  <ele>-24.37</ele>
  <time>2026-09-01T01:14:35Z</time>
  <course>53.51</course>
  <speed>1.0</speed>
  <fix>3d</fix>
</trkpt>
<trkpt lat="33.8111453" lon="-118.3931365">
  <ele>-24.978</ele>
  <time>2026-09-01T01:14:35Z</time>
  <course>54.93</course>
  <speed>0.9765244492586962</speed>
  <fix>3d</fix>
</trkpt>
<trkpt lat="33.8111449" lon="-118.3931376">
  <ele>-24.37</ele>
  <time>2026-09-01T01:14:35Z</time>
  <course>53.54</course>
  <speed>1.0</speed>
  <fix>3d</fix>
</trkpt>
<trkpt lat="33.8111459" lon="-118.3931356">
  <ele>-24.978</ele>
  <time>2026-09-01T01:14:36Z</time>
  <course>54.95</course>
  <speed>0.9765244492586962</speed>
  <fix>3d</fix>
</trkpt>
<trkpt lat="33.8111449" lon="-118.3931376">
  <ele>-24.37</ele>
  <time>2026-09-01T01:14:36Z</time>
  <course>53.54</course>
  <speed>1.0</speed>
  <fix>3d</fix>
</trkpt>
<trkpt lat="33.8111464" lon="-118.3931347">
  <ele>-24.979</ele>
  <time>2026-09-01T01:14:36Z</time>
  <course>54.97</course>
  <speed>0.9765244492586962</speed>
  <fix>3d</fix>
</trkpt>
<trkpt lat="33.811146" lon="-118.3931358">
  <ele>-24.37</ele>
  <time>2026-09-01T01:14:36Z</time>
  <course>53.57</course>
  <speed>1.0</speed>
  <fix>3d</fix>
</trkpt>
<trkpt lat="33.811147" lon="-118.3931339">
  <ele>-24.98</ele>
  <time>2026-09-01T01:14:36Z</time>
  <course>54.96</course>
  <speed>0.9765244492586962</speed>
  <fix>3d</fix>
</trkpt>
<trkpt lat="33.811146" lon="-118.3931358">
  <ele>-24.37</ele>
  <time>2026-09-01T01:14:36Z</time>
  <course>53.57</course>
  <speed>1.0</speed>
  <fix>3d</fix>
</trkpt>
<trkpt lat="33.8111475" lon="-118.393133">
  <ele>-24.982</ele>
  <time>2026-09-01T01:14:36Z</time>
  <course>54.94</course>
  <speed>0.9765244492586962</speed>
  <fix>3d</fix>
</trkpt>
<trkpt lat="33.8111471" lon="-118.3931341">
  <ele>-24.38</ele>
  <time>2026-09-01T01:14:36Z</time>
  <course>53.55</course>
  <speed>1.0</speed>
  <fix>3d</fix>
</trkpt>
<trkpt lat="33.811148" lon="-118.3931321">
  <ele>-24.984</ele>
  <time>2026-09-01T01:14:36Z</time>
  <course>54.92</course>
  <speed>0.9765244492586962</speed>
  <fix>3d</fix>
</trkpt>
<trkpt lat="33.8111471" lon="-118.3931341">
  <ele>-24.38</ele>
  <time>2026-09-01T01:14:36Z</time>
  <course>53.55</course>
  <speed>1.0</speed>
  <fix>3d</fix>
</trkpt>
<trkpt lat="33.8111486" lon="-118.3931312">
  <ele>-24.985</ele>
  <time>2026-09-01T01:14:36Z</time>
  <course>54.91</course>
  <speed>0.9765244492586962</speed>
  <fix>3d</fix>
</trkpt>
<trkpt lat="33.8111482" lon="-118.3931323">
  <ele>-24.38</ele>
  <time>2026-09-01T01:14:36Z</time>
  <course>53.53</course>
  <speed>1.0</speed>
  <fix>3d</fix>
</trkpt>
<trkpt lat="33.8111491" lon="-118.3931304">
  <ele>-24.985</ele>
  <time>2026-09-01T01:14:36Z</time>
  <course>54.91</course>
  <speed>0.9765244492586962</speed>
  <fix>3d</fix>
</trkpt>
<trkpt lat="33.8111482" lon="-118.3931323">
  <ele>-24.38</ele>
  <time>2026-09-01T01:14:36Z</time>
  <course>53.53</course>
  <speed>1.0</speed>
  <fix>3d</fix>
</trkpt>
<trkpt lat="33.8111496" lon="-118.3931295">
  <ele>-24.984</ele>
  <time>2026-09-01T01:14:36Z</time>
  <course>54.91</course>
  <speed>0.9765244492586962</speed>
  <fix>3d</fix>
</trkpt>
<trkpt lat="33.8111492" lon="-118.3931306">
  <ele>-24.38</ele>
  <time>2026-09-01T01:14:36Z</time>
  <course>53.53</course>
  <speed>1.0</speed>
  <fix>3d</fix>
</trkpt>
<trkpt lat="33.8111502" lon="-118.3931286">
  <ele>-24.983</ele>
  <time>2026-09-01T01:14:36Z</time>
  <course>54.91</course>
  <speed>0.9765244492586962</speed>
  <fix>3d</fix>
</trkpt>
<trkpt lat="33.8111492" lon="-118.3931306">
  <ele>-24.38</ele>
  <time>2026-09-01T01:14:36Z</time>
  <course>53.53</course>
  <speed>1.0</speed>
  <fix>3d</fix>
</trkpt>
<trkpt lat="33.8111507" lon="-118.3931277">
  <ele>-24.983</ele>
  <time>2026-09-01T01:14:36Z</time>
  <course>54.91</course>
  <speed>0.9765244492586962</speed>
  <fix>3d</fix>
</trkpt>
<trkpt lat="33.8111503" lon="-118.3931289">
  <ele>-24.38</ele>
  <time>2026-09-01T01:14:36Z</time>
  <course>53.51</course>
  <speed>1.0</speed>
  <fix>3d</fix>
</trkpt>
<trkpt lat="33.8111512" lon="-118.3931269">
  <ele>-24.984</ele>
  <time>2026-09-01T01:14:36Z</time>
  <course>54.9</course>
  <speed>0.9765244492586962</speed>
  <fix>3d</fix>
</trkpt>
<trkpt lat="33.8111503" lon="-118.3931289">
  <ele>-24.38</ele>
  <time>2026-09-01T01:14:36Z</time>
  <course>53.51</course>
  <speed>1.0</speed>
  <fix>3d</fix>
</trkpt>
<trkpt lat="33.8111518" lon="-118.393126">
  <ele>-24.984</ele>
  <time>2026-09-01T01:14:36Z</time>
  <course>54.9</course>
  <speed>0.9765244492586962</speed>
  <fix>3d</fix>
</trkpt>
<trkpt lat="33.8111514" lon="-118.3931271">
  <ele>-24.38</ele>
  <time>2026-09-01T01:14:36Z</time>
  <course>53.5</course>
  <speed>1.0</speed>
  <fix>3d</fix>
</trkpt>
<trkpt lat="33.8111523" lon="-118.3931251">
  <ele>-24.984</ele>
  <time>2026-09-01T01:14:36Z</time>
  <course>54.9</course>
  <speed>0.9765244492586962</speed>
  <fix>3d</fix>
</trkpt>
<trkpt lat="33.8111514" lon="-118.3931271">
  <ele>-24.38</ele>
  <time>2026-09-01T01:14:36Z</time>
  <course>53.5</course>
  <speed>1.0</speed>
  <fix>3d</fix>
</trkpt>
<trkpt lat="33.8111528" lon="-118.3931243">
  <ele>-24.983</ele>
  <time>2026-09-01T01:14:36Z</time>
  <course>54.92</course>
  <speed>0.9765244492586962</speed>
  <fix>3d</fix>
</trkpt>
<trkpt lat="33.8111524" lon="-118.3931254">
  <ele>-24.38</ele>
  <time>2026-09-01T01:14:36Z</time>
  <course>53.53</course>
  <speed>1.0</speed>
  <fix>3d</fix>
</trkpt>
<trkpt lat="33.8111534" lon="-118.3931234">
  <ele>-24.982</ele>
  <time>2026-09-01T01:14:36Z</time>
  <course>54.92</course>
  <speed>0.9765244492586962</speed>
  <fix>3d</fix>
</trkpt>
<trkpt lat="33.8111524" lon="-118.3931254">
  <ele>-24.38</ele>
  <time>2026-09-01T01:14:36Z</time>
  <course>53.53</course>
  <speed>1.0</speed>
  <fix>3d</fix>
</trkpt>
<trkpt lat="33.8111539" lon="-118.3931225">
  <ele>-24.982</ele>
  <time>2026-09-01T01:14:36Z</time>
  <course>54.92</course>
  <speed>0.9765244492586962</speed>
  <fix>3d</fix>
</trkpt>
<trkpt lat="33.8111535" lon="-118.3931236">
  <ele>-24.37</ele>
  <time>2026-09-01T01:14:36Z</time>
  <course>53.54</course>
  <speed>1.0</speed>
  <fix>3d</fix>
</trkpt>
<trkpt lat="33.8111544" lon="-118.3931217">
  <ele>-24.981</ele>
  <time>2026-09-01T01:14:36Z</time>
  <course>54.91</course>
  <speed>0.9765244492586962</speed>
  <fix>3d</fix>
</trkpt>
<trkpt lat="33.8111535" lon="-118.3931236">
  <ele>-24.37</ele>
  <time>2026-09-01T01:14:36Z</time>
  <course>53.54</course>
  <speed>1.0</speed>
  <fix>3d</fix>
</trkpt>
<trkpt lat="33.811155" lon="-118.3931208">
  <ele>-24.981</ele>
  <time>2026-09-01T01:14:36Z</time>
  <course>54.9</course>
  <speed>0.9765244492586962</speed>
  <fix>3d</fix>
</trkpt>
<trkpt lat="33.8111546" lon="-118.3931219">
  <ele>-24.37</ele>
  <time>2026-09-01T01:14:36Z</time>
  <course>53.52</course>
  <speed>1.0</speed>
  <fix>3d</fix>
</trkpt>
<trkpt lat="33.8111555" lon="-118.3931199">
  <ele>-24.982</ele>
  <time>2026-09-01T01:14:36Z</time>
  <course>54.88</course>
  <speed>0.9765244492586962</speed>
  <fix>3d</fix>
</trkpt>
<trkpt lat="33.8111546" lon="-118.3931219">
  <ele>-24.37</ele>
  <time>2026-09-01T01:14:36Z</time>
  <course>53.52</course>
  <speed>1.0</speed>
  <fix>3d</fix>
</trkpt>
<trkpt lat="33.8111561" lon="-118.393119">
  <ele>-24.981</ele>
  <time>2026-09-01T01:14:36Z</time>
  <course>54.88</course>
  <speed>0.9765244492586962</speed>
  <fix>3d</fix>
</trkpt>
<trkpt lat="33.8111557" lon="-118.3931202">
  <ele>-24.37</ele>
  <time>2026-09-01T01:14:36Z</time>
  <course>53.51</course>
  <speed>0.99</speed>
  <fix>3d</fix>
</trkpt>
<trkpt lat="33.8111566" lon="-118.3931182">
  <ele>-24.979</ele>
  <time>2026-09-01T01:14:36Z</time>
  <course>54.88</course>
  <speed>0.9765244492586962</speed>
  <fix>3d</fix>
</trkpt>
<trkpt lat="33.8111557" lon="-118.3931202">
  <ele>-24.37</ele>
  <time>2026-09-01T01:14:36Z</time>
  <course>53.51</course>
  <speed>0.99</speed>
  <fix>3d</fix>
</trkpt>
<trkpt lat="33.8111571" lon="-118.3931173">
  <ele>-24.978</ele>
  <time>2026-09-01T01:14:36Z</time>
  <course>54.92</course>
  <speed>0.9765244492586962</speed>
  <fix>3d</fix>
</trkpt>
<trkpt lat="33.8111567" lon="-118.3931184">
  <ele>-24.37</ele>
  <time>2026-09-01T01:14:36Z</time>
  <course>53.56</course>
  <speed>0.99</speed>
  <fix>3d</fix>
</trkpt>
<trkpt lat="33.8111577" lon="-118.3931164">
  <ele>-24.978</ele>
  <time>2026-09-01T01:14:36Z</time>
  <course>54.95</course>
  <speed>0.9765244492586962</speed>
  <fix>3d</fix>
</trkpt>
<trkpt lat="33.8111567" lon="-118.3931184">
  <ele>-24.37</ele>
  <time>2026-09-01T01:14:36Z</time>
  <course>53.56</course>
  <speed>0.99</speed>
  <fix>3d</fix>
</trkpt>
<trkpt lat="33.8111582" lon="-118.3931156">
  <ele>-24.978</ele>
  <time>2026-09-01T01:14:36Z</time>
  <course>54.95</course>
  <speed>0.9765244492586962</speed>
  <fix>3d</fix>
</trkpt>
<trkpt lat="33.8111577" lon="-118.3931167">
  <ele>-24.37</ele>
  <time>2026-09-01T01:14:36Z</time>
  <course>53.59</course>
  <speed>0.99</speed>
  <fix>3d</fix>
</trkpt>
<trkpt lat="33.8111587" lon="-118.3931147">
  <ele>-24.979</ele>
  <time>2026-09-01T01:14:36Z</time>
  <course>54.94</course>
  <speed>0.9765244492586962</speed>
  <fix>3d</fix>
</trkpt>
<trkpt lat="33.8111577" lon="-118.3931167">
  <ele>-24.37</ele>
  <time>2026-09-01T01:14:36Z</time>
  <course>53.59</course>
  <speed>0.99</speed>
  <fix>3d</fix>
</trkpt>
<trkpt lat="33.8111593" lon="-118.3931138">
  <ele>-24.979</ele>
  <time>2026-09-01T01:14:36Z</time>
  <course>54.92</course>
  <speed>0.9765244492586962</speed>
  <fix>3d</fix>
</trkpt>
<trkpt lat="33.8111588" lon="-118.3931149">
  <ele>-24.37</ele>
  <time>2026-09-01T01:14:36Z</time>
  <course>53.55</course>
  <speed>0.99</speed>
  <fix>3d</fix>
</trkpt>
<trkpt lat="33.8111598" lon="-118.3931129">
  <ele>-24.979</ele>
  <time>2026-09-01T01:14:36Z</time>
  <course>54.88</course>
  <speed>0.9765244492586962</speed>
  <fix>3d</fix>
</trkpt>
<trkpt lat="33.8111588" lon="-118.3931149">
  <ele>-24.37</ele>
  <time>2026-09-01T01:14:36Z</time>
  <course>53.55</course>
  <speed>0.99</speed>
  <fix>3d</fix>
</trkpt>
<trkpt lat="33.8111603" lon="-118.3931121">
  <ele>-24.979</ele>
  <time>2026-09-01T01:14:36Z</time>
  <course>54.83</course>
  <speed>0.9765244492586962</speed>
  <fix>3d</fix>
</trkpt>
<trkpt lat="33.8111599" lon="-118.3931132">
  <ele>-24.37</ele>
  <time>2026-09-01T01:14:36Z</time>
  <course>53.46</course>
  <speed>1.0</speed>
  <fix>3d</fix>
</trkpt>
<trkpt lat="33.8111609" lon="-118.3931112">
  <ele>-24.979</ele>
  <time>2026-09-01T01:14:36Z</time>
  <course>54.78</course>
  <speed>0.9765244492586962</speed>
  <fix>3d</fix>
</trkpt>
<trkpt lat="33.8111599" lon="-118.3931132">
  <ele>-24.37</ele>
  <time>2026-09-01T01:14:36Z</time>
  <course>53.46</course>
  <speed>1.0</speed>
  <fix>3d</fix>
</trkpt>
<trkpt lat="33.8111614" lon="-118.3931103">
  <ele>-24.98</ele>
  <time>2026-09-01T01:14:36Z</time>
  <course>54.76</course>
  <speed>0.9765244492586962</speed>
  <fix>3d</fix>
</trkpt>
<trkpt lat="33.811161" lon="-118.3931115">
  <ele>-24.38</ele>
  <time>2026-09-01T01:14:36Z</time>
  <course>53.4</course>
  <speed>1.0</speed>
  <fix>3d</fix>
</trkpt>
<trkpt lat="33.8111619" lon="-118.3931095">
  <ele>-24.98</ele>
  <time>2026-09-01T01:14:36Z</time>
  <course>54.74</course>
  <speed>0.9765244492586962</speed>
  <fix>3d</fix>
</trkpt>
<trkpt lat="33.811161" lon="-118.3931115">
  <ele>-24.38</ele>
  <time>2026-09-01T01:14:36Z</time>
  <course>53.4</course>
  <speed>1.0</speed>
  <fix>3d</fix>
</trkpt>
<trkpt lat="33.8111625" lon="-118.3931086">
  <ele>-24.982</ele>
  <time>2026-09-01T01:14:36Z</time>
  <course>54.76</course>
  <speed>0.9765244492586962</speed>
  <fix>3d</fix>
</trkpt>
<trkpt lat="33.8111621" lon="-118.3931097">
  <ele>-24.38</ele>
  <time>2026-09-01T01:14:36Z</time>
  <course>53.42</course>
  <speed>1.0</speed>
  <fix>3d</fix>
</trkpt>
<trkpt lat="33.811163" lon="-118.3931077">
  <ele>-24.983</ele>
  <time>2026-09-01T01:14:36Z</time>
  <course>54.78</course>
  <speed>0.9765244492586962</speed>
  <fix>3d</fix>
</trkpt>
<trkpt lat="33.8111621" lon="-118.3931097">
  <ele>-24.38</ele>
  <time>2026-09-01T01:14:36Z</time>
  <course>53.42</course>
  <speed>1.0</speed>
  <fix>3d</fix>
</trkpt>
<trkpt lat="33.8111635" lon="-118.3931069">
  <ele>-24.984</ele>
  <time>2026-09-01T01:14:36Z</time>
  <course>54.81</course>
  <speed>0.9765244492586962</speed>
  <fix>3d</fix>
</trkpt>
<trkpt lat="33.8111631" lon="-118.393108">
  <ele>-24.38</ele>
  <time>2026-09-01T01:14:36Z</time>
  <course>53.48</course>
  <speed>1.0</speed>
  <fix>3d</fix>
</trkpt>
<trkpt lat="33.8111641" lon="-118.393106">
  <ele>-24.984</ele>
  <time>2026-09-01T01:14:36Z</time>
  <course>54.83</course>
  <speed>0.9765244492586962</speed>
  <fix>3d</fix>
</trkpt>
<trkpt lat="33.8111631" lon="-118.393108">
  <ele>-24.38</ele>
  <time>2026-09-01T01:14:36Z</time>
  <course>53.48</course>
  <speed>1.0</speed>
  <fix>3d</fix>
</trkpt>
<trkpt lat="33.8111646" lon="-118.3931051">
  <ele>-24.984</ele>
  <time>2026-09-01T01:14:36Z</time>
  <course>54.85</course>
  <speed>0.9765244492586962</speed>
  <fix>3d</fix>
</trkpt>
<trkpt lat="33.8111642" lon="-118.3931063">
  <ele>-24.38</ele>
  <time>2026-09-01T01:14:36Z</time>
  <course>53.52</course>
  <speed>1.0</speed>
  <fix>3d</fix>
</trkpt>
<trkpt lat="33.8111651" lon="-118.3931043">
  <ele>-24.982</ele>
  <time>2026-09-01T01:14:36Z</time>
  <course>54.86</course>
  <speed>0.9765244492586962</speed>
  <fix>3d</fix>
</trkpt>
<trkpt lat="33.8111642" lon="-118.3931063">
  <ele>-24.38</ele>
  <time>2026-09-01T01:14:36Z</time>
  <course>53.52</course>
  <speed>1.0</speed>
  <fix>3d</fix>
</trkpt>
<trkpt lat="33.8111657" lon="-118.3931034">
  <ele>-24.981</ele>
  <time>2026-09-01T01:14:36Z</time>
  <course>54.87</course>
  <speed>0.9765244492586962</speed>
  <fix>3d</fix>
</trkpt>
<trkpt lat="33.8111653" lon="-118.3931045">
  <ele>-24.38</ele>
  <time>2026-09-01T01:14:36Z</time>
  <course>53.53</course>
  <speed>1.0</speed>
  <fix>3d</fix>
</trkpt>
<trkpt lat="33.8111662" lon="-118.3931025">
  <ele>-24.98</ele>
  <time>2026-09-01T01:14:36Z</time>
  <course>54.88</course>
  <speed>0.9765244492586962</speed>
  <fix>3d</fix>
</trkpt>
<trkpt lat="33.8111653" lon="-118.3931045">
  <ele>-24.38</ele>
  <time>2026-09-01T01:14:36Z</time>
  <course>53.53</course>
  <speed>1.0</speed>
  <fix>3d</fix>
</trkpt>
<trkpt lat="33.8111667" lon="-118.3931016">
  <ele>-24.98</ele>
  <time>2026-09-01T01:14:36Z</time>
  <course>54.9</course>
  <speed>0.9765244492586962</speed>
  <fix>3d</fix>
</trkpt>
<trkpt lat="33.8111663" lon="-118.3931028">
  <ele>-24.38</ele>
  <time>2026-09-01T01:14:36Z</time>
  <course>53.55</course>
  <speed>1.0</speed>
  <fix>3d</fix>
</trkpt>
<trkpt lat="33.8111673" lon="-118.3931008">
  <ele>-24.98</ele>
  <time>2026-09-01T01:14:36Z</time>
  <course>54.92</course>
  <speed>0.9765244492586962</speed>
  <fix>3d</fix>
</trkpt>
<trkpt lat="33.8111663" lon="-118.3931028">
  <ele>-24.38</ele>
  <time>2026-09-01T01:14:36Z</time>
  <course>53.55</course>
  <speed>1.0</speed>
  <fix>3d</fix>
</trkpt>
<trkpt lat="33.8111678" lon="-118.3930999">
  <ele>-24.981</ele>
  <time>2026-09-01T01:14:36Z</time>
  <course>54.93</course>
  <speed>0.9765244492586962</speed>
  <fix>3d</fix>
</trkpt>
<trkpt lat="33.8111674" lon="-118.393101">
  <ele>-24.38</ele>
  <time>2026-09-01T01:14:36Z</time>
  <course>53.55</course>
  <speed>1.0</speed>
  <fix>3d</fix>
</trkpt>
<trkpt lat="33.8111684" lon="-118.393099">
  <ele>-24.983</ele>
  <time>2026-09-01T01:14:36Z</time>
  <course>54.92</course>
  <speed>0.9765244492586962</speed>
  <fix>3d</fix>
</trkpt>
<trkpt lat="33.8111674" lon="-118.393101">
  <ele>-24.38</ele>
  <time>2026-09-01T01:14:36Z</time>
  <course>53.55</course>
  <speed>1.0</speed>
  <fix>3d</fix>
</trkpt>
<trkpt lat="33.8111689" lon="-118.3930982">
  <ele>-24.984</ele>
  <time>2026-09-01T01:14:36Z</time>
  <course>54.92</course>
  <speed>0.9765244492586962</speed>
  <fix>3d</fix>
</trkpt>
<trkpt lat="33.8111684" lon="-118.3930993">
  <ele>-24.38</ele>
  <time>2026-09-01T01:14:36Z</time>
  <course>53.54</course>
  <speed>1.0</speed>
  <fix>3d</fix>
</trkpt>
<trkpt lat="33.8111694" lon="-118.3930973">
  <ele>-24.985</ele>
  <time>2026-09-01T01:14:36Z</time>
  <course>54.9</course>
  <speed>0.9765244492586962</speed>
  <fix>3d</fix>
</trkpt>
<trkpt lat="33.8111684" lon="-118.3930993">
  <ele>-24.38</ele>
  <time>2026-09-01T01:14:36Z</time>
  <course>53.54</course>
  <speed>1.0</speed>
  <fix>3d</fix>
</trkpt>
<trkpt lat="33.81117" lon="-118.3930964">
  <ele>-24.985</ele>
  <time>2026-09-01T01:14:36Z</time>
  <course>54.87</course>
  <speed>0.9765244492586962</speed>
  <fix>3d</fix>
</trkpt>
<trkpt lat="33.8111695" lon="-118.3930976">
  <ele>-24.38</ele>
  <time>2026-09-01T01:14:36Z</time>
  <course>53.49</course>
  <speed>1.0</speed>
  <fix>3d</fix>
</trkpt>
<trkpt lat="33.8111705" lon="-118.3930955">
  <ele>-24.984</ele>
  <time>2026-09-01T01:14:36Z</time>
  <course>54.85</course>
  <speed>0.9765244492586962</speed>
  <fix>3d</fix>
</trkpt>
<trkpt lat="33.8111695" lon="-118.3930976">
  <ele>-24.38</ele>
  <time>2026-09-01T01:14:36Z</time>
  <course>53.49</course>
  <speed>1.0</speed>
  <fix>3d</fix>
</trkpt>
<trkpt lat="33.811171" lon="-118.3930947">
  <ele>-24.983</ele>
  <time>2026-09-01T01:14:36Z</time>
  <course>54.83</course>
  <speed>0.9765244492586962</speed>
  <fix>3d</fix>
</trkpt>
<trkpt lat="33.8111706" lon="-118.3930958">
  <ele>-24.38</ele>
  <time>2026-09-01T01:14:36Z</time>
  <course>53.44</course>
  <speed>1.0</speed>
  <fix>3d</fix>
</trkpt>
<trkpt lat="33.8111716" lon="-118.3930938">
  <ele>-24.981</ele>
  <time>2026-09-01T01:14:36Z</time>
  <course>54.82</course>
  <speed>0.9765244492586962</speed>
  <fix>3d</fix>
</trkpt>
<trkpt lat="33.8111706" lon="-118.3930958">
  <ele>-24.38</ele>
  <time>2026-09-01T01:14:36Z</time>
  <course>53.44</course>
  <speed>1.0</speed>
  <fix>3d</fix>
</trkpt>
<trkpt lat="33.8111721" lon="-118.3930929">
  <ele>-24.98</ele>
  <time>2026-09-01T01:14:36Z</time>
  <course>54.82</course>
  <speed>0.9765244492586962</speed>
  <fix>3d</fix>
</trkpt>
<trkpt lat="33.8111717" lon="-118.393094">
  <ele>-24.37</ele>
  <time>2026-09-01T01:14:36Z</time>
  <course>53.44</course>
  <speed>1.0</speed>
  <fix>3d</fix>
</trkpt>
<trkpt lat="33.8111726" lon="-118.3930921">
  <ele>-24.978</ele>
  <time>2026-09-01T01:14:36Z</time>
  <course>54.81</course>
  <speed>0.9765244492586962</speed>
  <fix>3d</fix>
</trkpt>
<trkpt lat="33.8111717" lon="-118.393094">
  <ele>-24.37</ele>
  <time>2026-09-01T01:14:36Z</time>
  <course>53.44</course>
  <speed>1.0</speed>
  <fix>3d</fix>
</trkpt>
<trkpt lat="33.8111732" lon="-118.3930912">
  <ele>-24.977</ele>
  <time>2026-09-01T01:14:36Z</time>
  <course>54.81</course>
  <speed>0.9765244492586962</speed>
  <fix>3d</fix>
</trkpt>
<trkpt lat="33.8111727" lon="-118.3930923">
  <ele>-24.37</ele>
  <time>2026-09-01T01:14:36Z</time>
  <course>53.44</course>
  <speed>1.0</speed>
  <fix>3d</fix>
</trkpt>
<trkpt lat="33.8111737" lon="-118.3930903">
  <ele>-24.976</ele>
  <time>2026-09-01T01:14:36Z</time>
  <course>54.81</course>
  <speed>0.9765244492586962</speed>
  <fix>3d</fix>
</trkpt>
<trkpt lat="33.8111727" lon="-118.3930923">
  <ele>-24.37</ele>
  <time>2026-09-01T01:14:36Z</time>
  <course>53.44</course>
  <speed>1.0</speed>
  <fix>3d</fix>
</trkpt>
<trkpt lat="33.8111742" lon="-118.3930894">
  <ele>-24.976</ele>
  <time>2026-09-01T01:14:36Z</time>
  <course>54.79</course>
  <speed>0.9765244492586962</speed>
  <fix>3d</fix>
</trkpt>
<trkpt lat="33.8111738" lon="-118.3930906">
  <ele>-24.37</ele>
  <time>2026-09-01T01:14:36Z</time>
  <course>53.43</course>
  <speed>0.99</speed>
  <fix>3d</fix>
</trkpt>
<trkpt lat="33.8111748" lon="-118.3930886">
  <ele>-24.977</ele>
  <time>2026-09-01T01:14:36Z</time>
  <course>54.77</course>
  <speed>0.9765244492586962</speed>
  <fix>3d</fix>
</trkpt>
<trkpt lat="33.8111738" lon="-118.3930906">
  <ele>-24.37</ele>
  <time>2026-09-01T01:14:36Z</time>
  <course>53.43</course>
  <speed>0.99</speed>
  <fix>3d</fix>
</trkpt>
<trkpt lat="33.8111753" lon="-118.3930877">
  <ele>-24.979</ele>
  <time>2026-09-01T01:14:36Z</time>
  <course>54.77</course>
  <speed>0.9765244492586962</speed>
  <fix>3d</fix>
</trkpt>
<trkpt lat="33.8111749" lon="-118.3930889">
  <ele>-24.37</ele>
  <time>2026-09-01T01:14:36Z</time>
  <course>53.41</course>
  <speed>0.99</speed>
  <fix>3d</fix>
</trkpt>
<trkpt lat="33.8111758" lon="-118.3930868">
  <ele>-24.98</ele>
  <time>2026-09-01T01:14:36Z</time>
  <course>54.76</course>
  <speed>0.9765244492586962</speed>
  <fix>3d</fix>
</trkpt>
<trkpt lat="33.8111749" lon="-118.3930889">
  <ele>-24.37</ele>
  <time>2026-09-01T01:14:36Z</time>
  <course>53.41</course>
  <speed>0.99</speed>
  <fix>3d</fix>
</trkpt>
<trkpt lat="33.8111764" lon="-118.393086">
  <ele>-24.981</ele>
  <time>2026-09-01T01:14:36Z</time>
  <course>54.78</course>
  <speed>0.9765244492586962</speed>
  <fix>3d</fix>
</trkpt>
<trkpt lat="33.811176" lon="-118.3930871">
  <ele>-24.38</ele>
  <time>2026-09-01T01:14:36Z</time>
  <course>53.42</course>
  <speed>0.99</speed>
  <fix>3d</fix>
</trkpt>
<trkpt lat="33.8111769" lon="-118.3930851">
  <ele>-24.983</ele>
  <time>2026-09-01T01:14:36Z</time>
  <course>54.81</course>
  <speed>0.9765244492586962</speed>
  <fix>3d</fix>
</trkpt>
<trkpt lat="33.811176" lon="-118.3930871">
  <ele>-24.38</ele>
  <time>2026-09-01T01:14:36Z</time>
  <course>53.42</course>
  <speed>0.99</speed>
  <fix>3d</fix>
</trkpt>
<trkpt lat="33.8111774" lon="-118.3930842">
  <ele>-24.983</ele>
  <time>2026-09-01T01:14:36Z</time>
  <course>54.84</course>
  <speed>0.9765244492586962</speed>
  <fix>3d</fix>
</trkpt>
<trkpt lat="33.811177" lon="-118.3930854">
  <ele>-24.38</ele>
  <time>2026-09-01T01:14:36Z</time>
  <course>53.47</course>
  <speed>0.99</speed>
  <fix>3d</fix>
</trkpt>
<trkpt lat="33.811178" lon="-118.3930834">
  <ele>-24.983</ele>
  <time>2026-09-01T01:14:36Z</time>
  <course>54.87</course>
  <speed>0.9765244492586962</speed>
  <fix>3d</fix>
</trkpt>
<trkpt lat="33.811177" lon="-118.3930854">
  <ele>-24.38</ele>
  <time>2026-09-01T01:14:36Z</time>
  <course>53.47</course>
  <speed>0.99</speed>
  <fix>3d</fix>
</trkpt>
<trkpt lat="33.8111785" lon="-118.3930825">
  <ele>-24.982</ele>
  <time>2026-09-01T01:14:36Z</time>
  <course>54.89</course>
  <speed>0.9765244492586962</speed>
  <fix>3d</fix>
</trkpt>
<trkpt lat="33.8111781" lon="-118.3930837">
  <ele>-24.38</ele>
  <time>2026-09-01T01:14:36Z</time>
  <course>53.5</course>
  <speed>0.99</speed>
  <fix>3d</fix>
</trkpt>
<trkpt lat="33.8111791" lon="-118.3930816">
  <ele>-24.982</ele>
  <time>2026-09-01T01:14:36Z</time>
  <course>54.9</course>
  <speed>0.9765244492586962</speed>
  <fix>3d</fix>
</trkpt>
<trkpt lat="33.8111781" lon="-118.3930837">
  <ele>-24.38</ele>
  <time>2026-09-01T01:14:36Z</time>
  <course>53.5</course>
  <speed>0.99</speed>
  <fix>3d</fix>
</trkpt>
<trkpt lat="33.8111796" lon="-118.3930807">
  <ele>-24.983</ele>
  <time>2026-09-01T01:14:36Z</time>
  <course>54.91</course>
  <speed>0.9765244492586962</speed>
  <fix>3d</fix>
</trkpt>
<trkpt lat="33.8111792" lon="-118.3930819">
  <ele>-24.38</ele>
  <time>2026-09-01T01:14:36Z</time>
  <course>53.52</course>
  <speed>0.99</speed>
  <fix>3d</fix>
</trkpt>
<trkpt lat="33.8111801" lon="-118.3930799">
  <ele>-24.984</ele>
  <time>2026-09-01T01:14:36Z</time>
  <course>54.93</course>
  <speed>0.9765244492586962</speed>
  <fix>3d</fix>
</trkpt>
<trkpt lat="33.8111792" lon="-118.3930819">
  <ele>-24.38</ele>
  <time>2026-09-01T01:14:36Z</time>
  <course>53.52</course>
  <speed>0.99</speed>
  <fix>3d</fix>
</trkpt>
<trkpt lat="33.8111807" lon="-118.393079">
  <ele>-24.984</ele>
  <time>2026-09-01T01:14:36Z</time>
  <course>54.95</course>
  <speed>0.9765244492586962</speed>
  <fix>3d</fix>
</trkpt>
<trkpt lat="33.8111802" lon="-118.3930802">
  <ele>-24.38</ele>
  <time>2026-09-01T01:14:36Z</time>
  <course>53.54</course>
  <speed>0.99</speed>
  <fix>3d</fix>
</trkpt>
<trkpt lat="33.8111812" lon="-118.3930781">
  <ele>-24.984</ele>
  <time>2026-09-01T01:14:36Z</time>
  <course>54.97</course>
  <speed>0.9765244492586962</speed>
  <fix>3d</fix>
</trkpt>
<trkpt lat="33.8111802" lon="-118.3930802">
  <ele>-24.38</ele>
  <time>2026-09-01T01:14:36Z</time>
  <course>53.54</course>
  <speed>0.99</speed>
  <fix>3d</fix>
</trkpt>
<trkpt lat="33.8111817" lon="-118.3930773">
  <ele>-24.985</ele>
  <time>2026-09-01T01:14:36Z</time>
  <course>54.98</course>
  <speed>0.9765244492586962</speed>
  <fix>3d</fix>
</trkpt>
<trkpt lat="33.8111813" lon="-118.3930785">
  <ele>-24.38</ele>
  <time>2026-09-01T01:14:36Z</time>
  <course>53.55</course>
  <speed>0.99</speed>
  <fix>3d</fix>
</trkpt>
<trkpt lat="33.8111823" lon="-118.3930764">
  <ele>-24.985</ele>
  <time>2026-09-01T01:14:36Z</time>
  <course>54.97</course>
  <speed>0.9765244492586962</speed>
  <fix>3d</fix>
</trkpt>
<trkpt lat="33.8111813" lon="-118.3930785">
  <ele>-24.38</ele>
  <time>2026-09-01T01:14:36Z</time>
  <course>53.55</course>
  <speed>0.99</speed>
  <fix>3d</fix>
</trkpt>
<trkpt lat="33.8111828" lon="-118.3930755">
  <ele>-24.984</ele>
  <time>2026-09-01T01:14:36Z</time>
  <course>54.98</course>
  <speed>0.9765244492586962</speed>
  <fix>3d</fix>
</trkpt>
<trkpt lat="33.8111824" lon="-118.3930767">
  <ele>-24.37</ele>
  <time>2026-09-01T01:14:36Z</time>
  <course>53.54</course>
  <speed>0.99</speed>
  <fix>3d</fix>
</trkpt>
<trkpt lat="33.8111833" lon="-118.3930747">
  <ele>-24.982</ele>
  <time>2026-09-01T01:14:36Z</time>
  <course>54.99</course>
  <speed>0.9765244492586962</speed>
  <fix>3d</fix>
</trkpt>
<trkpt lat="33.8111824" lon="-118.3930767">
  <ele>-24.37</ele>
  <time>2026-09-01T01:14:36Z</time>
  <course>53.54</course>
  <speed>0.99</speed>
  <fix>3d</fix>
</trkpt>
<trkpt lat="33.8111839" lon="-118.3930738">
  <ele>-24.98</ele>
  <time>2026-09-01T01:14:36Z</time>
  <course>55.01</course>
  <speed>0.9765244492586962</speed>
  <fix>3d</fix>
</trkpt>
<trkpt lat="33.8111834" lon="-118.393075">
  <ele>-24.37</ele>
  <time>2026-09-01T01:14:36Z</time>
  <course>53.56</course>
  <speed>0.99</speed>
  <fix>3d</fix>
</trkpt>
<trkpt lat="33.8111844" lon="-118.3930729">
  <ele>-24.979</ele>
  <time>2026-09-01T01:14:36Z</time>
  <course>55.02</course>
  <speed>0.9765244492586962</speed>
  <fix>3d</fix>
</trkpt>
<trkpt lat="33.8111834" lon="-118.393075">
  <ele>-24.37</ele>
  <time>2026-09-01T01:14:36Z</time>
  <course>53.56</course>
  <speed>0.99</speed>
  <fix>3d</fix>
</trkpt>
<trkpt lat="33.8111849" lon="-118.3930721">
  <ele>-24.979</ele>
  <time>2026-09-01T01:14:36Z</time>
  <course>55.02</course>
  <speed>0.9765244492586962</speed>
  <fix>3d</fix>
</trkpt>
<trkpt lat="33.8111845" lon="-118.3930732">
  <ele>-24.37</ele>
  <time>2026-09-01T01:14:36Z</time>
  <course>53.57</course>
  <speed>0.99</speed>
  <fix>3d</fix>
</trkpt>
<trkpt lat="33.8111855" lon="-118.3930712">
  <ele>-24.978</ele>
  <time>2026-09-01T01:14:36Z</time>
  <course>55.01</course>
  <speed>0.9765244492586962</speed>
  <fix>3d</fix>
</trkpt>
<trkpt lat="33.8111845" lon="-118.3930732">
  <ele>-24.37</ele>
  <time>2026-09-01T01:14:36Z</time>
  <course>53.57</course>
  <speed>0.99</speed>
  <fix>3d</fix>
</trkpt>
<trkpt lat="33.811186" lon="-118.3930703">
  <ele>-24.978</ele>
  <time>2026-09-01T01:14:36Z</time>
  <course>55.0</course>
  <speed>0.9765244492586962</speed>
  <fix>3d</fix>
</trkpt>
<trkpt lat="33.8111856" lon="-118.3930715">
  <ele>-24.37</ele>
  <time>2026-09-01T01:14:36Z</time>
  <course>53.54</course>
  <speed>1.0</speed>
  <fix>3d</fix>
</trkpt>
<trkpt lat="33.8111865" lon="-118.3930694">
  <ele>-24.978</ele>
  <time>2026-09-01T01:14:36Z</time>
  <course>54.99</course>
  <speed>0.9765244492586962</speed>
  <fix>3d</fix>
</trkpt>
<trkpt lat="33.8111856" lon="-118.3930715">
  <ele>-24.37</ele>
  <time>2026-09-01T01:14:36Z</time>
  <course>53.54</course>
  <speed>1.0</speed>
  <fix>3d</fix>
</trkpt>
<trkpt lat="33.8111871" lon="-118.3930686">
  <ele>-24.978</ele>
  <time>2026-09-01T01:14:36Z</time>
  <course>54.99</course>
  <speed>0.9765244492586962</speed>
  <fix>3d</fix>
</trkpt>
<trkpt lat="33.8111866" lon="-118.3930698">
  <ele>-24.37</ele>
  <time>2026-09-01T01:14:36Z</time>
  <course>53.54</course>
  <speed>0.99</speed>
  <fix>3d</fix>
</trkpt>
<trkpt lat="33.8111876" lon="-118.3930677">
  <ele>-24.978</ele>
  <time>2026-09-01T01:14:36Z</time>
  <course>54.99</course>
  <speed>0.9765244492586962</speed>
  <fix>3d</fix>
</trkpt>
<trkpt lat="33.8111866" lon="-118.3930698">
  <ele>-24.37</ele>
  <time>2026-09-01T01:14:36Z</time>
  <course>53.54</course>
  <speed>0.99</speed>
  <fix>3d</fix>
</trkpt>
<trkpt lat="33.8111881" lon="-118.3930668">
  <ele>-24.979</ele>
  <time>2026-09-01T01:14:36Z</time>
  <course>54.99</course>
  <speed>0.9765244492586962</speed>
  <fix>3d</fix>
</trkpt>
<trkpt lat="33.8111877" lon="-118.393068">
  <ele>-24.37</ele>
  <time>2026-09-01T01:14:36Z</time>
  <course>53.55</course>
  <speed>0.99</speed>
  <fix>3d</fix>
</trkpt>
<trkpt lat="33.8111887" lon="-118.393066">
  <ele>-24.981</ele>
  <time>2026-09-01T01:14:36Z</time>
  <course>54.98</course>
  <speed>0.9765244492586962</speed>
  <fix>3d</fix>
</trkpt>
<trkpt lat="33.8111877" lon="-118.393068">
  <ele>-24.37</ele>
  <time>2026-09-01T01:14:36Z</time>
  <course>53.55</course>
  <speed>0.99</speed>
  <fix>3d</fix>
</trkpt>
<trkpt lat="33.8111892" lon="-118.3930651">
  <ele>-24.981</ele>
  <time>2026-09-01T01:14:36Z</time>
  <course>54.98</course>
  <speed>0.9765244492586962</speed>
  <fix>3d</fix>
</trkpt>
<trkpt lat="33.8111887" lon="-118.3930662">
  <ele>-24.37</ele>
  <time>2026-09-01T01:14:36Z</time>
  <course>53.53</course>
  <speed>0.99</speed>
  <fix>3d</fix>
</trkpt>
<trkpt lat="33.8111897" lon="-118.3930644">
  <ele>-24.982</ele>
  <time>2026-09-01T01:14:36Z</time>
  <course>54.97</course>
  <speed>0.6742403132415029</speed>
  <fix>3d</fix>
</trkpt>
<trkpt lat="33.8111887" lon="-118.3930662">
  <ele>-24.37</ele>
  <time>2026-09-01T01:14:36Z</time>
  <course>53.53</course>
  <speed>0.99</speed>
  <fix>3d</fix>
</trkpt>
<trkpt lat="33.81119" lon="-118.3930638">
  <ele>-24.982</ele>
  <time>2026-09-01T01:14:36Z</time>
  <course>54.96</course>
  <speed>0.5021951811795887</speed>
  <fix>3d</fix>
</trkpt>
<trkpt lat="33.8111897" lon="-118.3930646">
  <ele>-24.37</ele>
  <time>2026-09-01T01:14:36Z</time>
  <course>53.3</course>
  <speed>0.82</speed>
  <fix>3d</fix>
</trkpt>
<trkpt lat="33.8111902" lon="-118.3930634">
  <ele>-24.981</ele>
  <time>2026-09-01T01:14:36Z</time>
  <course>54.95</course>
  <speed>0.4022437072223753</speed>
  <fix>3d</fix>
</trkpt>
<trkpt lat="33.8111897" lon="-118.3930646">
  <ele>-24.37</ele>
  <time>2026-09-01T01:14:36Z</time>
  <course>53.3</course>
  <speed>0.82</speed>
  <fix>3d</fix>
</trkpt>
<trkpt lat="33.8111905" lon="-118.3930631">
  <ele>-24.979</ele>
  <time>2026-09-01T01:14:36Z</time>
  <course>54.94</course>
  <speed>0.3301514803843835</speed>
  <fix>3d</fix>
</trkpt>
<trkpt lat="33.8111905" lon="-118.3930634">
  <ele>-24.37</ele>
  <time>2026-09-01T01:14:36Z</time>
  <course>52.64</course>
  <speed>0.52</speed>
  <fix>3d</fix>
</trkpt>
<trkpt lat="33.8111907" lon="-118.3930628">
  <ele>-24.975</ele>
  <time>2026-09-01T01:14:36Z</time>
  <course>54.93</course>
  <speed>0.280178514522438</speed>
  <fix>3d</fix>
</trkpt>
<trkpt lat="33.8111905" lon="-118.3930634">
  <ele>-24.37</ele>
  <time>2026-09-01T01:14:36Z</time>
  <course>52.64</course>
  <speed>0.52</speed>
  <fix>3d</fix>
</trkpt>
<trkpt lat="33.8111908" lon="-118.3930625">
  <ele>-24.971</ele>
  <time>2026-09-01T01:14:36Z</time>
  <course>54.92</course>
  <speed>0.24413111231467405</speed>
  <fix>3d</fix>
</trkpt>
<trkpt lat="33.8111909" lon="-118.3930627">
  <ele>-24.36</ele>
  <time>2026-09-01T01:14:36Z</time>
  <course>51.77</course>
  <speed>0.35</speed>
  <fix>3d</fix>
</trkpt>
<trkpt lat="33.811191" lon="-118.3930623">
  <ele>-24.965</ele>
  <time>2026-09-01T01:14:36Z</time>
  <course>54.91</course>
  <speed>0.21633307652783937</speed>
  <fix>3d</fix>
</trkpt>
<trkpt lat="33.8111909" lon="-118.3930627">
  <ele>-24.36</ele>
  <time>2026-09-01T01:14:36Z</time>
  <course>51.77</course>
  <speed>0.35</speed>
  <fix>3d</fix>
</trkpt>
<trkpt lat="33.8111911" lon="-118.3930621">
  <ele>-24.959</ele>
  <time>2026-09-01T01:14:36Z</time>
  <course>54.91</course>
  <speed>0.194164878389476</speed>
  <fix>3d</fix>
</trkpt>
<trkpt lat="33.8111913" lon="-118.3930622">
  <ele>-24.36</ele>
  <time>2026-09-01T01:14:36Z</time>
  <course>50.97</course>
  <speed>0.26</speed>
  <fix>3d</fix>
</trkpt>
<trkpt lat="33.8111913" lon="-118.3930619">
  <ele>-24.953</ele>
  <time>2026-09-01T01:14:36Z</time>
  <course>54.9</course>
  <speed>0.18027756377319945</speed>
  <fix>3d</fix>
</trkpt>
<trkpt lat="33.8111913" lon="-118.3930622">
  <ele>-24.36</ele>
  <time>2026-09-01T01:14:36Z</time>
  <course>50.97</course>
  <speed>0.26</speed>
  <fix>3d</fix>
</trkpt>
<trkpt lat="33.8111914" lon="-118.3930617">
  <ele>-24.948</ele>
  <time>2026-09-01T01:14:36Z</time>
  <course>54.89</course>
  <speed>0.15811388300841897</speed>
  <fix>3d</fix>
</trkpt>
<trkpt lat="33.8111916" lon="-118.3930618">
  <ele>-24.35</ele>
  <time>2026-09-01T01:14:36Z</time>
  <course>50.21</course>
  <speed>0.21</speed>
  <fix>3d</fix>
</trkpt>
<trkpt lat="33.8111915" lon="-118.3930616">
  <ele>-24.942</ele>
  <time>2026-09-01T01:14:36Z</time>
  <course>54.88</course>
  <speed>0.14422205101855956</speed>
  <fix>3d</fix>
</trkpt>
<trkpt lat="33.8111916" lon="-118.3930618">
  <ele>-24.35</ele>
  <time>2026-09-01T01:14:36Z</time>
  <course>50.21</course>
  <speed>0.21</speed>
  <fix>3d</fix>
</trkpt>
<trkpt lat="33.8111916" lon="-118.3930614">
  <ele>-24.935</ele>
  <time>2026-09-01T01:14:36Z</time>
  <course>54.87</course>
  <speed>0.130384048104053</speed>
  <fix>3d</fix>
</trkpt>
<trkpt lat="33.8111919" lon="-118.3930615">
  <ele>-24.34</ele>
  <time>2026-09-01T01:14:36Z</time>
  <course>49.47</course>
  <speed>0.17</speed>
  <fix>3d</fix>
</trkpt>
<trkpt lat="33.8111917" lon="-118.3930613">
  <ele>-24.928</ele>
  <time>2026-09-01T01:14:36Z</time>
  <course>54.86</course>
  <speed>0.130384048104053</speed>
  <fix>3d</fix>
</trkpt>
<trkpt lat="33.8111919" lon="-118.3930615">
  <ele>-24.34</ele>
  <time>2026-09-01T01:14:36Z</time>
  <course>49.47</course>
  <speed>0.17</speed>
  <fix>3d</fix>
</trkpt>
<trkpt lat="33.8111918" lon="-118.3930612">
  <ele>-24.921</ele>
  <time>2026-09-01T01:14:36Z</time>
  <course>54.86</course>
  <speed>0.11661903789690602</speed>
  <fix>3d</fix>
</trkpt>
<trkpt lat="33.811192" lon="-118.3930612">
  <ele>-24.33</ele>
  <time>2026-09-01T01:14:36Z</time>
  <course>48.77</course>
  <speed>0.15</speed>
  <fix>3d</fix>
</trkpt>
<trkpt lat="33.8111919" lon="-118.3930611">
  <ele>-24.916</ele>
  <time>2026-09-01T01:14:36Z</time>
  <course>54.85</course>
  <speed>0.10816653826391968</speed>
  <fix>3d</fix>
</trkpt>
<trkpt lat="33.811192" lon="-118.3930612">
  <ele>-24.33</ele>
  <time>2026-09-01T01:14:36Z</time>
  <course>48.77</course>
  <speed>0.15</speed>
  <fix>3d</fix>
</trkpt>
<trkpt lat="33.811192" lon="-118.393061">
  <ele>-24.909</ele>
  <time>2026-09-01T01:14:36Z</time>
  <course>54.84</course>
  <speed>0.10816653826391968</speed>
  <fix>3d</fix>
</trkpt>
<trkpt lat="33.8111922" lon="-118.393061">
  <ele>-24.31</ele>
  <time>2026-09-01T01:14:36Z</time>
  <course>48.11</course>
  <speed>0.13</speed>
  <fix>3d</fix>
</trkpt>
<trkpt lat="33.8111921" lon="-118.3930609">
  <ele>-24.901</ele>
  <time>2026-09-01T01:14:36Z</time>
  <course>54.83</course>
  <speed>0.09433981132056603</speed>
  <fix>3d</fix>
</trkpt>
<trkpt lat="33.8111922" lon="-118.393061">
  <ele>-24.31</ele>
  <time>2026-09-01T01:14:36Z</time>
  <course>48.11</course>
  <speed>0.13</speed>
  <fix>3d</fix>
</trkpt>
<trkpt lat="33.8111921" lon="-118.3930608">
  <ele>-24.892</ele>
  <time>2026-09-01T01:14:36Z</time>
  <course>54.82</course>
  <speed>0.09433981132056603</speed>
  <fix>3d</fix>
</trkpt>
<trkpt lat="33.8111923" lon="-118.3930608">
  <ele>-24.3</ele>
  <time>2026-09-01T01:14:36Z</time>
  <course>47.47</course>
  <speed>0.11</speed>
  <fix>3d</fix>
</trkpt>
<trkpt lat="33.8111922" lon="-118.3930607">
  <ele>-24.882</ele>
  <time>2026-09-01T01:14:36Z</time>
  <course>54.81</course>
  <speed>0.08602325267042626</speed>
  <fix>3d</fix>
</trkpt>
<trkpt lat="33.8111923" lon="-118.3930608">
  <ele>-24.3</ele>
  <time>2026-09-01T01:14:36Z</time>
  <course>47.47</course>
  <speed>0.11</speed>
  <fix>3d</fix>
</trkpt>
<trkpt lat="33.8111923" lon="-118.3930606">
  <ele>-24.872</ele>
  <time>2026-09-01T01:14:36Z</time>
  <course>54.81</course>
  <speed>0.08062257748298549</speed>
  <fix>3d</fix>
</trkpt>
<trkpt lat="33.8111925" lon="-118.3930605">
  <ele>-24.29</ele>
  <time>2026-09-01T01:14:36Z</time>
  <course>46.86</course>
  <speed>0.1</speed>
  <fix>3d</fix>
</trkpt>
<trkpt lat="33.8111923" lon="-118.3930605">
  <ele>-24.863</ele>
  <time>2026-09-01T01:14:36Z</time>
  <course>54.8</course>
  <speed>0.08062257748298549</speed>
  <fix>3d</fix>
</trkpt>
<trkpt lat="33.8111925" lon="-118.3930605">
  <ele>-24.29</ele>
  <time>2026-09-01T01:14:36Z</time>
  <course>46.86</course>
  <speed>0.1</speed>
  <fix>3d</fix>
</trkpt>
<trkpt lat="33.8111924" lon="-118.3930604">
  <ele>-24.855</ele>
  <time>2026-09-01T01:14:36Z</time>
  <course>54.79</course>
  <speed>0.07211102550927978</speed>
  <fix>3d</fix>
</trkpt>
<trkpt lat="33.8111926" lon="-118.3930604">
  <ele>-24.27</ele>
  <time>2026-09-01T01:14:36Z</time>
  <course>46.27</course>
  <speed>0.09</speed>
  <fix>3d</fix>
</trkpt>
<trkpt lat="33.8111925" lon="-118.3930603">
  <ele>-24.847</ele>
  <time>2026-09-01T01:14:36Z</time>
  <course>54.78</course>
  <speed>0.07211102550927978</speed>
  <fix>3d</fix>
</trkpt>
<trkpt lat="33.8111926" lon="-118.3930604">
  <ele>-24.27</ele>
  <time>2026-09-01T01:14:36Z</time>
  <course>46.27</course>
  <speed>0.09</speed>
  <fix>3d</fix>
</trkpt>
<trkpt lat="33.8111925" lon="-118.3930602">
  <ele>-24.839</ele>
  <time>2026-09-01T01:14:36Z</time>
  <course>54.77</course>
  <speed>0.0670820393249937</speed>
  <fix>3d</fix>
</trkpt>
<trkpt lat="33.8111927" lon="-118.3930603">
  <ele>-24.25</ele>
  <time>2026-09-01T01:14:36Z</time>
  <course>45.69</course>
  <speed>0.09</speed>
  <fix>3d</fix>
</trkpt>
<trkpt lat="33.8111926" lon="-118.3930602">
  <ele>-24.83</ele>
  <time>2026-09-01T01:14:36Z</time>
  <course>54.76</course>
  <speed>0.0670820393249937</speed>
  <fix>3d</fix>
</trkpt>
<trkpt lat="33.8111927" lon="-118.3930603">
  <ele>-24.25</ele>
  <time>2026-09-01T01:14:36Z</time>
  <course>45.69</course>
  <speed>0.09</speed>
  <fix>3d</fix>
</trkpt>
<trkpt lat="33.8111926" lon="-118.3930601">
  <ele>-24.821</ele>
  <time>2026-09-01T01:14:36Z</time>
  <course>54.76</course>
  <speed>0.05830951894845301</speed>
  <fix>3d</fix>
</trkpt>
<trkpt lat="33.8111928" lon="-118.3930601">
  <ele>-24.24</ele>
  <time>2026-09-01T01:14:36Z</time>
  <course>45.13</course>
  <speed>0.08</speed>
  <fix>3d</fix>
</trkpt>
<trkpt lat="33.8111927" lon="-118.39306">
  <ele>-24.812</ele>
  <time>2026-09-01T01:14:36Z</time>
  <course>54.75</course>
  <speed>0.05830951894845301</speed>
  <fix>3d</fix>
</trkpt>
<trkpt lat="33.8111928" lon="-118.3930601">
  <ele>-24.24</ele>
  <time>2026-09-01T01:14:36Z</time>
  <course>45.13</course>
  <speed>0.08</speed>
  <fix>3d</fix>
</trkpt>
<trkpt lat="33.8111927" lon="-118.39306">
  <ele>-24.803</ele>
  <time>2026-09-01T01:14:36Z</time>
  <course>54.74</course>
  <speed>0.05830951894845301</speed>
  <fix>3d</fix>
</trkpt>
<trkpt lat="33.8111929" lon="-118.39306">
  <ele>-24.22</ele>
  <time>2026-09-01T01:14:36Z</time>
  <course>44.6</course>
  <speed>0.07</speed>
  <fix>3d</fix>
</trkpt>
<trkpt lat="33.8111928" lon="-118.3930599">
  <ele>-24.793</ele>
  <time>2026-09-01T01:14:36Z</time>
  <course>54.73</course>
  <speed>0.053851648071345036</speed>
  <fix>3d</fix>
</trkpt>
<trkpt lat="33.8111929" lon="-118.39306">
  <ele>-24.22</ele>
  <time>2026-09-01T01:14:36Z</time>
  <course>44.6</course>
  <speed>0.07</speed>
  <fix>3d</fix>
</trkpt>
<trkpt lat="33.811193" lon="-118.3930597">
  <ele>-24.755</ele>
  <time>2026-09-01T01:14:36Z</time>
  <course>54.7</course>
  <speed>0.044721359549995794</speed>
  <fix>3d</fix>
</trkpt>
<trkpt lat="33.8111931" lon="-118.3930598">
  <ele>-24.18</ele>
  <time>2026-09-01T01:14:36Z</time>
  <course>43.61</course>
  <speed>0.06</speed>
  <fix>3d</fix>
</trkpt>
<trkpt lat="33.8111931" lon="-118.3930596">
  <ele>-24.727</ele>
  <time>2026-09-01T01:14:36Z</time>
  <course>54.67</course>
  <speed>0.044721359549995794</speed>
  <fix>3d</fix>
</trkpt>
<trkpt lat="33.8111933" lon="-118.3930596">
  <ele>-24.15</ele>
  <time>2026-09-01T01:14:36Z</time>
  <course>42.67</course>
  <speed>0.06</speed>
  <fix>3d</fix>
</trkpt>
<trkpt lat="33.8111931" lon="-118.3930595">
  <ele>-24.717</ele>
  <time>2026-09-01T01:14:36Z</time>
  <course>54.67</course>
  <speed>0.0412310562561766</speed>
  <fix>3d</fix>
</trkpt>
<trkpt lat="33.8111933" lon="-118.3930596">
  <ele>-24.15</ele>
  <time>2026-09-01T01:14:36Z</time>
  <course>42.67</course>
  <speed>0.06</speed>
  <fix>3d</fix>
</trkpt>
<trkpt lat="33.8111932" lon="-118.3930595">
  <ele>-24.707</ele>
  <time>2026-09-01T01:14:36Z</time>
  <course>54.66</course>
  <speed>0.0316227766016838</speed>
  <fix>3d</fix>
</trkpt>
<trkpt lat="33.8111934" lon="-118.3930595">
  <ele>-24.13</ele>
  <time>2026-09-01T01:14:36Z</time>
  <course>42.21</course>
  <speed>0.05</speed>
  <fix>3d</fix>
</trkpt>
<trkpt lat="33.8111932" lon="-118.3930594">
  <ele>-24.698</ele>
  <time>2026-09-01T01:14:36Z</time>
  <course>54.65</course>
  <speed>0.0316227766016838</speed>
  <fix>3d</fix>
</trkpt>
<trkpt lat="33.8111934" lon="-118.3930595">
  <ele>-24.13</ele>
  <time>2026-09-01T01:14:36Z</time>
  <course>42.21</course>
  <speed>0.05</speed>
  <fix>3d</fix>
</trkpt>
<trkpt lat="33.8111932" lon="-118.3930594">
  <ele>-24.688</ele>
  <time>2026-09-01T01:14:36Z</time>
  <course>54.64</course>
  <speed>0.0316227766016838</speed>
  <fix>3d</fix>
</trkpt>
<trkpt lat="33.8111935" lon="-118.3930594">
  <ele>-24.11</ele>
  <time>2026-09-01T01:14:36Z</time>
  <course>41.77</course>
  <speed>0.05</speed>
  <fix>3d</fix>
</trkpt>
<trkpt lat="33.8111933" lon="-118.3930594">
  <ele>-24.679</ele>
  <time>2026-09-01T01:14:36Z</time>
  <course>54.63</course>
  <speed>0.0316227766016838</speed>
  <fix>3d</fix>
</trkpt>
<trkpt lat="33.8111935" lon="-118.3930594">
  <ele>-24.11</ele>
  <time>2026-09-01T01:14:36Z</time>
  <course>41.77</course>
  <speed>0.05</speed>
  <fix>3d</fix>
</trkpt>
<trkpt lat="33.8111933" lon="-118.3930593">
  <ele>-24.669</ele>
  <time>2026-09-01T01:14:36Z</time>
  <course>54.63</course>
  <speed>0.0316227766016838</speed>
  <fix>3d</fix>
</trkpt>
<trkpt lat="33.8111935" lon="-118.3930594">
  <ele>-24.09</ele>
  <time>2026-09-01T01:14:36Z</time>
  <course>41.35</course>
  <speed>0.05</speed>
  <fix>3d</fix>
</trkpt>
<trkpt lat="33.8111934" lon="-118.3930593">
  <ele>-24.659</ele>
  <time>2026-09-01T01:14:36Z</time>
  <course>54.62</course>
  <speed>0.0316227766016838</speed>
  <fix>3d</fix>
</trkpt>
<trkpt lat="33.8111935" lon="-118.3930594">
  <ele>-24.09</ele>
  <time>2026-09-01T01:14:36Z</time>
  <course>41.35</course>
  <speed>0.05</speed>
  <fix>3d</fix>
</trkpt>
<trkpt lat="33.8111934" lon="-118.3930593">
  <ele>-24.649</ele>
  <time>2026-09-01T01:14:36Z</time>
  <course>54.61</course>
  <speed>0.0316227766016838</speed>
  <fix>3d</fix>
</trkpt>
<trkpt lat="33.8111936" lon="-118.3930593">
  <ele>-24.07</ele>
  <time>2026-09-01T01:14:36Z</time>
  <course>40.96</course>
  <speed>0.05</speed>
  <fix>3d</fix>
</trkpt>
<trkpt lat="33.8111934" lon="-118.3930592">
  <ele>-24.639</ele>
  <time>2026-09-01T01:14:36Z</time>
  <course>54.6</course>
  <speed>0.0316227766016838</speed>
  <fix>3d</fix>
</trkpt>
<trkpt lat="33.8111936" lon="-118.3930593">
  <ele>-24.07</ele>
  <time>2026-09-01T01:14:36Z</time>
  <course>40.96</course>
  <speed>0.05</speed>
  <fix>3d</fix>
</trkpt>
<trkpt lat="33.8111935" lon="-118.3930592">
  <ele>-24.629</ele>
  <time>2026-09-01T01:14:36Z</time>
  <course>54.59</course>
  <speed>0.0316227766016838</speed>
  <fix>3d</fix>
</trkpt>
<trkpt lat="33.8111936" lon="-118.3930592">
  <ele>-24.05</ele>
  <time>2026-09-01T01:14:36Z</time>
  <course>40.58</course>
  <speed>0.04</speed>
  <fix>3d</fix>
</trkpt>
<trkpt lat="33.8111935" lon="-118.3930592">
  <ele>-24.62</ele>
  <time>2026-09-01T01:14:36Z</time>
  <course>54.59</course>
  <speed>0.022360679774997897</speed>
  <fix>3d</fix>
</trkpt>
<trkpt lat="33.8111936" lon="-118.3930592">
  <ele>-24.05</ele>
  <time>2026-09-01T01:14:36Z</time>
  <course>40.58</course>
  <speed>0.04</speed>
  <fix>3d</fix>
</trkpt>
<trkpt lat="33.8111935" lon="-118.3930591">
  <ele>-24.61</ele>
  <time>2026-09-01T01:14:36Z</time>
  <course>54.58</course>
  <speed>0.02</speed>
  <fix>3d</fix>
</trkpt>
<trkpt lat="33.8111937" lon="-118.3930592">
  <ele>-24.03</ele>
  <time>2026-09-01T01:14:36Z</time>
  <course>40.2</course>
  <speed>0.04</speed>
  <fix>3d</fix>
</trkpt>
<trkpt lat="33.8111935" lon="-118.3930591">
  <ele>-24.6</ele>
  <time>2026-09-01T01:14:36Z</time>
  <course>54.57</course>
  <speed>0.02</speed>
  <fix>3d</fix>
</trkpt>
<trkpt lat="33.8111937" lon="-118.3930592">
  <ele>-24.03</ele>
  <time>2026-09-01T01:14:36Z</time>
  <course>40.2</course>
  <speed>0.04</speed>
  <fix>3d</fix>
</trkpt>
<trkpt lat="33.8111936" lon="-118.3930591">
  <ele>-24.591</ele>
  <time>2026-09-01T01:14:36Z</time>
  <course>54.56</course>
  <speed>0.02</speed>
  <fix>3d</fix>
</trkpt>
<trkpt lat="33.8111938" lon="-118.3930591">
  <ele>-24.02</ele>
  <time>2026-09-01T01:14:36Z</time>
  <course>39.82</course>
  <speed>0.04</speed>
  <fix>3d</fix>
</trkpt>
<trkpt lat="33.8111936" lon="-118.3930591">
  <ele>-24.582</ele>
  <time>2026-09-01T01:14:36Z</time>
  <course>54.56</course>
  <speed>0.02</speed>
  <fix>3d</fix>
</trkpt>
<trkpt lat="33.8111938" lon="-118.3930591">
  <ele>-24.02</ele>
  <time>2026-09-01T01:14:36Z</time>
  <course>39.82</course>
  <speed>0.04</speed>
  <fix>3d</fix>
</trkpt>
<trkpt lat="33.8111936" lon="-118.393059">
  <ele>-24.572</ele>
  <time>2026-09-01T01:14:36Z</time>
  <course>54.55</course>
  <speed>0.02</speed>
  <fix>3d</fix>
</trkpt>
<trkpt lat="33.8111939" lon="-118.393059">
  <ele>-24.0</ele>
  <time>2026-09-01T01:14:36Z</time>
  <course>39.44</course>
  <speed>0.04</speed>
  <fix>3d</fix>
</trkpt>
<trkpt lat="33.8111937" lon="-118.393059">
  <ele>-24.561</ele>
  <time>2026-09-01T01:14:36Z</time>
  <course>54.54</course>
  <speed>0.02</speed>
  <fix>3d</fix>
</trkpt>
<trkpt lat="33.8111939" lon="-118.393059">
  <ele>-24.0</ele>
  <time>2026-09-01T01:14:36Z</time>
  <course>39.44</course>
  <speed>0.04</speed>
  <fix>3d</fix>
</trkpt>
<trkpt lat="33.8111937" lon="-118.393059">
  <ele>-24.551</ele>
  <time>2026-09-01T01:14:36Z</time>
  <course>54.53</course>
  <speed>0.02</speed>
  <fix>3d</fix>
</trkpt>
<trkpt lat="33.8111939" lon="-118.393059">
  <ele>-23.98</ele>
  <time>2026-09-01T01:14:36Z</time>
  <course>39.08</course>
  <speed>0.04</speed>
  <fix>3d</fix>
</trkpt>
<trkpt lat="33.8111937" lon="-118.393059">
  <ele>-24.54</ele>
  <time>2026-09-01T01:14:36Z</time>
  <course>54.53</course>
  <speed>0.02</speed>
  <fix>3d</fix>
</trkpt>
<trkpt lat="33.8111939" lon="-118.393059">
  <ele>-23.98</ele>
  <time>2026-09-01T01:14:36Z</time>
  <course>39.08</course>
  <speed>0.04</speed>
  <fix>3d</fix>
</trkpt>
<trkpt lat="33.8111937" lon="-118.3930589">
  <ele>-24.529</ele>
  <time>2026-09-01T01:14:36Z</time>
  <course>54.52</course>
  <speed>0.02</speed>
  <fix>3d</fix>
</trkpt>
<trkpt lat="33.811194" lon="-118.3930589">
  <ele>-23.96</ele>
  <time>2026-09-01T01:14:36Z</time>
  <course>38.75</course>
  <speed>0.04</speed>
  <fix>3d</fix>
</trkpt>
<trkpt lat="33.8111938" lon="-118.3930589">
  <ele>-24.519</ele>
  <time>2026-09-01T01:14:36Z</time>
  <course>54.51</course>
  <speed>0.02</speed>
  <fix>3d</fix>
</trkpt>
<trkpt lat="33.811194" lon="-118.3930589">
  <ele>-23.96</ele>
  <time>2026-09-01T01:14:36Z</time>
  <course>38.75</course>
  <speed>0.04</speed>
  <fix>3d</fix>
</trkpt>
<trkpt lat="33.8111938" lon="-118.3930589">
  <ele>-24.509</ele>
  <time>2026-09-01T01:14:36Z</time>
  <course>54.5</course>
  <speed>0.02</speed>
  <fix>3d</fix>
</trkpt>
<trkpt lat="33.811194" lon="-118.3930589">
  <ele>-23.94</ele>
  <time>2026-09-01T01:14:36Z</time>
  <course>38.44</course>
  <speed>0.03</speed>
  <fix>3d</fix>
</trkpt>
<trkpt lat="33.8111938" lon="-118.3930589">
  <ele>-24.499</ele>
  <time>2026-09-01T01:14:36Z</time>
  <course>54.5</course>
  <speed>0.01</speed>
  <fix>3d</fix>
</trkpt>
<trkpt lat="33.811194" lon="-118.3930589">
  <ele>-23.94</ele>
  <time>2026-09-01T01:14:36Z</time>
  <course>38.44</course>
  <speed>0.03</speed>
  <fix>3d</fix>
</trkpt>
<trkpt lat="33.8111938" lon="-118.3930589">
  <ele>-24.489</ele>
  <time>2026-09-01T01:14:36Z</time>
  <course>54.49</course>
  <speed>0.01</speed>
  <fix>3d</fix>
</trkpt>
<trkpt lat="33.8111941" lon="-118.3930588">
  <ele>-23.92</ele>
  <time>2026-09-01T01:14:36Z</time>
  <course>38.13</course>
  <speed>0.03</speed>
  <fix>3d</fix>
</trkpt>
<trkpt lat="33.8111939" lon="-118.3930588">
  <ele>-24.48</ele>
  <time>2026-09-01T01:14:36Z</time>
  <course>54.48</course>
  <speed>0.01</speed>
  <fix>3d</fix>
</trkpt>
<trkpt lat="33.8111941" lon="-118.3930588">
  <ele>-23.92</ele>
  <time>2026-09-01T01:14:36Z</time>
  <course>38.13</course>
  <speed>0.03</speed>
  <fix>3d</fix>
</trkpt>
<trkpt lat="33.8111939" lon="-118.3930588">
  <ele>-24.471</ele>
  <time>2026-09-01T01:14:36Z</time>
  <course>54.47</course>
  <speed>0.01</speed>
  <fix>3d</fix>
</trkpt>
<trkpt lat="33.8111941" lon="-118.3930588">
  <ele>-23.9</ele>
  <time>2026-09-01T01:14:36Z</time>
  <course>37.82</course>
  <speed>0.03</speed>
  <fix>3d</fix>
</trkpt>
<trkpt lat="33.8111939" lon="-118.3930588">
  <ele>-24.462</ele>
  <time>2026-09-01T01:14:36Z</time>
  <course>54.47</course>
  <speed>0.01</speed>
  <fix>3d</fix>
</trkpt>
<trkpt lat="33.8111941" lon="-118.3930588">
  <ele>-23.9</ele>
  <time>2026-09-01T01:14:36Z</time>
  <course>37.82</course>
  <speed>0.03</speed>
  <fix>3d</fix>
</trkpt>
<trkpt lat="33.8111939" lon="-118.3930588">
  <ele>-24.454</ele>
  <time>2026-09-01T01:14:36Z</time>
  <course>54.46</course>
  <speed>0.01</speed>
  <fix>3d</fix>
</trkpt>
<trkpt lat="33.8111941" lon="-118.3930587">
  <ele>-23.88</ele>
  <time>2026-09-01T01:14:36Z</time>
  <course>37.5</course>
  <speed>0.03</speed>
  <fix>3d</fix>
</trkpt>
<trkpt lat="33.811194" lon="-118.3930587">
  <ele>-24.444</ele>
  <time>2026-09-01T01:14:36Z</time>
  <course>54.45</course>
  <speed>0.01</speed>
  <fix>3d</fix>
</trkpt>
<trkpt lat="33.8111941" lon="-118.3930587">
  <ele>-23.88</ele>
  <time>2026-09-01T01:14:36Z</time>
  <course>37.5</course>
  <speed>0.03</speed>
  <fix>3d</fix>
</trkpt>
<trkpt lat="33.811194" lon="-118.3930587">
  <ele>-24.435</ele>
  <time>2026-09-01T01:14:36Z</time>
  <course>54.45</course>
  <speed>0.01</speed>
  <fix>3d</fix>
</trkpt>
<trkpt lat="33.8111942" lon="-118.3930587">
  <ele>-23.86</ele>
  <time>2026-09-01T01:14:36Z</time>
  <course>37.18</course>
  <speed>0.03</speed>
  <fix>3d</fix>
</trkpt>
<trkpt lat="33.811194" lon="-118.3930587">
  <ele>-24.426</ele>
  <time>2026-09-01T01:14:36Z</time>
  <course>54.44</course>
  <speed>0.01</speed>
  <fix>3d</fix>
</trkpt>
<trkpt lat="33.8111942" lon="-118.3930587">
  <ele>-23.86</ele>
  <time>2026-09-01T01:14:36Z</time>
  <course>37.18</course>
  <speed>0.03</speed>
  <fix>3d</fix>
</trkpt>
<trkpt lat="33.811194" lon="-118.3930587">
  <ele>-24.417</ele>
  <time>2026-09-01T01:14:36Z</time>
  <course>54.43</course>
  <speed>0.01</speed>
  <fix>3d</fix>
</trkpt>
<trkpt lat="33.8111942" lon="-118.3930586">
  <ele>-23.84</ele>
  <time>2026-09-01T01:14:36Z</time>
  <course>36.89</course>
  <speed>0.03</speed>
  <fix>3d</fix>
</trkpt>
<trkpt lat="33.811194" lon="-118.3930587">
  <ele>-24.409</ele>
  <time>2026-09-01T01:14:36Z</time>
  <course>54.42</course>
  <speed>0.01</speed>
  <fix>3d</fix>
</trkpt>
<trkpt lat="33.8111942" lon="-118.3930586">
  <ele>-23.84</ele>
  <time>2026-09-01T01:14:36Z</time>
  <course>36.89</course>
  <speed>0.03</speed>
  <fix>3d</fix>
</trkpt>
<trkpt lat="33.811194" lon="-118.3930586">
  <ele>-24.4</ele>
  <time>2026-09-01T01:14:36Z</time>
  <course>54.42</course>
  <speed>0.01</speed>
  <fix>3d</fix>
</trkpt>
<trkpt lat="33.8111943" lon="-118.3930586">
  <ele>-23.83</ele>
  <time>2026-09-01T01:14:36Z</time>
  <course>36.62</course>
  <speed>0.03</speed>
  <fix>3d</fix>
</trkpt>
<trkpt lat="33.8111941" lon="-118.3930586">
  <ele>-24.392</ele>
  <time>2026-09-01T01:14:36Z</time>
  <course>54.41</course>
  <speed>0.01</speed>
  <fix>3d</fix>
</trkpt>
<trkpt lat="33.8111943" lon="-118.3930586">
  <ele>-23.83</ele>
  <time>2026-09-01T01:14:36Z</time>
  <course>36.62</course>
  <speed>0.03</speed>
  <fix>3d</fix>
</trkpt>
<trkpt lat="33.8111941" lon="-118.3930586">
  <ele>-24.383</ele>
  <time>2026-09-01T01:14:36Z</time>
  <course>55.13</course>
  <speed>0.01</speed>
  <fix>3d</fix>
</trkpt>
<trkpt lat="33.8111944" lon="-118.3930586">
  <ele>-23.81</ele>
  <time>2026-09-01T01:14:36Z</time>
  <course>36.13</course>
  <speed>0.03</speed>
  <fix>3d</fix>
</trkpt>
<trkpt lat="33.8111941" lon="-118.3930586">
  <ele>-24.375</ele>
  <time>2026-09-01T01:14:36Z</time>
  <course>57.46</course>
  <speed>0.0316227766016838</speed>
  <fix>3d</fix>
</trkpt>
<trkpt lat="33.8111944" lon="-118.3930586">
  <ele>-23.81</ele>
  <time>2026-09-01T01:14:36Z</time>
  <course>36.13</course>
  <speed>0.03</speed>
  <fix>3d</fix>
</trkpt>
<trkpt lat="33.8111941" lon="-118.3930586">
  <ele>-24.368</ele>
  <time>2026-09-01T01:14:36Z</time>
  <course>60.57</course>
  <speed>0.05830951894845301</speed>
  <fix>3d</fix>
</trkpt>
<trkpt lat="33.8111944" lon="-118.3930586">
  <ele>-23.79</ele>
  <time>2026-09-01T01:14:36Z</time>
  <course>18.57</course>
  <speed>0.01</speed>
  <fix>3d</fix>
</trkpt>
<trkpt lat="33.811194" lon="-118.3930587">
  <ele>-24.363</ele>
  <time>2026-09-01T01:14:36Z</time>
  <course>64.09</course>
  <speed>0.1</speed>
  <fix>3d</fix>
</trkpt>
<trkpt lat="33.8111944" lon="-118.3930586">
  <ele>-23.79</ele>
  <time>2026-09-01T01:14:36Z</time>
  <course>18.57</course>
  <speed>0.01</speed>
  <fix>3d</fix>
</trkpt>
<trkpt lat="33.811194" lon="-118.3930587">
  <ele>-24.358</ele>
  <time>2026-09-01T01:14:36Z</time>
  <course>67.88</course>
  <speed>0.14866068747318506</speed>
  <fix>3d</fix>
</trkpt>
<trkpt lat="33.8111944" lon="-118.3930586">
  <ele>-23.77</ele>
  <time>2026-09-01T01:14:36Z</time>
  <course>230.97</course>
  <speed>0.04</speed>
  <fix>3d</fix>
</trkpt>
<trkpt lat="33.811194" lon="-118.3930588">
  <ele>-24.354</ele>
  <time>2026-09-01T01:14:36Z</time>
  <course>71.89</course>
  <speed>0.20518284528683192</speed>
  <fix>3d</fix>
</trkpt>
<trkpt lat="33.8111944" lon="-118.3930586">
  <ele>-23.77</ele>
  <time>2026-09-01T01:14:36Z</time>
  <course>230.97</course>
  <speed>0.04</speed>
  <fix>3d</fix>
</trkpt>
<trkpt lat="33.8111939" lon="-118.393059">
  <ele>-24.349</ele>
  <time>2026-09-01T01:14:36Z</time>
  <course>76.09</course>
  <speed>0.26870057685088805</speed>
  <fix>3d</fix>
</trkpt>
<trkpt lat="33.8111943" lon="-118.3930586">
  <ele>-23.76</ele>
  <time>2026-09-01T01:14:36Z</time>
  <course>228.18</course>
  <speed>0.14</speed>
  <fix>3d</fix>
</trkpt>
<trkpt lat="33.8111937" lon="-118.3930592">
  <ele>-24.345</ele>
  <time>2026-09-01T01:14:36Z</time>
  <course>80.49</course>
  <speed>0.34655446902326914</speed>
  <fix>3d</fix>
</trkpt>
<trkpt lat="33.8111943" lon="-118.3930586">
  <ele>-23.76</ele>
  <time>2026-09-01T01:14:36Z</time>
  <course>228.18</course>
  <speed>0.14</speed>
  <fix>3d</fix>
</trkpt>
<trkpt lat="33.8111935" lon="-118.3930595">
  <ele>-24.339</ele>
  <time>2026-09-01T01:14:36Z</time>
  <course>85.08</course>
  <speed>0.42449970553582245</speed>
  <fix>3d</fix>
</trkpt>
<trkpt lat="33.8111941" lon="-118.393059">
  <ele>-23.75</ele>
  <time>2026-09-01T01:14:36Z</time>
  <course>227.97</course>
  <speed>0.27</speed>
  <fix>3d</fix>
</trkpt>
<trkpt lat="33.8111932" lon="-118.3930599">
  <ele>-24.332</ele>
  <time>2026-09-01T01:14:36Z</time>
  <course>89.88</course>
  <speed>0.5093132631298737</speed>
  <fix>3d</fix>
</trkpt>
<trkpt lat="33.8111941" lon="-118.393059">
  <ele>-23.75</ele>
  <time>2026-09-01T01:14:36Z</time>
  <course>227.97</course>
  <speed>0.27</speed>
  <fix>3d</fix>
</trkpt>
<trkpt lat="33.8111929" lon="-118.3930603">
  <ele>-24.322</ele>
  <time>2026-09-01T01:14:36Z</time>
  <course>94.85</course>
  <speed>0.5805170109479997</speed>
  <fix>3d</fix>
</trkpt>
<trkpt lat="33.8111937" lon="-118.3930595">
  <ele>-23.74</ele>
  <time>2026-09-01T01:14:36Z</time>
  <course>228.35</course>
  <speed>0.42</speed>
  <fix>3d</fix>
</trkpt>
<trkpt lat="33.8111926" lon="-118.3930608">
  <ele>-24.307</ele>
  <time>2026-09-01T01:14:36Z</time>
  <course>100.05</course>
  <speed>0.644437739428721</speed>
  <fix>3d</fix>
</trkpt>
<trkpt lat="33.8111937" lon="-118.3930595">
  <ele>-23.74</ele>
  <time>2026-09-01T01:14:36Z</time>
  <course>228.35</course>
  <speed>0.42</speed>
  <fix>3d</fix>
</trkpt>
<trkpt lat="33.8111922" lon="-118.3930613">
  <ele>-24.289</ele>
  <time>2026-09-01T01:14:36Z</time>
  <course>105.46</course>
  <speed>0.70178344238091</speed>
  <fix>3d</fix>
</trkpt>
<trkpt lat="33.8111931" lon="-118.3930603">
  <ele>-23.73</ele>
  <time>2026-09-01T01:14:36Z</time>
  <course>229.11</course>
  <speed>0.57</speed>
  <fix>3d</fix>
</trkpt>
<trkpt lat="33.8111918" lon="-118.3930619">
  <ele>-24.269</ele>
  <time>2026-09-01T01:14:36Z</time>
  <course>111.14</course>
  <speed>0.7516648189186453</speed>
  <fix>3d</fix>
</trkpt>
<trkpt lat="33.8111931" lon="-118.3930603">
  <ele>-23.73</ele>
  <time>2026-09-01T01:14:36Z</time>
  <course>229.11</course>
  <speed>0.57</speed>
  <fix>3d</fix>
</trkpt>
<trkpt lat="33.8111914" lon="-118.3930625">
  <ele>-24.247</ele>
  <time>2026-09-01T01:14:36Z</time>
  <course>117.16</course>
  <speed>0.7874642849044012</speed>
  <fix>3d</fix>
</trkpt>
<trkpt lat="33.8111923" lon="-118.3930614">
  <ele>-23.7</ele>
  <time>2026-09-01T01:14:36Z</time>
  <course>230.06</course>
  <speed>0.69</speed>
  <fix>3d</fix>
</trkpt>
<trkpt lat="33.811191" lon="-118.3930631">
  <ele>-24.224</ele>
  <time>2026-09-01T01:14:36Z</time>
  <course>123.44</course>
  <speed>0.8091971329657563</speed>
  <fix>3d</fix>
</trkpt>
<trkpt lat="33.8111923" lon="-118.3930614">
  <ele>-23.7</ele>
  <time>2026-09-01T01:14:36Z</time>
  <course>230.06</course>
  <speed>0.69</speed>
  <fix>3d</fix>
</trkpt>
<trkpt lat="33.8111906" lon="-118.3930638">
  <ele>-24.2</ele>
  <time>2026-09-01T01:14:36Z</time>
  <course>130.02</course>
  <speed>0.8297590011563598</speed>
  <fix>3d</fix>
</trkpt>
<trkpt lat="33.8111915" lon="-118.3930626">
  <ele>-23.66</ele>
  <time>2026-09-01T01:14:36Z</time>
  <course>230.71</course>
  <speed>0.77</speed>
  <fix>3d</fix>
</trkpt>
<trkpt lat="33.8111901" lon="-118.3930644">
  <ele>-24.177</ele>
  <time>2026-09-01T01:14:36Z</time>
  <course>136.78</course>
  <speed>0.8429116205154606</speed>
  <fix>3d</fix>
</trkpt>
<trkpt lat="33.8111915" lon="-118.3930626">
  <ele>-23.66</ele>
  <time>2026-09-01T01:14:36Z</time>
  <course>230.71</course>
  <speed>0.77</speed>
  <fix>3d</fix>
</trkpt>
<trkpt lat="33.8111896" lon="-118.3930651">
  <ele>-24.154</ele>
  <time>2026-09-01T01:14:36Z</time>
  <course>143.61</course>
  <speed>0.8558621384311844</speed>
  <fix>3d</fix>
</trkpt>
<trkpt lat="33.8111906" lon="-118.3930639">
  <ele>-23.61</ele>
  <time>2026-09-01T01:14:36Z</time>
  <course>229.86</course>
  <speed>0.81</speed>
  <fix>3d</fix>
</trkpt>
<trkpt lat="33.8111891" lon="-118.3930657">
  <ele>-24.131</ele>
  <time>2026-09-01T01:14:36Z</time>
  <course>150.45</course>
  <speed>0.8768124086713189</speed>
  <fix>3d</fix>
</trkpt>
<trkpt lat="33.8111906" lon="-118.3930639">
  <ele>-23.61</ele>
  <time>2026-09-01T01:14:36Z</time>
  <course>229.86</course>
  <speed>0.81</speed>
  <fix>3d</fix>
</trkpt>
<trkpt lat="33.8111886" lon="-118.3930664">
  <ele>-24.109</ele>
  <time>2026-09-01T01:14:36Z</time>
  <course>157.22</course>
  <speed>0.8910667763978185</speed>
  <fix>3d</fix>
</trkpt>
<trkpt lat="33.8111896" lon="-118.3930653">
  <ele>-23.57</ele>
  <time>2026-09-01T01:14:36Z</time>
  <course>227.29</course>
  <speed>0.84</speed>
  <fix>3d</fix>
</trkpt>
<trkpt lat="33.811188" lon="-118.3930671">
  <ele>-24.086</ele>
  <time>2026-09-01T01:14:36Z</time>
  <course>163.89</course>
  <speed>0.9193475947648964</speed>
  <fix>3d</fix>
</trkpt>
<trkpt lat="33.8111896" lon="-118.3930653">
  <ele>-23.57</ele>
  <time>2026-09-01T01:14:36Z</time>
  <course>227.29</course>
  <speed>0.84</speed>
  <fix>3d</fix>
</trkpt>
<trkpt lat="33.8111874" lon="-118.3930678">
  <ele>-24.062</ele>
  <time>2026-09-01T01:14:36Z</time>
  <course>170.41</course>
  <speed>0.9404786015641186</speed>
  <fix>3d</fix>
</trkpt>
<trkpt lat="33.8111885" lon="-118.3930666">
  <ele>-23.52</ele>
  <time>2026-09-01T01:14:37Z</time>
  <course>225.23</course>
  <speed>0.88</speed>
  <fix>3d</fix>
</trkpt>
<trkpt lat="33.8111868" lon="-118.3930685">
  <ele>-24.038</ele>
  <time>2026-09-01T01:14:37Z</time>
  <course>176.71</course>
  <speed>0.9546203433826455</speed>
  <fix>3d</fix>
</trkpt>
<trkpt lat="33.8111885" lon="-118.3930666">
  <ele>-23.52</ele>
  <time>2026-09-01T01:14:37Z</time>
  <course>225.23</course>
  <speed>0.88</speed>
  <fix>3d</fix>
</trkpt>
<trkpt lat="33.8111863" lon="-118.3930692">
  <ele>-24.015</ele>
  <time>2026-09-01T01:14:37Z</time>
  <course>182.83</course>
  <speed>0.9689685237405805</speed>
  <fix>3d</fix>
</trkpt>
<trkpt lat="33.8111874" lon="-118.393068">
  <ele>-23.48</ele>
  <time>2026-09-01T01:14:37Z</time>
  <course>225.56</course>
  <speed>0.92</speed>
  <fix>3d</fix>
</trkpt>
<trkpt lat="33.8111857" lon="-118.39307">
  <ele>-23.99</ele>
  <time>2026-09-01T01:14:37Z</time>
  <course>188.83</course>
  <speed>0.9767292357659824</speed>
  <fix>3d</fix>
</trkpt>
<trkpt lat="33.8111874" lon="-118.393068">
  <ele>-23.48</ele>
  <time>2026-09-01T01:14:37Z</time>
  <course>225.56</course>
  <speed>0.92</speed>
  <fix>3d</fix>
</trkpt>
<trkpt lat="33.8111851" lon="-118.3930708">
  <ele>-23.967</ele>
  <time>2026-09-01T01:14:37Z</time>
  <course>194.78</course>
  <speed>0.9783659846908007</speed>
  <fix>3d</fix>
</trkpt>
<trkpt lat="33.8111862" lon="-118.3930695">
  <ele>-23.43</ele>
  <time>2026-09-01T01:14:37Z</time>
  <course>227.61</course>
  <speed>0.95</speed>
  <fix>3d</fix>
</trkpt>
<trkpt lat="33.8111846" lon="-118.3930716">
  <ele>-23.943</ele>
  <time>2026-09-01T01:14:37Z</time>
  <course>200.76</course>
  <speed>0.9654014708917736</speed>
  <fix>3d</fix>
</trkpt>
<trkpt lat="33.8111862" lon="-118.3930695">
  <ele>-23.43</ele>
  <time>2026-09-01T01:14:37Z</time>
  <course>227.61</course>
  <speed>0.95</speed>
  <fix>3d</fix>
</trkpt>
<trkpt lat="33.8111841" lon="-118.3930723">
  <ele>-23.92</ele>
  <time>2026-09-01T01:14:37Z</time>
  <course>206.65</course>
  <speed>0.9526804291051643</speed>
  <fix>3d</fix>
</trkpt>
<trkpt lat="33.8111851" lon="-118.393071">
  <ele>-23.39</ele>
  <time>2026-09-01T01:14:37Z</time>
  <course>229.9</course>
  <speed>0.95</speed>
  <fix>3d</fix>
</trkpt>
<trkpt lat="33.8111836" lon="-118.3930731">
  <ele>-23.896</ele>
  <time>2026-09-01T01:14:37Z</time>
  <course>212.18</course>
  <speed>0.9261749294814667</speed>
  <fix>3d</fix>
</trkpt>
<trkpt lat="33.8111851" lon="-118.393071">
  <ele>-23.39</ele>
  <time>2026-09-01T01:14:37Z</time>
  <course>229.9</course>
  <speed>0.95</speed>
  <fix>3d</fix>
</trkpt>
<trkpt lat="33.8111831" lon="-118.3930739">
  <ele>-23.873</ele>
  <time>2026-09-01T01:14:37Z</time>
  <course>217.11</course>
  <speed>0.904267659490264</speed>
  <fix>3d</fix>
</trkpt>
<trkpt lat="33.811184" lon="-118.3930727">
  <ele>-23.34</ele>
  <time>2026-09-01T01:14:37Z</time>
  <course>231.78</course>
  <speed>0.93</speed>
  <fix>3d</fix>
</trkpt>
<trkpt lat="33.8111826" lon="-118.3930746">
  <ele>-23.85</ele>
  <time>2026-09-01T01:14:37Z</time>
  <course>221.36</course>
  <speed>0.8886506625215557</speed>
  <fix>3d</fix>
</trkpt>
<trkpt lat="33.811184" lon="-118.3930727">
  <ele>-23.34</ele>
  <time>2026-09-01T01:14:37Z</time>
  <course>231.78</course>
  <speed>0.93</speed>
  <fix>3d</fix>
</trkpt>
<trkpt lat="33.8111821" lon="-118.3930754">
  <ele>-23.828</ele>
  <time>2026-09-01T01:14:37Z</time>
  <course>224.9</course>
  <speed>0.873212459828649</speed>
  <fix>3d</fix>
</trkpt>
<trkpt lat="33.811183" lon="-118.3930742">
  <ele>-23.3</ele>
  <time>2026-09-01T01:14:37Z</time>
  <course>232.16</course>
  <speed>0.88</speed>
  <fix>3d</fix>
</trkpt>
<trkpt lat="33.8111816" lon="-118.3930761">
  <ele>-23.806</ele>
  <time>2026-09-01T01:14:37Z</time>
  <course>227.55</course>
  <speed>0.872066511224918</speed>
  <fix>3d</fix>
</trkpt>
<trkpt lat="33.811183" lon="-118.3930742">
  <ele>-23.3</ele>
  <time>2026-09-01T01:14:37Z</time>
  <course>232.16</course>
  <speed>0.88</speed>
  <fix>3d</fix>
</trkpt>
<trkpt lat="33.8111811" lon="-118.3930768">
  <ele>-23.785</ele>
  <time>2026-09-01T01:14:37Z</time>
  <course>229.22</course>
  <speed>0.8711486669908873</speed>
  <fix>3d</fix>
</trkpt>
<trkpt lat="33.811182" lon="-118.3930757">
  <ele>-23.26</ele>
  <time>2026-09-01T01:14:37Z</time>
  <course>230.62</course>
  <speed>0.86</speed>
  <fix>3d</fix>
</trkpt>
<trkpt lat="33.8111806" lon="-118.3930775">
  <ele>-23.765</ele>
  <time>2026-09-01T01:14:37Z</time>
  <course>230.13</course>
  <speed>0.8704596486914256</speed>
  <fix>3d</fix>
</trkpt>
<trkpt lat="33.811182" lon="-118.3930757">
  <ele>-23.26</ele>
  <time>2026-09-01T01:14:37Z</time>
  <course>230.62</course>
  <speed>0.86</speed>
  <fix>3d</fix>
</trkpt>
<trkpt lat="33.8111801" lon="-118.3930782">
  <ele>-23.743</ele>
  <time>2026-09-01T01:14:37Z</time>
  <course>230.57</course>
  <speed>0.8704596486914256</speed>
  <fix>3d</fix>
</trkpt>
<trkpt lat="33.8111811" lon="-118.3930771">
  <ele>-23.22</ele>
  <time>2026-09-01T01:14:37Z</time>
  <course>228.84</course>
  <speed>0.85</speed>
  <fix>3d</fix>
</trkpt>
<trkpt lat="33.8111796" lon="-118.3930789">
  <ele>-23.722</ele>
  <time>2026-09-01T01:14:37Z</time>
  <course>230.79</course>
  <speed>0.8772684879784524</speed>
  <fix>3d</fix>
</trkpt>
<trkpt lat="33.8111811" lon="-118.3930771">
  <ele>-23.22</ele>
  <time>2026-09-01T01:14:37Z</time>
  <course>228.84</course>
  <speed>0.85</speed>
  <fix>3d</fix>
</trkpt>
<trkpt lat="33.8111791" lon="-118.3930796">
  <ele>-23.702</ele>
  <time>2026-09-01T01:14:37Z</time>
  <course>230.95</course>
  <speed>0.8704596486914256</speed>
  <fix>3d</fix>
</trkpt>
<trkpt lat="33.81118" lon="-118.3930785">
  <ele>-23.17</ele>
  <time>2026-09-01T01:14:37Z</time>
  <course>227.84</course>
  <speed>0.85</speed>
  <fix>3d</fix>
</trkpt>
<trkpt lat="33.8111785" lon="-118.3930803">
  <ele>-23.682</ele>
  <time>2026-09-01T01:14:37Z</time>
  <course>231.1</course>
  <speed>0.8704596486914256</speed>
  <fix>3d</fix>
</trkpt>
<trkpt lat="33.81118" lon="-118.3930785">
  <ele>-23.17</ele>
  <time>2026-09-01T01:14:37Z</time>
  <course>227.84</course>
  <speed>0.85</speed>
  <fix>3d</fix>
</trkpt>
<trkpt lat="33.811178" lon="-118.3930809">
  <ele>-23.662</ele>
  <time>2026-09-01T01:14:37Z</time>
  <course>231.26</course>
  <speed>0.8704596486914256</speed>
  <fix>3d</fix>
</trkpt>
<trkpt lat="33.8111789" lon="-118.3930799">
  <ele>-23.13</ele>
  <time>2026-09-01T01:14:37Z</time>
  <course>227.53</course>
  <speed>0.85</speed>
  <fix>3d</fix>
</trkpt>
<trkpt lat="33.8111775" lon="-118.3930816">
  <ele>-23.641</ele>
  <time>2026-09-01T01:14:37Z</time>
  <course>231.42</course>
  <speed>0.8704596486914256</speed>
  <fix>3d</fix>
</trkpt>
<trkpt lat="33.8111789" lon="-118.3930799">
  <ele>-23.13</ele>
  <time>2026-09-01T01:14:37Z</time>
  <course>227.53</course>
  <speed>0.85</speed>
  <fix>3d</fix>
</trkpt>
<trkpt lat="33.811177" lon="-118.3930823">
  <ele>-23.62</ele>
  <time>2026-09-01T01:14:37Z</time>
  <course>231.59</course>
  <speed>0.8637129152675673</speed>
  <fix>3d</fix>
</trkpt>
<trkpt lat="33.811178" lon="-118.3930812">
  <ele>-23.09</ele>
  <time>2026-09-01T01:14:37Z</time>
  <course>227.58</course>
  <speed>0.84</speed>
  <fix>3d</fix>
</trkpt>
<trkpt lat="33.8111765" lon="-118.393083">
  <ele>-23.599</ele>
  <time>2026-09-01T01:14:37Z</time>
  <course>231.74</course>
  <speed>0.8637129152675673</speed>
  <fix>3d</fix>
</trkpt>
<trkpt lat="33.811178" lon="-118.3930812">
  <ele>-23.09</ele>
  <time>2026-09-01T01:14:37Z</time>
  <course>227.58</course>
  <speed>0.84</speed>
  <fix>3d</fix>
</trkpt>
<trkpt lat="33.811176" lon="-118.3930837">
  <ele>-23.578</ele>
  <time>2026-09-01T01:14:37Z</time>
  <course>231.87</course>
  <speed>0.8637129152675673</speed>
  <fix>3d</fix>
</trkpt>
<trkpt lat="33.811177" lon="-118.3930826">
  <ele>-23.05</ele>
  <time>2026-09-01T01:14:37Z</time>
  <course>227.71</course>
  <speed>0.84</speed>
  <fix>3d</fix>
</trkpt>
<trkpt lat="33.8111755" lon="-118.3930844">
  <ele>-23.556</ele>
  <time>2026-09-01T01:14:37Z</time>
  <course>231.97</course>
  <speed>0.8637129152675673</speed>
  <fix>3d</fix>
</trkpt>
<trkpt lat="33.811177" lon="-118.3930826">
  <ele>-23.05</ele>
  <time>2026-09-01T01:14:37Z</time>
  <course>227.71</course>
  <speed>0.84</speed>
  <fix>3d</fix>
</trkpt>
<trkpt lat="33.811175" lon="-118.393085">
  <ele>-23.535</ele>
  <time>2026-09-01T01:14:37Z</time>
  <course>232.05</course>
  <speed>0.8495881355103778</speed>
  <fix>3d</fix>
</trkpt>
<trkpt lat="33.8111759" lon="-118.3930839">
  <ele>-23.01</ele>
  <time>2026-09-01T01:14:37Z</time>
  <course>227.78</course>
  <speed>0.84</speed>
  <fix>3d</fix>
</trkpt>
<trkpt lat="33.8111745" lon="-118.3930857">
  <ele>-23.513</ele>
  <time>2026-09-01T01:14:37Z</time>
  <course>232.12</course>
  <speed>0.8495881355103778</speed>
  <fix>3d</fix>
</trkpt>
<trkpt lat="33.8111759" lon="-118.3930839">
  <ele>-23.01</ele>
  <time>2026-09-01T01:14:37Z</time>
  <course>227.78</course>
  <speed>0.84</speed>
  <fix>3d</fix>
</trkpt>
<trkpt lat="33.811174" lon="-118.3930864">
  <ele>-23.492</ele>
  <time>2026-09-01T01:14:37Z</time>
  <course>232.19</course>
  <speed>0.8495881355103778</speed>
  <fix>3d</fix>
</trkpt>
<trkpt lat="33.8111749" lon="-118.3930853">
  <ele>-22.97</ele>
  <time>2026-09-01T01:14:37Z</time>
  <course>227.84</course>
  <speed>0.83</speed>
  <fix>3d</fix>
</trkpt>
<trkpt lat="33.8111735" lon="-118.3930871">
  <ele>-23.471</ele>
  <time>2026-09-01T01:14:37Z</time>
  <course>232.26</course>
  <speed>0.8495881355103778</speed>
  <fix>3d</fix>
</trkpt>
<trkpt lat="33.8111749" lon="-118.3930853">
  <ele>-22.97</ele>
  <time>2026-09-01T01:14:37Z</time>
  <course>227.84</course>
  <speed>0.83</speed>
  <fix>3d</fix>
</trkpt>
<trkpt lat="33.811173" lon="-118.3930877">
  <ele>-23.452</ele>
  <time>2026-09-01T01:14:37Z</time>
  <course>232.33</course>
  <speed>0.8429116205154606</speed>
  <fix>3d</fix>
</trkpt>
<trkpt lat="33.8111739" lon="-118.3930866">
  <ele>-22.93</ele>
  <time>2026-09-01T01:14:37Z</time>
  <course>227.92</course>
  <speed>0.83</speed>
  <fix>3d</fix>
</trkpt>
<trkpt lat="33.8111725" lon="-118.3930884">
  <ele>-23.433</ele>
  <time>2026-09-01T01:14:37Z</time>
  <course>232.4</course>
  <speed>0.8429116205154606</speed>
  <fix>3d</fix>
</trkpt>
<trkpt lat="33.8111739" lon="-118.3930866">
  <ele>-22.93</ele>
  <time>2026-09-01T01:14:37Z</time>
  <course>227.92</course>
  <speed>0.83</speed>
  <fix>3d</fix>
</trkpt>
<trkpt lat="33.811172" lon="-118.3930891">
  <ele>-23.415</ele>
  <time>2026-09-01T01:14:37Z</time>
  <course>232.46</course>
  <speed>0.8429116205154606</speed>
  <fix>3d</fix>
</trkpt>
<trkpt lat="33.8111729" lon="-118.3930879">
  <ele>-22.89</ele>
  <time>2026-09-01T01:14:37Z</time>
  <course>227.99</course>
  <speed>0.82</speed>
  <fix>3d</fix>
</trkpt>
<trkpt lat="33.8111716" lon="-118.3930897">
  <ele>-23.396</ele>
  <time>2026-09-01T01:14:37Z</time>
  <course>232.53</course>
  <speed>0.8429116205154606</speed>
  <fix>3d</fix>
</trkpt>
<trkpt lat="33.8111729" lon="-118.3930879">
  <ele>-22.89</ele>
  <time>2026-09-01T01:14:37Z</time>
  <course>227.99</course>
  <speed>0.82</speed>
  <fix>3d</fix>
</trkpt>
<trkpt lat="33.8111711" lon="-118.3930904">
  <ele>-23.378</ele>
  <time>2026-09-01T01:14:37Z</time>
  <course>232.59</course>
  <speed>0.836301381082203</speed>
  <fix>3d</fix>
</trkpt>
<trkpt lat="33.8111719" lon="-118.3930893">
  <ele>-22.85</ele>
  <time>2026-09-01T01:14:37Z</time>
  <course>228.07</course>
  <speed>0.82</speed>
  <fix>3d</fix>
</trkpt>
<trkpt lat="33.8111706" lon="-118.3930911">
  <ele>-23.359</ele>
  <time>2026-09-01T01:14:37Z</time>
  <course>232.64</course>
  <speed>0.836301381082203</speed>
  <fix>3d</fix>
</trkpt>
<trkpt lat="33.8111719" lon="-118.3930893">
  <ele>-22.85</ele>
  <time>2026-09-01T01:14:37Z</time>
  <course>228.07</course>
  <speed>0.82</speed>
  <fix>3d</fix>
</trkpt>
<trkpt lat="33.8111701" lon="-118.3930917">
  <ele>-23.339</ele>
  <time>2026-09-01T01:14:37Z</time>
  <course>232.69</course>
  <speed>0.836301381082203</speed>
  <fix>3d</fix>
</trkpt>
<trkpt lat="33.8111709" lon="-118.3930906">
  <ele>-22.82</ele>
  <time>2026-09-01T01:14:37Z</time>
  <course>228.14</course>
  <speed>0.82</speed>
  <fix>3d</fix>
</trkpt>
<trkpt lat="33.8111696" lon="-118.3930924">
  <ele>-23.32</ele>
  <time>2026-09-01T01:14:37Z</time>
  <course>232.73</course>
  <speed>0.836301381082203</speed>
  <fix>3d</fix>
</trkpt>
<trkpt lat="33.8111709" lon="-118.3930906">
  <ele>-22.82</ele>
  <time>2026-09-01T01:14:37Z</time>
  <course>228.14</course>
  <speed>0.82</speed>
  <fix>3d</fix>
</trkpt>
<trkpt lat="33.8111691" lon="-118.3930931">
  <ele>-23.3</ele>
  <time>2026-09-01T01:14:37Z</time>
  <course>232.78</course>
  <speed>0.8297590011563598</speed>
  <fix>3d</fix>
</trkpt>
<trkpt lat="33.81117" lon="-118.3930919">
  <ele>-22.77</ele>
  <time>2026-09-01T01:14:37Z</time>
  <course>228.19</course>
  <speed>0.82</speed>
  <fix>3d</fix>
</trkpt>
<trkpt lat="33.8111687" lon="-118.3930937">
  <ele>-23.28</ele>
  <time>2026-09-01T01:14:37Z</time>
  <course>232.81</course>
  <speed>0.8221921916437787</speed>
  <fix>3d</fix>
</trkpt>
<trkpt lat="33.81117" lon="-118.3930919">
  <ele>-22.77</ele>
  <time>2026-09-01T01:14:37Z</time>
  <course>228.19</course>
  <speed>0.82</speed>
  <fix>3d</fix>
</trkpt>
<trkpt lat="33.8111682" lon="-118.3930944">
  <ele>-23.26</ele>
  <time>2026-09-01T01:14:37Z</time>
  <course>232.83</course>
  <speed>0.8221921916437787</speed>
  <fix>3d</fix>
</trkpt>
<trkpt lat="33.811169" lon="-118.3930932">
  <ele>-22.74</ele>
  <time>2026-09-01T01:14:37Z</time>
  <course>228.2</course>
  <speed>0.81</speed>
  <fix>3d</fix>
</trkpt>
<trkpt lat="33.8111677" lon="-118.393095">
  <ele>-23.24</ele>
  <time>2026-09-01T01:14:37Z</time>
  <course>232.85</course>
  <speed>0.8221921916437787</speed>
  <fix>3d</fix>
</trkpt>
<trkpt lat="33.811169" lon="-118.3930932">
  <ele>-22.74</ele>
  <time>2026-09-01T01:14:37Z</time>
  <course>228.2</course>
  <speed>0.81</speed>
  <fix>3d</fix>
</trkpt>
<trkpt lat="33.8111672" lon="-118.3930957">
  <ele>-23.219</ele>
  <time>2026-09-01T01:14:37Z</time>
  <course>232.87</course>
  <speed>0.8221921916437787</speed>
  <fix>3d</fix>
</trkpt>
<trkpt lat="33.8111679" lon="-118.3930945">
  <ele>-22.7</ele>
  <time>2026-09-01T01:14:37Z</time>
  <course>228.2</course>
  <speed>0.81</speed>
  <fix>3d</fix>
</trkpt>
<trkpt lat="33.8111667" lon="-118.3930964">
  <ele>-23.198</ele>
  <time>2026-09-01T01:14:37Z</time>
  <course>232.91</course>
  <speed>0.8221921916437787</speed>
  <fix>3d</fix>
</trkpt>
<trkpt lat="33.8111679" lon="-118.3930945">
  <ele>-22.7</ele>
  <time>2026-09-01T01:14:37Z</time>
  <course>228.2</course>
  <speed>0.81</speed>
  <fix>3d</fix>
</trkpt>
<trkpt lat="33.8111663" lon="-118.393097">
  <ele>-23.179</ele>
  <time>2026-09-01T01:14:37Z</time>
  <course>232.97</course>
  <speed>0.815659242576212</speed>
  <fix>3d</fix>
</trkpt>
<trkpt lat="33.811167" lon="-118.3930959">
  <ele>-22.66</ele>
  <time>2026-09-01T01:14:37Z</time>
  <course>228.28</course>
  <speed>0.81</speed>
  <fix>3d</fix>
</trkpt>
<trkpt lat="33.8111658" lon="-118.3930977">
  <ele>-23.161</ele>
  <time>2026-09-01T01:14:37Z</time>
  <course>233.02</course>
  <speed>0.815659242576212</speed>
  <fix>3d</fix>
</trkpt>
<trkpt lat="33.811167" lon="-118.3930959">
  <ele>-22.66</ele>
  <time>2026-09-01T01:14:37Z</time>
  <course>228.28</course>
  <speed>0.81</speed>
  <fix>3d</fix>
</trkpt>
<trkpt lat="33.8111653" lon="-118.3930983">
  <ele>-23.142</ele>
  <time>2026-09-01T01:14:37Z</time>
  <course>233.07</course>
  <speed>0.815659242576212</speed>
  <fix>3d</fix>
</trkpt>
<trkpt lat="33.811166" lon="-118.3930972">
  <ele>-22.62</ele>
  <time>2026-09-01T01:14:37Z</time>
  <course>228.38</course>
  <speed>0.81</speed>
  <fix>3d</fix>
</trkpt>
<trkpt lat="33.8111648" lon="-118.393099">
  <ele>-23.122</ele>
  <time>2026-09-01T01:14:37Z</time>
  <course>233.1</course>
  <speed>0.815659242576212</speed>
  <fix>3d</fix>
</trkpt>
<trkpt lat="33.811166" lon="-118.3930972">
  <ele>-22.62</ele>
  <time>2026-09-01T01:14:37Z</time>
  <course>228.38</course>
  <speed>0.81</speed>
  <fix>3d</fix>
</trkpt>
<trkpt lat="33.8111643" lon="-118.3930997">
  <ele>-23.103</ele>
  <time>2026-09-01T01:14:37Z</time>
  <course>233.13</course>
  <speed>0.815659242576212</speed>
  <fix>3d</fix>
</trkpt>
<trkpt lat="33.811165" lon="-118.3930985">
  <ele>-22.59</ele>
  <time>2026-09-01T01:14:37Z</time>
  <course>228.41</course>
  <speed>0.81</speed>
  <fix>3d</fix>
</trkpt>
<trkpt lat="33.8111639" lon="-118.3931003">
  <ele>-23.084</ele>
  <time>2026-09-01T01:14:37Z</time>
  <course>233.17</course>
  <speed>0.815659242576212</speed>
  <fix>3d</fix>
</trkpt>
<trkpt lat="33.811165" lon="-118.3930985">
  <ele>-22.59</ele>
  <time>2026-09-01T01:14:37Z</time>
  <course>228.41</course>
  <speed>0.81</speed>
  <fix>3d</fix>
</trkpt>
<trkpt lat="33.8111634" lon="-118.393101">
  <ele>-23.064</ele>
  <time>2026-09-01T01:14:37Z</time>
  <course>233.2</course>
  <speed>0.815659242576212</speed>
  <fix>3d</fix>
</trkpt>
<trkpt lat="33.8111641" lon="-118.3930998">
  <ele>-22.55</ele>
  <time>2026-09-01T01:14:37Z</time>
  <course>228.46</course>
  <speed>0.81</speed>
  <fix>3d</fix>
</trkpt>
<trkpt lat="33.8111629" lon="-118.3931016">
  <ele>-23.045</ele>
  <time>2026-09-01T01:14:37Z</time>
  <course>233.24</course>
  <speed>0.815659242576212</speed>
  <fix>3d</fix>
</trkpt>
<trkpt lat="33.8111641" lon="-118.3930998">
  <ele>-22.55</ele>
  <time>2026-09-01T01:14:37Z</time>
  <course>228.46</course>
  <speed>0.81</speed>
  <fix>3d</fix>
</trkpt>
<trkpt lat="33.8111624" lon="-118.3931023">
  <ele>-23.026</ele>
  <time>2026-09-01T01:14:37Z</time>
  <course>233.27</course>
  <speed>0.8091971329657563</speed>
  <fix>3d</fix>
</trkpt>
<trkpt lat="33.8111631" lon="-118.3931011">
  <ele>-22.51</ele>
  <time>2026-09-01T01:14:37Z</time>
  <course>228.5</course>
  <speed>0.81</speed>
  <fix>3d</fix>
</trkpt>
<trkpt lat="33.8111619" lon="-118.3931029">
  <ele>-23.007</ele>
  <time>2026-09-01T01:14:37Z</time>
  <course>233.28</course>
  <speed>0.8091971329657563</speed>
  <fix>3d</fix>
</trkpt>
<trkpt lat="33.8111631" lon="-118.3931011">
  <ele>-22.51</ele>
  <time>2026-09-01T01:14:37Z</time>
  <course>228.5</course>
  <speed>0.81</speed>
  <fix>3d</fix>
</trkpt>
<trkpt lat="33.8111615" lon="-118.3931036">
  <ele>-22.989</ele>
  <time>2026-09-01T01:14:37Z</time>
  <course>233.31</course>
  <speed>0.8091971329657563</speed>
  <fix>3d</fix>
</trkpt>
<trkpt lat="33.8111621" lon="-118.3931025">
  <ele>-22.47</ele>
  <time>2026-09-01T01:14:37Z</time>
  <course>228.53</course>
  <speed>0.81</speed>
  <fix>3d</fix>
</trkpt>
<trkpt lat="33.811161" lon="-118.3931043">
  <ele>-22.97</ele>
  <time>2026-09-01T01:14:37Z</time>
  <course>233.33</course>
  <speed>0.816884324736373</speed>
  <fix>3d</fix>
</trkpt>
<trkpt lat="33.8111621" lon="-118.3931025">
  <ele>-22.47</ele>
  <time>2026-09-01T01:14:37Z</time>
  <course>228.53</course>
  <speed>0.81</speed>
  <fix>3d</fix>
</trkpt>
<trkpt lat="33.8111605" lon="-118.3931049">
  <ele>-22.95</ele>
  <time>2026-09-01T01:14:37Z</time>
  <course>233.34</course>
  <speed>0.816884324736373</speed>
  <fix>3d</fix>
</trkpt>
<trkpt lat="33.8111612" lon="-118.3931038">
  <ele>-22.43</ele>
  <time>2026-09-01T01:14:37Z</time>
  <course>228.55</course>
  <speed>0.81</speed>
  <fix>3d</fix>
</trkpt>
<trkpt lat="33.81116" lon="-118.3931056">
  <ele>-22.929</ele>
  <time>2026-09-01T01:14:37Z</time>
  <course>233.35</course>
  <speed>0.816884324736373</speed>
  <fix>3d</fix>
</trkpt>
<trkpt lat="33.8111612" lon="-118.3931038">
  <ele>-22.43</ele>
  <time>2026-09-01T01:14:37Z</time>
  <course>228.55</course>
  <speed>0.81</speed>
  <fix>3d</fix>
</trkpt>
<trkpt lat="33.8111595" lon="-118.3931063">
  <ele>-22.908</ele>
  <time>2026-09-01T01:14:37Z</time>
  <course>233.35</course>
  <speed>0.816884324736373</speed>
  <fix>3d</fix>
</trkpt>
<trkpt lat="33.8111601" lon="-118.3931051">
  <ele>-22.4</ele>
  <time>2026-09-01T01:14:37Z</time>
  <course>228.54</course>
  <speed>0.82</speed>
  <fix>3d</fix>
</trkpt>
<trkpt lat="33.8111591" lon="-118.3931069">
  <ele>-22.887</ele>
  <time>2026-09-01T01:14:37Z</time>
  <course>233.35</course>
  <speed>0.816884324736373</speed>
  <fix>3d</fix>
</trkpt>
<trkpt lat="33.8111601" lon="-118.3931051">
  <ele>-22.4</ele>
  <time>2026-09-01T01:14:37Z</time>
  <course>228.54</course>
  <speed>0.82</speed>
  <fix>3d</fix>
</trkpt>
<trkpt lat="33.8111586" lon="-118.3931076">
  <ele>-22.867</ele>
  <time>2026-09-01T01:14:37Z</time>
  <course>233.37</course>
  <speed>0.816884324736373</speed>
  <fix>3d</fix>
</trkpt>
<trkpt lat="33.8111592" lon="-118.3931064">
  <ele>-22.35</ele>
  <time>2026-09-01T01:14:37Z</time>
  <course>228.57</course>
  <speed>0.82</speed>
  <fix>3d</fix>
</trkpt>
<trkpt lat="33.8111581" lon="-118.3931082">
  <ele>-22.847</ele>
  <time>2026-09-01T01:14:37Z</time>
  <course>233.39</course>
  <speed>0.816884324736373</speed>
  <fix>3d</fix>
</trkpt>
<trkpt lat="33.8111592" lon="-118.3931064">
  <ele>-22.35</ele>
  <time>2026-09-01T01:14:37Z</time>
  <course>228.57</course>
  <speed>0.82</speed>
  <fix>3d</fix>
</trkpt>
<trkpt lat="33.8111576" lon="-118.3931089">
  <ele>-22.827</ele>
  <time>2026-09-01T01:14:37Z</time>
  <course>233.42</course>
  <speed>0.816884324736373</speed>
  <fix>3d</fix>
</trkpt>
<trkpt lat="33.8111582" lon="-118.3931078">
  <ele>-22.31</ele>
  <time>2026-09-01T01:14:37Z</time>
  <course>228.63</course>
  <speed>0.82</speed>
  <fix>3d</fix>
</trkpt>
<trkpt lat="33.8111571" lon="-118.3931096">
  <ele>-22.807</ele>
  <time>2026-09-01T01:14:37Z</time>
  <course>233.45</course>
  <speed>0.816884324736373</speed>
  <fix>3d</fix>
</trkpt>
<trkpt lat="33.8111582" lon="-118.3931078">
  <ele>-22.31</ele>
  <time>2026-09-01T01:14:37Z</time>
  <course>228.63</course>
  <speed>0.82</speed>
  <fix>3d</fix>
</trkpt>
<trkpt lat="33.8111567" lon="-118.3931102">
  <ele>-22.786</ele>
  <time>2026-09-01T01:14:37Z</time>
  <course>233.47</course>
  <speed>0.816884324736373</speed>
  <fix>3d</fix>
</trkpt>
<trkpt lat="33.8111573" lon="-118.3931092">
  <ele>-22.27</ele>
  <time>2026-09-01T01:14:37Z</time>
  <course>228.68</course>
  <speed>0.82</speed>
  <fix>3d</fix>
</trkpt>
<trkpt lat="33.8111562" lon="-118.3931109">
  <ele>-22.766</ele>
  <time>2026-09-01T01:14:37Z</time>
  <course>233.47</course>
  <speed>0.816884324736373</speed>
  <fix>3d</fix>
</trkpt>
<trkpt lat="33.8111573" lon="-118.3931092">
  <ele>-22.27</ele>
  <time>2026-09-01T01:14:37Z</time>
  <course>228.68</course>
  <speed>0.82</speed>
  <fix>3d</fix>
</trkpt>
<trkpt lat="33.8111557" lon="-118.3931116">
  <ele>-22.745</ele>
  <time>2026-09-01T01:14:37Z</time>
  <course>233.45</course>
  <speed>0.816884324736373</speed>
  <fix>3d</fix>
</trkpt>
<trkpt lat="33.8111563" lon="-118.3931105">
  <ele>-22.24</ele>
  <time>2026-09-01T01:14:37Z</time>
  <course>228.64</course>
  <speed>0.83</speed>
  <fix>3d</fix>
</trkpt>
<trkpt lat="33.8111552" lon="-118.3931123">
  <ele>-22.725</ele>
  <time>2026-09-01T01:14:37Z</time>
  <course>233.41</course>
  <speed>0.816884324736373</speed>
  <fix>3d</fix>
</trkpt>
<trkpt lat="33.8111563" lon="-118.3931105">
  <ele>-22.24</ele>
  <time>2026-09-01T01:14:37Z</time>
  <course>228.64</course>
  <speed>0.83</speed>
  <fix>3d</fix>
</trkpt>
<trkpt lat="33.8111547" lon="-118.3931129">
  <ele>-22.704</ele>
  <time>2026-09-01T01:14:37Z</time>
  <course>233.37</course>
  <speed>0.816884324736373</speed>
  <fix>3d</fix>
</trkpt>
<trkpt lat="33.8111552" lon="-118.3931119">
  <ele>-22.2</ele>
  <time>2026-09-01T01:14:37Z</time>
  <course>228.56</course>
  <speed>0.83</speed>
  <fix>3d</fix>
</trkpt>
<trkpt lat="33.8111542" lon="-118.3931136">
  <ele>-22.684</ele>
  <time>2026-09-01T01:14:37Z</time>
  <course>233.35</course>
  <speed>0.816884324736373</speed>
  <fix>3d</fix>
</trkpt>
<trkpt lat="33.8111552" lon="-118.3931119">
  <ele>-22.2</ele>
  <time>2026-09-01T01:14:37Z</time>
  <course>228.56</course>
  <speed>0.83</speed>
  <fix>3d</fix>
</trkpt>
<trkpt lat="33.8111538" lon="-118.3931143">
  <ele>-22.664</ele>
  <time>2026-09-01T01:14:37Z</time>
  <course>233.34</course>
  <speed>0.816884324736373</speed>
  <fix>3d</fix>
</trkpt>
<trkpt lat="33.8111543" lon="-118.3931132">
  <ele>-22.16</ele>
  <time>2026-09-01T01:14:37Z</time>
  <course>228.54</course>
  <speed>0.83</speed>
  <fix>3d</fix>
</trkpt>
<trkpt lat="33.8111533" lon="-118.393115">
  <ele>-22.646</ele>
  <time>2026-09-01T01:14:37Z</time>
  <course>233.34</course>
  <speed>0.816884324736373</speed>
  <fix>3d</fix>
</trkpt>
<trkpt lat="33.8111543" lon="-118.3931132">
  <ele>-22.16</ele>
  <time>2026-09-01T01:14:37Z</time>
  <course>228.54</course>
  <speed>0.83</speed>
  <fix>3d</fix>
</trkpt>
<trkpt lat="33.8111528" lon="-118.3931156">
  <ele>-22.627</ele>
  <time>2026-09-01T01:14:37Z</time>
  <course>233.35</course>
  <speed>0.816884324736373</speed>
  <fix>3d</fix>
</trkpt>
<trkpt lat="33.8111533" lon="-118.3931146">
  <ele>-22.11</ele>
  <time>2026-09-01T01:14:37Z</time>
  <course>228.55</course>
  <speed>0.83</speed>
  <fix>3d</fix>
</trkpt>
<trkpt lat="33.8111523" lon="-118.3931163">
  <ele>-22.607</ele>
  <time>2026-09-01T01:14:37Z</time>
  <course>233.35</course>
  <speed>0.816884324736373</speed>
  <fix>3d</fix>
</trkpt>
<trkpt lat="33.8111533" lon="-118.3931146">
  <ele>-22.11</ele>
  <time>2026-09-01T01:14:37Z</time>
  <course>228.55</course>
  <speed>0.83</speed>
  <fix>3d</fix>
</trkpt>
<trkpt lat="33.8111518" lon="-118.393117">
  <ele>-22.587</ele>
  <time>2026-09-01T01:14:37Z</time>
  <course>233.35</course>
  <speed>0.816884324736373</speed>
  <fix>3d</fix>
</trkpt>
<trkpt lat="33.8111522" lon="-118.3931159">
  <ele>-22.08</ele>
  <time>2026-09-01T01:14:37Z</time>
  <course>228.53</course>
  <speed>0.83</speed>
  <fix>3d</fix>
</trkpt>
<trkpt lat="33.8111513" lon="-118.3931177">
  <ele>-22.566</ele>
  <time>2026-09-01T01:14:37Z</time>
  <course>233.35</course>
  <speed>0.8246211251235321</speed>
  <fix>3d</fix>
</trkpt>
<trkpt lat="33.8111522" lon="-118.3931159">
  <ele>-22.08</ele>
  <time>2026-09-01T01:14:37Z</time>
  <course>228.53</course>
  <speed>0.83</speed>
  <fix>3d</fix>
</trkpt>
<trkpt lat="33.8111508" lon="-118.3931183">
  <ele>-22.547</ele>
  <time>2026-09-01T01:14:37Z</time>
  <course>233.37</course>
  <speed>0.8246211251235321</speed>
  <fix>3d</fix>
</trkpt>
<trkpt lat="33.8111513" lon="-118.3931173">
  <ele>-22.04</ele>
  <time>2026-09-01T01:14:37Z</time>
  <course>228.58</course>
  <speed>0.84</speed>
  <fix>3d</fix>
</trkpt>
<trkpt lat="33.8111503" lon="-118.393119">
  <ele>-22.527</ele>
  <time>2026-09-01T01:14:37Z</time>
  <course>233.41</course>
  <speed>0.8246211251235321</speed>
  <fix>3d</fix>
</trkpt>
<trkpt lat="33.8111513" lon="-118.3931173">
  <ele>-22.04</ele>
  <time>2026-09-01T01:14:37Z</time>
  <course>228.58</course>
  <speed>0.84</speed>
  <fix>3d</fix>
</trkpt>
<trkpt lat="33.8111498" lon="-118.3931197">
  <ele>-22.506</ele>
  <time>2026-09-01T01:14:37Z</time>
  <course>233.43</course>
  <speed>0.8246211251235321</speed>
  <fix>3d</fix>
</trkpt>
<trkpt lat="33.8111502" lon="-118.3931187">
  <ele>-22.01</ele>
  <time>2026-09-01T01:14:37Z</time>
  <course>228.67</course>
  <speed>0.84</speed>
  <fix>3d</fix>
</trkpt>
<trkpt lat="33.8111493" lon="-118.3931204">
  <ele>-22.484</ele>
  <time>2026-09-01T01:14:37Z</time>
  <course>233.45</course>
  <speed>0.8246211251235321</speed>
  <fix>3d</fix>
</trkpt>
<trkpt lat="33.8111502" lon="-118.3931187">
  <ele>-22.01</ele>
  <time>2026-09-01T01:14:37Z</time>
  <course>228.67</course>
  <speed>0.84</speed>
  <fix>3d</fix>
</trkpt>
<trkpt lat="33.8111488" lon="-118.3931211">
  <ele>-22.462</ele>
  <time>2026-09-01T01:14:37Z</time>
  <course>233.48</course>
  <speed>0.8246211251235321</speed>
  <fix>3d</fix>
</trkpt>
<trkpt lat="33.8111492" lon="-118.39312">
  <ele>-21.97</ele>
  <time>2026-09-01T01:14:37Z</time>
  <course>228.72</course>
  <speed>0.84</speed>
  <fix>3d</fix>
</trkpt>
<trkpt lat="33.8111483" lon="-118.3931218">
  <ele>-22.441</ele>
  <time>2026-09-01T01:14:37Z</time>
  <course>233.51</course>
  <speed>0.8183520025025907</speed>
  <fix>3d</fix>
</trkpt>
<trkpt lat="33.8111492" lon="-118.39312">
  <ele>-21.97</ele>
  <time>2026-09-01T01:14:37Z</time>
  <course>228.72</course>
  <speed>0.84</speed>
  <fix>3d</fix>
</trkpt>
<trkpt lat="33.8111478" lon="-118.3931225">
  <ele>-22.422</ele>
  <time>2026-09-01T01:14:37Z</time>
  <course>233.55</course>
  <speed>0.8183520025025907</speed>
  <fix>3d</fix>
</trkpt>
<trkpt lat="33.8111483" lon="-118.3931214">
  <ele>-21.93</ele>
  <time>2026-09-01T01:14:37Z</time>
  <course>228.81</course>
  <speed>0.84</speed>
  <fix>3d</fix>
</trkpt>
<trkpt lat="33.8111473" lon="-118.3931231">
  <ele>-22.403</ele>
  <time>2026-09-01T01:14:37Z</time>
  <course>233.58</course>
  <speed>0.8183520025025907</speed>
  <fix>3d</fix>
</trkpt>
<trkpt lat="33.8111483" lon="-118.3931214">
  <ele>-21.93</ele>
  <time>2026-09-01T01:14:37Z</time>
  <course>228.81</course>
  <speed>0.84</speed>
  <fix>3d</fix>
</trkpt>
<trkpt lat="33.8111468" lon="-118.3931238">
  <ele>-22.384</ele>
  <time>2026-09-01T01:14:37Z</time>
  <course>233.6</course>
  <speed>0.8246211251235321</speed>
  <fix>3d</fix>
</trkpt>
<trkpt lat="33.8111473" lon="-118.3931228">
  <ele>-21.89</ele>
  <time>2026-09-01T01:14:37Z</time>
  <course>228.88</course>
  <speed>0.84</speed>
  <fix>3d</fix>
</trkpt>
<trkpt lat="33.8111464" lon="-118.3931245">
  <ele>-22.364</ele>
  <time>2026-09-01T01:14:37Z</time>
  <course>233.58</course>
  <speed>0.8246211251235321</speed>
  <fix>3d</fix>
</trkpt>
<trkpt lat="33.8111473" lon="-118.3931228">
  <ele>-21.89</ele>
  <time>2026-09-01T01:14:37Z</time>
  <course>228.88</course>
  <speed>0.84</speed>
  <fix>3d</fix>
</trkpt>
<trkpt lat="33.8111459" lon="-118.3931252">
  <ele>-22.344</ele>
  <time>2026-09-01T01:14:37Z</time>
  <course>233.56</course>
  <speed>0.8246211251235321</speed>
  <fix>3d</fix>
</trkpt>
<trkpt lat="33.8111463" lon="-118.3931242">
  <ele>-21.85</ele>
  <time>2026-09-01T01:14:37Z</time>
  <course>228.86</course>
  <speed>0.84</speed>
  <fix>3d</fix>
</trkpt>
<trkpt lat="33.8111454" lon="-118.3931259">
  <ele>-22.323</ele>
  <time>2026-09-01T01:14:37Z</time>
  <course>233.53</course>
  <speed>0.8246211251235321</speed>
  <fix>3d</fix>
</trkpt>
<trkpt lat="33.8111463" lon="-118.3931242">
  <ele>-21.85</ele>
  <time>2026-09-01T01:14:37Z</time>
  <course>228.86</course>
  <speed>0.84</speed>
  <fix>3d</fix>
</trkpt>
<trkpt lat="33.8111449" lon="-118.3931266">
  <ele>-22.302</ele>
  <time>2026-09-01T01:14:37Z</time>
  <course>233.49</course>
  <speed>0.8246211251235321</speed>
  <fix>3d</fix>
</trkpt>
<trkpt lat="33.8111453" lon="-118.3931256">
  <ele>-21.81</ele>
  <time>2026-09-01T01:14:37Z</time>
  <course>228.81</course>
  <speed>0.85</speed>
  <fix>3d</fix>
</trkpt>
<trkpt lat="33.8111444" lon="-118.3931273">
  <ele>-22.281</ele>
  <time>2026-09-01T01:14:37Z</time>
  <course>233.44</course>
  <speed>0.8246211251235321</speed>
  <fix>3d</fix>
</trkpt>
<trkpt lat="33.8111453" lon="-118.3931256">
  <ele>-21.81</ele>
  <time>2026-09-01T01:14:37Z</time>
  <course>228.81</course>
  <speed>0.85</speed>
  <fix>3d</fix>
</trkpt>
<trkpt lat="33.8111439" lon="-118.393128">
  <ele>-22.259</ele>
  <time>2026-09-01T01:14:37Z</time>
  <course>233.41</course>
  <speed>0.8246211251235321</speed>
  <fix>3d</fix>
</trkpt>
<trkpt lat="33.8111442" lon="-118.3931269">
  <ele>-21.77</ele>
  <time>2026-09-01T01:14:37Z</time>
  <course>228.75</course>
  <speed>0.85</speed>
  <fix>3d</fix>
</trkpt>
<trkpt lat="33.8111434" lon="-118.3931287">
  <ele>-22.238</ele>
  <time>2026-09-01T01:14:37Z</time>
  <course>233.37</course>
  <speed>0.8246211251235321</speed>
  <fix>3d</fix>
</trkpt>
<trkpt lat="33.8111442" lon="-118.3931269">
  <ele>-21.77</ele>
  <time>2026-09-01T01:14:37Z</time>
  <course>228.75</course>
  <speed>0.85</speed>
  <fix>3d</fix>
</trkpt>
<trkpt lat="33.8111429" lon="-118.3931294">
  <ele>-22.217</ele>
  <time>2026-09-01T01:14:37Z</time>
  <course>233.38</course>
  <speed>0.8324061508662703</speed>
  <fix>3d</fix>
</trkpt>
<trkpt lat="33.8111433" lon="-118.3931283">
  <ele>-21.73</ele>
  <time>2026-09-01T01:14:37Z</time>
  <course>228.76</course>
  <speed>0.85</speed>
  <fix>3d</fix>
</trkpt>
<trkpt lat="33.8111424" lon="-118.3931301">
  <ele>-22.196</ele>
  <time>2026-09-01T01:14:37Z</time>
  <course>233.39</course>
  <speed>0.8324061508662703</speed>
  <fix>3d</fix>
</trkpt>
<trkpt lat="33.8111433" lon="-118.3931283">
  <ele>-21.73</ele>
  <time>2026-09-01T01:14:37Z</time>
  <course>228.76</course>
  <speed>0.85</speed>
  <fix>3d</fix>
</trkpt>
<trkpt lat="33.8111419" lon="-118.3931308">
  <ele>-22.175</ele>
  <time>2026-09-01T01:14:37Z</time>
  <course>233.4</course>
  <speed>0.8324061508662703</speed>
  <fix>3d</fix>
</trkpt>
<trkpt lat="33.8111423" lon="-118.3931297">
  <ele>-21.68</ele>
  <time>2026-09-01T01:14:37Z</time>
  <course>228.83</course>
  <speed>0.85</speed>
  <fix>3d</fix>
</trkpt>
<trkpt lat="33.8111414" lon="-118.3931315">
  <ele>-22.154</ele>
  <time>2026-09-01T01:14:37Z</time>
  <course>233.39</course>
  <speed>0.8324061508662703</speed>
  <fix>3d</fix>
</trkpt>
<trkpt lat="33.8111423" lon="-118.3931297">
  <ele>-21.68</ele>
  <time>2026-09-01T01:14:37Z</time>
  <course>228.83</course>
  <speed>0.85</speed>
  <fix>3d</fix>
</trkpt>
<trkpt lat="33.8111409" lon="-118.3931322">
  <ele>-22.132</ele>
  <time>2026-09-01T01:14:37Z</time>
  <course>233.38</course>
  <speed>0.8324061508662703</speed>
  <fix>3d</fix>
</trkpt>
<trkpt lat="33.8111412" lon="-118.3931311">
  <ele>-21.65</ele>
  <time>2026-09-01T01:14:37Z</time>
  <course>228.84</course>
  <speed>0.85</speed>
  <fix>3d</fix>
</trkpt>
<trkpt lat="33.8111403" lon="-118.3931329">
  <ele>-22.111</ele>
  <time>2026-09-01T01:14:37Z</time>
  <course>233.35</course>
  <speed>0.8324061508662703</speed>
  <fix>3d</fix>
</trkpt>
<trkpt lat="33.8111412" lon="-118.3931311">
  <ele>-21.65</ele>
  <time>2026-09-01T01:14:37Z</time>
  <course>228.84</course>
  <speed>0.85</speed>
  <fix>3d</fix>
</trkpt>
<trkpt lat="33.8111398" lon="-118.3931336">
  <ele>-22.09</ele>
  <time>2026-09-01T01:14:37Z</time>
  <course>233.35</course>
  <speed>0.8324061508662703</speed>
  <fix>3d</fix>
</trkpt>
<trkpt lat="33.8111401" lon="-118.3931325">
  <ele>-21.61</ele>
  <time>2026-09-01T01:14:37Z</time>
  <course>228.86</course>
  <speed>0.86</speed>
  <fix>3d</fix>
</trkpt>
<trkpt lat="33.8111393" lon="-118.3931343">
  <ele>-22.069</ele>
  <time>2026-09-01T01:14:37Z</time>
  <course>233.37</course>
  <speed>0.8324061508662703</speed>
  <fix>3d</fix>
</trkpt>
<trkpt lat="33.8111401" lon="-118.3931325">
  <ele>-21.61</ele>
  <time>2026-09-01T01:14:37Z</time>
  <course>228.86</course>
  <speed>0.86</speed>
  <fix>3d</fix>
</trkpt>
<trkpt lat="33.8111388" lon="-118.393135">
  <ele>-22.048</ele>
  <time>2026-09-01T01:14:37Z</time>
  <course>233.4</course>
  <speed>0.8324061508662703</speed>
  <fix>3d</fix>
</trkpt>
<trkpt lat="33.8111392" lon="-118.3931339">
  <ele>-21.57</ele>
  <time>2026-09-01T01:14:37Z</time>
  <course>228.97</course>
  <speed>0.86</speed>
  <fix>3d</fix>
</trkpt>
<trkpt lat="33.8111383" lon="-118.3931357">
  <ele>-22.028</ele>
  <time>2026-09-01T01:14:37Z</time>
  <course>233.44</course>
  <speed>0.8324061508662703</speed>
  <fix>3d</fix>
</trkpt>
<trkpt lat="33.8111392" lon="-118.3931339">
  <ele>-21.57</ele>
  <time>2026-09-01T01:14:37Z</time>
  <course>228.97</course>
  <speed>0.86</speed>
  <fix>3d</fix>
</trkpt>
<trkpt lat="33.8111378" lon="-118.3931364">
  <ele>-22.008</ele>
  <time>2026-09-01T01:14:37Z</time>
  <course>233.46</course>
  <speed>0.8324061508662703</speed>
  <fix>3d</fix>
</trkpt>
<trkpt lat="33.8111382" lon="-118.3931353">
  <ele>-21.52</ele>
  <time>2026-09-01T01:14:37Z</time>
  <course>229.07</course>
  <speed>0.86</speed>
  <fix>3d</fix>
</trkpt>
<trkpt lat="33.8111373" lon="-118.3931371">
  <ele>-21.988</ele>
  <time>2026-09-01T01:14:37Z</time>
  <course>233.46</course>
  <speed>0.8402380615040002</speed>
  <fix>3d</fix>
</trkpt>
<trkpt lat="33.8111382" lon="-118.3931353">
  <ele>-21.52</ele>
  <time>2026-09-01T01:14:37Z</time>
  <course>229.07</course>
  <speed>0.86</speed>
  <fix>3d</fix>
</trkpt>
<trkpt lat="33.8111368" lon="-118.3931378">
  <ele>-21.966</ele>
  <time>2026-09-01T01:14:37Z</time>
  <course>233.45</course>
  <speed>0.8402380615040002</speed>
  <fix>3d</fix>
</trkpt>
<trkpt lat="33.8111372" lon="-118.3931368">
  <ele>-21.49</ele>
  <time>2026-09-01T01:14:37Z</time>
  <course>229.1</course>
  <speed>0.86</speed>
  <fix>3d</fix>
</trkpt>
<trkpt lat="33.8111363" lon="-118.3931385">
  <ele>-21.945</ele>
  <time>2026-09-01T01:14:37Z</time>
  <course>233.42</course>
  <speed>0.8402380615040002</speed>
  <fix>3d</fix>
</trkpt>
<trkpt lat="33.8111372" lon="-118.3931368">
  <ele>-21.49</ele>
  <time>2026-09-01T01:14:37Z</time>
  <course>229.1</course>
  <speed>0.86</speed>
  <fix>3d</fix>
</trkpt>
<trkpt lat="33.8111358" lon="-118.3931392">
  <ele>-21.924</ele>
  <time>2026-09-01T01:14:37Z</time>
  <course>233.37</course>
  <speed>0.8402380615040002</speed>
  <fix>3d</fix>
</trkpt>
<trkpt lat="33.8111362" lon="-118.3931382">
  <ele>-21.45</ele>
  <time>2026-09-01T01:14:37Z</time>
  <course>229.06</course>
  <speed>0.86</speed>
  <fix>3d</fix>
</trkpt>
<trkpt lat="33.8111353" lon="-118.3931399">
  <ele>-21.903</ele>
  <time>2026-09-01T01:14:37Z</time>
  <course>233.31</course>
  <speed>0.8464632301523793</speed>
  <fix>3d</fix>
</trkpt>
<trkpt lat="33.8111362" lon="-118.3931382">
  <ele>-21.45</ele>
  <time>2026-09-01T01:14:37Z</time>
  <course>229.06</course>
  <speed>0.86</speed>
  <fix>3d</fix>
</trkpt>
<trkpt lat="33.8111348" lon="-118.3931406">
  <ele>-21.882</ele>
  <time>2026-09-01T01:14:37Z</time>
  <course>233.25</course>
  <speed>0.8464632301523793</speed>
  <fix>3d</fix>
</trkpt>
<trkpt lat="33.8111351" lon="-118.3931396">
  <ele>-21.4</ele>
  <time>2026-09-01T01:14:37Z</time>
  <course>228.98</course>
  <speed>0.87</speed>
  <fix>3d</fix>
</trkpt>
<trkpt lat="33.8111342" lon="-118.3931414">
  <ele>-21.861</ele>
  <time>2026-09-01T01:14:37Z</time>
  <course>233.19</course>
  <speed>0.8464632301523793</speed>
  <fix>3d</fix>
</trkpt>
<trkpt lat="33.8111351" lon="-118.3931396">
  <ele>-21.4</ele>
  <time>2026-09-01T01:14:37Z</time>
  <course>228.98</course>
  <speed>0.87</speed>
  <fix>3d</fix>
</trkpt>
<trkpt lat="33.8111337" lon="-118.3931421">
  <ele>-21.842</ele>
  <time>2026-09-01T01:14:37Z</time>
  <course>233.15</course>
  <speed>0.8464632301523793</speed>
  <fix>3d</fix>
</trkpt>
<trkpt lat="33.811134" lon="-118.393141">
  <ele>-21.36</ele>
  <time>2026-09-01T01:14:37Z</time>
  <course>228.95</course>
  <speed>0.87</speed>
  <fix>3d</fix>
</trkpt>
<trkpt lat="33.8111332" lon="-118.3931428">
  <ele>-21.822</ele>
  <time>2026-09-01T01:14:37Z</time>
  <course>233.12</course>
  <speed>0.8464632301523793</speed>
  <fix>3d</fix>
</trkpt>
<trkpt lat="33.811134" lon="-118.393141">
  <ele>-21.36</ele>
  <time>2026-09-01T01:14:37Z</time>
  <course>228.95</course>
  <speed>0.87</speed>
  <fix>3d</fix>
</trkpt>
<trkpt lat="33.8111327" lon="-118.3931435">
  <ele>-21.801</ele>
  <time>2026-09-01T01:14:37Z</time>
  <course>233.14</course>
  <speed>0.8464632301523793</speed>
  <fix>3d</fix>
</trkpt>
<trkpt lat="33.8111331" lon="-118.3931424">
  <ele>-21.32</ele>
  <time>2026-09-01T01:14:37Z</time>
  <course>229.02</course>
  <speed>0.87</speed>
  <fix>3d</fix>
</trkpt>
<trkpt lat="33.8111322" lon="-118.3931442">
  <ele>-21.778</ele>
  <time>2026-09-01T01:14:37Z</time>
  <course>233.15</course>
  <speed>0.8464632301523793</speed>
  <fix>3d</fix>
</trkpt>
<trkpt lat="33.8111331" lon="-118.3931424">
  <ele>-21.32</ele>
  <time>2026-09-01T01:14:37Z</time>
  <course>229.02</course>
  <speed>0.87</speed>
  <fix>3d</fix>
</trkpt>
<trkpt lat="33.8111317" lon="-118.3931449">
  <ele>-21.755</ele>
  <time>2026-09-01T01:14:37Z</time>
  <course>233.15</course>
  <speed>0.8464632301523793</speed>
  <fix>3d</fix>
</trkpt>
<trkpt lat="33.811132" lon="-118.3931439">
  <ele>-21.27</ele>
  <time>2026-09-01T01:14:37Z</time>
  <course>229.11</course>
  <speed>0.87</speed>
  <fix>3d</fix>
</trkpt>
<trkpt lat="33.8111311" lon="-118.3931456">
  <ele>-21.733</ele>
  <time>2026-09-01T01:14:37Z</time>
  <course>233.14</course>
  <speed>0.8464632301523793</speed>
  <fix>3d</fix>
</trkpt>
<trkpt lat="33.811132" lon="-118.3931439">
  <ele>-21.27</ele>
  <time>2026-09-01T01:14:37Z</time>
  <course>229.11</course>
  <speed>0.87</speed>
  <fix>3d</fix>
</trkpt>
<trkpt lat="33.8111306" lon="-118.3931464">
  <ele>-21.71</ele>
  <time>2026-09-01T01:14:37Z</time>
  <course>233.13</course>
  <speed>0.8464632301523793</speed>
  <fix>3d</fix>
</trkpt>
<trkpt lat="33.811131" lon="-118.3931453">
  <ele>-21.23</ele>
  <time>2026-09-01T01:14:37Z</time>
  <course>229.14</course>
  <speed>0.87</speed>
  <fix>3d</fix>
</trkpt>
<trkpt lat="33.8111301" lon="-118.3931471">
  <ele>-21.687</ele>
  <time>2026-09-01T01:14:37Z</time>
  <course>233.1</course>
  <speed>0.8542833253669417</speed>
  <fix>3d</fix>
</trkpt>
<trkpt lat="33.811131" lon="-118.3931453">
  <ele>-21.23</ele>
  <time>2026-09-01T01:14:37Z</time>
  <course>229.14</course>
  <speed>0.87</speed>
  <fix>3d</fix>
</trkpt>
<trkpt lat="33.8111296" lon="-118.3931478">
  <ele>-21.663</ele>
  <time>2026-09-01T01:14:37Z</time>
  <course>233.08</course>
  <speed>0.8542833253669417</speed>
  <fix>3d</fix>
</trkpt>
<trkpt lat="33.81113" lon="-118.3931467">
  <ele>-21.18</ele>
  <time>2026-09-01T01:14:37Z</time>
  <course>229.17</course>
  <speed>0.88</speed>
  <fix>3d</fix>
</trkpt>
<trkpt lat="33.8111291" lon="-118.3931485">
  <ele>-21.641</ele>
  <time>2026-09-01T01:14:37Z</time>
  <course>233.05</course>
  <speed>0.8542833253669417</speed>
  <fix>3d</fix>
</trkpt>
<trkpt lat="33.81113" lon="-118.3931467">
  <ele>-21.18</ele>
  <time>2026-09-01T01:14:37Z</time>
  <course>229.17</course>
  <speed>0.88</speed>
  <fix>3d</fix>
</trkpt>
<trkpt lat="33.8111286" lon="-118.3931492">
  <ele>-21.619</ele>
  <time>2026-09-01T01:14:37Z</time>
  <course>233.02</course>
  <speed>0.8542833253669417</speed>
  <fix>3d</fix>
</trkpt>
<trkpt lat="33.8111289" lon="-118.3931482">
  <ele>-21.14</ele>
  <time>2026-09-01T01:14:37Z</time>
  <course>229.18</course>
  <speed>0.88</speed>
  <fix>3d</fix>
</trkpt>
<trkpt lat="33.811128" lon="-118.39315">
  <ele>-21.597</ele>
  <time>2026-09-01T01:14:37Z</time>
  <course>232.99</course>
  <speed>0.8542833253669417</speed>
  <fix>3d</fix>
</trkpt>
<trkpt lat="33.8111289" lon="-118.3931482">
  <ele>-21.14</ele>
  <time>2026-09-01T01:14:37Z</time>
  <course>229.18</course>
  <speed>0.88</speed>
  <fix>3d</fix>
</trkpt>
<trkpt lat="33.8111275" lon="-118.3931507">
  <ele>-21.575</ele>
  <time>2026-09-01T01:14:37Z</time>
  <course>232.96</course>
  <speed>0.8542833253669417</speed>
  <fix>3d</fix>
</trkpt>
<trkpt lat="33.8111279" lon="-118.3931496">
  <ele>-21.1</ele>
  <time>2026-09-01T01:14:37Z</time>
  <course>229.2</course>
  <speed>0.88</speed>
  <fix>3d</fix>
</trkpt>
<trkpt lat="33.811127" lon="-118.3931514">
  <ele>-21.553</ele>
  <time>2026-09-01T01:14:37Z</time>
  <course>232.94</course>
  <speed>0.8542833253669417</speed>
  <fix>3d</fix>
</trkpt>
<trkpt lat="33.8111279" lon="-118.3931496">
  <ele>-21.1</ele>
  <time>2026-09-01T01:14:37Z</time>
  <course>229.2</course>
  <speed>0.88</speed>
  <fix>3d</fix>
</trkpt>
<trkpt lat="33.8111265" lon="-118.3931521">
  <ele>-21.53</ele>
  <time>2026-09-01T01:14:37Z</time>
  <course>232.91</course>
  <speed>0.8542833253669417</speed>
  <fix>3d</fix>
</trkpt>
<trkpt lat="33.8111268" lon="-118.3931511">
  <ele>-21.06</ele>
  <time>2026-09-01T01:14:37Z</time>
  <course>229.21</course>
  <speed>0.88</speed>
  <fix>3d</fix>
</trkpt>
<trkpt lat="33.8111259" lon="-118.3931529">
  <ele>-21.508</ele>
  <time>2026-09-01T01:14:37Z</time>
  <course>232.89</course>
  <speed>0.8542833253669417</speed>
  <fix>3d</fix>
</trkpt>
<trkpt lat="33.8111268" lon="-118.3931511">
  <ele>-21.06</ele>
  <time>2026-09-01T01:14:37Z</time>
  <course>229.21</course>
  <speed>0.88</speed>
  <fix>3d</fix>
</trkpt>
<trkpt lat="33.8111254" lon="-118.3931536">
  <ele>-21.487</ele>
  <time>2026-09-01T01:14:37Z</time>
  <course>232.88</course>
  <speed>0.8605230967266364</speed>
  <fix>3d</fix>
</trkpt>
<trkpt lat="33.8111258" lon="-118.3931525">
  <ele>-21.02</ele>
  <time>2026-09-01T01:14:37Z</time>
  <course>229.24</course>
  <speed>0.88</speed>
  <fix>3d</fix>
</trkpt>
<trkpt lat="33.8111249" lon="-118.3931543">
  <ele>-21.466</ele>
  <time>2026-09-01T01:14:37Z</time>
  <course>232.86</course>
  <speed>0.8605230967266364</speed>
  <fix>3d</fix>
</trkpt>
<trkpt lat="33.8111258" lon="-118.3931525">
  <ele>-21.02</ele>
  <time>2026-09-01T01:14:37Z</time>
  <course>229.24</course>
  <speed>0.88</speed>
  <fix>3d</fix>
</trkpt>
<trkpt lat="33.8111244" lon="-118.3931551">
  <ele>-21.445</ele>
  <time>2026-09-01T01:14:37Z</time>
  <course>232.84</course>
  <speed>0.8605230967266364</speed>
  <fix>3d</fix>
</trkpt>
<trkpt lat="33.8111248" lon="-118.393154">
  <ele>-20.98</ele>
  <time>2026-09-01T01:14:37Z</time>
  <course>229.29</course>
  <speed>0.89</speed>
  <fix>3d</fix>
</trkpt>
<trkpt lat="33.8111239" lon="-118.3931558">
  <ele>-21.424</ele>
  <time>2026-09-01T01:14:37Z</time>
  <course>232.81</course>
  <speed>0.8683317338436964</speed>
  <fix>3d</fix>
</trkpt>
<trkpt lat="33.8111248" lon="-118.393154">
  <ele>-20.98</ele>
  <time>2026-09-01T01:14:37Z</time>
  <course>229.29</course>
  <speed>0.89</speed>
  <fix>3d</fix>
</trkpt>
<trkpt lat="33.8111233" lon="-118.3931565">
  <ele>-21.402</ele>
  <time>2026-09-01T01:14:37Z</time>
  <course>232.77</course>
  <speed>0.8683317338436964</speed>
  <fix>3d</fix>
</trkpt>
<trkpt lat="33.8111237" lon="-118.3931554">
  <ele>-20.93</ele>
  <time>2026-09-01T01:14:37Z</time>
  <course>229.3</course>
  <speed>0.89</speed>
  <fix>3d</fix>
</trkpt>
<trkpt lat="33.8111228" lon="-118.3931573">
  <ele>-21.381</ele>
  <time>2026-09-01T01:14:37Z</time>
  <course>232.73</course>
  <speed>0.8683317338436964</speed>
  <fix>3d</fix>
</trkpt>
<trkpt lat="33.8111237" lon="-118.3931554">
  <ele>-20.93</ele>
  <time>2026-09-01T01:14:37Z</time>
  <course>229.3</course>
  <speed>0.89</speed>
  <fix>3d</fix>
</trkpt>
<trkpt lat="33.8111223" lon="-118.393158">
  <ele>-21.36</ele>
  <time>2026-09-01T01:14:37Z</time>
  <course>232.7</course>
  <speed>0.8683317338436964</speed>
  <fix>3d</fix>
</trkpt>
<trkpt lat="33.8111227" lon="-118.3931569">
  <ele>-20.9</ele>
  <time>2026-09-01T01:14:37Z</time>
  <course>229.31</course>
  <speed>0.89</speed>
  <fix>3d</fix>
</trkpt>
<trkpt lat="33.8111218" lon="-118.3931587">
  <ele>-21.338</ele>
  <time>2026-09-01T01:14:37Z</time>
  <course>232.67</course>
  <speed>0.8683317338436964</speed>
  <fix>3d</fix>
</trkpt>
<trkpt lat="33.8111227" lon="-118.3931569">
  <ele>-20.9</ele>
  <time>2026-09-01T01:14:37Z</time>
  <course>229.31</course>
  <speed>0.89</speed>
  <fix>3d</fix>
</trkpt>
<trkpt lat="33.8111212" lon="-118.3931595">
  <ele>-21.317</ele>
  <time>2026-09-01T01:14:37Z</time>
  <course>232.64</course>
  <speed>0.8683317338436964</speed>
  <fix>3d</fix>
</trkpt>
<trkpt lat="33.8111216" lon="-118.3931584">
  <ele>-20.86</ele>
  <time>2026-09-01T01:14:37Z</time>
  <course>229.32</course>
  <speed>0.89</speed>
  <fix>3d</fix>
</trkpt>
<trkpt lat="33.8111207" lon="-118.3931602">
  <ele>-21.296</ele>
  <time>2026-09-01T01:14:37Z</time>
  <course>232.6</course>
  <speed>0.8683317338436964</speed>
  <fix>3d</fix>
</trkpt>
<trkpt lat="33.8111216" lon="-118.3931584">
  <ele>-20.86</ele>
  <time>2026-09-01T01:14:37Z</time>
  <course>229.32</course>
  <speed>0.89</speed>
  <fix>3d</fix>
</trkpt>
<trkpt lat="33.8111202" lon="-118.3931609">
  <ele>-21.274</ele>
  <time>2026-09-01T01:14:37Z</time>
  <course>232.56</course>
  <speed>0.8683317338436964</speed>
  <fix>3d</fix>
</trkpt>
<trkpt lat="33.8111205" lon="-118.3931599">
  <ele>-20.81</ele>
  <time>2026-09-01T01:14:37Z</time>
  <course>229.31</course>
  <speed>0.89</speed>
  <fix>3d</fix>
</trkpt>
<trkpt lat="33.8111196" lon="-118.3931617">
  <ele>-21.252</ele>
  <time>2026-09-01T01:14:37Z</time>
  <course>232.52</course>
  <speed>0.8683317338436964</speed>
  <fix>3d</fix>
</trkpt>
<trkpt lat="33.8111205" lon="-118.3931599">
  <ele>-20.81</ele>
  <time>2026-09-01T01:14:37Z</time>
  <course>229.31</course>
  <speed>0.89</speed>
  <fix>3d</fix>
</trkpt>
<trkpt lat="33.8111191" lon="-118.3931624">
  <ele>-21.23</ele>
  <time>2026-09-01T01:14:37Z</time>
  <course>232.49</course>
  <speed>0.8683317338436964</speed>
  <fix>3d</fix>
</trkpt>
<trkpt lat="33.8111195" lon="-118.3931613">
  <ele>-20.77</ele>
  <time>2026-09-01T01:14:37Z</time>
  <course>229.32</course>
  <speed>0.9</speed>
  <fix>3d</fix>
</trkpt>
<trkpt lat="33.8111186" lon="-118.3931631">
  <ele>-21.208</ele>
  <time>2026-09-01T01:14:37Z</time>
  <course>232.46</course>
  <speed>0.8683317338436964</speed>
  <fix>3d</fix>
</trkpt>
<trkpt lat="33.8111195" lon="-118.3931613">
  <ele>-20.77</ele>
  <time>2026-09-01T01:14:37Z</time>
  <course>229.32</course>
  <speed>0.9</speed>
  <fix>3d</fix>
</trkpt>
<trkpt lat="33.811118" lon="-118.3931639">
  <ele>-21.187</ele>
  <time>2026-09-01T01:14:37Z</time>
  <course>232.44</course>
  <speed>0.8683317338436964</speed>
  <fix>3d</fix>
</trkpt>
<trkpt lat="33.8111184" lon="-118.3931628">
  <ele>-20.73</ele>
  <time>2026-09-01T01:14:37Z</time>
  <course>229.35</course>
  <speed>0.9</speed>
  <fix>3d</fix>
</trkpt>
<trkpt lat="33.8111175" lon="-118.3931646">
  <ele>-21.166</ele>
  <time>2026-09-01T01:14:37Z</time>
  <course>232.42</course>
  <speed>0.8683317338436964</speed>
  <fix>3d</fix>
</trkpt>
<trkpt lat="33.8111184" lon="-118.3931628">
  <ele>-20.73</ele>
  <time>2026-09-01T01:14:37Z</time>
  <course>229.35</course>
  <speed>0.9</speed>
  <fix>3d</fix>
</trkpt>
<trkpt lat="33.811117" lon="-118.3931654">
  <ele>-21.144</ele>
  <time>2026-09-01T01:14:37Z</time>
  <course>232.4</course>
  <speed>0.8745856161634491</speed>
  <fix>3d</fix>
</trkpt>
<trkpt lat="33.8111174" lon="-118.3931643">
  <ele>-20.68</ele>
  <time>2026-09-01T01:14:37Z</time>
  <course>229.4</course>
  <speed>0.9</speed>
  <fix>3d</fix>
</trkpt>
<trkpt lat="33.8111164" lon="-118.3931661">
  <ele>-21.121</ele>
  <time>2026-09-01T01:14:37Z</time>
  <course>232.38</course>
  <speed>0.8745856161634491</speed>
  <fix>3d</fix>
</trkpt>
<trkpt lat="33.8111174" lon="-118.3931643">
  <ele>-20.68</ele>
  <time>2026-09-01T01:14:37Z</time>
  <course>229.4</course>
  <speed>0.9</speed>
  <fix>3d</fix>
</trkpt>
<trkpt lat="33.8111159" lon="-118.3931669">
  <ele>-21.097</ele>
  <time>2026-09-01T01:14:37Z</time>
  <course>232.35</course>
  <speed>0.8745856161634491</speed>
  <fix>3d</fix>
</trkpt>
<trkpt lat="33.8111163" lon="-118.3931658">
  <ele>-20.64</ele>
  <time>2026-09-01T01:14:37Z</time>
  <course>229.41</course>
  <speed>0.9</speed>
  <fix>3d</fix>
</trkpt>
<trkpt lat="33.8111154" lon="-118.3931676">
  <ele>-21.074</ele>
  <time>2026-09-01T01:14:37Z</time>
  <course>232.31</course>
  <speed>0.8745856161634491</speed>
  <fix>3d</fix>
</trkpt>
<trkpt lat="33.8111163" lon="-118.3931658">
  <ele>-20.64</ele>
  <time>2026-09-01T01:14:37Z</time>
  <course>229.41</course>
  <speed>0.9</speed>
  <fix>3d</fix>
</trkpt>
<trkpt lat="33.8111148" lon="-118.3931683">
  <ele>-21.052</ele>
  <time>2026-09-01T01:14:37Z</time>
  <course>232.26</course>
  <speed>0.8745856161634491</speed>
  <fix>3d</fix>
</trkpt>
<trkpt lat="33.8111153" lon="-118.3931672">
  <ele>-20.59</ele>
  <time>2026-09-01T01:14:37Z</time>
  <course>229.38</course>
  <speed>0.9</speed>
  <fix>3d</fix>
</trkpt>
<trkpt lat="33.8111143" lon="-118.3931691">
  <ele>-21.029</ele>
  <time>2026-09-01T01:14:37Z</time>
  <course>232.22</course>
  <speed>0.8823831367382311</speed>
  <fix>3d</fix>
</trkpt>
<trkpt lat="33.8111153" lon="-118.3931672">
  <ele>-20.59</ele>
  <time>2026-09-01T01:14:37Z</time>
  <course>229.38</course>
  <speed>0.9</speed>
  <fix>3d</fix>
</trkpt>
<trkpt lat="33.8111138" lon="-118.3931698">
  <ele>-21.007</ele>
  <time>2026-09-01T01:14:37Z</time>
  <course>232.17</course>
  <speed>0.8823831367382311</speed>
  <fix>3d</fix>
</trkpt>
<trkpt lat="33.8111142" lon="-118.3931687">
  <ele>-20.55</ele>
  <time>2026-09-01T01:14:37Z</time>
  <course>229.37</course>
  <speed>0.9</speed>
  <fix>3d</fix>
</trkpt>
<trkpt lat="33.8111132" lon="-118.3931706">
  <ele>-20.984</ele>
  <time>2026-09-01T01:14:37Z</time>
  <course>232.13</course>
  <speed>0.8823831367382311</speed>
  <fix>3d</fix>
</trkpt>
<trkpt lat="33.8111142" lon="-118.3931687">
  <ele>-20.55</ele>
  <time>2026-09-01T01:14:37Z</time>
  <course>229.37</course>
  <speed>0.9</speed>
  <fix>3d</fix>
</trkpt>
<trkpt lat="33.8111127" lon="-118.3931713">
  <ele>-20.963</ele>
  <time>2026-09-01T01:14:37Z</time>
  <course>232.09</course>
  <speed>0.8823831367382311</speed>
  <fix>3d</fix>
</trkpt>
<trkpt lat="33.8111131" lon="-118.3931702">
  <ele>-20.5</ele>
  <time>2026-09-01T01:14:37Z</time>
  <course>229.37</course>
  <speed>0.91</speed>
  <fix>3d</fix>
</trkpt>
<trkpt lat="33.8111122" lon="-118.3931721">
  <ele>-20.941</ele>
  <time>2026-09-01T01:14:37Z</time>
  <course>232.07</course>
  <speed>0.8823831367382311</speed>
  <fix>3d</fix>
</trkpt>
<trkpt lat="33.8111131" lon="-118.3931702">
  <ele>-20.5</ele>
  <time>2026-09-01T01:14:37Z</time>
  <course>229.37</course>
  <speed>0.91</speed>
  <fix>3d</fix>
</trkpt>
<trkpt lat="33.8111116" lon="-118.3931728">
  <ele>-20.919</ele>
  <time>2026-09-01T01:14:37Z</time>
  <course>232.05</course>
  <speed>0.8823831367382311</speed>
  <fix>3d</fix>
</trkpt>
<trkpt lat="33.8111121" lon="-118.3931717">
  <ele>-20.46</ele>
  <time>2026-09-01T01:14:37Z</time>
  <course>229.4</course>
  <speed>0.91</speed>
  <fix>3d</fix>
</trkpt>
<trkpt lat="33.8111111" lon="-118.3931736">
  <ele>-20.896</ele>
  <time>2026-09-01T01:14:37Z</time>
  <course>232.03</course>
  <speed>0.8823831367382311</speed>
  <fix>3d</fix>
</trkpt>
<trkpt lat="33.8111121" lon="-118.3931717">
  <ele>-20.46</ele>
  <time>2026-09-01T01:14:37Z</time>
  <course>229.4</course>
  <speed>0.91</speed>
  <fix>3d</fix>
</trkpt>
<trkpt lat="33.8111106" lon="-118.3931743">
  <ele>-20.873</ele>
  <time>2026-09-01T01:14:37Z</time>
  <course>232.0</course>
  <speed>0.8886506625215557</speed>
  <fix>3d</fix>
</trkpt>
<trkpt lat="33.811111" lon="-118.3931732">
  <ele>-20.41</ele>
  <time>2026-09-01T01:14:37Z</time>
  <course>229.42</course>
  <speed>0.91</speed>
  <fix>3d</fix>
</trkpt>
<trkpt lat="33.81111" lon="-118.3931751">
  <ele>-20.848</ele>
  <time>2026-09-01T01:14:37Z</time>
  <course>231.97</course>
  <speed>0.8886506625215557</speed>
  <fix>3d</fix>
</trkpt>
<trkpt lat="33.811111" lon="-118.3931732">
  <ele>-20.41</ele>
  <time>2026-09-01T01:14:37Z</time>
  <course>229.42</course>
  <speed>0.91</speed>
  <fix>3d</fix>
</trkpt>
<trkpt lat="33.8111095" lon="-118.3931758">
  <ele>-20.824</ele>
  <time>2026-09-01T01:14:37Z</time>
  <course>231.93</course>
  <speed>0.8886506625215557</speed>
  <fix>3d</fix>
</trkpt>
<trkpt lat="33.8111099" lon="-118.3931747">
  <ele>-20.36</ele>
  <time>2026-09-01T01:14:37Z</time>
  <course>229.39</course>
  <speed>0.91</speed>
  <fix>3d</fix>
</trkpt>
<trkpt lat="33.8111089" lon="-118.3931766">
  <ele>-20.801</ele>
  <time>2026-09-01T01:14:37Z</time>
  <course>231.89</course>
  <speed>0.8886506625215557</speed>
  <fix>3d</fix>
</trkpt>
<trkpt lat="33.8111099" lon="-118.3931747">
  <ele>-20.36</ele>
  <time>2026-09-01T01:14:37Z</time>
  <course>229.39</course>
  <speed>0.91</speed>
  <fix>3d</fix>
</trkpt>
<trkpt lat="33.8111084" lon="-118.3931773">
  <ele>-20.778</ele>
  <time>2026-09-01T01:14:37Z</time>
  <course>231.86</course>
  <speed>0.8886506625215557</speed>
  <fix>3d</fix>
</trkpt>
<trkpt lat="33.8111089" lon="-118.3931762">
  <ele>-20.32</ele>
  <time>2026-09-01T01:14:37Z</time>
  <course>229.4</course>
  <speed>0.91</speed>
  <fix>3d</fix>
</trkpt>
<trkpt lat="33.8111079" lon="-118.3931781">
  <ele>-20.755</ele>
  <time>2026-09-01T01:14:37Z</time>
  <course>231.83</course>
  <speed>0.8886506625215557</speed>
  <fix>3d</fix>
</trkpt>
<trkpt lat="33.8111089" lon="-118.3931762">
  <ele>-20.32</ele>
  <time>2026-09-01T01:14:37Z</time>
  <course>229.4</course>
  <speed>0.91</speed>
  <fix>3d</fix>
</trkpt>
<trkpt lat="33.8111073" lon="-118.3931788">
  <ele>-20.732</ele>
  <time>2026-09-01T01:14:37Z</time>
  <course>231.78</course>
  <speed>0.8886506625215557</speed>
  <fix>3d</fix>
</trkpt>
<trkpt lat="33.8111078" lon="-118.3931778">
  <ele>-20.27</ele>
  <time>2026-09-01T01:14:37Z</time>
  <course>229.39</course>
  <speed>0.91</speed>
  <fix>3d</fix>
</trkpt>
<trkpt lat="33.8111068" lon="-118.3931796">
  <ele>-20.708</ele>
  <time>2026-09-01T01:14:37Z</time>
  <course>231.73</course>
  <speed>0.8886506625215557</speed>
  <fix>3d</fix>
</trkpt>
<trkpt lat="33.8111078" lon="-118.3931778">
  <ele>-20.27</ele>
  <time>2026-09-01T01:14:37Z</time>
  <course>229.39</course>
  <speed>0.91</speed>
  <fix>3d</fix>
</trkpt>
<trkpt lat="33.8111062" lon="-118.3931804">
  <ele>-20.684</ele>
  <time>2026-09-01T01:14:37Z</time>
  <course>231.67</course>
  <speed>0.8886506625215557</speed>
  <fix>3d</fix>
</trkpt>
<trkpt lat="33.8111067" lon="-118.3931793">
  <ele>-20.23</ele>
  <time>2026-09-01T01:14:37Z</time>
  <course>229.33</course>
  <speed>0.92</speed>
  <fix>3d</fix>
</trkpt>
<trkpt lat="33.8111057" lon="-118.3931811">
  <ele>-20.66</ele>
  <time>2026-09-01T01:14:37Z</time>
  <course>231.6</course>
  <speed>0.8886506625215557</speed>
  <fix>3d</fix>
</trkpt>
<trkpt lat="33.8111067" lon="-118.3931793">
  <ele>-20.23</ele>
  <time>2026-09-01T01:14:37Z</time>
  <course>229.33</course>
  <speed>0.92</speed>
  <fix>3d</fix>
</trkpt>
<trkpt lat="33.8111052" lon="-118.3931819">
  <ele>-20.637</ele>
  <time>2026-09-01T01:14:37Z</time>
  <course>231.54</course>
  <speed>0.8886506625215557</speed>
  <fix>3d</fix>
</trkpt>
<trkpt lat="33.8111056" lon="-118.3931808">
  <ele>-20.18</ele>
  <time>2026-09-01T01:14:37Z</time>
  <course>229.26</course>
  <speed>0.92</speed>
  <fix>3d</fix>
</trkpt>
<trkpt lat="33.8111046" lon="-118.3931826">
  <ele>-20.614</ele>
  <time>2026-09-01T01:14:37Z</time>
  <course>231.48</course>
  <speed>0.8886506625215557</speed>
  <fix>3d</fix>
</trkpt>
<trkpt lat="33.8111056" lon="-118.3931808">
  <ele>-20.18</ele>
  <time>2026-09-01T01:14:37Z</time>
  <course>229.26</course>
  <speed>0.92</speed>
  <fix>3d</fix>
</trkpt>
<trkpt lat="33.8111041" lon="-118.3931834">
  <ele>-20.592</ele>
  <time>2026-09-01T01:14:37Z</time>
  <course>231.44</course>
  <speed>0.8964373932405988</speed>
  <fix>3d</fix>
</trkpt>
<trkpt lat="33.8111046" lon="-118.3931823">
  <ele>-20.15</ele>
  <time>2026-09-01T01:14:37Z</time>
  <course>229.21</course>
  <speed>0.92</speed>
  <fix>3d</fix>
</trkpt>
<trkpt lat="33.8111035" lon="-118.3931842">
  <ele>-20.571</ele>
  <time>2026-09-01T01:14:37Z</time>
  <course>231.39</course>
  <speed>0.9027181176868004</speed>
  <fix>3d</fix>
</trkpt>
<trkpt lat="33.8111046" lon="-118.3931823">
  <ele>-20.15</ele>
  <time>2026-09-01T01:14:37Z</time>
  <course>229.21</course>
  <speed>0.92</speed>
  <fix>3d</fix>
</trkpt>
<trkpt lat="33.811103" lon="-118.3931849">
  <ele>-20.55</ele>
  <time>2026-09-01T01:14:37Z</time>
  <course>231.34</course>
  <speed>0.9027181176868004</speed>
  <fix>3d</fix>
</trkpt>
<trkpt lat="33.8111035" lon="-118.3931838">
  <ele>-20.11</ele>
  <time>2026-09-01T01:14:37Z</time>
  <course>229.17</course>
  <speed>0.92</speed>
  <fix>3d</fix>
</trkpt>
<trkpt lat="33.8111024" lon="-118.3931857">
  <ele>-20.529</ele>
  <time>2026-09-01T01:14:37Z</time>
  <course>231.29</course>
  <speed>0.9027181176868004</speed>
  <fix>3d</fix>
</trkpt>
<trkpt lat="33.8111035" lon="-118.3931838">
  <ele>-20.11</ele>
  <time>2026-09-01T01:14:37Z</time>
  <course>229.17</course>
  <speed>0.92</speed>
  <fix>3d</fix>
</trkpt>
<trkpt lat="33.8111019" lon="-118.3931864">
  <ele>-20.508</ele>
  <time>2026-09-01T01:14:37Z</time>
  <course>231.24</course>
  <speed>0.9027181176868004</speed>
  <fix>3d</fix>
</trkpt>
<trkpt lat="33.8111024" lon="-118.3931853">
  <ele>-20.07</ele>
  <time>2026-09-01T01:14:37Z</time>
  <course>229.12</course>
  <speed>0.92</speed>
  <fix>3d</fix>
</trkpt>
<trkpt lat="33.8111013" lon="-118.3931872">
  <ele>-20.486</ele>
  <time>2026-09-01T01:14:37Z</time>
  <course>231.2</course>
  <speed>0.9027181176868004</speed>
  <fix>3d</fix>
</trkpt>
<trkpt lat="33.8111024" lon="-118.3931853">
  <ele>-20.07</ele>
  <time>2026-09-01T01:14:37Z</time>
  <course>229.12</course>
  <speed>0.92</speed>
  <fix>3d</fix>
</trkpt>
<trkpt lat="33.8111008" lon="-118.393188">
  <ele>-20.464</ele>
  <time>2026-09-01T01:14:37Z</time>
  <course>231.16</course>
  <speed>0.9027181176868004</speed>
  <fix>3d</fix>
</trkpt>
<trkpt lat="33.8111013" lon="-118.3931868">
  <ele>-20.02</ele>
  <time>2026-09-01T01:14:37Z</time>
  <course>229.09</course>
  <speed>0.92</speed>
  <fix>3d</fix>
</trkpt>
<trkpt lat="33.8111003" lon="-118.3931887">
  <ele>-20.443</ele>
  <time>2026-09-01T01:14:37Z</time>
  <course>231.13</course>
  <speed>0.9027181176868004</speed>
  <fix>3d</fix>
</trkpt>
<trkpt lat="33.8111013" lon="-118.3931868">
  <ele>-20.02</ele>
  <time>2026-09-01T01:14:37Z</time>
  <course>229.09</course>
  <speed>0.92</speed>
  <fix>3d</fix>
</trkpt>
<trkpt lat="33.8110997" lon="-118.3931895">
  <ele>-20.422</ele>
  <time>2026-09-01T01:14:37Z</time>
  <course>231.11</course>
  <speed>0.9027181176868004</speed>
  <fix>3d</fix>
</trkpt>
<trkpt lat="33.8111002" lon="-118.3931883">
  <ele>-19.98</ele>
  <time>2026-09-01T01:14:37Z</time>
  <course>229.1</course>
  <speed>0.92</speed>
  <fix>3d</fix>
</trkpt>
<trkpt lat="33.8110992" lon="-118.3931902">
  <ele>-20.398</ele>
  <time>2026-09-01T01:14:37Z</time>
  <course>231.1</course>
  <speed>0.9027181176868004</speed>
  <fix>3d</fix>
</trkpt>
<trkpt lat="33.8111002" lon="-118.3931883">
  <ele>-19.98</ele>
  <time>2026-09-01T01:14:37Z</time>
  <course>229.1</course>
  <speed>0.92</speed>
  <fix>3d</fix>
</trkpt>
<trkpt lat="33.8110986" lon="-118.393191">
  <ele>-20.374</ele>
  <time>2026-09-01T01:14:37Z</time>
  <course>231.1</course>
  <speed>0.9027181176868004</speed>
  <fix>3d</fix>
</trkpt>
<trkpt lat="33.8110991" lon="-118.3931899">
  <ele>-19.93</ele>
  <time>2026-09-01T01:14:37Z</time>
  <course>229.13</course>
  <speed>0.93</speed>
  <fix>3d</fix>
</trkpt>
<trkpt lat="33.8110981" lon="-118.3931918">
  <ele>-20.351</ele>
  <time>2026-09-01T01:14:37Z</time>
  <course>231.1</course>
  <speed>0.9027181176868004</speed>
  <fix>3d</fix>
</trkpt>
<trkpt lat="33.8110991" lon="-118.3931899">
  <ele>-19.93</ele>
  <time>2026-09-01T01:14:37Z</time>
  <course>229.13</course>
  <speed>0.93</speed>
  <fix>3d</fix>
</trkpt>
<trkpt lat="33.8110975" lon="-118.3931925">
  <ele>-20.328</ele>
  <time>2026-09-01T01:14:37Z</time>
  <course>231.09</course>
  <speed>0.9027181176868004</speed>
  <fix>3d</fix>
</trkpt>
<trkpt lat="33.811098" lon="-118.3931914">
  <ele>-19.89</ele>
  <time>2026-09-01T01:14:37Z</time>
  <course>229.14</course>
  <speed>0.93</speed>
  <fix>3d</fix>
</trkpt>
<trkpt lat="33.811097" lon="-118.3931933">
  <ele>-20.305</ele>
  <time>2026-09-01T01:14:37Z</time>
  <course>231.08</course>
  <speed>0.9027181176868004</speed>
  <fix>3d</fix>
</trkpt>
<trkpt lat="33.811098" lon="-118.3931914">
  <ele>-19.89</ele>
  <time>2026-09-01T01:14:37Z</time>
  <course>229.14</course>
  <speed>0.93</speed>
  <fix>3d</fix>
</trkpt>
<trkpt lat="33.8110964" lon="-118.3931941">
  <ele>-20.283</ele>
  <time>2026-09-01T01:14:37Z</time>
  <course>231.07</course>
  <speed>0.9027181176868004</speed>
  <fix>3d</fix>
</trkpt>
<trkpt lat="33.8110969" lon="-118.3931929">
  <ele>-19.84</ele>
  <time>2026-09-01T01:14:37Z</time>
  <course>229.15</course>
  <speed>0.93</speed>
  <fix>3d</fix>
</trkpt>
<trkpt lat="33.8110959" lon="-118.3931948">
  <ele>-20.261</ele>
  <time>2026-09-01T01:14:37Z</time>
  <course>231.05</course>
  <speed>0.9027181176868004</speed>
  <fix>3d</fix>
</trkpt>
<trkpt lat="33.8110969" lon="-118.3931929">
  <ele>-19.84</ele>
  <time>2026-09-01T01:14:37Z</time>
  <course>229.15</course>
  <speed>0.93</speed>
  <fix>3d</fix>
</trkpt>
<trkpt lat="33.8110953" lon="-118.3931956">
  <ele>-20.237</ele>
  <time>2026-09-01T01:14:37Z</time>
  <course>231.04</course>
  <speed>0.9027181176868004</speed>
  <fix>3d</fix>
</trkpt>
<trkpt lat="33.8110958" lon="-118.3931945">
  <ele>-19.79</ele>
  <time>2026-09-01T01:14:37Z</time>
  <course>229.16</course>
  <speed>0.93</speed>
  <fix>3d</fix>
</trkpt>
<trkpt lat="33.8110947" lon="-118.3931964">
  <ele>-20.213</ele>
  <time>2026-09-01T01:14:37Z</time>
  <course>231.03</course>
  <speed>0.910494371207203</speed>
  <fix>3d</fix>
</trkpt>
<trkpt lat="33.8110958" lon="-118.3931945">
  <ele>-19.79</ele>
  <time>2026-09-01T01:14:37Z</time>
  <course>229.16</course>
  <speed>0.93</speed>
  <fix>3d</fix>
</trkpt>
<trkpt lat="33.8110942" lon="-118.3931971">
  <ele>-20.187</ele>
  <time>2026-09-01T01:14:37Z</time>
  <course>231.02</course>
  <speed>0.9167878707749137</speed>
  <fix>3d</fix>
</trkpt>
<trkpt lat="33.8110947" lon="-118.393196">
  <ele>-19.75</ele>
  <time>2026-09-01T01:14:37Z</time>
  <course>229.16</course>
  <speed>0.93</speed>
  <fix>3d</fix>
</trkpt>
<trkpt lat="33.8110936" lon="-118.3931979">
  <ele>-20.162</ele>
  <time>2026-09-01T01:14:37Z</time>
  <course>231.0</course>
  <speed>0.9167878707749137</speed>
  <fix>3d</fix>
</trkpt>
<trkpt lat="33.8110947" lon="-118.393196">
  <ele>-19.75</ele>
  <time>2026-09-01T01:14:37Z</time>
  <course>229.16</course>
  <speed>0.93</speed>
  <fix>3d</fix>
</trkpt>
<trkpt lat="33.8110931" lon="-118.3931987">
  <ele>-20.138</ele>
  <time>2026-09-01T01:14:37Z</time>
  <course>230.98</course>
  <speed>0.9167878707749137</speed>
  <fix>3d</fix>
</trkpt>
<trkpt lat="33.8110936" lon="-118.3931975">
  <ele>-19.7</ele>
  <time>2026-09-01T01:14:37Z</time>
  <course>229.13</course>
  <speed>0.93</speed>
  <fix>3d</fix>
</trkpt>
<trkpt lat="33.8110925" lon="-118.3931994">
  <ele>-20.115</ele>
  <time>2026-09-01T01:14:37Z</time>
  <course>230.97</course>
  <speed>0.9167878707749137</speed>
  <fix>3d</fix>
</trkpt>
<trkpt lat="33.8110936" lon="-118.3931975">
  <ele>-19.7</ele>
  <time>2026-09-01T01:14:37Z</time>
  <course>229.13</course>
  <speed>0.93</speed>
  <fix>3d</fix>
</trkpt>
<trkpt lat="33.811092" lon="-118.3932002">
  <ele>-20.092</ele>
  <time>2026-09-01T01:14:37Z</time>
  <course>230.96</course>
  <speed>0.9167878707749137</speed>
  <fix>3d</fix>
</trkpt>
<trkpt lat="33.8110925" lon="-118.3931991">
  <ele>-19.65</ele>
  <time>2026-09-01T01:14:37Z</time>
  <course>229.13</course>
  <speed>0.93</speed>
  <fix>3d</fix>
</trkpt>
<trkpt lat="33.8110914" lon="-118.393201">
  <ele>-20.07</ele>
  <time>2026-09-01T01:14:37Z</time>
  <course>230.95</course>
  <speed>0.9167878707749137</speed>
  <fix>3d</fix>
</trkpt>
<trkpt lat="33.8110925" lon="-118.3931991">
  <ele>-19.65</ele>
  <time>2026-09-01T01:14:37Z</time>
  <course>229.13</course>
  <speed>0.93</speed>
  <fix>3d</fix>
</trkpt>
<trkpt lat="33.8110909" lon="-118.3932018">
  <ele>-20.047</ele>
  <time>2026-09-01T01:14:37Z</time>
  <course>230.93</course>
  <speed>0.9167878707749137</speed>
  <fix>3d</fix>
</trkpt>
<trkpt lat="33.8110914" lon="-118.3932006">
  <ele>-19.61</ele>
  <time>2026-09-01T01:14:37Z</time>
  <course>229.13</course>
  <speed>0.94</speed>
  <fix>3d</fix>
</trkpt>
<trkpt lat="33.8110903" lon="-118.3932025">
  <ele>-20.024</ele>
  <time>2026-09-01T01:14:37Z</time>
  <course>230.91</course>
  <speed>0.9167878707749137</speed>
  <fix>3d</fix>
</trkpt>
<trkpt lat="33.8110914" lon="-118.3932006">
  <ele>-19.61</ele>
  <time>2026-09-01T01:14:37Z</time>
  <course>229.13</course>
  <speed>0.94</speed>
  <fix>3d</fix>
</trkpt>
<trkpt lat="33.8110898" lon="-118.3932033">
  <ele>-20.0</ele>
  <time>2026-09-01T01:14:37Z</time>
  <course>230.89</course>
  <speed>0.9167878707749137</speed>
  <fix>3d</fix>
</trkpt>
<trkpt lat="33.8110903" lon="-118.3932021">
  <ele>-19.56</ele>
  <time>2026-09-01T01:14:37Z</time>
  <course>229.11</course>
  <speed>0.94</speed>
  <fix>3d</fix>
</trkpt>
<trkpt lat="33.8110892" lon="-118.3932041">
  <ele>-19.976</ele>
  <time>2026-09-01T01:14:37Z</time>
  <course>230.88</course>
  <speed>0.9167878707749137</speed>
  <fix>3d</fix>
</trkpt>
<trkpt lat="33.8110903" lon="-118.3932021">
  <ele>-19.56</ele>
  <time>2026-09-01T01:14:37Z</time>
  <course>229.11</course>
  <speed>0.94</speed>
  <fix>3d</fix>
</trkpt>
<trkpt lat="33.8110887" lon="-118.3932048">
  <ele>-19.953</ele>
  <time>2026-09-01T01:14:37Z</time>
  <course>230.87</course>
  <speed>0.9167878707749137</speed>
  <fix>3d</fix>
</trkpt>
<trkpt lat="33.8110892" lon="-118.3932036">
  <ele>-19.52</ele>
  <time>2026-09-01T01:14:37Z</time>
  <course>229.12</course>
  <speed>0.94</speed>
  <fix>3d</fix>
</trkpt>
<trkpt lat="33.8110881" lon="-118.3932056">
  <ele>-19.93</ele>
  <time>2026-09-01T01:14:37Z</time>
  <course>230.87</course>
  <speed>0.9167878707749137</speed>
  <fix>3d</fix>
</trkpt>
<trkpt lat="33.8110892" lon="-118.3932036">
  <ele>-19.52</ele>
  <time>2026-09-01T01:14:37Z</time>
  <course>229.12</course>
  <speed>0.94</speed>
  <fix>3d</fix>
</trkpt>
<trkpt lat="33.8110875" lon="-118.3932064">
  <ele>-19.908</ele>
  <time>2026-09-01T01:14:37Z</time>
  <course>230.88</course>
  <speed>0.9167878707749137</speed>
  <fix>3d</fix>
</trkpt>
<trkpt lat="33.8110881" lon="-118.3932052">
  <ele>-19.47</ele>
  <time>2026-09-01T01:14:37Z</time>
  <course>229.15</course>
  <speed>0.94</speed>
  <fix>3d</fix>
</trkpt>
<trkpt lat="33.811087" lon="-118.3932071">
  <ele>-19.885</ele>
  <time>2026-09-01T01:14:38Z</time>
  <course>230.88</course>
  <speed>0.9167878707749137</speed>
  <fix>3d</fix>
</trkpt>
<trkpt lat="33.8110881" lon="-118.3932052">
  <ele>-19.47</ele>
  <time>2026-09-01T01:14:38Z</time>
  <course>229.15</course>
  <speed>0.94</speed>
  <fix>3d</fix>
</trkpt>
<trkpt lat="33.8110864" lon="-118.3932079">
  <ele>-19.862</ele>
  <time>2026-09-01T01:14:38Z</time>
  <course>230.87</course>
  <speed>0.9167878707749137</speed>
  <fix>3d</fix>
</trkpt>
<trkpt lat="33.811087" lon="-118.3932068">
  <ele>-19.43</ele>
  <time>2026-09-01T01:14:38Z</time>
  <course>229.16</course>
  <speed>0.94</speed>
  <fix>3d</fix>
</trkpt>
<trkpt lat="33.8110859" lon="-118.3932087">
  <ele>-19.839</ele>
  <time>2026-09-01T01:14:38Z</time>
  <course>230.85</course>
  <speed>0.9167878707749137</speed>
  <fix>3d</fix>
</trkpt>
<trkpt lat="33.811087" lon="-118.3932068">
  <ele>-19.43</ele>
  <time>2026-09-01T01:14:38Z</time>
  <course>229.16</course>
  <speed>0.94</speed>
  <fix>3d</fix>
</trkpt>
<trkpt lat="33.8110853" lon="-118.3932095">
  <ele>-19.815</ele>
  <time>2026-09-01T01:14:38Z</time>
  <course>230.82</course>
  <speed>0.9231467922275417</speed>
  <fix>3d</fix>
</trkpt>
<trkpt lat="33.8110858" lon="-118.3932084">
  <ele>-19.38</ele>
  <time>2026-09-01T01:14:38Z</time>
  <course>229.13</course>
  <speed>0.95</speed>
  <fix>3d</fix>
</trkpt>
<trkpt lat="33.8110848" lon="-118.3932103">
  <ele>-19.792</ele>
  <time>2026-09-01T01:14:38Z</time>
  <course>230.79</course>
  <speed>0.9167878707749137</speed>
  <fix>3d</fix>
</trkpt>
<trkpt lat="33.8110858" lon="-118.3932084">
  <ele>-19.38</ele>
  <time>2026-09-01T01:14:38Z</time>
  <course>229.13</course>
  <speed>0.95</speed>
  <fix>3d</fix>
</trkpt>
<trkpt lat="33.8110842" lon="-118.393211">
  <ele>-19.768</ele>
  <time>2026-09-01T01:14:38Z</time>
  <course>230.76</course>
  <speed>0.9231467922275417</speed>
  <fix>3d</fix>
</trkpt>
<trkpt lat="33.8110847" lon="-118.3932099">
  <ele>-19.34</ele>
  <time>2026-09-01T01:14:38Z</time>
  <course>229.08</course>
  <speed>0.95</speed>
  <fix>3d</fix>
</trkpt>
<trkpt lat="33.8110836" lon="-118.3932118">
  <ele>-19.745</ele>
  <time>2026-09-01T01:14:38Z</time>
  <course>230.74</course>
  <speed>0.9245539465060976</speed>
  <fix>3d</fix>
</trkpt>
<trkpt lat="33.8110847" lon="-118.3932099">
  <ele>-19.34</ele>
  <time>2026-09-01T01:14:38Z</time>
  <course>229.08</course>
  <speed>0.95</speed>
  <fix>3d</fix>
</trkpt>
<trkpt lat="33.8110831" lon="-118.3932126">
  <ele>-19.722</ele>
  <time>2026-09-01T01:14:38Z</time>
  <course>230.73</course>
  <speed>0.930859817588019</speed>
  <fix>3d</fix>
</trkpt>
<trkpt lat="33.8110836" lon="-118.3932115">
  <ele>-19.29</ele>
  <time>2026-09-01T01:14:38Z</time>
  <course>229.08</course>
  <speed>0.95</speed>
  <fix>3d</fix>
</trkpt>
<trkpt lat="33.8110825" lon="-118.3932134">
  <ele>-19.698</ele>
  <time>2026-09-01T01:14:38Z</time>
  <course>230.71</course>
  <speed>0.930859817588019</speed>
  <fix>3d</fix>
</trkpt>
<trkpt lat="33.8110836" lon="-118.3932115">
  <ele>-19.29</ele>
  <time>2026-09-01T01:14:38Z</time>
  <course>229.08</course>
  <speed>0.95</speed>
  <fix>3d</fix>
</trkpt>
<trkpt lat="33.811082" lon="-118.3932142">
  <ele>-19.675</ele>
  <time>2026-09-01T01:14:38Z</time>
  <course>230.69</course>
  <speed>0.930859817588019</speed>
  <fix>3d</fix>
</trkpt>
<trkpt lat="33.8110825" lon="-118.393213">
  <ele>-19.25</ele>
  <time>2026-09-01T01:14:38Z</time>
  <course>229.05</course>
  <speed>0.95</speed>
  <fix>3d</fix>
</trkpt>
<trkpt lat="33.8110814" lon="-118.3932149">
  <ele>-19.652</ele>
  <time>2026-09-01T01:14:38Z</time>
  <course>230.67</course>
  <speed>0.930859817588019</speed>
  <fix>3d</fix>
</trkpt>
<trkpt lat="33.8110825" lon="-118.393213">
  <ele>-19.25</ele>
  <time>2026-09-01T01:14:38Z</time>
  <course>229.05</course>
  <speed>0.95</speed>
  <fix>3d</fix>
</trkpt>
<trkpt lat="33.8110808" lon="-118.3932157">
  <ele>-19.63</ele>
  <time>2026-09-01T01:14:38Z</time>
  <course>230.66</course>
  <speed>0.930859817588019</speed>
  <fix>3d</fix>
</trkpt>
<trkpt lat="33.8110814" lon="-118.3932146">
  <ele>-19.2</ele>
  <time>2026-09-01T01:14:38Z</time>
  <course>229.02</course>
  <speed>0.95</speed>
  <fix>3d</fix>
</trkpt>
<trkpt lat="33.8110803" lon="-118.3932165">
  <ele>-19.606</ele>
  <time>2026-09-01T01:14:38Z</time>
  <course>230.64</course>
  <speed>0.930859817588019</speed>
  <fix>3d</fix>
</trkpt>
<trkpt lat="33.8110814" lon="-118.3932146">
  <ele>-19.2</ele>
  <time>2026-09-01T01:14:38Z</time>
  <course>229.02</course>
  <speed>0.95</speed>
  <fix>3d</fix>
</trkpt>
<trkpt lat="33.8110797" lon="-118.3932173">
  <ele>-19.581</ele>
  <time>2026-09-01T01:14:38Z</time>
  <course>230.62</course>
  <speed>0.930859817588019</speed>
  <fix>3d</fix>
</trkpt>
<trkpt lat="33.8110802" lon="-118.3932161">
  <ele>-19.15</ele>
  <time>2026-09-01T01:14:38Z</time>
  <course>229.0</course>
  <speed>0.95</speed>
  <fix>3d</fix>
</trkpt>
<trkpt lat="33.8110792" lon="-118.3932181">
  <ele>-19.557</ele>
  <time>2026-09-01T01:14:38Z</time>
  <course>230.6</course>
  <speed>0.930859817588019</speed>
  <fix>3d</fix>
</trkpt>
<trkpt lat="33.8110802" lon="-118.3932161">
  <ele>-19.15</ele>
  <time>2026-09-01T01:14:38Z</time>
  <course>229.0</course>
  <speed>0.95</speed>
  <fix>3d</fix>
</trkpt>
<trkpt lat="33.8110786" lon="-118.3932188">
  <ele>-19.533</ele>
  <time>2026-09-01T01:14:38Z</time>
  <course>230.6</course>
  <speed>0.930859817588019</speed>
  <fix>3d</fix>
</trkpt>
<trkpt lat="33.8110791" lon="-118.3932177">
  <ele>-19.11</ele>
  <time>2026-09-01T01:14:38Z</time>
  <course>229.0</course>
  <speed>0.96</speed>
  <fix>3d</fix>
</trkpt>
<trkpt lat="33.811078" lon="-118.3932196">
  <ele>-19.511</ele>
  <time>2026-09-01T01:14:38Z</time>
  <course>230.62</course>
  <speed>0.930859817588019</speed>
  <fix>3d</fix>
</trkpt>
<trkpt lat="33.8110791" lon="-118.3932177">
  <ele>-19.11</ele>
  <time>2026-09-01T01:14:38Z</time>
  <course>229.0</course>
  <speed>0.96</speed>
  <fix>3d</fix>
</trkpt>
<trkpt lat="33.8110775" lon="-118.3932204">
  <ele>-19.487</ele>
  <time>2026-09-01T01:14:38Z</time>
  <course>230.64</course>
  <speed>0.930859817588019</speed>
  <fix>3d</fix>
</trkpt>
<trkpt lat="33.811078" lon="-118.3932193">
  <ele>-19.06</ele>
  <time>2026-09-01T01:14:38Z</time>
  <course>229.03</course>
  <speed>0.96</speed>
  <fix>3d</fix>
</trkpt>
<trkpt lat="33.8110769" lon="-118.3932212">
  <ele>-19.462</ele>
  <time>2026-09-01T01:14:38Z</time>
  <course>230.64</course>
  <speed>0.930859817588019</speed>
  <fix>3d</fix>
</trkpt>
<trkpt lat="33.811078" lon="-118.3932193">
  <ele>-19.06</ele>
  <time>2026-09-01T01:14:38Z</time>
  <course>229.03</course>
  <speed>0.96</speed>
  <fix>3d</fix>
</trkpt>
<trkpt lat="33.8110763" lon="-118.393222">
  <ele>-19.437</ele>
  <time>2026-09-01T01:14:38Z</time>
  <course>230.64</course>
  <speed>0.930859817588019</speed>
  <fix>3d</fix>
</trkpt>
<trkpt lat="33.8110768" lon="-118.3932209">
  <ele>-19.01</ele>
  <time>2026-09-01T01:14:38Z</time>
  <course>229.05</course>
  <speed>0.96</speed>
  <fix>3d</fix>
</trkpt>
<trkpt lat="33.8110758" lon="-118.3932227">
  <ele>-19.412</ele>
  <time>2026-09-01T01:14:38Z</time>
  <course>230.63</course>
  <speed>0.930859817588019</speed>
  <fix>3d</fix>
</trkpt>
<trkpt lat="33.8110768" lon="-118.3932209">
  <ele>-19.01</ele>
  <time>2026-09-01T01:14:38Z</time>
  <course>229.05</course>
  <speed>0.96</speed>
  <fix>3d</fix>
</trkpt>
<trkpt lat="33.8110752" lon="-118.3932235">
  <ele>-19.388</ele>
  <time>2026-09-01T01:14:38Z</time>
  <course>230.63</course>
  <speed>0.930859817588019</speed>
  <fix>3d</fix>
</trkpt>
<trkpt lat="33.8110757" lon="-118.3932224">
  <ele>-18.97</ele>
  <time>2026-09-01T01:14:38Z</time>
  <course>229.04</course>
  <speed>0.96</speed>
  <fix>3d</fix>
</trkpt>
<trkpt lat="33.8110746" lon="-118.3932243">
  <ele>-19.364</ele>
  <time>2026-09-01T01:14:38Z</time>
  <course>230.62</course>
  <speed>0.930859817588019</speed>
  <fix>3d</fix>
</trkpt>
<trkpt lat="33.8110757" lon="-118.3932224">
  <ele>-18.97</ele>
  <time>2026-09-01T01:14:38Z</time>
  <course>229.04</course>
  <speed>0.96</speed>
  <fix>3d</fix>
</trkpt>
<trkpt lat="33.8110741" lon="-118.3932251">
  <ele>-19.341</ele>
  <time>2026-09-01T01:14:38Z</time>
  <course>230.63</course>
  <speed>0.930859817588019</speed>
  <fix>3d</fix>
</trkpt>
<trkpt lat="33.8110746" lon="-118.393224">
  <ele>-18.92</ele>
  <time>2026-09-01T01:14:38Z</time>
  <course>229.06</course>
  <speed>0.96</speed>
  <fix>3d</fix>
</trkpt>
<trkpt lat="33.8110735" lon="-118.3932259">
  <ele>-19.318</ele>
  <time>2026-09-01T01:14:38Z</time>
  <course>230.63</course>
  <speed>0.930859817588019</speed>
  <fix>3d</fix>
</trkpt>
<trkpt lat="33.8110746" lon="-118.393224">
  <ele>-18.92</ele>
  <time>2026-09-01T01:14:38Z</time>
  <course>229.06</course>
  <speed>0.96</speed>
  <fix>3d</fix>
</trkpt>
<trkpt lat="33.8110729" lon="-118.3932267">
  <ele>-19.296</ele>
  <time>2026-09-01T01:14:38Z</time>
  <course>230.63</course>
  <speed>0.930859817588019</speed>
  <fix>3d</fix>
</trkpt>
<trkpt lat="33.8110734" lon="-118.3932256">
  <ele>-18.88</ele>
  <time>2026-09-01T01:14:38Z</time>
  <course>229.07</course>
  <speed>0.96</speed>
  <fix>3d</fix>
</trkpt>
<trkpt lat="33.8110724" lon="-118.3932275">
  <ele>-19.273</ele>
  <time>2026-09-01T01:14:38Z</time>
  <course>230.62</course>
  <speed>0.930859817588019</speed>
  <fix>3d</fix>
</trkpt>
<trkpt lat="33.8110734" lon="-118.3932256">
  <ele>-18.88</ele>
  <time>2026-09-01T01:14:38Z</time>
  <course>229.07</course>
  <speed>0.96</speed>
  <fix>3d</fix>
</trkpt>
<trkpt lat="33.8110718" lon="-118.3932283">
  <ele>-19.25</ele>
  <time>2026-09-01T01:14:38Z</time>
  <course>230.61</course>
  <speed>0.930859817588019</speed>
  <fix>3d</fix>
</trkpt>
<trkpt lat="33.8110723" lon="-118.3932271">
  <ele>-18.84</ele>
  <time>2026-09-01T01:14:38Z</time>
  <course>229.07</course>
  <speed>0.96</speed>
  <fix>3d</fix>
</trkpt>
<trkpt lat="33.8110712" lon="-118.393229">
  <ele>-19.226</ele>
  <time>2026-09-01T01:14:38Z</time>
  <course>230.62</course>
  <speed>0.930859817588019</speed>
  <fix>3d</fix>
</trkpt>
<trkpt lat="33.8110723" lon="-118.3932271">
  <ele>-18.84</ele>
  <time>2026-09-01T01:14:38Z</time>
  <course>229.07</course>
  <speed>0.96</speed>
  <fix>3d</fix>
</trkpt>
<trkpt lat="33.8110707" lon="-118.3932298">
  <ele>-19.203</ele>
  <time>2026-09-01T01:14:38Z</time>
  <course>230.63</course>
  <speed>0.930859817588019</speed>
  <fix>3d</fix>
</trkpt>
<trkpt lat="33.8110712" lon="-118.3932288">
  <ele>-18.79</ele>
  <time>2026-09-01T01:14:38Z</time>
  <course>229.08</course>
  <speed>0.96</speed>
  <fix>3d</fix>
</trkpt>
<trkpt lat="33.8110701" lon="-118.3932306">
  <ele>-19.181</ele>
  <time>2026-09-01T01:14:38Z</time>
  <course>230.63</course>
  <speed>0.930859817588019</speed>
  <fix>3d</fix>
</trkpt>
<trkpt lat="33.8110712" lon="-118.3932288">
  <ele>-18.79</ele>
  <time>2026-09-01T01:14:38Z</time>
  <course>229.08</course>
  <speed>0.96</speed>
  <fix>3d</fix>
</trkpt>
<trkpt lat="33.8110695" lon="-118.3932314">
  <ele>-19.159</ele>
  <time>2026-09-01T01:14:38Z</time>
  <course>230.62</course>
  <speed>0.930859817588019</speed>
  <fix>3d</fix>
</trkpt>
<trkpt lat="33.81107" lon="-118.3932303">
  <ele>-18.75</ele>
  <time>2026-09-01T01:14:38Z</time>
  <course>229.04</course>
  <speed>0.96</speed>
  <fix>3d</fix>
</trkpt>
<trkpt lat="33.811069" lon="-118.3932322">
  <ele>-19.136</ele>
  <time>2026-09-01T01:14:38Z</time>
  <course>230.61</course>
  <speed>0.930859817588019</speed>
  <fix>3d</fix>
</trkpt>
<trkpt lat="33.81107" lon="-118.3932303">
  <ele>-18.75</ele>
  <time>2026-09-01T01:14:38Z</time>
  <course>229.04</course>
  <speed>0.96</speed>
  <fix>3d</fix>
</trkpt>
<trkpt lat="33.8110684" lon="-118.393233">
  <ele>-19.112</ele>
  <time>2026-09-01T01:14:38Z</time>
  <course>230.6</course>
  <speed>0.930859817588019</speed>
  <fix>3d</fix>
</trkpt>
<trkpt lat="33.8110688" lon="-118.3932319">
  <ele>-18.7</ele>
  <time>2026-09-01T01:14:38Z</time>
  <course>229.02</course>
  <speed>0.96</speed>
  <fix>3d</fix>
</trkpt>
<trkpt lat="33.8110678" lon="-118.3932338">
  <ele>-19.089</ele>
  <time>2026-09-01T01:14:38Z</time>
  <course>230.61</course>
  <speed>0.9386160024205852</speed>
  <fix>3d</fix>
</trkpt>
<trkpt lat="33.8110688" lon="-118.3932319">
  <ele>-18.7</ele>
  <time>2026-09-01T01:14:38Z</time>
  <course>229.02</course>
  <speed>0.96</speed>
  <fix>3d</fix>
</trkpt>
<trkpt lat="33.8110672" lon="-118.3932346">
  <ele>-19.064</ele>
  <time>2026-09-01T01:14:38Z</time>
  <course>230.64</course>
  <speed>0.9386160024205852</speed>
  <fix>3d</fix>
</trkpt>
<trkpt lat="33.8110677" lon="-118.3932335">
  <ele>-18.65</ele>
  <time>2026-09-01T01:14:38Z</time>
  <course>229.08</course>
  <speed>0.96</speed>
  <fix>3d</fix>
</trkpt>
<trkpt lat="33.8110667" lon="-118.3932354">
  <ele>-19.039</ele>
  <time>2026-09-01T01:14:38Z</time>
  <course>230.66</course>
  <speed>0.9386160024205852</speed>
  <fix>3d</fix>
</trkpt>
<trkpt lat="33.8110677" lon="-118.3932335">
  <ele>-18.65</ele>
  <time>2026-09-01T01:14:38Z</time>
  <course>229.08</course>
  <speed>0.96</speed>
  <fix>3d</fix>
</trkpt>
<trkpt lat="33.8110661" lon="-118.3932362">
  <ele>-19.013</ele>
  <time>2026-09-01T01:14:38Z</time>
  <course>230.68</course>
  <speed>0.9386160024205852</speed>
  <fix>3d</fix>
</trkpt>
<trkpt lat="33.8110666" lon="-118.3932351">
  <ele>-18.6</ele>
  <time>2026-09-01T01:14:38Z</time>
  <course>229.14</course>
  <speed>0.96</speed>
  <fix>3d</fix>
</trkpt>
<trkpt lat="33.8110655" lon="-118.393237">
  <ele>-18.988</ele>
  <time>2026-09-01T01:14:38Z</time>
  <course>230.69</course>
  <speed>0.9386160024205852</speed>
  <fix>3d</fix>
</trkpt>
<trkpt lat="33.8110666" lon="-118.3932351">
  <ele>-18.6</ele>
  <time>2026-09-01T01:14:38Z</time>
  <course>229.14</course>
  <speed>0.96</speed>
  <fix>3d</fix>
</trkpt>
<trkpt lat="33.811065" lon="-118.3932378">
  <ele>-18.963</ele>
  <time>2026-09-01T01:14:38Z</time>
  <course>230.7</course>
  <speed>0.930859817588019</speed>
  <fix>3d</fix>
</trkpt>
<trkpt lat="33.8110655" lon="-118.3932367">
  <ele>-18.56</ele>
  <time>2026-09-01T01:14:38Z</time>
  <course>229.15</course>
  <speed>0.96</speed>
  <fix>3d</fix>
</trkpt>
<trkpt lat="33.8110644" lon="-118.3932385">
  <ele>-18.938</ele>
  <time>2026-09-01T01:14:38Z</time>
  <course>230.68</course>
  <speed>0.9372299611087985</speed>
  <fix>3d</fix>
</trkpt>
<trkpt lat="33.8110655" lon="-118.3932367">
  <ele>-18.56</ele>
  <time>2026-09-01T01:14:38Z</time>
  <course>229.15</course>
  <speed>0.96</speed>
  <fix>3d</fix>
</trkpt>
<trkpt lat="33.8110638" lon="-118.3932393">
  <ele>-18.914</ele>
  <time>2026-09-01T01:14:38Z</time>
  <course>230.64</course>
  <speed>0.9449338601193208</speed>
  <fix>3d</fix>
</trkpt>
<trkpt lat="33.8110643" lon="-118.3932383">
  <ele>-18.51</ele>
  <time>2026-09-01T01:14:38Z</time>
  <course>229.1</course>
  <speed>0.96</speed>
  <fix>3d</fix>
</trkpt>
<trkpt lat="33.8110632" lon="-118.3932401">
  <ele>-18.89</ele>
  <time>2026-09-01T01:14:38Z</time>
  <course>230.61</course>
  <speed>0.9449338601193208</speed>
  <fix>3d</fix>
</trkpt>
<trkpt lat="33.8110643" lon="-118.3932383">
  <ele>-18.51</ele>
  <time>2026-09-01T01:14:38Z</time>
  <course>229.1</course>
  <speed>0.96</speed>
  <fix>3d</fix>
</trkpt>
<trkpt lat="33.8110627" lon="-118.3932409">
  <ele>-18.867</ele>
  <time>2026-09-01T01:14:38Z</time>
  <course>230.57</course>
  <speed>0.9449338601193208</speed>
  <fix>3d</fix>
</trkpt>
<trkpt lat="33.8110632" lon="-118.3932398">
  <ele>-18.47</ele>
  <time>2026-09-01T01:14:38Z</time>
  <course>229.04</course>
  <speed>0.96</speed>
  <fix>3d</fix>
</trkpt>
<trkpt lat="33.8110621" lon="-118.3932417">
  <ele>-18.844</ele>
  <time>2026-09-01T01:14:38Z</time>
  <course>230.55</course>
  <speed>0.9449338601193208</speed>
  <fix>3d</fix>
</trkpt>
<trkpt lat="33.8110632" lon="-118.3932398">
  <ele>-18.47</ele>
  <time>2026-09-01T01:14:38Z</time>
  <course>229.04</course>
  <speed>0.96</speed>
  <fix>3d</fix>
</trkpt>
<trkpt lat="33.8110615" lon="-118.3932425">
  <ele>-18.822</ele>
  <time>2026-09-01T01:14:38Z</time>
  <course>230.53</course>
  <speed>0.9449338601193208</speed>
  <fix>3d</fix>
</trkpt>
<trkpt lat="33.811062" lon="-118.3932414">
  <ele>-18.42</ele>
  <time>2026-09-01T01:14:38Z</time>
  <course>229.03</course>
  <speed>0.97</speed>
  <fix>3d</fix>
</trkpt>
<trkpt lat="33.811061" lon="-118.3932433">
  <ele>-18.8</ele>
  <time>2026-09-01T01:14:38Z</time>
  <course>230.52</course>
  <speed>0.9449338601193208</speed>
  <fix>3d</fix>
</trkpt>
<trkpt lat="33.811062" lon="-118.3932414">
  <ele>-18.42</ele>
  <time>2026-09-01T01:14:38Z</time>
  <course>229.03</course>
  <speed>0.97</speed>
  <fix>3d</fix>
</trkpt>
<trkpt lat="33.8110604" lon="-118.3932441">
  <ele>-18.778</ele>
  <time>2026-09-01T01:14:38Z</time>
  <course>230.53</course>
  <speed>0.9449338601193208</speed>
  <fix>3d</fix>
</trkpt>
<trkpt lat="33.8110609" lon="-118.3932429">
  <ele>-18.38</ele>
  <time>2026-09-01T01:14:38Z</time>
  <course>229.06</course>
  <speed>0.97</speed>
  <fix>3d</fix>
</trkpt>
<trkpt lat="33.8110598" lon="-118.3932449">
  <ele>-18.756</ele>
  <time>2026-09-01T01:14:38Z</time>
  <course>230.56</course>
  <speed>0.9449338601193208</speed>
  <fix>3d</fix>
</trkpt>
<trkpt lat="33.8110609" lon="-118.3932429">
  <ele>-18.38</ele>
  <time>2026-09-01T01:14:38Z</time>
  <course>229.06</course>
  <speed>0.97</speed>
  <fix>3d</fix>
</trkpt>
<trkpt lat="33.8110592" lon="-118.3932457">
  <ele>-18.733</ele>
  <time>2026-09-01T01:14:38Z</time>
  <course>230.58</course>
  <speed>0.9449338601193208</speed>
  <fix>3d</fix>
</trkpt>
<trkpt lat="33.8110597" lon="-118.3932446">
  <ele>-18.33</ele>
  <time>2026-09-01T01:14:38Z</time>
  <course>229.11</course>
  <speed>0.97</speed>
  <fix>3d</fix>
</trkpt>
<trkpt lat="33.8110587" lon="-118.3932465">
  <ele>-18.709</ele>
  <time>2026-09-01T01:14:38Z</time>
  <course>230.6</course>
  <speed>0.9449338601193208</speed>
  <fix>3d</fix>
</trkpt>
<trkpt lat="33.8110597" lon="-118.3932446">
  <ele>-18.33</ele>
  <time>2026-09-01T01:14:38Z</time>
  <course>229.11</course>
  <speed>0.97</speed>
  <fix>3d</fix>
</trkpt>
<trkpt lat="33.8110581" lon="-118.3932473">
  <ele>-18.686</ele>
  <time>2026-09-01T01:14:38Z</time>
  <course>230.62</course>
  <speed>0.9449338601193208</speed>
  <fix>3d</fix>
</trkpt>
<trkpt lat="33.8110586" lon="-118.3932462">
  <ele>-18.29</ele>
  <time>2026-09-01T01:14:38Z</time>
  <course>229.15</course>
  <speed>0.97</speed>
  <fix>3d</fix>
</trkpt>
<trkpt lat="33.8110575" lon="-118.3932481">
  <ele>-18.661</ele>
  <time>2026-09-01T01:14:38Z</time>
  <course>230.63</course>
  <speed>0.9449338601193208</speed>
  <fix>3d</fix>
</trkpt>
<trkpt lat="33.8110586" lon="-118.3932462">
  <ele>-18.29</ele>
  <time>2026-09-01T01:14:38Z</time>
  <course>229.15</course>
  <speed>0.97</speed>
  <fix>3d</fix>
</trkpt>
<trkpt lat="33.8110569" lon="-118.3932489">
  <ele>-18.636</ele>
  <time>2026-09-01T01:14:38Z</time>
  <course>230.63</course>
  <speed>0.9449338601193208</speed>
  <fix>3d</fix>
</trkpt>
<trkpt lat="33.8110574" lon="-118.3932477">
  <ele>-18.24</ele>
  <time>2026-09-01T01:14:38Z</time>
  <course>229.15</course>
  <speed>0.97</speed>
  <fix>3d</fix>
</trkpt>
<trkpt lat="33.8110564" lon="-118.3932497">
  <ele>-18.612</ele>
  <time>2026-09-01T01:14:38Z</time>
  <course>230.64</course>
  <speed>0.9449338601193208</speed>
  <fix>3d</fix>
</trkpt>
<trkpt lat="33.8110574" lon="-118.3932477">
  <ele>-18.24</ele>
  <time>2026-09-01T01:14:38Z</time>
  <course>229.15</course>
  <speed>0.97</speed>
  <fix>3d</fix>
</trkpt>
<trkpt lat="33.8110558" lon="-118.3932505">
  <ele>-18.587</ele>
  <time>2026-09-01T01:14:38Z</time>
  <course>230.65</course>
  <speed>0.9449338601193208</speed>
  <fix>3d</fix>
</trkpt>
<trkpt lat="33.8110563" lon="-118.3932494">
  <ele>-18.19</ele>
  <time>2026-09-01T01:14:38Z</time>
  <course>229.17</course>
  <speed>0.97</speed>
  <fix>3d</fix>
</trkpt>
<trkpt lat="33.8110552" lon="-118.3932513">
  <ele>-18.562</ele>
  <time>2026-09-01T01:14:38Z</time>
  <course>230.66</course>
  <speed>0.9449338601193208</speed>
  <fix>3d</fix>
</trkpt>
<trkpt lat="33.8110563" lon="-118.3932494">
  <ele>-18.19</ele>
  <time>2026-09-01T01:14:38Z</time>
  <course>229.17</course>
  <speed>0.97</speed>
  <fix>3d</fix>
</trkpt>
<trkpt lat="33.8110546" lon="-118.3932521">
  <ele>-18.537</ele>
  <time>2026-09-01T01:14:38Z</time>
  <course>230.66</course>
  <speed>0.9449338601193208</speed>
  <fix>3d</fix>
</trkpt>
<trkpt lat="33.8110552" lon="-118.393251">
  <ele>-18.14</ele>
  <time>2026-09-01T01:14:38Z</time>
  <course>229.21</course>
  <speed>0.97</speed>
  <fix>3d</fix>
</trkpt>
<trkpt lat="33.8110541" lon="-118.3932529">
  <ele>-18.511</ele>
  <time>2026-09-01T01:14:38Z</time>
  <course>230.65</course>
  <speed>0.9449338601193208</speed>
  <fix>3d</fix>
</trkpt>
<trkpt lat="33.8110552" lon="-118.393251">
  <ele>-18.14</ele>
  <time>2026-09-01T01:14:38Z</time>
  <course>229.21</course>
  <speed>0.97</speed>
  <fix>3d</fix>
</trkpt>
<trkpt lat="33.8110535" lon="-118.3932537">
  <ele>-18.485</ele>
  <time>2026-09-01T01:14:38Z</time>
  <course>230.61</course>
  <speed>0.9449338601193208</speed>
  <fix>3d</fix>
</trkpt>
<trkpt lat="33.811054" lon="-118.3932526">
  <ele>-18.09</ele>
  <time>2026-09-01T01:14:38Z</time>
  <course>229.17</course>
  <speed>0.97</speed>
  <fix>3d</fix>
</trkpt>
<trkpt lat="33.8110529" lon="-118.3932545">
  <ele>-18.46</ele>
  <time>2026-09-01T01:14:38Z</time>
  <course>230.58</course>
  <speed>0.9449338601193208</speed>
  <fix>3d</fix>
</trkpt>
<trkpt lat="33.811054" lon="-118.3932526">
  <ele>-18.09</ele>
  <time>2026-09-01T01:14:38Z</time>
  <course>229.17</course>
  <speed>0.97</speed>
  <fix>3d</fix>
</trkpt>
<trkpt lat="33.8110523" lon="-118.3932553">
  <ele>-18.437</ele>
  <time>2026-09-01T01:14:38Z</time>
  <course>230.54</course>
  <speed>0.9449338601193208</speed>
  <fix>3d</fix>
</trkpt>
<trkpt lat="33.8110529" lon="-118.3932542">
  <ele>-18.04</ele>
  <time>2026-09-01T01:14:38Z</time>
  <course>229.1</course>
  <speed>0.97</speed>
  <fix>3d</fix>
</trkpt>
<trkpt lat="33.8110518" lon="-118.3932561">
  <ele>-18.414</ele>
  <time>2026-09-01T01:14:38Z</time>
  <course>230.5</course>
  <speed>0.9449338601193208</speed>
  <fix>3d</fix>
</trkpt>
<trkpt lat="33.8110529" lon="-118.3932542">
  <ele>-18.04</ele>
  <time>2026-09-01T01:14:38Z</time>
  <course>229.1</course>
  <speed>0.97</speed>
  <fix>3d</fix>
</trkpt>
<trkpt lat="33.8110512" lon="-118.3932569">
  <ele>-18.392</ele>
  <time>2026-09-01T01:14:38Z</time>
  <course>230.47</course>
  <speed>0.9449338601193208</speed>
  <fix>3d</fix>
</trkpt>
<trkpt lat="33.8110517" lon="-118.3932558">
  <ele>-17.99</ele>
  <time>2026-09-01T01:14:38Z</time>
  <course>229.04</course>
  <speed>0.97</speed>
  <fix>3d</fix>
</trkpt>
<trkpt lat="33.8110506" lon="-118.3932577">
  <ele>-18.369</ele>
  <time>2026-09-01T01:14:38Z</time>
  <course>230.44</course>
  <speed>0.9449338601193208</speed>
  <fix>3d</fix>
</trkpt>
<trkpt lat="33.8110517" lon="-118.3932558">
  <ele>-17.99</ele>
  <time>2026-09-01T01:14:38Z</time>
  <course>229.04</course>
  <speed>0.97</speed>
  <fix>3d</fix>
</trkpt>
<trkpt lat="33.81105" lon="-118.3932585">
  <ele>-18.345</ele>
  <time>2026-09-01T01:14:38Z</time>
  <course>230.42</course>
  <speed>0.9513148795220223</speed>
  <fix>3d</fix>
</trkpt>
<trkpt lat="33.8110506" lon="-118.3932574">
  <ele>-17.94</ele>
  <time>2026-09-01T01:14:38Z</time>
  <course>229.0</course>
  <speed>0.97</speed>
  <fix>3d</fix>
</trkpt>
<trkpt lat="33.8110495" lon="-118.3932593">
  <ele>-18.32</ele>
  <time>2026-09-01T01:14:38Z</time>
  <course>230.4</course>
  <speed>0.9513148795220223</speed>
  <fix>3d</fix>
</trkpt>
<trkpt lat="33.8110506" lon="-118.3932574">
  <ele>-17.94</ele>
  <time>2026-09-01T01:14:38Z</time>
  <course>229.0</course>
  <speed>0.97</speed>
  <fix>3d</fix>
</trkpt>
<trkpt lat="33.8110489" lon="-118.3932601">
  <ele>-18.296</ele>
  <time>2026-09-01T01:14:38Z</time>
  <course>230.38</course>
  <speed>0.9513148795220223</speed>
  <fix>3d</fix>
</trkpt>
<trkpt lat="33.8110494" lon="-118.393259">
  <ele>-17.9</ele>
  <time>2026-09-01T01:14:38Z</time>
  <course>228.97</course>
  <speed>0.98</speed>
  <fix>3d</fix>
</trkpt>
<trkpt lat="33.8110483" lon="-118.3932609">
  <ele>-18.271</ele>
  <time>2026-09-01T01:14:38Z</time>
  <course>230.36</course>
  <speed>0.9590099061010788</speed>
  <fix>3d</fix>
</trkpt>
<trkpt lat="33.8110494" lon="-118.393259">
  <ele>-17.9</ele>
  <time>2026-09-01T01:14:38Z</time>
  <course>228.97</course>
  <speed>0.98</speed>
  <fix>3d</fix>
</trkpt>
<trkpt lat="33.8110477" lon="-118.3932617">
  <ele>-18.246</ele>
  <time>2026-09-01T01:14:38Z</time>
  <course>230.35</course>
  <speed>0.9590099061010788</speed>
  <fix>3d</fix>
</trkpt>
<trkpt lat="33.8110482" lon="-118.3932606">
  <ele>-17.85</ele>
  <time>2026-09-01T01:14:38Z</time>
  <course>228.96</course>
  <speed>0.98</speed>
  <fix>3d</fix>
</trkpt>
<trkpt lat="33.8110471" lon="-118.3932625">
  <ele>-18.221</ele>
  <time>2026-09-01T01:14:38Z</time>
  <course>230.36</course>
  <speed>0.9590099061010788</speed>
  <fix>3d</fix>
</trkpt>
<trkpt lat="33.8110482" lon="-118.3932606">
  <ele>-17.85</ele>
  <time>2026-09-01T01:14:38Z</time>
  <course>228.96</course>
  <speed>0.98</speed>
  <fix>3d</fix>
</trkpt>
<trkpt lat="33.8110466" lon="-118.3932633">
  <ele>-18.196</ele>
  <time>2026-09-01T01:14:38Z</time>
  <course>230.37</course>
  <speed>0.9590099061010788</speed>
  <fix>3d</fix>
</trkpt>
<trkpt lat="33.8110471" lon="-118.3932622">
  <ele>-17.8</ele>
  <time>2026-09-01T01:14:38Z</time>
  <course>228.99</course>
  <speed>0.98</speed>
  <fix>3d</fix>
</trkpt>
<trkpt lat="33.811046" lon="-118.3932641">
  <ele>-18.17</ele>
  <time>2026-09-01T01:14:38Z</time>
  <course>230.39</course>
  <speed>0.9590099061010788</speed>
  <fix>3d</fix>
</trkpt>
<trkpt lat="33.8110471" lon="-118.3932622">
  <ele>-17.8</ele>
  <time>2026-09-01T01:14:38Z</time>
  <course>228.99</course>
  <speed>0.98</speed>
  <fix>3d</fix>
</trkpt>
<trkpt lat="33.8110454" lon="-118.3932649">
  <ele>-18.145</ele>
  <time>2026-09-01T01:14:38Z</time>
  <course>230.4</course>
  <speed>0.9590099061010788</speed>
  <fix>3d</fix>
</trkpt>
<trkpt lat="33.811046" lon="-118.3932638">
  <ele>-17.75</ele>
  <time>2026-09-01T01:14:38Z</time>
  <course>229.02</course>
  <speed>0.98</speed>
  <fix>3d</fix>
</trkpt>
<trkpt lat="33.8110448" lon="-118.3932657">
  <ele>-18.119</ele>
  <time>2026-09-01T01:14:38Z</time>
  <course>230.39</course>
  <speed>0.9590099061010788</speed>
  <fix>3d</fix>
</trkpt>
<trkpt lat="33.811046" lon="-118.3932638">
  <ele>-17.75</ele>
  <time>2026-09-01T01:14:38Z</time>
  <course>229.02</course>
  <speed>0.98</speed>
  <fix>3d</fix>
</trkpt>
<trkpt lat="33.8110442" lon="-118.3932665">
  <ele>-18.095</ele>
  <time>2026-09-01T01:14:38Z</time>
  <course>230.38</course>
  <speed>0.9590099061010788</speed>
  <fix>3d</fix>
</trkpt>
<trkpt lat="33.8110448" lon="-118.3932654">
  <ele>-17.7</ele>
  <time>2026-09-01T01:14:38Z</time>
  <course>229.0</course>
  <speed>0.98</speed>
  <fix>3d</fix>
</trkpt>
<trkpt lat="33.8110437" lon="-118.3932674">
  <ele>-18.071</ele>
  <time>2026-09-01T01:14:38Z</time>
  <course>230.36</course>
  <speed>0.9590099061010788</speed>
  <fix>3d</fix>
</trkpt>
<trkpt lat="33.8110448" lon="-118.3932654">
  <ele>-17.7</ele>
  <time>2026-09-01T01:14:38Z</time>
  <course>229.0</course>
  <speed>0.98</speed>
  <fix>3d</fix>
</trkpt>
<trkpt lat="33.8110431" lon="-118.3932682">
  <ele>-18.047</ele>
  <time>2026-09-01T01:14:38Z</time>
  <course>230.35</course>
  <speed>0.9590099061010788</speed>
  <fix>3d</fix>
</trkpt>
<trkpt lat="33.8110436" lon="-118.393267">
  <ele>-17.66</ele>
  <time>2026-09-01T01:14:38Z</time>
  <course>228.95</course>
  <speed>0.98</speed>
  <fix>3d</fix>
</trkpt>
<trkpt lat="33.8110425" lon="-118.393269">
  <ele>-18.023</ele>
  <time>2026-09-01T01:14:38Z</time>
  <course>230.35</course>
  <speed>0.9590099061010788</speed>
  <fix>3d</fix>
</trkpt>
<trkpt lat="33.8110436" lon="-118.393267">
  <ele>-17.66</ele>
  <time>2026-09-01T01:14:38Z</time>
  <course>228.95</course>
  <speed>0.98</speed>
  <fix>3d</fix>
</trkpt>
<trkpt lat="33.8110419" lon="-118.3932698">
  <ele>-17.999</ele>
  <time>2026-09-01T01:14:38Z</time>
  <course>230.36</course>
  <speed>0.9590099061010788</speed>
  <fix>3d</fix>
</trkpt>
<trkpt lat="33.8110425" lon="-118.3932686">
  <ele>-17.61</ele>
  <time>2026-09-01T01:14:38Z</time>
  <course>228.97</course>
  <speed>0.98</speed>
  <fix>3d</fix>
</trkpt>
<trkpt lat="33.8110413" lon="-118.3932706">
  <ele>-17.976</ele>
  <time>2026-09-01T01:14:38Z</time>
  <course>230.37</course>
  <speed>0.9590099061010788</speed>
  <fix>3d</fix>
</trkpt>
<trkpt lat="33.8110425" lon="-118.3932686">
  <ele>-17.61</ele>
  <time>2026-09-01T01:14:38Z</time>
  <course>228.97</course>
  <speed>0.98</speed>
  <fix>3d</fix>
</trkpt>
<trkpt lat="33.8110408" lon="-118.3932714">
  <ele>-17.953</ele>
  <time>2026-09-01T01:14:38Z</time>
  <course>230.38</course>
  <speed>0.9590099061010788</speed>
  <fix>3d</fix>
</trkpt>
<trkpt lat="33.8110413" lon="-118.3932702">
  <ele>-17.57</ele>
  <time>2026-09-01T01:14:38Z</time>
  <course>228.99</course>
  <speed>0.98</speed>
  <fix>3d</fix>
</trkpt>
<trkpt lat="33.8110402" lon="-118.3932722">
  <ele>-17.93</ele>
  <time>2026-09-01T01:14:38Z</time>
  <course>230.39</course>
  <speed>0.9590099061010788</speed>
  <fix>3d</fix>
</trkpt>
<trkpt lat="33.8110413" lon="-118.3932702">
  <ele>-17.57</ele>
  <time>2026-09-01T01:14:38Z</time>
  <course>228.99</course>
  <speed>0.98</speed>
  <fix>3d</fix>
</trkpt>
<trkpt lat="33.8110396" lon="-118.393273">
  <ele>-17.907</ele>
  <time>2026-09-01T01:14:38Z</time>
  <course>230.39</course>
  <speed>0.9590099061010788</speed>
  <fix>3d</fix>
</trkpt>
<trkpt lat="33.8110401" lon="-118.3932718">
  <ele>-17.52</ele>
  <time>2026-09-01T01:14:38Z</time>
  <course>228.99</course>
  <speed>0.98</speed>
  <fix>3d</fix>
</trkpt>
<trkpt lat="33.811039" lon="-118.3932738">
  <ele>-17.883</ele>
  <time>2026-09-01T01:14:38Z</time>
  <course>230.41</course>
  <speed>0.9590099061010788</speed>
  <fix>3d</fix>
</trkpt>
<trkpt lat="33.8110401" lon="-118.3932718">
  <ele>-17.52</ele>
  <time>2026-09-01T01:14:38Z</time>
  <course>228.99</course>
  <speed>0.98</speed>
  <fix>3d</fix>
</trkpt>
<trkpt lat="33.8110384" lon="-118.3932746">
  <ele>-17.859</ele>
  <time>2026-09-01T01:14:38Z</time>
  <course>230.44</course>
  <speed>0.9590099061010788</speed>
  <fix>3d</fix>
</trkpt>
<trkpt lat="33.811039" lon="-118.3932734">
  <ele>-17.48</ele>
  <time>2026-09-01T01:14:38Z</time>
  <course>229.02</course>
  <speed>0.99</speed>
  <fix>3d</fix>
</trkpt>
<trkpt lat="33.8110378" lon="-118.3932754">
  <ele>-17.833</ele>
  <time>2026-09-01T01:14:38Z</time>
  <course>230.47</course>
  <speed>0.9667471230885561</speed>
  <fix>3d</fix>
</trkpt>
<trkpt lat="33.811039" lon="-118.3932734">
  <ele>-17.48</ele>
  <time>2026-09-01T01:14:38Z</time>
  <course>229.02</course>
  <speed>0.99</speed>
  <fix>3d</fix>
</trkpt>
<trkpt lat="33.8110373" lon="-118.3932762">
  <ele>-17.808</ele>
  <time>2026-09-01T01:14:38Z</time>
  <course>230.49</course>
  <speed>0.9667471230885561</speed>
  <fix>3d</fix>
</trkpt>
<trkpt lat="33.8110378" lon="-118.3932751">
  <ele>-17.43</ele>
  <time>2026-09-01T01:14:38Z</time>
  <course>229.07</course>
  <speed>0.99</speed>
  <fix>3d</fix>
</trkpt>
<trkpt lat="33.8110367" lon="-118.393277">
  <ele>-17.783</ele>
  <time>2026-09-01T01:14:38Z</time>
  <course>230.5</course>
  <speed>0.9667471230885561</speed>
  <fix>3d</fix>
</trkpt>
<trkpt lat="33.8110378" lon="-118.3932751">
  <ele>-17.43</ele>
  <time>2026-09-01T01:14:38Z</time>
  <course>229.07</course>
  <speed>0.99</speed>
  <fix>3d</fix>
</trkpt>
<trkpt lat="33.8110361" lon="-118.3932779">
  <ele>-17.759</ele>
  <time>2026-09-01T01:14:38Z</time>
  <course>230.5</course>
  <speed>0.9667471230885561</speed>
  <fix>3d</fix>
</trkpt>
<trkpt lat="33.8110366" lon="-118.3932767">
  <ele>-17.38</ele>
  <time>2026-09-01T01:14:38Z</time>
  <course>229.08</course>
  <speed>0.99</speed>
  <fix>3d</fix>
</trkpt>
<trkpt lat="33.8110355" lon="-118.3932787">
  <ele>-17.737</ele>
  <time>2026-09-01T01:14:38Z</time>
  <course>230.5</course>
  <speed>0.9667471230885561</speed>
  <fix>3d</fix>
</trkpt>
<trkpt lat="33.8110366" lon="-118.3932767">
  <ele>-17.38</ele>
  <time>2026-09-01T01:14:38Z</time>
  <course>229.08</course>
  <speed>0.99</speed>
  <fix>3d</fix>
</trkpt>
<trkpt lat="33.8110349" lon="-118.3932795">
  <ele>-17.713</ele>
  <time>2026-09-01T01:14:38Z</time>
  <course>230.51</course>
  <speed>0.9667471230885561</speed>
  <fix>3d</fix>
</trkpt>
<trkpt lat="33.8110354" lon="-118.3932783">
  <ele>-17.33</ele>
  <time>2026-09-01T01:14:38Z</time>
  <course>229.08</course>
  <speed>0.99</speed>
  <fix>3d</fix>
</trkpt>
<trkpt lat="33.8110343" lon="-118.3932803">
  <ele>-17.688</ele>
  <time>2026-09-01T01:14:38Z</time>
  <course>230.52</course>
  <speed>0.9667471230885561</speed>
  <fix>3d</fix>
</trkpt>
<trkpt lat="33.8110354" lon="-118.3932783">
  <ele>-17.33</ele>
  <time>2026-09-01T01:14:38Z</time>
  <course>229.08</course>
  <speed>0.99</speed>
  <fix>3d</fix>
</trkpt>
<trkpt lat="33.8110337" lon="-118.3932811">
  <ele>-17.663</ele>
  <time>2026-09-01T01:14:38Z</time>
  <course>230.54</course>
  <speed>0.9667471230885561</speed>
  <fix>3d</fix>
</trkpt>
<trkpt lat="33.8110342" lon="-118.3932799">
  <ele>-17.29</ele>
  <time>2026-09-01T01:14:38Z</time>
  <course>229.12</course>
  <speed>0.99</speed>
  <fix>3d</fix>
</trkpt>
<trkpt lat="33.8110331" lon="-118.3932819">
  <ele>-17.638</ele>
  <time>2026-09-01T01:14:38Z</time>
  <course>230.57</course>
  <speed>0.9667471230885561</speed>
  <fix>3d</fix>
</trkpt>
<trkpt lat="33.8110342" lon="-118.3932799">
  <ele>-17.29</ele>
  <time>2026-09-01T01:14:38Z</time>
  <course>229.12</course>
  <speed>0.99</speed>
  <fix>3d</fix>
</trkpt>
<trkpt lat="33.8110326" lon="-118.3932827">
  <ele>-17.614</ele>
  <time>2026-09-01T01:14:38Z</time>
  <course>230.61</course>
  <speed>0.9667471230885561</speed>
  <fix>3d</fix>
</trkpt>
<trkpt lat="33.8110331" lon="-118.3932816">
  <ele>-17.24</ele>
  <time>2026-09-01T01:14:38Z</time>
  <course>229.2</course>
  <speed>0.99</speed>
  <fix>3d</fix>
</trkpt>
<trkpt lat="33.811032" lon="-118.3932835">
  <ele>-17.59</ele>
  <time>2026-09-01T01:14:38Z</time>
  <course>230.64</course>
  <speed>0.9667471230885561</speed>
  <fix>3d</fix>
</trkpt>
<trkpt lat="33.8110331" lon="-118.3932816">
  <ele>-17.24</ele>
  <time>2026-09-01T01:14:38Z</time>
  <course>229.2</course>
  <speed>0.99</speed>
  <fix>3d</fix>
</trkpt>
<trkpt lat="33.8110314" lon="-118.3932844">
  <ele>-17.566</ele>
  <time>2026-09-01T01:14:38Z</time>
  <course>230.66</course>
  <speed>0.9667471230885561</speed>
  <fix>3d</fix>
</trkpt>
<trkpt lat="33.811032" lon="-118.3932831">
  <ele>-17.19</ele>
  <time>2026-09-01T01:14:38Z</time>
  <course>229.24</course>
  <speed>0.99</speed>
  <fix>3d</fix>
</trkpt>
<trkpt lat="33.8110308" lon="-118.3932852">
  <ele>-17.54</ele>
  <time>2026-09-01T01:14:38Z</time>
  <course>230.66</course>
  <speed>0.9667471230885561</speed>
  <fix>3d</fix>
</trkpt>
<trkpt lat="33.811032" lon="-118.3932831">
  <ele>-17.19</ele>
  <time>2026-09-01T01:14:38Z</time>
  <course>229.24</course>
  <speed>0.99</speed>
  <fix>3d</fix>
</trkpt>
<trkpt lat="33.8110302" lon="-118.393286">
  <ele>-17.515</ele>
  <time>2026-09-01T01:14:38Z</time>
  <course>230.65</course>
  <speed>0.9667471230885561</speed>
  <fix>3d</fix>
</trkpt>
<trkpt lat="33.8110308" lon="-118.3932848">
  <ele>-17.14</ele>
  <time>2026-09-01T01:14:38Z</time>
  <course>229.22</course>
  <speed>0.99</speed>
  <fix>3d</fix>
</trkpt>
<trkpt lat="33.8110296" lon="-118.3932868">
  <ele>-17.489</ele>
  <time>2026-09-01T01:14:38Z</time>
  <course>230.63</course>
  <speed>0.9667471230885561</speed>
  <fix>3d</fix>
</trkpt>
<trkpt lat="33.8110308" lon="-118.3932848">
  <ele>-17.14</ele>
  <time>2026-09-01T01:14:38Z</time>
  <course>229.22</course>
  <speed>0.99</speed>
  <fix>3d</fix>
</trkpt>
<trkpt lat="33.8110291" lon="-118.3932876">
  <ele>-17.464</ele>
  <time>2026-09-01T01:14:38Z</time>
  <course>230.61</course>
  <speed>0.9667471230885561</speed>
  <fix>3d</fix>
</trkpt>
<trkpt lat="33.8110297" lon="-118.3932864">
  <ele>-17.09</ele>
  <time>2026-09-01T01:14:38Z</time>
  <course>229.18</course>
  <speed>0.99</speed>
  <fix>3d</fix>
</trkpt>
<trkpt lat="33.8110285" lon="-118.3932884">
  <ele>-17.441</ele>
  <time>2026-09-01T01:14:38Z</time>
  <course>230.59</course>
  <speed>0.9730878685915265</speed>
  <fix>3d</fix>
</trkpt>
<trkpt lat="33.8110297" lon="-118.3932864">
  <ele>-17.09</ele>
  <time>2026-09-01T01:14:38Z</time>
  <course>229.18</course>
  <speed>0.99</speed>
  <fix>3d</fix>
</trkpt>
<trkpt lat="33.8110279" lon="-118.3932892">
  <ele>-17.419</ele>
  <time>2026-09-01T01:14:38Z</time>
  <course>230.56</course>
  <speed>0.9730878685915265</speed>
  <fix>3d</fix>
</trkpt>
<trkpt lat="33.8110285" lon="-118.3932881">
  <ele>-17.05</ele>
  <time>2026-09-01T01:14:38Z</time>
  <course>229.12</course>
  <speed>0.99</speed>
  <fix>3d</fix>
</trkpt>
<trkpt lat="33.8110273" lon="-118.39329">
  <ele>-17.396</ele>
  <time>2026-09-01T01:14:38Z</time>
  <course>230.52</course>
  <speed>0.9730878685915265</speed>
  <fix>3d</fix>
</trkpt>
<trkpt lat="33.8110285" lon="-118.3932881">
  <ele>-17.05</ele>
  <time>2026-09-01T01:14:38Z</time>
  <course>229.12</course>
  <speed>0.99</speed>
  <fix>3d</fix>
</trkpt>
<trkpt lat="33.8110267" lon="-118.3932909">
  <ele>-17.372</ele>
  <time>2026-09-01T01:14:38Z</time>
  <course>230.47</course>
  <speed>0.9730878685915265</speed>
  <fix>3d</fix>
</trkpt>
<trkpt lat="33.8110273" lon="-118.3932897">
  <ele>-17.0</ele>
  <time>2026-09-01T01:14:38Z</time>
  <course>229.05</course>
  <speed>0.99</speed>
  <fix>3d</fix>
</trkpt>
<trkpt lat="33.8110261" lon="-118.3932917">
  <ele>-17.347</ele>
  <time>2026-09-01T01:14:38Z</time>
  <course>230.44</course>
  <speed>0.9730878685915265</speed>
  <fix>3d</fix>
</trkpt>
<trkpt lat="33.8110273" lon="-118.3932897">
  <ele>-17.0</ele>
  <time>2026-09-01T01:14:38Z</time>
  <course>229.05</course>
  <speed>0.99</speed>
  <fix>3d</fix>
</trkpt>
<trkpt lat="33.8110255" lon="-118.3932925">
  <ele>-17.321</ele>
  <time>2026-09-01T01:14:38Z</time>
  <course>230.41</course>
  <speed>0.9730878685915265</speed>
  <fix>3d</fix>
</trkpt>
<trkpt lat="33.8110261" lon="-118.3932912">
  <ele>-16.95</ele>
  <time>2026-09-01T01:14:38Z</time>
  <course>229.0</course>
  <speed>0.99</speed>
  <fix>3d</fix>
</trkpt>
<trkpt lat="33.811025" lon="-118.3932933">
  <ele>-17.296</ele>
  <time>2026-09-01T01:14:38Z</time>
  <course>230.39</course>
  <speed>0.9730878685915265</speed>
  <fix>3d</fix>
</trkpt>
<trkpt lat="33.8110261" lon="-118.3932912">
  <ele>-16.95</ele>
  <time>2026-09-01T01:14:38Z</time>
  <course>229.0</course>
  <speed>0.99</speed>
  <fix>3d</fix>
</trkpt>
<trkpt lat="33.8110244" lon="-118.3932941">
  <ele>-17.271</ele>
  <time>2026-09-01T01:14:38Z</time>
  <course>230.4</course>
  <speed>0.9730878685915265</speed>
  <fix>3d</fix>
</trkpt>
<trkpt lat="33.811025" lon="-118.3932929">
  <ele>-16.9</ele>
  <time>2026-09-01T01:14:38Z</time>
  <course>229.04</course>
  <speed>0.99</speed>
  <fix>3d</fix>
</trkpt>
<trkpt lat="33.8110238" lon="-118.3932949">
  <ele>-17.245</ele>
  <time>2026-09-01T01:14:38Z</time>
  <course>230.42</course>
  <speed>0.9730878685915265</speed>
  <fix>3d</fix>
</trkpt>
<trkpt lat="33.811025" lon="-118.3932929">
  <ele>-16.9</ele>
  <time>2026-09-01T01:14:38Z</time>
  <course>229.04</course>
  <speed>0.99</speed>
  <fix>3d</fix>
</trkpt>
<trkpt lat="33.8110232" lon="-118.3932957">
  <ele>-17.221</ele>
  <time>2026-09-01T01:14:38Z</time>
  <course>230.44</course>
  <speed>0.9730878685915265</speed>
  <fix>3d</fix>
</trkpt>
<trkpt lat="33.8110238" lon="-118.3932946">
  <ele>-16.85</ele>
  <time>2026-09-01T01:14:38Z</time>
  <course>229.1</course>
  <speed>0.99</speed>
  <fix>3d</fix>
</trkpt>
<trkpt lat="33.8110226" lon="-118.3932966">
  <ele>-17.195</ele>
  <time>2026-09-01T01:14:38Z</time>
  <course>230.44</course>
  <speed>0.9730878685915265</speed>
  <fix>3d</fix>
</trkpt>
<trkpt lat="33.8110238" lon="-118.3932946">
  <ele>-16.85</ele>
  <time>2026-09-01T01:14:38Z</time>
  <course>229.1</course>
  <speed>0.99</speed>
  <fix>3d</fix>
</trkpt>
<trkpt lat="33.811022" lon="-118.3932974">
  <ele>-17.169</ele>
  <time>2026-09-01T01:14:38Z</time>
  <course>230.42</course>
  <speed>0.9730878685915265</speed>
  <fix>3d</fix>
</trkpt>
<trkpt lat="33.8110226" lon="-118.3932962">
  <ele>-16.8</ele>
  <time>2026-09-01T01:14:38Z</time>
  <course>229.09</course>
  <speed>0.99</speed>
  <fix>3d</fix>
</trkpt>
<trkpt lat="33.8110214" lon="-118.3932982">
  <ele>-17.143</ele>
  <time>2026-09-01T01:14:38Z</time>
  <course>230.4</course>
  <speed>0.9730878685915265</speed>
  <fix>3d</fix>
</trkpt>
<trkpt lat="33.8110226" lon="-118.3932962">
  <ele>-16.8</ele>
  <time>2026-09-01T01:14:38Z</time>
  <course>229.09</course>
  <speed>0.99</speed>
  <fix>3d</fix>
</trkpt>
<trkpt lat="33.8110209" lon="-118.393299">
  <ele>-17.119</ele>
  <time>2026-09-01T01:14:38Z</time>
  <course>230.39</course>
  <speed>0.9730878685915265</speed>
  <fix>3d</fix>
</trkpt>
<trkpt lat="33.8110214" lon="-118.3932978">
  <ele>-16.76</ele>
  <time>2026-09-01T01:14:38Z</time>
  <course>229.06</course>
  <speed>0.99</speed>
  <fix>3d</fix>
</trkpt>
<trkpt lat="33.8110203" lon="-118.3932998">
  <ele>-17.096</ele>
  <time>2026-09-01T01:14:38Z</time>
  <course>230.38</course>
  <speed>0.9730878685915265</speed>
  <fix>3d</fix>
</trkpt>
<trkpt lat="33.8110214" lon="-118.3932978">
  <ele>-16.76</ele>
  <time>2026-09-01T01:14:38Z</time>
  <course>229.06</course>
  <speed>0.99</speed>
  <fix>3d</fix>
</trkpt>
<trkpt lat="33.8110197" lon="-118.3933006">
  <ele>-17.073</ele>
  <time>2026-09-01T01:14:38Z</time>
  <course>230.39</course>
  <speed>0.9730878685915265</speed>
  <fix>3d</fix>
</trkpt>
<trkpt lat="33.8110202" lon="-118.3932994">
  <ele>-16.71</ele>
  <time>2026-09-01T01:14:38Z</time>
  <course>229.08</course>
  <speed>0.99</speed>
  <fix>3d</fix>
</trkpt>
<trkpt lat="33.8110191" lon="-118.3933015">
  <ele>-17.05</ele>
  <time>2026-09-01T01:14:38Z</time>
  <course>230.41</course>
  <speed>0.9730878685915265</speed>
  <fix>3d</fix>
</trkpt>
<trkpt lat="33.8110202" lon="-118.3932994">
  <ele>-16.71</ele>
  <time>2026-09-01T01:14:38Z</time>
  <course>229.08</course>
  <speed>0.99</speed>
  <fix>3d</fix>
</trkpt>
<trkpt lat="33.8110185" lon="-118.3933023">
  <ele>-17.025</ele>
  <time>2026-09-01T01:14:38Z</time>
  <course>230.45</course>
  <speed>0.9730878685915265</speed>
  <fix>3d</fix>
</trkpt>
<trkpt lat="33.811019" lon="-118.3933011">
  <ele>-16.66</ele>
  <time>2026-09-01T01:14:38Z</time>
  <course>229.15</course>
  <speed>0.99</speed>
  <fix>3d</fix>
</trkpt>
<trkpt lat="33.8110179" lon="-118.3933031">
  <ele>-17.0</ele>
  <time>2026-09-01T01:14:38Z</time>
  <course>230.49</course>
  <speed>0.9730878685915265</speed>
  <fix>3d</fix>
</trkpt>
<trkpt lat="33.811019" lon="-118.3933011">
  <ele>-16.66</ele>
  <time>2026-09-01T01:14:38Z</time>
  <course>229.15</course>
  <speed>0.99</speed>
  <fix>3d</fix>
</trkpt>
<trkpt lat="33.8110173" lon="-118.3933039">
  <ele>-16.974</ele>
  <time>2026-09-01T01:14:38Z</time>
  <course>230.52</course>
  <speed>0.9730878685915265</speed>
  <fix>3d</fix>
</trkpt>
<trkpt lat="33.8110179" lon="-118.3933027">
  <ele>-16.61</ele>
  <time>2026-09-01T01:14:38Z</time>
  <course>229.22</course>
  <speed>0.99</speed>
  <fix>3d</fix>
</trkpt>
<trkpt lat="33.8110167" lon="-118.3933047">
  <ele>-16.949</ele>
  <time>2026-09-01T01:14:38Z</time>
  <course>230.54</course>
  <speed>0.9667471230885561</speed>
  <fix>3d</fix>
</trkpt>
<trkpt lat="33.8110179" lon="-118.3933027">
  <ele>-16.61</ele>
  <time>2026-09-01T01:14:38Z</time>
  <course>229.22</course>
  <speed>0.99</speed>
  <fix>3d</fix>
</trkpt>
<trkpt lat="33.8110161" lon="-118.3933055">
  <ele>-16.925</ele>
  <time>2026-09-01T01:14:38Z</time>
  <course>230.55</course>
  <speed>0.9730878685915265</speed>
  <fix>3d</fix>
</trkpt>
<trkpt lat="33.8110168" lon="-118.3933044">
  <ele>-16.57</ele>
  <time>2026-09-01T01:14:38Z</time>
  <course>229.25</course>
  <speed>0.99</speed>
  <fix>3d</fix>
</trkpt>
<trkpt lat="33.8110156" lon="-118.3933064">
  <ele>-16.901</ele>
  <time>2026-09-01T01:14:38Z</time>
  <course>230.53</course>
  <speed>0.9730878685915265</speed>
  <fix>3d</fix>
</trkpt>
<trkpt lat="33.8110168" lon="-118.3933044">
  <ele>-16.57</ele>
  <time>2026-09-01T01:14:38Z</time>
  <course>229.25</course>
  <speed>0.99</speed>
  <fix>3d</fix>
</trkpt>
<trkpt lat="33.811015" lon="-118.3933072">
  <ele>-16.878</ele>
  <time>2026-09-01T01:14:38Z</time>
  <course>230.49</course>
  <speed>0.9730878685915265</speed>
  <fix>3d</fix>
</trkpt>
<trkpt lat="33.8110156" lon="-118.393306">
  <ele>-16.52</ele>
  <time>2026-09-01T01:14:38Z</time>
  <course>229.19</course>
  <speed>0.99</speed>
  <fix>3d</fix>
</trkpt>
<trkpt lat="33.8110144" lon="-118.393308">
  <ele>-16.854</ele>
  <time>2026-09-01T01:14:38Z</time>
  <course>230.44</course>
  <speed>0.9730878685915265</speed>
  <fix>3d</fix>
</trkpt>
<trkpt lat="33.8110156" lon="-118.393306">
  <ele>-16.52</ele>
  <time>2026-09-01T01:14:38Z</time>
  <course>229.19</course>
  <speed>0.99</speed>
  <fix>3d</fix>
</trkpt>
<trkpt lat="33.8110138" lon="-118.3933088">
  <ele>-16.831</ele>
  <time>2026-09-01T01:14:38Z</time>
  <course>230.39</course>
  <speed>0.9730878685915265</speed>
  <fix>3d</fix>
</trkpt>
<trkpt lat="33.8110144" lon="-118.3933076">
  <ele>-16.48</ele>
  <time>2026-09-01T01:14:38Z</time>
  <course>229.08</course>
  <speed>0.99</speed>
  <fix>3d</fix>
</trkpt>
<trkpt lat="33.8110132" lon="-118.3933096">
  <ele>-16.808</ele>
  <time>2026-09-01T01:14:38Z</time>
  <course>230.35</course>
  <speed>0.9730878685915265</speed>
  <fix>3d</fix>
</trkpt>
<trkpt lat="33.8110144" lon="-118.3933076">
  <ele>-16.48</ele>
  <time>2026-09-01T01:14:38Z</time>
  <course>229.08</course>
  <speed>0.99</speed>
  <fix>3d</fix>
</trkpt>
<trkpt lat="33.8110126" lon="-118.3933104">
  <ele>-16.784</ele>
  <time>2026-09-01T01:14:38Z</time>
  <course>230.32</course>
  <speed>0.9730878685915265</speed>
  <fix>3d</fix>
</trkpt>
<trkpt lat="33.8110132" lon="-118.3933093">
  <ele>-16.43</ele>
  <time>2026-09-01T01:14:38Z</time>
  <course>229.04</course>
  <speed>0.99</speed>
  <fix>3d</fix>
</trkpt>
<trkpt lat="33.811012" lon="-118.3933113">
  <ele>-16.759</ele>
  <time>2026-09-01T01:14:38Z</time>
  <course>230.31</course>
  <speed>0.9730878685915265</speed>
  <fix>3d</fix>
</trkpt>
<trkpt lat="33.8110132" lon="-118.3933093">
  <ele>-16.43</ele>
  <time>2026-09-01T01:14:38Z</time>
  <course>229.04</course>
  <speed>0.99</speed>
  <fix>3d</fix>
</trkpt>
<trkpt lat="33.8110115" lon="-118.3933121">
  <ele>-16.733</ele>
  <time>2026-09-01T01:14:38Z</time>
  <course>230.3</course>
  <speed>0.9730878685915265</speed>
  <fix>3d</fix>
</trkpt>
<trkpt lat="33.8110121" lon="-118.3933109">
  <ele>-16.38</ele>
  <time>2026-09-01T01:14:38Z</time>
  <course>229.05</course>
  <speed>0.99</speed>
  <fix>3d</fix>
</trkpt>
<trkpt lat="33.8110109" lon="-118.3933129">
  <ele>-16.707</ele>
  <time>2026-09-01T01:14:38Z</time>
  <course>230.28</course>
  <speed>0.9730878685915265</speed>
  <fix>3d</fix>
</trkpt>
<trkpt lat="33.8110121" lon="-118.3933109">
  <ele>-16.38</ele>
  <time>2026-09-01T01:14:38Z</time>
  <course>229.05</course>
  <speed>0.99</speed>
  <fix>3d</fix>
</trkpt>
<trkpt lat="33.8110103" lon="-118.3933137">
  <ele>-16.683</ele>
  <time>2026-09-01T01:14:38Z</time>
  <course>230.26</course>
  <speed>0.9730878685915265</speed>
  <fix>3d</fix>
</trkpt>
<trkpt lat="33.8110109" lon="-118.3933125">
  <ele>-16.33</ele>
  <time>2026-09-01T01:14:38Z</time>
  <course>229.0</course>
  <speed>0.99</speed>
  <fix>3d</fix>
</trkpt>
<trkpt lat="33.8110097" lon="-118.3933145">
  <ele>-16.659</ele>
  <time>2026-09-01T01:14:38Z</time>
  <course>230.23</course>
  <speed>0.9730878685915265</speed>
  <fix>3d</fix>
</trkpt>
<trkpt lat="33.8110109" lon="-118.3933125">
  <ele>-16.33</ele>
  <time>2026-09-01T01:14:38Z</time>
  <course>229.0</course>
  <speed>0.99</speed>
  <fix>3d</fix>
</trkpt>
<trkpt lat="33.8110091" lon="-118.3933153">
  <ele>-16.634</ele>
  <time>2026-09-01T01:14:38Z</time>
  <course>230.22</course>
  <speed>0.9730878685915265</speed>
  <fix>3d</fix>
</trkpt>
<trkpt lat="33.8110097" lon="-118.3933141">
  <ele>-16.28</ele>
  <time>2026-09-01T01:14:38Z</time>
  <course>228.96</course>
  <speed>1.0</speed>
  <fix>3d</fix>
</trkpt>
<trkpt lat="33.8110085" lon="-118.3933161">
  <ele>-16.608</ele>
  <time>2026-09-01T01:14:38Z</time>
  <course>230.21</course>
  <speed>0.9730878685915265</speed>
  <fix>3d</fix>
</trkpt>
<trkpt lat="33.8110097" lon="-118.3933141">
  <ele>-16.28</ele>
  <time>2026-09-01T01:14:38Z</time>
  <course>228.96</course>
  <speed>1.0</speed>
  <fix>3d</fix>
</trkpt>
<trkpt lat="33.8110079" lon="-118.393317">
  <ele>-16.583</ele>
  <time>2026-09-01T01:14:38Z</time>
  <course>230.22</course>
  <speed>0.9730878685915265</speed>
  <fix>3d</fix>
</trkpt>
<trkpt lat="33.8110085" lon="-118.3933158">
  <ele>-16.23</ele>
  <time>2026-09-01T01:14:38Z</time>
  <course>228.98</course>
  <speed>1.0</speed>
  <fix>3d</fix>
</trkpt>
<trkpt lat="33.8110074" lon="-118.3933178">
  <ele>-16.557</ele>
  <time>2026-09-01T01:14:38Z</time>
  <course>230.24</course>
  <speed>0.9730878685915265</speed>
  <fix>3d</fix>
</trkpt>
<trkpt lat="33.8110085" lon="-118.3933158">
  <ele>-16.23</ele>
  <time>2026-09-01T01:14:38Z</time>
  <course>228.98</course>
  <speed>1.0</speed>
  <fix>3d</fix>
</trkpt>
<trkpt lat="33.8110068" lon="-118.3933186">
  <ele>-16.532</ele>
  <time>2026-09-01T01:14:38Z</time>
  <course>230.26</course>
  <speed>0.9730878685915265</speed>
  <fix>3d</fix>
</trkpt>
<trkpt lat="33.8110073" lon="-118.3933174">
  <ele>-16.18</ele>
  <time>2026-09-01T01:14:38Z</time>
  <course>229.01</course>
  <speed>1.0</speed>
  <fix>3d</fix>
</trkpt>
<trkpt lat="33.8110062" lon="-118.3933194">
  <ele>-16.506</ele>
  <time>2026-09-01T01:14:38Z</time>
  <course>230.28</course>
  <speed>0.9730878685915265</speed>
  <fix>3d</fix>
</trkpt>
<trkpt lat="33.8110073" lon="-118.3933174">
  <ele>-16.18</ele>
  <time>2026-09-01T01:14:38Z</time>
  <course>229.01</course>
  <speed>1.0</speed>
  <fix>3d</fix>
</trkpt>
<trkpt lat="33.8110056" lon="-118.3933202">
  <ele>-16.48</ele>
  <time>2026-09-01T01:14:38Z</time>
  <course>230.31</course>
  <speed>0.9730878685915265</speed>
  <fix>3d</fix>
</trkpt>
<trkpt lat="33.8110062" lon="-118.393319">
  <ele>-16.13</ele>
  <time>2026-09-01T01:14:38Z</time>
  <course>229.06</course>
  <speed>1.0</speed>
  <fix>3d</fix>
</trkpt>
<trkpt lat="33.811005" lon="-118.393321">
  <ele>-16.456</ele>
  <time>2026-09-01T01:14:38Z</time>
  <course>230.33</course>
  <speed>0.9730878685915265</speed>
  <fix>3d</fix>
</trkpt>
<trkpt lat="33.8110062" lon="-118.393319">
  <ele>-16.13</ele>
  <time>2026-09-01T01:14:38Z</time>
  <course>229.06</course>
  <speed>1.0</speed>
  <fix>3d</fix>
</trkpt>
<trkpt lat="33.8110044" lon="-118.3933219">
  <ele>-16.433</ele>
  <time>2026-09-01T01:14:38Z</time>
  <course>230.34</course>
  <speed>0.9730878685915265</speed>
  <fix>3d</fix>
</trkpt>
<trkpt lat="33.811005" lon="-118.3933207">
  <ele>-16.09</ele>
  <time>2026-09-01T01:14:38Z</time>
  <course>229.09</course>
  <speed>1.0</speed>
  <fix>3d</fix>
</trkpt>
<trkpt lat="33.8110038" lon="-118.3933227">
  <ele>-16.409</ele>
  <time>2026-09-01T01:14:38Z</time>
  <course>230.34</course>
  <speed>0.9730878685915265</speed>
  <fix>3d</fix>
</trkpt>
<trkpt lat="33.811005" lon="-118.3933207">
  <ele>-16.09</ele>
  <time>2026-09-01T01:14:38Z</time>
  <course>229.09</course>
  <speed>1.0</speed>
  <fix>3d</fix>
</trkpt>
<trkpt lat="33.8110032" lon="-118.3933235">
  <ele>-16.385</ele>
  <time>2026-09-01T01:14:38Z</time>
  <course>230.34</course>
  <speed>0.9730878685915265</speed>
  <fix>3d</fix>
</trkpt>
<trkpt lat="33.8110038" lon="-118.3933224">
  <ele>-16.04</ele>
  <time>2026-09-01T01:14:38Z</time>
  <course>229.09</course>
  <speed>1.0</speed>
  <fix>3d</fix>
</trkpt>
<trkpt lat="33.8110026" lon="-118.3933243">
  <ele>-16.362</ele>
  <time>2026-09-01T01:14:38Z</time>
  <course>230.33</course>
  <speed>0.9730878685915265</speed>
  <fix>3d</fix>
</trkpt>
<trkpt lat="33.8110038" lon="-118.3933224">
  <ele>-16.04</ele>
  <time>2026-09-01T01:14:38Z</time>
  <course>229.09</course>
  <speed>1.0</speed>
  <fix>3d</fix>
</trkpt>
<trkpt lat="33.8110021" lon="-118.3933251">
  <ele>-16.338</ele>
  <time>2026-09-01T01:14:38Z</time>
  <course>230.31</course>
  <speed>0.9730878685915265</speed>
  <fix>3d</fix>
</trkpt>
<trkpt lat="33.8110026" lon="-118.393324">
  <ele>-16.0</ele>
  <time>2026-09-01T01:14:38Z</time>
  <course>229.05</course>
  <speed>1.0</speed>
  <fix>3d</fix>
</trkpt>
<trkpt lat="33.8110015" lon="-118.3933259">
  <ele>-16.315</ele>
  <time>2026-09-01T01:14:38Z</time>
  <course>230.29</course>
  <speed>0.9730878685915265</speed>
  <fix>3d</fix>
</trkpt>
<trkpt lat="33.8110026" lon="-118.393324">
  <ele>-16.0</ele>
  <time>2026-09-01T01:14:38Z</time>
  <course>229.05</course>
  <speed>1.0</speed>
  <fix>3d</fix>
</trkpt>
<trkpt lat="33.8110009" lon="-118.3933268">
  <ele>-16.292</ele>
  <time>2026-09-01T01:14:38Z</time>
  <course>230.28</course>
  <speed>0.9730878685915265</speed>
  <fix>3d</fix>
</trkpt>
<trkpt lat="33.8110013" lon="-118.3933257">
  <ele>-15.95</ele>
  <time>2026-09-01T01:14:38Z</time>
  <course>229.01</course>
  <speed>1.0</speed>
  <fix>3d</fix>
</trkpt>
<trkpt lat="33.8110003" lon="-118.3933276">
  <ele>-16.27</ele>
  <time>2026-09-01T01:14:38Z</time>
  <course>230.28</course>
  <speed>0.9730878685915265</speed>
  <fix>3d</fix>
</trkpt>
<trkpt lat="33.8110013" lon="-118.3933257">
  <ele>-15.95</ele>
  <time>2026-09-01T01:14:38Z</time>
  <course>229.01</course>
  <speed>1.0</speed>
  <fix>3d</fix>
</trkpt>
<trkpt lat="33.8109997" lon="-118.3933284">
  <ele>-16.247</ele>
  <time>2026-09-01T01:14:38Z</time>
  <course>230.31</course>
  <speed>0.9730878685915265</speed>
  <fix>3d</fix>
</trkpt>
<trkpt lat="33.8110001" lon="-118.3933273">
  <ele>-15.91</ele>
  <time>2026-09-01T01:14:38Z</time>
  <course>229.03</course>
  <speed>1.0</speed>
  <fix>3d</fix>
</trkpt>
<trkpt lat="33.8109991" lon="-118.3933292">
  <ele>-16.223</ele>
  <time>2026-09-01T01:14:38Z</time>
  <course>230.35</course>
  <speed>0.9730878685915265</speed>
  <fix>3d</fix>
</trkpt>
<trkpt lat="33.8110001" lon="-118.3933273">
  <ele>-15.91</ele>
  <time>2026-09-01T01:14:38Z</time>
  <course>229.03</course>
  <speed>1.0</speed>
  <fix>3d</fix>
</trkpt>
<trkpt lat="33.8109985" lon="-118.3933301">
  <ele>-16.198</ele>
  <time>2026-09-01T01:14:38Z</time>
  <course>230.4</course>
  <speed>0.9730878685915265</speed>
  <fix>3d</fix>
</trkpt>
<trkpt lat="33.810999" lon="-118.3933289">
  <ele>-15.86</ele>
  <time>2026-09-01T01:14:38Z</time>
  <course>229.12</course>
  <speed>1.0</speed>
  <fix>3d</fix>
</trkpt>
<trkpt lat="33.8109979" lon="-118.3933309">
  <ele>-16.172</ele>
  <time>2026-09-01T01:14:38Z</time>
  <course>230.45</course>
  <speed>0.9730878685915265</speed>
  <fix>3d</fix>
</trkpt>
<trkpt lat="33.810999" lon="-118.3933289">
  <ele>-15.86</ele>
  <time>2026-09-01T01:14:38Z</time>
  <course>229.12</course>
  <speed>1.0</speed>
  <fix>3d</fix>
</trkpt>
<trkpt lat="33.8109973" lon="-118.3933317">
  <ele>-16.144</ele>
  <time>2026-09-01T01:14:38Z</time>
  <course>230.5</course>
  <speed>0.9730878685915265</speed>
  <fix>3d</fix>
</trkpt>
<trkpt lat="33.8109978" lon="-118.3933305">
  <ele>-15.8</ele>
  <time>2026-09-01T01:14:38Z</time>
  <course>229.2</course>
  <speed>1.0</speed>
  <fix>3d</fix>
</trkpt>
<trkpt lat="33.8109967" lon="-118.3933325">
  <ele>-16.117</ele>
  <time>2026-09-01T01:14:38Z</time>
  <course>230.53</course>
  <speed>0.9730878685915265</speed>
  <fix>3d</fix>
</trkpt>
<trkpt lat="33.8109978" lon="-118.3933305">
  <ele>-15.8</ele>
  <time>2026-09-01T01:14:38Z</time>
  <course>229.2</course>
  <speed>1.0</speed>
  <fix>3d</fix>
</trkpt>
<trkpt lat="33.8109961" lon="-118.3933333">
  <ele>-16.091</ele>
  <time>2026-09-01T01:14:38Z</time>
  <course>230.57</course>
  <speed>0.9730878685915265</speed>
  <fix>3d</fix>
</trkpt>
<trkpt lat="33.8109966" lon="-118.3933322">
  <ele>-15.75</ele>
  <time>2026-09-01T01:14:38Z</time>
  <course>229.25</course>
  <speed>1.0</speed>
  <fix>3d</fix>
</trkpt>
<trkpt lat="33.8109955" lon="-118.3933341">
  <ele>-16.067</ele>
  <time>2026-09-01T01:14:38Z</time>
  <course>230.6</course>
  <speed>0.9730878685915265</speed>
  <fix>3d</fix>
</trkpt>
<trkpt lat="33.8109966" lon="-118.3933322">
  <ele>-15.75</ele>
  <time>2026-09-01T01:14:38Z</time>
  <course>229.25</course>
  <speed>1.0</speed>
  <fix>3d</fix>
</trkpt>
<trkpt lat="33.810995" lon="-118.393335">
  <ele>-16.043</ele>
  <time>2026-09-01T01:14:38Z</time>
  <course>230.63</course>
  <speed>0.9730878685915265</speed>
  <fix>3d</fix>
</trkpt>
<trkpt lat="33.8109955" lon="-118.3933338">
  <ele>-15.7</ele>
  <time>2026-09-01T01:14:38Z</time>
  <course>229.3</course>
  <speed>1.0</speed>
  <fix>3d</fix>
</trkpt>
<trkpt lat="33.8109944" lon="-118.3933358">
  <ele>-16.019</ele>
  <time>2026-09-01T01:14:38Z</time>
  <course>230.65</course>
  <speed>0.9730878685915265</speed>
  <fix>3d</fix>
</trkpt>
<trkpt lat="33.8109955" lon="-118.3933338">
  <ele>-15.7</ele>
  <time>2026-09-01T01:14:38Z</time>
  <course>229.3</course>
  <speed>1.0</speed>
  <fix>3d</fix>
</trkpt>
<trkpt lat="33.8109938" lon="-118.3933366">
  <ele>-15.995</ele>
  <time>2026-09-01T01:14:38Z</time>
  <course>230.65</course>
  <speed>0.9730878685915265</speed>
  <fix>3d</fix>
</trkpt>
<trkpt lat="33.8109943" lon="-118.3933355">
  <ele>-15.65</ele>
  <time>2026-09-01T01:14:38Z</time>
  <course>229.31</course>
  <speed>1.0</speed>
  <fix>3d</fix>
</trkpt>
<trkpt lat="33.8109932" lon="-118.3933374">
  <ele>-15.97</ele>
  <time>2026-09-01T01:14:38Z</time>
  <course>230.64</course>
  <speed>0.9730878685915265</speed>
  <fix>3d</fix>
</trkpt>
<trkpt lat="33.8109943" lon="-118.3933355">
  <ele>-15.65</ele>
  <time>2026-09-01T01:14:38Z</time>
  <course>229.31</course>
  <speed>1.0</speed>
  <fix>3d</fix>
</trkpt>
<trkpt lat="33.8109926" lon="-118.3933382">
  <ele>-15.945</ele>
  <time>2026-09-01T01:14:38Z</time>
  <course>230.62</course>
  <speed>0.9730878685915265</speed>
  <fix>3d</fix>
</trkpt>
<trkpt lat="33.8109932" lon="-118.3933371">
  <ele>-15.6</ele>
  <time>2026-09-01T01:14:38Z</time>
  <course>229.29</course>
  <speed>1.0</speed>
  <fix>3d</fix>
</trkpt>
<trkpt lat="33.810992" lon="-118.393339">
  <ele>-15.92</ele>
  <time>2026-09-01T01:14:38Z</time>
  <course>230.59</course>
  <speed>0.9730878685915265</speed>
  <fix>3d</fix>
</trkpt>
<trkpt lat="33.8109932" lon="-118.3933371">
  <ele>-15.6</ele>
  <time>2026-09-01T01:14:38Z</time>
  <course>229.29</course>
  <speed>1.0</speed>
  <fix>3d</fix>
</trkpt>
<trkpt lat="33.8109914" lon="-118.3933399">
  <ele>-15.895</ele>
  <time>2026-09-01T01:14:38Z</time>
  <course>230.55</course>
  <speed>0.9730878685915265</speed>
  <fix>3d</fix>
</trkpt>
<trkpt lat="33.810992" lon="-118.3933388">
  <ele>-15.55</ele>
  <time>2026-09-01T01:14:38Z</time>
  <course>229.23</course>
  <speed>1.0</speed>
  <fix>3d</fix>
</trkpt>
<trkpt lat="33.8109908" lon="-118.3933407">
  <ele>-15.87</ele>
  <time>2026-09-01T01:14:38Z</time>
  <course>230.5</course>
  <speed>0.9730878685915265</speed>
  <fix>3d</fix>
</trkpt>
<trkpt lat="33.810992" lon="-118.3933388">
  <ele>-15.55</ele>
  <time>2026-09-01T01:14:38Z</time>
  <course>229.23</course>
  <speed>1.0</speed>
  <fix>3d</fix>
</trkpt>
<trkpt lat="33.8109903" lon="-118.3933415">
  <ele>-15.844</ele>
  <time>2026-09-01T01:14:38Z</time>
  <course>230.45</course>
  <speed>0.9730878685915265</speed>
  <fix>3d</fix>
</trkpt>
<trkpt lat="33.8109908" lon="-118.3933404">
  <ele>-15.5</ele>
  <time>2026-09-01T01:14:38Z</time>
  <course>229.15</course>
  <speed>1.0</speed>
  <fix>3d</fix>
</trkpt>
<trkpt lat="33.8109897" lon="-118.3933423">
  <ele>-15.818</ele>
  <time>2026-09-01T01:14:38Z</time>
  <course>230.4</course>
  <speed>0.9730878685915265</speed>
  <fix>3d</fix>
</trkpt>
<trkpt lat="33.8109908" lon="-118.3933404">
  <ele>-15.5</ele>
  <time>2026-09-01T01:14:38Z</time>
  <course>229.15</course>
  <speed>1.0</speed>
  <fix>3d</fix>
</trkpt>
<trkpt lat="33.8109891" lon="-118.3933431">
  <ele>-15.791</ele>
  <time>2026-09-01T01:14:38Z</time>
  <course>230.37</course>
  <speed>0.9730878685915265</speed>
  <fix>3d</fix>
</trkpt>
<trkpt lat="33.8109896" lon="-118.393342">
  <ele>-15.45</ele>
  <time>2026-09-01T01:14:38Z</time>
  <course>229.09</course>
  <speed>1.0</speed>
  <fix>3d</fix>
</trkpt>
<trkpt lat="33.8109885" lon="-118.393344">
  <ele>-15.767</ele>
  <time>2026-09-01T01:14:38Z</time>
  <course>230.34</course>
  <speed>0.9730878685915265</speed>
  <fix>3d</fix>
</trkpt>
<trkpt lat="33.8109896" lon="-118.393342">
  <ele>-15.45</ele>
  <time>2026-09-01T01:14:38Z</time>
  <course>229.09</course>
  <speed>1.0</speed>
  <fix>3d</fix>
</trkpt>
<trkpt lat="33.8109879" lon="-118.3933448">
  <ele>-15.742</ele>
  <time>2026-09-01T01:14:38Z</time>
  <course>230.33</course>
  <speed>0.9730878685915265</speed>
  <fix>3d</fix>
</trkpt>
<trkpt lat="33.8109884" lon="-118.3933437">
  <ele>-15.41</ele>
  <time>2026-09-01T01:14:38Z</time>
  <course>229.1</course>
  <speed>1.0</speed>
  <fix>3d</fix>
</trkpt>
<trkpt lat="33.8109873" lon="-118.3933456">
  <ele>-15.719</ele>
  <time>2026-09-01T01:14:38Z</time>
  <course>230.34</course>
  <speed>0.9730878685915265</speed>
  <fix>3d</fix>
</trkpt>
<trkpt lat="33.8109884" lon="-118.3933437">
  <ele>-15.41</ele>
  <time>2026-09-01T01:14:38Z</time>
  <course>229.1</course>
  <speed>1.0</speed>
  <fix>3d</fix>
</trkpt>
<trkpt lat="33.8109867" lon="-118.3933464">
  <ele>-15.694</ele>
  <time>2026-09-01T01:14:38Z</time>
  <course>230.35</course>
  <speed>0.9730878685915265</speed>
  <fix>3d</fix>
</trkpt>
<trkpt lat="33.8109873" lon="-118.3933453">
  <ele>-15.36</ele>
  <time>2026-09-01T01:14:38Z</time>
  <course>229.12</course>
  <speed>1.0</speed>
  <fix>3d</fix>
</trkpt>
<trkpt lat="33.8109861" lon="-118.3933472">
  <ele>-15.67</ele>
  <time>2026-09-01T01:14:38Z</time>
  <course>230.35</course>
  <speed>0.9730878685915265</speed>
  <fix>3d</fix>
</trkpt>
<trkpt lat="33.8109873" lon="-118.3933453">
  <ele>-15.36</ele>
  <time>2026-09-01T01:14:38Z</time>
  <course>229.12</course>
  <speed>1.0</speed>
  <fix>3d</fix>
</trkpt>
<trkpt lat="33.8109855" lon="-118.3933481">
  <ele>-15.645</ele>
  <time>2026-09-01T01:14:38Z</time>
  <course>230.34</course>
  <speed>0.9730878685915265</speed>
  <fix>3d</fix>
</trkpt>
<trkpt lat="33.8109861" lon="-118.393347">
  <ele>-15.32</ele>
  <time>2026-09-01T01:14:38Z</time>
  <course>229.1</course>
  <speed>1.0</speed>
  <fix>3d</fix>
</trkpt>
<trkpt lat="33.810985" lon="-118.3933489">
  <ele>-15.622</ele>
  <time>2026-09-01T01:14:38Z</time>
  <course>230.32</course>
  <speed>0.9730878685915265</speed>
  <fix>3d</fix>
</trkpt>
<trkpt lat="33.8109861" lon="-118.393347">
  <ele>-15.32</ele>
  <time>2026-09-01T01:14:38Z</time>
  <course>229.1</course>
  <speed>1.0</speed>
  <fix>3d</fix>
</trkpt>
<trkpt lat="33.8109844" lon="-118.3933497">
  <ele>-15.598</ele>
  <time>2026-09-01T01:14:38Z</time>
  <course>230.3</course>
  <speed>0.9730878685915265</speed>
  <fix>3d</fix>
</trkpt>
<trkpt lat="33.8109849" lon="-118.3933486">
  <ele>-15.27</ele>
  <time>2026-09-01T01:14:38Z</time>
  <course>229.04</course>
  <speed>1.0</speed>
  <fix>3d</fix>
</trkpt>
<trkpt lat="33.8109838" lon="-118.3933505">
  <ele>-15.573</ele>
  <time>2026-09-01T01:14:38Z</time>
  <course>230.28</course>
  <speed>0.9730878685915265</speed>
  <fix>3d</fix>
</trkpt>
<trkpt lat="33.8109849" lon="-118.3933486">
  <ele>-15.27</ele>
  <time>2026-09-01T01:14:38Z</time>
  <course>229.04</course>
  <speed>1.0</speed>
  <fix>3d</fix>
</trkpt>
<trkpt lat="33.8109832" lon="-118.3933513">
  <ele>-15.548</ele>
  <time>2026-09-01T01:14:38Z</time>
  <course>230.26</course>
  <speed>0.9730878685915265</speed>
  <fix>3d</fix>
</trkpt>
<trkpt lat="33.8109837" lon="-118.3933503">
  <ele>-15.23</ele>
  <time>2026-09-01T01:14:38Z</time>
  <course>229.0</course>
  <speed>1.0</speed>
  <fix>3d</fix>
</trkpt>
<trkpt lat="33.8109826" lon="-118.3933522">
  <ele>-15.524</ele>
  <time>2026-09-01T01:14:38Z</time>
  <course>230.25</course>
  <speed>0.9730878685915265</speed>
  <fix>3d</fix>
</trkpt>
<trkpt lat="33.8109837" lon="-118.3933503">
  <ele>-15.23</ele>
  <time>2026-09-01T01:14:38Z</time>
  <course>229.0</course>
  <speed>1.0</speed>
  <fix>3d</fix>
</trkpt>
<trkpt lat="33.810982" lon="-118.393353">
  <ele>-15.501</ele>
  <time>2026-09-01T01:14:38Z</time>
  <course>230.25</course>
  <speed>0.9730878685915265</speed>
  <fix>3d</fix>
</trkpt>
<trkpt lat="33.8109825" lon="-118.3933519">
  <ele>-15.18</ele>
  <time>2026-09-01T01:14:38Z</time>
  <course>228.99</course>
  <speed>1.0</speed>
  <fix>3d</fix>
</trkpt>
<trkpt lat="33.8109814" lon="-118.3933538">
  <ele>-15.477</ele>
  <time>2026-09-01T01:14:38Z</time>
  <course>230.24</course>
  <speed>0.9730878685915265</speed>
  <fix>3d</fix>
</trkpt>
<trkpt lat="33.8109825" lon="-118.3933519">
  <ele>-15.18</ele>
  <time>2026-09-01T01:14:38Z</time>
  <course>228.99</course>
  <speed>1.0</speed>
  <fix>3d</fix>
</trkpt>
<trkpt lat="33.8109808" lon="-118.3933546">
  <ele>-15.453</ele>
  <time>2026-09-01T01:14:38Z</time>
  <course>230.25</course>
  <speed>0.9730878685915265</speed>
  <fix>3d</fix>
</trkpt>
<trkpt lat="33.8109813" lon="-118.3933535">
  <ele>-15.13</ele>
  <time>2026-09-01T01:14:38Z</time>
  <course>229.0</course>
  <speed>0.99</speed>
  <fix>3d</fix>
</trkpt>
<trkpt lat="33.8109802" lon="-118.3933554">
  <ele>-15.428</ele>
  <time>2026-09-01T01:14:38Z</time>
  <course>230.27</course>
  <speed>0.9730878685915265</speed>
  <fix>3d</fix>
</trkpt>
<trkpt lat="33.8109813" lon="-118.3933535">
  <ele>-15.13</ele>
  <time>2026-09-01T01:14:38Z</time>
  <course>229.0</course>
  <speed>0.99</speed>
  <fix>3d</fix>
</trkpt>
<trkpt lat="33.8109796" lon="-118.3933563">
  <ele>-15.403</ele>
  <time>2026-09-01T01:14:38Z</time>
  <course>230.3</course>
  <speed>0.9730878685915265</speed>
  <fix>3d</fix>
</trkpt>
<trkpt lat="33.8109801" lon="-118.3933552">
  <ele>-15.09</ele>
  <time>2026-09-01T01:14:38Z</time>
  <course>229.05</course>
  <speed>0.99</speed>
  <fix>3d</fix>
</trkpt>
<trkpt lat="33.8109791" lon="-118.3933571">
  <ele>-15.379</ele>
  <time>2026-09-01T01:14:38Z</time>
  <course>230.33</course>
  <speed>0.9667471230885561</speed>
  <fix>3d</fix>
</trkpt>
<trkpt lat="33.8109801" lon="-118.3933552">
  <ele>-15.09</ele>
  <time>2026-09-01T01:14:38Z</time>
  <course>229.05</course>
  <speed>0.99</speed>
  <fix>3d</fix>
</trkpt>
<trkpt lat="33.8109785" lon="-118.3933579">
  <ele>-15.355</ele>
  <time>2026-09-01T01:14:38Z</time>
  <course>230.36</course>
  <speed>0.9667471230885561</speed>
  <fix>3d</fix>
</trkpt>
<trkpt lat="33.8109789" lon="-118.3933568">
  <ele>-15.04</ele>
  <time>2026-09-01T01:14:38Z</time>
  <course>229.09</course>
  <speed>0.99</speed>
  <fix>3d</fix>
</trkpt>
<trkpt lat="33.8109779" lon="-118.3933587">
  <ele>-15.332</ele>
  <time>2026-09-01T01:14:38Z</time>
  <course>230.38</course>
  <speed>0.9667471230885561</speed>
  <fix>3d</fix>
</trkpt>
<trkpt lat="33.8109789" lon="-118.3933568">
  <ele>-15.04</ele>
  <time>2026-09-01T01:14:38Z</time>
  <course>229.09</course>
  <speed>0.99</speed>
  <fix>3d</fix>
</trkpt>
<trkpt lat="33.8109773" lon="-118.3933595">
  <ele>-15.308</ele>
  <time>2026-09-01T01:14:38Z</time>
  <course>230.42</course>
  <speed>0.9667471230885561</speed>
  <fix>3d</fix>
</trkpt>
<trkpt lat="33.8109778" lon="-118.3933584">
  <ele>-14.99</ele>
  <time>2026-09-01T01:14:38Z</time>
  <course>229.13</course>
  <speed>0.99</speed>
  <fix>3d</fix>
</trkpt>
<trkpt lat="33.8109767" lon="-118.3933603">
  <ele>-15.284</ele>
  <time>2026-09-01T01:14:38Z</time>
  <course>230.45</course>
  <speed>0.9667471230885561</speed>
  <fix>3d</fix>
</trkpt>
<trkpt lat="33.8109778" lon="-118.3933584">
  <ele>-14.99</ele>
  <time>2026-09-01T01:14:38Z</time>
  <course>229.13</course>
  <speed>0.99</speed>
  <fix>3d</fix>
</trkpt>
<trkpt lat="33.8109761" lon="-118.3933612">
  <ele>-15.26</ele>
  <time>2026-09-01T01:14:38Z</time>
  <course>230.48</course>
  <speed>0.9667471230885561</speed>
  <fix>3d</fix>
</trkpt>
<trkpt lat="33.8109767" lon="-118.3933601">
  <ele>-14.94</ele>
  <time>2026-09-01T01:14:38Z</time>
  <course>229.16</course>
  <speed>0.99</speed>
  <fix>3d</fix>
</trkpt>
<trkpt lat="33.8109755" lon="-118.393362">
  <ele>-15.235</ele>
  <time>2026-09-01T01:14:38Z</time>
  <course>230.48</course>
  <speed>0.9730878685915265</speed>
  <fix>3d</fix>
</trkpt>
<trkpt lat="33.8109767" lon="-118.3933601">
  <ele>-14.94</ele>
  <time>2026-09-01T01:14:38Z</time>
  <course>229.16</course>
  <speed>0.99</speed>
  <fix>3d</fix>
</trkpt>
<trkpt lat="33.8109749" lon="-118.3933628">
  <ele>-15.21</ele>
  <time>2026-09-01T01:14:38Z</time>
  <course>230.46</course>
  <speed>0.9730878685915265</speed>
  <fix>3d</fix>
</trkpt>
<trkpt lat="33.8109755" lon="-118.3933616">
  <ele>-14.89</ele>
  <time>2026-09-01T01:14:38Z</time>
  <course>229.11</course>
  <speed>0.99</speed>
  <fix>3d</fix>
</trkpt>
<trkpt lat="33.8109743" lon="-118.3933636">
  <ele>-15.184</ele>
  <time>2026-09-01T01:14:38Z</time>
  <course>230.43</course>
  <speed>0.9730878685915265</speed>
  <fix>3d</fix>
</trkpt>
<trkpt lat="33.8109755" lon="-118.3933616">
  <ele>-14.89</ele>
  <time>2026-09-01T01:14:38Z</time>
  <course>229.11</course>
  <speed>0.99</speed>
  <fix>3d</fix>
</trkpt>
<trkpt lat="33.8109738" lon="-118.3933644">
  <ele>-15.159</ele>
  <time>2026-09-01T01:14:38Z</time>
  <course>230.4</course>
  <speed>0.9730878685915265</speed>
  <fix>3d</fix>
</trkpt>
<trkpt lat="33.8109743" lon="-118.3933633">
  <ele>-14.84</ele>
  <time>2026-09-01T01:14:38Z</time>
  <course>229.06</course>
  <speed>0.99</speed>
  <fix>3d</fix>
</trkpt>
<trkpt lat="33.8109732" lon="-118.3933652">
  <ele>-15.134</ele>
  <time>2026-09-01T01:14:38Z</time>
  <course>230.39</course>
  <speed>0.9730878685915265</speed>
  <fix>3d</fix>
</trkpt>
<trkpt lat="33.8109743" lon="-118.3933633">
  <ele>-14.84</ele>
  <time>2026-09-01T01:14:38Z</time>
  <course>229.06</course>
  <speed>0.99</speed>
  <fix>3d</fix>
</trkpt>
<trkpt lat="33.8109726" lon="-118.3933661">
  <ele>-15.108</ele>
  <time>2026-09-01T01:14:38Z</time>
  <course>230.38</course>
  <speed>0.9730878685915265</speed>
  <fix>3d</fix>
</trkpt>
<trkpt lat="33.8109732" lon="-118.3933649">
  <ele>-14.79</ele>
  <time>2026-09-01T01:14:38Z</time>
  <course>229.05</course>
  <speed>0.99</speed>
  <fix>3d</fix>
</trkpt>
<trkpt lat="33.810972" lon="-118.3933669">
  <ele>-15.082</ele>
  <time>2026-09-01T01:14:38Z</time>
  <course>230.37</course>
  <speed>0.9730878685915265</speed>
  <fix>3d</fix>
</trkpt>
<trkpt lat="33.8109732" lon="-118.3933649">
  <ele>-14.79</ele>
  <time>2026-09-01T01:14:38Z</time>
  <course>229.05</course>
  <speed>0.99</speed>
  <fix>3d</fix>
</trkpt>
<trkpt lat="33.8109714" lon="-118.3933677">
  <ele>-15.058</ele>
  <time>2026-09-01T01:14:38Z</time>
  <course>230.35</course>
  <speed>0.9730878685915265</speed>
  <fix>3d</fix>
</trkpt>
<trkpt lat="33.810972" lon="-118.3933666">
  <ele>-14.74</ele>
  <time>2026-09-01T01:14:38Z</time>
  <course>229.04</course>
  <speed>0.99</speed>
  <fix>3d</fix>
</trkpt>
<trkpt lat="33.8109708" lon="-118.3933685">
  <ele>-15.033</ele>
  <time>2026-09-01T01:14:38Z</time>
  <course>230.33</course>
  <speed>0.9730878685915265</speed>
  <fix>3d</fix>
</trkpt>
<trkpt lat="33.810972" lon="-118.3933666">
  <ele>-14.74</ele>
  <time>2026-09-01T01:14:38Z</time>
  <course>229.04</course>
  <speed>0.99</speed>
  <fix>3d</fix>
</trkpt>
<trkpt lat="33.8109702" lon="-118.3933693">
  <ele>-15.008</ele>
  <time>2026-09-01T01:14:39Z</time>
  <course>230.3</course>
  <speed>0.9730878685915265</speed>
  <fix>3d</fix>
</trkpt>
<trkpt lat="33.8109708" lon="-118.3933682">
  <ele>-14.69</ele>
  <time>2026-09-01T01:14:39Z</time>
  <course>228.99</course>
  <speed>0.99</speed>
  <fix>3d</fix>
</trkpt>
<trkpt lat="33.8109697" lon="-118.3933701">
  <ele>-14.984</ele>
  <time>2026-09-01T01:14:39Z</time>
  <course>230.27</course>
  <speed>0.9730878685915265</speed>
  <fix>3d</fix>
</trkpt>
<trkpt lat="33.8109708" lon="-118.3933682">
  <ele>-14.69</ele>
  <time>2026-09-01T01:14:39Z</time>
  <course>228.99</course>
  <speed>0.99</speed>
  <fix>3d</fix>
</trkpt>
<trkpt lat="33.8109691" lon="-118.393371">
  <ele>-14.96</ele>
  <time>2026-09-01T01:14:39Z</time>
  <course>230.25</course>
  <speed>0.9730878685915265</speed>
  <fix>3d</fix>
</trkpt>
<trkpt lat="33.8109696" lon="-118.3933697">
  <ele>-14.65</ele>
  <time>2026-09-01T01:14:39Z</time>
  <course>228.95</course>
  <speed>0.99</speed>
  <fix>3d</fix>
</trkpt>
<trkpt lat="33.8109685" lon="-118.3933718">
  <ele>-14.937</ele>
  <time>2026-09-01T01:14:39Z</time>
  <course>230.25</course>
  <speed>0.9730878685915265</speed>
  <fix>3d</fix>
</trkpt>
<trkpt lat="33.8109696" lon="-118.3933697">
  <ele>-14.65</ele>
  <time>2026-09-01T01:14:39Z</time>
  <course>228.95</course>
  <speed>0.99</speed>
  <fix>3d</fix>
</trkpt>
<trkpt lat="33.8109679" lon="-118.3933726">
  <ele>-14.913</ele>
  <time>2026-09-01T01:14:39Z</time>
  <course>230.28</course>
  <speed>0.9730878685915265</speed>
  <fix>3d</fix>
</trkpt>
<trkpt lat="33.8109685" lon="-118.3933714">
  <ele>-14.6</ele>
  <time>2026-09-01T01:14:39Z</time>
  <course>228.98</course>
  <speed>0.99</speed>
  <fix>3d</fix>
</trkpt>
<trkpt lat="33.8109673" lon="-118.3933734">
  <ele>-14.888</ele>
  <time>2026-09-01T01:14:39Z</time>
  <course>230.31</course>
  <speed>0.9730878685915265</speed>
  <fix>3d</fix>
</trkpt>
<trkpt lat="33.8109685" lon="-118.3933714">
  <ele>-14.6</ele>
  <time>2026-09-01T01:14:39Z</time>
  <course>228.98</course>
  <speed>0.99</speed>
  <fix>3d</fix>
</trkpt>
<trkpt lat="33.8109667" lon="-118.3933742">
  <ele>-14.862</ele>
  <time>2026-09-01T01:14:39Z</time>
  <course>230.33</course>
  <speed>0.9730878685915265</speed>
  <fix>3d</fix>
</trkpt>
<trkpt lat="33.8109673" lon="-118.3933731">
  <ele>-14.55</ele>
  <time>2026-09-01T01:14:39Z</time>
  <course>229.03</course>
  <speed>1.0</speed>
  <fix>3d</fix>
</trkpt>
<trkpt lat="33.8109661" lon="-118.393375">
  <ele>-14.836</ele>
  <time>2026-09-01T01:14:39Z</time>
  <course>230.33</course>
  <speed>0.9730878685915265</speed>
  <fix>3d</fix>
</trkpt>
<trkpt lat="33.8109673" lon="-118.3933731">
  <ele>-14.55</ele>
  <time>2026-09-01T01:14:39Z</time>
  <course>229.03</course>
  <speed>1.0</speed>
  <fix>3d</fix>
</trkpt>
<trkpt lat="33.8109655" lon="-118.3933758">
  <ele>-14.811</ele>
  <time>2026-09-01T01:14:39Z</time>
  <course>230.32</course>
  <speed>0.9730878685915265</speed>
  <fix>3d</fix>
</trkpt>
<trkpt lat="33.8109661" lon="-118.3933747">
  <ele>-14.5</ele>
  <time>2026-09-01T01:14:39Z</time>
  <course>229.0</course>
  <speed>1.0</speed>
  <fix>3d</fix>
</trkpt>
<trkpt lat="33.8109649" lon="-118.3933767">
  <ele>-14.787</ele>
  <time>2026-09-01T01:14:39Z</time>
  <course>230.31</course>
  <speed>0.9730878685915265</speed>
  <fix>3d</fix>
</trkpt>
<trkpt lat="33.8109661" lon="-118.3933747">
  <ele>-14.5</ele>
  <time>2026-09-01T01:14:39Z</time>
  <course>229.0</course>
  <speed>1.0</speed>
  <fix>3d</fix>
</trkpt>
<trkpt lat="33.8109644" lon="-118.3933775">
  <ele>-14.763</ele>
  <time>2026-09-01T01:14:39Z</time>
  <course>230.31</course>
  <speed>0.9730878685915265</speed>
  <fix>3d</fix>
</trkpt>
<trkpt lat="33.8109649" lon="-118.3933763">
  <ele>-14.45</ele>
  <time>2026-09-01T01:14:39Z</time>
  <course>228.97</course>
  <speed>1.0</speed>
  <fix>3d</fix>
</trkpt>
<trkpt lat="33.8109638" lon="-118.3933783">
  <ele>-14.739</ele>
  <time>2026-09-01T01:14:39Z</time>
  <course>230.31</course>
  <speed>0.9730878685915265</speed>
  <fix>3d</fix>
</trkpt>
<trkpt lat="33.8109649" lon="-118.3933763">
  <ele>-14.45</ele>
  <time>2026-09-01T01:14:39Z</time>
  <course>228.97</course>
  <speed>1.0</speed>
  <fix>3d</fix>
</trkpt>
<trkpt lat="33.8109632" lon="-118.3933791">
  <ele>-14.714</ele>
  <time>2026-09-01T01:14:39Z</time>
  <course>230.33</course>
  <speed>0.9730878685915265</speed>
  <fix>3d</fix>
</trkpt>
<trkpt lat="33.8109637" lon="-118.3933779">
  <ele>-14.41</ele>
  <time>2026-09-01T01:14:39Z</time>
  <course>228.99</course>
  <speed>1.0</speed>
  <fix>3d</fix>
</trkpt>
<trkpt lat="33.8109626" lon="-118.3933799">
  <ele>-14.689</ele>
  <time>2026-09-01T01:14:39Z</time>
  <course>230.36</course>
  <speed>0.9730878685915265</speed>
  <fix>3d</fix>
</trkpt>
<trkpt lat="33.8109637" lon="-118.3933779">
  <ele>-14.41</ele>
  <time>2026-09-01T01:14:39Z</time>
  <course>228.99</course>
  <speed>1.0</speed>
  <fix>3d</fix>
</trkpt>
<trkpt lat="33.810962" lon="-118.3933808">
  <ele>-14.664</ele>
  <time>2026-09-01T01:14:39Z</time>
  <course>230.4</course>
  <speed>0.9730878685915265</speed>
  <fix>3d</fix>
</trkpt>
<trkpt lat="33.8109625" lon="-118.3933796">
  <ele>-14.36</ele>
  <time>2026-09-01T01:14:39Z</time>
  <course>229.06</course>
  <speed>1.0</speed>
  <fix>3d</fix>
</trkpt>
<trkpt lat="33.8109614" lon="-118.3933816">
  <ele>-14.639</ele>
  <time>2026-09-01T01:14:39Z</time>
  <course>230.44</course>
  <speed>0.9730878685915265</speed>
  <fix>3d</fix>
</trkpt>
<trkpt lat="33.8109625" lon="-118.3933796">
  <ele>-14.36</ele>
  <time>2026-09-01T01:14:39Z</time>
  <course>229.06</course>
  <speed>1.0</speed>
  <fix>3d</fix>
</trkpt>
<trkpt lat="33.8109608" lon="-118.3933824">
  <ele>-14.615</ele>
  <time>2026-09-01T01:14:39Z</time>
  <course>230.48</course>
  <speed>0.9730878685915265</speed>
  <fix>3d</fix>
</trkpt>
<trkpt lat="33.8109613" lon="-118.3933812">
  <ele>-14.31</ele>
  <time>2026-09-01T01:14:39Z</time>
  <course>229.13</course>
  <speed>1.0</speed>
  <fix>3d</fix>
</trkpt>
<trkpt lat="33.8109602" lon="-118.3933832">
  <ele>-14.592</ele>
  <time>2026-09-01T01:14:39Z</time>
  <course>230.51</course>
  <speed>0.9730878685915265</speed>
  <fix>3d</fix>
</trkpt>
<trkpt lat="33.8109613" lon="-118.3933812">
  <ele>-14.31</ele>
  <time>2026-09-01T01:14:39Z</time>
  <course>229.13</course>
  <speed>1.0</speed>
  <fix>3d</fix>
</trkpt>
<trkpt lat="33.8109596" lon="-118.393384">
  <ele>-14.568</ele>
  <time>2026-09-01T01:14:39Z</time>
  <course>230.55</course>
  <speed>0.9730878685915265</speed>
  <fix>3d</fix>
</trkpt>
<trkpt lat="33.8109601" lon="-118.3933829">
  <ele>-14.26</ele>
  <time>2026-09-01T01:14:39Z</time>
  <course>229.19</course>
  <speed>0.99</speed>
  <fix>3d</fix>
</trkpt>
<trkpt lat="33.810959" lon="-118.3933848">
  <ele>-14.545</ele>
  <time>2026-09-01T01:14:39Z</time>
  <course>230.59</course>
  <speed>0.9730878685915265</speed>
  <fix>3d</fix>
</trkpt>
<trkpt lat="33.8109601" lon="-118.3933829">
  <ele>-14.26</ele>
  <time>2026-09-01T01:14:39Z</time>
  <course>229.19</course>
  <speed>0.99</speed>
  <fix>3d</fix>
</trkpt>
<trkpt lat="33.8109584" lon="-118.3933857">
  <ele>-14.522</ele>
  <time>2026-09-01T01:14:39Z</time>
  <course>230.62</course>
  <speed>0.9730878685915265</speed>
  <fix>3d</fix>
</trkpt>
<trkpt lat="33.810959" lon="-118.3933845">
  <ele>-14.21</ele>
  <time>2026-09-01T01:14:39Z</time>
  <course>229.25</course>
  <speed>0.99</speed>
  <fix>3d</fix>
</trkpt>
<trkpt lat="33.8109579" lon="-118.3933865">
  <ele>-14.498</ele>
  <time>2026-09-01T01:14:39Z</time>
  <course>230.64</course>
  <speed>0.9730878685915265</speed>
  <fix>3d</fix>
</trkpt>
<trkpt lat="33.810959" lon="-118.3933845">
  <ele>-14.21</ele>
  <time>2026-09-01T01:14:39Z</time>
  <course>229.25</course>
  <speed>0.99</speed>
  <fix>3d</fix>
</trkpt>
<trkpt lat="33.8109573" lon="-118.3933873">
  <ele>-14.473</ele>
  <time>2026-09-01T01:14:39Z</time>
  <course>230.65</course>
  <speed>0.9730878685915265</speed>
  <fix>3d</fix>
</trkpt>
<trkpt lat="33.8109579" lon="-118.3933862">
  <ele>-14.17</ele>
  <time>2026-09-01T01:14:39Z</time>
  <course>229.26</course>
  <speed>0.99</speed>
  <fix>3d</fix>
</trkpt>
<trkpt lat="33.8109567" lon="-118.3933881">
  <ele>-14.447</ele>
  <time>2026-09-01T01:14:39Z</time>
  <course>230.63</course>
  <speed>0.9730878685915265</speed>
  <fix>3d</fix>
</trkpt>
<trkpt lat="33.8109579" lon="-118.3933862">
  <ele>-14.17</ele>
  <time>2026-09-01T01:14:39Z</time>
  <course>229.26</course>
  <speed>0.99</speed>
  <fix>3d</fix>
</trkpt>
<trkpt lat="33.8109561" lon="-118.3933889">
  <ele>-14.42</ele>
  <time>2026-09-01T01:14:39Z</time>
  <course>230.58</course>
  <speed>0.9730878685915265</speed>
  <fix>3d</fix>
</trkpt>
<trkpt lat="33.8109567" lon="-118.3933878">
  <ele>-14.12</ele>
  <time>2026-09-01T01:14:39Z</time>
  <course>229.21</course>
  <speed>0.99</speed>
  <fix>3d</fix>
</trkpt>
<trkpt lat="33.8109555" lon="-118.3933898">
  <ele>-14.393</ele>
  <time>2026-09-01T01:14:39Z</time>
  <course>230.53</course>
  <speed>0.9730878685915265</speed>
  <fix>3d</fix>
</trkpt>
<trkpt lat="33.8109567" lon="-118.3933878">
  <ele>-14.12</ele>
  <time>2026-09-01T01:14:39Z</time>
  <course>229.21</course>
  <speed>0.99</speed>
  <fix>3d</fix>
</trkpt>
<trkpt lat="33.8109549" lon="-118.3933906">
  <ele>-14.367</ele>
  <time>2026-09-01T01:14:39Z</time>
  <course>230.48</course>
  <speed>0.9730878685915265</speed>
  <fix>3d</fix>
</trkpt>
<trkpt lat="33.8109555" lon="-118.3933894">
  <ele>-14.06</ele>
  <time>2026-09-01T01:14:39Z</time>
  <course>229.12</course>
  <speed>0.99</speed>
  <fix>3d</fix>
</trkpt>
<trkpt lat="33.8109543" lon="-118.3933914">
  <ele>-14.342</ele>
  <time>2026-09-01T01:14:39Z</time>
  <course>230.44</course>
  <speed>0.9730878685915265</speed>
  <fix>3d</fix>
</trkpt>
<trkpt lat="33.8109555" lon="-118.3933894">
  <ele>-14.06</ele>
  <time>2026-09-01T01:14:39Z</time>
  <course>229.12</course>
  <speed>0.99</speed>
  <fix>3d</fix>
</trkpt>
<trkpt lat="33.8109538" lon="-118.3933922">
  <ele>-14.317</ele>
  <time>2026-09-01T01:14:39Z</time>
  <course>230.41</course>
  <speed>0.9730878685915265</speed>
  <fix>3d</fix>
</trkpt>
<trkpt lat="33.8109544" lon="-118.393391">
  <ele>-14.02</ele>
  <time>2026-09-01T01:14:39Z</time>
  <course>229.08</course>
  <speed>0.99</speed>
  <fix>3d</fix>
</trkpt>
<trkpt lat="33.8109532" lon="-118.393393">
  <ele>-14.293</ele>
  <time>2026-09-01T01:14:39Z</time>
  <course>230.39</course>
  <speed>0.9730878685915265</speed>
  <fix>3d</fix>
</trkpt>
<trkpt lat="33.8109544" lon="-118.393391">
  <ele>-14.02</ele>
  <time>2026-09-01T01:14:39Z</time>
  <course>229.08</course>
  <speed>0.99</speed>
  <fix>3d</fix>
</trkpt>
<trkpt lat="33.8109526" lon="-118.3933938">
  <ele>-14.268</ele>
  <time>2026-09-01T01:14:39Z</time>
  <course>230.36</course>
  <speed>0.9730878685915265</speed>
  <fix>3d</fix>
</trkpt>
<trkpt lat="33.8109532" lon="-118.3933927">
  <ele>-13.97</ele>
  <time>2026-09-01T01:14:39Z</time>
  <course>229.06</course>
  <speed>0.99</speed>
  <fix>3d</fix>
</trkpt>
<trkpt lat="33.810952" lon="-118.3933947">
  <ele>-14.243</ele>
  <time>2026-09-01T01:14:39Z</time>
  <course>230.33</course>
  <speed>0.9730878685915265</speed>
  <fix>3d</fix>
</trkpt>
<trkpt lat="33.8109532" lon="-118.3933927">
  <ele>-13.97</ele>
  <time>2026-09-01T01:14:39Z</time>
  <course>229.06</course>
  <speed>0.99</speed>
  <fix>3d</fix>
</trkpt>
<trkpt lat="33.8109514" lon="-118.3933955">
  <ele>-14.218</ele>
  <time>2026-09-01T01:14:39Z</time>
  <course>230.3</course>
  <speed>0.9730878685915265</speed>
  <fix>3d</fix>
</trkpt>
<trkpt lat="33.810952" lon="-118.3933942">
  <ele>-13.92</ele>
  <time>2026-09-01T01:14:39Z</time>
  <course>229.02</course>
  <speed>0.99</speed>
  <fix>3d</fix>
</trkpt>
<trkpt lat="33.8109508" lon="-118.3933963">
  <ele>-14.194</ele>
  <time>2026-09-01T01:14:39Z</time>
  <course>230.28</course>
  <speed>0.9730878685915265</speed>
  <fix>3d</fix>
</trkpt>
<trkpt lat="33.810952" lon="-118.3933942">
  <ele>-13.92</ele>
  <time>2026-09-01T01:14:39Z</time>
  <course>229.02</course>
  <speed>0.99</speed>
  <fix>3d</fix>
</trkpt>
<trkpt lat="33.8109502" lon="-118.3933971">
  <ele>-14.17</ele>
  <time>2026-09-01T01:14:39Z</time>
  <course>230.27</course>
  <speed>0.9730878685915265</speed>
  <fix>3d</fix>
</trkpt>
<trkpt lat="33.8109508" lon="-118.3933959">
  <ele>-13.87</ele>
  <time>2026-09-01T01:14:39Z</time>
  <course>229.02</course>
  <speed>1.0</speed>
  <fix>3d</fix>
</trkpt>
<trkpt lat="33.8109496" lon="-118.3933979">
  <ele>-14.146</ele>
  <time>2026-09-01T01:14:39Z</time>
  <course>230.29</course>
  <speed>0.9730878685915265</speed>
  <fix>3d</fix>
</trkpt>
<trkpt lat="33.8109508" lon="-118.3933959">
  <ele>-13.87</ele>
  <time>2026-09-01T01:14:39Z</time>
  <course>229.02</course>
  <speed>1.0</speed>
  <fix>3d</fix>
</trkpt>
<trkpt lat="33.8109491" lon="-118.3933987">
  <ele>-14.123</ele>
  <time>2026-09-01T01:14:39Z</time>
  <course>230.31</course>
  <speed>0.9730878685915265</speed>
  <fix>3d</fix>
</trkpt>
<trkpt lat="33.8109497" lon="-118.3933975">
  <ele>-13.83</ele>
  <time>2026-09-01T01:14:39Z</time>
  <course>229.06</course>
  <speed>1.0</speed>
  <fix>3d</fix>
</trkpt>
<trkpt lat="33.8109485" lon="-118.3933995">
  <ele>-14.1</ele>
  <time>2026-09-01T01:14:39Z</time>
  <course>230.33</course>
  <speed>0.9730878685915265</speed>
  <fix>3d</fix>
</trkpt>
<trkpt lat="33.8109497" lon="-118.3933975">
  <ele>-13.83</ele>
  <time>2026-09-01T01:14:39Z</time>
  <course>229.06</course>
  <speed>1.0</speed>
  <fix>3d</fix>
</trkpt>
<trkpt lat="33.8109479" lon="-118.3934004">
  <ele>-14.077</ele>
  <time>2026-09-01T01:14:39Z</time>
  <course>230.33</course>
  <speed>0.9730878685915265</speed>
  <fix>3d</fix>
</trkpt>
<trkpt lat="33.8109484" lon="-118.3933992">
  <ele>-13.79</ele>
  <time>2026-09-01T01:14:39Z</time>
  <course>229.08</course>
  <speed>1.0</speed>
  <fix>3d</fix>
</trkpt>
<trkpt lat="33.8109473" lon="-118.3934012">
  <ele>-14.054</ele>
  <time>2026-09-01T01:14:39Z</time>
  <course>230.34</course>
  <speed>0.9730878685915265</speed>
  <fix>3d</fix>
</trkpt>
<trkpt lat="33.8109484" lon="-118.3933992">
  <ele>-13.79</ele>
  <time>2026-09-01T01:14:39Z</time>
  <course>229.08</course>
  <speed>1.0</speed>
  <fix>3d</fix>
</trkpt>
<trkpt lat="33.8109467" lon="-118.393402">
  <ele>-14.029</ele>
  <time>2026-09-01T01:14:39Z</time>
  <course>230.36</course>
  <speed>0.9730878685915265</speed>
  <fix>3d</fix>
</trkpt>
<trkpt lat="33.8109472" lon="-118.3934008">
  <ele>-13.74</ele>
  <time>2026-09-01T01:14:39Z</time>
  <course>229.08</course>
  <speed>1.0</speed>
  <fix>3d</fix>
</trkpt>
<trkpt lat="33.8109461" lon="-118.3934028">
  <ele>-14.004</ele>
  <time>2026-09-01T01:14:39Z</time>
  <course>230.38</course>
  <speed>0.9730878685915265</speed>
  <fix>3d</fix>
</trkpt>
<trkpt lat="33.8109472" lon="-118.3934008">
  <ele>-13.74</ele>
  <time>2026-09-01T01:14:39Z</time>
  <course>229.08</course>
  <speed>1.0</speed>
  <fix>3d</fix>
</trkpt>
<trkpt lat="33.8109455" lon="-118.3934036">
  <ele>-13.979</ele>
  <time>2026-09-01T01:14:39Z</time>
  <course>230.42</course>
  <speed>0.9730878685915265</speed>
  <fix>3d</fix>
</trkpt>
<trkpt lat="33.810946" lon="-118.3934025">
  <ele>-13.69</ele>
  <time>2026-09-01T01:14:39Z</time>
  <course>229.12</course>
  <speed>1.0</speed>
  <fix>3d</fix>
</trkpt>
<trkpt lat="33.8109449" lon="-118.3934045">
  <ele>-13.953</ele>
  <time>2026-09-01T01:14:39Z</time>
  <course>230.45</course>
  <speed>0.9730878685915265</speed>
  <fix>3d</fix>
</trkpt>
<trkpt lat="33.810946" lon="-118.3934025">
  <ele>-13.69</ele>
  <time>2026-09-01T01:14:39Z</time>
  <course>229.12</course>
  <speed>1.0</speed>
  <fix>3d</fix>
</trkpt>
<trkpt lat="33.8109443" lon="-118.3934053">
  <ele>-13.927</ele>
  <time>2026-09-01T01:14:39Z</time>
  <course>230.5</course>
  <speed>0.9730878685915265</speed>
  <fix>3d</fix>
</trkpt>
<trkpt lat="33.8109449" lon="-118.3934041">
  <ele>-13.64</ele>
  <time>2026-09-01T01:14:39Z</time>
  <course>229.19</course>
  <speed>1.0</speed>
  <fix>3d</fix>
</trkpt>
<trkpt lat="33.8109437" lon="-118.3934061">
  <ele>-13.9</ele>
  <time>2026-09-01T01:14:39Z</time>
  <course>230.53</course>
  <speed>0.9730878685915265</speed>
  <fix>3d</fix>
</trkpt>
<trkpt lat="33.8109449" lon="-118.3934041">
  <ele>-13.64</ele>
  <time>2026-09-01T01:14:39Z</time>
  <course>229.19</course>
  <speed>1.0</speed>
  <fix>3d</fix>
</trkpt>
<trkpt lat="33.8109431" lon="-118.3934069">
  <ele>-13.874</ele>
  <time>2026-09-01T01:14:39Z</time>
  <course>230.54</course>
  <speed>0.9730878685915265</speed>
  <fix>3d</fix>
</trkpt>
<trkpt lat="33.8109437" lon="-118.3934058">
  <ele>-13.59</ele>
  <time>2026-09-01T01:14:39Z</time>
  <course>229.22</course>
  <speed>0.99</speed>
  <fix>3d</fix>
</trkpt>
<trkpt lat="33.8109426" lon="-118.3934077">
  <ele>-13.85</ele>
  <time>2026-09-01T01:14:39Z</time>
  <course>230.54</course>
  <speed>0.9730878685915265</speed>
  <fix>3d</fix>
</trkpt>
<trkpt lat="33.8109437" lon="-118.3934058">
  <ele>-13.59</ele>
  <time>2026-09-01T01:14:39Z</time>
  <course>229.22</course>
  <speed>0.99</speed>
  <fix>3d</fix>
</trkpt>
<trkpt lat="33.810942" lon="-118.3934086">
  <ele>-13.826</ele>
  <time>2026-09-01T01:14:39Z</time>
  <course>230.53</course>
  <speed>0.9730878685915265</speed>
  <fix>3d</fix>
</trkpt>
<trkpt lat="33.8109426" lon="-118.3934074">
  <ele>-13.54</ele>
  <time>2026-09-01T01:14:39Z</time>
  <course>229.2</course>
  <speed>0.99</speed>
  <fix>3d</fix>
</trkpt>
<trkpt lat="33.8109414" lon="-118.3934094">
  <ele>-13.802</ele>
  <time>2026-09-01T01:14:39Z</time>
  <course>230.51</course>
  <speed>0.9730878685915265</speed>
  <fix>3d</fix>
</trkpt>
<trkpt lat="33.8109426" lon="-118.3934074">
  <ele>-13.54</ele>
  <time>2026-09-01T01:14:39Z</time>
  <course>229.2</course>
  <speed>0.99</speed>
  <fix>3d</fix>
</trkpt>
<trkpt lat="33.8109408" lon="-118.3934102">
  <ele>-13.78</ele>
  <time>2026-09-01T01:14:39Z</time>
  <course>230.47</course>
  <speed>0.9730878685915265</speed>
  <fix>3d</fix>
</trkpt>
<trkpt lat="33.8109414" lon="-118.393409">
  <ele>-13.5</ele>
  <time>2026-09-01T01:14:39Z</time>
  <course>229.14</course>
  <speed>0.99</speed>
  <fix>3d</fix>
</trkpt>
<trkpt lat="33.8109402" lon="-118.393411">
  <ele>-13.756</ele>
  <time>2026-09-01T01:14:39Z</time>
  <course>230.44</course>
  <speed>0.9730878685915265</speed>
  <fix>3d</fix>
</trkpt>
<trkpt lat="33.8109414" lon="-118.393409">
  <ele>-13.5</ele>
  <time>2026-09-01T01:14:39Z</time>
  <course>229.14</course>
  <speed>0.99</speed>
  <fix>3d</fix>
</trkpt>
<trkpt lat="33.8109396" lon="-118.3934118">
  <ele>-13.731</ele>
  <time>2026-09-01T01:14:39Z</time>
  <course>230.41</course>
  <speed>0.9730878685915265</speed>
  <fix>3d</fix>
</trkpt>
<trkpt lat="33.8109403" lon="-118.3934107">
  <ele>-13.45</ele>
  <time>2026-09-01T01:14:39Z</time>
  <course>229.1</course>
  <speed>0.99</speed>
  <fix>3d</fix>
</trkpt>
<trkpt lat="33.810939" lon="-118.3934126">
  <ele>-13.707</ele>
  <time>2026-09-01T01:14:39Z</time>
  <course>230.38</course>
  <speed>0.9730878685915265</speed>
  <fix>3d</fix>
</trkpt>
<trkpt lat="33.8109403" lon="-118.3934107">
  <ele>-13.45</ele>
  <time>2026-09-01T01:14:39Z</time>
  <course>229.1</course>
  <speed>0.99</speed>
  <fix>3d</fix>
</trkpt>
<trkpt lat="33.8109385" lon="-118.3934135">
  <ele>-13.682</ele>
  <time>2026-09-01T01:14:39Z</time>
  <course>230.33</course>
  <speed>0.9730878685915265</speed>
  <fix>3d</fix>
</trkpt>
<trkpt lat="33.8109391" lon="-118.3934123">
  <ele>-13.41</ele>
  <time>2026-09-01T01:14:39Z</time>
  <course>229.03</course>
  <speed>0.99</speed>
  <fix>3d</fix>
</trkpt>
<trkpt lat="33.8109379" lon="-118.3934143">
  <ele>-13.658</ele>
  <time>2026-09-01T01:14:39Z</time>
  <course>230.28</course>
  <speed>0.9730878685915265</speed>
  <fix>3d</fix>
</trkpt>
<trkpt lat="33.8109391" lon="-118.3934123">
  <ele>-13.41</ele>
  <time>2026-09-01T01:14:39Z</time>
  <course>229.03</course>
  <speed>0.99</speed>
  <fix>3d</fix>
</trkpt>
<trkpt lat="33.8109373" lon="-118.3934151">
  <ele>-13.634</ele>
  <time>2026-09-01T01:14:39Z</time>
  <course>230.23</course>
  <speed>0.9730878685915265</speed>
  <fix>3d</fix>
</trkpt>
<trkpt lat="33.8109379" lon="-118.3934138">
  <ele>-13.36</ele>
  <time>2026-09-01T01:14:39Z</time>
  <course>228.94</course>
  <speed>0.99</speed>
  <fix>3d</fix>
</trkpt>
<trkpt lat="33.8109367" lon="-118.3934159">
  <ele>-13.611</ele>
  <time>2026-09-01T01:14:39Z</time>
  <course>230.21</course>
  <speed>0.9730878685915265</speed>
  <fix>3d</fix>
</trkpt>
<trkpt lat="33.8109379" lon="-118.3934138">
  <ele>-13.36</ele>
  <time>2026-09-01T01:14:39Z</time>
  <course>228.94</course>
  <speed>0.99</speed>
  <fix>3d</fix>
</trkpt>
<trkpt lat="33.8109361" lon="-118.3934167">
  <ele>-13.586</ele>
  <time>2026-09-01T01:14:39Z</time>
  <course>230.2</course>
  <speed>0.9730878685915265</speed>
  <fix>3d</fix>
</trkpt>
<trkpt lat="33.8109367" lon="-118.3934155">
  <ele>-13.31</ele>
  <time>2026-09-01T01:14:39Z</time>
  <course>228.92</course>
  <speed>1.0</speed>
  <fix>3d</fix>
</trkpt>
<trkpt lat="33.8109355" lon="-118.3934175">
  <ele>-13.561</ele>
  <time>2026-09-01T01:14:39Z</time>
  <course>230.22</course>
  <speed>0.9730878685915265</speed>
  <fix>3d</fix>
</trkpt>
<trkpt lat="33.8109367" lon="-118.3934155">
  <ele>-13.31</ele>
  <time>2026-09-01T01:14:39Z</time>
  <course>228.92</course>
  <speed>1.0</speed>
  <fix>3d</fix>
</trkpt>
<trkpt lat="33.8109349" lon="-118.3934184">
  <ele>-13.537</ele>
  <time>2026-09-01T01:14:39Z</time>
  <course>230.25</course>
  <speed>0.9730878685915265</speed>
  <fix>3d</fix>
</trkpt>
<trkpt lat="33.8109356" lon="-118.3934171">
  <ele>-13.26</ele>
  <time>2026-09-01T01:14:39Z</time>
  <course>228.99</course>
  <speed>1.0</speed>
  <fix>3d</fix>
</trkpt>
<trkpt lat="33.8109344" lon="-118.3934192">
  <ele>-13.513</ele>
  <time>2026-09-01T01:14:39Z</time>
  <course>230.27</course>
  <speed>0.9730878685915265</speed>
  <fix>3d</fix>
</trkpt>
<trkpt lat="33.8109356" lon="-118.3934171">
  <ele>-13.26</ele>
  <time>2026-09-01T01:14:39Z</time>
  <course>228.99</course>
  <speed>1.0</speed>
  <fix>3d</fix>
</trkpt>
<trkpt lat="33.8109338" lon="-118.39342">
  <ele>-13.488</ele>
  <time>2026-09-01T01:14:39Z</time>
  <course>230.27</course>
  <speed>0.9730878685915265</speed>
  <fix>3d</fix>
</trkpt>
<trkpt lat="33.8109344" lon="-118.3934188">
  <ele>-13.21</ele>
  <time>2026-09-01T01:14:39Z</time>
  <course>229.03</course>
  <speed>1.0</speed>
  <fix>3d</fix>
</trkpt>
<trkpt lat="33.8109332" lon="-118.3934208">
  <ele>-13.464</ele>
  <time>2026-09-01T01:14:39Z</time>
  <course>230.27</course>
  <speed>0.9730878685915265</speed>
  <fix>3d</fix>
</trkpt>
<trkpt lat="33.8109344" lon="-118.3934188">
  <ele>-13.21</ele>
  <time>2026-09-01T01:14:39Z</time>
  <course>229.03</course>
  <speed>1.0</speed>
  <fix>3d</fix>
</trkpt>
<trkpt lat="33.8109326" lon="-118.3934216">
  <ele>-13.438</ele>
  <time>2026-09-01T01:14:39Z</time>
  <course>230.26</course>
  <speed>0.9730878685915265</speed>
  <fix>3d</fix>
</trkpt>
<trkpt lat="33.8109332" lon="-118.3934205">
  <ele>-13.16</ele>
  <time>2026-09-01T01:14:39Z</time>
  <course>229.0</course>
  <speed>1.0</speed>
  <fix>3d</fix>
</trkpt>
<trkpt lat="33.810932" lon="-118.3934224">
  <ele>-13.412</ele>
  <time>2026-09-01T01:14:39Z</time>
  <course>230.24</course>
  <speed>0.9730878685915265</speed>
  <fix>3d</fix>
</trkpt>
<trkpt lat="33.8109332" lon="-118.3934205">
  <ele>-13.16</ele>
  <time>2026-09-01T01:14:39Z</time>
  <course>229.0</course>
  <speed>1.0</speed>
  <fix>3d</fix>
</trkpt>
<trkpt lat="33.8109314" lon="-118.3934233">
  <ele>-13.386</ele>
  <time>2026-09-01T01:14:39Z</time>
  <course>230.22</course>
  <speed>0.9730878685915265</speed>
  <fix>3d</fix>
</trkpt>
<trkpt lat="33.810932" lon="-118.3934221">
  <ele>-13.11</ele>
  <time>2026-09-01T01:14:39Z</time>
  <course>228.96</course>
  <speed>1.0</speed>
  <fix>3d</fix>
</trkpt>
<trkpt lat="33.8109308" lon="-118.3934241">
  <ele>-13.361</ele>
  <time>2026-09-01T01:14:39Z</time>
  <course>230.19</course>
  <speed>0.9730878685915265</speed>
  <fix>3d</fix>
</trkpt>
<trkpt lat="33.810932" lon="-118.3934221">
  <ele>-13.11</ele>
  <time>2026-09-01T01:14:39Z</time>
  <course>228.96</course>
  <speed>1.0</speed>
  <fix>3d</fix>
</trkpt>
<trkpt lat="33.8109302" lon="-118.3934249">
  <ele>-13.336</ele>
  <time>2026-09-01T01:14:39Z</time>
  <course>230.18</course>
  <speed>0.9730878685915265</speed>
  <fix>3d</fix>
</trkpt>
<trkpt lat="33.8109308" lon="-118.3934237">
  <ele>-13.06</ele>
  <time>2026-09-01T01:14:39Z</time>
  <course>228.94</course>
  <speed>1.0</speed>
  <fix>3d</fix>
</trkpt>
<trkpt lat="33.8109296" lon="-118.3934257">
  <ele>-13.311</ele>
  <time>2026-09-01T01:14:39Z</time>
  <course>230.19</course>
  <speed>0.9730878685915265</speed>
  <fix>3d</fix>
</trkpt>
<trkpt lat="33.8109308" lon="-118.3934237">
  <ele>-13.06</ele>
  <time>2026-09-01T01:14:39Z</time>
  <course>228.94</course>
  <speed>1.0</speed>
  <fix>3d</fix>
</trkpt>
<trkpt lat="33.810929" lon="-118.3934265">
  <ele>-13.287</ele>
  <time>2026-09-01T01:14:39Z</time>
  <course>230.2</course>
  <speed>0.9730878685915265</speed>
  <fix>3d</fix>
</trkpt>
<trkpt lat="33.8109296" lon="-118.3934253">
  <ele>-13.01</ele>
  <time>2026-09-01T01:14:39Z</time>
  <course>228.95</course>
  <speed>1.0</speed>
  <fix>3d</fix>
</trkpt>
<trkpt lat="33.8109285" lon="-118.3934273">
  <ele>-13.263</ele>
  <time>2026-09-01T01:14:39Z</time>
  <course>230.23</course>
  <speed>0.9730878685915265</speed>
  <fix>3d</fix>
</trkpt>
<trkpt lat="33.8109296" lon="-118.3934253">
  <ele>-13.01</ele>
  <time>2026-09-01T01:14:39Z</time>
  <course>228.95</course>
  <speed>1.0</speed>
  <fix>3d</fix>
</trkpt>
<trkpt lat="33.8109279" lon="-118.3934282">
  <ele>-13.24</ele>
  <time>2026-09-01T01:14:39Z</time>
  <course>230.27</course>
  <speed>0.9730878685915265</speed>
  <fix>3d</fix>
</trkpt>
<trkpt lat="33.8109284" lon="-118.393427">
  <ele>-12.96</ele>
  <time>2026-09-01T01:14:39Z</time>
  <course>229.01</course>
  <speed>1.0</speed>
  <fix>3d</fix>
</trkpt>
<trkpt lat="33.8109273" lon="-118.393429">
  <ele>-13.216</ele>
  <time>2026-09-01T01:14:39Z</time>
  <course>230.31</course>
  <speed>0.9730878685915265</speed>
  <fix>3d</fix>
</trkpt>
<trkpt lat="33.8109284" lon="-118.393427">
  <ele>-12.96</ele>
  <time>2026-09-01T01:14:39Z</time>
  <course>229.01</course>
  <speed>1.0</speed>
  <fix>3d</fix>
</trkpt>
<trkpt lat="33.8109267" lon="-118.3934298">
  <ele>-13.191</ele>
  <time>2026-09-01T01:14:39Z</time>
  <course>230.35</course>
  <speed>0.9730878685915265</speed>
  <fix>3d</fix>
</trkpt>
<trkpt lat="33.8109272" lon="-118.3934286">
  <ele>-12.92</ele>
  <time>2026-09-01T01:14:39Z</time>
  <course>229.07</course>
  <speed>1.0</speed>
  <fix>3d</fix>
</trkpt>
<trkpt lat="33.8109261" lon="-118.3934306">
  <ele>-13.165</ele>
  <time>2026-09-01T01:14:39Z</time>
  <course>230.38</course>
  <speed>0.9730878685915265</speed>
  <fix>3d</fix>
</trkpt>
<trkpt lat="33.8109272" lon="-118.3934286">
  <ele>-12.92</ele>
  <time>2026-09-01T01:14:39Z</time>
  <course>229.07</course>
  <speed>1.0</speed>
  <fix>3d</fix>
</trkpt>
<trkpt lat="33.8109255" lon="-118.3934314">
  <ele>-13.138</ele>
  <time>2026-09-01T01:14:39Z</time>
  <course>230.42</course>
  <speed>0.9730878685915265</speed>
  <fix>3d</fix>
</trkpt>
<trkpt lat="33.810926" lon="-118.3934303">
  <ele>-12.87</ele>
  <time>2026-09-01T01:14:39Z</time>
  <course>229.14</course>
  <speed>0.99</speed>
  <fix>3d</fix>
</trkpt>
<trkpt lat="33.8109249" lon="-118.3934323">
  <ele>-13.111</ele>
  <time>2026-09-01T01:14:39Z</time>
  <course>230.46</course>
  <speed>0.9730878685915265</speed>
  <fix>3d</fix>
</trkpt>
<trkpt lat="33.810926" lon="-118.3934303">
  <ele>-12.87</ele>
  <time>2026-09-01T01:14:39Z</time>
  <course>229.14</course>
  <speed>0.99</speed>
  <fix>3d</fix>
</trkpt>
<trkpt lat="33.8109243" lon="-118.3934331">
  <ele>-13.085</ele>
  <time>2026-09-01T01:14:39Z</time>
  <course>230.49</course>
  <speed>0.9730878685915265</speed>
  <fix>3d</fix>
</trkpt>
<trkpt lat="33.8109249" lon="-118.3934319">
  <ele>-12.82</ele>
  <time>2026-09-01T01:14:39Z</time>
  <course>229.2</course>
  <speed>0.99</speed>
  <fix>3d</fix>
</trkpt>
<trkpt lat="33.8109237" lon="-118.3934339">
  <ele>-13.059</ele>
  <time>2026-09-01T01:14:39Z</time>
  <course>230.51</course>
  <speed>0.9730878685915265</speed>
  <fix>3d</fix>
</trkpt>
<trkpt lat="33.8109249" lon="-118.3934319">
  <ele>-12.82</ele>
  <time>2026-09-01T01:14:39Z</time>
  <course>229.2</course>
  <speed>0.99</speed>
  <fix>3d</fix>
</trkpt>
<trkpt lat="33.8109232" lon="-118.3934347">
  <ele>-13.034</ele>
  <time>2026-09-01T01:14:39Z</time>
  <course>230.52</course>
  <speed>0.9730878685915265</speed>
  <fix>3d</fix>
</trkpt>
<trkpt lat="33.8109238" lon="-118.3934335">
  <ele>-12.77</ele>
  <time>2026-09-01T01:14:39Z</time>
  <course>229.19</course>
  <speed>0.99</speed>
  <fix>3d</fix>
</trkpt>
<trkpt lat="33.8109226" lon="-118.3934355">
  <ele>-13.01</ele>
  <time>2026-09-01T01:14:39Z</time>
  <course>230.51</course>
  <speed>0.9730878685915265</speed>
  <fix>3d</fix>
</trkpt>
<trkpt lat="33.8109238" lon="-118.3934335">
  <ele>-12.77</ele>
  <time>2026-09-01T01:14:39Z</time>
  <course>229.19</course>
  <speed>0.99</speed>
  <fix>3d</fix>
</trkpt>
<trkpt lat="33.810922" lon="-118.3934363">
  <ele>-12.987</ele>
  <time>2026-09-01T01:14:39Z</time>
  <course>230.49</course>
  <speed>0.9730878685915265</speed>
  <fix>3d</fix>
</trkpt>
<trkpt lat="33.8109226" lon="-118.3934352">
  <ele>-12.73</ele>
  <time>2026-09-01T01:14:39Z</time>
  <course>229.16</course>
  <speed>1.0</speed>
  <fix>3d</fix>
</trkpt>
<trkpt lat="33.8109214" lon="-118.3934371">
  <ele>-12.965</ele>
  <time>2026-09-01T01:14:39Z</time>
  <course>230.46</course>
  <speed>0.9730878685915265</speed>
  <fix>3d</fix>
</trkpt>
<trkpt lat="33.8109226" lon="-118.3934352">
  <ele>-12.73</ele>
  <time>2026-09-01T01:14:39Z</time>
  <course>229.16</course>
  <speed>1.0</speed>
  <fix>3d</fix>
</trkpt>
<trkpt lat="33.8109208" lon="-118.393438">
  <ele>-12.942</ele>
  <time>2026-09-01T01:14:39Z</time>
  <course>230.42</course>
  <speed>0.9730878685915265</speed>
  <fix>3d</fix>
</trkpt>
<trkpt lat="33.8109214" lon="-118.3934368">
  <ele>-12.69</ele>
  <time>2026-09-01T01:14:39Z</time>
  <course>229.1</course>
  <speed>1.0</speed>
  <fix>3d</fix>
</trkpt>
<trkpt lat="33.8109202" lon="-118.3934388">
  <ele>-12.921</ele>
  <time>2026-09-01T01:14:39Z</time>
  <course>230.38</course>
  <speed>0.9730878685915265</speed>
  <fix>3d</fix>
</trkpt>
<trkpt lat="33.8109214" lon="-118.3934368">
  <ele>-12.69</ele>
  <time>2026-09-01T01:14:39Z</time>
  <course>229.1</course>
  <speed>1.0</speed>
  <fix>3d</fix>
</trkpt>
<trkpt lat="33.8109196" lon="-118.3934396">
  <ele>-12.898</ele>
  <time>2026-09-01T01:14:39Z</time>
  <course>230.35</course>
  <speed>0.9730878685915265</speed>
  <fix>3d</fix>
</trkpt>
<trkpt lat="33.8109202" lon="-118.3934384">
  <ele>-12.64</ele>
  <time>2026-09-01T01:14:39Z</time>
  <course>229.03</course>
  <speed>1.0</speed>
  <fix>3d</fix>
</trkpt>
<trkpt lat="33.8109191" lon="-118.3934404">
  <ele>-12.875</ele>
  <time>2026-09-01T01:14:39Z</time>
  <course>230.33</course>
  <speed>0.9730878685915265</speed>
  <fix>3d</fix>
</trkpt>
<trkpt lat="33.8109202" lon="-118.3934384">
  <ele>-12.64</ele>
  <time>2026-09-01T01:14:39Z</time>
  <course>229.03</course>
  <speed>1.0</speed>
  <fix>3d</fix>
</trkpt>
<trkpt lat="33.8109185" lon="-118.3934412">
  <ele>-12.85</ele>
  <time>2026-09-01T01:14:39Z</time>
  <course>230.33</course>
  <speed>0.9730878685915265</speed>
  <fix>3d</fix>
</trkpt>
<trkpt lat="33.810919" lon="-118.3934401">
  <ele>-12.59</ele>
  <time>2026-09-01T01:14:39Z</time>
  <course>229.04</course>
  <speed>1.0</speed>
  <fix>3d</fix>
</trkpt>
<trkpt lat="33.8109179" lon="-118.393442">
  <ele>-12.826</ele>
  <time>2026-09-01T01:14:39Z</time>
  <course>230.34</course>
  <speed>0.9730878685915265</speed>
  <fix>3d</fix>
</trkpt>
<trkpt lat="33.810919" lon="-118.3934401">
  <ele>-12.59</ele>
  <time>2026-09-01T01:14:39Z</time>
  <course>229.04</course>
  <speed>1.0</speed>
  <fix>3d</fix>
</trkpt>
<trkpt lat="33.8109173" lon="-118.3934429">
  <ele>-12.801</ele>
  <time>2026-09-01T01:14:39Z</time>
  <course>230.35</course>
  <speed>0.9730878685915265</speed>
  <fix>3d</fix>
</trkpt>
<trkpt lat="33.8109179" lon="-118.3934417">
  <ele>-12.54</ele>
  <time>2026-09-01T01:14:39Z</time>
  <course>229.07</course>
  <speed>1.0</speed>
  <fix>3d</fix>
</trkpt>
<trkpt lat="33.8109167" lon="-118.3934437">
  <ele>-12.776</ele>
  <time>2026-09-01T01:14:39Z</time>
  <course>230.35</course>
  <speed>0.9730878685915265</speed>
  <fix>3d</fix>
</trkpt>
<trkpt lat="33.8109179" lon="-118.3934417">
  <ele>-12.54</ele>
  <time>2026-09-01T01:14:39Z</time>
  <course>229.07</course>
  <speed>1.0</speed>
  <fix>3d</fix>
</trkpt>
<trkpt lat="33.8109161" lon="-118.3934445">
  <ele>-12.752</ele>
  <time>2026-09-01T01:14:39Z</time>
  <course>230.35</course>
  <speed>0.9730878685915265</speed>
  <fix>3d</fix>
</trkpt>
<trkpt lat="33.8109167" lon="-118.3934434">
  <ele>-12.49</ele>
  <time>2026-09-01T01:14:39Z</time>
  <course>229.06</course>
  <speed>1.0</speed>
  <fix>3d</fix>
</trkpt>
<trkpt lat="33.8109155" lon="-118.3934453">
  <ele>-12.728</ele>
  <time>2026-09-01T01:14:39Z</time>
  <course>230.33</course>
  <speed>0.9730878685915265</speed>
  <fix>3d</fix>
</trkpt>
<trkpt lat="33.8109167" lon="-118.3934434">
  <ele>-12.49</ele>
  <time>2026-09-01T01:14:39Z</time>
  <course>229.06</course>
  <speed>1.0</speed>
  <fix>3d</fix>
</trkpt>
<trkpt lat="33.8109149" lon="-118.3934461">
  <ele>-12.704</ele>
  <time>2026-09-01T01:14:39Z</time>
  <course>230.31</course>
  <speed>0.9730878685915265</speed>
  <fix>3d</fix>
</trkpt>
<trkpt lat="33.8109155" lon="-118.393445">
  <ele>-12.44</ele>
  <time>2026-09-01T01:14:39Z</time>
  <course>229.02</course>
  <speed>1.0</speed>
  <fix>3d</fix>
</trkpt>
<trkpt lat="33.8109144" lon="-118.3934469">
  <ele>-12.679</ele>
  <time>2026-09-01T01:14:39Z</time>
  <course>230.29</course>
  <speed>0.9730878685915265</speed>
  <fix>3d</fix>
</trkpt>
<trkpt lat="33.8109155" lon="-118.393445">
  <ele>-12.44</ele>
  <time>2026-09-01T01:14:39Z</time>
  <course>229.02</course>
  <speed>1.0</speed>
  <fix>3d</fix>
</trkpt>
<trkpt lat="33.8109138" lon="-118.3934478">
  <ele>-12.652</ele>
  <time>2026-09-01T01:14:39Z</time>
  <course>230.27</course>
  <speed>0.9730878685915265</speed>
  <fix>3d</fix>
</trkpt>
<trkpt lat="33.8109143" lon="-118.3934467">
  <ele>-12.39</ele>
  <time>2026-09-01T01:14:39Z</time>
  <course>228.98</course>
  <speed>1.0</speed>
  <fix>3d</fix>
</trkpt>
<trkpt lat="33.8109132" lon="-118.3934486">
  <ele>-12.625</ele>
  <time>2026-09-01T01:14:39Z</time>
  <course>230.26</course>
  <speed>0.9730878685915265</speed>
  <fix>3d</fix>
</trkpt>
<trkpt lat="33.8109143" lon="-118.3934467">
  <ele>-12.39</ele>
  <time>2026-09-01T01:14:39Z</time>
  <course>228.98</course>
  <speed>1.0</speed>
  <fix>3d</fix>
</trkpt>
<trkpt lat="33.8109126" lon="-118.3934494">
  <ele>-12.598</ele>
  <time>2026-09-01T01:14:39Z</time>
  <course>230.26</course>
  <speed>0.9730878685915265</speed>
  <fix>3d</fix>
</trkpt>
<trkpt lat="33.8109131" lon="-118.3934483">
  <ele>-12.34</ele>
  <time>2026-09-01T01:14:39Z</time>
  <course>228.97</course>
  <speed>1.0</speed>
  <fix>3d</fix>
</trkpt>
<trkpt lat="33.810912" lon="-118.3934502">
  <ele>-12.573</ele>
  <time>2026-09-01T01:14:39Z</time>
  <course>230.24</course>
  <speed>0.9730878685915265</speed>
  <fix>3d</fix>
</trkpt>
<trkpt lat="33.8109131" lon="-118.3934483">
  <ele>-12.34</ele>
  <time>2026-09-01T01:14:39Z</time>
  <course>228.97</course>
  <speed>1.0</speed>
  <fix>3d</fix>
</trkpt>
<trkpt lat="33.8109114" lon="-118.393451">
  <ele>-12.547</ele>
  <time>2026-09-01T01:14:39Z</time>
  <course>230.25</course>
  <speed>0.9730878685915265</speed>
  <fix>3d</fix>
</trkpt>
<trkpt lat="33.8109119" lon="-118.39345">
  <ele>-12.29</ele>
  <time>2026-09-01T01:14:39Z</time>
  <course>228.98</course>
  <speed>1.0</speed>
  <fix>3d</fix>
</trkpt>
<trkpt lat="33.8109108" lon="-118.3934519">
  <ele>-12.522</ele>
  <time>2026-09-01T01:14:39Z</time>
  <course>230.27</course>
  <speed>0.9730878685915265</speed>
  <fix>3d</fix>
</trkpt>
<trkpt lat="33.8109119" lon="-118.39345">
  <ele>-12.29</ele>
  <time>2026-09-01T01:14:39Z</time>
  <course>228.98</course>
  <speed>1.0</speed>
  <fix>3d</fix>
</trkpt>
<trkpt lat="33.8109102" lon="-118.3934527">
  <ele>-12.499</ele>
  <time>2026-09-01T01:14:39Z</time>
  <course>230.28</course>
  <speed>0.9730878685915265</speed>
  <fix>3d</fix>
</trkpt>
<trkpt lat="33.8109107" lon="-118.3934516">
  <ele>-12.24</ele>
  <time>2026-09-01T01:14:39Z</time>
  <course>229.0</course>
  <speed>1.0</speed>
  <fix>3d</fix>
</trkpt>
<trkpt lat="33.8109096" lon="-118.3934535">
  <ele>-12.476</ele>
  <time>2026-09-01T01:14:39Z</time>
  <course>230.29</course>
  <speed>0.9730878685915265</speed>
  <fix>3d</fix>
</trkpt>
<trkpt lat="33.8109107" lon="-118.3934516">
  <ele>-12.24</ele>
  <time>2026-09-01T01:14:39Z</time>
  <course>229.0</course>
  <speed>1.0</speed>
  <fix>3d</fix>
</trkpt>
<trkpt lat="33.810909" lon="-118.3934543">
  <ele>-12.453</ele>
  <time>2026-09-01T01:14:39Z</time>
  <course>230.31</course>
  <speed>0.9730878685915265</speed>
  <fix>3d</fix>
</trkpt>
<trkpt lat="33.8109095" lon="-118.3934532">
  <ele>-12.19</ele>
  <time>2026-09-01T01:14:39Z</time>
  <course>229.02</course>
  <speed>1.0</speed>
  <fix>3d</fix>
</trkpt>
<trkpt lat="33.8109084" lon="-118.3934551">
  <ele>-12.429</ele>
  <time>2026-09-01T01:14:39Z</time>
  <course>230.33</course>
  <speed>0.9730878685915265</speed>
  <fix>3d</fix>
</trkpt>
<trkpt lat="33.8109095" lon="-118.3934532">
  <ele>-12.19</ele>
  <time>2026-09-01T01:14:39Z</time>
  <course>229.02</course>
  <speed>1.0</speed>
  <fix>3d</fix>
</trkpt>
<trkpt lat="33.8109078" lon="-118.393456">
  <ele>-12.405</ele>
  <time>2026-09-01T01:14:39Z</time>
  <course>230.37</course>
  <speed>0.9730878685915265</speed>
  <fix>3d</fix>
</trkpt>
<trkpt lat="33.8109083" lon="-118.3934549">
  <ele>-12.15</ele>
  <time>2026-09-01T01:14:39Z</time>
  <course>229.07</course>
  <speed>1.0</speed>
  <fix>3d</fix>
</trkpt>
<trkpt lat="33.8109073" lon="-118.3934568">
  <ele>-12.38</ele>
  <time>2026-09-01T01:14:39Z</time>
  <course>230.4</course>
  <speed>0.9667471230885561</speed>
  <fix>3d</fix>
</trkpt>
<trkpt lat="33.8109083" lon="-118.3934549">
  <ele>-12.15</ele>
  <time>2026-09-01T01:14:39Z</time>
  <course>229.07</course>
  <speed>1.0</speed>
  <fix>3d</fix>
</trkpt>
<trkpt lat="33.8109067" lon="-118.3934576">
  <ele>-12.354</ele>
  <time>2026-09-01T01:14:39Z</time>
  <course>230.44</course>
  <speed>0.9667471230885561</speed>
  <fix>3d</fix>
</trkpt>
<trkpt lat="33.8109071" lon="-118.3934564">
  <ele>-12.1</ele>
  <time>2026-09-01T01:14:39Z</time>
  <course>229.14</course>
  <speed>0.99</speed>
  <fix>3d</fix>
</trkpt>
<trkpt lat="33.8109061" lon="-118.3934584">
  <ele>-12.329</ele>
  <time>2026-09-01T01:14:39Z</time>
  <course>230.49</course>
  <speed>0.9667471230885561</speed>
  <fix>3d</fix>
</trkpt>
<trkpt lat="33.8109071" lon="-118.3934564">
  <ele>-12.1</ele>
  <time>2026-09-01T01:14:39Z</time>
  <course>229.14</course>
  <speed>0.99</speed>
  <fix>3d</fix>
</trkpt>
<trkpt lat="33.8109055" lon="-118.3934592">
  <ele>-12.304</ele>
  <time>2026-09-01T01:14:39Z</time>
  <course>230.54</course>
  <speed>0.9667471230885561</speed>
  <fix>3d</fix>
</trkpt>
<trkpt lat="33.810906" lon="-118.3934581">
  <ele>-12.05</ele>
  <time>2026-09-01T01:14:39Z</time>
  <course>229.22</course>
  <speed>0.99</speed>
  <fix>3d</fix>
</trkpt>
<trkpt lat="33.8109049" lon="-118.39346">
  <ele>-12.278</ele>
  <time>2026-09-01T01:14:39Z</time>
  <course>230.59</course>
  <speed>0.9667471230885561</speed>
  <fix>3d</fix>
</trkpt>
<trkpt lat="33.810906" lon="-118.3934581">
  <ele>-12.05</ele>
  <time>2026-09-01T01:14:39Z</time>
  <course>229.22</course>
  <speed>0.99</speed>
  <fix>3d</fix>
</trkpt>
<trkpt lat="33.8109043" lon="-118.3934609">
  <ele>-12.252</ele>
  <time>2026-09-01T01:14:39Z</time>
  <course>230.62</course>
  <speed>0.9667471230885561</speed>
  <fix>3d</fix>
</trkpt>
<trkpt lat="33.8109049" lon="-118.3934597">
  <ele>-12.0</ele>
  <time>2026-09-01T01:14:39Z</time>
  <course>229.29</course>
  <speed>0.99</speed>
  <fix>3d</fix>
</trkpt>
<trkpt lat="33.8109037" lon="-118.3934617">
  <ele>-12.227</ele>
  <time>2026-09-01T01:14:39Z</time>
  <course>230.63</course>
  <speed>0.9667471230885561</speed>
  <fix>3d</fix>
</trkpt>
<trkpt lat="33.8109049" lon="-118.3934597">
  <ele>-12.0</ele>
  <time>2026-09-01T01:14:39Z</time>
  <course>229.29</course>
  <speed>0.99</speed>
  <fix>3d</fix>
</trkpt>
<trkpt lat="33.8109031" lon="-118.3934625">
  <ele>-12.202</ele>
  <time>2026-09-01T01:14:39Z</time>
  <course>230.63</course>
  <speed>0.9730878685915265</speed>
  <fix>3d</fix>
</trkpt>
<trkpt lat="33.8109037" lon="-118.3934614">
  <ele>-11.95</ele>
  <time>2026-09-01T01:14:39Z</time>
  <course>229.28</course>
  <speed>0.99</speed>
  <fix>3d</fix>
</trkpt>
<trkpt lat="33.8109026" lon="-118.3934633">
  <ele>-12.177</ele>
  <time>2026-09-01T01:14:39Z</time>
  <course>230.59</course>
  <speed>0.9730878685915265</speed>
  <fix>3d</fix>
</trkpt>
<trkpt lat="33.8109037" lon="-118.3934614">
  <ele>-11.95</ele>
  <time>2026-09-01T01:14:39Z</time>
  <course>229.28</course>
  <speed>0.99</speed>
  <fix>3d</fix>
</trkpt>
<trkpt lat="33.810902" lon="-118.3934641">
  <ele>-12.152</ele>
  <time>2026-09-01T01:14:39Z</time>
  <course>230.56</course>
  <speed>0.9730878685915265</speed>
  <fix>3d</fix>
</trkpt>
<trkpt lat="33.8109025" lon="-118.393463">
  <ele>-11.9</ele>
  <time>2026-09-01T01:14:39Z</time>
  <course>229.2</course>
  <speed>0.99</speed>
  <fix>3d</fix>
</trkpt>
<trkpt lat="33.8109014" lon="-118.3934649">
  <ele>-12.127</ele>
  <time>2026-09-01T01:14:39Z</time>
  <course>230.52</course>
  <speed>0.9730878685915265</speed>
  <fix>3d</fix>
</trkpt>
<trkpt lat="33.8109025" lon="-118.393463">
  <ele>-11.9</ele>
  <time>2026-09-01T01:14:39Z</time>
  <course>229.2</course>
  <speed>0.99</speed>
  <fix>3d</fix>
</trkpt>
<trkpt lat="33.8109008" lon="-118.3934658">
  <ele>-12.102</ele>
  <time>2026-09-01T01:14:39Z</time>
  <course>230.49</course>
  <speed>0.9730878685915265</speed>
  <fix>3d</fix>
</trkpt>
<trkpt lat="33.8109013" lon="-118.3934647">
  <ele>-11.86</ele>
  <time>2026-09-01T01:14:39Z</time>
  <course>229.14</course>
  <speed>0.99</speed>
  <fix>3d</fix>
</trkpt>
<trkpt lat="33.8109002" lon="-118.3934666">
  <ele>-12.078</ele>
  <time>2026-09-01T01:14:39Z</time>
  <course>230.47</course>
  <speed>0.9730878685915265</speed>
  <fix>3d</fix>
</trkpt>
<trkpt lat="33.8109013" lon="-118.3934647">
  <ele>-11.86</ele>
  <time>2026-09-01T01:14:39Z</time>
  <course>229.14</course>
  <speed>0.99</speed>
  <fix>3d</fix>
</trkpt>
<trkpt lat="33.8108996" lon="-118.3934674">
  <ele>-12.054</ele>
  <time>2026-09-01T01:14:39Z</time>
  <course>230.46</course>
  <speed>0.9730878685915265</speed>
  <fix>3d</fix>
</trkpt>
<trkpt lat="33.8109002" lon="-118.3934663">
  <ele>-11.81</ele>
  <time>2026-09-01T01:14:39Z</time>
  <course>229.12</course>
  <speed>0.99</speed>
  <fix>3d</fix>
</trkpt>
<trkpt lat="33.810899" lon="-118.3934682">
  <ele>-12.029</ele>
  <time>2026-09-01T01:14:39Z</time>
  <course>230.43</course>
  <speed>0.9730878685915265</speed>
  <fix>3d</fix>
</trkpt>
<trkpt lat="33.8109002" lon="-118.3934663">
  <ele>-11.81</ele>
  <time>2026-09-01T01:14:39Z</time>
  <course>229.12</course>
  <speed>0.99</speed>
  <fix>3d</fix>
</trkpt>
<trkpt lat="33.8108984" lon="-118.393469">
  <ele>-12.005</ele>
  <time>2026-09-01T01:14:39Z</time>
  <course>230.4</course>
  <speed>0.9730878685915265</speed>
  <fix>3d</fix>
</trkpt>
<trkpt lat="33.810899" lon="-118.3934679">
  <ele>-11.77</ele>
  <time>2026-09-01T01:14:39Z</time>
  <course>229.09</course>
  <speed>0.99</speed>
  <fix>3d</fix>
</trkpt>
<trkpt lat="33.8108979" lon="-118.3934699">
  <ele>-11.981</ele>
  <time>2026-09-01T01:14:39Z</time>
  <course>230.36</course>
  <speed>0.9730878685915265</speed>
  <fix>3d</fix>
</trkpt>
<trkpt lat="33.810899" lon="-118.3934679">
  <ele>-11.77</ele>
  <time>2026-09-01T01:14:39Z</time>
  <course>229.09</course>
  <speed>0.99</speed>
  <fix>3d</fix>
</trkpt>
<trkpt lat="33.8108973" lon="-118.3934707">
  <ele>-11.956</ele>
  <time>2026-09-01T01:14:39Z</time>
  <course>230.34</course>
  <speed>0.9730878685915265</speed>
  <fix>3d</fix>
</trkpt>
<trkpt lat="33.8108978" lon="-118.3934696">
  <ele>-11.72</ele>
  <time>2026-09-01T01:14:39Z</time>
  <course>229.04</course>
  <speed>0.99</speed>
  <fix>3d</fix>
</trkpt>
<trkpt lat="33.8108967" lon="-118.3934715">
  <ele>-11.932</ele>
  <time>2026-09-01T01:14:39Z</time>
  <course>230.32</course>
  <speed>0.9730878685915265</speed>
  <fix>3d</fix>
</trkpt>
<trkpt lat="33.8108978" lon="-118.3934696">
  <ele>-11.72</ele>
  <time>2026-09-01T01:14:39Z</time>
  <course>229.04</course>
  <speed>0.99</speed>
  <fix>3d</fix>
</trkpt>
<trkpt lat="33.8108961" lon="-118.3934723">
  <ele>-11.908</ele>
  <time>2026-09-01T01:14:39Z</time>
  <course>230.32</course>
  <speed>0.9730878685915265</speed>
  <fix>3d</fix>
</trkpt>
<trkpt lat="33.8108966" lon="-118.3934712">
  <ele>-11.68</ele>
  <time>2026-09-01T01:14:39Z</time>
  <course>229.02</course>
  <speed>0.99</speed>
  <fix>3d</fix>
</trkpt>
<trkpt lat="33.8108955" lon="-118.3934731">
  <ele>-11.884</ele>
  <time>2026-09-01T01:14:39Z</time>
  <course>230.3</course>
  <speed>0.9730878685915265</speed>
  <fix>3d</fix>
</trkpt>
<trkpt lat="33.8108966" lon="-118.3934712">
  <ele>-11.68</ele>
  <time>2026-09-01T01:14:39Z</time>
  <course>229.02</course>
  <speed>0.99</speed>
  <fix>3d</fix>
</trkpt>
<trkpt lat="33.8108949" lon="-118.3934739">
  <ele>-11.861</ele>
  <time>2026-09-01T01:14:39Z</time>
  <course>230.31</course>
  <speed>0.9730878685915265</speed>
  <fix>3d</fix>
</trkpt>
<trkpt lat="33.8108955" lon="-118.3934728">
  <ele>-11.63</ele>
  <time>2026-09-01T01:14:39Z</time>
  <course>229.03</course>
  <speed>0.99</speed>
  <fix>3d</fix>
</trkpt>
<trkpt lat="33.8108943" lon="-118.3934748">
  <ele>-11.838</ele>
  <time>2026-09-01T01:14:39Z</time>
  <course>230.32</course>
  <speed>0.9730878685915265</speed>
  <fix>3d</fix>
</trkpt>
<trkpt lat="33.8108955" lon="-118.3934728">
  <ele>-11.63</ele>
  <time>2026-09-01T01:14:39Z</time>
  <course>229.03</course>
  <speed>0.99</speed>
  <fix>3d</fix>
</trkpt>
<trkpt lat="33.8108937" lon="-118.3934756">
  <ele>-11.815</ele>
  <time>2026-09-01T01:14:39Z</time>
  <course>230.32</course>
  <speed>0.9730878685915265</speed>
  <fix>3d</fix>
</trkpt>
<trkpt lat="33.8108943" lon="-118.3934745">
  <ele>-11.59</ele>
  <time>2026-09-01T01:14:39Z</time>
  <course>229.04</course>
  <speed>0.99</speed>
  <fix>3d</fix>
</trkpt>
<trkpt lat="33.8108932" lon="-118.3934764">
  <ele>-11.792</ele>
  <time>2026-09-01T01:14:39Z</time>
  <course>230.31</course>
  <speed>0.9730878685915265</speed>
  <fix>3d</fix>
</trkpt>
<trkpt lat="33.8108943" lon="-118.3934745">
  <ele>-11.59</ele>
  <time>2026-09-01T01:14:39Z</time>
  <course>229.04</course>
  <speed>0.99</speed>
  <fix>3d</fix>
</trkpt>
<trkpt lat="33.8108926" lon="-118.3934772">
  <ele>-11.768</ele>
  <time>2026-09-01T01:14:39Z</time>
  <course>230.29</course>
  <speed>0.9730878685915265</speed>
  <fix>3d</fix>
</trkpt>
<trkpt lat="33.8108931" lon="-118.393476">
  <ele>-11.54</ele>
  <time>2026-09-01T01:14:39Z</time>
  <course>229.02</course>
  <speed>0.99</speed>
  <fix>3d</fix>
</trkpt>
<trkpt lat="33.810892" lon="-118.393478">
  <ele>-11.743</ele>
  <time>2026-09-01T01:14:39Z</time>
  <course>230.28</course>
  <speed>0.9730878685915265</speed>
  <fix>3d</fix>
</trkpt>
<trkpt lat="33.8108931" lon="-118.393476">
  <ele>-11.54</ele>
  <time>2026-09-01T01:14:39Z</time>
  <course>229.02</course>
  <speed>0.99</speed>
  <fix>3d</fix>
</trkpt>
<trkpt lat="33.8108914" lon="-118.3934788">
  <ele>-11.717</ele>
  <time>2026-09-01T01:14:39Z</time>
  <course>230.29</course>
  <speed>0.9730878685915265</speed>
  <fix>3d</fix>
</trkpt>
<trkpt lat="33.8108919" lon="-118.3934777">
  <ele>-11.49</ele>
  <time>2026-09-01T01:14:39Z</time>
  <course>229.01</course>
  <speed>0.99</speed>
  <fix>3d</fix>
</trkpt>
<trkpt lat="33.8108908" lon="-118.3934796">
  <ele>-11.692</ele>
  <time>2026-09-01T01:14:39Z</time>
  <course>230.31</course>
  <speed>0.9730878685915265</speed>
  <fix>3d</fix>
</trkpt>
<trkpt lat="33.8108919" lon="-118.3934777">
  <ele>-11.49</ele>
  <time>2026-09-01T01:14:39Z</time>
  <course>229.01</course>
  <speed>0.99</speed>
  <fix>3d</fix>
</trkpt>
<trkpt lat="33.8108902" lon="-118.3934805">
  <ele>-11.667</ele>
  <time>2026-09-01T01:14:39Z</time>
  <course>230.34</course>
  <speed>0.9730878685915265</speed>
  <fix>3d</fix>
</trkpt>
<trkpt lat="33.8108907" lon="-118.3934794">
  <ele>-11.44</ele>
  <time>2026-09-01T01:14:39Z</time>
  <course>229.04</course>
  <speed>1.0</speed>
  <fix>3d</fix>
</trkpt>
<trkpt lat="33.8108896" lon="-118.3934813">
  <ele>-11.641</ele>
  <time>2026-09-01T01:14:39Z</time>
  <course>230.36</course>
  <speed>0.9730878685915265</speed>
  <fix>3d</fix>
</trkpt>
<trkpt lat="33.8108907" lon="-118.3934794">
  <ele>-11.44</ele>
  <time>2026-09-01T01:14:39Z</time>
  <course>229.04</course>
  <speed>1.0</speed>
  <fix>3d</fix>
</trkpt>
<trkpt lat="33.810889" lon="-118.3934821">
  <ele>-11.617</ele>
  <time>2026-09-01T01:14:39Z</time>
  <course>230.39</course>
  <speed>0.9730878685915265</speed>
  <fix>3d</fix>
</trkpt>
<trkpt lat="33.8108895" lon="-118.393481">
  <ele>-11.39</ele>
  <time>2026-09-01T01:14:39Z</time>
  <course>229.09</course>
  <speed>0.99</speed>
  <fix>3d</fix>
</trkpt>
<trkpt lat="33.8108884" lon="-118.3934829">
  <ele>-11.591</ele>
  <time>2026-09-01T01:14:39Z</time>
  <course>230.41</course>
  <speed>0.9730878685915265</speed>
  <fix>3d</fix>
</trkpt>
<trkpt lat="33.8108895" lon="-118.393481">
  <ele>-11.39</ele>
  <time>2026-09-01T01:14:39Z</time>
  <course>229.09</course>
  <speed>0.99</speed>
  <fix>3d</fix>
</trkpt>
<trkpt lat="33.8108878" lon="-118.3934837">
  <ele>-11.567</ele>
  <time>2026-09-01T01:14:39Z</time>
  <course>230.43</course>
  <speed>0.9730878685915265</speed>
  <fix>3d</fix>
</trkpt>
<trkpt lat="33.8108883" lon="-118.3934826">
  <ele>-11.34</ele>
  <time>2026-09-01T01:14:39Z</time>
  <course>229.13</course>
  <speed>0.99</speed>
  <fix>3d</fix>
</trkpt>
<trkpt lat="33.8108872" lon="-118.3934846">
  <ele>-11.543</ele>
  <time>2026-09-01T01:14:39Z</time>
  <course>230.46</course>
  <speed>0.9667471230885561</speed>
  <fix>3d</fix>
</trkpt>
<trkpt lat="33.8108883" lon="-118.3934826">
  <ele>-11.34</ele>
  <time>2026-09-01T01:14:39Z</time>
  <course>229.13</course>
  <speed>0.99</speed>
  <fix>3d</fix>
</trkpt>
<trkpt lat="33.8108867" lon="-118.3934854">
  <ele>-11.519</ele>
  <time>2026-09-01T01:14:39Z</time>
  <course>230.49</course>
  <speed>0.9730878685915265</speed>
  <fix>3d</fix>
</trkpt>
<trkpt lat="33.8108872" lon="-118.3934842">
  <ele>-11.29</ele>
  <time>2026-09-01T01:14:39Z</time>
  <course>229.19</course>
  <speed>0.99</speed>
  <fix>3d</fix>
</trkpt>
<trkpt lat="33.8108861" lon="-118.3934862">
  <ele>-11.495</ele>
  <time>2026-09-01T01:14:39Z</time>
  <course>230.52</course>
  <speed>0.9730878685915265</speed>
  <fix>3d</fix>
</trkpt>
<trkpt lat="33.8108872" lon="-118.3934842">
  <ele>-11.29</ele>
  <time>2026-09-01T01:14:39Z</time>
  <course>229.19</course>
  <speed>0.99</speed>
  <fix>3d</fix>
</trkpt>
<trkpt lat="33.8108855" lon="-118.393487">
  <ele>-11.47</ele>
  <time>2026-09-01T01:14:39Z</time>
  <course>230.55</course>
  <speed>0.9730878685915265</speed>
  <fix>3d</fix>
</trkpt>
<trkpt lat="33.8108861" lon="-118.3934859">
  <ele>-11.25</ele>
  <time>2026-09-01T01:14:39Z</time>
  <course>229.24</course>
  <speed>0.99</speed>
  <fix>3d</fix>
</trkpt>
<trkpt lat="33.8108849" lon="-118.3934878">
  <ele>-11.445</ele>
  <time>2026-09-01T01:14:39Z</time>
  <course>230.55</course>
  <speed>0.9730878685915265</speed>
  <fix>3d</fix>
</trkpt>
<trkpt lat="33.8108861" lon="-118.3934859">
  <ele>-11.25</ele>
  <time>2026-09-01T01:14:39Z</time>
  <course>229.24</course>
  <speed>0.99</speed>
  <fix>3d</fix>
</trkpt>
<trkpt lat="33.8108843" lon="-118.3934886">
  <ele>-11.419</ele>
  <time>2026-09-01T01:14:39Z</time>
  <course>230.54</course>
  <speed>0.9730878685915265</speed>
  <fix>3d</fix>
</trkpt>
<trkpt lat="33.8108849" lon="-118.3934875">
  <ele>-11.2</ele>
  <time>2026-09-01T01:14:39Z</time>
  <course>229.21</course>
  <speed>0.99</speed>
  <fix>3d</fix>
</trkpt>
<trkpt lat="33.8108837" lon="-118.3934895">
  <ele>-11.394</ele>
  <time>2026-09-01T01:14:39Z</time>
  <course>230.5</course>
  <speed>0.9730878685915265</speed>
  <fix>3d</fix>
</trkpt>
<trkpt lat="33.8108849" lon="-118.3934875">
  <ele>-11.2</ele>
  <time>2026-09-01T01:14:39Z</time>
  <course>229.21</course>
  <speed>0.99</speed>
  <fix>3d</fix>
</trkpt>
<trkpt lat="33.8108831" lon="-118.3934903">
  <ele>-11.369</ele>
  <time>2026-09-01T01:14:39Z</time>
  <course>230.46</course>
  <speed>0.9730878685915265</speed>
  <fix>3d</fix>
</trkpt>
<trkpt lat="33.8108837" lon="-118.3934892">
  <ele>-11.15</ele>
  <time>2026-09-01T01:14:39Z</time>
  <course>229.14</course>
  <speed>0.99</speed>
  <fix>3d</fix>
</trkpt>
<trkpt lat="33.8108826" lon="-118.3934911">
  <ele>-11.344</ele>
  <time>2026-09-01T01:14:39Z</time>
  <course>230.43</course>
  <speed>0.9730878685915265</speed>
  <fix>3d</fix>
</trkpt>
<trkpt lat="33.8108837" lon="-118.3934892">
  <ele>-11.15</ele>
  <time>2026-09-01T01:14:39Z</time>
  <course>229.14</course>
  <speed>0.99</speed>
  <fix>3d</fix>
</trkpt>
<trkpt lat="33.810882" lon="-118.3934919">
  <ele>-11.319</ele>
  <time>2026-09-01T01:14:39Z</time>
  <course>230.39</course>
  <speed>0.9730878685915265</speed>
  <fix>3d</fix>
</trkpt>
<trkpt lat="33.8108826" lon="-118.3934908">
  <ele>-11.1</ele>
  <time>2026-09-01T01:14:39Z</time>
  <course>229.1</course>
  <speed>0.99</speed>
  <fix>3d</fix>
</trkpt>
<trkpt lat="33.8108814" lon="-118.3934927">
  <ele>-11.294</ele>
  <time>2026-09-01T01:14:39Z</time>
  <course>230.35</course>
  <speed>0.9730878685915265</speed>
  <fix>3d</fix>
</trkpt>
<trkpt lat="33.8108826" lon="-118.3934908">
  <ele>-11.1</ele>
  <time>2026-09-01T01:14:39Z</time>
  <course>229.1</course>
  <speed>0.99</speed>
  <fix>3d</fix>
</trkpt>
<trkpt lat="33.8108808" lon="-118.3934935">
  <ele>-11.27</ele>
  <time>2026-09-01T01:14:39Z</time>
  <course>230.31</course>
  <speed>0.9730878685915265</speed>
  <fix>3d</fix>
</trkpt>
<trkpt lat="33.8108814" lon="-118.3934924">
  <ele>-11.05</ele>
  <time>2026-09-01T01:14:39Z</time>
  <course>229.05</course>
  <speed>0.99</speed>
  <fix>3d</fix>
</trkpt>
<trkpt lat="33.8108802" lon="-118.3934944">
  <ele>-11.246</ele>
  <time>2026-09-01T01:14:39Z</time>
  <course>230.26</course>
  <speed>0.9730878685915265</speed>
  <fix>3d</fix>
</trkpt>
<trkpt lat="33.8108814" lon="-118.3934924">
  <ele>-11.05</ele>
  <time>2026-09-01T01:14:39Z</time>
  <course>229.05</course>
  <speed>0.99</speed>
  <fix>3d</fix>
</trkpt>
<trkpt lat="33.8108796" lon="-118.3934952">
  <ele>-11.223</ele>
  <time>2026-09-01T01:14:39Z</time>
  <course>230.23</course>
  <speed>0.9730878685915265</speed>
  <fix>3d</fix>
</trkpt>
<trkpt lat="33.8108802" lon="-118.3934941">
  <ele>-11.01</ele>
  <time>2026-09-01T01:14:39Z</time>
  <course>228.99</course>
  <speed>0.99</speed>
  <fix>3d</fix>
</trkpt>
<trkpt lat="33.810879" lon="-118.393496">
  <ele>-11.198</ele>
  <time>2026-09-01T01:14:39Z</time>
  <course>230.2</course>
  <speed>0.9730878685915265</speed>
  <fix>3d</fix>
</trkpt>
<trkpt lat="33.8108802" lon="-118.3934941">
  <ele>-11.01</ele>
  <time>2026-09-01T01:14:39Z</time>
  <course>228.99</course>
  <speed>0.99</speed>
  <fix>3d</fix>
</trkpt>
<trkpt lat="33.8108784" lon="-118.3934968">
  <ele>-11.173</ele>
  <time>2026-09-01T01:14:39Z</time>
  <course>230.18</course>
  <speed>0.9730878685915265</speed>
  <fix>3d</fix>
</trkpt>
<trkpt lat="33.810879" lon="-118.3934957">
  <ele>-10.96</ele>
  <time>2026-09-01T01:14:39Z</time>
  <course>228.96</course>
  <speed>0.99</speed>
  <fix>3d</fix>
</trkpt>
<trkpt lat="33.8108779" lon="-118.3934976">
  <ele>-11.148</ele>
  <time>2026-09-01T01:14:39Z</time>
  <course>230.16</course>
  <speed>0.9730878685915265</speed>
  <fix>3d</fix>
</trkpt>
<trkpt lat="33.810879" lon="-118.3934957">
  <ele>-10.96</ele>
  <time>2026-09-01T01:14:39Z</time>
  <course>228.96</course>
  <speed>0.99</speed>
  <fix>3d</fix>
</trkpt>
<trkpt lat="33.8108773" lon="-118.3934985">
  <ele>-11.122</ele>
  <time>2026-09-01T01:14:39Z</time>
  <course>230.15</course>
  <speed>0.9730878685915265</speed>
  <fix>3d</fix>
</trkpt>
<trkpt lat="33.8108778" lon="-118.3934973">
  <ele>-10.91</ele>
  <time>2026-09-01T01:14:39Z</time>
  <course>228.96</course>
  <speed>0.99</speed>
  <fix>3d</fix>
</trkpt>
<trkpt lat="33.8108767" lon="-118.3934993">
  <ele>-11.098</ele>
  <time>2026-09-01T01:14:39Z</time>
  <course>230.16</course>
  <speed>0.9730878685915265</speed>
  <fix>3d</fix>
</trkpt>
<trkpt lat="33.8108778" lon="-118.3934973">
  <ele>-10.91</ele>
  <time>2026-09-01T01:14:39Z</time>
  <course>228.96</course>
  <speed>0.99</speed>
  <fix>3d</fix>
</trkpt>
<trkpt lat="33.8108761" lon="-118.3935001">
  <ele>-11.075</ele>
  <time>2026-09-01T01:14:39Z</time>
  <course>230.18</course>
  <speed>0.9730878685915265</speed>
  <fix>3d</fix>
</trkpt>
<trkpt lat="33.8108767" lon="-118.3934989">
  <ele>-10.86</ele>
  <time>2026-09-01T01:14:39Z</time>
  <course>228.99</course>
  <speed>0.99</speed>
  <fix>3d</fix>
</trkpt>
<trkpt lat="33.8108755" lon="-118.3935009">
  <ele>-11.052</ele>
  <time>2026-09-01T01:14:39Z</time>
  <course>230.2</course>
  <speed>0.9730878685915265</speed>
  <fix>3d</fix>
</trkpt>
<trkpt lat="33.8108767" lon="-118.3934989">
  <ele>-10.86</ele>
  <time>2026-09-01T01:14:39Z</time>
  <course>228.99</course>
  <speed>0.99</speed>
  <fix>3d</fix>
</trkpt>
<trkpt lat="33.8108749" lon="-118.3935017">
  <ele>-11.028</ele>
  <time>2026-09-01T01:14:39Z</time>
  <course>230.22</course>
  <speed>0.9730878685915265</speed>
  <fix>3d</fix>
</trkpt>
<trkpt lat="33.8108755" lon="-118.3935006">
  <ele>-10.82</ele>
  <time>2026-09-01T01:14:39Z</time>
  <course>229.02</course>
  <speed>0.99</speed>
  <fix>3d</fix>
</trkpt>
<trkpt lat="33.8108743" lon="-118.3935025">
  <ele>-11.004</ele>
  <time>2026-09-01T01:14:39Z</time>
  <course>230.22</course>
  <speed>0.9730878685915265</speed>
  <fix>3d</fix>
</trkpt>
<trkpt lat="33.8108755" lon="-118.3935006">
  <ele>-10.82</ele>
  <time>2026-09-01T01:14:39Z</time>
  <course>229.02</course>
  <speed>0.99</speed>
  <fix>3d</fix>
</trkpt>
<trkpt lat="33.8108737" lon="-118.3935034">
  <ele>-10.981</ele>
  <time>2026-09-01T01:14:39Z</time>
  <course>230.22</course>
  <speed>0.9730878685915265</speed>
  <fix>3d</fix>
</trkpt>
<trkpt lat="33.8108743" lon="-118.3935022">
  <ele>-10.77</ele>
  <time>2026-09-01T01:14:39Z</time>
  <course>229.0</course>
  <speed>0.99</speed>
  <fix>3d</fix>
</trkpt>
<trkpt lat="33.8108732" lon="-118.3935042">
  <ele>-10.957</ele>
  <time>2026-09-01T01:14:39Z</time>
  <course>230.21</course>
  <speed>0.9730878685915265</speed>
  <fix>3d</fix>
</trkpt>
<trkpt lat="33.8108743" lon="-118.3935022">
  <ele>-10.77</ele>
  <time>2026-09-01T01:14:39Z</time>
  <course>229.0</course>
  <speed>0.99</speed>
  <fix>3d</fix>
</trkpt>
<trkpt lat="33.8108726" lon="-118.393505">
  <ele>-10.932</ele>
  <time>2026-09-01T01:14:39Z</time>
  <course>230.22</course>
  <speed>0.9730878685915265</speed>
  <fix>3d</fix>
</trkpt>
<trkpt lat="33.8108731" lon="-118.3935038">
  <ele>-10.72</ele>
  <time>2026-09-01T01:14:39Z</time>
  <course>228.99</course>
  <speed>0.99</speed>
  <fix>3d</fix>
</trkpt>
<trkpt lat="33.810872" lon="-118.3935058">
  <ele>-10.907</ele>
  <time>2026-09-01T01:14:39Z</time>
  <course>230.24</course>
  <speed>0.9730878685915265</speed>
  <fix>3d</fix>
</trkpt>
<trkpt lat="33.8108731" lon="-118.3935038">
  <ele>-10.72</ele>
  <time>2026-09-01T01:14:39Z</time>
  <course>228.99</course>
  <speed>0.99</speed>
  <fix>3d</fix>
</trkpt>
<trkpt lat="33.8108714" lon="-118.3935066">
  <ele>-10.882</ele>
  <time>2026-09-01T01:14:39Z</time>
  <course>230.26</course>
  <speed>0.9730878685915265</speed>
  <fix>3d</fix>
</trkpt>
<trkpt lat="33.8108719" lon="-118.3935055">
  <ele>-10.67</ele>
  <time>2026-09-01T01:14:39Z</time>
  <course>229.02</course>
  <speed>0.99</speed>
  <fix>3d</fix>
</trkpt>
<trkpt lat="33.8108708" lon="-118.3935074">
  <ele>-10.857</ele>
  <time>2026-09-01T01:14:39Z</time>
  <course>230.29</course>
  <speed>0.9730878685915265</speed>
  <fix>3d</fix>
</trkpt>
<trkpt lat="33.8108719" lon="-118.3935055">
  <ele>-10.67</ele>
  <time>2026-09-01T01:14:39Z</time>
  <course>229.02</course>
  <speed>0.99</speed>
  <fix>3d</fix>
</trkpt>
<trkpt lat="33.8108702" lon="-118.3935083">
  <ele>-10.83</ele>
  <time>2026-09-01T01:14:39Z</time>
  <course>230.32</course>
  <speed>0.9730878685915265</speed>
  <fix>3d</fix>
</trkpt>
<trkpt lat="33.8108707" lon="-118.3935071">
  <ele>-10.62</ele>
  <time>2026-09-01T01:14:39Z</time>
  <course>229.07</course>
  <speed>0.99</speed>
  <fix>3d</fix>
</trkpt>
<trkpt lat="33.8108696" lon="-118.3935091">
  <ele>-10.802</ele>
  <time>2026-09-01T01:14:39Z</time>
  <course>230.35</course>
  <speed>0.9730878685915265</speed>
  <fix>3d</fix>
</trkpt>
<trkpt lat="33.8108707" lon="-118.3935071">
  <ele>-10.62</ele>
  <time>2026-09-01T01:14:39Z</time>
  <course>229.07</course>
  <speed>0.99</speed>
  <fix>3d</fix>
</trkpt>
<trkpt lat="33.810869" lon="-118.3935099">
  <ele>-10.776</ele>
  <time>2026-09-01T01:14:39Z</time>
  <course>230.39</course>
  <speed>0.9730878685915265</speed>
  <fix>3d</fix>
</trkpt>
<trkpt lat="33.8108695" lon="-118.3935087">
  <ele>-10.56</ele>
  <time>2026-09-01T01:14:39Z</time>
  <course>229.12</course>
  <speed>0.99</speed>
  <fix>3d</fix>
</trkpt>
<trkpt lat="33.8108684" lon="-118.3935107">
  <ele>-10.752</ele>
  <time>2026-09-01T01:14:39Z</time>
  <course>230.43</course>
  <speed>0.9730878685915265</speed>
  <fix>3d</fix>
</trkpt>
<trkpt lat="33.8108695" lon="-118.3935087">
  <ele>-10.56</ele>
  <time>2026-09-01T01:14:39Z</time>
  <course>229.12</course>
  <speed>0.99</speed>
  <fix>3d</fix>
</trkpt>
<trkpt lat="33.8108678" lon="-118.3935115">
  <ele>-10.727</ele>
  <time>2026-09-01T01:14:39Z</time>
  <course>230.47</course>
  <speed>0.9730878685915265</speed>
  <fix>3d</fix>
</trkpt>
<trkpt lat="33.8108684" lon="-118.3935104">
  <ele>-10.51</ele>
  <time>2026-09-01T01:14:39Z</time>
  <course>229.19</course>
  <speed>0.99</speed>
  <fix>3d</fix>
</trkpt>
<trkpt lat="33.8108672" lon="-118.3935123">
  <ele>-10.703</ele>
  <time>2026-09-01T01:14:39Z</time>
  <course>230.51</course>
  <speed>0.9730878685915265</speed>
  <fix>3d</fix>
</trkpt>
<trkpt lat="33.8108684" lon="-118.3935104">
  <ele>-10.51</ele>
  <time>2026-09-01T01:14:39Z</time>
  <course>229.19</course>
  <speed>0.99</speed>
  <fix>3d</fix>
</trkpt>
<trkpt lat="33.8108667" lon="-118.3935132">
  <ele>-10.678</ele>
  <time>2026-09-01T01:14:39Z</time>
  <course>230.52</course>
  <speed>0.9730878685915265</speed>
  <fix>3d</fix>
</trkpt>
<trkpt lat="33.8108673" lon="-118.3935119">
  <ele>-10.46</ele>
  <time>2026-09-01T01:14:39Z</time>
  <course>229.21</course>
  <speed>0.99</speed>
  <fix>3d</fix>
</trkpt>
<trkpt lat="33.8108661" lon="-118.393514">
  <ele>-10.653</ele>
  <time>2026-09-01T01:14:39Z</time>
  <course>230.53</course>
  <speed>0.9730878685915265</speed>
  <fix>3d</fix>
</trkpt>
<trkpt lat="33.8108673" lon="-118.3935119">
  <ele>-10.46</ele>
  <time>2026-09-01T01:14:39Z</time>
  <course>229.21</course>
  <speed>0.99</speed>
  <fix>3d</fix>
</trkpt>
<trkpt lat="33.8108655" lon="-118.3935148">
  <ele>-10.628</ele>
  <time>2026-09-01T01:14:39Z</time>
  <course>230.52</course>
  <speed>0.9730878685915265</speed>
  <fix>3d</fix>
</trkpt>
<trkpt lat="33.8108661" lon="-118.3935136">
  <ele>-10.42</ele>
  <time>2026-09-01T01:14:39Z</time>
  <course>229.19</course>
  <speed>0.99</speed>
  <fix>3d</fix>
</trkpt>
<trkpt lat="33.8108649" lon="-118.3935156">
  <ele>-10.604</ele>
  <time>2026-09-01T01:14:39Z</time>
  <course>230.5</course>
  <speed>0.9730878685915265</speed>
  <fix>3d</fix>
</trkpt>
<trkpt lat="33.8108661" lon="-118.3935136">
  <ele>-10.42</ele>
  <time>2026-09-01T01:14:39Z</time>
  <course>229.19</course>
  <speed>0.99</speed>
  <fix>3d</fix>
</trkpt>
<trkpt lat="33.8108643" lon="-118.3935164">
  <ele>-10.579</ele>
  <time>2026-09-01T01:14:39Z</time>
  <course>230.49</course>
  <speed>0.9730878685915265</speed>
  <fix>3d</fix>
</trkpt>
<trkpt lat="33.8108649" lon="-118.3935152">
  <ele>-10.37</ele>
  <time>2026-09-01T01:14:39Z</time>
  <course>229.17</course>
  <speed>0.99</speed>
  <fix>3d</fix>
</trkpt>
<trkpt lat="33.8108637" lon="-118.3935172">
  <ele>-10.555</ele>
  <time>2026-09-01T01:14:39Z</time>
  <course>230.47</course>
  <speed>0.9730878685915265</speed>
  <fix>3d</fix>
</trkpt>
<trkpt lat="33.8108649" lon="-118.3935152">
  <ele>-10.37</ele>
  <time>2026-09-01T01:14:39Z</time>
  <course>229.17</course>
  <speed>0.99</speed>
  <fix>3d</fix>
</trkpt>
<trkpt lat="33.8108631" lon="-118.393518">
  <ele>-10.531</ele>
  <time>2026-09-01T01:14:39Z</time>
  <course>230.46</course>
  <speed>0.9730878685915265</speed>
  <fix>3d</fix>
</trkpt>
<trkpt lat="33.8108638" lon="-118.3935169">
  <ele>-10.33</ele>
  <time>2026-09-01T01:14:39Z</time>
  <course>229.14</course>
  <speed>0.99</speed>
  <fix>3d</fix>
</trkpt>
<trkpt lat="33.8108626" lon="-118.3935189">
  <ele>-10.508</ele>
  <time>2026-09-01T01:14:39Z</time>
  <course>230.45</course>
  <speed>0.9730878685915265</speed>
  <fix>3d</fix>
</trkpt>
<trkpt lat="33.8108638" lon="-118.3935169">
  <ele>-10.33</ele>
  <time>2026-09-01T01:14:39Z</time>
  <course>229.14</course>
  <speed>0.99</speed>
  <fix>3d</fix>
</trkpt>
<trkpt lat="33.810862" lon="-118.3935197">
  <ele>-10.484</ele>
  <time>2026-09-01T01:14:39Z</time>
  <course>230.42</course>
  <speed>0.9730878685915265</speed>
  <fix>3d</fix>
</trkpt>
<trkpt lat="33.8108626" lon="-118.3935185">
  <ele>-10.28</ele>
  <time>2026-09-01T01:14:39Z</time>
  <course>229.09</course>
  <speed>0.99</speed>
  <fix>3d</fix>
</trkpt>
<trkpt lat="33.8108614" lon="-118.3935205">
  <ele>-10.46</ele>
  <time>2026-09-01T01:14:39Z</time>
  <course>230.38</course>
  <speed>0.9730878685915265</speed>
  <fix>3d</fix>
</trkpt>
<trkpt lat="33.8108626" lon="-118.3935185">
  <ele>-10.28</ele>
  <time>2026-09-01T01:14:39Z</time>
  <course>229.09</course>
  <speed>0.99</speed>
  <fix>3d</fix>
</trkpt>
<trkpt lat="33.8108608" lon="-118.3935213">
  <ele>-10.434</ele>
  <time>2026-09-01T01:14:39Z</time>
  <course>230.35</course>
  <speed>0.9730878685915265</speed>
  <fix>3d</fix>
</trkpt>
<trkpt lat="33.8108614" lon="-118.3935201">
  <ele>-10.23</ele>
  <time>2026-09-01T01:14:39Z</time>
  <course>229.03</course>
  <speed>1.0</speed>
  <fix>3d</fix>
</trkpt>
<trkpt lat="33.8108602" lon="-118.3935221">
  <ele>-10.41</ele>
  <time>2026-09-01T01:14:39Z</time>
  <course>230.33</course>
  <speed>0.9730878685915265</speed>
  <fix>3d</fix>
</trkpt>
<trkpt lat="33.8108614" lon="-118.3935201">
  <ele>-10.23</ele>
  <time>2026-09-01T01:14:39Z</time>
  <course>229.03</course>
  <speed>1.0</speed>
  <fix>3d</fix>
</trkpt>
<trkpt lat="33.8108596" lon="-118.3935229">
  <ele>-10.386</ele>
  <time>2026-09-01T01:14:39Z</time>
  <course>230.32</course>
  <speed>0.9730878685915265</speed>
  <fix>3d</fix>
</trkpt>
<trkpt lat="33.8108602" lon="-118.3935218">
  <ele>-10.19</ele>
  <time>2026-09-01T01:14:39Z</time>
  <course>229.02</course>
  <speed>1.0</speed>
  <fix>3d</fix>
</trkpt>
<trkpt lat="33.810859" lon="-118.3935238">
  <ele>-10.362</ele>
  <time>2026-09-01T01:14:39Z</time>
  <course>230.32</course>
  <speed>0.9730878685915265</speed>
  <fix>3d</fix>
</trkpt>
<trkpt lat="33.8108602" lon="-118.3935218">
  <ele>-10.19</ele>
  <time>2026-09-01T01:14:39Z</time>
  <course>229.02</course>
  <speed>1.0</speed>
  <fix>3d</fix>
</trkpt>
<trkpt lat="33.8108584" lon="-118.3935246">
  <ele>-10.338</ele>
  <time>2026-09-01T01:14:39Z</time>
  <course>230.32</course>
  <speed>0.9730878685915265</speed>
  <fix>3d</fix>
</trkpt>
<trkpt lat="33.8108591" lon="-118.3935234">
  <ele>-10.14</ele>
  <time>2026-09-01T01:14:39Z</time>
  <course>229.04</course>
  <speed>1.0</speed>
  <fix>3d</fix>
</trkpt>
<trkpt lat="33.8108579" lon="-118.3935254">
  <ele>-10.313</ele>
  <time>2026-09-01T01:14:39Z</time>
  <course>230.31</course>
  <speed>0.9730878685915265</speed>
  <fix>3d</fix>
</trkpt>
<trkpt lat="33.8108591" lon="-118.3935234">
  <ele>-10.14</ele>
  <time>2026-09-01T01:14:39Z</time>
  <course>229.04</course>
  <speed>1.0</speed>
  <fix>3d</fix>
</trkpt>
<trkpt lat="33.8108573" lon="-118.3935262">
  <ele>-10.288</ele>
  <time>2026-09-01T01:14:39Z</time>
  <course>230.3</course>
  <speed>0.9730878685915265</speed>
  <fix>3d</fix>
</trkpt>
<trkpt lat="33.8108579" lon="-118.393525">
  <ele>-10.09</ele>
  <time>2026-09-01T01:14:39Z</time>
  <course>229.04</course>
  <speed>1.0</speed>
  <fix>3d</fix>
</trkpt>
<trkpt lat="33.8108567" lon="-118.393527">
  <ele>-10.263</ele>
  <time>2026-09-01T01:14:39Z</time>
  <course>230.28</course>
  <speed>0.9730878685915265</speed>
  <fix>3d</fix>
</trkpt>
<trkpt lat="33.8108579" lon="-118.393525">
  <ele>-10.09</ele>
  <time>2026-09-01T01:14:39Z</time>
  <course>229.04</course>
  <speed>1.0</speed>
  <fix>3d</fix>
</trkpt>
<trkpt lat="33.8108561" lon="-118.3935279">
  <ele>-10.238</ele>
  <time>2026-09-01T01:14:40Z</time>
  <course>230.27</course>
  <speed>0.9730878685915265</speed>
  <fix>3d</fix>
</trkpt>
<trkpt lat="33.8108566" lon="-118.3935267">
  <ele>-10.04</ele>
  <time>2026-09-01T01:14:40Z</time>
  <course>229.03</course>
  <speed>1.0</speed>
  <fix>3d</fix>
</trkpt>
<trkpt lat="33.8108555" lon="-118.3935287">
  <ele>-10.213</ele>
  <time>2026-09-01T01:14:40Z</time>
  <course>230.27</course>
  <speed>0.9730878685915265</speed>
  <fix>3d</fix>
</trkpt>
<trkpt lat="33.8108566" lon="-118.3935267">
  <ele>-10.04</ele>
  <time>2026-09-01T01:14:40Z</time>
  <course>229.03</course>
  <speed>1.0</speed>
  <fix>3d</fix>
</trkpt>
<trkpt lat="33.8108549" lon="-118.3935295">
  <ele>-10.188</ele>
  <time>2026-09-01T01:14:40Z</time>
  <course>230.3</course>
  <speed>0.9730878685915265</speed>
  <fix>3d</fix>
</trkpt>
<trkpt lat="33.8108554" lon="-118.3935283">
  <ele>-9.99</ele>
  <time>2026-09-01T01:14:40Z</time>
  <course>229.06</course>
  <speed>1.0</speed>
  <fix>3d</fix>
</trkpt>
<trkpt lat="33.8108543" lon="-118.3935303">
  <ele>-10.163</ele>
  <time>2026-09-01T01:14:40Z</time>
  <course>230.33</course>
  <speed>0.9730878685915265</speed>
  <fix>3d</fix>
</trkpt>
<trkpt lat="33.8108554" lon="-118.3935283">
  <ele>-9.99</ele>
  <time>2026-09-01T01:14:40Z</time>
  <course>229.06</course>
  <speed>1.0</speed>
  <fix>3d</fix>
</trkpt>
<trkpt lat="33.8108537" lon="-118.3935311">
  <ele>-10.138</ele>
  <time>2026-09-01T01:14:40Z</time>
  <course>230.37</course>
  <speed>0.9730878685915265</speed>
  <fix>3d</fix>
</trkpt>
<trkpt lat="33.8108543" lon="-118.39353">
  <ele>-9.95</ele>
  <time>2026-09-01T01:14:40Z</time>
  <course>229.14</course>
  <speed>0.99</speed>
  <fix>3d</fix>
</trkpt>
<trkpt lat="33.8108531" lon="-118.3935319">
  <ele>-10.112</ele>
  <time>2026-09-01T01:14:40Z</time>
  <course>230.41</course>
  <speed>0.9730878685915265</speed>
  <fix>3d</fix>
</trkpt>
<trkpt lat="33.8108543" lon="-118.39353">
  <ele>-9.95</ele>
  <time>2026-09-01T01:14:40Z</time>
  <course>229.14</course>
  <speed>0.99</speed>
  <fix>3d</fix>
</trkpt>
<trkpt lat="33.8108525" lon="-118.3935328">
  <ele>-10.086</ele>
  <time>2026-09-01T01:14:40Z</time>
  <course>230.44</course>
  <speed>0.9730878685915265</speed>
  <fix>3d</fix>
</trkpt>
<trkpt lat="33.8108531" lon="-118.3935316">
  <ele>-9.9</ele>
  <time>2026-09-01T01:14:40Z</time>
  <course>229.2</course>
  <speed>0.99</speed>
  <fix>3d</fix>
</trkpt>
<trkpt lat="33.810852" lon="-118.3935336">
  <ele>-10.062</ele>
  <time>2026-09-01T01:14:40Z</time>
  <course>230.44</course>
  <speed>0.9730878685915265</speed>
  <fix>3d</fix>
</trkpt>
<trkpt lat="33.8108531" lon="-118.3935316">
  <ele>-9.9</ele>
  <time>2026-09-01T01:14:40Z</time>
  <course>229.2</course>
  <speed>0.99</speed>
  <fix>3d</fix>
</trkpt>
<trkpt lat="33.8108514" lon="-118.3935344">
  <ele>-10.039</ele>
  <time>2026-09-01T01:14:40Z</time>
  <course>230.45</course>
  <speed>0.9730878685915265</speed>
  <fix>3d</fix>
</trkpt>
<trkpt lat="33.8108519" lon="-118.3935332">
  <ele>-9.85</ele>
  <time>2026-09-01T01:14:40Z</time>
  <course>229.19</course>
  <speed>0.99</speed>
  <fix>3d</fix>
</trkpt>
<trkpt lat="33.8108508" lon="-118.3935352">
  <ele>-10.017</ele>
  <time>2026-09-01T01:14:40Z</time>
  <course>230.46</course>
  <speed>0.9730878685915265</speed>
  <fix>3d</fix>
</trkpt>
<trkpt lat="33.8108519" lon="-118.3935332">
  <ele>-9.85</ele>
  <time>2026-09-01T01:14:40Z</time>
  <course>229.19</course>
  <speed>0.99</speed>
  <fix>3d</fix>
</trkpt>
<trkpt lat="33.8108502" lon="-118.393536">
  <ele>-9.994</ele>
  <time>2026-09-01T01:14:40Z</time>
  <course>230.47</course>
  <speed>0.9730878685915265</speed>
  <fix>3d</fix>
</trkpt>
<trkpt lat="33.8108508" lon="-118.3935349">
  <ele>-9.8</ele>
  <time>2026-09-01T01:14:40Z</time>
  <course>229.2</course>
  <speed>0.99</speed>
  <fix>3d</fix>
</trkpt>
<trkpt lat="33.8108496" lon="-118.3935369">
  <ele>-9.971</ele>
  <time>2026-09-01T01:14:40Z</time>
  <course>230.48</course>
  <speed>0.9730878685915265</speed>
  <fix>3d</fix>
</trkpt>
<trkpt lat="33.8108508" lon="-118.3935349">
  <ele>-9.8</ele>
  <time>2026-09-01T01:14:40Z</time>
  <course>229.2</course>
  <speed>0.99</speed>
  <fix>3d</fix>
</trkpt>
<trkpt lat="33.810849" lon="-118.3935377">
  <ele>-9.946</ele>
  <time>2026-09-01T01:14:40Z</time>
  <course>230.47</course>
  <speed>0.9730878685915265</speed>
  <fix>3d</fix>
</trkpt>
<trkpt lat="33.8108497" lon="-118.3935365">
  <ele>-9.76</ele>
  <time>2026-09-01T01:14:40Z</time>
  <course>229.2</course>
  <speed>0.99</speed>
  <fix>3d</fix>
</trkpt>
<trkpt lat="33.8108484" lon="-118.3935385">
  <ele>-9.92</ele>
  <time>2026-09-01T01:14:40Z</time>
  <course>230.44</course>
  <speed>0.9730878685915265</speed>
  <fix>3d</fix>
</trkpt>
<trkpt lat="33.8108497" lon="-118.3935365">
  <ele>-9.76</ele>
  <time>2026-09-01T01:14:40Z</time>
  <course>229.2</course>
  <speed>0.99</speed>
  <fix>3d</fix>
</trkpt>
<trkpt lat="33.8108479" lon="-118.3935393">
  <ele>-9.895</ele>
  <time>2026-09-01T01:14:40Z</time>
  <course>230.4</course>
  <speed>0.9730878685915265</speed>
  <fix>3d</fix>
</trkpt>
<trkpt lat="33.8108485" lon="-118.3935381">
  <ele>-9.71</ele>
  <time>2026-09-01T01:14:40Z</time>
  <course>229.13</course>
  <speed>0.99</speed>
  <fix>3d</fix>
</trkpt>
<trkpt lat="33.8108473" lon="-118.3935401">
  <ele>-9.87</ele>
  <time>2026-09-01T01:14:40Z</time>
  <course>230.35</course>
  <speed>0.9730878685915265</speed>
  <fix>3d</fix>
</trkpt>
<trkpt lat="33.8108485" lon="-118.3935381">
  <ele>-9.71</ele>
  <time>2026-09-01T01:14:40Z</time>
  <course>229.13</course>
  <speed>0.99</speed>
  <fix>3d</fix>
</trkpt>
<trkpt lat="33.8108467" lon="-118.3935409">
  <ele>-9.846</ele>
  <time>2026-09-01T01:14:40Z</time>
  <course>230.3</course>
  <speed>0.9730878685915265</speed>
  <fix>3d</fix>
</trkpt>
<trkpt lat="33.8108473" lon="-118.3935397">
  <ele>-9.66</ele>
  <time>2026-09-01T01:14:40Z</time>
  <course>229.05</course>
  <speed>0.99</speed>
  <fix>3d</fix>
</trkpt>
<trkpt lat="33.8108461" lon="-118.3935417">
  <ele>-9.822</ele>
  <time>2026-09-01T01:14:40Z</time>
  <course>230.28</course>
  <speed>0.9730878685915265</speed>
  <fix>3d</fix>
</trkpt>
<trkpt lat="33.8108473" lon="-118.3935397">
  <ele>-9.66</ele>
  <time>2026-09-01T01:14:40Z</time>
  <course>229.05</course>
  <speed>0.99</speed>
  <fix>3d</fix>
</trkpt>
<trkpt lat="33.8108455" lon="-118.3935426">
  <ele>-9.798</ele>
  <time>2026-09-01T01:14:40Z</time>
  <course>230.26</course>
  <speed>0.9730878685915265</speed>
  <fix>3d</fix>
</trkpt>
<trkpt lat="33.8108461" lon="-118.3935414">
  <ele>-9.62</ele>
  <time>2026-09-01T01:14:40Z</time>
  <course>229.02</course>
  <speed>1.0</speed>
  <fix>3d</fix>
</trkpt>
<trkpt lat="33.8108449" lon="-118.3935434">
  <ele>-9.772</ele>
  <time>2026-09-01T01:14:40Z</time>
  <course>230.25</course>
  <speed>0.9730878685915265</speed>
  <fix>3d</fix>
</trkpt>
<trkpt lat="33.8108461" lon="-118.3935414">
  <ele>-9.62</ele>
  <time>2026-09-01T01:14:40Z</time>
  <course>229.02</course>
  <speed>1.0</speed>
  <fix>3d</fix>
</trkpt>
<trkpt lat="33.8108443" lon="-118.3935442">
  <ele>-9.747</ele>
  <time>2026-09-01T01:14:40Z</time>
  <course>230.25</course>
  <speed>0.9730878685915265</speed>
  <fix>3d</fix>
</trkpt>
<trkpt lat="33.810845" lon="-118.393543">
  <ele>-9.57</ele>
  <time>2026-09-01T01:14:40Z</time>
  <course>229.03</course>
  <speed>1.0</speed>
  <fix>3d</fix>
</trkpt>
<trkpt lat="33.8108437" lon="-118.393545">
  <ele>-9.722</ele>
  <time>2026-09-01T01:14:40Z</time>
  <course>230.24</course>
  <speed>0.9730878685915265</speed>
  <fix>3d</fix>
</trkpt>
<trkpt lat="33.810845" lon="-118.393543">
  <ele>-9.57</ele>
  <time>2026-09-01T01:14:40Z</time>
  <course>229.03</course>
  <speed>1.0</speed>
  <fix>3d</fix>
</trkpt>
<trkpt lat="33.8108432" lon="-118.3935458">
  <ele>-9.698</ele>
  <time>2026-09-01T01:14:40Z</time>
  <course>230.23</course>
  <speed>0.9730878685915265</speed>
  <fix>3d</fix>
</trkpt>
<trkpt lat="33.8108438" lon="-118.3935446">
  <ele>-9.52</ele>
  <time>2026-09-01T01:14:40Z</time>
  <course>229.01</course>
  <speed>1.0</speed>
  <fix>3d</fix>
</trkpt>
<trkpt lat="33.8108426" lon="-118.3935466">
  <ele>-9.674</ele>
  <time>2026-09-01T01:14:40Z</time>
  <course>230.21</course>
  <speed>0.9730878685915265</speed>
  <fix>3d</fix>
</trkpt>
<trkpt lat="33.8108438" lon="-118.3935446">
  <ele>-9.52</ele>
  <time>2026-09-01T01:14:40Z</time>
  <course>229.01</course>
  <speed>1.0</speed>
  <fix>3d</fix>
</trkpt>
<trkpt lat="33.810842" lon="-118.3935475">
  <ele>-9.651</ele>
  <time>2026-09-01T01:14:40Z</time>
  <course>230.2</course>
  <speed>0.9730878685915265</speed>
  <fix>3d</fix>
</trkpt>
<trkpt lat="33.8108426" lon="-118.3935463">
  <ele>-9.47</ele>
  <time>2026-09-01T01:14:40Z</time>
  <course>229.0</course>
  <speed>1.0</speed>
  <fix>3d</fix>
</trkpt>
<trkpt lat="33.8108414" lon="-118.3935483">
  <ele>-9.626</ele>
  <time>2026-09-01T01:14:40Z</time>
  <course>230.19</course>
  <speed>0.9730878685915265</speed>
  <fix>3d</fix>
</trkpt>
<trkpt lat="33.8108426" lon="-118.3935463">
  <ele>-9.47</ele>
  <time>2026-09-01T01:14:40Z</time>
  <course>229.0</course>
  <speed>1.0</speed>
  <fix>3d</fix>
</trkpt>
<trkpt lat="33.8108408" lon="-118.3935491">
  <ele>-9.602</ele>
  <time>2026-09-01T01:14:40Z</time>
  <course>230.18</course>
  <speed>0.9730878685915265</speed>
  <fix>3d</fix>
</trkpt>
<trkpt lat="33.8108414" lon="-118.3935478">
  <ele>-9.42</ele>
  <time>2026-09-01T01:14:40Z</time>
  <course>228.99</course>
  <speed>1.0</speed>
  <fix>3d</fix>
</trkpt>
<trkpt lat="33.8108402" lon="-118.3935499">
  <ele>-9.576</ele>
  <time>2026-09-01T01:14:40Z</time>
  <course>230.18</course>
  <speed>0.9730878685915265</speed>
  <fix>3d</fix>
</trkpt>
<trkpt lat="33.8108414" lon="-118.3935478">
  <ele>-9.42</ele>
  <time>2026-09-01T01:14:40Z</time>
  <course>228.99</course>
  <speed>1.0</speed>
  <fix>3d</fix>
</trkpt>
<trkpt lat="33.8108396" lon="-118.3935507">
  <ele>-9.551</ele>
  <time>2026-09-01T01:14:40Z</time>
  <course>230.21</course>
  <speed>0.9730878685915265</speed>
  <fix>3d</fix>
</trkpt>
<trkpt lat="33.8108402" lon="-118.3935495">
  <ele>-9.37</ele>
  <time>2026-09-01T01:14:40Z</time>
  <course>229.01</course>
  <speed>1.0</speed>
  <fix>3d</fix>
</trkpt>
<trkpt lat="33.810839" lon="-118.3935515">
  <ele>-9.525</ele>
  <time>2026-09-01T01:14:40Z</time>
  <course>230.24</course>
  <speed>0.9730878685915265</speed>
  <fix>3d</fix>
</trkpt>
<trkpt lat="33.8108402" lon="-118.3935495">
  <ele>-9.37</ele>
  <time>2026-09-01T01:14:40Z</time>
  <course>229.01</course>
  <speed>1.0</speed>
  <fix>3d</fix>
</trkpt>
<trkpt lat="33.8108385" lon="-118.3935523">
  <ele>-9.5</ele>
  <time>2026-09-01T01:14:40Z</time>
  <course>230.27</course>
  <speed>0.9730878685915265</speed>
  <fix>3d</fix>
</trkpt>
<trkpt lat="33.810839" lon="-118.3935512">
  <ele>-9.32</ele>
  <time>2026-09-01T01:14:40Z</time>
  <course>229.06</course>
  <speed>1.0</speed>
  <fix>3d</fix>
</trkpt>
<trkpt lat="33.8108379" lon="-118.3935532">
  <ele>-9.476</ele>
  <time>2026-09-01T01:14:40Z</time>
  <course>230.3</course>
  <speed>0.9730878685915265</speed>
  <fix>3d</fix>
</trkpt>
<trkpt lat="33.810839" lon="-118.3935512">
  <ele>-9.32</ele>
  <time>2026-09-01T01:14:40Z</time>
  <course>229.06</course>
  <speed>1.0</speed>
  <fix>3d</fix>
</trkpt>
<trkpt lat="33.8108373" lon="-118.393554">
  <ele>-9.451</ele>
  <time>2026-09-01T01:14:40Z</time>
  <course>230.33</course>
  <speed>0.9730878685915265</speed>
  <fix>3d</fix>
</trkpt>
<trkpt lat="33.8108378" lon="-118.3935528">
  <ele>-9.27</ele>
  <time>2026-09-01T01:14:40Z</time>
  <course>229.09</course>
  <speed>1.0</speed>
  <fix>3d</fix>
</trkpt>
<trkpt lat="33.8108367" lon="-118.3935548">
  <ele>-9.426</ele>
  <time>2026-09-01T01:14:40Z</time>
  <course>230.36</course>
  <speed>0.9730878685915265</speed>
  <fix>3d</fix>
</trkpt>
<trkpt lat="33.8108378" lon="-118.3935528">
  <ele>-9.27</ele>
  <time>2026-09-01T01:14:40Z</time>
  <course>229.09</course>
  <speed>1.0</speed>
  <fix>3d</fix>
</trkpt>
<trkpt lat="33.8108361" lon="-118.3935556">
  <ele>-9.401</ele>
  <time>2026-09-01T01:14:40Z</time>
  <course>230.39</course>
  <speed>0.9730878685915265</speed>
  <fix>3d</fix>
</trkpt>
<trkpt lat="33.8108366" lon="-118.3935545">
  <ele>-9.22</ele>
  <time>2026-09-01T01:14:40Z</time>
  <course>229.12</course>
  <speed>1.0</speed>
  <fix>3d</fix>
</trkpt>
<trkpt lat="33.8108355" lon="-118.3935564">
  <ele>-9.375</ele>
  <time>2026-09-01T01:14:40Z</time>
  <course>230.42</course>
  <speed>0.9730878685915265</speed>
  <fix>3d</fix>
</trkpt>
<trkpt lat="33.8108366" lon="-118.3935545">
  <ele>-9.22</ele>
  <time>2026-09-01T01:14:40Z</time>
  <course>229.12</course>
  <speed>1.0</speed>
  <fix>3d</fix>
</trkpt>
<trkpt lat="33.8108349" lon="-118.3935572">
  <ele>-9.349</ele>
  <time>2026-09-01T01:14:40Z</time>
  <course>230.45</course>
  <speed>0.9730878685915265</speed>
  <fix>3d</fix>
</trkpt>
<trkpt lat="33.8108354" lon="-118.3935561">
  <ele>-9.18</ele>
  <time>2026-09-01T01:14:40Z</time>
  <course>229.17</course>
  <speed>1.0</speed>
  <fix>3d</fix>
</trkpt>
<trkpt lat="33.8108343" lon="-118.3935581">
  <ele>-9.325</ele>
  <time>2026-09-01T01:14:40Z</time>
  <course>230.47</course>
  <speed>0.9730878685915265</speed>
  <fix>3d</fix>
</trkpt>
<trkpt lat="33.8108354" lon="-118.3935561">
  <ele>-9.18</ele>
  <time>2026-09-01T01:14:40Z</time>
  <course>229.17</course>
  <speed>1.0</speed>
  <fix>3d</fix>
</trkpt>
<trkpt lat="33.8108337" lon="-118.3935589">
  <ele>-9.3</ele>
  <time>2026-09-01T01:14:40Z</time>
  <course>230.5</course>
  <speed>0.9730878685915265</speed>
  <fix>3d</fix>
</trkpt>
<trkpt lat="33.8108343" lon="-118.3935578">
  <ele>-9.13</ele>
  <time>2026-09-01T01:14:40Z</time>
  <course>229.21</course>
  <speed>1.0</speed>
  <fix>3d</fix>
</trkpt>
<trkpt lat="33.8108331" lon="-118.3935597">
  <ele>-9.276</ele>
  <time>2026-09-01T01:14:40Z</time>
  <course>230.52</course>
  <speed>0.9730878685915265</speed>
  <fix>3d</fix>
</trkpt>
<trkpt lat="33.8108343" lon="-118.3935578">
  <ele>-9.13</ele>
  <time>2026-09-01T01:14:40Z</time>
  <course>229.21</course>
  <speed>1.0</speed>
  <fix>3d</fix>
</trkpt>
<trkpt lat="33.8108326" lon="-118.3935605">
  <ele>-9.252</ele>
  <time>2026-09-01T01:14:40Z</time>
  <course>230.53</course>
  <speed>0.9730878685915265</speed>
  <fix>3d</fix>
</trkpt>
<trkpt lat="33.8108332" lon="-118.3935593">
  <ele>-9.08</ele>
  <time>2026-09-01T01:14:40Z</time>
  <course>229.21</course>
  <speed>1.0</speed>
  <fix>3d</fix>
</trkpt>
<trkpt lat="33.810832" lon="-118.3935613">
  <ele>-9.229</ele>
  <time>2026-09-01T01:14:40Z</time>
  <course>230.51</course>
  <speed>0.9730878685915265</speed>
  <fix>3d</fix>
</trkpt>
<trkpt lat="33.8108332" lon="-118.3935593">
  <ele>-9.08</ele>
  <time>2026-09-01T01:14:40Z</time>
  <course>229.21</course>
  <speed>1.0</speed>
  <fix>3d</fix>
</trkpt>
<trkpt lat="33.8108314" lon="-118.3935621">
  <ele>-9.206</ele>
  <time>2026-09-01T01:14:40Z</time>
  <course>230.49</course>
  <speed>0.9730878685915265</speed>
  <fix>3d</fix>
</trkpt>
<trkpt lat="33.810832" lon="-118.393561">
  <ele>-9.04</ele>
  <time>2026-09-01T01:14:40Z</time>
  <course>229.16</course>
  <speed>1.0</speed>
  <fix>3d</fix>
</trkpt>
<trkpt lat="33.8108308" lon="-118.393563">
  <ele>-9.183</ele>
  <time>2026-09-01T01:14:40Z</time>
  <course>230.45</course>
  <speed>0.9730878685915265</speed>
  <fix>3d</fix>
</trkpt>
<trkpt lat="33.810832" lon="-118.393561">
  <ele>-9.04</ele>
  <time>2026-09-01T01:14:40Z</time>
  <course>229.16</course>
  <speed>1.0</speed>
  <fix>3d</fix>
</trkpt>
<trkpt lat="33.8108302" lon="-118.3935638">
  <ele>-9.159</ele>
  <time>2026-09-01T01:14:40Z</time>
  <course>230.43</course>
  <speed>0.9730878685915265</speed>
  <fix>3d</fix>
</trkpt>
<trkpt lat="33.8108308" lon="-118.3935627">
  <ele>-8.99</ele>
  <time>2026-09-01T01:14:40Z</time>
  <course>229.1</course>
  <speed>1.0</speed>
  <fix>3d</fix>
</trkpt>
<trkpt lat="33.8108296" lon="-118.3935646">
  <ele>-9.134</ele>
  <time>2026-09-01T01:14:40Z</time>
  <course>230.39</course>
  <speed>0.9730878685915265</speed>
  <fix>3d</fix>
</trkpt>
<trkpt lat="33.8108308" lon="-118.3935627">
  <ele>-8.99</ele>
  <time>2026-09-01T01:14:40Z</time>
  <course>229.1</course>
  <speed>1.0</speed>
  <fix>3d</fix>
</trkpt>
<trkpt lat="33.810829" lon="-118.3935654">
  <ele>-9.109</ele>
  <time>2026-09-01T01:14:40Z</time>
  <course>230.36</course>
  <speed>0.9730878685915265</speed>
  <fix>3d</fix>
</trkpt>
<trkpt lat="33.8108296" lon="-118.3935643">
  <ele>-8.94</ele>
  <time>2026-09-01T01:14:40Z</time>
  <course>229.05</course>
  <speed>1.0</speed>
  <fix>3d</fix>
</trkpt>
<trkpt lat="33.8108285" lon="-118.3935662">
  <ele>-9.084</ele>
  <time>2026-09-01T01:14:40Z</time>
  <course>230.33</course>
  <speed>0.9730878685915265</speed>
  <fix>3d</fix>
</trkpt>
<trkpt lat="33.8108296" lon="-118.3935643">
  <ele>-8.94</ele>
  <time>2026-09-01T01:14:40Z</time>
  <course>229.05</course>
  <speed>1.0</speed>
  <fix>3d</fix>
</trkpt>
<trkpt lat="33.8108279" lon="-118.3935671">
  <ele>-9.058</ele>
  <time>2026-09-01T01:14:40Z</time>
  <course>230.32</course>
  <speed>0.9730878685915265</speed>
  <fix>3d</fix>
</trkpt>
<trkpt lat="33.8108284" lon="-118.393566">
  <ele>-8.89</ele>
  <time>2026-09-01T01:14:40Z</time>
  <course>229.02</course>
  <speed>1.0</speed>
  <fix>3d</fix>
</trkpt>
<trkpt lat="33.8108273" lon="-118.3935679">
  <ele>-9.034</ele>
  <time>2026-09-01T01:14:40Z</time>
  <course>230.3</course>
  <speed>0.9730878685915265</speed>
  <fix>3d</fix>
</trkpt>
<trkpt lat="33.8108284" lon="-118.393566">
  <ele>-8.89</ele>
  <time>2026-09-01T01:14:40Z</time>
  <course>229.02</course>
  <speed>1.0</speed>
  <fix>3d</fix>
</trkpt>
<trkpt lat="33.8108267" lon="-118.3935687">
  <ele>-9.009</ele>
  <time>2026-09-01T01:14:40Z</time>
  <course>230.29</course>
  <speed>0.9730878685915265</speed>
  <fix>3d</fix>
</trkpt>
<trkpt lat="33.8108272" lon="-118.3935676">
  <ele>-8.84</ele>
  <time>2026-09-01T01:14:40Z</time>
  <course>229.0</course>
  <speed>1.0</speed>
  <fix>3d</fix>
</trkpt>
<trkpt lat="33.8108261" lon="-118.3935695">
  <ele>-8.983</ele>
  <time>2026-09-01T01:14:40Z</time>
  <course>230.29</course>
  <speed>0.9730878685915265</speed>
  <fix>3d</fix>
</trkpt>
<trkpt lat="33.8108272" lon="-118.3935676">
  <ele>-8.84</ele>
  <time>2026-09-01T01:14:40Z</time>
  <course>229.0</course>
  <speed>1.0</speed>
  <fix>3d</fix>
</trkpt>
<trkpt lat="33.8108255" lon="-118.3935703">
  <ele>-8.957</ele>
  <time>2026-09-01T01:14:40Z</time>
  <course>230.29</course>
  <speed>0.9730878685915265</speed>
  <fix>3d</fix>
</trkpt>
<trkpt lat="33.8108261" lon="-118.3935693">
  <ele>-8.79</ele>
  <time>2026-09-01T01:14:40Z</time>
  <course>229.02</course>
  <speed>1.0</speed>
  <fix>3d</fix>
</trkpt>
<trkpt lat="33.8108249" lon="-118.3935712">
  <ele>-8.932</ele>
  <time>2026-09-01T01:14:40Z</time>
  <course>230.29</course>
  <speed>0.9730878685915265</speed>
  <fix>3d</fix>
</trkpt>
<trkpt lat="33.8108261" lon="-118.3935693">
  <ele>-8.79</ele>
  <time>2026-09-01T01:14:40Z</time>
  <course>229.02</course>
  <speed>1.0</speed>
  <fix>3d</fix>
</trkpt>
<trkpt lat="33.8108243" lon="-118.393572">
  <ele>-8.907</ele>
  <time>2026-09-01T01:14:40Z</time>
  <course>230.27</course>
  <speed>0.9730878685915265</speed>
  <fix>3d</fix>
</trkpt>
<trkpt lat="33.8108249" lon="-118.3935708">
  <ele>-8.75</ele>
  <time>2026-09-01T01:14:40Z</time>
  <course>229.0</course>
  <speed>1.0</speed>
  <fix>3d</fix>
</trkpt>
<trkpt lat="33.8108237" lon="-118.3935728">
  <ele>-8.883</ele>
  <time>2026-09-01T01:14:40Z</time>
  <course>230.24</course>
  <speed>0.9730878685915265</speed>
  <fix>3d</fix>
</trkpt>
<trkpt lat="33.8108249" lon="-118.3935708">
  <ele>-8.75</ele>
  <time>2026-09-01T01:14:40Z</time>
  <course>229.0</course>
  <speed>1.0</speed>
  <fix>3d</fix>
</trkpt>
<trkpt lat="33.8108232" lon="-118.3935736">
  <ele>-8.86</ele>
  <time>2026-09-01T01:14:40Z</time>
  <course>230.23</course>
  <speed>0.9730878685915265</speed>
  <fix>3d</fix>
</trkpt>
<trkpt lat="33.8108237" lon="-118.3935725">
  <ele>-8.7</ele>
  <time>2026-09-01T01:14:40Z</time>
  <course>228.97</course>
  <speed>1.0</speed>
  <fix>3d</fix>
</trkpt>
<trkpt lat="33.8108226" lon="-118.3935744">
  <ele>-8.836</ele>
  <time>2026-09-01T01:14:40Z</time>
  <course>230.23</course>
  <speed>0.9730878685915265</speed>
  <fix>3d</fix>
</trkpt>
<trkpt lat="33.8108237" lon="-118.3935725">
  <ele>-8.7</ele>
  <time>2026-09-01T01:14:40Z</time>
  <course>228.97</course>
  <speed>1.0</speed>
  <fix>3d</fix>
</trkpt>
<trkpt lat="33.810822" lon="-118.3935753">
  <ele>-8.812</ele>
  <time>2026-09-01T01:14:40Z</time>
  <course>230.23</course>
  <speed>0.9730878685915265</speed>
  <fix>3d</fix>
</trkpt>
<trkpt lat="33.8108225" lon="-118.3935742">
  <ele>-8.65</ele>
  <time>2026-09-01T01:14:40Z</time>
  <course>228.99</course>
  <speed>1.0</speed>
  <fix>3d</fix>
</trkpt>
<trkpt lat="33.8108214" lon="-118.3935761">
  <ele>-8.788</ele>
  <time>2026-09-01T01:14:40Z</time>
  <course>230.24</course>
  <speed>0.9730878685915265</speed>
  <fix>3d</fix>
</trkpt>
<trkpt lat="33.8108225" lon="-118.3935742">
  <ele>-8.65</ele>
  <time>2026-09-01T01:14:40Z</time>
  <course>228.99</course>
  <speed>1.0</speed>
  <fix>3d</fix>
</trkpt>
<trkpt lat="33.8108208" lon="-118.3935769">
  <ele>-8.763</ele>
  <time>2026-09-01T01:14:40Z</time>
  <course>230.24</course>
  <speed>0.9730878685915265</speed>
  <fix>3d</fix>
</trkpt>
<trkpt lat="33.8108213" lon="-118.3935758">
  <ele>-8.6</ele>
  <time>2026-09-01T01:14:40Z</time>
  <course>228.99</course>
  <speed>1.0</speed>
  <fix>3d</fix>
</trkpt>
<trkpt lat="33.8108202" lon="-118.3935777">
  <ele>-8.738</ele>
  <time>2026-09-01T01:14:40Z</time>
  <course>230.25</course>
  <speed>0.9730878685915265</speed>
  <fix>3d</fix>
</trkpt>
<trkpt lat="33.8108213" lon="-118.3935758">
  <ele>-8.6</ele>
  <time>2026-09-01T01:14:40Z</time>
  <course>228.99</course>
  <speed>1.0</speed>
  <fix>3d</fix>
</trkpt>
<trkpt lat="33.8108196" lon="-118.3935785">
  <ele>-8.713</ele>
  <time>2026-09-01T01:14:40Z</time>
  <course>230.25</course>
  <speed>0.9730878685915265</speed>
  <fix>3d</fix>
</trkpt>
<trkpt lat="33.8108201" lon="-118.3935774">
  <ele>-8.55</ele>
  <time>2026-09-01T01:14:40Z</time>
  <course>229.0</course>
  <speed>1.0</speed>
  <fix>3d</fix>
</trkpt>
<trkpt lat="33.810819" lon="-118.3935793">
  <ele>-8.689</ele>
  <time>2026-09-01T01:14:40Z</time>
  <course>230.27</course>
  <speed>0.9730878685915265</speed>
  <fix>3d</fix>
</trkpt>
<trkpt lat="33.8108201" lon="-118.3935774">
  <ele>-8.55</ele>
  <time>2026-09-01T01:14:40Z</time>
  <course>229.0</course>
  <speed>1.0</speed>
  <fix>3d</fix>
</trkpt>
<trkpt lat="33.8108184" lon="-118.3935802">
  <ele>-8.666</ele>
  <time>2026-09-01T01:14:40Z</time>
  <course>230.31</course>
  <speed>0.9730878685915265</speed>
  <fix>3d</fix>
</trkpt>
<trkpt lat="33.8108189" lon="-118.3935791">
  <ele>-8.51</ele>
  <time>2026-09-01T01:14:40Z</time>
  <course>229.03</course>
  <speed>1.0</speed>
  <fix>3d</fix>
</trkpt>
<trkpt lat="33.8108178" lon="-118.393581">
  <ele>-8.642</ele>
  <time>2026-09-01T01:14:40Z</time>
  <course>230.33</course>
  <speed>0.9730878685915265</speed>
  <fix>3d</fix>
</trkpt>
<trkpt lat="33.8108189" lon="-118.3935791">
  <ele>-8.51</ele>
  <time>2026-09-01T01:14:40Z</time>
  <course>229.03</course>
  <speed>1.0</speed>
  <fix>3d</fix>
</trkpt>
<trkpt lat="33.8108172" lon="-118.3935818">
  <ele>-8.617</ele>
  <time>2026-09-01T01:14:40Z</time>
  <course>230.37</course>
  <speed>0.9730878685915265</speed>
  <fix>3d</fix>
</trkpt>
<trkpt lat="33.8108177" lon="-118.3935807">
  <ele>-8.46</ele>
  <time>2026-09-01T01:14:40Z</time>
  <course>229.09</course>
  <speed>0.99</speed>
  <fix>3d</fix>
</trkpt>
<trkpt lat="33.8108167" lon="-118.3935826">
  <ele>-8.592</ele>
  <time>2026-09-01T01:14:40Z</time>
  <course>230.4</course>
  <speed>0.9730878685915265</speed>
  <fix>3d</fix>
</trkpt>
<trkpt lat="33.8108177" lon="-118.3935807">
  <ele>-8.46</ele>
  <time>2026-09-01T01:14:40Z</time>
  <course>229.09</course>
  <speed>0.99</speed>
  <fix>3d</fix>
</trkpt>
<trkpt lat="33.8108161" lon="-118.3935834">
  <ele>-8.566</ele>
  <time>2026-09-01T01:14:40Z</time>
  <course>230.44</course>
  <speed>0.9730878685915265</speed>
  <fix>3d</fix>
</trkpt>
<trkpt lat="33.8108165" lon="-118.3935823">
  <ele>-8.41</ele>
  <time>2026-09-01T01:14:40Z</time>
  <course>229.15</course>
  <speed>0.99</speed>
  <fix>3d</fix>
</trkpt>
<trkpt lat="33.8108155" lon="-118.3935843">
  <ele>-8.539</ele>
  <time>2026-09-01T01:14:40Z</time>
  <course>230.48</course>
  <speed>0.9667471230885561</speed>
  <fix>3d</fix>
</trkpt>
<trkpt lat="33.8108165" lon="-118.3935823">
  <ele>-8.41</ele>
  <time>2026-09-01T01:14:40Z</time>
  <course>229.15</course>
  <speed>0.99</speed>
  <fix>3d</fix>
</trkpt>
<trkpt lat="33.8108149" lon="-118.3935851">
  <ele>-8.514</ele>
  <time>2026-09-01T01:14:40Z</time>
  <course>230.53</course>
  <speed>0.9667471230885561</speed>
  <fix>3d</fix>
</trkpt>
<trkpt lat="33.8108154" lon="-118.393584">
  <ele>-8.36</ele>
  <time>2026-09-01T01:14:40Z</time>
  <course>229.23</course>
  <speed>0.99</speed>
  <fix>3d</fix>
</trkpt>
<trkpt lat="33.8108143" lon="-118.3935859">
  <ele>-8.49</ele>
  <time>2026-09-01T01:14:40Z</time>
  <course>230.57</course>
  <speed>0.9667471230885561</speed>
  <fix>3d</fix>
</trkpt>
<trkpt lat="33.8108154" lon="-118.393584">
  <ele>-8.36</ele>
  <time>2026-09-01T01:14:40Z</time>
  <course>229.23</course>
  <speed>0.99</speed>
  <fix>3d</fix>
</trkpt>
<trkpt lat="33.8108137" lon="-118.3935867">
  <ele>-8.467</ele>
  <time>2026-09-01T01:14:40Z</time>
  <course>230.58</course>
  <speed>0.9730878685915265</speed>
  <fix>3d</fix>
</trkpt>
<trkpt lat="33.8108142" lon="-118.3935856">
  <ele>-8.31</ele>
  <time>2026-09-01T01:14:40Z</time>
  <course>229.25</course>
  <speed>0.99</speed>
  <fix>3d</fix>
</trkpt>
<trkpt lat="33.8108131" lon="-118.3935875">
  <ele>-8.443</ele>
  <time>2026-09-01T01:14:40Z</time>
  <course>230.59</course>
  <speed>0.9667471230885561</speed>
  <fix>3d</fix>
</trkpt>
<trkpt lat="33.8108142" lon="-118.3935856">
  <ele>-8.31</ele>
  <time>2026-09-01T01:14:40Z</time>
  <course>229.25</course>
  <speed>0.99</speed>
  <fix>3d</fix>
</trkpt>
<trkpt lat="33.8108125" lon="-118.3935883">
  <ele>-8.418</ele>
  <time>2026-09-01T01:14:40Z</time>
  <course>230.59</course>
  <speed>0.9730878685915265</speed>
  <fix>3d</fix>
</trkpt>
<trkpt lat="33.8108131" lon="-118.3935872">
  <ele>-8.27</ele>
  <time>2026-09-01T01:14:40Z</time>
  <course>229.24</course>
  <speed>0.99</speed>
  <fix>3d</fix>
</trkpt>
<trkpt lat="33.8108119" lon="-118.3935892">
  <ele>-8.393</ele>
  <time>2026-09-01T01:14:40Z</time>
  <course>230.58</course>
  <speed>0.9730878685915265</speed>
  <fix>3d</fix>
</trkpt>
<trkpt lat="33.8108131" lon="-118.3935872">
  <ele>-8.27</ele>
  <time>2026-09-01T01:14:40Z</time>
  <course>229.24</course>
  <speed>0.99</speed>
  <fix>3d</fix>
</trkpt>
<trkpt lat="33.8108113" lon="-118.39359">
  <ele>-8.37</ele>
  <time>2026-09-01T01:14:40Z</time>
  <course>230.56</course>
  <speed>0.9730878685915265</speed>
  <fix>3d</fix>
</trkpt>
<trkpt lat="33.8108119" lon="-118.3935889">
  <ele>-8.22</ele>
  <time>2026-09-01T01:14:40Z</time>
  <course>229.22</course>
  <speed>0.99</speed>
  <fix>3d</fix>
</trkpt>
<trkpt lat="33.8108108" lon="-118.3935908">
  <ele>-8.345</ele>
  <time>2026-09-01T01:14:40Z</time>
  <course>230.54</course>
  <speed>0.9730878685915265</speed>
  <fix>3d</fix>
</trkpt>
<trkpt lat="33.8108119" lon="-118.3935889">
  <ele>-8.22</ele>
  <time>2026-09-01T01:14:40Z</time>
  <course>229.22</course>
  <speed>0.99</speed>
  <fix>3d</fix>
</trkpt>
<trkpt lat="33.8108102" lon="-118.3935916">
  <ele>-8.32</ele>
  <time>2026-09-01T01:14:40Z</time>
  <course>230.51</course>
  <speed>0.9730878685915265</speed>
  <fix>3d</fix>
</trkpt>
<trkpt lat="33.8108108" lon="-118.3935904">
  <ele>-8.17</ele>
  <time>2026-09-01T01:14:40Z</time>
  <course>229.18</course>
  <speed>0.99</speed>
  <fix>3d</fix>
</trkpt>
<trkpt lat="33.8108096" lon="-118.3935924">
  <ele>-8.296</ele>
  <time>2026-09-01T01:14:40Z</time>
  <course>230.48</course>
  <speed>0.9730878685915265</speed>
  <fix>3d</fix>
</trkpt>
<trkpt lat="33.8108108" lon="-118.3935904">
  <ele>-8.17</ele>
  <time>2026-09-01T01:14:40Z</time>
  <course>229.18</course>
  <speed>0.99</speed>
  <fix>3d</fix>
</trkpt>
<trkpt lat="33.810809" lon="-118.3935932">
  <ele>-8.271</ele>
  <time>2026-09-01T01:14:40Z</time>
  <course>230.45</course>
  <speed>0.9730878685915265</speed>
  <fix>3d</fix>
</trkpt>
<trkpt lat="33.8108096" lon="-118.3935921">
  <ele>-8.12</ele>
  <time>2026-09-01T01:14:40Z</time>
  <course>229.12</course>
  <speed>0.99</speed>
  <fix>3d</fix>
</trkpt>
<trkpt lat="33.8108084" lon="-118.3935941">
  <ele>-8.245</ele>
  <time>2026-09-01T01:14:40Z</time>
  <course>230.43</course>
  <speed>0.9730878685915265</speed>
  <fix>3d</fix>
</trkpt>
<trkpt lat="33.8108096" lon="-118.3935921">
  <ele>-8.12</ele>
  <time>2026-09-01T01:14:40Z</time>
  <course>229.12</course>
  <speed>0.99</speed>
  <fix>3d</fix>
</trkpt>
<trkpt lat="33.8108078" lon="-118.3935949">
  <ele>-8.22</ele>
  <time>2026-09-01T01:14:40Z</time>
  <course>230.4</course>
  <speed>0.9730878685915265</speed>
  <fix>3d</fix>
</trkpt>
<trkpt lat="33.8108084" lon="-118.3935938">
  <ele>-8.07</ele>
  <time>2026-09-01T01:14:40Z</time>
  <course>229.09</course>
  <speed>1.0</speed>
  <fix>3d</fix>
</trkpt>
<trkpt lat="33.8108072" lon="-118.3935957">
  <ele>-8.196</ele>
  <time>2026-09-01T01:14:40Z</time>
  <course>230.38</course>
  <speed>0.9730878685915265</speed>
  <fix>3d</fix>
</trkpt>
<trkpt lat="33.8108084" lon="-118.3935938">
  <ele>-8.07</ele>
  <time>2026-09-01T01:14:40Z</time>
  <course>229.09</course>
  <speed>1.0</speed>
  <fix>3d</fix>
</trkpt>
<trkpt lat="33.8108067" lon="-118.3935965">
  <ele>-8.173</ele>
  <time>2026-09-01T01:14:40Z</time>
  <course>230.35</course>
  <speed>0.9730878685915265</speed>
  <fix>3d</fix>
</trkpt>
<trkpt lat="33.8108072" lon="-118.3935954">
  <ele>-8.02</ele>
  <time>2026-09-01T01:14:40Z</time>
  <course>229.06</course>
  <speed>1.0</speed>
  <fix>3d</fix>
</trkpt>
<trkpt lat="33.8108061" lon="-118.3935973">
  <ele>-8.15</ele>
  <time>2026-09-01T01:14:40Z</time>
  <course>230.33</course>
  <speed>0.9730878685915265</speed>
  <fix>3d</fix>
</trkpt>
<trkpt lat="33.8108072" lon="-118.3935954">
  <ele>-8.02</ele>
  <time>2026-09-01T01:14:40Z</time>
  <course>229.06</course>
  <speed>1.0</speed>
  <fix>3d</fix>
</trkpt>
<trkpt lat="33.8108055" lon="-118.3935982">
  <ele>-8.125</ele>
  <time>2026-09-01T01:14:40Z</time>
  <course>230.31</course>
  <speed>0.9730878685915265</speed>
  <fix>3d</fix>
</trkpt>
<trkpt lat="33.8108061" lon="-118.393597">
  <ele>-7.97</ele>
  <time>2026-09-01T01:14:40Z</time>
  <course>229.03</course>
  <speed>1.0</speed>
  <fix>3d</fix>
</trkpt>
<trkpt lat="33.8108049" lon="-118.393599">
  <ele>-8.1</ele>
  <time>2026-09-01T01:14:40Z</time>
  <course>230.3</course>
  <speed>0.9730878685915265</speed>
  <fix>3d</fix>
</trkpt>
<trkpt lat="33.8108061" lon="-118.393597">
  <ele>-7.97</ele>
  <time>2026-09-01T01:14:40Z</time>
  <course>229.03</course>
  <speed>1.0</speed>
  <fix>3d</fix>
</trkpt>
<trkpt lat="33.8108043" lon="-118.3935998">
  <ele>-8.074</ele>
  <time>2026-09-01T01:14:40Z</time>
  <course>230.29</course>
  <speed>0.9730878685915265</speed>
  <fix>3d</fix>
</trkpt>
<trkpt lat="33.8108049" lon="-118.3935986">
  <ele>-7.93</ele>
  <time>2026-09-01T01:14:40Z</time>
  <course>229.02</course>
  <speed>1.0</speed>
  <fix>3d</fix>
</trkpt>
<trkpt lat="33.8108037" lon="-118.3936006">
  <ele>-8.047</ele>
  <time>2026-09-01T01:14:40Z</time>
  <course>230.27</course>
  <speed>0.9730878685915265</speed>
  <fix>3d</fix>
</trkpt>
<trkpt lat="33.8108049" lon="-118.3935986">
  <ele>-7.93</ele>
  <time>2026-09-01T01:14:40Z</time>
  <course>229.02</course>
  <speed>1.0</speed>
  <fix>3d</fix>
</trkpt>
<trkpt lat="33.8108031" lon="-118.3936014">
  <ele>-8.021</ele>
  <time>2026-09-01T01:14:40Z</time>
  <course>230.27</course>
  <speed>0.9730878685915265</speed>
  <fix>3d</fix>
</trkpt>
<trkpt lat="33.8108037" lon="-118.3936003">
  <ele>-7.88</ele>
  <time>2026-09-01T01:14:40Z</time>
  <course>229.02</course>
  <speed>1.0</speed>
  <fix>3d</fix>
</trkpt>
<trkpt lat="33.8108025" lon="-118.3936022">
  <ele>-7.996</ele>
  <time>2026-09-01T01:14:40Z</time>
  <course>230.26</course>
  <speed>0.9730878685915265</speed>
  <fix>3d</fix>
</trkpt>
<trkpt lat="33.8108037" lon="-118.3936003">
  <ele>-7.88</ele>
  <time>2026-09-01T01:14:40Z</time>
  <course>229.02</course>
  <speed>1.0</speed>
  <fix>3d</fix>
</trkpt>
<trkpt lat="33.8108019" lon="-118.3936031">
  <ele>-7.971</ele>
  <time>2026-09-01T01:14:40Z</time>
  <course>230.26</course>
  <speed>0.9730878685915265</speed>
  <fix>3d</fix>
</trkpt>
<trkpt lat="33.8108025" lon="-118.3936019">
  <ele>-7.83</ele>
  <time>2026-09-01T01:14:40Z</time>
  <course>229.02</course>
  <speed>1.0</speed>
  <fix>3d</fix>
</trkpt>
<trkpt lat="33.8108014" lon="-118.3936039">
  <ele>-7.946</ele>
  <time>2026-09-01T01:14:40Z</time>
  <course>230.26</course>
  <speed>0.9730878685915265</speed>
  <fix>3d</fix>
</trkpt>
<trkpt lat="33.8108025" lon="-118.3936019">
  <ele>-7.83</ele>
  <time>2026-09-01T01:14:40Z</time>
  <course>229.02</course>
  <speed>1.0</speed>
  <fix>3d</fix>
</trkpt>
<trkpt lat="33.8108008" lon="-118.3936047">
  <ele>-7.921</ele>
  <time>2026-09-01T01:14:40Z</time>
  <course>230.27</course>
  <speed>0.9730878685915265</speed>
  <fix>3d</fix>
</trkpt>
<trkpt lat="33.8108013" lon="-118.3936036">
  <ele>-7.78</ele>
  <time>2026-09-01T01:14:40Z</time>
  <course>229.03</course>
  <speed>1.0</speed>
  <fix>3d</fix>
</trkpt>
<trkpt lat="33.8108002" lon="-118.3936055">
  <ele>-7.896</ele>
  <time>2026-09-01T01:14:40Z</time>
  <course>230.28</course>
  <speed>0.9730878685915265</speed>
  <fix>3d</fix>
</trkpt>
<trkpt lat="33.8108013" lon="-118.3936036">
  <ele>-7.78</ele>
  <time>2026-09-01T01:14:40Z</time>
  <course>229.03</course>
  <speed>1.0</speed>
  <fix>3d</fix>
</trkpt>
<trkpt lat="33.8107996" lon="-118.3936063">
  <ele>-7.872</ele>
  <time>2026-09-01T01:14:40Z</time>
  <course>230.29</course>
  <speed>0.9730878685915265</speed>
  <fix>3d</fix>
</trkpt>
<trkpt lat="33.8108001" lon="-118.3936052">
  <ele>-7.73</ele>
  <time>2026-09-01T01:14:40Z</time>
  <course>229.04</course>
  <speed>1.0</speed>
  <fix>3d</fix>
</trkpt>
<trkpt lat="33.810799" lon="-118.3936072">
  <ele>-7.849</ele>
  <time>2026-09-01T01:14:40Z</time>
  <course>230.3</course>
  <speed>0.9730878685915265</speed>
  <fix>3d</fix>
</trkpt>
<trkpt lat="33.8108001" lon="-118.3936052">
  <ele>-7.73</ele>
  <time>2026-09-01T01:14:40Z</time>
  <course>229.04</course>
  <speed>1.0</speed>
  <fix>3d</fix>
</trkpt>
<trkpt lat="33.8107984" lon="-118.393608">
  <ele>-7.826</ele>
  <time>2026-09-01T01:14:40Z</time>
  <course>230.33</course>
  <speed>0.9730878685915265</speed>
  <fix>3d</fix>
</trkpt>
<trkpt lat="33.8107989" lon="-118.3936069">
  <ele>-7.69</ele>
  <time>2026-09-01T01:14:40Z</time>
  <course>229.07</course>
  <speed>1.0</speed>
  <fix>3d</fix>
</trkpt>
<trkpt lat="33.8107978" lon="-118.3936088">
  <ele>-7.801</ele>
  <time>2026-09-01T01:14:40Z</time>
  <course>230.35</course>
  <speed>0.9730878685915265</speed>
  <fix>3d</fix>
</trkpt>
<trkpt lat="33.8107989" lon="-118.3936069">
  <ele>-7.69</ele>
  <time>2026-09-01T01:14:40Z</time>
  <course>229.07</course>
  <speed>1.0</speed>
  <fix>3d</fix>
</trkpt>
<trkpt lat="33.8107972" lon="-118.3936096">
  <ele>-7.777</ele>
  <time>2026-09-01T01:14:40Z</time>
  <course>230.37</course>
  <speed>0.9730878685915265</speed>
  <fix>3d</fix>
</trkpt>
<trkpt lat="33.8107977" lon="-118.3936085">
  <ele>-7.64</ele>
  <time>2026-09-01T01:14:40Z</time>
  <course>229.11</course>
  <speed>0.99</speed>
  <fix>3d</fix>
</trkpt>
<trkpt lat="33.8107966" lon="-118.3936104">
  <ele>-7.753</ele>
  <time>2026-09-01T01:14:40Z</time>
  <course>230.39</course>
  <speed>0.9730878685915265</speed>
  <fix>3d</fix>
</trkpt>
<trkpt lat="33.8107977" lon="-118.3936085">
  <ele>-7.64</ele>
  <time>2026-09-01T01:14:40Z</time>
  <course>229.11</course>
  <speed>0.99</speed>
  <fix>3d</fix>
</trkpt>
<trkpt lat="33.810796" lon="-118.3936113">
  <ele>-7.729</ele>
  <time>2026-09-01T01:14:40Z</time>
  <course>230.42</course>
  <speed>0.9730878685915265</speed>
  <fix>3d</fix>
</trkpt>
<trkpt lat="33.8107966" lon="-118.3936101">
  <ele>-7.59</ele>
  <time>2026-09-01T01:14:40Z</time>
  <course>229.15</course>
  <speed>0.99</speed>
  <fix>3d</fix>
</trkpt>
<trkpt lat="33.8107954" lon="-118.3936121">
  <ele>-7.705</ele>
  <time>2026-09-01T01:14:40Z</time>
  <course>230.43</course>
  <speed>0.9730878685915265</speed>
  <fix>3d</fix>
</trkpt>
<trkpt lat="33.8107966" lon="-118.3936101">
  <ele>-7.59</ele>
  <time>2026-09-01T01:14:40Z</time>
  <course>229.15</course>
  <speed>0.99</speed>
  <fix>3d</fix>
</trkpt>
<trkpt lat="33.8107949" lon="-118.3936129">
  <ele>-7.679</ele>
  <time>2026-09-01T01:14:40Z</time>
  <course>230.44</course>
  <speed>0.9730878685915265</speed>
  <fix>3d</fix>
</trkpt>
<trkpt lat="33.8107955" lon="-118.3936118">
  <ele>-7.54</ele>
  <time>2026-09-01T01:14:40Z</time>
  <course>229.17</course>
  <speed>0.99</speed>
  <fix>3d</fix>
</trkpt>
<trkpt lat="33.8107943" lon="-118.3936137">
  <ele>-7.654</ele>
  <time>2026-09-01T01:14:40Z</time>
  <course>230.43</course>
  <speed>0.9730878685915265</speed>
  <fix>3d</fix>
</trkpt>
<trkpt lat="33.8107955" lon="-118.3936118">
  <ele>-7.54</ele>
  <time>2026-09-01T01:14:40Z</time>
  <course>229.17</course>
  <speed>0.99</speed>
  <fix>3d</fix>
</trkpt>
<trkpt lat="33.8107937" lon="-118.3936145">
  <ele>-7.63</ele>
  <time>2026-09-01T01:14:40Z</time>
  <course>230.4</course>
  <speed>0.9730878685915265</speed>
  <fix>3d</fix>
</trkpt>
<trkpt lat="33.8107943" lon="-118.3936134">
  <ele>-7.5</ele>
  <time>2026-09-01T01:14:40Z</time>
  <course>229.12</course>
  <speed>0.99</speed>
  <fix>3d</fix>
</trkpt>
<trkpt lat="33.8107931" lon="-118.3936153">
  <ele>-7.606</ele>
  <time>2026-09-01T01:14:40Z</time>
  <course>230.36</course>
  <speed>0.9730878685915265</speed>
  <fix>3d</fix>
</trkpt>
<trkpt lat="33.8107943" lon="-118.3936134">
  <ele>-7.5</ele>
  <time>2026-09-01T01:14:40Z</time>
  <course>229.12</course>
  <speed>0.99</speed>
  <fix>3d</fix>
</trkpt>
<trkpt lat="33.8107925" lon="-118.3936162">
  <ele>-7.581</ele>
  <time>2026-09-01T01:14:40Z</time>
  <course>230.31</course>
  <speed>0.9730878685915265</speed>
  <fix>3d</fix>
</trkpt>
<trkpt lat="33.8107931" lon="-118.393615">
  <ele>-7.45</ele>
  <time>2026-09-01T01:14:40Z</time>
  <course>229.01</course>
  <speed>0.99</speed>
  <fix>3d</fix>
</trkpt>
<trkpt lat="33.8107919" lon="-118.393617">
  <ele>-7.556</ele>
  <time>2026-09-01T01:14:40Z</time>
  <course>230.28</course>
  <speed>0.9730878685915265</speed>
  <fix>3d</fix>
</trkpt>
<trkpt lat="33.8107931" lon="-118.393615">
  <ele>-7.45</ele>
  <time>2026-09-01T01:14:40Z</time>
  <course>229.01</course>
  <speed>0.99</speed>
  <fix>3d</fix>
</trkpt>
<trkpt lat="33.8107913" lon="-118.3936178">
  <ele>-7.531</ele>
  <time>2026-09-01T01:14:40Z</time>
  <course>230.26</course>
  <speed>0.9730878685915265</speed>
  <fix>3d</fix>
</trkpt>
<trkpt lat="33.8107919" lon="-118.3936167">
  <ele>-7.4</ele>
  <time>2026-09-01T01:14:40Z</time>
  <course>228.96</course>
  <speed>0.99</speed>
  <fix>3d</fix>
</trkpt>
<trkpt lat="33.8107907" lon="-118.3936186">
  <ele>-7.506</ele>
  <time>2026-09-01T01:14:40Z</time>
  <course>230.24</course>
  <speed>0.9730878685915265</speed>
  <fix>3d</fix>
</trkpt>
<trkpt lat="33.8107919" lon="-118.3936167">
  <ele>-7.4</ele>
  <time>2026-09-01T01:14:40Z</time>
  <course>228.96</course>
  <speed>0.99</speed>
  <fix>3d</fix>
</trkpt>
<trkpt lat="33.8107902" lon="-118.3936194">
  <ele>-7.482</ele>
  <time>2026-09-01T01:14:40Z</time>
  <course>230.24</course>
  <speed>0.9730878685915265</speed>
  <fix>3d</fix>
</trkpt>
<trkpt lat="33.8107908" lon="-118.3936182">
  <ele>-7.35</ele>
  <time>2026-09-01T01:14:40Z</time>
  <course>228.95</course>
  <speed>0.99</speed>
  <fix>3d</fix>
</trkpt>
<trkpt lat="33.8107896" lon="-118.3936202">
  <ele>-7.457</ele>
  <time>2026-09-01T01:14:40Z</time>
  <course>230.24</course>
  <speed>0.9730878685915265</speed>
  <fix>3d</fix>
</trkpt>
<trkpt lat="33.8107908" lon="-118.3936182">
  <ele>-7.35</ele>
  <time>2026-09-01T01:14:40Z</time>
  <course>228.95</course>
  <speed>0.99</speed>
  <fix>3d</fix>
</trkpt>
<trkpt lat="33.810789" lon="-118.3936211">
  <ele>-7.433</ele>
  <time>2026-09-01T01:14:40Z</time>
  <course>230.24</course>
  <speed>0.9730878685915265</speed>
  <fix>3d</fix>
</trkpt>
<trkpt lat="33.8107896" lon="-118.3936199">
  <ele>-7.3</ele>
  <time>2026-09-01T01:14:40Z</time>
  <course>228.95</course>
  <speed>1.0</speed>
  <fix>3d</fix>
</trkpt>
<trkpt lat="33.8107884" lon="-118.3936219">
  <ele>-7.407</ele>
  <time>2026-09-01T01:14:40Z</time>
  <course>230.24</course>
  <speed>0.9730878685915265</speed>
  <fix>3d</fix>
</trkpt>
<trkpt lat="33.8107896" lon="-118.3936199">
  <ele>-7.3</ele>
  <time>2026-09-01T01:14:40Z</time>
  <course>228.95</course>
  <speed>1.0</speed>
  <fix>3d</fix>
</trkpt>
<trkpt lat="33.8107878" lon="-118.3936227">
  <ele>-7.381</ele>
  <time>2026-09-01T01:14:40Z</time>
  <course>230.24</course>
  <speed>0.9730878685915265</speed>
  <fix>3d</fix>
</trkpt>
<trkpt lat="33.8107884" lon="-118.3936215">
  <ele>-7.25</ele>
  <time>2026-09-01T01:14:40Z</time>
  <course>228.95</course>
  <speed>1.0</speed>
  <fix>3d</fix>
</trkpt>
<trkpt lat="33.8107872" lon="-118.3936235">
  <ele>-7.356</ele>
  <time>2026-09-01T01:14:40Z</time>
  <course>230.25</course>
  <speed>0.9730878685915265</speed>
  <fix>3d</fix>
</trkpt>
<trkpt lat="33.8107884" lon="-118.3936215">
  <ele>-7.25</ele>
  <time>2026-09-01T01:14:40Z</time>
  <course>228.95</course>
  <speed>1.0</speed>
  <fix>3d</fix>
</trkpt>
<trkpt lat="33.8107866" lon="-118.3936243">
  <ele>-7.331</ele>
  <time>2026-09-01T01:14:40Z</time>
  <course>230.25</course>
  <speed>0.9730878685915265</speed>
  <fix>3d</fix>
</trkpt>
<trkpt lat="33.8107872" lon="-118.3936232">
  <ele>-7.21</ele>
  <time>2026-09-01T01:14:40Z</time>
  <course>228.97</course>
  <speed>1.0</speed>
  <fix>3d</fix>
</trkpt>
<trkpt lat="33.810786" lon="-118.3936252">
  <ele>-7.306</ele>
  <time>2026-09-01T01:14:40Z</time>
  <course>230.26</course>
  <speed>0.9730878685915265</speed>
  <fix>3d</fix>
</trkpt>
<trkpt lat="33.8107872" lon="-118.3936232">
  <ele>-7.21</ele>
  <time>2026-09-01T01:14:40Z</time>
  <course>228.97</course>
  <speed>1.0</speed>
  <fix>3d</fix>
</trkpt>
<trkpt lat="33.8107854" lon="-118.393626">
  <ele>-7.282</ele>
  <time>2026-09-01T01:14:40Z</time>
  <course>230.27</course>
  <speed>0.9730878685915265</speed>
  <fix>3d</fix>
</trkpt>
<trkpt lat="33.810786" lon="-118.3936248">
  <ele>-7.16</ele>
  <time>2026-09-01T01:14:40Z</time>
  <course>228.99</course>
  <speed>1.0</speed>
  <fix>3d</fix>
</trkpt>
<trkpt lat="33.8107849" lon="-118.3936268">
  <ele>-7.259</ele>
  <time>2026-09-01T01:14:40Z</time>
  <course>230.28</course>
  <speed>0.9730878685915265</speed>
  <fix>3d</fix>
</trkpt>
<trkpt lat="33.810786" lon="-118.3936248">
  <ele>-7.16</ele>
  <time>2026-09-01T01:14:40Z</time>
  <course>228.99</course>
  <speed>1.0</speed>
  <fix>3d</fix>
</trkpt>
<trkpt lat="33.8107843" lon="-118.3936276">
  <ele>-7.236</ele>
  <time>2026-09-01T01:14:40Z</time>
  <course>230.3</course>
  <speed>0.9730878685915265</speed>
  <fix>3d</fix>
</trkpt>
<trkpt lat="33.8107849" lon="-118.3936264">
  <ele>-7.11</ele>
  <time>2026-09-01T01:14:40Z</time>
  <course>229.01</course>
  <speed>1.0</speed>
  <fix>3d</fix>
</trkpt>
<trkpt lat="33.8107837" lon="-118.3936284">
  <ele>-7.214</ele>
  <time>2026-09-01T01:14:40Z</time>
  <course>230.31</course>
  <speed>0.9730878685915265</speed>
  <fix>3d</fix>
</trkpt>
<trkpt lat="33.8107849" lon="-118.3936264">
  <ele>-7.11</ele>
  <time>2026-09-01T01:14:40Z</time>
  <course>229.01</course>
  <speed>1.0</speed>
  <fix>3d</fix>
</trkpt>
<trkpt lat="33.8107831" lon="-118.3936292">
  <ele>-7.191</ele>
  <time>2026-09-01T01:14:40Z</time>
  <course>230.32</course>
  <speed>0.9730878685915265</speed>
  <fix>3d</fix>
</trkpt>
<trkpt lat="33.8107837" lon="-118.3936281">
  <ele>-7.07</ele>
  <time>2026-09-01T01:14:40Z</time>
  <course>229.03</course>
  <speed>1.0</speed>
  <fix>3d</fix>
</trkpt>
<trkpt lat="33.8107825" lon="-118.3936301">
  <ele>-7.168</ele>
  <time>2026-09-01T01:14:40Z</time>
  <course>230.32</course>
  <speed>0.9730878685915265</speed>
  <fix>3d</fix>
</trkpt>
<trkpt lat="33.8107837" lon="-118.3936281">
  <ele>-7.07</ele>
  <time>2026-09-01T01:14:40Z</time>
  <course>229.03</course>
  <speed>1.0</speed>
  <fix>3d</fix>
</trkpt>
<trkpt lat="33.8107819" lon="-118.3936309">
  <ele>-7.144</ele>
  <time>2026-09-01T01:14:40Z</time>
  <course>230.31</course>
  <speed>0.9730878685915265</speed>
  <fix>3d</fix>
</trkpt>
<trkpt lat="33.8107825" lon="-118.3936297">
  <ele>-7.02</ele>
  <time>2026-09-01T01:14:40Z</time>
  <course>229.02</course>
  <speed>1.0</speed>
  <fix>3d</fix>
</trkpt>
<trkpt lat="33.8107813" lon="-118.3936317">
  <ele>-7.118</ele>
  <time>2026-09-01T01:14:40Z</time>
  <course>230.3</course>
  <speed>0.9730878685915265</speed>
  <fix>3d</fix>
</trkpt>
<trkpt lat="33.8107825" lon="-118.3936297">
  <ele>-7.02</ele>
  <time>2026-09-01T01:14:40Z</time>
  <course>229.02</course>
  <speed>1.0</speed>
  <fix>3d</fix>
</trkpt>
<trkpt lat="33.8107807" lon="-118.3936325">
  <ele>-7.092</ele>
  <time>2026-09-01T01:14:40Z</time>
  <course>230.3</course>
  <speed>0.9730878685915265</speed>
  <fix>3d</fix>
</trkpt>
<trkpt lat="33.8107812" lon="-118.3936314">
  <ele>-6.97</ele>
  <time>2026-09-01T01:14:40Z</time>
  <course>228.99</course>
  <speed>1.0</speed>
  <fix>3d</fix>
</trkpt>
<trkpt lat="33.8107801" lon="-118.3936333">
  <ele>-7.065</ele>
  <time>2026-09-01T01:14:40Z</time>
  <course>230.32</course>
  <speed>0.9730878685915265</speed>
  <fix>3d</fix>
</trkpt>
<trkpt lat="33.8107812" lon="-118.3936314">
  <ele>-6.97</ele>
  <time>2026-09-01T01:14:40Z</time>
  <course>228.99</course>
  <speed>1.0</speed>
  <fix>3d</fix>
</trkpt>
<trkpt lat="33.8107795" lon="-118.3936342">
  <ele>-7.038</ele>
  <time>2026-09-01T01:14:40Z</time>
  <course>230.35</course>
  <speed>0.9730878685915265</speed>
  <fix>3d</fix>
</trkpt>
<trkpt lat="33.8107801" lon="-118.393633">
  <ele>-6.91</ele>
  <time>2026-09-01T01:14:40Z</time>
  <course>229.02</course>
  <speed>1.0</speed>
  <fix>3d</fix>
</trkpt>
<trkpt lat="33.810779" lon="-118.393635">
  <ele>-7.011</ele>
  <time>2026-09-01T01:14:40Z</time>
  <course>230.38</course>
  <speed>0.9730878685915265</speed>
  <fix>3d</fix>
</trkpt>
<trkpt lat="33.8107801" lon="-118.393633">
  <ele>-6.91</ele>
  <time>2026-09-01T01:14:40Z</time>
  <course>229.02</course>
  <speed>1.0</speed>
  <fix>3d</fix>
</trkpt>
<trkpt lat="33.8107784" lon="-118.3936358">
  <ele>-6.986</ele>
  <time>2026-09-01T01:14:40Z</time>
  <course>230.41</course>
  <speed>0.9730878685915265</speed>
  <fix>3d</fix>
</trkpt>
<trkpt lat="33.8107789" lon="-118.3936346">
  <ele>-6.86</ele>
  <time>2026-09-01T01:14:40Z</time>
  <course>229.07</course>
  <speed>1.0</speed>
  <fix>3d</fix>
</trkpt>
<trkpt lat="33.8107778" lon="-118.3936366">
  <ele>-6.962</ele>
  <time>2026-09-01T01:14:40Z</time>
  <course>230.43</course>
  <speed>0.9730878685915265</speed>
  <fix>3d</fix>
</trkpt>
<trkpt lat="33.8107789" lon="-118.3936346">
  <ele>-6.86</ele>
  <time>2026-09-01T01:14:40Z</time>
  <course>229.07</course>
  <speed>1.0</speed>
  <fix>3d</fix>
</trkpt>
<trkpt lat="33.8107772" lon="-118.3936374">
  <ele>-6.938</ele>
  <time>2026-09-01T01:14:40Z</time>
  <course>230.47</course>
  <speed>0.9730878685915265</speed>
  <fix>3d</fix>
</trkpt>
<trkpt lat="33.8107777" lon="-118.3936363">
  <ele>-6.81</ele>
  <time>2026-09-01T01:14:40Z</time>
  <course>229.12</course>
  <speed>0.99</speed>
  <fix>3d</fix>
</trkpt>
<trkpt lat="33.8107766" lon="-118.3936383">
  <ele>-6.914</ele>
  <time>2026-09-01T01:14:40Z</time>
  <course>230.5</course>
  <speed>0.9730878685915265</speed>
  <fix>3d</fix>
</trkpt>
<trkpt lat="33.8107777" lon="-118.3936363">
  <ele>-6.81</ele>
  <time>2026-09-01T01:14:40Z</time>
  <course>229.12</course>
  <speed>0.99</speed>
  <fix>3d</fix>
</trkpt>
<trkpt lat="33.810776" lon="-118.3936391">
  <ele>-6.891</ele>
  <time>2026-09-01T01:14:40Z</time>
  <course>230.52</course>
  <speed>0.9730878685915265</speed>
  <fix>3d</fix>
</trkpt>
<trkpt lat="33.8107765" lon="-118.3936378">
  <ele>-6.77</ele>
  <time>2026-09-01T01:14:40Z</time>
  <course>229.16</course>
  <speed>0.99</speed>
  <fix>3d</fix>
</trkpt>
<trkpt lat="33.8107754" lon="-118.3936399">
  <ele>-6.868</ele>
  <time>2026-09-01T01:14:40Z</time>
  <course>230.55</course>
  <speed>0.9730878685915265</speed>
  <fix>3d</fix>
</trkpt>
<trkpt lat="33.8107765" lon="-118.3936378">
  <ele>-6.77</ele>
  <time>2026-09-01T01:14:40Z</time>
  <course>229.16</course>
  <speed>0.99</speed>
  <fix>3d</fix>
</trkpt>
<trkpt lat="33.8107748" lon="-118.3936407">
  <ele>-6.844</ele>
  <time>2026-09-01T01:14:40Z</time>
  <course>230.59</course>
  <speed>0.9730878685915265</speed>
  <fix>3d</fix>
</trkpt>
<trkpt lat="33.8107754" lon="-118.3936395">
  <ele>-6.72</ele>
  <time>2026-09-01T01:14:40Z</time>
  <course>229.23</course>
  <speed>0.99</speed>
  <fix>3d</fix>
</trkpt>
<trkpt lat="33.8107742" lon="-118.3936415">
  <ele>-6.819</ele>
  <time>2026-09-01T01:14:40Z</time>
  <course>230.64</course>
  <speed>0.9730878685915265</speed>
  <fix>3d</fix>
</trkpt>
<trkpt lat="33.8107754" lon="-118.3936395">
  <ele>-6.72</ele>
  <time>2026-09-01T01:14:40Z</time>
  <course>229.23</course>
  <speed>0.99</speed>
  <fix>3d</fix>
</trkpt>
<trkpt lat="33.8107736" lon="-118.3936423">
  <ele>-6.793</ele>
  <time>2026-09-01T01:14:40Z</time>
  <course>230.66</course>
  <speed>0.9730878685915265</speed>
  <fix>3d</fix>
</trkpt>
<trkpt lat="33.8107743" lon="-118.3936412">
  <ele>-6.67</ele>
  <time>2026-09-01T01:14:40Z</time>
  <course>229.28</course>
  <speed>0.99</speed>
  <fix>3d</fix>
</trkpt>
<trkpt lat="33.8107731" lon="-118.3936432">
  <ele>-6.766</ele>
  <time>2026-09-01T01:14:40Z</time>
  <course>230.65</course>
  <speed>0.9730878685915265</speed>
  <fix>3d</fix>
</trkpt>
<trkpt lat="33.8107743" lon="-118.3936412">
  <ele>-6.67</ele>
  <time>2026-09-01T01:14:40Z</time>
  <course>229.28</course>
  <speed>0.99</speed>
  <fix>3d</fix>
</trkpt>
<trkpt lat="33.8107725" lon="-118.393644">
  <ele>-6.739</ele>
  <time>2026-09-01T01:14:40Z</time>
  <course>230.62</course>
  <speed>0.9730878685915265</speed>
  <fix>3d</fix>
</trkpt>
<trkpt lat="33.8107731" lon="-118.3936428">
  <ele>-6.62</ele>
  <time>2026-09-01T01:14:40Z</time>
  <course>229.23</course>
  <speed>0.99</speed>
  <fix>3d</fix>
</trkpt>
<trkpt lat="33.8107719" lon="-118.3936448">
  <ele>-6.713</ele>
  <time>2026-09-01T01:14:40Z</time>
  <course>230.57</course>
  <speed>0.9730878685915265</speed>
  <fix>3d</fix>
</trkpt>
<trkpt lat="33.8107731" lon="-118.3936428">
  <ele>-6.62</ele>
  <time>2026-09-01T01:14:40Z</time>
  <course>229.23</course>
  <speed>0.99</speed>
  <fix>3d</fix>
</trkpt>
<trkpt lat="33.8107713" lon="-118.3936456">
  <ele>-6.687</ele>
  <time>2026-09-01T01:14:40Z</time>
  <course>230.51</course>
  <speed>0.9730878685915265</speed>
  <fix>3d</fix>
</trkpt>
<trkpt lat="33.8107719" lon="-118.3936444">
  <ele>-6.57</ele>
  <time>2026-09-01T01:14:40Z</time>
  <course>229.13</course>
  <speed>0.99</speed>
  <fix>3d</fix>
</trkpt>
<trkpt lat="33.8107707" lon="-118.3936464">
  <ele>-6.663</ele>
  <time>2026-09-01T01:14:40Z</time>
  <course>230.47</course>
  <speed>0.9730878685915265</speed>
  <fix>3d</fix>
</trkpt>
<trkpt lat="33.8107719" lon="-118.3936444">
  <ele>-6.57</ele>
  <time>2026-09-01T01:14:40Z</time>
  <course>229.13</course>
  <speed>0.99</speed>
  <fix>3d</fix>
</trkpt>
<trkpt lat="33.8107701" lon="-118.3936472">
  <ele>-6.641</ele>
  <time>2026-09-01T01:14:40Z</time>
  <course>230.45</course>
  <speed>0.9730878685915265</speed>
  <fix>3d</fix>
</trkpt>
<trkpt lat="33.8107708" lon="-118.393646">
  <ele>-6.52</ele>
  <time>2026-09-01T01:14:40Z</time>
  <course>229.07</course>
  <speed>0.99</speed>
  <fix>3d</fix>
</trkpt>
<trkpt lat="33.8107695" lon="-118.3936481">
  <ele>-6.617</ele>
  <time>2026-09-01T01:14:40Z</time>
  <course>230.43</course>
  <speed>0.9730878685915265</speed>
  <fix>3d</fix>
</trkpt>
<trkpt lat="33.8107708" lon="-118.393646">
  <ele>-6.52</ele>
  <time>2026-09-01T01:14:40Z</time>
  <course>229.07</course>
  <speed>0.99</speed>
  <fix>3d</fix>
</trkpt>
<trkpt lat="33.810769" lon="-118.3936489">
  <ele>-6.593</ele>
  <time>2026-09-01T01:14:40Z</time>
  <course>230.41</course>
  <speed>0.9730878685915265</speed>
  <fix>3d</fix>
</trkpt>
<trkpt lat="33.8107696" lon="-118.3936477">
  <ele>-6.48</ele>
  <time>2026-09-01T01:14:40Z</time>
  <course>229.05</course>
  <speed>1.0</speed>
  <fix>3d</fix>
</trkpt>
<trkpt lat="33.8107684" lon="-118.3936497">
  <ele>-6.568</ele>
  <time>2026-09-01T01:14:40Z</time>
  <course>230.38</course>
  <speed>0.9730878685915265</speed>
  <fix>3d</fix>
</trkpt>
<trkpt lat="33.8107696" lon="-118.3936477">
  <ele>-6.48</ele>
  <time>2026-09-01T01:14:40Z</time>
  <course>229.05</course>
  <speed>1.0</speed>
  <fix>3d</fix>
</trkpt>
<trkpt lat="33.8107678" lon="-118.3936505">
  <ele>-6.543</ele>
  <time>2026-09-01T01:14:40Z</time>
  <course>230.35</course>
  <speed>0.9730878685915265</speed>
  <fix>3d</fix>
</trkpt>
<trkpt lat="33.8107684" lon="-118.3936493">
  <ele>-6.43</ele>
  <time>2026-09-01T01:14:40Z</time>
  <course>229.03</course>
  <speed>1.0</speed>
  <fix>3d</fix>
</trkpt>
<trkpt lat="33.8107672" lon="-118.3936513">
  <ele>-6.518</ele>
  <time>2026-09-01T01:14:40Z</time>
  <course>230.32</course>
  <speed>0.9730878685915265</speed>
  <fix>3d</fix>
</trkpt>
<trkpt lat="33.8107684" lon="-118.3936493">
  <ele>-6.43</ele>
  <time>2026-09-01T01:14:40Z</time>
  <course>229.03</course>
  <speed>1.0</speed>
  <fix>3d</fix>
</trkpt>
<trkpt lat="33.8107666" lon="-118.3936522">
  <ele>-6.495</ele>
  <time>2026-09-01T01:14:40Z</time>
  <course>230.31</course>
  <speed>0.9730878685915265</speed>
  <fix>3d</fix>
</trkpt>
<trkpt lat="33.8107672" lon="-118.393651">
  <ele>-6.38</ele>
  <time>2026-09-01T01:14:40Z</time>
  <course>229.01</course>
  <speed>1.0</speed>
  <fix>3d</fix>
</trkpt>
<trkpt lat="33.810766" lon="-118.393653">
  <ele>-6.472</ele>
  <time>2026-09-01T01:14:40Z</time>
  <course>230.3</course>
  <speed>0.9730878685915265</speed>
  <fix>3d</fix>
</trkpt>
<trkpt lat="33.8107672" lon="-118.393651">
  <ele>-6.38</ele>
  <time>2026-09-01T01:14:40Z</time>
  <course>229.01</course>
  <speed>1.0</speed>
  <fix>3d</fix>
</trkpt>
<trkpt lat="33.8107654" lon="-118.3936538">
  <ele>-6.448</ele>
  <time>2026-09-01T01:14:40Z</time>
  <course>230.28</course>
  <speed>0.9730878685915265</speed>
  <fix>3d</fix>
</trkpt>
<trkpt lat="33.810766" lon="-118.3936526">
  <ele>-6.34</ele>
  <time>2026-09-01T01:14:40Z</time>
  <course>228.99</course>
  <speed>1.0</speed>
  <fix>3d</fix>
</trkpt>
<trkpt lat="33.8107648" lon="-118.3936546">
  <ele>-6.422</ele>
  <time>2026-09-01T01:14:40Z</time>
  <course>230.26</course>
  <speed>0.9730878685915265</speed>
  <fix>3d</fix>
</trkpt>
<trkpt lat="33.810766" lon="-118.3936526">
  <ele>-6.34</ele>
  <time>2026-09-01T01:14:40Z</time>
  <course>228.99</course>
  <speed>1.0</speed>
  <fix>3d</fix>
</trkpt>
<trkpt lat="33.8107643" lon="-118.3936554">
  <ele>-6.397</ele>
  <time>2026-09-01T01:14:40Z</time>
  <course>230.27</course>
  <speed>0.9730878685915265</speed>
  <fix>3d</fix>
</trkpt>
<trkpt lat="33.8107648" lon="-118.3936543">
  <ele>-6.29</ele>
  <time>2026-09-01T01:14:40Z</time>
  <course>228.97</course>
  <speed>1.0</speed>
  <fix>3d</fix>
</trkpt>
<trkpt lat="33.8107637" lon="-118.3936562">
  <ele>-6.372</ele>
  <time>2026-09-01T01:14:40Z</time>
  <course>230.27</course>
  <speed>0.9730878685915265</speed>
  <fix>3d</fix>
</trkpt>
<trkpt lat="33.8107648" lon="-118.3936543">
  <ele>-6.29</ele>
  <time>2026-09-01T01:14:40Z</time>
  <course>228.97</course>
  <speed>1.0</speed>
  <fix>3d</fix>
</trkpt>
<trkpt lat="33.8107631" lon="-118.393657">
  <ele>-6.348</ele>
  <time>2026-09-01T01:14:40Z</time>
  <course>230.29</course>
  <speed>0.9730878685915265</speed>
  <fix>3d</fix>
</trkpt>
<trkpt lat="33.8107636" lon="-118.3936559">
  <ele>-6.24</ele>
  <time>2026-09-01T01:14:40Z</time>
  <course>229.0</course>
  <speed>1.0</speed>
  <fix>3d</fix>
</trkpt>
<trkpt lat="33.8107625" lon="-118.3936579">
  <ele>-6.324</ele>
  <time>2026-09-01T01:14:40Z</time>
  <course>230.3</course>
  <speed>0.9730878685915265</speed>
  <fix>3d</fix>
</trkpt>
<trkpt lat="33.8107636" lon="-118.3936559">
  <ele>-6.24</ele>
  <time>2026-09-01T01:14:40Z</time>
  <course>229.0</course>
  <speed>1.0</speed>
  <fix>3d</fix>
</trkpt>
<trkpt lat="33.8107619" lon="-118.3936587">
  <ele>-6.3</ele>
  <time>2026-09-01T01:14:40Z</time>
  <course>230.32</course>
  <speed>0.9730878685915265</speed>
  <fix>3d</fix>
</trkpt>
<trkpt lat="33.8107624" lon="-118.3936575">
  <ele>-6.2</ele>
  <time>2026-09-01T01:14:40Z</time>
  <course>229.03</course>
  <speed>1.0</speed>
  <fix>3d</fix>
</trkpt>
<trkpt lat="33.8107613" lon="-118.3936595">
  <ele>-6.276</ele>
  <time>2026-09-01T01:14:40Z</time>
  <course>230.35</course>
  <speed>0.9730878685915265</speed>
  <fix>3d</fix>
</trkpt>
<trkpt lat="33.8107624" lon="-118.3936575">
  <ele>-6.2</ele>
  <time>2026-09-01T01:14:40Z</time>
  <course>229.03</course>
  <speed>1.0</speed>
  <fix>3d</fix>
</trkpt>
<trkpt lat="33.8107607" lon="-118.3936603">
  <ele>-6.251</ele>
  <time>2026-09-01T01:14:40Z</time>
  <course>230.39</course>
  <speed>0.9730878685915265</speed>
  <fix>3d</fix>
</trkpt>
<trkpt lat="33.8107612" lon="-118.3936592">
  <ele>-6.15</ele>
  <time>2026-09-01T01:14:40Z</time>
  <course>229.08</course>
  <speed>1.0</speed>
  <fix>3d</fix>
</trkpt>
<trkpt lat="33.8107601" lon="-118.3936611">
  <ele>-6.227</ele>
  <time>2026-09-01T01:14:40Z</time>
  <course>230.43</course>
  <speed>0.9730878685915265</speed>
  <fix>3d</fix>
</trkpt>
<trkpt lat="33.8107612" lon="-118.3936592">
  <ele>-6.15</ele>
  <time>2026-09-01T01:14:40Z</time>
  <course>229.08</course>
  <speed>1.0</speed>
  <fix>3d</fix>
</trkpt>
<trkpt lat="33.8107595" lon="-118.393662">
  <ele>-6.202</ele>
  <time>2026-09-01T01:14:40Z</time>
  <course>230.46</course>
  <speed>0.9730878685915265</speed>
  <fix>3d</fix>
</trkpt>
<trkpt lat="33.81076" lon="-118.3936608">
  <ele>-6.1</ele>
  <time>2026-09-01T01:14:40Z</time>
  <course>229.16</course>
  <speed>1.0</speed>
  <fix>3d</fix>
</trkpt>
<trkpt lat="33.8107589" lon="-118.3936628">
  <ele>-6.178</ele>
  <time>2026-09-01T01:14:40Z</time>
  <course>230.49</course>
  <speed>0.9730878685915265</speed>
  <fix>3d</fix>
</trkpt>
<trkpt lat="33.81076" lon="-118.3936608">
  <ele>-6.1</ele>
  <time>2026-09-01T01:14:40Z</time>
  <course>229.16</course>
  <speed>1.0</speed>
  <fix>3d</fix>
</trkpt>
<trkpt lat="33.8107583" lon="-118.3936636">
  <ele>-6.153</ele>
  <time>2026-09-01T01:14:40Z</time>
  <course>230.53</course>
  <speed>0.9730878685915265</speed>
  <fix>3d</fix>
</trkpt>
<trkpt lat="33.8107589" lon="-118.3936625">
  <ele>-6.05</ele>
  <time>2026-09-01T01:14:40Z</time>
  <course>229.23</course>
  <speed>1.0</speed>
  <fix>3d</fix>
</trkpt>
<trkpt lat="33.8107578" lon="-118.3936644">
  <ele>-6.129</ele>
  <time>2026-09-01T01:14:40Z</time>
  <course>230.56</course>
  <speed>0.9730878685915265</speed>
  <fix>3d</fix>
</trkpt>
<trkpt lat="33.8107589" lon="-118.3936625">
  <ele>-6.05</ele>
  <time>2026-09-01T01:14:40Z</time>
  <course>229.23</course>
  <speed>1.0</speed>
  <fix>3d</fix>
</trkpt>
<trkpt lat="33.8107572" lon="-118.3936652">
  <ele>-6.104</ele>
  <time>2026-09-01T01:14:40Z</time>
  <course>230.57</course>
  <speed>0.9730878685915265</speed>
  <fix>3d</fix>
</trkpt>
<trkpt lat="33.8107578" lon="-118.3936641">
  <ele>-6.0</ele>
  <time>2026-09-01T01:14:40Z</time>
  <course>229.26</course>
  <speed>1.0</speed>
  <fix>3d</fix>
</trkpt>
<trkpt lat="33.8107566" lon="-118.3936661">
  <ele>-6.078</ele>
  <time>2026-09-01T01:14:40Z</time>
  <course>230.55</course>
  <speed>0.9730878685915265</speed>
  <fix>3d</fix>
</trkpt>
<trkpt lat="33.8107578" lon="-118.3936641">
  <ele>-6.0</ele>
  <time>2026-09-01T01:14:40Z</time>
  <course>229.26</course>
  <speed>1.0</speed>
  <fix>3d</fix>
</trkpt>
<trkpt lat="33.810756" lon="-118.3936669">
  <ele>-6.052</ele>
  <time>2026-09-01T01:14:40Z</time>
  <course>230.52</course>
  <speed>0.9730878685915265</speed>
  <fix>3d</fix>
</trkpt>
<trkpt lat="33.8107566" lon="-118.3936658">
  <ele>-5.95</ele>
  <time>2026-09-01T01:14:40Z</time>
  <course>229.19</course>
  <speed>1.0</speed>
  <fix>3d</fix>
</trkpt>
<trkpt lat="33.8107554" lon="-118.3936677">
  <ele>-6.026</ele>
  <time>2026-09-01T01:14:40Z</time>
  <course>230.46</course>
  <speed>0.9730878685915265</speed>
  <fix>3d</fix>
</trkpt>
<trkpt lat="33.8107566" lon="-118.3936658">
  <ele>-5.95</ele>
  <time>2026-09-01T01:14:40Z</time>
  <course>229.19</course>
  <speed>1.0</speed>
  <fix>3d</fix>
</trkpt>
<trkpt lat="33.8107548" lon="-118.3936685">
  <ele>-5.999</ele>
  <time>2026-09-01T01:14:40Z</time>
  <course>230.4</course>
  <speed>0.9730878685915265</speed>
  <fix>3d</fix>
</trkpt>
<trkpt lat="33.8107554" lon="-118.3936674">
  <ele>-5.9</ele>
  <time>2026-09-01T01:14:40Z</time>
  <course>229.08</course>
  <speed>1.0</speed>
  <fix>3d</fix>
</trkpt>
<trkpt lat="33.8107542" lon="-118.3936693">
  <ele>-5.973</ele>
  <time>2026-09-01T01:14:40Z</time>
  <course>230.34</course>
  <speed>0.9730878685915265</speed>
  <fix>3d</fix>
</trkpt>
<trkpt lat="33.8107554" lon="-118.3936674">
  <ele>-5.9</ele>
  <time>2026-09-01T01:14:40Z</time>
  <course>229.08</course>
  <speed>1.0</speed>
  <fix>3d</fix>
</trkpt>
<trkpt lat="33.8107536" lon="-118.3936702">
  <ele>-5.948</ele>
  <time>2026-09-01T01:14:40Z</time>
  <course>230.3</course>
  <speed>0.9730878685915265</speed>
  <fix>3d</fix>
</trkpt>
<trkpt lat="33.8107542" lon="-118.393669">
  <ele>-5.86</ele>
  <time>2026-09-01T01:14:40Z</time>
  <course>229.0</course>
  <speed>1.0</speed>
  <fix>3d</fix>
</trkpt>
<trkpt lat="33.8107531" lon="-118.393671">
  <ele>-5.924</ele>
  <time>2026-09-01T01:14:40Z</time>
  <course>230.27</course>
  <speed>0.9730878685915265</speed>
  <fix>3d</fix>
</trkpt>
<trkpt lat="33.8107542" lon="-118.393669">
  <ele>-5.86</ele>
  <time>2026-09-01T01:14:40Z</time>
  <course>229.0</course>
  <speed>1.0</speed>
  <fix>3d</fix>
</trkpt>
<trkpt lat="33.8107525" lon="-118.3936718">
  <ele>-5.9</ele>
  <time>2026-09-01T01:14:40Z</time>
  <course>230.26</course>
  <speed>0.9730878685915265</speed>
  <fix>3d</fix>
</trkpt>
<trkpt lat="33.810753" lon="-118.3936707">
  <ele>-5.81</ele>
  <time>2026-09-01T01:14:40Z</time>
  <course>228.98</course>
  <speed>1.0</speed>
  <fix>3d</fix>
</trkpt>
<trkpt lat="33.8107519" lon="-118.3936726">
  <ele>-5.877</ele>
  <time>2026-09-01T01:14:40Z</time>
  <course>230.26</course>
  <speed>0.9730878685915265</speed>
  <fix>3d</fix>
</trkpt>
<trkpt lat="33.810753" lon="-118.3936707">
  <ele>-5.81</ele>
  <time>2026-09-01T01:14:40Z</time>
  <course>228.98</course>
  <speed>1.0</speed>
  <fix>3d</fix>
</trkpt>
<trkpt lat="33.8107513" lon="-118.3936734">
  <ele>-5.853</ele>
  <time>2026-09-01T01:14:40Z</time>
  <course>230.27</course>
  <speed>0.9730878685915265</speed>
  <fix>3d</fix>
</trkpt>
<trkpt lat="33.8107518" lon="-118.3936723">
  <ele>-5.77</ele>
  <time>2026-09-01T01:14:40Z</time>
  <course>229.0</course>
  <speed>1.0</speed>
  <fix>3d</fix>
</trkpt>
<trkpt lat="33.8107507" lon="-118.3936742">
  <ele>-5.829</ele>
  <time>2026-09-01T01:14:40Z</time>
  <course>230.28</course>
  <speed>0.9730878685915265</speed>
  <fix>3d</fix>
</trkpt>
<trkpt lat="33.8107518" lon="-118.3936723">
  <ele>-5.77</ele>
  <time>2026-09-01T01:14:40Z</time>
  <course>229.0</course>
  <speed>1.0</speed>
  <fix>3d</fix>
</trkpt>
<trkpt lat="33.8107501" lon="-118.3936751">
  <ele>-5.805</ele>
  <time>2026-09-01T01:14:40Z</time>
  <course>230.29</course>
  <speed>0.9730878685915265</speed>
  <fix>3d</fix>
</trkpt>
<trkpt lat="33.8107507" lon="-118.393674">
  <ele>-5.72</ele>
  <time>2026-09-01T01:14:40Z</time>
  <course>229.02</course>
  <speed>1.0</speed>
  <fix>3d</fix>
</trkpt>
<trkpt lat="33.8107495" lon="-118.3936759">
  <ele>-5.781</ele>
  <time>2026-09-01T01:14:40Z</time>
  <course>230.3</course>
  <speed>0.9730878685915265</speed>
  <fix>3d</fix>
</trkpt>
<trkpt lat="33.8107507" lon="-118.393674">
  <ele>-5.72</ele>
  <time>2026-09-01T01:14:40Z</time>
  <course>229.02</course>
  <speed>1.0</speed>
  <fix>3d</fix>
</trkpt>
<trkpt lat="33.8107489" lon="-118.3936767">
  <ele>-5.757</ele>
  <time>2026-09-01T01:14:40Z</time>
  <course>230.29</course>
  <speed>0.9730878685915265</speed>
  <fix>3d</fix>
</trkpt>
<trkpt lat="33.8107495" lon="-118.3936756">
  <ele>-5.68</ele>
  <time>2026-09-01T01:14:40Z</time>
  <course>229.02</course>
  <speed>1.0</speed>
  <fix>3d</fix>
</trkpt>
<trkpt lat="33.8107483" lon="-118.3936775">
  <ele>-5.733</ele>
  <time>2026-09-01T01:14:40Z</time>
  <course>230.27</course>
  <speed>0.9730878685915265</speed>
  <fix>3d</fix>
</trkpt>
<trkpt lat="33.8107495" lon="-118.3936756">
  <ele>-5.68</ele>
  <time>2026-09-01T01:14:40Z</time>
  <course>229.02</course>
  <speed>1.0</speed>
  <fix>3d</fix>
</trkpt>
<trkpt lat="33.8107478" lon="-118.3936783">
  <ele>-5.71</ele>
  <time>2026-09-01T01:14:40Z</time>
  <course>230.25</course>
  <speed>0.9730878685915265</speed>
  <fix>3d</fix>
</trkpt>
<trkpt lat="33.8107483" lon="-118.3936772">
  <ele>-5.63</ele>
  <time>2026-09-01T01:14:40Z</time>
  <course>228.98</course>
  <speed>1.0</speed>
  <fix>3d</fix>
</trkpt>
<trkpt lat="33.8107472" lon="-118.3936792">
  <ele>-5.686</ele>
  <time>2026-09-01T01:14:40Z</time>
  <course>230.24</course>
  <speed>0.9730878685915265</speed>
  <fix>3d</fix>
</trkpt>
<trkpt lat="33.8107483" lon="-118.3936772">
  <ele>-5.63</ele>
  <time>2026-09-01T01:14:40Z</time>
  <course>228.98</course>
  <speed>1.0</speed>
  <fix>3d</fix>
</trkpt>
<trkpt lat="33.8107466" lon="-118.39368">
  <ele>-5.662</ele>
  <time>2026-09-01T01:14:40Z</time>
  <course>230.24</course>
  <speed>0.9730878685915265</speed>
  <fix>3d</fix>
</trkpt>
<trkpt lat="33.8107471" lon="-118.3936789">
  <ele>-5.58</ele>
  <time>2026-09-01T01:14:40Z</time>
  <course>228.98</course>
  <speed>1.0</speed>
  <fix>3d</fix>
</trkpt>
<trkpt lat="33.810746" lon="-118.3936808">
  <ele>-5.637</ele>
  <time>2026-09-01T01:14:40Z</time>
  <course>230.25</course>
  <speed>0.9730878685915265</speed>
  <fix>3d</fix>
</trkpt>
<trkpt lat="33.8107471" lon="-118.3936789">
  <ele>-5.58</ele>
  <time>2026-09-01T01:14:40Z</time>
  <course>228.98</course>
  <speed>1.0</speed>
  <fix>3d</fix>
</trkpt>
<trkpt lat="33.8107454" lon="-118.3936816">
  <ele>-5.613</ele>
  <time>2026-09-01T01:14:40Z</time>
  <course>230.26</course>
  <speed>0.9730878685915265</speed>
  <fix>3d</fix>
</trkpt>
<trkpt lat="33.8107459" lon="-118.3936805">
  <ele>-5.54</ele>
  <time>2026-09-01T01:14:40Z</time>
  <course>229.0</course>
  <speed>1.0</speed>
  <fix>3d</fix>
</trkpt>
<trkpt lat="33.8107448" lon="-118.3936824">
  <ele>-5.59</ele>
  <time>2026-09-01T01:14:40Z</time>
  <course>230.26</course>
  <speed>0.9730878685915265</speed>
  <fix>3d</fix>
</trkpt>
<trkpt lat="33.8107459" lon="-118.3936805">
  <ele>-5.54</ele>
  <time>2026-09-01T01:14:40Z</time>
  <course>229.0</course>
  <speed>1.0</speed>
  <fix>3d</fix>
</trkpt>
<trkpt lat="33.8107442" lon="-118.3936832">
  <ele>-5.566</ele>
  <time>2026-09-01T01:14:40Z</time>
  <course>230.28</course>
  <speed>0.9730878685915265</speed>
  <fix>3d</fix>
</trkpt>
<trkpt lat="33.8107447" lon="-118.3936822">
  <ele>-5.49</ele>
  <time>2026-09-01T01:14:40Z</time>
  <course>229.02</course>
  <speed>1.0</speed>
  <fix>3d</fix>
</trkpt>
<trkpt lat="33.8107436" lon="-118.3936841">
  <ele>-5.542</ele>
  <time>2026-09-01T01:14:41Z</time>
  <course>230.31</course>
  <speed>0.9730878685915265</speed>
  <fix>3d</fix>
</trkpt>
<trkpt lat="33.8107447" lon="-118.3936822">
  <ele>-5.49</ele>
  <time>2026-09-01T01:14:41Z</time>
  <course>229.02</course>
  <speed>1.0</speed>
  <fix>3d</fix>
</trkpt>
<trkpt lat="33.810743" lon="-118.3936849">
  <ele>-5.518</ele>
  <time>2026-09-01T01:14:41Z</time>
  <course>230.32</course>
  <speed>0.9730878685915265</speed>
  <fix>3d</fix>
</trkpt>
<trkpt lat="33.8107435" lon="-118.3936838">
  <ele>-5.44</ele>
  <time>2026-09-01T01:14:41Z</time>
  <course>229.06</course>
  <speed>1.0</speed>
  <fix>3d</fix>
</trkpt>
<trkpt lat="33.8107424" lon="-118.3936857">
  <ele>-5.494</ele>
  <time>2026-09-01T01:14:41Z</time>
  <course>230.34</course>
  <speed>0.9730878685915265</speed>
  <fix>3d</fix>
</trkpt>
<trkpt lat="33.8107435" lon="-118.3936838">
  <ele>-5.44</ele>
  <time>2026-09-01T01:14:41Z</time>
  <course>229.06</course>
  <speed>1.0</speed>
  <fix>3d</fix>
</trkpt>
<trkpt lat="33.8107418" lon="-118.3936865">
  <ele>-5.469</ele>
  <time>2026-09-01T01:14:41Z</time>
  <course>230.36</course>
  <speed>0.9730878685915265</speed>
  <fix>3d</fix>
</trkpt>
<trkpt lat="33.8107423" lon="-118.3936855">
  <ele>-5.39</ele>
  <time>2026-09-01T01:14:41Z</time>
  <course>229.09</course>
  <speed>1.0</speed>
  <fix>3d</fix>
</trkpt>
<trkpt lat="33.8107412" lon="-118.3936874">
  <ele>-5.443</ele>
  <time>2026-09-01T01:14:41Z</time>
  <course>230.38</course>
  <speed>0.9730878685915265</speed>
  <fix>3d</fix>
</trkpt>
<trkpt lat="33.8107423" lon="-118.3936855">
  <ele>-5.39</ele>
  <time>2026-09-01T01:14:41Z</time>
  <course>229.09</course>
  <speed>1.0</speed>
  <fix>3d</fix>
</trkpt>
<trkpt lat="33.8107407" lon="-118.3936882">
  <ele>-5.417</ele>
  <time>2026-09-01T01:14:41Z</time>
  <course>230.4</course>
  <speed>0.9730878685915265</speed>
  <fix>3d</fix>
</trkpt>
<trkpt lat="33.8107411" lon="-118.3936871">
  <ele>-5.33</ele>
  <time>2026-09-01T01:14:41Z</time>
  <course>229.11</course>
  <speed>1.0</speed>
  <fix>3d</fix>
</trkpt>
<trkpt lat="33.8107401" lon="-118.393689">
  <ele>-5.391</ele>
  <time>2026-09-01T01:14:41Z</time>
  <course>230.42</course>
  <speed>0.9730878685915265</speed>
  <fix>3d</fix>
</trkpt>
<trkpt lat="33.8107411" lon="-118.3936871">
  <ele>-5.33</ele>
  <time>2026-09-01T01:14:41Z</time>
  <course>229.11</course>
  <speed>1.0</speed>
  <fix>3d</fix>
</trkpt>
<trkpt lat="33.8107395" lon="-118.3936898">
  <ele>-5.364</ele>
  <time>2026-09-01T01:14:41Z</time>
  <course>230.45</course>
  <speed>0.9667471230885561</speed>
  <fix>3d</fix>
</trkpt>
<trkpt lat="33.8107399" lon="-118.3936887">
  <ele>-5.28</ele>
  <time>2026-09-01T01:14:41Z</time>
  <course>229.14</course>
  <speed>0.99</speed>
  <fix>3d</fix>
</trkpt>
<trkpt lat="33.8107389" lon="-118.3936906">
  <ele>-5.339</ele>
  <time>2026-09-01T01:14:41Z</time>
  <course>230.49</course>
  <speed>0.9667471230885561</speed>
  <fix>3d</fix>
</trkpt>
<trkpt lat="33.8107399" lon="-118.3936887">
  <ele>-5.28</ele>
  <time>2026-09-01T01:14:41Z</time>
  <course>229.14</course>
  <speed>0.99</speed>
  <fix>3d</fix>
</trkpt>
<trkpt lat="33.8107383" lon="-118.3936914">
  <ele>-5.313</ele>
  <time>2026-09-01T01:14:41Z</time>
  <course>230.53</course>
  <speed>0.9667471230885561</speed>
  <fix>3d</fix>
</trkpt>
<trkpt lat="33.8107388" lon="-118.3936904">
  <ele>-5.23</ele>
  <time>2026-09-01T01:14:41Z</time>
  <course>229.22</course>
  <speed>0.99</speed>
  <fix>3d</fix>
</trkpt>
<trkpt lat="33.8107377" lon="-118.3936923">
  <ele>-5.287</ele>
  <time>2026-09-01T01:14:41Z</time>
  <course>230.56</course>
  <speed>0.9667471230885561</speed>
  <fix>3d</fix>
</trkpt>
<trkpt lat="33.8107388" lon="-118.3936904">
  <ele>-5.23</ele>
  <time>2026-09-01T01:14:41Z</time>
  <course>229.22</course>
  <speed>0.99</speed>
  <fix>3d</fix>
</trkpt>
<trkpt lat="33.8107371" lon="-118.3936931">
  <ele>-5.261</ele>
  <time>2026-09-01T01:14:41Z</time>
  <course>230.58</course>
  <speed>0.9730878685915265</speed>
  <fix>3d</fix>
</trkpt>
<trkpt lat="33.8107377" lon="-118.3936919">
  <ele>-5.18</ele>
  <time>2026-09-01T01:14:41Z</time>
  <course>229.24</course>
  <speed>0.99</speed>
  <fix>3d</fix>
</trkpt>
<trkpt lat="33.8107365" lon="-118.3936939">
  <ele>-5.236</ele>
  <time>2026-09-01T01:14:41Z</time>
  <course>230.58</course>
  <speed>0.9730878685915265</speed>
  <fix>3d</fix>
</trkpt>
<trkpt lat="33.8107377" lon="-118.3936919">
  <ele>-5.18</ele>
  <time>2026-09-01T01:14:41Z</time>
  <course>229.24</course>
  <speed>0.99</speed>
  <fix>3d</fix>
</trkpt>
<trkpt lat="33.8107359" lon="-118.3936947">
  <ele>-5.21</ele>
  <time>2026-09-01T01:14:41Z</time>
  <course>230.57</course>
  <speed>0.9730878685915265</speed>
  <fix>3d</fix>
</trkpt>
<trkpt lat="33.8107365" lon="-118.3936936">
  <ele>-5.13</ele>
  <time>2026-09-01T01:14:41Z</time>
  <course>229.22</course>
  <speed>0.99</speed>
  <fix>3d</fix>
</trkpt>
<trkpt lat="33.8107354" lon="-118.3936955">
  <ele>-5.186</ele>
  <time>2026-09-01T01:14:41Z</time>
  <course>230.55</course>
  <speed>0.9730878685915265</speed>
  <fix>3d</fix>
</trkpt>
<trkpt lat="33.8107365" lon="-118.3936936">
  <ele>-5.13</ele>
  <time>2026-09-01T01:14:41Z</time>
  <course>229.22</course>
  <speed>0.99</speed>
  <fix>3d</fix>
</trkpt>
<trkpt lat="33.8107348" lon="-118.3936964">
  <ele>-5.162</ele>
  <time>2026-09-01T01:14:41Z</time>
  <course>230.52</course>
  <speed>0.9730878685915265</speed>
  <fix>3d</fix>
</trkpt>
<trkpt lat="33.8107353" lon="-118.3936953">
  <ele>-5.08</ele>
  <time>2026-09-01T01:14:41Z</time>
  <course>229.18</course>
  <speed>0.99</speed>
  <fix>3d</fix>
</trkpt>
<trkpt lat="33.8107342" lon="-118.3936972">
  <ele>-5.138</ele>
  <time>2026-09-01T01:14:41Z</time>
  <course>230.49</course>
  <speed>0.9730878685915265</speed>
  <fix>3d</fix>
</trkpt>
<trkpt lat="33.8107353" lon="-118.3936953">
  <ele>-5.08</ele>
  <time>2026-09-01T01:14:41Z</time>
  <course>229.18</course>
  <speed>0.99</speed>
  <fix>3d</fix>
</trkpt>
<trkpt lat="33.8107336" lon="-118.393698">
  <ele>-5.115</ele>
  <time>2026-09-01T01:14:41Z</time>
  <course>230.46</course>
  <speed>0.9730878685915265</speed>
  <fix>3d</fix>
</trkpt>
<trkpt lat="33.8107342" lon="-118.3936969">
  <ele>-5.04</ele>
  <time>2026-09-01T01:14:41Z</time>
  <course>229.13</course>
  <speed>0.99</speed>
  <fix>3d</fix>
</trkpt>
<trkpt lat="33.810733" lon="-118.3936988">
  <ele>-5.091</ele>
  <time>2026-09-01T01:14:41Z</time>
  <course>230.42</course>
  <speed>0.9730878685915265</speed>
  <fix>3d</fix>
</trkpt>
<trkpt lat="33.8107342" lon="-118.3936969">
  <ele>-5.04</ele>
  <time>2026-09-01T01:14:41Z</time>
  <course>229.13</course>
  <speed>0.99</speed>
  <fix>3d</fix>
</trkpt>
<trkpt lat="33.8107324" lon="-118.3936996">
  <ele>-5.067</ele>
  <time>2026-09-01T01:14:41Z</time>
  <course>230.38</course>
  <speed>0.9730878685915265</speed>
  <fix>3d</fix>
</trkpt>
<trkpt lat="33.810733" lon="-118.3936985">
  <ele>-4.99</ele>
  <time>2026-09-01T01:14:41Z</time>
  <course>229.07</course>
  <speed>0.99</speed>
  <fix>3d</fix>
</trkpt>
<trkpt lat="33.8107318" lon="-118.3937004">
  <ele>-5.041</ele>
  <time>2026-09-01T01:14:41Z</time>
  <course>230.34</course>
  <speed>0.9730878685915265</speed>
  <fix>3d</fix>
</trkpt>
<trkpt lat="33.810733" lon="-118.3936985">
  <ele>-4.99</ele>
  <time>2026-09-01T01:14:41Z</time>
  <course>229.07</course>
  <speed>0.99</speed>
  <fix>3d</fix>
</trkpt>
<trkpt lat="33.8107312" lon="-118.3937013">
  <ele>-5.015</ele>
  <time>2026-09-01T01:14:41Z</time>
  <course>230.3</course>
  <speed>0.9730878685915265</speed>
  <fix>3d</fix>
</trkpt>
<trkpt lat="33.8107318" lon="-118.3937001">
  <ele>-4.94</ele>
  <time>2026-09-01T01:14:41Z</time>
  <course>229.0</course>
  <speed>0.99</speed>
  <fix>3d</fix>
</trkpt>
<trkpt lat="33.8107307" lon="-118.3937021">
  <ele>-4.99</ele>
  <time>2026-09-01T01:14:41Z</time>
  <course>230.28</course>
  <speed>0.9730878685915265</speed>
  <fix>3d</fix>
</trkpt>
<trkpt lat="33.8107318" lon="-118.3937001">
  <ele>-4.94</ele>
  <time>2026-09-01T01:14:41Z</time>
  <course>229.0</course>
  <speed>0.99</speed>
  <fix>3d</fix>
</trkpt>
<trkpt lat="33.8107301" lon="-118.3937029">
  <ele>-4.965</ele>
  <time>2026-09-01T01:14:41Z</time>
  <course>230.28</course>
  <speed>0.9730878685915265</speed>
  <fix>3d</fix>
</trkpt>
<trkpt lat="33.8107306" lon="-118.3937018">
  <ele>-4.9</ele>
  <time>2026-09-01T01:14:41Z</time>
  <course>228.98</course>
  <speed>1.0</speed>
  <fix>3d</fix>
</trkpt>
<trkpt lat="33.8107295" lon="-118.3937037">
  <ele>-4.94</ele>
  <time>2026-09-01T01:14:41Z</time>
  <course>230.29</course>
  <speed>0.9730878685915265</speed>
  <fix>3d</fix>
</trkpt>
<trkpt lat="33.8107306" lon="-118.3937018">
  <ele>-4.9</ele>
  <time>2026-09-01T01:14:41Z</time>
  <course>228.98</course>
  <speed>1.0</speed>
  <fix>3d</fix>
</trkpt>
<trkpt lat="33.8107289" lon="-118.3937045">
  <ele>-4.916</ele>
  <time>2026-09-01T01:14:41Z</time>
  <course>230.29</course>
  <speed>0.9730878685915265</speed>
  <fix>3d</fix>
</trkpt>
<trkpt lat="33.8107294" lon="-118.3937034">
  <ele>-4.85</ele>
  <time>2026-09-01T01:14:41Z</time>
  <course>229.01</course>
  <speed>1.0</speed>
  <fix>3d</fix>
</trkpt>
<trkpt lat="33.8107283" lon="-118.3937053">
  <ele>-4.893</ele>
  <time>2026-09-01T01:14:41Z</time>
  <course>230.31</course>
  <speed>0.9730878685915265</speed>
  <fix>3d</fix>
</trkpt>
<trkpt lat="33.8107294" lon="-118.3937034">
  <ele>-4.85</ele>
  <time>2026-09-01T01:14:41Z</time>
  <course>229.01</course>
  <speed>1.0</speed>
  <fix>3d</fix>
</trkpt>
<trkpt lat="33.8107277" lon="-118.3937062">
  <ele>-4.871</ele>
  <time>2026-09-01T01:14:41Z</time>
  <course>230.33</course>
  <speed>0.9730878685915265</speed>
  <fix>3d</fix>
</trkpt>
<trkpt lat="33.8107283" lon="-118.3937051">
  <ele>-4.81</ele>
  <time>2026-09-01T01:14:41Z</time>
  <course>229.04</course>
  <speed>1.0</speed>
  <fix>3d</fix>
</trkpt>
<trkpt lat="33.8107271" lon="-118.393707">
  <ele>-4.848</ele>
  <time>2026-09-01T01:14:41Z</time>
  <course>230.34</course>
  <speed>0.9730878685915265</speed>
  <fix>3d</fix>
</trkpt>
<trkpt lat="33.8107283" lon="-118.3937051">
  <ele>-4.81</ele>
  <time>2026-09-01T01:14:41Z</time>
  <course>229.04</course>
  <speed>1.0</speed>
  <fix>3d</fix>
</trkpt>
<trkpt lat="33.8107265" lon="-118.3937078">
  <ele>-4.824</ele>
  <time>2026-09-01T01:14:41Z</time>
  <course>230.33</course>
  <speed>0.9730878685915265</speed>
  <fix>3d</fix>
</trkpt>
<trkpt lat="33.8107271" lon="-118.3937067">
  <ele>-4.76</ele>
  <time>2026-09-01T01:14:41Z</time>
  <course>229.04</course>
  <speed>1.0</speed>
  <fix>3d</fix>
</trkpt>
<trkpt lat="33.8107259" lon="-118.3937086">
  <ele>-4.799</ele>
  <time>2026-09-01T01:14:41Z</time>
  <course>230.32</course>
  <speed>0.9730878685915265</speed>
  <fix>3d</fix>
</trkpt>
<trkpt lat="33.8107271" lon="-118.3937067">
  <ele>-4.76</ele>
  <time>2026-09-01T01:14:41Z</time>
  <course>229.04</course>
  <speed>1.0</speed>
  <fix>3d</fix>
</trkpt>
<trkpt lat="33.8107254" lon="-118.3937094">
  <ele>-4.774</ele>
  <time>2026-09-01T01:14:41Z</time>
  <course>230.29</course>
  <speed>0.9730878685915265</speed>
  <fix>3d</fix>
</trkpt>
<trkpt lat="33.8107259" lon="-118.3937083">
  <ele>-4.71</ele>
  <time>2026-09-01T01:14:41Z</time>
  <course>228.99</course>
  <speed>0.99</speed>
  <fix>3d</fix>
</trkpt>
<trkpt lat="33.8107248" lon="-118.3937103">
  <ele>-4.749</ele>
  <time>2026-09-01T01:14:41Z</time>
  <course>230.27</course>
  <speed>0.9730878685915265</speed>
  <fix>3d</fix>
</trkpt>
<trkpt lat="33.8107259" lon="-118.3937083">
  <ele>-4.71</ele>
  <time>2026-09-01T01:14:41Z</time>
  <course>228.99</course>
  <speed>0.99</speed>
  <fix>3d</fix>
</trkpt>
<trkpt lat="33.8107242" lon="-118.3937111">
  <ele>-4.724</ele>
  <time>2026-09-01T01:14:41Z</time>
  <course>230.27</course>
  <speed>0.9730878685915265</speed>
  <fix>3d</fix>
</trkpt>
<trkpt lat="33.8107247" lon="-118.39371">
  <ele>-4.66</ele>
  <time>2026-09-01T01:14:41Z</time>
  <course>228.98</course>
  <speed>0.99</speed>
  <fix>3d</fix>
</trkpt>
<trkpt lat="33.8107236" lon="-118.3937119">
  <ele>-4.698</ele>
  <time>2026-09-01T01:14:41Z</time>
  <course>230.27</course>
  <speed>0.9730878685915265</speed>
  <fix>3d</fix>
</trkpt>
<trkpt lat="33.8107247" lon="-118.39371">
  <ele>-4.66</ele>
  <time>2026-09-01T01:14:41Z</time>
  <course>228.98</course>
  <speed>0.99</speed>
  <fix>3d</fix>
</trkpt>
<trkpt lat="33.810723" lon="-118.3937127">
  <ele>-4.673</ele>
  <time>2026-09-01T01:14:41Z</time>
  <course>230.29</course>
  <speed>0.9730878685915265</speed>
  <fix>3d</fix>
</trkpt>
<trkpt lat="33.8107235" lon="-118.3937116">
  <ele>-4.61</ele>
  <time>2026-09-01T01:14:41Z</time>
  <course>229.0</course>
  <speed>0.99</speed>
  <fix>3d</fix>
</trkpt>
<trkpt lat="33.8107224" lon="-118.3937135">
  <ele>-4.648</ele>
  <time>2026-09-01T01:14:41Z</time>
  <course>230.3</course>
  <speed>0.9730878685915265</speed>
  <fix>3d</fix>
</trkpt>
<trkpt lat="33.8107235" lon="-118.3937116">
  <ele>-4.61</ele>
  <time>2026-09-01T01:14:41Z</time>
  <course>229.0</course>
  <speed>0.99</speed>
  <fix>3d</fix>
</trkpt>
<trkpt lat="33.8107218" lon="-118.3937144">
  <ele>-4.624</ele>
  <time>2026-09-01T01:14:41Z</time>
  <course>230.32</course>
  <speed>0.9730878685915265</speed>
  <fix>3d</fix>
</trkpt>
<trkpt lat="33.8107223" lon="-118.3937132">
  <ele>-4.57</ele>
  <time>2026-09-01T01:14:41Z</time>
  <course>229.04</course>
  <speed>0.99</speed>
  <fix>3d</fix>
</trkpt>
<trkpt lat="33.8107212" lon="-118.3937152">
  <ele>-4.599</ele>
  <time>2026-09-01T01:14:41Z</time>
  <course>230.34</course>
  <speed>0.9730878685915265</speed>
  <fix>3d</fix>
</trkpt>
<trkpt lat="33.8107223" lon="-118.3937132">
  <ele>-4.57</ele>
  <time>2026-09-01T01:14:41Z</time>
  <course>229.04</course>
  <speed>0.99</speed>
  <fix>3d</fix>
</trkpt>
<trkpt lat="33.8107206" lon="-118.393716">
  <ele>-4.575</ele>
  <time>2026-09-01T01:14:41Z</time>
  <course>230.38</course>
  <speed>0.9730878685915265</speed>
  <fix>3d</fix>
</trkpt>
<trkpt lat="33.8107211" lon="-118.3937148">
  <ele>-4.52</ele>
  <time>2026-09-01T01:14:41Z</time>
  <course>229.1</course>
  <speed>0.99</speed>
  <fix>3d</fix>
</trkpt>
<trkpt lat="33.81072" lon="-118.3937168">
  <ele>-4.552</ele>
  <time>2026-09-01T01:14:41Z</time>
  <course>230.42</course>
  <speed>0.9730878685915265</speed>
  <fix>3d</fix>
</trkpt>
<trkpt lat="33.8107211" lon="-118.3937148">
  <ele>-4.52</ele>
  <time>2026-09-01T01:14:41Z</time>
  <course>229.1</course>
  <speed>0.99</speed>
  <fix>3d</fix>
</trkpt>
<trkpt lat="33.8107194" lon="-118.3937176">
  <ele>-4.529</ele>
  <time>2026-09-01T01:14:41Z</time>
  <course>230.47</course>
  <speed>0.9730878685915265</speed>
  <fix>3d</fix>
</trkpt>
<trkpt lat="33.81072" lon="-118.3937165">
  <ele>-4.47</ele>
  <time>2026-09-01T01:14:41Z</time>
  <course>229.18</course>
  <speed>0.99</speed>
  <fix>3d</fix>
</trkpt>
<trkpt lat="33.8107189" lon="-118.3937184">
  <ele>-4.505</ele>
  <time>2026-09-01T01:14:41Z</time>
  <course>230.51</course>
  <speed>0.9730878685915265</speed>
  <fix>3d</fix>
</trkpt>
<trkpt lat="33.81072" lon="-118.3937165">
  <ele>-4.47</ele>
  <time>2026-09-01T01:14:41Z</time>
  <course>229.18</course>
  <speed>0.99</speed>
  <fix>3d</fix>
</trkpt>
<trkpt lat="33.8107183" lon="-118.3937193">
  <ele>-4.481</ele>
  <time>2026-09-01T01:14:41Z</time>
  <course>230.53</course>
  <speed>0.9730878685915265</speed>
  <fix>3d</fix>
</trkpt>
<trkpt lat="33.8107189" lon="-118.3937181">
  <ele>-4.42</ele>
  <time>2026-09-01T01:14:41Z</time>
  <course>229.22</course>
  <speed>0.99</speed>
  <fix>3d</fix>
</trkpt>
<trkpt lat="33.8107177" lon="-118.3937201">
  <ele>-4.454</ele>
  <time>2026-09-01T01:14:41Z</time>
  <course>230.54</course>
  <speed>0.9730878685915265</speed>
  <fix>3d</fix>
</trkpt>
<trkpt lat="33.8107189" lon="-118.3937181">
  <ele>-4.42</ele>
  <time>2026-09-01T01:14:41Z</time>
  <course>229.22</course>
  <speed>0.99</speed>
  <fix>3d</fix>
</trkpt>
<trkpt lat="33.8107171" lon="-118.3937209">
  <ele>-4.428</ele>
  <time>2026-09-01T01:14:41Z</time>
  <course>230.52</course>
  <speed>0.9730878685915265</speed>
  <fix>3d</fix>
</trkpt>
<trkpt lat="33.8107177" lon="-118.3937197">
  <ele>-4.37</ele>
  <time>2026-09-01T01:14:41Z</time>
  <course>229.18</course>
  <speed>0.99</speed>
  <fix>3d</fix>
</trkpt>
<trkpt lat="33.8107165" lon="-118.3937217">
  <ele>-4.402</ele>
  <time>2026-09-01T01:14:41Z</time>
  <course>230.48</course>
  <speed>0.9730878685915265</speed>
  <fix>3d</fix>
</trkpt>
<trkpt lat="33.8107177" lon="-118.3937197">
  <ele>-4.37</ele>
  <time>2026-09-01T01:14:41Z</time>
  <course>229.18</course>
  <speed>0.99</speed>
  <fix>3d</fix>
</trkpt>
<trkpt lat="33.8107159" lon="-118.3937225">
  <ele>-4.377</ele>
  <time>2026-09-01T01:14:41Z</time>
  <course>230.46</course>
  <speed>0.9730878685915265</speed>
  <fix>3d</fix>
</trkpt>
<trkpt lat="33.8107165" lon="-118.3937214">
  <ele>-4.32</ele>
  <time>2026-09-01T01:14:41Z</time>
  <course>229.11</course>
  <speed>0.99</speed>
  <fix>3d</fix>
</trkpt>
<trkpt lat="33.8107153" lon="-118.3937233">
  <ele>-4.353</ele>
  <time>2026-09-01T01:14:41Z</time>
  <course>230.43</course>
  <speed>0.9730878685915265</speed>
  <fix>3d</fix>
</trkpt>
<trkpt lat="33.8107165" lon="-118.3937214">
  <ele>-4.32</ele>
  <time>2026-09-01T01:14:41Z</time>
  <course>229.11</course>
  <speed>0.99</speed>
  <fix>3d</fix>
</trkpt>
<trkpt lat="33.8107147" lon="-118.3937242">
  <ele>-4.329</ele>
  <time>2026-09-01T01:14:41Z</time>
  <course>230.41</course>
  <speed>0.9730878685915265</speed>
  <fix>3d</fix>
</trkpt>
<trkpt lat="33.8107153" lon="-118.393723">
  <ele>-4.28</ele>
  <time>2026-09-01T01:14:41Z</time>
  <course>229.06</course>
  <speed>0.99</speed>
  <fix>3d</fix>
</trkpt>
<trkpt lat="33.8107142" lon="-118.393725">
  <ele>-4.304</ele>
  <time>2026-09-01T01:14:41Z</time>
  <course>230.39</course>
  <speed>0.9730878685915265</speed>
  <fix>3d</fix>
</trkpt>
<trkpt lat="33.8107153" lon="-118.393723">
  <ele>-4.28</ele>
  <time>2026-09-01T01:14:41Z</time>
  <course>229.06</course>
  <speed>0.99</speed>
  <fix>3d</fix>
</trkpt>
<trkpt lat="33.8107136" lon="-118.3937258">
  <ele>-4.279</ele>
  <time>2026-09-01T01:14:41Z</time>
  <course>230.39</course>
  <speed>0.9730878685915265</speed>
  <fix>3d</fix>
</trkpt>
<trkpt lat="33.8107142" lon="-118.3937246">
  <ele>-4.23</ele>
  <time>2026-09-01T01:14:41Z</time>
  <course>229.06</course>
  <speed>0.99</speed>
  <fix>3d</fix>
</trkpt>
<trkpt lat="33.810713" lon="-118.3937266">
  <ele>-4.254</ele>
  <time>2026-09-01T01:14:41Z</time>
  <course>230.39</course>
  <speed>0.9730878685915265</speed>
  <fix>3d</fix>
</trkpt>
<trkpt lat="33.8107142" lon="-118.3937246">
  <ele>-4.23</ele>
  <time>2026-09-01T01:14:41Z</time>
  <course>229.06</course>
  <speed>0.99</speed>
  <fix>3d</fix>
</trkpt>
<trkpt lat="33.8107124" lon="-118.3937274">
  <ele>-4.228</ele>
  <time>2026-09-01T01:14:41Z</time>
  <course>230.39</course>
  <speed>0.9730878685915265</speed>
  <fix>3d</fix>
</trkpt>
<trkpt lat="33.810713" lon="-118.3937263">
  <ele>-4.18</ele>
  <time>2026-09-01T01:14:41Z</time>
  <course>229.07</course>
  <speed>1.0</speed>
  <fix>3d</fix>
</trkpt>
<trkpt lat="33.8107118" lon="-118.3937283">
  <ele>-4.203</ele>
  <time>2026-09-01T01:14:41Z</time>
  <course>230.37</course>
  <speed>0.9730878685915265</speed>
  <fix>3d</fix>
</trkpt>
<trkpt lat="33.810713" lon="-118.3937263">
  <ele>-4.18</ele>
  <time>2026-09-01T01:14:41Z</time>
  <course>229.07</course>
  <speed>1.0</speed>
  <fix>3d</fix>
</trkpt>
<trkpt lat="33.8107112" lon="-118.3937291">
  <ele>-4.179</ele>
  <time>2026-09-01T01:14:41Z</time>
  <course>230.35</course>
  <speed>0.9730878685915265</speed>
  <fix>3d</fix>
</trkpt>
<trkpt lat="33.8107118" lon="-118.3937278">
  <ele>-4.13</ele>
  <time>2026-09-01T01:14:41Z</time>
  <course>229.04</course>
  <speed>1.0</speed>
  <fix>3d</fix>
</trkpt>
<trkpt lat="33.8107106" lon="-118.3937299">
  <ele>-4.156</ele>
  <time>2026-09-01T01:14:41Z</time>
  <course>230.34</course>
  <speed>0.9730878685915265</speed>
  <fix>3d</fix>
</trkpt>
<trkpt lat="33.8107118" lon="-118.3937278">
  <ele>-4.13</ele>
  <time>2026-09-01T01:14:41Z</time>
  <course>229.04</course>
  <speed>1.0</speed>
  <fix>3d</fix>
</trkpt>
<trkpt lat="33.81071" lon="-118.3937307">
  <ele>-4.134</ele>
  <time>2026-09-01T01:14:41Z</time>
  <course>230.35</course>
  <speed>0.9730878685915265</speed>
  <fix>3d</fix>
</trkpt>
<trkpt lat="33.8107106" lon="-118.3937295">
  <ele>-4.08</ele>
  <time>2026-09-01T01:14:41Z</time>
  <course>229.06</course>
  <speed>1.0</speed>
  <fix>3d</fix>
</trkpt>
<trkpt lat="33.8107095" lon="-118.3937315">
  <ele>-4.111</ele>
  <time>2026-09-01T01:14:41Z</time>
  <course>230.37</course>
  <speed>0.9730878685915265</speed>
  <fix>3d</fix>
</trkpt>
<trkpt lat="33.8107106" lon="-118.3937295">
  <ele>-4.08</ele>
  <time>2026-09-01T01:14:41Z</time>
  <course>229.06</course>
  <speed>1.0</speed>
  <fix>3d</fix>
</trkpt>
<trkpt lat="33.8107089" lon="-118.3937323">
  <ele>-4.086</ele>
  <time>2026-09-01T01:14:41Z</time>
  <course>230.39</course>
  <speed>0.9730878685915265</speed>
  <fix>3d</fix>
</trkpt>
<trkpt lat="33.8107095" lon="-118.3937312">
  <ele>-4.04</ele>
  <time>2026-09-01T01:14:41Z</time>
  <course>229.12</course>
  <speed>1.0</speed>
  <fix>3d</fix>
</trkpt>
<trkpt lat="33.8107083" lon="-118.3937332">
  <ele>-4.061</ele>
  <time>2026-09-01T01:14:41Z</time>
  <course>230.4</course>
  <speed>0.9730878685915265</speed>
  <fix>3d</fix>
</trkpt>
<trkpt lat="33.8107095" lon="-118.3937312">
  <ele>-4.04</ele>
  <time>2026-09-01T01:14:41Z</time>
  <course>229.12</course>
  <speed>1.0</speed>
  <fix>3d</fix>
</trkpt>
<trkpt lat="33.8107077" lon="-118.393734">
  <ele>-4.035</ele>
  <time>2026-09-01T01:14:41Z</time>
  <course>230.38</course>
  <speed>0.9730878685915265</speed>
  <fix>3d</fix>
</trkpt>
<trkpt lat="33.8107083" lon="-118.3937328">
  <ele>-3.99</ele>
  <time>2026-09-01T01:14:41Z</time>
  <course>229.12</course>
  <speed>1.0</speed>
  <fix>3d</fix>
</trkpt>
<trkpt lat="33.8107071" lon="-118.3937348">
  <ele>-4.009</ele>
  <time>2026-09-01T01:14:41Z</time>
  <course>230.36</course>
  <speed>0.9730878685915265</speed>
  <fix>3d</fix>
</trkpt>
<trkpt lat="33.8107083" lon="-118.3937328">
  <ele>-3.99</ele>
  <time>2026-09-01T01:14:41Z</time>
  <course>229.12</course>
  <speed>1.0</speed>
  <fix>3d</fix>
</trkpt>
<trkpt lat="33.8107065" lon="-118.3937356">
  <ele>-3.983</ele>
  <time>2026-09-01T01:14:41Z</time>
  <course>230.33</course>
  <speed>0.9730878685915265</speed>
  <fix>3d</fix>
</trkpt>
<trkpt lat="33.8107071" lon="-118.3937345">
  <ele>-3.94</ele>
  <time>2026-09-01T01:14:41Z</time>
  <course>229.07</course>
  <speed>1.0</speed>
  <fix>3d</fix>
</trkpt>
<trkpt lat="33.8107059" lon="-118.3937364">
  <ele>-3.958</ele>
  <time>2026-09-01T01:14:41Z</time>
  <course>230.31</course>
  <speed>0.9730878685915265</speed>
  <fix>3d</fix>
</trkpt>
<trkpt lat="33.8107071" lon="-118.3937345">
  <ele>-3.94</ele>
  <time>2026-09-01T01:14:41Z</time>
  <course>229.07</course>
  <speed>1.0</speed>
  <fix>3d</fix>
</trkpt>
<trkpt lat="33.8107053" lon="-118.3937373">
  <ele>-3.932</ele>
  <time>2026-09-01T01:14:41Z</time>
  <course>230.29</course>
  <speed>0.9730878685915265</speed>
  <fix>3d</fix>
</trkpt>
<trkpt lat="33.8107059" lon="-118.393736">
  <ele>-3.89</ele>
  <time>2026-09-01T01:14:41Z</time>
  <course>229.03</course>
  <speed>1.0</speed>
  <fix>3d</fix>
</trkpt>
<trkpt lat="33.8107047" lon="-118.3937381">
  <ele>-3.907</ele>
  <time>2026-09-01T01:14:41Z</time>
  <course>230.27</course>
  <speed>0.9730878685915265</speed>
  <fix>3d</fix>
</trkpt>
<trkpt lat="33.8107059" lon="-118.393736">
  <ele>-3.89</ele>
  <time>2026-09-01T01:14:41Z</time>
  <course>229.03</course>
  <speed>1.0</speed>
  <fix>3d</fix>
</trkpt>
<trkpt lat="33.8107041" lon="-118.3937389">
  <ele>-3.884</ele>
  <time>2026-09-01T01:14:41Z</time>
  <course>230.29</course>
  <speed>0.9730878685915265</speed>
  <fix>3d</fix>
</trkpt>
<trkpt lat="33.8107047" lon="-118.3937377">
  <ele>-3.84</ele>
  <time>2026-09-01T01:14:41Z</time>
  <course>229.04</course>
  <speed>1.0</speed>
  <fix>3d</fix>
</trkpt>
<trkpt lat="33.8107036" lon="-118.3937397">
  <ele>-3.86</ele>
  <time>2026-09-01T01:14:41Z</time>
  <course>230.31</course>
  <speed>0.9730878685915265</speed>
  <fix>3d</fix>
</trkpt>
<trkpt lat="33.8107047" lon="-118.3937377">
  <ele>-3.84</ele>
  <time>2026-09-01T01:14:41Z</time>
  <course>229.04</course>
  <speed>1.0</speed>
  <fix>3d</fix>
</trkpt>
<trkpt lat="33.810703" lon="-118.3937405">
  <ele>-3.837</ele>
  <time>2026-09-01T01:14:41Z</time>
  <course>230.34</course>
  <speed>0.9730878685915265</speed>
  <fix>3d</fix>
</trkpt>
<trkpt lat="33.8107035" lon="-118.3937393">
  <ele>-3.79</ele>
  <time>2026-09-01T01:14:41Z</time>
  <course>229.11</course>
  <speed>1.0</speed>
  <fix>3d</fix>
</trkpt>
<trkpt lat="33.8107024" lon="-118.3937413">
  <ele>-3.813</ele>
  <time>2026-09-01T01:14:41Z</time>
  <course>230.37</course>
  <speed>0.9730878685915265</speed>
  <fix>3d</fix>
</trkpt>
<trkpt lat="33.8107035" lon="-118.3937393">
  <ele>-3.79</ele>
  <time>2026-09-01T01:14:41Z</time>
  <course>229.11</course>
  <speed>1.0</speed>
  <fix>3d</fix>
</trkpt>
<trkpt lat="33.8107018" lon="-118.3937422">
  <ele>-3.788</ele>
  <time>2026-09-01T01:14:41Z</time>
  <course>230.41</course>
  <speed>0.9730878685915265</speed>
  <fix>3d</fix>
</trkpt>
<trkpt lat="33.8107023" lon="-118.393741">
  <ele>-3.74</ele>
  <time>2026-09-01T01:14:41Z</time>
  <course>229.18</course>
  <speed>1.0</speed>
  <fix>3d</fix>
</trkpt>
<trkpt lat="33.8107012" lon="-118.393743">
  <ele>-3.764</ele>
  <time>2026-09-01T01:14:41Z</time>
  <course>230.45</course>
  <speed>0.9730878685915265</speed>
  <fix>3d</fix>
</trkpt>
<trkpt lat="33.8107023" lon="-118.393741">
  <ele>-3.74</ele>
  <time>2026-09-01T01:14:41Z</time>
  <course>229.18</course>
  <speed>1.0</speed>
  <fix>3d</fix>
</trkpt>
<trkpt lat="33.8107006" lon="-118.3937438">
  <ele>-3.739</ele>
  <time>2026-09-01T01:14:41Z</time>
  <course>230.48</course>
  <speed>0.9730878685915265</speed>
  <fix>3d</fix>
</trkpt>
<trkpt lat="33.8107011" lon="-118.3937427">
  <ele>-3.7</ele>
  <time>2026-09-01T01:14:41Z</time>
  <course>229.24</course>
  <speed>1.0</speed>
  <fix>3d</fix>
</trkpt>
<trkpt lat="33.8107" lon="-118.3937446">
  <ele>-3.714</ele>
  <time>2026-09-01T01:14:41Z</time>
  <course>230.51</course>
  <speed>0.9730878685915265</speed>
  <fix>3d</fix>
</trkpt>
<trkpt lat="33.8107011" lon="-118.3937427">
  <ele>-3.7</ele>
  <time>2026-09-01T01:14:41Z</time>
  <course>229.24</course>
  <speed>1.0</speed>
  <fix>3d</fix>
</trkpt>
<trkpt lat="33.8106994" lon="-118.3937454">
  <ele>-3.69</ele>
  <time>2026-09-01T01:14:41Z</time>
  <course>230.53</course>
  <speed>0.9730878685915265</speed>
  <fix>3d</fix>
</trkpt>
<trkpt lat="33.8107" lon="-118.3937443">
  <ele>-3.65</ele>
  <time>2026-09-01T01:14:41Z</time>
  <course>229.26</course>
  <speed>1.0</speed>
  <fix>3d</fix>
</trkpt>
<trkpt lat="33.8106988" lon="-118.3937463">
  <ele>-3.665</ele>
  <time>2026-09-01T01:14:41Z</time>
  <course>230.54</course>
  <speed>0.9730878685915265</speed>
  <fix>3d</fix>
</trkpt>
<trkpt lat="33.8107" lon="-118.3937443">
  <ele>-3.65</ele>
  <time>2026-09-01T01:14:41Z</time>
  <course>229.26</course>
  <speed>1.0</speed>
  <fix>3d</fix>
</trkpt>
<trkpt lat="33.8106982" lon="-118.3937471">
  <ele>-3.641</ele>
  <time>2026-09-01T01:14:41Z</time>
  <course>230.52</course>
  <speed>0.9730878685915265</speed>
  <fix>3d</fix>
</trkpt>
<trkpt lat="33.8106989" lon="-118.3937459">
  <ele>-3.6</ele>
  <time>2026-09-01T01:14:41Z</time>
  <course>229.25</course>
  <speed>0.99</speed>
  <fix>3d</fix>
</trkpt>
<trkpt lat="33.8106977" lon="-118.3937479">
  <ele>-3.617</ele>
  <time>2026-09-01T01:14:41Z</time>
  <course>230.5</course>
  <speed>0.9730878685915265</speed>
  <fix>3d</fix>
</trkpt>
<trkpt lat="33.8106989" lon="-118.3937459">
  <ele>-3.6</ele>
  <time>2026-09-01T01:14:41Z</time>
  <course>229.25</course>
  <speed>0.99</speed>
  <fix>3d</fix>
</trkpt>
<trkpt lat="33.8106971" lon="-118.3937487">
  <ele>-3.593</ele>
  <time>2026-09-01T01:14:41Z</time>
  <course>230.45</course>
  <speed>0.9730878685915265</speed>
  <fix>3d</fix>
</trkpt>
<trkpt lat="33.8106977" lon="-118.3937475">
  <ele>-3.55</ele>
  <time>2026-09-01T01:14:41Z</time>
  <course>229.19</course>
  <speed>0.99</speed>
  <fix>3d</fix>
</trkpt>
<trkpt lat="33.8106965" lon="-118.3937495">
  <ele>-3.568</ele>
  <time>2026-09-01T01:14:41Z</time>
  <course>230.41</course>
  <speed>0.9730878685915265</speed>
  <fix>3d</fix>
</trkpt>
<trkpt lat="33.8106977" lon="-118.3937475">
  <ele>-3.55</ele>
  <time>2026-09-01T01:14:41Z</time>
  <course>229.19</course>
  <speed>0.99</speed>
  <fix>3d</fix>
</trkpt>
<trkpt lat="33.8106959" lon="-118.3937503">
  <ele>-3.542</ele>
  <time>2026-09-01T01:14:41Z</time>
  <course>230.38</course>
  <speed>0.9730878685915265</speed>
  <fix>3d</fix>
</trkpt>
<trkpt lat="33.8106965" lon="-118.3937492">
  <ele>-3.5</ele>
  <time>2026-09-01T01:14:41Z</time>
  <course>229.12</course>
  <speed>1.0</speed>
  <fix>3d</fix>
</trkpt>
<trkpt lat="33.8106953" lon="-118.3937512">
  <ele>-3.516</ele>
  <time>2026-09-01T01:14:41Z</time>
  <course>230.36</course>
  <speed>0.9730878685915265</speed>
  <fix>3d</fix>
</trkpt>
<trkpt lat="33.8106965" lon="-118.3937492">
  <ele>-3.5</ele>
  <time>2026-09-01T01:14:41Z</time>
  <course>229.12</course>
  <speed>1.0</speed>
  <fix>3d</fix>
</trkpt>
<trkpt lat="33.8106947" lon="-118.393752">
  <ele>-3.49</ele>
  <time>2026-09-01T01:14:41Z</time>
  <course>230.33</course>
  <speed>0.9730878685915265</speed>
  <fix>3d</fix>
</trkpt>
<trkpt lat="33.8106953" lon="-118.3937508">
  <ele>-3.45</ele>
  <time>2026-09-01T01:14:41Z</time>
  <course>229.08</course>
  <speed>1.0</speed>
  <fix>3d</fix>
</trkpt>
<trkpt lat="33.8106941" lon="-118.3937528">
  <ele>-3.465</ele>
  <time>2026-09-01T01:14:41Z</time>
  <course>230.31</course>
  <speed>0.9730878685915265</speed>
  <fix>3d</fix>
</trkpt>
<trkpt lat="33.8106953" lon="-118.3937508">
  <ele>-3.45</ele>
  <time>2026-09-01T01:14:41Z</time>
  <course>229.08</course>
  <speed>1.0</speed>
  <fix>3d</fix>
</trkpt>
<trkpt lat="33.8106936" lon="-118.3937536">
  <ele>-3.438</ele>
  <time>2026-09-01T01:14:41Z</time>
  <course>230.3</course>
  <speed>0.9730878685915265</speed>
  <fix>3d</fix>
</trkpt>
<trkpt lat="33.8106942" lon="-118.3937525">
  <ele>-3.4</ele>
  <time>2026-09-01T01:14:41Z</time>
  <course>229.08</course>
  <speed>1.0</speed>
  <fix>3d</fix>
</trkpt>
<trkpt lat="33.810693" lon="-118.3937544">
  <ele>-3.412</ele>
  <time>2026-09-01T01:14:41Z</time>
  <course>230.29</course>
  <speed>0.9730878685915265</speed>
  <fix>3d</fix>
</trkpt>
<trkpt lat="33.8106942" lon="-118.3937525">
  <ele>-3.4</ele>
  <time>2026-09-01T01:14:41Z</time>
  <course>229.08</course>
  <speed>1.0</speed>
  <fix>3d</fix>
</trkpt>
<trkpt lat="33.8106924" lon="-118.3937553">
  <ele>-3.388</ele>
  <time>2026-09-01T01:14:41Z</time>
  <course>230.27</course>
  <speed>0.9730878685915265</speed>
  <fix>3d</fix>
</trkpt>
<trkpt lat="33.810693" lon="-118.3937541">
  <ele>-3.35</ele>
  <time>2026-09-01T01:14:41Z</time>
  <course>229.06</course>
  <speed>1.0</speed>
  <fix>3d</fix>
</trkpt>
<trkpt lat="33.8106918" lon="-118.3937561">
  <ele>-3.364</ele>
  <time>2026-09-01T01:14:41Z</time>
  <course>230.24</course>
  <speed>0.9730878685915265</speed>
  <fix>3d</fix>
</trkpt>
<trkpt lat="33.810693" lon="-118.3937541">
  <ele>-3.35</ele>
  <time>2026-09-01T01:14:41Z</time>
  <course>229.06</course>
  <speed>1.0</speed>
  <fix>3d</fix>
</trkpt>
<trkpt lat="33.8106912" lon="-118.3937569">
  <ele>-3.34</ele>
  <time>2026-09-01T01:14:41Z</time>
  <course>230.2</course>
  <speed>0.9730878685915265</speed>
  <fix>3d</fix>
</trkpt>
<trkpt lat="33.8106918" lon="-118.3937557">
  <ele>-3.3</ele>
  <time>2026-09-01T01:14:41Z</time>
  <course>229.01</course>
  <speed>1.0</speed>
  <fix>3d</fix>
</trkpt>
<trkpt lat="33.8106906" lon="-118.3937577">
  <ele>-3.317</ele>
  <time>2026-09-01T01:14:41Z</time>
  <course>230.18</course>
  <speed>0.9730878685915265</speed>
  <fix>3d</fix>
</trkpt>
<trkpt lat="33.8106918" lon="-118.3937557">
  <ele>-3.3</ele>
  <time>2026-09-01T01:14:41Z</time>
  <course>229.01</course>
  <speed>1.0</speed>
  <fix>3d</fix>
</trkpt>
<trkpt lat="33.81069" lon="-118.3937585">
  <ele>-3.294</ele>
  <time>2026-09-01T01:14:41Z</time>
  <course>230.17</course>
  <speed>0.9730878685915265</speed>
  <fix>3d</fix>
</trkpt>
<trkpt lat="33.8106906" lon="-118.3937574">
  <ele>-3.26</ele>
  <time>2026-09-01T01:14:41Z</time>
  <course>229.0</course>
  <speed>1.0</speed>
  <fix>3d</fix>
</trkpt>
<trkpt lat="33.8106894" lon="-118.3937594">
  <ele>-3.269</ele>
  <time>2026-09-01T01:14:41Z</time>
  <course>230.18</course>
  <speed>0.9730878685915265</speed>
  <fix>3d</fix>
</trkpt>
<trkpt lat="33.8106906" lon="-118.3937574">
  <ele>-3.26</ele>
  <time>2026-09-01T01:14:41Z</time>
  <course>229.0</course>
  <speed>1.0</speed>
  <fix>3d</fix>
</trkpt>
<trkpt lat="33.8106888" lon="-118.3937602">
  <ele>-3.243</ele>
  <time>2026-09-01T01:14:41Z</time>
  <course>230.17</course>
  <speed>0.9730878685915265</speed>
  <fix>3d</fix>
</trkpt>
<trkpt lat="33.8106894" lon="-118.393759">
  <ele>-3.21</ele>
  <time>2026-09-01T01:14:41Z</time>
  <course>229.0</course>
  <speed>1.0</speed>
  <fix>3d</fix>
</trkpt>
<trkpt lat="33.8106882" lon="-118.393761">
  <ele>-3.217</ele>
  <time>2026-09-01T01:14:41Z</time>
  <course>230.18</course>
  <speed>0.9730878685915265</speed>
  <fix>3d</fix>
</trkpt>
<trkpt lat="33.8106894" lon="-118.393759">
  <ele>-3.21</ele>
  <time>2026-09-01T01:14:41Z</time>
  <course>229.0</course>
  <speed>1.0</speed>
  <fix>3d</fix>
</trkpt>
<trkpt lat="33.8106877" lon="-118.3937618">
  <ele>-3.192</ele>
  <time>2026-09-01T01:14:41Z</time>
  <course>230.19</course>
  <speed>0.9730878685915265</speed>
  <fix>3d</fix>
</trkpt>
<trkpt lat="33.8106882" lon="-118.3937607">
  <ele>-3.16</ele>
  <time>2026-09-01T01:14:41Z</time>
  <course>229.01</course>
  <speed>1.0</speed>
  <fix>3d</fix>
</trkpt>
<trkpt lat="33.8106871" lon="-118.3937626">
  <ele>-3.166</ele>
  <time>2026-09-01T01:14:41Z</time>
  <course>230.2</course>
  <speed>0.9730878685915265</speed>
  <fix>3d</fix>
</trkpt>
<trkpt lat="33.8106882" lon="-118.3937607">
  <ele>-3.16</ele>
  <time>2026-09-01T01:14:41Z</time>
  <course>229.01</course>
  <speed>1.0</speed>
  <fix>3d</fix>
</trkpt>
<trkpt lat="33.8106865" lon="-118.3937635">
  <ele>-3.141</ele>
  <time>2026-09-01T01:14:41Z</time>
  <course>230.22</course>
  <speed>0.9730878685915265</speed>
  <fix>3d</fix>
</trkpt>
<trkpt lat="33.810687" lon="-118.3937623">
  <ele>-3.11</ele>
  <time>2026-09-01T01:14:41Z</time>
  <course>229.04</course>
  <speed>1.0</speed>
  <fix>3d</fix>
</trkpt>
<trkpt lat="33.8106859" lon="-118.3937643">
  <ele>-3.116</ele>
  <time>2026-09-01T01:14:41Z</time>
  <course>230.24</course>
  <speed>0.9730878685915265</speed>
  <fix>3d</fix>
</trkpt>
<trkpt lat="33.810687" lon="-118.3937623">
  <ele>-3.11</ele>
  <time>2026-09-01T01:14:41Z</time>
  <course>229.04</course>
  <speed>1.0</speed>
  <fix>3d</fix>
</trkpt>
<trkpt lat="33.8106853" lon="-118.3937651">
  <ele>-3.093</ele>
  <time>2026-09-01T01:14:41Z</time>
  <course>230.27</course>
  <speed>0.9730878685915265</speed>
  <fix>3d</fix>
</trkpt>
<trkpt lat="33.8106858" lon="-118.3937639">
  <ele>-3.07</ele>
  <time>2026-09-01T01:14:41Z</time>
  <course>229.06</course>
  <speed>0.99</speed>
  <fix>3d</fix>
</trkpt>
<trkpt lat="33.8106847" lon="-118.3937659">
  <ele>-3.069</ele>
  <time>2026-09-01T01:14:41Z</time>
  <course>230.3</course>
  <speed>0.9730878685915265</speed>
  <fix>3d</fix>
</trkpt>
<trkpt lat="33.8106858" lon="-118.3937639">
  <ele>-3.07</ele>
  <time>2026-09-01T01:14:41Z</time>
  <course>229.06</course>
  <speed>0.99</speed>
  <fix>3d</fix>
</trkpt>
<trkpt lat="33.8106841" lon="-118.3937667">
  <ele>-3.046</ele>
  <time>2026-09-01T01:14:41Z</time>
  <course>230.34</course>
  <speed>0.9730878685915265</speed>
  <fix>3d</fix>
</trkpt>
<trkpt lat="33.8106847" lon="-118.3937656">
  <ele>-3.02</ele>
  <time>2026-09-01T01:14:41Z</time>
  <course>229.13</course>
  <speed>0.99</speed>
  <fix>3d</fix>
</trkpt>
<trkpt lat="33.8106835" lon="-118.3937675">
  <ele>-3.024</ele>
  <time>2026-09-01T01:14:41Z</time>
  <course>230.36</course>
  <speed>0.9730878685915265</speed>
  <fix>3d</fix>
</trkpt>
<trkpt lat="33.8106847" lon="-118.3937656">
  <ele>-3.02</ele>
  <time>2026-09-01T01:14:41Z</time>
  <course>229.13</course>
  <speed>0.99</speed>
  <fix>3d</fix>
</trkpt>
<trkpt lat="33.8106829" lon="-118.3937684">
  <ele>-3.001</ele>
  <time>2026-09-01T01:14:41Z</time>
  <course>230.37</course>
  <speed>0.9730878685915265</speed>
  <fix>3d</fix>
</trkpt>
<trkpt lat="33.8106836" lon="-118.3937671">
  <ele>-2.98</ele>
  <time>2026-09-01T01:14:41Z</time>
  <course>229.15</course>
  <speed>0.99</speed>
  <fix>3d</fix>
</trkpt>
<trkpt lat="33.8106823" lon="-118.3937692">
  <ele>-2.978</ele>
  <time>2026-09-01T01:14:41Z</time>
  <course>230.37</course>
  <speed>0.9730878685915265</speed>
  <fix>3d</fix>
</trkpt>
<trkpt lat="33.8106836" lon="-118.3937671">
  <ele>-2.98</ele>
  <time>2026-09-01T01:14:41Z</time>
  <course>229.15</course>
  <speed>0.99</speed>
  <fix>3d</fix>
</trkpt>
<trkpt lat="33.8106818" lon="-118.39377">
  <ele>-2.955</ele>
  <time>2026-09-01T01:14:41Z</time>
  <course>230.36</course>
  <speed>0.9730878685915265</speed>
  <fix>3d</fix>
</trkpt>
<trkpt lat="33.8106824" lon="-118.3937688">
  <ele>-2.93</ele>
  <time>2026-09-01T01:14:41Z</time>
  <course>229.12</course>
  <speed>0.99</speed>
  <fix>3d</fix>
</trkpt>
<trkpt lat="33.8106812" lon="-118.3937708">
  <ele>-2.93</ele>
  <time>2026-09-01T01:14:41Z</time>
  <course>230.34</course>
  <speed>0.9730878685915265</speed>
  <fix>3d</fix>
</trkpt>
<trkpt lat="33.8106824" lon="-118.3937688">
  <ele>-2.93</ele>
  <time>2026-09-01T01:14:41Z</time>
  <course>229.12</course>
  <speed>0.99</speed>
  <fix>3d</fix>
</trkpt>
<trkpt lat="33.8106806" lon="-118.3937716">
  <ele>-2.905</ele>
  <time>2026-09-01T01:14:41Z</time>
  <course>230.32</course>
  <speed>0.9730878685915265</speed>
  <fix>3d</fix>
</trkpt>
<trkpt lat="33.8106812" lon="-118.3937704">
  <ele>-2.88</ele>
  <time>2026-09-01T01:14:41Z</time>
  <course>229.08</course>
  <speed>0.99</speed>
  <fix>3d</fix>
</trkpt>
<trkpt lat="33.81068" lon="-118.3937724">
  <ele>-2.881</ele>
  <time>2026-09-01T01:14:41Z</time>
  <course>230.29</course>
  <speed>0.9730878685915265</speed>
  <fix>3d</fix>
</trkpt>
<trkpt lat="33.8106812" lon="-118.3937704">
  <ele>-2.88</ele>
  <time>2026-09-01T01:14:41Z</time>
  <course>229.08</course>
  <speed>0.99</speed>
  <fix>3d</fix>
</trkpt>
<trkpt lat="33.8106794" lon="-118.3937732">
  <ele>-2.855</ele>
  <time>2026-09-01T01:14:41Z</time>
  <course>230.28</course>
  <speed>0.9730878685915265</speed>
  <fix>3d</fix>
</trkpt>
<trkpt lat="33.81068" lon="-118.3937721">
  <ele>-2.83</ele>
  <time>2026-09-01T01:14:41Z</time>
  <course>229.05</course>
  <speed>1.0</speed>
  <fix>3d</fix>
</trkpt>
<trkpt lat="33.8106788" lon="-118.3937741">
  <ele>-2.83</ele>
  <time>2026-09-01T01:14:41Z</time>
  <course>230.27</course>
  <speed>0.9730878685915265</speed>
  <fix>3d</fix>
</trkpt>
<trkpt lat="33.81068" lon="-118.3937721">
  <ele>-2.83</ele>
  <time>2026-09-01T01:14:41Z</time>
  <course>229.05</course>
  <speed>1.0</speed>
  <fix>3d</fix>
</trkpt>
<trkpt lat="33.8106782" lon="-118.3937749">
  <ele>-2.804</ele>
  <time>2026-09-01T01:14:41Z</time>
  <course>230.26</course>
  <speed>0.9730878685915265</speed>
  <fix>3d</fix>
</trkpt>
<trkpt lat="33.8106789" lon="-118.3937737">
  <ele>-2.78</ele>
  <time>2026-09-01T01:14:41Z</time>
  <course>229.04</course>
  <speed>1.0</speed>
  <fix>3d</fix>
</trkpt>
<trkpt lat="33.8106777" lon="-118.3937757">
  <ele>-2.778</ele>
  <time>2026-09-01T01:14:41Z</time>
  <course>230.25</course>
  <speed>0.9730878685915265</speed>
  <fix>3d</fix>
</trkpt>
<trkpt lat="33.8106789" lon="-118.3937737">
  <ele>-2.78</ele>
  <time>2026-09-01T01:14:41Z</time>
  <course>229.04</course>
  <speed>1.0</speed>
  <fix>3d</fix>
</trkpt>
<trkpt lat="33.8106771" lon="-118.3937765">
  <ele>-2.752</ele>
  <time>2026-09-01T01:14:41Z</time>
  <course>230.24</course>
  <speed>0.9730878685915265</speed>
  <fix>3d</fix>
</trkpt>
<trkpt lat="33.8106777" lon="-118.3937754">
  <ele>-2.73</ele>
  <time>2026-09-01T01:14:41Z</time>
  <course>229.01</course>
  <speed>1.0</speed>
  <fix>3d</fix>
</trkpt>
<trkpt lat="33.8106765" lon="-118.3937773">
  <ele>-2.727</ele>
  <time>2026-09-01T01:14:41Z</time>
  <course>230.22</course>
  <speed>0.9730878685915265</speed>
  <fix>3d</fix>
</trkpt>
<trkpt lat="33.8106777" lon="-118.3937754">
  <ele>-2.73</ele>
  <time>2026-09-01T01:14:41Z</time>
  <course>229.01</course>
  <speed>1.0</speed>
  <fix>3d</fix>
</trkpt>
<trkpt lat="33.8106759" lon="-118.3937781">
  <ele>-2.702</ele>
  <time>2026-09-01T01:14:41Z</time>
  <course>230.19</course>
  <speed>0.9794896630388705</speed>
  <fix>3d</fix>
</trkpt>
<trkpt lat="33.8106765" lon="-118.393777">
  <ele>-2.68</ele>
  <time>2026-09-01T01:14:41Z</time>
  <course>228.97</course>
  <speed>1.0</speed>
  <fix>3d</fix>
</trkpt>
<trkpt lat="33.8106753" lon="-118.393779">
  <ele>-2.675</ele>
  <time>2026-09-01T01:14:41Z</time>
  <course>230.16</course>
  <speed>0.9730878685915265</speed>
  <fix>3d</fix>
</trkpt>
<trkpt lat="33.8106765" lon="-118.393777">
  <ele>-2.68</ele>
  <time>2026-09-01T01:14:41Z</time>
  <course>228.97</course>
  <speed>1.0</speed>
  <fix>3d</fix>
</trkpt>
<trkpt lat="33.8106747" lon="-118.3937798">
  <ele>-2.649</ele>
  <time>2026-09-01T01:14:41Z</time>
  <course>230.14</course>
  <speed>0.9730878685915265</speed>
  <fix>3d</fix>
</trkpt>
<trkpt lat="33.8106753" lon="-118.3937786">
  <ele>-2.63</ele>
  <time>2026-09-01T01:14:41Z</time>
  <course>228.94</course>
  <speed>1.0</speed>
  <fix>3d</fix>
</trkpt>
<trkpt lat="33.8106741" lon="-118.3937806">
  <ele>-2.622</ele>
  <time>2026-09-01T01:14:41Z</time>
  <course>230.13</course>
  <speed>0.9730878685915265</speed>
  <fix>3d</fix>
</trkpt>
<trkpt lat="33.8106753" lon="-118.3937786">
  <ele>-2.63</ele>
  <time>2026-09-01T01:14:41Z</time>
  <course>228.94</course>
  <speed>1.0</speed>
  <fix>3d</fix>
</trkpt>
<trkpt lat="33.8106735" lon="-118.3937814">
  <ele>-2.596</ele>
  <time>2026-09-01T01:14:41Z</time>
  <course>230.14</course>
  <speed>0.9730878685915265</speed>
  <fix>3d</fix>
</trkpt>
<trkpt lat="33.8106741" lon="-118.3937803">
  <ele>-2.58</ele>
  <time>2026-09-01T01:14:41Z</time>
  <course>228.94</course>
  <speed>1.0</speed>
  <fix>3d</fix>
</trkpt>
<trkpt lat="33.810673" lon="-118.3937822">
  <ele>-2.571</ele>
  <time>2026-09-01T01:14:41Z</time>
  <course>230.15</course>
  <speed>0.9730878685915265</speed>
  <fix>3d</fix>
</trkpt>
<trkpt lat="33.8106741" lon="-118.3937803">
  <ele>-2.58</ele>
  <time>2026-09-01T01:14:41Z</time>
  <course>228.94</course>
  <speed>1.0</speed>
  <fix>3d</fix>
</trkpt>
<trkpt lat="33.8106724" lon="-118.3937831">
  <ele>-2.547</ele>
  <time>2026-09-01T01:14:41Z</time>
  <course>230.17</course>
  <speed>0.9730878685915265</speed>
  <fix>3d</fix>
</trkpt>
<trkpt lat="33.8106729" lon="-118.3937819">
  <ele>-2.54</ele>
  <time>2026-09-01T01:14:41Z</time>
  <course>228.96</course>
  <speed>1.0</speed>
  <fix>3d</fix>
</trkpt>
<trkpt lat="33.8106718" lon="-118.3937839">
  <ele>-2.525</ele>
  <time>2026-09-01T01:14:41Z</time>
  <course>230.19</course>
  <speed>0.9730878685915265</speed>
  <fix>3d</fix>
</trkpt>
<trkpt lat="33.8106729" lon="-118.3937819">
  <ele>-2.54</ele>
  <time>2026-09-01T01:14:41Z</time>
  <course>228.96</course>
  <speed>1.0</speed>
  <fix>3d</fix>
</trkpt>
<trkpt lat="33.8106712" lon="-118.3937847">
  <ele>-2.503</ele>
  <time>2026-09-01T01:14:41Z</time>
  <course>230.21</course>
  <speed>0.9730878685915265</speed>
  <fix>3d</fix>
</trkpt>
<trkpt lat="33.8106717" lon="-118.3937836">
  <ele>-2.49</ele>
  <time>2026-09-01T01:14:41Z</time>
  <course>229.0</course>
  <speed>1.0</speed>
  <fix>3d</fix>
</trkpt>
<trkpt lat="33.8106706" lon="-118.3937855">
  <ele>-2.482</ele>
  <time>2026-09-01T01:14:41Z</time>
  <course>230.23</course>
  <speed>0.9730878685915265</speed>
  <fix>3d</fix>
</trkpt>
<trkpt lat="33.8106717" lon="-118.3937836">
  <ele>-2.49</ele>
  <time>2026-09-01T01:14:41Z</time>
  <course>229.0</course>
  <speed>1.0</speed>
  <fix>3d</fix>
</trkpt>
<trkpt lat="33.81067" lon="-118.3937863">
  <ele>-2.46</ele>
  <time>2026-09-01T01:14:41Z</time>
  <course>230.25</course>
  <speed>0.9730878685915265</speed>
  <fix>3d</fix>
</trkpt>
<trkpt lat="33.8106705" lon="-118.3937852">
  <ele>-2.45</ele>
  <time>2026-09-01T01:14:41Z</time>
  <course>229.02</course>
  <speed>1.0</speed>
  <fix>3d</fix>
</trkpt>
<trkpt lat="33.8106694" lon="-118.3937871">
  <ele>-2.436</ele>
  <time>2026-09-01T01:14:41Z</time>
  <course>230.28</course>
  <speed>0.9730878685915265</speed>
  <fix>3d</fix>
</trkpt>
<trkpt lat="33.8106705" lon="-118.3937852">
  <ele>-2.45</ele>
  <time>2026-09-01T01:14:41Z</time>
  <course>229.02</course>
  <speed>1.0</speed>
  <fix>3d</fix>
</trkpt>
<trkpt lat="33.8106688" lon="-118.393788">
  <ele>-2.41</ele>
  <time>2026-09-01T01:14:41Z</time>
  <course>230.31</course>
  <speed>0.9730878685915265</speed>
  <fix>3d</fix>
</trkpt>
<trkpt lat="33.8106694" lon="-118.3937869">
  <ele>-2.4</ele>
  <time>2026-09-01T01:14:41Z</time>
  <course>229.04</course>
  <speed>1.0</speed>
  <fix>3d</fix>
</trkpt>
<trkpt lat="33.8106682" lon="-118.3937888">
  <ele>-2.384</ele>
  <time>2026-09-01T01:14:41Z</time>
  <course>230.32</course>
  <speed>0.9730878685915265</speed>
  <fix>3d</fix>
</trkpt>
<trkpt lat="33.8106694" lon="-118.3937869">
  <ele>-2.4</ele>
  <time>2026-09-01T01:14:41Z</time>
  <course>229.04</course>
  <speed>1.0</speed>
  <fix>3d</fix>
</trkpt>
<trkpt lat="33.8106676" lon="-118.3937896">
  <ele>-2.359</ele>
  <time>2026-09-01T01:14:41Z</time>
  <course>230.33</course>
  <speed>0.9730878685915265</speed>
  <fix>3d</fix>
</trkpt>
<trkpt lat="33.8106681" lon="-118.3937885">
  <ele>-2.35</ele>
  <time>2026-09-01T01:14:41Z</time>
  <course>229.03</course>
  <speed>1.0</speed>
  <fix>3d</fix>
</trkpt>
<trkpt lat="33.810667" lon="-118.3937904">
  <ele>-2.335</ele>
  <time>2026-09-01T01:14:41Z</time>
  <course>230.32</course>
  <speed>0.9730878685915265</speed>
  <fix>3d</fix>
</trkpt>
<trkpt lat="33.8106681" lon="-118.3937885">
  <ele>-2.35</ele>
  <time>2026-09-01T01:14:41Z</time>
  <course>229.03</course>
  <speed>1.0</speed>
  <fix>3d</fix>
</trkpt>
<trkpt lat="33.8106664" lon="-118.3937913">
  <ele>-2.31</ele>
  <time>2026-09-01T01:14:41Z</time>
  <course>230.34</course>
  <speed>0.9730878685915265</speed>
  <fix>3d</fix>
</trkpt>
<trkpt lat="33.8106669" lon="-118.3937901">
  <ele>-2.31</ele>
  <time>2026-09-01T01:14:41Z</time>
  <course>229.04</course>
  <speed>1.0</speed>
  <fix>3d</fix>
</trkpt>
<trkpt lat="33.8106659" lon="-118.3937921">
  <ele>-2.286</ele>
  <time>2026-09-01T01:14:41Z</time>
  <course>230.37</course>
  <speed>0.9730878685915265</speed>
  <fix>3d</fix>
</trkpt>
<trkpt lat="33.8106669" lon="-118.3937901">
  <ele>-2.31</ele>
  <time>2026-09-01T01:14:41Z</time>
  <course>229.04</course>
  <speed>1.0</speed>
  <fix>3d</fix>
</trkpt>
<trkpt lat="33.8106653" lon="-118.3937929">
  <ele>-2.26</ele>
  <time>2026-09-01T01:14:41Z</time>
  <course>230.42</course>
  <speed>0.9730878685915265</speed>
  <fix>3d</fix>
</trkpt>
<trkpt lat="33.8106657" lon="-118.3937918">
  <ele>-2.26</ele>
  <time>2026-09-01T01:14:41Z</time>
  <course>229.12</course>
  <speed>1.0</speed>
  <fix>3d</fix>
</trkpt>
<trkpt lat="33.8106647" lon="-118.3937937">
  <ele>-2.235</ele>
  <time>2026-09-01T01:14:41Z</time>
  <course>230.47</course>
  <speed>0.9730878685915265</speed>
  <fix>3d</fix>
</trkpt>
<trkpt lat="33.8106657" lon="-118.3937918">
  <ele>-2.26</ele>
  <time>2026-09-01T01:14:41Z</time>
  <course>229.12</course>
  <speed>1.0</speed>
  <fix>3d</fix>
</trkpt>
<trkpt lat="33.8106641" lon="-118.3937945">
  <ele>-2.212</ele>
  <time>2026-09-01T01:14:41Z</time>
  <course>230.52</course>
  <speed>0.9730878685915265</speed>
  <fix>3d</fix>
</trkpt>
<trkpt lat="33.8106646" lon="-118.3937934">
  <ele>-2.21</ele>
  <time>2026-09-01T01:14:41Z</time>
  <course>229.21</course>
  <speed>1.0</speed>
  <fix>3d</fix>
</trkpt>
<trkpt lat="33.8106635" lon="-118.3937953">
  <ele>-2.187</ele>
  <time>2026-09-01T01:14:41Z</time>
  <course>230.56</course>
  <speed>0.9730878685915265</speed>
  <fix>3d</fix>
</trkpt>
<trkpt lat="33.8106646" lon="-118.3937934">
  <ele>-2.21</ele>
  <time>2026-09-01T01:14:41Z</time>
  <course>229.21</course>
  <speed>1.0</speed>
  <fix>3d</fix>
</trkpt>
<trkpt lat="33.8106629" lon="-118.3937962">
  <ele>-2.163</ele>
  <time>2026-09-01T01:14:41Z</time>
  <course>230.59</course>
  <speed>0.9730878685915265</speed>
  <fix>3d</fix>
</trkpt>
<trkpt lat="33.8106634" lon="-118.3937951">
  <ele>-2.16</ele>
  <time>2026-09-01T01:14:41Z</time>
  <course>229.26</course>
  <speed>1.0</speed>
  <fix>3d</fix>
</trkpt>
<trkpt lat="33.8106623" lon="-118.393797">
  <ele>-2.138</ele>
  <time>2026-09-01T01:14:41Z</time>
  <course>230.6</course>
  <speed>0.9730878685915265</speed>
  <fix>3d</fix>
</trkpt>
<trkpt lat="33.8106634" lon="-118.3937951">
  <ele>-2.16</ele>
  <time>2026-09-01T01:14:41Z</time>
  <course>229.26</course>
  <speed>1.0</speed>
  <fix>3d</fix>
</trkpt>
<trkpt lat="33.8106617" lon="-118.3937978">
  <ele>-2.114</ele>
  <time>2026-09-01T01:14:41Z</time>
  <course>230.6</course>
  <speed>0.9730878685915265</speed>
  <fix>3d</fix>
</trkpt>
<trkpt lat="33.8106623" lon="-118.3937967">
  <ele>-2.11</ele>
  <time>2026-09-01T01:14:41Z</time>
  <course>229.25</course>
  <speed>1.0</speed>
  <fix>3d</fix>
</trkpt>
<trkpt lat="33.8106611" lon="-118.3937986">
  <ele>-2.09</ele>
  <time>2026-09-01T01:14:41Z</time>
  <course>230.58</course>
  <speed>0.9730878685915265</speed>
  <fix>3d</fix>
</trkpt>
<trkpt lat="33.8106623" lon="-118.3937967">
  <ele>-2.11</ele>
  <time>2026-09-01T01:14:41Z</time>
  <course>229.25</course>
  <speed>1.0</speed>
  <fix>3d</fix>
</trkpt>
<trkpt lat="33.8106605" lon="-118.3937994">
  <ele>-2.065</ele>
  <time>2026-09-01T01:14:41Z</time>
  <course>230.55</course>
  <speed>0.9730878685915265</speed>
  <fix>3d</fix>
</trkpt>
<trkpt lat="33.8106611" lon="-118.3937984">
  <ele>-2.06</ele>
  <time>2026-09-01T01:14:41Z</time>
  <course>229.21</course>
  <speed>1.0</speed>
  <fix>3d</fix>
</trkpt>
<trkpt lat="33.81066" lon="-118.3938003">
  <ele>-2.04</ele>
  <time>2026-09-01T01:14:41Z</time>
  <course>230.51</course>
  <speed>0.9730878685915265</speed>
  <fix>3d</fix>
</trkpt>
<trkpt lat="33.8106611" lon="-118.3937984">
  <ele>-2.06</ele>
  <time>2026-09-01T01:14:41Z</time>
  <course>229.21</course>
  <speed>1.0</speed>
  <fix>3d</fix>
</trkpt>
<trkpt lat="33.8106594" lon="-118.3938011">
  <ele>-2.016</ele>
  <time>2026-09-01T01:14:41Z</time>
  <course>230.47</course>
  <speed>0.9730878685915265</speed>
  <fix>3d</fix>
</trkpt>
<trkpt lat="33.8106599" lon="-118.3938">
  <ele>-2.01</ele>
  <time>2026-09-01T01:14:41Z</time>
  <course>229.14</course>
  <speed>1.0</speed>
  <fix>3d</fix>
</trkpt>
<trkpt lat="33.8106588" lon="-118.3938019">
  <ele>-1.991</ele>
  <time>2026-09-01T01:14:41Z</time>
  <course>230.42</course>
  <speed>0.9730878685915265</speed>
  <fix>3d</fix>
</trkpt>
<trkpt lat="33.8106599" lon="-118.3938">
  <ele>-2.01</ele>
  <time>2026-09-01T01:14:41Z</time>
  <course>229.14</course>
  <speed>1.0</speed>
  <fix>3d</fix>
</trkpt>
<trkpt lat="33.8106582" lon="-118.3938027">
  <ele>-1.966</ele>
  <time>2026-09-01T01:14:41Z</time>
  <course>230.4</course>
  <speed>0.9730878685915265</speed>
  <fix>3d</fix>
</trkpt>
<trkpt lat="33.8106588" lon="-118.3938016">
  <ele>-1.97</ele>
  <time>2026-09-01T01:14:41Z</time>
  <course>229.08</course>
  <speed>1.0</speed>
  <fix>3d</fix>
</trkpt>
<trkpt lat="33.8106576" lon="-118.3938035">
  <ele>-1.941</ele>
  <time>2026-09-01T01:14:41Z</time>
  <course>230.37</course>
  <speed>0.9730878685915265</speed>
  <fix>3d</fix>
</trkpt>
<trkpt lat="33.8106588" lon="-118.3938016">
  <ele>-1.97</ele>
  <time>2026-09-01T01:14:41Z</time>
  <course>229.08</course>
  <speed>1.0</speed>
  <fix>3d</fix>
</trkpt>
<trkpt lat="33.810657" lon="-118.3938044">
  <ele>-1.917</ele>
  <time>2026-09-01T01:14:41Z</time>
  <course>230.34</course>
  <speed>0.9730878685915265</speed>
  <fix>3d</fix>
</trkpt>
<trkpt lat="33.8106576" lon="-118.3938033">
  <ele>-1.92</ele>
  <time>2026-09-01T01:14:41Z</time>
  <course>229.05</course>
  <speed>1.0</speed>
  <fix>3d</fix>
</trkpt>
<trkpt lat="33.8106564" lon="-118.3938052">
  <ele>-1.892</ele>
  <time>2026-09-01T01:14:41Z</time>
  <course>230.31</course>
  <speed>0.9730878685915265</speed>
  <fix>3d</fix>
</trkpt>
<trkpt lat="33.8106576" lon="-118.3938033">
  <ele>-1.92</ele>
  <time>2026-09-01T01:14:41Z</time>
  <course>229.05</course>
  <speed>1.0</speed>
  <fix>3d</fix>
</trkpt>
<trkpt lat="33.8106558" lon="-118.393806">
  <ele>-1.866</ele>
  <time>2026-09-01T01:14:41Z</time>
  <course>230.28</course>
  <speed>0.9730878685915265</speed>
  <fix>3d</fix>
</trkpt>
<trkpt lat="33.8106564" lon="-118.3938049">
  <ele>-1.87</ele>
  <time>2026-09-01T01:14:41Z</time>
  <course>228.99</course>
  <speed>1.0</speed>
  <fix>3d</fix>
</trkpt>
<trkpt lat="33.8106553" lon="-118.3938068">
  <ele>-1.84</ele>
  <time>2026-09-01T01:14:41Z</time>
  <course>230.25</course>
  <speed>0.9730878685915265</speed>
  <fix>3d</fix>
</trkpt>
<trkpt lat="33.8106564" lon="-118.3938049">
  <ele>-1.87</ele>
  <time>2026-09-01T01:14:41Z</time>
  <course>228.99</course>
  <speed>1.0</speed>
  <fix>3d</fix>
</trkpt>
<trkpt lat="33.8106547" lon="-118.3938076">
  <ele>-1.814</ele>
  <time>2026-09-01T01:14:41Z</time>
  <course>230.22</course>
  <speed>0.9730878685915265</speed>
  <fix>3d</fix>
</trkpt>
<trkpt lat="33.8106552" lon="-118.3938065">
  <ele>-1.82</ele>
  <time>2026-09-01T01:14:41Z</time>
  <course>228.95</course>
  <speed>1.0</speed>
  <fix>3d</fix>
</trkpt>
<trkpt lat="33.8106541" lon="-118.3938085">
  <ele>-1.789</ele>
  <time>2026-09-01T01:14:41Z</time>
  <course>230.22</course>
  <speed>0.9730878685915265</speed>
  <fix>3d</fix>
</trkpt>
<trkpt lat="33.8106552" lon="-118.3938065">
  <ele>-1.82</ele>
  <time>2026-09-01T01:14:41Z</time>
  <course>228.95</course>
  <speed>1.0</speed>
  <fix>3d</fix>
</trkpt>
<trkpt lat="33.8106535" lon="-118.3938093">
  <ele>-1.764</ele>
  <time>2026-09-01T01:14:41Z</time>
  <course>230.22</course>
  <speed>0.9730878685915265</speed>
  <fix>3d</fix>
</trkpt>
<trkpt lat="33.810654" lon="-118.3938082">
  <ele>-1.77</ele>
  <time>2026-09-01T01:14:41Z</time>
  <course>228.96</course>
  <speed>1.0</speed>
  <fix>3d</fix>
</trkpt>
<trkpt lat="33.8106529" lon="-118.3938101">
  <ele>-1.739</ele>
  <time>2026-09-01T01:14:41Z</time>
  <course>230.24</course>
  <speed>0.9730878685915265</speed>
  <fix>3d</fix>
</trkpt>
<trkpt lat="33.810654" lon="-118.3938082">
  <ele>-1.77</ele>
  <time>2026-09-01T01:14:41Z</time>
  <course>228.96</course>
  <speed>1.0</speed>
  <fix>3d</fix>
</trkpt>
<trkpt lat="33.8106523" lon="-118.3938109">
  <ele>-1.714</ele>
  <time>2026-09-01T01:14:41Z</time>
  <course>230.25</course>
  <speed>0.9730878685915265</speed>
  <fix>3d</fix>
</trkpt>
<trkpt lat="33.8106529" lon="-118.3938097">
  <ele>-1.72</ele>
  <time>2026-09-01T01:14:41Z</time>
  <course>229.0</course>
  <speed>1.0</speed>
  <fix>3d</fix>
</trkpt>
<trkpt lat="33.8106517" lon="-118.3938117">
  <ele>-1.688</ele>
  <time>2026-09-01T01:14:41Z</time>
  <course>230.26</course>
  <speed>0.9730878685915265</speed>
  <fix>3d</fix>
</trkpt>
<trkpt lat="33.8106529" lon="-118.3938097">
  <ele>-1.72</ele>
  <time>2026-09-01T01:14:41Z</time>
  <course>229.0</course>
  <speed>1.0</speed>
  <fix>3d</fix>
</trkpt>
<trkpt lat="33.8106511" lon="-118.3938125">
  <ele>-1.664</ele>
  <time>2026-09-01T01:14:41Z</time>
  <course>230.28</course>
  <speed>0.9730878685915265</speed>
  <fix>3d</fix>
</trkpt>
<trkpt lat="33.8106517" lon="-118.3938114">
  <ele>-1.67</ele>
  <time>2026-09-01T01:14:41Z</time>
  <course>229.02</course>
  <speed>1.0</speed>
  <fix>3d</fix>
</trkpt>
<trkpt lat="33.8106505" lon="-118.3938133">
  <ele>-1.64</ele>
  <time>2026-09-01T01:14:41Z</time>
  <course>230.29</course>
  <speed>0.9730878685915265</speed>
  <fix>3d</fix>
</trkpt>
<trkpt lat="33.8106517" lon="-118.3938114">
  <ele>-1.67</ele>
  <time>2026-09-01T01:14:41Z</time>
  <course>229.02</course>
  <speed>1.0</speed>
  <fix>3d</fix>
</trkpt>
<trkpt lat="33.81065" lon="-118.3938142">
  <ele>-1.616</ele>
  <time>2026-09-01T01:14:41Z</time>
  <course>230.3</course>
  <speed>0.9730878685915265</speed>
  <fix>3d</fix>
</trkpt>
<trkpt lat="33.8106505" lon="-118.3938131">
  <ele>-1.63</ele>
  <time>2026-09-01T01:14:41Z</time>
  <course>229.05</course>
  <speed>1.0</speed>
  <fix>3d</fix>
</trkpt>
<trkpt lat="33.8106494" lon="-118.393815">
  <ele>-1.593</ele>
  <time>2026-09-01T01:14:41Z</time>
  <course>230.3</course>
  <speed>0.9730878685915265</speed>
  <fix>3d</fix>
</trkpt>
<trkpt lat="33.8106505" lon="-118.3938131">
  <ele>-1.63</ele>
  <time>2026-09-01T01:14:41Z</time>
  <course>229.05</course>
  <speed>1.0</speed>
  <fix>3d</fix>
</trkpt>
<trkpt lat="33.8106488" lon="-118.3938158">
  <ele>-1.569</ele>
  <time>2026-09-01T01:14:41Z</time>
  <course>230.29</course>
  <speed>0.9730878685915265</speed>
  <fix>3d</fix>
</trkpt>
<trkpt lat="33.8106493" lon="-118.3938147">
  <ele>-1.58</ele>
  <time>2026-09-01T01:14:41Z</time>
  <course>229.05</course>
  <speed>1.0</speed>
  <fix>3d</fix>
</trkpt>
<trkpt lat="33.8106482" lon="-118.3938166">
  <ele>-1.545</ele>
  <time>2026-09-01T01:14:41Z</time>
  <course>230.29</course>
  <speed>0.9730878685915265</speed>
  <fix>3d</fix>
</trkpt>
<trkpt lat="33.8106493" lon="-118.3938147">
  <ele>-1.58</ele>
  <time>2026-09-01T01:14:41Z</time>
  <course>229.05</course>
  <speed>1.0</speed>
  <fix>3d</fix>
</trkpt>
<trkpt lat="33.8106476" lon="-118.3938174">
  <ele>-1.521</ele>
  <time>2026-09-01T01:14:41Z</time>
  <course>230.29</course>
  <speed>0.9730878685915265</speed>
  <fix>3d</fix>
</trkpt>
<trkpt lat="33.8106481" lon="-118.3938163">
  <ele>-1.54</ele>
  <time>2026-09-01T01:14:41Z</time>
  <course>229.04</course>
  <speed>1.0</speed>
  <fix>3d</fix>
</trkpt>
<trkpt lat="33.810647" lon="-118.3938183">
  <ele>-1.498</ele>
  <time>2026-09-01T01:14:41Z</time>
  <course>230.3</course>
  <speed>0.9730878685915265</speed>
  <fix>3d</fix>
</trkpt>
<trkpt lat="33.8106481" lon="-118.3938163">
  <ele>-1.54</ele>
  <time>2026-09-01T01:14:41Z</time>
  <course>229.04</course>
  <speed>1.0</speed>
  <fix>3d</fix>
</trkpt>
<trkpt lat="33.8106464" lon="-118.3938191">
  <ele>-1.474</ele>
  <time>2026-09-01T01:14:41Z</time>
  <course>230.32</course>
  <speed>0.9730878685915265</speed>
  <fix>3d</fix>
</trkpt>
<trkpt lat="33.8106469" lon="-118.393818">
  <ele>-1.49</ele>
  <time>2026-09-01T01:14:41Z</time>
  <course>229.06</course>
  <speed>1.0</speed>
  <fix>3d</fix>
</trkpt>
<trkpt lat="33.8106458" lon="-118.3938199">
  <ele>-1.451</ele>
  <time>2026-09-01T01:14:41Z</time>
  <course>230.35</course>
  <speed>0.9730878685915265</speed>
  <fix>3d</fix>
</trkpt>
<trkpt lat="33.8106469" lon="-118.393818">
  <ele>-1.49</ele>
  <time>2026-09-01T01:14:41Z</time>
  <course>229.06</course>
  <speed>1.0</speed>
  <fix>3d</fix>
</trkpt>
<trkpt lat="33.8106452" lon="-118.3938207">
  <ele>-1.426</ele>
  <time>2026-09-01T01:14:41Z</time>
  <course>230.38</course>
  <speed>0.9730878685915265</speed>
  <fix>3d</fix>
</trkpt>
<trkpt lat="33.8106457" lon="-118.3938196">
  <ele>-1.44</ele>
  <time>2026-09-01T01:14:41Z</time>
  <course>229.1</course>
  <speed>1.0</speed>
  <fix>3d</fix>
</trkpt>
<trkpt lat="33.8106446" lon="-118.3938215">
  <ele>-1.401</ele>
  <time>2026-09-01T01:14:41Z</time>
  <course>230.4</course>
  <speed>0.9730878685915265</speed>
  <fix>3d</fix>
</trkpt>
<trkpt lat="33.8106457" lon="-118.3938196">
  <ele>-1.44</ele>
  <time>2026-09-01T01:14:41Z</time>
  <course>229.1</course>
  <speed>1.0</speed>
  <fix>3d</fix>
</trkpt>
<trkpt lat="33.810644" lon="-118.3938224">
  <ele>-1.376</ele>
  <time>2026-09-01T01:14:41Z</time>
  <course>230.43</course>
  <speed>0.9730878685915265</speed>
  <fix>3d</fix>
</trkpt>
<trkpt lat="33.8106445" lon="-118.3938212">
  <ele>-1.39</ele>
  <time>2026-09-01T01:14:41Z</time>
  <course>229.15</course>
  <speed>0.99</speed>
  <fix>3d</fix>
</trkpt>
<trkpt lat="33.8106434" lon="-118.3938232">
  <ele>-1.351</ele>
  <time>2026-09-01T01:14:41Z</time>
  <course>230.47</course>
  <speed>0.9730878685915265</speed>
  <fix>3d</fix>
</trkpt>
<trkpt lat="33.8106445" lon="-118.3938212">
  <ele>-1.39</ele>
  <time>2026-09-01T01:14:41Z</time>
  <course>229.15</course>
  <speed>0.99</speed>
  <fix>3d</fix>
</trkpt>
<trkpt lat="33.8106429" lon="-118.393824">
  <ele>-1.325</ele>
  <time>2026-09-01T01:14:41Z</time>
  <course>230.52</course>
  <speed>0.9730878685915265</speed>
  <fix>3d</fix>
</trkpt>
<trkpt lat="33.8106434" lon="-118.3938229">
  <ele>-1.34</ele>
  <time>2026-09-01T01:14:41Z</time>
  <course>229.23</course>
  <speed>0.99</speed>
  <fix>3d</fix>
</trkpt>
<trkpt lat="33.8106423" lon="-118.3938248">
  <ele>-1.3</ele>
  <time>2026-09-01T01:14:41Z</time>
  <course>230.56</course>
  <speed>0.9730878685915265</speed>
  <fix>3d</fix>
</trkpt>
<trkpt lat="33.8106434" lon="-118.3938229">
  <ele>-1.34</ele>
  <time>2026-09-01T01:14:41Z</time>
  <course>229.23</course>
  <speed>0.99</speed>
  <fix>3d</fix>
</trkpt>
<trkpt lat="33.8106417" lon="-118.3938256">
  <ele>-1.275</ele>
  <time>2026-09-01T01:14:41Z</time>
  <course>230.57</course>
  <speed>0.9730878685915265</speed>
  <fix>3d</fix>
</trkpt>
<trkpt lat="33.8106423" lon="-118.3938245">
  <ele>-1.29</ele>
  <time>2026-09-01T01:14:41Z</time>
  <course>229.28</course>
  <speed>0.99</speed>
  <fix>3d</fix>
</trkpt>
<trkpt lat="33.8106411" lon="-118.3938264">
  <ele>-1.25</ele>
  <time>2026-09-01T01:14:41Z</time>
  <course>230.56</course>
  <speed>0.9730878685915265</speed>
  <fix>3d</fix>
</trkpt>
<trkpt lat="33.8106423" lon="-118.3938245">
  <ele>-1.29</ele>
  <time>2026-09-01T01:14:41Z</time>
  <course>229.28</course>
  <speed>0.99</speed>
  <fix>3d</fix>
</trkpt>
<trkpt lat="33.8106405" lon="-118.3938273">
  <ele>-1.226</ele>
  <time>2026-09-01T01:14:41Z</time>
  <course>230.53</course>
  <speed>0.9730878685915265</speed>
  <fix>3d</fix>
</trkpt>
<trkpt lat="33.8106411" lon="-118.3938262">
  <ele>-1.24</ele>
  <time>2026-09-01T01:14:41Z</time>
  <course>229.22</course>
  <speed>0.99</speed>
  <fix>3d</fix>
</trkpt>
<trkpt lat="33.8106399" lon="-118.3938281">
  <ele>-1.201</ele>
  <time>2026-09-01T01:14:41Z</time>
  <course>230.48</course>
  <speed>0.9730878685915265</speed>
  <fix>3d</fix>
</trkpt>
<trkpt lat="33.8106411" lon="-118.3938262">
  <ele>-1.24</ele>
  <time>2026-09-01T01:14:41Z</time>
  <course>229.22</course>
  <speed>0.99</speed>
  <fix>3d</fix>
</trkpt>
<trkpt lat="33.8106393" lon="-118.3938289">
  <ele>-1.176</ele>
  <time>2026-09-01T01:14:41Z</time>
  <course>230.43</course>
  <speed>0.9730878685915265</speed>
  <fix>3d</fix>
</trkpt>
<trkpt lat="33.8106399" lon="-118.3938278">
  <ele>-1.19</ele>
  <time>2026-09-01T01:14:41Z</time>
  <course>229.12</course>
  <speed>0.99</speed>
  <fix>3d</fix>
</trkpt>
<trkpt lat="33.8106388" lon="-118.3938297">
  <ele>-1.152</ele>
  <time>2026-09-01T01:14:41Z</time>
  <course>230.38</course>
  <speed>0.9730878685915265</speed>
  <fix>3d</fix>
</trkpt>
<trkpt lat="33.8106399" lon="-118.3938278">
  <ele>-1.19</ele>
  <time>2026-09-01T01:14:41Z</time>
  <course>229.12</course>
  <speed>0.99</speed>
  <fix>3d</fix>
</trkpt>
<trkpt lat="33.8106382" lon="-118.3938305">
  <ele>-1.128</ele>
  <time>2026-09-01T01:14:41Z</time>
  <course>230.34</course>
  <speed>0.9730878685915265</speed>
  <fix>3d</fix>
</trkpt>
<trkpt lat="33.8106387" lon="-118.3938293">
  <ele>-1.14</ele>
  <time>2026-09-01T01:14:41Z</time>
  <course>229.06</course>
  <speed>0.99</speed>
  <fix>3d</fix>
</trkpt>
<trkpt lat="33.8106376" lon="-118.3938314">
  <ele>-1.102</ele>
  <time>2026-09-01T01:14:41Z</time>
  <course>230.33</course>
  <speed>0.9730878685915265</speed>
  <fix>3d</fix>
</trkpt>
<trkpt lat="33.8106387" lon="-118.3938293">
  <ele>-1.14</ele>
  <time>2026-09-01T01:14:41Z</time>
  <course>229.06</course>
  <speed>0.99</speed>
  <fix>3d</fix>
</trkpt>
<trkpt lat="33.810637" lon="-118.3938322">
  <ele>-1.076</ele>
  <time>2026-09-01T01:14:41Z</time>
  <course>230.34</course>
  <speed>0.9730878685915265</speed>
  <fix>3d</fix>
</trkpt>
<trkpt lat="33.8106376" lon="-118.393831">
  <ele>-1.09</ele>
  <time>2026-09-01T01:14:41Z</time>
  <course>229.08</course>
  <speed>0.99</speed>
  <fix>3d</fix>
</trkpt>
<trkpt lat="33.8106364" lon="-118.393833">
  <ele>-1.051</ele>
  <time>2026-09-01T01:14:41Z</time>
  <course>230.36</course>
  <speed>0.9730878685915265</speed>
  <fix>3d</fix>
</trkpt>
<trkpt lat="33.8106376" lon="-118.393831">
  <ele>-1.09</ele>
  <time>2026-09-01T01:14:41Z</time>
  <course>229.08</course>
  <speed>0.99</speed>
  <fix>3d</fix>
</trkpt>
<trkpt lat="33.8106358" lon="-118.3938338">
  <ele>-1.026</ele>
  <time>2026-09-01T01:14:41Z</time>
  <course>230.37</course>
  <speed>0.9730878685915265</speed>
  <fix>3d</fix>
</trkpt>
<trkpt lat="33.8106364" lon="-118.3938327">
  <ele>-1.04</ele>
  <time>2026-09-01T01:14:41Z</time>
  <course>229.11</course>
  <speed>1.0</speed>
  <fix>3d</fix>
</trkpt>
<trkpt lat="33.8106352" lon="-118.3938346">
  <ele>-1.001</ele>
  <time>2026-09-01T01:14:41Z</time>
  <course>230.36</course>
  <speed>0.9730878685915265</speed>
  <fix>3d</fix>
</trkpt>
<trkpt lat="33.8106364" lon="-118.3938327">
  <ele>-1.04</ele>
  <time>2026-09-01T01:14:41Z</time>
  <course>229.11</course>
  <speed>1.0</speed>
  <fix>3d</fix>
</trkpt>
<trkpt lat="33.8106346" lon="-118.3938354">
  <ele>-0.975</ele>
  <time>2026-09-01T01:14:41Z</time>
  <course>230.34</course>
  <speed>0.9730878685915265</speed>
  <fix>3d</fix>
</trkpt>
<trkpt lat="33.8106352" lon="-118.3938343">
  <ele>-1.0</ele>
  <time>2026-09-01T01:14:41Z</time>
  <course>229.09</course>
  <speed>1.0</speed>
  <fix>3d</fix>
</trkpt>
<trkpt lat="33.810634" lon="-118.3938363">
  <ele>-0.95</ele>
  <time>2026-09-01T01:14:41Z</time>
  <course>230.32</course>
  <speed>0.9730878685915265</speed>
  <fix>3d</fix>
</trkpt>
<trkpt lat="33.8106352" lon="-118.3938343">
  <ele>-1.0</ele>
  <time>2026-09-01T01:14:41Z</time>
  <course>229.09</course>
  <speed>1.0</speed>
  <fix>3d</fix>
</trkpt>
<trkpt lat="33.8106335" lon="-118.3938371">
  <ele>-0.924</ele>
  <time>2026-09-01T01:14:41Z</time>
  <course>230.31</course>
  <speed>0.9730878685915265</speed>
  <fix>3d</fix>
</trkpt>
<trkpt lat="33.810634" lon="-118.393836">
  <ele>-0.95</ele>
  <time>2026-09-01T01:14:41Z</time>
  <course>229.06</course>
  <speed>1.0</speed>
  <fix>3d</fix>
</trkpt>
<trkpt lat="33.8106329" lon="-118.3938379">
  <ele>-0.898</ele>
  <time>2026-09-01T01:14:41Z</time>
  <course>230.31</course>
  <speed>0.9730878685915265</speed>
  <fix>3d</fix>
</trkpt>
<trkpt lat="33.810634" lon="-118.393836">
  <ele>-0.95</ele>
  <time>2026-09-01T01:14:41Z</time>
  <course>229.06</course>
  <speed>1.0</speed>
  <fix>3d</fix>
</trkpt>
<trkpt lat="33.8106323" lon="-118.3938387">
  <ele>-0.874</ele>
  <time>2026-09-01T01:14:41Z</time>
  <course>230.3</course>
  <speed>0.9730878685915265</speed>
  <fix>3d</fix>
</trkpt>
<trkpt lat="33.8106329" lon="-118.3938375">
  <ele>-0.9</ele>
  <time>2026-09-01T01:14:41Z</time>
  <course>229.04</course>
  <speed>1.0</speed>
  <fix>3d</fix>
</trkpt>
<trkpt lat="33.8106317" lon="-118.3938395">
  <ele>-0.85</ele>
  <time>2026-09-01T01:14:41Z</time>
  <course>230.29</course>
  <speed>0.9730878685915265</speed>
  <fix>3d</fix>
</trkpt>
<trkpt lat="33.8106329" lon="-118.3938375">
  <ele>-0.9</ele>
  <time>2026-09-01T01:14:41Z</time>
  <course>229.04</course>
  <speed>1.0</speed>
  <fix>3d</fix>
</trkpt>
<trkpt lat="33.8106311" lon="-118.3938404">
  <ele>-0.827</ele>
  <time>2026-09-01T01:14:41Z</time>
  <course>230.3</course>
  <speed>0.9730878685915265</speed>
  <fix>3d</fix>
</trkpt>
<trkpt lat="33.8106317" lon="-118.3938392">
  <ele>-0.86</ele>
  <time>2026-09-01T01:14:41Z</time>
  <course>229.04</course>
  <speed>1.0</speed>
  <fix>3d</fix>
</trkpt>
<trkpt lat="33.8106305" lon="-118.3938412">
  <ele>-0.803</ele>
  <time>2026-09-01T01:14:41Z</time>
  <course>230.3</course>
  <speed>0.9730878685915265</speed>
  <fix>3d</fix>
</trkpt>
<trkpt lat="33.8106317" lon="-118.3938392">
  <ele>-0.86</ele>
  <time>2026-09-01T01:14:41Z</time>
  <course>229.04</course>
  <speed>1.0</speed>
  <fix>3d</fix>
</trkpt>
<trkpt lat="33.8106299" lon="-118.393842">
  <ele>-0.779</ele>
  <time>2026-09-01T01:14:41Z</time>
  <course>230.29</course>
  <speed>0.9730878685915265</speed>
  <fix>3d</fix>
</trkpt>
<trkpt lat="33.8106305" lon="-118.3938408">
  <ele>-0.81</ele>
  <time>2026-09-01T01:14:41Z</time>
  <course>229.03</course>
  <speed>1.0</speed>
  <fix>3d</fix>
</trkpt>
<trkpt lat="33.8106293" lon="-118.3938428">
  <ele>-0.755</ele>
  <time>2026-09-01T01:14:41Z</time>
  <course>230.29</course>
  <speed>0.9730878685915265</speed>
  <fix>3d</fix>
</trkpt>
<trkpt lat="33.8106305" lon="-118.3938408">
  <ele>-0.81</ele>
  <time>2026-09-01T01:14:41Z</time>
  <course>229.03</course>
  <speed>1.0</speed>
  <fix>3d</fix>
</trkpt>
<trkpt lat="33.8106287" lon="-118.3938436">
  <ele>-0.73</ele>
  <time>2026-09-01T01:14:41Z</time>
  <course>230.29</course>
  <speed>0.9730878685915265</speed>
  <fix>3d</fix>
</trkpt>
<trkpt lat="33.8106292" lon="-118.3938425">
  <ele>-0.77</ele>
  <time>2026-09-01T01:14:41Z</time>
  <course>229.03</course>
  <speed>1.0</speed>
  <fix>3d</fix>
</trkpt>
<trkpt lat="33.8106282" lon="-118.3938444">
  <ele>-0.707</ele>
  <time>2026-09-01T01:14:41Z</time>
  <course>230.31</course>
  <speed>0.9730878685915265</speed>
  <fix>3d</fix>
</trkpt>
<trkpt lat="33.8106292" lon="-118.3938425">
  <ele>-0.77</ele>
  <time>2026-09-01T01:14:41Z</time>
  <course>229.03</course>
  <speed>1.0</speed>
  <fix>3d</fix>
</trkpt>
<trkpt lat="33.8106276" lon="-118.3938453">
  <ele>-0.684</ele>
  <time>2026-09-01T01:14:41Z</time>
  <course>230.35</course>
  <speed>0.9730878685915265</speed>
  <fix>3d</fix>
</trkpt>
<trkpt lat="33.8106281" lon="-118.3938441">
  <ele>-0.72</ele>
  <time>2026-09-01T01:14:41Z</time>
  <course>229.08</course>
  <speed>1.0</speed>
  <fix>3d</fix>
</trkpt>
<trkpt lat="33.810627" lon="-118.3938461">
  <ele>-0.661</ele>
  <time>2026-09-01T01:14:41Z</time>
  <course>230.38</course>
  <speed>0.9730878685915265</speed>
  <fix>3d</fix>
</trkpt>
<trkpt lat="33.8106281" lon="-118.3938441">
  <ele>-0.72</ele>
  <time>2026-09-01T01:14:41Z</time>
  <course>229.08</course>
  <speed>1.0</speed>
  <fix>3d</fix>
</trkpt>
<trkpt lat="33.8106264" lon="-118.3938469">
  <ele>-0.637</ele>
  <time>2026-09-01T01:14:41Z</time>
  <course>230.42</course>
  <speed>0.9730878685915265</speed>
  <fix>3d</fix>
</trkpt>
<trkpt lat="33.8106269" lon="-118.3938458">
  <ele>-0.67</ele>
  <time>2026-09-01T01:14:41Z</time>
  <course>229.14</course>
  <speed>1.0</speed>
  <fix>3d</fix>
</trkpt>
<trkpt lat="33.8106258" lon="-118.3938477">
  <ele>-0.613</ele>
  <time>2026-09-01T01:14:41Z</time>
  <course>230.44</course>
  <speed>0.9730878685915265</speed>
  <fix>3d</fix>
</trkpt>
<trkpt lat="33.8106269" lon="-118.3938458">
  <ele>-0.67</ele>
  <time>2026-09-01T01:14:41Z</time>
  <course>229.14</course>
  <speed>1.0</speed>
  <fix>3d</fix>
</trkpt>
<trkpt lat="33.8106252" lon="-118.3938485">
  <ele>-0.589</ele>
  <time>2026-09-01T01:14:41Z</time>
  <course>230.46</course>
  <speed>0.9730878685915265</speed>
  <fix>3d</fix>
</trkpt>
<trkpt lat="33.8106257" lon="-118.3938474">
  <ele>-0.63</ele>
  <time>2026-09-01T01:14:41Z</time>
  <course>229.16</course>
  <speed>0.99</speed>
  <fix>3d</fix>
</trkpt>
<trkpt lat="33.8106246" lon="-118.3938494">
  <ele>-0.565</ele>
  <time>2026-09-01T01:14:41Z</time>
  <course>230.47</course>
  <speed>0.9730878685915265</speed>
  <fix>3d</fix>
</trkpt>
<trkpt lat="33.8106257" lon="-118.3938474">
  <ele>-0.63</ele>
  <time>2026-09-01T01:14:41Z</time>
  <course>229.16</course>
  <speed>0.99</speed>
  <fix>3d</fix>
</trkpt>
<trkpt lat="33.810624" lon="-118.3938502">
  <ele>-0.539</ele>
  <time>2026-09-01T01:14:41Z</time>
  <course>230.48</course>
  <speed>0.9730878685915265</speed>
  <fix>3d</fix>
</trkpt>
<trkpt lat="33.8106246" lon="-118.393849">
  <ele>-0.58</ele>
  <time>2026-09-01T01:14:41Z</time>
  <course>229.18</course>
  <speed>0.99</speed>
  <fix>3d</fix>
</trkpt>
<trkpt lat="33.8106234" lon="-118.393851">
  <ele>-0.515</ele>
  <time>2026-09-01T01:14:41Z</time>
  <course>230.49</course>
  <speed>0.9730878685915265</speed>
  <fix>3d</fix>
</trkpt>
<trkpt lat="33.8106246" lon="-118.393849">
  <ele>-0.58</ele>
  <time>2026-09-01T01:14:41Z</time>
  <course>229.18</course>
  <speed>0.99</speed>
  <fix>3d</fix>
</trkpt>
<trkpt lat="33.8106228" lon="-118.3938518">
  <ele>-0.49</ele>
  <time>2026-09-01T01:14:41Z</time>
  <course>230.49</course>
  <speed>0.9730878685915265</speed>
  <fix>3d</fix>
</trkpt>
<trkpt lat="33.8106235" lon="-118.3938507">
  <ele>-0.53</ele>
  <time>2026-09-01T01:14:41Z</time>
  <course>229.19</course>
  <speed>0.99</speed>
  <fix>3d</fix>
</trkpt>
<trkpt lat="33.8106223" lon="-118.3938526">
  <ele>-0.467</ele>
  <time>2026-09-01T01:14:41Z</time>
  <course>230.47</course>
  <speed>0.9730878685915265</speed>
  <fix>3d</fix>
</trkpt>
<trkpt lat="33.8106235" lon="-118.3938507">
  <ele>-0.53</ele>
  <time>2026-09-01T01:14:41Z</time>
  <course>229.19</course>
  <speed>0.99</speed>
  <fix>3d</fix>
</trkpt>
<trkpt lat="33.8106217" lon="-118.3938534">
  <ele>-0.442</ele>
  <time>2026-09-01T01:14:41Z</time>
  <course>230.43</course>
  <speed>0.9730878685915265</speed>
  <fix>3d</fix>
</trkpt>
<trkpt lat="33.8106223" lon="-118.3938523">
  <ele>-0.48</ele>
  <time>2026-09-01T01:14:41Z</time>
  <course>229.12</course>
  <speed>0.99</speed>
  <fix>3d</fix>
</trkpt>
<trkpt lat="33.8106211" lon="-118.3938543">
  <ele>-0.417</ele>
  <time>2026-09-01T01:14:41Z</time>
  <course>230.37</course>
  <speed>0.9730878685915265</speed>
  <fix>3d</fix>
</trkpt>
<trkpt lat="33.8106223" lon="-118.3938523">
  <ele>-0.48</ele>
  <time>2026-09-01T01:14:41Z</time>
  <course>229.12</course>
  <speed>0.99</speed>
  <fix>3d</fix>
</trkpt>
<trkpt lat="33.8106205" lon="-118.3938551">
  <ele>-0.391</ele>
  <time>2026-09-01T01:14:42Z</time>
  <course>230.33</course>
  <speed>0.9730878685915265</speed>
  <fix>3d</fix>
</trkpt>
<trkpt lat="33.8106211" lon="-118.3938539">
  <ele>-0.43</ele>
  <time>2026-09-01T01:14:42Z</time>
  <course>229.01</course>
  <speed>0.99</speed>
  <fix>3d</fix>
</trkpt>
<trkpt lat="33.8106199" lon="-118.3938559">
  <ele>-0.364</ele>
  <time>2026-09-01T01:14:42Z</time>
  <course>230.28</course>
  <speed>0.9730878685915265</speed>
  <fix>3d</fix>
</trkpt>
<trkpt lat="33.8106211" lon="-118.3938539">
  <ele>-0.43</ele>
  <time>2026-09-01T01:14:42Z</time>
  <course>229.01</course>
  <speed>0.99</speed>
  <fix>3d</fix>
</trkpt>
<trkpt lat="33.8106193" lon="-118.3938567">
  <ele>-0.338</ele>
  <time>2026-09-01T01:14:42Z</time>
  <course>230.26</course>
  <speed>0.9730878685915265</speed>
  <fix>3d</fix>
</trkpt>
<trkpt lat="33.8106199" lon="-118.3938556">
  <ele>-0.37</ele>
  <time>2026-09-01T01:14:42Z</time>
  <course>228.96</course>
  <speed>0.99</speed>
  <fix>3d</fix>
</trkpt>
<trkpt lat="33.8106187" lon="-118.3938575">
  <ele>-0.312</ele>
  <time>2026-09-01T01:14:42Z</time>
  <course>230.24</course>
  <speed>0.9730878685915265</speed>
  <fix>3d</fix>
</trkpt>
<trkpt lat="33.8106199" lon="-118.3938556">
  <ele>-0.37</ele>
  <time>2026-09-01T01:14:42Z</time>
  <course>228.96</course>
  <speed>0.99</speed>
  <fix>3d</fix>
</trkpt>
<trkpt lat="33.8106181" lon="-118.3938584">
  <ele>-0.287</ele>
  <time>2026-09-01T01:14:42Z</time>
  <course>230.24</course>
  <speed>0.9730878685915265</speed>
  <fix>3d</fix>
</trkpt>
<trkpt lat="33.8106188" lon="-118.3938571">
  <ele>-0.32</ele>
  <time>2026-09-01T01:14:42Z</time>
  <course>228.94</course>
  <speed>0.99</speed>
  <fix>3d</fix>
</trkpt>
<trkpt lat="33.8106176" lon="-118.3938592">
  <ele>-0.262</ele>
  <time>2026-09-01T01:14:42Z</time>
  <course>230.23</course>
  <speed>0.9654014708917736</speed>
  <fix>3d</fix>
</trkpt>
<trkpt lat="33.8106188" lon="-118.3938571">
  <ele>-0.32</ele>
  <time>2026-09-01T01:14:42Z</time>
  <course>228.94</course>
  <speed>0.99</speed>
  <fix>3d</fix>
</trkpt>
<trkpt lat="33.810617" lon="-118.39386">
  <ele>-0.237</ele>
  <time>2026-09-01T01:14:42Z</time>
  <course>230.24</course>
  <speed>0.9513148795220223</speed>
  <fix>3d</fix>
</trkpt>
<trkpt lat="33.8106176" lon="-118.3938588">
  <ele>-0.27</ele>
  <time>2026-09-01T01:14:42Z</time>
  <course>228.96</course>
  <speed>0.99</speed>
  <fix>3d</fix>
</trkpt>
<trkpt lat="33.8106164" lon="-118.3938608">
  <ele>-0.213</ele>
  <time>2026-09-01T01:14:42Z</time>
  <course>230.24</course>
  <speed>0.930859817588019</speed>
  <fix>3d</fix>
</trkpt>
<trkpt lat="33.8106176" lon="-118.3938588">
  <ele>-0.27</ele>
  <time>2026-09-01T01:14:42Z</time>
  <course>228.96</course>
  <speed>0.99</speed>
  <fix>3d</fix>
</trkpt>
<trkpt lat="33.8106159" lon="-118.3938615">
  <ele>-0.19</ele>
  <time>2026-09-01T01:14:42Z</time>
  <course>230.25</course>
  <speed>0.9027181176868004</speed>
  <fix>3d</fix>
</trkpt>
<trkpt lat="33.8106164" lon="-118.3938604">
  <ele>-0.22</ele>
  <time>2026-09-01T01:14:42Z</time>
  <course>228.99</course>
  <speed>0.97</speed>
  <fix>3d</fix>
</trkpt>
<trkpt lat="33.8106153" lon="-118.3938623">
  <ele>-0.167</ele>
  <time>2026-09-01T01:14:42Z</time>
  <course>230.27</course>
  <speed>0.8668333173107734</speed>
  <fix>3d</fix>
</trkpt>
<trkpt lat="33.8106164" lon="-118.3938604">
  <ele>-0.22</ele>
  <time>2026-09-01T01:14:42Z</time>
  <course>228.99</course>
  <speed>0.97</speed>
  <fix>3d</fix>
</trkpt>
<trkpt lat="33.8106148" lon="-118.393863">
  <ele>-0.145</ele>
  <time>2026-09-01T01:14:42Z</time>
  <course>230.31</course>
  <speed>0.816884324736373</speed>
  <fix>3d</fix>
</trkpt>
<trkpt lat="33.8106152" lon="-118.3938619">
  <ele>-0.18</ele>
  <time>2026-09-01T01:14:42Z</time>
  <course>229.06</course>
  <speed>0.91</speed>
  <fix>3d</fix>
</trkpt>
<trkpt lat="33.8106143" lon="-118.3938637">
  <ele>-0.124</ele>
  <time>2026-09-01T01:14:42Z</time>
  <course>230.39</course>
  <speed>0.7746612162745725</speed>
  <fix>3d</fix>
</trkpt>
<trkpt lat="33.8106152" lon="-118.3938619">
  <ele>-0.18</ele>
  <time>2026-09-01T01:14:42Z</time>
  <course>229.06</course>
  <speed>0.91</speed>
  <fix>3d</fix>
</trkpt>
<trkpt lat="33.8106139" lon="-118.3938643">
  <ele>-0.105</ele>
  <time>2026-09-01T01:14:42Z</time>
  <course>230.51</course>
  <speed>0.7106335201775947</speed>
  <fix>3d</fix>
</trkpt>
<trkpt lat="33.8106143" lon="-118.3938633">
  <ele>-0.14</ele>
  <time>2026-09-01T01:14:42Z</time>
  <course>229.26</course>
  <speed>0.83</speed>
  <fix>3d</fix>
</trkpt>
<trkpt lat="33.8106134" lon="-118.3938649">
  <ele>-0.091</ele>
  <time>2026-09-01T01:14:42Z</time>
  <course>230.68</course>
  <speed>0.6403124237432849</speed>
  <fix>3d</fix>
</trkpt>
<trkpt lat="33.8106143" lon="-118.3938633">
  <ele>-0.14</ele>
  <time>2026-09-01T01:14:42Z</time>
  <course>229.26</course>
  <speed>0.83</speed>
  <fix>3d</fix>
</trkpt>
<trkpt lat="33.8106131" lon="-118.3938654">
  <ele>-0.081</ele>
  <time>2026-09-01T01:14:42Z</time>
  <course>230.89</course>
  <speed>0.5762811813689563</speed>
  <fix>3d</fix>
</trkpt>
<trkpt lat="33.8106133" lon="-118.3938647">
  <ele>-0.1</ele>
  <time>2026-09-01T01:14:42Z</time>
  <course>229.57</course>
  <speed>0.72</speed>
  <fix>3d</fix>
</trkpt>
<trkpt lat="33.8106127" lon="-118.3938659">
  <ele>-0.074</ele>
  <time>2026-09-01T01:14:42Z</time>
  <course>231.14</course>
  <speed>0.498196748283246</speed>
  <fix>3d</fix>
</trkpt>
<trkpt lat="33.8106133" lon="-118.3938647">
  <ele>-0.1</ele>
  <time>2026-09-01T01:14:42Z</time>
  <course>229.57</course>
  <speed>0.72</speed>
  <fix>3d</fix>
</trkpt>
<trkpt lat="33.8106124" lon="-118.3938663">
  <ele>-0.069</ele>
  <time>2026-09-01T01:14:42Z</time>
  <course>231.49</course>
  <speed>0.4341658669218482</speed>
  <fix>3d</fix>
</trkpt>
<trkpt lat="33.8106126" lon="-118.3938658">
  <ele>-0.08</ele>
  <time>2026-09-01T01:14:42Z</time>
  <course>229.95</course>
  <speed>0.58</speed>
  <fix>3d</fix>
</trkpt>
<trkpt lat="33.8106122" lon="-118.3938666">
  <ele>-0.064</ele>
  <time>2026-09-01T01:14:42Z</time>
  <course>231.97</course>
  <speed>0.378021163428716</speed>
  <fix>3d</fix>
</trkpt>
<trkpt lat="33.8106126" lon="-118.3938658">
  <ele>-0.08</ele>
  <time>2026-09-01T01:14:42Z</time>
  <course>229.95</course>
  <speed>0.58</speed>
  <fix>3d</fix>
</trkpt>
<trkpt lat="33.810612" lon="-118.3938669">
  <ele>-0.058</ele>
  <time>2026-09-01T01:14:42Z</time>
  <course>232.68</course>
  <speed>0.3280243893371345</speed>
  <fix>3d</fix>
</trkpt>
<trkpt lat="33.8106119" lon="-118.3938666">
  <ele>-0.07</ele>
  <time>2026-09-01T01:14:42Z</time>
  <course>230.34</course>
  <speed>0.45</speed>
  <fix>3d</fix>
</trkpt>
<trkpt lat="33.8106118" lon="-118.3938672">
  <ele>-0.053</ele>
  <time>2026-09-01T01:14:42Z</time>
  <course>233.58</course>
  <speed>0.2780287754891569</speed>
  <fix>3d</fix>
</trkpt>
<trkpt lat="33.8106119" lon="-118.3938666">
  <ele>-0.07</ele>
  <time>2026-09-01T01:14:42Z</time>
  <course>230.34</course>
  <speed>0.45</speed>
  <fix>3d</fix>
</trkpt>
<trkpt lat="33.8106116" lon="-118.3938675">
  <ele>-0.05</ele>
  <time>2026-09-01T01:14:42Z</time>
  <course>234.2</course>
  <speed>0.23600847442411893</speed>
  <fix>3d</fix>
</trkpt>
<trkpt lat="33.8106115" lon="-118.3938673">
  <ele>-0.06</ele>
  <time>2026-09-01T01:14:42Z</time>
  <course>230.53</course>
  <speed>0.34</speed>
  <fix>3d</fix>
</trkpt>
<trkpt lat="33.8106114" lon="-118.3938677">
  <ele>-0.048</ele>
  <time>2026-09-01T01:14:42Z</time>
  <course>234.17</course>
  <speed>0.20808652046684814</speed>
  <fix>3d</fix>
</trkpt>
<trkpt lat="33.8106115" lon="-118.3938673">
  <ele>-0.06</ele>
  <time>2026-09-01T01:14:42Z</time>
  <course>230.53</course>
  <speed>0.34</speed>
  <fix>3d</fix>
</trkpt>
<trkpt lat="33.8106113" lon="-118.3938679">
  <ele>-0.047</ele>
  <time>2026-09-01T01:14:42Z</time>
  <course>234.41</course>
  <speed>0.1664331697709324</speed>
  <fix>3d</fix>
</trkpt>
<trkpt lat="33.8106112" lon="-118.3938678">
  <ele>-0.05</ele>
  <time>2026-09-01T01:14:42Z</time>
  <course>230.97</course>
  <speed>0.26</speed>
  <fix>3d</fix>
</trkpt>
<trkpt lat="33.8106112" lon="-118.393868">
  <ele>-0.045</ele>
  <time>2026-09-01T01:14:42Z</time>
  <course>236.21</course>
  <speed>0.12529964086141668</speed>
  <fix>3d</fix>
</trkpt>
<trkpt lat="33.8106112" lon="-118.3938678">
  <ele>-0.05</ele>
  <time>2026-09-01T01:14:42Z</time>
  <course>230.97</course>
  <speed>0.26</speed>
  <fix>3d</fix>
</trkpt>
<trkpt lat="33.8106111" lon="-118.3938682">
  <ele>-0.043</ele>
  <time>2026-09-01T01:14:42Z</time>
  <course>239.05</course>
  <speed>0.08944271909999159</speed>
  <fix>3d</fix>
</trkpt>
<trkpt lat="33.8106109" lon="-118.3938681">
  <ele>-0.04</ele>
  <time>2026-09-01T01:14:42Z</time>
  <course>232.51</course>
  <speed>0.18</speed>
  <fix>3d</fix>
</trkpt>
<trkpt lat="33.8106111" lon="-118.3938683">
  <ele>-0.042</ele>
  <time>2026-09-01T01:14:42Z</time>
  <course>242.36</course>
  <speed>0.0670820393249937</speed>
  <fix>3d</fix>
</trkpt>
<trkpt lat="33.8106109" lon="-118.3938681">
  <ele>-0.04</ele>
  <time>2026-09-01T01:14:42Z</time>
  <course>232.51</course>
  <speed>0.18</speed>
  <fix>3d</fix>
</trkpt>
<trkpt lat="33.810611" lon="-118.3938683">
  <ele>-0.043</ele>
  <time>2026-09-01T01:14:42Z</time>
  <course>245.96</course>
  <speed>0.05099019513592785</speed>
  <fix>3d</fix>
</trkpt>
<trkpt lat="33.8106108" lon="-118.3938684">
  <ele>-0.04</ele>
  <time>2026-09-01T01:14:42Z</time>
  <course>235.28</course>
  <speed>0.11</speed>
  <fix>3d</fix>
</trkpt>
<trkpt lat="33.810611" lon="-118.3938684">
  <ele>-0.044</ele>
  <time>2026-09-01T01:14:42Z</time>
  <course>249.78</course>
  <speed>0.03</speed>
  <fix>3d</fix>
</trkpt>
<trkpt lat="33.8106108" lon="-118.3938684">
  <ele>-0.04</ele>
  <time>2026-09-01T01:14:42Z</time>
  <course>235.28</course>
  <speed>0.11</speed>
  <fix>3d</fix>
</trkpt>
<trkpt lat="33.8106109" lon="-118.3938684">
  <ele>-0.045</ele>
  <time>2026-09-01T01:14:42Z</time>
  <course>253.79</course>
  <speed>0.01</speed>
  <fix>3d</fix>
</trkpt>
<trkpt lat="33.8106107" lon="-118.3938686">
  <ele>-0.04</ele>
  <time>2026-09-01T01:14:42Z</time>
  <course>238.0</course>
  <speed>0.06</speed>
  <fix>3d</fix>
</trkpt>
<trkpt lat="33.8106109" lon="-118.3938684">
  <ele>-0.045</ele>
  <time>2026-09-01T01:14:42Z</time>
  <course>257.97</course>
  <speed>0.022360679774997897</speed>
  <fix>3d</fix>
</trkpt>
<trkpt lat="33.8106107" lon="-118.3938686">
  <ele>-0.04</ele>
  <time>2026-09-01T01:14:42Z</time>
  <course>238.0</course>
  <speed>0.06</speed>
  <fix>3d</fix>
</trkpt>
<trkpt lat="33.8106109" lon="-118.3938685">
  <ele>-0.045</ele>
  <time>2026-09-01T01:14:42Z</time>
  <course>262.28</course>
  <speed>0.05099019513592785</speed>
  <fix>3d</fix>
</trkpt>
<trkpt lat="33.8106107" lon="-118.3938687">
  <ele>-0.03</ele>
  <time>2026-09-01T01:14:42Z</time>
  <course>207.31</course>
  <speed>0.01</speed>
  <fix>3d</fix>
</trkpt>
<trkpt lat="33.8106109" lon="-118.3938685">
  <ele>-0.044</ele>
  <time>2026-09-01T01:14:42Z</time>
  <course>266.73</course>
  <speed>0.1019803902718557</speed>
  <fix>3d</fix>
</trkpt>
<trkpt lat="33.8106107" lon="-118.3938687">
  <ele>-0.03</ele>
  <time>2026-09-01T01:14:42Z</time>
  <course>207.31</course>
  <speed>0.01</speed>
  <fix>3d</fix>
</trkpt>
<trkpt lat="33.8106109" lon="-118.3938683">
  <ele>-0.043</ele>
  <time>2026-09-01T01:14:42Z</time>
  <course>271.3</course>
  <speed>0.1414213562373095</speed>
  <fix>3d</fix>
</trkpt>
<trkpt lat="33.8106107" lon="-118.3938686">
  <ele>-0.02</ele>
  <time>2026-09-01T01:14:42Z</time>
  <course>88.83</course>
  <speed>0.06</speed>
  <fix>3d</fix>
</trkpt>
<trkpt lat="33.8106109" lon="-118.3938682">
  <ele>-0.042</ele>
  <time>2026-09-01T01:14:42Z</time>
  <course>275.98</course>
  <speed>0.18110770276274835</speed>
  <fix>3d</fix>
</trkpt>
<trkpt lat="33.8106107" lon="-118.3938686">
  <ele>-0.02</ele>
  <time>2026-09-01T01:14:42Z</time>
  <course>88.83</course>
  <speed>0.06</speed>
  <fix>3d</fix>
</trkpt>
<trkpt lat="33.8106109" lon="-118.393868">
  <ele>-0.041</ele>
  <time>2026-09-01T01:14:42Z</time>
  <course>280.77</course>
  <speed>0.23194827009486402</speed>
  <fix>3d</fix>
</trkpt>
<trkpt lat="33.8106107" lon="-118.3938684">
  <ele>-0.01</ele>
  <time>2026-09-01T01:14:42Z</time>
  <course>86.29</course>
  <speed>0.15</speed>
  <fix>3d</fix>
</trkpt>
<trkpt lat="33.8106109" lon="-118.3938677">
  <ele>-0.04</ele>
  <time>2026-09-01T01:14:42Z</time>
  <course>285.65</course>
  <speed>0.27166155414412246</speed>
  <fix>3d</fix>
</trkpt>
<trkpt lat="33.8106107" lon="-118.3938684">
  <ele>-0.01</ele>
  <time>2026-09-01T01:14:42Z</time>
  <course>86.29</course>
  <speed>0.15</speed>
  <fix>3d</fix>
</trkpt>
<trkpt lat="33.8106109" lon="-118.3938674">
  <ele>-0.04</ele>
  <time>2026-09-01T01:14:42Z</time>
  <course>290.63</course>
  <speed>0.31144823004794875</speed>
  <fix>3d</fix>
</trkpt>
<trkpt lat="33.8106107" lon="-118.393868">
  <ele>-0.01</ele>
  <time>2026-09-01T01:14:42Z</time>
  <course>86.51</course>
  <speed>0.23</speed>
  <fix>3d</fix>
</trkpt>
<trkpt lat="33.8106109" lon="-118.3938671">
  <ele>-0.041</ele>
  <time>2026-09-01T01:14:42Z</time>
  <course>295.7</course>
  <speed>0.35128336140500593</speed>
  <fix>3d</fix>
</trkpt>
<trkpt lat="33.8106107" lon="-118.393868">
  <ele>-0.01</ele>
  <time>2026-09-01T01:14:42Z</time>
  <course>86.51</course>
  <speed>0.23</speed>
  <fix>3d</fix>
</trkpt>
<trkpt lat="33.8106109" lon="-118.3938667">
  <ele>-0.042</ele>
  <time>2026-09-01T01:14:42Z</time>
  <course>300.85</course>
  <speed>0.3911521443121589</speed>
  <fix>3d</fix>
</trkpt>
<trkpt lat="33.8106107" lon="-118.3938674">
  <ele>0.0</ele>
  <time>2026-09-01T01:14:42Z</time>
  <course>87.0</course>
  <speed>0.32</speed>
  <fix>3d</fix>
</trkpt>
<trkpt lat="33.8106109" lon="-118.3938662">
  <ele>-0.041</ele>
  <time>2026-09-01T01:14:42Z</time>
  <course>306.09</course>
  <speed>0.4310452412450461</speed>
  <fix>3d</fix>
</trkpt>
<trkpt lat="33.8106107" lon="-118.3938674">
  <ele>0.0</ele>
  <time>2026-09-01T01:14:42Z</time>
  <course>87.0</course>
  <speed>0.32</speed>
  <fix>3d</fix>
</trkpt>
<trkpt lat="33.8106109" lon="-118.3938658">
  <ele>-0.04</ele>
  <time>2026-09-01T01:14:42Z</time>
  <course>311.4</course>
  <speed>0.4604345773288535</speed>
  <fix>3d</fix>
</trkpt>
<trkpt lat="33.8106107" lon="-118.3938666">
  <ele>0.0</ele>
  <time>2026-09-01T01:14:42Z</time>
  <course>87.65</course>
  <speed>0.4</speed>
  <fix>3d</fix>
</trkpt>
<trkpt lat="33.8106109" lon="-118.3938653">
  <ele>-0.04</ele>
  <time>2026-09-01T01:14:42Z</time>
  <course>316.79</course>
  <speed>0.49040799340956914</speed>
  <fix>3d</fix>
</trkpt>
<trkpt lat="33.8106107" lon="-118.3938666">
  <ele>0.0</ele>
  <time>2026-09-01T01:14:42Z</time>
  <course>87.65</course>
  <speed>0.4</speed>
  <fix>3d</fix>
</trkpt>
<trkpt lat="33.8106109" lon="-118.3938647">
  <ele>-0.041</ele>
  <time>2026-09-01T01:14:42Z</time>
  <course>322.25</course>
  <speed>0.5203844732503076</speed>
  <fix>3d</fix>
</trkpt>
<trkpt lat="33.8106107" lon="-118.3938657">
  <ele>0.0</ele>
  <time>2026-09-01T01:14:42Z</time>
  <course>88.43</course>
  <speed>0.47</speed>
  <fix>3d</fix>
</trkpt>
<trkpt lat="33.8106109" lon="-118.3938641">
  <ele>-0.041</ele>
  <time>2026-09-01T01:14:42Z</time>
  <course>327.84</course>
  <speed>0.5403702434442519</speed>
  <fix>3d</fix>
</trkpt>
<trkpt lat="33.8106107" lon="-118.3938657">
  <ele>0.0</ele>
  <time>2026-09-01T01:14:42Z</time>
  <course>88.43</course>
  <speed>0.47</speed>
  <fix>3d</fix>
</trkpt>
<trkpt lat="33.8106109" lon="-118.3938636">
  <ele>-0.042</ele>
  <time>2026-09-01T01:14:42Z</time>
  <course>333.46</course>
  <speed>0.5600892785976178</speed>
  <fix>3d</fix>
</trkpt>
<trkpt lat="33.8106107" lon="-118.3938646">
  <ele>0.0</ele>
  <time>2026-09-01T01:14:42Z</time>
  <course>89.19</course>
  <speed>0.53</speed>
  <fix>3d</fix>
</trkpt>
<trkpt lat="33.8106109" lon="-118.393863">
  <ele>-0.043</ele>
  <time>2026-09-01T01:14:42Z</time>
  <course>339.18</course>
  <speed>0.570087712549569</speed>
  <fix>3d</fix>
</trkpt>
<trkpt lat="33.8106107" lon="-118.3938646">
  <ele>0.0</ele>
  <time>2026-09-01T01:14:42Z</time>
  <course>89.19</course>
  <speed>0.53</speed>
  <fix>3d</fix>
</trkpt>
<trkpt lat="33.8106109" lon="-118.3938624">
  <ele>-0.044</ele>
  <time>2026-09-01T01:14:42Z</time>
  <course>344.98</course>
  <speed>0.5803447251418763</speed>
  <fix>3d</fix>
</trkpt>
<trkpt lat="33.8106107" lon="-118.3938633">
  <ele>0.01</ele>
  <time>2026-09-01T01:14:42Z</time>
  <course>89.64</course>
  <speed>0.56</speed>
  <fix>3d</fix>
</trkpt>
<trkpt lat="33.8106109" lon="-118.3938617">
  <ele>-0.044</ele>
  <time>2026-09-01T01:14:42Z</time>
  <course>350.87</course>
  <speed>0.5903388857258176</speed>
  <fix>3d</fix>
</trkpt>
<trkpt lat="33.8106107" lon="-118.3938633">
  <ele>0.01</ele>
  <time>2026-09-01T01:14:42Z</time>
  <course>89.64</course>
  <speed>0.56</speed>
  <fix>3d</fix>
</trkpt>
<trkpt lat="33.8106109" lon="-118.3938611">
  <ele>-0.043</ele>
  <time>2026-09-01T01:14:42Z</time>
  <course>356.84</course>
  <speed>0.6007495318350236</speed>
  <fix>3d</fix>
</trkpt>
<trkpt lat="33.8106107" lon="-118.3938621">
  <ele>0.02</ele>
  <time>2026-09-01T01:14:42Z</time>
  <course>89.4</course>
  <speed>0.59</speed>
  <fix>3d</fix>
</trkpt>
<trkpt lat="33.8106109" lon="-118.3938604">
  <ele>-0.042</ele>
  <time>2026-09-01T01:14:42Z</time>
  <course>2.86</course>
  <speed>0.611310068623117</speed>
  <fix>3d</fix>
</trkpt>
<trkpt lat="33.8106107" lon="-118.3938621">
  <ele>0.02</ele>
  <time>2026-09-01T01:14:42Z</time>
  <course>89.4</course>
  <speed>0.59</speed>
  <fix>3d</fix>
</trkpt>
<trkpt lat="33.8106109" lon="-118.3938598">
  <ele>-0.042</ele>
  <time>2026-09-01T01:14:42Z</time>
  <course>8.92</course>
  <speed>0.6220128616033594</speed>
  <fix>3d</fix>
</trkpt>
<trkpt lat="33.8106107" lon="-118.3938608">
  <ele>0.03</ele>
  <time>2026-09-01T01:14:42Z</time>
  <course>88.27</course>
  <speed>0.61</speed>
  <fix>3d</fix>
</trkpt>
<trkpt lat="33.8106109" lon="-118.3938591">
  <ele>-0.04</ele>
  <time>2026-09-01T01:14:42Z</time>
  <course>15.0</course>
  <speed>0.6319810123729984</speed>
  <fix>3d</fix>
</trkpt>
<trkpt lat="33.8106107" lon="-118.3938608">
  <ele>0.03</ele>
  <time>2026-09-01T01:14:42Z</time>
  <course>88.27</course>
  <speed>0.61</speed>
  <fix>3d</fix>
</trkpt>
<trkpt lat="33.810611" lon="-118.3938584">
  <ele>-0.04</ele>
  <time>2026-09-01T01:14:42Z</time>
  <course>21.08</course>
  <speed>0.6428063471995279</speed>
  <fix>3d</fix>
</trkpt>
<trkpt lat="33.8106108" lon="-118.3938595">
  <ele>0.04</ele>
  <time>2026-09-01T01:14:42Z</time>
  <course>86.9</course>
  <speed>0.63</speed>
  <fix>3d</fix>
</trkpt>
<trkpt lat="33.810611" lon="-118.3938577">
  <ele>-0.041</ele>
  <time>2026-09-01T01:14:42Z</time>
  <course>27.14</course>
  <speed>0.6519202405202649</speed>
  <fix>3d</fix>
</trkpt>
<trkpt lat="33.8106108" lon="-118.3938595">
  <ele>0.04</ele>
  <time>2026-09-01T01:14:42Z</time>
  <course>86.9</course>
  <speed>0.63</speed>
  <fix>3d</fix>
</trkpt>
<trkpt lat="33.810611" lon="-118.393857">
  <ele>-0.042</ele>
  <time>2026-09-01T01:14:42Z</time>
  <course>33.17</course>
  <speed>0.6618912297349165</speed>
  <fix>3d</fix>
</trkpt>
<trkpt lat="33.8106108" lon="-118.3938581">
  <ele>0.05</ele>
  <time>2026-09-01T01:14:42Z</time>
  <course>86.36</course>
  <speed>0.65</speed>
  <fix>3d</fix>
</trkpt>
<trkpt lat="33.8106111" lon="-118.3938563">
  <ele>-0.043</ele>
  <time>2026-09-01T01:14:42Z</time>
  <course>38.92</course>
  <speed>0.6612110101926616</speed>
  <fix>3d</fix>
</trkpt>
<trkpt lat="33.8106108" lon="-118.3938581">
  <ele>0.05</ele>
  <time>2026-09-01T01:14:42Z</time>
  <course>86.36</course>
  <speed>0.65</speed>
  <fix>3d</fix>
</trkpt>
<trkpt lat="33.8106111" lon="-118.3938556">
  <ele>-0.043</ele>
  <time>2026-09-01T01:14:42Z</time>
  <course>44.1</course>
  <speed>0.6512296062065974</speed>
  <fix>3d</fix>
</trkpt>
<trkpt lat="33.8106109" lon="-118.3938566">
  <ele>0.07</ele>
  <time>2026-09-01T01:14:42Z</time>
  <course>86.85</course>
  <speed>0.66</speed>
  <fix>3d</fix>
</trkpt>
<trkpt lat="33.8106111" lon="-118.3938549">
  <ele>-0.042</ele>
  <time>2026-09-01T01:14:42Z</time>
  <course>48.78</course>
  <speed>0.6506919393998976</speed>
  <fix>3d</fix>
</trkpt>
<trkpt lat="33.8106109" lon="-118.3938566">
  <ele>0.07</ele>
  <time>2026-09-01T01:14:42Z</time>
  <course>86.85</course>
  <speed>0.66</speed>
  <fix>3d</fix>
</trkpt>
<trkpt lat="33.8106111" lon="-118.3938542">
  <ele>-0.042</ele>
  <time>2026-09-01T01:14:42Z</time>
  <course>53.07</course>
  <speed>0.6400781202322103</speed>
  <fix>3d</fix>
</trkpt>
<trkpt lat="33.810611" lon="-118.3938552">
  <ele>0.08</ele>
  <time>2026-09-01T01:14:42Z</time>
  <course>88.04</course>
  <speed>0.66</speed>
  <fix>3d</fix>
</trkpt>
<trkpt lat="33.8106111" lon="-118.3938535">
  <ele>-0.04</ele>
  <time>2026-09-01T01:14:42Z</time>
  <course>57.1</course>
  <speed>0.63</speed>
  <fix>3d</fix>
</trkpt>
<trkpt lat="33.810611" lon="-118.3938552">
  <ele>0.08</ele>
  <time>2026-09-01T01:14:42Z</time>
  <course>88.04</course>
  <speed>0.66</speed>
  <fix>3d</fix>
</trkpt>
<trkpt lat="33.8106111" lon="-118.3938528">
  <ele>-0.04</ele>
  <time>2026-09-01T01:14:42Z</time>
  <course>60.94</course>
  <speed>0.6200806399170998</speed>
  <fix>3d</fix>
</trkpt>
<trkpt lat="33.810611" lon="-118.3938537">
  <ele>0.09</ele>
  <time>2026-09-01T01:14:42Z</time>
  <course>90.08</course>
  <speed>0.64</speed>
  <fix>3d</fix>
</trkpt>
<trkpt lat="33.8106111" lon="-118.3938522">
  <ele>-0.04</ele>
  <time>2026-09-01T01:14:42Z</time>
  <course>64.67</course>
  <speed>0.6007495318350236</speed>
  <fix>3d</fix>
</trkpt>
<trkpt lat="33.810611" lon="-118.3938537">
  <ele>0.09</ele>
  <time>2026-09-01T01:14:42Z</time>
  <course>90.08</course>
  <speed>0.64</speed>
  <fix>3d</fix>
</trkpt>
<trkpt lat="33.8106111" lon="-118.3938515">
  <ele>-0.04</ele>
  <time>2026-09-01T01:14:42Z</time>
  <course>68.19</course>
  <speed>0.5913543776789008</speed>
  <fix>3d</fix>
</trkpt>
<trkpt lat="33.810611" lon="-118.3938524">
  <ele>0.1</ele>
  <time>2026-09-01T01:14:42Z</time>
  <course>93.1</course>
  <speed>0.62</speed>
  <fix>3d</fix>
</trkpt>
<trkpt lat="33.810611" lon="-118.3938509">
  <ele>-0.041</ele>
  <time>2026-09-01T01:14:42Z</time>
  <course>71.33</course>
  <speed>0.5714017850864661</speed>
  <fix>3d</fix>
</trkpt>
<trkpt lat="33.810611" lon="-118.3938524">
  <ele>0.1</ele>
  <time>2026-09-01T01:14:42Z</time>
  <course>93.1</course>
  <speed>0.62</speed>
  <fix>3d</fix>
</trkpt>
<trkpt lat="33.810611" lon="-118.3938503">
  <ele>-0.041</ele>
  <time>2026-09-01T01:14:42Z</time>
  <course>73.96</course>
  <speed>0.5508175741568164</speed>
  <fix>3d</fix>
</trkpt>
<trkpt lat="33.810611" lon="-118.3938511">
  <ele>0.12</ele>
  <time>2026-09-01T01:14:42Z</time>
  <course>95.25</course>
  <speed>0.59</speed>
  <fix>3d</fix>
</trkpt>
<trkpt lat="33.810611" lon="-118.3938497">
  <ele>-0.042</ele>
  <time>2026-09-01T01:14:42Z</time>
  <course>75.91</course>
  <speed>0.5300943312279428</speed>
  <fix>3d</fix>
</trkpt>
<trkpt lat="33.810611" lon="-118.3938511">
  <ele>0.12</ele>
  <time>2026-09-01T01:14:42Z</time>
  <course>95.25</course>
  <speed>0.59</speed>
  <fix>3d</fix>
</trkpt>
<trkpt lat="33.8106109" lon="-118.3938491">
  <ele>-0.042</ele>
  <time>2026-09-01T01:14:42Z</time>
  <course>77.25</course>
  <speed>0.52</speed>
  <fix>3d</fix>
</trkpt>
<trkpt lat="33.8106109" lon="-118.3938499">
  <ele>0.13</ele>
  <time>2026-09-01T01:14:42Z</time>
  <course>94.48</course>
  <speed>0.55</speed>
  <fix>3d</fix>
</trkpt>
<trkpt lat="33.8106109" lon="-118.3938485">
  <ele>-0.043</ele>
  <time>2026-09-01T01:14:42Z</time>
  <course>78.05</course>
  <speed>0.51</speed>
  <fix>3d</fix>
</trkpt>
<trkpt lat="33.8106109" lon="-118.3938499">
  <ele>0.13</ele>
  <time>2026-09-01T01:14:42Z</time>
  <course>94.48</course>
  <speed>0.55</speed>
  <fix>3d</fix>
</trkpt>
<trkpt lat="33.8106109" lon="-118.393848">
  <ele>-0.045</ele>
  <time>2026-09-01T01:14:42Z</time>
  <course>78.55</course>
  <speed>0.5000999900019995</speed>
  <fix>3d</fix>
</trkpt>
<trkpt lat="33.8106108" lon="-118.3938487">
  <ele>0.14</ele>
  <time>2026-09-01T01:14:42Z</time>
  <course>92.07</course>
  <speed>0.52</speed>
  <fix>3d</fix>
</trkpt>
<trkpt lat="33.8106109" lon="-118.3938474">
  <ele>-0.048</ele>
  <time>2026-09-01T01:14:42Z</time>
  <course>78.89</course>
  <speed>0.5003998401278722</speed>
  <fix>3d</fix>
</trkpt>
<trkpt lat="33.8106108" lon="-118.3938487">
  <ele>0.14</ele>
  <time>2026-09-01T01:14:42Z</time>
  <course>92.07</course>
  <speed>0.52</speed>
  <fix>3d</fix>
</trkpt>
<trkpt lat="33.8106109" lon="-118.3938469">
  <ele>-0.05</ele>
  <time>2026-09-01T01:14:42Z</time>
  <course>79.19</course>
  <speed>0.49040799340956914</speed>
  <fix>3d</fix>
</trkpt>
<trkpt lat="33.8106108" lon="-118.3938475">
  <ele>0.15</ele>
  <time>2026-09-01T01:14:42Z</time>
  <course>90.01</course>
  <speed>0.5</speed>
  <fix>3d</fix>
</trkpt>
<trkpt lat="33.8106109" lon="-118.3938463">
  <ele>-0.053</ele>
  <time>2026-09-01T01:14:42Z</time>
  <course>79.48</course>
  <speed>0.49040799340956914</speed>
  <fix>3d</fix>
</trkpt>
<trkpt lat="33.8106108" lon="-118.3938475">
  <ele>0.15</ele>
  <time>2026-09-01T01:14:42Z</time>
  <course>90.01</course>
  <speed>0.5</speed>
  <fix>3d</fix>
</trkpt>
<trkpt lat="33.8106109" lon="-118.3938458">
  <ele>-0.056</ele>
  <time>2026-09-01T01:14:42Z</time>
  <course>79.78</course>
  <speed>0.49040799340956914</speed>
  <fix>3d</fix>
</trkpt>
<trkpt lat="33.8106108" lon="-118.3938465">
  <ele>0.16</ele>
  <time>2026-09-01T01:14:42Z</time>
  <course>88.72</course>
  <speed>0.49</speed>
  <fix>3d</fix>
</trkpt>
<trkpt lat="33.8106109" lon="-118.3938452">
  <ele>-0.058</ele>
  <time>2026-09-01T01:14:42Z</time>
  <course>80.09</course>
  <speed>0.4909175083453431</speed>
  <fix>3d</fix>
</trkpt>
<trkpt lat="33.8106108" lon="-118.3938465">
  <ele>0.16</ele>
  <time>2026-09-01T01:14:42Z</time>
  <course>88.72</course>
  <speed>0.49</speed>
  <fix>3d</fix>
</trkpt>
<trkpt lat="33.8106109" lon="-118.3938447">
  <ele>-0.06</ele>
  <time>2026-09-01T01:14:42Z</time>
  <course>80.4</course>
  <speed>0.4909175083453431</speed>
  <fix>3d</fix>
</trkpt>
<trkpt lat="33.8106109" lon="-118.3938454">
  <ele>0.17</ele>
  <time>2026-09-01T01:14:42Z</time>
  <course>87.92</course>
  <speed>0.49</speed>
  <fix>3d</fix>
</trkpt>
<trkpt lat="33.8106109" lon="-118.3938442">
  <ele>-0.063</ele>
  <time>2026-09-01T01:14:42Z</time>
  <course>80.72</course>
  <speed>0.4909175083453431</speed>
  <fix>3d</fix>
</trkpt>
<trkpt lat="33.8106109" lon="-118.3938454">
  <ele>0.17</ele>
  <time>2026-09-01T01:14:42Z</time>
  <course>87.92</course>
  <speed>0.49</speed>
  <fix>3d</fix>
</trkpt>
<trkpt lat="33.8106109" lon="-118.3938436">
  <ele>-0.065</ele>
  <time>2026-09-01T01:14:42Z</time>
  <course>81.06</course>
  <speed>0.4909175083453431</speed>
  <fix>3d</fix>
</trkpt>
<trkpt lat="33.8106109" lon="-118.3938443">
  <ele>0.18</ele>
  <time>2026-09-01T01:14:42Z</time>
  <course>87.41</course>
  <speed>0.49</speed>
  <fix>3d</fix>
</trkpt>
<trkpt lat="33.810611" lon="-118.3938431">
  <ele>-0.067</ele>
  <time>2026-09-01T01:14:42Z</time>
  <course>81.4</course>
  <speed>0.4909175083453431</speed>
  <fix>3d</fix>
</trkpt>
<trkpt lat="33.8106109" lon="-118.3938443">
  <ele>0.18</ele>
  <time>2026-09-01T01:14:42Z</time>
  <course>87.41</course>
  <speed>0.49</speed>
  <fix>3d</fix>
</trkpt>
<trkpt lat="33.810611" lon="-118.3938426">
  <ele>-0.069</ele>
  <time>2026-09-01T01:14:42Z</time>
  <course>81.73</course>
  <speed>0.480936586256442</speed>
  <fix>3d</fix>
</trkpt>
<trkpt lat="33.8106109" lon="-118.3938433">
  <ele>0.19</ele>
  <time>2026-09-01T01:14:42Z</time>
  <course>87.08</course>
  <speed>0.49</speed>
  <fix>3d</fix>
</trkpt>
<trkpt lat="33.810611" lon="-118.393842">
  <ele>-0.07</ele>
  <time>2026-09-01T01:14:42Z</time>
  <course>82.02</course>
  <speed>0.480936586256442</speed>
  <fix>3d</fix>
</trkpt>
<trkpt lat="33.8106109" lon="-118.3938433">
  <ele>0.19</ele>
  <time>2026-09-01T01:14:42Z</time>
  <course>87.08</course>
  <speed>0.49</speed>
  <fix>3d</fix>
</trkpt>
<trkpt lat="33.810611" lon="-118.3938415">
  <ele>-0.072</ele>
  <time>2026-09-01T01:14:42Z</time>
  <course>82.29</course>
  <speed>0.480936586256442</speed>
  <fix>3d</fix>
</trkpt>
<trkpt lat="33.8106109" lon="-118.3938422">
  <ele>0.19</ele>
  <time>2026-09-01T01:14:42Z</time>
  <course>86.79</course>
  <speed>0.49</speed>
  <fix>3d</fix>
</trkpt>
<trkpt lat="33.810611" lon="-118.393841">
  <ele>-0.072</ele>
  <time>2026-09-01T01:14:42Z</time>
  <course>82.52</course>
  <speed>0.480936586256442</speed>
  <fix>3d</fix>
</trkpt>
<trkpt lat="33.8106109" lon="-118.3938422">
  <ele>0.19</ele>
  <time>2026-09-01T01:14:42Z</time>
  <course>86.79</course>
  <speed>0.49</speed>
  <fix>3d</fix>
</trkpt>
<trkpt lat="33.8106111" lon="-118.3938404">
  <ele>-0.072</ele>
  <time>2026-09-01T01:14:42Z</time>
  <course>82.73</course>
  <speed>0.480936586256442</speed>
  <fix>3d</fix>
</trkpt>
<trkpt lat="33.8106109" lon="-118.3938411">
  <ele>0.2</ele>
  <time>2026-09-01T01:14:42Z</time>
  <course>86.48</course>
  <speed>0.49</speed>
  <fix>3d</fix>
</trkpt>
<trkpt lat="33.8106111" lon="-118.3938399">
  <ele>-0.072</ele>
  <time>2026-09-01T01:14:42Z</time>
  <course>82.9</course>
  <speed>0.480936586256442</speed>
  <fix>3d</fix>
</trkpt>
<trkpt lat="33.8106109" lon="-118.3938411">
  <ele>0.2</ele>
  <time>2026-09-01T01:14:42Z</time>
  <course>86.48</course>
  <speed>0.49</speed>
  <fix>3d</fix>
</trkpt>
<trkpt lat="33.8106111" lon="-118.3938394">
  <ele>-0.071</ele>
  <time>2026-09-01T01:14:42Z</time>
  <course>83.04</course>
  <speed>0.480936586256442</speed>
  <fix>3d</fix>
</trkpt>
<trkpt lat="33.810611" lon="-118.3938401">
  <ele>0.21</ele>
  <time>2026-09-01T01:14:42Z</time>
  <course>86.15</course>
  <speed>0.48</speed>
  <fix>3d</fix>
</trkpt>
<trkpt lat="33.8106111" lon="-118.3938388">
  <ele>-0.071</ele>
  <time>2026-09-01T01:14:42Z</time>
  <course>83.17</course>
  <speed>0.480936586256442</speed>
  <fix>3d</fix>
</trkpt>
<trkpt lat="33.810611" lon="-118.3938401">
  <ele>0.21</ele>
  <time>2026-09-01T01:14:42Z</time>
  <course>86.15</course>
  <speed>0.48</speed>
  <fix>3d</fix>
</trkpt>
<trkpt lat="33.8106111" lon="-118.3938383">
  <ele>-0.072</ele>
  <time>2026-09-01T01:14:42Z</time>
  <course>83.3</course>
  <speed>0.480936586256442</speed>
  <fix>3d</fix>
</trkpt>
<trkpt lat="33.810611" lon="-118.393839">
  <ele>0.22</ele>
  <time>2026-09-01T01:14:42Z</time>
  <course>85.9</course>
  <speed>0.48</speed>
  <fix>3d</fix>
</trkpt>
<trkpt lat="33.8106111" lon="-118.3938378">
  <ele>-0.073</ele>
  <time>2026-09-01T01:14:42Z</time>
  <course>83.41</course>
  <speed>0.480936586256442</speed>
  <fix>3d</fix>
</trkpt>
<trkpt lat="33.810611" lon="-118.393839">
  <ele>0.22</ele>
  <time>2026-09-01T01:14:42Z</time>
  <course>85.9</course>
  <speed>0.48</speed>
  <fix>3d</fix>
</trkpt>
<trkpt lat="33.8106112" lon="-118.3938373">
  <ele>-0.073</ele>
  <time>2026-09-01T01:14:42Z</time>
  <course>83.52</course>
  <speed>0.48041648597857256</speed>
  <fix>3d</fix>
</trkpt>
<trkpt lat="33.8106111" lon="-118.393838">
  <ele>0.22</ele>
  <time>2026-09-01T01:14:42Z</time>
  <course>85.73</course>
  <speed>0.48</speed>
  <fix>3d</fix>
</trkpt>
<trkpt lat="33.8106112" lon="-118.3938367">
  <ele>-0.073</ele>
  <time>2026-09-01T01:14:42Z</time>
  <course>83.63</course>
  <speed>0.48041648597857256</speed>
  <fix>3d</fix>
</trkpt>
<trkpt lat="33.8106111" lon="-118.393838">
  <ele>0.22</ele>
  <time>2026-09-01T01:14:42Z</time>
  <course>85.73</course>
  <speed>0.48</speed>
  <fix>3d</fix>
</trkpt>
<trkpt lat="33.8106112" lon="-118.3938362">
  <ele>-0.072</ele>
  <time>2026-09-01T01:14:42Z</time>
  <course>83.75</course>
  <speed>0.48041648597857256</speed>
  <fix>3d</fix>
</trkpt>
<trkpt lat="33.8106111" lon="-118.3938369">
  <ele>0.23</ele>
  <time>2026-09-01T01:14:42Z</time>
  <course>85.63</course>
  <speed>0.48</speed>
  <fix>3d</fix>
</trkpt>
<trkpt lat="33.8106112" lon="-118.3938357">
  <ele>-0.072</ele>
  <time>2026-09-01T01:14:42Z</time>
  <course>83.86</course>
  <speed>0.48041648597857256</speed>
  <fix>3d</fix>
</trkpt>
<trkpt lat="33.8106111" lon="-118.3938369">
  <ele>0.23</ele>
  <time>2026-09-01T01:14:42Z</time>
  <course>85.63</course>
  <speed>0.48</speed>
  <fix>3d</fix>
</trkpt>
<trkpt lat="33.8106112" lon="-118.3938352">
  <ele>-0.07</ele>
  <time>2026-09-01T01:14:42Z</time>
  <course>83.96</course>
  <speed>0.48041648597857256</speed>
  <fix>3d</fix>
</trkpt>
<trkpt lat="33.8106112" lon="-118.3938359">
  <ele>0.23</ele>
  <time>2026-09-01T01:14:42Z</time>
  <course>85.58</course>
  <speed>0.48</speed>
  <fix>3d</fix>
</trkpt>
<trkpt lat="33.8106113" lon="-118.3938346">
  <ele>-0.07</ele>
  <time>2026-09-01T01:14:42Z</time>
  <course>84.07</course>
  <speed>0.470425339453563</speed>
  <fix>3d</fix>
</trkpt>
<trkpt lat="33.8106112" lon="-118.3938359">
  <ele>0.23</ele>
  <time>2026-09-01T01:14:42Z</time>
  <course>85.58</course>
  <speed>0.48</speed>
  <fix>3d</fix>
</trkpt>
<trkpt lat="33.8106113" lon="-118.3938341">
  <ele>-0.071</ele>
  <time>2026-09-01T01:14:42Z</time>
  <course>84.2</course>
  <speed>0.470425339453563</speed>
  <fix>3d</fix>
</trkpt>
<trkpt lat="33.8106113" lon="-118.3938348">
  <ele>0.24</ele>
  <time>2026-09-01T01:14:42Z</time>
  <course>85.53</course>
  <speed>0.48</speed>
  <fix>3d</fix>
</trkpt>
<trkpt lat="33.8106113" lon="-118.3938336">
  <ele>-0.073</ele>
  <time>2026-09-01T01:14:42Z</time>
  <course>84.36</course>
  <speed>0.470425339453563</speed>
  <fix>3d</fix>
</trkpt>
<trkpt lat="33.8106113" lon="-118.3938348">
  <ele>0.24</ele>
  <time>2026-09-01T01:14:42Z</time>
  <course>85.53</course>
  <speed>0.48</speed>
  <fix>3d</fix>
</trkpt>
<trkpt lat="33.8106113" lon="-118.3938331">
  <ele>-0.074</ele>
  <time>2026-09-01T01:14:42Z</time>
  <course>84.55</course>
  <speed>0.470425339453563</speed>
  <fix>3d</fix>
</trkpt>
<trkpt lat="33.8106114" lon="-118.3938338">
  <ele>0.25</ele>
  <time>2026-09-01T01:14:42Z</time>
  <course>85.56</course>
  <speed>0.48</speed>
  <fix>3d</fix>
</trkpt>
<trkpt lat="33.8106113" lon="-118.3938326">
  <ele>-0.075</ele>
  <time>2026-09-01T01:14:42Z</time>
  <course>84.77</course>
  <speed>0.47010637094172636</speed>
  <fix>3d</fix>
</trkpt>
<trkpt lat="33.8106114" lon="-118.3938338">
  <ele>0.25</ele>
  <time>2026-09-01T01:14:42Z</time>
  <course>85.56</course>
  <speed>0.48</speed>
  <fix>3d</fix>
</trkpt>
<trkpt lat="33.8106114" lon="-118.393832">
  <ele>-0.075</ele>
  <time>2026-09-01T01:14:42Z</time>
  <course>85.02</course>
  <speed>0.47010637094172636</speed>
  <fix>3d</fix>
</trkpt>
<trkpt lat="33.8106114" lon="-118.3938327">
  <ele>0.25</ele>
  <time>2026-09-01T01:14:42Z</time>
  <course>85.68</course>
  <speed>0.48</speed>
  <fix>3d</fix>
</trkpt>
<trkpt lat="33.8106114" lon="-118.3938315">
  <ele>-0.074</ele>
  <time>2026-09-01T01:14:42Z</time>
  <course>85.28</course>
  <speed>0.47010637094172636</speed>
  <fix>3d</fix>
</trkpt>
<trkpt lat="33.8106114" lon="-118.3938327">
  <ele>0.25</ele>
  <time>2026-09-01T01:14:42Z</time>
  <course>85.68</course>
  <speed>0.48</speed>
  <fix>3d</fix>
</trkpt>
<trkpt lat="33.8106114" lon="-118.393831">
  <ele>-0.073</ele>
  <time>2026-09-01T01:14:42Z</time>
  <course>85.54</course>
  <speed>0.47010637094172636</speed>
  <fix>3d</fix>
</trkpt>
<trkpt lat="33.8106115" lon="-118.3938316">
  <ele>0.26</ele>
  <time>2026-09-01T01:14:42Z</time>
  <course>85.8</course>
  <speed>0.48</speed>
  <fix>3d</fix>
</trkpt>
<trkpt lat="33.8106114" lon="-118.3938305">
  <ele>-0.071</ele>
  <time>2026-09-01T01:14:42Z</time>
  <course>85.81</course>
  <speed>0.47010637094172636</speed>
  <fix>3d</fix>
</trkpt>
<trkpt lat="33.8106115" lon="-118.3938316">
  <ele>0.26</ele>
  <time>2026-09-01T01:14:42Z</time>
  <course>85.8</course>
  <speed>0.48</speed>
  <fix>3d</fix>
</trkpt>
<trkpt lat="33.8106115" lon="-118.3938299">
  <ele>-0.069</ele>
  <time>2026-09-01T01:14:42Z</time>
  <course>86.09</course>
  <speed>0.47010637094172636</speed>
  <fix>3d</fix>
</trkpt>
<trkpt lat="33.8106116" lon="-118.3938306">
  <ele>0.26</ele>
  <time>2026-09-01T01:14:42Z</time>
  <course>85.95</course>
  <speed>0.48</speed>
  <fix>3d</fix>
</trkpt>
<trkpt lat="33.8106115" lon="-118.3938294">
  <ele>-0.068</ele>
  <time>2026-09-01T01:14:42Z</time>
  <course>86.38</course>
  <speed>0.47010637094172636</speed>
  <fix>3d</fix>
</trkpt>
<trkpt lat="33.8106116" lon="-118.3938306">
  <ele>0.26</ele>
  <time>2026-09-01T01:14:42Z</time>
  <course>85.95</course>
  <speed>0.48</speed>
  <fix>3d</fix>
</trkpt>
<trkpt lat="33.8106115" lon="-118.3938289">
  <ele>-0.067</ele>
  <time>2026-09-01T01:14:42Z</time>
  <course>86.68</course>
  <speed>0.47</speed>
  <fix>3d</fix>
</trkpt>
<trkpt lat="33.8106116" lon="-118.3938295">
  <ele>0.26</ele>
  <time>2026-09-01T01:14:42Z</time>
  <course>86.13</course>
  <speed>0.48</speed>
  <fix>3d</fix>
</trkpt>
<trkpt lat="33.8106115" lon="-118.3938284">
  <ele>-0.066</ele>
  <time>2026-09-01T01:14:42Z</time>
  <course>86.98</course>
  <speed>0.47</speed>
  <fix>3d</fix>
</trkpt>
<trkpt lat="33.8106116" lon="-118.3938295">
  <ele>0.26</ele>
  <time>2026-09-01T01:14:42Z</time>
  <course>86.13</course>
  <speed>0.48</speed>
  <fix>3d</fix>
</trkpt>
<trkpt lat="33.8106115" lon="-118.3938279">
  <ele>-0.064</ele>
  <time>2026-09-01T01:14:42Z</time>
  <course>87.26</course>
  <speed>0.47</speed>
  <fix>3d</fix>
</trkpt>
<trkpt lat="33.8106117" lon="-118.3938285">
  <ele>0.27</ele>
  <time>2026-09-01T01:14:42Z</time>
  <course>86.32</course>
  <speed>0.48</speed>
  <fix>3d</fix>
</trkpt>
<trkpt lat="33.8106116" lon="-118.3938273">
  <ele>-0.062</ele>
  <time>2026-09-01T01:14:42Z</time>
  <course>87.55</course>
  <speed>0.46</speed>
  <fix>3d</fix>
</trkpt>
<trkpt lat="33.8106117" lon="-118.3938285">
  <ele>0.27</ele>
  <time>2026-09-01T01:14:42Z</time>
  <course>86.32</course>
  <speed>0.48</speed>
  <fix>3d</fix>
</trkpt>
<trkpt lat="33.8106116" lon="-118.3938268">
  <ele>-0.062</ele>
  <time>2026-09-01T01:14:42Z</time>
  <course>87.84</course>
  <speed>0.46</speed>
  <fix>3d</fix>
</trkpt>
<trkpt lat="33.8106117" lon="-118.3938274">
  <ele>0.27</ele>
  <time>2026-09-01T01:14:42Z</time>
  <course>86.48</course>
  <speed>0.48</speed>
  <fix>3d</fix>
</trkpt>
<trkpt lat="33.8106116" lon="-118.3938263">
  <ele>-0.063</ele>
  <time>2026-09-01T01:14:42Z</time>
  <course>88.13</course>
  <speed>0.46</speed>
  <fix>3d</fix>
</trkpt>
<trkpt lat="33.8106117" lon="-118.3938274">
  <ele>0.27</ele>
  <time>2026-09-01T01:14:42Z</time>
  <course>86.48</course>
  <speed>0.48</speed>
  <fix>3d</fix>
</trkpt>
<trkpt lat="33.8106117" lon="-118.3938258">
  <ele>-0.063</ele>
  <time>2026-09-01T01:14:42Z</time>
  <course>88.41</course>
  <speed>0.46</speed>
  <fix>3d</fix>
</trkpt>
<trkpt lat="33.8106118" lon="-118.3938264">
  <ele>0.28</ele>
  <time>2026-09-01T01:14:42Z</time>
  <course>86.6</course>
  <speed>0.48</speed>
  <fix>3d</fix>
</trkpt>
<trkpt lat="33.8106117" lon="-118.3938253">
  <ele>-0.064</ele>
  <time>2026-09-01T01:14:42Z</time>
  <course>88.7</course>
  <speed>0.46</speed>
  <fix>3d</fix>
</trkpt>
<trkpt lat="33.8106118" lon="-118.3938264">
  <ele>0.28</ele>
  <time>2026-09-01T01:14:42Z</time>
  <course>86.6</course>
  <speed>0.48</speed>
  <fix>3d</fix>
</trkpt>
<trkpt lat="33.8106117" lon="-118.3938247">
  <ele>-0.066</ele>
  <time>2026-09-01T01:14:42Z</time>
  <course>88.99</course>
  <speed>0.46</speed>
  <fix>3d</fix>
</trkpt>
<trkpt lat="33.8106119" lon="-118.3938253">
  <ele>0.28</ele>
  <time>2026-09-01T01:14:42Z</time>
  <course>86.68</course>
  <speed>0.48</speed>
  <fix>3d</fix>
</trkpt>
<trkpt lat="33.8106117" lon="-118.3938242">
  <ele>-0.067</ele>
  <time>2026-09-01T01:14:42Z</time>
  <course>89.32</course>
  <speed>0.46</speed>
  <fix>3d</fix>
</trkpt>
<trkpt lat="33.8106119" lon="-118.3938253">
  <ele>0.28</ele>
  <time>2026-09-01T01:14:42Z</time>
  <course>86.68</course>
  <speed>0.48</speed>
  <fix>3d</fix>
</trkpt>
<trkpt lat="33.8106117" lon="-118.3938237">
  <ele>-0.067</ele>
  <time>2026-09-01T01:14:42Z</time>
  <course>89.65</course>
  <speed>0.46</speed>
  <fix>3d</fix>
</trkpt>
<trkpt lat="33.8106119" lon="-118.3938243">
  <ele>0.29</ele>
  <time>2026-09-01T01:14:42Z</time>
  <course>86.81</course>
  <speed>0.48</speed>
  <fix>3d</fix>
</trkpt>
<trkpt lat="33.8106117" lon="-118.3938232">
  <ele>-0.067</ele>
  <time>2026-09-01T01:14:42Z</time>
  <course>90.01</course>
  <speed>0.46</speed>
  <fix>3d</fix>
</trkpt>
<trkpt lat="33.8106119" lon="-118.3938243">
  <ele>0.29</ele>
  <time>2026-09-01T01:14:42Z</time>
  <course>86.81</course>
  <speed>0.48</speed>
  <fix>3d</fix>
</trkpt>
<trkpt lat="33.8106117" lon="-118.3938227">
  <ele>-0.067</ele>
  <time>2026-09-01T01:14:42Z</time>
  <course>90.36</course>
  <speed>0.46</speed>
  <fix>3d</fix>
</trkpt>
<trkpt lat="33.810612" lon="-118.3938232">
  <ele>0.29</ele>
  <time>2026-09-01T01:14:42Z</time>
  <course>86.95</course>
  <speed>0.48</speed>
  <fix>3d</fix>
</trkpt>
<trkpt lat="33.8106118" lon="-118.3938221">
  <ele>-0.066</ele>
  <time>2026-09-01T01:14:42Z</time>
  <course>90.73</course>
  <speed>0.46</speed>
  <fix>3d</fix>
</trkpt>
<trkpt lat="33.810612" lon="-118.3938232">
  <ele>0.29</ele>
  <time>2026-09-01T01:14:42Z</time>
  <course>86.95</course>
  <speed>0.48</speed>
  <fix>3d</fix>
</trkpt>
<trkpt lat="33.8106118" lon="-118.3938216">
  <ele>-0.064</ele>
  <time>2026-09-01T01:14:42Z</time>
  <course>91.09</course>
  <speed>0.46</speed>
  <fix>3d</fix>
</trkpt>
<trkpt lat="33.810612" lon="-118.3938222">
  <ele>0.29</ele>
  <time>2026-09-01T01:14:42Z</time>
  <course>87.07</course>
  <speed>0.48</speed>
  <fix>3d</fix>
</trkpt>
<trkpt lat="33.8106118" lon="-118.3938211">
  <ele>-0.063</ele>
  <time>2026-09-01T01:14:42Z</time>
  <course>91.45</course>
  <speed>0.46</speed>
  <fix>3d</fix>
</trkpt>
<trkpt lat="33.810612" lon="-118.3938222">
  <ele>0.29</ele>
  <time>2026-09-01T01:14:42Z</time>
  <course>87.07</course>
  <speed>0.48</speed>
  <fix>3d</fix>
</trkpt>
<trkpt lat="33.8106119" lon="-118.3938206">
  <ele>-0.062</ele>
  <time>2026-09-01T01:14:42Z</time>
  <course>91.79</course>
  <speed>0.46</speed>
  <fix>3d</fix>
</trkpt>
<trkpt lat="33.810612" lon="-118.3938211">
  <ele>0.3</ele>
  <time>2026-09-01T01:14:42Z</time>
  <course>87.14</course>
  <speed>0.48</speed>
  <fix>3d</fix>
</trkpt>
<trkpt lat="33.8106119" lon="-118.3938201">
  <ele>-0.062</ele>
  <time>2026-09-01T01:14:42Z</time>
  <course>92.11</course>
  <speed>0.46</speed>
  <fix>3d</fix>
</trkpt>
<trkpt lat="33.810612" lon="-118.3938211">
  <ele>0.3</ele>
  <time>2026-09-01T01:14:42Z</time>
  <course>87.14</course>
  <speed>0.48</speed>
  <fix>3d</fix>
</trkpt>
<trkpt lat="33.8106119" lon="-118.3938195">
  <ele>-0.062</ele>
  <time>2026-09-01T01:14:42Z</time>
  <course>92.4</course>
  <speed>0.46</speed>
  <fix>3d</fix>
</trkpt>
<trkpt lat="33.8106121" lon="-118.3938201">
  <ele>0.3</ele>
  <time>2026-09-01T01:14:42Z</time>
  <course>87.14</course>
  <speed>0.48</speed>
  <fix>3d</fix>
</trkpt>
<trkpt lat="33.8106119" lon="-118.393819">
  <ele>-0.061</ele>
  <time>2026-09-01T01:14:42Z</time>
  <course>92.7</course>
  <speed>0.45</speed>
  <fix>3d</fix>
</trkpt>
<trkpt lat="33.8106121" lon="-118.3938201">
  <ele>0.3</ele>
  <time>2026-09-01T01:14:42Z</time>
  <course>87.14</course>
  <speed>0.48</speed>
  <fix>3d</fix>
</trkpt>
<trkpt lat="33.8106119" lon="-118.3938185">
  <ele>-0.062</ele>
  <time>2026-09-01T01:14:42Z</time>
  <course>92.98</course>
  <speed>0.45</speed>
  <fix>3d</fix>
</trkpt>
<trkpt lat="33.8106121" lon="-118.393819">
  <ele>0.3</ele>
  <time>2026-09-01T01:14:42Z</time>
  <course>87.13</course>
  <speed>0.48</speed>
  <fix>3d</fix>
</trkpt>
<trkpt lat="33.8106119" lon="-118.393818">
  <ele>-0.063</ele>
  <time>2026-09-01T01:14:42Z</time>
  <course>93.25</course>
  <speed>0.45</speed>
  <fix>3d</fix>
</trkpt>
<trkpt lat="33.8106121" lon="-118.393819">
  <ele>0.3</ele>
  <time>2026-09-01T01:14:42Z</time>
  <course>87.13</course>
  <speed>0.48</speed>
  <fix>3d</fix>
</trkpt>
<trkpt lat="33.8106119" lon="-118.3938175">
  <ele>-0.063</ele>
  <time>2026-09-01T01:14:42Z</time>
  <course>93.5</course>
  <speed>0.45</speed>
  <fix>3d</fix>
</trkpt>
<trkpt lat="33.8106122" lon="-118.393818">
  <ele>0.3</ele>
  <time>2026-09-01T01:14:42Z</time>
  <course>87.19</course>
  <speed>0.48</speed>
  <fix>3d</fix>
</trkpt>
<trkpt lat="33.810612" lon="-118.3938169">
  <ele>-0.063</ele>
  <time>2026-09-01T01:14:42Z</time>
  <course>93.75</course>
  <speed>0.45</speed>
  <fix>3d</fix>
</trkpt>
<trkpt lat="33.8106122" lon="-118.393818">
  <ele>0.3</ele>
  <time>2026-09-01T01:14:42Z</time>
  <course>87.19</course>
  <speed>0.48</speed>
  <fix>3d</fix>
</trkpt>
<trkpt lat="33.810612" lon="-118.3938164">
  <ele>-0.063</ele>
  <time>2026-09-01T01:14:42Z</time>
  <course>93.99</course>
  <speed>0.45</speed>
  <fix>3d</fix>
</trkpt>
<trkpt lat="33.8106122" lon="-118.3938169">
  <ele>0.31</ele>
  <time>2026-09-01T01:14:42Z</time>
  <course>87.33</course>
  <speed>0.48</speed>
  <fix>3d</fix>
</trkpt>
<trkpt lat="33.810612" lon="-118.3938159">
  <ele>-0.063</ele>
  <time>2026-09-01T01:14:42Z</time>
  <course>94.22</course>
  <speed>0.45</speed>
  <fix>3d</fix>
</trkpt>
<trkpt lat="33.8106122" lon="-118.3938169">
  <ele>0.31</ele>
  <time>2026-09-01T01:14:42Z</time>
  <course>87.33</course>
  <speed>0.48</speed>
  <fix>3d</fix>
</trkpt>
<trkpt lat="33.810612" lon="-118.3938154">
  <ele>-0.063</ele>
  <time>2026-09-01T01:14:42Z</time>
  <course>94.44</course>
  <speed>0.45</speed>
  <fix>3d</fix>
</trkpt>
<trkpt lat="33.8106122" lon="-118.3938159">
  <ele>0.31</ele>
  <time>2026-09-01T01:14:42Z</time>
  <course>87.51</course>
  <speed>0.48</speed>
  <fix>3d</fix>
</trkpt>
<trkpt lat="33.810612" lon="-118.3938149">
  <ele>-0.063</ele>
  <time>2026-09-01T01:14:42Z</time>
  <course>94.64</course>
  <speed>0.45</speed>
  <fix>3d</fix>
</trkpt>
<trkpt lat="33.8106122" lon="-118.3938159">
  <ele>0.31</ele>
  <time>2026-09-01T01:14:42Z</time>
  <course>87.51</course>
  <speed>0.48</speed>
  <fix>3d</fix>
</trkpt>
<trkpt lat="33.810612" lon="-118.3938143">
  <ele>-0.064</ele>
  <time>2026-09-01T01:14:42Z</time>
  <course>94.82</course>
  <speed>0.45</speed>
  <fix>3d</fix>
</trkpt>
<trkpt lat="33.8106122" lon="-118.3938148">
  <ele>0.31</ele>
  <time>2026-09-01T01:14:42Z</time>
  <course>87.64</course>
  <speed>0.48</speed>
  <fix>3d</fix>
</trkpt>
<trkpt lat="33.810612" lon="-118.3938138">
  <ele>-0.064</ele>
  <time>2026-09-01T01:14:42Z</time>
  <course>94.98</course>
  <speed>0.450111097397076</speed>
  <fix>3d</fix>
</trkpt>
<trkpt lat="33.8106122" lon="-118.3938148">
  <ele>0.31</ele>
  <time>2026-09-01T01:14:42Z</time>
  <course>87.64</course>
  <speed>0.48</speed>
  <fix>3d</fix>
</trkpt>
<trkpt lat="33.8106121" lon="-118.3938133">
  <ele>-0.065</ele>
  <time>2026-09-01T01:14:42Z</time>
  <course>95.11</course>
  <speed>0.450111097397076</speed>
  <fix>3d</fix>
</trkpt>
<trkpt lat="33.8106123" lon="-118.3938138">
  <ele>0.31</ele>
  <time>2026-09-01T01:14:42Z</time>
  <course>87.69</course>
  <speed>0.48</speed>
  <fix>3d</fix>
</trkpt>
<trkpt lat="33.8106121" lon="-118.3938128">
  <ele>-0.065</ele>
  <time>2026-09-01T01:14:42Z</time>
  <course>95.23</course>
  <speed>0.450111097397076</speed>
  <fix>3d</fix>
</trkpt>
<trkpt lat="33.8106123" lon="-118.3938138">
  <ele>0.31</ele>
  <time>2026-09-01T01:14:42Z</time>
  <course>87.69</course>
  <speed>0.48</speed>
  <fix>3d</fix>
</trkpt>
<trkpt lat="33.8106121" lon="-118.3938122">
  <ele>-0.065</ele>
  <time>2026-09-01T01:14:42Z</time>
  <course>95.36</course>
  <speed>0.450111097397076</speed>
  <fix>3d</fix>
</trkpt>
<trkpt lat="33.8106123" lon="-118.3938127">
  <ele>0.31</ele>
  <time>2026-09-01T01:14:42Z</time>
  <course>87.75</course>
  <speed>0.48</speed>
  <fix>3d</fix>
</trkpt>
<trkpt lat="33.8106121" lon="-118.3938117">
  <ele>-0.065</ele>
  <time>2026-09-01T01:14:42Z</time>
  <course>95.49</course>
  <speed>0.450111097397076</speed>
  <fix>3d</fix>
</trkpt>
<trkpt lat="33.8106123" lon="-118.3938127">
  <ele>0.31</ele>
  <time>2026-09-01T01:14:42Z</time>
  <course>87.75</course>
  <speed>0.48</speed>
  <fix>3d</fix>
</trkpt>
<trkpt lat="33.8106121" lon="-118.3938112">
  <ele>-0.065</ele>
  <time>2026-09-01T01:14:42Z</time>
  <course>95.62</course>
  <speed>0.450111097397076</speed>
  <fix>3d</fix>
</trkpt>
<trkpt lat="33.8106123" lon="-118.3938116">
  <ele>0.32</ele>
  <time>2026-09-01T01:14:42Z</time>
  <course>87.89</course>
  <speed>0.48</speed>
  <fix>3d</fix>
</trkpt>
<trkpt lat="33.8106121" lon="-118.3938107">
  <ele>-0.065</ele>
  <time>2026-09-01T01:14:42Z</time>
  <course>95.75</course>
  <speed>0.450111097397076</speed>
  <fix>3d</fix>
</trkpt>
<trkpt lat="33.8106123" lon="-118.3938116">
  <ele>0.32</ele>
  <time>2026-09-01T01:14:42Z</time>
  <course>87.89</course>
  <speed>0.48</speed>
  <fix>3d</fix>
</trkpt>
<trkpt lat="33.8106122" lon="-118.3938102">
  <ele>-0.065</ele>
  <time>2026-09-01T01:14:42Z</time>
  <course>95.85</course>
  <speed>0.450111097397076</speed>
  <fix>3d</fix>
</trkpt>
<trkpt lat="33.8106124" lon="-118.3938106">
  <ele>0.32</ele>
  <time>2026-09-01T01:14:42Z</time>
  <course>87.99</course>
  <speed>0.48</speed>
  <fix>3d</fix>
</trkpt>
<trkpt lat="33.8106122" lon="-118.3938096">
  <ele>-0.065</ele>
  <time>2026-09-01T01:14:42Z</time>
  <course>95.96</course>
  <speed>0.450111097397076</speed>
  <fix>3d</fix>
</trkpt>
<trkpt lat="33.8106124" lon="-118.3938106">
  <ele>0.32</ele>
  <time>2026-09-01T01:14:42Z</time>
  <course>87.99</course>
  <speed>0.48</speed>
  <fix>3d</fix>
</trkpt>
<trkpt lat="33.8106122" lon="-118.3938091">
  <ele>-0.065</ele>
  <time>2026-09-01T01:14:42Z</time>
  <course>96.08</course>
  <speed>0.450111097397076</speed>
  <fix>3d</fix>
</trkpt>
<trkpt lat="33.8106125" lon="-118.3938095">
  <ele>0.32</ele>
  <time>2026-09-01T01:14:42Z</time>
  <course>88.12</course>
  <speed>0.48</speed>
  <fix>3d</fix>
</trkpt>
<trkpt lat="33.8106122" lon="-118.3938086">
  <ele>-0.065</ele>
  <time>2026-09-01T01:14:42Z</time>
  <course>96.21</course>
  <speed>0.450111097397076</speed>
  <fix>3d</fix>
</trkpt>
<trkpt lat="33.8106125" lon="-118.3938095">
  <ele>0.32</ele>
  <time>2026-09-01T01:14:42Z</time>
  <course>88.12</course>
  <speed>0.48</speed>
  <fix>3d</fix>
</trkpt>
<trkpt lat="33.8106122" lon="-118.393808">
  <ele>-0.065</ele>
  <time>2026-09-01T01:14:42Z</time>
  <course>96.36</course>
  <speed>0.450111097397076</speed>
  <fix>3d</fix>
</trkpt>
<trkpt lat="33.8106125" lon="-118.3938085">
  <ele>0.32</ele>
  <time>2026-09-01T01:14:42Z</time>
  <course>88.42</course>
  <speed>0.48</speed>
  <fix>3d</fix>
</trkpt>
<trkpt lat="33.8106122" lon="-118.3938075">
  <ele>-0.064</ele>
  <time>2026-09-01T01:14:42Z</time>
  <course>96.52</course>
  <speed>0.45044422518220834</speed>
  <fix>3d</fix>
</trkpt>
<trkpt lat="33.8106125" lon="-118.3938085">
  <ele>0.32</ele>
  <time>2026-09-01T01:14:42Z</time>
  <course>88.42</course>
  <speed>0.48</speed>
  <fix>3d</fix>
</trkpt>
<trkpt lat="33.8106122" lon="-118.393807">
  <ele>-0.064</ele>
  <time>2026-09-01T01:14:42Z</time>
  <course>96.68</course>
  <speed>0.45044422518220834</speed>
  <fix>3d</fix>
</trkpt>
<trkpt lat="33.8106125" lon="-118.3938074">
  <ele>0.32</ele>
  <time>2026-09-01T01:14:42Z</time>
  <course>88.8</course>
  <speed>0.48</speed>
  <fix>3d</fix>
</trkpt>
<trkpt lat="33.8106122" lon="-118.3938065">
  <ele>-0.063</ele>
  <time>2026-09-01T01:14:42Z</time>
  <course>96.82</course>
  <speed>0.45044422518220834</speed>
  <fix>3d</fix>
</trkpt>
<trkpt lat="33.8106125" lon="-118.3938074">
  <ele>0.32</ele>
  <time>2026-09-01T01:14:42Z</time>
  <course>88.8</course>
  <speed>0.48</speed>
  <fix>3d</fix>
</trkpt>
<trkpt lat="33.8106122" lon="-118.3938059">
  <ele>-0.063</ele>
  <time>2026-09-01T01:14:42Z</time>
  <course>96.96</course>
  <speed>0.45044422518220834</speed>
  <fix>3d</fix>
</trkpt>
<trkpt lat="33.8106125" lon="-118.3938064">
  <ele>0.32</ele>
  <time>2026-09-01T01:14:42Z</time>
  <course>89.12</course>
  <speed>0.48</speed>
  <fix>3d</fix>
</trkpt>
<trkpt lat="33.8106122" lon="-118.3938054">
  <ele>-0.064</ele>
  <time>2026-09-01T01:14:42Z</time>
  <course>97.07</course>
  <speed>0.45044422518220834</speed>
  <fix>3d</fix>
</trkpt>
<trkpt lat="33.8106125" lon="-118.3938064">
  <ele>0.32</ele>
  <time>2026-09-01T01:14:42Z</time>
  <course>89.12</course>
  <speed>0.48</speed>
  <fix>3d</fix>
</trkpt>
<trkpt lat="33.8106123" lon="-118.3938049">
  <ele>-0.065</ele>
  <time>2026-09-01T01:14:42Z</time>
  <course>97.17</course>
  <speed>0.45044422518220834</speed>
  <fix>3d</fix>
</trkpt>
<trkpt lat="33.8106126" lon="-118.3938053">
  <ele>0.32</ele>
  <time>2026-09-01T01:14:42Z</time>
  <course>89.34</course>
  <speed>0.48</speed>
  <fix>3d</fix>
</trkpt>
<trkpt lat="33.8106123" lon="-118.3938044">
  <ele>-0.066</ele>
  <time>2026-09-01T01:14:42Z</time>
  <course>97.24</course>
  <speed>0.45044422518220834</speed>
  <fix>3d</fix>
</trkpt>
<trkpt lat="33.8106126" lon="-118.3938053">
  <ele>0.32</ele>
  <time>2026-09-01T01:14:42Z</time>
  <course>89.34</course>
  <speed>0.48</speed>
  <fix>3d</fix>
</trkpt>
<trkpt lat="33.8106123" lon="-118.3938039">
  <ele>-0.067</ele>
  <time>2026-09-01T01:14:42Z</time>
  <course>97.33</course>
  <speed>0.45044422518220834</speed>
  <fix>3d</fix>
</trkpt>
<trkpt lat="33.8106126" lon="-118.3938043">
  <ele>0.32</ele>
  <time>2026-09-01T01:14:42Z</time>
  <course>89.57</course>
  <speed>0.48</speed>
  <fix>3d</fix>
</trkpt>
<trkpt lat="33.8106123" lon="-118.3938033">
  <ele>-0.069</ele>
  <time>2026-09-01T01:14:42Z</time>
  <course>97.44</course>
  <speed>0.45044422518220834</speed>
  <fix>3d</fix>
</trkpt>
<trkpt lat="33.8106126" lon="-118.3938043">
  <ele>0.32</ele>
  <time>2026-09-01T01:14:42Z</time>
  <course>89.57</course>
  <speed>0.48</speed>
  <fix>3d</fix>
</trkpt>
<trkpt lat="33.8106123" lon="-118.3938028">
  <ele>-0.071</ele>
  <time>2026-09-01T01:14:42Z</time>
  <course>97.54</course>
  <speed>0.45044422518220834</speed>
  <fix>3d</fix>
</trkpt>
<trkpt lat="33.8106126" lon="-118.3938032">
  <ele>0.32</ele>
  <time>2026-09-01T01:14:42Z</time>
  <course>89.85</course>
  <speed>0.48</speed>
  <fix>3d</fix>
</trkpt>
<trkpt lat="33.8106123" lon="-118.3938023">
  <ele>-0.073</ele>
  <time>2026-09-01T01:14:42Z</time>
  <course>97.64</course>
  <speed>0.45044422518220834</speed>
  <fix>3d</fix>
</trkpt>
<trkpt lat="33.8106126" lon="-118.3938032">
  <ele>0.32</ele>
  <time>2026-09-01T01:14:42Z</time>
  <course>89.85</course>
  <speed>0.48</speed>
  <fix>3d</fix>
</trkpt>
<trkpt lat="33.8106123" lon="-118.3938018">
  <ele>-0.074</ele>
  <time>2026-09-01T01:14:42Z</time>
  <course>97.73</course>
  <speed>0.45044422518220834</speed>
  <fix>3d</fix>
</trkpt>
<trkpt lat="33.8106126" lon="-118.3938022">
  <ele>0.32</ele>
  <time>2026-09-01T01:14:42Z</time>
  <course>90.11</course>
  <speed>0.48</speed>
  <fix>3d</fix>
</trkpt>
<trkpt lat="33.8106123" lon="-118.3938012">
  <ele>-0.075</ele>
  <time>2026-09-01T01:14:42Z</time>
  <course>97.8</course>
  <speed>0.45044422518220834</speed>
  <fix>3d</fix>
</trkpt>
<trkpt lat="33.8106126" lon="-118.3938022">
  <ele>0.32</ele>
  <time>2026-09-01T01:14:42Z</time>
  <course>90.11</course>
  <speed>0.48</speed>
  <fix>3d</fix>
</trkpt>
<trkpt lat="33.8106123" lon="-118.3938007">
  <ele>-0.077</ele>
  <time>2026-09-01T01:14:42Z</time>
  <course>97.86</course>
  <speed>0.45044422518220834</speed>
  <fix>3d</fix>
</trkpt>
<trkpt lat="33.8106126" lon="-118.3938011">
  <ele>0.32</ele>
  <time>2026-09-01T01:14:42Z</time>
  <course>90.31</course>
  <speed>0.48</speed>
  <fix>3d</fix>
</trkpt>
<trkpt lat="33.8106123" lon="-118.3938002">
  <ele>-0.078</ele>
  <time>2026-09-01T01:14:42Z</time>
  <course>97.92</course>
  <speed>0.45044422518220834</speed>
  <fix>3d</fix>
</trkpt>
<trkpt lat="33.8106126" lon="-118.3938011">
  <ele>0.32</ele>
  <time>2026-09-01T01:14:42Z</time>
  <course>90.31</course>
  <speed>0.48</speed>
  <fix>3d</fix>
</trkpt>
<trkpt lat="33.8106123" lon="-118.3937997">
  <ele>-0.079</ele>
  <time>2026-09-01T01:14:42Z</time>
  <course>97.96</course>
  <speed>0.45044422518220834</speed>
  <fix>3d</fix>
</trkpt>
<trkpt lat="33.8106126" lon="-118.3938001">
  <ele>0.32</ele>
  <time>2026-09-01T01:14:42Z</time>
  <course>90.45</course>
  <speed>0.48</speed>
  <fix>3d</fix>
</trkpt>
<trkpt lat="33.8106123" lon="-118.3937991">
  <ele>-0.079</ele>
  <time>2026-09-01T01:14:42Z</time>
  <course>98.0</course>
  <speed>0.45044422518220834</speed>
  <fix>3d</fix>
</trkpt>
<trkpt lat="33.8106126" lon="-118.3938001">
  <ele>0.32</ele>
  <time>2026-09-01T01:14:42Z</time>
  <course>90.45</course>
  <speed>0.48</speed>
  <fix>3d</fix>
</trkpt>
<trkpt lat="33.8106123" lon="-118.3937986">
  <ele>-0.079</ele>
  <time>2026-09-01T01:14:42Z</time>
  <course>98.02</course>
  <speed>0.45044422518220834</speed>
  <fix>3d</fix>
</trkpt>
<trkpt lat="33.8106126" lon="-118.393799">
  <ele>0.32</ele>
  <time>2026-09-01T01:14:42Z</time>
  <course>90.56</course>
  <speed>0.48</speed>
  <fix>3d</fix>
</trkpt>
<trkpt lat="33.8106123" lon="-118.3937981">
  <ele>-0.078</ele>
  <time>2026-09-01T01:14:42Z</time>
  <course>98.05</course>
  <speed>0.45044422518220834</speed>
  <fix>3d</fix>
</trkpt>
<trkpt lat="33.8106126" lon="-118.393799">
  <ele>0.32</ele>
  <time>2026-09-01T01:14:42Z</time>
  <course>90.56</course>
  <speed>0.48</speed>
  <fix>3d</fix>
</trkpt>
<trkpt lat="33.8106123" lon="-118.3937976">
  <ele>-0.079</ele>
  <time>2026-09-01T01:14:42Z</time>
  <course>98.06</course>
  <speed>0.45044422518220834</speed>
  <fix>3d</fix>
</trkpt>
<trkpt lat="33.8106126" lon="-118.3937979">
  <ele>0.31</ele>
  <time>2026-09-01T01:14:42Z</time>
  <course>90.65</course>
  <speed>0.48</speed>
  <fix>3d</fix>
</trkpt>
<trkpt lat="33.8106123" lon="-118.393797">
  <ele>-0.08</ele>
  <time>2026-09-01T01:14:42Z</time>
  <course>98.07</course>
  <speed>0.45044422518220834</speed>
  <fix>3d</fix>
</trkpt>
<trkpt lat="33.8106126" lon="-118.3937979">
  <ele>0.31</ele>
  <time>2026-09-01T01:14:42Z</time>
  <course>90.65</course>
  <speed>0.48</speed>
  <fix>3d</fix>
</trkpt>
<trkpt lat="33.8106123" lon="-118.3937965">
  <ele>-0.081</ele>
  <time>2026-09-01T01:14:42Z</time>
  <course>98.07</course>
  <speed>0.45044422518220834</speed>
  <fix>3d</fix>
</trkpt>
<trkpt lat="33.8106126" lon="-118.3937969">
  <ele>0.31</ele>
  <time>2026-09-01T01:14:42Z</time>
  <course>90.74</course>
  <speed>0.48</speed>
  <fix>3d</fix>
</trkpt>
<trkpt lat="33.8106123" lon="-118.393796">
  <ele>-0.083</ele>
  <time>2026-09-01T01:14:42Z</time>
  <course>98.09</course>
  <speed>0.45044422518220834</speed>
  <fix>3d</fix>
</trkpt>
<trkpt lat="33.8106126" lon="-118.3937969">
  <ele>0.31</ele>
  <time>2026-09-01T01:14:42Z</time>
  <course>90.74</course>
  <speed>0.48</speed>
  <fix>3d</fix>
</trkpt>
<trkpt lat="33.8106123" lon="-118.3937954">
  <ele>-0.085</ele>
  <time>2026-09-01T01:14:42Z</time>
  <course>98.08</course>
  <speed>0.45044422518220834</speed>
  <fix>3d</fix>
</trkpt>
<trkpt lat="33.8106126" lon="-118.3937958">
  <ele>0.31</ele>
  <time>2026-09-01T01:14:42Z</time>
  <course>90.8</course>
  <speed>0.48</speed>
  <fix>3d</fix>
</trkpt>
<trkpt lat="33.8106123" lon="-118.3937949">
  <ele>-0.086</ele>
  <time>2026-09-01T01:14:42Z</time>
  <course>98.08</course>
  <speed>0.45044422518220834</speed>
  <fix>3d</fix>
</trkpt>
<trkpt lat="33.8106126" lon="-118.3937958">
  <ele>0.31</ele>
  <time>2026-09-01T01:14:42Z</time>
  <course>90.8</course>
  <speed>0.48</speed>
  <fix>3d</fix>
</trkpt>
<trkpt lat="33.8106123" lon="-118.3937944">
  <ele>-0.086</ele>
  <time>2026-09-01T01:14:42Z</time>
  <course>98.06</course>
  <speed>0.45044422518220834</speed>
  <fix>3d</fix>
</trkpt>
<trkpt lat="33.8106126" lon="-118.3937948">
  <ele>0.31</ele>
  <time>2026-09-01T01:14:42Z</time>
  <course>90.86</course>
  <speed>0.48</speed>
  <fix>3d</fix>
</trkpt>
<trkpt lat="33.8106123" lon="-118.3937939">
  <ele>-0.087</ele>
  <time>2026-09-01T01:14:42Z</time>
  <course>98.05</course>
  <speed>0.45044422518220834</speed>
  <fix>3d</fix>
</trkpt>
<trkpt lat="33.8106126" lon="-118.3937948">
  <ele>0.31</ele>
  <time>2026-09-01T01:14:42Z</time>
  <course>90.86</course>
  <speed>0.48</speed>
  <fix>3d</fix>
</trkpt>
<trkpt lat="33.8106123" lon="-118.3937933">
  <ele>-0.087</ele>
  <time>2026-09-01T01:14:42Z</time>
  <course>98.03</course>
  <speed>0.45044422518220834</speed>
  <fix>3d</fix>
</trkpt>
<trkpt lat="33.8106126" lon="-118.3937937">
  <ele>0.31</ele>
  <time>2026-09-01T01:14:42Z</time>
  <course>90.92</course>
  <speed>0.48</speed>
  <fix>3d</fix>
</trkpt>
<trkpt lat="33.8106123" lon="-118.3937928">
  <ele>-0.086</ele>
  <time>2026-09-01T01:14:42Z</time>
  <course>98.01</course>
  <speed>0.45044422518220834</speed>
  <fix>3d</fix>
</trkpt>
<trkpt lat="33.8106126" lon="-118.3937937">
  <ele>0.31</ele>
  <time>2026-09-01T01:14:42Z</time>
  <course>90.92</course>
  <speed>0.48</speed>
  <fix>3d</fix>
</trkpt>
<trkpt lat="33.8106123" lon="-118.3937923">
  <ele>-0.086</ele>
  <time>2026-09-01T01:14:42Z</time>
  <course>97.99</course>
  <speed>0.45044422518220834</speed>
  <fix>3d</fix>
</trkpt>
<trkpt lat="33.8106126" lon="-118.3937927">
  <ele>0.3</ele>
  <time>2026-09-01T01:14:42Z</time>
  <course>90.97</course>
  <speed>0.48</speed>
  <fix>3d</fix>
</trkpt>
<trkpt lat="33.8106123" lon="-118.3937918">
  <ele>-0.086</ele>
  <time>2026-09-01T01:14:42Z</time>
  <course>97.96</course>
  <speed>0.44045431091090476</speed>
  <fix>3d</fix>
</trkpt>
<trkpt lat="33.8106126" lon="-118.3937927">
  <ele>0.3</ele>
  <time>2026-09-01T01:14:42Z</time>
  <course>90.97</course>
  <speed>0.48</speed>
  <fix>3d</fix>
</trkpt>
<trkpt lat="33.8106123" lon="-118.3937912">
  <ele>-0.087</ele>
  <time>2026-09-01T01:14:42Z</time>
  <course>97.93</course>
  <speed>0.44045431091090476</speed>
  <fix>3d</fix>
</trkpt>
<trkpt lat="33.8106126" lon="-118.3937916">
  <ele>0.3</ele>
  <time>2026-09-01T01:14:42Z</time>
  <course>91.06</course>
  <speed>0.48</speed>
  <fix>3d</fix>
</trkpt>
<trkpt lat="33.8106123" lon="-118.3937907">
  <ele>-0.088</ele>
  <time>2026-09-01T01:14:42Z</time>
  <course>97.9</course>
  <speed>0.44045431091090476</speed>
  <fix>3d</fix>
</trkpt>
<trkpt lat="33.8106126" lon="-118.3937916">
  <ele>0.3</ele>
  <time>2026-09-01T01:14:42Z</time>
  <course>91.06</course>
  <speed>0.48</speed>
  <fix>3d</fix>
</trkpt>
<trkpt lat="33.8106123" lon="-118.3937902">
  <ele>-0.089</ele>
  <time>2026-09-01T01:14:42Z</time>
  <course>97.87</course>
  <speed>0.44045431091090476</speed>
  <fix>3d</fix>
</trkpt>
<trkpt lat="33.8106125" lon="-118.3937906">
  <ele>0.3</ele>
  <time>2026-09-01T01:14:42Z</time>
  <course>91.14</course>
  <speed>0.48</speed>
  <fix>3d</fix>
</trkpt>
<trkpt lat="33.8106123" lon="-118.3937897">
  <ele>-0.091</ele>
  <time>2026-09-01T01:14:42Z</time>
  <course>97.83</course>
  <speed>0.44045431091090476</speed>
  <fix>3d</fix>
</trkpt>
<trkpt lat="33.8106125" lon="-118.3937906">
  <ele>0.3</ele>
  <time>2026-09-01T01:14:42Z</time>
  <course>91.14</course>
  <speed>0.48</speed>
  <fix>3d</fix>
</trkpt>
<trkpt lat="33.8106123" lon="-118.3937892">
  <ele>-0.092</ele>
  <time>2026-09-01T01:14:42Z</time>
  <course>97.75</course>
  <speed>0.45044422518220834</speed>
  <fix>3d</fix>
</trkpt>
<trkpt lat="33.8106125" lon="-118.3937895">
  <ele>0.3</ele>
  <time>2026-09-01T01:14:42Z</time>
  <course>91.12</course>
  <speed>0.48</speed>
  <fix>3d</fix>
</trkpt>
<trkpt lat="33.8106123" lon="-118.3937886">
  <ele>-0.092</ele>
  <time>2026-09-01T01:14:42Z</time>
  <course>97.67</course>
  <speed>0.45044422518220834</speed>
  <fix>3d</fix>
</trkpt>
<trkpt lat="33.8106125" lon="-118.3937895">
  <ele>0.3</ele>
  <time>2026-09-01T01:14:42Z</time>
  <course>91.12</course>
  <speed>0.48</speed>
  <fix>3d</fix>
</trkpt>
<trkpt lat="33.8106123" lon="-118.3937881">
  <ele>-0.093</ele>
  <time>2026-09-01T01:14:42Z</time>
  <course>97.55</course>
  <speed>0.45044422518220834</speed>
  <fix>3d</fix>
</trkpt>
<trkpt lat="33.8106125" lon="-118.3937884">
  <ele>0.29</ele>
  <time>2026-09-01T01:14:42Z</time>
  <course>90.98</course>
  <speed>0.48</speed>
  <fix>3d</fix>
</trkpt>
<trkpt lat="33.8106123" lon="-118.3937876">
  <ele>-0.095</ele>
  <time>2026-09-01T01:14:42Z</time>
  <course>97.45</course>
  <speed>0.45044422518220834</speed>
  <fix>3d</fix>
</trkpt>
<trkpt lat="33.8106125" lon="-118.3937884">
  <ele>0.29</ele>
  <time>2026-09-01T01:14:42Z</time>
  <course>90.98</course>
  <speed>0.48</speed>
  <fix>3d</fix>
</trkpt>
<trkpt lat="33.8106123" lon="-118.393787">
  <ele>-0.096</ele>
  <time>2026-09-01T01:14:42Z</time>
  <course>97.34</course>
  <speed>0.45044422518220834</speed>
  <fix>3d</fix>
</trkpt>
<trkpt lat="33.8106125" lon="-118.3937874">
  <ele>0.29</ele>
  <time>2026-09-01T01:14:42Z</time>
  <course>90.85</course>
  <speed>0.48</speed>
  <fix>3d</fix>
</trkpt>
<trkpt lat="33.8106123" lon="-118.3937865">
  <ele>-0.098</ele>
  <time>2026-09-01T01:14:42Z</time>
  <course>97.25</course>
  <speed>0.45044422518220834</speed>
  <fix>3d</fix>
</trkpt>
<trkpt lat="33.8106125" lon="-118.3937874">
  <ele>0.29</ele>
  <time>2026-09-01T01:14:42Z</time>
  <course>90.85</course>
  <speed>0.48</speed>
  <fix>3d</fix>
</trkpt>
<trkpt lat="33.8106123" lon="-118.393786">
  <ele>-0.1</ele>
  <time>2026-09-01T01:14:42Z</time>
  <course>97.16</course>
  <speed>0.45044422518220834</speed>
  <fix>3d</fix>
</trkpt>
<trkpt lat="33.8106125" lon="-118.3937863">
  <ele>0.29</ele>
  <time>2026-09-01T01:14:42Z</time>
  <course>90.77</course>
  <speed>0.48</speed>
  <fix>3d</fix>
</trkpt>
<trkpt lat="33.8106123" lon="-118.3937855">
  <ele>-0.102</ele>
  <time>2026-09-01T01:14:42Z</time>
  <course>97.1</course>
  <speed>0.45044422518220834</speed>
  <fix>3d</fix>
</trkpt>
<trkpt lat="33.8106125" lon="-118.3937863">
  <ele>0.29</ele>
  <time>2026-09-01T01:14:42Z</time>
  <course>90.77</course>
  <speed>0.48</speed>
  <fix>3d</fix>
</trkpt>
<trkpt lat="33.8106123" lon="-118.3937849">
  <ele>-0.105</ele>
  <time>2026-09-01T01:14:42Z</time>
  <course>97.04</course>
  <speed>0.45044422518220834</speed>
  <fix>3d</fix>
</trkpt>
<trkpt lat="33.8106125" lon="-118.3937853">
  <ele>0.28</ele>
  <time>2026-09-01T01:14:42Z</time>
  <course>90.71</course>
  <speed>0.48</speed>
  <fix>3d</fix>
</trkpt>
<trkpt lat="33.8106123" lon="-118.3937844">
  <ele>-0.106</ele>
  <time>2026-09-01T01:14:42Z</time>
  <course>96.98</course>
  <speed>0.44045431091090476</speed>
  <fix>3d</fix>
</trkpt>
<trkpt lat="33.8106125" lon="-118.3937853">
  <ele>0.28</ele>
  <time>2026-09-01T01:14:42Z</time>
  <course>90.71</course>
  <speed>0.48</speed>
  <fix>3d</fix>
</trkpt>
<trkpt lat="33.8106123" lon="-118.3937839">
  <ele>-0.108</ele>
  <time>2026-09-01T01:14:42Z</time>
  <course>96.92</course>
  <speed>0.44045431091090476</speed>
  <fix>3d</fix>
</trkpt>
<trkpt lat="33.8106125" lon="-118.3937842">
  <ele>0.28</ele>
  <time>2026-09-01T01:14:42Z</time>
  <course>90.68</course>
  <speed>0.48</speed>
  <fix>3d</fix>
</trkpt>
<trkpt lat="33.8106123" lon="-118.3937834">
  <ele>-0.11</ele>
  <time>2026-09-01T01:14:42Z</time>
  <course>96.87</course>
  <speed>0.44045431091090476</speed>
  <fix>3d</fix>
</trkpt>
<trkpt lat="33.8106125" lon="-118.3937842">
  <ele>0.28</ele>
  <time>2026-09-01T01:14:42Z</time>
  <course>90.68</course>
  <speed>0.48</speed>
  <fix>3d</fix>
</trkpt>
<trkpt lat="33.8106123" lon="-118.3937828">
  <ele>-0.112</ele>
  <time>2026-09-01T01:14:42Z</time>
  <course>96.82</course>
  <speed>0.45044422518220834</speed>
  <fix>3d</fix>
</trkpt>
<trkpt lat="33.8106124" lon="-118.3937832">
  <ele>0.28</ele>
  <time>2026-09-01T01:14:42Z</time>
  <course>90.68</course>
  <speed>0.48</speed>
  <fix>3d</fix>
</trkpt>
<trkpt lat="33.8106123" lon="-118.3937823">
  <ele>-0.114</ele>
  <time>2026-09-01T01:14:42Z</time>
  <course>96.77</course>
  <speed>0.45044422518220834</speed>
  <fix>3d</fix>
</trkpt>
<trkpt lat="33.8106124" lon="-118.3937832">
  <ele>0.28</ele>
  <time>2026-09-01T01:14:42Z</time>
  <course>90.68</course>
  <speed>0.48</speed>
  <fix>3d</fix>
</trkpt>
<trkpt lat="33.8106123" lon="-118.3937818">
  <ele>-0.116</ele>
  <time>2026-09-01T01:14:42Z</time>
  <course>96.69</course>
  <speed>0.45044422518220834</speed>
  <fix>3d</fix>
</trkpt>
<trkpt lat="33.8106123" lon="-118.3937821">
  <ele>0.27</ele>
  <time>2026-09-01T01:14:42Z</time>
  <course>90.61</course>
  <speed>0.48</speed>
  <fix>3d</fix>
</trkpt>
<trkpt lat="33.8106123" lon="-118.3937813">
  <ele>-0.119</ele>
  <time>2026-09-01T01:14:42Z</time>
  <course>96.57</course>
  <speed>0.45044422518220834</speed>
  <fix>3d</fix>
</trkpt>
<trkpt lat="33.8106123" lon="-118.3937821">
  <ele>0.27</ele>
  <time>2026-09-01T01:14:42Z</time>
  <course>90.61</course>
  <speed>0.48</speed>
  <fix>3d</fix>
</trkpt>
<trkpt lat="33.8106123" lon="-118.3937807">
  <ele>-0.122</ele>
  <time>2026-09-01T01:14:42Z</time>
  <course>96.4</course>
  <speed>0.450111097397076</speed>
  <fix>3d</fix>
</trkpt>
<trkpt lat="33.8106123" lon="-118.3937811">
  <ele>0.27</ele>
  <time>2026-09-01T01:14:42Z</time>
  <course>90.37</course>
  <speed>0.48</speed>
  <fix>3d</fix>
</trkpt>
<trkpt lat="33.8106123" lon="-118.3937802">
  <ele>-0.124</ele>
  <time>2026-09-01T01:14:42Z</time>
  <course>96.2</course>
  <speed>0.450111097397076</speed>
  <fix>3d</fix>
</trkpt>
<trkpt lat="33.8106123" lon="-118.3937811">
  <ele>0.27</ele>
  <time>2026-09-01T01:14:42Z</time>
  <course>90.37</course>
  <speed>0.48</speed>
  <fix>3d</fix>
</trkpt>
<trkpt lat="33.8106123" lon="-118.3937797">
  <ele>-0.126</ele>
  <time>2026-09-01T01:14:42Z</time>
  <course>95.98</course>
  <speed>0.450111097397076</speed>
  <fix>3d</fix>
</trkpt>
<trkpt lat="33.8106123" lon="-118.39378">
  <ele>0.27</ele>
  <time>2026-09-01T01:14:42Z</time>
  <course>90.07</course>
  <speed>0.48</speed>
  <fix>3d</fix>
</trkpt>
<trkpt lat="33.8106123" lon="-118.3937791">
  <ele>-0.129</ele>
  <time>2026-09-01T01:14:43Z</time>
  <course>95.79</course>
  <speed>0.450111097397076</speed>
  <fix>3d</fix>
</trkpt>
<trkpt lat="33.8106123" lon="-118.39378">
  <ele>0.27</ele>
  <time>2026-09-01T01:14:43Z</time>
  <course>90.07</course>
  <speed>0.48</speed>
  <fix>3d</fix>
</trkpt>
<trkpt lat="33.8106123" lon="-118.3937786">
  <ele>-0.131</ele>
  <time>2026-09-01T01:14:43Z</time>
  <course>95.59</course>
  <speed>0.450111097397076</speed>
  <fix>3d</fix>
</trkpt>
<trkpt lat="33.8106123" lon="-118.3937789">
  <ele>0.26</ele>
  <time>2026-09-01T01:14:43Z</time>
  <course>89.83</course>
  <speed>0.48</speed>
  <fix>3d</fix>
</trkpt>
<trkpt lat="33.8106123" lon="-118.3937781">
  <ele>-0.133</ele>
  <time>2026-09-01T01:14:43Z</time>
  <course>95.42</course>
  <speed>0.450111097397076</speed>
  <fix>3d</fix>
</trkpt>
<trkpt lat="33.8106123" lon="-118.3937789">
  <ele>0.26</ele>
  <time>2026-09-01T01:14:43Z</time>
  <course>89.83</course>
  <speed>0.48</speed>
  <fix>3d</fix>
</trkpt>
<trkpt lat="33.8106123" lon="-118.3937776">
  <ele>-0.135</ele>
  <time>2026-09-01T01:14:43Z</time>
  <course>95.26</course>
  <speed>0.450111097397076</speed>
  <fix>3d</fix>
</trkpt>
<trkpt lat="33.8106123" lon="-118.3937779">
  <ele>0.26</ele>
  <time>2026-09-01T01:14:43Z</time>
  <course>89.67</course>
  <speed>0.48</speed>
  <fix>3d</fix>
</trkpt>
<trkpt lat="33.8106123" lon="-118.393777">
  <ele>-0.136</ele>
  <time>2026-09-01T01:14:43Z</time>
  <course>95.13</course>
  <speed>0.450111097397076</speed>
  <fix>3d</fix>
</trkpt>
<trkpt lat="33.8106123" lon="-118.3937779">
  <ele>0.26</ele>
  <time>2026-09-01T01:14:43Z</time>
  <course>89.67</course>
  <speed>0.48</speed>
  <fix>3d</fix>
</trkpt>
<trkpt lat="33.8106123" lon="-118.3937765">
  <ele>-0.137</ele>
  <time>2026-09-01T01:14:43Z</time>
  <course>95.0</course>
  <speed>0.450111097397076</speed>
  <fix>3d</fix>
</trkpt>
<trkpt lat="33.8106123" lon="-118.3937768">
  <ele>0.25</ele>
  <time>2026-09-01T01:14:43Z</time>
  <course>89.53</course>
  <speed>0.48</speed>
  <fix>3d</fix>
</trkpt>
<trkpt lat="33.8106123" lon="-118.393776">
  <ele>-0.139</ele>
  <time>2026-09-01T01:14:43Z</time>
  <course>94.91</course>
  <speed>0.450111097397076</speed>
  <fix>3d</fix>
</trkpt>
<trkpt lat="33.8106123" lon="-118.3937768">
  <ele>0.25</ele>
  <time>2026-09-01T01:14:43Z</time>
  <course>89.53</course>
  <speed>0.48</speed>
  <fix>3d</fix>
</trkpt>
<trkpt lat="33.8106123" lon="-118.3937754">
  <ele>-0.141</ele>
  <time>2026-09-01T01:14:43Z</time>
  <course>94.81</course>
  <speed>0.450111097397076</speed>
  <fix>3d</fix>
</trkpt>
<trkpt lat="33.8106123" lon="-118.3937758">
  <ele>0.25</ele>
  <time>2026-09-01T01:14:43Z</time>
  <course>89.39</course>
  <speed>0.48</speed>
  <fix>3d</fix>
</trkpt>
<trkpt lat="33.8106123" lon="-118.3937749">
  <ele>-0.144</ele>
  <time>2026-09-01T01:14:43Z</time>
  <course>94.75</course>
  <speed>0.450111097397076</speed>
  <fix>3d</fix>
</trkpt>
<trkpt lat="33.8106123" lon="-118.3937758">
  <ele>0.25</ele>
  <time>2026-09-01T01:14:43Z</time>
  <course>89.39</course>
  <speed>0.48</speed>
  <fix>3d</fix>
</trkpt>
<trkpt lat="33.8106123" lon="-118.3937744">
  <ele>-0.147</ele>
  <time>2026-09-01T01:14:43Z</time>
  <course>94.68</course>
  <speed>0.450111097397076</speed>
  <fix>3d</fix>
</trkpt>
<trkpt lat="33.8106123" lon="-118.3937747">
  <ele>0.25</ele>
  <time>2026-09-01T01:14:43Z</time>
  <course>89.26</course>
  <speed>0.48</speed>
  <fix>3d</fix>
</trkpt>
<trkpt lat="33.8106123" lon="-118.3937739">
  <ele>-0.15</ele>
  <time>2026-09-01T01:14:43Z</time>
  <course>94.65</course>
  <speed>0.450111097397076</speed>
  <fix>3d</fix>
</trkpt>
<trkpt lat="33.8106123" lon="-118.3937747">
  <ele>0.25</ele>
  <time>2026-09-01T01:14:43Z</time>
  <course>89.26</course>
  <speed>0.48</speed>
  <fix>3d</fix>
</trkpt>
<trkpt lat="33.8106122" lon="-118.3937733">
  <ele>-0.154</ele>
  <time>2026-09-01T01:14:43Z</time>
  <course>94.61</course>
  <speed>0.450111097397076</speed>
  <fix>3d</fix>
</trkpt>
<trkpt lat="33.8106123" lon="-118.3937737">
  <ele>0.24</ele>
  <time>2026-09-01T01:14:43Z</time>
  <course>89.14</course>
  <speed>0.48</speed>
  <fix>3d</fix>
</trkpt>
<trkpt lat="33.8106122" lon="-118.3937728">
  <ele>-0.157</ele>
  <time>2026-09-01T01:14:43Z</time>
  <course>94.61</course>
  <speed>0.450111097397076</speed>
  <fix>3d</fix>
</trkpt>
<trkpt lat="33.8106123" lon="-118.3937737">
  <ele>0.24</ele>
  <time>2026-09-01T01:14:43Z</time>
  <course>89.14</course>
  <speed>0.48</speed>
  <fix>3d</fix>
</trkpt>
<trkpt lat="33.8106123" lon="-118.3937723">
  <ele>-0.159</ele>
  <time>2026-09-01T01:14:43Z</time>
  <course>94.6</course>
  <speed>0.450111097397076</speed>
  <fix>3d</fix>
</trkpt>
<trkpt lat="33.8106123" lon="-118.3937726">
  <ele>0.24</ele>
  <time>2026-09-01T01:14:43Z</time>
  <course>89.01</course>
  <speed>0.48</speed>
  <fix>3d</fix>
</trkpt>
<trkpt lat="33.8106123" lon="-118.3937717">
  <ele>-0.161</ele>
  <time>2026-09-01T01:14:43Z</time>
  <course>94.62</course>
  <speed>0.450111097397076</speed>
  <fix>3d</fix>
</trkpt>
<trkpt lat="33.8106123" lon="-118.3937726">
  <ele>0.24</ele>
  <time>2026-09-01T01:14:43Z</time>
  <course>89.01</course>
  <speed>0.48</speed>
  <fix>3d</fix>
</trkpt>
<trkpt lat="33.8106123" lon="-118.3937712">
  <ele>-0.163</ele>
  <time>2026-09-01T01:14:43Z</time>
  <course>94.62</course>
  <speed>0.450111097397076</speed>
  <fix>3d</fix>
</trkpt>
<trkpt lat="33.8106123" lon="-118.3937715">
  <ele>0.23</ele>
  <time>2026-09-01T01:14:43Z</time>
  <course>88.88</course>
  <speed>0.48</speed>
  <fix>3d</fix>
</trkpt>
<trkpt lat="33.8106123" lon="-118.3937707">
  <ele>-0.166</ele>
  <time>2026-09-01T01:14:43Z</time>
  <course>94.65</course>
  <speed>0.450111097397076</speed>
  <fix>3d</fix>
</trkpt>
<trkpt lat="33.8106123" lon="-118.3937715">
  <ele>0.23</ele>
  <time>2026-09-01T01:14:43Z</time>
  <course>88.88</course>
  <speed>0.48</speed>
  <fix>3d</fix>
</trkpt>
<trkpt lat="33.8106123" lon="-118.3937701">
  <ele>-0.169</ele>
  <time>2026-09-01T01:14:43Z</time>
  <course>94.68</course>
  <speed>0.450111097397076</speed>
  <fix>3d</fix>
</trkpt>
<trkpt lat="33.8106123" lon="-118.3937704">
  <ele>0.23</ele>
  <time>2026-09-01T01:14:43Z</time>
  <course>88.76</course>
  <speed>0.48</speed>
  <fix>3d</fix>
</trkpt>
<trkpt lat="33.8106123" lon="-118.3937696">
  <ele>-0.171</ele>
  <time>2026-09-01T01:14:43Z</time>
  <course>94.72</course>
  <speed>0.450111097397076</speed>
  <fix>3d</fix>
</trkpt>
<trkpt lat="33.8106123" lon="-118.3937704">
  <ele>0.23</ele>
  <time>2026-09-01T01:14:43Z</time>
  <course>88.76</course>
  <speed>0.48</speed>
  <fix>3d</fix>
</trkpt>
<trkpt lat="33.8106123" lon="-118.3937691">
  <ele>-0.174</ele>
  <time>2026-09-01T01:14:43Z</time>
  <course>94.76</course>
  <speed>0.450111097397076</speed>
  <fix>3d</fix>
</trkpt>
<trkpt lat="33.8106124" lon="-118.3937694">
  <ele>0.22</ele>
  <time>2026-09-01T01:14:43Z</time>
  <course>88.65</course>
  <speed>0.48</speed>
  <fix>3d</fix>
</trkpt>
<trkpt lat="33.8106123" lon="-118.3937685">
  <ele>-0.177</ele>
  <time>2026-09-01T01:14:43Z</time>
  <course>94.85</course>
  <speed>0.450111097397076</speed>
  <fix>3d</fix>
</trkpt>
<trkpt lat="33.8106124" lon="-118.3937694">
  <ele>0.22</ele>
  <time>2026-09-01T01:14:43Z</time>
  <course>88.65</course>
  <speed>0.48</speed>
  <fix>3d</fix>
</trkpt>
<trkpt lat="33.8106123" lon="-118.393768">
  <ele>-0.179</ele>
  <time>2026-09-01T01:14:43Z</time>
  <course>94.96</course>
  <speed>0.450111097397076</speed>
  <fix>3d</fix>
</trkpt>
<trkpt lat="33.8106125" lon="-118.3937684">
  <ele>0.22</ele>
  <time>2026-09-01T01:14:43Z</time>
  <course>88.61</course>
  <speed>0.48</speed>
  <fix>3d</fix>
</trkpt>
<trkpt lat="33.8106123" lon="-118.3937675">
  <ele>-0.18</ele>
  <time>2026-09-01T01:14:43Z</time>
  <course>95.1</course>
  <speed>0.450111097397076</speed>
  <fix>3d</fix>
</trkpt>
<trkpt lat="33.8106125" lon="-118.3937684">
  <ele>0.22</ele>
  <time>2026-09-01T01:14:43Z</time>
  <course>88.61</course>
  <speed>0.48</speed>
  <fix>3d</fix>
</trkpt>
<trkpt lat="33.8106123" lon="-118.3937669">
  <ele>-0.181</ele>
  <time>2026-09-01T01:14:43Z</time>
  <course>95.26</course>
  <speed>0.450111097397076</speed>
  <fix>3d</fix>
</trkpt>
<trkpt lat="33.8106125" lon="-118.3937673">
  <ele>0.22</ele>
  <time>2026-09-01T01:14:43Z</time>
  <course>88.74</course>
  <speed>0.48</speed>
  <fix>3d</fix>
</trkpt>
<trkpt lat="33.8106123" lon="-118.3937664">
  <ele>-0.183</ele>
  <time>2026-09-01T01:14:43Z</time>
  <course>95.41</course>
  <speed>0.450111097397076</speed>
  <fix>3d</fix>
</trkpt>
<trkpt lat="33.8106125" lon="-118.3937673">
  <ele>0.22</ele>
  <time>2026-09-01T01:14:43Z</time>
  <course>88.74</course>
  <speed>0.48</speed>
  <fix>3d</fix>
</trkpt>
<trkpt lat="33.8106123" lon="-118.3937659">
  <ele>-0.186</ele>
  <time>2026-09-01T01:14:43Z</time>
  <course>95.56</course>
  <speed>0.450111097397076</speed>
  <fix>3d</fix>
</trkpt>
<trkpt lat="33.8106125" lon="-118.3937663">
  <ele>0.21</ele>
  <time>2026-09-01T01:14:43Z</time>
  <course>89.06</course>
  <speed>0.48</speed>
  <fix>3d</fix>
</trkpt>
<trkpt lat="33.8106123" lon="-118.3937654">
  <ele>-0.188</ele>
  <time>2026-09-01T01:14:43Z</time>
  <course>95.7</course>
  <speed>0.45044422518220834</speed>
  <fix>3d</fix>
</trkpt>
<trkpt lat="33.8106125" lon="-118.3937663">
  <ele>0.21</ele>
  <time>2026-09-01T01:14:43Z</time>
  <course>89.06</course>
  <speed>0.48</speed>
  <fix>3d</fix>
</trkpt>
<trkpt lat="33.8106123" lon="-118.3937648">
  <ele>-0.188</ele>
  <time>2026-09-01T01:14:43Z</time>
  <course>95.82</course>
  <speed>0.45044422518220834</speed>
  <fix>3d</fix>
</trkpt>
<trkpt lat="33.8106125" lon="-118.3937652">
  <ele>0.21</ele>
  <time>2026-09-01T01:14:43Z</time>
  <course>89.42</course>
  <speed>0.48</speed>
  <fix>3d</fix>
</trkpt>
<trkpt lat="33.8106123" lon="-118.3937643">
  <ele>-0.189</ele>
  <time>2026-09-01T01:14:43Z</time>
  <course>95.91</course>
  <speed>0.45044422518220834</speed>
  <fix>3d</fix>
</trkpt>
<trkpt lat="33.8106125" lon="-118.3937652">
  <ele>0.21</ele>
  <time>2026-09-01T01:14:43Z</time>
  <course>89.42</course>
  <speed>0.48</speed>
  <fix>3d</fix>
</trkpt>
<trkpt lat="33.8106123" lon="-118.3937638">
  <ele>-0.191</ele>
  <time>2026-09-01T01:14:43Z</time>
  <course>96.0</course>
  <speed>0.45044422518220834</speed>
  <fix>3d</fix>
</trkpt>
<trkpt lat="33.8106125" lon="-118.3937642">
  <ele>0.2</ele>
  <time>2026-09-01T01:14:43Z</time>
  <course>89.7</course>
  <speed>0.48</speed>
  <fix>3d</fix>
</trkpt>
<trkpt lat="33.8106123" lon="-118.3937633">
  <ele>-0.194</ele>
  <time>2026-09-01T01:14:43Z</time>
  <course>96.04</course>
  <speed>0.45044422518220834</speed>
  <fix>3d</fix>
</trkpt>
<trkpt lat="33.8106125" lon="-118.3937642">
  <ele>0.2</ele>
  <time>2026-09-01T01:14:43Z</time>
  <course>89.7</course>
  <speed>0.48</speed>
  <fix>3d</fix>
</trkpt>
<trkpt lat="33.8106123" lon="-118.3937627">
  <ele>-0.197</ele>
  <time>2026-09-01T01:14:43Z</time>
  <course>96.08</course>
  <speed>0.45044422518220834</speed>
  <fix>3d</fix>
</trkpt>
<trkpt lat="33.8106125" lon="-118.3937631">
  <ele>0.2</ele>
  <time>2026-09-01T01:14:43Z</time>
  <course>89.91</course>
  <speed>0.48</speed>
  <fix>3d</fix>
</trkpt>
<trkpt lat="33.8106123" lon="-118.3937622">
  <ele>-0.2</ele>
  <time>2026-09-01T01:14:43Z</time>
  <course>96.1</course>
  <speed>0.45044422518220834</speed>
  <fix>3d</fix>
</trkpt>
<trkpt lat="33.8106125" lon="-118.3937631">
  <ele>0.2</ele>
  <time>2026-09-01T01:14:43Z</time>
  <course>89.91</course>
  <speed>0.48</speed>
  <fix>3d</fix>
</trkpt>
<trkpt lat="33.8106123" lon="-118.3937617">
  <ele>-0.202</ele>
  <time>2026-09-01T01:14:43Z</time>
  <course>96.12</course>
  <speed>0.45044422518220834</speed>
  <fix>3d</fix>
</trkpt>
<trkpt lat="33.8106125" lon="-118.3937621">
  <ele>0.19</ele>
  <time>2026-09-01T01:14:43Z</time>
  <course>90.04</course>
  <speed>0.48</speed>
  <fix>3d</fix>
</trkpt>
<trkpt lat="33.8106123" lon="-118.3937612">
  <ele>-0.204</ele>
  <time>2026-09-01T01:14:43Z</time>
  <course>96.12</course>
  <speed>0.45044422518220834</speed>
  <fix>3d</fix>
</trkpt>
<trkpt lat="33.8106125" lon="-118.3937621">
  <ele>0.19</ele>
  <time>2026-09-01T01:14:43Z</time>
  <course>90.04</course>
  <speed>0.48</speed>
  <fix>3d</fix>
</trkpt>
<trkpt lat="33.8106123" lon="-118.3937606">
  <ele>-0.207</ele>
  <time>2026-09-01T01:14:43Z</time>
  <course>96.11</course>
  <speed>0.45044422518220834</speed>
  <fix>3d</fix>
</trkpt>
<trkpt lat="33.8106125" lon="-118.393761">
  <ele>0.19</ele>
  <time>2026-09-01T01:14:43Z</time>
  <course>90.14</course>
  <speed>0.48</speed>
  <fix>3d</fix>
</trkpt>
<trkpt lat="33.8106123" lon="-118.3937601">
  <ele>-0.209</ele>
  <time>2026-09-01T01:14:43Z</time>
  <course>96.1</course>
  <speed>0.45044422518220834</speed>
  <fix>3d</fix>
</trkpt>
<trkpt lat="33.8106125" lon="-118.393761">
  <ele>0.19</ele>
  <time>2026-09-01T01:14:43Z</time>
  <course>90.14</course>
  <speed>0.48</speed>
  <fix>3d</fix>
</trkpt>
<trkpt lat="33.8106123" lon="-118.3937596">
  <ele>-0.213</ele>
  <time>2026-09-01T01:14:43Z</time>
  <course>96.08</course>
  <speed>0.45044422518220834</speed>
  <fix>3d</fix>
</trkpt>
<trkpt lat="33.8106125" lon="-118.39376">
  <ele>0.18</ele>
  <time>2026-09-01T01:14:43Z</time>
  <course>90.22</course>
  <speed>0.48</speed>
  <fix>3d</fix>
</trkpt>
<trkpt lat="33.8106123" lon="-118.393759">
  <ele>-0.216</ele>
  <time>2026-09-01T01:14:43Z</time>
  <course>96.06</course>
  <speed>0.45044422518220834</speed>
  <fix>3d</fix>
</trkpt>
<trkpt lat="33.8106125" lon="-118.39376">
  <ele>0.18</ele>
  <time>2026-09-01T01:14:43Z</time>
  <course>90.22</course>
  <speed>0.48</speed>
  <fix>3d</fix>
</trkpt>
<trkpt lat="33.8106123" lon="-118.3937585">
  <ele>-0.22</ele>
  <time>2026-09-01T01:14:43Z</time>
  <course>96.04</course>
  <speed>0.45044422518220834</speed>
  <fix>3d</fix>
</trkpt>
<trkpt lat="33.8106125" lon="-118.3937589">
  <ele>0.18</ele>
  <time>2026-09-01T01:14:43Z</time>
  <course>90.27</course>
  <speed>0.48</speed>
  <fix>3d</fix>
</trkpt>
<trkpt lat="33.8106123" lon="-118.393758">
  <ele>-0.224</ele>
  <time>2026-09-01T01:14:43Z</time>
  <course>96.02</course>
  <speed>0.45044422518220834</speed>
  <fix>3d</fix>
</trkpt>
<trkpt lat="33.8106125" lon="-118.3937589">
  <ele>0.18</ele>
  <time>2026-09-01T01:14:43Z</time>
  <course>90.27</course>
  <speed>0.48</speed>
  <fix>3d</fix>
</trkpt>
<trkpt lat="33.8106123" lon="-118.3937575">
  <ele>-0.229</ele>
  <time>2026-09-01T01:14:43Z</time>
  <course>96.0</course>
  <speed>0.45044422518220834</speed>
  <fix>3d</fix>
</trkpt>
<trkpt lat="33.8106125" lon="-118.3937579">
  <ele>0.17</ele>
  <time>2026-09-01T01:14:43Z</time>
  <course>90.32</course>
  <speed>0.48</speed>
  <fix>3d</fix>
</trkpt>
<trkpt lat="33.8106123" lon="-118.3937569">
  <ele>-0.234</ele>
  <time>2026-09-01T01:14:43Z</time>
  <course>95.97</course>
  <speed>0.45044422518220834</speed>
  <fix>3d</fix>
</trkpt>
<trkpt lat="33.8106125" lon="-118.3937579">
  <ele>0.17</ele>
  <time>2026-09-01T01:14:43Z</time>
  <course>90.32</course>
  <speed>0.48</speed>
  <fix>3d</fix>
</trkpt>
<trkpt lat="33.8106123" lon="-118.3937564">
  <ele>-0.238</ele>
  <time>2026-09-01T01:14:43Z</time>
  <course>95.95</course>
  <speed>0.45044422518220834</speed>
  <fix>3d</fix>
</trkpt>
<trkpt lat="33.8106125" lon="-118.3937568">
  <ele>0.17</ele>
  <time>2026-09-01T01:14:43Z</time>
  <course>90.37</course>
  <speed>0.48</speed>
  <fix>3d</fix>
</trkpt>
<trkpt lat="33.8106123" lon="-118.3937559">
  <ele>-0.242</ele>
  <time>2026-09-01T01:14:43Z</time>
  <course>95.92</course>
  <speed>0.45044422518220834</speed>
  <fix>3d</fix>
</trkpt>
<trkpt lat="33.8106125" lon="-118.3937568">
  <ele>0.17</ele>
  <time>2026-09-01T01:14:43Z</time>
  <course>90.37</course>
  <speed>0.48</speed>
  <fix>3d</fix>
</trkpt>
<trkpt lat="33.8106123" lon="-118.3937554">
  <ele>-0.245</ele>
  <time>2026-09-01T01:14:43Z</time>
  <course>95.89</course>
  <speed>0.45044422518220834</speed>
  <fix>3d</fix>
</trkpt>
<trkpt lat="33.8106125" lon="-118.3937558">
  <ele>0.16</ele>
  <time>2026-09-01T01:14:43Z</time>
  <course>90.41</course>
  <speed>0.48</speed>
  <fix>3d</fix>
</trkpt>
<trkpt lat="33.8106123" lon="-118.3937548">
  <ele>-0.248</ele>
  <time>2026-09-01T01:14:43Z</time>
  <course>95.86</course>
  <speed>0.45044422518220834</speed>
  <fix>3d</fix>
</trkpt>
<trkpt lat="33.8106125" lon="-118.3937558">
  <ele>0.16</ele>
  <time>2026-09-01T01:14:43Z</time>
  <course>90.41</course>
  <speed>0.48</speed>
  <fix>3d</fix>
</trkpt>
<trkpt lat="33.8106123" lon="-118.3937543">
  <ele>-0.25</ele>
  <time>2026-09-01T01:14:43Z</time>
  <course>95.84</course>
  <speed>0.45044422518220834</speed>
  <fix>3d</fix>
</trkpt>
<trkpt lat="33.8106125" lon="-118.3937547">
  <ele>0.16</ele>
  <time>2026-09-01T01:14:43Z</time>
  <course>90.46</course>
  <speed>0.48</speed>
  <fix>3d</fix>
</trkpt>
<trkpt lat="33.8106123" lon="-118.3937538">
  <ele>-0.252</ele>
  <time>2026-09-01T01:14:43Z</time>
  <course>95.81</course>
  <speed>0.45044422518220834</speed>
  <fix>3d</fix>
</trkpt>
<trkpt lat="33.8106125" lon="-118.3937547">
  <ele>0.16</ele>
  <time>2026-09-01T01:14:43Z</time>
  <course>90.46</course>
  <speed>0.48</speed>
  <fix>3d</fix>
</trkpt>
<trkpt lat="33.8106123" lon="-118.3937533">
  <ele>-0.255</ele>
  <time>2026-09-01T01:14:43Z</time>
  <course>95.79</course>
  <speed>0.45044422518220834</speed>
  <fix>3d</fix>
</trkpt>
<trkpt lat="33.8106125" lon="-118.3937537">
  <ele>0.15</ele>
  <time>2026-09-01T01:14:43Z</time>
  <course>90.51</course>
  <speed>0.48</speed>
  <fix>3d</fix>
</trkpt>
<trkpt lat="33.8106123" lon="-118.3937527">
  <ele>-0.258</ele>
  <time>2026-09-01T01:14:43Z</time>
  <course>95.76</course>
  <speed>0.45044422518220834</speed>
  <fix>3d</fix>
</trkpt>
<trkpt lat="33.8106125" lon="-118.3937537">
  <ele>0.15</ele>
  <time>2026-09-01T01:14:43Z</time>
  <course>90.51</course>
  <speed>0.48</speed>
  <fix>3d</fix>
</trkpt>
<trkpt lat="33.8106123" lon="-118.3937522">
  <ele>-0.259</ele>
  <time>2026-09-01T01:14:43Z</time>
  <course>95.74</course>
  <speed>0.45044422518220834</speed>
  <fix>3d</fix>
</trkpt>
<trkpt lat="33.8106125" lon="-118.3937526">
  <ele>0.15</ele>
  <time>2026-09-01T01:14:43Z</time>
  <course>90.55</course>
  <speed>0.48</speed>
  <fix>3d</fix>
</trkpt>
<trkpt lat="33.8106123" lon="-118.3937517">
  <ele>-0.26</ele>
  <time>2026-09-01T01:14:43Z</time>
  <course>95.71</course>
  <speed>0.45044422518220834</speed>
  <fix>3d</fix>
</trkpt>
<trkpt lat="33.8106125" lon="-118.3937526">
  <ele>0.15</ele>
  <time>2026-09-01T01:14:43Z</time>
  <course>90.55</course>
  <speed>0.48</speed>
  <fix>3d</fix>
</trkpt>
<trkpt lat="33.8106123" lon="-118.3937511">
  <ele>-0.261</ele>
  <time>2026-09-01T01:14:43Z</time>
  <course>95.69</course>
  <speed>0.45044422518220834</speed>
  <fix>3d</fix>
</trkpt>
<trkpt lat="33.8106125" lon="-118.3937516">
  <ele>0.14</ele>
  <time>2026-09-01T01:14:43Z</time>
  <course>90.59</course>
  <speed>0.48</speed>
  <fix>3d</fix>
</trkpt>
<trkpt lat="33.8106123" lon="-118.3937506">
  <ele>-0.262</ele>
  <time>2026-09-01T01:14:43Z</time>
  <course>95.67</course>
  <speed>0.45044422518220834</speed>
  <fix>3d</fix>
</trkpt>
<trkpt lat="33.8106125" lon="-118.3937516">
  <ele>0.14</ele>
  <time>2026-09-01T01:14:43Z</time>
  <course>90.59</course>
  <speed>0.48</speed>
  <fix>3d</fix>
</trkpt>
<trkpt lat="33.8106123" lon="-118.3937501">
  <ele>-0.263</ele>
  <time>2026-09-01T01:14:43Z</time>
  <course>95.66</course>
  <speed>0.45044422518220834</speed>
  <fix>3d</fix>
</trkpt>
<trkpt lat="33.8106125" lon="-118.3937505">
  <ele>0.14</ele>
  <time>2026-09-01T01:14:43Z</time>
  <course>90.62</course>
  <speed>0.48</speed>
  <fix>3d</fix>
</trkpt>
<trkpt lat="33.8106123" lon="-118.3937496">
  <ele>-0.263</ele>
  <time>2026-09-01T01:14:43Z</time>
  <course>95.63</course>
  <speed>0.45044422518220834</speed>
  <fix>3d</fix>
</trkpt>
<trkpt lat="33.8106125" lon="-118.3937505">
  <ele>0.14</ele>
  <time>2026-09-01T01:14:43Z</time>
  <course>90.62</course>
  <speed>0.48</speed>
  <fix>3d</fix>
</trkpt>
<trkpt lat="33.8106123" lon="-118.393749">
  <ele>-0.263</ele>
  <time>2026-09-01T01:14:43Z</time>
  <course>95.6</course>
  <speed>0.45044422518220834</speed>
  <fix>3d</fix>
</trkpt>
<trkpt lat="33.8106125" lon="-118.3937495">
  <ele>0.13</ele>
  <time>2026-09-01T01:14:43Z</time>
  <course>90.65</course>
  <speed>0.48</speed>
  <fix>3d</fix>
</trkpt>
<trkpt lat="33.8106123" lon="-118.3937485">
  <ele>-0.263</ele>
  <time>2026-09-01T01:14:43Z</time>
  <course>95.58</course>
  <speed>0.45044422518220834</speed>
  <fix>3d</fix>
</trkpt>
<trkpt lat="33.8106125" lon="-118.3937495">
  <ele>0.13</ele>
  <time>2026-09-01T01:14:43Z</time>
  <course>90.65</course>
  <speed>0.48</speed>
  <fix>3d</fix>
</trkpt>
<trkpt lat="33.8106123" lon="-118.393748">
  <ele>-0.264</ele>
  <time>2026-09-01T01:14:43Z</time>
  <course>95.56</course>
  <speed>0.45044422518220834</speed>
  <fix>3d</fix>
</trkpt>
<trkpt lat="33.8106125" lon="-118.3937484">
  <ele>0.13</ele>
  <time>2026-09-01T01:14:43Z</time>
  <course>90.69</course>
  <speed>0.48</speed>
  <fix>3d</fix>
</trkpt>
<trkpt lat="33.8106123" lon="-118.3937475">
  <ele>-0.266</ele>
  <time>2026-09-01T01:14:43Z</time>
  <course>95.54</course>
  <speed>0.45044422518220834</speed>
  <fix>3d</fix>
</trkpt>
<trkpt lat="33.8106125" lon="-118.3937484">
  <ele>0.13</ele>
  <time>2026-09-01T01:14:43Z</time>
  <course>90.69</course>
  <speed>0.48</speed>
  <fix>3d</fix>
</trkpt>
<trkpt lat="33.8106123" lon="-118.3937469">
  <ele>-0.268</ele>
  <time>2026-09-01T01:14:43Z</time>
  <course>95.52</course>
  <speed>0.45044422518220834</speed>
  <fix>3d</fix>
</trkpt>
<trkpt lat="33.8106125" lon="-118.3937474">
  <ele>0.12</ele>
  <time>2026-09-01T01:14:43Z</time>
  <course>90.74</course>
  <speed>0.48</speed>
  <fix>3d</fix>
</trkpt>
<trkpt lat="33.8106123" lon="-118.3937464">
  <ele>-0.27</ele>
  <time>2026-09-01T01:14:43Z</time>
  <course>95.5</course>
  <speed>0.45044422518220834</speed>
  <fix>3d</fix>
</trkpt>
<trkpt lat="33.8106125" lon="-118.3937474">
  <ele>0.12</ele>
  <time>2026-09-01T01:14:43Z</time>
  <course>90.74</course>
  <speed>0.48</speed>
  <fix>3d</fix>
</trkpt>
<trkpt lat="33.8106123" lon="-118.3937459">
  <ele>-0.271</ele>
  <time>2026-09-01T01:14:43Z</time>
  <course>95.49</course>
  <speed>0.45044422518220834</speed>
  <fix>3d</fix>
</trkpt>
<trkpt lat="33.8106125" lon="-118.3937463">
  <ele>0.12</ele>
  <time>2026-09-01T01:14:43Z</time>
  <course>90.78</course>
  <speed>0.48</speed>
  <fix>3d</fix>
</trkpt>
<trkpt lat="33.8106123" lon="-118.3937454">
  <ele>-0.271</ele>
  <time>2026-09-01T01:14:43Z</time>
  <course>95.47</course>
  <speed>0.45044422518220834</speed>
  <fix>3d</fix>
</trkpt>
<trkpt lat="33.8106125" lon="-118.3937463">
  <ele>0.12</ele>
  <time>2026-09-01T01:14:43Z</time>
  <course>90.78</course>
  <speed>0.48</speed>
  <fix>3d</fix>
</trkpt>
<trkpt lat="33.8106123" lon="-118.3937448">
  <ele>-0.269</ele>
  <time>2026-09-01T01:14:43Z</time>
  <course>95.45</course>
  <speed>0.45044422518220834</speed>
  <fix>3d</fix>
</trkpt>
<trkpt lat="33.8106125" lon="-118.3937453">
  <ele>0.12</ele>
  <time>2026-09-01T01:14:43Z</time>
  <course>90.81</course>
  <speed>0.48</speed>
  <fix>3d</fix>
</trkpt>
<trkpt lat="33.8106123" lon="-118.3937443">
  <ele>-0.266</ele>
  <time>2026-09-01T01:14:43Z</time>
  <course>95.42</course>
  <speed>0.45044422518220834</speed>
  <fix>3d</fix>
</trkpt>
<trkpt lat="33.8106125" lon="-118.3937453">
  <ele>0.12</ele>
  <time>2026-09-01T01:14:43Z</time>
  <course>90.81</course>
  <speed>0.48</speed>
  <fix>3d</fix>
</trkpt>
<trkpt lat="33.8106123" lon="-118.3937438">
  <ele>-0.264</ele>
  <time>2026-09-01T01:14:43Z</time>
  <course>95.41</course>
  <speed>0.45044422518220834</speed>
  <fix>3d</fix>
</trkpt>
<trkpt lat="33.8106125" lon="-118.3937442">
  <ele>0.12</ele>
  <time>2026-09-01T01:14:43Z</time>
  <course>90.85</course>
  <speed>0.48</speed>
  <fix>3d</fix>
</trkpt>
<trkpt lat="33.8106123" lon="-118.3937433">
  <ele>-0.262</ele>
  <time>2026-09-01T01:14:43Z</time>
  <course>95.39</course>
  <speed>0.45044422518220834</speed>
  <fix>3d</fix>
</trkpt>
<trkpt lat="33.8106125" lon="-118.3937442">
  <ele>0.12</ele>
  <time>2026-09-01T01:14:43Z</time>
  <course>90.85</course>
  <speed>0.48</speed>
  <fix>3d</fix>
</trkpt>
<trkpt lat="33.8106123" lon="-118.3937427">
  <ele>-0.259</ele>
  <time>2026-09-01T01:14:43Z</time>
  <course>95.38</course>
  <speed>0.45044422518220834</speed>
  <fix>3d</fix>
</trkpt>
<trkpt lat="33.8106125" lon="-118.3937431">
  <ele>0.12</ele>
  <time>2026-09-01T01:14:43Z</time>
  <course>90.89</course>
  <speed>0.48</speed>
  <fix>3d</fix>
</trkpt>
<trkpt lat="33.8106123" lon="-118.3937422">
  <ele>-0.256</ele>
  <time>2026-09-01T01:14:43Z</time>
  <course>95.36</course>
  <speed>0.45044422518220834</speed>
  <fix>3d</fix>
</trkpt>
<trkpt lat="33.8106125" lon="-118.3937431">
  <ele>0.12</ele>
  <time>2026-09-01T01:14:43Z</time>
  <course>90.89</course>
  <speed>0.48</speed>
  <fix>3d</fix>
</trkpt>
<trkpt lat="33.8106123" lon="-118.3937417">
  <ele>-0.255</ele>
  <time>2026-09-01T01:14:43Z</time>
  <course>95.35</course>
  <speed>0.45044422518220834</speed>
  <fix>3d</fix>
</trkpt>
<trkpt lat="33.8106124" lon="-118.3937421">
  <ele>0.13</ele>
  <time>2026-09-01T01:14:43Z</time>
  <course>90.93</course>
  <speed>0.48</speed>
  <fix>3d</fix>
</trkpt>
<trkpt lat="33.8106123" lon="-118.3937411">
  <ele>-0.254</ele>
  <time>2026-09-01T01:14:43Z</time>
  <course>95.33</course>
  <speed>0.45044422518220834</speed>
  <fix>3d</fix>
</trkpt>
<trkpt lat="33.8106124" lon="-118.3937421">
  <ele>0.13</ele>
  <time>2026-09-01T01:14:43Z</time>
  <course>90.93</course>
  <speed>0.48</speed>
  <fix>3d</fix>
</trkpt>
<trkpt lat="33.8106123" lon="-118.3937406">
  <ele>-0.253</ele>
  <time>2026-09-01T01:14:43Z</time>
  <course>95.28</course>
  <speed>0.45044422518220834</speed>
  <fix>3d</fix>
</trkpt>
<trkpt lat="33.8106123" lon="-118.393741">
  <ele>0.13</ele>
  <time>2026-09-01T01:14:43Z</time>
  <course>90.87</course>
  <speed>0.48</speed>
  <fix>3d</fix>
</trkpt>
<trkpt lat="33.8106123" lon="-118.3937401">
  <ele>-0.251</ele>
  <time>2026-09-01T01:14:43Z</time>
  <course>95.2</course>
  <speed>0.450111097397076</speed>
  <fix>3d</fix>
</trkpt>
<trkpt lat="33.8106123" lon="-118.393741">
  <ele>0.13</ele>
  <time>2026-09-01T01:14:43Z</time>
  <course>90.87</course>
  <speed>0.48</speed>
  <fix>3d</fix>
</trkpt>
<trkpt lat="33.8106123" lon="-118.3937396">
  <ele>-0.249</ele>
  <time>2026-09-01T01:14:43Z</time>
  <course>95.07</course>
  <speed>0.450111097397076</speed>
  <fix>3d</fix>
</trkpt>
<trkpt lat="33.8106123" lon="-118.39374">
  <ele>0.14</ele>
  <time>2026-09-01T01:14:43Z</time>
  <course>90.63</course>
  <speed>0.48</speed>
  <fix>3d</fix>
</trkpt>
<trkpt lat="33.8106123" lon="-118.393739">
  <ele>-0.248</ele>
  <time>2026-09-01T01:14:43Z</time>
  <course>94.92</course>
  <speed>0.450111097397076</speed>
  <fix>3d</fix>
</trkpt>
<trkpt lat="33.8106123" lon="-118.39374">
  <ele>0.14</ele>
  <time>2026-09-01T01:14:43Z</time>
  <course>90.63</course>
  <speed>0.48</speed>
  <fix>3d</fix>
</trkpt>
<trkpt lat="33.8106123" lon="-118.3937385">
  <ele>-0.246</ele>
  <time>2026-09-01T01:14:43Z</time>
  <course>94.74</course>
  <speed>0.450111097397076</speed>
  <fix>3d</fix>
</trkpt>
<trkpt lat="33.8106123" lon="-118.3937389">
  <ele>0.14</ele>
  <time>2026-09-01T01:14:43Z</time>
  <course>90.29</course>
  <speed>0.48</speed>
  <fix>3d</fix>
</trkpt>
<trkpt lat="33.8106123" lon="-118.393738">
  <ele>-0.245</ele>
  <time>2026-09-01T01:14:43Z</time>
  <course>94.59</course>
  <speed>0.450111097397076</speed>
  <fix>3d</fix>
</trkpt>
<trkpt lat="33.8106123" lon="-118.3937389">
  <ele>0.14</ele>
  <time>2026-09-01T01:14:43Z</time>
  <course>90.29</course>
  <speed>0.48</speed>
  <fix>3d</fix>
</trkpt>
<trkpt lat="33.8106123" lon="-118.3937374">
  <ele>-0.244</ele>
  <time>2026-09-01T01:14:43Z</time>
  <course>94.44</course>
  <speed>0.450111097397076</speed>
  <fix>3d</fix>
</trkpt>
<trkpt lat="33.8106123" lon="-118.3937379">
  <ele>0.14</ele>
  <time>2026-09-01T01:14:43Z</time>
  <course>90.02</course>
  <speed>0.48</speed>
  <fix>3d</fix>
</trkpt>
<trkpt lat="33.8106123" lon="-118.3937369">
  <ele>-0.242</ele>
  <time>2026-09-01T01:14:43Z</time>
  <course>94.31</course>
  <speed>0.450111097397076</speed>
  <fix>3d</fix>
</trkpt>
<trkpt lat="33.8106123" lon="-118.3937379">
  <ele>0.14</ele>
  <time>2026-09-01T01:14:43Z</time>
  <course>90.02</course>
  <speed>0.48</speed>
  <fix>3d</fix>
</trkpt>
<trkpt lat="33.8106123" lon="-118.3937364">
  <ele>-0.241</ele>
  <time>2026-09-01T01:14:43Z</time>
  <course>94.19</course>
  <speed>0.450111097397076</speed>
  <fix>3d</fix>
</trkpt>
<trkpt lat="33.8106123" lon="-118.3937368">
  <ele>0.15</ele>
  <time>2026-09-01T01:14:43Z</time>
  <course>89.85</course>
  <speed>0.48</speed>
  <fix>3d</fix>
</trkpt>
<trkpt lat="33.8106123" lon="-118.3937358">
  <ele>-0.24</ele>
  <time>2026-09-01T01:14:43Z</time>
  <course>94.11</course>
  <speed>0.450111097397076</speed>
  <fix>3d</fix>
</trkpt>
<trkpt lat="33.8106123" lon="-118.3937368">
  <ele>0.15</ele>
  <time>2026-09-01T01:14:43Z</time>
  <course>89.85</course>
  <speed>0.48</speed>
  <fix>3d</fix>
</trkpt>
<trkpt lat="33.8106123" lon="-118.3937353">
  <ele>-0.238</ele>
  <time>2026-09-01T01:14:43Z</time>
  <course>94.02</course>
  <speed>0.450111097397076</speed>
  <fix>3d</fix>
</trkpt>
<trkpt lat="33.8106123" lon="-118.3937358">
  <ele>0.15</ele>
  <time>2026-09-01T01:14:43Z</time>
  <course>89.69</course>
  <speed>0.48</speed>
  <fix>3d</fix>
</trkpt>
<trkpt lat="33.8106123" lon="-118.3937348">
  <ele>-0.237</ele>
  <time>2026-09-01T01:14:43Z</time>
  <course>93.97</course>
  <speed>0.450111097397076</speed>
  <fix>3d</fix>
</trkpt>
<trkpt lat="33.8106123" lon="-118.3937358">
  <ele>0.15</ele>
  <time>2026-09-01T01:14:43Z</time>
  <course>89.69</course>
  <speed>0.48</speed>
  <fix>3d</fix>
</trkpt>
<trkpt lat="33.8106123" lon="-118.3937343">
  <ele>-0.235</ele>
  <time>2026-09-01T01:14:43Z</time>
  <course>93.91</course>
  <speed>0.450111097397076</speed>
  <fix>3d</fix>
</trkpt>
<trkpt lat="33.8106123" lon="-118.3937347">
  <ele>0.15</ele>
  <time>2026-09-01T01:14:43Z</time>
  <course>89.55</course>
  <speed>0.48</speed>
  <fix>3d</fix>
</trkpt>
<trkpt lat="33.8106122" lon="-118.3937337">
  <ele>-0.233</ele>
  <time>2026-09-01T01:14:43Z</time>
  <course>93.89</course>
  <speed>0.450111097397076</speed>
  <fix>3d</fix>
</trkpt>
<trkpt lat="33.8106123" lon="-118.3937347">
  <ele>0.15</ele>
  <time>2026-09-01T01:14:43Z</time>
  <course>89.55</course>
  <speed>0.48</speed>
  <fix>3d</fix>
</trkpt>
<trkpt lat="33.8106122" lon="-118.3937332">
  <ele>-0.232</ele>
  <time>2026-09-01T01:14:43Z</time>
  <course>93.86</course>
  <speed>0.450111097397076</speed>
  <fix>3d</fix>
</trkpt>
<trkpt lat="33.8106123" lon="-118.3937337">
  <ele>0.16</ele>
  <time>2026-09-01T01:14:43Z</time>
  <course>89.41</course>
  <speed>0.48</speed>
  <fix>3d</fix>
</trkpt>
<trkpt lat="33.8106122" lon="-118.3937327">
  <ele>-0.229</ele>
  <time>2026-09-01T01:14:43Z</time>
  <course>93.86</course>
  <speed>0.450111097397076</speed>
  <fix>3d</fix>
</trkpt>
<trkpt lat="33.8106123" lon="-118.3937337">
  <ele>0.16</ele>
  <time>2026-09-01T01:14:43Z</time>
  <course>89.41</course>
  <speed>0.48</speed>
  <fix>3d</fix>
</trkpt>
<trkpt lat="33.8106122" lon="-118.3937322">
  <ele>-0.228</ele>
  <time>2026-09-01T01:14:43Z</time>
  <course>93.86</course>
  <speed>0.450111097397076</speed>
  <fix>3d</fix>
</trkpt>
<trkpt lat="33.8106123" lon="-118.3937326">
  <ele>0.16</ele>
  <time>2026-09-01T01:14:43Z</time>
  <course>89.27</course>
  <speed>0.48</speed>
  <fix>3d</fix>
</trkpt>
<trkpt lat="33.8106122" lon="-118.3937316">
  <ele>-0.227</ele>
  <time>2026-09-01T01:14:43Z</time>
  <course>93.88</course>
  <speed>0.450111097397076</speed>
  <fix>3d</fix>
</trkpt>
<trkpt lat="33.8106123" lon="-118.3937326">
  <ele>0.16</ele>
  <time>2026-09-01T01:14:43Z</time>
  <course>89.27</course>
  <speed>0.48</speed>
  <fix>3d</fix>
</trkpt>
<trkpt lat="33.8106123" lon="-118.3937311">
  <ele>-0.226</ele>
  <time>2026-09-01T01:14:43Z</time>
  <course>93.9</course>
  <speed>0.450111097397076</speed>
  <fix>3d</fix>
</trkpt>
<trkpt lat="33.8106123" lon="-118.3937316">
  <ele>0.16</ele>
  <time>2026-09-01T01:14:43Z</time>
  <course>89.13</course>
  <speed>0.48</speed>
  <fix>3d</fix>
</trkpt>
<trkpt lat="33.8106123" lon="-118.3937306">
  <ele>-0.225</ele>
  <time>2026-09-01T01:14:43Z</time>
  <course>93.94</course>
  <speed>0.450111097397076</speed>
  <fix>3d</fix>
</trkpt>
<trkpt lat="33.8106123" lon="-118.3937316">
  <ele>0.16</ele>
  <time>2026-09-01T01:14:43Z</time>
  <course>89.13</course>
  <speed>0.48</speed>
  <fix>3d</fix>
</trkpt>
<trkpt lat="33.8106123" lon="-118.3937301">
  <ele>-0.224</ele>
  <time>2026-09-01T01:14:43Z</time>
  <course>93.97</course>
  <speed>0.450111097397076</speed>
  <fix>3d</fix>
</trkpt>
<trkpt lat="33.8106123" lon="-118.3937305">
  <ele>0.16</ele>
  <time>2026-09-01T01:14:43Z</time>
  <course>88.99</course>
  <speed>0.48</speed>
  <fix>3d</fix>
</trkpt>
<trkpt lat="33.8106123" lon="-118.3937295">
  <ele>-0.223</ele>
  <time>2026-09-01T01:14:43Z</time>
  <course>94.01</course>
  <speed>0.450111097397076</speed>
  <fix>3d</fix>
</trkpt>
<trkpt lat="33.8106123" lon="-118.3937305">
  <ele>0.16</ele>
  <time>2026-09-01T01:14:43Z</time>
  <course>88.99</course>
  <speed>0.48</speed>
  <fix>3d</fix>
</trkpt>
<trkpt lat="33.8106123" lon="-118.393729">
  <ele>-0.222</ele>
  <time>2026-09-01T01:14:43Z</time>
  <course>94.04</course>
  <speed>0.450111097397076</speed>
  <fix>3d</fix>
</trkpt>
<trkpt lat="33.8106123" lon="-118.3937295">
  <ele>0.16</ele>
  <time>2026-09-01T01:14:43Z</time>
  <course>88.89</course>
  <speed>0.48</speed>
  <fix>3d</fix>
</trkpt>
<trkpt lat="33.8106123" lon="-118.3937285">
  <ele>-0.222</ele>
  <time>2026-09-01T01:14:43Z</time>
  <course>94.07</course>
  <speed>0.450111097397076</speed>
  <fix>3d</fix>
</trkpt>
<trkpt lat="33.8106123" lon="-118.3937295">
  <ele>0.16</ele>
  <time>2026-09-01T01:14:43Z</time>
  <course>88.89</course>
  <speed>0.48</speed>
  <fix>3d</fix>
</trkpt>
<trkpt lat="33.8106123" lon="-118.3937279">
  <ele>-0.222</ele>
  <time>2026-09-01T01:14:43Z</time>
  <course>94.09</course>
  <speed>0.450111097397076</speed>
  <fix>3d</fix>
</trkpt>
<trkpt lat="33.8106123" lon="-118.3937284">
  <ele>0.17</ele>
  <time>2026-09-01T01:14:43Z</time>
  <course>88.83</course>
  <speed>0.48</speed>
  <fix>3d</fix>
</trkpt>
<trkpt lat="33.8106123" lon="-118.3937274">
  <ele>-0.22</ele>
  <time>2026-09-01T01:14:43Z</time>
  <course>94.1</course>
  <speed>0.450111097397076</speed>
  <fix>3d</fix>
</trkpt>
<trkpt lat="33.8106123" lon="-118.3937284">
  <ele>0.17</ele>
  <time>2026-09-01T01:14:43Z</time>
  <course>88.83</course>
  <speed>0.48</speed>
  <fix>3d</fix>
</trkpt>
<trkpt lat="33.8106123" lon="-118.3937269">
  <ele>-0.22</ele>
  <time>2026-09-01T01:14:43Z</time>
  <course>94.12</course>
  <speed>0.450111097397076</speed>
  <fix>3d</fix>
</trkpt>
<trkpt lat="33.8106123" lon="-118.3937273">
  <ele>0.17</ele>
  <time>2026-09-01T01:14:43Z</time>
  <course>88.8</course>
  <speed>0.48</speed>
  <fix>3d</fix>
</trkpt>
<trkpt lat="33.8106123" lon="-118.3937264">
  <ele>-0.22</ele>
  <time>2026-09-01T01:14:43Z</time>
  <course>94.12</course>
  <speed>0.450111097397076</speed>
  <fix>3d</fix>
</trkpt>
<trkpt lat="33.8106123" lon="-118.3937273">
  <ele>0.17</ele>
  <time>2026-09-01T01:14:43Z</time>
  <course>88.8</course>
  <speed>0.48</speed>
  <fix>3d</fix>
</trkpt>
<trkpt lat="33.8106123" lon="-118.3937258">
  <ele>-0.219</ele>
  <time>2026-09-01T01:14:43Z</time>
  <course>94.13</course>
  <speed>0.450111097397076</speed>
  <fix>3d</fix>
</trkpt>
<trkpt lat="33.8106124" lon="-118.3937263">
  <ele>0.17</ele>
  <time>2026-09-01T01:14:43Z</time>
  <course>88.78</course>
  <speed>0.48</speed>
  <fix>3d</fix>
</trkpt>
<trkpt lat="33.8106123" lon="-118.3937253">
  <ele>-0.217</ele>
  <time>2026-09-01T01:14:43Z</time>
  <course>94.16</course>
  <speed>0.450111097397076</speed>
  <fix>3d</fix>
</trkpt>
<trkpt lat="33.8106124" lon="-118.3937263">
  <ele>0.17</ele>
  <time>2026-09-01T01:14:43Z</time>
  <course>88.78</course>
  <speed>0.48</speed>
  <fix>3d</fix>
</trkpt>
<trkpt lat="33.8106123" lon="-118.3937248">
  <ele>-0.216</ele>
  <time>2026-09-01T01:14:43Z</time>
  <course>94.19</course>
  <speed>0.450111097397076</speed>
  <fix>3d</fix>
</trkpt>
<trkpt lat="33.8106125" lon="-118.3937252">
  <ele>0.17</ele>
  <time>2026-09-01T01:14:43Z</time>
  <course>88.85</course>
  <speed>0.48</speed>
  <fix>3d</fix>
</trkpt>
<trkpt lat="33.8106123" lon="-118.3937243">
  <ele>-0.214</ele>
  <time>2026-09-01T01:14:43Z</time>
  <course>94.25</course>
  <speed>0.450111097397076</speed>
  <fix>3d</fix>
</trkpt>
<trkpt lat="33.8106125" lon="-118.3937252">
  <ele>0.17</ele>
  <time>2026-09-01T01:14:43Z</time>
  <course>88.85</course>
  <speed>0.48</speed>
  <fix>3d</fix>
</trkpt>
<trkpt lat="33.8106123" lon="-118.3937237">
  <ele>-0.214</ele>
  <time>2026-09-01T01:14:43Z</time>
  <course>94.35</course>
  <speed>0.450111097397076</speed>
  <fix>3d</fix>
</trkpt>
<trkpt lat="33.8106125" lon="-118.3937242">
  <ele>0.17</ele>
  <time>2026-09-01T01:14:43Z</time>
  <course>89.14</course>
  <speed>0.48</speed>
  <fix>3d</fix>
</trkpt>
<trkpt lat="33.8106123" lon="-118.3937232">
  <ele>-0.215</ele>
  <time>2026-09-01T01:14:43Z</time>
  <course>94.45</course>
  <speed>0.45044422518220834</speed>
  <fix>3d</fix>
</trkpt>
<trkpt lat="33.8106125" lon="-118.3937242">
  <ele>0.17</ele>
  <time>2026-09-01T01:14:43Z</time>
  <course>89.14</course>
  <speed>0.48</speed>
  <fix>3d</fix>
</trkpt>
<trkpt lat="33.8106123" lon="-118.3937227">
  <ele>-0.216</ele>
  <time>2026-09-01T01:14:43Z</time>
  <course>94.56</course>
  <speed>0.45044422518220834</speed>
  <fix>3d</fix>
</trkpt>
<trkpt lat="33.8106125" lon="-118.3937231">
  <ele>0.17</ele>
  <time>2026-09-01T01:14:43Z</time>
  <course>89.56</course>
  <speed>0.48</speed>
  <fix>3d</fix>
</trkpt>
<trkpt lat="33.8106123" lon="-118.3937222">
  <ele>-0.217</ele>
  <time>2026-09-01T01:14:43Z</time>
  <course>94.65</course>
  <speed>0.45044422518220834</speed>
  <fix>3d</fix>
</trkpt>
<trkpt lat="33.8106125" lon="-118.3937231">
  <ele>0.17</ele>
  <time>2026-09-01T01:14:43Z</time>
  <course>89.56</course>
  <speed>0.48</speed>
  <fix>3d</fix>
</trkpt>
<trkpt lat="33.8106123" lon="-118.3937216">
  <ele>-0.218</ele>
  <time>2026-09-01T01:14:43Z</time>
  <course>94.73</course>
  <speed>0.45044422518220834</speed>
  <fix>3d</fix>
</trkpt>
<trkpt lat="33.8106125" lon="-118.3937221">
  <ele>0.17</ele>
  <time>2026-09-01T01:14:43Z</time>
  <course>89.9</course>
  <speed>0.48</speed>
  <fix>3d</fix>
</trkpt>
<trkpt lat="33.8106123" lon="-118.3937211">
  <ele>-0.218</ele>
  <time>2026-09-01T01:14:43Z</time>
  <course>94.79</course>
  <speed>0.45044422518220834</speed>
  <fix>3d</fix>
</trkpt>
<trkpt lat="33.8106125" lon="-118.3937221">
  <ele>0.17</ele>
  <time>2026-09-01T01:14:43Z</time>
  <course>89.9</course>
  <speed>0.48</speed>
  <fix>3d</fix>
</trkpt>
<trkpt lat="33.8106123" lon="-118.3937206">
  <ele>-0.218</ele>
  <time>2026-09-01T01:14:43Z</time>
  <course>94.85</course>
  <speed>0.45044422518220834</speed>
  <fix>3d</fix>
</trkpt>
<trkpt lat="33.8106125" lon="-118.3937211">
  <ele>0.17</ele>
  <time>2026-09-01T01:14:43Z</time>
  <course>90.14</course>
  <speed>0.48</speed>
  <fix>3d</fix>
</trkpt>
<trkpt lat="33.8106123" lon="-118.3937201">
  <ele>-0.219</ele>
  <time>2026-09-01T01:14:43Z</time>
  <course>94.88</course>
  <speed>0.45044422518220834</speed>
  <fix>3d</fix>
</trkpt>
<trkpt lat="33.8106125" lon="-118.3937211">
  <ele>0.17</ele>
  <time>2026-09-01T01:14:43Z</time>
  <course>90.14</course>
  <speed>0.48</speed>
  <fix>3d</fix>
</trkpt>
<trkpt lat="33.8106123" lon="-118.3937195">
  <ele>-0.219</ele>
  <time>2026-09-01T01:14:43Z</time>
  <course>94.91</course>
  <speed>0.45044422518220834</speed>
  <fix>3d</fix>
</trkpt>
<trkpt lat="33.8106125" lon="-118.39372">
  <ele>0.17</ele>
  <time>2026-09-01T01:14:43Z</time>
  <course>90.3</course>
  <speed>0.48</speed>
  <fix>3d</fix>
</trkpt>
<trkpt lat="33.8106123" lon="-118.393719">
  <ele>-0.219</ele>
  <time>2026-09-01T01:14:43Z</time>
  <course>94.92</course>
  <speed>0.45044422518220834</speed>
  <fix>3d</fix>
</trkpt>
<trkpt lat="33.8106125" lon="-118.39372">
  <ele>0.17</ele>
  <time>2026-09-01T01:14:43Z</time>
  <course>90.3</course>
  <speed>0.48</speed>
  <fix>3d</fix>
</trkpt>
<trkpt lat="33.8106123" lon="-118.3937185">
  <ele>-0.22</ele>
  <time>2026-09-01T01:14:43Z</time>
  <course>94.94</course>
  <speed>0.45044422518220834</speed>
  <fix>3d</fix>
</trkpt>
<trkpt lat="33.8106125" lon="-118.393719">
  <ele>0.17</ele>
  <time>2026-09-01T01:14:43Z</time>
  <course>90.42</course>
  <speed>0.48</speed>
  <fix>3d</fix>
</trkpt>
<trkpt lat="33.8106123" lon="-118.393718">
  <ele>-0.22</ele>
  <time>2026-09-01T01:14:43Z</time>
  <course>94.94</course>
  <speed>0.45044422518220834</speed>
  <fix>3d</fix>
</trkpt>
<trkpt lat="33.8106125" lon="-118.393719">
  <ele>0.17</ele>
  <time>2026-09-01T01:14:43Z</time>
  <course>90.42</course>
  <speed>0.48</speed>
  <fix>3d</fix>
</trkpt>
<trkpt lat="33.8106123" lon="-118.3937174">
  <ele>-0.22</ele>
  <time>2026-09-01T01:14:43Z</time>
  <course>94.94</course>
  <speed>0.45044422518220834</speed>
  <fix>3d</fix>
</trkpt>
<trkpt lat="33.8106125" lon="-118.3937179">
  <ele>0.17</ele>
  <time>2026-09-01T01:14:43Z</time>
  <course>90.51</course>
  <speed>0.48</speed>
  <fix>3d</fix>
</trkpt>
<trkpt lat="33.8106123" lon="-118.3937169">
  <ele>-0.22</ele>
  <time>2026-09-01T01:14:43Z</time>
  <course>94.93</course>
  <speed>0.45044422518220834</speed>
  <fix>3d</fix>
</trkpt>
<trkpt lat="33.8106125" lon="-118.3937179">
  <ele>0.17</ele>
  <time>2026-09-01T01:14:43Z</time>
  <course>90.51</course>
  <speed>0.48</speed>
  <fix>3d</fix>
</trkpt>
<trkpt lat="33.8106123" lon="-118.3937164">
  <ele>-0.22</ele>
  <time>2026-09-01T01:14:43Z</time>
  <course>94.92</course>
  <speed>0.45044422518220834</speed>
  <fix>3d</fix>
</trkpt>
<trkpt lat="33.8106125" lon="-118.3937168">
  <ele>0.17</ele>
  <time>2026-09-01T01:14:43Z</time>
  <course>90.57</course>
  <speed>0.48</speed>
  <fix>3d</fix>
</trkpt>
<trkpt lat="33.8106123" lon="-118.3937159">
  <ele>-0.22</ele>
  <time>2026-09-01T01:14:43Z</time>
  <course>94.9</course>
  <speed>0.45044422518220834</speed>
  <fix>3d</fix>
</trkpt>
<trkpt lat="33.8106125" lon="-118.3937168">
  <ele>0.17</ele>
  <time>2026-09-01T01:14:43Z</time>
  <course>90.57</course>
  <speed>0.48</speed>
  <fix>3d</fix>
</trkpt>
<trkpt lat="33.8106123" lon="-118.3937154">
  <ele>-0.221</ele>
  <time>2026-09-01T01:14:43Z</time>
  <course>94.89</course>
  <speed>0.45044422518220834</speed>
  <fix>3d</fix>
</trkpt>
<trkpt lat="33.8106125" lon="-118.3937158">
  <ele>0.17</ele>
  <time>2026-09-01T01:14:43Z</time>
  <course>90.62</course>
  <speed>0.48</speed>
  <fix>3d</fix>
</trkpt>
<trkpt lat="33.8106123" lon="-118.3937148">
  <ele>-0.222</ele>
  <time>2026-09-01T01:14:43Z</time>
  <course>94.88</course>
  <speed>0.45044422518220834</speed>
  <fix>3d</fix>
</trkpt>
<trkpt lat="33.8106125" lon="-118.3937158">
  <ele>0.17</ele>
  <time>2026-09-01T01:14:43Z</time>
  <course>90.62</course>
  <speed>0.48</speed>
  <fix>3d</fix>
</trkpt>
<trkpt lat="33.8106123" lon="-118.3937143">
  <ele>-0.222</ele>
  <time>2026-09-01T01:14:43Z</time>
  <course>94.87</course>
  <speed>0.45044422518220834</speed>
  <fix>3d</fix>
</trkpt>
<trkpt lat="33.8106125" lon="-118.3937148">
  <ele>0.17</ele>
  <time>2026-09-01T01:14:43Z</time>
  <course>90.69</course>
  <speed>0.48</speed>
  <fix>3d</fix>
</trkpt>
<trkpt lat="33.8106123" lon="-118.3937138">
  <ele>-0.223</ele>
  <time>2026-09-01T01:14:43Z</time>
  <course>94.86</course>
  <speed>0.45044422518220834</speed>
  <fix>3d</fix>
</trkpt>
<trkpt lat="33.8106125" lon="-118.3937148">
  <ele>0.17</ele>
  <time>2026-09-01T01:14:43Z</time>
  <course>90.69</course>
  <speed>0.48</speed>
  <fix>3d</fix>
</trkpt>
<trkpt lat="33.8106123" lon="-118.3937133">
  <ele>-0.224</ele>
  <time>2026-09-01T01:14:43Z</time>
  <course>94.85</course>
  <speed>0.45044422518220834</speed>
  <fix>3d</fix>
</trkpt>
<trkpt lat="33.8106125" lon="-118.3937137">
  <ele>0.17</ele>
  <time>2026-09-01T01:14:43Z</time>
  <course>90.76</course>
  <speed>0.48</speed>
  <fix>3d</fix>
</trkpt>
<trkpt lat="33.8106123" lon="-118.3937127">
  <ele>-0.225</ele>
  <time>2026-09-01T01:14:43Z</time>
  <course>94.84</course>
  <speed>0.45044422518220834</speed>
  <fix>3d</fix>
</trkpt>
<trkpt lat="33.8106125" lon="-118.3937137">
  <ele>0.17</ele>
  <time>2026-09-01T01:14:43Z</time>
  <course>90.76</course>
  <speed>0.48</speed>
  <fix>3d</fix>
</trkpt>
<trkpt lat="33.8106123" lon="-118.3937122">
  <ele>-0.225</ele>
  <time>2026-09-01T01:14:43Z</time>
  <course>94.82</course>
  <speed>0.45044422518220834</speed>
  <fix>3d</fix>
</trkpt>
<trkpt lat="33.8106125" lon="-118.3937127">
  <ele>0.17</ele>
  <time>2026-09-01T01:14:43Z</time>
  <course>90.81</course>
  <speed>0.48</speed>
  <fix>3d</fix>
</trkpt>
<trkpt lat="33.8106123" lon="-118.3937117">
  <ele>-0.226</ele>
  <time>2026-09-01T01:14:43Z</time>
  <course>94.81</course>
  <speed>0.45044422518220834</speed>
  <fix>3d</fix>
</trkpt>
<trkpt lat="33.8106125" lon="-118.3937127">
  <ele>0.17</ele>
  <time>2026-09-01T01:14:43Z</time>
  <course>90.81</course>
  <speed>0.48</speed>
  <fix>3d</fix>
</trkpt>
<trkpt lat="33.8106123" lon="-118.3937112">
  <ele>-0.226</ele>
  <time>2026-09-01T01:14:43Z</time>
  <course>94.8</course>
  <speed>0.45044422518220834</speed>
  <fix>3d</fix>
</trkpt>
<trkpt lat="33.8106125" lon="-118.3937116">
  <ele>0.17</ele>
  <time>2026-09-01T01:14:43Z</time>
  <course>90.84</course>
  <speed>0.48</speed>
  <fix>3d</fix>
</trkpt>
<trkpt lat="33.8106123" lon="-118.3937107">
  <ele>-0.227</ele>
  <time>2026-09-01T01:14:43Z</time>
  <course>94.79</course>
  <speed>0.45044422518220834</speed>
  <fix>3d</fix>
</trkpt>
<trkpt lat="33.8106125" lon="-118.3937116">
  <ele>0.17</ele>
  <time>2026-09-01T01:14:43Z</time>
  <course>90.84</course>
  <speed>0.48</speed>
  <fix>3d</fix>
</trkpt>
<trkpt lat="33.8106123" lon="-118.3937101">
  <ele>-0.227</ele>
  <time>2026-09-01T01:14:43Z</time>
  <course>94.78</course>
  <speed>0.45044422518220834</speed>
  <fix>3d</fix>
</trkpt>
<trkpt lat="33.8106125" lon="-118.3937106">
  <ele>0.17</ele>
  <time>2026-09-01T01:14:43Z</time>
  <course>90.88</course>
  <speed>0.48</speed>
  <fix>3d</fix>
</trkpt>
<trkpt lat="33.8106123" lon="-118.3937096">
  <ele>-0.227</ele>
  <time>2026-09-01T01:14:43Z</time>
  <course>94.77</course>
  <speed>0.45044422518220834</speed>
  <fix>3d</fix>
</trkpt>
<trkpt lat="33.8106125" lon="-118.3937106">
  <ele>0.17</ele>
  <time>2026-09-01T01:14:43Z</time>
  <course>90.88</course>
  <speed>0.48</speed>
  <fix>3d</fix>
</trkpt>
<trkpt lat="33.8106123" lon="-118.3937091">
  <ele>-0.226</ele>
  <time>2026-09-01T01:14:43Z</time>
  <course>94.76</course>
  <speed>0.45044422518220834</speed>
  <fix>3d</fix>
</trkpt>
<trkpt lat="33.8106125" lon="-118.3937095">
  <ele>0.17</ele>
  <time>2026-09-01T01:14:43Z</time>
  <course>90.92</course>
  <speed>0.48</speed>
  <fix>3d</fix>
</trkpt>
<trkpt lat="33.8106123" lon="-118.3937086">
  <ele>-0.226</ele>
  <time>2026-09-01T01:14:43Z</time>
  <course>94.74</course>
  <speed>0.45044422518220834</speed>
  <fix>3d</fix>
</trkpt>
<trkpt lat="33.8106125" lon="-118.3937095">
  <ele>0.17</ele>
  <time>2026-09-01T01:14:43Z</time>
  <course>90.92</course>
  <speed>0.48</speed>
  <fix>3d</fix>
</trkpt>
<trkpt lat="33.8106123" lon="-118.3937081">
  <ele>-0.227</ele>
  <time>2026-09-01T01:14:43Z</time>
  <course>94.74</course>
  <speed>0.45044422518220834</speed>
  <fix>3d</fix>
</trkpt>
<trkpt lat="33.8106125" lon="-118.3937085">
  <ele>0.16</ele>
  <time>2026-09-01T01:14:43Z</time>
  <course>90.97</course>
  <speed>0.48</speed>
  <fix>3d</fix>
</trkpt>
<trkpt lat="33.8106123" lon="-118.3937075">
  <ele>-0.228</ele>
  <time>2026-09-01T01:14:43Z</time>
  <course>94.73</course>
  <speed>0.45044422518220834</speed>
  <fix>3d</fix>
</trkpt>
<trkpt lat="33.8106125" lon="-118.3937085">
  <ele>0.16</ele>
  <time>2026-09-01T01:14:43Z</time>
  <course>90.97</course>
  <speed>0.48</speed>
  <fix>3d</fix>
</trkpt>
<trkpt lat="33.8106123" lon="-118.393707">
  <ele>-0.23</ele>
  <time>2026-09-01T01:14:43Z</time>
  <course>94.73</course>
  <speed>0.45044422518220834</speed>
  <fix>3d</fix>
</trkpt>
<trkpt lat="33.8106124" lon="-118.3937074">
  <ele>0.16</ele>
  <time>2026-09-01T01:14:43Z</time>
  <course>91.02</course>
  <speed>0.48</speed>
  <fix>3d</fix>
</trkpt>
<trkpt lat="33.8106123" lon="-118.3937065">
  <ele>-0.231</ele>
  <time>2026-09-01T01:14:43Z</time>
  <course>94.7</course>
  <speed>0.45044422518220834</speed>
  <fix>3d</fix>
</trkpt>
<trkpt lat="33.8106124" lon="-118.3937074">
  <ele>0.16</ele>
  <time>2026-09-01T01:14:43Z</time>
  <course>91.02</course>
  <speed>0.48</speed>
  <fix>3d</fix>
</trkpt>
<trkpt lat="33.8106123" lon="-118.393706">
  <ele>-0.233</ele>
  <time>2026-09-01T01:14:43Z</time>
  <course>94.67</course>
  <speed>0.45044422518220834</speed>
  <fix>3d</fix>
</trkpt>
<trkpt lat="33.8106123" lon="-118.3937064">
  <ele>0.16</ele>
  <time>2026-09-01T01:14:43Z</time>
  <course>90.96</course>
  <speed>0.48</speed>
  <fix>3d</fix>
</trkpt>
<trkpt lat="33.8106123" lon="-118.3937054">
  <ele>-0.234</ele>
  <time>2026-09-01T01:14:43Z</time>
  <course>94.6</course>
  <speed>0.45044422518220834</speed>
  <fix>3d</fix>
</trkpt>
<trkpt lat="33.8106123" lon="-118.3937064">
  <ele>0.16</ele>
  <time>2026-09-01T01:14:43Z</time>
  <course>90.96</course>
  <speed>0.48</speed>
  <fix>3d</fix>
</trkpt>
<trkpt lat="33.8106123" lon="-118.3937049">
  <ele>-0.236</ele>
  <time>2026-09-01T01:14:43Z</time>
  <course>94.48</course>
  <speed>0.450111097397076</speed>
  <fix>3d</fix>
</trkpt>
<trkpt lat="33.8106123" lon="-118.3937053">
  <ele>0.16</ele>
  <time>2026-09-01T01:14:43Z</time>
  <course>90.71</course>
  <speed>0.48</speed>
  <fix>3d</fix>
</trkpt>
<trkpt lat="33.8106123" lon="-118.3937044">
  <ele>-0.238</ele>
  <time>2026-09-01T01:14:43Z</time>
  <course>94.34</course>
  <speed>0.450111097397076</speed>
  <fix>3d</fix>
</trkpt>
<trkpt lat="33.8106123" lon="-118.3937053">
  <ele>0.16</ele>
  <time>2026-09-01T01:14:43Z</time>
  <course>90.71</course>
  <speed>0.48</speed>
  <fix>3d</fix>
</trkpt>
<trkpt lat="33.8106123" lon="-118.3937039">
  <ele>-0.24</ele>
  <time>2026-09-01T01:14:43Z</time>
  <course>94.18</course>
  <speed>0.450111097397076</speed>
  <fix>3d</fix>
</trkpt>
<trkpt lat="33.8106123" lon="-118.3937043">
  <ele>0.16</ele>
  <time>2026-09-01T01:14:43Z</time>
  <course>90.36</course>
  <speed>0.48</speed>
  <fix>3d</fix>
</trkpt>
<trkpt lat="33.8106123" lon="-118.3937033">
  <ele>-0.242</ele>
  <time>2026-09-01T01:14:43Z</time>
  <course>94.03</course>
  <speed>0.450111097397076</speed>
  <fix>3d</fix>
</trkpt>
<trkpt lat="33.8106123" lon="-118.3937043">
  <ele>0.16</ele>
  <time>2026-09-01T01:14:43Z</time>
  <course>90.36</course>
  <speed>0.48</speed>
  <fix>3d</fix>
</trkpt>
<trkpt lat="33.8106123" lon="-118.3937028">
  <ele>-0.246</ele>
  <time>2026-09-01T01:14:43Z</time>
  <course>93.9</course>
  <speed>0.450111097397076</speed>
  <fix>3d</fix>
</trkpt>
<trkpt lat="33.8106123" lon="-118.3937032">
  <ele>0.15</ele>
  <time>2026-09-01T01:14:43Z</time>
  <course>90.09</course>
  <speed>0.48</speed>
  <fix>3d</fix>
</trkpt>
<trkpt lat="33.8106123" lon="-118.3937023">
  <ele>-0.248</ele>
  <time>2026-09-01T01:14:43Z</time>
  <course>93.79</course>
  <speed>0.450111097397076</speed>
  <fix>3d</fix>
</trkpt>
<trkpt lat="33.8106123" lon="-118.3937032">
  <ele>0.15</ele>
  <time>2026-09-01T01:14:43Z</time>
  <course>90.09</course>
  <speed>0.48</speed>
  <fix>3d</fix>
</trkpt>
<trkpt lat="33.8106123" lon="-118.3937017">
  <ele>-0.249</ele>
  <time>2026-09-01T01:14:43Z</time>
  <course>93.68</course>
  <speed>0.450111097397076</speed>
  <fix>3d</fix>
</trkpt>
<trkpt lat="33.8106123" lon="-118.3937022">
  <ele>0.15</ele>
  <time>2026-09-01T01:14:43Z</time>
  <course>89.91</course>
  <speed>0.48</speed>
  <fix>3d</fix>
</trkpt>
<trkpt lat="33.8106123" lon="-118.3937012">
  <ele>-0.251</ele>
  <time>2026-09-01T01:14:43Z</time>
  <course>93.61</course>
  <speed>0.450111097397076</speed>
  <fix>3d</fix>
</trkpt>
<trkpt lat="33.8106123" lon="-118.3937022">
  <ele>0.15</ele>
  <time>2026-09-01T01:14:43Z</time>
  <course>89.91</course>
  <speed>0.48</speed>
  <fix>3d</fix>
</trkpt>
<trkpt lat="33.8106122" lon="-118.3937007">
  <ele>-0.253</ele>
  <time>2026-09-01T01:14:43Z</time>
  <course>93.55</course>
  <speed>0.450111097397076</speed>
  <fix>3d</fix>
</trkpt>
<trkpt lat="33.8106123" lon="-118.3937011">
  <ele>0.15</ele>
  <time>2026-09-01T01:14:43Z</time>
  <course>89.75</course>
  <speed>0.48</speed>
  <fix>3d</fix>
</trkpt>
<trkpt lat="33.8106122" lon="-118.3937002">
  <ele>-0.254</ele>
  <time>2026-09-01T01:14:43Z</time>
  <course>93.51</course>
  <speed>0.450111097397076</speed>
  <fix>3d</fix>
</trkpt>
<trkpt lat="33.8106123" lon="-118.3937011">
  <ele>0.15</ele>
  <time>2026-09-01T01:14:43Z</time>
  <course>89.75</course>
  <speed>0.48</speed>
  <fix>3d</fix>
</trkpt>
<trkpt lat="33.8106122" lon="-118.3936996">
  <ele>-0.254</ele>
  <time>2026-09-01T01:14:43Z</time>
  <course>93.47</course>
  <speed>0.450111097397076</speed>
  <fix>3d</fix>
</trkpt>
<trkpt lat="33.8106123" lon="-118.3937">
  <ele>0.15</ele>
  <time>2026-09-01T01:14:43Z</time>
  <course>89.6</course>
  <speed>0.48</speed>
  <fix>3d</fix>
</trkpt>
<trkpt lat="33.8106122" lon="-118.3936991">
  <ele>-0.253</ele>
  <time>2026-09-01T01:14:43Z</time>
  <course>93.46</course>
  <speed>0.450111097397076</speed>
  <fix>3d</fix>
</trkpt>
<trkpt lat="33.8106123" lon="-118.3937">
  <ele>0.15</ele>
  <time>2026-09-01T01:14:43Z</time>
  <course>89.6</course>
  <speed>0.48</speed>
  <fix>3d</fix>
</trkpt>
<trkpt lat="33.8106122" lon="-118.3936986">
  <ele>-0.253</ele>
  <time>2026-09-01T01:14:43Z</time>
  <course>93.46</course>
  <speed>0.450111097397076</speed>
  <fix>3d</fix>
</trkpt>
<trkpt lat="33.8106123" lon="-118.393699">
  <ele>0.14</ele>
  <time>2026-09-01T01:14:43Z</time>
  <course>89.45</course>
  <speed>0.48</speed>
  <fix>3d</fix>
</trkpt>
<trkpt lat="33.8106122" lon="-118.393698">
  <ele>-0.253</ele>
  <time>2026-09-01T01:14:43Z</time>
  <course>93.47</course>
  <speed>0.450111097397076</speed>
  <fix>3d</fix>
</trkpt>
<trkpt lat="33.8106123" lon="-118.393699">
  <ele>0.14</ele>
  <time>2026-09-01T01:14:43Z</time>
  <course>89.45</course>
  <speed>0.48</speed>
  <fix>3d</fix>
</trkpt>
<trkpt lat="33.8106122" lon="-118.3936975">
  <ele>-0.253</ele>
  <time>2026-09-01T01:14:43Z</time>
  <course>93.49</course>
  <speed>0.450111097397076</speed>
  <fix>3d</fix>
</trkpt>
<trkpt lat="33.8106123" lon="-118.3936979">
  <ele>0.14</ele>
  <time>2026-09-01T01:14:43Z</time>
  <course>89.3</course>
  <speed>0.48</speed>
  <fix>3d</fix>
</trkpt>
<trkpt lat="33.8106122" lon="-118.393697">
  <ele>-0.255</ele>
  <time>2026-09-01T01:14:43Z</time>
  <course>93.53</course>
  <speed>0.46010868281309364</speed>
  <fix>3d</fix>
</trkpt>
<trkpt lat="33.8106123" lon="-118.3936979">
  <ele>0.14</ele>
  <time>2026-09-01T01:14:43Z</time>
  <course>89.3</course>
  <speed>0.48</speed>
  <fix>3d</fix>
</trkpt>
<trkpt lat="33.8106122" lon="-118.3936965">
  <ele>-0.256</ele>
  <time>2026-09-01T01:14:43Z</time>
  <course>93.57</course>
  <speed>0.450111097397076</speed>
  <fix>3d</fix>
</trkpt>
<trkpt lat="33.8106123" lon="-118.3936969">
  <ele>0.14</ele>
  <time>2026-09-01T01:14:43Z</time>
  <course>89.15</course>
  <speed>0.48</speed>
  <fix>3d</fix>
</trkpt>
<trkpt lat="33.8106122" lon="-118.3936959">
  <ele>-0.257</ele>
  <time>2026-09-01T01:14:43Z</time>
  <course>93.59</course>
  <speed>0.450111097397076</speed>
  <fix>3d</fix>
</trkpt>
<trkpt lat="33.8106123" lon="-118.3936969">
  <ele>0.14</ele>
  <time>2026-09-01T01:14:43Z</time>
  <course>89.15</course>
  <speed>0.48</speed>
  <fix>3d</fix>
</trkpt>
<trkpt lat="33.8106122" lon="-118.3936954">
  <ele>-0.258</ele>
  <time>2026-09-01T01:14:43Z</time>
  <course>93.62</course>
  <speed>0.450111097397076</speed>
  <fix>3d</fix>
</trkpt>
<trkpt lat="33.8106123" lon="-118.3936958">
  <ele>0.14</ele>
  <time>2026-09-01T01:14:43Z</time>
  <course>89.04</course>
  <speed>0.48</speed>
  <fix>3d</fix>
</trkpt>
<trkpt lat="33.8106122" lon="-118.3936949">
  <ele>-0.258</ele>
  <time>2026-09-01T01:14:43Z</time>
  <course>93.64</course>
  <speed>0.450111097397076</speed>
  <fix>3d</fix>
</trkpt>
<trkpt lat="33.8106123" lon="-118.3936958">
  <ele>0.14</ele>
  <time>2026-09-01T01:14:43Z</time>
  <course>89.04</course>
  <speed>0.48</speed>
  <fix>3d</fix>
</trkpt>
<trkpt lat="33.8106122" lon="-118.3936943">
  <ele>-0.259</ele>
  <time>2026-09-01T01:14:43Z</time>
  <course>93.67</course>
  <speed>0.450111097397076</speed>
  <fix>3d</fix>
</trkpt>
<trkpt lat="33.8106123" lon="-118.3936948">
  <ele>0.13</ele>
  <time>2026-09-01T01:14:43Z</time>
  <course>88.99</course>
  <speed>0.48</speed>
  <fix>3d</fix>
</trkpt>
<trkpt lat="33.8106122" lon="-118.3936938">
  <ele>-0.259</ele>
  <time>2026-09-01T01:14:43Z</time>
  <course>93.69</course>
  <speed>0.450111097397076</speed>
  <fix>3d</fix>
</trkpt>
<trkpt lat="33.8106123" lon="-118.3936948">
  <ele>0.13</ele>
  <time>2026-09-01T01:14:43Z</time>
  <course>88.99</course>
  <speed>0.48</speed>
  <fix>3d</fix>
</trkpt>
<trkpt lat="33.8106122" lon="-118.3936933">
  <ele>-0.26</ele>
  <time>2026-09-01T01:14:43Z</time>
  <course>93.71</course>
  <speed>0.450111097397076</speed>
  <fix>3d</fix>
</trkpt>
<trkpt lat="33.8106123" lon="-118.3936937">
  <ele>0.13</ele>
  <time>2026-09-01T01:14:43Z</time>
  <course>88.97</course>
  <speed>0.48</speed>
  <fix>3d</fix>
</trkpt>
<trkpt lat="33.8106122" lon="-118.3936928">
  <ele>-0.262</ele>
  <time>2026-09-01T01:14:43Z</time>
  <course>93.72</course>
  <speed>0.450111097397076</speed>
  <fix>3d</fix>
</trkpt>
<trkpt lat="33.8106123" lon="-118.3936937">
  <ele>0.13</ele>
  <time>2026-09-01T01:14:43Z</time>
  <course>88.97</course>
  <speed>0.48</speed>
  <fix>3d</fix>
</trkpt>
<trkpt lat="33.8106122" lon="-118.3936922">
  <ele>-0.264</ele>
  <time>2026-09-01T01:14:43Z</time>
  <course>93.74</course>
  <speed>0.450111097397076</speed>
  <fix>3d</fix>
</trkpt>
<trkpt lat="33.8106123" lon="-118.3936927">
  <ele>0.13</ele>
  <time>2026-09-01T01:14:43Z</time>
  <course>88.95</course>
  <speed>0.48</speed>
  <fix>3d</fix>
</trkpt>
<trkpt lat="33.8106122" lon="-118.3936917">
  <ele>-0.265</ele>
  <time>2026-09-01T01:14:43Z</time>
  <course>93.74</course>
  <speed>0.450111097397076</speed>
  <fix>3d</fix>
</trkpt>
<trkpt lat="33.8106123" lon="-118.3936927">
  <ele>0.13</ele>
  <time>2026-09-01T01:14:43Z</time>
  <course>88.95</course>
  <speed>0.48</speed>
  <fix>3d</fix>
</trkpt>
<trkpt lat="33.8106122" lon="-118.3936912">
  <ele>-0.266</ele>
  <time>2026-09-01T01:14:43Z</time>
  <course>93.74</course>
  <speed>0.450111097397076</speed>
  <fix>3d</fix>
</trkpt>
<trkpt lat="33.8106123" lon="-118.3936916">
  <ele>0.12</ele>
  <time>2026-09-01T01:14:43Z</time>
  <course>88.92</course>
  <speed>0.48</speed>
  <fix>3d</fix>
</trkpt>
<trkpt lat="33.8106122" lon="-118.3936907">
  <ele>-0.269</ele>
  <time>2026-09-01T01:14:43Z</time>
  <course>93.74</course>
  <speed>0.46010868281309364</speed>
  <fix>3d</fix>
</trkpt>
<trkpt lat="33.8106123" lon="-118.3936916">
  <ele>0.12</ele>
  <time>2026-09-01T01:14:43Z</time>
  <course>88.92</course>
  <speed>0.48</speed>
  <fix>3d</fix>
</trkpt>
<trkpt lat="33.8106122" lon="-118.3936901">
  <ele>-0.271</ele>
  <time>2026-09-01T01:14:43Z</time>
  <course>93.74</course>
  <speed>0.46010868281309364</speed>
  <fix>3d</fix>
</trkpt>
<trkpt lat="33.8106123" lon="-118.3936906">
  <ele>0.12</ele>
  <time>2026-09-01T01:14:43Z</time>
  <course>88.88</course>
  <speed>0.48</speed>
  <fix>3d</fix>
</trkpt>
<trkpt lat="33.8106122" lon="-118.3936896">
  <ele>-0.272</ele>
  <time>2026-09-01T01:14:43Z</time>
  <course>93.73</course>
  <speed>0.46010868281309364</speed>
  <fix>3d</fix>
</trkpt>
<trkpt lat="33.8106123" lon="-118.3936906">
  <ele>0.12</ele>
  <time>2026-09-01T01:14:43Z</time>
  <course>88.88</course>
  <speed>0.48</speed>
  <fix>3d</fix>
</trkpt>
<trkpt lat="33.8106122" lon="-118.3936891">
  <ele>-0.272</ele>
  <time>2026-09-01T01:14:43Z</time>
  <course>93.73</course>
  <speed>0.450111097397076</speed>
  <fix>3d</fix>
</trkpt>
<trkpt lat="33.8106124" lon="-118.3936895">
  <ele>0.12</ele>
  <time>2026-09-01T01:14:43Z</time>
  <course>88.85</course>
  <speed>0.48</speed>
  <fix>3d</fix>
</trkpt>
<trkpt lat="33.8106122" lon="-118.3936886">
  <ele>-0.272</ele>
  <time>2026-09-01T01:14:43Z</time>
  <course>93.73</course>
  <speed>0.450111097397076</speed>
  <fix>3d</fix>
</trkpt>
<trkpt lat="33.8106124" lon="-118.3936895">
  <ele>0.12</ele>
  <time>2026-09-01T01:14:43Z</time>
  <course>88.85</course>
  <speed>0.48</speed>
  <fix>3d</fix>
</trkpt>
<trkpt lat="33.8106122" lon="-118.393688">
  <ele>-0.27</ele>
  <time>2026-09-01T01:14:43Z</time>
  <course>93.77</course>
  <speed>0.450111097397076</speed>
  <fix>3d</fix>
</trkpt>
<trkpt lat="33.8106125" lon="-118.3936885">
  <ele>0.12</ele>
  <time>2026-09-01T01:14:43Z</time>
  <course>88.91</course>
  <speed>0.48</speed>
  <fix>3d</fix>
</trkpt>
<trkpt lat="33.8106122" lon="-118.3936875">
  <ele>-0.27</ele>
  <time>2026-09-01T01:14:43Z</time>
  <course>93.81</course>
  <speed>0.450111097397076</speed>
  <fix>3d</fix>
</trkpt>
<trkpt lat="33.8106125" lon="-118.3936885">
  <ele>0.12</ele>
  <time>2026-09-01T01:14:43Z</time>
  <course>88.91</course>
  <speed>0.48</speed>
  <fix>3d</fix>
</trkpt>
<trkpt lat="33.8106122" lon="-118.393687">
  <ele>-0.269</ele>
  <time>2026-09-01T01:14:43Z</time>
  <course>93.9</course>
  <speed>0.450111097397076</speed>
  <fix>3d</fix>
</trkpt>
<trkpt lat="33.8106125" lon="-118.3936874">
  <ele>0.12</ele>
  <time>2026-09-01T01:14:43Z</time>
  <course>89.18</course>
  <speed>0.48</speed>
  <fix>3d</fix>
</trkpt>
<trkpt lat="33.8106122" lon="-118.3936865">
  <ele>-0.268</ele>
  <time>2026-09-01T01:14:43Z</time>
  <course>93.99</course>
  <speed>0.45044422518220834</speed>
  <fix>3d</fix>
</trkpt>
<trkpt lat="33.8106125" lon="-118.3936874">
  <ele>0.12</ele>
  <time>2026-09-01T01:14:43Z</time>
  <course>89.18</course>
  <speed>0.48</speed>
  <fix>3d</fix>
</trkpt>
<trkpt lat="33.8106122" lon="-118.3936859">
  <ele>-0.267</ele>
  <time>2026-09-01T01:14:43Z</time>
  <course>94.09</course>
  <speed>0.45044422518220834</speed>
  <fix>3d</fix>
</trkpt>
<trkpt lat="33.8106125" lon="-118.3936864">
  <ele>0.13</ele>
  <time>2026-09-01T01:14:43Z</time>
  <course>89.57</course>
  <speed>0.48</speed>
  <fix>3d</fix>
</trkpt>
<trkpt lat="33.8106122" lon="-118.3936854">
  <ele>-0.265</ele>
  <time>2026-09-01T01:14:43Z</time>
  <course>94.17</course>
  <speed>0.45044422518220834</speed>
  <fix>3d</fix>
</trkpt>
<trkpt lat="33.8106125" lon="-118.3936864">
  <ele>0.13</ele>
  <time>2026-09-01T01:14:43Z</time>
  <course>89.57</course>
  <speed>0.48</speed>
  <fix>3d</fix>
</trkpt>
<trkpt lat="33.8106122" lon="-118.3936849">
  <ele>-0.264</ele>
  <time>2026-09-01T01:14:43Z</time>
  <course>94.26</course>
  <speed>0.45044422518220834</speed>
  <fix>3d</fix>
</trkpt>
<trkpt lat="33.8106125" lon="-118.3936853">
  <ele>0.13</ele>
  <time>2026-09-01T01:14:43Z</time>
  <course>89.91</course>
  <speed>0.48</speed>
  <fix>3d</fix>
</trkpt>
<trkpt lat="33.8106122" lon="-118.3936844">
  <ele>-0.263</ele>
  <time>2026-09-01T01:14:43Z</time>
  <course>94.32</course>
  <speed>0.45044422518220834</speed>
  <fix>3d</fix>
</trkpt>
<trkpt lat="33.8106125" lon="-118.3936853">
  <ele>0.13</ele>
  <time>2026-09-01T01:14:43Z</time>
  <course>89.91</course>
  <speed>0.48</speed>
  <fix>3d</fix>
</trkpt>
<trkpt lat="33.8106122" lon="-118.3936838">
  <ele>-0.262</ele>
  <time>2026-09-01T01:14:43Z</time>
  <course>94.37</course>
  <speed>0.45044422518220834</speed>
  <fix>3d</fix>
</trkpt>
<trkpt lat="33.8106125" lon="-118.3936843">
  <ele>0.13</ele>
  <time>2026-09-01T01:14:43Z</time>
  <course>90.15</course>
  <speed>0.48</speed>
  <fix>3d</fix>
</trkpt>
<trkpt lat="33.8106122" lon="-118.3936833">
  <ele>-0.261</ele>
  <time>2026-09-01T01:14:43Z</time>
  <course>94.4</course>
  <speed>0.45044422518220834</speed>
  <fix>3d</fix>
</trkpt>
<trkpt lat="33.8106125" lon="-118.3936843">
  <ele>0.13</ele>
  <time>2026-09-01T01:14:43Z</time>
  <course>90.15</course>
  <speed>0.48</speed>
  <fix>3d</fix>
</trkpt>
<trkpt lat="33.8106122" lon="-118.3936828">
  <ele>-0.259</ele>
  <time>2026-09-01T01:14:43Z</time>
  <course>94.44</course>
  <speed>0.45044422518220834</speed>
  <fix>3d</fix>
</trkpt>
<trkpt lat="33.8106125" lon="-118.3936832">
  <ele>0.13</ele>
  <time>2026-09-01T01:14:43Z</time>
  <course>90.31</course>
  <speed>0.48</speed>
  <fix>3d</fix>
</trkpt>
<trkpt lat="33.8106122" lon="-118.3936822">
  <ele>-0.257</ele>
  <time>2026-09-01T01:14:43Z</time>
  <course>94.45</course>
  <speed>0.45044422518220834</speed>
  <fix>3d</fix>
</trkpt>
<trkpt lat="33.8106125" lon="-118.3936832">
  <ele>0.13</ele>
  <time>2026-09-01T01:14:43Z</time>
  <course>90.31</course>
  <speed>0.48</speed>
  <fix>3d</fix>
</trkpt>
<trkpt lat="33.8106122" lon="-118.3936817">
  <ele>-0.255</ele>
  <time>2026-09-01T01:14:43Z</time>
  <course>94.47</course>
  <speed>0.45044422518220834</speed>
  <fix>3d</fix>
</trkpt>
<trkpt lat="33.8106125" lon="-118.3936822">
  <ele>0.14</ele>
  <time>2026-09-01T01:14:43Z</time>
  <course>90.43</course>
  <speed>0.48</speed>
  <fix>3d</fix>
</trkpt>
<trkpt lat="33.8106122" lon="-118.3936812">
  <ele>-0.254</ele>
  <time>2026-09-01T01:14:43Z</time>
  <course>94.48</course>
  <speed>0.45044422518220834</speed>
  <fix>3d</fix>
</trkpt>
<trkpt lat="33.8106125" lon="-118.3936822">
  <ele>0.14</ele>
  <time>2026-09-01T01:14:43Z</time>
  <course>90.43</course>
  <speed>0.48</speed>
  <fix>3d</fix>
</trkpt>
<trkpt lat="33.8106122" lon="-118.3936807">
  <ele>-0.253</ele>
  <time>2026-09-01T01:14:43Z</time>
  <course>94.49</course>
  <speed>0.45044422518220834</speed>
  <fix>3d</fix>
</trkpt>
<trkpt lat="33.8106125" lon="-118.3936811">
  <ele>0.14</ele>
  <time>2026-09-01T01:14:43Z</time>
  <course>90.51</course>
  <speed>0.48</speed>
  <fix>3d</fix>
</trkpt>
<trkpt lat="33.8106122" lon="-118.3936801">
  <ele>-0.252</ele>
  <time>2026-09-01T01:14:43Z</time>
  <course>94.48</course>
  <speed>0.45044422518220834</speed>
  <fix>3d</fix>
</trkpt>
<trkpt lat="33.8106125" lon="-118.3936811">
  <ele>0.14</ele>
  <time>2026-09-01T01:14:43Z</time>
  <course>90.51</course>
  <speed>0.48</speed>
  <fix>3d</fix>
</trkpt>
<trkpt lat="33.8106122" lon="-118.3936796">
  <ele>-0.251</ele>
  <time>2026-09-01T01:14:43Z</time>
  <course>94.48</course>
  <speed>0.45044422518220834</speed>
  <fix>3d</fix>
</trkpt>
<trkpt lat="33.8106125" lon="-118.3936801">
  <ele>0.14</ele>
  <time>2026-09-01T01:14:43Z</time>
  <course>90.58</course>
  <speed>0.48</speed>
  <fix>3d</fix>
</trkpt>
<trkpt lat="33.8106122" lon="-118.3936791">
  <ele>-0.251</ele>
  <time>2026-09-01T01:14:43Z</time>
  <course>94.48</course>
  <speed>0.45044422518220834</speed>
  <fix>3d</fix>
</trkpt>
<trkpt lat="33.8106125" lon="-118.3936801">
  <ele>0.14</ele>
  <time>2026-09-01T01:14:43Z</time>
  <course>90.58</course>
  <speed>0.48</speed>
  <fix>3d</fix>
</trkpt>
<trkpt lat="33.8106122" lon="-118.3936786">
  <ele>-0.251</ele>
  <time>2026-09-01T01:14:43Z</time>
  <course>94.48</course>
  <speed>0.45044422518220834</speed>
  <fix>3d</fix>
</trkpt>
<trkpt lat="33.8106125" lon="-118.393679">
  <ele>0.14</ele>
  <time>2026-09-01T01:14:43Z</time>
  <course>90.63</course>
  <speed>0.48</speed>
  <fix>3d</fix>
</trkpt>
<trkpt lat="33.8106122" lon="-118.393678">
  <ele>-0.251</ele>
  <time>2026-09-01T01:14:43Z</time>
  <course>94.47</course>
  <speed>0.4604345773288535</speed>
  <fix>3d</fix>
</trkpt>
<trkpt lat="33.8106125" lon="-118.393679">
  <ele>0.14</ele>
  <time>2026-09-01T01:14:43Z</time>
  <course>90.63</course>
  <speed>0.48</speed>
  <fix>3d</fix>
</trkpt>
<trkpt lat="33.8106122" lon="-118.3936775">
  <ele>-0.251</ele>
  <time>2026-09-01T01:14:43Z</time>
  <course>94.47</course>
  <speed>0.45044422518220834</speed>
  <fix>3d</fix>
</trkpt>
<trkpt lat="33.8106125" lon="-118.393678">
  <ele>0.14</ele>
  <time>2026-09-01T01:14:43Z</time>
  <course>90.67</course>
  <speed>0.48</speed>
  <fix>3d</fix>
</trkpt>
<trkpt lat="33.8106122" lon="-118.393677">
  <ele>-0.252</ele>
  <time>2026-09-01T01:14:43Z</time>
  <course>94.46</course>
  <speed>0.4604345773288535</speed>
  <fix>3d</fix>
</trkpt>
<trkpt lat="33.8106125" lon="-118.393678">
  <ele>0.14</ele>
  <time>2026-09-01T01:14:43Z</time>
  <course>90.67</course>
  <speed>0.48</speed>
  <fix>3d</fix>
</trkpt>
<trkpt lat="33.8106122" lon="-118.3936765">
  <ele>-0.252</ele>
  <time>2026-09-01T01:14:43Z</time>
  <course>94.46</course>
  <speed>0.4604345773288535</speed>
  <fix>3d</fix>
</trkpt>
<trkpt lat="33.8106125" lon="-118.3936769">
  <ele>0.15</ele>
  <time>2026-09-01T01:14:43Z</time>
  <course>90.71</course>
  <speed>0.48</speed>
  <fix>3d</fix>
</trkpt>
<trkpt lat="33.8106122" lon="-118.3936759">
  <ele>-0.252</ele>
  <time>2026-09-01T01:14:43Z</time>
  <course>94.45</course>
  <speed>0.4604345773288535</speed>
  <fix>3d</fix>
</trkpt>
<trkpt lat="33.8106125" lon="-118.3936769">
  <ele>0.15</ele>
  <time>2026-09-01T01:14:43Z</time>
  <course>90.71</course>
  <speed>0.48</speed>
  <fix>3d</fix>
</trkpt>
<trkpt lat="33.8106122" lon="-118.3936754">
  <ele>-0.252</ele>
  <time>2026-09-01T01:14:43Z</time>
  <course>94.45</course>
  <speed>0.4604345773288535</speed>
  <fix>3d</fix>
</trkpt>
<trkpt lat="33.8106125" lon="-118.3936759">
  <ele>0.15</ele>
  <time>2026-09-01T01:14:43Z</time>
  <course>90.76</course>
  <speed>0.48</speed>
  <fix>3d</fix>
</trkpt>
<trkpt lat="33.8106122" lon="-118.3936749">
  <ele>-0.251</ele>
  <time>2026-09-01T01:14:43Z</time>
  <course>94.44</course>
  <speed>0.4604345773288535</speed>
  <fix>3d</fix>
</trkpt>
<trkpt lat="33.8106125" lon="-118.3936759">
  <ele>0.15</ele>
  <time>2026-09-01T01:14:43Z</time>
  <course>90.76</course>
  <speed>0.48</speed>
  <fix>3d</fix>
</trkpt>
<trkpt lat="33.8106122" lon="-118.3936744">
  <ele>-0.25</ele>
  <time>2026-09-01T01:14:43Z</time>
  <course>94.44</course>
  <speed>0.4604345773288535</speed>
  <fix>3d</fix>
</trkpt>
<trkpt lat="33.8106125" lon="-118.3936748">
  <ele>0.15</ele>
  <time>2026-09-01T01:14:43Z</time>
  <course>90.81</course>
  <speed>0.48</speed>
  <fix>3d</fix>
</trkpt>
<trkpt lat="33.8106122" lon="-118.3936738">
  <ele>-0.249</ele>
  <time>2026-09-01T01:14:43Z</time>
  <course>94.44</course>
  <speed>0.4604345773288535</speed>
  <fix>3d</fix>
</trkpt>
<trkpt lat="33.8106125" lon="-118.3936748">
  <ele>0.15</ele>
  <time>2026-09-01T01:14:43Z</time>
  <course>90.81</course>
  <speed>0.48</speed>
  <fix>3d</fix>
</trkpt>
<trkpt lat="33.8106122" lon="-118.3936733">
  <ele>-0.248</ele>
  <time>2026-09-01T01:14:43Z</time>
  <course>94.44</course>
  <speed>0.4604345773288535</speed>
  <fix>3d</fix>
</trkpt>
<trkpt lat="33.8106125" lon="-118.3936737">
  <ele>0.15</ele>
  <time>2026-09-01T01:14:43Z</time>
  <course>90.84</course>
  <speed>0.48</speed>
  <fix>3d</fix>
</trkpt>
<trkpt lat="33.8106122" lon="-118.3936728">
  <ele>-0.248</ele>
  <time>2026-09-01T01:14:43Z</time>
  <course>94.43</course>
  <speed>0.4604345773288535</speed>
  <fix>3d</fix>
</trkpt>
<trkpt lat="33.8106125" lon="-118.3936737">
  <ele>0.15</ele>
  <time>2026-09-01T01:14:43Z</time>
  <course>90.84</course>
  <speed>0.48</speed>
  <fix>3d</fix>
</trkpt>
<trkpt lat="33.8106122" lon="-118.3936722">
  <ele>-0.248</ele>
  <time>2026-09-01T01:14:43Z</time>
  <course>94.43</course>
  <speed>0.4604345773288535</speed>
  <fix>3d</fix>
</trkpt>
<trkpt lat="33.8106125" lon="-118.3936727">
  <ele>0.15</ele>
  <time>2026-09-01T01:14:43Z</time>
  <course>90.87</course>
  <speed>0.48</speed>
  <fix>3d</fix>
</trkpt>
<trkpt lat="33.8106122" lon="-118.3936717">
  <ele>-0.248</ele>
  <time>2026-09-01T01:14:43Z</time>
  <course>94.42</course>
  <speed>0.4604345773288535</speed>
  <fix>3d</fix>
</trkpt>
<trkpt lat="33.8106125" lon="-118.3936727">
  <ele>0.15</ele>
  <time>2026-09-01T01:14:43Z</time>
  <course>90.87</course>
  <speed>0.48</speed>
  <fix>3d</fix>
</trkpt>
<trkpt lat="33.8106122" lon="-118.3936712">
  <ele>-0.248</ele>
  <time>2026-09-01T01:14:43Z</time>
  <course>94.42</course>
  <speed>0.4604345773288535</speed>
  <fix>3d</fix>
</trkpt>
<trkpt lat="33.8106125" lon="-118.3936717">
  <ele>0.15</ele>
  <time>2026-09-01T01:14:43Z</time>
  <course>90.92</course>
  <speed>0.48</speed>
  <fix>3d</fix>
</trkpt>
<trkpt lat="33.8106122" lon="-118.3936707">
  <ele>-0.248</ele>
  <time>2026-09-01T01:14:44Z</time>
  <course>94.42</course>
  <speed>0.4604345773288535</speed>
  <fix>3d</fix>
</trkpt>
<trkpt lat="33.8106125" lon="-118.3936717">
  <ele>0.15</ele>
  <time>2026-09-01T01:14:44Z</time>
  <course>90.92</course>
  <speed>0.48</speed>
  <fix>3d</fix>
</trkpt>
<trkpt lat="33.8106122" lon="-118.3936701">
  <ele>-0.248</ele>
  <time>2026-09-01T01:14:44Z</time>
  <course>94.42</course>
  <speed>0.4604345773288535</speed>
  <fix>3d</fix>
</trkpt>
<trkpt lat="33.8106125" lon="-118.3936706">
  <ele>0.15</ele>
  <time>2026-09-01T01:14:44Z</time>
  <course>90.95</course>
  <speed>0.48</speed>
  <fix>3d</fix>
</trkpt>
<trkpt lat="33.8106122" lon="-118.3936696">
  <ele>-0.248</ele>
  <time>2026-09-01T01:14:44Z</time>
  <course>94.41</course>
  <speed>0.4604345773288535</speed>
  <fix>3d</fix>
</trkpt>
<trkpt lat="33.8106125" lon="-118.3936706">
  <ele>0.15</ele>
  <time>2026-09-01T01:14:44Z</time>
  <course>90.95</course>
  <speed>0.48</speed>
  <fix>3d</fix>
</trkpt>
<trkpt lat="33.8106122" lon="-118.3936691">
  <ele>-0.247</ele>
  <time>2026-09-01T01:14:44Z</time>
  <course>94.41</course>
  <speed>0.4604345773288535</speed>
  <fix>3d</fix>
</trkpt>
<trkpt lat="33.8106124" lon="-118.3936696">
  <ele>0.15</ele>
  <time>2026-09-01T01:14:44Z</time>
  <course>90.99</course>
  <speed>0.48</speed>
  <fix>3d</fix>
</trkpt>
<trkpt lat="33.8106122" lon="-118.3936686">
  <ele>-0.247</ele>
  <time>2026-09-01T01:14:44Z</time>
  <course>94.39</course>
  <speed>0.4604345773288535</speed>
  <fix>3d</fix>
</trkpt>
<trkpt lat="33.8106124" lon="-118.3936696">
  <ele>0.15</ele>
  <time>2026-09-01T01:14:44Z</time>
  <course>90.99</course>
  <speed>0.48</speed>
  <fix>3d</fix>
</trkpt>
<trkpt lat="33.8106122" lon="-118.393668">
  <ele>-0.248</ele>
  <time>2026-09-01T01:14:44Z</time>
  <course>94.36</course>
  <speed>0.4604345773288535</speed>
  <fix>3d</fix>
</trkpt>
<trkpt lat="33.8106123" lon="-118.3936685">
  <ele>0.15</ele>
  <time>2026-09-01T01:14:44Z</time>
  <course>90.92</course>
  <speed>0.48</speed>
  <fix>3d</fix>
</trkpt>
<trkpt lat="33.8106122" lon="-118.3936675">
  <ele>-0.248</ele>
  <time>2026-09-01T01:14:44Z</time>
  <course>94.29</course>
  <speed>0.4604345773288535</speed>
  <fix>3d</fix>
</trkpt>
<trkpt lat="33.8106123" lon="-118.3936685">
  <ele>0.15</ele>
  <time>2026-09-01T01:14:44Z</time>
  <course>90.92</course>
  <speed>0.48</speed>
  <fix>3d</fix>
</trkpt>
<trkpt lat="33.8106122" lon="-118.393667">
  <ele>-0.246</ele>
  <time>2026-09-01T01:14:44Z</time>
  <course>94.18</course>
  <speed>0.46010868281309364</speed>
  <fix>3d</fix>
</trkpt>
<trkpt lat="33.8106123" lon="-118.3936675">
  <ele>0.15</ele>
  <time>2026-09-01T01:14:44Z</time>
  <course>90.65</course>
  <speed>0.48</speed>
  <fix>3d</fix>
</trkpt>
<trkpt lat="33.8106122" lon="-118.3936665">
  <ele>-0.245</ele>
  <time>2026-09-01T01:14:44Z</time>
  <course>94.05</course>
  <speed>0.46010868281309364</speed>
  <fix>3d</fix>
</trkpt>
<trkpt lat="33.8106123" lon="-118.3936675">
  <ele>0.15</ele>
  <time>2026-09-01T01:14:44Z</time>
  <course>90.65</course>
  <speed>0.48</speed>
  <fix>3d</fix>
</trkpt>
<trkpt lat="33.8106122" lon="-118.3936659">
  <ele>-0.243</ele>
  <time>2026-09-01T01:14:44Z</time>
  <course>93.9</course>
  <speed>0.46010868281309364</speed>
  <fix>3d</fix>
</trkpt>
<trkpt lat="33.8106123" lon="-118.3936664">
  <ele>0.15</ele>
  <time>2026-09-01T01:14:44Z</time>
  <course>90.28</course>
  <speed>0.48</speed>
  <fix>3d</fix>
</trkpt>
<trkpt lat="33.8106122" lon="-118.3936654">
  <ele>-0.241</ele>
  <time>2026-09-01T01:14:44Z</time>
  <course>93.77</course>
  <speed>0.46010868281309364</speed>
  <fix>3d</fix>
</trkpt>
<trkpt lat="33.8106123" lon="-118.3936664">
  <ele>0.15</ele>
  <time>2026-09-01T01:14:44Z</time>
  <course>90.28</course>
  <speed>0.48</speed>
  <fix>3d</fix>
</trkpt>
<trkpt lat="33.8106122" lon="-118.3936649">
  <ele>-0.239</ele>
  <time>2026-09-01T01:14:44Z</time>
  <course>93.64</course>
  <speed>0.46010868281309364</speed>
  <fix>3d</fix>
</trkpt>
<trkpt lat="33.8106123" lon="-118.3936654">
  <ele>0.15</ele>
  <time>2026-09-01T01:14:44Z</time>
  <course>90.01</course>
  <speed>0.48</speed>
  <fix>3d</fix>
</trkpt>
<trkpt lat="33.8106122" lon="-118.3936643">
  <ele>-0.237</ele>
  <time>2026-09-01T01:14:44Z</time>
  <course>93.54</course>
  <speed>0.46010868281309364</speed>
  <fix>3d</fix>
</trkpt>
<trkpt lat="33.8106123" lon="-118.3936654">
  <ele>0.15</ele>
  <time>2026-09-01T01:14:44Z</time>
  <course>90.01</course>
  <speed>0.48</speed>
  <fix>3d</fix>
</trkpt>
<trkpt lat="33.8106122" lon="-118.3936638">
  <ele>-0.235</ele>
  <time>2026-09-01T01:14:44Z</time>
  <course>93.45</course>
  <speed>0.46010868281309364</speed>
  <fix>3d</fix>
</trkpt>
<trkpt lat="33.8106123" lon="-118.3936643">
  <ele>0.15</ele>
  <time>2026-09-01T01:14:44Z</time>
  <course>89.82</course>
  <speed>0.48</speed>
  <fix>3d</fix>
</trkpt>
<trkpt lat="33.8106122" lon="-118.3936633">
  <ele>-0.234</ele>
  <time>2026-09-01T01:14:44Z</time>
  <course>93.38</course>
  <speed>0.46010868281309364</speed>
  <fix>3d</fix>
</trkpt>
<trkpt lat="33.8106123" lon="-118.3936643">
  <ele>0.15</ele>
  <time>2026-09-01T01:14:44Z</time>
  <course>89.82</course>
  <speed>0.48</speed>
  <fix>3d</fix>
</trkpt>
<trkpt lat="33.8106122" lon="-118.3936628">
  <ele>-0.234</ele>
  <time>2026-09-01T01:14:44Z</time>
  <course>93.32</course>
  <speed>0.46010868281309364</speed>
  <fix>3d</fix>
</trkpt>
<trkpt lat="33.8106123" lon="-118.3936633">
  <ele>0.15</ele>
  <time>2026-09-01T01:14:44Z</time>
  <course>89.65</course>
  <speed>0.48</speed>
  <fix>3d</fix>
</trkpt>
<trkpt lat="33.8106122" lon="-118.3936622">
  <ele>-0.234</ele>
  <time>2026-09-01T01:14:44Z</time>
  <course>93.28</course>
  <speed>0.46010868281309364</speed>
  <fix>3d</fix>
</trkpt>
<trkpt lat="33.8106123" lon="-118.3936633">
  <ele>0.15</ele>
  <time>2026-09-01T01:14:44Z</time>
  <course>89.65</course>
  <speed>0.48</speed>
  <fix>3d</fix>
</trkpt>
<trkpt lat="33.8106122" lon="-118.3936617">
  <ele>-0.235</ele>
  <time>2026-09-01T01:14:44Z</time>
  <course>93.25</course>
  <speed>0.46010868281309364</speed>
  <fix>3d</fix>
</trkpt>
<trkpt lat="33.8106123" lon="-118.3936622">
  <ele>0.15</ele>
  <time>2026-09-01T01:14:44Z</time>
  <course>89.49</course>
  <speed>0.48</speed>
  <fix>3d</fix>
</trkpt>
<trkpt lat="33.8106122" lon="-118.3936612">
  <ele>-0.237</ele>
  <time>2026-09-01T01:14:44Z</time>
  <course>93.24</course>
  <speed>0.46010868281309364</speed>
  <fix>3d</fix>
</trkpt>
<trkpt lat="33.8106123" lon="-118.3936622">
  <ele>0.15</ele>
  <time>2026-09-01T01:14:44Z</time>
  <course>89.49</course>
  <speed>0.48</speed>
  <fix>3d</fix>
</trkpt>
<trkpt lat="33.8106122" lon="-118.3936607">
  <ele>-0.238</ele>
  <time>2026-09-01T01:14:44Z</time>
  <course>93.23</course>
  <speed>0.46010868281309364</speed>
  <fix>3d</fix>
</trkpt>
<trkpt lat="33.8106123" lon="-118.3936612">
  <ele>0.15</ele>
  <time>2026-09-01T01:14:44Z</time>
  <course>89.33</course>
  <speed>0.48</speed>
  <fix>3d</fix>
</trkpt>
<trkpt lat="33.8106122" lon="-118.3936601">
  <ele>-0.238</ele>
  <time>2026-09-01T01:14:44Z</time>
  <course>93.25</course>
  <speed>0.46010868281309364</speed>
  <fix>3d</fix>
</trkpt>
<trkpt lat="33.8106123" lon="-118.3936612">
  <ele>0.15</ele>
  <time>2026-09-01T01:14:44Z</time>
  <course>89.33</course>
  <speed>0.48</speed>
  <fix>3d</fix>
</trkpt>
<trkpt lat="33.8106122" lon="-118.3936596">
  <ele>-0.239</ele>
  <time>2026-09-01T01:14:44Z</time>
  <course>93.27</course>
  <speed>0.46010868281309364</speed>
  <fix>3d</fix>
</trkpt>
<trkpt lat="33.8106123" lon="-118.3936601">
  <ele>0.15</ele>
  <time>2026-09-01T01:14:44Z</time>
  <course>89.17</course>
  <speed>0.48</speed>
  <fix>3d</fix>
</trkpt>
<trkpt lat="33.8106122" lon="-118.3936591">
  <ele>-0.24</ele>
  <time>2026-09-01T01:14:44Z</time>
  <course>93.28</course>
  <speed>0.46010868281309364</speed>
  <fix>3d</fix>
</trkpt>
<trkpt lat="33.8106123" lon="-118.3936601">
  <ele>0.15</ele>
  <time>2026-09-01T01:14:44Z</time>
  <course>89.17</course>
  <speed>0.48</speed>
  <fix>3d</fix>
</trkpt>
<trkpt lat="33.8106122" lon="-118.3936586">
  <ele>-0.241</ele>
  <time>2026-09-01T01:14:44Z</time>
  <course>93.3</course>
  <speed>0.46010868281309364</speed>
  <fix>3d</fix>
</trkpt>
<trkpt lat="33.8106123" lon="-118.3936591">
  <ele>0.14</ele>
  <time>2026-09-01T01:14:44Z</time>
  <course>89.06</course>
  <speed>0.48</speed>
  <fix>3d</fix>
</trkpt>
<trkpt lat="33.8106122" lon="-118.393658">
  <ele>-0.242</ele>
  <time>2026-09-01T01:14:44Z</time>
  <course>93.32</course>
  <speed>0.46010868281309364</speed>
  <fix>3d</fix>
</trkpt>
<trkpt lat="33.8106123" lon="-118.3936591">
  <ele>0.14</ele>
  <time>2026-09-01T01:14:44Z</time>
  <course>89.06</course>
  <speed>0.48</speed>
  <fix>3d</fix>
</trkpt>
<trkpt lat="33.8106122" lon="-118.3936575">
  <ele>-0.243</ele>
  <time>2026-09-01T01:14:44Z</time>
  <course>93.34</course>
  <speed>0.46010868281309364</speed>
  <fix>3d</fix>
</trkpt>
<trkpt lat="33.8106123" lon="-118.393658">
  <ele>0.14</ele>
  <time>2026-09-01T01:14:44Z</time>
  <course>88.99</course>
  <speed>0.48</speed>
  <fix>3d</fix>
</trkpt>
<trkpt lat="33.8106122" lon="-118.393657">
  <ele>-0.246</ele>
  <time>2026-09-01T01:14:44Z</time>
  <course>93.35</course>
  <speed>0.46010868281309364</speed>
  <fix>3d</fix>
</trkpt>
<trkpt lat="33.8106123" lon="-118.393658">
  <ele>0.14</ele>
  <time>2026-09-01T01:14:44Z</time>
  <course>88.99</course>
  <speed>0.48</speed>
  <fix>3d</fix>
</trkpt>
<trkpt lat="33.8106122" lon="-118.3936565">
  <ele>-0.248</ele>
  <time>2026-09-01T01:14:44Z</time>
  <course>93.36</course>
  <speed>0.46010868281309364</speed>
  <fix>3d</fix>
</trkpt>
<trkpt lat="33.8106123" lon="-118.393657">
  <ele>0.14</ele>
  <time>2026-09-01T01:14:44Z</time>
  <course>88.94</course>
  <speed>0.48</speed>
  <fix>3d</fix>
</trkpt>
<trkpt lat="33.8106122" lon="-118.3936559">
  <ele>-0.251</ele>
  <time>2026-09-01T01:14:44Z</time>
  <course>93.37</course>
  <speed>0.46010868281309364</speed>
  <fix>3d</fix>
</trkpt>
<trkpt lat="33.8106123" lon="-118.393657">
  <ele>0.14</ele>
  <time>2026-09-01T01:14:44Z</time>
  <course>88.94</course>
  <speed>0.48</speed>
  <fix>3d</fix>
</trkpt>
<trkpt lat="33.8106122" lon="-118.3936554">
  <ele>-0.255</ele>
  <time>2026-09-01T01:14:44Z</time>
  <course>93.39</course>
  <speed>0.46010868281309364</speed>
  <fix>3d</fix>
</trkpt>
<trkpt lat="33.8106123" lon="-118.3936559">
  <ele>0.14</ele>
  <time>2026-09-01T01:14:44Z</time>
  <course>88.91</course>
  <speed>0.48</speed>
  <fix>3d</fix>
</trkpt>
<trkpt lat="33.8106122" lon="-118.3936549">
  <ele>-0.257</ele>
  <time>2026-09-01T01:14:44Z</time>
  <course>93.39</course>
  <speed>0.46010868281309364</speed>
  <fix>3d</fix>
</trkpt>
<trkpt lat="33.8106123" lon="-118.3936559">
  <ele>0.14</ele>
  <time>2026-09-01T01:14:44Z</time>
  <course>88.91</course>
  <speed>0.48</speed>
  <fix>3d</fix>
</trkpt>
<trkpt lat="33.8106122" lon="-118.3936544">
  <ele>-0.259</ele>
  <time>2026-09-01T01:14:44Z</time>
  <course>93.4</course>
  <speed>0.46010868281309364</speed>
  <fix>3d</fix>
</trkpt>
<trkpt lat="33.8106123" lon="-118.3936549">
  <ele>0.14</ele>
  <time>2026-09-01T01:14:44Z</time>
  <course>88.87</course>
  <speed>0.48</speed>
  <fix>3d</fix>
</trkpt>
<trkpt lat="33.8106122" lon="-118.3936538">
  <ele>-0.259</ele>
  <time>2026-09-01T01:14:44Z</time>
  <course>93.4</course>
  <speed>0.46010868281309364</speed>
  <fix>3d</fix>
</trkpt>
<trkpt lat="33.8106123" lon="-118.3936549">
  <ele>0.14</ele>
  <time>2026-09-01T01:14:44Z</time>
  <course>88.87</course>
  <speed>0.48</speed>
  <fix>3d</fix>
</trkpt>
<trkpt lat="33.8106122" lon="-118.3936533">
  <ele>-0.26</ele>
  <time>2026-09-01T01:14:44Z</time>
  <course>93.41</course>
  <speed>0.46010868281309364</speed>
  <fix>3d</fix>
</trkpt>
<trkpt lat="33.8106123" lon="-118.3936538">
  <ele>0.13</ele>
  <time>2026-09-01T01:14:44Z</time>
  <course>88.83</course>
  <speed>0.48</speed>
  <fix>3d</fix>
</trkpt>
<trkpt lat="33.8106122" lon="-118.3936528">
  <ele>-0.262</ele>
  <time>2026-09-01T01:14:44Z</time>
  <course>93.42</course>
  <speed>0.46010868281309364</speed>
  <fix>3d</fix>
</trkpt>
<trkpt lat="33.8106123" lon="-118.3936538">
  <ele>0.13</ele>
  <time>2026-09-01T01:14:44Z</time>
  <course>88.83</course>
  <speed>0.48</speed>
  <fix>3d</fix>
</trkpt>
<trkpt lat="33.8106122" lon="-118.3936523">
  <ele>-0.264</ele>
  <time>2026-09-01T01:14:44Z</time>
  <course>93.43</course>
  <speed>0.450111097397076</speed>
  <fix>3d</fix>
</trkpt>
<trkpt lat="33.8106124" lon="-118.3936528">
  <ele>0.13</ele>
  <time>2026-09-01T01:14:44Z</time>
  <course>88.78</course>
  <speed>0.48</speed>
  <fix>3d</fix>
</trkpt>
<trkpt lat="33.8106122" lon="-118.3936517">
  <ele>-0.266</ele>
  <time>2026-09-01T01:14:44Z</time>
  <course>93.44</course>
  <speed>0.450111097397076</speed>
  <fix>3d</fix>
</trkpt>
<trkpt lat="33.8106124" lon="-118.3936528">
  <ele>0.13</ele>
  <time>2026-09-01T01:14:44Z</time>
  <course>88.78</course>
  <speed>0.48</speed>
  <fix>3d</fix>
</trkpt>
<trkpt lat="33.8106122" lon="-118.3936512">
  <ele>-0.267</ele>
  <time>2026-09-01T01:14:44Z</time>
  <course>93.47</course>
  <speed>0.450111097397076</speed>
  <fix>3d</fix>
</trkpt>
<trkpt lat="33.8106125" lon="-118.3936517">
  <ele>0.13</ele>
  <time>2026-09-01T01:14:44Z</time>
  <course>88.84</course>
  <speed>0.48</speed>
  <fix>3d</fix>
</trkpt>
<trkpt lat="33.8106122" lon="-118.3936507">
  <ele>-0.269</ele>
  <time>2026-09-01T01:14:44Z</time>
  <course>93.53</course>
  <speed>0.450111097397076</speed>
  <fix>3d</fix>
</trkpt>
<trkpt lat="33.8106125" lon="-118.3936517">
  <ele>0.13</ele>
  <time>2026-09-01T01:14:44Z</time>
  <course>88.84</course>
  <speed>0.48</speed>
  <fix>3d</fix>
</trkpt>
<trkpt lat="33.8106122" lon="-118.3936502">
  <ele>-0.27</ele>
  <time>2026-09-01T01:14:44Z</time>
  <course>93.62</course>
  <speed>0.45044422518220834</speed>
  <fix>3d</fix>
</trkpt>
<trkpt lat="33.8106125" lon="-118.3936507">
  <ele>0.13</ele>
  <time>2026-09-01T01:14:44Z</time>
  <course>89.12</course>
  <speed>0.48</speed>
  <fix>3d</fix>
</trkpt>
<trkpt lat="33.8106122" lon="-118.3936496">
  <ele>-0.271</ele>
  <time>2026-09-01T01:14:44Z</time>
  <course>93.72</course>
  <speed>0.45044422518220834</speed>
  <fix>3d</fix>
</trkpt>
<trkpt lat="33.8106125" lon="-118.3936507">
  <ele>0.13</ele>
  <time>2026-09-01T01:14:44Z</time>
  <course>89.12</course>
  <speed>0.48</speed>
  <fix>3d</fix>
</trkpt>
<trkpt lat="33.8106122" lon="-118.3936491">
  <ele>-0.272</ele>
  <time>2026-09-01T01:14:44Z</time>
  <course>93.83</course>
  <speed>0.45044422518220834</speed>
  <fix>3d</fix>
</trkpt>
<trkpt lat="33.8106125" lon="-118.3936496">
  <ele>0.13</ele>
  <time>2026-09-01T01:14:44Z</time>
  <course>89.51</course>
  <speed>0.48</speed>
  <fix>3d</fix>
</trkpt>
<trkpt lat="33.8106122" lon="-118.3936486">
  <ele>-0.273</ele>
  <time>2026-09-01T01:14:44Z</time>
  <course>93.92</course>
  <speed>0.45044422518220834</speed>
  <fix>3d</fix>
</trkpt>
<trkpt lat="33.8106125" lon="-118.3936496">
  <ele>0.13</ele>
  <time>2026-09-01T01:14:44Z</time>
  <course>89.51</course>
  <speed>0.48</speed>
  <fix>3d</fix>
</trkpt>
<trkpt lat="33.8106122" lon="-118.3936481">
  <ele>-0.274</ele>
  <time>2026-09-01T01:14:44Z</time>
  <course>94.01</course>
  <speed>0.45044422518220834</speed>
  <fix>3d</fix>
</trkpt>
<trkpt lat="33.8106125" lon="-118.3936486">
  <ele>0.12</ele>
  <time>2026-09-01T01:14:44Z</time>
  <course>89.84</course>
  <speed>0.48</speed>
  <fix>3d</fix>
</trkpt>
<trkpt lat="33.8106122" lon="-118.3936476">
  <ele>-0.275</ele>
  <time>2026-09-01T01:14:44Z</time>
  <course>94.08</course>
  <speed>0.45044422518220834</speed>
  <fix>3d</fix>
</trkpt>
<trkpt lat="33.8106125" lon="-118.3936486">
  <ele>0.12</ele>
  <time>2026-09-01T01:14:44Z</time>
  <course>89.84</course>
  <speed>0.48</speed>
  <fix>3d</fix>
</trkpt>
<trkpt lat="33.8106122" lon="-118.393647">
  <ele>-0.275</ele>
  <time>2026-09-01T01:14:44Z</time>
  <course>94.15</course>
  <speed>0.45044422518220834</speed>
  <fix>3d</fix>
</trkpt>
<trkpt lat="33.8106125" lon="-118.3936475">
  <ele>0.12</ele>
  <time>2026-09-01T01:14:44Z</time>
  <course>90.08</course>
  <speed>0.48</speed>
  <fix>3d</fix>
</trkpt>
<trkpt lat="33.8106122" lon="-118.3936465">
  <ele>-0.274</ele>
  <time>2026-09-01T01:14:44Z</time>
  <course>94.19</course>
  <speed>0.45044422518220834</speed>
  <fix>3d</fix>
</trkpt>
<trkpt lat="33.8106125" lon="-118.3936475">
  <ele>0.12</ele>
  <time>2026-09-01T01:14:44Z</time>
  <course>90.08</course>
  <speed>0.48</speed>
  <fix>3d</fix>
</trkpt>
<trkpt lat="33.8106122" lon="-118.393646">
  <ele>-0.274</ele>
  <time>2026-09-01T01:14:44Z</time>
  <course>94.23</course>
  <speed>0.45044422518220834</speed>
  <fix>3d</fix>
</trkpt>
<trkpt lat="33.8106125" lon="-118.3936465">
  <ele>0.12</ele>
  <time>2026-09-01T01:14:44Z</time>
  <course>90.23</course>
  <speed>0.48</speed>
  <fix>3d</fix>
</trkpt>
<trkpt lat="33.8106122" lon="-118.3936455">
  <ele>-0.274</ele>
  <time>2026-09-01T01:14:44Z</time>
  <course>94.26</course>
  <speed>0.45044422518220834</speed>
  <fix>3d</fix>
</trkpt>
<trkpt lat="33.8106125" lon="-118.3936465">
  <ele>0.12</ele>
  <time>2026-09-01T01:14:44Z</time>
  <course>90.23</course>
  <speed>0.48</speed>
  <fix>3d</fix>
</trkpt>
<trkpt lat="33.8106122" lon="-118.3936449">
  <ele>-0.275</ele>
  <time>2026-09-01T01:14:44Z</time>
  <course>94.28</course>
  <speed>0.45044422518220834</speed>
  <fix>3d</fix>
</trkpt>
<trkpt lat="33.8106125" lon="-118.3936454">
  <ele>0.12</ele>
  <time>2026-09-01T01:14:44Z</time>
  <course>90.33</course>
  <speed>0.48</speed>
  <fix>3d</fix>
</trkpt>
<trkpt lat="33.8106122" lon="-118.3936444">
  <ele>-0.276</ele>
  <time>2026-09-01T01:14:44Z</time>
  <course>94.29</course>
  <speed>0.45044422518220834</speed>
  <fix>3d</fix>
</trkpt>
<trkpt lat="33.8106125" lon="-118.3936454">
  <ele>0.12</ele>
  <time>2026-09-01T01:14:44Z</time>
  <course>90.33</course>
  <speed>0.48</speed>
  <fix>3d</fix>
</trkpt>
<trkpt lat="33.8106122" lon="-118.3936439">
  <ele>-0.276</ele>
  <time>2026-09-01T01:14:44Z</time>
  <course>94.31</course>
  <speed>0.45044422518220834</speed>
  <fix>3d</fix>
</trkpt>
<trkpt lat="33.8106125" lon="-118.3936444">
  <ele>0.12</ele>
  <time>2026-09-01T01:14:44Z</time>
  <course>90.41</course>
  <speed>0.48</speed>
  <fix>3d</fix>
</trkpt>
<trkpt lat="33.8106122" lon="-118.3936434">
  <ele>-0.276</ele>
  <time>2026-09-01T01:14:44Z</time>
  <course>94.32</course>
  <speed>0.45044422518220834</speed>
  <fix>3d</fix>
</trkpt>
<trkpt lat="33.8106125" lon="-118.3936444">
  <ele>0.12</ele>
  <time>2026-09-01T01:14:44Z</time>
  <course>90.41</course>
  <speed>0.48</speed>
  <fix>3d</fix>
</trkpt>
<trkpt lat="33.8106122" lon="-118.3936428">
  <ele>-0.274</ele>
  <time>2026-09-01T01:14:44Z</time>
  <course>94.32</course>
  <speed>0.45044422518220834</speed>
  <fix>3d</fix>
</trkpt>
<trkpt lat="33.8106125" lon="-118.3936433">
  <ele>0.13</ele>
  <time>2026-09-01T01:14:44Z</time>
  <course>90.47</course>
  <speed>0.48</speed>
  <fix>3d</fix>
</trkpt>
<trkpt lat="33.8106122" lon="-118.3936423">
  <ele>-0.271</ele>
  <time>2026-09-01T01:14:44Z</time>
  <course>94.33</course>
  <speed>0.45044422518220834</speed>
  <fix>3d</fix>
</trkpt>
<trkpt lat="33.8106125" lon="-118.3936433">
  <ele>0.13</ele>
  <time>2026-09-01T01:14:44Z</time>
  <course>90.47</course>
  <speed>0.48</speed>
  <fix>3d</fix>
</trkpt>
<trkpt lat="33.8106122" lon="-118.3936418">
  <ele>-0.268</ele>
  <time>2026-09-01T01:14:44Z</time>
  <course>94.33</course>
  <speed>0.45044422518220834</speed>
  <fix>3d</fix>
</trkpt>
<trkpt lat="33.8106125" lon="-118.3936423">
  <ele>0.13</ele>
  <time>2026-09-01T01:14:44Z</time>
  <course>90.51</course>
  <speed>0.48</speed>
  <fix>3d</fix>
</trkpt>
<trkpt lat="33.8106122" lon="-118.3936413">
  <ele>-0.266</ele>
  <time>2026-09-01T01:14:44Z</time>
  <course>94.33</course>
  <speed>0.45044422518220834</speed>
  <fix>3d</fix>
</trkpt>
<trkpt lat="33.8106125" lon="-118.3936423">
  <ele>0.13</ele>
  <time>2026-09-01T01:14:44Z</time>
  <course>90.51</course>
  <speed>0.48</speed>
  <fix>3d</fix>
</trkpt>
<trkpt lat="33.8106122" lon="-118.3936407">
  <ele>-0.264</ele>
  <time>2026-09-01T01:14:44Z</time>
  <course>94.33</course>
  <speed>0.45044422518220834</speed>
  <fix>3d</fix>
</trkpt>
<trkpt lat="33.8106125" lon="-118.3936412">
  <ele>0.13</ele>
  <time>2026-09-01T01:14:44Z</time>
  <course>90.55</course>
  <speed>0.48</speed>
  <fix>3d</fix>
</trkpt>
<trkpt lat="33.8106122" lon="-118.3936402">
  <ele>-0.261</ele>
  <time>2026-09-01T01:14:44Z</time>
  <course>94.32</course>
  <speed>0.45044422518220834</speed>
  <fix>3d</fix>
</trkpt>
<trkpt lat="33.8106125" lon="-118.3936412">
  <ele>0.13</ele>
  <time>2026-09-01T01:14:44Z</time>
  <course>90.55</course>
  <speed>0.48</speed>
  <fix>3d</fix>
</trkpt>
<trkpt lat="33.8106122" lon="-118.3936397">
  <ele>-0.26</ele>
  <time>2026-09-01T01:14:44Z</time>
  <course>94.31</course>
  <speed>0.45044422518220834</speed>
  <fix>3d</fix>
</trkpt>
<trkpt lat="33.8106125" lon="-118.3936402">
  <ele>0.13</ele>
  <time>2026-09-01T01:14:44Z</time>
  <course>90.59</course>
  <speed>0.48</speed>
  <fix>3d</fix>
</trkpt>
<trkpt lat="33.8106122" lon="-118.3936392">
  <ele>-0.258</ele>
  <time>2026-09-01T01:14:44Z</time>
  <course>94.3</course>
  <speed>0.45044422518220834</speed>
  <fix>3d</fix>
</trkpt>
<trkpt lat="33.8106125" lon="-118.3936402">
  <ele>0.13</ele>
  <time>2026-09-01T01:14:44Z</time>
  <course>90.59</course>
  <speed>0.48</speed>
  <fix>3d</fix>
</trkpt>
<trkpt lat="33.8106122" lon="-118.3936387">
  <ele>-0.257</ele>
  <time>2026-09-01T01:14:44Z</time>
  <course>94.3</course>
  <speed>0.45044422518220834</speed>
  <fix>3d</fix>
</trkpt>
<trkpt lat="33.8106125" lon="-118.3936391">
  <ele>0.13</ele>
  <time>2026-09-01T01:14:44Z</time>
  <course>90.66</course>
  <speed>0.48</speed>
  <fix>3d</fix>
</trkpt>
<trkpt lat="33.8106122" lon="-118.3936381">
  <ele>-0.256</ele>
  <time>2026-09-01T01:14:44Z</time>
  <course>94.3</course>
  <speed>0.45044422518220834</speed>
  <fix>3d</fix>
</trkpt>
<trkpt lat="33.8106125" lon="-118.3936391">
  <ele>0.13</ele>
  <time>2026-09-01T01:14:44Z</time>
  <course>90.66</course>
  <speed>0.48</speed>
  <fix>3d</fix>
</trkpt>
<trkpt lat="33.8106122" lon="-118.3936376">
  <ele>-0.254</ele>
  <time>2026-09-01T01:14:44Z</time>
  <course>94.3</course>
  <speed>0.45044422518220834</speed>
  <fix>3d</fix>
</trkpt>
<trkpt lat="33.8106125" lon="-118.3936381">
  <ele>0.14</ele>
  <time>2026-09-01T01:14:44Z</time>
  <course>90.72</course>
  <speed>0.48</speed>
  <fix>3d</fix>
</trkpt>
<trkpt lat="33.8106122" lon="-118.3936371">
  <ele>-0.252</ele>
  <time>2026-09-01T01:14:44Z</time>
  <course>94.3</course>
  <speed>0.45044422518220834</speed>
  <fix>3d</fix>
</trkpt>
<trkpt lat="33.8106125" lon="-118.3936381">
  <ele>0.14</ele>
  <time>2026-09-01T01:14:44Z</time>
  <course>90.72</course>
  <speed>0.48</speed>
  <fix>3d</fix>
</trkpt>
<trkpt lat="33.8106122" lon="-118.3936366">
  <ele>-0.25</ele>
  <time>2026-09-01T01:14:44Z</time>
  <course>94.29</course>
  <speed>0.45044422518220834</speed>
  <fix>3d</fix>
</trkpt>
<trkpt lat="33.8106125" lon="-118.393637">
  <ele>0.14</ele>
  <time>2026-09-01T01:14:44Z</time>
  <course>90.77</course>
  <speed>0.48</speed>
  <fix>3d</fix>
</trkpt>
<trkpt lat="33.8106122" lon="-118.3936361">
  <ele>-0.248</ele>
  <time>2026-09-01T01:14:44Z</time>
  <course>94.28</course>
  <speed>0.45044422518220834</speed>
  <fix>3d</fix>
</trkpt>
<trkpt lat="33.8106125" lon="-118.393637">
  <ele>0.14</ele>
  <time>2026-09-01T01:14:44Z</time>
  <course>90.77</course>
  <speed>0.48</speed>
  <fix>3d</fix>
</trkpt>
<trkpt lat="33.8106122" lon="-118.3936355">
  <ele>-0.247</ele>
  <time>2026-09-01T01:14:44Z</time>
  <course>94.28</course>
  <speed>0.45044422518220834</speed>
  <fix>3d</fix>
</trkpt>
<trkpt lat="33.8106125" lon="-118.3936359">
  <ele>0.14</ele>
  <time>2026-09-01T01:14:44Z</time>
  <course>90.81</course>
  <speed>0.48</speed>
  <fix>3d</fix>
</trkpt>
<trkpt lat="33.8106122" lon="-118.393635">
  <ele>-0.246</ele>
  <time>2026-09-01T01:14:44Z</time>
  <course>94.27</course>
  <speed>0.45044422518220834</speed>
  <fix>3d</fix>
</trkpt>
<trkpt lat="33.8106125" lon="-118.3936359">
  <ele>0.14</ele>
  <time>2026-09-01T01:14:44Z</time>
  <course>90.81</course>
  <speed>0.48</speed>
  <fix>3d</fix>
</trkpt>
<trkpt lat="33.8106122" lon="-118.3936345">
  <ele>-0.245</ele>
  <time>2026-09-01T01:14:44Z</time>
  <course>94.28</course>
  <speed>0.45044422518220834</speed>
  <fix>3d</fix>
</trkpt>
<trkpt lat="33.8106125" lon="-118.3936349">
  <ele>0.14</ele>
  <time>2026-09-01T01:14:44Z</time>
  <course>90.86</course>
  <speed>0.48</speed>
  <fix>3d</fix>
</trkpt>
<trkpt lat="33.8106122" lon="-118.393634">
  <ele>-0.244</ele>
  <time>2026-09-01T01:14:44Z</time>
  <course>94.27</course>
  <speed>0.45044422518220834</speed>
  <fix>3d</fix>
</trkpt>
<trkpt lat="33.8106125" lon="-118.3936349">
  <ele>0.14</ele>
  <time>2026-09-01T01:14:44Z</time>
  <course>90.86</course>
  <speed>0.48</speed>
  <fix>3d</fix>
</trkpt>
<trkpt lat="33.8106122" lon="-118.3936334">
  <ele>-0.244</ele>
  <time>2026-09-01T01:14:44Z</time>
  <course>94.27</course>
  <speed>0.45044422518220834</speed>
  <fix>3d</fix>
</trkpt>
<trkpt lat="33.8106125" lon="-118.3936339">
  <ele>0.14</ele>
  <time>2026-09-01T01:14:44Z</time>
  <course>90.91</course>
  <speed>0.48</speed>
  <fix>3d</fix>
</trkpt>
<trkpt lat="33.8106122" lon="-118.3936329">
  <ele>-0.243</ele>
  <time>2026-09-01T01:14:44Z</time>
  <course>94.26</course>
  <speed>0.45044422518220834</speed>
  <fix>3d</fix>
</trkpt>
<trkpt lat="33.8106125" lon="-118.3936339">
  <ele>0.14</ele>
  <time>2026-09-01T01:14:44Z</time>
  <course>90.91</course>
  <speed>0.48</speed>
  <fix>3d</fix>
</trkpt>
<trkpt lat="33.8106122" lon="-118.3936324">
  <ele>-0.243</ele>
  <time>2026-09-01T01:14:44Z</time>
  <course>94.26</course>
  <speed>0.45044422518220834</speed>
  <fix>3d</fix>
</trkpt>
<trkpt lat="33.8106125" lon="-118.3936328">
  <ele>0.14</ele>
  <time>2026-09-01T01:14:44Z</time>
  <course>90.94</course>
  <speed>0.48</speed>
  <fix>3d</fix>
</trkpt>
<trkpt lat="33.8106122" lon="-118.3936319">
  <ele>-0.243</ele>
  <time>2026-09-01T01:14:44Z</time>
  <course>94.25</course>
  <speed>0.45044422518220834</speed>
  <fix>3d</fix>
</trkpt>
<trkpt lat="33.8106125" lon="-118.3936328">
  <ele>0.14</ele>
  <time>2026-09-01T01:14:44Z</time>
  <course>90.94</course>
  <speed>0.48</speed>
  <fix>3d</fix>
</trkpt>
<trkpt lat="33.8106122" lon="-118.3936313">
  <ele>-0.243</ele>
  <time>2026-09-01T01:14:44Z</time>
  <course>94.25</course>
  <speed>0.45044422518220834</speed>
  <fix>3d</fix>
</trkpt>
<trkpt lat="33.8106124" lon="-118.3936318">
  <ele>0.14</ele>
  <time>2026-09-01T01:14:44Z</time>
  <course>90.98</course>
  <speed>0.48</speed>
  <fix>3d</fix>
</trkpt>
<trkpt lat="33.8106122" lon="-118.3936308">
  <ele>-0.243</ele>
  <time>2026-09-01T01:14:44Z</time>
  <course>94.23</course>
  <speed>0.45044422518220834</speed>
  <fix>3d</fix>
</trkpt>
<trkpt lat="33.8106124" lon="-118.3936318">
  <ele>0.14</ele>
  <time>2026-09-01T01:14:44Z</time>
  <course>90.98</course>
  <speed>0.48</speed>
  <fix>3d</fix>
</trkpt>
<trkpt lat="33.8106122" lon="-118.3936303">
  <ele>-0.243</ele>
  <time>2026-09-01T01:14:44Z</time>
  <course>94.2</course>
  <speed>0.45044422518220834</speed>
  <fix>3d</fix>
</trkpt>
<trkpt lat="33.8106123" lon="-118.3936307">
  <ele>0.14</ele>
  <time>2026-09-01T01:14:44Z</time>
  <course>90.94</course>
  <speed>0.48</speed>
  <fix>3d</fix>
</trkpt>
<trkpt lat="33.8106122" lon="-118.3936298">
  <ele>-0.243</ele>
  <time>2026-09-01T01:14:44Z</time>
  <course>94.14</course>
  <speed>0.4604345773288535</speed>
  <fix>3d</fix>
</trkpt>
<trkpt lat="33.8106123" lon="-118.3936307">
  <ele>0.14</ele>
  <time>2026-09-01T01:14:44Z</time>
  <course>90.94</course>
  <speed>0.48</speed>
  <fix>3d</fix>
</trkpt>
<trkpt lat="33.8106122" lon="-118.3936292">
  <ele>-0.244</ele>
  <time>2026-09-01T01:14:44Z</time>
  <course>94.03</course>
  <speed>0.46010868281309364</speed>
  <fix>3d</fix>
</trkpt>
<trkpt lat="33.8106123" lon="-118.3936297">
  <ele>0.14</ele>
  <time>2026-09-01T01:14:44Z</time>
  <course>90.67</course>
  <speed>0.48</speed>
  <fix>3d</fix>
</trkpt>
<trkpt lat="33.8106122" lon="-118.3936287">
  <ele>-0.245</ele>
  <time>2026-09-01T01:14:44Z</time>
  <course>93.89</course>
  <speed>0.46010868281309364</speed>
  <fix>3d</fix>
</trkpt>
<trkpt lat="33.8106123" lon="-118.3936297">
  <ele>0.14</ele>
  <time>2026-09-01T01:14:44Z</time>
  <course>90.67</course>
  <speed>0.48</speed>
  <fix>3d</fix>
</trkpt>
<trkpt lat="33.8106122" lon="-118.3936282">
  <ele>-0.247</ele>
  <time>2026-09-01T01:14:44Z</time>
  <course>93.74</course>
  <speed>0.46010868281309364</speed>
  <fix>3d</fix>
</trkpt>
<trkpt lat="33.8106123" lon="-118.3936286">
  <ele>0.14</ele>
  <time>2026-09-01T01:14:44Z</time>
  <course>90.31</course>
  <speed>0.48</speed>
  <fix>3d</fix>
</trkpt>
<trkpt lat="33.8106122" lon="-118.3936276">
  <ele>-0.25</ele>
  <time>2026-09-01T01:14:44Z</time>
  <course>93.61</course>
  <speed>0.46010868281309364</speed>
  <fix>3d</fix>
</trkpt>
<trkpt lat="33.8106123" lon="-118.3936286">
  <ele>0.14</ele>
  <time>2026-09-01T01:14:44Z</time>
  <course>90.31</course>
  <speed>0.48</speed>
  <fix>3d</fix>
</trkpt>
<trkpt lat="33.8106122" lon="-118.3936271">
  <ele>-0.253</ele>
  <time>2026-09-01T01:14:44Z</time>
  <course>93.48</course>
  <speed>0.46010868281309364</speed>
  <fix>3d</fix>
</trkpt>
<trkpt lat="33.8106123" lon="-118.3936276">
  <ele>0.14</ele>
  <time>2026-09-01T01:14:44Z</time>
  <course>90.02</course>
  <speed>0.48</speed>
  <fix>3d</fix>
</trkpt>
<trkpt lat="33.8106122" lon="-118.3936266">
  <ele>-0.256</ele>
  <time>2026-09-01T01:14:44Z</time>
  <course>93.37</course>
  <speed>0.46010868281309364</speed>
  <fix>3d</fix>
</trkpt>
<trkpt lat="33.8106123" lon="-118.3936276">
  <ele>0.14</ele>
  <time>2026-09-01T01:14:44Z</time>
  <course>90.02</course>
  <speed>0.48</speed>
  <fix>3d</fix>
</trkpt>
<trkpt lat="33.8106122" lon="-118.3936261">
  <ele>-0.259</ele>
  <time>2026-09-01T01:14:44Z</time>
  <course>93.28</course>
  <speed>0.46010868281309364</speed>
  <fix>3d</fix>
</trkpt>
<trkpt lat="33.8106123" lon="-118.3936265">
  <ele>0.14</ele>
  <time>2026-09-01T01:14:44Z</time>
  <course>89.83</course>
  <speed>0.48</speed>
  <fix>3d</fix>
</trkpt>
<trkpt lat="33.8106122" lon="-118.3936255">
  <ele>-0.26</ele>
  <time>2026-09-01T01:14:44Z</time>
  <course>93.21</course>
  <speed>0.46010868281309364</speed>
  <fix>3d</fix>
</trkpt>
<trkpt lat="33.8106123" lon="-118.3936265">
  <ele>0.14</ele>
  <time>2026-09-01T01:14:44Z</time>
  <course>89.83</course>
  <speed>0.48</speed>
  <fix>3d</fix>
</trkpt>
<trkpt lat="33.8106122" lon="-118.393625">
  <ele>-0.261</ele>
  <time>2026-09-01T01:14:44Z</time>
  <course>93.15</course>
  <speed>0.46010868281309364</speed>
  <fix>3d</fix>
</trkpt>
<trkpt lat="33.8106123" lon="-118.3936255">
  <ele>0.14</ele>
  <time>2026-09-01T01:14:44Z</time>
  <course>89.66</course>
  <speed>0.48</speed>
  <fix>3d</fix>
</trkpt>
<trkpt lat="33.8106122" lon="-118.3936245">
  <ele>-0.261</ele>
  <time>2026-09-01T01:14:44Z</time>
  <course>93.12</course>
  <speed>0.46010868281309364</speed>
  <fix>3d</fix>
</trkpt>
<trkpt lat="33.8106123" lon="-118.3936255">
  <ele>0.14</ele>
  <time>2026-09-01T01:14:44Z</time>
  <course>89.66</course>
  <speed>0.48</speed>
  <fix>3d</fix>
</trkpt>
<trkpt lat="33.8106122" lon="-118.393624">
  <ele>-0.262</ele>
  <time>2026-09-01T01:14:44Z</time>
  <course>93.09</course>
  <speed>0.46010868281309364</speed>
  <fix>3d</fix>
</trkpt>
<trkpt lat="33.8106123" lon="-118.3936244">
  <ele>0.14</ele>
  <time>2026-09-01T01:14:44Z</time>
  <course>89.5</course>
  <speed>0.48</speed>
  <fix>3d</fix>
</trkpt>
<trkpt lat="33.8106122" lon="-118.3936234">
  <ele>-0.262</ele>
  <time>2026-09-01T01:14:44Z</time>
  <course>93.08</course>
  <speed>0.46010868281309364</speed>
  <fix>3d</fix>
</trkpt>
<trkpt lat="33.8106123" lon="-118.3936244">
  <ele>0.14</ele>
  <time>2026-09-01T01:14:44Z</time>
  <course>89.5</course>
  <speed>0.48</speed>
  <fix>3d</fix>
</trkpt>
<trkpt lat="33.8106122" lon="-118.3936229">
  <ele>-0.262</ele>
  <time>2026-09-01T01:14:44Z</time>
  <course>93.08</course>
  <speed>0.46010868281309364</speed>
  <fix>3d</fix>
</trkpt>
<trkpt lat="33.8106123" lon="-118.3936234">
  <ele>0.14</ele>
  <time>2026-09-01T01:14:44Z</time>
  <course>89.33</course>
  <speed>0.48</speed>
  <fix>3d</fix>
</trkpt>
<trkpt lat="33.8106122" lon="-118.3936224">
  <ele>-0.263</ele>
  <time>2026-09-01T01:14:44Z</time>
  <course>93.11</course>
  <speed>0.46010868281309364</speed>
  <fix>3d</fix>
</trkpt>
<trkpt lat="33.8106123" lon="-118.3936234">
  <ele>0.14</ele>
  <time>2026-09-01T01:14:44Z</time>
  <course>89.33</course>
  <speed>0.48</speed>
  <fix>3d</fix>
</trkpt>
<trkpt lat="33.8106122" lon="-118.3936219">
  <ele>-0.264</ele>
  <time>2026-09-01T01:14:44Z</time>
  <course>93.13</course>
  <speed>0.46010868281309364</speed>
  <fix>3d</fix>
</trkpt>
<trkpt lat="33.8106123" lon="-118.3936223">
  <ele>0.14</ele>
  <time>2026-09-01T01:14:44Z</time>
  <course>89.17</course>
  <speed>0.48</speed>
  <fix>3d</fix>
</trkpt>
<trkpt lat="33.8106122" lon="-118.3936213">
  <ele>-0.264</ele>
  <time>2026-09-01T01:14:44Z</time>
  <course>93.15</course>
  <speed>0.46010868281309364</speed>
  <fix>3d</fix>
</trkpt>
<trkpt lat="33.8106123" lon="-118.3936223">
  <ele>0.14</ele>
  <time>2026-09-01T01:14:44Z</time>
  <course>89.17</course>
  <speed>0.48</speed>
  <fix>3d</fix>
</trkpt>
<trkpt lat="33.8106122" lon="-118.3936208">
  <ele>-0.264</ele>
  <time>2026-09-01T01:14:44Z</time>
  <course>93.17</course>
  <speed>0.46010868281309364</speed>
  <fix>3d</fix>
</trkpt>
<trkpt lat="33.8106123" lon="-118.3936213">
  <ele>0.14</ele>
  <time>2026-09-01T01:14:44Z</time>
  <course>89.05</course>
  <speed>0.48</speed>
  <fix>3d</fix>
</trkpt>
<trkpt lat="33.8106122" lon="-118.3936203">
  <ele>-0.265</ele>
  <time>2026-09-01T01:14:44Z</time>
  <course>93.19</course>
  <speed>0.46010868281309364</speed>
  <fix>3d</fix>
</trkpt>
<trkpt lat="33.8106123" lon="-118.3936213">
  <ele>0.14</ele>
  <time>2026-09-01T01:14:44Z</time>
  <course>89.05</course>
  <speed>0.48</speed>
  <fix>3d</fix>
</trkpt>
<trkpt lat="33.8106122" lon="-118.3936198">
  <ele>-0.266</ele>
  <time>2026-09-01T01:14:44Z</time>
  <course>93.21</course>
  <speed>0.46010868281309364</speed>
  <fix>3d</fix>
</trkpt>
<trkpt lat="33.8106123" lon="-118.3936202">
  <ele>0.14</ele>
  <time>2026-09-01T01:14:44Z</time>
  <course>89.0</course>
  <speed>0.48</speed>
  <fix>3d</fix>
</trkpt>
<trkpt lat="33.8106122" lon="-118.3936192">
  <ele>-0.266</ele>
  <time>2026-09-01T01:14:44Z</time>
  <course>93.23</course>
  <speed>0.46010868281309364</speed>
  <fix>3d</fix>
</trkpt>
<trkpt lat="33.8106123" lon="-118.3936202">
  <ele>0.14</ele>
  <time>2026-09-01T01:14:44Z</time>
  <course>89.0</course>
  <speed>0.48</speed>
  <fix>3d</fix>
</trkpt>
<trkpt lat="33.8106122" lon="-118.3936187">
  <ele>-0.266</ele>
  <time>2026-09-01T01:14:44Z</time>
  <course>93.25</course>
  <speed>0.46010868281309364</speed>
  <fix>3d</fix>
</trkpt>
<trkpt lat="33.8106123" lon="-118.3936192">
  <ele>0.14</ele>
  <time>2026-09-01T01:14:44Z</time>
  <course>88.97</course>
  <speed>0.48</speed>
  <fix>3d</fix>
</trkpt>
<trkpt lat="33.8106122" lon="-118.3936182">
  <ele>-0.266</ele>
  <time>2026-09-01T01:14:44Z</time>
  <course>93.27</course>
  <speed>0.46010868281309364</speed>
  <fix>3d</fix>
</trkpt>
<trkpt lat="33.8106123" lon="-118.3936192">
  <ele>0.14</ele>
  <time>2026-09-01T01:14:44Z</time>
  <course>88.97</course>
  <speed>0.48</speed>
  <fix>3d</fix>
</trkpt>
<trkpt lat="33.8106122" lon="-118.3936177">
  <ele>-0.267</ele>
  <time>2026-09-01T01:14:44Z</time>
  <course>93.28</course>
  <speed>0.46010868281309364</speed>
  <fix>3d</fix>
</trkpt>
<trkpt lat="33.8106123" lon="-118.3936181">
  <ele>0.14</ele>
  <time>2026-09-01T01:14:44Z</time>
  <course>88.95</course>
  <speed>0.48</speed>
  <fix>3d</fix>
</trkpt>
<trkpt lat="33.8106122" lon="-118.3936171">
  <ele>-0.267</ele>
  <time>2026-09-01T01:14:44Z</time>
  <course>93.29</course>
  <speed>0.46010868281309364</speed>
  <fix>3d</fix>
</trkpt>
<trkpt lat="33.8106123" lon="-118.3936181">
  <ele>0.14</ele>
  <time>2026-09-01T01:14:44Z</time>
  <course>88.95</course>
  <speed>0.48</speed>
  <fix>3d</fix>
</trkpt>
<trkpt lat="33.8106122" lon="-118.3936166">
  <ele>-0.269</ele>
  <time>2026-09-01T01:14:44Z</time>
  <course>93.3</course>
  <speed>0.46010868281309364</speed>
  <fix>3d</fix>
</trkpt>
<trkpt lat="33.8106123" lon="-118.3936171">
  <ele>0.13</ele>
  <time>2026-09-01T01:14:44Z</time>
  <course>88.91</course>
  <speed>0.48</speed>
  <fix>3d</fix>
</trkpt>
<trkpt lat="33.8106122" lon="-118.3936161">
  <ele>-0.27</ele>
  <time>2026-09-01T01:14:44Z</time>
  <course>93.3</course>
  <speed>0.46010868281309364</speed>
  <fix>3d</fix>
</trkpt>
<trkpt lat="33.8106123" lon="-118.3936171">
  <ele>0.13</ele>
  <time>2026-09-01T01:14:44Z</time>
  <course>88.91</course>
  <speed>0.48</speed>
  <fix>3d</fix>
</trkpt>
<trkpt lat="33.8106122" lon="-118.3936156">
  <ele>-0.272</ele>
  <time>2026-09-01T01:14:44Z</time>
  <course>93.3</course>
  <speed>0.46010868281309364</speed>
  <fix>3d</fix>
</trkpt>
<trkpt lat="33.8106123" lon="-118.393616">
  <ele>0.13</ele>
  <time>2026-09-01T01:14:44Z</time>
  <course>88.87</course>
  <speed>0.48</speed>
  <fix>3d</fix>
</trkpt>
<trkpt lat="33.8106122" lon="-118.393615">
  <ele>-0.274</ele>
  <time>2026-09-01T01:14:44Z</time>
  <course>93.3</course>
  <speed>0.46010868281309364</speed>
  <fix>3d</fix>
</trkpt>
<trkpt lat="33.8106123" lon="-118.393616">
  <ele>0.13</ele>
  <time>2026-09-01T01:14:44Z</time>
  <course>88.87</course>
  <speed>0.48</speed>
  <fix>3d</fix>
</trkpt>
<trkpt lat="33.8106122" lon="-118.3936145">
  <ele>-0.274</ele>
  <time>2026-09-01T01:14:44Z</time>
  <course>93.31</course>
  <speed>0.46010868281309364</speed>
  <fix>3d</fix>
</trkpt>
<trkpt lat="33.8106124" lon="-118.393615">
  <ele>0.13</ele>
  <time>2026-09-01T01:14:44Z</time>
  <course>88.82</course>
  <speed>0.48</speed>
  <fix>3d</fix>
</trkpt>
<trkpt lat="33.8106122" lon="-118.393614">
  <ele>-0.275</ele>
  <time>2026-09-01T01:14:44Z</time>
  <course>93.32</course>
  <speed>0.46010868281309364</speed>
  <fix>3d</fix>
</trkpt>
<trkpt lat="33.8106124" lon="-118.393615">
  <ele>0.13</ele>
  <time>2026-09-01T01:14:44Z</time>
  <course>88.82</course>
  <speed>0.48</speed>
  <fix>3d</fix>
</trkpt>
<trkpt lat="33.8106122" lon="-118.3936134">
  <ele>-0.275</ele>
  <time>2026-09-01T01:14:44Z</time>
  <course>93.36</course>
  <speed>0.46010868281309364</speed>
  <fix>3d</fix>
</trkpt>
<trkpt lat="33.8106125" lon="-118.3936139">
  <ele>0.13</ele>
  <time>2026-09-01T01:14:44Z</time>
  <course>88.88</course>
  <speed>0.48</speed>
  <fix>3d</fix>
</trkpt>
<trkpt lat="33.8106122" lon="-118.3936129">
  <ele>-0.275</ele>
  <time>2026-09-01T01:14:44Z</time>
  <course>93.41</course>
  <speed>0.450111097397076</speed>
  <fix>3d</fix>
</trkpt>
<trkpt lat="33.8106125" lon="-118.3936139">
  <ele>0.13</ele>
  <time>2026-09-01T01:14:44Z</time>
  <course>88.88</course>
  <speed>0.48</speed>
  <fix>3d</fix>
</trkpt>
<trkpt lat="33.8106122" lon="-118.3936124">
  <ele>-0.275</ele>
  <time>2026-09-01T01:14:44Z</time>
  <course>93.51</course>
  <speed>0.450111097397076</speed>
  <fix>3d</fix>
</trkpt>
<trkpt lat="33.8106125" lon="-118.3936129">
  <ele>0.13</ele>
  <time>2026-09-01T01:14:44Z</time>
  <course>89.15</course>
  <speed>0.48</speed>
  <fix>3d</fix>
</trkpt>
<trkpt lat="33.8106122" lon="-118.3936119">
  <ele>-0.274</ele>
  <time>2026-09-01T01:14:44Z</time>
  <course>93.6</course>
  <speed>0.45044422518220834</speed>
  <fix>3d</fix>
</trkpt>
<trkpt lat="33.8106125" lon="-118.3936129">
  <ele>0.13</ele>
  <time>2026-09-01T01:14:44Z</time>
  <course>89.15</course>
  <speed>0.48</speed>
  <fix>3d</fix>
</trkpt>
<trkpt lat="33.8106122" lon="-118.3936114">
  <ele>-0.273</ele>
  <time>2026-09-01T01:14:44Z</time>
  <course>93.72</course>
  <speed>0.45044422518220834</speed>
  <fix>3d</fix>
</trkpt>
<trkpt lat="33.8106125" lon="-118.3936118">
  <ele>0.12</ele>
  <time>2026-09-01T01:14:44Z</time>
  <course>89.55</course>
  <speed>0.48</speed>
  <fix>3d</fix>
</trkpt>
<trkpt lat="33.8106122" lon="-118.3936108">
  <ele>-0.273</ele>
  <time>2026-09-01T01:14:44Z</time>
  <course>93.81</course>
  <speed>0.45044422518220834</speed>
  <fix>3d</fix>
</trkpt>
<trkpt lat="33.8106125" lon="-118.3936118">
  <ele>0.12</ele>
  <time>2026-09-01T01:14:44Z</time>
  <course>89.55</course>
  <speed>0.48</speed>
  <fix>3d</fix>
</trkpt>
<trkpt lat="33.8106122" lon="-118.3936103">
  <ele>-0.274</ele>
  <time>2026-09-01T01:14:44Z</time>
  <course>93.91</course>
  <speed>0.45044422518220834</speed>
  <fix>3d</fix>
</trkpt>
<trkpt lat="33.8106125" lon="-118.3936108">
  <ele>0.12</ele>
  <time>2026-09-01T01:14:44Z</time>
  <course>89.89</course>
  <speed>0.48</speed>
  <fix>3d</fix>
</trkpt>
<trkpt lat="33.8106122" lon="-118.3936098">
  <ele>-0.273</ele>
  <time>2026-09-01T01:14:44Z</time>
  <course>93.97</course>
  <speed>0.45044422518220834</speed>
  <fix>3d</fix>
</trkpt>
<trkpt lat="33.8106125" lon="-118.3936108">
  <ele>0.12</ele>
  <time>2026-09-01T01:14:44Z</time>
  <course>89.89</course>
  <speed>0.48</speed>
  <fix>3d</fix>
</trkpt>
<trkpt lat="33.8106123" lon="-118.3936093">
  <ele>-0.272</ele>
  <time>2026-09-01T01:14:44Z</time>
  <course>94.03</course>
  <speed>0.45044422518220834</speed>
  <fix>3d</fix>
</trkpt>
<trkpt lat="33.8106125" lon="-118.3936097">
  <ele>0.12</ele>
  <time>2026-09-01T01:14:44Z</time>
  <course>90.11</course>
  <speed>0.48</speed>
  <fix>3d</fix>
</trkpt>
<trkpt lat="33.8106123" lon="-118.3936087">
  <ele>-0.27</ele>
  <time>2026-09-01T01:14:44Z</time>
  <course>94.08</course>
  <speed>0.45044422518220834</speed>
  <fix>3d</fix>
</trkpt>
<trkpt lat="33.8106125" lon="-118.3936097">
  <ele>0.12</ele>
  <time>2026-09-01T01:14:44Z</time>
  <course>90.11</course>
  <speed>0.48</speed>
  <fix>3d</fix>
</trkpt>
<trkpt lat="33.8106123" lon="-118.3936082">
  <ele>-0.269</ele>
  <time>2026-09-01T01:14:44Z</time>
  <course>94.12</course>
  <speed>0.45044422518220834</speed>
  <fix>3d</fix>
</trkpt>
<trkpt lat="33.8106125" lon="-118.3936086">
  <ele>0.12</ele>
  <time>2026-09-01T01:14:44Z</time>
  <course>90.26</course>
  <speed>0.48</speed>
  <fix>3d</fix>
</trkpt>
<trkpt lat="33.8106123" lon="-118.3936077">
  <ele>-0.269</ele>
  <time>2026-09-01T01:14:44Z</time>
  <course>94.14</course>
  <speed>0.4604345773288535</speed>
  <fix>3d</fix>
</trkpt>
<trkpt lat="33.8106125" lon="-118.3936086">
  <ele>0.12</ele>
  <time>2026-09-01T01:14:44Z</time>
  <course>90.26</course>
  <speed>0.48</speed>
  <fix>3d</fix>
</trkpt>
<trkpt lat="33.8106123" lon="-118.3936071">
  <ele>-0.268</ele>
  <time>2026-09-01T01:14:44Z</time>
  <course>94.17</course>
  <speed>0.4604345773288535</speed>
  <fix>3d</fix>
</trkpt>
<trkpt lat="33.8106125" lon="-118.3936076">
  <ele>0.12</ele>
  <time>2026-09-01T01:14:44Z</time>
  <course>90.38</course>
  <speed>0.48</speed>
  <fix>3d</fix>
</trkpt>
<trkpt lat="33.8106123" lon="-118.3936066">
  <ele>-0.268</ele>
  <time>2026-09-01T01:14:44Z</time>
  <course>94.19</course>
  <speed>0.4604345773288535</speed>
  <fix>3d</fix>
</trkpt>
<trkpt lat="33.8106125" lon="-118.3936076">
  <ele>0.12</ele>
  <time>2026-09-01T01:14:44Z</time>
  <course>90.38</course>
  <speed>0.48</speed>
  <fix>3d</fix>
</trkpt>
<trkpt lat="33.8106123" lon="-118.3936061">
  <ele>-0.267</ele>
  <time>2026-09-01T01:14:44Z</time>
  <course>94.2</course>
  <speed>0.4604345773288535</speed>
  <fix>3d</fix>
</trkpt>
<trkpt lat="33.8106125" lon="-118.3936066">
  <ele>0.12</ele>
  <time>2026-09-01T01:14:44Z</time>
  <course>90.47</course>
  <speed>0.48</speed>
  <fix>3d</fix>
</trkpt>
<trkpt lat="33.8106123" lon="-118.3936056">
  <ele>-0.265</ele>
  <time>2026-09-01T01:14:44Z</time>
  <course>94.21</course>
  <speed>0.4604345773288535</speed>
  <fix>3d</fix>
</trkpt>
<trkpt lat="33.8106125" lon="-118.3936066">
  <ele>0.12</ele>
  <time>2026-09-01T01:14:44Z</time>
  <course>90.47</course>
  <speed>0.48</speed>
  <fix>3d</fix>
</trkpt>
<trkpt lat="33.8106123" lon="-118.393605">
  <ele>-0.263</ele>
  <time>2026-09-01T01:14:44Z</time>
  <course>94.22</course>
  <speed>0.4604345773288535</speed>
  <fix>3d</fix>
</trkpt>
<trkpt lat="33.8106125" lon="-118.3936055">
  <ele>0.13</ele>
  <time>2026-09-01T01:14:44Z</time>
  <course>90.52</course>
  <speed>0.48</speed>
  <fix>3d</fix>
</trkpt>
<trkpt lat="33.8106123" lon="-118.3936045">
  <ele>-0.261</ele>
  <time>2026-09-01T01:14:44Z</time>
  <course>94.22</course>
  <speed>0.4604345773288535</speed>
  <fix>3d</fix>
</trkpt>
<trkpt lat="33.8106125" lon="-118.3936055">
  <ele>0.13</ele>
  <time>2026-09-01T01:14:44Z</time>
  <course>90.52</course>
  <speed>0.48</speed>
  <fix>3d</fix>
</trkpt>
<trkpt lat="33.8106123" lon="-118.393604">
  <ele>-0.258</ele>
  <time>2026-09-01T01:14:44Z</time>
  <course>94.23</course>
  <speed>0.4604345773288535</speed>
  <fix>3d</fix>
</trkpt>
<trkpt lat="33.8106125" lon="-118.3936045">
  <ele>0.13</ele>
  <time>2026-09-01T01:14:44Z</time>
  <course>90.57</course>
  <speed>0.48</speed>
  <fix>3d</fix>
</trkpt>
<trkpt lat="33.8106123" lon="-118.3936035">
  <ele>-0.256</ele>
  <time>2026-09-01T01:14:44Z</time>
  <course>94.22</course>
  <speed>0.4604345773288535</speed>
  <fix>3d</fix>
</trkpt>
<trkpt lat="33.8106125" lon="-118.3936045">
  <ele>0.13</ele>
  <time>2026-09-01T01:14:44Z</time>
  <course>90.57</course>
  <speed>0.48</speed>
  <fix>3d</fix>
</trkpt>
<trkpt lat="33.8106123" lon="-118.3936029">
  <ele>-0.254</ele>
  <time>2026-09-01T01:14:44Z</time>
  <course>94.23</course>
  <speed>0.4604345773288535</speed>
  <fix>3d</fix>
</trkpt>
<trkpt lat="33.8106125" lon="-118.3936034">
  <ele>0.13</ele>
  <time>2026-09-01T01:14:44Z</time>
  <course>90.63</course>
  <speed>0.48</speed>
  <fix>3d</fix>
</trkpt>
<trkpt lat="33.8106123" lon="-118.3936024">
  <ele>-0.254</ele>
  <time>2026-09-01T01:14:44Z</time>
  <course>94.22</course>
  <speed>0.4604345773288535</speed>
  <fix>3d</fix>
</trkpt>
<trkpt lat="33.8106125" lon="-118.3936034">
  <ele>0.13</ele>
  <time>2026-09-01T01:14:44Z</time>
  <course>90.63</course>
  <speed>0.48</speed>
  <fix>3d</fix>
</trkpt>
<trkpt lat="33.8106123" lon="-118.3936019">
  <ele>-0.253</ele>
  <time>2026-09-01T01:14:44Z</time>
  <course>94.22</course>
  <speed>0.4604345773288535</speed>
  <fix>3d</fix>
</trkpt>
<trkpt lat="33.8106125" lon="-118.3936024">
  <ele>0.13</ele>
  <time>2026-09-01T01:14:44Z</time>
  <course>90.69</course>
  <speed>0.48</speed>
  <fix>3d</fix>
</trkpt>
<trkpt lat="33.8106123" lon="-118.3936014">
  <ele>-0.253</ele>
  <time>2026-09-01T01:14:44Z</time>
  <course>94.21</course>
  <speed>0.4604345773288535</speed>
  <fix>3d</fix>
</trkpt>
<trkpt lat="33.8106125" lon="-118.3936024">
  <ele>0.13</ele>
  <time>2026-09-01T01:14:44Z</time>
  <course>90.69</course>
  <speed>0.48</speed>
  <fix>3d</fix>
</trkpt>
<trkpt lat="33.8106123" lon="-118.3936008">
  <ele>-0.253</ele>
  <time>2026-09-01T01:14:44Z</time>
  <course>94.21</course>
  <speed>0.4604345773288535</speed>
  <fix>3d</fix>
</trkpt>
<trkpt lat="33.8106125" lon="-118.3936013">
  <ele>0.13</ele>
  <time>2026-09-01T01:14:44Z</time>
  <course>90.75</course>
  <speed>0.48</speed>
  <fix>3d</fix>
</trkpt>
<trkpt lat="33.8106123" lon="-118.3936003">
  <ele>-0.254</ele>
  <time>2026-09-01T01:14:44Z</time>
  <course>94.2</course>
  <speed>0.4604345773288535</speed>
  <fix>3d</fix>
</trkpt>
<trkpt lat="33.8106125" lon="-118.3936013">
  <ele>0.13</ele>
  <time>2026-09-01T01:14:44Z</time>
  <course>90.75</course>
  <speed>0.48</speed>
  <fix>3d</fix>
</trkpt>
<trkpt lat="33.8106123" lon="-118.3935998">
  <ele>-0.254</ele>
  <time>2026-09-01T01:14:44Z</time>
  <course>94.2</course>
  <speed>0.4604345773288535</speed>
  <fix>3d</fix>
</trkpt>
<trkpt lat="33.8106125" lon="-118.3936003">
  <ele>0.13</ele>
  <time>2026-09-01T01:14:44Z</time>
  <course>90.8</course>
  <speed>0.48</speed>
  <fix>3d</fix>
</trkpt>
<trkpt lat="33.8106123" lon="-118.3935993">
  <ele>-0.254</ele>
  <time>2026-09-01T01:14:44Z</time>
  <course>94.19</course>
  <speed>0.4604345773288535</speed>
  <fix>3d</fix>
</trkpt>
<trkpt lat="33.8106125" lon="-118.3936003">
  <ele>0.13</ele>
  <time>2026-09-01T01:14:44Z</time>
  <course>90.8</course>
  <speed>0.48</speed>
  <fix>3d</fix>
</trkpt>
<trkpt lat="33.8106123" lon="-118.3935987">
  <ele>-0.253</ele>
  <time>2026-09-01T01:14:44Z</time>
  <course>94.19</course>
  <speed>0.4604345773288535</speed>
  <fix>3d</fix>
</trkpt>
<trkpt lat="33.8106125" lon="-118.3935992">
  <ele>0.13</ele>
  <time>2026-09-01T01:14:44Z</time>
  <course>90.84</course>
  <speed>0.48</speed>
  <fix>3d</fix>
</trkpt>
<trkpt lat="33.8106123" lon="-118.3935982">
  <ele>-0.253</ele>
  <time>2026-09-01T01:14:44Z</time>
  <course>94.18</course>
  <speed>0.4604345773288535</speed>
  <fix>3d</fix>
</trkpt>
<trkpt lat="33.8106125" lon="-118.3935992">
  <ele>0.13</ele>
  <time>2026-09-01T01:14:44Z</time>
  <course>90.84</course>
  <speed>0.48</speed>
  <fix>3d</fix>
</trkpt>
<trkpt lat="33.8106123" lon="-118.3935977">
  <ele>-0.252</ele>
  <time>2026-09-01T01:14:44Z</time>
  <course>94.17</course>
  <speed>0.4604345773288535</speed>
  <fix>3d</fix>
</trkpt>
<trkpt lat="33.8106125" lon="-118.3935982">
  <ele>0.14</ele>
  <time>2026-09-01T01:14:44Z</time>
  <course>90.89</course>
  <speed>0.48</speed>
  <fix>3d</fix>
</trkpt>
<trkpt lat="33.8106123" lon="-118.3935972">
  <ele>-0.252</ele>
  <time>2026-09-01T01:14:44Z</time>
  <course>94.17</course>
  <speed>0.4604345773288535</speed>
  <fix>3d</fix>
</trkpt>
<trkpt lat="33.8106125" lon="-118.3935982">
  <ele>0.14</ele>
  <time>2026-09-01T01:14:44Z</time>
  <course>90.89</course>
  <speed>0.48</speed>
  <fix>3d</fix>
</trkpt>
<trkpt lat="33.8106123" lon="-118.3935966">
  <ele>-0.252</ele>
  <time>2026-09-01T01:14:44Z</time>
  <course>94.16</course>
  <speed>0.4604345773288535</speed>
  <fix>3d</fix>
</trkpt>
<trkpt lat="33.8106125" lon="-118.3935971">
  <ele>0.14</ele>
  <time>2026-09-01T01:14:44Z</time>
  <course>90.94</course>
  <speed>0.48</speed>
  <fix>3d</fix>
</trkpt>
<trkpt lat="33.8106123" lon="-118.3935961">
  <ele>-0.253</ele>
  <time>2026-09-01T01:14:44Z</time>
  <course>94.15</course>
  <speed>0.4604345773288535</speed>
  <fix>3d</fix>
</trkpt>
<trkpt lat="33.8106125" lon="-118.3935971">
  <ele>0.14</ele>
  <time>2026-09-01T01:14:44Z</time>
  <course>90.94</course>
  <speed>0.48</speed>
  <fix>3d</fix>
</trkpt>
<trkpt lat="33.8106123" lon="-118.3935956">
  <ele>-0.255</ele>
  <time>2026-09-01T01:14:44Z</time>
  <course>94.15</course>
  <speed>0.4604345773288535</speed>
  <fix>3d</fix>
</trkpt>
<trkpt lat="33.8106125" lon="-118.3935961">
  <ele>0.14</ele>
  <time>2026-09-01T01:14:44Z</time>
  <course>90.98</course>
  <speed>0.48</speed>
  <fix>3d</fix>
</trkpt>
<trkpt lat="33.8106123" lon="-118.3935951">
  <ele>-0.256</ele>
  <time>2026-09-01T01:14:44Z</time>
  <course>94.14</course>
  <speed>0.4604345773288535</speed>
  <fix>3d</fix>
</trkpt>
<trkpt lat="33.8106125" lon="-118.3935961">
  <ele>0.14</ele>
  <time>2026-09-01T01:14:44Z</time>
  <course>90.98</course>
  <speed>0.48</speed>
  <fix>3d</fix>
</trkpt>
<trkpt lat="33.8106123" lon="-118.3935945">
  <ele>-0.256</ele>
  <time>2026-09-01T01:14:44Z</time>
  <course>94.13</course>
  <speed>0.4604345773288535</speed>
  <fix>3d</fix>
</trkpt>
<trkpt lat="33.8106124" lon="-118.393595">
  <ele>0.14</ele>
  <time>2026-09-01T01:14:44Z</time>
  <course>91.02</course>
  <speed>0.48</speed>
  <fix>3d</fix>
</trkpt>
<trkpt lat="33.8106123" lon="-118.393594">
  <ele>-0.255</ele>
  <time>2026-09-01T01:14:44Z</time>
  <course>94.11</course>
  <speed>0.4604345773288535</speed>
  <fix>3d</fix>
</trkpt>
<trkpt lat="33.8106124" lon="-118.393595">
  <ele>0.14</ele>
  <time>2026-09-01T01:14:44Z</time>
  <course>91.02</course>
  <speed>0.48</speed>
  <fix>3d</fix>
</trkpt>
<trkpt lat="33.8106123" lon="-118.3935935">
  <ele>-0.254</ele>
  <time>2026-09-01T01:14:44Z</time>
  <course>94.07</course>
  <speed>0.4604345773288535</speed>
  <fix>3d</fix>
</trkpt>
<trkpt lat="33.8106123" lon="-118.393594">
  <ele>0.14</ele>
  <time>2026-09-01T01:14:44Z</time>
  <course>90.98</course>
  <speed>0.48</speed>
  <fix>3d</fix>
</trkpt>
<trkpt lat="33.8106123" lon="-118.393593">
  <ele>-0.253</ele>
  <time>2026-09-01T01:14:44Z</time>
  <course>94.01</course>
  <speed>0.4604345773288535</speed>
  <fix>3d</fix>
</trkpt>
<trkpt lat="33.8106123" lon="-118.393594">
  <ele>0.14</ele>
  <time>2026-09-01T01:14:44Z</time>
  <course>90.98</course>
  <speed>0.48</speed>
  <fix>3d</fix>
</trkpt>
<trkpt lat="33.8106123" lon="-118.3935924">
  <ele>-0.252</ele>
  <time>2026-09-01T01:14:44Z</time>
  <course>93.9</course>
  <speed>0.46010868281309364</speed>
  <fix>3d</fix>
</trkpt>
<trkpt lat="33.8106123" lon="-118.3935929">
  <ele>0.14</ele>
  <time>2026-09-01T01:14:44Z</time>
  <course>90.73</course>
  <speed>0.48</speed>
  <fix>3d</fix>
</trkpt>
<trkpt lat="33.8106123" lon="-118.3935919">
  <ele>-0.252</ele>
  <time>2026-09-01T01:14:44Z</time>
  <course>93.77</course>
  <speed>0.46010868281309364</speed>
  <fix>3d</fix>
</trkpt>
<trkpt lat="33.8106123" lon="-118.3935929">
  <ele>0.14</ele>
  <time>2026-09-01T01:14:44Z</time>
  <course>90.73</course>
  <speed>0.48</speed>
  <fix>3d</fix>
</trkpt>
<trkpt lat="33.8106123" lon="-118.3935914">
  <ele>-0.252</ele>
  <time>2026-09-01T01:14:44Z</time>
  <course>93.62</course>
  <speed>0.46010868281309364</speed>
  <fix>3d</fix>
</trkpt>
<trkpt lat="33.8106123" lon="-118.3935919">
  <ele>0.14</ele>
  <time>2026-09-01T01:14:44Z</time>
  <course>90.36</course>
  <speed>0.48</speed>
  <fix>3d</fix>
</trkpt>
<trkpt lat="33.8106123" lon="-118.3935909">
  <ele>-0.252</ele>
  <time>2026-09-01T01:14:44Z</time>
  <course>93.49</course>
  <speed>0.46010868281309364</speed>
  <fix>3d</fix>
</trkpt>
<trkpt lat="33.8106123" lon="-118.3935919">
  <ele>0.14</ele>
  <time>2026-09-01T01:14:44Z</time>
  <course>90.36</course>
  <speed>0.48</speed>
  <fix>3d</fix>
</trkpt>
<trkpt lat="33.8106123" lon="-118.3935903">
  <ele>-0.252</ele>
  <time>2026-09-01T01:14:44Z</time>
  <course>93.35</course>
  <speed>0.46010868281309364</speed>
  <fix>3d</fix>
</trkpt>
<trkpt lat="33.8106123" lon="-118.3935908">
  <ele>0.14</ele>
  <time>2026-09-01T01:14:44Z</time>
  <course>90.08</course>
  <speed>0.48</speed>
  <fix>3d</fix>
</trkpt>
<trkpt lat="33.8106123" lon="-118.3935898">
  <ele>-0.253</ele>
  <time>2026-09-01T01:14:44Z</time>
  <course>93.25</course>
  <speed>0.46010868281309364</speed>
  <fix>3d</fix>
</trkpt>
<trkpt lat="33.8106123" lon="-118.3935908">
  <ele>0.14</ele>
  <time>2026-09-01T01:14:44Z</time>
  <course>90.08</course>
  <speed>0.48</speed>
  <fix>3d</fix>
</trkpt>
<trkpt lat="33.8106123" lon="-118.3935893">
  <ele>-0.254</ele>
  <time>2026-09-01T01:14:44Z</time>
  <course>93.16</course>
  <speed>0.46010868281309364</speed>
  <fix>3d</fix>
</trkpt>
<trkpt lat="33.8106123" lon="-118.3935898">
  <ele>0.14</ele>
  <time>2026-09-01T01:14:44Z</time>
  <course>89.89</course>
  <speed>0.48</speed>
  <fix>3d</fix>
</trkpt>
<trkpt lat="33.8106122" lon="-118.3935887">
  <ele>-0.255</ele>
  <time>2026-09-01T01:14:44Z</time>
  <course>93.1</course>
  <speed>0.46010868281309364</speed>
  <fix>3d</fix>
</trkpt>
<trkpt lat="33.8106123" lon="-118.3935898">
  <ele>0.14</ele>
  <time>2026-09-01T01:14:44Z</time>
  <course>89.89</course>
  <speed>0.48</speed>
  <fix>3d</fix>
</trkpt>
<trkpt lat="33.8106122" lon="-118.3935882">
  <ele>-0.256</ele>
  <time>2026-09-01T01:14:44Z</time>
  <course>93.04</course>
  <speed>0.46010868281309364</speed>
  <fix>3d</fix>
</trkpt>
<trkpt lat="33.8106123" lon="-118.3935887">
  <ele>0.14</ele>
  <time>2026-09-01T01:14:44Z</time>
  <course>89.72</course>
  <speed>0.48</speed>
  <fix>3d</fix>
</trkpt>
<trkpt lat="33.8106122" lon="-118.3935877">
  <ele>-0.256</ele>
  <time>2026-09-01T01:14:44Z</time>
  <course>93.02</course>
  <speed>0.46010868281309364</speed>
  <fix>3d</fix>
</trkpt>
<trkpt lat="33.8106123" lon="-118.3935887">
  <ele>0.14</ele>
  <time>2026-09-01T01:14:44Z</time>
  <course>89.72</course>
  <speed>0.48</speed>
  <fix>3d</fix>
</trkpt>
<trkpt lat="33.8106122" lon="-118.3935872">
  <ele>-0.257</ele>
  <time>2026-09-01T01:14:44Z</time>
  <course>93.0</course>
  <speed>0.46010868281309364</speed>
  <fix>3d</fix>
</trkpt>
<trkpt lat="33.8106123" lon="-118.3935877">
  <ele>0.14</ele>
  <time>2026-09-01T01:14:44Z</time>
  <course>89.56</course>
  <speed>0.48</speed>
  <fix>3d</fix>
</trkpt>
<trkpt lat="33.8106122" lon="-118.3935866">
  <ele>-0.257</ele>
  <time>2026-09-01T01:14:44Z</time>
  <course>93.01</course>
  <speed>0.46010868281309364</speed>
  <fix>3d</fix>
</trkpt>
<trkpt lat="33.8106123" lon="-118.3935877">
  <ele>0.14</ele>
  <time>2026-09-01T01:14:44Z</time>
  <course>89.56</course>
  <speed>0.48</speed>
  <fix>3d</fix>
</trkpt>
<trkpt lat="33.8106122" lon="-118.3935861">
  <ele>-0.256</ele>
  <time>2026-09-01T01:14:44Z</time>
  <course>93.03</course>
  <speed>0.46010868281309364</speed>
  <fix>3d</fix>
</trkpt>
<trkpt lat="33.8106123" lon="-118.3935866">
  <ele>0.14</ele>
  <time>2026-09-01T01:14:44Z</time>
  <course>89.41</course>
  <speed>0.48</speed>
  <fix>3d</fix>
</trkpt>
<trkpt lat="33.8106122" lon="-118.3935856">
  <ele>-0.256</ele>
  <time>2026-09-01T01:14:44Z</time>
  <course>93.08</course>
  <speed>0.46010868281309364</speed>
  <fix>3d</fix>
</trkpt>
<trkpt lat="33.8106123" lon="-118.3935866">
  <ele>0.14</ele>
  <time>2026-09-01T01:14:44Z</time>
  <course>89.41</course>
  <speed>0.48</speed>
  <fix>3d</fix>
</trkpt>
<trkpt lat="33.8106122" lon="-118.3935851">
  <ele>-0.257</ele>
  <time>2026-09-01T01:14:44Z</time>
  <course>93.13</course>
  <speed>0.46010868281309364</speed>
  <fix>3d</fix>
</trkpt>
<trkpt lat="33.8106123" lon="-118.3935856">
  <ele>0.13</ele>
  <time>2026-09-01T01:14:44Z</time>
  <course>89.27</course>
  <speed>0.48</speed>
  <fix>3d</fix>
</trkpt>
<trkpt lat="33.8106122" lon="-118.3935845">
  <ele>-0.257</ele>
  <time>2026-09-01T01:14:44Z</time>
  <course>93.22</course>
  <speed>0.46010868281309364</speed>
  <fix>3d</fix>
</trkpt>
<trkpt lat="33.8106123" lon="-118.3935856">
  <ele>0.13</ele>
  <time>2026-09-01T01:14:44Z</time>
  <course>89.27</course>
  <speed>0.48</speed>
  <fix>3d</fix>
</trkpt>
<trkpt lat="33.8106122" lon="-118.393584">
  <ele>-0.259</ele>
  <time>2026-09-01T01:14:44Z</time>
  <course>93.31</course>
  <speed>0.46010868281309364</speed>
  <fix>3d</fix>
</trkpt>
<trkpt lat="33.8106123" lon="-118.3935845">
  <ele>0.13</ele>
  <time>2026-09-01T01:14:44Z</time>
  <course>89.13</course>
  <speed>0.48</speed>
  <fix>3d</fix>
</trkpt>
<trkpt lat="33.8106122" lon="-118.3935835">
  <ele>-0.26</ele>
  <time>2026-09-01T01:14:44Z</time>
  <course>93.44</course>
  <speed>0.46010868281309364</speed>
  <fix>3d</fix>
</trkpt>
<trkpt lat="33.8106123" lon="-118.3935845">
  <ele>0.13</ele>
  <time>2026-09-01T01:14:44Z</time>
  <course>89.13</course>
  <speed>0.48</speed>
  <fix>3d</fix>
</trkpt>
<trkpt lat="33.8106122" lon="-118.393583">
  <ele>-0.262</ele>
  <time>2026-09-01T01:14:44Z</time>
  <course>93.58</course>
  <speed>0.450111097397076</speed>
  <fix>3d</fix>
</trkpt>
<trkpt lat="33.8106123" lon="-118.3935835">
  <ele>0.13</ele>
  <time>2026-09-01T01:14:44Z</time>
  <course>89.04</course>
  <speed>0.48</speed>
  <fix>3d</fix>
</trkpt>
<trkpt lat="33.8106123" lon="-118.3935824">
  <ele>-0.264</ele>
  <time>2026-09-01T01:14:44Z</time>
  <course>93.78</course>
  <speed>0.4301162633521314</speed>
  <fix>3d</fix>
</trkpt>
<trkpt lat="33.8106123" lon="-118.3935835">
  <ele>0.13</ele>
  <time>2026-09-01T01:14:44Z</time>
  <course>89.04</course>
  <speed>0.48</speed>
  <fix>3d</fix>
</trkpt>
<trkpt lat="33.8106123" lon="-118.393582">
  <ele>-0.265</ele>
  <time>2026-09-01T01:14:44Z</time>
  <course>94.01</course>
  <speed>0.41012193308819755</speed>
  <fix>3d</fix>
</trkpt>
<trkpt lat="33.8106123" lon="-118.3935824">
  <ele>0.13</ele>
  <time>2026-09-01T01:14:44Z</time>
  <course>89.01</course>
  <speed>0.47</speed>
  <fix>3d</fix>
</trkpt>
<trkpt lat="33.8106123" lon="-118.3935815">
  <ele>-0.267</ele>
  <time>2026-09-01T01:14:44Z</time>
  <course>94.24</course>
  <speed>0.3901281840626232</speed>
  <fix>3d</fix>
</trkpt>
<trkpt lat="33.8106123" lon="-118.3935824">
  <ele>0.13</ele>
  <time>2026-09-01T01:14:44Z</time>
  <course>89.01</course>
  <speed>0.47</speed>
  <fix>3d</fix>
</trkpt>
<trkpt lat="33.8106123" lon="-118.3935811">
  <ele>-0.269</ele>
  <time>2026-09-01T01:14:44Z</time>
  <course>94.51</course>
  <speed>0.36013886210738216</speed>
  <fix>3d</fix>
</trkpt>
<trkpt lat="33.8106123" lon="-118.3935814">
  <ele>0.13</ele>
  <time>2026-09-01T01:14:44Z</time>
  <course>89.06</course>
  <speed>0.43</speed>
  <fix>3d</fix>
</trkpt>
<trkpt lat="33.8106123" lon="-118.3935806">
  <ele>-0.27</ele>
  <time>2026-09-01T01:14:44Z</time>
  <course>94.8</course>
  <speed>0.3301514803843835</speed>
  <fix>3d</fix>
</trkpt>
<trkpt lat="33.8106123" lon="-118.3935814">
  <ele>0.13</ele>
  <time>2026-09-01T01:14:44Z</time>
  <course>89.06</course>
  <speed>0.43</speed>
  <fix>3d</fix>
</trkpt>
<trkpt lat="33.8106123" lon="-118.3935803">
  <ele>-0.27</ele>
  <time>2026-09-01T01:14:44Z</time>
  <course>95.13</course>
  <speed>0.3101612483854165</speed>
  <fix>3d</fix>
</trkpt>
<trkpt lat="33.8106123" lon="-118.3935806">
  <ele>0.13</ele>
  <time>2026-09-01T01:14:44Z</time>
  <course>89.16</course>
  <speed>0.38</speed>
  <fix>3d</fix>
</trkpt>
<trkpt lat="33.8106122" lon="-118.3935799">
  <ele>-0.27</ele>
  <time>2026-09-01T01:14:44Z</time>
  <course>95.48</course>
  <speed>0.280178514522438</speed>
  <fix>3d</fix>
</trkpt>
<trkpt lat="33.8106123" lon="-118.3935806">
  <ele>0.13</ele>
  <time>2026-09-01T01:14:44Z</time>
  <course>89.16</course>
  <speed>0.38</speed>
  <fix>3d</fix>
</trkpt>
<trkpt lat="33.8106122" lon="-118.3935796">
  <ele>-0.27</ele>
  <time>2026-09-01T01:14:44Z</time>
  <course>95.9</course>
  <speed>0.2501999200639361</speed>
  <fix>3d</fix>
</trkpt>
<trkpt lat="33.8106123" lon="-118.3935798">
  <ele>0.13</ele>
  <time>2026-09-01T01:14:44Z</time>
  <course>89.28</course>
  <speed>0.32</speed>
  <fix>3d</fix>
</trkpt>
<trkpt lat="33.8106122" lon="-118.3935793">
  <ele>-0.27</ele>
  <time>2026-09-01T01:14:44Z</time>
  <course>96.37</course>
  <speed>0.23021728866442676</speed>
  <fix>3d</fix>
</trkpt>
<trkpt lat="33.8106123" lon="-118.3935798">
  <ele>0.13</ele>
  <time>2026-09-01T01:14:44Z</time>
  <course>89.28</course>
  <speed>0.32</speed>
  <fix>3d</fix>
</trkpt>
<trkpt lat="33.8106122" lon="-118.393579">
  <ele>-0.27</ele>
  <time>2026-09-01T01:14:44Z</time>
  <course>96.93</course>
  <speed>0.2102379604162864</speed>
  <fix>3d</fix>
</trkpt>
<trkpt lat="33.8106123" lon="-118.3935792">
  <ele>0.12</ele>
  <time>2026-09-01T01:14:44Z</time>
  <course>89.4</course>
  <speed>0.27</speed>
  <fix>3d</fix>
</trkpt>
<trkpt lat="33.8106122" lon="-118.3935788">
  <ele>-0.269</ele>
  <time>2026-09-01T01:14:44Z</time>
  <course>97.53</course>
  <speed>0.19026297590440447</speed>
  <fix>3d</fix>
</trkpt>
<trkpt lat="33.8106123" lon="-118.3935792">
  <ele>0.12</ele>
  <time>2026-09-01T01:14:44Z</time>
  <course>89.4</course>
  <speed>0.27</speed>
  <fix>3d</fix>
</trkpt>
<trkpt lat="33.8106122" lon="-118.3935786">
  <ele>-0.27</ele>
  <time>2026-09-01T01:14:44Z</time>
  <course>98.12</course>
  <speed>0.17029386365926402</speed>
  <fix>3d</fix>
</trkpt>
<trkpt lat="33.8106123" lon="-118.3935786">
  <ele>0.12</ele>
  <time>2026-09-01T01:14:44Z</time>
  <course>89.43</course>
  <speed>0.23</speed>
  <fix>3d</fix>
</trkpt>
<trkpt lat="33.8106122" lon="-118.3935784">
  <ele>-0.271</ele>
  <time>2026-09-01T01:14:44Z</time>
  <course>98.76</course>
  <speed>0.15132745950421556</speed>
  <fix>3d</fix>
</trkpt>
<trkpt lat="33.8106123" lon="-118.3935786">
  <ele>0.12</ele>
  <time>2026-09-01T01:14:44Z</time>
  <course>89.43</course>
  <speed>0.23</speed>
  <fix>3d</fix>
</trkpt>
<trkpt lat="33.8106122" lon="-118.3935782">
  <ele>-0.271</ele>
  <time>2026-09-01T01:14:44Z</time>
  <course>99.63</course>
  <speed>0.1414213562373095</speed>
  <fix>3d</fix>
</trkpt>
<trkpt lat="33.8106123" lon="-118.3935781">
  <ele>0.12</ele>
  <time>2026-09-01T01:14:44Z</time>
  <course>89.92</course>
  <speed>0.19</speed>
  <fix>3d</fix>
</trkpt>
<trkpt lat="33.8106122" lon="-118.393578">
  <ele>-0.27</ele>
  <time>2026-09-01T01:14:44Z</time>
  <course>101.05</course>
  <speed>0.12369316876852982</speed>
  <fix>3d</fix>
</trkpt>
<trkpt lat="33.8106123" lon="-118.3935781">
  <ele>0.12</ele>
  <time>2026-09-01T01:14:44Z</time>
  <course>89.92</course>
  <speed>0.19</speed>
  <fix>3d</fix>
</trkpt>
<trkpt lat="33.8106122" lon="-118.3935778">
  <ele>-0.269</ele>
  <time>2026-09-01T01:14:44Z</time>
  <course>103.06</course>
  <speed>0.1044030650891055</speed>
  <fix>3d</fix>
</trkpt>
<trkpt lat="33.8106123" lon="-118.3935777">
  <ele>0.12</ele>
  <time>2026-09-01T01:14:44Z</time>
  <course>92.97</course>
  <speed>0.15</speed>
  <fix>3d</fix>
</trkpt>
<trkpt lat="33.8106122" lon="-118.3935777">
  <ele>-0.269</ele>
  <time>2026-09-01T01:14:44Z</time>
  <course>104.36</course>
  <speed>0.0854400374531753</speed>
  <fix>3d</fix>
</trkpt>
<trkpt lat="33.8106123" lon="-118.3935777">
  <ele>0.12</ele>
  <time>2026-09-01T01:14:44Z</time>
  <course>92.97</course>
  <speed>0.15</speed>
  <fix>3d</fix>
</trkpt>
<trkpt lat="33.8106122" lon="-118.3935776">
  <ele>-0.268</ele>
  <time>2026-09-01T01:14:44Z</time>
  <course>104.25</course>
  <speed>0.07211102550927978</speed>
  <fix>3d</fix>
</trkpt>
<trkpt lat="33.8106123" lon="-118.3935774">
  <ele>0.12</ele>
  <time>2026-09-01T01:14:44Z</time>
  <course>97.9</course>
  <speed>0.12</speed>
  <fix>3d</fix>
</trkpt>
<trkpt lat="33.8106121" lon="-118.3935775">
  <ele>-0.268</ele>
  <time>2026-09-01T01:14:44Z</time>
  <course>102.15</course>
  <speed>0.05</speed>
  <fix>3d</fix>
</trkpt>
<trkpt lat="33.8106123" lon="-118.3935774">
  <ele>0.12</ele>
  <time>2026-09-01T01:14:44Z</time>
  <course>97.9</course>
  <speed>0.12</speed>
  <fix>3d</fix>
</trkpt>
<trkpt lat="33.8106121" lon="-118.3935774">
  <ele>-0.268</ele>
  <time>2026-09-01T01:14:44Z</time>
  <course>99.52</course>
  <speed>0.03605551275463989</speed>
  <fix>3d</fix>
</trkpt>
<trkpt lat="33.8106123" lon="-118.3935772">
  <ele>0.12</ele>
  <time>2026-09-01T01:14:44Z</time>
  <course>103.98</course>
  <speed>0.08</speed>
  <fix>3d</fix>
</trkpt>
<trkpt lat="33.8106121" lon="-118.3935774">
  <ele>-0.269</ele>
  <time>2026-09-01T01:14:44Z</time>
  <course>97.59</course>
  <speed>0.0316227766016838</speed>
  <fix>3d</fix>
</trkpt>
<trkpt lat="33.8106123" lon="-118.3935772">
  <ele>0.12</ele>
  <time>2026-09-01T01:14:44Z</time>
  <course>103.98</course>
  <speed>0.08</speed>
  <fix>3d</fix>
</trkpt>
<trkpt lat="33.8106121" lon="-118.3935774">
  <ele>-0.27</ele>
  <time>2026-09-01T01:14:44Z</time>
  <course>96.82</course>
  <speed>0.03</speed>
  <fix>3d</fix>
</trkpt>
<trkpt lat="33.8106123" lon="-118.3935771">
  <ele>0.12</ele>
  <time>2026-09-01T01:14:44Z</time>
  <course>112.61</course>
  <speed>0.05</speed>
  <fix>3d</fix>
</trkpt>
<trkpt lat="33.8106121" lon="-118.3935773">
  <ele>-0.27</ele>
  <time>2026-09-01T01:14:44Z</time>
  <course>98.06</course>
  <speed>0.02</speed>
  <fix>3d</fix>
</trkpt>
<trkpt lat="33.8106123" lon="-118.3935771">
  <ele>0.12</ele>
  <time>2026-09-01T01:14:44Z</time>
  <course>112.61</course>
  <speed>0.05</speed>
  <fix>3d</fix>
</trkpt>
<trkpt lat="33.8106121" lon="-118.3935773">
  <ele>-0.27</ele>
  <time>2026-09-01T01:14:44Z</time>
  <course>100.69</course>
  <speed>0.022360679774997897</speed>
  <fix>3d</fix>
</trkpt>
<trkpt lat="33.8106123" lon="-118.393577">
  <ele>0.13</ele>
  <time>2026-09-01T01:14:44Z</time>
  <course>118.75</course>
  <speed>0.02</speed>
  <fix>3d</fix>
</trkpt>
<trkpt lat="33.8106121" lon="-118.3935773">
  <ele>-0.269</ele>
  <time>2026-09-01T01:14:44Z</time>
  <course>103.81</course>
  <speed>0.0282842712474619</speed>
  <fix>3d</fix>
</trkpt>
<trkpt lat="33.8106123" lon="-118.393577">
  <ele>0.13</ele>
  <time>2026-09-01T01:14:44Z</time>
  <course>118.75</course>
  <speed>0.02</speed>
  <fix>3d</fix>
</trkpt>
<trkpt lat="33.8106121" lon="-118.3935773">
  <ele>-0.268</ele>
  <time>2026-09-01T01:14:44Z</time>
  <course>107.23</course>
  <speed>0.0282842712474619</speed>
  <fix>3d</fix>
</trkpt>
<trkpt lat="33.8106123" lon="-118.393577">
  <ele>0.13</ele>
  <time>2026-09-01T01:14:44Z</time>
  <course>140.46</course>
  <speed>0.0</speed>
  <fix>3d</fix>
</trkpt>
<trkpt lat="33.8106121" lon="-118.3935773">
  <ele>-0.266</ele>
  <time>2026-09-01T01:14:44Z</time>
  <course>110.88</course>
  <speed>0.03605551275463989</speed>
  <fix>3d</fix>
</trkpt>
<trkpt lat="33.8106123" lon="-118.393577">
  <ele>0.13</ele>
  <time>2026-09-01T01:14:44Z</time>
  <course>140.46</course>
  <speed>0.0</speed>
  <fix>3d</fix>
</trkpt>
<trkpt lat="33.8106121" lon="-118.3935773">
  <ele>-0.265</ele>
  <time>2026-09-01T01:14:44Z</time>
  <course>114.71</course>
  <speed>0.03605551275463989</speed>
  <fix>3d</fix>
</trkpt>
<trkpt lat="33.8106123" lon="-118.393577">
  <ele>0.13</ele>
  <time>2026-09-01T01:14:44Z</time>
  <course>223.86</course>
  <speed>0.0</speed>
  <fix>3d</fix>
</trkpt>
<trkpt lat="33.8106121" lon="-118.3935773">
  <ele>-0.263</ele>
  <time>2026-09-01T01:14:44Z</time>
  <course>118.72</course>
  <speed>0.053851648071345036</speed>
  <fix>3d</fix>
</trkpt>
<trkpt lat="33.8106123" lon="-118.393577">
  <ele>0.13</ele>
  <time>2026-09-01T01:14:44Z</time>
  <course>223.86</course>
  <speed>0.0</speed>
  <fix>3d</fix>
</trkpt>
<trkpt lat="33.8106121" lon="-118.3935774">
  <ele>-0.261</ele>
  <time>2026-09-01T01:14:45Z</time>
  <course>122.87</course>
  <speed>0.07280109889280519</speed>
  <fix>3d</fix>
</trkpt>
<trkpt lat="33.8106123" lon="-118.393577">
  <ele>0.13</ele>
  <time>2026-09-01T01:14:45Z</time>
  <course>253.58</course>
  <speed>0.02</speed>
  <fix>3d</fix>
</trkpt>
<trkpt lat="33.8106121" lon="-118.3935773">
  <ele>-0.26</ele>
  <time>2026-09-01T01:14:45Z</time>
  <course>127.16</course>
  <speed>0.09219544457292887</speed>
  <fix>3d</fix>
</trkpt>
<trkpt lat="33.8106123" lon="-118.393577">
  <ele>0.13</ele>
  <time>2026-09-01T01:14:45Z</time>
  <course>253.58</course>
  <speed>0.02</speed>
  <fix>3d</fix>
</trkpt>
<trkpt lat="33.8106121" lon="-118.3935774">
  <ele>-0.26</ele>
  <time>2026-09-01T01:14:45Z</time>
  <course>131.57</course>
  <speed>0.1118033988749895</speed>
  <fix>3d</fix>
</trkpt>
<trkpt lat="33.8106122" lon="-118.393577">
  <ele>0.13</ele>
  <time>2026-09-01T01:14:45Z</time>
  <course>259.69</course>
  <speed>0.05</speed>
  <fix>3d</fix>
</trkpt>
<trkpt lat="33.8106121" lon="-118.3935775">
  <ele>-0.26</ele>
  <time>2026-09-01T01:14:45Z</time>
  <course>136.09</course>
  <speed>0.13152946437965907</speed>
  <fix>3d</fix>
</trkpt>
<trkpt lat="33.8106122" lon="-118.393577">
  <ele>0.13</ele>
  <time>2026-09-01T01:14:45Z</time>
  <course>259.69</course>
  <speed>0.05</speed>
  <fix>3d</fix>
</trkpt>
<trkpt lat="33.8106121" lon="-118.3935776">
  <ele>-0.26</ele>
  <time>2026-09-01T01:14:45Z</time>
  <course>140.76</course>
  <speed>0.16124515496597097</speed>
  <fix>3d</fix>
</trkpt>
<trkpt lat="33.8106122" lon="-118.3935772">
  <ele>0.13</ele>
  <time>2026-09-01T01:14:45Z</time>
  <course>262.76</course>
  <speed>0.09</speed>
  <fix>3d</fix>
</trkpt>
<trkpt lat="33.8106121" lon="-118.3935778">
  <ele>-0.3</ele>
  <time>2026-09-01T01:14:45Z</time>
  <course>143.41</course>
  <speed>0.15132745950421556</speed>
  <fix>3d</fix>
</trkpt>
<trkpt lat="33.8106122" lon="-118.3935772">
  <ele>0.13</ele>
  <time>2026-09-01T01:14:45Z</time>
  <course>262.76</course>
  <speed>0.09</speed>
  <fix>3d</fix>
</trkpt>
<trkpt lat="33.8106121" lon="-118.3935779">
  <ele>-0.392</ele>
  <time>2026-09-01T01:14:45Z</time>
  <course>144.57</course>
  <speed>0.1414213562373095</speed>
  <fix>3d</fix>
</trkpt>
<trkpt lat="33.8106122" lon="-118.3935774">
  <ele>0.09</ele>
  <time>2026-09-01T01:14:45Z</time>
  <course>264.97</course>
  <speed>0.12</speed>
  <fix>3d</fix>
</trkpt>
<trkpt lat="33.8106121" lon="-118.393578">
  <ele>-0.484</ele>
  <time>2026-09-01T01:14:45Z</time>
  <course>145.32</course>
  <speed>0.13152946437965907</speed>
  <fix>3d</fix>
</trkpt>
<trkpt lat="33.8106122" lon="-118.3935774">
  <ele>0.09</ele>
  <time>2026-09-01T01:14:45Z</time>
  <course>264.97</course>
  <speed>0.12</speed>
  <fix>3d</fix>
</trkpt>
<trkpt lat="33.8106121" lon="-118.3935782">
  <ele>-0.555</ele>
  <time>2026-09-01T01:14:45Z</time>
  <course>145.87</course>
  <speed>0.13152946437965907</speed>
  <fix>3d</fix>
</trkpt>
<trkpt lat="33.8106122" lon="-118.3935777">
  <ele>0.0</ele>
  <time>2026-09-01T01:14:45Z</time>
  <course>266.76</course>
  <speed>0.12</speed>
  <fix>3d</fix>
</trkpt>
<trkpt lat="33.8106121" lon="-118.3935783">
  <ele>-0.607</ele>
  <time>2026-09-01T01:14:45Z</time>
  <course>146.31</course>
  <speed>0.12041594578792296</speed>
  <fix>3d</fix>
</trkpt>
<trkpt lat="33.8106122" lon="-118.3935777">
  <ele>0.0</ele>
  <time>2026-09-01T01:14:45Z</time>
  <course>266.76</course>
  <speed>0.12</speed>
  <fix>3d</fix>
</trkpt>
<trkpt lat="33.8106121" lon="-118.3935784">
  <ele>-0.647</ele>
  <time>2026-09-01T01:14:45Z</time>
  <course>146.68</course>
  <speed>0.12041594578792296</speed>
  <fix>3d</fix>
</trkpt>
<trkpt lat="33.8106122" lon="-118.393578">
  <ele>-0.14</ele>
  <time>2026-09-01T01:14:45Z</time>
  <course>268.28</course>
  <speed>0.11</speed>
  <fix>3d</fix>
</trkpt>
<trkpt lat="33.8106121" lon="-118.3935785">
  <ele>-0.68</ele>
  <time>2026-09-01T01:14:45Z</time>
  <course>146.99</course>
  <speed>0.12041594578792296</speed>
  <fix>3d</fix>
</trkpt>
<trkpt lat="33.8106122" lon="-118.393578">
  <ele>-0.14</ele>
  <time>2026-09-01T01:14:45Z</time>
  <course>268.28</course>
  <speed>0.11</speed>
  <fix>3d</fix>
</trkpt>
<trkpt lat="33.8106121" lon="-118.3935786">
  <ele>-0.707</ele>
  <time>2026-09-01T01:14:45Z</time>
  <course>147.27</course>
  <speed>0.11045361017187261</speed>
  <fix>3d</fix>
</trkpt>
<trkpt lat="33.8106122" lon="-118.3935782">
  <ele>-0.22</ele>
  <time>2026-09-01T01:14:45Z</time>
  <course>269.6</course>
  <speed>0.1</speed>
  <fix>3d</fix>
</trkpt>
<trkpt lat="33.8106121" lon="-118.3935787">
  <ele>-0.728</ele>
  <time>2026-09-01T01:14:45Z</time>
  <course>147.51</course>
  <speed>0.11045361017187261</speed>
  <fix>3d</fix>
</trkpt>
<trkpt lat="33.8106122" lon="-118.3935782">
  <ele>-0.22</ele>
  <time>2026-09-01T01:14:45Z</time>
  <course>269.6</course>
  <speed>0.1</speed>
  <fix>3d</fix>
</trkpt>
<trkpt lat="33.8106121" lon="-118.3935788">
  <ele>-0.745</ele>
  <time>2026-09-01T01:14:45Z</time>
  <course>147.73</course>
  <speed>0.11045361017187261</speed>
  <fix>3d</fix>
</trkpt>
<trkpt lat="33.8106122" lon="-118.3935784">
  <ele>-0.27</ele>
  <time>2026-09-01T01:14:45Z</time>
  <course>270.81</course>
  <speed>0.09</speed>
  <fix>3d</fix>
</trkpt>
<trkpt lat="33.8106121" lon="-118.3935789">
  <ele>-0.76</ele>
  <time>2026-09-01T01:14:45Z</time>
  <course>147.93</course>
  <speed>0.1004987562112089</speed>
  <fix>3d</fix>
</trkpt>
<trkpt lat="33.8106122" lon="-118.3935784">
  <ele>-0.27</ele>
  <time>2026-09-01T01:14:45Z</time>
  <course>270.81</course>
  <speed>0.09</speed>
  <fix>3d</fix>
</trkpt>
<trkpt lat="33.8106121" lon="-118.3935789">
  <ele>-0.772</ele>
  <time>2026-09-01T01:14:45Z</time>
  <course>148.11</course>
  <speed>0.1004987562112089</speed>
  <fix>3d</fix>
</trkpt>
<trkpt lat="33.8106122" lon="-118.3935785">
  <ele>-0.31</ele>
  <time>2026-09-01T01:14:45Z</time>
  <course>271.92</course>
  <speed>0.08</speed>
  <fix>3d</fix>
</trkpt>
<trkpt lat="33.8106121" lon="-118.393579">
  <ele>-0.782</ele>
  <time>2026-09-01T01:14:45Z</time>
  <course>148.28</course>
  <speed>0.1004987562112089</speed>
  <fix>3d</fix>
</trkpt>
<trkpt lat="33.8106122" lon="-118.3935785">
  <ele>-0.31</ele>
  <time>2026-09-01T01:14:45Z</time>
  <course>271.92</course>
  <speed>0.08</speed>
  <fix>3d</fix>
</trkpt>
<trkpt lat="33.8106121" lon="-118.3935791">
  <ele>-0.79</ele>
  <time>2026-09-01T01:14:45Z</time>
  <course>148.44</course>
  <speed>0.09055385138137417</speed>
  <fix>3d</fix>
</trkpt>
<trkpt lat="33.8106122" lon="-118.3935788">
  <ele>-0.34</ele>
  <time>2026-09-01T01:14:45Z</time>
  <course>272.91</course>
  <speed>0.08</speed>
  <fix>3d</fix>
</trkpt>
<trkpt lat="33.8106121" lon="-118.3935792">
  <ele>-0.797</ele>
  <time>2026-09-01T01:14:45Z</time>
  <course>148.58</course>
  <speed>0.09055385138137417</speed>
  <fix>3d</fix>
</trkpt>
<trkpt lat="33.8106122" lon="-118.3935788">
  <ele>-0.34</ele>
  <time>2026-09-01T01:14:45Z</time>
  <course>272.91</course>
  <speed>0.08</speed>
  <fix>3d</fix>
</trkpt>
<trkpt lat="33.8106121" lon="-118.3935793">
  <ele>-0.802</ele>
  <time>2026-09-01T01:14:45Z</time>
  <course>148.72</course>
  <speed>0.09055385138137417</speed>
  <fix>3d</fix>
</trkpt>
<trkpt lat="33.8106122" lon="-118.393579">
  <ele>-0.36</ele>
  <time>2026-09-01T01:14:45Z</time>
  <course>273.81</course>
  <speed>0.07</speed>
  <fix>3d</fix>
</trkpt>
<trkpt lat="33.8106121" lon="-118.3935793">
  <ele>-0.806</ele>
  <time>2026-09-01T01:14:45Z</time>
  <course>148.85</course>
  <speed>0.09055385138137417</speed>
  <fix>3d</fix>
</trkpt>
<trkpt lat="33.8106122" lon="-118.393579">
  <ele>-0.36</ele>
  <time>2026-09-01T01:14:45Z</time>
  <course>273.81</course>
  <speed>0.07</speed>
  <fix>3d</fix>
</trkpt>
<trkpt lat="33.8106121" lon="-118.3935794">
  <ele>-0.808</ele>
  <time>2026-09-01T01:14:45Z</time>
  <course>148.97</course>
  <speed>0.09055385138137417</speed>
  <fix>3d</fix>
</trkpt>
<trkpt lat="33.8106122" lon="-118.3935791">
  <ele>-0.37</ele>
  <time>2026-09-01T01:14:45Z</time>
  <course>274.63</course>
  <speed>0.07</speed>
  <fix>3d</fix>
</trkpt>
<trkpt lat="33.8106121" lon="-118.3935795">
  <ele>-0.809</ele>
  <time>2026-09-01T01:14:45Z</time>
  <course>149.08</course>
  <speed>0.09055385138137417</speed>
  <fix>3d</fix>
</trkpt>
<trkpt lat="33.8106122" lon="-118.3935791">
  <ele>-0.37</ele>
  <time>2026-09-01T01:14:45Z</time>
  <course>274.63</course>
  <speed>0.07</speed>
  <fix>3d</fix>
</trkpt>
<trkpt lat="33.8106121" lon="-118.3935796">
  <ele>-0.81</ele>
  <time>2026-09-01T01:14:45Z</time>
  <course>149.19</course>
  <speed>0.08062257748298549</speed>
  <fix>3d</fix>
</trkpt>
<trkpt lat="33.8106122" lon="-118.3935793">
  <ele>-0.38</ele>
  <time>2026-09-01T01:14:45Z</time>
  <course>275.38</course>
  <speed>0.06</speed>
  <fix>3d</fix>
</trkpt>
<trkpt lat="33.8106121" lon="-118.3935796">
  <ele>-0.812</ele>
  <time>2026-09-01T01:14:45Z</time>
  <course>149.29</course>
  <speed>0.08</speed>
  <fix>3d</fix>
</trkpt>
<trkpt lat="33.8106122" lon="-118.3935793">
  <ele>-0.38</ele>
  <time>2026-09-01T01:14:45Z</time>
  <course>275.38</course>
  <speed>0.06</speed>
  <fix>3d</fix>
</trkpt>
<trkpt lat="33.8106121" lon="-118.3935797">
  <ele>-0.814</ele>
  <time>2026-09-01T01:14:45Z</time>
  <course>149.39</course>
  <speed>0.08</speed>
  <fix>3d</fix>
</trkpt>
<trkpt lat="33.8106122" lon="-118.3935794">
  <ele>-0.39</ele>
  <time>2026-09-01T01:14:45Z</time>
  <course>276.08</course>
  <speed>0.06</speed>
  <fix>3d</fix>
</trkpt>
<trkpt lat="33.8106121" lon="-118.3935798">
  <ele>-0.816</ele>
  <time>2026-09-01T01:14:45Z</time>
  <course>149.49</course>
  <speed>0.08</speed>
  <fix>3d</fix>
</trkpt>
<trkpt lat="33.8106122" lon="-118.3935794">
  <ele>-0.39</ele>
  <time>2026-09-01T01:14:45Z</time>
  <course>276.08</course>
  <speed>0.06</speed>
  <fix>3d</fix>
</trkpt>
<trkpt lat="33.8106121" lon="-118.3935798">
  <ele>-0.817</ele>
  <time>2026-09-01T01:14:45Z</time>
  <course>149.58</course>
  <speed>0.08</speed>
  <fix>3d</fix>
</trkpt>
<trkpt lat="33.8106122" lon="-118.3935795">
  <ele>-0.4</ele>
  <time>2026-09-01T01:14:45Z</time>
  <course>276.72</course>
  <speed>0.06</speed>
  <fix>3d</fix>
</trkpt>
<trkpt lat="33.8106121" lon="-118.3935799">
  <ele>-0.817</ele>
  <time>2026-09-01T01:14:45Z</time>
  <course>149.66</course>
  <speed>0.08</speed>
  <fix>3d</fix>
</trkpt>
<trkpt lat="33.8106122" lon="-118.3935795">
  <ele>-0.4</ele>
  <time>2026-09-01T01:14:45Z</time>
  <course>276.72</course>
  <speed>0.06</speed>
  <fix>3d</fix>
</trkpt>
<trkpt lat="33.8106121" lon="-118.39358">
  <ele>-0.816</ele>
  <time>2026-09-01T01:14:45Z</time>
  <course>149.75</course>
  <speed>0.08</speed>
  <fix>3d</fix>
</trkpt>
<trkpt lat="33.8106122" lon="-118.3935797">
  <ele>-0.4</ele>
  <time>2026-09-01T01:14:45Z</time>
  <course>277.32</course>
  <speed>0.05</speed>
  <fix>3d</fix>
</trkpt>
<trkpt lat="33.8106121" lon="-118.39358">
  <ele>-0.814</ele>
  <time>2026-09-01T01:14:45Z</time>
  <course>149.83</course>
  <speed>0.08</speed>
  <fix>3d</fix>
</trkpt>
<trkpt lat="33.8106122" lon="-118.3935797">
  <ele>-0.4</ele>
  <time>2026-09-01T01:14:45Z</time>
  <course>277.32</course>
  <speed>0.05</speed>
  <fix>3d</fix>
</trkpt>
<trkpt lat="33.8106121" lon="-118.3935801">
  <ele>-0.811</ele>
  <time>2026-09-01T01:14:45Z</time>
  <course>149.9</course>
  <speed>0.07</speed>
  <fix>3d</fix>
</trkpt>
<trkpt lat="33.8106122" lon="-118.3935798">
  <ele>-0.41</ele>
  <time>2026-09-01T01:14:45Z</time>
  <course>277.87</course>
  <speed>0.05</speed>
  <fix>3d</fix>
</trkpt>
<trkpt lat="33.8106121" lon="-118.3935801">
  <ele>-0.808</ele>
  <time>2026-09-01T01:14:45Z</time>
  <course>149.98</course>
  <speed>0.07</speed>
  <fix>3d</fix>
</trkpt>
<trkpt lat="33.8106122" lon="-118.3935798">
  <ele>-0.41</ele>
  <time>2026-09-01T01:14:45Z</time>
  <course>277.87</course>
  <speed>0.05</speed>
  <fix>3d</fix>
</trkpt>
<trkpt lat="33.8106121" lon="-118.3935804">
  <ele>-0.795</ele>
  <time>2026-09-01T01:14:45Z</time>
  <course>150.25</course>
  <speed>0.07</speed>
  <fix>3d</fix>
</trkpt>
<trkpt lat="33.8106122" lon="-118.39358">
  <ele>-0.4</ele>
  <time>2026-09-01T01:14:45Z</time>
  <course>278.86</course>
  <speed>0.05</speed>
  <fix>3d</fix>
</trkpt>
<trkpt lat="33.8106121" lon="-118.3935805">
  <ele>-0.779</ele>
  <time>2026-09-01T01:14:45Z</time>
  <course>150.44</course>
  <speed>0.07</speed>
  <fix>3d</fix>
</trkpt>
<trkpt lat="33.8106122" lon="-118.3935802">
  <ele>-0.38</ele>
  <time>2026-09-01T01:14:45Z</time>
  <course>279.73</course>
  <speed>0.04</speed>
  <fix>3d</fix>
</trkpt>
<trkpt lat="33.8106121" lon="-118.3935806">
  <ele>-0.775</ele>
  <time>2026-09-01T01:14:45Z</time>
  <course>150.49</course>
  <speed>0.07</speed>
  <fix>3d</fix>
</trkpt>
<trkpt lat="33.8106122" lon="-118.3935802">
  <ele>-0.38</ele>
  <time>2026-09-01T01:14:45Z</time>
  <course>279.73</course>
  <speed>0.04</speed>
  <fix>3d</fix>
</trkpt>
<trkpt lat="33.8106121" lon="-118.3935806">
  <ele>-0.769</ele>
  <time>2026-09-01T01:14:45Z</time>
  <course>150.55</course>
  <speed>0.07</speed>
  <fix>3d</fix>
</trkpt>
<trkpt lat="33.8106122" lon="-118.3935803">
  <ele>-0.37</ele>
  <time>2026-09-01T01:14:45Z</time>
  <course>280.13</course>
  <speed>0.04</speed>
  <fix>3d</fix>
</trkpt>
<trkpt lat="33.8106121" lon="-118.3935807">
  <ele>-0.764</ele>
  <time>2026-09-01T01:14:45Z</time>
  <course>150.61</course>
  <speed>0.07</speed>
  <fix>3d</fix>
</trkpt>
<trkpt lat="33.8106122" lon="-118.3935803">
  <ele>-0.37</ele>
  <time>2026-09-01T01:14:45Z</time>
  <course>280.13</course>
  <speed>0.04</speed>
  <fix>3d</fix>
</trkpt>
<trkpt lat="33.8106121" lon="-118.3935807">
  <ele>-0.757</ele>
  <time>2026-09-01T01:14:45Z</time>
  <course>150.66</course>
  <speed>0.07</speed>
  <fix>3d</fix>
</trkpt>
<trkpt lat="33.8106123" lon="-118.3935804">
  <ele>-0.36</ele>
  <time>2026-09-01T01:14:45Z</time>
  <course>280.52</course>
  <speed>0.04</speed>
  <fix>3d</fix>
</trkpt>
<trkpt lat="33.8106121" lon="-118.3935807">
  <ele>-0.75</ele>
  <time>2026-09-01T01:14:45Z</time>
  <course>150.71</course>
  <speed>0.07</speed>
  <fix>3d</fix>
</trkpt>
<trkpt lat="33.8106123" lon="-118.3935804">
  <ele>-0.36</ele>
  <time>2026-09-01T01:14:45Z</time>
  <course>280.52</course>
  <speed>0.04</speed>
  <fix>3d</fix>
</trkpt>
<trkpt lat="33.8106121" lon="-118.3935808">
  <ele>-0.742</ele>
  <time>2026-09-01T01:14:45Z</time>
  <course>150.76</course>
  <speed>0.06</speed>
  <fix>3d</fix>
</trkpt>
<trkpt lat="33.8106123" lon="-118.3935805">
  <ele>-0.35</ele>
  <time>2026-09-01T01:14:45Z</time>
  <course>280.87</course>
  <speed>0.04</speed>
  <fix>3d</fix>
</trkpt>
<trkpt lat="33.8106122" lon="-118.3935808">
  <ele>-0.733</ele>
  <time>2026-09-01T01:14:45Z</time>
  <course>150.81</course>
  <speed>0.06</speed>
  <fix>3d</fix>
</trkpt>
<trkpt lat="33.8106123" lon="-118.3935805">
  <ele>-0.35</ele>
  <time>2026-09-01T01:14:45Z</time>
  <course>280.87</course>
  <speed>0.04</speed>
  <fix>3d</fix>
</trkpt>
<trkpt lat="33.8106122" lon="-118.3935809">
  <ele>-0.725</ele>
  <time>2026-09-01T01:14:45Z</time>
  <course>150.86</course>
  <speed>0.06</speed>
  <fix>3d</fix>
</trkpt>
<trkpt lat="33.8106123" lon="-118.3935806">
  <ele>-0.34</ele>
  <time>2026-09-01T01:14:45Z</time>
  <course>281.2</course>
  <speed>0.04</speed>
  <fix>3d</fix>
</trkpt>
<trkpt lat="33.8106122" lon="-118.3935809">
  <ele>-0.717</ele>
  <time>2026-09-01T01:14:45Z</time>
  <course>150.91</course>
  <speed>0.06</speed>
  <fix>3d</fix>
</trkpt>
<trkpt lat="33.8106123" lon="-118.3935806">
  <ele>-0.34</ele>
  <time>2026-09-01T01:14:45Z</time>
  <course>281.2</course>
  <speed>0.04</speed>
  <fix>3d</fix>
</trkpt>
<trkpt lat="33.8106122" lon="-118.393581">
  <ele>-0.71</ele>
  <time>2026-09-01T01:14:45Z</time>
  <course>150.95</course>
  <speed>0.06</speed>
  <fix>3d</fix>
</trkpt>
<trkpt lat="33.8106123" lon="-118.3935807">
  <ele>-0.32</ele>
  <time>2026-09-01T01:14:45Z</time>
  <course>281.52</course>
  <speed>0.04</speed>
  <fix>3d</fix>
</trkpt>
<trkpt lat="33.8106122" lon="-118.393581">
  <ele>-0.702</ele>
  <time>2026-09-01T01:14:45Z</time>
  <course>151.0</course>
  <speed>0.06</speed>
  <fix>3d</fix>
</trkpt>
<trkpt lat="33.8106123" lon="-118.3935807">
  <ele>-0.32</ele>
  <time>2026-09-01T01:14:45Z</time>
  <course>281.52</course>
  <speed>0.04</speed>
  <fix>3d</fix>
</trkpt>
<trkpt lat="33.8106122" lon="-118.3935811">
  <ele>-0.692</ele>
  <time>2026-09-01T01:14:45Z</time>
  <course>151.04</course>
  <speed>0.06</speed>
  <fix>3d</fix>
</trkpt>
<trkpt lat="33.8106123" lon="-118.3935808">
  <ele>-0.31</ele>
  <time>2026-09-01T01:14:45Z</time>
  <course>281.82</course>
  <speed>0.03</speed>
  <fix>3d</fix>
</trkpt>
<trkpt lat="33.8106122" lon="-118.3935811">
  <ele>-0.682</ele>
  <time>2026-09-01T01:14:45Z</time>
  <course>151.09</course>
  <speed>0.06</speed>
  <fix>3d</fix>
</trkpt>
<trkpt lat="33.8106123" lon="-118.3935808">
  <ele>-0.31</ele>
  <time>2026-09-01T01:14:45Z</time>
  <course>281.82</course>
  <speed>0.03</speed>
  <fix>3d</fix>
</trkpt>
<trkpt lat="33.8106122" lon="-118.3935811">
  <ele>-0.673</ele>
  <time>2026-09-01T01:14:45Z</time>
  <course>151.13</course>
  <speed>0.06</speed>
  <fix>3d</fix>
</trkpt>
<trkpt lat="33.8106123" lon="-118.3935809">
  <ele>-0.29</ele>
  <time>2026-09-01T01:14:45Z</time>
  <course>282.12</course>
  <speed>0.03</speed>
  <fix>3d</fix>
</trkpt>
<trkpt lat="33.8106122" lon="-118.3935812">
  <ele>-0.664</ele>
  <time>2026-09-01T01:14:45Z</time>
  <course>151.17</course>
  <speed>0.06</speed>
  <fix>3d</fix>
</trkpt>
<trkpt lat="33.8106123" lon="-118.3935809">
  <ele>-0.29</ele>
  <time>2026-09-01T01:14:45Z</time>
  <course>282.12</course>
  <speed>0.03</speed>
  <fix>3d</fix>
</trkpt>
<trkpt lat="33.8106122" lon="-118.3935812">
  <ele>-0.654</ele>
  <time>2026-09-01T01:14:45Z</time>
  <course>151.21</course>
  <speed>0.06</speed>
  <fix>3d</fix>
</trkpt>
<trkpt lat="33.8106123" lon="-118.393581">
  <ele>-0.28</ele>
  <time>2026-09-01T01:14:45Z</time>
  <course>282.4</course>
  <speed>0.03</speed>
  <fix>3d</fix>
</trkpt>
<trkpt lat="33.8106122" lon="-118.3935813">
  <ele>-0.645</ele>
  <time>2026-09-01T01:14:45Z</time>
  <course>151.25</course>
  <speed>0.06</speed>
  <fix>3d</fix>
</trkpt>
<trkpt lat="33.8106123" lon="-118.393581">
  <ele>-0.28</ele>
  <time>2026-09-01T01:14:45Z</time>
  <course>282.4</course>
  <speed>0.03</speed>
  <fix>3d</fix>
</trkpt>
<trkpt lat="33.8106122" lon="-118.3935813">
  <ele>-0.636</ele>
  <time>2026-09-01T01:14:45Z</time>
  <course>151.29</course>
  <speed>0.06</speed>
  <fix>3d</fix>
</trkpt>
<trkpt lat="33.8106124" lon="-118.393581">
  <ele>-0.26</ele>
  <time>2026-09-01T01:14:45Z</time>
  <course>282.67</course>
  <speed>0.03</speed>
  <fix>3d</fix>
</trkpt>
<trkpt lat="33.8106123" lon="-118.3935814">
  <ele>-0.627</ele>
  <time>2026-09-01T01:14:45Z</time>
  <course>151.33</course>
  <speed>0.06</speed>
  <fix>3d</fix>
</trkpt>
<trkpt lat="33.8106124" lon="-118.393581">
  <ele>-0.26</ele>
  <time>2026-09-01T01:14:45Z</time>
  <course>282.67</course>
  <speed>0.03</speed>
  <fix>3d</fix>
</trkpt>
<trkpt lat="33.8106123" lon="-118.3935814">
  <ele>-0.617</ele>
  <time>2026-09-01T01:14:45Z</time>
  <course>151.37</course>
  <speed>0.06</speed>
  <fix>3d</fix>
</trkpt>
<trkpt lat="33.8106125" lon="-118.3935811">
  <ele>-0.24</ele>
  <time>2026-09-01T01:14:45Z</time>
  <course>282.91</course>
  <speed>0.03</speed>
  <fix>3d</fix>
</trkpt>
<trkpt lat="33.8106123" lon="-118.3935814">
  <ele>-0.609</ele>
  <time>2026-09-01T01:14:45Z</time>
  <course>151.41</course>
  <speed>0.06</speed>
  <fix>3d</fix>
</trkpt>
<trkpt lat="33.8106125" lon="-118.3935811">
  <ele>-0.24</ele>
  <time>2026-09-01T01:14:45Z</time>
  <course>282.91</course>
  <speed>0.03</speed>
  <fix>3d</fix>
</trkpt>
<trkpt lat="33.8106123" lon="-118.3935815">
  <ele>-0.6</ele>
  <time>2026-09-01T01:14:45Z</time>
  <course>151.45</course>
  <speed>0.06</speed>
  <fix>3d</fix>
</trkpt>
<trkpt lat="33.8106125" lon="-118.3935812">
  <ele>-0.22</ele>
  <time>2026-09-01T01:14:45Z</time>
  <course>283.15</course>
  <speed>0.03</speed>
  <fix>3d</fix>
</trkpt>
<trkpt lat="33.8106123" lon="-118.3935815">
  <ele>-0.592</ele>
  <time>2026-09-01T01:14:45Z</time>
  <course>151.48</course>
  <speed>0.06</speed>
  <fix>3d</fix>
</trkpt>
<trkpt lat="33.8106125" lon="-118.3935812">
  <ele>-0.22</ele>
  <time>2026-09-01T01:14:45Z</time>
  <course>283.15</course>
  <speed>0.03</speed>
  <fix>3d</fix>
</trkpt>
<trkpt lat="33.8106123" lon="-118.3935816">
  <ele>-0.583</ele>
  <time>2026-09-01T01:14:45Z</time>
  <course>151.52</course>
  <speed>0.06</speed>
  <fix>3d</fix>
</trkpt>
<trkpt lat="33.8106125" lon="-118.3935813">
  <ele>-0.2</ele>
  <time>2026-09-01T01:14:45Z</time>
  <course>283.38</course>
  <speed>0.03</speed>
  <fix>3d</fix>
</trkpt>
<trkpt lat="33.8106124" lon="-118.3935816">
  <ele>-0.572</ele>
  <time>2026-09-01T01:14:45Z</time>
  <course>151.55</course>
  <speed>0.06</speed>
  <fix>3d</fix>
</trkpt>
<trkpt lat="33.8106125" lon="-118.3935813">
  <ele>-0.2</ele>
  <time>2026-09-01T01:14:45Z</time>
  <course>283.38</course>
  <speed>0.03</speed>
  <fix>3d</fix>
</trkpt>
<trkpt lat="33.8106124" lon="-118.3935816">
  <ele>-0.563</ele>
  <time>2026-09-01T01:14:45Z</time>
  <course>151.59</course>
  <speed>0.06</speed>
  <fix>3d</fix>
</trkpt>
<trkpt lat="33.8106125" lon="-118.3935813">
  <ele>-0.19</ele>
  <time>2026-09-01T01:14:45Z</time>
  <course>283.61</course>
  <speed>0.03</speed>
  <fix>3d</fix>
</trkpt>
<trkpt lat="33.8106124" lon="-118.3935817">
  <ele>-0.553</ele>
  <time>2026-09-01T01:14:45Z</time>
  <course>151.62</course>
  <speed>0.06</speed>
  <fix>3d</fix>
</trkpt>
<trkpt lat="33.8106125" lon="-118.3935813">
  <ele>-0.19</ele>
  <time>2026-09-01T01:14:45Z</time>
  <course>283.61</course>
  <speed>0.03</speed>
  <fix>3d</fix>
</trkpt>
<trkpt lat="33.8106124" lon="-118.3935817">
  <ele>-0.543</ele>
  <time>2026-09-01T01:14:45Z</time>
  <course>151.65</course>
  <speed>0.06</speed>
  <fix>3d</fix>
</trkpt>
<trkpt lat="33.8106125" lon="-118.3935814">
  <ele>-0.17</ele>
  <time>2026-09-01T01:14:45Z</time>
  <course>283.83</course>
  <speed>0.03</speed>
  <fix>3d</fix>
</trkpt>
<trkpt lat="33.8106124" lon="-118.3935817">
  <ele>-0.532</ele>
  <time>2026-09-01T01:14:45Z</time>
  <course>151.69</course>
  <speed>0.06</speed>
  <fix>3d</fix>
</trkpt>
<trkpt lat="33.8106125" lon="-118.3935814">
  <ele>-0.17</ele>
  <time>2026-09-01T01:14:45Z</time>
  <course>283.83</course>
  <speed>0.03</speed>
  <fix>3d</fix>
</trkpt>
<trkpt lat="33.8106124" lon="-118.3935818">
  <ele>-0.522</ele>
  <time>2026-09-01T01:14:45Z</time>
  <course>151.72</course>
  <speed>0.06</speed>
  <fix>3d</fix>
</trkpt>
<trkpt lat="33.8106125" lon="-118.3935815">
  <ele>-0.15</ele>
  <time>2026-09-01T01:14:45Z</time>
  <course>284.04</course>
  <speed>0.03</speed>
  <fix>3d</fix>
</trkpt>
<trkpt lat="33.8106124" lon="-118.3935818">
  <ele>-0.513</ele>
  <time>2026-09-01T01:14:45Z</time>
  <course>151.75</course>
  <speed>0.06</speed>
  <fix>3d</fix>
</trkpt>
<trkpt lat="33.8106125" lon="-118.3935815">
  <ele>-0.15</ele>
  <time>2026-09-01T01:14:45Z</time>
  <course>284.04</course>
  <speed>0.03</speed>
  <fix>3d</fix>
</trkpt>
<trkpt lat="33.8106125" lon="-118.3935818">
  <ele>-0.504</ele>
  <time>2026-09-01T01:14:45Z</time>
  <course>151.78</course>
  <speed>0.06</speed>
  <fix>3d</fix>
</trkpt>
<trkpt lat="33.8106125" lon="-118.3935815">
  <ele>-0.13</ele>
  <time>2026-09-01T01:14:45Z</time>
  <course>284.23</course>
  <speed>0.03</speed>
  <fix>3d</fix>
</trkpt>
<trkpt lat="33.8106125" lon="-118.3935819">
  <ele>-0.498</ele>
  <time>2026-09-01T01:14:45Z</time>
  <course>151.81</course>
  <speed>0.06</speed>
  <fix>3d</fix>
</trkpt>
<trkpt lat="33.8106125" lon="-118.3935815">
  <ele>-0.13</ele>
  <time>2026-09-01T01:14:45Z</time>
  <course>284.23</course>
  <speed>0.03</speed>
  <fix>3d</fix>
</trkpt>
<trkpt lat="33.8106125" lon="-118.3935819">
  <ele>-0.495</ele>
  <time>2026-09-01T01:14:45Z</time>
  <course>151.84</course>
  <speed>0.06082762530298219</speed>
  <fix>3d</fix>
</trkpt>
<trkpt lat="33.8106126" lon="-118.3935816">
  <ele>-0.11</ele>
  <time>2026-09-01T01:14:45Z</time>
  <course>284.41</course>
  <speed>0.02</speed>
  <fix>3d</fix>
</trkpt>
<trkpt lat="33.8106125" lon="-118.393582">
  <ele>-0.499</ele>
  <time>2026-09-01T01:14:45Z</time>
  <course>151.87</course>
  <speed>0.06082762530298219</speed>
  <fix>3d</fix>
</trkpt>
<trkpt lat="33.8106126" lon="-118.3935816">
  <ele>-0.11</ele>
  <time>2026-09-01T01:14:45Z</time>
  <course>284.41</course>
  <speed>0.02</speed>
  <fix>3d</fix>
</trkpt>
<trkpt lat="33.8106125" lon="-118.393582">
  <ele>-0.507</ele>
  <time>2026-09-01T01:14:45Z</time>
  <course>151.9</course>
  <speed>0.06082762530298219</speed>
  <fix>3d</fix>
</trkpt>
<trkpt lat="33.8106126" lon="-118.3935816">
  <ele>-0.11</ele>
  <time>2026-09-01T01:14:45Z</time>
  <course>284.58</course>
  <speed>0.02</speed>
  <fix>3d</fix>
</trkpt>
<trkpt lat="33.8106125" lon="-118.393582">
  <ele>-0.518</ele>
  <time>2026-09-01T01:14:45Z</time>
  <course>151.93</course>
  <speed>0.06082762530298219</speed>
  <fix>3d</fix>
</trkpt>
<trkpt lat="33.8106126" lon="-118.3935816">
  <ele>-0.11</ele>
  <time>2026-09-01T01:14:45Z</time>
  <course>284.58</course>
  <speed>0.02</speed>
  <fix>3d</fix>
</trkpt>
<trkpt lat="33.8106125" lon="-118.393582">
  <ele>-0.529</ele>
  <time>2026-09-01T01:14:45Z</time>
  <course>151.96</course>
  <speed>0.06082762530298219</speed>
  <fix>3d</fix>
</trkpt>
<trkpt lat="33.8106126" lon="-118.3935817">
  <ele>-0.12</ele>
  <time>2026-09-01T01:14:45Z</time>
  <course>284.75</course>
  <speed>0.02</speed>
  <fix>3d</fix>
</trkpt>
<trkpt lat="33.8106125" lon="-118.3935821">
  <ele>-0.538</ele>
  <time>2026-09-01T01:14:45Z</time>
  <course>151.99</course>
  <speed>0.06082762530298219</speed>
  <fix>3d</fix>
</trkpt>
<trkpt lat="33.8106126" lon="-118.3935817">
  <ele>-0.12</ele>
  <time>2026-09-01T01:14:45Z</time>
  <course>284.75</course>
  <speed>0.02</speed>
  <fix>3d</fix>
</trkpt>
<trkpt lat="33.8106126" lon="-118.3935821">
  <ele>-0.545</ele>
  <time>2026-09-01T01:14:45Z</time>
  <course>152.02</course>
  <speed>0.06082762530298219</speed>
  <fix>3d</fix>
</trkpt>
<trkpt lat="33.8106126" lon="-118.3935818">
  <ele>-0.13</ele>
  <time>2026-09-01T01:14:45Z</time>
  <course>284.93</course>
  <speed>0.02</speed>
  <fix>3d</fix>
</trkpt>
<trkpt lat="33.8106126" lon="-118.3935821">
  <ele>-0.553</ele>
  <time>2026-09-01T01:14:45Z</time>
  <course>152.03</course>
  <speed>0.022360679774997897</speed>
  <fix>3d</fix>
</trkpt>
<trkpt lat="33.8106126" lon="-118.3935818">
  <ele>-0.13</ele>
  <time>2026-09-01T01:14:45Z</time>
  <course>284.93</course>
  <speed>0.02</speed>
  <fix>3d</fix>
</trkpt>
<trkpt lat="33.8106126" lon="-118.3935821">
  <ele>-0.557</ele>
  <time>2026-09-01T01:14:45Z</time>
  <course>151.99</course>
  <speed>0.03605551275463989</speed>
  <fix>3d</fix>
</trkpt>
<trkpt lat="33.8106126" lon="-118.3935818">
  <ele>-0.14</ele>
  <time>2026-09-01T01:14:45Z</time>
  <course>8.83</course>
  <speed>0.01</speed>
  <fix>3d</fix>
</trkpt>
<trkpt lat="33.8106126" lon="-118.393582">
  <ele>-0.552</ele>
  <time>2026-09-01T01:14:45Z</time>
  <course>151.97</course>
  <speed>0.07211102550927978</speed>
  <fix>3d</fix>
</trkpt>
<trkpt lat="33.8106126" lon="-118.3935818">
  <ele>-0.14</ele>
  <time>2026-09-01T01:14:45Z</time>
  <course>8.83</course>
  <speed>0.01</speed>
  <fix>3d</fix>
</trkpt>
<trkpt lat="33.8106127" lon="-118.393582">
  <ele>-0.544</ele>
  <time>2026-09-01T01:14:45Z</time>
  <course>152.0</course>
  <speed>0.10816653826391968</speed>
  <fix>3d</fix>
</trkpt>
<trkpt lat="33.8106126" lon="-118.3935818">
  <ele>-0.14</ele>
  <time>2026-09-01T01:14:45Z</time>
  <course>62.41</course>
  <speed>0.07</speed>
  <fix>3d</fix>
</trkpt>
<trkpt lat="33.8106127" lon="-118.3935818">
  <ele>-0.535</ele>
  <time>2026-09-01T01:14:45Z</time>
  <course>152.04</course>
  <speed>0.09433981132056603</speed>
  <fix>3d</fix>
</trkpt>
<trkpt lat="33.8106126" lon="-118.3935818">
  <ele>-0.14</ele>
  <time>2026-09-01T01:14:45Z</time>
  <course>62.41</course>
  <speed>0.07</speed>
  <fix>3d</fix>
</trkpt>
<trkpt lat="33.8106128" lon="-118.3935817">
  <ele>-0.525</ele>
  <time>2026-09-01T01:14:45Z</time>
  <course>152.09</course>
  <speed>0.08602325267042626</speed>
  <fix>3d</fix>
</trkpt>
<trkpt lat="33.8106127" lon="-118.3935816">
  <ele>-0.13</ele>
  <time>2026-09-01T01:14:45Z</time>
  <course>65.25</course>
  <speed>0.12</speed>
  <fix>3d</fix>
</trkpt>
<trkpt lat="33.8106128" lon="-118.3935816">
  <ele>-0.517</ele>
  <time>2026-09-01T01:14:45Z</time>
  <course>152.14</course>
  <speed>0.07810249675906654</speed>
  <fix>3d</fix>
</trkpt>
<trkpt lat="33.8106127" lon="-118.3935816">
  <ele>-0.13</ele>
  <time>2026-09-01T01:14:45Z</time>
  <course>65.25</course>
  <speed>0.12</speed>
  <fix>3d</fix>
</trkpt>
<trkpt lat="33.8106129" lon="-118.3935815">
  <ele>-0.513</ele>
  <time>2026-09-01T01:14:45Z</time>
  <course>152.18</course>
  <speed>0.07211102550927978</speed>
  <fix>3d</fix>
</trkpt>
<trkpt lat="33.8106128" lon="-118.3935813">
  <ele>-0.11</ele>
  <time>2026-09-01T01:14:45Z</time>
  <course>65.97</course>
  <speed>0.11</speed>
  <fix>3d</fix>
</trkpt>
<trkpt lat="33.8106129" lon="-118.3935814">
  <ele>-0.514</ele>
  <time>2026-09-01T01:14:45Z</time>
  <course>152.23</course>
  <speed>0.06403124237432849</speed>
  <fix>3d</fix>
</trkpt>
<trkpt lat="33.8106128" lon="-118.3935813">
  <ele>-0.11</ele>
  <time>2026-09-01T01:14:45Z</time>
  <course>65.97</course>
  <speed>0.11</speed>
  <fix>3d</fix>
</trkpt>
<trkpt lat="33.8106129" lon="-118.3935813">
  <ele>-0.521</ele>
  <time>2026-09-01T01:14:45Z</time>
  <course>152.27</course>
  <speed>0.06403124237432849</speed>
  <fix>3d</fix>
</trkpt>
<trkpt lat="33.8106128" lon="-118.3935812">
  <ele>-0.11</ele>
  <time>2026-09-01T01:14:45Z</time>
  <course>66.6</course>
  <speed>0.1</speed>
  <fix>3d</fix>
</trkpt>
<trkpt lat="33.810613" lon="-118.3935812">
  <ele>-0.529</ele>
  <time>2026-09-01T01:14:45Z</time>
  <course>152.31</course>
  <speed>0.05</speed>
  <fix>3d</fix>
</trkpt>
<trkpt lat="33.8106128" lon="-118.3935812">
  <ele>-0.11</ele>
  <time>2026-09-01T01:14:45Z</time>
  <course>66.6</course>
  <speed>0.1</speed>
  <fix>3d</fix>
</trkpt>
<trkpt lat="33.810613" lon="-118.3935812">
  <ele>-0.537</ele>
  <time>2026-09-01T01:14:45Z</time>
  <course>152.35</course>
  <speed>0.05</speed>
  <fix>3d</fix>
</trkpt>
<trkpt lat="33.8106129" lon="-118.3935809">
  <ele>-0.12</ele>
  <time>2026-09-01T01:14:45Z</time>
  <course>67.21</course>
  <speed>0.09</speed>
  <fix>3d</fix>
</trkpt>
<trkpt lat="33.810613" lon="-118.3935811">
  <ele>-0.544</ele>
  <time>2026-09-01T01:14:45Z</time>
  <course>152.39</course>
  <speed>0.04242640687119285</speed>
  <fix>3d</fix>
</trkpt>
<trkpt lat="33.8106129" lon="-118.3935809">
  <ele>-0.12</ele>
  <time>2026-09-01T01:14:45Z</time>
  <course>67.21</course>
  <speed>0.09</speed>
  <fix>3d</fix>
</trkpt>
<trkpt lat="33.810613" lon="-118.393581">
  <ele>-0.551</ele>
  <time>2026-09-01T01:14:45Z</time>
  <course>152.43</course>
  <speed>0.04242640687119285</speed>
  <fix>3d</fix>
</trkpt>
<trkpt lat="33.810613" lon="-118.3935808">
  <ele>-0.13</ele>
  <time>2026-09-01T01:14:45Z</time>
  <course>67.81</course>
  <speed>0.08</speed>
  <fix>3d</fix>
</trkpt>
<trkpt lat="33.8106131" lon="-118.3935809">
  <ele>-0.557</ele>
  <time>2026-09-01T01:14:45Z</time>
  <course>152.47</course>
  <speed>0.04242640687119285</speed>
  <fix>3d</fix>
</trkpt>
<trkpt lat="33.810613" lon="-118.3935808">
  <ele>-0.13</ele>
  <time>2026-09-01T01:14:45Z</time>
  <course>67.81</course>
  <speed>0.08</speed>
  <fix>3d</fix>
</trkpt>
<trkpt lat="33.8106131" lon="-118.3935809">
  <ele>-0.561</ele>
  <time>2026-09-01T01:14:45Z</time>
  <course>152.51</course>
  <speed>0.04242640687119285</speed>
  <fix>3d</fix>
</trkpt>
<trkpt lat="33.8106131" lon="-118.3935807">
  <ele>-0.14</ele>
  <time>2026-09-01T01:14:45Z</time>
  <course>68.38</course>
  <speed>0.07</speed>
  <fix>3d</fix>
</trkpt>
<trkpt lat="33.8106131" lon="-118.3935808">
  <ele>-0.565</ele>
  <time>2026-09-01T01:14:45Z</time>
  <course>152.54</course>
  <speed>0.03605551275463989</speed>
  <fix>3d</fix>
</trkpt>
<trkpt lat="33.8106131" lon="-118.3935807">
  <ele>-0.14</ele>
  <time>2026-09-01T01:14:45Z</time>
  <course>68.38</course>
  <speed>0.07</speed>
  <fix>3d</fix>
</trkpt>
<trkpt lat="33.8106131" lon="-118.3935807">
  <ele>-0.567</ele>
  <time>2026-09-01T01:14:45Z</time>
  <course>152.56</course>
  <speed>0.03605551275463989</speed>
  <fix>3d</fix>
</trkpt>
<trkpt lat="33.8106131" lon="-118.3935805">
  <ele>-0.15</ele>
  <time>2026-09-01T01:14:45Z</time>
  <course>68.94</course>
  <speed>0.07</speed>
  <fix>3d</fix>
</trkpt>
<trkpt lat="33.8106132" lon="-118.3935807">
  <ele>-0.569</ele>
  <time>2026-09-01T01:14:45Z</time>
  <course>152.52</course>
  <speed>0.04242640687119285</speed>
  <fix>3d</fix>
</trkpt>
<trkpt lat="33.8106131" lon="-118.3935805">
  <ele>-0.15</ele>
  <time>2026-09-01T01:14:45Z</time>
  <course>68.94</course>
  <speed>0.07</speed>
  <fix>3d</fix>
</trkpt>
<trkpt lat="33.8106132" lon="-118.3935806">
  <ele>-0.57</ele>
  <time>2026-09-01T01:14:45Z</time>
  <course>152.47</course>
  <speed>0.0565685424949238</speed>
  <fix>3d</fix>
</trkpt>
<trkpt lat="33.8106132" lon="-118.3935804">
  <ele>-0.16</ele>
  <time>2026-09-01T01:14:45Z</time>
  <course>68.08</course>
  <speed>0.07</speed>
  <fix>3d</fix>
</trkpt>
<trkpt lat="33.8106132" lon="-118.3935805">
  <ele>-0.57</ele>
  <time>2026-09-01T01:14:45Z</time>
  <course>152.45</course>
  <speed>0.07810249675906654</speed>
  <fix>3d</fix>
</trkpt>
<trkpt lat="33.8106132" lon="-118.3935804">
  <ele>-0.16</ele>
  <time>2026-09-01T01:14:45Z</time>
  <course>68.08</course>
  <speed>0.07</speed>
  <fix>3d</fix>
</trkpt>
<trkpt lat="33.8106133" lon="-118.3935804">
  <ele>-0.568</ele>
  <time>2026-09-01T01:14:45Z</time>
  <course>152.46</course>
  <speed>0.08602325267042626</speed>
  <fix>3d</fix>
</trkpt>
<trkpt lat="33.8106132" lon="-118.3935802">
  <ele>-0.16</ele>
  <time>2026-09-01T01:14:45Z</time>
  <course>66.15</course>
  <speed>0.09</speed>
  <fix>3d</fix>
</trkpt>
<trkpt lat="33.8106133" lon="-118.3935803">
  <ele>-0.565</ele>
  <time>2026-09-01T01:14:45Z</time>
  <course>152.51</course>
  <speed>0.10816653826391968</speed>
  <fix>3d</fix>
</trkpt>
<trkpt lat="33.8106132" lon="-118.3935802">
  <ele>-0.16</ele>
  <time>2026-09-01T01:14:45Z</time>
  <course>66.15</course>
  <speed>0.09</speed>
  <fix>3d</fix>
</trkpt>
<trkpt lat="33.8106134" lon="-118.3935801">
  <ele>-0.563</ele>
  <time>2026-09-01T01:14:45Z</time>
  <course>152.6</course>
  <speed>0.130384048104053</speed>
  <fix>3d</fix>
</trkpt>
<trkpt lat="33.8106133" lon="-118.3935799">
  <ele>-0.16</ele>
  <time>2026-09-01T01:14:45Z</time>
  <course>64.92</course>
  <speed>0.13</speed>
  <fix>3d</fix>
</trkpt>
<trkpt lat="33.8106134" lon="-118.39358">
  <ele>-0.56</ele>
  <time>2026-09-01T01:14:45Z</time>
  <course>152.7</course>
  <speed>0.12206555615733702</speed>
  <fix>3d</fix>
</trkpt>
<trkpt lat="33.8106133" lon="-118.3935799">
  <ele>-0.16</ele>
  <time>2026-09-01T01:14:45Z</time>
  <course>64.92</course>
  <speed>0.13</speed>
  <fix>3d</fix>
</trkpt>
<trkpt lat="33.8106135" lon="-118.3935798">
  <ele>-0.557</ele>
  <time>2026-09-01T01:14:45Z</time>
  <course>152.79</course>
  <speed>0.10816653826391968</speed>
  <fix>3d</fix>
</trkpt>
<trkpt lat="33.8106134" lon="-118.3935797">
  <ele>-0.16</ele>
  <time>2026-09-01T01:14:45Z</time>
  <course>64.55</course>
  <speed>0.14</speed>
  <fix>3d</fix>
</trkpt>
<trkpt lat="33.8106135" lon="-118.3935797">
  <ele>-0.555</ele>
  <time>2026-09-01T01:14:45Z</time>
  <course>152.88</course>
  <speed>0.1</speed>
  <fix>3d</fix>
</trkpt>
<trkpt lat="33.8106134" lon="-118.3935797">
  <ele>-0.16</ele>
  <time>2026-09-01T01:14:45Z</time>
  <course>64.55</course>
  <speed>0.14</speed>
  <fix>3d</fix>
</trkpt>
<trkpt lat="33.8106136" lon="-118.3935796">
  <ele>-0.552</ele>
  <time>2026-09-01T01:14:45Z</time>
  <course>152.96</course>
  <speed>0.08602325267042626</speed>
  <fix>3d</fix>
</trkpt>
<trkpt lat="33.8106135" lon="-118.3935794">
  <ele>-0.16</ele>
  <time>2026-09-01T01:14:45Z</time>
  <course>64.81</course>
  <speed>0.13</speed>
  <fix>3d</fix>
</trkpt>
<trkpt lat="33.8106136" lon="-118.3935795">
  <ele>-0.549</ele>
  <time>2026-09-01T01:14:45Z</time>
  <course>153.04</course>
  <speed>0.07810249675906654</speed>
  <fix>3d</fix>
</trkpt>
<trkpt lat="33.8106135" lon="-118.3935794">
  <ele>-0.16</ele>
  <time>2026-09-01T01:14:45Z</time>
  <course>64.81</course>
  <speed>0.13</speed>
  <fix>3d</fix>
</trkpt>
<trkpt lat="33.8106137" lon="-118.3935794">
  <ele>-0.545</ele>
  <time>2026-09-01T01:14:45Z</time>
  <course>153.12</course>
  <speed>0.07211102550927978</speed>
  <fix>3d</fix>
</trkpt>
<trkpt lat="33.8106136" lon="-118.3935792">
  <ele>-0.15</ele>
  <time>2026-09-01T01:14:45Z</time>
  <course>65.27</course>
  <speed>0.11</speed>
  <fix>3d</fix>
</trkpt>
<trkpt lat="33.8106137" lon="-118.3935793">
  <ele>-0.541</ele>
  <time>2026-09-01T01:14:45Z</time>
  <course>153.2</course>
  <speed>0.06403124237432849</speed>
  <fix>3d</fix>
</trkpt>
<trkpt lat="33.8106136" lon="-118.3935792">
  <ele>-0.15</ele>
  <time>2026-09-01T01:14:45Z</time>
  <course>65.27</course>
  <speed>0.11</speed>
  <fix>3d</fix>
</trkpt>
<trkpt lat="33.8106137" lon="-118.3935792">
  <ele>-0.538</ele>
  <time>2026-09-01T01:14:45Z</time>
  <course>153.27</course>
  <speed>0.06403124237432849</speed>
  <fix>3d</fix>
</trkpt>
<trkpt lat="33.8106137" lon="-118.393579">
  <ele>-0.15</ele>
  <time>2026-09-01T01:14:45Z</time>
  <course>65.71</course>
  <speed>0.1</speed>
  <fix>3d</fix>
</trkpt>
<trkpt lat="33.8106138" lon="-118.3935791">
  <ele>-0.534</ele>
  <time>2026-09-01T01:14:45Z</time>
  <course>153.34</course>
  <speed>0.0565685424949238</speed>
  <fix>3d</fix>
</trkpt>
<trkpt lat="33.8106137" lon="-118.393579">
  <ele>-0.15</ele>
  <time>2026-09-01T01:14:45Z</time>
  <course>65.71</course>
  <speed>0.1</speed>
  <fix>3d</fix>
</trkpt>
<trkpt lat="33.8106138" lon="-118.393579">
  <ele>-0.531</ele>
  <time>2026-09-01T01:14:45Z</time>
  <course>153.41</course>
  <speed>0.0565685424949238</speed>
  <fix>3d</fix>
</trkpt>
<trkpt lat="33.8106138" lon="-118.3935788">
  <ele>-0.14</ele>
  <time>2026-09-01T01:14:45Z</time>
  <course>66.12</course>
  <speed>0.09</speed>
  <fix>3d</fix>
</trkpt>
<trkpt lat="33.8106138" lon="-118.3935789">
  <ele>-0.526</ele>
  <time>2026-09-01T01:14:45Z</time>
  <course>153.47</course>
  <speed>0.05</speed>
  <fix>3d</fix>
</trkpt>
<trkpt lat="33.8106138" lon="-118.3935788">
  <ele>-0.14</ele>
  <time>2026-09-01T01:14:45Z</time>
  <course>66.12</course>
  <speed>0.09</speed>
  <fix>3d</fix>
</trkpt>
<trkpt lat="33.8106139" lon="-118.3935789">
  <ele>-0.52</ele>
  <time>2026-09-01T01:14:45Z</time>
  <course>153.54</course>
  <speed>0.04242640687119285</speed>
  <fix>3d</fix>
</trkpt>
<trkpt lat="33.8106138" lon="-118.3935785">
  <ele>-0.13</ele>
  <time>2026-09-01T01:14:45Z</time>
  <course>66.51</course>
  <speed>0.08</speed>
  <fix>3d</fix>
</trkpt>
<trkpt lat="33.8106139" lon="-118.3935788">
  <ele>-0.515</ele>
  <time>2026-09-01T01:14:45Z</time>
  <course>153.6</course>
  <speed>0.04242640687119285</speed>
  <fix>3d</fix>
</trkpt>
<trkpt lat="33.8106138" lon="-118.3935785">
  <ele>-0.13</ele>
  <time>2026-09-01T01:14:45Z</time>
  <course>66.51</course>
  <speed>0.08</speed>
  <fix>3d</fix>
</trkpt>
<trkpt lat="33.8106139" lon="-118.3935787">
  <ele>-0.51</ele>
  <time>2026-09-01T01:14:45Z</time>
  <course>153.66</course>
  <speed>0.04242640687119285</speed>
  <fix>3d</fix>
</trkpt>
<trkpt lat="33.8106139" lon="-118.3935784">
  <ele>-0.12</ele>
  <time>2026-09-01T01:14:45Z</time>
  <course>66.88</course>
  <speed>0.07</speed>
  <fix>3d</fix>
</trkpt>
<trkpt lat="33.810614" lon="-118.3935786">
  <ele>-0.509</ele>
  <time>2026-09-01T01:14:45Z</time>
  <course>153.72</course>
  <speed>0.04242640687119285</speed>
  <fix>3d</fix>
</trkpt>
<trkpt lat="33.8106139" lon="-118.3935784">
  <ele>-0.12</ele>
  <time>2026-09-01T01:14:45Z</time>
  <course>66.88</course>
  <speed>0.07</speed>
  <fix>3d</fix>
</trkpt>
<trkpt lat="33.810614" lon="-118.3935786">
  <ele>-0.512</ele>
  <time>2026-09-01T01:14:45Z</time>
  <course>153.78</course>
  <speed>0.03605551275463989</speed>
  <fix>3d</fix>
</trkpt>
<trkpt lat="33.8106139" lon="-118.3935783">
  <ele>-0.11</ele>
  <time>2026-09-01T01:14:45Z</time>
  <course>67.24</course>
  <speed>0.06</speed>
  <fix>3d</fix>
</trkpt>
<trkpt lat="33.810614" lon="-118.3935785">
  <ele>-0.518</ele>
  <time>2026-09-01T01:14:45Z</time>
  <course>153.83</course>
  <speed>0.03605551275463989</speed>
  <fix>3d</fix>
</trkpt>
<trkpt lat="33.8106139" lon="-118.3935783">
  <ele>-0.11</ele>
  <time>2026-09-01T01:14:45Z</time>
  <course>67.24</course>
  <speed>0.06</speed>
  <fix>3d</fix>
</trkpt>
<trkpt lat="33.810614" lon="-118.3935784">
  <ele>-0.524</ele>
  <time>2026-09-01T01:14:45Z</time>
  <course>153.89</course>
  <speed>0.0282842712474619</speed>
  <fix>3d</fix>
</trkpt>
<trkpt lat="33.810614" lon="-118.3935781">
  <ele>-0.11</ele>
  <time>2026-09-01T01:14:45Z</time>
  <course>67.58</course>
  <speed>0.06</speed>
  <fix>3d</fix>
</trkpt>
<trkpt lat="33.810614" lon="-118.3935784">
  <ele>-0.529</ele>
  <time>2026-09-01T01:14:45Z</time>
  <course>153.94</course>
  <speed>0.0282842712474619</speed>
  <fix>3d</fix>
</trkpt>
<trkpt lat="33.810614" lon="-118.3935781">
  <ele>-0.11</ele>
  <time>2026-09-01T01:14:45Z</time>
  <course>67.58</course>
  <speed>0.06</speed>
  <fix>3d</fix>
</trkpt>
<trkpt lat="33.8106141" lon="-118.3935783">
  <ele>-0.534</ele>
  <time>2026-09-01T01:14:45Z</time>
  <course>153.99</course>
  <speed>0.0282842712474619</speed>
  <fix>3d</fix>
</trkpt>
<trkpt lat="33.810614" lon="-118.393578">
  <ele>-0.12</ele>
  <time>2026-09-01T01:14:45Z</time>
  <course>67.92</course>
  <speed>0.05</speed>
  <fix>3d</fix>
</trkpt>
<trkpt lat="33.8106141" lon="-118.3935782">
  <ele>-0.538</ele>
  <time>2026-09-01T01:14:45Z</time>
  <course>154.04</course>
  <speed>0.0282842712474619</speed>
  <fix>3d</fix>
</trkpt>
<trkpt lat="33.810614" lon="-118.393578">
  <ele>-0.12</ele>
  <time>2026-09-01T01:14:45Z</time>
  <course>67.92</course>
  <speed>0.05</speed>
  <fix>3d</fix>
</trkpt>
<trkpt lat="33.8106141" lon="-118.3935782">
  <ele>-0.542</ele>
  <time>2026-09-01T01:14:45Z</time>
  <course>154.09</course>
  <speed>0.0282842712474619</speed>
  <fix>3d</fix>
</trkpt>
<trkpt lat="33.810614" lon="-118.3935779">
  <ele>-0.13</ele>
  <time>2026-09-01T01:14:45Z</time>
  <course>68.25</course>
  <speed>0.05</speed>
  <fix>3d</fix>
</trkpt>
<trkpt lat="33.8106141" lon="-118.3935781">
  <ele>-0.546</ele>
  <time>2026-09-01T01:14:45Z</time>
  <course>154.14</course>
  <speed>0.022360679774997897</speed>
  <fix>3d</fix>
</trkpt>
<trkpt lat="33.810614" lon="-118.3935779">
  <ele>-0.13</ele>
  <time>2026-09-01T01:14:45Z</time>
  <course>68.25</course>
  <speed>0.05</speed>
  <fix>3d</fix>
</trkpt>
<trkpt lat="33.8106141" lon="-118.3935781">
  <ele>-0.548</ele>
  <time>2026-09-01T01:14:45Z</time>
  <course>154.18</course>
  <speed>0.022360679774997897</speed>
  <fix>3d</fix>
</trkpt>
<trkpt lat="33.8106141" lon="-118.3935778">
  <ele>-0.14</ele>
  <time>2026-09-01T01:14:45Z</time>
  <course>68.57</course>
  <speed>0.05</speed>
  <fix>3d</fix>
</trkpt>
<trkpt lat="33.8106141" lon="-118.393578">
  <ele>-0.549</ele>
  <time>2026-09-01T01:14:45Z</time>
  <course>154.23</course>
  <speed>0.022360679774997897</speed>
  <fix>3d</fix>
</trkpt>
<trkpt lat="33.8106141" lon="-118.3935778">
  <ele>-0.14</ele>
  <time>2026-09-01T01:14:45Z</time>
  <course>68.57</course>
  <speed>0.05</speed>
  <fix>3d</fix>
</trkpt>
<trkpt lat="33.8106141" lon="-118.393578">
  <ele>-0.549</ele>
  <time>2026-09-01T01:14:45Z</time>
  <course>154.27</course>
  <speed>0.022360679774997897</speed>
  <fix>3d</fix>
</trkpt>
<trkpt lat="33.8106141" lon="-118.3935777">
  <ele>-0.14</ele>
  <time>2026-09-01T01:14:45Z</time>
  <course>68.88</course>
  <speed>0.04</speed>
  <fix>3d</fix>
</trkpt>
<trkpt lat="33.8106142" lon="-118.3935779">
  <ele>-0.549</ele>
  <time>2026-09-01T01:14:45Z</time>
  <course>154.32</course>
  <speed>0.022360679774997897</speed>
  <fix>3d</fix>
</trkpt>
<trkpt lat="33.8106141" lon="-118.3935777">
  <ele>-0.14</ele>
  <time>2026-09-01T01:14:45Z</time>
  <course>68.88</course>
  <speed>0.04</speed>
  <fix>3d</fix>
</trkpt>
<trkpt lat="33.8106142" lon="-118.3935779">
  <ele>-0.548</ele>
  <time>2026-09-01T01:14:45Z</time>
  <course>154.36</course>
  <speed>0.022360679774997897</speed>
  <fix>3d</fix>
</trkpt>
<trkpt lat="33.8106141" lon="-118.3935776">
  <ele>-0.14</ele>
  <time>2026-09-01T01:14:45Z</time>
  <course>69.18</course>
  <speed>0.04</speed>
  <fix>3d</fix>
</trkpt>
<trkpt lat="33.8106142" lon="-118.3935778">
  <ele>-0.547</ele>
  <time>2026-09-01T01:14:45Z</time>
  <course>154.4</course>
  <speed>0.022360679774997897</speed>
  <fix>3d</fix>
</trkpt>
<trkpt lat="33.8106141" lon="-118.3935776">
  <ele>-0.14</ele>
  <time>2026-09-01T01:14:45Z</time>
  <course>69.18</course>
  <speed>0.04</speed>
  <fix>3d</fix>
</trkpt>
<trkpt lat="33.8106142" lon="-118.3935777">
  <ele>-0.534</ele>
  <time>2026-09-01T01:14:45Z</time>
  <course>154.56</course>
  <speed>0.01414213562373095</speed>
  <fix>3d</fix>
</trkpt>
<trkpt lat="33.8106142" lon="-118.3935774">
  <ele>-0.14</ele>
  <time>2026-09-01T01:14:45Z</time>
  <course>69.75</course>
  <speed>0.04</speed>
  <fix>3d</fix>
</trkpt>
<trkpt lat="33.8106143" lon="-118.3935775">
  <ele>-0.518</ele>
  <time>2026-09-01T01:14:45Z</time>
  <course>154.67</course>
  <speed>0.01414213562373095</speed>
  <fix>3d</fix>
</trkpt>
<trkpt lat="33.8106143" lon="-118.3935772">
  <ele>-0.12</ele>
  <time>2026-09-01T01:14:45Z</time>
  <course>70.32</course>
  <speed>0.03</speed>
  <fix>3d</fix>
</trkpt>
<trkpt lat="33.8106143" lon="-118.3935775">
  <ele>-0.514</ele>
  <time>2026-09-01T01:14:45Z</time>
  <course>154.71</course>
  <speed>0.01414213562373095</speed>
  <fix>3d</fix>
</trkpt>
<trkpt lat="33.8106143" lon="-118.3935772">
  <ele>-0.12</ele>
  <time>2026-09-01T01:14:45Z</time>
  <course>70.32</course>
  <speed>0.03</speed>
  <fix>3d</fix>
</trkpt>
<trkpt lat="33.8106143" lon="-118.3935774">
  <ele>-0.516</ele>
  <time>2026-09-01T01:14:45Z</time>
  <course>154.78</course>
  <speed>0.01414213562373095</speed>
  <fix>3d</fix>
</trkpt>
<trkpt lat="33.8106143" lon="-118.3935772">
  <ele>-0.11</ele>
  <time>2026-09-01T01:14:45Z</time>
  <course>70.59</course>
  <speed>0.03</speed>
  <fix>3d</fix>
</trkpt>
<trkpt lat="33.8106143" lon="-118.3935774">
  <ele>-0.519</ele>
  <time>2026-09-01T01:14:45Z</time>
  <course>154.81</course>
  <speed>0.01414213562373095</speed>
  <fix>3d</fix>
</trkpt>
<trkpt lat="33.8106143" lon="-118.3935771">
  <ele>-0.11</ele>
  <time>2026-09-01T01:14:45Z</time>
  <course>70.85</course>
  <speed>0.03</speed>
  <fix>3d</fix>
</trkpt>
<trkpt lat="33.8106143" lon="-118.3935773">
  <ele>-0.524</ele>
  <time>2026-09-01T01:14:45Z</time>
  <course>154.84</course>
  <speed>0.01</speed>
  <fix>3d</fix>
</trkpt>
<trkpt lat="33.8106143" lon="-118.3935771">
  <ele>-0.11</ele>
  <time>2026-09-01T01:14:45Z</time>
  <course>70.85</course>
  <speed>0.03</speed>
  <fix>3d</fix>
</trkpt>
<trkpt lat="33.8106143" lon="-118.3935773">
  <ele>-0.527</ele>
  <time>2026-09-01T01:14:45Z</time>
  <course>154.88</course>
  <speed>0.01</speed>
  <fix>3d</fix>
</trkpt>
<trkpt lat="33.8106144" lon="-118.393577">
  <ele>-0.12</ele>
  <time>2026-09-01T01:14:45Z</time>
  <course>71.1</course>
  <speed>0.03</speed>
  <fix>3d</fix>
</trkpt>
<trkpt lat="33.8106143" lon="-118.3935772">
  <ele>-0.53</ele>
  <time>2026-09-01T01:14:45Z</time>
  <course>154.91</course>
  <speed>0.01</speed>
  <fix>3d</fix>
</trkpt>
<trkpt lat="33.8106144" lon="-118.393577">
  <ele>-0.12</ele>
  <time>2026-09-01T01:14:45Z</time>
  <course>71.1</course>
  <speed>0.03</speed>
  <fix>3d</fix>
</trkpt>
<trkpt lat="33.8106144" lon="-118.3935772">
  <ele>-0.532</ele>
  <time>2026-09-01T01:14:45Z</time>
  <course>154.94</course>
  <speed>0.01</speed>
  <fix>3d</fix>
</trkpt>
<trkpt lat="33.8106144" lon="-118.3935769">
  <ele>-0.12</ele>
  <time>2026-09-01T01:14:45Z</time>
  <course>71.36</course>
  <speed>0.03</speed>
  <fix>3d</fix>
</trkpt>
<trkpt lat="33.8106144" lon="-118.3935772">
  <ele>-0.533</ele>
  <time>2026-09-01T01:14:45Z</time>
  <course>154.97</course>
  <speed>0.01</speed>
  <fix>3d</fix>
</trkpt>
<trkpt lat="33.8106144" lon="-118.3935769">
  <ele>-0.12</ele>
  <time>2026-09-01T01:14:45Z</time>
  <course>71.36</course>
  <speed>0.03</speed>
  <fix>3d</fix>
</trkpt>
<trkpt lat="33.8106144" lon="-118.3935771">
  <ele>-0.534</ele>
  <time>2026-09-01T01:14:45Z</time>
  <course>155.0</course>
  <speed>0.01</speed>
  <fix>3d</fix>
</trkpt>
<trkpt lat="33.8106144" lon="-118.3935769">
  <ele>-0.13</ele>
  <time>2026-09-01T01:14:45Z</time>
  <course>71.61</course>
  <speed>0.03</speed>
  <fix>3d</fix>
</trkpt>
<trkpt lat="33.8106144" lon="-118.3935771">
  <ele>-0.535</ele>
  <time>2026-09-01T01:14:45Z</time>
  <course>155.04</course>
  <speed>0.01</speed>
  <fix>3d</fix>
</trkpt>
<trkpt lat="33.8106144" lon="-118.3935769">
  <ele>-0.13</ele>
  <time>2026-09-01T01:14:45Z</time>
  <course>71.61</course>
  <speed>0.03</speed>
  <fix>3d</fix>
</trkpt>
<trkpt lat="33.8106144" lon="-118.3935771">
  <ele>-0.536</ele>
  <time>2026-09-01T01:14:46Z</time>
  <course>155.07</course>
  <speed>0.01</speed>
  <fix>3d</fix>
</trkpt>
<trkpt lat="33.8106144" lon="-118.3935768">
  <ele>-0.14</ele>
  <time>2026-09-01T01:14:46Z</time>
  <course>71.86</course>
  <speed>0.03</speed>
  <fix>3d</fix>
</trkpt>
<trkpt lat="33.8106144" lon="-118.393577">
  <ele>-0.537</ele>
  <time>2026-09-01T01:14:46Z</time>
  <course>155.1</course>
  <speed>0.01</speed>
  <fix>3d</fix>
</trkpt>
<trkpt lat="33.8106144" lon="-118.3935768">
  <ele>-0.14</ele>
  <time>2026-09-01T01:14:46Z</time>
  <course>71.86</course>
  <speed>0.03</speed>
  <fix>3d</fix>
</trkpt>
<trkpt lat="33.8106144" lon="-118.393577">
  <ele>-0.538</ele>
  <time>2026-09-01T01:14:46Z</time>
  <course>155.12</course>
  <speed>0.01</speed>
  <fix>3d</fix>
</trkpt>
<trkpt lat="33.8106144" lon="-118.3935768">
  <ele>-0.14</ele>
  <time>2026-09-01T01:14:46Z</time>
  <course>72.11</course>
  <speed>0.02</speed>
  <fix>3d</fix>
</trkpt>
<trkpt lat="33.8106144" lon="-118.393577">
  <ele>-0.536</ele>
  <time>2026-09-01T01:14:46Z</time>
  <course>155.15</course>
  <speed>0.01</speed>
  <fix>3d</fix>
</trkpt>
<trkpt lat="33.8106144" lon="-118.3935768">
  <ele>-0.14</ele>
  <time>2026-09-01T01:14:46Z</time>
  <course>72.11</course>
  <speed>0.02</speed>
  <fix>3d</fix>
</trkpt>
<trkpt lat="33.8106144" lon="-118.3935769">
  <ele>-0.534</ele>
  <time>2026-09-01T01:14:46Z</time>
  <course>155.18</course>
  <speed>0.01</speed>
  <fix>3d</fix>
</trkpt>
<trkpt lat="33.8106144" lon="-118.3935767">
  <ele>-0.13</ele>
  <time>2026-09-01T01:14:46Z</time>
  <course>72.35</course>
  <speed>0.02</speed>
  <fix>3d</fix>
</trkpt>
<trkpt lat="33.8106144" lon="-118.3935769">
  <ele>-0.531</ele>
  <time>2026-09-01T01:14:46Z</time>
  <course>155.21</course>
  <speed>0.01</speed>
  <fix>3d</fix>
</trkpt>
<trkpt lat="33.8106144" lon="-118.3935767">
  <ele>-0.13</ele>
  <time>2026-09-01T01:14:46Z</time>
  <course>72.35</course>
  <speed>0.02</speed>
  <fix>3d</fix>
</trkpt>
<trkpt lat="33.8106144" lon="-118.3935769">
  <ele>-0.528</ele>
  <time>2026-09-01T01:14:46Z</time>
  <course>155.24</course>
  <speed>0.01</speed>
  <fix>3d</fix>
</trkpt>
<trkpt lat="33.8106145" lon="-118.3935766">
  <ele>-0.13</ele>
  <time>2026-09-01T01:14:46Z</time>
  <course>72.58</course>
  <speed>0.02</speed>
  <fix>3d</fix>
</trkpt>
<trkpt lat="33.8106145" lon="-118.3935768">
  <ele>-0.524</ele>
  <time>2026-09-01T01:14:46Z</time>
  <course>155.26</course>
  <speed>0.01</speed>
  <fix>3d</fix>
</trkpt>
<trkpt lat="33.8106145" lon="-118.3935766">
  <ele>-0.13</ele>
  <time>2026-09-01T01:14:46Z</time>
  <course>72.58</course>
  <speed>0.02</speed>
  <fix>3d</fix>
</trkpt>
<trkpt lat="33.8106145" lon="-118.3935768">
  <ele>-0.521</ele>
  <time>2026-09-01T01:14:46Z</time>
  <course>155.29</course>
  <speed>0.01</speed>
  <fix>3d</fix>
</trkpt>
<trkpt lat="33.8106145" lon="-118.3935766">
  <ele>-0.12</ele>
  <time>2026-09-01T01:14:46Z</time>
  <course>72.81</course>
  <speed>0.02</speed>
  <fix>3d</fix>
</trkpt>
<trkpt lat="33.8106145" lon="-118.3935768">
  <ele>-0.519</ele>
  <time>2026-09-01T01:14:46Z</time>
  <course>155.32</course>
  <speed>0.01</speed>
  <fix>3d</fix>
</trkpt>
<trkpt lat="33.8106145" lon="-118.3935766">
  <ele>-0.12</ele>
  <time>2026-09-01T01:14:46Z</time>
  <course>72.81</course>
  <speed>0.02</speed>
  <fix>3d</fix>
</trkpt>
<trkpt lat="33.8106145" lon="-118.3935767">
  <ele>-0.52</ele>
  <time>2026-09-01T01:14:46Z</time>
  <course>155.34</course>
  <speed>0.01</speed>
  <fix>3d</fix>
</trkpt>
<trkpt lat="33.8106145" lon="-118.3935765">
  <ele>-0.11</ele>
  <time>2026-09-01T01:14:46Z</time>
  <course>73.04</course>
  <speed>0.02</speed>
  <fix>3d</fix>
</trkpt>
<trkpt lat="33.8106145" lon="-118.3935767">
  <ele>-0.521</ele>
  <time>2026-09-01T01:14:46Z</time>
  <course>155.37</course>
  <speed>0.01</speed>
  <fix>3d</fix>
</trkpt>
<trkpt lat="33.8106145" lon="-118.3935765">
  <ele>-0.11</ele>
  <time>2026-09-01T01:14:46Z</time>
  <course>73.04</course>
  <speed>0.02</speed>
  <fix>3d</fix>
</trkpt>
<trkpt lat="33.8106145" lon="-118.3935767">
  <ele>-0.524</ele>
  <time>2026-09-01T01:14:46Z</time>
  <course>155.39</course>
  <speed>0.01</speed>
  <fix>3d</fix>
</trkpt>
<trkpt lat="33.8106145" lon="-118.3935765">
  <ele>-0.11</ele>
  <time>2026-09-01T01:14:46Z</time>
  <course>73.27</course>
  <speed>0.02</speed>
  <fix>3d</fix>
</trkpt>
<trkpt lat="33.8106145" lon="-118.3935766">
  <ele>-0.527</ele>
  <time>2026-09-01T01:14:46Z</time>
  <course>155.42</course>
  <speed>0.01</speed>
  <fix>3d</fix>
</trkpt>
<trkpt lat="33.8106145" lon="-118.3935765">
  <ele>-0.11</ele>
  <time>2026-09-01T01:14:46Z</time>
  <course>73.27</course>
  <speed>0.02</speed>
  <fix>3d</fix>
</trkpt>
<trkpt lat="33.8106145" lon="-118.3935766">
  <ele>-0.528</ele>
  <time>2026-09-01T01:14:46Z</time>
  <course>155.44</course>
  <speed>0.01</speed>
  <fix>3d</fix>
</trkpt>
<trkpt lat="33.8106145" lon="-118.3935764">
  <ele>-0.12</ele>
  <time>2026-09-01T01:14:46Z</time>
  <course>73.5</course>
  <speed>0.02</speed>
  <fix>3d</fix>
</trkpt>
<trkpt lat="33.8106145" lon="-118.3935766">
  <ele>-0.529</ele>
  <time>2026-09-01T01:14:46Z</time>
  <course>155.47</course>
  <speed>0.01</speed>
  <fix>3d</fix>
</trkpt>
<trkpt lat="33.8106145" lon="-118.3935764">
  <ele>-0.12</ele>
  <time>2026-09-01T01:14:46Z</time>
  <course>73.5</course>
  <speed>0.02</speed>
  <fix>3d</fix>
</trkpt>
<trkpt lat="33.8106145" lon="-118.3935766">
  <ele>-0.53</ele>
  <time>2026-09-01T01:14:46Z</time>
  <course>155.49</course>
  <speed>0.0</speed>
  <fix>3d</fix>
</trkpt>
<trkpt lat="33.8106145" lon="-118.3935764">
  <ele>-0.12</ele>
  <time>2026-09-01T01:14:46Z</time>
  <course>73.73</course>
  <speed>0.02</speed>
  <fix>3d</fix>
</trkpt>
<trkpt lat="33.8106145" lon="-118.3935765">
  <ele>-0.531</ele>
  <time>2026-09-01T01:14:46Z</time>
  <course>155.52</course>
  <speed>0.0</speed>
  <fix>3d</fix>
</trkpt>
<trkpt lat="33.8106145" lon="-118.3935764">
  <ele>-0.12</ele>
  <time>2026-09-01T01:14:46Z</time>
  <course>73.73</course>
  <speed>0.02</speed>
  <fix>3d</fix>
</trkpt>
<trkpt lat="33.8106145" lon="-118.3935765">
  <ele>-0.531</ele>
  <time>2026-09-01T01:14:46Z</time>
  <course>155.54</course>
  <speed>0.0</speed>
  <fix>3d</fix>
</trkpt>
<trkpt lat="33.8106145" lon="-118.3935763">
  <ele>-0.13</ele>
  <time>2026-09-01T01:14:46Z</time>
  <course>73.95</course>
  <speed>0.02</speed>
  <fix>3d</fix>
</trkpt>
<trkpt lat="33.8106145" lon="-118.3935765">
  <ele>-0.53</ele>
  <time>2026-09-01T01:14:46Z</time>
  <course>155.56</course>
  <speed>0.0</speed>
  <fix>3d</fix>
</trkpt>
<trkpt lat="33.8106145" lon="-118.3935763">
  <ele>-0.13</ele>
  <time>2026-09-01T01:14:46Z</time>
  <course>73.95</course>
  <speed>0.02</speed>
  <fix>3d</fix>
</trkpt>
<trkpt lat="33.8106145" lon="-118.3935764">
  <ele>-0.528</ele>
  <time>2026-09-01T01:14:46Z</time>
  <course>155.59</course>
  <speed>0.0</speed>
  <fix>3d</fix>
</trkpt>
<trkpt lat="33.8106146" lon="-118.3935763">
  <ele>-0.13</ele>
  <time>2026-09-01T01:14:46Z</time>
  <course>74.15</course>
  <speed>0.02</speed>
  <fix>3d</fix>
</trkpt>
<trkpt lat="33.8106145" lon="-118.3935764">
  <ele>-0.527</ele>
  <time>2026-09-01T01:14:46Z</time>
  <course>155.61</course>
  <speed>0.0</speed>
  <fix>3d</fix>
</trkpt>
<trkpt lat="33.8106146" lon="-118.3935763">
  <ele>-0.13</ele>
  <time>2026-09-01T01:14:46Z</time>
  <course>74.15</course>
  <speed>0.02</speed>
  <fix>3d</fix>
</trkpt>
<trkpt lat="33.8106145" lon="-118.3935764">
  <ele>-0.525</ele>
  <time>2026-09-01T01:14:46Z</time>
  <course>155.63</course>
  <speed>0.0</speed>
  <fix>3d</fix>
</trkpt>
<trkpt lat="33.8106146" lon="-118.3935762">
  <ele>-0.13</ele>
  <time>2026-09-01T01:14:46Z</time>
  <course>74.36</course>
  <speed>0.02</speed>
  <fix>3d</fix>
</trkpt>
<trkpt lat="33.8106145" lon="-118.3935764">
  <ele>-0.523</ele>
  <time>2026-09-01T01:14:46Z</time>
  <course>155.65</course>
  <speed>0.0</speed>
  <fix>3d</fix>
</trkpt>
<trkpt lat="33.8106146" lon="-118.3935762">
  <ele>-0.13</ele>
  <time>2026-09-01T01:14:46Z</time>
  <course>74.36</course>
  <speed>0.02</speed>
  <fix>3d</fix>
</trkpt>
<trkpt lat="33.8106146" lon="-118.3935763">
  <ele>-0.521</ele>
  <time>2026-09-01T01:14:46Z</time>
  <course>155.68</course>
  <speed>0.0</speed>
  <fix>3d</fix>
</trkpt>
<trkpt lat="33.8106146" lon="-118.3935762">
  <ele>-0.13</ele>
  <time>2026-09-01T01:14:46Z</time>
  <course>74.57</course>
  <speed>0.02</speed>
  <fix>3d</fix>
</trkpt>
<trkpt lat="33.8106146" lon="-118.3935763">
  <ele>-0.518</ele>
  <time>2026-09-01T01:14:46Z</time>
  <course>155.7</course>
  <speed>0.0</speed>
  <fix>3d</fix>
</trkpt>
<trkpt lat="33.8106146" lon="-118.3935762">
  <ele>-0.13</ele>
  <time>2026-09-01T01:14:46Z</time>
  <course>74.57</course>
  <speed>0.02</speed>
  <fix>3d</fix>
</trkpt>
<trkpt lat="33.8106146" lon="-118.3935763">
  <ele>-0.514</ele>
  <time>2026-09-01T01:14:46Z</time>
  <course>155.72</course>
  <speed>0.0</speed>
  <fix>3d</fix>
</trkpt>
<trkpt lat="33.8106146" lon="-118.3935762">
  <ele>-0.12</ele>
  <time>2026-09-01T01:14:46Z</time>
  <course>74.79</course>
  <speed>0.02</speed>
  <fix>3d</fix>
</trkpt>
<trkpt lat="33.8106146" lon="-118.3935763">
  <ele>-0.513</ele>
  <time>2026-09-01T01:14:46Z</time>
  <course>155.74</course>
  <speed>0.0</speed>
  <fix>3d</fix>
</trkpt>
<trkpt lat="33.8106146" lon="-118.3935762">
  <ele>-0.12</ele>
  <time>2026-09-01T01:14:46Z</time>
  <course>74.79</course>
  <speed>0.02</speed>
  <fix>3d</fix>
</trkpt>
<trkpt lat="33.8106146" lon="-118.3935762">
  <ele>-0.515</ele>
  <time>2026-09-01T01:14:46Z</time>
  <course>155.76</course>
  <speed>0.0</speed>
  <fix>3d</fix>
</trkpt>
<trkpt lat="33.8106146" lon="-118.3935761">
  <ele>-0.11</ele>
  <time>2026-09-01T01:14:46Z</time>
  <course>75.0</course>
  <speed>0.02</speed>
  <fix>3d</fix>
</trkpt>
<trkpt lat="33.8106146" lon="-118.3935762">
  <ele>-0.519</ele>
  <time>2026-09-01T01:14:46Z</time>
  <course>155.78</course>
  <speed>0.0</speed>
  <fix>3d</fix>
</trkpt>
<trkpt lat="33.8106146" lon="-118.3935761">
  <ele>-0.11</ele>
  <time>2026-09-01T01:14:46Z</time>
  <course>75.0</course>
  <speed>0.02</speed>
  <fix>3d</fix>
</trkpt>
<trkpt lat="33.8106146" lon="-118.3935762">
  <ele>-0.523</ele>
  <time>2026-09-01T01:14:46Z</time>
  <course>155.8</course>
  <speed>0.0</speed>
  <fix>3d</fix>
</trkpt>
<trkpt lat="33.8106146" lon="-118.3935761">
  <ele>-0.11</ele>
  <time>2026-09-01T01:14:46Z</time>
  <course>75.2</course>
  <speed>0.01</speed>
  <fix>3d</fix>
</trkpt>
<trkpt lat="33.8106146" lon="-118.3935762">
  <ele>-0.525</ele>
  <time>2026-09-01T01:14:46Z</time>
  <course>155.82</course>
  <speed>0.0</speed>
  <fix>3d</fix>
</trkpt>
<trkpt lat="33.8106146" lon="-118.3935761">
  <ele>-0.11</ele>
  <time>2026-09-01T01:14:46Z</time>
  <course>75.2</course>
  <speed>0.01</speed>
  <fix>3d</fix>
</trkpt>
<trkpt lat="33.8106146" lon="-118.3935762">
  <ele>-0.524</ele>
  <time>2026-09-01T01:14:46Z</time>
  <course>155.84</course>
  <speed>0.0</speed>
  <fix>3d</fix>
</trkpt>
<trkpt lat="33.8106146" lon="-118.393576">
  <ele>-0.12</ele>
  <time>2026-09-01T01:14:46Z</time>
  <course>75.4</course>
  <speed>0.01</speed>
  <fix>3d</fix>
</trkpt>
<trkpt lat="33.8106146" lon="-118.3935762">
  <ele>-0.524</ele>
  <time>2026-09-01T01:14:46Z</time>
  <course>155.84</course>
  <speed>0.0</speed>
  <fix>3d</fix>
</trkpt>
<trkpt lat="33.8106146" lon="-118.3935761">
  <ele>-0.523</ele>
  <time>2026-09-01T01:14:46Z</time>
  <course>155.86</course>
  <speed>0.0</speed>
  <fix>3d</fix>
</trkpt>
<trkpt lat="33.8106146" lon="-118.393576">
  <ele>-0.12</ele>
  <time>2026-09-01T01:14:46Z</time>
  <course>75.4</course>
  <speed>0.01</speed>
  <fix>3d</fix>
</trkpt>
<trkpt lat="33.8106146" lon="-118.3935761">
  <ele>-0.523</ele>
  <time>2026-09-01T01:14:46Z</time>
  <course>155.88</course>
  <speed>0.0</speed>
  <fix>3d</fix>
</trkpt>
<trkpt lat="33.8106146" lon="-118.393576">
  <ele>-0.12</ele>
  <time>2026-09-01T01:14:46Z</time>
  <course>75.59</course>
  <speed>0.01</speed>
  <fix>3d</fix>
</trkpt>
<trkpt lat="33.8106146" lon="-118.3935761">
  <ele>-0.537</ele>
  <time>2026-09-01T01:14:46Z</time>
  <course>155.9</course>
  <speed>0.0</speed>
  <fix>3d</fix>
</trkpt>
<trkpt lat="33.8106146" lon="-118.393576">
  <ele>-0.12</ele>
  <time>2026-09-01T01:14:46Z</time>
  <course>75.59</course>
  <speed>0.01</speed>
  <fix>3d</fix>
</trkpt>
<trkpt lat="33.8106146" lon="-118.3935761">
  <ele>-0.573</ele>
  <time>2026-09-01T01:14:46Z</time>
  <course>155.92</course>
  <speed>0.0</speed>
  <fix>3d</fix>
</trkpt>
<trkpt lat="33.8106146" lon="-118.393576">
  <ele>-0.13</ele>
  <time>2026-09-01T01:14:46Z</time>
  <course>75.98</course>
  <speed>0.01</speed>
  <fix>3d</fix>
</trkpt>
<trkpt lat="33.8106146" lon="-118.3935761">
  <ele>-0.574</ele>
  <time>2026-09-01T01:14:46Z</time>
  <course>155.92</course>
  <speed>0.0</speed>
  <fix>3d</fix>
</trkpt>
<trkpt lat="33.8106146" lon="-118.3935761">
  <ele>-0.628</ele>
  <time>2026-09-01T01:14:46Z</time>
  <course>155.94</course>
  <speed>0.0</speed>
  <fix>3d</fix>
</trkpt>
<trkpt lat="33.8106146" lon="-118.393576">
  <ele>-0.13</ele>
  <time>2026-09-01T01:14:46Z</time>
  <course>75.98</course>
  <speed>0.01</speed>
  <fix>3d</fix>
</trkpt>
<trkpt lat="33.8106146" lon="-118.3935761">
  <ele>-0.63</ele>
  <time>2026-09-01T01:14:46Z</time>
  <course>155.94</course>
  <speed>0.0</speed>
  <fix>3d</fix>
</trkpt>
<trkpt lat="33.8106146" lon="-118.393576">
  <ele>-0.697</ele>
  <time>2026-09-01T01:14:46Z</time>
  <course>155.96</course>
  <speed>0.0</speed>
  <fix>3d</fix>
</trkpt>
<trkpt lat="33.8106146" lon="-118.3935759">
  <ele>-0.19</ele>
  <time>2026-09-01T01:14:46Z</time>
  <course>76.49</course>
  <speed>0.01</speed>
  <fix>3d</fix>
</trkpt>
<trkpt lat="33.8106146" lon="-118.393576">
  <ele>-0.73</ele>
  <time>2026-09-01T01:14:46Z</time>
  <course>155.97</course>
  <speed>0.0</speed>
  <fix>3d</fix>
</trkpt>
<trkpt lat="33.8106146" lon="-118.393576">
  <ele>-0.777</ele>
  <time>2026-09-01T01:14:46Z</time>
  <course>155.98</course>
  <speed>0.0</speed>
  <fix>3d</fix>
</trkpt>
<trkpt lat="33.8106146" lon="-118.3935759">
  <ele>-0.19</ele>
  <time>2026-09-01T01:14:46Z</time>
  <course>76.49</course>
  <speed>0.01</speed>
  <fix>3d</fix>
</trkpt>
<trkpt lat="33.8106146" lon="-118.393576">
  <ele>-0.814</ele>
  <time>2026-09-01T01:14:46Z</time>
  <course>155.99</course>
  <speed>0.0</speed>
  <fix>3d</fix>
</trkpt>
<trkpt lat="33.8106146" lon="-118.393576">
  <ele>-0.862</ele>
  <time>2026-09-01T01:14:46Z</time>
  <course>156.0</course>
  <speed>0.0</speed>
  <fix>3d</fix>
</trkpt>
<trkpt lat="33.8106146" lon="-118.3935758">
  <ele>-0.31</ele>
  <time>2026-09-01T01:14:46Z</time>
  <course>76.79</course>
  <speed>0.01</speed>
  <fix>3d</fix>
</trkpt>
<trkpt lat="33.8106146" lon="-118.393576">
  <ele>-0.899</ele>
  <time>2026-09-01T01:14:46Z</time>
  <course>156.0</course>
  <speed>0.0</speed>
  <fix>3d</fix>
</trkpt>
<trkpt lat="33.8106146" lon="-118.393576">
  <ele>-0.952</ele>
  <time>2026-09-01T01:14:46Z</time>
  <course>156.02</course>
  <speed>0.01</speed>
  <fix>3d</fix>
</trkpt>
<trkpt lat="33.8106146" lon="-118.3935758">
  <ele>-0.31</ele>
  <time>2026-09-01T01:14:46Z</time>
  <course>76.79</course>
  <speed>0.01</speed>
  <fix>3d</fix>
</trkpt>
<trkpt lat="33.8106146" lon="-118.393576">
  <ele>-0.983</ele>
  <time>2026-09-01T01:14:46Z</time>
  <course>156.02</course>
  <speed>0.0</speed>
  <fix>3d</fix>
</trkpt>
<trkpt lat="33.8106146" lon="-118.3935759">
  <ele>-1.045</ele>
  <time>2026-09-01T01:14:46Z</time>
  <course>156.03</course>
  <speed>0.01</speed>
  <fix>3d</fix>
</trkpt>
<trkpt lat="33.8106146" lon="-118.3935758">
  <ele>-0.46</ele>
  <time>2026-09-01T01:14:46Z</time>
  <course>76.95</course>
  <speed>0.01</speed>
  <fix>3d</fix>
</trkpt>
<trkpt lat="33.8106146" lon="-118.3935759">
  <ele>-1.076</ele>
  <time>2026-09-01T01:14:46Z</time>
  <course>156.04</course>
  <speed>0.01</speed>
  <fix>3d</fix>
</trkpt>
<trkpt lat="33.8106146" lon="-118.3935759">
  <ele>-1.141</ele>
  <time>2026-09-01T01:14:46Z</time>
  <course>156.05</course>
  <speed>0.01</speed>
  <fix>3d</fix>
</trkpt>
<trkpt lat="33.8106146" lon="-118.3935758">
  <ele>-0.46</ele>
  <time>2026-09-01T01:14:46Z</time>
  <course>76.95</course>
  <speed>0.01</speed>
  <fix>3d</fix>
</trkpt>
<trkpt lat="33.8106146" lon="-118.3935759">
  <ele>-1.172</ele>
  <time>2026-09-01T01:14:46Z</time>
  <course>156.06</course>
  <speed>0.01</speed>
  <fix>3d</fix>
</trkpt>
<trkpt lat="33.8106146" lon="-118.3935759">
  <ele>-1.238</ele>
  <time>2026-09-01T01:14:46Z</time>
  <course>155.08</course>
  <speed>0.01</speed>
  <fix>3d</fix>
</trkpt>
<trkpt lat="33.8106146" lon="-118.3935758">
  <ele>-0.64</ele>
  <time>2026-09-01T01:14:46Z</time>
  <course>77.13</course>
  <speed>0.01</speed>
  <fix>3d</fix>
</trkpt>
<trkpt lat="33.8106146" lon="-118.3935759">
  <ele>-1.24</ele>
  <time>2026-09-01T01:14:46Z</time>
  <course>155.08</course>
  <speed>0.01</speed>
  <fix>3d</fix>
</trkpt>
<trkpt lat="33.8106146" lon="-118.3935759">
  <ele>-1.337</ele>
  <time>2026-09-01T01:14:46Z</time>
  <course>155.1</course>
  <speed>0.01</speed>
  <fix>3d</fix>
</trkpt>
<trkpt lat="33.8106146" lon="-118.3935758">
  <ele>-0.64</ele>
  <time>2026-09-01T01:14:46Z</time>
  <course>77.13</course>
  <speed>0.01</speed>
  <fix>3d</fix>
</trkpt>
<trkpt lat="33.8106146" lon="-118.3935759">
  <ele>-1.368</ele>
  <time>2026-09-01T01:14:46Z</time>
  <course>155.1</course>
  <speed>0.01</speed>
  <fix>3d</fix>
</trkpt>
<trkpt lat="33.8106146" lon="-118.3935759">
  <ele>-1.436</ele>
  <time>2026-09-01T01:14:46Z</time>
  <course>155.11</course>
  <speed>0.01</speed>
  <fix>3d</fix>
</trkpt>
<trkpt lat="33.8106146" lon="-118.3935758">
  <ele>-0.82</ele>
  <time>2026-09-01T01:14:46Z</time>
  <course>77.34</course>
  <speed>0.01</speed>
  <fix>3d</fix>
</trkpt>
<trkpt lat="33.8106146" lon="-118.3935759">
  <ele>-1.438</ele>
  <time>2026-09-01T01:14:46Z</time>
  <course>155.11</course>
  <speed>0.01</speed>
  <fix>3d</fix>
</trkpt>
<trkpt lat="33.8106146" lon="-118.3935758">
  <ele>-1.536</ele>
  <time>2026-09-01T01:14:46Z</time>
  <course>155.13</course>
  <speed>0.01</speed>
  <fix>3d</fix>
</trkpt>
<trkpt lat="33.8106146" lon="-118.3935758">
  <ele>-0.82</ele>
  <time>2026-09-01T01:14:46Z</time>
  <course>77.34</course>
  <speed>0.01</speed>
  <fix>3d</fix>
</trkpt>
<trkpt lat="33.8106146" lon="-118.3935758">
  <ele>-1.537</ele>
  <time>2026-09-01T01:14:46Z</time>
  <course>155.13</course>
  <speed>0.01</speed>
  <fix>3d</fix>
</trkpt>
<trkpt lat="33.8106146" lon="-118.3935758">
  <ele>-1.636</ele>
  <time>2026-09-01T01:14:46Z</time>
  <course>155.15</course>
  <speed>0.01</speed>
  <fix>3d</fix>
</trkpt>
<trkpt lat="33.8106146" lon="-118.3935757">
  <ele>-1.0</ele>
  <time>2026-09-01T01:14:46Z</time>
  <course>77.55</course>
  <speed>0.01</speed>
  <fix>3d</fix>
</trkpt>
<trkpt lat="33.8106146" lon="-118.3935758">
  <ele>-1.637</ele>
  <time>2026-09-01T01:14:46Z</time>
  <course>155.15</course>
  <speed>0.01</speed>
  <fix>3d</fix>
</trkpt>
<trkpt lat="33.8106146" lon="-118.3935758">
  <ele>-1.734</ele>
  <time>2026-09-01T01:14:46Z</time>
  <course>155.17</course>
  <speed>0.01</speed>
  <fix>3d</fix>
</trkpt>
<trkpt lat="33.8106146" lon="-118.3935757">
  <ele>-1.0</ele>
  <time>2026-09-01T01:14:46Z</time>
  <course>77.55</course>
  <speed>0.01</speed>
  <fix>3d</fix>
</trkpt>
<trkpt lat="33.8106146" lon="-118.3935758">
  <ele>-1.736</ele>
  <time>2026-09-01T01:14:46Z</time>
  <course>155.17</course>
  <speed>0.01</speed>
  <fix>3d</fix>
</trkpt>
<trkpt lat="33.8106146" lon="-118.3935758">
  <ele>-1.832</ele>
  <time>2026-09-01T01:14:46Z</time>
  <course>155.19</course>
  <speed>0.01</speed>
  <fix>3d</fix>
</trkpt>
<trkpt lat="33.8106146" lon="-118.3935757">
  <ele>-1.18</ele>
  <time>2026-09-01T01:14:46Z</time>
  <course>77.76</course>
  <speed>0.01</speed>
  <fix>3d</fix>
</trkpt>
<trkpt lat="33.8106146" lon="-118.3935758">
  <ele>-1.834</ele>
  <time>2026-09-01T01:14:46Z</time>
  <course>155.19</course>
  <speed>0.01</speed>
  <fix>3d</fix>
</trkpt>
<trkpt lat="33.8106146" lon="-118.3935758">
  <ele>-1.93</ele>
  <time>2026-09-01T01:14:46Z</time>
  <course>155.21</course>
  <speed>0.01</speed>
  <fix>3d</fix>
</trkpt>
<trkpt lat="33.8106146" lon="-118.3935757">
  <ele>-1.18</ele>
  <time>2026-09-01T01:14:46Z</time>
  <course>77.76</course>
  <speed>0.01</speed>
  <fix>3d</fix>
</trkpt>
<trkpt lat="33.8106146" lon="-118.3935758">
  <ele>-1.935</ele>
  <time>2026-09-01T01:14:46Z</time>
  <course>155.21</course>
  <speed>0.01</speed>
  <fix>3d</fix>
</trkpt>
<trkpt lat="33.8106146" lon="-118.3935758">
  <ele>-2.027</ele>
  <time>2026-09-01T01:14:46Z</time>
  <course>155.23</course>
  <speed>0.01</speed>
  <fix>3d</fix>
</trkpt>
<trkpt lat="33.8106146" lon="-118.3935757">
  <ele>-1.36</ele>
  <time>2026-09-01T01:14:46Z</time>
  <course>77.97</course>
  <speed>0.01</speed>
  <fix>3d</fix>
</trkpt>
<trkpt lat="33.8106146" lon="-118.3935758">
  <ele>-2.029</ele>
  <time>2026-09-01T01:14:46Z</time>
  <course>155.23</course>
  <speed>0.01</speed>
  <fix>3d</fix>
</trkpt>
<trkpt lat="33.8106146" lon="-118.3935757">
  <ele>-2.122</ele>
  <time>2026-09-01T01:14:46Z</time>
  <course>155.24</course>
  <speed>0.01</speed>
  <fix>3d</fix>
</trkpt>
<trkpt lat="33.8106146" lon="-118.3935757">
  <ele>-1.36</ele>
  <time>2026-09-01T01:14:46Z</time>
  <course>77.97</course>
  <speed>0.01</speed>
  <fix>3d</fix>
</trkpt>
<trkpt lat="33.8106146" lon="-118.3935757">
  <ele>-2.125</ele>
  <time>2026-09-01T01:14:46Z</time>
  <course>155.24</course>
  <speed>0.01</speed>
  <fix>3d</fix>
</trkpt>
<trkpt lat="33.8106146" lon="-118.3935757">
  <ele>-2.218</ele>
  <time>2026-09-01T01:14:46Z</time>
  <course>155.26</course>
  <speed>0.01</speed>
  <fix>3d</fix>
</trkpt>
<trkpt lat="33.8106146" lon="-118.3935756">
  <ele>-1.54</ele>
  <time>2026-09-01T01:14:46Z</time>
  <course>78.16</course>
  <speed>0.01</speed>
  <fix>3d</fix>
</trkpt>
<trkpt lat="33.8106146" lon="-118.3935757">
  <ele>-2.22</ele>
  <time>2026-09-01T01:14:46Z</time>
  <course>155.26</course>
  <speed>0.01</speed>
  <fix>3d</fix>
</trkpt>
<trkpt lat="33.8106146" lon="-118.3935757">
  <ele>-2.314</ele>
  <time>2026-09-01T01:14:46Z</time>
  <course>155.28</course>
  <speed>0.01</speed>
  <fix>3d</fix>
</trkpt>
<trkpt lat="33.8106146" lon="-118.3935756">
  <ele>-1.54</ele>
  <time>2026-09-01T01:14:46Z</time>
  <course>78.16</course>
  <speed>0.01</speed>
  <fix>3d</fix>
</trkpt>
<trkpt lat="33.8106146" lon="-118.3935757">
  <ele>-2.346</ele>
  <time>2026-09-01T01:14:46Z</time>
  <course>155.29</course>
  <speed>0.0</speed>
  <fix>3d</fix>
</trkpt>
<trkpt lat="33.8106146" lon="-118.3935757">
  <ele>-2.409</ele>
  <time>2026-09-01T01:14:46Z</time>
  <course>155.31</course>
  <speed>0.0</speed>
  <fix>3d</fix>
</trkpt>
<trkpt lat="33.8106146" lon="-118.3935756">
  <ele>-1.72</ele>
  <time>2026-09-01T01:14:46Z</time>
  <course>78.34</course>
  <speed>0.01</speed>
  <fix>3d</fix>
</trkpt>
<trkpt lat="33.8106146" lon="-118.3935757">
  <ele>-2.438</ele>
  <time>2026-09-01T01:14:46Z</time>
  <course>155.31</course>
  <speed>0.0</speed>
  <fix>3d</fix>
</trkpt>
<trkpt lat="33.8106146" lon="-118.3935757">
  <ele>-2.503</ele>
  <time>2026-09-01T01:14:46Z</time>
  <course>155.33</course>
  <speed>0.0</speed>
  <fix>3d</fix>
</trkpt>
<trkpt lat="33.8106146" lon="-118.3935756">
  <ele>-1.72</ele>
  <time>2026-09-01T01:14:46Z</time>
  <course>78.34</course>
  <speed>0.01</speed>
  <fix>3d</fix>
</trkpt>
<trkpt lat="33.8106146" lon="-118.3935757">
  <ele>-2.532</ele>
  <time>2026-09-01T01:14:46Z</time>
  <course>155.33</course>
  <speed>0.0</speed>
  <fix>3d</fix>
</trkpt>
<trkpt lat="33.8106146" lon="-118.3935757">
  <ele>-2.598</ele>
  <time>2026-09-01T01:14:46Z</time>
  <course>155.35</course>
  <speed>0.0</speed>
  <fix>3d</fix>
</trkpt>
<trkpt lat="33.8106146" lon="-118.3935756">
  <ele>-1.9</ele>
  <time>2026-09-01T01:14:46Z</time>
  <course>78.52</course>
  <speed>0.01</speed>
  <fix>3d</fix>
</trkpt>
<trkpt lat="33.8106146" lon="-118.3935757">
  <ele>-2.63</ele>
  <time>2026-09-01T01:14:46Z</time>
  <course>155.35</course>
  <speed>0.0</speed>
  <fix>3d</fix>
</trkpt>
<trkpt lat="33.8106146" lon="-118.3935756">
  <ele>-2.694</ele>
  <time>2026-09-01T01:14:46Z</time>
  <course>155.37</course>
  <speed>0.0</speed>
  <fix>3d</fix>
</trkpt>
<trkpt lat="33.8106146" lon="-118.3935756">
  <ele>-1.9</ele>
  <time>2026-09-01T01:14:46Z</time>
  <course>78.52</course>
  <speed>0.01</speed>
  <fix>3d</fix>
</trkpt>
<trkpt lat="33.8106146" lon="-118.3935756">
  <ele>-2.697</ele>
  <time>2026-09-01T01:14:46Z</time>
  <course>155.37</course>
  <speed>0.0</speed>
  <fix>3d</fix>
</trkpt>
<trkpt lat="33.8106146" lon="-118.3935756">
  <ele>-2.791</ele>
  <time>2026-09-01T01:14:46Z</time>
  <course>155.39</course>
  <speed>0.0</speed>
  <fix>3d</fix>
</trkpt>
<trkpt lat="33.8106146" lon="-118.3935756">
  <ele>-2.09</ele>
  <time>2026-09-01T01:14:46Z</time>
  <course>78.73</course>
  <speed>0.01</speed>
  <fix>3d</fix>
</trkpt>
<trkpt lat="33.8106146" lon="-118.3935756">
  <ele>-2.824</ele>
  <time>2026-09-01T01:14:46Z</time>
  <course>155.39</course>
  <speed>0.0</speed>
  <fix>3d</fix>
</trkpt>
<trkpt lat="33.8106146" lon="-118.3935756">
  <ele>-2.887</ele>
  <time>2026-09-01T01:14:46Z</time>
  <course>155.4</course>
  <speed>0.0</speed>
  <fix>3d</fix>
</trkpt>
<trkpt lat="33.8106146" lon="-118.3935756">
  <ele>-2.09</ele>
  <time>2026-09-01T01:14:46Z</time>
  <course>78.73</course>
  <speed>0.01</speed>
  <fix>3d</fix>
</trkpt>
<trkpt lat="33.8106146" lon="-118.3935756">
  <ele>-2.916</ele>
  <time>2026-09-01T01:14:46Z</time>
  <course>155.41</course>
  <speed>0.0</speed>
  <fix>3d</fix>
</trkpt>
<trkpt lat="33.8106146" lon="-118.3935756">
  <ele>-2.983</ele>
  <time>2026-09-01T01:14:46Z</time>
  <course>155.42</course>
  <speed>0.0</speed>
  <fix>3d</fix>
</trkpt>
<trkpt lat="33.8106146" lon="-118.3935755">
  <ele>-2.28</ele>
  <time>2026-09-01T01:14:46Z</time>
  <course>78.96</course>
  <speed>0.01</speed>
  <fix>3d</fix>
</trkpt>
<trkpt lat="33.8106146" lon="-118.3935756">
  <ele>-3.012</ele>
  <time>2026-09-01T01:14:46Z</time>
  <course>155.43</course>
  <speed>0.0</speed>
  <fix>3d</fix>
</trkpt>
<trkpt lat="33.8106146" lon="-118.3935756">
  <ele>-3.079</ele>
  <time>2026-09-01T01:14:46Z</time>
  <course>155.44</course>
  <speed>0.0</speed>
  <fix>3d</fix>
</trkpt>
<trkpt lat="33.8106146" lon="-118.3935755">
  <ele>-2.28</ele>
  <time>2026-09-01T01:14:46Z</time>
  <course>78.96</course>
  <speed>0.01</speed>
  <fix>3d</fix>
</trkpt>
<trkpt lat="33.8106146" lon="-118.3935756">
  <ele>-3.106</ele>
  <time>2026-09-01T01:14:46Z</time>
  <course>155.44</course>
  <speed>0.0</speed>
  <fix>3d</fix>
</trkpt>
<trkpt lat="33.8106146" lon="-118.3935756">
  <ele>-3.176</ele>
  <time>2026-09-01T01:14:46Z</time>
  <course>155.46</course>
  <speed>0.0</speed>
  <fix>3d</fix>
</trkpt>
<trkpt lat="33.8106146" lon="-118.3935755">
  <ele>-2.47</ele>
  <time>2026-09-01T01:14:46Z</time>
  <course>79.18</course>
  <speed>0.01</speed>
  <fix>3d</fix>
</trkpt>
<trkpt lat="33.8106146" lon="-118.3935756">
  <ele>-3.203</ele>
  <time>2026-09-01T01:14:46Z</time>
  <course>155.46</course>
  <speed>0.0</speed>
  <fix>3d</fix>
</trkpt>
<trkpt lat="33.8106146" lon="-118.3935756">
  <ele>-3.273</ele>
  <time>2026-09-01T01:14:46Z</time>
  <course>155.48</course>
  <speed>0.0</speed>
  <fix>3d</fix>
</trkpt>
<trkpt lat="33.8106146" lon="-118.3935755">
  <ele>-2.47</ele>
  <time>2026-09-01T01:14:46Z</time>
  <course>79.18</course>
  <speed>0.01</speed>
  <fix>3d</fix>
</trkpt>
<trkpt lat="33.8106146" lon="-118.3935756">
  <ele>-3.303</ele>
  <time>2026-09-01T01:14:46Z</time>
  <course>155.48</course>
  <speed>0.0</speed>
  <fix>3d</fix>
</trkpt>
<trkpt lat="33.8106146" lon="-118.3935755">
  <ele>-3.371</ele>
  <time>2026-09-01T01:14:46Z</time>
  <course>155.49</course>
  <speed>0.0</speed>
  <fix>3d</fix>
</trkpt>
<trkpt lat="33.8106146" lon="-118.3935755">
  <ele>-2.67</ele>
  <time>2026-09-01T01:14:46Z</time>
  <course>79.38</course>
  <speed>0.01</speed>
  <fix>3d</fix>
</trkpt>
<trkpt lat="33.8106146" lon="-118.3935755">
  <ele>-3.4</ele>
  <time>2026-09-01T01:14:46Z</time>
  <course>155.5</course>
  <speed>0.0</speed>
  <fix>3d</fix>
</trkpt>
<trkpt lat="33.8106146" lon="-118.3935755">
  <ele>-3.469</ele>
  <time>2026-09-01T01:14:46Z</time>
  <course>155.51</course>
  <speed>0.0</speed>
  <fix>3d</fix>
</trkpt>
<trkpt lat="33.8106146" lon="-118.3935755">
  <ele>-2.67</ele>
  <time>2026-09-01T01:14:46Z</time>
  <course>79.38</course>
  <speed>0.01</speed>
  <fix>3d</fix>
</trkpt>
<trkpt lat="33.8106146" lon="-118.3935755">
  <ele>-3.497</ele>
  <time>2026-09-01T01:14:46Z</time>
  <course>155.52</course>
  <speed>0.0</speed>
  <fix>3d</fix>
</trkpt>
<trkpt lat="33.8106146" lon="-118.3935755">
  <ele>-3.568</ele>
  <time>2026-09-01T01:14:46Z</time>
  <course>155.53</course>
  <speed>0.0</speed>
  <fix>3d</fix>
</trkpt>
<trkpt lat="33.8106146" lon="-118.3935754">
  <ele>-2.87</ele>
  <time>2026-09-01T01:14:46Z</time>
  <course>79.55</course>
  <speed>0.01</speed>
  <fix>3d</fix>
</trkpt>
<trkpt lat="33.8106146" lon="-118.3935755">
  <ele>-3.595</ele>
  <time>2026-09-01T01:14:46Z</time>
  <course>155.53</course>
  <speed>0.0</speed>
  <fix>3d</fix>
</trkpt>
<trkpt lat="33.8106146" lon="-118.3935755">
  <ele>-3.667</ele>
  <time>2026-09-01T01:14:46Z</time>
  <course>155.55</course>
  <speed>0.0</speed>
  <fix>3d</fix>
</trkpt>
<trkpt lat="33.8106146" lon="-118.3935754">
  <ele>-2.87</ele>
  <time>2026-09-01T01:14:46Z</time>
  <course>79.55</course>
  <speed>0.01</speed>
  <fix>3d</fix>
</trkpt>
<trkpt lat="33.8106146" lon="-118.3935755">
  <ele>-3.698</ele>
  <time>2026-09-01T01:14:46Z</time>
  <course>155.55</course>
  <speed>0.0</speed>
  <fix>3d</fix>
</trkpt>
<trkpt lat="33.8106146" lon="-118.3935755">
  <ele>-3.766</ele>
  <time>2026-09-01T01:14:46Z</time>
  <course>155.56</course>
  <speed>0.0</speed>
  <fix>3d</fix>
</trkpt>
<trkpt lat="33.8106146" lon="-118.3935754">
  <ele>-3.07</ele>
  <time>2026-09-01T01:14:46Z</time>
  <course>79.71</course>
  <speed>0.01</speed>
  <fix>3d</fix>
</trkpt>
<trkpt lat="33.8106146" lon="-118.3935755">
  <ele>-3.768</ele>
  <time>2026-09-01T01:14:46Z</time>
  <course>155.57</course>
  <speed>0.0</speed>
  <fix>3d</fix>
</trkpt>
<trkpt lat="33.8106146" lon="-118.3935755">
  <ele>-3.865</ele>
  <time>2026-09-01T01:14:46Z</time>
  <course>155.58</course>
  <speed>0.0</speed>
  <fix>3d</fix>
</trkpt>
<trkpt lat="33.8106146" lon="-118.3935754">
  <ele>-3.07</ele>
  <time>2026-09-01T01:14:46Z</time>
  <course>79.71</course>
  <speed>0.01</speed>
  <fix>3d</fix>
</trkpt>
<trkpt lat="33.8106146" lon="-118.3935755">
  <ele>-3.897</ele>
  <time>2026-09-01T01:14:46Z</time>
  <course>155.59</course>
  <speed>0.0</speed>
  <fix>3d</fix>
</trkpt>
<trkpt lat="33.8106146" lon="-118.3935755">
  <ele>-3.965</ele>
  <time>2026-09-01T01:14:46Z</time>
  <course>155.6</course>
  <speed>0.0</speed>
  <fix>3d</fix>
</trkpt>
<trkpt lat="33.8106146" lon="-118.3935754">
  <ele>-3.27</ele>
  <time>2026-09-01T01:14:46Z</time>
  <course>79.87</course>
  <speed>0.01</speed>
  <fix>3d</fix>
</trkpt>
<trkpt lat="33.8106146" lon="-118.3935755">
  <ele>-3.995</ele>
  <time>2026-09-01T01:14:46Z</time>
  <course>155.6</course>
  <speed>0.0</speed>
  <fix>3d</fix>
</trkpt>
<trkpt lat="33.8106146" lon="-118.3935755">
  <ele>-4.065</ele>
  <time>2026-09-01T01:14:46Z</time>
  <course>155.62</course>
  <speed>0.0</speed>
  <fix>3d</fix>
</trkpt>
<trkpt lat="33.8106146" lon="-118.3935754">
  <ele>-3.27</ele>
  <time>2026-09-01T01:14:46Z</time>
  <course>79.87</course>
  <speed>0.01</speed>
  <fix>3d</fix>
</trkpt>
<trkpt lat="33.8106146" lon="-118.3935754">
  <ele>-4.095</ele>
  <time>2026-09-01T01:14:46Z</time>
  <course>155.62</course>
  <speed>0.0</speed>
  <fix>3d</fix>
</trkpt>
<trkpt lat="33.8106146" lon="-118.3935754">
  <ele>-4.164</ele>
  <time>2026-09-01T01:14:46Z</time>
  <course>155.63</course>
  <speed>0.0</speed>
  <fix>3d</fix>
</trkpt>
<trkpt lat="33.8106146" lon="-118.3935754">
  <ele>-3.46</ele>
  <time>2026-09-01T01:14:46Z</time>
  <course>80.03</course>
  <speed>0.01</speed>
  <fix>3d</fix>
</trkpt>
<trkpt lat="33.8106146" lon="-118.3935754">
  <ele>-4.263</ele>
  <time>2026-09-01T01:14:46Z</time>
  <course>155.65</course>
  <speed>0.0</speed>
  <fix>3d</fix>
</trkpt>
<trkpt lat="33.8106146" lon="-118.3935754">
  <ele>-3.46</ele>
  <time>2026-09-01T01:14:46Z</time>
  <course>80.03</course>
  <speed>0.01</speed>
  <fix>3d</fix>
</trkpt>
<trkpt lat="33.8106146" lon="-118.3935754">
  <ele>-4.266</ele>
  <time>2026-09-01T01:14:46Z</time>
  <course>155.65</course>
  <speed>0.0</speed>
  <fix>3d</fix>
</trkpt>
<trkpt lat="33.8106146" lon="-118.3935754">
  <ele>-4.362</ele>
  <time>2026-09-01T01:14:46Z</time>
  <course>155.67</course>
  <speed>0.0</speed>
  <fix>3d</fix>
</trkpt>
<trkpt lat="33.8106146" lon="-118.3935753">
  <ele>-3.66</ele>
  <time>2026-09-01T01:14:46Z</time>
  <course>80.21</course>
  <speed>0.01</speed>
  <fix>3d</fix>
</trkpt>
<trkpt lat="33.8106146" lon="-118.3935754">
  <ele>-4.394</ele>
  <time>2026-09-01T01:14:46Z</time>
  <course>155.67</course>
  <speed>0.0</speed>
  <fix>3d</fix>
</trkpt>
<trkpt lat="33.8106146" lon="-118.3935754">
  <ele>-4.46</ele>
  <time>2026-09-01T01:14:46Z</time>
  <course>155.68</course>
  <speed>0.0</speed>
  <fix>3d</fix>
</trkpt>
<trkpt lat="33.8106146" lon="-118.3935753">
  <ele>-3.66</ele>
  <time>2026-09-01T01:14:46Z</time>
  <course>80.21</course>
  <speed>0.01</speed>
  <fix>3d</fix>
</trkpt>
<trkpt lat="33.8106146" lon="-118.3935754">
  <ele>-4.49</ele>
  <time>2026-09-01T01:14:46Z</time>
  <course>155.69</course>
  <speed>0.0</speed>
  <fix>3d</fix>
</trkpt>
<trkpt lat="33.8106146" lon="-118.3935754">
  <ele>-4.559</ele>
  <time>2026-09-01T01:14:46Z</time>
  <course>155.7</course>
  <speed>0.0</speed>
  <fix>3d</fix>
</trkpt>
<trkpt lat="33.8106147" lon="-118.3935753">
  <ele>-3.86</ele>
  <time>2026-09-01T01:14:46Z</time>
  <course>80.4</course>
  <speed>0.01</speed>
  <fix>3d</fix>
</trkpt>
<trkpt lat="33.8106146" lon="-118.3935754">
  <ele>-4.591</ele>
  <time>2026-09-01T01:14:46Z</time>
  <course>155.71</course>
  <speed>0.0</speed>
  <fix>3d</fix>
</trkpt>
<trkpt lat="33.8106146" lon="-118.3935754">
  <ele>-4.658</ele>
  <time>2026-09-01T01:14:46Z</time>
  <course>155.72</course>
  <speed>0.0</speed>
  <fix>3d</fix>
</trkpt>
<trkpt lat="33.8106147" lon="-118.3935753">
  <ele>-3.86</ele>
  <time>2026-09-01T01:14:46Z</time>
  <course>80.4</course>
  <speed>0.01</speed>
  <fix>3d</fix>
</trkpt>
<trkpt lat="33.8106146" lon="-118.3935754">
  <ele>-4.692</ele>
  <time>2026-09-01T01:14:46Z</time>
  <course>155.72</course>
  <speed>0.0</speed>
  <fix>3d</fix>
</trkpt>
<trkpt lat="33.8106146" lon="-118.3935754">
  <ele>-4.756</ele>
  <time>2026-09-01T01:14:46Z</time>
  <course>155.73</course>
  <speed>0.0</speed>
  <fix>3d</fix>
</trkpt>
<trkpt lat="33.8106147" lon="-118.3935753">
  <ele>-4.06</ele>
  <time>2026-09-01T01:14:46Z</time>
  <course>80.58</course>
  <speed>0.01</speed>
  <fix>3d</fix>
</trkpt>
<trkpt lat="33.8106146" lon="-118.3935753">
  <ele>-4.786</ele>
  <time>2026-09-01T01:14:46Z</time>
  <course>155.74</course>
  <speed>0.01</speed>
  <fix>3d</fix>
</trkpt>
<trkpt lat="33.8106146" lon="-118.3935753">
  <ele>-4.856</ele>
  <time>2026-09-01T01:14:46Z</time>
  <course>155.75</course>
  <speed>0.01</speed>
  <fix>3d</fix>
</trkpt>
<trkpt lat="33.8106147" lon="-118.3935753">
  <ele>-4.06</ele>
  <time>2026-09-01T01:14:46Z</time>
  <course>80.58</course>
  <speed>0.01</speed>
  <fix>3d</fix>
</trkpt>
<trkpt lat="33.8106146" lon="-118.3935753">
  <ele>-4.858</ele>
  <time>2026-09-01T01:14:46Z</time>
  <course>155.75</course>
  <speed>0.01</speed>
  <fix>3d</fix>
</trkpt>
<trkpt lat="33.8106146" lon="-118.3935753">
  <ele>-4.956</ele>
  <time>2026-09-01T01:14:46Z</time>
  <course>155.77</course>
  <speed>0.01</speed>
  <fix>3d</fix>
</trkpt>
<trkpt lat="33.8106147" lon="-118.3935753">
  <ele>-4.25</ele>
  <time>2026-09-01T01:14:46Z</time>
  <course>80.74</course>
  <speed>0.01</speed>
  <fix>3d</fix>
</trkpt>
<trkpt lat="33.8106146" lon="-118.3935753">
  <ele>-4.989</ele>
  <time>2026-09-01T01:14:46Z</time>
  <course>155.77</course>
  <speed>0.01</speed>
  <fix>3d</fix>
</trkpt>
<trkpt lat="33.8106146" lon="-118.3935753">
  <ele>-5.056</ele>
  <time>2026-09-01T01:14:46Z</time>
  <course>155.78</course>
  <speed>0.01</speed>
  <fix>3d</fix>
</trkpt>
<trkpt lat="33.8106147" lon="-118.3935753">
  <ele>-4.25</ele>
  <time>2026-09-01T01:14:46Z</time>
  <course>80.74</course>
  <speed>0.01</speed>
  <fix>3d</fix>
</trkpt>
<trkpt lat="33.8106146" lon="-118.3935753">
  <ele>-5.058</ele>
  <time>2026-09-01T01:14:46Z</time>
  <course>155.78</course>
  <speed>0.01</speed>
  <fix>3d</fix>
</trkpt>
<trkpt lat="33.8106146" lon="-118.3935753">
  <ele>-5.154</ele>
  <time>2026-09-01T01:14:46Z</time>
  <course>155.8</course>
  <speed>0.01</speed>
  <fix>3d</fix>
</trkpt>
<trkpt lat="33.8106147" lon="-118.3935752">
  <ele>-4.44</ele>
  <time>2026-09-01T01:14:46Z</time>
  <course>80.89</course>
  <speed>0.01</speed>
  <fix>3d</fix>
</trkpt>
<trkpt lat="33.8106146" lon="-118.3935753">
  <ele>-5.248</ele>
  <time>2026-09-01T01:14:46Z</time>
  <course>155.81</course>
  <speed>0.01</speed>
  <fix>3d</fix>
</trkpt>
<trkpt lat="33.8106147" lon="-118.3935752">
  <ele>-4.44</ele>
  <time>2026-09-01T01:14:46Z</time>
  <course>80.89</course>
  <speed>0.01</speed>
  <fix>3d</fix>
</trkpt>
<trkpt lat="33.8106146" lon="-118.3935753">
  <ele>-5.33</ele>
  <time>2026-09-01T01:14:46Z</time>
  <course>155.83</course>
  <speed>0.01</speed>
  <fix>3d</fix>
</trkpt>
<trkpt lat="33.8106147" lon="-118.3935752">
  <ele>-4.63</ele>
  <time>2026-09-01T01:14:46Z</time>
  <course>80.98</course>
  <speed>0.01</speed>
  <fix>3d</fix>
</trkpt>
<trkpt lat="33.8106146" lon="-118.3935753">
  <ele>-5.395</ele>
  <time>2026-09-01T01:14:46Z</time>
  <course>155.84</course>
  <speed>0.01</speed>
  <fix>3d</fix>
</trkpt>
<trkpt lat="33.8106147" lon="-118.3935752">
  <ele>-4.63</ele>
  <time>2026-09-01T01:14:46Z</time>
  <course>80.98</course>
  <speed>0.01</speed>
  <fix>3d</fix>
</trkpt>
<trkpt lat="33.8106146" lon="-118.3935752">
  <ele>-5.444</ele>
  <time>2026-09-01T01:14:46Z</time>
  <course>155.86</course>
  <speed>0.01</speed>
  <fix>3d</fix>
</trkpt>
<trkpt lat="33.8106147" lon="-118.3935752">
  <ele>-4.79</ele>
  <time>2026-09-01T01:14:46Z</time>
  <course>80.83</course>
  <speed>0.01</speed>
  <fix>3d</fix>
</trkpt>
<trkpt lat="33.8106146" lon="-118.3935752">
  <ele>-5.481</ele>
  <time>2026-09-01T01:14:46Z</time>
  <course>155.87</course>
  <speed>0.01</speed>
  <fix>3d</fix>
</trkpt>
<trkpt lat="33.8106147" lon="-118.3935752">
  <ele>-4.79</ele>
  <time>2026-09-01T01:14:46Z</time>
  <course>80.83</course>
  <speed>0.01</speed>
  <fix>3d</fix>
</trkpt>
<trkpt lat="33.8106146" lon="-118.3935752">
  <ele>-5.506</ele>
  <time>2026-09-01T01:14:46Z</time>
  <course>155.89</course>
  <speed>0.01</speed>
  <fix>3d</fix>
</trkpt>
<trkpt lat="33.8106147" lon="-118.3935752">
  <ele>-4.89</ele>
  <time>2026-09-01T01:14:46Z</time>
  <course>80.67</course>
  <speed>0.01</speed>
  <fix>3d</fix>
</trkpt>
<trkpt lat="33.8106146" lon="-118.3935752">
  <ele>-5.521</ele>
  <time>2026-09-01T01:14:46Z</time>
  <course>155.9</course>
  <speed>0.01</speed>
  <fix>3d</fix>
</trkpt>
<trkpt lat="33.8106147" lon="-118.3935752">
  <ele>-4.89</ele>
  <time>2026-09-01T01:14:46Z</time>
  <course>80.67</course>
  <speed>0.01</speed>
  <fix>3d</fix>
</trkpt>
<trkpt lat="33.8106146" lon="-118.3935752">
  <ele>-5.527</ele>
  <time>2026-09-01T01:14:46Z</time>
  <course>155.92</course>
  <speed>0.01</speed>
  <fix>3d</fix>
</trkpt>
<trkpt lat="33.8106147" lon="-118.3935751">
  <ele>-4.95</ele>
  <time>2026-09-01T01:14:46Z</time>
  <course>80.76</course>
  <speed>0.01</speed>
  <fix>3d</fix>
</trkpt>
<trkpt lat="33.8106146" lon="-118.3935752">
  <ele>-5.527</ele>
  <time>2026-09-01T01:14:46Z</time>
  <course>155.93</course>
  <speed>0.01</speed>
  <fix>3d</fix>
</trkpt>
<trkpt lat="33.8106147" lon="-118.3935751">
  <ele>-4.95</ele>
  <time>2026-09-01T01:14:46Z</time>
  <course>80.76</course>
  <speed>0.01</speed>
  <fix>3d</fix>
</trkpt>
<trkpt lat="33.8106146" lon="-118.3935752">
  <ele>-5.522</ele>
  <time>2026-09-01T01:14:46Z</time>
  <course>155.95</course>
  <speed>0.01</speed>
  <fix>3d</fix>
</trkpt>
<trkpt lat="33.8106147" lon="-118.3935751">
  <ele>-4.97</ele>
  <time>2026-09-01T01:14:46Z</time>
  <course>80.97</course>
  <speed>0.01</speed>
  <fix>3d</fix>
</trkpt>
<trkpt lat="33.8106146" lon="-118.3935751">
  <ele>-5.516</ele>
  <time>2026-09-01T01:14:46Z</time>
  <course>155.96</course>
  <speed>0.01</speed>
  <fix>3d</fix>
</trkpt>
<trkpt lat="33.8106147" lon="-118.3935751">
  <ele>-4.97</ele>
  <time>2026-09-01T01:14:46Z</time>
  <course>80.97</course>
  <speed>0.01</speed>
  <fix>3d</fix>
</trkpt>
<trkpt lat="33.8106146" lon="-118.3935751">
  <ele>-5.51</ele>
  <time>2026-09-01T01:14:46Z</time>
  <course>155.98</course>
  <speed>0.01</speed>
  <fix>3d</fix>
</trkpt>
<trkpt lat="33.8106147" lon="-118.3935751">
  <ele>-4.97</ele>
  <time>2026-09-01T01:14:46Z</time>
  <course>81.16</course>
  <speed>0.01</speed>
  <fix>3d</fix>
</trkpt>
<trkpt lat="33.8106146" lon="-118.3935751">
  <ele>-5.505</ele>
  <time>2026-09-01T01:14:46Z</time>
  <course>155.99</course>
  <speed>0.01</speed>
  <fix>3d</fix>
</trkpt>
<trkpt lat="33.8106147" lon="-118.3935751">
  <ele>-4.97</ele>
  <time>2026-09-01T01:14:46Z</time>
  <course>81.16</course>
  <speed>0.01</speed>
  <fix>3d</fix>
</trkpt>
<trkpt lat="33.8106146" lon="-118.3935751">
  <ele>-5.502</ele>
  <time>2026-09-01T01:14:46Z</time>
  <course>156.01</course>
  <speed>0.01</speed>
  <fix>3d</fix>
</trkpt>
<trkpt lat="33.8106147" lon="-118.3935751">
  <ele>-4.97</ele>
  <time>2026-09-01T01:14:46Z</time>
  <course>81.3</course>
  <speed>0.01</speed>
  <fix>3d</fix>
</trkpt>
<trkpt lat="33.8106146" lon="-118.3935751">
  <ele>-5.501</ele>
  <time>2026-09-01T01:14:46Z</time>
  <course>156.02</course>
  <speed>0.01</speed>
  <fix>3d</fix>
</trkpt>
<trkpt lat="33.8106147" lon="-118.3935751">
  <ele>-4.97</ele>
  <time>2026-09-01T01:14:46Z</time>
  <course>81.3</course>
  <speed>0.01</speed>
  <fix>3d</fix>
</trkpt>
<trkpt lat="33.8106146" lon="-118.3935751">
  <ele>-5.501</ele>
  <time>2026-09-01T01:14:46Z</time>
  <course>156.04</course>
  <speed>0.01</speed>
  <fix>3d</fix>
</trkpt>
<trkpt lat="33.8106147" lon="-118.393575">
  <ele>-4.97</ele>
  <time>2026-09-01T01:14:46Z</time>
  <course>81.47</course>
  <speed>0.01</speed>
  <fix>3d</fix>
</trkpt>
<trkpt lat="33.8106146" lon="-118.3935751">
  <ele>-5.502</ele>
  <time>2026-09-01T01:14:46Z</time>
  <course>156.05</course>
  <speed>0.01</speed>
  <fix>3d</fix>
</trkpt>
<trkpt lat="33.8106147" lon="-118.393575">
  <ele>-4.97</ele>
  <time>2026-09-01T01:14:46Z</time>
  <course>81.47</course>
  <speed>0.01</speed>
  <fix>3d</fix>
</trkpt>
<trkpt lat="33.8106146" lon="-118.393575">
  <ele>-5.503</ele>
  <time>2026-09-01T01:14:46Z</time>
  <course>156.06</course>
  <speed>0.01</speed>
  <fix>3d</fix>
</trkpt>
<trkpt lat="33.8106147" lon="-118.393575">
  <ele>-4.97</ele>
  <time>2026-09-01T01:14:46Z</time>
  <course>81.65</course>
  <speed>0.01</speed>
  <fix>3d</fix>
</trkpt>
<trkpt lat="33.8106146" lon="-118.393575">
  <ele>-5.506</ele>
  <time>2026-09-01T01:14:46Z</time>
  <course>156.08</course>
  <speed>0.01</speed>
  <fix>3d</fix>
</trkpt>
<trkpt lat="33.8106147" lon="-118.393575">
  <ele>-4.97</ele>
  <time>2026-09-01T01:14:46Z</time>
  <course>81.65</course>
  <speed>0.01</speed>
  <fix>3d</fix>
</trkpt>
<trkpt lat="33.8106146" lon="-118.393575">
  <ele>-5.508</ele>
  <time>2026-09-01T01:14:46Z</time>
  <course>156.09</course>
  <speed>0.01</speed>
  <fix>3d</fix>
</trkpt>
<trkpt lat="33.8106147" lon="-118.393575">
  <ele>-4.98</ele>
  <time>2026-09-01T01:14:46Z</time>
  <course>81.81</course>
  <speed>0.01</speed>
  <fix>3d</fix>
</trkpt>
<trkpt lat="33.8106146" lon="-118.393575">
  <ele>-5.51</ele>
  <time>2026-09-01T01:14:46Z</time>
  <course>156.11</course>
  <speed>0.01</speed>
  <fix>3d</fix>
</trkpt>
<trkpt lat="33.8106147" lon="-118.393575">
  <ele>-4.98</ele>
  <time>2026-09-01T01:14:46Z</time>
  <course>81.81</course>
  <speed>0.01</speed>
  <fix>3d</fix>
</trkpt>
<trkpt lat="33.8106146" lon="-118.393575">
  <ele>-5.511</ele>
  <time>2026-09-01T01:14:46Z</time>
  <course>156.12</course>
  <speed>0.01</speed>
  <fix>3d</fix>
</trkpt>
<trkpt lat="33.8106147" lon="-118.393575">
  <ele>-4.99</ele>
  <time>2026-09-01T01:14:46Z</time>
  <course>81.96</course>
  <speed>0.01</speed>
  <fix>3d</fix>
</trkpt>
<trkpt lat="33.8106146" lon="-118.393575">
  <ele>-5.512</ele>
  <time>2026-09-01T01:14:46Z</time>
  <course>156.13</course>
  <speed>0.01</speed>
  <fix>3d</fix>
</trkpt>
<trkpt lat="33.8106147" lon="-118.393575">
  <ele>-4.99</ele>
  <time>2026-09-01T01:14:46Z</time>
  <course>81.96</course>
  <speed>0.01</speed>
  <fix>3d</fix>
</trkpt>
<trkpt lat="33.8106146" lon="-118.393575">
  <ele>-5.512</ele>
  <time>2026-09-01T01:14:46Z</time>
  <course>156.15</course>
  <speed>0.01</speed>
  <fix>3d</fix>
</trkpt>
<trkpt lat="33.8106147" lon="-118.3935749">
  <ele>-5.0</ele>
  <time>2026-09-01T01:14:46Z</time>
  <course>82.1</course>
  <speed>0.01</speed>
  <fix>3d</fix>
</trkpt>
<trkpt lat="33.8106146" lon="-118.3935749">
  <ele>-5.513</ele>
  <time>2026-09-01T01:14:46Z</time>
  <course>156.16</course>
  <speed>0.01</speed>
  <fix>3d</fix>
</trkpt>
<trkpt lat="33.8106147" lon="-118.3935749">
  <ele>-5.0</ele>
  <time>2026-09-01T01:14:46Z</time>
  <course>82.1</course>
  <speed>0.01</speed>
  <fix>3d</fix>
</trkpt>
<trkpt lat="33.8106146" lon="-118.3935749">
  <ele>-5.514</ele>
  <time>2026-09-01T01:14:46Z</time>
  <course>156.17</course>
  <speed>0.01</speed>
  <fix>3d</fix>
</trkpt>
<trkpt lat="33.8106147" lon="-118.3935749">
  <ele>-5.0</ele>
  <time>2026-09-01T01:14:46Z</time>
  <course>82.24</course>
  <speed>0.01</speed>
  <fix>3d</fix>
</trkpt>
<trkpt lat="33.8106146" lon="-118.3935749">
  <ele>-5.515</ele>
  <time>2026-09-01T01:14:46Z</time>
  <course>156.19</course>
  <speed>0.01</speed>
  <fix>3d</fix>
</trkpt>
<trkpt lat="33.8106147" lon="-118.3935749">
  <ele>-5.0</ele>
  <time>2026-09-01T01:14:46Z</time>
  <course>82.24</course>
  <speed>0.01</speed>
  <fix>3d</fix>
</trkpt>
<trkpt lat="33.8106146" lon="-118.3935749">
  <ele>-5.515</ele>
  <time>2026-09-01T01:14:46Z</time>
  <course>156.2</course>
  <speed>0.01</speed>
  <fix>3d</fix>
</trkpt>
<trkpt lat="33.8106147" lon="-118.3935749">
  <ele>-5.0</ele>
  <time>2026-09-01T01:14:46Z</time>
  <course>82.37</course>
  <speed>0.01</speed>
  <fix>3d</fix>
</trkpt>
<trkpt lat="33.8106146" lon="-118.3935749">
  <ele>-5.515</ele>
  <time>2026-09-01T01:14:46Z</time>
  <course>156.21</course>
  <speed>0.01</speed>
  <fix>3d</fix>
</trkpt>
<trkpt lat="33.8106147" lon="-118.3935749">
  <ele>-5.0</ele>
  <time>2026-09-01T01:14:46Z</time>
  <course>82.37</course>
  <speed>0.01</speed>
  <fix>3d</fix>
</trkpt>
<trkpt lat="33.8106146" lon="-118.3935749">
  <ele>-5.514</ele>
  <time>2026-09-01T01:14:46Z</time>
  <course>156.23</course>
  <speed>0.01</speed>
  <fix>3d</fix>
</trkpt>
<trkpt lat="33.8106147" lon="-118.3935749">
  <ele>-5.0</ele>
  <time>2026-09-01T01:14:46Z</time>
  <course>82.5</course>
  <speed>0.0</speed>
  <fix>3d</fix>
</trkpt>
<trkpt lat="33.8106146" lon="-118.3935749">
  <ele>-5.514</ele>
  <time>2026-09-01T01:14:46Z</time>
  <course>156.24</course>
  <speed>0.01</speed>
  <fix>3d</fix>
</trkpt>
<trkpt lat="33.8106147" lon="-118.3935749">
  <ele>-5.0</ele>
  <time>2026-09-01T01:14:46Z</time>
  <course>82.5</course>
  <speed>0.0</speed>
  <fix>3d</fix>
</trkpt>
<trkpt lat="33.8106146" lon="-118.3935748">
  <ele>-5.514</ele>
  <time>2026-09-01T01:14:46Z</time>
  <course>156.25</course>
  <speed>0.01</speed>
  <fix>3d</fix>
</trkpt>
<trkpt lat="33.8106147" lon="-118.3935749">
  <ele>-5.0</ele>
  <time>2026-09-01T01:14:46Z</time>
  <course>82.65</course>
  <speed>0.0</speed>
  <fix>3d</fix>
</trkpt>
<trkpt lat="33.8106146" lon="-118.3935748">
  <ele>-5.513</ele>
  <time>2026-09-01T01:14:46Z</time>
  <course>156.27</course>
  <speed>0.01</speed>
  <fix>3d</fix>
</trkpt>
<trkpt lat="33.8106147" lon="-118.3935749">
  <ele>-5.0</ele>
  <time>2026-09-01T01:14:46Z</time>
  <course>82.65</course>
  <speed>0.0</speed>
  <fix>3d</fix>
</trkpt>
<trkpt lat="33.8106146" lon="-118.3935748">
  <ele>-5.512</ele>
  <time>2026-09-01T01:14:46Z</time>
  <course>156.28</course>
  <speed>0.01</speed>
  <fix>3d</fix>
</trkpt>
<trkpt lat="33.8106147" lon="-118.3935748">
  <ele>-5.0</ele>
  <time>2026-09-01T01:14:46Z</time>
  <course>82.8</course>
  <speed>0.0</speed>
  <fix>3d</fix>
</trkpt>
<trkpt lat="33.8106146" lon="-118.3935748">
  <ele>-5.511</ele>
  <time>2026-09-01T01:14:46Z</time>
  <course>156.29</course>
  <speed>0.01</speed>
  <fix>3d</fix>
</trkpt>
<trkpt lat="33.8106147" lon="-118.3935748">
  <ele>-5.0</ele>
  <time>2026-09-01T01:14:46Z</time>
  <course>82.8</course>
  <speed>0.0</speed>
  <fix>3d</fix>
</trkpt>
<trkpt lat="33.8106146" lon="-118.3935748">
  <ele>-5.512</ele>
  <time>2026-09-01T01:14:46Z</time>
  <course>156.3</course>
  <speed>0.01</speed>
  <fix>3d</fix>
</trkpt>
<trkpt lat="33.8106147" lon="-118.3935748">
  <ele>-5.0</ele>
  <time>2026-09-01T01:14:46Z</time>
  <course>82.93</course>
  <speed>0.0</speed>
  <fix>3d</fix>
</trkpt>
<trkpt lat="33.8106146" lon="-118.3935748">
  <ele>-5.512</ele>
  <time>2026-09-01T01:14:46Z</time>
  <course>156.32</course>
  <speed>0.01</speed>
  <fix>3d</fix>
</trkpt>
<trkpt lat="33.8106147" lon="-118.3935748">
  <ele>-5.0</ele>
  <time>2026-09-01T01:14:46Z</time>
  <course>82.93</course>
  <speed>0.0</speed>
  <fix>3d</fix>
</trkpt>
<trkpt lat="33.8106146" lon="-118.3935748">
  <ele>-5.512</ele>
  <time>2026-09-01T01:14:46Z</time>
  <course>156.33</course>
  <speed>0.01</speed>
  <fix>3d</fix>
</trkpt>
<trkpt lat="33.8106147" lon="-118.3935748">
  <ele>-4.99</ele>
  <time>2026-09-01T01:14:46Z</time>
  <course>83.04</course>
  <speed>0.0</speed>
  <fix>3d</fix>
</trkpt>
<trkpt lat="33.8106146" lon="-118.3935748">
  <ele>-5.512</ele>
  <time>2026-09-01T01:14:46Z</time>
  <course>156.34</course>
  <speed>0.01</speed>
  <fix>3d</fix>
</trkpt>
<trkpt lat="33.8106147" lon="-118.3935748">
  <ele>-4.99</ele>
  <time>2026-09-01T01:14:46Z</time>
  <course>83.04</course>
  <speed>0.0</speed>
  <fix>3d</fix>
</trkpt>
<trkpt lat="33.8106146" lon="-118.3935747">
  <ele>-5.512</ele>
  <time>2026-09-01T01:14:46Z</time>
  <course>156.35</course>
  <speed>0.01</speed>
  <fix>3d</fix>
</trkpt>
<trkpt lat="33.8106147" lon="-118.3935748">
  <ele>-4.99</ele>
  <time>2026-09-01T01:14:46Z</time>
  <course>83.15</course>
  <speed>0.0</speed>
  <fix>3d</fix>
</trkpt>
<trkpt lat="33.8106146" lon="-118.3935747">
  <ele>-5.512</ele>
  <time>2026-09-01T01:14:46Z</time>
  <course>156.36</course>
  <speed>0.01</speed>
  <fix>3d</fix>
</trkpt>
<trkpt lat="33.8106147" lon="-118.3935748">
  <ele>-4.99</ele>
  <time>2026-09-01T01:14:46Z</time>
  <course>83.15</course>
  <speed>0.0</speed>
  <fix>3d</fix>
</trkpt>
<trkpt lat="33.8106146" lon="-118.3935747">
  <ele>-5.512</ele>
  <time>2026-09-01T01:14:46Z</time>
  <course>156.38</course>
  <speed>0.01</speed>
  <fix>3d</fix>
</trkpt>
<trkpt lat="33.8106147" lon="-118.3935748">
  <ele>-4.99</ele>
  <time>2026-09-01T01:14:46Z</time>
  <course>83.28</course>
  <speed>0.0</speed>
  <fix>3d</fix>
</trkpt>
<trkpt lat="33.8106146" lon="-118.3935747">
  <ele>-5.511</ele>
  <time>2026-09-01T01:14:46Z</time>
  <course>156.39</course>
  <speed>0.01</speed>
  <fix>3d</fix>
</trkpt>
<trkpt lat="33.8106147" lon="-118.3935748">
  <ele>-4.99</ele>
  <time>2026-09-01T01:14:46Z</time>
  <course>83.28</course>
  <speed>0.0</speed>
  <fix>3d</fix>
</trkpt>
<trkpt lat="33.8106146" lon="-118.3935747">
  <ele>-5.51</ele>
  <time>2026-09-01T01:14:46Z</time>
  <course>156.4</course>
  <speed>0.01</speed>
  <fix>3d</fix>
</trkpt>
<trkpt lat="33.8106147" lon="-118.3935747">
  <ele>-4.99</ele>
  <time>2026-09-01T01:14:46Z</time>
  <course>83.41</course>
  <speed>0.0</speed>
  <fix>3d</fix>
</trkpt>
<trkpt lat="33.8106146" lon="-118.3935747">
  <ele>-5.509</ele>
  <time>2026-09-01T01:14:46Z</time>
  <course>156.41</course>
  <speed>0.01</speed>
  <fix>3d</fix>
</trkpt>
<trkpt lat="33.8106147" lon="-118.3935747">
  <ele>-4.99</ele>
  <time>2026-09-01T01:14:46Z</time>
  <course>83.41</course>
  <speed>0.0</speed>
  <fix>3d</fix>
</trkpt>
<trkpt lat="33.8106146" lon="-118.3935747">
  <ele>-5.508</ele>
  <time>2026-09-01T01:14:46Z</time>
  <course>156.42</course>
  <speed>0.01</speed>
  <fix>3d</fix>
</trkpt>
<trkpt lat="33.8106147" lon="-118.3935746">
  <ele>-4.99</ele>
  <time>2026-09-01T01:14:46Z</time>
  <course>83.56</course>
  <speed>0.0</speed>
  <fix>3d</fix>
</trkpt>
<trkpt lat="33.8106146" lon="-118.3935747">
  <ele>-5.508</ele>
  <time>2026-09-01T01:14:46Z</time>
  <course>156.44</course>
  <speed>0.01</speed>
  <fix>3d</fix>
</trkpt>
<trkpt lat="33.8106147" lon="-118.3935746">
  <ele>-4.99</ele>
  <time>2026-09-01T01:14:46Z</time>
  <course>83.56</course>
  <speed>0.0</speed>
  <fix>3d</fix>
</trkpt>
<trkpt lat="33.8106146" lon="-118.3935746">
  <ele>-5.508</ele>
  <time>2026-09-01T01:14:46Z</time>
  <course>156.45</course>
  <speed>0.01</speed>
  <fix>3d</fix>
</trkpt>
<trkpt lat="33.8106147" lon="-118.3935746">
  <ele>-4.99</ele>
  <time>2026-09-01T01:14:46Z</time>
  <course>83.7</course>
  <speed>0.0</speed>
  <fix>3d</fix>
</trkpt>
<trkpt lat="33.8106146" lon="-118.3935746">
  <ele>-5.508</ele>
  <time>2026-09-01T01:14:46Z</time>
  <course>156.46</course>
  <speed>0.01</speed>
  <fix>3d</fix>
</trkpt>
<trkpt lat="33.8106147" lon="-118.3935746">
  <ele>-4.99</ele>
  <time>2026-09-01T01:14:46Z</time>
  <course>83.7</course>
  <speed>0.0</speed>
  <fix>3d</fix>
</trkpt>
<trkpt lat="33.8106146" lon="-118.3935746">
  <ele>-5.509</ele>
  <time>2026-09-01T01:14:46Z</time>
  <course>156.47</course>
  <speed>0.02</speed>
  <fix>3d</fix>
</trkpt>
<trkpt lat="33.8106147" lon="-118.3935746">
  <ele>-4.99</ele>
  <time>2026-09-01T01:14:46Z</time>
  <course>83.81</course>
  <speed>0.0</speed>
  <fix>3d</fix>
</trkpt>
<trkpt lat="33.8106146" lon="-118.3935746">
  <ele>-5.51</ele>
  <time>2026-09-01T01:14:46Z</time>
  <course>156.48</course>
  <speed>0.02</speed>
  <fix>3d</fix>
</trkpt>
<trkpt lat="33.8106147" lon="-118.3935746">
  <ele>-4.99</ele>
  <time>2026-09-01T01:14:46Z</time>
  <course>83.81</course>
  <speed>0.0</speed>
  <fix>3d</fix>
</trkpt>
<trkpt lat="33.8106146" lon="-118.3935746">
  <ele>-5.51</ele>
  <time>2026-09-01T01:14:46Z</time>
  <course>156.5</course>
  <speed>0.02</speed>
  <fix>3d</fix>
</trkpt>
<trkpt lat="33.8106147" lon="-118.3935746">
  <ele>-4.99</ele>
  <time>2026-09-01T01:14:46Z</time>
  <course>83.92</course>
  <speed>0.0</speed>
  <fix>3d</fix>
</trkpt>
<trkpt lat="33.8106146" lon="-118.3935746">
  <ele>-5.511</ele>
  <time>2026-09-01T01:14:46Z</time>
  <course>156.51</course>
  <speed>0.02</speed>
  <fix>3d</fix>
</trkpt>
<trkpt lat="33.8106147" lon="-118.3935746">
  <ele>-4.99</ele>
  <time>2026-09-01T01:14:46Z</time>
  <course>83.92</course>
  <speed>0.0</speed>
  <fix>3d</fix>
</trkpt>
<trkpt lat="33.8106146" lon="-118.3935745">
  <ele>-5.511</ele>
  <time>2026-09-01T01:14:46Z</time>
  <course>156.52</course>
  <speed>0.02</speed>
  <fix>3d</fix>
</trkpt>
<trkpt lat="33.8106147" lon="-118.3935746">
  <ele>-4.99</ele>
  <time>2026-09-01T01:14:46Z</time>
  <course>84.02</course>
  <speed>0.0</speed>
  <fix>3d</fix>
</trkpt>
<trkpt lat="33.8106146" lon="-118.3935745">
  <ele>-5.511</ele>
  <time>2026-09-01T01:14:46Z</time>
  <course>156.53</course>
  <speed>0.02</speed>
  <fix>3d</fix>
</trkpt>
<trkpt lat="33.8106147" lon="-118.3935746">
  <ele>-4.99</ele>
  <time>2026-09-01T01:14:46Z</time>
  <course>84.02</course>
  <speed>0.0</speed>
  <fix>3d</fix>
</trkpt>
<trkpt lat="33.8106146" lon="-118.3935745">
  <ele>-5.511</ele>
  <time>2026-09-01T01:14:46Z</time>
  <course>156.54</course>
  <speed>0.02</speed>
  <fix>3d</fix>
</trkpt>
<trkpt lat="33.8106147" lon="-118.3935746">
  <ele>-4.99</ele>
  <time>2026-09-01T01:14:46Z</time>
  <course>84.14</course>
  <speed>0.0</speed>
  <fix>3d</fix>
</trkpt>
<trkpt lat="33.8106146" lon="-118.3935745">
  <ele>-5.511</ele>
  <time>2026-09-01T01:14:46Z</time>
  <course>156.55</course>
  <speed>0.02</speed>
  <fix>3d</fix>
</trkpt>
<trkpt lat="33.8106147" lon="-118.3935746">
  <ele>-4.99</ele>
  <time>2026-09-01T01:14:46Z</time>
  <course>84.14</course>
  <speed>0.0</speed>
  <fix>3d</fix>
</trkpt>
<trkpt lat="33.8106146" lon="-118.3935745">
  <ele>-5.511</ele>
  <time>2026-09-01T01:14:46Z</time>
  <course>156.56</course>
  <speed>0.02</speed>
  <fix>3d</fix>
</trkpt>
<trkpt lat="33.8106147" lon="-118.3935746">
  <ele>-4.99</ele>
  <time>2026-09-01T01:14:46Z</time>
  <course>84.28</course>
  <speed>0.0</speed>
  <fix>3d</fix>
</trkpt>
<trkpt lat="33.8106146" lon="-118.3935745">
  <ele>-5.51</ele>
  <time>2026-09-01T01:14:46Z</time>
  <course>156.57</course>
  <speed>0.02</speed>
  <fix>3d</fix>
</trkpt>
<trkpt lat="33.8106147" lon="-118.3935746">
  <ele>-4.99</ele>
  <time>2026-09-01T01:14:46Z</time>
  <course>84.28</course>
  <speed>0.0</speed>
  <fix>3d</fix>
</trkpt>
<trkpt lat="33.8106146" lon="-118.3935745">
  <ele>-5.511</ele>
  <time>2026-09-01T01:14:46Z</time>
  <course>156.58</course>
  <speed>0.02</speed>
  <fix>3d</fix>
</trkpt>
<trkpt lat="33.8106147" lon="-118.3935746">
  <ele>-4.99</ele>
  <time>2026-09-01T01:14:46Z</time>
  <course>84.42</course>
  <speed>0.0</speed>
  <fix>3d</fix>
</trkpt>
<trkpt lat="33.8106146" lon="-118.3935745">
  <ele>-5.512</ele>
  <time>2026-09-01T01:14:46Z</time>
  <course>156.59</course>
  <speed>0.02</speed>
  <fix>3d</fix>
</trkpt>
<trkpt lat="33.8106147" lon="-118.3935746">
  <ele>-4.99</ele>
  <time>2026-09-01T01:14:46Z</time>
  <course>84.42</course>
  <speed>0.0</speed>
  <fix>3d</fix>
</trkpt>
<trkpt lat="33.8106146" lon="-118.3935745">
  <ele>-5.513</ele>
  <time>2026-09-01T01:14:46Z</time>
  <course>156.6</course>
  <speed>0.02</speed>
  <fix>3d</fix>
</trkpt>
<trkpt lat="33.8106147" lon="-118.3935746">
  <ele>-4.99</ele>
  <time>2026-09-01T01:14:46Z</time>
  <course>84.54</course>
  <speed>0.0</speed>
  <fix>3d</fix>
</trkpt>
<trkpt lat="33.8106146" lon="-118.3935744">
  <ele>-5.512</ele>
  <time>2026-09-01T01:14:46Z</time>
  <course>156.62</course>
  <speed>0.02</speed>
  <fix>3d</fix>
</trkpt>
<trkpt lat="33.8106147" lon="-118.3935746">
  <ele>-4.99</ele>
  <time>2026-09-01T01:14:46Z</time>
  <course>84.54</course>
  <speed>0.0</speed>
  <fix>3d</fix>
</trkpt>
<trkpt lat="33.8106146" lon="-118.3935744">
  <ele>-5.511</ele>
  <time>2026-09-01T01:14:46Z</time>
  <course>156.63</course>
  <speed>0.02</speed>
  <fix>3d</fix>
</trkpt>
<trkpt lat="33.8106147" lon="-118.3935745">
  <ele>-4.98</ele>
  <time>2026-09-01T01:14:46Z</time>
  <course>84.65</course>
  <speed>0.0</speed>
  <fix>3d</fix>
</trkpt>
<trkpt lat="33.8106146" lon="-118.3935744">
  <ele>-5.514</ele>
  <time>2026-09-01T01:14:46Z</time>
  <course>156.64</course>
  <speed>0.02</speed>
  <fix>3d</fix>
</trkpt>
<trkpt lat="33.8106147" lon="-118.3935745">
  <ele>-4.98</ele>
  <time>2026-09-01T01:14:46Z</time>
  <course>84.65</course>
  <speed>0.0</speed>
  <fix>3d</fix>
</trkpt>
<trkpt lat="33.8106146" lon="-118.3935744">
  <ele>-5.532</ele>
  <time>2026-09-01T01:14:46Z</time>
  <course>156.65</course>
  <speed>0.02</speed>
  <fix>3d</fix>
</trkpt>
<trkpt lat="33.8106147" lon="-118.3935745">
  <ele>-4.98</ele>
  <time>2026-09-01T01:14:46Z</time>
  <course>84.69</course>
  <speed>0.0</speed>
  <fix>3d</fix>
</trkpt>
<trkpt lat="33.8106146" lon="-118.3935744">
  <ele>-5.572</ele>
  <time>2026-09-01T01:14:46Z</time>
  <course>156.66</course>
  <speed>0.02</speed>
  <fix>3d</fix>
</trkpt>
<trkpt lat="33.8106147" lon="-118.3935745">
  <ele>-4.98</ele>
  <time>2026-09-01T01:14:46Z</time>
  <course>84.69</course>
  <speed>0.0</speed>
  <fix>3d</fix>
</trkpt>
<trkpt lat="33.8106146" lon="-118.3935744">
  <ele>-5.572</ele>
  <time>2026-09-01T01:14:46Z</time>
  <course>156.66</course>
  <speed>0.02</speed>
  <fix>3d</fix>
</trkpt>
<trkpt lat="33.8106146" lon="-118.3935744">
  <ele>-5.63</ele>
  <time>2026-09-01T01:14:46Z</time>
  <course>156.67</course>
  <speed>0.02</speed>
  <fix>3d</fix>
</trkpt>
<trkpt lat="33.8106147" lon="-118.3935745">
  <ele>-5.02</ele>
  <time>2026-09-01T01:14:46Z</time>
  <course>84.75</course>
  <speed>0.0</speed>
  <fix>3d</fix>
</trkpt>
<trkpt lat="33.8106146" lon="-118.3935744">
  <ele>-5.631</ele>
  <time>2026-09-01T01:14:46Z</time>
  <course>156.67</course>
  <speed>0.02</speed>
  <fix>3d</fix>
</trkpt>
<trkpt lat="33.8106146" lon="-118.3935744">
  <ele>-5.708</ele>
  <time>2026-09-01T01:14:46Z</time>
  <course>156.68</course>
  <speed>0.02</speed>
  <fix>3d</fix>
</trkpt>
<trkpt lat="33.8106147" lon="-118.3935745">
  <ele>-5.02</ele>
  <time>2026-09-01T01:14:46Z</time>
  <course>84.75</course>
  <speed>0.0</speed>
  <fix>3d</fix>
</trkpt>
<trkpt lat="33.8106146" lon="-118.3935744">
  <ele>-5.736</ele>
  <time>2026-09-01T01:14:46Z</time>
  <course>156.68</course>
  <speed>0.02</speed>
  <fix>3d</fix>
</trkpt>
<trkpt lat="33.8106146" lon="-118.3935744">
  <ele>-5.806</ele>
  <time>2026-09-01T01:14:46Z</time>
  <course>156.69</course>
  <speed>0.02</speed>
  <fix>3d</fix>
</trkpt>
<trkpt lat="33.8106147" lon="-118.3935745">
  <ele>-5.12</ele>
  <time>2026-09-01T01:14:46Z</time>
  <course>85.03</course>
  <speed>0.0</speed>
  <fix>3d</fix>
</trkpt>
<trkpt lat="33.8106146" lon="-118.3935744">
  <ele>-5.842</ele>
  <time>2026-09-01T01:14:46Z</time>
  <course>156.69</course>
  <speed>0.02</speed>
  <fix>3d</fix>
</trkpt>
<trkpt lat="33.8106146" lon="-118.3935744">
  <ele>-5.924</ele>
  <time>2026-09-01T01:14:46Z</time>
  <course>156.7</course>
  <speed>0.02</speed>
  <fix>3d</fix>
</trkpt>
<trkpt lat="33.8106147" lon="-118.3935745">
  <ele>-5.12</ele>
  <time>2026-09-01T01:14:46Z</time>
  <course>85.03</course>
  <speed>0.0</speed>
  <fix>3d</fix>
</trkpt>
<trkpt lat="33.8106146" lon="-118.3935744">
  <ele>-5.965</ele>
  <time>2026-09-01T01:14:46Z</time>
  <course>156.7</course>
  <speed>0.02</speed>
  <fix>3d</fix>
</trkpt>
<trkpt lat="33.8106146" lon="-118.3935744">
  <ele>-6.051</ele>
  <time>2026-09-01T01:14:46Z</time>
  <course>156.71</course>
  <speed>0.02</speed>
  <fix>3d</fix>
</trkpt>
<trkpt lat="33.8106147" lon="-118.3935745">
  <ele>-5.31</ele>
  <time>2026-09-01T01:14:46Z</time>
  <course>85.36</course>
  <speed>0.0</speed>
  <fix>3d</fix>
</trkpt>
<trkpt lat="33.8106146" lon="-118.3935744">
  <ele>-6.091</ele>
  <time>2026-09-01T01:14:46Z</time>
  <course>156.71</course>
  <speed>0.02</speed>
  <fix>3d</fix>
</trkpt>
<trkpt lat="33.8106146" lon="-118.3935744">
  <ele>-6.182</ele>
  <time>2026-09-01T01:14:46Z</time>
  <course>156.72</course>
  <speed>0.02</speed>
  <fix>3d</fix>
</trkpt>
<trkpt lat="33.8106147" lon="-118.3935745">
  <ele>-5.31</ele>
  <time>2026-09-01T01:14:46Z</time>
  <course>85.36</course>
  <speed>0.0</speed>
  <fix>3d</fix>
</trkpt>
<trkpt lat="33.8106146" lon="-118.3935744">
  <ele>-6.225</ele>
  <time>2026-09-01T01:14:46Z</time>
  <course>156.72</course>
  <speed>0.02</speed>
  <fix>3d</fix>
</trkpt>
<trkpt lat="33.8106146" lon="-118.3935744">
  <ele>-6.313</ele>
  <time>2026-09-01T01:14:46Z</time>
  <course>156.73</course>
  <speed>0.02</speed>
  <fix>3d</fix>
</trkpt>
<trkpt lat="33.8106147" lon="-118.3935745">
  <ele>-5.54</ele>
  <time>2026-09-01T01:14:46Z</time>
  <course>85.52</course>
  <speed>0.0</speed>
  <fix>3d</fix>
</trkpt>
<trkpt lat="33.8106146" lon="-118.3935744">
  <ele>-6.356</ele>
  <time>2026-09-01T01:14:46Z</time>
  <course>156.73</course>
  <speed>0.02</speed>
  <fix>3d</fix>
</trkpt>
<trkpt lat="33.8106146" lon="-118.3935743">
  <ele>-6.444</ele>
  <time>2026-09-01T01:14:46Z</time>
  <course>156.74</course>
  <speed>0.02</speed>
  <fix>3d</fix>
</trkpt>
<trkpt lat="33.8106147" lon="-118.3935745">
  <ele>-5.54</ele>
  <time>2026-09-01T01:14:46Z</time>
  <course>85.52</course>
  <speed>0.0</speed>
  <fix>3d</fix>
</trkpt>
<trkpt lat="33.8106146" lon="-118.3935743">
  <ele>-6.484</ele>
  <time>2026-09-01T01:14:46Z</time>
  <course>156.74</course>
  <speed>0.02</speed>
  <fix>3d</fix>
</trkpt>
<trkpt lat="33.8106146" lon="-118.3935743">
  <ele>-6.576</ele>
  <time>2026-09-01T01:14:46Z</time>
  <course>156.75</course>
  <speed>0.02</speed>
  <fix>3d</fix>
</trkpt>
<trkpt lat="33.8106147" lon="-118.3935744">
  <ele>-5.77</ele>
  <time>2026-09-01T01:14:46Z</time>
  <course>85.6</course>
  <speed>0.0</speed>
  <fix>3d</fix>
</trkpt>
<trkpt lat="33.8106146" lon="-118.3935743">
  <ele>-6.619</ele>
  <time>2026-09-01T01:14:46Z</time>
  <course>156.75</course>
  <speed>0.02</speed>
  <fix>3d</fix>
</trkpt>
<trkpt lat="33.8106146" lon="-118.3935743">
  <ele>-6.709</ele>
  <time>2026-09-01T01:14:46Z</time>
  <course>156.76</course>
  <speed>0.02</speed>
  <fix>3d</fix>
</trkpt>
<trkpt lat="33.8106147" lon="-118.3935744">
  <ele>-5.77</ele>
  <time>2026-09-01T01:14:46Z</time>
  <course>85.6</course>
  <speed>0.0</speed>
  <fix>3d</fix>
</trkpt>
<trkpt lat="33.8106146" lon="-118.3935743">
  <ele>-6.758</ele>
  <time>2026-09-01T01:14:46Z</time>
  <course>156.76</course>
  <speed>0.02</speed>
  <fix>3d</fix>
</trkpt>
<trkpt lat="33.8106146" lon="-118.3935743">
  <ele>-6.842</ele>
  <time>2026-09-01T01:14:46Z</time>
  <course>156.77</course>
  <speed>0.02</speed>
  <fix>3d</fix>
</trkpt>
<trkpt lat="33.8106147" lon="-118.3935744">
  <ele>-6.02</ele>
  <time>2026-09-01T01:14:46Z</time>
  <course>85.68</course>
  <speed>0.0</speed>
  <fix>3d</fix>
</trkpt>
<trkpt lat="33.8106146" lon="-118.3935743">
  <ele>-6.885</ele>
  <time>2026-09-01T01:14:46Z</time>
  <course>156.77</course>
  <speed>0.02</speed>
  <fix>3d</fix>
</trkpt>
<trkpt lat="33.8106146" lon="-118.3935743">
  <ele>-6.974</ele>
  <time>2026-09-01T01:14:46Z</time>
  <course>156.78</course>
  <speed>0.02</speed>
  <fix>3d</fix>
</trkpt>
<trkpt lat="33.8106147" lon="-118.3935744">
  <ele>-6.02</ele>
  <time>2026-09-01T01:14:46Z</time>
  <course>85.68</course>
  <speed>0.0</speed>
  <fix>3d</fix>
</trkpt>
<trkpt lat="33.8106146" lon="-118.3935743">
  <ele>-6.978</ele>
  <time>2026-09-01T01:14:46Z</time>
  <course>156.78</course>
  <speed>0.02</speed>
  <fix>3d</fix>
</trkpt>
<trkpt lat="33.8106146" lon="-118.3935743">
  <ele>-7.106</ele>
  <time>2026-09-01T01:14:46Z</time>
  <course>156.79</course>
  <speed>0.02</speed>
  <fix>3d</fix>
</trkpt>
<trkpt lat="33.8106147" lon="-118.3935744">
  <ele>-6.26</ele>
  <time>2026-09-01T01:14:46Z</time>
  <course>85.75</course>
  <speed>0.0</speed>
  <fix>3d</fix>
</trkpt>
<trkpt lat="33.8106146" lon="-118.3935743">
  <ele>-7.148</ele>
  <time>2026-09-01T01:14:46Z</time>
  <course>156.79</course>
  <speed>0.02</speed>
  <fix>3d</fix>
</trkpt>
<trkpt lat="33.8106146" lon="-118.3935743">
  <ele>-7.235</ele>
  <time>2026-09-01T01:14:46Z</time>
  <course>156.8</course>
  <speed>0.02</speed>
  <fix>3d</fix>
</trkpt>
<trkpt lat="33.8106147" lon="-118.3935744">
  <ele>-6.26</ele>
  <time>2026-09-01T01:14:46Z</time>
  <course>85.75</course>
  <speed>0.0</speed>
  <fix>3d</fix>
</trkpt>
<trkpt lat="33.8106146" lon="-118.3935743">
  <ele>-7.277</ele>
  <time>2026-09-01T01:14:46Z</time>
  <course>156.8</course>
  <speed>0.02</speed>
  <fix>3d</fix>
</trkpt>
<trkpt lat="33.8106146" lon="-118.3935743">
  <ele>-7.364</ele>
  <time>2026-09-01T01:14:46Z</time>
  <course>156.81</course>
  <speed>0.02</speed>
  <fix>3d</fix>
</trkpt>
<trkpt lat="33.8106147" lon="-118.3935744">
  <ele>-6.51</ele>
  <time>2026-09-01T01:14:46Z</time>
  <course>85.84</course>
  <speed>0.0</speed>
  <fix>3d</fix>
</trkpt>
<trkpt lat="33.8106146" lon="-118.3935743">
  <ele>-7.406</ele>
  <time>2026-09-01T01:14:46Z</time>
  <course>156.81</course>
  <speed>0.02</speed>
  <fix>3d</fix>
</trkpt>
<trkpt lat="33.8106146" lon="-118.3935743">
  <ele>-7.492</ele>
  <time>2026-09-01T01:14:46Z</time>
  <course>156.82</course>
  <speed>0.02</speed>
  <fix>3d</fix>
</trkpt>
<trkpt lat="33.8106147" lon="-118.3935744">
  <ele>-6.51</ele>
  <time>2026-09-01T01:14:46Z</time>
  <course>85.84</course>
  <speed>0.0</speed>
  <fix>3d</fix>
</trkpt>
<trkpt lat="33.8106146" lon="-118.3935743">
  <ele>-7.54</ele>
  <time>2026-09-01T01:14:46Z</time>
  <course>156.82</course>
  <speed>0.02</speed>
  <fix>3d</fix>
</trkpt>
<trkpt lat="33.8106146" lon="-118.3935743">
  <ele>-7.62</ele>
  <time>2026-09-01T01:14:46Z</time>
  <course>156.83</course>
  <speed>0.02</speed>
  <fix>3d</fix>
</trkpt>
<trkpt lat="33.8106147" lon="-118.3935744">
  <ele>-6.75</ele>
  <time>2026-09-01T01:14:46Z</time>
  <course>85.94</course>
  <speed>0.0</speed>
  <fix>3d</fix>
</trkpt>
<trkpt lat="33.8106146" lon="-118.3935743">
  <ele>-7.658</ele>
  <time>2026-09-01T01:14:46Z</time>
  <course>156.83</course>
  <speed>0.02</speed>
  <fix>3d</fix>
</trkpt>
<trkpt lat="33.8106146" lon="-118.3935743">
  <ele>-7.747</ele>
  <time>2026-09-01T01:14:46Z</time>
  <course>156.83</course>
  <speed>0.02</speed>
  <fix>3d</fix>
</trkpt>
<trkpt lat="33.8106147" lon="-118.3935744">
  <ele>-6.75</ele>
  <time>2026-09-01T01:14:46Z</time>
  <course>85.94</course>
  <speed>0.0</speed>
  <fix>3d</fix>
</trkpt>
<trkpt lat="33.8106146" lon="-118.3935743">
  <ele>-7.788</ele>
  <time>2026-09-01T01:14:46Z</time>
  <course>156.84</course>
  <speed>0.02</speed>
  <fix>3d</fix>
</trkpt>
<trkpt lat="33.8106146" lon="-118.3935742">
  <ele>-7.873</ele>
  <time>2026-09-01T01:14:46Z</time>
  <course>156.84</course>
  <speed>0.02</speed>
  <fix>3d</fix>
</trkpt>
<trkpt lat="33.8106147" lon="-118.3935743">
  <ele>-6.99</ele>
  <time>2026-09-01T01:14:46Z</time>
  <course>86.05</course>
  <speed>0.0</speed>
  <fix>3d</fix>
</trkpt>
<trkpt lat="33.8106146" lon="-118.3935742">
  <ele>-7.914</ele>
  <time>2026-09-01T01:14:46Z</time>
  <course>156.85</course>
  <speed>0.02</speed>
  <fix>3d</fix>
</trkpt>
<trkpt lat="33.8106146" lon="-118.3935742">
  <ele>-8.0</ele>
  <time>2026-09-01T01:14:46Z</time>
  <course>156.85</course>
  <speed>0.02</speed>
  <fix>3d</fix>
</trkpt>
<trkpt lat="33.8106147" lon="-118.3935743">
  <ele>-6.99</ele>
  <time>2026-09-01T01:14:46Z</time>
  <course>86.05</course>
  <speed>0.0</speed>
  <fix>3d</fix>
</trkpt>
<trkpt lat="33.8106146" lon="-118.3935742">
  <ele>-8.041</ele>
  <time>2026-09-01T01:14:46Z</time>
  <course>156.86</course>
  <speed>0.02</speed>
  <fix>3d</fix>
</trkpt>
<trkpt lat="33.8106146" lon="-118.3935742">
  <ele>-8.125</ele>
  <time>2026-09-01T01:14:46Z</time>
  <course>156.86</course>
  <speed>0.02</speed>
  <fix>3d</fix>
</trkpt>
<trkpt lat="33.8106148" lon="-118.3935743">
  <ele>-7.24</ele>
  <time>2026-09-01T01:14:46Z</time>
  <course>86.14</course>
  <speed>0.0</speed>
  <fix>3d</fix>
</trkpt>
<trkpt lat="33.8106146" lon="-118.3935742">
  <ele>-8.17</ele>
  <time>2026-09-01T01:14:46Z</time>
  <course>156.87</course>
  <speed>0.02</speed>
  <fix>3d</fix>
</trkpt>
<trkpt lat="33.8106146" lon="-118.3935742">
  <ele>-8.252</ele>
  <time>2026-09-01T01:14:46Z</time>
  <course>156.87</course>
  <speed>0.02</speed>
  <fix>3d</fix>
</trkpt>
<trkpt lat="33.8106148" lon="-118.3935743">
  <ele>-7.24</ele>
  <time>2026-09-01T01:14:46Z</time>
  <course>86.14</course>
  <speed>0.0</speed>
  <fix>3d</fix>
</trkpt>
<trkpt lat="33.8106146" lon="-118.3935742">
  <ele>-8.258</ele>
  <time>2026-09-01T01:14:46Z</time>
  <course>156.87</course>
  <speed>0.02</speed>
  <fix>3d</fix>
</trkpt>
<trkpt lat="33.8106146" lon="-118.3935742">
  <ele>-8.379</ele>
  <time>2026-09-01T01:14:46Z</time>
  <course>156.88</course>
  <speed>0.02</speed>
  <fix>3d</fix>
</trkpt>
<trkpt lat="33.8106149" lon="-118.3935743">
  <ele>-7.48</ele>
  <time>2026-09-01T01:14:46Z</time>
  <course>86.21</course>
  <speed>0.0</speed>
  <fix>3d</fix>
</trkpt>
<trkpt lat="33.8106146" lon="-118.3935742">
  <ele>-8.381</ele>
  <time>2026-09-01T01:14:46Z</time>
  <course>156.88</course>
  <speed>0.02</speed>
  <fix>3d</fix>
</trkpt>
<trkpt lat="33.8106146" lon="-118.3935742">
  <ele>-8.505</ele>
  <time>2026-09-01T01:14:46Z</time>
  <course>156.89</course>
  <speed>0.02</speed>
  <fix>3d</fix>
</trkpt>
<trkpt lat="33.8106149" lon="-118.3935743">
  <ele>-7.48</ele>
  <time>2026-09-01T01:14:46Z</time>
  <course>86.21</course>
  <speed>0.0</speed>
  <fix>3d</fix>
</trkpt>
<trkpt lat="33.8106146" lon="-118.3935742">
  <ele>-8.545</ele>
  <time>2026-09-01T01:14:46Z</time>
  <course>156.89</course>
  <speed>0.02</speed>
  <fix>3d</fix>
</trkpt>
<trkpt lat="33.8106146" lon="-118.3935742">
  <ele>-8.63</ele>
  <time>2026-09-01T01:14:46Z</time>
  <course>156.9</course>
  <speed>0.02</speed>
  <fix>3d</fix>
</trkpt>
<trkpt lat="33.8106149" lon="-118.3935743">
  <ele>-7.72</ele>
  <time>2026-09-01T01:14:46Z</time>
  <course>86.27</course>
  <speed>0.0</speed>
  <fix>3d</fix>
</trkpt>
<trkpt lat="33.8106146" lon="-118.3935742">
  <ele>-8.671</ele>
  <time>2026-09-01T01:14:46Z</time>
  <course>156.9</course>
  <speed>0.02</speed>
  <fix>3d</fix>
</trkpt>
<trkpt lat="33.8106146" lon="-118.3935742">
  <ele>-8.754</ele>
  <time>2026-09-01T01:14:46Z</time>
  <course>156.91</course>
  <speed>0.02</speed>
  <fix>3d</fix>
</trkpt>
<trkpt lat="33.8106149" lon="-118.3935743">
  <ele>-7.72</ele>
  <time>2026-09-01T01:14:46Z</time>
  <course>86.27</course>
  <speed>0.0</speed>
  <fix>3d</fix>
</trkpt>
<trkpt lat="33.8106146" lon="-118.3935742">
  <ele>-8.795</ele>
  <time>2026-09-01T01:14:46Z</time>
  <course>156.91</course>
  <speed>0.02</speed>
  <fix>3d</fix>
</trkpt>
<trkpt lat="33.8106146" lon="-118.3935742">
  <ele>-8.878</ele>
  <time>2026-09-01T01:14:46Z</time>
  <course>156.92</course>
  <speed>0.02</speed>
  <fix>3d</fix>
</trkpt>
<trkpt lat="33.8106149" lon="-118.3935743">
  <ele>-7.97</ele>
  <time>2026-09-01T01:14:46Z</time>
  <course>86.34</course>
  <speed>0.0</speed>
  <fix>3d</fix>
</trkpt>
<trkpt lat="33.8106146" lon="-118.3935742">
  <ele>-8.916</ele>
  <time>2026-09-01T01:14:46Z</time>
  <course>156.92</course>
  <speed>0.02</speed>
  <fix>3d</fix>
</trkpt>
<trkpt lat="33.8106147" lon="-118.3935742">
  <ele>-9.002</ele>
  <time>2026-09-01T01:14:46Z</time>
  <course>156.92</course>
  <speed>0.02</speed>
  <fix>3d</fix>
</trkpt>
<trkpt lat="33.8106149" lon="-118.3935743">
  <ele>-7.97</ele>
  <time>2026-09-01T01:14:46Z</time>
  <course>86.34</course>
  <speed>0.0</speed>
  <fix>3d</fix>
</trkpt>
<trkpt lat="33.8106147" lon="-118.3935742">
  <ele>-9.042</ele>
  <time>2026-09-01T01:14:46Z</time>
  <course>156.93</course>
  <speed>0.02</speed>
  <fix>3d</fix>
</trkpt>
<trkpt lat="33.8106147" lon="-118.3935742">
  <ele>-9.124</ele>
  <time>2026-09-01T01:14:46Z</time>
  <course>156.93</course>
  <speed>0.02</speed>
  <fix>3d</fix>
</trkpt>
<trkpt lat="33.8106149" lon="-118.3935743">
  <ele>-8.21</ele>
  <time>2026-09-01T01:14:46Z</time>
  <course>86.42</course>
  <speed>0.0</speed>
  <fix>3d</fix>
</trkpt>
<trkpt lat="33.8106147" lon="-118.3935741">
  <ele>-9.171</ele>
  <time>2026-09-01T01:14:46Z</time>
  <course>156.94</course>
  <speed>0.02</speed>
  <fix>3d</fix>
</trkpt>
<trkpt lat="33.8106147" lon="-118.3935741">
  <ele>-9.248</ele>
  <time>2026-09-01T01:14:46Z</time>
  <course>156.94</course>
  <speed>0.02</speed>
  <fix>3d</fix>
</trkpt>
<trkpt lat="33.8106149" lon="-118.3935743">
  <ele>-8.21</ele>
  <time>2026-09-01T01:14:46Z</time>
  <course>86.42</course>
  <speed>0.0</speed>
  <fix>3d</fix>
</trkpt>
<trkpt lat="33.8106147" lon="-118.3935741">
  <ele>-9.291</ele>
  <time>2026-09-01T01:14:46Z</time>
  <course>156.94</course>
  <speed>0.02</speed>
  <fix>3d</fix>
</trkpt>
<trkpt lat="33.8106147" lon="-118.3935741">
  <ele>-9.371</ele>
  <time>2026-09-01T01:14:46Z</time>
  <course>156.95</course>
  <speed>0.02</speed>
  <fix>3d</fix>
</trkpt>
<trkpt lat="33.8106149" lon="-118.3935742">
  <ele>-8.45</ele>
  <time>2026-09-01T01:14:46Z</time>
  <course>86.52</course>
  <speed>0.0</speed>
  <fix>3d</fix>
</trkpt>
<trkpt lat="33.8106147" lon="-118.3935741">
  <ele>-9.408</ele>
  <time>2026-09-01T01:14:46Z</time>
  <course>156.95</course>
  <speed>0.02</speed>
  <fix>3d</fix>
</trkpt>
<trkpt lat="33.8106147" lon="-118.3935741">
  <ele>-9.495</ele>
  <time>2026-09-01T01:14:46Z</time>
  <course>156.96</course>
  <speed>0.02</speed>
  <fix>3d</fix>
</trkpt>
<trkpt lat="33.8106149" lon="-118.3935742">
  <ele>-8.45</ele>
  <time>2026-09-01T01:14:46Z</time>
  <course>86.52</course>
  <speed>0.0</speed>
  <fix>3d</fix>
</trkpt>
<trkpt lat="33.8106147" lon="-118.3935741">
  <ele>-9.535</ele>
  <time>2026-09-01T01:14:46Z</time>
  <course>156.96</course>
  <speed>0.02</speed>
  <fix>3d</fix>
</trkpt>
<trkpt lat="33.8106147" lon="-118.3935741">
  <ele>-9.618</ele>
  <time>2026-09-01T01:14:46Z</time>
  <course>156.97</course>
  <speed>0.02</speed>
  <fix>3d</fix>
</trkpt>
<trkpt lat="33.8106149" lon="-118.3935742">
  <ele>-8.7</ele>
  <time>2026-09-01T01:14:46Z</time>
  <course>86.62</course>
  <speed>0.0</speed>
  <fix>3d</fix>
</trkpt>
<trkpt lat="33.8106147" lon="-118.3935741">
  <ele>-9.658</ele>
  <time>2026-09-01T01:14:46Z</time>
  <course>156.97</course>
  <speed>0.02</speed>
  <fix>3d</fix>
</trkpt>
<trkpt lat="33.8106147" lon="-118.3935741">
  <ele>-9.741</ele>
  <time>2026-09-01T01:14:46Z</time>
  <course>156.98</course>
  <speed>0.02</speed>
  <fix>3d</fix>
</trkpt>
<trkpt lat="33.8106149" lon="-118.3935742">
  <ele>-8.7</ele>
  <time>2026-09-01T01:14:46Z</time>
  <course>86.62</course>
  <speed>0.0</speed>
  <fix>3d</fix>
</trkpt>
<trkpt lat="33.8106147" lon="-118.3935741">
  <ele>-9.745</ele>
  <time>2026-09-01T01:14:46Z</time>
  <course>156.98</course>
  <speed>0.02</speed>
  <fix>3d</fix>
</trkpt>
<trkpt lat="33.8106147" lon="-118.3935741">
  <ele>-9.865</ele>
  <time>2026-09-01T01:14:46Z</time>
  <course>156.99</course>
  <speed>0.02</speed>
  <fix>3d</fix>
</trkpt>
<trkpt lat="33.8106149" lon="-118.3935742">
  <ele>-8.94</ele>
  <time>2026-09-01T01:14:46Z</time>
  <course>86.69</course>
  <speed>0.0</speed>
  <fix>3d</fix>
</trkpt>
<trkpt lat="33.8106147" lon="-118.3935741">
  <ele>-9.912</ele>
  <time>2026-09-01T01:14:46Z</time>
  <course>156.99</course>
  <speed>0.02</speed>
  <fix>3d</fix>
</trkpt>
<trkpt lat="33.8106147" lon="-118.3935741">
  <ele>-9.989</ele>
  <time>2026-09-01T01:14:46Z</time>
  <course>156.99</course>
  <speed>0.02</speed>
  <fix>3d</fix>
</trkpt>
<trkpt lat="33.8106149" lon="-118.3935742">
  <ele>-8.94</ele>
  <time>2026-09-01T01:14:46Z</time>
  <course>86.69</course>
  <speed>0.0</speed>
  <fix>3d</fix>
</trkpt>
<trkpt lat="33.8106147" lon="-118.3935741">
  <ele>-9.993</ele>
  <time>2026-09-01T01:14:46Z</time>
  <course>156.99</course>
  <speed>0.02</speed>
  <fix>3d</fix>
</trkpt>
<trkpt lat="33.8106148" lon="-118.3935741">
  <ele>-10.114</ele>
  <time>2026-09-01T01:14:46Z</time>
  <course>157.0</course>
  <speed>0.02</speed>
  <fix>3d</fix>
</trkpt>
<trkpt lat="33.8106149" lon="-118.3935742">
  <ele>-9.18</ele>
  <time>2026-09-01T01:14:46Z</time>
  <course>86.74</course>
  <speed>0.0</speed>
  <fix>3d</fix>
</trkpt>
<trkpt lat="33.8106148" lon="-118.3935741">
  <ele>-10.151</ele>
  <time>2026-09-01T01:14:46Z</time>
  <course>157.01</course>
  <speed>0.02</speed>
  <fix>3d</fix>
</trkpt>
<trkpt lat="33.8106148" lon="-118.3935741">
  <ele>-10.237</ele>
  <time>2026-09-01T01:14:46Z</time>
  <course>157.01</course>
  <speed>0.02</speed>
  <fix>3d</fix>
</trkpt>
<trkpt lat="33.8106149" lon="-118.3935742">
  <ele>-9.18</ele>
  <time>2026-09-01T01:14:46Z</time>
  <course>86.74</course>
  <speed>0.0</speed>
  <fix>3d</fix>
</trkpt>
<trkpt lat="33.8106148" lon="-118.3935741">
  <ele>-10.278</ele>
  <time>2026-09-01T01:14:46Z</time>
  <course>157.01</course>
  <speed>0.02</speed>
  <fix>3d</fix>
</trkpt>
<trkpt lat="33.8106148" lon="-118.3935741">
  <ele>-10.361</ele>
  <time>2026-09-01T01:14:46Z</time>
  <course>157.02</course>
  <speed>0.02</speed>
  <fix>3d</fix>
</trkpt>
<trkpt lat="33.8106149" lon="-118.3935742">
  <ele>-9.43</ele>
  <time>2026-09-01T01:14:46Z</time>
  <course>86.79</course>
  <speed>0.0</speed>
  <fix>3d</fix>
</trkpt>
<trkpt lat="33.8106148" lon="-118.3935741">
  <ele>-10.405</ele>
  <time>2026-09-01T01:14:46Z</time>
  <course>157.02</course>
  <speed>0.02</speed>
  <fix>3d</fix>
</trkpt>
<trkpt lat="33.8106148" lon="-118.3935741">
  <ele>-10.485</ele>
  <time>2026-09-01T01:14:46Z</time>
  <course>157.03</course>
  <speed>0.02</speed>
  <fix>3d</fix>
</trkpt>
<trkpt lat="33.8106149" lon="-118.3935742">
  <ele>-9.43</ele>
  <time>2026-09-01T01:14:46Z</time>
  <course>86.79</course>
  <speed>0.0</speed>
  <fix>3d</fix>
</trkpt>
<trkpt lat="33.8106148" lon="-118.393574">
  <ele>-10.528</ele>
  <time>2026-09-01T01:14:46Z</time>
  <course>157.03</course>
  <speed>0.02</speed>
  <fix>3d</fix>
</trkpt>
<trkpt lat="33.8106148" lon="-118.393574">
  <ele>-10.61</ele>
  <time>2026-09-01T01:14:46Z</time>
  <course>157.04</course>
  <speed>0.02</speed>
  <fix>3d</fix>
</trkpt>
<trkpt lat="33.8106149" lon="-118.3935742">
  <ele>-9.67</ele>
  <time>2026-09-01T01:14:46Z</time>
  <course>86.85</course>
  <speed>0.0</speed>
  <fix>3d</fix>
</trkpt>
<trkpt lat="33.8106148" lon="-118.393574">
  <ele>-10.65</ele>
  <time>2026-09-01T01:14:46Z</time>
  <course>157.04</course>
  <speed>0.02</speed>
  <fix>3d</fix>
</trkpt>
<trkpt lat="33.8106148" lon="-118.393574">
  <ele>-10.735</ele>
  <time>2026-09-01T01:14:46Z</time>
  <course>157.05</course>
  <speed>0.02</speed>
  <fix>3d</fix>
</trkpt>
<trkpt lat="33.8106149" lon="-118.3935742">
  <ele>-9.67</ele>
  <time>2026-09-01T01:14:46Z</time>
  <course>86.85</course>
  <speed>0.0</speed>
  <fix>3d</fix>
</trkpt>
<trkpt lat="33.8106148" lon="-118.393574">
  <ele>-10.797</ele>
  <time>2026-09-01T01:14:46Z</time>
  <course>157.05</course>
  <speed>0.02</speed>
  <fix>3d</fix>
</trkpt>
<trkpt lat="33.8106148" lon="-118.393574">
  <ele>-10.859</ele>
  <time>2026-09-01T01:14:46Z</time>
  <course>157.05</course>
  <speed>0.02</speed>
  <fix>3d</fix>
</trkpt>
<trkpt lat="33.8106149" lon="-118.3935741">
  <ele>-9.91</ele>
  <time>2026-09-01T01:14:46Z</time>
  <course>86.94</course>
  <speed>0.0</speed>
  <fix>3d</fix>
</trkpt>
<trkpt lat="33.8106148" lon="-118.393574">
  <ele>-10.896</ele>
  <time>2026-09-01T01:14:46Z</time>
  <course>157.06</course>
  <speed>0.02</speed>
  <fix>3d</fix>
</trkpt>
<trkpt lat="33.8106148" lon="-118.393574">
  <ele>-10.983</ele>
  <time>2026-09-01T01:14:46Z</time>
  <course>157.06</course>
  <speed>0.02</speed>
  <fix>3d</fix>
</trkpt>
<trkpt lat="33.8106149" lon="-118.3935741">
  <ele>-9.91</ele>
  <time>2026-09-01T01:14:46Z</time>
  <course>86.94</course>
  <speed>0.0</speed>
  <fix>3d</fix>
</trkpt>
<trkpt lat="33.8106148" lon="-118.393574">
  <ele>-11.026</ele>
  <time>2026-09-01T01:14:46Z</time>
  <course>157.07</course>
  <speed>0.02</speed>
  <fix>3d</fix>
</trkpt>
<trkpt lat="33.8106148" lon="-118.393574">
  <ele>-11.107</ele>
  <time>2026-09-01T01:14:46Z</time>
  <course>157.07</course>
  <speed>0.02</speed>
  <fix>3d</fix>
</trkpt>
<trkpt lat="33.8106149" lon="-118.3935741">
  <ele>-10.16</ele>
  <time>2026-09-01T01:14:46Z</time>
  <course>87.02</course>
  <speed>0.0</speed>
  <fix>3d</fix>
</trkpt>
<trkpt lat="33.8106148" lon="-118.393574">
  <ele>-11.109</ele>
  <time>2026-09-01T01:14:46Z</time>
  <course>157.07</course>
  <speed>0.02</speed>
  <fix>3d</fix>
</trkpt>
<trkpt lat="33.8106148" lon="-118.393574">
  <ele>-11.23</ele>
  <time>2026-09-01T01:14:46Z</time>
  <course>157.08</course>
  <speed>0.02</speed>
  <fix>3d</fix>
</trkpt>
<trkpt lat="33.8106149" lon="-118.3935741">
  <ele>-10.16</ele>
  <time>2026-09-01T01:14:46Z</time>
  <course>87.02</course>
  <speed>0.0</speed>
  <fix>3d</fix>
</trkpt>
<trkpt lat="33.8106148" lon="-118.393574">
  <ele>-11.267</ele>
  <time>2026-09-01T01:14:46Z</time>
  <course>157.08</course>
  <speed>0.02</speed>
  <fix>3d</fix>
</trkpt>
<trkpt lat="33.8106148" lon="-118.393574">
  <ele>-11.354</ele>
  <time>2026-09-01T01:14:46Z</time>
  <course>157.09</course>
  <speed>0.02</speed>
  <fix>3d</fix>
</trkpt>
<trkpt lat="33.8106149" lon="-118.3935741">
  <ele>-10.4</ele>
  <time>2026-09-01T01:14:46Z</time>
  <course>87.1</course>
  <speed>0.0</speed>
  <fix>3d</fix>
</trkpt>
<trkpt lat="33.8106148" lon="-118.393574">
  <ele>-11.392</ele>
  <time>2026-09-01T01:14:46Z</time>
  <course>157.09</course>
  <speed>0.02</speed>
  <fix>3d</fix>
</trkpt>
<trkpt lat="33.8106148" lon="-118.393574">
  <ele>-11.479</ele>
  <time>2026-09-01T01:14:46Z</time>
  <course>157.1</course>
  <speed>0.02</speed>
  <fix>3d</fix>
</trkpt>
<trkpt lat="33.8106149" lon="-118.3935741">
  <ele>-10.4</ele>
  <time>2026-09-01T01:14:46Z</time>
  <course>87.1</course>
  <speed>0.0</speed>
  <fix>3d</fix>
</trkpt>
<trkpt lat="33.8106148" lon="-118.393574">
  <ele>-11.527</ele>
  <time>2026-09-01T01:14:46Z</time>
  <course>157.1</course>
  <speed>0.02</speed>
  <fix>3d</fix>
</trkpt>
<trkpt lat="33.8106148" lon="-118.393574">
  <ele>-11.605</ele>
  <time>2026-09-01T01:14:46Z</time>
  <course>157.11</course>
  <speed>0.02</speed>
  <fix>3d</fix>
</trkpt>
<trkpt lat="33.8106149" lon="-118.3935741">
  <ele>-10.64</ele>
  <time>2026-09-01T01:14:46Z</time>
  <course>87.16</course>
  <speed>0.0</speed>
  <fix>3d</fix>
</trkpt>
<trkpt lat="33.8106148" lon="-118.393574">
  <ele>-11.646</ele>
  <time>2026-09-01T01:14:46Z</time>
  <course>157.11</course>
  <speed>0.02</speed>
  <fix>3d</fix>
</trkpt>
<trkpt lat="33.8106148" lon="-118.393574">
  <ele>-11.73</ele>
  <time>2026-09-01T01:14:46Z</time>
  <course>157.11</course>
  <speed>0.02</speed>
  <fix>3d</fix>
</trkpt>
<trkpt lat="33.8106149" lon="-118.3935741">
  <ele>-10.64</ele>
  <time>2026-09-01T01:14:46Z</time>
  <course>87.16</course>
  <speed>0.0</speed>
  <fix>3d</fix>
</trkpt>
<trkpt lat="33.8106148" lon="-118.393574">
  <ele>-11.774</ele>
  <time>2026-09-01T01:14:46Z</time>
  <course>157.12</course>
  <speed>0.02</speed>
  <fix>3d</fix>
</trkpt>
<trkpt lat="33.8106148" lon="-118.393574">
  <ele>-11.854</ele>
  <time>2026-09-01T01:14:46Z</time>
  <course>157.12</course>
  <speed>0.02</speed>
  <fix>3d</fix>
</trkpt>
<trkpt lat="33.8106149" lon="-118.3935741">
  <ele>-10.89</ele>
  <time>2026-09-01T01:14:46Z</time>
  <course>87.2</course>
  <speed>0.0</speed>
  <fix>3d</fix>
</trkpt>
<trkpt lat="33.8106148" lon="-118.393574">
  <ele>-11.892</ele>
  <time>2026-09-01T01:14:46Z</time>
  <course>157.12</course>
  <speed>0.02</speed>
  <fix>3d</fix>
</trkpt>
<trkpt lat="33.8106148" lon="-118.3935739">
  <ele>-11.979</ele>
  <time>2026-09-01T01:14:46Z</time>
  <course>157.13</course>
  <speed>0.02</speed>
  <fix>3d</fix>
</trkpt>
<trkpt lat="33.8106149" lon="-118.3935741">
  <ele>-10.89</ele>
  <time>2026-09-01T01:14:46Z</time>
  <course>87.2</course>
  <speed>0.0</speed>
  <fix>3d</fix>
</trkpt>
<trkpt lat="33.8106148" lon="-118.3935739">
  <ele>-12.019</ele>
  <time>2026-09-01T01:14:46Z</time>
  <course>157.13</course>
  <speed>0.02</speed>
  <fix>3d</fix>
</trkpt>
<trkpt lat="33.8106148" lon="-118.3935739">
  <ele>-12.103</ele>
  <time>2026-09-01T01:14:46Z</time>
  <course>157.14</course>
  <speed>0.02</speed>
  <fix>3d</fix>
</trkpt>
<trkpt lat="33.8106149" lon="-118.3935741">
  <ele>-11.13</ele>
  <time>2026-09-01T01:14:46Z</time>
  <course>87.25</course>
  <speed>0.0</speed>
  <fix>3d</fix>
</trkpt>
<trkpt lat="33.8106148" lon="-118.3935739">
  <ele>-12.143</ele>
  <time>2026-09-01T01:14:46Z</time>
  <course>157.14</course>
  <speed>0.02</speed>
  <fix>3d</fix>
</trkpt>
<trkpt lat="33.8106148" lon="-118.3935739">
  <ele>-12.227</ele>
  <time>2026-09-01T01:14:46Z</time>
  <course>157.15</course>
  <speed>0.02</speed>
  <fix>3d</fix>
</trkpt>
<trkpt lat="33.8106149" lon="-118.3935741">
  <ele>-11.13</ele>
  <time>2026-09-01T01:14:46Z</time>
  <course>87.25</course>
  <speed>0.0</speed>
  <fix>3d</fix>
</trkpt>
<trkpt lat="33.8106148" lon="-118.3935739">
  <ele>-12.265</ele>
  <time>2026-09-01T01:14:46Z</time>
  <course>157.15</course>
  <speed>0.02</speed>
  <fix>3d</fix>
</trkpt>
<trkpt lat="33.8106148" lon="-118.3935739">
  <ele>-12.351</ele>
  <time>2026-09-01T01:14:46Z</time>
  <course>157.15</course>
  <speed>0.02</speed>
  <fix>3d</fix>
</trkpt>
<trkpt lat="33.8106149" lon="-118.393574">
  <ele>-11.37</ele>
  <time>2026-09-01T01:14:46Z</time>
  <course>87.31</course>
  <speed>0.0</speed>
  <fix>3d</fix>
</trkpt>
<trkpt lat="33.8106148" lon="-118.3935739">
  <ele>-12.394</ele>
  <time>2026-09-01T01:14:46Z</time>
  <course>157.16</course>
  <speed>0.02</speed>
  <fix>3d</fix>
</trkpt>
<trkpt lat="33.8106148" lon="-118.3935739">
  <ele>-12.474</ele>
  <time>2026-09-01T01:14:46Z</time>
  <course>157.16</course>
  <speed>0.02</speed>
  <fix>3d</fix>
</trkpt>
<trkpt lat="33.8106149" lon="-118.393574">
  <ele>-11.37</ele>
  <time>2026-09-01T01:14:46Z</time>
  <course>87.31</course>
  <speed>0.0</speed>
  <fix>3d</fix>
</trkpt>
<trkpt lat="33.8106148" lon="-118.3935739">
  <ele>-12.477</ele>
  <time>2026-09-01T01:14:46Z</time>
  <course>157.16</course>
  <speed>0.02</speed>
  <fix>3d</fix>
</trkpt>
<trkpt lat="33.8106148" lon="-118.3935739">
  <ele>-12.595</ele>
  <time>2026-09-01T01:14:46Z</time>
  <course>157.17</course>
  <speed>0.02</speed>
  <fix>3d</fix>
</trkpt>
<trkpt lat="33.8106149" lon="-118.393574">
  <ele>-11.62</ele>
  <time>2026-09-01T01:14:46Z</time>
  <course>87.39</course>
  <speed>0.0</speed>
  <fix>3d</fix>
</trkpt>
<trkpt lat="33.8106148" lon="-118.3935739">
  <ele>-12.635</ele>
  <time>2026-09-01T01:14:46Z</time>
  <course>157.17</course>
  <speed>0.02</speed>
  <fix>3d</fix>
</trkpt>
<trkpt lat="33.8106148" lon="-118.3935739">
  <ele>-12.716</ele>
  <time>2026-09-01T01:14:46Z</time>
  <course>157.18</course>
  <speed>0.02</speed>
  <fix>3d</fix>
</trkpt>
<trkpt lat="33.8106149" lon="-118.393574">
  <ele>-11.62</ele>
  <time>2026-09-01T01:14:46Z</time>
  <course>87.39</course>
  <speed>0.0</speed>
  <fix>3d</fix>
</trkpt>
<trkpt lat="33.8106148" lon="-118.3935739">
  <ele>-12.753</ele>
  <time>2026-09-01T01:14:46Z</time>
  <course>157.18</course>
  <speed>0.02</speed>
  <fix>3d</fix>
</trkpt>
<trkpt lat="33.8106148" lon="-118.3935739">
  <ele>-12.837</ele>
  <time>2026-09-01T01:14:47Z</time>
  <course>157.19</course>
  <speed>0.02</speed>
  <fix>3d</fix>
</trkpt>
<trkpt lat="33.8106149" lon="-118.393574">
  <ele>-11.86</ele>
  <time>2026-09-01T01:14:47Z</time>
  <course>87.48</course>
  <speed>0.0</speed>
  <fix>3d</fix>
</trkpt>
<trkpt lat="33.8106148" lon="-118.3935739">
  <ele>-12.877</ele>
  <time>2026-09-01T01:14:47Z</time>
  <course>157.19</course>
  <speed>0.02</speed>
  <fix>3d</fix>
</trkpt>
<trkpt lat="33.8106148" lon="-118.3935739">
  <ele>-12.958</ele>
  <time>2026-09-01T01:14:47Z</time>
  <course>157.19</course>
  <speed>0.02</speed>
  <fix>3d</fix>
</trkpt>
<trkpt lat="33.8106149" lon="-118.393574">
  <ele>-11.86</ele>
  <time>2026-09-01T01:14:47Z</time>
  <course>87.48</course>
  <speed>0.0</speed>
  <fix>3d</fix>
</trkpt>
<trkpt lat="33.8106148" lon="-118.3935739">
  <ele>-12.961</ele>
  <time>2026-09-01T01:14:47Z</time>
  <course>157.19</course>
  <speed>0.02</speed>
  <fix>3d</fix>
</trkpt>
<trkpt lat="33.8106148" lon="-118.3935739">
  <ele>-13.078</ele>
  <time>2026-09-01T01:14:47Z</time>
  <course>157.2</course>
  <speed>0.02</speed>
  <fix>3d</fix>
</trkpt>
<trkpt lat="33.8106149" lon="-118.393574">
  <ele>-12.1</ele>
  <time>2026-09-01T01:14:47Z</time>
  <course>87.54</course>
  <speed>0.0</speed>
  <fix>3d</fix>
</trkpt>
<trkpt lat="33.8106148" lon="-118.3935739">
  <ele>-13.12</ele>
  <time>2026-09-01T01:14:47Z</time>
  <course>157.21</course>
  <speed>0.02</speed>
  <fix>3d</fix>
</trkpt>
<trkpt lat="33.8106148" lon="-118.3935739">
  <ele>-13.199</ele>
  <time>2026-09-01T01:14:47Z</time>
  <course>157.21</course>
  <speed>0.02</speed>
  <fix>3d</fix>
</trkpt>
<trkpt lat="33.8106149" lon="-118.393574">
  <ele>-12.1</ele>
  <time>2026-09-01T01:14:47Z</time>
  <course>87.54</course>
  <speed>0.0</speed>
  <fix>3d</fix>
</trkpt>
<trkpt lat="33.8106148" lon="-118.3935739">
  <ele>-13.238</ele>
  <time>2026-09-01T01:14:47Z</time>
  <course>157.21</course>
  <speed>0.02</speed>
  <fix>3d</fix>
</trkpt>
<trkpt lat="33.8106148" lon="-118.3935738">
  <ele>-13.321</ele>
  <time>2026-09-01T01:14:47Z</time>
  <course>157.22</course>
  <speed>0.02</speed>
  <fix>3d</fix>
</trkpt>
<trkpt lat="33.8106149" lon="-118.393574">
  <ele>-12.35</ele>
  <time>2026-09-01T01:14:47Z</time>
  <course>87.59</course>
  <speed>0.0</speed>
  <fix>3d</fix>
</trkpt>
<trkpt lat="33.8106148" lon="-118.3935738">
  <ele>-13.357</ele>
  <time>2026-09-01T01:14:47Z</time>
  <course>157.22</course>
  <speed>0.02</speed>
  <fix>3d</fix>
</trkpt>
<trkpt lat="33.8106148" lon="-118.3935738">
  <ele>-13.443</ele>
  <time>2026-09-01T01:14:47Z</time>
  <course>157.23</course>
  <speed>0.02</speed>
  <fix>3d</fix>
</trkpt>
<trkpt lat="33.8106149" lon="-118.393574">
  <ele>-12.35</ele>
  <time>2026-09-01T01:14:47Z</time>
  <course>87.59</course>
  <speed>0.0</speed>
  <fix>3d</fix>
</trkpt>
<trkpt lat="33.8106148" lon="-118.3935738">
  <ele>-13.48</ele>
  <time>2026-09-01T01:14:47Z</time>
  <course>157.23</course>
  <speed>0.02</speed>
  <fix>3d</fix>
</trkpt>
<trkpt lat="33.8106148" lon="-118.3935738">
  <ele>-13.566</ele>
  <time>2026-09-01T01:14:47Z</time>
  <course>157.23</course>
  <speed>0.02</speed>
  <fix>3d</fix>
</trkpt>
<trkpt lat="33.8106149" lon="-118.393574">
  <ele>-12.59</ele>
  <time>2026-09-01T01:14:47Z</time>
  <course>87.62</course>
  <speed>0.0</speed>
  <fix>3d</fix>
</trkpt>
<trkpt lat="33.8106148" lon="-118.3935738">
  <ele>-13.609</ele>
  <time>2026-09-01T01:14:47Z</time>
  <course>157.24</course>
  <speed>0.02</speed>
  <fix>3d</fix>
</trkpt>
<trkpt lat="33.8106148" lon="-118.3935738">
  <ele>-13.689</ele>
  <time>2026-09-01T01:14:47Z</time>
  <course>157.24</course>
  <speed>0.02</speed>
  <fix>3d</fix>
</trkpt>
<trkpt lat="33.8106149" lon="-118.393574">
  <ele>-12.59</ele>
  <time>2026-09-01T01:14:47Z</time>
  <course>87.62</course>
  <speed>0.0</speed>
  <fix>3d</fix>
</trkpt>
<trkpt lat="33.8106148" lon="-118.3935738">
  <ele>-13.726</ele>
  <time>2026-09-01T01:14:47Z</time>
  <course>157.24</course>
  <speed>0.02</speed>
  <fix>3d</fix>
</trkpt>
<trkpt lat="33.8106148" lon="-118.3935738">
  <ele>-13.813</ele>
  <time>2026-09-01T01:14:47Z</time>
  <course>157.25</course>
  <speed>0.02</speed>
  <fix>3d</fix>
</trkpt>
<trkpt lat="33.8106149" lon="-118.393574">
  <ele>-12.83</ele>
  <time>2026-09-01T01:14:47Z</time>
  <course>87.67</course>
  <speed>0.0</speed>
  <fix>3d</fix>
</trkpt>
<trkpt lat="33.8106148" lon="-118.3935738">
  <ele>-13.816</ele>
  <time>2026-09-01T01:14:47Z</time>
  <course>157.25</course>
  <speed>0.02</speed>
  <fix>3d</fix>
</trkpt>
<trkpt lat="33.8106148" lon="-118.3935738">
  <ele>-13.935</ele>
  <time>2026-09-01T01:14:47Z</time>
  <course>157.26</course>
  <speed>0.02</speed>
  <fix>3d</fix>
</trkpt>
<trkpt lat="33.8106149" lon="-118.393574">
  <ele>-12.83</ele>
  <time>2026-09-01T01:14:47Z</time>
  <course>87.67</course>
  <speed>0.0</speed>
  <fix>3d</fix>
</trkpt>
<trkpt lat="33.8106148" lon="-118.3935738">
  <ele>-13.975</ele>
  <time>2026-09-01T01:14:47Z</time>
  <course>157.26</course>
  <speed>0.02</speed>
  <fix>3d</fix>
</trkpt>
<trkpt lat="33.8106148" lon="-118.3935738">
  <ele>-14.057</ele>
  <time>2026-09-01T01:14:47Z</time>
  <course>157.26</course>
  <speed>0.02</speed>
  <fix>3d</fix>
</trkpt>
<trkpt lat="33.8106149" lon="-118.3935739">
  <ele>-13.08</ele>
  <time>2026-09-01T01:14:47Z</time>
  <course>87.74</course>
  <speed>0.0</speed>
  <fix>3d</fix>
</trkpt>
<trkpt lat="33.8106148" lon="-118.3935738">
  <ele>-14.094</ele>
  <time>2026-09-01T01:14:47Z</time>
  <course>157.27</course>
  <speed>0.02</speed>
  <fix>3d</fix>
</trkpt>
<trkpt lat="33.8106148" lon="-118.3935738">
  <ele>-14.179</ele>
  <time>2026-09-01T01:14:47Z</time>
  <course>157.27</course>
  <speed>0.02</speed>
  <fix>3d</fix>
</trkpt>
<trkpt lat="33.8106149" lon="-118.3935739">
  <ele>-13.08</ele>
  <time>2026-09-01T01:14:47Z</time>
  <course>87.74</course>
  <speed>0.0</speed>
  <fix>3d</fix>
</trkpt>
<trkpt lat="33.8106148" lon="-118.3935738">
  <ele>-14.219</ele>
  <time>2026-09-01T01:14:47Z</time>
  <course>157.27</course>
  <speed>0.02</speed>
  <fix>3d</fix>
</trkpt>
<trkpt lat="33.8106148" lon="-118.3935738">
  <ele>-14.301</ele>
  <time>2026-09-01T01:14:47Z</time>
  <course>157.28</course>
  <speed>0.02</speed>
  <fix>3d</fix>
</trkpt>
<trkpt lat="33.8106149" lon="-118.3935739">
  <ele>-13.32</ele>
  <time>2026-09-01T01:14:47Z</time>
  <course>87.82</course>
  <speed>0.0</speed>
  <fix>3d</fix>
</trkpt>
<trkpt lat="33.8106148" lon="-118.3935738">
  <ele>-14.338</ele>
  <time>2026-09-01T01:14:47Z</time>
  <course>157.28</course>
  <speed>0.02</speed>
  <fix>3d</fix>
</trkpt>
<trkpt lat="33.8106148" lon="-118.3935738">
  <ele>-14.424</ele>
  <time>2026-09-01T01:14:47Z</time>
  <course>157.29</course>
  <speed>0.02</speed>
  <fix>3d</fix>
</trkpt>
<trkpt lat="33.8106149" lon="-118.3935739">
  <ele>-13.32</ele>
  <time>2026-09-01T01:14:47Z</time>
  <course>87.82</course>
  <speed>0.0</speed>
  <fix>3d</fix>
</trkpt>
<trkpt lat="33.8106148" lon="-118.3935738">
  <ele>-14.427</ele>
  <time>2026-09-01T01:14:47Z</time>
  <course>157.29</course>
  <speed>0.02</speed>
  <fix>3d</fix>
</trkpt>
<trkpt lat="33.8106148" lon="-118.3935738">
  <ele>-14.546</ele>
  <time>2026-09-01T01:14:47Z</time>
  <course>157.29</course>
  <speed>0.02</speed>
  <fix>3d</fix>
</trkpt>
<trkpt lat="33.8106149" lon="-118.3935739">
  <ele>-13.56</ele>
  <time>2026-09-01T01:14:47Z</time>
  <course>87.89</course>
  <speed>0.0</speed>
  <fix>3d</fix>
</trkpt>
<trkpt lat="33.8106148" lon="-118.3935738">
  <ele>-14.549</ele>
  <time>2026-09-01T01:14:47Z</time>
  <course>157.29</course>
  <speed>0.02</speed>
  <fix>3d</fix>
</trkpt>
<trkpt lat="33.8106148" lon="-118.3935738">
  <ele>-14.67</ele>
  <time>2026-09-01T01:14:47Z</time>
  <course>157.3</course>
  <speed>0.02</speed>
  <fix>3d</fix>
</trkpt>
<trkpt lat="33.8106149" lon="-118.3935739">
  <ele>-13.56</ele>
  <time>2026-09-01T01:14:47Z</time>
  <course>87.89</course>
  <speed>0.0</speed>
  <fix>3d</fix>
</trkpt>
<trkpt lat="33.8106148" lon="-118.3935738">
  <ele>-14.71</ele>
  <time>2026-09-01T01:14:47Z</time>
  <course>157.3</course>
  <speed>0.02</speed>
  <fix>3d</fix>
</trkpt>
<trkpt lat="33.8106148" lon="-118.3935738">
  <ele>-14.793</ele>
  <time>2026-09-01T01:14:47Z</time>
  <course>157.31</course>
  <speed>0.02</speed>
  <fix>3d</fix>
</trkpt>
<trkpt lat="33.8106149" lon="-118.3935739">
  <ele>-13.8</ele>
  <time>2026-09-01T01:14:47Z</time>
  <course>87.95</course>
  <speed>0.0</speed>
  <fix>3d</fix>
</trkpt>
<trkpt lat="33.8106148" lon="-118.3935737">
  <ele>-14.832</ele>
  <time>2026-09-01T01:14:47Z</time>
  <course>157.31</course>
  <speed>0.02</speed>
  <fix>3d</fix>
</trkpt>
<trkpt lat="33.8106148" lon="-118.3935737">
  <ele>-14.92</ele>
  <time>2026-09-01T01:14:47Z</time>
  <course>157.32</course>
  <speed>0.02</speed>
  <fix>3d</fix>
</trkpt>
<trkpt lat="33.8106149" lon="-118.3935739">
  <ele>-13.8</ele>
  <time>2026-09-01T01:14:47Z</time>
  <course>87.95</course>
  <speed>0.0</speed>
  <fix>3d</fix>
</trkpt>
<trkpt lat="33.8106148" lon="-118.3935737">
  <ele>-14.96</ele>
  <time>2026-09-01T01:14:47Z</time>
  <course>157.32</course>
  <speed>0.02</speed>
  <fix>3d</fix>
</trkpt>
<trkpt lat="33.8106148" lon="-118.3935737">
  <ele>-15.045</ele>
  <time>2026-09-01T01:14:47Z</time>
  <course>157.32</course>
  <speed>0.02</speed>
  <fix>3d</fix>
</trkpt>
<trkpt lat="33.8106149" lon="-118.3935739">
  <ele>-14.05</ele>
  <time>2026-09-01T01:14:47Z</time>
  <course>87.99</course>
  <speed>0.0</speed>
  <fix>3d</fix>
</trkpt>
<trkpt lat="33.8106148" lon="-118.3935737">
  <ele>-15.048</ele>
  <time>2026-09-01T01:14:47Z</time>
  <course>157.32</course>
  <speed>0.02</speed>
  <fix>3d</fix>
</trkpt>
<trkpt lat="33.8106148" lon="-118.3935737">
  <ele>-15.171</ele>
  <time>2026-09-01T01:14:47Z</time>
  <course>157.33</course>
  <speed>0.02</speed>
  <fix>3d</fix>
</trkpt>
<trkpt lat="33.8106149" lon="-118.3935739">
  <ele>-14.05</ele>
  <time>2026-09-01T01:14:47Z</time>
  <course>87.99</course>
  <speed>0.0</speed>
  <fix>3d</fix>
</trkpt>
<trkpt lat="33.8106148" lon="-118.3935737">
  <ele>-15.212</ele>
  <time>2026-09-01T01:14:47Z</time>
  <course>157.33</course>
  <speed>0.02</speed>
  <fix>3d</fix>
</trkpt>
<trkpt lat="33.8106148" lon="-118.3935737">
  <ele>-15.297</ele>
  <time>2026-09-01T01:14:47Z</time>
  <course>157.34</course>
  <speed>0.02</speed>
  <fix>3d</fix>
</trkpt>
<trkpt lat="33.8106149" lon="-118.3935739">
  <ele>-14.29</ele>
  <time>2026-09-01T01:14:47Z</time>
  <course>88.02</course>
  <speed>0.0</speed>
  <fix>3d</fix>
</trkpt>
<trkpt lat="33.8106148" lon="-118.3935737">
  <ele>-15.339</ele>
  <time>2026-09-01T01:14:47Z</time>
  <course>157.34</course>
  <speed>0.02</speed>
  <fix>3d</fix>
</trkpt>
<trkpt lat="33.8106148" lon="-118.3935737">
  <ele>-15.424</ele>
  <time>2026-09-01T01:14:47Z</time>
  <course>157.35</course>
  <speed>0.02</speed>
  <fix>3d</fix>
</trkpt>
<trkpt lat="33.8106149" lon="-118.3935739">
  <ele>-14.29</ele>
  <time>2026-09-01T01:14:47Z</time>
  <course>88.02</course>
  <speed>0.0</speed>
  <fix>3d</fix>
</trkpt>
<trkpt lat="33.8106148" lon="-118.3935737">
  <ele>-15.469</ele>
  <time>2026-09-01T01:14:47Z</time>
  <course>157.35</course>
  <speed>0.02</speed>
  <fix>3d</fix>
</trkpt>
<trkpt lat="33.8106148" lon="-118.3935737">
  <ele>-15.552</ele>
  <time>2026-09-01T01:14:47Z</time>
  <course>157.35</course>
  <speed>0.02</speed>
  <fix>3d</fix>
</trkpt>
<trkpt lat="33.8106149" lon="-118.3935738">
  <ele>-14.54</ele>
  <time>2026-09-01T01:14:47Z</time>
  <course>88.07</course>
  <speed>0.0</speed>
  <fix>3d</fix>
</trkpt>
<trkpt lat="33.8106148" lon="-118.3935737">
  <ele>-15.594</ele>
  <time>2026-09-01T01:14:47Z</time>
  <course>157.36</course>
  <speed>0.02</speed>
  <fix>3d</fix>
</trkpt>
<trkpt lat="33.8106148" lon="-118.3935737">
  <ele>-15.679</ele>
  <time>2026-09-01T01:14:47Z</time>
  <course>157.36</course>
  <speed>0.02</speed>
  <fix>3d</fix>
</trkpt>
<trkpt lat="33.8106149" lon="-118.3935738">
  <ele>-14.54</ele>
  <time>2026-09-01T01:14:47Z</time>
  <course>88.07</course>
  <speed>0.0</speed>
  <fix>3d</fix>
</trkpt>
<trkpt lat="33.8106148" lon="-118.3935737">
  <ele>-15.717</ele>
  <time>2026-09-01T01:14:47Z</time>
  <course>157.36</course>
  <speed>0.02</speed>
  <fix>3d</fix>
</trkpt>
<trkpt lat="33.8106148" lon="-118.3935737">
  <ele>-15.806</ele>
  <time>2026-09-01T01:14:47Z</time>
  <course>157.37</course>
  <speed>0.02</speed>
  <fix>3d</fix>
</trkpt>
<trkpt lat="33.8106149" lon="-118.3935738">
  <ele>-14.78</ele>
  <time>2026-09-01T01:14:47Z</time>
  <course>88.14</course>
  <speed>0.0</speed>
  <fix>3d</fix>
</trkpt>
<trkpt lat="33.8106148" lon="-118.3935737">
  <ele>-15.844</ele>
  <time>2026-09-01T01:14:47Z</time>
  <course>157.37</course>
  <speed>0.02</speed>
  <fix>3d</fix>
</trkpt>
<trkpt lat="33.8106148" lon="-118.3935737">
  <ele>-15.933</ele>
  <time>2026-09-01T01:14:47Z</time>
  <course>157.37</course>
  <speed>0.02</speed>
  <fix>3d</fix>
</trkpt>
<trkpt lat="33.8106149" lon="-118.3935738">
  <ele>-14.78</ele>
  <time>2026-09-01T01:14:47Z</time>
  <course>88.14</course>
  <speed>0.0</speed>
  <fix>3d</fix>
</trkpt>
<trkpt lat="33.8106148" lon="-118.3935737">
  <ele>-15.974</ele>
  <time>2026-09-01T01:14:47Z</time>
  <course>157.38</course>
  <speed>0.02</speed>
  <fix>3d</fix>
</trkpt>
<trkpt lat="33.8106148" lon="-118.3935737">
  <ele>-16.061</ele>
  <time>2026-09-01T01:14:47Z</time>
  <course>157.38</course>
  <speed>0.02</speed>
  <fix>3d</fix>
</trkpt>
<trkpt lat="33.8106149" lon="-118.3935738">
  <ele>-15.02</ele>
  <time>2026-09-01T01:14:47Z</time>
  <course>88.22</course>
  <speed>0.0</speed>
  <fix>3d</fix>
</trkpt>
<trkpt lat="33.8106148" lon="-118.3935737">
  <ele>-16.064</ele>
  <time>2026-09-01T01:14:47Z</time>
  <course>157.38</course>
  <speed>0.02</speed>
  <fix>3d</fix>
</trkpt>
<trkpt lat="33.8106148" lon="-118.3935737">
  <ele>-16.19</ele>
  <time>2026-09-01T01:14:47Z</time>
  <course>157.39</course>
  <speed>0.02</speed>
  <fix>3d</fix>
</trkpt>
<trkpt lat="33.8106149" lon="-118.3935738">
  <ele>-15.02</ele>
  <time>2026-09-01T01:14:47Z</time>
  <course>88.22</course>
  <speed>0.0</speed>
  <fix>3d</fix>
</trkpt>
<trkpt lat="33.8106148" lon="-118.3935737">
  <ele>-16.192</ele>
  <time>2026-09-01T01:14:47Z</time>
  <course>157.39</course>
  <speed>0.02</speed>
  <fix>3d</fix>
</trkpt>
<trkpt lat="33.8106148" lon="-118.3935737">
  <ele>-16.317</ele>
  <time>2026-09-01T01:14:47Z</time>
  <course>157.38</course>
  <speed>0.02</speed>
  <fix>3d</fix>
</trkpt>
<trkpt lat="33.8106149" lon="-118.3935738">
  <ele>-15.27</ele>
  <time>2026-09-01T01:14:47Z</time>
  <course>88.29</course>
  <speed>0.0</speed>
  <fix>3d</fix>
</trkpt>
<trkpt lat="33.8106148" lon="-118.3935737">
  <ele>-16.357</ele>
  <time>2026-09-01T01:14:47Z</time>
  <course>157.38</course>
  <speed>0.02</speed>
  <fix>3d</fix>
</trkpt>
<trkpt lat="33.8106148" lon="-118.3935736">
  <ele>-16.443</ele>
  <time>2026-09-01T01:14:47Z</time>
  <course>157.37</course>
  <speed>0.02</speed>
  <fix>3d</fix>
</trkpt>
<trkpt lat="33.8106149" lon="-118.3935738">
  <ele>-15.27</ele>
  <time>2026-09-01T01:14:47Z</time>
  <course>88.29</course>
  <speed>0.0</speed>
  <fix>3d</fix>
</trkpt>
<trkpt lat="33.8106148" lon="-118.3935736">
  <ele>-16.447</ele>
  <time>2026-09-01T01:14:47Z</time>
  <course>157.37</course>
  <speed>0.02</speed>
  <fix>3d</fix>
</trkpt>
<trkpt lat="33.8106148" lon="-118.3935736">
  <ele>-16.569</ele>
  <time>2026-09-01T01:14:47Z</time>
  <course>157.36</course>
  <speed>0.02</speed>
  <fix>3d</fix>
</trkpt>
<trkpt lat="33.8106149" lon="-118.3935738">
  <ele>-15.51</ele>
  <time>2026-09-01T01:14:47Z</time>
  <course>88.33</course>
  <speed>0.0</speed>
  <fix>3d</fix>
</trkpt>
<trkpt lat="33.8106148" lon="-118.3935736">
  <ele>-16.609</ele>
  <time>2026-09-01T01:14:47Z</time>
  <course>157.36</course>
  <speed>0.02</speed>
  <fix>3d</fix>
</trkpt>
<trkpt lat="33.8106148" lon="-118.3935736">
  <ele>-16.694</ele>
  <time>2026-09-01T01:14:47Z</time>
  <course>157.34</course>
  <speed>0.02</speed>
  <fix>3d</fix>
</trkpt>
<trkpt lat="33.8106149" lon="-118.3935738">
  <ele>-15.51</ele>
  <time>2026-09-01T01:14:47Z</time>
  <course>88.33</course>
  <speed>0.0</speed>
  <fix>3d</fix>
</trkpt>
<trkpt lat="33.8106148" lon="-118.3935736">
  <ele>-16.744</ele>
  <time>2026-09-01T01:14:47Z</time>
  <course>157.33</course>
  <speed>0.02</speed>
  <fix>3d</fix>
</trkpt>
<trkpt lat="33.8106148" lon="-118.3935736">
  <ele>-16.819</ele>
  <time>2026-09-01T01:14:47Z</time>
  <course>157.32</course>
  <speed>0.02</speed>
  <fix>3d</fix>
</trkpt>
<trkpt lat="33.8106149" lon="-118.3935738">
  <ele>-15.75</ele>
  <time>2026-09-01T01:14:47Z</time>
  <course>88.36</course>
  <speed>0.0</speed>
  <fix>3d</fix>
</trkpt>
<trkpt lat="33.8106148" lon="-118.3935736">
  <ele>-16.856</ele>
  <time>2026-09-01T01:14:47Z</time>
  <course>157.32</course>
  <speed>0.02</speed>
  <fix>3d</fix>
</trkpt>
<trkpt lat="33.8106148" lon="-118.3935736">
  <ele>-16.944</ele>
  <time>2026-09-01T01:14:47Z</time>
  <course>157.3</course>
  <speed>0.02</speed>
  <fix>3d</fix>
</trkpt>
<trkpt lat="33.8106149" lon="-118.3935738">
  <ele>-15.75</ele>
  <time>2026-09-01T01:14:47Z</time>
  <course>88.36</course>
  <speed>0.0</speed>
  <fix>3d</fix>
</trkpt>
<trkpt lat="33.8106148" lon="-118.3935736">
  <ele>-16.985</ele>
  <time>2026-09-01T01:14:47Z</time>
  <course>157.29</course>
  <speed>0.02</speed>
  <fix>3d</fix>
</trkpt>
<trkpt lat="33.8106148" lon="-118.3935736">
  <ele>-17.069</ele>
  <time>2026-09-01T01:14:47Z</time>
  <course>157.28</course>
  <speed>0.02</speed>
  <fix>3d</fix>
</trkpt>
<trkpt lat="33.8106149" lon="-118.3935738">
  <ele>-16.0</ele>
  <time>2026-09-01T01:14:47Z</time>
  <course>88.39</course>
  <speed>0.0</speed>
  <fix>3d</fix>
</trkpt>
<trkpt lat="33.8106148" lon="-118.3935736">
  <ele>-17.107</ele>
  <time>2026-09-01T01:14:47Z</time>
  <course>157.27</course>
  <speed>0.02</speed>
  <fix>3d</fix>
</trkpt>
<trkpt lat="33.8106148" lon="-118.3935736">
  <ele>-17.193</ele>
  <time>2026-09-01T01:14:47Z</time>
  <course>157.26</course>
  <speed>0.02</speed>
  <fix>3d</fix>
</trkpt>
<trkpt lat="33.8106149" lon="-118.3935738">
  <ele>-16.0</ele>
  <time>2026-09-01T01:14:47Z</time>
  <course>88.39</course>
  <speed>0.0</speed>
  <fix>3d</fix>
</trkpt>
<trkpt lat="33.8106148" lon="-118.3935736">
  <ele>-17.23</ele>
  <time>2026-09-01T01:14:47Z</time>
  <course>157.25</course>
  <speed>0.02</speed>
  <fix>3d</fix>
</trkpt>
<trkpt lat="33.8106148" lon="-118.3935736">
  <ele>-17.316</ele>
  <time>2026-09-01T01:14:47Z</time>
  <course>157.24</course>
  <speed>0.02</speed>
  <fix>3d</fix>
</trkpt>
<trkpt lat="33.8106149" lon="-118.3935737">
  <ele>-16.24</ele>
  <time>2026-09-01T01:14:47Z</time>
  <course>88.44</course>
  <speed>0.0</speed>
  <fix>3d</fix>
</trkpt>
<trkpt lat="33.8106148" lon="-118.3935736">
  <ele>-17.359</ele>
  <time>2026-09-01T01:14:47Z</time>
  <course>157.23</course>
  <speed>0.02</speed>
  <fix>3d</fix>
</trkpt>
<trkpt lat="33.8106148" lon="-118.3935736">
  <ele>-17.441</ele>
  <time>2026-09-01T01:14:47Z</time>
  <course>157.22</course>
  <speed>0.02</speed>
  <fix>3d</fix>
</trkpt>
<trkpt lat="33.8106149" lon="-118.3935737">
  <ele>-16.24</ele>
  <time>2026-09-01T01:14:47Z</time>
  <course>88.44</course>
  <speed>0.0</speed>
  <fix>3d</fix>
</trkpt>
<trkpt lat="33.8106148" lon="-118.3935736">
  <ele>-17.478</ele>
  <time>2026-09-01T01:14:47Z</time>
  <course>157.21</course>
  <speed>0.022360679774997897</speed>
  <fix>3d</fix>
</trkpt>
<trkpt lat="33.8106148" lon="-118.3935736">
  <ele>-17.565</ele>
  <time>2026-09-01T01:14:47Z</time>
  <course>157.2</course>
  <speed>0.022360679774997897</speed>
  <fix>3d</fix>
</trkpt>
<trkpt lat="33.8106149" lon="-118.3935737">
  <ele>-16.48</ele>
  <time>2026-09-01T01:14:47Z</time>
  <course>88.51</course>
  <speed>0.0</speed>
  <fix>3d</fix>
</trkpt>
<trkpt lat="33.8106148" lon="-118.3935736">
  <ele>-17.606</ele>
  <time>2026-09-01T01:14:47Z</time>
  <course>157.19</course>
  <speed>0.022360679774997897</speed>
  <fix>3d</fix>
</trkpt>
<trkpt lat="33.8106148" lon="-118.3935736">
  <ele>-17.69</ele>
  <time>2026-09-01T01:14:47Z</time>
  <course>157.18</course>
  <speed>0.022360679774997897</speed>
  <fix>3d</fix>
</trkpt>
<trkpt lat="33.8106149" lon="-118.3935737">
  <ele>-16.48</ele>
  <time>2026-09-01T01:14:47Z</time>
  <course>88.51</course>
  <speed>0.0</speed>
  <fix>3d</fix>
</trkpt>
<trkpt lat="33.8106148" lon="-118.3935736">
  <ele>-17.696</ele>
  <time>2026-09-01T01:14:47Z</time>
  <course>157.17</course>
  <speed>0.022360679774997897</speed>
  <fix>3d</fix>
</trkpt>
<trkpt lat="33.8106148" lon="-118.3935736">
  <ele>-17.815</ele>
  <time>2026-09-01T01:14:47Z</time>
  <course>157.16</course>
  <speed>0.022360679774997897</speed>
  <fix>3d</fix>
</trkpt>
<trkpt lat="33.8106149" lon="-118.3935737">
  <ele>-16.73</ele>
  <time>2026-09-01T01:14:47Z</time>
  <course>88.59</course>
  <speed>0.0</speed>
  <fix>3d</fix>
</trkpt>
<trkpt lat="33.8106148" lon="-118.3935736">
  <ele>-17.818</ele>
  <time>2026-09-01T01:14:47Z</time>
  <course>157.15</course>
  <speed>0.022360679774997897</speed>
  <fix>3d</fix>
</trkpt>
<trkpt lat="33.8106148" lon="-118.3935736">
  <ele>-17.94</ele>
  <time>2026-09-01T01:14:47Z</time>
  <course>157.14</course>
  <speed>0.022360679774997897</speed>
  <fix>3d</fix>
</trkpt>
<trkpt lat="33.8106149" lon="-118.3935737">
  <ele>-16.73</ele>
  <time>2026-09-01T01:14:47Z</time>
  <course>88.59</course>
  <speed>0.0</speed>
  <fix>3d</fix>
</trkpt>
<trkpt lat="33.8106148" lon="-118.3935735">
  <ele>-17.981</ele>
  <time>2026-09-01T01:14:47Z</time>
  <course>157.13</course>
  <speed>0.022360679774997897</speed>
  <fix>3d</fix>
</trkpt>
<trkpt lat="33.8106148" lon="-118.3935735">
  <ele>-18.066</ele>
  <time>2026-09-01T01:14:47Z</time>
  <course>157.12</course>
  <speed>0.022360679774997897</speed>
  <fix>3d</fix>
</trkpt>
<trkpt lat="33.8106149" lon="-118.3935737">
  <ele>-16.97</ele>
  <time>2026-09-01T01:14:47Z</time>
  <course>88.64</course>
  <speed>0.0</speed>
  <fix>3d</fix>
</trkpt>
<trkpt lat="33.8106148" lon="-118.3935735">
  <ele>-18.108</ele>
  <time>2026-09-01T01:14:47Z</time>
  <course>157.11</course>
  <speed>0.022360679774997897</speed>
  <fix>3d</fix>
</trkpt>
<trkpt lat="33.8106148" lon="-118.3935735">
  <ele>-18.193</ele>
  <time>2026-09-01T01:14:47Z</time>
  <course>157.1</course>
  <speed>0.022360679774997897</speed>
  <fix>3d</fix>
</trkpt>
<trkpt lat="33.8106149" lon="-118.3935737">
  <ele>-16.97</ele>
  <time>2026-09-01T01:14:47Z</time>
  <course>88.64</course>
  <speed>0.0</speed>
  <fix>3d</fix>
</trkpt>
<trkpt lat="33.8106148" lon="-118.3935735">
  <ele>-18.231</ele>
  <time>2026-09-01T01:14:47Z</time>
  <course>157.09</course>
  <speed>0.022360679774997897</speed>
  <fix>3d</fix>
</trkpt>
<trkpt lat="33.8106148" lon="-118.3935735">
  <ele>-18.319</ele>
  <time>2026-09-01T01:14:47Z</time>
  <course>157.08</course>
  <speed>0.022360679774997897</speed>
  <fix>3d</fix>
</trkpt>
<trkpt lat="33.8106149" lon="-118.3935737">
  <ele>-17.21</ele>
  <time>2026-09-01T01:14:47Z</time>
  <course>88.67</course>
  <speed>0.0</speed>
  <fix>3d</fix>
</trkpt>
<trkpt lat="33.8106148" lon="-118.3935735">
  <ele>-18.36</ele>
  <time>2026-09-01T01:14:47Z</time>
  <course>157.07</course>
  <speed>0.022360679774997897</speed>
  <fix>3d</fix>
</trkpt>
<trkpt lat="33.8106148" lon="-118.3935735">
  <ele>-18.445</ele>
  <time>2026-09-01T01:14:47Z</time>
  <course>157.06</course>
  <speed>0.022360679774997897</speed>
  <fix>3d</fix>
</trkpt>
<trkpt lat="33.8106149" lon="-118.3935737">
  <ele>-17.21</ele>
  <time>2026-09-01T01:14:47Z</time>
  <course>88.67</course>
  <speed>0.0</speed>
  <fix>3d</fix>
</trkpt>
<trkpt lat="33.8106148" lon="-118.3935735">
  <ele>-18.485</ele>
  <time>2026-09-01T01:14:47Z</time>
  <course>157.05</course>
  <speed>0.022360679774997897</speed>
  <fix>3d</fix>
</trkpt>
<trkpt lat="33.8106148" lon="-118.3935735">
  <ele>-18.57</ele>
  <time>2026-09-01T01:14:47Z</time>
  <course>157.04</course>
  <speed>0.022360679774997897</speed>
  <fix>3d</fix>
</trkpt>
<trkpt lat="33.8106149" lon="-118.3935737">
  <ele>-17.46</ele>
  <time>2026-09-01T01:14:47Z</time>
  <course>88.69</course>
  <speed>0.0</speed>
  <fix>3d</fix>
</trkpt>
<trkpt lat="33.8106148" lon="-118.3935735">
  <ele>-18.607</ele>
  <time>2026-09-01T01:14:47Z</time>
  <course>157.03</course>
  <speed>0.022360679774997897</speed>
  <fix>3d</fix>
</trkpt>
<trkpt lat="33.8106148" lon="-118.3935735">
  <ele>-18.695</ele>
  <time>2026-09-01T01:14:47Z</time>
  <course>157.02</course>
  <speed>0.022360679774997897</speed>
  <fix>3d</fix>
</trkpt>
<trkpt lat="33.8106149" lon="-118.3935737">
  <ele>-17.46</ele>
  <time>2026-09-01T01:14:47Z</time>
  <course>88.69</course>
  <speed>0.0</speed>
  <fix>3d</fix>
</trkpt>
<trkpt lat="33.8106148" lon="-118.3935735">
  <ele>-18.734</ele>
  <time>2026-09-01T01:14:47Z</time>
  <course>157.01</course>
  <speed>0.022360679774997897</speed>
  <fix>3d</fix>
</trkpt>
<trkpt lat="33.8106148" lon="-118.3935735">
  <ele>-18.819</ele>
  <time>2026-09-01T01:14:47Z</time>
  <course>157.0</course>
  <speed>0.022360679774997897</speed>
  <fix>3d</fix>
</trkpt>
<trkpt lat="33.8106149" lon="-118.3935737">
  <ele>-17.7</ele>
  <time>2026-09-01T01:14:47Z</time>
  <course>88.72</course>
  <speed>0.0</speed>
  <fix>3d</fix>
</trkpt>
<trkpt lat="33.8106148" lon="-118.3935735">
  <ele>-18.858</ele>
  <time>2026-09-01T01:14:47Z</time>
  <course>156.99</course>
  <speed>0.022360679774997897</speed>
  <fix>3d</fix>
</trkpt>
<trkpt lat="33.8106148" lon="-118.3935735">
  <ele>-18.943</ele>
  <time>2026-09-01T01:14:47Z</time>
  <course>156.98</course>
  <speed>0.022360679774997897</speed>
  <fix>3d</fix>
</trkpt>
<trkpt lat="33.8106149" lon="-118.3935737">
  <ele>-17.7</ele>
  <time>2026-09-01T01:14:47Z</time>
  <course>88.72</course>
  <speed>0.0</speed>
  <fix>3d</fix>
</trkpt>
<trkpt lat="33.8106148" lon="-118.3935735">
  <ele>-18.986</ele>
  <time>2026-09-01T01:14:47Z</time>
  <course>156.98</course>
  <speed>0.022360679774997897</speed>
  <fix>3d</fix>
</trkpt>
<trkpt lat="33.8106148" lon="-118.3935735">
  <ele>-19.067</ele>
  <time>2026-09-01T01:14:47Z</time>
  <course>156.96</course>
  <speed>0.022360679774997897</speed>
  <fix>3d</fix>
</trkpt>
<trkpt lat="33.8106149" lon="-118.3935736">
  <ele>-17.94</ele>
  <time>2026-09-01T01:14:47Z</time>
  <course>88.77</course>
  <speed>0.0</speed>
  <fix>3d</fix>
</trkpt>
<trkpt lat="33.8106148" lon="-118.3935735">
  <ele>-19.07</ele>
  <time>2026-09-01T01:14:47Z</time>
  <course>156.96</course>
  <speed>0.022360679774997897</speed>
  <fix>3d</fix>
</trkpt>
<trkpt lat="33.8106148" lon="-118.3935735">
  <ele>-19.192</ele>
  <time>2026-09-01T01:14:47Z</time>
  <course>156.95</course>
  <speed>0.022360679774997897</speed>
  <fix>3d</fix>
</trkpt>
<trkpt lat="33.8106149" lon="-118.3935736">
  <ele>-17.94</ele>
  <time>2026-09-01T01:14:47Z</time>
  <course>88.77</course>
  <speed>0.0</speed>
  <fix>3d</fix>
</trkpt>
<trkpt lat="33.8106148" lon="-118.3935735">
  <ele>-19.316</ele>
  <time>2026-09-01T01:14:47Z</time>
  <course>156.93</course>
  <speed>0.022360679774997897</speed>
  <fix>3d</fix>
</trkpt>
<trkpt lat="33.8106149" lon="-118.3935736">
  <ele>-18.18</ele>
  <time>2026-09-01T01:14:47Z</time>
  <course>88.84</course>
  <speed>0.0</speed>
  <fix>3d</fix>
</trkpt>
<trkpt lat="33.8106148" lon="-118.3935735">
  <ele>-19.44</ele>
  <time>2026-09-01T01:14:47Z</time>
  <course>156.91</course>
  <speed>0.022360679774997897</speed>
  <fix>3d</fix>
</trkpt>
<trkpt lat="33.8106149" lon="-118.3935736">
  <ele>-18.18</ele>
  <time>2026-09-01T01:14:47Z</time>
  <course>88.84</course>
  <speed>0.0</speed>
  <fix>3d</fix>
</trkpt>
<trkpt lat="33.8106148" lon="-118.3935735">
  <ele>-19.561</ele>
  <time>2026-09-01T01:14:47Z</time>
  <course>156.89</course>
  <speed>0.022360679774997897</speed>
  <fix>3d</fix>
</trkpt>
<trkpt lat="33.8106149" lon="-118.3935736">
  <ele>-18.43</ele>
  <time>2026-09-01T01:14:47Z</time>
  <course>88.92</course>
  <speed>0.0</speed>
  <fix>3d</fix>
</trkpt>
<trkpt lat="33.8106148" lon="-118.3935734">
  <ele>-19.676</ele>
  <time>2026-09-01T01:14:47Z</time>
  <course>156.87</course>
  <speed>0.022360679774997897</speed>
  <fix>3d</fix>
</trkpt>
<trkpt lat="33.8106149" lon="-118.3935736">
  <ele>-18.43</ele>
  <time>2026-09-01T01:14:47Z</time>
  <course>88.92</course>
  <speed>0.0</speed>
  <fix>3d</fix>
</trkpt>
<trkpt lat="33.8106148" lon="-118.3935734">
  <ele>-19.779</ele>
  <time>2026-09-01T01:14:47Z</time>
  <course>156.86</course>
  <speed>0.022360679774997897</speed>
  <fix>3d</fix>
</trkpt>
<trkpt lat="33.8106149" lon="-118.3935736">
  <ele>-18.66</ele>
  <time>2026-09-01T01:14:47Z</time>
  <course>89.25</course>
  <speed>0.0</speed>
  <fix>3d</fix>
</trkpt>
<trkpt lat="33.8106148" lon="-118.3935734">
  <ele>-19.867</ele>
  <time>2026-09-01T01:14:47Z</time>
  <course>156.84</course>
  <speed>0.022360679774997897</speed>
  <fix>3d</fix>
</trkpt>
<trkpt lat="33.8106149" lon="-118.3935736">
  <ele>-18.66</ele>
  <time>2026-09-01T01:14:47Z</time>
  <course>89.25</course>
  <speed>0.0</speed>
  <fix>3d</fix>
</trkpt>
<trkpt lat="33.8106148" lon="-118.3935734">
  <ele>-19.94</ele>
  <time>2026-09-01T01:14:47Z</time>
  <course>156.82</course>
  <speed>0.022360679774997897</speed>
  <fix>3d</fix>
</trkpt>
<trkpt lat="33.8106149" lon="-118.3935736">
  <ele>-18.86</ele>
  <time>2026-09-01T01:14:47Z</time>
  <course>90.08</course>
  <speed>0.0</speed>
  <fix>3d</fix>
</trkpt>
<trkpt lat="33.8106148" lon="-118.3935734">
  <ele>-19.996</ele>
  <time>2026-09-01T01:14:47Z</time>
  <course>156.8</course>
  <speed>0.022360679774997897</speed>
  <fix>3d</fix>
</trkpt>
<trkpt lat="33.8106149" lon="-118.3935736">
  <ele>-18.86</ele>
  <time>2026-09-01T01:14:47Z</time>
  <course>90.08</course>
  <speed>0.0</speed>
  <fix>3d</fix>
</trkpt>
<trkpt lat="33.8106148" lon="-118.3935734">
  <ele>-20.038</ele>
  <time>2026-09-01T01:14:47Z</time>
  <course>156.79</course>
  <speed>0.022360679774997897</speed>
  <fix>3d</fix>
</trkpt>
<trkpt lat="33.8106149" lon="-118.3935736">
  <ele>-19.02</ele>
  <time>2026-09-01T01:14:47Z</time>
  <course>91.02</course>
  <speed>0.0</speed>
  <fix>3d</fix>
</trkpt>
<trkpt lat="33.8106148" lon="-118.3935734">
  <ele>-20.069</ele>
  <time>2026-09-01T01:14:47Z</time>
  <course>156.77</course>
  <speed>0.022360679774997897</speed>
  <fix>3d</fix>
</trkpt>
<trkpt lat="33.8106149" lon="-118.3935736">
  <ele>-19.02</ele>
  <time>2026-09-01T01:14:47Z</time>
  <course>91.02</course>
  <speed>0.0</speed>
  <fix>3d</fix>
</trkpt>
<trkpt lat="33.8106148" lon="-118.3935734">
  <ele>-20.089</ele>
  <time>2026-09-01T01:14:47Z</time>
  <course>156.75</course>
  <speed>0.022360679774997897</speed>
  <fix>3d</fix>
</trkpt>
<trkpt lat="33.8106149" lon="-118.3935736">
  <ele>-19.11</ele>
  <time>2026-09-01T01:14:47Z</time>
  <course>91.49</course>
  <speed>0.0</speed>
  <fix>3d</fix>
</trkpt>
<trkpt lat="33.8106148" lon="-118.3935734">
  <ele>-20.1</ele>
  <time>2026-09-01T01:14:47Z</time>
  <course>156.74</course>
  <speed>0.022360679774997897</speed>
  <fix>3d</fix>
</trkpt>
<trkpt lat="33.8106149" lon="-118.3935736">
  <ele>-19.11</ele>
  <time>2026-09-01T01:14:47Z</time>
  <course>91.49</course>
  <speed>0.0</speed>
  <fix>3d</fix>
</trkpt>
<trkpt lat="33.8106148" lon="-118.3935734">
  <ele>-20.104</ele>
  <time>2026-09-01T01:14:47Z</time>
  <course>156.72</course>
  <speed>0.022360679774997897</speed>
  <fix>3d</fix>
</trkpt>
<trkpt lat="33.8106149" lon="-118.3935736">
  <ele>-19.16</ele>
  <time>2026-09-01T01:14:47Z</time>
  <course>91.58</course>
  <speed>0.0</speed>
  <fix>3d</fix>
</trkpt>
<trkpt lat="33.8106148" lon="-118.3935734">
  <ele>-20.105</ele>
  <time>2026-09-01T01:14:47Z</time>
  <course>156.7</course>
  <speed>0.022360679774997897</speed>
  <fix>3d</fix>
</trkpt>
<trkpt lat="33.8106149" lon="-118.3935736">
  <ele>-19.16</ele>
  <time>2026-09-01T01:14:47Z</time>
  <course>91.58</course>
  <speed>0.0</speed>
  <fix>3d</fix>
</trkpt>
<trkpt lat="33.8106148" lon="-118.3935734">
  <ele>-20.102</ele>
  <time>2026-09-01T01:14:47Z</time>
  <course>156.69</course>
  <speed>0.022360679774997897</speed>
  <fix>3d</fix>
</trkpt>
<trkpt lat="33.8106149" lon="-118.3935735">
  <ele>-19.18</ele>
  <time>2026-09-01T01:14:47Z</time>
  <course>91.66</course>
  <speed>0.0</speed>
  <fix>3d</fix>
</trkpt>
<trkpt lat="33.8106148" lon="-118.3935734">
  <ele>-20.098</ele>
  <time>2026-09-01T01:14:47Z</time>
  <course>156.67</course>
  <speed>0.022360679774997897</speed>
  <fix>3d</fix>
</trkpt>
<trkpt lat="33.8106149" lon="-118.3935735">
  <ele>-19.18</ele>
  <time>2026-09-01T01:14:47Z</time>
  <course>91.66</course>
  <speed>0.0</speed>
  <fix>3d</fix>
</trkpt>
<trkpt lat="33.8106148" lon="-118.3935734">
  <ele>-20.094</ele>
  <time>2026-09-01T01:14:47Z</time>
  <course>156.66</course>
  <speed>0.022360679774997897</speed>
  <fix>3d</fix>
</trkpt>
<trkpt lat="33.8106149" lon="-118.3935734">
  <ele>-19.19</ele>
  <time>2026-09-01T01:14:47Z</time>
  <course>91.78</course>
  <speed>0.0</speed>
  <fix>3d</fix>
</trkpt>
<trkpt lat="33.8106148" lon="-118.3935733">
  <ele>-20.09</ele>
  <time>2026-09-01T01:14:47Z</time>
  <course>156.64</course>
  <speed>0.022360679774997897</speed>
  <fix>3d</fix>
</trkpt>
<trkpt lat="33.8106149" lon="-118.3935734">
  <ele>-19.19</ele>
  <time>2026-09-01T01:14:47Z</time>
  <course>91.78</course>
  <speed>0.0</speed>
  <fix>3d</fix>
</trkpt>
<trkpt lat="33.8106148" lon="-118.3935733">
  <ele>-20.087</ele>
  <time>2026-09-01T01:14:47Z</time>
  <course>156.62</course>
  <speed>0.022360679774997897</speed>
  <fix>3d</fix>
</trkpt>
<trkpt lat="33.8106149" lon="-118.3935734">
  <ele>-19.19</ele>
  <time>2026-09-01T01:14:47Z</time>
  <course>91.85</course>
  <speed>0.0</speed>
  <fix>3d</fix>
</trkpt>
<trkpt lat="33.8106148" lon="-118.3935733">
  <ele>-20.086</ele>
  <time>2026-09-01T01:14:47Z</time>
  <course>156.61</course>
  <speed>0.022360679774997897</speed>
  <fix>3d</fix>
</trkpt>
<trkpt lat="33.8106149" lon="-118.3935734">
  <ele>-19.19</ele>
  <time>2026-09-01T01:14:47Z</time>
  <course>91.85</course>
  <speed>0.0</speed>
  <fix>3d</fix>
</trkpt>
<trkpt lat="33.8106148" lon="-118.3935733">
  <ele>-20.086</ele>
  <time>2026-09-01T01:14:47Z</time>
  <course>156.59</course>
  <speed>0.02</speed>
  <fix>3d</fix>
</trkpt>
<trkpt lat="33.8106149" lon="-118.3935734">
  <ele>-19.19</ele>
  <time>2026-09-01T01:14:47Z</time>
  <course>91.86</course>
  <speed>0.0</speed>
  <fix>3d</fix>
</trkpt>
<trkpt lat="33.8106148" lon="-118.3935733">
  <ele>-20.089</ele>
  <time>2026-09-01T01:14:47Z</time>
  <course>156.58</course>
  <speed>0.02</speed>
  <fix>3d</fix>
</trkpt>
<trkpt lat="33.8106149" lon="-118.3935734">
  <ele>-19.19</ele>
  <time>2026-09-01T01:14:47Z</time>
  <course>91.86</course>
  <speed>0.0</speed>
  <fix>3d</fix>
</trkpt>
<trkpt lat="33.8106148" lon="-118.3935733">
  <ele>-20.092</ele>
  <time>2026-09-01T01:14:47Z</time>
  <course>156.56</course>
  <speed>0.02</speed>
  <fix>3d</fix>
</trkpt>
<trkpt lat="33.8106149" lon="-118.3935734">
  <ele>-19.2</ele>
  <time>2026-09-01T01:14:47Z</time>
  <course>91.87</course>
  <speed>0.0</speed>
  <fix>3d</fix>
</trkpt>
<trkpt lat="33.8106148" lon="-118.3935733">
  <ele>-20.096</ele>
  <time>2026-09-01T01:14:47Z</time>
  <course>156.55</course>
  <speed>0.02</speed>
  <fix>3d</fix>
</trkpt>
<trkpt lat="33.8106149" lon="-118.3935734">
  <ele>-19.2</ele>
  <time>2026-09-01T01:14:47Z</time>
  <course>91.87</course>
  <speed>0.0</speed>
  <fix>3d</fix>
</trkpt>
<trkpt lat="33.8106148" lon="-118.3935733">
  <ele>-20.099</ele>
  <time>2026-09-01T01:14:47Z</time>
  <course>156.53</course>
  <speed>0.02</speed>
  <fix>3d</fix>
</trkpt>
<trkpt lat="33.8106149" lon="-118.3935734">
  <ele>-19.21</ele>
  <time>2026-09-01T01:14:47Z</time>
  <course>91.93</course>
  <speed>0.0</speed>
  <fix>3d</fix>
</trkpt>
<trkpt lat="33.8106148" lon="-118.3935732">
  <ele>-20.102</ele>
  <time>2026-09-01T01:14:47Z</time>
  <course>156.52</course>
  <speed>0.02</speed>
  <fix>3d</fix>
</trkpt>
<trkpt lat="33.8106149" lon="-118.3935734">
  <ele>-19.21</ele>
  <time>2026-09-01T01:14:47Z</time>
  <course>91.93</course>
  <speed>0.0</speed>
  <fix>3d</fix>
</trkpt>
<trkpt lat="33.8106148" lon="-118.3935732">
  <ele>-20.104</ele>
  <time>2026-09-01T01:14:47Z</time>
  <course>156.5</course>
  <speed>0.02</speed>
  <fix>3d</fix>
</trkpt>
<trkpt lat="33.8106149" lon="-118.3935734">
  <ele>-19.22</ele>
  <time>2026-09-01T01:14:47Z</time>
  <course>92.0</course>
  <speed>0.0</speed>
  <fix>3d</fix>
</trkpt>
<trkpt lat="33.8106148" lon="-118.3935732">
  <ele>-20.107</ele>
  <time>2026-09-01T01:14:47Z</time>
  <course>156.49</course>
  <speed>0.02</speed>
  <fix>3d</fix>
</trkpt>
<trkpt lat="33.8106149" lon="-118.3935734">
  <ele>-19.22</ele>
  <time>2026-09-01T01:14:47Z</time>
  <course>92.0</course>
  <speed>0.0</speed>
  <fix>3d</fix>
</trkpt>
<trkpt lat="33.8106148" lon="-118.3935732">
  <ele>-20.109</ele>
  <time>2026-09-01T01:14:47Z</time>
  <course>156.47</course>
  <speed>0.02</speed>
  <fix>3d</fix>
</trkpt>
<trkpt lat="33.8106149" lon="-118.3935734">
  <ele>-19.23</ele>
  <time>2026-09-01T01:14:47Z</time>
  <course>92.08</course>
  <speed>0.0</speed>
  <fix>3d</fix>
</trkpt>
<trkpt lat="33.8106148" lon="-118.3935732">
  <ele>-20.111</ele>
  <time>2026-09-01T01:14:47Z</time>
  <course>156.46</course>
  <speed>0.02</speed>
  <fix>3d</fix>
</trkpt>
<trkpt lat="33.8106149" lon="-118.3935734">
  <ele>-19.23</ele>
  <time>2026-09-01T01:14:47Z</time>
  <course>92.08</course>
  <speed>0.0</speed>
  <fix>3d</fix>
</trkpt>
<trkpt lat="33.8106148" lon="-118.3935732">
  <ele>-20.11</ele>
  <time>2026-09-01T01:14:47Z</time>
  <course>156.44</course>
  <speed>0.02</speed>
  <fix>3d</fix>
</trkpt>
<trkpt lat="33.8106149" lon="-118.3935734">
  <ele>-19.24</ele>
  <time>2026-09-01T01:14:47Z</time>
  <course>92.16</course>
  <speed>0.0</speed>
  <fix>3d</fix>
</trkpt>
<trkpt lat="33.8106148" lon="-118.3935732">
  <ele>-20.109</ele>
  <time>2026-09-01T01:14:47Z</time>
  <course>156.43</course>
  <speed>0.02</speed>
  <fix>3d</fix>
</trkpt>
<trkpt lat="33.8106149" lon="-118.3935734">
  <ele>-19.24</ele>
  <time>2026-09-01T01:14:47Z</time>
  <course>92.16</course>
  <speed>0.0</speed>
  <fix>3d</fix>
</trkpt>
<trkpt lat="33.8106148" lon="-118.3935732">
  <ele>-20.107</ele>
  <time>2026-09-01T01:14:47Z</time>
  <course>156.41</course>
  <speed>0.02</speed>
  <fix>3d</fix>
</trkpt>
<trkpt lat="33.8106149" lon="-118.3935734">
  <ele>-19.24</ele>
  <time>2026-09-01T01:14:47Z</time>
  <course>92.27</course>
  <speed>0.0</speed>
  <fix>3d</fix>
</trkpt>
<trkpt lat="33.8106148" lon="-118.3935732">
  <ele>-20.104</ele>
  <time>2026-09-01T01:14:47Z</time>
  <course>156.4</course>
  <speed>0.02</speed>
  <fix>3d</fix>
</trkpt>
<trkpt lat="33.8106149" lon="-118.3935734">
  <ele>-19.24</ele>
  <time>2026-09-01T01:14:47Z</time>
  <course>92.27</course>
  <speed>0.0</speed>
  <fix>3d</fix>
</trkpt>
<trkpt lat="33.8106148" lon="-118.3935732">
  <ele>-20.101</ele>
  <time>2026-09-01T01:14:47Z</time>
  <course>156.38</course>
  <speed>0.02</speed>
  <fix>3d</fix>
</trkpt>
<trkpt lat="33.8106149" lon="-118.3935734">
  <ele>-19.24</ele>
  <time>2026-09-01T01:14:47Z</time>
  <course>92.37</course>
  <speed>0.0</speed>
  <fix>3d</fix>
</trkpt>
<trkpt lat="33.8106148" lon="-118.3935732">
  <ele>-20.099</ele>
  <time>2026-09-01T01:14:47Z</time>
  <course>156.37</course>
  <speed>0.02</speed>
  <fix>3d</fix>
</trkpt>
<trkpt lat="33.8106149" lon="-118.3935734">
  <ele>-19.24</ele>
  <time>2026-09-01T01:14:47Z</time>
  <course>92.37</course>
  <speed>0.0</speed>
  <fix>3d</fix>
</trkpt>
<trkpt lat="33.8106148" lon="-118.3935732">
  <ele>-20.097</ele>
  <time>2026-09-01T01:14:47Z</time>
  <course>156.35</course>
  <speed>0.02</speed>
  <fix>3d</fix>
</trkpt>
<trkpt lat="33.8106149" lon="-118.3935734">
  <ele>-19.23</ele>
  <time>2026-09-01T01:14:47Z</time>
  <course>92.4</course>
  <speed>0.0</speed>
  <fix>3d</fix>
</trkpt>
<trkpt lat="33.8106148" lon="-118.3935732">
  <ele>-20.097</ele>
  <time>2026-09-01T01:14:47Z</time>
  <course>156.34</course>
  <speed>0.02</speed>
  <fix>3d</fix>
</trkpt>
<trkpt lat="33.8106149" lon="-118.3935734">
  <ele>-19.23</ele>
  <time>2026-09-01T01:14:47Z</time>
  <course>92.4</course>
  <speed>0.0</speed>
  <fix>3d</fix>
</trkpt>
<trkpt lat="33.8106148" lon="-118.3935732">
  <ele>-20.097</ele>
  <time>2026-09-01T01:14:47Z</time>
  <course>156.33</course>
  <speed>0.02</speed>
  <fix>3d</fix>
</trkpt>
<trkpt lat="33.8106149" lon="-118.3935734">
  <ele>-19.23</ele>
  <time>2026-09-01T01:14:47Z</time>
  <course>92.42</course>
  <speed>0.0</speed>
  <fix>3d</fix>
</trkpt>
<trkpt lat="33.8106148" lon="-118.3935732">
  <ele>-20.098</ele>
  <time>2026-09-01T01:14:47Z</time>
  <course>156.31</course>
  <speed>0.02</speed>
  <fix>3d</fix>
</trkpt>
<trkpt lat="33.8106149" lon="-118.3935734">
  <ele>-19.23</ele>
  <time>2026-09-01T01:14:47Z</time>
  <course>92.42</course>
  <speed>0.0</speed>
  <fix>3d</fix>
</trkpt>
<trkpt lat="33.8106148" lon="-118.3935732">
  <ele>-20.098</ele>
  <time>2026-09-01T01:14:47Z</time>
  <course>156.3</course>
  <speed>0.02</speed>
  <fix>3d</fix>
</trkpt>
<trkpt lat="33.8106149" lon="-118.3935734">
  <ele>-19.23</ele>
  <time>2026-09-01T01:14:47Z</time>
  <course>92.48</course>
  <speed>0.0</speed>
  <fix>3d</fix>
</trkpt>
<trkpt lat="33.8106148" lon="-118.3935732">
  <ele>-20.099</ele>
  <time>2026-09-01T01:14:47Z</time>
  <course>156.28</course>
  <speed>0.02</speed>
  <fix>3d</fix>
</trkpt>
<trkpt lat="33.8106149" lon="-118.3935734">
  <ele>-19.23</ele>
  <time>2026-09-01T01:14:47Z</time>
  <course>92.48</course>
  <speed>0.0</speed>
  <fix>3d</fix>
</trkpt>
<trkpt lat="33.8106148" lon="-118.3935732">
  <ele>-20.101</ele>
  <time>2026-09-01T01:14:47Z</time>
  <course>156.27</course>
  <speed>0.02</speed>
  <fix>3d</fix>
</trkpt>
<trkpt lat="33.8106149" lon="-118.3935734">
  <ele>-19.24</ele>
  <time>2026-09-01T01:14:47Z</time>
  <course>92.56</course>
  <speed>0.0</speed>
  <fix>3d</fix>
</trkpt>
<trkpt lat="33.8106148" lon="-118.3935732">
  <ele>-20.103</ele>
  <time>2026-09-01T01:14:47Z</time>
  <course>156.26</course>
  <speed>0.02</speed>
  <fix>3d</fix>
</trkpt>
<trkpt lat="33.8106149" lon="-118.3935734">
  <ele>-19.24</ele>
  <time>2026-09-01T01:14:47Z</time>
  <course>92.56</course>
  <speed>0.0</speed>
  <fix>3d</fix>
</trkpt>
<trkpt lat="33.8106148" lon="-118.3935731">
  <ele>-20.104</ele>
  <time>2026-09-01T01:14:47Z</time>
  <course>156.24</course>
  <speed>0.02</speed>
  <fix>3d</fix>
</trkpt>
<trkpt lat="33.8106149" lon="-118.3935734">
  <ele>-19.24</ele>
  <time>2026-09-01T01:14:47Z</time>
  <course>92.63</course>
  <speed>0.0</speed>
  <fix>3d</fix>
</trkpt>
<trkpt lat="33.8106148" lon="-118.3935731">
  <ele>-20.105</ele>
  <time>2026-09-01T01:14:47Z</time>
  <course>156.23</course>
  <speed>0.02</speed>
  <fix>3d</fix>
</trkpt>
<trkpt lat="33.8106149" lon="-118.3935734">
  <ele>-19.24</ele>
  <time>2026-09-01T01:14:47Z</time>
  <course>92.63</course>
  <speed>0.0</speed>
  <fix>3d</fix>
</trkpt>
<trkpt lat="33.8106148" lon="-118.3935731">
  <ele>-20.105</ele>
  <time>2026-09-01T01:14:47Z</time>
  <course>156.21</course>
  <speed>0.02</speed>
  <fix>3d</fix>
</trkpt>
<trkpt lat="33.8106149" lon="-118.3935734">
  <ele>-19.24</ele>
  <time>2026-09-01T01:14:47Z</time>
  <course>92.71</course>
  <speed>0.0</speed>
  <fix>3d</fix>
</trkpt>
<trkpt lat="33.8106148" lon="-118.3935731">
  <ele>-20.106</ele>
  <time>2026-09-01T01:14:47Z</time>
  <course>156.2</course>
  <speed>0.02</speed>
  <fix>3d</fix>
</trkpt>
<trkpt lat="33.8106149" lon="-118.3935734">
  <ele>-19.24</ele>
  <time>2026-09-01T01:14:47Z</time>
  <course>92.71</course>
  <speed>0.0</speed>
  <fix>3d</fix>
</trkpt>
<trkpt lat="33.8106148" lon="-118.3935731">
  <ele>-20.106</ele>
  <time>2026-09-01T01:14:47Z</time>
  <course>156.19</course>
  <speed>0.02</speed>
  <fix>3d</fix>
</trkpt>
<trkpt lat="33.8106149" lon="-118.3935733">
  <ele>-19.24</ele>
  <time>2026-09-01T01:14:47Z</time>
  <course>92.77</course>
  <speed>0.0</speed>
  <fix>3d</fix>
</trkpt>
<trkpt lat="33.8106148" lon="-118.3935731">
  <ele>-20.105</ele>
  <time>2026-09-01T01:14:47Z</time>
  <course>156.17</course>
  <speed>0.02</speed>
  <fix>3d</fix>
</trkpt>
<trkpt lat="33.8106149" lon="-118.3935733">
  <ele>-19.24</ele>
  <time>2026-09-01T01:14:47Z</time>
  <course>92.77</course>
  <speed>0.0</speed>
  <fix>3d</fix>
</trkpt>
<trkpt lat="33.8106148" lon="-118.3935731">
  <ele>-20.105</ele>
  <time>2026-09-01T01:14:47Z</time>
  <course>156.16</course>
  <speed>0.02</speed>
  <fix>3d</fix>
</trkpt>
<trkpt lat="33.8106149" lon="-118.3935733">
  <ele>-19.24</ele>
  <time>2026-09-01T01:14:47Z</time>
  <course>92.81</course>
  <speed>0.0</speed>
  <fix>3d</fix>
</trkpt>
<trkpt lat="33.8106148" lon="-118.3935731">
  <ele>-20.105</ele>
  <time>2026-09-01T01:14:47Z</time>
  <course>156.15</course>
  <speed>0.02</speed>
  <fix>3d</fix>
</trkpt>
<trkpt lat="33.8106149" lon="-118.3935733">
  <ele>-19.24</ele>
  <time>2026-09-01T01:14:47Z</time>
  <course>92.81</course>
  <speed>0.0</speed>
  <fix>3d</fix>
</trkpt>
<trkpt lat="33.8106148" lon="-118.3935731">
  <ele>-20.105</ele>
  <time>2026-09-01T01:14:47Z</time>
  <course>156.13</course>
  <speed>0.02</speed>
  <fix>3d</fix>
</trkpt>
<trkpt lat="33.8106149" lon="-118.3935733">
  <ele>-19.23</ele>
  <time>2026-09-01T01:14:47Z</time>
  <course>92.86</course>
  <speed>0.0</speed>
  <fix>3d</fix>
</trkpt>
<trkpt lat="33.8106148" lon="-118.3935731">
  <ele>-20.106</ele>
  <time>2026-09-01T01:14:47Z</time>
  <course>156.12</course>
  <speed>0.02</speed>
  <fix>3d</fix>
</trkpt>
<trkpt lat="33.8106149" lon="-118.3935733">
  <ele>-19.23</ele>
  <time>2026-09-01T01:14:47Z</time>
  <course>92.86</course>
  <speed>0.0</speed>
  <fix>3d</fix>
</trkpt>
<trkpt lat="33.8106148" lon="-118.3935731">
  <ele>-20.106</ele>
  <time>2026-09-01T01:14:47Z</time>
  <course>156.11</course>
  <speed>0.02</speed>
  <fix>3d</fix>
</trkpt>
<trkpt lat="33.8106149" lon="-118.3935733">
  <ele>-19.23</ele>
  <time>2026-09-01T01:14:47Z</time>
  <course>92.93</course>
  <speed>0.0</speed>
  <fix>3d</fix>
</trkpt>
<trkpt lat="33.8106148" lon="-118.3935731">
  <ele>-20.106</ele>
  <time>2026-09-01T01:14:47Z</time>
  <course>156.09</course>
  <speed>0.02</speed>
  <fix>3d</fix>
</trkpt>
<trkpt lat="33.8106149" lon="-118.3935733">
  <ele>-19.23</ele>
  <time>2026-09-01T01:14:47Z</time>
  <course>92.93</course>
  <speed>0.0</speed>
  <fix>3d</fix>
</trkpt>
<trkpt lat="33.8106148" lon="-118.3935731">
  <ele>-20.104</ele>
  <time>2026-09-01T01:14:47Z</time>
  <course>156.08</course>
  <speed>0.02</speed>
  <fix>3d</fix>
</trkpt>
<trkpt lat="33.8106149" lon="-118.3935733">
  <ele>-19.23</ele>
  <time>2026-09-01T01:14:47Z</time>
  <course>93.02</course>
  <speed>0.0</speed>
  <fix>3d</fix>
</trkpt>
<trkpt lat="33.8106148" lon="-118.3935731">
  <ele>-20.102</ele>
  <time>2026-09-01T01:14:47Z</time>
  <course>156.07</course>
  <speed>0.02</speed>
  <fix>3d</fix>
</trkpt>
<trkpt lat="33.8106149" lon="-118.3935733">
  <ele>-19.23</ele>
  <time>2026-09-01T01:14:47Z</time>
  <course>93.02</course>
  <speed>0.0</speed>
  <fix>3d</fix>
</trkpt>
<trkpt lat="33.8106148" lon="-118.3935731">
  <ele>-20.1</ele>
  <time>2026-09-01T01:14:47Z</time>
  <course>156.06</course>
  <speed>0.02</speed>
  <fix>3d</fix>
</trkpt>
<trkpt lat="33.8106149" lon="-118.3935733">
  <ele>-19.22</ele>
  <time>2026-09-01T01:14:47Z</time>
  <course>93.06</course>
  <speed>0.0</speed>
  <fix>3d</fix>
</trkpt>
<trkpt lat="33.8106148" lon="-118.3935731">
  <ele>-20.097</ele>
  <time>2026-09-01T01:14:47Z</time>
  <course>156.04</course>
  <speed>0.02</speed>
  <fix>3d</fix>
</trkpt>
<trkpt lat="33.8106149" lon="-118.3935733">
  <ele>-19.22</ele>
  <time>2026-09-01T01:14:47Z</time>
  <course>93.06</course>
  <speed>0.0</speed>
  <fix>3d</fix>
</trkpt>
<trkpt lat="33.8106148" lon="-118.3935731">
  <ele>-20.094</ele>
  <time>2026-09-01T01:14:47Z</time>
  <course>156.03</course>
  <speed>0.02</speed>
  <fix>3d</fix>
</trkpt>
<trkpt lat="33.8106149" lon="-118.3935733">
  <ele>-19.22</ele>
  <time>2026-09-01T01:14:47Z</time>
  <course>93.05</course>
  <speed>0.0</speed>
  <fix>3d</fix>
</trkpt>
<trkpt lat="33.8106148" lon="-118.3935731">
  <ele>-20.092</ele>
  <time>2026-09-01T01:14:47Z</time>
  <course>156.02</course>
  <speed>0.02</speed>
  <fix>3d</fix>
</trkpt>
<trkpt lat="33.8106149" lon="-118.3935733">
  <ele>-19.22</ele>
  <time>2026-09-01T01:14:47Z</time>
  <course>93.05</course>
  <speed>0.0</speed>
  <fix>3d</fix>
</trkpt>
<trkpt lat="33.8106148" lon="-118.3935731">
  <ele>-20.09</ele>
  <time>2026-09-01T01:14:47Z</time>
  <course>156.01</course>
  <speed>0.02</speed>
  <fix>3d</fix>
</trkpt>
<trkpt lat="33.8106149" lon="-118.3935733">
  <ele>-19.22</ele>
  <time>2026-09-01T01:14:47Z</time>
  <course>93.01</course>
  <speed>0.0</speed>
  <fix>3d</fix>
</trkpt>
<trkpt lat="33.8106148" lon="-118.3935731">
  <ele>-20.09</ele>
  <time>2026-09-01T01:14:47Z</time>
  <course>155.99</course>
  <speed>0.02</speed>
  <fix>3d</fix>
</trkpt>
<trkpt lat="33.8106149" lon="-118.3935733">
  <ele>-19.22</ele>
  <time>2026-09-01T01:14:47Z</time>
  <course>93.01</course>
  <speed>0.0</speed>
  <fix>3d</fix>
</trkpt>
<trkpt lat="33.8106148" lon="-118.3935731">
  <ele>-20.091</ele>
  <time>2026-09-01T01:14:47Z</time>
  <course>155.98</course>
  <speed>0.02</speed>
  <fix>3d</fix>
</trkpt>
<trkpt lat="33.8106149" lon="-118.3935732">
  <ele>-19.22</ele>
  <time>2026-09-01T01:14:47Z</time>
  <course>93.02</course>
  <speed>0.0</speed>
  <fix>3d</fix>
</trkpt>
<trkpt lat="33.8106148" lon="-118.3935731">
  <ele>-20.092</ele>
  <time>2026-09-01T01:14:47Z</time>
  <course>155.97</course>
  <speed>0.02</speed>
  <fix>3d</fix>
</trkpt>
<trkpt lat="33.8106149" lon="-118.3935732">
  <ele>-19.22</ele>
  <time>2026-09-01T01:14:47Z</time>
  <course>93.02</course>
  <speed>0.0</speed>
  <fix>3d</fix>
</trkpt>
<trkpt lat="33.8106148" lon="-118.3935731">
  <ele>-20.079</ele>
  <time>2026-09-01T01:14:47Z</time>
  <course>155.96</course>
  <speed>0.02</speed>
  <fix>3d</fix>
</trkpt>
<trkpt lat="33.8106149" lon="-118.3935732">
  <ele>-19.22</ele>
  <time>2026-09-01T01:14:47Z</time>
  <course>93.19</course>
  <speed>0.0</speed>
  <fix>3d</fix>
</trkpt>
<trkpt lat="33.8106148" lon="-118.393573">
  <ele>-20.043</ele>
  <time>2026-09-01T01:14:47Z</time>
  <course>155.94</course>
  <speed>0.02</speed>
  <fix>3d</fix>
</trkpt>
<trkpt lat="33.8106149" lon="-118.3935732">
  <ele>-19.22</ele>
  <time>2026-09-01T01:14:47Z</time>
  <course>93.19</course>
  <speed>0.0</speed>
  <fix>3d</fix>
</trkpt>
<trkpt lat="33.8106148" lon="-118.393573">
  <ele>-20.042</ele>
  <time>2026-09-01T01:14:47Z</time>
  <course>155.94</course>
  <speed>0.02</speed>
  <fix>3d</fix>
</trkpt>
<trkpt lat="33.8106148" lon="-118.393573">
  <ele>-19.984</ele>
  <time>2026-09-01T01:14:47Z</time>
  <course>155.93</course>
  <speed>0.02</speed>
  <fix>3d</fix>
</trkpt>
<trkpt lat="33.8106149" lon="-118.3935732">
  <ele>-19.18</ele>
  <time>2026-09-01T01:14:47Z</time>
  <course>94.38</course>
  <speed>0.0</speed>
  <fix>3d</fix>
</trkpt>
<trkpt lat="33.8106148" lon="-118.393573">
  <ele>-19.982</ele>
  <time>2026-09-01T01:14:47Z</time>
  <course>155.93</course>
  <speed>0.02</speed>
  <fix>3d</fix>
</trkpt>
<trkpt lat="33.8106148" lon="-118.393573">
  <ele>-19.904</ele>
  <time>2026-09-01T01:14:47Z</time>
  <course>155.92</course>
  <speed>0.02</speed>
  <fix>3d</fix>
</trkpt>
<trkpt lat="33.8106149" lon="-118.3935732">
  <ele>-19.18</ele>
  <time>2026-09-01T01:14:47Z</time>
  <course>94.38</course>
  <speed>0.0</speed>
  <fix>3d</fix>
</trkpt>
<trkpt lat="33.8106148" lon="-118.393573">
  <ele>-19.876</ele>
  <time>2026-09-01T01:14:47Z</time>
  <course>155.92</course>
  <speed>0.02</speed>
  <fix>3d</fix>
</trkpt>
<trkpt lat="33.8106148" lon="-118.393573">
  <ele>-19.804</ele>
  <time>2026-09-01T01:14:47Z</time>
  <course>155.91</course>
  <speed>0.02</speed>
  <fix>3d</fix>
</trkpt>
<trkpt lat="33.8106149" lon="-118.3935732">
  <ele>-19.09</ele>
  <time>2026-09-01T01:14:47Z</time>
  <course>97.13</course>
  <speed>0.0</speed>
  <fix>3d</fix>
</trkpt>
<trkpt lat="33.8106148" lon="-118.393573">
  <ele>-19.771</ele>
  <time>2026-09-01T01:14:47Z</time>
  <course>155.9</course>
  <speed>0.02</speed>
  <fix>3d</fix>
</trkpt>
<trkpt lat="33.8106148" lon="-118.393573">
  <ele>-19.686</ele>
  <time>2026-09-01T01:14:47Z</time>
  <course>155.89</course>
  <speed>0.02</speed>
  <fix>3d</fix>
</trkpt>
<trkpt lat="33.8106149" lon="-118.3935732">
  <ele>-19.09</ele>
  <time>2026-09-01T01:14:47Z</time>
  <course>97.13</course>
  <speed>0.0</speed>
  <fix>3d</fix>
</trkpt>
<trkpt lat="33.8106148" lon="-118.393573">
  <ele>-19.645</ele>
  <time>2026-09-01T01:14:47Z</time>
  <course>155.89</course>
  <speed>0.02</speed>
  <fix>3d</fix>
</trkpt>
<trkpt lat="33.8106148" lon="-118.393573">
  <ele>-19.559</ele>
  <time>2026-09-01T01:14:47Z</time>
  <course>155.88</course>
  <speed>0.02</speed>
  <fix>3d</fix>
</trkpt>
<trkpt lat="33.8106149" lon="-118.3935732">
  <ele>-18.91</ele>
  <time>2026-09-01T01:14:47Z</time>
  <course>100.48</course>
  <speed>0.0</speed>
  <fix>3d</fix>
</trkpt>
<trkpt lat="33.8106148" lon="-118.393573">
  <ele>-19.511</ele>
  <time>2026-09-01T01:14:47Z</time>
  <course>155.88</course>
  <speed>0.02</speed>
  <fix>3d</fix>
</trkpt>
<trkpt lat="33.8106148" lon="-118.393573">
  <ele>-19.43</ele>
  <time>2026-09-01T01:14:47Z</time>
  <course>155.87</course>
  <speed>0.02</speed>
  <fix>3d</fix>
</trkpt>
<trkpt lat="33.8106149" lon="-118.3935732">
  <ele>-18.91</ele>
  <time>2026-09-01T01:14:47Z</time>
  <course>100.48</course>
  <speed>0.0</speed>
  <fix>3d</fix>
</trkpt>
<trkpt lat="33.8106148" lon="-118.393573">
  <ele>-19.388</ele>
  <time>2026-09-01T01:14:47Z</time>
  <course>155.87</course>
  <speed>0.02</speed>
  <fix>3d</fix>
</trkpt>
<trkpt lat="33.8106148" lon="-118.393573">
  <ele>-19.299</ele>
  <time>2026-09-01T01:14:47Z</time>
  <course>155.86</course>
  <speed>0.02</speed>
  <fix>3d</fix>
</trkpt>
<trkpt lat="33.8106149" lon="-118.3935732">
  <ele>-18.68</ele>
  <time>2026-09-01T01:14:47Z</time>
  <course>102.25</course>
  <speed>0.0</speed>
  <fix>3d</fix>
</trkpt>
<trkpt lat="33.8106148" lon="-118.393573">
  <ele>-19.258</ele>
  <time>2026-09-01T01:14:47Z</time>
  <course>155.86</course>
  <speed>0.02</speed>
  <fix>3d</fix>
</trkpt>
<trkpt lat="33.8106148" lon="-118.393573">
  <ele>-19.169</ele>
  <time>2026-09-01T01:14:47Z</time>
  <course>155.85</course>
  <speed>0.02</speed>
  <fix>3d</fix>
</trkpt>
<trkpt lat="33.8106149" lon="-118.3935732">
  <ele>-18.68</ele>
  <time>2026-09-01T01:14:47Z</time>
  <course>102.25</course>
  <speed>0.0</speed>
  <fix>3d</fix>
</trkpt>
<trkpt lat="33.8106148" lon="-118.393573">
  <ele>-19.127</ele>
  <time>2026-09-01T01:14:47Z</time>
  <course>155.84</course>
  <speed>0.02</speed>
  <fix>3d</fix>
</trkpt>
<trkpt lat="33.8106148" lon="-118.393573">
  <ele>-19.039</ele>
  <time>2026-09-01T01:14:47Z</time>
  <course>155.84</course>
  <speed>0.02</speed>
  <fix>3d</fix>
</trkpt>
<trkpt lat="33.8106149" lon="-118.3935732">
  <ele>-18.43</ele>
  <time>2026-09-01T01:14:47Z</time>
  <course>102.33</course>
  <speed>0.0</speed>
  <fix>3d</fix>
</trkpt>
<trkpt lat="33.8106148" lon="-118.393573">
  <ele>-19.0</ele>
  <time>2026-09-01T01:14:47Z</time>
  <course>155.83</course>
  <speed>0.02</speed>
  <fix>3d</fix>
</trkpt>
<trkpt lat="33.8106148" lon="-118.393573">
  <ele>-18.908</ele>
  <time>2026-09-01T01:14:47Z</time>
  <course>155.82</course>
  <speed>0.02</speed>
  <fix>3d</fix>
</trkpt>
<trkpt lat="33.8106149" lon="-118.3935732">
  <ele>-18.43</ele>
  <time>2026-09-01T01:14:47Z</time>
  <course>102.33</course>
  <speed>0.0</speed>
  <fix>3d</fix>
</trkpt>
<trkpt lat="33.8106148" lon="-118.393573">
  <ele>-18.86</ele>
  <time>2026-09-01T01:14:47Z</time>
  <course>155.82</course>
  <speed>0.02</speed>
  <fix>3d</fix>
</trkpt>
<trkpt lat="33.8106148" lon="-118.393573">
  <ele>-18.778</ele>
  <time>2026-09-01T01:14:47Z</time>
  <course>155.81</course>
  <speed>0.02</speed>
  <fix>3d</fix>
</trkpt>
<trkpt lat="33.8106149" lon="-118.3935732">
  <ele>-18.19</ele>
  <time>2026-09-01T01:14:47Z</time>
  <course>102.36</course>
  <speed>0.0</speed>
  <fix>3d</fix>
</trkpt>
<trkpt lat="33.8106148" lon="-118.393573">
  <ele>-18.737</ele>
  <time>2026-09-01T01:14:47Z</time>
  <course>155.81</course>
  <speed>0.02</speed>
  <fix>3d</fix>
</trkpt>
<trkpt lat="33.8106148" lon="-118.393573">
  <ele>-18.649</ele>
  <time>2026-09-01T01:14:47Z</time>
  <course>155.8</course>
  <speed>0.02</speed>
  <fix>3d</fix>
</trkpt>
<trkpt lat="33.8106149" lon="-118.3935732">
  <ele>-18.19</ele>
  <time>2026-09-01T01:14:47Z</time>
  <course>102.36</course>
  <speed>0.0</speed>
  <fix>3d</fix>
</trkpt>
<trkpt lat="33.8106148" lon="-118.393573">
  <ele>-18.646</ele>
  <time>2026-09-01T01:14:47Z</time>
  <course>155.8</course>
  <speed>0.02</speed>
  <fix>3d</fix>
</trkpt>
<trkpt lat="33.8106148" lon="-118.393573">
  <ele>-18.52</ele>
  <time>2026-09-01T01:14:47Z</time>
  <course>155.79</course>
  <speed>0.02</speed>
  <fix>3d</fix>
</trkpt>
<trkpt lat="33.8106149" lon="-118.3935732">
  <ele>-17.95</ele>
  <time>2026-09-01T01:14:47Z</time>
  <course>102.46</course>
  <speed>0.0</speed>
  <fix>3d</fix>
</trkpt>
<trkpt lat="33.8106148" lon="-118.393573">
  <ele>-18.479</ele>
  <time>2026-09-01T01:14:47Z</time>
  <course>155.78</course>
  <speed>0.02</speed>
  <fix>3d</fix>
</trkpt>
<trkpt lat="33.8106148" lon="-118.393573">
  <ele>-18.392</ele>
  <time>2026-09-01T01:14:47Z</time>
  <course>155.78</course>
  <speed>0.02</speed>
  <fix>3d</fix>
</trkpt>
<trkpt lat="33.8106149" lon="-118.3935732">
  <ele>-17.95</ele>
  <time>2026-09-01T01:14:47Z</time>
  <course>102.46</course>
  <speed>0.0</speed>
  <fix>3d</fix>
</trkpt>
<trkpt lat="33.8106148" lon="-118.393573">
  <ele>-18.353</ele>
  <time>2026-09-01T01:14:47Z</time>
  <course>155.77</course>
  <speed>0.02</speed>
  <fix>3d</fix>
</trkpt>
<trkpt lat="33.8106148" lon="-118.393573">
  <ele>-18.264</ele>
  <time>2026-09-01T01:14:47Z</time>
  <course>155.77</course>
  <speed>0.02</speed>
  <fix>3d</fix>
</trkpt>
<trkpt lat="33.8106149" lon="-118.3935732">
  <ele>-17.7</ele>
  <time>2026-09-01T01:14:47Z</time>
  <course>102.58</course>
  <speed>0.0</speed>
  <fix>3d</fix>
</trkpt>
<trkpt lat="33.8106148" lon="-118.393573">
  <ele>-18.226</ele>
  <time>2026-09-01T01:14:47Z</time>
  <course>155.76</course>
  <speed>0.02</speed>
  <fix>3d</fix>
</trkpt>
<trkpt lat="33.8106148" lon="-118.393573">
  <ele>-18.136</ele>
  <time>2026-09-01T01:14:47Z</time>
  <course>155.75</course>
  <speed>0.02</speed>
  <fix>3d</fix>
</trkpt>
<trkpt lat="33.8106149" lon="-118.3935732">
  <ele>-17.7</ele>
  <time>2026-09-01T01:14:47Z</time>
  <course>102.58</course>
  <speed>0.0</speed>
  <fix>3d</fix>
</trkpt>
<trkpt lat="33.8106148" lon="-118.393573">
  <ele>-18.098</ele>
  <time>2026-09-01T01:14:47Z</time>
  <course>155.75</course>
  <speed>0.02</speed>
  <fix>3d</fix>
</trkpt>
<trkpt lat="33.8106148" lon="-118.393573">
  <ele>-18.009</ele>
  <time>2026-09-01T01:14:47Z</time>
  <course>155.74</course>
  <speed>0.02</speed>
  <fix>3d</fix>
</trkpt>
<trkpt lat="33.8106149" lon="-118.3935732">
  <ele>-17.46</ele>
  <time>2026-09-01T01:14:47Z</time>
  <course>102.66</course>
  <speed>0.0</speed>
  <fix>3d</fix>
</trkpt>
<trkpt lat="33.8106148" lon="-118.393573">
  <ele>-17.97</ele>
  <time>2026-09-01T01:14:47Z</time>
  <course>155.74</course>
  <speed>0.02</speed>
  <fix>3d</fix>
</trkpt>
<trkpt lat="33.8106148" lon="-118.393573">
  <ele>-17.88</ele>
  <time>2026-09-01T01:14:47Z</time>
  <course>155.73</course>
  <speed>0.02</speed>
  <fix>3d</fix>
</trkpt>
<trkpt lat="33.8106149" lon="-118.3935732">
  <ele>-17.46</ele>
  <time>2026-09-01T01:14:47Z</time>
  <course>102.66</course>
  <speed>0.0</speed>
  <fix>3d</fix>
</trkpt>
<trkpt lat="33.8106148" lon="-118.393573">
  <ele>-17.842</ele>
  <time>2026-09-01T01:14:47Z</time>
  <course>155.73</course>
  <speed>0.02</speed>
  <fix>3d</fix>
</trkpt>
<trkpt lat="33.8106148" lon="-118.393573">
  <ele>-17.753</ele>
  <time>2026-09-01T01:14:47Z</time>
  <course>155.72</course>
  <speed>0.02</speed>
  <fix>3d</fix>
</trkpt>
<trkpt lat="33.8106149" lon="-118.3935731">
  <ele>-17.21</ele>
  <time>2026-09-01T01:14:47Z</time>
  <course>102.68</course>
  <speed>0.0</speed>
  <fix>3d</fix>
</trkpt>
<trkpt lat="33.8106148" lon="-118.393573">
  <ele>-17.715</ele>
  <time>2026-09-01T01:14:47Z</time>
  <course>155.72</course>
  <speed>0.02</speed>
  <fix>3d</fix>
</trkpt>
<trkpt lat="33.8106148" lon="-118.393573">
  <ele>-17.626</ele>
  <time>2026-09-01T01:14:47Z</time>
  <course>155.71</course>
  <speed>0.02</speed>
  <fix>3d</fix>
</trkpt>
<trkpt lat="33.8106149" lon="-118.3935731">
  <ele>-17.21</ele>
  <time>2026-09-01T01:14:47Z</time>
  <course>102.68</course>
  <speed>0.0</speed>
  <fix>3d</fix>
</trkpt>
<trkpt lat="33.8106148" lon="-118.393573">
  <ele>-17.588</ele>
  <time>2026-09-01T01:14:47Z</time>
  <course>155.71</course>
  <speed>0.02</speed>
  <fix>3d</fix>
</trkpt>
<trkpt lat="33.8106148" lon="-118.393573">
  <ele>-17.499</ele>
  <time>2026-09-01T01:14:47Z</time>
  <course>155.7</course>
  <speed>0.02</speed>
  <fix>3d</fix>
</trkpt>
<trkpt lat="33.8106149" lon="-118.3935731">
  <ele>-16.96</ele>
  <time>2026-09-01T01:14:47Z</time>
  <course>102.66</course>
  <speed>0.0</speed>
  <fix>3d</fix>
</trkpt>
<trkpt lat="33.8106148" lon="-118.393573">
  <ele>-17.461</ele>
  <time>2026-09-01T01:14:47Z</time>
  <course>155.69</course>
  <speed>0.02</speed>
  <fix>3d</fix>
</trkpt>
<trkpt lat="33.8106148" lon="-118.393573">
  <ele>-17.372</ele>
  <time>2026-09-01T01:14:47Z</time>
  <course>155.69</course>
  <speed>0.02</speed>
  <fix>3d</fix>
</trkpt>
<trkpt lat="33.8106149" lon="-118.3935731">
  <ele>-16.96</ele>
  <time>2026-09-01T01:14:47Z</time>
  <course>102.66</course>
  <speed>0.0</speed>
  <fix>3d</fix>
</trkpt>
<trkpt lat="33.8106148" lon="-118.3935729">
  <ele>-17.331</ele>
  <time>2026-09-01T01:14:47Z</time>
  <course>155.68</course>
  <speed>0.02</speed>
  <fix>3d</fix>
</trkpt>
<trkpt lat="33.8106148" lon="-118.3935729">
  <ele>-17.246</ele>
  <time>2026-09-01T01:14:47Z</time>
  <course>155.68</course>
  <speed>0.02</speed>
  <fix>3d</fix>
</trkpt>
<trkpt lat="33.8106149" lon="-118.3935731">
  <ele>-16.72</ele>
  <time>2026-09-01T01:14:47Z</time>
  <course>102.66</course>
  <speed>0.0</speed>
  <fix>3d</fix>
</trkpt>
<trkpt lat="33.8106148" lon="-118.3935729">
  <ele>-17.243</ele>
  <time>2026-09-01T01:14:47Z</time>
  <course>155.67</course>
  <speed>0.02</speed>
  <fix>3d</fix>
</trkpt>
<trkpt lat="33.8106148" lon="-118.3935729">
  <ele>-17.12</ele>
  <time>2026-09-01T01:14:47Z</time>
  <course>155.66</course>
  <speed>0.02</speed>
  <fix>3d</fix>
</trkpt>
<trkpt lat="33.8106149" lon="-118.3935731">
  <ele>-16.72</ele>
  <time>2026-09-01T01:14:47Z</time>
  <course>102.66</course>
  <speed>0.0</speed>
  <fix>3d</fix>
</trkpt>
<trkpt lat="33.8106148" lon="-118.3935729">
  <ele>-17.08</ele>
  <time>2026-09-01T01:14:47Z</time>
  <course>155.66</course>
  <speed>0.02</speed>
  <fix>3d</fix>
</trkpt>
<trkpt lat="33.8106148" lon="-118.3935729">
  <ele>-16.996</ele>
  <time>2026-09-01T01:14:47Z</time>
  <course>155.65</course>
  <speed>0.02</speed>
  <fix>3d</fix>
</trkpt>
<trkpt lat="33.8106149" lon="-118.3935731">
  <ele>-16.47</ele>
  <time>2026-09-01T01:14:47Z</time>
  <course>102.72</course>
  <speed>0.0</speed>
  <fix>3d</fix>
</trkpt>
<trkpt lat="33.8106148" lon="-118.3935729">
  <ele>-16.992</ele>
  <time>2026-09-01T01:14:47Z</time>
  <course>155.65</course>
  <speed>0.02</speed>
  <fix>3d</fix>
</trkpt>
<trkpt lat="33.8106148" lon="-118.3935729">
  <ele>-16.87</ele>
  <time>2026-09-01T01:14:47Z</time>
  <course>155.64</course>
  <speed>0.02</speed>
  <fix>3d</fix>
</trkpt>
<trkpt lat="33.8106149" lon="-118.3935731">
  <ele>-16.47</ele>
  <time>2026-09-01T01:14:47Z</time>
  <course>102.72</course>
  <speed>0.0</speed>
  <fix>3d</fix>
</trkpt>
<trkpt lat="33.8106148" lon="-118.3935729">
  <ele>-16.832</ele>
  <time>2026-09-01T01:14:47Z</time>
  <course>155.64</course>
  <speed>0.02</speed>
  <fix>3d</fix>
</trkpt>
<trkpt lat="33.8106148" lon="-118.3935729">
  <ele>-16.744</ele>
  <time>2026-09-01T01:14:47Z</time>
  <course>155.63</course>
  <speed>0.02</speed>
  <fix>3d</fix>
</trkpt>
<trkpt lat="33.8106149" lon="-118.3935731">
  <ele>-16.23</ele>
  <time>2026-09-01T01:14:47Z</time>
  <course>102.82</course>
  <speed>0.0</speed>
  <fix>3d</fix>
</trkpt>
<trkpt lat="33.8106148" lon="-118.3935729">
  <ele>-16.712</ele>
  <time>2026-09-01T01:14:47Z</time>
  <course>155.63</course>
  <speed>0.02</speed>
  <fix>3d</fix>
</trkpt>
<trkpt lat="33.8106148" lon="-118.3935729">
  <ele>-16.618</ele>
  <time>2026-09-01T01:14:47Z</time>
  <course>155.62</course>
  <speed>0.02</speed>
  <fix>3d</fix>
</trkpt>
<trkpt lat="33.8106149" lon="-118.3935731">
  <ele>-16.23</ele>
  <time>2026-09-01T01:14:47Z</time>
  <course>102.82</course>
  <speed>0.0</speed>
  <fix>3d</fix>
</trkpt>
<trkpt lat="33.8106148" lon="-118.3935729">
  <ele>-16.583</ele>
  <time>2026-09-01T01:14:47Z</time>
  <course>155.62</course>
  <speed>0.02</speed>
  <fix>3d</fix>
</trkpt>
<trkpt lat="33.8106148" lon="-118.3935729">
  <ele>-16.492</ele>
  <time>2026-09-01T01:14:47Z</time>
  <course>155.61</course>
  <speed>0.02</speed>
  <fix>3d</fix>
</trkpt>
<trkpt lat="33.8106149" lon="-118.3935731">
  <ele>-15.98</ele>
  <time>2026-09-01T01:14:47Z</time>
  <course>102.9</course>
  <speed>0.0</speed>
  <fix>3d</fix>
</trkpt>
<trkpt lat="33.8106148" lon="-118.3935729">
  <ele>-16.454</ele>
  <time>2026-09-01T01:14:47Z</time>
  <course>155.61</course>
  <speed>0.02</speed>
  <fix>3d</fix>
</trkpt>
<trkpt lat="33.8106148" lon="-118.3935729">
  <ele>-16.367</ele>
  <time>2026-09-01T01:14:47Z</time>
  <course>155.6</course>
  <speed>0.02</speed>
  <fix>3d</fix>
</trkpt>
<trkpt lat="33.8106149" lon="-118.3935731">
  <ele>-15.98</ele>
  <time>2026-09-01T01:14:47Z</time>
  <course>102.9</course>
  <speed>0.0</speed>
  <fix>3d</fix>
</trkpt>
<trkpt lat="33.8106148" lon="-118.3935729">
  <ele>-16.327</ele>
  <time>2026-09-01T01:14:47Z</time>
  <course>155.59</course>
  <speed>0.02</speed>
  <fix>3d</fix>
</trkpt>
<trkpt lat="33.8106148" lon="-118.3935729">
  <ele>-16.243</ele>
  <time>2026-09-01T01:14:47Z</time>
  <course>155.59</course>
  <speed>0.02</speed>
  <fix>3d</fix>
</trkpt>
<trkpt lat="33.8106149" lon="-118.3935731">
  <ele>-15.74</ele>
  <time>2026-09-01T01:14:47Z</time>
  <course>102.94</course>
  <speed>0.0</speed>
  <fix>3d</fix>
</trkpt>
<trkpt lat="33.8106148" lon="-118.3935729">
  <ele>-16.203</ele>
  <time>2026-09-01T01:14:47Z</time>
  <course>155.58</course>
  <speed>0.02</speed>
  <fix>3d</fix>
</trkpt>
<trkpt lat="33.8106148" lon="-118.3935729">
  <ele>-16.119</ele>
  <time>2026-09-01T01:14:47Z</time>
  <course>155.58</course>
  <speed>0.02</speed>
  <fix>3d</fix>
</trkpt>
<trkpt lat="33.8106149" lon="-118.3935731">
  <ele>-15.74</ele>
  <time>2026-09-01T01:14:47Z</time>
  <course>102.94</course>
  <speed>0.0</speed>
  <fix>3d</fix>
</trkpt>
<trkpt lat="33.8106148" lon="-118.3935729">
  <ele>-16.079</ele>
  <time>2026-09-01T01:14:47Z</time>
  <course>155.57</course>
  <speed>0.02</speed>
  <fix>3d</fix>
</trkpt>
<trkpt lat="33.8106148" lon="-118.3935729">
  <ele>-15.994</ele>
  <time>2026-09-01T01:14:47Z</time>
  <course>155.57</course>
  <speed>0.02</speed>
  <fix>3d</fix>
</trkpt>
<trkpt lat="33.8106149" lon="-118.3935731">
  <ele>-15.49</ele>
  <time>2026-09-01T01:14:47Z</time>
  <course>102.95</course>
  <speed>0.0</speed>
  <fix>3d</fix>
</trkpt>
<trkpt lat="33.8106148" lon="-118.3935729">
  <ele>-15.956</ele>
  <time>2026-09-01T01:14:47Z</time>
  <course>155.56</course>
  <speed>0.02</speed>
  <fix>3d</fix>
</trkpt>
<trkpt lat="33.8106148" lon="-118.3935729">
  <ele>-15.869</ele>
  <time>2026-09-01T01:14:47Z</time>
  <course>155.55</course>
  <speed>0.02</speed>
  <fix>3d</fix>
</trkpt>
<trkpt lat="33.8106149" lon="-118.3935731">
  <ele>-15.49</ele>
  <time>2026-09-01T01:14:47Z</time>
  <course>102.95</course>
  <speed>0.0</speed>
  <fix>3d</fix>
</trkpt>
<trkpt lat="33.8106148" lon="-118.3935729">
  <ele>-15.867</ele>
  <time>2026-09-01T01:14:47Z</time>
  <course>155.55</course>
  <speed>0.02</speed>
  <fix>3d</fix>
</trkpt>
<trkpt lat="33.8106148" lon="-118.3935729">
  <ele>-15.743</ele>
  <time>2026-09-01T01:14:47Z</time>
  <course>155.54</course>
  <speed>0.02</speed>
  <fix>3d</fix>
</trkpt>
<trkpt lat="33.8106149" lon="-118.3935731">
  <ele>-15.25</ele>
  <time>2026-09-01T01:14:47Z</time>
  <course>102.95</course>
  <speed>0.0</speed>
  <fix>3d</fix>
</trkpt>
<trkpt lat="33.8106148" lon="-118.3935729">
  <ele>-15.705</ele>
  <time>2026-09-01T01:14:47Z</time>
  <course>155.54</course>
  <speed>0.02</speed>
  <fix>3d</fix>
</trkpt>
<trkpt lat="33.8106148" lon="-118.3935729">
  <ele>-15.617</ele>
  <time>2026-09-01T01:14:47Z</time>
  <course>155.53</course>
  <speed>0.02</speed>
  <fix>3d</fix>
</trkpt>
<trkpt lat="33.8106149" lon="-118.3935731">
  <ele>-15.25</ele>
  <time>2026-09-01T01:14:47Z</time>
  <course>102.95</course>
  <speed>0.0</speed>
  <fix>3d</fix>
</trkpt>
<trkpt lat="33.8106148" lon="-118.3935729">
  <ele>-15.614</ele>
  <time>2026-09-01T01:14:47Z</time>
  <course>155.53</course>
  <speed>0.02</speed>
  <fix>3d</fix>
</trkpt>
<trkpt lat="33.8106148" lon="-118.3935729">
  <ele>-15.491</ele>
  <time>2026-09-01T01:14:47Z</time>
  <course>155.52</course>
  <speed>0.02</speed>
  <fix>3d</fix>
</trkpt>
<trkpt lat="33.8106149" lon="-118.3935731">
  <ele>-15.0</ele>
  <time>2026-09-01T01:14:47Z</time>
  <course>102.99</course>
  <speed>0.0</speed>
  <fix>3d</fix>
</trkpt>
<trkpt lat="33.8106148" lon="-118.3935729">
  <ele>-15.488</ele>
  <time>2026-09-01T01:14:47Z</time>
  <course>155.52</course>
  <speed>0.02</speed>
  <fix>3d</fix>
</trkpt>
<trkpt lat="33.8106148" lon="-118.3935729">
  <ele>-15.367</ele>
  <time>2026-09-01T01:14:47Z</time>
  <course>155.51</course>
  <speed>0.02</speed>
  <fix>3d</fix>
</trkpt>
<trkpt lat="33.8106149" lon="-118.3935731">
  <ele>-15.0</ele>
  <time>2026-09-01T01:14:47Z</time>
  <course>102.99</course>
  <speed>0.0</speed>
  <fix>3d</fix>
</trkpt>
<trkpt lat="33.8106148" lon="-118.3935729">
  <ele>-15.32</ele>
  <time>2026-09-01T01:14:47Z</time>
  <course>155.51</course>
  <speed>0.02</speed>
  <fix>3d</fix>
</trkpt>
<trkpt lat="33.8106148" lon="-118.3935729">
  <ele>-15.243</ele>
  <time>2026-09-01T01:14:47Z</time>
  <course>155.5</course>
  <speed>0.02</speed>
  <fix>3d</fix>
</trkpt>
<trkpt lat="33.8106149" lon="-118.3935731">
  <ele>-14.76</ele>
  <time>2026-09-01T01:14:47Z</time>
  <course>103.04</course>
  <speed>0.0</speed>
  <fix>3d</fix>
</trkpt>
<trkpt lat="33.8106148" lon="-118.3935729">
  <ele>-15.203</ele>
  <time>2026-09-01T01:14:47Z</time>
  <course>155.5</course>
  <speed>0.02</speed>
  <fix>3d</fix>
</trkpt>
<trkpt lat="33.8106148" lon="-118.3935729">
  <ele>-15.119</ele>
  <time>2026-09-01T01:14:47Z</time>
  <course>155.49</course>
  <speed>0.02</speed>
  <fix>3d</fix>
</trkpt>
<trkpt lat="33.8106149" lon="-118.3935731">
  <ele>-14.76</ele>
  <time>2026-09-01T01:14:47Z</time>
  <course>103.04</course>
  <speed>0.0</speed>
  <fix>3d</fix>
</trkpt>
<trkpt lat="33.8106148" lon="-118.3935729">
  <ele>-15.079</ele>
  <time>2026-09-01T01:14:47Z</time>
  <course>155.49</course>
  <speed>0.02</speed>
  <fix>3d</fix>
</trkpt>
<trkpt lat="33.8106148" lon="-118.3935729">
  <ele>-14.994</ele>
  <time>2026-09-01T01:14:47Z</time>
  <course>155.48</course>
  <speed>0.02</speed>
  <fix>3d</fix>
</trkpt>
<trkpt lat="33.8106149" lon="-118.3935731">
  <ele>-14.51</ele>
  <time>2026-09-01T01:14:47Z</time>
  <course>103.1</course>
  <speed>0.0</speed>
  <fix>3d</fix>
</trkpt>
<trkpt lat="33.8106148" lon="-118.3935729">
  <ele>-14.951</ele>
  <time>2026-09-01T01:14:47Z</time>
  <course>155.48</course>
  <speed>0.02</speed>
  <fix>3d</fix>
</trkpt>
<trkpt lat="33.8106148" lon="-118.3935729">
  <ele>-14.87</ele>
  <time>2026-09-01T01:14:47Z</time>
  <course>155.47</course>
  <speed>0.02</speed>
  <fix>3d</fix>
</trkpt>
<trkpt lat="33.8106149" lon="-118.3935731">
  <ele>-14.51</ele>
  <time>2026-09-01T01:14:47Z</time>
  <course>103.1</course>
  <speed>0.0</speed>
  <fix>3d</fix>
</trkpt>
<trkpt lat="33.8106148" lon="-118.3935729">
  <ele>-14.826</ele>
  <time>2026-09-01T01:14:47Z</time>
  <course>155.47</course>
  <speed>0.02</speed>
  <fix>3d</fix>
</trkpt>
<trkpt lat="33.8106148" lon="-118.3935729">
  <ele>-14.745</ele>
  <time>2026-09-01T01:14:47Z</time>
  <course>155.46</course>
  <speed>0.02</speed>
  <fix>3d</fix>
</trkpt>
<trkpt lat="33.8106149" lon="-118.393573">
  <ele>-14.27</ele>
  <time>2026-09-01T01:14:47Z</time>
  <course>103.15</course>
  <speed>0.0</speed>
  <fix>3d</fix>
</trkpt>
<trkpt lat="33.8106148" lon="-118.3935729">
  <ele>-14.708</ele>
  <time>2026-09-01T01:14:47Z</time>
  <course>155.46</course>
  <speed>0.02</speed>
  <fix>3d</fix>
</trkpt>
<trkpt lat="33.8106148" lon="-118.3935729">
  <ele>-14.621</ele>
  <time>2026-09-01T01:14:47Z</time>
  <course>155.45</course>
  <speed>0.02</speed>
  <fix>3d</fix>
</trkpt>
<trkpt lat="33.8106149" lon="-118.393573">
  <ele>-14.27</ele>
  <time>2026-09-01T01:14:47Z</time>
  <course>103.15</course>
  <speed>0.0</speed>
  <fix>3d</fix>
</trkpt>
<trkpt lat="33.8106148" lon="-118.3935729">
  <ele>-14.618</ele>
  <time>2026-09-01T01:14:47Z</time>
  <course>155.45</course>
  <speed>0.02</speed>
  <fix>3d</fix>
</trkpt>
<trkpt lat="33.8106148" lon="-118.3935728">
  <ele>-14.495</ele>
  <time>2026-09-01T01:14:47Z</time>
  <course>155.44</course>
  <speed>0.02</speed>
  <fix>3d</fix>
</trkpt>
<trkpt lat="33.8106149" lon="-118.393573">
  <ele>-14.02</ele>
  <time>2026-09-01T01:14:47Z</time>
  <course>103.18</course>
  <speed>0.0</speed>
  <fix>3d</fix>
</trkpt>
<trkpt lat="33.8106148" lon="-118.3935728">
  <ele>-14.457</ele>
  <time>2026-09-01T01:14:47Z</time>
  <course>155.44</course>
  <speed>0.02</speed>
  <fix>3d</fix>
</trkpt>
<trkpt lat="33.8106148" lon="-118.3935728">
  <ele>-14.369</ele>
  <time>2026-09-01T01:14:47Z</time>
  <course>155.43</course>
  <speed>0.02</speed>
  <fix>3d</fix>
</trkpt>
<trkpt lat="33.8106149" lon="-118.393573">
  <ele>-14.02</ele>
  <time>2026-09-01T01:14:47Z</time>
  <course>103.18</course>
  <speed>0.0</speed>
  <fix>3d</fix>
</trkpt>
<trkpt lat="33.8106148" lon="-118.3935728">
  <ele>-14.328</ele>
  <time>2026-09-01T01:14:47Z</time>
  <course>155.43</course>
  <speed>0.02</speed>
  <fix>3d</fix>
</trkpt>
<trkpt lat="33.8106148" lon="-118.3935728">
  <ele>-14.244</ele>
  <time>2026-09-01T01:14:47Z</time>
  <course>155.42</course>
  <speed>0.02</speed>
  <fix>3d</fix>
</trkpt>
<trkpt lat="33.8106149" lon="-118.393573">
  <ele>-13.78</ele>
  <time>2026-09-01T01:14:47Z</time>
  <course>103.2</course>
  <speed>0.0</speed>
  <fix>3d</fix>
</trkpt>
<trkpt lat="33.8106148" lon="-118.3935728">
  <ele>-14.206</ele>
  <time>2026-09-01T01:14:47Z</time>
  <course>155.42</course>
  <speed>0.02</speed>
  <fix>3d</fix>
</trkpt>
<trkpt lat="33.8106148" lon="-118.3935728">
  <ele>-14.119</ele>
  <time>2026-09-01T01:14:47Z</time>
  <course>155.41</course>
  <speed>0.02</speed>
  <fix>3d</fix>
</trkpt>
<trkpt lat="33.8106149" lon="-118.393573">
  <ele>-13.78</ele>
  <time>2026-09-01T01:14:47Z</time>
  <course>103.2</course>
  <speed>0.0</speed>
  <fix>3d</fix>
</trkpt>
<trkpt lat="33.8106148" lon="-118.3935728">
  <ele>-14.078</ele>
  <time>2026-09-01T01:14:47Z</time>
  <course>155.41</course>
  <speed>0.02</speed>
  <fix>3d</fix>
</trkpt>
<trkpt lat="33.8106148" lon="-118.3935728">
  <ele>-13.993</ele>
  <time>2026-09-01T01:14:47Z</time>
  <course>155.4</course>
  <speed>0.02</speed>
  <fix>3d</fix>
</trkpt>
<trkpt lat="33.8106149" lon="-118.393573">
  <ele>-13.53</ele>
  <time>2026-09-01T01:14:47Z</time>
  <course>103.22</course>
  <speed>0.0</speed>
  <fix>3d</fix>
</trkpt>
<trkpt lat="33.8106148" lon="-118.3935728">
  <ele>-13.952</ele>
  <time>2026-09-01T01:14:47Z</time>
  <course>155.4</course>
  <speed>0.02</speed>
  <fix>3d</fix>
</trkpt>
<trkpt lat="33.8106148" lon="-118.3935728">
  <ele>-13.867</ele>
  <time>2026-09-01T01:14:47Z</time>
  <course>155.39</course>
  <speed>0.02</speed>
  <fix>3d</fix>
</trkpt>
<trkpt lat="33.8106149" lon="-118.393573">
  <ele>-13.53</ele>
  <time>2026-09-01T01:14:47Z</time>
  <course>103.22</course>
  <speed>0.0</speed>
  <fix>3d</fix>
</trkpt>
<trkpt lat="33.8106148" lon="-118.3935728">
  <ele>-13.74</ele>
  <time>2026-09-01T01:14:47Z</time>
  <course>155.38</course>
  <speed>0.02</speed>
  <fix>3d</fix>
</trkpt>
<trkpt lat="33.8106149" lon="-118.393573">
  <ele>-13.29</ele>
  <time>2026-09-01T01:14:47Z</time>
  <course>103.26</course>
  <speed>0.0</speed>
  <fix>3d</fix>
</trkpt>
<trkpt lat="33.8106148" lon="-118.3935728">
  <ele>-13.613</ele>
  <time>2026-09-01T01:14:47Z</time>
  <course>155.37</course>
  <speed>0.02</speed>
  <fix>3d</fix>
</trkpt>
<trkpt lat="33.8106149" lon="-118.393573">
  <ele>-13.29</ele>
  <time>2026-09-01T01:14:47Z</time>
  <course>103.26</course>
  <speed>0.0</speed>
  <fix>3d</fix>
</trkpt>
<trkpt lat="33.8106148" lon="-118.3935728">
  <ele>-13.489</ele>
  <time>2026-09-01T01:14:47Z</time>
  <course>155.36</course>
  <speed>0.02</speed>
  <fix>3d</fix>
</trkpt>
<trkpt lat="33.8106149" lon="-118.393573">
  <ele>-13.05</ele>
  <time>2026-09-01T01:14:47Z</time>
  <course>103.28</course>
  <speed>0.0</speed>
  <fix>3d</fix>
</trkpt>
<trkpt lat="33.8106148" lon="-118.3935728">
  <ele>-13.37</ele>
  <time>2026-09-01T01:14:47Z</time>
  <course>155.35</course>
  <speed>0.02</speed>
  <fix>3d</fix>
</trkpt>
<trkpt lat="33.8106149" lon="-118.393573">
  <ele>-13.05</ele>
  <time>2026-09-01T01:14:47Z</time>
  <course>103.28</course>
  <speed>0.0</speed>
  <fix>3d</fix>
</trkpt>
<trkpt lat="33.8106148" lon="-118.3935728">
  <ele>-13.261</ele>
  <time>2026-09-01T01:14:47Z</time>
  <course>155.34</course>
  <speed>0.02</speed>
  <fix>3d</fix>
</trkpt>
<trkpt lat="33.8106149" lon="-118.393573">
  <ele>-12.8</ele>
  <time>2026-09-01T01:14:47Z</time>
  <course>102.11</course>
  <speed>0.0</speed>
  <fix>3d</fix>
</trkpt>
<trkpt lat="33.8106148" lon="-118.3935728">
  <ele>-13.167</ele>
  <time>2026-09-01T01:14:47Z</time>
  <course>155.33</course>
  <speed>0.02</speed>
  <fix>3d</fix>
</trkpt>
<trkpt lat="33.8106149" lon="-118.393573">
  <ele>-12.8</ele>
  <time>2026-09-01T01:14:47Z</time>
  <course>102.11</course>
  <speed>0.0</speed>
  <fix>3d</fix>
</trkpt>
<trkpt lat="33.8106148" lon="-118.3935728">
  <ele>-13.088</ele>
  <time>2026-09-01T01:14:47Z</time>
  <course>155.32</course>
  <speed>0.02</speed>
  <fix>3d</fix>
</trkpt>
<trkpt lat="33.8106149" lon="-118.393573">
  <ele>-12.59</ele>
  <time>2026-09-01T01:14:47Z</time>
  <course>97.71</course>
  <speed>0.0</speed>
  <fix>3d</fix>
</trkpt>
<trkpt lat="33.8106148" lon="-118.3935728">
  <ele>-13.025</ele>
  <time>2026-09-01T01:14:47Z</time>
  <course>155.31</course>
  <speed>0.02</speed>
  <fix>3d</fix>
</trkpt>
<trkpt lat="33.8106149" lon="-118.393573">
  <ele>-12.59</ele>
  <time>2026-09-01T01:14:47Z</time>
  <course>97.71</course>
  <speed>0.0</speed>
  <fix>3d</fix>
</trkpt>
<trkpt lat="33.8106148" lon="-118.3935728">
  <ele>-12.978</ele>
  <time>2026-09-01T01:14:47Z</time>
  <course>155.3</course>
  <speed>0.02</speed>
  <fix>3d</fix>
</trkpt>
<trkpt lat="33.8106149" lon="-118.393573">
  <ele>-12.43</ele>
  <time>2026-09-01T01:14:47Z</time>
  <course>92.5</course>
  <speed>0.0</speed>
  <fix>3d</fix>
</trkpt>
<trkpt lat="33.8106148" lon="-118.3935728">
  <ele>-12.943</ele>
  <time>2026-09-01T01:14:47Z</time>
  <course>155.29</course>
  <speed>0.03</speed>
  <fix>3d</fix>
</trkpt>
<trkpt lat="33.8106149" lon="-118.393573">
  <ele>-12.43</ele>
  <time>2026-09-01T01:14:47Z</time>
  <course>92.5</course>
  <speed>0.0</speed>
  <fix>3d</fix>
</trkpt>
<trkpt lat="33.8106148" lon="-118.3935728">
  <ele>-12.918</ele>
  <time>2026-09-01T01:14:47Z</time>
  <course>155.28</course>
  <speed>0.03</speed>
  <fix>3d</fix>
</trkpt>
<trkpt lat="33.8106149" lon="-118.393573">
  <ele>-12.33</ele>
  <time>2026-09-01T01:14:47Z</time>
  <course>89.67</course>
  <speed>0.0</speed>
  <fix>3d</fix>
</trkpt>
<trkpt lat="33.8106148" lon="-118.3935728">
  <ele>-12.903</ele>
  <time>2026-09-01T01:14:47Z</time>
  <course>155.27</course>
  <speed>0.03</speed>
  <fix>3d</fix>
</trkpt>
<trkpt lat="33.8106149" lon="-118.393573">
  <ele>-12.33</ele>
  <time>2026-09-01T01:14:47Z</time>
  <course>89.67</course>
  <speed>0.0</speed>
  <fix>3d</fix>
</trkpt>
<trkpt lat="33.8106148" lon="-118.3935727">
  <ele>-12.895</ele>
  <time>2026-09-01T01:14:47Z</time>
  <course>155.26</course>
  <speed>0.03</speed>
  <fix>3d</fix>
</trkpt>
<trkpt lat="33.8106149" lon="-118.393573">
  <ele>-12.27</ele>
  <time>2026-09-01T01:14:47Z</time>
  <course>88.77</course>
  <speed>0.0</speed>
  <fix>3d</fix>
</trkpt>
<trkpt lat="33.8106148" lon="-118.3935727">
  <ele>-12.892</ele>
  <time>2026-09-01T01:14:47Z</time>
  <course>155.25</course>
  <speed>0.03</speed>
  <fix>3d</fix>
</trkpt>
<trkpt lat="33.8106149" lon="-118.393573">
  <ele>-12.27</ele>
  <time>2026-09-01T01:14:47Z</time>
  <course>88.77</course>
  <speed>0.0</speed>
  <fix>3d</fix>
</trkpt>
<trkpt lat="33.8106148" lon="-118.3935727">
  <ele>-12.893</ele>
  <time>2026-09-01T01:14:47Z</time>
  <course>155.24</course>
  <speed>0.03</speed>
  <fix>3d</fix>
</trkpt>
<trkpt lat="33.8106149" lon="-118.3935729">
  <ele>-12.24</ele>
  <time>2026-09-01T01:14:47Z</time>
  <course>88.47</course>
  <speed>0.0</speed>
  <fix>3d</fix>
</trkpt>
<trkpt lat="33.8106148" lon="-118.3935727">
  <ele>-12.896</ele>
  <time>2026-09-01T01:14:47Z</time>
  <course>155.23</course>
  <speed>0.03</speed>
  <fix>3d</fix>
</trkpt>
<trkpt lat="33.8106149" lon="-118.3935729">
  <ele>-12.24</ele>
  <time>2026-09-01T01:14:47Z</time>
  <course>88.47</course>
  <speed>0.0</speed>
  <fix>3d</fix>
</trkpt>
<trkpt lat="33.8106148" lon="-118.3935727">
  <ele>-12.898</ele>
  <time>2026-09-01T01:14:47Z</time>
  <course>155.22</course>
  <speed>0.03</speed>
  <fix>3d</fix>
</trkpt>
<trkpt lat="33.8106149" lon="-118.3935729">
  <ele>-12.23</ele>
  <time>2026-09-01T01:14:47Z</time>
  <course>88.32</course>
  <speed>0.0</speed>
  <fix>3d</fix>
</trkpt>
<trkpt lat="33.8106148" lon="-118.3935727">
  <ele>-12.9</ele>
  <time>2026-09-01T01:14:47Z</time>
  <course>155.21</course>
  <speed>0.03</speed>
  <fix>3d</fix>
</trkpt>
<trkpt lat="33.8106149" lon="-118.3935729">
  <ele>-12.23</ele>
  <time>2026-09-01T01:14:47Z</time>
  <course>88.32</course>
  <speed>0.0</speed>
  <fix>3d</fix>
</trkpt>
<trkpt lat="33.8106148" lon="-118.3935727">
  <ele>-12.901</ele>
  <time>2026-09-01T01:14:47Z</time>
  <course>155.2</course>
  <speed>0.03</speed>
  <fix>3d</fix>
</trkpt>
<trkpt lat="33.8106149" lon="-118.3935729">
  <ele>-12.22</ele>
  <time>2026-09-01T01:14:47Z</time>
  <course>88.31</course>
  <speed>0.0</speed>
  <fix>3d</fix>
</trkpt>
<trkpt lat="33.8106148" lon="-118.3935727">
  <ele>-12.9</ele>
  <time>2026-09-01T01:14:47Z</time>
  <course>155.19</course>
  <speed>0.03</speed>
  <fix>3d</fix>
</trkpt>
<trkpt lat="33.8106149" lon="-118.3935729">
  <ele>-12.22</ele>
  <time>2026-09-01T01:14:47Z</time>
  <course>88.31</course>
  <speed>0.0</speed>
  <fix>3d</fix>
</trkpt>
<trkpt lat="33.8106148" lon="-118.3935727">
  <ele>-12.899</ele>
  <time>2026-09-01T01:14:47Z</time>
  <course>155.19</course>
  <speed>0.03</speed>
  <fix>3d</fix>
</trkpt>
<trkpt lat="33.8106149" lon="-118.3935729">
  <ele>-12.21</ele>
  <time>2026-09-01T01:14:47Z</time>
  <course>88.35</course>
  <speed>0.0</speed>
  <fix>3d</fix>
</trkpt>
<trkpt lat="33.8106148" lon="-118.3935727">
  <ele>-12.897</ele>
  <time>2026-09-01T01:14:47Z</time>
  <course>155.18</course>
  <speed>0.03</speed>
  <fix>3d</fix>
</trkpt>
<trkpt lat="33.8106149" lon="-118.3935729">
  <ele>-12.21</ele>
  <time>2026-09-01T01:14:47Z</time>
  <course>88.35</course>
  <speed>0.0</speed>
  <fix>3d</fix>
</trkpt>
<trkpt lat="33.8106148" lon="-118.3935727">
  <ele>-12.894</ele>
  <time>2026-09-01T01:14:47Z</time>
  <course>155.17</course>
  <speed>0.03</speed>
  <fix>3d</fix>
</trkpt>
<trkpt lat="33.8106149" lon="-118.3935729">
  <ele>-12.2</ele>
  <time>2026-09-01T01:14:47Z</time>
  <course>88.42</course>
  <speed>0.0</speed>
  <fix>3d</fix>
</trkpt>
<trkpt lat="33.8106148" lon="-118.3935727">
  <ele>-12.891</ele>
  <time>2026-09-01T01:14:47Z</time>
  <course>155.16</course>
  <speed>0.03</speed>
  <fix>3d</fix>
</trkpt>
<trkpt lat="33.8106149" lon="-118.3935729">
  <ele>-12.2</ele>
  <time>2026-09-01T01:14:47Z</time>
  <course>88.42</course>
  <speed>0.0</speed>
  <fix>3d</fix>
</trkpt>
<trkpt lat="33.8106148" lon="-118.3935727">
  <ele>-12.888</ele>
  <time>2026-09-01T01:14:47Z</time>
  <course>155.15</course>
  <speed>0.03</speed>
  <fix>3d</fix>
</trkpt>
<trkpt lat="33.8106149" lon="-118.3935729">
  <ele>-12.19</ele>
  <time>2026-09-01T01:14:47Z</time>
  <course>88.53</course>
  <speed>0.0</speed>
  <fix>3d</fix>
</trkpt>
<trkpt lat="33.8106148" lon="-118.3935727">
  <ele>-12.886</ele>
  <time>2026-09-01T01:14:47Z</time>
  <course>155.14</course>
  <speed>0.03</speed>
  <fix>3d</fix>
</trkpt>
<trkpt lat="33.8106149" lon="-118.3935729">
  <ele>-12.19</ele>
  <time>2026-09-01T01:14:47Z</time>
  <course>88.53</course>
  <speed>0.0</speed>
  <fix>3d</fix>
</trkpt>
<trkpt lat="33.8106148" lon="-118.3935726">
  <ele>-12.883</ele>
  <time>2026-09-01T01:14:47Z</time>
  <course>155.13</course>
  <speed>0.03</speed>
  <fix>3d</fix>
</trkpt>
<trkpt lat="33.8106149" lon="-118.3935729">
  <ele>-12.18</ele>
  <time>2026-09-01T01:14:47Z</time>
  <course>88.57</course>
  <speed>0.0</speed>
  <fix>3d</fix>
</trkpt>
<trkpt lat="33.8106148" lon="-118.3935726">
  <ele>-12.883</ele>
  <time>2026-09-01T01:14:47Z</time>
  <course>155.12</course>
  <speed>0.03</speed>
  <fix>3d</fix>
</trkpt>
<trkpt lat="33.8106149" lon="-118.3935729">
  <ele>-12.18</ele>
  <time>2026-09-01T01:14:47Z</time>
  <course>88.57</course>
  <speed>0.0</speed>
  <fix>3d</fix>
</trkpt>
<trkpt lat="33.8106148" lon="-118.3935726">
  <ele>-12.883</ele>
  <time>2026-09-01T01:14:47Z</time>
  <course>155.11</course>
  <speed>0.03</speed>
  <fix>3d</fix>
</trkpt>
<trkpt lat="33.8106149" lon="-118.3935729">
  <ele>-12.18</ele>
  <time>2026-09-01T01:14:47Z</time>
  <course>88.47</course>
  <speed>0.0</speed>
  <fix>3d</fix>
</trkpt>
<trkpt lat="33.8106148" lon="-118.3935726">
  <ele>-12.884</ele>
  <time>2026-09-01T01:14:47Z</time>
  <course>155.1</course>
  <speed>0.03</speed>
  <fix>3d</fix>
</trkpt>
<trkpt lat="33.8106149" lon="-118.3935729">
  <ele>-12.18</ele>
  <time>2026-09-01T01:14:47Z</time>
  <course>88.47</course>
  <speed>0.0</speed>
  <fix>3d</fix>
</trkpt>
<trkpt lat="33.8106148" lon="-118.3935726">
  <ele>-12.885</ele>
  <time>2026-09-01T01:14:47Z</time>
  <course>155.09</course>
  <speed>0.03</speed>
  <fix>3d</fix>
</trkpt>
<trkpt lat="33.8106149" lon="-118.3935728">
  <ele>-12.18</ele>
  <time>2026-09-01T01:14:47Z</time>
  <course>88.37</course>
  <speed>0.0</speed>
  <fix>3d</fix>
</trkpt>
<trkpt lat="33.8106148" lon="-118.3935726">
  <ele>-12.886</ele>
  <time>2026-09-01T01:14:47Z</time>
  <course>155.08</course>
  <speed>0.03</speed>
  <fix>3d</fix>
</trkpt>
<trkpt lat="33.8106149" lon="-118.3935728">
  <ele>-12.18</ele>
  <time>2026-09-01T01:14:47Z</time>
  <course>88.37</course>
  <speed>0.0</speed>
  <fix>3d</fix>
</trkpt>
<trkpt lat="33.8106148" lon="-118.3935726">
  <ele>-12.886</ele>
  <time>2026-09-01T01:14:47Z</time>
  <course>155.07</course>
  <speed>0.03</speed>
  <fix>3d</fix>
</trkpt>
<trkpt lat="33.8106149" lon="-118.3935728">
  <ele>-12.18</ele>
  <time>2026-09-01T01:14:47Z</time>
  <course>88.37</course>
  <speed>0.0</speed>
  <fix>3d</fix>
</trkpt>
<trkpt lat="33.8106148" lon="-118.3935726">
  <ele>-12.886</ele>
  <time>2026-09-01T01:14:47Z</time>
  <course>155.07</course>
  <speed>0.03</speed>
  <fix>3d</fix>
</trkpt>
<trkpt lat="33.8106149" lon="-118.3935728">
  <ele>-12.18</ele>
  <time>2026-09-01T01:14:47Z</time>
  <course>88.37</course>
  <speed>0.0</speed>
  <fix>3d</fix>
</trkpt>
<trkpt lat="33.8106148" lon="-118.3935726">
  <ele>-12.887</ele>
  <time>2026-09-01T01:14:47Z</time>
  <course>155.06</course>
  <speed>0.03</speed>
  <fix>3d</fix>
</trkpt>
<trkpt lat="33.8106149" lon="-118.3935728">
  <ele>-12.18</ele>
  <time>2026-09-01T01:14:47Z</time>
  <course>88.41</course>
  <speed>0.0</speed>
  <fix>3d</fix>
</trkpt>
<trkpt lat="33.8106148" lon="-118.3935726">
  <ele>-12.888</ele>
  <time>2026-09-01T01:14:47Z</time>
  <course>155.05</course>
  <speed>0.03</speed>
  <fix>3d</fix>
</trkpt>
<trkpt lat="33.8106149" lon="-118.3935728">
  <ele>-12.18</ele>
  <time>2026-09-01T01:14:47Z</time>
  <course>88.41</course>
  <speed>0.0</speed>
  <fix>3d</fix>
</trkpt>
<trkpt lat="33.8106148" lon="-118.3935726">
  <ele>-12.887</ele>
  <time>2026-09-01T01:14:47Z</time>
  <course>155.04</course>
  <speed>0.03</speed>
  <fix>3d</fix>
</trkpt>
<trkpt lat="33.8106149" lon="-118.3935728">
  <ele>-12.18</ele>
  <time>2026-09-01T01:14:47Z</time>
  <course>88.47</course>
  <speed>0.0</speed>
  <fix>3d</fix>
</trkpt>
<trkpt lat="33.8106148" lon="-118.3935726">
  <ele>-12.885</ele>
  <time>2026-09-01T01:14:47Z</time>
  <course>155.03</course>
  <speed>0.03</speed>
  <fix>3d</fix>
</trkpt>
<trkpt lat="33.8106149" lon="-118.3935728">
  <ele>-12.18</ele>
  <time>2026-09-01T01:14:47Z</time>
  <course>88.47</course>
  <speed>0.0</speed>
  <fix>3d</fix>
</trkpt>
<trkpt lat="33.8106148" lon="-118.3935726">
  <ele>-12.883</ele>
  <time>2026-09-01T01:14:47Z</time>
  <course>155.02</course>
  <speed>0.03</speed>
  <fix>3d</fix>
</trkpt>
<trkpt lat="33.8106149" lon="-118.3935728">
  <ele>-12.18</ele>
  <time>2026-09-01T01:14:47Z</time>
  <course>88.52</course>
  <speed>0.0</speed>
  <fix>3d</fix>
</trkpt>
<trkpt lat="33.8106148" lon="-118.3935726">
  <ele>-12.882</ele>
  <time>2026-09-01T01:14:47Z</time>
  <course>155.01</course>
  <speed>0.03</speed>
  <fix>3d</fix>
</trkpt>
<trkpt lat="33.8106149" lon="-118.3935728">
  <ele>-12.18</ele>
  <time>2026-09-01T01:14:47Z</time>
  <course>88.52</course>
  <speed>0.0</speed>
  <fix>3d</fix>
</trkpt>
<trkpt lat="33.8106148" lon="-118.3935725">
  <ele>-12.883</ele>
  <time>2026-09-01T01:14:47Z</time>
  <course>155.0</course>
  <speed>0.03</speed>
  <fix>3d</fix>
</trkpt>
<trkpt lat="33.8106149" lon="-118.3935728">
  <ele>-12.18</ele>
  <time>2026-09-01T01:14:47Z</time>
  <course>88.53</course>
  <speed>0.0</speed>
  <fix>3d</fix>
</trkpt>
<trkpt lat="33.8106148" lon="-118.3935725">
  <ele>-12.885</ele>
  <time>2026-09-01T01:14:47Z</time>
  <course>154.99</course>
  <speed>0.0316227766016838</speed>
  <fix>3d</fix>
</trkpt>
<trkpt lat="33.8106149" lon="-118.3935728">
  <ele>-12.18</ele>
  <time>2026-09-01T01:14:47Z</time>
  <course>88.53</course>
  <speed>0.0</speed>
  <fix>3d</fix>
</trkpt>
<trkpt lat="33.8106148" lon="-118.3935725">
  <ele>-12.886</ele>
  <time>2026-09-01T01:14:47Z</time>
  <course>154.99</course>
  <speed>0.0316227766016838</speed>
  <fix>3d</fix>
</trkpt>
<trkpt lat="33.8106149" lon="-118.3935728">
  <ele>-12.18</ele>
  <time>2026-09-01T01:14:47Z</time>
  <course>88.52</course>
  <speed>0.0</speed>
  <fix>3d</fix>
</trkpt>
<trkpt lat="33.8106148" lon="-118.3935725">
  <ele>-12.887</ele>
  <time>2026-09-01T01:14:47Z</time>
  <course>154.98</course>
  <speed>0.0316227766016838</speed>
  <fix>3d</fix>
</trkpt>
<trkpt lat="33.8106149" lon="-118.3935728">
  <ele>-12.18</ele>
  <time>2026-09-01T01:14:47Z</time>
  <course>88.52</course>
  <speed>0.0</speed>
  <fix>3d</fix>
</trkpt>
<trkpt lat="33.8106148" lon="-118.3935725">
  <ele>-12.887</ele>
  <time>2026-09-01T01:14:47Z</time>
  <course>154.97</course>
  <speed>0.0316227766016838</speed>
  <fix>3d</fix>
</trkpt>
<trkpt lat="33.8106149" lon="-118.3935728">
  <ele>-12.18</ele>
  <time>2026-09-01T01:14:47Z</time>
  <course>88.57</course>
  <speed>0.0</speed>
  <fix>3d</fix>
</trkpt>
<trkpt lat="33.8106148" lon="-118.3935725">
  <ele>-12.886</ele>
  <time>2026-09-01T01:14:47Z</time>
  <course>154.96</course>
  <speed>0.0316227766016838</speed>
  <fix>3d</fix>
</trkpt>
<trkpt lat="33.8106149" lon="-118.3935728">
  <ele>-12.18</ele>
  <time>2026-09-01T01:14:47Z</time>
  <course>88.57</course>
  <speed>0.0</speed>
  <fix>3d</fix>
</trkpt>
<trkpt lat="33.8106148" lon="-118.3935725">
  <ele>-12.886</ele>
  <time>2026-09-01T01:14:47Z</time>
  <course>154.95</course>
  <speed>0.0316227766016838</speed>
  <fix>3d</fix>
</trkpt>
<trkpt lat="33.8106149" lon="-118.3935728">
  <ele>-12.18</ele>
  <time>2026-09-01T01:14:47Z</time>
  <course>88.62</course>
  <speed>0.0</speed>
  <fix>3d</fix>
</trkpt>
<trkpt lat="33.8106148" lon="-118.3935725">
  <ele>-12.887</ele>
  <time>2026-09-01T01:14:47Z</time>
  <course>154.94</course>
  <speed>0.0316227766016838</speed>
  <fix>3d</fix>
</trkpt>
<trkpt lat="33.8106149" lon="-118.3935728">
  <ele>-12.18</ele>
  <time>2026-09-01T01:14:47Z</time>
  <course>88.62</course>
  <speed>0.0</speed>
  <fix>3d</fix>
</trkpt>
<trkpt lat="33.8106148" lon="-118.3935725">
  <ele>-12.888</ele>
  <time>2026-09-01T01:14:47Z</time>
  <course>154.93</course>
  <speed>0.0316227766016838</speed>
  <fix>3d</fix>
</trkpt>
<trkpt lat="33.8106149" lon="-118.3935727">
  <ele>-12.18</ele>
  <time>2026-09-01T01:14:47Z</time>
  <course>88.61</course>
  <speed>0.0</speed>
  <fix>3d</fix>
</trkpt>
<trkpt lat="33.8106148" lon="-118.3935725">
  <ele>-12.889</ele>
  <time>2026-09-01T01:14:47Z</time>
  <course>154.93</course>
  <speed>0.0316227766016838</speed>
  <fix>3d</fix>
</trkpt>
<trkpt lat="33.8106149" lon="-118.3935727">
  <ele>-12.18</ele>
  <time>2026-09-01T01:14:47Z</time>
  <course>88.61</course>
  <speed>0.0</speed>
  <fix>3d</fix>
</trkpt>
<trkpt lat="33.8106148" lon="-118.3935725">
  <ele>-12.89</ele>
  <time>2026-09-01T01:14:47Z</time>
  <course>154.92</course>
  <speed>0.0316227766016838</speed>
  <fix>3d</fix>
</trkpt>
<trkpt lat="33.8106149" lon="-118.3935727">
  <ele>-12.19</ele>
  <time>2026-09-01T01:14:47Z</time>
  <course>88.61</course>
  <speed>0.0</speed>
  <fix>3d</fix>
</trkpt>
<trkpt lat="33.8106148" lon="-118.3935725">
  <ele>-12.89</ele>
  <time>2026-09-01T01:14:47Z</time>
  <course>154.91</course>
  <speed>0.0316227766016838</speed>
  <fix>3d</fix>
</trkpt>
<trkpt lat="33.8106149" lon="-118.3935727">
  <ele>-12.19</ele>
  <time>2026-09-01T01:14:47Z</time>
  <course>88.61</course>
  <speed>0.0</speed>
  <fix>3d</fix>
</trkpt>
<trkpt lat="33.8106148" lon="-118.3935725">
  <ele>-12.89</ele>
  <time>2026-09-01T01:14:47Z</time>
  <course>154.9</course>
  <speed>0.0316227766016838</speed>
  <fix>3d</fix>
</trkpt>
<trkpt lat="33.8106149" lon="-118.3935727">
  <ele>-12.19</ele>
  <time>2026-09-01T01:14:47Z</time>
  <course>88.67</course>
  <speed>0.0</speed>
  <fix>3d</fix>
</trkpt>
<trkpt lat="33.8106148" lon="-118.3935725">
  <ele>-12.89</ele>
  <time>2026-09-01T01:14:47Z</time>
  <course>154.89</course>
  <speed>0.0316227766016838</speed>
  <fix>3d</fix>
</trkpt>
<trkpt lat="33.8106149" lon="-118.3935727">
  <ele>-12.19</ele>
  <time>2026-09-01T01:14:47Z</time>
  <course>88.67</course>
  <speed>0.0</speed>
  <fix>3d</fix>
</trkpt>
<trkpt lat="33.8106148" lon="-118.3935725">
  <ele>-12.891</ele>
  <time>2026-09-01T01:14:47Z</time>
  <course>154.88</course>
  <speed>0.0316227766016838</speed>
  <fix>3d</fix>
</trkpt>
<trkpt lat="33.8106149" lon="-118.3935727">
  <ele>-12.19</ele>
  <time>2026-09-01T01:14:47Z</time>
  <course>88.74</course>
  <speed>0.0</speed>
  <fix>3d</fix>
</trkpt>
<trkpt lat="33.8106148" lon="-118.3935725">
  <ele>-12.891</ele>
  <time>2026-09-01T01:14:47Z</time>
  <course>154.88</course>
  <speed>0.0316227766016838</speed>
  <fix>3d</fix>
</trkpt>
<trkpt lat="33.8106149" lon="-118.3935727">
  <ele>-12.19</ele>
  <time>2026-09-01T01:14:47Z</time>
  <course>88.74</course>
  <speed>0.0</speed>
  <fix>3d</fix>
</trkpt>
<trkpt lat="33.8106148" lon="-118.3935725">
  <ele>-12.891</ele>
  <time>2026-09-01T01:14:47Z</time>
  <course>154.87</course>
  <speed>0.0316227766016838</speed>
  <fix>3d</fix>
</trkpt>
<trkpt lat="33.8106149" lon="-118.3935727">
  <ele>-12.19</ele>
  <time>2026-09-01T01:14:47Z</time>
  <course>88.77</course>
  <speed>0.0</speed>
  <fix>3d</fix>
</trkpt>
<trkpt lat="33.8106148" lon="-118.3935725">
  <ele>-12.892</ele>
  <time>2026-09-01T01:14:47Z</time>
  <course>154.86</course>
  <speed>0.0316227766016838</speed>
  <fix>3d</fix>
</trkpt>
<trkpt lat="33.8106149" lon="-118.3935727">
  <ele>-12.19</ele>
  <time>2026-09-01T01:14:47Z</time>
  <course>88.77</course>
  <speed>0.0</speed>
  <fix>3d</fix>
</trkpt>
<trkpt lat="33.8106148" lon="-118.3935725">
  <ele>-12.892</ele>
  <time>2026-09-01T01:14:47Z</time>
  <course>154.85</course>
  <speed>0.0316227766016838</speed>
  <fix>3d</fix>
</trkpt>
<trkpt lat="33.8106149" lon="-118.3935727">
  <ele>-12.19</ele>
  <time>2026-09-01T01:14:47Z</time>
  <course>88.79</course>
  <speed>0.0</speed>
  <fix>3d</fix>
</trkpt>
<trkpt lat="33.8106148" lon="-118.3935724">
  <ele>-12.89</ele>
  <time>2026-09-01T01:14:47Z</time>
  <course>154.84</course>
  <speed>0.0316227766016838</speed>
  <fix>3d</fix>
</trkpt>
<trkpt lat="33.8106149" lon="-118.3935727">
  <ele>-12.19</ele>
  <time>2026-09-01T01:14:47Z</time>
  <course>88.79</course>
  <speed>0.0</speed>
  <fix>3d</fix>
</trkpt>
<trkpt lat="33.8106148" lon="-118.3935724">
  <ele>-12.89</ele>
  <time>2026-09-01T01:14:47Z</time>
  <course>154.84</course>
  <speed>0.0316227766016838</speed>
  <fix>3d</fix>
</trkpt>
<trkpt lat="33.8106149" lon="-118.3935727">
  <ele>-12.18</ele>
  <time>2026-09-01T01:14:47Z</time>
  <course>88.84</course>
  <speed>0.0</speed>
  <fix>3d</fix>
</trkpt>
<trkpt lat="33.8106148" lon="-118.3935724">
  <ele>-12.888</ele>
  <time>2026-09-01T01:14:47Z</time>
  <course>154.83</course>
  <speed>0.0316227766016838</speed>
  <fix>3d</fix>
</trkpt>
<trkpt lat="33.8106149" lon="-118.3935727">
  <ele>-12.18</ele>
  <time>2026-09-01T01:14:47Z</time>
  <course>88.84</course>
  <speed>0.0</speed>
  <fix>3d</fix>
</trkpt>
<trkpt lat="33.8106148" lon="-118.3935724">
  <ele>-12.887</ele>
  <time>2026-09-01T01:14:47Z</time>
  <course>154.82</course>
  <speed>0.0316227766016838</speed>
  <fix>3d</fix>
</trkpt>
<trkpt lat="33.8106149" lon="-118.3935727">
  <ele>-12.18</ele>
  <time>2026-09-01T01:14:47Z</time>
  <course>88.88</course>
  <speed>0.0</speed>
  <fix>3d</fix>
</trkpt>
<trkpt lat="33.8106148" lon="-118.3935724">
  <ele>-12.885</ele>
  <time>2026-09-01T01:14:47Z</time>
  <course>154.81</course>
  <speed>0.0316227766016838</speed>
  <fix>3d</fix>
</trkpt>
<trkpt lat="33.8106149" lon="-118.3935727">
  <ele>-12.18</ele>
  <time>2026-09-01T01:14:48Z</time>
  <course>88.88</course>
  <speed>0.0</speed>
  <fix>3d</fix>
</trkpt>
<trkpt lat="33.8106148" lon="-118.3935724">
  <ele>-12.885</ele>
  <time>2026-09-01T01:14:48Z</time>
  <course>154.8</course>
  <speed>0.0316227766016838</speed>
  <fix>3d</fix>
</trkpt>
<trkpt lat="33.8106149" lon="-118.3935726">
  <ele>-12.18</ele>
  <time>2026-09-01T01:14:48Z</time>
  <course>88.91</course>
  <speed>0.0</speed>
  <fix>3d</fix>
</trkpt>
<trkpt lat="33.8106148" lon="-118.3935724">
  <ele>-12.883</ele>
  <time>2026-09-01T01:14:48Z</time>
  <course>154.8</course>
  <speed>0.0316227766016838</speed>
  <fix>3d</fix>
</trkpt>
<trkpt lat="33.8106149" lon="-118.3935726">
  <ele>-12.18</ele>
  <time>2026-09-01T01:14:48Z</time>
  <course>88.91</course>
  <speed>0.0</speed>
  <fix>3d</fix>
</trkpt>
<trkpt lat="33.8106148" lon="-118.3935724">
  <ele>-12.865</ele>
  <time>2026-09-01T01:14:48Z</time>
  <course>154.79</course>
  <speed>0.0316227766016838</speed>
  <fix>3d</fix>
</trkpt>
<trkpt lat="33.8106149" lon="-118.3935726">
  <ele>-12.18</ele>
  <time>2026-09-01T01:14:48Z</time>
  <course>89.18</course>
  <speed>0.0</speed>
  <fix>3d</fix>
</trkpt>
<trkpt lat="33.8106148" lon="-118.3935724">
  <ele>-12.824</ele>
  <time>2026-09-01T01:14:48Z</time>
  <course>154.78</course>
  <speed>0.0316227766016838</speed>
  <fix>3d</fix>
</trkpt>
<trkpt lat="33.8106149" lon="-118.3935726">
  <ele>-12.18</ele>
  <time>2026-09-01T01:14:48Z</time>
  <course>89.18</course>
  <speed>0.0</speed>
  <fix>3d</fix>
</trkpt>
<trkpt lat="33.8106148" lon="-118.3935724">
  <ele>-12.823</ele>
  <time>2026-09-01T01:14:48Z</time>
  <course>154.78</course>
  <speed>0.0316227766016838</speed>
  <fix>3d</fix>
</trkpt>
<trkpt lat="33.8106148" lon="-118.3935724">
  <ele>-12.763</ele>
  <time>2026-09-01T01:14:48Z</time>
  <course>154.77</course>
  <speed>0.0316227766016838</speed>
  <fix>3d</fix>
</trkpt>
<trkpt lat="33.8106149" lon="-118.3935726">
  <ele>-12.14</ele>
  <time>2026-09-01T01:14:48Z</time>
  <course>90.71</course>
  <speed>0.0</speed>
  <fix>3d</fix>
</trkpt>
<trkpt lat="33.8106148" lon="-118.3935724">
  <ele>-12.762</ele>
  <time>2026-09-01T01:14:48Z</time>
  <course>154.77</course>
  <speed>0.0316227766016838</speed>
  <fix>3d</fix>
</trkpt>
<trkpt lat="33.8106148" lon="-118.3935724">
  <ele>-12.683</ele>
  <time>2026-09-01T01:14:48Z</time>
  <course>154.76</course>
  <speed>0.0316227766016838</speed>
  <fix>3d</fix>
</trkpt>
<trkpt lat="33.8106149" lon="-118.3935726">
  <ele>-12.14</ele>
  <time>2026-09-01T01:14:48Z</time>
  <course>90.71</course>
  <speed>0.0</speed>
  <fix>3d</fix>
</trkpt>
<trkpt lat="33.8106148" lon="-118.3935724">
  <ele>-12.652</ele>
  <time>2026-09-01T01:14:48Z</time>
  <course>154.76</course>
  <speed>0.0316227766016838</speed>
  <fix>3d</fix>
</trkpt>
<trkpt lat="33.8106148" lon="-118.3935724">
  <ele>-12.582</ele>
  <time>2026-09-01T01:14:48Z</time>
  <course>154.76</course>
  <speed>0.0316227766016838</speed>
  <fix>3d</fix>
</trkpt>
<trkpt lat="33.8106149" lon="-118.3935726">
  <ele>-12.04</ele>
  <time>2026-09-01T01:14:48Z</time>
  <course>94.03</course>
  <speed>0.0</speed>
  <fix>3d</fix>
</trkpt>
<trkpt lat="33.8106148" lon="-118.3935724">
  <ele>-12.542</ele>
  <time>2026-09-01T01:14:48Z</time>
  <course>154.75</course>
  <speed>0.0316227766016838</speed>
  <fix>3d</fix>
</trkpt>
<trkpt lat="33.8106148" lon="-118.3935724">
  <ele>-12.462</ele>
  <time>2026-09-01T01:14:48Z</time>
  <course>154.75</course>
  <speed>0.0316227766016838</speed>
  <fix>3d</fix>
</trkpt>
<trkpt lat="33.8106149" lon="-118.3935726">
  <ele>-12.04</ele>
  <time>2026-09-01T01:14:48Z</time>
  <course>94.03</course>
  <speed>0.0</speed>
  <fix>3d</fix>
</trkpt>
<trkpt lat="33.8106148" lon="-118.3935724">
  <ele>-12.42</ele>
  <time>2026-09-01T01:14:48Z</time>
  <course>154.75</course>
  <speed>0.0316227766016838</speed>
  <fix>3d</fix>
</trkpt>
<trkpt lat="33.8106148" lon="-118.3935724">
  <ele>-12.332</ele>
  <time>2026-09-01T01:14:48Z</time>
  <course>154.74</course>
  <speed>0.0316227766016838</speed>
  <fix>3d</fix>
</trkpt>
<trkpt lat="33.8106149" lon="-118.3935726">
  <ele>-11.86</ele>
  <time>2026-09-01T01:14:48Z</time>
  <course>98.26</course>
  <speed>0.0</speed>
  <fix>3d</fix>
</trkpt>
<trkpt lat="33.8106148" lon="-118.3935724">
  <ele>-12.289</ele>
  <time>2026-09-01T01:14:48Z</time>
  <course>154.74</course>
  <speed>0.0316227766016838</speed>
  <fix>3d</fix>
</trkpt>
<trkpt lat="33.8106148" lon="-118.3935724">
  <ele>-12.2</ele>
  <time>2026-09-01T01:14:48Z</time>
  <course>154.73</course>
  <speed>0.0316227766016838</speed>
  <fix>3d</fix>
</trkpt>
<trkpt lat="33.8106149" lon="-118.3935726">
  <ele>-11.86</ele>
  <time>2026-09-01T01:14:48Z</time>
  <course>98.26</course>
  <speed>0.0</speed>
  <fix>3d</fix>
</trkpt>
<trkpt lat="33.8106148" lon="-118.3935724">
  <ele>-12.15</ele>
  <time>2026-09-01T01:14:48Z</time>
  <course>154.73</course>
  <speed>0.0316227766016838</speed>
  <fix>3d</fix>
</trkpt>
<trkpt lat="33.8106148" lon="-118.3935724">
  <ele>-12.067</ele>
  <time>2026-09-01T01:14:48Z</time>
  <course>154.72</course>
  <speed>0.0316227766016838</speed>
  <fix>3d</fix>
</trkpt>
<trkpt lat="33.8106149" lon="-118.3935726">
  <ele>-11.63</ele>
  <time>2026-09-01T01:14:48Z</time>
  <course>100.65</course>
  <speed>0.0</speed>
  <fix>3d</fix>
</trkpt>
<trkpt lat="33.8106148" lon="-118.3935724">
  <ele>-12.024</ele>
  <time>2026-09-01T01:14:48Z</time>
  <course>154.72</course>
  <speed>0.0316227766016838</speed>
  <fix>3d</fix>
</trkpt>
<trkpt lat="33.8106148" lon="-118.3935724">
  <ele>-11.934</ele>
  <time>2026-09-01T01:14:48Z</time>
  <course>154.72</course>
  <speed>0.0316227766016838</speed>
  <fix>3d</fix>
</trkpt>
<trkpt lat="33.8106149" lon="-118.3935726">
  <ele>-11.63</ele>
  <time>2026-09-01T01:14:48Z</time>
  <course>100.65</course>
  <speed>0.0</speed>
  <fix>3d</fix>
</trkpt>
<trkpt lat="33.8106148" lon="-118.3935724">
  <ele>-11.886</ele>
  <time>2026-09-01T01:14:48Z</time>
  <course>154.71</course>
  <speed>0.0316227766016838</speed>
  <fix>3d</fix>
</trkpt>
<trkpt lat="33.8106148" lon="-118.3935724">
  <ele>-11.798</ele>
  <time>2026-09-01T01:14:48Z</time>
  <course>154.71</course>
  <speed>0.022360679774997897</speed>
  <fix>3d</fix>
</trkpt>
<trkpt lat="33.8106149" lon="-118.3935726">
  <ele>-11.38</ele>
  <time>2026-09-01T01:14:48Z</time>
  <course>100.75</course>
  <speed>0.0</speed>
  <fix>3d</fix>
</trkpt>
<trkpt lat="33.8106148" lon="-118.3935724">
  <ele>-11.755</ele>
  <time>2026-09-01T01:14:48Z</time>
  <course>154.71</course>
  <speed>0.022360679774997897</speed>
  <fix>3d</fix>
</trkpt>
<trkpt lat="33.8106148" lon="-118.3935724">
  <ele>-11.665</ele>
  <time>2026-09-01T01:14:48Z</time>
  <course>154.7</course>
  <speed>0.022360679774997897</speed>
  <fix>3d</fix>
</trkpt>
<trkpt lat="33.8106149" lon="-118.3935726">
  <ele>-11.38</ele>
  <time>2026-09-01T01:14:48Z</time>
  <course>100.75</course>
  <speed>0.0</speed>
  <fix>3d</fix>
</trkpt>
<trkpt lat="33.8106148" lon="-118.3935724">
  <ele>-11.615</ele>
  <time>2026-09-01T01:14:48Z</time>
  <course>154.7</course>
  <speed>0.022360679774997897</speed>
  <fix>3d</fix>
</trkpt>
<trkpt lat="33.8106148" lon="-118.3935724">
  <ele>-11.532</ele>
  <time>2026-09-01T01:14:48Z</time>
  <course>154.69</course>
  <speed>0.022360679774997897</speed>
  <fix>3d</fix>
</trkpt>
<trkpt lat="33.8106149" lon="-118.3935726">
  <ele>-11.14</ele>
  <time>2026-09-01T01:14:48Z</time>
  <course>100.77</course>
  <speed>0.0</speed>
  <fix>3d</fix>
</trkpt>
<trkpt lat="33.8106148" lon="-118.3935724">
  <ele>-11.529</ele>
  <time>2026-09-01T01:14:48Z</time>
  <course>154.69</course>
  <speed>0.022360679774997897</speed>
  <fix>3d</fix>
</trkpt>
<trkpt lat="33.8106148" lon="-118.3935724">
  <ele>-11.399</ele>
  <time>2026-09-01T01:14:48Z</time>
  <course>154.68</course>
  <speed>0.022360679774997897</speed>
  <fix>3d</fix>
</trkpt>
<trkpt lat="33.8106149" lon="-118.3935726">
  <ele>-11.14</ele>
  <time>2026-09-01T01:14:48Z</time>
  <course>100.77</course>
  <speed>0.0</speed>
  <fix>3d</fix>
</trkpt>
<trkpt lat="33.8106148" lon="-118.3935724">
  <ele>-11.353</ele>
  <time>2026-09-01T01:14:48Z</time>
  <course>154.68</course>
  <speed>0.022360679774997897</speed>
  <fix>3d</fix>
</trkpt>
<trkpt lat="33.8106148" lon="-118.3935724">
  <ele>-11.267</ele>
  <time>2026-09-01T01:14:48Z</time>
  <course>154.68</course>
  <speed>0.022360679774997897</speed>
  <fix>3d</fix>
</trkpt>
<trkpt lat="33.8106149" lon="-118.3935726">
  <ele>-10.89</ele>
  <time>2026-09-01T01:14:48Z</time>
  <course>100.85</course>
  <speed>0.0</speed>
  <fix>3d</fix>
</trkpt>
<trkpt lat="33.8106148" lon="-118.3935724">
  <ele>-11.225</ele>
  <time>2026-09-01T01:14:48Z</time>
  <course>154.67</course>
  <speed>0.022360679774997897</speed>
  <fix>3d</fix>
</trkpt>
<trkpt lat="33.8106148" lon="-118.3935724">
  <ele>-11.136</ele>
  <time>2026-09-01T01:14:48Z</time>
  <course>154.67</course>
  <speed>0.022360679774997897</speed>
  <fix>3d</fix>
</trkpt>
<trkpt lat="33.8106149" lon="-118.3935726">
  <ele>-10.89</ele>
  <time>2026-09-01T01:14:48Z</time>
  <course>100.85</course>
  <speed>0.0</speed>
  <fix>3d</fix>
</trkpt>
<trkpt lat="33.8106148" lon="-118.3935723">
  <ele>-11.081</ele>
  <time>2026-09-01T01:14:48Z</time>
  <course>154.67</course>
  <speed>0.022360679774997897</speed>
  <fix>3d</fix>
</trkpt>
<trkpt lat="33.8106148" lon="-118.3935724">
  <ele>-11.006</ele>
  <time>2026-09-01T01:14:48Z</time>
  <course>154.66</course>
  <speed>0.022360679774997897</speed>
  <fix>3d</fix>
</trkpt>
<trkpt lat="33.8106149" lon="-118.3935726">
  <ele>-10.65</ele>
  <time>2026-09-01T01:14:48Z</time>
  <course>100.95</course>
  <speed>0.0</speed>
  <fix>3d</fix>
</trkpt>
<trkpt lat="33.8106148" lon="-118.3935724">
  <ele>-10.964</ele>
  <time>2026-09-01T01:14:48Z</time>
  <course>154.66</course>
  <speed>0.022360679774997897</speed>
  <fix>3d</fix>
</trkpt>
<trkpt lat="33.8106148" lon="-118.3935724">
  <ele>-10.876</ele>
  <time>2026-09-01T01:14:48Z</time>
  <course>154.65</course>
  <speed>0.022360679774997897</speed>
  <fix>3d</fix>
</trkpt>
<trkpt lat="33.8106149" lon="-118.3935726">
  <ele>-10.65</ele>
  <time>2026-09-01T01:14:48Z</time>
  <course>100.95</course>
  <speed>0.0</speed>
  <fix>3d</fix>
</trkpt>
<trkpt lat="33.8106148" lon="-118.3935723">
  <ele>-10.828</ele>
  <time>2026-09-01T01:14:48Z</time>
  <course>154.65</course>
  <speed>0.022360679774997897</speed>
  <fix>3d</fix>
</trkpt>
<trkpt lat="33.8106148" lon="-118.3935724">
  <ele>-10.745</ele>
  <time>2026-09-01T01:14:48Z</time>
  <course>154.65</course>
  <speed>0.022360679774997897</speed>
  <fix>3d</fix>
</trkpt>
<trkpt lat="33.8106149" lon="-118.3935726">
  <ele>-10.4</ele>
  <time>2026-09-01T01:14:48Z</time>
  <course>101.03</course>
  <speed>0.0</speed>
  <fix>3d</fix>
</trkpt>
<trkpt lat="33.8106148" lon="-118.3935724">
  <ele>-10.704</ele>
  <time>2026-09-01T01:14:48Z</time>
  <course>154.64</course>
  <speed>0.022360679774997897</speed>
  <fix>3d</fix>
</trkpt>
<trkpt lat="33.8106148" lon="-118.3935724">
  <ele>-10.615</ele>
  <time>2026-09-01T01:14:48Z</time>
  <course>154.64</course>
  <speed>0.022360679774997897</speed>
  <fix>3d</fix>
</trkpt>
<trkpt lat="33.8106149" lon="-118.3935726">
  <ele>-10.4</ele>
  <time>2026-09-01T01:14:48Z</time>
  <course>101.03</course>
  <speed>0.0</speed>
  <fix>3d</fix>
</trkpt>
<trkpt lat="33.8106148" lon="-118.3935723">
  <ele>-10.568</ele>
  <time>2026-09-01T01:14:48Z</time>
  <course>154.64</course>
  <speed>0.022360679774997897</speed>
  <fix>3d</fix>
</trkpt>
<trkpt lat="33.8106148" lon="-118.3935724">
  <ele>-10.487</ele>
  <time>2026-09-01T01:14:48Z</time>
  <course>154.63</course>
  <speed>0.02</speed>
  <fix>3d</fix>
</trkpt>
<trkpt lat="33.8106149" lon="-118.3935726">
  <ele>-10.16</ele>
  <time>2026-09-01T01:14:48Z</time>
  <course>101.05</course>
  <speed>0.0</speed>
  <fix>3d</fix>
</trkpt>
<trkpt lat="33.8106148" lon="-118.3935723">
  <ele>-10.447</ele>
  <time>2026-09-01T01:14:48Z</time>
  <course>154.63</course>
  <speed>0.02</speed>
  <fix>3d</fix>
</trkpt>
<trkpt lat="33.8106148" lon="-118.3935724">
  <ele>-10.36</ele>
  <time>2026-09-01T01:14:48Z</time>
  <course>154.62</course>
  <speed>0.02</speed>
  <fix>3d</fix>
</trkpt>
<trkpt lat="33.8106149" lon="-118.3935726">
  <ele>-10.16</ele>
  <time>2026-09-01T01:14:48Z</time>
  <course>101.05</course>
  <speed>0.0</speed>
  <fix>3d</fix>
</trkpt>
<trkpt lat="33.8106148" lon="-118.3935723">
  <ele>-10.314</ele>
  <time>2026-09-01T01:14:48Z</time>
  <course>154.62</course>
  <speed>0.02</speed>
  <fix>3d</fix>
</trkpt>
<trkpt lat="33.8106148" lon="-118.3935723">
  <ele>-10.234</ele>
  <time>2026-09-01T01:14:48Z</time>
  <course>154.62</course>
  <speed>0.02</speed>
  <fix>3d</fix>
</trkpt>
<trkpt lat="33.8106149" lon="-118.3935725">
  <ele>-9.91</ele>
  <time>2026-09-01T01:14:48Z</time>
  <course>101.04</course>
  <speed>0.0</speed>
  <fix>3d</fix>
</trkpt>
<trkpt lat="33.8106148" lon="-118.3935723">
  <ele>-10.193</ele>
  <time>2026-09-01T01:14:48Z</time>
  <course>154.61</course>
  <speed>0.02</speed>
  <fix>3d</fix>
</trkpt>
<trkpt lat="33.8106148" lon="-118.3935723">
  <ele>-10.108</ele>
  <time>2026-09-01T01:14:48Z</time>
  <course>154.61</course>
  <speed>0.02</speed>
  <fix>3d</fix>
</trkpt>
<trkpt lat="33.8106149" lon="-118.3935725">
  <ele>-9.91</ele>
  <time>2026-09-01T01:14:48Z</time>
  <course>101.04</course>
  <speed>0.0</speed>
  <fix>3d</fix>
</trkpt>
<trkpt lat="33.8106148" lon="-118.3935723">
  <ele>-10.105</ele>
  <time>2026-09-01T01:14:48Z</time>
  <course>154.61</course>
  <speed>0.02</speed>
  <fix>3d</fix>
</trkpt>
<trkpt lat="33.8106148" lon="-118.3935723">
  <ele>-9.982</ele>
  <time>2026-09-01T01:14:48Z</time>
  <course>154.6</course>
  <speed>0.02</speed>
  <fix>3d</fix>
</trkpt>
<trkpt lat="33.8106149" lon="-118.3935725">
  <ele>-9.67</ele>
  <time>2026-09-01T01:14:48Z</time>
  <course>101.05</course>
  <speed>0.0</speed>
  <fix>3d</fix>
</trkpt>
<trkpt lat="33.8106148" lon="-118.3935723">
  <ele>-9.979</ele>
  <time>2026-09-01T01:14:48Z</time>
  <course>154.6</course>
  <speed>0.02</speed>
  <fix>3d</fix>
</trkpt>
<trkpt lat="33.8106148" lon="-118.3935723">
  <ele>-9.857</ele>
  <time>2026-09-01T01:14:48Z</time>
  <course>154.59</course>
  <speed>0.02</speed>
  <fix>3d</fix>
</trkpt>
<trkpt lat="33.8106149" lon="-118.3935725">
  <ele>-9.67</ele>
  <time>2026-09-01T01:14:48Z</time>
  <course>101.05</course>
  <speed>0.0</speed>
  <fix>3d</fix>
</trkpt>
<trkpt lat="33.8106148" lon="-118.3935723">
  <ele>-9.81</ele>
  <time>2026-09-01T01:14:48Z</time>
  <course>154.59</course>
  <speed>0.02</speed>
  <fix>3d</fix>
</trkpt>
<trkpt lat="33.8106148" lon="-118.3935723">
  <ele>-9.732</ele>
  <time>2026-09-01T01:14:48Z</time>
  <course>154.59</course>
  <speed>0.02</speed>
  <fix>3d</fix>
</trkpt>
<trkpt lat="33.8106149" lon="-118.3935725">
  <ele>-9.42</ele>
  <time>2026-09-01T01:14:48Z</time>
  <course>101.09</course>
  <speed>0.0</speed>
  <fix>3d</fix>
</trkpt>
<trkpt lat="33.8106148" lon="-118.3935723">
  <ele>-9.691</ele>
  <time>2026-09-01T01:14:48Z</time>
  <course>154.58</course>
  <speed>0.02</speed>
  <fix>3d</fix>
</trkpt>
<trkpt lat="33.8106148" lon="-118.3935723">
  <ele>-9.606</ele>
  <time>2026-09-01T01:14:48Z</time>
  <course>154.58</course>
  <speed>0.02</speed>
  <fix>3d</fix>
</trkpt>
<trkpt lat="33.8106149" lon="-118.3935725">
  <ele>-9.42</ele>
  <time>2026-09-01T01:14:48Z</time>
  <course>101.09</course>
  <speed>0.0</speed>
  <fix>3d</fix>
</trkpt>
<trkpt lat="33.8106148" lon="-118.3935723">
  <ele>-9.559</ele>
  <time>2026-09-01T01:14:48Z</time>
  <course>154.58</course>
  <speed>0.02</speed>
  <fix>3d</fix>
</trkpt>
<trkpt lat="33.8106148" lon="-118.3935723">
  <ele>-9.48</ele>
  <time>2026-09-01T01:14:48Z</time>
  <course>154.57</course>
  <speed>0.02</speed>
  <fix>3d</fix>
</trkpt>
<trkpt lat="33.8106149" lon="-118.3935725">
  <ele>-9.18</ele>
  <time>2026-09-01T01:14:48Z</time>
  <course>101.14</course>
  <speed>0.0</speed>
  <fix>3d</fix>
</trkpt>
<trkpt lat="33.8106148" lon="-118.3935723">
  <ele>-9.439</ele>
  <time>2026-09-01T01:14:48Z</time>
  <course>154.57</course>
  <speed>0.02</speed>
  <fix>3d</fix>
</trkpt>
<trkpt lat="33.8106148" lon="-118.3935723">
  <ele>-9.354</ele>
  <time>2026-09-01T01:14:48Z</time>
  <course>154.56</course>
  <speed>0.02</speed>
  <fix>3d</fix>
</trkpt>
<trkpt lat="33.8106149" lon="-118.3935725">
  <ele>-9.18</ele>
  <time>2026-09-01T01:14:48Z</time>
  <course>101.14</course>
  <speed>0.0</speed>
  <fix>3d</fix>
</trkpt>
<trkpt lat="33.8106148" lon="-118.3935723">
  <ele>-9.31</ele>
  <time>2026-09-01T01:14:48Z</time>
  <course>154.56</course>
  <speed>0.02</speed>
  <fix>3d</fix>
</trkpt>
<trkpt lat="33.8106148" lon="-118.3935723">
  <ele>-9.228</ele>
  <time>2026-09-01T01:14:48Z</time>
  <course>154.56</course>
  <speed>0.02</speed>
  <fix>3d</fix>
</trkpt>
<trkpt lat="33.8106149" lon="-118.3935725">
  <ele>-8.93</ele>
  <time>2026-09-01T01:14:48Z</time>
  <course>101.21</course>
  <speed>0.0</speed>
  <fix>3d</fix>
</trkpt>
<trkpt lat="33.8106148" lon="-118.3935723">
  <ele>-9.188</ele>
  <time>2026-09-01T01:14:48Z</time>
  <course>154.55</course>
  <speed>0.02</speed>
  <fix>3d</fix>
</trkpt>
<trkpt lat="33.8106148" lon="-118.3935723">
  <ele>-9.104</ele>
  <time>2026-09-01T01:14:48Z</time>
  <course>154.55</course>
  <speed>0.02</speed>
  <fix>3d</fix>
</trkpt>
<trkpt lat="33.8106149" lon="-118.3935725">
  <ele>-8.93</ele>
  <time>2026-09-01T01:14:48Z</time>
  <course>101.21</course>
  <speed>0.0</speed>
  <fix>3d</fix>
</trkpt>
<trkpt lat="33.8106148" lon="-118.3935723">
  <ele>-9.057</ele>
  <time>2026-09-01T01:14:48Z</time>
  <course>154.55</course>
  <speed>0.02</speed>
  <fix>3d</fix>
</trkpt>
<trkpt lat="33.8106148" lon="-118.3935723">
  <ele>-8.981</ele>
  <time>2026-09-01T01:14:48Z</time>
  <course>154.54</course>
  <speed>0.02</speed>
  <fix>3d</fix>
</trkpt>
<trkpt lat="33.8106149" lon="-118.3935725">
  <ele>-8.69</ele>
  <time>2026-09-01T01:14:48Z</time>
  <course>101.26</course>
  <speed>0.0</speed>
  <fix>3d</fix>
</trkpt>
<trkpt lat="33.8106148" lon="-118.3935723">
  <ele>-8.941</ele>
  <time>2026-09-01T01:14:48Z</time>
  <course>154.54</course>
  <speed>0.02</speed>
  <fix>3d</fix>
</trkpt>
<trkpt lat="33.8106148" lon="-118.3935723">
  <ele>-8.86</ele>
  <time>2026-09-01T01:14:48Z</time>
  <course>154.53</course>
  <speed>0.02</speed>
  <fix>3d</fix>
</trkpt>
<trkpt lat="33.8106149" lon="-118.3935725">
  <ele>-8.69</ele>
  <time>2026-09-01T01:14:48Z</time>
  <course>101.26</course>
  <speed>0.0</speed>
  <fix>3d</fix>
</trkpt>
<trkpt lat="33.8106148" lon="-118.3935723">
  <ele>-8.857</ele>
  <time>2026-09-01T01:14:48Z</time>
  <course>154.53</course>
  <speed>0.02</speed>
  <fix>3d</fix>
</trkpt>
<trkpt lat="33.8106148" lon="-118.3935723">
  <ele>-8.739</ele>
  <time>2026-09-01T01:14:48Z</time>
  <course>154.53</course>
  <speed>0.02</speed>
  <fix>3d</fix>
</trkpt>
<trkpt lat="33.8106149" lon="-118.3935725">
  <ele>-8.44</ele>
  <time>2026-09-01T01:14:48Z</time>
  <course>101.28</course>
  <speed>0.0</speed>
  <fix>3d</fix>
</trkpt>
<trkpt lat="33.8106148" lon="-118.3935723">
  <ele>-8.699</ele>
  <time>2026-09-01T01:14:48Z</time>
  <course>154.52</course>
  <speed>0.02</speed>
  <fix>3d</fix>
</trkpt>
<trkpt lat="33.8106148" lon="-118.3935723">
  <ele>-8.619</ele>
  <time>2026-09-01T01:14:48Z</time>
  <course>154.52</course>
  <speed>0.02</speed>
  <fix>3d</fix>
</trkpt>
<trkpt lat="33.8106149" lon="-118.3935725">
  <ele>-8.44</ele>
  <time>2026-09-01T01:14:48Z</time>
  <course>101.28</course>
  <speed>0.0</speed>
  <fix>3d</fix>
</trkpt>
<trkpt lat="33.8106148" lon="-118.3935723">
  <ele>-8.573</ele>
  <time>2026-09-01T01:14:48Z</time>
  <course>154.52</course>
  <speed>0.02</speed>
  <fix>3d</fix>
</trkpt>
<trkpt lat="33.8106148" lon="-118.3935723">
  <ele>-8.498</ele>
  <time>2026-09-01T01:14:48Z</time>
  <course>154.51</course>
  <speed>0.02</speed>
  <fix>3d</fix>
</trkpt>
<trkpt lat="33.8106149" lon="-118.3935725">
  <ele>-8.2</ele>
  <time>2026-09-01T01:14:48Z</time>
  <course>101.29</course>
  <speed>0.0</speed>
  <fix>3d</fix>
</trkpt>
<trkpt lat="33.8106148" lon="-118.3935723">
  <ele>-8.458</ele>
  <time>2026-09-01T01:14:48Z</time>
  <course>154.51</course>
  <speed>0.02</speed>
  <fix>3d</fix>
</trkpt>
<trkpt lat="33.8106148" lon="-118.3935723">
  <ele>-8.377</ele>
  <time>2026-09-01T01:14:48Z</time>
  <course>154.5</course>
  <speed>0.02</speed>
  <fix>3d</fix>
</trkpt>
<trkpt lat="33.8106149" lon="-118.3935725">
  <ele>-8.2</ele>
  <time>2026-09-01T01:14:48Z</time>
  <course>101.29</course>
  <speed>0.0</speed>
  <fix>3d</fix>
</trkpt>
<trkpt lat="33.8106148" lon="-118.3935723">
  <ele>-8.374</ele>
  <time>2026-09-01T01:14:48Z</time>
  <course>154.5</course>
  <speed>0.02</speed>
  <fix>3d</fix>
</trkpt>
<trkpt lat="33.8106148" lon="-118.3935723">
  <ele>-8.256</ele>
  <time>2026-09-01T01:14:48Z</time>
  <course>154.5</course>
  <speed>0.02</speed>
  <fix>3d</fix>
</trkpt>
<trkpt lat="33.8106149" lon="-118.3935725">
  <ele>-7.95</ele>
  <time>2026-09-01T01:14:48Z</time>
  <course>101.3</course>
  <speed>0.0</speed>
  <fix>3d</fix>
</trkpt>
<trkpt lat="33.8106148" lon="-118.3935723">
  <ele>-8.213</ele>
  <time>2026-09-01T01:14:48Z</time>
  <course>154.5</course>
  <speed>0.02</speed>
  <fix>3d</fix>
</trkpt>
<trkpt lat="33.8106148" lon="-118.3935723">
  <ele>-8.134</ele>
  <time>2026-09-01T01:14:48Z</time>
  <course>154.49</course>
  <speed>0.02</speed>
  <fix>3d</fix>
</trkpt>
<trkpt lat="33.8106149" lon="-118.3935725">
  <ele>-7.95</ele>
  <time>2026-09-01T01:14:48Z</time>
  <course>101.3</course>
  <speed>0.0</speed>
  <fix>3d</fix>
</trkpt>
<trkpt lat="33.8106148" lon="-118.3935723">
  <ele>-8.091</ele>
  <time>2026-09-01T01:14:48Z</time>
  <course>154.49</course>
  <speed>0.02</speed>
  <fix>3d</fix>
</trkpt>
<trkpt lat="33.8106148" lon="-118.3935723">
  <ele>-8.011</ele>
  <time>2026-09-01T01:14:48Z</time>
  <course>154.48</course>
  <speed>0.02</speed>
  <fix>3d</fix>
</trkpt>
<trkpt lat="33.8106149" lon="-118.3935725">
  <ele>-7.71</ele>
  <time>2026-09-01T01:14:48Z</time>
  <course>101.33</course>
  <speed>0.0</speed>
  <fix>3d</fix>
</trkpt>
<trkpt lat="33.8106148" lon="-118.3935723">
  <ele>-7.972</ele>
  <time>2026-09-01T01:14:48Z</time>
  <course>154.48</course>
  <speed>0.02</speed>
  <fix>3d</fix>
</trkpt>
<trkpt lat="33.8106148" lon="-118.3935723">
  <ele>-7.888</ele>
  <time>2026-09-01T01:14:48Z</time>
  <course>154.48</course>
  <speed>0.02</speed>
  <fix>3d</fix>
</trkpt>
<trkpt lat="33.8106149" lon="-118.3935725">
  <ele>-7.71</ele>
  <time>2026-09-01T01:14:48Z</time>
  <course>101.33</course>
  <speed>0.0</speed>
  <fix>3d</fix>
</trkpt>
<trkpt lat="33.8106148" lon="-118.3935723">
  <ele>-7.842</ele>
  <time>2026-09-01T01:14:48Z</time>
  <course>154.47</course>
  <speed>0.03</speed>
  <fix>3d</fix>
</trkpt>
<trkpt lat="33.8106148" lon="-118.3935723">
  <ele>-7.764</ele>
  <time>2026-09-01T01:14:48Z</time>
  <course>154.47</course>
  <speed>0.02</speed>
  <fix>3d</fix>
</trkpt>
<trkpt lat="33.8106149" lon="-118.3935725">
  <ele>-7.46</ele>
  <time>2026-09-01T01:14:48Z</time>
  <course>101.38</course>
  <speed>0.0</speed>
  <fix>3d</fix>
</trkpt>
<trkpt lat="33.8106148" lon="-118.3935722">
  <ele>-7.725</ele>
  <time>2026-09-01T01:14:48Z</time>
  <course>154.47</course>
  <speed>0.02</speed>
  <fix>3d</fix>
</trkpt>
<trkpt lat="33.8106148" lon="-118.3935722">
  <ele>-7.64</ele>
  <time>2026-09-01T01:14:48Z</time>
  <course>154.46</course>
  <speed>0.02</speed>
  <fix>3d</fix>
</trkpt>
<trkpt lat="33.8106149" lon="-118.3935725">
  <ele>-7.46</ele>
  <time>2026-09-01T01:14:48Z</time>
  <course>101.38</course>
  <speed>0.0</speed>
  <fix>3d</fix>
</trkpt>
<trkpt lat="33.8106148" lon="-118.3935722">
  <ele>-7.594</ele>
  <time>2026-09-01T01:14:48Z</time>
  <course>154.46</course>
  <speed>0.02</speed>
  <fix>3d</fix>
</trkpt>
<trkpt lat="33.8106148" lon="-118.3935722">
  <ele>-7.517</ele>
  <time>2026-09-01T01:14:48Z</time>
  <course>154.45</course>
  <speed>0.02</speed>
  <fix>3d</fix>
</trkpt>
<trkpt lat="33.8106149" lon="-118.3935725">
  <ele>-7.22</ele>
  <time>2026-09-01T01:14:48Z</time>
  <course>101.42</course>
  <speed>0.0</speed>
  <fix>3d</fix>
</trkpt>
<trkpt lat="33.8106148" lon="-118.3935722">
  <ele>-7.514</ele>
  <time>2026-09-01T01:14:48Z</time>
  <course>154.45</course>
  <speed>0.02</speed>
  <fix>3d</fix>
</trkpt>
<trkpt lat="33.8106148" lon="-118.3935722">
  <ele>-7.393</ele>
  <time>2026-09-01T01:14:48Z</time>
  <course>154.45</course>
  <speed>0.02</speed>
  <fix>3d</fix>
</trkpt>
<trkpt lat="33.8106149" lon="-118.3935725">
  <ele>-7.22</ele>
  <time>2026-09-01T01:14:48Z</time>
  <course>101.42</course>
  <speed>0.0</speed>
  <fix>3d</fix>
</trkpt>
<trkpt lat="33.8106148" lon="-118.3935722">
  <ele>-7.344</ele>
  <time>2026-09-01T01:14:48Z</time>
  <course>154.44</course>
  <speed>0.02</speed>
  <fix>3d</fix>
</trkpt>
<trkpt lat="33.8106148" lon="-118.3935722">
  <ele>-7.269</ele>
  <time>2026-09-01T01:14:48Z</time>
  <course>154.44</course>
  <speed>0.02</speed>
  <fix>3d</fix>
</trkpt>
<trkpt lat="33.8106149" lon="-118.3935725">
  <ele>-6.97</ele>
  <time>2026-09-01T01:14:48Z</time>
  <course>101.45</course>
  <speed>0.0</speed>
  <fix>3d</fix>
</trkpt>
<trkpt lat="33.8106148" lon="-118.3935722">
  <ele>-7.228</ele>
  <time>2026-09-01T01:14:48Z</time>
  <course>154.44</course>
  <speed>0.02</speed>
  <fix>3d</fix>
</trkpt>
<trkpt lat="33.8106148" lon="-118.3935722">
  <ele>-7.144</ele>
  <time>2026-09-01T01:14:48Z</time>
  <course>154.43</course>
  <speed>0.02</speed>
  <fix>3d</fix>
</trkpt>
<trkpt lat="33.8106149" lon="-118.3935725">
  <ele>-6.97</ele>
  <time>2026-09-01T01:14:48Z</time>
  <course>101.45</course>
  <speed>0.0</speed>
  <fix>3d</fix>
</trkpt>
<trkpt lat="33.8106148" lon="-118.3935722">
  <ele>-7.097</ele>
  <time>2026-09-01T01:14:48Z</time>
  <course>154.43</course>
  <speed>0.02</speed>
  <fix>3d</fix>
</trkpt>
<trkpt lat="33.8106148" lon="-118.3935722">
  <ele>-7.019</ele>
  <time>2026-09-01T01:14:48Z</time>
  <course>154.43</course>
  <speed>0.02</speed>
  <fix>3d</fix>
</trkpt>
<trkpt lat="33.8106149" lon="-118.3935724">
  <ele>-6.73</ele>
  <time>2026-09-01T01:14:48Z</time>
  <course>101.46</course>
  <speed>0.0</speed>
  <fix>3d</fix>
</trkpt>
<trkpt lat="33.8106148" lon="-118.3935722">
  <ele>-6.982</ele>
  <time>2026-09-01T01:14:48Z</time>
  <course>154.42</course>
  <speed>0.02</speed>
  <fix>3d</fix>
</trkpt>
<trkpt lat="33.8106148" lon="-118.3935722">
  <ele>-6.895</ele>
  <time>2026-09-01T01:14:48Z</time>
  <course>154.42</course>
  <speed>0.02</speed>
  <fix>3d</fix>
</trkpt>
<trkpt lat="33.8106149" lon="-118.3935724">
  <ele>-6.73</ele>
  <time>2026-09-01T01:14:48Z</time>
  <course>101.46</course>
  <speed>0.0</speed>
  <fix>3d</fix>
</trkpt>
<trkpt lat="33.8106148" lon="-118.3935722">
  <ele>-6.892</ele>
  <time>2026-09-01T01:14:48Z</time>
  <course>154.42</course>
  <speed>0.02</speed>
  <fix>3d</fix>
</trkpt>
<trkpt lat="33.8106148" lon="-118.3935722">
  <ele>-6.771</ele>
  <time>2026-09-01T01:14:48Z</time>
  <course>154.41</course>
  <speed>0.02</speed>
  <fix>3d</fix>
</trkpt>
<trkpt lat="33.8106149" lon="-118.3935724">
  <ele>-6.48</ele>
  <time>2026-09-01T01:14:48Z</time>
  <course>101.46</course>
  <speed>0.0</speed>
  <fix>3d</fix>
</trkpt>
<trkpt lat="33.8106148" lon="-118.3935722">
  <ele>-6.73</ele>
  <time>2026-09-01T01:14:48Z</time>
  <course>154.41</course>
  <speed>0.02</speed>
  <fix>3d</fix>
</trkpt>
<trkpt lat="33.8106148" lon="-118.3935722">
  <ele>-6.645</ele>
  <time>2026-09-01T01:14:48Z</time>
  <course>154.4</course>
  <speed>0.02</speed>
  <fix>3d</fix>
</trkpt>
<trkpt lat="33.8106149" lon="-118.3935724">
  <ele>-6.48</ele>
  <time>2026-09-01T01:14:48Z</time>
  <course>101.46</course>
  <speed>0.0</speed>
  <fix>3d</fix>
</trkpt>
<trkpt lat="33.8106148" lon="-118.3935722">
  <ele>-6.602</ele>
  <time>2026-09-01T01:14:48Z</time>
  <course>154.4</course>
  <speed>0.02</speed>
  <fix>3d</fix>
</trkpt>
<trkpt lat="33.8106148" lon="-118.3935722">
  <ele>-6.52</ele>
  <time>2026-09-01T01:14:48Z</time>
  <course>154.4</course>
  <speed>0.02</speed>
  <fix>3d</fix>
</trkpt>
<trkpt lat="33.8106149" lon="-118.3935724">
  <ele>-6.24</ele>
  <time>2026-09-01T01:14:48Z</time>
  <course>101.47</course>
  <speed>0.0</speed>
  <fix>3d</fix>
</trkpt>
<trkpt lat="33.8106148" lon="-118.3935722">
  <ele>-6.476</ele>
  <time>2026-09-01T01:14:48Z</time>
  <course>154.39</course>
  <speed>0.02</speed>
  <fix>3d</fix>
</trkpt>
<trkpt lat="33.8106148" lon="-118.3935722">
  <ele>-6.395</ele>
  <time>2026-09-01T01:14:48Z</time>
  <course>154.39</course>
  <speed>0.03</speed>
  <fix>3d</fix>
</trkpt>
<trkpt lat="33.8106149" lon="-118.3935724">
  <ele>-6.24</ele>
  <time>2026-09-01T01:14:48Z</time>
  <course>101.47</course>
  <speed>0.0</speed>
  <fix>3d</fix>
</trkpt>
<trkpt lat="33.8106148" lon="-118.3935722">
  <ele>-6.354</ele>
  <time>2026-09-01T01:14:48Z</time>
  <course>154.39</course>
  <speed>0.03</speed>
  <fix>3d</fix>
</trkpt>
<trkpt lat="33.8106148" lon="-118.3935722">
  <ele>-6.269</ele>
  <time>2026-09-01T01:14:48Z</time>
  <course>154.38</course>
  <speed>0.03</speed>
  <fix>3d</fix>
</trkpt>
<trkpt lat="33.8106149" lon="-118.3935724">
  <ele>-5.99</ele>
  <time>2026-09-01T01:14:48Z</time>
  <course>101.5</course>
  <speed>0.0</speed>
  <fix>3d</fix>
</trkpt>
<trkpt lat="33.8106148" lon="-118.3935722">
  <ele>-6.266</ele>
  <time>2026-09-01T01:14:48Z</time>
  <course>154.38</course>
  <speed>0.03</speed>
  <fix>3d</fix>
</trkpt>
<trkpt lat="33.8106148" lon="-118.3935722">
  <ele>-6.143</ele>
  <time>2026-09-01T01:14:48Z</time>
  <course>154.38</course>
  <speed>0.03</speed>
  <fix>3d</fix>
</trkpt>
<trkpt lat="33.8106149" lon="-118.3935724">
  <ele>-5.99</ele>
  <time>2026-09-01T01:14:48Z</time>
  <course>101.5</course>
  <speed>0.0</speed>
  <fix>3d</fix>
</trkpt>
<trkpt lat="33.8106148" lon="-118.3935722">
  <ele>-6.095</ele>
  <time>2026-09-01T01:14:48Z</time>
  <course>154.37</course>
  <speed>0.03</speed>
  <fix>3d</fix>
</trkpt>
<trkpt lat="33.8106148" lon="-118.3935722">
  <ele>-6.016</ele>
  <time>2026-09-01T01:14:48Z</time>
  <course>154.37</course>
  <speed>0.03</speed>
  <fix>3d</fix>
</trkpt>
<trkpt lat="33.8106149" lon="-118.3935724">
  <ele>-5.75</ele>
  <time>2026-09-01T01:14:48Z</time>
  <course>101.54</course>
  <speed>0.0</speed>
  <fix>3d</fix>
</trkpt>
<trkpt lat="33.8106148" lon="-118.3935722">
  <ele>-5.978</ele>
  <time>2026-09-01T01:14:48Z</time>
  <course>154.37</course>
  <speed>0.03</speed>
  <fix>3d</fix>
</trkpt>
<trkpt lat="33.8106148" lon="-118.3935722">
  <ele>-5.89</ele>
  <time>2026-09-01T01:14:48Z</time>
  <course>154.36</course>
  <speed>0.03</speed>
  <fix>3d</fix>
</trkpt>
<trkpt lat="33.8106149" lon="-118.3935724">
  <ele>-5.75</ele>
  <time>2026-09-01T01:14:48Z</time>
  <course>101.54</course>
  <speed>0.0</speed>
  <fix>3d</fix>
</trkpt>
<trkpt lat="33.8106148" lon="-118.3935722">
  <ele>-5.852</ele>
  <time>2026-09-01T01:14:48Z</time>
  <course>154.36</course>
  <speed>0.03</speed>
  <fix>3d</fix>
</trkpt>
<trkpt lat="33.8106148" lon="-118.3935722">
  <ele>-5.764</ele>
  <time>2026-09-01T01:14:48Z</time>
  <course>154.35</course>
  <speed>0.03</speed>
  <fix>3d</fix>
</trkpt>
<trkpt lat="33.8106149" lon="-118.3935724">
  <ele>-5.5</ele>
  <time>2026-09-01T01:14:48Z</time>
  <course>101.57</course>
  <speed>0.0</speed>
  <fix>3d</fix>
</trkpt>
<trkpt lat="33.8106148" lon="-118.3935722">
  <ele>-5.717</ele>
  <time>2026-09-01T01:14:48Z</time>
  <course>154.35</course>
  <speed>0.03</speed>
  <fix>3d</fix>
</trkpt>
<trkpt lat="33.8106148" lon="-118.3935722">
  <ele>-5.638</ele>
  <time>2026-09-01T01:14:48Z</time>
  <course>154.35</course>
  <speed>0.03</speed>
  <fix>3d</fix>
</trkpt>
<trkpt lat="33.8106149" lon="-118.3935724">
  <ele>-5.5</ele>
  <time>2026-09-01T01:14:48Z</time>
  <course>101.57</course>
  <speed>0.0</speed>
  <fix>3d</fix>
</trkpt>
<trkpt lat="33.8106148" lon="-118.3935722">
  <ele>-5.594</ele>
  <time>2026-09-01T01:14:48Z</time>
  <course>154.35</course>
  <speed>0.03</speed>
  <fix>3d</fix>
</trkpt>
<trkpt lat="33.8106148" lon="-118.3935722">
  <ele>-5.512</ele>
  <time>2026-09-01T01:14:48Z</time>
  <course>154.34</course>
  <speed>0.03</speed>
  <fix>3d</fix>
</trkpt>
<trkpt lat="33.8106149" lon="-118.3935724">
  <ele>-5.26</ele>
  <time>2026-09-01T01:14:48Z</time>
  <course>101.58</course>
  <speed>0.0</speed>
  <fix>3d</fix>
</trkpt>
<trkpt lat="33.8106148" lon="-118.3935722">
  <ele>-5.472</ele>
  <time>2026-09-01T01:14:48Z</time>
  <course>154.34</course>
  <speed>0.03</speed>
  <fix>3d</fix>
</trkpt>
<trkpt lat="33.8106148" lon="-118.3935722">
  <ele>-5.386</ele>
  <time>2026-09-01T01:14:48Z</time>
  <course>154.33</course>
  <speed>0.03</speed>
  <fix>3d</fix>
</trkpt>
<trkpt lat="33.8106149" lon="-118.3935724">
  <ele>-5.26</ele>
  <time>2026-09-01T01:14:48Z</time>
  <course>101.58</course>
  <speed>0.0</speed>
  <fix>3d</fix>
</trkpt>
<trkpt lat="33.8106148" lon="-118.3935722">
  <ele>-5.34</ele>
  <time>2026-09-01T01:14:48Z</time>
  <course>154.33</course>
  <speed>0.03</speed>
  <fix>3d</fix>
</trkpt>
<trkpt lat="33.8106148" lon="-118.3935722">
  <ele>-5.261</ele>
  <time>2026-09-01T01:14:48Z</time>
  <course>154.33</course>
  <speed>0.03</speed>
  <fix>3d</fix>
</trkpt>
<trkpt lat="33.8106149" lon="-118.3935724">
  <ele>-5.01</ele>
  <time>2026-09-01T01:14:48Z</time>
  <course>101.58</course>
  <speed>0.0</speed>
  <fix>3d</fix>
</trkpt>
<trkpt lat="33.8106148" lon="-118.3935722">
  <ele>-5.221</ele>
  <time>2026-09-01T01:14:48Z</time>
  <course>154.32</course>
  <speed>0.03</speed>
  <fix>3d</fix>
</trkpt>
<trkpt lat="33.8106148" lon="-118.3935722">
  <ele>-5.135</ele>
  <time>2026-09-01T01:14:48Z</time>
  <course>154.32</course>
  <speed>0.03</speed>
  <fix>3d</fix>
</trkpt>
<trkpt lat="33.8106149" lon="-118.3935724">
  <ele>-5.01</ele>
  <time>2026-09-01T01:14:48Z</time>
  <course>101.58</course>
  <speed>0.0</speed>
  <fix>3d</fix>
</trkpt>
<trkpt lat="33.8106148" lon="-118.3935721">
  <ele>-5.092</ele>
  <time>2026-09-01T01:14:48Z</time>
  <course>154.32</course>
  <speed>0.03</speed>
  <fix>3d</fix>
</trkpt>
<trkpt lat="33.8106148" lon="-118.3935722">
  <ele>-5.01</ele>
  <time>2026-09-01T01:14:48Z</time>
  <course>154.31</course>
  <speed>0.03</speed>
  <fix>3d</fix>
</trkpt>
<trkpt lat="33.8106149" lon="-118.3935724">
  <ele>-4.77</ele>
  <time>2026-09-01T01:14:48Z</time>
  <course>101.58</course>
  <speed>0.0</speed>
  <fix>3d</fix>
</trkpt>
<trkpt lat="33.8106148" lon="-118.3935721">
  <ele>-4.972</ele>
  <time>2026-09-01T01:14:48Z</time>
  <course>154.31</course>
  <speed>0.03</speed>
  <fix>3d</fix>
</trkpt>
<trkpt lat="33.8106148" lon="-118.3935721">
  <ele>-4.884</ele>
  <time>2026-09-01T01:14:48Z</time>
  <course>154.31</course>
  <speed>0.03</speed>
  <fix>3d</fix>
</trkpt>
<trkpt lat="33.8106149" lon="-118.3935724">
  <ele>-4.77</ele>
  <time>2026-09-01T01:14:48Z</time>
  <course>101.58</course>
  <speed>0.0</speed>
  <fix>3d</fix>
</trkpt>
<trkpt lat="33.8106148" lon="-118.3935721">
  <ele>-4.759</ele>
  <time>2026-09-01T01:14:48Z</time>
  <course>154.3</course>
  <speed>0.03</speed>
  <fix>3d</fix>
</trkpt>
<trkpt lat="33.8106149" lon="-118.3935724">
  <ele>-4.52</ele>
  <time>2026-09-01T01:14:48Z</time>
  <course>101.59</course>
  <speed>0.0</speed>
  <fix>3d</fix>
</trkpt>
<trkpt lat="33.8106148" lon="-118.3935721">
  <ele>-4.634</ele>
  <time>2026-09-01T01:14:48Z</time>
  <course>154.29</course>
  <speed>0.03</speed>
  <fix>3d</fix>
</trkpt>
<trkpt lat="33.8106149" lon="-118.3935724">
  <ele>-4.52</ele>
  <time>2026-09-01T01:14:48Z</time>
  <course>101.59</course>
  <speed>0.0</speed>
  <fix>3d</fix>
</trkpt>
<trkpt lat="33.8106148" lon="-118.3935721">
  <ele>-4.511</ele>
  <time>2026-09-01T01:14:48Z</time>
  <course>154.28</course>
  <speed>0.03</speed>
  <fix>3d</fix>
</trkpt>
<trkpt lat="33.8106149" lon="-118.3935724">
  <ele>-4.27</ele>
  <time>2026-09-01T01:14:48Z</time>
  <course>101.58</course>
  <speed>0.0</speed>
  <fix>3d</fix>
</trkpt>
<trkpt lat="33.8106148" lon="-118.3935721">
  <ele>-4.392</ele>
  <time>2026-09-01T01:14:48Z</time>
  <course>154.28</course>
  <speed>0.03</speed>
  <fix>3d</fix>
</trkpt>
<trkpt lat="33.8106149" lon="-118.3935724">
  <ele>-4.27</ele>
  <time>2026-09-01T01:14:48Z</time>
  <course>101.58</course>
  <speed>0.0</speed>
  <fix>3d</fix>
</trkpt>
<trkpt lat="33.8106148" lon="-118.3935721">
  <ele>-4.28</ele>
  <time>2026-09-01T01:14:48Z</time>
  <course>154.27</course>
  <speed>0.03</speed>
  <fix>3d</fix>
</trkpt>
<trkpt lat="33.8106149" lon="-118.3935724">
  <ele>-4.04</ele>
  <time>2026-09-01T01:14:48Z</time>
  <course>100.53</course>
  <speed>0.0</speed>
  <fix>3d</fix>
</trkpt>
<trkpt lat="33.8106148" lon="-118.3935721">
  <ele>-4.182</ele>
  <time>2026-09-01T01:14:48Z</time>
  <course>154.26</course>
  <speed>0.03</speed>
  <fix>3d</fix>
</trkpt>
<trkpt lat="33.8106149" lon="-118.3935724">
  <ele>-4.04</ele>
  <time>2026-09-01T01:14:48Z</time>
  <course>100.53</course>
  <speed>0.0</speed>
  <fix>3d</fix>
</trkpt>
<trkpt lat="33.8106148" lon="-118.3935721">
  <ele>-4.1</ele>
  <time>2026-09-01T01:14:48Z</time>
  <course>154.26</course>
  <speed>0.03</speed>
  <fix>3d</fix>
</trkpt>
<trkpt lat="33.8106149" lon="-118.3935724">
  <ele>-3.82</ele>
  <time>2026-09-01T01:14:48Z</time>
  <course>95.9</course>
  <speed>0.0</speed>
  <fix>3d</fix>
</trkpt>
<trkpt lat="33.8106148" lon="-118.3935721">
  <ele>-4.036</ele>
  <time>2026-09-01T01:14:48Z</time>
  <course>154.25</course>
  <speed>0.03</speed>
  <fix>3d</fix>
</trkpt>
<trkpt lat="33.8106149" lon="-118.3935724">
  <ele>-3.82</ele>
  <time>2026-09-01T01:14:48Z</time>
  <course>95.9</course>
  <speed>0.0</speed>
  <fix>3d</fix>
</trkpt>
<trkpt lat="33.8106148" lon="-118.3935721">
  <ele>-3.988</ele>
  <time>2026-09-01T01:14:48Z</time>
  <course>154.24</course>
  <speed>0.03</speed>
  <fix>3d</fix>
</trkpt>
<trkpt lat="33.8106149" lon="-118.3935723">
  <ele>-3.65</ele>
  <time>2026-09-01T01:14:48Z</time>
  <course>90.09</course>
  <speed>0.0</speed>
  <fix>3d</fix>
</trkpt>
<trkpt lat="33.8106148" lon="-118.3935721">
  <ele>-3.953</ele>
  <time>2026-09-01T01:14:48Z</time>
  <course>154.24</course>
  <speed>0.03</speed>
  <fix>3d</fix>
</trkpt>
<trkpt lat="33.8106149" lon="-118.3935723">
  <ele>-3.65</ele>
  <time>2026-09-01T01:14:48Z</time>
  <course>90.09</course>
  <speed>0.0</speed>
  <fix>3d</fix>
</trkpt>
<trkpt lat="33.8106148" lon="-118.3935721">
  <ele>-3.927</ele>
  <time>2026-09-01T01:14:48Z</time>
  <course>154.23</course>
  <speed>0.03</speed>
  <fix>3d</fix>
</trkpt>
<trkpt lat="33.8106149" lon="-118.3935723">
  <ele>-3.55</ele>
  <time>2026-09-01T01:14:48Z</time>
  <course>86.81</course>
  <speed>0.0</speed>
  <fix>3d</fix>
</trkpt>
<trkpt lat="33.8106148" lon="-118.3935721">
  <ele>-3.91</ele>
  <time>2026-09-01T01:14:48Z</time>
  <course>154.22</course>
  <speed>0.03</speed>
  <fix>3d</fix>
</trkpt>
<trkpt lat="33.8106149" lon="-118.3935723">
  <ele>-3.55</ele>
  <time>2026-09-01T01:14:48Z</time>
  <course>86.81</course>
  <speed>0.0</speed>
  <fix>3d</fix>
</trkpt>
<trkpt lat="33.8106148" lon="-118.3935721">
  <ele>-3.901</ele>
  <time>2026-09-01T01:14:48Z</time>
  <course>154.22</course>
  <speed>0.03</speed>
  <fix>3d</fix>
</trkpt>
<trkpt lat="33.8106149" lon="-118.3935723">
  <ele>-3.49</ele>
  <time>2026-09-01T01:14:48Z</time>
  <course>85.69</course>
  <speed>0.0</speed>
  <fix>3d</fix>
</trkpt>
<trkpt lat="33.8106148" lon="-118.3935721">
  <ele>-3.896</ele>
  <time>2026-09-01T01:14:48Z</time>
  <course>154.21</course>
  <speed>0.03</speed>
  <fix>3d</fix>
</trkpt>
<trkpt lat="33.8106149" lon="-118.3935723">
  <ele>-3.49</ele>
  <time>2026-09-01T01:14:48Z</time>
  <course>85.69</course>
  <speed>0.0</speed>
  <fix>3d</fix>
</trkpt>
<trkpt lat="33.8106148" lon="-118.3935721">
  <ele>-3.894</ele>
  <time>2026-09-01T01:14:48Z</time>
  <course>154.2</course>
  <speed>0.03</speed>
  <fix>3d</fix>
</trkpt>
<trkpt lat="33.8106149" lon="-118.3935723">
  <ele>-3.46</ele>
  <time>2026-09-01T01:14:48Z</time>
  <course>85.34</course>
  <speed>0.0</speed>
  <fix>3d</fix>
</trkpt>
<trkpt lat="33.8106148" lon="-118.3935721">
  <ele>-3.894</ele>
  <time>2026-09-01T01:14:48Z</time>
  <course>154.2</course>
  <speed>0.03</speed>
  <fix>3d</fix>
</trkpt>
<trkpt lat="33.8106149" lon="-118.3935723">
  <ele>-3.46</ele>
  <time>2026-09-01T01:14:48Z</time>
  <course>85.34</course>
  <speed>0.0</speed>
  <fix>3d</fix>
</trkpt>
<trkpt lat="33.8106148" lon="-118.3935721">
  <ele>-3.894</ele>
  <time>2026-09-01T01:14:48Z</time>
  <course>154.19</course>
  <speed>0.03</speed>
  <fix>3d</fix>
</trkpt>
<trkpt lat="33.8106149" lon="-118.3935723">
  <ele>-3.44</ele>
  <time>2026-09-01T01:14:48Z</time>
  <course>85.13</course>
  <speed>0.0</speed>
  <fix>3d</fix>
</trkpt>
<trkpt lat="33.8106148" lon="-118.3935721">
  <ele>-3.896</ele>
  <time>2026-09-01T01:14:48Z</time>
  <course>154.18</course>
  <speed>0.03</speed>
  <fix>3d</fix>
</trkpt>
<trkpt lat="33.8106149" lon="-118.3935723">
  <ele>-3.44</ele>
  <time>2026-09-01T01:14:48Z</time>
  <course>85.13</course>
  <speed>0.0</speed>
  <fix>3d</fix>
</trkpt>
<trkpt lat="33.8106148" lon="-118.3935721">
  <ele>-3.899</ele>
  <time>2026-09-01T01:14:48Z</time>
  <course>154.18</course>
  <speed>0.03</speed>
  <fix>3d</fix>
</trkpt>
<trkpt lat="33.8106149" lon="-118.3935723">
  <ele>-3.43</ele>
  <time>2026-09-01T01:14:48Z</time>
  <course>85.03</course>
  <speed>0.0</speed>
  <fix>3d</fix>
</trkpt>
<trkpt lat="33.8106148" lon="-118.393572">
  <ele>-3.901</ele>
  <time>2026-09-01T01:14:48Z</time>
  <course>154.17</course>
  <speed>0.03</speed>
  <fix>3d</fix>
</trkpt>
<trkpt lat="33.8106149" lon="-118.3935723">
  <ele>-3.43</ele>
  <time>2026-09-01T01:14:48Z</time>
  <course>85.03</course>
  <speed>0.0</speed>
  <fix>3d</fix>
</trkpt>
<trkpt lat="33.8106148" lon="-118.393572">
  <ele>-3.902</ele>
  <time>2026-09-01T01:14:48Z</time>
  <course>154.16</course>
  <speed>0.03</speed>
  <fix>3d</fix>
</trkpt>
<trkpt lat="33.8106149" lon="-118.3935723">
  <ele>-3.43</ele>
  <time>2026-09-01T01:14:48Z</time>
  <course>85.03</course>
  <speed>0.0</speed>
  <fix>3d</fix>
</trkpt>
<trkpt lat="33.8106148" lon="-118.393572">
  <ele>-3.903</ele>
  <time>2026-09-01T01:14:48Z</time>
  <course>154.16</course>
  <speed>0.03</speed>
  <fix>3d</fix>
</trkpt>
<trkpt lat="33.8106149" lon="-118.3935723">
  <ele>-3.43</ele>
  <time>2026-09-01T01:14:48Z</time>
  <course>85.03</course>
  <speed>0.0</speed>
  <fix>3d</fix>
</trkpt>
<trkpt lat="33.8106148" lon="-118.393572">
  <ele>-3.902</ele>
  <time>2026-09-01T01:14:48Z</time>
  <course>154.15</course>
  <speed>0.03</speed>
  <fix>3d</fix>
</trkpt>
<trkpt lat="33.8106149" lon="-118.3935723">
  <ele>-3.42</ele>
  <time>2026-09-01T01:14:48Z</time>
  <course>85.07</course>
  <speed>0.0</speed>
  <fix>3d</fix>
</trkpt>
<trkpt lat="33.8106148" lon="-118.393572">
  <ele>-3.9</ele>
  <time>2026-09-01T01:14:48Z</time>
  <course>154.14</course>
  <speed>0.03</speed>
  <fix>3d</fix>
</trkpt>
<trkpt lat="33.8106149" lon="-118.3935723">
  <ele>-3.42</ele>
  <time>2026-09-01T01:14:48Z</time>
  <course>85.07</course>
  <speed>0.0</speed>
  <fix>3d</fix>
</trkpt>
<trkpt lat="33.8106148" lon="-118.393572">
  <ele>-3.899</ele>
  <time>2026-09-01T01:14:48Z</time>
  <course>154.14</course>
  <speed>0.03</speed>
  <fix>3d</fix>
</trkpt>
<trkpt lat="33.8106149" lon="-118.3935723">
  <ele>-3.41</ele>
  <time>2026-09-01T01:14:48Z</time>
  <course>85.13</course>
  <speed>0.0</speed>
  <fix>3d</fix>
</trkpt>
<trkpt lat="33.8106148" lon="-118.393572">
  <ele>-3.897</ele>
  <time>2026-09-01T01:14:48Z</time>
  <course>154.13</course>
  <speed>0.03</speed>
  <fix>3d</fix>
</trkpt>
<trkpt lat="33.8106149" lon="-118.3935723">
  <ele>-3.41</ele>
  <time>2026-09-01T01:14:48Z</time>
  <course>85.13</course>
  <speed>0.0</speed>
  <fix>3d</fix>
</trkpt>
<trkpt lat="33.8106148" lon="-118.393572">
  <ele>-3.896</ele>
  <time>2026-09-01T01:14:48Z</time>
  <course>154.12</course>
  <speed>0.03</speed>
  <fix>3d</fix>
</trkpt>
<trkpt lat="33.8106149" lon="-118.3935722">
  <ele>-3.41</ele>
  <time>2026-09-01T01:14:48Z</time>
  <course>85.23</course>
  <speed>0.0</speed>
  <fix>3d</fix>
</trkpt>
<trkpt lat="33.8106148" lon="-118.393572">
  <ele>-3.895</ele>
  <time>2026-09-01T01:14:48Z</time>
  <course>154.12</course>
  <speed>0.03</speed>
  <fix>3d</fix>
</trkpt>
<trkpt lat="33.8106149" lon="-118.3935722">
  <ele>-3.41</ele>
  <time>2026-09-01T01:14:48Z</time>
  <course>85.23</course>
  <speed>0.0</speed>
  <fix>3d</fix>
</trkpt>
<trkpt lat="33.8106148" lon="-118.393572">
  <ele>-3.894</ele>
  <time>2026-09-01T01:14:48Z</time>
  <course>154.11</course>
  <speed>0.03</speed>
  <fix>3d</fix>
</trkpt>
<trkpt lat="33.8106149" lon="-118.3935722">
  <ele>-3.4</ele>
  <time>2026-09-01T01:14:48Z</time>
  <course>85.29</course>
  <speed>0.0</speed>
  <fix>3d</fix>
</trkpt>
<trkpt lat="33.8106148" lon="-118.393572">
  <ele>-3.893</ele>
  <time>2026-09-01T01:14:48Z</time>
  <course>154.1</course>
  <speed>0.03</speed>
  <fix>3d</fix>
</trkpt>
<trkpt lat="33.8106149" lon="-118.3935722">
  <ele>-3.4</ele>
  <time>2026-09-01T01:14:48Z</time>
  <course>85.29</course>
  <speed>0.0</speed>
  <fix>3d</fix>
</trkpt>
<trkpt lat="33.8106148" lon="-118.393572">
  <ele>-3.893</ele>
  <time>2026-09-01T01:14:48Z</time>
  <course>154.1</course>
  <speed>0.03</speed>
  <fix>3d</fix>
</trkpt>
<trkpt lat="33.8106149" lon="-118.3935722">
  <ele>-3.4</ele>
  <time>2026-09-01T01:14:48Z</time>
  <course>85.27</course>
  <speed>0.0</speed>
  <fix>3d</fix>
</trkpt>
<trkpt lat="33.8106148" lon="-118.393572">
  <ele>-3.894</ele>
  <time>2026-09-01T01:14:48Z</time>
  <course>154.09</course>
  <speed>0.03</speed>
  <fix>3d</fix>
</trkpt>
<trkpt lat="33.8106149" lon="-118.3935722">
  <ele>-3.4</ele>
  <time>2026-09-01T01:14:48Z</time>
  <course>85.27</course>
  <speed>0.0</speed>
  <fix>3d</fix>
</trkpt>
<trkpt lat="33.8106148" lon="-118.393572">
  <ele>-3.894</ele>
  <time>2026-09-01T01:14:48Z</time>
  <course>154.09</course>
  <speed>0.03</speed>
  <fix>3d</fix>
</trkpt>
<trkpt lat="33.8106149" lon="-118.3935722">
  <ele>-3.39</ele>
  <time>2026-09-01T01:14:48Z</time>
  <course>85.22</course>
  <speed>0.0</speed>
  <fix>3d</fix>
</trkpt>
<trkpt lat="33.8106148" lon="-118.393572">
  <ele>-3.893</ele>
  <time>2026-09-01T01:14:48Z</time>
  <course>154.08</course>
  <speed>0.03</speed>
  <fix>3d</fix>
</trkpt>
<trkpt lat="33.8106149" lon="-118.3935722">
  <ele>-3.39</ele>
  <time>2026-09-01T01:14:48Z</time>
  <course>85.22</course>
  <speed>0.0</speed>
  <fix>3d</fix>
</trkpt>
<trkpt lat="33.8106148" lon="-118.3935719">
  <ele>-3.891</ele>
  <time>2026-09-01T01:14:48Z</time>
  <course>154.07</course>
  <speed>0.03</speed>
  <fix>3d</fix>
</trkpt>
<trkpt lat="33.8106149" lon="-118.3935722">
  <ele>-3.39</ele>
  <time>2026-09-01T01:14:48Z</time>
  <course>85.2</course>
  <speed>0.0</speed>
  <fix>3d</fix>
</trkpt>
<trkpt lat="33.8106148" lon="-118.3935719">
  <ele>-3.889</ele>
  <time>2026-09-01T01:14:48Z</time>
  <course>154.07</course>
  <speed>0.03</speed>
  <fix>3d</fix>
</trkpt>
<trkpt lat="33.8106149" lon="-118.3935722">
  <ele>-3.39</ele>
  <time>2026-09-01T01:14:48Z</time>
  <course>85.2</course>
  <speed>0.0</speed>
  <fix>3d</fix>
</trkpt>
<trkpt lat="33.8106148" lon="-118.3935719">
  <ele>-3.887</ele>
  <time>2026-09-01T01:14:48Z</time>
  <course>154.06</course>
  <speed>0.03</speed>
  <fix>3d</fix>
</trkpt>
<trkpt lat="33.8106149" lon="-118.3935722">
  <ele>-3.39</ele>
  <time>2026-09-01T01:14:48Z</time>
  <course>85.22</course>
  <speed>0.0</speed>
  <fix>3d</fix>
</trkpt>
<trkpt lat="33.8106148" lon="-118.3935719">
  <ele>-3.887</ele>
  <time>2026-09-01T01:14:48Z</time>
  <course>154.05</course>
  <speed>0.03</speed>
  <fix>3d</fix>
</trkpt>
<trkpt lat="33.8106149" lon="-118.3935722">
  <ele>-3.39</ele>
  <time>2026-09-01T01:14:48Z</time>
  <course>85.22</course>
  <speed>0.0</speed>
  <fix>3d</fix>
</trkpt>
<trkpt lat="33.8106148" lon="-118.3935719">
  <ele>-3.886</ele>
  <time>2026-09-01T01:14:48Z</time>
  <course>154.05</course>
  <speed>0.03</speed>
  <fix>3d</fix>
</trkpt>
<trkpt lat="33.8106149" lon="-118.3935722">
  <ele>-3.39</ele>
  <time>2026-09-01T01:14:48Z</time>
  <course>85.23</course>
  <speed>0.0</speed>
  <fix>3d</fix>
</trkpt>
<trkpt lat="33.8106148" lon="-118.3935719">
  <ele>-3.886</ele>
  <time>2026-09-01T01:14:48Z</time>
  <course>154.04</course>
  <speed>0.03</speed>
  <fix>3d</fix>
</trkpt>
<trkpt lat="33.8106149" lon="-118.3935722">
  <ele>-3.39</ele>
  <time>2026-09-01T01:14:48Z</time>
  <course>85.23</course>
  <speed>0.0</speed>
  <fix>3d</fix>
</trkpt>
<trkpt lat="33.8106148" lon="-118.3935719">
  <ele>-3.887</ele>
  <time>2026-09-01T01:14:48Z</time>
  <course>154.03</course>
  <speed>0.03</speed>
  <fix>3d</fix>
</trkpt>
<trkpt lat="33.8106149" lon="-118.3935722">
  <ele>-3.39</ele>
  <time>2026-09-01T01:14:48Z</time>
  <course>85.22</course>
  <speed>0.0</speed>
  <fix>3d</fix>
</trkpt>
<trkpt lat="33.8106148" lon="-118.3935719">
  <ele>-3.888</ele>
  <time>2026-09-01T01:14:48Z</time>
  <course>154.03</course>
  <speed>0.03</speed>
  <fix>3d</fix>
</trkpt>
<trkpt lat="33.8106149" lon="-118.3935722">
  <ele>-3.39</ele>
  <time>2026-09-01T01:14:48Z</time>
  <course>85.22</course>
  <speed>0.0</speed>
  <fix>3d</fix>
</trkpt>
<trkpt lat="33.8106148" lon="-118.3935719">
  <ele>-3.889</ele>
  <time>2026-09-01T01:14:48Z</time>
  <course>154.02</course>
  <speed>0.03</speed>
  <fix>3d</fix>
</trkpt>
<trkpt lat="33.8106149" lon="-118.3935722">
  <ele>-3.39</ele>
  <time>2026-09-01T01:14:48Z</time>
  <course>85.22</course>
  <speed>0.0</speed>
  <fix>3d</fix>
</trkpt>
<trkpt lat="33.8106148" lon="-118.3935719">
  <ele>-3.889</ele>
  <time>2026-09-01T01:14:48Z</time>
  <course>154.02</course>
  <speed>0.03</speed>
  <fix>3d</fix>
</trkpt>
<trkpt lat="33.8106149" lon="-118.3935722">
  <ele>-3.39</ele>
  <time>2026-09-01T01:14:48Z</time>
  <course>85.22</course>
  <speed>0.0</speed>
  <fix>3d</fix>
</trkpt>
<trkpt lat="33.8106148" lon="-118.3935719">
  <ele>-3.89</ele>
  <time>2026-09-01T01:14:48Z</time>
  <course>154.01</course>
  <speed>0.03</speed>
  <fix>3d</fix>
</trkpt>
<trkpt lat="33.8106149" lon="-118.3935721">
  <ele>-3.4</ele>
  <time>2026-09-01T01:14:48Z</time>
  <course>85.25</course>
  <speed>0.0</speed>
  <fix>3d</fix>
</trkpt>
<trkpt lat="33.8106148" lon="-118.3935719">
  <ele>-3.891</ele>
  <time>2026-09-01T01:14:48Z</time>
  <course>154.0</course>
  <speed>0.03</speed>
  <fix>3d</fix>
</trkpt>
<trkpt lat="33.8106149" lon="-118.3935721">
  <ele>-3.4</ele>
  <time>2026-09-01T01:14:48Z</time>
  <course>85.25</course>
  <speed>0.0</speed>
  <fix>3d</fix>
</trkpt>
<trkpt lat="33.8106148" lon="-118.3935719">
  <ele>-3.892</ele>
  <time>2026-09-01T01:14:48Z</time>
  <course>154.0</course>
  <speed>0.03</speed>
  <fix>3d</fix>
</trkpt>
<trkpt lat="33.8106149" lon="-118.3935721">
  <ele>-3.4</ele>
  <time>2026-09-01T01:14:48Z</time>
  <course>85.3</course>
  <speed>0.0</speed>
  <fix>3d</fix>
</trkpt>
<trkpt lat="33.8106148" lon="-118.3935719">
  <ele>-3.892</ele>
  <time>2026-09-01T01:14:48Z</time>
  <course>153.99</course>
  <speed>0.03</speed>
  <fix>3d</fix>
</trkpt>
<trkpt lat="33.8106149" lon="-118.3935721">
  <ele>-3.4</ele>
  <time>2026-09-01T01:14:48Z</time>
  <course>85.3</course>
  <speed>0.0</speed>
  <fix>3d</fix>
</trkpt>
<trkpt lat="33.8106148" lon="-118.3935719">
  <ele>-3.892</ele>
  <time>2026-09-01T01:14:48Z</time>
  <course>153.99</course>
  <speed>0.03</speed>
  <fix>3d</fix>
</trkpt>
<trkpt lat="33.8106149" lon="-118.3935721">
  <ele>-3.4</ele>
  <time>2026-09-01T01:14:48Z</time>
  <course>85.34</course>
  <speed>0.0</speed>
  <fix>3d</fix>
</trkpt>
<trkpt lat="33.8106148" lon="-118.3935719">
  <ele>-3.893</ele>
  <time>2026-09-01T01:14:48Z</time>
  <course>153.98</course>
  <speed>0.03</speed>
  <fix>3d</fix>
</trkpt>
<trkpt lat="33.8106149" lon="-118.3935721">
  <ele>-3.4</ele>
  <time>2026-09-01T01:14:48Z</time>
  <course>85.34</course>
  <speed>0.0</speed>
  <fix>3d</fix>
</trkpt>
<trkpt lat="33.8106148" lon="-118.3935719">
  <ele>-3.893</ele>
  <time>2026-09-01T01:14:48Z</time>
  <course>153.97</course>
  <speed>0.03</speed>
  <fix>3d</fix>
</trkpt>
<trkpt lat="33.8106149" lon="-118.3935721">
  <ele>-3.41</ele>
  <time>2026-09-01T01:14:48Z</time>
  <course>85.38</course>
  <speed>0.0</speed>
  <fix>3d</fix>
</trkpt>
<trkpt lat="33.8106148" lon="-118.3935719">
  <ele>-3.894</ele>
  <time>2026-09-01T01:14:48Z</time>
  <course>153.97</course>
  <speed>0.03</speed>
  <fix>3d</fix>
</trkpt>
<trkpt lat="33.8106149" lon="-118.3935721">
  <ele>-3.41</ele>
  <time>2026-09-01T01:14:48Z</time>
  <course>85.38</course>
  <speed>0.0</speed>
  <fix>3d</fix>
</trkpt>
<trkpt lat="33.8106148" lon="-118.3935718">
  <ele>-3.895</ele>
  <time>2026-09-01T01:14:48Z</time>
  <course>153.96</course>
  <speed>0.03</speed>
  <fix>3d</fix>
</trkpt>
<trkpt lat="33.8106149" lon="-118.3935721">
  <ele>-3.41</ele>
  <time>2026-09-01T01:14:48Z</time>
  <course>85.42</course>
  <speed>0.0</speed>
  <fix>3d</fix>
</trkpt>
<trkpt lat="33.8106148" lon="-118.3935718">
  <ele>-3.896</ele>
  <time>2026-09-01T01:14:48Z</time>
  <course>153.95</course>
  <speed>0.03</speed>
  <fix>3d</fix>
</trkpt>
<trkpt lat="33.8106149" lon="-118.3935721">
  <ele>-3.41</ele>
  <time>2026-09-01T01:14:48Z</time>
  <course>85.42</course>
  <speed>0.0</speed>
  <fix>3d</fix>
</trkpt>
<trkpt lat="33.8106148" lon="-118.3935718">
  <ele>-3.896</ele>
  <time>2026-09-01T01:14:48Z</time>
  <course>153.95</course>
  <speed>0.03</speed>
  <fix>3d</fix>
</trkpt>
<trkpt lat="33.8106149" lon="-118.3935721">
  <ele>-3.41</ele>
  <time>2026-09-01T01:14:48Z</time>
  <course>85.48</course>
  <speed>0.0</speed>
  <fix>3d</fix>
</trkpt>
<trkpt lat="33.8106148" lon="-118.3935718">
  <ele>-3.896</ele>
  <time>2026-09-01T01:14:48Z</time>
  <course>153.94</course>
  <speed>0.03</speed>
  <fix>3d</fix>
</trkpt>
<trkpt lat="33.8106149" lon="-118.3935721">
  <ele>-3.41</ele>
  <time>2026-09-01T01:14:48Z</time>
  <course>85.48</course>
  <speed>0.0</speed>
  <fix>3d</fix>
</trkpt>
<trkpt lat="33.8106148" lon="-118.3935718">
  <ele>-3.896</ele>
  <time>2026-09-01T01:14:48Z</time>
  <course>153.94</course>
  <speed>0.0316227766016838</speed>
  <fix>3d</fix>
</trkpt>
<trkpt lat="33.8106149" lon="-118.3935721">
  <ele>-3.41</ele>
  <time>2026-09-01T01:14:48Z</time>
  <course>85.54</course>
  <speed>0.0</speed>
  <fix>3d</fix>
</trkpt>
<trkpt lat="33.8106148" lon="-118.3935718">
  <ele>-3.898</ele>
  <time>2026-09-01T01:14:48Z</time>
  <course>153.93</course>
  <speed>0.03</speed>
  <fix>3d</fix>
</trkpt>
<trkpt lat="33.8106149" lon="-118.3935721">
  <ele>-3.41</ele>
  <time>2026-09-01T01:14:48Z</time>
  <course>85.54</course>
  <speed>0.0</speed>
  <fix>3d</fix>
</trkpt>
<trkpt lat="33.8106148" lon="-118.3935718">
  <ele>-3.899</ele>
  <time>2026-09-01T01:14:48Z</time>
  <course>153.92</course>
  <speed>0.0316227766016838</speed>
  <fix>3d</fix>
</trkpt>
<trkpt lat="33.8106149" lon="-118.3935721">
  <ele>-3.42</ele>
  <time>2026-09-01T01:14:48Z</time>
  <course>85.55</course>
  <speed>0.0</speed>
  <fix>3d</fix>
</trkpt>
<trkpt lat="33.8106148" lon="-118.3935718">
  <ele>-3.899</ele>
  <time>2026-09-01T01:14:48Z</time>
  <course>153.92</course>
  <speed>0.0316227766016838</speed>
  <fix>3d</fix>
</trkpt>
<trkpt lat="33.8106149" lon="-118.3935721">
  <ele>-3.42</ele>
  <time>2026-09-01T01:14:48Z</time>
  <course>85.55</course>
  <speed>0.0</speed>
  <fix>3d</fix>
</trkpt>
<trkpt lat="33.8106148" lon="-118.3935718">
  <ele>-3.898</ele>
  <time>2026-09-01T01:14:48Z</time>
  <course>153.91</course>
  <speed>0.0316227766016838</speed>
  <fix>3d</fix>
</trkpt>
<trkpt lat="33.8106149" lon="-118.393572">
  <ele>-3.41</ele>
  <time>2026-09-01T01:14:48Z</time>
  <course>85.57</course>
  <speed>0.0</speed>
  <fix>3d</fix>
</trkpt>
<trkpt lat="33.8106148" lon="-118.3935718">
  <ele>-3.896</ele>
  <time>2026-09-01T01:14:48Z</time>
  <course>153.91</course>
  <speed>0.0316227766016838</speed>
  <fix>3d</fix>
</trkpt>
<trkpt lat="33.8106149" lon="-118.393572">
  <ele>-3.41</ele>
  <time>2026-09-01T01:14:48Z</time>
  <course>85.57</course>
  <speed>0.0</speed>
  <fix>3d</fix>
</trkpt>
<trkpt lat="33.8106148" lon="-118.3935718">
  <ele>-3.894</ele>
  <time>2026-09-01T01:14:48Z</time>
  <course>153.9</course>
  <speed>0.0316227766016838</speed>
  <fix>3d</fix>
</trkpt>
<trkpt lat="33.8106149" lon="-118.393572">
  <ele>-3.41</ele>
  <time>2026-09-01T01:14:48Z</time>
  <course>85.61</course>
  <speed>0.0</speed>
  <fix>3d</fix>
</trkpt>
<trkpt lat="33.8106148" lon="-118.3935718">
  <ele>-3.891</ele>
  <time>2026-09-01T01:14:48Z</time>
  <course>153.89</course>
  <speed>0.0316227766016838</speed>
  <fix>3d</fix>
</trkpt>
<trkpt lat="33.8106149" lon="-118.393572">
  <ele>-3.41</ele>
  <time>2026-09-01T01:14:48Z</time>
  <course>85.61</course>
  <speed>0.0</speed>
  <fix>3d</fix>
</trkpt>
<trkpt lat="33.8106148" lon="-118.3935718">
  <ele>-3.89</ele>
  <time>2026-09-01T01:14:48Z</time>
  <course>153.89</course>
  <speed>0.0316227766016838</speed>
  <fix>3d</fix>
</trkpt>
<trkpt lat="33.8106149" lon="-118.393572">
  <ele>-3.41</ele>
  <time>2026-09-01T01:14:48Z</time>
  <course>85.6</course>
  <speed>0.0</speed>
  <fix>3d</fix>
</trkpt>
<trkpt lat="33.8106148" lon="-118.3935718">
  <ele>-3.887</ele>
  <time>2026-09-01T01:14:48Z</time>
  <course>153.88</course>
  <speed>0.0316227766016838</speed>
  <fix>3d</fix>
</trkpt>
<trkpt lat="33.8106149" lon="-118.393572">
  <ele>-3.41</ele>
  <time>2026-09-01T01:14:48Z</time>
  <course>85.6</course>
  <speed>0.0</speed>
  <fix>3d</fix>
</trkpt>
<trkpt lat="33.8106148" lon="-118.3935718">
  <ele>-3.884</ele>
  <time>2026-09-01T01:14:48Z</time>
  <course>153.88</course>
  <speed>0.0316227766016838</speed>
  <fix>3d</fix>
</trkpt>
<trkpt lat="33.8106149" lon="-118.393572">
  <ele>-3.41</ele>
  <time>2026-09-01T01:14:48Z</time>
  <course>85.53</course>
  <speed>0.0</speed>
  <fix>3d</fix>
</trkpt>
<trkpt lat="33.8106148" lon="-118.3935718">
  <ele>-3.882</ele>
  <time>2026-09-01T01:14:48Z</time>
  <course>153.87</course>
  <speed>0.03</speed>
  <fix>3d</fix>
</trkpt>
<trkpt lat="33.8106149" lon="-118.393572">
  <ele>-3.41</ele>
  <time>2026-09-01T01:14:48Z</time>
  <course>85.53</course>
  <speed>0.0</speed>
  <fix>3d</fix>
</trkpt>
<trkpt lat="33.8106148" lon="-118.3935718">
  <ele>-3.882</ele>
  <time>2026-09-01T01:14:48Z</time>
  <course>153.87</course>
  <speed>0.03</speed>
  <fix>3d</fix>
</trkpt>
<trkpt lat="33.8106149" lon="-118.393572">
  <ele>-3.41</ele>
  <time>2026-09-01T01:14:48Z</time>
  <course>85.32</course>
  <speed>0.0</speed>
  <fix>3d</fix>
</trkpt>
<trkpt lat="33.8106148" lon="-118.3935718">
  <ele>-3.885</ele>
  <time>2026-09-01T01:14:48Z</time>
  <course>153.86</course>
  <speed>0.03</speed>
  <fix>3d</fix>
</trkpt>
<trkpt lat="33.8106149" lon="-118.393572">
  <ele>-3.41</ele>
  <time>2026-09-01T01:14:48Z</time>
  <course>85.32</course>
  <speed>0.0</speed>
  <fix>3d</fix>
</trkpt>
<trkpt lat="33.8106148" lon="-118.3935718">
  <ele>-3.888</ele>
  <time>2026-09-01T01:14:48Z</time>
  <course>153.85</course>
  <speed>0.03</speed>
  <fix>3d</fix>
</trkpt>
<trkpt lat="33.8106149" lon="-118.393572">
  <ele>-3.41</ele>
  <time>2026-09-01T01:14:48Z</time>
  <course>84.85</course>
  <speed>0.0</speed>
  <fix>3d</fix>
</trkpt>
<trkpt lat="33.8106148" lon="-118.3935717">
  <ele>-3.891</ele>
  <time>2026-09-01T01:14:48Z</time>
  <course>153.85</course>
  <speed>0.03</speed>
  <fix>3d</fix>
</trkpt>
<trkpt lat="33.8106149" lon="-118.393572">
  <ele>-3.41</ele>
  <time>2026-09-01T01:14:48Z</time>
  <course>84.85</course>
  <speed>0.0</speed>
  <fix>3d</fix>
</trkpt>
<trkpt lat="33.8106148" lon="-118.3935717">
  <ele>-3.893</ele>
  <time>2026-09-01T01:14:48Z</time>
  <course>153.84</course>
  <speed>0.03</speed>
  <fix>3d</fix>
</trkpt>
<trkpt lat="33.8106149" lon="-118.393572">
  <ele>-3.42</ele>
  <time>2026-09-01T01:14:48Z</time>
  <course>84.3</course>
  <speed>0.0</speed>
  <fix>3d</fix>
</trkpt>
<trkpt lat="33.8106148" lon="-118.3935717">
  <ele>-3.894</ele>
  <time>2026-09-01T01:14:48Z</time>
  <course>153.84</course>
  <speed>0.03</speed>
  <fix>3d</fix>
</trkpt>
<trkpt lat="33.8106149" lon="-118.393572">
  <ele>-3.42</ele>
  <time>2026-09-01T01:14:48Z</time>
  <course>84.3</course>
  <speed>0.0</speed>
  <fix>3d</fix>
</trkpt>
<trkpt lat="33.8106148" lon="-118.3935717">
  <ele>-3.895</ele>
  <time>2026-09-01T01:14:48Z</time>
  <course>153.83</course>
  <speed>0.03</speed>
  <fix>3d</fix>
</trkpt>
<trkpt lat="33.8106149" lon="-118.393572">
  <ele>-3.42</ele>
  <time>2026-09-01T01:14:48Z</time>
  <course>83.75</course>
  <speed>0.0</speed>
  <fix>3d</fix>
</trkpt>
<trkpt lat="33.8106148" lon="-118.3935717">
  <ele>-3.896</ele>
  <time>2026-09-01T01:14:48Z</time>
  <course>153.82</course>
  <speed>0.03</speed>
  <fix>3d</fix>
</trkpt>
<trkpt lat="33.8106149" lon="-118.393572">
  <ele>-3.42</ele>
  <time>2026-09-01T01:14:48Z</time>
  <course>83.75</course>
  <speed>0.0</speed>
  <fix>3d</fix>
</trkpt>
<trkpt lat="33.8106148" lon="-118.3935717">
  <ele>-3.897</ele>
  <time>2026-09-01T01:14:48Z</time>
  <course>153.82</course>
  <speed>0.03</speed>
  <fix>3d</fix>
</trkpt>
<trkpt lat="33.8106149" lon="-118.393572">
  <ele>-3.43</ele>
  <time>2026-09-01T01:14:48Z</time>
  <course>83.22</course>
  <speed>0.0</speed>
  <fix>3d</fix>
</trkpt>
<trkpt lat="33.8106148" lon="-118.3935717">
  <ele>-3.897</ele>
  <time>2026-09-01T01:14:48Z</time>
  <course>153.81</course>
  <speed>0.03</speed>
  <fix>3d</fix>
</trkpt>
<trkpt lat="33.8106149" lon="-118.393572">
  <ele>-3.43</ele>
  <time>2026-09-01T01:14:48Z</time>
  <course>83.22</course>
  <speed>0.0</speed>
  <fix>3d</fix>
</trkpt>
<trkpt lat="33.8106148" lon="-118.3935717">
  <ele>-3.897</ele>
  <time>2026-09-01T01:14:48Z</time>
  <course>153.81</course>
  <speed>0.03</speed>
  <fix>3d</fix>
</trkpt>
<trkpt lat="33.8106149" lon="-118.3935719">
  <ele>-3.43</ele>
  <time>2026-09-01T01:14:48Z</time>
  <course>82.85</course>
  <speed>0.0</speed>
  <fix>3d</fix>
</trkpt>
<trkpt lat="33.8106148" lon="-118.3935717">
  <ele>-3.898</ele>
  <time>2026-09-01T01:14:48Z</time>
  <course>153.8</course>
  <speed>0.03</speed>
  <fix>3d</fix>
</trkpt>
<trkpt lat="33.8106149" lon="-118.3935719">
  <ele>-3.43</ele>
  <time>2026-09-01T01:14:48Z</time>
  <course>82.85</course>
  <speed>0.0</speed>
  <fix>3d</fix>
</trkpt>
<trkpt lat="33.8106148" lon="-118.3935717">
  <ele>-3.898</ele>
  <time>2026-09-01T01:14:48Z</time>
  <course>153.8</course>
  <speed>0.03</speed>
  <fix>3d</fix>
</trkpt>
<trkpt lat="33.8106149" lon="-118.3935719">
  <ele>-3.42</ele>
  <time>2026-09-01T01:14:48Z</time>
  <course>82.64</course>
  <speed>0.0</speed>
  <fix>3d</fix>
</trkpt>
<trkpt lat="33.8106148" lon="-118.3935717">
  <ele>-3.898</ele>
  <time>2026-09-01T01:14:48Z</time>
  <course>153.79</course>
  <speed>0.03</speed>
  <fix>3d</fix>
</trkpt>
<trkpt lat="33.8106149" lon="-118.3935719">
  <ele>-3.42</ele>
  <time>2026-09-01T01:14:48Z</time>
  <course>82.64</course>
  <speed>0.0</speed>
  <fix>3d</fix>
</trkpt>
<trkpt lat="33.8106148" lon="-118.3935717">
  <ele>-3.897</ele>
  <time>2026-09-01T01:14:48Z</time>
  <course>153.78</course>
  <speed>0.03</speed>
  <fix>3d</fix>
</trkpt>
<trkpt lat="33.8106149" lon="-118.3935719">
  <ele>-3.42</ele>
  <time>2026-09-01T01:14:48Z</time>
  <course>82.45</course>
  <speed>0.0</speed>
  <fix>3d</fix>
</trkpt>
<trkpt lat="33.8106148" lon="-118.3935717">
  <ele>-3.896</ele>
  <time>2026-09-01T01:14:48Z</time>
  <course>153.78</course>
  <speed>0.03</speed>
  <fix>3d</fix>
</trkpt>
<trkpt lat="33.8106149" lon="-118.3935719">
  <ele>-3.42</ele>
  <time>2026-09-01T01:14:48Z</time>
  <course>82.45</course>
  <speed>0.0</speed>
  <fix>3d</fix>
</trkpt>
<trkpt lat="33.8106148" lon="-118.3935717">
  <ele>-3.895</ele>
  <time>2026-09-01T01:14:48Z</time>
  <course>153.77</course>
  <speed>0.03</speed>
  <fix>3d</fix>
</trkpt>
<trkpt lat="33.8106149" lon="-118.3935719">
  <ele>-3.42</ele>
  <time>2026-09-01T01:14:48Z</time>
  <course>82.19</course>
  <speed>0.0</speed>
  <fix>3d</fix>
</trkpt>
<trkpt lat="33.8106148" lon="-118.3935717">
  <ele>-3.895</ele>
  <time>2026-09-01T01:14:48Z</time>
  <course>153.77</course>
  <speed>0.03</speed>
  <fix>3d</fix>
</trkpt>
<trkpt lat="33.8106149" lon="-118.3935719">
  <ele>-3.42</ele>
  <time>2026-09-01T01:14:48Z</time>
  <course>82.19</course>
  <speed>0.0</speed>
  <fix>3d</fix>
</trkpt>
<trkpt lat="33.8106148" lon="-118.3935717">
  <ele>-3.896</ele>
  <time>2026-09-01T01:14:48Z</time>
  <course>153.76</course>
  <speed>0.03</speed>
  <fix>3d</fix>
</trkpt>
<trkpt lat="33.8106149" lon="-118.3935719">
  <ele>-3.42</ele>
  <time>2026-09-01T01:14:48Z</time>
  <course>81.77</course>
  <speed>0.0</speed>
  <fix>3d</fix>
</trkpt>
<trkpt lat="33.8106148" lon="-118.3935717">
  <ele>-3.897</ele>
  <time>2026-09-01T01:14:48Z</time>
  <course>153.76</course>
  <speed>0.03</speed>
  <fix>3d</fix>
</trkpt>
<trkpt lat="33.8106149" lon="-118.3935719">
  <ele>-3.42</ele>
  <time>2026-09-01T01:14:48Z</time>
  <course>81.77</course>
  <speed>0.0</speed>
  <fix>3d</fix>
</trkpt>
<trkpt lat="33.8106148" lon="-118.3935716">
  <ele>-3.898</ele>
  <time>2026-09-01T01:14:48Z</time>
  <course>153.75</course>
  <speed>0.03</speed>
  <fix>3d</fix>
</trkpt>
<trkpt lat="33.8106149" lon="-118.3935719">
  <ele>-3.42</ele>
  <time>2026-09-01T01:14:48Z</time>
  <course>81.3</course>
  <speed>0.0</speed>
  <fix>3d</fix>
</trkpt>
<trkpt lat="33.8106148" lon="-118.3935716">
  <ele>-3.899</ele>
  <time>2026-09-01T01:14:48Z</time>
  <course>153.75</course>
  <speed>0.03</speed>
  <fix>3d</fix>
</trkpt>
<trkpt lat="33.8106149" lon="-118.3935719">
  <ele>-3.42</ele>
  <time>2026-09-01T01:14:48Z</time>
  <course>81.3</course>
  <speed>0.0</speed>
  <fix>3d</fix>
</trkpt>
<trkpt lat="33.8106148" lon="-118.3935716">
  <ele>-3.898</ele>
  <time>2026-09-01T01:14:48Z</time>
  <course>153.74</course>
  <speed>0.03</speed>
  <fix>3d</fix>
</trkpt>
<trkpt lat="33.8106149" lon="-118.3935719">
  <ele>-3.42</ele>
  <time>2026-09-01T01:14:48Z</time>
  <course>80.95</course>
  <speed>0.0</speed>
  <fix>3d</fix>
</trkpt>
<trkpt lat="33.8106148" lon="-118.3935716">
  <ele>-3.898</ele>
  <time>2026-09-01T01:14:48Z</time>
  <course>153.73</course>
  <speed>0.03</speed>
  <fix>3d</fix>
</trkpt>
<trkpt lat="33.8106149" lon="-118.3935719">
  <ele>-3.42</ele>
  <time>2026-09-01T01:14:48Z</time>
  <course>80.95</course>
  <speed>0.0</speed>
  <fix>3d</fix>
</trkpt>
<trkpt lat="33.8106148" lon="-118.3935716">
  <ele>-3.898</ele>
  <time>2026-09-01T01:14:48Z</time>
  <course>153.73</course>
  <speed>0.03</speed>
  <fix>3d</fix>
</trkpt>
<trkpt lat="33.8106149" lon="-118.3935718">
  <ele>-3.42</ele>
  <time>2026-09-01T01:14:48Z</time>
  <course>80.76</course>
  <speed>0.0</speed>
  <fix>3d</fix>
</trkpt>
<trkpt lat="33.8106148" lon="-118.3935716">
  <ele>-3.899</ele>
  <time>2026-09-01T01:14:48Z</time>
  <course>153.72</course>
  <speed>0.03</speed>
  <fix>3d</fix>
</trkpt>
<trkpt lat="33.8106149" lon="-118.3935718">
  <ele>-3.42</ele>
  <time>2026-09-01T01:14:48Z</time>
  <course>80.76</course>
  <speed>0.0</speed>
  <fix>3d</fix>
</trkpt>
<trkpt lat="33.8106148" lon="-118.3935716">
  <ele>-3.899</ele>
  <time>2026-09-01T01:14:48Z</time>
  <course>153.72</course>
  <speed>0.03</speed>
  <fix>3d</fix>
</trkpt>
<trkpt lat="33.8106149" lon="-118.3935718">
  <ele>-3.42</ele>
  <time>2026-09-01T01:14:48Z</time>
  <course>80.68</course>
  <speed>0.0</speed>
  <fix>3d</fix>
</trkpt>
<trkpt lat="33.8106148" lon="-118.3935716">
  <ele>-3.899</ele>
  <time>2026-09-01T01:14:48Z</time>
  <course>153.71</course>
  <speed>0.03</speed>
  <fix>3d</fix>
</trkpt>
<trkpt lat="33.8106149" lon="-118.3935718">
  <ele>-3.42</ele>
  <time>2026-09-01T01:14:48Z</time>
  <course>80.68</course>
  <speed>0.0</speed>
  <fix>3d</fix>
</trkpt>
<trkpt lat="33.8106148" lon="-118.3935716">
  <ele>-3.898</ele>
  <time>2026-09-01T01:14:48Z</time>
  <course>153.71</course>
  <speed>0.03</speed>
  <fix>3d</fix>
</trkpt>
<trkpt lat="33.8106149" lon="-118.3935718">
  <ele>-3.42</ele>
  <time>2026-09-01T01:14:48Z</time>
  <course>80.58</course>
  <speed>0.0</speed>
  <fix>3d</fix>
</trkpt>
<trkpt lat="33.8106148" lon="-118.3935716">
  <ele>-3.897</ele>
  <time>2026-09-01T01:14:48Z</time>
  <course>153.7</course>
  <speed>0.03</speed>
  <fix>3d</fix>
</trkpt>
<trkpt lat="33.8106149" lon="-118.3935718">
  <ele>-3.42</ele>
  <time>2026-09-01T01:14:48Z</time>
  <course>80.58</course>
  <speed>0.0</speed>
  <fix>3d</fix>
</trkpt>
<trkpt lat="33.8106148" lon="-118.3935716">
  <ele>-3.896</ele>
  <time>2026-09-01T01:14:48Z</time>
  <course>153.69</course>
  <speed>0.03</speed>
  <fix>3d</fix>
</trkpt>
<trkpt lat="33.8106149" lon="-118.3935718">
  <ele>-3.41</ele>
  <time>2026-09-01T01:14:48Z</time>
  <course>80.39</course>
  <speed>0.0</speed>
  <fix>3d</fix>
</trkpt>
<trkpt lat="33.8106148" lon="-118.3935716">
  <ele>-3.894</ele>
  <time>2026-09-01T01:14:48Z</time>
  <course>153.69</course>
  <speed>0.03</speed>
  <fix>3d</fix>
</trkpt>
<trkpt lat="33.8106149" lon="-118.3935718">
  <ele>-3.41</ele>
  <time>2026-09-01T01:14:48Z</time>
  <course>80.39</course>
  <speed>0.0</speed>
  <fix>3d</fix>
</trkpt>
<trkpt lat="33.8106148" lon="-118.3935716">
  <ele>-3.893</ele>
  <time>2026-09-01T01:14:48Z</time>
  <course>153.68</course>
  <speed>0.03</speed>
  <fix>3d</fix>
</trkpt>
<trkpt lat="33.8106149" lon="-118.3935718">
  <ele>-3.41</ele>
  <time>2026-09-01T01:14:48Z</time>
  <course>80.11</course>
  <speed>0.0</speed>
  <fix>3d</fix>
</trkpt>
<trkpt lat="33.8106148" lon="-118.3935715">
  <ele>-3.892</ele>
  <time>2026-09-01T01:14:48Z</time>
  <course>153.68</course>
  <speed>0.03</speed>
  <fix>3d</fix>
</trkpt>
<trkpt lat="33.8106149" lon="-118.3935718">
  <ele>-3.41</ele>
  <time>2026-09-01T01:14:48Z</time>
  <course>80.11</course>
  <speed>0.0</speed>
  <fix>3d</fix>
</trkpt>
<trkpt lat="33.8106148" lon="-118.3935715">
  <ele>-3.892</ele>
  <time>2026-09-01T01:14:48Z</time>
  <course>153.67</course>
  <speed>0.03</speed>
  <fix>3d</fix>
</trkpt>
<trkpt lat="33.8106149" lon="-118.3935718">
  <ele>-3.41</ele>
  <time>2026-09-01T01:14:48Z</time>
  <course>79.78</course>
  <speed>0.0</speed>
  <fix>3d</fix>
</trkpt>
<trkpt lat="33.8106148" lon="-118.3935715">
  <ele>-3.892</ele>
  <time>2026-09-01T01:14:48Z</time>
  <course>153.67</course>
  <speed>0.03</speed>
  <fix>3d</fix>
</trkpt>
<trkpt lat="33.8106149" lon="-118.3935718">
  <ele>-3.41</ele>
  <time>2026-09-01T01:14:48Z</time>
  <course>79.78</course>
  <speed>0.0</speed>
  <fix>3d</fix>
</trkpt>
<trkpt lat="33.8106148" lon="-118.3935715">
  <ele>-3.893</ele>
  <time>2026-09-01T01:14:48Z</time>
  <course>153.66</course>
  <speed>0.03</speed>
  <fix>3d</fix>
</trkpt>
<trkpt lat="33.8106149" lon="-118.3935718">
  <ele>-3.41</ele>
  <time>2026-09-01T01:14:48Z</time>
  <course>79.52</course>
  <speed>0.0</speed>
  <fix>3d</fix>
</trkpt>
<trkpt lat="33.8106148" lon="-118.3935715">
  <ele>-3.893</ele>
  <time>2026-09-01T01:14:48Z</time>
  <course>153.66</course>
  <speed>0.03</speed>
  <fix>3d</fix>
</trkpt>
<trkpt lat="33.8106149" lon="-118.3935718">
  <ele>-3.41</ele>
  <time>2026-09-01T01:14:48Z</time>
  <course>79.52</course>
  <speed>0.0</speed>
  <fix>3d</fix>
</trkpt>
<trkpt lat="33.8106148" lon="-118.3935715">
  <ele>-3.895</ele>
  <time>2026-09-01T01:14:48Z</time>
  <course>153.65</course>
  <speed>0.03</speed>
  <fix>3d</fix>
</trkpt>
<trkpt lat="33.8106149" lon="-118.3935717">
  <ele>-3.41</ele>
  <time>2026-09-01T01:14:48Z</time>
  <course>79.38</course>
  <speed>0.0</speed>
  <fix>3d</fix>
</trkpt>
<trkpt lat="33.8106148" lon="-118.3935715">
  <ele>-3.896</ele>
  <time>2026-09-01T01:14:48Z</time>
  <course>153.64</course>
  <speed>0.03</speed>
  <fix>3d</fix>
</trkpt>
<trkpt lat="33.8106149" lon="-118.3935717">
  <ele>-3.41</ele>
  <time>2026-09-01T01:14:48Z</time>
  <course>79.38</course>
  <speed>0.0</speed>
  <fix>3d</fix>
</trkpt>
<trkpt lat="33.8106148" lon="-118.3935715">
  <ele>-3.897</ele>
  <time>2026-09-01T01:14:48Z</time>
  <course>153.64</course>
  <speed>0.03</speed>
  <fix>3d</fix>
</trkpt>
<trkpt lat="33.8106149" lon="-118.3935717">
  <ele>-3.42</ele>
  <time>2026-09-01T01:14:48Z</time>
  <course>79.32</course>
  <speed>0.0</speed>
  <fix>3d</fix>
</trkpt>
<trkpt lat="33.8106148" lon="-118.3935715">
  <ele>-3.898</ele>
  <time>2026-09-01T01:14:48Z</time>
  <course>153.63</course>
  <speed>0.03</speed>
  <fix>3d</fix>
</trkpt>
<trkpt lat="33.8106149" lon="-118.3935717">
  <ele>-3.42</ele>
  <time>2026-09-01T01:14:48Z</time>
  <course>79.32</course>
  <speed>0.0</speed>
  <fix>3d</fix>
</trkpt>
<trkpt lat="33.8106148" lon="-118.3935715">
  <ele>-3.899</ele>
  <time>2026-09-01T01:14:48Z</time>
  <course>153.63</course>
  <speed>0.03</speed>
  <fix>3d</fix>
</trkpt>
<trkpt lat="33.8106149" lon="-118.3935717">
  <ele>-3.42</ele>
  <time>2026-09-01T01:14:48Z</time>
  <course>79.27</course>
  <speed>0.0</speed>
  <fix>3d</fix>
</trkpt>
<trkpt lat="33.8106148" lon="-118.3935715">
  <ele>-3.899</ele>
  <time>2026-09-01T01:14:48Z</time>
  <course>153.62</course>
  <speed>0.03</speed>
  <fix>3d</fix>
</trkpt>
<trkpt lat="33.8106149" lon="-118.3935717">
  <ele>-3.42</ele>
  <time>2026-09-01T01:14:48Z</time>
  <course>79.27</course>
  <speed>0.0</speed>
  <fix>3d</fix>
</trkpt>
<trkpt lat="33.8106148" lon="-118.3935715">
  <ele>-3.9</ele>
  <time>2026-09-01T01:14:48Z</time>
  <course>153.62</course>
  <speed>0.03</speed>
  <fix>3d</fix>
</trkpt>
<trkpt lat="33.8106149" lon="-118.3935717">
  <ele>-3.42</ele>
  <time>2026-09-01T01:14:48Z</time>
  <course>79.16</course>
  <speed>0.0</speed>
  <fix>3d</fix>
</trkpt>
<trkpt lat="33.8106148" lon="-118.3935715">
  <ele>-3.899</ele>
  <time>2026-09-01T01:14:48Z</time>
  <course>153.61</course>
  <speed>0.03</speed>
  <fix>3d</fix>
</trkpt>
<trkpt lat="33.8106149" lon="-118.3935717">
  <ele>-3.42</ele>
  <time>2026-09-01T01:14:48Z</time>
  <course>79.16</course>
  <speed>0.0</speed>
  <fix>3d</fix>
</trkpt>
<trkpt lat="33.8106148" lon="-118.3935714">
  <ele>-3.898</ele>
  <time>2026-09-01T01:14:48Z</time>
  <course>153.61</course>
  <speed>0.03</speed>
  <fix>3d</fix>
</trkpt>
<trkpt lat="33.8106149" lon="-118.3935717">
  <ele>-3.41</ele>
  <time>2026-09-01T01:14:48Z</time>
  <course>78.95</course>
  <speed>0.0</speed>
  <fix>3d</fix>
</trkpt>
<trkpt lat="33.8106148" lon="-118.3935714">
  <ele>-3.897</ele>
  <time>2026-09-01T01:14:48Z</time>
  <course>153.6</course>
  <speed>0.03</speed>
  <fix>3d</fix>
</trkpt>
<trkpt lat="33.8106149" lon="-118.3935717">
  <ele>-3.41</ele>
  <time>2026-09-01T01:14:48Z</time>
  <course>78.95</course>
  <speed>0.0</speed>
  <fix>3d</fix>
</trkpt>
<trkpt lat="33.8106148" lon="-118.3935714">
  <ele>-3.895</ele>
  <time>2026-09-01T01:14:48Z</time>
  <course>153.6</course>
  <speed>0.03</speed>
  <fix>3d</fix>
</trkpt>
<trkpt lat="33.8106149" lon="-118.3935717">
  <ele>-3.41</ele>
  <time>2026-09-01T01:14:48Z</time>
  <course>78.73</course>
  <speed>0.0</speed>
  <fix>3d</fix>
</trkpt>
<trkpt lat="33.8106148" lon="-118.3935714">
  <ele>-3.895</ele>
  <time>2026-09-01T01:14:48Z</time>
  <course>153.59</course>
  <speed>0.03</speed>
  <fix>3d</fix>
</trkpt>
<trkpt lat="33.8106149" lon="-118.3935717">
  <ele>-3.41</ele>
  <time>2026-09-01T01:14:48Z</time>
  <course>78.73</course>
  <speed>0.0</speed>
  <fix>3d</fix>
</trkpt>
<trkpt lat="33.8106148" lon="-118.3935714">
  <ele>-3.894</ele>
  <time>2026-09-01T01:14:48Z</time>
  <course>153.58</course>
  <speed>0.03</speed>
  <fix>3d</fix>
</trkpt>
<trkpt lat="33.8106149" lon="-118.3935717">
  <ele>-3.41</ele>
  <time>2026-09-01T01:14:48Z</time>
  <course>78.57</course>
  <speed>0.0</speed>
  <fix>3d</fix>
</trkpt>
<trkpt lat="33.8106148" lon="-118.3935714">
  <ele>-3.897</ele>
  <time>2026-09-01T01:14:48Z</time>
  <course>153.58</course>
  <speed>0.03</speed>
  <fix>3d</fix>
</trkpt>
<trkpt lat="33.8106149" lon="-118.3935717">
  <ele>-3.41</ele>
  <time>2026-09-01T01:14:48Z</time>
  <course>78.57</course>
  <speed>0.0</speed>
  <fix>3d</fix>
</trkpt>
<trkpt lat="33.8106148" lon="-118.3935714">
  <ele>-3.907</ele>
  <time>2026-09-01T01:14:48Z</time>
  <course>153.57</course>
  <speed>0.03</speed>
  <fix>3d</fix>
</trkpt>
<trkpt lat="33.8106149" lon="-118.3935716">
  <ele>-3.41</ele>
  <time>2026-09-01T01:14:48Z</time>
  <course>78.55</course>
  <speed>0.0</speed>
  <fix>3d</fix>
</trkpt>
<trkpt lat="33.8106148" lon="-118.3935714">
  <ele>-3.915</ele>
  <time>2026-09-01T01:14:48Z</time>
  <course>153.57</course>
  <speed>0.03</speed>
  <fix>3d</fix>
</trkpt>
<trkpt lat="33.8106149" lon="-118.3935716">
  <ele>-3.41</ele>
  <time>2026-09-01T01:14:48Z</time>
  <course>78.55</course>
  <speed>0.0</speed>
  <fix>3d</fix>
</trkpt>
<trkpt lat="33.8106148" lon="-118.3935714">
  <ele>-3.919</ele>
  <time>2026-09-01T01:14:48Z</time>
  <course>153.56</course>
  <speed>0.03</speed>
  <fix>3d</fix>
</trkpt>
<trkpt lat="33.8106149" lon="-118.3935716">
  <ele>-3.42</ele>
  <time>2026-09-01T01:14:48Z</time>
  <course>78.69</course>
  <speed>0.0</speed>
  <fix>3d</fix>
</trkpt>
<trkpt lat="33.8106148" lon="-118.3935714">
  <ele>-3.919</ele>
  <time>2026-09-01T01:14:48Z</time>
  <course>153.56</course>
  <speed>0.03</speed>
  <fix>3d</fix>
</trkpt>
<trkpt lat="33.8106149" lon="-118.3935716">
  <ele>-3.42</ele>
  <time>2026-09-01T01:14:48Z</time>
  <course>78.69</course>
  <speed>0.0</speed>
  <fix>3d</fix>
</trkpt>
<trkpt lat="33.8106148" lon="-118.3935714">
  <ele>-3.918</ele>
  <time>2026-09-01T01:14:48Z</time>
  <course>153.55</course>
  <speed>0.03</speed>
  <fix>3d</fix>
</trkpt>
<trkpt lat="33.8106149" lon="-118.3935716">
  <ele>-3.43</ele>
  <time>2026-09-01T01:14:48Z</time>
  <course>79.06</course>
  <speed>0.0</speed>
  <fix>3d</fix>
</trkpt>
<trkpt lat="33.8106148" lon="-118.3935714">
  <ele>-3.917</ele>
  <time>2026-09-01T01:14:48Z</time>
  <course>153.55</course>
  <speed>0.03</speed>
  <fix>3d</fix>
</trkpt>
<trkpt lat="33.8106149" lon="-118.3935716">
  <ele>-3.43</ele>
  <time>2026-09-01T01:14:48Z</time>
  <course>79.06</course>
  <speed>0.0</speed>
  <fix>3d</fix>
</trkpt>
<trkpt lat="33.8106148" lon="-118.3935714">
  <ele>-3.914</ele>
  <time>2026-09-01T01:14:48Z</time>
  <course>153.54</course>
  <speed>0.03</speed>
  <fix>3d</fix>
</trkpt>
<trkpt lat="33.8106149" lon="-118.3935716">
  <ele>-3.43</ele>
  <time>2026-09-01T01:14:48Z</time>
  <course>79.56</course>
  <speed>0.0</speed>
  <fix>3d</fix>
</trkpt>
<trkpt lat="33.8106148" lon="-118.3935714">
  <ele>-3.911</ele>
  <time>2026-09-01T01:14:48Z</time>
  <course>153.54</course>
  <speed>0.03</speed>
  <fix>3d</fix>
</trkpt>
<trkpt lat="33.8106149" lon="-118.3935716">
  <ele>-3.43</ele>
  <time>2026-09-01T01:14:48Z</time>
  <course>79.56</course>
  <speed>0.0</speed>
  <fix>3d</fix>
</trkpt>
<trkpt lat="33.8106148" lon="-118.3935713">
  <ele>-3.909</ele>
  <time>2026-09-01T01:14:48Z</time>
  <course>153.53</course>
  <speed>0.03</speed>
  <fix>3d</fix>
</trkpt>
<trkpt lat="33.8106149" lon="-118.3935716">
  <ele>-3.43</ele>
  <time>2026-09-01T01:14:48Z</time>
  <course>80.06</course>
  <speed>0.0</speed>
  <fix>3d</fix>
</trkpt>
<trkpt lat="33.8106148" lon="-118.3935713">
  <ele>-3.907</ele>
  <time>2026-09-01T01:14:48Z</time>
  <course>153.53</course>
  <speed>0.03</speed>
  <fix>3d</fix>
</trkpt>
<trkpt lat="33.8106149" lon="-118.3935716">
  <ele>-3.43</ele>
  <time>2026-09-01T01:14:48Z</time>
  <course>80.06</course>
  <speed>0.0</speed>
  <fix>3d</fix>
</trkpt>
<trkpt lat="33.8106148" lon="-118.3935713">
  <ele>-3.904</ele>
  <time>2026-09-01T01:14:48Z</time>
  <course>153.52</course>
  <speed>0.03</speed>
  <fix>3d</fix>
</trkpt>
<trkpt lat="33.8106149" lon="-118.3935716">
  <ele>-3.42</ele>
  <time>2026-09-01T01:14:48Z</time>
  <course>80.48</course>
  <speed>0.0</speed>
  <fix>3d</fix>
</trkpt>
<trkpt lat="33.8106148" lon="-118.3935713">
  <ele>-3.902</ele>
  <time>2026-09-01T01:14:48Z</time>
  <course>153.52</course>
  <speed>0.03</speed>
  <fix>3d</fix>
</trkpt>
<trkpt lat="33.8106149" lon="-118.3935716">
  <ele>-3.42</ele>
  <time>2026-09-01T01:14:48Z</time>
  <course>80.48</course>
  <speed>0.0</speed>
  <fix>3d</fix>
</trkpt>
<trkpt lat="33.8106148" lon="-118.3935713">
  <ele>-3.9</ele>
  <time>2026-09-01T01:14:48Z</time>
  <course>153.51</course>
  <speed>0.03</speed>
  <fix>3d</fix>
</trkpt>
<trkpt lat="33.8106149" lon="-118.3935716">
  <ele>-3.42</ele>
  <time>2026-09-01T01:14:48Z</time>
  <course>80.77</course>
  <speed>0.0</speed>
  <fix>3d</fix>
</trkpt>
<trkpt lat="33.8106148" lon="-118.3935713">
  <ele>-3.899</ele>
  <time>2026-09-01T01:14:48Z</time>
  <course>153.51</course>
  <speed>0.03</speed>
  <fix>3d</fix>
</trkpt>
<trkpt lat="33.8106149" lon="-118.3935716">
  <ele>-3.42</ele>
  <time>2026-09-01T01:14:48Z</time>
  <course>80.77</course>
  <speed>0.0</speed>
  <fix>3d</fix>
</trkpt>
<trkpt lat="33.8106148" lon="-118.3935713">
  <ele>-3.899</ele>
  <time>2026-09-01T01:14:48Z</time>
  <course>153.5</course>
  <speed>0.03</speed>
  <fix>3d</fix>
</trkpt>
<trkpt lat="33.8106149" lon="-118.3935715">
  <ele>-3.42</ele>
  <time>2026-09-01T01:14:48Z</time>
  <course>80.98</course>
  <speed>0.0</speed>
  <fix>3d</fix>
</trkpt>
<trkpt lat="33.8106148" lon="-118.3935713">
  <ele>-3.9</ele>
  <time>2026-09-01T01:14:48Z</time>
  <course>153.51</course>
  <speed>0.03</speed>
  <fix>3d</fix>
</trkpt>
<trkpt lat="33.8106149" lon="-118.3935715">
  <ele>-3.42</ele>
  <time>2026-09-01T01:14:48Z</time>
  <course>80.98</course>
  <speed>0.0</speed>
  <fix>3d</fix>
</trkpt>
<trkpt lat="33.8106148" lon="-118.3935713">
  <ele>-3.9</ele>
  <time>2026-09-01T01:14:48Z</time>
  <course>153.52</course>
  <speed>0.03</speed>
  <fix>3d</fix>
</trkpt>
<trkpt lat="33.8106149" lon="-118.3935715">
  <ele>-3.42</ele>
  <time>2026-09-01T01:14:48Z</time>
  <course>81.2</course>
  <speed>0.0</speed>
  <fix>3d</fix>
</trkpt>
<trkpt lat="33.8106148" lon="-118.3935713">
  <ele>-3.901</ele>
  <time>2026-09-01T01:14:48Z</time>
  <course>153.54</course>
  <speed>0.03</speed>
  <fix>3d</fix>
</trkpt>
<trkpt lat="33.8106149" lon="-118.3935715">
  <ele>-3.42</ele>
  <time>2026-09-01T01:14:48Z</time>
  <course>81.2</course>
  <speed>0.0</speed>
  <fix>3d</fix>
</trkpt>
<trkpt lat="33.8106148" lon="-118.3935713">
  <ele>-3.901</ele>
  <time>2026-09-01T01:14:48Z</time>
  <course>153.56</course>
  <speed>0.03</speed>
  <fix>3d</fix>
</trkpt>
<trkpt lat="33.8106149" lon="-118.3935715">
  <ele>-3.42</ele>
  <time>2026-09-01T01:14:48Z</time>
  <course>81.58</course>
  <speed>0.0</speed>
  <fix>3d</fix>
</trkpt>
<trkpt lat="33.8106148" lon="-118.3935713">
  <ele>-3.9</ele>
  <time>2026-09-01T01:14:48Z</time>
  <course>153.59</course>
  <speed>0.03</speed>
  <fix>3d</fix>
</trkpt>
<trkpt lat="33.8106149" lon="-118.3935715">
  <ele>-3.42</ele>
  <time>2026-09-01T01:14:48Z</time>
  <course>81.58</course>
  <speed>0.0</speed>
  <fix>3d</fix>
</trkpt>
<trkpt lat="33.8106148" lon="-118.3935713">
  <ele>-3.9</ele>
  <time>2026-09-01T01:14:48Z</time>
  <course>153.61</course>
  <speed>0.03</speed>
  <fix>3d</fix>
</trkpt>
<trkpt lat="33.8106149" lon="-118.3935715">
  <ele>-3.42</ele>
  <time>2026-09-01T01:14:48Z</time>
  <course>82.1</course>
  <speed>0.0</speed>
  <fix>3d</fix>
</trkpt>
<trkpt lat="33.8106148" lon="-118.3935713">
  <ele>-3.9</ele>
  <time>2026-09-01T01:14:48Z</time>
  <course>153.63</course>
  <speed>0.03</speed>
  <fix>3d</fix>
</trkpt>
<trkpt lat="33.8106149" lon="-118.3935715">
  <ele>-3.42</ele>
  <time>2026-09-01T01:14:48Z</time>
  <course>82.1</course>
  <speed>0.0</speed>
  <fix>3d</fix>
</trkpt>
<trkpt lat="33.8106148" lon="-118.3935713">
  <ele>-3.9</ele>
  <time>2026-09-01T01:14:49Z</time>
  <course>153.65</course>
  <speed>0.03</speed>
  <fix>3d</fix>
</trkpt>
<trkpt lat="33.8106149" lon="-118.3935715">
  <ele>-3.42</ele>
  <time>2026-09-01T01:14:49Z</time>
  <course>82.66</course>
  <speed>0.0</speed>
  <fix>3d</fix>
</trkpt>
<trkpt lat="33.8106148" lon="-118.3935713">
  <ele>-3.9</ele>
  <time>2026-09-01T01:14:49Z</time>
  <course>153.68</course>
  <speed>0.03</speed>
  <fix>3d</fix>
</trkpt>
<trkpt lat="33.8106149" lon="-118.3935715">
  <ele>-3.42</ele>
  <time>2026-09-01T01:14:49Z</time>
  <course>82.66</course>
  <speed>0.0</speed>
  <fix>3d</fix>
</trkpt>
<trkpt lat="33.8106148" lon="-118.3935712">
  <ele>-3.9</ele>
  <time>2026-09-01T01:14:49Z</time>
  <course>153.7</course>
  <speed>0.03</speed>
  <fix>3d</fix>
</trkpt>
<trkpt lat="33.8106149" lon="-118.3935715">
  <ele>-3.42</ele>
  <time>2026-09-01T01:14:49Z</time>
  <course>83.15</course>
  <speed>0.0</speed>
  <fix>3d</fix>
</trkpt>
<trkpt lat="33.8106148" lon="-118.3935712">
  <ele>-3.899</ele>
  <time>2026-09-01T01:14:49Z</time>
  <course>153.72</course>
  <speed>0.03</speed>
  <fix>3d</fix>
</trkpt>
<trkpt lat="33.8106149" lon="-118.3935715">
  <ele>-3.42</ele>
  <time>2026-09-01T01:14:49Z</time>
  <course>83.15</course>
  <speed>0.0</speed>
  <fix>3d</fix>
</trkpt>
<trkpt lat="33.8106148" lon="-118.3935712">
  <ele>-3.899</ele>
  <time>2026-09-01T01:14:49Z</time>
  <course>153.74</course>
  <speed>0.0316227766016838</speed>
  <fix>3d</fix>
</trkpt>
<trkpt lat="33.8106149" lon="-118.3935715">
  <ele>-3.42</ele>
  <time>2026-09-01T01:14:49Z</time>
  <course>83.58</course>
  <speed>0.0</speed>
  <fix>3d</fix>
</trkpt>
<trkpt lat="33.8106148" lon="-118.3935712">
  <ele>-3.898</ele>
  <time>2026-09-01T01:14:49Z</time>
  <course>153.76</course>
  <speed>0.0316227766016838</speed>
  <fix>3d</fix>
</trkpt>
<trkpt lat="33.8106149" lon="-118.3935715">
  <ele>-3.42</ele>
  <time>2026-09-01T01:14:49Z</time>
  <course>83.58</course>
  <speed>0.0</speed>
  <fix>3d</fix>
</trkpt>
<trkpt lat="33.8106148" lon="-118.3935712">
  <ele>-3.897</ele>
  <time>2026-09-01T01:14:49Z</time>
  <course>153.78</course>
  <speed>0.0316227766016838</speed>
  <fix>3d</fix>
</trkpt>
<trkpt lat="33.8106149" lon="-118.3935715">
  <ele>-3.41</ele>
  <time>2026-09-01T01:14:49Z</time>
  <course>84.0</course>
  <speed>0.0</speed>
  <fix>3d</fix>
</trkpt>
<trkpt lat="33.8106148" lon="-118.3935712">
  <ele>-3.896</ele>
  <time>2026-09-01T01:14:49Z</time>
  <course>153.8</course>
  <speed>0.0316227766016838</speed>
  <fix>3d</fix>
</trkpt>
<trkpt lat="33.8106149" lon="-118.3935715">
  <ele>-3.41</ele>
  <time>2026-09-01T01:14:49Z</time>
  <course>84.0</course>
  <speed>0.0</speed>
  <fix>3d</fix>
</trkpt>
<trkpt lat="33.8106148" lon="-118.3935712">
  <ele>-3.895</ele>
  <time>2026-09-01T01:14:49Z</time>
  <course>153.82</course>
  <speed>0.0316227766016838</speed>
  <fix>3d</fix>
</trkpt>
<trkpt lat="33.8106149" lon="-118.3935714">
  <ele>-3.41</ele>
  <time>2026-09-01T01:14:49Z</time>
  <course>84.46</course>
  <speed>0.0</speed>
  <fix>3d</fix>
</trkpt>
<trkpt lat="33.8106148" lon="-118.3935712">
  <ele>-3.895</ele>
  <time>2026-09-01T01:14:49Z</time>
  <course>153.85</course>
  <speed>0.0316227766016838</speed>
  <fix>3d</fix>
</trkpt>
<trkpt lat="33.8106149" lon="-118.3935714">
  <ele>-3.41</ele>
  <time>2026-09-01T01:14:49Z</time>
  <course>84.46</course>
  <speed>0.0</speed>
  <fix>3d</fix>
</trkpt>
<trkpt lat="33.8106148" lon="-118.3935712">
  <ele>-3.894</ele>
  <time>2026-09-01T01:14:49Z</time>
  <course>153.87</course>
  <speed>0.0316227766016838</speed>
  <fix>3d</fix>
</trkpt>
<trkpt lat="33.8106149" lon="-118.3935714">
  <ele>-3.41</ele>
  <time>2026-09-01T01:14:49Z</time>
  <course>85.0</course>
  <speed>0.0</speed>
  <fix>3d</fix>
</trkpt>
<trkpt lat="33.8106148" lon="-118.3935712">
  <ele>-3.894</ele>
  <time>2026-09-01T01:14:49Z</time>
  <course>153.89</course>
  <speed>0.0316227766016838</speed>
  <fix>3d</fix>
</trkpt>
<trkpt lat="33.8106149" lon="-118.3935714">
  <ele>-3.41</ele>
  <time>2026-09-01T01:14:49Z</time>
  <course>85.0</course>
  <speed>0.0</speed>
  <fix>3d</fix>
</trkpt>
<trkpt lat="33.8106148" lon="-118.3935712">
  <ele>-3.894</ele>
  <time>2026-09-01T01:14:49Z</time>
  <course>153.91</course>
  <speed>0.0316227766016838</speed>
  <fix>3d</fix>
</trkpt>
<trkpt lat="33.8106149" lon="-118.3935714">
  <ele>-3.41</ele>
  <time>2026-09-01T01:14:49Z</time>
  <course>85.61</course>
  <speed>0.0</speed>
  <fix>3d</fix>
</trkpt>
<trkpt lat="33.8106148" lon="-118.3935712">
  <ele>-3.895</ele>
  <time>2026-09-01T01:14:49Z</time>
  <course>153.92</course>
  <speed>0.0316227766016838</speed>
  <fix>3d</fix>
</trkpt>
<trkpt lat="33.8106149" lon="-118.3935714">
  <ele>-3.41</ele>
  <time>2026-09-01T01:14:49Z</time>
  <course>85.61</course>
  <speed>0.0</speed>
  <fix>3d</fix>
</trkpt>
<trkpt lat="33.8106148" lon="-118.3935712">
  <ele>-3.896</ele>
  <time>2026-09-01T01:14:49Z</time>
  <course>153.94</course>
  <speed>0.0316227766016838</speed>
  <fix>3d</fix>
</trkpt>
<trkpt lat="33.8106149" lon="-118.3935714">
  <ele>-3.42</ele>
  <time>2026-09-01T01:14:49Z</time>
  <course>86.26</course>
  <speed>0.0</speed>
  <fix>3d</fix>
</trkpt>
<trkpt lat="33.8106148" lon="-118.3935712">
  <ele>-3.897</ele>
  <time>2026-09-01T01:14:49Z</time>
  <course>153.96</course>
  <speed>0.0316227766016838</speed>
  <fix>3d</fix>
</trkpt>
<trkpt lat="33.8106149" lon="-118.3935714">
  <ele>-3.42</ele>
  <time>2026-09-01T01:14:49Z</time>
  <course>86.26</course>
  <speed>0.0</speed>
  <fix>3d</fix>
</trkpt>
<trkpt lat="33.8106148" lon="-118.3935712">
  <ele>-3.898</ele>
  <time>2026-09-01T01:14:49Z</time>
  <course>153.98</course>
  <speed>0.0316227766016838</speed>
  <fix>3d</fix>
</trkpt>
<trkpt lat="33.8106149" lon="-118.3935714">
  <ele>-3.42</ele>
  <time>2026-09-01T01:14:49Z</time>
  <course>86.82</course>
  <speed>0.0</speed>
  <fix>3d</fix>
</trkpt>
<trkpt lat="33.8106148" lon="-118.3935712">
  <ele>-3.898</ele>
  <time>2026-09-01T01:14:49Z</time>
  <course>154.0</course>
  <speed>0.0316227766016838</speed>
  <fix>3d</fix>
</trkpt>
<trkpt lat="33.8106149" lon="-118.3935714">
  <ele>-3.42</ele>
  <time>2026-09-01T01:14:49Z</time>
  <course>86.82</course>
  <speed>0.0</speed>
  <fix>3d</fix>
</trkpt>
<trkpt lat="33.8106148" lon="-118.3935712">
  <ele>-3.899</ele>
  <time>2026-09-01T01:14:49Z</time>
  <course>154.02</course>
  <speed>0.0316227766016838</speed>
  <fix>3d</fix>
</trkpt>
<trkpt lat="33.8106149" lon="-118.3935714">
  <ele>-3.42</ele>
  <time>2026-09-01T01:14:49Z</time>
  <course>87.22</course>
  <speed>0.0</speed>
  <fix>3d</fix>
</trkpt>
<trkpt lat="33.8106148" lon="-118.3935712">
  <ele>-3.9</ele>
  <time>2026-09-01T01:14:49Z</time>
  <course>154.04</course>
  <speed>0.0316227766016838</speed>
  <fix>3d</fix>
</trkpt>
<trkpt lat="33.8106149" lon="-118.3935714">
  <ele>-3.42</ele>
  <time>2026-09-01T01:14:49Z</time>
  <course>87.22</course>
  <speed>0.0</speed>
  <fix>3d</fix>
</trkpt>
<trkpt lat="33.8106148" lon="-118.3935712">
  <ele>-3.901</ele>
  <time>2026-09-01T01:14:49Z</time>
  <course>154.06</course>
  <speed>0.0316227766016838</speed>
  <fix>3d</fix>
</trkpt>
<trkpt lat="33.8106149" lon="-118.3935714">
  <ele>-3.42</ele>
  <time>2026-09-01T01:14:49Z</time>
  <course>87.62</course>
  <speed>0.0</speed>
  <fix>3d</fix>
</trkpt>
<trkpt lat="33.8106148" lon="-118.3935711">
  <ele>-3.902</ele>
  <time>2026-09-01T01:14:49Z</time>
  <course>154.08</course>
  <speed>0.0316227766016838</speed>
  <fix>3d</fix>
</trkpt>
<trkpt lat="33.8106149" lon="-118.3935714">
  <ele>-3.42</ele>
  <time>2026-09-01T01:14:49Z</time>
  <course>87.62</course>
  <speed>0.0</speed>
  <fix>3d</fix>
</trkpt>
<trkpt lat="33.8106148" lon="-118.3935711">
  <ele>-3.902</ele>
  <time>2026-09-01T01:14:49Z</time>
  <course>154.09</course>
  <speed>0.0316227766016838</speed>
  <fix>3d</fix>
</trkpt>
<trkpt lat="33.8106149" lon="-118.3935714">
  <ele>-3.42</ele>
  <time>2026-09-01T01:14:49Z</time>
  <course>88.18</course>
  <speed>0.0</speed>
  <fix>3d</fix>
</trkpt>
<trkpt lat="33.8106148" lon="-118.3935711">
  <ele>-3.901</ele>
  <time>2026-09-01T01:14:49Z</time>
  <course>154.11</course>
  <speed>0.0316227766016838</speed>
  <fix>3d</fix>
</trkpt>
<trkpt lat="33.8106149" lon="-118.3935714">
  <ele>-3.42</ele>
  <time>2026-09-01T01:14:49Z</time>
  <course>88.18</course>
  <speed>0.0</speed>
  <fix>3d</fix>
</trkpt>
<trkpt lat="33.8106148" lon="-118.3935711">
  <ele>-3.9</ele>
  <time>2026-09-01T01:14:49Z</time>
  <course>154.13</course>
  <speed>0.0316227766016838</speed>
  <fix>3d</fix>
</trkpt>
<trkpt lat="33.8106149" lon="-118.3935714">
  <ele>-3.41</ele>
  <time>2026-09-01T01:14:49Z</time>
  <course>88.94</course>
  <speed>0.0</speed>
  <fix>3d</fix>
</trkpt>
<trkpt lat="33.8106148" lon="-118.3935711">
  <ele>-3.898</ele>
  <time>2026-09-01T01:14:49Z</time>
  <course>154.15</course>
  <speed>0.0316227766016838</speed>
  <fix>3d</fix>
</trkpt>
<trkpt lat="33.8106149" lon="-118.3935714">
  <ele>-3.41</ele>
  <time>2026-09-01T01:14:49Z</time>
  <course>88.94</course>
  <speed>0.0</speed>
  <fix>3d</fix>
</trkpt>
<trkpt lat="33.8106148" lon="-118.3935711">
  <ele>-3.897</ele>
  <time>2026-09-01T01:14:49Z</time>
  <course>154.16</course>
  <speed>0.0316227766016838</speed>
  <fix>3d</fix>
</trkpt>
<trkpt lat="33.8106149" lon="-118.3935714">
  <ele>-3.41</ele>
  <time>2026-09-01T01:14:49Z</time>
  <course>89.85</course>
  <speed>0.0</speed>
  <fix>3d</fix>
</trkpt>
<trkpt lat="33.8106148" lon="-118.3935711">
  <ele>-3.896</ele>
  <time>2026-09-01T01:14:49Z</time>
  <course>154.18</course>
  <speed>0.0316227766016838</speed>
  <fix>3d</fix>
</trkpt>
<trkpt lat="33.8106149" lon="-118.3935714">
  <ele>-3.41</ele>
  <time>2026-09-01T01:14:49Z</time>
  <course>89.85</course>
  <speed>0.0</speed>
  <fix>3d</fix>
</trkpt>
<trkpt lat="33.8106148" lon="-118.3935711">
  <ele>-3.896</ele>
  <time>2026-09-01T01:14:49Z</time>
  <course>154.2</course>
  <speed>0.0316227766016838</speed>
  <fix>3d</fix>
</trkpt>
<trkpt lat="33.8106149" lon="-118.3935714">
  <ele>-3.41</ele>
  <time>2026-09-01T01:14:49Z</time>
  <course>90.64</course>
  <speed>0.0</speed>
  <fix>3d</fix>
</trkpt>
<trkpt lat="33.8106148" lon="-118.3935711">
  <ele>-3.896</ele>
  <time>2026-09-01T01:14:49Z</time>
  <course>154.22</course>
  <speed>0.0316227766016838</speed>
  <fix>3d</fix>
</trkpt>
<trkpt lat="33.8106149" lon="-118.3935714">
  <ele>-3.41</ele>
  <time>2026-09-01T01:14:49Z</time>
  <course>90.64</course>
  <speed>0.0</speed>
  <fix>3d</fix>
</trkpt>
<trkpt lat="33.8106148" lon="-118.3935711">
  <ele>-3.895</ele>
  <time>2026-09-01T01:14:49Z</time>
  <course>154.23</course>
  <speed>0.0316227766016838</speed>
  <fix>3d</fix>
</trkpt>
<trkpt lat="33.8106149" lon="-118.3935713">
  <ele>-3.4</ele>
  <time>2026-09-01T01:14:49Z</time>
  <course>91.26</course>
  <speed>0.0</speed>
  <fix>3d</fix>
</trkpt>
<trkpt lat="33.8106148" lon="-118.3935711">
  <ele>-3.89</ele>
  <time>2026-09-01T01:14:49Z</time>
  <course>154.25</course>
  <speed>0.0316227766016838</speed>
  <fix>3d</fix>
</trkpt>
<trkpt lat="33.8106149" lon="-118.3935713">
  <ele>-3.4</ele>
  <time>2026-09-01T01:14:49Z</time>
  <course>91.26</course>
  <speed>0.0</speed>
  <fix>3d</fix>
</trkpt>
<trkpt lat="33.8106148" lon="-118.3935711">
  <ele>-3.88</ele>
  <time>2026-09-01T01:14:49Z</time>
  <course>154.27</course>
  <speed>0.0316227766016838</speed>
  <fix>3d</fix>
</trkpt>
<trkpt lat="33.8106149" lon="-118.3935713">
  <ele>-3.4</ele>
  <time>2026-09-01T01:14:49Z</time>
  <course>91.74</course>
  <speed>0.0</speed>
  <fix>3d</fix>
</trkpt>
<trkpt lat="33.8106148" lon="-118.3935711">
  <ele>-3.877</ele>
  <time>2026-09-01T01:14:49Z</time>
  <course>154.28</course>
  <speed>0.0316227766016838</speed>
  <fix>3d</fix>
</trkpt>
<trkpt lat="33.8106149" lon="-118.3935713">
  <ele>-3.4</ele>
  <time>2026-09-01T01:14:49Z</time>
  <course>91.74</course>
  <speed>0.0</speed>
  <fix>3d</fix>
</trkpt>
<trkpt lat="33.8106148" lon="-118.3935711">
  <ele>-3.893</ele>
  <time>2026-09-01T01:14:49Z</time>
  <course>154.3</course>
  <speed>0.03</speed>
  <fix>3d</fix>
</trkpt>
<trkpt lat="33.8106149" lon="-118.3935713">
  <ele>-3.39</ele>
  <time>2026-09-01T01:14:49Z</time>
  <course>91.2</course>
  <speed>0.0</speed>
  <fix>3d</fix>
</trkpt>
<trkpt lat="33.8106148" lon="-118.3935711">
  <ele>-3.928</ele>
  <time>2026-09-01T01:14:49Z</time>
  <course>154.32</course>
  <speed>0.03</speed>
  <fix>3d</fix>
</trkpt>
<trkpt lat="33.8106149" lon="-118.3935713">
  <ele>-3.39</ele>
  <time>2026-09-01T01:14:49Z</time>
  <course>91.2</course>
  <speed>0.0</speed>
  <fix>3d</fix>
</trkpt>
<trkpt lat="33.8106148" lon="-118.3935711">
  <ele>-3.929</ele>
  <time>2026-09-01T01:14:49Z</time>
  <course>154.32</course>
  <speed>0.03</speed>
  <fix>3d</fix>
</trkpt>
<trkpt lat="33.8106148" lon="-118.3935711">
  <ele>-3.975</ele>
  <time>2026-09-01T01:14:49Z</time>
  <course>154.33</course>
  <speed>0.03</speed>
  <fix>3d</fix>
</trkpt>
<trkpt lat="33.8106149" lon="-118.3935713">
  <ele>-3.42</ele>
  <time>2026-09-01T01:14:49Z</time>
  <course>89.15</course>
  <speed>0.0</speed>
  <fix>3d</fix>
</trkpt>
<trkpt lat="33.8106148" lon="-118.3935711">
  <ele>-3.976</ele>
  <time>2026-09-01T01:14:49Z</time>
  <course>154.33</course>
  <speed>0.03</speed>
  <fix>3d</fix>
</trkpt>
<trkpt lat="33.8106148" lon="-118.3935711">
  <ele>-4.029</ele>
  <time>2026-09-01T01:14:49Z</time>
  <course>154.35</course>
  <speed>0.03</speed>
  <fix>3d</fix>
</trkpt>
<trkpt lat="33.8106149" lon="-118.3935713">
  <ele>-3.42</ele>
  <time>2026-09-01T01:14:49Z</time>
  <course>89.15</course>
  <speed>0.0</speed>
  <fix>3d</fix>
</trkpt>
<trkpt lat="33.8106148" lon="-118.3935711">
  <ele>-4.042</ele>
  <time>2026-09-01T01:14:49Z</time>
  <course>154.35</course>
  <speed>0.03</speed>
  <fix>3d</fix>
</trkpt>
<trkpt lat="33.8106148" lon="-118.3935711">
  <ele>-4.089</ele>
  <time>2026-09-01T01:14:49Z</time>
  <course>154.36</course>
  <speed>0.03</speed>
  <fix>3d</fix>
</trkpt>
<trkpt lat="33.8106149" lon="-118.3935713">
  <ele>-3.51</ele>
  <time>2026-09-01T01:14:49Z</time>
  <course>87.08</course>
  <speed>0.0</speed>
  <fix>3d</fix>
</trkpt>
<trkpt lat="33.8106148" lon="-118.3935711">
  <ele>-4.104</ele>
  <time>2026-09-01T01:14:49Z</time>
  <course>154.37</course>
  <speed>0.03</speed>
  <fix>3d</fix>
</trkpt>
<trkpt lat="33.8106148" lon="-118.3935711">
  <ele>-4.152</ele>
  <time>2026-09-01T01:14:49Z</time>
  <course>154.38</course>
  <speed>0.03</speed>
  <fix>3d</fix>
</trkpt>
<trkpt lat="33.8106149" lon="-118.3935713">
  <ele>-3.51</ele>
  <time>2026-09-01T01:14:49Z</time>
  <course>87.08</course>
  <speed>0.0</speed>
  <fix>3d</fix>
</trkpt>
<trkpt lat="33.8106148" lon="-118.3935711">
  <ele>-4.168</ele>
  <time>2026-09-01T01:14:49Z</time>
  <course>154.38</course>
  <speed>0.03</speed>
  <fix>3d</fix>
</trkpt>
<trkpt lat="33.8106148" lon="-118.3935711">
  <ele>-4.219</ele>
  <time>2026-09-01T01:14:49Z</time>
  <course>154.39</course>
  <speed>0.03</speed>
  <fix>3d</fix>
</trkpt>
<trkpt lat="33.8106149" lon="-118.3935713">
  <ele>-3.62</ele>
  <time>2026-09-01T01:14:49Z</time>
  <course>85.8</course>
  <speed>0.0</speed>
  <fix>3d</fix>
</trkpt>
<trkpt lat="33.8106148" lon="-118.3935711">
  <ele>-4.234</ele>
  <time>2026-09-01T01:14:49Z</time>
  <course>154.4</course>
  <speed>0.03</speed>
  <fix>3d</fix>
</trkpt>
<trkpt lat="33.8106148" lon="-118.3935711">
  <ele>-4.288</ele>
  <time>2026-09-01T01:14:49Z</time>
  <course>154.41</course>
  <speed>0.03</speed>
  <fix>3d</fix>
</trkpt>
<trkpt lat="33.8106149" lon="-118.3935713">
  <ele>-3.62</ele>
  <time>2026-09-01T01:14:49Z</time>
  <course>85.8</course>
  <speed>0.0</speed>
  <fix>3d</fix>
</trkpt>
<trkpt lat="33.8106148" lon="-118.3935711">
  <ele>-4.306</ele>
  <time>2026-09-01T01:14:49Z</time>
  <course>154.41</course>
  <speed>0.03</speed>
  <fix>3d</fix>
</trkpt>
<trkpt lat="33.8106148" lon="-118.3935711">
  <ele>-4.357</ele>
  <time>2026-09-01T01:14:49Z</time>
  <course>154.43</course>
  <speed>0.03</speed>
  <fix>3d</fix>
</trkpt>
<trkpt lat="33.8106149" lon="-118.3935713">
  <ele>-3.74</ele>
  <time>2026-09-01T01:14:49Z</time>
  <course>85.05</course>
  <speed>0.0</speed>
  <fix>3d</fix>
</trkpt>
<trkpt lat="33.8106148" lon="-118.3935711">
  <ele>-4.372</ele>
  <time>2026-09-01T01:14:49Z</time>
  <course>154.43</course>
  <speed>0.03</speed>
  <fix>3d</fix>
</trkpt>
<trkpt lat="33.8106148" lon="-118.3935711">
  <ele>-4.426</ele>
  <time>2026-09-01T01:14:49Z</time>
  <course>154.44</course>
  <speed>0.03</speed>
  <fix>3d</fix>
</trkpt>
<trkpt lat="33.8106149" lon="-118.3935713">
  <ele>-3.74</ele>
  <time>2026-09-01T01:14:49Z</time>
  <course>85.05</course>
  <speed>0.0</speed>
  <fix>3d</fix>
</trkpt>
<trkpt lat="33.8106148" lon="-118.3935711">
  <ele>-4.442</ele>
  <time>2026-09-01T01:14:49Z</time>
  <course>154.44</course>
  <speed>0.03</speed>
  <fix>3d</fix>
</trkpt>
<trkpt lat="33.8106148" lon="-118.3935711">
  <ele>-4.497</ele>
  <time>2026-09-01T01:14:49Z</time>
  <course>154.46</course>
  <speed>0.03</speed>
  <fix>3d</fix>
</trkpt>
<trkpt lat="33.8106149" lon="-118.3935713">
  <ele>-3.87</ele>
  <time>2026-09-01T01:14:49Z</time>
  <course>84.62</course>
  <speed>0.0</speed>
  <fix>3d</fix>
</trkpt>
<trkpt lat="33.8106148" lon="-118.3935711">
  <ele>-4.513</ele>
  <time>2026-09-01T01:14:49Z</time>
  <course>154.46</course>
  <speed>0.03</speed>
  <fix>3d</fix>
</trkpt>
<trkpt lat="33.8106148" lon="-118.393571">
  <ele>-4.568</ele>
  <time>2026-09-01T01:14:49Z</time>
  <course>154.47</course>
  <speed>0.03</speed>
  <fix>3d</fix>
</trkpt>
<trkpt lat="33.8106149" lon="-118.3935713">
  <ele>-3.87</ele>
  <time>2026-09-01T01:14:49Z</time>
  <course>84.62</course>
  <speed>0.0</speed>
  <fix>3d</fix>
</trkpt>
<trkpt lat="33.8106148" lon="-118.393571">
  <ele>-4.584</ele>
  <time>2026-09-01T01:14:49Z</time>
  <course>154.47</course>
  <speed>0.03</speed>
  <fix>3d</fix>
</trkpt>
<trkpt lat="33.8106148" lon="-118.393571">
  <ele>-4.639</ele>
  <time>2026-09-01T01:14:49Z</time>
  <course>154.49</course>
  <speed>0.03</speed>
  <fix>3d</fix>
</trkpt>
<trkpt lat="33.8106149" lon="-118.3935713">
  <ele>-4.0</ele>
  <time>2026-09-01T01:14:49Z</time>
  <course>84.35</course>
  <speed>0.0</speed>
  <fix>3d</fix>
</trkpt>
<trkpt lat="33.8106148" lon="-118.393571">
  <ele>-4.654</ele>
  <time>2026-09-01T01:14:49Z</time>
  <course>154.49</course>
  <speed>0.03</speed>
  <fix>3d</fix>
</trkpt>
<trkpt lat="33.8106148" lon="-118.393571">
  <ele>-4.707</ele>
  <time>2026-09-01T01:14:49Z</time>
  <course>154.5</course>
  <speed>0.03</speed>
  <fix>3d</fix>
</trkpt>
<trkpt lat="33.8106149" lon="-118.3935713">
  <ele>-4.0</ele>
  <time>2026-09-01T01:14:49Z</time>
  <course>84.35</course>
  <speed>0.0</speed>
  <fix>3d</fix>
</trkpt>
<trkpt lat="33.8106148" lon="-118.393571">
  <ele>-4.709</ele>
  <time>2026-09-01T01:14:49Z</time>
  <course>154.5</course>
  <speed>0.03</speed>
  <fix>3d</fix>
</trkpt>
<trkpt lat="33.8106148" lon="-118.393571">
  <ele>-4.774</ele>
  <time>2026-09-01T01:14:49Z</time>
  <course>154.51</course>
  <speed>0.03</speed>
  <fix>3d</fix>
</trkpt>
<trkpt lat="33.8106149" lon="-118.3935713">
  <ele>-4.13</ele>
  <time>2026-09-01T01:14:49Z</time>
  <course>84.06</course>
  <speed>0.0</speed>
  <fix>3d</fix>
</trkpt>
<trkpt lat="33.8106148" lon="-118.393571">
  <ele>-4.789</ele>
  <time>2026-09-01T01:14:49Z</time>
  <course>154.52</course>
  <speed>0.03</speed>
  <fix>3d</fix>
</trkpt>
<trkpt lat="33.8106148" lon="-118.393571">
  <ele>-4.84</ele>
  <time>2026-09-01T01:14:49Z</time>
  <course>154.53</course>
  <speed>0.03</speed>
  <fix>3d</fix>
</trkpt>
<trkpt lat="33.8106149" lon="-118.3935713">
  <ele>-4.13</ele>
  <time>2026-09-01T01:14:49Z</time>
  <course>84.06</course>
  <speed>0.0</speed>
  <fix>3d</fix>
</trkpt>
<trkpt lat="33.8106148" lon="-118.393571">
  <ele>-4.855</ele>
  <time>2026-09-01T01:14:49Z</time>
  <course>154.53</course>
  <speed>0.03</speed>
  <fix>3d</fix>
</trkpt>
<trkpt lat="33.8106148" lon="-118.393571">
  <ele>-4.905</ele>
  <time>2026-09-01T01:14:49Z</time>
  <course>154.54</course>
  <speed>0.03</speed>
  <fix>3d</fix>
</trkpt>
<trkpt lat="33.8106149" lon="-118.3935712">
  <ele>-4.26</ele>
  <time>2026-09-01T01:14:49Z</time>
  <course>83.68</course>
  <speed>0.0</speed>
  <fix>3d</fix>
</trkpt>
<trkpt lat="33.8106148" lon="-118.393571">
  <ele>-4.915</ele>
  <time>2026-09-01T01:14:49Z</time>
  <course>154.55</course>
  <speed>0.03</speed>
  <fix>3d</fix>
</trkpt>
<trkpt lat="33.8106148" lon="-118.393571">
  <ele>-4.972</ele>
  <time>2026-09-01T01:14:49Z</time>
  <course>154.56</course>
  <speed>0.03</speed>
  <fix>3d</fix>
</trkpt>
<trkpt lat="33.8106149" lon="-118.3935712">
  <ele>-4.26</ele>
  <time>2026-09-01T01:14:49Z</time>
  <course>83.68</course>
  <speed>0.0</speed>
  <fix>3d</fix>
</trkpt>
<trkpt lat="33.8106148" lon="-118.393571">
  <ele>-4.991</ele>
  <time>2026-09-01T01:14:49Z</time>
  <course>154.56</course>
  <speed>0.03</speed>
  <fix>3d</fix>
</trkpt>
<trkpt lat="33.8106148" lon="-118.393571">
  <ele>-5.038</ele>
  <time>2026-09-01T01:14:49Z</time>
  <course>154.57</course>
  <speed>0.03</speed>
  <fix>3d</fix>
</trkpt>
<trkpt lat="33.8106149" lon="-118.3935712">
  <ele>-4.38</ele>
  <time>2026-09-01T01:14:49Z</time>
  <course>83.18</course>
  <speed>0.0</speed>
  <fix>3d</fix>
</trkpt>
<trkpt lat="33.8106148" lon="-118.393571">
  <ele>-5.064</ele>
  <time>2026-09-01T01:14:49Z</time>
  <course>154.58</course>
  <speed>0.03</speed>
  <fix>3d</fix>
</trkpt>
<trkpt lat="33.8106148" lon="-118.393571">
  <ele>-5.104</ele>
  <time>2026-09-01T01:14:49Z</time>
  <course>154.59</course>
  <speed>0.03</speed>
  <fix>3d</fix>
</trkpt>
<trkpt lat="33.8106149" lon="-118.3935712">
  <ele>-4.38</ele>
  <time>2026-09-01T01:14:49Z</time>
  <course>83.18</course>
  <speed>0.0</speed>
  <fix>3d</fix>
</trkpt>
<trkpt lat="33.8106148" lon="-118.393571">
  <ele>-5.125</ele>
  <time>2026-09-01T01:14:49Z</time>
  <course>154.59</course>
  <speed>0.03</speed>
  <fix>3d</fix>
</trkpt>
<trkpt lat="33.8106148" lon="-118.393571">
  <ele>-5.172</ele>
  <time>2026-09-01T01:14:49Z</time>
  <course>154.6</course>
  <speed>0.03</speed>
  <fix>3d</fix>
</trkpt>
<trkpt lat="33.8106149" lon="-118.3935712">
  <ele>-4.51</ele>
  <time>2026-09-01T01:14:49Z</time>
  <course>82.69</course>
  <speed>0.0</speed>
  <fix>3d</fix>
</trkpt>
<trkpt lat="33.8106148" lon="-118.393571">
  <ele>-5.192</ele>
  <time>2026-09-01T01:14:49Z</time>
  <course>154.6</course>
  <speed>0.03</speed>
  <fix>3d</fix>
</trkpt>
<trkpt lat="33.8106148" lon="-118.393571">
  <ele>-5.24</ele>
  <time>2026-09-01T01:14:49Z</time>
  <course>154.61</course>
  <speed>0.03</speed>
  <fix>3d</fix>
</trkpt>
<trkpt lat="33.8106149" lon="-118.3935712">
  <ele>-4.51</ele>
  <time>2026-09-01T01:14:49Z</time>
  <course>82.69</course>
  <speed>0.0</speed>
  <fix>3d</fix>
</trkpt>
<trkpt lat="33.8106148" lon="-118.393571">
  <ele>-5.26</ele>
  <time>2026-09-01T01:14:49Z</time>
  <course>154.62</course>
  <speed>0.03</speed>
  <fix>3d</fix>
</trkpt>
<trkpt lat="33.8106148" lon="-118.393571">
  <ele>-5.308</ele>
  <time>2026-09-01T01:14:49Z</time>
  <course>154.63</course>
  <speed>0.03</speed>
  <fix>3d</fix>
</trkpt>
<trkpt lat="33.8106149" lon="-118.3935712">
  <ele>-4.63</ele>
  <time>2026-09-01T01:14:49Z</time>
  <course>82.35</course>
  <speed>0.0</speed>
  <fix>3d</fix>
</trkpt>
<trkpt lat="33.8106148" lon="-118.393571">
  <ele>-5.328</ele>
  <time>2026-09-01T01:14:49Z</time>
  <course>154.63</course>
  <speed>0.03</speed>
  <fix>3d</fix>
</trkpt>
<trkpt lat="33.8106148" lon="-118.393571">
  <ele>-5.376</ele>
  <time>2026-09-01T01:14:49Z</time>
  <course>154.64</course>
  <speed>0.03</speed>
  <fix>3d</fix>
</trkpt>
<trkpt lat="33.8106149" lon="-118.3935712">
  <ele>-4.63</ele>
  <time>2026-09-01T01:14:49Z</time>
  <course>82.35</course>
  <speed>0.0</speed>
  <fix>3d</fix>
</trkpt>
<trkpt lat="33.8106148" lon="-118.393571">
  <ele>-5.399</ele>
  <time>2026-09-01T01:14:49Z</time>
  <course>154.65</course>
  <speed>0.03</speed>
  <fix>3d</fix>
</trkpt>
<trkpt lat="33.8106148" lon="-118.393571">
  <ele>-5.445</ele>
  <time>2026-09-01T01:14:49Z</time>
  <course>154.66</course>
  <speed>0.03</speed>
  <fix>3d</fix>
</trkpt>
<trkpt lat="33.8106149" lon="-118.3935712">
  <ele>-4.76</ele>
  <time>2026-09-01T01:14:49Z</time>
  <course>82.16</course>
  <speed>0.0</speed>
  <fix>3d</fix>
</trkpt>
<trkpt lat="33.8106148" lon="-118.393571">
  <ele>-5.447</ele>
  <time>2026-09-01T01:14:49Z</time>
  <course>154.66</course>
  <speed>0.03</speed>
  <fix>3d</fix>
</trkpt>
<trkpt lat="33.8106148" lon="-118.393571">
  <ele>-5.513</ele>
  <time>2026-09-01T01:14:49Z</time>
  <course>154.67</course>
  <speed>0.03</speed>
  <fix>3d</fix>
</trkpt>
<trkpt lat="33.8106149" lon="-118.3935712">
  <ele>-4.76</ele>
  <time>2026-09-01T01:14:49Z</time>
  <course>82.16</course>
  <speed>0.0</speed>
  <fix>3d</fix>
</trkpt>
<trkpt lat="33.8106148" lon="-118.393571">
  <ele>-5.534</ele>
  <time>2026-09-01T01:14:49Z</time>
  <course>154.67</course>
  <speed>0.03</speed>
  <fix>3d</fix>
</trkpt>
<trkpt lat="33.8106148" lon="-118.393571">
  <ele>-5.58</ele>
  <time>2026-09-01T01:14:49Z</time>
  <course>154.68</course>
  <speed>0.03</speed>
  <fix>3d</fix>
</trkpt>
<trkpt lat="33.8106149" lon="-118.3935712">
  <ele>-4.89</ele>
  <time>2026-09-01T01:14:49Z</time>
  <course>82.0</course>
  <speed>0.0</speed>
  <fix>3d</fix>
</trkpt>
<trkpt lat="33.8106148" lon="-118.3935709">
  <ele>-5.645</ele>
  <time>2026-09-01T01:14:49Z</time>
  <course>154.7</course>
  <speed>0.03</speed>
  <fix>3d</fix>
</trkpt>
<trkpt lat="33.8106149" lon="-118.3935712">
  <ele>-4.89</ele>
  <time>2026-09-01T01:14:49Z</time>
  <course>82.0</course>
  <speed>0.0</speed>
  <fix>3d</fix>
</trkpt>
<trkpt lat="33.8106148" lon="-118.3935709">
  <ele>-5.7</ele>
  <time>2026-09-01T01:14:49Z</time>
  <course>154.71</course>
  <speed>0.03</speed>
  <fix>3d</fix>
</trkpt>
<trkpt lat="33.8106149" lon="-118.3935712">
  <ele>-5.02</ele>
  <time>2026-09-01T01:14:49Z</time>
  <course>81.91</course>
  <speed>0.0</speed>
  <fix>3d</fix>
</trkpt>
<trkpt lat="33.8106148" lon="-118.3935709">
  <ele>-5.741</ele>
  <time>2026-09-01T01:14:49Z</time>
  <course>154.72</course>
  <speed>0.03</speed>
  <fix>3d</fix>
</trkpt>
<trkpt lat="33.8106149" lon="-118.3935712">
  <ele>-5.02</ele>
  <time>2026-09-01T01:14:49Z</time>
  <course>81.91</course>
  <speed>0.0</speed>
  <fix>3d</fix>
</trkpt>
<trkpt lat="33.8106148" lon="-118.3935709">
  <ele>-5.77</ele>
  <time>2026-09-01T01:14:49Z</time>
  <course>154.74</course>
  <speed>0.03</speed>
  <fix>3d</fix>
</trkpt>
<trkpt lat="33.8106149" lon="-118.3935712">
  <ele>-5.13</ele>
  <time>2026-09-01T01:14:49Z</time>
  <course>82.18</course>
  <speed>0.0</speed>
  <fix>3d</fix>
</trkpt>
<trkpt lat="33.8106148" lon="-118.3935709">
  <ele>-5.788</ele>
  <time>2026-09-01T01:14:49Z</time>
  <course>154.75</course>
  <speed>0.03</speed>
  <fix>3d</fix>
</trkpt>
<trkpt lat="33.8106149" lon="-118.3935712">
  <ele>-5.13</ele>
  <time>2026-09-01T01:14:49Z</time>
  <course>82.18</course>
  <speed>0.0</speed>
  <fix>3d</fix>
</trkpt>
<trkpt lat="33.8106148" lon="-118.3935709">
  <ele>-5.798</ele>
  <time>2026-09-01T01:14:49Z</time>
  <course>154.76</course>
  <speed>0.03</speed>
  <fix>3d</fix>
</trkpt>
<trkpt lat="33.8106149" lon="-118.3935712">
  <ele>-5.19</ele>
  <time>2026-09-01T01:14:49Z</time>
  <course>82.57</course>
  <speed>0.0</speed>
  <fix>3d</fix>
</trkpt>
<trkpt lat="33.8106148" lon="-118.3935709">
  <ele>-5.804</ele>
  <time>2026-09-01T01:14:49Z</time>
  <course>154.78</course>
  <speed>0.03</speed>
  <fix>3d</fix>
</trkpt>
<trkpt lat="33.8106149" lon="-118.3935712">
  <ele>-5.19</ele>
  <time>2026-09-01T01:14:49Z</time>
  <course>82.57</course>
  <speed>0.0</speed>
  <fix>3d</fix>
</trkpt>
<trkpt lat="33.8106148" lon="-118.3935709">
  <ele>-5.806</ele>
  <time>2026-09-01T01:14:49Z</time>
  <course>154.79</course>
  <speed>0.03</speed>
  <fix>3d</fix>
</trkpt>
<trkpt lat="33.8106149" lon="-118.3935711">
  <ele>-5.22</ele>
  <time>2026-09-01T01:14:49Z</time>
  <course>82.69</course>
  <speed>0.0</speed>
  <fix>3d</fix>
</trkpt>
<trkpt lat="33.8106148" lon="-118.3935709">
  <ele>-5.806</ele>
  <time>2026-09-01T01:14:49Z</time>
  <course>154.8</course>
  <speed>0.03</speed>
  <fix>3d</fix>
</trkpt>
<trkpt lat="33.8106149" lon="-118.3935711">
  <ele>-5.22</ele>
  <time>2026-09-01T01:14:49Z</time>
  <course>82.69</course>
  <speed>0.0</speed>
  <fix>3d</fix>
</trkpt>
<trkpt lat="33.8106148" lon="-118.3935709">
  <ele>-5.806</ele>
  <time>2026-09-01T01:14:49Z</time>
  <course>154.81</course>
  <speed>0.03</speed>
  <fix>3d</fix>
</trkpt>
<trkpt lat="33.8106149" lon="-118.3935711">
  <ele>-5.23</ele>
  <time>2026-09-01T01:14:49Z</time>
  <course>82.7</course>
  <speed>0.0</speed>
  <fix>3d</fix>
</trkpt>
<trkpt lat="33.8106148" lon="-118.3935709">
  <ele>-5.805</ele>
  <time>2026-09-01T01:14:49Z</time>
  <course>154.83</course>
  <speed>0.03</speed>
  <fix>3d</fix>
</trkpt>
<trkpt lat="33.8106149" lon="-118.3935711">
  <ele>-5.23</ele>
  <time>2026-09-01T01:14:49Z</time>
  <course>82.7</course>
  <speed>0.0</speed>
  <fix>3d</fix>
</trkpt>
<trkpt lat="33.8106148" lon="-118.3935709">
  <ele>-5.805</ele>
  <time>2026-09-01T01:14:49Z</time>
  <course>154.84</course>
  <speed>0.03</speed>
  <fix>3d</fix>
</trkpt>
<trkpt lat="33.8106149" lon="-118.3935711">
  <ele>-5.24</ele>
  <time>2026-09-01T01:14:49Z</time>
  <course>82.64</course>
  <speed>0.0</speed>
  <fix>3d</fix>
</trkpt>
<trkpt lat="33.8106148" lon="-118.3935709">
  <ele>-5.805</ele>
  <time>2026-09-01T01:14:49Z</time>
  <course>154.85</course>
  <speed>0.03</speed>
  <fix>3d</fix>
</trkpt>
<trkpt lat="33.8106149" lon="-118.3935711">
  <ele>-5.24</ele>
  <time>2026-09-01T01:14:49Z</time>
  <course>82.64</course>
  <speed>0.0</speed>
  <fix>3d</fix>
</trkpt>
<trkpt lat="33.8106148" lon="-118.3935709">
  <ele>-5.807</ele>
  <time>2026-09-01T01:14:49Z</time>
  <course>154.86</course>
  <speed>0.03</speed>
  <fix>3d</fix>
</trkpt>
<trkpt lat="33.8106149" lon="-118.3935711">
  <ele>-5.25</ele>
  <time>2026-09-01T01:14:49Z</time>
  <course>82.45</course>
  <speed>0.0</speed>
  <fix>3d</fix>
</trkpt>
<trkpt lat="33.8106148" lon="-118.3935709">
  <ele>-5.809</ele>
  <time>2026-09-01T01:14:49Z</time>
  <course>154.88</course>
  <speed>0.03</speed>
  <fix>3d</fix>
</trkpt>
<trkpt lat="33.8106149" lon="-118.3935711">
  <ele>-5.25</ele>
  <time>2026-09-01T01:14:49Z</time>
  <course>82.45</course>
  <speed>0.0</speed>
  <fix>3d</fix>
</trkpt>
<trkpt lat="33.8106148" lon="-118.3935709">
  <ele>-5.81</ele>
  <time>2026-09-01T01:14:49Z</time>
  <course>154.89</course>
  <speed>0.03</speed>
  <fix>3d</fix>
</trkpt>
<trkpt lat="33.8106149" lon="-118.3935711">
  <ele>-5.26</ele>
  <time>2026-09-01T01:14:49Z</time>
  <course>82.17</course>
  <speed>0.0</speed>
  <fix>3d</fix>
</trkpt>
<trkpt lat="33.8106148" lon="-118.3935709">
  <ele>-5.811</ele>
  <time>2026-09-01T01:14:49Z</time>
  <course>154.9</course>
  <speed>0.03</speed>
  <fix>3d</fix>
</trkpt>
<trkpt lat="33.8106149" lon="-118.3935711">
  <ele>-5.26</ele>
  <time>2026-09-01T01:14:49Z</time>
  <course>82.17</course>
  <speed>0.0</speed>
  <fix>3d</fix>
</trkpt>
<trkpt lat="33.8106148" lon="-118.3935709">
  <ele>-5.812</ele>
  <time>2026-09-01T01:14:49Z</time>
  <course>154.91</course>
  <speed>0.03</speed>
  <fix>3d</fix>
</trkpt>
<trkpt lat="33.8106149" lon="-118.3935711">
  <ele>-5.27</ele>
  <time>2026-09-01T01:14:49Z</time>
  <course>81.87</course>
  <speed>0.0</speed>
  <fix>3d</fix>
</trkpt>
<trkpt lat="33.8106148" lon="-118.3935709">
  <ele>-5.813</ele>
  <time>2026-09-01T01:14:49Z</time>
  <course>154.93</course>
  <speed>0.03</speed>
  <fix>3d</fix>
</trkpt>
<trkpt lat="33.8106149" lon="-118.3935711">
  <ele>-5.27</ele>
  <time>2026-09-01T01:14:49Z</time>
  <course>81.87</course>
  <speed>0.0</speed>
  <fix>3d</fix>
</trkpt>
<trkpt lat="33.8106148" lon="-118.3935708">
  <ele>-5.815</ele>
  <time>2026-09-01T01:14:49Z</time>
  <course>154.94</course>
  <speed>0.03</speed>
  <fix>3d</fix>
</trkpt>
<trkpt lat="33.8106149" lon="-118.3935711">
  <ele>-5.28</ele>
  <time>2026-09-01T01:14:49Z</time>
  <course>81.64</course>
  <speed>0.0</speed>
  <fix>3d</fix>
</trkpt>
<trkpt lat="33.8106148" lon="-118.3935708">
  <ele>-5.816</ele>
  <time>2026-09-01T01:14:49Z</time>
  <course>154.95</course>
  <speed>0.03</speed>
  <fix>3d</fix>
</trkpt>
<trkpt lat="33.8106149" lon="-118.3935711">
  <ele>-5.28</ele>
  <time>2026-09-01T01:14:49Z</time>
  <course>81.64</course>
  <speed>0.0</speed>
  <fix>3d</fix>
</trkpt>
<trkpt lat="33.8106148" lon="-118.3935708">
  <ele>-5.817</ele>
  <time>2026-09-01T01:14:49Z</time>
  <course>154.96</course>
  <speed>0.03</speed>
  <fix>3d</fix>
</trkpt>
<trkpt lat="33.8106149" lon="-118.3935711">
  <ele>-5.28</ele>
  <time>2026-09-01T01:14:49Z</time>
  <course>81.56</course>
  <speed>0.0</speed>
  <fix>3d</fix>
</trkpt>
<trkpt lat="33.8106148" lon="-118.3935708">
  <ele>-5.819</ele>
  <time>2026-09-01T01:14:49Z</time>
  <course>154.97</course>
  <speed>0.03</speed>
  <fix>3d</fix>
</trkpt>
<trkpt lat="33.8106149" lon="-118.3935711">
  <ele>-5.28</ele>
  <time>2026-09-01T01:14:49Z</time>
  <course>81.56</course>
  <speed>0.0</speed>
  <fix>3d</fix>
</trkpt>
<trkpt lat="33.8106148" lon="-118.3935708">
  <ele>-5.82</ele>
  <time>2026-09-01T01:14:49Z</time>
  <course>154.99</course>
  <speed>0.03</speed>
  <fix>3d</fix>
</trkpt>
<trkpt lat="33.8106149" lon="-118.393571">
  <ele>-5.29</ele>
  <time>2026-09-01T01:14:49Z</time>
  <course>81.57</course>
  <speed>0.0</speed>
  <fix>3d</fix>
</trkpt>
<trkpt lat="33.8106148" lon="-118.3935708">
  <ele>-5.821</ele>
  <time>2026-09-01T01:14:49Z</time>
  <course>155.0</course>
  <speed>0.03</speed>
  <fix>3d</fix>
</trkpt>
<trkpt lat="33.8106149" lon="-118.393571">
  <ele>-5.29</ele>
  <time>2026-09-01T01:14:49Z</time>
  <course>81.57</course>
  <speed>0.0</speed>
  <fix>3d</fix>
</trkpt>
<trkpt lat="33.8106148" lon="-118.3935708">
  <ele>-5.821</ele>
  <time>2026-09-01T01:14:49Z</time>
  <course>155.01</course>
  <speed>0.03</speed>
  <fix>3d</fix>
</trkpt>
<trkpt lat="33.8106149" lon="-118.393571">
  <ele>-5.29</ele>
  <time>2026-09-01T01:14:49Z</time>
  <course>81.52</course>
  <speed>0.0</speed>
  <fix>3d</fix>
</trkpt>
<trkpt lat="33.8106148" lon="-118.3935708">
  <ele>-5.82</ele>
  <time>2026-09-01T01:14:49Z</time>
  <course>155.02</course>
  <speed>0.03</speed>
  <fix>3d</fix>
</trkpt>
<trkpt lat="33.8106149" lon="-118.393571">
  <ele>-5.29</ele>
  <time>2026-09-01T01:14:49Z</time>
  <course>81.52</course>
  <speed>0.0</speed>
  <fix>3d</fix>
</trkpt>
<trkpt lat="33.8106148" lon="-118.3935708">
  <ele>-5.818</ele>
  <time>2026-09-01T01:14:49Z</time>
  <course>155.03</course>
  <speed>0.03</speed>
  <fix>3d</fix>
</trkpt>
<trkpt lat="33.8106149" lon="-118.393571">
  <ele>-5.29</ele>
  <time>2026-09-01T01:14:49Z</time>
  <course>81.34</course>
  <speed>0.0</speed>
  <fix>3d</fix>
</trkpt>
<trkpt lat="33.8106148" lon="-118.3935708">
  <ele>-5.816</ele>
  <time>2026-09-01T01:14:49Z</time>
  <course>155.04</course>
  <speed>0.03</speed>
  <fix>3d</fix>
</trkpt>
<trkpt lat="33.8106149" lon="-118.393571">
  <ele>-5.29</ele>
  <time>2026-09-01T01:14:49Z</time>
  <course>81.34</course>
  <speed>0.0</speed>
  <fix>3d</fix>
</trkpt>
<trkpt lat="33.8106148" lon="-118.3935708">
  <ele>-5.816</ele>
  <time>2026-09-01T01:14:49Z</time>
  <course>155.06</course>
  <speed>0.03</speed>
  <fix>3d</fix>
</trkpt>
<trkpt lat="33.8106149" lon="-118.393571">
  <ele>-5.29</ele>
  <time>2026-09-01T01:14:49Z</time>
  <course>81.08</course>
  <speed>0.0</speed>
  <fix>3d</fix>
</trkpt>
<trkpt lat="33.8106148" lon="-118.3935708">
  <ele>-5.816</ele>
  <time>2026-09-01T01:14:49Z</time>
  <course>155.07</course>
  <speed>0.03</speed>
  <fix>3d</fix>
</trkpt>
<trkpt lat="33.8106149" lon="-118.393571">
  <ele>-5.29</ele>
  <time>2026-09-01T01:14:49Z</time>
  <course>81.08</course>
  <speed>0.0</speed>
  <fix>3d</fix>
</trkpt>
<trkpt lat="33.8106148" lon="-118.3935708">
  <ele>-5.816</ele>
  <time>2026-09-01T01:14:49Z</time>
  <course>155.08</course>
  <speed>0.03</speed>
  <fix>3d</fix>
</trkpt>
<trkpt lat="33.8106149" lon="-118.393571">
  <ele>-5.29</ele>
  <time>2026-09-01T01:14:49Z</time>
  <course>80.73</course>
  <speed>0.0</speed>
  <fix>3d</fix>
</trkpt>
<trkpt lat="33.8106148" lon="-118.3935708">
  <ele>-5.817</ele>
  <time>2026-09-01T01:14:49Z</time>
  <course>155.09</course>
  <speed>0.03</speed>
  <fix>3d</fix>
</trkpt>
<trkpt lat="33.8106149" lon="-118.393571">
  <ele>-5.29</ele>
  <time>2026-09-01T01:14:49Z</time>
  <course>80.73</course>
  <speed>0.0</speed>
  <fix>3d</fix>
</trkpt>
<trkpt lat="33.8106148" lon="-118.3935708">
  <ele>-5.818</ele>
  <time>2026-09-01T01:14:49Z</time>
  <course>155.1</course>
  <speed>0.03</speed>
  <fix>3d</fix>
</trkpt>
<trkpt lat="33.8106149" lon="-118.393571">
  <ele>-5.29</ele>
  <time>2026-09-01T01:14:49Z</time>
  <course>80.42</course>
  <speed>0.0</speed>
  <fix>3d</fix>
</trkpt>
<trkpt lat="33.8106148" lon="-118.3935708">
  <ele>-5.817</ele>
  <time>2026-09-01T01:14:49Z</time>
  <course>155.11</course>
  <speed>0.03</speed>
  <fix>3d</fix>
</trkpt>
<trkpt lat="33.8106149" lon="-118.393571">
  <ele>-5.29</ele>
  <time>2026-09-01T01:14:49Z</time>
  <course>80.42</course>
  <speed>0.0</speed>
  <fix>3d</fix>
</trkpt>
<trkpt lat="33.8106148" lon="-118.3935707">
  <ele>-5.816</ele>
  <time>2026-09-01T01:14:49Z</time>
  <course>155.12</course>
  <speed>0.03</speed>
  <fix>3d</fix>
</trkpt>
<trkpt lat="33.8106149" lon="-118.393571">
  <ele>-5.29</ele>
  <time>2026-09-01T01:14:49Z</time>
  <course>80.26</course>
  <speed>0.0</speed>
  <fix>3d</fix>
</trkpt>
<trkpt lat="33.8106148" lon="-118.3935707">
  <ele>-5.816</ele>
  <time>2026-09-01T01:14:49Z</time>
  <course>155.13</course>
  <speed>0.03</speed>
  <fix>3d</fix>
</trkpt>
<trkpt lat="33.8106149" lon="-118.393571">
  <ele>-5.29</ele>
  <time>2026-09-01T01:14:49Z</time>
  <course>80.26</course>
  <speed>0.0</speed>
  <fix>3d</fix>
</trkpt>
<trkpt lat="33.8106148" lon="-118.3935707">
  <ele>-5.815</ele>
  <time>2026-09-01T01:14:49Z</time>
  <course>155.15</course>
  <speed>0.03</speed>
  <fix>3d</fix>
</trkpt>
<trkpt lat="33.8106149" lon="-118.393571">
  <ele>-5.29</ele>
  <time>2026-09-01T01:14:49Z</time>
  <course>80.24</course>
  <speed>0.0</speed>
  <fix>3d</fix>
</trkpt>
<trkpt lat="33.8106148" lon="-118.3935707">
  <ele>-5.815</ele>
  <time>2026-09-01T01:14:49Z</time>
  <course>155.16</course>
  <speed>0.03</speed>
  <fix>3d</fix>
</trkpt>
<trkpt lat="33.8106149" lon="-118.393571">
  <ele>-5.29</ele>
  <time>2026-09-01T01:14:49Z</time>
  <course>80.24</course>
  <speed>0.0</speed>
  <fix>3d</fix>
</trkpt>
<trkpt lat="33.8106148" lon="-118.3935707">
  <ele>-5.815</ele>
  <time>2026-09-01T01:14:49Z</time>
  <course>155.17</course>
  <speed>0.03</speed>
  <fix>3d</fix>
</trkpt>
<trkpt lat="33.8106149" lon="-118.3935709">
  <ele>-5.29</ele>
  <time>2026-09-01T01:14:49Z</time>
  <course>80.2</course>
  <speed>0.0</speed>
  <fix>3d</fix>
</trkpt>
<trkpt lat="33.8106148" lon="-118.3935707">
  <ele>-5.815</ele>
  <time>2026-09-01T01:14:49Z</time>
  <course>155.18</course>
  <speed>0.03</speed>
  <fix>3d</fix>
</trkpt>
<trkpt lat="33.8106149" lon="-118.3935709">
  <ele>-5.29</ele>
  <time>2026-09-01T01:14:49Z</time>
  <course>80.2</course>
  <speed>0.0</speed>
  <fix>3d</fix>
</trkpt>
<trkpt lat="33.8106148" lon="-118.3935707">
  <ele>-5.816</ele>
  <time>2026-09-01T01:14:49Z</time>
  <course>155.19</course>
  <speed>0.03</speed>
  <fix>3d</fix>
</trkpt>
<trkpt lat="33.8106149" lon="-118.3935709">
  <ele>-5.3</ele>
  <time>2026-09-01T01:14:49Z</time>
  <course>80.05</course>
  <speed>0.0</speed>
  <fix>3d</fix>
</trkpt>
<trkpt lat="33.8106148" lon="-118.3935707">
  <ele>-5.816</ele>
  <time>2026-09-01T01:14:49Z</time>
  <course>155.2</course>
  <speed>0.03</speed>
  <fix>3d</fix>
</trkpt>
<trkpt lat="33.8106149" lon="-118.3935709">
  <ele>-5.3</ele>
  <time>2026-09-01T01:14:49Z</time>
  <course>80.05</course>
  <speed>0.0</speed>
  <fix>3d</fix>
</trkpt>
<trkpt lat="33.8106148" lon="-118.3935707">
  <ele>-5.817</ele>
  <time>2026-09-01T01:14:49Z</time>
  <course>155.21</course>
  <speed>0.03</speed>
  <fix>3d</fix>
</trkpt>
<trkpt lat="33.8106149" lon="-118.3935709">
  <ele>-5.3</ele>
  <time>2026-09-01T01:14:49Z</time>
  <course>79.81</course>
  <speed>0.0</speed>
  <fix>3d</fix>
</trkpt>
<trkpt lat="33.8106148" lon="-118.3935707">
  <ele>-5.817</ele>
  <time>2026-09-01T01:14:49Z</time>
  <course>155.22</course>
  <speed>0.03</speed>
  <fix>3d</fix>
</trkpt>
<trkpt lat="33.8106149" lon="-118.3935709">
  <ele>-5.3</ele>
  <time>2026-09-01T01:14:49Z</time>
  <course>79.81</course>
  <speed>0.0</speed>
  <fix>3d</fix>
</trkpt>
<trkpt lat="33.8106148" lon="-118.3935707">
  <ele>-5.819</ele>
  <time>2026-09-01T01:14:49Z</time>
  <course>155.23</course>
  <speed>0.03</speed>
  <fix>3d</fix>
</trkpt>
<trkpt lat="33.8106149" lon="-118.3935709">
  <ele>-5.3</ele>
  <time>2026-09-01T01:14:49Z</time>
  <course>79.54</course>
  <speed>0.0</speed>
  <fix>3d</fix>
</trkpt>
<trkpt lat="33.8106148" lon="-118.3935707">
  <ele>-5.82</ele>
  <time>2026-09-01T01:14:49Z</time>
  <course>155.24</course>
  <speed>0.03</speed>
  <fix>3d</fix>
</trkpt>
<trkpt lat="33.8106149" lon="-118.3935709">
  <ele>-5.3</ele>
  <time>2026-09-01T01:14:49Z</time>
  <course>79.54</course>
  <speed>0.0</speed>
  <fix>3d</fix>
</trkpt>
<trkpt lat="33.8106148" lon="-118.3935707">
  <ele>-5.82</ele>
  <time>2026-09-01T01:14:49Z</time>
  <course>155.26</course>
  <speed>0.03</speed>
  <fix>3d</fix>
</trkpt>
<trkpt lat="33.8106149" lon="-118.3935709">
  <ele>-5.3</ele>
  <time>2026-09-01T01:14:49Z</time>
  <course>79.31</course>
  <speed>0.0</speed>
  <fix>3d</fix>
</trkpt>
<trkpt lat="33.8106148" lon="-118.3935707">
  <ele>-5.821</ele>
  <time>2026-09-01T01:14:49Z</time>
  <course>155.27</course>
  <speed>0.03</speed>
  <fix>3d</fix>
</trkpt>
<trkpt lat="33.8106149" lon="-118.3935709">
  <ele>-5.3</ele>
  <time>2026-09-01T01:14:49Z</time>
  <course>79.31</course>
  <speed>0.0</speed>
  <fix>3d</fix>
</trkpt>
<trkpt lat="33.8106148" lon="-118.3935707">
  <ele>-5.822</ele>
  <time>2026-09-01T01:14:49Z</time>
  <course>155.28</course>
  <speed>0.03</speed>
  <fix>3d</fix>
</trkpt>
<trkpt lat="33.8106149" lon="-118.3935709">
  <ele>-5.3</ele>
  <time>2026-09-01T01:14:49Z</time>
  <course>79.21</course>
  <speed>0.0</speed>
  <fix>3d</fix>
</trkpt>
<trkpt lat="33.8106148" lon="-118.3935706">
  <ele>-5.822</ele>
  <time>2026-09-01T01:14:49Z</time>
  <course>155.29</course>
  <speed>0.03</speed>
  <fix>3d</fix>
</trkpt>
<trkpt lat="33.8106149" lon="-118.3935709">
  <ele>-5.3</ele>
  <time>2026-09-01T01:14:49Z</time>
  <course>79.21</course>
  <speed>0.0</speed>
  <fix>3d</fix>
</trkpt>
<trkpt lat="33.8106148" lon="-118.3935706">
  <ele>-5.822</ele>
  <time>2026-09-01T01:14:49Z</time>
  <course>155.3</course>
  <speed>0.03</speed>
  <fix>3d</fix>
</trkpt>
<trkpt lat="33.8106149" lon="-118.3935709">
  <ele>-5.3</ele>
  <time>2026-09-01T01:14:49Z</time>
  <course>79.18</course>
  <speed>0.0</speed>
  <fix>3d</fix>
</trkpt>
<trkpt lat="33.8106148" lon="-118.3935706">
  <ele>-5.821</ele>
  <time>2026-09-01T01:14:49Z</time>
  <course>155.31</course>
  <speed>0.03</speed>
  <fix>3d</fix>
</trkpt>
<trkpt lat="33.8106149" lon="-118.3935709">
  <ele>-5.3</ele>
  <time>2026-09-01T01:14:49Z</time>
  <course>79.18</course>
  <speed>0.0</speed>
  <fix>3d</fix>
</trkpt>
<trkpt lat="33.8106148" lon="-118.3935706">
  <ele>-5.819</ele>
  <time>2026-09-01T01:14:49Z</time>
  <course>155.33</course>
  <speed>0.03</speed>
  <fix>3d</fix>
</trkpt>
<trkpt lat="33.8106149" lon="-118.3935709">
  <ele>-5.3</ele>
  <time>2026-09-01T01:14:49Z</time>
  <course>79.12</course>
  <speed>0.0</speed>
  <fix>3d</fix>
</trkpt>
<trkpt lat="33.8106148" lon="-118.3935706">
  <ele>-5.81</ele>
  <time>2026-09-01T01:14:49Z</time>
  <course>155.36</course>
  <speed>0.03</speed>
  <fix>3d</fix>
</trkpt>
<trkpt lat="33.8106149" lon="-118.3935709">
  <ele>-5.3</ele>
  <time>2026-09-01T01:14:49Z</time>
  <course>79.12</course>
  <speed>0.0</speed>
  <fix>3d</fix>
</trkpt>
<trkpt lat="33.8106148" lon="-118.3935706">
  <ele>-5.797</ele>
  <time>2026-09-01T01:14:49Z</time>
  <course>155.4</course>
  <speed>0.03</speed>
  <fix>3d</fix>
</trkpt>
<trkpt lat="33.8106149" lon="-118.3935708">
  <ele>-5.29</ele>
  <time>2026-09-01T01:14:49Z</time>
  <course>79.11</course>
  <speed>0.0</speed>
  <fix>3d</fix>
</trkpt>
<trkpt lat="33.8106148" lon="-118.3935706">
  <ele>-5.778</ele>
  <time>2026-09-01T01:14:49Z</time>
  <course>155.43</course>
  <speed>0.03</speed>
  <fix>3d</fix>
</trkpt>
<trkpt lat="33.8106149" lon="-118.3935708">
  <ele>-5.29</ele>
  <time>2026-09-01T01:14:49Z</time>
  <course>79.11</course>
  <speed>0.0</speed>
  <fix>3d</fix>
</trkpt>
<trkpt lat="33.8106148" lon="-118.3935706">
  <ele>-5.756</ele>
  <time>2026-09-01T01:14:49Z</time>
  <course>155.46</course>
  <speed>0.03</speed>
  <fix>3d</fix>
</trkpt>
<trkpt lat="33.8106149" lon="-118.3935708">
  <ele>-5.26</ele>
  <time>2026-09-01T01:14:49Z</time>
  <course>79.16</course>
  <speed>0.0</speed>
  <fix>3d</fix>
</trkpt>
<trkpt lat="33.8106148" lon="-118.3935706">
  <ele>-5.731</ele>
  <time>2026-09-01T01:14:49Z</time>
  <course>155.49</course>
  <speed>0.03</speed>
  <fix>3d</fix>
</trkpt>
<trkpt lat="33.8106149" lon="-118.3935708">
  <ele>-5.26</ele>
  <time>2026-09-01T01:14:49Z</time>
  <course>79.16</course>
  <speed>0.0</speed>
  <fix>3d</fix>
</trkpt>
<trkpt lat="33.8106148" lon="-118.3935706">
  <ele>-5.704</ele>
  <time>2026-09-01T01:14:49Z</time>
  <course>155.51</course>
  <speed>0.03</speed>
  <fix>3d</fix>
</trkpt>
<trkpt lat="33.8106149" lon="-118.3935708">
  <ele>-5.22</ele>
  <time>2026-09-01T01:14:49Z</time>
  <course>79.23</course>
  <speed>0.0</speed>
  <fix>3d</fix>
</trkpt>
<trkpt lat="33.8106148" lon="-118.3935706">
  <ele>-5.676</ele>
  <time>2026-09-01T01:14:49Z</time>
  <course>155.53</course>
  <speed>0.0316227766016838</speed>
  <fix>3d</fix>
</trkpt>
<trkpt lat="33.8106149" lon="-118.3935708">
  <ele>-5.22</ele>
  <time>2026-09-01T01:14:49Z</time>
  <course>79.23</course>
  <speed>0.0</speed>
  <fix>3d</fix>
</trkpt>
<trkpt lat="33.8106148" lon="-118.3935706">
  <ele>-5.647</ele>
  <time>2026-09-01T01:14:49Z</time>
  <course>155.55</course>
  <speed>0.0316227766016838</speed>
  <fix>3d</fix>
</trkpt>
<trkpt lat="33.8106149" lon="-118.3935708">
  <ele>-5.17</ele>
  <time>2026-09-01T01:14:49Z</time>
  <course>79.43</course>
  <speed>0.0</speed>
  <fix>3d</fix>
</trkpt>
<trkpt lat="33.8106148" lon="-118.3935706">
  <ele>-5.616</ele>
  <time>2026-09-01T01:14:49Z</time>
  <course>155.57</course>
  <speed>0.0316227766016838</speed>
  <fix>3d</fix>
</trkpt>
<trkpt lat="33.8106149" lon="-118.3935708">
  <ele>-5.17</ele>
  <time>2026-09-01T01:14:49Z</time>
  <course>79.43</course>
  <speed>0.0</speed>
  <fix>3d</fix>
</trkpt>
<trkpt lat="33.8106148" lon="-118.3935706">
  <ele>-5.585</ele>
  <time>2026-09-01T01:14:49Z</time>
  <course>155.59</course>
  <speed>0.0316227766016838</speed>
  <fix>3d</fix>
</trkpt>
<trkpt lat="33.8106149" lon="-118.3935708">
  <ele>-5.12</ele>
  <time>2026-09-01T01:14:49Z</time>
  <course>79.68</course>
  <speed>0.0</speed>
  <fix>3d</fix>
</trkpt>
<trkpt lat="33.8106148" lon="-118.3935705">
  <ele>-5.555</ele>
  <time>2026-09-01T01:14:49Z</time>
  <course>155.61</course>
  <speed>0.0316227766016838</speed>
  <fix>3d</fix>
</trkpt>
<trkpt lat="33.8106149" lon="-118.3935708">
  <ele>-5.12</ele>
  <time>2026-09-01T01:14:49Z</time>
  <course>79.68</course>
  <speed>0.0</speed>
  <fix>3d</fix>
</trkpt>
<trkpt lat="33.8106148" lon="-118.3935705">
  <ele>-5.524</ele>
  <time>2026-09-01T01:14:49Z</time>
  <course>155.62</course>
  <speed>0.0316227766016838</speed>
  <fix>3d</fix>
</trkpt>
<trkpt lat="33.810615" lon="-118.3935708">
  <ele>-5.06</ele>
  <time>2026-09-01T01:14:49Z</time>
  <course>79.84</course>
  <speed>0.0</speed>
  <fix>3d</fix>
</trkpt>
<trkpt lat="33.8106148" lon="-118.3935705">
  <ele>-5.492</ele>
  <time>2026-09-01T01:14:49Z</time>
  <course>155.64</course>
  <speed>0.03</speed>
  <fix>3d</fix>
</trkpt>
<trkpt lat="33.810615" lon="-118.3935708">
  <ele>-5.06</ele>
  <time>2026-09-01T01:14:49Z</time>
  <course>79.84</course>
  <speed>0.0</speed>
  <fix>3d</fix>
</trkpt>
<trkpt lat="33.8106148" lon="-118.3935705">
  <ele>-5.461</ele>
  <time>2026-09-01T01:14:49Z</time>
  <course>155.65</course>
  <speed>0.03</speed>
  <fix>3d</fix>
</trkpt>
<trkpt lat="33.810615" lon="-118.3935708">
  <ele>-5.0</ele>
  <time>2026-09-01T01:14:49Z</time>
  <course>79.82</course>
  <speed>0.0</speed>
  <fix>3d</fix>
</trkpt>
<trkpt lat="33.8106148" lon="-118.3935705">
  <ele>-5.43</ele>
  <time>2026-09-01T01:14:49Z</time>
  <course>155.67</course>
  <speed>0.03</speed>
  <fix>3d</fix>
</trkpt>
<trkpt lat="33.810615" lon="-118.3935708">
  <ele>-5.0</ele>
  <time>2026-09-01T01:14:49Z</time>
  <course>79.82</course>
  <speed>0.0</speed>
  <fix>3d</fix>
</trkpt>
<trkpt lat="33.8106148" lon="-118.3935705">
  <ele>-5.398</ele>
  <time>2026-09-01T01:14:49Z</time>
  <course>155.68</course>
  <speed>0.03</speed>
  <fix>3d</fix>
</trkpt>
<trkpt lat="33.810615" lon="-118.3935707">
  <ele>-4.93</ele>
  <time>2026-09-01T01:14:49Z</time>
  <course>79.69</course>
  <speed>0.0</speed>
  <fix>3d</fix>
</trkpt>
<trkpt lat="33.8106148" lon="-118.3935705">
  <ele>-5.366</ele>
  <time>2026-09-01T01:14:49Z</time>
  <course>155.69</course>
  <speed>0.03</speed>
  <fix>3d</fix>
</trkpt>
<trkpt lat="33.810615" lon="-118.3935707">
  <ele>-4.93</ele>
  <time>2026-09-01T01:14:49Z</time>
  <course>79.69</course>
  <speed>0.0</speed>
  <fix>3d</fix>
</trkpt>
<trkpt lat="33.8106148" lon="-118.3935705">
  <ele>-5.334</ele>
  <time>2026-09-01T01:14:49Z</time>
  <course>155.7</course>
  <speed>0.03</speed>
  <fix>3d</fix>
</trkpt>
<trkpt lat="33.810615" lon="-118.3935707">
  <ele>-4.88</ele>
  <time>2026-09-01T01:14:49Z</time>
  <course>79.62</course>
  <speed>0.0</speed>
  <fix>3d</fix>
</trkpt>
<trkpt lat="33.8106148" lon="-118.3935705">
  <ele>-5.302</ele>
  <time>2026-09-01T01:14:49Z</time>
  <course>155.72</course>
  <speed>0.03</speed>
  <fix>3d</fix>
</trkpt>
<trkpt lat="33.810615" lon="-118.3935707">
  <ele>-4.88</ele>
  <time>2026-09-01T01:14:49Z</time>
  <course>79.62</course>
  <speed>0.0</speed>
  <fix>3d</fix>
</trkpt>
<trkpt lat="33.8106148" lon="-118.3935705">
  <ele>-5.27</ele>
  <time>2026-09-01T01:14:49Z</time>
  <course>155.73</course>
  <speed>0.03</speed>
  <fix>3d</fix>
</trkpt>
<trkpt lat="33.810615" lon="-118.3935707">
  <ele>-4.81</ele>
  <time>2026-09-01T01:14:49Z</time>
  <course>79.74</course>
  <speed>0.0</speed>
  <fix>3d</fix>
</trkpt>
<trkpt lat="33.8106148" lon="-118.3935705">
  <ele>-5.239</ele>
  <time>2026-09-01T01:14:49Z</time>
  <course>155.74</course>
  <speed>0.03</speed>
  <fix>3d</fix>
</trkpt>
<trkpt lat="33.810615" lon="-118.3935707">
  <ele>-4.81</ele>
  <time>2026-09-01T01:14:49Z</time>
  <course>79.74</course>
  <speed>0.0</speed>
  <fix>3d</fix>
</trkpt>
<trkpt lat="33.8106148" lon="-118.3935705">
  <ele>-5.208</ele>
  <time>2026-09-01T01:14:49Z</time>
  <course>155.75</course>
  <speed>0.03</speed>
  <fix>3d</fix>
</trkpt>
<trkpt lat="33.810615" lon="-118.3935707">
  <ele>-4.76</ele>
  <time>2026-09-01T01:14:49Z</time>
  <course>80.01</course>
  <speed>0.0</speed>
  <fix>3d</fix>
</trkpt>
<trkpt lat="33.8106148" lon="-118.3935705">
  <ele>-5.177</ele>
  <time>2026-09-01T01:14:49Z</time>
  <course>155.76</course>
  <speed>0.03</speed>
  <fix>3d</fix>
</trkpt>
<trkpt lat="33.810615" lon="-118.3935707">
  <ele>-4.76</ele>
  <time>2026-09-01T01:14:49Z</time>
  <course>80.01</course>
  <speed>0.0</speed>
  <fix>3d</fix>
</trkpt>
<trkpt lat="33.8106148" lon="-118.3935705">
  <ele>-5.147</ele>
  <time>2026-09-01T01:14:49Z</time>
  <course>155.77</course>
  <speed>0.03</speed>
  <fix>3d</fix>
</trkpt>
<trkpt lat="33.810615" lon="-118.3935707">
  <ele>-4.7</ele>
  <time>2026-09-01T01:14:49Z</time>
  <course>80.28</course>
  <speed>0.0</speed>
  <fix>3d</fix>
</trkpt>
<trkpt lat="33.8106149" lon="-118.3935705">
  <ele>-5.117</ele>
  <time>2026-09-01T01:14:49Z</time>
  <course>155.78</course>
  <speed>0.03</speed>
  <fix>3d</fix>
</trkpt>
<trkpt lat="33.810615" lon="-118.3935707">
  <ele>-4.7</ele>
  <time>2026-09-01T01:14:49Z</time>
  <course>80.28</course>
  <speed>0.0</speed>
  <fix>3d</fix>
</trkpt>
<trkpt lat="33.8106149" lon="-118.3935704">
  <ele>-5.087</ele>
  <time>2026-09-01T01:14:49Z</time>
  <course>155.79</course>
  <speed>0.03</speed>
  <fix>3d</fix>
</trkpt>
<trkpt lat="33.810615" lon="-118.3935707">
  <ele>-4.64</ele>
  <time>2026-09-01T01:14:49Z</time>
  <course>80.38</course>
  <speed>0.0</speed>
  <fix>3d</fix>
</trkpt>
<trkpt lat="33.8106149" lon="-118.3935704">
  <ele>-5.056</ele>
  <time>2026-09-01T01:14:49Z</time>
  <course>155.8</course>
  <speed>0.03</speed>
  <fix>3d</fix>
</trkpt>
<trkpt lat="33.810615" lon="-118.3935707">
  <ele>-4.64</ele>
  <time>2026-09-01T01:14:49Z</time>
  <course>80.38</course>
  <speed>0.0</speed>
  <fix>3d</fix>
</trkpt>
<trkpt lat="33.8106149" lon="-118.3935704">
  <ele>-5.025</ele>
  <time>2026-09-01T01:14:49Z</time>
  <course>155.81</course>
  <speed>0.03</speed>
  <fix>3d</fix>
</trkpt>
<trkpt lat="33.810615" lon="-118.3935707">
  <ele>-4.58</ele>
  <time>2026-09-01T01:14:49Z</time>
  <course>80.29</course>
  <speed>0.0</speed>
  <fix>3d</fix>
</trkpt>
<trkpt lat="33.8106149" lon="-118.3935704">
  <ele>-4.993</ele>
  <time>2026-09-01T01:14:49Z</time>
  <course>155.82</course>
  <speed>0.03</speed>
  <fix>3d</fix>
</trkpt>
<trkpt lat="33.810615" lon="-118.3935707">
  <ele>-4.58</ele>
  <time>2026-09-01T01:14:49Z</time>
  <course>80.29</course>
  <speed>0.0</speed>
  <fix>3d</fix>
</trkpt>
<trkpt lat="33.8106149" lon="-118.3935704">
  <ele>-4.963</ele>
  <time>2026-09-01T01:14:49Z</time>
  <course>155.83</course>
  <speed>0.03</speed>
  <fix>3d</fix>
</trkpt>
<trkpt lat="33.810615" lon="-118.3935707">
  <ele>-4.52</ele>
  <time>2026-09-01T01:14:49Z</time>
  <course>80.15</course>
  <speed>0.0</speed>
  <fix>3d</fix>
</trkpt>
<trkpt lat="33.8106149" lon="-118.3935704">
  <ele>-4.932</ele>
  <time>2026-09-01T01:14:49Z</time>
  <course>155.84</course>
  <speed>0.03</speed>
  <fix>3d</fix>
</trkpt>
<trkpt lat="33.810615" lon="-118.3935707">
  <ele>-4.52</ele>
  <time>2026-09-01T01:14:49Z</time>
  <course>80.15</course>
  <speed>0.0</speed>
  <fix>3d</fix>
</trkpt>
<trkpt lat="33.8106149" lon="-118.3935704">
  <ele>-4.9</ele>
  <time>2026-09-01T01:14:49Z</time>
  <course>155.85</course>
  <speed>0.03</speed>
  <fix>3d</fix>
</trkpt>
<trkpt lat="33.810615" lon="-118.3935706">
  <ele>-4.46</ele>
  <time>2026-09-01T01:14:49Z</time>
  <course>80.14</course>
  <speed>0.0</speed>
  <fix>3d</fix>
</trkpt>
<trkpt lat="33.8106149" lon="-118.3935704">
  <ele>-4.868</ele>
  <time>2026-09-01T01:14:49Z</time>
  <course>155.86</course>
  <speed>0.03</speed>
  <fix>3d</fix>
</trkpt>
<trkpt lat="33.810615" lon="-118.3935706">
  <ele>-4.46</ele>
  <time>2026-09-01T01:14:49Z</time>
  <course>80.14</course>
  <speed>0.0</speed>
  <fix>3d</fix>
</trkpt>
<trkpt lat="33.8106149" lon="-118.3935704">
  <ele>-4.837</ele>
  <time>2026-09-01T01:14:49Z</time>
  <course>155.87</course>
  <speed>0.03</speed>
  <fix>3d</fix>
</trkpt>
<trkpt lat="33.810615" lon="-118.3935706">
  <ele>-4.39</ele>
  <time>2026-09-01T01:14:49Z</time>
  <course>80.33</course>
  <speed>0.0</speed>
  <fix>3d</fix>
</trkpt>
<trkpt lat="33.8106149" lon="-118.3935704">
  <ele>-4.806</ele>
  <time>2026-09-01T01:14:49Z</time>
  <course>155.88</course>
  <speed>0.03</speed>
  <fix>3d</fix>
</trkpt>
<trkpt lat="33.810615" lon="-118.3935706">
  <ele>-4.39</ele>
  <time>2026-09-01T01:14:49Z</time>
  <course>80.33</course>
  <speed>0.0</speed>
  <fix>3d</fix>
</trkpt>
<trkpt lat="33.8106149" lon="-118.3935704">
  <ele>-4.775</ele>
  <time>2026-09-01T01:14:49Z</time>
  <course>155.89</course>
  <speed>0.03</speed>
  <fix>3d</fix>
</trkpt>
<trkpt lat="33.810615" lon="-118.3935706">
  <ele>-4.34</ele>
  <time>2026-09-01T01:14:49Z</time>
  <course>80.62</course>
  <speed>0.0</speed>
  <fix>3d</fix>
</trkpt>
<trkpt lat="33.8106149" lon="-118.3935704">
  <ele>-4.745</ele>
  <time>2026-09-01T01:14:49Z</time>
  <course>155.9</course>
  <speed>0.03</speed>
  <fix>3d</fix>
</trkpt>
<trkpt lat="33.810615" lon="-118.3935706">
  <ele>-4.34</ele>
  <time>2026-09-01T01:14:49Z</time>
  <course>80.62</course>
  <speed>0.0</speed>
  <fix>3d</fix>
</trkpt>
<trkpt lat="33.8106149" lon="-118.3935704">
  <ele>-4.715</ele>
  <time>2026-09-01T01:14:49Z</time>
  <course>155.91</course>
  <speed>0.03</speed>
  <fix>3d</fix>
</trkpt>
<trkpt lat="33.810615" lon="-118.3935706">
  <ele>-4.27</ele>
  <time>2026-09-01T01:14:49Z</time>
  <course>80.84</course>
  <speed>0.0</speed>
  <fix>3d</fix>
</trkpt>
<trkpt lat="33.8106149" lon="-118.3935704">
  <ele>-4.684</ele>
  <time>2026-09-01T01:14:49Z</time>
  <course>155.92</course>
  <speed>0.03</speed>
  <fix>3d</fix>
</trkpt>
<trkpt lat="33.810615" lon="-118.3935706">
  <ele>-4.27</ele>
  <time>2026-09-01T01:14:49Z</time>
  <course>80.84</course>
  <speed>0.0</speed>
  <fix>3d</fix>
</trkpt>
<trkpt lat="33.8106149" lon="-118.3935704">
  <ele>-4.655</ele>
  <time>2026-09-01T01:14:49Z</time>
  <course>155.92</course>
  <speed>0.03</speed>
  <fix>3d</fix>
</trkpt>
<trkpt lat="33.810615" lon="-118.3935706">
  <ele>-4.22</ele>
  <time>2026-09-01T01:14:49Z</time>
  <course>80.86</course>
  <speed>0.0</speed>
  <fix>3d</fix>
</trkpt>
<trkpt lat="33.8106149" lon="-118.3935704">
  <ele>-4.646</ele>
  <time>2026-09-01T01:14:49Z</time>
  <course>155.93</course>
  <speed>0.03</speed>
  <fix>3d</fix>
</trkpt>
<trkpt lat="33.810615" lon="-118.3935706">
  <ele>-4.22</ele>
  <time>2026-09-01T01:14:49Z</time>
  <course>80.86</course>
  <speed>0.0</speed>
  <fix>3d</fix>
</trkpt>
<trkpt lat="33.8106149" lon="-118.3935704">
  <ele>-4.653</ele>
  <time>2026-09-01T01:14:49Z</time>
  <course>155.94</course>
  <speed>0.03</speed>
  <fix>3d</fix>
</trkpt>
<trkpt lat="33.810615" lon="-118.3935706">
  <ele>-4.17</ele>
  <time>2026-09-01T01:14:49Z</time>
  <course>80.34</course>
  <speed>0.0</speed>
  <fix>3d</fix>
</trkpt>
<trkpt lat="33.8106149" lon="-118.3935704">
  <ele>-4.665</ele>
  <time>2026-09-01T01:14:49Z</time>
  <course>155.95</course>
  <speed>0.03</speed>
  <fix>3d</fix>
</trkpt>
<trkpt lat="33.810615" lon="-118.3935706">
  <ele>-4.17</ele>
  <time>2026-09-01T01:14:49Z</time>
  <course>80.34</course>
  <speed>0.0</speed>
  <fix>3d</fix>
</trkpt>
<trkpt lat="33.8106149" lon="-118.3935704">
  <ele>-4.676</ele>
  <time>2026-09-01T01:14:49Z</time>
  <course>155.96</course>
  <speed>0.03</speed>
  <fix>3d</fix>
</trkpt>
<trkpt lat="33.810615" lon="-118.3935706">
  <ele>-4.17</ele>
  <time>2026-09-01T01:14:49Z</time>
  <course>79.66</course>
  <speed>0.0</speed>
  <fix>3d</fix>
</trkpt>
<trkpt lat="33.8106149" lon="-118.3935704">
  <ele>-4.676</ele>
  <time>2026-09-01T01:14:49Z</time>
  <course>155.96</course>
  <speed>0.03</speed>
  <fix>3d</fix>
</trkpt>
<trkpt lat="33.8106149" lon="-118.3935704">
  <ele>-4.686</ele>
  <time>2026-09-01T01:14:49Z</time>
  <course>155.97</course>
  <speed>0.03</speed>
  <fix>3d</fix>
</trkpt>
<trkpt lat="33.810615" lon="-118.3935706">
  <ele>-4.17</ele>
  <time>2026-09-01T01:14:49Z</time>
  <course>79.66</course>
  <speed>0.0</speed>
  <fix>3d</fix>
</trkpt>
<trkpt lat="33.8106149" lon="-118.3935704">
  <ele>-4.696</ele>
  <time>2026-09-01T01:14:49Z</time>
  <course>155.97</course>
  <speed>0.03</speed>
  <fix>3d</fix>
</trkpt>
<trkpt lat="33.810615" lon="-118.3935706">
  <ele>-4.18</ele>
  <time>2026-09-01T01:14:49Z</time>
  <course>79.4</course>
  <speed>0.0</speed>
  <fix>3d</fix>
</trkpt>
<trkpt lat="33.8106149" lon="-118.3935703">
  <ele>-4.718</ele>
  <time>2026-09-01T01:14:49Z</time>
  <course>155.98</course>
  <speed>0.03</speed>
  <fix>3d</fix>
</trkpt>
<trkpt lat="33.810615" lon="-118.3935706">
  <ele>-4.18</ele>
  <time>2026-09-01T01:14:49Z</time>
  <course>79.4</course>
  <speed>0.0</speed>
  <fix>3d</fix>
</trkpt>
<trkpt lat="33.8106149" lon="-118.3935703">
  <ele>-4.757</ele>
  <time>2026-09-01T01:14:49Z</time>
  <course>155.99</course>
  <speed>0.03</speed>
  <fix>3d</fix>
</trkpt>
<trkpt lat="33.810615" lon="-118.3935705">
  <ele>-4.21</ele>
  <time>2026-09-01T01:14:49Z</time>
  <course>79.2</course>
  <speed>0.0</speed>
  <fix>3d</fix>
</trkpt>
<trkpt lat="33.8106149" lon="-118.3935703">
  <ele>-4.758</ele>
  <time>2026-09-01T01:14:49Z</time>
  <course>155.99</course>
  <speed>0.03</speed>
  <fix>3d</fix>
</trkpt>
<trkpt lat="33.8106149" lon="-118.3935703">
  <ele>-4.813</ele>
  <time>2026-09-01T01:14:49Z</time>
  <course>156.0</course>
  <speed>0.03</speed>
  <fix>3d</fix>
</trkpt>
<trkpt lat="33.810615" lon="-118.3935705">
  <ele>-4.21</ele>
  <time>2026-09-01T01:14:49Z</time>
  <course>79.2</course>
  <speed>0.0</speed>
  <fix>3d</fix>
</trkpt>
<trkpt lat="33.8106149" lon="-118.3935703">
  <ele>-4.815</ele>
  <time>2026-09-01T01:14:49Z</time>
  <course>156.0</course>
  <speed>0.03</speed>
  <fix>3d</fix>
</trkpt>
<trkpt lat="33.8106149" lon="-118.3935703">
  <ele>-4.883</ele>
  <time>2026-09-01T01:14:49Z</time>
  <course>156.01</course>
  <speed>0.03</speed>
  <fix>3d</fix>
</trkpt>
<trkpt lat="33.810615" lon="-118.3935705">
  <ele>-4.27</ele>
  <time>2026-09-01T01:14:49Z</time>
  <course>78.97</course>
  <speed>0.0</speed>
  <fix>3d</fix>
</trkpt>
<trkpt lat="33.8106149" lon="-118.3935703">
  <ele>-4.906</ele>
  <time>2026-09-01T01:14:49Z</time>
  <course>156.01</course>
  <speed>0.03</speed>
  <fix>3d</fix>
</trkpt>
<trkpt lat="33.8106149" lon="-118.3935703">
  <ele>-4.963</ele>
  <time>2026-09-01T01:14:49Z</time>
  <course>156.01</course>
  <speed>0.03</speed>
  <fix>3d</fix>
</trkpt>
<trkpt lat="33.810615" lon="-118.3935705">
  <ele>-4.27</ele>
  <time>2026-09-01T01:14:49Z</time>
  <course>78.97</course>
  <speed>0.0</speed>
  <fix>3d</fix>
</trkpt>
<trkpt lat="33.8106149" lon="-118.3935703">
  <ele>-4.989</ele>
  <time>2026-09-01T01:14:49Z</time>
  <course>156.02</course>
  <speed>0.03</speed>
  <fix>3d</fix>
</trkpt>
<trkpt lat="33.8106149" lon="-118.3935703">
  <ele>-5.05</ele>
  <time>2026-09-01T01:14:49Z</time>
  <course>156.02</course>
  <speed>0.03</speed>
  <fix>3d</fix>
</trkpt>
<trkpt lat="33.810615" lon="-118.3935705">
  <ele>-4.4</ele>
  <time>2026-09-01T01:14:49Z</time>
  <course>78.8</course>
  <speed>0.0</speed>
  <fix>3d</fix>
</trkpt>
<trkpt lat="33.8106149" lon="-118.3935703">
  <ele>-5.078</ele>
  <time>2026-09-01T01:14:49Z</time>
  <course>156.02</course>
  <speed>0.03</speed>
  <fix>3d</fix>
</trkpt>
<trkpt lat="33.8106149" lon="-118.3935703">
  <ele>-5.141</ele>
  <time>2026-09-01T01:14:49Z</time>
  <course>156.03</course>
  <speed>0.03</speed>
  <fix>3d</fix>
</trkpt>
<trkpt lat="33.810615" lon="-118.3935705">
  <ele>-4.4</ele>
  <time>2026-09-01T01:14:49Z</time>
  <course>78.8</course>
  <speed>0.0</speed>
  <fix>3d</fix>
</trkpt>
<trkpt lat="33.8106149" lon="-118.3935703">
  <ele>-5.234</ele>
  <time>2026-09-01T01:14:49Z</time>
  <course>156.04</course>
  <speed>0.03</speed>
  <fix>3d</fix>
</trkpt>
<trkpt lat="33.810615" lon="-118.3935705">
  <ele>-4.56</ele>
  <time>2026-09-01T01:14:49Z</time>
  <course>78.59</course>
  <speed>0.0</speed>
  <fix>3d</fix>
</trkpt>
<trkpt lat="33.8106149" lon="-118.3935703">
  <ele>-5.321</ele>
  <time>2026-09-01T01:14:49Z</time>
  <course>156.04</course>
  <speed>0.03</speed>
  <fix>3d</fix>
</trkpt>
<trkpt lat="33.810615" lon="-118.3935705">
  <ele>-4.56</ele>
  <time>2026-09-01T01:14:49Z</time>
  <course>78.59</course>
  <speed>0.0</speed>
  <fix>3d</fix>
</trkpt>
<trkpt lat="33.8106149" lon="-118.3935703">
  <ele>-5.394</ele>
  <time>2026-09-01T01:14:49Z</time>
  <course>156.05</course>
  <speed>0.03</speed>
  <fix>3d</fix>
</trkpt>
<trkpt lat="33.810615" lon="-118.3935705">
  <ele>-4.72</ele>
  <time>2026-09-01T01:14:49Z</time>
  <course>78.57</course>
  <speed>0.0</speed>
  <fix>3d</fix>
</trkpt>
<trkpt lat="33.8106149" lon="-118.3935703">
  <ele>-5.448</ele>
  <time>2026-09-01T01:14:49Z</time>
  <course>156.23</course>
  <speed>0.03</speed>
  <fix>3d</fix>
</trkpt>
<trkpt lat="33.810615" lon="-118.3935705">
  <ele>-4.72</ele>
  <time>2026-09-01T01:14:49Z</time>
  <course>78.57</course>
  <speed>0.0</speed>
  <fix>3d</fix>
</trkpt>
<trkpt lat="33.8106149" lon="-118.3935703">
  <ele>-5.486</ele>
  <time>2026-09-01T01:14:49Z</time>
  <course>156.24</course>
  <speed>0.03</speed>
  <fix>3d</fix>
</trkpt>
<trkpt lat="33.810615" lon="-118.3935705">
  <ele>-4.85</ele>
  <time>2026-09-01T01:14:49Z</time>
  <course>78.95</course>
  <speed>0.0</speed>
  <fix>3d</fix>
</trkpt>
<trkpt lat="33.8106149" lon="-118.3935703">
  <ele>-5.512</ele>
  <time>2026-09-01T01:14:49Z</time>
  <course>156.25</course>
  <speed>0.03</speed>
  <fix>3d</fix>
</trkpt>
<trkpt lat="33.810615" lon="-118.3935705">
  <ele>-4.85</ele>
  <time>2026-09-01T01:14:49Z</time>
  <course>78.95</course>
  <speed>0.0</speed>
  <fix>3d</fix>
</trkpt>
<trkpt lat="33.8106149" lon="-118.3935703">
  <ele>-5.53</ele>
  <time>2026-09-01T01:14:49Z</time>
  <course>156.26</course>
  <speed>0.03</speed>
  <fix>3d</fix>
</trkpt>
<trkpt lat="33.810615" lon="-118.3935705">
  <ele>-4.93</ele>
  <time>2026-09-01T01:14:49Z</time>
  <course>79.33</course>
  <speed>0.0</speed>
  <fix>3d</fix>
</trkpt>
<trkpt lat="33.8106149" lon="-118.3935702">
  <ele>-5.54</ele>
  <time>2026-09-01T01:14:49Z</time>
  <course>156.27</course>
  <speed>0.03</speed>
  <fix>3d</fix>
</trkpt>
<trkpt lat="33.810615" lon="-118.3935705">
  <ele>-4.93</ele>
  <time>2026-09-01T01:14:49Z</time>
  <course>79.33</course>
  <speed>0.0</speed>
  <fix>3d</fix>
</trkpt>
<trkpt lat="33.8106149" lon="-118.3935702">
  <ele>-5.543</ele>
  <time>2026-09-01T01:14:49Z</time>
  <course>156.28</course>
  <speed>0.03</speed>
  <fix>3d</fix>
</trkpt>
<trkpt lat="33.810615" lon="-118.3935704">
  <ele>-4.97</ele>
  <time>2026-09-01T01:14:49Z</time>
  <course>79.45</course>
  <speed>0.0</speed>
  <fix>3d</fix>
</trkpt>
<trkpt lat="33.8106149" lon="-118.3935702">
  <ele>-5.541</ele>
  <time>2026-09-01T01:14:49Z</time>
  <course>156.3</course>
  <speed>0.03</speed>
  <fix>3d</fix>
</trkpt>
<trkpt lat="33.810615" lon="-118.3935704">
  <ele>-4.97</ele>
  <time>2026-09-01T01:14:49Z</time>
  <course>79.45</course>
  <speed>0.0</speed>
  <fix>3d</fix>
</trkpt>
<trkpt lat="33.8106149" lon="-118.3935702">
  <ele>-5.537</ele>
  <time>2026-09-01T01:14:49Z</time>
  <course>156.31</course>
  <speed>0.03</speed>
  <fix>3d</fix>
</trkpt>
<trkpt lat="33.810615" lon="-118.3935704">
  <ele>-4.98</ele>
  <time>2026-09-01T01:14:49Z</time>
  <course>79.56</course>
  <speed>0.0</speed>
  <fix>3d</fix>
</trkpt>
<trkpt lat="33.8106149" lon="-118.3935702">
  <ele>-5.533</ele>
  <time>2026-09-01T01:14:49Z</time>
  <course>156.32</course>
  <speed>0.03</speed>
  <fix>3d</fix>
</trkpt>
<trkpt lat="33.810615" lon="-118.3935704">
  <ele>-4.98</ele>
  <time>2026-09-01T01:14:49Z</time>
  <course>79.56</course>
  <speed>0.0</speed>
  <fix>3d</fix>
</trkpt>
<trkpt lat="33.8106149" lon="-118.3935702">
  <ele>-5.53</ele>
  <time>2026-09-01T01:14:49Z</time>
  <course>156.33</course>
  <speed>0.0316227766016838</speed>
  <fix>3d</fix>
</trkpt>
<trkpt lat="33.810615" lon="-118.3935704">
  <ele>-4.97</ele>
  <time>2026-09-01T01:14:49Z</time>
  <course>79.6</course>
  <speed>0.0</speed>
  <fix>3d</fix>
</trkpt>
<trkpt lat="33.8106149" lon="-118.3935702">
  <ele>-5.528</ele>
  <time>2026-09-01T01:14:49Z</time>
  <course>156.35</course>
  <speed>0.0316227766016838</speed>
  <fix>3d</fix>
</trkpt>
<trkpt lat="33.810615" lon="-118.3935704">
  <ele>-4.97</ele>
  <time>2026-09-01T01:14:49Z</time>
  <course>79.6</course>
  <speed>0.0</speed>
  <fix>3d</fix>
</trkpt>
<trkpt lat="33.8106149" lon="-118.3935702">
  <ele>-5.527</ele>
  <time>2026-09-01T01:14:49Z</time>
  <course>156.36</course>
  <speed>0.0316227766016838</speed>
  <fix>3d</fix>
</trkpt>
<trkpt lat="33.810615" lon="-118.3935704">
  <ele>-4.97</ele>
  <time>2026-09-01T01:14:49Z</time>
  <course>79.39</course>
  <speed>0.0</speed>
  <fix>3d</fix>
</trkpt>
<trkpt lat="33.8106149" lon="-118.3935702">
  <ele>-5.528</ele>
  <time>2026-09-01T01:14:49Z</time>
  <course>156.37</course>
  <speed>0.0316227766016838</speed>
  <fix>3d</fix>
</trkpt>
<trkpt lat="33.810615" lon="-118.3935704">
  <ele>-4.97</ele>
  <time>2026-09-01T01:14:49Z</time>
  <course>79.39</course>
  <speed>0.0</speed>
  <fix>3d</fix>
</trkpt>
<trkpt lat="33.8106149" lon="-118.3935701">
  <ele>-5.529</ele>
  <time>2026-09-01T01:14:49Z</time>
  <course>156.38</course>
  <speed>0.0316227766016838</speed>
  <fix>3d</fix>
</trkpt>
<trkpt lat="33.810615" lon="-118.3935704">
  <ele>-4.98</ele>
  <time>2026-09-01T01:14:49Z</time>
  <course>79.02</course>
  <speed>0.0</speed>
  <fix>3d</fix>
</trkpt>
<trkpt lat="33.8106149" lon="-118.3935701">
  <ele>-5.529</ele>
  <time>2026-09-01T01:14:49Z</time>
  <course>156.39</course>
  <speed>0.0316227766016838</speed>
  <fix>3d</fix>
</trkpt>
<trkpt lat="33.810615" lon="-118.3935704">
  <ele>-4.98</ele>
  <time>2026-09-01T01:14:49Z</time>
  <course>79.02</course>
  <speed>0.0</speed>
  <fix>3d</fix>
</trkpt>
<trkpt lat="33.8106149" lon="-118.3935701">
  <ele>-5.531</ele>
  <time>2026-09-01T01:14:49Z</time>
  <course>156.41</course>
  <speed>0.0316227766016838</speed>
  <fix>3d</fix>
</trkpt>
<trkpt lat="33.810615" lon="-118.3935704">
  <ele>-4.98</ele>
  <time>2026-09-01T01:14:49Z</time>
  <course>78.7</course>
  <speed>0.0</speed>
  <fix>3d</fix>
</trkpt>
<trkpt lat="33.8106149" lon="-118.3935701">
  <ele>-5.532</ele>
  <time>2026-09-01T01:14:49Z</time>
  <course>156.42</course>
  <speed>0.0316227766016838</speed>
  <fix>3d</fix>
</trkpt>
<trkpt lat="33.810615" lon="-118.3935704">
  <ele>-4.98</ele>
  <time>2026-09-01T01:14:49Z</time>
  <course>78.7</course>
  <speed>0.0</speed>
  <fix>3d</fix>
</trkpt>
<trkpt lat="33.8106149" lon="-118.3935701">
  <ele>-5.533</ele>
  <time>2026-09-01T01:14:49Z</time>
  <course>156.43</course>
  <speed>0.0412310562561766</speed>
  <fix>3d</fix>
</trkpt>
<trkpt lat="33.810615" lon="-118.3935704">
  <ele>-4.99</ele>
  <time>2026-09-01T01:14:49Z</time>
  <course>78.51</course>
  <speed>0.0</speed>
  <fix>3d</fix>
</trkpt>
<trkpt lat="33.8106149" lon="-118.3935701">
  <ele>-5.533</ele>
  <time>2026-09-01T01:14:49Z</time>
  <course>156.44</course>
  <speed>0.0412310562561766</speed>
  <fix>3d</fix>
</trkpt>
<trkpt lat="33.810615" lon="-118.3935704">
  <ele>-4.99</ele>
  <time>2026-09-01T01:14:49Z</time>
  <course>78.51</course>
  <speed>0.0</speed>
  <fix>3d</fix>
</trkpt>
<trkpt lat="33.8106149" lon="-118.3935701">
  <ele>-5.535</ele>
  <time>2026-09-01T01:14:49Z</time>
  <course>156.45</course>
  <speed>0.0412310562561766</speed>
  <fix>3d</fix>
</trkpt>
<trkpt lat="33.810615" lon="-118.3935703">
  <ele>-5.0</ele>
  <time>2026-09-01T01:14:49Z</time>
  <course>78.43</course>
  <speed>0.0</speed>
  <fix>3d</fix>
</trkpt>
<trkpt lat="33.8106149" lon="-118.39357">
  <ele>-5.536</ele>
  <time>2026-09-01T01:14:49Z</time>
  <course>156.47</course>
  <speed>0.0412310562561766</speed>
  <fix>3d</fix>
</trkpt>
<trkpt lat="33.810615" lon="-118.3935703">
  <ele>-5.0</ele>
  <time>2026-09-01T01:14:49Z</time>
  <course>78.43</course>
  <speed>0.0</speed>
  <fix>3d</fix>
</trkpt>
<trkpt lat="33.8106149" lon="-118.39357">
  <ele>-5.537</ele>
  <time>2026-09-01T01:14:49Z</time>
  <course>156.48</course>
  <speed>0.0412310562561766</speed>
  <fix>3d</fix>
</trkpt>
<trkpt lat="33.810615" lon="-118.3935703">
  <ele>-5.01</ele>
  <time>2026-09-01T01:14:49Z</time>
  <course>78.36</course>
  <speed>0.0</speed>
  <fix>3d</fix>
</trkpt>
<trkpt lat="33.8106149" lon="-118.39357">
  <ele>-5.539</ele>
  <time>2026-09-01T01:14:49Z</time>
  <course>156.49</course>
  <speed>0.0412310562561766</speed>
  <fix>3d</fix>
</trkpt>
<trkpt lat="33.810615" lon="-118.3935703">
  <ele>-5.01</ele>
  <time>2026-09-01T01:14:49Z</time>
  <course>78.36</course>
  <speed>0.0</speed>
  <fix>3d</fix>
</trkpt>
<trkpt lat="33.8106149" lon="-118.39357">
  <ele>-5.54</ele>
  <time>2026-09-01T01:14:49Z</time>
  <course>156.5</course>
  <speed>0.0412310562561766</speed>
  <fix>3d</fix>
</trkpt>
<trkpt lat="33.810615" lon="-118.3935703">
  <ele>-5.01</ele>
  <time>2026-09-01T01:14:49Z</time>
  <course>78.22</course>
  <speed>0.0</speed>
  <fix>3d</fix>
</trkpt>
<trkpt lat="33.8106149" lon="-118.39357">
  <ele>-5.541</ele>
  <time>2026-09-01T01:14:49Z</time>
  <course>156.51</course>
  <speed>0.0412310562561766</speed>
  <fix>3d</fix>
</trkpt>
<trkpt lat="33.810615" lon="-118.3935703">
  <ele>-5.01</ele>
  <time>2026-09-01T01:14:49Z</time>
  <course>78.22</course>
  <speed>0.0</speed>
  <fix>3d</fix>
</trkpt>
<trkpt lat="33.8106149" lon="-118.39357">
  <ele>-5.541</ele>
  <time>2026-09-01T01:14:49Z</time>
  <course>156.52</course>
  <speed>0.0412310562561766</speed>
  <fix>3d</fix>
</trkpt>
<trkpt lat="33.810615" lon="-118.3935703">
  <ele>-5.02</ele>
  <time>2026-09-01T01:14:49Z</time>
  <course>78.01</course>
  <speed>0.0</speed>
  <fix>3d</fix>
</trkpt>
<trkpt lat="33.8106149" lon="-118.3935699">
  <ele>-5.541</ele>
  <time>2026-09-01T01:14:49Z</time>
  <course>156.53</course>
  <speed>0.0412310562561766</speed>
  <fix>3d</fix>
</trkpt>
<trkpt lat="33.810615" lon="-118.3935703">
  <ele>-5.02</ele>
  <time>2026-09-01T01:14:49Z</time>
  <course>78.01</course>
  <speed>0.0</speed>
  <fix>3d</fix>
</trkpt>
<trkpt lat="33.8106149" lon="-118.3935699">
  <ele>-5.54</ele>
  <time>2026-09-01T01:14:49Z</time>
  <course>156.55</course>
  <speed>0.0412310562561766</speed>
  <fix>3d</fix>
</trkpt>
<trkpt lat="33.810615" lon="-118.3935703">
  <ele>-5.02</ele>
  <time>2026-09-01T01:14:49Z</time>
  <course>77.74</course>
  <speed>0.0</speed>
  <fix>3d</fix>
</trkpt>
<trkpt lat="33.8106149" lon="-118.3935699">
  <ele>-5.54</ele>
  <time>2026-09-01T01:14:49Z</time>
  <course>156.56</course>
  <speed>0.0412310562561766</speed>
  <fix>3d</fix>
</trkpt>
<trkpt lat="33.810615" lon="-118.3935703">
  <ele>-5.02</ele>
  <time>2026-09-01T01:14:49Z</time>
  <course>77.74</course>
  <speed>0.0</speed>
  <fix>3d</fix>
</trkpt>
<trkpt lat="33.8106149" lon="-118.3935699">
  <ele>-5.54</ele>
  <time>2026-09-01T01:14:49Z</time>
  <course>156.57</course>
  <speed>0.0412310562561766</speed>
  <fix>3d</fix>
</trkpt>
<trkpt lat="33.810615" lon="-118.3935703">
  <ele>-5.02</ele>
  <time>2026-09-01T01:14:49Z</time>
  <course>77.46</course>
  <speed>0.0</speed>
  <fix>3d</fix>
</trkpt>
<trkpt lat="33.8106149" lon="-118.3935699">
  <ele>-5.541</ele>
  <time>2026-09-01T01:14:49Z</time>
  <course>156.58</course>
  <speed>0.05099019513592785</speed>
  <fix>3d</fix>
</trkpt>
<trkpt lat="33.810615" lon="-118.3935703">
  <ele>-5.02</ele>
  <time>2026-09-01T01:14:49Z</time>
  <course>77.46</course>
  <speed>0.0</speed>
  <fix>3d</fix>
</trkpt>
<trkpt lat="33.8106149" lon="-118.3935699">
  <ele>-5.543</ele>
  <time>2026-09-01T01:14:49Z</time>
  <course>156.59</course>
  <speed>0.05099019513592785</speed>
  <fix>3d</fix>
</trkpt>
<trkpt lat="33.810615" lon="-118.3935702">
  <ele>-5.03</ele>
  <time>2026-09-01T01:14:49Z</time>
  <course>77.25</course>
  <speed>0.0</speed>
  <fix>3d</fix>
</trkpt>
<trkpt lat="33.8106149" lon="-118.3935698">
  <ele>-5.544</ele>
  <time>2026-09-01T01:14:49Z</time>
  <course>156.6</course>
  <speed>0.05099019513592785</speed>
  <fix>3d</fix>
</trkpt>
<trkpt lat="33.810615" lon="-118.3935702">
  <ele>-5.03</ele>
  <time>2026-09-01T01:14:49Z</time>
  <course>77.25</course>
  <speed>0.0</speed>
  <fix>3d</fix>
</trkpt>
<trkpt lat="33.8106149" lon="-118.3935698">
  <ele>-5.545</ele>
  <time>2026-09-01T01:14:49Z</time>
  <course>156.61</course>
  <speed>0.05099019513592785</speed>
  <fix>3d</fix>
</trkpt>
<trkpt lat="33.810615" lon="-118.3935702">
  <ele>-5.03</ele>
  <time>2026-09-01T01:14:49Z</time>
  <course>77.13</course>
  <speed>0.0</speed>
  <fix>3d</fix>
</trkpt>
<trkpt lat="33.8106149" lon="-118.3935698">
  <ele>-5.546</ele>
  <time>2026-09-01T01:14:50Z</time>
  <course>156.63</course>
  <speed>0.05099019513592785</speed>
  <fix>3d</fix>
</trkpt>
<trkpt lat="33.810615" lon="-118.3935702">
  <ele>-5.03</ele>
  <time>2026-09-01T01:14:50Z</time>
  <course>77.13</course>
  <speed>0.0</speed>
  <fix>3d</fix>
</trkpt>
<trkpt lat="33.8106149" lon="-118.3935698">
  <ele>-5.547</ele>
  <time>2026-09-01T01:14:50Z</time>
  <course>156.64</course>
  <speed>0.05099019513592785</speed>
  <fix>3d</fix>
</trkpt>
<trkpt lat="33.810615" lon="-118.3935702">
  <ele>-5.03</ele>
  <time>2026-09-01T01:14:50Z</time>
  <course>77.03</course>
  <speed>0.0</speed>
  <fix>3d</fix>
</trkpt>
<trkpt lat="33.8106149" lon="-118.3935698">
  <ele>-5.548</ele>
  <time>2026-09-01T01:14:50Z</time>
  <course>156.67</course>
  <speed>0.05099019513592785</speed>
  <fix>3d</fix>
</trkpt>
<trkpt lat="33.810615" lon="-118.3935702">
  <ele>-5.03</ele>
  <time>2026-09-01T01:14:50Z</time>
  <course>77.03</course>
  <speed>0.0</speed>
  <fix>3d</fix>
</trkpt>
<trkpt lat="33.8106149" lon="-118.3935697">
  <ele>-5.547</ele>
  <time>2026-09-01T01:14:50Z</time>
  <course>156.69</course>
  <speed>0.05099019513592785</speed>
  <fix>3d</fix>
</trkpt>
<trkpt lat="33.810615" lon="-118.3935702">
  <ele>-5.03</ele>
  <time>2026-09-01T01:14:50Z</time>
  <course>76.88</course>
  <speed>0.0</speed>
  <fix>3d</fix>
</trkpt>
<trkpt lat="33.8106149" lon="-118.3935697">
  <ele>-5.546</ele>
  <time>2026-09-01T01:14:50Z</time>
  <course>156.69</course>
  <speed>0.05099019513592785</speed>
  <fix>3d</fix>
</trkpt>
<trkpt lat="33.810615" lon="-118.3935702">
  <ele>-5.03</ele>
  <time>2026-09-01T01:14:50Z</time>
  <course>76.88</course>
  <speed>0.0</speed>
  <fix>3d</fix>
</trkpt>
<trkpt lat="33.8106149" lon="-118.3935697">
  <ele>-5.546</ele>
  <time>2026-09-01T01:14:50Z</time>
  <course>156.7</course>
  <speed>0.05099019513592785</speed>
  <fix>3d</fix>
</trkpt>
<trkpt lat="33.810615" lon="-118.3935702">
  <ele>-5.03</ele>
  <time>2026-09-01T01:14:50Z</time>
  <course>76.65</course>
  <speed>0.0</speed>
  <fix>3d</fix>
</trkpt>
<trkpt lat="33.8106149" lon="-118.3935697">
  <ele>-5.546</ele>
  <time>2026-09-01T01:14:50Z</time>
  <course>156.7</course>
  <speed>0.05099019513592785</speed>
  <fix>3d</fix>
</trkpt>
<trkpt lat="33.810615" lon="-118.3935702">
  <ele>-5.03</ele>
  <time>2026-09-01T01:14:50Z</time>
  <course>76.65</course>
  <speed>0.0</speed>
  <fix>3d</fix>
</trkpt>
<trkpt lat="33.8106149" lon="-118.3935697">
  <ele>-5.547</ele>
  <time>2026-09-01T01:14:50Z</time>
  <course>156.7</course>
  <speed>0.05099019513592785</speed>
  <fix>3d</fix>
</trkpt>
<trkpt lat="33.810615" lon="-118.3935702">
  <ele>-5.03</ele>
  <time>2026-09-01T01:14:50Z</time>
  <course>76.37</course>
  <speed>0.0</speed>
  <fix>3d</fix>
</trkpt>
<trkpt lat="33.8106149" lon="-118.3935697">
  <ele>-5.547</ele>
  <time>2026-09-01T01:14:50Z</time>
  <course>156.7</course>
  <speed>0.05099019513592785</speed>
  <fix>3d</fix>
</trkpt>
<trkpt lat="33.810615" lon="-118.3935702">
  <ele>-5.03</ele>
  <time>2026-09-01T01:14:50Z</time>
  <course>76.37</course>
  <speed>0.0</speed>
  <fix>3d</fix>
</trkpt>
<trkpt lat="33.8106149" lon="-118.3935696">
  <ele>-5.548</ele>
  <time>2026-09-01T01:14:50Z</time>
  <course>156.71</course>
  <speed>0.05099019513592785</speed>
  <fix>3d</fix>
</trkpt>
<trkpt lat="33.8106151" lon="-118.3935701">
  <ele>-5.03</ele>
  <time>2026-09-01T01:14:50Z</time>
  <course>76.14</course>
  <speed>0.0</speed>
  <fix>3d</fix>
</trkpt>
<trkpt lat="33.8106149" lon="-118.3935696">
  <ele>-5.548</ele>
  <time>2026-09-01T01:14:50Z</time>
  <course>156.71</course>
  <speed>0.05099019513592785</speed>
  <fix>3d</fix>
</trkpt>
<trkpt lat="33.8106151" lon="-118.3935701">
  <ele>-5.03</ele>
  <time>2026-09-01T01:14:50Z</time>
  <course>76.14</course>
  <speed>0.0</speed>
  <fix>3d</fix>
</trkpt>
<trkpt lat="33.8106149" lon="-118.3935696">
  <ele>-5.546</ele>
  <time>2026-09-01T01:14:50Z</time>
  <course>156.71</course>
  <speed>0.05099019513592785</speed>
  <fix>3d</fix>
</trkpt>
<trkpt lat="33.8106151" lon="-118.3935701">
  <ele>-5.02</ele>
  <time>2026-09-01T01:14:50Z</time>
  <course>76.0</course>
  <speed>0.0</speed>
  <fix>3d</fix>
</trkpt>
<trkpt lat="33.8106149" lon="-118.3935696">
  <ele>-5.543</ele>
  <time>2026-09-01T01:14:50Z</time>
  <course>156.71</course>
  <speed>0.05099019513592785</speed>
  <fix>3d</fix>
</trkpt>
<trkpt lat="33.8106151" lon="-118.3935701">
  <ele>-5.02</ele>
  <time>2026-09-01T01:14:50Z</time>
  <course>76.0</course>
  <speed>0.0</speed>
  <fix>3d</fix>
</trkpt>
<trkpt lat="33.8106149" lon="-118.3935696">
  <ele>-5.542</ele>
  <time>2026-09-01T01:14:50Z</time>
  <course>156.71</course>
  <speed>0.05099019513592785</speed>
  <fix>3d</fix>
</trkpt>
<trkpt lat="33.8106151" lon="-118.3935701">
  <ele>-5.02</ele>
  <time>2026-09-01T01:14:50Z</time>
  <course>75.91</course>
  <speed>0.0</speed>
  <fix>3d</fix>
</trkpt>
<trkpt lat="33.8106149" lon="-118.3935696">
  <ele>-5.54</ele>
  <time>2026-09-01T01:14:50Z</time>
  <course>156.71</course>
  <speed>0.05099019513592785</speed>
  <fix>3d</fix>
</trkpt>
<trkpt lat="33.8106151" lon="-118.3935701">
  <ele>-5.02</ele>
  <time>2026-09-01T01:14:50Z</time>
  <course>75.91</course>
  <speed>0.0</speed>
  <fix>3d</fix>
</trkpt>
<trkpt lat="33.8106149" lon="-118.3935696">
  <ele>-5.539</ele>
  <time>2026-09-01T01:14:50Z</time>
  <course>156.71</course>
  <speed>0.05099019513592785</speed>
  <fix>3d</fix>
</trkpt>
<trkpt lat="33.8106151" lon="-118.3935701">
  <ele>-5.02</ele>
  <time>2026-09-01T01:14:50Z</time>
  <course>75.79</course>
  <speed>0.0</speed>
  <fix>3d</fix>
</trkpt>
<trkpt lat="33.8106149" lon="-118.3935695">
  <ele>-5.539</ele>
  <time>2026-09-01T01:14:50Z</time>
  <course>156.71</course>
  <speed>0.05099019513592785</speed>
  <fix>3d</fix>
</trkpt>
<trkpt lat="33.8106151" lon="-118.3935701">
  <ele>-5.02</ele>
  <time>2026-09-01T01:14:50Z</time>
  <course>75.79</course>
  <speed>0.0</speed>
  <fix>3d</fix>
</trkpt>
<trkpt lat="33.8106149" lon="-118.3935695">
  <ele>-5.54</ele>
  <time>2026-09-01T01:14:50Z</time>
  <course>156.71</course>
  <speed>0.05099019513592785</speed>
  <fix>3d</fix>
</trkpt>
<trkpt lat="33.8106151" lon="-118.3935701">
  <ele>-5.02</ele>
  <time>2026-09-01T01:14:50Z</time>
  <course>75.6</course>
  <speed>0.0</speed>
  <fix>3d</fix>
</trkpt>
<trkpt lat="33.8106149" lon="-118.3935695">
  <ele>-5.54</ele>
  <time>2026-09-01T01:14:50Z</time>
  <course>156.7</course>
  <speed>0.05099019513592785</speed>
  <fix>3d</fix>
</trkpt>
<trkpt lat="33.8106151" lon="-118.3935701">
  <ele>-5.02</ele>
  <time>2026-09-01T01:14:50Z</time>
  <course>75.6</course>
  <speed>0.0</speed>
  <fix>3d</fix>
</trkpt>
<trkpt lat="33.8106149" lon="-118.3935695">
  <ele>-5.54</ele>
  <time>2026-09-01T01:14:50Z</time>
  <course>156.7</course>
  <speed>0.05099019513592785</speed>
  <fix>3d</fix>
</trkpt>
<trkpt lat="33.8106151" lon="-118.3935701">
  <ele>-5.02</ele>
  <time>2026-09-01T01:14:50Z</time>
  <course>75.37</course>
  <speed>0.0</speed>
  <fix>3d</fix>
</trkpt>
<trkpt lat="33.8106149" lon="-118.3935695">
  <ele>-5.541</ele>
  <time>2026-09-01T01:14:50Z</time>
  <course>156.7</course>
  <speed>0.05099019513592785</speed>
  <fix>3d</fix>
</trkpt>
<trkpt lat="33.8106151" lon="-118.3935701">
  <ele>-5.02</ele>
  <time>2026-09-01T01:14:50Z</time>
  <course>75.37</course>
  <speed>0.0</speed>
  <fix>3d</fix>
</trkpt>
<trkpt lat="33.8106149" lon="-118.3935695">
  <ele>-5.543</ele>
  <time>2026-09-01T01:14:50Z</time>
  <course>156.7</course>
  <speed>0.05099019513592785</speed>
  <fix>3d</fix>
</trkpt>
<trkpt lat="33.8106151" lon="-118.39357">
  <ele>-5.02</ele>
  <time>2026-09-01T01:14:50Z</time>
  <course>75.15</course>
  <speed>0.0</speed>
  <fix>3d</fix>
</trkpt>
<trkpt lat="33.8106149" lon="-118.3935695">
  <ele>-5.545</ele>
  <time>2026-09-01T01:14:50Z</time>
  <course>156.69</course>
  <speed>0.05099019513592785</speed>
  <fix>3d</fix>
</trkpt>
<trkpt lat="33.8106151" lon="-118.39357">
  <ele>-5.02</ele>
  <time>2026-09-01T01:14:50Z</time>
  <course>75.15</course>
  <speed>0.0</speed>
  <fix>3d</fix>
</trkpt>
<trkpt lat="33.8106149" lon="-118.3935695">
  <ele>-5.546</ele>
  <time>2026-09-01T01:14:50Z</time>
  <course>156.69</course>
  <speed>0.05099019513592785</speed>
  <fix>3d</fix>
</trkpt>
<trkpt lat="33.8106151" lon="-118.39357">
  <ele>-5.03</ele>
  <time>2026-09-01T01:14:50Z</time>
  <course>75.0</course>
  <speed>0.0</speed>
  <fix>3d</fix>
</trkpt>
<trkpt lat="33.8106149" lon="-118.3935695">
  <ele>-5.546</ele>
  <time>2026-09-01T01:14:50Z</time>
  <course>156.69</course>
  <speed>0.05099019513592785</speed>
  <fix>3d</fix>
</trkpt>
<trkpt lat="33.8106151" lon="-118.39357">
  <ele>-5.03</ele>
  <time>2026-09-01T01:14:50Z</time>
  <course>75.0</course>
  <speed>0.0</speed>
  <fix>3d</fix>
</trkpt>
<trkpt lat="33.8106149" lon="-118.3935695">
  <ele>-5.545</ele>
  <time>2026-09-01T01:14:50Z</time>
  <course>156.69</course>
  <speed>0.0412310562561766</speed>
  <fix>3d</fix>
</trkpt>
<trkpt lat="33.8106151" lon="-118.39357">
  <ele>-5.03</ele>
  <time>2026-09-01T01:14:50Z</time>
  <course>74.93</course>
  <speed>0.0</speed>
  <fix>3d</fix>
</trkpt>
<trkpt lat="33.8106149" lon="-118.3935695">
  <ele>-5.545</ele>
  <time>2026-09-01T01:14:50Z</time>
  <course>156.68</course>
  <speed>0.0412310562561766</speed>
  <fix>3d</fix>
</trkpt>
<trkpt lat="33.8106151" lon="-118.39357">
  <ele>-5.03</ele>
  <time>2026-09-01T01:14:50Z</time>
  <course>74.93</course>
  <speed>0.0</speed>
  <fix>3d</fix>
</trkpt>
<trkpt lat="33.8106149" lon="-118.3935695">
  <ele>-5.544</ele>
  <time>2026-09-01T01:14:50Z</time>
  <course>156.68</course>
  <speed>0.0412310562561766</speed>
  <fix>3d</fix>
</trkpt>
<trkpt lat="33.8106151" lon="-118.39357">
  <ele>-5.02</ele>
  <time>2026-09-01T01:14:50Z</time>
  <course>74.88</course>
  <speed>0.0</speed>
  <fix>3d</fix>
</trkpt>
<trkpt lat="33.8106149" lon="-118.3935695">
  <ele>-5.549</ele>
  <time>2026-09-01T01:14:50Z</time>
  <course>156.68</course>
  <speed>0.0412310562561766</speed>
  <fix>3d</fix>
</trkpt>
<trkpt lat="33.8106151" lon="-118.39357">
  <ele>-5.02</ele>
  <time>2026-09-01T01:14:50Z</time>
  <course>74.88</course>
  <speed>0.0</speed>
  <fix>3d</fix>
</trkpt>
<trkpt lat="33.8106149" lon="-118.3935695">
  <ele>-5.57</ele>
  <time>2026-09-01T01:14:50Z</time>
  <course>156.68</course>
  <speed>0.04</speed>
  <fix>3d</fix>
</trkpt>
<trkpt lat="33.8106151" lon="-118.39357">
  <ele>-5.02</ele>
  <time>2026-09-01T01:14:50Z</time>
  <course>74.64</course>
  <speed>0.0</speed>
  <fix>3d</fix>
</trkpt>
<trkpt lat="33.8106149" lon="-118.3935695">
  <ele>-5.612</ele>
  <time>2026-09-01T01:14:50Z</time>
  <course>156.67</course>
  <speed>0.04</speed>
  <fix>3d</fix>
</trkpt>
<trkpt lat="33.8106151" lon="-118.39357">
  <ele>-5.02</ele>
  <time>2026-09-01T01:14:50Z</time>
  <course>74.64</course>
  <speed>0.0</speed>
  <fix>3d</fix>
</trkpt>
<trkpt lat="33.8106149" lon="-118.3935695">
  <ele>-5.613</ele>
  <time>2026-09-01T01:14:50Z</time>
  <course>156.67</course>
  <speed>0.04</speed>
  <fix>3d</fix>
</trkpt>
<trkpt lat="33.8106149" lon="-118.3935695">
  <ele>-5.674</ele>
  <time>2026-09-01T01:14:50Z</time>
  <course>156.67</course>
  <speed>0.04</speed>
  <fix>3d</fix>
</trkpt>
<trkpt lat="33.8106151" lon="-118.3935699">
  <ele>-5.07</ele>
  <time>2026-09-01T01:14:50Z</time>
  <course>73.94</course>
  <speed>0.01</speed>
  <fix>3d</fix>
</trkpt>
<trkpt lat="33.8106149" lon="-118.3935695">
  <ele>-5.676</ele>
  <time>2026-09-01T01:14:50Z</time>
  <course>156.67</course>
  <speed>0.04</speed>
  <fix>3d</fix>
</trkpt>
<trkpt lat="33.8106149" lon="-118.3935695">
  <ele>-5.755</ele>
  <time>2026-09-01T01:14:50Z</time>
  <course>156.67</course>
  <speed>0.04</speed>
  <fix>3d</fix>
</trkpt>
<trkpt lat="33.8106151" lon="-118.3935699">
  <ele>-5.07</ele>
  <time>2026-09-01T01:14:50Z</time>
  <course>73.94</course>
  <speed>0.01</speed>
  <fix>3d</fix>
</trkpt>
<trkpt lat="33.8106149" lon="-118.3935695">
  <ele>-5.785</ele>
  <time>2026-09-01T01:14:50Z</time>
  <course>156.67</course>
  <speed>0.04</speed>
  <fix>3d</fix>
</trkpt>
<trkpt lat="33.8106149" lon="-118.3935696">
  <ele>-5.856</ele>
  <time>2026-09-01T01:14:50Z</time>
  <course>156.67</course>
  <speed>0.03</speed>
  <fix>3d</fix>
</trkpt>
<trkpt lat="33.8106151" lon="-118.3935699">
  <ele>-5.18</ele>
  <time>2026-09-01T01:14:50Z</time>
  <course>73.04</course>
  <speed>0.01</speed>
  <fix>3d</fix>
</trkpt>
<trkpt lat="33.8106149" lon="-118.3935696">
  <ele>-5.89</ele>
  <time>2026-09-01T01:14:50Z</time>
  <course>156.67</course>
  <speed>0.03</speed>
  <fix>3d</fix>
</trkpt>
<trkpt lat="33.8106149" lon="-118.3935696">
  <ele>-5.976</ele>
  <time>2026-09-01T01:14:50Z</time>
  <course>156.67</course>
  <speed>0.03</speed>
  <fix>3d</fix>
</trkpt>
<trkpt lat="33.8106151" lon="-118.3935699">
  <ele>-5.18</ele>
  <time>2026-09-01T01:14:50Z</time>
  <course>73.04</course>
  <speed>0.01</speed>
  <fix>3d</fix>
</trkpt>
<trkpt lat="33.8106149" lon="-118.3935695">
  <ele>-6.012</ele>
  <time>2026-09-01T01:14:50Z</time>
  <course>156.67</course>
  <speed>0.03</speed>
  <fix>3d</fix>
</trkpt>
<trkpt lat="33.810615" lon="-118.3935696">
  <ele>-6.102</ele>
  <time>2026-09-01T01:14:50Z</time>
  <course>156.67</course>
  <speed>0.03</speed>
  <fix>3d</fix>
</trkpt>
<trkpt lat="33.8106151" lon="-118.3935699">
  <ele>-5.36</ele>
  <time>2026-09-01T01:14:50Z</time>
  <course>72.4</course>
  <speed>0.01</speed>
  <fix>3d</fix>
</trkpt>
<trkpt lat="33.810615" lon="-118.3935696">
  <ele>-6.142</ele>
  <time>2026-09-01T01:14:50Z</time>
  <course>156.67</course>
  <speed>0.03</speed>
  <fix>3d</fix>
</trkpt>
<trkpt lat="33.810615" lon="-118.3935696">
  <ele>-6.229</ele>
  <time>2026-09-01T01:14:50Z</time>
  <course>156.67</course>
  <speed>0.03</speed>
  <fix>3d</fix>
</trkpt>
<trkpt lat="33.8106151" lon="-118.3935699">
  <ele>-5.36</ele>
  <time>2026-09-01T01:14:50Z</time>
  <course>72.4</course>
  <speed>0.01</speed>
  <fix>3d</fix>
</trkpt>
<trkpt lat="33.810615" lon="-118.3935695">
  <ele>-6.267</ele>
  <time>2026-09-01T01:14:50Z</time>
  <course>156.67</course>
  <speed>0.03</speed>
  <fix>3d</fix>
</trkpt>
<trkpt lat="33.810615" lon="-118.3935696">
  <ele>-6.356</ele>
  <time>2026-09-01T01:14:50Z</time>
  <course>156.67</course>
  <speed>0.03</speed>
  <fix>3d</fix>
</trkpt>
<trkpt lat="33.8106151" lon="-118.3935699">
  <ele>-5.59</ele>
  <time>2026-09-01T01:14:50Z</time>
  <course>72.15</course>
  <speed>0.01</speed>
  <fix>3d</fix>
</trkpt>
<trkpt lat="33.810615" lon="-118.3935696">
  <ele>-6.388</ele>
  <time>2026-09-01T01:14:50Z</time>
  <course>156.67</course>
  <speed>0.03</speed>
  <fix>3d</fix>
</trkpt>
<trkpt lat="33.810615" lon="-118.3935696">
  <ele>-6.484</ele>
  <time>2026-09-01T01:14:50Z</time>
  <course>156.67</course>
  <speed>0.03</speed>
  <fix>3d</fix>
</trkpt>
<trkpt lat="33.8106151" lon="-118.3935699">
  <ele>-5.59</ele>
  <time>2026-09-01T01:14:50Z</time>
  <course>72.15</course>
  <speed>0.01</speed>
  <fix>3d</fix>
</trkpt>
<trkpt lat="33.810615" lon="-118.3935696">
  <ele>-6.522</ele>
  <time>2026-09-01T01:14:50Z</time>
  <course>156.67</course>
  <speed>0.03</speed>
  <fix>3d</fix>
</trkpt>
<trkpt lat="33.810615" lon="-118.3935696">
  <ele>-6.611</ele>
  <time>2026-09-01T01:14:50Z</time>
  <course>156.67</course>
  <speed>0.03</speed>
  <fix>3d</fix>
</trkpt>
<trkpt lat="33.8106151" lon="-118.3935698">
  <ele>-5.82</ele>
  <time>2026-09-01T01:14:50Z</time>
  <course>72.1</course>
  <speed>0.01</speed>
  <fix>3d</fix>
</trkpt>
<trkpt lat="33.810615" lon="-118.3935696">
  <ele>-6.652</ele>
  <time>2026-09-01T01:14:50Z</time>
  <course>156.67</course>
  <speed>0.03</speed>
  <fix>3d</fix>
</trkpt>
<trkpt lat="33.810615" lon="-118.3935695">
  <ele>-6.737</ele>
  <time>2026-09-01T01:14:50Z</time>
  <course>156.67</course>
  <speed>0.03</speed>
  <fix>3d</fix>
</trkpt>
<trkpt lat="33.8106151" lon="-118.3935698">
  <ele>-5.82</ele>
  <time>2026-09-01T01:14:50Z</time>
  <course>72.1</course>
  <speed>0.01</speed>
  <fix>3d</fix>
</trkpt>
<trkpt lat="33.810615" lon="-118.3935695">
  <ele>-6.774</ele>
  <time>2026-09-01T01:14:50Z</time>
  <course>156.67</course>
  <speed>0.03</speed>
  <fix>3d</fix>
</trkpt>
<trkpt lat="33.810615" lon="-118.3935695">
  <ele>-6.862</ele>
  <time>2026-09-01T01:14:50Z</time>
  <course>156.67</course>
  <speed>0.03</speed>
  <fix>3d</fix>
</trkpt>
<trkpt lat="33.8106151" lon="-118.3935698">
  <ele>-6.06</ele>
  <time>2026-09-01T01:14:50Z</time>
  <course>72.08</course>
  <speed>0.01</speed>
  <fix>3d</fix>
</trkpt>
<trkpt lat="33.810615" lon="-118.3935695">
  <ele>-6.899</ele>
  <time>2026-09-01T01:14:50Z</time>
  <course>156.67</course>
  <speed>0.03</speed>
  <fix>3d</fix>
</trkpt>
<trkpt lat="33.810615" lon="-118.3935695">
  <ele>-6.987</ele>
  <time>2026-09-01T01:14:50Z</time>
  <course>156.67</course>
  <speed>0.03</speed>
  <fix>3d</fix>
</trkpt>
<trkpt lat="33.8106151" lon="-118.3935698">
  <ele>-6.06</ele>
  <time>2026-09-01T01:14:50Z</time>
  <course>72.08</course>
  <speed>0.01</speed>
  <fix>3d</fix>
</trkpt>
<trkpt lat="33.810615" lon="-118.3935695">
  <ele>-6.989</ele>
  <time>2026-09-01T01:14:50Z</time>
  <course>156.67</course>
  <speed>0.03</speed>
  <fix>3d</fix>
</trkpt>
<trkpt lat="33.810615" lon="-118.3935695">
  <ele>-7.113</ele>
  <time>2026-09-01T01:14:50Z</time>
  <course>156.67</course>
  <speed>0.03</speed>
  <fix>3d</fix>
</trkpt>
<trkpt lat="33.8106151" lon="-118.3935698">
  <ele>-6.29</ele>
  <time>2026-09-01T01:14:50Z</time>
  <course>72.02</course>
  <speed>0.01</speed>
  <fix>3d</fix>
</trkpt>
<trkpt lat="33.810615" lon="-118.3935695">
  <ele>-7.15</ele>
  <time>2026-09-01T01:14:50Z</time>
  <course>156.67</course>
  <speed>0.03</speed>
  <fix>3d</fix>
</trkpt>
<trkpt lat="33.810615" lon="-118.3935695">
  <ele>-7.238</ele>
  <time>2026-09-01T01:14:50Z</time>
  <course>156.67</course>
  <speed>0.03</speed>
  <fix>3d</fix>
</trkpt>
<trkpt lat="33.8106151" lon="-118.3935698">
  <ele>-6.29</ele>
  <time>2026-09-01T01:14:50Z</time>
  <course>72.02</course>
  <speed>0.01</speed>
  <fix>3d</fix>
</trkpt>
<trkpt lat="33.810615" lon="-118.3935695">
  <ele>-7.271</ele>
  <time>2026-09-01T01:14:50Z</time>
  <course>156.67</course>
  <speed>0.03</speed>
  <fix>3d</fix>
</trkpt>
<trkpt lat="33.810615" lon="-118.3935695">
  <ele>-7.363</ele>
  <time>2026-09-01T01:14:50Z</time>
  <course>156.68</course>
  <speed>0.03</speed>
  <fix>3d</fix>
</trkpt>
<trkpt lat="33.8106151" lon="-118.3935697">
  <ele>-6.52</ele>
  <time>2026-09-01T01:14:50Z</time>
  <course>71.93</course>
  <speed>0.01</speed>
  <fix>3d</fix>
</trkpt>
<trkpt lat="33.810615" lon="-118.3935695">
  <ele>-7.402</ele>
  <time>2026-09-01T01:14:50Z</time>
  <course>156.68</course>
  <speed>0.03</speed>
  <fix>3d</fix>
</trkpt>
<trkpt lat="33.810615" lon="-118.3935695">
  <ele>-7.486</ele>
  <time>2026-09-01T01:14:50Z</time>
  <course>156.68</course>
  <speed>0.03</speed>
  <fix>3d</fix>
</trkpt>
<trkpt lat="33.8106151" lon="-118.3935697">
  <ele>-6.52</ele>
  <time>2026-09-01T01:14:50Z</time>
  <course>71.93</course>
  <speed>0.01</speed>
  <fix>3d</fix>
</trkpt>
<trkpt lat="33.810615" lon="-118.3935695">
  <ele>-7.523</ele>
  <time>2026-09-01T01:14:50Z</time>
  <course>156.68</course>
  <speed>0.03</speed>
  <fix>3d</fix>
</trkpt>
<trkpt lat="33.810615" lon="-118.3935695">
  <ele>-7.608</ele>
  <time>2026-09-01T01:14:50Z</time>
  <course>156.68</course>
  <speed>0.03</speed>
  <fix>3d</fix>
</trkpt>
<trkpt lat="33.8106152" lon="-118.3935697">
  <ele>-6.77</ele>
  <time>2026-09-01T01:14:50Z</time>
  <course>71.82</course>
  <speed>0.01</speed>
  <fix>3d</fix>
</trkpt>
<trkpt lat="33.810615" lon="-118.3935695">
  <ele>-7.648</ele>
  <time>2026-09-01T01:14:50Z</time>
  <course>156.68</course>
  <speed>0.03</speed>
  <fix>3d</fix>
</trkpt>
<trkpt lat="33.810615" lon="-118.3935695">
  <ele>-7.73</ele>
  <time>2026-09-01T01:14:50Z</time>
  <course>156.68</course>
  <speed>0.03</speed>
  <fix>3d</fix>
</trkpt>
<trkpt lat="33.8106152" lon="-118.3935697">
  <ele>-6.77</ele>
  <time>2026-09-01T01:14:50Z</time>
  <course>71.82</course>
  <speed>0.01</speed>
  <fix>3d</fix>
</trkpt>
<trkpt lat="33.810615" lon="-118.3935695">
  <ele>-7.767</ele>
  <time>2026-09-01T01:14:50Z</time>
  <course>156.68</course>
  <speed>0.03</speed>
  <fix>3d</fix>
</trkpt>
<trkpt lat="33.810615" lon="-118.3935695">
  <ele>-7.853</ele>
  <time>2026-09-01T01:14:50Z</time>
  <course>156.68</course>
  <speed>0.03</speed>
  <fix>3d</fix>
</trkpt>
<trkpt lat="33.8106152" lon="-118.3935697">
  <ele>-7.0</ele>
  <time>2026-09-01T01:14:50Z</time>
  <course>71.74</course>
  <speed>0.01</speed>
  <fix>3d</fix>
</trkpt>
<trkpt lat="33.810615" lon="-118.3935695">
  <ele>-7.89</ele>
  <time>2026-09-01T01:14:50Z</time>
  <course>156.68</course>
  <speed>0.03</speed>
  <fix>3d</fix>
</trkpt>
<trkpt lat="33.810615" lon="-118.3935695">
  <ele>-7.976</ele>
  <time>2026-09-01T01:14:50Z</time>
  <course>156.68</course>
  <speed>0.03</speed>
  <fix>3d</fix>
</trkpt>
<trkpt lat="33.8106152" lon="-118.3935697">
  <ele>-7.0</ele>
  <time>2026-09-01T01:14:50Z</time>
  <course>71.74</course>
  <speed>0.01</speed>
  <fix>3d</fix>
</trkpt>
<trkpt lat="33.810615" lon="-118.3935695">
  <ele>-8.013</ele>
  <time>2026-09-01T01:14:50Z</time>
  <course>156.68</course>
  <speed>0.03</speed>
  <fix>3d</fix>
</trkpt>
<trkpt lat="33.810615" lon="-118.3935695">
  <ele>-8.098</ele>
  <time>2026-09-01T01:14:50Z</time>
  <course>156.68</course>
  <speed>0.03</speed>
  <fix>3d</fix>
</trkpt>
<trkpt lat="33.8106152" lon="-118.3935697">
  <ele>-7.24</ele>
  <time>2026-09-01T01:14:50Z</time>
  <course>71.71</course>
  <speed>0.01</speed>
  <fix>3d</fix>
</trkpt>
<trkpt lat="33.810615" lon="-118.3935695">
  <ele>-8.135</ele>
  <time>2026-09-01T01:14:50Z</time>
  <course>156.68</course>
  <speed>0.03</speed>
  <fix>3d</fix>
</trkpt>
<trkpt lat="33.810615" lon="-118.3935694">
  <ele>-8.219</ele>
  <time>2026-09-01T01:14:50Z</time>
  <course>156.68</course>
  <speed>0.03</speed>
  <fix>3d</fix>
</trkpt>
<trkpt lat="33.8106152" lon="-118.3935697">
  <ele>-7.24</ele>
  <time>2026-09-01T01:14:50Z</time>
  <course>71.71</course>
  <speed>0.01</speed>
  <fix>3d</fix>
</trkpt>
<trkpt lat="33.810615" lon="-118.3935694">
  <ele>-8.222</ele>
  <time>2026-09-01T01:14:50Z</time>
  <course>156.68</course>
  <speed>0.03</speed>
  <fix>3d</fix>
</trkpt>
<trkpt lat="33.8106151" lon="-118.3935694">
  <ele>-8.34</ele>
  <time>2026-09-01T01:14:50Z</time>
  <course>156.68</course>
  <speed>0.03</speed>
  <fix>3d</fix>
</trkpt>
<trkpt lat="33.8106152" lon="-118.3935696">
  <ele>-7.48</ele>
  <time>2026-09-01T01:14:50Z</time>
  <course>71.72</course>
  <speed>0.01</speed>
  <fix>3d</fix>
</trkpt>
<trkpt lat="33.8106151" lon="-118.3935694">
  <ele>-8.343</ele>
  <time>2026-09-01T01:14:50Z</time>
  <course>156.68</course>
  <speed>0.03</speed>
  <fix>3d</fix>
</trkpt>
<trkpt lat="33.8106151" lon="-118.3935694">
  <ele>-8.461</ele>
  <time>2026-09-01T01:14:50Z</time>
  <course>156.69</course>
  <speed>0.03</speed>
  <fix>3d</fix>
</trkpt>
<trkpt lat="33.8106152" lon="-118.3935696">
  <ele>-7.48</ele>
  <time>2026-09-01T01:14:50Z</time>
  <course>71.72</course>
  <speed>0.01</speed>
  <fix>3d</fix>
</trkpt>
<trkpt lat="33.8106151" lon="-118.3935694">
  <ele>-8.499</ele>
  <time>2026-09-01T01:14:50Z</time>
  <course>156.69</course>
  <speed>0.03</speed>
  <fix>3d</fix>
</trkpt>
<trkpt lat="33.8106151" lon="-118.3935694">
  <ele>-8.583</ele>
  <time>2026-09-01T01:14:50Z</time>
  <course>156.69</course>
  <speed>0.03</speed>
  <fix>3d</fix>
</trkpt>
<trkpt lat="33.8106152" lon="-118.3935696">
  <ele>-7.71</ele>
  <time>2026-09-01T01:14:50Z</time>
  <course>71.71</course>
  <speed>0.01</speed>
  <fix>3d</fix>
</trkpt>
<trkpt lat="33.8106151" lon="-118.3935694">
  <ele>-8.623</ele>
  <time>2026-09-01T01:14:50Z</time>
  <course>156.69</course>
  <speed>0.03</speed>
  <fix>3d</fix>
</trkpt>
<trkpt lat="33.8106151" lon="-118.3935694">
  <ele>-8.705</ele>
  <time>2026-09-01T01:14:50Z</time>
  <course>156.69</course>
  <speed>0.03</speed>
  <fix>3d</fix>
</trkpt>
<trkpt lat="33.8106152" lon="-118.3935696">
  <ele>-7.71</ele>
  <time>2026-09-01T01:14:50Z</time>
  <course>71.71</course>
  <speed>0.01</speed>
  <fix>3d</fix>
</trkpt>
<trkpt lat="33.8106151" lon="-118.3935694">
  <ele>-8.741</ele>
  <time>2026-09-01T01:14:50Z</time>
  <course>156.69</course>
  <speed>0.03</speed>
  <fix>3d</fix>
</trkpt>
<trkpt lat="33.8106151" lon="-118.3935694">
  <ele>-8.825</ele>
  <time>2026-09-01T01:14:50Z</time>
  <course>156.69</course>
  <speed>0.03</speed>
  <fix>3d</fix>
</trkpt>
<trkpt lat="33.8106152" lon="-118.3935696">
  <ele>-7.95</ele>
  <time>2026-09-01T01:14:50Z</time>
  <course>71.66</course>
  <speed>0.01</speed>
  <fix>3d</fix>
</trkpt>
<trkpt lat="33.8106151" lon="-118.3935694">
  <ele>-8.862</ele>
  <time>2026-09-01T01:14:50Z</time>
  <course>156.69</course>
  <speed>0.03</speed>
  <fix>3d</fix>
</trkpt>
<trkpt lat="33.8106151" lon="-118.3935694">
  <ele>-8.946</ele>
  <time>2026-09-01T01:14:50Z</time>
  <course>156.69</course>
  <speed>0.03</speed>
  <fix>3d</fix>
</trkpt>
<trkpt lat="33.8106152" lon="-118.3935696">
  <ele>-7.95</ele>
  <time>2026-09-01T01:14:50Z</time>
  <course>71.66</course>
  <speed>0.01</speed>
  <fix>3d</fix>
</trkpt>
<trkpt lat="33.8106151" lon="-118.3935694">
  <ele>-8.982</ele>
  <time>2026-09-01T01:14:50Z</time>
  <course>156.69</course>
  <speed>0.03</speed>
  <fix>3d</fix>
</trkpt>
<trkpt lat="33.8106151" lon="-118.3935694">
  <ele>-9.066</ele>
  <time>2026-09-01T01:14:50Z</time>
  <course>156.7</course>
  <speed>0.03</speed>
  <fix>3d</fix>
</trkpt>
<trkpt lat="33.8106152" lon="-118.3935695">
  <ele>-8.19</ele>
  <time>2026-09-01T01:14:50Z</time>
  <course>71.58</course>
  <speed>0.01</speed>
  <fix>3d</fix>
</trkpt>
<trkpt lat="33.8106151" lon="-118.3935693">
  <ele>-9.102</ele>
  <time>2026-09-01T01:14:50Z</time>
  <course>156.7</course>
  <speed>0.03</speed>
  <fix>3d</fix>
</trkpt>
<trkpt lat="33.8106151" lon="-118.3935693">
  <ele>-9.186</ele>
  <time>2026-09-01T01:14:50Z</time>
  <course>156.7</course>
  <speed>0.03</speed>
  <fix>3d</fix>
</trkpt>
<trkpt lat="33.8106152" lon="-118.3935695">
  <ele>-8.19</ele>
  <time>2026-09-01T01:14:50Z</time>
  <course>71.58</course>
  <speed>0.01</speed>
  <fix>3d</fix>
</trkpt>
<trkpt lat="33.8106151" lon="-118.3935693">
  <ele>-9.222</ele>
  <time>2026-09-01T01:14:50Z</time>
  <course>156.7</course>
  <speed>0.03</speed>
  <fix>3d</fix>
</trkpt>
<trkpt lat="33.8106151" lon="-118.3935693">
  <ele>-9.306</ele>
  <time>2026-09-01T01:14:50Z</time>
  <course>156.7</course>
  <speed>0.03</speed>
  <fix>3d</fix>
</trkpt>
<trkpt lat="33.8106152" lon="-118.3935695">
  <ele>-8.42</ele>
  <time>2026-09-01T01:14:50Z</time>
  <course>71.5</course>
  <speed>0.01</speed>
  <fix>3d</fix>
</trkpt>
<trkpt lat="33.8106151" lon="-118.3935693">
  <ele>-9.345</ele>
  <time>2026-09-01T01:14:50Z</time>
  <course>156.7</course>
  <speed>0.03</speed>
  <fix>3d</fix>
</trkpt>
<trkpt lat="33.8106151" lon="-118.3935693">
  <ele>-9.425</ele>
  <time>2026-09-01T01:14:50Z</time>
  <course>156.7</course>
  <speed>0.03</speed>
  <fix>3d</fix>
</trkpt>
<trkpt lat="33.8106152" lon="-118.3935695">
  <ele>-8.42</ele>
  <time>2026-09-01T01:14:50Z</time>
  <course>71.5</course>
  <speed>0.01</speed>
  <fix>3d</fix>
</trkpt>
<trkpt lat="33.8106151" lon="-118.3935693">
  <ele>-9.467</ele>
  <time>2026-09-01T01:14:50Z</time>
  <course>156.7</course>
  <speed>0.03</speed>
  <fix>3d</fix>
</trkpt>
<trkpt lat="33.8106151" lon="-118.3935693">
  <ele>-9.545</ele>
  <time>2026-09-01T01:14:50Z</time>
  <course>156.71</course>
  <speed>0.03</speed>
  <fix>3d</fix>
</trkpt>
<trkpt lat="33.8106152" lon="-118.3935695">
  <ele>-8.66</ele>
  <time>2026-09-01T01:14:50Z</time>
  <course>71.45</course>
  <speed>0.01</speed>
  <fix>3d</fix>
</trkpt>
<trkpt lat="33.8106151" lon="-118.3935693">
  <ele>-9.547</ele>
  <time>2026-09-01T01:14:50Z</time>
  <course>156.71</course>
  <speed>0.03</speed>
  <fix>3d</fix>
</trkpt>
<trkpt lat="33.8106151" lon="-118.3935693">
  <ele>-9.666</ele>
  <time>2026-09-01T01:14:50Z</time>
  <course>156.71</course>
  <speed>0.04</speed>
  <fix>3d</fix>
</trkpt>
<trkpt lat="33.8106152" lon="-118.3935695">
  <ele>-8.66</ele>
  <time>2026-09-01T01:14:50Z</time>
  <course>71.45</course>
  <speed>0.01</speed>
  <fix>3d</fix>
</trkpt>
<trkpt lat="33.8106151" lon="-118.3935693">
  <ele>-9.668</ele>
  <time>2026-09-01T01:14:50Z</time>
  <course>156.71</course>
  <speed>0.04</speed>
  <fix>3d</fix>
</trkpt>
<trkpt lat="33.8106151" lon="-118.3935693">
  <ele>-9.787</ele>
  <time>2026-09-01T01:14:50Z</time>
  <course>156.71</course>
  <speed>0.04</speed>
  <fix>3d</fix>
</trkpt>
<trkpt lat="33.8106152" lon="-118.3935695">
  <ele>-8.9</ele>
  <time>2026-09-01T01:14:50Z</time>
  <course>71.45</course>
  <speed>0.01</speed>
  <fix>3d</fix>
</trkpt>
<trkpt lat="33.8106151" lon="-118.3935692">
  <ele>-9.825</ele>
  <time>2026-09-01T01:14:50Z</time>
  <course>156.71</course>
  <speed>0.04</speed>
  <fix>3d</fix>
</trkpt>
<trkpt lat="33.8106151" lon="-118.3935692">
  <ele>-9.908</ele>
  <time>2026-09-01T01:14:50Z</time>
  <course>156.71</course>
  <speed>0.04</speed>
  <fix>3d</fix>
</trkpt>
<trkpt lat="33.8106152" lon="-118.3935695">
  <ele>-8.9</ele>
  <time>2026-09-01T01:14:50Z</time>
  <course>71.45</course>
  <speed>0.01</speed>
  <fix>3d</fix>
</trkpt>
<trkpt lat="33.8106151" lon="-118.3935692">
  <ele>-9.946</ele>
  <time>2026-09-01T01:14:50Z</time>
  <course>156.71</course>
  <speed>0.04</speed>
  <fix>3d</fix>
</trkpt>
<trkpt lat="33.8106151" lon="-118.3935692">
  <ele>-10.028</ele>
  <time>2026-09-01T01:14:50Z</time>
  <course>156.71</course>
  <speed>0.04</speed>
  <fix>3d</fix>
</trkpt>
<trkpt lat="33.8106152" lon="-118.3935694">
  <ele>-9.13</ele>
  <time>2026-09-01T01:14:50Z</time>
  <course>71.47</course>
  <speed>0.01</speed>
  <fix>3d</fix>
</trkpt>
<trkpt lat="33.8106151" lon="-118.3935692">
  <ele>-10.064</ele>
  <time>2026-09-01T01:14:50Z</time>
  <course>156.71</course>
  <speed>0.04</speed>
  <fix>3d</fix>
</trkpt>
<trkpt lat="33.8106151" lon="-118.3935692">
  <ele>-10.148</ele>
  <time>2026-09-01T01:14:50Z</time>
  <course>156.72</course>
  <speed>0.04</speed>
  <fix>3d</fix>
</trkpt>
<trkpt lat="33.8106152" lon="-118.3935694">
  <ele>-9.13</ele>
  <time>2026-09-01T01:14:50Z</time>
  <course>71.47</course>
  <speed>0.01</speed>
  <fix>3d</fix>
</trkpt>
<trkpt lat="33.8106151" lon="-118.3935692">
  <ele>-10.187</ele>
  <time>2026-09-01T01:14:50Z</time>
  <course>156.72</course>
  <speed>0.04</speed>
  <fix>3d</fix>
</trkpt>
<trkpt lat="33.8106151" lon="-118.3935692">
  <ele>-10.268</ele>
  <time>2026-09-01T01:14:50Z</time>
  <course>156.72</course>
  <speed>0.04</speed>
  <fix>3d</fix>
</trkpt>
<trkpt lat="33.8106152" lon="-118.3935694">
  <ele>-9.37</ele>
  <time>2026-09-01T01:14:50Z</time>
  <course>71.46</course>
  <speed>0.01</speed>
  <fix>3d</fix>
</trkpt>
<trkpt lat="33.8106151" lon="-118.3935692">
  <ele>-10.304</ele>
  <time>2026-09-01T01:14:50Z</time>
  <course>156.72</course>
  <speed>0.04</speed>
  <fix>3d</fix>
</trkpt>
<trkpt lat="33.8106151" lon="-118.3935692">
  <ele>-10.388</ele>
  <time>2026-09-01T01:14:50Z</time>
  <course>156.72</course>
  <speed>0.04</speed>
  <fix>3d</fix>
</trkpt>
<trkpt lat="33.8106152" lon="-118.3935694">
  <ele>-9.37</ele>
  <time>2026-09-01T01:14:50Z</time>
  <course>71.46</course>
  <speed>0.01</speed>
  <fix>3d</fix>
</trkpt>
<trkpt lat="33.8106151" lon="-118.3935692">
  <ele>-10.424</ele>
  <time>2026-09-01T01:14:50Z</time>
  <course>156.72</course>
  <speed>0.04</speed>
  <fix>3d</fix>
</trkpt>
<trkpt lat="33.8106151" lon="-118.3935691">
  <ele>-10.509</ele>
  <time>2026-09-01T01:14:50Z</time>
  <course>156.72</course>
  <speed>0.04</speed>
  <fix>3d</fix>
</trkpt>
<trkpt lat="33.8106152" lon="-118.3935694">
  <ele>-9.61</ele>
  <time>2026-09-01T01:14:50Z</time>
  <course>71.41</course>
  <speed>0.01</speed>
  <fix>3d</fix>
</trkpt>
<trkpt lat="33.8106151" lon="-118.3935691">
  <ele>-10.548</ele>
  <time>2026-09-01T01:14:50Z</time>
  <course>156.72</course>
  <speed>0.04</speed>
  <fix>3d</fix>
</trkpt>
<trkpt lat="33.8106151" lon="-118.3935691">
  <ele>-10.63</ele>
  <time>2026-09-01T01:14:50Z</time>
  <course>156.73</course>
  <speed>0.04</speed>
  <fix>3d</fix>
</trkpt>
<trkpt lat="33.8106152" lon="-118.3935694">
  <ele>-9.61</ele>
  <time>2026-09-01T01:14:50Z</time>
  <course>71.41</course>
  <speed>0.01</speed>
  <fix>3d</fix>
</trkpt>
<trkpt lat="33.8106151" lon="-118.3935691">
  <ele>-10.67</ele>
  <time>2026-09-01T01:14:50Z</time>
  <course>156.73</course>
  <speed>0.04</speed>
  <fix>3d</fix>
</trkpt>
<trkpt lat="33.8106151" lon="-118.3935691">
  <ele>-10.751</ele>
  <time>2026-09-01T01:14:50Z</time>
  <course>156.73</course>
  <speed>0.04</speed>
  <fix>3d</fix>
</trkpt>
<trkpt lat="33.8106152" lon="-118.3935693">
  <ele>-9.84</ele>
  <time>2026-09-01T01:14:50Z</time>
  <course>71.33</course>
  <speed>0.01</speed>
  <fix>3d</fix>
</trkpt>
<trkpt lat="33.8106151" lon="-118.3935691">
  <ele>-10.788</ele>
  <time>2026-09-01T01:14:50Z</time>
  <course>156.73</course>
  <speed>0.04</speed>
  <fix>3d</fix>
</trkpt>
<trkpt lat="33.8106151" lon="-118.3935691">
  <ele>-10.872</ele>
  <time>2026-09-01T01:14:50Z</time>
  <course>156.73</course>
  <speed>0.04</speed>
  <fix>3d</fix>
</trkpt>
<trkpt lat="33.8106152" lon="-118.3935693">
  <ele>-9.84</ele>
  <time>2026-09-01T01:14:50Z</time>
  <course>71.33</course>
  <speed>0.01</speed>
  <fix>3d</fix>
</trkpt>
<trkpt lat="33.8106151" lon="-118.3935691">
  <ele>-10.911</ele>
  <time>2026-09-01T01:14:50Z</time>
  <course>156.73</course>
  <speed>0.04</speed>
  <fix>3d</fix>
</trkpt>
<trkpt lat="33.8106151" lon="-118.3935691">
  <ele>-10.991</ele>
  <time>2026-09-01T01:14:50Z</time>
  <course>156.73</course>
  <speed>0.04</speed>
  <fix>3d</fix>
</trkpt>
<trkpt lat="33.8106152" lon="-118.3935693">
  <ele>-10.08</ele>
  <time>2026-09-01T01:14:50Z</time>
  <course>71.27</course>
  <speed>0.01</speed>
  <fix>3d</fix>
</trkpt>
<trkpt lat="33.8106151" lon="-118.3935691">
  <ele>-10.994</ele>
  <time>2026-09-01T01:14:50Z</time>
  <course>156.73</course>
  <speed>0.04</speed>
  <fix>3d</fix>
</trkpt>
<trkpt lat="33.8106151" lon="-118.393569">
  <ele>-11.112</ele>
  <time>2026-09-01T01:14:50Z</time>
  <course>156.74</course>
  <speed>0.04</speed>
  <fix>3d</fix>
</trkpt>
<trkpt lat="33.8106152" lon="-118.3935693">
  <ele>-10.08</ele>
  <time>2026-09-01T01:14:50Z</time>
  <course>71.27</course>
  <speed>0.01</speed>
  <fix>3d</fix>
</trkpt>
<trkpt lat="33.8106151" lon="-118.393569">
  <ele>-11.151</ele>
  <time>2026-09-01T01:14:50Z</time>
  <course>156.74</course>
  <speed>0.04</speed>
  <fix>3d</fix>
</trkpt>
<trkpt lat="33.8106151" lon="-118.393569">
  <ele>-11.233</ele>
  <time>2026-09-01T01:14:50Z</time>
  <course>156.74</course>
  <speed>0.04</speed>
  <fix>3d</fix>
</trkpt>
<trkpt lat="33.8106152" lon="-118.3935693">
  <ele>-10.32</ele>
  <time>2026-09-01T01:14:50Z</time>
  <course>71.24</course>
  <speed>0.01</speed>
  <fix>3d</fix>
</trkpt>
<trkpt lat="33.8106151" lon="-118.393569">
  <ele>-11.236</ele>
  <time>2026-09-01T01:14:50Z</time>
  <course>156.74</course>
  <speed>0.04</speed>
  <fix>3d</fix>
</trkpt>
<trkpt lat="33.8106151" lon="-118.393569">
  <ele>-11.354</ele>
  <time>2026-09-01T01:14:50Z</time>
  <course>156.74</course>
  <speed>0.04</speed>
  <fix>3d</fix>
</trkpt>
<trkpt lat="33.8106152" lon="-118.3935693">
  <ele>-10.32</ele>
  <time>2026-09-01T01:14:50Z</time>
  <course>71.24</course>
  <speed>0.01</speed>
  <fix>3d</fix>
</trkpt>
<trkpt lat="33.8106151" lon="-118.393569">
  <ele>-11.396</ele>
  <time>2026-09-01T01:14:50Z</time>
  <course>156.74</course>
  <speed>0.04</speed>
  <fix>3d</fix>
</trkpt>
<trkpt lat="33.8106151" lon="-118.393569">
  <ele>-11.475</ele>
  <time>2026-09-01T01:14:50Z</time>
  <course>156.74</course>
  <speed>0.04</speed>
  <fix>3d</fix>
</trkpt>
<trkpt lat="33.8106152" lon="-118.3935692">
  <ele>-10.55</ele>
  <time>2026-09-01T01:14:50Z</time>
  <course>71.26</course>
  <speed>0.01</speed>
  <fix>3d</fix>
</trkpt>
<trkpt lat="33.8106151" lon="-118.393569">
  <ele>-11.511</ele>
  <time>2026-09-01T01:14:50Z</time>
  <course>156.75</course>
  <speed>0.04</speed>
  <fix>3d</fix>
</trkpt>
<trkpt lat="33.8106151" lon="-118.393569">
  <ele>-11.597</ele>
  <time>2026-09-01T01:14:50Z</time>
  <course>156.75</course>
  <speed>0.04</speed>
  <fix>3d</fix>
</trkpt>
<trkpt lat="33.8106152" lon="-118.3935692">
  <ele>-10.55</ele>
  <time>2026-09-01T01:14:50Z</time>
  <course>71.26</course>
  <speed>0.01</speed>
  <fix>3d</fix>
</trkpt>
<trkpt lat="33.8106151" lon="-118.393569">
  <ele>-11.634</ele>
  <time>2026-09-01T01:14:50Z</time>
  <course>156.75</course>
  <speed>0.04</speed>
  <fix>3d</fix>
</trkpt>
<trkpt lat="33.8106151" lon="-118.3935689">
  <ele>-11.719</ele>
  <time>2026-09-01T01:14:50Z</time>
  <course>156.75</course>
  <speed>0.0412310562561766</speed>
  <fix>3d</fix>
</trkpt>
<trkpt lat="33.8106152" lon="-118.3935692">
  <ele>-10.79</ele>
  <time>2026-09-01T01:14:50Z</time>
  <course>71.27</course>
  <speed>0.01</speed>
  <fix>3d</fix>
</trkpt>
<trkpt lat="33.8106151" lon="-118.3935689">
  <ele>-11.758</ele>
  <time>2026-09-01T01:14:50Z</time>
  <course>156.75</course>
  <speed>0.0412310562561766</speed>
  <fix>3d</fix>
</trkpt>
<trkpt lat="33.8106151" lon="-118.3935689">
  <ele>-11.84</ele>
  <time>2026-09-01T01:14:50Z</time>
  <course>156.75</course>
  <speed>0.0412310562561766</speed>
  <fix>3d</fix>
</trkpt>
<trkpt lat="33.8106152" lon="-118.3935692">
  <ele>-10.79</ele>
  <time>2026-09-01T01:14:50Z</time>
  <course>71.27</course>
  <speed>0.01</speed>
  <fix>3d</fix>
</trkpt>
<trkpt lat="33.8106151" lon="-118.3935689">
  <ele>-11.876</ele>
  <time>2026-09-01T01:14:50Z</time>
  <course>156.75</course>
  <speed>0.0412310562561766</speed>
  <fix>3d</fix>
</trkpt>
<trkpt lat="33.8106151" lon="-118.3935689">
  <ele>-11.962</ele>
  <time>2026-09-01T01:14:50Z</time>
  <course>156.76</course>
  <speed>0.0412310562561766</speed>
  <fix>3d</fix>
</trkpt>
<trkpt lat="33.8106152" lon="-118.3935692">
  <ele>-11.02</ele>
  <time>2026-09-01T01:14:50Z</time>
  <course>71.25</course>
  <speed>0.01</speed>
  <fix>3d</fix>
</trkpt>
<trkpt lat="33.8106151" lon="-118.3935689">
  <ele>-11.998</ele>
  <time>2026-09-01T01:14:50Z</time>
  <course>156.76</course>
  <speed>0.0412310562561766</speed>
  <fix>3d</fix>
</trkpt>
<trkpt lat="33.8106151" lon="-118.3935689">
  <ele>-12.083</ele>
  <time>2026-09-01T01:14:50Z</time>
  <course>156.76</course>
  <speed>0.0412310562561766</speed>
  <fix>3d</fix>
</trkpt>
<trkpt lat="33.8106152" lon="-118.3935692">
  <ele>-11.02</ele>
  <time>2026-09-01T01:14:50Z</time>
  <course>71.25</course>
  <speed>0.01</speed>
  <fix>3d</fix>
</trkpt>
<trkpt lat="33.8106151" lon="-118.3935689">
  <ele>-12.121</ele>
  <time>2026-09-01T01:14:50Z</time>
  <course>156.76</course>
  <speed>0.0412310562561766</speed>
  <fix>3d</fix>
</trkpt>
<trkpt lat="33.8106151" lon="-118.3935689">
  <ele>-12.203</ele>
  <time>2026-09-01T01:14:50Z</time>
  <course>156.76</course>
  <speed>0.0412310562561766</speed>
  <fix>3d</fix>
</trkpt>
<trkpt lat="33.8106152" lon="-118.3935691">
  <ele>-11.26</ele>
  <time>2026-09-01T01:14:50Z</time>
  <course>71.19</course>
  <speed>0.01</speed>
  <fix>3d</fix>
</trkpt>
<trkpt lat="33.8106151" lon="-118.3935689">
  <ele>-12.241</ele>
  <time>2026-09-01T01:14:50Z</time>
  <course>156.76</course>
  <speed>0.0412310562561766</speed>
  <fix>3d</fix>
</trkpt>
<trkpt lat="33.8106151" lon="-118.3935688">
  <ele>-12.324</ele>
  <time>2026-09-01T01:14:50Z</time>
  <course>156.76</course>
  <speed>0.0412310562561766</speed>
  <fix>3d</fix>
</trkpt>
<trkpt lat="33.8106152" lon="-118.3935691">
  <ele>-11.26</ele>
  <time>2026-09-01T01:14:50Z</time>
  <course>71.19</course>
  <speed>0.01</speed>
  <fix>3d</fix>
</trkpt>
<trkpt lat="33.8106151" lon="-118.3935688">
  <ele>-12.326</ele>
  <time>2026-09-01T01:14:50Z</time>
  <course>156.76</course>
  <speed>0.0412310562561766</speed>
  <fix>3d</fix>
</trkpt>
<trkpt lat="33.8106151" lon="-118.3935688">
  <ele>-12.445</ele>
  <time>2026-09-01T01:14:50Z</time>
  <course>156.77</course>
  <speed>0.0412310562561766</speed>
  <fix>3d</fix>
</trkpt>
<trkpt lat="33.8106152" lon="-118.3935691">
  <ele>-11.5</ele>
  <time>2026-09-01T01:14:50Z</time>
  <course>71.12</course>
  <speed>0.01</speed>
  <fix>3d</fix>
</trkpt>
<trkpt lat="33.8106151" lon="-118.3935688">
  <ele>-12.501</ele>
  <time>2026-09-01T01:14:50Z</time>
  <course>156.77</course>
  <speed>0.0412310562561766</speed>
  <fix>3d</fix>
</trkpt>
<trkpt lat="33.8106151" lon="-118.3935688">
  <ele>-12.565</ele>
  <time>2026-09-01T01:14:50Z</time>
  <course>156.77</course>
  <speed>0.0412310562561766</speed>
  <fix>3d</fix>
</trkpt>
<trkpt lat="33.8106152" lon="-118.3935691">
  <ele>-11.5</ele>
  <time>2026-09-01T01:14:50Z</time>
  <course>71.12</course>
  <speed>0.01</speed>
  <fix>3d</fix>
</trkpt>
<trkpt lat="33.8106151" lon="-118.3935688">
  <ele>-12.568</ele>
  <time>2026-09-01T01:14:50Z</time>
  <course>156.77</course>
  <speed>0.0412310562561766</speed>
  <fix>3d</fix>
</trkpt>
<trkpt lat="33.8106151" lon="-118.3935688">
  <ele>-12.687</ele>
  <time>2026-09-01T01:14:50Z</time>
  <course>156.77</course>
  <speed>0.05099019513592785</speed>
  <fix>3d</fix>
</trkpt>
<trkpt lat="33.8106152" lon="-118.3935691">
  <ele>-11.73</ele>
  <time>2026-09-01T01:14:50Z</time>
  <course>71.08</course>
  <speed>0.01</speed>
  <fix>3d</fix>
</trkpt>
<trkpt lat="33.8106151" lon="-118.3935688">
  <ele>-12.69</ele>
  <time>2026-09-01T01:14:50Z</time>
  <course>156.77</course>
  <speed>0.05099019513592785</speed>
  <fix>3d</fix>
</trkpt>
<trkpt lat="33.8106151" lon="-118.3935688">
  <ele>-12.809</ele>
  <time>2026-09-01T01:14:50Z</time>
  <course>156.77</course>
  <speed>0.05099019513592785</speed>
  <fix>3d</fix>
</trkpt>
<trkpt lat="33.8106152" lon="-118.3935691">
  <ele>-11.73</ele>
  <time>2026-09-01T01:14:50Z</time>
  <course>71.08</course>
  <speed>0.01</speed>
  <fix>3d</fix>
</trkpt>
<trkpt lat="33.8106151" lon="-118.3935688">
  <ele>-12.845</ele>
  <time>2026-09-01T01:14:50Z</time>
  <course>156.77</course>
  <speed>0.05099019513592785</speed>
  <fix>3d</fix>
</trkpt>
<trkpt lat="33.8106151" lon="-118.3935687">
  <ele>-12.929</ele>
  <time>2026-09-01T01:14:50Z</time>
  <course>156.78</course>
  <speed>0.05099019513592785</speed>
  <fix>3d</fix>
</trkpt>
<trkpt lat="33.8106152" lon="-118.393569">
  <ele>-11.97</ele>
  <time>2026-09-01T01:14:50Z</time>
  <course>71.08</course>
  <speed>0.01</speed>
  <fix>3d</fix>
</trkpt>
<trkpt lat="33.8106151" lon="-118.3935687">
  <ele>-12.966</ele>
  <time>2026-09-01T01:14:50Z</time>
  <course>156.78</course>
  <speed>0.05099019513592785</speed>
  <fix>3d</fix>
</trkpt>
<trkpt lat="33.8106151" lon="-118.3935687">
  <ele>-13.05</ele>
  <time>2026-09-01T01:14:50Z</time>
  <course>156.78</course>
  <speed>0.05099019513592785</speed>
  <fix>3d</fix>
</trkpt>
<trkpt lat="33.8106152" lon="-118.393569">
  <ele>-11.97</ele>
  <time>2026-09-01T01:14:50Z</time>
  <course>71.08</course>
  <speed>0.01</speed>
  <fix>3d</fix>
</trkpt>
<trkpt lat="33.8106151" lon="-118.3935687">
  <ele>-13.095</ele>
  <time>2026-09-01T01:14:50Z</time>
  <course>156.78</course>
  <speed>0.05099019513592785</speed>
  <fix>3d</fix>
</trkpt>
<trkpt lat="33.8106151" lon="-118.3935687">
  <ele>-13.17</ele>
  <time>2026-09-01T01:14:50Z</time>
  <course>156.78</course>
  <speed>0.05099019513592785</speed>
  <fix>3d</fix>
</trkpt>
<trkpt lat="33.8106153" lon="-118.393569">
  <ele>-12.21</ele>
  <time>2026-09-01T01:14:50Z</time>
  <course>71.1</course>
  <speed>0.01</speed>
  <fix>3d</fix>
</trkpt>
<trkpt lat="33.8106151" lon="-118.3935687">
  <ele>-13.206</ele>
  <time>2026-09-01T01:14:50Z</time>
  <course>156.78</course>
  <speed>0.05099019513592785</speed>
  <fix>3d</fix>
</trkpt>
<trkpt lat="33.8106151" lon="-118.3935687">
  <ele>-13.29</ele>
  <time>2026-09-01T01:14:50Z</time>
  <course>156.78</course>
  <speed>0.05099019513592785</speed>
  <fix>3d</fix>
</trkpt>
<trkpt lat="33.8106153" lon="-118.393569">
  <ele>-12.21</ele>
  <time>2026-09-01T01:14:50Z</time>
  <course>71.1</course>
  <speed>0.01</speed>
  <fix>3d</fix>
</trkpt>
<trkpt lat="33.8106151" lon="-118.3935687">
  <ele>-13.329</ele>
  <time>2026-09-01T01:14:50Z</time>
  <course>156.78</course>
  <speed>0.05099019513592785</speed>
  <fix>3d</fix>
</trkpt>
<trkpt lat="33.8106151" lon="-118.3935687">
  <ele>-13.411</ele>
  <time>2026-09-01T01:14:50Z</time>
  <course>156.78</course>
  <speed>0.05099019513592785</speed>
  <fix>3d</fix>
</trkpt>
<trkpt lat="33.8106153" lon="-118.393569">
  <ele>-12.44</ele>
  <time>2026-09-01T01:14:50Z</time>
  <course>71.11</course>
  <speed>0.01</speed>
  <fix>3d</fix>
</trkpt>
<trkpt lat="33.8106151" lon="-118.3935687">
  <ele>-13.45</ele>
  <time>2026-09-01T01:14:50Z</time>
  <course>156.78</course>
  <speed>0.05099019513592785</speed>
  <fix>3d</fix>
</trkpt>
<trkpt lat="33.8106151" lon="-118.3935686">
  <ele>-13.532</ele>
  <time>2026-09-01T01:14:50Z</time>
  <course>156.79</course>
  <speed>0.05099019513592785</speed>
  <fix>3d</fix>
</trkpt>
<trkpt lat="33.8106153" lon="-118.393569">
  <ele>-12.44</ele>
  <time>2026-09-01T01:14:50Z</time>
  <course>71.11</course>
  <speed>0.01</speed>
  <fix>3d</fix>
</trkpt>
<trkpt lat="33.8106151" lon="-118.3935686">
  <ele>-13.568</ele>
  <time>2026-09-01T01:14:50Z</time>
  <course>156.79</course>
  <speed>0.05099019513592785</speed>
  <fix>3d</fix>
</trkpt>
<trkpt lat="33.8106151" lon="-118.3935686">
  <ele>-13.652</ele>
  <time>2026-09-01T01:14:50Z</time>
  <course>156.79</course>
  <speed>0.05099019513592785</speed>
  <fix>3d</fix>
</trkpt>
<trkpt lat="33.8106153" lon="-118.3935689">
  <ele>-12.68</ele>
  <time>2026-09-01T01:14:50Z</time>
  <course>71.08</course>
  <speed>0.01</speed>
  <fix>3d</fix>
</trkpt>
<trkpt lat="33.8106151" lon="-118.3935686">
  <ele>-13.655</ele>
  <time>2026-09-01T01:14:50Z</time>
  <course>156.79</course>
  <speed>0.05099019513592785</speed>
  <fix>3d</fix>
</trkpt>
<trkpt lat="33.8106151" lon="-118.3935686">
  <ele>-13.772</ele>
  <time>2026-09-01T01:14:50Z</time>
  <course>156.79</course>
  <speed>0.05099019513592785</speed>
  <fix>3d</fix>
</trkpt>
<trkpt lat="33.8106153" lon="-118.3935689">
  <ele>-12.68</ele>
  <time>2026-09-01T01:14:50Z</time>
  <course>71.08</course>
  <speed>0.01</speed>
  <fix>3d</fix>
</trkpt>
<trkpt lat="33.8106151" lon="-118.3935686">
  <ele>-13.808</ele>
  <time>2026-09-01T01:14:50Z</time>
  <course>156.79</course>
  <speed>0.05099019513592785</speed>
  <fix>3d</fix>
</trkpt>
<trkpt lat="33.8106151" lon="-118.3935686">
  <ele>-13.892</ele>
  <time>2026-09-01T01:14:50Z</time>
  <course>156.79</course>
  <speed>0.05099019513592785</speed>
  <fix>3d</fix>
</trkpt>
<trkpt lat="33.8106153" lon="-118.3935689">
  <ele>-12.92</ele>
  <time>2026-09-01T01:14:50Z</time>
  <course>71.02</course>
  <speed>0.01</speed>
  <fix>3d</fix>
</trkpt>
<trkpt lat="33.8106151" lon="-118.3935686">
  <ele>-13.928</ele>
  <time>2026-09-01T01:14:50Z</time>
  <course>156.79</course>
  <speed>0.05099019513592785</speed>
  <fix>3d</fix>
</trkpt>
<trkpt lat="33.8106151" lon="-118.3935686">
  <ele>-14.013</ele>
  <time>2026-09-01T01:14:50Z</time>
  <course>156.79</course>
  <speed>0.05099019513592785</speed>
  <fix>3d</fix>
</trkpt>
<trkpt lat="33.8106153" lon="-118.3935689">
  <ele>-12.92</ele>
  <time>2026-09-01T01:14:50Z</time>
  <course>71.02</course>
  <speed>0.01</speed>
  <fix>3d</fix>
</trkpt>
<trkpt lat="33.8106151" lon="-118.3935686">
  <ele>-14.049</ele>
  <time>2026-09-01T01:14:50Z</time>
  <course>156.8</course>
  <speed>0.05099019513592785</speed>
  <fix>3d</fix>
</trkpt>
<trkpt lat="33.8106151" lon="-118.3935685">
  <ele>-14.133</ele>
  <time>2026-09-01T01:14:50Z</time>
  <course>156.8</course>
  <speed>0.05099019513592785</speed>
  <fix>3d</fix>
</trkpt>
<trkpt lat="33.8106153" lon="-118.3935689">
  <ele>-13.15</ele>
  <time>2026-09-01T01:14:50Z</time>
  <course>70.97</course>
  <speed>0.01</speed>
  <fix>3d</fix>
</trkpt>
<trkpt lat="33.8106151" lon="-118.3935685">
  <ele>-14.17</ele>
  <time>2026-09-01T01:14:50Z</time>
  <course>156.8</course>
  <speed>0.05099019513592785</speed>
  <fix>3d</fix>
</trkpt>
<trkpt lat="33.8106151" lon="-118.3935685">
  <ele>-14.255</ele>
  <time>2026-09-01T01:14:50Z</time>
  <course>156.8</course>
  <speed>0.05099019513592785</speed>
  <fix>3d</fix>
</trkpt>
<trkpt lat="33.8106153" lon="-118.3935689">
  <ele>-13.15</ele>
  <time>2026-09-01T01:14:50Z</time>
  <course>70.97</course>
  <speed>0.01</speed>
  <fix>3d</fix>
</trkpt>
<trkpt lat="33.8106151" lon="-118.3935685">
  <ele>-14.294</ele>
  <time>2026-09-01T01:14:50Z</time>
  <course>156.8</course>
  <speed>0.05099019513592785</speed>
  <fix>3d</fix>
</trkpt>
<trkpt lat="33.8106151" lon="-118.3935685">
  <ele>-14.376</ele>
  <time>2026-09-01T01:14:50Z</time>
  <course>156.8</course>
  <speed>0.05099019513592785</speed>
  <fix>3d</fix>
</trkpt>
<trkpt lat="33.8106153" lon="-118.3935688">
  <ele>-13.39</ele>
  <time>2026-09-01T01:14:50Z</time>
  <course>70.94</course>
  <speed>0.01</speed>
  <fix>3d</fix>
</trkpt>
<trkpt lat="33.8106151" lon="-118.3935685">
  <ele>-14.416</ele>
  <time>2026-09-01T01:14:50Z</time>
  <course>156.8</course>
  <speed>0.05099019513592785</speed>
  <fix>3d</fix>
</trkpt>
<trkpt lat="33.8106151" lon="-118.3935685">
  <ele>-14.499</ele>
  <time>2026-09-01T01:14:50Z</time>
  <course>156.8</course>
  <speed>0.05099019513592785</speed>
  <fix>3d</fix>
</trkpt>
<trkpt lat="33.8106153" lon="-118.3935688">
  <ele>-13.39</ele>
  <time>2026-09-01T01:14:50Z</time>
  <course>70.94</course>
  <speed>0.01</speed>
  <fix>3d</fix>
</trkpt>
<trkpt lat="33.8106151" lon="-118.3935685">
  <ele>-14.525</ele>
  <time>2026-09-01T01:14:50Z</time>
  <course>156.8</course>
  <speed>0.05099019513592785</speed>
  <fix>3d</fix>
</trkpt>
<trkpt lat="33.8106151" lon="-118.3935685">
  <ele>-14.621</ele>
  <time>2026-09-01T01:14:50Z</time>
  <course>156.81</course>
  <speed>0.05099019513592785</speed>
  <fix>3d</fix>
</trkpt>
<trkpt lat="33.8106153" lon="-118.3935688">
  <ele>-13.63</ele>
  <time>2026-09-01T01:14:50Z</time>
  <course>70.96</course>
  <speed>0.01</speed>
  <fix>3d</fix>
</trkpt>
<trkpt lat="33.8106151" lon="-118.3935685">
  <ele>-14.657</ele>
  <time>2026-09-01T01:14:50Z</time>
  <course>156.81</course>
  <speed>0.05099019513592785</speed>
  <fix>3d</fix>
</trkpt>
<trkpt lat="33.8106151" lon="-118.3935685">
  <ele>-14.743</ele>
  <time>2026-09-01T01:14:50Z</time>
  <course>156.81</course>
  <speed>0.05099019513592785</speed>
  <fix>3d</fix>
</trkpt>
<trkpt lat="33.8106153" lon="-118.3935688">
  <ele>-13.63</ele>
  <time>2026-09-01T01:14:50Z</time>
  <course>70.96</course>
  <speed>0.01</speed>
  <fix>3d</fix>
</trkpt>
<trkpt lat="33.8106151" lon="-118.3935684">
  <ele>-14.783</ele>
  <time>2026-09-01T01:14:50Z</time>
  <course>156.81</course>
  <speed>0.05099019513592785</speed>
  <fix>3d</fix>
</trkpt>
<trkpt lat="33.8106151" lon="-118.3935684">
  <ele>-14.867</ele>
  <time>2026-09-01T01:14:50Z</time>
  <course>156.81</course>
  <speed>0.05099019513592785</speed>
  <fix>3d</fix>
</trkpt>
<trkpt lat="33.8106153" lon="-118.3935688">
  <ele>-13.86</ele>
  <time>2026-09-01T01:14:50Z</time>
  <course>70.98</course>
  <speed>0.01</speed>
  <fix>3d</fix>
</trkpt>
<trkpt lat="33.8106151" lon="-118.3935684">
  <ele>-14.904</ele>
  <time>2026-09-01T01:14:50Z</time>
  <course>156.81</course>
  <speed>0.05099019513592785</speed>
  <fix>3d</fix>
</trkpt>
<trkpt lat="33.8106151" lon="-118.3935684">
  <ele>-14.99</ele>
  <time>2026-09-01T01:14:50Z</time>
  <course>156.81</course>
  <speed>0.05099019513592785</speed>
  <fix>3d</fix>
</trkpt>
<trkpt lat="33.8106153" lon="-118.3935688">
  <ele>-13.86</ele>
  <time>2026-09-01T01:14:50Z</time>
  <course>70.98</course>
  <speed>0.01</speed>
  <fix>3d</fix>
</trkpt>
<trkpt lat="33.8106151" lon="-118.3935684">
  <ele>-14.992</ele>
  <time>2026-09-01T01:14:50Z</time>
  <course>156.81</course>
  <speed>0.05099019513592785</speed>
  <fix>3d</fix>
</trkpt>
<trkpt lat="33.8106152" lon="-118.3935684">
  <ele>-15.113</ele>
  <time>2026-09-01T01:14:50Z</time>
  <course>156.82</course>
  <speed>0.05099019513592785</speed>
  <fix>3d</fix>
</trkpt>
<trkpt lat="33.8106153" lon="-118.3935687">
  <ele>-14.1</ele>
  <time>2026-09-01T01:14:50Z</time>
  <course>70.99</course>
  <speed>0.01</speed>
  <fix>3d</fix>
</trkpt>
<trkpt lat="33.8106152" lon="-118.3935684">
  <ele>-15.15</ele>
  <time>2026-09-01T01:14:50Z</time>
  <course>156.82</course>
  <speed>0.05099019513592785</speed>
  <fix>3d</fix>
</trkpt>
<trkpt lat="33.8106152" lon="-118.3935684">
  <ele>-15.235</ele>
  <time>2026-09-01T01:14:50Z</time>
  <course>156.82</course>
  <speed>0.05099019513592785</speed>
  <fix>3d</fix>
</trkpt>
<trkpt lat="33.8106153" lon="-118.3935687">
  <ele>-14.1</ele>
  <time>2026-09-01T01:14:50Z</time>
  <course>70.99</course>
  <speed>0.01</speed>
  <fix>3d</fix>
</trkpt>
<trkpt lat="33.8106152" lon="-118.3935684">
  <ele>-15.274</ele>
  <time>2026-09-01T01:14:50Z</time>
  <course>156.82</course>
  <speed>0.05099019513592785</speed>
  <fix>3d</fix>
</trkpt>
<trkpt lat="33.8106152" lon="-118.3935684">
  <ele>-15.356</ele>
  <time>2026-09-01T01:14:50Z</time>
  <course>156.82</course>
  <speed>0.05099019513592785</speed>
  <fix>3d</fix>
</trkpt>
<trkpt lat="33.8106153" lon="-118.3935687">
  <ele>-14.33</ele>
  <time>2026-09-01T01:14:50Z</time>
  <course>70.95</course>
  <speed>0.01</speed>
  <fix>3d</fix>
</trkpt>
<trkpt lat="33.8106152" lon="-118.3935684">
  <ele>-15.396</ele>
  <time>2026-09-01T01:14:50Z</time>
  <course>156.82</course>
  <speed>0.05099019513592785</speed>
  <fix>3d</fix>
</trkpt>
<trkpt lat="33.8106152" lon="-118.3935683">
  <ele>-15.479</ele>
  <time>2026-09-01T01:14:50Z</time>
  <course>156.83</course>
  <speed>0.05099019513592785</speed>
  <fix>3d</fix>
</trkpt>
<trkpt lat="33.8106153" lon="-118.3935687">
  <ele>-14.33</ele>
  <time>2026-09-01T01:14:50Z</time>
  <course>70.95</course>
  <speed>0.01</speed>
  <fix>3d</fix>
</trkpt>
<trkpt lat="33.8106152" lon="-118.3935683">
  <ele>-15.519</ele>
  <time>2026-09-01T01:14:50Z</time>
  <course>156.83</course>
  <speed>0.05099019513592785</speed>
  <fix>3d</fix>
</trkpt>
<trkpt lat="33.8106152" lon="-118.3935683">
  <ele>-15.602</ele>
  <time>2026-09-01T01:14:50Z</time>
  <course>156.83</course>
  <speed>0.05099019513592785</speed>
  <fix>3d</fix>
</trkpt>
<trkpt lat="33.8106154" lon="-118.3935687">
  <ele>-14.57</ele>
  <time>2026-09-01T01:14:50Z</time>
  <course>70.9</course>
  <speed>0.01</speed>
  <fix>3d</fix>
</trkpt>
<trkpt lat="33.8106152" lon="-118.3935683">
  <ele>-15.639</ele>
  <time>2026-09-01T01:14:50Z</time>
  <course>156.83</course>
  <speed>0.05099019513592785</speed>
  <fix>3d</fix>
</trkpt>
<trkpt lat="33.8106152" lon="-118.3935683">
  <ele>-15.725</ele>
  <time>2026-09-01T01:14:50Z</time>
  <course>156.83</course>
  <speed>0.05099019513592785</speed>
  <fix>3d</fix>
</trkpt>
<trkpt lat="33.8106154" lon="-118.3935687">
  <ele>-14.57</ele>
  <time>2026-09-01T01:14:50Z</time>
  <course>70.9</course>
  <speed>0.01</speed>
  <fix>3d</fix>
</trkpt>
<trkpt lat="33.8106152" lon="-118.3935683">
  <ele>-15.774</ele>
  <time>2026-09-01T01:14:50Z</time>
  <course>156.83</course>
  <speed>0.05099019513592785</speed>
  <fix>3d</fix>
</trkpt>
<trkpt lat="33.8106152" lon="-118.3935683">
  <ele>-15.847</ele>
  <time>2026-09-01T01:14:50Z</time>
  <course>156.83</course>
  <speed>0.05099019513592785</speed>
  <fix>3d</fix>
</trkpt>
<trkpt lat="33.8106155" lon="-118.3935686">
  <ele>-14.8</ele>
  <time>2026-09-01T01:14:50Z</time>
  <course>70.86</course>
  <speed>0.01</speed>
  <fix>3d</fix>
</trkpt>
<trkpt lat="33.8106152" lon="-118.3935683">
  <ele>-15.883</ele>
  <time>2026-09-01T01:14:50Z</time>
  <course>156.83</course>
  <speed>0.05099019513592785</speed>
  <fix>3d</fix>
</trkpt>
<trkpt lat="33.8106152" lon="-118.3935683">
  <ele>-15.968</ele>
  <time>2026-09-01T01:14:50Z</time>
  <course>156.83</course>
  <speed>0.05099019513592785</speed>
  <fix>3d</fix>
</trkpt>
<trkpt lat="33.8106155" lon="-118.3935686">
  <ele>-14.8</ele>
  <time>2026-09-01T01:14:50Z</time>
  <course>70.86</course>
  <speed>0.01</speed>
  <fix>3d</fix>
</trkpt>
<trkpt lat="33.8106152" lon="-118.3935683">
  <ele>-16.008</ele>
  <time>2026-09-01T01:14:50Z</time>
  <course>156.83</course>
  <speed>0.05099019513592785</speed>
  <fix>3d</fix>
</trkpt>
<trkpt lat="33.8106152" lon="-118.3935683">
  <ele>-16.091</ele>
  <time>2026-09-01T01:14:50Z</time>
  <course>156.83</course>
  <speed>0.05</speed>
  <fix>3d</fix>
</trkpt>
<trkpt lat="33.8106155" lon="-118.3935686">
  <ele>-15.04</ele>
  <time>2026-09-01T01:14:50Z</time>
  <course>70.85</course>
  <speed>0.01</speed>
  <fix>3d</fix>
</trkpt>
<trkpt lat="33.8106152" lon="-118.3935683">
  <ele>-16.13</ele>
  <time>2026-09-01T01:14:50Z</time>
  <course>156.84</course>
  <speed>0.05</speed>
  <fix>3d</fix>
</trkpt>
<trkpt lat="33.8106152" lon="-118.3935682">
  <ele>-16.212</ele>
  <time>2026-09-01T01:14:50Z</time>
  <course>156.84</course>
  <speed>0.05</speed>
  <fix>3d</fix>
</trkpt>
<trkpt lat="33.8106155" lon="-118.3935686">
  <ele>-15.04</ele>
  <time>2026-09-01T01:14:50Z</time>
  <course>70.85</course>
  <speed>0.01</speed>
  <fix>3d</fix>
</trkpt>
<trkpt lat="33.8106152" lon="-118.3935682">
  <ele>-16.215</ele>
  <time>2026-09-01T01:14:50Z</time>
  <course>156.84</course>
  <speed>0.05</speed>
  <fix>3d</fix>
</trkpt>
<trkpt lat="33.8106152" lon="-118.3935682">
  <ele>-16.335</ele>
  <time>2026-09-01T01:14:50Z</time>
  <course>156.84</course>
  <speed>0.05</speed>
  <fix>3d</fix>
</trkpt>
<trkpt lat="33.8106155" lon="-118.3935686">
  <ele>-15.28</ele>
  <time>2026-09-01T01:14:50Z</time>
  <course>70.88</course>
  <speed>0.01</speed>
  <fix>3d</fix>
</trkpt>
<trkpt lat="33.8106152" lon="-118.3935682">
  <ele>-16.372</ele>
  <time>2026-09-01T01:14:50Z</time>
  <course>156.84</course>
  <speed>0.05</speed>
  <fix>3d</fix>
</trkpt>
<trkpt lat="33.8106152" lon="-118.3935682">
  <ele>-16.457</ele>
  <time>2026-09-01T01:14:50Z</time>
  <course>156.84</course>
  <speed>0.05</speed>
  <fix>3d</fix>
</trkpt>
<trkpt lat="33.8106155" lon="-118.3935686">
  <ele>-15.28</ele>
  <time>2026-09-01T01:14:50Z</time>
  <course>70.88</course>
  <speed>0.01</speed>
  <fix>3d</fix>
</trkpt>
<trkpt lat="33.8106152" lon="-118.3935682">
  <ele>-16.494</ele>
  <time>2026-09-01T01:14:50Z</time>
  <course>156.84</course>
  <speed>0.05</speed>
  <fix>3d</fix>
</trkpt>
<trkpt lat="33.8106153" lon="-118.3935682">
  <ele>-16.58</ele>
  <time>2026-09-01T01:14:50Z</time>
  <course>156.84</course>
  <speed>0.05</speed>
  <fix>3d</fix>
</trkpt>
<trkpt lat="33.8106155" lon="-118.3935685">
  <ele>-15.52</ele>
  <time>2026-09-01T01:14:50Z</time>
  <course>70.91</course>
  <speed>0.01</speed>
  <fix>3d</fix>
</trkpt>
<trkpt lat="33.8106153" lon="-118.3935682">
  <ele>-16.62</ele>
  <time>2026-09-01T01:14:50Z</time>
  <course>156.84</course>
  <speed>0.05</speed>
  <fix>3d</fix>
</trkpt>
<trkpt lat="33.8106153" lon="-118.3935682">
  <ele>-16.703</ele>
  <time>2026-09-01T01:14:50Z</time>
  <course>156.84</course>
  <speed>0.05</speed>
  <fix>3d</fix>
</trkpt>
<trkpt lat="33.8106155" lon="-118.3935685">
  <ele>-15.52</ele>
  <time>2026-09-01T01:14:50Z</time>
  <course>70.91</course>
  <speed>0.01</speed>
  <fix>3d</fix>
</trkpt>
<trkpt lat="33.8106153" lon="-118.3935682">
  <ele>-16.743</ele>
  <time>2026-09-01T01:14:50Z</time>
  <course>156.85</course>
  <speed>0.05</speed>
  <fix>3d</fix>
</trkpt>
<trkpt lat="33.8106153" lon="-118.3935682">
  <ele>-16.826</ele>
  <time>2026-09-01T01:14:50Z</time>
  <course>156.85</course>
  <speed>0.05</speed>
  <fix>3d</fix>
</trkpt>
<trkpt lat="33.8106155" lon="-118.3935685">
  <ele>-15.75</ele>
  <time>2026-09-01T01:14:50Z</time>
  <course>70.9</course>
  <speed>0.01</speed>
  <fix>3d</fix>
</trkpt>
<trkpt lat="33.8106153" lon="-118.3935682">
  <ele>-16.865</ele>
  <time>2026-09-01T01:14:50Z</time>
  <course>156.85</course>
  <speed>0.05</speed>
  <fix>3d</fix>
</trkpt>
<trkpt lat="33.8106153" lon="-118.3935681">
  <ele>-16.948</ele>
  <time>2026-09-01T01:14:50Z</time>
  <course>156.85</course>
  <speed>0.05</speed>
  <fix>3d</fix>
</trkpt>
<trkpt lat="33.8106155" lon="-118.3935685">
  <ele>-15.75</ele>
  <time>2026-09-01T01:14:50Z</time>
  <course>70.9</course>
  <speed>0.01</speed>
  <fix>3d</fix>
</trkpt>
<trkpt lat="33.8106153" lon="-118.3935681">
  <ele>-16.985</ele>
  <time>2026-09-01T01:14:50Z</time>
  <course>156.85</course>
  <speed>0.05</speed>
  <fix>3d</fix>
</trkpt>
<trkpt lat="33.8106153" lon="-118.3935681">
  <ele>-17.071</ele>
  <time>2026-09-01T01:14:50Z</time>
  <course>156.85</course>
  <speed>0.05</speed>
  <fix>3d</fix>
</trkpt>
<trkpt lat="33.8106155" lon="-118.3935685">
  <ele>-15.99</ele>
  <time>2026-09-01T01:14:50Z</time>
  <course>70.86</course>
  <speed>0.01</speed>
  <fix>3d</fix>
</trkpt>
<trkpt lat="33.8106153" lon="-118.3935681">
  <ele>-17.11</ele>
  <time>2026-09-01T01:14:50Z</time>
  <course>156.85</course>
  <speed>0.05</speed>
  <fix>3d</fix>
</trkpt>
<trkpt lat="33.8106153" lon="-118.3935681">
  <ele>-17.193</ele>
  <time>2026-09-01T01:14:50Z</time>
  <course>156.85</course>
  <speed>0.05</speed>
  <fix>3d</fix>
</trkpt>
<trkpt lat="33.8106155" lon="-118.3935685">
  <ele>-15.99</ele>
  <time>2026-09-01T01:14:50Z</time>
  <course>70.86</course>
  <speed>0.01</speed>
  <fix>3d</fix>
</trkpt>
<trkpt lat="33.8106153" lon="-118.3935681">
  <ele>-17.23</ele>
  <time>2026-09-01T01:14:50Z</time>
  <course>156.86</course>
  <speed>0.05</speed>
  <fix>3d</fix>
</trkpt>
<trkpt lat="33.8106153" lon="-118.3935681">
  <ele>-17.316</ele>
  <time>2026-09-01T01:14:50Z</time>
  <course>156.86</course>
  <speed>0.05</speed>
  <fix>3d</fix>
</trkpt>
<trkpt lat="33.8106155" lon="-118.3935684">
  <ele>-16.23</ele>
  <time>2026-09-01T01:14:50Z</time>
  <course>70.81</course>
  <speed>0.01</speed>
  <fix>3d</fix>
</trkpt>
<trkpt lat="33.8106153" lon="-118.3935681">
  <ele>-17.356</ele>
  <time>2026-09-01T01:14:50Z</time>
  <course>156.86</course>
  <speed>0.05</speed>
  <fix>3d</fix>
</trkpt>
<trkpt lat="33.8106153" lon="-118.3935681">
  <ele>-17.439</ele>
  <time>2026-09-01T01:14:50Z</time>
  <course>156.86</course>
  <speed>0.05</speed>
  <fix>3d</fix>
</trkpt>
<trkpt lat="33.8106155" lon="-118.3935684">
  <ele>-16.23</ele>
  <time>2026-09-01T01:14:50Z</time>
  <course>70.81</course>
  <speed>0.01</speed>
  <fix>3d</fix>
</trkpt>
<trkpt lat="33.8106153" lon="-118.3935681">
  <ele>-17.478</ele>
  <time>2026-09-01T01:14:50Z</time>
  <course>156.86</course>
  <speed>0.05</speed>
  <fix>3d</fix>
</trkpt>
<trkpt lat="33.8106153" lon="-118.3935681">
  <ele>-17.563</ele>
  <time>2026-09-01T01:14:50Z</time>
  <course>156.86</course>
  <speed>0.05</speed>
  <fix>3d</fix>
</trkpt>
<trkpt lat="33.8106155" lon="-118.3935684">
  <ele>-16.46</ele>
  <time>2026-09-01T01:14:50Z</time>
  <course>70.79</course>
  <speed>0.01</speed>
  <fix>3d</fix>
</trkpt>
<trkpt lat="33.8106153" lon="-118.3935681">
  <ele>-17.565</ele>
  <time>2026-09-01T01:14:50Z</time>
  <course>156.86</course>
  <speed>0.05</speed>
  <fix>3d</fix>
</trkpt>
<trkpt lat="33.8106154" lon="-118.393568">
  <ele>-17.686</ele>
  <time>2026-09-01T01:14:50Z</time>
  <course>156.87</course>
  <speed>0.05</speed>
  <fix>3d</fix>
</trkpt>
<trkpt lat="33.8106155" lon="-118.3935684">
  <ele>-16.46</ele>
  <time>2026-09-01T01:14:50Z</time>
  <course>70.79</course>
  <speed>0.01</speed>
  <fix>3d</fix>
</trkpt>
<trkpt lat="33.8106154" lon="-118.393568">
  <ele>-17.719</ele>
  <time>2026-09-01T01:14:50Z</time>
  <course>156.87</course>
  <speed>0.05</speed>
  <fix>3d</fix>
</trkpt>
<trkpt lat="33.8106154" lon="-118.393568">
  <ele>-17.807</ele>
  <time>2026-09-01T01:14:50Z</time>
  <course>156.87</course>
  <speed>0.05</speed>
  <fix>3d</fix>
</trkpt>
<trkpt lat="33.8106155" lon="-118.3935684">
  <ele>-16.7</ele>
  <time>2026-09-01T01:14:50Z</time>
  <course>70.8</course>
  <speed>0.01</speed>
  <fix>3d</fix>
</trkpt>
<trkpt lat="33.8106154" lon="-118.393568">
  <ele>-17.844</ele>
  <time>2026-09-01T01:14:50Z</time>
  <course>156.87</course>
  <speed>0.05</speed>
  <fix>3d</fix>
</trkpt>
<trkpt lat="33.8106154" lon="-118.393568">
  <ele>-17.929</ele>
  <time>2026-09-01T01:14:50Z</time>
  <course>156.87</course>
  <speed>0.05</speed>
  <fix>3d</fix>
</trkpt>
<trkpt lat="33.8106155" lon="-118.3935684">
  <ele>-16.7</ele>
  <time>2026-09-01T01:14:50Z</time>
  <course>70.8</course>
  <speed>0.01</speed>
  <fix>3d</fix>
</trkpt>
<trkpt lat="33.8106154" lon="-118.393568">
  <ele>-17.971</ele>
  <time>2026-09-01T01:14:50Z</time>
  <course>156.87</course>
  <speed>0.05</speed>
  <fix>3d</fix>
</trkpt>
<trkpt lat="33.8106154" lon="-118.393568">
  <ele>-18.049</ele>
  <time>2026-09-01T01:14:50Z</time>
  <course>156.87</course>
  <speed>0.05</speed>
  <fix>3d</fix>
</trkpt>
<trkpt lat="33.8106155" lon="-118.3935683">
  <ele>-16.93</ele>
  <time>2026-09-01T01:14:50Z</time>
  <course>70.83</course>
  <speed>0.01</speed>
  <fix>3d</fix>
</trkpt>
<trkpt lat="33.8106154" lon="-118.393568">
  <ele>-18.088</ele>
  <time>2026-09-01T01:14:50Z</time>
  <course>156.87</course>
  <speed>0.05</speed>
  <fix>3d</fix>
</trkpt>
<trkpt lat="33.8106154" lon="-118.393568">
  <ele>-18.169</ele>
  <time>2026-09-01T01:14:50Z</time>
  <course>156.88</course>
  <speed>0.05</speed>
  <fix>3d</fix>
</trkpt>
<trkpt lat="33.8106155" lon="-118.3935683">
  <ele>-16.93</ele>
  <time>2026-09-01T01:14:50Z</time>
  <course>70.83</course>
  <speed>0.01</speed>
  <fix>3d</fix>
</trkpt>
<trkpt lat="33.8106154" lon="-118.393568">
  <ele>-18.205</ele>
  <time>2026-09-01T01:14:50Z</time>
  <course>156.88</course>
  <speed>0.05</speed>
  <fix>3d</fix>
</trkpt>
<trkpt lat="33.8106154" lon="-118.393568">
  <ele>-18.289</ele>
  <time>2026-09-01T01:14:50Z</time>
  <course>156.88</course>
  <speed>0.05</speed>
  <fix>3d</fix>
</trkpt>
<trkpt lat="33.8106156" lon="-118.3935683">
  <ele>-17.17</ele>
  <time>2026-09-01T01:14:50Z</time>
  <course>70.85</course>
  <speed>0.01</speed>
  <fix>3d</fix>
</trkpt>
<trkpt lat="33.8106154" lon="-118.393568">
  <ele>-18.331</ele>
  <time>2026-09-01T01:14:50Z</time>
  <course>156.88</course>
  <speed>0.05</speed>
  <fix>3d</fix>
</trkpt>
<trkpt lat="33.8106154" lon="-118.393568">
  <ele>-18.409</ele>
  <time>2026-09-01T01:14:50Z</time>
  <course>156.88</course>
  <speed>0.05</speed>
  <fix>3d</fix>
</trkpt>
<trkpt lat="33.8106156" lon="-118.3935683">
  <ele>-17.17</ele>
  <time>2026-09-01T01:14:50Z</time>
  <course>70.85</course>
  <speed>0.01</speed>
  <fix>3d</fix>
</trkpt>
<trkpt lat="33.8106154" lon="-118.3935679">
  <ele>-18.445</ele>
  <time>2026-09-01T01:14:50Z</time>
  <course>156.88</course>
  <speed>0.05</speed>
  <fix>3d</fix>
</trkpt>
<trkpt lat="33.8106154" lon="-118.3935679">
  <ele>-18.53</ele>
  <time>2026-09-01T01:14:50Z</time>
  <course>156.88</course>
  <speed>0.05</speed>
  <fix>3d</fix>
</trkpt>
<trkpt lat="33.8106156" lon="-118.3935683">
  <ele>-17.41</ele>
  <time>2026-09-01T01:14:50Z</time>
  <course>70.84</course>
  <speed>0.01</speed>
  <fix>3d</fix>
</trkpt>
<trkpt lat="33.8106154" lon="-118.3935679">
  <ele>-18.566</ele>
  <time>2026-09-01T01:14:50Z</time>
  <course>156.88</course>
  <speed>0.04</speed>
  <fix>3d</fix>
</trkpt>
<trkpt lat="33.8106154" lon="-118.3935679">
  <ele>-18.651</ele>
  <time>2026-09-01T01:14:50Z</time>
  <course>156.89</course>
  <speed>0.04</speed>
  <fix>3d</fix>
</trkpt>
<trkpt lat="33.8106156" lon="-118.3935683">
  <ele>-17.41</ele>
  <time>2026-09-01T01:14:50Z</time>
  <course>70.84</course>
  <speed>0.01</speed>
  <fix>3d</fix>
</trkpt>
<trkpt lat="33.8106154" lon="-118.3935679">
  <ele>-18.691</ele>
  <time>2026-09-01T01:14:50Z</time>
  <course>156.89</course>
  <speed>0.05</speed>
  <fix>3d</fix>
</trkpt>
<trkpt lat="33.8106154" lon="-118.3935679">
  <ele>-18.771</ele>
  <time>2026-09-01T01:14:50Z</time>
  <course>156.89</course>
  <speed>0.04</speed>
  <fix>3d</fix>
</trkpt>
<trkpt lat="33.8106156" lon="-118.3935682">
  <ele>-17.65</ele>
  <time>2026-09-01T01:14:50Z</time>
  <course>70.8</course>
  <speed>0.01</speed>
  <fix>3d</fix>
</trkpt>
<trkpt lat="33.8106154" lon="-118.3935679">
  <ele>-18.777</ele>
  <time>2026-09-01T01:14:50Z</time>
  <course>156.89</course>
  <speed>0.04</speed>
  <fix>3d</fix>
</trkpt>
<trkpt lat="33.8106154" lon="-118.3935679">
  <ele>-18.891</ele>
  <time>2026-09-01T01:14:50Z</time>
  <course>156.89</course>
  <speed>0.04</speed>
  <fix>3d</fix>
</trkpt>
<trkpt lat="33.8106156" lon="-118.3935682">
  <ele>-17.65</ele>
  <time>2026-09-01T01:14:50Z</time>
  <course>70.8</course>
  <speed>0.01</speed>
  <fix>3d</fix>
</trkpt>
<trkpt lat="33.8106154" lon="-118.3935679">
  <ele>-18.897</ele>
  <time>2026-09-01T01:14:50Z</time>
  <course>156.89</course>
  <speed>0.04</speed>
  <fix>3d</fix>
</trkpt>
<trkpt lat="33.8106154" lon="-118.3935679">
  <ele>-19.012</ele>
  <time>2026-09-01T01:14:50Z</time>
  <course>156.89</course>
  <speed>0.04</speed>
  <fix>3d</fix>
</trkpt>
<trkpt lat="33.8106156" lon="-118.3935682">
  <ele>-17.88</ele>
  <time>2026-09-01T01:14:50Z</time>
  <course>70.76</course>
  <speed>0.01</speed>
  <fix>3d</fix>
</trkpt>
<trkpt lat="33.8106154" lon="-118.3935679">
  <ele>-19.049</ele>
  <time>2026-09-01T01:14:50Z</time>
  <course>156.89</course>
  <speed>0.04</speed>
  <fix>3d</fix>
</trkpt>
<trkpt lat="33.8106154" lon="-118.3935679">
  <ele>-19.134</ele>
  <time>2026-09-01T01:14:50Z</time>
  <course>156.9</course>
  <speed>0.04</speed>
  <fix>3d</fix>
</trkpt>
<trkpt lat="33.8106156" lon="-118.3935682">
  <ele>-17.88</ele>
  <time>2026-09-01T01:14:50Z</time>
  <course>70.76</course>
  <speed>0.01</speed>
  <fix>3d</fix>
</trkpt>
<trkpt lat="33.8106155" lon="-118.3935679">
  <ele>-19.255</ele>
  <time>2026-09-01T01:14:50Z</time>
  <course>156.9</course>
  <speed>0.04</speed>
  <fix>3d</fix>
</trkpt>
<trkpt lat="33.8106156" lon="-118.3935682">
  <ele>-18.11</ele>
  <time>2026-09-01T01:14:50Z</time>
  <course>70.75</course>
  <speed>0.01</speed>
  <fix>3d</fix>
</trkpt>
<trkpt lat="33.8106155" lon="-118.3935678">
  <ele>-19.377</ele>
  <time>2026-09-01T01:14:50Z</time>
  <course>156.9</course>
  <speed>0.04</speed>
  <fix>3d</fix>
</trkpt>
<trkpt lat="33.8106156" lon="-118.3935682">
  <ele>-18.11</ele>
  <time>2026-09-01T01:14:50Z</time>
  <course>70.75</course>
  <speed>0.01</speed>
  <fix>3d</fix>
</trkpt>
<trkpt lat="33.8106155" lon="-118.3935678">
  <ele>-19.497</ele>
  <time>2026-09-01T01:14:50Z</time>
  <course>156.9</course>
  <speed>0.04</speed>
  <fix>3d</fix>
</trkpt>
<trkpt lat="33.8106156" lon="-118.3935681">
  <ele>-18.35</ele>
  <time>2026-09-01T01:14:50Z</time>
  <course>70.78</course>
  <speed>0.01</speed>
  <fix>3d</fix>
</trkpt>
<trkpt lat="33.8106155" lon="-118.3935678">
  <ele>-19.612</ele>
  <time>2026-09-01T01:14:50Z</time>
  <course>156.91</course>
  <speed>0.04</speed>
  <fix>3d</fix>
</trkpt>
<trkpt lat="33.8106156" lon="-118.3935681">
  <ele>-18.35</ele>
  <time>2026-09-01T01:14:50Z</time>
  <course>70.78</course>
  <speed>0.01</speed>
  <fix>3d</fix>
</trkpt>
<trkpt lat="33.8106155" lon="-118.3935678">
  <ele>-19.715</ele>
  <time>2026-09-01T01:14:50Z</time>
  <course>156.91</course>
  <speed>0.04</speed>
  <fix>3d</fix>
</trkpt>
<trkpt lat="33.8106156" lon="-118.3935681">
  <ele>-18.58</ele>
  <time>2026-09-01T01:14:50Z</time>
  <course>70.83</course>
  <speed>0.01</speed>
  <fix>3d</fix>
</trkpt>
<trkpt lat="33.8106155" lon="-118.3935678">
  <ele>-19.801</ele>
  <time>2026-09-01T01:14:50Z</time>
  <course>156.91</course>
  <speed>0.04</speed>
  <fix>3d</fix>
</trkpt>
<trkpt lat="33.8106156" lon="-118.3935681">
  <ele>-18.58</ele>
  <time>2026-09-01T01:14:50Z</time>
  <course>70.83</course>
  <speed>0.01</speed>
  <fix>3d</fix>
</trkpt>
<trkpt lat="33.8106155" lon="-118.3935678">
  <ele>-19.871</ele>
  <time>2026-09-01T01:14:50Z</time>
  <course>156.91</course>
  <speed>0.04</speed>
  <fix>3d</fix>
</trkpt>
<trkpt lat="33.8106156" lon="-118.3935681">
  <ele>-18.78</ele>
  <time>2026-09-01T01:14:50Z</time>
  <course>70.93</course>
  <speed>0.01</speed>
  <fix>3d</fix>
</trkpt>
<trkpt lat="33.8106155" lon="-118.3935677">
  <ele>-19.923</ele>
  <time>2026-09-01T01:14:50Z</time>
  <course>156.92</course>
  <speed>0.04</speed>
  <fix>3d</fix>
</trkpt>
<trkpt lat="33.8106156" lon="-118.3935681">
  <ele>-18.78</ele>
  <time>2026-09-01T01:14:50Z</time>
  <course>70.93</course>
  <speed>0.01</speed>
  <fix>3d</fix>
</trkpt>
<trkpt lat="33.8106155" lon="-118.3935677">
  <ele>-19.96</ele>
  <time>2026-09-01T01:14:50Z</time>
  <course>156.92</course>
  <speed>0.04</speed>
  <fix>3d</fix>
</trkpt>
<trkpt lat="33.8106156" lon="-118.393568">
  <ele>-18.92</ele>
  <time>2026-09-01T01:14:50Z</time>
  <course>71.11</course>
  <speed>0.01</speed>
  <fix>3d</fix>
</trkpt>
<trkpt lat="33.8106155" lon="-118.3935677">
  <ele>-19.984</ele>
  <time>2026-09-01T01:14:50Z</time>
  <course>156.92</course>
  <speed>0.04</speed>
  <fix>3d</fix>
</trkpt>
<trkpt lat="33.8106156" lon="-118.393568">
  <ele>-18.92</ele>
  <time>2026-09-01T01:14:50Z</time>
  <course>71.11</course>
  <speed>0.01</speed>
  <fix>3d</fix>
</trkpt>
<trkpt lat="33.8106155" lon="-118.3935677">
  <ele>-19.999</ele>
  <time>2026-09-01T01:14:50Z</time>
  <course>156.92</course>
  <speed>0.04</speed>
  <fix>3d</fix>
</trkpt>
<trkpt lat="33.8106156" lon="-118.3935679">
  <ele>-19.01</ele>
  <time>2026-09-01T01:14:50Z</time>
  <course>71.27</course>
  <speed>0.01</speed>
  <fix>3d</fix>
</trkpt>
<trkpt lat="33.8106155" lon="-118.3935677">
  <ele>-20.007</ele>
  <time>2026-09-01T01:14:50Z</time>
  <course>156.93</course>
  <speed>0.04</speed>
  <fix>3d</fix>
</trkpt>
<trkpt lat="33.8106156" lon="-118.3935679">
  <ele>-19.01</ele>
  <time>2026-09-01T01:14:50Z</time>
  <course>71.27</course>
  <speed>0.01</speed>
  <fix>3d</fix>
</trkpt>
<trkpt lat="33.8106155" lon="-118.3935677">
  <ele>-20.011</ele>
  <time>2026-09-01T01:14:50Z</time>
  <course>156.93</course>
  <speed>0.04</speed>
  <fix>3d</fix>
</trkpt>
<trkpt lat="33.8106156" lon="-118.3935679">
  <ele>-19.06</ele>
  <time>2026-09-01T01:14:50Z</time>
  <course>71.36</course>
  <speed>0.01</speed>
  <fix>3d</fix>
</trkpt>
<trkpt lat="33.8106155" lon="-118.3935676">
  <ele>-20.012</ele>
  <time>2026-09-01T01:14:50Z</time>
  <course>156.93</course>
  <speed>0.04</speed>
  <fix>3d</fix>
</trkpt>
<trkpt lat="33.8106156" lon="-118.3935679">
  <ele>-19.06</ele>
  <time>2026-09-01T01:14:50Z</time>
  <course>71.36</course>
  <speed>0.01</speed>
  <fix>3d</fix>
</trkpt>
<trkpt lat="33.8106155" lon="-118.3935676">
  <ele>-20.012</ele>
  <time>2026-09-01T01:14:50Z</time>
  <course>156.94</course>
  <speed>0.04</speed>
  <fix>3d</fix>
</trkpt>
<trkpt lat="33.8106157" lon="-118.3935679">
  <ele>-19.08</ele>
  <time>2026-09-01T01:14:50Z</time>
  <course>71.42</course>
  <speed>0.01</speed>
  <fix>3d</fix>
</trkpt>
<trkpt lat="33.8106155" lon="-118.3935676">
  <ele>-20.013</ele>
  <time>2026-09-01T01:14:50Z</time>
  <course>156.94</course>
  <speed>0.04</speed>
  <fix>3d</fix>
</trkpt>
<trkpt lat="33.8106157" lon="-118.3935679">
  <ele>-19.08</ele>
  <time>2026-09-01T01:14:50Z</time>
  <course>71.42</course>
  <speed>0.01</speed>
  <fix>3d</fix>
</trkpt>
<trkpt lat="33.8106155" lon="-118.3935676">
  <ele>-20.014</ele>
  <time>2026-09-01T01:14:50Z</time>
  <course>156.94</course>
  <speed>0.04</speed>
  <fix>3d</fix>
</trkpt>
<trkpt lat="33.8106157" lon="-118.3935679">
  <ele>-19.1</ele>
  <time>2026-09-01T01:14:50Z</time>
  <course>71.48</course>
  <speed>0.01</speed>
  <fix>3d</fix>
</trkpt>
<trkpt lat="33.8106155" lon="-118.3935676">
  <ele>-20.016</ele>
  <time>2026-09-01T01:14:50Z</time>
  <course>156.94</course>
  <speed>0.04</speed>
  <fix>3d</fix>
</trkpt>
<trkpt lat="33.8106157" lon="-118.3935679">
  <ele>-19.1</ele>
  <time>2026-09-01T01:14:50Z</time>
  <course>71.48</course>
  <speed>0.01</speed>
  <fix>3d</fix>
</trkpt>
<trkpt lat="33.8106155" lon="-118.3935676">
  <ele>-20.019</ele>
  <time>2026-09-01T01:14:50Z</time>
  <course>156.94</course>
  <speed>0.04</speed>
  <fix>3d</fix>
</trkpt>
<trkpt lat="33.8106157" lon="-118.3935679">
  <ele>-19.11</ele>
  <time>2026-09-01T01:14:50Z</time>
  <course>71.53</course>
  <speed>0.01</speed>
  <fix>3d</fix>
</trkpt>
<trkpt lat="33.8106155" lon="-118.3935675">
  <ele>-20.02</ele>
  <time>2026-09-01T01:14:50Z</time>
  <course>156.95</course>
  <speed>0.04</speed>
  <fix>3d</fix>
</trkpt>
<trkpt lat="33.8106157" lon="-118.3935679">
  <ele>-19.11</ele>
  <time>2026-09-01T01:14:50Z</time>
  <course>71.53</course>
  <speed>0.01</speed>
  <fix>3d</fix>
</trkpt>
<trkpt lat="33.8106155" lon="-118.3935675">
  <ele>-20.023</ele>
  <time>2026-09-01T01:14:50Z</time>
  <course>156.95</course>
  <speed>0.04</speed>
  <fix>3d</fix>
</trkpt>
<trkpt lat="33.8106157" lon="-118.3935678">
  <ele>-19.13</ele>
  <time>2026-09-01T01:14:50Z</time>
  <course>71.54</course>
  <speed>0.01</speed>
  <fix>3d</fix>
</trkpt>
<trkpt lat="33.8106155" lon="-118.3935675">
  <ele>-20.025</ele>
  <time>2026-09-01T01:14:50Z</time>
  <course>156.95</course>
  <speed>0.04</speed>
  <fix>3d</fix>
</trkpt>
<trkpt lat="33.8106157" lon="-118.3935678">
  <ele>-19.13</ele>
  <time>2026-09-01T01:14:50Z</time>
  <course>71.54</course>
  <speed>0.01</speed>
  <fix>3d</fix>
</trkpt>
<trkpt lat="33.8106155" lon="-118.3935675">
  <ele>-20.028</ele>
  <time>2026-09-01T01:14:50Z</time>
  <course>156.95</course>
  <speed>0.04</speed>
  <fix>3d</fix>
</trkpt>
<trkpt lat="33.8106157" lon="-118.3935678">
  <ele>-19.15</ele>
  <time>2026-09-01T01:14:50Z</time>
  <course>71.52</course>
  <speed>0.01</speed>
  <fix>3d</fix>
</trkpt>
<trkpt lat="33.8106156" lon="-118.3935675">
  <ele>-20.031</ele>
  <time>2026-09-01T01:14:50Z</time>
  <course>156.96</course>
  <speed>0.04</speed>
  <fix>3d</fix>
</trkpt>
<trkpt lat="33.8106157" lon="-118.3935678">
  <ele>-19.15</ele>
  <time>2026-09-01T01:14:50Z</time>
  <course>71.52</course>
  <speed>0.01</speed>
  <fix>3d</fix>
</trkpt>
<trkpt lat="33.8106156" lon="-118.3935675">
  <ele>-20.033</ele>
  <time>2026-09-01T01:14:50Z</time>
  <course>156.96</course>
  <speed>0.04</speed>
  <fix>3d</fix>
</trkpt>
<trkpt lat="33.8106157" lon="-118.3935678">
  <ele>-19.16</ele>
  <time>2026-09-01T01:14:50Z</time>
  <course>71.5</course>
  <speed>0.01</speed>
  <fix>3d</fix>
</trkpt>
<trkpt lat="33.8106156" lon="-118.3935675">
  <ele>-20.035</ele>
  <time>2026-09-01T01:14:50Z</time>
  <course>156.96</course>
  <speed>0.04</speed>
  <fix>3d</fix>
</trkpt>
<trkpt lat="33.8106157" lon="-118.3935678">
  <ele>-19.16</ele>
  <time>2026-09-01T01:14:50Z</time>
  <course>71.5</course>
  <speed>0.01</speed>
  <fix>3d</fix>
</trkpt>
<trkpt lat="33.8106156" lon="-118.3935675">
  <ele>-20.037</ele>
  <time>2026-09-01T01:14:50Z</time>
  <course>156.96</course>
  <speed>0.04</speed>
  <fix>3d</fix>
</trkpt>
<trkpt lat="33.8106157" lon="-118.3935678">
  <ele>-19.17</ele>
  <time>2026-09-01T01:14:50Z</time>
  <course>71.5</course>
  <speed>0.01</speed>
  <fix>3d</fix>
</trkpt>
<trkpt lat="33.8106156" lon="-118.3935675">
  <ele>-20.038</ele>
  <time>2026-09-01T01:14:50Z</time>
  <course>156.97</course>
  <speed>0.04</speed>
  <fix>3d</fix>
</trkpt>
<trkpt lat="33.8106157" lon="-118.3935678">
  <ele>-19.17</ele>
  <time>2026-09-01T01:14:50Z</time>
  <course>71.5</course>
  <speed>0.01</speed>
  <fix>3d</fix>
</trkpt>
<trkpt lat="33.8106156" lon="-118.3935674">
  <ele>-20.038</ele>
  <time>2026-09-01T01:14:50Z</time>
  <course>156.97</course>
  <speed>0.04</speed>
  <fix>3d</fix>
</trkpt>
<trkpt lat="33.8106157" lon="-118.3935677">
  <ele>-19.18</ele>
  <time>2026-09-01T01:14:50Z</time>
  <course>71.54</course>
  <speed>0.01</speed>
  <fix>3d</fix>
</trkpt>
<trkpt lat="33.8106156" lon="-118.3935674">
  <ele>-20.037</ele>
  <time>2026-09-01T01:14:50Z</time>
  <course>156.97</course>
  <speed>0.04</speed>
  <fix>3d</fix>
</trkpt>
<trkpt lat="33.8106157" lon="-118.3935677">
  <ele>-19.18</ele>
  <time>2026-09-01T01:14:50Z</time>
  <course>71.54</course>
  <speed>0.01</speed>
  <fix>3d</fix>
</trkpt>
<trkpt lat="33.8106156" lon="-118.3935674">
  <ele>-20.038</ele>
  <time>2026-09-01T01:14:50Z</time>
  <course>156.97</course>
  <speed>0.04</speed>
  <fix>3d</fix>
</trkpt>
<trkpt lat="33.8106157" lon="-118.3935677">
  <ele>-19.18</ele>
  <time>2026-09-01T01:14:50Z</time>
  <course>71.6</course>
  <speed>0.01</speed>
  <fix>3d</fix>
</trkpt>
<trkpt lat="33.8106156" lon="-118.3935674">
  <ele>-20.039</ele>
  <time>2026-09-01T01:14:50Z</time>
  <course>156.98</course>
  <speed>0.04</speed>
  <fix>3d</fix>
</trkpt>
<trkpt lat="33.8106157" lon="-118.3935677">
  <ele>-19.18</ele>
  <time>2026-09-01T01:14:50Z</time>
  <course>71.6</course>
  <speed>0.01</speed>
  <fix>3d</fix>
</trkpt>
<trkpt lat="33.8106156" lon="-118.3935674">
  <ele>-20.041</ele>
  <time>2026-09-01T01:14:50Z</time>
  <course>156.98</course>
  <speed>0.04</speed>
  <fix>3d</fix>
</trkpt>
<trkpt lat="33.8106157" lon="-118.3935677">
  <ele>-19.18</ele>
  <time>2026-09-01T01:14:50Z</time>
  <course>71.63</course>
  <speed>0.01</speed>
  <fix>3d</fix>
</trkpt>
<trkpt lat="33.8106156" lon="-118.3935674">
  <ele>-20.042</ele>
  <time>2026-09-01T01:14:50Z</time>
  <course>156.98</course>
  <speed>0.04</speed>
  <fix>3d</fix>
</trkpt>
<trkpt lat="33.8106157" lon="-118.3935677">
  <ele>-19.18</ele>
  <time>2026-09-01T01:14:50Z</time>
  <course>71.63</course>
  <speed>0.01</speed>
  <fix>3d</fix>
</trkpt>
<trkpt lat="33.8106156" lon="-118.3935674">
  <ele>-20.043</ele>
  <time>2026-09-01T01:14:50Z</time>
  <course>156.99</course>
  <speed>0.04</speed>
  <fix>3d</fix>
</trkpt>
<trkpt lat="33.8106157" lon="-118.3935676">
  <ele>-19.19</ele>
  <time>2026-09-01T01:14:50Z</time>
  <course>71.62</course>
  <speed>0.01</speed>
  <fix>3d</fix>
</trkpt>
<trkpt lat="33.8106156" lon="-118.3935674">
  <ele>-20.043</ele>
  <time>2026-09-01T01:14:50Z</time>
  <course>156.99</course>
  <speed>0.04</speed>
  <fix>3d</fix>
</trkpt>
<trkpt lat="33.8106157" lon="-118.3935676">
  <ele>-19.19</ele>
  <time>2026-09-01T01:14:50Z</time>
  <course>71.62</course>
  <speed>0.01</speed>
  <fix>3d</fix>
</trkpt>
<trkpt lat="33.8106156" lon="-118.3935673">
  <ele>-20.044</ele>
  <time>2026-09-01T01:14:50Z</time>
  <course>156.99</course>
  <speed>0.04</speed>
  <fix>3d</fix>
</trkpt>
<trkpt lat="33.8106157" lon="-118.3935676">
  <ele>-19.19</ele>
  <time>2026-09-01T01:14:50Z</time>
  <course>71.59</course>
  <speed>0.01</speed>
  <fix>3d</fix>
</trkpt>
<trkpt lat="33.8106156" lon="-118.3935673">
  <ele>-20.045</ele>
  <time>2026-09-01T01:14:50Z</time>
  <course>156.99</course>
  <speed>0.04</speed>
  <fix>3d</fix>
</trkpt>
<trkpt lat="33.8106157" lon="-118.3935676">
  <ele>-19.19</ele>
  <time>2026-09-01T01:14:50Z</time>
  <course>71.59</course>
  <speed>0.01</speed>
  <fix>3d</fix>
</trkpt>
<trkpt lat="33.8106156" lon="-118.3935673">
  <ele>-20.044</ele>
  <time>2026-09-01T01:14:50Z</time>
  <course>156.99</course>
  <speed>0.04</speed>
  <fix>3d</fix>
</trkpt>
<trkpt lat="33.8106158" lon="-118.3935676">
  <ele>-19.18</ele>
  <time>2026-09-01T01:14:50Z</time>
  <course>71.57</course>
  <speed>0.01</speed>
  <fix>3d</fix>
</trkpt>
<trkpt lat="33.8106156" lon="-118.3935673">
  <ele>-20.043</ele>
  <time>2026-09-01T01:14:50Z</time>
  <course>157.0</course>
  <speed>0.04</speed>
  <fix>3d</fix>
</trkpt>
<trkpt lat="33.8106158" lon="-118.3935676">
  <ele>-19.18</ele>
  <time>2026-09-01T01:14:50Z</time>
  <course>71.57</course>
  <speed>0.01</speed>
  <fix>3d</fix>
</trkpt>
<trkpt lat="33.8106156" lon="-118.3935673">
  <ele>-20.04</ele>
  <time>2026-09-01T01:14:50Z</time>
  <course>157.0</course>
  <speed>0.04</speed>
  <fix>3d</fix>
</trkpt>
<trkpt lat="33.8106158" lon="-118.3935676">
  <ele>-19.18</ele>
  <time>2026-09-01T01:14:50Z</time>
  <course>71.57</course>
  <speed>0.01</speed>
  <fix>3d</fix>
</trkpt>
<trkpt lat="33.8106156" lon="-118.3935673">
  <ele>-20.038</ele>
  <time>2026-09-01T01:14:50Z</time>
  <course>157.0</course>
  <speed>0.04</speed>
  <fix>3d</fix>
</trkpt>
<trkpt lat="33.8106158" lon="-118.3935676">
  <ele>-19.18</ele>
  <time>2026-09-01T01:14:50Z</time>
  <course>71.57</course>
  <speed>0.01</speed>
  <fix>3d</fix>
</trkpt>
<trkpt lat="33.8106156" lon="-118.3935673">
  <ele>-20.035</ele>
  <time>2026-09-01T01:14:50Z</time>
  <course>157.0</course>
  <speed>0.04</speed>
  <fix>3d</fix>
</trkpt>
<trkpt lat="33.8106158" lon="-118.3935675">
  <ele>-19.17</ele>
  <time>2026-09-01T01:14:50Z</time>
  <course>71.61</course>
  <speed>0.01</speed>
  <fix>3d</fix>
</trkpt>
<trkpt lat="33.8106156" lon="-118.3935673">
  <ele>-20.033</ele>
  <time>2026-09-01T01:14:50Z</time>
  <course>157.01</course>
  <speed>0.04</speed>
  <fix>3d</fix>
</trkpt>
<trkpt lat="33.8106158" lon="-118.3935675">
  <ele>-19.17</ele>
  <time>2026-09-01T01:14:50Z</time>
  <course>71.61</course>
  <speed>0.01</speed>
  <fix>3d</fix>
</trkpt>
<trkpt lat="33.8106156" lon="-118.3935672">
  <ele>-20.031</ele>
  <time>2026-09-01T01:14:50Z</time>
  <course>157.01</course>
  <speed>0.04</speed>
  <fix>3d</fix>
</trkpt>
<trkpt lat="33.8106158" lon="-118.3935675">
  <ele>-19.17</ele>
  <time>2026-09-01T01:14:50Z</time>
  <course>71.65</course>
  <speed>0.01</speed>
  <fix>3d</fix>
</trkpt>
<trkpt lat="33.8106156" lon="-118.3935672">
  <ele>-20.03</ele>
  <time>2026-09-01T01:14:50Z</time>
  <course>157.01</course>
  <speed>0.04</speed>
  <fix>3d</fix>
</trkpt>
<trkpt lat="33.8106158" lon="-118.3935675">
  <ele>-19.17</ele>
  <time>2026-09-01T01:14:50Z</time>
  <course>71.65</course>
  <speed>0.01</speed>
  <fix>3d</fix>
</trkpt>
<trkpt lat="33.8106156" lon="-118.3935672">
  <ele>-20.03</ele>
  <time>2026-09-01T01:14:50Z</time>
  <course>157.01</course>
  <speed>0.04</speed>
  <fix>3d</fix>
</trkpt>
<trkpt lat="33.8106158" lon="-118.3935675">
  <ele>-19.17</ele>
  <time>2026-09-01T01:14:50Z</time>
  <course>71.67</course>
  <speed>0.01</speed>
  <fix>3d</fix>
</trkpt>
<trkpt lat="33.8106156" lon="-118.3935672">
  <ele>-20.03</ele>
  <time>2026-09-01T01:14:50Z</time>
  <course>157.01</course>
  <speed>0.04</speed>
  <fix>3d</fix>
</trkpt>
<trkpt lat="33.8106158" lon="-118.3935675">
  <ele>-19.17</ele>
  <time>2026-09-01T01:14:50Z</time>
  <course>71.67</course>
  <speed>0.01</speed>
  <fix>3d</fix>
</trkpt>
<trkpt lat="33.8106157" lon="-118.3935672">
  <ele>-20.031</ele>
  <time>2026-09-01T01:14:50Z</time>
  <course>157.02</course>
  <speed>0.04</speed>
  <fix>3d</fix>
</trkpt>
<trkpt lat="33.8106158" lon="-118.3935674">
  <ele>-19.17</ele>
  <time>2026-09-01T01:14:50Z</time>
  <course>71.64</course>
  <speed>0.01</speed>
  <fix>3d</fix>
</trkpt>
<trkpt lat="33.8106157" lon="-118.3935672">
  <ele>-20.032</ele>
  <time>2026-09-01T01:14:50Z</time>
  <course>157.02</course>
  <speed>0.04</speed>
  <fix>3d</fix>
</trkpt>
<trkpt lat="33.8106158" lon="-118.3935674">
  <ele>-19.17</ele>
  <time>2026-09-01T01:14:50Z</time>
  <course>71.64</course>
  <speed>0.01</speed>
  <fix>3d</fix>
</trkpt>
<trkpt lat="33.8106157" lon="-118.3935672">
  <ele>-20.033</ele>
  <time>2026-09-01T01:14:50Z</time>
  <course>157.02</course>
  <speed>0.04</speed>
  <fix>3d</fix>
</trkpt>
<trkpt lat="33.8106158" lon="-118.3935674">
  <ele>-19.18</ele>
  <time>2026-09-01T01:14:50Z</time>
  <course>71.59</course>
  <speed>0.01</speed>
  <fix>3d</fix>
</trkpt>
<trkpt lat="33.8106157" lon="-118.3935671">
  <ele>-20.034</ele>
  <time>2026-09-01T01:14:50Z</time>
  <course>157.02</course>
  <speed>0.04</speed>
  <fix>3d</fix>
</trkpt>
<trkpt lat="33.8106158" lon="-118.3935674">
  <ele>-19.18</ele>
  <time>2026-09-01T01:14:50Z</time>
  <course>71.59</course>
  <speed>0.01</speed>
  <fix>3d</fix>
</trkpt>
<trkpt lat="33.8106157" lon="-118.3935671">
  <ele>-20.036</ele>
  <time>2026-09-01T01:14:50Z</time>
  <course>157.03</course>
  <speed>0.04</speed>
  <fix>3d</fix>
</trkpt>
<trkpt lat="33.8106158" lon="-118.3935674">
  <ele>-19.18</ele>
  <time>2026-09-01T01:14:50Z</time>
  <course>71.56</course>
  <speed>0.01</speed>
  <fix>3d</fix>
</trkpt>
<trkpt lat="33.8106157" lon="-118.3935671">
  <ele>-20.038</ele>
  <time>2026-09-01T01:14:50Z</time>
  <course>157.03</course>
  <speed>0.04</speed>
  <fix>3d</fix>
</trkpt>
<trkpt lat="33.8106158" lon="-118.3935674">
  <ele>-19.18</ele>
  <time>2026-09-01T01:14:50Z</time>
  <course>71.56</course>
  <speed>0.01</speed>
  <fix>3d</fix>
</trkpt>
<trkpt lat="33.8106157" lon="-118.3935671">
  <ele>-20.039</ele>
  <time>2026-09-01T01:14:50Z</time>
  <course>157.03</course>
  <speed>0.04</speed>
  <fix>3d</fix>
</trkpt>
<trkpt lat="33.8106158" lon="-118.3935674">
  <ele>-19.18</ele>
  <time>2026-09-01T01:14:50Z</time>
  <course>71.58</course>
  <speed>0.01</speed>
  <fix>3d</fix>
</trkpt>
<trkpt lat="33.8106157" lon="-118.3935671">
  <ele>-20.04</ele>
  <time>2026-09-01T01:14:50Z</time>
  <course>157.03</course>
  <speed>0.04</speed>
  <fix>3d</fix>
</trkpt>
<trkpt lat="33.8106158" lon="-118.3935674">
  <ele>-19.18</ele>
  <time>2026-09-01T01:14:50Z</time>
  <course>71.58</course>
  <speed>0.01</speed>
  <fix>3d</fix>
</trkpt>
<trkpt lat="33.8106157" lon="-118.3935671">
  <ele>-20.039</ele>
  <time>2026-09-01T01:14:50Z</time>
  <course>157.04</course>
  <speed>0.04</speed>
  <fix>3d</fix>
</trkpt>
<trkpt lat="33.8106158" lon="-118.3935673">
  <ele>-19.18</ele>
  <time>2026-09-01T01:14:50Z</time>
  <course>71.63</course>
  <speed>0.01</speed>
  <fix>3d</fix>
</trkpt>
<trkpt lat="33.8106157" lon="-118.3935671">
  <ele>-20.038</ele>
  <time>2026-09-01T01:14:50Z</time>
  <course>157.04</course>
  <speed>0.04</speed>
  <fix>3d</fix>
</trkpt>
<trkpt lat="33.8106158" lon="-118.3935673">
  <ele>-19.18</ele>
  <time>2026-09-01T01:14:50Z</time>
  <course>71.63</course>
  <speed>0.01</speed>
  <fix>3d</fix>
</trkpt>
<trkpt lat="33.8106157" lon="-118.3935671">
  <ele>-20.037</ele>
  <time>2026-09-01T01:14:50Z</time>
  <course>157.04</course>
  <speed>0.04</speed>
  <fix>3d</fix>
</trkpt>
<trkpt lat="33.8106158" lon="-118.3935673">
  <ele>-19.18</ele>
  <time>2026-09-01T01:14:50Z</time>
  <course>71.66</course>
  <speed>0.01</speed>
  <fix>3d</fix>
</trkpt>
<trkpt lat="33.8106157" lon="-118.393567">
  <ele>-20.037</ele>
  <time>2026-09-01T01:14:50Z</time>
  <course>157.04</course>
  <speed>0.04</speed>
  <fix>3d</fix>
</trkpt>
<trkpt lat="33.8106158" lon="-118.3935673">
  <ele>-19.18</ele>
  <time>2026-09-01T01:14:50Z</time>
  <course>71.66</course>
  <speed>0.01</speed>
  <fix>3d</fix>
</trkpt>
<trkpt lat="33.8106157" lon="-118.393567">
  <ele>-20.038</ele>
  <time>2026-09-01T01:14:50Z</time>
  <course>157.04</course>
  <speed>0.04</speed>
  <fix>3d</fix>
</trkpt>
<trkpt lat="33.8106158" lon="-118.3935673">
  <ele>-19.18</ele>
  <time>2026-09-01T01:14:50Z</time>
  <course>71.66</course>
  <speed>0.01</speed>
  <fix>3d</fix>
</trkpt>
<trkpt lat="33.8106157" lon="-118.393567">
  <ele>-20.04</ele>
  <time>2026-09-01T01:14:50Z</time>
  <course>157.05</course>
  <speed>0.04</speed>
  <fix>3d</fix>
</trkpt>
<trkpt lat="33.8106158" lon="-118.3935673">
  <ele>-19.18</ele>
  <time>2026-09-01T01:14:50Z</time>
  <course>71.66</course>
  <speed>0.01</speed>
  <fix>3d</fix>
</trkpt>
<trkpt lat="33.8106157" lon="-118.393567">
  <ele>-20.04</ele>
  <time>2026-09-01T01:14:50Z</time>
  <course>157.05</course>
  <speed>0.04</speed>
  <fix>3d</fix>
</trkpt>
<trkpt lat="33.8106158" lon="-118.3935672">
  <ele>-19.17</ele>
  <time>2026-09-01T01:14:50Z</time>
  <course>71.62</course>
  <speed>0.01</speed>
  <fix>3d</fix>
</trkpt>
<trkpt lat="33.8106157" lon="-118.393567">
  <ele>-20.04</ele>
  <time>2026-09-01T01:14:50Z</time>
  <course>157.05</course>
  <speed>0.04</speed>
  <fix>3d</fix>
</trkpt>
<trkpt lat="33.8106158" lon="-118.3935672">
  <ele>-19.17</ele>
  <time>2026-09-01T01:14:50Z</time>
  <course>71.62</course>
  <speed>0.01</speed>
  <fix>3d</fix>
</trkpt>
<trkpt lat="33.8106157" lon="-118.393567">
  <ele>-20.038</ele>
  <time>2026-09-01T01:14:50Z</time>
  <course>157.04</course>
  <speed>0.04</speed>
  <fix>3d</fix>
</trkpt>
<trkpt lat="33.8106159" lon="-118.3935672">
  <ele>-19.17</ele>
  <time>2026-09-01T01:14:50Z</time>
  <course>71.58</course>
  <speed>0.01</speed>
  <fix>3d</fix>
</trkpt>
<trkpt lat="33.8106157" lon="-118.393567">
  <ele>-20.032</ele>
  <time>2026-09-01T01:14:50Z</time>
  <course>157.03</course>
  <speed>0.04</speed>
  <fix>3d</fix>
</trkpt>
<trkpt lat="33.8106159" lon="-118.3935672">
  <ele>-19.17</ele>
  <time>2026-09-01T01:14:50Z</time>
  <course>71.58</course>
  <speed>0.01</speed>
  <fix>3d</fix>
</trkpt>
<trkpt lat="33.8106157" lon="-118.3935669">
  <ele>-20.016</ele>
  <time>2026-09-01T01:14:50Z</time>
  <course>157.01</course>
  <speed>0.04</speed>
  <fix>3d</fix>
</trkpt>
<trkpt lat="33.8106159" lon="-118.3935672">
  <ele>-19.16</ele>
  <time>2026-09-01T01:14:50Z</time>
  <course>71.59</course>
  <speed>0.01</speed>
  <fix>3d</fix>
</trkpt>
<trkpt lat="33.8106157" lon="-118.3935669">
  <ele>-19.979</ele>
  <time>2026-09-01T01:14:50Z</time>
  <course>157.0</course>
  <speed>0.04</speed>
  <fix>3d</fix>
</trkpt>
<trkpt lat="33.8106159" lon="-118.3935672">
  <ele>-19.16</ele>
  <time>2026-09-01T01:14:50Z</time>
  <course>71.59</course>
  <speed>0.01</speed>
  <fix>3d</fix>
</trkpt>
<trkpt lat="33.8106157" lon="-118.3935669">
  <ele>-19.978</ele>
  <time>2026-09-01T01:14:50Z</time>
  <course>157.0</course>
  <speed>0.04</speed>
  <fix>3d</fix>
</trkpt>
<trkpt lat="33.8106157" lon="-118.3935669">
  <ele>-19.92</ele>
  <time>2026-09-01T01:14:50Z</time>
  <course>156.98</course>
  <speed>0.04</speed>
  <fix>3d</fix>
</trkpt>
<trkpt lat="33.8106159" lon="-118.3935672">
  <ele>-19.13</ele>
  <time>2026-09-01T01:14:50Z</time>
  <course>71.66</course>
  <speed>0.01</speed>
  <fix>3d</fix>
</trkpt>
<trkpt lat="33.8106157" lon="-118.3935669">
  <ele>-19.919</ele>
  <time>2026-09-01T01:14:50Z</time>
  <course>156.98</course>
  <speed>0.04</speed>
  <fix>3d</fix>
</trkpt>
<trkpt lat="33.8106157" lon="-118.3935669">
  <ele>-19.841</ele>
  <time>2026-09-01T01:14:50Z</time>
  <course>156.97</course>
  <speed>0.04</speed>
  <fix>3d</fix>
</trkpt>
<trkpt lat="33.8106159" lon="-118.3935672">
  <ele>-19.13</ele>
  <time>2026-09-01T01:14:50Z</time>
  <course>71.66</course>
  <speed>0.01</speed>
  <fix>3d</fix>
</trkpt>
<trkpt lat="33.8106157" lon="-118.3935669">
  <ele>-19.808</ele>
  <time>2026-09-01T01:14:50Z</time>
  <course>156.96</course>
  <speed>0.04</speed>
  <fix>3d</fix>
</trkpt>
<trkpt lat="33.8106157" lon="-118.3935669">
  <ele>-19.741</ele>
  <time>2026-09-01T01:14:50Z</time>
  <course>156.95</course>
  <speed>0.04</speed>
  <fix>3d</fix>
</trkpt>
<trkpt lat="33.8106159" lon="-118.3935671">
  <ele>-19.02</ele>
  <time>2026-09-01T01:14:50Z</time>
  <course>71.78</course>
  <speed>0.01</speed>
  <fix>3d</fix>
</trkpt>
<trkpt lat="33.8106157" lon="-118.3935669">
  <ele>-19.705</ele>
  <time>2026-09-01T01:14:50Z</time>
  <course>156.95</course>
  <speed>0.04</speed>
  <fix>3d</fix>
</trkpt>
<trkpt lat="33.8106157" lon="-118.3935669">
  <ele>-19.623</ele>
  <time>2026-09-01T01:14:50Z</time>
  <course>156.94</course>
  <speed>0.04</speed>
  <fix>3d</fix>
</trkpt>
<trkpt lat="33.8106159" lon="-118.3935671">
  <ele>-19.02</ele>
  <time>2026-09-01T01:14:50Z</time>
  <course>71.78</course>
  <speed>0.01</speed>
  <fix>3d</fix>
</trkpt>
<trkpt lat="33.8106157" lon="-118.3935669">
  <ele>-19.581</ele>
  <time>2026-09-01T01:14:50Z</time>
  <course>156.93</course>
  <speed>0.04</speed>
  <fix>3d</fix>
</trkpt>
<trkpt lat="33.8106157" lon="-118.3935669">
  <ele>-19.492</ele>
  <time>2026-09-01T01:14:50Z</time>
  <course>156.92</course>
  <speed>0.04</speed>
  <fix>3d</fix>
</trkpt>
<trkpt lat="33.8106159" lon="-118.3935671">
  <ele>-18.84</ele>
  <time>2026-09-01T01:14:50Z</time>
  <course>71.98</course>
  <speed>0.01</speed>
  <fix>3d</fix>
</trkpt>
<trkpt lat="33.8106157" lon="-118.3935669">
  <ele>-19.449</ele>
  <time>2026-09-01T01:14:50Z</time>
  <course>156.92</course>
  <speed>0.04</speed>
  <fix>3d</fix>
</trkpt>
<trkpt lat="33.8106157" lon="-118.3935668">
  <ele>-19.359</ele>
  <time>2026-09-01T01:14:50Z</time>
  <course>156.91</course>
  <speed>0.04</speed>
  <fix>3d</fix>
</trkpt>
<trkpt lat="33.8106159" lon="-118.3935671">
  <ele>-18.84</ele>
  <time>2026-09-01T01:14:50Z</time>
  <course>71.98</course>
  <speed>0.01</speed>
  <fix>3d</fix>
</trkpt>
<trkpt lat="33.8106157" lon="-118.3935668">
  <ele>-19.319</ele>
  <time>2026-09-01T01:14:50Z</time>
  <course>156.9</course>
  <speed>0.04</speed>
  <fix>3d</fix>
</trkpt>
<trkpt lat="33.8106157" lon="-118.3935668">
  <ele>-19.225</ele>
  <time>2026-09-01T01:14:50Z</time>
  <course>156.89</course>
  <speed>0.04</speed>
  <fix>3d</fix>
</trkpt>
<trkpt lat="33.8106159" lon="-118.3935671">
  <ele>-18.6</ele>
  <time>2026-09-01T01:14:50Z</time>
  <course>72.11</course>
  <speed>0.01</speed>
  <fix>3d</fix>
</trkpt>
<trkpt lat="33.8106157" lon="-118.3935668">
  <ele>-19.181</ele>
  <time>2026-09-01T01:14:50Z</time>
  <course>156.89</course>
  <speed>0.04</speed>
  <fix>3d</fix>
</trkpt>
<trkpt lat="33.8106157" lon="-118.3935668">
  <ele>-19.091</ele>
  <time>2026-09-01T01:14:50Z</time>
  <course>156.88</course>
  <speed>0.03</speed>
  <fix>3d</fix>
</trkpt>
<trkpt lat="33.8106159" lon="-118.3935671">
  <ele>-18.6</ele>
  <time>2026-09-01T01:14:50Z</time>
  <course>72.11</course>
  <speed>0.01</speed>
  <fix>3d</fix>
</trkpt>
<trkpt lat="33.8106157" lon="-118.3935668">
  <ele>-19.051</ele>
  <time>2026-09-01T01:14:50Z</time>
  <course>156.88</course>
  <speed>0.04</speed>
  <fix>3d</fix>
</trkpt>
<trkpt lat="33.8106157" lon="-118.3935668">
  <ele>-18.957</ele>
  <time>2026-09-01T01:14:50Z</time>
  <course>156.87</course>
  <speed>0.03</speed>
  <fix>3d</fix>
</trkpt>
<trkpt lat="33.8106159" lon="-118.3935671">
  <ele>-18.35</ele>
  <time>2026-09-01T01:14:50Z</time>
  <course>72.1</course>
  <speed>0.01</speed>
  <fix>3d</fix>
</trkpt>
<trkpt lat="33.8106158" lon="-118.3935668">
  <ele>-18.924</ele>
  <time>2026-09-01T01:14:50Z</time>
  <course>156.86</course>
  <speed>0.03</speed>
  <fix>3d</fix>
</trkpt>
<trkpt lat="33.8106158" lon="-118.3935668">
  <ele>-18.824</ele>
  <time>2026-09-01T01:14:50Z</time>
  <course>156.85</course>
  <speed>0.03</speed>
  <fix>3d</fix>
</trkpt>
<trkpt lat="33.8106159" lon="-118.3935671">
  <ele>-18.35</ele>
  <time>2026-09-01T01:14:50Z</time>
  <course>72.1</course>
  <speed>0.01</speed>
  <fix>3d</fix>
</trkpt>
<trkpt lat="33.8106158" lon="-118.3935668">
  <ele>-18.784</ele>
  <time>2026-09-01T01:14:50Z</time>
  <course>156.85</course>
  <speed>0.03</speed>
  <fix>3d</fix>
</trkpt>
<trkpt lat="33.8106158" lon="-118.3935668">
  <ele>-18.69</ele>
  <time>2026-09-01T01:14:50Z</time>
  <course>156.84</course>
  <speed>0.03</speed>
  <fix>3d</fix>
</trkpt>
<trkpt lat="33.8106159" lon="-118.393567">
  <ele>-18.1</ele>
  <time>2026-09-01T01:14:50Z</time>
  <course>72.1</course>
  <speed>0.01</speed>
  <fix>3d</fix>
</trkpt>
<trkpt lat="33.8106158" lon="-118.3935668">
  <ele>-18.647</ele>
  <time>2026-09-01T01:14:50Z</time>
  <course>156.83</course>
  <speed>0.03</speed>
  <fix>3d</fix>
</trkpt>
<trkpt lat="33.8106158" lon="-118.3935668">
  <ele>-18.558</ele>
  <time>2026-09-01T01:14:50Z</time>
  <course>156.83</course>
  <speed>0.03</speed>
  <fix>3d</fix>
</trkpt>
<trkpt lat="33.8106159" lon="-118.393567">
  <ele>-18.1</ele>
  <time>2026-09-01T01:14:50Z</time>
  <course>72.1</course>
  <speed>0.01</speed>
  <fix>3d</fix>
</trkpt>
<trkpt lat="33.8106158" lon="-118.3935668">
  <ele>-18.554</ele>
  <time>2026-09-01T01:14:50Z</time>
  <course>156.83</course>
  <speed>0.03</speed>
  <fix>3d</fix>
</trkpt>
<trkpt lat="33.8106158" lon="-118.3935668">
  <ele>-18.425</ele>
  <time>2026-09-01T01:14:50Z</time>
  <course>156.81</course>
  <speed>0.03</speed>
  <fix>3d</fix>
</trkpt>
<trkpt lat="33.8106159" lon="-118.393567">
  <ele>-17.85</ele>
  <time>2026-09-01T01:14:50Z</time>
  <course>72.15</course>
  <speed>0.01</speed>
  <fix>3d</fix>
</trkpt>
<trkpt lat="33.8106158" lon="-118.3935668">
  <ele>-18.382</ele>
  <time>2026-09-01T01:14:50Z</time>
  <course>156.81</course>
  <speed>0.03</speed>
  <fix>3d</fix>
</trkpt>
<trkpt lat="33.8106158" lon="-118.3935668">
  <ele>-18.292</ele>
  <time>2026-09-01T01:14:50Z</time>
  <course>156.8</course>
  <speed>0.03</speed>
  <fix>3d</fix>
</trkpt>
<trkpt lat="33.8106159" lon="-118.393567">
  <ele>-17.85</ele>
  <time>2026-09-01T01:14:50Z</time>
  <course>72.15</course>
  <speed>0.01</speed>
  <fix>3d</fix>
</trkpt>
<trkpt lat="33.8106158" lon="-118.3935668">
  <ele>-18.251</ele>
  <time>2026-09-01T01:14:50Z</time>
  <course>156.79</course>
  <speed>0.03</speed>
  <fix>3d</fix>
</trkpt>
<trkpt lat="33.8106158" lon="-118.3935667">
  <ele>-18.158</ele>
  <time>2026-09-01T01:14:50Z</time>
  <course>156.79</course>
  <speed>0.03</speed>
  <fix>3d</fix>
</trkpt>
<trkpt lat="33.8106159" lon="-118.393567">
  <ele>-17.6</ele>
  <time>2026-09-01T01:14:50Z</time>
  <course>72.25</course>
  <speed>0.01</speed>
  <fix>3d</fix>
</trkpt>
<trkpt lat="33.8106158" lon="-118.3935667">
  <ele>-18.115</ele>
  <time>2026-09-01T01:14:50Z</time>
  <course>156.78</course>
  <speed>0.03</speed>
  <fix>3d</fix>
</trkpt>
<trkpt lat="33.8106158" lon="-118.3935667">
  <ele>-18.025</ele>
  <time>2026-09-01T01:14:50Z</time>
  <course>156.77</course>
  <speed>0.03</speed>
  <fix>3d</fix>
</trkpt>
<trkpt lat="33.8106159" lon="-118.393567">
  <ele>-17.6</ele>
  <time>2026-09-01T01:14:50Z</time>
  <course>72.25</course>
  <speed>0.01</speed>
  <fix>3d</fix>
</trkpt>
<trkpt lat="33.8106158" lon="-118.3935667">
  <ele>-17.975</ele>
  <time>2026-09-01T01:14:50Z</time>
  <course>156.77</course>
  <speed>0.03</speed>
  <fix>3d</fix>
</trkpt>
<trkpt lat="33.8106158" lon="-118.3935667">
  <ele>-17.891</ele>
  <time>2026-09-01T01:14:50Z</time>
  <course>156.76</course>
  <speed>0.03</speed>
  <fix>3d</fix>
</trkpt>
<trkpt lat="33.8106159" lon="-118.393567">
  <ele>-17.35</ele>
  <time>2026-09-01T01:14:50Z</time>
  <course>72.34</course>
  <speed>0.01</speed>
  <fix>3d</fix>
</trkpt>
<trkpt lat="33.8106158" lon="-118.3935667">
  <ele>-17.848</ele>
  <time>2026-09-01T01:14:50Z</time>
  <course>156.75</course>
  <speed>0.03</speed>
  <fix>3d</fix>
</trkpt>
<trkpt lat="33.8106158" lon="-118.3935667">
  <ele>-17.759</ele>
  <time>2026-09-01T01:14:50Z</time>
  <course>156.75</course>
  <speed>0.03</speed>
  <fix>3d</fix>
</trkpt>
<trkpt lat="33.8106159" lon="-118.393567">
  <ele>-17.35</ele>
  <time>2026-09-01T01:14:50Z</time>
  <course>72.34</course>
  <speed>0.01</speed>
  <fix>3d</fix>
</trkpt>
<trkpt lat="33.8106158" lon="-118.3935667">
  <ele>-17.717</ele>
  <time>2026-09-01T01:14:50Z</time>
  <course>156.74</course>
  <speed>0.03</speed>
  <fix>3d</fix>
</trkpt>
<trkpt lat="33.8106158" lon="-118.3935667">
  <ele>-17.628</ele>
  <time>2026-09-01T01:14:50Z</time>
  <course>156.73</course>
  <speed>0.03</speed>
  <fix>3d</fix>
</trkpt>
<trkpt lat="33.8106159" lon="-118.393567">
  <ele>-17.1</ele>
  <time>2026-09-01T01:14:50Z</time>
  <course>72.39</course>
  <speed>0.01</speed>
  <fix>3d</fix>
</trkpt>
<trkpt lat="33.8106158" lon="-118.3935667">
  <ele>-17.587</ele>
  <time>2026-09-01T01:14:50Z</time>
  <course>156.73</course>
  <speed>0.03</speed>
  <fix>3d</fix>
</trkpt>
<trkpt lat="33.8106158" lon="-118.3935667">
  <ele>-17.498</ele>
  <time>2026-09-01T01:14:50Z</time>
  <course>156.72</course>
  <speed>0.03</speed>
  <fix>3d</fix>
</trkpt>
<trkpt lat="33.8106159" lon="-118.393567">
  <ele>-17.1</ele>
  <time>2026-09-01T01:14:50Z</time>
  <course>72.39</course>
  <speed>0.01</speed>
  <fix>3d</fix>
</trkpt>
<trkpt lat="33.8106158" lon="-118.3935667">
  <ele>-17.456</ele>
  <time>2026-09-01T01:14:50Z</time>
  <course>156.72</course>
  <speed>0.03</speed>
  <fix>3d</fix>
</trkpt>
<trkpt lat="33.8106158" lon="-118.3935667">
  <ele>-17.368</ele>
  <time>2026-09-01T01:14:50Z</time>
  <course>156.71</course>
  <speed>0.03</speed>
  <fix>3d</fix>
</trkpt>
<trkpt lat="33.8106159" lon="-118.3935669">
  <ele>-16.84</ele>
  <time>2026-09-01T01:14:50Z</time>
  <course>72.38</course>
  <speed>0.01</speed>
  <fix>3d</fix>
</trkpt>
<trkpt lat="33.8106158" lon="-118.3935667">
  <ele>-17.366</ele>
  <time>2026-09-01T01:14:50Z</time>
  <course>156.71</course>
  <speed>0.03</speed>
  <fix>3d</fix>
</trkpt>
<trkpt lat="33.8106158" lon="-118.3935667">
  <ele>-17.239</ele>
  <time>2026-09-01T01:14:50Z</time>
  <course>156.69</course>
  <speed>0.03</speed>
  <fix>3d</fix>
</trkpt>
<trkpt lat="33.8106159" lon="-118.3935669">
  <ele>-16.84</ele>
  <time>2026-09-01T01:14:50Z</time>
  <course>72.38</course>
  <speed>0.01</speed>
  <fix>3d</fix>
</trkpt>
<trkpt lat="33.8106158" lon="-118.3935667">
  <ele>-17.194</ele>
  <time>2026-09-01T01:14:50Z</time>
  <course>156.69</course>
  <speed>0.03</speed>
  <fix>3d</fix>
</trkpt>
<trkpt lat="33.8106158" lon="-118.3935667">
  <ele>-17.11</ele>
  <time>2026-09-01T01:14:50Z</time>
  <course>156.68</course>
  <speed>0.03</speed>
  <fix>3d</fix>
</trkpt>
<trkpt lat="33.8106159" lon="-118.3935669">
  <ele>-16.59</ele>
  <time>2026-09-01T01:14:50Z</time>
  <course>72.35</course>
  <speed>0.01</speed>
  <fix>3d</fix>
</trkpt>
<trkpt lat="33.8106158" lon="-118.3935667">
  <ele>-17.108</ele>
  <time>2026-09-01T01:14:50Z</time>
  <course>156.68</course>
  <speed>0.03</speed>
  <fix>3d</fix>
</trkpt>
<trkpt lat="33.8106158" lon="-118.3935667">
  <ele>-16.981</ele>
  <time>2026-09-01T01:14:50Z</time>
  <course>156.67</course>
  <speed>0.03</speed>
  <fix>3d</fix>
</trkpt>
<trkpt lat="33.8106159" lon="-118.3935669">
  <ele>-16.59</ele>
  <time>2026-09-01T01:14:50Z</time>
  <course>72.35</course>
  <speed>0.01</speed>
  <fix>3d</fix>
</trkpt>
<trkpt lat="33.8106158" lon="-118.3935667">
  <ele>-16.939</ele>
  <time>2026-09-01T01:14:50Z</time>
  <course>156.66</course>
  <speed>0.03</speed>
  <fix>3d</fix>
</trkpt>
<trkpt lat="33.8106158" lon="-118.3935667">
  <ele>-16.852</ele>
  <time>2026-09-01T01:14:50Z</time>
  <course>156.66</course>
  <speed>0.03</speed>
  <fix>3d</fix>
</trkpt>
<trkpt lat="33.8106159" lon="-118.3935669">
  <ele>-16.34</ele>
  <time>2026-09-01T01:14:50Z</time>
  <course>72.34</course>
  <speed>0.01</speed>
  <fix>3d</fix>
</trkpt>
<trkpt lat="33.8106158" lon="-118.3935667">
  <ele>-16.81</ele>
  <time>2026-09-01T01:14:50Z</time>
  <course>156.65</course>
  <speed>0.03</speed>
  <fix>3d</fix>
</trkpt>
<trkpt lat="33.8106158" lon="-118.3935666">
  <ele>-16.723</ele>
  <time>2026-09-01T01:14:50Z</time>
  <course>156.64</course>
  <speed>0.03</speed>
  <fix>3d</fix>
</trkpt>
<trkpt lat="33.8106159" lon="-118.3935669">
  <ele>-16.34</ele>
  <time>2026-09-01T01:14:50Z</time>
  <course>72.34</course>
  <speed>0.01</speed>
  <fix>3d</fix>
</trkpt>
<trkpt lat="33.8106158" lon="-118.3935666">
  <ele>-16.681</ele>
  <time>2026-09-01T01:14:50Z</time>
  <course>156.64</course>
  <speed>0.03</speed>
  <fix>3d</fix>
</trkpt>
<trkpt lat="33.8106158" lon="-118.3935666">
  <ele>-16.595</ele>
  <time>2026-09-01T01:14:50Z</time>
  <course>156.63</course>
  <speed>0.03</speed>
  <fix>3d</fix>
</trkpt>
<trkpt lat="33.8106159" lon="-118.3935669">
  <ele>-16.09</ele>
  <time>2026-09-01T01:14:50Z</time>
  <course>72.37</course>
  <speed>0.01</speed>
  <fix>3d</fix>
</trkpt>
<trkpt lat="33.8106158" lon="-118.3935666">
  <ele>-16.553</ele>
  <time>2026-09-01T01:14:50Z</time>
  <course>156.63</course>
  <speed>0.03</speed>
  <fix>3d</fix>
</trkpt>
<trkpt lat="33.8106158" lon="-118.3935666">
  <ele>-16.467</ele>
  <time>2026-09-01T01:14:50Z</time>
  <course>156.62</course>
  <speed>0.03</speed>
  <fix>3d</fix>
</trkpt>
<trkpt lat="33.8106159" lon="-118.3935669">
  <ele>-16.09</ele>
  <time>2026-09-01T01:14:50Z</time>
  <course>72.37</course>
  <speed>0.01</speed>
  <fix>3d</fix>
</trkpt>
<trkpt lat="33.8106158" lon="-118.3935666">
  <ele>-16.425</ele>
  <time>2026-09-01T01:14:50Z</time>
  <course>156.61</course>
  <speed>0.0316227766016838</speed>
  <fix>3d</fix>
</trkpt>
<trkpt lat="33.8106158" lon="-118.3935666">
  <ele>-16.339</ele>
  <time>2026-09-01T01:14:50Z</time>
  <course>156.61</course>
  <speed>0.0316227766016838</speed>
  <fix>3d</fix>
</trkpt>
<trkpt lat="33.8106159" lon="-118.3935668">
  <ele>-15.84</ele>
  <time>2026-09-01T01:14:50Z</time>
  <course>72.44</course>
  <speed>0.01</speed>
  <fix>3d</fix>
</trkpt>
<trkpt lat="33.8106158" lon="-118.3935666">
  <ele>-16.301</ele>
  <time>2026-09-01T01:14:50Z</time>
  <course>156.6</course>
  <speed>0.03</speed>
  <fix>3d</fix>
</trkpt>
<trkpt lat="33.8106158" lon="-118.3935666">
  <ele>-16.212</ele>
  <time>2026-09-01T01:14:50Z</time>
  <course>156.59</course>
  <speed>0.0316227766016838</speed>
  <fix>3d</fix>
</trkpt>
<trkpt lat="33.8106159" lon="-118.3935668">
  <ele>-15.84</ele>
  <time>2026-09-01T01:14:51Z</time>
  <course>72.44</course>
  <speed>0.01</speed>
  <fix>3d</fix>
</trkpt>
<trkpt lat="33.8106158" lon="-118.3935666">
  <ele>-16.174</ele>
  <time>2026-09-01T01:14:51Z</time>
  <course>156.59</course>
  <speed>0.0316227766016838</speed>
  <fix>3d</fix>
</trkpt>
<trkpt lat="33.8106158" lon="-118.3935666">
  <ele>-16.085</ele>
  <time>2026-09-01T01:14:51Z</time>
  <course>156.58</course>
  <speed>0.0316227766016838</speed>
  <fix>3d</fix>
</trkpt>
<trkpt lat="33.8106159" lon="-118.3935667">
  <ele>-15.59</ele>
  <time>2026-09-01T01:14:51Z</time>
  <course>72.49</course>
  <speed>0.01</speed>
  <fix>3d</fix>
</trkpt>
<trkpt lat="33.8106158" lon="-118.3935666">
  <ele>-16.047</ele>
  <time>2026-09-01T01:14:51Z</time>
  <course>156.58</course>
  <speed>0.0316227766016838</speed>
  <fix>3d</fix>
</trkpt>
<trkpt lat="33.8106158" lon="-118.3935666">
  <ele>-15.956</ele>
  <time>2026-09-01T01:14:51Z</time>
  <course>156.57</course>
  <speed>0.0316227766016838</speed>
  <fix>3d</fix>
</trkpt>
<trkpt lat="33.8106159" lon="-118.3935667">
  <ele>-15.59</ele>
  <time>2026-09-01T01:14:51Z</time>
  <course>72.49</course>
  <speed>0.01</speed>
  <fix>3d</fix>
</trkpt>
<trkpt lat="33.8106158" lon="-118.3935666">
  <ele>-15.915</ele>
  <time>2026-09-01T01:14:51Z</time>
  <course>156.56</course>
  <speed>0.0316227766016838</speed>
  <fix>3d</fix>
</trkpt>
<trkpt lat="33.8106158" lon="-118.3935666">
  <ele>-15.829</ele>
  <time>2026-09-01T01:14:51Z</time>
  <course>156.56</course>
  <speed>0.0316227766016838</speed>
  <fix>3d</fix>
</trkpt>
<trkpt lat="33.8106159" lon="-118.3935667">
  <ele>-15.33</ele>
  <time>2026-09-01T01:14:51Z</time>
  <course>72.49</course>
  <speed>0.01</speed>
  <fix>3d</fix>
</trkpt>
<trkpt lat="33.8106158" lon="-118.3935666">
  <ele>-15.826</ele>
  <time>2026-09-01T01:14:51Z</time>
  <course>156.56</course>
  <speed>0.0316227766016838</speed>
  <fix>3d</fix>
</trkpt>
<trkpt lat="33.8106158" lon="-118.3935665">
  <ele>-15.701</ele>
  <time>2026-09-01T01:14:51Z</time>
  <course>156.54</course>
  <speed>0.0316227766016838</speed>
  <fix>3d</fix>
</trkpt>
<trkpt lat="33.8106159" lon="-118.3935667">
  <ele>-15.33</ele>
  <time>2026-09-01T01:14:51Z</time>
  <course>72.49</course>
  <speed>0.01</speed>
  <fix>3d</fix>
</trkpt>
<trkpt lat="33.8106158" lon="-118.3935665">
  <ele>-15.663</ele>
  <time>2026-09-01T01:14:51Z</time>
  <course>156.54</course>
  <speed>0.0316227766016838</speed>
  <fix>3d</fix>
</trkpt>
<trkpt lat="33.8106158" lon="-118.3935665">
  <ele>-15.573</ele>
  <time>2026-09-01T01:14:51Z</time>
  <course>156.53</course>
  <speed>0.0316227766016838</speed>
  <fix>3d</fix>
</trkpt>
<trkpt lat="33.8106159" lon="-118.3935667">
  <ele>-15.08</ele>
  <time>2026-09-01T01:14:51Z</time>
  <course>72.44</course>
  <speed>0.01</speed>
  <fix>3d</fix>
</trkpt>
<trkpt lat="33.8106158" lon="-118.3935665">
  <ele>-15.531</ele>
  <time>2026-09-01T01:14:51Z</time>
  <course>156.53</course>
  <speed>0.0316227766016838</speed>
  <fix>3d</fix>
</trkpt>
<trkpt lat="33.8106158" lon="-118.3935665">
  <ele>-15.444</ele>
  <time>2026-09-01T01:14:51Z</time>
  <course>156.52</course>
  <speed>0.0316227766016838</speed>
  <fix>3d</fix>
</trkpt>
<trkpt lat="33.8106159" lon="-118.3935667">
  <ele>-15.08</ele>
  <time>2026-09-01T01:14:51Z</time>
  <course>72.44</course>
  <speed>0.01</speed>
  <fix>3d</fix>
</trkpt>
<trkpt lat="33.8106158" lon="-118.3935665">
  <ele>-15.405</ele>
  <time>2026-09-01T01:14:51Z</time>
  <course>156.52</course>
  <speed>0.0316227766016838</speed>
  <fix>3d</fix>
</trkpt>
<trkpt lat="33.8106158" lon="-118.3935665">
  <ele>-15.314</ele>
  <time>2026-09-01T01:14:51Z</time>
  <course>156.51</course>
  <speed>0.0316227766016838</speed>
  <fix>3d</fix>
</trkpt>
<trkpt lat="33.8106159" lon="-118.3935667">
  <ele>-14.83</ele>
  <time>2026-09-01T01:14:51Z</time>
  <course>72.39</course>
  <speed>0.01</speed>
  <fix>3d</fix>
</trkpt>
<trkpt lat="33.8106158" lon="-118.3935665">
  <ele>-15.276</ele>
  <time>2026-09-01T01:14:51Z</time>
  <course>156.5</course>
  <speed>0.0316227766016838</speed>
  <fix>3d</fix>
</trkpt>
<trkpt lat="33.8106158" lon="-118.3935665">
  <ele>-15.185</ele>
  <time>2026-09-01T01:14:51Z</time>
  <course>156.5</course>
  <speed>0.0316227766016838</speed>
  <fix>3d</fix>
</trkpt>
<trkpt lat="33.8106159" lon="-118.3935667">
  <ele>-14.83</ele>
  <time>2026-09-01T01:14:51Z</time>
  <course>72.39</course>
  <speed>0.01</speed>
  <fix>3d</fix>
</trkpt>
<trkpt lat="33.8106158" lon="-118.3935665">
  <ele>-15.146</ele>
  <time>2026-09-01T01:14:51Z</time>
  <course>156.49</course>
  <speed>0.0316227766016838</speed>
  <fix>3d</fix>
</trkpt>
<trkpt lat="33.8106158" lon="-118.3935665">
  <ele>-15.055</ele>
  <time>2026-09-01T01:14:51Z</time>
  <course>156.48</course>
  <speed>0.0316227766016838</speed>
  <fix>3d</fix>
</trkpt>
<trkpt lat="33.8106159" lon="-118.3935667">
  <ele>-14.58</ele>
  <time>2026-09-01T01:14:51Z</time>
  <course>72.37</course>
  <speed>0.01</speed>
  <fix>3d</fix>
</trkpt>
<trkpt lat="33.8106158" lon="-118.3935665">
  <ele>-15.016</ele>
  <time>2026-09-01T01:14:51Z</time>
  <course>156.48</course>
  <speed>0.0316227766016838</speed>
  <fix>3d</fix>
</trkpt>
<trkpt lat="33.8106158" lon="-118.3935665">
  <ele>-14.926</ele>
  <time>2026-09-01T01:14:51Z</time>
  <course>156.47</course>
  <speed>0.0316227766016838</speed>
  <fix>3d</fix>
</trkpt>
<trkpt lat="33.8106159" lon="-118.3935667">
  <ele>-14.58</ele>
  <time>2026-09-01T01:14:51Z</time>
  <course>72.37</course>
  <speed>0.01</speed>
  <fix>3d</fix>
</trkpt>
<trkpt lat="33.8106158" lon="-118.3935664">
  <ele>-14.885</ele>
  <time>2026-09-01T01:14:51Z</time>
  <course>156.47</course>
  <speed>0.0316227766016838</speed>
  <fix>3d</fix>
</trkpt>
<trkpt lat="33.8106158" lon="-118.3935664">
  <ele>-14.796</ele>
  <time>2026-09-01T01:14:51Z</time>
  <course>156.46</course>
  <speed>0.0316227766016838</speed>
  <fix>3d</fix>
</trkpt>
<trkpt lat="33.8106159" lon="-118.3935667">
  <ele>-14.33</ele>
  <time>2026-09-01T01:14:51Z</time>
  <course>72.41</course>
  <speed>0.01</speed>
  <fix>3d</fix>
</trkpt>
<trkpt lat="33.8106158" lon="-118.3935664">
  <ele>-14.755</ele>
  <time>2026-09-01T01:14:51Z</time>
  <course>156.46</course>
  <speed>0.0316227766016838</speed>
  <fix>3d</fix>
</trkpt>
<trkpt lat="33.8106158" lon="-118.3935664">
  <ele>-14.667</ele>
  <time>2026-09-01T01:14:51Z</time>
  <course>156.45</course>
  <speed>0.0316227766016838</speed>
  <fix>3d</fix>
</trkpt>
<trkpt lat="33.8106159" lon="-118.3935667">
  <ele>-14.33</ele>
  <time>2026-09-01T01:14:51Z</time>
  <course>72.41</course>
  <speed>0.01</speed>
  <fix>3d</fix>
</trkpt>
<trkpt lat="33.8106158" lon="-118.3935664">
  <ele>-14.625</ele>
  <time>2026-09-01T01:14:51Z</time>
  <course>156.45</course>
  <speed>0.0316227766016838</speed>
  <fix>3d</fix>
</trkpt>
<trkpt lat="33.8106158" lon="-118.3935664">
  <ele>-14.537</ele>
  <time>2026-09-01T01:14:51Z</time>
  <course>156.44</course>
  <speed>0.0316227766016838</speed>
  <fix>3d</fix>
</trkpt>
<trkpt lat="33.8106159" lon="-118.3935667">
  <ele>-14.08</ele>
  <time>2026-09-01T01:14:51Z</time>
  <course>72.46</course>
  <speed>0.01</speed>
  <fix>3d</fix>
</trkpt>
<trkpt lat="33.8106158" lon="-118.3935664">
  <ele>-14.498</ele>
  <time>2026-09-01T01:14:51Z</time>
  <course>156.43</course>
  <speed>0.0316227766016838</speed>
  <fix>3d</fix>
</trkpt>
<trkpt lat="33.8106158" lon="-118.3935664">
  <ele>-14.407</ele>
  <time>2026-09-01T01:14:51Z</time>
  <course>156.43</course>
  <speed>0.0316227766016838</speed>
  <fix>3d</fix>
</trkpt>
<trkpt lat="33.8106159" lon="-118.3935667">
  <ele>-14.08</ele>
  <time>2026-09-01T01:14:51Z</time>
  <course>72.46</course>
  <speed>0.01</speed>
  <fix>3d</fix>
</trkpt>
<trkpt lat="33.8106158" lon="-118.3935664">
  <ele>-14.405</ele>
  <time>2026-09-01T01:14:51Z</time>
  <course>156.43</course>
  <speed>0.0316227766016838</speed>
  <fix>3d</fix>
</trkpt>
<trkpt lat="33.8106158" lon="-118.3935664">
  <ele>-14.277</ele>
  <time>2026-09-01T01:14:51Z</time>
  <course>156.41</course>
  <speed>0.0316227766016838</speed>
  <fix>3d</fix>
</trkpt>
<trkpt lat="33.8106159" lon="-118.3935667">
  <ele>-13.83</ele>
  <time>2026-09-01T01:14:51Z</time>
  <course>72.49</course>
  <speed>0.01</speed>
  <fix>3d</fix>
</trkpt>
<trkpt lat="33.8106158" lon="-118.3935664">
  <ele>-14.235</ele>
  <time>2026-09-01T01:14:51Z</time>
  <course>156.41</course>
  <speed>0.0316227766016838</speed>
  <fix>3d</fix>
</trkpt>
<trkpt lat="33.8106158" lon="-118.3935664">
  <ele>-14.147</ele>
  <time>2026-09-01T01:14:51Z</time>
  <course>156.4</course>
  <speed>0.0316227766016838</speed>
  <fix>3d</fix>
</trkpt>
<trkpt lat="33.8106159" lon="-118.3935667">
  <ele>-13.83</ele>
  <time>2026-09-01T01:14:51Z</time>
  <course>72.49</course>
  <speed>0.01</speed>
  <fix>3d</fix>
</trkpt>
<trkpt lat="33.8106158" lon="-118.3935664">
  <ele>-14.104</ele>
  <time>2026-09-01T01:14:51Z</time>
  <course>156.4</course>
  <speed>0.0316227766016838</speed>
  <fix>3d</fix>
</trkpt>
<trkpt lat="33.8106158" lon="-118.3935664">
  <ele>-14.016</ele>
  <time>2026-09-01T01:14:51Z</time>
  <course>156.39</course>
  <speed>0.0316227766016838</speed>
  <fix>3d</fix>
</trkpt>
<trkpt lat="33.8106159" lon="-118.3935667">
  <ele>-13.57</ele>
  <time>2026-09-01T01:14:51Z</time>
  <course>72.45</course>
  <speed>0.01</speed>
  <fix>3d</fix>
</trkpt>
<trkpt lat="33.8106158" lon="-118.3935664">
  <ele>-13.974</ele>
  <time>2026-09-01T01:14:51Z</time>
  <course>156.39</course>
  <speed>0.0316227766016838</speed>
  <fix>3d</fix>
</trkpt>
<trkpt lat="33.8106158" lon="-118.3935664">
  <ele>-13.885</ele>
  <time>2026-09-01T01:14:51Z</time>
  <course>156.38</course>
  <speed>0.0316227766016838</speed>
  <fix>3d</fix>
</trkpt>
<trkpt lat="33.8106159" lon="-118.3935667">
  <ele>-13.57</ele>
  <time>2026-09-01T01:14:51Z</time>
  <course>72.45</course>
  <speed>0.01</speed>
  <fix>3d</fix>
</trkpt>
<trkpt lat="33.8106158" lon="-118.3935664">
  <ele>-13.754</ele>
  <time>2026-09-01T01:14:51Z</time>
  <course>156.37</course>
  <speed>0.0316227766016838</speed>
  <fix>3d</fix>
</trkpt>
<trkpt lat="33.8106159" lon="-118.3935666">
  <ele>-13.32</ele>
  <time>2026-09-01T01:14:51Z</time>
  <course>72.39</course>
  <speed>0.01</speed>
  <fix>3d</fix>
</trkpt>
<trkpt lat="33.8106158" lon="-118.3935664">
  <ele>-13.624</ele>
  <time>2026-09-01T01:14:51Z</time>
  <course>156.36</course>
  <speed>0.0316227766016838</speed>
  <fix>3d</fix>
</trkpt>
<trkpt lat="33.8106159" lon="-118.3935666">
  <ele>-13.32</ele>
  <time>2026-09-01T01:14:51Z</time>
  <course>72.39</course>
  <speed>0.01</speed>
  <fix>3d</fix>
</trkpt>
<trkpt lat="33.8106158" lon="-118.3935664">
  <ele>-13.497</ele>
  <time>2026-09-01T01:14:51Z</time>
  <course>156.34</course>
  <speed>0.0316227766016838</speed>
  <fix>3d</fix>
</trkpt>
<trkpt lat="33.8106159" lon="-118.3935666">
  <ele>-13.07</ele>
  <time>2026-09-01T01:14:51Z</time>
  <course>72.33</course>
  <speed>0.01</speed>
  <fix>3d</fix>
</trkpt>
<trkpt lat="33.8106158" lon="-118.3935664">
  <ele>-13.375</ele>
  <time>2026-09-01T01:14:51Z</time>
  <course>156.33</course>
  <speed>0.0316227766016838</speed>
  <fix>3d</fix>
</trkpt>
<trkpt lat="33.8106159" lon="-118.3935666">
  <ele>-13.07</ele>
  <time>2026-09-01T01:14:51Z</time>
  <course>72.33</course>
  <speed>0.01</speed>
  <fix>3d</fix>
</trkpt>
<trkpt lat="33.8106158" lon="-118.3935664">
  <ele>-13.264</ele>
  <time>2026-09-01T01:14:51Z</time>
  <course>156.32</course>
  <speed>0.0316227766016838</speed>
  <fix>3d</fix>
</trkpt>
<trkpt lat="33.8106159" lon="-118.3935666">
  <ele>-12.83</ele>
  <time>2026-09-01T01:14:51Z</time>
  <course>72.22</course>
  <speed>0.01</speed>
  <fix>3d</fix>
</trkpt>
<trkpt lat="33.8106158" lon="-118.3935663">
  <ele>-13.169</ele>
  <time>2026-09-01T01:14:51Z</time>
  <course>156.31</course>
  <speed>0.0316227766016838</speed>
  <fix>3d</fix>
</trkpt>
<trkpt lat="33.8106159" lon="-118.3935666">
  <ele>-12.83</ele>
  <time>2026-09-01T01:14:51Z</time>
  <course>72.22</course>
  <speed>0.01</speed>
  <fix>3d</fix>
</trkpt>
<trkpt lat="33.8106158" lon="-118.3935663">
  <ele>-13.088</ele>
  <time>2026-09-01T01:14:51Z</time>
  <course>156.3</course>
  <speed>0.03</speed>
  <fix>3d</fix>
</trkpt>
<trkpt lat="33.8106159" lon="-118.3935666">
  <ele>-12.61</ele>
  <time>2026-09-01T01:14:51Z</time>
  <course>71.98</course>
  <speed>0.01</speed>
  <fix>3d</fix>
</trkpt>
<trkpt lat="33.8106158" lon="-118.3935663">
  <ele>-13.024</ele>
  <time>2026-09-01T01:14:51Z</time>
  <course>156.29</course>
  <speed>0.03</speed>
  <fix>3d</fix>
</trkpt>
<trkpt lat="33.8106159" lon="-118.3935666">
  <ele>-12.61</ele>
  <time>2026-09-01T01:14:51Z</time>
  <course>71.98</course>
  <speed>0.01</speed>
  <fix>3d</fix>
</trkpt>
<trkpt lat="33.8106158" lon="-118.3935663">
  <ele>-12.974</ele>
  <time>2026-09-01T01:14:51Z</time>
  <course>156.28</course>
  <speed>0.03</speed>
  <fix>3d</fix>
</trkpt>
<trkpt lat="33.8106159" lon="-118.3935665">
  <ele>-12.44</ele>
  <time>2026-09-01T01:14:51Z</time>
  <course>71.68</course>
  <speed>0.01</speed>
  <fix>3d</fix>
</trkpt>
<trkpt lat="33.8106158" lon="-118.3935663">
  <ele>-12.934</ele>
  <time>2026-09-01T01:14:51Z</time>
  <course>156.26</course>
  <speed>0.03</speed>
  <fix>3d</fix>
</trkpt>
<trkpt lat="33.8106159" lon="-118.3935665">
  <ele>-12.44</ele>
  <time>2026-09-01T01:14:51Z</time>
  <course>71.68</course>
  <speed>0.01</speed>
  <fix>3d</fix>
</trkpt>
<trkpt lat="33.8106158" lon="-118.3935663">
  <ele>-12.908</ele>
  <time>2026-09-01T01:14:51Z</time>
  <course>156.25</course>
  <speed>0.03</speed>
  <fix>3d</fix>
</trkpt>
<trkpt lat="33.810616" lon="-118.3935665">
  <ele>-12.33</ele>
  <time>2026-09-01T01:14:51Z</time>
  <course>71.43</course>
  <speed>0.01</speed>
  <fix>3d</fix>
</trkpt>
<trkpt lat="33.8106158" lon="-118.3935663">
  <ele>-12.891</ele>
  <time>2026-09-01T01:14:51Z</time>
  <course>156.24</course>
  <speed>0.03</speed>
  <fix>3d</fix>
</trkpt>
<trkpt lat="33.810616" lon="-118.3935665">
  <ele>-12.33</ele>
  <time>2026-09-01T01:14:51Z</time>
  <course>71.43</course>
  <speed>0.01</speed>
  <fix>3d</fix>
</trkpt>
<trkpt lat="33.8106158" lon="-118.3935663">
  <ele>-12.884</ele>
  <time>2026-09-01T01:14:51Z</time>
  <course>156.23</course>
  <speed>0.03</speed>
  <fix>3d</fix>
</trkpt>
<trkpt lat="33.8106161" lon="-118.3935665">
  <ele>-12.27</ele>
  <time>2026-09-01T01:14:51Z</time>
  <course>71.2</course>
  <speed>0.01</speed>
  <fix>3d</fix>
</trkpt>
<trkpt lat="33.8106158" lon="-118.3935663">
  <ele>-12.882</ele>
  <time>2026-09-01T01:14:51Z</time>
  <course>156.22</course>
  <speed>0.03</speed>
  <fix>3d</fix>
</trkpt>
<trkpt lat="33.8106161" lon="-118.3935665">
  <ele>-12.27</ele>
  <time>2026-09-01T01:14:51Z</time>
  <course>71.2</course>
  <speed>0.01</speed>
  <fix>3d</fix>
</trkpt>
<trkpt lat="33.8106158" lon="-118.3935662">
  <ele>-12.882</ele>
  <time>2026-09-01T01:14:51Z</time>
  <course>156.21</course>
  <speed>0.03</speed>
  <fix>3d</fix>
</trkpt>
<trkpt lat="33.8106161" lon="-118.3935665">
  <ele>-12.24</ele>
  <time>2026-09-01T01:14:51Z</time>
  <course>71.02</course>
  <speed>0.01</speed>
  <fix>3d</fix>
</trkpt>
<trkpt lat="33.8106158" lon="-118.3935662">
  <ele>-12.882</ele>
  <time>2026-09-01T01:14:51Z</time>
  <course>156.19</course>
  <speed>0.03</speed>
  <fix>3d</fix>
</trkpt>
<trkpt lat="33.8106161" lon="-118.3935665">
  <ele>-12.24</ele>
  <time>2026-09-01T01:14:51Z</time>
  <course>71.02</course>
  <speed>0.01</speed>
  <fix>3d</fix>
</trkpt>
<trkpt lat="33.8106159" lon="-118.3935662">
  <ele>-12.882</ele>
  <time>2026-09-01T01:14:51Z</time>
  <course>156.18</course>
  <speed>0.03</speed>
  <fix>3d</fix>
</trkpt>
<trkpt lat="33.8106161" lon="-118.3935664">
  <ele>-12.22</ele>
  <time>2026-09-01T01:14:51Z</time>
  <course>70.93</course>
  <speed>0.01</speed>
  <fix>3d</fix>
</trkpt>
<trkpt lat="33.8106159" lon="-118.3935662">
  <ele>-12.883</ele>
  <time>2026-09-01T01:14:51Z</time>
  <course>156.17</course>
  <speed>0.03</speed>
  <fix>3d</fix>
</trkpt>
<trkpt lat="33.8106161" lon="-118.3935664">
  <ele>-12.22</ele>
  <time>2026-09-01T01:14:51Z</time>
  <course>70.93</course>
  <speed>0.01</speed>
  <fix>3d</fix>
</trkpt>
<trkpt lat="33.8106159" lon="-118.3935662">
  <ele>-12.884</ele>
  <time>2026-09-01T01:14:51Z</time>
  <course>156.16</course>
  <speed>0.03</speed>
  <fix>3d</fix>
</trkpt>
<trkpt lat="33.8106161" lon="-118.3935664">
  <ele>-12.21</ele>
  <time>2026-09-01T01:14:51Z</time>
  <course>70.93</course>
  <speed>0.01</speed>
  <fix>3d</fix>
</trkpt>
<trkpt lat="33.8106159" lon="-118.3935662">
  <ele>-12.884</ele>
  <time>2026-09-01T01:14:51Z</time>
  <course>156.15</course>
  <speed>0.03</speed>
  <fix>3d</fix>
</trkpt>
<trkpt lat="33.8106161" lon="-118.3935664">
  <ele>-12.21</ele>
  <time>2026-09-01T01:14:51Z</time>
  <course>70.93</course>
  <speed>0.01</speed>
  <fix>3d</fix>
</trkpt>
<trkpt lat="33.8106159" lon="-118.3935662">
  <ele>-12.885</ele>
  <time>2026-09-01T01:14:51Z</time>
  <course>156.14</course>
  <speed>0.03</speed>
  <fix>3d</fix>
</trkpt>
<trkpt lat="33.8106161" lon="-118.3935664">
  <ele>-12.2</ele>
  <time>2026-09-01T01:14:51Z</time>
  <course>70.96</course>
  <speed>0.01</speed>
  <fix>3d</fix>
</trkpt>
<trkpt lat="33.8106159" lon="-118.3935661">
  <ele>-12.885</ele>
  <time>2026-09-01T01:14:51Z</time>
  <course>156.13</course>
  <speed>0.03</speed>
  <fix>3d</fix>
</trkpt>
<trkpt lat="33.8106161" lon="-118.3935664">
  <ele>-12.2</ele>
  <time>2026-09-01T01:14:51Z</time>
  <course>70.96</course>
  <speed>0.01</speed>
  <fix>3d</fix>
</trkpt>
<trkpt lat="33.8106159" lon="-118.3935661">
  <ele>-12.883</ele>
  <time>2026-09-01T01:14:51Z</time>
  <course>156.12</course>
  <speed>0.03</speed>
  <fix>3d</fix>
</trkpt>
<trkpt lat="33.8106161" lon="-118.3935663">
  <ele>-12.2</ele>
  <time>2026-09-01T01:14:51Z</time>
  <course>70.99</course>
  <speed>0.01</speed>
  <fix>3d</fix>
</trkpt>
<trkpt lat="33.8106159" lon="-118.3935661">
  <ele>-12.883</ele>
  <time>2026-09-01T01:14:51Z</time>
  <course>156.11</course>
  <speed>0.03</speed>
  <fix>3d</fix>
</trkpt>
<trkpt lat="33.8106161" lon="-118.3935663">
  <ele>-12.2</ele>
  <time>2026-09-01T01:14:51Z</time>
  <course>70.99</course>
  <speed>0.01</speed>
  <fix>3d</fix>
</trkpt>
<trkpt lat="33.8106159" lon="-118.3935661">
  <ele>-12.883</ele>
  <time>2026-09-01T01:14:51Z</time>
  <course>156.09</course>
  <speed>0.03</speed>
  <fix>3d</fix>
</trkpt>
<trkpt lat="33.8106161" lon="-118.3935663">
  <ele>-12.19</ele>
  <time>2026-09-01T01:14:51Z</time>
  <course>70.97</course>
  <speed>0.01</speed>
  <fix>3d</fix>
</trkpt>
<trkpt lat="33.8106159" lon="-118.3935661">
  <ele>-12.882</ele>
  <time>2026-09-01T01:14:51Z</time>
  <course>156.08</course>
  <speed>0.03</speed>
  <fix>3d</fix>
</trkpt>
<trkpt lat="33.8106161" lon="-118.3935663">
  <ele>-12.19</ele>
  <time>2026-09-01T01:14:51Z</time>
  <course>70.97</course>
  <speed>0.01</speed>
  <fix>3d</fix>
</trkpt>
<trkpt lat="33.810616" lon="-118.3935661">
  <ele>-12.882</ele>
  <time>2026-09-01T01:14:51Z</time>
  <course>156.07</course>
  <speed>0.03</speed>
  <fix>3d</fix>
</trkpt>
<trkpt lat="33.8106161" lon="-118.3935663">
  <ele>-12.18</ele>
  <time>2026-09-01T01:14:51Z</time>
  <course>70.92</course>
  <speed>0.01</speed>
  <fix>3d</fix>
</trkpt>
<trkpt lat="33.810616" lon="-118.3935661">
  <ele>-12.881</ele>
  <time>2026-09-01T01:14:51Z</time>
  <course>156.06</course>
  <speed>0.03</speed>
  <fix>3d</fix>
</trkpt>
<trkpt lat="33.8106161" lon="-118.3935663">
  <ele>-12.18</ele>
  <time>2026-09-01T01:14:51Z</time>
  <course>70.92</course>
  <speed>0.01</speed>
  <fix>3d</fix>
</trkpt>
<trkpt lat="33.810616" lon="-118.393566">
  <ele>-12.881</ele>
  <time>2026-09-01T01:14:51Z</time>
  <course>156.05</course>
  <speed>0.03</speed>
  <fix>3d</fix>
</trkpt>
<trkpt lat="33.8106161" lon="-118.3935662">
  <ele>-12.18</ele>
  <time>2026-09-01T01:14:51Z</time>
  <course>70.87</course>
  <speed>0.01</speed>
  <fix>3d</fix>
</trkpt>
<trkpt lat="33.810616" lon="-118.393566">
  <ele>-12.88</ele>
  <time>2026-09-01T01:14:51Z</time>
  <course>156.04</course>
  <speed>0.03</speed>
  <fix>3d</fix>
</trkpt>
<trkpt lat="33.8106161" lon="-118.3935662">
  <ele>-12.18</ele>
  <time>2026-09-01T01:14:51Z</time>
  <course>70.87</course>
  <speed>0.01</speed>
  <fix>3d</fix>
</trkpt>
<trkpt lat="33.810616" lon="-118.393566">
  <ele>-12.879</ele>
  <time>2026-09-01T01:14:51Z</time>
  <course>156.03</course>
  <speed>0.03</speed>
  <fix>3d</fix>
</trkpt>
<trkpt lat="33.8106161" lon="-118.3935662">
  <ele>-12.18</ele>
  <time>2026-09-01T01:14:51Z</time>
  <course>70.86</course>
  <speed>0.01</speed>
  <fix>3d</fix>
</trkpt>
<trkpt lat="33.810616" lon="-118.393566">
  <ele>-12.879</ele>
  <time>2026-09-01T01:14:51Z</time>
  <course>156.02</course>
  <speed>0.03</speed>
  <fix>3d</fix>
</trkpt>
<trkpt lat="33.8106161" lon="-118.3935662">
  <ele>-12.18</ele>
  <time>2026-09-01T01:14:51Z</time>
  <course>70.86</course>
  <speed>0.01</speed>
  <fix>3d</fix>
</trkpt>
<trkpt lat="33.810616" lon="-118.393566">
  <ele>-12.88</ele>
  <time>2026-09-01T01:14:51Z</time>
  <course>156.01</course>
  <speed>0.03</speed>
  <fix>3d</fix>
</trkpt>
<trkpt lat="33.8106161" lon="-118.3935662">
  <ele>-12.18</ele>
  <time>2026-09-01T01:14:51Z</time>
  <course>70.88</course>
  <speed>0.01</speed>
  <fix>3d</fix>
</trkpt>
<trkpt lat="33.810616" lon="-118.393566">
  <ele>-12.882</ele>
  <time>2026-09-01T01:14:51Z</time>
  <course>156.0</course>
  <speed>0.03</speed>
  <fix>3d</fix>
</trkpt>
<trkpt lat="33.8106161" lon="-118.3935662">
  <ele>-12.18</ele>
  <time>2026-09-01T01:14:51Z</time>
  <course>70.88</course>
  <speed>0.01</speed>
  <fix>3d</fix>
</trkpt>
<trkpt lat="33.810616" lon="-118.3935659">
  <ele>-12.884</ele>
  <time>2026-09-01T01:14:51Z</time>
  <course>155.99</course>
  <speed>0.03</speed>
  <fix>3d</fix>
</trkpt>
<trkpt lat="33.8106161" lon="-118.3935662">
  <ele>-12.18</ele>
  <time>2026-09-01T01:14:51Z</time>
  <course>70.91</course>
  <speed>0.01</speed>
  <fix>3d</fix>
</trkpt>
<trkpt lat="33.810616" lon="-118.3935659">
  <ele>-12.884</ele>
  <time>2026-09-01T01:14:51Z</time>
  <course>155.98</course>
  <speed>0.03</speed>
  <fix>3d</fix>
</trkpt>
<trkpt lat="33.8106161" lon="-118.3935662">
  <ele>-12.18</ele>
  <time>2026-09-01T01:14:51Z</time>
  <course>70.91</course>
  <speed>0.01</speed>
  <fix>3d</fix>
</trkpt>
<trkpt lat="33.810616" lon="-118.3935659">
  <ele>-12.884</ele>
  <time>2026-09-01T01:14:51Z</time>
  <course>155.97</course>
  <speed>0.03</speed>
  <fix>3d</fix>
</trkpt>
<trkpt lat="33.8106162" lon="-118.3935661">
  <ele>-12.18</ele>
  <time>2026-09-01T01:14:51Z</time>
  <course>70.92</course>
  <speed>0.01</speed>
  <fix>3d</fix>
</trkpt>
<trkpt lat="33.810616" lon="-118.3935659">
  <ele>-12.884</ele>
  <time>2026-09-01T01:14:51Z</time>
  <course>155.96</course>
  <speed>0.03</speed>
  <fix>3d</fix>
</trkpt>
<trkpt lat="33.8106162" lon="-118.3935661">
  <ele>-12.18</ele>
  <time>2026-09-01T01:14:51Z</time>
  <course>70.92</course>
  <speed>0.01</speed>
  <fix>3d</fix>
</trkpt>
<trkpt lat="33.810616" lon="-118.3935659">
  <ele>-12.883</ele>
  <time>2026-09-01T01:14:51Z</time>
  <course>155.95</course>
  <speed>0.03</speed>
  <fix>3d</fix>
</trkpt>
<trkpt lat="33.8106162" lon="-118.3935661">
  <ele>-12.18</ele>
  <time>2026-09-01T01:14:51Z</time>
  <course>70.91</course>
  <speed>0.01</speed>
  <fix>3d</fix>
</trkpt>
<trkpt lat="33.810616" lon="-118.3935659">
  <ele>-12.882</ele>
  <time>2026-09-01T01:14:51Z</time>
  <course>155.93</course>
  <speed>0.03</speed>
  <fix>3d</fix>
</trkpt>
<trkpt lat="33.8106162" lon="-118.3935661">
  <ele>-12.18</ele>
  <time>2026-09-01T01:14:51Z</time>
  <course>70.91</course>
  <speed>0.01</speed>
  <fix>3d</fix>
</trkpt>
<trkpt lat="33.810616" lon="-118.3935659">
  <ele>-12.883</ele>
  <time>2026-09-01T01:14:51Z</time>
  <course>155.92</course>
  <speed>0.03</speed>
  <fix>3d</fix>
</trkpt>
<trkpt lat="33.8106162" lon="-118.3935661">
  <ele>-12.18</ele>
  <time>2026-09-01T01:14:51Z</time>
  <course>70.87</course>
  <speed>0.01</speed>
  <fix>3d</fix>
</trkpt>
<trkpt lat="33.810616" lon="-118.3935658">
  <ele>-12.883</ele>
  <time>2026-09-01T01:14:51Z</time>
  <course>155.91</course>
  <speed>0.03</speed>
  <fix>3d</fix>
</trkpt>
<trkpt lat="33.8106162" lon="-118.3935661">
  <ele>-12.18</ele>
  <time>2026-09-01T01:14:51Z</time>
  <course>70.87</course>
  <speed>0.01</speed>
  <fix>3d</fix>
</trkpt>
<trkpt lat="33.8106161" lon="-118.3935658">
  <ele>-12.883</ele>
  <time>2026-09-01T01:14:51Z</time>
  <course>155.9</course>
  <speed>0.03</speed>
  <fix>3d</fix>
</trkpt>
<trkpt lat="33.8106162" lon="-118.393566">
  <ele>-12.18</ele>
  <time>2026-09-01T01:14:51Z</time>
  <course>70.84</course>
  <speed>0.01</speed>
  <fix>3d</fix>
</trkpt>
<trkpt lat="33.8106161" lon="-118.3935658">
  <ele>-12.883</ele>
  <time>2026-09-01T01:14:51Z</time>
  <course>155.89</course>
  <speed>0.03</speed>
  <fix>3d</fix>
</trkpt>
<trkpt lat="33.8106162" lon="-118.393566">
  <ele>-12.18</ele>
  <time>2026-09-01T01:14:51Z</time>
  <course>70.84</course>
  <speed>0.01</speed>
  <fix>3d</fix>
</trkpt>
<trkpt lat="33.8106161" lon="-118.3935658">
  <ele>-12.883</ele>
  <time>2026-09-01T01:14:51Z</time>
  <course>155.88</course>
  <speed>0.03</speed>
  <fix>3d</fix>
</trkpt>
<trkpt lat="33.8106162" lon="-118.393566">
  <ele>-12.17</ele>
  <time>2026-09-01T01:14:51Z</time>
  <course>70.85</course>
  <speed>0.01</speed>
  <fix>3d</fix>
</trkpt>
<trkpt lat="33.8106161" lon="-118.3935658">
  <ele>-12.881</ele>
  <time>2026-09-01T01:14:51Z</time>
  <course>155.87</course>
  <speed>0.03</speed>
  <fix>3d</fix>
</trkpt>
<trkpt lat="33.8106162" lon="-118.393566">
  <ele>-12.17</ele>
  <time>2026-09-01T01:14:51Z</time>
  <course>70.85</course>
  <speed>0.01</speed>
  <fix>3d</fix>
</trkpt>
<trkpt lat="33.8106161" lon="-118.3935658">
  <ele>-12.88</ele>
  <time>2026-09-01T01:14:51Z</time>
  <course>155.86</course>
  <speed>0.03</speed>
  <fix>3d</fix>
</trkpt>
<trkpt lat="33.8106162" lon="-118.393566">
  <ele>-12.17</ele>
  <time>2026-09-01T01:14:51Z</time>
  <course>70.89</course>
  <speed>0.01</speed>
  <fix>3d</fix>
</trkpt>
<trkpt lat="33.8106161" lon="-118.3935658">
  <ele>-12.88</ele>
  <time>2026-09-01T01:14:51Z</time>
  <course>155.85</course>
  <speed>0.03</speed>
  <fix>3d</fix>
</trkpt>
<trkpt lat="33.8106162" lon="-118.393566">
  <ele>-12.17</ele>
  <time>2026-09-01T01:14:51Z</time>
  <course>70.89</course>
  <speed>0.01</speed>
  <fix>3d</fix>
</trkpt>
<trkpt lat="33.8106161" lon="-118.3935657">
  <ele>-12.881</ele>
  <time>2026-09-01T01:14:51Z</time>
  <course>155.84</course>
  <speed>0.03</speed>
  <fix>3d</fix>
</trkpt>
<trkpt lat="33.8106162" lon="-118.393566">
  <ele>-12.17</ele>
  <time>2026-09-01T01:14:51Z</time>
  <course>70.93</course>
  <speed>0.01</speed>
  <fix>3d</fix>
</trkpt>
<trkpt lat="33.8106161" lon="-118.3935657">
  <ele>-12.881</ele>
  <time>2026-09-01T01:14:51Z</time>
  <course>155.83</course>
  <speed>0.03</speed>
  <fix>3d</fix>
</trkpt>
<trkpt lat="33.8106162" lon="-118.393566">
  <ele>-12.17</ele>
  <time>2026-09-01T01:14:51Z</time>
  <course>70.93</course>
  <speed>0.01</speed>
  <fix>3d</fix>
</trkpt>
<trkpt lat="33.8106161" lon="-118.3935657">
  <ele>-12.881</ele>
  <time>2026-09-01T01:14:51Z</time>
  <course>155.82</course>
  <speed>0.03</speed>
  <fix>3d</fix>
</trkpt>
<trkpt lat="33.8106162" lon="-118.3935659">
  <ele>-12.17</ele>
  <time>2026-09-01T01:14:51Z</time>
  <course>70.93</course>
  <speed>0.01</speed>
  <fix>3d</fix>
</trkpt>
<trkpt lat="33.8106161" lon="-118.3935657">
  <ele>-12.882</ele>
  <time>2026-09-01T01:14:51Z</time>
  <course>155.81</course>
  <speed>0.03</speed>
  <fix>3d</fix>
</trkpt>
<trkpt lat="33.8106162" lon="-118.3935659">
  <ele>-12.17</ele>
  <time>2026-09-01T01:14:51Z</time>
  <course>70.93</course>
  <speed>0.01</speed>
  <fix>3d</fix>
</trkpt>
<trkpt lat="33.8106161" lon="-118.3935657">
  <ele>-12.883</ele>
  <time>2026-09-01T01:14:51Z</time>
  <course>155.8</course>
  <speed>0.03</speed>
  <fix>3d</fix>
</trkpt>
<trkpt lat="33.8106162" lon="-118.3935659">
  <ele>-12.18</ele>
  <time>2026-09-01T01:14:51Z</time>
  <course>70.9</course>
  <speed>0.01</speed>
  <fix>3d</fix>
</trkpt>
<trkpt lat="33.8106161" lon="-118.3935657">
  <ele>-12.885</ele>
  <time>2026-09-01T01:14:51Z</time>
  <course>155.79</course>
  <speed>0.03</speed>
  <fix>3d</fix>
</trkpt>
<trkpt lat="33.8106162" lon="-118.3935659">
  <ele>-12.18</ele>
  <time>2026-09-01T01:14:51Z</time>
  <course>70.9</course>
  <speed>0.01</speed>
  <fix>3d</fix>
</trkpt>
<trkpt lat="33.8106161" lon="-118.3935657">
  <ele>-12.885</ele>
  <time>2026-09-01T01:14:51Z</time>
  <course>155.78</course>
  <speed>0.03</speed>
  <fix>3d</fix>
</trkpt>
<trkpt lat="33.8106162" lon="-118.3935659">
  <ele>-12.18</ele>
  <time>2026-09-01T01:14:51Z</time>
  <course>70.86</course>
  <speed>0.01</speed>
  <fix>3d</fix>
</trkpt>
<trkpt lat="33.8106161" lon="-118.3935656">
  <ele>-12.885</ele>
  <time>2026-09-01T01:14:51Z</time>
  <course>155.77</course>
  <speed>0.03</speed>
  <fix>3d</fix>
</trkpt>
<trkpt lat="33.8106162" lon="-118.3935659">
  <ele>-12.18</ele>
  <time>2026-09-01T01:14:51Z</time>
  <course>70.86</course>
  <speed>0.01</speed>
  <fix>3d</fix>
</trkpt>
<trkpt lat="33.8106161" lon="-118.3935656">
  <ele>-12.885</ele>
  <time>2026-09-01T01:14:51Z</time>
  <course>155.76</course>
  <speed>0.03</speed>
  <fix>3d</fix>
</trkpt>
<trkpt lat="33.8106162" lon="-118.3935658">
  <ele>-12.18</ele>
  <time>2026-09-01T01:14:51Z</time>
  <course>70.86</course>
  <speed>0.01</speed>
  <fix>3d</fix>
</trkpt>
<trkpt lat="33.8106161" lon="-118.3935656">
  <ele>-12.884</ele>
  <time>2026-09-01T01:14:51Z</time>
  <course>155.75</course>
  <speed>0.03</speed>
  <fix>3d</fix>
</trkpt>
<trkpt lat="33.8106162" lon="-118.3935658">
  <ele>-12.18</ele>
  <time>2026-09-01T01:14:51Z</time>
  <course>70.86</course>
  <speed>0.01</speed>
  <fix>3d</fix>
</trkpt>
<trkpt lat="33.8106161" lon="-118.3935656">
  <ele>-12.883</ele>
  <time>2026-09-01T01:14:51Z</time>
  <course>155.74</course>
  <speed>0.03</speed>
  <fix>3d</fix>
</trkpt>
<trkpt lat="33.8106162" lon="-118.3935658">
  <ele>-12.18</ele>
  <time>2026-09-01T01:14:51Z</time>
  <course>70.88</course>
  <speed>0.01</speed>
  <fix>3d</fix>
</trkpt>
<trkpt lat="33.8106161" lon="-118.3935656">
  <ele>-12.882</ele>
  <time>2026-09-01T01:14:51Z</time>
  <course>155.73</course>
  <speed>0.03</speed>
  <fix>3d</fix>
</trkpt>
<trkpt lat="33.8106162" lon="-118.3935658">
  <ele>-12.18</ele>
  <time>2026-09-01T01:14:51Z</time>
  <course>70.88</course>
  <speed>0.01</speed>
  <fix>3d</fix>
</trkpt>
<trkpt lat="33.8106161" lon="-118.3935656">
  <ele>-12.882</ele>
  <time>2026-09-01T01:14:51Z</time>
  <course>155.72</course>
  <speed>0.03</speed>
  <fix>3d</fix>
</trkpt>
<trkpt lat="33.8106163" lon="-118.3935658">
  <ele>-12.18</ele>
  <time>2026-09-01T01:14:51Z</time>
  <course>70.92</course>
  <speed>0.01</speed>
  <fix>3d</fix>
</trkpt>
<trkpt lat="33.8106161" lon="-118.3935655">
  <ele>-12.88</ele>
  <time>2026-09-01T01:14:51Z</time>
  <course>155.71</course>
  <speed>0.03</speed>
  <fix>3d</fix>
</trkpt>
<trkpt lat="33.8106163" lon="-118.3935658">
  <ele>-12.18</ele>
  <time>2026-09-01T01:14:51Z</time>
  <course>70.92</course>
  <speed>0.01</speed>
  <fix>3d</fix>
</trkpt>
<trkpt lat="33.8106161" lon="-118.3935655">
  <ele>-12.88</ele>
  <time>2026-09-01T01:14:51Z</time>
  <course>155.7</course>
  <speed>0.03</speed>
  <fix>3d</fix>
</trkpt>
<trkpt lat="33.8106163" lon="-118.3935657">
  <ele>-12.18</ele>
  <time>2026-09-01T01:14:51Z</time>
  <course>70.94</course>
  <speed>0.01</speed>
  <fix>3d</fix>
</trkpt>
<trkpt lat="33.8106161" lon="-118.3935655">
  <ele>-12.881</ele>
  <time>2026-09-01T01:14:51Z</time>
  <course>155.69</course>
  <speed>0.03</speed>
  <fix>3d</fix>
</trkpt>
<trkpt lat="33.8106163" lon="-118.3935657">
  <ele>-12.18</ele>
  <time>2026-09-01T01:14:51Z</time>
  <course>70.94</course>
  <speed>0.01</speed>
  <fix>3d</fix>
</trkpt>
<trkpt lat="33.8106161" lon="-118.3935655">
  <ele>-12.883</ele>
  <time>2026-09-01T01:14:51Z</time>
  <course>155.68</course>
  <speed>0.03</speed>
  <fix>3d</fix>
</trkpt>
<trkpt lat="33.8106163" lon="-118.3935657">
  <ele>-12.18</ele>
  <time>2026-09-01T01:14:51Z</time>
  <course>70.93</course>
  <speed>0.01</speed>
  <fix>3d</fix>
</trkpt>
<trkpt lat="33.8106161" lon="-118.3935655">
  <ele>-12.88</ele>
  <time>2026-09-01T01:14:51Z</time>
  <course>155.68</course>
  <speed>0.03</speed>
  <fix>3d</fix>
</trkpt>
<trkpt lat="33.8106163" lon="-118.3935657">
  <ele>-12.18</ele>
  <time>2026-09-01T01:14:51Z</time>
  <course>70.93</course>
  <speed>0.01</speed>
  <fix>3d</fix>
</trkpt>
<trkpt lat="33.8106162" lon="-118.3935655">
  <ele>-12.865</ele>
  <time>2026-09-01T01:14:51Z</time>
  <course>155.67</course>
  <speed>0.03</speed>
  <fix>3d</fix>
</trkpt>
<trkpt lat="33.8106163" lon="-118.3935657">
  <ele>-12.18</ele>
  <time>2026-09-01T01:14:51Z</time>
  <course>70.94</course>
  <speed>0.01</speed>
  <fix>3d</fix>
</trkpt>
<trkpt lat="33.8106162" lon="-118.3935655">
  <ele>-12.826</ele>
  <time>2026-09-01T01:14:51Z</time>
  <course>155.66</course>
  <speed>0.03</speed>
  <fix>3d</fix>
</trkpt>
<trkpt lat="33.8106163" lon="-118.3935657">
  <ele>-12.18</ele>
  <time>2026-09-01T01:14:51Z</time>
  <course>70.94</course>
  <speed>0.01</speed>
  <fix>3d</fix>
</trkpt>
<trkpt lat="33.8106162" lon="-118.3935655">
  <ele>-12.825</ele>
  <time>2026-09-01T01:14:51Z</time>
  <course>155.66</course>
  <speed>0.03</speed>
  <fix>3d</fix>
</trkpt>
<trkpt lat="33.8106162" lon="-118.3935654">
  <ele>-12.766</ele>
  <time>2026-09-01T01:14:51Z</time>
  <course>155.65</course>
  <speed>0.03</speed>
  <fix>3d</fix>
</trkpt>
<trkpt lat="33.8106163" lon="-118.3935657">
  <ele>-12.15</ele>
  <time>2026-09-01T01:14:51Z</time>
  <course>71.13</course>
  <speed>0.01</speed>
  <fix>3d</fix>
</trkpt>
<trkpt lat="33.8106162" lon="-118.3935654">
  <ele>-12.764</ele>
  <time>2026-09-01T01:14:51Z</time>
  <course>155.65</course>
  <speed>0.03</speed>
  <fix>3d</fix>
</trkpt>
<trkpt lat="33.8106162" lon="-118.3935654">
  <ele>-12.685</ele>
  <time>2026-09-01T01:14:51Z</time>
  <course>155.64</course>
  <speed>0.03</speed>
  <fix>3d</fix>
</trkpt>
<trkpt lat="33.8106163" lon="-118.3935657">
  <ele>-12.15</ele>
  <time>2026-09-01T01:14:51Z</time>
  <course>71.13</course>
  <speed>0.01</speed>
  <fix>3d</fix>
</trkpt>
<trkpt lat="33.8106162" lon="-118.3935654">
  <ele>-12.655</ele>
  <time>2026-09-01T01:14:51Z</time>
  <course>155.63</course>
  <speed>0.03</speed>
  <fix>3d</fix>
</trkpt>
<trkpt lat="33.8106162" lon="-118.3935654">
  <ele>-12.584</ele>
  <time>2026-09-01T01:14:51Z</time>
  <course>155.63</course>
  <speed>0.03</speed>
  <fix>3d</fix>
</trkpt>
<trkpt lat="33.8106163" lon="-118.3935656">
  <ele>-12.04</ele>
  <time>2026-09-01T01:14:51Z</time>
  <course>71.41</course>
  <speed>0.01</speed>
  <fix>3d</fix>
</trkpt>
<trkpt lat="33.8106162" lon="-118.3935654">
  <ele>-12.55</ele>
  <time>2026-09-01T01:14:51Z</time>
  <course>155.62</course>
  <speed>0.03</speed>
  <fix>3d</fix>
</trkpt>
<trkpt lat="33.8106162" lon="-118.3935654">
  <ele>-12.463</ele>
  <time>2026-09-01T01:14:51Z</time>
  <course>155.62</course>
  <speed>0.03</speed>
  <fix>3d</fix>
</trkpt>
<trkpt lat="33.8106163" lon="-118.3935656">
  <ele>-12.04</ele>
  <time>2026-09-01T01:14:51Z</time>
  <course>71.41</course>
  <speed>0.01</speed>
  <fix>3d</fix>
</trkpt>
<trkpt lat="33.8106162" lon="-118.3935654">
  <ele>-12.425</ele>
  <time>2026-09-01T01:14:51Z</time>
  <course>155.62</course>
  <speed>0.03</speed>
  <fix>3d</fix>
</trkpt>
<trkpt lat="33.8106162" lon="-118.3935654">
  <ele>-12.334</ele>
  <time>2026-09-01T01:14:51Z</time>
  <course>155.61</course>
  <speed>0.03</speed>
  <fix>3d</fix>
</trkpt>
<trkpt lat="33.8106163" lon="-118.3935656">
  <ele>-11.86</ele>
  <time>2026-09-01T01:14:51Z</time>
  <course>71.63</course>
  <speed>0.01</speed>
  <fix>3d</fix>
</trkpt>
<trkpt lat="33.8106162" lon="-118.3935654">
  <ele>-12.291</ele>
  <time>2026-09-01T01:14:51Z</time>
  <course>155.61</course>
  <speed>0.03</speed>
  <fix>3d</fix>
</trkpt>
<trkpt lat="33.8106162" lon="-118.3935654">
  <ele>-12.201</ele>
  <time>2026-09-01T01:14:51Z</time>
  <course>155.6</course>
  <speed>0.03</speed>
  <fix>3d</fix>
</trkpt>
<trkpt lat="33.8106163" lon="-118.3935656">
  <ele>-11.86</ele>
  <time>2026-09-01T01:14:51Z</time>
  <course>71.63</course>
  <speed>0.01</speed>
  <fix>3d</fix>
</trkpt>
<trkpt lat="33.8106162" lon="-118.3935654">
  <ele>-12.158</ele>
  <time>2026-09-01T01:14:51Z</time>
  <course>155.6</course>
  <speed>0.03</speed>
  <fix>3d</fix>
</trkpt>
<trkpt lat="33.8106162" lon="-118.3935654">
  <ele>-12.067</ele>
  <time>2026-09-01T01:14:51Z</time>
  <course>155.59</course>
  <speed>0.03</speed>
  <fix>3d</fix>
</trkpt>
<trkpt lat="33.8106163" lon="-118.3935656">
  <ele>-11.62</ele>
  <time>2026-09-01T01:14:51Z</time>
  <course>71.76</course>
  <speed>0.01</speed>
  <fix>3d</fix>
</trkpt>
<trkpt lat="33.8106162" lon="-118.3935654">
  <ele>-12.027</ele>
  <time>2026-09-01T01:14:51Z</time>
  <course>155.59</course>
  <speed>0.03</speed>
  <fix>3d</fix>
</trkpt>
<trkpt lat="33.8106162" lon="-118.3935653">
  <ele>-11.933</ele>
  <time>2026-09-01T01:14:51Z</time>
  <course>155.58</course>
  <speed>0.03</speed>
  <fix>3d</fix>
</trkpt>
<trkpt lat="33.8106163" lon="-118.3935656">
  <ele>-11.62</ele>
  <time>2026-09-01T01:14:51Z</time>
  <course>71.76</course>
  <speed>0.01</speed>
  <fix>3d</fix>
</trkpt>
<trkpt lat="33.8106162" lon="-118.3935653">
  <ele>-11.891</ele>
  <time>2026-09-01T01:14:51Z</time>
  <course>155.58</course>
  <speed>0.03</speed>
  <fix>3d</fix>
</trkpt>
<trkpt lat="33.8106162" lon="-118.3935653">
  <ele>-11.8</ele>
  <time>2026-09-01T01:14:51Z</time>
  <course>155.57</course>
  <speed>0.03</speed>
  <fix>3d</fix>
</trkpt>
<trkpt lat="33.8106163" lon="-118.3935656">
  <ele>-11.37</ele>
  <time>2026-09-01T01:14:51Z</time>
  <course>71.81</course>
  <speed>0.01</speed>
  <fix>3d</fix>
</trkpt>
<trkpt lat="33.8106162" lon="-118.3935653">
  <ele>-11.798</ele>
  <time>2026-09-01T01:14:51Z</time>
  <course>155.57</course>
  <speed>0.03</speed>
  <fix>3d</fix>
</trkpt>
<trkpt lat="33.8106162" lon="-118.3935653">
  <ele>-11.667</ele>
  <time>2026-09-01T01:14:51Z</time>
  <course>155.56</course>
  <speed>0.03</speed>
  <fix>3d</fix>
</trkpt>
<trkpt lat="33.8106163" lon="-118.3935656">
  <ele>-11.37</ele>
  <time>2026-09-01T01:14:51Z</time>
  <course>71.81</course>
  <speed>0.01</speed>
  <fix>3d</fix>
</trkpt>
<trkpt lat="33.8106162" lon="-118.3935653">
  <ele>-11.625</ele>
  <time>2026-09-01T01:14:51Z</time>
  <course>155.56</course>
  <speed>0.03</speed>
  <fix>3d</fix>
</trkpt>
<trkpt lat="33.8106162" lon="-118.3935653">
  <ele>-11.534</ele>
  <time>2026-09-01T01:14:51Z</time>
  <course>155.55</course>
  <speed>0.03</speed>
  <fix>3d</fix>
</trkpt>
<trkpt lat="33.8106163" lon="-118.3935655">
  <ele>-11.12</ele>
  <time>2026-09-01T01:14:51Z</time>
  <course>71.84</course>
  <speed>0.01</speed>
  <fix>3d</fix>
</trkpt>
<trkpt lat="33.8106162" lon="-118.3935653">
  <ele>-11.494</ele>
  <time>2026-09-01T01:14:51Z</time>
  <course>155.55</course>
  <speed>0.03</speed>
  <fix>3d</fix>
</trkpt>
<trkpt lat="33.8106162" lon="-118.3935653">
  <ele>-11.401</ele>
  <time>2026-09-01T01:14:51Z</time>
  <course>155.54</course>
  <speed>0.03</speed>
  <fix>3d</fix>
</trkpt>
<trkpt lat="33.8106163" lon="-118.3935655">
  <ele>-11.12</ele>
  <time>2026-09-01T01:14:51Z</time>
  <course>71.84</course>
  <speed>0.01</speed>
  <fix>3d</fix>
</trkpt>
<trkpt lat="33.8106162" lon="-118.3935653">
  <ele>-11.398</ele>
  <time>2026-09-01T01:14:51Z</time>
  <course>155.54</course>
  <speed>0.03</speed>
  <fix>3d</fix>
</trkpt>
<trkpt lat="33.8106162" lon="-118.3935653">
  <ele>-11.269</ele>
  <time>2026-09-01T01:14:51Z</time>
  <course>155.53</course>
  <speed>0.03</speed>
  <fix>3d</fix>
</trkpt>
<trkpt lat="33.8106163" lon="-118.3935655">
  <ele>-10.86</ele>
  <time>2026-09-01T01:14:51Z</time>
  <course>71.85</course>
  <speed>0.01</speed>
  <fix>3d</fix>
</trkpt>
<trkpt lat="33.8106162" lon="-118.3935653">
  <ele>-11.23</ele>
  <time>2026-09-01T01:14:51Z</time>
  <course>155.53</course>
  <speed>0.03</speed>
  <fix>3d</fix>
</trkpt>
<trkpt lat="33.8106162" lon="-118.3935653">
  <ele>-11.137</ele>
  <time>2026-09-01T01:14:51Z</time>
  <course>155.53</course>
  <speed>0.03</speed>
  <fix>3d</fix>
</trkpt>
<trkpt lat="33.8106163" lon="-118.3935655">
  <ele>-10.86</ele>
  <time>2026-09-01T01:14:51Z</time>
  <course>71.85</course>
  <speed>0.01</speed>
  <fix>3d</fix>
</trkpt>
<trkpt lat="33.8106162" lon="-118.3935653">
  <ele>-11.095</ele>
  <time>2026-09-01T01:14:51Z</time>
  <course>155.52</course>
  <speed>0.03</speed>
  <fix>3d</fix>
</trkpt>
<trkpt lat="33.8106162" lon="-118.3935653">
  <ele>-11.005</ele>
  <time>2026-09-01T01:14:51Z</time>
  <course>155.52</course>
  <speed>0.03</speed>
  <fix>3d</fix>
</trkpt>
<trkpt lat="33.8106163" lon="-118.3935655">
  <ele>-10.61</ele>
  <time>2026-09-01T01:14:51Z</time>
  <course>71.88</course>
  <speed>0.01</speed>
  <fix>3d</fix>
</trkpt>
<trkpt lat="33.8106162" lon="-118.3935653">
  <ele>-10.963</ele>
  <time>2026-09-01T01:14:51Z</time>
  <course>155.51</course>
  <speed>0.03</speed>
  <fix>3d</fix>
</trkpt>
<trkpt lat="33.8106162" lon="-118.3935653">
  <ele>-10.873</ele>
  <time>2026-09-01T01:14:51Z</time>
  <course>155.51</course>
  <speed>0.03</speed>
  <fix>3d</fix>
</trkpt>
<trkpt lat="33.8106163" lon="-118.3935655">
  <ele>-10.61</ele>
  <time>2026-09-01T01:14:51Z</time>
  <course>71.88</course>
  <speed>0.01</speed>
  <fix>3d</fix>
</trkpt>
<trkpt lat="33.8106162" lon="-118.3935652">
  <ele>-10.83</ele>
  <time>2026-09-01T01:14:51Z</time>
  <course>155.5</course>
  <speed>0.03</speed>
  <fix>3d</fix>
</trkpt>
<trkpt lat="33.8106162" lon="-118.3935652">
  <ele>-10.741</ele>
  <time>2026-09-01T01:14:51Z</time>
  <course>155.5</course>
  <speed>0.03</speed>
  <fix>3d</fix>
</trkpt>
<trkpt lat="33.8106163" lon="-118.3935655">
  <ele>-10.36</ele>
  <time>2026-09-01T01:14:51Z</time>
  <course>71.95</course>
  <speed>0.01</speed>
  <fix>3d</fix>
</trkpt>
<trkpt lat="33.8106162" lon="-118.3935652">
  <ele>-10.698</ele>
  <time>2026-09-01T01:14:51Z</time>
  <course>155.49</course>
  <speed>0.03</speed>
  <fix>3d</fix>
</trkpt>
<trkpt lat="33.8106162" lon="-118.3935652">
  <ele>-10.61</ele>
  <time>2026-09-01T01:14:51Z</time>
  <course>155.49</course>
  <speed>0.03</speed>
  <fix>3d</fix>
</trkpt>
<trkpt lat="33.8106163" lon="-118.3935655">
  <ele>-10.36</ele>
  <time>2026-09-01T01:14:51Z</time>
  <course>71.95</course>
  <speed>0.01</speed>
  <fix>3d</fix>
</trkpt>
<trkpt lat="33.8106162" lon="-118.3935652">
  <ele>-10.571</ele>
  <time>2026-09-01T01:14:51Z</time>
  <course>155.49</course>
  <speed>0.03</speed>
  <fix>3d</fix>
</trkpt>
<trkpt lat="33.8106162" lon="-118.3935652">
  <ele>-10.48</ele>
  <time>2026-09-01T01:14:51Z</time>
  <course>155.48</course>
  <speed>0.03</speed>
  <fix>3d</fix>
</trkpt>
<trkpt lat="33.8106164" lon="-118.3935654">
  <ele>-10.11</ele>
  <time>2026-09-01T01:14:51Z</time>
  <course>72.05</course>
  <speed>0.01</speed>
  <fix>3d</fix>
</trkpt>
<trkpt lat="33.8106162" lon="-118.3935652">
  <ele>-10.44</ele>
  <time>2026-09-01T01:14:51Z</time>
  <course>155.48</course>
  <speed>0.03</speed>
  <fix>3d</fix>
</trkpt>
<trkpt lat="33.8106162" lon="-118.3935652">
  <ele>-10.348</ele>
  <time>2026-09-01T01:14:51Z</time>
  <course>155.47</course>
  <speed>0.03</speed>
  <fix>3d</fix>
</trkpt>
<trkpt lat="33.8106164" lon="-118.3935654">
  <ele>-10.11</ele>
  <time>2026-09-01T01:14:51Z</time>
  <course>72.05</course>
  <speed>0.01</speed>
  <fix>3d</fix>
</trkpt>
<trkpt lat="33.8106162" lon="-118.3935652">
  <ele>-10.345</ele>
  <time>2026-09-01T01:14:51Z</time>
  <course>155.47</course>
  <speed>0.03</speed>
  <fix>3d</fix>
</trkpt>
<trkpt lat="33.8106162" lon="-118.3935652">
  <ele>-10.218</ele>
  <time>2026-09-01T01:14:51Z</time>
  <course>155.46</course>
  <speed>0.03</speed>
  <fix>3d</fix>
</trkpt>
<trkpt lat="33.8106164" lon="-118.3935654">
  <ele>-9.86</ele>
  <time>2026-09-01T01:14:51Z</time>
  <course>72.13</course>
  <speed>0.01</speed>
  <fix>3d</fix>
</trkpt>
<trkpt lat="33.8106162" lon="-118.3935652">
  <ele>-10.215</ele>
  <time>2026-09-01T01:14:51Z</time>
  <course>155.46</course>
  <speed>0.03</speed>
  <fix>3d</fix>
</trkpt>
<trkpt lat="33.8106162" lon="-118.3935652">
  <ele>-10.088</ele>
  <time>2026-09-01T01:14:51Z</time>
  <course>155.45</course>
  <speed>0.03</speed>
  <fix>3d</fix>
</trkpt>
<trkpt lat="33.8106164" lon="-118.3935654">
  <ele>-9.86</ele>
  <time>2026-09-01T01:14:51Z</time>
  <course>72.13</course>
  <speed>0.01</speed>
  <fix>3d</fix>
</trkpt>
<trkpt lat="33.8106162" lon="-118.3935652">
  <ele>-10.085</ele>
  <time>2026-09-01T01:14:51Z</time>
  <course>155.45</course>
  <speed>0.03</speed>
  <fix>3d</fix>
</trkpt>
<trkpt lat="33.8106162" lon="-118.3935652">
  <ele>-9.957</ele>
  <time>2026-09-01T01:14:51Z</time>
  <course>155.44</course>
  <speed>0.03</speed>
  <fix>3d</fix>
</trkpt>
<trkpt lat="33.8106164" lon="-118.3935654">
  <ele>-9.61</ele>
  <time>2026-09-01T01:14:51Z</time>
  <course>72.16</course>
  <speed>0.01</speed>
  <fix>3d</fix>
</trkpt>
<trkpt lat="33.8106162" lon="-118.3935652">
  <ele>-9.918</ele>
  <time>2026-09-01T01:14:51Z</time>
  <course>155.44</course>
  <speed>0.03</speed>
  <fix>3d</fix>
</trkpt>
<trkpt lat="33.8106162" lon="-118.3935652">
  <ele>-9.827</ele>
  <time>2026-09-01T01:14:51Z</time>
  <course>155.43</course>
  <speed>0.03</speed>
  <fix>3d</fix>
</trkpt>
<trkpt lat="33.8106164" lon="-118.3935654">
  <ele>-9.61</ele>
  <time>2026-09-01T01:14:51Z</time>
  <course>72.16</course>
  <speed>0.01</speed>
  <fix>3d</fix>
</trkpt>
<trkpt lat="33.8106162" lon="-118.3935652">
  <ele>-9.785</ele>
  <time>2026-09-01T01:14:51Z</time>
  <course>155.43</course>
  <speed>0.03</speed>
  <fix>3d</fix>
</trkpt>
<trkpt lat="33.8106162" lon="-118.3935652">
  <ele>-9.697</ele>
  <time>2026-09-01T01:14:51Z</time>
  <course>155.42</course>
  <speed>0.03</speed>
  <fix>3d</fix>
</trkpt>
<trkpt lat="33.8106164" lon="-118.3935654">
  <ele>-9.35</ele>
  <time>2026-09-01T01:14:51Z</time>
  <course>72.15</course>
  <speed>0.01</speed>
  <fix>3d</fix>
</trkpt>
<trkpt lat="33.8106162" lon="-118.3935652">
  <ele>-9.655</ele>
  <time>2026-09-01T01:14:51Z</time>
  <course>155.42</course>
  <speed>0.03</speed>
  <fix>3d</fix>
</trkpt>
<trkpt lat="33.8106162" lon="-118.3935651">
  <ele>-9.568</ele>
  <time>2026-09-01T01:14:51Z</time>
  <course>155.42</course>
  <speed>0.03</speed>
  <fix>3d</fix>
</trkpt>
<trkpt lat="33.8106164" lon="-118.3935654">
  <ele>-9.35</ele>
  <time>2026-09-01T01:14:51Z</time>
  <course>72.15</course>
  <speed>0.01</speed>
  <fix>3d</fix>
</trkpt>
<trkpt lat="33.8106162" lon="-118.3935651">
  <ele>-9.526</ele>
  <time>2026-09-01T01:14:51Z</time>
  <course>155.41</course>
  <speed>0.03</speed>
  <fix>3d</fix>
</trkpt>
<trkpt lat="33.8106162" lon="-118.3935651">
  <ele>-9.438</ele>
  <time>2026-09-01T01:14:51Z</time>
  <course>155.41</course>
  <speed>0.03</speed>
  <fix>3d</fix>
</trkpt>
<trkpt lat="33.8106164" lon="-118.3935654">
  <ele>-9.1</ele>
  <time>2026-09-01T01:14:51Z</time>
  <course>72.12</course>
  <speed>0.01</speed>
  <fix>3d</fix>
</trkpt>
<trkpt lat="33.8106162" lon="-118.3935651">
  <ele>-9.399</ele>
  <time>2026-09-01T01:14:51Z</time>
  <course>155.4</course>
  <speed>0.03</speed>
  <fix>3d</fix>
</trkpt>
<trkpt lat="33.8106163" lon="-118.3935651">
  <ele>-9.308</ele>
  <time>2026-09-01T01:14:51Z</time>
  <course>155.4</course>
  <speed>0.03</speed>
  <fix>3d</fix>
</trkpt>
<trkpt lat="33.8106164" lon="-118.3935654">
  <ele>-9.1</ele>
  <time>2026-09-01T01:14:51Z</time>
  <course>72.12</course>
  <speed>0.01</speed>
  <fix>3d</fix>
</trkpt>
<trkpt lat="33.8106163" lon="-118.3935651">
  <ele>-9.267</ele>
  <time>2026-09-01T01:14:51Z</time>
  <course>155.39</course>
  <speed>0.03</speed>
  <fix>3d</fix>
</trkpt>
<trkpt lat="33.8106163" lon="-118.3935651">
  <ele>-9.179</ele>
  <time>2026-09-01T01:14:51Z</time>
  <course>155.39</course>
  <speed>0.03</speed>
  <fix>3d</fix>
</trkpt>
<trkpt lat="33.8106164" lon="-118.3935653">
  <ele>-8.85</ele>
  <time>2026-09-01T01:14:51Z</time>
  <course>72.12</course>
  <speed>0.01</speed>
  <fix>3d</fix>
</trkpt>
<trkpt lat="33.8106163" lon="-118.3935651">
  <ele>-9.139</ele>
  <time>2026-09-01T01:14:51Z</time>
  <course>155.39</course>
  <speed>0.03</speed>
  <fix>3d</fix>
</trkpt>
<trkpt lat="33.8106163" lon="-118.3935651">
  <ele>-9.051</ele>
  <time>2026-09-01T01:14:51Z</time>
  <course>155.38</course>
  <speed>0.03</speed>
  <fix>3d</fix>
</trkpt>
<trkpt lat="33.8106164" lon="-118.3935653">
  <ele>-8.85</ele>
  <time>2026-09-01T01:14:51Z</time>
  <course>72.12</course>
  <speed>0.01</speed>
  <fix>3d</fix>
</trkpt>
<trkpt lat="33.8106163" lon="-118.3935651">
  <ele>-9.012</ele>
  <time>2026-09-01T01:14:51Z</time>
  <course>155.38</course>
  <speed>0.03</speed>
  <fix>3d</fix>
</trkpt>
<trkpt lat="33.8106163" lon="-118.3935651">
  <ele>-8.923</ele>
  <time>2026-09-01T01:14:51Z</time>
  <course>155.37</course>
  <speed>0.03</speed>
  <fix>3d</fix>
</trkpt>
<trkpt lat="33.8106164" lon="-118.3935653">
  <ele>-8.6</ele>
  <time>2026-09-01T01:14:51Z</time>
  <course>72.17</course>
  <speed>0.01</speed>
  <fix>3d</fix>
</trkpt>
<trkpt lat="33.8106163" lon="-118.3935651">
  <ele>-8.882</ele>
  <time>2026-09-01T01:14:51Z</time>
  <course>155.37</course>
  <speed>0.03</speed>
  <fix>3d</fix>
</trkpt>
<trkpt lat="33.8106163" lon="-118.3935651">
  <ele>-8.793</ele>
  <time>2026-09-01T01:14:51Z</time>
  <course>155.36</course>
  <speed>0.03</speed>
  <fix>3d</fix>
</trkpt>
<trkpt lat="33.8106164" lon="-118.3935653">
  <ele>-8.6</ele>
  <time>2026-09-01T01:14:51Z</time>
  <course>72.17</course>
  <speed>0.01</speed>
  <fix>3d</fix>
</trkpt>
<trkpt lat="33.8106163" lon="-118.3935651">
  <ele>-8.755</ele>
  <time>2026-09-01T01:14:51Z</time>
  <course>155.36</course>
  <speed>0.03</speed>
  <fix>3d</fix>
</trkpt>
<trkpt lat="33.8106163" lon="-118.3935651">
  <ele>-8.664</ele>
  <time>2026-09-01T01:14:51Z</time>
  <course>155.35</course>
  <speed>0.03</speed>
  <fix>3d</fix>
</trkpt>
<trkpt lat="33.8106164" lon="-118.3935653">
  <ele>-8.35</ele>
  <time>2026-09-01T01:14:51Z</time>
  <course>72.23</course>
  <speed>0.01</speed>
  <fix>3d</fix>
</trkpt>
<trkpt lat="33.8106163" lon="-118.3935651">
  <ele>-8.657</ele>
  <time>2026-09-01T01:14:51Z</time>
  <course>155.35</course>
  <speed>0.03</speed>
  <fix>3d</fix>
</trkpt>
<trkpt lat="33.8106163" lon="-118.3935651">
  <ele>-8.534</ele>
  <time>2026-09-01T01:14:51Z</time>
  <course>155.34</course>
  <speed>0.03</speed>
  <fix>3d</fix>
</trkpt>
<trkpt lat="33.8106164" lon="-118.3935653">
  <ele>-8.35</ele>
  <time>2026-09-01T01:14:51Z</time>
  <course>72.23</course>
  <speed>0.01</speed>
  <fix>3d</fix>
</trkpt>
<trkpt lat="33.8106163" lon="-118.3935651">
  <ele>-8.531</ele>
  <time>2026-09-01T01:14:51Z</time>
  <course>155.34</course>
  <speed>0.03</speed>
  <fix>3d</fix>
</trkpt>
<trkpt lat="33.8106163" lon="-118.3935651">
  <ele>-8.404</ele>
  <time>2026-09-01T01:14:51Z</time>
  <course>155.33</course>
  <speed>0.03</speed>
  <fix>3d</fix>
</trkpt>
<trkpt lat="33.8106164" lon="-118.3935653">
  <ele>-8.1</ele>
  <time>2026-09-01T01:14:51Z</time>
  <course>72.27</course>
  <speed>0.01</speed>
  <fix>3d</fix>
</trkpt>
<trkpt lat="33.8106163" lon="-118.3935651">
  <ele>-8.365</ele>
  <time>2026-09-01T01:14:51Z</time>
  <course>155.33</course>
  <speed>0.03</speed>
  <fix>3d</fix>
</trkpt>
<trkpt lat="33.8106163" lon="-118.393565">
  <ele>-8.275</ele>
  <time>2026-09-01T01:14:51Z</time>
  <course>155.33</course>
  <speed>0.03</speed>
  <fix>3d</fix>
</trkpt>
<trkpt lat="33.8106164" lon="-118.3935653">
  <ele>-8.1</ele>
  <time>2026-09-01T01:14:51Z</time>
  <course>72.27</course>
  <speed>0.01</speed>
  <fix>3d</fix>
</trkpt>
<trkpt lat="33.8106163" lon="-118.393565">
  <ele>-8.23</ele>
  <time>2026-09-01T01:14:51Z</time>
  <course>155.32</course>
  <speed>0.03</speed>
  <fix>3d</fix>
</trkpt>
<trkpt lat="33.8106163" lon="-118.393565">
  <ele>-8.146</ele>
  <time>2026-09-01T01:14:51Z</time>
  <course>155.32</course>
  <speed>0.03</speed>
  <fix>3d</fix>
</trkpt>
<trkpt lat="33.8106164" lon="-118.3935652">
  <ele>-7.85</ele>
  <time>2026-09-01T01:14:51Z</time>
  <course>72.26</course>
  <speed>0.01</speed>
  <fix>3d</fix>
</trkpt>
<trkpt lat="33.8106163" lon="-118.393565">
  <ele>-8.114</ele>
  <time>2026-09-01T01:14:51Z</time>
  <course>155.31</course>
  <speed>0.03</speed>
  <fix>3d</fix>
</trkpt>
<trkpt lat="33.8106163" lon="-118.393565">
  <ele>-8.017</ele>
  <time>2026-09-01T01:14:51Z</time>
  <course>155.31</course>
  <speed>0.03</speed>
  <fix>3d</fix>
</trkpt>
<trkpt lat="33.8106164" lon="-118.3935652">
  <ele>-7.85</ele>
  <time>2026-09-01T01:14:51Z</time>
  <course>72.26</course>
  <speed>0.01</speed>
  <fix>3d</fix>
</trkpt>
<trkpt lat="33.8106163" lon="-118.393565">
  <ele>-8.013</ele>
  <time>2026-09-01T01:14:51Z</time>
  <course>155.31</course>
  <speed>0.03</speed>
  <fix>3d</fix>
</trkpt>
<trkpt lat="33.8106163" lon="-118.393565">
  <ele>-7.887</ele>
  <time>2026-09-01T01:14:51Z</time>
  <course>155.3</course>
  <speed>0.03</speed>
  <fix>3d</fix>
</trkpt>
<trkpt lat="33.8106164" lon="-118.3935652">
  <ele>-7.59</ele>
  <time>2026-09-01T01:14:51Z</time>
  <course>72.21</course>
  <speed>0.01</speed>
  <fix>3d</fix>
</trkpt>
<trkpt lat="33.8106163" lon="-118.393565">
  <ele>-7.865</ele>
  <time>2026-09-01T01:14:51Z</time>
  <course>155.3</course>
  <speed>0.03</speed>
  <fix>3d</fix>
</trkpt>
<trkpt lat="33.8106163" lon="-118.393565">
  <ele>-7.758</ele>
  <time>2026-09-01T01:14:51Z</time>
  <course>155.29</course>
  <speed>0.03</speed>
  <fix>3d</fix>
</trkpt>
<trkpt lat="33.8106164" lon="-118.3935652">
  <ele>-7.59</ele>
  <time>2026-09-01T01:14:51Z</time>
  <course>72.21</course>
  <speed>0.01</speed>
  <fix>3d</fix>
</trkpt>
<trkpt lat="33.8106163" lon="-118.393565">
  <ele>-7.735</ele>
  <time>2026-09-01T01:14:51Z</time>
  <course>155.29</course>
  <speed>0.03</speed>
  <fix>3d</fix>
</trkpt>
<trkpt lat="33.8106163" lon="-118.393565">
  <ele>-7.627</ele>
  <time>2026-09-01T01:14:51Z</time>
  <course>155.28</course>
  <speed>0.03</speed>
  <fix>3d</fix>
</trkpt>
<trkpt lat="33.8106164" lon="-118.3935652">
  <ele>-7.34</ele>
  <time>2026-09-01T01:14:51Z</time>
  <course>72.17</course>
  <speed>0.01</speed>
  <fix>3d</fix>
</trkpt>
<trkpt lat="33.8106163" lon="-118.393565">
  <ele>-7.604</ele>
  <time>2026-09-01T01:14:51Z</time>
  <course>155.28</course>
  <speed>0.03</speed>
  <fix>3d</fix>
</trkpt>
<trkpt lat="33.8106163" lon="-118.393565">
  <ele>-7.498</ele>
  <time>2026-09-01T01:14:51Z</time>
  <course>155.27</course>
  <speed>0.03</speed>
  <fix>3d</fix>
</trkpt>
<trkpt lat="33.8106164" lon="-118.3935652">
  <ele>-7.34</ele>
  <time>2026-09-01T01:14:51Z</time>
  <course>72.17</course>
  <speed>0.01</speed>
  <fix>3d</fix>
</trkpt>
<trkpt lat="33.8106163" lon="-118.393565">
  <ele>-7.459</ele>
  <time>2026-09-01T01:14:51Z</time>
  <course>155.27</course>
  <speed>0.03</speed>
  <fix>3d</fix>
</trkpt>
<trkpt lat="33.8106163" lon="-118.393565">
  <ele>-7.369</ele>
  <time>2026-09-01T01:14:51Z</time>
  <course>155.26</course>
  <speed>0.03</speed>
  <fix>3d</fix>
</trkpt>
<trkpt lat="33.8106164" lon="-118.3935652">
  <ele>-7.09</ele>
  <time>2026-09-01T01:14:51Z</time>
  <course>72.17</course>
  <speed>0.01</speed>
  <fix>3d</fix>
</trkpt>
<trkpt lat="33.8106163" lon="-118.393565">
  <ele>-7.365</ele>
  <time>2026-09-01T01:14:51Z</time>
  <course>155.26</course>
  <speed>0.03</speed>
  <fix>3d</fix>
</trkpt>
<trkpt lat="33.8106163" lon="-118.393565">
  <ele>-7.239</ele>
  <time>2026-09-01T01:14:51Z</time>
  <course>155.26</course>
  <speed>0.03</speed>
  <fix>3d</fix>
</trkpt>
<trkpt lat="33.8106164" lon="-118.3935652">
  <ele>-7.09</ele>
  <time>2026-09-01T01:14:51Z</time>
  <course>72.17</course>
  <speed>0.01</speed>
  <fix>3d</fix>
</trkpt>
<trkpt lat="33.8106163" lon="-118.393565">
  <ele>-7.201</ele>
  <time>2026-09-01T01:14:51Z</time>
  <course>155.25</course>
  <speed>0.03</speed>
  <fix>3d</fix>
</trkpt>
<trkpt lat="33.8106163" lon="-118.3935649">
  <ele>-7.11</ele>
  <time>2026-09-01T01:14:51Z</time>
  <course>155.25</course>
  <speed>0.03</speed>
  <fix>3d</fix>
</trkpt>
<trkpt lat="33.8106164" lon="-118.3935652">
  <ele>-6.84</ele>
  <time>2026-09-01T01:14:51Z</time>
  <course>72.21</course>
  <speed>0.01</speed>
  <fix>3d</fix>
</trkpt>
<trkpt lat="33.8106163" lon="-118.3935649">
  <ele>-7.107</ele>
  <time>2026-09-01T01:14:51Z</time>
  <course>155.25</course>
  <speed>0.03</speed>
  <fix>3d</fix>
</trkpt>
<trkpt lat="33.8106163" lon="-118.3935649">
  <ele>-6.982</ele>
  <time>2026-09-01T01:14:51Z</time>
  <course>155.24</course>
  <speed>0.03</speed>
  <fix>3d</fix>
</trkpt>
<trkpt lat="33.8106164" lon="-118.3935652">
  <ele>-6.84</ele>
  <time>2026-09-01T01:14:51Z</time>
  <course>72.21</course>
  <speed>0.01</speed>
  <fix>3d</fix>
</trkpt>
<trkpt lat="33.8106163" lon="-118.3935649">
  <ele>-6.978</ele>
  <time>2026-09-01T01:14:51Z</time>
  <course>155.24</course>
  <speed>0.03</speed>
  <fix>3d</fix>
</trkpt>
<trkpt lat="33.8106163" lon="-118.3935649">
  <ele>-6.854</ele>
  <time>2026-09-01T01:14:51Z</time>
  <course>155.23</course>
  <speed>0.03</speed>
  <fix>3d</fix>
</trkpt>
<trkpt lat="33.8106164" lon="-118.3935651">
  <ele>-6.59</ele>
  <time>2026-09-01T01:14:51Z</time>
  <course>72.26</course>
  <speed>0.01</speed>
  <fix>3d</fix>
</trkpt>
<trkpt lat="33.8106163" lon="-118.3935649">
  <ele>-6.815</ele>
  <time>2026-09-01T01:14:51Z</time>
  <course>155.23</course>
  <speed>0.03</speed>
  <fix>3d</fix>
</trkpt>
<trkpt lat="33.8106163" lon="-118.3935649">
  <ele>-6.726</ele>
  <time>2026-09-01T01:14:51Z</time>
  <course>155.22</course>
  <speed>0.03</speed>
  <fix>3d</fix>
</trkpt>
<trkpt lat="33.8106164" lon="-118.3935651">
  <ele>-6.59</ele>
  <time>2026-09-01T01:14:51Z</time>
  <course>72.26</course>
  <speed>0.01</speed>
  <fix>3d</fix>
</trkpt>
<trkpt lat="33.8106163" lon="-118.3935649">
  <ele>-6.685</ele>
  <time>2026-09-01T01:14:51Z</time>
  <course>155.22</course>
  <speed>0.03</speed>
  <fix>3d</fix>
</trkpt>
<trkpt lat="33.8106163" lon="-118.3935649">
  <ele>-6.599</ele>
  <time>2026-09-01T01:14:51Z</time>
  <course>155.21</course>
  <speed>0.03</speed>
  <fix>3d</fix>
</trkpt>
<trkpt lat="33.8106164" lon="-118.3935651">
  <ele>-6.34</ele>
  <time>2026-09-01T01:14:51Z</time>
  <course>72.27</course>
  <speed>0.01</speed>
  <fix>3d</fix>
</trkpt>
<trkpt lat="33.8106163" lon="-118.3935649">
  <ele>-6.559</ele>
  <time>2026-09-01T01:14:51Z</time>
  <course>155.21</course>
  <speed>0.03</speed>
  <fix>3d</fix>
</trkpt>
<trkpt lat="33.8106163" lon="-118.3935649">
  <ele>-6.471</ele>
  <time>2026-09-01T01:14:51Z</time>
  <course>155.2</course>
  <speed>0.03</speed>
  <fix>3d</fix>
</trkpt>
<trkpt lat="33.8106164" lon="-118.3935651">
  <ele>-6.34</ele>
  <time>2026-09-01T01:14:51Z</time>
  <course>72.27</course>
  <speed>0.01</speed>
  <fix>3d</fix>
</trkpt>
<trkpt lat="33.8106163" lon="-118.3935649">
  <ele>-6.433</ele>
  <time>2026-09-01T01:14:51Z</time>
  <course>155.2</course>
  <speed>0.03</speed>
  <fix>3d</fix>
</trkpt>
<trkpt lat="33.8106163" lon="-118.3935649">
  <ele>-6.344</ele>
  <time>2026-09-01T01:14:51Z</time>
  <course>155.19</course>
  <speed>0.03</speed>
  <fix>3d</fix>
</trkpt>
<trkpt lat="33.8106164" lon="-118.3935651">
  <ele>-6.08</ele>
  <time>2026-09-01T01:14:51Z</time>
  <course>72.23</course>
  <speed>0.01</speed>
  <fix>3d</fix>
</trkpt>
<trkpt lat="33.8106163" lon="-118.3935649">
  <ele>-6.305</ele>
  <time>2026-09-01T01:14:51Z</time>
  <course>155.19</course>
  <speed>0.03</speed>
  <fix>3d</fix>
</trkpt>
<trkpt lat="33.8106163" lon="-118.3935649">
  <ele>-6.216</ele>
  <time>2026-09-01T01:14:51Z</time>
  <course>155.19</course>
  <speed>0.03</speed>
  <fix>3d</fix>
</trkpt>
<trkpt lat="33.8106164" lon="-118.3935651">
  <ele>-6.08</ele>
  <time>2026-09-01T01:14:51Z</time>
  <course>72.23</course>
  <speed>0.01</speed>
  <fix>3d</fix>
</trkpt>
<trkpt lat="33.8106163" lon="-118.3935649">
  <ele>-6.177</ele>
  <time>2026-09-01T01:14:51Z</time>
  <course>155.18</course>
  <speed>0.03</speed>
  <fix>3d</fix>
</trkpt>
<trkpt lat="33.8106163" lon="-118.3935649">
  <ele>-6.087</ele>
  <time>2026-09-01T01:14:51Z</time>
  <course>155.18</course>
  <speed>0.03</speed>
  <fix>3d</fix>
</trkpt>
<trkpt lat="33.8106165" lon="-118.3935651">
  <ele>-5.83</ele>
  <time>2026-09-01T01:14:51Z</time>
  <course>72.17</course>
  <speed>0.01</speed>
  <fix>3d</fix>
</trkpt>
<trkpt lat="33.8106163" lon="-118.3935649">
  <ele>-6.048</ele>
  <time>2026-09-01T01:14:51Z</time>
  <course>155.17</course>
  <speed>0.03</speed>
  <fix>3d</fix>
</trkpt>
<trkpt lat="33.8106163" lon="-118.3935648">
  <ele>-5.958</ele>
  <time>2026-09-01T01:14:51Z</time>
  <course>155.17</course>
  <speed>0.03</speed>
  <fix>3d</fix>
</trkpt>
<trkpt lat="33.8106165" lon="-118.3935651">
  <ele>-5.83</ele>
  <time>2026-09-01T01:14:51Z</time>
  <course>72.17</course>
  <speed>0.01</speed>
  <fix>3d</fix>
</trkpt>
<trkpt lat="33.8106163" lon="-118.3935648">
  <ele>-5.955</ele>
  <time>2026-09-01T01:14:51Z</time>
  <course>155.17</course>
  <speed>0.03</speed>
  <fix>3d</fix>
</trkpt>
<trkpt lat="33.8106163" lon="-118.3935648">
  <ele>-5.83</ele>
  <time>2026-09-01T01:14:51Z</time>
  <course>155.16</course>
  <speed>0.03</speed>
  <fix>3d</fix>
</trkpt>
<trkpt lat="33.8106165" lon="-118.3935651">
  <ele>-5.58</ele>
  <time>2026-09-01T01:14:51Z</time>
  <course>72.13</course>
  <speed>0.01</speed>
  <fix>3d</fix>
</trkpt>
<trkpt lat="33.8106163" lon="-118.3935648">
  <ele>-5.788</ele>
  <time>2026-09-01T01:14:51Z</time>
  <course>155.16</course>
  <speed>0.03</speed>
  <fix>3d</fix>
</trkpt>
<trkpt lat="33.8106163" lon="-118.3935648">
  <ele>-5.701</ele>
  <time>2026-09-01T01:14:51Z</time>
  <course>155.15</course>
  <speed>0.03</speed>
  <fix>3d</fix>
</trkpt>
<trkpt lat="33.8106165" lon="-118.3935651">
  <ele>-5.58</ele>
  <time>2026-09-01T01:14:51Z</time>
  <course>72.13</course>
  <speed>0.01</speed>
  <fix>3d</fix>
</trkpt>
<trkpt lat="33.8106163" lon="-118.3935648">
  <ele>-5.659</ele>
  <time>2026-09-01T01:14:51Z</time>
  <course>155.15</course>
  <speed>0.03</speed>
  <fix>3d</fix>
</trkpt>
<trkpt lat="33.8106163" lon="-118.3935648">
  <ele>-5.573</ele>
  <time>2026-09-01T01:14:51Z</time>
  <course>155.14</course>
  <speed>0.03</speed>
  <fix>3d</fix>
</trkpt>
<trkpt lat="33.8106165" lon="-118.393565">
  <ele>-5.33</ele>
  <time>2026-09-01T01:14:51Z</time>
  <course>72.15</course>
  <speed>0.01</speed>
  <fix>3d</fix>
</trkpt>
<trkpt lat="33.8106163" lon="-118.3935648">
  <ele>-5.531</ele>
  <time>2026-09-01T01:14:51Z</time>
  <course>155.14</course>
  <speed>0.03</speed>
  <fix>3d</fix>
</trkpt>
<trkpt lat="33.8106163" lon="-118.3935648">
  <ele>-5.445</ele>
  <time>2026-09-01T01:14:51Z</time>
  <course>155.13</course>
  <speed>0.03</speed>
  <fix>3d</fix>
</trkpt>
<trkpt lat="33.8106165" lon="-118.393565">
  <ele>-5.33</ele>
  <time>2026-09-01T01:14:51Z</time>
  <course>72.15</course>
  <speed>0.01</speed>
  <fix>3d</fix>
</trkpt>
<trkpt lat="33.8106163" lon="-118.3935648">
  <ele>-5.407</ele>
  <time>2026-09-01T01:14:51Z</time>
  <course>155.13</course>
  <speed>0.03</speed>
  <fix>3d</fix>
</trkpt>
<trkpt lat="33.8106163" lon="-118.3935648">
  <ele>-5.317</ele>
  <time>2026-09-01T01:14:51Z</time>
  <course>155.12</course>
  <speed>0.03</speed>
  <fix>3d</fix>
</trkpt>
<trkpt lat="33.8106165" lon="-118.393565">
  <ele>-5.08</ele>
  <time>2026-09-01T01:14:51Z</time>
  <course>72.19</course>
  <speed>0.01</speed>
  <fix>3d</fix>
</trkpt>
<trkpt lat="33.8106163" lon="-118.3935648">
  <ele>-5.314</ele>
  <time>2026-09-01T01:14:51Z</time>
  <course>155.12</course>
  <speed>0.03</speed>
  <fix>3d</fix>
</trkpt>
<trkpt lat="33.8106163" lon="-118.3935648">
  <ele>-5.189</ele>
  <time>2026-09-01T01:14:51Z</time>
  <course>155.11</course>
  <speed>0.03</speed>
  <fix>3d</fix>
</trkpt>
<trkpt lat="33.8106165" lon="-118.393565">
  <ele>-5.08</ele>
  <time>2026-09-01T01:14:51Z</time>
  <course>72.19</course>
  <speed>0.01</speed>
  <fix>3d</fix>
</trkpt>
<trkpt lat="33.8106163" lon="-118.3935648">
  <ele>-5.147</ele>
  <time>2026-09-01T01:14:51Z</time>
  <course>155.11</course>
  <speed>0.03</speed>
  <fix>3d</fix>
</trkpt>
<trkpt lat="33.8106163" lon="-118.3935648">
  <ele>-5.06</ele>
  <time>2026-09-01T01:14:51Z</time>
  <course>155.11</course>
  <speed>0.03</speed>
  <fix>3d</fix>
</trkpt>
<trkpt lat="33.8106165" lon="-118.393565">
  <ele>-4.82</ele>
  <time>2026-09-01T01:14:51Z</time>
  <course>72.23</course>
  <speed>0.01</speed>
  <fix>3d</fix>
</trkpt>
<trkpt lat="33.8106163" lon="-118.3935648">
  <ele>-5.018</ele>
  <time>2026-09-01T01:14:51Z</time>
  <course>155.1</course>
  <speed>0.03</speed>
  <fix>3d</fix>
</trkpt>
<trkpt lat="33.8106164" lon="-118.3935648">
  <ele>-4.93</ele>
  <time>2026-09-01T01:14:51Z</time>
  <course>155.1</course>
  <speed>0.03</speed>
  <fix>3d</fix>
</trkpt>
<trkpt lat="33.8106165" lon="-118.393565">
  <ele>-4.82</ele>
  <time>2026-09-01T01:14:51Z</time>
  <course>72.23</course>
  <speed>0.01</speed>
  <fix>3d</fix>
</trkpt>
<trkpt lat="33.8106164" lon="-118.3935648">
  <ele>-4.889</ele>
  <time>2026-09-01T01:14:51Z</time>
  <course>155.09</course>
  <speed>0.03</speed>
  <fix>3d</fix>
</trkpt>
<trkpt lat="33.8106164" lon="-118.3935648">
  <ele>-4.8</ele>
  <time>2026-09-01T01:14:51Z</time>
  <course>155.09</course>
  <speed>0.03</speed>
  <fix>3d</fix>
</trkpt>
<trkpt lat="33.8106165" lon="-118.393565">
  <ele>-4.57</ele>
  <time>2026-09-01T01:14:51Z</time>
  <course>72.21</course>
  <speed>0.01</speed>
  <fix>3d</fix>
</trkpt>
<trkpt lat="33.8106164" lon="-118.3935647">
  <ele>-4.669</ele>
  <time>2026-09-01T01:14:51Z</time>
  <course>155.08</course>
  <speed>0.03</speed>
  <fix>3d</fix>
</trkpt>
<trkpt lat="33.8106165" lon="-118.393565">
  <ele>-4.57</ele>
  <time>2026-09-01T01:14:51Z</time>
  <course>72.21</course>
  <speed>0.01</speed>
  <fix>3d</fix>
</trkpt>
<trkpt lat="33.8106164" lon="-118.3935647">
  <ele>-4.539</ele>
  <time>2026-09-01T01:14:51Z</time>
  <course>155.07</course>
  <speed>0.03</speed>
  <fix>3d</fix>
</trkpt>
<trkpt lat="33.8106165" lon="-118.3935649">
  <ele>-4.32</ele>
  <time>2026-09-01T01:14:51Z</time>
  <course>72.15</course>
  <speed>0.01</speed>
  <fix>3d</fix>
</trkpt>
<trkpt lat="33.8106164" lon="-118.3935647">
  <ele>-4.411</ele>
  <time>2026-09-01T01:14:51Z</time>
  <course>155.06</course>
  <speed>0.03</speed>
  <fix>3d</fix>
</trkpt>
<trkpt lat="33.8106165" lon="-118.3935649">
  <ele>-4.32</ele>
  <time>2026-09-01T01:14:51Z</time>
  <course>72.15</course>
  <speed>0.01</speed>
  <fix>3d</fix>
</trkpt>
<trkpt lat="33.8106164" lon="-118.3935647">
  <ele>-4.29</ele>
  <time>2026-09-01T01:14:51Z</time>
  <course>155.05</course>
  <speed>0.03</speed>
  <fix>3d</fix>
</trkpt>
<trkpt lat="33.8106165" lon="-118.3935649">
  <ele>-4.07</ele>
  <time>2026-09-01T01:14:51Z</time>
  <course>72.02</course>
  <speed>0.01</speed>
  <fix>3d</fix>
</trkpt>
<trkpt lat="33.8106164" lon="-118.3935647">
  <ele>-4.179</ele>
  <time>2026-09-01T01:14:51Z</time>
  <course>155.04</course>
  <speed>0.03</speed>
  <fix>3d</fix>
</trkpt>
<trkpt lat="33.8106165" lon="-118.3935649">
  <ele>-4.07</ele>
  <time>2026-09-01T01:14:51Z</time>
  <course>72.02</course>
  <speed>0.01</speed>
  <fix>3d</fix>
</trkpt>
<trkpt lat="33.8106164" lon="-118.3935647">
  <ele>-4.085</ele>
  <time>2026-09-01T01:14:51Z</time>
  <course>155.03</course>
  <speed>0.03</speed>
  <fix>3d</fix>
</trkpt>
<trkpt lat="33.8106165" lon="-118.3935649">
  <ele>-3.84</ele>
  <time>2026-09-01T01:14:51Z</time>
  <course>71.69</course>
  <speed>0.01</speed>
  <fix>3d</fix>
</trkpt>
<trkpt lat="33.8106164" lon="-118.3935647">
  <ele>-4.006</ele>
  <time>2026-09-01T01:14:51Z</time>
  <course>155.03</course>
  <speed>0.03</speed>
  <fix>3d</fix>
</trkpt>
<trkpt lat="33.8106165" lon="-118.3935649">
  <ele>-3.84</ele>
  <time>2026-09-01T01:14:51Z</time>
  <course>71.69</course>
  <speed>0.01</speed>
  <fix>3d</fix>
</trkpt>
<trkpt lat="33.8106164" lon="-118.3935647">
  <ele>-3.943</ele>
  <time>2026-09-01T01:14:51Z</time>
  <course>155.02</course>
  <speed>0.03</speed>
  <fix>3d</fix>
</trkpt>
<trkpt lat="33.8106165" lon="-118.3935649">
  <ele>-3.65</ele>
  <time>2026-09-01T01:14:51Z</time>
  <course>71.3</course>
  <speed>0.01</speed>
  <fix>3d</fix>
</trkpt>
<trkpt lat="33.8106164" lon="-118.3935646">
  <ele>-3.894</ele>
  <time>2026-09-01T01:14:51Z</time>
  <course>155.01</course>
  <speed>0.03</speed>
  <fix>3d</fix>
</trkpt>
<trkpt lat="33.8106165" lon="-118.3935649">
  <ele>-3.65</ele>
  <time>2026-09-01T01:14:51Z</time>
  <course>71.3</course>
  <speed>0.01</speed>
  <fix>3d</fix>
</trkpt>
<trkpt lat="33.8106164" lon="-118.3935646">
  <ele>-3.859</ele>
  <time>2026-09-01T01:14:51Z</time>
  <course>155.0</course>
  <speed>0.03</speed>
  <fix>3d</fix>
</trkpt>
<trkpt lat="33.8106165" lon="-118.3935648">
  <ele>-3.52</ele>
  <time>2026-09-01T01:14:51Z</time>
  <course>71.05</course>
  <speed>0.01</speed>
  <fix>3d</fix>
</trkpt>
<trkpt lat="33.8106164" lon="-118.3935646">
  <ele>-3.836</ele>
  <time>2026-09-01T01:14:51Z</time>
  <course>154.99</course>
  <speed>0.03</speed>
  <fix>3d</fix>
</trkpt>
<trkpt lat="33.8106165" lon="-118.3935648">
  <ele>-3.52</ele>
  <time>2026-09-01T01:14:51Z</time>
  <course>71.05</course>
  <speed>0.01</speed>
  <fix>3d</fix>
</trkpt>
<trkpt lat="33.8106164" lon="-118.3935646">
  <ele>-3.823</ele>
  <time>2026-09-01T01:14:51Z</time>
  <course>154.98</course>
  <speed>0.03</speed>
  <fix>3d</fix>
</trkpt>
<trkpt lat="33.8106165" lon="-118.3935648">
  <ele>-3.44</ele>
  <time>2026-09-01T01:14:51Z</time>
  <course>70.9</course>
  <speed>0.01</speed>
  <fix>3d</fix>
</trkpt>
<trkpt lat="33.8106164" lon="-118.3935646">
  <ele>-3.817</ele>
  <time>2026-09-01T01:14:51Z</time>
  <course>154.98</course>
  <speed>0.03</speed>
  <fix>3d</fix>
</trkpt>
<trkpt lat="33.8106165" lon="-118.3935648">
  <ele>-3.44</ele>
  <time>2026-09-01T01:14:51Z</time>
  <course>70.9</course>
  <speed>0.01</speed>
  <fix>3d</fix>
</trkpt>
<trkpt lat="33.8106164" lon="-118.3935646">
  <ele>-3.817</ele>
  <time>2026-09-01T01:14:51Z</time>
  <course>154.97</course>
  <speed>0.03</speed>
  <fix>3d</fix>
</trkpt>
<trkpt lat="33.8106165" lon="-118.3935648">
  <ele>-3.41</ele>
  <time>2026-09-01T01:14:51Z</time>
  <course>70.74</course>
  <speed>0.01</speed>
  <fix>3d</fix>
</trkpt>
<trkpt lat="33.8106164" lon="-118.3935646">
  <ele>-3.82</ele>
  <time>2026-09-01T01:14:51Z</time>
  <course>154.96</course>
  <speed>0.03</speed>
  <fix>3d</fix>
</trkpt>
<trkpt lat="33.8106165" lon="-118.3935648">
  <ele>-3.41</ele>
  <time>2026-09-01T01:14:51Z</time>
  <course>70.74</course>
  <speed>0.01</speed>
  <fix>3d</fix>
</trkpt>
<trkpt lat="33.8106164" lon="-118.3935645">
  <ele>-3.823</ele>
  <time>2026-09-01T01:14:51Z</time>
  <course>154.95</course>
  <speed>0.03</speed>
  <fix>3d</fix>
</trkpt>
<trkpt lat="33.8106165" lon="-118.3935648">
  <ele>-3.39</ele>
  <time>2026-09-01T01:14:51Z</time>
  <course>70.6</course>
  <speed>0.01</speed>
  <fix>3d</fix>
</trkpt>
<trkpt lat="33.8106164" lon="-118.3935645">
  <ele>-3.825</ele>
  <time>2026-09-01T01:14:51Z</time>
  <course>154.94</course>
  <speed>0.03</speed>
  <fix>3d</fix>
</trkpt>
<trkpt lat="33.8106165" lon="-118.3935648">
  <ele>-3.39</ele>
  <time>2026-09-01T01:14:51Z</time>
  <course>70.6</course>
  <speed>0.01</speed>
  <fix>3d</fix>
</trkpt>
<trkpt lat="33.8106164" lon="-118.3935645">
  <ele>-3.826</ele>
  <time>2026-09-01T01:14:51Z</time>
  <course>154.93</course>
  <speed>0.03</speed>
  <fix>3d</fix>
</trkpt>
<trkpt lat="33.8106165" lon="-118.3935647">
  <ele>-3.38</ele>
  <time>2026-09-01T01:14:51Z</time>
  <course>70.54</course>
  <speed>0.01</speed>
  <fix>3d</fix>
</trkpt>
<trkpt lat="33.8106164" lon="-118.3935645">
  <ele>-3.826</ele>
  <time>2026-09-01T01:14:51Z</time>
  <course>154.92</course>
  <speed>0.03</speed>
  <fix>3d</fix>
</trkpt>
<trkpt lat="33.8106165" lon="-118.3935647">
  <ele>-3.38</ele>
  <time>2026-09-01T01:14:51Z</time>
  <course>70.54</course>
  <speed>0.01</speed>
  <fix>3d</fix>
</trkpt>
<trkpt lat="33.8106164" lon="-118.3935645">
  <ele>-3.826</ele>
  <time>2026-09-01T01:14:51Z</time>
  <course>154.92</course>
  <speed>0.03</speed>
  <fix>3d</fix>
</trkpt>
<trkpt lat="33.8106165" lon="-118.3935647">
  <ele>-3.37</ele>
  <time>2026-09-01T01:14:51Z</time>
  <course>70.54</course>
  <speed>0.01</speed>
  <fix>3d</fix>
</trkpt>
<trkpt lat="33.8106164" lon="-118.3935645">
  <ele>-3.826</ele>
  <time>2026-09-01T01:14:51Z</time>
  <course>154.91</course>
  <speed>0.03</speed>
  <fix>3d</fix>
</trkpt>
<trkpt lat="33.8106165" lon="-118.3935647">
  <ele>-3.37</ele>
  <time>2026-09-01T01:14:51Z</time>
  <course>70.54</course>
  <speed>0.01</speed>
  <fix>3d</fix>
</trkpt>
<trkpt lat="33.8106164" lon="-118.3935645">
  <ele>-3.824</ele>
  <time>2026-09-01T01:14:51Z</time>
  <course>154.9</course>
  <speed>0.03</speed>
  <fix>3d</fix>
</trkpt>
<trkpt lat="33.8106165" lon="-118.3935647">
  <ele>-3.36</ele>
  <time>2026-09-01T01:14:51Z</time>
  <course>70.58</course>
  <speed>0.01</speed>
  <fix>3d</fix>
</trkpt>
<trkpt lat="33.8106164" lon="-118.3935644">
  <ele>-3.822</ele>
  <time>2026-09-01T01:14:51Z</time>
  <course>154.89</course>
  <speed>0.03</speed>
  <fix>3d</fix>
</trkpt>
<trkpt lat="33.8106165" lon="-118.3935647">
  <ele>-3.36</ele>
  <time>2026-09-01T01:14:51Z</time>
  <course>70.58</course>
  <speed>0.01</speed>
  <fix>3d</fix>
</trkpt>
<trkpt lat="33.8106164" lon="-118.3935644">
  <ele>-3.821</ele>
  <time>2026-09-01T01:14:51Z</time>
  <course>154.88</course>
  <speed>0.03</speed>
  <fix>3d</fix>
</trkpt>
<trkpt lat="33.8106165" lon="-118.3935646">
  <ele>-3.35</ele>
  <time>2026-09-01T01:14:51Z</time>
  <course>70.61</course>
  <speed>0.01</speed>
  <fix>3d</fix>
</trkpt>
<trkpt lat="33.8106164" lon="-118.3935644">
  <ele>-3.822</ele>
  <time>2026-09-01T01:14:51Z</time>
  <course>154.87</course>
  <speed>0.03</speed>
  <fix>3d</fix>
</trkpt>
<trkpt lat="33.8106165" lon="-118.3935646">
  <ele>-3.35</ele>
  <time>2026-09-01T01:14:51Z</time>
  <course>70.61</course>
  <speed>0.01</speed>
  <fix>3d</fix>
</trkpt>
<trkpt lat="33.8106164" lon="-118.3935644">
  <ele>-3.822</ele>
  <time>2026-09-01T01:14:51Z</time>
  <course>154.87</course>
  <speed>0.03</speed>
  <fix>3d</fix>
</trkpt>
<trkpt lat="33.8106165" lon="-118.3935646">
  <ele>-3.34</ele>
  <time>2026-09-01T01:14:51Z</time>
  <course>70.61</course>
  <speed>0.01</speed>
  <fix>3d</fix>
</trkpt>
<trkpt lat="33.8106164" lon="-118.3935644">
  <ele>-3.822</ele>
  <time>2026-09-01T01:14:51Z</time>
  <course>154.86</course>
  <speed>0.03</speed>
  <fix>3d</fix>
</trkpt>
<trkpt lat="33.8106165" lon="-118.3935646">
  <ele>-3.34</ele>
  <time>2026-09-01T01:14:51Z</time>
  <course>70.61</course>
  <speed>0.01</speed>
  <fix>3d</fix>
</trkpt>
<trkpt lat="33.8106164" lon="-118.3935644">
  <ele>-3.821</ele>
  <time>2026-09-01T01:14:51Z</time>
  <course>154.85</course>
  <speed>0.03</speed>
  <fix>3d</fix>
</trkpt>
<trkpt lat="33.8106165" lon="-118.3935646">
  <ele>-3.34</ele>
  <time>2026-09-01T01:14:51Z</time>
  <course>70.57</course>
  <speed>0.01</speed>
  <fix>3d</fix>
</trkpt>
<trkpt lat="33.8106164" lon="-118.3935644">
  <ele>-3.819</ele>
  <time>2026-09-01T01:14:51Z</time>
  <course>154.84</course>
  <speed>0.03</speed>
  <fix>3d</fix>
</trkpt>
<trkpt lat="33.8106165" lon="-118.3935646">
  <ele>-3.34</ele>
  <time>2026-09-01T01:14:51Z</time>
  <course>70.57</course>
  <speed>0.01</speed>
  <fix>3d</fix>
</trkpt>
<trkpt lat="33.8106164" lon="-118.3935643">
  <ele>-3.818</ele>
  <time>2026-09-01T01:14:51Z</time>
  <course>154.83</course>
  <speed>0.03</speed>
  <fix>3d</fix>
</trkpt>
<trkpt lat="33.8106165" lon="-118.3935646">
  <ele>-3.33</ele>
  <time>2026-09-01T01:14:51Z</time>
  <course>70.52</course>
  <speed>0.01</speed>
  <fix>3d</fix>
</trkpt>
<trkpt lat="33.8106164" lon="-118.3935643">
  <ele>-3.818</ele>
  <time>2026-09-01T01:14:51Z</time>
  <course>154.82</course>
  <speed>0.03</speed>
  <fix>3d</fix>
</trkpt>
<trkpt lat="33.8106165" lon="-118.3935646">
  <ele>-3.33</ele>
  <time>2026-09-01T01:14:51Z</time>
  <course>70.52</course>
  <speed>0.01</speed>
  <fix>3d</fix>
</trkpt>
<trkpt lat="33.8106164" lon="-118.3935643">
  <ele>-3.818</ele>
  <time>2026-09-01T01:14:51Z</time>
  <course>154.82</course>
  <speed>0.03</speed>
  <fix>3d</fix>
</trkpt>
<trkpt lat="33.8106165" lon="-118.3935645">
  <ele>-3.33</ele>
  <time>2026-09-01T01:14:51Z</time>
  <course>70.5</course>
  <speed>0.01</speed>
  <fix>3d</fix>
</trkpt>
<trkpt lat="33.8106164" lon="-118.3935643">
  <ele>-3.818</ele>
  <time>2026-09-01T01:14:51Z</time>
  <course>154.81</course>
  <speed>0.03</speed>
  <fix>3d</fix>
</trkpt>
<trkpt lat="33.8106165" lon="-118.3935645">
  <ele>-3.33</ele>
  <time>2026-09-01T01:14:51Z</time>
  <course>70.5</course>
  <speed>0.01</speed>
  <fix>3d</fix>
</trkpt>
<trkpt lat="33.8106164" lon="-118.3935643">
  <ele>-3.818</ele>
  <time>2026-09-01T01:14:51Z</time>
  <course>154.8</course>
  <speed>0.03</speed>
  <fix>3d</fix>
</trkpt>
<trkpt lat="33.8106165" lon="-118.3935645">
  <ele>-3.32</ele>
  <time>2026-09-01T01:14:51Z</time>
  <course>70.51</course>
  <speed>0.01</speed>
  <fix>3d</fix>
</trkpt>
<trkpt lat="33.8106164" lon="-118.3935643">
  <ele>-3.817</ele>
  <time>2026-09-01T01:14:51Z</time>
  <course>154.79</course>
  <speed>0.03</speed>
  <fix>3d</fix>
</trkpt>
<trkpt lat="33.8106165" lon="-118.3935645">
  <ele>-3.32</ele>
  <time>2026-09-01T01:14:51Z</time>
  <course>70.51</course>
  <speed>0.01</speed>
  <fix>3d</fix>
</trkpt>
<trkpt lat="33.8106164" lon="-118.3935643">
  <ele>-3.817</ele>
  <time>2026-09-01T01:14:51Z</time>
  <course>154.78</course>
  <speed>0.03</speed>
  <fix>3d</fix>
</trkpt>
<trkpt lat="33.8106165" lon="-118.3935645">
  <ele>-3.32</ele>
  <time>2026-09-01T01:14:51Z</time>
  <course>70.55</course>
  <speed>0.01</speed>
  <fix>3d</fix>
</trkpt>
<trkpt lat="33.8106164" lon="-118.3935642">
  <ele>-3.816</ele>
  <time>2026-09-01T01:14:51Z</time>
  <course>154.78</course>
  <speed>0.03</speed>
  <fix>3d</fix>
</trkpt>
<trkpt lat="33.8106165" lon="-118.3935645">
  <ele>-3.32</ele>
  <time>2026-09-01T01:14:51Z</time>
  <course>70.55</course>
  <speed>0.01</speed>
  <fix>3d</fix>
</trkpt>
<trkpt lat="33.8106164" lon="-118.3935642">
  <ele>-3.815</ele>
  <time>2026-09-01T01:14:51Z</time>
  <course>154.77</course>
  <speed>0.03</speed>
  <fix>3d</fix>
</trkpt>
<trkpt lat="33.8106165" lon="-118.3935644">
  <ele>-3.32</ele>
  <time>2026-09-01T01:14:51Z</time>
  <course>70.58</course>
  <speed>0.01</speed>
  <fix>3d</fix>
</trkpt>
<trkpt lat="33.8106164" lon="-118.3935642">
  <ele>-3.814</ele>
  <time>2026-09-01T01:14:51Z</time>
  <course>154.76</course>
  <speed>0.03</speed>
  <fix>3d</fix>
</trkpt>
<trkpt lat="33.8106165" lon="-118.3935644">
  <ele>-3.32</ele>
  <time>2026-09-01T01:14:51Z</time>
  <course>70.58</course>
  <speed>0.01</speed>
  <fix>3d</fix>
</trkpt>
<trkpt lat="33.8106164" lon="-118.3935642">
  <ele>-3.812</ele>
  <time>2026-09-01T01:14:51Z</time>
  <course>154.75</course>
  <speed>0.03</speed>
  <fix>3d</fix>
</trkpt>
<trkpt lat="33.8106165" lon="-118.3935644">
  <ele>-3.32</ele>
  <time>2026-09-01T01:14:51Z</time>
  <course>70.57</course>
  <speed>0.01</speed>
  <fix>3d</fix>
</trkpt>
<trkpt lat="33.8106164" lon="-118.3935642">
  <ele>-3.812</ele>
  <time>2026-09-01T01:14:51Z</time>
  <course>154.74</course>
  <speed>0.03</speed>
  <fix>3d</fix>
</trkpt>
<trkpt lat="33.8106165" lon="-118.3935644">
  <ele>-3.32</ele>
  <time>2026-09-01T01:14:51Z</time>
  <course>70.57</course>
  <speed>0.01</speed>
  <fix>3d</fix>
</trkpt>
<trkpt lat="33.8106164" lon="-118.3935642">
  <ele>-3.811</ele>
  <time>2026-09-01T01:14:51Z</time>
  <course>154.73</course>
  <speed>0.03</speed>
  <fix>3d</fix>
</trkpt>
<trkpt lat="33.8106166" lon="-118.3935644">
  <ele>-3.32</ele>
  <time>2026-09-01T01:14:51Z</time>
  <course>70.52</course>
  <speed>0.01</speed>
  <fix>3d</fix>
</trkpt>
<trkpt lat="33.8106164" lon="-118.3935642">
  <ele>-3.812</ele>
  <time>2026-09-01T01:14:51Z</time>
  <course>154.73</course>
  <speed>0.03</speed>
  <fix>3d</fix>
</trkpt>
<trkpt lat="33.8106166" lon="-118.3935644">
  <ele>-3.32</ele>
  <time>2026-09-01T01:14:51Z</time>
  <course>70.52</course>
  <speed>0.01</speed>
  <fix>3d</fix>
</trkpt>
<trkpt lat="33.8106164" lon="-118.3935641">
  <ele>-3.813</ele>
  <time>2026-09-01T01:14:51Z</time>
  <course>154.72</course>
  <speed>0.03</speed>
  <fix>3d</fix>
</trkpt>
<trkpt lat="33.8106167" lon="-118.3935643">
  <ele>-3.32</ele>
  <time>2026-09-01T01:14:51Z</time>
  <course>70.48</course>
  <speed>0.01</speed>
  <fix>3d</fix>
</trkpt>
<trkpt lat="33.8106164" lon="-118.3935641">
  <ele>-3.816</ele>
  <time>2026-09-01T01:14:51Z</time>
  <course>154.71</course>
  <speed>0.03</speed>
  <fix>3d</fix>
</trkpt>
<trkpt lat="33.8106167" lon="-118.3935643">
  <ele>-3.32</ele>
  <time>2026-09-01T01:14:51Z</time>
  <course>70.48</course>
  <speed>0.01</speed>
  <fix>3d</fix>
</trkpt>
<trkpt lat="33.8106164" lon="-118.3935641">
  <ele>-3.819</ele>
  <time>2026-09-01T01:14:51Z</time>
  <course>154.7</course>
  <speed>0.03</speed>
  <fix>3d</fix>
</trkpt>
<trkpt lat="33.8106167" lon="-118.3935643">
  <ele>-3.33</ele>
  <time>2026-09-01T01:14:51Z</time>
  <course>70.47</course>
  <speed>0.01</speed>
  <fix>3d</fix>
</trkpt>
<trkpt lat="33.8106165" lon="-118.3935641">
  <ele>-3.821</ele>
  <time>2026-09-01T01:14:51Z</time>
  <course>154.69</course>
  <speed>0.03</speed>
  <fix>3d</fix>
</trkpt>
<trkpt lat="33.8106167" lon="-118.3935643">
  <ele>-3.33</ele>
  <time>2026-09-01T01:14:51Z</time>
  <course>70.47</course>
  <speed>0.01</speed>
  <fix>3d</fix>
</trkpt>
<trkpt lat="33.8106165" lon="-118.3935641">
  <ele>-3.823</ele>
  <time>2026-09-01T01:14:51Z</time>
  <course>154.68</course>
  <speed>0.03</speed>
  <fix>3d</fix>
</trkpt>
<trkpt lat="33.8106167" lon="-118.3935643">
  <ele>-3.33</ele>
  <time>2026-09-01T01:14:51Z</time>
  <course>70.51</course>
  <speed>0.01</speed>
  <fix>3d</fix>
</trkpt>
<trkpt lat="33.8106165" lon="-118.3935641">
  <ele>-3.825</ele>
  <time>2026-09-01T01:14:51Z</time>
  <course>154.67</course>
  <speed>0.03</speed>
  <fix>3d</fix>
</trkpt>
<trkpt lat="33.8106167" lon="-118.3935643">
  <ele>-3.33</ele>
  <time>2026-09-01T01:14:51Z</time>
  <course>70.51</course>
  <speed>0.01</speed>
  <fix>3d</fix>
</trkpt>
<trkpt lat="33.8106165" lon="-118.393564">
  <ele>-3.826</ele>
  <time>2026-09-01T01:14:51Z</time>
  <course>154.67</course>
  <speed>0.03</speed>
  <fix>3d</fix>
</trkpt>
<trkpt lat="33.8106167" lon="-118.3935643">
  <ele>-3.34</ele>
  <time>2026-09-01T01:14:51Z</time>
  <course>70.56</course>
  <speed>0.01</speed>
  <fix>3d</fix>
</trkpt>
<trkpt lat="33.8106165" lon="-118.393564">
  <ele>-3.825</ele>
  <time>2026-09-01T01:14:51Z</time>
  <course>154.66</course>
  <speed>0.03</speed>
  <fix>3d</fix>
</trkpt>
<trkpt lat="33.8106167" lon="-118.3935643">
  <ele>-3.34</ele>
  <time>2026-09-01T01:14:51Z</time>
  <course>70.56</course>
  <speed>0.01</speed>
  <fix>3d</fix>
</trkpt>
<trkpt lat="33.8106165" lon="-118.393564">
  <ele>-3.822</ele>
  <time>2026-09-01T01:14:51Z</time>
  <course>154.65</course>
  <speed>0.03</speed>
  <fix>3d</fix>
</trkpt>
<trkpt lat="33.8106167" lon="-118.3935642">
  <ele>-3.33</ele>
  <time>2026-09-01T01:14:51Z</time>
  <course>70.58</course>
  <speed>0.01</speed>
  <fix>3d</fix>
</trkpt>
<trkpt lat="33.8106165" lon="-118.393564">
  <ele>-3.82</ele>
  <time>2026-09-01T01:14:51Z</time>
  <course>154.64</course>
  <speed>0.03</speed>
  <fix>3d</fix>
</trkpt>
<trkpt lat="33.8106167" lon="-118.3935642">
  <ele>-3.33</ele>
  <time>2026-09-01T01:14:51Z</time>
  <course>70.58</course>
  <speed>0.01</speed>
  <fix>3d</fix>
</trkpt>
<trkpt lat="33.8106165" lon="-118.393564">
  <ele>-3.818</ele>
  <time>2026-09-01T01:14:51Z</time>
  <course>154.63</course>
  <speed>0.03</speed>
  <fix>3d</fix>
</trkpt>
<trkpt lat="33.8106167" lon="-118.3935642">
  <ele>-3.33</ele>
  <time>2026-09-01T01:14:51Z</time>
  <course>70.57</course>
  <speed>0.01</speed>
  <fix>3d</fix>
</trkpt>
<trkpt lat="33.8106165" lon="-118.393564">
  <ele>-3.816</ele>
  <time>2026-09-01T01:14:51Z</time>
  <course>154.62</course>
  <speed>0.03</speed>
  <fix>3d</fix>
</trkpt>
<trkpt lat="33.8106167" lon="-118.3935642">
  <ele>-3.33</ele>
  <time>2026-09-01T01:14:51Z</time>
  <course>70.57</course>
  <speed>0.01</speed>
  <fix>3d</fix>
</trkpt>
<trkpt lat="33.8106165" lon="-118.393564">
  <ele>-3.815</ele>
  <time>2026-09-01T01:14:51Z</time>
  <course>154.62</course>
  <speed>0.03</speed>
  <fix>3d</fix>
</trkpt>
<trkpt lat="33.8106167" lon="-118.3935642">
  <ele>-3.33</ele>
  <time>2026-09-01T01:14:51Z</time>
  <course>70.52</course>
  <speed>0.01</speed>
  <fix>3d</fix>
</trkpt>
<trkpt lat="33.8106166" lon="-118.3935639">
  <ele>-3.814</ele>
  <time>2026-09-01T01:14:51Z</time>
  <course>154.61</course>
  <speed>0.03</speed>
  <fix>3d</fix>
</trkpt>
<trkpt lat="33.8106167" lon="-118.3935642">
  <ele>-3.33</ele>
  <time>2026-09-01T01:14:51Z</time>
  <course>70.52</course>
  <speed>0.01</speed>
  <fix>3d</fix>
</trkpt>
<trkpt lat="33.8106166" lon="-118.3935639">
  <ele>-3.814</ele>
  <time>2026-09-01T01:14:51Z</time>
  <course>154.6</course>
  <speed>0.03</speed>
  <fix>3d</fix>
</trkpt>
<trkpt lat="33.8106167" lon="-118.3935641">
  <ele>-3.33</ele>
  <time>2026-09-01T01:14:51Z</time>
  <course>70.49</course>
  <speed>0.01</speed>
  <fix>3d</fix>
</trkpt>
<trkpt lat="33.8106166" lon="-118.3935639">
  <ele>-3.815</ele>
  <time>2026-09-01T01:14:51Z</time>
  <course>154.59</course>
  <speed>0.03</speed>
  <fix>3d</fix>
</trkpt>
<trkpt lat="33.8106167" lon="-118.3935641">
  <ele>-3.33</ele>
  <time>2026-09-01T01:14:51Z</time>
  <course>70.49</course>
  <speed>0.01</speed>
  <fix>3d</fix>
</trkpt>
<trkpt lat="33.8106166" lon="-118.3935639">
  <ele>-3.817</ele>
  <time>2026-09-01T01:14:51Z</time>
  <course>154.59</course>
  <speed>0.03</speed>
  <fix>3d</fix>
</trkpt>
<trkpt lat="33.8106167" lon="-118.3935641">
  <ele>-3.33</ele>
  <time>2026-09-01T01:14:51Z</time>
  <course>70.5</course>
  <speed>0.01</speed>
  <fix>3d</fix>
</trkpt>
<trkpt lat="33.8106166" lon="-118.3935639">
  <ele>-3.817</ele>
  <time>2026-09-01T01:14:51Z</time>
  <course>154.58</course>
  <speed>0.03</speed>
  <fix>3d</fix>
</trkpt>
<trkpt lat="33.8106167" lon="-118.3935641">
  <ele>-3.33</ele>
  <time>2026-09-01T01:14:51Z</time>
  <course>70.5</course>
  <speed>0.01</speed>
  <fix>3d</fix>
</trkpt>
<trkpt lat="33.8106166" lon="-118.3935639">
  <ele>-3.818</ele>
  <time>2026-09-01T01:14:51Z</time>
  <course>154.57</course>
  <speed>0.03</speed>
  <fix>3d</fix>
</trkpt>
<trkpt lat="33.8106167" lon="-118.3935641">
  <ele>-3.34</ele>
  <time>2026-09-01T01:14:51Z</time>
  <course>70.54</course>
  <speed>0.01</speed>
  <fix>3d</fix>
</trkpt>
<trkpt lat="33.8106166" lon="-118.3935639">
  <ele>-3.819</ele>
  <time>2026-09-01T01:14:51Z</time>
  <course>154.56</course>
  <speed>0.03</speed>
  <fix>3d</fix>
</trkpt>
<trkpt lat="33.8106167" lon="-118.3935641">
  <ele>-3.34</ele>
  <time>2026-09-01T01:14:51Z</time>
  <course>70.54</course>
  <speed>0.01</speed>
  <fix>3d</fix>
</trkpt>
<trkpt lat="33.8106166" lon="-118.3935638">
  <ele>-3.82</ele>
  <time>2026-09-01T01:14:51Z</time>
  <course>154.55</course>
  <speed>0.03</speed>
  <fix>3d</fix>
</trkpt>
<trkpt lat="33.8106167" lon="-118.3935641">
  <ele>-3.34</ele>
  <time>2026-09-01T01:14:51Z</time>
  <course>70.58</course>
  <speed>0.01</speed>
  <fix>3d</fix>
</trkpt>
<trkpt lat="33.8106166" lon="-118.3935638">
  <ele>-3.822</ele>
  <time>2026-09-01T01:14:51Z</time>
  <course>154.55</course>
  <speed>0.03</speed>
  <fix>3d</fix>
</trkpt>
<trkpt lat="33.8106167" lon="-118.3935641">
  <ele>-3.34</ele>
  <time>2026-09-01T01:14:51Z</time>
  <course>70.58</course>
  <speed>0.01</speed>
  <fix>3d</fix>
</trkpt>
<trkpt lat="33.8106166" lon="-118.3935638">
  <ele>-3.824</ele>
  <time>2026-09-01T01:14:51Z</time>
  <course>154.54</course>
  <speed>0.03</speed>
  <fix>3d</fix>
</trkpt>
<trkpt lat="33.8106167" lon="-118.393564">
  <ele>-3.35</ele>
  <time>2026-09-01T01:14:51Z</time>
  <course>70.59</course>
  <speed>0.01</speed>
  <fix>3d</fix>
</trkpt>
<trkpt lat="33.8106166" lon="-118.3935638">
  <ele>-3.827</ele>
  <time>2026-09-01T01:14:51Z</time>
  <course>154.53</course>
  <speed>0.03</speed>
  <fix>3d</fix>
</trkpt>
<trkpt lat="33.8106167" lon="-118.393564">
  <ele>-3.35</ele>
  <time>2026-09-01T01:14:51Z</time>
  <course>70.59</course>
  <speed>0.01</speed>
  <fix>3d</fix>
</trkpt>
<trkpt lat="33.8106166" lon="-118.3935638">
  <ele>-3.829</ele>
  <time>2026-09-01T01:14:51Z</time>
  <course>154.53</course>
  <speed>0.03</speed>
  <fix>3d</fix>
</trkpt>
<trkpt lat="33.8106168" lon="-118.393564">
  <ele>-3.35</ele>
  <time>2026-09-01T01:14:51Z</time>
  <course>70.58</course>
  <speed>0.01</speed>
  <fix>3d</fix>
</trkpt>
<trkpt lat="33.8106166" lon="-118.3935638">
  <ele>-3.83</ele>
  <time>2026-09-01T01:14:51Z</time>
  <course>154.52</course>
  <speed>0.03</speed>
  <fix>3d</fix>
</trkpt>
<trkpt lat="33.8106168" lon="-118.393564">
  <ele>-3.35</ele>
  <time>2026-09-01T01:14:51Z</time>
  <course>70.58</course>
  <speed>0.01</speed>
  <fix>3d</fix>
</trkpt>
<trkpt lat="33.8106166" lon="-118.3935638">
  <ele>-3.828</ele>
  <time>2026-09-01T01:14:51Z</time>
  <course>154.51</course>
  <speed>0.03</speed>
  <fix>3d</fix>
</trkpt>
<trkpt lat="33.8106168" lon="-118.393564">
  <ele>-3.35</ele>
  <time>2026-09-01T01:14:51Z</time>
  <course>70.56</course>
  <speed>0.01</speed>
  <fix>3d</fix>
</trkpt>
<trkpt lat="33.8106166" lon="-118.3935637">
  <ele>-3.826</ele>
  <time>2026-09-01T01:14:51Z</time>
  <course>154.5</course>
  <speed>0.03</speed>
  <fix>3d</fix>
</trkpt>
<trkpt lat="33.8106168" lon="-118.393564">
  <ele>-3.35</ele>
  <time>2026-09-01T01:14:51Z</time>
  <course>70.56</course>
  <speed>0.01</speed>
  <fix>3d</fix>
</trkpt>
<trkpt lat="33.8106166" lon="-118.3935637">
  <ele>-3.824</ele>
  <time>2026-09-01T01:14:51Z</time>
  <course>154.49</course>
  <speed>0.03</speed>
  <fix>3d</fix>
</trkpt>
<trkpt lat="33.8106168" lon="-118.3935639">
  <ele>-3.34</ele>
  <time>2026-09-01T01:14:51Z</time>
  <course>70.55</course>
  <speed>0.01</speed>
  <fix>3d</fix>
</trkpt>
<trkpt lat="33.8106167" lon="-118.3935637">
  <ele>-3.822</ele>
  <time>2026-09-01T01:14:51Z</time>
  <course>154.49</course>
  <speed>0.03</speed>
  <fix>3d</fix>
</trkpt>
<trkpt lat="33.8106168" lon="-118.3935639">
  <ele>-3.34</ele>
  <time>2026-09-01T01:14:51Z</time>
  <course>70.55</course>
  <speed>0.01</speed>
  <fix>3d</fix>
</trkpt>
<trkpt lat="33.8106167" lon="-118.3935637">
  <ele>-3.821</ele>
  <time>2026-09-01T01:14:52Z</time>
  <course>154.48</course>
  <speed>0.03</speed>
  <fix>3d</fix>
</trkpt>
<trkpt lat="33.8106168" lon="-118.3935639">
  <ele>-3.34</ele>
  <time>2026-09-01T01:14:52Z</time>
  <course>70.58</course>
  <speed>0.01</speed>
  <fix>3d</fix>
</trkpt>
<trkpt lat="33.8106167" lon="-118.3935637">
  <ele>-3.82</ele>
  <time>2026-09-01T01:14:52Z</time>
  <course>154.47</course>
  <speed>0.03</speed>
  <fix>3d</fix>
</trkpt>
<trkpt lat="33.8106168" lon="-118.3935639">
  <ele>-3.34</ele>
  <time>2026-09-01T01:14:52Z</time>
  <course>70.58</course>
  <speed>0.01</speed>
  <fix>3d</fix>
</trkpt>
<trkpt lat="33.8106167" lon="-118.3935637">
  <ele>-3.821</ele>
  <time>2026-09-01T01:14:52Z</time>
  <course>154.46</course>
  <speed>0.03</speed>
  <fix>3d</fix>
</trkpt>
<trkpt lat="33.8106168" lon="-118.3935639">
  <ele>-3.34</ele>
  <time>2026-09-01T01:14:52Z</time>
  <course>70.62</course>
  <speed>0.01</speed>
  <fix>3d</fix>
</trkpt>
<trkpt lat="33.8106167" lon="-118.3935637">
  <ele>-3.82</ele>
  <time>2026-09-01T01:14:52Z</time>
  <course>154.46</course>
  <speed>0.03</speed>
  <fix>3d</fix>
</trkpt>
<trkpt lat="33.8106168" lon="-118.3935639">
  <ele>-3.34</ele>
  <time>2026-09-01T01:14:52Z</time>
  <course>70.62</course>
  <speed>0.01</speed>
  <fix>3d</fix>
</trkpt>
<trkpt lat="33.8106167" lon="-118.3935636">
  <ele>-3.82</ele>
  <time>2026-09-01T01:14:52Z</time>
  <course>154.45</course>
  <speed>0.03</speed>
  <fix>3d</fix>
</trkpt>
<trkpt lat="33.8106168" lon="-118.3935639">
  <ele>-3.34</ele>
  <time>2026-09-01T01:14:52Z</time>
  <course>70.65</course>
  <speed>0.01</speed>
  <fix>3d</fix>
</trkpt>
<trkpt lat="33.8106167" lon="-118.3935636">
  <ele>-3.82</ele>
  <time>2026-09-01T01:14:52Z</time>
  <course>154.44</course>
  <speed>0.03</speed>
  <fix>3d</fix>
</trkpt>
<trkpt lat="33.8106168" lon="-118.3935639">
  <ele>-3.34</ele>
  <time>2026-09-01T01:14:52Z</time>
  <course>70.65</course>
  <speed>0.01</speed>
  <fix>3d</fix>
</trkpt>
<trkpt lat="33.8106167" lon="-118.3935636">
  <ele>-3.821</ele>
  <time>2026-09-01T01:14:52Z</time>
  <course>154.44</course>
  <speed>0.03</speed>
  <fix>3d</fix>
</trkpt>
<trkpt lat="33.8106168" lon="-118.3935638">
  <ele>-3.34</ele>
  <time>2026-09-01T01:14:52Z</time>
  <course>70.64</course>
  <speed>0.01</speed>
  <fix>3d</fix>
</trkpt>
<trkpt lat="33.8106167" lon="-118.3935636">
  <ele>-3.822</ele>
  <time>2026-09-01T01:14:52Z</time>
  <course>154.43</course>
  <speed>0.03</speed>
  <fix>3d</fix>
</trkpt>
<trkpt lat="33.8106168" lon="-118.3935638">
  <ele>-3.34</ele>
  <time>2026-09-01T01:14:52Z</time>
  <course>70.64</course>
  <speed>0.01</speed>
  <fix>3d</fix>
</trkpt>
<trkpt lat="33.8106167" lon="-118.3935636">
  <ele>-3.824</ele>
  <time>2026-09-01T01:14:52Z</time>
  <course>154.42</course>
  <speed>0.03</speed>
  <fix>3d</fix>
</trkpt>
<trkpt lat="33.8106168" lon="-118.3935638">
  <ele>-3.34</ele>
  <time>2026-09-01T01:14:52Z</time>
  <course>70.6</course>
  <speed>0.01</speed>
  <fix>3d</fix>
</trkpt>
<trkpt lat="33.8106167" lon="-118.3935636">
  <ele>-3.825</ele>
  <time>2026-09-01T01:14:52Z</time>
  <course>154.41</course>
  <speed>0.03</speed>
  <fix>3d</fix>
</trkpt>
<trkpt lat="33.8106168" lon="-118.3935638">
  <ele>-3.34</ele>
  <time>2026-09-01T01:14:52Z</time>
  <course>70.6</course>
  <speed>0.01</speed>
  <fix>3d</fix>
</trkpt>
<trkpt lat="33.8106167" lon="-118.3935636">
  <ele>-3.826</ele>
  <time>2026-09-01T01:14:52Z</time>
  <course>154.41</course>
  <speed>0.03</speed>
  <fix>3d</fix>
</trkpt>
<trkpt lat="33.8106168" lon="-118.3935638">
  <ele>-3.35</ele>
  <time>2026-09-01T01:14:52Z</time>
  <course>70.57</course>
  <speed>0.01</speed>
  <fix>3d</fix>
</trkpt>
<trkpt lat="33.8106167" lon="-118.3935635">
  <ele>-3.826</ele>
  <time>2026-09-01T01:14:52Z</time>
  <course>154.4</course>
  <speed>0.03</speed>
  <fix>3d</fix>
</trkpt>
<trkpt lat="33.8106168" lon="-118.3935638">
  <ele>-3.35</ele>
  <time>2026-09-01T01:14:52Z</time>
  <course>70.57</course>
  <speed>0.01</speed>
  <fix>3d</fix>
</trkpt>
<trkpt lat="33.8106167" lon="-118.3935635">
  <ele>-3.827</ele>
  <time>2026-09-01T01:14:52Z</time>
  <course>154.39</course>
  <speed>0.03</speed>
  <fix>3d</fix>
</trkpt>
<trkpt lat="33.8106168" lon="-118.3935637">
  <ele>-3.35</ele>
  <time>2026-09-01T01:14:52Z</time>
  <course>70.58</course>
  <speed>0.01</speed>
  <fix>3d</fix>
</trkpt>
<trkpt lat="33.8106167" lon="-118.3935635">
  <ele>-3.826</ele>
  <time>2026-09-01T01:14:52Z</time>
  <course>154.39</course>
  <speed>0.03</speed>
  <fix>3d</fix>
</trkpt>
<trkpt lat="33.8106168" lon="-118.3935637">
  <ele>-3.35</ele>
  <time>2026-09-01T01:14:52Z</time>
  <course>70.58</course>
  <speed>0.01</speed>
  <fix>3d</fix>
</trkpt>
<trkpt lat="33.8106167" lon="-118.3935635">
  <ele>-3.826</ele>
  <time>2026-09-01T01:14:52Z</time>
  <course>154.38</course>
  <speed>0.03</speed>
  <fix>3d</fix>
</trkpt>
<trkpt lat="33.8106168" lon="-118.3935637">
  <ele>-3.34</ele>
  <time>2026-09-01T01:14:52Z</time>
  <course>70.61</course>
  <speed>0.01</speed>
  <fix>3d</fix>
</trkpt>
<trkpt lat="33.8106167" lon="-118.3935635">
  <ele>-3.825</ele>
  <time>2026-09-01T01:14:52Z</time>
  <course>154.37</course>
  <speed>0.03</speed>
  <fix>3d</fix>
</trkpt>
<trkpt lat="33.8106168" lon="-118.3935637">
  <ele>-3.34</ele>
  <time>2026-09-01T01:14:52Z</time>
  <course>70.61</course>
  <speed>0.01</speed>
  <fix>3d</fix>
</trkpt>
<trkpt lat="33.8106167" lon="-118.3935635">
  <ele>-3.824</ele>
  <time>2026-09-01T01:14:52Z</time>
  <course>154.37</course>
  <speed>0.03</speed>
  <fix>3d</fix>
</trkpt>
<trkpt lat="33.8106168" lon="-118.3935637">
  <ele>-3.34</ele>
  <time>2026-09-01T01:14:52Z</time>
  <course>70.65</course>
  <speed>0.01</speed>
  <fix>3d</fix>
</trkpt>
<trkpt lat="33.8106167" lon="-118.3935635">
  <ele>-3.824</ele>
  <time>2026-09-01T01:14:52Z</time>
  <course>154.36</course>
  <speed>0.03</speed>
  <fix>3d</fix>
</trkpt>
<trkpt lat="33.8106168" lon="-118.3935637">
  <ele>-3.34</ele>
  <time>2026-09-01T01:14:52Z</time>
  <course>70.65</course>
  <speed>0.01</speed>
  <fix>3d</fix>
</trkpt>
<trkpt lat="33.8106167" lon="-118.3935634">
  <ele>-3.823</ele>
  <time>2026-09-01T01:14:52Z</time>
  <course>154.35</course>
  <speed>0.03</speed>
  <fix>3d</fix>
</trkpt>
<trkpt lat="33.8106169" lon="-118.3935637">
  <ele>-3.34</ele>
  <time>2026-09-01T01:14:52Z</time>
  <course>70.66</course>
  <speed>0.01</speed>
  <fix>3d</fix>
</trkpt>
<trkpt lat="33.8106167" lon="-118.3935634">
  <ele>-3.823</ele>
  <time>2026-09-01T01:14:52Z</time>
  <course>154.34</course>
  <speed>0.03</speed>
  <fix>3d</fix>
</trkpt>
<trkpt lat="33.8106169" lon="-118.3935637">
  <ele>-3.34</ele>
  <time>2026-09-01T01:14:52Z</time>
  <course>70.66</course>
  <speed>0.01</speed>
  <fix>3d</fix>
</trkpt>
<trkpt lat="33.8106167" lon="-118.3935634">
  <ele>-3.823</ele>
  <time>2026-09-01T01:14:52Z</time>
  <course>154.34</course>
  <speed>0.03</speed>
  <fix>3d</fix>
</trkpt>
<trkpt lat="33.8106169" lon="-118.3935636">
  <ele>-3.34</ele>
  <time>2026-09-01T01:14:52Z</time>
  <course>70.63</course>
  <speed>0.01</speed>
  <fix>3d</fix>
</trkpt>
<trkpt lat="33.8106167" lon="-118.3935634">
  <ele>-3.823</ele>
  <time>2026-09-01T01:14:52Z</time>
  <course>154.33</course>
  <speed>0.03</speed>
  <fix>3d</fix>
</trkpt>
<trkpt lat="33.8106169" lon="-118.3935636">
  <ele>-3.34</ele>
  <time>2026-09-01T01:14:52Z</time>
  <course>70.63</course>
  <speed>0.01</speed>
  <fix>3d</fix>
</trkpt>
<trkpt lat="33.8106167" lon="-118.3935634">
  <ele>-3.822</ele>
  <time>2026-09-01T01:14:52Z</time>
  <course>154.32</course>
  <speed>0.03</speed>
  <fix>3d</fix>
</trkpt>
<trkpt lat="33.8106169" lon="-118.3935636">
  <ele>-3.34</ele>
  <time>2026-09-01T01:14:52Z</time>
  <course>70.58</course>
  <speed>0.01</speed>
  <fix>3d</fix>
</trkpt>
<trkpt lat="33.8106168" lon="-118.3935634">
  <ele>-3.822</ele>
  <time>2026-09-01T01:14:52Z</time>
  <course>154.32</course>
  <speed>0.03</speed>
  <fix>3d</fix>
</trkpt>
<trkpt lat="33.8106169" lon="-118.3935636">
  <ele>-3.34</ele>
  <time>2026-09-01T01:14:52Z</time>
  <course>70.58</course>
  <speed>0.01</speed>
  <fix>3d</fix>
</trkpt>
<trkpt lat="33.8106168" lon="-118.3935634">
  <ele>-3.821</ele>
  <time>2026-09-01T01:14:52Z</time>
  <course>154.31</course>
  <speed>0.03</speed>
  <fix>3d</fix>
</trkpt>
<trkpt lat="33.8106169" lon="-118.3935636">
  <ele>-3.34</ele>
  <time>2026-09-01T01:14:52Z</time>
  <course>70.55</course>
  <speed>0.01</speed>
  <fix>3d</fix>
</trkpt>
<trkpt lat="33.8106168" lon="-118.3935633">
  <ele>-3.821</ele>
  <time>2026-09-01T01:14:52Z</time>
  <course>154.3</course>
  <speed>0.03</speed>
  <fix>3d</fix>
</trkpt>
<trkpt lat="33.8106169" lon="-118.3935636">
  <ele>-3.34</ele>
  <time>2026-09-01T01:14:52Z</time>
  <course>70.55</course>
  <speed>0.01</speed>
  <fix>3d</fix>
</trkpt>
<trkpt lat="33.8106168" lon="-118.3935633">
  <ele>-3.821</ele>
  <time>2026-09-01T01:14:52Z</time>
  <course>154.3</course>
  <speed>0.03</speed>
  <fix>3d</fix>
</trkpt>
<trkpt lat="33.8106169" lon="-118.3935635">
  <ele>-3.34</ele>
  <time>2026-09-01T01:14:52Z</time>
  <course>70.57</course>
  <speed>0.01</speed>
  <fix>3d</fix>
</trkpt>
<trkpt lat="33.8106168" lon="-118.3935633">
  <ele>-3.822</ele>
  <time>2026-09-01T01:14:52Z</time>
  <course>154.29</course>
  <speed>0.03</speed>
  <fix>3d</fix>
</trkpt>
<trkpt lat="33.8106169" lon="-118.3935635">
  <ele>-3.34</ele>
  <time>2026-09-01T01:14:52Z</time>
  <course>70.57</course>
  <speed>0.01</speed>
  <fix>3d</fix>
</trkpt>
<trkpt lat="33.8106168" lon="-118.3935633">
  <ele>-3.822</ele>
  <time>2026-09-01T01:14:52Z</time>
  <course>154.28</course>
  <speed>0.03</speed>
  <fix>3d</fix>
</trkpt>
<trkpt lat="33.8106169" lon="-118.3935635">
  <ele>-3.34</ele>
  <time>2026-09-01T01:14:52Z</time>
  <course>70.62</course>
  <speed>0.01</speed>
  <fix>3d</fix>
</trkpt>
<trkpt lat="33.8106168" lon="-118.3935633">
  <ele>-3.822</ele>
  <time>2026-09-01T01:14:52Z</time>
  <course>154.27</course>
  <speed>0.03</speed>
  <fix>3d</fix>
</trkpt>
<trkpt lat="33.8106169" lon="-118.3935635">
  <ele>-3.34</ele>
  <time>2026-09-01T01:14:52Z</time>
  <course>70.62</course>
  <speed>0.01</speed>
  <fix>3d</fix>
</trkpt>
<trkpt lat="33.8106168" lon="-118.3935633">
  <ele>-3.823</ele>
  <time>2026-09-01T01:14:52Z</time>
  <course>154.27</course>
  <speed>0.03</speed>
  <fix>3d</fix>
</trkpt>
<trkpt lat="33.8106169" lon="-118.3935635">
  <ele>-3.34</ele>
  <time>2026-09-01T01:14:52Z</time>
  <course>70.65</course>
  <speed>0.01</speed>
  <fix>3d</fix>
</trkpt>
<trkpt lat="33.8106168" lon="-118.3935633">
  <ele>-3.823</ele>
  <time>2026-09-01T01:14:52Z</time>
  <course>154.26</course>
  <speed>0.03</speed>
  <fix>3d</fix>
</trkpt>
<trkpt lat="33.8106169" lon="-118.3935635">
  <ele>-3.34</ele>
  <time>2026-09-01T01:14:52Z</time>
  <course>70.65</course>
  <speed>0.01</speed>
  <fix>3d</fix>
</trkpt>
<trkpt lat="33.8106168" lon="-118.3935632">
  <ele>-3.823</ele>
  <time>2026-09-01T01:14:52Z</time>
  <course>154.26</course>
  <speed>0.03</speed>
  <fix>3d</fix>
</trkpt>
<trkpt lat="33.8106169" lon="-118.3935635">
  <ele>-3.34</ele>
  <time>2026-09-01T01:14:52Z</time>
  <course>70.66</course>
  <speed>0.01</speed>
  <fix>3d</fix>
</trkpt>
<trkpt lat="33.8106168" lon="-118.3935632">
  <ele>-3.822</ele>
  <time>2026-09-01T01:14:52Z</time>
  <course>154.25</course>
  <speed>0.03</speed>
  <fix>3d</fix>
</trkpt>
<trkpt lat="33.8106169" lon="-118.3935635">
  <ele>-3.34</ele>
  <time>2026-09-01T01:14:52Z</time>
  <course>70.66</course>
  <speed>0.01</speed>
  <fix>3d</fix>
</trkpt>
<trkpt lat="33.8106168" lon="-118.3935632">
  <ele>-3.822</ele>
  <time>2026-09-01T01:14:52Z</time>
  <course>154.24</course>
  <speed>0.03</speed>
  <fix>3d</fix>
</trkpt>
<trkpt lat="33.8106169" lon="-118.3935634">
  <ele>-3.34</ele>
  <time>2026-09-01T01:14:52Z</time>
  <course>70.64</course>
  <speed>0.01</speed>
  <fix>3d</fix>
</trkpt>
<trkpt lat="33.8106168" lon="-118.3935632">
  <ele>-3.822</ele>
  <time>2026-09-01T01:14:52Z</time>
  <course>154.24</course>
  <speed>0.03</speed>
  <fix>3d</fix>
</trkpt>
<trkpt lat="33.8106169" lon="-118.3935634">
  <ele>-3.34</ele>
  <time>2026-09-01T01:14:52Z</time>
  <course>70.64</course>
  <speed>0.01</speed>
  <fix>3d</fix>
</trkpt>
<trkpt lat="33.8106168" lon="-118.3935632">
  <ele>-3.821</ele>
  <time>2026-09-01T01:14:52Z</time>
  <course>154.23</course>
  <speed>0.03</speed>
  <fix>3d</fix>
</trkpt>
<trkpt lat="33.8106169" lon="-118.3935634">
  <ele>-3.34</ele>
  <time>2026-09-01T01:14:52Z</time>
  <course>70.6</course>
  <speed>0.01</speed>
  <fix>3d</fix>
</trkpt>
<trkpt lat="33.8106168" lon="-118.3935632">
  <ele>-3.82</ele>
  <time>2026-09-01T01:14:52Z</time>
  <course>154.22</course>
  <speed>0.03</speed>
  <fix>3d</fix>
</trkpt>
<trkpt lat="33.8106169" lon="-118.3935634">
  <ele>-3.34</ele>
  <time>2026-09-01T01:14:52Z</time>
  <course>70.6</course>
  <speed>0.01</speed>
  <fix>3d</fix>
</trkpt>
<trkpt lat="33.8106168" lon="-118.3935632">
  <ele>-3.819</ele>
  <time>2026-09-01T01:14:52Z</time>
  <course>154.22</course>
  <speed>0.03</speed>
  <fix>3d</fix>
</trkpt>
<trkpt lat="33.8106169" lon="-118.3935634">
  <ele>-3.34</ele>
  <time>2026-09-01T01:14:52Z</time>
  <course>70.58</course>
  <speed>0.01</speed>
  <fix>3d</fix>
</trkpt>
<trkpt lat="33.8106168" lon="-118.3935632">
  <ele>-3.818</ele>
  <time>2026-09-01T01:14:52Z</time>
  <course>154.21</course>
  <speed>0.03</speed>
  <fix>3d</fix>
</trkpt>
<trkpt lat="33.8106169" lon="-118.3935634">
  <ele>-3.34</ele>
  <time>2026-09-01T01:14:52Z</time>
  <course>70.58</course>
  <speed>0.01</speed>
  <fix>3d</fix>
</trkpt>
<trkpt lat="33.8106168" lon="-118.3935631">
  <ele>-3.818</ele>
  <time>2026-09-01T01:14:52Z</time>
  <course>154.2</course>
  <speed>0.03</speed>
  <fix>3d</fix>
</trkpt>
<trkpt lat="33.8106169" lon="-118.3935634">
  <ele>-3.34</ele>
  <time>2026-09-01T01:14:52Z</time>
  <course>70.6</course>
  <speed>0.01</speed>
  <fix>3d</fix>
</trkpt>
<trkpt lat="33.8106168" lon="-118.3935631">
  <ele>-3.818</ele>
  <time>2026-09-01T01:14:52Z</time>
  <course>154.2</course>
  <speed>0.03</speed>
  <fix>3d</fix>
</trkpt>
<trkpt lat="33.8106169" lon="-118.3935634">
  <ele>-3.34</ele>
  <time>2026-09-01T01:14:52Z</time>
  <course>70.6</course>
  <speed>0.01</speed>
  <fix>3d</fix>
</trkpt>
<trkpt lat="33.8106168" lon="-118.3935631">
  <ele>-3.819</ele>
  <time>2026-09-01T01:14:52Z</time>
  <course>154.19</course>
  <speed>0.03</speed>
  <fix>3d</fix>
</trkpt>
<trkpt lat="33.810617" lon="-118.3935633">
  <ele>-3.34</ele>
  <time>2026-09-01T01:14:52Z</time>
  <course>70.65</course>
  <speed>0.01</speed>
  <fix>3d</fix>
</trkpt>
<trkpt lat="33.8106168" lon="-118.3935631">
  <ele>-3.82</ele>
  <time>2026-09-01T01:14:52Z</time>
  <course>154.18</course>
  <speed>0.03</speed>
  <fix>3d</fix>
</trkpt>
<trkpt lat="33.810617" lon="-118.3935633">
  <ele>-3.34</ele>
  <time>2026-09-01T01:14:52Z</time>
  <course>70.65</course>
  <speed>0.01</speed>
  <fix>3d</fix>
</trkpt>
<trkpt lat="33.8106168" lon="-118.3935631">
  <ele>-3.824</ele>
  <time>2026-09-01T01:14:52Z</time>
  <course>154.18</course>
  <speed>0.03</speed>
  <fix>3d</fix>
</trkpt>
<trkpt lat="33.810617" lon="-118.3935633">
  <ele>-3.34</ele>
  <time>2026-09-01T01:14:52Z</time>
  <course>70.69</course>
  <speed>0.01</speed>
  <fix>3d</fix>
</trkpt>
<trkpt lat="33.8106168" lon="-118.3935631">
  <ele>-3.834</ele>
  <time>2026-09-01T01:14:52Z</time>
  <course>154.17</course>
  <speed>0.03</speed>
  <fix>3d</fix>
</trkpt>
<trkpt lat="33.810617" lon="-118.3935633">
  <ele>-3.34</ele>
  <time>2026-09-01T01:14:52Z</time>
  <course>70.69</course>
  <speed>0.01</speed>
  <fix>3d</fix>
</trkpt>
<trkpt lat="33.8106168" lon="-118.3935631">
  <ele>-3.844</ele>
  <time>2026-09-01T01:14:52Z</time>
  <course>154.16</course>
  <speed>0.03</speed>
  <fix>3d</fix>
</trkpt>
<trkpt lat="33.810617" lon="-118.3935633">
  <ele>-3.35</ele>
  <time>2026-09-01T01:14:52Z</time>
  <course>70.75</course>
  <speed>0.01</speed>
  <fix>3d</fix>
</trkpt>
<trkpt lat="33.8106168" lon="-118.3935631">
  <ele>-3.848</ele>
  <time>2026-09-01T01:14:52Z</time>
  <course>154.16</course>
  <speed>0.03</speed>
  <fix>3d</fix>
</trkpt>
<trkpt lat="33.810617" lon="-118.3935633">
  <ele>-3.35</ele>
  <time>2026-09-01T01:14:52Z</time>
  <course>70.75</course>
  <speed>0.01</speed>
  <fix>3d</fix>
</trkpt>
<trkpt lat="33.8106169" lon="-118.393563">
  <ele>-3.849</ele>
  <time>2026-09-01T01:14:52Z</time>
  <course>154.15</course>
  <speed>0.03</speed>
  <fix>3d</fix>
</trkpt>
<trkpt lat="33.810617" lon="-118.3935632">
  <ele>-3.36</ele>
  <time>2026-09-01T01:14:52Z</time>
  <course>70.94</course>
  <speed>0.01</speed>
  <fix>3d</fix>
</trkpt>
<trkpt lat="33.8106169" lon="-118.393563">
  <ele>-3.847</ele>
  <time>2026-09-01T01:14:52Z</time>
  <course>154.14</course>
  <speed>0.03</speed>
  <fix>3d</fix>
</trkpt>
<trkpt lat="33.810617" lon="-118.3935632">
  <ele>-3.36</ele>
  <time>2026-09-01T01:14:52Z</time>
  <course>70.94</course>
  <speed>0.01</speed>
  <fix>3d</fix>
</trkpt>
<trkpt lat="33.8106169" lon="-118.393563">
  <ele>-3.845</ele>
  <time>2026-09-01T01:14:52Z</time>
  <course>154.14</course>
  <speed>0.03</speed>
  <fix>3d</fix>
</trkpt>
<trkpt lat="33.810617" lon="-118.3935632">
  <ele>-3.37</ele>
  <time>2026-09-01T01:14:52Z</time>
  <course>71.2</course>
  <speed>0.01</speed>
  <fix>3d</fix>
</trkpt>
<trkpt lat="33.8106169" lon="-118.393563">
  <ele>-3.842</ele>
  <time>2026-09-01T01:14:52Z</time>
  <course>154.13</course>
  <speed>0.03</speed>
  <fix>3d</fix>
</trkpt>
<trkpt lat="33.810617" lon="-118.3935632">
  <ele>-3.37</ele>
  <time>2026-09-01T01:14:52Z</time>
  <course>71.2</course>
  <speed>0.01</speed>
  <fix>3d</fix>
</trkpt>
<trkpt lat="33.8106169" lon="-118.393563">
  <ele>-3.84</ele>
  <time>2026-09-01T01:14:52Z</time>
  <course>154.13</course>
  <speed>0.03</speed>
  <fix>3d</fix>
</trkpt>
<trkpt lat="33.810617" lon="-118.3935632">
  <ele>-3.36</ele>
  <time>2026-09-01T01:14:52Z</time>
  <course>71.39</course>
  <speed>0.01</speed>
  <fix>3d</fix>
</trkpt>
<trkpt lat="33.8106169" lon="-118.393563">
  <ele>-3.838</ele>
  <time>2026-09-01T01:14:52Z</time>
  <course>154.12</course>
  <speed>0.03</speed>
  <fix>3d</fix>
</trkpt>
<trkpt lat="33.810617" lon="-118.3935632">
  <ele>-3.36</ele>
  <time>2026-09-01T01:14:52Z</time>
  <course>71.39</course>
  <speed>0.01</speed>
  <fix>3d</fix>
</trkpt>
<trkpt lat="33.8106169" lon="-118.393563">
  <ele>-3.835</ele>
  <time>2026-09-01T01:14:52Z</time>
  <course>154.11</course>
  <speed>0.03</speed>
  <fix>3d</fix>
</trkpt>
<trkpt lat="33.810617" lon="-118.3935632">
  <ele>-3.36</ele>
  <time>2026-09-01T01:14:52Z</time>
  <course>71.53</course>
  <speed>0.01</speed>
  <fix>3d</fix>
</trkpt>
<trkpt lat="33.8106169" lon="-118.3935629">
  <ele>-3.833</ele>
  <time>2026-09-01T01:14:52Z</time>
  <course>154.11</course>
  <speed>0.03</speed>
  <fix>3d</fix>
</trkpt>
<trkpt lat="33.810617" lon="-118.3935632">
  <ele>-3.36</ele>
  <time>2026-09-01T01:14:52Z</time>
  <course>71.53</course>
  <speed>0.01</speed>
  <fix>3d</fix>
</trkpt>
<trkpt lat="33.8106169" lon="-118.3935629">
  <ele>-3.831</ele>
  <time>2026-09-01T01:14:52Z</time>
  <course>154.1</course>
  <speed>0.03</speed>
  <fix>3d</fix>
</trkpt>
<trkpt lat="33.810617" lon="-118.3935631">
  <ele>-3.36</ele>
  <time>2026-09-01T01:14:52Z</time>
  <course>71.67</course>
  <speed>0.01</speed>
  <fix>3d</fix>
</trkpt>
<trkpt lat="33.8106169" lon="-118.3935629">
  <ele>-3.831</ele>
  <time>2026-09-01T01:14:52Z</time>
  <course>154.09</course>
  <speed>0.03</speed>
  <fix>3d</fix>
</trkpt>
<trkpt lat="33.810617" lon="-118.3935631">
  <ele>-3.36</ele>
  <time>2026-09-01T01:14:52Z</time>
  <course>71.67</course>
  <speed>0.01</speed>
  <fix>3d</fix>
</trkpt>
<trkpt lat="33.8106169" lon="-118.3935629">
  <ele>-3.832</ele>
  <time>2026-09-01T01:14:52Z</time>
  <course>154.09</course>
  <speed>0.03</speed>
  <fix>3d</fix>
</trkpt>
<trkpt lat="33.810617" lon="-118.3935631">
  <ele>-3.35</ele>
  <time>2026-09-01T01:14:52Z</time>
  <course>71.84</course>
  <speed>0.01</speed>
  <fix>3d</fix>
</trkpt>
<trkpt lat="33.8106169" lon="-118.3935629">
  <ele>-3.832</ele>
  <time>2026-09-01T01:14:52Z</time>
  <course>154.08</course>
  <speed>0.03</speed>
  <fix>3d</fix>
</trkpt>
<trkpt lat="33.810617" lon="-118.3935631">
  <ele>-3.35</ele>
  <time>2026-09-01T01:14:52Z</time>
  <course>71.84</course>
  <speed>0.01</speed>
  <fix>3d</fix>
</trkpt>
<trkpt lat="33.8106169" lon="-118.3935629">
  <ele>-3.83</ele>
  <time>2026-09-01T01:14:52Z</time>
  <course>154.08</course>
  <speed>0.03</speed>
  <fix>3d</fix>
</trkpt>
<trkpt lat="33.810617" lon="-118.3935631">
  <ele>-3.35</ele>
  <time>2026-09-01T01:14:52Z</time>
  <course>72.06</course>
  <speed>0.01</speed>
  <fix>3d</fix>
</trkpt>
<trkpt lat="33.8106169" lon="-118.3935629">
  <ele>-3.828</ele>
  <time>2026-09-01T01:14:52Z</time>
  <course>154.07</course>
  <speed>0.03</speed>
  <fix>3d</fix>
</trkpt>
<trkpt lat="33.810617" lon="-118.3935631">
  <ele>-3.35</ele>
  <time>2026-09-01T01:14:52Z</time>
  <course>72.06</course>
  <speed>0.01</speed>
  <fix>3d</fix>
</trkpt>
<trkpt lat="33.8106169" lon="-118.3935629">
  <ele>-3.826</ele>
  <time>2026-09-01T01:14:52Z</time>
  <course>154.06</course>
  <speed>0.03</speed>
  <fix>3d</fix>
</trkpt>
<trkpt lat="33.810617" lon="-118.3935631">
  <ele>-3.35</ele>
  <time>2026-09-01T01:14:52Z</time>
  <course>72.31</course>
  <speed>0.01</speed>
  <fix>3d</fix>
</trkpt>
<trkpt lat="33.8106169" lon="-118.3935629">
  <ele>-3.826</ele>
  <time>2026-09-01T01:14:52Z</time>
  <course>154.06</course>
  <speed>0.03</speed>
  <fix>3d</fix>
</trkpt>
<trkpt lat="33.810617" lon="-118.3935631">
  <ele>-3.35</ele>
  <time>2026-09-01T01:14:52Z</time>
  <course>72.31</course>
  <speed>0.01</speed>
  <fix>3d</fix>
</trkpt>
<trkpt lat="33.8106169" lon="-118.3935628">
  <ele>-3.827</ele>
  <time>2026-09-01T01:14:52Z</time>
  <course>154.05</course>
  <speed>0.03</speed>
  <fix>3d</fix>
</trkpt>
<trkpt lat="33.810617" lon="-118.3935631">
  <ele>-3.35</ele>
  <time>2026-09-01T01:14:52Z</time>
  <course>72.54</course>
  <speed>0.01</speed>
  <fix>3d</fix>
</trkpt>
<trkpt lat="33.8106169" lon="-118.3935628">
  <ele>-3.828</ele>
  <time>2026-09-01T01:14:52Z</time>
  <course>154.05</course>
  <speed>0.03</speed>
  <fix>3d</fix>
</trkpt>
<trkpt lat="33.810617" lon="-118.3935631">
  <ele>-3.35</ele>
  <time>2026-09-01T01:14:52Z</time>
  <course>72.54</course>
  <speed>0.01</speed>
  <fix>3d</fix>
</trkpt>
<trkpt lat="33.8106169" lon="-118.3935628">
  <ele>-3.829</ele>
  <time>2026-09-01T01:14:52Z</time>
  <course>154.04</course>
  <speed>0.03</speed>
  <fix>3d</fix>
</trkpt>
<trkpt lat="33.810617" lon="-118.393563">
  <ele>-3.35</ele>
  <time>2026-09-01T01:14:52Z</time>
  <course>72.73</course>
  <speed>0.0</speed>
  <fix>3d</fix>
</trkpt>
<trkpt lat="33.8106169" lon="-118.3935628">
  <ele>-3.829</ele>
  <time>2026-09-01T01:14:52Z</time>
  <course>154.04</course>
  <speed>0.03</speed>
  <fix>3d</fix>
</trkpt>
<trkpt lat="33.810617" lon="-118.393563">
  <ele>-3.35</ele>
  <time>2026-09-01T01:14:52Z</time>
  <course>72.73</course>
  <speed>0.0</speed>
  <fix>3d</fix>
</trkpt>
<trkpt lat="33.8106169" lon="-118.3935628">
  <ele>-3.829</ele>
  <time>2026-09-01T01:14:52Z</time>
  <course>154.03</course>
  <speed>0.03</speed>
  <fix>3d</fix>
</trkpt>
<trkpt lat="33.810617" lon="-118.393563">
  <ele>-3.34</ele>
  <time>2026-09-01T01:14:52Z</time>
  <course>72.91</course>
  <speed>0.0</speed>
  <fix>3d</fix>
</trkpt>
<trkpt lat="33.8106169" lon="-118.3935628">
  <ele>-3.828</ele>
  <time>2026-09-01T01:14:52Z</time>
  <course>154.02</course>
  <speed>0.03</speed>
  <fix>3d</fix>
</trkpt>
<trkpt lat="33.810617" lon="-118.393563">
  <ele>-3.34</ele>
  <time>2026-09-01T01:14:52Z</time>
  <course>72.91</course>
  <speed>0.0</speed>
  <fix>3d</fix>
</trkpt>
<trkpt lat="33.8106169" lon="-118.3935628">
  <ele>-3.826</ele>
  <time>2026-09-01T01:14:52Z</time>
  <course>154.02</course>
  <speed>0.03</speed>
  <fix>3d</fix>
</trkpt>
<trkpt lat="33.810617" lon="-118.393563">
  <ele>-3.34</ele>
  <time>2026-09-01T01:14:52Z</time>
  <course>73.1</course>
  <speed>0.0</speed>
  <fix>3d</fix>
</trkpt>
<trkpt lat="33.8106169" lon="-118.3935628">
  <ele>-3.824</ele>
  <time>2026-09-01T01:14:52Z</time>
  <course>154.01</course>
  <speed>0.03</speed>
  <fix>3d</fix>
</trkpt>
<trkpt lat="33.810617" lon="-118.393563">
  <ele>-3.34</ele>
  <time>2026-09-01T01:14:52Z</time>
  <course>73.1</course>
  <speed>0.0</speed>
  <fix>3d</fix>
</trkpt>
<trkpt lat="33.8106169" lon="-118.3935628">
  <ele>-3.822</ele>
  <time>2026-09-01T01:14:52Z</time>
  <course>154.01</course>
  <speed>0.03</speed>
  <fix>3d</fix>
</trkpt>
<trkpt lat="33.8106171" lon="-118.393563">
  <ele>-3.34</ele>
  <time>2026-09-01T01:14:52Z</time>
  <course>73.35</course>
  <speed>0.0</speed>
  <fix>3d</fix>
</trkpt>
<trkpt lat="33.8106169" lon="-118.3935628">
  <ele>-3.82</ele>
  <time>2026-09-01T01:14:52Z</time>
  <course>154.0</course>
  <speed>0.03</speed>
  <fix>3d</fix>
</trkpt>
<trkpt lat="33.8106171" lon="-118.393563">
  <ele>-3.34</ele>
  <time>2026-09-01T01:14:52Z</time>
  <course>73.35</course>
  <speed>0.0</speed>
  <fix>3d</fix>
</trkpt>
<trkpt lat="33.8106169" lon="-118.3935628">
  <ele>-3.818</ele>
  <time>2026-09-01T01:14:52Z</time>
  <course>154.0</course>
  <speed>0.03</speed>
  <fix>3d</fix>
</trkpt>
<trkpt lat="33.8106171" lon="-118.393563">
  <ele>-3.33</ele>
  <time>2026-09-01T01:14:52Z</time>
  <course>73.63</course>
  <speed>0.0</speed>
  <fix>3d</fix>
</trkpt>
<trkpt lat="33.8106169" lon="-118.3935627">
  <ele>-3.818</ele>
  <time>2026-09-01T01:14:52Z</time>
  <course>153.99</course>
  <speed>0.03</speed>
  <fix>3d</fix>
</trkpt>
<trkpt lat="33.8106171" lon="-118.393563">
  <ele>-3.33</ele>
  <time>2026-09-01T01:14:52Z</time>
  <course>73.63</course>
  <speed>0.0</speed>
  <fix>3d</fix>
</trkpt>
<trkpt lat="33.8106169" lon="-118.3935627">
  <ele>-3.818</ele>
  <time>2026-09-01T01:14:52Z</time>
  <course>153.98</course>
  <speed>0.03</speed>
  <fix>3d</fix>
</trkpt>
<trkpt lat="33.8106171" lon="-118.3935629">
  <ele>-3.33</ele>
  <time>2026-09-01T01:14:52Z</time>
  <course>73.92</course>
  <speed>0.0</speed>
  <fix>3d</fix>
</trkpt>
<trkpt lat="33.8106169" lon="-118.3935627">
  <ele>-3.819</ele>
  <time>2026-09-01T01:14:52Z</time>
  <course>153.98</course>
  <speed>0.03</speed>
  <fix>3d</fix>
</trkpt>
<trkpt lat="33.8106171" lon="-118.3935629">
  <ele>-3.33</ele>
  <time>2026-09-01T01:14:52Z</time>
  <course>73.92</course>
  <speed>0.0</speed>
  <fix>3d</fix>
</trkpt>
<trkpt lat="33.8106169" lon="-118.3935627">
  <ele>-3.819</ele>
  <time>2026-09-01T01:14:52Z</time>
  <course>153.97</course>
  <speed>0.03</speed>
  <fix>3d</fix>
</trkpt>
<trkpt lat="33.8106171" lon="-118.3935629">
  <ele>-3.34</ele>
  <time>2026-09-01T01:14:52Z</time>
  <course>74.19</course>
  <speed>0.0</speed>
  <fix>3d</fix>
</trkpt>
<trkpt lat="33.8106169" lon="-118.3935627">
  <ele>-3.819</ele>
  <time>2026-09-01T01:14:52Z</time>
  <course>153.97</course>
  <speed>0.03</speed>
  <fix>3d</fix>
</trkpt>
<trkpt lat="33.8106171" lon="-118.3935629">
  <ele>-3.34</ele>
  <time>2026-09-01T01:14:52Z</time>
  <course>74.19</course>
  <speed>0.0</speed>
  <fix>3d</fix>
</trkpt>
<trkpt lat="33.8106169" lon="-118.3935627">
  <ele>-3.818</ele>
  <time>2026-09-01T01:14:52Z</time>
  <course>153.96</course>
  <speed>0.03</speed>
  <fix>3d</fix>
</trkpt>
<trkpt lat="33.8106171" lon="-118.3935629">
  <ele>-3.34</ele>
  <time>2026-09-01T01:14:52Z</time>
  <course>74.41</course>
  <speed>0.0</speed>
  <fix>3d</fix>
</trkpt>
<trkpt lat="33.8106169" lon="-118.3935627">
  <ele>-3.818</ele>
  <time>2026-09-01T01:14:52Z</time>
  <course>153.95</course>
  <speed>0.03</speed>
  <fix>3d</fix>
</trkpt>
<trkpt lat="33.8106171" lon="-118.3935629">
  <ele>-3.34</ele>
  <time>2026-09-01T01:14:52Z</time>
  <course>74.41</course>
  <speed>0.0</speed>
  <fix>3d</fix>
</trkpt>
<trkpt lat="33.810617" lon="-118.3935627">
  <ele>-3.819</ele>
  <time>2026-09-01T01:14:52Z</time>
  <course>153.95</course>
  <speed>0.03</speed>
  <fix>3d</fix>
</trkpt>
<trkpt lat="33.8106171" lon="-118.3935629">
  <ele>-3.34</ele>
  <time>2026-09-01T01:14:52Z</time>
  <course>74.63</course>
  <speed>0.0</speed>
  <fix>3d</fix>
</trkpt>
<trkpt lat="33.810617" lon="-118.3935627">
  <ele>-3.821</ele>
  <time>2026-09-01T01:14:52Z</time>
  <course>153.94</course>
  <speed>0.03</speed>
  <fix>3d</fix>
</trkpt>
<trkpt lat="33.8106171" lon="-118.3935629">
  <ele>-3.34</ele>
  <time>2026-09-01T01:14:52Z</time>
  <course>74.63</course>
  <speed>0.0</speed>
  <fix>3d</fix>
</trkpt>
<trkpt lat="33.810617" lon="-118.3935627">
  <ele>-3.823</ele>
  <time>2026-09-01T01:14:52Z</time>
  <course>153.94</course>
  <speed>0.03</speed>
  <fix>3d</fix>
</trkpt>
<trkpt lat="33.8106171" lon="-118.3935629">
  <ele>-3.35</ele>
  <time>2026-09-01T01:14:52Z</time>
  <course>74.89</course>
  <speed>0.0</speed>
  <fix>3d</fix>
</trkpt>
<trkpt lat="33.810617" lon="-118.3935627">
  <ele>-3.824</ele>
  <time>2026-09-01T01:14:52Z</time>
  <course>153.93</course>
  <speed>0.03</speed>
  <fix>3d</fix>
</trkpt>
<trkpt lat="33.8106171" lon="-118.3935629">
  <ele>-3.35</ele>
  <time>2026-09-01T01:14:52Z</time>
  <course>74.89</course>
  <speed>0.0</speed>
  <fix>3d</fix>
</trkpt>
<trkpt lat="33.810617" lon="-118.3935627">
  <ele>-3.825</ele>
  <time>2026-09-01T01:14:52Z</time>
  <course>153.93</course>
  <speed>0.03</speed>
  <fix>3d</fix>
</trkpt>
<trkpt lat="33.8106171" lon="-118.3935629">
  <ele>-3.35</ele>
  <time>2026-09-01T01:14:52Z</time>
  <course>75.25</course>
  <speed>0.0</speed>
  <fix>3d</fix>
</trkpt>
<trkpt lat="33.810617" lon="-118.3935627">
  <ele>-3.826</ele>
  <time>2026-09-01T01:14:52Z</time>
  <course>153.92</course>
  <speed>0.03</speed>
  <fix>3d</fix>
</trkpt>
<trkpt lat="33.8106171" lon="-118.3935629">
  <ele>-3.35</ele>
  <time>2026-09-01T01:14:52Z</time>
  <course>75.25</course>
  <speed>0.0</speed>
  <fix>3d</fix>
</trkpt>
<trkpt lat="33.810617" lon="-118.3935626">
  <ele>-3.827</ele>
  <time>2026-09-01T01:14:52Z</time>
  <course>153.91</course>
  <speed>0.03</speed>
  <fix>3d</fix>
</trkpt>
<trkpt lat="33.8106171" lon="-118.3935628">
  <ele>-3.35</ele>
  <time>2026-09-01T01:14:52Z</time>
  <course>75.68</course>
  <speed>0.0</speed>
  <fix>3d</fix>
</trkpt>
<trkpt lat="33.810617" lon="-118.3935626">
  <ele>-3.827</ele>
  <time>2026-09-01T01:14:52Z</time>
  <course>153.91</course>
  <speed>0.03</speed>
  <fix>3d</fix>
</trkpt>
<trkpt lat="33.8106171" lon="-118.3935628">
  <ele>-3.35</ele>
  <time>2026-09-01T01:14:52Z</time>
  <course>75.68</course>
  <speed>0.0</speed>
  <fix>3d</fix>
</trkpt>
<trkpt lat="33.810617" lon="-118.3935626">
  <ele>-3.826</ele>
  <time>2026-09-01T01:14:52Z</time>
  <course>153.9</course>
  <speed>0.03</speed>
  <fix>3d</fix>
</trkpt>
<trkpt lat="33.8106171" lon="-118.3935628">
  <ele>-3.35</ele>
  <time>2026-09-01T01:14:52Z</time>
  <course>76.1</course>
  <speed>0.0</speed>
  <fix>3d</fix>
</trkpt>
<trkpt lat="33.810617" lon="-118.3935626">
  <ele>-3.825</ele>
  <time>2026-09-01T01:14:52Z</time>
  <course>153.9</course>
  <speed>0.03</speed>
  <fix>3d</fix>
</trkpt>
<trkpt lat="33.8106171" lon="-118.3935628">
  <ele>-3.35</ele>
  <time>2026-09-01T01:14:52Z</time>
  <course>76.1</course>
  <speed>0.0</speed>
  <fix>3d</fix>
</trkpt>
<trkpt lat="33.810617" lon="-118.3935626">
  <ele>-3.823</ele>
  <time>2026-09-01T01:14:52Z</time>
  <course>153.89</course>
  <speed>0.03</speed>
  <fix>3d</fix>
</trkpt>
<trkpt lat="33.8106171" lon="-118.3935628">
  <ele>-3.35</ele>
  <time>2026-09-01T01:14:52Z</time>
  <course>76.44</course>
  <speed>0.0</speed>
  <fix>3d</fix>
</trkpt>
<trkpt lat="33.810617" lon="-118.3935626">
  <ele>-3.821</ele>
  <time>2026-09-01T01:14:52Z</time>
  <course>153.89</course>
  <speed>0.03</speed>
  <fix>3d</fix>
</trkpt>
<trkpt lat="33.8106171" lon="-118.3935628">
  <ele>-3.35</ele>
  <time>2026-09-01T01:14:52Z</time>
  <course>76.44</course>
  <speed>0.0</speed>
  <fix>3d</fix>
</trkpt>
<trkpt lat="33.810617" lon="-118.3935626">
  <ele>-3.821</ele>
  <time>2026-09-01T01:14:52Z</time>
  <course>153.88</course>
  <speed>0.03</speed>
  <fix>3d</fix>
</trkpt>
<trkpt lat="33.8106171" lon="-118.3935628">
  <ele>-3.35</ele>
  <time>2026-09-01T01:14:52Z</time>
  <course>76.75</course>
  <speed>0.0</speed>
  <fix>3d</fix>
</trkpt>
<trkpt lat="33.810617" lon="-118.3935626">
  <ele>-3.823</ele>
  <time>2026-09-01T01:14:52Z</time>
  <course>153.88</course>
  <speed>0.03</speed>
  <fix>3d</fix>
</trkpt>
<trkpt lat="33.8106171" lon="-118.3935628">
  <ele>-3.35</ele>
  <time>2026-09-01T01:14:52Z</time>
  <course>76.75</course>
  <speed>0.0</speed>
  <fix>3d</fix>
</trkpt>
<trkpt lat="33.810617" lon="-118.3935626">
  <ele>-3.824</ele>
  <time>2026-09-01T01:14:52Z</time>
  <course>153.87</course>
  <speed>0.03</speed>
  <fix>3d</fix>
</trkpt>
<trkpt lat="33.8106171" lon="-118.3935628">
  <ele>-3.35</ele>
  <time>2026-09-01T01:14:52Z</time>
  <course>77.09</course>
  <speed>0.0</speed>
  <fix>3d</fix>
</trkpt>
<trkpt lat="33.810617" lon="-118.3935626">
  <ele>-3.822</ele>
  <time>2026-09-01T01:14:52Z</time>
  <course>153.87</course>
  <speed>0.03</speed>
  <fix>3d</fix>
</trkpt>
<trkpt lat="33.8106171" lon="-118.3935628">
  <ele>-3.35</ele>
  <time>2026-09-01T01:14:52Z</time>
  <course>77.09</course>
  <speed>0.0</speed>
  <fix>3d</fix>
</trkpt>
<trkpt lat="33.810617" lon="-118.3935626">
  <ele>-3.814</ele>
  <time>2026-09-01T01:14:52Z</time>
  <course>153.86</course>
  <speed>0.03</speed>
  <fix>3d</fix>
</trkpt>
<trkpt lat="33.8106171" lon="-118.3935628">
  <ele>-3.35</ele>
  <time>2026-09-01T01:14:52Z</time>
  <course>77.47</course>
  <speed>0.0</speed>
  <fix>3d</fix>
</trkpt>
<trkpt lat="33.810617" lon="-118.3935626">
  <ele>-3.81</ele>
  <time>2026-09-01T01:14:52Z</time>
  <course>153.86</course>
  <speed>0.03</speed>
  <fix>3d</fix>
</trkpt>
<trkpt lat="33.8106171" lon="-118.3935628">
  <ele>-3.35</ele>
  <time>2026-09-01T01:14:52Z</time>
  <course>77.47</course>
  <speed>0.0</speed>
  <fix>3d</fix>
</trkpt>
<trkpt lat="33.810617" lon="-118.3935626">
  <ele>-3.822</ele>
  <time>2026-09-01T01:14:52Z</time>
  <course>153.85</course>
  <speed>0.03</speed>
  <fix>3d</fix>
</trkpt>
<trkpt lat="33.8106171" lon="-118.3935628">
  <ele>-3.34</ele>
  <time>2026-09-01T01:14:52Z</time>
  <course>77.17</course>
  <speed>0.0</speed>
  <fix>3d</fix>
</trkpt>
<trkpt lat="33.810617" lon="-118.3935626">
  <ele>-3.855</ele>
  <time>2026-09-01T01:14:52Z</time>
  <course>153.85</course>
  <speed>0.03</speed>
  <fix>3d</fix>
</trkpt>
<trkpt lat="33.8106171" lon="-118.3935628">
  <ele>-3.34</ele>
  <time>2026-09-01T01:14:52Z</time>
  <course>77.17</course>
  <speed>0.0</speed>
  <fix>3d</fix>
</trkpt>
<trkpt lat="33.810617" lon="-118.3935626">
  <ele>-3.855</ele>
  <time>2026-09-01T01:14:52Z</time>
  <course>153.84</course>
  <speed>0.03</speed>
  <fix>3d</fix>
</trkpt>
<trkpt lat="33.810617" lon="-118.3935626">
  <ele>-3.899</ele>
  <time>2026-09-01T01:14:52Z</time>
  <course>153.84</course>
  <speed>0.03</speed>
  <fix>3d</fix>
</trkpt>
<trkpt lat="33.8106171" lon="-118.3935628">
  <ele>-3.36</ele>
  <time>2026-09-01T01:14:52Z</time>
  <course>75.86</course>
  <speed>0.0</speed>
  <fix>3d</fix>
</trkpt>
<trkpt lat="33.810617" lon="-118.3935626">
  <ele>-3.9</ele>
  <time>2026-09-01T01:14:52Z</time>
  <course>153.84</course>
  <speed>0.03</speed>
  <fix>3d</fix>
</trkpt>
<trkpt lat="33.810617" lon="-118.3935626">
  <ele>-3.952</ele>
  <time>2026-09-01T01:14:52Z</time>
  <course>153.83</course>
  <speed>0.03</speed>
  <fix>3d</fix>
</trkpt>
<trkpt lat="33.8106171" lon="-118.3935628">
  <ele>-3.36</ele>
  <time>2026-09-01T01:14:52Z</time>
  <course>75.86</course>
  <speed>0.0</speed>
  <fix>3d</fix>
</trkpt>
<trkpt lat="33.810617" lon="-118.3935626">
  <ele>-3.97</ele>
  <time>2026-09-01T01:14:52Z</time>
  <course>153.83</course>
  <speed>0.03</speed>
  <fix>3d</fix>
</trkpt>
<trkpt lat="33.810617" lon="-118.3935625">
  <ele>-4.011</ele>
  <time>2026-09-01T01:14:52Z</time>
  <course>153.83</course>
  <speed>0.03</speed>
  <fix>3d</fix>
</trkpt>
<trkpt lat="33.8106171" lon="-118.3935627">
  <ele>-3.44</ele>
  <time>2026-09-01T01:14:52Z</time>
  <course>74.75</course>
  <speed>0.0</speed>
  <fix>3d</fix>
</trkpt>
<trkpt lat="33.810617" lon="-118.3935625">
  <ele>-4.03</ele>
  <time>2026-09-01T01:14:52Z</time>
  <course>153.83</course>
  <speed>0.03</speed>
  <fix>3d</fix>
</trkpt>
<trkpt lat="33.810617" lon="-118.3935625">
  <ele>-4.074</ele>
  <time>2026-09-01T01:14:52Z</time>
  <course>153.82</course>
  <speed>0.03</speed>
  <fix>3d</fix>
</trkpt>
<trkpt lat="33.8106171" lon="-118.3935627">
  <ele>-3.44</ele>
  <time>2026-09-01T01:14:52Z</time>
  <course>74.75</course>
  <speed>0.0</speed>
  <fix>3d</fix>
</trkpt>
<trkpt lat="33.810617" lon="-118.3935625">
  <ele>-4.093</ele>
  <time>2026-09-01T01:14:52Z</time>
  <course>153.82</course>
  <speed>0.03</speed>
  <fix>3d</fix>
</trkpt>
<trkpt lat="33.810617" lon="-118.3935625">
  <ele>-4.141</ele>
  <time>2026-09-01T01:14:52Z</time>
  <course>153.82</course>
  <speed>0.03</speed>
  <fix>3d</fix>
</trkpt>
<trkpt lat="33.8106171" lon="-118.3935627">
  <ele>-3.54</ele>
  <time>2026-09-01T01:14:52Z</time>
  <course>74.29</course>
  <speed>0.0</speed>
  <fix>3d</fix>
</trkpt>
<trkpt lat="33.810617" lon="-118.3935625">
  <ele>-4.142</ele>
  <time>2026-09-01T01:14:52Z</time>
  <course>153.82</course>
  <speed>0.03</speed>
  <fix>3d</fix>
</trkpt>
<trkpt lat="33.810617" lon="-118.3935625">
  <ele>-4.209</ele>
  <time>2026-09-01T01:14:52Z</time>
  <course>153.81</course>
  <speed>0.03</speed>
  <fix>3d</fix>
</trkpt>
<trkpt lat="33.8106171" lon="-118.3935627">
  <ele>-3.54</ele>
  <time>2026-09-01T01:14:52Z</time>
  <course>74.29</course>
  <speed>0.0</speed>
  <fix>3d</fix>
</trkpt>
<trkpt lat="33.810617" lon="-118.3935625">
  <ele>-4.23</ele>
  <time>2026-09-01T01:14:52Z</time>
  <course>153.81</course>
  <speed>0.03</speed>
  <fix>3d</fix>
</trkpt>
<trkpt lat="33.810617" lon="-118.3935625">
  <ele>-4.277</ele>
  <time>2026-09-01T01:14:52Z</time>
  <course>153.81</course>
  <speed>0.03</speed>
  <fix>3d</fix>
</trkpt>
<trkpt lat="33.8106171" lon="-118.3935627">
  <ele>-3.66</ele>
  <time>2026-09-01T01:14:52Z</time>
  <course>74.07</course>
  <speed>0.0</speed>
  <fix>3d</fix>
</trkpt>
<trkpt lat="33.810617" lon="-118.3935625">
  <ele>-4.299</ele>
  <time>2026-09-01T01:14:52Z</time>
  <course>153.81</course>
  <speed>0.03</speed>
  <fix>3d</fix>
</trkpt>
<trkpt lat="33.810617" lon="-118.3935625">
  <ele>-4.347</ele>
  <time>2026-09-01T01:14:52Z</time>
  <course>153.8</course>
  <speed>0.03</speed>
  <fix>3d</fix>
</trkpt>
<trkpt lat="33.8106171" lon="-118.3935627">
  <ele>-3.66</ele>
  <time>2026-09-01T01:14:52Z</time>
  <course>74.07</course>
  <speed>0.0</speed>
  <fix>3d</fix>
</trkpt>
<trkpt lat="33.810617" lon="-118.3935625">
  <ele>-4.369</ele>
  <time>2026-09-01T01:14:52Z</time>
  <course>153.8</course>
  <speed>0.03</speed>
  <fix>3d</fix>
</trkpt>
<trkpt lat="33.810617" lon="-118.3935625">
  <ele>-4.417</ele>
  <time>2026-09-01T01:14:52Z</time>
  <course>153.8</course>
  <speed>0.03</speed>
  <fix>3d</fix>
</trkpt>
<trkpt lat="33.8106171" lon="-118.3935627">
  <ele>-3.79</ele>
  <time>2026-09-01T01:14:52Z</time>
  <course>73.91</course>
  <speed>0.0</speed>
  <fix>3d</fix>
</trkpt>
<trkpt lat="33.810617" lon="-118.3935625">
  <ele>-4.437</ele>
  <time>2026-09-01T01:14:52Z</time>
  <course>153.8</course>
  <speed>0.03</speed>
  <fix>3d</fix>
</trkpt>
<trkpt lat="33.810617" lon="-118.3935625">
  <ele>-4.486</ele>
  <time>2026-09-01T01:14:52Z</time>
  <course>153.79</course>
  <speed>0.03</speed>
  <fix>3d</fix>
</trkpt>
<trkpt lat="33.8106171" lon="-118.3935627">
  <ele>-3.79</ele>
  <time>2026-09-01T01:14:52Z</time>
  <course>73.91</course>
  <speed>0.0</speed>
  <fix>3d</fix>
</trkpt>
<trkpt lat="33.810617" lon="-118.3935625">
  <ele>-4.508</ele>
  <time>2026-09-01T01:14:52Z</time>
  <course>153.79</course>
  <speed>0.03</speed>
  <fix>3d</fix>
</trkpt>
<trkpt lat="33.810617" lon="-118.3935625">
  <ele>-4.556</ele>
  <time>2026-09-01T01:14:52Z</time>
  <course>153.79</course>
  <speed>0.03</speed>
  <fix>3d</fix>
</trkpt>
<trkpt lat="33.8106171" lon="-118.3935627">
  <ele>-3.91</ele>
  <time>2026-09-01T01:14:52Z</time>
  <course>73.72</course>
  <speed>0.0</speed>
  <fix>3d</fix>
</trkpt>
<trkpt lat="33.810617" lon="-118.3935625">
  <ele>-4.576</ele>
  <time>2026-09-01T01:14:52Z</time>
  <course>153.79</course>
  <speed>0.03</speed>
  <fix>3d</fix>
</trkpt>
<trkpt lat="33.810617" lon="-118.3935625">
  <ele>-4.623</ele>
  <time>2026-09-01T01:14:52Z</time>
  <course>153.78</course>
  <speed>0.03</speed>
  <fix>3d</fix>
</trkpt>
<trkpt lat="33.8106171" lon="-118.3935627">
  <ele>-3.91</ele>
  <time>2026-09-01T01:14:52Z</time>
  <course>73.72</course>
  <speed>0.0</speed>
  <fix>3d</fix>
</trkpt>
<trkpt lat="33.810617" lon="-118.3935625">
  <ele>-4.624</ele>
  <time>2026-09-01T01:14:52Z</time>
  <course>153.78</course>
  <speed>0.03</speed>
  <fix>3d</fix>
</trkpt>
<trkpt lat="33.810617" lon="-118.3935625">
  <ele>-4.689</ele>
  <time>2026-09-01T01:14:52Z</time>
  <course>153.78</course>
  <speed>0.03</speed>
  <fix>3d</fix>
</trkpt>
<trkpt lat="33.8106171" lon="-118.3935627">
  <ele>-4.04</ele>
  <time>2026-09-01T01:14:52Z</time>
  <course>73.51</course>
  <speed>0.0</speed>
  <fix>3d</fix>
</trkpt>
<trkpt lat="33.810617" lon="-118.3935625">
  <ele>-4.709</ele>
  <time>2026-09-01T01:14:52Z</time>
  <course>153.78</course>
  <speed>0.03</speed>
  <fix>3d</fix>
</trkpt>
<trkpt lat="33.810617" lon="-118.3935625">
  <ele>-4.755</ele>
  <time>2026-09-01T01:14:52Z</time>
  <course>153.77</course>
  <speed>0.03</speed>
  <fix>3d</fix>
</trkpt>
<trkpt lat="33.8106171" lon="-118.3935627">
  <ele>-4.04</ele>
  <time>2026-09-01T01:14:52Z</time>
  <course>73.51</course>
  <speed>0.0</speed>
  <fix>3d</fix>
</trkpt>
<trkpt lat="33.810617" lon="-118.3935625">
  <ele>-4.777</ele>
  <time>2026-09-01T01:14:52Z</time>
  <course>153.77</course>
  <speed>0.03</speed>
  <fix>3d</fix>
</trkpt>
<trkpt lat="33.810617" lon="-118.3935624">
  <ele>-4.823</ele>
  <time>2026-09-01T01:14:52Z</time>
  <course>153.77</course>
  <speed>0.03</speed>
  <fix>3d</fix>
</trkpt>
<trkpt lat="33.8106171" lon="-118.3935626">
  <ele>-4.16</ele>
  <time>2026-09-01T01:14:52Z</time>
  <course>73.29</course>
  <speed>0.0</speed>
  <fix>3d</fix>
</trkpt>
<trkpt lat="33.810617" lon="-118.3935624">
  <ele>-4.844</ele>
  <time>2026-09-01T01:14:52Z</time>
  <course>153.77</course>
  <speed>0.03</speed>
  <fix>3d</fix>
</trkpt>
<trkpt lat="33.810617" lon="-118.3935624">
  <ele>-4.889</ele>
  <time>2026-09-01T01:14:52Z</time>
  <course>153.76</course>
  <speed>0.03</speed>
  <fix>3d</fix>
</trkpt>
<trkpt lat="33.8106171" lon="-118.3935626">
  <ele>-4.16</ele>
  <time>2026-09-01T01:14:52Z</time>
  <course>73.29</course>
  <speed>0.0</speed>
  <fix>3d</fix>
</trkpt>
<trkpt lat="33.810617" lon="-118.3935624">
  <ele>-4.908</ele>
  <time>2026-09-01T01:14:52Z</time>
  <course>153.76</course>
  <speed>0.03</speed>
  <fix>3d</fix>
</trkpt>
<trkpt lat="33.810617" lon="-118.3935624">
  <ele>-4.954</ele>
  <time>2026-09-01T01:14:52Z</time>
  <course>153.76</course>
  <speed>0.03</speed>
  <fix>3d</fix>
</trkpt>
<trkpt lat="33.8106171" lon="-118.3935626">
  <ele>-4.27</ele>
  <time>2026-09-01T01:14:52Z</time>
  <course>73.13</course>
  <speed>0.0</speed>
  <fix>3d</fix>
</trkpt>
<trkpt lat="33.810617" lon="-118.3935624">
  <ele>-4.976</ele>
  <time>2026-09-01T01:14:52Z</time>
  <course>153.76</course>
  <speed>0.03</speed>
  <fix>3d</fix>
</trkpt>
<trkpt lat="33.810617" lon="-118.3935624">
  <ele>-5.019</ele>
  <time>2026-09-01T01:14:52Z</time>
  <course>153.75</course>
  <speed>0.03</speed>
  <fix>3d</fix>
</trkpt>
<trkpt lat="33.8106171" lon="-118.3935626">
  <ele>-4.27</ele>
  <time>2026-09-01T01:14:52Z</time>
  <course>73.13</course>
  <speed>0.0</speed>
  <fix>3d</fix>
</trkpt>
<trkpt lat="33.810617" lon="-118.3935624">
  <ele>-5.041</ele>
  <time>2026-09-01T01:14:52Z</time>
  <course>153.75</course>
  <speed>0.03</speed>
  <fix>3d</fix>
</trkpt>
<trkpt lat="33.810617" lon="-118.3935624">
  <ele>-5.084</ele>
  <time>2026-09-01T01:14:52Z</time>
  <course>153.75</course>
  <speed>0.03</speed>
  <fix>3d</fix>
</trkpt>
<trkpt lat="33.8106171" lon="-118.3935626">
  <ele>-4.4</ele>
  <time>2026-09-01T01:14:52Z</time>
  <course>73.02</course>
  <speed>0.0</speed>
  <fix>3d</fix>
</trkpt>
<trkpt lat="33.810617" lon="-118.3935624">
  <ele>-5.105</ele>
  <time>2026-09-01T01:14:52Z</time>
  <course>153.74</course>
  <speed>0.03</speed>
  <fix>3d</fix>
</trkpt>
<trkpt lat="33.810617" lon="-118.3935624">
  <ele>-5.151</ele>
  <time>2026-09-01T01:14:52Z</time>
  <course>153.74</course>
  <speed>0.03</speed>
  <fix>3d</fix>
</trkpt>
<trkpt lat="33.8106171" lon="-118.3935626">
  <ele>-4.4</ele>
  <time>2026-09-01T01:14:52Z</time>
  <course>73.02</course>
  <speed>0.0</speed>
  <fix>3d</fix>
</trkpt>
<trkpt lat="33.810617" lon="-118.3935624">
  <ele>-5.172</ele>
  <time>2026-09-01T01:14:52Z</time>
  <course>153.74</course>
  <speed>0.03</speed>
  <fix>3d</fix>
</trkpt>
<trkpt lat="33.810617" lon="-118.3935624">
  <ele>-5.217</ele>
  <time>2026-09-01T01:14:52Z</time>
  <course>153.74</course>
  <speed>0.03</speed>
  <fix>3d</fix>
</trkpt>
<trkpt lat="33.8106171" lon="-118.3935626">
  <ele>-4.53</ele>
  <time>2026-09-01T01:14:52Z</time>
  <course>72.93</course>
  <speed>0.0</speed>
  <fix>3d</fix>
</trkpt>
<trkpt lat="33.810617" lon="-118.3935624">
  <ele>-5.237</ele>
  <time>2026-09-01T01:14:52Z</time>
  <course>153.73</course>
  <speed>0.03</speed>
  <fix>3d</fix>
</trkpt>
<trkpt lat="33.810617" lon="-118.3935624">
  <ele>-5.285</ele>
  <time>2026-09-01T01:14:52Z</time>
  <course>153.73</course>
  <speed>0.03</speed>
  <fix>3d</fix>
</trkpt>
<trkpt lat="33.8106171" lon="-118.3935626">
  <ele>-4.53</ele>
  <time>2026-09-01T01:14:52Z</time>
  <course>72.93</course>
  <speed>0.0</speed>
  <fix>3d</fix>
</trkpt>
<trkpt lat="33.810617" lon="-118.3935624">
  <ele>-5.305</ele>
  <time>2026-09-01T01:14:52Z</time>
  <course>153.73</course>
  <speed>0.03</speed>
  <fix>3d</fix>
</trkpt>
<trkpt lat="33.810617" lon="-118.3935624">
  <ele>-5.353</ele>
  <time>2026-09-01T01:14:52Z</time>
  <course>153.73</course>
  <speed>0.03</speed>
  <fix>3d</fix>
</trkpt>
<trkpt lat="33.8106171" lon="-118.3935626">
  <ele>-4.66</ele>
  <time>2026-09-01T01:14:52Z</time>
  <course>72.8</course>
  <speed>0.0</speed>
  <fix>3d</fix>
</trkpt>
<trkpt lat="33.810617" lon="-118.3935624">
  <ele>-5.354</ele>
  <time>2026-09-01T01:14:52Z</time>
  <course>153.73</course>
  <speed>0.03</speed>
  <fix>3d</fix>
</trkpt>
<trkpt lat="33.810617" lon="-118.3935624">
  <ele>-5.422</ele>
  <time>2026-09-01T01:14:52Z</time>
  <course>153.72</course>
  <speed>0.03</speed>
  <fix>3d</fix>
</trkpt>
<trkpt lat="33.8106171" lon="-118.3935626">
  <ele>-4.66</ele>
  <time>2026-09-01T01:14:52Z</time>
  <course>72.8</course>
  <speed>0.0</speed>
  <fix>3d</fix>
</trkpt>
<trkpt lat="33.810617" lon="-118.3935624">
  <ele>-5.444</ele>
  <time>2026-09-01T01:14:52Z</time>
  <course>153.72</course>
  <speed>0.03</speed>
  <fix>3d</fix>
</trkpt>
<trkpt lat="33.810617" lon="-118.3935624">
  <ele>-5.49</ele>
  <time>2026-09-01T01:14:52Z</time>
  <course>153.72</course>
  <speed>0.03</speed>
  <fix>3d</fix>
</trkpt>
<trkpt lat="33.8106171" lon="-118.3935625">
  <ele>-4.79</ele>
  <time>2026-09-01T01:14:52Z</time>
  <course>72.64</course>
  <speed>0.0</speed>
  <fix>3d</fix>
</trkpt>
<trkpt lat="33.810617" lon="-118.3935623">
  <ele>-5.512</ele>
  <time>2026-09-01T01:14:52Z</time>
  <course>153.71</course>
  <speed>0.03</speed>
  <fix>3d</fix>
</trkpt>
<trkpt lat="33.810617" lon="-118.3935623">
  <ele>-5.558</ele>
  <time>2026-09-01T01:14:52Z</time>
  <course>153.71</course>
  <speed>0.03</speed>
  <fix>3d</fix>
</trkpt>
<trkpt lat="33.8106171" lon="-118.3935625">
  <ele>-4.79</ele>
  <time>2026-09-01T01:14:52Z</time>
  <course>72.64</course>
  <speed>0.0</speed>
  <fix>3d</fix>
</trkpt>
<trkpt lat="33.810617" lon="-118.3935623">
  <ele>-5.622</ele>
  <time>2026-09-01T01:14:52Z</time>
  <course>153.71</course>
  <speed>0.03</speed>
  <fix>3d</fix>
</trkpt>
<trkpt lat="33.8106171" lon="-118.3935625">
  <ele>-4.92</ele>
  <time>2026-09-01T01:14:52Z</time>
  <course>72.47</course>
  <speed>0.0</speed>
  <fix>3d</fix>
</trkpt>
<trkpt lat="33.810617" lon="-118.3935623">
  <ele>-5.676</ele>
  <time>2026-09-01T01:14:52Z</time>
  <course>153.7</course>
  <speed>0.03</speed>
  <fix>3d</fix>
</trkpt>
<trkpt lat="33.8106171" lon="-118.3935625">
  <ele>-4.92</ele>
  <time>2026-09-01T01:14:52Z</time>
  <course>72.47</course>
  <speed>0.0</speed>
  <fix>3d</fix>
</trkpt>
<trkpt lat="33.810617" lon="-118.3935623">
  <ele>-5.716</ele>
  <time>2026-09-01T01:14:52Z</time>
  <course>153.7</course>
  <speed>0.03</speed>
  <fix>3d</fix>
</trkpt>
<trkpt lat="33.8106171" lon="-118.3935625">
  <ele>-5.04</ele>
  <time>2026-09-01T01:14:52Z</time>
  <course>72.49</course>
  <speed>0.0</speed>
  <fix>3d</fix>
</trkpt>
<trkpt lat="33.810617" lon="-118.3935623">
  <ele>-5.742</ele>
  <time>2026-09-01T01:14:52Z</time>
  <course>153.69</course>
  <speed>0.03</speed>
  <fix>3d</fix>
</trkpt>
<trkpt lat="33.8106171" lon="-118.3935625">
  <ele>-5.04</ele>
  <time>2026-09-01T01:14:52Z</time>
  <course>72.49</course>
  <speed>0.0</speed>
  <fix>3d</fix>
</trkpt>
<trkpt lat="33.810617" lon="-118.3935623">
  <ele>-5.76</ele>
  <time>2026-09-01T01:14:52Z</time>
  <course>153.69</course>
  <speed>0.03</speed>
  <fix>3d</fix>
</trkpt>
<trkpt lat="33.8106171" lon="-118.3935625">
  <ele>-5.13</ele>
  <time>2026-09-01T01:14:52Z</time>
  <course>72.65</course>
  <speed>0.0</speed>
  <fix>3d</fix>
</trkpt>
<trkpt lat="33.810617" lon="-118.3935623">
  <ele>-5.772</ele>
  <time>2026-09-01T01:14:52Z</time>
  <course>153.68</course>
  <speed>0.03</speed>
  <fix>3d</fix>
</trkpt>
<trkpt lat="33.8106171" lon="-118.3935625">
  <ele>-5.13</ele>
  <time>2026-09-01T01:14:52Z</time>
  <course>72.65</course>
  <speed>0.0</speed>
  <fix>3d</fix>
</trkpt>
<trkpt lat="33.810617" lon="-118.3935623">
  <ele>-5.778</ele>
  <time>2026-09-01T01:14:52Z</time>
  <course>153.68</course>
  <speed>0.03</speed>
  <fix>3d</fix>
</trkpt>
<trkpt lat="33.8106171" lon="-118.3935625">
  <ele>-5.17</ele>
  <time>2026-09-01T01:14:52Z</time>
  <course>72.76</course>
  <speed>0.0</speed>
  <fix>3d</fix>
</trkpt>
<trkpt lat="33.810617" lon="-118.3935623">
  <ele>-5.781</ele>
  <time>2026-09-01T01:14:52Z</time>
  <course>153.67</course>
  <speed>0.03</speed>
  <fix>3d</fix>
</trkpt>
<trkpt lat="33.8106171" lon="-118.3935625">
  <ele>-5.17</ele>
  <time>2026-09-01T01:14:52Z</time>
  <course>72.76</course>
  <speed>0.0</speed>
  <fix>3d</fix>
</trkpt>
<trkpt lat="33.810617" lon="-118.3935622">
  <ele>-5.782</ele>
  <time>2026-09-01T01:14:52Z</time>
  <course>153.67</course>
  <speed>0.03</speed>
  <fix>3d</fix>
</trkpt>
<trkpt lat="33.8106171" lon="-118.3935625">
  <ele>-5.2</ele>
  <time>2026-09-01T01:14:52Z</time>
  <course>72.81</course>
  <speed>0.0</speed>
  <fix>3d</fix>
</trkpt>
<trkpt lat="33.810617" lon="-118.3935622">
  <ele>-5.783</ele>
  <time>2026-09-01T01:14:52Z</time>
  <course>153.66</course>
  <speed>0.03</speed>
  <fix>3d</fix>
</trkpt>
<trkpt lat="33.8106171" lon="-118.3935625">
  <ele>-5.2</ele>
  <time>2026-09-01T01:14:52Z</time>
  <course>72.81</course>
  <speed>0.0</speed>
  <fix>3d</fix>
</trkpt>
<trkpt lat="33.810617" lon="-118.3935622">
  <ele>-5.784</ele>
  <time>2026-09-01T01:14:52Z</time>
  <course>153.66</course>
  <speed>0.03</speed>
  <fix>3d</fix>
</trkpt>
<trkpt lat="33.8106171" lon="-118.3935624">
  <ele>-5.21</ele>
  <time>2026-09-01T01:14:52Z</time>
  <course>72.79</course>
  <speed>0.0</speed>
  <fix>3d</fix>
</trkpt>
<trkpt lat="33.810617" lon="-118.3935622">
  <ele>-5.785</ele>
  <time>2026-09-01T01:14:52Z</time>
  <course>153.67</course>
  <speed>0.03</speed>
  <fix>3d</fix>
</trkpt>
<trkpt lat="33.8106171" lon="-118.3935624">
  <ele>-5.21</ele>
  <time>2026-09-01T01:14:52Z</time>
  <course>72.79</course>
  <speed>0.0</speed>
  <fix>3d</fix>
</trkpt>
<trkpt lat="33.810617" lon="-118.3935622">
  <ele>-5.786</ele>
  <time>2026-09-01T01:14:52Z</time>
  <course>153.69</course>
  <speed>0.03</speed>
  <fix>3d</fix>
</trkpt>
<trkpt lat="33.8106171" lon="-118.3935624">
  <ele>-5.22</ele>
  <time>2026-09-01T01:14:52Z</time>
  <course>72.68</course>
  <speed>0.0</speed>
  <fix>3d</fix>
</trkpt>
<trkpt lat="33.810617" lon="-118.3935622">
  <ele>-5.785</ele>
  <time>2026-09-01T01:14:52Z</time>
  <course>153.71</course>
  <speed>0.03</speed>
  <fix>3d</fix>
</trkpt>
<trkpt lat="33.8106171" lon="-118.3935624">
  <ele>-5.22</ele>
  <time>2026-09-01T01:14:52Z</time>
  <course>72.68</course>
  <speed>0.0</speed>
  <fix>3d</fix>
</trkpt>
<trkpt lat="33.810617" lon="-118.3935622">
  <ele>-5.784</ele>
  <time>2026-09-01T01:14:52Z</time>
  <course>153.73</course>
  <speed>0.03</speed>
  <fix>3d</fix>
</trkpt>
<trkpt lat="33.8106171" lon="-118.3935624">
  <ele>-5.23</ele>
  <time>2026-09-01T01:14:52Z</time>
  <course>72.54</course>
  <speed>0.0</speed>
  <fix>3d</fix>
</trkpt>
<trkpt lat="33.810617" lon="-118.3935622">
  <ele>-5.783</ele>
  <time>2026-09-01T01:14:52Z</time>
  <course>153.76</course>
  <speed>0.03</speed>
  <fix>3d</fix>
</trkpt>
<trkpt lat="33.8106171" lon="-118.3935624">
  <ele>-5.23</ele>
  <time>2026-09-01T01:14:52Z</time>
  <course>72.54</course>
  <speed>0.0</speed>
  <fix>3d</fix>
</trkpt>
<trkpt lat="33.810617" lon="-118.3935622">
  <ele>-5.783</ele>
  <time>2026-09-01T01:14:52Z</time>
  <course>153.78</course>
  <speed>0.03</speed>
  <fix>3d</fix>
</trkpt>
<trkpt lat="33.8106171" lon="-118.3935624">
  <ele>-5.23</ele>
  <time>2026-09-01T01:14:52Z</time>
  <course>72.45</course>
  <speed>0.0</speed>
  <fix>3d</fix>
</trkpt>
<trkpt lat="33.810617" lon="-118.3935622">
  <ele>-5.785</ele>
  <time>2026-09-01T01:14:52Z</time>
  <course>153.8</course>
  <speed>0.03</speed>
  <fix>3d</fix>
</trkpt>
<trkpt lat="33.8106171" lon="-118.3935624">
  <ele>-5.23</ele>
  <time>2026-09-01T01:14:52Z</time>
  <course>72.45</course>
  <speed>0.0</speed>
  <fix>3d</fix>
</trkpt>
<trkpt lat="33.810617" lon="-118.3935622">
  <ele>-5.787</ele>
  <time>2026-09-01T01:14:52Z</time>
  <course>153.82</course>
  <speed>0.03</speed>
  <fix>3d</fix>
</trkpt>
<trkpt lat="33.8106171" lon="-118.3935624">
  <ele>-5.24</ele>
  <time>2026-09-01T01:14:52Z</time>
  <course>72.4</course>
  <speed>0.0</speed>
  <fix>3d</fix>
</trkpt>
<trkpt lat="33.810617" lon="-118.3935621">
  <ele>-5.79</ele>
  <time>2026-09-01T01:14:52Z</time>
  <course>153.85</course>
  <speed>0.03</speed>
  <fix>3d</fix>
</trkpt>
<trkpt lat="33.8106171" lon="-118.3935624">
  <ele>-5.24</ele>
  <time>2026-09-01T01:14:52Z</time>
  <course>72.4</course>
  <speed>0.0</speed>
  <fix>3d</fix>
</trkpt>
<trkpt lat="33.810617" lon="-118.3935621">
  <ele>-5.792</ele>
  <time>2026-09-01T01:14:52Z</time>
  <course>153.87</course>
  <speed>0.03</speed>
  <fix>3d</fix>
</trkpt>
<trkpt lat="33.8106171" lon="-118.3935623">
  <ele>-5.25</ele>
  <time>2026-09-01T01:14:52Z</time>
  <course>72.39</course>
  <speed>0.0</speed>
  <fix>3d</fix>
</trkpt>
<trkpt lat="33.810617" lon="-118.3935621">
  <ele>-5.793</ele>
  <time>2026-09-01T01:14:52Z</time>
  <course>153.89</course>
  <speed>0.03</speed>
  <fix>3d</fix>
</trkpt>
<trkpt lat="33.8106171" lon="-118.3935623">
  <ele>-5.25</ele>
  <time>2026-09-01T01:14:52Z</time>
  <course>72.39</course>
  <speed>0.0</speed>
  <fix>3d</fix>
</trkpt>
<trkpt lat="33.810617" lon="-118.3935621">
  <ele>-5.794</ele>
  <time>2026-09-01T01:14:52Z</time>
  <course>153.91</course>
  <speed>0.03</speed>
  <fix>3d</fix>
</trkpt>
<trkpt lat="33.8106171" lon="-118.3935623">
  <ele>-5.26</ele>
  <time>2026-09-01T01:14:52Z</time>
  <course>72.37</course>
  <speed>0.0</speed>
  <fix>3d</fix>
</trkpt>
<trkpt lat="33.810617" lon="-118.3935621">
  <ele>-5.795</ele>
  <time>2026-09-01T01:14:52Z</time>
  <course>153.93</course>
  <speed>0.03</speed>
  <fix>3d</fix>
</trkpt>
<trkpt lat="33.8106171" lon="-118.3935623">
  <ele>-5.26</ele>
  <time>2026-09-01T01:14:52Z</time>
  <course>72.37</course>
  <speed>0.0</speed>
  <fix>3d</fix>
</trkpt>
<trkpt lat="33.810617" lon="-118.3935621">
  <ele>-5.796</ele>
  <time>2026-09-01T01:14:52Z</time>
  <course>153.95</course>
  <speed>0.03</speed>
  <fix>3d</fix>
</trkpt>
<trkpt lat="33.8106171" lon="-118.3935623">
  <ele>-5.27</ele>
  <time>2026-09-01T01:14:52Z</time>
  <course>72.31</course>
  <speed>0.0</speed>
  <fix>3d</fix>
</trkpt>
<trkpt lat="33.810617" lon="-118.3935621">
  <ele>-5.797</ele>
  <time>2026-09-01T01:14:52Z</time>
  <course>153.98</course>
  <speed>0.03</speed>
  <fix>3d</fix>
</trkpt>
<trkpt lat="33.8106171" lon="-118.3935623">
  <ele>-5.27</ele>
  <time>2026-09-01T01:14:52Z</time>
  <course>72.31</course>
  <speed>0.0</speed>
  <fix>3d</fix>
</trkpt>
<trkpt lat="33.810617" lon="-118.3935621">
  <ele>-5.796</ele>
  <time>2026-09-01T01:14:52Z</time>
  <course>154.0</course>
  <speed>0.03</speed>
  <fix>3d</fix>
</trkpt>
<trkpt lat="33.8106171" lon="-118.3935623">
  <ele>-5.28</ele>
  <time>2026-09-01T01:14:52Z</time>
  <course>72.21</course>
  <speed>0.0</speed>
  <fix>3d</fix>
</trkpt>
<trkpt lat="33.810617" lon="-118.3935621">
  <ele>-5.797</ele>
  <time>2026-09-01T01:14:52Z</time>
  <course>154.02</course>
  <speed>0.03</speed>
  <fix>3d</fix>
</trkpt>
<trkpt lat="33.8106171" lon="-118.3935623">
  <ele>-5.28</ele>
  <time>2026-09-01T01:14:52Z</time>
  <course>72.21</course>
  <speed>0.0</speed>
  <fix>3d</fix>
</trkpt>
<trkpt lat="33.810617" lon="-118.3935621">
  <ele>-5.797</ele>
  <time>2026-09-01T01:14:52Z</time>
  <course>154.04</course>
  <speed>0.03</speed>
  <fix>3d</fix>
</trkpt>
<trkpt lat="33.8106171" lon="-118.3935623">
  <ele>-5.28</ele>
  <time>2026-09-01T01:14:52Z</time>
  <course>72.09</course>
  <speed>0.0</speed>
  <fix>3d</fix>
</trkpt>
<trkpt lat="33.810617" lon="-118.3935621">
  <ele>-5.798</ele>
  <time>2026-09-01T01:14:52Z</time>
  <course>154.06</course>
  <speed>0.03</speed>
  <fix>3d</fix>
</trkpt>
<trkpt lat="33.8106171" lon="-118.3935623">
  <ele>-5.28</ele>
  <time>2026-09-01T01:14:52Z</time>
  <course>72.09</course>
  <speed>0.0</speed>
  <fix>3d</fix>
</trkpt>
<trkpt lat="33.810617" lon="-118.393562">
  <ele>-5.799</ele>
  <time>2026-09-01T01:14:52Z</time>
  <course>154.08</course>
  <speed>0.03</speed>
  <fix>3d</fix>
</trkpt>
<trkpt lat="33.8106171" lon="-118.3935622">
  <ele>-5.28</ele>
  <time>2026-09-01T01:14:52Z</time>
  <course>72.02</course>
  <speed>0.0</speed>
  <fix>3d</fix>
</trkpt>
<trkpt lat="33.810617" lon="-118.393562">
  <ele>-5.8</ele>
  <time>2026-09-01T01:14:52Z</time>
  <course>154.1</course>
  <speed>0.03</speed>
  <fix>3d</fix>
</trkpt>
<trkpt lat="33.8106171" lon="-118.3935622">
  <ele>-5.28</ele>
  <time>2026-09-01T01:14:52Z</time>
  <course>72.02</course>
  <speed>0.0</speed>
  <fix>3d</fix>
</trkpt>
<trkpt lat="33.810617" lon="-118.393562">
  <ele>-5.8</ele>
  <time>2026-09-01T01:14:52Z</time>
  <course>154.12</course>
  <speed>0.03</speed>
  <fix>3d</fix>
</trkpt>
<trkpt lat="33.8106171" lon="-118.3935622">
  <ele>-5.29</ele>
  <time>2026-09-01T01:14:52Z</time>
  <course>72.01</course>
  <speed>0.0</speed>
  <fix>3d</fix>
</trkpt>
<trkpt lat="33.810617" lon="-118.393562">
  <ele>-5.801</ele>
  <time>2026-09-01T01:14:52Z</time>
  <course>154.14</course>
  <speed>0.03</speed>
  <fix>3d</fix>
</trkpt>
<trkpt lat="33.8106171" lon="-118.3935622">
  <ele>-5.29</ele>
  <time>2026-09-01T01:14:52Z</time>
  <course>72.01</course>
  <speed>0.0</speed>
  <fix>3d</fix>
</trkpt>
<trkpt lat="33.810617" lon="-118.393562">
  <ele>-5.801</ele>
  <time>2026-09-01T01:14:52Z</time>
  <course>154.16</course>
  <speed>0.03</speed>
  <fix>3d</fix>
</trkpt>
<trkpt lat="33.8106171" lon="-118.3935622">
  <ele>-5.29</ele>
  <time>2026-09-01T01:14:52Z</time>
  <course>72.02</course>
  <speed>0.0</speed>
  <fix>3d</fix>
</trkpt>
<trkpt lat="33.810617" lon="-118.393562">
  <ele>-5.802</ele>
  <time>2026-09-01T01:14:52Z</time>
  <course>154.18</course>
  <speed>0.03</speed>
  <fix>3d</fix>
</trkpt>
<trkpt lat="33.8106171" lon="-118.3935622">
  <ele>-5.29</ele>
  <time>2026-09-01T01:14:52Z</time>
  <course>72.02</course>
  <speed>0.0</speed>
  <fix>3d</fix>
</trkpt>
<trkpt lat="33.810617" lon="-118.393562">
  <ele>-5.804</ele>
  <time>2026-09-01T01:14:52Z</time>
  <course>154.19</course>
  <speed>0.03</speed>
  <fix>3d</fix>
</trkpt>
<trkpt lat="33.8106172" lon="-118.3935622">
  <ele>-5.29</ele>
  <time>2026-09-01T01:14:52Z</time>
  <course>72.0</course>
  <speed>0.0</speed>
  <fix>3d</fix>
</trkpt>
<trkpt lat="33.810617" lon="-118.393562">
  <ele>-5.804</ele>
  <time>2026-09-01T01:14:52Z</time>
  <course>154.21</course>
  <speed>0.03</speed>
  <fix>3d</fix>
</trkpt>
<trkpt lat="33.8106172" lon="-118.3935622">
  <ele>-5.29</ele>
  <time>2026-09-01T01:14:52Z</time>
  <course>72.0</course>
  <speed>0.0</speed>
  <fix>3d</fix>
</trkpt>
<trkpt lat="33.810617" lon="-118.393562">
  <ele>-5.804</ele>
  <time>2026-09-01T01:14:52Z</time>
  <course>154.23</course>
  <speed>0.03</speed>
  <fix>3d</fix>
</trkpt>
<trkpt lat="33.8106172" lon="-118.3935622">
  <ele>-5.29</ele>
  <time>2026-09-01T01:14:52Z</time>
  <course>71.94</course>
  <speed>0.0</speed>
  <fix>3d</fix>
</trkpt>
<trkpt lat="33.810617" lon="-118.3935619">
  <ele>-5.803</ele>
  <time>2026-09-01T01:14:52Z</time>
  <course>154.25</course>
  <speed>0.03</speed>
  <fix>3d</fix>
</trkpt>
<trkpt lat="33.8106172" lon="-118.3935622">
  <ele>-5.29</ele>
  <time>2026-09-01T01:14:52Z</time>
  <course>71.94</course>
  <speed>0.0</speed>
  <fix>3d</fix>
</trkpt>
<trkpt lat="33.810617" lon="-118.3935619">
  <ele>-5.803</ele>
  <time>2026-09-01T01:14:52Z</time>
  <course>154.27</course>
  <speed>0.03</speed>
  <fix>3d</fix>
</trkpt>
<trkpt lat="33.8106172" lon="-118.3935621">
  <ele>-5.28</ele>
  <time>2026-09-01T01:14:52Z</time>
  <course>71.85</course>
  <speed>0.0</speed>
  <fix>3d</fix>
</trkpt>
<trkpt lat="33.810617" lon="-118.3935619">
  <ele>-5.802</ele>
  <time>2026-09-01T01:14:52Z</time>
  <course>154.29</course>
  <speed>0.03</speed>
  <fix>3d</fix>
</trkpt>
<trkpt lat="33.8106172" lon="-118.3935621">
  <ele>-5.28</ele>
  <time>2026-09-01T01:14:52Z</time>
  <course>71.85</course>
  <speed>0.0</speed>
  <fix>3d</fix>
</trkpt>
<trkpt lat="33.810617" lon="-118.3935619">
  <ele>-5.802</ele>
  <time>2026-09-01T01:14:52Z</time>
  <course>154.3</course>
  <speed>0.03</speed>
  <fix>3d</fix>
</trkpt>
<trkpt lat="33.8106172" lon="-118.3935621">
  <ele>-5.28</ele>
  <time>2026-09-01T01:14:52Z</time>
  <course>71.77</course>
  <speed>0.0</speed>
  <fix>3d</fix>
</trkpt>
<trkpt lat="33.810617" lon="-118.3935619">
  <ele>-5.801</ele>
  <time>2026-09-01T01:14:52Z</time>
  <course>154.32</course>
  <speed>0.03</speed>
  <fix>3d</fix>
</trkpt>
<trkpt lat="33.8106172" lon="-118.3935621">
  <ele>-5.28</ele>
  <time>2026-09-01T01:14:52Z</time>
  <course>71.77</course>
  <speed>0.0</speed>
  <fix>3d</fix>
</trkpt>
<trkpt lat="33.810617" lon="-118.3935619">
  <ele>-5.8</ele>
  <time>2026-09-01T01:14:52Z</time>
  <course>154.34</course>
  <speed>0.03</speed>
  <fix>3d</fix>
</trkpt>
<trkpt lat="33.8106172" lon="-118.3935621">
  <ele>-5.28</ele>
  <time>2026-09-01T01:14:52Z</time>
  <course>71.74</course>
  <speed>0.0</speed>
  <fix>3d</fix>
</trkpt>
<trkpt lat="33.810617" lon="-118.3935619">
  <ele>-5.798</ele>
  <time>2026-09-01T01:14:52Z</time>
  <course>154.36</course>
  <speed>0.03</speed>
  <fix>3d</fix>
</trkpt>
<trkpt lat="33.8106172" lon="-118.3935621">
  <ele>-5.28</ele>
  <time>2026-09-01T01:14:52Z</time>
  <course>71.74</course>
  <speed>0.0</speed>
  <fix>3d</fix>
</trkpt>
<trkpt lat="33.8106171" lon="-118.3935619">
  <ele>-5.798</ele>
  <time>2026-09-01T01:14:52Z</time>
  <course>154.38</course>
  <speed>0.03</speed>
  <fix>3d</fix>
</trkpt>
<trkpt lat="33.8106172" lon="-118.3935621">
  <ele>-5.27</ele>
  <time>2026-09-01T01:14:52Z</time>
  <course>71.72</course>
  <speed>0.01</speed>
  <fix>3d</fix>
</trkpt>
<trkpt lat="33.8106171" lon="-118.3935619">
  <ele>-5.799</ele>
  <time>2026-09-01T01:14:52Z</time>
  <course>154.39</course>
  <speed>0.03</speed>
  <fix>3d</fix>
</trkpt>
<trkpt lat="33.8106172" lon="-118.3935621">
  <ele>-5.27</ele>
  <time>2026-09-01T01:14:52Z</time>
  <course>71.72</course>
  <speed>0.01</speed>
  <fix>3d</fix>
</trkpt>
<trkpt lat="33.8106171" lon="-118.3935619">
  <ele>-5.799</ele>
  <time>2026-09-01T01:14:52Z</time>
  <course>154.41</course>
  <speed>0.03</speed>
  <fix>3d</fix>
</trkpt>
<trkpt lat="33.8106172" lon="-118.3935621">
  <ele>-5.27</ele>
  <time>2026-09-01T01:14:52Z</time>
  <course>71.69</course>
  <speed>0.01</speed>
  <fix>3d</fix>
</trkpt>
<trkpt lat="33.8106171" lon="-118.3935618">
  <ele>-5.798</ele>
  <time>2026-09-01T01:14:52Z</time>
  <course>154.43</course>
  <speed>0.03</speed>
  <fix>3d</fix>
</trkpt>
<trkpt lat="33.8106172" lon="-118.3935621">
  <ele>-5.27</ele>
  <time>2026-09-01T01:14:52Z</time>
  <course>71.69</course>
  <speed>0.01</speed>
  <fix>3d</fix>
</trkpt>
<trkpt lat="33.8106171" lon="-118.3935618">
  <ele>-5.798</ele>
  <time>2026-09-01T01:14:52Z</time>
  <course>154.44</course>
  <speed>0.03</speed>
  <fix>3d</fix>
</trkpt>
<trkpt lat="33.8106172" lon="-118.393562">
  <ele>-5.27</ele>
  <time>2026-09-01T01:14:52Z</time>
  <course>71.65</course>
  <speed>0.01</speed>
  <fix>3d</fix>
</trkpt>
<trkpt lat="33.8106171" lon="-118.3935618">
  <ele>-5.798</ele>
  <time>2026-09-01T01:14:52Z</time>
  <course>154.46</course>
  <speed>0.03</speed>
  <fix>3d</fix>
</trkpt>
<trkpt lat="33.8106172" lon="-118.393562">
  <ele>-5.27</ele>
  <time>2026-09-01T01:14:52Z</time>
  <course>71.65</course>
  <speed>0.01</speed>
  <fix>3d</fix>
</trkpt>
<trkpt lat="33.8106171" lon="-118.3935618">
  <ele>-5.796</ele>
  <time>2026-09-01T01:14:52Z</time>
  <course>154.52</course>
  <speed>0.03</speed>
  <fix>3d</fix>
</trkpt>
<trkpt lat="33.8106172" lon="-118.393562">
  <ele>-5.27</ele>
  <time>2026-09-01T01:14:52Z</time>
  <course>71.58</course>
  <speed>0.01</speed>
  <fix>3d</fix>
</trkpt>
<trkpt lat="33.8106171" lon="-118.3935618">
  <ele>-5.787</ele>
  <time>2026-09-01T01:14:52Z</time>
  <course>154.63</course>
  <speed>0.03</speed>
  <fix>3d</fix>
</trkpt>
<trkpt lat="33.8106172" lon="-118.393562">
  <ele>-5.27</ele>
  <time>2026-09-01T01:14:52Z</time>
  <course>71.58</course>
  <speed>0.01</speed>
  <fix>3d</fix>
</trkpt>
<trkpt lat="33.8106171" lon="-118.3935618">
  <ele>-5.773</ele>
  <time>2026-09-01T01:14:52Z</time>
  <course>154.75</course>
  <speed>0.03</speed>
  <fix>3d</fix>
</trkpt>
<trkpt lat="33.8106172" lon="-118.393562">
  <ele>-5.26</ele>
  <time>2026-09-01T01:14:52Z</time>
  <course>71.56</course>
  <speed>0.01</speed>
  <fix>3d</fix>
</trkpt>
<trkpt lat="33.8106171" lon="-118.3935618">
  <ele>-5.754</ele>
  <time>2026-09-01T01:14:52Z</time>
  <course>154.87</course>
  <speed>0.03</speed>
  <fix>3d</fix>
</trkpt>
<trkpt lat="33.8106172" lon="-118.393562">
  <ele>-5.26</ele>
  <time>2026-09-01T01:14:52Z</time>
  <course>71.56</course>
  <speed>0.01</speed>
  <fix>3d</fix>
</trkpt>
<trkpt lat="33.8106171" lon="-118.3935618">
  <ele>-5.732</ele>
  <time>2026-09-01T01:14:52Z</time>
  <course>154.97</course>
  <speed>0.03</speed>
  <fix>3d</fix>
</trkpt>
<trkpt lat="33.8106172" lon="-118.393562">
  <ele>-5.23</ele>
  <time>2026-09-01T01:14:52Z</time>
  <course>71.62</course>
  <speed>0.01</speed>
  <fix>3d</fix>
</trkpt>
<trkpt lat="33.8106171" lon="-118.3935617">
  <ele>-5.706</ele>
  <time>2026-09-01T01:14:52Z</time>
  <course>155.05</course>
  <speed>0.03</speed>
  <fix>3d</fix>
</trkpt>
<trkpt lat="33.8106172" lon="-118.393562">
  <ele>-5.23</ele>
  <time>2026-09-01T01:14:52Z</time>
  <course>71.62</course>
  <speed>0.01</speed>
  <fix>3d</fix>
</trkpt>
<trkpt lat="33.8106171" lon="-118.3935617">
  <ele>-5.678</ele>
  <time>2026-09-01T01:14:52Z</time>
  <course>155.12</course>
  <speed>0.03</speed>
  <fix>3d</fix>
</trkpt>
<trkpt lat="33.8106172" lon="-118.393562">
  <ele>-5.19</ele>
  <time>2026-09-01T01:14:52Z</time>
  <course>71.71</course>
  <speed>0.01</speed>
  <fix>3d</fix>
</trkpt>
<trkpt lat="33.8106171" lon="-118.3935617">
  <ele>-5.648</ele>
  <time>2026-09-01T01:14:52Z</time>
  <course>155.19</course>
  <speed>0.03</speed>
  <fix>3d</fix>
</trkpt>
<trkpt lat="33.8106172" lon="-118.393562">
  <ele>-5.19</ele>
  <time>2026-09-01T01:14:52Z</time>
  <course>71.71</course>
  <speed>0.01</speed>
  <fix>3d</fix>
</trkpt>
<trkpt lat="33.8106171" lon="-118.3935617">
  <ele>-5.618</ele>
  <time>2026-09-01T01:14:52Z</time>
  <course>155.25</course>
  <speed>0.03</speed>
  <fix>3d</fix>
</trkpt>
<trkpt lat="33.8106172" lon="-118.3935619">
  <ele>-5.14</ele>
  <time>2026-09-01T01:14:52Z</time>
  <course>71.86</course>
  <speed>0.0</speed>
  <fix>3d</fix>
</trkpt>
<trkpt lat="33.8106171" lon="-118.3935617">
  <ele>-5.587</ele>
  <time>2026-09-01T01:14:52Z</time>
  <course>155.3</course>
  <speed>0.03</speed>
  <fix>3d</fix>
</trkpt>
<trkpt lat="33.8106172" lon="-118.3935619">
  <ele>-5.14</ele>
  <time>2026-09-01T01:14:52Z</time>
  <course>71.86</course>
  <speed>0.0</speed>
  <fix>3d</fix>
</trkpt>
<trkpt lat="33.8106171" lon="-118.3935617">
  <ele>-5.557</ele>
  <time>2026-09-01T01:14:52Z</time>
  <course>155.36</course>
  <speed>0.03</speed>
  <fix>3d</fix>
</trkpt>
<trkpt lat="33.8106172" lon="-118.3935619">
  <ele>-5.09</ele>
  <time>2026-09-01T01:14:52Z</time>
  <course>72.02</course>
  <speed>0.0</speed>
  <fix>3d</fix>
</trkpt>
<trkpt lat="33.8106171" lon="-118.3935617">
  <ele>-5.526</ele>
  <time>2026-09-01T01:14:52Z</time>
  <course>155.4</course>
  <speed>0.03</speed>
  <fix>3d</fix>
</trkpt>
<trkpt lat="33.8106172" lon="-118.3935619">
  <ele>-5.09</ele>
  <time>2026-09-01T01:14:52Z</time>
  <course>72.02</course>
  <speed>0.0</speed>
  <fix>3d</fix>
</trkpt>
<trkpt lat="33.8106171" lon="-118.3935617">
  <ele>-5.496</ele>
  <time>2026-09-01T01:14:52Z</time>
  <course>155.45</course>
  <speed>0.03</speed>
  <fix>3d</fix>
</trkpt>
<trkpt lat="33.8106172" lon="-118.3935619">
  <ele>-5.02</ele>
  <time>2026-09-01T01:14:52Z</time>
  <course>72.07</course>
  <speed>0.0</speed>
  <fix>3d</fix>
</trkpt>
<trkpt lat="33.8106171" lon="-118.3935617">
  <ele>-5.465</ele>
  <time>2026-09-01T01:14:52Z</time>
  <course>155.49</course>
  <speed>0.03</speed>
  <fix>3d</fix>
</trkpt>
<trkpt lat="33.8106172" lon="-118.3935619">
  <ele>-5.02</ele>
  <time>2026-09-01T01:14:52Z</time>
  <course>72.07</course>
  <speed>0.0</speed>
  <fix>3d</fix>
</trkpt>
<trkpt lat="33.8106171" lon="-118.3935616">
  <ele>-5.433</ele>
  <time>2026-09-01T01:14:52Z</time>
  <course>155.53</course>
  <speed>0.03</speed>
  <fix>3d</fix>
</trkpt>
<trkpt lat="33.8106172" lon="-118.3935619">
  <ele>-4.97</ele>
  <time>2026-09-01T01:14:52Z</time>
  <course>72.02</course>
  <speed>0.0</speed>
  <fix>3d</fix>
</trkpt>
<trkpt lat="33.8106171" lon="-118.3935616">
  <ele>-5.401</ele>
  <time>2026-09-01T01:14:52Z</time>
  <course>155.57</course>
  <speed>0.03</speed>
  <fix>3d</fix>
</trkpt>
<trkpt lat="33.8106172" lon="-118.3935619">
  <ele>-4.97</ele>
  <time>2026-09-01T01:14:52Z</time>
  <course>72.02</course>
  <speed>0.0</speed>
  <fix>3d</fix>
</trkpt>
<trkpt lat="33.8106171" lon="-118.3935616">
  <ele>-5.369</ele>
  <time>2026-09-01T01:14:52Z</time>
  <course>155.6</course>
  <speed>0.03</speed>
  <fix>3d</fix>
</trkpt>
<trkpt lat="33.8106172" lon="-118.3935619">
  <ele>-4.91</ele>
  <time>2026-09-01T01:14:52Z</time>
  <course>71.96</course>
  <speed>0.0</speed>
  <fix>3d</fix>
</trkpt>
<trkpt lat="33.8106171" lon="-118.3935616">
  <ele>-5.337</ele>
  <time>2026-09-01T01:14:52Z</time>
  <course>155.63</course>
  <speed>0.03</speed>
  <fix>3d</fix>
</trkpt>
<trkpt lat="33.8106172" lon="-118.3935619">
  <ele>-4.91</ele>
  <time>2026-09-01T01:14:52Z</time>
  <course>71.96</course>
  <speed>0.0</speed>
  <fix>3d</fix>
</trkpt>
<trkpt lat="33.8106171" lon="-118.3935616">
  <ele>-5.304</ele>
  <time>2026-09-01T01:14:52Z</time>
  <course>155.66</course>
  <speed>0.03</speed>
  <fix>3d</fix>
</trkpt>
<trkpt lat="33.8106172" lon="-118.3935618">
  <ele>-4.85</ele>
  <time>2026-09-01T01:14:52Z</time>
  <course>71.98</course>
  <speed>0.0</speed>
  <fix>3d</fix>
</trkpt>
<trkpt lat="33.8106171" lon="-118.3935616">
  <ele>-5.272</ele>
  <time>2026-09-01T01:14:52Z</time>
  <course>155.69</course>
  <speed>0.03</speed>
  <fix>3d</fix>
</trkpt>
<trkpt lat="33.8106172" lon="-118.3935618">
  <ele>-4.85</ele>
  <time>2026-09-01T01:14:52Z</time>
  <course>71.98</course>
  <speed>0.0</speed>
  <fix>3d</fix>
</trkpt>
<trkpt lat="33.8106171" lon="-118.3935616">
  <ele>-5.239</ele>
  <time>2026-09-01T01:14:52Z</time>
  <course>155.72</course>
  <speed>0.03</speed>
  <fix>3d</fix>
</trkpt>
<trkpt lat="33.8106173" lon="-118.3935618">
  <ele>-4.79</ele>
  <time>2026-09-01T01:14:52Z</time>
  <course>72.13</course>
  <speed>0.0</speed>
  <fix>3d</fix>
</trkpt>
<trkpt lat="33.8106171" lon="-118.3935616">
  <ele>-5.208</ele>
  <time>2026-09-01T01:14:52Z</time>
  <course>155.75</course>
  <speed>0.03</speed>
  <fix>3d</fix>
</trkpt>
<trkpt lat="33.8106173" lon="-118.3935618">
  <ele>-4.79</ele>
  <time>2026-09-01T01:14:52Z</time>
  <course>72.13</course>
  <speed>0.0</speed>
  <fix>3d</fix>
</trkpt>
<trkpt lat="33.8106171" lon="-118.3935616">
  <ele>-5.18</ele>
  <time>2026-09-01T01:14:52Z</time>
  <course>155.78</course>
  <speed>0.03</speed>
  <fix>3d</fix>
</trkpt>
<trkpt lat="33.8106174" lon="-118.3935618">
  <ele>-4.73</ele>
  <time>2026-09-01T01:14:52Z</time>
  <course>72.33</course>
  <speed>0.0</speed>
  <fix>3d</fix>
</trkpt>
<trkpt lat="33.8106171" lon="-118.3935616">
  <ele>-5.156</ele>
  <time>2026-09-01T01:14:52Z</time>
  <course>155.8</course>
  <speed>0.03</speed>
  <fix>3d</fix>
</trkpt>
<trkpt lat="33.8106174" lon="-118.3935618">
  <ele>-4.73</ele>
  <time>2026-09-01T01:14:52Z</time>
  <course>72.33</course>
  <speed>0.0</speed>
  <fix>3d</fix>
</trkpt>
<trkpt lat="33.8106172" lon="-118.3935616">
  <ele>-5.134</ele>
  <time>2026-09-01T01:14:52Z</time>
  <course>155.83</course>
  <speed>0.03</speed>
  <fix>3d</fix>
</trkpt>
<trkpt lat="33.8106174" lon="-118.3935618">
  <ele>-4.68</ele>
  <time>2026-09-01T01:14:52Z</time>
  <course>72.46</course>
  <speed>0.0</speed>
  <fix>3d</fix>
</trkpt>
<trkpt lat="33.8106172" lon="-118.3935615">
  <ele>-5.115</ele>
  <time>2026-09-01T01:14:52Z</time>
  <course>155.85</course>
  <speed>0.03</speed>
  <fix>3d</fix>
</trkpt>
<trkpt lat="33.8106174" lon="-118.3935618">
  <ele>-4.68</ele>
  <time>2026-09-01T01:14:52Z</time>
  <course>72.46</course>
  <speed>0.0</speed>
  <fix>3d</fix>
</trkpt>
<trkpt lat="33.8106172" lon="-118.3935615">
  <ele>-5.098</ele>
  <time>2026-09-01T01:14:52Z</time>
  <course>155.87</course>
  <speed>0.03</speed>
  <fix>3d</fix>
</trkpt>
<trkpt lat="33.8106174" lon="-118.3935618">
  <ele>-4.64</ele>
  <time>2026-09-01T01:14:52Z</time>
  <course>72.51</course>
  <speed>0.0</speed>
  <fix>3d</fix>
</trkpt>
<trkpt lat="33.8106172" lon="-118.3935615">
  <ele>-5.083</ele>
  <time>2026-09-01T01:14:52Z</time>
  <course>155.9</course>
  <speed>0.03</speed>
  <fix>3d</fix>
</trkpt>
<trkpt lat="33.8106174" lon="-118.3935618">
  <ele>-4.64</ele>
  <time>2026-09-01T01:14:52Z</time>
  <course>72.51</course>
  <speed>0.0</speed>
  <fix>3d</fix>
</trkpt>
<trkpt lat="33.8106172" lon="-118.3935615">
  <ele>-5.07</ele>
  <time>2026-09-01T01:14:52Z</time>
  <course>155.92</course>
  <speed>0.03</speed>
  <fix>3d</fix>
</trkpt>
<trkpt lat="33.8106174" lon="-118.3935617">
  <ele>-4.6</ele>
  <time>2026-09-01T01:14:52Z</time>
  <course>72.53</course>
  <speed>0.0</speed>
  <fix>3d</fix>
</trkpt>
<trkpt lat="33.8106172" lon="-118.3935615">
  <ele>-5.058</ele>
  <time>2026-09-01T01:14:52Z</time>
  <course>155.94</course>
  <speed>0.03</speed>
  <fix>3d</fix>
</trkpt>
<trkpt lat="33.8106174" lon="-118.3935617">
  <ele>-4.6</ele>
  <time>2026-09-01T01:14:52Z</time>
  <course>72.53</course>
  <speed>0.0</speed>
  <fix>3d</fix>
</trkpt>
<trkpt lat="33.8106172" lon="-118.3935615">
  <ele>-5.009</ele>
  <time>2026-09-01T01:14:53Z</time>
  <course>156.02</course>
  <speed>0.03</speed>
  <fix>3d</fix>
</trkpt>
<trkpt lat="33.8106174" lon="-118.3935617">
  <ele>-4.55</ele>
  <time>2026-09-01T01:14:53Z</time>
  <course>72.61</course>
  <speed>0.0</speed>
  <fix>3d</fix>
</trkpt>
<trkpt lat="33.8106173" lon="-118.3935614">
  <ele>-4.975</ele>
  <time>2026-09-01T01:14:53Z</time>
  <course>156.08</course>
  <speed>0.03</speed>
  <fix>3d</fix>
</trkpt>
<trkpt lat="33.8106174" lon="-118.3935617">
  <ele>-4.5</ele>
  <time>2026-09-01T01:14:53Z</time>
  <course>72.76</course>
  <speed>0.0</speed>
  <fix>3d</fix>
</trkpt>
<trkpt lat="33.8106173" lon="-118.3935614">
  <ele>-4.965</ele>
  <time>2026-09-01T01:14:53Z</time>
  <course>156.09</course>
  <speed>0.03</speed>
  <fix>3d</fix>
</trkpt>
<trkpt lat="33.8106174" lon="-118.3935617">
  <ele>-4.5</ele>
  <time>2026-09-01T01:14:53Z</time>
  <course>72.76</course>
  <speed>0.0</speed>
  <fix>3d</fix>
</trkpt>
<trkpt lat="33.8106173" lon="-118.3935614">
  <ele>-4.956</ele>
  <time>2026-09-01T01:14:53Z</time>
  <course>156.11</course>
  <speed>0.03</speed>
  <fix>3d</fix>
</trkpt>
<trkpt lat="33.8106174" lon="-118.3935617">
  <ele>-4.47</ele>
  <time>2026-09-01T01:14:53Z</time>
  <course>72.84</course>
  <speed>0.0</speed>
  <fix>3d</fix>
</trkpt>
<trkpt lat="33.8106173" lon="-118.3935614">
  <ele>-4.948</ele>
  <time>2026-09-01T01:14:53Z</time>
  <course>156.13</course>
  <speed>0.03</speed>
  <fix>3d</fix>
</trkpt>
<trkpt lat="33.8106174" lon="-118.3935617">
  <ele>-4.47</ele>
  <time>2026-09-01T01:14:53Z</time>
  <course>72.84</course>
  <speed>0.0</speed>
  <fix>3d</fix>
</trkpt>
<trkpt lat="33.8106173" lon="-118.3935614">
  <ele>-4.939</ele>
  <time>2026-09-01T01:14:53Z</time>
  <course>156.15</course>
  <speed>0.03</speed>
  <fix>3d</fix>
</trkpt>
<trkpt lat="33.8106174" lon="-118.3935616">
  <ele>-4.46</ele>
  <time>2026-09-01T01:14:53Z</time>
  <course>72.89</course>
  <speed>0.0</speed>
  <fix>3d</fix>
</trkpt>
<trkpt lat="33.8106173" lon="-118.3935614">
  <ele>-4.931</ele>
  <time>2026-09-01T01:14:53Z</time>
  <course>156.16</course>
  <speed>0.03</speed>
  <fix>3d</fix>
</trkpt>
<trkpt lat="33.8106174" lon="-118.3935616">
  <ele>-4.46</ele>
  <time>2026-09-01T01:14:53Z</time>
  <course>72.89</course>
  <speed>0.0</speed>
  <fix>3d</fix>
</trkpt>
<trkpt lat="33.8106173" lon="-118.3935614">
  <ele>-4.923</ele>
  <time>2026-09-01T01:14:53Z</time>
  <course>156.18</course>
  <speed>0.03</speed>
  <fix>3d</fix>
</trkpt>
<trkpt lat="33.8106174" lon="-118.3935616">
  <ele>-4.43</ele>
  <time>2026-09-01T01:14:53Z</time>
  <course>72.93</course>
  <speed>0.0</speed>
  <fix>3d</fix>
</trkpt>
<trkpt lat="33.8106173" lon="-118.3935614">
  <ele>-4.914</ele>
  <time>2026-09-01T01:14:53Z</time>
  <course>156.19</course>
  <speed>0.03</speed>
  <fix>3d</fix>
</trkpt>
<trkpt lat="33.8106174" lon="-118.3935616">
  <ele>-4.43</ele>
  <time>2026-09-01T01:14:53Z</time>
  <course>72.93</course>
  <speed>0.0</speed>
  <fix>3d</fix>
</trkpt>
<trkpt lat="33.8106173" lon="-118.3935614">
  <ele>-4.904</ele>
  <time>2026-09-01T01:14:53Z</time>
  <course>156.21</course>
  <speed>0.03</speed>
  <fix>3d</fix>
</trkpt>
<trkpt lat="33.8106174" lon="-118.3935616">
  <ele>-4.42</ele>
  <time>2026-09-01T01:14:53Z</time>
  <course>72.97</course>
  <speed>0.0</speed>
  <fix>3d</fix>
</trkpt>
<trkpt lat="33.8106173" lon="-118.3935614">
  <ele>-4.895</ele>
  <time>2026-09-01T01:14:53Z</time>
  <course>156.22</course>
  <speed>0.03</speed>
  <fix>3d</fix>
</trkpt>
<trkpt lat="33.8106174" lon="-118.3935616">
  <ele>-4.42</ele>
  <time>2026-09-01T01:14:53Z</time>
  <course>72.97</course>
  <speed>0.0</speed>
  <fix>3d</fix>
</trkpt>
<trkpt lat="33.8106173" lon="-118.3935614">
  <ele>-4.885</ele>
  <time>2026-09-01T01:14:53Z</time>
  <course>156.24</course>
  <speed>0.03</speed>
  <fix>3d</fix>
</trkpt>
<trkpt lat="33.8106174" lon="-118.3935616">
  <ele>-4.39</ele>
  <time>2026-09-01T01:14:53Z</time>
  <course>73.02</course>
  <speed>0.0</speed>
  <fix>3d</fix>
</trkpt>
<trkpt lat="33.8106173" lon="-118.3935614">
  <ele>-4.877</ele>
  <time>2026-09-01T01:14:53Z</time>
  <course>156.26</course>
  <speed>0.03</speed>
  <fix>3d</fix>
</trkpt>
<trkpt lat="33.8106174" lon="-118.3935616">
  <ele>-4.39</ele>
  <time>2026-09-01T01:14:53Z</time>
  <course>73.02</course>
  <speed>0.0</speed>
  <fix>3d</fix>
</trkpt>
<trkpt lat="33.8106173" lon="-118.3935614">
  <ele>-4.868</ele>
  <time>2026-09-01T01:14:53Z</time>
  <course>156.27</course>
  <speed>0.03</speed>
  <fix>3d</fix>
</trkpt>
<trkpt lat="33.8106174" lon="-118.3935616">
  <ele>-4.38</ele>
  <time>2026-09-01T01:14:53Z</time>
  <course>73.09</course>
  <speed>0.0</speed>
  <fix>3d</fix>
</trkpt>
<trkpt lat="33.8106173" lon="-118.3935613">
  <ele>-4.859</ele>
  <time>2026-09-01T01:14:53Z</time>
  <course>156.28</course>
  <speed>0.03</speed>
  <fix>3d</fix>
</trkpt>
<trkpt lat="33.8106174" lon="-118.3935616">
  <ele>-4.38</ele>
  <time>2026-09-01T01:14:53Z</time>
  <course>73.09</course>
  <speed>0.0</speed>
  <fix>3d</fix>
</trkpt>
<trkpt lat="33.8106173" lon="-118.3935613">
  <ele>-4.85</ele>
  <time>2026-09-01T01:14:53Z</time>
  <course>156.3</course>
  <speed>0.03</speed>
  <fix>3d</fix>
</trkpt>
<trkpt lat="33.8106174" lon="-118.3935616">
  <ele>-4.35</ele>
  <time>2026-09-01T01:14:53Z</time>
  <course>73.17</course>
  <speed>0.0</speed>
  <fix>3d</fix>
</trkpt>
<trkpt lat="33.8106173" lon="-118.3935613">
  <ele>-4.84</ele>
  <time>2026-09-01T01:14:53Z</time>
  <course>156.31</course>
  <speed>0.03</speed>
  <fix>3d</fix>
</trkpt>
<trkpt lat="33.8106174" lon="-118.3935616">
  <ele>-4.35</ele>
  <time>2026-09-01T01:14:53Z</time>
  <course>73.17</course>
  <speed>0.0</speed>
  <fix>3d</fix>
</trkpt>
<trkpt lat="33.8106173" lon="-118.3935613">
  <ele>-4.83</ele>
  <time>2026-09-01T01:14:53Z</time>
  <course>156.33</course>
  <speed>0.03</speed>
  <fix>3d</fix>
</trkpt>
<trkpt lat="33.8106174" lon="-118.3935615">
  <ele>-4.34</ele>
  <time>2026-09-01T01:14:53Z</time>
  <course>73.23</course>
  <speed>0.0</speed>
  <fix>3d</fix>
</trkpt>
<trkpt lat="33.8106173" lon="-118.3935613">
  <ele>-4.819</ele>
  <time>2026-09-01T01:14:53Z</time>
  <course>156.34</course>
  <speed>0.03</speed>
  <fix>3d</fix>
</trkpt>
<trkpt lat="33.8106174" lon="-118.3935615">
  <ele>-4.34</ele>
  <time>2026-09-01T01:14:53Z</time>
  <course>73.23</course>
  <speed>0.0</speed>
  <fix>3d</fix>
</trkpt>
<trkpt lat="33.8106173" lon="-118.3935613">
  <ele>-4.808</ele>
  <time>2026-09-01T01:14:53Z</time>
  <course>156.35</course>
  <speed>0.03</speed>
  <fix>3d</fix>
</trkpt>
<trkpt lat="33.8106174" lon="-118.3935615">
  <ele>-4.31</ele>
  <time>2026-09-01T01:14:53Z</time>
  <course>73.28</course>
  <speed>0.0</speed>
  <fix>3d</fix>
</trkpt>
<trkpt lat="33.8106173" lon="-118.3935613">
  <ele>-4.796</ele>
  <time>2026-09-01T01:14:53Z</time>
  <course>156.37</course>
  <speed>0.03</speed>
  <fix>3d</fix>
</trkpt>
<trkpt lat="33.8106174" lon="-118.3935615">
  <ele>-4.31</ele>
  <time>2026-09-01T01:14:53Z</time>
  <course>73.28</course>
  <speed>0.0</speed>
  <fix>3d</fix>
</trkpt>
<trkpt lat="33.8106173" lon="-118.3935613">
  <ele>-4.786</ele>
  <time>2026-09-01T01:14:53Z</time>
  <course>156.38</course>
  <speed>0.03</speed>
  <fix>3d</fix>
</trkpt>
<trkpt lat="33.8106174" lon="-118.3935615">
  <ele>-4.3</ele>
  <time>2026-09-01T01:14:53Z</time>
  <course>73.31</course>
  <speed>0.0</speed>
  <fix>3d</fix>
</trkpt>
<trkpt lat="33.8106173" lon="-118.3935613">
  <ele>-4.775</ele>
  <time>2026-09-01T01:14:53Z</time>
  <course>156.39</course>
  <speed>0.03</speed>
  <fix>3d</fix>
</trkpt>
<trkpt lat="33.8106174" lon="-118.3935615">
  <ele>-4.3</ele>
  <time>2026-09-01T01:14:53Z</time>
  <course>73.31</course>
  <speed>0.0</speed>
  <fix>3d</fix>
</trkpt>
<trkpt lat="33.8106173" lon="-118.3935613">
  <ele>-4.765</ele>
  <time>2026-09-01T01:14:53Z</time>
  <course>156.41</course>
  <speed>0.03</speed>
  <fix>3d</fix>
</trkpt>
<trkpt lat="33.8106174" lon="-118.3935615">
  <ele>-4.27</ele>
  <time>2026-09-01T01:14:53Z</time>
  <course>73.36</course>
  <speed>0.0</speed>
  <fix>3d</fix>
</trkpt>
<trkpt lat="33.8106173" lon="-118.3935613">
  <ele>-4.754</ele>
  <time>2026-09-01T01:14:53Z</time>
  <course>156.42</course>
  <speed>0.03</speed>
  <fix>3d</fix>
</trkpt>
<trkpt lat="33.8106174" lon="-118.3935615">
  <ele>-4.27</ele>
  <time>2026-09-01T01:14:53Z</time>
  <course>73.36</course>
  <speed>0.0</speed>
  <fix>3d</fix>
</trkpt>
<trkpt lat="33.8106173" lon="-118.3935613">
  <ele>-4.743</ele>
  <time>2026-09-01T01:14:53Z</time>
  <course>156.43</course>
  <speed>0.03</speed>
  <fix>3d</fix>
</trkpt>
<trkpt lat="33.8106174" lon="-118.3935615">
  <ele>-4.26</ele>
  <time>2026-09-01T01:14:53Z</time>
  <course>73.41</course>
  <speed>0.0</speed>
  <fix>3d</fix>
</trkpt>
<trkpt lat="33.8106173" lon="-118.3935612">
  <ele>-4.732</ele>
  <time>2026-09-01T01:14:53Z</time>
  <course>156.45</course>
  <speed>0.03</speed>
  <fix>3d</fix>
</trkpt>
<trkpt lat="33.8106174" lon="-118.3935615">
  <ele>-4.26</ele>
  <time>2026-09-01T01:14:53Z</time>
  <course>73.41</course>
  <speed>0.0</speed>
  <fix>3d</fix>
</trkpt>
<trkpt lat="33.8106173" lon="-118.3935612">
  <ele>-4.722</ele>
  <time>2026-09-01T01:14:53Z</time>
  <course>156.46</course>
  <speed>0.03</speed>
  <fix>3d</fix>
</trkpt>
<trkpt lat="33.8106174" lon="-118.3935615">
  <ele>-4.24</ele>
  <time>2026-09-01T01:14:53Z</time>
  <course>73.49</course>
  <speed>0.0</speed>
  <fix>3d</fix>
</trkpt>
<trkpt lat="33.8106173" lon="-118.3935612">
  <ele>-4.711</ele>
  <time>2026-09-01T01:14:53Z</time>
  <course>156.47</course>
  <speed>0.03</speed>
  <fix>3d</fix>
</trkpt>
<trkpt lat="33.8106174" lon="-118.3935615">
  <ele>-4.24</ele>
  <time>2026-09-01T01:14:53Z</time>
  <course>73.49</course>
  <speed>0.0</speed>
  <fix>3d</fix>
</trkpt>
<trkpt lat="33.8106173" lon="-118.3935612">
  <ele>-4.7</ele>
  <time>2026-09-01T01:14:53Z</time>
  <course>156.48</course>
  <speed>0.03</speed>
  <fix>3d</fix>
</trkpt>
<trkpt lat="33.8106174" lon="-118.3935614">
  <ele>-4.22</ele>
  <time>2026-09-01T01:14:53Z</time>
  <course>73.56</course>
  <speed>0.0</speed>
  <fix>3d</fix>
</trkpt>
<trkpt lat="33.8106173" lon="-118.3935612">
  <ele>-4.689</ele>
  <time>2026-09-01T01:14:53Z</time>
  <course>156.49</course>
  <speed>0.03</speed>
  <fix>3d</fix>
</trkpt>
<trkpt lat="33.8106174" lon="-118.3935614">
  <ele>-4.22</ele>
  <time>2026-09-01T01:14:53Z</time>
  <course>73.56</course>
  <speed>0.0</speed>
  <fix>3d</fix>
</trkpt>
<trkpt lat="33.8106173" lon="-118.3935612">
  <ele>-4.68</ele>
  <time>2026-09-01T01:14:53Z</time>
  <course>156.51</course>
  <speed>0.03</speed>
  <fix>3d</fix>
</trkpt>
<trkpt lat="33.8106174" lon="-118.3935614">
  <ele>-4.2</ele>
  <time>2026-09-01T01:14:53Z</time>
  <course>73.61</course>
  <speed>0.0</speed>
  <fix>3d</fix>
</trkpt>
<trkpt lat="33.8106173" lon="-118.3935612">
  <ele>-4.671</ele>
  <time>2026-09-01T01:14:53Z</time>
  <course>156.52</course>
  <speed>0.03</speed>
  <fix>3d</fix>
</trkpt>
<trkpt lat="33.8106174" lon="-118.3935614">
  <ele>-4.2</ele>
  <time>2026-09-01T01:14:53Z</time>
  <course>73.61</course>
  <speed>0.0</speed>
  <fix>3d</fix>
</trkpt>
<trkpt lat="33.8106173" lon="-118.3935612">
  <ele>-4.662</ele>
  <time>2026-09-01T01:14:53Z</time>
  <course>156.53</course>
  <speed>0.03</speed>
  <fix>3d</fix>
</trkpt>
<trkpt lat="33.8106175" lon="-118.3935614">
  <ele>-4.18</ele>
  <time>2026-09-01T01:14:53Z</time>
  <course>73.65</course>
  <speed>0.0</speed>
  <fix>3d</fix>
</trkpt>
<trkpt lat="33.8106173" lon="-118.3935612">
  <ele>-4.653</ele>
  <time>2026-09-01T01:14:53Z</time>
  <course>156.54</course>
  <speed>0.03</speed>
  <fix>3d</fix>
</trkpt>
<trkpt lat="33.8106175" lon="-118.3935614">
  <ele>-4.18</ele>
  <time>2026-09-01T01:14:53Z</time>
  <course>73.65</course>
  <speed>0.0</speed>
  <fix>3d</fix>
</trkpt>
<trkpt lat="33.8106173" lon="-118.3935612">
  <ele>-4.645</ele>
  <time>2026-09-01T01:14:53Z</time>
  <course>156.55</course>
  <speed>0.03</speed>
  <fix>3d</fix>
</trkpt>
<trkpt lat="33.8106175" lon="-118.3935614">
  <ele>-4.16</ele>
  <time>2026-09-01T01:14:53Z</time>
  <course>73.69</course>
  <speed>0.0</speed>
  <fix>3d</fix>
</trkpt>
<trkpt lat="33.8106173" lon="-118.3935611">
  <ele>-4.637</ele>
  <time>2026-09-01T01:14:53Z</time>
  <course>156.56</course>
  <speed>0.03</speed>
  <fix>3d</fix>
</trkpt>
<trkpt lat="33.8106175" lon="-118.3935614">
  <ele>-4.16</ele>
  <time>2026-09-01T01:14:53Z</time>
  <course>73.69</course>
  <speed>0.0</speed>
  <fix>3d</fix>
</trkpt>
<trkpt lat="33.8106173" lon="-118.3935611">
  <ele>-4.627</ele>
  <time>2026-09-01T01:14:53Z</time>
  <course>156.57</course>
  <speed>0.03</speed>
  <fix>3d</fix>
</trkpt>
<trkpt lat="33.8106175" lon="-118.3935614">
  <ele>-4.14</ele>
  <time>2026-09-01T01:14:53Z</time>
  <course>73.73</course>
  <speed>0.0</speed>
  <fix>3d</fix>
</trkpt>
<trkpt lat="33.8106173" lon="-118.3935611">
  <ele>-4.618</ele>
  <time>2026-09-01T01:14:53Z</time>
  <course>156.59</course>
  <speed>0.03</speed>
  <fix>3d</fix>
</trkpt>
<trkpt lat="33.8106175" lon="-118.3935614">
  <ele>-4.14</ele>
  <time>2026-09-01T01:14:53Z</time>
  <course>73.73</course>
  <speed>0.0</speed>
  <fix>3d</fix>
</trkpt>
<trkpt lat="33.8106174" lon="-118.3935611">
  <ele>-4.607</ele>
  <time>2026-09-01T01:14:53Z</time>
  <course>156.6</course>
  <speed>0.03</speed>
  <fix>3d</fix>
</trkpt>
<trkpt lat="33.8106175" lon="-118.3935614">
  <ele>-4.13</ele>
  <time>2026-09-01T01:14:53Z</time>
  <course>73.8</course>
  <speed>0.0</speed>
  <fix>3d</fix>
</trkpt>
<trkpt lat="33.8106174" lon="-118.3935611">
  <ele>-4.597</ele>
  <time>2026-09-01T01:14:53Z</time>
  <course>156.61</course>
  <speed>0.03</speed>
  <fix>3d</fix>
</trkpt>
<trkpt lat="33.8106175" lon="-118.3935614">
  <ele>-4.13</ele>
  <time>2026-09-01T01:14:53Z</time>
  <course>73.8</course>
  <speed>0.0</speed>
  <fix>3d</fix>
</trkpt>
<trkpt lat="33.8106174" lon="-118.3935611">
  <ele>-4.586</ele>
  <time>2026-09-01T01:14:53Z</time>
  <course>156.62</course>
  <speed>0.03</speed>
  <fix>3d</fix>
</trkpt>
<trkpt lat="33.8106175" lon="-118.3935614">
  <ele>-4.1</ele>
  <time>2026-09-01T01:14:53Z</time>
  <course>73.87</course>
  <speed>0.0</speed>
  <fix>3d</fix>
</trkpt>
<trkpt lat="33.8106174" lon="-118.3935611">
  <ele>-4.574</ele>
  <time>2026-09-01T01:14:53Z</time>
  <course>156.63</course>
  <speed>0.03</speed>
  <fix>3d</fix>
</trkpt>
<trkpt lat="33.8106175" lon="-118.3935614">
  <ele>-4.1</ele>
  <time>2026-09-01T01:14:53Z</time>
  <course>73.87</course>
  <speed>0.0</speed>
  <fix>3d</fix>
</trkpt>
<trkpt lat="33.8106174" lon="-118.3935611">
  <ele>-4.575</ele>
  <time>2026-09-01T01:14:53Z</time>
  <course>156.64</course>
  <speed>0.03</speed>
  <fix>3d</fix>
</trkpt>
<trkpt lat="33.8106175" lon="-118.3935613">
  <ele>-4.09</ele>
  <time>2026-09-01T01:14:53Z</time>
  <course>73.88</course>
  <speed>0.0</speed>
  <fix>3d</fix>
</trkpt>
<trkpt lat="33.8106174" lon="-118.3935611">
  <ele>-4.581</ele>
  <time>2026-09-01T01:14:53Z</time>
  <course>156.65</course>
  <speed>0.03</speed>
  <fix>3d</fix>
</trkpt>
<trkpt lat="33.8106175" lon="-118.3935613">
  <ele>-4.09</ele>
  <time>2026-09-01T01:14:53Z</time>
  <course>73.88</course>
  <speed>0.0</speed>
  <fix>3d</fix>
</trkpt>
<trkpt lat="33.8106174" lon="-118.3935611">
  <ele>-4.587</ele>
  <time>2026-09-01T01:14:53Z</time>
  <course>156.66</course>
  <speed>0.03</speed>
  <fix>3d</fix>
</trkpt>
<trkpt lat="33.8106175" lon="-118.3935612">
  <ele>-4.08</ele>
  <time>2026-09-01T01:14:53Z</time>
  <course>73.8</course>
  <speed>0.0</speed>
  <fix>3d</fix>
</trkpt>
<trkpt lat="33.8106174" lon="-118.3935611">
  <ele>-4.594</ele>
  <time>2026-09-01T01:14:53Z</time>
  <course>156.67</course>
  <speed>0.03</speed>
  <fix>3d</fix>
</trkpt>
<trkpt lat="33.8106175" lon="-118.3935612">
  <ele>-4.08</ele>
  <time>2026-09-01T01:14:53Z</time>
  <course>73.8</course>
  <speed>0.0</speed>
  <fix>3d</fix>
</trkpt>
<trkpt lat="33.8106174" lon="-118.393561">
  <ele>-4.601</ele>
  <time>2026-09-01T01:14:53Z</time>
  <course>156.68</course>
  <speed>0.03</speed>
  <fix>3d</fix>
</trkpt>
<trkpt lat="33.8106175" lon="-118.3935612">
  <ele>-4.09</ele>
  <time>2026-09-01T01:14:53Z</time>
  <course>73.78</course>
  <speed>0.0</speed>
  <fix>3d</fix>
</trkpt>
<trkpt lat="33.8106174" lon="-118.393561">
  <ele>-4.606</ele>
  <time>2026-09-01T01:14:53Z</time>
  <course>156.65</course>
  <speed>0.05099019513592785</speed>
  <fix>3d</fix>
</trkpt>
<trkpt lat="33.8106175" lon="-118.3935612">
  <ele>-4.09</ele>
  <time>2026-09-01T01:14:53Z</time>
  <course>73.78</course>
  <speed>0.0</speed>
  <fix>3d</fix>
</trkpt>
<trkpt lat="33.8106174" lon="-118.393561">
  <ele>-4.609</ele>
  <time>2026-09-01T01:14:53Z</time>
  <course>156.6</course>
  <speed>0.0824621125123532</speed>
  <fix>3d</fix>
</trkpt>
<trkpt lat="33.8106175" lon="-118.3935612">
  <ele>-4.1</ele>
  <time>2026-09-01T01:14:53Z</time>
  <course>97.64</course>
  <speed>0.01</speed>
  <fix>3d</fix>
</trkpt>
<trkpt lat="33.8106174" lon="-118.3935609">
  <ele>-4.611</ele>
  <time>2026-09-01T01:14:53Z</time>
  <course>156.54</course>
  <speed>0.1264911064067352</speed>
  <fix>3d</fix>
</trkpt>
<trkpt lat="33.8106175" lon="-118.3935612">
  <ele>-4.1</ele>
  <time>2026-09-01T01:14:53Z</time>
  <course>97.64</course>
  <speed>0.01</speed>
  <fix>3d</fix>
</trkpt>
<trkpt lat="33.8106174" lon="-118.3935608">
  <ele>-4.611</ele>
  <time>2026-09-01T01:14:53Z</time>
  <course>156.5</course>
  <speed>0.1708800749063506</speed>
  <fix>3d</fix>
</trkpt>
<trkpt lat="33.8106175" lon="-118.3935612">
  <ele>-4.11</ele>
  <time>2026-09-01T01:14:53Z</time>
  <course>108.47</course>
  <speed>0.06</speed>
  <fix>3d</fix>
</trkpt>
<trkpt lat="33.8106173" lon="-118.3935606">
  <ele>-4.609</ele>
  <time>2026-09-01T01:14:53Z</time>
  <course>156.48</course>
  <speed>0.2340939982143925</speed>
  <fix>3d</fix>
</trkpt>
<trkpt lat="33.8106175" lon="-118.3935612">
  <ele>-4.11</ele>
  <time>2026-09-01T01:14:53Z</time>
  <course>108.47</course>
  <speed>0.06</speed>
  <fix>3d</fix>
</trkpt>
<trkpt lat="33.8106173" lon="-118.3935603">
  <ele>-4.607</ele>
  <time>2026-09-01T01:14:53Z</time>
  <course>156.48</course>
  <speed>0.3101612483854165</speed>
  <fix>3d</fix>
</trkpt>
<trkpt lat="33.8106174" lon="-118.393561">
  <ele>-4.11</ele>
  <time>2026-09-01T01:14:53Z</time>
  <course>111.04</course>
  <speed>0.16</speed>
  <fix>3d</fix>
</trkpt>
<trkpt lat="33.8106171" lon="-118.39356">
  <ele>-4.603</ele>
  <time>2026-09-01T01:14:53Z</time>
  <course>156.51</course>
  <speed>0.3956008088970496</speed>
  <fix>3d</fix>
</trkpt>
<trkpt lat="33.8106174" lon="-118.393561">
  <ele>-4.11</ele>
  <time>2026-09-01T01:14:53Z</time>
  <course>111.04</course>
  <speed>0.16</speed>
  <fix>3d</fix>
</trkpt>
<trkpt lat="33.810617" lon="-118.3935596">
  <ele>-4.6</ele>
  <time>2026-09-01T01:14:53Z</time>
  <course>156.53</course>
  <speed>0.47169905660283024</speed>
  <fix>3d</fix>
</trkpt>
<trkpt lat="33.8106172" lon="-118.3935605">
  <ele>-4.11</ele>
  <time>2026-09-01T01:14:53Z</time>
  <course>111.39</course>
  <speed>0.3</speed>
  <fix>3d</fix>
</trkpt>
<trkpt lat="33.8106169" lon="-118.3935591">
  <ele>-4.597</ele>
  <time>2026-09-01T01:14:53Z</time>
  <course>156.54</course>
  <speed>0.5536244214266564</speed>
  <fix>3d</fix>
</trkpt>
<trkpt lat="33.8106172" lon="-118.3935605">
  <ele>-4.11</ele>
  <time>2026-09-01T01:14:53Z</time>
  <course>111.39</course>
  <speed>0.3</speed>
  <fix>3d</fix>
</trkpt>
<trkpt lat="33.8106167" lon="-118.3935586">
  <ele>-4.596</ele>
  <time>2026-09-01T01:14:53Z</time>
  <course>156.54</course>
  <speed>0.6168468205316454</speed>
  <fix>3d</fix>
</trkpt>
<trkpt lat="33.810617" lon="-118.3935597">
  <ele>-4.1</ele>
  <time>2026-09-01T01:14:53Z</time>
  <course>110.87</course>
  <speed>0.46</speed>
  <fix>3d</fix>
</trkpt>
<trkpt lat="33.8106165" lon="-118.3935579">
  <ele>-4.596</ele>
  <time>2026-09-01T01:14:53Z</time>
  <course>156.54</course>
  <speed>0.6800735254367721</speed>
  <fix>3d</fix>
</trkpt>
<trkpt lat="33.810617" lon="-118.3935597">
  <ele>-4.1</ele>
  <time>2026-09-01T01:14:53Z</time>
  <course>110.87</course>
  <speed>0.46</speed>
  <fix>3d</fix>
</trkpt>
<trkpt lat="33.8106163" lon="-118.3935572">
  <ele>-4.598</ele>
  <time>2026-09-01T01:14:53Z</time>
  <course>156.54</course>
  <speed>0.7338937252763509</speed>
  <fix>3d</fix>
</trkpt>
<trkpt lat="33.8106167" lon="-118.3935586">
  <ele>-4.1</ele>
  <time>2026-09-01T01:14:53Z</time>
  <course>110.27</course>
  <speed>0.6</speed>
  <fix>3d</fix>
</trkpt>
<trkpt lat="33.8106161" lon="-118.3935565">
  <ele>-4.601</ele>
  <time>2026-09-01T01:14:53Z</time>
  <course>156.54</course>
  <speed>0.7843468620451032</speed>
  <fix>3d</fix>
</trkpt>
<trkpt lat="33.8106167" lon="-118.3935586">
  <ele>-4.1</ele>
  <time>2026-09-01T01:14:53Z</time>
  <course>110.27</course>
  <speed>0.6</speed>
  <fix>3d</fix>
</trkpt>
<trkpt lat="33.8106158" lon="-118.3935557">
  <ele>-4.603</ele>
  <time>2026-09-01T01:14:53Z</time>
  <course>156.54</course>
  <speed>0.8159656855530139</speed>
  <fix>3d</fix>
</trkpt>
<trkpt lat="33.8106163" lon="-118.3935573">
  <ele>-4.1</ele>
  <time>2026-09-01T01:14:53Z</time>
  <course>109.79</course>
  <speed>0.71</speed>
  <fix>3d</fix>
</trkpt>
<trkpt lat="33.8106156" lon="-118.3935549">
  <ele>-4.605</ele>
  <time>2026-09-01T01:14:53Z</time>
  <course>156.54</course>
  <speed>0.8443340571124678</speed>
  <fix>3d</fix>
</trkpt>
<trkpt lat="33.8106163" lon="-118.3935573">
  <ele>-4.1</ele>
  <time>2026-09-01T01:14:53Z</time>
  <course>109.79</course>
  <speed>0.71</speed>
  <fix>3d</fix>
</trkpt>
<trkpt lat="33.8106154" lon="-118.3935541">
  <ele>-4.607</ele>
  <time>2026-09-01T01:14:53Z</time>
  <course>156.54</course>
  <speed>0.8664871608973788</speed>
  <fix>3d</fix>
</trkpt>
<trkpt lat="33.8106158" lon="-118.3935557">
  <ele>-4.1</ele>
  <time>2026-09-01T01:14:53Z</time>
  <course>109.36</course>
  <speed>0.79</speed>
  <fix>3d</fix>
</trkpt>
<trkpt lat="33.8106151" lon="-118.3935532">
  <ele>-4.607</ele>
  <time>2026-09-01T01:14:53Z</time>
  <course>156.55</course>
  <speed>0.8854377448471462</speed>
  <fix>3d</fix>
</trkpt>
<trkpt lat="33.8106158" lon="-118.3935557">
  <ele>-4.1</ele>
  <time>2026-09-01T01:14:53Z</time>
  <course>109.36</course>
  <speed>0.79</speed>
  <fix>3d</fix>
</trkpt>
<trkpt lat="33.8106149" lon="-118.3935524">
  <ele>-4.606</ele>
  <time>2026-09-01T01:14:53Z</time>
  <course>156.55</course>
  <speed>0.8949301648732151</speed>
  <fix>3d</fix>
</trkpt>
<trkpt lat="33.8106153" lon="-118.393554">
  <ele>-4.11</ele>
  <time>2026-09-01T01:14:53Z</time>
  <course>108.93</course>
  <speed>0.84</speed>
  <fix>3d</fix>
</trkpt>
<trkpt lat="33.8106146" lon="-118.3935515">
  <ele>-4.605</ele>
  <time>2026-09-01T01:14:53Z</time>
  <course>156.55</course>
  <speed>0.8949301648732151</speed>
  <fix>3d</fix>
</trkpt>
<trkpt lat="33.8106153" lon="-118.393554">
  <ele>-4.11</ele>
  <time>2026-09-01T01:14:53Z</time>
  <course>108.93</course>
  <speed>0.84</speed>
  <fix>3d</fix>
</trkpt>
<trkpt lat="33.8106144" lon="-118.3935506">
  <ele>-4.603</ele>
  <time>2026-09-01T01:14:53Z</time>
  <course>156.55</course>
  <speed>0.904433524367601</speed>
  <fix>3d</fix>
</trkpt>
<trkpt lat="33.8106149" lon="-118.3935523">
  <ele>-4.1</ele>
  <time>2026-09-01T01:14:53Z</time>
  <course>108.47</course>
  <speed>0.87</speed>
  <fix>3d</fix>
</trkpt>
<trkpt lat="33.8106142" lon="-118.3935497">
  <ele>-4.601</ele>
  <time>2026-09-01T01:14:53Z</time>
  <course>156.54</course>
  <speed>0.904433524367601</speed>
  <fix>3d</fix>
</trkpt>
<trkpt lat="33.8106149" lon="-118.3935523">
  <ele>-4.1</ele>
  <time>2026-09-01T01:14:53Z</time>
  <course>108.47</course>
  <speed>0.87</speed>
  <fix>3d</fix>
</trkpt>
<trkpt lat="33.8106139" lon="-118.3935488">
  <ele>-4.599</ele>
  <time>2026-09-01T01:14:53Z</time>
  <course>156.54</course>
  <speed>0.9109335870413386</speed>
  <fix>3d</fix>
</trkpt>
<trkpt lat="33.8106144" lon="-118.3935505">
  <ele>-4.1</ele>
  <time>2026-09-01T01:14:53Z</time>
  <course>108.05</course>
  <speed>0.88</speed>
  <fix>3d</fix>
</trkpt>
<trkpt lat="33.8106137" lon="-118.3935479">
  <ele>-4.598</ele>
  <time>2026-09-01T01:14:53Z</time>
  <course>156.55</course>
  <speed>0.9109335870413386</speed>
  <fix>3d</fix>
</trkpt>
<trkpt lat="33.8106144" lon="-118.3935505">
  <ele>-4.1</ele>
  <time>2026-09-01T01:14:53Z</time>
  <course>108.05</course>
  <speed>0.88</speed>
  <fix>3d</fix>
</trkpt>
<trkpt lat="33.8106134" lon="-118.393547">
  <ele>-4.598</ele>
  <time>2026-09-01T01:14:53Z</time>
  <course>156.55</course>
  <speed>0.9109335870413386</speed>
  <fix>3d</fix>
</trkpt>
<trkpt lat="33.8106139" lon="-118.3935486">
  <ele>-4.1</ele>
  <time>2026-09-01T01:14:53Z</time>
  <course>107.72</course>
  <speed>0.89</speed>
  <fix>3d</fix>
</trkpt>
<trkpt lat="33.8106132" lon="-118.393546">
  <ele>-4.599</ele>
  <time>2026-09-01T01:14:53Z</time>
  <course>156.55</course>
  <speed>0.9109335870413386</speed>
  <fix>3d</fix>
</trkpt>
<trkpt lat="33.8106139" lon="-118.3935486">
  <ele>-4.1</ele>
  <time>2026-09-01T01:14:53Z</time>
  <course>107.72</course>
  <speed>0.89</speed>
  <fix>3d</fix>
</trkpt>
<trkpt lat="33.810613" lon="-118.3935451">
  <ele>-4.601</ele>
  <time>2026-09-01T01:14:53Z</time>
  <course>156.55</course>
  <speed>0.9109335870413386</speed>
  <fix>3d</fix>
</trkpt>
<trkpt lat="33.8106134" lon="-118.3935468">
  <ele>-4.1</ele>
  <time>2026-09-01T01:14:53Z</time>
  <course>107.47</course>
  <speed>0.89</speed>
  <fix>3d</fix>
</trkpt>
<trkpt lat="33.8106127" lon="-118.3935442">
  <ele>-4.603</ele>
  <time>2026-09-01T01:14:53Z</time>
  <course>156.55</course>
  <speed>0.9109335870413386</speed>
  <fix>3d</fix>
</trkpt>
<trkpt lat="33.8106134" lon="-118.3935468">
  <ele>-4.1</ele>
  <time>2026-09-01T01:14:53Z</time>
  <course>107.47</course>
  <speed>0.89</speed>
  <fix>3d</fix>
</trkpt>
<trkpt lat="33.8106125" lon="-118.3935433">
  <ele>-4.605</ele>
  <time>2026-09-01T01:14:53Z</time>
  <course>156.56</course>
  <speed>0.9080198235721508</speed>
  <fix>3d</fix>
</trkpt>
<trkpt lat="33.8106129" lon="-118.3935449">
  <ele>-4.1</ele>
  <time>2026-09-01T01:14:53Z</time>
  <course>107.25</course>
  <speed>0.89</speed>
  <fix>3d</fix>
</trkpt>
<trkpt lat="33.8106123" lon="-118.3935424">
  <ele>-4.607</ele>
  <time>2026-09-01T01:14:53Z</time>
  <course>156.55</course>
  <speed>0.9080198235721508</speed>
  <fix>3d</fix>
</trkpt>
<trkpt lat="33.8106129" lon="-118.3935449">
  <ele>-4.1</ele>
  <time>2026-09-01T01:14:53Z</time>
  <course>107.25</course>
  <speed>0.89</speed>
  <fix>3d</fix>
</trkpt>
<trkpt lat="33.810612" lon="-118.3935414">
  <ele>-4.608</ele>
  <time>2026-09-01T01:14:53Z</time>
  <course>156.55</course>
  <speed>0.9080198235721508</speed>
  <fix>3d</fix>
</trkpt>
<trkpt lat="33.8106124" lon="-118.393543">
  <ele>-4.11</ele>
  <time>2026-09-01T01:14:53Z</time>
  <course>107.03</course>
  <speed>0.89</speed>
  <fix>3d</fix>
</trkpt>
<trkpt lat="33.8106118" lon="-118.3935405">
  <ele>-4.609</ele>
  <time>2026-09-01T01:14:53Z</time>
  <course>156.55</course>
  <speed>0.8984430978086481</speed>
  <fix>3d</fix>
</trkpt>
<trkpt lat="33.8106124" lon="-118.393543">
  <ele>-4.11</ele>
  <time>2026-09-01T01:14:53Z</time>
  <course>107.03</course>
  <speed>0.89</speed>
  <fix>3d</fix>
</trkpt>
<trkpt lat="33.8106116" lon="-118.3935396">
  <ele>-4.61</ele>
  <time>2026-09-01T01:14:53Z</time>
  <course>156.55</course>
  <speed>0.8956003573022958</speed>
  <fix>3d</fix>
</trkpt>
<trkpt lat="33.810612" lon="-118.3935412">
  <ele>-4.11</ele>
  <time>2026-09-01T01:14:53Z</time>
  <course>106.82</course>
  <speed>0.88</speed>
  <fix>3d</fix>
</trkpt>
<trkpt lat="33.8106114" lon="-118.3935387">
  <ele>-4.61</ele>
  <time>2026-09-01T01:14:53Z</time>
  <course>156.55</course>
  <speed>0.8956003573022958</speed>
  <fix>3d</fix>
</trkpt>
<trkpt lat="33.810612" lon="-118.3935412">
  <ele>-4.11</ele>
  <time>2026-09-01T01:14:53Z</time>
  <course>106.82</course>
  <speed>0.88</speed>
  <fix>3d</fix>
</trkpt>
<trkpt lat="33.8106111" lon="-118.3935378">
  <ele>-4.609</ele>
  <time>2026-09-01T01:14:53Z</time>
  <course>156.55</course>
  <speed>0.8860022573334675</speed>
  <fix>3d</fix>
</trkpt>
<trkpt lat="33.8106115" lon="-118.3935394">
  <ele>-4.11</ele>
  <time>2026-09-01T01:14:53Z</time>
  <course>106.65</course>
  <speed>0.87</speed>
  <fix>3d</fix>
</trkpt>
<trkpt lat="33.8106109" lon="-118.3935369">
  <ele>-4.608</ele>
  <time>2026-09-01T01:14:53Z</time>
  <course>156.55</course>
  <speed>0.8860022573334675</speed>
  <fix>3d</fix>
</trkpt>
<trkpt lat="33.8106115" lon="-118.3935394">
  <ele>-4.11</ele>
  <time>2026-09-01T01:14:53Z</time>
  <course>106.65</course>
  <speed>0.87</speed>
  <fix>3d</fix>
</trkpt>
<trkpt lat="33.8106107" lon="-118.393536">
  <ele>-4.605</ele>
  <time>2026-09-01T01:14:53Z</time>
  <course>156.56</course>
  <speed>0.8860022573334675</speed>
  <fix>3d</fix>
</trkpt>
<trkpt lat="33.8106111" lon="-118.3935376">
  <ele>-4.1</ele>
  <time>2026-09-01T01:14:53Z</time>
  <course>106.51</course>
  <speed>0.87</speed>
  <fix>3d</fix>
</trkpt>
<trkpt lat="33.8106105" lon="-118.3935351">
  <ele>-4.603</ele>
  <time>2026-09-01T01:14:53Z</time>
  <course>156.56</course>
  <speed>0.8764131445842195</speed>
  <fix>3d</fix>
</trkpt>
<trkpt lat="33.8106111" lon="-118.3935376">
  <ele>-4.1</ele>
  <time>2026-09-01T01:14:53Z</time>
  <course>106.51</course>
  <speed>0.87</speed>
  <fix>3d</fix>
</trkpt>
<trkpt lat="33.8106103" lon="-118.3935342">
  <ele>-4.602</ele>
  <time>2026-09-01T01:14:53Z</time>
  <course>156.56</course>
  <speed>0.8736131867136622</speed>
  <fix>3d</fix>
</trkpt>
<trkpt lat="33.8106106" lon="-118.3935358">
  <ele>-4.1</ele>
  <time>2026-09-01T01:14:53Z</time>
  <course>106.42</course>
  <speed>0.86</speed>
  <fix>3d</fix>
</trkpt>
<trkpt lat="33.8106101" lon="-118.3935334">
  <ele>-4.601</ele>
  <time>2026-09-01T01:14:53Z</time>
  <course>156.56</course>
  <speed>0.8736131867136622</speed>
  <fix>3d</fix>
</trkpt>
<trkpt lat="33.8106106" lon="-118.3935358">
  <ele>-4.1</ele>
  <time>2026-09-01T01:14:53Z</time>
  <course>106.42</course>
  <speed>0.86</speed>
  <fix>3d</fix>
</trkpt>
<trkpt lat="33.8106098" lon="-118.3935325">
  <ele>-4.602</ele>
  <time>2026-09-01T01:14:53Z</time>
  <course>156.55</course>
  <speed>0.8736131867136622</speed>
  <fix>3d</fix>
</trkpt>
<trkpt lat="33.8106102" lon="-118.393534">
  <ele>-4.1</ele>
  <time>2026-09-01T01:14:53Z</time>
  <course>106.35</course>
  <speed>0.85</speed>
  <fix>3d</fix>
</trkpt>
<trkpt lat="33.8106096" lon="-118.3935316">
  <ele>-4.602</ele>
  <time>2026-09-01T01:14:53Z</time>
  <course>156.56</course>
  <speed>0.8640023148117139</speed>
  <fix>3d</fix>
</trkpt>
<trkpt lat="33.8106102" lon="-118.393534">
  <ele>-4.1</ele>
  <time>2026-09-01T01:14:53Z</time>
  <course>106.35</course>
  <speed>0.85</speed>
  <fix>3d</fix>
</trkpt>
<trkpt lat="33.8106094" lon="-118.3935307">
  <ele>-4.602</ele>
  <time>2026-09-01T01:14:53Z</time>
  <course>156.56</course>
  <speed>0.8640023148117139</speed>
  <fix>3d</fix>
</trkpt>
<trkpt lat="33.8106097" lon="-118.3935322">
  <ele>-4.1</ele>
  <time>2026-09-01T01:14:53Z</time>
  <course>106.28</course>
  <speed>0.85</speed>
  <fix>3d</fix>
</trkpt>
<trkpt lat="33.8106092" lon="-118.3935298">
  <ele>-4.602</ele>
  <time>2026-09-01T01:14:53Z</time>
  <course>156.56</course>
  <speed>0.8640023148117139</speed>
  <fix>3d</fix>
</trkpt>
<trkpt lat="33.8106097" lon="-118.3935322">
  <ele>-4.1</ele>
  <time>2026-09-01T01:14:53Z</time>
  <course>106.28</course>
  <speed>0.85</speed>
  <fix>3d</fix>
</trkpt>
<trkpt lat="33.810609" lon="-118.3935289">
  <ele>-4.602</ele>
  <time>2026-09-01T01:14:53Z</time>
  <course>156.56</course>
  <speed>0.8640023148117139</speed>
  <fix>3d</fix>
</trkpt>
<trkpt lat="33.8106093" lon="-118.3935305">
  <ele>-4.1</ele>
  <time>2026-09-01T01:14:53Z</time>
  <course>106.21</course>
  <speed>0.84</speed>
  <fix>3d</fix>
</trkpt>
<trkpt lat="33.8106088" lon="-118.393528">
  <ele>-4.602</ele>
  <time>2026-09-01T01:14:53Z</time>
  <course>156.57</course>
  <speed>0.8544003745317531</speed>
  <fix>3d</fix>
</trkpt>
<trkpt lat="33.8106093" lon="-118.3935305">
  <ele>-4.1</ele>
  <time>2026-09-01T01:14:53Z</time>
  <course>106.21</course>
  <speed>0.84</speed>
  <fix>3d</fix>
</trkpt>
<trkpt lat="33.8106086" lon="-118.3935272">
  <ele>-4.602</ele>
  <time>2026-09-01T01:14:53Z</time>
  <course>156.56</course>
  <speed>0.8544003745317531</speed>
  <fix>3d</fix>
</trkpt>
<trkpt lat="33.8106089" lon="-118.3935287">
  <ele>-4.1</ele>
  <time>2026-09-01T01:14:53Z</time>
  <course>106.13</course>
  <speed>0.84</speed>
  <fix>3d</fix>
</trkpt>
<trkpt lat="33.8106083" lon="-118.3935263">
  <ele>-4.603</ele>
  <time>2026-09-01T01:14:53Z</time>
  <course>156.55</course>
  <speed>0.8544003745317531</speed>
  <fix>3d</fix>
</trkpt>
<trkpt lat="33.8106089" lon="-118.3935287">
  <ele>-4.1</ele>
  <time>2026-09-01T01:14:53Z</time>
  <course>106.13</course>
  <speed>0.84</speed>
  <fix>3d</fix>
</trkpt>
<trkpt lat="33.8106081" lon="-118.3935254">
  <ele>-4.603</ele>
  <time>2026-09-01T01:14:53Z</time>
  <course>156.56</course>
  <speed>0.8544003745317531</speed>
  <fix>3d</fix>
</trkpt>
<trkpt lat="33.8106085" lon="-118.393527">
  <ele>-4.1</ele>
  <time>2026-09-01T01:14:53Z</time>
  <course>106.09</course>
  <speed>0.83</speed>
  <fix>3d</fix>
</trkpt>
<trkpt lat="33.8106079" lon="-118.3935246">
  <ele>-4.603</ele>
  <time>2026-09-01T01:14:53Z</time>
  <course>156.56</course>
  <speed>0.8544003745317531</speed>
  <fix>3d</fix>
</trkpt>
<trkpt lat="33.8106085" lon="-118.393527">
  <ele>-4.1</ele>
  <time>2026-09-01T01:14:53Z</time>
  <course>106.09</course>
  <speed>0.83</speed>
  <fix>3d</fix>
</trkpt>
<trkpt lat="33.8106077" lon="-118.3935237">
  <ele>-4.604</ele>
  <time>2026-09-01T01:14:53Z</time>
  <course>156.56</course>
  <speed>0.8544003745317531</speed>
  <fix>3d</fix>
</trkpt>
<trkpt lat="33.810608" lon="-118.3935252">
  <ele>-4.11</ele>
  <time>2026-09-01T01:14:53Z</time>
  <course>106.1</course>
  <speed>0.83</speed>
  <fix>3d</fix>
</trkpt>
<trkpt lat="33.8106075" lon="-118.3935228">
  <ele>-4.604</ele>
  <time>2026-09-01T01:14:53Z</time>
  <course>156.57</course>
  <speed>0.8544003745317531</speed>
  <fix>3d</fix>
</trkpt>
<trkpt lat="33.810608" lon="-118.3935252">
  <ele>-4.11</ele>
  <time>2026-09-01T01:14:53Z</time>
  <course>106.1</course>
  <speed>0.83</speed>
  <fix>3d</fix>
</trkpt>
<trkpt lat="33.8106073" lon="-118.393522">
  <ele>-4.606</ele>
  <time>2026-09-01T01:14:53Z</time>
  <course>156.56</course>
  <speed>0.8544003745317531</speed>
  <fix>3d</fix>
</trkpt>
<trkpt lat="33.8106077" lon="-118.3935235">
  <ele>-4.11</ele>
  <time>2026-09-01T01:14:53Z</time>
  <course>106.09</course>
  <speed>0.83</speed>
  <fix>3d</fix>
</trkpt>
<trkpt lat="33.8106071" lon="-118.3935211">
  <ele>-4.606</ele>
  <time>2026-09-01T01:14:53Z</time>
  <course>156.56</course>
  <speed>0.8544003745317531</speed>
  <fix>3d</fix>
</trkpt>
<trkpt lat="33.8106077" lon="-118.3935235">
  <ele>-4.11</ele>
  <time>2026-09-01T01:14:53Z</time>
  <course>106.09</course>
  <speed>0.83</speed>
  <fix>3d</fix>
</trkpt>
<trkpt lat="33.8106069" lon="-118.3935202">
  <ele>-4.607</ele>
  <time>2026-09-01T01:14:53Z</time>
  <course>156.56</course>
  <speed>0.8544003745317531</speed>
  <fix>3d</fix>
</trkpt>
<trkpt lat="33.8106073" lon="-118.3935218">
  <ele>-4.11</ele>
  <time>2026-09-01T01:14:53Z</time>
  <course>106.11</course>
  <speed>0.82</speed>
  <fix>3d</fix>
</trkpt>
<trkpt lat="33.8106067" lon="-118.3935194">
  <ele>-4.606</ele>
  <time>2026-09-01T01:14:53Z</time>
  <course>156.55</course>
  <speed>0.8544003745317531</speed>
  <fix>3d</fix>
</trkpt>
<trkpt lat="33.8106073" lon="-118.3935218">
  <ele>-4.11</ele>
  <time>2026-09-01T01:14:53Z</time>
  <course>106.11</course>
  <speed>0.82</speed>
  <fix>3d</fix>
</trkpt>
<trkpt lat="33.8106065" lon="-118.3935185">
  <ele>-4.606</ele>
  <time>2026-09-01T01:14:53Z</time>
  <course>156.55</course>
  <speed>0.8544003745317531</speed>
  <fix>3d</fix>
</trkpt>
<trkpt lat="33.8106068" lon="-118.39352">
  <ele>-4.11</ele>
  <time>2026-09-01T01:14:53Z</time>
  <course>106.19</course>
  <speed>0.82</speed>
  <fix>3d</fix>
</trkpt>
<trkpt lat="33.8106063" lon="-118.3935176">
  <ele>-4.605</ele>
  <time>2026-09-01T01:14:53Z</time>
  <course>156.56</course>
  <speed>0.8544003745317531</speed>
  <fix>3d</fix>
</trkpt>
<trkpt lat="33.8106068" lon="-118.39352">
  <ele>-4.11</ele>
  <time>2026-09-01T01:14:53Z</time>
  <course>106.19</course>
  <speed>0.82</speed>
  <fix>3d</fix>
</trkpt>
<trkpt lat="33.8106061" lon="-118.3935168">
  <ele>-4.605</ele>
  <time>2026-09-01T01:14:53Z</time>
  <course>156.56</course>
  <speed>0.8544003745317531</speed>
  <fix>3d</fix>
</trkpt>
<trkpt lat="33.8106064" lon="-118.3935183">
  <ele>-4.11</ele>
  <time>2026-09-01T01:14:53Z</time>
  <course>106.26</course>
  <speed>0.82</speed>
  <fix>3d</fix>
</trkpt>
<trkpt lat="33.8106058" lon="-118.3935159">
  <ele>-4.604</ele>
  <time>2026-09-01T01:14:53Z</time>
  <course>156.57</course>
  <speed>0.8544003745317531</speed>
  <fix>3d</fix>
</trkpt>
<trkpt lat="33.8106064" lon="-118.3935183">
  <ele>-4.11</ele>
  <time>2026-09-01T01:14:53Z</time>
  <course>106.26</course>
  <speed>0.82</speed>
  <fix>3d</fix>
</trkpt>
<trkpt lat="33.8106056" lon="-118.3935151">
  <ele>-4.604</ele>
  <time>2026-09-01T01:14:53Z</time>
  <course>156.57</course>
  <speed>0.8544003745317531</speed>
  <fix>3d</fix>
</trkpt>
<trkpt lat="33.8106059" lon="-118.3935166">
  <ele>-4.11</ele>
  <time>2026-09-01T01:14:53Z</time>
  <course>106.29</course>
  <speed>0.82</speed>
  <fix>3d</fix>
</trkpt>
<trkpt lat="33.8106054" lon="-118.3935142">
  <ele>-4.604</ele>
  <time>2026-09-01T01:14:53Z</time>
  <course>156.56</course>
  <speed>0.8544003745317531</speed>
  <fix>3d</fix>
</trkpt>
<trkpt lat="33.8106059" lon="-118.3935166">
  <ele>-4.11</ele>
  <time>2026-09-01T01:14:53Z</time>
  <course>106.29</course>
  <speed>0.82</speed>
  <fix>3d</fix>
</trkpt>
<trkpt lat="33.8106052" lon="-118.3935133">
  <ele>-4.604</ele>
  <time>2026-09-01T01:14:53Z</time>
  <course>156.57</course>
  <speed>0.8544003745317531</speed>
  <fix>3d</fix>
</trkpt>
<trkpt lat="33.8106056" lon="-118.3935148">
  <ele>-4.11</ele>
  <time>2026-09-01T01:14:53Z</time>
  <course>106.27</course>
  <speed>0.82</speed>
  <fix>3d</fix>
</trkpt>
<trkpt lat="33.810605" lon="-118.3935125">
  <ele>-4.603</ele>
  <time>2026-09-01T01:14:53Z</time>
  <course>156.56</course>
  <speed>0.8544003745317531</speed>
  <fix>3d</fix>
</trkpt>
<trkpt lat="33.8106056" lon="-118.3935148">
  <ele>-4.11</ele>
  <time>2026-09-01T01:14:53Z</time>
  <course>106.27</course>
  <speed>0.82</speed>
  <fix>3d</fix>
</trkpt>
<trkpt lat="33.8106048" lon="-118.3935116">
  <ele>-4.602</ele>
  <time>2026-09-01T01:14:53Z</time>
  <course>156.55</course>
  <speed>0.8544003745317531</speed>
  <fix>3d</fix>
</trkpt>
<trkpt lat="33.8106052" lon="-118.3935131">
  <ele>-4.11</ele>
  <time>2026-09-01T01:14:53Z</time>
  <course>106.25</course>
  <speed>0.82</speed>
  <fix>3d</fix>
</trkpt>
<trkpt lat="33.8106046" lon="-118.3935107">
  <ele>-4.603</ele>
  <time>2026-09-01T01:14:53Z</time>
  <course>156.56</course>
  <speed>0.8544003745317531</speed>
  <fix>3d</fix>
</trkpt>
<trkpt lat="33.8106052" lon="-118.3935131">
  <ele>-4.11</ele>
  <time>2026-09-01T01:14:53Z</time>
  <course>106.25</course>
  <speed>0.82</speed>
  <fix>3d</fix>
</trkpt>
<trkpt lat="33.8106044" lon="-118.3935099">
  <ele>-4.605</ele>
  <time>2026-09-01T01:14:53Z</time>
  <course>156.57</course>
  <speed>0.8544003745317531</speed>
  <fix>3d</fix>
</trkpt>
<trkpt lat="33.8106047" lon="-118.3935114">
  <ele>-4.11</ele>
  <time>2026-09-01T01:14:53Z</time>
  <course>106.32</course>
  <speed>0.83</speed>
  <fix>3d</fix>
</trkpt>
<trkpt lat="33.8106042" lon="-118.393509">
  <ele>-4.606</ele>
  <time>2026-09-01T01:14:53Z</time>
  <course>156.56</course>
  <speed>0.8640023148117139</speed>
  <fix>3d</fix>
</trkpt>
<trkpt lat="33.8106047" lon="-118.3935114">
  <ele>-4.11</ele>
  <time>2026-09-01T01:14:53Z</time>
  <course>106.32</course>
  <speed>0.83</speed>
  <fix>3d</fix>
</trkpt>
<trkpt lat="33.810604" lon="-118.3935082">
  <ele>-4.607</ele>
  <time>2026-09-01T01:14:53Z</time>
  <course>156.55</course>
  <speed>0.8640023148117139</speed>
  <fix>3d</fix>
</trkpt>
<trkpt lat="33.8106043" lon="-118.3935097">
  <ele>-4.11</ele>
  <time>2026-09-01T01:14:53Z</time>
  <course>106.38</course>
  <speed>0.83</speed>
  <fix>3d</fix>
</trkpt>
<trkpt lat="33.8106037" lon="-118.3935073">
  <ele>-4.608</ele>
  <time>2026-09-01T01:14:53Z</time>
  <course>156.55</course>
  <speed>0.8640023148117139</speed>
  <fix>3d</fix>
</trkpt>
<trkpt lat="33.8106043" lon="-118.3935097">
  <ele>-4.11</ele>
  <time>2026-09-01T01:14:53Z</time>
  <course>106.38</course>
  <speed>0.83</speed>
  <fix>3d</fix>
</trkpt>
<trkpt lat="33.8106035" lon="-118.3935064">
  <ele>-4.609</ele>
  <time>2026-09-01T01:14:53Z</time>
  <course>156.56</course>
  <speed>0.8640023148117139</speed>
  <fix>3d</fix>
</trkpt>
<trkpt lat="33.8106039" lon="-118.393508">
  <ele>-4.12</ele>
  <time>2026-09-01T01:14:53Z</time>
  <course>106.4</course>
  <speed>0.83</speed>
  <fix>3d</fix>
</trkpt>
<trkpt lat="33.8106033" lon="-118.3935055">
  <ele>-4.609</ele>
  <time>2026-09-01T01:14:53Z</time>
  <course>156.57</course>
  <speed>0.8640023148117139</speed>
  <fix>3d</fix>
</trkpt>
<trkpt lat="33.8106039" lon="-118.393508">
  <ele>-4.12</ele>
  <time>2026-09-01T01:14:53Z</time>
  <course>106.4</course>
  <speed>0.83</speed>
  <fix>3d</fix>
</trkpt>
<trkpt lat="33.8106031" lon="-118.3935047">
  <ele>-4.609</ele>
  <time>2026-09-01T01:14:53Z</time>
  <course>156.57</course>
  <speed>0.8640023148117139</speed>
  <fix>3d</fix>
</trkpt>
<trkpt lat="33.8106035" lon="-118.3935062">
  <ele>-4.11</ele>
  <time>2026-09-01T01:14:53Z</time>
  <course>106.41</course>
  <speed>0.83</speed>
  <fix>3d</fix>
</trkpt>
<trkpt lat="33.8106029" lon="-118.3935038">
  <ele>-4.609</ele>
  <time>2026-09-01T01:14:53Z</time>
  <course>156.57</course>
  <speed>0.8640023148117139</speed>
  <fix>3d</fix>
</trkpt>
<trkpt lat="33.8106035" lon="-118.3935062">
  <ele>-4.11</ele>
  <time>2026-09-01T01:14:53Z</time>
  <course>106.41</course>
  <speed>0.83</speed>
  <fix>3d</fix>
</trkpt>
<trkpt lat="33.8106027" lon="-118.3935029">
  <ele>-4.607</ele>
  <time>2026-09-01T01:14:53Z</time>
  <course>156.57</course>
  <speed>0.8668333173107734</speed>
  <fix>3d</fix>
</trkpt>
<trkpt lat="33.810603" lon="-118.3935045">
  <ele>-4.11</ele>
  <time>2026-09-01T01:14:53Z</time>
  <course>106.44</course>
  <speed>0.84</speed>
  <fix>3d</fix>
</trkpt>
<trkpt lat="33.8106025" lon="-118.3935021">
  <ele>-4.606</ele>
  <time>2026-09-01T01:14:53Z</time>
  <course>156.56</course>
  <speed>0.8668333173107734</speed>
  <fix>3d</fix>
</trkpt>
<trkpt lat="33.810603" lon="-118.3935045">
  <ele>-4.11</ele>
  <time>2026-09-01T01:14:53Z</time>
  <course>106.44</course>
  <speed>0.84</speed>
  <fix>3d</fix>
</trkpt>
<trkpt lat="33.8106022" lon="-118.3935012">
  <ele>-4.605</ele>
  <time>2026-09-01T01:14:53Z</time>
  <course>156.55</course>
  <speed>0.8764131445842195</speed>
  <fix>3d</fix>
</trkpt>
<trkpt lat="33.8106026" lon="-118.3935028">
  <ele>-4.11</ele>
  <time>2026-09-01T01:14:53Z</time>
  <course>106.45</course>
  <speed>0.84</speed>
  <fix>3d</fix>
</trkpt>
<trkpt lat="33.810602" lon="-118.3935003">
  <ele>-4.604</ele>
  <time>2026-09-01T01:14:53Z</time>
  <course>156.54</course>
  <speed>0.8764131445842195</speed>
  <fix>3d</fix>
</trkpt>
<trkpt lat="33.8106026" lon="-118.3935028">
  <ele>-4.11</ele>
  <time>2026-09-01T01:14:53Z</time>
  <course>106.45</course>
  <speed>0.84</speed>
  <fix>3d</fix>
</trkpt>
<trkpt lat="33.8106018" lon="-118.3934994">
  <ele>-4.605</ele>
  <time>2026-09-01T01:14:53Z</time>
  <course>156.56</course>
  <speed>0.8764131445842195</speed>
  <fix>3d</fix>
</trkpt>
<trkpt lat="33.8106022" lon="-118.393501">
  <ele>-4.11</ele>
  <time>2026-09-01T01:14:53Z</time>
  <course>106.43</course>
  <speed>0.84</speed>
  <fix>3d</fix>
</trkpt>
<trkpt lat="33.8106016" lon="-118.3934986">
  <ele>-4.606</ele>
  <time>2026-09-01T01:14:53Z</time>
  <course>156.57</course>
  <speed>0.8764131445842195</speed>
  <fix>3d</fix>
</trkpt>
<trkpt lat="33.8106022" lon="-118.393501">
  <ele>-4.11</ele>
  <time>2026-09-01T01:14:53Z</time>
  <course>106.43</course>
  <speed>0.84</speed>
  <fix>3d</fix>
</trkpt>
<trkpt lat="33.8106014" lon="-118.3934977">
  <ele>-4.608</ele>
  <time>2026-09-01T01:14:53Z</time>
  <course>156.57</course>
  <speed>0.8764131445842195</speed>
  <fix>3d</fix>
</trkpt>
<trkpt lat="33.8106018" lon="-118.3934993">
  <ele>-4.11</ele>
  <time>2026-09-01T01:14:53Z</time>
  <course>106.43</course>
  <speed>0.84</speed>
  <fix>3d</fix>
</trkpt>
<trkpt lat="33.8106012" lon="-118.3934968">
  <ele>-4.609</ele>
  <time>2026-09-01T01:14:53Z</time>
  <course>156.57</course>
  <speed>0.8764131445842195</speed>
  <fix>3d</fix>
</trkpt>
<trkpt lat="33.8106018" lon="-118.3934993">
  <ele>-4.11</ele>
  <time>2026-09-01T01:14:53Z</time>
  <course>106.43</course>
  <speed>0.84</speed>
  <fix>3d</fix>
</trkpt>
<trkpt lat="33.810601" lon="-118.3934959">
  <ele>-4.61</ele>
  <time>2026-09-01T01:14:53Z</time>
  <course>156.57</course>
  <speed>0.8764131445842195</speed>
  <fix>3d</fix>
</trkpt>
<trkpt lat="33.8106013" lon="-118.3934975">
  <ele>-4.11</ele>
  <time>2026-09-01T01:14:53Z</time>
  <course>106.46</course>
  <speed>0.85</speed>
  <fix>3d</fix>
</trkpt>
<trkpt lat="33.8106007" lon="-118.393495">
  <ele>-4.611</ele>
  <time>2026-09-01T01:14:53Z</time>
  <course>156.56</course>
  <speed>0.8764131445842195</speed>
  <fix>3d</fix>
</trkpt>
<trkpt lat="33.8106013" lon="-118.3934975">
  <ele>-4.11</ele>
  <time>2026-09-01T01:14:53Z</time>
  <course>106.46</course>
  <speed>0.85</speed>
  <fix>3d</fix>
</trkpt>
<trkpt lat="33.8106005" lon="-118.3934942">
  <ele>-4.611</ele>
  <time>2026-09-01T01:14:53Z</time>
  <course>156.55</course>
  <speed>0.8764131445842195</speed>
  <fix>3d</fix>
</trkpt>
<trkpt lat="33.8106009" lon="-118.3934957">
  <ele>-4.1</ele>
  <time>2026-09-01T01:14:53Z</time>
  <course>106.47</course>
  <speed>0.85</speed>
  <fix>3d</fix>
</trkpt>
<trkpt lat="33.8106003" lon="-118.3934933">
  <ele>-4.609</ele>
  <time>2026-09-01T01:14:53Z</time>
  <course>156.55</course>
  <speed>0.8860022573334675</speed>
  <fix>3d</fix>
</trkpt>
<trkpt lat="33.8106009" lon="-118.3934957">
  <ele>-4.1</ele>
  <time>2026-09-01T01:14:53Z</time>
  <course>106.47</course>
  <speed>0.85</speed>
  <fix>3d</fix>
</trkpt>
<trkpt lat="33.8106001" lon="-118.3934924">
  <ele>-4.606</ele>
  <time>2026-09-01T01:14:53Z</time>
  <course>156.56</course>
  <speed>0.8860022573334675</speed>
  <fix>3d</fix>
</trkpt>
<trkpt lat="33.8106005" lon="-118.393494">
  <ele>-4.1</ele>
  <time>2026-09-01T01:14:53Z</time>
  <course>106.47</course>
  <speed>0.85</speed>
  <fix>3d</fix>
</trkpt>
<trkpt lat="33.8105999" lon="-118.3934915">
  <ele>-4.602</ele>
  <time>2026-09-01T01:14:53Z</time>
  <course>156.55</course>
  <speed>0.8860022573334675</speed>
  <fix>3d</fix>
</trkpt>
<trkpt lat="33.8106005" lon="-118.393494">
  <ele>-4.1</ele>
  <time>2026-09-01T01:14:53Z</time>
  <course>106.47</course>
  <speed>0.85</speed>
  <fix>3d</fix>
</trkpt>
<trkpt lat="33.8105997" lon="-118.3934906">
  <ele>-4.6</ele>
  <time>2026-09-01T01:14:53Z</time>
  <course>156.55</course>
  <speed>0.8860022573334675</speed>
  <fix>3d</fix>
</trkpt>
<trkpt lat="33.8106" lon="-118.3934922">
  <ele>-4.1</ele>
  <time>2026-09-01T01:14:53Z</time>
  <course>106.5</course>
  <speed>0.85</speed>
  <fix>3d</fix>
</trkpt>
<trkpt lat="33.8105994" lon="-118.3934897">
  <ele>-4.599</ele>
  <time>2026-09-01T01:14:53Z</time>
  <course>156.56</course>
  <speed>0.8860022573334675</speed>
  <fix>3d</fix>
</trkpt>
<trkpt lat="33.8106" lon="-118.3934922">
  <ele>-4.1</ele>
  <time>2026-09-01T01:14:53Z</time>
  <course>106.5</course>
  <speed>0.85</speed>
  <fix>3d</fix>
</trkpt>
<trkpt lat="33.8105992" lon="-118.3934888">
  <ele>-4.6</ele>
  <time>2026-09-01T01:14:53Z</time>
  <course>156.57</course>
  <speed>0.8860022573334675</speed>
  <fix>3d</fix>
</trkpt>
<trkpt lat="33.8105996" lon="-118.3934904">
  <ele>-4.09</ele>
  <time>2026-09-01T01:14:53Z</time>
  <course>106.51</course>
  <speed>0.85</speed>
  <fix>3d</fix>
</trkpt>
<trkpt lat="33.810599" lon="-118.3934879">
  <ele>-4.601</ele>
  <time>2026-09-01T01:14:53Z</time>
  <course>156.57</course>
  <speed>0.8860022573334675</speed>
  <fix>3d</fix>
</trkpt>
<trkpt lat="33.8105996" lon="-118.3934904">
  <ele>-4.09</ele>
  <time>2026-09-01T01:14:53Z</time>
  <course>106.51</course>
  <speed>0.85</speed>
  <fix>3d</fix>
</trkpt>
<trkpt lat="33.8105988" lon="-118.393487">
  <ele>-4.602</ele>
  <time>2026-09-01T01:14:53Z</time>
  <course>156.57</course>
  <speed>0.8860022573334675</speed>
  <fix>3d</fix>
</trkpt>
<trkpt lat="33.8105992" lon="-118.3934887">
  <ele>-4.09</ele>
  <time>2026-09-01T01:14:53Z</time>
  <course>106.51</course>
  <speed>0.86</speed>
  <fix>3d</fix>
</trkpt>
<trkpt lat="33.8105986" lon="-118.3934861">
  <ele>-4.603</ele>
  <time>2026-09-01T01:14:53Z</time>
  <course>156.57</course>
  <speed>0.8860022573334675</speed>
  <fix>3d</fix>
</trkpt>
<trkpt lat="33.8105992" lon="-118.3934887">
  <ele>-4.09</ele>
  <time>2026-09-01T01:14:53Z</time>
  <course>106.51</course>
  <speed>0.86</speed>
  <fix>3d</fix>
</trkpt>
<trkpt lat="33.8105983" lon="-118.3934853">
  <ele>-4.604</ele>
  <time>2026-09-01T01:14:53Z</time>
  <course>156.57</course>
  <speed>0.8860022573334675</speed>
  <fix>3d</fix>
</trkpt>
<trkpt lat="33.8105987" lon="-118.3934869">
  <ele>-4.1</ele>
  <time>2026-09-01T01:14:53Z</time>
  <course>106.52</course>
  <speed>0.86</speed>
  <fix>3d</fix>
</trkpt>
<trkpt lat="33.8105981" lon="-118.3934844">
  <ele>-4.604</ele>
  <time>2026-09-01T01:14:53Z</time>
  <course>156.56</course>
  <speed>0.8956003573022958</speed>
  <fix>3d</fix>
</trkpt>
<trkpt lat="33.8105987" lon="-118.3934869">
  <ele>-4.1</ele>
  <time>2026-09-01T01:14:53Z</time>
  <course>106.52</course>
  <speed>0.86</speed>
  <fix>3d</fix>
</trkpt>
<trkpt lat="33.8105979" lon="-118.3934835">
  <ele>-4.603</ele>
  <time>2026-09-01T01:14:53Z</time>
  <course>156.56</course>
  <speed>0.8956003573022958</speed>
  <fix>3d</fix>
</trkpt>
<trkpt lat="33.8105982" lon="-118.3934851">
  <ele>-4.1</ele>
  <time>2026-09-01T01:14:53Z</time>
  <course>106.53</course>
  <speed>0.86</speed>
  <fix>3d</fix>
</trkpt>
<trkpt lat="33.8105977" lon="-118.3934826">
  <ele>-4.603</ele>
  <time>2026-09-01T01:14:53Z</time>
  <course>156.56</course>
  <speed>0.8956003573022958</speed>
  <fix>3d</fix>
</trkpt>
<trkpt lat="33.8105982" lon="-118.3934851">
  <ele>-4.1</ele>
  <time>2026-09-01T01:14:53Z</time>
  <course>106.53</course>
  <speed>0.86</speed>
  <fix>3d</fix>
</trkpt>
<trkpt lat="33.8105974" lon="-118.3934817">
  <ele>-4.604</ele>
  <time>2026-09-01T01:14:53Z</time>
  <course>156.56</course>
  <speed>0.8956003573022958</speed>
  <fix>3d</fix>
</trkpt>
<trkpt lat="33.8105978" lon="-118.3934832">
  <ele>-4.1</ele>
  <time>2026-09-01T01:14:53Z</time>
  <course>106.5</course>
  <speed>0.86</speed>
  <fix>3d</fix>
</trkpt>
<trkpt lat="33.8105972" lon="-118.3934808">
  <ele>-4.605</ele>
  <time>2026-09-01T01:14:53Z</time>
  <course>156.57</course>
  <speed>0.8956003573022958</speed>
  <fix>3d</fix>
</trkpt>
<trkpt lat="33.8105978" lon="-118.3934832">
  <ele>-4.1</ele>
  <time>2026-09-01T01:14:53Z</time>
  <course>106.5</course>
  <speed>0.86</speed>
  <fix>3d</fix>
</trkpt>
<trkpt lat="33.810597" lon="-118.3934799">
  <ele>-4.606</ele>
  <time>2026-09-01T01:14:53Z</time>
  <course>156.57</course>
  <speed>0.8956003573022958</speed>
  <fix>3d</fix>
</trkpt>
<trkpt lat="33.8105974" lon="-118.3934815">
  <ele>-4.1</ele>
  <time>2026-09-01T01:14:53Z</time>
  <course>106.44</course>
  <speed>0.86</speed>
  <fix>3d</fix>
</trkpt>
<trkpt lat="33.8105968" lon="-118.393479">
  <ele>-4.607</ele>
  <time>2026-09-01T01:14:53Z</time>
  <course>156.57</course>
  <speed>0.8956003573022958</speed>
  <fix>3d</fix>
</trkpt>
<trkpt lat="33.8105974" lon="-118.3934815">
  <ele>-4.1</ele>
  <time>2026-09-01T01:14:53Z</time>
  <course>106.44</course>
  <speed>0.86</speed>
  <fix>3d</fix>
</trkpt>
<trkpt lat="33.8105966" lon="-118.3934781">
  <ele>-4.607</ele>
  <time>2026-09-01T01:14:53Z</time>
  <course>156.57</course>
  <speed>0.8956003573022958</speed>
  <fix>3d</fix>
</trkpt>
<trkpt lat="33.8105969" lon="-118.3934797">
  <ele>-4.1</ele>
  <time>2026-09-01T01:14:53Z</time>
  <course>106.41</course>
  <speed>0.87</speed>
  <fix>3d</fix>
</trkpt>
<trkpt lat="33.8105963" lon="-118.3934772">
  <ele>-4.605</ele>
  <time>2026-09-01T01:14:53Z</time>
  <course>156.56</course>
  <speed>0.9052071586106685</speed>
  <fix>3d</fix>
</trkpt>
<trkpt lat="33.8105969" lon="-118.3934797">
  <ele>-4.1</ele>
  <time>2026-09-01T01:14:53Z</time>
  <course>106.41</course>
  <speed>0.87</speed>
  <fix>3d</fix>
</trkpt>
<trkpt lat="33.8105961" lon="-118.3934762">
  <ele>-4.602</ele>
  <time>2026-09-01T01:14:53Z</time>
  <course>156.56</course>
  <speed>0.9052071586106685</speed>
  <fix>3d</fix>
</trkpt>
<trkpt lat="33.8105965" lon="-118.3934779">
  <ele>-4.1</ele>
  <time>2026-09-01T01:14:53Z</time>
  <course>106.4</course>
  <speed>0.87</speed>
  <fix>3d</fix>
</trkpt>
<trkpt lat="33.8105959" lon="-118.3934753">
  <ele>-4.599</ele>
  <time>2026-09-01T01:14:53Z</time>
  <course>156.56</course>
  <speed>0.9080198235721508</speed>
  <fix>3d</fix>
</trkpt>
<trkpt lat="33.8105965" lon="-118.3934779">
  <ele>-4.1</ele>
  <time>2026-09-01T01:14:53Z</time>
  <course>106.4</course>
  <speed>0.87</speed>
  <fix>3d</fix>
</trkpt>
<trkpt lat="33.8105957" lon="-118.3934744">
  <ele>-4.599</ele>
  <time>2026-09-01T01:14:53Z</time>
  <course>156.57</course>
  <speed>0.9080198235721508</speed>
  <fix>3d</fix>
</trkpt>
<trkpt lat="33.8105961" lon="-118.393476">
  <ele>-4.1</ele>
  <time>2026-09-01T01:14:53Z</time>
  <course>106.4</course>
  <speed>0.87</speed>
  <fix>3d</fix>
</trkpt>
<trkpt lat="33.8105954" lon="-118.3934735">
  <ele>-4.6</ele>
  <time>2026-09-01T01:14:53Z</time>
  <course>156.56</course>
  <speed>0.9080198235721508</speed>
  <fix>3d</fix>
</trkpt>
<trkpt lat="33.8105961" lon="-118.393476">
  <ele>-4.1</ele>
  <time>2026-09-01T01:14:53Z</time>
  <course>106.4</course>
  <speed>0.87</speed>
  <fix>3d</fix>
</trkpt>
<trkpt lat="33.8105952" lon="-118.3934726">
  <ele>-4.601</ele>
  <time>2026-09-01T01:14:53Z</time>
  <course>156.55</course>
  <speed>0.9080198235721508</speed>
  <fix>3d</fix>
</trkpt>
<trkpt lat="33.8105956" lon="-118.3934742">
  <ele>-4.1</ele>
  <time>2026-09-01T01:14:53Z</time>
  <course>106.43</course>
  <speed>0.87</speed>
  <fix>3d</fix>
</trkpt>
<trkpt lat="33.810595" lon="-118.3934717">
  <ele>-4.602</ele>
  <time>2026-09-01T01:14:53Z</time>
  <course>156.55</course>
  <speed>0.9080198235721508</speed>
  <fix>3d</fix>
</trkpt>
<trkpt lat="33.8105956" lon="-118.3934742">
  <ele>-4.1</ele>
  <time>2026-09-01T01:14:53Z</time>
  <course>106.43</course>
  <speed>0.87</speed>
  <fix>3d</fix>
</trkpt>
<trkpt lat="33.8105948" lon="-118.3934708">
  <ele>-4.603</ele>
  <time>2026-09-01T01:14:53Z</time>
  <course>156.55</course>
  <speed>0.9080198235721508</speed>
  <fix>3d</fix>
</trkpt>
<trkpt lat="33.8105951" lon="-118.3934724">
  <ele>-4.1</ele>
  <time>2026-09-01T01:14:53Z</time>
  <course>106.48</course>
  <speed>0.88</speed>
  <fix>3d</fix>
</trkpt>
<trkpt lat="33.8105945" lon="-118.3934699">
  <ele>-4.605</ele>
  <time>2026-09-01T01:14:53Z</time>
  <course>156.56</course>
  <speed>0.9080198235721508</speed>
  <fix>3d</fix>
</trkpt>
<trkpt lat="33.8105951" lon="-118.3934724">
  <ele>-4.1</ele>
  <time>2026-09-01T01:14:53Z</time>
  <course>106.48</course>
  <speed>0.88</speed>
  <fix>3d</fix>
</trkpt>
<trkpt lat="33.8105943" lon="-118.3934689">
  <ele>-4.608</ele>
  <time>2026-09-01T01:14:53Z</time>
  <course>156.56</course>
  <speed>0.9080198235721508</speed>
  <fix>3d</fix>
</trkpt>
<trkpt lat="33.8105947" lon="-118.3934706">
  <ele>-4.11</ele>
  <time>2026-09-01T01:14:53Z</time>
  <course>106.48</course>
  <speed>0.88</speed>
  <fix>3d</fix>
</trkpt>
<trkpt lat="33.8105941" lon="-118.393468">
  <ele>-4.61</ele>
  <time>2026-09-01T01:14:53Z</time>
  <course>156.56</course>
  <speed>0.9176055797563569</speed>
  <fix>3d</fix>
</trkpt>
<trkpt lat="33.8105947" lon="-118.3934706">
  <ele>-4.11</ele>
  <time>2026-09-01T01:14:53Z</time>
  <course>106.48</course>
  <speed>0.88</speed>
  <fix>3d</fix>
</trkpt>
<trkpt lat="33.8105939" lon="-118.3934671">
  <ele>-4.611</ele>
  <time>2026-09-01T01:14:53Z</time>
  <course>156.56</course>
  <speed>0.9176055797563569</speed>
  <fix>3d</fix>
</trkpt>
<trkpt lat="33.8105943" lon="-118.3934687">
  <ele>-4.11</ele>
  <time>2026-09-01T01:14:53Z</time>
  <course>106.45</course>
  <speed>0.88</speed>
  <fix>3d</fix>
</trkpt>
<trkpt lat="33.8105936" lon="-118.3934662">
  <ele>-4.611</ele>
  <time>2026-09-01T01:14:53Z</time>
  <course>156.56</course>
  <speed>0.9176055797563569</speed>
  <fix>3d</fix>
</trkpt>
<trkpt lat="33.8105943" lon="-118.3934687">
  <ele>-4.11</ele>
  <time>2026-09-01T01:14:53Z</time>
  <course>106.45</course>
  <speed>0.88</speed>
  <fix>3d</fix>
</trkpt>
<trkpt lat="33.8105934" lon="-118.3934653">
  <ele>-4.611</ele>
  <time>2026-09-01T01:14:53Z</time>
  <course>156.56</course>
  <speed>0.9176055797563569</speed>
  <fix>3d</fix>
</trkpt>
<trkpt lat="33.8105938" lon="-118.3934669">
  <ele>-4.11</ele>
  <time>2026-09-01T01:14:53Z</time>
  <course>106.46</course>
  <speed>0.88</speed>
  <fix>3d</fix>
</trkpt>
<trkpt lat="33.8105932" lon="-118.3934643">
  <ele>-4.61</ele>
  <time>2026-09-01T01:14:53Z</time>
  <course>156.56</course>
  <speed>0.9176055797563569</speed>
  <fix>3d</fix>
</trkpt>
<trkpt lat="33.8105938" lon="-118.3934669">
  <ele>-4.11</ele>
  <time>2026-09-01T01:14:53Z</time>
  <course>106.46</course>
  <speed>0.88</speed>
  <fix>3d</fix>
</trkpt>
<trkpt lat="33.810593" lon="-118.3934634">
  <ele>-4.608</ele>
  <time>2026-09-01T01:14:53Z</time>
  <course>156.56</course>
  <speed>0.9176055797563569</speed>
  <fix>3d</fix>
</trkpt>
<trkpt lat="33.8105934" lon="-118.393465">
  <ele>-4.11</ele>
  <time>2026-09-01T01:14:53Z</time>
  <course>106.5</course>
  <speed>0.88</speed>
  <fix>3d</fix>
</trkpt>
<trkpt lat="33.8105927" lon="-118.3934625">
  <ele>-4.606</ele>
  <time>2026-09-01T01:14:53Z</time>
  <course>156.56</course>
  <speed>0.9176055797563569</speed>
  <fix>3d</fix>
</trkpt>
<trkpt lat="33.8105934" lon="-118.393465">
  <ele>-4.11</ele>
  <time>2026-09-01T01:14:53Z</time>
  <course>106.5</course>
  <speed>0.88</speed>
  <fix>3d</fix>
</trkpt>
<trkpt lat="33.8105925" lon="-118.3934616">
  <ele>-4.604</ele>
  <time>2026-09-01T01:14:53Z</time>
  <course>156.56</course>
  <speed>0.9176055797563569</speed>
  <fix>3d</fix>
</trkpt>
<trkpt lat="33.8105929" lon="-118.3934632">
  <ele>-4.1</ele>
  <time>2026-09-01T01:14:53Z</time>
  <course>106.54</course>
  <speed>0.88</speed>
  <fix>3d</fix>
</trkpt>
<trkpt lat="33.8105923" lon="-118.3934607">
  <ele>-4.602</ele>
  <time>2026-09-01T01:14:53Z</time>
  <course>156.56</course>
  <speed>0.9176055797563569</speed>
  <fix>3d</fix>
</trkpt>
<trkpt lat="33.8105929" lon="-118.3934632">
  <ele>-4.1</ele>
  <time>2026-09-01T01:14:53Z</time>
  <course>106.54</course>
  <speed>0.88</speed>
  <fix>3d</fix>
</trkpt>
<trkpt lat="33.8105921" lon="-118.3934597">
  <ele>-4.602</ele>
  <time>2026-09-01T01:14:53Z</time>
  <course>156.55</course>
  <speed>0.9176055797563569</speed>
  <fix>3d</fix>
</trkpt>
<trkpt lat="33.8105924" lon="-118.3934614">
  <ele>-4.1</ele>
  <time>2026-09-01T01:14:53Z</time>
  <course>106.58</course>
  <speed>0.89</speed>
  <fix>3d</fix>
</trkpt>
<trkpt lat="33.8105918" lon="-118.3934588">
  <ele>-4.603</ele>
  <time>2026-09-01T01:14:53Z</time>
  <course>156.56</course>
  <speed>0.9272000862812729</speed>
  <fix>3d</fix>
</trkpt>
<trkpt lat="33.8105924" lon="-118.3934614">
  <ele>-4.1</ele>
  <time>2026-09-01T01:14:53Z</time>
  <course>106.58</course>
  <speed>0.89</speed>
  <fix>3d</fix>
</trkpt>
<trkpt lat="33.8105916" lon="-118.3934579">
  <ele>-4.605</ele>
  <time>2026-09-01T01:14:53Z</time>
  <course>156.56</course>
  <speed>0.9272000862812729</speed>
  <fix>3d</fix>
</trkpt>
<trkpt lat="33.810592" lon="-118.3934595">
  <ele>-4.1</ele>
  <time>2026-09-01T01:14:53Z</time>
  <course>106.56</course>
  <speed>0.89</speed>
  <fix>3d</fix>
</trkpt>
<trkpt lat="33.8105914" lon="-118.3934569">
  <ele>-4.606</ele>
  <time>2026-09-01T01:14:53Z</time>
  <course>156.56</course>
  <speed>0.9272000862812729</speed>
  <fix>3d</fix>
</trkpt>
<trkpt lat="33.810592" lon="-118.3934595">
  <ele>-4.1</ele>
  <time>2026-09-01T01:14:53Z</time>
  <course>106.56</course>
  <speed>0.89</speed>
  <fix>3d</fix>
</trkpt>
<trkpt lat="33.8105911" lon="-118.393456">
  <ele>-4.606</ele>
  <time>2026-09-01T01:14:53Z</time>
  <course>156.56</course>
  <speed>0.9272000862812729</speed>
  <fix>3d</fix>
</trkpt>
<trkpt lat="33.8105915" lon="-118.3934577">
  <ele>-4.1</ele>
  <time>2026-09-01T01:14:53Z</time>
  <course>106.53</course>
  <speed>0.89</speed>
  <fix>3d</fix>
</trkpt>
<trkpt lat="33.8105909" lon="-118.3934552">
  <ele>-4.605</ele>
  <time>2026-09-01T01:14:53Z</time>
  <course>156.56</course>
  <speed>0.7116881339463234</speed>
  <fix>3d</fix>
</trkpt>
<trkpt lat="33.8105915" lon="-118.3934577">
  <ele>-4.1</ele>
  <time>2026-09-01T01:14:53Z</time>
  <course>106.53</course>
  <speed>0.89</speed>
  <fix>3d</fix>
</trkpt>
<trkpt lat="33.8105907" lon="-118.3934546">
  <ele>-4.604</ele>
  <time>2026-09-01T01:14:53Z</time>
  <course>156.56</course>
  <speed>0.570087712549569</speed>
  <fix>3d</fix>
</trkpt>
<trkpt lat="33.810591" lon="-118.3934559">
  <ele>-4.1</ele>
  <time>2026-09-01T01:14:53Z</time>
  <course>107.93</course>
  <speed>0.77</speed>
  <fix>3d</fix>
</trkpt>
<trkpt lat="33.8105905" lon="-118.3934541">
  <ele>-4.602</ele>
  <time>2026-09-01T01:14:54Z</time>
  <course>156.56</course>
  <speed>0.48466483264210536</speed>
  <fix>3d</fix>
</trkpt>
<trkpt lat="33.810591" lon="-118.3934559">
  <ele>-4.1</ele>
  <time>2026-09-01T01:14:54Z</time>
  <course>107.93</course>
  <speed>0.77</speed>
  <fix>3d</fix>
</trkpt>
<trkpt lat="33.8105904" lon="-118.3934537">
  <ele>-4.601</ele>
  <time>2026-09-01T01:14:54Z</time>
  <course>156.56</course>
  <speed>0.416293165929973</speed>
  <fix>3d</fix>
</trkpt>
<trkpt lat="33.8105907" lon="-118.3934545">
  <ele>-4.1</ele>
  <time>2026-09-01T01:14:54Z</time>
  <course>111.08</course>
  <speed>0.54</speed>
  <fix>3d</fix>
</trkpt>
<trkpt lat="33.8105903" lon="-118.3934533">
  <ele>-4.6</ele>
  <time>2026-09-01T01:14:54Z</time>
  <course>156.56</course>
  <speed>0.3716180835212409</speed>
  <fix>3d</fix>
</trkpt>
<trkpt lat="33.8105907" lon="-118.3934545">
  <ele>-4.1</ele>
  <time>2026-09-01T01:14:54Z</time>
  <course>111.08</course>
  <speed>0.54</speed>
  <fix>3d</fix>
</trkpt>
<trkpt lat="33.8105901" lon="-118.393453">
  <ele>-4.597</ele>
  <time>2026-09-01T01:14:54Z</time>
  <course>156.56</course>
  <speed>0.33105890714493696</speed>
  <fix>3d</fix>
</trkpt>
<trkpt lat="33.8105903" lon="-118.3934536">
  <ele>-4.09</ele>
  <time>2026-09-01T01:14:54Z</time>
  <course>113.52</course>
  <speed>0.38</speed>
  <fix>3d</fix>
</trkpt>
<trkpt lat="33.81059" lon="-118.3934527">
  <ele>-4.594</ele>
  <time>2026-09-01T01:14:54Z</time>
  <course>156.56</course>
  <speed>0.3087069808086626</speed>
  <fix>3d</fix>
</trkpt>
<trkpt lat="33.8105903" lon="-118.3934536">
  <ele>-4.09</ele>
  <time>2026-09-01T01:14:54Z</time>
  <course>113.52</course>
  <speed>0.38</speed>
  <fix>3d</fix>
</trkpt>
<trkpt lat="33.8105899" lon="-118.3934524">
  <ele>-4.589</ele>
  <time>2026-09-01T01:14:54Z</time>
  <course>156.56</course>
  <speed>0.27730849247724093</speed>
  <fix>3d</fix>
</trkpt>
<trkpt lat="33.8105901" lon="-118.393453">
  <ele>-4.09</ele>
  <time>2026-09-01T01:14:54Z</time>
  <course>114.79</course>
  <speed>0.29</speed>
  <fix>3d</fix>
</trkpt>
<trkpt lat="33.8105898" lon="-118.3934521">
  <ele>-4.583</ele>
  <time>2026-09-01T01:14:54Z</time>
  <course>156.56</course>
  <speed>0.25495097567963926</speed>
  <fix>3d</fix>
</trkpt>
<trkpt lat="33.8105901" lon="-118.393453">
  <ele>-4.09</ele>
  <time>2026-09-01T01:14:54Z</time>
  <course>114.79</course>
  <speed>0.29</speed>
  <fix>3d</fix>
</trkpt>
<trkpt lat="33.8105897" lon="-118.3934519">
  <ele>-4.577</ele>
  <time>2026-09-01T01:14:54Z</time>
  <course>156.57</course>
  <speed>0.24166091947189144</speed>
  <fix>3d</fix>
</trkpt>
<trkpt lat="33.8105899" lon="-118.3934524">
  <ele>-4.08</ele>
  <time>2026-09-01T01:14:54Z</time>
  <course>115.58</course>
  <speed>0.24</speed>
  <fix>3d</fix>
</trkpt>
<trkpt lat="33.8105896" lon="-118.3934517">
  <ele>-4.571</ele>
  <time>2026-09-01T01:14:54Z</time>
  <course>156.57</course>
  <speed>0.23259406699226015</speed>
  <fix>3d</fix>
</trkpt>
<trkpt lat="33.8105899" lon="-118.3934524">
  <ele>-4.08</ele>
  <time>2026-09-01T01:14:54Z</time>
  <course>115.58</course>
  <speed>0.24</speed>
  <fix>3d</fix>
</trkpt>
<trkpt lat="33.8105896" lon="-118.3934515">
  <ele>-4.564</ele>
  <time>2026-09-01T01:14:54Z</time>
  <course>156.57</course>
  <speed>0.2102379604162864</speed>
  <fix>3d</fix>
</trkpt>
<trkpt lat="33.8105898" lon="-118.393452">
  <ele>-4.07</ele>
  <time>2026-09-01T01:14:54Z</time>
  <course>116.12</course>
  <speed>0.2</speed>
  <fix>3d</fix>
</trkpt>
<trkpt lat="33.8105895" lon="-118.3934513">
  <ele>-4.557</ele>
  <time>2026-09-01T01:14:54Z</time>
  <course>156.57</course>
  <speed>0.20124611797498107</speed>
  <fix>3d</fix>
</trkpt>
<trkpt lat="33.8105898" lon="-118.393452">
  <ele>-4.07</ele>
  <time>2026-09-01T01:14:54Z</time>
  <course>116.12</course>
  <speed>0.2</speed>
  <fix>3d</fix>
</trkpt>
<trkpt lat="33.8105894" lon="-118.3934511">
  <ele>-4.549</ele>
  <time>2026-09-01T01:14:54Z</time>
  <course>156.57</course>
  <speed>0.19697715603592209</speed>
  <fix>3d</fix>
</trkpt>
<trkpt lat="33.8105896" lon="-118.3934516">
  <ele>-4.06</ele>
  <time>2026-09-01T01:14:54Z</time>
  <course>116.51</course>
  <speed>0.18</speed>
  <fix>3d</fix>
</trkpt>
<trkpt lat="33.8105893" lon="-118.393451">
  <ele>-4.541</ele>
  <time>2026-09-01T01:14:54Z</time>
  <course>156.57</course>
  <speed>0.18788294228055935</speed>
  <fix>3d</fix>
</trkpt>
<trkpt lat="33.8105896" lon="-118.3934516">
  <ele>-4.06</ele>
  <time>2026-09-01T01:14:54Z</time>
  <course>116.51</course>
  <speed>0.18</speed>
  <fix>3d</fix>
</trkpt>
<trkpt lat="33.8105893" lon="-118.3934508">
  <ele>-4.533</ele>
  <time>2026-09-01T01:14:54Z</time>
  <course>156.57</course>
  <speed>0.17888543819998318</speed>
  <fix>3d</fix>
</trkpt>
<trkpt lat="33.8105894" lon="-118.3934513">
  <ele>-4.04</ele>
  <time>2026-09-01T01:14:54Z</time>
  <course>116.82</course>
  <speed>0.15</speed>
  <fix>3d</fix>
</trkpt>
<trkpt lat="33.8105892" lon="-118.3934507">
  <ele>-4.524</ele>
  <time>2026-09-01T01:14:54Z</time>
  <course>156.57</course>
  <speed>0.16552945357246848</speed>
  <fix>3d</fix>
</trkpt>
<trkpt lat="33.8105894" lon="-118.3934513">
  <ele>-4.04</ele>
  <time>2026-09-01T01:14:54Z</time>
  <course>116.82</course>
  <speed>0.15</speed>
  <fix>3d</fix>
</trkpt>
<trkpt lat="33.8105892" lon="-118.3934505">
  <ele>-4.515</ele>
  <time>2026-09-01T01:14:54Z</time>
  <course>156.57</course>
  <speed>0.16552945357246848</speed>
  <fix>3d</fix>
</trkpt>
<trkpt lat="33.8105893" lon="-118.393451">
  <ele>-4.02</ele>
  <time>2026-09-01T01:14:54Z</time>
  <course>117.06</course>
  <speed>0.14</speed>
  <fix>3d</fix>
</trkpt>
<trkpt lat="33.8105891" lon="-118.3934504">
  <ele>-4.507</ele>
  <time>2026-09-01T01:14:54Z</time>
  <course>156.57</course>
  <speed>0.15652475842498528</speed>
  <fix>3d</fix>
</trkpt>
<trkpt lat="33.8105893" lon="-118.393451">
  <ele>-4.02</ele>
  <time>2026-09-01T01:14:54Z</time>
  <course>117.06</course>
  <speed>0.14</speed>
  <fix>3d</fix>
</trkpt>
<trkpt lat="33.8105891" lon="-118.3934503">
  <ele>-4.499</ele>
  <time>2026-09-01T01:14:54Z</time>
  <course>156.57</course>
  <speed>0.15652475842498528</speed>
  <fix>3d</fix>
</trkpt>
<trkpt lat="33.8105892" lon="-118.3934507">
  <ele>-4.01</ele>
  <time>2026-09-01T01:14:54Z</time>
  <course>117.24</course>
  <speed>0.12</speed>
  <fix>3d</fix>
</trkpt>
<trkpt lat="33.810589" lon="-118.3934502">
  <ele>-4.49</ele>
  <time>2026-09-01T01:14:54Z</time>
  <course>156.57</course>
  <speed>0.14317821063276354</speed>
  <fix>3d</fix>
</trkpt>
<trkpt lat="33.8105892" lon="-118.3934507">
  <ele>-4.01</ele>
  <time>2026-09-01T01:14:54Z</time>
  <course>117.24</course>
  <speed>0.12</speed>
  <fix>3d</fix>
</trkpt>
<trkpt lat="33.810589" lon="-118.3934501">
  <ele>-4.481</ele>
  <time>2026-09-01T01:14:54Z</time>
  <course>156.57</course>
  <speed>0.14317821063276354</speed>
  <fix>3d</fix>
</trkpt>
<trkpt lat="33.8105891" lon="-118.3934505">
  <ele>-4.0</ele>
  <time>2026-09-01T01:14:54Z</time>
  <course>117.4</course>
  <speed>0.11</speed>
  <fix>3d</fix>
</trkpt>
<trkpt lat="33.8105889" lon="-118.3934499">
  <ele>-4.471</ele>
  <time>2026-09-01T01:14:54Z</time>
  <course>156.57</course>
  <speed>0.14317821063276354</speed>
  <fix>3d</fix>
</trkpt>
<trkpt lat="33.8105891" lon="-118.3934505">
  <ele>-4.0</ele>
  <time>2026-09-01T01:14:54Z</time>
  <course>117.4</course>
  <speed>0.11</speed>
  <fix>3d</fix>
</trkpt>
<trkpt lat="33.8105889" lon="-118.3934498">
  <ele>-4.461</ele>
  <time>2026-09-01T01:14:54Z</time>
  <course>156.57</course>
  <speed>0.1341640786499874</speed>
  <fix>3d</fix>
</trkpt>
<trkpt lat="33.810589" lon="-118.3934502">
  <ele>-3.98</ele>
  <time>2026-09-01T01:14:54Z</time>
  <course>117.53</course>
  <speed>0.1</speed>
  <fix>3d</fix>
</trkpt>
<trkpt lat="33.8105888" lon="-118.3934497">
  <ele>-4.451</ele>
  <time>2026-09-01T01:14:54Z</time>
  <course>156.57</course>
  <speed>0.1341640786499874</speed>
  <fix>3d</fix>
</trkpt>
<trkpt lat="33.810589" lon="-118.3934502">
  <ele>-3.98</ele>
  <time>2026-09-01T01:14:54Z</time>
  <course>117.53</course>
  <speed>0.1</speed>
  <fix>3d</fix>
</trkpt>
<trkpt lat="33.8105888" lon="-118.3934496">
  <ele>-4.441</ele>
  <time>2026-09-01T01:14:54Z</time>
  <course>156.57</course>
  <speed>0.13</speed>
  <fix>3d</fix>
</trkpt>
<trkpt lat="33.8105889" lon="-118.3934501">
  <ele>-3.97</ele>
  <time>2026-09-01T01:14:54Z</time>
  <course>117.64</course>
  <speed>0.1</speed>
  <fix>3d</fix>
</trkpt>
<trkpt lat="33.8105887" lon="-118.3934495">
  <ele>-4.431</ele>
  <time>2026-09-01T01:14:54Z</time>
  <course>156.57</course>
  <speed>0.12083045973594572</speed>
  <fix>3d</fix>
</trkpt>
<trkpt lat="33.8105889" lon="-118.3934501">
  <ele>-3.97</ele>
  <time>2026-09-01T01:14:54Z</time>
  <course>117.64</course>
  <speed>0.1</speed>
  <fix>3d</fix>
</trkpt>
<trkpt lat="33.8105887" lon="-118.3934495">
  <ele>-4.421</ele>
  <time>2026-09-01T01:14:54Z</time>
  <course>156.57</course>
  <speed>0.12083045973594572</speed>
  <fix>3d</fix>
</trkpt>
<trkpt lat="33.8105888" lon="-118.3934499">
  <ele>-3.95</ele>
  <time>2026-09-01T01:14:54Z</time>
  <course>117.75</course>
  <speed>0.09</speed>
  <fix>3d</fix>
</trkpt>
<trkpt lat="33.8105887" lon="-118.3934494">
  <ele>-4.41</ele>
  <time>2026-09-01T01:14:54Z</time>
  <course>156.57</course>
  <speed>0.12083045973594572</speed>
  <fix>3d</fix>
</trkpt>
<trkpt lat="33.8105888" lon="-118.3934499">
  <ele>-3.95</ele>
  <time>2026-09-01T01:14:54Z</time>
  <course>117.75</course>
  <speed>0.09</speed>
  <fix>3d</fix>
</trkpt>
<trkpt lat="33.8105886" lon="-118.3934493">
  <ele>-4.4</ele>
  <time>2026-09-01T01:14:54Z</time>
  <course>156.57</course>
  <speed>0.1118033988749895</speed>
  <fix>3d</fix>
</trkpt>
<trkpt lat="33.8105888" lon="-118.3934497">
  <ele>-3.93</ele>
  <time>2026-09-01T01:14:54Z</time>
  <course>117.84</course>
  <speed>0.08</speed>
  <fix>3d</fix>
</trkpt>
<trkpt lat="33.8105886" lon="-118.3934492">
  <ele>-4.39</ele>
  <time>2026-09-01T01:14:54Z</time>
  <course>156.57</course>
  <speed>0.1118033988749895</speed>
  <fix>3d</fix>
</trkpt>
<trkpt lat="33.8105888" lon="-118.3934497">
  <ele>-3.93</ele>
  <time>2026-09-01T01:14:54Z</time>
  <course>117.84</course>
  <speed>0.08</speed>
  <fix>3d</fix>
</trkpt>
<trkpt lat="33.8105885" lon="-118.3934489">
  <ele>-4.356</ele>
  <time>2026-09-01T01:14:54Z</time>
  <course>156.57</course>
  <speed>0.09848857801796104</speed>
  <fix>3d</fix>
</trkpt>
<trkpt lat="33.8105886" lon="-118.3934494">
  <ele>-3.89</ele>
  <time>2026-09-01T01:14:54Z</time>
  <course>117.97</course>
  <speed>0.07</speed>
  <fix>3d</fix>
</trkpt>
<trkpt lat="33.8105884" lon="-118.3934487">
  <ele>-4.329</ele>
  <time>2026-09-01T01:14:54Z</time>
  <course>156.57</course>
  <speed>0.09848857801796104</speed>
  <fix>3d</fix>
</trkpt>
<trkpt lat="33.8105885" lon="-118.3934491">
  <ele>-3.86</ele>
  <time>2026-09-01T01:14:54Z</time>
  <course>118.08</course>
  <speed>0.06</speed>
  <fix>3d</fix>
</trkpt>
<trkpt lat="33.8105884" lon="-118.3934487">
  <ele>-4.319</ele>
  <time>2026-09-01T01:14:54Z</time>
  <course>156.57</course>
  <speed>0.09848857801796104</speed>
  <fix>3d</fix>
</trkpt>
<trkpt lat="33.8105885" lon="-118.3934491">
  <ele>-3.86</ele>
  <time>2026-09-01T01:14:54Z</time>
  <course>118.08</course>
  <speed>0.06</speed>
  <fix>3d</fix>
</trkpt>
<trkpt lat="33.8105883" lon="-118.3934486">
  <ele>-4.31</ele>
  <time>2026-09-01T01:14:54Z</time>
  <course>156.57</course>
  <speed>0.08944271909999159</speed>
  <fix>3d</fix>
</trkpt>
<trkpt lat="33.8105885" lon="-118.393449">
  <ele>-3.84</ele>
  <time>2026-09-01T01:14:54Z</time>
  <course>118.14</course>
  <speed>0.06</speed>
  <fix>3d</fix>
</trkpt>
<trkpt lat="33.8105883" lon="-118.3934485">
  <ele>-4.3</ele>
  <time>2026-09-01T01:14:54Z</time>
  <course>156.57</course>
  <speed>0.08944271909999159</speed>
  <fix>3d</fix>
</trkpt>
<trkpt lat="33.8105885" lon="-118.393449">
  <ele>-3.84</ele>
  <time>2026-09-01T01:14:54Z</time>
  <course>118.14</course>
  <speed>0.06</speed>
  <fix>3d</fix>
</trkpt>
<trkpt lat="33.8105883" lon="-118.3934485">
  <ele>-4.289</ele>
  <time>2026-09-01T01:14:54Z</time>
  <course>156.57</course>
  <speed>0.08944271909999159</speed>
  <fix>3d</fix>
</trkpt>
<trkpt lat="33.8105884" lon="-118.3934488">
  <ele>-3.82</ele>
  <time>2026-09-01T01:14:54Z</time>
  <course>118.19</course>
  <speed>0.06</speed>
  <fix>3d</fix>
</trkpt>
<trkpt lat="33.8105883" lon="-118.3934484">
  <ele>-4.279</ele>
  <time>2026-09-01T01:14:54Z</time>
  <course>156.57</course>
  <speed>0.0854400374531753</speed>
  <fix>3d</fix>
</trkpt>
<trkpt lat="33.8105884" lon="-118.3934488">
  <ele>-3.82</ele>
  <time>2026-09-01T01:14:54Z</time>
  <course>118.19</course>
  <speed>0.06</speed>
  <fix>3d</fix>
</trkpt>
<trkpt lat="33.8105882" lon="-118.3934484">
  <ele>-4.269</ele>
  <time>2026-09-01T01:14:54Z</time>
  <course>156.57</course>
  <speed>0.0854400374531753</speed>
  <fix>3d</fix>
</trkpt>
<trkpt lat="33.8105884" lon="-118.3934487">
  <ele>-3.8</ele>
  <time>2026-09-01T01:14:54Z</time>
  <course>118.22</course>
  <speed>0.06</speed>
  <fix>3d</fix>
</trkpt>
<trkpt lat="33.8105882" lon="-118.3934483">
  <ele>-4.26</ele>
  <time>2026-09-01T01:14:54Z</time>
  <course>156.57</course>
  <speed>0.0854400374531753</speed>
  <fix>3d</fix>
</trkpt>
<trkpt lat="33.8105884" lon="-118.3934487">
  <ele>-3.8</ele>
  <time>2026-09-01T01:14:54Z</time>
  <course>118.22</course>
  <speed>0.06</speed>
  <fix>3d</fix>
</trkpt>
<trkpt lat="33.8105882" lon="-118.3934483">
  <ele>-4.251</ele>
  <time>2026-09-01T01:14:54Z</time>
  <course>156.57</course>
  <speed>0.0854400374531753</speed>
  <fix>3d</fix>
</trkpt>
<trkpt lat="33.8105883" lon="-118.3934486">
  <ele>-3.78</ele>
  <time>2026-09-01T01:14:54Z</time>
  <course>118.25</course>
  <speed>0.05</speed>
  <fix>3d</fix>
</trkpt>
<trkpt lat="33.8105882" lon="-118.3934482">
  <ele>-4.242</ele>
  <time>2026-09-01T01:14:54Z</time>
  <course>156.57</course>
  <speed>0.07615773105863909</speed>
  <fix>3d</fix>
</trkpt>
<trkpt lat="33.8105883" lon="-118.3934486">
  <ele>-3.78</ele>
  <time>2026-09-01T01:14:54Z</time>
  <course>118.25</course>
  <speed>0.05</speed>
  <fix>3d</fix>
</trkpt>
<trkpt lat="33.8105882" lon="-118.3934482">
  <ele>-4.234</ele>
  <time>2026-09-01T01:14:54Z</time>
  <course>156.57</course>
  <speed>0.07615773105863909</speed>
  <fix>3d</fix>
</trkpt>
<trkpt lat="33.8105883" lon="-118.3934485">
  <ele>-3.76</ele>
  <time>2026-09-01T01:14:54Z</time>
  <course>118.28</course>
  <speed>0.05</speed>
  <fix>3d</fix>
</trkpt>
<trkpt lat="33.8105881" lon="-118.3934481">
  <ele>-4.224</ele>
  <time>2026-09-01T01:14:54Z</time>
  <course>156.57</course>
  <speed>0.07615773105863909</speed>
  <fix>3d</fix>
</trkpt>
<trkpt lat="33.8105883" lon="-118.3934485">
  <ele>-3.76</ele>
  <time>2026-09-01T01:14:54Z</time>
  <course>118.28</course>
  <speed>0.05</speed>
  <fix>3d</fix>
</trkpt>
<trkpt lat="33.8105881" lon="-118.3934481">
  <ele>-4.215</ele>
  <time>2026-09-01T01:14:54Z</time>
  <course>156.57</course>
  <speed>0.07615773105863909</speed>
  <fix>3d</fix>
</trkpt>
<trkpt lat="33.8105882" lon="-118.3934484">
  <ele>-3.74</ele>
  <time>2026-09-01T01:14:54Z</time>
  <course>118.32</course>
  <speed>0.05</speed>
  <fix>3d</fix>
</trkpt>
<trkpt lat="33.8105881" lon="-118.393448">
  <ele>-4.206</ele>
  <time>2026-09-01T01:14:54Z</time>
  <course>156.57</course>
  <speed>0.07615773105863909</speed>
  <fix>3d</fix>
</trkpt>
<trkpt lat="33.8105882" lon="-118.3934484">
  <ele>-3.74</ele>
  <time>2026-09-01T01:14:54Z</time>
  <course>118.32</course>
  <speed>0.05</speed>
  <fix>3d</fix>
</trkpt>
<trkpt lat="33.8105881" lon="-118.393448">
  <ele>-4.196</ele>
  <time>2026-09-01T01:14:54Z</time>
  <course>156.57</course>
  <speed>0.07615773105863909</speed>
  <fix>3d</fix>
</trkpt>
<trkpt lat="33.8105882" lon="-118.3934483">
  <ele>-3.73</ele>
  <time>2026-09-01T01:14:54Z</time>
  <course>118.36</course>
  <speed>0.05</speed>
  <fix>3d</fix>
</trkpt>
<trkpt lat="33.8105881" lon="-118.3934479">
  <ele>-4.187</ele>
  <time>2026-09-01T01:14:54Z</time>
  <course>156.57</course>
  <speed>0.07615773105863909</speed>
  <fix>3d</fix>
</trkpt>
<trkpt lat="33.8105882" lon="-118.3934483">
  <ele>-3.73</ele>
  <time>2026-09-01T01:14:54Z</time>
  <course>118.36</course>
  <speed>0.05</speed>
  <fix>3d</fix>
</trkpt>
<trkpt lat="33.8105881" lon="-118.3934479">
  <ele>-4.177</ele>
  <time>2026-09-01T01:14:54Z</time>
  <course>156.56</course>
  <speed>0.07615773105863909</speed>
  <fix>3d</fix>
</trkpt>
<trkpt lat="33.8105881" lon="-118.3934482">
  <ele>-3.71</ele>
  <time>2026-09-01T01:14:54Z</time>
  <course>118.39</course>
  <speed>0.04</speed>
  <fix>3d</fix>
</trkpt>
<trkpt lat="33.810588" lon="-118.3934478">
  <ele>-4.167</ele>
  <time>2026-09-01T01:14:54Z</time>
  <course>156.56</course>
  <speed>0.07615773105863909</speed>
  <fix>3d</fix>
</trkpt>
<trkpt lat="33.8105881" lon="-118.3934482">
  <ele>-3.71</ele>
  <time>2026-09-01T01:14:54Z</time>
  <course>118.39</course>
  <speed>0.04</speed>
  <fix>3d</fix>
</trkpt>
<trkpt lat="33.810588" lon="-118.3934478">
  <ele>-4.156</ele>
  <time>2026-09-01T01:14:54Z</time>
  <course>156.56</course>
  <speed>0.0670820393249937</speed>
  <fix>3d</fix>
</trkpt>
<trkpt lat="33.810588" lon="-118.3934481">
  <ele>-3.69</ele>
  <time>2026-09-01T01:14:54Z</time>
  <course>118.42</course>
  <speed>0.04</speed>
  <fix>3d</fix>
</trkpt>
<trkpt lat="33.810588" lon="-118.3934477">
  <ele>-4.145</ele>
  <time>2026-09-01T01:14:54Z</time>
  <course>156.56</course>
  <speed>0.0670820393249937</speed>
  <fix>3d</fix>
</trkpt>
<trkpt lat="33.810588" lon="-118.3934481">
  <ele>-3.69</ele>
  <time>2026-09-01T01:14:54Z</time>
  <course>118.42</course>
  <speed>0.04</speed>
  <fix>3d</fix>
</trkpt>
<trkpt lat="33.810588" lon="-118.3934477">
  <ele>-4.135</ele>
  <time>2026-09-01T01:14:54Z</time>
  <course>156.56</course>
  <speed>0.0670820393249937</speed>
  <fix>3d</fix>
</trkpt>
<trkpt lat="33.810588" lon="-118.393448">
  <ele>-3.67</ele>
  <time>2026-09-01T01:14:54Z</time>
  <course>118.43</course>
  <speed>0.04</speed>
  <fix>3d</fix>
</trkpt>
<trkpt lat="33.8105879" lon="-118.3934477">
  <ele>-4.125</ele>
  <time>2026-09-01T01:14:54Z</time>
  <course>156.56</course>
  <speed>0.0670820393249937</speed>
  <fix>3d</fix>
</trkpt>
<trkpt lat="33.810588" lon="-118.393448">
  <ele>-3.67</ele>
  <time>2026-09-01T01:14:54Z</time>
  <course>118.43</course>
  <speed>0.04</speed>
  <fix>3d</fix>
</trkpt>
<trkpt lat="33.8105879" lon="-118.3934476">
  <ele>-4.114</ele>
  <time>2026-09-01T01:14:54Z</time>
  <course>156.56</course>
  <speed>0.0670820393249937</speed>
  <fix>3d</fix>
</trkpt>
<trkpt lat="33.8105879" lon="-118.3934479">
  <ele>-3.65</ele>
  <time>2026-09-01T01:14:54Z</time>
  <course>118.44</course>
  <speed>0.04</speed>
  <fix>3d</fix>
</trkpt>
<trkpt lat="33.8105879" lon="-118.3934476">
  <ele>-4.104</ele>
  <time>2026-09-01T01:14:54Z</time>
  <course>156.56</course>
  <speed>0.0670820393249937</speed>
  <fix>3d</fix>
</trkpt>
<trkpt lat="33.8105879" lon="-118.3934479">
  <ele>-3.65</ele>
  <time>2026-09-01T01:14:54Z</time>
  <course>118.44</course>
  <speed>0.04</speed>
  <fix>3d</fix>
</trkpt>
<trkpt lat="33.8105879" lon="-118.3934475">
  <ele>-4.093</ele>
  <time>2026-09-01T01:14:54Z</time>
  <course>156.56</course>
  <speed>0.0670820393249937</speed>
  <fix>3d</fix>
</trkpt>
<trkpt lat="33.8105879" lon="-118.3934479">
  <ele>-3.63</ele>
  <time>2026-09-01T01:14:54Z</time>
  <course>118.47</course>
  <speed>0.04</speed>
  <fix>3d</fix>
</trkpt>
<trkpt lat="33.8105879" lon="-118.3934475">
  <ele>-4.082</ele>
  <time>2026-09-01T01:14:54Z</time>
  <course>156.56</course>
  <speed>0.0670820393249937</speed>
  <fix>3d</fix>
</trkpt>
<trkpt lat="33.8105879" lon="-118.3934479">
  <ele>-3.63</ele>
  <time>2026-09-01T01:14:54Z</time>
  <course>118.47</course>
  <speed>0.04</speed>
  <fix>3d</fix>
</trkpt>
<trkpt lat="33.8105878" lon="-118.3934475">
  <ele>-4.072</ele>
  <time>2026-09-01T01:14:54Z</time>
  <course>156.56</course>
  <speed>0.0670820393249937</speed>
  <fix>3d</fix>
</trkpt>
<trkpt lat="33.8105879" lon="-118.3934478">
  <ele>-3.61</ele>
  <time>2026-09-01T01:14:54Z</time>
  <course>118.5</course>
  <speed>0.04</speed>
  <fix>3d</fix>
</trkpt>
<trkpt lat="33.8105878" lon="-118.3934474">
  <ele>-4.061</ele>
  <time>2026-09-01T01:14:54Z</time>
  <course>156.56</course>
  <speed>0.0670820393249937</speed>
  <fix>3d</fix>
</trkpt>
<trkpt lat="33.8105879" lon="-118.3934478">
  <ele>-3.61</ele>
  <time>2026-09-01T01:14:54Z</time>
  <course>118.5</course>
  <speed>0.04</speed>
  <fix>3d</fix>
</trkpt>
<trkpt lat="33.8105878" lon="-118.3934474">
  <ele>-4.05</ele>
  <time>2026-09-01T01:14:54Z</time>
  <course>156.56</course>
  <speed>0.0632455532033676</speed>
  <fix>3d</fix>
</trkpt>
<trkpt lat="33.8105879" lon="-118.3934477">
  <ele>-3.59</ele>
  <time>2026-09-01T01:14:54Z</time>
  <course>118.53</course>
  <speed>0.04</speed>
  <fix>3d</fix>
</trkpt>
<trkpt lat="33.8105878" lon="-118.3934474">
  <ele>-4.039</ele>
  <time>2026-09-01T01:14:54Z</time>
  <course>156.56</course>
  <speed>0.0632455532033676</speed>
  <fix>3d</fix>
</trkpt>
<trkpt lat="33.8105879" lon="-118.3934477">
  <ele>-3.59</ele>
  <time>2026-09-01T01:14:54Z</time>
  <course>118.53</course>
  <speed>0.04</speed>
  <fix>3d</fix>
</trkpt>
<trkpt lat="33.8105878" lon="-118.3934473">
  <ele>-4.028</ele>
  <time>2026-09-01T01:14:54Z</time>
  <course>156.56</course>
  <speed>0.0632455532033676</speed>
  <fix>3d</fix>
</trkpt>
<trkpt lat="33.8105879" lon="-118.3934476">
  <ele>-3.57</ele>
  <time>2026-09-01T01:14:54Z</time>
  <course>118.55</course>
  <speed>0.03</speed>
  <fix>3d</fix>
</trkpt>
<trkpt lat="33.8105878" lon="-118.3934473">
  <ele>-4.018</ele>
  <time>2026-09-01T01:14:54Z</time>
  <course>156.56</course>
  <speed>0.0632455532033676</speed>
  <fix>3d</fix>
</trkpt>
<trkpt lat="33.8105879" lon="-118.3934476">
  <ele>-3.57</ele>
  <time>2026-09-01T01:14:54Z</time>
  <course>118.55</course>
  <speed>0.03</speed>
  <fix>3d</fix>
</trkpt>
<trkpt lat="33.8105877" lon="-118.3934473">
  <ele>-4.009</ele>
  <time>2026-09-01T01:14:54Z</time>
  <course>156.56</course>
  <speed>0.0632455532033676</speed>
  <fix>3d</fix>
</trkpt>
<trkpt lat="33.8105878" lon="-118.3934475">
  <ele>-3.55</ele>
  <time>2026-09-01T01:14:54Z</time>
  <course>118.56</course>
  <speed>0.03</speed>
  <fix>3d</fix>
</trkpt>
<trkpt lat="33.8105877" lon="-118.3934472">
  <ele>-4.001</ele>
  <time>2026-09-01T01:14:54Z</time>
  <course>156.56</course>
  <speed>0.0632455532033676</speed>
  <fix>3d</fix>
</trkpt>
<trkpt lat="33.8105878" lon="-118.3934475">
  <ele>-3.55</ele>
  <time>2026-09-01T01:14:54Z</time>
  <course>118.56</course>
  <speed>0.03</speed>
  <fix>3d</fix>
</trkpt>
<trkpt lat="33.8105877" lon="-118.3934472">
  <ele>-3.994</ele>
  <time>2026-09-01T01:14:54Z</time>
  <course>156.56</course>
  <speed>0.053851648071345036</speed>
  <fix>3d</fix>
</trkpt>
<trkpt lat="33.8105878" lon="-118.3934475">
  <ele>-3.53</ele>
  <time>2026-09-01T01:14:54Z</time>
  <course>118.56</course>
  <speed>0.03</speed>
  <fix>3d</fix>
</trkpt>
<trkpt lat="33.8105877" lon="-118.3934471">
  <ele>-3.986</ele>
  <time>2026-09-01T01:14:54Z</time>
  <course>156.55</course>
  <speed>0.053851648071345036</speed>
  <fix>3d</fix>
</trkpt>
<trkpt lat="33.8105878" lon="-118.3934475">
  <ele>-3.53</ele>
  <time>2026-09-01T01:14:54Z</time>
  <course>118.56</course>
  <speed>0.03</speed>
  <fix>3d</fix>
</trkpt>
<trkpt lat="33.8105877" lon="-118.3934471">
  <ele>-3.978</ele>
  <time>2026-09-01T01:14:54Z</time>
  <course>156.55</course>
  <speed>0.053851648071345036</speed>
  <fix>3d</fix>
</trkpt>
<trkpt lat="33.8105878" lon="-118.3934474">
  <ele>-3.52</ele>
  <time>2026-09-01T01:14:54Z</time>
  <course>118.57</course>
  <speed>0.03</speed>
  <fix>3d</fix>
</trkpt>
<trkpt lat="33.8105877" lon="-118.3934471">
  <ele>-3.969</ele>
  <time>2026-09-01T01:14:54Z</time>
  <course>156.55</course>
  <speed>0.053851648071345036</speed>
  <fix>3d</fix>
</trkpt>
<trkpt lat="33.8105878" lon="-118.3934474">
  <ele>-3.52</ele>
  <time>2026-09-01T01:14:54Z</time>
  <course>118.57</course>
  <speed>0.03</speed>
  <fix>3d</fix>
</trkpt>
<trkpt lat="33.8105877" lon="-118.393447">
  <ele>-3.959</ele>
  <time>2026-09-01T01:14:54Z</time>
  <course>156.55</course>
  <speed>0.053851648071345036</speed>
  <fix>3d</fix>
</trkpt>
<trkpt lat="33.8105877" lon="-118.3934473">
  <ele>-3.5</ele>
  <time>2026-09-01T01:14:54Z</time>
  <course>118.59</course>
  <speed>0.03</speed>
  <fix>3d</fix>
</trkpt>
<trkpt lat="33.8105876" lon="-118.393447">
  <ele>-3.95</ele>
  <time>2026-09-01T01:14:54Z</time>
  <course>156.55</course>
  <speed>0.053851648071345036</speed>
  <fix>3d</fix>
</trkpt>
<trkpt lat="33.8105877" lon="-118.3934473">
  <ele>-3.5</ele>
  <time>2026-09-01T01:14:54Z</time>
  <course>118.59</course>
  <speed>0.03</speed>
  <fix>3d</fix>
</trkpt>
<trkpt lat="33.8105876" lon="-118.393447">
  <ele>-3.939</ele>
  <time>2026-09-01T01:14:54Z</time>
  <course>156.55</course>
  <speed>0.053851648071345036</speed>
  <fix>3d</fix>
</trkpt>
<trkpt lat="33.8105877" lon="-118.3934473">
  <ele>-3.48</ele>
  <time>2026-09-01T01:14:54Z</time>
  <course>118.62</course>
  <speed>0.03</speed>
  <fix>3d</fix>
</trkpt>
<trkpt lat="33.8105876" lon="-118.3934469">
  <ele>-3.93</ele>
  <time>2026-09-01T01:14:54Z</time>
  <course>156.55</course>
  <speed>0.053851648071345036</speed>
  <fix>3d</fix>
</trkpt>
<trkpt lat="33.8105877" lon="-118.3934473">
  <ele>-3.48</ele>
  <time>2026-09-01T01:14:54Z</time>
  <course>118.62</course>
  <speed>0.03</speed>
  <fix>3d</fix>
</trkpt>
<trkpt lat="33.8105876" lon="-118.3934469">
  <ele>-3.92</ele>
  <time>2026-09-01T01:14:54Z</time>
  <course>156.55</course>
  <speed>0.053851648071345036</speed>
  <fix>3d</fix>
</trkpt>
<trkpt lat="33.8105877" lon="-118.3934472">
  <ele>-3.46</ele>
  <time>2026-09-01T01:14:54Z</time>
  <course>118.64</course>
  <speed>0.03</speed>
  <fix>3d</fix>
</trkpt>
<trkpt lat="33.8105876" lon="-118.3934469">
  <ele>-3.91</ele>
  <time>2026-09-01T01:14:54Z</time>
  <course>156.55</course>
  <speed>0.053851648071345036</speed>
  <fix>3d</fix>
</trkpt>
<trkpt lat="33.8105877" lon="-118.3934472">
  <ele>-3.46</ele>
  <time>2026-09-01T01:14:54Z</time>
  <course>118.64</course>
  <speed>0.03</speed>
  <fix>3d</fix>
</trkpt>
<trkpt lat="33.8105876" lon="-118.3934469">
  <ele>-3.9</ele>
  <time>2026-09-01T01:14:54Z</time>
  <course>156.55</course>
  <speed>0.053851648071345036</speed>
  <fix>3d</fix>
</trkpt>
<trkpt lat="33.8105876" lon="-118.3934471">
  <ele>-3.44</ele>
  <time>2026-09-01T01:14:54Z</time>
  <course>118.66</course>
  <speed>0.03</speed>
  <fix>3d</fix>
</trkpt>
<trkpt lat="33.8105876" lon="-118.3934468">
  <ele>-3.891</ele>
  <time>2026-09-01T01:14:54Z</time>
  <course>156.55</course>
  <speed>0.053851648071345036</speed>
  <fix>3d</fix>
</trkpt>
<trkpt lat="33.8105876" lon="-118.3934471">
  <ele>-3.44</ele>
  <time>2026-09-01T01:14:54Z</time>
  <course>118.66</course>
  <speed>0.03</speed>
  <fix>3d</fix>
</trkpt>
<trkpt lat="33.8105875" lon="-118.3934468">
  <ele>-3.881</ele>
  <time>2026-09-01T01:14:54Z</time>
  <course>156.55</course>
  <speed>0.053851648071345036</speed>
  <fix>3d</fix>
</trkpt>
<trkpt lat="33.8105876" lon="-118.3934471">
  <ele>-3.42</ele>
  <time>2026-09-01T01:14:54Z</time>
  <course>118.66</course>
  <speed>0.03</speed>
  <fix>3d</fix>
</trkpt>
<trkpt lat="33.8105875" lon="-118.3934468">
  <ele>-3.872</ele>
  <time>2026-09-01T01:14:54Z</time>
  <course>156.55</course>
  <speed>0.053851648071345036</speed>
  <fix>3d</fix>
</trkpt>
<trkpt lat="33.8105876" lon="-118.3934471">
  <ele>-3.42</ele>
  <time>2026-09-01T01:14:54Z</time>
  <course>118.66</course>
  <speed>0.03</speed>
  <fix>3d</fix>
</trkpt>
<trkpt lat="33.8105875" lon="-118.3934467">
  <ele>-3.861</ele>
  <time>2026-09-01T01:14:54Z</time>
  <course>156.55</course>
  <speed>0.053851648071345036</speed>
  <fix>3d</fix>
</trkpt>
<trkpt lat="33.8105876" lon="-118.393447">
  <ele>-3.4</ele>
  <time>2026-09-01T01:14:54Z</time>
  <course>118.65</course>
  <speed>0.03</speed>
  <fix>3d</fix>
</trkpt>
<trkpt lat="33.8105875" lon="-118.3934467">
  <ele>-3.85</ele>
  <time>2026-09-01T01:14:54Z</time>
  <course>156.55</course>
  <speed>0.053851648071345036</speed>
  <fix>3d</fix>
</trkpt>
<trkpt lat="33.8105876" lon="-118.393447">
  <ele>-3.4</ele>
  <time>2026-09-01T01:14:54Z</time>
  <course>118.65</course>
  <speed>0.03</speed>
  <fix>3d</fix>
</trkpt>
<trkpt lat="33.8105875" lon="-118.3934467">
  <ele>-3.84</ele>
  <time>2026-09-01T01:14:54Z</time>
  <course>156.55</course>
  <speed>0.053851648071345036</speed>
  <fix>3d</fix>
</trkpt>
<trkpt lat="33.8105876" lon="-118.393447">
  <ele>-3.38</ele>
  <time>2026-09-01T01:14:54Z</time>
  <course>118.66</course>
  <speed>0.03</speed>
  <fix>3d</fix>
</trkpt>
<trkpt lat="33.8105875" lon="-118.3934466">
  <ele>-3.83</ele>
  <time>2026-09-01T01:14:55Z</time>
  <course>156.55</course>
  <speed>0.053851648071345036</speed>
  <fix>3d</fix>
</trkpt>
<trkpt lat="33.8105876" lon="-118.393447">
  <ele>-3.38</ele>
  <time>2026-09-01T01:14:55Z</time>
  <course>118.66</course>
  <speed>0.03</speed>
  <fix>3d</fix>
</trkpt>
<trkpt lat="33.8105875" lon="-118.3934466">
  <ele>-3.82</ele>
  <time>2026-09-01T01:14:55Z</time>
  <course>156.55</course>
  <speed>0.053851648071345036</speed>
  <fix>3d</fix>
</trkpt>
<trkpt lat="33.8105875" lon="-118.3934469">
  <ele>-3.36</ele>
  <time>2026-09-01T01:14:55Z</time>
  <course>118.68</course>
  <speed>0.03</speed>
  <fix>3d</fix>
</trkpt>
<trkpt lat="33.8105875" lon="-118.3934466">
  <ele>-3.81</ele>
  <time>2026-09-01T01:14:55Z</time>
  <course>156.55</course>
  <speed>0.053851648071345036</speed>
  <fix>3d</fix>
</trkpt>
<trkpt lat="33.8105875" lon="-118.3934469">
  <ele>-3.36</ele>
  <time>2026-09-01T01:14:55Z</time>
  <course>118.68</course>
  <speed>0.03</speed>
  <fix>3d</fix>
</trkpt>
<trkpt lat="33.8105874" lon="-118.3934466">
  <ele>-3.799</ele>
  <time>2026-09-01T01:14:55Z</time>
  <course>156.54</course>
  <speed>0.053851648071345036</speed>
  <fix>3d</fix>
</trkpt>
<trkpt lat="33.8105874" lon="-118.3934469">
  <ele>-3.34</ele>
  <time>2026-09-01T01:14:55Z</time>
  <course>118.71</course>
  <speed>0.02</speed>
  <fix>3d</fix>
</trkpt>
<trkpt lat="33.8105874" lon="-118.3934465">
  <ele>-3.789</ele>
  <time>2026-09-01T01:14:55Z</time>
  <course>156.54</course>
  <speed>0.053851648071345036</speed>
  <fix>3d</fix>
</trkpt>
<trkpt lat="33.8105874" lon="-118.3934469">
  <ele>-3.34</ele>
  <time>2026-09-01T01:14:55Z</time>
  <course>118.71</course>
  <speed>0.02</speed>
  <fix>3d</fix>
</trkpt>
<trkpt lat="33.8105874" lon="-118.3934465">
  <ele>-3.78</ele>
  <time>2026-09-01T01:14:55Z</time>
  <course>156.54</course>
  <speed>0.053851648071345036</speed>
  <fix>3d</fix>
</trkpt>
<trkpt lat="33.8105874" lon="-118.3934468">
  <ele>-3.33</ele>
  <time>2026-09-01T01:14:55Z</time>
  <course>118.73</course>
  <speed>0.02</speed>
  <fix>3d</fix>
</trkpt>
<trkpt lat="33.8105874" lon="-118.3934465">
  <ele>-3.771</ele>
  <time>2026-09-01T01:14:55Z</time>
  <course>156.54</course>
  <speed>0.053851648071345036</speed>
  <fix>3d</fix>
</trkpt>
<trkpt lat="33.8105874" lon="-118.3934468">
  <ele>-3.33</ele>
  <time>2026-09-01T01:14:55Z</time>
  <course>118.73</course>
  <speed>0.02</speed>
  <fix>3d</fix>
</trkpt>
<trkpt lat="33.8105874" lon="-118.3934465">
  <ele>-3.762</ele>
  <time>2026-09-01T01:14:55Z</time>
  <course>156.54</course>
  <speed>0.053851648071345036</speed>
  <fix>3d</fix>
</trkpt>
<trkpt lat="33.8105874" lon="-118.3934467">
  <ele>-3.31</ele>
  <time>2026-09-01T01:14:55Z</time>
  <course>118.73</course>
  <speed>0.02</speed>
  <fix>3d</fix>
</trkpt>
<trkpt lat="33.8105874" lon="-118.3934464">
  <ele>-3.752</ele>
  <time>2026-09-01T01:14:55Z</time>
  <course>156.54</course>
  <speed>0.053851648071345036</speed>
  <fix>3d</fix>
</trkpt>
<trkpt lat="33.8105874" lon="-118.3934467">
  <ele>-3.31</ele>
  <time>2026-09-01T01:14:55Z</time>
  <course>118.73</course>
  <speed>0.02</speed>
  <fix>3d</fix>
</trkpt>
<trkpt lat="33.8105873" lon="-118.3934464">
  <ele>-3.742</ele>
  <time>2026-09-01T01:14:55Z</time>
  <course>156.54</course>
  <speed>0.053851648071345036</speed>
  <fix>3d</fix>
</trkpt>
<trkpt lat="33.8105874" lon="-118.3934467">
  <ele>-3.29</ele>
  <time>2026-09-01T01:14:55Z</time>
  <course>118.73</course>
  <speed>0.02</speed>
  <fix>3d</fix>
</trkpt>
<trkpt lat="33.8105873" lon="-118.3934464">
  <ele>-3.733</ele>
  <time>2026-09-01T01:14:56Z</time>
  <course>156.54</course>
  <speed>0.053851648071345036</speed>
  <fix>3d</fix>
</trkpt>
<trkpt lat="33.8105874" lon="-118.3934467">
  <ele>-3.29</ele>
  <time>2026-09-01T01:14:56Z</time>
  <course>118.73</course>
  <speed>0.02</speed>
  <fix>3d</fix>
</trkpt>
<trkpt lat="33.8105873" lon="-118.3934464">
  <ele>-3.724</ele>
  <time>2026-09-01T01:14:56Z</time>
  <course>156.54</course>
  <speed>0.053851648071345036</speed>
  <fix>3d</fix>
</trkpt>
<trkpt lat="33.8105873" lon="-118.3934466">
  <ele>-3.27</ele>
  <time>2026-09-01T01:14:56Z</time>
  <course>118.72</course>
  <speed>0.02</speed>
  <fix>3d</fix>
</trkpt>
<trkpt lat="33.8105873" lon="-118.3934463">
  <ele>-3.714</ele>
  <time>2026-09-01T01:14:56Z</time>
  <course>156.54</course>
  <speed>0.053851648071345036</speed>
  <fix>3d</fix>
</trkpt>
<trkpt lat="33.8105873" lon="-118.3934466">
  <ele>-3.27</ele>
  <time>2026-09-01T01:14:56Z</time>
  <course>118.72</course>
  <speed>0.02</speed>
  <fix>3d</fix>
</trkpt>
<trkpt lat="33.8105873" lon="-118.3934463">
  <ele>-3.703</ele>
  <time>2026-09-01T01:14:56Z</time>
  <course>156.54</course>
  <speed>0.053851648071345036</speed>
  <fix>3d</fix>
</trkpt>
<trkpt lat="33.8105873" lon="-118.3934466">
  <ele>-3.25</ele>
  <time>2026-09-01T01:14:56Z</time>
  <course>118.74</course>
  <speed>0.02</speed>
  <fix>3d</fix>
</trkpt>
<trkpt lat="33.8105873" lon="-118.3934463">
  <ele>-3.693</ele>
  <time>2026-09-01T01:14:56Z</time>
  <course>156.54</course>
  <speed>0.053851648071345036</speed>
  <fix>3d</fix>
</trkpt>
<trkpt lat="33.8105873" lon="-118.3934466">
  <ele>-3.25</ele>
  <time>2026-09-01T01:14:56Z</time>
  <course>118.74</course>
  <speed>0.02</speed>
  <fix>3d</fix>
</trkpt>
<trkpt lat="33.8105872" lon="-118.3934463">
  <ele>-3.683</ele>
  <time>2026-09-01T01:14:56Z</time>
  <course>156.54</course>
  <speed>0.053851648071345036</speed>
  <fix>3d</fix>
</trkpt>
<trkpt lat="33.8105873" lon="-118.3934465">
  <ele>-3.23</ele>
  <time>2026-09-01T01:14:56Z</time>
  <course>118.76</course>
  <speed>0.02</speed>
  <fix>3d</fix>
</trkpt>
<trkpt lat="33.8105872" lon="-118.3934462">
  <ele>-3.673</ele>
  <time>2026-09-01T01:14:56Z</time>
  <course>156.54</course>
  <speed>0.053851648071345036</speed>
  <fix>3d</fix>
</trkpt>
<trkpt lat="33.8105873" lon="-118.3934465">
  <ele>-3.23</ele>
  <time>2026-09-01T01:14:56Z</time>
  <course>118.76</course>
  <speed>0.02</speed>
  <fix>3d</fix>
</trkpt>
<trkpt lat="33.8105872" lon="-118.3934462">
  <ele>-3.662</ele>
  <time>2026-09-01T01:14:56Z</time>
  <course>156.54</course>
  <speed>0.053851648071345036</speed>
  <fix>3d</fix>
</trkpt>
<trkpt lat="33.8105873" lon="-118.3934465">
  <ele>-3.21</ele>
  <time>2026-09-01T01:14:56Z</time>
  <course>118.79</course>
  <speed>0.02</speed>
  <fix>3d</fix>
</trkpt>
<trkpt lat="33.8105872" lon="-118.3934462">
  <ele>-3.653</ele>
  <time>2026-09-01T01:14:56Z</time>
  <course>156.54</course>
  <speed>0.053851648071345036</speed>
  <fix>3d</fix>
</trkpt>
<trkpt lat="33.8105873" lon="-118.3934465">
  <ele>-3.21</ele>
  <time>2026-09-01T01:14:56Z</time>
  <course>118.79</course>
  <speed>0.02</speed>
  <fix>3d</fix>
</trkpt>
<trkpt lat="33.8105872" lon="-118.3934462">
  <ele>-3.643</ele>
  <time>2026-09-01T01:14:56Z</time>
  <course>156.54</course>
  <speed>0.053851648071345036</speed>
  <fix>3d</fix>
</trkpt>
<trkpt lat="33.8105873" lon="-118.3934464">
  <ele>-3.19</ele>
  <time>2026-09-01T01:14:56Z</time>
  <course>118.8</course>
  <speed>0.02</speed>
  <fix>3d</fix>
</trkpt>
<trkpt lat="33.8105872" lon="-118.3934461">
  <ele>-3.632</ele>
  <time>2026-09-01T01:14:57Z</time>
  <course>156.54</course>
  <speed>0.053851648071345036</speed>
  <fix>3d</fix>
</trkpt>
<trkpt lat="33.8105873" lon="-118.3934464">
  <ele>-3.19</ele>
  <time>2026-09-01T01:14:57Z</time>
  <course>118.8</course>
  <speed>0.02</speed>
  <fix>3d</fix>
</trkpt>
<trkpt lat="33.8105872" lon="-118.3934461">
  <ele>-3.622</ele>
  <time>2026-09-01T01:14:57Z</time>
  <course>156.54</course>
  <speed>0.053851648071345036</speed>
  <fix>3d</fix>
</trkpt>
<trkpt lat="33.8105873" lon="-118.3934463">
  <ele>-3.17</ele>
  <time>2026-09-01T01:14:57Z</time>
  <course>118.79</course>
  <speed>0.02</speed>
  <fix>3d</fix>
</trkpt>
<trkpt lat="33.8105872" lon="-118.3934461">
  <ele>-3.613</ele>
  <time>2026-09-01T01:14:57Z</time>
  <course>156.54</course>
  <speed>0.053851648071345036</speed>
  <fix>3d</fix>
</trkpt>
<trkpt lat="33.8105873" lon="-118.3934463">
  <ele>-3.17</ele>
  <time>2026-09-01T01:14:57Z</time>
  <course>118.79</course>
  <speed>0.02</speed>
  <fix>3d</fix>
</trkpt>
<trkpt lat="33.8105872" lon="-118.393446">
  <ele>-3.604</ele>
  <time>2026-09-01T01:14:57Z</time>
  <course>156.54</course>
  <speed>0.053851648071345036</speed>
  <fix>3d</fix>
</trkpt>
<trkpt lat="33.8105873" lon="-118.3934463">
  <ele>-3.15</ele>
  <time>2026-09-01T01:14:57Z</time>
  <course>118.78</course>
  <speed>0.02</speed>
  <fix>3d</fix>
</trkpt>
<trkpt lat="33.8105872" lon="-118.393446">
  <ele>-3.596</ele>
  <time>2026-09-01T01:14:57Z</time>
  <course>156.54</course>
  <speed>0.053851648071345036</speed>
  <fix>3d</fix>
</trkpt>
<trkpt lat="33.8105873" lon="-118.3934463">
  <ele>-3.15</ele>
  <time>2026-09-01T01:14:57Z</time>
  <course>118.78</course>
  <speed>0.02</speed>
  <fix>3d</fix>
</trkpt>
<trkpt lat="33.8105871" lon="-118.393446">
  <ele>-3.588</ele>
  <time>2026-09-01T01:14:57Z</time>
  <course>156.54</course>
  <speed>0.053851648071345036</speed>
  <fix>3d</fix>
</trkpt>
<trkpt lat="33.8105873" lon="-118.3934463">
  <ele>-3.13</ele>
  <time>2026-09-01T01:14:57Z</time>
  <course>118.78</course>
  <speed>0.02</speed>
  <fix>3d</fix>
</trkpt>
<trkpt lat="33.8105871" lon="-118.393446">
  <ele>-3.579</ele>
  <time>2026-09-01T01:14:57Z</time>
  <course>156.53</course>
  <speed>0.053851648071345036</speed>
  <fix>3d</fix>
</trkpt>
<trkpt lat="33.8105873" lon="-118.3934463">
  <ele>-3.13</ele>
  <time>2026-09-01T01:14:57Z</time>
  <course>118.78</course>
  <speed>0.02</speed>
  <fix>3d</fix>
</trkpt>
<trkpt lat="33.8105871" lon="-118.3934459">
  <ele>-3.57</ele>
  <time>2026-09-01T01:14:57Z</time>
  <course>156.53</course>
  <speed>0.053851648071345036</speed>
  <fix>3d</fix>
</trkpt>
<trkpt lat="33.8105872" lon="-118.3934463">
  <ele>-3.12</ele>
  <time>2026-09-01T01:14:57Z</time>
  <course>118.8</course>
  <speed>0.02</speed>
  <fix>3d</fix>
</trkpt>
<trkpt lat="33.8105871" lon="-118.3934459">
  <ele>-3.56</ele>
  <time>2026-09-01T01:14:57Z</time>
  <course>156.53</course>
  <speed>0.053851648071345036</speed>
  <fix>3d</fix>
</trkpt>
<trkpt lat="33.8105872" lon="-118.3934463">
  <ele>-3.12</ele>
  <time>2026-09-01T01:14:57Z</time>
  <course>118.8</course>
  <speed>0.02</speed>
  <fix>3d</fix>
</trkpt>
<trkpt lat="33.8105871" lon="-118.3934459">
  <ele>-3.55</ele>
  <time>2026-09-01T01:14:57Z</time>
  <course>156.53</course>
  <speed>0.053851648071345036</speed>
  <fix>3d</fix>
</trkpt>
<trkpt lat="33.8105872" lon="-118.3934462">
  <ele>-3.1</ele>
  <time>2026-09-01T01:14:57Z</time>
  <course>118.83</course>
  <speed>0.02</speed>
  <fix>3d</fix>
</trkpt>
<trkpt lat="33.8105871" lon="-118.3934459">
  <ele>-3.54</ele>
  <time>2026-09-01T01:14:57Z</time>
  <course>156.53</course>
  <speed>0.053851648071345036</speed>
  <fix>3d</fix>
</trkpt>
<trkpt lat="33.8105872" lon="-118.3934462">
  <ele>-3.1</ele>
  <time>2026-09-01T01:14:57Z</time>
  <course>118.83</course>
  <speed>0.02</speed>
  <fix>3d</fix>
</trkpt>
<trkpt lat="33.8105871" lon="-118.3934459">
  <ele>-3.531</ele>
  <time>2026-09-01T01:14:58Z</time>
  <course>156.53</course>
  <speed>0.053851648071345036</speed>
  <fix>3d</fix>
</trkpt>
<trkpt lat="33.8105872" lon="-118.3934462">
  <ele>-3.08</ele>
  <time>2026-09-01T01:14:58Z</time>
  <course>118.85</course>
  <speed>0.02</speed>
  <fix>3d</fix>
</trkpt>
<trkpt lat="33.8105871" lon="-118.3934458">
  <ele>-3.521</ele>
  <time>2026-09-01T01:14:58Z</time>
  <course>156.53</course>
  <speed>0.044721359549995794</speed>
  <fix>3d</fix>
</trkpt>
<trkpt lat="33.8105872" lon="-118.3934462">
  <ele>-3.08</ele>
  <time>2026-09-01T01:14:58Z</time>
  <course>118.85</course>
  <speed>0.02</speed>
  <fix>3d</fix>
</trkpt>
<trkpt lat="33.8105871" lon="-118.3934458">
  <ele>-3.512</ele>
  <time>2026-09-01T01:14:58Z</time>
  <course>156.53</course>
  <speed>0.044721359549995794</speed>
  <fix>3d</fix>
</trkpt>
<trkpt lat="33.8105872" lon="-118.3934461">
  <ele>-3.06</ele>
  <time>2026-09-01T01:14:58Z</time>
  <course>118.85</course>
  <speed>0.02</speed>
  <fix>3d</fix>
</trkpt>
<trkpt lat="33.8105871" lon="-118.3934458">
  <ele>-3.502</ele>
  <time>2026-09-01T01:14:58Z</time>
  <course>156.53</course>
  <speed>0.044721359549995794</speed>
  <fix>3d</fix>
</trkpt>
<trkpt lat="33.8105872" lon="-118.3934461">
  <ele>-3.06</ele>
  <time>2026-09-01T01:14:58Z</time>
  <course>118.85</course>
  <speed>0.02</speed>
  <fix>3d</fix>
</trkpt>
<trkpt lat="33.8105871" lon="-118.3934458">
  <ele>-3.491</ele>
  <time>2026-09-01T01:14:58Z</time>
  <course>156.53</course>
  <speed>0.044721359549995794</speed>
  <fix>3d</fix>
</trkpt>
<trkpt lat="33.8105872" lon="-118.3934461">
  <ele>-3.04</ele>
  <time>2026-09-01T01:14:58Z</time>
  <course>118.84</course>
  <speed>0.02</speed>
  <fix>3d</fix>
</trkpt>
<trkpt lat="33.8105871" lon="-118.3934458">
  <ele>-3.481</ele>
  <time>2026-09-01T01:14:58Z</time>
  <course>156.53</course>
  <speed>0.044721359549995794</speed>
  <fix>3d</fix>
</trkpt>
<trkpt lat="33.8105872" lon="-118.3934461">
  <ele>-3.04</ele>
  <time>2026-09-01T01:14:58Z</time>
  <course>118.84</course>
  <speed>0.02</speed>
  <fix>3d</fix>
</trkpt>
<trkpt lat="33.8105871" lon="-118.3934457">
  <ele>-3.471</ele>
  <time>2026-09-01T01:14:58Z</time>
  <course>156.53</course>
  <speed>0.044721359549995794</speed>
  <fix>3d</fix>
</trkpt>
<trkpt lat="33.8105871" lon="-118.393446">
  <ele>-3.02</ele>
  <time>2026-09-01T01:14:58Z</time>
  <course>118.83</course>
  <speed>0.02</speed>
  <fix>3d</fix>
</trkpt>
<trkpt lat="33.8105871" lon="-118.3934457">
  <ele>-3.46</ele>
  <time>2026-09-01T01:14:58Z</time>
  <course>156.53</course>
  <speed>0.044721359549995794</speed>
  <fix>3d</fix>
</trkpt>
<trkpt lat="33.8105871" lon="-118.393446">
  <ele>-3.02</ele>
  <time>2026-09-01T01:14:58Z</time>
  <course>118.83</course>
  <speed>0.02</speed>
  <fix>3d</fix>
</trkpt>
<trkpt lat="33.810587" lon="-118.3934457">
  <ele>-3.449</ele>
  <time>2026-09-01T01:14:58Z</time>
  <course>156.53</course>
  <speed>0.044721359549995794</speed>
  <fix>3d</fix>
</trkpt>
<trkpt lat="33.8105871" lon="-118.393446">
  <ele>-3.0</ele>
  <time>2026-09-01T01:14:58Z</time>
  <course>118.83</course>
  <speed>0.02</speed>
  <fix>3d</fix>
</trkpt>
<trkpt lat="33.810587" lon="-118.3934457">
  <ele>-3.439</ele>
  <time>2026-09-01T01:14:58Z</time>
  <course>156.53</course>
  <speed>0.044721359549995794</speed>
  <fix>3d</fix>
</trkpt>
<trkpt lat="33.8105871" lon="-118.393446">
  <ele>-3.0</ele>
  <time>2026-09-01T01:14:58Z</time>
  <course>118.83</course>
  <speed>0.02</speed>
  <fix>3d</fix>
</trkpt>
<trkpt lat="33.810587" lon="-118.3934457">
  <ele>-3.429</ele>
  <time>2026-09-01T01:14:59Z</time>
  <course>156.53</course>
  <speed>0.044721359549995794</speed>
  <fix>3d</fix>
</trkpt>
<trkpt lat="33.8105871" lon="-118.393446">
  <ele>-2.98</ele>
  <time>2026-09-01T01:14:59Z</time>
  <course>118.85</course>
  <speed>0.02</speed>
  <fix>3d</fix>
</trkpt>
<trkpt lat="33.810587" lon="-118.3934456">
  <ele>-3.42</ele>
  <time>2026-09-01T01:14:59Z</time>
  <course>156.53</course>
  <speed>0.044721359549995794</speed>
  <fix>3d</fix>
</trkpt>
<trkpt lat="33.8105871" lon="-118.393446">
  <ele>-2.98</ele>
  <time>2026-09-01T01:14:59Z</time>
  <course>118.85</course>
  <speed>0.02</speed>
  <fix>3d</fix>
</trkpt>
<trkpt lat="33.810587" lon="-118.3934456">
  <ele>-3.41</ele>
  <time>2026-09-01T01:14:59Z</time>
  <course>156.53</course>
  <speed>0.044721359549995794</speed>
  <fix>3d</fix>
</trkpt>
<trkpt lat="33.8105871" lon="-118.3934459">
  <ele>-2.96</ele>
  <time>2026-09-01T01:14:59Z</time>
  <course>118.88</course>
  <speed>0.02</speed>
  <fix>3d</fix>
</trkpt>
<trkpt lat="33.810587" lon="-118.3934456">
  <ele>-3.4</ele>
  <time>2026-09-01T01:14:59Z</time>
  <course>156.53</course>
  <speed>0.044721359549995794</speed>
  <fix>3d</fix>
</trkpt>
<trkpt lat="33.8105871" lon="-118.3934459">
  <ele>-2.96</ele>
  <time>2026-09-01T01:14:59Z</time>
  <course>118.88</course>
  <speed>0.02</speed>
  <fix>3d</fix>
</trkpt>
<trkpt lat="33.810587" lon="-118.3934456">
  <ele>-3.39</ele>
  <time>2026-09-01T01:14:59Z</time>
  <course>156.53</course>
  <speed>0.044721359549995794</speed>
  <fix>3d</fix>
</trkpt>
<trkpt lat="33.8105871" lon="-118.3934459">
  <ele>-2.94</ele>
  <time>2026-09-01T01:14:59Z</time>
  <course>118.9</course>
  <speed>0.02</speed>
  <fix>3d</fix>
</trkpt>
<trkpt lat="33.810587" lon="-118.3934456">
  <ele>-3.38</ele>
  <time>2026-09-01T01:14:59Z</time>
  <course>156.53</course>
  <speed>0.044721359549995794</speed>
  <fix>3d</fix>
</trkpt>
<trkpt lat="33.8105871" lon="-118.3934459">
  <ele>-2.94</ele>
  <time>2026-09-01T01:14:59Z</time>
  <course>118.9</course>
  <speed>0.02</speed>
  <fix>3d</fix>
</trkpt>
<trkpt lat="33.810587" lon="-118.3934456">
  <ele>-3.372</ele>
  <time>2026-09-01T01:14:59Z</time>
  <course>156.53</course>
  <speed>0.044721359549995794</speed>
  <fix>3d</fix>
</trkpt>
<trkpt lat="33.8105871" lon="-118.3934459">
  <ele>-2.92</ele>
  <time>2026-09-01T01:14:59Z</time>
  <course>118.89</course>
  <speed>0.02</speed>
  <fix>3d</fix>
</trkpt>
<trkpt lat="33.810587" lon="-118.3934455">
  <ele>-3.364</ele>
  <time>2026-09-01T01:14:59Z</time>
  <course>156.53</course>
  <speed>0.044721359549995794</speed>
  <fix>3d</fix>
</trkpt>
<trkpt lat="33.8105871" lon="-118.3934459">
  <ele>-2.92</ele>
  <time>2026-09-01T01:14:59Z</time>
  <course>118.89</course>
  <speed>0.02</speed>
  <fix>3d</fix>
</trkpt>
<trkpt lat="33.810587" lon="-118.3934455">
  <ele>-3.356</ele>
  <time>2026-09-01T01:14:59Z</time>
  <course>156.53</course>
  <speed>0.044721359549995794</speed>
  <fix>3d</fix>
</trkpt>
<trkpt lat="33.810587" lon="-118.3934458">
  <ele>-2.91</ele>
  <time>2026-09-01T01:14:59Z</time>
  <course>118.88</course>
  <speed>0.01</speed>
  <fix>3d</fix>
</trkpt>
<trkpt lat="33.810587" lon="-118.3934455">
  <ele>-3.347</ele>
  <time>2026-09-01T01:14:59Z</time>
  <course>156.53</course>
  <speed>0.044721359549995794</speed>
  <fix>3d</fix>
</trkpt>
<trkpt lat="33.810587" lon="-118.3934458">
  <ele>-2.91</ele>
  <time>2026-09-01T01:14:59Z</time>
  <course>118.88</course>
  <speed>0.01</speed>
  <fix>3d</fix>
</trkpt>
<trkpt lat="33.810587" lon="-118.3934455">
  <ele>-3.339</ele>
  <time>2026-09-01T01:15:00Z</time>
  <course>156.53</course>
  <speed>0.0412310562561766</speed>
  <fix>3d</fix>
</trkpt>
<trkpt lat="33.810587" lon="-118.3934458">
  <ele>-2.89</ele>
  <time>2026-09-01T01:15:00Z</time>
  <course>118.87</course>
  <speed>0.01</speed>
  <fix>3d</fix>
</trkpt>
<trkpt lat="33.810587" lon="-118.3934455">
  <ele>-3.33</ele>
  <time>2026-09-01T01:15:00Z</time>
  <course>156.53</course>
  <speed>0.0412310562561766</speed>
  <fix>3d</fix>
</trkpt>
<trkpt lat="33.810587" lon="-118.3934458">
  <ele>-2.89</ele>
  <time>2026-09-01T01:15:00Z</time>
  <course>118.87</course>
  <speed>0.01</speed>
  <fix>3d</fix>
</trkpt>
<trkpt lat="33.8105869" lon="-118.3934455">
  <ele>-3.321</ele>
  <time>2026-09-01T01:15:00Z</time>
  <course>156.53</course>
  <speed>0.0412310562561766</speed>
  <fix>3d</fix>
</trkpt>
<trkpt lat="33.810587" lon="-118.3934457">
  <ele>-2.87</ele>
  <time>2026-09-01T01:15:00Z</time>
  <course>118.88</course>
  <speed>0.01</speed>
  <fix>3d</fix>
</trkpt>
<trkpt lat="33.8105869" lon="-118.3934454">
  <ele>-3.311</ele>
  <time>2026-09-01T01:15:00Z</time>
  <course>156.53</course>
  <speed>0.0412310562561766</speed>
  <fix>3d</fix>
</trkpt>
<trkpt lat="33.810587" lon="-118.3934457">
  <ele>-2.87</ele>
  <time>2026-09-01T01:15:00Z</time>
  <course>118.88</course>
  <speed>0.01</speed>
  <fix>3d</fix>
</trkpt>
<trkpt lat="33.8105869" lon="-118.3934454">
  <ele>-3.301</ele>
  <time>2026-09-01T01:15:00Z</time>
  <course>156.53</course>
  <speed>0.0412310562561766</speed>
  <fix>3d</fix>
</trkpt>
<trkpt lat="33.810587" lon="-118.3934457">
  <ele>-2.85</ele>
  <time>2026-09-01T01:15:00Z</time>
  <course>118.91</course>
  <speed>0.01</speed>
  <fix>3d</fix>
</trkpt>
<trkpt lat="33.8105869" lon="-118.3934454">
  <ele>-3.291</ele>
  <time>2026-09-01T01:15:00Z</time>
  <course>156.52</course>
  <speed>0.0412310562561766</speed>
  <fix>3d</fix>
</trkpt>
<trkpt lat="33.810587" lon="-118.3934457">
  <ele>-2.85</ele>
  <time>2026-09-01T01:15:00Z</time>
  <course>118.91</course>
  <speed>0.01</speed>
  <fix>3d</fix>
</trkpt>
<trkpt lat="33.8105869" lon="-118.3934454">
  <ele>-3.281</ele>
  <time>2026-09-01T01:15:00Z</time>
  <course>156.52</course>
  <speed>0.0412310562561766</speed>
  <fix>3d</fix>
</trkpt>
<trkpt lat="33.810587" lon="-118.3934457">
  <ele>-2.83</ele>
  <time>2026-09-01T01:15:00Z</time>
  <course>118.93</course>
  <speed>0.01</speed>
  <fix>3d</fix>
</trkpt>
<trkpt lat="33.8105869" lon="-118.3934454">
  <ele>-3.27</ele>
  <time>2026-09-01T01:15:00Z</time>
  <course>156.52</course>
  <speed>0.0412310562561766</speed>
  <fix>3d</fix>
</trkpt>
<trkpt lat="33.810587" lon="-118.3934457">
  <ele>-2.83</ele>
  <time>2026-09-01T01:15:00Z</time>
  <course>118.93</course>
  <speed>0.01</speed>
  <fix>3d</fix>
</trkpt>
<trkpt lat="33.8105869" lon="-118.3934453">
  <ele>-3.259</ele>
  <time>2026-09-01T01:15:00Z</time>
  <course>156.52</course>
  <speed>0.0412310562561766</speed>
  <fix>3d</fix>
</trkpt>
<trkpt lat="33.810587" lon="-118.3934456">
  <ele>-2.81</ele>
  <time>2026-09-01T01:15:00Z</time>
  <course>118.94</course>
  <speed>0.01</speed>
  <fix>3d</fix>
</trkpt>
<trkpt lat="33.8105869" lon="-118.3934453">
  <ele>-3.248</ele>
  <time>2026-09-01T01:15:00Z</time>
  <course>156.52</course>
  <speed>0.0412310562561766</speed>
  <fix>3d</fix>
</trkpt>
<trkpt lat="33.810587" lon="-118.3934456">
  <ele>-2.81</ele>
  <time>2026-09-01T01:15:00Z</time>
  <course>118.94</course>
  <speed>0.01</speed>
  <fix>3d</fix>
</trkpt>
<trkpt lat="33.8105869" lon="-118.3934453">
  <ele>-3.236</ele>
  <time>2026-09-01T01:15:01Z</time>
  <course>156.52</course>
  <speed>0.0412310562561766</speed>
  <fix>3d</fix>
</trkpt>
<trkpt lat="33.8105869" lon="-118.3934456">
  <ele>-2.79</ele>
  <time>2026-09-01T01:15:01Z</time>
  <course>118.92</course>
  <speed>0.01</speed>
  <fix>3d</fix>
</trkpt>
<trkpt lat="33.8105869" lon="-118.3934453">
  <ele>-3.224</ele>
  <time>2026-09-01T01:15:01Z</time>
  <course>156.52</course>
  <speed>0.0412310562561766</speed>
  <fix>3d</fix>
</trkpt>
<trkpt lat="33.8105869" lon="-118.3934456">
  <ele>-2.79</ele>
  <time>2026-09-01T01:15:01Z</time>
  <course>118.92</course>
  <speed>0.01</speed>
  <fix>3d</fix>
</trkpt>
<trkpt lat="33.8105869" lon="-118.3934453">
  <ele>-3.211</ele>
  <time>2026-09-01T01:15:01Z</time>
  <course>156.52</course>
  <speed>0.0412310562561766</speed>
  <fix>3d</fix>
</trkpt>
<trkpt lat="33.8105868" lon="-118.3934456">
  <ele>-2.77</ele>
  <time>2026-09-01T01:15:01Z</time>
  <course>118.91</course>
  <speed>0.01</speed>
  <fix>3d</fix>
</trkpt>
<trkpt lat="33.8105869" lon="-118.3934453">
  <ele>-3.199</ele>
  <time>2026-09-01T01:15:01Z</time>
  <course>156.52</course>
  <speed>0.0412310562561766</speed>
  <fix>3d</fix>
</trkpt>
<trkpt lat="33.8105868" lon="-118.3934456">
  <ele>-2.77</ele>
  <time>2026-09-01T01:15:01Z</time>
  <course>118.91</course>
  <speed>0.01</speed>
  <fix>3d</fix>
</trkpt>
<trkpt lat="33.8105868" lon="-118.3934452">
  <ele>-3.188</ele>
  <time>2026-09-01T01:15:01Z</time>
  <course>156.52</course>
  <speed>0.044721359549995794</speed>
  <fix>3d</fix>
</trkpt>
<trkpt lat="33.8105868" lon="-118.3934455">
  <ele>-2.75</ele>
  <time>2026-09-01T01:15:01Z</time>
  <course>118.9</course>
  <speed>0.01</speed>
  <fix>3d</fix>
</trkpt>
<trkpt lat="33.8105868" lon="-118.3934452">
  <ele>-3.176</ele>
  <time>2026-09-01T01:15:01Z</time>
  <course>156.52</course>
  <speed>0.044721359549995794</speed>
  <fix>3d</fix>
</trkpt>
<trkpt lat="33.8105868" lon="-118.3934455">
  <ele>-2.75</ele>
  <time>2026-09-01T01:15:01Z</time>
  <course>118.9</course>
  <speed>0.01</speed>
  <fix>3d</fix>
</trkpt>
<trkpt lat="33.8105868" lon="-118.3934452">
  <ele>-3.166</ele>
  <time>2026-09-01T01:15:01Z</time>
  <course>156.52</course>
  <speed>0.044721359549995794</speed>
  <fix>3d</fix>
</trkpt>
<trkpt lat="33.8105868" lon="-118.3934455">
  <ele>-2.73</ele>
  <time>2026-09-01T01:15:01Z</time>
  <course>118.92</course>
  <speed>0.01</speed>
  <fix>3d</fix>
</trkpt>
<trkpt lat="33.8105868" lon="-118.3934452">
  <ele>-3.157</ele>
  <time>2026-09-01T01:15:01Z</time>
  <course>156.52</course>
  <speed>0.044721359549995794</speed>
  <fix>3d</fix>
</trkpt>
<trkpt lat="33.8105868" lon="-118.3934455">
  <ele>-2.73</ele>
  <time>2026-09-01T01:15:01Z</time>
  <course>118.92</course>
  <speed>0.01</speed>
  <fix>3d</fix>
</trkpt>
<trkpt lat="33.8105868" lon="-118.3934452">
  <ele>-3.148</ele>
  <time>2026-09-01T01:15:01Z</time>
  <course>156.52</course>
  <speed>0.044721359549995794</speed>
  <fix>3d</fix>
</trkpt>
<trkpt lat="33.8105868" lon="-118.3934455">
  <ele>-2.72</ele>
  <time>2026-09-01T01:15:01Z</time>
  <course>118.95</course>
  <speed>0.01</speed>
  <fix>3d</fix>
</trkpt>
<trkpt lat="33.8105868" lon="-118.3934452">
  <ele>-3.138</ele>
  <time>2026-09-01T01:15:01Z</time>
  <course>156.52</course>
  <speed>0.044721359549995794</speed>
  <fix>3d</fix>
</trkpt>
<trkpt lat="33.8105868" lon="-118.3934455">
  <ele>-2.72</ele>
  <time>2026-09-01T01:15:01Z</time>
  <course>118.95</course>
  <speed>0.01</speed>
  <fix>3d</fix>
</trkpt>
<trkpt lat="33.8105868" lon="-118.3934451">
  <ele>-3.13</ele>
  <time>2026-09-01T01:15:02Z</time>
  <course>156.52</course>
  <speed>0.044721359549995794</speed>
  <fix>3d</fix>
</trkpt>
<trkpt lat="33.8105868" lon="-118.3934454">
  <ele>-2.7</ele>
  <time>2026-09-01T01:15:02Z</time>
  <course>118.97</course>
  <speed>0.01</speed>
  <fix>3d</fix>
</trkpt>
<trkpt lat="33.8105867" lon="-118.3934451">
  <ele>-3.122</ele>
  <time>2026-09-01T01:15:02Z</time>
  <course>156.52</course>
  <speed>0.044721359549995794</speed>
  <fix>3d</fix>
</trkpt>
<trkpt lat="33.8105868" lon="-118.3934454">
  <ele>-2.7</ele>
  <time>2026-09-01T01:15:02Z</time>
  <course>118.97</course>
  <speed>0.01</speed>
  <fix>3d</fix>
</trkpt>
<trkpt lat="33.8105867" lon="-118.3934451">
  <ele>-3.113</ele>
  <time>2026-09-01T01:15:02Z</time>
  <course>156.52</course>
  <speed>0.044721359549995794</speed>
  <fix>3d</fix>
</trkpt>
<trkpt lat="33.8105868" lon="-118.3934454">
  <ele>-2.68</ele>
  <time>2026-09-01T01:15:02Z</time>
  <course>118.97</course>
  <speed>0.01</speed>
  <fix>3d</fix>
</trkpt>
<trkpt lat="33.8105867" lon="-118.3934451">
  <ele>-3.104</ele>
  <time>2026-09-01T01:15:02Z</time>
  <course>156.52</course>
  <speed>0.044721359549995794</speed>
  <fix>3d</fix>
</trkpt>
<trkpt lat="33.8105868" lon="-118.3934454">
  <ele>-2.68</ele>
  <time>2026-09-01T01:15:02Z</time>
  <course>118.97</course>
  <speed>0.01</speed>
  <fix>3d</fix>
</trkpt>
<trkpt lat="33.8105867" lon="-118.3934451">
  <ele>-3.095</ele>
  <time>2026-09-01T01:15:02Z</time>
  <course>156.52</course>
  <speed>0.044721359549995794</speed>
  <fix>3d</fix>
</trkpt>
<trkpt lat="33.8105868" lon="-118.3934454">
  <ele>-2.66</ele>
  <time>2026-09-01T01:15:02Z</time>
  <course>118.95</course>
  <speed>0.01</speed>
  <fix>3d</fix>
</trkpt>
<trkpt lat="33.8105867" lon="-118.3934451">
  <ele>-3.085</ele>
  <time>2026-09-01T01:15:02Z</time>
  <course>156.52</course>
  <speed>0.044721359549995794</speed>
  <fix>3d</fix>
</trkpt>
<trkpt lat="33.8105868" lon="-118.3934454">
  <ele>-2.66</ele>
  <time>2026-09-01T01:15:02Z</time>
  <course>118.95</course>
  <speed>0.01</speed>
  <fix>3d</fix>
</trkpt>
<trkpt lat="33.8105867" lon="-118.3934451">
  <ele>-3.075</ele>
  <time>2026-09-01T01:15:02Z</time>
  <course>156.52</course>
  <speed>0.044721359549995794</speed>
  <fix>3d</fix>
</trkpt>
<trkpt lat="33.8105867" lon="-118.3934453">
  <ele>-2.64</ele>
  <time>2026-09-01T01:15:02Z</time>
  <course>118.94</course>
  <speed>0.01</speed>
  <fix>3d</fix>
</trkpt>
<trkpt lat="33.8105867" lon="-118.393445">
  <ele>-3.065</ele>
  <time>2026-09-01T01:15:02Z</time>
  <course>156.52</course>
  <speed>0.044721359549995794</speed>
  <fix>3d</fix>
</trkpt>
<trkpt lat="33.8105867" lon="-118.3934453">
  <ele>-2.64</ele>
  <time>2026-09-01T01:15:02Z</time>
  <course>118.94</course>
  <speed>0.01</speed>
  <fix>3d</fix>
</trkpt>
<trkpt lat="33.8105867" lon="-118.393445">
  <ele>-3.055</ele>
  <time>2026-09-01T01:15:02Z</time>
  <course>156.52</course>
  <speed>0.044721359549995794</speed>
  <fix>3d</fix>
</trkpt>
<trkpt lat="33.8105867" lon="-118.3934453">
  <ele>-2.62</ele>
  <time>2026-09-01T01:15:02Z</time>
  <course>118.94</course>
  <speed>0.01</speed>
  <fix>3d</fix>
</trkpt>
<trkpt lat="33.8105867" lon="-118.393445">
  <ele>-3.045</ele>
  <time>2026-09-01T01:15:02Z</time>
  <course>156.52</course>
  <speed>0.044721359549995794</speed>
  <fix>3d</fix>
</trkpt>
<trkpt lat="33.8105867" lon="-118.3934453">
  <ele>-2.62</ele>
  <time>2026-09-01T01:15:02Z</time>
  <course>118.94</course>
  <speed>0.01</speed>
  <fix>3d</fix>
</trkpt>
<trkpt lat="33.8105867" lon="-118.393445">
  <ele>-3.035</ele>
  <time>2026-09-01T01:15:03Z</time>
  <course>156.52</course>
  <speed>0.044721359549995794</speed>
  <fix>3d</fix>
</trkpt>
<trkpt lat="33.8105867" lon="-118.3934453">
  <ele>-2.6</ele>
  <time>2026-09-01T01:15:03Z</time>
  <course>118.97</course>
  <speed>0.01</speed>
  <fix>3d</fix>
</trkpt>
<trkpt lat="33.8105866" lon="-118.393445">
  <ele>-3.024</ele>
  <time>2026-09-01T01:15:03Z</time>
  <course>156.52</course>
  <speed>0.044721359549995794</speed>
  <fix>3d</fix>
</trkpt>
<trkpt lat="33.8105867" lon="-118.3934453">
  <ele>-2.6</ele>
  <time>2026-09-01T01:15:03Z</time>
  <course>118.97</course>
  <speed>0.01</speed>
  <fix>3d</fix>
</trkpt>
<trkpt lat="33.8105866" lon="-118.393445">
  <ele>-3.013</ele>
  <time>2026-09-01T01:15:03Z</time>
  <course>156.52</course>
  <speed>0.044721359549995794</speed>
  <fix>3d</fix>
</trkpt>
<trkpt lat="33.8105867" lon="-118.3934453">
  <ele>-2.58</ele>
  <time>2026-09-01T01:15:03Z</time>
  <course>118.99</course>
  <speed>0.01</speed>
  <fix>3d</fix>
</trkpt>
<trkpt lat="33.8105866" lon="-118.3934449">
  <ele>-3.002</ele>
  <time>2026-09-01T01:15:03Z</time>
  <course>156.52</course>
  <speed>0.044721359549995794</speed>
  <fix>3d</fix>
</trkpt>
<trkpt lat="33.8105867" lon="-118.3934453">
  <ele>-2.58</ele>
  <time>2026-09-01T01:15:03Z</time>
  <course>118.99</course>
  <speed>0.01</speed>
  <fix>3d</fix>
</trkpt>
<trkpt lat="33.8105866" lon="-118.3934449">
  <ele>-2.993</ele>
  <time>2026-09-01T01:15:03Z</time>
  <course>156.52</course>
  <speed>0.044721359549995794</speed>
  <fix>3d</fix>
</trkpt>
<trkpt lat="33.8105867" lon="-118.3934452">
  <ele>-2.56</ele>
  <time>2026-09-01T01:15:03Z</time>
  <course>119.0</course>
  <speed>0.01</speed>
  <fix>3d</fix>
</trkpt>
<trkpt lat="33.8105866" lon="-118.3934449">
  <ele>-2.984</ele>
  <time>2026-09-01T01:15:03Z</time>
  <course>156.52</course>
  <speed>0.044721359549995794</speed>
  <fix>3d</fix>
</trkpt>
<trkpt lat="33.8105867" lon="-118.3934452">
  <ele>-2.56</ele>
  <time>2026-09-01T01:15:03Z</time>
  <course>119.0</course>
  <speed>0.01</speed>
  <fix>3d</fix>
</trkpt>
<trkpt lat="33.8105866" lon="-118.3934449">
  <ele>-2.975</ele>
  <time>2026-09-01T01:15:03Z</time>
  <course>156.52</course>
  <speed>0.044721359549995794</speed>
  <fix>3d</fix>
</trkpt>
<trkpt lat="33.8105867" lon="-118.3934451">
  <ele>-2.54</ele>
  <time>2026-09-01T01:15:03Z</time>
  <course>118.99</course>
  <speed>0.01</speed>
  <fix>3d</fix>
</trkpt>
<trkpt lat="33.8105866" lon="-118.3934449">
  <ele>-2.966</ele>
  <time>2026-09-01T01:15:03Z</time>
  <course>156.52</course>
  <speed>0.044721359549995794</speed>
  <fix>3d</fix>
</trkpt>
<trkpt lat="33.8105867" lon="-118.3934451">
  <ele>-2.54</ele>
  <time>2026-09-01T01:15:03Z</time>
  <course>118.99</course>
  <speed>0.01</speed>
  <fix>3d</fix>
</trkpt>
<trkpt lat="33.8105866" lon="-118.3934449">
  <ele>-2.957</ele>
  <time>2026-09-01T01:15:03Z</time>
  <course>156.52</course>
  <speed>0.044721359549995794</speed>
  <fix>3d</fix>
</trkpt>
<trkpt lat="33.8105867" lon="-118.3934451">
  <ele>-2.52</ele>
  <time>2026-09-01T01:15:03Z</time>
  <course>118.97</course>
  <speed>0.01</speed>
  <fix>3d</fix>
</trkpt>
<trkpt lat="33.8105866" lon="-118.3934448">
  <ele>-2.949</ele>
  <time>2026-09-01T01:15:03Z</time>
  <course>156.52</course>
  <speed>0.044721359549995794</speed>
  <fix>3d</fix>
</trkpt>
<trkpt lat="33.8105867" lon="-118.3934451">
  <ele>-2.52</ele>
  <time>2026-09-01T01:15:03Z</time>
  <course>118.97</course>
  <speed>0.01</speed>
  <fix>3d</fix>
</trkpt>
<trkpt lat="33.8105866" lon="-118.3934448">
  <ele>-2.941</ele>
  <time>2026-09-01T01:15:04Z</time>
  <course>156.52</course>
  <speed>0.044721359549995794</speed>
  <fix>3d</fix>
</trkpt>
<trkpt lat="33.8105867" lon="-118.3934451">
  <ele>-2.51</ele>
  <time>2026-09-01T01:15:04Z</time>
  <course>118.96</course>
  <speed>0.01</speed>
  <fix>3d</fix>
</trkpt>
<trkpt lat="33.8105866" lon="-118.3934448">
  <ele>-2.933</ele>
  <time>2026-09-01T01:15:04Z</time>
  <course>156.52</course>
  <speed>0.044721359549995794</speed>
  <fix>3d</fix>
</trkpt>
<trkpt lat="33.8105867" lon="-118.3934451">
  <ele>-2.51</ele>
  <time>2026-09-01T01:15:04Z</time>
  <course>118.96</course>
  <speed>0.01</speed>
  <fix>3d</fix>
</trkpt>
<trkpt lat="33.8105866" lon="-118.3934448">
  <ele>-2.925</ele>
  <time>2026-09-01T01:15:04Z</time>
  <course>156.52</course>
  <speed>0.044721359549995794</speed>
  <fix>3d</fix>
</trkpt>
<trkpt lat="33.8105867" lon="-118.3934451">
  <ele>-2.49</ele>
  <time>2026-09-01T01:15:04Z</time>
  <course>118.98</course>
  <speed>0.01</speed>
  <fix>3d</fix>
</trkpt>
<trkpt lat="33.8105866" lon="-118.3934448">
  <ele>-2.917</ele>
  <time>2026-09-01T01:15:04Z</time>
  <course>156.52</course>
  <speed>0.044721359549995794</speed>
  <fix>3d</fix>
</trkpt>
<trkpt lat="33.8105867" lon="-118.3934451">
  <ele>-2.49</ele>
  <time>2026-09-01T01:15:04Z</time>
  <course>118.98</course>
  <speed>0.01</speed>
  <fix>3d</fix>
</trkpt>
<trkpt lat="33.8105866" lon="-118.3934448">
  <ele>-2.907</ele>
  <time>2026-09-01T01:15:04Z</time>
  <course>156.52</course>
  <speed>0.044721359549995794</speed>
  <fix>3d</fix>
</trkpt>
<trkpt lat="33.8105867" lon="-118.3934451">
  <ele>-2.47</ele>
  <time>2026-09-01T01:15:04Z</time>
  <course>119.01</course>
  <speed>0.01</speed>
  <fix>3d</fix>
</trkpt>
<trkpt lat="33.8105866" lon="-118.3934448">
  <ele>-2.896</ele>
  <time>2026-09-01T01:15:04Z</time>
  <course>156.52</course>
  <speed>0.0412310562561766</speed>
  <fix>3d</fix>
</trkpt>
<trkpt lat="33.8105867" lon="-118.3934451">
  <ele>-2.47</ele>
  <time>2026-09-01T01:15:04Z</time>
  <course>119.01</course>
  <speed>0.01</speed>
  <fix>3d</fix>
</trkpt>
<trkpt lat="33.8105866" lon="-118.3934447">
  <ele>-2.884</ele>
  <time>2026-09-01T01:15:04Z</time>
  <course>156.52</course>
  <speed>0.0412310562561766</speed>
  <fix>3d</fix>
</trkpt>
<trkpt lat="33.8105867" lon="-118.3934451">
  <ele>-2.45</ele>
  <time>2026-09-01T01:15:04Z</time>
  <course>119.03</course>
  <speed>0.01</speed>
  <fix>3d</fix>
</trkpt>
<trkpt lat="33.8105866" lon="-118.3934447">
  <ele>-2.873</ele>
  <time>2026-09-01T01:15:04Z</time>
  <course>156.52</course>
  <speed>0.0412310562561766</speed>
  <fix>3d</fix>
</trkpt>
<trkpt lat="33.8105867" lon="-118.3934451">
  <ele>-2.45</ele>
  <time>2026-09-01T01:15:04Z</time>
  <course>119.03</course>
  <speed>0.01</speed>
  <fix>3d</fix>
</trkpt>
<trkpt lat="33.8105866" lon="-118.3934447">
  <ele>-2.863</ele>
  <time>2026-09-01T01:15:04Z</time>
  <course>156.52</course>
  <speed>0.0412310562561766</speed>
  <fix>3d</fix>
</trkpt>
<trkpt lat="33.8105867" lon="-118.393445">
  <ele>-2.43</ele>
  <time>2026-09-01T01:15:04Z</time>
  <course>119.03</course>
  <speed>0.01</speed>
  <fix>3d</fix>
</trkpt>
<trkpt lat="33.8105866" lon="-118.3934447">
  <ele>-2.852</ele>
  <time>2026-09-01T01:15:04Z</time>
  <course>156.52</course>
  <speed>0.0412310562561766</speed>
  <fix>3d</fix>
</trkpt>
<trkpt lat="33.8105867" lon="-118.393445">
  <ele>-2.43</ele>
  <time>2026-09-01T01:15:04Z</time>
  <course>119.03</course>
  <speed>0.01</speed>
  <fix>3d</fix>
</trkpt>
<trkpt lat="33.8105866" lon="-118.3934447">
  <ele>-2.841</ele>
  <time>2026-09-01T01:15:04Z</time>
  <course>156.52</course>
  <speed>0.0412310562561766</speed>
  <fix>3d</fix>
</trkpt>
<trkpt lat="33.8105867" lon="-118.393445">
  <ele>-2.41</ele>
  <time>2026-09-01T01:15:04Z</time>
  <course>119.02</course>
  <speed>0.01</speed>
  <fix>3d</fix>
</trkpt>
<trkpt lat="33.8105866" lon="-118.3934447">
  <ele>-2.83</ele>
  <time>2026-09-01T01:15:05Z</time>
  <course>156.52</course>
  <speed>0.0412310562561766</speed>
  <fix>3d</fix>
</trkpt>
<trkpt lat="33.8105867" lon="-118.393445">
  <ele>-2.41</ele>
  <time>2026-09-01T01:15:05Z</time>
  <course>119.02</course>
  <speed>0.01</speed>
  <fix>3d</fix>
</trkpt>
<trkpt lat="33.8105866" lon="-118.3934447">
  <ele>-2.821</ele>
  <time>2026-09-01T01:15:05Z</time>
  <course>156.52</course>
  <speed>0.0412310562561766</speed>
  <fix>3d</fix>
</trkpt>
<trkpt lat="33.8105867" lon="-118.393445">
  <ele>-2.39</ele>
  <time>2026-09-01T01:15:05Z</time>
  <course>119.0</course>
  <speed>0.01</speed>
  <fix>3d</fix>
</trkpt>
<trkpt lat="33.8105866" lon="-118.3934447">
  <ele>-2.812</ele>
  <time>2026-09-01T01:15:05Z</time>
  <course>156.52</course>
  <speed>0.0412310562561766</speed>
  <fix>3d</fix>
</trkpt>
<trkpt lat="33.8105867" lon="-118.393445">
  <ele>-2.39</ele>
  <time>2026-09-01T01:15:05Z</time>
  <course>119.0</course>
  <speed>0.01</speed>
  <fix>3d</fix>
</trkpt>
<trkpt lat="33.8105866" lon="-118.3934447">
  <ele>-2.803</ele>
  <time>2026-09-01T01:15:05Z</time>
  <course>156.52</course>
  <speed>0.0412310562561766</speed>
  <fix>3d</fix>
</trkpt>
<trkpt lat="33.8105866" lon="-118.3934449">
  <ele>-2.37</ele>
  <time>2026-09-01T01:15:05Z</time>
  <course>118.99</course>
  <speed>0.01</speed>
  <fix>3d</fix>
</trkpt>
<trkpt lat="33.8105866" lon="-118.3934446">
  <ele>-2.794</ele>
  <time>2026-09-01T01:15:05Z</time>
  <course>156.52</course>
  <speed>0.0412310562561766</speed>
  <fix>3d</fix>
</trkpt>
<trkpt lat="33.8105866" lon="-118.3934449">
  <ele>-2.37</ele>
  <time>2026-09-01T01:15:05Z</time>
  <course>118.99</course>
  <speed>0.01</speed>
  <fix>3d</fix>
</trkpt>
<trkpt lat="33.8105866" lon="-118.3934446">
  <ele>-2.785</ele>
  <time>2026-09-01T01:15:05Z</time>
  <course>156.51</course>
  <speed>0.0412310562561766</speed>
  <fix>3d</fix>
</trkpt>
<trkpt lat="33.8105866" lon="-118.3934449">
  <ele>-2.35</ele>
  <time>2026-09-01T01:15:05Z</time>
  <course>119.01</course>
  <speed>0.01</speed>
  <fix>3d</fix>
</trkpt>
<trkpt lat="33.8105866" lon="-118.3934446">
  <ele>-2.775</ele>
  <time>2026-09-01T01:15:05Z</time>
  <course>156.51</course>
  <speed>0.0412310562561766</speed>
  <fix>3d</fix>
</trkpt>
<trkpt lat="33.8105866" lon="-118.3934449">
  <ele>-2.35</ele>
  <time>2026-09-01T01:15:05Z</time>
  <course>119.01</course>
  <speed>0.01</speed>
  <fix>3d</fix>
</trkpt>
<trkpt lat="33.8105865" lon="-118.3934446">
  <ele>-2.767</ele>
  <time>2026-09-01T01:15:05Z</time>
  <course>156.51</course>
  <speed>0.0412310562561766</speed>
  <fix>3d</fix>
</trkpt>
<trkpt lat="33.8105866" lon="-118.3934449">
  <ele>-2.33</ele>
  <time>2026-09-01T01:15:05Z</time>
  <course>119.04</course>
  <speed>0.01</speed>
  <fix>3d</fix>
</trkpt>
<trkpt lat="33.8105865" lon="-118.3934446">
  <ele>-2.758</ele>
  <time>2026-09-01T01:15:05Z</time>
  <course>156.51</course>
  <speed>0.0412310562561766</speed>
  <fix>3d</fix>
</trkpt>
<trkpt lat="33.8105866" lon="-118.3934449">
  <ele>-2.33</ele>
  <time>2026-09-01T01:15:05Z</time>
  <course>119.04</course>
  <speed>0.01</speed>
  <fix>3d</fix>
</trkpt>
<trkpt lat="33.8105865" lon="-118.3934446">
  <ele>-2.748</ele>
  <time>2026-09-01T01:15:05Z</time>
  <course>156.51</course>
  <speed>0.0412310562561766</speed>
  <fix>3d</fix>
</trkpt>
<trkpt lat="33.8105866" lon="-118.3934449">
  <ele>-2.31</ele>
  <time>2026-09-01T01:15:05Z</time>
  <course>119.06</course>
  <speed>0.01</speed>
  <fix>3d</fix>
</trkpt>
<trkpt lat="33.8105865" lon="-118.3934446">
  <ele>-2.739</ele>
  <time>2026-09-01T01:15:06Z</time>
  <course>156.51</course>
  <speed>0.0412310562561766</speed>
  <fix>3d</fix>
</trkpt>
<trkpt lat="33.8105866" lon="-118.3934449">
  <ele>-2.31</ele>
  <time>2026-09-01T01:15:06Z</time>
  <course>119.06</course>
  <speed>0.01</speed>
  <fix>3d</fix>
</trkpt>
<trkpt lat="33.8105865" lon="-118.3934446">
  <ele>-2.73</ele>
  <time>2026-09-01T01:15:06Z</time>
  <course>156.51</course>
  <speed>0.0412310562561766</speed>
  <fix>3d</fix>
</trkpt>
<trkpt lat="33.8105866" lon="-118.3934448">
  <ele>-2.3</ele>
  <time>2026-09-01T01:15:06Z</time>
  <course>119.06</course>
  <speed>0.01</speed>
  <fix>3d</fix>
</trkpt>
<trkpt lat="33.8105865" lon="-118.3934445">
  <ele>-2.722</ele>
  <time>2026-09-01T01:15:06Z</time>
  <course>156.51</course>
  <speed>0.0412310562561766</speed>
  <fix>3d</fix>
</trkpt>
<trkpt lat="33.8105866" lon="-118.3934448">
  <ele>-2.3</ele>
  <time>2026-09-01T01:15:06Z</time>
  <course>119.06</course>
  <speed>0.01</speed>
  <fix>3d</fix>
</trkpt>
<trkpt lat="33.8105865" lon="-118.3934445">
  <ele>-2.713</ele>
  <time>2026-09-01T01:15:06Z</time>
  <course>156.51</course>
  <speed>0.0412310562561766</speed>
  <fix>3d</fix>
</trkpt>
<trkpt lat="33.8105866" lon="-118.3934448">
  <ele>-2.28</ele>
  <time>2026-09-01T01:15:06Z</time>
  <course>119.03</course>
  <speed>0.01</speed>
  <fix>3d</fix>
</trkpt>
<trkpt lat="33.8105865" lon="-118.3934445">
  <ele>-2.704</ele>
  <time>2026-09-01T01:15:06Z</time>
  <course>156.51</course>
  <speed>0.0412310562561766</speed>
  <fix>3d</fix>
</trkpt>
<trkpt lat="33.8105866" lon="-118.3934448">
  <ele>-2.28</ele>
  <time>2026-09-01T01:15:06Z</time>
  <course>119.03</course>
  <speed>0.01</speed>
  <fix>3d</fix>
</trkpt>
<trkpt lat="33.8105865" lon="-118.3934445">
  <ele>-2.695</ele>
  <time>2026-09-01T01:15:06Z</time>
  <course>156.51</course>
  <speed>0.0412310562561766</speed>
  <fix>3d</fix>
</trkpt>
<trkpt lat="33.8105866" lon="-118.3934448">
  <ele>-2.26</ele>
  <time>2026-09-01T01:15:06Z</time>
  <course>119.02</course>
  <speed>0.01</speed>
  <fix>3d</fix>
</trkpt>
<trkpt lat="33.8105865" lon="-118.3934445">
  <ele>-2.685</ele>
  <time>2026-09-01T01:15:06Z</time>
  <course>156.51</course>
  <speed>0.0412310562561766</speed>
  <fix>3d</fix>
</trkpt>
<trkpt lat="33.8105866" lon="-118.3934448">
  <ele>-2.26</ele>
  <time>2026-09-01T01:15:06Z</time>
  <course>119.02</course>
  <speed>0.01</speed>
  <fix>3d</fix>
</trkpt>
<trkpt lat="33.8105865" lon="-118.3934445">
  <ele>-2.674</ele>
  <time>2026-09-01T01:15:06Z</time>
  <course>156.51</course>
  <speed>0.0412310562561766</speed>
  <fix>3d</fix>
</trkpt>
<trkpt lat="33.8105866" lon="-118.3934448">
  <ele>-2.24</ele>
  <time>2026-09-01T01:15:06Z</time>
  <course>119.02</course>
  <speed>0.01</speed>
  <fix>3d</fix>
</trkpt>
<trkpt lat="33.8105865" lon="-118.3934445">
  <ele>-2.663</ele>
  <time>2026-09-01T01:15:06Z</time>
  <course>156.51</course>
  <speed>0.0412310562561766</speed>
  <fix>3d</fix>
</trkpt>
<trkpt lat="33.8105866" lon="-118.3934448">
  <ele>-2.24</ele>
  <time>2026-09-01T01:15:06Z</time>
  <course>119.02</course>
  <speed>0.01</speed>
  <fix>3d</fix>
</trkpt>
<trkpt lat="33.8105865" lon="-118.3934445">
  <ele>-2.653</ele>
  <time>2026-09-01T01:15:06Z</time>
  <course>156.51</course>
  <speed>0.0412310562561766</speed>
  <fix>3d</fix>
</trkpt>
<trkpt lat="33.8105865" lon="-118.3934447">
  <ele>-2.22</ele>
  <time>2026-09-01T01:15:06Z</time>
  <course>119.05</course>
  <speed>0.01</speed>
  <fix>3d</fix>
</trkpt>
<trkpt lat="33.8105865" lon="-118.3934444">
  <ele>-2.642</ele>
  <time>2026-09-01T01:15:07Z</time>
  <course>156.51</course>
  <speed>0.0412310562561766</speed>
  <fix>3d</fix>
</trkpt>
<trkpt lat="33.8105865" lon="-118.3934447">
  <ele>-2.22</ele>
  <time>2026-09-01T01:15:07Z</time>
  <course>119.05</course>
  <speed>0.01</speed>
  <fix>3d</fix>
</trkpt>
<trkpt lat="33.8105865" lon="-118.3934444">
  <ele>-2.631</ele>
  <time>2026-09-01T01:15:07Z</time>
  <course>156.51</course>
  <speed>0.0412310562561766</speed>
  <fix>3d</fix>
</trkpt>
<trkpt lat="33.8105865" lon="-118.3934447">
  <ele>-2.2</ele>
  <time>2026-09-01T01:15:08Z</time>
  <course>119.08</course>
  <speed>0.01</speed>
  <fix>3d</fix>
</trkpt>
<trkpt lat="33.8105865" lon="-118.3934444">
  <ele>-2.619</ele>
  <time>2026-09-01T01:15:08Z</time>
  <course>156.51</course>
  <speed>0.0412310562561766</speed>
  <fix>3d</fix>
</trkpt>
<trkpt lat="33.8105865" lon="-118.3934447">
  <ele>-2.2</ele>
  <time>2026-09-01T01:15:08Z</time>
  <course>119.08</course>
  <speed>0.01</speed>
  <fix>3d</fix>
</trkpt>
<trkpt lat="33.8105865" lon="-118.3934444">
  <ele>-2.607</ele>
  <time>2026-09-01T01:15:08Z</time>
  <course>156.51</course>
  <speed>0.0412310562561766</speed>
  <fix>3d</fix>
</trkpt>
<trkpt lat="33.8105865" lon="-118.3934447">
  <ele>-2.18</ele>
  <time>2026-09-01T01:15:08Z</time>
  <course>119.09</course>
  <speed>0.01</speed>
  <fix>3d</fix>
</trkpt>
<trkpt lat="33.8105865" lon="-118.3934444">
  <ele>-2.596</ele>
  <time>2026-09-01T01:15:08Z</time>
  <course>156.51</course>
  <speed>0.0412310562561766</speed>
  <fix>3d</fix>
</trkpt>
<trkpt lat="33.8105865" lon="-118.3934447">
  <ele>-2.18</ele>
  <time>2026-09-01T01:15:08Z</time>
  <course>119.09</course>
  <speed>0.01</speed>
  <fix>3d</fix>
</trkpt>
<trkpt lat="33.8105865" lon="-118.3934444">
  <ele>-2.585</ele>
  <time>2026-09-01T01:15:08Z</time>
  <course>156.51</course>
  <speed>0.0412310562561766</speed>
  <fix>3d</fix>
</trkpt>
<trkpt lat="33.8105865" lon="-118.3934447">
  <ele>-2.16</ele>
  <time>2026-09-01T01:15:08Z</time>
  <course>119.07</course>
  <speed>0.01</speed>
  <fix>3d</fix>
</trkpt>
<trkpt lat="33.8105865" lon="-118.3934444">
  <ele>-2.575</ele>
  <time>2026-09-01T01:15:08Z</time>
  <course>156.51</course>
  <speed>0.0412310562561766</speed>
  <fix>3d</fix>
</trkpt>
<trkpt lat="33.8105865" lon="-118.3934447">
  <ele>-2.16</ele>
  <time>2026-09-01T01:15:08Z</time>
  <course>119.07</course>
  <speed>0.01</speed>
  <fix>3d</fix>
</trkpt>
<trkpt lat="33.8105864" lon="-118.3934444">
  <ele>-2.566</ele>
  <time>2026-09-01T01:15:08Z</time>
  <course>156.51</course>
  <speed>0.0412310562561766</speed>
  <fix>3d</fix>
</trkpt>
<trkpt lat="33.8105865" lon="-118.3934446">
  <ele>-2.14</ele>
  <time>2026-09-01T01:15:08Z</time>
  <course>119.05</course>
  <speed>0.01</speed>
  <fix>3d</fix>
</trkpt>
<trkpt lat="33.8105864" lon="-118.3934443">
  <ele>-2.558</ele>
  <time>2026-09-01T01:15:08Z</time>
  <course>156.51</course>
  <speed>0.0412310562561766</speed>
  <fix>3d</fix>
</trkpt>
<trkpt lat="33.8105865" lon="-118.3934446">
  <ele>-2.14</ele>
  <time>2026-09-01T01:15:08Z</time>
  <course>119.05</course>
  <speed>0.01</speed>
  <fix>3d</fix>
</trkpt>
<trkpt lat="33.8105864" lon="-118.3934443">
  <ele>-2.55</ele>
  <time>2026-09-01T01:15:08Z</time>
  <course>156.51</course>
  <speed>0.0412310562561766</speed>
  <fix>3d</fix>
</trkpt>
<trkpt lat="33.8105865" lon="-118.3934446">
  <ele>-2.12</ele>
  <time>2026-09-01T01:15:08Z</time>
  <course>119.04</course>
  <speed>0.01</speed>
  <fix>3d</fix>
</trkpt>
<trkpt lat="33.8105864" lon="-118.3934443">
  <ele>-2.541</ele>
  <time>2026-09-01T01:15:09Z</time>
  <course>156.51</course>
  <speed>0.0412310562561766</speed>
  <fix>3d</fix>
</trkpt>
<trkpt lat="33.8105865" lon="-118.3934446">
  <ele>-2.12</ele>
  <time>2026-09-01T01:15:09Z</time>
  <course>119.04</course>
  <speed>0.01</speed>
  <fix>3d</fix>
</trkpt>
<trkpt lat="33.8105864" lon="-118.3934443">
  <ele>-2.531</ele>
  <time>2026-09-01T01:15:09Z</time>
  <course>156.51</course>
  <speed>0.0412310562561766</speed>
  <fix>3d</fix>
</trkpt>
<trkpt lat="33.8105865" lon="-118.3934446">
  <ele>-2.1</ele>
  <time>2026-09-01T01:15:09Z</time>
  <course>119.06</course>
  <speed>0.01</speed>
  <fix>3d</fix>
</trkpt>
<trkpt lat="33.8105864" lon="-118.3934443">
  <ele>-2.522</ele>
  <time>2026-09-01T01:15:09Z</time>
  <course>156.51</course>
  <speed>0.0412310562561766</speed>
  <fix>3d</fix>
</trkpt>
<trkpt lat="33.8105865" lon="-118.3934446">
  <ele>-2.1</ele>
  <time>2026-09-01T01:15:09Z</time>
  <course>119.06</course>
  <speed>0.01</speed>
  <fix>3d</fix>
</trkpt>
<trkpt lat="33.8105864" lon="-118.3934443">
  <ele>-2.513</ele>
  <time>2026-09-01T01:15:09Z</time>
  <course>156.51</course>
  <speed>0.0412310562561766</speed>
  <fix>3d</fix>
</trkpt>
<trkpt lat="33.8105865" lon="-118.3934446">
  <ele>-2.09</ele>
  <time>2026-09-01T01:15:09Z</time>
  <course>119.09</course>
  <speed>0.01</speed>
  <fix>3d</fix>
</trkpt>
<trkpt lat="33.8105864" lon="-118.3934443">
  <ele>-2.505</ele>
  <time>2026-09-01T01:15:09Z</time>
  <course>156.51</course>
  <speed>0.0412310562561766</speed>
  <fix>3d</fix>
</trkpt>
<trkpt lat="33.8105865" lon="-118.3934446">
  <ele>-2.09</ele>
  <time>2026-09-01T01:15:09Z</time>
  <course>119.09</course>
  <speed>0.01</speed>
  <fix>3d</fix>
</trkpt>
<trkpt lat="33.8105864" lon="-118.3934443">
  <ele>-2.497</ele>
  <time>2026-09-01T01:15:09Z</time>
  <course>156.51</course>
  <speed>0.0412310562561766</speed>
  <fix>3d</fix>
</trkpt>
<trkpt lat="33.8105865" lon="-118.3934445">
  <ele>-2.07</ele>
  <time>2026-09-01T01:15:09Z</time>
  <course>119.11</course>
  <speed>0.01</speed>
  <fix>3d</fix>
</trkpt>
<trkpt lat="33.8105864" lon="-118.3934443">
  <ele>-2.488</ele>
  <time>2026-09-01T01:15:09Z</time>
  <course>156.51</course>
  <speed>0.0412310562561766</speed>
  <fix>3d</fix>
</trkpt>
<trkpt lat="33.8105865" lon="-118.3934445">
  <ele>-2.07</ele>
  <time>2026-09-01T01:15:09Z</time>
  <course>119.11</course>
  <speed>0.01</speed>
  <fix>3d</fix>
</trkpt>
<trkpt lat="33.8105864" lon="-118.3934442">
  <ele>-2.479</ele>
  <time>2026-09-01T01:15:09Z</time>
  <course>156.51</course>
  <speed>0.0412310562561766</speed>
  <fix>3d</fix>
</trkpt>
<trkpt lat="33.8105864" lon="-118.3934445">
  <ele>-2.05</ele>
  <time>2026-09-01T01:15:09Z</time>
  <course>119.11</course>
  <speed>0.01</speed>
  <fix>3d</fix>
</trkpt>
<trkpt lat="33.8105864" lon="-118.3934442">
  <ele>-2.47</ele>
  <time>2026-09-01T01:15:09Z</time>
  <course>156.51</course>
  <speed>0.0412310562561766</speed>
  <fix>3d</fix>
</trkpt>
<trkpt lat="33.8105864" lon="-118.3934445">
  <ele>-2.05</ele>
  <time>2026-09-01T01:15:09Z</time>
  <course>119.11</course>
  <speed>0.01</speed>
  <fix>3d</fix>
</trkpt>
<trkpt lat="33.8105864" lon="-118.3934442">
  <ele>-2.46</ele>
  <time>2026-09-01T01:15:09Z</time>
  <course>156.51</course>
  <speed>0.0412310562561766</speed>
  <fix>3d</fix>
</trkpt>
<trkpt lat="33.8105864" lon="-118.3934445">
  <ele>-2.03</ele>
  <time>2026-09-01T01:15:09Z</time>
  <course>119.09</course>
  <speed>0.01</speed>
  <fix>3d</fix>
</trkpt>
<trkpt lat="33.8105864" lon="-118.3934442">
  <ele>-2.45</ele>
  <time>2026-09-01T01:15:10Z</time>
  <course>156.51</course>
  <speed>0.0412310562561766</speed>
  <fix>3d</fix>
</trkpt>
<trkpt lat="33.8105864" lon="-118.3934445">
  <ele>-2.03</ele>
  <time>2026-09-01T01:15:10Z</time>
  <course>119.09</course>
  <speed>0.01</speed>
  <fix>3d</fix>
</trkpt>
<trkpt lat="33.8105864" lon="-118.3934442">
  <ele>-2.439</ele>
  <time>2026-09-01T01:15:10Z</time>
  <course>156.51</course>
  <speed>0.0412310562561766</speed>
  <fix>3d</fix>
</trkpt>
<trkpt lat="33.8105864" lon="-118.3934445">
  <ele>-2.01</ele>
  <time>2026-09-01T01:15:10Z</time>
  <course>119.07</course>
  <speed>0.01</speed>
  <fix>3d</fix>
</trkpt>
<trkpt lat="33.8105864" lon="-118.3934442">
  <ele>-2.429</ele>
  <time>2026-09-01T01:15:10Z</time>
  <course>156.51</course>
  <speed>0.0412310562561766</speed>
  <fix>3d</fix>
</trkpt>
<trkpt lat="33.8105864" lon="-118.3934445">
  <ele>-2.01</ele>
  <time>2026-09-01T01:15:10Z</time>
  <course>119.07</course>
  <speed>0.01</speed>
  <fix>3d</fix>
</trkpt>
<trkpt lat="33.8105864" lon="-118.3934442">
  <ele>-2.419</ele>
  <time>2026-09-01T01:15:10Z</time>
  <course>156.51</course>
  <speed>0.0412310562561766</speed>
  <fix>3d</fix>
</trkpt>
<trkpt lat="33.8105864" lon="-118.3934445">
  <ele>-1.99</ele>
  <time>2026-09-01T01:15:10Z</time>
  <course>119.07</course>
  <speed>0.01</speed>
  <fix>3d</fix>
</trkpt>
<trkpt lat="33.8105864" lon="-118.3934442">
  <ele>-2.409</ele>
  <time>2026-09-01T01:15:10Z</time>
  <course>156.51</course>
  <speed>0.0412310562561766</speed>
  <fix>3d</fix>
</trkpt>
<trkpt lat="33.8105864" lon="-118.3934445">
  <ele>-1.99</ele>
  <time>2026-09-01T01:15:10Z</time>
  <course>119.07</course>
  <speed>0.01</speed>
  <fix>3d</fix>
</trkpt>
<trkpt lat="33.8105863" lon="-118.3934442">
  <ele>-2.4</ele>
  <time>2026-09-01T01:15:10Z</time>
  <course>156.51</course>
  <speed>0.0412310562561766</speed>
  <fix>3d</fix>
</trkpt>
<trkpt lat="33.8105864" lon="-118.3934444">
  <ele>-1.97</ele>
  <time>2026-09-01T01:15:10Z</time>
  <course>119.09</course>
  <speed>0.01</speed>
  <fix>3d</fix>
</trkpt>
<trkpt lat="33.8105863" lon="-118.3934441">
  <ele>-2.39</ele>
  <time>2026-09-01T01:15:10Z</time>
  <course>156.51</course>
  <speed>0.0412310562561766</speed>
  <fix>3d</fix>
</trkpt>
<trkpt lat="33.8105864" lon="-118.3934444">
  <ele>-1.97</ele>
  <time>2026-09-01T01:15:10Z</time>
  <course>119.09</course>
  <speed>0.01</speed>
  <fix>3d</fix>
</trkpt>
<trkpt lat="33.8105863" lon="-118.3934441">
  <ele>-2.38</ele>
  <time>2026-09-01T01:15:10Z</time>
  <course>156.51</course>
  <speed>0.0412310562561766</speed>
  <fix>3d</fix>
</trkpt>
<trkpt lat="33.8105864" lon="-118.3934444">
  <ele>-1.95</ele>
  <time>2026-09-01T01:15:10Z</time>
  <course>119.12</course>
  <speed>0.01</speed>
  <fix>3d</fix>
</trkpt>
<trkpt lat="33.8105863" lon="-118.3934441">
  <ele>-2.37</ele>
  <time>2026-09-01T01:15:10Z</time>
  <course>156.51</course>
  <speed>0.0412310562561766</speed>
  <fix>3d</fix>
</trkpt>
<trkpt lat="33.8105864" lon="-118.3934444">
  <ele>-1.95</ele>
  <time>2026-09-01T01:15:10Z</time>
  <course>119.12</course>
  <speed>0.01</speed>
  <fix>3d</fix>
</trkpt>
<trkpt lat="33.8105863" lon="-118.3934441">
  <ele>-2.36</ele>
  <time>2026-09-01T01:15:10Z</time>
  <course>156.51</course>
  <speed>0.0412310562561766</speed>
  <fix>3d</fix>
</trkpt>
<trkpt lat="33.8105864" lon="-118.3934444">
  <ele>-1.93</ele>
  <time>2026-09-01T01:15:10Z</time>
  <course>119.14</course>
  <speed>0.01</speed>
  <fix>3d</fix>
</trkpt>
<trkpt lat="33.8105863" lon="-118.3934441">
  <ele>-2.35</ele>
  <time>2026-09-01T01:15:10Z</time>
  <course>156.51</course>
  <speed>0.0412310562561766</speed>
  <fix>3d</fix>
</trkpt>
<trkpt lat="33.8105864" lon="-118.3934444">
  <ele>-1.93</ele>
  <time>2026-09-01T01:15:10Z</time>
  <course>119.14</course>
  <speed>0.01</speed>
  <fix>3d</fix>
</trkpt>
<trkpt lat="33.8105863" lon="-118.3934441">
  <ele>-2.34</ele>
  <time>2026-09-01T01:15:11Z</time>
  <course>156.51</course>
  <speed>0.0412310562561766</speed>
  <fix>3d</fix>
</trkpt>
<trkpt lat="33.8105864" lon="-118.3934444">
  <ele>-1.91</ele>
  <time>2026-09-01T01:15:11Z</time>
  <course>119.13</course>
  <speed>0.01</speed>
  <fix>3d</fix>
</trkpt>
<trkpt lat="33.8105863" lon="-118.3934441">
  <ele>-2.33</ele>
  <time>2026-09-01T01:15:11Z</time>
  <course>156.51</course>
  <speed>0.0412310562561766</speed>
  <fix>3d</fix>
</trkpt>
<trkpt lat="33.8105864" lon="-118.3934444">
  <ele>-1.91</ele>
  <time>2026-09-01T01:15:11Z</time>
  <course>119.13</course>
  <speed>0.01</speed>
  <fix>3d</fix>
</trkpt>
<trkpt lat="33.8105863" lon="-118.3934441">
  <ele>-2.321</ele>
  <time>2026-09-01T01:15:11Z</time>
  <course>156.51</course>
  <speed>0.0316227766016838</speed>
  <fix>3d</fix>
</trkpt>
<trkpt lat="33.8105864" lon="-118.3934444">
  <ele>-1.9</ele>
  <time>2026-09-01T01:15:11Z</time>
  <course>119.1</course>
  <speed>0.01</speed>
  <fix>3d</fix>
</trkpt>
<trkpt lat="33.8105863" lon="-118.3934441">
  <ele>-2.313</ele>
  <time>2026-09-01T01:15:11Z</time>
  <course>156.51</course>
  <speed>0.0316227766016838</speed>
  <fix>3d</fix>
</trkpt>
<trkpt lat="33.8105864" lon="-118.3934444">
  <ele>-1.9</ele>
  <time>2026-09-01T01:15:11Z</time>
  <course>119.1</course>
  <speed>0.01</speed>
  <fix>3d</fix>
</trkpt>
<trkpt lat="33.8105863" lon="-118.3934441">
  <ele>-2.304</ele>
  <time>2026-09-01T01:15:11Z</time>
  <course>156.51</course>
  <speed>0.0316227766016838</speed>
  <fix>3d</fix>
</trkpt>
<trkpt lat="33.8105864" lon="-118.3934443">
  <ele>-1.88</ele>
  <time>2026-09-01T01:15:11Z</time>
  <course>119.08</course>
  <speed>0.01</speed>
  <fix>3d</fix>
</trkpt>
<trkpt lat="33.8105863" lon="-118.393444">
  <ele>-2.294</ele>
  <time>2026-09-01T01:15:11Z</time>
  <course>156.51</course>
  <speed>0.0316227766016838</speed>
  <fix>3d</fix>
</trkpt>
<trkpt lat="33.8105864" lon="-118.3934443">
  <ele>-1.88</ele>
  <time>2026-09-01T01:15:11Z</time>
  <course>119.08</course>
  <speed>0.01</speed>
  <fix>3d</fix>
</trkpt>
<trkpt lat="33.8105863" lon="-118.393444">
  <ele>-2.283</ele>
  <time>2026-09-01T01:15:11Z</time>
  <course>156.51</course>
  <speed>0.0316227766016838</speed>
  <fix>3d</fix>
</trkpt>
<trkpt lat="33.8105863" lon="-118.3934443">
  <ele>-1.86</ele>
  <time>2026-09-01T01:15:11Z</time>
  <course>119.09</course>
  <speed>0.01</speed>
  <fix>3d</fix>
</trkpt>
<trkpt lat="33.8105863" lon="-118.393444">
  <ele>-2.272</ele>
  <time>2026-09-01T01:15:11Z</time>
  <course>156.51</course>
  <speed>0.0316227766016838</speed>
  <fix>3d</fix>
</trkpt>
<trkpt lat="33.8105863" lon="-118.3934443">
  <ele>-1.86</ele>
  <time>2026-09-01T01:15:11Z</time>
  <course>119.09</course>
  <speed>0.01</speed>
  <fix>3d</fix>
</trkpt>
<trkpt lat="33.8105863" lon="-118.393444">
  <ele>-2.26</ele>
  <time>2026-09-01T01:15:11Z</time>
  <course>156.51</course>
  <speed>0.0316227766016838</speed>
  <fix>3d</fix>
</trkpt>
<trkpt lat="33.8105863" lon="-118.3934443">
  <ele>-1.84</ele>
  <time>2026-09-01T01:15:11Z</time>
  <course>119.12</course>
  <speed>0.01</speed>
  <fix>3d</fix>
</trkpt>
<trkpt lat="33.8105863" lon="-118.393444">
  <ele>-2.249</ele>
  <time>2026-09-01T01:15:11Z</time>
  <course>156.51</course>
  <speed>0.0316227766016838</speed>
  <fix>3d</fix>
</trkpt>
<trkpt lat="33.8105863" lon="-118.3934443">
  <ele>-1.84</ele>
  <time>2026-09-01T01:15:11Z</time>
  <course>119.12</course>
  <speed>0.01</speed>
  <fix>3d</fix>
</trkpt>
<trkpt lat="33.8105863" lon="-118.393444">
  <ele>-2.238</ele>
  <time>2026-09-01T01:15:12Z</time>
  <course>156.51</course>
  <speed>0.0316227766016838</speed>
  <fix>3d</fix>
</trkpt>
<trkpt lat="33.8105863" lon="-118.3934443">
  <ele>-1.81</ele>
  <time>2026-09-01T01:15:12Z</time>
  <course>119.15</course>
  <speed>0.01</speed>
  <fix>3d</fix>
</trkpt>
<trkpt lat="33.8105863" lon="-118.393444">
  <ele>-2.228</ele>
  <time>2026-09-01T01:15:12Z</time>
  <course>156.51</course>
  <speed>0.0316227766016838</speed>
  <fix>3d</fix>
</trkpt>
<trkpt lat="33.8105863" lon="-118.3934443">
  <ele>-1.81</ele>
  <time>2026-09-01T01:15:12Z</time>
  <course>119.15</course>
  <speed>0.01</speed>
  <fix>3d</fix>
</trkpt>
<trkpt lat="33.8105863" lon="-118.393444">
  <ele>-2.218</ele>
  <time>2026-09-01T01:15:12Z</time>
  <course>156.51</course>
  <speed>0.0316227766016838</speed>
  <fix>3d</fix>
</trkpt>
<trkpt lat="33.8105863" lon="-118.3934442">
  <ele>-1.8</ele>
  <time>2026-09-01T01:15:12Z</time>
  <course>119.16</course>
  <speed>0.01</speed>
  <fix>3d</fix>
</trkpt>
<trkpt lat="33.8105863" lon="-118.393444">
  <ele>-2.209</ele>
  <time>2026-09-01T01:15:12Z</time>
  <course>156.51</course>
  <speed>0.0316227766016838</speed>
  <fix>3d</fix>
</trkpt>
<trkpt lat="33.8105863" lon="-118.3934442">
  <ele>-1.8</ele>
  <time>2026-09-01T01:15:12Z</time>
  <course>119.16</course>
  <speed>0.01</speed>
  <fix>3d</fix>
</trkpt>
<trkpt lat="33.8105862" lon="-118.393444">
  <ele>-2.199</ele>
  <time>2026-09-01T01:15:12Z</time>
  <course>156.51</course>
  <speed>0.0316227766016838</speed>
  <fix>3d</fix>
</trkpt>
<trkpt lat="33.8105863" lon="-118.3934442">
  <ele>-1.78</ele>
  <time>2026-09-01T01:15:12Z</time>
  <course>119.14</course>
  <speed>0.01</speed>
  <fix>3d</fix>
</trkpt>
<trkpt lat="33.8105862" lon="-118.3934439">
  <ele>-2.189</ele>
  <time>2026-09-01T01:15:12Z</time>
  <course>156.51</course>
  <speed>0.0316227766016838</speed>
  <fix>3d</fix>
</trkpt>
<trkpt lat="33.8105863" lon="-118.3934442">
  <ele>-1.78</ele>
  <time>2026-09-01T01:15:12Z</time>
  <course>119.14</course>
  <speed>0.01</speed>
  <fix>3d</fix>
</trkpt>
<trkpt lat="33.8105862" lon="-118.3934439">
  <ele>-2.179</ele>
  <time>2026-09-01T01:15:12Z</time>
  <course>156.51</course>
  <speed>0.0316227766016838</speed>
  <fix>3d</fix>
</trkpt>
<trkpt lat="33.8105863" lon="-118.3934442">
  <ele>-1.76</ele>
  <time>2026-09-01T01:15:12Z</time>
  <course>119.11</course>
  <speed>0.01</speed>
  <fix>3d</fix>
</trkpt>
<trkpt lat="33.8105862" lon="-118.3934439">
  <ele>-2.168</ele>
  <time>2026-09-01T01:15:12Z</time>
  <course>156.51</course>
  <speed>0.0316227766016838</speed>
  <fix>3d</fix>
</trkpt>
<trkpt lat="33.8105863" lon="-118.3934442">
  <ele>-1.76</ele>
  <time>2026-09-01T01:15:12Z</time>
  <course>119.11</course>
  <speed>0.01</speed>
  <fix>3d</fix>
</trkpt>
<trkpt lat="33.8105862" lon="-118.3934439">
  <ele>-2.157</ele>
  <time>2026-09-01T01:15:12Z</time>
  <course>156.51</course>
  <speed>0.0316227766016838</speed>
  <fix>3d</fix>
</trkpt>
<trkpt lat="33.8105863" lon="-118.3934442">
  <ele>-1.74</ele>
  <time>2026-09-01T01:15:12Z</time>
  <course>119.11</course>
  <speed>0.01</speed>
  <fix>3d</fix>
</trkpt>
<trkpt lat="33.8105862" lon="-118.3934439">
  <ele>-2.147</ele>
  <time>2026-09-01T01:15:12Z</time>
  <course>156.51</course>
  <speed>0.0316227766016838</speed>
  <fix>3d</fix>
</trkpt>
<trkpt lat="33.8105863" lon="-118.3934442">
  <ele>-1.74</ele>
  <time>2026-09-01T01:15:12Z</time>
  <course>119.11</course>
  <speed>0.01</speed>
  <fix>3d</fix>
</trkpt>
<trkpt lat="33.8105862" lon="-118.3934439">
  <ele>-2.137</ele>
  <time>2026-09-01T01:15:13Z</time>
  <course>156.51</course>
  <speed>0.0316227766016838</speed>
  <fix>3d</fix>
</trkpt>
<trkpt lat="33.8105863" lon="-118.3934442">
  <ele>-1.72</ele>
  <time>2026-09-01T01:15:13Z</time>
  <course>119.12</course>
  <speed>0.01</speed>
  <fix>3d</fix>
</trkpt>
<trkpt lat="33.8105862" lon="-118.3934439">
  <ele>-2.129</ele>
  <time>2026-09-01T01:15:13Z</time>
  <course>156.52</course>
  <speed>0.0316227766016838</speed>
  <fix>3d</fix>
</trkpt>
<trkpt lat="33.8105863" lon="-118.3934442">
  <ele>-1.72</ele>
  <time>2026-09-01T01:15:13Z</time>
  <course>119.12</course>
  <speed>0.01</speed>
  <fix>3d</fix>
</trkpt>
<trkpt lat="33.8105862" lon="-118.3934439">
  <ele>-2.12</ele>
  <time>2026-09-01T01:15:13Z</time>
  <course>156.52</course>
  <speed>0.0316227766016838</speed>
  <fix>3d</fix>
</trkpt>
<trkpt lat="33.8105863" lon="-118.3934441">
  <ele>-1.7</ele>
  <time>2026-09-01T01:15:13Z</time>
  <course>119.15</course>
  <speed>0.01</speed>
  <fix>3d</fix>
</trkpt>
<trkpt lat="33.8105862" lon="-118.3934439">
  <ele>-2.111</ele>
  <time>2026-09-01T01:15:13Z</time>
  <course>156.52</course>
  <speed>0.0316227766016838</speed>
  <fix>3d</fix>
</trkpt>
<trkpt lat="33.8105863" lon="-118.3934441">
  <ele>-1.7</ele>
  <time>2026-09-01T01:15:13Z</time>
  <course>119.15</course>
  <speed>0.01</speed>
  <fix>3d</fix>
</trkpt>
<trkpt lat="33.8105862" lon="-118.3934438">
  <ele>-2.102</ele>
  <time>2026-09-01T01:15:13Z</time>
  <course>156.52</course>
  <speed>0.0316227766016838</speed>
  <fix>3d</fix>
</trkpt>
<trkpt lat="33.8105863" lon="-118.3934441">
  <ele>-1.69</ele>
  <time>2026-09-01T01:15:13Z</time>
  <course>119.18</course>
  <speed>0.01</speed>
  <fix>3d</fix>
</trkpt>
<trkpt lat="33.8105862" lon="-118.3934438">
  <ele>-2.092</ele>
  <time>2026-09-01T01:15:13Z</time>
  <course>156.52</course>
  <speed>0.0316227766016838</speed>
  <fix>3d</fix>
</trkpt>
<trkpt lat="33.8105863" lon="-118.3934441">
  <ele>-1.69</ele>
  <time>2026-09-01T01:15:13Z</time>
  <course>119.18</course>
  <speed>0.01</speed>
  <fix>3d</fix>
</trkpt>
<trkpt lat="33.8105862" lon="-118.3934438">
  <ele>-2.081</ele>
  <time>2026-09-01T01:15:13Z</time>
  <course>156.52</course>
  <speed>0.0316227766016838</speed>
  <fix>3d</fix>
</trkpt>
<trkpt lat="33.8105863" lon="-118.3934441">
  <ele>-1.67</ele>
  <time>2026-09-01T01:15:13Z</time>
  <course>119.17</course>
  <speed>0.01</speed>
  <fix>3d</fix>
</trkpt>
<trkpt lat="33.8105862" lon="-118.3934438">
  <ele>-2.069</ele>
  <time>2026-09-01T01:15:13Z</time>
  <course>156.52</course>
  <speed>0.0316227766016838</speed>
  <fix>3d</fix>
</trkpt>
<trkpt lat="33.8105863" lon="-118.3934441">
  <ele>-1.67</ele>
  <time>2026-09-01T01:15:13Z</time>
  <course>119.17</course>
  <speed>0.01</speed>
  <fix>3d</fix>
</trkpt>
<trkpt lat="33.8105862" lon="-118.3934438">
  <ele>-2.058</ele>
  <time>2026-09-01T01:15:13Z</time>
  <course>156.52</course>
  <speed>0.0316227766016838</speed>
  <fix>3d</fix>
</trkpt>
<trkpt lat="33.8105862" lon="-118.3934441">
  <ele>-1.65</ele>
  <time>2026-09-01T01:15:13Z</time>
  <course>119.15</course>
  <speed>0.01</speed>
  <fix>3d</fix>
</trkpt>
<trkpt lat="33.8105862" lon="-118.3934438">
  <ele>-2.047</ele>
  <time>2026-09-01T01:15:13Z</time>
  <course>156.52</course>
  <speed>0.0316227766016838</speed>
  <fix>3d</fix>
</trkpt>
<trkpt lat="33.8105862" lon="-118.3934441">
  <ele>-1.65</ele>
  <time>2026-09-01T01:15:13Z</time>
  <course>119.15</course>
  <speed>0.01</speed>
  <fix>3d</fix>
</trkpt>
<trkpt lat="33.8105862" lon="-118.3934438">
  <ele>-2.036</ele>
  <time>2026-09-01T01:15:14Z</time>
  <course>156.52</course>
  <speed>0.0316227766016838</speed>
  <fix>3d</fix>
</trkpt>
<trkpt lat="33.8105861" lon="-118.3934441">
  <ele>-1.63</ele>
  <time>2026-09-01T01:15:14Z</time>
  <course>119.13</course>
  <speed>0.01</speed>
  <fix>3d</fix>
</trkpt>
<trkpt lat="33.8105862" lon="-118.3934438">
  <ele>-2.025</ele>
  <time>2026-09-01T01:15:14Z</time>
  <course>156.52</course>
  <speed>0.0316227766016838</speed>
  <fix>3d</fix>
</trkpt>
<trkpt lat="33.8105861" lon="-118.3934441">
  <ele>-1.63</ele>
  <time>2026-09-01T01:15:14Z</time>
  <course>119.13</course>
  <speed>0.01</speed>
  <fix>3d</fix>
</trkpt>
<trkpt lat="33.8105862" lon="-118.3934438">
  <ele>-2.014</ele>
  <time>2026-09-01T01:15:14Z</time>
  <course>156.52</course>
  <speed>0.0316227766016838</speed>
  <fix>3d</fix>
</trkpt>
<trkpt lat="33.8105861" lon="-118.3934441">
  <ele>-1.61</ele>
  <time>2026-09-01T01:15:14Z</time>
  <course>119.13</course>
  <speed>0.01</speed>
  <fix>3d</fix>
</trkpt>
<trkpt lat="33.8105861" lon="-118.3934438">
  <ele>-2.004</ele>
  <time>2026-09-01T01:15:14Z</time>
  <course>156.52</course>
  <speed>0.0316227766016838</speed>
  <fix>3d</fix>
</trkpt>
<trkpt lat="33.8105861" lon="-118.3934441">
  <ele>-1.61</ele>
  <time>2026-09-01T01:15:14Z</time>
  <course>119.13</course>
  <speed>0.01</speed>
  <fix>3d</fix>
</trkpt>
<trkpt lat="33.8105861" lon="-118.3934438">
  <ele>-1.995</ele>
  <time>2026-09-01T01:15:14Z</time>
  <course>156.52</course>
  <speed>0.0316227766016838</speed>
  <fix>3d</fix>
</trkpt>
<trkpt lat="33.8105861" lon="-118.393444">
  <ele>-1.59</ele>
  <time>2026-09-01T01:15:14Z</time>
  <course>119.15</course>
  <speed>0.0</speed>
  <fix>3d</fix>
</trkpt>
<trkpt lat="33.8105861" lon="-118.3934437">
  <ele>-1.985</ele>
  <time>2026-09-01T01:15:14Z</time>
  <course>156.52</course>
  <speed>0.0316227766016838</speed>
  <fix>3d</fix>
</trkpt>
<trkpt lat="33.8105861" lon="-118.393444">
  <ele>-1.59</ele>
  <time>2026-09-01T01:15:14Z</time>
  <course>119.15</course>
  <speed>0.0</speed>
  <fix>3d</fix>
</trkpt>
<trkpt lat="33.8105861" lon="-118.3934437">
  <ele>-1.976</ele>
  <time>2026-09-01T01:15:14Z</time>
  <course>156.52</course>
  <speed>0.0316227766016838</speed>
  <fix>3d</fix>
</trkpt>
<trkpt lat="33.8105861" lon="-118.393444">
  <ele>-1.56</ele>
  <time>2026-09-01T01:15:14Z</time>
  <course>119.19</course>
  <speed>0.0</speed>
  <fix>3d</fix>
</trkpt>
<trkpt lat="33.8105861" lon="-118.3934437">
  <ele>-1.966</ele>
  <time>2026-09-01T01:15:14Z</time>
  <course>156.52</course>
  <speed>0.0316227766016838</speed>
  <fix>3d</fix>
</trkpt>
<trkpt lat="33.8105861" lon="-118.393444">
  <ele>-1.56</ele>
  <time>2026-09-01T01:15:14Z</time>
  <course>119.19</course>
  <speed>0.0</speed>
  <fix>3d</fix>
</trkpt>
<trkpt lat="33.8105861" lon="-118.3934437">
  <ele>-1.957</ele>
  <time>2026-09-01T01:15:14Z</time>
  <course>156.52</course>
  <speed>0.0316227766016838</speed>
  <fix>3d</fix>
</trkpt>
<trkpt lat="33.8105861" lon="-118.393444">
  <ele>-1.55</ele>
  <time>2026-09-01T01:15:14Z</time>
  <course>119.2</course>
  <speed>0.0</speed>
  <fix>3d</fix>
</trkpt>
<trkpt lat="33.8105861" lon="-118.3934437">
  <ele>-1.948</ele>
  <time>2026-09-01T01:15:14Z</time>
  <course>156.52</course>
  <speed>0.0316227766016838</speed>
  <fix>3d</fix>
</trkpt>
<trkpt lat="33.8105861" lon="-118.393444">
  <ele>-1.55</ele>
  <time>2026-09-01T01:15:14Z</time>
  <course>119.2</course>
  <speed>0.0</speed>
  <fix>3d</fix>
</trkpt>
<trkpt lat="33.8105861" lon="-118.3934437">
  <ele>-1.939</ele>
  <time>2026-09-01T01:15:14Z</time>
  <course>156.52</course>
  <speed>0.0316227766016838</speed>
  <fix>3d</fix>
</trkpt>
<trkpt lat="33.8105861" lon="-118.393444">
  <ele>-1.53</ele>
  <time>2026-09-01T01:15:14Z</time>
  <course>119.19</course>
  <speed>0.0</speed>
  <fix>3d</fix>
</trkpt>
<trkpt lat="33.8105861" lon="-118.3934437">
  <ele>-1.929</ele>
  <time>2026-09-01T01:15:15Z</time>
  <course>156.52</course>
  <speed>0.0316227766016838</speed>
  <fix>3d</fix>
</trkpt>
<trkpt lat="33.8105861" lon="-118.393444">
  <ele>-1.53</ele>
  <time>2026-09-01T01:15:15Z</time>
  <course>119.19</course>
  <speed>0.0</speed>
  <fix>3d</fix>
</trkpt>
<trkpt lat="33.810586" lon="-118.3934437">
  <ele>-1.919</ele>
  <time>2026-09-01T01:15:15Z</time>
  <course>156.52</course>
  <speed>0.0316227766016838</speed>
  <fix>3d</fix>
</trkpt>
<trkpt lat="33.8105861" lon="-118.393444">
  <ele>-1.51</ele>
  <time>2026-09-01T01:15:15Z</time>
  <course>119.16</course>
  <speed>0.0</speed>
  <fix>3d</fix>
</trkpt>
<trkpt lat="33.810586" lon="-118.3934437">
  <ele>-1.91</ele>
  <time>2026-09-01T01:15:15Z</time>
  <course>156.52</course>
  <speed>0.0316227766016838</speed>
  <fix>3d</fix>
</trkpt>
<trkpt lat="33.8105861" lon="-118.393444">
  <ele>-1.51</ele>
  <time>2026-09-01T01:15:15Z</time>
  <course>119.16</course>
  <speed>0.0</speed>
  <fix>3d</fix>
</trkpt>
<trkpt lat="33.810586" lon="-118.3934437">
  <ele>-1.902</ele>
  <time>2026-09-01T01:15:15Z</time>
  <course>156.52</course>
  <speed>0.0316227766016838</speed>
  <fix>3d</fix>
</trkpt>
<trkpt lat="33.8105861" lon="-118.3934439">
  <ele>-1.49</ele>
  <time>2026-09-01T01:15:15Z</time>
  <course>119.14</course>
  <speed>0.0</speed>
  <fix>3d</fix>
</trkpt>
<trkpt lat="33.810586" lon="-118.3934437">
  <ele>-1.894</ele>
  <time>2026-09-01T01:15:15Z</time>
  <course>156.52</course>
  <speed>0.0316227766016838</speed>
  <fix>3d</fix>
</trkpt>
<trkpt lat="33.8105861" lon="-118.3934439">
  <ele>-1.49</ele>
  <time>2026-09-01T01:15:15Z</time>
  <course>119.14</course>
  <speed>0.0</speed>
  <fix>3d</fix>
</trkpt>
<trkpt lat="33.810586" lon="-118.3934437">
  <ele>-1.885</ele>
  <time>2026-09-01T01:15:15Z</time>
  <course>156.52</course>
  <speed>0.0316227766016838</speed>
  <fix>3d</fix>
</trkpt>
<trkpt lat="33.8105861" lon="-118.3934439">
  <ele>-1.48</ele>
  <time>2026-09-01T01:15:15Z</time>
  <course>119.15</course>
  <speed>0.0</speed>
  <fix>3d</fix>
</trkpt>
<trkpt lat="33.810586" lon="-118.3934436">
  <ele>-1.876</ele>
  <time>2026-09-01T01:15:15Z</time>
  <course>156.52</course>
  <speed>0.0316227766016838</speed>
  <fix>3d</fix>
</trkpt>
<trkpt lat="33.8105861" lon="-118.3934439">
  <ele>-1.48</ele>
  <time>2026-09-01T01:15:15Z</time>
  <course>119.15</course>
  <speed>0.0</speed>
  <fix>3d</fix>
</trkpt>
<trkpt lat="33.810586" lon="-118.3934436">
  <ele>-1.868</ele>
  <time>2026-09-01T01:15:15Z</time>
  <course>156.52</course>
  <speed>0.0316227766016838</speed>
  <fix>3d</fix>
</trkpt>
<trkpt lat="33.8105861" lon="-118.3934439">
  <ele>-1.46</ele>
  <time>2026-09-01T01:15:15Z</time>
  <course>119.18</course>
  <speed>0.0</speed>
  <fix>3d</fix>
</trkpt>
<trkpt lat="33.810586" lon="-118.3934436">
  <ele>-1.86</ele>
  <time>2026-09-01T01:15:15Z</time>
  <course>156.52</course>
  <speed>0.0316227766016838</speed>
  <fix>3d</fix>
</trkpt>
<trkpt lat="33.8105861" lon="-118.3934439">
  <ele>-1.46</ele>
  <time>2026-09-01T01:15:15Z</time>
  <course>119.18</course>
  <speed>0.0</speed>
  <fix>3d</fix>
</trkpt>
<trkpt lat="33.810586" lon="-118.3934436">
  <ele>-1.851</ele>
  <time>2026-09-01T01:15:15Z</time>
  <course>156.52</course>
  <speed>0.0316227766016838</speed>
  <fix>3d</fix>
</trkpt>
<trkpt lat="33.8105861" lon="-118.3934439">
  <ele>-1.44</ele>
  <time>2026-09-01T01:15:15Z</time>
  <course>119.21</course>
  <speed>0.0</speed>
  <fix>3d</fix>
</trkpt>
<trkpt lat="33.810586" lon="-118.3934436">
  <ele>-1.842</ele>
  <time>2026-09-01T01:15:16Z</time>
  <course>156.52</course>
  <speed>0.0316227766016838</speed>
  <fix>3d</fix>
</trkpt>
<trkpt lat="33.8105861" lon="-118.3934439">
  <ele>-1.44</ele>
  <time>2026-09-01T01:15:16Z</time>
  <course>119.21</course>
  <speed>0.0</speed>
  <fix>3d</fix>
</trkpt>
<trkpt lat="33.810586" lon="-118.3934436">
  <ele>-1.831</ele>
  <time>2026-09-01T01:15:16Z</time>
  <course>156.52</course>
  <speed>0.0316227766016838</speed>
  <fix>3d</fix>
</trkpt>
<trkpt lat="33.8105861" lon="-118.3934439">
  <ele>-1.42</ele>
  <time>2026-09-01T01:15:16Z</time>
  <course>119.22</course>
  <speed>0.0</speed>
  <fix>3d</fix>
</trkpt>
<trkpt lat="33.810586" lon="-118.3934436">
  <ele>-1.821</ele>
  <time>2026-09-01T01:15:16Z</time>
  <course>156.52</course>
  <speed>0.0316227766016838</speed>
  <fix>3d</fix>
</trkpt>
<trkpt lat="33.8105861" lon="-118.3934439">
  <ele>-1.42</ele>
  <time>2026-09-01T01:15:16Z</time>
  <course>119.22</course>
  <speed>0.0</speed>
  <fix>3d</fix>
</trkpt>
<trkpt lat="33.810586" lon="-118.3934436">
  <ele>-1.812</ele>
  <time>2026-09-01T01:15:16Z</time>
  <course>156.53</course>
  <speed>0.0316227766016838</speed>
  <fix>3d</fix>
</trkpt>
<trkpt lat="33.8105861" lon="-118.3934439">
  <ele>-1.4</ele>
  <time>2026-09-01T01:15:16Z</time>
  <course>119.2</course>
  <speed>0.0</speed>
  <fix>3d</fix>
</trkpt>
<trkpt lat="33.810586" lon="-118.3934436">
  <ele>-1.803</ele>
  <time>2026-09-01T01:15:16Z</time>
  <course>156.53</course>
  <speed>0.0316227766016838</speed>
  <fix>3d</fix>
</trkpt>
<trkpt lat="33.8105861" lon="-118.3934439">
  <ele>-1.4</ele>
  <time>2026-09-01T01:15:16Z</time>
  <course>119.2</course>
  <speed>0.0</speed>
  <fix>3d</fix>
</trkpt>
<trkpt lat="33.810586" lon="-118.3934436">
  <ele>-1.794</ele>
  <time>2026-09-01T01:15:16Z</time>
  <course>156.53</course>
  <speed>0.0316227766016838</speed>
  <fix>3d</fix>
</trkpt>
<trkpt lat="33.8105861" lon="-118.3934438">
  <ele>-1.38</ele>
  <time>2026-09-01T01:15:16Z</time>
  <course>119.17</course>
  <speed>0.0</speed>
  <fix>3d</fix>
</trkpt>
<trkpt lat="33.810586" lon="-118.3934436">
  <ele>-1.785</ele>
  <time>2026-09-01T01:15:16Z</time>
  <course>156.53</course>
  <speed>0.0316227766016838</speed>
  <fix>3d</fix>
</trkpt>
<trkpt lat="33.8105861" lon="-118.3934438">
  <ele>-1.38</ele>
  <time>2026-09-01T01:15:16Z</time>
  <course>119.17</course>
  <speed>0.0</speed>
  <fix>3d</fix>
</trkpt>
<trkpt lat="33.810586" lon="-118.3934435">
  <ele>-1.774</ele>
  <time>2026-09-01T01:15:16Z</time>
  <course>156.53</course>
  <speed>0.0316227766016838</speed>
  <fix>3d</fix>
</trkpt>
<trkpt lat="33.8105861" lon="-118.3934438">
  <ele>-1.36</ele>
  <time>2026-09-01T01:15:16Z</time>
  <course>119.16</course>
  <speed>0.0</speed>
  <fix>3d</fix>
</trkpt>
<trkpt lat="33.810586" lon="-118.3934435">
  <ele>-1.763</ele>
  <time>2026-09-01T01:15:16Z</time>
  <course>156.53</course>
  <speed>0.0316227766016838</speed>
  <fix>3d</fix>
</trkpt>
<trkpt lat="33.8105861" lon="-118.3934438">
  <ele>-1.36</ele>
  <time>2026-09-01T01:15:16Z</time>
  <course>119.16</course>
  <speed>0.0</speed>
  <fix>3d</fix>
</trkpt>
<trkpt lat="33.810586" lon="-118.3934435">
  <ele>-1.754</ele>
  <time>2026-09-01T01:15:16Z</time>
  <course>156.53</course>
  <speed>0.0316227766016838</speed>
  <fix>3d</fix>
</trkpt>
<trkpt lat="33.8105861" lon="-118.3934438">
  <ele>-1.34</ele>
  <time>2026-09-01T01:15:16Z</time>
  <course>119.18</course>
  <speed>0.0</speed>
  <fix>3d</fix>
</trkpt>
<trkpt lat="33.810586" lon="-118.3934435">
  <ele>-1.744</ele>
  <time>2026-09-01T01:15:17Z</time>
  <course>156.53</course>
  <speed>0.0316227766016838</speed>
  <fix>3d</fix>
</trkpt>
<trkpt lat="33.8105861" lon="-118.3934438">
  <ele>-1.34</ele>
  <time>2026-09-01T01:15:17Z</time>
  <course>119.18</course>
  <speed>0.0</speed>
  <fix>3d</fix>
</trkpt>
<trkpt lat="33.810586" lon="-118.3934435">
  <ele>-1.734</ele>
  <time>2026-09-01T01:15:17Z</time>
  <course>156.53</course>
  <speed>0.0316227766016838</speed>
  <fix>3d</fix>
</trkpt>
<trkpt lat="33.8105861" lon="-118.3934438">
  <ele>-1.31</ele>
  <time>2026-09-01T01:15:17Z</time>
  <course>119.22</course>
  <speed>0.0</speed>
  <fix>3d</fix>
</trkpt>
<trkpt lat="33.810586" lon="-118.3934435">
  <ele>-1.723</ele>
  <time>2026-09-01T01:15:17Z</time>
  <course>156.53</course>
  <speed>0.0316227766016838</speed>
  <fix>3d</fix>
</trkpt>
<trkpt lat="33.8105861" lon="-118.3934438">
  <ele>-1.31</ele>
  <time>2026-09-01T01:15:17Z</time>
  <course>119.22</course>
  <speed>0.0</speed>
  <fix>3d</fix>
</trkpt>
<trkpt lat="33.810586" lon="-118.3934435">
  <ele>-1.712</ele>
  <time>2026-09-01T01:15:17Z</time>
  <course>156.53</course>
  <speed>0.0316227766016838</speed>
  <fix>3d</fix>
</trkpt>
<trkpt lat="33.8105861" lon="-118.3934438">
  <ele>-1.3</ele>
  <time>2026-09-01T01:15:17Z</time>
  <course>119.24</course>
  <speed>0.0</speed>
  <fix>3d</fix>
</trkpt>
<trkpt lat="33.810586" lon="-118.3934435">
  <ele>-1.702</ele>
  <time>2026-09-01T01:15:17Z</time>
  <course>156.53</course>
  <speed>0.0316227766016838</speed>
  <fix>3d</fix>
</trkpt>
<trkpt lat="33.8105861" lon="-118.3934438">
  <ele>-1.3</ele>
  <time>2026-09-01T01:15:17Z</time>
  <course>119.24</course>
  <speed>0.0</speed>
  <fix>3d</fix>
</trkpt>
<trkpt lat="33.810586" lon="-118.3934435">
  <ele>-1.692</ele>
  <time>2026-09-01T01:15:17Z</time>
  <course>156.53</course>
  <speed>0.0316227766016838</speed>
  <fix>3d</fix>
</trkpt>
<trkpt lat="33.8105861" lon="-118.3934438">
  <ele>-1.29</ele>
  <time>2026-09-01T01:15:17Z</time>
  <course>119.23</course>
  <speed>0.0</speed>
  <fix>3d</fix>
</trkpt>
<trkpt lat="33.810586" lon="-118.3934435">
  <ele>-1.683</ele>
  <time>2026-09-01T01:15:17Z</time>
  <course>156.53</course>
  <speed>0.0316227766016838</speed>
  <fix>3d</fix>
</trkpt>
<trkpt lat="33.8105861" lon="-118.3934438">
  <ele>-1.29</ele>
  <time>2026-09-01T01:15:17Z</time>
  <course>119.23</course>
  <speed>0.0</speed>
  <fix>3d</fix>
</trkpt>
<trkpt lat="33.810586" lon="-118.3934435">
  <ele>-1.673</ele>
  <time>2026-09-01T01:15:17Z</time>
  <course>156.53</course>
  <speed>0.0316227766016838</speed>
  <fix>3d</fix>
</trkpt>
<trkpt lat="33.8105861" lon="-118.3934437">
  <ele>-1.27</ele>
  <time>2026-09-01T01:15:17Z</time>
  <course>119.2</course>
  <speed>0.0</speed>
  <fix>3d</fix>
</trkpt>
<trkpt lat="33.810586" lon="-118.3934435">
  <ele>-1.663</ele>
  <time>2026-09-01T01:15:17Z</time>
  <course>156.53</course>
  <speed>0.0316227766016838</speed>
  <fix>3d</fix>
</trkpt>
<trkpt lat="33.8105861" lon="-118.3934437">
  <ele>-1.27</ele>
  <time>2026-09-01T01:15:17Z</time>
  <course>119.2</course>
  <speed>0.0</speed>
  <fix>3d</fix>
</trkpt>
<trkpt lat="33.810586" lon="-118.3934435">
  <ele>-1.653</ele>
  <time>2026-09-01T01:15:17Z</time>
  <course>156.53</course>
  <speed>0.0316227766016838</speed>
  <fix>3d</fix>
</trkpt>
<trkpt lat="33.8105861" lon="-118.3934437">
  <ele>-1.25</ele>
  <time>2026-09-01T01:15:17Z</time>
  <course>119.18</course>
  <speed>0.0</speed>
  <fix>3d</fix>
</trkpt>
<trkpt lat="33.810586" lon="-118.3934434">
  <ele>-1.644</ele>
  <time>2026-09-01T01:15:18Z</time>
  <course>156.53</course>
  <speed>0.0316227766016838</speed>
  <fix>3d</fix>
</trkpt>
<trkpt lat="33.8105861" lon="-118.3934437">
  <ele>-1.25</ele>
  <time>2026-09-01T01:15:18Z</time>
  <course>119.18</course>
  <speed>0.0</speed>
  <fix>3d</fix>
</trkpt>
<trkpt lat="33.810586" lon="-118.3934434">
  <ele>-1.634</ele>
  <time>2026-09-01T01:15:18Z</time>
  <course>156.53</course>
  <speed>0.0316227766016838</speed>
  <fix>3d</fix>
</trkpt>
<trkpt lat="33.8105861" lon="-118.3934437">
  <ele>-1.23</ele>
  <time>2026-09-01T01:15:18Z</time>
  <course>119.18</course>
  <speed>0.0</speed>
  <fix>3d</fix>
</trkpt>
<trkpt lat="33.810586" lon="-118.3934434">
  <ele>-1.625</ele>
  <time>2026-09-01T01:15:18Z</time>
  <course>156.53</course>
  <speed>0.0316227766016838</speed>
  <fix>3d</fix>
</trkpt>
<trkpt lat="33.8105861" lon="-118.3934437">
  <ele>-1.23</ele>
  <time>2026-09-01T01:15:18Z</time>
  <course>119.18</course>
  <speed>0.0</speed>
  <fix>3d</fix>
</trkpt>
<trkpt lat="33.810586" lon="-118.3934434">
  <ele>-1.615</ele>
  <time>2026-09-01T01:15:18Z</time>
  <course>156.53</course>
  <speed>0.0316227766016838</speed>
  <fix>3d</fix>
</trkpt>
<trkpt lat="33.8105861" lon="-118.3934437">
  <ele>-1.21</ele>
  <time>2026-09-01T01:15:18Z</time>
  <course>119.21</course>
  <speed>0.0</speed>
  <fix>3d</fix>
</trkpt>
<trkpt lat="33.810586" lon="-118.3934434">
  <ele>-1.606</ele>
  <time>2026-09-01T01:15:18Z</time>
  <course>156.53</course>
  <speed>0.0316227766016838</speed>
  <fix>3d</fix>
</trkpt>
<trkpt lat="33.8105861" lon="-118.3934437">
  <ele>-1.21</ele>
  <time>2026-09-01T01:15:18Z</time>
  <course>119.21</course>
  <speed>0.0</speed>
  <fix>3d</fix>
</trkpt>
<trkpt lat="33.810586" lon="-118.3934434">
  <ele>-1.597</ele>
  <time>2026-09-01T01:15:18Z</time>
  <course>156.53</course>
  <speed>0.0316227766016838</speed>
  <fix>3d</fix>
</trkpt>
<trkpt lat="33.8105861" lon="-118.3934437">
  <ele>-1.19</ele>
  <time>2026-09-01T01:15:18Z</time>
  <course>119.24</course>
  <speed>0.0</speed>
  <fix>3d</fix>
</trkpt>
<trkpt lat="33.810586" lon="-118.3934434">
  <ele>-1.587</ele>
  <time>2026-09-01T01:15:18Z</time>
  <course>156.53</course>
  <speed>0.0316227766016838</speed>
  <fix>3d</fix>
</trkpt>
<trkpt lat="33.8105861" lon="-118.3934437">
  <ele>-1.19</ele>
  <time>2026-09-01T01:15:18Z</time>
  <course>119.24</course>
  <speed>0.0</speed>
  <fix>3d</fix>
</trkpt>
<trkpt lat="33.810586" lon="-118.3934434">
  <ele>-1.577</ele>
  <time>2026-09-01T01:15:18Z</time>
  <course>156.54</course>
  <speed>0.0316227766016838</speed>
  <fix>3d</fix>
</trkpt>
<trkpt lat="33.810586" lon="-118.3934437">
  <ele>-1.17</ele>
  <time>2026-09-01T01:15:18Z</time>
  <course>119.26</course>
  <speed>0.0</speed>
  <fix>3d</fix>
</trkpt>
<trkpt lat="33.810586" lon="-118.3934434">
  <ele>-1.568</ele>
  <time>2026-09-01T01:15:18Z</time>
  <course>156.54</course>
  <speed>0.0316227766016838</speed>
  <fix>3d</fix>
</trkpt>
<trkpt lat="33.810586" lon="-118.3934437">
  <ele>-1.17</ele>
  <time>2026-09-01T01:15:18Z</time>
  <course>119.26</course>
  <speed>0.0</speed>
  <fix>3d</fix>
</trkpt>
<trkpt lat="33.810586" lon="-118.3934434">
  <ele>-1.559</ele>
  <time>2026-09-01T01:15:18Z</time>
  <course>156.54</course>
  <speed>0.0316227766016838</speed>
  <fix>3d</fix>
</trkpt>
<trkpt lat="33.810586" lon="-118.3934436">
  <ele>-1.15</ele>
  <time>2026-09-01T01:15:18Z</time>
  <course>119.24</course>
  <speed>0.0</speed>
  <fix>3d</fix>
</trkpt>
<trkpt lat="33.810586" lon="-118.3934434">
  <ele>-1.55</ele>
  <time>2026-09-01T01:15:19Z</time>
  <course>156.54</course>
  <speed>0.0316227766016838</speed>
  <fix>3d</fix>
</trkpt>
<trkpt lat="33.810586" lon="-118.3934436">
  <ele>-1.15</ele>
  <time>2026-09-01T01:15:19Z</time>
  <course>119.24</course>
  <speed>0.0</speed>
  <fix>3d</fix>
</trkpt>
<trkpt lat="33.810586" lon="-118.3934434">
  <ele>-1.541</ele>
  <time>2026-09-01T01:15:19Z</time>
  <course>156.54</course>
  <speed>0.0316227766016838</speed>
  <fix>3d</fix>
</trkpt>
<trkpt lat="33.810586" lon="-118.3934436">
  <ele>-1.13</ele>
  <time>2026-09-01T01:15:19Z</time>
  <course>119.21</course>
  <speed>0.0</speed>
  <fix>3d</fix>
</trkpt>
<trkpt lat="33.810586" lon="-118.3934433">
  <ele>-1.531</ele>
  <time>2026-09-01T01:15:19Z</time>
  <course>156.54</course>
  <speed>0.0316227766016838</speed>
  <fix>3d</fix>
</trkpt>
<trkpt lat="33.810586" lon="-118.3934436">
  <ele>-1.13</ele>
  <time>2026-09-01T01:15:19Z</time>
  <course>119.21</course>
  <speed>0.0</speed>
  <fix>3d</fix>
</trkpt>
<trkpt lat="33.810586" lon="-118.3934433">
  <ele>-1.52</ele>
  <time>2026-09-01T01:15:19Z</time>
  <course>156.54</course>
  <speed>0.0316227766016838</speed>
  <fix>3d</fix>
</trkpt>
<trkpt lat="33.810586" lon="-118.3934436">
  <ele>-1.11</ele>
  <time>2026-09-01T01:15:19Z</time>
  <course>119.2</course>
  <speed>0.0</speed>
  <fix>3d</fix>
</trkpt>
<trkpt lat="33.810586" lon="-118.3934433">
  <ele>-1.51</ele>
  <time>2026-09-01T01:15:19Z</time>
  <course>156.54</course>
  <speed>0.0316227766016838</speed>
  <fix>3d</fix>
</trkpt>
<trkpt lat="33.810586" lon="-118.3934436">
  <ele>-1.11</ele>
  <time>2026-09-01T01:15:19Z</time>
  <course>119.2</course>
  <speed>0.0</speed>
  <fix>3d</fix>
</trkpt>
<trkpt lat="33.810586" lon="-118.3934433">
  <ele>-1.501</ele>
  <time>2026-09-01T01:15:19Z</time>
  <course>156.54</course>
  <speed>0.0316227766016838</speed>
  <fix>3d</fix>
</trkpt>
<trkpt lat="33.810586" lon="-118.3934436">
  <ele>-1.09</ele>
  <time>2026-09-01T01:15:19Z</time>
  <course>119.21</course>
  <speed>0.0</speed>
  <fix>3d</fix>
</trkpt>
<trkpt lat="33.810586" lon="-118.3934433">
  <ele>-1.492</ele>
  <time>2026-09-01T01:15:19Z</time>
  <course>156.54</course>
  <speed>0.0316227766016838</speed>
  <fix>3d</fix>
</trkpt>
<trkpt lat="33.810586" lon="-118.3934436">
  <ele>-1.09</ele>
  <time>2026-09-01T01:15:19Z</time>
  <course>119.21</course>
  <speed>0.0</speed>
  <fix>3d</fix>
</trkpt>
<trkpt lat="33.810586" lon="-118.3934433">
  <ele>-1.482</ele>
  <time>2026-09-01T01:15:19Z</time>
  <course>156.54</course>
  <speed>0.0316227766016838</speed>
  <fix>3d</fix>
</trkpt>
<trkpt lat="33.810586" lon="-118.3934436">
  <ele>-1.08</ele>
  <time>2026-09-01T01:15:19Z</time>
  <course>119.24</course>
  <speed>0.0</speed>
  <fix>3d</fix>
</trkpt>
<trkpt lat="33.810586" lon="-118.3934433">
  <ele>-1.472</ele>
  <time>2026-09-01T01:15:19Z</time>
  <course>156.54</course>
  <speed>0.0316227766016838</speed>
  <fix>3d</fix>
</trkpt>
<trkpt lat="33.810586" lon="-118.3934436">
  <ele>-1.08</ele>
  <time>2026-09-01T01:15:19Z</time>
  <course>119.24</course>
  <speed>0.0</speed>
  <fix>3d</fix>
</trkpt>
<trkpt lat="33.810586" lon="-118.3934433">
  <ele>-1.462</ele>
  <time>2026-09-01T01:15:19Z</time>
  <course>156.54</course>
  <speed>0.0316227766016838</speed>
  <fix>3d</fix>
</trkpt>
<trkpt lat="33.810586" lon="-118.3934436">
  <ele>-1.06</ele>
  <time>2026-09-01T01:15:19Z</time>
  <course>119.27</course>
  <speed>0.0</speed>
  <fix>3d</fix>
</trkpt>
<trkpt lat="33.8105859" lon="-118.3934433">
  <ele>-1.453</ele>
  <time>2026-09-01T01:15:19Z</time>
  <course>156.54</course>
  <speed>0.0316227766016838</speed>
  <fix>3d</fix>
</trkpt>
<trkpt lat="33.810586" lon="-118.3934436">
  <ele>-1.06</ele>
  <time>2026-09-01T01:15:19Z</time>
  <course>119.27</course>
  <speed>0.0</speed>
  <fix>3d</fix>
</trkpt>
<trkpt lat="33.8105859" lon="-118.3934433">
  <ele>-1.443</ele>
  <time>2026-09-01T01:15:21Z</time>
  <course>156.54</course>
  <speed>0.0316227766016838</speed>
  <fix>3d</fix>
</trkpt>
<trkpt lat="33.810586" lon="-118.3934435">
  <ele>-1.04</ele>
  <time>2026-09-01T01:15:21Z</time>
  <course>119.27</course>
  <speed>0.0</speed>
  <fix>3d</fix>
</trkpt>
<trkpt lat="33.8105859" lon="-118.3934433">
  <ele>-1.432</ele>
  <time>2026-09-01T01:15:21Z</time>
  <course>156.54</course>
  <speed>0.0316227766016838</speed>
  <fix>3d</fix>
</trkpt>
<trkpt lat="33.810586" lon="-118.3934435">
  <ele>-1.04</ele>
  <time>2026-09-01T01:15:21Z</time>
  <course>119.27</course>
  <speed>0.0</speed>
  <fix>3d</fix>
</trkpt>
<trkpt lat="33.8105859" lon="-118.3934433">
  <ele>-1.422</ele>
  <time>2026-09-01T01:15:21Z</time>
  <course>156.54</course>
  <speed>0.0316227766016838</speed>
  <fix>3d</fix>
</trkpt>
<trkpt lat="33.810586" lon="-118.3934435">
  <ele>-1.02</ele>
  <time>2026-09-01T01:15:21Z</time>
  <course>119.25</course>
  <speed>0.0</speed>
  <fix>3d</fix>
</trkpt>
<trkpt lat="33.8105859" lon="-118.3934432">
  <ele>-1.412</ele>
  <time>2026-09-01T01:15:21Z</time>
  <course>156.55</course>
  <speed>0.0316227766016838</speed>
  <fix>3d</fix>
</trkpt>
<trkpt lat="33.810586" lon="-118.3934435">
  <ele>-1.02</ele>
  <time>2026-09-01T01:15:21Z</time>
  <course>119.25</course>
  <speed>0.0</speed>
  <fix>3d</fix>
</trkpt>
<trkpt lat="33.8105859" lon="-118.3934432">
  <ele>-1.401</ele>
  <time>2026-09-01T01:15:21Z</time>
  <course>156.55</course>
  <speed>0.0316227766016838</speed>
  <fix>3d</fix>
</trkpt>
<trkpt lat="33.810586" lon="-118.3934435">
  <ele>-1.0</ele>
  <time>2026-09-01T01:15:21Z</time>
  <course>119.22</course>
  <speed>0.0</speed>
  <fix>3d</fix>
</trkpt>
<trkpt lat="33.8105859" lon="-118.3934432">
  <ele>-1.39</ele>
  <time>2026-09-01T01:15:21Z</time>
  <course>156.55</course>
  <speed>0.0316227766016838</speed>
  <fix>3d</fix>
</trkpt>
<trkpt lat="33.810586" lon="-118.3934435">
  <ele>-1.0</ele>
  <time>2026-09-01T01:15:21Z</time>
  <course>119.22</course>
  <speed>0.0</speed>
  <fix>3d</fix>
</trkpt>
<trkpt lat="33.8105859" lon="-118.3934432">
  <ele>-1.379</ele>
  <time>2026-09-01T01:15:21Z</time>
  <course>156.55</course>
  <speed>0.0316227766016838</speed>
  <fix>3d</fix>
</trkpt>
<trkpt lat="33.810586" lon="-118.3934435">
  <ele>-0.98</ele>
  <time>2026-09-01T01:15:21Z</time>
  <course>119.22</course>
  <speed>0.0</speed>
  <fix>3d</fix>
</trkpt>
<trkpt lat="33.8105859" lon="-118.3934432">
  <ele>-1.368</ele>
  <time>2026-09-01T01:15:21Z</time>
  <course>156.55</course>
  <speed>0.0316227766016838</speed>
  <fix>3d</fix>
</trkpt>
<trkpt lat="33.810586" lon="-118.3934435">
  <ele>-0.98</ele>
  <time>2026-09-01T01:15:21Z</time>
  <course>119.22</course>
  <speed>0.0</speed>
  <fix>3d</fix>
</trkpt>
<trkpt lat="33.8105859" lon="-118.3934432">
  <ele>-1.358</ele>
  <time>2026-09-01T01:15:21Z</time>
  <course>156.55</course>
  <speed>0.0316227766016838</speed>
  <fix>3d</fix>
</trkpt>
<trkpt lat="33.810586" lon="-118.3934435">
  <ele>-0.96</ele>
  <time>2026-09-01T01:15:21Z</time>
  <course>119.24</course>
  <speed>0.0</speed>
  <fix>3d</fix>
</trkpt>
<trkpt lat="33.8105859" lon="-118.3934432">
  <ele>-1.348</ele>
  <time>2026-09-01T01:15:21Z</time>
  <course>156.55</course>
  <speed>0.0316227766016838</speed>
  <fix>3d</fix>
</trkpt>
<trkpt lat="33.810586" lon="-118.3934435">
  <ele>-0.96</ele>
  <time>2026-09-01T01:15:21Z</time>
  <course>119.24</course>
  <speed>0.0</speed>
  <fix>3d</fix>
</trkpt>
<trkpt lat="33.8105859" lon="-118.3934432">
  <ele>-1.338</ele>
  <time>2026-09-01T01:15:21Z</time>
  <course>156.55</course>
  <speed>0.0316227766016838</speed>
  <fix>3d</fix>
</trkpt>
<trkpt lat="33.810586" lon="-118.3934435">
  <ele>-0.94</ele>
  <time>2026-09-01T01:15:21Z</time>
  <course>119.27</course>
  <speed>0.0</speed>
  <fix>3d</fix>
</trkpt>
<trkpt lat="33.8105859" lon="-118.3934432">
  <ele>-1.327</ele>
  <time>2026-09-01T01:15:21Z</time>
  <course>156.55</course>
  <speed>0.0316227766016838</speed>
  <fix>3d</fix>
</trkpt>
<trkpt lat="33.810586" lon="-118.3934435">
  <ele>-0.94</ele>
  <time>2026-09-01T01:15:21Z</time>
  <course>119.27</course>
  <speed>0.0</speed>
  <fix>3d</fix>
</trkpt>
<trkpt lat="33.8105859" lon="-118.3934432">
  <ele>-1.316</ele>
  <time>2026-09-01T01:15:21Z</time>
  <course>156.55</course>
  <speed>0.0316227766016838</speed>
  <fix>3d</fix>
</trkpt>
<trkpt lat="33.8105859" lon="-118.3934435">
  <ele>-0.92</ele>
  <time>2026-09-01T01:15:21Z</time>
  <course>119.29</course>
  <speed>0.0</speed>
  <fix>3d</fix>
</trkpt>
<trkpt lat="33.8105859" lon="-118.3934432">
  <ele>-1.306</ele>
  <time>2026-09-01T01:15:21Z</time>
  <course>156.55</course>
  <speed>0.0316227766016838</speed>
  <fix>3d</fix>
</trkpt>
<trkpt lat="33.8105859" lon="-118.3934435">
  <ele>-0.92</ele>
  <time>2026-09-01T01:15:21Z</time>
  <course>119.29</course>
  <speed>0.0</speed>
  <fix>3d</fix>
</trkpt>
<trkpt lat="33.8105859" lon="-118.3934432">
  <ele>-1.296</ele>
  <time>2026-09-01T01:15:21Z</time>
  <course>156.55</course>
  <speed>0.0316227766016838</speed>
  <fix>3d</fix>
</trkpt>
<trkpt lat="33.8105859" lon="-118.3934434">
  <ele>-0.9</ele>
  <time>2026-09-01T01:15:21Z</time>
  <course>119.28</course>
  <speed>0.0</speed>
  <fix>3d</fix>
</trkpt>
<trkpt lat="33.8105859" lon="-118.3934432">
  <ele>-1.287</ele>
  <time>2026-09-01T01:15:21Z</time>
  <course>156.55</course>
  <speed>0.0316227766016838</speed>
  <fix>3d</fix>
</trkpt>
<trkpt lat="33.8105859" lon="-118.3934434">
  <ele>-0.9</ele>
  <time>2026-09-01T01:15:21Z</time>
  <course>119.28</course>
  <speed>0.0</speed>
  <fix>3d</fix>
</trkpt>
<trkpt lat="33.8105859" lon="-118.3934432">
  <ele>-1.277</ele>
  <time>2026-09-01T01:15:21Z</time>
  <course>156.55</course>
  <speed>0.0316227766016838</speed>
  <fix>3d</fix>
</trkpt>
<trkpt lat="33.8105859" lon="-118.3934434">
  <ele>-0.88</ele>
  <time>2026-09-01T01:15:21Z</time>
  <course>119.25</course>
  <speed>0.0</speed>
  <fix>3d</fix>
</trkpt>
<trkpt lat="33.8105859" lon="-118.3934431">
  <ele>-1.267</ele>
  <time>2026-09-01T01:15:21Z</time>
  <course>156.55</course>
  <speed>0.0316227766016838</speed>
  <fix>3d</fix>
</trkpt>
<trkpt lat="33.8105859" lon="-118.3934434">
  <ele>-0.88</ele>
  <time>2026-09-01T01:15:21Z</time>
  <course>119.25</course>
  <speed>0.0</speed>
  <fix>3d</fix>
</trkpt>
<trkpt lat="33.8105859" lon="-118.3934431">
  <ele>-1.257</ele>
  <time>2026-09-01T01:15:21Z</time>
  <course>156.56</course>
  <speed>0.0316227766016838</speed>
  <fix>3d</fix>
</trkpt>
<trkpt lat="33.8105859" lon="-118.3934434">
  <ele>-0.87</ele>
  <time>2026-09-01T01:15:21Z</time>
  <course>119.23</course>
  <speed>0.0</speed>
  <fix>3d</fix>
</trkpt>
<trkpt lat="33.8105859" lon="-118.3934431">
  <ele>-1.247</ele>
  <time>2026-09-01T01:15:21Z</time>
  <course>156.56</course>
  <speed>0.0316227766016838</speed>
  <fix>3d</fix>
</trkpt>
<trkpt lat="33.8105859" lon="-118.3934434">
  <ele>-0.87</ele>
  <time>2026-09-01T01:15:21Z</time>
  <course>119.23</course>
  <speed>0.0</speed>
  <fix>3d</fix>
</trkpt>
<trkpt lat="33.8105859" lon="-118.3934431">
  <ele>-1.237</ele>
  <time>2026-09-01T01:15:21Z</time>
  <course>156.56</course>
  <speed>0.0316227766016838</speed>
  <fix>3d</fix>
</trkpt>
<trkpt lat="33.8105859" lon="-118.3934434">
  <ele>-0.85</ele>
  <time>2026-09-01T01:15:21Z</time>
  <course>119.24</course>
  <speed>0.0</speed>
  <fix>3d</fix>
</trkpt>
<trkpt lat="33.8105859" lon="-118.3934431">
  <ele>-1.228</ele>
  <time>2026-09-01T01:15:21Z</time>
  <course>156.56</course>
  <speed>0.0316227766016838</speed>
  <fix>3d</fix>
</trkpt>
<trkpt lat="33.8105859" lon="-118.3934434">
  <ele>-0.85</ele>
  <time>2026-09-01T01:15:21Z</time>
  <course>119.24</course>
  <speed>0.0</speed>
  <fix>3d</fix>
</trkpt>
<trkpt lat="33.8105859" lon="-118.3934431">
  <ele>-1.218</ele>
  <time>2026-09-01T01:15:21Z</time>
  <course>156.56</course>
  <speed>0.0316227766016838</speed>
  <fix>3d</fix>
</trkpt>
<trkpt lat="33.8105859" lon="-118.3934434">
  <ele>-0.83</ele>
  <time>2026-09-01T01:15:21Z</time>
  <course>119.27</course>
  <speed>0.0</speed>
  <fix>3d</fix>
</trkpt>
<trkpt lat="33.8105859" lon="-118.3934431">
  <ele>-1.208</ele>
  <time>2026-09-01T01:15:21Z</time>
  <course>156.56</course>
  <speed>0.0316227766016838</speed>
  <fix>3d</fix>
</trkpt>
<trkpt lat="33.8105859" lon="-118.3934434">
  <ele>-0.83</ele>
  <time>2026-09-01T01:15:21Z</time>
  <course>119.27</course>
  <speed>0.0</speed>
  <fix>3d</fix>
</trkpt>
<trkpt lat="33.8105859" lon="-118.3934431">
  <ele>-1.199</ele>
  <time>2026-09-01T01:15:21Z</time>
  <course>156.56</course>
  <speed>0.0316227766016838</speed>
  <fix>3d</fix>
</trkpt>
<trkpt lat="33.8105859" lon="-118.3934434">
  <ele>-0.81</ele>
  <time>2026-09-01T01:15:21Z</time>
  <course>119.3</course>
  <speed>0.0</speed>
  <fix>3d</fix>
</trkpt>
<trkpt lat="33.8105858" lon="-118.3934431">
  <ele>-1.19</ele>
  <time>2026-09-01T01:15:21Z</time>
  <course>156.56</course>
  <speed>0.0316227766016838</speed>
  <fix>3d</fix>
</trkpt>
<trkpt lat="33.8105859" lon="-118.3934434">
  <ele>-0.81</ele>
  <time>2026-09-01T01:15:21Z</time>
  <course>119.3</course>
  <speed>0.0</speed>
  <fix>3d</fix>
</trkpt>
<trkpt lat="33.8105858" lon="-118.3934431">
  <ele>-1.182</ele>
  <time>2026-09-01T01:15:21Z</time>
  <course>156.56</course>
  <speed>0.0316227766016838</speed>
  <fix>3d</fix>
</trkpt>
<trkpt lat="33.8105859" lon="-118.3934433">
  <ele>-0.78</ele>
  <time>2026-09-01T01:15:21Z</time>
  <course>119.31</course>
  <speed>0.0</speed>
  <fix>3d</fix>
</trkpt>
<trkpt lat="33.8105858" lon="-118.3934431">
  <ele>-1.174</ele>
  <time>2026-09-01T01:15:22Z</time>
  <course>156.56</course>
  <speed>0.0316227766016838</speed>
  <fix>3d</fix>
</trkpt>
<trkpt lat="33.8105859" lon="-118.3934433">
  <ele>-0.78</ele>
  <time>2026-09-01T01:15:22Z</time>
  <course>119.31</course>
  <speed>0.0</speed>
  <fix>3d</fix>
</trkpt>
<trkpt lat="33.8105858" lon="-118.3934431">
  <ele>-1.166</ele>
  <time>2026-09-01T01:15:22Z</time>
  <course>156.56</course>
  <speed>0.0316227766016838</speed>
  <fix>3d</fix>
</trkpt>
<trkpt lat="33.8105859" lon="-118.3934433">
  <ele>-0.77</ele>
  <time>2026-09-01T01:15:22Z</time>
  <course>119.29</course>
  <speed>0.0</speed>
  <fix>3d</fix>
</trkpt>
<trkpt lat="33.8105858" lon="-118.3934431">
  <ele>-1.157</ele>
  <time>2026-09-01T01:15:22Z</time>
  <course>156.56</course>
  <speed>0.0316227766016838</speed>
  <fix>3d</fix>
</trkpt>
<trkpt lat="33.8105859" lon="-118.3934433">
  <ele>-0.77</ele>
  <time>2026-09-01T01:15:22Z</time>
  <course>119.29</course>
  <speed>0.0</speed>
  <fix>3d</fix>
</trkpt>
<trkpt lat="33.8105858" lon="-118.3934431">
  <ele>-1.147</ele>
  <time>2026-09-01T01:15:22Z</time>
  <course>156.56</course>
  <speed>0.0316227766016838</speed>
  <fix>3d</fix>
</trkpt>
<trkpt lat="33.8105859" lon="-118.3934433">
  <ele>-0.75</ele>
  <time>2026-09-01T01:15:22Z</time>
  <course>119.26</course>
  <speed>0.0</speed>
  <fix>3d</fix>
</trkpt>
<trkpt lat="33.8105858" lon="-118.393443">
  <ele>-1.137</ele>
  <time>2026-09-01T01:15:22Z</time>
  <course>156.57</course>
  <speed>0.0316227766016838</speed>
  <fix>3d</fix>
</trkpt>
<trkpt lat="33.8105859" lon="-118.3934433">
  <ele>-0.75</ele>
  <time>2026-09-01T01:15:22Z</time>
  <course>119.26</course>
  <speed>0.0</speed>
  <fix>3d</fix>
</trkpt>
<trkpt lat="33.8105858" lon="-118.393443">
  <ele>-1.127</ele>
  <time>2026-09-01T01:15:22Z</time>
  <course>156.57</course>
  <speed>0.0316227766016838</speed>
  <fix>3d</fix>
</trkpt>
<trkpt lat="33.8105859" lon="-118.3934433">
  <ele>-0.73</ele>
  <time>2026-09-01T01:15:22Z</time>
  <course>119.25</course>
  <speed>0.0</speed>
  <fix>3d</fix>
</trkpt>
<trkpt lat="33.8105858" lon="-118.393443">
  <ele>-1.117</ele>
  <time>2026-09-01T01:15:22Z</time>
  <course>156.57</course>
  <speed>0.0316227766016838</speed>
  <fix>3d</fix>
</trkpt>
<trkpt lat="33.8105859" lon="-118.3934433">
  <ele>-0.73</ele>
  <time>2026-09-01T01:15:22Z</time>
  <course>119.25</course>
  <speed>0.0</speed>
  <fix>3d</fix>
</trkpt>
<trkpt lat="33.8105858" lon="-118.393443">
  <ele>-1.106</ele>
  <time>2026-09-01T01:15:22Z</time>
  <course>156.57</course>
  <speed>0.0316227766016838</speed>
  <fix>3d</fix>
</trkpt>
<trkpt lat="33.8105859" lon="-118.3934433">
  <ele>-0.71</ele>
  <time>2026-09-01T01:15:22Z</time>
  <course>119.26</course>
  <speed>0.0</speed>
  <fix>3d</fix>
</trkpt>
<trkpt lat="33.8105858" lon="-118.393443">
  <ele>-1.096</ele>
  <time>2026-09-01T01:15:22Z</time>
  <course>156.57</course>
  <speed>0.0316227766016838</speed>
  <fix>3d</fix>
</trkpt>
<trkpt lat="33.8105859" lon="-118.3934433">
  <ele>-0.71</ele>
  <time>2026-09-01T01:15:22Z</time>
  <course>119.26</course>
  <speed>0.0</speed>
  <fix>3d</fix>
</trkpt>
<trkpt lat="33.8105858" lon="-118.393443">
  <ele>-1.087</ele>
  <time>2026-09-01T01:15:22Z</time>
  <course>156.57</course>
  <speed>0.0316227766016838</speed>
  <fix>3d</fix>
</trkpt>
<trkpt lat="33.8105859" lon="-118.3934433">
  <ele>-0.69</ele>
  <time>2026-09-01T01:15:22Z</time>
  <course>119.3</course>
  <speed>0.0</speed>
  <fix>3d</fix>
</trkpt>
<trkpt lat="33.8105858" lon="-118.393443">
  <ele>-1.077</ele>
  <time>2026-09-01T01:15:22Z</time>
  <course>156.57</course>
  <speed>0.0316227766016838</speed>
  <fix>3d</fix>
</trkpt>
<trkpt lat="33.8105859" lon="-118.3934433">
  <ele>-0.69</ele>
  <time>2026-09-01T01:15:22Z</time>
  <course>119.3</course>
  <speed>0.0</speed>
  <fix>3d</fix>
</trkpt>
<trkpt lat="33.8105858" lon="-118.393443">
  <ele>-1.038</ele>
  <time>2026-09-01T01:15:22Z</time>
  <course>156.57</course>
  <speed>0.0316227766016838</speed>
  <fix>3d</fix>
</trkpt>
<trkpt lat="33.8105859" lon="-118.3934433">
  <ele>-0.65</ele>
  <time>2026-09-01T01:15:22Z</time>
  <course>119.32</course>
  <speed>0.0</speed>
  <fix>3d</fix>
</trkpt>
<trkpt lat="33.8105858" lon="-118.393443">
  <ele>-1.01</ele>
  <time>2026-09-01T01:15:22Z</time>
  <course>156.58</course>
  <speed>0.0316227766016838</speed>
  <fix>3d</fix>
</trkpt>
<trkpt lat="33.8105858" lon="-118.3934432">
  <ele>-0.62</ele>
  <time>2026-09-01T01:15:22Z</time>
  <course>119.27</course>
  <speed>0.0</speed>
  <fix>3d</fix>
</trkpt>
<trkpt lat="33.8105858" lon="-118.393443">
  <ele>-1.001</ele>
  <time>2026-09-01T01:15:22Z</time>
  <course>156.58</course>
  <speed>0.0316227766016838</speed>
  <fix>3d</fix>
</trkpt>
<trkpt lat="33.8105858" lon="-118.3934432">
  <ele>-0.62</ele>
  <time>2026-09-01T01:15:22Z</time>
  <course>119.27</course>
  <speed>0.0</speed>
  <fix>3d</fix>
</trkpt>
<trkpt lat="33.8105858" lon="-118.3934429">
  <ele>-0.99</ele>
  <time>2026-09-01T01:15:22Z</time>
  <course>156.58</course>
  <speed>0.0316227766016838</speed>
  <fix>3d</fix>
</trkpt>
<trkpt lat="33.8105858" lon="-118.3934432">
  <ele>-0.6</ele>
  <time>2026-09-01T01:15:22Z</time>
  <course>119.26</course>
  <speed>0.0</speed>
  <fix>3d</fix>
</trkpt>
<trkpt lat="33.8105858" lon="-118.3934429">
  <ele>-0.979</ele>
  <time>2026-09-01T01:15:22Z</time>
  <course>156.58</course>
  <speed>0.0316227766016838</speed>
  <fix>3d</fix>
</trkpt>
<trkpt lat="33.8105858" lon="-118.3934432">
  <ele>-0.6</ele>
  <time>2026-09-01T01:15:22Z</time>
  <course>119.26</course>
  <speed>0.0</speed>
  <fix>3d</fix>
</trkpt>
<trkpt lat="33.8105858" lon="-118.3934429">
  <ele>-0.967</ele>
  <time>2026-09-01T01:15:22Z</time>
  <course>156.58</course>
  <speed>0.0316227766016838</speed>
  <fix>3d</fix>
</trkpt>
<trkpt lat="33.8105858" lon="-118.3934432">
  <ele>-0.58</ele>
  <time>2026-09-01T01:15:22Z</time>
  <course>119.29</course>
  <speed>0.0</speed>
  <fix>3d</fix>
</trkpt>
<trkpt lat="33.8105858" lon="-118.3934429">
  <ele>-0.955</ele>
  <time>2026-09-01T01:15:22Z</time>
  <course>156.58</course>
  <speed>0.0316227766016838</speed>
  <fix>3d</fix>
</trkpt>
<trkpt lat="33.8105858" lon="-118.3934432">
  <ele>-0.58</ele>
  <time>2026-09-01T01:15:22Z</time>
  <course>119.29</course>
  <speed>0.0</speed>
  <fix>3d</fix>
</trkpt>
<trkpt lat="33.8105858" lon="-118.3934429">
  <ele>-0.943</ele>
  <time>2026-09-01T01:15:22Z</time>
  <course>156.58</course>
  <speed>0.0316227766016838</speed>
  <fix>3d</fix>
</trkpt>
<trkpt lat="33.8105858" lon="-118.3934432">
  <ele>-0.56</ele>
  <time>2026-09-01T01:15:22Z</time>
  <course>119.32</course>
  <speed>0.0</speed>
  <fix>3d</fix>
</trkpt>
<trkpt lat="33.8105858" lon="-118.3934429">
  <ele>-0.932</ele>
  <time>2026-09-01T01:15:22Z</time>
  <course>156.58</course>
  <speed>0.0316227766016838</speed>
  <fix>3d</fix>
</trkpt>
<trkpt lat="33.8105858" lon="-118.3934432">
  <ele>-0.56</ele>
  <time>2026-09-01T01:15:22Z</time>
  <course>119.32</course>
  <speed>0.0</speed>
  <fix>3d</fix>
</trkpt>
<trkpt lat="33.8105858" lon="-118.3934429">
  <ele>-0.922</ele>
  <time>2026-09-01T01:15:22Z</time>
  <course>156.58</course>
  <speed>0.0316227766016838</speed>
  <fix>3d</fix>
</trkpt>
<trkpt lat="33.8105858" lon="-118.3934432">
  <ele>-0.53</ele>
  <time>2026-09-01T01:15:22Z</time>
  <course>119.34</course>
  <speed>0.0</speed>
  <fix>3d</fix>
</trkpt>
<trkpt lat="33.8105858" lon="-118.3934429">
  <ele>-0.912</ele>
  <time>2026-09-01T01:15:22Z</time>
  <course>156.58</course>
  <speed>0.0316227766016838</speed>
  <fix>3d</fix>
</trkpt>
<trkpt lat="33.8105858" lon="-118.3934432">
  <ele>-0.53</ele>
  <time>2026-09-01T01:15:22Z</time>
  <course>119.34</course>
  <speed>0.0</speed>
  <fix>3d</fix>
</trkpt>
<trkpt lat="33.8105857" lon="-118.3934429">
  <ele>-0.902</ele>
  <time>2026-09-01T01:15:22Z</time>
  <course>156.59</course>
  <speed>0.0316227766016838</speed>
  <fix>3d</fix>
</trkpt>
<trkpt lat="33.8105858" lon="-118.3934432">
  <ele>-0.52</ele>
  <time>2026-09-01T01:15:22Z</time>
  <course>119.33</course>
  <speed>0.0</speed>
  <fix>3d</fix>
</trkpt>
<trkpt lat="33.8105857" lon="-118.3934429">
  <ele>-0.892</ele>
  <time>2026-09-01T01:15:22Z</time>
  <course>156.59</course>
  <speed>0.0316227766016838</speed>
  <fix>3d</fix>
</trkpt>
<trkpt lat="33.8105858" lon="-118.3934432">
  <ele>-0.52</ele>
  <time>2026-09-01T01:15:22Z</time>
  <course>119.33</course>
  <speed>0.0</speed>
  <fix>3d</fix>
</trkpt>
<trkpt lat="33.8105857" lon="-118.3934429">
  <ele>-0.881</ele>
  <time>2026-09-01T01:15:22Z</time>
  <course>156.59</course>
  <speed>0.0316227766016838</speed>
  <fix>3d</fix>
</trkpt>
<trkpt lat="33.8105858" lon="-118.3934431">
  <ele>-0.5</ele>
  <time>2026-09-01T01:15:22Z</time>
  <course>119.3</course>
  <speed>0.0</speed>
  <fix>3d</fix>
</trkpt>
<trkpt lat="33.8105857" lon="-118.3934429">
  <ele>-0.87</ele>
  <time>2026-09-01T01:15:22Z</time>
  <course>156.59</course>
  <speed>0.0316227766016838</speed>
  <fix>3d</fix>
</trkpt>
<trkpt lat="33.8105858" lon="-118.3934431">
  <ele>-0.5</ele>
  <time>2026-09-01T01:15:22Z</time>
  <course>119.3</course>
  <speed>0.0</speed>
  <fix>3d</fix>
</trkpt>
<trkpt lat="33.8105857" lon="-118.3934429">
  <ele>-0.861</ele>
  <time>2026-09-01T01:15:22Z</time>
  <course>156.59</course>
  <speed>0.0316227766016838</speed>
  <fix>3d</fix>
</trkpt>
<trkpt lat="33.8105858" lon="-118.3934431">
  <ele>-0.48</ele>
  <time>2026-09-01T01:15:22Z</time>
  <course>119.28</course>
  <speed>0.0</speed>
  <fix>3d</fix>
</trkpt>
<trkpt lat="33.8105857" lon="-118.3934429">
  <ele>-0.852</ele>
  <time>2026-09-01T01:15:22Z</time>
  <course>156.59</course>
  <speed>0.0316227766016838</speed>
  <fix>3d</fix>
</trkpt>
<trkpt lat="33.8105858" lon="-118.3934431">
  <ele>-0.48</ele>
  <time>2026-09-01T01:15:22Z</time>
  <course>119.28</course>
  <speed>0.0</speed>
  <fix>3d</fix>
</trkpt>
<trkpt lat="33.8105857" lon="-118.3934429">
  <ele>-0.843</ele>
  <time>2026-09-01T01:15:22Z</time>
  <course>156.59</course>
  <speed>0.0316227766016838</speed>
  <fix>3d</fix>
</trkpt>
<trkpt lat="33.8105858" lon="-118.3934431">
  <ele>-0.47</ele>
  <time>2026-09-01T01:15:22Z</time>
  <course>119.29</course>
  <speed>0.0</speed>
  <fix>3d</fix>
</trkpt>
<trkpt lat="33.8105857" lon="-118.3934428">
  <ele>-0.835</ele>
  <time>2026-09-01T01:15:22Z</time>
  <course>156.59</course>
  <speed>0.0316227766016838</speed>
  <fix>3d</fix>
</trkpt>
<trkpt lat="33.8105858" lon="-118.3934431">
  <ele>-0.47</ele>
  <time>2026-09-01T01:15:22Z</time>
  <course>119.29</course>
  <speed>0.0</speed>
  <fix>3d</fix>
</trkpt>
<trkpt lat="33.8105857" lon="-118.3934428">
  <ele>-0.826</ele>
  <time>2026-09-01T01:15:22Z</time>
  <course>156.59</course>
  <speed>0.0316227766016838</speed>
  <fix>3d</fix>
</trkpt>
<trkpt lat="33.8105858" lon="-118.3934431">
  <ele>-0.45</ele>
  <time>2026-09-01T01:15:22Z</time>
  <course>119.32</course>
  <speed>0.0</speed>
  <fix>3d</fix>
</trkpt>
<trkpt lat="33.8105857" lon="-118.3934428">
  <ele>-0.816</ele>
  <time>2026-09-01T01:15:22Z</time>
  <course>156.59</course>
  <speed>0.0316227766016838</speed>
  <fix>3d</fix>
</trkpt>
<trkpt lat="33.8105858" lon="-118.3934431">
  <ele>-0.45</ele>
  <time>2026-09-01T01:15:22Z</time>
  <course>119.32</course>
  <speed>0.0</speed>
  <fix>3d</fix>
</trkpt>
<trkpt lat="33.8105857" lon="-118.3934428">
  <ele>-0.807</ele>
  <time>2026-09-01T01:15:22Z</time>
  <course>156.59</course>
  <speed>0.0316227766016838</speed>
  <fix>3d</fix>
</trkpt>
<trkpt lat="33.8105858" lon="-118.3934431">
  <ele>-0.43</ele>
  <time>2026-09-01T01:15:22Z</time>
  <course>119.35</course>
  <speed>0.0</speed>
  <fix>3d</fix>
</trkpt>
<trkpt lat="33.8105857" lon="-118.3934428">
  <ele>-0.799</ele>
  <time>2026-09-01T01:15:22Z</time>
  <course>156.6</course>
  <speed>0.0316227766016838</speed>
  <fix>3d</fix>
</trkpt>
<trkpt lat="33.8105858" lon="-118.3934431">
  <ele>-0.43</ele>
  <time>2026-09-01T01:15:22Z</time>
  <course>119.35</course>
  <speed>0.0</speed>
  <fix>3d</fix>
</trkpt>
<trkpt lat="33.8105857" lon="-118.3934428">
  <ele>-0.791</ele>
  <time>2026-09-01T01:15:22Z</time>
  <course>156.6</course>
  <speed>0.0316227766016838</speed>
  <fix>3d</fix>
</trkpt>
<trkpt lat="33.8105858" lon="-118.3934431">
  <ele>-0.41</ele>
  <time>2026-09-01T01:15:22Z</time>
  <course>119.36</course>
  <speed>0.0</speed>
  <fix>3d</fix>
</trkpt>
<trkpt lat="33.8105857" lon="-118.3934428">
  <ele>-0.782</ele>
  <time>2026-09-01T01:15:22Z</time>
  <course>156.6</course>
  <speed>0.0316227766016838</speed>
  <fix>3d</fix>
</trkpt>
<trkpt lat="33.8105858" lon="-118.3934431">
  <ele>-0.41</ele>
  <time>2026-09-01T01:15:22Z</time>
  <course>119.36</course>
  <speed>0.0</speed>
  <fix>3d</fix>
</trkpt>
<trkpt lat="33.8105857" lon="-118.3934428">
  <ele>-0.773</ele>
  <time>2026-09-01T01:15:22Z</time>
  <course>156.6</course>
  <speed>0.0316227766016838</speed>
  <fix>3d</fix>
</trkpt>
<trkpt lat="33.8105858" lon="-118.3934431">
  <ele>-0.39</ele>
  <time>2026-09-01T01:15:22Z</time>
  <course>119.34</course>
  <speed>0.0</speed>
  <fix>3d</fix>
</trkpt>
<trkpt lat="33.8105857" lon="-118.3934428">
  <ele>-0.764</ele>
  <time>2026-09-01T01:15:22Z</time>
  <course>156.6</course>
  <speed>0.0316227766016838</speed>
  <fix>3d</fix>
</trkpt>
<trkpt lat="33.8105858" lon="-118.3934431">
  <ele>-0.39</ele>
  <time>2026-09-01T01:15:22Z</time>
  <course>119.34</course>
  <speed>0.0</speed>
  <fix>3d</fix>
</trkpt>
<trkpt lat="33.8105857" lon="-118.3934428">
  <ele>-0.754</ele>
  <time>2026-09-01T01:15:22Z</time>
  <course>156.6</course>
  <speed>0.0316227766016838</speed>
  <fix>3d</fix>
</trkpt>
<trkpt lat="33.8105858" lon="-118.3934431">
  <ele>-0.37</ele>
  <time>2026-09-01T01:15:22Z</time>
  <course>119.31</course>
  <speed>0.0</speed>
  <fix>3d</fix>
</trkpt>
<trkpt lat="33.8105857" lon="-118.3934428">
  <ele>-0.744</ele>
  <time>2026-09-01T01:15:22Z</time>
  <course>156.6</course>
  <speed>0.0316227766016838</speed>
  <fix>3d</fix>
</trkpt>
<trkpt lat="33.8105858" lon="-118.3934431">
  <ele>-0.37</ele>
  <time>2026-09-01T01:15:22Z</time>
  <course>119.31</course>
  <speed>0.0</speed>
  <fix>3d</fix>
</trkpt>
<trkpt lat="33.8105857" lon="-118.3934428">
  <ele>-0.734</ele>
  <time>2026-09-01T01:15:22Z</time>
  <course>156.6</course>
  <speed>0.0316227766016838</speed>
  <fix>3d</fix>
</trkpt>
<trkpt lat="33.8105858" lon="-118.393443">
  <ele>-0.35</ele>
  <time>2026-09-01T01:15:22Z</time>
  <course>119.29</course>
  <speed>0.0</speed>
  <fix>3d</fix>
</trkpt>
<trkpt lat="33.8105857" lon="-118.3934428">
  <ele>-0.725</ele>
  <time>2026-09-01T01:15:22Z</time>
  <course>156.6</course>
  <speed>0.0316227766016838</speed>
  <fix>3d</fix>
</trkpt>
<trkpt lat="33.8105858" lon="-118.393443">
  <ele>-0.35</ele>
  <time>2026-09-01T01:15:22Z</time>
  <course>119.29</course>
  <speed>0.0</speed>
  <fix>3d</fix>
</trkpt>
<trkpt lat="33.8105857" lon="-118.3934428">
  <ele>-0.716</ele>
  <time>2026-09-01T01:15:22Z</time>
  <course>156.6</course>
  <speed>0.0316227766016838</speed>
  <fix>3d</fix>
</trkpt>
<trkpt lat="33.8105858" lon="-118.393443">
  <ele>-0.32</ele>
  <time>2026-09-01T01:15:22Z</time>
  <course>119.31</course>
  <speed>0.0</speed>
  <fix>3d</fix>
</trkpt>
<trkpt lat="33.8105857" lon="-118.3934428">
  <ele>-0.709</ele>
  <time>2026-09-01T01:15:22Z</time>
  <course>156.61</course>
  <speed>0.0316227766016838</speed>
  <fix>3d</fix>
</trkpt>
<trkpt lat="33.8105858" lon="-118.393443">
  <ele>-0.32</ele>
  <time>2026-09-01T01:15:22Z</time>
  <course>119.31</course>
  <speed>0.0</speed>
  <fix>3d</fix>
</trkpt>
<trkpt lat="33.8105857" lon="-118.3934428">
  <ele>-0.701</ele>
  <time>2026-09-01T01:15:22Z</time>
  <course>156.61</course>
  <speed>0.0316227766016838</speed>
  <fix>3d</fix>
</trkpt>
<trkpt lat="33.8105857" lon="-118.393443">
  <ele>-0.31</ele>
  <time>2026-09-01T01:15:22Z</time>
  <course>119.35</course>
  <speed>0.0</speed>
  <fix>3d</fix>
</trkpt>
<trkpt lat="33.8105857" lon="-118.3934427">
  <ele>-0.693</ele>
  <time>2026-09-01T01:15:22Z</time>
  <course>156.61</course>
  <speed>0.0316227766016838</speed>
  <fix>3d</fix>
</trkpt>
<trkpt lat="33.8105857" lon="-118.393443">
  <ele>-0.31</ele>
  <time>2026-09-01T01:15:22Z</time>
  <course>119.35</course>
  <speed>0.0</speed>
  <fix>3d</fix>
</trkpt>
<trkpt lat="33.8105857" lon="-118.3934427">
  <ele>-0.683</ele>
  <time>2026-09-01T01:15:22Z</time>
  <course>156.61</course>
  <speed>0.0316227766016838</speed>
  <fix>3d</fix>
</trkpt>
<trkpt lat="33.8105857" lon="-118.393443">
  <ele>-0.29</ele>
  <time>2026-09-01T01:15:22Z</time>
  <course>119.37</course>
  <speed>0.0</speed>
  <fix>3d</fix>
</trkpt>
<trkpt lat="33.8105857" lon="-118.3934427">
  <ele>-0.674</ele>
  <time>2026-09-01T01:15:22Z</time>
  <course>156.61</course>
  <speed>0.0316227766016838</speed>
  <fix>3d</fix>
</trkpt>
<trkpt lat="33.8105857" lon="-118.393443">
  <ele>-0.29</ele>
  <time>2026-09-01T01:15:22Z</time>
  <course>119.37</course>
  <speed>0.0</speed>
  <fix>3d</fix>
</trkpt>
<trkpt lat="33.8105857" lon="-118.3934427">
  <ele>-0.665</ele>
  <time>2026-09-01T01:15:22Z</time>
  <course>156.61</course>
  <speed>0.0316227766016838</speed>
  <fix>3d</fix>
</trkpt>
<trkpt lat="33.8105857" lon="-118.393443">
  <ele>-0.27</ele>
  <time>2026-09-01T01:15:22Z</time>
  <course>119.37</course>
  <speed>0.0</speed>
  <fix>3d</fix>
</trkpt>
<trkpt lat="33.4370077" lon="-117.0866608">
  <ele>-0.11</ele>
  <time>2026-09-01T01:15:23Z</time>
  <course>0.0</course>
  <speed>0.0</speed>
  <fix>3d</fix>
</trkpt>
<trkpt lat="33.4370077" lon="-117.0866608">
  <ele>-0.11</ele>
  <time>2026-09-01T01:15:23Z</time>
  <course>0.0</course>
  <speed>0.0</speed>
  <fix>3d</fix>
</trkpt>
<trkpt lat="33.810313" lon="-118.393867">
  <ele>0.0</ele>
  <time>2026-09-01T01:15:23Z</time>
  <course>173.5</course>
  <speed>0.0</speed>
  <fix>3d</fix>
</trkpt>
<trkpt lat="33.810313" lon="-118.393867">
  <ele>-0.11</ele>
  <time>2026-09-01T01:15:23Z</time>
  <course>0.0</course>
  <speed>0.0</speed>
  <fix>3d</fix>
</trkpt>
<trkpt lat="33.810313" lon="-118.393867">
  <ele>0.0</ele>
  <time>2026-09-01T01:15:23Z</time>
  <course>173.5</course>
  <speed>0.0</speed>
  <fix>3d</fix>
</trkpt>
<trkpt lat="33.810313" lon="-118.393867">
  <ele>-0.11</ele>
  <time>2026-09-01T01:15:23Z</time>
  <course>0.0</course>
  <speed>0.0</speed>
  <fix>3d</fix>
</trkpt>
<trkpt lat="33.810313" lon="-118.393867">
  <ele>0.0</ele>
  <time>2026-09-01T01:15:23Z</time>
  <course>173.78</course>
  <speed>0.0</speed>
  <fix>3d</fix>
</trkpt>
<trkpt lat="33.810313" lon="-118.393867">
  <ele>-0.11</ele>
  <time>2026-09-01T01:15:23Z</time>
  <course>0.0</course>
  <speed>0.0</speed>
  <fix>3d</fix>
</trkpt>
<trkpt lat="33.810313" lon="-118.393867">
  <ele>0.0</ele>
  <time>2026-09-01T01:15:23Z</time>
  <course>174.28</course>
  <speed>0.0</speed>
  <fix>3d</fix>
</trkpt>
<trkpt lat="33.810313" lon="-118.393867">
  <ele>-0.11</ele>
  <time>2026-09-01T01:15:23Z</time>
  <course>0.0</course>
  <speed>0.0</speed>
  <fix>3d</fix>
</trkpt>
<trkpt lat="33.810313" lon="-118.393867">
  <ele>0.0</ele>
  <time>2026-09-01T01:15:23Z</time>
  <course>174.84</course>
  <speed>0.0</speed>
  <fix>3d</fix>
</trkpt>
<trkpt lat="33.810313" lon="-118.393867">
  <ele>-0.12</ele>
  <time>2026-09-01T01:15:23Z</time>
  <course>0.0</course>
  <speed>0.0</speed>
  <fix>3d</fix>
</trkpt>
<trkpt lat="33.810313" lon="-118.393867">
  <ele>0.0</ele>
  <time>2026-09-01T01:15:23Z</time>
  <course>175.39</course>
  <speed>0.0</speed>
  <fix>3d</fix>
</trkpt>
<trkpt lat="33.810313" lon="-118.393867">
  <ele>-0.12</ele>
  <time>2026-09-01T01:15:23Z</time>
  <course>0.0</course>
  <speed>0.0</speed>
  <fix>3d</fix>
</trkpt>
<trkpt lat="33.810313" lon="-118.393867">
  <ele>0.0</ele>
  <time>2026-09-01T01:15:23Z</time>
  <course>175.91</course>
  <speed>0.0</speed>
  <fix>3d</fix>
</trkpt>
<trkpt lat="33.810313" lon="-118.393867">
  <ele>-0.13</ele>
  <time>2026-09-01T01:15:23Z</time>
  <course>0.0</course>
  <speed>0.0</speed>
  <fix>3d</fix>
</trkpt>
<trkpt lat="33.810313" lon="-118.393867">
  <ele>0.0</ele>
  <time>2026-09-01T01:15:23Z</time>
  <course>176.4</course>
  <speed>0.0</speed>
  <fix>3d</fix>
</trkpt>
<trkpt lat="33.810313" lon="-118.393867">
  <ele>-0.13</ele>
  <time>2026-09-01T01:15:23Z</time>
  <course>0.0</course>
  <speed>0.0</speed>
  <fix>3d</fix>
</trkpt>
<trkpt lat="33.810313" lon="-118.393867">
  <ele>0.0</ele>
  <time>2026-09-01T01:15:23Z</time>
  <course>176.87</course>
  <speed>0.0</speed>
  <fix>3d</fix>
</trkpt>
<trkpt lat="33.810313" lon="-118.393867">
  <ele>-0.13</ele>
  <time>2026-09-01T01:15:23Z</time>
  <course>0.0</course>
  <speed>0.0</speed>
  <fix>3d</fix>
</trkpt>
<trkpt lat="33.810313" lon="-118.393867">
  <ele>0.0</ele>
  <time>2026-09-01T01:15:23Z</time>
  <course>177.34</course>
  <speed>0.0</speed>
  <fix>3d</fix>
</trkpt>
<trkpt lat="33.810313" lon="-118.393867">
  <ele>-0.13</ele>
  <time>2026-09-01T01:15:23Z</time>
  <course>0.0</course>
  <speed>0.0</speed>
  <fix>3d</fix>
</trkpt>
<trkpt lat="33.810313" lon="-118.393867">
  <ele>0.0</ele>
  <time>2026-09-01T01:15:23Z</time>
  <course>177.79</course>
  <speed>0.0</speed>
  <fix>3d</fix>
</trkpt>
<trkpt lat="33.810313" lon="-118.393867">
  <ele>-0.14</ele>
  <time>2026-09-01T01:15:23Z</time>
  <course>0.0</course>
  <speed>0.0</speed>
  <fix>3d</fix>
</trkpt>
<trkpt lat="33.810313" lon="-118.393867">
  <ele>0.0</ele>
  <time>2026-09-01T01:15:23Z</time>
  <course>178.23</course>
  <speed>0.0</speed>
  <fix>3d</fix>
</trkpt>
<trkpt lat="33.810313" lon="-118.393867">
  <ele>-0.14</ele>
  <time>2026-09-01T01:15:23Z</time>
  <course>0.0</course>
  <speed>0.0</speed>
  <fix>3d</fix>
</trkpt>
<trkpt lat="33.810313" lon="-118.393867">
  <ele>0.0</ele>
  <time>2026-09-01T01:15:23Z</time>
  <course>178.65</course>
  <speed>0.0</speed>
  <fix>3d</fix>
</trkpt>
<trkpt lat="33.810313" lon="-118.393867">
  <ele>-0.14</ele>
  <time>2026-09-01T01:15:23Z</time>
  <course>0.0</course>
  <speed>0.0</speed>
  <fix>3d</fix>
</trkpt>
<trkpt lat="33.810313" lon="-118.393867">
  <ele>0.0</ele>
  <time>2026-09-01T01:15:23Z</time>
  <course>179.06</course>
  <speed>0.0</speed>
  <fix>3d</fix>
</trkpt>
<trkpt lat="33.810313" lon="-118.393867">
  <ele>-0.14</ele>
  <time>2026-09-01T01:15:23Z</time>
  <course>0.0</course>
  <speed>0.0</speed>
  <fix>3d</fix>
</trkpt>
<trkpt lat="33.810313" lon="-118.393867">
  <ele>0.0</ele>
  <time>2026-09-01T01:15:23Z</time>
  <course>179.46</course>
  <speed>0.0</speed>
  <fix>3d</fix>
</trkpt>
<trkpt lat="33.810313" lon="-118.393867">
  <ele>-0.14</ele>
  <time>2026-09-01T01:15:23Z</time>
  <course>0.0</course>
  <speed>0.0</speed>
  <fix>3d</fix>
</trkpt>
<trkpt lat="33.810313" lon="-118.393867">
  <ele>0.0</ele>
  <time>2026-09-01T01:15:23Z</time>
  <course>179.84</course>
  <speed>0.0</speed>
  <fix>3d</fix>
</trkpt>
<trkpt lat="33.810313" lon="-118.393867">
  <ele>-0.14</ele>
  <time>2026-09-01T01:15:23Z</time>
  <course>0.0</course>
  <speed>0.0</speed>
  <fix>3d</fix>
</trkpt>
<trkpt lat="33.810313" lon="-118.393867">
  <ele>0.0</ele>
  <time>2026-09-01T01:15:23Z</time>
  <course>180.23</course>
  <speed>0.0</speed>
  <fix>3d</fix>
</trkpt>
<trkpt lat="33.810313" lon="-118.393867">
  <ele>-0.14</ele>
  <time>2026-09-01T01:15:23Z</time>
  <course>0.0</course>
  <speed>0.0</speed>
  <fix>3d</fix>
</trkpt>
<trkpt lat="33.810313" lon="-118.393867">
  <ele>0.0</ele>
  <time>2026-09-01T01:15:23Z</time>
  <course>180.58</course>
  <speed>0.0</speed>
  <fix>3d</fix>
</trkpt>
<trkpt lat="33.810313" lon="-118.393867">
  <ele>-0.14</ele>
  <time>2026-09-01T01:15:23Z</time>
  <course>0.0</course>
  <speed>0.0</speed>
  <fix>3d</fix>
</trkpt>
<trkpt lat="33.810313" lon="-118.393867">
  <ele>0.0</ele>
  <time>2026-09-01T01:15:23Z</time>
  <course>180.93</course>
  <speed>0.0</speed>
  <fix>3d</fix>
</trkpt>
<trkpt lat="33.810313" lon="-118.393867">
  <ele>-0.13</ele>
  <time>2026-09-01T01:15:23Z</time>
  <course>0.0</course>
  <speed>0.0</speed>
  <fix>3d</fix>
</trkpt>
<trkpt lat="33.810313" lon="-118.393867">
  <ele>0.0</ele>
  <time>2026-09-01T01:15:23Z</time>
  <course>181.27</course>
  <speed>0.0</speed>
  <fix>3d</fix>
</trkpt>
<trkpt lat="33.810313" lon="-118.393867">
  <ele>-0.13</ele>
  <time>2026-09-01T01:15:23Z</time>
  <course>0.0</course>
  <speed>0.0</speed>
  <fix>3d</fix>
</trkpt>
<trkpt lat="33.810313" lon="-118.393867">
  <ele>0.0</ele>
  <time>2026-09-01T01:15:23Z</time>
  <course>181.59</course>
  <speed>0.0</speed>
  <fix>3d</fix>
</trkpt>
<trkpt lat="33.810313" lon="-118.393867">
  <ele>-0.12</ele>
  <time>2026-09-01T01:15:23Z</time>
  <course>0.0</course>
  <speed>0.0</speed>
  <fix>3d</fix>
</trkpt>
<trkpt lat="33.810313" lon="-118.393867">
  <ele>0.0</ele>
  <time>2026-09-01T01:15:23Z</time>
  <course>181.9</course>
  <speed>0.0</speed>
  <fix>3d</fix>
</trkpt>
<trkpt lat="33.810313" lon="-118.393867">
  <ele>-0.12</ele>
  <time>2026-09-01T01:15:23Z</time>
  <course>0.0</course>
  <speed>0.0</speed>
  <fix>3d</fix>
</trkpt>
<trkpt lat="33.810313" lon="-118.393867">
  <ele>0.0</ele>
  <time>2026-09-01T01:15:23Z</time>
  <course>182.2</course>
  <speed>0.0</speed>
  <fix>3d</fix>
</trkpt>
<trkpt lat="33.810313" lon="-118.393867">
  <ele>-0.12</ele>
  <time>2026-09-01T01:15:23Z</time>
  <course>0.0</course>
  <speed>0.0</speed>
  <fix>3d</fix>
</trkpt>
<trkpt lat="33.810313" lon="-118.393867">
  <ele>0.0</ele>
  <time>2026-09-01T01:15:23Z</time>
  <course>182.49</course>
  <speed>0.0</speed>
  <fix>3d</fix>
</trkpt>
<trkpt lat="33.810313" lon="-118.393867">
  <ele>-0.12</ele>
  <time>2026-09-01T01:15:23Z</time>
  <course>0.0</course>
  <speed>0.0</speed>
  <fix>3d</fix>
</trkpt>
<trkpt lat="33.810313" lon="-118.393867">
  <ele>0.0</ele>
  <time>2026-09-01T01:15:23Z</time>
  <course>182.77</course>
  <speed>0.0</speed>
  <fix>3d</fix>
</trkpt>
<trkpt lat="33.810313" lon="-118.393867">
  <ele>-0.11</ele>
  <time>2026-09-01T01:15:23Z</time>
  <course>0.0</course>
  <speed>0.0</speed>
  <fix>3d</fix>
</trkpt>
<trkpt lat="33.810313" lon="-118.393867">
  <ele>0.0</ele>
  <time>2026-09-01T01:15:23Z</time>
  <course>183.04</course>
  <speed>0.0</speed>
  <fix>3d</fix>
</trkpt>
<trkpt lat="33.810313" lon="-118.393867">
  <ele>-0.11</ele>
  <time>2026-09-01T01:15:23Z</time>
  <course>0.0</course>
  <speed>0.0</speed>
  <fix>3d</fix>
</trkpt>
<trkpt lat="33.810313" lon="-118.393867">
  <ele>0.0</ele>
  <time>2026-09-01T01:15:23Z</time>
  <course>183.3</course>
  <speed>0.0</speed>
  <fix>3d</fix>
</trkpt>
<trkpt lat="33.810313" lon="-118.393867">
  <ele>-0.11</ele>
  <time>2026-09-01T01:15:23Z</time>
  <course>0.0</course>
  <speed>0.0</speed>
  <fix>3d</fix>
</trkpt>
<trkpt lat="33.810313" lon="-118.393867">
  <ele>0.0</ele>
  <time>2026-09-01T01:15:23Z</time>
  <course>183.54</course>
  <speed>0.0</speed>
  <fix>3d</fix>
</trkpt>
<trkpt lat="33.810313" lon="-118.393867">
  <ele>-0.11</ele>
  <time>2026-09-01T01:15:23Z</time>
  <course>0.0</course>
  <speed>0.0</speed>
  <fix>3d</fix>
</trkpt>
<trkpt lat="33.810313" lon="-118.393867">
  <ele>0.0</ele>
  <time>2026-09-01T01:15:23Z</time>
  <course>183.78</course>
  <speed>0.0</speed>
  <fix>3d</fix>
</trkpt>
<trkpt lat="33.810313" lon="-118.393867">
  <ele>-0.12</ele>
  <time>2026-09-01T01:15:23Z</time>
  <course>0.0</course>
  <speed>0.0</speed>
  <fix>3d</fix>
</trkpt>
<trkpt lat="33.810313" lon="-118.393867">
  <ele>0.0</ele>
  <time>2026-09-01T01:15:23Z</time>
  <course>184.0</course>
  <speed>0.0</speed>
  <fix>3d</fix>
</trkpt>
<trkpt lat="33.810313" lon="-118.393867">
  <ele>-0.12</ele>
  <time>2026-09-01T01:15:23Z</time>
  <course>0.0</course>
  <speed>0.0</speed>
  <fix>3d</fix>
</trkpt>
<trkpt lat="33.810313" lon="-118.393867">
  <ele>0.0</ele>
  <time>2026-09-01T01:15:23Z</time>
  <course>184.22</course>
  <speed>0.0</speed>
  <fix>3d</fix>
</trkpt>
<trkpt lat="33.810313" lon="-118.393867">
  <ele>-0.13</ele>
  <time>2026-09-01T01:15:23Z</time>
  <course>0.0</course>
  <speed>0.0</speed>
  <fix>3d</fix>
</trkpt>
<trkpt lat="33.810313" lon="-118.393867">
  <ele>0.0</ele>
  <time>2026-09-01T01:15:23Z</time>
  <course>184.43</course>
  <speed>0.0</speed>
  <fix>3d</fix>
</trkpt>
<trkpt lat="33.810313" lon="-118.393867">
  <ele>-0.13</ele>
  <time>2026-09-01T01:15:23Z</time>
  <course>0.0</course>
  <speed>0.0</speed>
  <fix>3d</fix>
</trkpt>
<trkpt lat="33.810313" lon="-118.393867">
  <ele>0.0</ele>
  <time>2026-09-01T01:15:23Z</time>
  <course>184.63</course>
  <speed>0.0</speed>
  <fix>3d</fix>
</trkpt>
<trkpt lat="33.810313" lon="-118.393867">
  <ele>-0.13</ele>
  <time>2026-09-01T01:15:23Z</time>
  <course>0.0</course>
  <speed>0.0</speed>
  <fix>3d</fix>
</trkpt>
<trkpt lat="33.810313" lon="-118.393867">
  <ele>0.0</ele>
  <time>2026-09-01T01:15:23Z</time>
  <course>184.82</course>
  <speed>0.0</speed>
  <fix>3d</fix>
</trkpt>
<trkpt lat="33.810313" lon="-118.393867">
  <ele>-0.13</ele>
  <time>2026-09-01T01:15:23Z</time>
  <course>0.0</course>
  <speed>0.0</speed>
  <fix>3d</fix>
</trkpt>
<trkpt lat="33.810313" lon="-118.393867">
  <ele>0.0</ele>
  <time>2026-09-01T01:15:23Z</time>
  <course>185.0</course>
  <speed>0.0</speed>
  <fix>3d</fix>
</trkpt>
<trkpt lat="33.810313" lon="-118.393867">
  <ele>-0.14</ele>
  <time>2026-09-01T01:15:23Z</time>
  <course>0.0</course>
  <speed>0.0</speed>
  <fix>3d</fix>
</trkpt>
<trkpt lat="33.810313" lon="-118.393867">
  <ele>0.0</ele>
  <time>2026-09-01T01:15:23Z</time>
  <course>185.18</course>
  <speed>0.0</speed>
  <fix>3d</fix>
</trkpt>
<trkpt lat="33.810313" lon="-118.393867">
  <ele>-0.14</ele>
  <time>2026-09-01T01:15:23Z</time>
  <course>0.0</course>
  <speed>0.0</speed>
  <fix>3d</fix>
</trkpt>
<trkpt lat="33.810313" lon="-118.393867">
  <ele>0.0</ele>
  <time>2026-09-01T01:15:23Z</time>
  <course>185.35</course>
  <speed>0.0</speed>
  <fix>3d</fix>
</trkpt>
<trkpt lat="33.810313" lon="-118.393867">
  <ele>-0.13</ele>
  <time>2026-09-01T01:15:23Z</time>
  <course>0.0</course>
  <speed>0.0</speed>
  <fix>3d</fix>
</trkpt>
<trkpt lat="33.810313" lon="-118.393867">
  <ele>0.0</ele>
  <time>2026-09-01T01:15:23Z</time>
  <course>185.51</course>
  <speed>0.0</speed>
  <fix>3d</fix>
</trkpt>
<trkpt lat="33.810313" lon="-118.393867">
  <ele>-0.13</ele>
  <time>2026-09-01T01:15:23Z</time>
  <course>0.0</course>
  <speed>0.0</speed>
  <fix>3d</fix>
</trkpt>
<trkpt lat="33.810313" lon="-118.393867">
  <ele>0.0</ele>
  <time>2026-09-01T01:15:23Z</time>
  <course>185.66</course>
  <speed>0.0</speed>
  <fix>3d</fix>
</trkpt>
<trkpt lat="33.810313" lon="-118.393867">
  <ele>-0.13</ele>
  <time>2026-09-01T01:15:23Z</time>
  <course>0.0</course>
  <speed>0.0</speed>
  <fix>3d</fix>
</trkpt>
<trkpt lat="33.810313" lon="-118.393867">
  <ele>0.0</ele>
  <time>2026-09-01T01:15:23Z</time>
  <course>185.81</course>
  <speed>0.0</speed>
  <fix>3d</fix>
</trkpt>
<trkpt lat="33.810313" lon="-118.393867">
  <ele>-0.13</ele>
  <time>2026-09-01T01:15:23Z</time>
  <course>0.0</course>
  <speed>0.0</speed>
  <fix>3d</fix>
</trkpt>
<trkpt lat="33.810313" lon="-118.393867">
  <ele>0.0</ele>
  <time>2026-09-01T01:15:23Z</time>
  <course>185.95</course>
  <speed>0.0</speed>
  <fix>3d</fix>
</trkpt>
<trkpt lat="33.810313" lon="-118.393867">
  <ele>-0.12</ele>
  <time>2026-09-01T01:15:23Z</time>
  <course>0.0</course>
  <speed>0.0</speed>
  <fix>3d</fix>
</trkpt>
<trkpt lat="33.810313" lon="-118.393867">
  <ele>0.0</ele>
  <time>2026-09-01T01:15:23Z</time>
  <course>186.09</course>
  <speed>0.0</speed>
  <fix>3d</fix>
</trkpt>
<trkpt lat="33.810313" lon="-118.393867">
  <ele>-0.12</ele>
  <time>2026-09-01T01:15:23Z</time>
  <course>0.0</course>
  <speed>0.0</speed>
  <fix>3d</fix>
</trkpt>
<trkpt lat="33.810313" lon="-118.393867">
  <ele>0.0</ele>
  <time>2026-09-01T01:15:23Z</time>
  <course>186.22</course>
  <speed>0.0</speed>
  <fix>3d</fix>
</trkpt>
<trkpt lat="33.810313" lon="-118.393867">
  <ele>-0.12</ele>
  <time>2026-09-01T01:15:23Z</time>
  <course>0.0</course>
  <speed>0.0</speed>
  <fix>3d</fix>
</trkpt>
<trkpt lat="33.810313" lon="-118.393867">
  <ele>0.0</ele>
  <time>2026-09-01T01:15:23Z</time>
  <course>186.34</course>
  <speed>0.0</speed>
  <fix>3d</fix>
</trkpt>
<trkpt lat="33.810313" lon="-118.393867">
  <ele>-0.12</ele>
  <time>2026-09-01T01:15:23Z</time>
  <course>0.0</course>
  <speed>0.0</speed>
  <fix>3d</fix>
</trkpt>
<trkpt lat="33.810313" lon="-118.393867">
  <ele>0.0</ele>
  <time>2026-09-01T01:15:23Z</time>
  <course>186.46</course>
  <speed>0.0</speed>
  <fix>3d</fix>
</trkpt>
<trkpt lat="33.810313" lon="-118.393867">
  <ele>-0.12</ele>
  <time>2026-09-01T01:15:23Z</time>
  <course>0.0</course>
  <speed>0.0</speed>
  <fix>3d</fix>
</trkpt>
<trkpt lat="33.810313" lon="-118.393867">
  <ele>0.0</ele>
  <time>2026-09-01T01:15:23Z</time>
  <course>186.57</course>
  <speed>0.0</speed>
  <fix>3d</fix>
</trkpt>
<trkpt lat="33.810313" lon="-118.393867">
  <ele>-0.12</ele>
  <time>2026-09-01T01:15:23Z</time>
  <course>0.0</course>
  <speed>0.0</speed>
  <fix>3d</fix>
</trkpt>
<trkpt lat="33.810313" lon="-118.393867">
  <ele>0.0</ele>
  <time>2026-09-01T01:15:23Z</time>
  <course>186.68</course>
  <speed>0.0</speed>
  <fix>3d</fix>
</trkpt>
<trkpt lat="33.810313" lon="-118.393867">
  <ele>-0.12</ele>
  <time>2026-09-01T01:15:23Z</time>
  <course>0.0</course>
  <speed>0.0</speed>
  <fix>3d</fix>
</trkpt>
<trkpt lat="33.810313" lon="-118.393867">
  <ele>0.0</ele>
  <time>2026-09-01T01:15:23Z</time>
  <course>186.78</course>
  <speed>0.0</speed>
  <fix>3d</fix>
</trkpt>
<trkpt lat="33.810313" lon="-118.393867">
  <ele>-0.12</ele>
  <time>2026-09-01T01:15:23Z</time>
  <course>0.0</course>
  <speed>0.0</speed>
  <fix>3d</fix>
</trkpt>
<trkpt lat="33.810313" lon="-118.393867">
  <ele>0.0</ele>
  <time>2026-09-01T01:15:23Z</time>
  <course>186.88</course>
  <speed>0.0</speed>
  <fix>3d</fix>
</trkpt>
<trkpt lat="33.810313" lon="-118.393867">
  <ele>-0.12</ele>
  <time>2026-09-01T01:15:23Z</time>
  <course>0.0</course>
  <speed>0.0</speed>
  <fix>3d</fix>
</trkpt>
<trkpt lat="33.810313" lon="-118.393867">
  <ele>0.0</ele>
  <time>2026-09-01T01:15:23Z</time>
  <course>186.97</course>
  <speed>0.0</speed>
  <fix>3d</fix>
</trkpt>
<trkpt lat="33.810313" lon="-118.393867">
  <ele>-0.12</ele>
  <time>2026-09-01T01:15:23Z</time>
  <course>0.0</course>
  <speed>0.0</speed>
  <fix>3d</fix>
</trkpt>
<trkpt lat="33.810313" lon="-118.393867">
  <ele>0.0</ele>
  <time>2026-09-01T01:15:23Z</time>
  <course>187.06</course>
  <speed>0.0</speed>
  <fix>3d</fix>
</trkpt>
<trkpt lat="33.810313" lon="-118.393867">
  <ele>-0.13</ele>
  <time>2026-09-01T01:15:23Z</time>
  <course>0.0</course>
  <speed>0.0</speed>
  <fix>3d</fix>
</trkpt>
<trkpt lat="33.810313" lon="-118.393867">
  <ele>0.0</ele>
  <time>2026-09-01T01:15:23Z</time>
  <course>187.14</course>
  <speed>0.0</speed>
  <fix>3d</fix>
</trkpt>
<trkpt lat="33.810313" lon="-118.393867">
  <ele>-0.13</ele>
  <time>2026-09-01T01:15:23Z</time>
  <course>0.0</course>
  <speed>0.0</speed>
  <fix>3d</fix>
</trkpt>
<trkpt lat="33.810313" lon="-118.393867">
  <ele>0.0</ele>
  <time>2026-09-01T01:15:23Z</time>
  <course>187.22</course>
  <speed>0.0</speed>
  <fix>3d</fix>
</trkpt>
<trkpt lat="33.810313" lon="-118.393867">
  <ele>-0.13</ele>
  <time>2026-09-01T01:15:23Z</time>
  <course>0.0</course>
  <speed>0.0</speed>
  <fix>3d</fix>
</trkpt>
<trkpt lat="33.810313" lon="-118.393867">
  <ele>0.0</ele>
  <time>2026-09-01T01:15:23Z</time>
  <course>187.3</course>
  <speed>0.0</speed>
  <fix>3d</fix>
</trkpt>
<trkpt lat="33.810313" lon="-118.393867">
  <ele>-0.13</ele>
  <time>2026-09-01T01:15:23Z</time>
  <course>0.0</course>
  <speed>0.0</speed>
  <fix>3d</fix>
</trkpt>
<trkpt lat="33.810313" lon="-118.393867">
  <ele>0.0</ele>
  <time>2026-09-01T01:15:23Z</time>
  <course>187.37</course>
  <speed>0.0</speed>
  <fix>3d</fix>
</trkpt>
<trkpt lat="33.810313" lon="-118.393867">
  <ele>-0.13</ele>
  <time>2026-09-01T01:15:23Z</time>
  <course>0.0</course>
  <speed>0.0</speed>
  <fix>3d</fix>
</trkpt>
<trkpt lat="33.810313" lon="-118.393867">
  <ele>0.0</ele>
  <time>2026-09-01T01:15:23Z</time>
  <course>187.44</course>
  <speed>0.0</speed>
  <fix>3d</fix>
</trkpt>
<trkpt lat="33.810313" lon="-118.393867">
  <ele>-0.13</ele>
  <time>2026-09-01T01:15:23Z</time>
  <course>0.0</course>
  <speed>0.0</speed>
  <fix>3d</fix>
</trkpt>
<trkpt lat="33.810313" lon="-118.393867">
  <ele>0.0</ele>
  <time>2026-09-01T01:15:23Z</time>
  <course>187.51</course>
  <speed>0.0</speed>
  <fix>3d</fix>
</trkpt>
<trkpt lat="33.810313" lon="-118.393867">
  <ele>-0.13</ele>
  <time>2026-09-01T01:15:23Z</time>
  <course>0.0</course>
  <speed>0.0</speed>
  <fix>3d</fix>
</trkpt>
<trkpt lat="33.810313" lon="-118.393867">
  <ele>0.0</ele>
  <time>2026-09-01T01:15:23Z</time>
  <course>187.57</course>
  <speed>0.0</speed>
  <fix>3d</fix>
</trkpt>
<trkpt lat="33.810313" lon="-118.393867">
  <ele>-0.13</ele>
  <time>2026-09-01T01:15:23Z</time>
  <course>0.0</course>
  <speed>0.0</speed>
  <fix>3d</fix>
</trkpt>
<trkpt lat="33.810313" lon="-118.393867">
  <ele>0.0</ele>
  <time>2026-09-01T01:15:23Z</time>
  <course>187.63</course>
  <speed>0.0</speed>
  <fix>3d</fix>
</trkpt>
<trkpt lat="33.810313" lon="-118.393867">
  <ele>-0.12</ele>
  <time>2026-09-01T01:15:23Z</time>
  <course>0.0</course>
  <speed>0.0</speed>
  <fix>3d</fix>
</trkpt>
<trkpt lat="33.810313" lon="-118.393867">
  <ele>0.0</ele>
  <time>2026-09-01T01:15:23Z</time>
  <course>187.69</course>
  <speed>0.0</speed>
  <fix>3d</fix>
</trkpt>
<trkpt lat="33.810313" lon="-118.393867">
  <ele>-0.12</ele>
  <time>2026-09-01T01:15:23Z</time>
  <course>0.0</course>
  <speed>0.0</speed>
  <fix>3d</fix>
</trkpt>
<trkpt lat="33.810313" lon="-118.393867">
  <ele>0.0</ele>
  <time>2026-09-01T01:15:23Z</time>
  <course>187.74</course>
  <speed>0.0</speed>
  <fix>3d</fix>
</trkpt>
<trkpt lat="33.810313" lon="-118.393867">
  <ele>-0.12</ele>
  <time>2026-09-01T01:15:23Z</time>
  <course>0.0</course>
  <speed>0.0</speed>
  <fix>3d</fix>
</trkpt>
<trkpt lat="33.810313" lon="-118.393867">
  <ele>0.0</ele>
  <time>2026-09-01T01:15:23Z</time>
  <course>187.79</course>
  <speed>0.0</speed>
  <fix>3d</fix>
</trkpt>
<trkpt lat="33.810313" lon="-118.393867">
  <ele>-0.12</ele>
  <time>2026-09-01T01:15:23Z</time>
  <course>0.0</course>
  <speed>0.0</speed>
  <fix>3d</fix>
</trkpt>
<trkpt lat="33.810313" lon="-118.393867">
  <ele>0.0</ele>
  <time>2026-09-01T01:15:23Z</time>
  <course>187.84</course>
  <speed>0.0</speed>
  <fix>3d</fix>
</trkpt>
<trkpt lat="33.810313" lon="-118.393867">
  <ele>-0.12</ele>
  <time>2026-09-01T01:15:23Z</time>
  <course>0.0</course>
  <speed>0.0</speed>
  <fix>3d</fix>
</trkpt>
<trkpt lat="33.810313" lon="-118.393867">
  <ele>0.0</ele>
  <time>2026-09-01T01:15:23Z</time>
  <course>187.89</course>
  <speed>0.0</speed>
  <fix>3d</fix>
</trkpt>
<trkpt lat="33.810313" lon="-118.393867">
  <ele>-0.12</ele>
  <time>2026-09-01T01:15:23Z</time>
  <course>0.0</course>
  <speed>0.0</speed>
  <fix>3d</fix>
</trkpt>
<trkpt lat="33.810313" lon="-118.393867">
  <ele>0.0</ele>
  <time>2026-09-01T01:15:23Z</time>
  <course>187.93</course>
  <speed>0.0</speed>
  <fix>3d</fix>
</trkpt>
<trkpt lat="33.810313" lon="-118.393867">
  <ele>-0.12</ele>
  <time>2026-09-01T01:15:23Z</time>
  <course>0.0</course>
  <speed>0.0</speed>
  <fix>3d</fix>
</trkpt>
<trkpt lat="33.810313" lon="-118.393867">
  <ele>0.0</ele>
  <time>2026-09-01T01:15:23Z</time>
  <course>187.98</course>
  <speed>0.0</speed>
  <fix>3d</fix>
</trkpt>
<trkpt lat="33.810313" lon="-118.393867">
  <ele>-0.12</ele>
  <time>2026-09-01T01:15:23Z</time>
  <course>0.0</course>
  <speed>0.0</speed>
  <fix>3d</fix>
</trkpt>
<trkpt lat="33.810313" lon="-118.393867">
  <ele>0.0</ele>
  <time>2026-09-01T01:15:23Z</time>
  <course>188.02</course>
  <speed>0.0</speed>
  <fix>3d</fix>
</trkpt>
<trkpt lat="33.810313" lon="-118.393867">
  <ele>-0.12</ele>
  <time>2026-09-01T01:15:23Z</time>
  <course>0.0</course>
  <speed>0.0</speed>
  <fix>3d</fix>
</trkpt>
<trkpt lat="33.810313" lon="-118.393867">
  <ele>0.0</ele>
  <time>2026-09-01T01:15:23Z</time>
  <course>188.05</course>
  <speed>0.0</speed>
  <fix>3d</fix>
</trkpt>
<trkpt lat="33.810313" lon="-118.393867">
  <ele>-0.12</ele>
  <time>2026-09-01T01:15:23Z</time>
  <course>0.0</course>
  <speed>0.0</speed>
  <fix>3d</fix>
</trkpt>
<trkpt lat="33.810313" lon="-118.393867">
  <ele>0.0</ele>
  <time>2026-09-01T01:15:23Z</time>
  <course>188.09</course>
  <speed>0.0</speed>
  <fix>3d</fix>
</trkpt>
<trkpt lat="33.810313" lon="-118.393867">
  <ele>-0.13</ele>
  <time>2026-09-01T01:15:23Z</time>
  <course>0.0</course>
  <speed>0.0</speed>
  <fix>3d</fix>
</trkpt>
<trkpt lat="33.810313" lon="-118.393867">
  <ele>0.0</ele>
  <time>2026-09-01T01:15:23Z</time>
  <course>188.12</course>
  <speed>0.0</speed>
  <fix>3d</fix>
</trkpt>
<trkpt lat="33.810313" lon="-118.393867">
  <ele>-0.13</ele>
  <time>2026-09-01T01:15:23Z</time>
  <course>0.0</course>
  <speed>0.0</speed>
  <fix>3d</fix>
</trkpt>
<trkpt lat="33.810313" lon="-118.393867">
  <ele>0.0</ele>
  <time>2026-09-01T01:15:23Z</time>
  <course>188.16</course>
  <speed>0.0</speed>
  <fix>3d</fix>
</trkpt>
<trkpt lat="33.810313" lon="-118.393867">
  <ele>-0.13</ele>
  <time>2026-09-01T01:15:23Z</time>
  <course>0.0</course>
  <speed>0.0</speed>
  <fix>3d</fix>
</trkpt>
<trkpt lat="33.810313" lon="-118.393867">
  <ele>0.0</ele>
  <time>2026-09-01T01:15:23Z</time>
  <course>188.18</course>
  <speed>0.0</speed>
  <fix>3d</fix>
</trkpt>
<trkpt lat="33.810313" lon="-118.393867">
  <ele>-0.13</ele>
  <time>2026-09-01T01:15:23Z</time>
  <course>0.0</course>
  <speed>0.0</speed>
  <fix>3d</fix>
</trkpt>
<trkpt lat="33.810313" lon="-118.393867">
  <ele>0.0</ele>
  <time>2026-09-01T01:15:23Z</time>
  <course>188.21</course>
  <speed>0.0</speed>
  <fix>3d</fix>
</trkpt>
<trkpt lat="33.810313" lon="-118.393867">
  <ele>-0.13</ele>
  <time>2026-09-01T01:15:23Z</time>
  <course>0.0</course>
  <speed>0.0</speed>
  <fix>3d</fix>
</trkpt>
<trkpt lat="33.810313" lon="-118.393867">
  <ele>0.0</ele>
  <time>2026-09-01T01:15:23Z</time>
  <course>188.24</course>
  <speed>0.0</speed>
  <fix>3d</fix>
</trkpt>
<trkpt lat="33.810313" lon="-118.393867">
  <ele>-0.13</ele>
  <time>2026-09-01T01:15:23Z</time>
  <course>0.0</course>
  <speed>0.0</speed>
  <fix>3d</fix>
</trkpt>
<trkpt lat="33.810313" lon="-118.393867">
  <ele>0.0</ele>
  <time>2026-09-01T01:15:23Z</time>
  <course>188.26</course>
  <speed>0.0</speed>
  <fix>3d</fix>
</trkpt>
<trkpt lat="33.810313" lon="-118.393867">
  <ele>-0.12</ele>
  <time>2026-09-01T01:15:23Z</time>
  <course>0.0</course>
  <speed>0.0</speed>
  <fix>3d</fix>
</trkpt>
<trkpt lat="33.810313" lon="-118.393867">
  <ele>0.0</ele>
  <time>2026-09-01T01:15:23Z</time>
  <course>188.29</course>
  <speed>0.0</speed>
  <fix>3d</fix>
</trkpt>
<trkpt lat="33.810313" lon="-118.393867">
  <ele>-0.12</ele>
  <time>2026-09-01T01:15:23Z</time>
  <course>0.0</course>
  <speed>0.0</speed>
  <fix>3d</fix>
</trkpt>
<trkpt lat="33.810313" lon="-118.393867">
  <ele>0.0</ele>
  <time>2026-09-01T01:15:23Z</time>
  <course>188.31</course>
  <speed>0.0</speed>
  <fix>3d</fix>
</trkpt>
<trkpt lat="33.810313" lon="-118.393867">
  <ele>-0.12</ele>
  <time>2026-09-01T01:15:23Z</time>
  <course>0.0</course>
  <speed>0.0</speed>
  <fix>3d</fix>
</trkpt>
<trkpt lat="33.810313" lon="-118.393867">
  <ele>0.0</ele>
  <time>2026-09-01T01:15:23Z</time>
  <course>188.33</course>
  <speed>0.0</speed>
  <fix>3d</fix>
</trkpt>
<trkpt lat="33.810313" lon="-118.393867">
  <ele>-0.12</ele>
  <time>2026-09-01T01:15:23Z</time>
  <course>0.0</course>
  <speed>0.0</speed>
  <fix>3d</fix>
</trkpt>
<trkpt lat="33.810313" lon="-118.393867">
  <ele>0.0</ele>
  <time>2026-09-01T01:15:23Z</time>
  <course>188.35</course>
  <speed>0.0</speed>
  <fix>3d</fix>
</trkpt>
<trkpt lat="33.810313" lon="-118.393867">
  <ele>-0.12</ele>
  <time>2026-09-01T01:15:23Z</time>
  <course>0.0</course>
  <speed>0.0</speed>
  <fix>3d</fix>
</trkpt>
<trkpt lat="33.810313" lon="-118.393867">
  <ele>0.0</ele>
  <time>2026-09-01T01:15:23Z</time>
  <course>188.37</course>
  <speed>0.0</speed>
  <fix>3d</fix>
</trkpt>
<trkpt lat="33.810313" lon="-118.393867">
  <ele>-0.12</ele>
  <time>2026-09-01T01:15:23Z</time>
  <course>0.0</course>
  <speed>0.0</speed>
  <fix>3d</fix>
</trkpt>
<trkpt lat="33.810313" lon="-118.393867">
  <ele>0.0</ele>
  <time>2026-09-01T01:15:23Z</time>
  <course>188.39</course>
  <speed>0.0</speed>
  <fix>3d</fix>
</trkpt>
<trkpt lat="33.810313" lon="-118.393867">
  <ele>-0.12</ele>
  <time>2026-09-01T01:15:23Z</time>
  <course>0.0</course>
  <speed>0.0</speed>
  <fix>3d</fix>
</trkpt>
<trkpt lat="33.810313" lon="-118.393867">
  <ele>0.0</ele>
  <time>2026-09-01T01:15:23Z</time>
  <course>188.41</course>
  <speed>0.0</speed>
  <fix>3d</fix>
</trkpt>
<trkpt lat="33.810313" lon="-118.393867">
  <ele>-0.12</ele>
  <time>2026-09-01T01:15:23Z</time>
  <course>0.0</course>
  <speed>0.0</speed>
  <fix>3d</fix>
</trkpt>
<trkpt lat="33.810313" lon="-118.393867">
  <ele>0.0</ele>
  <time>2026-09-01T01:15:23Z</time>
  <course>188.43</course>
  <speed>0.0</speed>
  <fix>3d</fix>
</trkpt>
<trkpt lat="33.810313" lon="-118.393867">
  <ele>-0.12</ele>
  <time>2026-09-01T01:15:23Z</time>
  <course>0.0</course>
  <speed>0.0</speed>
  <fix>3d</fix>
</trkpt>
<trkpt lat="33.810313" lon="-118.393867">
  <ele>0.0</ele>
  <time>2026-09-01T01:15:23Z</time>
  <course>188.45</course>
  <speed>0.0</speed>
  <fix>3d</fix>
</trkpt>
<trkpt lat="33.810313" lon="-118.393867">
  <ele>-0.12</ele>
  <time>2026-09-01T01:15:23Z</time>
  <course>0.0</course>
  <speed>0.0</speed>
  <fix>3d</fix>
</trkpt>
<trkpt lat="33.810313" lon="-118.393867">
  <ele>0.0</ele>
  <time>2026-09-01T01:15:23Z</time>
  <course>188.46</course>
  <speed>0.0</speed>
  <fix>3d</fix>
</trkpt>
<trkpt lat="33.810313" lon="-118.393867">
  <ele>-0.13</ele>
  <time>2026-09-01T01:15:23Z</time>
  <course>0.0</course>
  <speed>0.0</speed>
  <fix>3d</fix>
</trkpt>
<trkpt lat="33.810313" lon="-118.393867">
  <ele>0.0</ele>
  <time>2026-09-01T01:15:23Z</time>
  <course>188.47</course>
  <speed>0.0</speed>
  <fix>3d</fix>
</trkpt>
<trkpt lat="33.810313" lon="-118.393867">
  <ele>-0.13</ele>
  <time>2026-09-01T01:15:23Z</time>
  <course>0.0</course>
  <speed>0.0</speed>
  <fix>3d</fix>
</trkpt>
<trkpt lat="33.810313" lon="-118.393867">
  <ele>0.0</ele>
  <time>2026-09-01T01:15:23Z</time>
  <course>188.48</course>
  <speed>0.0</speed>
  <fix>3d</fix>
</trkpt>
<trkpt lat="33.810313" lon="-118.393867">
  <ele>-0.13</ele>
  <time>2026-09-01T01:15:23Z</time>
  <course>0.0</course>
  <speed>0.0</speed>
  <fix>3d</fix>
</trkpt>
<trkpt lat="33.810313" lon="-118.393867">
  <ele>0.0</ele>
  <time>2026-09-01T01:15:23Z</time>
  <course>188.49</course>
  <speed>0.0</speed>
  <fix>3d</fix>
</trkpt>
<trkpt lat="33.810313" lon="-118.393867">
  <ele>-0.13</ele>
  <time>2026-09-01T01:15:23Z</time>
  <course>0.0</course>
  <speed>0.0</speed>
  <fix>3d</fix>
</trkpt>
<trkpt lat="33.810313" lon="-118.393867">
  <ele>0.0</ele>
  <time>2026-09-01T01:15:23Z</time>
  <course>188.5</course>
  <speed>0.0</speed>
  <fix>3d</fix>
</trkpt>
<trkpt lat="33.810313" lon="-118.393867">
  <ele>-0.13</ele>
  <time>2026-09-01T01:15:23Z</time>
  <course>0.0</course>
  <speed>0.0</speed>
  <fix>3d</fix>
</trkpt>
<trkpt lat="33.810313" lon="-118.393867">
  <ele>0.0</ele>
  <time>2026-09-01T01:15:23Z</time>
  <course>188.51</course>
  <speed>0.0</speed>
  <fix>3d</fix>
</trkpt>
<trkpt lat="33.810313" lon="-118.393867">
  <ele>-0.13</ele>
  <time>2026-09-01T01:15:23Z</time>
  <course>0.0</course>
  <speed>0.0</speed>
  <fix>3d</fix>
</trkpt>
<trkpt lat="33.810313" lon="-118.393867">
  <ele>0.0</ele>
  <time>2026-09-01T01:15:23Z</time>
  <course>188.52</course>
  <speed>0.0</speed>
  <fix>3d</fix>
</trkpt>
<trkpt lat="33.810313" lon="-118.393867">
  <ele>-0.12</ele>
  <time>2026-09-01T01:15:23Z</time>
  <course>0.0</course>
  <speed>0.0</speed>
  <fix>3d</fix>
</trkpt>
<trkpt lat="33.810313" lon="-118.393867">
  <ele>0.0</ele>
  <time>2026-09-01T01:15:23Z</time>
  <course>188.53</course>
  <speed>0.0</speed>
  <fix>3d</fix>
</trkpt>
<trkpt lat="33.810313" lon="-118.393867">
  <ele>-0.12</ele>
  <time>2026-09-01T01:15:23Z</time>
  <course>0.0</course>
  <speed>0.0</speed>
  <fix>3d</fix>
</trkpt>
<trkpt lat="33.810313" lon="-118.393867">
  <ele>0.0</ele>
  <time>2026-09-01T01:15:23Z</time>
  <course>188.53</course>
  <speed>0.0</speed>
  <fix>3d</fix>
</trkpt>
<trkpt lat="33.810313" lon="-118.393867">
  <ele>-0.12</ele>
  <time>2026-09-01T01:15:23Z</time>
  <course>0.0</course>
  <speed>0.0</speed>
  <fix>3d</fix>
</trkpt>
<trkpt lat="33.810313" lon="-118.393867">
  <ele>0.0</ele>
  <time>2026-09-01T01:15:23Z</time>
  <course>188.54</course>
  <speed>0.0</speed>
  <fix>3d</fix>
</trkpt>
<trkpt lat="33.810313" lon="-118.393867">
  <ele>-0.12</ele>
  <time>2026-09-01T01:15:23Z</time>
  <course>0.0</course>
  <speed>0.0</speed>
  <fix>3d</fix>
</trkpt>
<trkpt lat="33.810313" lon="-118.393867">
  <ele>0.0</ele>
  <time>2026-09-01T01:15:23Z</time>
  <course>188.54</course>
  <speed>0.0</speed>
  <fix>3d</fix>
</trkpt>
<trkpt lat="33.810313" lon="-118.393867">
  <ele>-0.12</ele>
  <time>2026-09-01T01:15:23Z</time>
  <course>0.0</course>
  <speed>0.0</speed>
  <fix>3d</fix>
</trkpt>
<trkpt lat="33.810313" lon="-118.393867">
  <ele>0.0</ele>
  <time>2026-09-01T01:15:23Z</time>
  <course>188.55</course>
  <speed>0.0</speed>
  <fix>3d</fix>
</trkpt>
<trkpt lat="33.810313" lon="-118.393867">
  <ele>-0.12</ele>
  <time>2026-09-01T01:15:23Z</time>
  <course>0.0</course>
  <speed>0.0</speed>
  <fix>3d</fix>
</trkpt>
<trkpt lat="33.810313" lon="-118.393867">
  <ele>0.0</ele>
  <time>2026-09-01T01:15:23Z</time>
  <course>188.55</course>
  <speed>0.0</speed>
  <fix>3d</fix>
</trkpt>
<trkpt lat="33.810313" lon="-118.393867">
  <ele>-0.12</ele>
  <time>2026-09-01T01:15:23Z</time>
  <course>0.0</course>
  <speed>0.0</speed>
  <fix>3d</fix>
</trkpt>
<trkpt lat="33.810313" lon="-118.393867">
  <ele>0.0</ele>
  <time>2026-09-01T01:15:23Z</time>
  <course>188.55</course>
  <speed>0.0</speed>
  <fix>3d</fix>
</trkpt>
<trkpt lat="33.810313" lon="-118.393867">
  <ele>-0.12</ele>
  <time>2026-09-01T01:15:23Z</time>
  <course>0.0</course>
  <speed>0.0</speed>
  <fix>3d</fix>
</trkpt>
<trkpt lat="33.810313" lon="-118.393867">
  <ele>0.0</ele>
  <time>2026-09-01T01:15:23Z</time>
  <course>188.56</course>
  <speed>0.0</speed>
  <fix>3d</fix>
</trkpt>
<trkpt lat="33.810313" lon="-118.393867">
  <ele>-0.12</ele>
  <time>2026-09-01T01:15:23Z</time>
  <course>0.0</course>
  <speed>0.0</speed>
  <fix>3d</fix>
</trkpt>
<trkpt lat="33.810313" lon="-118.393867">
  <ele>0.0</ele>
  <time>2026-09-01T01:15:23Z</time>
  <course>188.56</course>
  <speed>0.0</speed>
  <fix>3d</fix>
</trkpt>
<trkpt lat="33.810313" lon="-118.393867">
  <ele>-0.12</ele>
  <time>2026-09-01T01:15:23Z</time>
  <course>0.0</course>
  <speed>0.0</speed>
  <fix>3d</fix>
</trkpt>
<trkpt lat="33.810313" lon="-118.393867">
  <ele>0.0</ele>
  <time>2026-09-01T01:15:23Z</time>
  <course>188.56</course>
  <speed>0.0</speed>
  <fix>3d</fix>
</trkpt>
<trkpt lat="33.810313" lon="-118.393867">
  <ele>-0.13</ele>
  <time>2026-09-01T01:15:23Z</time>
  <course>0.0</course>
  <speed>0.0</speed>
  <fix>3d</fix>
</trkpt>
<trkpt lat="33.810313" lon="-118.393867">
  <ele>0.0</ele>
  <time>2026-09-01T01:15:23Z</time>
  <course>188.56</course>
  <speed>0.0</speed>
  <fix>3d</fix>
</trkpt>
<trkpt lat="33.810313" lon="-118.393867">
  <ele>-0.13</ele>
  <time>2026-09-01T01:15:23Z</time>
  <course>0.0</course>
  <speed>0.0</speed>
  <fix>3d</fix>
</trkpt>
<trkpt lat="33.810313" lon="-118.393867">
  <ele>-0.123</ele>
  <time>2026-09-01T01:15:23Z</time>
  <course>188.56</course>
  <speed>0.0</speed>
  <fix>3d</fix>
</trkpt>
<trkpt lat="33.810313" lon="-118.393867">
  <ele>-0.13</ele>
  <time>2026-09-01T01:15:23Z</time>
  <course>0.0</course>
  <speed>0.0</speed>
  <fix>3d</fix>
</trkpt>
<trkpt lat="33.810313" lon="-118.393867">
  <ele>-0.121</ele>
  <time>2026-09-01T01:15:23Z</time>
  <course>188.56</course>
  <speed>0.0</speed>
  <fix>3d</fix>
</trkpt>
<trkpt lat="33.810313" lon="-118.393867">
  <ele>-0.13</ele>
  <time>2026-09-01T01:15:23Z</time>
  <course>0.0</course>
  <speed>0.0</speed>
  <fix>3d</fix>
</trkpt>
<trkpt lat="33.810313" lon="-118.393867">
  <ele>-0.118</ele>
  <time>2026-09-01T01:15:23Z</time>
  <course>188.56</course>
  <speed>0.0</speed>
  <fix>3d</fix>
</trkpt>
<trkpt lat="33.810313" lon="-118.393867">
  <ele>-0.12</ele>
  <time>2026-09-01T01:15:23Z</time>
  <course>0.0</course>
  <speed>0.0</speed>
  <fix>3d</fix>
</trkpt>
<trkpt lat="33.810313" lon="-118.393867">
  <ele>-0.115</ele>
  <time>2026-09-01T01:15:23Z</time>
  <course>188.56</course>
  <speed>0.0</speed>
  <fix>3d</fix>
</trkpt>
<trkpt lat="33.810313" lon="-118.393867">
  <ele>-0.12</ele>
  <time>2026-09-01T01:15:23Z</time>
  <course>0.0</course>
  <speed>0.0</speed>
  <fix>3d</fix>
</trkpt>
<trkpt lat="33.810313" lon="-118.393867">
  <ele>-0.113</ele>
  <time>2026-09-01T01:15:23Z</time>
  <course>188.56</course>
  <speed>0.0</speed>
  <fix>3d</fix>
</trkpt>
<trkpt lat="33.810313" lon="-118.393867">
  <ele>-0.12</ele>
  <time>2026-09-01T01:15:23Z</time>
  <course>0.0</course>
  <speed>0.0</speed>
  <fix>3d</fix>
</trkpt>
<trkpt lat="33.810313" lon="-118.393867">
  <ele>-0.113</ele>
  <time>2026-09-01T01:15:23Z</time>
  <course>188.56</course>
  <speed>0.0</speed>
  <fix>3d</fix>
</trkpt>
<trkpt lat="33.810313" lon="-118.393867">
  <ele>-0.12</ele>
  <time>2026-09-01T01:15:23Z</time>
  <course>0.0</course>
  <speed>0.0</speed>
  <fix>3d</fix>
</trkpt>
<trkpt lat="33.810313" lon="-118.393867">
  <ele>-0.114</ele>
  <time>2026-09-01T01:15:23Z</time>
  <course>188.56</course>
  <speed>0.0</speed>
  <fix>3d</fix>
</trkpt>
<trkpt lat="33.810313" lon="-118.393867">
  <ele>-0.12</ele>
  <time>2026-09-01T01:15:23Z</time>
  <course>0.0</course>
  <speed>0.0</speed>
  <fix>3d</fix>
</trkpt>
<trkpt lat="33.810313" lon="-118.393867">
  <ele>-0.117</ele>
  <time>2026-09-01T01:15:23Z</time>
  <course>188.56</course>
  <speed>0.0</speed>
  <fix>3d</fix>
</trkpt>
<trkpt lat="33.810313" lon="-118.393867">
  <ele>-0.12</ele>
  <time>2026-09-01T01:15:23Z</time>
  <course>0.0</course>
  <speed>0.0</speed>
  <fix>3d</fix>
</trkpt>
<trkpt lat="33.810313" lon="-118.393867">
  <ele>-0.12</ele>
  <time>2026-09-01T01:15:23Z</time>
  <course>188.56</course>
  <speed>0.0</speed>
  <fix>3d</fix>
</trkpt>
<trkpt lat="33.810313" lon="-118.393867">
  <ele>-0.12</ele>
  <time>2026-09-01T01:15:23Z</time>
  <course>0.0</course>
  <speed>0.0</speed>
  <fix>3d</fix>
</trkpt>
<trkpt lat="33.810313" lon="-118.393867">
  <ele>-0.123</ele>
  <time>2026-09-01T01:15:23Z</time>
  <course>188.55</course>
  <speed>0.0</speed>
  <fix>3d</fix>
</trkpt>
<trkpt lat="33.810313" lon="-118.393867">
  <ele>-0.12</ele>
  <time>2026-09-01T01:15:23Z</time>
  <course>0.0</course>
  <speed>0.0</speed>
  <fix>3d</fix>
</trkpt>
<trkpt lat="33.810313" lon="-118.393867">
  <ele>-0.125</ele>
  <time>2026-09-01T01:15:23Z</time>
  <course>188.55</course>
  <speed>0.0</speed>
  <fix>3d</fix>
</trkpt>
<trkpt lat="33.810313" lon="-118.393867">
  <ele>-0.12</ele>
  <time>2026-09-01T01:15:23Z</time>
  <course>0.0</course>
  <speed>0.0</speed>
  <fix>3d</fix>
</trkpt>
<trkpt lat="33.810313" lon="-118.393867">
  <ele>-0.125</ele>
  <time>2026-09-01T01:15:23Z</time>
  <course>188.55</course>
  <speed>0.0</speed>
  <fix>3d</fix>
</trkpt>
<trkpt lat="33.810313" lon="-118.393867">
  <ele>-0.12</ele>
  <time>2026-09-01T01:15:23Z</time>
  <course>0.0</course>
  <speed>0.0</speed>
  <fix>3d</fix>
</trkpt>
<trkpt lat="33.810313" lon="-118.393867">
  <ele>-0.125</ele>
  <time>2026-09-01T01:15:23Z</time>
  <course>188.54</course>
  <speed>0.0</speed>
  <fix>3d</fix>
</trkpt>
<trkpt lat="33.810313" lon="-118.393867">
  <ele>-0.12</ele>
  <time>2026-09-01T01:15:23Z</time>
  <course>0.0</course>
  <speed>0.0</speed>
  <fix>3d</fix>
</trkpt>
<trkpt lat="33.810313" lon="-118.393867">
  <ele>-0.125</ele>
  <time>2026-09-01T01:15:23Z</time>
  <course>188.54</course>
  <speed>0.0</speed>
  <fix>3d</fix>
</trkpt>
<trkpt lat="33.810313" lon="-118.393867">
  <ele>-0.12</ele>
  <time>2026-09-01T01:15:23Z</time>
  <course>0.0</course>
  <speed>0.0</speed>
  <fix>3d</fix>
</trkpt>
<trkpt lat="33.810313" lon="-118.393867">
  <ele>-0.125</ele>
  <time>2026-09-01T01:15:23Z</time>
  <course>188.54</course>
  <speed>0.0</speed>
  <fix>3d</fix>
</trkpt>
<trkpt lat="33.810313" lon="-118.393867">
  <ele>-0.13</ele>
  <time>2026-09-01T01:15:23Z</time>
  <course>0.0</course>
  <speed>0.0</speed>
  <fix>3d</fix>
</trkpt>
<trkpt lat="33.810313" lon="-118.393867">
  <ele>-0.124</ele>
  <time>2026-09-01T01:15:23Z</time>
  <course>188.53</course>
  <speed>0.0</speed>
  <fix>3d</fix>
</trkpt>
<trkpt lat="33.810313" lon="-118.393867">
  <ele>-0.13</ele>
  <time>2026-09-01T01:15:23Z</time>
  <course>0.0</course>
  <speed>0.0</speed>
  <fix>3d</fix>
</trkpt>
<trkpt lat="33.810313" lon="-118.393867">
  <ele>-0.122</ele>
  <time>2026-09-01T01:15:23Z</time>
  <course>188.53</course>
  <speed>0.0</speed>
  <fix>3d</fix>
</trkpt>
<trkpt lat="33.810313" lon="-118.393867">
  <ele>-0.12</ele>
  <time>2026-09-01T01:15:23Z</time>
  <course>0.0</course>
  <speed>0.0</speed>
  <fix>3d</fix>
</trkpt>
<trkpt lat="33.810313" lon="-118.393867">
  <ele>-0.118</ele>
  <time>2026-09-01T01:15:23Z</time>
  <course>188.52</course>
  <speed>0.0</speed>
  <fix>3d</fix>
</trkpt>
<trkpt lat="33.810313" lon="-118.393867">
  <ele>-0.12</ele>
  <time>2026-09-01T01:15:23Z</time>
  <course>0.0</course>
  <speed>0.0</speed>
  <fix>3d</fix>
</trkpt>
<trkpt lat="33.810313" lon="-118.393867">
  <ele>-0.116</ele>
  <time>2026-09-01T01:15:23Z</time>
  <course>188.52</course>
  <speed>0.0</speed>
  <fix>3d</fix>
</trkpt>
<trkpt lat="33.810313" lon="-118.393867">
  <ele>-0.12</ele>
  <time>2026-09-01T01:15:23Z</time>
  <course>0.0</course>
  <speed>0.0</speed>
  <fix>3d</fix>
</trkpt>
<trkpt lat="33.810313" lon="-118.393867">
  <ele>-0.115</ele>
  <time>2026-09-01T01:15:23Z</time>
  <course>188.51</course>
  <speed>0.0</speed>
  <fix>3d</fix>
</trkpt>
<trkpt lat="33.810313" lon="-118.393867">
  <ele>-0.12</ele>
  <time>2026-09-01T01:15:23Z</time>
  <course>0.0</course>
  <speed>0.0</speed>
  <fix>3d</fix>
</trkpt>
<trkpt lat="33.810313" lon="-118.393867">
  <ele>-0.116</ele>
  <time>2026-09-01T01:15:23Z</time>
  <course>188.51</course>
  <speed>0.0</speed>
  <fix>3d</fix>
</trkpt>
<trkpt lat="33.810313" lon="-118.393867">
  <ele>-0.12</ele>
  <time>2026-09-01T01:15:23Z</time>
  <course>0.0</course>
  <speed>0.0</speed>
  <fix>3d</fix>
</trkpt>
<trkpt lat="33.810313" lon="-118.393867">
  <ele>-0.118</ele>
  <time>2026-09-01T01:15:23Z</time>
  <course>188.5</course>
  <speed>0.0</speed>
  <fix>3d</fix>
</trkpt>
<trkpt lat="33.810313" lon="-118.393867">
  <ele>-0.12</ele>
  <time>2026-09-01T01:15:23Z</time>
  <course>0.0</course>
  <speed>0.0</speed>
  <fix>3d</fix>
</trkpt>
<trkpt lat="33.810313" lon="-118.393867">
  <ele>-0.12</ele>
  <time>2026-09-01T01:15:23Z</time>
  <course>188.5</course>
  <speed>0.0</speed>
  <fix>3d</fix>
</trkpt>
<trkpt lat="33.810313" lon="-118.393867">
  <ele>-0.12</ele>
  <time>2026-09-01T01:15:23Z</time>
  <course>0.0</course>
  <speed>0.0</speed>
  <fix>3d</fix>
</trkpt>
<trkpt lat="33.810313" lon="-118.393867">
  <ele>-0.122</ele>
  <time>2026-09-01T01:15:23Z</time>
  <course>188.49</course>
  <speed>0.0</speed>
  <fix>3d</fix>
</trkpt>
<trkpt lat="33.810313" lon="-118.393867">
  <ele>-0.12</ele>
  <time>2026-09-01T01:15:23Z</time>
  <course>0.0</course>
  <speed>0.0</speed>
  <fix>3d</fix>
</trkpt>
<trkpt lat="33.810313" lon="-118.393867">
  <ele>-0.123</ele>
  <time>2026-09-01T01:15:23Z</time>
  <course>188.49</course>
  <speed>0.0</speed>
  <fix>3d</fix>
</trkpt>
<trkpt lat="33.810313" lon="-118.393867">
  <ele>-0.12</ele>
  <time>2026-09-01T01:15:23Z</time>
  <course>0.0</course>
  <speed>0.0</speed>
  <fix>3d</fix>
</trkpt>
<trkpt lat="33.810313" lon="-118.393867">
  <ele>-0.124</ele>
  <time>2026-09-01T01:15:23Z</time>
  <course>188.48</course>
  <speed>0.01</speed>
  <fix>3d</fix>
</trkpt>
<trkpt lat="33.810313" lon="-118.393867">
  <ele>-0.12</ele>
  <time>2026-09-01T01:15:23Z</time>
  <course>0.0</course>
  <speed>0.0</speed>
  <fix>3d</fix>
</trkpt>
<trkpt lat="33.810313" lon="-118.393867">
  <ele>-0.124</ele>
  <time>2026-09-01T01:15:23Z</time>
  <course>188.48</course>
  <speed>0.01</speed>
  <fix>3d</fix>
</trkpt>
<trkpt lat="33.810313" lon="-118.393867">
  <ele>-0.12</ele>
  <time>2026-09-01T01:15:23Z</time>
  <course>0.0</course>
  <speed>0.0</speed>
  <fix>3d</fix>
</trkpt>
<trkpt lat="33.810313" lon="-118.393867">
  <ele>-0.125</ele>
  <time>2026-09-01T01:15:23Z</time>
  <course>188.47</course>
  <speed>0.01</speed>
  <fix>3d</fix>
</trkpt>
<trkpt lat="33.810313" lon="-118.393867">
  <ele>-0.12</ele>
  <time>2026-09-01T01:15:23Z</time>
  <course>0.0</course>
  <speed>0.0</speed>
  <fix>3d</fix>
</trkpt>
<trkpt lat="33.810313" lon="-118.393867">
  <ele>-0.125</ele>
  <time>2026-09-01T01:15:23Z</time>
  <course>188.46</course>
  <speed>0.01</speed>
  <fix>3d</fix>
</trkpt>
<trkpt lat="33.810313" lon="-118.393867">
  <ele>-0.12</ele>
  <time>2026-09-01T01:15:23Z</time>
  <course>0.0</course>
  <speed>0.0</speed>
  <fix>3d</fix>
</trkpt>
<trkpt lat="33.810313" lon="-118.393867">
  <ele>-0.124</ele>
  <time>2026-09-01T01:15:23Z</time>
  <course>188.46</course>
  <speed>0.01</speed>
  <fix>3d</fix>
</trkpt>
<trkpt lat="33.810313" lon="-118.393867">
  <ele>-0.12</ele>
  <time>2026-09-01T01:15:23Z</time>
  <course>0.0</course>
  <speed>0.0</speed>
  <fix>3d</fix>
</trkpt>
<trkpt lat="33.810313" lon="-118.393867">
  <ele>-0.122</ele>
  <time>2026-09-01T01:15:23Z</time>
  <course>188.45</course>
  <speed>0.01</speed>
  <fix>3d</fix>
</trkpt>
<trkpt lat="33.810313" lon="-118.393867">
  <ele>-0.12</ele>
  <time>2026-09-01T01:15:23Z</time>
  <course>0.0</course>
  <speed>0.0</speed>
  <fix>3d</fix>
</trkpt>
<trkpt lat="33.810313" lon="-118.393867">
  <ele>-0.12</ele>
  <time>2026-09-01T01:15:23Z</time>
  <course>188.44</course>
  <speed>0.01</speed>
  <fix>3d</fix>
</trkpt>
<trkpt lat="33.810313" lon="-118.393867">
  <ele>-0.12</ele>
  <time>2026-09-01T01:15:23Z</time>
  <course>0.0</course>
  <speed>0.0</speed>
  <fix>3d</fix>
</trkpt>
<trkpt lat="33.810313" lon="-118.393867">
  <ele>-0.118</ele>
  <time>2026-09-01T01:15:24Z</time>
  <course>188.44</course>
  <speed>0.01</speed>
  <fix>3d</fix>
</trkpt>
<trkpt lat="33.810313" lon="-118.393867">
  <ele>-0.12</ele>
  <time>2026-09-01T01:15:24Z</time>
  <course>0.0</course>
  <speed>0.0</speed>
  <fix>3d</fix>
</trkpt>
<trkpt lat="33.810313" lon="-118.393867">
  <ele>-0.118</ele>
  <time>2026-09-01T01:15:24Z</time>
  <course>188.44</course>
  <speed>0.01</speed>
  <fix>3d</fix>
</trkpt>
<trkpt lat="33.810313" lon="-118.393867">
  <ele>-0.12</ele>
  <time>2026-09-01T01:15:24Z</time>
  <course>0.0</course>
  <speed>0.0</speed>
  <fix>3d</fix>
</trkpt>
<trkpt lat="33.810313" lon="-118.393867">
  <ele>-0.119</ele>
  <time>2026-09-01T01:15:24Z</time>
  <course>188.43</course>
  <speed>0.01</speed>
  <fix>3d</fix>
</trkpt>
<trkpt lat="33.810313" lon="-118.393867">
  <ele>-0.12</ele>
  <time>2026-09-01T01:15:24Z</time>
  <course>0.0</course>
  <speed>0.0</speed>
  <fix>3d</fix>
</trkpt>
<trkpt lat="33.810313" lon="-118.393867">
  <ele>-0.12</ele>
  <time>2026-09-01T01:15:24Z</time>
  <course>188.43</course>
  <speed>0.01</speed>
  <fix>3d</fix>
</trkpt>
<trkpt lat="33.810313" lon="-118.393867">
  <ele>-0.12</ele>
  <time>2026-09-01T01:15:24Z</time>
  <course>0.0</course>
  <speed>0.0</speed>
  <fix>3d</fix>
</trkpt>
<trkpt lat="33.810313" lon="-118.393867">
  <ele>-0.122</ele>
  <time>2026-09-01T01:15:24Z</time>
  <course>188.42</course>
  <speed>0.01</speed>
  <fix>3d</fix>
</trkpt>
<trkpt lat="33.810313" lon="-118.393867">
  <ele>-0.12</ele>
  <time>2026-09-01T01:15:24Z</time>
  <course>0.0</course>
  <speed>0.0</speed>
  <fix>3d</fix>
</trkpt>
<trkpt lat="33.810313" lon="-118.393867">
  <ele>-0.123</ele>
  <time>2026-09-01T01:15:24Z</time>
  <course>188.41</course>
  <speed>0.01</speed>
  <fix>3d</fix>
</trkpt>
<trkpt lat="33.810313" lon="-118.393867">
  <ele>-0.12</ele>
  <time>2026-09-01T01:15:24Z</time>
  <course>0.0</course>
  <speed>0.0</speed>
  <fix>3d</fix>
</trkpt>
<trkpt lat="33.810313" lon="-118.393867">
  <ele>-0.122</ele>
  <time>2026-09-01T01:15:24Z</time>
  <course>188.4</course>
  <speed>0.01414213562373095</speed>
  <fix>3d</fix>
</trkpt>
<trkpt lat="33.810313" lon="-118.393867">
  <ele>-0.12</ele>
  <time>2026-09-01T01:15:24Z</time>
  <course>0.0</course>
  <speed>0.0</speed>
  <fix>3d</fix>
</trkpt>
<trkpt lat="33.810313" lon="-118.393867">
  <ele>-0.119</ele>
  <time>2026-09-01T01:15:24Z</time>
  <course>188.4</course>
  <speed>0.01414213562373095</speed>
  <fix>3d</fix>
</trkpt>
<trkpt lat="33.810313" lon="-118.393867">
  <ele>-0.12</ele>
  <time>2026-09-01T01:15:24Z</time>
  <course>0.0</course>
  <speed>0.0</speed>
  <fix>3d</fix>
</trkpt>
<trkpt lat="33.810313" lon="-118.393867">
  <ele>-0.117</ele>
  <time>2026-09-01T01:15:24Z</time>
  <course>188.39</course>
  <speed>0.01414213562373095</speed>
  <fix>3d</fix>
</trkpt>
<trkpt lat="33.810313" lon="-118.393867">
  <ele>-0.12</ele>
  <time>2026-09-01T01:15:24Z</time>
  <course>0.0</course>
  <speed>0.0</speed>
  <fix>3d</fix>
</trkpt>
<trkpt lat="33.810313" lon="-118.393867">
  <ele>-0.115</ele>
  <time>2026-09-01T01:15:24Z</time>
  <course>188.38</course>
  <speed>0.01414213562373095</speed>
  <fix>3d</fix>
</trkpt>
<trkpt lat="33.810313" lon="-118.393867">
  <ele>-0.12</ele>
  <time>2026-09-01T01:15:24Z</time>
  <course>0.0</course>
  <speed>0.0</speed>
  <fix>3d</fix>
</trkpt>
<trkpt lat="33.810313" lon="-118.393867">
  <ele>-0.111</ele>
  <time>2026-09-01T01:15:24Z</time>
  <course>188.37</course>
  <speed>0.01414213562373095</speed>
  <fix>3d</fix>
</trkpt>
<trkpt lat="33.810313" lon="-118.393867">
  <ele>-0.12</ele>
  <time>2026-09-01T01:15:24Z</time>
  <course>0.0</course>
  <speed>0.0</speed>
  <fix>3d</fix>
</trkpt>
<trkpt lat="33.810313" lon="-118.393867">
  <ele>-0.106</ele>
  <time>2026-09-01T01:15:24Z</time>
  <course>188.37</course>
  <speed>0.01414213562373095</speed>
  <fix>3d</fix>
</trkpt>
<trkpt lat="33.810313" lon="-118.393867">
  <ele>-0.12</ele>
  <time>2026-09-01T01:15:24Z</time>
  <course>0.0</course>
  <speed>0.0</speed>
  <fix>3d</fix>
</trkpt>
<trkpt lat="33.810313" lon="-118.393867">
  <ele>-0.103</ele>
  <time>2026-09-01T01:15:25Z</time>
  <course>188.36</course>
  <speed>0.01414213562373095</speed>
  <fix>3d</fix>
</trkpt>
<trkpt lat="33.810313" lon="-118.393867">
  <ele>-0.12</ele>
  <time>2026-09-01T01:15:25Z</time>
  <course>0.0</course>
  <speed>0.0</speed>
  <fix>3d</fix>
</trkpt>
<trkpt lat="33.810313" lon="-118.393867">
  <ele>-0.103</ele>
  <time>2026-09-01T01:15:25Z</time>
  <course>188.35</course>
  <speed>0.01414213562373095</speed>
  <fix>3d</fix>
</trkpt>
<trkpt lat="33.810313" lon="-118.393867">
  <ele>-0.12</ele>
  <time>2026-09-01T01:15:25Z</time>
  <course>0.0</course>
  <speed>0.0</speed>
  <fix>3d</fix>
</trkpt>
<trkpt lat="33.810313" lon="-118.393867">
  <ele>-0.103</ele>
  <time>2026-09-01T01:15:26Z</time>
  <course>188.34</course>
  <speed>0.01414213562373095</speed>
  <fix>3d</fix>
</trkpt>
<trkpt lat="33.810313" lon="-118.393867">
  <ele>-0.12</ele>
  <time>2026-09-01T01:15:26Z</time>
  <course>0.0</course>
  <speed>0.0</speed>
  <fix>3d</fix>
</trkpt>
<trkpt lat="33.810313" lon="-118.393867">
  <ele>-0.106</ele>
  <time>2026-09-01T01:15:26Z</time>
  <course>188.33</course>
  <speed>0.01414213562373095</speed>
  <fix>3d</fix>
</trkpt>
<trkpt lat="33.810313" lon="-118.393867">
  <ele>-0.12</ele>
  <time>2026-09-01T01:15:26Z</time>
  <course>0.0</course>
  <speed>0.0</speed>
  <fix>3d</fix>
</trkpt>
<trkpt lat="33.810313" lon="-118.393867">
  <ele>-0.11</ele>
  <time>2026-09-01T01:15:26Z</time>
  <course>188.33</course>
  <speed>0.01414213562373095</speed>
  <fix>3d</fix>
</trkpt>
<trkpt lat="33.810313" lon="-118.393867">
  <ele>-0.12</ele>
  <time>2026-09-01T01:15:26Z</time>
  <course>0.0</course>
  <speed>0.0</speed>
  <fix>3d</fix>
</trkpt>
<trkpt lat="33.810313" lon="-118.393867">
  <ele>-0.112</ele>
  <time>2026-09-01T01:15:26Z</time>
  <course>188.32</course>
  <speed>0.01414213562373095</speed>
  <fix>3d</fix>
</trkpt>
<trkpt lat="33.810313" lon="-118.393867">
  <ele>-0.12</ele>
  <time>2026-09-01T01:15:26Z</time>
  <course>0.0</course>
  <speed>0.0</speed>
  <fix>3d</fix>
</trkpt>
<trkpt lat="33.810313" lon="-118.393867">
  <ele>-0.113</ele>
  <time>2026-09-01T01:15:26Z</time>
  <course>188.31</course>
  <speed>0.01414213562373095</speed>
  <fix>3d</fix>
</trkpt>
<trkpt lat="33.810313" lon="-118.393867">
  <ele>-0.12</ele>
  <time>2026-09-01T01:15:26Z</time>
  <course>0.0</course>
  <speed>0.0</speed>
  <fix>3d</fix>
</trkpt>
<trkpt lat="33.810313" lon="-118.393867">
  <ele>-0.113</ele>
  <time>2026-09-01T01:15:26Z</time>
  <course>188.3</course>
  <speed>0.01414213562373095</speed>
  <fix>3d</fix>
</trkpt>
<trkpt lat="33.810313" lon="-118.393867">
  <ele>-0.12</ele>
  <time>2026-09-01T01:15:26Z</time>
  <course>0.0</course>
  <speed>0.0</speed>
  <fix>3d</fix>
</trkpt>
<trkpt lat="33.810313" lon="-118.393867">
  <ele>-0.112</ele>
  <time>2026-09-01T01:15:26Z</time>
  <course>188.29</course>
  <speed>0.01414213562373095</speed>
  <fix>3d</fix>
</trkpt>
<trkpt lat="33.810313" lon="-118.393867">
  <ele>-0.12</ele>
  <time>2026-09-01T01:15:26Z</time>
  <course>0.0</course>
  <speed>0.0</speed>
  <fix>3d</fix>
</trkpt>
<trkpt lat="33.810313" lon="-118.393867">
  <ele>-0.111</ele>
  <time>2026-09-01T01:15:26Z</time>
  <course>188.28</course>
  <speed>0.01414213562373095</speed>
  <fix>3d</fix>
</trkpt>
<trkpt lat="33.810313" lon="-118.393867">
  <ele>-0.12</ele>
  <time>2026-09-01T01:15:26Z</time>
  <course>0.0</course>
  <speed>0.0</speed>
  <fix>3d</fix>
</trkpt>
<trkpt lat="33.810313" lon="-118.393867">
  <ele>-0.111</ele>
  <time>2026-09-01T01:15:26Z</time>
  <course>188.28</course>
  <speed>0.01414213562373095</speed>
  <fix>3d</fix>
</trkpt>
<trkpt lat="33.810313" lon="-118.393867">
  <ele>-0.12</ele>
  <time>2026-09-01T01:15:26Z</time>
  <course>0.0</course>
  <speed>0.0</speed>
  <fix>3d</fix>
</trkpt>
<trkpt lat="33.810313" lon="-118.393867">
  <ele>-0.111</ele>
  <time>2026-09-01T01:15:26Z</time>
  <course>188.27</course>
  <speed>0.01414213562373095</speed>
  <fix>3d</fix>
</trkpt>
<trkpt lat="33.810313" lon="-118.393867">
  <ele>-0.12</ele>
  <time>2026-09-01T01:15:26Z</time>
  <course>0.0</course>
  <speed>0.0</speed>
  <fix>3d</fix>
</trkpt>
<trkpt lat="33.810313" lon="-118.393867">
  <ele>-0.111</ele>
  <time>2026-09-01T01:15:26Z</time>
  <course>188.26</course>
  <speed>0.01414213562373095</speed>
  <fix>3d</fix>
</trkpt>
<trkpt lat="33.810313" lon="-118.393867">
  <ele>-0.12</ele>
  <time>2026-09-01T01:15:26Z</time>
  <course>0.0</course>
  <speed>0.0</speed>
  <fix>3d</fix>
</trkpt>
<trkpt lat="33.810313" lon="-118.393867">
  <ele>-0.112</ele>
  <time>2026-09-01T01:15:27Z</time>
  <course>188.25</course>
  <speed>0.01414213562373095</speed>
  <fix>3d</fix>
</trkpt>
<trkpt lat="33.810313" lon="-118.393867">
  <ele>-0.12</ele>
  <time>2026-09-01T01:15:27Z</time>
  <course>0.0</course>
  <speed>0.0</speed>
  <fix>3d</fix>
</trkpt>
<trkpt lat="33.810313" lon="-118.393867">
  <ele>-0.114</ele>
  <time>2026-09-01T01:15:27Z</time>
  <course>188.24</course>
  <speed>0.01414213562373095</speed>
  <fix>3d</fix>
</trkpt>
<trkpt lat="33.810313" lon="-118.393867">
  <ele>-0.12</ele>
  <time>2026-09-01T01:15:27Z</time>
  <course>0.0</course>
  <speed>0.0</speed>
  <fix>3d</fix>
</trkpt>
<trkpt lat="33.810313" lon="-118.393867">
  <ele>-0.116</ele>
  <time>2026-09-01T01:15:27Z</time>
  <course>188.24</course>
  <speed>0.01414213562373095</speed>
  <fix>3d</fix>
</trkpt>
<trkpt lat="33.810313" lon="-118.393867">
  <ele>-0.12</ele>
  <time>2026-09-01T01:15:27Z</time>
  <course>0.0</course>
  <speed>0.0</speed>
  <fix>3d</fix>
</trkpt>
<trkpt lat="33.810313" lon="-118.393867">
  <ele>-0.12</ele>
  <time>2026-09-01T01:15:27Z</time>
  <course>188.23</course>
  <speed>0.01414213562373095</speed>
  <fix>3d</fix>
</trkpt>
<trkpt lat="33.810313" lon="-118.393867">
  <ele>-0.12</ele>
  <time>2026-09-01T01:15:27Z</time>
  <course>0.0</course>
  <speed>0.0</speed>
  <fix>3d</fix>
</trkpt>
<trkpt lat="33.810313" lon="-118.393867">
  <ele>-0.122</ele>
  <time>2026-09-01T01:15:27Z</time>
  <course>188.22</course>
  <speed>0.01414213562373095</speed>
  <fix>3d</fix>
</trkpt>
<trkpt lat="33.810313" lon="-118.393867">
  <ele>-0.12</ele>
  <time>2026-09-01T01:15:27Z</time>
  <course>0.0</course>
  <speed>0.0</speed>
  <fix>3d</fix>
</trkpt>
<trkpt lat="33.810313" lon="-118.393867">
  <ele>-0.123</ele>
  <time>2026-09-01T01:15:27Z</time>
  <course>188.21</course>
  <speed>0.01414213562373095</speed>
  <fix>3d</fix>
</trkpt>
<trkpt lat="33.810313" lon="-118.393867">
  <ele>-0.12</ele>
  <time>2026-09-01T01:15:27Z</time>
  <course>0.0</course>
  <speed>0.0</speed>
  <fix>3d</fix>
</trkpt>
<trkpt lat="33.810313" lon="-118.393867">
  <ele>-0.123</ele>
  <time>2026-09-01T01:15:27Z</time>
  <course>188.2</course>
  <speed>0.01414213562373095</speed>
  <fix>3d</fix>
</trkpt>
<trkpt lat="33.810313" lon="-118.393867">
  <ele>-0.12</ele>
  <time>2026-09-01T01:15:27Z</time>
  <course>0.0</course>
  <speed>0.0</speed>
  <fix>3d</fix>
</trkpt>
<trkpt lat="33.810313" lon="-118.393867">
  <ele>-0.124</ele>
  <time>2026-09-01T01:15:27Z</time>
  <course>188.19</course>
  <speed>0.01414213562373095</speed>
  <fix>3d</fix>
</trkpt>
<trkpt lat="33.810313" lon="-118.393867">
  <ele>-0.12</ele>
  <time>2026-09-01T01:15:27Z</time>
  <course>0.0</course>
  <speed>0.0</speed>
  <fix>3d</fix>
</trkpt>
<trkpt lat="33.810313" lon="-118.393867">
  <ele>-0.123</ele>
  <time>2026-09-01T01:15:27Z</time>
  <course>188.19</course>
  <speed>0.01414213562373095</speed>
  <fix>3d</fix>
</trkpt>
<trkpt lat="33.810313" lon="-118.393867">
  <ele>-0.12</ele>
  <time>2026-09-01T01:15:27Z</time>
  <course>0.0</course>
  <speed>0.0</speed>
  <fix>3d</fix>
</trkpt>
<trkpt lat="33.810313" lon="-118.393867">
  <ele>-0.121</ele>
  <time>2026-09-01T01:15:27Z</time>
  <course>188.18</course>
  <speed>0.01414213562373095</speed>
  <fix>3d</fix>
</trkpt>
<trkpt lat="33.810313" lon="-118.393867">
  <ele>-0.12</ele>
  <time>2026-09-01T01:15:27Z</time>
  <course>0.0</course>
  <speed>0.0</speed>
  <fix>3d</fix>
</trkpt>
<trkpt lat="33.810313" lon="-118.393867">
  <ele>-0.118</ele>
  <time>2026-09-01T01:15:28Z</time>
  <course>188.17</course>
  <speed>0.01414213562373095</speed>
  <fix>3d</fix>
</trkpt>
<trkpt lat="33.810313" lon="-118.393867">
  <ele>-0.12</ele>
  <time>2026-09-01T01:15:28Z</time>
  <course>0.0</course>
  <speed>0.0</speed>
  <fix>3d</fix>
</trkpt>
<trkpt lat="33.810313" lon="-118.393867">
  <ele>-0.115</ele>
  <time>2026-09-01T01:15:28Z</time>
  <course>188.16</course>
  <speed>0.01414213562373095</speed>
  <fix>3d</fix>
</trkpt>
<trkpt lat="33.810313" lon="-118.393867">
  <ele>-0.12</ele>
  <time>2026-09-01T01:15:28Z</time>
  <course>0.0</course>
  <speed>0.0</speed>
  <fix>3d</fix>
</trkpt>
<trkpt lat="33.810313" lon="-118.393867">
  <ele>-0.114</ele>
  <time>2026-09-01T01:15:28Z</time>
  <course>188.15</course>
  <speed>0.01414213562373095</speed>
  <fix>3d</fix>
</trkpt>
<trkpt lat="33.810313" lon="-118.393867">
  <ele>-0.12</ele>
  <time>2026-09-01T01:15:28Z</time>
  <course>0.0</course>
  <speed>0.0</speed>
  <fix>3d</fix>
</trkpt>
<trkpt lat="33.810313" lon="-118.393867">
  <ele>-0.114</ele>
  <time>2026-09-01T01:15:28Z</time>
  <course>188.14</course>
  <speed>0.01414213562373095</speed>
  <fix>3d</fix>
</trkpt>
<trkpt lat="33.810313" lon="-118.393867">
  <ele>-0.12</ele>
  <time>2026-09-01T01:15:28Z</time>
  <course>0.0</course>
  <speed>0.0</speed>
  <fix>3d</fix>
</trkpt>
<trkpt lat="33.810313" lon="-118.393867">
  <ele>-0.115</ele>
  <time>2026-09-01T01:15:28Z</time>
  <course>188.14</course>
  <speed>0.01414213562373095</speed>
  <fix>3d</fix>
</trkpt>
<trkpt lat="33.810313" lon="-118.393867">
  <ele>-0.12</ele>
  <time>2026-09-01T01:15:28Z</time>
  <course>0.0</course>
  <speed>0.0</speed>
  <fix>3d</fix>
</trkpt>
<trkpt lat="33.810313" lon="-118.393867">
  <ele>-0.118</ele>
  <time>2026-09-01T01:15:28Z</time>
  <course>188.13</course>
  <speed>0.01414213562373095</speed>
  <fix>3d</fix>
</trkpt>
<trkpt lat="33.810313" lon="-118.393867">
  <ele>-0.12</ele>
  <time>2026-09-01T01:15:28Z</time>
  <course>0.0</course>
  <speed>0.0</speed>
  <fix>3d</fix>
</trkpt>
<trkpt lat="33.810313" lon="-118.393867">
  <ele>-0.12</ele>
  <time>2026-09-01T01:15:28Z</time>
  <course>188.12</course>
  <speed>0.01414213562373095</speed>
  <fix>3d</fix>
</trkpt>
<trkpt lat="33.810313" lon="-118.393867">
  <ele>-0.12</ele>
  <time>2026-09-01T01:15:28Z</time>
  <course>0.0</course>
  <speed>0.0</speed>
  <fix>3d</fix>
</trkpt>
<trkpt lat="33.810313" lon="-118.393867">
  <ele>-0.121</ele>
  <time>2026-09-01T01:15:28Z</time>
  <course>188.11</course>
  <speed>0.01414213562373095</speed>
  <fix>3d</fix>
</trkpt>
<trkpt lat="33.810313" lon="-118.393867">
  <ele>-0.12</ele>
  <time>2026-09-01T01:15:28Z</time>
  <course>0.0</course>
  <speed>0.0</speed>
  <fix>3d</fix>
</trkpt>
<trkpt lat="33.810313" lon="-118.393867">
  <ele>-0.12</ele>
  <time>2026-09-01T01:15:28Z</time>
  <course>188.1</course>
  <speed>0.01414213562373095</speed>
  <fix>3d</fix>
</trkpt>
<trkpt lat="33.810313" lon="-118.393867">
  <ele>-0.12</ele>
  <time>2026-09-01T01:15:28Z</time>
  <course>0.0</course>
  <speed>0.0</speed>
  <fix>3d</fix>
</trkpt>
<trkpt lat="33.810313" lon="-118.393867">
  <ele>-0.118</ele>
  <time>2026-09-01T01:15:28Z</time>
  <course>188.09</course>
  <speed>0.01414213562373095</speed>
  <fix>3d</fix>
</trkpt>
<trkpt lat="33.810313" lon="-118.393867">
  <ele>-0.12</ele>
  <time>2026-09-01T01:15:28Z</time>
  <course>0.0</course>
  <speed>0.0</speed>
  <fix>3d</fix>
</trkpt>
<trkpt lat="33.810313" lon="-118.393867">
  <ele>-0.115</ele>
  <time>2026-09-01T01:15:29Z</time>
  <course>188.08</course>
  <speed>0.01414213562373095</speed>
  <fix>3d</fix>
</trkpt>
<trkpt lat="33.810313" lon="-118.393867">
  <ele>-0.12</ele>
  <time>2026-09-01T01:15:29Z</time>
  <course>0.0</course>
  <speed>0.0</speed>
  <fix>3d</fix>
</trkpt>
<trkpt lat="33.810313" lon="-118.393867">
  <ele>-0.114</ele>
  <time>2026-09-01T01:15:29Z</time>
  <course>188.08</course>
  <speed>0.01414213562373095</speed>
  <fix>3d</fix>
</trkpt>
<trkpt lat="33.810313" lon="-118.393867">
  <ele>-0.12</ele>
  <time>2026-09-01T01:15:29Z</time>
  <course>0.0</course>
  <speed>0.0</speed>
  <fix>3d</fix>
</trkpt>
<trkpt lat="33.810313" lon="-118.393867">
  <ele>-0.112</ele>
  <time>2026-09-01T01:15:29Z</time>
  <course>188.07</course>
  <speed>0.01414213562373095</speed>
  <fix>3d</fix>
</trkpt>
<trkpt lat="33.810313" lon="-118.393867">
  <ele>-0.12</ele>
  <time>2026-09-01T01:15:29Z</time>
  <course>0.0</course>
  <speed>0.0</speed>
  <fix>3d</fix>
</trkpt>
<trkpt lat="33.810313" lon="-118.393867">
  <ele>-0.109</ele>
  <time>2026-09-01T01:15:29Z</time>
  <course>188.06</course>
  <speed>0.022360679774997897</speed>
  <fix>3d</fix>
</trkpt>
<trkpt lat="33.810313" lon="-118.393867">
  <ele>-0.12</ele>
  <time>2026-09-01T01:15:29Z</time>
  <course>0.0</course>
  <speed>0.0</speed>
  <fix>3d</fix>
</trkpt>
<trkpt lat="33.810313" lon="-118.393867">
  <ele>-0.109</ele>
  <time>2026-09-01T01:15:29Z</time>
  <course>188.05</course>
  <speed>0.022360679774997897</speed>
  <fix>3d</fix>
</trkpt>
<trkpt lat="33.810313" lon="-118.393867">
  <ele>-0.12</ele>
  <time>2026-09-01T01:15:29Z</time>
  <course>0.0</course>
  <speed>0.0</speed>
  <fix>3d</fix>
</trkpt>
<trkpt lat="33.810313" lon="-118.393867">
  <ele>-0.109</ele>
  <time>2026-09-01T01:15:29Z</time>
  <course>188.04</course>
  <speed>0.022360679774997897</speed>
  <fix>3d</fix>
</trkpt>
<trkpt lat="33.810313" lon="-118.393867">
  <ele>-0.12</ele>
  <time>2026-09-01T01:15:29Z</time>
  <course>0.0</course>
  <speed>0.0</speed>
  <fix>3d</fix>
</trkpt>
<trkpt lat="33.810313" lon="-118.393867">
  <ele>-0.109</ele>
  <time>2026-09-01T01:15:29Z</time>
  <course>188.04</course>
  <speed>0.022360679774997897</speed>
  <fix>3d</fix>
</trkpt>
<trkpt lat="33.810313" lon="-118.393867">
  <ele>-0.12</ele>
  <time>2026-09-01T01:15:29Z</time>
  <course>0.0</course>
  <speed>0.0</speed>
  <fix>3d</fix>
</trkpt>
<trkpt lat="33.810313" lon="-118.393867">
  <ele>-0.11</ele>
  <time>2026-09-01T01:15:29Z</time>
  <course>188.03</course>
  <speed>0.022360679774997897</speed>
  <fix>3d</fix>
</trkpt>
<trkpt lat="33.810313" lon="-118.393867">
  <ele>-0.12</ele>
  <time>2026-09-01T01:15:29Z</time>
  <course>0.0</course>
  <speed>0.0</speed>
  <fix>3d</fix>
</trkpt>
<trkpt lat="33.810313" lon="-118.393867">
  <ele>-0.11</ele>
  <time>2026-09-01T01:15:29Z</time>
  <course>188.02</course>
  <speed>0.022360679774997897</speed>
  <fix>3d</fix>
</trkpt>
<trkpt lat="33.810313" lon="-118.393867">
  <ele>-0.12</ele>
  <time>2026-09-01T01:15:29Z</time>
  <course>0.0</course>
  <speed>0.0</speed>
  <fix>3d</fix>
</trkpt>
<trkpt lat="33.810313" lon="-118.393867">
  <ele>-0.111</ele>
  <time>2026-09-01T01:15:29Z</time>
  <course>188.01</course>
  <speed>0.022360679774997897</speed>
  <fix>3d</fix>
</trkpt>
<trkpt lat="33.810313" lon="-118.393867">
  <ele>-0.12</ele>
  <time>2026-09-01T01:15:29Z</time>
  <course>0.0</course>
  <speed>0.0</speed>
  <fix>3d</fix>
</trkpt>
<trkpt lat="33.810313" lon="-118.393867">
  <ele>-0.111</ele>
  <time>2026-09-01T01:15:31Z</time>
  <course>188.0</course>
  <speed>0.022360679774997897</speed>
  <fix>3d</fix>
</trkpt>
<trkpt lat="33.810313" lon="-118.393867">
  <ele>-0.12</ele>
  <time>2026-09-01T01:15:31Z</time>
  <course>0.0</course>
  <speed>0.0</speed>
  <fix>3d</fix>
</trkpt>
<trkpt lat="33.810313" lon="-118.393867">
  <ele>-0.111</ele>
  <time>2026-09-01T01:15:31Z</time>
  <course>187.99</course>
  <speed>0.022360679774997897</speed>
  <fix>3d</fix>
</trkpt>
<trkpt lat="33.810313" lon="-118.393867">
  <ele>-0.12</ele>
  <time>2026-09-01T01:15:31Z</time>
  <course>0.0</course>
  <speed>0.0</speed>
  <fix>3d</fix>
</trkpt>
<trkpt lat="33.810313" lon="-118.393867">
  <ele>-0.109</ele>
  <time>2026-09-01T01:15:31Z</time>
  <course>187.99</course>
  <speed>0.022360679774997897</speed>
  <fix>3d</fix>
</trkpt>
<trkpt lat="33.810313" lon="-118.393867">
  <ele>-0.12</ele>
  <time>2026-09-01T01:15:31Z</time>
  <course>0.0</course>
  <speed>0.0</speed>
  <fix>3d</fix>
</trkpt>
<trkpt lat="33.810313" lon="-118.393867">
  <ele>-0.107</ele>
  <time>2026-09-01T01:15:31Z</time>
  <course>187.98</course>
  <speed>0.022360679774997897</speed>
  <fix>3d</fix>
</trkpt>
<trkpt lat="33.810313" lon="-118.393867">
  <ele>-0.12</ele>
  <time>2026-09-01T01:15:31Z</time>
  <course>0.0</course>
  <speed>0.0</speed>
  <fix>3d</fix>
</trkpt>
<trkpt lat="33.810313" lon="-118.393867">
  <ele>-0.105</ele>
  <time>2026-09-01T01:15:31Z</time>
  <course>187.97</course>
  <speed>0.022360679774997897</speed>
  <fix>3d</fix>
</trkpt>
<trkpt lat="33.810313" lon="-118.393867">
  <ele>-0.12</ele>
  <time>2026-09-01T01:15:31Z</time>
  <course>0.0</course>
  <speed>0.0</speed>
  <fix>3d</fix>
</trkpt>
<trkpt lat="33.810313" lon="-118.393867">
  <ele>-0.104</ele>
  <time>2026-09-01T01:15:31Z</time>
  <course>187.96</course>
  <speed>0.022360679774997897</speed>
  <fix>3d</fix>
</trkpt>
<trkpt lat="33.810313" lon="-118.393867">
  <ele>-0.12</ele>
  <time>2026-09-01T01:15:31Z</time>
  <course>0.0</course>
  <speed>0.0</speed>
  <fix>3d</fix>
</trkpt>
<trkpt lat="33.810313" lon="-118.393867">
  <ele>-0.104</ele>
  <time>2026-09-01T01:15:31Z</time>
  <course>187.95</course>
  <speed>0.022360679774997897</speed>
  <fix>3d</fix>
</trkpt>
<trkpt lat="33.810313" lon="-118.393867">
  <ele>-0.12</ele>
  <time>2026-09-01T01:15:31Z</time>
  <course>0.0</course>
  <speed>0.0</speed>
  <fix>3d</fix>
</trkpt>
<trkpt lat="33.810313" lon="-118.393867">
  <ele>-0.106</ele>
  <time>2026-09-01T01:15:31Z</time>
  <course>187.95</course>
  <speed>0.022360679774997897</speed>
  <fix>3d</fix>
</trkpt>
<trkpt lat="33.810313" lon="-118.393867">
  <ele>-0.12</ele>
  <time>2026-09-01T01:15:31Z</time>
  <course>0.0</course>
  <speed>0.0</speed>
  <fix>3d</fix>
</trkpt>
<trkpt lat="33.810313" lon="-118.393867">
  <ele>-0.11</ele>
  <time>2026-09-01T01:15:31Z</time>
  <course>187.94</course>
  <speed>0.022360679774997897</speed>
  <fix>3d</fix>
</trkpt>
<trkpt lat="33.810313" lon="-118.393867">
  <ele>-0.12</ele>
  <time>2026-09-01T01:15:31Z</time>
  <course>0.0</course>
  <speed>0.0</speed>
  <fix>3d</fix>
</trkpt>
<trkpt lat="33.810313" lon="-118.393867">
  <ele>-0.114</ele>
  <time>2026-09-01T01:15:31Z</time>
  <course>187.94</course>
  <speed>0.022360679774997897</speed>
  <fix>3d</fix>
</trkpt>
<trkpt lat="33.810313" lon="-118.393867">
  <ele>-0.12</ele>
  <time>2026-09-01T01:15:31Z</time>
  <course>0.0</course>
  <speed>0.0</speed>
  <fix>3d</fix>
</trkpt>
<trkpt lat="33.810313" lon="-118.393867">
  <ele>-0.117</ele>
  <time>2026-09-01T01:15:31Z</time>
  <course>187.93</course>
  <speed>0.022360679774997897</speed>
  <fix>3d</fix>
</trkpt>
<trkpt lat="33.810313" lon="-118.393867">
  <ele>-0.12</ele>
  <time>2026-09-01T01:15:31Z</time>
  <course>0.0</course>
  <speed>0.0</speed>
  <fix>3d</fix>
</trkpt>
<trkpt lat="33.810313" lon="-118.393867">
  <ele>-0.119</ele>
  <time>2026-09-01T01:15:31Z</time>
  <course>187.92</course>
  <speed>0.022360679774997897</speed>
  <fix>3d</fix>
</trkpt>
<trkpt lat="33.810313" lon="-118.393867">
  <ele>-0.12</ele>
  <time>2026-09-01T01:15:31Z</time>
  <course>0.0</course>
  <speed>0.0</speed>
  <fix>3d</fix>
</trkpt>
<trkpt lat="33.810313" lon="-118.393867">
  <ele>-0.121</ele>
  <time>2026-09-01T01:15:31Z</time>
  <course>187.91</course>
  <speed>0.022360679774997897</speed>
  <fix>3d</fix>
</trkpt>
<trkpt lat="33.810313" lon="-118.393867">
  <ele>-0.12</ele>
  <time>2026-09-01T01:15:31Z</time>
  <course>0.0</course>
  <speed>0.0</speed>
  <fix>3d</fix>
</trkpt>
<trkpt lat="33.810313" lon="-118.393867">
  <ele>-0.122</ele>
  <time>2026-09-01T01:15:31Z</time>
  <course>187.9</course>
  <speed>0.022360679774997897</speed>
  <fix>3d</fix>
</trkpt>
<trkpt lat="33.810313" lon="-118.393867">
  <ele>-0.12</ele>
  <time>2026-09-01T01:15:31Z</time>
  <course>0.0</course>
  <speed>0.0</speed>
  <fix>3d</fix>
</trkpt>
<trkpt lat="33.810313" lon="-118.393867">
  <ele>-0.121</ele>
  <time>2026-09-01T01:15:31Z</time>
  <course>187.9</course>
  <speed>0.022360679774997897</speed>
  <fix>3d</fix>
</trkpt>
<trkpt lat="33.810313" lon="-118.393867">
  <ele>-0.12</ele>
  <time>2026-09-01T01:15:31Z</time>
  <course>0.0</course>
  <speed>0.0</speed>
  <fix>3d</fix>
</trkpt>
<trkpt lat="33.810313" lon="-118.393867">
  <ele>-0.119</ele>
  <time>2026-09-01T01:15:31Z</time>
  <course>187.89</course>
  <speed>0.022360679774997897</speed>
  <fix>3d</fix>
</trkpt>
<trkpt lat="33.810313" lon="-118.393867">
  <ele>-0.12</ele>
  <time>2026-09-01T01:15:31Z</time>
  <course>0.0</course>
  <speed>0.0</speed>
  <fix>3d</fix>
</trkpt>
<trkpt lat="33.810313" lon="-118.393867">
  <ele>-0.118</ele>
  <time>2026-09-01T01:15:31Z</time>
  <course>187.88</course>
  <speed>0.022360679774997897</speed>
  <fix>3d</fix>
</trkpt>
<trkpt lat="33.810313" lon="-118.393867">
  <ele>-0.12</ele>
  <time>2026-09-01T01:15:31Z</time>
  <course>0.0</course>
  <speed>0.0</speed>
  <fix>3d</fix>
</trkpt>
<trkpt lat="33.810313" lon="-118.393867">
  <ele>-0.117</ele>
  <time>2026-09-01T01:15:31Z</time>
  <course>187.87</course>
  <speed>0.022360679774997897</speed>
  <fix>3d</fix>
</trkpt>
<trkpt lat="33.810313" lon="-118.393867">
  <ele>-0.12</ele>
  <time>2026-09-01T01:15:31Z</time>
  <course>0.0</course>
  <speed>0.0</speed>
  <fix>3d</fix>
</trkpt>
<trkpt lat="33.810313" lon="-118.393867">
  <ele>-0.118</ele>
  <time>2026-09-01T01:15:31Z</time>
  <course>187.86</course>
  <speed>0.022360679774997897</speed>
  <fix>3d</fix>
</trkpt>
<trkpt lat="33.810313" lon="-118.393867">
  <ele>-0.12</ele>
  <time>2026-09-01T01:15:31Z</time>
  <course>0.0</course>
  <speed>0.0</speed>
  <fix>3d</fix>
</trkpt>
<trkpt lat="33.810313" lon="-118.393867">
  <ele>-0.121</ele>
  <time>2026-09-01T01:15:31Z</time>
  <course>187.86</course>
  <speed>0.022360679774997897</speed>
  <fix>3d</fix>
</trkpt>
<trkpt lat="33.810313" lon="-118.393867">
  <ele>-0.12</ele>
  <time>2026-09-01T01:15:31Z</time>
  <course>0.0</course>
  <speed>0.0</speed>
  <fix>3d</fix>
</trkpt>
<trkpt lat="33.810313" lon="-118.393867">
  <ele>-0.124</ele>
  <time>2026-09-01T01:15:31Z</time>
  <course>187.85</course>
  <speed>0.022360679774997897</speed>
  <fix>3d</fix>
</trkpt>
<trkpt lat="33.810313" lon="-118.393867">
  <ele>-0.12</ele>
  <time>2026-09-01T01:15:31Z</time>
  <course>0.0</course>
  <speed>0.0</speed>
  <fix>3d</fix>
</trkpt>
<trkpt lat="33.810313" lon="-118.393867">
  <ele>-0.126</ele>
  <time>2026-09-01T01:15:31Z</time>
  <course>187.84</course>
  <speed>0.022360679774997897</speed>
  <fix>3d</fix>
</trkpt>
<trkpt lat="33.810313" lon="-118.393867">
  <ele>-0.12</ele>
  <time>2026-09-01T01:15:31Z</time>
  <course>0.0</course>
  <speed>0.0</speed>
  <fix>3d</fix>
</trkpt>
<trkpt lat="33.810313" lon="-118.393867">
  <ele>-0.128</ele>
  <time>2026-09-01T01:15:31Z</time>
  <course>187.83</course>
  <speed>0.022360679774997897</speed>
  <fix>3d</fix>
</trkpt>
<trkpt lat="33.810313" lon="-118.393867">
  <ele>-0.12</ele>
  <time>2026-09-01T01:15:31Z</time>
  <course>0.0</course>
  <speed>0.0</speed>
  <fix>3d</fix>
</trkpt>
<trkpt lat="33.810313" lon="-118.393867">
  <ele>-0.129</ele>
  <time>2026-09-01T01:15:31Z</time>
  <course>187.82</course>
  <speed>0.022360679774997897</speed>
  <fix>3d</fix>
</trkpt>
<trkpt lat="33.810313" lon="-118.393867">
  <ele>-0.12</ele>
  <time>2026-09-01T01:15:31Z</time>
  <course>0.0</course>
  <speed>0.0</speed>
  <fix>3d</fix>
</trkpt>
<trkpt lat="33.810313" lon="-118.393867">
  <ele>-0.129</ele>
  <time>2026-09-01T01:15:31Z</time>
  <course>187.82</course>
  <speed>0.022360679774997897</speed>
  <fix>3d</fix>
</trkpt>
<trkpt lat="33.810313" lon="-118.393867">
  <ele>-0.12</ele>
  <time>2026-09-01T01:15:31Z</time>
  <course>0.0</course>
  <speed>0.0</speed>
  <fix>3d</fix>
</trkpt>
<trkpt lat="33.810313" lon="-118.393867">
  <ele>-0.128</ele>
  <time>2026-09-01T01:15:31Z</time>
  <course>187.81</course>
  <speed>0.022360679774997897</speed>
  <fix>3d</fix>
</trkpt>
<trkpt lat="33.810313" lon="-118.393867">
  <ele>-0.12</ele>
  <time>2026-09-01T01:15:31Z</time>
  <course>0.0</course>
  <speed>0.0</speed>
  <fix>3d</fix>
</trkpt>
<trkpt lat="33.810313" lon="-118.393867">
  <ele>-0.127</ele>
  <time>2026-09-01T01:15:31Z</time>
  <course>187.8</course>
  <speed>0.022360679774997897</speed>
  <fix>3d</fix>
</trkpt>
<trkpt lat="33.810313" lon="-118.393867">
  <ele>-0.12</ele>
  <time>2026-09-01T01:15:31Z</time>
  <course>0.0</course>
  <speed>0.0</speed>
  <fix>3d</fix>
</trkpt>
<trkpt lat="33.810313" lon="-118.393867">
  <ele>-0.126</ele>
  <time>2026-09-01T01:15:32Z</time>
  <course>187.79</course>
  <speed>0.022360679774997897</speed>
  <fix>3d</fix>
</trkpt>
<trkpt lat="33.810313" lon="-118.393867">
  <ele>-0.12</ele>
  <time>2026-09-01T01:15:32Z</time>
  <course>0.0</course>
  <speed>0.0</speed>
  <fix>3d</fix>
</trkpt>
<trkpt lat="33.810313" lon="-118.393867">
  <ele>-0.125</ele>
  <time>2026-09-01T01:15:32Z</time>
  <course>187.79</course>
  <speed>0.022360679774997897</speed>
  <fix>3d</fix>
</trkpt>
<trkpt lat="33.810313" lon="-118.393867">
  <ele>-0.12</ele>
  <time>2026-09-01T01:15:32Z</time>
  <course>0.0</course>
  <speed>0.0</speed>
  <fix>3d</fix>
</trkpt>
<trkpt lat="33.810313" lon="-118.393867">
  <ele>-0.124</ele>
  <time>2026-09-01T01:15:33Z</time>
  <course>187.78</course>
  <speed>0.022360679774997897</speed>
  <fix>3d</fix>
</trkpt>
<trkpt lat="33.810313" lon="-118.393867">
  <ele>-0.12</ele>
  <time>2026-09-01T01:15:33Z</time>
  <course>0.0</course>
  <speed>0.0</speed>
  <fix>3d</fix>
</trkpt>
<trkpt lat="33.810313" lon="-118.393867">
  <ele>-0.124</ele>
  <time>2026-09-01T01:15:33Z</time>
  <course>187.77</course>
  <speed>0.022360679774997897</speed>
  <fix>3d</fix>
</trkpt>
<trkpt lat="33.810313" lon="-118.393867">
  <ele>-0.12</ele>
  <time>2026-09-01T01:15:33Z</time>
  <course>0.0</course>
  <speed>0.0</speed>
  <fix>3d</fix>
</trkpt>
<trkpt lat="33.810313" lon="-118.393867">
  <ele>-0.124</ele>
  <time>2026-09-01T01:15:33Z</time>
  <course>187.76</course>
  <speed>0.022360679774997897</speed>
  <fix>3d</fix>
</trkpt>
<trkpt lat="33.810313" lon="-118.393867">
  <ele>-0.12</ele>
  <time>2026-09-01T01:15:33Z</time>
  <course>0.0</course>
  <speed>0.0</speed>
  <fix>3d</fix>
</trkpt>
<trkpt lat="33.810313" lon="-118.393867">
  <ele>-0.125</ele>
  <time>2026-09-01T01:15:33Z</time>
  <course>187.76</course>
  <speed>0.0282842712474619</speed>
  <fix>3d</fix>
</trkpt>
<trkpt lat="33.810313" lon="-118.393867">
  <ele>-0.12</ele>
  <time>2026-09-01T01:15:33Z</time>
  <course>0.0</course>
  <speed>0.0</speed>
  <fix>3d</fix>
</trkpt>
<trkpt lat="33.810313" lon="-118.393867">
  <ele>-0.124</ele>
  <time>2026-09-01T01:15:33Z</time>
  <course>187.75</course>
  <speed>0.0282842712474619</speed>
  <fix>3d</fix>
</trkpt>
<trkpt lat="33.810313" lon="-118.393867">
  <ele>-0.12</ele>
  <time>2026-09-01T01:15:33Z</time>
  <course>0.0</course>
  <speed>0.0</speed>
  <fix>3d</fix>
</trkpt>
<trkpt lat="33.810313" lon="-118.393867">
  <ele>-0.121</ele>
  <time>2026-09-01T01:15:33Z</time>
  <course>187.74</course>
  <speed>0.0282842712474619</speed>
  <fix>3d</fix>
</trkpt>
<trkpt lat="33.810313" lon="-118.393867">
  <ele>-0.12</ele>
  <time>2026-09-01T01:15:33Z</time>
  <course>0.0</course>
  <speed>0.0</speed>
  <fix>3d</fix>
</trkpt>
<trkpt lat="33.810313" lon="-118.393867">
  <ele>-0.119</ele>
  <time>2026-09-01T01:15:33Z</time>
  <course>187.73</course>
  <speed>0.0282842712474619</speed>
  <fix>3d</fix>
</trkpt>
<trkpt lat="33.810313" lon="-118.393867">
  <ele>-0.12</ele>
  <time>2026-09-01T01:15:33Z</time>
  <course>0.0</course>
  <speed>0.0</speed>
  <fix>3d</fix>
</trkpt>
<trkpt lat="33.810313" lon="-118.393867">
  <ele>-0.117</ele>
  <time>2026-09-01T01:15:33Z</time>
  <course>187.73</course>
  <speed>0.0282842712474619</speed>
  <fix>3d</fix>
</trkpt>
<trkpt lat="33.810313" lon="-118.393867">
  <ele>-0.12</ele>
  <time>2026-09-01T01:15:33Z</time>
  <course>0.0</course>
  <speed>0.0</speed>
  <fix>3d</fix>
</trkpt>
<trkpt lat="33.810313" lon="-118.393867">
  <ele>-0.114</ele>
  <time>2026-09-01T01:15:33Z</time>
  <course>187.72</course>
  <speed>0.0282842712474619</speed>
  <fix>3d</fix>
</trkpt>
<trkpt lat="33.810313" lon="-118.393867">
  <ele>-0.12</ele>
  <time>2026-09-01T01:15:33Z</time>
  <course>0.0</course>
  <speed>0.0</speed>
  <fix>3d</fix>
</trkpt>
<trkpt lat="33.810313" lon="-118.393867">
  <ele>-0.112</ele>
  <time>2026-09-01T01:15:33Z</time>
  <course>187.71</course>
  <speed>0.0282842712474619</speed>
  <fix>3d</fix>
</trkpt>
<trkpt lat="33.810313" lon="-118.393867">
  <ele>-0.12</ele>
  <time>2026-09-01T01:15:33Z</time>
  <course>0.0</course>
  <speed>0.0</speed>
  <fix>3d</fix>
</trkpt>
<trkpt lat="33.810313" lon="-118.393867">
  <ele>-0.111</ele>
  <time>2026-09-01T01:15:33Z</time>
  <course>187.7</course>
  <speed>0.0282842712474619</speed>
  <fix>3d</fix>
</trkpt>
<trkpt lat="33.810313" lon="-118.393867">
  <ele>-0.12</ele>
  <time>2026-09-01T01:15:33Z</time>
  <course>0.0</course>
  <speed>0.0</speed>
  <fix>3d</fix>
</trkpt>
<trkpt lat="33.810313" lon="-118.393867">
  <ele>-0.11</ele>
  <time>2026-09-01T01:15:34Z</time>
  <course>187.7</course>
  <speed>0.0282842712474619</speed>
  <fix>3d</fix>
</trkpt>
<trkpt lat="33.810313" lon="-118.393867">
  <ele>-0.12</ele>
  <time>2026-09-01T01:15:34Z</time>
  <course>0.0</course>
  <speed>0.0</speed>
  <fix>3d</fix>
</trkpt>
<trkpt lat="33.810313" lon="-118.393867">
  <ele>-0.111</ele>
  <time>2026-09-01T01:15:34Z</time>
  <course>187.69</course>
  <speed>0.0282842712474619</speed>
  <fix>3d</fix>
</trkpt>
<trkpt lat="33.810313" lon="-118.393867">
  <ele>-0.12</ele>
  <time>2026-09-01T01:15:34Z</time>
  <course>0.0</course>
  <speed>0.0</speed>
  <fix>3d</fix>
</trkpt>
<trkpt lat="33.810313" lon="-118.393867">
  <ele>-0.113</ele>
  <time>2026-09-01T01:15:34Z</time>
  <course>187.68</course>
  <speed>0.0282842712474619</speed>
  <fix>3d</fix>
</trkpt>
<trkpt lat="33.810313" lon="-118.393867">
  <ele>-0.12</ele>
  <time>2026-09-01T01:15:34Z</time>
  <course>0.0</course>
  <speed>0.0</speed>
  <fix>3d</fix>
</trkpt>
<trkpt lat="33.810313" lon="-118.393867">
  <ele>-0.115</ele>
  <time>2026-09-01T01:15:34Z</time>
  <course>187.68</course>
  <speed>0.0282842712474619</speed>
  <fix>3d</fix>
</trkpt>
<trkpt lat="33.810313" lon="-118.393867">
  <ele>-0.12</ele>
  <time>2026-09-01T01:15:34Z</time>
  <course>0.0</course>
  <speed>0.0</speed>
  <fix>3d</fix>
</trkpt>
<trkpt lat="33.810313" lon="-118.393867">
  <ele>-0.117</ele>
  <time>2026-09-01T01:15:34Z</time>
  <course>187.67</course>
  <speed>0.0282842712474619</speed>
  <fix>3d</fix>
</trkpt>
<trkpt lat="33.810313" lon="-118.393867">
  <ele>-0.12</ele>
  <time>2026-09-01T01:15:34Z</time>
  <course>0.0</course>
  <speed>0.0</speed>
  <fix>3d</fix>
</trkpt>
<trkpt lat="33.810313" lon="-118.393867">
  <ele>-0.117</ele>
  <time>2026-09-01T01:15:34Z</time>
  <course>187.66</course>
  <speed>0.0282842712474619</speed>
  <fix>3d</fix>
</trkpt>
<trkpt lat="33.810313" lon="-118.393867">
  <ele>-0.12</ele>
  <time>2026-09-01T01:15:34Z</time>
  <course>0.0</course>
  <speed>0.0</speed>
  <fix>3d</fix>
</trkpt>
<trkpt lat="33.810313" lon="-118.393867">
  <ele>-0.117</ele>
  <time>2026-09-01T01:15:34Z</time>
  <course>187.65</course>
  <speed>0.0282842712474619</speed>
  <fix>3d</fix>
</trkpt>
<trkpt lat="33.810313" lon="-118.393867">
  <ele>-0.12</ele>
  <time>2026-09-01T01:15:34Z</time>
  <course>0.0</course>
  <speed>0.0</speed>
  <fix>3d</fix>
</trkpt>
<trkpt lat="33.810313" lon="-118.393867">
  <ele>-0.116</ele>
  <time>2026-09-01T01:15:34Z</time>
  <course>187.65</course>
  <speed>0.0282842712474619</speed>
  <fix>3d</fix>
</trkpt>
<trkpt lat="33.810313" lon="-118.393867">
  <ele>-0.12</ele>
  <time>2026-09-01T01:15:34Z</time>
  <course>0.0</course>
  <speed>0.0</speed>
  <fix>3d</fix>
</trkpt>
<trkpt lat="33.810313" lon="-118.393867">
  <ele>-0.113</ele>
  <time>2026-09-01T01:15:34Z</time>
  <course>187.64</course>
  <speed>0.0282842712474619</speed>
  <fix>3d</fix>
</trkpt>
<trkpt lat="33.810313" lon="-118.393867">
  <ele>-0.12</ele>
  <time>2026-09-01T01:15:34Z</time>
  <course>0.0</course>
  <speed>0.0</speed>
  <fix>3d</fix>
</trkpt>
<trkpt lat="33.810313" lon="-118.393867">
  <ele>-0.111</ele>
  <time>2026-09-01T01:15:34Z</time>
  <course>187.63</course>
  <speed>0.0282842712474619</speed>
  <fix>3d</fix>
</trkpt>
<trkpt lat="33.810313" lon="-118.393867">
  <ele>-0.12</ele>
  <time>2026-09-01T01:15:34Z</time>
  <course>0.0</course>
  <speed>0.0</speed>
  <fix>3d</fix>
</trkpt>
<trkpt lat="33.810313" lon="-118.393867">
  <ele>-0.108</ele>
  <time>2026-09-01T01:15:35Z</time>
  <course>187.63</course>
  <speed>0.0282842712474619</speed>
  <fix>3d</fix>
</trkpt>
<trkpt lat="33.810313" lon="-118.393867">
  <ele>-0.12</ele>
  <time>2026-09-01T01:15:35Z</time>
  <course>0.0</course>
  <speed>0.0</speed>
  <fix>3d</fix>
</trkpt>
<trkpt lat="33.810313" lon="-118.393867">
  <ele>-0.107</ele>
  <time>2026-09-01T01:15:35Z</time>
  <course>187.62</course>
  <speed>0.0282842712474619</speed>
  <fix>3d</fix>
</trkpt>
<trkpt lat="33.810313" lon="-118.393867">
  <ele>-0.12</ele>
  <time>2026-09-01T01:15:35Z</time>
  <course>0.0</course>
  <speed>0.0</speed>
  <fix>3d</fix>
</trkpt>
<trkpt lat="33.810313" lon="-118.393867">
  <ele>-0.106</ele>
  <time>2026-09-01T01:15:35Z</time>
  <course>187.62</course>
  <speed>0.0282842712474619</speed>
  <fix>3d</fix>
</trkpt>
<trkpt lat="33.810313" lon="-118.393867">
  <ele>-0.12</ele>
  <time>2026-09-01T01:15:35Z</time>
  <course>0.0</course>
  <speed>0.0</speed>
  <fix>3d</fix>
</trkpt>
<trkpt lat="33.810313" lon="-118.393867">
  <ele>-0.107</ele>
  <time>2026-09-01T01:15:35Z</time>
  <course>187.61</course>
  <speed>0.0282842712474619</speed>
  <fix>3d</fix>
</trkpt>
<trkpt lat="33.810313" lon="-118.393867">
  <ele>-0.12</ele>
  <time>2026-09-01T01:15:35Z</time>
  <course>0.0</course>
  <speed>0.0</speed>
  <fix>3d</fix>
</trkpt>
<trkpt lat="33.810313" lon="-118.393867">
  <ele>-0.109</ele>
  <time>2026-09-01T01:15:35Z</time>
  <course>187.6</course>
  <speed>0.03605551275463989</speed>
  <fix>3d</fix>
</trkpt>
<trkpt lat="33.810313" lon="-118.393867">
  <ele>-0.12</ele>
  <time>2026-09-01T01:15:35Z</time>
  <course>0.0</course>
  <speed>0.0</speed>
  <fix>3d</fix>
</trkpt>
<trkpt lat="33.810313" lon="-118.393867">
  <ele>-0.11</ele>
  <time>2026-09-01T01:15:35Z</time>
  <course>187.6</course>
  <speed>0.03605551275463989</speed>
  <fix>3d</fix>
</trkpt>
<trkpt lat="33.810313" lon="-118.393867">
  <ele>-0.12</ele>
  <time>2026-09-01T01:15:35Z</time>
  <course>0.0</course>
  <speed>0.0</speed>
  <fix>3d</fix>
</trkpt>
<trkpt lat="33.810313" lon="-118.393867">
  <ele>-0.112</ele>
  <time>2026-09-01T01:15:35Z</time>
  <course>187.59</course>
  <speed>0.03605551275463989</speed>
  <fix>3d</fix>
</trkpt>
<trkpt lat="33.810313" lon="-118.393867">
  <ele>-0.12</ele>
  <time>2026-09-01T01:15:35Z</time>
  <course>0.0</course>
  <speed>0.0</speed>
  <fix>3d</fix>
</trkpt>
<trkpt lat="33.810313" lon="-118.393867">
  <ele>-0.114</ele>
  <time>2026-09-01T01:15:35Z</time>
  <course>187.58</course>
  <speed>0.03605551275463989</speed>
  <fix>3d</fix>
</trkpt>
<trkpt lat="33.810313" lon="-118.393867">
  <ele>-0.12</ele>
  <time>2026-09-01T01:15:35Z</time>
  <course>0.0</course>
  <speed>0.0</speed>
  <fix>3d</fix>
</trkpt>
<trkpt lat="33.810313" lon="-118.393867">
  <ele>-0.115</ele>
  <time>2026-09-01T01:15:35Z</time>
  <course>187.57</course>
  <speed>0.03605551275463989</speed>
  <fix>3d</fix>
</trkpt>
<trkpt lat="33.810313" lon="-118.393867">
  <ele>-0.12</ele>
  <time>2026-09-01T01:15:35Z</time>
  <course>0.0</course>
  <speed>0.0</speed>
  <fix>3d</fix>
</trkpt>
<trkpt lat="33.810313" lon="-118.393867">
  <ele>-0.115</ele>
  <time>2026-09-01T01:15:35Z</time>
  <course>187.57</course>
  <speed>0.03605551275463989</speed>
  <fix>3d</fix>
</trkpt>
<trkpt lat="33.810313" lon="-118.393867">
  <ele>-0.12</ele>
  <time>2026-09-01T01:15:35Z</time>
  <course>0.0</course>
  <speed>0.0</speed>
  <fix>3d</fix>
</trkpt>
<trkpt lat="33.810313" lon="-118.393867">
  <ele>-0.115</ele>
  <time>2026-09-01T01:15:36Z</time>
  <course>187.56</course>
  <speed>0.03605551275463989</speed>
  <fix>3d</fix>
</trkpt>
<trkpt lat="33.810313" lon="-118.393867">
  <ele>-0.12</ele>
  <time>2026-09-01T01:15:36Z</time>
  <course>0.0</course>
  <speed>0.0</speed>
  <fix>3d</fix>
</trkpt>
<trkpt lat="33.810313" lon="-118.393867">
  <ele>-0.117</ele>
  <time>2026-09-01T01:15:36Z</time>
  <course>187.55</course>
  <speed>0.03605551275463989</speed>
  <fix>3d</fix>
</trkpt>
<trkpt lat="33.810313" lon="-118.393867">
  <ele>-0.12</ele>
  <time>2026-09-01T01:15:36Z</time>
  <course>0.0</course>
  <speed>0.0</speed>
  <fix>3d</fix>
</trkpt>
<trkpt lat="33.810313" lon="-118.393867">
  <ele>-0.119</ele>
  <time>2026-09-01T01:15:36Z</time>
  <course>187.55</course>
  <speed>0.03605551275463989</speed>
  <fix>3d</fix>
</trkpt>
<trkpt lat="33.810313" lon="-118.393867">
  <ele>-0.12</ele>
  <time>2026-09-01T01:15:36Z</time>
  <course>0.0</course>
  <speed>0.0</speed>
  <fix>3d</fix>
</trkpt>
<trkpt lat="33.810313" lon="-118.393867">
  <ele>-0.122</ele>
  <time>2026-09-01T01:15:36Z</time>
  <course>187.54</course>
  <speed>0.03605551275463989</speed>
  <fix>3d</fix>
</trkpt>
<trkpt lat="33.810313" lon="-118.393867">
  <ele>-0.12</ele>
  <time>2026-09-01T01:15:36Z</time>
  <course>0.0</course>
  <speed>0.0</speed>
  <fix>3d</fix>
</trkpt>
<trkpt lat="33.810313" lon="-118.393867">
  <ele>-0.126</ele>
  <time>2026-09-01T01:15:36Z</time>
  <course>187.53</course>
  <speed>0.03605551275463989</speed>
  <fix>3d</fix>
</trkpt>
<trkpt lat="33.810313" lon="-118.393867">
  <ele>-0.12</ele>
  <time>2026-09-01T01:15:36Z</time>
  <course>0.0</course>
  <speed>0.0</speed>
  <fix>3d</fix>
</trkpt>
<trkpt lat="33.810313" lon="-118.393867">
  <ele>-0.129</ele>
  <time>2026-09-01T01:15:36Z</time>
  <course>187.53</course>
  <speed>0.03605551275463989</speed>
  <fix>3d</fix>
</trkpt>
<trkpt lat="33.810313" lon="-118.393867">
  <ele>-0.12</ele>
  <time>2026-09-01T01:15:36Z</time>
  <course>0.0</course>
  <speed>0.0</speed>
  <fix>3d</fix>
</trkpt>
<trkpt lat="33.810313" lon="-118.393867">
  <ele>-0.132</ele>
  <time>2026-09-01T01:15:36Z</time>
  <course>187.52</course>
  <speed>0.03605551275463989</speed>
  <fix>3d</fix>
</trkpt>
<trkpt lat="33.810313" lon="-118.393867">
  <ele>-0.12</ele>
  <time>2026-09-01T01:15:36Z</time>
  <course>0.0</course>
  <speed>0.0</speed>
  <fix>3d</fix>
</trkpt>
<trkpt lat="33.810313" lon="-118.393867">
  <ele>-0.133</ele>
  <time>2026-09-01T01:15:36Z</time>
  <course>187.52</course>
  <speed>0.03605551275463989</speed>
  <fix>3d</fix>
</trkpt>
<trkpt lat="33.810313" lon="-118.393867">
  <ele>-0.12</ele>
  <time>2026-09-01T01:15:36Z</time>
  <course>0.0</course>
  <speed>0.0</speed>
  <fix>3d</fix>
</trkpt>
<trkpt lat="33.810313" lon="-118.393867">
  <ele>-0.132</ele>
  <time>2026-09-01T01:15:36Z</time>
  <course>187.51</course>
  <speed>0.03605551275463989</speed>
  <fix>3d</fix>
</trkpt>
<trkpt lat="33.810313" lon="-118.393867">
  <ele>-0.12</ele>
  <time>2026-09-01T01:15:36Z</time>
  <course>0.0</course>
  <speed>0.0</speed>
  <fix>3d</fix>
</trkpt>
<trkpt lat="33.810313" lon="-118.393867">
  <ele>-0.13</ele>
  <time>2026-09-01T01:15:36Z</time>
  <course>187.5</course>
  <speed>0.03605551275463989</speed>
  <fix>3d</fix>
</trkpt>
<trkpt lat="33.810313" lon="-118.393867">
  <ele>-0.12</ele>
  <time>2026-09-01T01:15:36Z</time>
  <course>0.0</course>
  <speed>0.0</speed>
  <fix>3d</fix>
</trkpt>
<trkpt lat="33.810313" lon="-118.393867">
  <ele>-0.126</ele>
  <time>2026-09-01T01:15:37Z</time>
  <course>187.5</course>
  <speed>0.03605551275463989</speed>
  <fix>3d</fix>
</trkpt>
<trkpt lat="33.810313" lon="-118.393867">
  <ele>-0.12</ele>
  <time>2026-09-01T01:15:37Z</time>
  <course>0.0</course>
  <speed>0.0</speed>
  <fix>3d</fix>
</trkpt>
<trkpt lat="33.810313" lon="-118.393867">
  <ele>-0.123</ele>
  <time>2026-09-01T01:15:37Z</time>
  <course>187.49</course>
  <speed>0.03605551275463989</speed>
  <fix>3d</fix>
</trkpt>
<trkpt lat="33.810313" lon="-118.393867">
  <ele>-0.12</ele>
  <time>2026-09-01T01:15:37Z</time>
  <course>0.0</course>
  <speed>0.0</speed>
  <fix>3d</fix>
</trkpt>
<trkpt lat="33.810313" lon="-118.393867">
  <ele>-0.121</ele>
  <time>2026-09-01T01:15:37Z</time>
  <course>187.48</course>
  <speed>0.03605551275463989</speed>
  <fix>3d</fix>
</trkpt>
<trkpt lat="33.810313" lon="-118.393867">
  <ele>-0.12</ele>
  <time>2026-09-01T01:15:37Z</time>
  <course>0.0</course>
  <speed>0.0</speed>
  <fix>3d</fix>
</trkpt>
<trkpt lat="33.810313" lon="-118.393867">
  <ele>-0.12</ele>
  <time>2026-09-01T01:15:37Z</time>
  <course>187.48</course>
  <speed>0.03605551275463989</speed>
  <fix>3d</fix>
</trkpt>
<trkpt lat="33.810313" lon="-118.393867">
  <ele>-0.12</ele>
  <time>2026-09-01T01:15:37Z</time>
  <course>0.0</course>
  <speed>0.0</speed>
  <fix>3d</fix>
</trkpt>
<trkpt lat="33.810313" lon="-118.393867">
  <ele>-0.12</ele>
  <time>2026-09-01T01:15:37Z</time>
  <course>187.47</course>
  <speed>0.03605551275463989</speed>
  <fix>3d</fix>
</trkpt>
<trkpt lat="33.810313" lon="-118.393867">
  <ele>-0.12</ele>
  <time>2026-09-01T01:15:37Z</time>
  <course>0.0</course>
  <speed>0.0</speed>
  <fix>3d</fix>
</trkpt>
<trkpt lat="33.810313" lon="-118.393867">
  <ele>-0.121</ele>
  <time>2026-09-01T01:15:37Z</time>
  <course>187.46</course>
  <speed>0.03605551275463989</speed>
  <fix>3d</fix>
</trkpt>
<trkpt lat="33.810313" lon="-118.393867">
  <ele>-0.12</ele>
  <time>2026-09-01T01:15:37Z</time>
  <course>0.0</course>
  <speed>0.0</speed>
  <fix>3d</fix>
</trkpt>
<trkpt lat="33.810313" lon="-118.393867">
  <ele>-0.123</ele>
  <time>2026-09-01T01:15:37Z</time>
  <course>187.46</course>
  <speed>0.03605551275463989</speed>
  <fix>3d</fix>
</trkpt>
<trkpt lat="33.810313" lon="-118.393867">
  <ele>-0.12</ele>
  <time>2026-09-01T01:15:37Z</time>
  <course>0.0</course>
  <speed>0.0</speed>
  <fix>3d</fix>
</trkpt>
<trkpt lat="33.810313" lon="-118.393867">
  <ele>-0.123</ele>
  <time>2026-09-01T01:15:37Z</time>
  <course>187.45</course>
  <speed>0.03605551275463989</speed>
  <fix>3d</fix>
</trkpt>
<trkpt lat="33.810313" lon="-118.393867">
  <ele>-0.12</ele>
  <time>2026-09-01T01:15:37Z</time>
  <course>0.0</course>
  <speed>0.0</speed>
  <fix>3d</fix>
</trkpt>
<trkpt lat="33.810313" lon="-118.393867">
  <ele>-0.122</ele>
  <time>2026-09-01T01:15:37Z</time>
  <course>187.45</course>
  <speed>0.03605551275463989</speed>
  <fix>3d</fix>
</trkpt>
<trkpt lat="33.810313" lon="-118.393867">
  <ele>-0.12</ele>
  <time>2026-09-01T01:15:37Z</time>
  <course>0.0</course>
  <speed>0.0</speed>
  <fix>3d</fix>
</trkpt>
<trkpt lat="33.810313" lon="-118.393867">
  <ele>-0.119</ele>
  <time>2026-09-01T01:15:37Z</time>
  <course>187.44</course>
  <speed>0.03605551275463989</speed>
  <fix>3d</fix>
</trkpt>
<trkpt lat="33.810313" lon="-118.393867">
  <ele>-0.12</ele>
  <time>2026-09-01T01:15:37Z</time>
  <course>0.0</course>
  <speed>0.0</speed>
  <fix>3d</fix>
</trkpt>
<trkpt lat="33.810313" lon="-118.393867">
  <ele>-0.115</ele>
  <time>2026-09-01T01:15:39Z</time>
  <course>187.43</course>
  <speed>0.03605551275463989</speed>
  <fix>3d</fix>
</trkpt>
<trkpt lat="33.810313" lon="-118.393867">
  <ele>-0.12</ele>
  <time>2026-09-01T01:15:39Z</time>
  <course>0.0</course>
  <speed>0.0</speed>
  <fix>3d</fix>
</trkpt>
<trkpt lat="33.810313" lon="-118.393867">
  <ele>-0.112</ele>
  <time>2026-09-01T01:15:39Z</time>
  <course>187.43</course>
  <speed>0.03605551275463989</speed>
  <fix>3d</fix>
</trkpt>
<trkpt lat="33.810313" lon="-118.393867">
  <ele>-0.12</ele>
  <time>2026-09-01T01:15:39Z</time>
  <course>0.0</course>
  <speed>0.0</speed>
  <fix>3d</fix>
</trkpt>
<trkpt lat="33.810313" lon="-118.393867">
  <ele>-0.109</ele>
  <time>2026-09-01T01:15:39Z</time>
  <course>187.42</course>
  <speed>0.03605551275463989</speed>
  <fix>3d</fix>
</trkpt>
<trkpt lat="33.810313" lon="-118.393867">
  <ele>-0.12</ele>
  <time>2026-09-01T01:15:39Z</time>
  <course>0.0</course>
  <speed>0.0</speed>
  <fix>3d</fix>
</trkpt>
<trkpt lat="33.810313" lon="-118.393867">
  <ele>-0.107</ele>
  <time>2026-09-01T01:15:39Z</time>
  <course>187.41</course>
  <speed>0.03605551275463989</speed>
  <fix>3d</fix>
</trkpt>
<trkpt lat="33.810313" lon="-118.393867">
  <ele>-0.12</ele>
  <time>2026-09-01T01:15:39Z</time>
  <course>0.0</course>
  <speed>0.0</speed>
  <fix>3d</fix>
</trkpt>
<trkpt lat="33.810313" lon="-118.393867">
  <ele>-0.107</ele>
  <time>2026-09-01T01:15:39Z</time>
  <course>187.41</course>
  <speed>0.03605551275463989</speed>
  <fix>3d</fix>
</trkpt>
<trkpt lat="33.810313" lon="-118.393867">
  <ele>-0.12</ele>
  <time>2026-09-01T01:15:39Z</time>
  <course>0.0</course>
  <speed>0.0</speed>
  <fix>3d</fix>
</trkpt>
<trkpt lat="33.810313" lon="-118.393867">
  <ele>-0.109</ele>
  <time>2026-09-01T01:15:39Z</time>
  <course>187.4</course>
  <speed>0.03605551275463989</speed>
  <fix>3d</fix>
</trkpt>
<trkpt lat="33.810313" lon="-118.393867">
  <ele>-0.12</ele>
  <time>2026-09-01T01:15:39Z</time>
  <course>0.0</course>
  <speed>0.0</speed>
  <fix>3d</fix>
</trkpt>
<trkpt lat="33.810313" lon="-118.393867">
  <ele>-0.111</ele>
  <time>2026-09-01T01:15:39Z</time>
  <course>187.4</course>
  <speed>0.03605551275463989</speed>
  <fix>3d</fix>
</trkpt>
<trkpt lat="33.810313" lon="-118.393867">
  <ele>-0.12</ele>
  <time>2026-09-01T01:15:39Z</time>
  <course>0.0</course>
  <speed>0.0</speed>
  <fix>3d</fix>
</trkpt>
<trkpt lat="33.810313" lon="-118.393867">
  <ele>-0.113</ele>
  <time>2026-09-01T01:15:39Z</time>
  <course>187.39</course>
  <speed>0.03605551275463989</speed>
  <fix>3d</fix>
</trkpt>
<trkpt lat="33.810313" lon="-118.393867">
  <ele>-0.12</ele>
  <time>2026-09-01T01:15:39Z</time>
  <course>0.0</course>
  <speed>0.0</speed>
  <fix>3d</fix>
</trkpt>
<trkpt lat="33.810313" lon="-118.393867">
  <ele>-0.113</ele>
  <time>2026-09-01T01:15:39Z</time>
  <course>187.38</course>
  <speed>0.03605551275463989</speed>
  <fix>3d</fix>
</trkpt>
<trkpt lat="33.810313" lon="-118.393867">
  <ele>-0.12</ele>
  <time>2026-09-01T01:15:39Z</time>
  <course>0.0</course>
  <speed>0.0</speed>
  <fix>3d</fix>
</trkpt>
<trkpt lat="33.810313" lon="-118.393867">
  <ele>-0.113</ele>
  <time>2026-09-01T01:15:39Z</time>
  <course>187.38</course>
  <speed>0.03605551275463989</speed>
  <fix>3d</fix>
</trkpt>
<trkpt lat="33.810313" lon="-118.393867">
  <ele>-0.12</ele>
  <time>2026-09-01T01:15:39Z</time>
  <course>0.0</course>
  <speed>0.0</speed>
  <fix>3d</fix>
</trkpt>
<trkpt lat="33.810313" lon="-118.393867">
  <ele>-0.112</ele>
  <time>2026-09-01T01:15:39Z</time>
  <course>187.37</course>
  <speed>0.03605551275463989</speed>
  <fix>3d</fix>
</trkpt>
<trkpt lat="33.810313" lon="-118.393867">
  <ele>-0.12</ele>
  <time>2026-09-01T01:15:39Z</time>
  <course>0.0</course>
  <speed>0.0</speed>
  <fix>3d</fix>
</trkpt>
<trkpt lat="33.810313" lon="-118.393867">
  <ele>-0.11</ele>
  <time>2026-09-01T01:15:39Z</time>
  <course>187.37</course>
  <speed>0.03605551275463989</speed>
  <fix>3d</fix>
</trkpt>
<trkpt lat="33.810313" lon="-118.393867">
  <ele>-0.12</ele>
  <time>2026-09-01T01:15:39Z</time>
  <course>0.0</course>
  <speed>0.0</speed>
  <fix>3d</fix>
</trkpt>
<trkpt lat="33.810313" lon="-118.393867">
  <ele>-0.108</ele>
  <time>2026-09-01T01:15:39Z</time>
  <course>187.36</course>
  <speed>0.03605551275463989</speed>
  <fix>3d</fix>
</trkpt>
<trkpt lat="33.810313" lon="-118.393867">
  <ele>-0.12</ele>
  <time>2026-09-01T01:15:39Z</time>
  <course>0.0</course>
  <speed>0.0</speed>
  <fix>3d</fix>
</trkpt>
<trkpt lat="33.810313" lon="-118.393867">
  <ele>-0.106</ele>
  <time>2026-09-01T01:15:39Z</time>
  <course>187.35</course>
  <speed>0.03605551275463989</speed>
  <fix>3d</fix>
</trkpt>
<trkpt lat="33.810313" lon="-118.393867">
  <ele>-0.12</ele>
  <time>2026-09-01T01:15:39Z</time>
  <course>0.0</course>
  <speed>0.0</speed>
  <fix>3d</fix>
</trkpt>
<trkpt lat="33.810313" lon="-118.393867">
  <ele>-0.106</ele>
  <time>2026-09-01T01:15:39Z</time>
  <course>187.35</course>
  <speed>0.03605551275463989</speed>
  <fix>3d</fix>
</trkpt>
<trkpt lat="33.810313" lon="-118.393867">
  <ele>-0.12</ele>
  <time>2026-09-01T01:15:39Z</time>
  <course>0.0</course>
  <speed>0.0</speed>
  <fix>3d</fix>
</trkpt>
<trkpt lat="33.810313" lon="-118.393867">
  <ele>-0.106</ele>
  <time>2026-09-01T01:15:39Z</time>
  <course>187.34</course>
  <speed>0.03605551275463989</speed>
  <fix>3d</fix>
</trkpt>
<trkpt lat="33.810313" lon="-118.393867">
  <ele>-0.12</ele>
  <time>2026-09-01T01:15:39Z</time>
  <course>0.0</course>
  <speed>0.0</speed>
  <fix>3d</fix>
</trkpt>
<trkpt lat="33.810313" lon="-118.393867">
  <ele>-0.108</ele>
  <time>2026-09-01T01:15:39Z</time>
  <course>187.34</course>
  <speed>0.03605551275463989</speed>
  <fix>3d</fix>
</trkpt>
<trkpt lat="33.810313" lon="-118.393867">
  <ele>-0.12</ele>
  <time>2026-09-01T01:15:39Z</time>
  <course>0.0</course>
  <speed>0.0</speed>
  <fix>3d</fix>
</trkpt>
<trkpt lat="33.810313" lon="-118.393867">
  <ele>-0.109</ele>
  <time>2026-09-01T01:15:39Z</time>
  <course>187.33</course>
  <speed>0.03605551275463989</speed>
  <fix>3d</fix>
</trkpt>
<trkpt lat="33.810313" lon="-118.393867">
  <ele>-0.12</ele>
  <time>2026-09-01T01:15:39Z</time>
  <course>0.0</course>
  <speed>0.0</speed>
  <fix>3d</fix>
</trkpt>
<trkpt lat="33.810313" lon="-118.393867">
  <ele>-0.11</ele>
  <time>2026-09-01T01:15:39Z</time>
  <course>187.33</course>
  <speed>0.03605551275463989</speed>
  <fix>3d</fix>
</trkpt>
<trkpt lat="33.810313" lon="-118.393867">
  <ele>-0.12</ele>
  <time>2026-09-01T01:15:39Z</time>
  <course>0.0</course>
  <speed>0.0</speed>
  <fix>3d</fix>
</trkpt>
<trkpt lat="33.810313" lon="-118.393867">
  <ele>-0.11</ele>
  <time>2026-09-01T01:15:39Z</time>
  <course>187.32</course>
  <speed>0.03605551275463989</speed>
  <fix>3d</fix>
</trkpt>
<trkpt lat="33.810313" lon="-118.393867">
  <ele>-0.12</ele>
  <time>2026-09-01T01:15:39Z</time>
  <course>0.0</course>
  <speed>0.0</speed>
  <fix>3d</fix>
</trkpt>
<trkpt lat="33.810313" lon="-118.393867">
  <ele>-0.11</ele>
  <time>2026-09-01T01:15:39Z</time>
  <course>187.32</course>
  <speed>0.03605551275463989</speed>
  <fix>3d</fix>
</trkpt>
<trkpt lat="33.810313" lon="-118.393867">
  <ele>-0.12</ele>
  <time>2026-09-01T01:15:39Z</time>
  <course>0.0</course>
  <speed>0.0</speed>
  <fix>3d</fix>
</trkpt>
<trkpt lat="33.810313" lon="-118.393867">
  <ele>-0.109</ele>
  <time>2026-09-01T01:15:39Z</time>
  <course>187.31</course>
  <speed>0.03605551275463989</speed>
  <fix>3d</fix>
</trkpt>
<trkpt lat="33.810313" lon="-118.393867">
  <ele>-0.12</ele>
  <time>2026-09-01T01:15:39Z</time>
  <course>0.0</course>
  <speed>0.0</speed>
  <fix>3d</fix>
</trkpt>
<trkpt lat="33.810313" lon="-118.393867">
  <ele>-0.107</ele>
  <time>2026-09-01T01:15:39Z</time>
  <course>187.31</course>
  <speed>0.03605551275463989</speed>
  <fix>3d</fix>
</trkpt>
<trkpt lat="33.810313" lon="-118.393867">
  <ele>-0.12</ele>
  <time>2026-09-01T01:15:39Z</time>
  <course>0.0</course>
  <speed>0.0</speed>
  <fix>3d</fix>
</trkpt>
<trkpt lat="33.810313" lon="-118.393867">
  <ele>-0.106</ele>
  <time>2026-09-01T01:15:39Z</time>
  <course>187.3</course>
  <speed>0.03605551275463989</speed>
  <fix>3d</fix>
</trkpt>
<trkpt lat="33.810313" lon="-118.393867">
  <ele>-0.12</ele>
  <time>2026-09-01T01:15:39Z</time>
  <course>0.0</course>
  <speed>0.0</speed>
  <fix>3d</fix>
</trkpt>
<trkpt lat="33.810313" lon="-118.393867">
  <ele>-0.106</ele>
  <time>2026-09-01T01:15:39Z</time>
  <course>187.29</course>
  <speed>0.03605551275463989</speed>
  <fix>3d</fix>
</trkpt>
<trkpt lat="33.810313" lon="-118.393867">
  <ele>-0.12</ele>
  <time>2026-09-01T01:15:39Z</time>
  <course>0.0</course>
  <speed>0.0</speed>
  <fix>3d</fix>
</trkpt>
<trkpt lat="33.810313" lon="-118.393867">
  <ele>-0.107</ele>
  <time>2026-09-01T01:15:39Z</time>
  <course>187.29</course>
  <speed>0.03605551275463989</speed>
  <fix>3d</fix>
</trkpt>
<trkpt lat="33.810313" lon="-118.393867">
  <ele>-0.12</ele>
  <time>2026-09-01T01:15:39Z</time>
  <course>0.0</course>
  <speed>0.0</speed>
  <fix>3d</fix>
</trkpt>
<trkpt lat="33.810313" lon="-118.393867">
  <ele>-0.109</ele>
  <time>2026-09-01T01:15:39Z</time>
  <course>187.28</course>
  <speed>0.03605551275463989</speed>
  <fix>3d</fix>
</trkpt>
<trkpt lat="33.810313" lon="-118.393867">
  <ele>-0.12</ele>
  <time>2026-09-01T01:15:39Z</time>
  <course>0.0</course>
  <speed>0.0</speed>
  <fix>3d</fix>
</trkpt>
<trkpt lat="33.810313" lon="-118.393867">
  <ele>-0.112</ele>
  <time>2026-09-01T01:15:40Z</time>
  <course>187.28</course>
  <speed>0.03605551275463989</speed>
  <fix>3d</fix>
</trkpt>
<trkpt lat="33.810313" lon="-118.393867">
  <ele>-0.12</ele>
  <time>2026-09-01T01:15:40Z</time>
  <course>0.0</course>
  <speed>0.0</speed>
  <fix>3d</fix>
</trkpt>
<trkpt lat="33.810313" lon="-118.393867">
  <ele>-0.114</ele>
  <time>2026-09-01T01:15:40Z</time>
  <course>187.27</course>
  <speed>0.03605551275463989</speed>
  <fix>3d</fix>
</trkpt>
<trkpt lat="33.810313" lon="-118.393867">
  <ele>-0.12</ele>
  <time>2026-09-01T01:15:40Z</time>
  <course>0.0</course>
  <speed>0.0</speed>
  <fix>3d</fix>
</trkpt>
<trkpt lat="33.810313" lon="-118.393867">
  <ele>-0.115</ele>
  <time>2026-09-01T01:15:41Z</time>
  <course>187.27</course>
  <speed>0.03605551275463989</speed>
  <fix>3d</fix>
</trkpt>
<trkpt lat="33.810313" lon="-118.393867">
  <ele>-0.12</ele>
  <time>2026-09-01T01:15:41Z</time>
  <course>0.0</course>
  <speed>0.0</speed>
  <fix>3d</fix>
</trkpt>
<trkpt lat="33.810313" lon="-118.393867">
  <ele>-0.115</ele>
  <time>2026-09-01T01:15:41Z</time>
  <course>187.26</course>
  <speed>0.03605551275463989</speed>
  <fix>3d</fix>
</trkpt>
<trkpt lat="33.810313" lon="-118.393867">
  <ele>-0.12</ele>
  <time>2026-09-01T01:15:41Z</time>
  <course>0.0</course>
  <speed>0.0</speed>
  <fix>3d</fix>
</trkpt>
<trkpt lat="33.810313" lon="-118.393867">
  <ele>-0.114</ele>
  <time>2026-09-01T01:15:41Z</time>
  <course>187.26</course>
  <speed>0.03605551275463989</speed>
  <fix>3d</fix>
</trkpt>
<trkpt lat="33.810313" lon="-118.393867">
  <ele>-0.12</ele>
  <time>2026-09-01T01:15:41Z</time>
  <course>0.0</course>
  <speed>0.0</speed>
  <fix>3d</fix>
</trkpt>
<trkpt lat="33.810313" lon="-118.393867">
  <ele>-0.112</ele>
  <time>2026-09-01T01:15:41Z</time>
  <course>187.25</course>
  <speed>0.03605551275463989</speed>
  <fix>3d</fix>
</trkpt>
<trkpt lat="33.810313" lon="-118.393867">
  <ele>-0.12</ele>
  <time>2026-09-01T01:15:41Z</time>
  <course>0.0</course>
  <speed>0.0</speed>
  <fix>3d</fix>
</trkpt>
<trkpt lat="33.810313" lon="-118.393867">
  <ele>-0.112</ele>
  <time>2026-09-01T01:15:41Z</time>
  <course>187.25</course>
  <speed>0.03605551275463989</speed>
  <fix>3d</fix>
</trkpt>
<trkpt lat="33.810313" lon="-118.393867">
  <ele>-0.12</ele>
  <time>2026-09-01T01:15:41Z</time>
  <course>0.0</course>
  <speed>0.0</speed>
  <fix>3d</fix>
</trkpt>
<trkpt lat="33.810313" lon="-118.393867">
  <ele>-0.112</ele>
  <time>2026-09-01T01:15:41Z</time>
  <course>187.24</course>
  <speed>0.03605551275463989</speed>
  <fix>3d</fix>
</trkpt>
<trkpt lat="33.810313" lon="-118.393867">
  <ele>-0.12</ele>
  <time>2026-09-01T01:15:41Z</time>
  <course>0.0</course>
  <speed>0.0</speed>
  <fix>3d</fix>
</trkpt>
<trkpt lat="33.810313" lon="-118.393867">
  <ele>-0.112</ele>
  <time>2026-09-01T01:15:41Z</time>
  <course>187.23</course>
  <speed>0.03605551275463989</speed>
  <fix>3d</fix>
</trkpt>
<trkpt lat="33.810313" lon="-118.393867">
  <ele>-0.12</ele>
  <time>2026-09-01T01:15:41Z</time>
  <course>0.0</course>
  <speed>0.0</speed>
  <fix>3d</fix>
</trkpt>
<trkpt lat="33.810313" lon="-118.393867">
  <ele>-0.112</ele>
  <time>2026-09-01T01:15:41Z</time>
  <course>187.23</course>
  <speed>0.03605551275463989</speed>
  <fix>3d</fix>
</trkpt>
<trkpt lat="33.810313" lon="-118.393867">
  <ele>-0.12</ele>
  <time>2026-09-01T01:15:41Z</time>
  <course>0.0</course>
  <speed>0.0</speed>
  <fix>3d</fix>
</trkpt>
<trkpt lat="33.810313" lon="-118.393867">
  <ele>-0.114</ele>
  <time>2026-09-01T01:15:41Z</time>
  <course>187.22</course>
  <speed>0.03605551275463989</speed>
  <fix>3d</fix>
</trkpt>
<trkpt lat="33.810313" lon="-118.393867">
  <ele>-0.12</ele>
  <time>2026-09-01T01:15:41Z</time>
  <course>0.0</course>
  <speed>0.0</speed>
  <fix>3d</fix>
</trkpt>
<trkpt lat="33.810313" lon="-118.393867">
  <ele>-0.117</ele>
  <time>2026-09-01T01:15:41Z</time>
  <course>187.22</course>
  <speed>0.03605551275463989</speed>
  <fix>3d</fix>
</trkpt>
<trkpt lat="33.810313" lon="-118.393867">
  <ele>-0.12</ele>
  <time>2026-09-01T01:15:41Z</time>
  <course>0.0</course>
  <speed>0.0</speed>
  <fix>3d</fix>
</trkpt>
<trkpt lat="33.810313" lon="-118.393867">
  <ele>-0.119</ele>
  <time>2026-09-01T01:15:41Z</time>
  <course>187.21</course>
  <speed>0.03605551275463989</speed>
  <fix>3d</fix>
</trkpt>
<trkpt lat="33.810313" lon="-118.393867">
  <ele>-0.12</ele>
  <time>2026-09-01T01:15:41Z</time>
  <course>0.0</course>
  <speed>0.0</speed>
  <fix>3d</fix>
</trkpt>
<trkpt lat="33.810313" lon="-118.393867">
  <ele>-0.119</ele>
  <time>2026-09-01T01:15:41Z</time>
  <course>187.21</course>
  <speed>0.03605551275463989</speed>
  <fix>3d</fix>
</trkpt>
<trkpt lat="33.810313" lon="-118.393867">
  <ele>-0.12</ele>
  <time>2026-09-01T01:15:41Z</time>
  <course>0.0</course>
  <speed>0.0</speed>
  <fix>3d</fix>
</trkpt>
<trkpt lat="33.810313" lon="-118.393867">
  <ele>-0.12</ele>
  <time>2026-09-01T01:15:41Z</time>
  <course>187.2</course>
  <speed>0.03605551275463989</speed>
  <fix>3d</fix>
</trkpt>
<trkpt lat="33.810313" lon="-118.393867">
  <ele>-0.12</ele>
  <time>2026-09-01T01:15:41Z</time>
  <course>0.0</course>
  <speed>0.0</speed>
  <fix>3d</fix>
</trkpt>
<trkpt lat="33.810313" lon="-118.393867">
  <ele>-0.12</ele>
  <time>2026-09-01T01:15:41Z</time>
  <course>187.2</course>
  <speed>0.03605551275463989</speed>
  <fix>3d</fix>
</trkpt>
<trkpt lat="33.810313" lon="-118.393867">
  <ele>-0.12</ele>
  <time>2026-09-01T01:15:41Z</time>
  <course>0.0</course>
  <speed>0.0</speed>
  <fix>3d</fix>
</trkpt>
<trkpt lat="33.810313" lon="-118.393867">
  <ele>-0.119</ele>
  <time>2026-09-01T01:15:41Z</time>
  <course>187.19</course>
  <speed>0.03605551275463989</speed>
  <fix>3d</fix>
</trkpt>
<trkpt lat="33.810313" lon="-118.393867">
  <ele>-0.12</ele>
  <time>2026-09-01T01:15:41Z</time>
  <course>0.0</course>
  <speed>0.0</speed>
  <fix>3d</fix>
</trkpt>
<trkpt lat="33.810313" lon="-118.393867">
  <ele>-0.119</ele>
  <time>2026-09-01T01:15:41Z</time>
  <course>187.19</course>
  <speed>0.03605551275463989</speed>
  <fix>3d</fix>
</trkpt>
<trkpt lat="33.810313" lon="-118.393867">
  <ele>-0.12</ele>
  <time>2026-09-01T01:15:41Z</time>
  <course>0.0</course>
  <speed>0.0</speed>
  <fix>3d</fix>
</trkpt>
<trkpt lat="33.810313" lon="-118.393867">
  <ele>-0.12</ele>
  <time>2026-09-01T01:15:41Z</time>
  <course>187.18</course>
  <speed>0.03605551275463989</speed>
  <fix>3d</fix>
</trkpt>
<trkpt lat="33.810313" lon="-118.393867">
  <ele>-0.12</ele>
  <time>2026-09-01T01:15:41Z</time>
  <course>0.0</course>
  <speed>0.0</speed>
  <fix>3d</fix>
</trkpt>
<trkpt lat="33.810313" lon="-118.393867">
  <ele>-0.12</ele>
  <time>2026-09-01T01:15:41Z</time>
  <course>187.18</course>
  <speed>0.03605551275463989</speed>
  <fix>3d</fix>
</trkpt>
<trkpt lat="33.810313" lon="-118.393867">
  <ele>-0.12</ele>
  <time>2026-09-01T01:15:41Z</time>
  <course>0.0</course>
  <speed>0.0</speed>
  <fix>3d</fix>
</trkpt>
<trkpt lat="33.810313" lon="-118.393867">
  <ele>-0.121</ele>
  <time>2026-09-01T01:15:42Z</time>
  <course>187.17</course>
  <speed>0.03605551275463989</speed>
  <fix>3d</fix>
</trkpt>
<trkpt lat="33.810313" lon="-118.393867">
  <ele>-0.12</ele>
  <time>2026-09-01T01:15:42Z</time>
  <course>0.0</course>
  <speed>0.0</speed>
  <fix>3d</fix>
</trkpt>
<trkpt lat="33.810313" lon="-118.393867">
  <ele>-0.122</ele>
  <time>2026-09-01T01:15:42Z</time>
  <course>187.17</course>
  <speed>0.03605551275463989</speed>
  <fix>3d</fix>
</trkpt>
<trkpt lat="33.810313" lon="-118.393867">
  <ele>-0.12</ele>
  <time>2026-09-01T01:15:42Z</time>
  <course>0.0</course>
  <speed>0.0</speed>
  <fix>3d</fix>
</trkpt>
<trkpt lat="33.810313" lon="-118.393867">
  <ele>-0.123</ele>
  <time>2026-09-01T01:15:43Z</time>
  <course>187.16</course>
  <speed>0.0</speed>
  <fix>3d</fix>
</trkpt>
<trkpt lat="33.810313" lon="-118.393867">
  <ele>-0.12</ele>
  <time>2026-09-01T01:15:43Z</time>
  <course>0.0</course>
  <speed>0.0</speed>
  <fix>3d</fix>
</trkpt>
<trkpt lat="33.810313" lon="-118.393867">
  <ele>-0.124</ele>
  <time>2026-09-01T01:15:43Z</time>
  <course>187.16</course>
  <speed>0.0</speed>
  <fix>3d</fix>
</trkpt>
<trkpt lat="33.810313" lon="-118.393867">
  <ele>-0.12</ele>
  <time>2026-09-01T01:15:43Z</time>
  <course>0.0</course>
  <speed>0.0</speed>
  <fix>3d</fix>
</trkpt>
<trkpt lat="33.810313" lon="-118.393867">
  <ele>-0.125</ele>
  <time>2026-09-01T01:15:43Z</time>
  <course>187.15</course>
  <speed>0.0</speed>
  <fix>3d</fix>
</trkpt>
<trkpt lat="33.810313" lon="-118.393867">
  <ele>-0.12</ele>
  <time>2026-09-01T01:15:43Z</time>
  <course>0.0</course>
  <speed>0.0</speed>
  <fix>3d</fix>
</trkpt>
<trkpt lat="33.810313" lon="-118.393867">
  <ele>-0.125</ele>
  <time>2026-09-01T01:15:43Z</time>
  <course>187.15</course>
  <speed>0.0</speed>
  <fix>3d</fix>
</trkpt>
<trkpt lat="33.810313" lon="-118.393867">
  <ele>-0.12</ele>
  <time>2026-09-01T01:15:43Z</time>
  <course>0.0</course>
  <speed>0.0</speed>
  <fix>3d</fix>
</trkpt>
<trkpt lat="33.810313" lon="-118.393867">
  <ele>-0.126</ele>
  <time>2026-09-01T01:15:43Z</time>
  <course>187.14</course>
  <speed>0.0</speed>
  <fix>3d</fix>
</trkpt>
<trkpt lat="33.810313" lon="-118.393867">
  <ele>-0.12</ele>
  <time>2026-09-01T01:15:43Z</time>
  <course>0.0</course>
  <speed>0.0</speed>
  <fix>3d</fix>
</trkpt>
<trkpt lat="33.810313" lon="-118.393867">
  <ele>-0.125</ele>
  <time>2026-09-01T01:15:43Z</time>
  <course>187.14</course>
  <speed>0.0</speed>
  <fix>3d</fix>
</trkpt>
<trkpt lat="33.810313" lon="-118.393867">
  <ele>-0.12</ele>
  <time>2026-09-01T01:15:43Z</time>
  <course>0.0</course>
  <speed>0.0</speed>
  <fix>3d</fix>
</trkpt>
<trkpt lat="33.810313" lon="-118.393867">
  <ele>-0.124</ele>
  <time>2026-09-01T01:15:43Z</time>
  <course>187.13</course>
  <speed>0.0</speed>
  <fix>3d</fix>
</trkpt>
<trkpt lat="33.810313" lon="-118.393867">
  <ele>-0.12</ele>
  <time>2026-09-01T01:15:43Z</time>
  <course>0.0</course>
  <speed>0.0</speed>
  <fix>3d</fix>
</trkpt>
<trkpt lat="33.810313" lon="-118.393867">
  <ele>-0.123</ele>
  <time>2026-09-01T01:15:43Z</time>
  <course>187.13</course>
  <speed>0.0</speed>
  <fix>3d</fix>
</trkpt>
<trkpt lat="33.810313" lon="-118.393867">
  <ele>-0.12</ele>
  <time>2026-09-01T01:15:43Z</time>
  <course>0.0</course>
  <speed>0.0</speed>
  <fix>3d</fix>
</trkpt>
<trkpt lat="33.810313" lon="-118.393867">
  <ele>-0.123</ele>
  <time>2026-09-01T01:15:43Z</time>
  <course>187.12</course>
  <speed>0.0</speed>
  <fix>3d</fix>
</trkpt>
<trkpt lat="33.810313" lon="-118.393867">
  <ele>-0.12</ele>
  <time>2026-09-01T01:15:43Z</time>
  <course>0.0</course>
  <speed>0.0</speed>
  <fix>3d</fix>
</trkpt>
<trkpt lat="33.810313" lon="-118.393867">
  <ele>-0.124</ele>
  <time>2026-09-01T01:15:43Z</time>
  <course>187.12</course>
  <speed>0.0</speed>
  <fix>3d</fix>
</trkpt>
<trkpt lat="33.810313" lon="-118.393867">
  <ele>-0.12</ele>
  <time>2026-09-01T01:15:43Z</time>
  <course>0.0</course>
  <speed>0.0</speed>
  <fix>3d</fix>
</trkpt>
<trkpt lat="33.810313" lon="-118.393867">
  <ele>-0.124</ele>
  <time>2026-09-01T01:15:43Z</time>
  <course>187.11</course>
  <speed>0.0</speed>
  <fix>3d</fix>
</trkpt>
<trkpt lat="33.810313" lon="-118.393867">
  <ele>-0.12</ele>
  <time>2026-09-01T01:15:43Z</time>
  <course>0.0</course>
  <speed>0.0</speed>
  <fix>3d</fix>
</trkpt>
<trkpt lat="33.810313" lon="-118.393867">
  <ele>-0.124</ele>
  <time>2026-09-01T01:15:43Z</time>
  <course>187.11</course>
  <speed>0.01</speed>
  <fix>3d</fix>
</trkpt>
<trkpt lat="33.810313" lon="-118.393867">
  <ele>-0.12</ele>
  <time>2026-09-01T01:15:43Z</time>
  <course>0.0</course>
  <speed>0.0</speed>
  <fix>3d</fix>
</trkpt>
<trkpt lat="33.810313" lon="-118.393867">
  <ele>-0.124</ele>
  <time>2026-09-01T01:15:43Z</time>
  <course>187.1</course>
  <speed>0.01</speed>
  <fix>3d</fix>
</trkpt>
<trkpt lat="33.810313" lon="-118.393867">
  <ele>-0.12</ele>
  <time>2026-09-01T01:15:43Z</time>
  <course>0.0</course>
  <speed>0.0</speed>
  <fix>3d</fix>
</trkpt>
<trkpt lat="33.810313" lon="-118.393867">
  <ele>-0.122</ele>
  <time>2026-09-01T01:15:43Z</time>
  <course>187.1</course>
  <speed>0.01</speed>
  <fix>3d</fix>
</trkpt>
<trkpt lat="33.810313" lon="-118.393867">
  <ele>-0.12</ele>
  <time>2026-09-01T01:15:43Z</time>
  <course>0.0</course>
  <speed>0.0</speed>
  <fix>3d</fix>
</trkpt>
<trkpt lat="33.810313" lon="-118.393867">
  <ele>-0.12</ele>
  <time>2026-09-01T01:15:43Z</time>
  <course>187.09</course>
  <speed>0.01414213562373095</speed>
  <fix>3d</fix>
</trkpt>
<trkpt lat="33.810313" lon="-118.393867">
  <ele>-0.12</ele>
  <time>2026-09-01T01:15:43Z</time>
  <course>0.0</course>
  <speed>0.0</speed>
  <fix>3d</fix>
</trkpt>
<trkpt lat="33.810313" lon="-118.393867">
  <ele>-0.117</ele>
  <time>2026-09-01T01:15:43Z</time>
  <course>187.09</course>
  <speed>0.01414213562373095</speed>
  <fix>3d</fix>
</trkpt>
<trkpt lat="33.810313" lon="-118.393867">
  <ele>-0.12</ele>
  <time>2026-09-01T01:15:43Z</time>
  <course>0.0</course>
  <speed>0.0</speed>
  <fix>3d</fix>
</trkpt>
<trkpt lat="33.810313" lon="-118.393867">
  <ele>-0.115</ele>
  <time>2026-09-01T01:15:43Z</time>
  <course>187.08</course>
  <speed>0.01414213562373095</speed>
  <fix>3d</fix>
</trkpt>
<trkpt lat="33.810313" lon="-118.393867">
  <ele>-0.12</ele>
  <time>2026-09-01T01:15:43Z</time>
  <course>0.0</course>
  <speed>0.0</speed>
  <fix>3d</fix>
</trkpt>
<trkpt lat="33.810313" lon="-118.393867">
  <ele>-0.113</ele>
  <time>2026-09-01T01:15:43Z</time>
  <course>187.08</course>
  <speed>0.01414213562373095</speed>
  <fix>3d</fix>
</trkpt>
<trkpt lat="33.810313" lon="-118.393867">
  <ele>-0.12</ele>
  <time>2026-09-01T01:15:43Z</time>
  <course>0.0</course>
  <speed>0.0</speed>
  <fix>3d</fix>
</trkpt>
<trkpt lat="33.810313" lon="-118.393867">
  <ele>-0.112</ele>
  <time>2026-09-01T01:15:44Z</time>
  <course>187.07</course>
  <speed>0.01414213562373095</speed>
  <fix>3d</fix>
</trkpt>
<trkpt lat="33.810313" lon="-118.393867">
  <ele>-0.12</ele>
  <time>2026-09-01T01:15:44Z</time>
  <course>0.0</course>
  <speed>0.0</speed>
  <fix>3d</fix>
</trkpt>
<trkpt lat="33.810313" lon="-118.393867">
  <ele>-0.112</ele>
  <time>2026-09-01T01:15:44Z</time>
  <course>187.07</course>
  <speed>0.01414213562373095</speed>
  <fix>3d</fix>
</trkpt>
<trkpt lat="33.810313" lon="-118.393867">
  <ele>-0.12</ele>
  <time>2026-09-01T01:15:44Z</time>
  <course>0.0</course>
  <speed>0.0</speed>
  <fix>3d</fix>
</trkpt>
<trkpt lat="33.810313" lon="-118.393867">
  <ele>-0.111</ele>
  <time>2026-09-01T01:15:44Z</time>
  <course>187.06</course>
  <speed>0.01414213562373095</speed>
  <fix>3d</fix>
</trkpt>
<trkpt lat="33.810313" lon="-118.393867">
  <ele>-0.12</ele>
  <time>2026-09-01T01:15:44Z</time>
  <course>0.0</course>
  <speed>0.0</speed>
  <fix>3d</fix>
</trkpt>
<trkpt lat="33.810313" lon="-118.393867">
  <ele>-0.111</ele>
  <time>2026-09-01T01:15:44Z</time>
  <course>187.06</course>
  <speed>0.022360679774997897</speed>
  <fix>3d</fix>
</trkpt>
<trkpt lat="33.810313" lon="-118.393867">
  <ele>-0.12</ele>
  <time>2026-09-01T01:15:44Z</time>
  <course>0.0</course>
  <speed>0.0</speed>
  <fix>3d</fix>
</trkpt>
<trkpt lat="33.436387" lon="-117.0844873">
  <ele>-0.11</ele>
  <time>2026-09-01T01:15:53Z</time>
  <course>0.0</course>
  <speed>0.0</speed>
  <fix>3d</fix>
</trkpt>
<trkpt lat="33.436387" lon="-117.0844873">
  <ele>-0.11</ele>
  <time>2026-09-01T01:15:54Z</time>
  <course>0.0</course>
  <speed>0.0</speed>
  <fix>3d</fix>
</trkpt>
<trkpt lat="33.810313" lon="-118.393867">
  <ele>0.0</ele>
  <time>2026-09-01T01:15:54Z</time>
  <course>173.5</course>
  <speed>0.0</speed>
  <fix>3d</fix>
</trkpt>
<trkpt lat="33.810313" lon="-118.393867">
  <ele>-0.11</ele>
  <time>2026-09-01T01:15:54Z</time>
  <course>0.0</course>
  <speed>0.0</speed>
  <fix>3d</fix>
</trkpt>
<trkpt lat="33.810313" lon="-118.393867">
  <ele>0.0</ele>
  <time>2026-09-01T01:15:54Z</time>
  <course>173.56</course>
  <speed>0.0</speed>
  <fix>3d</fix>
</trkpt>
<trkpt lat="33.810313" lon="-118.393867">
  <ele>-0.11</ele>
  <time>2026-09-01T01:15:54Z</time>
  <course>0.0</course>
  <speed>0.0</speed>
  <fix>3d</fix>
</trkpt>
<trkpt lat="33.810313" lon="-118.393867">
  <ele>0.0</ele>
  <time>2026-09-01T01:15:54Z</time>
  <course>173.9</course>
  <speed>0.0</speed>
  <fix>3d</fix>
</trkpt>
<trkpt lat="33.810313" lon="-118.393867">
  <ele>-0.11</ele>
  <time>2026-09-01T01:15:54Z</time>
  <course>0.0</course>
  <speed>0.0</speed>
  <fix>3d</fix>
</trkpt>
<trkpt lat="33.810313" lon="-118.393867">
  <ele>0.0</ele>
  <time>2026-09-01T01:15:54Z</time>
  <course>174.41</course>
  <speed>0.0</speed>
  <fix>3d</fix>
</trkpt>
<trkpt lat="33.810313" lon="-118.393867">
  <ele>-0.11</ele>
  <time>2026-09-01T01:15:54Z</time>
  <course>0.0</course>
  <speed>0.0</speed>
  <fix>3d</fix>
</trkpt>
<trkpt lat="33.810313" lon="-118.393867">
  <ele>0.0</ele>
  <time>2026-09-01T01:15:54Z</time>
  <course>174.97</course>
  <speed>0.0</speed>
  <fix>3d</fix>
</trkpt>
<trkpt lat="33.810313" lon="-118.393867">
  <ele>-0.12</ele>
  <time>2026-09-01T01:15:54Z</time>
  <course>0.0</course>
  <speed>0.0</speed>
  <fix>3d</fix>
</trkpt>
<trkpt lat="33.810313" lon="-118.393867">
  <ele>0.0</ele>
  <time>2026-09-01T01:15:54Z</time>
  <course>175.51</course>
  <speed>0.0</speed>
  <fix>3d</fix>
</trkpt>
<trkpt lat="33.810313" lon="-118.393867">
  <ele>-0.12</ele>
  <time>2026-09-01T01:15:54Z</time>
  <course>0.0</course>
  <speed>0.0</speed>
  <fix>3d</fix>
</trkpt>
<trkpt lat="33.810313" lon="-118.393867">
  <ele>0.0</ele>
  <time>2026-09-01T01:15:54Z</time>
  <course>176.03</course>
  <speed>0.0</speed>
  <fix>3d</fix>
</trkpt>
<trkpt lat="33.810313" lon="-118.393867">
  <ele>-0.13</ele>
  <time>2026-09-01T01:15:54Z</time>
  <course>0.0</course>
  <speed>0.0</speed>
  <fix>3d</fix>
</trkpt>
<trkpt lat="33.810313" lon="-118.393867">
  <ele>0.0</ele>
  <time>2026-09-01T01:15:54Z</time>
  <course>176.52</course>
  <speed>0.0</speed>
  <fix>3d</fix>
</trkpt>
<trkpt lat="33.810313" lon="-118.393867">
  <ele>-0.13</ele>
  <time>2026-09-01T01:15:54Z</time>
  <course>0.0</course>
  <speed>0.0</speed>
  <fix>3d</fix>
</trkpt>
<trkpt lat="33.810313" lon="-118.393867">
  <ele>0.0</ele>
  <time>2026-09-01T01:15:54Z</time>
  <course>176.99</course>
  <speed>0.0</speed>
  <fix>3d</fix>
</trkpt>
<trkpt lat="33.810313" lon="-118.393867">
  <ele>-0.13</ele>
  <time>2026-09-01T01:15:54Z</time>
  <course>0.0</course>
  <speed>0.0</speed>
  <fix>3d</fix>
</trkpt>
<trkpt lat="33.810313" lon="-118.393867">
  <ele>0.0</ele>
  <time>2026-09-01T01:15:55Z</time>
  <course>177.46</course>
  <speed>0.0</speed>
  <fix>3d</fix>
</trkpt>
<trkpt lat="33.810313" lon="-118.393867">
  <ele>-0.13</ele>
  <time>2026-09-01T01:15:55Z</time>
  <course>0.0</course>
  <speed>0.0</speed>
  <fix>3d</fix>
</trkpt>
<trkpt lat="33.810313" lon="-118.393867">
  <ele>0.0</ele>
  <time>2026-09-01T01:15:55Z</time>
  <course>177.9</course>
  <speed>0.0</speed>
  <fix>3d</fix>
</trkpt>
<trkpt lat="33.810313" lon="-118.393867">
  <ele>-0.14</ele>
  <time>2026-09-01T01:15:55Z</time>
  <course>0.0</course>
  <speed>0.0</speed>
  <fix>3d</fix>
</trkpt>
<trkpt lat="33.810313" lon="-118.393867">
  <ele>0.0</ele>
  <time>2026-09-01T01:15:55Z</time>
  <course>178.34</course>
  <speed>0.0</speed>
  <fix>3d</fix>
</trkpt>
<trkpt lat="33.810313" lon="-118.393867">
  <ele>-0.14</ele>
  <time>2026-09-01T01:15:55Z</time>
  <course>0.0</course>
  <speed>0.0</speed>
  <fix>3d</fix>
</trkpt>
<trkpt lat="33.810313" lon="-118.393867">
  <ele>0.0</ele>
  <time>2026-09-01T01:15:55Z</time>
  <course>178.76</course>
  <speed>0.0</speed>
  <fix>3d</fix>
</trkpt>
<trkpt lat="33.810313" lon="-118.393867">
  <ele>-0.14</ele>
  <time>2026-09-01T01:15:55Z</time>
  <course>0.0</course>
  <speed>0.0</speed>
  <fix>3d</fix>
</trkpt>
<trkpt lat="33.810313" lon="-118.393867">
  <ele>0.0</ele>
  <time>2026-09-01T01:15:55Z</time>
  <course>179.16</course>
  <speed>0.0</speed>
  <fix>3d</fix>
</trkpt>
<trkpt lat="33.810313" lon="-118.393867">
  <ele>-0.14</ele>
  <time>2026-09-01T01:15:55Z</time>
  <course>0.0</course>
  <speed>0.0</speed>
  <fix>3d</fix>
</trkpt>
<trkpt lat="33.810313" lon="-118.393867">
  <ele>0.0</ele>
  <time>2026-09-01T01:15:55Z</time>
  <course>179.56</course>
  <speed>0.0</speed>
  <fix>3d</fix>
</trkpt>
<trkpt lat="33.810313" lon="-118.393867">
  <ele>-0.14</ele>
  <time>2026-09-01T01:15:55Z</time>
  <course>0.0</course>
  <speed>0.0</speed>
  <fix>3d</fix>
</trkpt>
<trkpt lat="33.810313" lon="-118.393867">
  <ele>0.0</ele>
  <time>2026-09-01T01:15:55Z</time>
  <course>179.94</course>
  <speed>0.0</speed>
  <fix>3d</fix>
</trkpt>
<trkpt lat="33.810313" lon="-118.393867">
  <ele>-0.14</ele>
  <time>2026-09-01T01:15:55Z</time>
  <course>0.0</course>
  <speed>0.0</speed>
  <fix>3d</fix>
</trkpt>
<trkpt lat="33.810313" lon="-118.393867">
  <ele>0.0</ele>
  <time>2026-09-01T01:15:55Z</time>
  <course>180.32</course>
  <speed>0.0</speed>
  <fix>3d</fix>
</trkpt>
<trkpt lat="33.810313" lon="-118.393867">
  <ele>-0.14</ele>
  <time>2026-09-01T01:15:55Z</time>
  <course>0.0</course>
  <speed>0.0</speed>
  <fix>3d</fix>
</trkpt>
<trkpt lat="33.810313" lon="-118.393867">
  <ele>0.0</ele>
  <time>2026-09-01T01:15:55Z</time>
  <course>180.67</course>
  <speed>0.0</speed>
  <fix>3d</fix>
</trkpt>
<trkpt lat="33.810313" lon="-118.393867">
  <ele>-0.14</ele>
  <time>2026-09-01T01:15:55Z</time>
  <course>0.0</course>
  <speed>0.0</speed>
  <fix>3d</fix>
</trkpt>
<trkpt lat="33.810313" lon="-118.393867">
  <ele>0.0</ele>
  <time>2026-09-01T01:15:55Z</time>
  <course>181.02</course>
  <speed>0.0</speed>
  <fix>3d</fix>
</trkpt>
<trkpt lat="33.810313" lon="-118.393867">
  <ele>-0.13</ele>
  <time>2026-09-01T01:15:55Z</time>
  <course>0.0</course>
  <speed>0.0</speed>
  <fix>3d</fix>
</trkpt>
<trkpt lat="33.810313" lon="-118.393867">
  <ele>0.0</ele>
  <time>2026-09-01T01:15:56Z</time>
  <course>181.35</course>
  <speed>0.0</speed>
  <fix>3d</fix>
</trkpt>
<trkpt lat="33.810313" lon="-118.393867">
  <ele>-0.13</ele>
  <time>2026-09-01T01:15:56Z</time>
  <course>0.0</course>
  <speed>0.0</speed>
  <fix>3d</fix>
</trkpt>
<trkpt lat="33.810313" lon="-118.393867">
  <ele>0.0</ele>
  <time>2026-09-01T01:15:56Z</time>
  <course>181.67</course>
  <speed>0.0</speed>
  <fix>3d</fix>
</trkpt>
<trkpt lat="33.810313" lon="-118.393867">
  <ele>-0.13</ele>
  <time>2026-09-01T01:15:56Z</time>
  <course>0.0</course>
  <speed>0.0</speed>
  <fix>3d</fix>
</trkpt>
<trkpt lat="33.810313" lon="-118.393867">
  <ele>0.0</ele>
  <time>2026-09-01T01:15:56Z</time>
  <course>181.97</course>
  <speed>0.0</speed>
  <fix>3d</fix>
</trkpt>
<trkpt lat="33.810313" lon="-118.393867">
  <ele>-0.13</ele>
  <time>2026-09-01T01:15:56Z</time>
  <course>0.0</course>
  <speed>0.0</speed>
  <fix>3d</fix>
</trkpt>
<trkpt lat="33.810313" lon="-118.393867">
  <ele>0.0</ele>
  <time>2026-09-01T01:15:56Z</time>
  <course>182.27</course>
  <speed>0.0</speed>
  <fix>3d</fix>
</trkpt>
<trkpt lat="33.810313" lon="-118.393867">
  <ele>-0.12</ele>
  <time>2026-09-01T01:15:56Z</time>
  <course>0.0</course>
  <speed>0.0</speed>
  <fix>3d</fix>
</trkpt>
<trkpt lat="33.810313" lon="-118.393867">
  <ele>0.0</ele>
  <time>2026-09-01T01:15:56Z</time>
  <course>182.56</course>
  <speed>0.0</speed>
  <fix>3d</fix>
</trkpt>
<trkpt lat="33.810313" lon="-118.393867">
  <ele>-0.12</ele>
  <time>2026-09-01T01:15:56Z</time>
  <course>0.0</course>
  <speed>0.0</speed>
  <fix>3d</fix>
</trkpt>
<trkpt lat="33.810313" lon="-118.393867">
  <ele>0.0</ele>
  <time>2026-09-01T01:15:56Z</time>
  <course>182.83</course>
  <speed>0.0</speed>
  <fix>3d</fix>
</trkpt>
<trkpt lat="33.810313" lon="-118.393867">
  <ele>-0.11</ele>
  <time>2026-09-01T01:15:56Z</time>
  <course>0.0</course>
  <speed>0.0</speed>
  <fix>3d</fix>
</trkpt>
<trkpt lat="33.810313" lon="-118.393867">
  <ele>0.0</ele>
  <time>2026-09-01T01:15:56Z</time>
  <course>183.09</course>
  <speed>0.0</speed>
  <fix>3d</fix>
</trkpt>
<trkpt lat="33.810313" lon="-118.393867">
  <ele>-0.11</ele>
  <time>2026-09-01T01:15:56Z</time>
  <course>0.0</course>
  <speed>0.0</speed>
  <fix>3d</fix>
</trkpt>
<trkpt lat="33.810313" lon="-118.393867">
  <ele>0.0</ele>
  <time>2026-09-01T01:15:56Z</time>
  <course>183.35</course>
  <speed>0.0</speed>
  <fix>3d</fix>
</trkpt>
<trkpt lat="33.810313" lon="-118.393867">
  <ele>-0.11</ele>
  <time>2026-09-01T01:15:56Z</time>
  <course>0.0</course>
  <speed>0.0</speed>
  <fix>3d</fix>
</trkpt>
<trkpt lat="33.810313" lon="-118.393867">
  <ele>0.0</ele>
  <time>2026-09-01T01:15:56Z</time>
  <course>183.59</course>
  <speed>0.0</speed>
  <fix>3d</fix>
</trkpt>
<trkpt lat="33.810313" lon="-118.393867">
  <ele>-0.11</ele>
  <time>2026-09-01T01:15:56Z</time>
  <course>0.0</course>
  <speed>0.0</speed>
  <fix>3d</fix>
</trkpt>
<trkpt lat="33.810313" lon="-118.393867">
  <ele>0.0</ele>
  <time>2026-09-01T01:15:56Z</time>
  <course>183.82</course>
  <speed>0.0</speed>
  <fix>3d</fix>
</trkpt>
<trkpt lat="33.810313" lon="-118.393867">
  <ele>-0.12</ele>
  <time>2026-09-01T01:15:56Z</time>
  <course>0.0</course>
  <speed>0.0</speed>
  <fix>3d</fix>
</trkpt>
<trkpt lat="33.810313" lon="-118.393867">
  <ele>0.0</ele>
  <time>2026-09-01T01:15:57Z</time>
  <course>184.05</course>
  <speed>0.0</speed>
  <fix>3d</fix>
</trkpt>
<trkpt lat="33.810313" lon="-118.393867">
  <ele>-0.12</ele>
  <time>2026-09-01T01:15:57Z</time>
  <course>0.0</course>
  <speed>0.0</speed>
  <fix>3d</fix>
</trkpt>
<trkpt lat="33.810313" lon="-118.393867">
  <ele>0.0</ele>
  <time>2026-09-01T01:15:57Z</time>
  <course>184.27</course>
  <speed>0.0</speed>
  <fix>3d</fix>
</trkpt>
<trkpt lat="33.810313" lon="-118.393867">
  <ele>-0.13</ele>
  <time>2026-09-01T01:15:57Z</time>
  <course>0.0</course>
  <speed>0.0</speed>
  <fix>3d</fix>
</trkpt>
<trkpt lat="33.810313" lon="-118.393867">
  <ele>0.0</ele>
  <time>2026-09-01T01:15:57Z</time>
  <course>184.47</course>
  <speed>0.0</speed>
  <fix>3d</fix>
</trkpt>
<trkpt lat="33.810313" lon="-118.393867">
  <ele>-0.13</ele>
  <time>2026-09-01T01:15:57Z</time>
  <course>0.0</course>
  <speed>0.0</speed>
  <fix>3d</fix>
</trkpt>
<trkpt lat="33.810313" lon="-118.393867">
  <ele>0.0</ele>
  <time>2026-09-01T01:15:57Z</time>
  <course>184.67</course>
  <speed>0.0</speed>
  <fix>3d</fix>
</trkpt>
<trkpt lat="33.810313" lon="-118.393867">
  <ele>-0.13</ele>
  <time>2026-09-01T01:15:57Z</time>
  <course>0.0</course>
  <speed>0.0</speed>
  <fix>3d</fix>
</trkpt>
<trkpt lat="33.810313" lon="-118.393867">
  <ele>0.0</ele>
  <time>2026-09-01T01:15:57Z</time>
  <course>184.86</course>
  <speed>0.0</speed>
  <fix>3d</fix>
</trkpt>
<trkpt lat="33.810313" lon="-118.393867">
  <ele>-0.13</ele>
  <time>2026-09-01T01:15:57Z</time>
  <course>0.0</course>
  <speed>0.0</speed>
  <fix>3d</fix>
</trkpt>
<trkpt lat="33.810313" lon="-118.393867">
  <ele>0.0</ele>
  <time>2026-09-01T01:15:57Z</time>
  <course>185.04</course>
  <speed>0.0</speed>
  <fix>3d</fix>
</trkpt>
<trkpt lat="33.810313" lon="-118.393867">
  <ele>-0.14</ele>
  <time>2026-09-01T01:15:57Z</time>
  <course>0.0</course>
  <speed>0.0</speed>
  <fix>3d</fix>
</trkpt>
<trkpt lat="33.810313" lon="-118.393867">
  <ele>0.0</ele>
  <time>2026-09-01T01:15:57Z</time>
  <course>185.21</course>
  <speed>0.0</speed>
  <fix>3d</fix>
</trkpt>
<trkpt lat="33.810313" lon="-118.393867">
  <ele>-0.14</ele>
  <time>2026-09-01T01:15:57Z</time>
  <course>0.0</course>
  <speed>0.0</speed>
  <fix>3d</fix>
</trkpt>
<trkpt lat="33.810313" lon="-118.393867">
  <ele>0.0</ele>
  <time>2026-09-01T01:15:57Z</time>
  <course>185.38</course>
  <speed>0.0</speed>
  <fix>3d</fix>
</trkpt>
<trkpt lat="33.810313" lon="-118.393867">
  <ele>-0.13</ele>
  <time>2026-09-01T01:15:57Z</time>
  <course>0.0</course>
  <speed>0.0</speed>
  <fix>3d</fix>
</trkpt>
<trkpt lat="33.810313" lon="-118.393867">
  <ele>0.0</ele>
  <time>2026-09-01T01:15:57Z</time>
  <course>185.54</course>
  <speed>0.0</speed>
  <fix>3d</fix>
</trkpt>
<trkpt lat="33.810313" lon="-118.393867">
  <ele>-0.13</ele>
  <time>2026-09-01T01:15:57Z</time>
  <course>0.0</course>
  <speed>0.0</speed>
  <fix>3d</fix>
</trkpt>
<trkpt lat="33.810313" lon="-118.393867">
  <ele>0.0</ele>
  <time>2026-09-01T01:15:57Z</time>
  <course>185.69</course>
  <speed>0.0</speed>
  <fix>3d</fix>
</trkpt>
<trkpt lat="33.810313" lon="-118.393867">
  <ele>-0.13</ele>
  <time>2026-09-01T01:15:57Z</time>
  <course>0.0</course>
  <speed>0.0</speed>
  <fix>3d</fix>
</trkpt>
<trkpt lat="33.810313" lon="-118.393867">
  <ele>0.0</ele>
  <time>2026-09-01T01:15:58Z</time>
  <course>185.84</course>
  <speed>0.0</speed>
  <fix>3d</fix>
</trkpt>
<trkpt lat="33.810313" lon="-118.393867">
  <ele>-0.13</ele>
  <time>2026-09-01T01:15:58Z</time>
  <course>0.0</course>
  <speed>0.0</speed>
  <fix>3d</fix>
</trkpt>
<trkpt lat="33.810313" lon="-118.393867">
  <ele>0.0</ele>
  <time>2026-09-01T01:15:58Z</time>
  <course>185.98</course>
  <speed>0.0</speed>
  <fix>3d</fix>
</trkpt>
<trkpt lat="33.810313" lon="-118.393867">
  <ele>-0.12</ele>
  <time>2026-09-01T01:15:58Z</time>
  <course>0.0</course>
  <speed>0.0</speed>
  <fix>3d</fix>
</trkpt>
<trkpt lat="33.810313" lon="-118.393867">
  <ele>0.0</ele>
  <time>2026-09-01T01:15:58Z</time>
  <course>186.11</course>
  <speed>0.0</speed>
  <fix>3d</fix>
</trkpt>
<trkpt lat="33.810313" lon="-118.393867">
  <ele>-0.12</ele>
  <time>2026-09-01T01:15:58Z</time>
  <course>0.0</course>
  <speed>0.0</speed>
  <fix>3d</fix>
</trkpt>
<trkpt lat="33.810313" lon="-118.393867">
  <ele>0.0</ele>
  <time>2026-09-01T01:15:58Z</time>
  <course>186.24</course>
  <speed>0.0</speed>
  <fix>3d</fix>
</trkpt>
<trkpt lat="33.810313" lon="-118.393867">
  <ele>-0.12</ele>
  <time>2026-09-01T01:15:58Z</time>
  <course>0.0</course>
  <speed>0.0</speed>
  <fix>3d</fix>
</trkpt>
<trkpt lat="33.810313" lon="-118.393867">
  <ele>0.0</ele>
  <time>2026-09-01T01:15:58Z</time>
  <course>186.36</course>
  <speed>0.0</speed>
  <fix>3d</fix>
</trkpt>
<trkpt lat="33.810313" lon="-118.393867">
  <ele>-0.12</ele>
  <time>2026-09-01T01:15:58Z</time>
  <course>0.0</course>
  <speed>0.0</speed>
  <fix>3d</fix>
</trkpt>
<trkpt lat="33.810313" lon="-118.393867">
  <ele>0.0</ele>
  <time>2026-09-01T01:15:58Z</time>
  <course>186.48</course>
  <speed>0.0</speed>
  <fix>3d</fix>
</trkpt>
<trkpt lat="33.810313" lon="-118.393867">
  <ele>-0.11</ele>
  <time>2026-09-01T01:15:58Z</time>
  <course>0.0</course>
  <speed>0.0</speed>
  <fix>3d</fix>
</trkpt>
<trkpt lat="33.810313" lon="-118.393867">
  <ele>0.0</ele>
  <time>2026-09-01T01:15:58Z</time>
  <course>186.59</course>
  <speed>0.0</speed>
  <fix>3d</fix>
</trkpt>
<trkpt lat="33.810313" lon="-118.393867">
  <ele>-0.11</ele>
  <time>2026-09-01T01:15:58Z</time>
  <course>0.0</course>
  <speed>0.0</speed>
  <fix>3d</fix>
</trkpt>
<trkpt lat="33.810313" lon="-118.393867">
  <ele>0.0</ele>
  <time>2026-09-01T01:15:58Z</time>
  <course>186.69</course>
  <speed>0.0</speed>
  <fix>3d</fix>
</trkpt>
<trkpt lat="33.810313" lon="-118.393867">
  <ele>-0.11</ele>
  <time>2026-09-01T01:15:58Z</time>
  <course>0.0</course>
  <speed>0.0</speed>
  <fix>3d</fix>
</trkpt>
<trkpt lat="33.810313" lon="-118.393867">
  <ele>0.0</ele>
  <time>2026-09-01T01:15:58Z</time>
  <course>186.8</course>
  <speed>0.0</speed>
  <fix>3d</fix>
</trkpt>
<trkpt lat="33.810313" lon="-118.393867">
  <ele>-0.11</ele>
  <time>2026-09-01T01:15:58Z</time>
  <course>0.0</course>
  <speed>0.0</speed>
  <fix>3d</fix>
</trkpt>
<trkpt lat="33.810313" lon="-118.393867">
  <ele>0.0</ele>
  <time>2026-09-01T01:15:58Z</time>
  <course>186.89</course>
  <speed>0.0</speed>
  <fix>3d</fix>
</trkpt>
<trkpt lat="33.810313" lon="-118.393867">
  <ele>-0.12</ele>
  <time>2026-09-01T01:15:58Z</time>
  <course>0.0</course>
  <speed>0.0</speed>
  <fix>3d</fix>
</trkpt>
<trkpt lat="33.810313" lon="-118.393867">
  <ele>0.0</ele>
  <time>2026-09-01T01:15:58Z</time>
  <course>186.98</course>
  <speed>0.0</speed>
  <fix>3d</fix>
</trkpt>
<trkpt lat="33.810313" lon="-118.393867">
  <ele>-0.12</ele>
  <time>2026-09-01T01:15:58Z</time>
  <course>0.0</course>
  <speed>0.0</speed>
  <fix>3d</fix>
</trkpt>
<trkpt lat="33.810313" lon="-118.393867">
  <ele>0.0</ele>
  <time>2026-09-01T01:15:59Z</time>
  <course>187.07</course>
  <speed>0.0</speed>
  <fix>3d</fix>
</trkpt>
<trkpt lat="33.810313" lon="-118.393867">
  <ele>-0.13</ele>
  <time>2026-09-01T01:15:59Z</time>
  <course>0.0</course>
  <speed>0.0</speed>
  <fix>3d</fix>
</trkpt>
<trkpt lat="33.810313" lon="-118.393867">
  <ele>0.0</ele>
  <time>2026-09-01T01:15:59Z</time>
  <course>187.15</course>
  <speed>0.0</speed>
  <fix>3d</fix>
</trkpt>
<trkpt lat="33.810313" lon="-118.393867">
  <ele>-0.13</ele>
  <time>2026-09-01T01:15:59Z</time>
  <course>0.0</course>
  <speed>0.0</speed>
  <fix>3d</fix>
</trkpt>
<trkpt lat="33.810313" lon="-118.393867">
  <ele>0.0</ele>
  <time>2026-09-01T01:15:59Z</time>
  <course>187.23</course>
  <speed>0.0</speed>
  <fix>3d</fix>
</trkpt>
<trkpt lat="33.810313" lon="-118.393867">
  <ele>-0.13</ele>
  <time>2026-09-01T01:15:59Z</time>
  <course>0.0</course>
  <speed>0.0</speed>
  <fix>3d</fix>
</trkpt>
<trkpt lat="33.810313" lon="-118.393867">
  <ele>0.0</ele>
  <time>2026-09-01T01:15:59Z</time>
  <course>187.31</course>
  <speed>0.0</speed>
  <fix>3d</fix>
</trkpt>
<trkpt lat="33.810313" lon="-118.393867">
  <ele>-0.13</ele>
  <time>2026-09-01T01:15:59Z</time>
  <course>0.0</course>
  <speed>0.0</speed>
  <fix>3d</fix>
</trkpt>
<trkpt lat="33.810313" lon="-118.393867">
  <ele>0.0</ele>
  <time>2026-09-01T01:15:59Z</time>
  <course>187.38</course>
  <speed>0.0</speed>
  <fix>3d</fix>
</trkpt>
<trkpt lat="33.810313" lon="-118.393867">
  <ele>-0.13</ele>
  <time>2026-09-01T01:15:59Z</time>
  <course>0.0</course>
  <speed>0.0</speed>
  <fix>3d</fix>
</trkpt>
<trkpt lat="33.810313" lon="-118.393867">
  <ele>0.0</ele>
  <time>2026-09-01T01:15:59Z</time>
  <course>187.45</course>
  <speed>0.0</speed>
  <fix>3d</fix>
</trkpt>
<trkpt lat="33.810313" lon="-118.393867">
  <ele>-0.13</ele>
  <time>2026-09-01T01:15:59Z</time>
  <course>0.0</course>
  <speed>0.0</speed>
  <fix>3d</fix>
</trkpt>
<trkpt lat="33.810313" lon="-118.393867">
  <ele>0.0</ele>
  <time>2026-09-01T01:15:59Z</time>
  <course>187.52</course>
  <speed>0.0</speed>
  <fix>3d</fix>
</trkpt>
<trkpt lat="33.810313" lon="-118.393867">
  <ele>-0.13</ele>
  <time>2026-09-01T01:15:59Z</time>
  <course>0.0</course>
  <speed>0.0</speed>
  <fix>3d</fix>
</trkpt>
<trkpt lat="33.810313" lon="-118.393867">
  <ele>0.0</ele>
  <time>2026-09-01T01:15:59Z</time>
  <course>187.58</course>
  <speed>0.0</speed>
  <fix>3d</fix>
</trkpt>
<trkpt lat="33.810313" lon="-118.393867">
  <ele>-0.13</ele>
  <time>2026-09-01T01:15:59Z</time>
  <course>0.0</course>
  <speed>0.0</speed>
  <fix>3d</fix>
</trkpt>
<trkpt lat="33.810313" lon="-118.393867">
  <ele>0.0</ele>
  <time>2026-09-01T01:15:59Z</time>
  <course>187.64</course>
  <speed>0.0</speed>
  <fix>3d</fix>
</trkpt>
<trkpt lat="33.810313" lon="-118.393867">
  <ele>-0.12</ele>
  <time>2026-09-01T01:15:59Z</time>
  <course>0.0</course>
  <speed>0.0</speed>
  <fix>3d</fix>
</trkpt>
<trkpt lat="33.810313" lon="-118.393867">
  <ele>0.0</ele>
  <time>2026-09-01T01:15:59Z</time>
  <course>187.69</course>
  <speed>0.0</speed>
  <fix>3d</fix>
</trkpt>
<trkpt lat="33.810313" lon="-118.393867">
  <ele>-0.12</ele>
  <time>2026-09-01T01:15:59Z</time>
  <course>0.0</course>
  <speed>0.0</speed>
  <fix>3d</fix>
</trkpt>
<trkpt lat="33.810313" lon="-118.393867">
  <ele>0.0</ele>
  <time>2026-09-01T01:16:00Z</time>
  <course>187.75</course>
  <speed>0.0</speed>
  <fix>3d</fix>
</trkpt>
<trkpt lat="33.810313" lon="-118.393867">
  <ele>-0.12</ele>
  <time>2026-09-01T01:16:00Z</time>
  <course>0.0</course>
  <speed>0.0</speed>
  <fix>3d</fix>
</trkpt>
<trkpt lat="33.810313" lon="-118.393867">
  <ele>0.0</ele>
  <time>2026-09-01T01:16:00Z</time>
  <course>187.8</course>
  <speed>0.0</speed>
  <fix>3d</fix>
</trkpt>
<trkpt lat="33.810313" lon="-118.393867">
  <ele>-0.12</ele>
  <time>2026-09-01T01:16:00Z</time>
  <course>0.0</course>
  <speed>0.0</speed>
  <fix>3d</fix>
</trkpt>
<trkpt lat="33.810313" lon="-118.393867">
  <ele>0.0</ele>
  <time>2026-09-01T01:16:00Z</time>
  <course>187.85</course>
  <speed>0.0</speed>
  <fix>3d</fix>
</trkpt>
<trkpt lat="33.810313" lon="-118.393867">
  <ele>-0.12</ele>
  <time>2026-09-01T01:16:00Z</time>
  <course>0.0</course>
  <speed>0.0</speed>
  <fix>3d</fix>
</trkpt>
<trkpt lat="33.810313" lon="-118.393867">
  <ele>0.0</ele>
  <time>2026-09-01T01:16:00Z</time>
  <course>187.89</course>
  <speed>0.0</speed>
  <fix>3d</fix>
</trkpt>
<trkpt lat="33.810313" lon="-118.393867">
  <ele>-0.12</ele>
  <time>2026-09-01T01:16:00Z</time>
  <course>0.0</course>
  <speed>0.0</speed>
  <fix>3d</fix>
</trkpt>
<trkpt lat="33.810313" lon="-118.393867">
  <ele>0.0</ele>
  <time>2026-09-01T01:16:00Z</time>
  <course>187.94</course>
  <speed>0.0</speed>
  <fix>3d</fix>
</trkpt>
<trkpt lat="33.810313" lon="-118.393867">
  <ele>-0.12</ele>
  <time>2026-09-01T01:16:00Z</time>
  <course>0.0</course>
  <speed>0.0</speed>
  <fix>3d</fix>
</trkpt>
<trkpt lat="33.810313" lon="-118.393867">
  <ele>0.0</ele>
  <time>2026-09-01T01:16:00Z</time>
  <course>187.98</course>
  <speed>0.0</speed>
  <fix>3d</fix>
</trkpt>
<trkpt lat="33.810313" lon="-118.393867">
  <ele>-0.12</ele>
  <time>2026-09-01T01:16:00Z</time>
  <course>0.0</course>
  <speed>0.0</speed>
  <fix>3d</fix>
</trkpt>
<trkpt lat="33.810313" lon="-118.393867">
  <ele>0.0</ele>
  <time>2026-09-01T01:16:00Z</time>
  <course>188.02</course>
  <speed>0.0</speed>
  <fix>3d</fix>
</trkpt>
<trkpt lat="33.810313" lon="-118.393867">
  <ele>-0.12</ele>
  <time>2026-09-01T01:16:00Z</time>
  <course>0.0</course>
  <speed>0.0</speed>
  <fix>3d</fix>
</trkpt>
<trkpt lat="33.810313" lon="-118.393867">
  <ele>0.0</ele>
  <time>2026-09-01T01:16:00Z</time>
  <course>188.05</course>
  <speed>0.0</speed>
  <fix>3d</fix>
</trkpt>
<trkpt lat="33.810313" lon="-118.393867">
  <ele>-0.12</ele>
  <time>2026-09-01T01:16:00Z</time>
  <course>0.0</course>
  <speed>0.0</speed>
  <fix>3d</fix>
</trkpt>
<trkpt lat="33.810313" lon="-118.393867">
  <ele>0.0</ele>
  <time>2026-09-01T01:16:00Z</time>
  <course>188.09</course>
  <speed>0.0</speed>
  <fix>3d</fix>
</trkpt>
<trkpt lat="33.810313" lon="-118.393867">
  <ele>-0.13</ele>
  <time>2026-09-01T01:16:00Z</time>
  <course>0.0</course>
  <speed>0.0</speed>
  <fix>3d</fix>
</trkpt>
<trkpt lat="33.810313" lon="-118.393867">
  <ele>0.0</ele>
  <time>2026-09-01T01:16:00Z</time>
  <course>188.12</course>
  <speed>0.0</speed>
  <fix>3d</fix>
</trkpt>
<trkpt lat="33.810313" lon="-118.393867">
  <ele>-0.13</ele>
  <time>2026-09-01T01:16:00Z</time>
  <course>0.0</course>
  <speed>0.0</speed>
  <fix>3d</fix>
</trkpt>
<trkpt lat="33.810313" lon="-118.393867">
  <ele>0.0</ele>
  <time>2026-09-01T01:16:01Z</time>
  <course>188.15</course>
  <speed>0.0</speed>
  <fix>3d</fix>
</trkpt>
<trkpt lat="33.810313" lon="-118.393867">
  <ele>-0.13</ele>
  <time>2026-09-01T01:16:01Z</time>
  <course>0.0</course>
  <speed>0.0</speed>
  <fix>3d</fix>
</trkpt>
<trkpt lat="33.810313" lon="-118.393867">
  <ele>0.0</ele>
  <time>2026-09-01T01:16:01Z</time>
  <course>188.18</course>
  <speed>0.0</speed>
  <fix>3d</fix>
</trkpt>
<trkpt lat="33.810313" lon="-118.393867">
  <ele>-0.13</ele>
  <time>2026-09-01T01:16:01Z</time>
  <course>0.0</course>
  <speed>0.0</speed>
  <fix>3d</fix>
</trkpt>
<trkpt lat="33.810313" lon="-118.393867">
  <ele>0.0</ele>
  <time>2026-09-01T01:16:01Z</time>
  <course>188.21</course>
  <speed>0.0</speed>
  <fix>3d</fix>
</trkpt>
<trkpt lat="33.810313" lon="-118.393867">
  <ele>-0.13</ele>
  <time>2026-09-01T01:16:01Z</time>
  <course>0.0</course>
  <speed>0.0</speed>
  <fix>3d</fix>
</trkpt>
<trkpt lat="33.810313" lon="-118.393867">
  <ele>0.0</ele>
  <time>2026-09-01T01:16:01Z</time>
  <course>188.24</course>
  <speed>0.0</speed>
  <fix>3d</fix>
</trkpt>
<trkpt lat="33.810313" lon="-118.393867">
  <ele>-0.13</ele>
  <time>2026-09-01T01:16:01Z</time>
  <course>0.0</course>
  <speed>0.0</speed>
  <fix>3d</fix>
</trkpt>
<trkpt lat="33.810313" lon="-118.393867">
  <ele>0.0</ele>
  <time>2026-09-01T01:16:01Z</time>
  <course>188.26</course>
  <speed>0.0</speed>
  <fix>3d</fix>
</trkpt>
<trkpt lat="33.810313" lon="-118.393867">
  <ele>-0.12</ele>
  <time>2026-09-01T01:16:01Z</time>
  <course>0.0</course>
  <speed>0.0</speed>
  <fix>3d</fix>
</trkpt>
<trkpt lat="33.810313" lon="-118.393867">
  <ele>0.0</ele>
  <time>2026-09-01T01:16:01Z</time>
  <course>188.29</course>
  <speed>0.0</speed>
  <fix>3d</fix>
</trkpt>
<trkpt lat="33.810313" lon="-118.393867">
  <ele>-0.12</ele>
  <time>2026-09-01T01:16:01Z</time>
  <course>0.0</course>
  <speed>0.0</speed>
  <fix>3d</fix>
</trkpt>
<trkpt lat="33.810313" lon="-118.393867">
  <ele>0.0</ele>
  <time>2026-09-01T01:16:01Z</time>
  <course>188.31</course>
  <speed>0.0</speed>
  <fix>3d</fix>
</trkpt>
<trkpt lat="33.810313" lon="-118.393867">
  <ele>-0.12</ele>
  <time>2026-09-01T01:16:01Z</time>
  <course>0.0</course>
  <speed>0.0</speed>
  <fix>3d</fix>
</trkpt>
<trkpt lat="33.810313" lon="-118.393867">
  <ele>0.0</ele>
  <time>2026-09-01T01:16:01Z</time>
  <course>188.33</course>
  <speed>0.0</speed>
  <fix>3d</fix>
</trkpt>
<trkpt lat="33.810313" lon="-118.393867">
  <ele>-0.12</ele>
  <time>2026-09-01T01:16:01Z</time>
  <course>0.0</course>
  <speed>0.0</speed>
  <fix>3d</fix>
</trkpt>
<trkpt lat="33.810313" lon="-118.393867">
  <ele>0.0</ele>
  <time>2026-09-01T01:16:01Z</time>
  <course>188.35</course>
  <speed>0.0</speed>
  <fix>3d</fix>
</trkpt>
<trkpt lat="33.810313" lon="-118.393867">
  <ele>-0.12</ele>
  <time>2026-09-01T01:16:01Z</time>
  <course>0.0</course>
  <speed>0.0</speed>
  <fix>3d</fix>
</trkpt>
<trkpt lat="33.810313" lon="-118.393867">
  <ele>0.0</ele>
  <time>2026-09-01T01:16:01Z</time>
  <course>188.37</course>
  <speed>0.0</speed>
  <fix>3d</fix>
</trkpt>
<trkpt lat="33.810313" lon="-118.393867">
  <ele>-0.12</ele>
  <time>2026-09-01T01:16:01Z</time>
  <course>0.0</course>
  <speed>0.0</speed>
  <fix>3d</fix>
</trkpt>
<trkpt lat="33.810313" lon="-118.393867">
  <ele>0.0</ele>
  <time>2026-09-01T01:16:02Z</time>
  <course>188.39</course>
  <speed>0.0</speed>
  <fix>3d</fix>
</trkpt>
<trkpt lat="33.810313" lon="-118.393867">
  <ele>-0.12</ele>
  <time>2026-09-01T01:16:02Z</time>
  <course>0.0</course>
  <speed>0.0</speed>
  <fix>3d</fix>
</trkpt>
<trkpt lat="33.810313" lon="-118.393867">
  <ele>0.0</ele>
  <time>2026-09-01T01:16:02Z</time>
  <course>188.41</course>
  <speed>0.0</speed>
  <fix>3d</fix>
</trkpt>
<trkpt lat="33.810313" lon="-118.393867">
  <ele>-0.12</ele>
  <time>2026-09-01T01:16:02Z</time>
  <course>0.0</course>
  <speed>0.0</speed>
  <fix>3d</fix>
</trkpt>
<trkpt lat="33.810313" lon="-118.393867">
  <ele>0.0</ele>
  <time>2026-09-01T01:16:02Z</time>
  <course>188.43</course>
  <speed>0.0</speed>
  <fix>3d</fix>
</trkpt>
<trkpt lat="33.810313" lon="-118.393867">
  <ele>-0.12</ele>
  <time>2026-09-01T01:16:02Z</time>
  <course>0.0</course>
  <speed>0.0</speed>
  <fix>3d</fix>
</trkpt>
<trkpt lat="33.810313" lon="-118.393867">
  <ele>0.0</ele>
  <time>2026-09-01T01:16:02Z</time>
  <course>188.44</course>
  <speed>0.0</speed>
  <fix>3d</fix>
</trkpt>
<trkpt lat="33.810313" lon="-118.393867">
  <ele>-0.12</ele>
  <time>2026-09-01T01:16:02Z</time>
  <course>0.0</course>
  <speed>0.0</speed>
  <fix>3d</fix>
</trkpt>
<trkpt lat="33.810313" lon="-118.393867">
  <ele>0.0</ele>
  <time>2026-09-01T01:16:02Z</time>
  <course>188.46</course>
  <speed>0.0</speed>
  <fix>3d</fix>
</trkpt>
<trkpt lat="33.810313" lon="-118.393867">
  <ele>-0.13</ele>
  <time>2026-09-01T01:16:02Z</time>
  <course>0.0</course>
  <speed>0.0</speed>
  <fix>3d</fix>
</trkpt>
<trkpt lat="33.810313" lon="-118.393867">
  <ele>0.0</ele>
  <time>2026-09-01T01:16:02Z</time>
  <course>188.47</course>
  <speed>0.0</speed>
  <fix>3d</fix>
</trkpt>
<trkpt lat="33.810313" lon="-118.393867">
  <ele>-0.13</ele>
  <time>2026-09-01T01:16:02Z</time>
  <course>0.0</course>
  <speed>0.0</speed>
  <fix>3d</fix>
</trkpt>
<trkpt lat="33.810313" lon="-118.393867">
  <ele>0.0</ele>
  <time>2026-09-01T01:16:02Z</time>
  <course>188.48</course>
  <speed>0.0</speed>
  <fix>3d</fix>
</trkpt>
<trkpt lat="33.810313" lon="-118.393867">
  <ele>-0.13</ele>
  <time>2026-09-01T01:16:02Z</time>
  <course>0.0</course>
  <speed>0.0</speed>
  <fix>3d</fix>
</trkpt>
<trkpt lat="33.810313" lon="-118.393867">
  <ele>0.0</ele>
  <time>2026-09-01T01:16:02Z</time>
  <course>188.49</course>
  <speed>0.0</speed>
  <fix>3d</fix>
</trkpt>
<trkpt lat="33.810313" lon="-118.393867">
  <ele>-0.13</ele>
  <time>2026-09-01T01:16:02Z</time>
  <course>0.0</course>
  <speed>0.0</speed>
  <fix>3d</fix>
</trkpt>
<trkpt lat="33.810313" lon="-118.393867">
  <ele>0.0</ele>
  <time>2026-09-01T01:16:02Z</time>
  <course>188.5</course>
  <speed>0.0</speed>
  <fix>3d</fix>
</trkpt>
<trkpt lat="33.810313" lon="-118.393867">
  <ele>-0.13</ele>
  <time>2026-09-01T01:16:02Z</time>
  <course>0.0</course>
  <speed>0.0</speed>
  <fix>3d</fix>
</trkpt>
<trkpt lat="33.810313" lon="-118.393867">
  <ele>0.0</ele>
  <time>2026-09-01T01:16:02Z</time>
  <course>188.51</course>
  <speed>0.0</speed>
  <fix>3d</fix>
</trkpt>
<trkpt lat="33.810313" lon="-118.393867">
  <ele>-0.13</ele>
  <time>2026-09-01T01:16:02Z</time>
  <course>0.0</course>
  <speed>0.0</speed>
  <fix>3d</fix>
</trkpt>
<trkpt lat="33.810313" lon="-118.393867">
  <ele>0.0</ele>
  <time>2026-09-01T01:16:03Z</time>
  <course>188.51</course>
  <speed>0.0</speed>
  <fix>3d</fix>
</trkpt>
<trkpt lat="33.810313" lon="-118.393867">
  <ele>-0.12</ele>
  <time>2026-09-01T01:16:03Z</time>
  <course>0.0</course>
  <speed>0.0</speed>
  <fix>3d</fix>
</trkpt>
<trkpt lat="33.810313" lon="-118.393867">
  <ele>0.0</ele>
  <time>2026-09-01T01:16:03Z</time>
  <course>188.52</course>
  <speed>0.0</speed>
  <fix>3d</fix>
</trkpt>
<trkpt lat="33.810313" lon="-118.393867">
  <ele>-0.12</ele>
  <time>2026-09-01T01:16:03Z</time>
  <course>0.0</course>
  <speed>0.0</speed>
  <fix>3d</fix>
</trkpt>
<trkpt lat="33.810313" lon="-118.393867">
  <ele>0.0</ele>
  <time>2026-09-01T01:16:03Z</time>
  <course>188.53</course>
  <speed>0.0</speed>
  <fix>3d</fix>
</trkpt>
<trkpt lat="33.810313" lon="-118.393867">
  <ele>-0.12</ele>
  <time>2026-09-01T01:16:03Z</time>
  <course>0.0</course>
  <speed>0.0</speed>
  <fix>3d</fix>
</trkpt>
<trkpt lat="33.810313" lon="-118.393867">
  <ele>0.0</ele>
  <time>2026-09-01T01:16:03Z</time>
  <course>188.53</course>
  <speed>0.0</speed>
  <fix>3d</fix>
</trkpt>
<trkpt lat="33.810313" lon="-118.393867">
  <ele>-0.12</ele>
  <time>2026-09-01T01:16:03Z</time>
  <course>0.0</course>
  <speed>0.0</speed>
  <fix>3d</fix>
</trkpt>
<trkpt lat="33.810313" lon="-118.393867">
  <ele>0.0</ele>
  <time>2026-09-01T01:16:03Z</time>
  <course>188.54</course>
  <speed>0.0</speed>
  <fix>3d</fix>
</trkpt>
<trkpt lat="33.810313" lon="-118.393867">
  <ele>-0.12</ele>
  <time>2026-09-01T01:16:03Z</time>
  <course>0.0</course>
  <speed>0.0</speed>
  <fix>3d</fix>
</trkpt>
<trkpt lat="33.810313" lon="-118.393867">
  <ele>0.0</ele>
  <time>2026-09-01T01:16:03Z</time>
  <course>188.54</course>
  <speed>0.0</speed>
  <fix>3d</fix>
</trkpt>
<trkpt lat="33.810313" lon="-118.393867">
  <ele>-0.12</ele>
  <time>2026-09-01T01:16:03Z</time>
  <course>0.0</course>
  <speed>0.0</speed>
  <fix>3d</fix>
</trkpt>
<trkpt lat="33.810313" lon="-118.393867">
  <ele>0.0</ele>
  <time>2026-09-01T01:16:03Z</time>
  <course>188.54</course>
  <speed>0.0</speed>
  <fix>3d</fix>
</trkpt>
<trkpt lat="33.810313" lon="-118.393867">
  <ele>-0.12</ele>
  <time>2026-09-01T01:16:03Z</time>
  <course>0.0</course>
  <speed>0.0</speed>
  <fix>3d</fix>
</trkpt>
<trkpt lat="33.810313" lon="-118.393867">
  <ele>0.0</ele>
  <time>2026-09-01T01:16:03Z</time>
  <course>188.55</course>
  <speed>0.0</speed>
  <fix>3d</fix>
</trkpt>
<trkpt lat="33.810313" lon="-118.393867">
  <ele>-0.12</ele>
  <time>2026-09-01T01:16:03Z</time>
  <course>0.0</course>
  <speed>0.0</speed>
  <fix>3d</fix>
</trkpt>
<trkpt lat="33.810313" lon="-118.393867">
  <ele>0.0</ele>
  <time>2026-09-01T01:16:03Z</time>
  <course>188.55</course>
  <speed>0.0</speed>
  <fix>3d</fix>
</trkpt>
<trkpt lat="33.810313" lon="-118.393867">
  <ele>-0.12</ele>
  <time>2026-09-01T01:16:03Z</time>
  <course>0.0</course>
  <speed>0.0</speed>
  <fix>3d</fix>
</trkpt>
<trkpt lat="33.810313" lon="-118.393867">
  <ele>0.0</ele>
  <time>2026-09-01T01:16:03Z</time>
  <course>188.55</course>
  <speed>0.0</speed>
  <fix>3d</fix>
</trkpt>
<trkpt lat="33.810313" lon="-118.393867">
  <ele>-0.12</ele>
  <time>2026-09-01T01:16:03Z</time>
  <course>0.0</course>
  <speed>0.0</speed>
  <fix>3d</fix>
</trkpt>
<trkpt lat="33.810313" lon="-118.393867">
  <ele>0.0</ele>
  <time>2026-09-01T01:16:03Z</time>
  <course>188.56</course>
  <speed>0.0</speed>
  <fix>3d</fix>
</trkpt>
<trkpt lat="33.810313" lon="-118.393867">
  <ele>-0.13</ele>
  <time>2026-09-01T01:16:03Z</time>
  <course>0.0</course>
  <speed>0.0</speed>
  <fix>3d</fix>
</trkpt>
<trkpt lat="33.810313" lon="-118.393867">
  <ele>0.0</ele>
  <time>2026-09-01T01:16:04Z</time>
  <course>188.56</course>
  <speed>0.0</speed>
  <fix>3d</fix>
</trkpt>
<trkpt lat="33.810313" lon="-118.393867">
  <ele>-0.13</ele>
  <time>2026-09-01T01:16:04Z</time>
  <course>0.0</course>
  <speed>0.0</speed>
  <fix>3d</fix>
</trkpt>
<trkpt lat="33.810313" lon="-118.393867">
  <ele>-0.126</ele>
  <time>2026-09-01T01:16:04Z</time>
  <course>188.56</course>
  <speed>0.0</speed>
  <fix>3d</fix>
</trkpt>
<trkpt lat="33.810313" lon="-118.393867">
  <ele>-0.13</ele>
  <time>2026-09-01T01:16:04Z</time>
  <course>0.0</course>
  <speed>0.0</speed>
  <fix>3d</fix>
</trkpt>
<trkpt lat="33.810313" lon="-118.393867">
  <ele>-0.123</ele>
  <time>2026-09-01T01:16:04Z</time>
  <course>188.56</course>
  <speed>0.0</speed>
  <fix>3d</fix>
</trkpt>
<trkpt lat="33.810313" lon="-118.393867">
  <ele>-0.13</ele>
  <time>2026-09-01T01:16:04Z</time>
  <course>0.0</course>
  <speed>0.0</speed>
  <fix>3d</fix>
</trkpt>
<trkpt lat="33.810313" lon="-118.393867">
  <ele>-0.119</ele>
  <time>2026-09-01T01:16:04Z</time>
  <course>188.56</course>
  <speed>0.0</speed>
  <fix>3d</fix>
</trkpt>
<trkpt lat="33.810313" lon="-118.393867">
  <ele>-0.12</ele>
  <time>2026-09-01T01:16:04Z</time>
  <course>0.0</course>
  <speed>0.0</speed>
  <fix>3d</fix>
</trkpt>
<trkpt lat="33.810313" lon="-118.393867">
  <ele>-0.116</ele>
  <time>2026-09-01T01:16:04Z</time>
  <course>188.56</course>
  <speed>0.0</speed>
  <fix>3d</fix>
</trkpt>
<trkpt lat="33.810313" lon="-118.393867">
  <ele>-0.12</ele>
  <time>2026-09-01T01:16:04Z</time>
  <course>0.0</course>
  <speed>0.0</speed>
  <fix>3d</fix>
</trkpt>
<trkpt lat="33.810313" lon="-118.393867">
  <ele>-0.113</ele>
  <time>2026-09-01T01:16:04Z</time>
  <course>188.56</course>
  <speed>0.0</speed>
  <fix>3d</fix>
</trkpt>
<trkpt lat="33.810313" lon="-118.393867">
  <ele>-0.12</ele>
  <time>2026-09-01T01:16:04Z</time>
  <course>0.0</course>
  <speed>0.0</speed>
  <fix>3d</fix>
</trkpt>
<trkpt lat="33.810313" lon="-118.393867">
  <ele>-0.112</ele>
  <time>2026-09-01T01:16:04Z</time>
  <course>188.56</course>
  <speed>0.0</speed>
  <fix>3d</fix>
</trkpt>
<trkpt lat="33.810313" lon="-118.393867">
  <ele>-0.12</ele>
  <time>2026-09-01T01:16:04Z</time>
  <course>0.0</course>
  <speed>0.0</speed>
  <fix>3d</fix>
</trkpt>
<trkpt lat="33.810313" lon="-118.393867">
  <ele>-0.112</ele>
  <time>2026-09-01T01:16:04Z</time>
  <course>188.55</course>
  <speed>0.0</speed>
  <fix>3d</fix>
</trkpt>
<trkpt lat="33.810313" lon="-118.393867">
  <ele>-0.12</ele>
  <time>2026-09-01T01:16:04Z</time>
  <course>0.0</course>
  <speed>0.0</speed>
  <fix>3d</fix>
</trkpt>
<trkpt lat="33.810313" lon="-118.393867">
  <ele>-0.113</ele>
  <time>2026-09-01T01:16:04Z</time>
  <course>188.55</course>
  <speed>0.0</speed>
  <fix>3d</fix>
</trkpt>
<trkpt lat="33.810313" lon="-118.393867">
  <ele>-0.12</ele>
  <time>2026-09-01T01:16:04Z</time>
  <course>0.0</course>
  <speed>0.0</speed>
  <fix>3d</fix>
</trkpt>
<trkpt lat="33.810313" lon="-118.393867">
  <ele>-0.114</ele>
  <time>2026-09-01T01:16:04Z</time>
  <course>188.55</course>
  <speed>0.0</speed>
  <fix>3d</fix>
</trkpt>
<trkpt lat="33.810313" lon="-118.393867">
  <ele>-0.12</ele>
  <time>2026-09-01T01:16:04Z</time>
  <course>0.0</course>
  <speed>0.0</speed>
  <fix>3d</fix>
</trkpt>
<trkpt lat="33.810313" lon="-118.393867">
  <ele>-0.113</ele>
  <time>2026-09-01T01:16:05Z</time>
  <course>188.55</course>
  <speed>0.0</speed>
  <fix>3d</fix>
</trkpt>
<trkpt lat="33.810313" lon="-118.393867">
  <ele>-0.12</ele>
  <time>2026-09-01T01:16:05Z</time>
  <course>0.0</course>
  <speed>0.0</speed>
  <fix>3d</fix>
</trkpt>
<trkpt lat="33.810313" lon="-118.393867">
  <ele>-0.112</ele>
  <time>2026-09-01T01:16:05Z</time>
  <course>188.55</course>
  <speed>0.0</speed>
  <fix>3d</fix>
</trkpt>
<trkpt lat="33.810313" lon="-118.393867">
  <ele>-0.12</ele>
  <time>2026-09-01T01:16:05Z</time>
  <course>0.0</course>
  <speed>0.0</speed>
  <fix>3d</fix>
</trkpt>
<trkpt lat="33.810313" lon="-118.393867">
  <ele>-0.112</ele>
  <time>2026-09-01T01:16:05Z</time>
  <course>188.54</course>
  <speed>0.0</speed>
  <fix>3d</fix>
</trkpt>
<trkpt lat="33.810313" lon="-118.393867">
  <ele>-0.12</ele>
  <time>2026-09-01T01:16:05Z</time>
  <course>0.0</course>
  <speed>0.0</speed>
  <fix>3d</fix>
</trkpt>
<trkpt lat="33.810313" lon="-118.393867">
  <ele>-0.112</ele>
  <time>2026-09-01T01:16:05Z</time>
  <course>188.54</course>
  <speed>0.0</speed>
  <fix>3d</fix>
</trkpt>
<trkpt lat="33.810313" lon="-118.393867">
  <ele>-0.12</ele>
  <time>2026-09-01T01:16:05Z</time>
  <course>0.0</course>
  <speed>0.0</speed>
  <fix>3d</fix>
</trkpt>
<trkpt lat="33.810313" lon="-118.393867">
  <ele>-0.112</ele>
  <time>2026-09-01T01:16:05Z</time>
  <course>188.53</course>
  <speed>0.0</speed>
  <fix>3d</fix>
</trkpt>
<trkpt lat="33.810313" lon="-118.393867">
  <ele>-0.12</ele>
  <time>2026-09-01T01:16:05Z</time>
  <course>0.0</course>
  <speed>0.0</speed>
  <fix>3d</fix>
</trkpt>
<trkpt lat="33.810313" lon="-118.393867">
  <ele>-0.111</ele>
  <time>2026-09-01T01:16:05Z</time>
  <course>188.53</course>
  <speed>0.0</speed>
  <fix>3d</fix>
</trkpt>
<trkpt lat="33.810313" lon="-118.393867">
  <ele>-0.13</ele>
  <time>2026-09-01T01:16:05Z</time>
  <course>0.0</course>
  <speed>0.0</speed>
  <fix>3d</fix>
</trkpt>
<trkpt lat="33.810313" lon="-118.393867">
  <ele>-0.111</ele>
  <time>2026-09-01T01:16:05Z</time>
  <course>188.53</course>
  <speed>0.0</speed>
  <fix>3d</fix>
</trkpt>
<trkpt lat="33.810313" lon="-118.393867">
  <ele>-0.13</ele>
  <time>2026-09-01T01:16:05Z</time>
  <course>0.0</course>
  <speed>0.0</speed>
  <fix>3d</fix>
</trkpt>
<trkpt lat="33.810313" lon="-118.393867">
  <ele>-0.109</ele>
  <time>2026-09-01T01:16:05Z</time>
  <course>188.52</course>
  <speed>0.0</speed>
  <fix>3d</fix>
</trkpt>
<trkpt lat="33.810313" lon="-118.393867">
  <ele>-0.12</ele>
  <time>2026-09-01T01:16:05Z</time>
  <course>0.0</course>
  <speed>0.0</speed>
  <fix>3d</fix>
</trkpt>
<trkpt lat="33.810313" lon="-118.393867">
  <ele>-0.107</ele>
  <time>2026-09-01T01:16:05Z</time>
  <course>188.52</course>
  <speed>0.0</speed>
  <fix>3d</fix>
</trkpt>
<trkpt lat="33.810313" lon="-118.393867">
  <ele>-0.12</ele>
  <time>2026-09-01T01:16:05Z</time>
  <course>0.0</course>
  <speed>0.0</speed>
  <fix>3d</fix>
</trkpt>
<trkpt lat="33.810313" lon="-118.393867">
  <ele>-0.106</ele>
  <time>2026-09-01T01:16:05Z</time>
  <course>188.51</course>
  <speed>0.0</speed>
  <fix>3d</fix>
</trkpt>
<trkpt lat="33.810313" lon="-118.393867">
  <ele>-0.12</ele>
  <time>2026-09-01T01:16:05Z</time>
  <course>0.0</course>
  <speed>0.0</speed>
  <fix>3d</fix>
</trkpt>
<trkpt lat="33.810313" lon="-118.393867">
  <ele>-0.106</ele>
  <time>2026-09-01T01:16:06Z</time>
  <course>188.51</course>
  <speed>0.0</speed>
  <fix>3d</fix>
</trkpt>
<trkpt lat="33.810313" lon="-118.393867">
  <ele>-0.12</ele>
  <time>2026-09-01T01:16:06Z</time>
  <course>0.0</course>
  <speed>0.0</speed>
  <fix>3d</fix>
</trkpt>
<trkpt lat="33.810313" lon="-118.393867">
  <ele>-0.107</ele>
  <time>2026-09-01T01:16:06Z</time>
  <course>188.5</course>
  <speed>0.0</speed>
  <fix>3d</fix>
</trkpt>
<trkpt lat="33.810313" lon="-118.393867">
  <ele>-0.12</ele>
  <time>2026-09-01T01:16:06Z</time>
  <course>0.0</course>
  <speed>0.0</speed>
  <fix>3d</fix>
</trkpt>
<trkpt lat="33.810313" lon="-118.393867">
  <ele>-0.109</ele>
  <time>2026-09-01T01:16:06Z</time>
  <course>188.5</course>
  <speed>0.0</speed>
  <fix>3d</fix>
</trkpt>
<trkpt lat="33.810313" lon="-118.393867">
  <ele>-0.12</ele>
  <time>2026-09-01T01:16:06Z</time>
  <course>0.0</course>
  <speed>0.0</speed>
  <fix>3d</fix>
</trkpt>
<trkpt lat="33.810313" lon="-118.393867">
  <ele>-0.111</ele>
  <time>2026-09-01T01:16:06Z</time>
  <course>188.49</course>
  <speed>0.0</speed>
  <fix>3d</fix>
</trkpt>
<trkpt lat="33.810313" lon="-118.393867">
  <ele>-0.12</ele>
  <time>2026-09-01T01:16:06Z</time>
  <course>0.0</course>
  <speed>0.0</speed>
  <fix>3d</fix>
</trkpt>
<trkpt lat="33.810313" lon="-118.393867">
  <ele>-0.111</ele>
  <time>2026-09-01T01:16:06Z</time>
  <course>188.49</course>
  <speed>0.0</speed>
  <fix>3d</fix>
</trkpt>
<trkpt lat="33.810313" lon="-118.393867">
  <ele>-0.12</ele>
  <time>2026-09-01T01:16:06Z</time>
  <course>0.0</course>
  <speed>0.0</speed>
  <fix>3d</fix>
</trkpt>
<trkpt lat="33.810313" lon="-118.393867">
  <ele>-0.112</ele>
  <time>2026-09-01T01:16:06Z</time>
  <course>188.48</course>
  <speed>0.0</speed>
  <fix>3d</fix>
</trkpt>
<trkpt lat="33.810313" lon="-118.393867">
  <ele>-0.12</ele>
  <time>2026-09-01T01:16:06Z</time>
  <course>0.0</course>
  <speed>0.0</speed>
  <fix>3d</fix>
</trkpt>
<trkpt lat="33.810313" lon="-118.393867">
  <ele>-0.113</ele>
  <time>2026-09-01T01:16:06Z</time>
  <course>188.48</course>
  <speed>0.01</speed>
  <fix>3d</fix>
</trkpt>
<trkpt lat="33.810313" lon="-118.393867">
  <ele>-0.12</ele>
  <time>2026-09-01T01:16:06Z</time>
  <course>0.0</course>
  <speed>0.0</speed>
  <fix>3d</fix>
</trkpt>
<trkpt lat="33.810313" lon="-118.393867">
  <ele>-0.113</ele>
  <time>2026-09-01T01:16:06Z</time>
  <course>188.47</course>
  <speed>0.01</speed>
  <fix>3d</fix>
</trkpt>
<trkpt lat="33.810313" lon="-118.393867">
  <ele>-0.12</ele>
  <time>2026-09-01T01:16:06Z</time>
  <course>0.0</course>
  <speed>0.0</speed>
  <fix>3d</fix>
</trkpt>
<trkpt lat="33.810313" lon="-118.393867">
  <ele>-0.113</ele>
  <time>2026-09-01T01:16:06Z</time>
  <course>188.46</course>
  <speed>0.01</speed>
  <fix>3d</fix>
</trkpt>
<trkpt lat="33.810313" lon="-118.393867">
  <ele>-0.12</ele>
  <time>2026-09-01T01:16:06Z</time>
  <course>0.0</course>
  <speed>0.0</speed>
  <fix>3d</fix>
</trkpt>
<trkpt lat="33.810313" lon="-118.393867">
  <ele>-0.114</ele>
  <time>2026-09-01T01:16:06Z</time>
  <course>188.46</course>
  <speed>0.01</speed>
  <fix>3d</fix>
</trkpt>
<trkpt lat="33.810313" lon="-118.393867">
  <ele>-0.12</ele>
  <time>2026-09-01T01:16:06Z</time>
  <course>0.0</course>
  <speed>0.0</speed>
  <fix>3d</fix>
</trkpt>
<trkpt lat="33.810313" lon="-118.393867">
  <ele>-0.114</ele>
  <time>2026-09-01T01:16:07Z</time>
  <course>188.45</course>
  <speed>0.01</speed>
  <fix>3d</fix>
</trkpt>
<trkpt lat="33.810313" lon="-118.393867">
  <ele>-0.12</ele>
  <time>2026-09-01T01:16:07Z</time>
  <course>0.0</course>
  <speed>0.0</speed>
  <fix>3d</fix>
</trkpt>
<trkpt lat="33.810313" lon="-118.393867">
  <ele>-0.113</ele>
  <time>2026-09-01T01:16:07Z</time>
  <course>188.45</course>
  <speed>0.01</speed>
  <fix>3d</fix>
</trkpt>
<trkpt lat="33.810313" lon="-118.393867">
  <ele>-0.12</ele>
  <time>2026-09-01T01:16:07Z</time>
  <course>0.0</course>
  <speed>0.0</speed>
  <fix>3d</fix>
</trkpt>
<trkpt lat="33.810313" lon="-118.393867">
  <ele>-0.112</ele>
  <time>2026-09-01T01:16:07Z</time>
  <course>188.44</course>
  <speed>0.01</speed>
  <fix>3d</fix>
</trkpt>
<trkpt lat="33.810313" lon="-118.393867">
  <ele>-0.12</ele>
  <time>2026-09-01T01:16:07Z</time>
  <course>0.0</course>
  <speed>0.0</speed>
  <fix>3d</fix>
</trkpt>
<trkpt lat="33.810313" lon="-118.393867">
  <ele>-0.112</ele>
  <time>2026-09-01T01:16:07Z</time>
  <course>188.44</course>
  <speed>0.01</speed>
  <fix>3d</fix>
</trkpt>
<trkpt lat="33.810313" lon="-118.393867">
  <ele>-0.12</ele>
  <time>2026-09-01T01:16:07Z</time>
  <course>0.0</course>
  <speed>0.0</speed>
  <fix>3d</fix>
</trkpt>
<trkpt lat="33.810313" lon="-118.393867">
  <ele>-0.112</ele>
  <time>2026-09-01T01:16:07Z</time>
  <course>188.43</course>
  <speed>0.01</speed>
  <fix>3d</fix>
</trkpt>
<trkpt lat="33.810313" lon="-118.393867">
  <ele>-0.12</ele>
  <time>2026-09-01T01:16:07Z</time>
  <course>0.0</course>
  <speed>0.0</speed>
  <fix>3d</fix>
</trkpt>
<trkpt lat="33.810313" lon="-118.393867">
  <ele>-0.113</ele>
  <time>2026-09-01T01:16:07Z</time>
  <course>188.43</course>
  <speed>0.01</speed>
  <fix>3d</fix>
</trkpt>
<trkpt lat="33.810313" lon="-118.393867">
  <ele>-0.12</ele>
  <time>2026-09-01T01:16:07Z</time>
  <course>0.0</course>
  <speed>0.0</speed>
  <fix>3d</fix>
</trkpt>
<trkpt lat="33.810313" lon="-118.393867">
  <ele>-0.115</ele>
  <time>2026-09-01T01:16:07Z</time>
  <course>188.42</course>
  <speed>0.01414213562373095</speed>
  <fix>3d</fix>
</trkpt>
<trkpt lat="33.810313" lon="-118.393867">
  <ele>-0.12</ele>
  <time>2026-09-01T01:16:07Z</time>
  <course>0.0</course>
  <speed>0.0</speed>
  <fix>3d</fix>
</trkpt>
<trkpt lat="33.810313" lon="-118.393867">
  <ele>-0.116</ele>
  <time>2026-09-01T01:16:07Z</time>
  <course>188.41</course>
  <speed>0.01414213562373095</speed>
  <fix>3d</fix>
</trkpt>
<trkpt lat="33.810313" lon="-118.393867">
  <ele>-0.12</ele>
  <time>2026-09-01T01:16:07Z</time>
  <course>0.0</course>
  <speed>0.0</speed>
  <fix>3d</fix>
</trkpt>
<trkpt lat="33.810313" lon="-118.393867">
  <ele>-0.117</ele>
  <time>2026-09-01T01:16:07Z</time>
  <course>188.41</course>
  <speed>0.01414213562373095</speed>
  <fix>3d</fix>
</trkpt>
<trkpt lat="33.810313" lon="-118.393867">
  <ele>-0.12</ele>
  <time>2026-09-01T01:16:07Z</time>
  <course>0.0</course>
  <speed>0.0</speed>
  <fix>3d</fix>
</trkpt>
<trkpt lat="33.810313" lon="-118.393867">
  <ele>-0.117</ele>
  <time>2026-09-01T01:16:07Z</time>
  <course>188.4</course>
  <speed>0.01414213562373095</speed>
  <fix>3d</fix>
</trkpt>
<trkpt lat="33.810313" lon="-118.393867">
  <ele>-0.12</ele>
  <time>2026-09-01T01:16:07Z</time>
  <course>0.0</course>
  <speed>0.0</speed>
  <fix>3d</fix>
</trkpt>
<trkpt lat="33.810313" lon="-118.393867">
  <ele>-0.116</ele>
  <time>2026-09-01T01:16:08Z</time>
  <course>188.39</course>
  <speed>0.01414213562373095</speed>
  <fix>3d</fix>
</trkpt>
<trkpt lat="33.810313" lon="-118.393867">
  <ele>-0.12</ele>
  <time>2026-09-01T01:16:08Z</time>
  <course>0.0</course>
  <speed>0.0</speed>
  <fix>3d</fix>
</trkpt>
<trkpt lat="33.810313" lon="-118.393867">
  <ele>-0.115</ele>
  <time>2026-09-01T01:16:08Z</time>
  <course>188.38</course>
  <speed>0.01414213562373095</speed>
  <fix>3d</fix>
</trkpt>
<trkpt lat="33.810313" lon="-118.393867">
  <ele>-0.12</ele>
  <time>2026-09-01T01:16:08Z</time>
  <course>0.0</course>
  <speed>0.0</speed>
  <fix>3d</fix>
</trkpt>
<trkpt lat="33.810313" lon="-118.393867">
  <ele>-0.114</ele>
  <time>2026-09-01T01:16:08Z</time>
  <course>188.38</course>
  <speed>0.01414213562373095</speed>
  <fix>3d</fix>
</trkpt>
<trkpt lat="33.810313" lon="-118.393867">
  <ele>-0.12</ele>
  <time>2026-09-01T01:16:08Z</time>
  <course>0.0</course>
  <speed>0.0</speed>
  <fix>3d</fix>
</trkpt>
<trkpt lat="33.810313" lon="-118.393867">
  <ele>-0.112</ele>
  <time>2026-09-01T01:16:08Z</time>
  <course>188.37</course>
  <speed>0.01414213562373095</speed>
  <fix>3d</fix>
</trkpt>
<trkpt lat="33.810313" lon="-118.393867">
  <ele>-0.12</ele>
  <time>2026-09-01T01:16:08Z</time>
  <course>0.0</course>
  <speed>0.0</speed>
  <fix>3d</fix>
</trkpt>
<trkpt lat="33.810313" lon="-118.393867">
  <ele>-0.11</ele>
  <time>2026-09-01T01:16:08Z</time>
  <course>188.36</course>
  <speed>0.01414213562373095</speed>
  <fix>3d</fix>
</trkpt>
<trkpt lat="33.810313" lon="-118.393867">
  <ele>-0.12</ele>
  <time>2026-09-01T01:16:08Z</time>
  <course>0.0</course>
  <speed>0.0</speed>
  <fix>3d</fix>
</trkpt>
<trkpt lat="33.810313" lon="-118.393867">
  <ele>-0.107</ele>
  <time>2026-09-01T01:16:09Z</time>
  <course>188.35</course>
  <speed>0.01414213562373095</speed>
  <fix>3d</fix>
</trkpt>
<trkpt lat="33.810313" lon="-118.393867">
  <ele>-0.12</ele>
  <time>2026-09-01T01:16:09Z</time>
  <course>0.0</course>
  <speed>0.0</speed>
  <fix>3d</fix>
</trkpt>
<trkpt lat="33.810313" lon="-118.393867">
  <ele>-0.106</ele>
  <time>2026-09-01T01:16:09Z</time>
  <course>188.34</course>
  <speed>0.01414213562373095</speed>
  <fix>3d</fix>
</trkpt>
<trkpt lat="33.810313" lon="-118.393867">
  <ele>-0.12</ele>
  <time>2026-09-01T01:16:09Z</time>
  <course>0.0</course>
  <speed>0.0</speed>
  <fix>3d</fix>
</trkpt>
<trkpt lat="33.810313" lon="-118.393867">
  <ele>-0.106</ele>
  <time>2026-09-01T01:16:09Z</time>
  <course>188.34</course>
  <speed>0.01414213562373095</speed>
  <fix>3d</fix>
</trkpt>
<trkpt lat="33.810313" lon="-118.393867">
  <ele>-0.12</ele>
  <time>2026-09-01T01:16:09Z</time>
  <course>0.0</course>
  <speed>0.0</speed>
  <fix>3d</fix>
</trkpt>
<trkpt lat="33.810313" lon="-118.393867">
  <ele>-0.107</ele>
  <time>2026-09-01T01:16:09Z</time>
  <course>188.33</course>
  <speed>0.01414213562373095</speed>
  <fix>3d</fix>
</trkpt>
<trkpt lat="33.810313" lon="-118.393867">
  <ele>-0.12</ele>
  <time>2026-09-01T01:16:09Z</time>
  <course>0.0</course>
  <speed>0.0</speed>
  <fix>3d</fix>
</trkpt>
<trkpt lat="33.810313" lon="-118.393867">
  <ele>-0.109</ele>
  <time>2026-09-01T01:16:09Z</time>
  <course>188.32</course>
  <speed>0.01414213562373095</speed>
  <fix>3d</fix>
</trkpt>
<trkpt lat="33.810313" lon="-118.393867">
  <ele>-0.12</ele>
  <time>2026-09-01T01:16:09Z</time>
  <course>0.0</course>
  <speed>0.0</speed>
  <fix>3d</fix>
</trkpt>
<trkpt lat="33.810313" lon="-118.393867">
  <ele>-0.111</ele>
  <time>2026-09-01T01:16:10Z</time>
  <course>188.31</course>
  <speed>0.01414213562373095</speed>
  <fix>3d</fix>
</trkpt>
<trkpt lat="33.810313" lon="-118.393867">
  <ele>-0.12</ele>
  <time>2026-09-01T01:16:10Z</time>
  <course>0.0</course>
  <speed>0.0</speed>
  <fix>3d</fix>
</trkpt>
<trkpt lat="33.810313" lon="-118.393867">
  <ele>-0.112</ele>
  <time>2026-09-01T01:16:10Z</time>
  <course>188.3</course>
  <speed>0.01414213562373095</speed>
  <fix>3d</fix>
</trkpt>
<trkpt lat="33.810313" lon="-118.393867">
  <ele>-0.12</ele>
  <time>2026-09-01T01:16:10Z</time>
  <course>0.0</course>
  <speed>0.0</speed>
  <fix>3d</fix>
</trkpt>
<trkpt lat="33.810313" lon="-118.393867">
  <ele>-0.113</ele>
  <time>2026-09-01T01:16:10Z</time>
  <course>188.3</course>
  <speed>0.01414213562373095</speed>
  <fix>3d</fix>
</trkpt>
<trkpt lat="33.810313" lon="-118.393867">
  <ele>-0.12</ele>
  <time>2026-09-01T01:16:10Z</time>
  <course>0.0</course>
  <speed>0.0</speed>
  <fix>3d</fix>
</trkpt>
<trkpt lat="33.810313" lon="-118.393867">
  <ele>-0.113</ele>
  <time>2026-09-01T01:16:10Z</time>
  <course>188.29</course>
  <speed>0.01414213562373095</speed>
  <fix>3d</fix>
</trkpt>
<trkpt lat="33.810313" lon="-118.393867">
  <ele>-0.12</ele>
  <time>2026-09-01T01:16:10Z</time>
  <course>0.0</course>
  <speed>0.0</speed>
  <fix>3d</fix>
</trkpt>
<trkpt lat="33.810313" lon="-118.393867">
  <ele>-0.112</ele>
  <time>2026-09-01T01:16:10Z</time>
  <course>188.28</course>
  <speed>0.01414213562373095</speed>
  <fix>3d</fix>
</trkpt>
<trkpt lat="33.810313" lon="-118.393867">
  <ele>-0.12</ele>
  <time>2026-09-01T01:16:10Z</time>
  <course>0.0</course>
  <speed>0.0</speed>
  <fix>3d</fix>
</trkpt>
<trkpt lat="33.810313" lon="-118.393867">
  <ele>-0.11</ele>
  <time>2026-09-01T01:16:10Z</time>
  <course>188.27</course>
  <speed>0.01414213562373095</speed>
  <fix>3d</fix>
</trkpt>
<trkpt lat="33.810313" lon="-118.393867">
  <ele>-0.12</ele>
  <time>2026-09-01T01:16:10Z</time>
  <course>0.0</course>
  <speed>0.0</speed>
  <fix>3d</fix>
</trkpt>
<trkpt lat="33.810313" lon="-118.393867">
  <ele>-0.107</ele>
  <time>2026-09-01T01:16:10Z</time>
  <course>188.26</course>
  <speed>0.01414213562373095</speed>
  <fix>3d</fix>
</trkpt>
<trkpt lat="33.810313" lon="-118.393867">
  <ele>-0.12</ele>
  <time>2026-09-01T01:16:10Z</time>
  <course>0.0</course>
  <speed>0.0</speed>
  <fix>3d</fix>
</trkpt>
<trkpt lat="33.810313" lon="-118.393867">
  <ele>-0.104</ele>
  <time>2026-09-01T01:16:10Z</time>
  <course>188.25</course>
  <speed>0.01414213562373095</speed>
  <fix>3d</fix>
</trkpt>
<trkpt lat="33.810313" lon="-118.393867">
  <ele>-0.12</ele>
  <time>2026-09-01T01:16:10Z</time>
  <course>0.0</course>
  <speed>0.0</speed>
  <fix>3d</fix>
</trkpt>
<trkpt lat="33.810313" lon="-118.393867">
  <ele>-0.102</ele>
  <time>2026-09-01T01:16:10Z</time>
  <course>188.24</course>
  <speed>0.01414213562373095</speed>
  <fix>3d</fix>
</trkpt>
<trkpt lat="33.810313" lon="-118.393867">
  <ele>-0.12</ele>
  <time>2026-09-01T01:16:10Z</time>
  <course>0.0</course>
  <speed>0.0</speed>
  <fix>3d</fix>
</trkpt>
<trkpt lat="33.810313" lon="-118.393867">
  <ele>-0.101</ele>
  <time>2026-09-01T01:16:10Z</time>
  <course>188.24</course>
  <speed>0.01414213562373095</speed>
  <fix>3d</fix>
</trkpt>
<trkpt lat="33.810313" lon="-118.393867">
  <ele>-0.12</ele>
  <time>2026-09-01T01:16:10Z</time>
  <course>0.0</course>
  <speed>0.0</speed>
  <fix>3d</fix>
</trkpt>
<trkpt lat="33.810313" lon="-118.393867">
  <ele>-0.103</ele>
  <time>2026-09-01T01:16:10Z</time>
  <course>188.23</course>
  <speed>0.01414213562373095</speed>
  <fix>3d</fix>
</trkpt>
<trkpt lat="33.810313" lon="-118.393867">
  <ele>-0.12</ele>
  <time>2026-09-01T01:16:10Z</time>
  <course>0.0</course>
  <speed>0.0</speed>
  <fix>3d</fix>
</trkpt>
<trkpt lat="33.810313" lon="-118.393867">
  <ele>-0.106</ele>
  <time>2026-09-01T01:16:11Z</time>
  <course>188.22</course>
  <speed>0.01414213562373095</speed>
  <fix>3d</fix>
</trkpt>
<trkpt lat="33.810313" lon="-118.393867">
  <ele>-0.12</ele>
  <time>2026-09-01T01:16:11Z</time>
  <course>0.0</course>
  <speed>0.0</speed>
  <fix>3d</fix>
</trkpt>
<trkpt lat="33.810313" lon="-118.393867">
  <ele>-0.107</ele>
  <time>2026-09-01T01:16:11Z</time>
  <course>188.21</course>
  <speed>0.01414213562373095</speed>
  <fix>3d</fix>
</trkpt>
<trkpt lat="33.810313" lon="-118.393867">
  <ele>-0.12</ele>
  <time>2026-09-01T01:16:11Z</time>
  <course>0.0</course>
  <speed>0.0</speed>
  <fix>3d</fix>
</trkpt>
<trkpt lat="33.810313" lon="-118.393867">
  <ele>-0.108</ele>
  <time>2026-09-01T01:16:11Z</time>
  <course>188.2</course>
  <speed>0.01414213562373095</speed>
  <fix>3d</fix>
</trkpt>
<trkpt lat="33.810313" lon="-118.393867">
  <ele>-0.12</ele>
  <time>2026-09-01T01:16:11Z</time>
  <course>0.0</course>
  <speed>0.0</speed>
  <fix>3d</fix>
</trkpt>
<trkpt lat="33.810313" lon="-118.393867">
  <ele>-0.109</ele>
  <time>2026-09-01T01:16:11Z</time>
  <course>188.19</course>
  <speed>0.01414213562373095</speed>
  <fix>3d</fix>
</trkpt>
<trkpt lat="33.810313" lon="-118.393867">
  <ele>-0.12</ele>
  <time>2026-09-01T01:16:11Z</time>
  <course>0.0</course>
  <speed>0.0</speed>
  <fix>3d</fix>
</trkpt>
<trkpt lat="33.810313" lon="-118.393867">
  <ele>-0.109</ele>
  <time>2026-09-01T01:16:11Z</time>
  <course>188.19</course>
  <speed>0.01414213562373095</speed>
  <fix>3d</fix>
</trkpt>
<trkpt lat="33.810313" lon="-118.393867">
  <ele>-0.12</ele>
  <time>2026-09-01T01:16:11Z</time>
  <course>0.0</course>
  <speed>0.0</speed>
  <fix>3d</fix>
</trkpt>
<trkpt lat="33.810313" lon="-118.393867">
  <ele>-0.11</ele>
  <time>2026-09-01T01:16:11Z</time>
  <course>188.18</course>
  <speed>0.01414213562373095</speed>
  <fix>3d</fix>
</trkpt>
<trkpt lat="33.810313" lon="-118.393867">
  <ele>-0.12</ele>
  <time>2026-09-01T01:16:11Z</time>
  <course>0.0</course>
  <speed>0.0</speed>
  <fix>3d</fix>
</trkpt>
<trkpt lat="33.810313" lon="-118.393867">
  <ele>-0.111</ele>
  <time>2026-09-01T01:16:11Z</time>
  <course>188.17</course>
  <speed>0.01414213562373095</speed>
  <fix>3d</fix>
</trkpt>
<trkpt lat="33.810313" lon="-118.393867">
  <ele>-0.12</ele>
  <time>2026-09-01T01:16:11Z</time>
  <course>0.0</course>
  <speed>0.0</speed>
  <fix>3d</fix>
</trkpt>
<trkpt lat="33.810313" lon="-118.393867">
  <ele>-0.11</ele>
  <time>2026-09-01T01:16:11Z</time>
  <course>188.16</course>
  <speed>0.01414213562373095</speed>
  <fix>3d</fix>
</trkpt>
<trkpt lat="33.810313" lon="-118.393867">
  <ele>-0.12</ele>
  <time>2026-09-01T01:16:11Z</time>
  <course>0.0</course>
  <speed>0.0</speed>
  <fix>3d</fix>
</trkpt>
<trkpt lat="33.810313" lon="-118.393867">
  <ele>-0.108</ele>
  <time>2026-09-01T01:16:11Z</time>
  <course>188.15</course>
  <speed>0.01414213562373095</speed>
  <fix>3d</fix>
</trkpt>
<trkpt lat="33.810313" lon="-118.393867">
  <ele>-0.12</ele>
  <time>2026-09-01T01:16:11Z</time>
  <course>0.0</course>
  <speed>0.0</speed>
  <fix>3d</fix>
</trkpt>
<trkpt lat="33.810313" lon="-118.393867">
  <ele>-0.107</ele>
  <time>2026-09-01T01:16:11Z</time>
  <course>188.14</course>
  <speed>0.01414213562373095</speed>
  <fix>3d</fix>
</trkpt>
<trkpt lat="33.810313" lon="-118.393867">
  <ele>-0.12</ele>
  <time>2026-09-01T01:16:11Z</time>
  <course>0.0</course>
  <speed>0.0</speed>
  <fix>3d</fix>
</trkpt>
<trkpt lat="33.810313" lon="-118.393867">
  <ele>-0.106</ele>
  <time>2026-09-01T01:16:12Z</time>
  <course>188.14</course>
  <speed>0.01414213562373095</speed>
  <fix>3d</fix>
</trkpt>
<trkpt lat="33.810313" lon="-118.393867">
  <ele>-0.12</ele>
  <time>2026-09-01T01:16:12Z</time>
  <course>0.0</course>
  <speed>0.0</speed>
  <fix>3d</fix>
</trkpt>
<trkpt lat="33.810313" lon="-118.393867">
  <ele>-0.108</ele>
  <time>2026-09-01T01:16:12Z</time>
  <course>188.13</course>
  <speed>0.01414213562373095</speed>
  <fix>3d</fix>
</trkpt>
<trkpt lat="33.810313" lon="-118.393867">
  <ele>-0.12</ele>
  <time>2026-09-01T01:16:12Z</time>
  <course>0.0</course>
  <speed>0.0</speed>
  <fix>3d</fix>
</trkpt>
<trkpt lat="33.810313" lon="-118.393867">
  <ele>-0.111</ele>
  <time>2026-09-01T01:16:12Z</time>
  <course>188.12</course>
  <speed>0.01414213562373095</speed>
  <fix>3d</fix>
</trkpt>
<trkpt lat="33.810313" lon="-118.393867">
  <ele>-0.12</ele>
  <time>2026-09-01T01:16:12Z</time>
  <course>0.0</course>
  <speed>0.0</speed>
  <fix>3d</fix>
</trkpt>
<trkpt lat="33.810313" lon="-118.393867">
  <ele>-0.114</ele>
  <time>2026-09-01T01:16:12Z</time>
  <course>188.11</course>
  <speed>0.01414213562373095</speed>
  <fix>3d</fix>
</trkpt>
<trkpt lat="33.810313" lon="-118.393867">
  <ele>-0.12</ele>
  <time>2026-09-01T01:16:12Z</time>
  <course>0.0</course>
  <speed>0.0</speed>
  <fix>3d</fix>
</trkpt>
<trkpt lat="33.810313" lon="-118.393867">
  <ele>-0.117</ele>
  <time>2026-09-01T01:16:12Z</time>
  <course>188.1</course>
  <speed>0.01414213562373095</speed>
  <fix>3d</fix>
</trkpt>
<trkpt lat="33.810313" lon="-118.393867">
  <ele>-0.12</ele>
  <time>2026-09-01T01:16:12Z</time>
  <course>0.0</course>
  <speed>0.0</speed>
  <fix>3d</fix>
</trkpt>
<trkpt lat="33.810313" lon="-118.393867">
  <ele>-0.118</ele>
  <time>2026-09-01T01:16:12Z</time>
  <course>188.09</course>
  <speed>0.01414213562373095</speed>
  <fix>3d</fix>
</trkpt>
<trkpt lat="33.810313" lon="-118.393867">
  <ele>-0.12</ele>
  <time>2026-09-01T01:16:12Z</time>
  <course>0.0</course>
  <speed>0.0</speed>
  <fix>3d</fix>
</trkpt>
<trkpt lat="33.810313" lon="-118.393867">
  <ele>-0.117</ele>
  <time>2026-09-01T01:16:12Z</time>
  <course>188.09</course>
  <speed>0.01414213562373095</speed>
  <fix>3d</fix>
</trkpt>
<trkpt lat="33.810313" lon="-118.393867">
  <ele>-0.12</ele>
  <time>2026-09-01T01:16:12Z</time>
  <course>0.0</course>
  <speed>0.0</speed>
  <fix>3d</fix>
</trkpt>
<trkpt lat="33.810313" lon="-118.393867">
  <ele>-0.115</ele>
  <time>2026-09-01T01:16:12Z</time>
  <course>188.08</course>
  <speed>0.01414213562373095</speed>
  <fix>3d</fix>
</trkpt>
<trkpt lat="33.810313" lon="-118.393867">
  <ele>-0.12</ele>
  <time>2026-09-01T01:16:12Z</time>
  <course>0.0</course>
  <speed>0.0</speed>
  <fix>3d</fix>
</trkpt>
<trkpt lat="33.810313" lon="-118.393867">
  <ele>-0.114</ele>
  <time>2026-09-01T01:16:12Z</time>
  <course>188.07</course>
  <speed>0.022360679774997897</speed>
  <fix>3d</fix>
</trkpt>
<trkpt lat="33.810313" lon="-118.393867">
  <ele>-0.12</ele>
  <time>2026-09-01T01:16:12Z</time>
  <course>0.0</course>
  <speed>0.0</speed>
  <fix>3d</fix>
</trkpt>
<trkpt lat="33.810313" lon="-118.393867">
  <ele>-0.113</ele>
  <time>2026-09-01T01:16:12Z</time>
  <course>188.06</course>
  <speed>0.022360679774997897</speed>
  <fix>3d</fix>
</trkpt>
<trkpt lat="33.810313" lon="-118.393867">
  <ele>-0.12</ele>
  <time>2026-09-01T01:16:12Z</time>
  <course>0.0</course>
  <speed>0.0</speed>
  <fix>3d</fix>
</trkpt>
<trkpt lat="33.810313" lon="-118.393867">
  <ele>-0.111</ele>
  <time>2026-09-01T01:16:13Z</time>
  <course>188.05</course>
  <speed>0.022360679774997897</speed>
  <fix>3d</fix>
</trkpt>
<trkpt lat="33.810313" lon="-118.393867">
  <ele>-0.12</ele>
  <time>2026-09-01T01:16:13Z</time>
  <course>0.0</course>
  <speed>0.0</speed>
  <fix>3d</fix>
</trkpt>
<trkpt lat="33.810313" lon="-118.393867">
  <ele>-0.109</ele>
  <time>2026-09-01T01:16:13Z</time>
  <course>188.05</course>
  <speed>0.022360679774997897</speed>
  <fix>3d</fix>
</trkpt>
<trkpt lat="33.810313" lon="-118.393867">
  <ele>-0.12</ele>
  <time>2026-09-01T01:16:13Z</time>
  <course>0.0</course>
  <speed>0.0</speed>
  <fix>3d</fix>
</trkpt>
<trkpt lat="33.810313" lon="-118.393867">
  <ele>-0.108</ele>
  <time>2026-09-01T01:16:13Z</time>
  <course>188.04</course>
  <speed>0.022360679774997897</speed>
  <fix>3d</fix>
</trkpt>
<trkpt lat="33.810313" lon="-118.393867">
  <ele>-0.12</ele>
  <time>2026-09-01T01:16:13Z</time>
  <course>0.0</course>
  <speed>0.0</speed>
  <fix>3d</fix>
</trkpt>
<trkpt lat="33.810313" lon="-118.393867">
  <ele>-0.109</ele>
  <time>2026-09-01T01:16:13Z</time>
  <course>188.03</course>
  <speed>0.022360679774997897</speed>
  <fix>3d</fix>
</trkpt>
<trkpt lat="33.810313" lon="-118.393867">
  <ele>-0.12</ele>
  <time>2026-09-01T01:16:13Z</time>
  <course>0.0</course>
  <speed>0.0</speed>
  <fix>3d</fix>
</trkpt>
<trkpt lat="33.810313" lon="-118.393867">
  <ele>-0.111</ele>
  <time>2026-09-01T01:16:13Z</time>
  <course>188.02</course>
  <speed>0.022360679774997897</speed>
  <fix>3d</fix>
</trkpt>
<trkpt lat="33.810313" lon="-118.393867">
  <ele>-0.12</ele>
  <time>2026-09-01T01:16:13Z</time>
  <course>0.0</course>
  <speed>0.0</speed>
  <fix>3d</fix>
</trkpt>
<trkpt lat="33.810313" lon="-118.393867">
  <ele>-0.114</ele>
  <time>2026-09-01T01:16:13Z</time>
  <course>188.01</course>
  <speed>0.022360679774997897</speed>
  <fix>3d</fix>
</trkpt>
<trkpt lat="33.810313" lon="-118.393867">
  <ele>-0.12</ele>
  <time>2026-09-01T01:16:13Z</time>
  <course>0.0</course>
  <speed>0.0</speed>
  <fix>3d</fix>
</trkpt>
<trkpt lat="33.810313" lon="-118.393867">
  <ele>-0.118</ele>
  <time>2026-09-01T01:16:13Z</time>
  <course>188.01</course>
  <speed>0.022360679774997897</speed>
  <fix>3d</fix>
</trkpt>
<trkpt lat="33.810313" lon="-118.393867">
  <ele>-0.12</ele>
  <time>2026-09-01T01:16:13Z</time>
  <course>0.0</course>
  <speed>0.0</speed>
  <fix>3d</fix>
</trkpt>
<trkpt lat="33.810313" lon="-118.393867">
  <ele>-0.12</ele>
  <time>2026-09-01T01:16:13Z</time>
  <course>188.0</course>
  <speed>0.022360679774997897</speed>
  <fix>3d</fix>
</trkpt>
<trkpt lat="33.810313" lon="-118.393867">
  <ele>-0.12</ele>
  <time>2026-09-01T01:16:13Z</time>
  <course>0.0</course>
  <speed>0.0</speed>
  <fix>3d</fix>
</trkpt>
<trkpt lat="33.810313" lon="-118.393867">
  <ele>-0.121</ele>
  <time>2026-09-01T01:16:13Z</time>
  <course>187.99</course>
  <speed>0.022360679774997897</speed>
  <fix>3d</fix>
</trkpt>
<trkpt lat="33.810313" lon="-118.393867">
  <ele>-0.12</ele>
  <time>2026-09-01T01:16:13Z</time>
  <course>0.0</course>
  <speed>0.0</speed>
  <fix>3d</fix>
</trkpt>
<trkpt lat="33.810313" lon="-118.393867">
  <ele>-0.12</ele>
  <time>2026-09-01T01:16:13Z</time>
  <course>187.98</course>
  <speed>0.022360679774997897</speed>
  <fix>3d</fix>
</trkpt>
<trkpt lat="33.810313" lon="-118.393867">
  <ele>-0.12</ele>
  <time>2026-09-01T01:16:13Z</time>
  <course>0.0</course>
  <speed>0.0</speed>
  <fix>3d</fix>
</trkpt>
<trkpt lat="33.810313" lon="-118.393867">
  <ele>-0.119</ele>
  <time>2026-09-01T01:16:14Z</time>
  <course>187.97</course>
  <speed>0.022360679774997897</speed>
  <fix>3d</fix>
</trkpt>
<trkpt lat="33.810313" lon="-118.393867">
  <ele>-0.12</ele>
  <time>2026-09-01T01:16:14Z</time>
  <course>0.0</course>
  <speed>0.0</speed>
  <fix>3d</fix>
</trkpt>
<trkpt lat="33.810313" lon="-118.393867">
  <ele>-0.118</ele>
  <time>2026-09-01T01:16:14Z</time>
  <course>187.96</course>
  <speed>0.022360679774997897</speed>
  <fix>3d</fix>
</trkpt>
<trkpt lat="33.810313" lon="-118.393867">
  <ele>-0.12</ele>
  <time>2026-09-01T01:16:14Z</time>
  <course>0.0</course>
  <speed>0.0</speed>
  <fix>3d</fix>
</trkpt>
<trkpt lat="33.810313" lon="-118.393867">
  <ele>-0.116</ele>
  <time>2026-09-01T01:16:14Z</time>
  <course>187.96</course>
  <speed>0.022360679774997897</speed>
  <fix>3d</fix>
</trkpt>
<trkpt lat="33.810313" lon="-118.393867">
  <ele>-0.12</ele>
  <time>2026-09-01T01:16:14Z</time>
  <course>0.0</course>
  <speed>0.0</speed>
  <fix>3d</fix>
</trkpt>
<trkpt lat="33.810313" lon="-118.393867">
  <ele>-0.115</ele>
  <time>2026-09-01T01:16:14Z</time>
  <course>187.95</course>
  <speed>0.022360679774997897</speed>
  <fix>3d</fix>
</trkpt>
<trkpt lat="33.810313" lon="-118.393867">
  <ele>-0.12</ele>
  <time>2026-09-01T01:16:14Z</time>
  <course>0.0</course>
  <speed>0.0</speed>
  <fix>3d</fix>
</trkpt>
<trkpt lat="33.810313" lon="-118.393867">
  <ele>-0.116</ele>
  <time>2026-09-01T01:16:14Z</time>
  <course>187.94</course>
  <speed>0.022360679774997897</speed>
  <fix>3d</fix>
</trkpt>
<trkpt lat="33.810313" lon="-118.393867">
  <ele>-0.12</ele>
  <time>2026-09-01T01:16:14Z</time>
  <course>0.0</course>
  <speed>0.0</speed>
  <fix>3d</fix>
</trkpt>
<trkpt lat="33.810313" lon="-118.393867">
  <ele>-0.117</ele>
  <time>2026-09-01T01:16:14Z</time>
  <course>187.94</course>
  <speed>0.022360679774997897</speed>
  <fix>3d</fix>
</trkpt>
<trkpt lat="33.810313" lon="-118.393867">
  <ele>-0.12</ele>
  <time>2026-09-01T01:16:14Z</time>
  <course>0.0</course>
  <speed>0.0</speed>
  <fix>3d</fix>
</trkpt>
<trkpt lat="33.810313" lon="-118.393867">
  <ele>-0.119</ele>
  <time>2026-09-01T01:16:14Z</time>
  <course>187.93</course>
  <speed>0.022360679774997897</speed>
  <fix>3d</fix>
</trkpt>
<trkpt lat="33.810313" lon="-118.393867">
  <ele>-0.12</ele>
  <time>2026-09-01T01:16:14Z</time>
  <course>0.0</course>
  <speed>0.0</speed>
  <fix>3d</fix>
</trkpt>
<trkpt lat="33.810313" lon="-118.393867">
  <ele>-0.121</ele>
  <time>2026-09-01T01:16:14Z</time>
  <course>187.92</course>
  <speed>0.022360679774997897</speed>
  <fix>3d</fix>
</trkpt>
<trkpt lat="33.810313" lon="-118.393867">
  <ele>-0.12</ele>
  <time>2026-09-01T01:16:14Z</time>
  <course>0.0</course>
  <speed>0.0</speed>
  <fix>3d</fix>
</trkpt>
<trkpt lat="33.810313" lon="-118.393867">
  <ele>-0.122</ele>
  <time>2026-09-01T01:16:14Z</time>
  <course>187.91</course>
  <speed>0.022360679774997897</speed>
  <fix>3d</fix>
</trkpt>
<trkpt lat="33.810313" lon="-118.393867">
  <ele>-0.12</ele>
  <time>2026-09-01T01:16:14Z</time>
  <course>0.0</course>
  <speed>0.0</speed>
  <fix>3d</fix>
</trkpt>
<trkpt lat="33.810313" lon="-118.393867">
  <ele>-0.122</ele>
  <time>2026-09-01T01:16:14Z</time>
  <course>187.91</course>
  <speed>0.022360679774997897</speed>
  <fix>3d</fix>
</trkpt>
<trkpt lat="33.810313" lon="-118.393867">
  <ele>-0.12</ele>
  <time>2026-09-01T01:16:14Z</time>
  <course>0.0</course>
  <speed>0.0</speed>
  <fix>3d</fix>
</trkpt>
<trkpt lat="33.810313" lon="-118.393867">
  <ele>-0.12</ele>
  <time>2026-09-01T01:16:15Z</time>
  <course>187.9</course>
  <speed>0.022360679774997897</speed>
  <fix>3d</fix>
</trkpt>
<trkpt lat="33.810313" lon="-118.393867">
  <ele>-0.12</ele>
  <time>2026-09-01T01:16:15Z</time>
  <course>0.0</course>
  <speed>0.0</speed>
  <fix>3d</fix>
</trkpt>
<trkpt lat="33.810313" lon="-118.393867">
  <ele>-0.118</ele>
  <time>2026-09-01T01:16:15Z</time>
  <course>187.89</course>
  <speed>0.022360679774997897</speed>
  <fix>3d</fix>
</trkpt>
<trkpt lat="33.810313" lon="-118.393867">
  <ele>-0.12</ele>
  <time>2026-09-01T01:16:15Z</time>
  <course>0.0</course>
  <speed>0.0</speed>
  <fix>3d</fix>
</trkpt>
<trkpt lat="33.810313" lon="-118.393867">
  <ele>-0.116</ele>
  <time>2026-09-01T01:16:15Z</time>
  <course>187.88</course>
  <speed>0.022360679774997897</speed>
  <fix>3d</fix>
</trkpt>
<trkpt lat="33.810313" lon="-118.393867">
  <ele>-0.12</ele>
  <time>2026-09-01T01:16:15Z</time>
  <course>0.0</course>
  <speed>0.0</speed>
  <fix>3d</fix>
</trkpt>
<trkpt lat="33.810313" lon="-118.393867">
  <ele>-0.115</ele>
  <time>2026-09-01T01:16:15Z</time>
  <course>187.87</course>
  <speed>0.022360679774997897</speed>
  <fix>3d</fix>
</trkpt>
<trkpt lat="33.810313" lon="-118.393867">
  <ele>-0.12</ele>
  <time>2026-09-01T01:16:15Z</time>
  <course>0.0</course>
  <speed>0.0</speed>
  <fix>3d</fix>
</trkpt>
<trkpt lat="33.810313" lon="-118.393867">
  <ele>-0.113</ele>
  <time>2026-09-01T01:16:15Z</time>
  <course>187.87</course>
  <speed>0.022360679774997897</speed>
  <fix>3d</fix>
</trkpt>
<trkpt lat="33.810313" lon="-118.393867">
  <ele>-0.12</ele>
  <time>2026-09-01T01:16:15Z</time>
  <course>0.0</course>
  <speed>0.0</speed>
  <fix>3d</fix>
</trkpt>
<trkpt lat="33.810313" lon="-118.393867">
  <ele>-0.111</ele>
  <time>2026-09-01T01:16:15Z</time>
  <course>187.86</course>
  <speed>0.022360679774997897</speed>
  <fix>3d</fix>
</trkpt>
<trkpt lat="33.810313" lon="-118.393867">
  <ele>-0.12</ele>
  <time>2026-09-01T01:16:15Z</time>
  <course>0.0</course>
  <speed>0.0</speed>
  <fix>3d</fix>
</trkpt>
<trkpt lat="33.810313" lon="-118.393867">
  <ele>-0.11</ele>
  <time>2026-09-01T01:16:15Z</time>
  <course>187.85</course>
  <speed>0.022360679774997897</speed>
  <fix>3d</fix>
</trkpt>
<trkpt lat="33.810313" lon="-118.393867">
  <ele>-0.12</ele>
  <time>2026-09-01T01:16:15Z</time>
  <course>0.0</course>
  <speed>0.0</speed>
  <fix>3d</fix>
</trkpt>
<trkpt lat="33.810313" lon="-118.393867">
  <ele>-0.109</ele>
  <time>2026-09-01T01:16:15Z</time>
  <course>187.84</course>
  <speed>0.022360679774997897</speed>
  <fix>3d</fix>
</trkpt>
<trkpt lat="33.810313" lon="-118.393867">
  <ele>-0.12</ele>
  <time>2026-09-01T01:16:15Z</time>
  <course>0.0</course>
  <speed>0.0</speed>
  <fix>3d</fix>
</trkpt>
<trkpt lat="33.810313" lon="-118.393867">
  <ele>-0.109</ele>
  <time>2026-09-01T01:16:15Z</time>
  <course>187.84</course>
  <speed>0.022360679774997897</speed>
  <fix>3d</fix>
</trkpt>
<trkpt lat="33.810313" lon="-118.393867">
  <ele>-0.12</ele>
  <time>2026-09-01T01:16:15Z</time>
  <course>0.0</course>
  <speed>0.0</speed>
  <fix>3d</fix>
</trkpt>
<trkpt lat="33.810313" lon="-118.393867">
  <ele>-0.109</ele>
  <time>2026-09-01T01:16:15Z</time>
  <course>187.83</course>
  <speed>0.022360679774997897</speed>
  <fix>3d</fix>
</trkpt>
<trkpt lat="33.810313" lon="-118.393867">
  <ele>-0.12</ele>
  <time>2026-09-01T01:16:15Z</time>
  <course>0.0</course>
  <speed>0.0</speed>
  <fix>3d</fix>
</trkpt>
<trkpt lat="33.810313" lon="-118.393867">
  <ele>-0.109</ele>
  <time>2026-09-01T01:16:16Z</time>
  <course>187.82</course>
  <speed>0.022360679774997897</speed>
  <fix>3d</fix>
</trkpt>
<trkpt lat="33.810313" lon="-118.393867">
  <ele>-0.12</ele>
  <time>2026-09-01T01:16:16Z</time>
  <course>0.0</course>
  <speed>0.0</speed>
  <fix>3d</fix>
</trkpt>
<trkpt lat="33.810313" lon="-118.393867">
  <ele>-0.108</ele>
  <time>2026-09-01T01:16:16Z</time>
  <course>187.81</course>
  <speed>0.022360679774997897</speed>
  <fix>3d</fix>
</trkpt>
<trkpt lat="33.810313" lon="-118.393867">
  <ele>-0.12</ele>
  <time>2026-09-01T01:16:16Z</time>
  <course>0.0</course>
  <speed>0.0</speed>
  <fix>3d</fix>
</trkpt>
<trkpt lat="33.810313" lon="-118.393867">
  <ele>-0.106</ele>
  <time>2026-09-01T01:16:16Z</time>
  <course>187.8</course>
  <speed>0.022360679774997897</speed>
  <fix>3d</fix>
</trkpt>
<trkpt lat="33.810313" lon="-118.393867">
  <ele>-0.12</ele>
  <time>2026-09-01T01:16:16Z</time>
  <course>0.0</course>
  <speed>0.0</speed>
  <fix>3d</fix>
</trkpt>
<trkpt lat="33.810313" lon="-118.393867">
  <ele>-0.104</ele>
  <time>2026-09-01T01:16:16Z</time>
  <course>187.8</course>
  <speed>0.022360679774997897</speed>
  <fix>3d</fix>
</trkpt>
<trkpt lat="33.810313" lon="-118.393867">
  <ele>-0.12</ele>
  <time>2026-09-01T01:16:16Z</time>
  <course>0.0</course>
  <speed>0.0</speed>
  <fix>3d</fix>
</trkpt>
<trkpt lat="33.810313" lon="-118.393867">
  <ele>-0.101</ele>
  <time>2026-09-01T01:16:16Z</time>
  <course>187.79</course>
  <speed>0.022360679774997897</speed>
  <fix>3d</fix>
</trkpt>
<trkpt lat="33.810313" lon="-118.393867">
  <ele>-0.12</ele>
  <time>2026-09-01T01:16:16Z</time>
  <course>0.0</course>
  <speed>0.0</speed>
  <fix>3d</fix>
</trkpt>
<trkpt lat="33.810313" lon="-118.393867">
  <ele>-0.1</ele>
  <time>2026-09-01T01:16:16Z</time>
  <course>187.78</course>
  <speed>0.022360679774997897</speed>
  <fix>3d</fix>
</trkpt>
<trkpt lat="33.810313" lon="-118.393867">
  <ele>-0.12</ele>
  <time>2026-09-01T01:16:16Z</time>
  <course>0.0</course>
  <speed>0.0</speed>
  <fix>3d</fix>
</trkpt>
<trkpt lat="33.810313" lon="-118.393867">
  <ele>-0.099</ele>
  <time>2026-09-01T01:16:16Z</time>
  <course>187.77</course>
  <speed>0.0282842712474619</speed>
  <fix>3d</fix>
</trkpt>
<trkpt lat="33.810313" lon="-118.393867">
  <ele>-0.12</ele>
  <time>2026-09-01T01:16:16Z</time>
  <course>0.0</course>
  <speed>0.0</speed>
  <fix>3d</fix>
</trkpt>
<trkpt lat="33.810313" lon="-118.393867">
  <ele>-0.099</ele>
  <time>2026-09-01T01:16:16Z</time>
  <course>187.77</course>
  <speed>0.0282842712474619</speed>
  <fix>3d</fix>
</trkpt>
<trkpt lat="33.810313" lon="-118.393867">
  <ele>-0.12</ele>
  <time>2026-09-01T01:16:16Z</time>
  <course>0.0</course>
  <speed>0.0</speed>
  <fix>3d</fix>
</trkpt>
<trkpt lat="33.810313" lon="-118.393867">
  <ele>-0.1</ele>
  <time>2026-09-01T01:16:16Z</time>
  <course>187.76</course>
  <speed>0.0282842712474619</speed>
  <fix>3d</fix>
</trkpt>
<trkpt lat="33.810313" lon="-118.393867">
  <ele>-0.12</ele>
  <time>2026-09-01T01:16:16Z</time>
  <course>0.0</course>
  <speed>0.0</speed>
  <fix>3d</fix>
</trkpt>
<trkpt lat="33.810313" lon="-118.393867">
  <ele>-0.101</ele>
  <time>2026-09-01T01:16:16Z</time>
  <course>187.75</course>
  <speed>0.0282842712474619</speed>
  <fix>3d</fix>
</trkpt>
<trkpt lat="33.810313" lon="-118.393867">
  <ele>-0.12</ele>
  <time>2026-09-01T01:16:16Z</time>
  <course>0.0</course>
  <speed>0.0</speed>
  <fix>3d</fix>
</trkpt>
<trkpt lat="33.810313" lon="-118.393867">
  <ele>-0.103</ele>
  <time>2026-09-01T01:16:16Z</time>
  <course>187.74</course>
  <speed>0.0282842712474619</speed>
  <fix>3d</fix>
</trkpt>
<trkpt lat="33.810313" lon="-118.393867">
  <ele>-0.12</ele>
  <time>2026-09-01T01:16:16Z</time>
  <course>0.0</course>
  <speed>0.0</speed>
  <fix>3d</fix>
</trkpt>
<trkpt lat="33.810313" lon="-118.393867">
  <ele>-0.104</ele>
  <time>2026-09-01T01:16:17Z</time>
  <course>187.74</course>
  <speed>0.0282842712474619</speed>
  <fix>3d</fix>
</trkpt>
<trkpt lat="33.810313" lon="-118.393867">
  <ele>-0.12</ele>
  <time>2026-09-01T01:16:17Z</time>
  <course>0.0</course>
  <speed>0.0</speed>
  <fix>3d</fix>
</trkpt>
<trkpt lat="33.810313" lon="-118.393867">
  <ele>-0.104</ele>
  <time>2026-09-01T01:16:17Z</time>
  <course>187.73</course>
  <speed>0.0282842712474619</speed>
  <fix>3d</fix>
</trkpt>
<trkpt lat="33.810313" lon="-118.393867">
  <ele>-0.12</ele>
  <time>2026-09-01T01:16:17Z</time>
  <course>0.0</course>
  <speed>0.0</speed>
  <fix>3d</fix>
</trkpt>
<trkpt lat="33.810313" lon="-118.393867">
  <ele>-0.103</ele>
  <time>2026-09-01T01:16:17Z</time>
  <course>187.72</course>
  <speed>0.0282842712474619</speed>
  <fix>3d</fix>
</trkpt>
<trkpt lat="33.810313" lon="-118.393867">
  <ele>-0.12</ele>
  <time>2026-09-01T01:16:17Z</time>
  <course>0.0</course>
  <speed>0.0</speed>
  <fix>3d</fix>
</trkpt>
<trkpt lat="33.810313" lon="-118.393867">
  <ele>-0.102</ele>
  <time>2026-09-01T01:16:17Z</time>
  <course>187.71</course>
  <speed>0.0282842712474619</speed>
  <fix>3d</fix>
</trkpt>
<trkpt lat="33.810313" lon="-118.393867">
  <ele>-0.12</ele>
  <time>2026-09-01T01:16:17Z</time>
  <course>0.0</course>
  <speed>0.0</speed>
  <fix>3d</fix>
</trkpt>
<trkpt lat="33.810313" lon="-118.393867">
  <ele>-0.102</ele>
  <time>2026-09-01T01:16:17Z</time>
  <course>187.71</course>
  <speed>0.0282842712474619</speed>
  <fix>3d</fix>
</trkpt>
<trkpt lat="33.810313" lon="-118.393867">
  <ele>-0.12</ele>
  <time>2026-09-01T01:16:17Z</time>
  <course>0.0</course>
  <speed>0.0</speed>
  <fix>3d</fix>
</trkpt>
<trkpt lat="33.810313" lon="-118.393867">
  <ele>-0.102</ele>
  <time>2026-09-01T01:16:17Z</time>
  <course>187.7</course>
  <speed>0.0282842712474619</speed>
  <fix>3d</fix>
</trkpt>
<trkpt lat="33.810313" lon="-118.393867">
  <ele>-0.12</ele>
  <time>2026-09-01T01:16:17Z</time>
  <course>0.0</course>
  <speed>0.0</speed>
  <fix>3d</fix>
</trkpt>
<trkpt lat="33.810313" lon="-118.393867">
  <ele>-0.102</ele>
  <time>2026-09-01T01:16:17Z</time>
  <course>187.69</course>
  <speed>0.0282842712474619</speed>
  <fix>3d</fix>
</trkpt>
<trkpt lat="33.810313" lon="-118.393867">
  <ele>-0.12</ele>
  <time>2026-09-01T01:16:17Z</time>
  <course>0.0</course>
  <speed>0.0</speed>
  <fix>3d</fix>
</trkpt>
<trkpt lat="33.810313" lon="-118.393867">
  <ele>-0.104</ele>
  <time>2026-09-01T01:16:17Z</time>
  <course>187.69</course>
  <speed>0.0282842712474619</speed>
  <fix>3d</fix>
</trkpt>
<trkpt lat="33.810313" lon="-118.393867">
  <ele>-0.12</ele>
  <time>2026-09-01T01:16:17Z</time>
  <course>0.0</course>
  <speed>0.0</speed>
  <fix>3d</fix>
</trkpt>
<trkpt lat="33.810313" lon="-118.393867">
  <ele>-0.107</ele>
  <time>2026-09-01T01:16:17Z</time>
  <course>187.68</course>
  <speed>0.0282842712474619</speed>
  <fix>3d</fix>
</trkpt>
<trkpt lat="33.810313" lon="-118.393867">
  <ele>-0.12</ele>
  <time>2026-09-01T01:16:17Z</time>
  <course>0.0</course>
  <speed>0.0</speed>
  <fix>3d</fix>
</trkpt>
<trkpt lat="33.810313" lon="-118.393867">
  <ele>-0.11</ele>
  <time>2026-09-01T01:16:17Z</time>
  <course>187.67</course>
  <speed>0.0282842712474619</speed>
  <fix>3d</fix>
</trkpt>
<trkpt lat="33.810313" lon="-118.393867">
  <ele>-0.12</ele>
  <time>2026-09-01T01:16:17Z</time>
  <course>0.0</course>
  <speed>0.0</speed>
  <fix>3d</fix>
</trkpt>
<trkpt lat="33.810313" lon="-118.393867">
  <ele>-0.112</ele>
  <time>2026-09-01T01:16:18Z</time>
  <course>187.66</course>
  <speed>0.0282842712474619</speed>
  <fix>3d</fix>
</trkpt>
<trkpt lat="33.810313" lon="-118.393867">
  <ele>-0.12</ele>
  <time>2026-09-01T01:16:18Z</time>
  <course>0.0</course>
  <speed>0.0</speed>
  <fix>3d</fix>
</trkpt>
<trkpt lat="33.810313" lon="-118.393867">
  <ele>-0.112</ele>
  <time>2026-09-01T01:16:18Z</time>
  <course>187.66</course>
  <speed>0.0282842712474619</speed>
  <fix>3d</fix>
</trkpt>
<trkpt lat="33.810313" lon="-118.393867">
  <ele>-0.12</ele>
  <time>2026-09-01T01:16:18Z</time>
  <course>0.0</course>
  <speed>0.0</speed>
  <fix>3d</fix>
</trkpt>
<trkpt lat="33.810313" lon="-118.393867">
  <ele>-0.111</ele>
  <time>2026-09-01T01:16:18Z</time>
  <course>187.65</course>
  <speed>0.0282842712474619</speed>
  <fix>3d</fix>
</trkpt>
<trkpt lat="33.810313" lon="-118.393867">
  <ele>-0.12</ele>
  <time>2026-09-01T01:16:18Z</time>
  <course>0.0</course>
  <speed>0.0</speed>
  <fix>3d</fix>
</trkpt>
<trkpt lat="33.810313" lon="-118.393867">
  <ele>-0.11</ele>
  <time>2026-09-01T01:16:18Z</time>
  <course>187.64</course>
  <speed>0.0282842712474619</speed>
  <fix>3d</fix>
</trkpt>
<trkpt lat="33.810313" lon="-118.393867">
  <ele>-0.12</ele>
  <time>2026-09-01T01:16:18Z</time>
  <course>0.0</course>
  <speed>0.0</speed>
  <fix>3d</fix>
</trkpt>
<trkpt lat="33.810313" lon="-118.393867">
  <ele>-0.11</ele>
  <time>2026-09-01T01:16:18Z</time>
  <course>187.64</course>
  <speed>0.0282842712474619</speed>
  <fix>3d</fix>
</trkpt>
<trkpt lat="33.810313" lon="-118.393867">
  <ele>-0.12</ele>
  <time>2026-09-01T01:16:18Z</time>
  <course>0.0</course>
  <speed>0.0</speed>
  <fix>3d</fix>
</trkpt>
<trkpt lat="33.810313" lon="-118.393867">
  <ele>-0.109</ele>
  <time>2026-09-01T01:16:18Z</time>
  <course>187.63</course>
  <speed>0.0282842712474619</speed>
  <fix>3d</fix>
</trkpt>
<trkpt lat="33.810313" lon="-118.393867">
  <ele>-0.12</ele>
  <time>2026-09-01T01:16:18Z</time>
  <course>0.0</course>
  <speed>0.0</speed>
  <fix>3d</fix>
</trkpt>
<trkpt lat="33.810313" lon="-118.393867">
  <ele>-0.109</ele>
  <time>2026-09-01T01:16:18Z</time>
  <course>187.63</course>
  <speed>0.0282842712474619</speed>
  <fix>3d</fix>
</trkpt>
<trkpt lat="33.810313" lon="-118.393867">
  <ele>-0.12</ele>
  <time>2026-09-01T01:16:18Z</time>
  <course>0.0</course>
  <speed>0.0</speed>
  <fix>3d</fix>
</trkpt>
<trkpt lat="33.810313" lon="-118.393867">
  <ele>-0.11</ele>
  <time>2026-09-01T01:16:18Z</time>
  <course>187.62</course>
  <speed>0.0282842712474619</speed>
  <fix>3d</fix>
</trkpt>
<trkpt lat="33.810313" lon="-118.393867">
  <ele>-0.12</ele>
  <time>2026-09-01T01:16:18Z</time>
  <course>0.0</course>
  <speed>0.0</speed>
  <fix>3d</fix>
</trkpt>
<trkpt lat="33.810313" lon="-118.393867">
  <ele>-0.11</ele>
  <time>2026-09-01T01:16:18Z</time>
  <course>187.61</course>
  <speed>0.0282842712474619</speed>
  <fix>3d</fix>
</trkpt>
<trkpt lat="33.810313" lon="-118.393867">
  <ele>-0.12</ele>
  <time>2026-09-01T01:16:18Z</time>
  <course>0.0</course>
  <speed>0.0</speed>
  <fix>3d</fix>
</trkpt>
<trkpt lat="33.810313" lon="-118.393867">
  <ele>-0.11</ele>
  <time>2026-09-01T01:16:18Z</time>
  <course>187.61</course>
  <speed>0.03605551275463989</speed>
  <fix>3d</fix>
</trkpt>
<trkpt lat="33.810313" lon="-118.393867">
  <ele>-0.12</ele>
  <time>2026-09-01T01:16:18Z</time>
  <course>0.0</course>
  <speed>0.0</speed>
  <fix>3d</fix>
</trkpt>
<trkpt lat="33.810313" lon="-118.393867">
  <ele>-0.111</ele>
  <time>2026-09-01T01:16:19Z</time>
  <course>187.6</course>
  <speed>0.03605551275463989</speed>
  <fix>3d</fix>
</trkpt>
<trkpt lat="33.810313" lon="-118.393867">
  <ele>-0.12</ele>
  <time>2026-09-01T01:16:19Z</time>
  <course>0.0</course>
  <speed>0.0</speed>
  <fix>3d</fix>
</trkpt>
<trkpt lat="33.810313" lon="-118.393867">
  <ele>-0.112</ele>
  <time>2026-09-01T01:16:19Z</time>
  <course>187.59</course>
  <speed>0.03605551275463989</speed>
  <fix>3d</fix>
</trkpt>
<trkpt lat="33.810313" lon="-118.393867">
  <ele>-0.12</ele>
  <time>2026-09-01T01:16:19Z</time>
  <course>0.0</course>
  <speed>0.0</speed>
  <fix>3d</fix>
</trkpt>
<trkpt lat="33.810313" lon="-118.393867">
  <ele>-0.111</ele>
  <time>2026-09-01T01:16:19Z</time>
  <course>187.58</course>
  <speed>0.03605551275463989</speed>
  <fix>3d</fix>
</trkpt>
<trkpt lat="33.810313" lon="-118.393867">
  <ele>-0.12</ele>
  <time>2026-09-01T01:16:19Z</time>
  <course>0.0</course>
  <speed>0.0</speed>
  <fix>3d</fix>
</trkpt>
<trkpt lat="33.810313" lon="-118.393867">
  <ele>-0.11</ele>
  <time>2026-09-01T01:16:19Z</time>
  <course>187.58</course>
  <speed>0.03605551275463989</speed>
  <fix>3d</fix>
</trkpt>
<trkpt lat="33.810313" lon="-118.393867">
  <ele>-0.12</ele>
  <time>2026-09-01T01:16:19Z</time>
  <course>0.0</course>
  <speed>0.0</speed>
  <fix>3d</fix>
</trkpt>
<trkpt lat="33.810313" lon="-118.393867">
  <ele>-0.109</ele>
  <time>2026-09-01T01:16:19Z</time>
  <course>187.57</course>
  <speed>0.03605551275463989</speed>
  <fix>3d</fix>
</trkpt>
<trkpt lat="33.810313" lon="-118.393867">
  <ele>-0.12</ele>
  <time>2026-09-01T01:16:19Z</time>
  <course>0.0</course>
  <speed>0.0</speed>
  <fix>3d</fix>
</trkpt>
<trkpt lat="33.810313" lon="-118.393867">
  <ele>-0.109</ele>
  <time>2026-09-01T01:16:19Z</time>
  <course>187.56</course>
  <speed>0.03605551275463989</speed>
  <fix>3d</fix>
</trkpt>
<trkpt lat="33.810313" lon="-118.393867">
  <ele>-0.12</ele>
  <time>2026-09-01T01:16:19Z</time>
  <course>0.0</course>
  <speed>0.0</speed>
  <fix>3d</fix>
</trkpt>
<trkpt lat="33.810313" lon="-118.393867">
  <ele>-0.109</ele>
  <time>2026-09-01T01:16:19Z</time>
  <course>187.56</course>
  <speed>0.03605551275463989</speed>
  <fix>3d</fix>
</trkpt>
<trkpt lat="33.810313" lon="-118.393867">
  <ele>-0.12</ele>
  <time>2026-09-01T01:16:19Z</time>
  <course>0.0</course>
  <speed>0.0</speed>
  <fix>3d</fix>
</trkpt>
<trkpt lat="33.810313" lon="-118.393867">
  <ele>-0.108</ele>
  <time>2026-09-01T01:16:19Z</time>
  <course>187.55</course>
  <speed>0.03605551275463989</speed>
  <fix>3d</fix>
</trkpt>
<trkpt lat="33.810313" lon="-118.393867">
  <ele>-0.12</ele>
  <time>2026-09-01T01:16:19Z</time>
  <course>0.0</course>
  <speed>0.0</speed>
  <fix>3d</fix>
</trkpt>
<trkpt lat="33.810313" lon="-118.393867">
  <ele>-0.109</ele>
  <time>2026-09-01T01:16:19Z</time>
  <course>187.54</course>
  <speed>0.03605551275463989</speed>
  <fix>3d</fix>
</trkpt>
<trkpt lat="33.810313" lon="-118.393867">
  <ele>-0.12</ele>
  <time>2026-09-01T01:16:19Z</time>
  <course>0.0</course>
  <speed>0.0</speed>
  <fix>3d</fix>
</trkpt>
<trkpt lat="33.810313" lon="-118.393867">
  <ele>-0.11</ele>
  <time>2026-09-01T01:16:19Z</time>
  <course>187.54</course>
  <speed>0.03605551275463989</speed>
  <fix>3d</fix>
</trkpt>
<trkpt lat="33.810313" lon="-118.393867">
  <ele>-0.12</ele>
  <time>2026-09-01T01:16:19Z</time>
  <course>0.0</course>
  <speed>0.0</speed>
  <fix>3d</fix>
</trkpt>
<trkpt lat="33.810313" lon="-118.393867">
  <ele>-0.112</ele>
  <time>2026-09-01T01:16:20Z</time>
  <course>187.53</course>
  <speed>0.03605551275463989</speed>
  <fix>3d</fix>
</trkpt>
<trkpt lat="33.810313" lon="-118.393867">
  <ele>-0.12</ele>
  <time>2026-09-01T01:16:20Z</time>
  <course>0.0</course>
  <speed>0.0</speed>
  <fix>3d</fix>
</trkpt>
<trkpt lat="33.810313" lon="-118.393867">
  <ele>-0.114</ele>
  <time>2026-09-01T01:16:20Z</time>
  <course>187.52</course>
  <speed>0.03605551275463989</speed>
  <fix>3d</fix>
</trkpt>
<trkpt lat="33.810313" lon="-118.393867">
  <ele>-0.12</ele>
  <time>2026-09-01T01:16:20Z</time>
  <course>0.0</course>
  <speed>0.0</speed>
  <fix>3d</fix>
</trkpt>
<trkpt lat="33.810313" lon="-118.393867">
  <ele>-0.114</ele>
  <time>2026-09-01T01:16:20Z</time>
  <course>187.52</course>
  <speed>0.03605551275463989</speed>
  <fix>3d</fix>
</trkpt>
<trkpt lat="33.810313" lon="-118.393867">
  <ele>-0.12</ele>
  <time>2026-09-01T01:16:20Z</time>
  <course>0.0</course>
  <speed>0.0</speed>
  <fix>3d</fix>
</trkpt>
<trkpt lat="33.810313" lon="-118.393867">
  <ele>-0.114</ele>
  <time>2026-09-01T01:16:20Z</time>
  <course>187.51</course>
  <speed>0.03605551275463989</speed>
  <fix>3d</fix>
</trkpt>
<trkpt lat="33.810313" lon="-118.393867">
  <ele>-0.12</ele>
  <time>2026-09-01T01:16:20Z</time>
  <course>0.0</course>
  <speed>0.0</speed>
  <fix>3d</fix>
</trkpt>
<trkpt lat="33.810313" lon="-118.393867">
  <ele>-0.113</ele>
  <time>2026-09-01T01:16:20Z</time>
  <course>187.51</course>
  <speed>0.03605551275463989</speed>
  <fix>3d</fix>
</trkpt>
<trkpt lat="33.810313" lon="-118.393867">
  <ele>-0.12</ele>
  <time>2026-09-01T01:16:20Z</time>
  <course>0.0</course>
  <speed>0.0</speed>
  <fix>3d</fix>
</trkpt>
<trkpt lat="33.810313" lon="-118.393867">
  <ele>-0.112</ele>
  <time>2026-09-01T01:16:20Z</time>
  <course>187.5</course>
  <speed>0.03605551275463989</speed>
  <fix>3d</fix>
</trkpt>
<trkpt lat="33.810313" lon="-118.393867">
  <ele>-0.12</ele>
  <time>2026-09-01T01:16:20Z</time>
  <course>0.0</course>
  <speed>0.0</speed>
  <fix>3d</fix>
</trkpt>
<trkpt lat="33.810313" lon="-118.393867">
  <ele>-0.111</ele>
  <time>2026-09-01T01:16:20Z</time>
  <course>187.49</course>
  <speed>0.03605551275463989</speed>
  <fix>3d</fix>
</trkpt>
<trkpt lat="33.810313" lon="-118.393867">
  <ele>-0.12</ele>
  <time>2026-09-01T01:16:20Z</time>
  <course>0.0</course>
  <speed>0.0</speed>
  <fix>3d</fix>
</trkpt>
<trkpt lat="33.810313" lon="-118.393867">
  <ele>-0.11</ele>
  <time>2026-09-01T01:16:20Z</time>
  <course>187.49</course>
  <speed>0.03605551275463989</speed>
  <fix>3d</fix>
</trkpt>
<trkpt lat="33.810313" lon="-118.393867">
  <ele>-0.12</ele>
  <time>2026-09-01T01:16:20Z</time>
  <course>0.0</course>
  <speed>0.0</speed>
  <fix>3d</fix>
</trkpt>
<trkpt lat="33.810313" lon="-118.393867">
  <ele>-0.109</ele>
  <time>2026-09-01T01:16:20Z</time>
  <course>187.48</course>
  <speed>0.03605551275463989</speed>
  <fix>3d</fix>
</trkpt>
<trkpt lat="33.810313" lon="-118.393867">
  <ele>-0.12</ele>
  <time>2026-09-01T01:16:20Z</time>
  <course>0.0</course>
  <speed>0.0</speed>
  <fix>3d</fix>
</trkpt>
<trkpt lat="33.810313" lon="-118.393867">
  <ele>-0.108</ele>
  <time>2026-09-01T01:16:20Z</time>
  <course>187.47</course>
  <speed>0.03605551275463989</speed>
  <fix>3d</fix>
</trkpt>
<trkpt lat="33.810313" lon="-118.393867">
  <ele>-0.12</ele>
  <time>2026-09-01T01:16:20Z</time>
  <course>0.0</course>
  <speed>0.0</speed>
  <fix>3d</fix>
</trkpt>
<trkpt lat="33.810313" lon="-118.393867">
  <ele>-0.108</ele>
  <time>2026-09-01T01:16:21Z</time>
  <course>187.47</course>
  <speed>0.03605551275463989</speed>
  <fix>3d</fix>
</trkpt>
<trkpt lat="33.810313" lon="-118.393867">
  <ele>-0.12</ele>
  <time>2026-09-01T01:16:21Z</time>
  <course>0.0</course>
  <speed>0.0</speed>
  <fix>3d</fix>
</trkpt>
<trkpt lat="33.810313" lon="-118.393867">
  <ele>-0.109</ele>
  <time>2026-09-01T01:16:21Z</time>
  <course>187.46</course>
  <speed>0.03605551275463989</speed>
  <fix>3d</fix>
</trkpt>
<trkpt lat="33.810313" lon="-118.393867">
  <ele>-0.12</ele>
  <time>2026-09-01T01:16:21Z</time>
  <course>0.0</course>
  <speed>0.0</speed>
  <fix>3d</fix>
</trkpt>
<trkpt lat="33.810313" lon="-118.393867">
  <ele>-0.109</ele>
  <time>2026-09-01T01:16:21Z</time>
  <course>187.45</course>
  <speed>0.03605551275463989</speed>
  <fix>3d</fix>
</trkpt>
<trkpt lat="33.810313" lon="-118.393867">
  <ele>-0.12</ele>
  <time>2026-09-01T01:16:21Z</time>
  <course>0.0</course>
  <speed>0.0</speed>
  <fix>3d</fix>
</trkpt>
<trkpt lat="33.810313" lon="-118.393867">
  <ele>-0.109</ele>
  <time>2026-09-01T01:16:21Z</time>
  <course>187.45</course>
  <speed>0.03605551275463989</speed>
  <fix>3d</fix>
</trkpt>
<trkpt lat="33.810313" lon="-118.393867">
  <ele>-0.12</ele>
  <time>2026-09-01T01:16:21Z</time>
  <course>0.0</course>
  <speed>0.0</speed>
  <fix>3d</fix>
</trkpt>
<trkpt lat="33.810313" lon="-118.393867">
  <ele>-0.11</ele>
  <time>2026-09-01T01:16:21Z</time>
  <course>187.44</course>
  <speed>0.03605551275463989</speed>
  <fix>3d</fix>
</trkpt>
<trkpt lat="33.810313" lon="-118.393867">
  <ele>-0.12</ele>
  <time>2026-09-01T01:16:21Z</time>
  <course>0.0</course>
  <speed>0.0</speed>
  <fix>3d</fix>
</trkpt>
<trkpt lat="33.810313" lon="-118.393867">
  <ele>-0.11</ele>
  <time>2026-09-01T01:16:21Z</time>
  <course>187.43</course>
  <speed>0.03605551275463989</speed>
  <fix>3d</fix>
</trkpt>
<trkpt lat="33.810313" lon="-118.393867">
  <ele>-0.12</ele>
  <time>2026-09-01T01:16:21Z</time>
  <course>0.0</course>
  <speed>0.0</speed>
  <fix>3d</fix>
</trkpt>
<trkpt lat="33.810313" lon="-118.393867">
  <ele>-0.109</ele>
  <time>2026-09-01T01:16:21Z</time>
  <course>187.43</course>
  <speed>0.03605551275463989</speed>
  <fix>3d</fix>
</trkpt>
<trkpt lat="33.810313" lon="-118.393867">
  <ele>-0.12</ele>
  <time>2026-09-01T01:16:21Z</time>
  <course>0.0</course>
  <speed>0.0</speed>
  <fix>3d</fix>
</trkpt>
<trkpt lat="33.810313" lon="-118.393867">
  <ele>-0.107</ele>
  <time>2026-09-01T01:16:21Z</time>
  <course>187.42</course>
  <speed>0.03605551275463989</speed>
  <fix>3d</fix>
</trkpt>
<trkpt lat="33.810313" lon="-118.393867">
  <ele>-0.12</ele>
  <time>2026-09-01T01:16:21Z</time>
  <course>0.0</course>
  <speed>0.0</speed>
  <fix>3d</fix>
</trkpt>
<trkpt lat="33.810313" lon="-118.393867">
  <ele>-0.105</ele>
  <time>2026-09-01T01:16:21Z</time>
  <course>187.42</course>
  <speed>0.03605551275463989</speed>
  <fix>3d</fix>
</trkpt>
<trkpt lat="33.810313" lon="-118.393867">
  <ele>-0.12</ele>
  <time>2026-09-01T01:16:21Z</time>
  <course>0.0</course>
  <speed>0.0</speed>
  <fix>3d</fix>
</trkpt>
<trkpt lat="33.810313" lon="-118.393867">
  <ele>-0.105</ele>
  <time>2026-09-01T01:16:21Z</time>
  <course>187.41</course>
  <speed>0.03605551275463989</speed>
  <fix>3d</fix>
</trkpt>
<trkpt lat="33.810313" lon="-118.393867">
  <ele>-0.12</ele>
  <time>2026-09-01T01:16:21Z</time>
  <course>0.0</course>
  <speed>0.0</speed>
  <fix>3d</fix>
</trkpt>
<trkpt lat="33.810313" lon="-118.393867">
  <ele>-0.106</ele>
  <time>2026-09-01T01:16:21Z</time>
  <course>187.4</course>
  <speed>0.03605551275463989</speed>
  <fix>3d</fix>
</trkpt>
<trkpt lat="33.810313" lon="-118.393867">
  <ele>-0.12</ele>
  <time>2026-09-01T01:16:21Z</time>
  <course>0.0</course>
  <speed>0.0</speed>
  <fix>3d</fix>
</trkpt>
<trkpt lat="33.810313" lon="-118.393867">
  <ele>-0.108</ele>
  <time>2026-09-01T01:16:22Z</time>
  <course>187.4</course>
  <speed>0.03605551275463989</speed>
  <fix>3d</fix>
</trkpt>
<trkpt lat="33.810313" lon="-118.393867">
  <ele>-0.12</ele>
  <time>2026-09-01T01:16:22Z</time>
  <course>0.0</course>
  <speed>0.0</speed>
  <fix>3d</fix>
</trkpt>
<trkpt lat="33.810313" lon="-118.393867">
  <ele>-0.111</ele>
  <time>2026-09-01T01:16:22Z</time>
  <course>187.39</course>
  <speed>0.03605551275463989</speed>
  <fix>3d</fix>
</trkpt>
<trkpt lat="33.810313" lon="-118.393867">
  <ele>-0.12</ele>
  <time>2026-09-01T01:16:22Z</time>
  <course>0.0</course>
  <speed>0.0</speed>
  <fix>3d</fix>
</trkpt>
<trkpt lat="33.810313" lon="-118.393867">
  <ele>-0.114</ele>
  <time>2026-09-01T01:16:22Z</time>
  <course>187.39</course>
  <speed>0.03605551275463989</speed>
  <fix>3d</fix>
</trkpt>
<trkpt lat="33.810313" lon="-118.393867">
  <ele>-0.12</ele>
  <time>2026-09-01T01:16:22Z</time>
  <course>0.0</course>
  <speed>0.0</speed>
  <fix>3d</fix>
</trkpt>
<trkpt lat="33.810313" lon="-118.393867">
  <ele>-0.115</ele>
  <time>2026-09-01T01:16:22Z</time>
  <course>187.38</course>
  <speed>0.03605551275463989</speed>
  <fix>3d</fix>
</trkpt>
<trkpt lat="33.810313" lon="-118.393867">
  <ele>-0.12</ele>
  <time>2026-09-01T01:16:22Z</time>
  <course>0.0</course>
  <speed>0.0</speed>
  <fix>3d</fix>
</trkpt>
<trkpt lat="33.810313" lon="-118.393867">
  <ele>-0.115</ele>
  <time>2026-09-01T01:16:22Z</time>
  <course>187.37</course>
  <speed>0.03605551275463989</speed>
  <fix>3d</fix>
</trkpt>
<trkpt lat="33.810313" lon="-118.393867">
  <ele>-0.12</ele>
  <time>2026-09-01T01:16:22Z</time>
  <course>0.0</course>
  <speed>0.0</speed>
  <fix>3d</fix>
</trkpt>
<trkpt lat="33.810313" lon="-118.393867">
  <ele>-0.116</ele>
  <time>2026-09-01T01:16:22Z</time>
  <course>187.37</course>
  <speed>0.03605551275463989</speed>
  <fix>3d</fix>
</trkpt>
<trkpt lat="33.810313" lon="-118.393867">
  <ele>-0.12</ele>
  <time>2026-09-01T01:16:22Z</time>
  <course>0.0</course>
  <speed>0.0</speed>
  <fix>3d</fix>
</trkpt>
<trkpt lat="33.810313" lon="-118.393867">
  <ele>-0.115</ele>
  <time>2026-09-01T01:16:22Z</time>
  <course>187.36</course>
  <speed>0.03605551275463989</speed>
  <fix>3d</fix>
</trkpt>
<trkpt lat="33.810313" lon="-118.393867">
  <ele>-0.12</ele>
  <time>2026-09-01T01:16:22Z</time>
  <course>0.0</course>
  <speed>0.0</speed>
  <fix>3d</fix>
</trkpt>
<trkpt lat="33.810313" lon="-118.393867">
  <ele>-0.114</ele>
  <time>2026-09-01T01:16:22Z</time>
  <course>187.36</course>
  <speed>0.03605551275463989</speed>
  <fix>3d</fix>
</trkpt>
<trkpt lat="33.810313" lon="-118.393867">
  <ele>-0.12</ele>
  <time>2026-09-01T01:16:22Z</time>
  <course>0.0</course>
  <speed>0.0</speed>
  <fix>3d</fix>
</trkpt>
<trkpt lat="33.810313" lon="-118.393867">
  <ele>-0.113</ele>
  <time>2026-09-01T01:16:22Z</time>
  <course>187.35</course>
  <speed>0.03605551275463989</speed>
  <fix>3d</fix>
</trkpt>
<trkpt lat="33.810313" lon="-118.393867">
  <ele>-0.12</ele>
  <time>2026-09-01T01:16:22Z</time>
  <course>0.0</course>
  <speed>0.0</speed>
  <fix>3d</fix>
</trkpt>
<trkpt lat="33.810313" lon="-118.393867">
  <ele>-0.114</ele>
  <time>2026-09-01T01:16:22Z</time>
  <course>187.34</course>
  <speed>0.03605551275463989</speed>
  <fix>3d</fix>
</trkpt>
<trkpt lat="33.810313" lon="-118.393867">
  <ele>-0.12</ele>
  <time>2026-09-01T01:16:22Z</time>
  <course>0.0</course>
  <speed>0.0</speed>
  <fix>3d</fix>
</trkpt>
<trkpt lat="33.810313" lon="-118.393867">
  <ele>-0.116</ele>
  <time>2026-09-01T01:16:23Z</time>
  <course>187.34</course>
  <speed>0.03605551275463989</speed>
  <fix>3d</fix>
</trkpt>
<trkpt lat="33.810313" lon="-118.393867">
  <ele>-0.12</ele>
  <time>2026-09-01T01:16:23Z</time>
  <course>0.0</course>
  <speed>0.0</speed>
  <fix>3d</fix>
</trkpt>
<trkpt lat="33.810313" lon="-118.393867">
  <ele>-0.118</ele>
  <time>2026-09-01T01:16:23Z</time>
  <course>187.33</course>
  <speed>0.03605551275463989</speed>
  <fix>3d</fix>
</trkpt>
<trkpt lat="33.810313" lon="-118.393867">
  <ele>-0.12</ele>
  <time>2026-09-01T01:16:23Z</time>
  <course>0.0</course>
  <speed>0.0</speed>
  <fix>3d</fix>
</trkpt>
<trkpt lat="33.810313" lon="-118.393867">
  <ele>-0.119</ele>
  <time>2026-09-01T01:16:23Z</time>
  <course>187.33</course>
  <speed>0.03605551275463989</speed>
  <fix>3d</fix>
</trkpt>
<trkpt lat="33.810313" lon="-118.393867">
  <ele>-0.12</ele>
  <time>2026-09-01T01:16:23Z</time>
  <course>0.0</course>
  <speed>0.0</speed>
  <fix>3d</fix>
</trkpt>
<trkpt lat="33.810313" lon="-118.393867">
  <ele>-0.119</ele>
  <time>2026-09-01T01:16:23Z</time>
  <course>187.32</course>
  <speed>0.03605551275463989</speed>
  <fix>3d</fix>
</trkpt>
<trkpt lat="33.810313" lon="-118.393867">
  <ele>-0.12</ele>
  <time>2026-09-01T01:16:23Z</time>
  <course>0.0</course>
  <speed>0.0</speed>
  <fix>3d</fix>
</trkpt>
<trkpt lat="33.810313" lon="-118.393867">
  <ele>-0.118</ele>
  <time>2026-09-01T01:16:23Z</time>
  <course>187.32</course>
  <speed>0.03605551275463989</speed>
  <fix>3d</fix>
</trkpt>
<trkpt lat="33.810313" lon="-118.393867">
  <ele>-0.12</ele>
  <time>2026-09-01T01:16:23Z</time>
  <course>0.0</course>
  <speed>0.0</speed>
  <fix>3d</fix>
</trkpt>
<trkpt lat="33.810313" lon="-118.393867">
  <ele>-0.117</ele>
  <time>2026-09-01T01:16:23Z</time>
  <course>187.31</course>
  <speed>0.03605551275463989</speed>
  <fix>3d</fix>
</trkpt>
<trkpt lat="33.810313" lon="-118.393867">
  <ele>-0.12</ele>
  <time>2026-09-01T01:16:23Z</time>
  <course>0.0</course>
  <speed>0.0</speed>
  <fix>3d</fix>
</trkpt>
<trkpt lat="33.810313" lon="-118.393867">
  <ele>-0.113</ele>
  <time>2026-09-01T01:16:23Z</time>
  <course>187.31</course>
  <speed>0.03605551275463989</speed>
  <fix>3d</fix>
</trkpt>
<trkpt lat="33.810313" lon="-118.393867">
  <ele>-0.12</ele>
  <time>2026-09-01T01:16:23Z</time>
  <course>0.0</course>
  <speed>0.0</speed>
  <fix>3d</fix>
</trkpt>
<trkpt lat="33.810313" lon="-118.393867">
  <ele>-0.11</ele>
  <time>2026-09-01T01:16:23Z</time>
  <course>187.3</course>
  <speed>0.03605551275463989</speed>
  <fix>3d</fix>
</trkpt>
<trkpt lat="33.810313" lon="-118.393867">
  <ele>-0.12</ele>
  <time>2026-09-01T01:16:23Z</time>
  <course>0.0</course>
  <speed>0.0</speed>
  <fix>3d</fix>
</trkpt>
<trkpt lat="33.810313" lon="-118.393867">
  <ele>-0.107</ele>
  <time>2026-09-01T01:16:23Z</time>
  <course>187.3</course>
  <speed>0.03605551275463989</speed>
  <fix>3d</fix>
</trkpt>
<trkpt lat="33.810313" lon="-118.393867">
  <ele>-0.12</ele>
  <time>2026-09-01T01:16:23Z</time>
  <course>0.0</course>
  <speed>0.0</speed>
  <fix>3d</fix>
</trkpt>
<trkpt lat="33.810313" lon="-118.393867">
  <ele>-0.106</ele>
  <time>2026-09-01T01:16:23Z</time>
  <course>187.29</course>
  <speed>0.03605551275463989</speed>
  <fix>3d</fix>
</trkpt>
<trkpt lat="33.810313" lon="-118.393867">
  <ele>-0.12</ele>
  <time>2026-09-01T01:16:23Z</time>
  <course>0.0</course>
  <speed>0.0</speed>
  <fix>3d</fix>
</trkpt>
<trkpt lat="33.810313" lon="-118.393867">
  <ele>-0.107</ele>
  <time>2026-09-01T01:16:24Z</time>
  <course>187.29</course>
  <speed>0.03605551275463989</speed>
  <fix>3d</fix>
</trkpt>
<trkpt lat="33.810313" lon="-118.393867">
  <ele>-0.12</ele>
  <time>2026-09-01T01:16:24Z</time>
  <course>0.0</course>
  <speed>0.0</speed>
  <fix>3d</fix>
</trkpt>
<trkpt lat="33.810313" lon="-118.393867">
  <ele>-0.107</ele>
  <time>2026-09-01T01:16:24Z</time>
  <course>187.28</course>
  <speed>0.03605551275463989</speed>
  <fix>3d</fix>
</trkpt>
<trkpt lat="33.810313" lon="-118.393867">
  <ele>-0.12</ele>
  <time>2026-09-01T01:16:24Z</time>
  <course>0.0</course>
  <speed>0.0</speed>
  <fix>3d</fix>
</trkpt>
<trkpt lat="33.810313" lon="-118.393867">
  <ele>-0.109</ele>
  <time>2026-09-01T01:16:24Z</time>
  <course>187.27</course>
  <speed>0.03605551275463989</speed>
  <fix>3d</fix>
</trkpt>
<trkpt lat="33.810313" lon="-118.393867">
  <ele>-0.12</ele>
  <time>2026-09-01T01:16:24Z</time>
  <course>0.0</course>
  <speed>0.0</speed>
  <fix>3d</fix>
</trkpt>
<trkpt lat="33.810313" lon="-118.393867">
  <ele>-0.111</ele>
  <time>2026-09-01T01:16:24Z</time>
  <course>187.27</course>
  <speed>0.03605551275463989</speed>
  <fix>3d</fix>
</trkpt>
<trkpt lat="33.810313" lon="-118.393867">
  <ele>-0.12</ele>
  <time>2026-09-01T01:16:24Z</time>
  <course>0.0</course>
  <speed>0.0</speed>
  <fix>3d</fix>
</trkpt>
<trkpt lat="33.810313" lon="-118.393867">
  <ele>-0.113</ele>
  <time>2026-09-01T01:16:24Z</time>
  <course>187.26</course>
  <speed>0.03605551275463989</speed>
  <fix>3d</fix>
</trkpt>
<trkpt lat="33.810313" lon="-118.393867">
  <ele>-0.12</ele>
  <time>2026-09-01T01:16:24Z</time>
  <course>0.0</course>
  <speed>0.0</speed>
  <fix>3d</fix>
</trkpt>
<trkpt lat="33.810313" lon="-118.393867">
  <ele>-0.113</ele>
  <time>2026-09-01T01:16:24Z</time>
  <course>187.26</course>
  <speed>0.03605551275463989</speed>
  <fix>3d</fix>
</trkpt>
<trkpt lat="33.810313" lon="-118.393867">
  <ele>-0.12</ele>
  <time>2026-09-01T01:16:24Z</time>
  <course>0.0</course>
  <speed>0.0</speed>
  <fix>3d</fix>
</trkpt>
<trkpt lat="33.810313" lon="-118.393867">
  <ele>-0.113</ele>
  <time>2026-09-01T01:16:24Z</time>
  <course>187.25</course>
  <speed>0.03605551275463989</speed>
  <fix>3d</fix>
</trkpt>
<trkpt lat="33.810313" lon="-118.393867">
  <ele>-0.12</ele>
  <time>2026-09-01T01:16:24Z</time>
  <course>0.0</course>
  <speed>0.0</speed>
  <fix>3d</fix>
</trkpt>
<trkpt lat="33.810313" lon="-118.393867">
  <ele>-0.112</ele>
  <time>2026-09-01T01:16:24Z</time>
  <course>187.25</course>
  <speed>0.03605551275463989</speed>
  <fix>3d</fix>
</trkpt>
<trkpt lat="33.810313" lon="-118.393867">
  <ele>-0.12</ele>
  <time>2026-09-01T01:16:24Z</time>
  <course>0.0</course>
  <speed>0.0</speed>
  <fix>3d</fix>
</trkpt>
<trkpt lat="33.810313" lon="-118.393867">
  <ele>-0.111</ele>
  <time>2026-09-01T01:16:24Z</time>
  <course>187.24</course>
  <speed>0.03605551275463989</speed>
  <fix>3d</fix>
</trkpt>
<trkpt lat="33.810313" lon="-118.393867">
  <ele>-0.12</ele>
  <time>2026-09-01T01:16:24Z</time>
  <course>0.0</course>
  <speed>0.0</speed>
  <fix>3d</fix>
</trkpt>
<trkpt lat="33.810313" lon="-118.393867">
  <ele>-0.11</ele>
  <time>2026-09-01T01:16:24Z</time>
  <course>187.24</course>
  <speed>0.03605551275463989</speed>
  <fix>3d</fix>
</trkpt>
<trkpt lat="33.810313" lon="-118.393867">
  <ele>-0.12</ele>
  <time>2026-09-01T01:16:24Z</time>
  <course>0.0</course>
  <speed>0.0</speed>
  <fix>3d</fix>
</trkpt>
<trkpt lat="33.810313" lon="-118.393867">
  <ele>-0.11</ele>
  <time>2026-09-01T01:16:25Z</time>
  <course>187.23</course>
  <speed>0.03605551275463989</speed>
  <fix>3d</fix>
</trkpt>
<trkpt lat="33.810313" lon="-118.393867">
  <ele>-0.12</ele>
  <time>2026-09-01T01:16:25Z</time>
  <course>0.0</course>
  <speed>0.0</speed>
  <fix>3d</fix>
</trkpt>
<trkpt lat="33.810313" lon="-118.393867">
  <ele>-0.111</ele>
  <time>2026-09-01T01:16:25Z</time>
  <course>187.23</course>
  <speed>0.03605551275463989</speed>
  <fix>3d</fix>
</trkpt>
<trkpt lat="33.810313" lon="-118.393867">
  <ele>-0.12</ele>
  <time>2026-09-01T01:16:25Z</time>
  <course>0.0</course>
  <speed>0.0</speed>
  <fix>3d</fix>
</trkpt>
<trkpt lat="33.810313" lon="-118.393867">
  <ele>-0.112</ele>
  <time>2026-09-01T01:16:25Z</time>
  <course>187.22</course>
  <speed>0.03605551275463989</speed>
  <fix>3d</fix>
</trkpt>
<trkpt lat="33.810313" lon="-118.393867">
  <ele>-0.12</ele>
  <time>2026-09-01T01:16:25Z</time>
  <course>0.0</course>
  <speed>0.0</speed>
  <fix>3d</fix>
</trkpt>
<trkpt lat="33.810313" lon="-118.393867">
  <ele>-0.112</ele>
  <time>2026-09-01T01:16:25Z</time>
  <course>187.22</course>
  <speed>0.03605551275463989</speed>
  <fix>3d</fix>
</trkpt>
<trkpt lat="33.810313" lon="-118.393867">
  <ele>-0.12</ele>
  <time>2026-09-01T01:16:25Z</time>
  <course>0.0</course>
  <speed>0.0</speed>
  <fix>3d</fix>
</trkpt>
<trkpt lat="33.810313" lon="-118.393867">
  <ele>-0.112</ele>
  <time>2026-09-01T01:16:25Z</time>
  <course>187.21</course>
  <speed>0.03605551275463989</speed>
  <fix>3d</fix>
</trkpt>
<trkpt lat="33.810313" lon="-118.393867">
  <ele>-0.12</ele>
  <time>2026-09-01T01:16:25Z</time>
  <course>0.0</course>
  <speed>0.0</speed>
  <fix>3d</fix>
</trkpt>
<trkpt lat="33.810313" lon="-118.393867">
  <ele>-0.112</ele>
  <time>2026-09-01T01:16:25Z</time>
  <course>187.21</course>
  <speed>0.03605551275463989</speed>
  <fix>3d</fix>
</trkpt>
<trkpt lat="33.810313" lon="-118.393867">
  <ele>-0.12</ele>
  <time>2026-09-01T01:16:25Z</time>
  <course>0.0</course>
  <speed>0.0</speed>
  <fix>3d</fix>
</trkpt>
<trkpt lat="33.810313" lon="-118.393867">
  <ele>-0.111</ele>
  <time>2026-09-01T01:16:25Z</time>
  <course>187.2</course>
  <speed>0.03605551275463989</speed>
  <fix>3d</fix>
</trkpt>
<trkpt lat="33.810313" lon="-118.393867">
  <ele>-0.12</ele>
  <time>2026-09-01T01:16:25Z</time>
  <course>0.0</course>
  <speed>0.0</speed>
  <fix>3d</fix>
</trkpt>
<trkpt lat="33.810313" lon="-118.393867">
  <ele>-0.111</ele>
  <time>2026-09-01T01:16:25Z</time>
  <course>187.19</course>
  <speed>0.03605551275463989</speed>
  <fix>3d</fix>
</trkpt>
<trkpt lat="33.810313" lon="-118.393867">
  <ele>-0.12</ele>
  <time>2026-09-01T01:16:25Z</time>
  <course>0.0</course>
  <speed>0.0</speed>
  <fix>3d</fix>
</trkpt>
<trkpt lat="33.810313" lon="-118.393867">
  <ele>-0.11</ele>
  <time>2026-09-01T01:16:25Z</time>
  <course>187.19</course>
  <speed>0.03605551275463989</speed>
  <fix>3d</fix>
</trkpt>
<trkpt lat="33.810313" lon="-118.393867">
  <ele>-0.12</ele>
  <time>2026-09-01T01:16:25Z</time>
  <course>0.0</course>
  <speed>0.0</speed>
  <fix>3d</fix>
</trkpt>
<trkpt lat="33.810313" lon="-118.393867">
  <ele>-0.111</ele>
  <time>2026-09-01T01:16:25Z</time>
  <course>187.18</course>
  <speed>0.03605551275463989</speed>
  <fix>3d</fix>
</trkpt>
<trkpt lat="33.810313" lon="-118.393867">
  <ele>-0.12</ele>
  <time>2026-09-01T01:16:25Z</time>
  <course>0.0</course>
  <speed>0.0</speed>
  <fix>3d</fix>
</trkpt>
<trkpt lat="33.810313" lon="-118.393867">
  <ele>-0.113</ele>
  <time>2026-09-01T01:16:26Z</time>
  <course>187.18</course>
  <speed>0.03605551275463989</speed>
  <fix>3d</fix>
</trkpt>
<trkpt lat="33.810313" lon="-118.393867">
  <ele>-0.12</ele>
  <time>2026-09-01T01:16:26Z</time>
  <course>0.0</course>
  <speed>0.0</speed>
  <fix>3d</fix>
</trkpt>
<trkpt lat="33.810313" lon="-118.393867">
  <ele>-0.115</ele>
  <time>2026-09-01T01:16:26Z</time>
  <course>187.17</course>
  <speed>0.03605551275463989</speed>
  <fix>3d</fix>
</trkpt>
<trkpt lat="33.810313" lon="-118.393867">
  <ele>-0.12</ele>
  <time>2026-09-01T01:16:26Z</time>
  <course>0.0</course>
  <speed>0.0</speed>
  <fix>3d</fix>
</trkpt>
<trkpt lat="33.810313" lon="-118.393867">
  <ele>-0.115</ele>
  <time>2026-09-01T01:16:26Z</time>
  <course>187.17</course>
  <speed>0.03605551275463989</speed>
  <fix>3d</fix>
</trkpt>
<trkpt lat="33.810313" lon="-118.393867">
  <ele>-0.12</ele>
  <time>2026-09-01T01:16:26Z</time>
  <course>0.0</course>
  <speed>0.0</speed>
  <fix>3d</fix>
</trkpt>
<trkpt lat="33.810313" lon="-118.393867">
  <ele>-0.115</ele>
  <time>2026-09-01T01:16:26Z</time>
  <course>187.16</course>
  <speed>0.03605551275463989</speed>
  <fix>3d</fix>
</trkpt>
<trkpt lat="33.810313" lon="-118.393867">
  <ele>-0.12</ele>
  <time>2026-09-01T01:16:26Z</time>
  <course>0.0</course>
  <speed>0.0</speed>
  <fix>3d</fix>
</trkpt>
<trkpt lat="33.810313" lon="-118.393867">
  <ele>-0.114</ele>
  <time>2026-09-01T01:16:26Z</time>
  <course>187.16</course>
  <speed>0.0</speed>
  <fix>3d</fix>
</trkpt>
<trkpt lat="33.810313" lon="-118.393867">
  <ele>-0.12</ele>
  <time>2026-09-01T01:16:26Z</time>
  <course>0.0</course>
  <speed>0.0</speed>
  <fix>3d</fix>
</trkpt>
<trkpt lat="33.810313" lon="-118.393867">
  <ele>-0.113</ele>
  <time>2026-09-01T01:16:26Z</time>
  <course>187.15</course>
  <speed>0.0</speed>
  <fix>3d</fix>
</trkpt>
<trkpt lat="33.810313" lon="-118.393867">
  <ele>-0.12</ele>
  <time>2026-09-01T01:16:26Z</time>
  <course>0.0</course>
  <speed>0.0</speed>
  <fix>3d</fix>
</trkpt>
<trkpt lat="33.810313" lon="-118.393867">
  <ele>-0.111</ele>
  <time>2026-09-01T01:16:26Z</time>
  <course>187.15</course>
  <speed>0.0</speed>
  <fix>3d</fix>
</trkpt>
<trkpt lat="33.810313" lon="-118.393867">
  <ele>-0.12</ele>
  <time>2026-09-01T01:16:26Z</time>
  <course>0.0</course>
  <speed>0.0</speed>
  <fix>3d</fix>
</trkpt>
<trkpt lat="33.810313" lon="-118.393867">
  <ele>-0.109</ele>
  <time>2026-09-01T01:16:26Z</time>
  <course>187.14</course>
  <speed>0.0</speed>
  <fix>3d</fix>
</trkpt>
<trkpt lat="33.810313" lon="-118.393867">
  <ele>-0.12</ele>
  <time>2026-09-01T01:16:26Z</time>
  <course>0.0</course>
  <speed>0.0</speed>
  <fix>3d</fix>
</trkpt>
<trkpt lat="33.810313" lon="-118.393867">
  <ele>-0.106</ele>
  <time>2026-09-01T01:16:26Z</time>
  <course>187.14</course>
  <speed>0.0</speed>
  <fix>3d</fix>
</trkpt>
<trkpt lat="33.810313" lon="-118.393867">
  <ele>-0.12</ele>
  <time>2026-09-01T01:16:26Z</time>
  <course>0.0</course>
  <speed>0.0</speed>
  <fix>3d</fix>
</trkpt>
<trkpt lat="33.810313" lon="-118.393867">
  <ele>-0.105</ele>
  <time>2026-09-01T01:16:26Z</time>
  <course>187.13</course>
  <speed>0.0</speed>
  <fix>3d</fix>
</trkpt>
<trkpt lat="33.810313" lon="-118.393867">
  <ele>-0.12</ele>
  <time>2026-09-01T01:16:26Z</time>
  <course>0.0</course>
  <speed>0.0</speed>
  <fix>3d</fix>
</trkpt>
<trkpt lat="33.810313" lon="-118.393867">
  <ele>-0.104</ele>
  <time>2026-09-01T01:16:26Z</time>
  <course>187.13</course>
  <speed>0.0</speed>
  <fix>3d</fix>
</trkpt>
<trkpt lat="33.810313" lon="-118.393867">
  <ele>-0.12</ele>
  <time>2026-09-01T01:16:26Z</time>
  <course>0.0</course>
  <speed>0.0</speed>
  <fix>3d</fix>
</trkpt>
<trkpt lat="33.810313" lon="-118.393867">
  <ele>-0.105</ele>
  <time>2026-09-01T01:16:27Z</time>
  <course>187.12</course>
  <speed>0.0</speed>
  <fix>3d</fix>
</trkpt>
<trkpt lat="33.810313" lon="-118.393867">
  <ele>-0.12</ele>
  <time>2026-09-01T01:16:27Z</time>
  <course>0.0</course>
  <speed>0.0</speed>
  <fix>3d</fix>
</trkpt>
<trkpt lat="33.810313" lon="-118.393867">
  <ele>-0.106</ele>
  <time>2026-09-01T01:16:27Z</time>
  <course>187.12</course>
  <speed>0.0</speed>
  <fix>3d</fix>
</trkpt>
<trkpt lat="33.810313" lon="-118.393867">
  <ele>-0.12</ele>
  <time>2026-09-01T01:16:27Z</time>
  <course>0.0</course>
  <speed>0.0</speed>
  <fix>3d</fix>
</trkpt>
<trkpt lat="33.810313" lon="-118.393867">
  <ele>-0.107</ele>
  <time>2026-09-01T01:16:27Z</time>
  <course>187.11</course>
  <speed>0.0</speed>
  <fix>3d</fix>
</trkpt>
<trkpt lat="33.810313" lon="-118.393867">
  <ele>-0.12</ele>
  <time>2026-09-01T01:16:27Z</time>
  <course>0.0</course>
  <speed>0.0</speed>
  <fix>3d</fix>
</trkpt>
<trkpt lat="33.810313" lon="-118.393867">
  <ele>-0.108</ele>
  <time>2026-09-01T01:16:27Z</time>
  <course>187.11</course>
  <speed>0.0</speed>
  <fix>3d</fix>
</trkpt>
<trkpt lat="33.810313" lon="-118.393867">
  <ele>-0.12</ele>
  <time>2026-09-01T01:16:27Z</time>
  <course>0.0</course>
  <speed>0.0</speed>
  <fix>3d</fix>
</trkpt>
<trkpt lat="33.810313" lon="-118.393867">
  <ele>-0.108</ele>
  <time>2026-09-01T01:16:27Z</time>
  <course>187.1</course>
  <speed>0.01</speed>
  <fix>3d</fix>
</trkpt>
<trkpt lat="33.810313" lon="-118.393867">
  <ele>-0.12</ele>
  <time>2026-09-01T01:16:27Z</time>
  <course>0.0</course>
  <speed>0.0</speed>
  <fix>3d</fix>
</trkpt>
<trkpt lat="33.810313" lon="-118.393867">
  <ele>-0.106</ele>
  <time>2026-09-01T01:16:27Z</time>
  <course>187.1</course>
  <speed>0.01</speed>
  <fix>3d</fix>
</trkpt>
<trkpt lat="33.810313" lon="-118.393867">
  <ele>-0.12</ele>
  <time>2026-09-01T01:16:27Z</time>
  <course>0.0</course>
  <speed>0.0</speed>
  <fix>3d</fix>
</trkpt>
<trkpt lat="33.810313" lon="-118.393867">
  <ele>-0.104</ele>
  <time>2026-09-01T01:16:27Z</time>
  <course>187.09</course>
  <speed>0.01</speed>
  <fix>3d</fix>
</trkpt>
<trkpt lat="33.810313" lon="-118.393867">
  <ele>-0.12</ele>
  <time>2026-09-01T01:16:27Z</time>
  <course>0.0</course>
  <speed>0.0</speed>
  <fix>3d</fix>
</trkpt>
<trkpt lat="33.810313" lon="-118.393867">
  <ele>-0.102</ele>
  <time>2026-09-01T01:16:27Z</time>
  <course>187.09</course>
  <speed>0.01414213562373095</speed>
  <fix>3d</fix>
</trkpt>
<trkpt lat="33.810313" lon="-118.393867">
  <ele>-0.12</ele>
  <time>2026-09-01T01:16:27Z</time>
  <course>0.0</course>
  <speed>0.0</speed>
  <fix>3d</fix>
</trkpt>
<trkpt lat="33.810313" lon="-118.393867">
  <ele>-0.102</ele>
  <time>2026-09-01T01:16:27Z</time>
  <course>187.08</course>
  <speed>0.01414213562373095</speed>
  <fix>3d</fix>
</trkpt>
<trkpt lat="33.810313" lon="-118.393867">
  <ele>-0.12</ele>
  <time>2026-09-01T01:16:27Z</time>
  <course>0.0</course>
  <speed>0.0</speed>
  <fix>3d</fix>
</trkpt>
<trkpt lat="33.810313" lon="-118.393867">
  <ele>-0.103</ele>
  <time>2026-09-01T01:16:27Z</time>
  <course>187.08</course>
  <speed>0.01414213562373095</speed>
  <fix>3d</fix>
</trkpt>
<trkpt lat="33.810313" lon="-118.393867">
  <ele>-0.12</ele>
  <time>2026-09-01T01:16:27Z</time>
  <course>0.0</course>
  <speed>0.0</speed>
  <fix>3d</fix>
</trkpt>
<trkpt lat="33.810313" lon="-118.393867">
  <ele>-0.104</ele>
  <time>2026-09-01T01:16:28Z</time>
  <course>187.07</course>
  <speed>0.01414213562373095</speed>
  <fix>3d</fix>
</trkpt>
<trkpt lat="33.810313" lon="-118.393867">
  <ele>-0.12</ele>
  <time>2026-09-01T01:16:28Z</time>
  <course>0.0</course>
  <speed>0.0</speed>
  <fix>3d</fix>
</trkpt>
<trkpt lat="33.810313" lon="-118.393867">
  <ele>-0.105</ele>
  <time>2026-09-01T01:16:28Z</time>
  <course>187.07</course>
  <speed>0.01414213562373095</speed>
  <fix>3d</fix>
</trkpt>
<trkpt lat="33.810313" lon="-118.393867">
  <ele>-0.12</ele>
  <time>2026-09-01T01:16:28Z</time>
  <course>0.0</course>
  <speed>0.0</speed>
  <fix>3d</fix>
</trkpt>
<trkpt lat="33.810313" lon="-118.393867">
  <ele>-0.106</ele>
  <time>2026-09-01T01:16:28Z</time>
  <course>187.07</course>
  <speed>0.01414213562373095</speed>
  <fix>3d</fix>
</trkpt>
<trkpt lat="33.810313" lon="-118.393867">
  <ele>-0.12</ele>
  <time>2026-09-01T01:16:28Z</time>
  <course>0.0</course>
  <speed>0.0</speed>
  <fix>3d</fix>
</trkpt>
<trkpt lat="33.810313" lon="-118.393867">
  <ele>-0.106</ele>
  <time>2026-09-01T01:16:28Z</time>
  <course>187.06</course>
  <speed>0.01414213562373095</speed>
  <fix>3d</fix>
</trkpt>
<trkpt lat="33.810313" lon="-118.393867">
  <ele>-0.12</ele>
  <time>2026-09-01T01:16:28Z</time>
  <course>0.0</course>
  <speed>0.0</speed>
  <fix>3d</fix>
</trkpt>
<trkpt lat="33.810313" lon="-118.393867">
  <ele>-0.106</ele>
  <time>2026-09-01T01:16:28Z</time>
  <course>187.06</course>
  <speed>0.022360679774997897</speed>
  <fix>3d</fix>
</trkpt>
<trkpt lat="33.810313" lon="-118.393867">
  <ele>-0.12</ele>
  <time>2026-09-01T01:16:28Z</time>
  <course>0.0</course>
  <speed>0.0</speed>
  <fix>3d</fix>
</trkpt>
<trkpt lat="33.810313" lon="-118.393867">
  <ele>-0.105</ele>
  <time>2026-09-01T01:16:28Z</time>
  <course>187.05</course>
  <speed>0.022360679774997897</speed>
  <fix>3d</fix>
</trkpt>
<trkpt lat="33.810313" lon="-118.393867">
  <ele>-0.12</ele>
  <time>2026-09-01T01:16:28Z</time>
  <course>0.0</course>
  <speed>0.0</speed>
  <fix>3d</fix>
</trkpt>
<trkpt lat="33.810313" lon="-118.393867">
  <ele>-0.105</ele>
  <time>2026-09-01T01:16:28Z</time>
  <course>187.05</course>
  <speed>0.022360679774997897</speed>
  <fix>3d</fix>
</trkpt>
<trkpt lat="33.810313" lon="-118.393867">
  <ele>-0.12</ele>
  <time>2026-09-01T01:16:28Z</time>
  <course>0.0</course>
  <speed>0.0</speed>
  <fix>3d</fix>
</trkpt>
<trkpt lat="33.810313" lon="-118.393867">
  <ele>-0.104</ele>
  <time>2026-09-01T01:16:28Z</time>
  <course>187.04</course>
  <speed>0.022360679774997897</speed>
  <fix>3d</fix>
</trkpt>
<trkpt lat="33.810313" lon="-118.393867">
  <ele>-0.12</ele>
  <time>2026-09-01T01:16:28Z</time>
  <course>0.0</course>
  <speed>0.0</speed>
  <fix>3d</fix>
</trkpt>
<trkpt lat="33.810313" lon="-118.393867">
  <ele>-0.103</ele>
  <time>2026-09-01T01:16:28Z</time>
  <course>187.04</course>
  <speed>0.022360679774997897</speed>
  <fix>3d</fix>
</trkpt>
<trkpt lat="33.810313" lon="-118.393867">
  <ele>-0.12</ele>
  <time>2026-09-01T01:16:28Z</time>
  <course>0.0</course>
  <speed>0.0</speed>
  <fix>3d</fix>
</trkpt>
<trkpt lat="33.8103131" lon="-118.393867">
  <ele>-0.103</ele>
  <time>2026-09-01T01:16:28Z</time>
  <course>187.03</course>
  <speed>0.022360679774997897</speed>
  <fix>3d</fix>
</trkpt>
<trkpt lat="33.810313" lon="-118.393867">
  <ele>-0.12</ele>
  <time>2026-09-01T01:16:28Z</time>
  <course>0.0</course>
  <speed>0.0</speed>
  <fix>3d</fix>
</trkpt>
<trkpt lat="33.8103131" lon="-118.3938671">
  <ele>-0.104</ele>
  <time>2026-09-01T01:16:29Z</time>
  <course>187.03</course>
  <speed>0.022360679774997897</speed>
  <fix>3d</fix>
</trkpt>
<trkpt lat="33.810313" lon="-118.393867">
  <ele>-0.12</ele>
  <time>2026-09-01T01:16:29Z</time>
  <course>0.0</course>
  <speed>0.0</speed>
  <fix>3d</fix>
</trkpt>
<trkpt lat="33.8103131" lon="-118.3938671">
  <ele>-0.106</ele>
  <time>2026-09-01T01:16:29Z</time>
  <course>187.02</course>
  <speed>0.0282842712474619</speed>
  <fix>3d</fix>
</trkpt>
<trkpt lat="33.810313" lon="-118.393867">
  <ele>-0.12</ele>
  <time>2026-09-01T01:16:29Z</time>
  <course>0.0</course>
  <speed>0.0</speed>
  <fix>3d</fix>
</trkpt>
<trkpt lat="33.8103131" lon="-118.3938671">
  <ele>-0.109</ele>
  <time>2026-09-01T01:16:29Z</time>
  <course>187.02</course>
  <speed>0.0282842712474619</speed>
  <fix>3d</fix>
</trkpt>
<trkpt lat="33.810313" lon="-118.393867">
  <ele>-0.12</ele>
  <time>2026-09-01T01:16:29Z</time>
  <course>0.0</course>
  <speed>0.0</speed>
  <fix>3d</fix>
</trkpt>
<trkpt lat="33.8103131" lon="-118.3938671">
  <ele>-0.111</ele>
  <time>2026-09-01T01:16:29Z</time>
  <course>187.01</course>
  <speed>0.0282842712474619</speed>
  <fix>3d</fix>
</trkpt>
<trkpt lat="33.810313" lon="-118.393867">
  <ele>-0.12</ele>
  <time>2026-09-01T01:16:29Z</time>
  <course>0.0</course>
  <speed>0.0</speed>
  <fix>3d</fix>
</trkpt>
<trkpt lat="33.8103131" lon="-118.3938671">
  <ele>-0.111</ele>
  <time>2026-09-01T01:16:29Z</time>
  <course>187.01</course>
  <speed>0.0282842712474619</speed>
  <fix>3d</fix>
</trkpt>
<trkpt lat="33.810313" lon="-118.393867">
  <ele>-0.12</ele>
  <time>2026-09-01T01:16:29Z</time>
  <course>0.0</course>
  <speed>0.0</speed>
  <fix>3d</fix>
</trkpt>
<trkpt lat="33.8103131" lon="-118.3938671">
  <ele>-0.112</ele>
  <time>2026-09-01T01:16:29Z</time>
  <course>187.01</course>
  <speed>0.0282842712474619</speed>
  <fix>3d</fix>
</trkpt>
<trkpt lat="33.810313" lon="-118.393867">
  <ele>-0.12</ele>
  <time>2026-09-01T01:16:29Z</time>
  <course>0.0</course>
  <speed>0.0</speed>
  <fix>3d</fix>
</trkpt>
<trkpt lat="33.8103131" lon="-118.3938671">
  <ele>-0.114</ele>
  <time>2026-09-01T01:16:29Z</time>
  <course>187.0</course>
  <speed>0.0282842712474619</speed>
  <fix>3d</fix>
</trkpt>
<trkpt lat="33.810313" lon="-118.393867">
  <ele>-0.12</ele>
  <time>2026-09-01T01:16:29Z</time>
  <course>0.0</course>
  <speed>0.0</speed>
  <fix>3d</fix>
</trkpt>
<trkpt lat="33.8103131" lon="-118.3938671">
  <ele>-0.115</ele>
  <time>2026-09-01T01:16:29Z</time>
  <course>187.0</course>
  <speed>0.0282842712474619</speed>
  <fix>3d</fix>
</trkpt>
<trkpt lat="33.810313" lon="-118.393867">
  <ele>-0.12</ele>
  <time>2026-09-01T01:16:29Z</time>
  <course>0.0</course>
  <speed>0.0</speed>
  <fix>3d</fix>
</trkpt>
<trkpt lat="33.8103131" lon="-118.3938671">
  <ele>-0.117</ele>
  <time>2026-09-01T01:16:29Z</time>
  <course>186.99</course>
  <speed>0.03605551275463989</speed>
  <fix>3d</fix>
</trkpt>
<trkpt lat="33.810313" lon="-118.393867">
  <ele>-0.12</ele>
  <time>2026-09-01T01:16:29Z</time>
  <course>0.0</course>
  <speed>0.0</speed>
  <fix>3d</fix>
</trkpt>
<trkpt lat="33.8103131" lon="-118.3938671">
  <ele>-0.118</ele>
  <time>2026-09-01T01:16:29Z</time>
  <course>186.99</course>
  <speed>0.03605551275463989</speed>
  <fix>3d</fix>
</trkpt>
<trkpt lat="33.810313" lon="-118.393867">
  <ele>-0.12</ele>
  <time>2026-09-01T01:16:29Z</time>
  <course>0.0</course>
  <speed>0.0</speed>
  <fix>3d</fix>
</trkpt>
<trkpt lat="33.8103131" lon="-118.3938671">
  <ele>-0.119</ele>
  <time>2026-09-01T01:16:30Z</time>
  <course>186.98</course>
  <speed>0.03605551275463989</speed>
  <fix>3d</fix>
</trkpt>
<trkpt lat="33.810313" lon="-118.393867">
  <ele>-0.12</ele>
  <time>2026-09-01T01:16:30Z</time>
  <course>0.0</course>
  <speed>0.0</speed>
  <fix>3d</fix>
</trkpt>
<trkpt lat="33.8103131" lon="-118.3938671">
  <ele>-0.12</ele>
  <time>2026-09-01T01:16:30Z</time>
  <course>186.98</course>
  <speed>0.03605551275463989</speed>
  <fix>3d</fix>
</trkpt>
<trkpt lat="33.810313" lon="-118.393867">
  <ele>-0.12</ele>
  <time>2026-09-01T01:16:30Z</time>
  <course>0.0</course>
  <speed>0.0</speed>
  <fix>3d</fix>
</trkpt>
<trkpt lat="33.8103131" lon="-118.3938671">
  <ele>-0.121</ele>
  <time>2026-09-01T01:16:30Z</time>
  <course>186.97</course>
  <speed>0.03605551275463989</speed>
  <fix>3d</fix>
</trkpt>
<trkpt lat="33.810313" lon="-118.393867">
  <ele>-0.12</ele>
  <time>2026-09-01T01:16:30Z</time>
  <course>0.0</course>
  <speed>0.0</speed>
  <fix>3d</fix>
</trkpt>
<trkpt lat="33.8103131" lon="-118.3938671">
  <ele>-0.122</ele>
  <time>2026-09-01T01:16:30Z</time>
  <course>186.97</course>
  <speed>0.03605551275463989</speed>
  <fix>3d</fix>
</trkpt>
<trkpt lat="33.810313" lon="-118.393867">
  <ele>-0.12</ele>
  <time>2026-09-01T01:16:30Z</time>
  <course>0.0</course>
  <speed>0.0</speed>
  <fix>3d</fix>
</trkpt>
<trkpt lat="33.8103132" lon="-118.3938671">
  <ele>-0.123</ele>
  <time>2026-09-01T01:16:30Z</time>
  <course>186.97</course>
  <speed>0.03605551275463989</speed>
  <fix>3d</fix>
</trkpt>
<trkpt lat="33.810313" lon="-118.393867">
  <ele>-0.12</ele>
  <time>2026-09-01T01:16:30Z</time>
  <course>0.0</course>
  <speed>0.0</speed>
  <fix>3d</fix>
</trkpt>
<trkpt lat="33.8103132" lon="-118.3938671">
  <ele>-0.123</ele>
  <time>2026-09-01T01:16:30Z</time>
  <course>186.96</course>
  <speed>0.03605551275463989</speed>
  <fix>3d</fix>
</trkpt>
<trkpt lat="33.810313" lon="-118.393867">
  <ele>-0.12</ele>
  <time>2026-09-01T01:16:30Z</time>
  <course>0.0</course>
  <speed>0.0</speed>
  <fix>3d</fix>
</trkpt>
<trkpt lat="33.8103132" lon="-118.3938671">
  <ele>-0.122</ele>
  <time>2026-09-01T01:16:30Z</time>
  <course>186.96</course>
  <speed>0.03605551275463989</speed>
  <fix>3d</fix>
</trkpt>
<trkpt lat="33.810313" lon="-118.393867">
  <ele>-0.12</ele>
  <time>2026-09-01T01:16:30Z</time>
  <course>0.0</course>
  <speed>0.0</speed>
  <fix>3d</fix>
</trkpt>
<trkpt lat="33.8103132" lon="-118.3938671">
  <ele>-0.122</ele>
  <time>2026-09-01T01:16:30Z</time>
  <course>186.95</course>
  <speed>0.03605551275463989</speed>
  <fix>3d</fix>
</trkpt>
<trkpt lat="33.810313" lon="-118.393867">
  <ele>-0.12</ele>
  <time>2026-09-01T01:16:30Z</time>
  <course>0.0</course>
  <speed>0.0</speed>
  <fix>3d</fix>
</trkpt>
<trkpt lat="33.8103132" lon="-118.3938671">
  <ele>-0.122</ele>
  <time>2026-09-01T01:16:30Z</time>
  <course>186.95</course>
  <speed>0.03605551275463989</speed>
  <fix>3d</fix>
</trkpt>
<trkpt lat="33.810313" lon="-118.393867">
  <ele>-0.12</ele>
  <time>2026-09-01T01:16:30Z</time>
  <course>0.0</course>
  <speed>0.0</speed>
  <fix>3d</fix>
</trkpt>
<trkpt lat="33.8103132" lon="-118.3938671">
  <ele>-0.122</ele>
  <time>2026-09-01T01:16:30Z</time>
  <course>186.94</course>
  <speed>0.03605551275463989</speed>
  <fix>3d</fix>
</trkpt>
<trkpt lat="33.810313" lon="-118.393867">
  <ele>-0.12</ele>
  <time>2026-09-01T01:16:30Z</time>
  <course>0.0</course>
  <speed>0.0</speed>
  <fix>3d</fix>
</trkpt>
<trkpt lat="33.8103132" lon="-118.3938671">
  <ele>-0.122</ele>
  <time>2026-09-01T01:16:31Z</time>
  <course>186.94</course>
  <speed>0.03605551275463989</speed>
  <fix>3d</fix>
</trkpt>
<trkpt lat="33.810313" lon="-118.393867">
  <ele>-0.12</ele>
  <time>2026-09-01T01:16:31Z</time>
  <course>0.0</course>
  <speed>0.0</speed>
  <fix>3d</fix>
</trkpt>
<trkpt lat="33.8103132" lon="-118.3938672">
  <ele>-0.121</ele>
  <time>2026-09-01T01:16:31Z</time>
  <course>186.94</course>
  <speed>0.03605551275463989</speed>
  <fix>3d</fix>
</trkpt>
<trkpt lat="33.810313" lon="-118.393867">
  <ele>-0.12</ele>
  <time>2026-09-01T01:16:31Z</time>
  <course>0.0</course>
  <speed>0.0</speed>
  <fix>3d</fix>
</trkpt>
<trkpt lat="33.8103132" lon="-118.3938672">
  <ele>-0.12</ele>
  <time>2026-09-01T01:16:31Z</time>
  <course>186.93</course>
  <speed>0.03605551275463989</speed>
  <fix>3d</fix>
</trkpt>
<trkpt lat="33.810313" lon="-118.393867">
  <ele>-0.12</ele>
  <time>2026-09-01T01:16:31Z</time>
  <course>0.0</course>
  <speed>0.0</speed>
  <fix>3d</fix>
</trkpt>
<trkpt lat="33.8103132" lon="-118.3938672">
  <ele>-0.118</ele>
  <time>2026-09-01T01:16:31Z</time>
  <course>186.93</course>
  <speed>0.03605551275463989</speed>
  <fix>3d</fix>
</trkpt>
<trkpt lat="33.810313" lon="-118.393867">
  <ele>-0.12</ele>
  <time>2026-09-01T01:16:31Z</time>
  <course>0.0</course>
  <speed>0.0</speed>
  <fix>3d</fix>
</trkpt>
<trkpt lat="33.8103132" lon="-118.3938672">
  <ele>-0.117</ele>
  <time>2026-09-01T01:16:31Z</time>
  <course>186.92</course>
  <speed>0.0282842712474619</speed>
  <fix>3d</fix>
</trkpt>
<trkpt lat="33.810313" lon="-118.393867">
  <ele>-0.12</ele>
  <time>2026-09-01T01:16:31Z</time>
  <course>0.0</course>
  <speed>0.0</speed>
  <fix>3d</fix>
</trkpt>
<trkpt lat="33.8103132" lon="-118.3938671">
  <ele>-0.116</ele>
  <time>2026-09-01T01:16:31Z</time>
  <course>186.92</course>
  <speed>0.0282842712474619</speed>
  <fix>3d</fix>
</trkpt>
<trkpt lat="33.810313" lon="-118.393867">
  <ele>-0.12</ele>
  <time>2026-09-01T01:16:31Z</time>
  <course>0.0</course>
  <speed>0.0</speed>
  <fix>3d</fix>
</trkpt>
<trkpt lat="33.8103132" lon="-118.3938671">
  <ele>-0.114</ele>
  <time>2026-09-01T01:16:31Z</time>
  <course>186.92</course>
  <speed>0.0282842712474619</speed>
  <fix>3d</fix>
</trkpt>
<trkpt lat="33.810313" lon="-118.393867">
  <ele>-0.12</ele>
  <time>2026-09-01T01:16:31Z</time>
  <course>0.0</course>
  <speed>0.0</speed>
  <fix>3d</fix>
</trkpt>
<trkpt lat="33.8103132" lon="-118.3938671">
  <ele>-0.112</ele>
  <time>2026-09-01T01:16:31Z</time>
  <course>186.91</course>
  <speed>0.0282842712474619</speed>
  <fix>3d</fix>
</trkpt>
<trkpt lat="33.810313" lon="-118.393867">
  <ele>-0.12</ele>
  <time>2026-09-01T01:16:31Z</time>
  <course>0.0</course>
  <speed>0.0</speed>
  <fix>3d</fix>
</trkpt>
<trkpt lat="33.8103132" lon="-118.3938671">
  <ele>-0.111</ele>
  <time>2026-09-01T01:16:31Z</time>
  <course>186.91</course>
  <speed>0.0282842712474619</speed>
  <fix>3d</fix>
</trkpt>
<trkpt lat="33.810313" lon="-118.393867">
  <ele>-0.12</ele>
  <time>2026-09-01T01:16:31Z</time>
  <course>0.0</course>
  <speed>0.0</speed>
  <fix>3d</fix>
</trkpt>
<trkpt lat="33.8103132" lon="-118.3938671">
  <ele>-0.11</ele>
  <time>2026-09-01T01:16:31Z</time>
  <course>186.91</course>
  <speed>0.0282842712474619</speed>
  <fix>3d</fix>
</trkpt>
<trkpt lat="33.810313" lon="-118.393867">
  <ele>-0.12</ele>
  <time>2026-09-01T01:16:31Z</time>
  <course>0.0</course>
  <speed>0.0</speed>
  <fix>3d</fix>
</trkpt>
<trkpt lat="33.8103132" lon="-118.3938671">
  <ele>-0.11</ele>
  <time>2026-09-01T01:16:32Z</time>
  <course>186.9</course>
  <speed>0.0282842712474619</speed>
  <fix>3d</fix>
</trkpt>
<trkpt lat="33.810313" lon="-118.393867">
  <ele>-0.12</ele>
  <time>2026-09-01T01:16:32Z</time>
  <course>0.0</course>
  <speed>0.0</speed>
  <fix>3d</fix>
</trkpt>
<trkpt lat="33.8103132" lon="-118.3938671">
  <ele>-0.111</ele>
  <time>2026-09-01T01:16:32Z</time>
  <course>186.9</course>
  <speed>0.0282842712474619</speed>
  <fix>3d</fix>
</trkpt>
<trkpt lat="33.810313" lon="-118.393867">
  <ele>-0.12</ele>
  <time>2026-09-01T01:16:32Z</time>
  <course>0.0</course>
  <speed>0.0</speed>
  <fix>3d</fix>
</trkpt>
<trkpt lat="33.8103132" lon="-118.3938671">
  <ele>-0.111</ele>
  <time>2026-09-01T01:16:32Z</time>
  <course>186.89</course>
  <speed>0.0282842712474619</speed>
  <fix>3d</fix>
</trkpt>
<trkpt lat="33.810313" lon="-118.393867">
  <ele>-0.12</ele>
  <time>2026-09-01T01:16:32Z</time>
  <course>0.0</course>
  <speed>0.0</speed>
  <fix>3d</fix>
</trkpt>
<trkpt lat="33.8103132" lon="-118.3938671">
  <ele>-0.112</ele>
  <time>2026-09-01T01:16:32Z</time>
  <course>186.89</course>
  <speed>0.022360679774997897</speed>
  <fix>3d</fix>
</trkpt>
<trkpt lat="33.810313" lon="-118.393867">
  <ele>-0.12</ele>
  <time>2026-09-01T01:16:32Z</time>
  <course>0.0</course>
  <speed>0.0</speed>
  <fix>3d</fix>
</trkpt>
<trkpt lat="33.8103132" lon="-118.3938671">
  <ele>-0.113</ele>
  <time>2026-09-01T01:16:32Z</time>
  <course>186.89</course>
  <speed>0.022360679774997897</speed>
  <fix>3d</fix>
</trkpt>
<trkpt lat="33.810313" lon="-118.393867">
  <ele>-0.12</ele>
  <time>2026-09-01T01:16:32Z</time>
  <course>0.0</course>
  <speed>0.0</speed>
  <fix>3d</fix>
</trkpt>
<trkpt lat="33.8103132" lon="-118.3938671">
  <ele>-0.113</ele>
  <time>2026-09-01T01:16:32Z</time>
  <course>186.88</course>
  <speed>0.022360679774997897</speed>
  <fix>3d</fix>
</trkpt>
<trkpt lat="33.810313" lon="-118.393867">
  <ele>-0.12</ele>
  <time>2026-09-01T01:16:32Z</time>
  <course>0.0</course>
  <speed>0.0</speed>
  <fix>3d</fix>
</trkpt>
<trkpt lat="33.8103131" lon="-118.3938671">
  <ele>-0.111</ele>
  <time>2026-09-01T01:16:32Z</time>
  <course>186.88</course>
  <speed>0.022360679774997897</speed>
  <fix>3d</fix>
</trkpt>
<trkpt lat="33.810313" lon="-118.393867">
  <ele>-0.12</ele>
  <time>2026-09-01T01:16:32Z</time>
  <course>0.0</course>
  <speed>0.0</speed>
  <fix>3d</fix>
</trkpt>
<trkpt lat="33.8103131" lon="-118.3938671">
  <ele>-0.111</ele>
  <time>2026-09-01T01:16:32Z</time>
  <course>186.88</course>
  <speed>0.022360679774997897</speed>
  <fix>3d</fix>
</trkpt>
<trkpt lat="33.810313" lon="-118.393867">
  <ele>-0.12</ele>
  <time>2026-09-01T01:16:32Z</time>
  <course>0.0</course>
  <speed>0.0</speed>
  <fix>3d</fix>
</trkpt>
<trkpt lat="33.8103131" lon="-118.3938671">
  <ele>-0.111</ele>
  <time>2026-09-01T01:16:32Z</time>
  <course>186.87</course>
  <speed>0.022360679774997897</speed>
  <fix>3d</fix>
</trkpt>
<trkpt lat="33.810313" lon="-118.393867">
  <ele>-0.12</ele>
  <time>2026-09-01T01:16:32Z</time>
  <course>0.0</course>
  <speed>0.0</speed>
  <fix>3d</fix>
</trkpt>
<trkpt lat="33.8103131" lon="-118.3938671">
  <ele>-0.112</ele>
  <time>2026-09-01T01:16:32Z</time>
  <course>186.87</course>
  <speed>0.022360679774997897</speed>
  <fix>3d</fix>
</trkpt>
<trkpt lat="33.810313" lon="-118.393867">
  <ele>-0.12</ele>
  <time>2026-09-01T01:16:32Z</time>
  <course>0.0</course>
  <speed>0.0</speed>
  <fix>3d</fix>
</trkpt>
<trkpt lat="33.8103131" lon="-118.3938671">
  <ele>-0.114</ele>
  <time>2026-09-01T01:16:32Z</time>
  <course>186.87</course>
  <speed>0.022360679774997897</speed>
  <fix>3d</fix>
</trkpt>
<trkpt lat="33.810313" lon="-118.393867">
  <ele>-0.12</ele>
  <time>2026-09-01T01:16:32Z</time>
  <course>0.0</course>
  <speed>0.0</speed>
  <fix>3d</fix>
</trkpt>
<trkpt lat="33.8103131" lon="-118.3938671">
  <ele>-0.116</ele>
  <time>2026-09-01T01:16:33Z</time>
  <course>186.86</course>
  <speed>0.022360679774997897</speed>
  <fix>3d</fix>
</trkpt>
<trkpt lat="33.810313" lon="-118.393867">
  <ele>-0.12</ele>
  <time>2026-09-01T01:16:33Z</time>
  <course>0.0</course>
  <speed>0.0</speed>
  <fix>3d</fix>
</trkpt>
<trkpt lat="33.8103131" lon="-118.3938671">
  <ele>-0.118</ele>
  <time>2026-09-01T01:16:33Z</time>
  <course>186.86</course>
  <speed>0.022360679774997897</speed>
  <fix>3d</fix>
</trkpt>
<trkpt lat="33.810313" lon="-118.393867">
  <ele>-0.12</ele>
  <time>2026-09-01T01:16:33Z</time>
  <course>0.0</course>
  <speed>0.0</speed>
  <fix>3d</fix>
</trkpt>
<trkpt lat="33.8103131" lon="-118.3938671">
  <ele>-0.119</ele>
  <time>2026-09-01T01:16:33Z</time>
  <course>186.86</course>
  <speed>0.022360679774997897</speed>
  <fix>3d</fix>
</trkpt>
<trkpt lat="33.810313" lon="-118.393867">
  <ele>-0.12</ele>
  <time>2026-09-01T01:16:33Z</time>
  <course>0.0</course>
  <speed>0.0</speed>
  <fix>3d</fix>
</trkpt>
<trkpt lat="33.8103131" lon="-118.3938671">
  <ele>-0.119</ele>
  <time>2026-09-01T01:16:33Z</time>
  <course>186.85</course>
  <speed>0.022360679774997897</speed>
  <fix>3d</fix>
</trkpt>
<trkpt lat="33.810313" lon="-118.393867">
  <ele>-0.12</ele>
  <time>2026-09-01T01:16:33Z</time>
  <course>0.0</course>
  <speed>0.0</speed>
  <fix>3d</fix>
</trkpt>
<trkpt lat="33.8103131" lon="-118.3938671">
  <ele>-0.118</ele>
  <time>2026-09-01T01:16:33Z</time>
  <course>186.85</course>
  <speed>0.022360679774997897</speed>
  <fix>3d</fix>
</trkpt>
<trkpt lat="33.810313" lon="-118.393867">
  <ele>-0.12</ele>
  <time>2026-09-01T01:16:33Z</time>
  <course>0.0</course>
  <speed>0.0</speed>
  <fix>3d</fix>
</trkpt>
<trkpt lat="33.8103131" lon="-118.3938671">
  <ele>-0.115</ele>
  <time>2026-09-01T01:16:33Z</time>
  <course>186.85</course>
  <speed>0.022360679774997897</speed>
  <fix>3d</fix>
</trkpt>
<trkpt lat="33.810313" lon="-118.393867">
  <ele>-0.12</ele>
  <time>2026-09-01T01:16:33Z</time>
  <course>0.0</course>
  <speed>0.0</speed>
  <fix>3d</fix>
</trkpt>
<trkpt lat="33.8103131" lon="-118.3938671">
  <ele>-0.112</ele>
  <time>2026-09-01T01:16:33Z</time>
  <course>186.84</course>
  <speed>0.022360679774997897</speed>
  <fix>3d</fix>
</trkpt>
<trkpt lat="33.810313" lon="-118.393867">
  <ele>-0.12</ele>
  <time>2026-09-01T01:16:33Z</time>
  <course>0.0</course>
  <speed>0.0</speed>
  <fix>3d</fix>
</trkpt>
<trkpt lat="33.8103131" lon="-118.3938671">
  <ele>-0.11</ele>
  <time>2026-09-01T01:16:33Z</time>
  <course>186.84</course>
  <speed>0.022360679774997897</speed>
  <fix>3d</fix>
</trkpt>
<trkpt lat="33.810313" lon="-118.393867">
  <ele>-0.12</ele>
  <time>2026-09-01T01:16:33Z</time>
  <course>0.0</course>
  <speed>0.0</speed>
  <fix>3d</fix>
</trkpt>
<trkpt lat="33.8103131" lon="-118.3938671">
  <ele>-0.109</ele>
  <time>2026-09-01T01:16:33Z</time>
  <course>186.84</course>
  <speed>0.022360679774997897</speed>
  <fix>3d</fix>
</trkpt>
<trkpt lat="33.810313" lon="-118.393867">
  <ele>-0.12</ele>
  <time>2026-09-01T01:16:33Z</time>
  <course>0.0</course>
  <speed>0.0</speed>
  <fix>3d</fix>
</trkpt>
<trkpt lat="33.8103131" lon="-118.3938671">
  <ele>-0.11</ele>
  <time>2026-09-01T01:16:33Z</time>
  <course>186.83</course>
  <speed>0.022360679774997897</speed>
  <fix>3d</fix>
</trkpt>
<trkpt lat="33.810313" lon="-118.393867">
  <ele>-0.12</ele>
  <time>2026-09-01T01:16:33Z</time>
  <course>0.0</course>
  <speed>0.0</speed>
  <fix>3d</fix>
</trkpt>
<trkpt lat="33.8103131" lon="-118.3938671">
  <ele>-0.112</ele>
  <time>2026-09-01T01:16:34Z</time>
  <course>186.83</course>
  <speed>0.022360679774997897</speed>
  <fix>3d</fix>
</trkpt>
<trkpt lat="33.810313" lon="-118.393867">
  <ele>-0.12</ele>
  <time>2026-09-01T01:16:34Z</time>
  <course>0.0</course>
  <speed>0.0</speed>
  <fix>3d</fix>
</trkpt>
<trkpt lat="33.8103131" lon="-118.3938671">
  <ele>-0.113</ele>
  <time>2026-09-01T01:16:34Z</time>
  <course>186.83</course>
  <speed>0.022360679774997897</speed>
  <fix>3d</fix>
</trkpt>
<trkpt lat="33.810313" lon="-118.393867">
  <ele>-0.12</ele>
  <time>2026-09-01T01:16:34Z</time>
  <course>0.0</course>
  <speed>0.0</speed>
  <fix>3d</fix>
</trkpt>
<trkpt lat="33.8103131" lon="-118.3938671">
  <ele>-0.114</ele>
  <time>2026-09-01T01:16:34Z</time>
  <course>186.83</course>
  <speed>0.022360679774997897</speed>
  <fix>3d</fix>
</trkpt>
<trkpt lat="33.810313" lon="-118.393867">
  <ele>-0.12</ele>
  <time>2026-09-01T01:16:34Z</time>
  <course>0.0</course>
  <speed>0.0</speed>
  <fix>3d</fix>
</trkpt>
<trkpt lat="33.8103131" lon="-118.3938671">
  <ele>-0.114</ele>
  <time>2026-09-01T01:16:34Z</time>
  <course>186.82</course>
  <speed>0.022360679774997897</speed>
  <fix>3d</fix>
</trkpt>
<trkpt lat="33.810313" lon="-118.393867">
  <ele>-0.12</ele>
  <time>2026-09-01T01:16:34Z</time>
  <course>0.0</course>
  <speed>0.0</speed>
  <fix>3d</fix>
</trkpt>
<trkpt lat="33.8103131" lon="-118.3938671">
  <ele>-0.113</ele>
  <time>2026-09-01T01:16:34Z</time>
  <course>186.82</course>
  <speed>0.022360679774997897</speed>
  <fix>3d</fix>
</trkpt>
<trkpt lat="33.810313" lon="-118.393867">
  <ele>-0.12</ele>
  <time>2026-09-01T01:16:34Z</time>
  <course>0.0</course>
  <speed>0.0</speed>
  <fix>3d</fix>
</trkpt>
<trkpt lat="33.8103131" lon="-118.3938671">
  <ele>-0.112</ele>
  <time>2026-09-01T01:16:34Z</time>
  <course>186.82</course>
  <speed>0.022360679774997897</speed>
  <fix>3d</fix>
</trkpt>
<trkpt lat="33.810313" lon="-118.393867">
  <ele>-0.12</ele>
  <time>2026-09-01T01:16:34Z</time>
  <course>0.0</course>
  <speed>0.0</speed>
  <fix>3d</fix>
</trkpt>
<trkpt lat="33.8103131" lon="-118.3938671">
  <ele>-0.111</ele>
  <time>2026-09-01T01:16:34Z</time>
  <course>186.81</course>
  <speed>0.022360679774997897</speed>
  <fix>3d</fix>
</trkpt>
<trkpt lat="33.810313" lon="-118.393867">
  <ele>-0.12</ele>
  <time>2026-09-01T01:16:34Z</time>
  <course>0.0</course>
  <speed>0.0</speed>
  <fix>3d</fix>
</trkpt>
<trkpt lat="33.8103131" lon="-118.3938671">
  <ele>-0.11</ele>
  <time>2026-09-01T01:16:34Z</time>
  <course>186.81</course>
  <speed>0.022360679774997897</speed>
  <fix>3d</fix>
</trkpt>
<trkpt lat="33.810313" lon="-118.393867">
  <ele>-0.12</ele>
  <time>2026-09-01T01:16:34Z</time>
  <course>0.0</course>
  <speed>0.0</speed>
  <fix>3d</fix>
</trkpt>
<trkpt lat="33.8103131" lon="-118.3938671">
  <ele>-0.109</ele>
  <time>2026-09-01T01:16:34Z</time>
  <course>186.81</course>
  <speed>0.022360679774997897</speed>
  <fix>3d</fix>
</trkpt>
<trkpt lat="33.810313" lon="-118.393867">
  <ele>-0.12</ele>
  <time>2026-09-01T01:16:34Z</time>
  <course>0.0</course>
  <speed>0.0</speed>
  <fix>3d</fix>
</trkpt>
<trkpt lat="33.8103131" lon="-118.3938671">
  <ele>-0.108</ele>
  <time>2026-09-01T01:16:34Z</time>
  <course>186.81</course>
  <speed>0.022360679774997897</speed>
  <fix>3d</fix>
</trkpt>
<trkpt lat="33.810313" lon="-118.393867">
  <ele>-0.12</ele>
  <time>2026-09-01T01:16:34Z</time>
  <course>0.0</course>
  <speed>0.0</speed>
  <fix>3d</fix>
</trkpt>
<trkpt lat="33.8103131" lon="-118.3938671">
  <ele>-0.109</ele>
  <time>2026-09-01T01:16:35Z</time>
  <course>186.8</course>
  <speed>0.022360679774997897</speed>
  <fix>3d</fix>
</trkpt>
<trkpt lat="33.810313" lon="-118.393867">
  <ele>-0.12</ele>
  <time>2026-09-01T01:16:35Z</time>
  <course>0.0</course>
  <speed>0.0</speed>
  <fix>3d</fix>
</trkpt>
<trkpt lat="33.8103131" lon="-118.3938671">
  <ele>-0.111</ele>
  <time>2026-09-01T01:16:35Z</time>
  <course>186.8</course>
  <speed>0.022360679774997897</speed>
  <fix>3d</fix>
</trkpt>
<trkpt lat="33.810313" lon="-118.393867">
  <ele>-0.12</ele>
  <time>2026-09-01T01:16:35Z</time>
  <course>0.0</course>
  <speed>0.0</speed>
  <fix>3d</fix>
</trkpt>
<trkpt lat="33.8103131" lon="-118.3938671">
  <ele>-0.111</ele>
  <time>2026-09-01T01:16:35Z</time>
  <course>186.8</course>
  <speed>0.022360679774997897</speed>
  <fix>3d</fix>
</trkpt>
<trkpt lat="33.810313" lon="-118.393867">
  <ele>-0.12</ele>
  <time>2026-09-01T01:16:35Z</time>
  <course>0.0</course>
  <speed>0.0</speed>
  <fix>3d</fix>
</trkpt>
<trkpt lat="33.8103131" lon="-118.3938671">
  <ele>-0.111</ele>
  <time>2026-09-01T01:16:35Z</time>
  <course>186.79</course>
  <speed>0.022360679774997897</speed>
  <fix>3d</fix>
</trkpt>
<trkpt lat="33.810313" lon="-118.393867">
  <ele>-0.12</ele>
  <time>2026-09-01T01:16:35Z</time>
  <course>0.0</course>
  <speed>0.0</speed>
  <fix>3d</fix>
</trkpt>
<trkpt lat="33.8103131" lon="-118.3938671">
  <ele>-0.109</ele>
  <time>2026-09-01T01:16:35Z</time>
  <course>186.79</course>
  <speed>0.022360679774997897</speed>
  <fix>3d</fix>
</trkpt>
<trkpt lat="33.810313" lon="-118.393867">
  <ele>-0.12</ele>
  <time>2026-09-01T01:16:35Z</time>
  <course>0.0</course>
  <speed>0.0</speed>
  <fix>3d</fix>
</trkpt>
<trkpt lat="33.8103131" lon="-118.3938671">
  <ele>-0.107</ele>
  <time>2026-09-01T01:16:35Z</time>
  <course>186.79</course>
  <speed>0.022360679774997897</speed>
  <fix>3d</fix>
</trkpt>
<trkpt lat="33.810313" lon="-118.393867">
  <ele>-0.12</ele>
  <time>2026-09-01T01:16:35Z</time>
  <course>0.0</course>
  <speed>0.0</speed>
  <fix>3d</fix>
</trkpt>
<trkpt lat="33.8103131" lon="-118.3938671">
  <ele>-0.105</ele>
  <time>2026-09-01T01:16:35Z</time>
  <course>186.79</course>
  <speed>0.022360679774997897</speed>
  <fix>3d</fix>
</trkpt>
<trkpt lat="33.810313" lon="-118.393867">
  <ele>-0.12</ele>
  <time>2026-09-01T01:16:35Z</time>
  <course>0.0</course>
  <speed>0.0</speed>
  <fix>3d</fix>
</trkpt>
<trkpt lat="33.8103131" lon="-118.3938671">
  <ele>-0.102</ele>
  <time>2026-09-01T01:16:35Z</time>
  <course>186.78</course>
  <speed>0.022360679774997897</speed>
  <fix>3d</fix>
</trkpt>
<trkpt lat="33.810313" lon="-118.393867">
  <ele>-0.12</ele>
  <time>2026-09-01T01:16:35Z</time>
  <course>0.0</course>
  <speed>0.0</speed>
  <fix>3d</fix>
</trkpt>
<trkpt lat="33.8103131" lon="-118.3938671">
  <ele>-0.1</ele>
  <time>2026-09-01T01:16:35Z</time>
  <course>186.78</course>
  <speed>0.022360679774997897</speed>
  <fix>3d</fix>
</trkpt>
<trkpt lat="33.810313" lon="-118.393867">
  <ele>-0.12</ele>
  <time>2026-09-01T01:16:35Z</time>
  <course>0.0</course>
  <speed>0.0</speed>
  <fix>3d</fix>
</trkpt>
<trkpt lat="33.8103131" lon="-118.3938671">
  <ele>-0.099</ele>
  <time>2026-09-01T01:16:35Z</time>
  <course>186.78</course>
  <speed>0.022360679774997897</speed>
  <fix>3d</fix>
</trkpt>
<trkpt lat="33.810313" lon="-118.393867">
  <ele>-0.12</ele>
  <time>2026-09-01T01:16:35Z</time>
  <course>0.0</course>
  <speed>0.0</speed>
  <fix>3d</fix>
</trkpt>
<trkpt lat="33.8103131" lon="-118.3938671">
  <ele>-0.099</ele>
  <time>2026-09-01T01:16:36Z</time>
  <course>186.77</course>
  <speed>0.022360679774997897</speed>
  <fix>3d</fix>
</trkpt>
<trkpt lat="33.810313" lon="-118.393867">
  <ele>-0.12</ele>
  <time>2026-09-01T01:16:36Z</time>
  <course>0.0</course>
  <speed>0.0</speed>
  <fix>3d</fix>
</trkpt>
<trkpt lat="33.8103131" lon="-118.3938671">
  <ele>-0.1</ele>
  <time>2026-09-01T01:16:36Z</time>
  <course>186.77</course>
  <speed>0.022360679774997897</speed>
  <fix>3d</fix>
</trkpt>
<trkpt lat="33.810313" lon="-118.393867">
  <ele>-0.12</ele>
  <time>2026-09-01T01:16:36Z</time>
  <course>0.0</course>
  <speed>0.0</speed>
  <fix>3d</fix>
</trkpt>
<trkpt lat="33.8103131" lon="-118.3938671">
  <ele>-0.101</ele>
  <time>2026-09-01T01:16:36Z</time>
  <course>186.77</course>
  <speed>0.022360679774997897</speed>
  <fix>3d</fix>
</trkpt>
<trkpt lat="33.810313" lon="-118.393867">
  <ele>-0.12</ele>
  <time>2026-09-01T01:16:36Z</time>
  <course>0.0</course>
  <speed>0.0</speed>
  <fix>3d</fix>
</trkpt>
<trkpt lat="33.8103131" lon="-118.3938671">
  <ele>-0.103</ele>
  <time>2026-09-01T01:16:36Z</time>
  <course>186.77</course>
  <speed>0.022360679774997897</speed>
  <fix>3d</fix>
</trkpt>
<trkpt lat="33.810313" lon="-118.393867">
  <ele>-0.12</ele>
  <time>2026-09-01T01:16:36Z</time>
  <course>0.0</course>
  <speed>0.0</speed>
  <fix>3d</fix>
</trkpt>
<trkpt lat="33.8103131" lon="-118.3938671">
  <ele>-0.105</ele>
  <time>2026-09-01T01:16:36Z</time>
  <course>186.76</course>
  <speed>0.022360679774997897</speed>
  <fix>3d</fix>
</trkpt>
<trkpt lat="33.810313" lon="-118.393867">
  <ele>-0.12</ele>
  <time>2026-09-01T01:16:36Z</time>
  <course>0.0</course>
  <speed>0.0</speed>
  <fix>3d</fix>
</trkpt>
<trkpt lat="33.8103131" lon="-118.3938671">
  <ele>-0.106</ele>
  <time>2026-09-01T01:16:36Z</time>
  <course>186.76</course>
  <speed>0.022360679774997897</speed>
  <fix>3d</fix>
</trkpt>
<trkpt lat="33.810313" lon="-118.393867">
  <ele>-0.12</ele>
  <time>2026-09-01T01:16:36Z</time>
  <course>0.0</course>
  <speed>0.0</speed>
  <fix>3d</fix>
</trkpt>
<trkpt lat="33.8103131" lon="-118.3938671">
  <ele>-0.106</ele>
  <time>2026-09-01T01:16:36Z</time>
  <course>186.76</course>
  <speed>0.022360679774997897</speed>
  <fix>3d</fix>
</trkpt>
<trkpt lat="33.810313" lon="-118.393867">
  <ele>-0.12</ele>
  <time>2026-09-01T01:16:36Z</time>
  <course>0.0</course>
  <speed>0.0</speed>
  <fix>3d</fix>
</trkpt>
<trkpt lat="33.8103131" lon="-118.3938671">
  <ele>-0.104</ele>
  <time>2026-09-01T01:16:36Z</time>
  <course>186.76</course>
  <speed>0.022360679774997897</speed>
  <fix>3d</fix>
</trkpt>
<trkpt lat="33.810313" lon="-118.393867">
  <ele>-0.12</ele>
  <time>2026-09-01T01:16:36Z</time>
  <course>0.0</course>
  <speed>0.0</speed>
  <fix>3d</fix>
</trkpt>
<trkpt lat="33.8103131" lon="-118.3938671">
  <ele>-0.103</ele>
  <time>2026-09-01T01:16:36Z</time>
  <course>186.75</course>
  <speed>0.022360679774997897</speed>
  <fix>3d</fix>
</trkpt>
<trkpt lat="33.810313" lon="-118.393867">
  <ele>-0.12</ele>
  <time>2026-09-01T01:16:36Z</time>
  <course>0.0</course>
  <speed>0.0</speed>
  <fix>3d</fix>
</trkpt>
<trkpt lat="33.8103131" lon="-118.3938671">
  <ele>-0.103</ele>
  <time>2026-09-01T01:16:36Z</time>
  <course>186.75</course>
  <speed>0.022360679774997897</speed>
  <fix>3d</fix>
</trkpt>
<trkpt lat="33.810313" lon="-118.393867">
  <ele>-0.12</ele>
  <time>2026-09-01T01:16:36Z</time>
  <course>0.0</course>
  <speed>0.0</speed>
  <fix>3d</fix>
</trkpt>
<trkpt lat="33.8103131" lon="-118.3938671">
  <ele>-0.104</ele>
  <time>2026-09-01T01:16:37Z</time>
  <course>186.75</course>
  <speed>0.022360679774997897</speed>
  <fix>3d</fix>
</trkpt>
<trkpt lat="33.810313" lon="-118.393867">
  <ele>-0.12</ele>
  <time>2026-09-01T01:16:37Z</time>
  <course>0.0</course>
  <speed>0.0</speed>
  <fix>3d</fix>
</trkpt>
<trkpt lat="33.8103131" lon="-118.3938671">
  <ele>-0.106</ele>
  <time>2026-09-01T01:16:37Z</time>
  <course>186.74</course>
  <speed>0.022360679774997897</speed>
  <fix>3d</fix>
</trkpt>
<trkpt lat="33.810313" lon="-118.393867">
  <ele>-0.12</ele>
  <time>2026-09-01T01:16:37Z</time>
  <course>0.0</course>
  <speed>0.0</speed>
  <fix>3d</fix>
</trkpt>
<trkpt lat="33.8103131" lon="-118.3938671">
  <ele>-0.108</ele>
  <time>2026-09-01T01:16:37Z</time>
  <course>186.74</course>
  <speed>0.022360679774997897</speed>
  <fix>3d</fix>
</trkpt>
<trkpt lat="33.810313" lon="-118.393867">
  <ele>-0.12</ele>
  <time>2026-09-01T01:16:37Z</time>
  <course>0.0</course>
  <speed>0.0</speed>
  <fix>3d</fix>
</trkpt>
<trkpt lat="33.8103131" lon="-118.3938671">
  <ele>-0.11</ele>
  <time>2026-09-01T01:16:37Z</time>
  <course>186.74</course>
  <speed>0.022360679774997897</speed>
  <fix>3d</fix>
</trkpt>
<trkpt lat="33.810313" lon="-118.393867">
  <ele>-0.12</ele>
  <time>2026-09-01T01:16:37Z</time>
  <course>0.0</course>
  <speed>0.0</speed>
  <fix>3d</fix>
</trkpt>
<trkpt lat="33.8103131" lon="-118.3938671">
  <ele>-0.111</ele>
  <time>2026-09-01T01:16:37Z</time>
  <course>186.74</course>
  <speed>0.022360679774997897</speed>
  <fix>3d</fix>
</trkpt>
<trkpt lat="33.810313" lon="-118.393867">
  <ele>-0.12</ele>
  <time>2026-09-01T01:16:37Z</time>
  <course>0.0</course>
  <speed>0.0</speed>
  <fix>3d</fix>
</trkpt>
<trkpt lat="33.8103131" lon="-118.3938671">
  <ele>-0.111</ele>
  <time>2026-09-01T01:16:37Z</time>
  <course>186.73</course>
  <speed>0.022360679774997897</speed>
  <fix>3d</fix>
</trkpt>
<trkpt lat="33.810313" lon="-118.393867">
  <ele>-0.12</ele>
  <time>2026-09-01T01:16:37Z</time>
  <course>0.0</course>
  <speed>0.0</speed>
  <fix>3d</fix>
</trkpt>
<trkpt lat="33.8103131" lon="-118.3938671">
  <ele>-0.111</ele>
  <time>2026-09-01T01:16:37Z</time>
  <course>186.73</course>
  <speed>0.022360679774997897</speed>
  <fix>3d</fix>
</trkpt>
<trkpt lat="33.810313" lon="-118.393867">
  <ele>-0.12</ele>
  <time>2026-09-01T01:16:37Z</time>
  <course>0.0</course>
  <speed>0.0</speed>
  <fix>3d</fix>
</trkpt>
<trkpt lat="33.8103131" lon="-118.3938671">
  <ele>-0.11</ele>
  <time>2026-09-01T01:16:37Z</time>
  <course>186.73</course>
  <speed>0.022360679774997897</speed>
  <fix>3d</fix>
</trkpt>
<trkpt lat="33.810313" lon="-118.393867">
  <ele>-0.12</ele>
  <time>2026-09-01T01:16:37Z</time>
  <course>0.0</course>
  <speed>0.0</speed>
  <fix>3d</fix>
</trkpt>
<trkpt lat="33.8103131" lon="-118.3938671">
  <ele>-0.11</ele>
  <time>2026-09-01T01:16:37Z</time>
  <course>186.73</course>
  <speed>0.022360679774997897</speed>
  <fix>3d</fix>
</trkpt>
<trkpt lat="33.810313" lon="-118.393867">
  <ele>-0.12</ele>
  <time>2026-09-01T01:16:37Z</time>
  <course>0.0</course>
  <speed>0.0</speed>
  <fix>3d</fix>
</trkpt>
<trkpt lat="33.8103131" lon="-118.3938671">
  <ele>-0.111</ele>
  <time>2026-09-01T01:16:37Z</time>
  <course>186.72</course>
  <speed>0.022360679774997897</speed>
  <fix>3d</fix>
</trkpt>
<trkpt lat="33.810313" lon="-118.393867">
  <ele>-0.12</ele>
  <time>2026-09-01T01:16:37Z</time>
  <course>0.0</course>
  <speed>0.0</speed>
  <fix>3d</fix>
</trkpt>
<trkpt lat="33.8103131" lon="-118.3938671">
  <ele>-0.112</ele>
  <time>2026-09-01T01:16:37Z</time>
  <course>186.72</course>
  <speed>0.022360679774997897</speed>
  <fix>3d</fix>
</trkpt>
<trkpt lat="33.810313" lon="-118.393867">
  <ele>-0.12</ele>
  <time>2026-09-01T01:16:37Z</time>
  <course>0.0</course>
  <speed>0.0</speed>
  <fix>3d</fix>
</trkpt>
<trkpt lat="33.8103131" lon="-118.3938671">
  <ele>-0.114</ele>
  <time>2026-09-01T01:16:38Z</time>
  <course>186.72</course>
  <speed>0.022360679774997897</speed>
  <fix>3d</fix>
</trkpt>
<trkpt lat="33.810313" lon="-118.393867">
  <ele>-0.12</ele>
  <time>2026-09-01T01:16:38Z</time>
  <course>0.0</course>
  <speed>0.0</speed>
  <fix>3d</fix>
</trkpt>
<trkpt lat="33.8103131" lon="-118.3938671">
  <ele>-0.116</ele>
  <time>2026-09-01T01:16:38Z</time>
  <course>186.72</course>
  <speed>0.022360679774997897</speed>
  <fix>3d</fix>
</trkpt>
<trkpt lat="33.810313" lon="-118.393867">
  <ele>-0.12</ele>
  <time>2026-09-01T01:16:38Z</time>
  <course>0.0</course>
  <speed>0.0</speed>
  <fix>3d</fix>
</trkpt>
<trkpt lat="33.8103131" lon="-118.3938671">
  <ele>-0.117</ele>
  <time>2026-09-01T01:16:38Z</time>
  <course>186.71</course>
  <speed>0.022360679774997897</speed>
  <fix>3d</fix>
</trkpt>
<trkpt lat="33.810313" lon="-118.393867">
  <ele>-0.12</ele>
  <time>2026-09-01T01:16:38Z</time>
  <course>0.0</course>
  <speed>0.0</speed>
  <fix>3d</fix>
</trkpt>
<trkpt lat="33.8103131" lon="-118.3938671">
  <ele>-0.116</ele>
  <time>2026-09-01T01:16:38Z</time>
  <course>186.71</course>
  <speed>0.022360679774997897</speed>
  <fix>3d</fix>
</trkpt>
<trkpt lat="33.810313" lon="-118.393867">
  <ele>-0.12</ele>
  <time>2026-09-01T01:16:38Z</time>
  <course>0.0</course>
  <speed>0.0</speed>
  <fix>3d</fix>
</trkpt>
<trkpt lat="33.8103131" lon="-118.3938671">
  <ele>-0.115</ele>
  <time>2026-09-01T01:16:38Z</time>
  <course>186.71</course>
  <speed>0.022360679774997897</speed>
  <fix>3d</fix>
</trkpt>
<trkpt lat="33.810313" lon="-118.393867">
  <ele>-0.12</ele>
  <time>2026-09-01T01:16:38Z</time>
  <course>0.0</course>
  <speed>0.0</speed>
  <fix>3d</fix>
</trkpt>
<trkpt lat="33.8103131" lon="-118.3938671">
  <ele>-0.115</ele>
  <time>2026-09-01T01:16:38Z</time>
  <course>186.71</course>
  <speed>0.022360679774997897</speed>
  <fix>3d</fix>
</trkpt>
<trkpt lat="33.810313" lon="-118.393867">
  <ele>-0.12</ele>
  <time>2026-09-01T01:16:38Z</time>
  <course>0.0</course>
  <speed>0.0</speed>
  <fix>3d</fix>
</trkpt>
<trkpt lat="33.8103131" lon="-118.3938671">
  <ele>-0.115</ele>
  <time>2026-09-01T01:16:38Z</time>
  <course>186.7</course>
  <speed>0.022360679774997897</speed>
  <fix>3d</fix>
</trkpt>
<trkpt lat="33.810313" lon="-118.393867">
  <ele>-0.12</ele>
  <time>2026-09-01T01:16:38Z</time>
  <course>0.0</course>
  <speed>0.0</speed>
  <fix>3d</fix>
</trkpt>
<trkpt lat="33.8103131" lon="-118.3938671">
  <ele>-0.115</ele>
  <time>2026-09-01T01:16:38Z</time>
  <course>186.7</course>
  <speed>0.022360679774997897</speed>
  <fix>3d</fix>
</trkpt>
<trkpt lat="33.810313" lon="-118.393867">
  <ele>-0.12</ele>
  <time>2026-09-01T01:16:38Z</time>
  <course>0.0</course>
  <speed>0.0</speed>
  <fix>3d</fix>
</trkpt>
<trkpt lat="33.8103131" lon="-118.3938671">
  <ele>-0.117</ele>
  <time>2026-09-01T01:16:38Z</time>
  <course>186.7</course>
  <speed>0.022360679774997897</speed>
  <fix>3d</fix>
</trkpt>
<trkpt lat="33.810313" lon="-118.393867">
  <ele>-0.12</ele>
  <time>2026-09-01T01:16:38Z</time>
  <course>0.0</course>
  <speed>0.0</speed>
  <fix>3d</fix>
</trkpt>
<trkpt lat="33.8103131" lon="-118.3938671">
  <ele>-0.118</ele>
  <time>2026-09-01T01:16:38Z</time>
  <course>186.7</course>
  <speed>0.022360679774997897</speed>
  <fix>3d</fix>
</trkpt>
<trkpt lat="33.810313" lon="-118.393867">
  <ele>-0.12</ele>
  <time>2026-09-01T01:16:38Z</time>
  <course>0.0</course>
  <speed>0.0</speed>
  <fix>3d</fix>
</trkpt>
<trkpt lat="33.8103131" lon="-118.3938671">
  <ele>-0.118</ele>
  <time>2026-09-01T01:16:39Z</time>
  <course>186.69</course>
  <speed>0.022360679774997897</speed>
  <fix>3d</fix>
</trkpt>
<trkpt lat="33.810313" lon="-118.393867">
  <ele>-0.12</ele>
  <time>2026-09-01T01:16:39Z</time>
  <course>0.0</course>
  <speed>0.0</speed>
  <fix>3d</fix>
</trkpt>
<trkpt lat="33.8103131" lon="-118.3938671">
  <ele>-0.118</ele>
  <time>2026-09-01T01:16:39Z</time>
  <course>186.69</course>
  <speed>0.022360679774997897</speed>
  <fix>3d</fix>
</trkpt>
<trkpt lat="33.810313" lon="-118.393867">
  <ele>-0.12</ele>
  <time>2026-09-01T01:16:39Z</time>
  <course>0.0</course>
  <speed>0.0</speed>
  <fix>3d</fix>
</trkpt>
<trkpt lat="33.8103131" lon="-118.3938671">
  <ele>-0.117</ele>
  <time>2026-09-01T01:16:39Z</time>
  <course>186.69</course>
  <speed>0.022360679774997897</speed>
  <fix>3d</fix>
</trkpt>
<trkpt lat="33.810313" lon="-118.393867">
  <ele>-0.12</ele>
  <time>2026-09-01T01:16:39Z</time>
  <course>0.0</course>
  <speed>0.0</speed>
  <fix>3d</fix>
</trkpt>
<trkpt lat="33.8103131" lon="-118.3938671">
  <ele>-0.115</ele>
  <time>2026-09-01T01:16:39Z</time>
  <course>186.69</course>
  <speed>0.022360679774997897</speed>
  <fix>3d</fix>
</trkpt>
<trkpt lat="33.810313" lon="-118.393867">
  <ele>-0.12</ele>
  <time>2026-09-01T01:16:39Z</time>
  <course>0.0</course>
  <speed>0.0</speed>
  <fix>3d</fix>
</trkpt>
<trkpt lat="33.8103131" lon="-118.3938671">
  <ele>-0.113</ele>
  <time>2026-09-01T01:16:39Z</time>
  <course>186.68</course>
  <speed>0.022360679774997897</speed>
  <fix>3d</fix>
</trkpt>
<trkpt lat="33.810313" lon="-118.393867">
  <ele>-0.12</ele>
  <time>2026-09-01T01:16:39Z</time>
  <course>0.0</course>
  <speed>0.0</speed>
  <fix>3d</fix>
</trkpt>
<trkpt lat="33.8103131" lon="-118.3938671">
  <ele>-0.111</ele>
  <time>2026-09-01T01:16:39Z</time>
  <course>186.68</course>
  <speed>0.022360679774997897</speed>
  <fix>3d</fix>
</trkpt>
<trkpt lat="33.810313" lon="-118.393867">
  <ele>-0.12</ele>
  <time>2026-09-01T01:16:39Z</time>
  <course>0.0</course>
  <speed>0.0</speed>
  <fix>3d</fix>
</trkpt>
<trkpt lat="33.8103131" lon="-118.3938671">
  <ele>-0.11</ele>
  <time>2026-09-01T01:16:39Z</time>
  <course>186.68</course>
  <speed>0.022360679774997897</speed>
  <fix>3d</fix>
</trkpt>
<trkpt lat="33.810313" lon="-118.393867">
  <ele>-0.12</ele>
  <time>2026-09-01T01:16:39Z</time>
  <course>0.0</course>
  <speed>0.0</speed>
  <fix>3d</fix>
</trkpt>
<trkpt lat="33.8103131" lon="-118.3938671">
  <ele>-0.109</ele>
  <time>2026-09-01T01:16:39Z</time>
  <course>186.68</course>
  <speed>0.022360679774997897</speed>
  <fix>3d</fix>
</trkpt>
<trkpt lat="33.810313" lon="-118.393867">
  <ele>-0.12</ele>
  <time>2026-09-01T01:16:39Z</time>
  <course>0.0</course>
  <speed>0.0</speed>
  <fix>3d</fix>
</trkpt>
<trkpt lat="33.8103131" lon="-118.3938671">
  <ele>-0.109</ele>
  <time>2026-09-01T01:16:39Z</time>
  <course>186.67</course>
  <speed>0.022360679774997897</speed>
  <fix>3d</fix>
</trkpt>
<trkpt lat="33.810313" lon="-118.393867">
  <ele>-0.12</ele>
  <time>2026-09-01T01:16:39Z</time>
  <course>0.0</course>
  <speed>0.0</speed>
  <fix>3d</fix>
</trkpt>
<trkpt lat="33.8103131" lon="-118.3938671">
  <ele>-0.109</ele>
  <time>2026-09-01T01:16:39Z</time>
  <course>186.67</course>
  <speed>0.022360679774997897</speed>
  <fix>3d</fix>
</trkpt>
<trkpt lat="33.810313" lon="-118.393867">
  <ele>-0.12</ele>
  <time>2026-09-01T01:16:39Z</time>
  <course>0.0</course>
  <speed>0.0</speed>
  <fix>3d</fix>
</trkpt>
<trkpt lat="33.8103131" lon="-118.3938671">
  <ele>-0.109</ele>
  <time>2026-09-01T01:16:40Z</time>
  <course>186.67</course>
  <speed>0.022360679774997897</speed>
  <fix>3d</fix>
</trkpt>
<trkpt lat="33.810313" lon="-118.393867">
  <ele>-0.12</ele>
  <time>2026-09-01T01:16:40Z</time>
  <course>0.0</course>
  <speed>0.0</speed>
  <fix>3d</fix>
</trkpt>
<trkpt lat="33.8103131" lon="-118.3938671">
  <ele>-0.11</ele>
  <time>2026-09-01T01:16:40Z</time>
  <course>186.67</course>
  <speed>0.022360679774997897</speed>
  <fix>3d</fix>
</trkpt>
<trkpt lat="33.810313" lon="-118.393867">
  <ele>-0.12</ele>
  <time>2026-09-01T01:16:40Z</time>
  <course>0.0</course>
  <speed>0.0</speed>
  <fix>3d</fix>
</trkpt>
<trkpt lat="33.8103131" lon="-118.3938671">
  <ele>-0.111</ele>
  <time>2026-09-01T01:16:40Z</time>
  <course>186.66</course>
  <speed>0.022360679774997897</speed>
  <fix>3d</fix>
</trkpt>
<trkpt lat="33.810313" lon="-118.393867">
  <ele>-0.12</ele>
  <time>2026-09-01T01:16:40Z</time>
  <course>0.0</course>
  <speed>0.0</speed>
  <fix>3d</fix>
</trkpt>
<trkpt lat="33.8103131" lon="-118.3938671">
  <ele>-0.112</ele>
  <time>2026-09-01T01:16:40Z</time>
  <course>186.66</course>
  <speed>0.022360679774997897</speed>
  <fix>3d</fix>
</trkpt>
<trkpt lat="33.810313" lon="-118.393867">
  <ele>-0.12</ele>
  <time>2026-09-01T01:16:40Z</time>
  <course>0.0</course>
  <speed>0.0</speed>
  <fix>3d</fix>
</trkpt>
<trkpt lat="33.8103131" lon="-118.3938671">
  <ele>-0.112</ele>
  <time>2026-09-01T01:16:40Z</time>
  <course>186.66</course>
  <speed>0.022360679774997897</speed>
  <fix>3d</fix>
</trkpt>
<trkpt lat="33.810313" lon="-118.393867">
  <ele>-0.12</ele>
  <time>2026-09-01T01:16:40Z</time>
  <course>0.0</course>
  <speed>0.0</speed>
  <fix>3d</fix>
</trkpt>
<trkpt lat="33.8103131" lon="-118.3938671">
  <ele>-0.11</ele>
  <time>2026-09-01T01:16:40Z</time>
  <course>186.66</course>
  <speed>0.022360679774997897</speed>
  <fix>3d</fix>
</trkpt>
<trkpt lat="33.810313" lon="-118.393867">
  <ele>-0.12</ele>
  <time>2026-09-01T01:16:40Z</time>
  <course>0.0</course>
  <speed>0.0</speed>
  <fix>3d</fix>
</trkpt>
<trkpt lat="33.8103131" lon="-118.3938671">
  <ele>-0.108</ele>
  <time>2026-09-01T01:16:40Z</time>
  <course>186.66</course>
  <speed>0.022360679774997897</speed>
  <fix>3d</fix>
</trkpt>
<trkpt lat="33.810313" lon="-118.393867">
  <ele>-0.12</ele>
  <time>2026-09-01T01:16:40Z</time>
  <course>0.0</course>
  <speed>0.0</speed>
  <fix>3d</fix>
</trkpt>
<trkpt lat="33.8103131" lon="-118.3938671">
  <ele>-0.107</ele>
  <time>2026-09-01T01:16:40Z</time>
  <course>186.65</course>
  <speed>0.022360679774997897</speed>
  <fix>3d</fix>
</trkpt>
<trkpt lat="33.810313" lon="-118.393867">
  <ele>-0.12</ele>
  <time>2026-09-01T01:16:40Z</time>
  <course>0.0</course>
  <speed>0.0</speed>
  <fix>3d</fix>
</trkpt>
<trkpt lat="33.8103131" lon="-118.3938671">
  <ele>-0.107</ele>
  <time>2026-09-01T01:16:40Z</time>
  <course>186.65</course>
  <speed>0.022360679774997897</speed>
  <fix>3d</fix>
</trkpt>
<trkpt lat="33.810313" lon="-118.393867">
  <ele>-0.12</ele>
  <time>2026-09-01T01:16:40Z</time>
  <course>0.0</course>
  <speed>0.0</speed>
  <fix>3d</fix>
</trkpt>
<trkpt lat="33.8103131" lon="-118.3938671">
  <ele>-0.108</ele>
  <time>2026-09-01T01:16:40Z</time>
  <course>186.65</course>
  <speed>0.022360679774997897</speed>
  <fix>3d</fix>
</trkpt>
<trkpt lat="33.810313" lon="-118.393867">
  <ele>-0.12</ele>
  <time>2026-09-01T01:16:40Z</time>
  <course>0.0</course>
  <speed>0.0</speed>
  <fix>3d</fix>
</trkpt>
<trkpt lat="33.8103131" lon="-118.3938671">
  <ele>-0.109</ele>
  <time>2026-09-01T01:16:41Z</time>
  <course>186.65</course>
  <speed>0.022360679774997897</speed>
  <fix>3d</fix>
</trkpt>
<trkpt lat="33.810313" lon="-118.393867">
  <ele>-0.12</ele>
  <time>2026-09-01T01:16:41Z</time>
  <course>0.0</course>
  <speed>0.0</speed>
  <fix>3d</fix>
</trkpt>
<trkpt lat="33.8103131" lon="-118.3938671">
  <ele>-0.11</ele>
  <time>2026-09-01T01:16:41Z</time>
  <course>186.64</course>
  <speed>0.022360679774997897</speed>
  <fix>3d</fix>
</trkpt>
<trkpt lat="33.810313" lon="-118.393867">
  <ele>-0.12</ele>
  <time>2026-09-01T01:16:41Z</time>
  <course>0.0</course>
  <speed>0.0</speed>
  <fix>3d</fix>
</trkpt>
<trkpt lat="33.8103131" lon="-118.3938671">
  <ele>-0.111</ele>
  <time>2026-09-01T01:16:41Z</time>
  <course>186.64</course>
  <speed>0.022360679774997897</speed>
  <fix>3d</fix>
</trkpt>
<trkpt lat="33.810313" lon="-118.393867">
  <ele>-0.12</ele>
  <time>2026-09-01T01:16:41Z</time>
  <course>0.0</course>
  <speed>0.0</speed>
  <fix>3d</fix>
</trkpt>
<trkpt lat="33.8103131" lon="-118.3938671">
  <ele>-0.112</ele>
  <time>2026-09-01T01:16:41Z</time>
  <course>186.64</course>
  <speed>0.022360679774997897</speed>
  <fix>3d</fix>
</trkpt>
<trkpt lat="33.810313" lon="-118.393867">
  <ele>-0.12</ele>
  <time>2026-09-01T01:16:41Z</time>
  <course>0.0</course>
  <speed>0.0</speed>
  <fix>3d</fix>
</trkpt>
<trkpt lat="33.8103131" lon="-118.3938671">
  <ele>-0.112</ele>
  <time>2026-09-01T01:16:41Z</time>
  <course>186.64</course>
  <speed>0.022360679774997897</speed>
  <fix>3d</fix>
</trkpt>
<trkpt lat="33.810313" lon="-118.393867">
  <ele>-0.12</ele>
  <time>2026-09-01T01:16:41Z</time>
  <course>0.0</course>
  <speed>0.0</speed>
  <fix>3d</fix>
</trkpt>
<trkpt lat="33.8103131" lon="-118.3938671">
  <ele>-0.112</ele>
  <time>2026-09-01T01:16:41Z</time>
  <course>186.63</course>
  <speed>0.022360679774997897</speed>
  <fix>3d</fix>
</trkpt>
<trkpt lat="33.810313" lon="-118.393867">
  <ele>-0.12</ele>
  <time>2026-09-01T01:16:41Z</time>
  <course>0.0</course>
  <speed>0.0</speed>
  <fix>3d</fix>
</trkpt>
<trkpt lat="33.8103131" lon="-118.3938671">
  <ele>-0.112</ele>
  <time>2026-09-01T01:16:41Z</time>
  <course>186.63</course>
  <speed>0.022360679774997897</speed>
  <fix>3d</fix>
</trkpt>
<trkpt lat="33.810313" lon="-118.393867">
  <ele>-0.12</ele>
  <time>2026-09-01T01:16:41Z</time>
  <course>0.0</course>
  <speed>0.0</speed>
  <fix>3d</fix>
</trkpt>
<trkpt lat="33.8103131" lon="-118.3938671">
  <ele>-0.112</ele>
  <time>2026-09-01T01:16:41Z</time>
  <course>186.63</course>
  <speed>0.022360679774997897</speed>
  <fix>3d</fix>
</trkpt>
<trkpt lat="33.810313" lon="-118.393867">
  <ele>-0.12</ele>
  <time>2026-09-01T01:16:41Z</time>
  <course>0.0</course>
  <speed>0.0</speed>
  <fix>3d</fix>
</trkpt>
<trkpt lat="33.8103131" lon="-118.3938671">
  <ele>-0.112</ele>
  <time>2026-09-01T01:16:41Z</time>
  <course>186.63</course>
  <speed>0.022360679774997897</speed>
  <fix>3d</fix>
</trkpt>
<trkpt lat="33.810313" lon="-118.393867">
  <ele>-0.12</ele>
  <time>2026-09-01T01:16:41Z</time>
  <course>0.0</course>
  <speed>0.0</speed>
  <fix>3d</fix>
</trkpt>
<trkpt lat="33.8103131" lon="-118.3938671">
  <ele>-0.113</ele>
  <time>2026-09-01T01:16:41Z</time>
  <course>186.62</course>
  <speed>0.022360679774997897</speed>
  <fix>3d</fix>
</trkpt>
<trkpt lat="33.810313" lon="-118.393867">
  <ele>-0.12</ele>
  <time>2026-09-01T01:16:41Z</time>
  <course>0.0</course>
  <speed>0.0</speed>
  <fix>3d</fix>
</trkpt>
<trkpt lat="33.8103131" lon="-118.3938671">
  <ele>-0.115</ele>
  <time>2026-09-01T01:16:42Z</time>
  <course>186.62</course>
  <speed>0.022360679774997897</speed>
  <fix>3d</fix>
</trkpt>
<trkpt lat="33.810313" lon="-118.393867">
  <ele>-0.12</ele>
  <time>2026-09-01T01:16:42Z</time>
  <course>0.0</course>
  <speed>0.0</speed>
  <fix>3d</fix>
</trkpt>
<trkpt lat="33.8103131" lon="-118.3938671">
  <ele>-0.115</ele>
  <time>2026-09-01T01:16:42Z</time>
  <course>186.62</course>
  <speed>0.022360679774997897</speed>
  <fix>3d</fix>
</trkpt>
<trkpt lat="33.810313" lon="-118.393867">
  <ele>-0.12</ele>
  <time>2026-09-01T01:16:42Z</time>
  <course>0.0</course>
  <speed>0.0</speed>
  <fix>3d</fix>
</trkpt>
<trkpt lat="33.8103131" lon="-118.3938671">
  <ele>-0.116</ele>
  <time>2026-09-01T01:16:42Z</time>
  <course>186.62</course>
  <speed>0.022360679774997897</speed>
  <fix>3d</fix>
</trkpt>
<trkpt lat="33.810313" lon="-118.393867">
  <ele>-0.12</ele>
  <time>2026-09-01T01:16:42Z</time>
  <course>0.0</course>
  <speed>0.0</speed>
  <fix>3d</fix>
</trkpt>
<trkpt lat="33.8103131" lon="-118.3938671">
  <ele>-0.117</ele>
  <time>2026-09-01T01:16:42Z</time>
  <course>186.62</course>
  <speed>0.022360679774997897</speed>
  <fix>3d</fix>
</trkpt>
<trkpt lat="33.810313" lon="-118.393867">
  <ele>-0.12</ele>
  <time>2026-09-01T01:16:42Z</time>
  <course>0.0</course>
  <speed>0.0</speed>
  <fix>3d</fix>
</trkpt>
<trkpt lat="33.8103131" lon="-118.3938671">
  <ele>-0.117</ele>
  <time>2026-09-01T01:16:42Z</time>
  <course>186.61</course>
  <speed>0.022360679774997897</speed>
  <fix>3d</fix>
</trkpt>
<trkpt lat="33.810313" lon="-118.393867">
  <ele>-0.12</ele>
  <time>2026-09-01T01:16:42Z</time>
  <course>0.0</course>
  <speed>0.0</speed>
  <fix>3d</fix>
</trkpt>
<trkpt lat="33.8103131" lon="-118.3938671">
  <ele>-0.116</ele>
  <time>2026-09-01T01:16:42Z</time>
  <course>186.61</course>
  <speed>0.022360679774997897</speed>
  <fix>3d</fix>
</trkpt>
<trkpt lat="33.810313" lon="-118.393867">
  <ele>-0.12</ele>
  <time>2026-09-01T01:16:42Z</time>
  <course>0.0</course>
  <speed>0.0</speed>
  <fix>3d</fix>
</trkpt>
<trkpt lat="33.8103131" lon="-118.3938671">
  <ele>-0.114</ele>
  <time>2026-09-01T01:16:42Z</time>
  <course>186.61</course>
  <speed>0.022360679774997897</speed>
  <fix>3d</fix>
</trkpt>
<trkpt lat="33.810313" lon="-118.393867">
  <ele>-0.12</ele>
  <time>2026-09-01T01:16:42Z</time>
  <course>0.0</course>
  <speed>0.0</speed>
  <fix>3d</fix>
</trkpt>
<trkpt lat="33.8103131" lon="-118.3938671">
  <ele>-0.114</ele>
  <time>2026-09-01T01:16:42Z</time>
  <course>186.61</course>
  <speed>0.022360679774997897</speed>
  <fix>3d</fix>
</trkpt>
<trkpt lat="33.810313" lon="-118.393867">
  <ele>-0.12</ele>
  <time>2026-09-01T01:16:42Z</time>
  <course>0.0</course>
  <speed>0.0</speed>
  <fix>3d</fix>
</trkpt>
<trkpt lat="33.8103131" lon="-118.3938671">
  <ele>-0.114</ele>
  <time>2026-09-01T01:16:42Z</time>
  <course>186.61</course>
  <speed>0.022360679774997897</speed>
  <fix>3d</fix>
</trkpt>
<trkpt lat="33.810313" lon="-118.393867">
  <ele>-0.12</ele>
  <time>2026-09-01T01:16:42Z</time>
  <course>0.0</course>
  <speed>0.0</speed>
  <fix>3d</fix>
</trkpt>
<trkpt lat="33.8103131" lon="-118.3938671">
  <ele>-0.113</ele>
  <time>2026-09-01T01:16:42Z</time>
  <course>186.6</course>
  <speed>0.022360679774997897</speed>
  <fix>3d</fix>
</trkpt>
<trkpt lat="33.810313" lon="-118.393867">
  <ele>-0.12</ele>
  <time>2026-09-01T01:16:42Z</time>
  <course>0.0</course>
  <speed>0.0</speed>
  <fix>3d</fix>
</trkpt>
<trkpt lat="33.8103131" lon="-118.3938671">
  <ele>-0.114</ele>
  <time>2026-09-01T01:16:43Z</time>
  <course>186.6</course>
  <speed>0.022360679774997897</speed>
  <fix>3d</fix>
</trkpt>
<trkpt lat="33.810313" lon="-118.393867">
  <ele>-0.12</ele>
  <time>2026-09-01T01:16:43Z</time>
  <course>0.0</course>
  <speed>0.0</speed>
  <fix>3d</fix>
</trkpt>
<trkpt lat="33.8103131" lon="-118.3938671">
  <ele>-0.115</ele>
  <time>2026-09-01T01:16:43Z</time>
  <course>186.6</course>
  <speed>0.022360679774997897</speed>
  <fix>3d</fix>
</trkpt>
<trkpt lat="33.810313" lon="-118.393867">
  <ele>-0.12</ele>
  <time>2026-09-01T01:16:43Z</time>
  <course>0.0</course>
  <speed>0.0</speed>
  <fix>3d</fix>
</trkpt>
<trkpt lat="33.8103131" lon="-118.3938671">
  <ele>-0.115</ele>
  <time>2026-09-01T01:16:43Z</time>
  <course>186.6</course>
  <speed>0.022360679774997897</speed>
  <fix>3d</fix>
</trkpt>
<trkpt lat="33.810313" lon="-118.393867">
  <ele>-0.12</ele>
  <time>2026-09-01T01:16:43Z</time>
  <course>0.0</course>
  <speed>0.0</speed>
  <fix>3d</fix>
</trkpt>
<trkpt lat="33.8103131" lon="-118.3938671">
  <ele>-0.115</ele>
  <time>2026-09-01T01:16:43Z</time>
  <course>186.59</course>
  <speed>0.022360679774997897</speed>
  <fix>3d</fix>
</trkpt>
<trkpt lat="33.810313" lon="-118.393867">
  <ele>-0.12</ele>
  <time>2026-09-01T01:16:43Z</time>
  <course>0.0</course>
  <speed>0.0</speed>
  <fix>3d</fix>
</trkpt>
<trkpt lat="33.8103131" lon="-118.3938671">
  <ele>-0.115</ele>
  <time>2026-09-01T01:16:43Z</time>
  <course>186.59</course>
  <speed>0.022360679774997897</speed>
  <fix>3d</fix>
</trkpt>
<trkpt lat="33.810313" lon="-118.393867">
  <ele>-0.12</ele>
  <time>2026-09-01T01:16:43Z</time>
  <course>0.0</course>
  <speed>0.0</speed>
  <fix>3d</fix>
</trkpt>
<trkpt lat="33.8103131" lon="-118.3938671">
  <ele>-0.115</ele>
  <time>2026-09-01T01:16:43Z</time>
  <course>186.59</course>
  <speed>0.022360679774997897</speed>
  <fix>3d</fix>
</trkpt>
<trkpt lat="33.810313" lon="-118.393867">
  <ele>-0.12</ele>
  <time>2026-09-01T01:16:43Z</time>
  <course>0.0</course>
  <speed>0.0</speed>
  <fix>3d</fix>
</trkpt>
<trkpt lat="33.8103131" lon="-118.3938671">
  <ele>-0.114</ele>
  <time>2026-09-01T01:16:43Z</time>
  <course>186.59</course>
  <speed>0.022360679774997897</speed>
  <fix>3d</fix>
</trkpt>
<trkpt lat="33.810313" lon="-118.393867">
  <ele>-0.12</ele>
  <time>2026-09-01T01:16:43Z</time>
  <course>0.0</course>
  <speed>0.0</speed>
  <fix>3d</fix>
</trkpt>
<trkpt lat="33.8103131" lon="-118.3938671">
  <ele>-0.113</ele>
  <time>2026-09-01T01:16:43Z</time>
  <course>186.59</course>
  <speed>0.022360679774997897</speed>
  <fix>3d</fix>
</trkpt>
<trkpt lat="33.810313" lon="-118.393867">
  <ele>-0.12</ele>
  <time>2026-09-01T01:16:43Z</time>
  <course>0.0</course>
  <speed>0.0</speed>
  <fix>3d</fix>
</trkpt>
<trkpt lat="33.8103131" lon="-118.3938671">
  <ele>-0.113</ele>
  <time>2026-09-01T01:16:43Z</time>
  <course>186.58</course>
  <speed>0.022360679774997897</speed>
  <fix>3d</fix>
</trkpt>
<trkpt lat="33.810313" lon="-118.393867">
  <ele>-0.12</ele>
  <time>2026-09-01T01:16:43Z</time>
  <course>0.0</course>
  <speed>0.0</speed>
  <fix>3d</fix>
</trkpt>
<trkpt lat="33.8103131" lon="-118.3938671">
  <ele>-0.112</ele>
  <time>2026-09-01T01:16:43Z</time>
  <course>186.58</course>
  <speed>0.022360679774997897</speed>
  <fix>3d</fix>
</trkpt>
<trkpt lat="33.810313" lon="-118.393867">
  <ele>-0.12</ele>
  <time>2026-09-01T01:16:43Z</time>
  <course>0.0</course>
  <speed>0.0</speed>
  <fix>3d</fix>
</trkpt>
<trkpt lat="33.8103131" lon="-118.3938671">
  <ele>-0.113</ele>
  <time>2026-09-01T01:16:43Z</time>
  <course>186.58</course>
  <speed>0.022360679774997897</speed>
  <fix>3d</fix>
</trkpt>
<trkpt lat="33.810313" lon="-118.393867">
  <ele>-0.12</ele>
  <time>2026-09-01T01:16:43Z</time>
  <course>0.0</course>
  <speed>0.0</speed>
  <fix>3d</fix>
</trkpt>
<trkpt lat="33.8103131" lon="-118.3938671">
  <ele>-0.113</ele>
  <time>2026-09-01T01:16:44Z</time>
  <course>186.58</course>
  <speed>0.022360679774997897</speed>
  <fix>3d</fix>
</trkpt>
<trkpt lat="33.810313" lon="-118.393867">
  <ele>-0.12</ele>
  <time>2026-09-01T01:16:44Z</time>
  <course>0.0</course>
  <speed>0.0</speed>
  <fix>3d</fix>
</trkpt>
<trkpt lat="33.8103131" lon="-118.3938671">
  <ele>-0.115</ele>
  <time>2026-09-01T01:16:44Z</time>
  <course>186.58</course>
  <speed>0.022360679774997897</speed>
  <fix>3d</fix>
</trkpt>
<trkpt lat="33.810313" lon="-118.393867">
  <ele>-0.12</ele>
  <time>2026-09-01T01:16:44Z</time>
  <course>0.0</course>
  <speed>0.0</speed>
  <fix>3d</fix>
</trkpt>
<trkpt lat="33.8103131" lon="-118.3938671">
  <ele>-0.115</ele>
  <time>2026-09-01T01:16:44Z</time>
  <course>186.58</course>
  <speed>0.022360679774997897</speed>
  <fix>3d</fix>
</trkpt>
<trkpt lat="33.810313" lon="-118.393867">
  <ele>-0.12</ele>
  <time>2026-09-01T01:16:44Z</time>
  <course>0.0</course>
  <speed>0.0</speed>
  <fix>3d</fix>
</trkpt>
<trkpt lat="33.8103131" lon="-118.3938671">
  <ele>-0.116</ele>
  <time>2026-09-01T01:16:44Z</time>
  <course>186.57</course>
  <speed>0.022360679774997897</speed>
  <fix>3d</fix>
</trkpt>
<trkpt lat="33.810313" lon="-118.393867">
  <ele>-0.12</ele>
  <time>2026-09-01T01:16:44Z</time>
  <course>0.0</course>
  <speed>0.0</speed>
  <fix>3d</fix>
</trkpt>
<trkpt lat="33.8103131" lon="-118.3938671">
  <ele>-0.116</ele>
  <time>2026-09-01T01:16:44Z</time>
  <course>186.57</course>
  <speed>0.022360679774997897</speed>
  <fix>3d</fix>
</trkpt>
<trkpt lat="33.810313" lon="-118.393867">
  <ele>-0.12</ele>
  <time>2026-09-01T01:16:44Z</time>
  <course>0.0</course>
  <speed>0.0</speed>
  <fix>3d</fix>
</trkpt>
<trkpt lat="33.8103131" lon="-118.3938671">
  <ele>-0.117</ele>
  <time>2026-09-01T01:16:44Z</time>
  <course>186.57</course>
  <speed>0.022360679774997897</speed>
  <fix>3d</fix>
</trkpt>
<trkpt lat="33.810313" lon="-118.393867">
  <ele>-0.12</ele>
  <time>2026-09-01T01:16:44Z</time>
  <course>0.0</course>
  <speed>0.0</speed>
  <fix>3d</fix>
</trkpt>
<trkpt lat="33.8103131" lon="-118.3938671">
  <ele>-0.117</ele>
  <time>2026-09-01T01:16:44Z</time>
  <course>186.57</course>
  <speed>0.022360679774997897</speed>
  <fix>3d</fix>
</trkpt>
<trkpt lat="33.810313" lon="-118.393867">
  <ele>-0.12</ele>
  <time>2026-09-01T01:16:44Z</time>
  <course>0.0</course>
  <speed>0.0</speed>
  <fix>3d</fix>
</trkpt>
<trkpt lat="33.8103131" lon="-118.3938671">
  <ele>-0.116</ele>
  <time>2026-09-01T01:16:44Z</time>
  <course>186.57</course>
  <speed>0.022360679774997897</speed>
  <fix>3d</fix>
</trkpt>
<trkpt lat="33.810313" lon="-118.393867">
  <ele>-0.12</ele>
  <time>2026-09-01T01:16:44Z</time>
  <course>0.0</course>
  <speed>0.0</speed>
  <fix>3d</fix>
</trkpt>
<trkpt lat="33.8103131" lon="-118.3938671">
  <ele>-0.115</ele>
  <time>2026-09-01T01:16:44Z</time>
  <course>186.56</course>
  <speed>0.022360679774997897</speed>
  <fix>3d</fix>
</trkpt>
<trkpt lat="33.810313" lon="-118.393867">
  <ele>-0.12</ele>
  <time>2026-09-01T01:16:44Z</time>
  <course>0.0</course>
  <speed>0.0</speed>
  <fix>3d</fix>
</trkpt>
<trkpt lat="33.8103131" lon="-118.3938671">
  <ele>-0.113</ele>
  <time>2026-09-01T01:16:44Z</time>
  <course>186.56</course>
  <speed>0.022360679774997897</speed>
  <fix>3d</fix>
</trkpt>
<trkpt lat="33.810313" lon="-118.393867">
  <ele>-0.12</ele>
  <time>2026-09-01T01:16:44Z</time>
  <course>0.0</course>
  <speed>0.0</speed>
  <fix>3d</fix>
</trkpt>
<trkpt lat="33.8103131" lon="-118.3938671">
  <ele>-0.113</ele>
  <time>2026-09-01T01:16:45Z</time>
  <course>186.56</course>
  <speed>0.022360679774997897</speed>
  <fix>3d</fix>
</trkpt>
<trkpt lat="33.810313" lon="-118.393867">
  <ele>-0.12</ele>
  <time>2026-09-01T01:16:45Z</time>
  <course>0.0</course>
  <speed>0.0</speed>
  <fix>3d</fix>
</trkpt>
<trkpt lat="33.8103131" lon="-118.3938671">
  <ele>-0.113</ele>
  <time>2026-09-01T01:16:45Z</time>
  <course>186.56</course>
  <speed>0.022360679774997897</speed>
  <fix>3d</fix>
</trkpt>
<trkpt lat="33.810313" lon="-118.393867">
  <ele>-0.12</ele>
  <time>2026-09-01T01:16:45Z</time>
  <course>0.0</course>
  <speed>0.0</speed>
  <fix>3d</fix>
</trkpt>
<trkpt lat="33.8103131" lon="-118.3938671">
  <ele>-0.111</ele>
  <time>2026-09-01T01:16:45Z</time>
  <course>186.56</course>
  <speed>0.022360679774997897</speed>
  <fix>3d</fix>
</trkpt>
<trkpt lat="33.810313" lon="-118.393867">
  <ele>-0.12</ele>
  <time>2026-09-01T01:16:45Z</time>
  <course>0.0</course>
  <speed>0.0</speed>
  <fix>3d</fix>
</trkpt>
<trkpt lat="33.8103131" lon="-118.3938671">
  <ele>-0.109</ele>
  <time>2026-09-01T01:16:45Z</time>
  <course>186.55</course>
  <speed>0.022360679774997897</speed>
  <fix>3d</fix>
</trkpt>
<trkpt lat="33.810313" lon="-118.393867">
  <ele>-0.12</ele>
  <time>2026-09-01T01:16:45Z</time>
  <course>0.0</course>
  <speed>0.0</speed>
  <fix>3d</fix>
</trkpt>
<trkpt lat="33.8103131" lon="-118.3938671">
  <ele>-0.107</ele>
  <time>2026-09-01T01:16:45Z</time>
  <course>186.55</course>
  <speed>0.022360679774997897</speed>
  <fix>3d</fix>
</trkpt>
<trkpt lat="33.810313" lon="-118.393867">
  <ele>-0.12</ele>
  <time>2026-09-01T01:16:45Z</time>
  <course>0.0</course>
  <speed>0.0</speed>
  <fix>3d</fix>
</trkpt>
<trkpt lat="33.8103131" lon="-118.3938671">
  <ele>-0.105</ele>
  <time>2026-09-01T01:16:45Z</time>
  <course>186.55</course>
  <speed>0.022360679774997897</speed>
  <fix>3d</fix>
</trkpt>
<trkpt lat="33.810313" lon="-118.393867">
  <ele>-0.12</ele>
  <time>2026-09-01T01:16:45Z</time>
  <course>0.0</course>
  <speed>0.0</speed>
  <fix>3d</fix>
</trkpt>
<trkpt lat="33.8103131" lon="-118.3938671">
  <ele>-0.105</ele>
  <time>2026-09-01T01:16:45Z</time>
  <course>186.55</course>
  <speed>0.022360679774997897</speed>
  <fix>3d</fix>
</trkpt>
<trkpt lat="33.810313" lon="-118.393867">
  <ele>-0.12</ele>
  <time>2026-09-01T01:16:45Z</time>
  <course>0.0</course>
  <speed>0.0</speed>
  <fix>3d</fix>
</trkpt>
<trkpt lat="33.8103131" lon="-118.3938671">
  <ele>-0.104</ele>
  <time>2026-09-01T01:16:45Z</time>
  <course>186.55</course>
  <speed>0.022360679774997897</speed>
  <fix>3d</fix>
</trkpt>
<trkpt lat="33.810313" lon="-118.393867">
  <ele>-0.12</ele>
  <time>2026-09-01T01:16:45Z</time>
  <course>0.0</course>
  <speed>0.0</speed>
  <fix>3d</fix>
</trkpt>
<trkpt lat="33.8103131" lon="-118.3938671">
  <ele>-0.104</ele>
  <time>2026-09-01T01:16:45Z</time>
  <course>186.55</course>
  <speed>0.022360679774997897</speed>
  <fix>3d</fix>
</trkpt>
<trkpt lat="33.810313" lon="-118.393867">
  <ele>-0.12</ele>
  <time>2026-09-01T01:16:45Z</time>
  <course>0.0</course>
  <speed>0.0</speed>
  <fix>3d</fix>
</trkpt>
<trkpt lat="33.8103131" lon="-118.3938671">
  <ele>-0.105</ele>
  <time>2026-09-01T01:16:45Z</time>
  <course>186.54</course>
  <speed>0.022360679774997897</speed>
  <fix>3d</fix>
</trkpt>
<trkpt lat="33.810313" lon="-118.393867">
  <ele>-0.12</ele>
  <time>2026-09-01T01:16:45Z</time>
  <course>0.0</course>
  <speed>0.0</speed>
  <fix>3d</fix>
</trkpt>
<trkpt lat="33.8103131" lon="-118.3938671">
  <ele>-0.107</ele>
  <time>2026-09-01T01:16:46Z</time>
  <course>186.54</course>
  <speed>0.022360679774997897</speed>
  <fix>3d</fix>
</trkpt>
<trkpt lat="33.810313" lon="-118.393867">
  <ele>-0.12</ele>
  <time>2026-09-01T01:16:46Z</time>
  <course>0.0</course>
  <speed>0.0</speed>
  <fix>3d</fix>
</trkpt>
<trkpt lat="33.8103131" lon="-118.3938671">
  <ele>-0.107</ele>
  <time>2026-09-01T01:16:46Z</time>
  <course>186.54</course>
  <speed>0.022360679774997897</speed>
  <fix>3d</fix>
</trkpt>
<trkpt lat="33.810313" lon="-118.393867">
  <ele>-0.12</ele>
  <time>2026-09-01T01:16:46Z</time>
  <course>0.0</course>
  <speed>0.0</speed>
  <fix>3d</fix>
</trkpt>
<trkpt lat="33.8103131" lon="-118.3938671">
  <ele>-0.108</ele>
  <time>2026-09-01T01:16:46Z</time>
  <course>186.54</course>
  <speed>0.022360679774997897</speed>
  <fix>3d</fix>
</trkpt>
<trkpt lat="33.810313" lon="-118.393867">
  <ele>-0.12</ele>
  <time>2026-09-01T01:16:46Z</time>
  <course>0.0</course>
  <speed>0.0</speed>
  <fix>3d</fix>
</trkpt>
<trkpt lat="33.8103131" lon="-118.3938671">
  <ele>-0.109</ele>
  <time>2026-09-01T01:16:46Z</time>
  <course>186.54</course>
  <speed>0.022360679774997897</speed>
  <fix>3d</fix>
</trkpt>
<trkpt lat="33.810313" lon="-118.393867">
  <ele>-0.12</ele>
  <time>2026-09-01T01:16:46Z</time>
  <course>0.0</course>
  <speed>0.0</speed>
  <fix>3d</fix>
</trkpt>
<trkpt lat="33.8103131" lon="-118.3938671">
  <ele>-0.11</ele>
  <time>2026-09-01T01:16:46Z</time>
  <course>186.53</course>
  <speed>0.022360679774997897</speed>
  <fix>3d</fix>
</trkpt>
<trkpt lat="33.810313" lon="-118.393867">
  <ele>-0.12</ele>
  <time>2026-09-01T01:16:46Z</time>
  <course>0.0</course>
  <speed>0.0</speed>
  <fix>3d</fix>
</trkpt>
<trkpt lat="33.8103131" lon="-118.3938671">
  <ele>-0.11</ele>
  <time>2026-09-01T01:16:46Z</time>
  <course>186.53</course>
  <speed>0.022360679774997897</speed>
  <fix>3d</fix>
</trkpt>
<trkpt lat="33.810313" lon="-118.393867">
  <ele>-0.12</ele>
  <time>2026-09-01T01:16:46Z</time>
  <course>0.0</course>
  <speed>0.0</speed>
  <fix>3d</fix>
</trkpt>
<trkpt lat="33.8103131" lon="-118.3938671">
  <ele>-0.109</ele>
  <time>2026-09-01T01:16:46Z</time>
  <course>186.53</course>
  <speed>0.022360679774997897</speed>
  <fix>3d</fix>
</trkpt>
<trkpt lat="33.810313" lon="-118.393867">
  <ele>-0.12</ele>
  <time>2026-09-01T01:16:46Z</time>
  <course>0.0</course>
  <speed>0.0</speed>
  <fix>3d</fix>
</trkpt>
<trkpt lat="33.8103131" lon="-118.3938671">
  <ele>-0.109</ele>
  <time>2026-09-01T01:16:46Z</time>
  <course>186.53</course>
  <speed>0.022360679774997897</speed>
  <fix>3d</fix>
</trkpt>
<trkpt lat="33.810313" lon="-118.393867">
  <ele>-0.12</ele>
  <time>2026-09-01T01:16:46Z</time>
  <course>0.0</course>
  <speed>0.0</speed>
  <fix>3d</fix>
</trkpt>
<trkpt lat="33.8103131" lon="-118.3938671">
  <ele>-0.11</ele>
  <time>2026-09-01T01:16:46Z</time>
  <course>186.53</course>
  <speed>0.022360679774997897</speed>
  <fix>3d</fix>
</trkpt>
<trkpt lat="33.810313" lon="-118.393867">
  <ele>-0.12</ele>
  <time>2026-09-01T01:16:46Z</time>
  <course>0.0</course>
  <speed>0.0</speed>
  <fix>3d</fix>
</trkpt>
<trkpt lat="33.8103131" lon="-118.3938671">
  <ele>-0.112</ele>
  <time>2026-09-01T01:16:46Z</time>
  <course>186.53</course>
  <speed>0.022360679774997897</speed>
  <fix>3d</fix>
</trkpt>
<trkpt lat="33.810313" lon="-118.393867">
  <ele>-0.12</ele>
  <time>2026-09-01T01:16:46Z</time>
  <course>0.0</course>
  <speed>0.0</speed>
  <fix>3d</fix>
</trkpt>
<trkpt lat="33.8103131" lon="-118.3938671">
  <ele>-0.113</ele>
  <time>2026-09-01T01:16:47Z</time>
  <course>186.52</course>
  <speed>0.022360679774997897</speed>
  <fix>3d</fix>
</trkpt>
<trkpt lat="33.810313" lon="-118.393867">
  <ele>-0.12</ele>
  <time>2026-09-01T01:16:47Z</time>
  <course>0.0</course>
  <speed>0.0</speed>
  <fix>3d</fix>
</trkpt>
<trkpt lat="33.8103131" lon="-118.3938671">
  <ele>-0.114</ele>
  <time>2026-09-01T01:16:47Z</time>
  <course>186.52</course>
  <speed>0.022360679774997897</speed>
  <fix>3d</fix>
</trkpt>
<trkpt lat="33.810313" lon="-118.393867">
  <ele>-0.12</ele>
  <time>2026-09-01T01:16:47Z</time>
  <course>0.0</course>
  <speed>0.0</speed>
  <fix>3d</fix>
</trkpt>
<trkpt lat="33.8103131" lon="-118.3938671">
  <ele>-0.116</ele>
  <time>2026-09-01T01:16:47Z</time>
  <course>186.52</course>
  <speed>0.022360679774997897</speed>
  <fix>3d</fix>
</trkpt>
<trkpt lat="33.810313" lon="-118.393867">
  <ele>-0.12</ele>
  <time>2026-09-01T01:16:47Z</time>
  <course>0.0</course>
  <speed>0.0</speed>
  <fix>3d</fix>
</trkpt>
<trkpt lat="33.8103131" lon="-118.3938671">
  <ele>-0.118</ele>
  <time>2026-09-01T01:16:47Z</time>
  <course>186.52</course>
  <speed>0.022360679774997897</speed>
  <fix>3d</fix>
</trkpt>
<trkpt lat="33.810313" lon="-118.393867">
  <ele>-0.12</ele>
  <time>2026-09-01T01:16:47Z</time>
  <course>0.0</course>
  <speed>0.0</speed>
  <fix>3d</fix>
</trkpt>
<trkpt lat="33.8103131" lon="-118.3938671">
  <ele>-0.119</ele>
  <time>2026-09-01T01:16:47Z</time>
  <course>186.52</course>
  <speed>0.022360679774997897</speed>
  <fix>3d</fix>
</trkpt>
<trkpt lat="33.810313" lon="-118.393867">
  <ele>-0.12</ele>
  <time>2026-09-01T01:16:47Z</time>
  <course>0.0</course>
  <speed>0.0</speed>
  <fix>3d</fix>
</trkpt>
<trkpt lat="33.8103131" lon="-118.3938671">
  <ele>-0.12</ele>
  <time>2026-09-01T01:16:47Z</time>
  <course>186.51</course>
  <speed>0.022360679774997897</speed>
  <fix>3d</fix>
</trkpt>
<trkpt lat="33.810313" lon="-118.393867">
  <ele>-0.12</ele>
  <time>2026-09-01T01:16:47Z</time>
  <course>0.0</course>
  <speed>0.0</speed>
  <fix>3d</fix>
</trkpt>
<trkpt lat="33.8103131" lon="-118.3938671">
  <ele>-0.119</ele>
  <time>2026-09-01T01:16:47Z</time>
  <course>186.51</course>
  <speed>0.022360679774997897</speed>
  <fix>3d</fix>
</trkpt>
<trkpt lat="33.810313" lon="-118.393867">
  <ele>-0.12</ele>
  <time>2026-09-01T01:16:47Z</time>
  <course>0.0</course>
  <speed>0.0</speed>
  <fix>3d</fix>
</trkpt>
<trkpt lat="33.8103131" lon="-118.3938671">
  <ele>-0.118</ele>
  <time>2026-09-01T01:16:47Z</time>
  <course>186.51</course>
  <speed>0.022360679774997897</speed>
  <fix>3d</fix>
</trkpt>
<trkpt lat="33.810313" lon="-118.393867">
  <ele>-0.12</ele>
  <time>2026-09-01T01:16:47Z</time>
  <course>0.0</course>
  <speed>0.0</speed>
  <fix>3d</fix>
</trkpt>
<trkpt lat="33.8103131" lon="-118.3938671">
  <ele>-0.119</ele>
  <time>2026-09-01T01:16:47Z</time>
  <course>186.51</course>
  <speed>0.022360679774997897</speed>
  <fix>3d</fix>
</trkpt>
<trkpt lat="33.810313" lon="-118.393867">
  <ele>-0.12</ele>
  <time>2026-09-01T01:16:47Z</time>
  <course>0.0</course>
  <speed>0.0</speed>
  <fix>3d</fix>
</trkpt>
<trkpt lat="33.8103131" lon="-118.3938671">
  <ele>-0.12</ele>
  <time>2026-09-01T01:16:47Z</time>
  <course>186.51</course>
  <speed>0.022360679774997897</speed>
  <fix>3d</fix>
</trkpt>
<trkpt lat="33.810313" lon="-118.393867">
  <ele>-0.12</ele>
  <time>2026-09-01T01:16:47Z</time>
  <course>0.0</course>
  <speed>0.0</speed>
  <fix>3d</fix>
</trkpt>
<trkpt lat="33.8103131" lon="-118.3938671">
  <ele>-0.121</ele>
  <time>2026-09-01T01:16:47Z</time>
  <course>186.51</course>
  <speed>0.022360679774997897</speed>
  <fix>3d</fix>
</trkpt>
<trkpt lat="33.810313" lon="-118.393867">
  <ele>-0.12</ele>
  <time>2026-09-01T01:16:47Z</time>
  <course>0.0</course>
  <speed>0.0</speed>
  <fix>3d</fix>
</trkpt>
<trkpt lat="33.8103131" lon="-118.3938671">
  <ele>-0.121</ele>
  <time>2026-09-01T01:16:47Z</time>
  <course>186.5</course>
  <speed>0.022360679774997897</speed>
  <fix>3d</fix>
</trkpt>
<trkpt lat="33.810313" lon="-118.393867">
  <ele>-0.12</ele>
  <time>2026-09-01T01:16:47Z</time>
  <course>0.0</course>
  <speed>0.0</speed>
  <fix>3d</fix>
</trkpt>
<trkpt lat="33.8103131" lon="-118.3938671">
  <ele>-0.121</ele>
  <time>2026-09-01T01:16:47Z</time>
  <course>186.5</course>
  <speed>0.022360679774997897</speed>
  <fix>3d</fix>
</trkpt>
<trkpt lat="33.810313" lon="-118.393867">
  <ele>-0.12</ele>
  <time>2026-09-01T01:16:47Z</time>
  <course>0.0</course>
  <speed>0.0</speed>
  <fix>3d</fix>
</trkpt>
<trkpt lat="33.8103131" lon="-118.3938671">
  <ele>-0.121</ele>
  <time>2026-09-01T01:16:48Z</time>
  <course>186.5</course>
  <speed>0.022360679774997897</speed>
  <fix>3d</fix>
</trkpt>
<trkpt lat="33.810313" lon="-118.393867">
  <ele>-0.12</ele>
  <time>2026-09-01T01:16:48Z</time>
  <course>0.0</course>
  <speed>0.0</speed>
  <fix>3d</fix>
</trkpt>
<trkpt lat="33.8103131" lon="-118.3938671">
  <ele>-0.119</ele>
  <time>2026-09-01T01:16:48Z</time>
  <course>186.5</course>
  <speed>0.022360679774997897</speed>
  <fix>3d</fix>
</trkpt>
<trkpt lat="33.810313" lon="-118.393867">
  <ele>-0.12</ele>
  <time>2026-09-01T01:16:48Z</time>
  <course>0.0</course>
  <speed>0.0</speed>
  <fix>3d</fix>
</trkpt>
<trkpt lat="33.8103131" lon="-118.3938671">
  <ele>-0.118</ele>
  <time>2026-09-01T01:16:48Z</time>
  <course>186.5</course>
  <speed>0.022360679774997897</speed>
  <fix>3d</fix>
</trkpt>
<trkpt lat="33.810313" lon="-118.393867">
  <ele>-0.12</ele>
  <time>2026-09-01T01:16:48Z</time>
  <course>0.0</course>
  <speed>0.0</speed>
  <fix>3d</fix>
</trkpt>
<trkpt lat="33.8103131" lon="-118.3938671">
  <ele>-0.116</ele>
  <time>2026-09-01T01:16:48Z</time>
  <course>186.5</course>
  <speed>0.022360679774997897</speed>
  <fix>3d</fix>
</trkpt>
<trkpt lat="33.810313" lon="-118.393867">
  <ele>-0.12</ele>
  <time>2026-09-01T01:16:48Z</time>
  <course>0.0</course>
  <speed>0.0</speed>
  <fix>3d</fix>
</trkpt>
<trkpt lat="33.8103131" lon="-118.3938671">
  <ele>-0.114</ele>
  <time>2026-09-01T01:16:48Z</time>
  <course>186.49</course>
  <speed>0.022360679774997897</speed>
  <fix>3d</fix>
</trkpt>
<trkpt lat="33.810313" lon="-118.393867">
  <ele>-0.12</ele>
  <time>2026-09-01T01:16:48Z</time>
  <course>0.0</course>
  <speed>0.0</speed>
  <fix>3d</fix>
</trkpt>
<trkpt lat="33.8103131" lon="-118.3938671">
  <ele>-0.114</ele>
  <time>2026-09-01T01:16:48Z</time>
  <course>186.49</course>
  <speed>0.022360679774997897</speed>
  <fix>3d</fix>
</trkpt>
<trkpt lat="33.810313" lon="-118.393867">
  <ele>-0.12</ele>
  <time>2026-09-01T01:16:48Z</time>
  <course>0.0</course>
  <speed>0.0</speed>
  <fix>3d</fix>
</trkpt>
<trkpt lat="33.8103131" lon="-118.3938671">
  <ele>-0.114</ele>
  <time>2026-09-01T01:16:48Z</time>
  <course>186.49</course>
  <speed>0.022360679774997897</speed>
  <fix>3d</fix>
</trkpt>
<trkpt lat="33.810313" lon="-118.393867">
  <ele>-0.12</ele>
  <time>2026-09-01T01:16:48Z</time>
  <course>0.0</course>
  <speed>0.0</speed>
  <fix>3d</fix>
</trkpt>
<trkpt lat="33.8103131" lon="-118.3938671">
  <ele>-0.114</ele>
  <time>2026-09-01T01:16:48Z</time>
  <course>186.49</course>
  <speed>0.022360679774997897</speed>
  <fix>3d</fix>
</trkpt>
<trkpt lat="33.810313" lon="-118.393867">
  <ele>-0.12</ele>
  <time>2026-09-01T01:16:48Z</time>
  <course>0.0</course>
  <speed>0.0</speed>
  <fix>3d</fix>
</trkpt>
<trkpt lat="33.8103131" lon="-118.3938671">
  <ele>-0.114</ele>
  <time>2026-09-01T01:16:48Z</time>
  <course>186.49</course>
  <speed>0.022360679774997897</speed>
  <fix>3d</fix>
</trkpt>
<trkpt lat="33.810313" lon="-118.393867">
  <ele>-0.12</ele>
  <time>2026-09-01T01:16:48Z</time>
  <course>0.0</course>
  <speed>0.0</speed>
  <fix>3d</fix>
</trkpt>
<trkpt lat="33.8103131" lon="-118.3938671">
  <ele>-0.114</ele>
  <time>2026-09-01T01:16:48Z</time>
  <course>186.49</course>
  <speed>0.022360679774997897</speed>
  <fix>3d</fix>
</trkpt>
<trkpt lat="33.810313" lon="-118.393867">
  <ele>-0.12</ele>
  <time>2026-09-01T01:16:48Z</time>
  <course>0.0</course>
  <speed>0.0</speed>
  <fix>3d</fix>
</trkpt>
<trkpt lat="33.8103131" lon="-118.3938671">
  <ele>-0.113</ele>
  <time>2026-09-01T01:16:49Z</time>
  <course>186.49</course>
  <speed>0.022360679774997897</speed>
  <fix>3d</fix>
</trkpt>
<trkpt lat="33.810313" lon="-118.393867">
  <ele>-0.12</ele>
  <time>2026-09-01T01:16:49Z</time>
  <course>0.0</course>
  <speed>0.0</speed>
  <fix>3d</fix>
</trkpt>
<trkpt lat="33.8103131" lon="-118.3938671">
  <ele>-0.111</ele>
  <time>2026-09-01T01:16:49Z</time>
  <course>186.49</course>
  <speed>0.022360679774997897</speed>
  <fix>3d</fix>
</trkpt>
<trkpt lat="33.810313" lon="-118.393867">
  <ele>-0.12</ele>
  <time>2026-09-01T01:16:49Z</time>
  <course>0.0</course>
  <speed>0.0</speed>
  <fix>3d</fix>
</trkpt>
<trkpt lat="33.8103131" lon="-118.3938671">
  <ele>-0.11</ele>
  <time>2026-09-01T01:16:49Z</time>
  <course>186.48</course>
  <speed>0.022360679774997897</speed>
  <fix>3d</fix>
</trkpt>
<trkpt lat="33.810313" lon="-118.393867">
  <ele>-0.12</ele>
  <time>2026-09-01T01:16:49Z</time>
  <course>0.0</course>
  <speed>0.0</speed>
  <fix>3d</fix>
</trkpt>
<trkpt lat="33.8103131" lon="-118.3938671">
  <ele>-0.109</ele>
  <time>2026-09-01T01:16:49Z</time>
  <course>186.48</course>
  <speed>0.022360679774997897</speed>
  <fix>3d</fix>
</trkpt>
<trkpt lat="33.810313" lon="-118.393867">
  <ele>-0.12</ele>
  <time>2026-09-01T01:16:49Z</time>
  <course>0.0</course>
  <speed>0.0</speed>
  <fix>3d</fix>
</trkpt>
<trkpt lat="33.8103131" lon="-118.3938671">
  <ele>-0.109</ele>
  <time>2026-09-01T01:16:49Z</time>
  <course>186.48</course>
  <speed>0.022360679774997897</speed>
  <fix>3d</fix>
</trkpt>
<trkpt lat="33.810313" lon="-118.393867">
  <ele>-0.12</ele>
  <time>2026-09-01T01:16:49Z</time>
  <course>0.0</course>
  <speed>0.0</speed>
  <fix>3d</fix>
</trkpt>
<trkpt lat="33.8103131" lon="-118.3938671">
  <ele>-0.109</ele>
  <time>2026-09-01T01:16:49Z</time>
  <course>186.48</course>
  <speed>0.022360679774997897</speed>
  <fix>3d</fix>
</trkpt>
<trkpt lat="33.810313" lon="-118.393867">
  <ele>-0.12</ele>
  <time>2026-09-01T01:16:49Z</time>
  <course>0.0</course>
  <speed>0.0</speed>
  <fix>3d</fix>
</trkpt>
<trkpt lat="33.8103131" lon="-118.3938671">
  <ele>-0.11</ele>
  <time>2026-09-01T01:16:49Z</time>
  <course>186.48</course>
  <speed>0.022360679774997897</speed>
  <fix>3d</fix>
</trkpt>
<trkpt lat="33.810313" lon="-118.393867">
  <ele>-0.12</ele>
  <time>2026-09-01T01:16:49Z</time>
  <course>0.0</course>
  <speed>0.0</speed>
  <fix>3d</fix>
</trkpt>
<trkpt lat="33.8103131" lon="-118.3938671">
  <ele>-0.112</ele>
  <time>2026-09-01T01:16:49Z</time>
  <course>186.48</course>
  <speed>0.022360679774997897</speed>
  <fix>3d</fix>
</trkpt>
<trkpt lat="33.810313" lon="-118.393867">
  <ele>-0.12</ele>
  <time>2026-09-01T01:16:49Z</time>
  <course>0.0</course>
  <speed>0.0</speed>
  <fix>3d</fix>
</trkpt>
<trkpt lat="33.8103132" lon="-118.3938671">
  <ele>-0.113</ele>
  <time>2026-09-01T01:16:49Z</time>
  <course>186.47</course>
  <speed>0.022360679774997897</speed>
  <fix>3d</fix>
</trkpt>
<trkpt lat="33.810313" lon="-118.393867">
  <ele>-0.12</ele>
  <time>2026-09-01T01:16:49Z</time>
  <course>0.0</course>
  <speed>0.0</speed>
  <fix>3d</fix>
</trkpt>
<trkpt lat="33.8103132" lon="-118.3938671">
  <ele>-0.114</ele>
  <time>2026-09-01T01:16:49Z</time>
  <course>186.47</course>
  <speed>0.022360679774997897</speed>
  <fix>3d</fix>
</trkpt>
<trkpt lat="33.810313" lon="-118.393867">
  <ele>-0.12</ele>
  <time>2026-09-01T01:16:49Z</time>
  <course>0.0</course>
  <speed>0.0</speed>
  <fix>3d</fix>
</trkpt>
<trkpt lat="33.8103132" lon="-118.3938671">
  <ele>-0.115</ele>
  <time>2026-09-01T01:16:50Z</time>
  <course>186.47</course>
  <speed>0.022360679774997897</speed>
  <fix>3d</fix>
</trkpt>
<trkpt lat="33.810313" lon="-118.393867">
  <ele>-0.12</ele>
  <time>2026-09-01T01:16:50Z</time>
  <course>0.0</course>
  <speed>0.0</speed>
  <fix>3d</fix>
</trkpt>
<trkpt lat="33.8103132" lon="-118.3938671">
  <ele>-0.116</ele>
  <time>2026-09-01T01:16:50Z</time>
  <course>186.47</course>
  <speed>0.022360679774997897</speed>
  <fix>3d</fix>
</trkpt>
<trkpt lat="33.810313" lon="-118.393867">
  <ele>-0.12</ele>
  <time>2026-09-01T01:16:50Z</time>
  <course>0.0</course>
  <speed>0.0</speed>
  <fix>3d</fix>
</trkpt>
<trkpt lat="33.8103132" lon="-118.3938671">
  <ele>-0.116</ele>
  <time>2026-09-01T01:16:50Z</time>
  <course>186.47</course>
  <speed>0.022360679774997897</speed>
  <fix>3d</fix>
</trkpt>
<trkpt lat="33.810313" lon="-118.393867">
  <ele>-0.12</ele>
  <time>2026-09-01T01:16:50Z</time>
  <course>0.0</course>
  <speed>0.0</speed>
  <fix>3d</fix>
</trkpt>
<trkpt lat="33.8103132" lon="-118.3938671">
  <ele>-0.115</ele>
  <time>2026-09-01T01:16:50Z</time>
  <course>186.47</course>
  <speed>0.022360679774997897</speed>
  <fix>3d</fix>
</trkpt>
<trkpt lat="33.810313" lon="-118.393867">
  <ele>-0.12</ele>
  <time>2026-09-01T01:16:50Z</time>
  <course>0.0</course>
  <speed>0.0</speed>
  <fix>3d</fix>
</trkpt>
<trkpt lat="33.8103132" lon="-118.3938671">
  <ele>-0.114</ele>
  <time>2026-09-01T01:16:50Z</time>
  <course>186.47</course>
  <speed>0.022360679774997897</speed>
  <fix>3d</fix>
</trkpt>
<trkpt lat="33.810313" lon="-118.393867">
  <ele>-0.12</ele>
  <time>2026-09-01T01:16:50Z</time>
  <course>0.0</course>
  <speed>0.0</speed>
  <fix>3d</fix>
</trkpt>
<trkpt lat="33.8103132" lon="-118.3938671">
  <ele>-0.114</ele>
  <time>2026-09-01T01:16:50Z</time>
  <course>186.46</course>
  <speed>0.022360679774997897</speed>
  <fix>3d</fix>
</trkpt>
<trkpt lat="33.810313" lon="-118.393867">
  <ele>-0.12</ele>
  <time>2026-09-01T01:16:50Z</time>
  <course>0.0</course>
  <speed>0.0</speed>
  <fix>3d</fix>
</trkpt>
<trkpt lat="33.8103132" lon="-118.3938671">
  <ele>-0.114</ele>
  <time>2026-09-01T01:16:50Z</time>
  <course>186.46</course>
  <speed>0.022360679774997897</speed>
  <fix>3d</fix>
</trkpt>
<trkpt lat="33.810313" lon="-118.393867">
  <ele>-0.12</ele>
  <time>2026-09-01T01:16:50Z</time>
  <course>0.0</course>
  <speed>0.0</speed>
  <fix>3d</fix>
</trkpt>
<trkpt lat="33.8103132" lon="-118.3938671">
  <ele>-0.114</ele>
  <time>2026-09-01T01:16:50Z</time>
  <course>186.46</course>
  <speed>0.022360679774997897</speed>
  <fix>3d</fix>
</trkpt>
<trkpt lat="33.810313" lon="-118.393867">
  <ele>-0.12</ele>
  <time>2026-09-01T01:16:50Z</time>
  <course>0.0</course>
  <speed>0.0</speed>
  <fix>3d</fix>
</trkpt>
<trkpt lat="33.8103132" lon="-118.3938671">
  <ele>-0.114</ele>
  <time>2026-09-01T01:16:50Z</time>
  <course>186.46</course>
  <speed>0.022360679774997897</speed>
  <fix>3d</fix>
</trkpt>
<trkpt lat="33.810313" lon="-118.393867">
  <ele>-0.12</ele>
  <time>2026-09-01T01:16:50Z</time>
  <course>0.0</course>
  <speed>0.0</speed>
  <fix>3d</fix>
</trkpt>
<trkpt lat="33.8103132" lon="-118.3938671">
  <ele>-0.113</ele>
  <time>2026-09-01T01:16:50Z</time>
  <course>186.46</course>
  <speed>0.022360679774997897</speed>
  <fix>3d</fix>
</trkpt>
<trkpt lat="33.810313" lon="-118.393867">
  <ele>-0.12</ele>
  <time>2026-09-01T01:16:50Z</time>
  <course>0.0</course>
  <speed>0.0</speed>
  <fix>3d</fix>
</trkpt>
<trkpt lat="33.8103132" lon="-118.3938671">
  <ele>-0.112</ele>
  <time>2026-09-01T01:16:50Z</time>
  <course>186.46</course>
  <speed>0.022360679774997897</speed>
  <fix>3d</fix>
</trkpt>
<trkpt lat="33.810313" lon="-118.393867">
  <ele>-0.12</ele>
  <time>2026-09-01T01:16:50Z</time>
  <course>0.0</course>
  <speed>0.0</speed>
  <fix>3d</fix>
</trkpt>
<trkpt lat="33.8103132" lon="-118.3938671">
  <ele>-0.11</ele>
  <time>2026-09-01T01:16:50Z</time>
  <course>186.46</course>
  <speed>0.022360679774997897</speed>
  <fix>3d</fix>
</trkpt>
<trkpt lat="33.810313" lon="-118.393867">
  <ele>-0.12</ele>
  <time>2026-09-01T01:16:50Z</time>
  <course>0.0</course>
  <speed>0.0</speed>
  <fix>3d</fix>
</trkpt>
<trkpt lat="33.8103132" lon="-118.3938671">
  <ele>-0.109</ele>
  <time>2026-09-01T01:16:50Z</time>
  <course>186.45</course>
  <speed>0.022360679774997897</speed>
  <fix>3d</fix>
</trkpt>
<trkpt lat="33.810313" lon="-118.393867">
  <ele>-0.12</ele>
  <time>2026-09-01T01:16:50Z</time>
  <course>0.0</course>
  <speed>0.0</speed>
  <fix>3d</fix>
</trkpt>
<trkpt lat="33.8103132" lon="-118.3938671">
  <ele>-0.106</ele>
  <time>2026-09-01T01:16:50Z</time>
  <course>186.45</course>
  <speed>0.022360679774997897</speed>
  <fix>3d</fix>
</trkpt>
<trkpt lat="33.810313" lon="-118.393867">
  <ele>-0.12</ele>
  <time>2026-09-01T01:16:50Z</time>
  <course>0.0</course>
  <speed>0.0</speed>
  <fix>3d</fix>
</trkpt>
<trkpt lat="33.8103132" lon="-118.3938671">
  <ele>-0.103</ele>
  <time>2026-09-01T01:16:50Z</time>
  <course>186.45</course>
  <speed>0.022360679774997897</speed>
  <fix>3d</fix>
</trkpt>
<trkpt lat="33.810313" lon="-118.393867">
  <ele>-0.12</ele>
  <time>2026-09-01T01:16:50Z</time>
  <course>0.0</course>
  <speed>0.0</speed>
  <fix>3d</fix>
</trkpt>
<trkpt lat="33.8103132" lon="-118.3938671">
  <ele>-0.101</ele>
  <time>2026-09-01T01:16:50Z</time>
  <course>186.45</course>
  <speed>0.022360679774997897</speed>
  <fix>3d</fix>
</trkpt>
<trkpt lat="33.810313" lon="-118.393867">
  <ele>-0.12</ele>
  <time>2026-09-01T01:16:50Z</time>
  <course>0.0</course>
  <speed>0.0</speed>
  <fix>3d</fix>
</trkpt>
<trkpt lat="33.8103132" lon="-118.3938671">
  <ele>-0.101</ele>
  <time>2026-09-01T01:16:50Z</time>
  <course>186.45</course>
  <speed>0.022360679774997897</speed>
  <fix>3d</fix>
</trkpt>
<trkpt lat="33.810313" lon="-118.393867">
  <ele>-0.12</ele>
  <time>2026-09-01T01:16:50Z</time>
  <course>0.0</course>
  <speed>0.0</speed>
  <fix>3d</fix>
</trkpt>
<trkpt lat="33.8103132" lon="-118.3938671">
  <ele>-0.103</ele>
  <time>2026-09-01T01:16:50Z</time>
  <course>186.45</course>
  <speed>0.022360679774997897</speed>
  <fix>3d</fix>
</trkpt>
<trkpt lat="33.810313" lon="-118.393867">
  <ele>-0.12</ele>
  <time>2026-09-01T01:16:50Z</time>
  <course>0.0</course>
  <speed>0.0</speed>
  <fix>3d</fix>
</trkpt>
<trkpt lat="33.8103132" lon="-118.3938671">
  <ele>-0.105</ele>
  <time>2026-09-01T01:16:50Z</time>
  <course>186.45</course>
  <speed>0.022360679774997897</speed>
  <fix>3d</fix>
</trkpt>
<trkpt lat="33.810313" lon="-118.393867">
  <ele>-0.12</ele>
  <time>2026-09-01T01:16:50Z</time>
  <course>0.0</course>
  <speed>0.0</speed>
  <fix>3d</fix>
</trkpt>
<trkpt lat="33.4368002" lon="-117.0859339">
  <ele>-0.11</ele>
  <time>2026-09-01T01:16:52Z</time>
  <course>0.0</course>
  <speed>0.0</speed>
  <fix>3d</fix>
</trkpt>
<trkpt lat="33.4368002" lon="-117.0859339">
  <ele>-0.11</ele>
  <time>2026-09-01T01:16:52Z</time>
  <course>0.0</course>
  <speed>0.0</speed>
  <fix>3d</fix>
</trkpt>
<trkpt lat="33.810313" lon="-118.393867">
  <ele>0.0</ele>
  <time>2026-09-01T01:16:52Z</time>
  <course>173.5</course>
  <speed>0.0</speed>
  <fix>3d</fix>
</trkpt>
<trkpt lat="33.810313" lon="-118.393867">
  <ele>-0.11</ele>
  <time>2026-09-01T01:16:52Z</time>
  <course>0.0</course>
  <speed>0.0</speed>
  <fix>3d</fix>
</trkpt>
<trkpt lat="33.810313" lon="-118.393867">
  <ele>0.0</ele>
  <time>2026-09-01T01:16:52Z</time>
  <course>173.61</course>
  <speed>0.0</speed>
  <fix>3d</fix>
</trkpt>
<trkpt lat="33.810313" lon="-118.393867">
  <ele>-0.11</ele>
  <time>2026-09-01T01:16:52Z</time>
  <course>0.0</course>
  <speed>0.0</speed>
  <fix>3d</fix>
</trkpt>
<trkpt lat="33.810313" lon="-118.393867">
  <ele>0.0</ele>
  <time>2026-09-01T01:16:52Z</time>
  <course>173.98</course>
  <speed>0.0</speed>
  <fix>3d</fix>
</trkpt>
<trkpt lat="33.810313" lon="-118.393867">
  <ele>-0.11</ele>
  <time>2026-09-01T01:16:52Z</time>
  <course>0.0</course>
  <speed>0.0</speed>
  <fix>3d</fix>
</trkpt>
<trkpt lat="33.810313" lon="-118.393867">
  <ele>0.0</ele>
  <time>2026-09-01T01:16:52Z</time>
  <course>174.51</course>
  <speed>0.0</speed>
  <fix>3d</fix>
</trkpt>
<trkpt lat="33.810313" lon="-118.393867">
  <ele>-0.11</ele>
  <time>2026-09-01T01:16:52Z</time>
  <course>0.0</course>
  <speed>0.0</speed>
  <fix>3d</fix>
</trkpt>
<trkpt lat="33.810313" lon="-118.393867">
  <ele>0.0</ele>
  <time>2026-09-01T01:16:52Z</time>
  <course>175.07</course>
  <speed>0.0</speed>
  <fix>3d</fix>
</trkpt>
<trkpt lat="33.810313" lon="-118.393867">
  <ele>-0.12</ele>
  <time>2026-09-01T01:16:52Z</time>
  <course>0.0</course>
  <speed>0.0</speed>
  <fix>3d</fix>
</trkpt>
<trkpt lat="33.810313" lon="-118.393867">
  <ele>0.0</ele>
  <time>2026-09-01T01:16:52Z</time>
  <course>175.61</course>
  <speed>0.0</speed>
  <fix>3d</fix>
</trkpt>
<trkpt lat="33.810313" lon="-118.393867">
  <ele>-0.12</ele>
  <time>2026-09-01T01:16:52Z</time>
  <course>0.0</course>
  <speed>0.0</speed>
  <fix>3d</fix>
</trkpt>
<trkpt lat="33.810313" lon="-118.393867">
  <ele>0.0</ele>
  <time>2026-09-01T01:16:52Z</time>
  <course>176.12</course>
  <speed>0.0</speed>
  <fix>3d</fix>
</trkpt>
<trkpt lat="33.810313" lon="-118.393867">
  <ele>-0.13</ele>
  <time>2026-09-01T01:16:52Z</time>
  <course>0.0</course>
  <speed>0.0</speed>
  <fix>3d</fix>
</trkpt>
<trkpt lat="33.810313" lon="-118.393867">
  <ele>0.0</ele>
  <time>2026-09-01T01:16:52Z</time>
  <course>176.6</course>
  <speed>0.0</speed>
  <fix>3d</fix>
</trkpt>
<trkpt lat="33.810313" lon="-118.393867">
  <ele>-0.13</ele>
  <time>2026-09-01T01:16:52Z</time>
  <course>0.0</course>
  <speed>0.0</speed>
  <fix>3d</fix>
</trkpt>
<trkpt lat="33.810313" lon="-118.393867">
  <ele>0.0</ele>
  <time>2026-09-01T01:16:52Z</time>
  <course>177.07</course>
  <speed>0.0</speed>
  <fix>3d</fix>
</trkpt>
<trkpt lat="33.810313" lon="-118.393867">
  <ele>-0.13</ele>
  <time>2026-09-01T01:16:52Z</time>
  <course>0.0</course>
  <speed>0.0</speed>
  <fix>3d</fix>
</trkpt>
<trkpt lat="33.810313" lon="-118.393867">
  <ele>0.0</ele>
  <time>2026-09-01T01:16:52Z</time>
  <course>177.53</course>
  <speed>0.0</speed>
  <fix>3d</fix>
</trkpt>
<trkpt lat="33.810313" lon="-118.393867">
  <ele>-0.13</ele>
  <time>2026-09-01T01:16:52Z</time>
  <course>0.0</course>
  <speed>0.0</speed>
  <fix>3d</fix>
</trkpt>
<trkpt lat="33.4368002" lon="-117.0859339">
  <ele>-0.11</ele>
  <time>2026-09-01T01:16:53Z</time>
  <course>0.0</course>
  <speed>0.0</speed>
  <fix>3d</fix>
</trkpt>
<trkpt lat="33.4368002" lon="-117.0859339">
  <ele>-0.11</ele>
  <time>2026-09-01T01:16:53Z</time>
  <course>0.0</course>
  <speed>0.0</speed>
  <fix>3d</fix>
</trkpt>
<trkpt lat="33.810313" lon="-118.393867">
  <ele>0.0</ele>
  <time>2026-09-01T01:16:53Z</time>
  <course>173.5</course>
  <speed>0.0</speed>
  <fix>3d</fix>
</trkpt>
<trkpt lat="33.810313" lon="-118.393867">
  <ele>-0.11</ele>
  <time>2026-09-01T01:16:53Z</time>
  <course>0.0</course>
  <speed>0.0</speed>
  <fix>3d</fix>
</trkpt>
<trkpt lat="33.4368002" lon="-117.0859339">
  <ele>-0.11</ele>
  <time>2026-09-01T01:16:54Z</time>
  <course>0.0</course>
  <speed>0.0</speed>
  <fix>3d</fix>
</trkpt>
<trkpt lat="33.4368002" lon="-117.0859339">
  <ele>-0.11</ele>
  <time>2026-09-01T01:16:54Z</time>
  <course>0.0</course>
  <speed>0.0</speed>
  <fix>3d</fix>
</trkpt>
<trkpt lat="33.810313" lon="-118.393867">
  <ele>0.0</ele>
  <time>2026-09-01T01:16:54Z</time>
  <course>173.5</course>
  <speed>0.0</speed>
  <fix>3d</fix>
</trkpt>
<trkpt lat="33.810313" lon="-118.393867">
  <ele>-0.11</ele>
  <time>2026-09-01T01:16:54Z</time>
  <course>0.0</course>
  <speed>0.0</speed>
  <fix>3d</fix>
</trkpt>
<trkpt lat="33.810313" lon="-118.393867">
  <ele>0.0</ele>
  <time>2026-09-01T01:16:54Z</time>
  <course>173.64</course>
  <speed>0.0</speed>
  <fix>3d</fix>
</trkpt>
<trkpt lat="33.810313" lon="-118.393867">
  <ele>-0.11</ele>
  <time>2026-09-01T01:16:54Z</time>
  <course>0.0</course>
  <speed>0.0</speed>
  <fix>3d</fix>
</trkpt>
<trkpt lat="33.810313" lon="-118.393867">
  <ele>0.0</ele>
  <time>2026-09-01T01:16:54Z</time>
  <course>174.03</course>
  <speed>0.0</speed>
  <fix>3d</fix>
</trkpt>
<trkpt lat="33.810313" lon="-118.393867">
  <ele>-0.11</ele>
  <time>2026-09-01T01:16:54Z</time>
  <course>0.0</course>
  <speed>0.0</speed>
  <fix>3d</fix>
</trkpt>
<trkpt lat="33.810313" lon="-118.393867">
  <ele>0.0</ele>
  <time>2026-09-01T01:16:54Z</time>
  <course>174.57</course>
  <speed>0.0</speed>
  <fix>3d</fix>
</trkpt>
<trkpt lat="33.810313" lon="-118.393867">
  <ele>-0.11</ele>
  <time>2026-09-01T01:16:54Z</time>
  <course>0.0</course>
  <speed>0.0</speed>
  <fix>3d</fix>
</trkpt>
<trkpt lat="33.810313" lon="-118.393867">
  <ele>0.0</ele>
  <time>2026-09-01T01:16:54Z</time>
  <course>175.13</course>
  <speed>0.0</speed>
  <fix>3d</fix>
</trkpt>
<trkpt lat="33.810313" lon="-118.393867">
  <ele>-0.12</ele>
  <time>2026-09-01T01:16:54Z</time>
  <course>0.0</course>
  <speed>0.0</speed>
  <fix>3d</fix>
</trkpt>
<trkpt lat="33.810313" lon="-118.393867">
  <ele>0.0</ele>
  <time>2026-09-01T01:16:54Z</time>
  <course>175.67</course>
  <speed>0.0</speed>
  <fix>3d</fix>
</trkpt>
<trkpt lat="33.810313" lon="-118.393867">
  <ele>-0.12</ele>
  <time>2026-09-01T01:16:54Z</time>
  <course>0.0</course>
  <speed>0.0</speed>
  <fix>3d</fix>
</trkpt>
<trkpt lat="33.810313" lon="-118.393867">
  <ele>0.0</ele>
  <time>2026-09-01T01:16:54Z</time>
  <course>176.17</course>
  <speed>0.0</speed>
  <fix>3d</fix>
</trkpt>
<trkpt lat="33.810313" lon="-118.393867">
  <ele>-0.13</ele>
  <time>2026-09-01T01:16:54Z</time>
  <course>0.0</course>
  <speed>0.0</speed>
  <fix>3d</fix>
</trkpt>
<trkpt lat="33.810313" lon="-118.393867">
  <ele>0.0</ele>
  <time>2026-09-01T01:16:54Z</time>
  <course>176.65</course>
  <speed>0.0</speed>
  <fix>3d</fix>
</trkpt>
<trkpt lat="33.810313" lon="-118.393867">
  <ele>-0.13</ele>
  <time>2026-09-01T01:16:54Z</time>
  <course>0.0</course>
  <speed>0.0</speed>
  <fix>3d</fix>
</trkpt>
<trkpt lat="33.810313" lon="-118.393867">
  <ele>0.0</ele>
  <time>2026-09-01T01:16:54Z</time>
  <course>177.12</course>
  <speed>0.0</speed>
  <fix>3d</fix>
</trkpt>
<trkpt lat="33.810313" lon="-118.393867">
  <ele>-0.13</ele>
  <time>2026-09-01T01:16:54Z</time>
  <course>0.0</course>
  <speed>0.0</speed>
  <fix>3d</fix>
</trkpt>
<trkpt lat="33.810313" lon="-118.393867">
  <ele>0.0</ele>
  <time>2026-09-01T01:16:54Z</time>
  <course>177.57</course>
  <speed>0.0</speed>
  <fix>3d</fix>
</trkpt>
<trkpt lat="33.810313" lon="-118.393867">
  <ele>-0.13</ele>
  <time>2026-09-01T01:16:54Z</time>
  <course>0.0</course>
  <speed>0.0</speed>
  <fix>3d</fix>
</trkpt>
<trkpt lat="33.810313" lon="-118.393867">
  <ele>0.0</ele>
  <time>2026-09-01T01:16:54Z</time>
  <course>178.02</course>
  <speed>0.0</speed>
  <fix>3d</fix>
</trkpt>
<trkpt lat="33.810313" lon="-118.393867">
  <ele>-0.14</ele>
  <time>2026-09-01T01:16:54Z</time>
  <course>0.0</course>
  <speed>0.0</speed>
  <fix>3d</fix>
</trkpt>
<trkpt lat="33.810313" lon="-118.393867">
  <ele>0.0</ele>
  <time>2026-09-01T01:16:54Z</time>
  <course>178.45</course>
  <speed>0.0</speed>
  <fix>3d</fix>
</trkpt>
<trkpt lat="33.810313" lon="-118.393867">
  <ele>-0.14</ele>
  <time>2026-09-01T01:16:54Z</time>
  <course>0.0</course>
  <speed>0.0</speed>
  <fix>3d</fix>
</trkpt>
<trkpt lat="33.810313" lon="-118.393867">
  <ele>0.0</ele>
  <time>2026-09-01T01:16:54Z</time>
  <course>178.87</course>
  <speed>0.0</speed>
  <fix>3d</fix>
</trkpt>
<trkpt lat="33.810313" lon="-118.393867">
  <ele>-0.14</ele>
  <time>2026-09-01T01:16:54Z</time>
  <course>0.0</course>
  <speed>0.0</speed>
  <fix>3d</fix>
</trkpt>
<trkpt lat="33.810313" lon="-118.393867">
  <ele>0.0</ele>
  <time>2026-09-01T01:16:54Z</time>
  <course>179.27</course>
  <speed>0.0</speed>
  <fix>3d</fix>
</trkpt>
<trkpt lat="33.810313" lon="-118.393867">
  <ele>-0.14</ele>
  <time>2026-09-01T01:16:54Z</time>
  <course>0.0</course>
  <speed>0.0</speed>
  <fix>3d</fix>
</trkpt>
<trkpt lat="33.810313" lon="-118.393867">
  <ele>0.0</ele>
  <time>2026-09-01T01:16:54Z</time>
  <course>179.66</course>
  <speed>0.0</speed>
  <fix>3d</fix>
</trkpt>
<trkpt lat="33.810313" lon="-118.393867">
  <ele>-0.14</ele>
  <time>2026-09-01T01:16:54Z</time>
  <course>0.0</course>
  <speed>0.0</speed>
  <fix>3d</fix>
</trkpt>
<trkpt lat="33.810313" lon="-118.393867">
  <ele>0.0</ele>
  <time>2026-09-01T01:16:54Z</time>
  <course>180.05</course>
  <speed>0.0</speed>
  <fix>3d</fix>
</trkpt>
<trkpt lat="33.810313" lon="-118.393867">
  <ele>-0.14</ele>
  <time>2026-09-01T01:16:54Z</time>
  <course>0.0</course>
  <speed>0.0</speed>
  <fix>3d</fix>
</trkpt>
<trkpt lat="33.810313" lon="-118.393867">
  <ele>0.0</ele>
  <time>2026-09-01T01:16:54Z</time>
  <course>180.41</course>
  <speed>0.0</speed>
  <fix>3d</fix>
</trkpt>
<trkpt lat="33.810313" lon="-118.393867">
  <ele>-0.14</ele>
  <time>2026-09-01T01:16:54Z</time>
  <course>0.0</course>
  <speed>0.0</speed>
  <fix>3d</fix>
</trkpt>
<trkpt lat="33.810313" lon="-118.393867">
  <ele>0.0</ele>
  <time>2026-09-01T01:16:54Z</time>
  <course>180.76</course>
  <speed>0.0</speed>
  <fix>3d</fix>
</trkpt>
<trkpt lat="33.810313" lon="-118.393867">
  <ele>-0.14</ele>
  <time>2026-09-01T01:16:54Z</time>
  <course>0.0</course>
  <speed>0.0</speed>
  <fix>3d</fix>
</trkpt>
<trkpt lat="33.810313" lon="-118.393867">
  <ele>0.0</ele>
  <time>2026-09-01T01:16:54Z</time>
  <course>181.1</course>
  <speed>0.0</speed>
  <fix>3d</fix>
</trkpt>
<trkpt lat="33.810313" lon="-118.393867">
  <ele>-0.13</ele>
  <time>2026-09-01T01:16:54Z</time>
  <course>0.0</course>
  <speed>0.0</speed>
  <fix>3d</fix>
</trkpt>
<trkpt lat="33.810313" lon="-118.393867">
  <ele>0.0</ele>
  <time>2026-09-01T01:16:54Z</time>
  <course>181.43</course>
  <speed>0.0</speed>
  <fix>3d</fix>
</trkpt>
<trkpt lat="33.810313" lon="-118.393867">
  <ele>-0.13</ele>
  <time>2026-09-01T01:16:54Z</time>
  <course>0.0</course>
  <speed>0.0</speed>
  <fix>3d</fix>
</trkpt>
<trkpt lat="33.810313" lon="-118.393867">
  <ele>0.0</ele>
  <time>2026-09-01T01:16:54Z</time>
  <course>181.75</course>
  <speed>0.0</speed>
  <fix>3d</fix>
</trkpt>
<trkpt lat="33.810313" lon="-118.393867">
  <ele>-0.12</ele>
  <time>2026-09-01T01:16:54Z</time>
  <course>0.0</course>
  <speed>0.0</speed>
  <fix>3d</fix>
</trkpt>
<trkpt lat="33.810313" lon="-118.393867">
  <ele>0.0</ele>
  <time>2026-09-01T01:16:54Z</time>
  <course>182.05</course>
  <speed>0.0</speed>
  <fix>3d</fix>
</trkpt>
<trkpt lat="33.810313" lon="-118.393867">
  <ele>-0.12</ele>
  <time>2026-09-01T01:16:54Z</time>
  <course>0.0</course>
  <speed>0.0</speed>
  <fix>3d</fix>
</trkpt>
<trkpt lat="33.810313" lon="-118.393867">
  <ele>0.0</ele>
  <time>2026-09-01T01:16:54Z</time>
  <course>182.35</course>
  <speed>0.0</speed>
  <fix>3d</fix>
</trkpt>
<trkpt lat="33.810313" lon="-118.393867">
  <ele>-0.12</ele>
  <time>2026-09-01T01:16:54Z</time>
  <course>0.0</course>
  <speed>0.0</speed>
  <fix>3d</fix>
</trkpt>
<trkpt lat="33.810313" lon="-118.393867">
  <ele>0.0</ele>
  <time>2026-09-01T01:16:54Z</time>
  <course>182.63</course>
  <speed>0.0</speed>
  <fix>3d</fix>
</trkpt>
<trkpt lat="33.810313" lon="-118.393867">
  <ele>-0.12</ele>
  <time>2026-09-01T01:16:54Z</time>
  <course>0.0</course>
  <speed>0.0</speed>
  <fix>3d</fix>
</trkpt>
<trkpt lat="33.810313" lon="-118.393867">
  <ele>0.0</ele>
  <time>2026-09-01T01:16:54Z</time>
  <course>182.9</course>
  <speed>0.0</speed>
  <fix>3d</fix>
</trkpt>
<trkpt lat="33.810313" lon="-118.393867">
  <ele>-0.11</ele>
  <time>2026-09-01T01:16:54Z</time>
  <course>0.0</course>
  <speed>0.0</speed>
  <fix>3d</fix>
</trkpt>
<trkpt lat="33.810313" lon="-118.393867">
  <ele>0.0</ele>
  <time>2026-09-01T01:16:54Z</time>
  <course>183.16</course>
  <speed>0.0</speed>
  <fix>3d</fix>
</trkpt>
<trkpt lat="33.810313" lon="-118.393867">
  <ele>-0.11</ele>
  <time>2026-09-01T01:16:54Z</time>
  <course>0.0</course>
  <speed>0.0</speed>
  <fix>3d</fix>
</trkpt>
<trkpt lat="33.810313" lon="-118.393867">
  <ele>0.0</ele>
  <time>2026-09-01T01:16:54Z</time>
  <course>183.41</course>
  <speed>0.0</speed>
  <fix>3d</fix>
</trkpt>
<trkpt lat="33.810313" lon="-118.393867">
  <ele>-0.11</ele>
  <time>2026-09-01T01:16:54Z</time>
  <course>0.0</course>
  <speed>0.0</speed>
  <fix>3d</fix>
</trkpt>
<trkpt lat="33.810313" lon="-118.393867">
  <ele>0.0</ele>
  <time>2026-09-01T01:16:54Z</time>
  <course>183.65</course>
  <speed>0.0</speed>
  <fix>3d</fix>
</trkpt>
<trkpt lat="33.810313" lon="-118.393867">
  <ele>-0.11</ele>
  <time>2026-09-01T01:16:54Z</time>
  <course>0.0</course>
  <speed>0.0</speed>
  <fix>3d</fix>
</trkpt>
<trkpt lat="33.810313" lon="-118.393867">
  <ele>0.0</ele>
  <time>2026-09-01T01:16:54Z</time>
  <course>183.88</course>
  <speed>0.0</speed>
  <fix>3d</fix>
</trkpt>
<trkpt lat="33.810313" lon="-118.393867">
  <ele>-0.12</ele>
  <time>2026-09-01T01:16:54Z</time>
  <course>0.0</course>
  <speed>0.0</speed>
  <fix>3d</fix>
</trkpt>
<trkpt lat="33.810313" lon="-118.393867">
  <ele>0.0</ele>
  <time>2026-09-01T01:16:54Z</time>
  <course>184.11</course>
  <speed>0.0</speed>
  <fix>3d</fix>
</trkpt>
<trkpt lat="33.810313" lon="-118.393867">
  <ele>-0.12</ele>
  <time>2026-09-01T01:16:54Z</time>
  <course>0.0</course>
  <speed>0.0</speed>
  <fix>3d</fix>
</trkpt>
<trkpt lat="33.810313" lon="-118.393867">
  <ele>0.0</ele>
  <time>2026-09-01T01:16:54Z</time>
  <course>184.32</course>
  <speed>0.0</speed>
  <fix>3d</fix>
</trkpt>
<trkpt lat="33.810313" lon="-118.393867">
  <ele>-0.13</ele>
  <time>2026-09-01T01:16:54Z</time>
  <course>0.0</course>
  <speed>0.0</speed>
  <fix>3d</fix>
</trkpt>
<trkpt lat="33.810313" lon="-118.393867">
  <ele>0.0</ele>
  <time>2026-09-01T01:16:54Z</time>
  <course>184.52</course>
  <speed>0.0</speed>
  <fix>3d</fix>
</trkpt>
<trkpt lat="33.810313" lon="-118.393867">
  <ele>-0.13</ele>
  <time>2026-09-01T01:16:54Z</time>
  <course>0.0</course>
  <speed>0.0</speed>
  <fix>3d</fix>
</trkpt>
<trkpt lat="33.810313" lon="-118.393867">
  <ele>0.0</ele>
  <time>2026-09-01T01:16:54Z</time>
  <course>184.72</course>
  <speed>0.0</speed>
  <fix>3d</fix>
</trkpt>
<trkpt lat="33.810313" lon="-118.393867">
  <ele>-0.13</ele>
  <time>2026-09-01T01:16:54Z</time>
  <course>0.0</course>
  <speed>0.0</speed>
  <fix>3d</fix>
</trkpt>
<trkpt lat="33.810313" lon="-118.393867">
  <ele>0.0</ele>
  <time>2026-09-01T01:16:54Z</time>
  <course>184.91</course>
  <speed>0.0</speed>
  <fix>3d</fix>
</trkpt>
<trkpt lat="33.810313" lon="-118.393867">
  <ele>-0.13</ele>
  <time>2026-09-01T01:16:54Z</time>
  <course>0.0</course>
  <speed>0.0</speed>
  <fix>3d</fix>
</trkpt>
<trkpt lat="33.810313" lon="-118.393867">
  <ele>0.0</ele>
  <time>2026-09-01T01:16:54Z</time>
  <course>185.09</course>
  <speed>0.0</speed>
  <fix>3d</fix>
</trkpt>
<trkpt lat="33.810313" lon="-118.393867">
  <ele>-0.14</ele>
  <time>2026-09-01T01:16:54Z</time>
  <course>0.0</course>
  <speed>0.0</speed>
  <fix>3d</fix>
</trkpt>
<trkpt lat="33.810313" lon="-118.393867">
  <ele>0.0</ele>
  <time>2026-09-01T01:16:54Z</time>
  <course>185.26</course>
  <speed>0.0</speed>
  <fix>3d</fix>
</trkpt>
<trkpt lat="33.810313" lon="-118.393867">
  <ele>-0.14</ele>
  <time>2026-09-01T01:16:54Z</time>
  <course>0.0</course>
  <speed>0.0</speed>
  <fix>3d</fix>
</trkpt>
<trkpt lat="33.810313" lon="-118.393867">
  <ele>0.0</ele>
  <time>2026-09-01T01:16:54Z</time>
  <course>185.42</course>
  <speed>0.0</speed>
  <fix>3d</fix>
</trkpt>
<trkpt lat="33.810313" lon="-118.393867">
  <ele>-0.13</ele>
  <time>2026-09-01T01:16:54Z</time>
  <course>0.0</course>
  <speed>0.0</speed>
  <fix>3d</fix>
</trkpt>
<trkpt lat="33.810313" lon="-118.393867">
  <ele>0.0</ele>
  <time>2026-09-01T01:16:54Z</time>
  <course>185.58</course>
  <speed>0.0</speed>
  <fix>3d</fix>
</trkpt>
<trkpt lat="33.810313" lon="-118.393867">
  <ele>-0.13</ele>
  <time>2026-09-01T01:16:54Z</time>
  <course>0.0</course>
  <speed>0.0</speed>
  <fix>3d</fix>
</trkpt>
<trkpt lat="33.810313" lon="-118.393867">
  <ele>0.0</ele>
  <time>2026-09-01T01:16:54Z</time>
  <course>185.73</course>
  <speed>0.0</speed>
  <fix>3d</fix>
</trkpt>
<trkpt lat="33.810313" lon="-118.393867">
  <ele>-0.13</ele>
  <time>2026-09-01T01:16:54Z</time>
  <course>0.0</course>
  <speed>0.0</speed>
  <fix>3d</fix>
</trkpt>
<trkpt lat="33.810313" lon="-118.393867">
  <ele>0.0</ele>
  <time>2026-09-01T01:16:54Z</time>
  <course>185.87</course>
  <speed>0.0</speed>
  <fix>3d</fix>
</trkpt>
<trkpt lat="33.810313" lon="-118.393867">
  <ele>-0.13</ele>
  <time>2026-09-01T01:16:54Z</time>
  <course>0.0</course>
  <speed>0.0</speed>
  <fix>3d</fix>
</trkpt>
<trkpt lat="33.810313" lon="-118.393867">
  <ele>0.0</ele>
  <time>2026-09-01T01:16:54Z</time>
  <course>186.01</course>
  <speed>0.0</speed>
  <fix>3d</fix>
</trkpt>
<trkpt lat="33.810313" lon="-118.393867">
  <ele>-0.12</ele>
  <time>2026-09-01T01:16:54Z</time>
  <course>0.0</course>
  <speed>0.0</speed>
  <fix>3d</fix>
</trkpt>
<trkpt lat="33.810313" lon="-118.393867">
  <ele>0.0</ele>
  <time>2026-09-01T01:16:54Z</time>
  <course>186.14</course>
  <speed>0.0</speed>
  <fix>3d</fix>
</trkpt>
<trkpt lat="33.810313" lon="-118.393867">
  <ele>-0.12</ele>
  <time>2026-09-01T01:16:54Z</time>
  <course>0.0</course>
  <speed>0.0</speed>
  <fix>3d</fix>
</trkpt>
<trkpt lat="33.810313" lon="-118.393867">
  <ele>0.0</ele>
  <time>2026-09-01T01:16:54Z</time>
  <course>186.27</course>
  <speed>0.0</speed>
  <fix>3d</fix>
</trkpt>
<trkpt lat="33.810313" lon="-118.393867">
  <ele>-0.12</ele>
  <time>2026-09-01T01:16:54Z</time>
  <course>0.0</course>
  <speed>0.0</speed>
  <fix>3d</fix>
</trkpt>
<trkpt lat="33.810313" lon="-118.393867">
  <ele>0.0</ele>
  <time>2026-09-01T01:16:54Z</time>
  <course>186.39</course>
  <speed>0.0</speed>
  <fix>3d</fix>
</trkpt>
<trkpt lat="33.810313" lon="-118.393867">
  <ele>-0.12</ele>
  <time>2026-09-01T01:16:54Z</time>
  <course>0.0</course>
  <speed>0.0</speed>
  <fix>3d</fix>
</trkpt>
<trkpt lat="33.810313" lon="-118.393867">
  <ele>0.0</ele>
  <time>2026-09-01T01:16:54Z</time>
  <course>186.5</course>
  <speed>0.0</speed>
  <fix>3d</fix>
</trkpt>
<trkpt lat="33.810313" lon="-118.393867">
  <ele>-0.12</ele>
  <time>2026-09-01T01:16:54Z</time>
  <course>0.0</course>
  <speed>0.0</speed>
  <fix>3d</fix>
</trkpt>
<trkpt lat="33.810313" lon="-118.393867">
  <ele>0.0</ele>
  <time>2026-09-01T01:16:54Z</time>
  <course>186.61</course>
  <speed>0.0</speed>
  <fix>3d</fix>
</trkpt>
<trkpt lat="33.810313" lon="-118.393867">
  <ele>-0.12</ele>
  <time>2026-09-01T01:16:54Z</time>
  <course>0.0</course>
  <speed>0.0</speed>
  <fix>3d</fix>
</trkpt>
<trkpt lat="33.810313" lon="-118.393867">
  <ele>0.0</ele>
  <time>2026-09-01T01:16:54Z</time>
  <course>186.72</course>
  <speed>0.0</speed>
  <fix>3d</fix>
</trkpt>
<trkpt lat="33.810313" lon="-118.393867">
  <ele>-0.12</ele>
  <time>2026-09-01T01:16:54Z</time>
  <course>0.0</course>
  <speed>0.0</speed>
  <fix>3d</fix>
</trkpt>
<trkpt lat="33.810313" lon="-118.393867">
  <ele>0.0</ele>
  <time>2026-09-01T01:16:54Z</time>
  <course>186.82</course>
  <speed>0.0</speed>
  <fix>3d</fix>
</trkpt>
<trkpt lat="33.810313" lon="-118.393867">
  <ele>-0.12</ele>
  <time>2026-09-01T01:16:54Z</time>
  <course>0.0</course>
  <speed>0.0</speed>
  <fix>3d</fix>
</trkpt>
<trkpt lat="33.810313" lon="-118.393867">
  <ele>0.0</ele>
  <time>2026-09-01T01:16:54Z</time>
  <course>186.91</course>
  <speed>0.0</speed>
  <fix>3d</fix>
</trkpt>
<trkpt lat="33.810313" lon="-118.393867">
  <ele>-0.12</ele>
  <time>2026-09-01T01:16:54Z</time>
  <course>0.0</course>
  <speed>0.0</speed>
  <fix>3d</fix>
</trkpt>
<trkpt lat="33.810313" lon="-118.393867">
  <ele>0.0</ele>
  <time>2026-09-01T01:16:54Z</time>
  <course>187.0</course>
  <speed>0.0</speed>
  <fix>3d</fix>
</trkpt>
<trkpt lat="33.810313" lon="-118.393867">
  <ele>-0.12</ele>
  <time>2026-09-01T01:16:54Z</time>
  <course>0.0</course>
  <speed>0.0</speed>
  <fix>3d</fix>
</trkpt>
<trkpt lat="33.810313" lon="-118.393867">
  <ele>0.0</ele>
  <time>2026-09-01T01:16:54Z</time>
  <course>187.09</course>
  <speed>0.0</speed>
  <fix>3d</fix>
</trkpt>
<trkpt lat="33.810313" lon="-118.393867">
  <ele>-0.13</ele>
  <time>2026-09-01T01:16:54Z</time>
  <course>0.0</course>
  <speed>0.0</speed>
  <fix>3d</fix>
</trkpt>
<trkpt lat="33.810313" lon="-118.393867">
  <ele>0.0</ele>
  <time>2026-09-01T01:16:54Z</time>
  <course>187.17</course>
  <speed>0.0</speed>
  <fix>3d</fix>
</trkpt>
<trkpt lat="33.810313" lon="-118.393867">
  <ele>-0.13</ele>
  <time>2026-09-01T01:16:54Z</time>
  <course>0.0</course>
  <speed>0.0</speed>
  <fix>3d</fix>
</trkpt>
<trkpt lat="33.810313" lon="-118.393867">
  <ele>0.0</ele>
  <time>2026-09-01T01:16:54Z</time>
  <course>187.25</course>
  <speed>0.0</speed>
  <fix>3d</fix>
</trkpt>
<trkpt lat="33.810313" lon="-118.393867">
  <ele>-0.13</ele>
  <time>2026-09-01T01:16:54Z</time>
  <course>0.0</course>
  <speed>0.0</speed>
  <fix>3d</fix>
</trkpt>
<trkpt lat="33.810313" lon="-118.393867">
  <ele>0.0</ele>
  <time>2026-09-01T01:16:54Z</time>
  <course>187.33</course>
  <speed>0.0</speed>
  <fix>3d</fix>
</trkpt>
<trkpt lat="33.810313" lon="-118.393867">
  <ele>-0.13</ele>
  <time>2026-09-01T01:16:54Z</time>
  <course>0.0</course>
  <speed>0.0</speed>
  <fix>3d</fix>
</trkpt>
<trkpt lat="33.810313" lon="-118.393867">
  <ele>0.0</ele>
  <time>2026-09-01T01:16:54Z</time>
  <course>187.4</course>
  <speed>0.0</speed>
  <fix>3d</fix>
</trkpt>
<trkpt lat="33.810313" lon="-118.393867">
  <ele>-0.13</ele>
  <time>2026-09-01T01:16:54Z</time>
  <course>0.0</course>
  <speed>0.0</speed>
  <fix>3d</fix>
</trkpt>
<trkpt lat="33.810313" lon="-118.393867">
  <ele>0.0</ele>
  <time>2026-09-01T01:16:54Z</time>
  <course>187.47</course>
  <speed>0.0</speed>
  <fix>3d</fix>
</trkpt>
<trkpt lat="33.810313" lon="-118.393867">
  <ele>-0.13</ele>
  <time>2026-09-01T01:16:54Z</time>
  <course>0.0</course>
  <speed>0.0</speed>
  <fix>3d</fix>
</trkpt>
<trkpt lat="33.810313" lon="-118.393867">
  <ele>0.0</ele>
  <time>2026-09-01T01:16:54Z</time>
  <course>187.53</course>
  <speed>0.0</speed>
  <fix>3d</fix>
</trkpt>
<trkpt lat="33.810313" lon="-118.393867">
  <ele>-0.13</ele>
  <time>2026-09-01T01:16:54Z</time>
  <course>0.0</course>
  <speed>0.0</speed>
  <fix>3d</fix>
</trkpt>
<trkpt lat="33.810313" lon="-118.393867">
  <ele>0.0</ele>
  <time>2026-09-01T01:16:54Z</time>
  <course>187.59</course>
  <speed>0.0</speed>
  <fix>3d</fix>
</trkpt>
<trkpt lat="33.810313" lon="-118.393867">
  <ele>-0.13</ele>
  <time>2026-09-01T01:16:54Z</time>
  <course>0.0</course>
  <speed>0.0</speed>
  <fix>3d</fix>
</trkpt>
<trkpt lat="33.810313" lon="-118.393867">
  <ele>0.0</ele>
  <time>2026-09-01T01:16:54Z</time>
  <course>187.65</course>
  <speed>0.0</speed>
  <fix>3d</fix>
</trkpt>
<trkpt lat="33.810313" lon="-118.393867">
  <ele>-0.12</ele>
  <time>2026-09-01T01:16:54Z</time>
  <course>0.0</course>
  <speed>0.0</speed>
  <fix>3d</fix>
</trkpt>
<trkpt lat="33.810313" lon="-118.393867">
  <ele>0.0</ele>
  <time>2026-09-01T01:16:54Z</time>
  <course>187.71</course>
  <speed>0.0</speed>
  <fix>3d</fix>
</trkpt>
<trkpt lat="33.810313" lon="-118.393867">
  <ele>-0.12</ele>
  <time>2026-09-01T01:16:54Z</time>
  <course>0.0</course>
  <speed>0.0</speed>
  <fix>3d</fix>
</trkpt>
<trkpt lat="33.810313" lon="-118.393867">
  <ele>0.0</ele>
  <time>2026-09-01T01:16:54Z</time>
  <course>187.76</course>
  <speed>0.0</speed>
  <fix>3d</fix>
</trkpt>
<trkpt lat="33.810313" lon="-118.393867">
  <ele>-0.12</ele>
  <time>2026-09-01T01:16:54Z</time>
  <course>0.0</course>
  <speed>0.0</speed>
  <fix>3d</fix>
</trkpt>
<trkpt lat="33.810313" lon="-118.393867">
  <ele>0.0</ele>
  <time>2026-09-01T01:16:54Z</time>
  <course>187.81</course>
  <speed>0.0</speed>
  <fix>3d</fix>
</trkpt>
<trkpt lat="33.810313" lon="-118.393867">
  <ele>-0.12</ele>
  <time>2026-09-01T01:16:54Z</time>
  <course>0.0</course>
  <speed>0.0</speed>
  <fix>3d</fix>
</trkpt>
<trkpt lat="33.810313" lon="-118.393867">
  <ele>0.0</ele>
  <time>2026-09-01T01:16:54Z</time>
  <course>187.86</course>
  <speed>0.0</speed>
  <fix>3d</fix>
</trkpt>
<trkpt lat="33.810313" lon="-118.393867">
  <ele>-0.12</ele>
  <time>2026-09-01T01:16:54Z</time>
  <course>0.0</course>
  <speed>0.0</speed>
  <fix>3d</fix>
</trkpt>
<trkpt lat="33.810313" lon="-118.393867">
  <ele>0.0</ele>
  <time>2026-09-01T01:16:54Z</time>
  <course>187.91</course>
  <speed>0.0</speed>
  <fix>3d</fix>
</trkpt>
<trkpt lat="33.810313" lon="-118.393867">
  <ele>-0.12</ele>
  <time>2026-09-01T01:16:54Z</time>
  <course>0.0</course>
  <speed>0.0</speed>
  <fix>3d</fix>
</trkpt>
<trkpt lat="33.810313" lon="-118.393867">
  <ele>0.0</ele>
  <time>2026-09-01T01:16:54Z</time>
  <course>187.95</course>
  <speed>0.0</speed>
  <fix>3d</fix>
</trkpt>
<trkpt lat="33.810313" lon="-118.393867">
  <ele>-0.12</ele>
  <time>2026-09-01T01:16:54Z</time>
  <course>0.0</course>
  <speed>0.0</speed>
  <fix>3d</fix>
</trkpt>
<trkpt lat="33.810313" lon="-118.393867">
  <ele>0.0</ele>
  <time>2026-09-01T01:16:54Z</time>
  <course>187.99</course>
  <speed>0.0</speed>
  <fix>3d</fix>
</trkpt>
<trkpt lat="33.810313" lon="-118.393867">
  <ele>-0.12</ele>
  <time>2026-09-01T01:16:54Z</time>
  <course>0.0</course>
  <speed>0.0</speed>
  <fix>3d</fix>
</trkpt>
<trkpt lat="33.810313" lon="-118.393867">
  <ele>0.0</ele>
  <time>2026-09-01T01:16:54Z</time>
  <course>188.03</course>
  <speed>0.0</speed>
  <fix>3d</fix>
</trkpt>
<trkpt lat="33.810313" lon="-118.393867">
  <ele>-0.12</ele>
  <time>2026-09-01T01:16:54Z</time>
  <course>0.0</course>
  <speed>0.0</speed>
  <fix>3d</fix>
</trkpt>
<trkpt lat="33.810313" lon="-118.393867">
  <ele>0.0</ele>
  <time>2026-09-01T01:16:54Z</time>
  <course>188.07</course>
  <speed>0.0</speed>
  <fix>3d</fix>
</trkpt>
<trkpt lat="33.810313" lon="-118.393867">
  <ele>-0.12</ele>
  <time>2026-09-01T01:16:54Z</time>
  <course>0.0</course>
  <speed>0.0</speed>
  <fix>3d</fix>
</trkpt>
<trkpt lat="33.810313" lon="-118.393867">
  <ele>0.0</ele>
  <time>2026-09-01T01:16:54Z</time>
  <course>188.1</course>
  <speed>0.0</speed>
  <fix>3d</fix>
</trkpt>
<trkpt lat="33.810313" lon="-118.393867">
  <ele>-0.13</ele>
  <time>2026-09-01T01:16:54Z</time>
  <course>0.0</course>
  <speed>0.0</speed>
  <fix>3d</fix>
</trkpt>
<trkpt lat="33.810313" lon="-118.393867">
  <ele>0.0</ele>
  <time>2026-09-01T01:16:54Z</time>
  <course>188.13</course>
  <speed>0.0</speed>
  <fix>3d</fix>
</trkpt>
<trkpt lat="33.810313" lon="-118.393867">
  <ele>-0.13</ele>
  <time>2026-09-01T01:16:54Z</time>
  <course>0.0</course>
  <speed>0.0</speed>
  <fix>3d</fix>
</trkpt>
<trkpt lat="33.810313" lon="-118.393867">
  <ele>0.0</ele>
  <time>2026-09-01T01:16:54Z</time>
  <course>188.17</course>
  <speed>0.0</speed>
  <fix>3d</fix>
</trkpt>
<trkpt lat="33.810313" lon="-118.393867">
  <ele>-0.13</ele>
  <time>2026-09-01T01:16:54Z</time>
  <course>0.0</course>
  <speed>0.0</speed>
  <fix>3d</fix>
</trkpt>
<trkpt lat="33.810313" lon="-118.393867">
  <ele>0.0</ele>
  <time>2026-09-01T01:16:54Z</time>
  <course>188.19</course>
  <speed>0.0</speed>
  <fix>3d</fix>
</trkpt>
<trkpt lat="33.810313" lon="-118.393867">
  <ele>-0.13</ele>
  <time>2026-09-01T01:16:54Z</time>
  <course>0.0</course>
  <speed>0.0</speed>
  <fix>3d</fix>
</trkpt>
<trkpt lat="33.810313" lon="-118.393867">
  <ele>0.0</ele>
  <time>2026-09-01T01:16:54Z</time>
  <course>188.22</course>
  <speed>0.0</speed>
  <fix>3d</fix>
</trkpt>
<trkpt lat="33.810313" lon="-118.393867">
  <ele>-0.13</ele>
  <time>2026-09-01T01:16:54Z</time>
  <course>0.0</course>
  <speed>0.0</speed>
  <fix>3d</fix>
</trkpt>
<trkpt lat="33.810313" lon="-118.393867">
  <ele>0.0</ele>
  <time>2026-09-01T01:16:54Z</time>
  <course>188.25</course>
  <speed>0.0</speed>
  <fix>3d</fix>
</trkpt>
<trkpt lat="33.810313" lon="-118.393867">
  <ele>-0.13</ele>
  <time>2026-09-01T01:16:54Z</time>
  <course>0.0</course>
  <speed>0.0</speed>
  <fix>3d</fix>
</trkpt>
<trkpt lat="33.810313" lon="-118.393867">
  <ele>0.0</ele>
  <time>2026-09-01T01:16:54Z</time>
  <course>188.27</course>
  <speed>0.0</speed>
  <fix>3d</fix>
</trkpt>
<trkpt lat="33.810313" lon="-118.393867">
  <ele>-0.12</ele>
  <time>2026-09-01T01:16:54Z</time>
  <course>0.0</course>
  <speed>0.0</speed>
  <fix>3d</fix>
</trkpt>
<trkpt lat="33.810313" lon="-118.393867">
  <ele>0.0</ele>
  <time>2026-09-01T01:16:54Z</time>
  <course>188.3</course>
  <speed>0.0</speed>
  <fix>3d</fix>
</trkpt>
<trkpt lat="33.810313" lon="-118.393867">
  <ele>-0.12</ele>
  <time>2026-09-01T01:16:54Z</time>
  <course>0.0</course>
  <speed>0.0</speed>
  <fix>3d</fix>
</trkpt>
<trkpt lat="33.810313" lon="-118.393867">
  <ele>0.0</ele>
  <time>2026-09-01T01:16:54Z</time>
  <course>188.32</course>
  <speed>0.0</speed>
  <fix>3d</fix>
</trkpt>
<trkpt lat="33.810313" lon="-118.393867">
  <ele>-0.12</ele>
  <time>2026-09-01T01:16:54Z</time>
  <course>0.0</course>
  <speed>0.0</speed>
  <fix>3d</fix>
</trkpt>
<trkpt lat="33.810313" lon="-118.393867">
  <ele>0.0</ele>
  <time>2026-09-01T01:16:54Z</time>
  <course>188.34</course>
  <speed>0.0</speed>
  <fix>3d</fix>
</trkpt>
<trkpt lat="33.810313" lon="-118.393867">
  <ele>-0.12</ele>
  <time>2026-09-01T01:16:54Z</time>
  <course>0.0</course>
  <speed>0.0</speed>
  <fix>3d</fix>
</trkpt>
<trkpt lat="33.810313" lon="-118.393867">
  <ele>0.0</ele>
  <time>2026-09-01T01:16:54Z</time>
  <course>188.36</course>
  <speed>0.0</speed>
  <fix>3d</fix>
</trkpt>
<trkpt lat="33.810313" lon="-118.393867">
  <ele>-0.12</ele>
  <time>2026-09-01T01:16:54Z</time>
  <course>0.0</course>
  <speed>0.0</speed>
  <fix>3d</fix>
</trkpt>
<trkpt lat="33.810313" lon="-118.393867">
  <ele>0.0</ele>
  <time>2026-09-01T01:16:54Z</time>
  <course>188.38</course>
  <speed>0.0</speed>
  <fix>3d</fix>
</trkpt>
<trkpt lat="33.810313" lon="-118.393867">
  <ele>-0.12</ele>
  <time>2026-09-01T01:16:54Z</time>
  <course>0.0</course>
  <speed>0.0</speed>
  <fix>3d</fix>
</trkpt>
<trkpt lat="33.810313" lon="-118.393867">
  <ele>0.0</ele>
  <time>2026-09-01T01:16:54Z</time>
  <course>188.39</course>
  <speed>0.0</speed>
  <fix>3d</fix>
</trkpt>
<trkpt lat="33.810313" lon="-118.393867">
  <ele>-0.12</ele>
  <time>2026-09-01T01:16:54Z</time>
  <course>0.0</course>
  <speed>0.0</speed>
  <fix>3d</fix>
</trkpt>
<trkpt lat="33.810313" lon="-118.393867">
  <ele>0.0</ele>
  <time>2026-09-01T01:16:54Z</time>
  <course>188.41</course>
  <speed>0.0</speed>
  <fix>3d</fix>
</trkpt>
<trkpt lat="33.810313" lon="-118.393867">
  <ele>-0.12</ele>
  <time>2026-09-01T01:16:54Z</time>
  <course>0.0</course>
  <speed>0.0</speed>
  <fix>3d</fix>
</trkpt>
<trkpt lat="33.810313" lon="-118.393867">
  <ele>0.0</ele>
  <time>2026-09-01T01:16:54Z</time>
  <course>188.43</course>
  <speed>0.0</speed>
  <fix>3d</fix>
</trkpt>
<trkpt lat="33.810313" lon="-118.393867">
  <ele>-0.12</ele>
  <time>2026-09-01T01:16:54Z</time>
  <course>0.0</course>
  <speed>0.0</speed>
  <fix>3d</fix>
</trkpt>
<trkpt lat="33.810313" lon="-118.393867">
  <ele>0.0</ele>
  <time>2026-09-01T01:16:54Z</time>
  <course>188.44</course>
  <speed>0.0</speed>
  <fix>3d</fix>
</trkpt>
<trkpt lat="33.810313" lon="-118.393867">
  <ele>-0.12</ele>
  <time>2026-09-01T01:16:54Z</time>
  <course>0.0</course>
  <speed>0.0</speed>
  <fix>3d</fix>
</trkpt>
<trkpt lat="33.810313" lon="-118.393867">
  <ele>0.0</ele>
  <time>2026-09-01T01:16:54Z</time>
  <course>188.45</course>
  <speed>0.0</speed>
  <fix>3d</fix>
</trkpt>
<trkpt lat="33.810313" lon="-118.393867">
  <ele>-0.13</ele>
  <time>2026-09-01T01:16:54Z</time>
  <course>0.0</course>
  <speed>0.0</speed>
  <fix>3d</fix>
</trkpt>
<trkpt lat="33.810313" lon="-118.393867">
  <ele>0.0</ele>
  <time>2026-09-01T01:16:54Z</time>
  <course>188.46</course>
  <speed>0.0</speed>
  <fix>3d</fix>
</trkpt>
<trkpt lat="33.810313" lon="-118.393867">
  <ele>-0.13</ele>
  <time>2026-09-01T01:16:54Z</time>
  <course>0.0</course>
  <speed>0.0</speed>
  <fix>3d</fix>
</trkpt>
<trkpt lat="33.810313" lon="-118.393867">
  <ele>0.0</ele>
  <time>2026-09-01T01:16:54Z</time>
  <course>188.48</course>
  <speed>0.0</speed>
  <fix>3d</fix>
</trkpt>
<trkpt lat="33.810313" lon="-118.393867">
  <ele>-0.13</ele>
  <time>2026-09-01T01:16:54Z</time>
  <course>0.0</course>
  <speed>0.0</speed>
  <fix>3d</fix>
</trkpt>
<trkpt lat="33.810313" lon="-118.393867">
  <ele>0.0</ele>
  <time>2026-09-01T01:16:54Z</time>
  <course>188.49</course>
  <speed>0.0</speed>
  <fix>3d</fix>
</trkpt>
<trkpt lat="33.810313" lon="-118.393867">
  <ele>-0.13</ele>
  <time>2026-09-01T01:16:54Z</time>
  <course>0.0</course>
  <speed>0.0</speed>
  <fix>3d</fix>
</trkpt>
<trkpt lat="33.810313" lon="-118.393867">
  <ele>0.0</ele>
  <time>2026-09-01T01:16:54Z</time>
  <course>188.49</course>
  <speed>0.0</speed>
  <fix>3d</fix>
</trkpt>
<trkpt lat="33.810313" lon="-118.393867">
  <ele>-0.13</ele>
  <time>2026-09-01T01:16:54Z</time>
  <course>0.0</course>
  <speed>0.0</speed>
  <fix>3d</fix>
</trkpt>
<trkpt lat="33.810313" lon="-118.393867">
  <ele>0.0</ele>
  <time>2026-09-01T01:16:54Z</time>
  <course>188.5</course>
  <speed>0.0</speed>
  <fix>3d</fix>
</trkpt>
<trkpt lat="33.810313" lon="-118.393867">
  <ele>-0.13</ele>
  <time>2026-09-01T01:16:54Z</time>
  <course>0.0</course>
  <speed>0.0</speed>
  <fix>3d</fix>
</trkpt>
<trkpt lat="33.810313" lon="-118.393867">
  <ele>0.0</ele>
  <time>2026-09-01T01:16:54Z</time>
  <course>188.51</course>
  <speed>0.0</speed>
  <fix>3d</fix>
</trkpt>
<trkpt lat="33.810313" lon="-118.393867">
  <ele>-0.12</ele>
  <time>2026-09-01T01:16:54Z</time>
  <course>0.0</course>
  <speed>0.0</speed>
  <fix>3d</fix>
</trkpt>
<trkpt lat="33.810313" lon="-118.393867">
  <ele>0.0</ele>
  <time>2026-09-01T01:16:54Z</time>
  <course>188.52</course>
  <speed>0.0</speed>
  <fix>3d</fix>
</trkpt>
<trkpt lat="33.810313" lon="-118.393867">
  <ele>-0.12</ele>
  <time>2026-09-01T01:16:54Z</time>
  <course>0.0</course>
  <speed>0.0</speed>
  <fix>3d</fix>
</trkpt>
<trkpt lat="33.810313" lon="-118.393867">
  <ele>0.0</ele>
  <time>2026-09-01T01:16:54Z</time>
  <course>188.53</course>
  <speed>0.0</speed>
  <fix>3d</fix>
</trkpt>
<trkpt lat="33.810313" lon="-118.393867">
  <ele>-0.12</ele>
  <time>2026-09-01T01:16:54Z</time>
  <course>0.0</course>
  <speed>0.0</speed>
  <fix>3d</fix>
</trkpt>
<trkpt lat="33.810313" lon="-118.393867">
  <ele>0.0</ele>
  <time>2026-09-01T01:16:54Z</time>
  <course>188.53</course>
  <speed>0.0</speed>
  <fix>3d</fix>
</trkpt>
<trkpt lat="33.810313" lon="-118.393867">
  <ele>-0.12</ele>
  <time>2026-09-01T01:16:54Z</time>
  <course>0.0</course>
  <speed>0.0</speed>
  <fix>3d</fix>
</trkpt>
<trkpt lat="33.810313" lon="-118.393867">
  <ele>0.0</ele>
  <time>2026-09-01T01:16:54Z</time>
  <course>188.54</course>
  <speed>0.0</speed>
  <fix>3d</fix>
</trkpt>
<trkpt lat="33.810313" lon="-118.393867">
  <ele>-0.12</ele>
  <time>2026-09-01T01:16:54Z</time>
  <course>0.0</course>
  <speed>0.0</speed>
  <fix>3d</fix>
</trkpt>
<trkpt lat="33.810313" lon="-118.393867">
  <ele>0.0</ele>
  <time>2026-09-01T01:16:54Z</time>
  <course>188.54</course>
  <speed>0.0</speed>
  <fix>3d</fix>
</trkpt>
<trkpt lat="33.810313" lon="-118.393867">
  <ele>-0.12</ele>
  <time>2026-09-01T01:16:54Z</time>
  <course>0.0</course>
  <speed>0.0</speed>
  <fix>3d</fix>
</trkpt>
<trkpt lat="33.810313" lon="-118.393867">
  <ele>0.0</ele>
  <time>2026-09-01T01:16:54Z</time>
  <course>188.54</course>
  <speed>0.0</speed>
  <fix>3d</fix>
</trkpt>
<trkpt lat="33.810313" lon="-118.393867">
  <ele>-0.12</ele>
  <time>2026-09-01T01:16:54Z</time>
  <course>0.0</course>
  <speed>0.0</speed>
  <fix>3d</fix>
</trkpt>
<trkpt lat="33.810313" lon="-118.393867">
  <ele>0.0</ele>
  <time>2026-09-01T01:16:54Z</time>
  <course>188.55</course>
  <speed>0.0</speed>
  <fix>3d</fix>
</trkpt>
<trkpt lat="33.810313" lon="-118.393867">
  <ele>-0.12</ele>
  <time>2026-09-01T01:16:54Z</time>
  <course>0.0</course>
  <speed>0.0</speed>
  <fix>3d</fix>
</trkpt>
<trkpt lat="33.810313" lon="-118.393867">
  <ele>0.0</ele>
  <time>2026-09-01T01:16:54Z</time>
  <course>188.55</course>
  <speed>0.0</speed>
  <fix>3d</fix>
</trkpt>
<trkpt lat="33.810313" lon="-118.393867">
  <ele>-0.12</ele>
  <time>2026-09-01T01:16:54Z</time>
  <course>0.0</course>
  <speed>0.0</speed>
  <fix>3d</fix>
</trkpt>
<trkpt lat="33.810313" lon="-118.393867">
  <ele>0.0</ele>
  <time>2026-09-01T01:16:54Z</time>
  <course>188.55</course>
  <speed>0.0</speed>
  <fix>3d</fix>
</trkpt>
<trkpt lat="33.810313" lon="-118.393867">
  <ele>-0.12</ele>
  <time>2026-09-01T01:16:54Z</time>
  <course>0.0</course>
  <speed>0.0</speed>
  <fix>3d</fix>
</trkpt>
<trkpt lat="33.810313" lon="-118.393867">
  <ele>-0.126</ele>
  <time>2026-09-01T01:16:54Z</time>
  <course>188.55</course>
  <speed>0.0</speed>
  <fix>3d</fix>
</trkpt>
<trkpt lat="33.810313" lon="-118.393867">
  <ele>-0.13</ele>
  <time>2026-09-01T01:16:54Z</time>
  <course>0.0</course>
  <speed>0.0</speed>
  <fix>3d</fix>
</trkpt>
<trkpt lat="33.810313" lon="-118.393867">
  <ele>-0.126</ele>
  <time>2026-09-01T01:16:54Z</time>
  <course>188.56</course>
  <speed>0.0</speed>
  <fix>3d</fix>
</trkpt>
<trkpt lat="33.810313" lon="-118.393867">
  <ele>-0.13</ele>
  <time>2026-09-01T01:16:54Z</time>
  <course>0.0</course>
  <speed>0.0</speed>
  <fix>3d</fix>
</trkpt>
<trkpt lat="33.810313" lon="-118.393867">
  <ele>-0.124</ele>
  <time>2026-09-01T01:16:54Z</time>
  <course>188.56</course>
  <speed>0.0</speed>
  <fix>3d</fix>
</trkpt>
<trkpt lat="33.810313" lon="-118.393867">
  <ele>-0.13</ele>
  <time>2026-09-01T01:16:54Z</time>
  <course>0.0</course>
  <speed>0.0</speed>
  <fix>3d</fix>
</trkpt>
<trkpt lat="33.810313" lon="-118.393867">
  <ele>-0.123</ele>
  <time>2026-09-01T01:16:54Z</time>
  <course>188.56</course>
  <speed>0.0</speed>
  <fix>3d</fix>
</trkpt>
<trkpt lat="33.810313" lon="-118.393867">
  <ele>-0.13</ele>
  <time>2026-09-01T01:16:54Z</time>
  <course>0.0</course>
  <speed>0.0</speed>
  <fix>3d</fix>
</trkpt>
<trkpt lat="33.810313" lon="-118.393867">
  <ele>-0.121</ele>
  <time>2026-09-01T01:16:54Z</time>
  <course>188.56</course>
  <speed>0.0</speed>
  <fix>3d</fix>
</trkpt>
<trkpt lat="33.810313" lon="-118.393867">
  <ele>-0.12</ele>
  <time>2026-09-01T01:16:54Z</time>
  <course>0.0</course>
  <speed>0.0</speed>
  <fix>3d</fix>
</trkpt>
<trkpt lat="33.810313" lon="-118.393867">
  <ele>-0.12</ele>
  <time>2026-09-01T01:16:54Z</time>
  <course>188.56</course>
  <speed>0.0</speed>
  <fix>3d</fix>
</trkpt>
<trkpt lat="33.810313" lon="-118.393867">
  <ele>-0.12</ele>
  <time>2026-09-01T01:16:54Z</time>
  <course>0.0</course>
  <speed>0.0</speed>
  <fix>3d</fix>
</trkpt>
<trkpt lat="33.810313" lon="-118.393867">
  <ele>-0.119</ele>
  <time>2026-09-01T01:16:54Z</time>
  <course>188.56</course>
  <speed>0.0</speed>
  <fix>3d</fix>
</trkpt>
<trkpt lat="33.810313" lon="-118.393867">
  <ele>-0.12</ele>
  <time>2026-09-01T01:16:54Z</time>
  <course>0.0</course>
  <speed>0.0</speed>
  <fix>3d</fix>
</trkpt>
<trkpt lat="33.810313" lon="-118.393867">
  <ele>-0.12</ele>
  <time>2026-09-01T01:16:54Z</time>
  <course>188.56</course>
  <speed>0.0</speed>
  <fix>3d</fix>
</trkpt>
<trkpt lat="33.810313" lon="-118.393867">
  <ele>-0.12</ele>
  <time>2026-09-01T01:16:54Z</time>
  <course>0.0</course>
  <speed>0.0</speed>
  <fix>3d</fix>
</trkpt>
<trkpt lat="33.810313" lon="-118.393867">
  <ele>-0.124</ele>
  <time>2026-09-01T01:16:54Z</time>
  <course>188.55</course>
  <speed>0.0</speed>
  <fix>3d</fix>
</trkpt>
<trkpt lat="33.810313" lon="-118.393867">
  <ele>-0.12</ele>
  <time>2026-09-01T01:16:54Z</time>
  <course>0.0</course>
  <speed>0.0</speed>
  <fix>3d</fix>
</trkpt>
<trkpt lat="33.810313" lon="-118.393867">
  <ele>-0.127</ele>
  <time>2026-09-01T01:16:54Z</time>
  <course>188.55</course>
  <speed>0.0</speed>
  <fix>3d</fix>
</trkpt>
<trkpt lat="33.810313" lon="-118.393867">
  <ele>-0.12</ele>
  <time>2026-09-01T01:16:54Z</time>
  <course>0.0</course>
  <speed>0.0</speed>
  <fix>3d</fix>
</trkpt>
<trkpt lat="33.810313" lon="-118.393867">
  <ele>-0.13</ele>
  <time>2026-09-01T01:16:54Z</time>
  <course>188.55</course>
  <speed>0.0</speed>
  <fix>3d</fix>
</trkpt>
<trkpt lat="33.810313" lon="-118.393867">
  <ele>-0.12</ele>
  <time>2026-09-01T01:16:54Z</time>
  <course>0.0</course>
  <speed>0.0</speed>
  <fix>3d</fix>
</trkpt>
<trkpt lat="33.810313" lon="-118.393867">
  <ele>-0.132</ele>
  <time>2026-09-01T01:16:54Z</time>
  <course>188.55</course>
  <speed>0.0</speed>
  <fix>3d</fix>
</trkpt>
<trkpt lat="33.810313" lon="-118.393867">
  <ele>-0.12</ele>
  <time>2026-09-01T01:16:54Z</time>
  <course>0.0</course>
  <speed>0.0</speed>
  <fix>3d</fix>
</trkpt>
<trkpt lat="33.810313" lon="-118.393867">
  <ele>-0.132</ele>
  <time>2026-09-01T01:16:54Z</time>
  <course>188.55</course>
  <speed>0.0</speed>
  <fix>3d</fix>
</trkpt>
<trkpt lat="33.810313" lon="-118.393867">
  <ele>-0.12</ele>
  <time>2026-09-01T01:16:54Z</time>
  <course>0.0</course>
  <speed>0.0</speed>
  <fix>3d</fix>
</trkpt>
<trkpt lat="33.810313" lon="-118.393867">
  <ele>-0.132</ele>
  <time>2026-09-01T01:16:54Z</time>
  <course>188.55</course>
  <speed>0.0</speed>
  <fix>3d</fix>
</trkpt>
<trkpt lat="33.810313" lon="-118.393867">
  <ele>-0.12</ele>
  <time>2026-09-01T01:16:54Z</time>
  <course>0.0</course>
  <speed>0.0</speed>
  <fix>3d</fix>
</trkpt>
<trkpt lat="33.810313" lon="-118.393867">
  <ele>-0.132</ele>
  <time>2026-09-01T01:16:54Z</time>
  <course>188.55</course>
  <speed>0.0</speed>
  <fix>3d</fix>
</trkpt>
<trkpt lat="33.810313" lon="-118.393867">
  <ele>-0.12</ele>
  <time>2026-09-01T01:16:54Z</time>
  <course>0.0</course>
  <speed>0.0</speed>
  <fix>3d</fix>
</trkpt>
<trkpt lat="33.810313" lon="-118.393867">
  <ele>-0.131</ele>
  <time>2026-09-01T01:16:54Z</time>
  <course>188.55</course>
  <speed>0.0</speed>
  <fix>3d</fix>
</trkpt>
<trkpt lat="33.810313" lon="-118.393867">
  <ele>-0.12</ele>
  <time>2026-09-01T01:16:54Z</time>
  <course>0.0</course>
  <speed>0.0</speed>
  <fix>3d</fix>
</trkpt>
<trkpt lat="33.810313" lon="-118.393867">
  <ele>-0.129</ele>
  <time>2026-09-01T01:16:54Z</time>
  <course>188.54</course>
  <speed>0.0</speed>
  <fix>3d</fix>
</trkpt>
<trkpt lat="33.810313" lon="-118.393867">
  <ele>-0.13</ele>
  <time>2026-09-01T01:16:54Z</time>
  <course>0.0</course>
  <speed>0.0</speed>
  <fix>3d</fix>
</trkpt>
<trkpt lat="33.810313" lon="-118.393867">
  <ele>-0.128</ele>
  <time>2026-09-01T01:16:54Z</time>
  <course>188.54</course>
  <speed>0.0</speed>
  <fix>3d</fix>
</trkpt>
<trkpt lat="33.810313" lon="-118.393867">
  <ele>-0.13</ele>
  <time>2026-09-01T01:16:54Z</time>
  <course>0.0</course>
  <speed>0.0</speed>
  <fix>3d</fix>
</trkpt>
<trkpt lat="33.810313" lon="-118.393867">
  <ele>-0.125</ele>
  <time>2026-09-01T01:16:54Z</time>
  <course>188.53</course>
  <speed>0.0</speed>
  <fix>3d</fix>
</trkpt>
<trkpt lat="33.810313" lon="-118.393867">
  <ele>-0.12</ele>
  <time>2026-09-01T01:16:54Z</time>
  <course>0.0</course>
  <speed>0.0</speed>
  <fix>3d</fix>
</trkpt>
<trkpt lat="33.810313" lon="-118.393867">
  <ele>-0.123</ele>
  <time>2026-09-01T01:16:54Z</time>
  <course>188.53</course>
  <speed>0.0</speed>
  <fix>3d</fix>
</trkpt>
<trkpt lat="33.810313" lon="-118.393867">
  <ele>-0.12</ele>
  <time>2026-09-01T01:16:54Z</time>
  <course>0.0</course>
  <speed>0.0</speed>
  <fix>3d</fix>
</trkpt>
<trkpt lat="33.810313" lon="-118.393867">
  <ele>-0.121</ele>
  <time>2026-09-01T01:16:54Z</time>
  <course>188.52</course>
  <speed>0.0</speed>
  <fix>3d</fix>
</trkpt>
<trkpt lat="33.810313" lon="-118.393867">
  <ele>-0.12</ele>
  <time>2026-09-01T01:16:54Z</time>
  <course>0.0</course>
  <speed>0.0</speed>
  <fix>3d</fix>
</trkpt>
<trkpt lat="33.810313" lon="-118.393867">
  <ele>-0.121</ele>
  <time>2026-09-01T01:16:54Z</time>
  <course>188.52</course>
  <speed>0.0</speed>
  <fix>3d</fix>
</trkpt>
<trkpt lat="33.810313" lon="-118.393867">
  <ele>-0.12</ele>
  <time>2026-09-01T01:16:54Z</time>
  <course>0.0</course>
  <speed>0.0</speed>
  <fix>3d</fix>
</trkpt>
<trkpt lat="33.810313" lon="-118.393867">
  <ele>-0.122</ele>
  <time>2026-09-01T01:16:54Z</time>
  <course>188.51</course>
  <speed>0.0</speed>
  <fix>3d</fix>
</trkpt>
<trkpt lat="33.810313" lon="-118.393867">
  <ele>-0.12</ele>
  <time>2026-09-01T01:16:54Z</time>
  <course>0.0</course>
  <speed>0.0</speed>
  <fix>3d</fix>
</trkpt>
<trkpt lat="33.810313" lon="-118.393867">
  <ele>-0.123</ele>
  <time>2026-09-01T01:16:54Z</time>
  <course>188.51</course>
  <speed>0.0</speed>
  <fix>3d</fix>
</trkpt>
<trkpt lat="33.810313" lon="-118.393867">
  <ele>-0.12</ele>
  <time>2026-09-01T01:16:54Z</time>
  <course>0.0</course>
  <speed>0.0</speed>
  <fix>3d</fix>
</trkpt>
<trkpt lat="33.810313" lon="-118.393867">
  <ele>-0.126</ele>
  <time>2026-09-01T01:16:54Z</time>
  <course>188.5</course>
  <speed>0.0</speed>
  <fix>3d</fix>
</trkpt>
<trkpt lat="33.810313" lon="-118.393867">
  <ele>-0.12</ele>
  <time>2026-09-01T01:16:54Z</time>
  <course>0.0</course>
  <speed>0.0</speed>
  <fix>3d</fix>
</trkpt>
<trkpt lat="33.810313" lon="-118.393867">
  <ele>-0.127</ele>
  <time>2026-09-01T01:16:54Z</time>
  <course>188.5</course>
  <speed>0.0</speed>
  <fix>3d</fix>
</trkpt>
<trkpt lat="33.810313" lon="-118.393867">
  <ele>-0.12</ele>
  <time>2026-09-01T01:16:54Z</time>
  <course>0.0</course>
  <speed>0.0</speed>
  <fix>3d</fix>
</trkpt>
<trkpt lat="33.810313" lon="-118.393867">
  <ele>-0.128</ele>
  <time>2026-09-01T01:16:54Z</time>
  <course>188.49</course>
  <speed>0.0</speed>
  <fix>3d</fix>
</trkpt>
<trkpt lat="33.810313" lon="-118.393867">
  <ele>-0.12</ele>
  <time>2026-09-01T01:16:54Z</time>
  <course>0.0</course>
  <speed>0.0</speed>
  <fix>3d</fix>
</trkpt>
<trkpt lat="33.810313" lon="-118.393867">
  <ele>-0.127</ele>
  <time>2026-09-01T01:16:54Z</time>
  <course>188.48</course>
  <speed>0.0</speed>
  <fix>3d</fix>
</trkpt>
<trkpt lat="33.810313" lon="-118.393867">
  <ele>-0.12</ele>
  <time>2026-09-01T01:16:54Z</time>
  <course>0.0</course>
  <speed>0.0</speed>
  <fix>3d</fix>
</trkpt>
<trkpt lat="33.810313" lon="-118.393867">
  <ele>-0.127</ele>
  <time>2026-09-01T01:16:54Z</time>
  <course>188.48</course>
  <speed>0.0</speed>
  <fix>3d</fix>
</trkpt>
<trkpt lat="33.810313" lon="-118.393867">
  <ele>-0.12</ele>
  <time>2026-09-01T01:16:54Z</time>
  <course>0.0</course>
  <speed>0.0</speed>
  <fix>3d</fix>
</trkpt>
<trkpt lat="33.810313" lon="-118.393867">
  <ele>-0.127</ele>
  <time>2026-09-01T01:16:54Z</time>
  <course>188.47</course>
  <speed>0.01</speed>
  <fix>3d</fix>
</trkpt>
<trkpt lat="33.810313" lon="-118.393867">
  <ele>-0.12</ele>
  <time>2026-09-01T01:16:54Z</time>
  <course>0.0</course>
  <speed>0.0</speed>
  <fix>3d</fix>
</trkpt>
<trkpt lat="33.810313" lon="-118.393867">
  <ele>-0.127</ele>
  <time>2026-09-01T01:16:54Z</time>
  <course>188.47</course>
  <speed>0.01</speed>
  <fix>3d</fix>
</trkpt>
<trkpt lat="33.810313" lon="-118.393867">
  <ele>-0.12</ele>
  <time>2026-09-01T01:16:54Z</time>
  <course>0.0</course>
  <speed>0.0</speed>
  <fix>3d</fix>
</trkpt>
<trkpt lat="33.810313" lon="-118.393867">
  <ele>-0.126</ele>
  <time>2026-09-01T01:16:54Z</time>
  <course>188.46</course>
  <speed>0.01</speed>
  <fix>3d</fix>
</trkpt>
<trkpt lat="33.810313" lon="-118.393867">
  <ele>-0.12</ele>
  <time>2026-09-01T01:16:54Z</time>
  <course>0.0</course>
  <speed>0.0</speed>
  <fix>3d</fix>
</trkpt>
<trkpt lat="33.810313" lon="-118.393867">
  <ele>-0.126</ele>
  <time>2026-09-01T01:16:54Z</time>
  <course>188.45</course>
  <speed>0.01</speed>
  <fix>3d</fix>
</trkpt>
<trkpt lat="33.810313" lon="-118.393867">
  <ele>-0.12</ele>
  <time>2026-09-01T01:16:54Z</time>
  <course>0.0</course>
  <speed>0.0</speed>
  <fix>3d</fix>
</trkpt>
<trkpt lat="33.810313" lon="-118.393867">
  <ele>-0.126</ele>
  <time>2026-09-01T01:16:54Z</time>
  <course>188.45</course>
  <speed>0.01</speed>
  <fix>3d</fix>
</trkpt>
<trkpt lat="33.810313" lon="-118.393867">
  <ele>-0.12</ele>
  <time>2026-09-01T01:16:54Z</time>
  <course>0.0</course>
  <speed>0.0</speed>
  <fix>3d</fix>
</trkpt>
<trkpt lat="33.810313" lon="-118.393867">
  <ele>-0.125</ele>
  <time>2026-09-01T01:16:54Z</time>
  <course>188.44</course>
  <speed>0.01</speed>
  <fix>3d</fix>
</trkpt>
<trkpt lat="33.810313" lon="-118.393867">
  <ele>-0.12</ele>
  <time>2026-09-01T01:16:54Z</time>
  <course>0.0</course>
  <speed>0.0</speed>
  <fix>3d</fix>
</trkpt>
<trkpt lat="33.810313" lon="-118.393867">
  <ele>-0.126</ele>
  <time>2026-09-01T01:16:54Z</time>
  <course>188.43</course>
  <speed>0.01</speed>
  <fix>3d</fix>
</trkpt>
<trkpt lat="33.810313" lon="-118.393867">
  <ele>-0.12</ele>
  <time>2026-09-01T01:16:54Z</time>
  <course>0.0</course>
  <speed>0.0</speed>
  <fix>3d</fix>
</trkpt>
<trkpt lat="33.810313" lon="-118.393867">
  <ele>-0.127</ele>
  <time>2026-09-01T01:16:54Z</time>
  <course>188.42</course>
  <speed>0.01</speed>
  <fix>3d</fix>
</trkpt>
<trkpt lat="33.810313" lon="-118.393867">
  <ele>-0.12</ele>
  <time>2026-09-01T01:16:54Z</time>
  <course>0.0</course>
  <speed>0.0</speed>
  <fix>3d</fix>
</trkpt>
<trkpt lat="33.810313" lon="-118.393867">
  <ele>-0.128</ele>
  <time>2026-09-01T01:16:54Z</time>
  <course>188.42</course>
  <speed>0.01</speed>
  <fix>3d</fix>
</trkpt>
<trkpt lat="33.810313" lon="-118.393867">
  <ele>-0.12</ele>
  <time>2026-09-01T01:16:54Z</time>
  <course>0.0</course>
  <speed>0.0</speed>
  <fix>3d</fix>
</trkpt>
<trkpt lat="33.810313" lon="-118.393867">
  <ele>-0.129</ele>
  <time>2026-09-01T01:16:54Z</time>
  <course>188.41</course>
  <speed>0.01</speed>
  <fix>3d</fix>
</trkpt>
<trkpt lat="33.810313" lon="-118.393867">
  <ele>-0.12</ele>
  <time>2026-09-01T01:16:54Z</time>
  <course>0.0</course>
  <speed>0.0</speed>
  <fix>3d</fix>
</trkpt>
<trkpt lat="33.810313" lon="-118.393867">
  <ele>-0.129</ele>
  <time>2026-09-01T01:16:54Z</time>
  <course>188.4</course>
  <speed>0.01</speed>
  <fix>3d</fix>
</trkpt>
<trkpt lat="33.810313" lon="-118.393867">
  <ele>-0.12</ele>
  <time>2026-09-01T01:16:54Z</time>
  <course>0.0</course>
  <speed>0.0</speed>
  <fix>3d</fix>
</trkpt>
<trkpt lat="33.810313" lon="-118.393867">
  <ele>-0.13</ele>
  <time>2026-09-01T01:16:54Z</time>
  <course>188.4</course>
  <speed>0.01414213562373095</speed>
  <fix>3d</fix>
</trkpt>
<trkpt lat="33.810313" lon="-118.393867">
  <ele>-0.12</ele>
  <time>2026-09-01T01:16:54Z</time>
  <course>0.0</course>
  <speed>0.0</speed>
  <fix>3d</fix>
</trkpt>
<trkpt lat="33.810313" lon="-118.393867">
  <ele>-0.13</ele>
  <time>2026-09-01T01:16:54Z</time>
  <course>188.39</course>
  <speed>0.01414213562373095</speed>
  <fix>3d</fix>
</trkpt>
<trkpt lat="33.810313" lon="-118.393867">
  <ele>-0.12</ele>
  <time>2026-09-01T01:16:54Z</time>
  <course>0.0</course>
  <speed>0.0</speed>
  <fix>3d</fix>
</trkpt>
<trkpt lat="33.810313" lon="-118.393867">
  <ele>-0.13</ele>
  <time>2026-09-01T01:16:54Z</time>
  <course>188.38</course>
  <speed>0.01414213562373095</speed>
  <fix>3d</fix>
</trkpt>
<trkpt lat="33.810313" lon="-118.393867">
  <ele>-0.12</ele>
  <time>2026-09-01T01:16:54Z</time>
  <course>0.0</course>
  <speed>0.0</speed>
  <fix>3d</fix>
</trkpt>
<trkpt lat="33.810313" lon="-118.393867">
  <ele>-0.129</ele>
  <time>2026-09-01T01:16:54Z</time>
  <course>188.37</course>
  <speed>0.01414213562373095</speed>
  <fix>3d</fix>
</trkpt>
<trkpt lat="33.810313" lon="-118.393867">
  <ele>-0.12</ele>
  <time>2026-09-01T01:16:54Z</time>
  <course>0.0</course>
  <speed>0.0</speed>
  <fix>3d</fix>
</trkpt>
<trkpt lat="33.810313" lon="-118.393867">
  <ele>-0.128</ele>
  <time>2026-09-01T01:16:54Z</time>
  <course>188.37</course>
  <speed>0.01414213562373095</speed>
  <fix>3d</fix>
</trkpt>
<trkpt lat="33.810313" lon="-118.393867">
  <ele>-0.12</ele>
  <time>2026-09-01T01:16:54Z</time>
  <course>0.0</course>
  <speed>0.0</speed>
  <fix>3d</fix>
</trkpt>
<trkpt lat="33.810313" lon="-118.393867">
  <ele>-0.126</ele>
  <time>2026-09-01T01:16:54Z</time>
  <course>188.36</course>
  <speed>0.01414213562373095</speed>
  <fix>3d</fix>
</trkpt>
<trkpt lat="33.810313" lon="-118.393867">
  <ele>-0.12</ele>
  <time>2026-09-01T01:16:54Z</time>
  <course>0.0</course>
  <speed>0.0</speed>
  <fix>3d</fix>
</trkpt>
<trkpt lat="33.810313" lon="-118.393867">
  <ele>-0.124</ele>
  <time>2026-09-01T01:16:54Z</time>
  <course>188.35</course>
  <speed>0.01414213562373095</speed>
  <fix>3d</fix>
</trkpt>
<trkpt lat="33.810313" lon="-118.393867">
  <ele>-0.12</ele>
  <time>2026-09-01T01:16:54Z</time>
  <course>0.0</course>
  <speed>0.0</speed>
  <fix>3d</fix>
</trkpt>
<trkpt lat="33.810313" lon="-118.393867">
  <ele>-0.122</ele>
  <time>2026-09-01T01:16:54Z</time>
  <course>188.34</course>
  <speed>0.01414213562373095</speed>
  <fix>3d</fix>
</trkpt>
<trkpt lat="33.810313" lon="-118.393867">
  <ele>-0.12</ele>
  <time>2026-09-01T01:16:54Z</time>
  <course>0.0</course>
  <speed>0.0</speed>
  <fix>3d</fix>
</trkpt>
<trkpt lat="33.810313" lon="-118.393867">
  <ele>-0.123</ele>
  <time>2026-09-01T01:16:54Z</time>
  <course>188.33</course>
  <speed>0.01414213562373095</speed>
  <fix>3d</fix>
</trkpt>
<trkpt lat="33.810313" lon="-118.393867">
  <ele>-0.12</ele>
  <time>2026-09-01T01:16:54Z</time>
  <course>0.0</course>
  <speed>0.0</speed>
  <fix>3d</fix>
</trkpt>
<trkpt lat="33.810313" lon="-118.393867">
  <ele>-0.125</ele>
  <time>2026-09-01T01:16:54Z</time>
  <course>188.33</course>
  <speed>0.01414213562373095</speed>
  <fix>3d</fix>
</trkpt>
<trkpt lat="33.810313" lon="-118.393867">
  <ele>-0.12</ele>
  <time>2026-09-01T01:16:54Z</time>
  <course>0.0</course>
  <speed>0.0</speed>
  <fix>3d</fix>
</trkpt>
<trkpt lat="33.810313" lon="-118.393867">
  <ele>-0.128</ele>
  <time>2026-09-01T01:16:54Z</time>
  <course>188.32</course>
  <speed>0.01414213562373095</speed>
  <fix>3d</fix>
</trkpt>
<trkpt lat="33.810313" lon="-118.393867">
  <ele>-0.12</ele>
  <time>2026-09-01T01:16:54Z</time>
  <course>0.0</course>
  <speed>0.0</speed>
  <fix>3d</fix>
</trkpt>
<trkpt lat="33.810313" lon="-118.393867">
  <ele>-0.132</ele>
  <time>2026-09-01T01:16:54Z</time>
  <course>188.31</course>
  <speed>0.01414213562373095</speed>
  <fix>3d</fix>
</trkpt>
<trkpt lat="33.810313" lon="-118.393867">
  <ele>-0.12</ele>
  <time>2026-09-01T01:16:54Z</time>
  <course>0.0</course>
  <speed>0.0</speed>
  <fix>3d</fix>
</trkpt>
<trkpt lat="33.810313" lon="-118.393867">
  <ele>-0.135</ele>
  <time>2026-09-01T01:16:54Z</time>
  <course>188.3</course>
  <speed>0.01414213562373095</speed>
  <fix>3d</fix>
</trkpt>
<trkpt lat="33.810313" lon="-118.393867">
  <ele>-0.12</ele>
  <time>2026-09-01T01:16:54Z</time>
  <course>0.0</course>
  <speed>0.0</speed>
  <fix>3d</fix>
</trkpt>
<trkpt lat="33.810313" lon="-118.393867">
  <ele>-0.135</ele>
  <time>2026-09-01T01:16:54Z</time>
  <course>188.3</course>
  <speed>0.01414213562373095</speed>
  <fix>3d</fix>
</trkpt>
<trkpt lat="33.810313" lon="-118.393867">
  <ele>-0.12</ele>
  <time>2026-09-01T01:16:54Z</time>
  <course>0.0</course>
  <speed>0.0</speed>
  <fix>3d</fix>
</trkpt>
<trkpt lat="33.810313" lon="-118.393867">
  <ele>-0.134</ele>
  <time>2026-09-01T01:16:54Z</time>
  <course>188.29</course>
  <speed>0.01414213562373095</speed>
  <fix>3d</fix>
</trkpt>
<trkpt lat="33.810313" lon="-118.393867">
  <ele>-0.12</ele>
  <time>2026-09-01T01:16:54Z</time>
  <course>0.0</course>
  <speed>0.0</speed>
  <fix>3d</fix>
</trkpt>
<trkpt lat="33.810313" lon="-118.393867">
  <ele>-0.132</ele>
  <time>2026-09-01T01:16:54Z</time>
  <course>188.28</course>
  <speed>0.01414213562373095</speed>
  <fix>3d</fix>
</trkpt>
<trkpt lat="33.810313" lon="-118.393867">
  <ele>-0.12</ele>
  <time>2026-09-01T01:16:54Z</time>
  <course>0.0</course>
  <speed>0.0</speed>
  <fix>3d</fix>
</trkpt>
<trkpt lat="33.810313" lon="-118.393867">
  <ele>-0.129</ele>
  <time>2026-09-01T01:16:54Z</time>
  <course>188.27</course>
  <speed>0.01414213562373095</speed>
  <fix>3d</fix>
</trkpt>
<trkpt lat="33.810313" lon="-118.393867">
  <ele>-0.12</ele>
  <time>2026-09-01T01:16:54Z</time>
  <course>0.0</course>
  <speed>0.0</speed>
  <fix>3d</fix>
</trkpt>
<trkpt lat="33.810313" lon="-118.393867">
  <ele>-0.127</ele>
  <time>2026-09-01T01:16:54Z</time>
  <course>188.26</course>
  <speed>0.01414213562373095</speed>
  <fix>3d</fix>
</trkpt>
<trkpt lat="33.810313" lon="-118.393867">
  <ele>-0.12</ele>
  <time>2026-09-01T01:16:54Z</time>
  <course>0.0</course>
  <speed>0.0</speed>
  <fix>3d</fix>
</trkpt>
<trkpt lat="33.810313" lon="-118.393867">
  <ele>-0.124</ele>
  <time>2026-09-01T01:16:54Z</time>
  <course>188.25</course>
  <speed>0.01414213562373095</speed>
  <fix>3d</fix>
</trkpt>
<trkpt lat="33.810313" lon="-118.393867">
  <ele>-0.12</ele>
  <time>2026-09-01T01:16:54Z</time>
  <course>0.0</course>
  <speed>0.0</speed>
  <fix>3d</fix>
</trkpt>
<trkpt lat="33.810313" lon="-118.393867">
  <ele>-0.123</ele>
  <time>2026-09-01T01:16:54Z</time>
  <course>188.25</course>
  <speed>0.01414213562373095</speed>
  <fix>3d</fix>
</trkpt>
<trkpt lat="33.810313" lon="-118.393867">
  <ele>-0.12</ele>
  <time>2026-09-01T01:16:54Z</time>
  <course>0.0</course>
  <speed>0.0</speed>
  <fix>3d</fix>
</trkpt>
<trkpt lat="33.810313" lon="-118.393867">
  <ele>-0.124</ele>
  <time>2026-09-01T01:16:54Z</time>
  <course>188.24</course>
  <speed>0.01414213562373095</speed>
  <fix>3d</fix>
</trkpt>
<trkpt lat="33.810313" lon="-118.393867">
  <ele>-0.12</ele>
  <time>2026-09-01T01:16:54Z</time>
  <course>0.0</course>
  <speed>0.0</speed>
  <fix>3d</fix>
</trkpt>
<trkpt lat="33.810313" lon="-118.393867">
  <ele>-0.126</ele>
  <time>2026-09-01T01:16:54Z</time>
  <course>188.23</course>
  <speed>0.01414213562373095</speed>
  <fix>3d</fix>
</trkpt>
<trkpt lat="33.810313" lon="-118.393867">
  <ele>-0.12</ele>
  <time>2026-09-01T01:16:54Z</time>
  <course>0.0</course>
  <speed>0.0</speed>
  <fix>3d</fix>
</trkpt>
<trkpt lat="33.810313" lon="-118.393867">
  <ele>-0.127</ele>
  <time>2026-09-01T01:16:54Z</time>
  <course>188.22</course>
  <speed>0.01414213562373095</speed>
  <fix>3d</fix>
</trkpt>
<trkpt lat="33.810313" lon="-118.393867">
  <ele>-0.12</ele>
  <time>2026-09-01T01:16:54Z</time>
  <course>0.0</course>
  <speed>0.0</speed>
  <fix>3d</fix>
</trkpt>
<trkpt lat="33.810313" lon="-118.393867">
  <ele>-0.129</ele>
  <time>2026-09-01T01:16:54Z</time>
  <course>188.21</course>
  <speed>0.01414213562373095</speed>
  <fix>3d</fix>
</trkpt>
<trkpt lat="33.810313" lon="-118.393867">
  <ele>-0.12</ele>
  <time>2026-09-01T01:16:54Z</time>
  <course>0.0</course>
  <speed>0.0</speed>
  <fix>3d</fix>
</trkpt>
<trkpt lat="33.810313" lon="-118.393867">
  <ele>-0.129</ele>
  <time>2026-09-01T01:16:54Z</time>
  <course>188.21</course>
  <speed>0.01414213562373095</speed>
  <fix>3d</fix>
</trkpt>
<trkpt lat="33.810313" lon="-118.393867">
  <ele>-0.12</ele>
  <time>2026-09-01T01:16:54Z</time>
  <course>0.0</course>
  <speed>0.0</speed>
  <fix>3d</fix>
</trkpt>
<trkpt lat="33.810313" lon="-118.393867">
  <ele>-0.129</ele>
  <time>2026-09-01T01:16:54Z</time>
  <course>188.2</course>
  <speed>0.01414213562373095</speed>
  <fix>3d</fix>
</trkpt>
<trkpt lat="33.810313" lon="-118.393867">
  <ele>-0.12</ele>
  <time>2026-09-01T01:16:54Z</time>
  <course>0.0</course>
  <speed>0.0</speed>
  <fix>3d</fix>
</trkpt>
<trkpt lat="33.810313" lon="-118.393867">
  <ele>-0.128</ele>
  <time>2026-09-01T01:16:54Z</time>
  <course>188.19</course>
  <speed>0.01414213562373095</speed>
  <fix>3d</fix>
</trkpt>
<trkpt lat="33.810313" lon="-118.393867">
  <ele>-0.12</ele>
  <time>2026-09-01T01:16:54Z</time>
  <course>0.0</course>
  <speed>0.0</speed>
  <fix>3d</fix>
</trkpt>
<trkpt lat="33.810313" lon="-118.393867">
  <ele>-0.128</ele>
  <time>2026-09-01T01:16:54Z</time>
  <course>188.18</course>
  <speed>0.01414213562373095</speed>
  <fix>3d</fix>
</trkpt>
<trkpt lat="33.810313" lon="-118.393867">
  <ele>-0.12</ele>
  <time>2026-09-01T01:16:54Z</time>
  <course>0.0</course>
  <speed>0.0</speed>
  <fix>3d</fix>
</trkpt>
<trkpt lat="33.810313" lon="-118.393867">
  <ele>-0.127</ele>
  <time>2026-09-01T01:16:54Z</time>
  <course>188.17</course>
  <speed>0.01414213562373095</speed>
  <fix>3d</fix>
</trkpt>
<trkpt lat="33.810313" lon="-118.393867">
  <ele>-0.12</ele>
  <time>2026-09-01T01:16:54Z</time>
  <course>0.0</course>
  <speed>0.0</speed>
  <fix>3d</fix>
</trkpt>
<trkpt lat="33.810313" lon="-118.393867">
  <ele>-0.127</ele>
  <time>2026-09-01T01:16:54Z</time>
  <course>188.16</course>
  <speed>0.01414213562373095</speed>
  <fix>3d</fix>
</trkpt>
<trkpt lat="33.810313" lon="-118.393867">
  <ele>-0.12</ele>
  <time>2026-09-01T01:16:54Z</time>
  <course>0.0</course>
  <speed>0.0</speed>
  <fix>3d</fix>
</trkpt>
<trkpt lat="33.810313" lon="-118.393867">
  <ele>-0.128</ele>
  <time>2026-09-01T01:16:54Z</time>
  <course>188.16</course>
  <speed>0.01414213562373095</speed>
  <fix>3d</fix>
</trkpt>
<trkpt lat="33.810313" lon="-118.393867">
  <ele>-0.12</ele>
  <time>2026-09-01T01:16:54Z</time>
  <course>0.0</course>
  <speed>0.0</speed>
  <fix>3d</fix>
</trkpt>
<trkpt lat="33.810313" lon="-118.393867">
  <ele>-0.129</ele>
  <time>2026-09-01T01:16:54Z</time>
  <course>188.15</course>
  <speed>0.01414213562373095</speed>
  <fix>3d</fix>
</trkpt>
<trkpt lat="33.810313" lon="-118.393867">
  <ele>-0.12</ele>
  <time>2026-09-01T01:16:54Z</time>
  <course>0.0</course>
  <speed>0.0</speed>
  <fix>3d</fix>
</trkpt>
<trkpt lat="33.810313" lon="-118.393867">
  <ele>-0.131</ele>
  <time>2026-09-01T01:16:54Z</time>
  <course>188.14</course>
  <speed>0.01414213562373095</speed>
  <fix>3d</fix>
</trkpt>
<trkpt lat="33.810313" lon="-118.393867">
  <ele>-0.12</ele>
  <time>2026-09-01T01:16:54Z</time>
  <course>0.0</course>
  <speed>0.0</speed>
  <fix>3d</fix>
</trkpt>
<trkpt lat="33.810313" lon="-118.393867">
  <ele>-0.133</ele>
  <time>2026-09-01T01:16:54Z</time>
  <course>188.13</course>
  <speed>0.01414213562373095</speed>
  <fix>3d</fix>
</trkpt>
<trkpt lat="33.810313" lon="-118.393867">
  <ele>-0.12</ele>
  <time>2026-09-01T01:16:54Z</time>
  <course>0.0</course>
  <speed>0.0</speed>
  <fix>3d</fix>
</trkpt>
<trkpt lat="33.810313" lon="-118.393867">
  <ele>-0.135</ele>
  <time>2026-09-01T01:16:54Z</time>
  <course>188.12</course>
  <speed>0.01414213562373095</speed>
  <fix>3d</fix>
</trkpt>
<trkpt lat="33.810313" lon="-118.393867">
  <ele>-0.12</ele>
  <time>2026-09-01T01:16:54Z</time>
  <course>0.0</course>
  <speed>0.0</speed>
  <fix>3d</fix>
</trkpt>
<trkpt lat="33.810313" lon="-118.393867">
  <ele>-0.136</ele>
  <time>2026-09-01T01:16:54Z</time>
  <course>188.12</course>
  <speed>0.01414213562373095</speed>
  <fix>3d</fix>
</trkpt>
<trkpt lat="33.810313" lon="-118.393867">
  <ele>-0.12</ele>
  <time>2026-09-01T01:16:54Z</time>
  <course>0.0</course>
  <speed>0.0</speed>
  <fix>3d</fix>
</trkpt>
<trkpt lat="33.810313" lon="-118.393867">
  <ele>-0.136</ele>
  <time>2026-09-01T01:16:54Z</time>
  <course>188.11</course>
  <speed>0.01414213562373095</speed>
  <fix>3d</fix>
</trkpt>
<trkpt lat="33.810313" lon="-118.393867">
  <ele>-0.12</ele>
  <time>2026-09-01T01:16:54Z</time>
  <course>0.0</course>
  <speed>0.0</speed>
  <fix>3d</fix>
</trkpt>
<trkpt lat="33.810313" lon="-118.393867">
  <ele>-0.136</ele>
  <time>2026-09-01T01:16:55Z</time>
  <course>188.1</course>
  <speed>0.01414213562373095</speed>
  <fix>3d</fix>
</trkpt>
<trkpt lat="33.810313" lon="-118.393867">
  <ele>-0.12</ele>
  <time>2026-09-01T01:16:55Z</time>
  <course>0.0</course>
  <speed>0.0</speed>
  <fix>3d</fix>
</trkpt>
<trkpt lat="33.810313" lon="-118.393867">
  <ele>-0.135</ele>
  <time>2026-09-01T01:16:55Z</time>
  <course>188.09</course>
  <speed>0.01414213562373095</speed>
  <fix>3d</fix>
</trkpt>
<trkpt lat="33.810313" lon="-118.393867">
  <ele>-0.12</ele>
  <time>2026-09-01T01:16:55Z</time>
  <course>0.0</course>
  <speed>0.0</speed>
  <fix>3d</fix>
</trkpt>
<trkpt lat="33.810313" lon="-118.393867">
  <ele>-0.134</ele>
  <time>2026-09-01T01:16:55Z</time>
  <course>188.08</course>
  <speed>0.01414213562373095</speed>
  <fix>3d</fix>
</trkpt>
<trkpt lat="33.810313" lon="-118.393867">
  <ele>-0.12</ele>
  <time>2026-09-01T01:16:55Z</time>
  <course>0.0</course>
  <speed>0.0</speed>
  <fix>3d</fix>
</trkpt>
<trkpt lat="33.810313" lon="-118.393867">
  <ele>-0.131</ele>
  <time>2026-09-01T01:16:55Z</time>
  <course>188.07</course>
  <speed>0.022360679774997897</speed>
  <fix>3d</fix>
</trkpt>
<trkpt lat="33.810313" lon="-118.393867">
  <ele>-0.12</ele>
  <time>2026-09-01T01:16:55Z</time>
  <course>0.0</course>
  <speed>0.0</speed>
  <fix>3d</fix>
</trkpt>
<trkpt lat="33.810313" lon="-118.393867">
  <ele>-0.128</ele>
  <time>2026-09-01T01:16:55Z</time>
  <course>188.07</course>
  <speed>0.022360679774997897</speed>
  <fix>3d</fix>
</trkpt>
<trkpt lat="33.810313" lon="-118.393867">
  <ele>-0.12</ele>
  <time>2026-09-01T01:16:55Z</time>
  <course>0.0</course>
  <speed>0.0</speed>
  <fix>3d</fix>
</trkpt>
<trkpt lat="33.810313" lon="-118.393867">
  <ele>-0.126</ele>
  <time>2026-09-01T01:16:55Z</time>
  <course>188.06</course>
  <speed>0.022360679774997897</speed>
  <fix>3d</fix>
</trkpt>
<trkpt lat="33.810313" lon="-118.393867">
  <ele>-0.12</ele>
  <time>2026-09-01T01:16:55Z</time>
  <course>0.0</course>
  <speed>0.0</speed>
  <fix>3d</fix>
</trkpt>
<trkpt lat="33.810313" lon="-118.393867">
  <ele>-0.126</ele>
  <time>2026-09-01T01:16:55Z</time>
  <course>188.05</course>
  <speed>0.022360679774997897</speed>
  <fix>3d</fix>
</trkpt>
<trkpt lat="33.810313" lon="-118.393867">
  <ele>-0.12</ele>
  <time>2026-09-01T01:16:55Z</time>
  <course>0.0</course>
  <speed>0.0</speed>
  <fix>3d</fix>
</trkpt>
<trkpt lat="33.810313" lon="-118.393867">
  <ele>-0.126</ele>
  <time>2026-09-01T01:16:55Z</time>
  <course>188.04</course>
  <speed>0.022360679774997897</speed>
  <fix>3d</fix>
</trkpt>
<trkpt lat="33.810313" lon="-118.393867">
  <ele>-0.12</ele>
  <time>2026-09-01T01:16:55Z</time>
  <course>0.0</course>
  <speed>0.0</speed>
  <fix>3d</fix>
</trkpt>
<trkpt lat="33.810313" lon="-118.393867">
  <ele>-0.127</ele>
  <time>2026-09-01T01:16:55Z</time>
  <course>188.03</course>
  <speed>0.022360679774997897</speed>
  <fix>3d</fix>
</trkpt>
<trkpt lat="33.810313" lon="-118.393867">
  <ele>-0.12</ele>
  <time>2026-09-01T01:16:55Z</time>
  <course>0.0</course>
  <speed>0.0</speed>
  <fix>3d</fix>
</trkpt>
<trkpt lat="33.810313" lon="-118.393867">
  <ele>-0.127</ele>
  <time>2026-09-01T01:16:55Z</time>
  <course>188.03</course>
  <speed>0.022360679774997897</speed>
  <fix>3d</fix>
</trkpt>
<trkpt lat="33.810313" lon="-118.393867">
  <ele>-0.12</ele>
  <time>2026-09-01T01:16:55Z</time>
  <course>0.0</course>
  <speed>0.0</speed>
  <fix>3d</fix>
</trkpt>
<trkpt lat="33.810313" lon="-118.393867">
  <ele>-0.127</ele>
  <time>2026-09-01T01:16:55Z</time>
  <course>188.02</course>
  <speed>0.022360679774997897</speed>
  <fix>3d</fix>
</trkpt>
<trkpt lat="33.810313" lon="-118.393867">
  <ele>-0.12</ele>
  <time>2026-09-01T01:16:55Z</time>
  <course>0.0</course>
  <speed>0.0</speed>
  <fix>3d</fix>
</trkpt>
<trkpt lat="33.810313" lon="-118.393867">
  <ele>-0.128</ele>
  <time>2026-09-01T01:16:55Z</time>
  <course>188.01</course>
  <speed>0.022360679774997897</speed>
  <fix>3d</fix>
</trkpt>
<trkpt lat="33.810313" lon="-118.393867">
  <ele>-0.12</ele>
  <time>2026-09-01T01:16:55Z</time>
  <course>0.0</course>
  <speed>0.0</speed>
  <fix>3d</fix>
</trkpt>
<trkpt lat="33.810313" lon="-118.393867">
  <ele>-0.128</ele>
  <time>2026-09-01T01:16:55Z</time>
  <course>188.0</course>
  <speed>0.022360679774997897</speed>
  <fix>3d</fix>
</trkpt>
<trkpt lat="33.810313" lon="-118.393867">
  <ele>-0.12</ele>
  <time>2026-09-01T01:16:55Z</time>
  <course>0.0</course>
  <speed>0.0</speed>
  <fix>3d</fix>
</trkpt>
<trkpt lat="33.810313" lon="-118.393867">
  <ele>-0.127</ele>
  <time>2026-09-01T01:16:55Z</time>
  <course>187.99</course>
  <speed>0.022360679774997897</speed>
  <fix>3d</fix>
</trkpt>
<trkpt lat="33.810313" lon="-118.393867">
  <ele>-0.12</ele>
  <time>2026-09-01T01:16:55Z</time>
  <course>0.0</course>
  <speed>0.0</speed>
  <fix>3d</fix>
</trkpt>
<trkpt lat="33.810313" lon="-118.393867">
  <ele>-0.126</ele>
  <time>2026-09-01T01:16:55Z</time>
  <course>187.98</course>
  <speed>0.022360679774997897</speed>
  <fix>3d</fix>
</trkpt>
<trkpt lat="33.810313" lon="-118.393867">
  <ele>-0.12</ele>
  <time>2026-09-01T01:16:55Z</time>
  <course>0.0</course>
  <speed>0.0</speed>
  <fix>3d</fix>
</trkpt>
<trkpt lat="33.810313" lon="-118.393867">
  <ele>-0.123</ele>
  <time>2026-09-01T01:16:55Z</time>
  <course>187.98</course>
  <speed>0.022360679774997897</speed>
  <fix>3d</fix>
</trkpt>
<trkpt lat="33.810313" lon="-118.393867">
  <ele>-0.12</ele>
  <time>2026-09-01T01:16:55Z</time>
  <course>0.0</course>
  <speed>0.0</speed>
  <fix>3d</fix>
</trkpt>
<trkpt lat="33.810313" lon="-118.393867">
  <ele>-0.121</ele>
  <time>2026-09-01T01:16:55Z</time>
  <course>187.97</course>
  <speed>0.022360679774997897</speed>
  <fix>3d</fix>
</trkpt>
<trkpt lat="33.810313" lon="-118.393867">
  <ele>-0.12</ele>
  <time>2026-09-01T01:16:55Z</time>
  <course>0.0</course>
  <speed>0.0</speed>
  <fix>3d</fix>
</trkpt>
<trkpt lat="33.810313" lon="-118.393867">
  <ele>-0.12</ele>
  <time>2026-09-01T01:16:55Z</time>
  <course>187.96</course>
  <speed>0.022360679774997897</speed>
  <fix>3d</fix>
</trkpt>
<trkpt lat="33.810313" lon="-118.393867">
  <ele>-0.12</ele>
  <time>2026-09-01T01:16:55Z</time>
  <course>0.0</course>
  <speed>0.0</speed>
  <fix>3d</fix>
</trkpt>
<trkpt lat="33.810313" lon="-118.393867">
  <ele>-0.12</ele>
  <time>2026-09-01T01:16:55Z</time>
  <course>187.95</course>
  <speed>0.022360679774997897</speed>
  <fix>3d</fix>
</trkpt>
<trkpt lat="33.810313" lon="-118.393867">
  <ele>-0.12</ele>
  <time>2026-09-01T01:16:55Z</time>
  <course>0.0</course>
  <speed>0.0</speed>
  <fix>3d</fix>
</trkpt>
<trkpt lat="33.810313" lon="-118.393867">
  <ele>-0.122</ele>
  <time>2026-09-01T01:16:55Z</time>
  <course>187.94</course>
  <speed>0.022360679774997897</speed>
  <fix>3d</fix>
</trkpt>
<trkpt lat="33.810313" lon="-118.393867">
  <ele>-0.12</ele>
  <time>2026-09-01T01:16:55Z</time>
  <course>0.0</course>
  <speed>0.0</speed>
  <fix>3d</fix>
</trkpt>
<trkpt lat="33.810313" lon="-118.393867">
  <ele>-0.125</ele>
  <time>2026-09-01T01:16:55Z</time>
  <course>187.94</course>
  <speed>0.022360679774997897</speed>
  <fix>3d</fix>
</trkpt>
<trkpt lat="33.810313" lon="-118.393867">
  <ele>-0.12</ele>
  <time>2026-09-01T01:16:55Z</time>
  <course>0.0</course>
  <speed>0.0</speed>
  <fix>3d</fix>
</trkpt>
<trkpt lat="33.810313" lon="-118.393867">
  <ele>-0.129</ele>
  <time>2026-09-01T01:16:55Z</time>
  <course>187.93</course>
  <speed>0.022360679774997897</speed>
  <fix>3d</fix>
</trkpt>
<trkpt lat="33.810313" lon="-118.393867">
  <ele>-0.12</ele>
  <time>2026-09-01T01:16:55Z</time>
  <course>0.0</course>
  <speed>0.0</speed>
  <fix>3d</fix>
</trkpt>
<trkpt lat="33.810313" lon="-118.393867">
  <ele>-0.131</ele>
  <time>2026-09-01T01:16:55Z</time>
  <course>187.92</course>
  <speed>0.022360679774997897</speed>
  <fix>3d</fix>
</trkpt>
<trkpt lat="33.810313" lon="-118.393867">
  <ele>-0.12</ele>
  <time>2026-09-01T01:16:55Z</time>
  <course>0.0</course>
  <speed>0.0</speed>
  <fix>3d</fix>
</trkpt>
<trkpt lat="33.810313" lon="-118.393867">
  <ele>-0.132</ele>
  <time>2026-09-01T01:16:55Z</time>
  <course>187.91</course>
  <speed>0.022360679774997897</speed>
  <fix>3d</fix>
</trkpt>
<trkpt lat="33.810313" lon="-118.393867">
  <ele>-0.12</ele>
  <time>2026-09-01T01:16:55Z</time>
  <course>0.0</course>
  <speed>0.0</speed>
  <fix>3d</fix>
</trkpt>
<trkpt lat="33.810313" lon="-118.393867">
  <ele>-0.132</ele>
  <time>2026-09-01T01:16:55Z</time>
  <course>187.9</course>
  <speed>0.022360679774997897</speed>
  <fix>3d</fix>
</trkpt>
<trkpt lat="33.810313" lon="-118.393867">
  <ele>-0.12</ele>
  <time>2026-09-01T01:16:55Z</time>
  <course>0.0</course>
  <speed>0.0</speed>
  <fix>3d</fix>
</trkpt>
<trkpt lat="33.810313" lon="-118.393867">
  <ele>-0.132</ele>
  <time>2026-09-01T01:16:55Z</time>
  <course>187.9</course>
  <speed>0.022360679774997897</speed>
  <fix>3d</fix>
</trkpt>
<trkpt lat="33.810313" lon="-118.393867">
  <ele>-0.12</ele>
  <time>2026-09-01T01:16:55Z</time>
  <course>0.0</course>
  <speed>0.0</speed>
  <fix>3d</fix>
</trkpt>
<trkpt lat="33.810313" lon="-118.393867">
  <ele>-0.13</ele>
  <time>2026-09-01T01:16:55Z</time>
  <course>187.89</course>
  <speed>0.022360679774997897</speed>
  <fix>3d</fix>
</trkpt>
<trkpt lat="33.810313" lon="-118.393867">
  <ele>-0.12</ele>
  <time>2026-09-01T01:16:55Z</time>
  <course>0.0</course>
  <speed>0.0</speed>
  <fix>3d</fix>
</trkpt>
<trkpt lat="33.810313" lon="-118.393867">
  <ele>-0.127</ele>
  <time>2026-09-01T01:16:55Z</time>
  <course>187.88</course>
  <speed>0.022360679774997897</speed>
  <fix>3d</fix>
</trkpt>
<trkpt lat="33.810313" lon="-118.393867">
  <ele>-0.12</ele>
  <time>2026-09-01T01:16:55Z</time>
  <course>0.0</course>
  <speed>0.0</speed>
  <fix>3d</fix>
</trkpt>
<trkpt lat="33.810313" lon="-118.393867">
  <ele>-0.123</ele>
  <time>2026-09-01T01:16:55Z</time>
  <course>187.87</course>
  <speed>0.022360679774997897</speed>
  <fix>3d</fix>
</trkpt>
<trkpt lat="33.810313" lon="-118.393867">
  <ele>-0.12</ele>
  <time>2026-09-01T01:16:55Z</time>
  <course>0.0</course>
  <speed>0.0</speed>
  <fix>3d</fix>
</trkpt>
<trkpt lat="33.810313" lon="-118.393867">
  <ele>-0.121</ele>
  <time>2026-09-01T01:16:55Z</time>
  <course>187.87</course>
  <speed>0.022360679774997897</speed>
  <fix>3d</fix>
</trkpt>
<trkpt lat="33.810313" lon="-118.393867">
  <ele>-0.12</ele>
  <time>2026-09-01T01:16:55Z</time>
  <course>0.0</course>
  <speed>0.0</speed>
  <fix>3d</fix>
</trkpt>
<trkpt lat="33.810313" lon="-118.393867">
  <ele>-0.121</ele>
  <time>2026-09-01T01:16:55Z</time>
  <course>187.86</course>
  <speed>0.022360679774997897</speed>
  <fix>3d</fix>
</trkpt>
<trkpt lat="33.810313" lon="-118.393867">
  <ele>-0.12</ele>
  <time>2026-09-01T01:16:55Z</time>
  <course>0.0</course>
  <speed>0.0</speed>
  <fix>3d</fix>
</trkpt>
<trkpt lat="33.810313" lon="-118.393867">
  <ele>-0.123</ele>
  <time>2026-09-01T01:16:55Z</time>
  <course>187.85</course>
  <speed>0.022360679774997897</speed>
  <fix>3d</fix>
</trkpt>
<trkpt lat="33.810313" lon="-118.393867">
  <ele>-0.12</ele>
  <time>2026-09-01T01:16:55Z</time>
  <course>0.0</course>
  <speed>0.0</speed>
  <fix>3d</fix>
</trkpt>
<trkpt lat="33.810313" lon="-118.393867">
  <ele>-0.124</ele>
  <time>2026-09-01T01:16:55Z</time>
  <course>187.84</course>
  <speed>0.022360679774997897</speed>
  <fix>3d</fix>
</trkpt>
<trkpt lat="33.810313" lon="-118.393867">
  <ele>-0.12</ele>
  <time>2026-09-01T01:16:55Z</time>
  <course>0.0</course>
  <speed>0.0</speed>
  <fix>3d</fix>
</trkpt>
<trkpt lat="33.810313" lon="-118.393867">
  <ele>-0.126</ele>
  <time>2026-09-01T01:16:55Z</time>
  <course>187.83</course>
  <speed>0.022360679774997897</speed>
  <fix>3d</fix>
</trkpt>
<trkpt lat="33.810313" lon="-118.393867">
  <ele>-0.12</ele>
  <time>2026-09-01T01:16:55Z</time>
  <course>0.0</course>
  <speed>0.0</speed>
  <fix>3d</fix>
</trkpt>
<trkpt lat="33.810313" lon="-118.393867">
  <ele>-0.127</ele>
  <time>2026-09-01T01:16:55Z</time>
  <course>187.83</course>
  <speed>0.022360679774997897</speed>
  <fix>3d</fix>
</trkpt>
<trkpt lat="33.810313" lon="-118.393867">
  <ele>-0.12</ele>
  <time>2026-09-01T01:16:55Z</time>
  <course>0.0</course>
  <speed>0.0</speed>
  <fix>3d</fix>
</trkpt>
<trkpt lat="33.810313" lon="-118.393867">
  <ele>-0.127</ele>
  <time>2026-09-01T01:16:55Z</time>
  <course>187.82</course>
  <speed>0.022360679774997897</speed>
  <fix>3d</fix>
</trkpt>
<trkpt lat="33.810313" lon="-118.393867">
  <ele>-0.12</ele>
  <time>2026-09-01T01:16:55Z</time>
  <course>0.0</course>
  <speed>0.0</speed>
  <fix>3d</fix>
</trkpt>
<trkpt lat="33.810313" lon="-118.393867">
  <ele>-0.127</ele>
  <time>2026-09-01T01:16:55Z</time>
  <course>187.81</course>
  <speed>0.022360679774997897</speed>
  <fix>3d</fix>
</trkpt>
<trkpt lat="33.810313" lon="-118.393867">
  <ele>-0.12</ele>
  <time>2026-09-01T01:16:55Z</time>
  <course>0.0</course>
  <speed>0.0</speed>
  <fix>3d</fix>
</trkpt>
<trkpt lat="33.810313" lon="-118.393867">
  <ele>-0.126</ele>
  <time>2026-09-01T01:16:55Z</time>
  <course>187.8</course>
  <speed>0.022360679774997897</speed>
  <fix>3d</fix>
</trkpt>
<trkpt lat="33.810313" lon="-118.393867">
  <ele>-0.12</ele>
  <time>2026-09-01T01:16:55Z</time>
  <course>0.0</course>
  <speed>0.0</speed>
  <fix>3d</fix>
</trkpt>
<trkpt lat="33.810313" lon="-118.393867">
  <ele>-0.124</ele>
  <time>2026-09-01T01:16:55Z</time>
  <course>187.8</course>
  <speed>0.022360679774997897</speed>
  <fix>3d</fix>
</trkpt>
<trkpt lat="33.810313" lon="-118.393867">
  <ele>-0.12</ele>
  <time>2026-09-01T01:16:55Z</time>
  <course>0.0</course>
  <speed>0.0</speed>
  <fix>3d</fix>
</trkpt>
<trkpt lat="33.810313" lon="-118.393867">
  <ele>-0.121</ele>
  <time>2026-09-01T01:16:55Z</time>
  <course>187.79</course>
  <speed>0.022360679774997897</speed>
  <fix>3d</fix>
</trkpt>
<trkpt lat="33.810313" lon="-118.393867">
  <ele>-0.12</ele>
  <time>2026-09-01T01:16:55Z</time>
  <course>0.0</course>
  <speed>0.0</speed>
  <fix>3d</fix>
</trkpt>
<trkpt lat="33.810313" lon="-118.393867">
  <ele>-0.119</ele>
  <time>2026-09-01T01:16:55Z</time>
  <course>187.78</course>
  <speed>0.022360679774997897</speed>
  <fix>3d</fix>
</trkpt>
<trkpt lat="33.810313" lon="-118.393867">
  <ele>-0.12</ele>
  <time>2026-09-01T01:16:55Z</time>
  <course>0.0</course>
  <speed>0.0</speed>
  <fix>3d</fix>
</trkpt>
<trkpt lat="33.810313" lon="-118.393867">
  <ele>-0.118</ele>
  <time>2026-09-01T01:16:55Z</time>
  <course>187.77</course>
  <speed>0.022360679774997897</speed>
  <fix>3d</fix>
</trkpt>
<trkpt lat="33.810313" lon="-118.393867">
  <ele>-0.12</ele>
  <time>2026-09-01T01:16:55Z</time>
  <course>0.0</course>
  <speed>0.0</speed>
  <fix>3d</fix>
</trkpt>
<trkpt lat="33.810313" lon="-118.393867">
  <ele>-0.118</ele>
  <time>2026-09-01T01:16:55Z</time>
  <course>187.76</course>
  <speed>0.022360679774997897</speed>
  <fix>3d</fix>
</trkpt>
<trkpt lat="33.810313" lon="-118.393867">
  <ele>-0.12</ele>
  <time>2026-09-01T01:16:55Z</time>
  <course>0.0</course>
  <speed>0.0</speed>
  <fix>3d</fix>
</trkpt>
<trkpt lat="33.810313" lon="-118.393867">
  <ele>-0.119</ele>
  <time>2026-09-01T01:16:55Z</time>
  <course>187.76</course>
  <speed>0.022360679774997897</speed>
  <fix>3d</fix>
</trkpt>
<trkpt lat="33.810313" lon="-118.393867">
  <ele>-0.12</ele>
  <time>2026-09-01T01:16:55Z</time>
  <course>0.0</course>
  <speed>0.0</speed>
  <fix>3d</fix>
</trkpt>
<trkpt lat="33.810313" lon="-118.393867">
  <ele>-0.12</ele>
  <time>2026-09-01T01:16:55Z</time>
  <course>187.75</course>
  <speed>0.022360679774997897</speed>
  <fix>3d</fix>
</trkpt>
<trkpt lat="33.810313" lon="-118.393867">
  <ele>-0.12</ele>
  <time>2026-09-01T01:16:55Z</time>
  <course>0.0</course>
  <speed>0.0</speed>
  <fix>3d</fix>
</trkpt>
<trkpt lat="33.810313" lon="-118.393867">
  <ele>-0.12</ele>
  <time>2026-09-01T01:16:55Z</time>
  <course>187.74</course>
  <speed>0.0282842712474619</speed>
  <fix>3d</fix>
</trkpt>
<trkpt lat="33.810313" lon="-118.393867">
  <ele>-0.12</ele>
  <time>2026-09-01T01:16:55Z</time>
  <course>0.0</course>
  <speed>0.0</speed>
  <fix>3d</fix>
</trkpt>
<trkpt lat="33.810313" lon="-118.393867">
  <ele>-0.12</ele>
  <time>2026-09-01T01:16:55Z</time>
  <course>187.74</course>
  <speed>0.0282842712474619</speed>
  <fix>3d</fix>
</trkpt>
<trkpt lat="33.810313" lon="-118.393867">
  <ele>-0.12</ele>
  <time>2026-09-01T01:16:55Z</time>
  <course>0.0</course>
  <speed>0.0</speed>
  <fix>3d</fix>
</trkpt>
<trkpt lat="33.810313" lon="-118.393867">
  <ele>-0.119</ele>
  <time>2026-09-01T01:16:55Z</time>
  <course>187.73</course>
  <speed>0.0282842712474619</speed>
  <fix>3d</fix>
</trkpt>
<trkpt lat="33.810313" lon="-118.393867">
  <ele>-0.12</ele>
  <time>2026-09-01T01:16:55Z</time>
  <course>0.0</course>
  <speed>0.0</speed>
  <fix>3d</fix>
</trkpt>
<trkpt lat="33.810313" lon="-118.393867">
  <ele>-0.118</ele>
  <time>2026-09-01T01:16:55Z</time>
  <course>187.72</course>
  <speed>0.0282842712474619</speed>
  <fix>3d</fix>
</trkpt>
<trkpt lat="33.810313" lon="-118.393867">
  <ele>-0.12</ele>
  <time>2026-09-01T01:16:55Z</time>
  <course>0.0</course>
  <speed>0.0</speed>
  <fix>3d</fix>
</trkpt>
<trkpt lat="33.810313" lon="-118.393867">
  <ele>-0.116</ele>
  <time>2026-09-01T01:16:55Z</time>
  <course>187.71</course>
  <speed>0.0282842712474619</speed>
  <fix>3d</fix>
</trkpt>
<trkpt lat="33.810313" lon="-118.393867">
  <ele>-0.12</ele>
  <time>2026-09-01T01:16:55Z</time>
  <course>0.0</course>
  <speed>0.0</speed>
  <fix>3d</fix>
</trkpt>
<trkpt lat="33.810313" lon="-118.393867">
  <ele>-0.113</ele>
  <time>2026-09-01T01:16:55Z</time>
  <course>187.71</course>
  <speed>0.0282842712474619</speed>
  <fix>3d</fix>
</trkpt>
<trkpt lat="33.810313" lon="-118.393867">
  <ele>-0.12</ele>
  <time>2026-09-01T01:16:55Z</time>
  <course>0.0</course>
  <speed>0.0</speed>
  <fix>3d</fix>
</trkpt>
<trkpt lat="33.810313" lon="-118.393867">
  <ele>-0.112</ele>
  <time>2026-09-01T01:16:55Z</time>
  <course>187.7</course>
  <speed>0.0282842712474619</speed>
  <fix>3d</fix>
</trkpt>
<trkpt lat="33.810313" lon="-118.393867">
  <ele>-0.12</ele>
  <time>2026-09-01T01:16:55Z</time>
  <course>0.0</course>
  <speed>0.0</speed>
  <fix>3d</fix>
</trkpt>
<trkpt lat="33.810313" lon="-118.393867">
  <ele>-0.113</ele>
  <time>2026-09-01T01:16:55Z</time>
  <course>187.69</course>
  <speed>0.0282842712474619</speed>
  <fix>3d</fix>
</trkpt>
<trkpt lat="33.810313" lon="-118.393867">
  <ele>-0.12</ele>
  <time>2026-09-01T01:16:55Z</time>
  <course>0.0</course>
  <speed>0.0</speed>
  <fix>3d</fix>
</trkpt>
<trkpt lat="33.810313" lon="-118.393867">
  <ele>-0.115</ele>
  <time>2026-09-01T01:16:55Z</time>
  <course>187.68</course>
  <speed>0.0282842712474619</speed>
  <fix>3d</fix>
</trkpt>
<trkpt lat="33.810313" lon="-118.393867">
  <ele>-0.12</ele>
  <time>2026-09-01T01:16:55Z</time>
  <course>0.0</course>
  <speed>0.0</speed>
  <fix>3d</fix>
</trkpt>
<trkpt lat="33.810313" lon="-118.393867">
  <ele>-0.119</ele>
  <time>2026-09-01T01:16:55Z</time>
  <course>187.68</course>
  <speed>0.0282842712474619</speed>
  <fix>3d</fix>
</trkpt>
<trkpt lat="33.810313" lon="-118.393867">
  <ele>-0.12</ele>
  <time>2026-09-01T01:16:55Z</time>
  <course>0.0</course>
  <speed>0.0</speed>
  <fix>3d</fix>
</trkpt>
<trkpt lat="33.810313" lon="-118.393867">
  <ele>-0.124</ele>
  <time>2026-09-01T01:16:55Z</time>
  <course>187.67</course>
  <speed>0.0282842712474619</speed>
  <fix>3d</fix>
</trkpt>
<trkpt lat="33.810313" lon="-118.393867">
  <ele>-0.12</ele>
  <time>2026-09-01T01:16:55Z</time>
  <course>0.0</course>
  <speed>0.0</speed>
  <fix>3d</fix>
</trkpt>
<trkpt lat="33.810313" lon="-118.393867">
  <ele>-0.129</ele>
  <time>2026-09-01T01:16:55Z</time>
  <course>187.66</course>
  <speed>0.0282842712474619</speed>
  <fix>3d</fix>
</trkpt>
<trkpt lat="33.810313" lon="-118.393867">
  <ele>-0.12</ele>
  <time>2026-09-01T01:16:55Z</time>
  <course>0.0</course>
  <speed>0.0</speed>
  <fix>3d</fix>
</trkpt>
<trkpt lat="33.810313" lon="-118.393867">
  <ele>-0.133</ele>
  <time>2026-09-01T01:16:55Z</time>
  <course>187.66</course>
  <speed>0.0282842712474619</speed>
  <fix>3d</fix>
</trkpt>
<trkpt lat="33.810313" lon="-118.393867">
  <ele>-0.12</ele>
  <time>2026-09-01T01:16:55Z</time>
  <course>0.0</course>
  <speed>0.0</speed>
  <fix>3d</fix>
</trkpt>
<trkpt lat="33.810313" lon="-118.393867">
  <ele>-0.135</ele>
  <time>2026-09-01T01:16:55Z</time>
  <course>187.65</course>
  <speed>0.0282842712474619</speed>
  <fix>3d</fix>
</trkpt>
<trkpt lat="33.810313" lon="-118.393867">
  <ele>-0.12</ele>
  <time>2026-09-01T01:16:55Z</time>
  <course>0.0</course>
  <speed>0.0</speed>
  <fix>3d</fix>
</trkpt>
<trkpt lat="33.810313" lon="-118.393867">
  <ele>-0.135</ele>
  <time>2026-09-01T01:16:55Z</time>
  <course>187.64</course>
  <speed>0.0282842712474619</speed>
  <fix>3d</fix>
</trkpt>
<trkpt lat="33.810313" lon="-118.393867">
  <ele>-0.12</ele>
  <time>2026-09-01T01:16:55Z</time>
  <course>0.0</course>
  <speed>0.0</speed>
  <fix>3d</fix>
</trkpt>
<trkpt lat="33.810313" lon="-118.393867">
  <ele>-0.135</ele>
  <time>2026-09-01T01:16:55Z</time>
  <course>187.64</course>
  <speed>0.0282842712474619</speed>
  <fix>3d</fix>
</trkpt>
<trkpt lat="33.810313" lon="-118.393867">
  <ele>-0.12</ele>
  <time>2026-09-01T01:16:55Z</time>
  <course>0.0</course>
  <speed>0.0</speed>
  <fix>3d</fix>
</trkpt>
<trkpt lat="33.810313" lon="-118.393867">
  <ele>-0.133</ele>
  <time>2026-09-01T01:16:55Z</time>
  <course>187.63</course>
  <speed>0.0282842712474619</speed>
  <fix>3d</fix>
</trkpt>
<trkpt lat="33.810313" lon="-118.393867">
  <ele>-0.12</ele>
  <time>2026-09-01T01:16:55Z</time>
  <course>0.0</course>
  <speed>0.0</speed>
  <fix>3d</fix>
</trkpt>
<trkpt lat="33.810313" lon="-118.393867">
  <ele>-0.132</ele>
  <time>2026-09-01T01:16:55Z</time>
  <course>187.63</course>
  <speed>0.03605551275463989</speed>
  <fix>3d</fix>
</trkpt>
<trkpt lat="33.810313" lon="-118.393867">
  <ele>-0.12</ele>
  <time>2026-09-01T01:16:55Z</time>
  <course>0.0</course>
  <speed>0.0</speed>
  <fix>3d</fix>
</trkpt>
<trkpt lat="33.810313" lon="-118.393867">
  <ele>-0.132</ele>
  <time>2026-09-01T01:16:55Z</time>
  <course>187.62</course>
  <speed>0.03605551275463989</speed>
  <fix>3d</fix>
</trkpt>
<trkpt lat="33.810313" lon="-118.393867">
  <ele>-0.12</ele>
  <time>2026-09-01T01:16:55Z</time>
  <course>0.0</course>
  <speed>0.0</speed>
  <fix>3d</fix>
</trkpt>
<trkpt lat="33.810313" lon="-118.393867">
  <ele>-0.133</ele>
  <time>2026-09-01T01:16:55Z</time>
  <course>187.61</course>
  <speed>0.03605551275463989</speed>
  <fix>3d</fix>
</trkpt>
<trkpt lat="33.810313" lon="-118.393867">
  <ele>-0.12</ele>
  <time>2026-09-01T01:16:55Z</time>
  <course>0.0</course>
  <speed>0.0</speed>
  <fix>3d</fix>
</trkpt>
<trkpt lat="33.810313" lon="-118.393867">
  <ele>-0.134</ele>
  <time>2026-09-01T01:16:55Z</time>
  <course>187.6</course>
  <speed>0.03605551275463989</speed>
  <fix>3d</fix>
</trkpt>
<trkpt lat="33.810313" lon="-118.393867">
  <ele>-0.12</ele>
  <time>2026-09-01T01:16:55Z</time>
  <course>0.0</course>
  <speed>0.0</speed>
  <fix>3d</fix>
</trkpt>
<trkpt lat="33.810313" lon="-118.393867">
  <ele>-0.134</ele>
  <time>2026-09-01T01:16:55Z</time>
  <course>187.6</course>
  <speed>0.03605551275463989</speed>
  <fix>3d</fix>
</trkpt>
<trkpt lat="33.810313" lon="-118.393867">
  <ele>-0.12</ele>
  <time>2026-09-01T01:16:55Z</time>
  <course>0.0</course>
  <speed>0.0</speed>
  <fix>3d</fix>
</trkpt>
<trkpt lat="33.810313" lon="-118.393867">
  <ele>-0.134</ele>
  <time>2026-09-01T01:16:55Z</time>
  <course>187.59</course>
  <speed>0.03605551275463989</speed>
  <fix>3d</fix>
</trkpt>
<trkpt lat="33.810313" lon="-118.393867">
  <ele>-0.12</ele>
  <time>2026-09-01T01:16:55Z</time>
  <course>0.0</course>
  <speed>0.0</speed>
  <fix>3d</fix>
</trkpt>
<trkpt lat="33.810313" lon="-118.393867">
  <ele>-0.132</ele>
  <time>2026-09-01T01:16:55Z</time>
  <course>187.58</course>
  <speed>0.03605551275463989</speed>
  <fix>3d</fix>
</trkpt>
<trkpt lat="33.810313" lon="-118.393867">
  <ele>-0.12</ele>
  <time>2026-09-01T01:16:55Z</time>
  <course>0.0</course>
  <speed>0.0</speed>
  <fix>3d</fix>
</trkpt>
<trkpt lat="33.810313" lon="-118.393867">
  <ele>-0.129</ele>
  <time>2026-09-01T01:16:55Z</time>
  <course>187.58</course>
  <speed>0.03605551275463989</speed>
  <fix>3d</fix>
</trkpt>
<trkpt lat="33.810313" lon="-118.393867">
  <ele>-0.12</ele>
  <time>2026-09-01T01:16:55Z</time>
  <course>0.0</course>
  <speed>0.0</speed>
  <fix>3d</fix>
</trkpt>
<trkpt lat="33.810313" lon="-118.393867">
  <ele>-0.127</ele>
  <time>2026-09-01T01:16:55Z</time>
  <course>187.57</course>
  <speed>0.03605551275463989</speed>
  <fix>3d</fix>
</trkpt>
<trkpt lat="33.810313" lon="-118.393867">
  <ele>-0.12</ele>
  <time>2026-09-01T01:16:55Z</time>
  <course>0.0</course>
  <speed>0.0</speed>
  <fix>3d</fix>
</trkpt>
<trkpt lat="33.810313" lon="-118.393867">
  <ele>-0.125</ele>
  <time>2026-09-01T01:16:55Z</time>
  <course>187.56</course>
  <speed>0.03605551275463989</speed>
  <fix>3d</fix>
</trkpt>
<trkpt lat="33.810313" lon="-118.393867">
  <ele>-0.12</ele>
  <time>2026-09-01T01:16:55Z</time>
  <course>0.0</course>
  <speed>0.0</speed>
  <fix>3d</fix>
</trkpt>
<trkpt lat="33.810313" lon="-118.393867">
  <ele>-0.122</ele>
  <time>2026-09-01T01:16:55Z</time>
  <course>187.56</course>
  <speed>0.03605551275463989</speed>
  <fix>3d</fix>
</trkpt>
<trkpt lat="33.810313" lon="-118.393867">
  <ele>-0.12</ele>
  <time>2026-09-01T01:16:55Z</time>
  <course>0.0</course>
  <speed>0.0</speed>
  <fix>3d</fix>
</trkpt>
<trkpt lat="33.810313" lon="-118.393867">
  <ele>-0.119</ele>
  <time>2026-09-01T01:16:55Z</time>
  <course>187.55</course>
  <speed>0.03605551275463989</speed>
  <fix>3d</fix>
</trkpt>
<trkpt lat="33.810313" lon="-118.393867">
  <ele>-0.12</ele>
  <time>2026-09-01T01:16:55Z</time>
  <course>0.0</course>
  <speed>0.0</speed>
  <fix>3d</fix>
</trkpt>
<trkpt lat="33.810313" lon="-118.393867">
  <ele>-0.117</ele>
  <time>2026-09-01T01:16:55Z</time>
  <course>187.54</course>
  <speed>0.03605551275463989</speed>
  <fix>3d</fix>
</trkpt>
<trkpt lat="33.810313" lon="-118.393867">
  <ele>-0.12</ele>
  <time>2026-09-01T01:16:55Z</time>
  <course>0.0</course>
  <speed>0.0</speed>
  <fix>3d</fix>
</trkpt>
<trkpt lat="33.810313" lon="-118.393867">
  <ele>-0.117</ele>
  <time>2026-09-01T01:16:55Z</time>
  <course>187.54</course>
  <speed>0.03605551275463989</speed>
  <fix>3d</fix>
</trkpt>
<trkpt lat="33.810313" lon="-118.393867">
  <ele>-0.12</ele>
  <time>2026-09-01T01:16:55Z</time>
  <course>0.0</course>
  <speed>0.0</speed>
  <fix>3d</fix>
</trkpt>
<trkpt lat="33.810313" lon="-118.393867">
  <ele>-0.118</ele>
  <time>2026-09-01T01:16:55Z</time>
  <course>187.53</course>
  <speed>0.03605551275463989</speed>
  <fix>3d</fix>
</trkpt>
<trkpt lat="33.810313" lon="-118.393867">
  <ele>-0.12</ele>
  <time>2026-09-01T01:16:55Z</time>
  <course>0.0</course>
  <speed>0.0</speed>
  <fix>3d</fix>
</trkpt>
<trkpt lat="33.810313" lon="-118.393867">
  <ele>-0.119</ele>
  <time>2026-09-01T01:16:55Z</time>
  <course>187.52</course>
  <speed>0.03605551275463989</speed>
  <fix>3d</fix>
</trkpt>
<trkpt lat="33.810313" lon="-118.393867">
  <ele>-0.12</ele>
  <time>2026-09-01T01:16:55Z</time>
  <course>0.0</course>
  <speed>0.0</speed>
  <fix>3d</fix>
</trkpt>
<trkpt lat="33.810313" lon="-118.393867">
  <ele>-0.12</ele>
  <time>2026-09-01T01:16:55Z</time>
  <course>187.52</course>
  <speed>0.03605551275463989</speed>
  <fix>3d</fix>
</trkpt>
<trkpt lat="33.810313" lon="-118.393867">
  <ele>-0.12</ele>
  <time>2026-09-01T01:16:55Z</time>
  <course>0.0</course>
  <speed>0.0</speed>
  <fix>3d</fix>
</trkpt>
<trkpt lat="33.810313" lon="-118.393867">
  <ele>-0.121</ele>
  <time>2026-09-01T01:16:55Z</time>
  <course>187.51</course>
  <speed>0.03605551275463989</speed>
  <fix>3d</fix>
</trkpt>
<trkpt lat="33.810313" lon="-118.393867">
  <ele>-0.12</ele>
  <time>2026-09-01T01:16:55Z</time>
  <course>0.0</course>
  <speed>0.0</speed>
  <fix>3d</fix>
</trkpt>
<trkpt lat="33.810313" lon="-118.393867">
  <ele>-0.121</ele>
  <time>2026-09-01T01:16:55Z</time>
  <course>187.51</course>
  <speed>0.03605551275463989</speed>
  <fix>3d</fix>
</trkpt>
<trkpt lat="33.810313" lon="-118.393867">
  <ele>-0.12</ele>
  <time>2026-09-01T01:16:55Z</time>
  <course>0.0</course>
  <speed>0.0</speed>
  <fix>3d</fix>
</trkpt>
<trkpt lat="33.810313" lon="-118.393867">
  <ele>-0.121</ele>
  <time>2026-09-01T01:16:55Z</time>
  <course>187.5</course>
  <speed>0.03605551275463989</speed>
  <fix>3d</fix>
</trkpt>
<trkpt lat="33.810313" lon="-118.393867">
  <ele>-0.12</ele>
  <time>2026-09-01T01:16:55Z</time>
  <course>0.0</course>
  <speed>0.0</speed>
  <fix>3d</fix>
</trkpt>
<trkpt lat="33.810313" lon="-118.393867">
  <ele>-0.121</ele>
  <time>2026-09-01T01:16:55Z</time>
  <course>187.49</course>
  <speed>0.03605551275463989</speed>
  <fix>3d</fix>
</trkpt>
<trkpt lat="33.810313" lon="-118.393867">
  <ele>-0.12</ele>
  <time>2026-09-01T01:16:55Z</time>
  <course>0.0</course>
  <speed>0.0</speed>
  <fix>3d</fix>
</trkpt>
<trkpt lat="33.810313" lon="-118.393867">
  <ele>-0.121</ele>
  <time>2026-09-01T01:16:55Z</time>
  <course>187.49</course>
  <speed>0.03605551275463989</speed>
  <fix>3d</fix>
</trkpt>
<trkpt lat="33.810313" lon="-118.393867">
  <ele>-0.12</ele>
  <time>2026-09-01T01:16:55Z</time>
  <course>0.0</course>
  <speed>0.0</speed>
  <fix>3d</fix>
</trkpt>
<trkpt lat="33.810313" lon="-118.393867">
  <ele>-0.121</ele>
  <time>2026-09-01T01:16:55Z</time>
  <course>187.48</course>
  <speed>0.03605551275463989</speed>
  <fix>3d</fix>
</trkpt>
<trkpt lat="33.810313" lon="-118.393867">
  <ele>-0.12</ele>
  <time>2026-09-01T01:16:55Z</time>
  <course>0.0</course>
  <speed>0.0</speed>
  <fix>3d</fix>
</trkpt>
<trkpt lat="33.810313" lon="-118.393867">
  <ele>-0.122</ele>
  <time>2026-09-01T01:16:55Z</time>
  <course>187.47</course>
  <speed>0.03605551275463989</speed>
  <fix>3d</fix>
</trkpt>
<trkpt lat="33.810313" lon="-118.393867">
  <ele>-0.12</ele>
  <time>2026-09-01T01:16:55Z</time>
  <course>0.0</course>
  <speed>0.0</speed>
  <fix>3d</fix>
</trkpt>
<trkpt lat="33.810313" lon="-118.393867">
  <ele>-0.124</ele>
  <time>2026-09-01T01:16:55Z</time>
  <course>187.47</course>
  <speed>0.03605551275463989</speed>
  <fix>3d</fix>
</trkpt>
<trkpt lat="33.810313" lon="-118.393867">
  <ele>-0.12</ele>
  <time>2026-09-01T01:16:55Z</time>
  <course>0.0</course>
  <speed>0.0</speed>
  <fix>3d</fix>
</trkpt>
<trkpt lat="33.810313" lon="-118.393867">
  <ele>-0.127</ele>
  <time>2026-09-01T01:16:55Z</time>
  <course>187.46</course>
  <speed>0.03605551275463989</speed>
  <fix>3d</fix>
</trkpt>
<trkpt lat="33.810313" lon="-118.393867">
  <ele>-0.12</ele>
  <time>2026-09-01T01:16:55Z</time>
  <course>0.0</course>
  <speed>0.0</speed>
  <fix>3d</fix>
</trkpt>
<trkpt lat="33.810313" lon="-118.393867">
  <ele>-0.129</ele>
  <time>2026-09-01T01:16:55Z</time>
  <course>187.45</course>
  <speed>0.03605551275463989</speed>
  <fix>3d</fix>
</trkpt>
<trkpt lat="33.810313" lon="-118.393867">
  <ele>-0.12</ele>
  <time>2026-09-01T01:16:55Z</time>
  <course>0.0</course>
  <speed>0.0</speed>
  <fix>3d</fix>
</trkpt>
<trkpt lat="33.810313" lon="-118.393867">
  <ele>-0.131</ele>
  <time>2026-09-01T01:16:55Z</time>
  <course>187.45</course>
  <speed>0.03605551275463989</speed>
  <fix>3d</fix>
</trkpt>
<trkpt lat="33.810313" lon="-118.393867">
  <ele>-0.12</ele>
  <time>2026-09-01T01:16:55Z</time>
  <course>0.0</course>
  <speed>0.0</speed>
  <fix>3d</fix>
</trkpt>
<trkpt lat="33.810313" lon="-118.393867">
  <ele>-0.132</ele>
  <time>2026-09-01T01:16:55Z</time>
  <course>187.44</course>
  <speed>0.03605551275463989</speed>
  <fix>3d</fix>
</trkpt>
<trkpt lat="33.810313" lon="-118.393867">
  <ele>-0.12</ele>
  <time>2026-09-01T01:16:55Z</time>
  <course>0.0</course>
  <speed>0.0</speed>
  <fix>3d</fix>
</trkpt>
<trkpt lat="33.810313" lon="-118.393867">
  <ele>-0.132</ele>
  <time>2026-09-01T01:16:55Z</time>
  <course>187.44</course>
  <speed>0.03605551275463989</speed>
  <fix>3d</fix>
</trkpt>
<trkpt lat="33.810313" lon="-118.393867">
  <ele>-0.12</ele>
  <time>2026-09-01T01:16:55Z</time>
  <course>0.0</course>
  <speed>0.0</speed>
  <fix>3d</fix>
</trkpt>
<trkpt lat="33.810313" lon="-118.393867">
  <ele>-0.132</ele>
  <time>2026-09-01T01:16:55Z</time>
  <course>187.43</course>
  <speed>0.03605551275463989</speed>
  <fix>3d</fix>
</trkpt>
<trkpt lat="33.810313" lon="-118.393867">
  <ele>-0.12</ele>
  <time>2026-09-01T01:16:55Z</time>
  <course>0.0</course>
  <speed>0.0</speed>
  <fix>3d</fix>
</trkpt>
<trkpt lat="33.810313" lon="-118.393867">
  <ele>-0.132</ele>
  <time>2026-09-01T01:16:55Z</time>
  <course>187.42</course>
  <speed>0.03605551275463989</speed>
  <fix>3d</fix>
</trkpt>
<trkpt lat="33.810313" lon="-118.393867">
  <ele>-0.12</ele>
  <time>2026-09-01T01:16:55Z</time>
  <course>0.0</course>
  <speed>0.0</speed>
  <fix>3d</fix>
</trkpt>
<trkpt lat="33.810313" lon="-118.393867">
  <ele>-0.131</ele>
  <time>2026-09-01T01:16:55Z</time>
  <course>187.42</course>
  <speed>0.03605551275463989</speed>
  <fix>3d</fix>
</trkpt>
<trkpt lat="33.810313" lon="-118.393867">
  <ele>-0.12</ele>
  <time>2026-09-01T01:16:55Z</time>
  <course>0.0</course>
  <speed>0.0</speed>
  <fix>3d</fix>
</trkpt>
<trkpt lat="33.810313" lon="-118.393867">
  <ele>-0.131</ele>
  <time>2026-09-01T01:16:55Z</time>
  <course>187.41</course>
  <speed>0.03605551275463989</speed>
  <fix>3d</fix>
</trkpt>
<trkpt lat="33.810313" lon="-118.393867">
  <ele>-0.12</ele>
  <time>2026-09-01T01:16:55Z</time>
  <course>0.0</course>
  <speed>0.0</speed>
  <fix>3d</fix>
</trkpt>
<trkpt lat="33.810313" lon="-118.393867">
  <ele>-0.132</ele>
  <time>2026-09-01T01:16:55Z</time>
  <course>187.41</course>
  <speed>0.03605551275463989</speed>
  <fix>3d</fix>
</trkpt>
<trkpt lat="33.810313" lon="-118.393867">
  <ele>-0.12</ele>
  <time>2026-09-01T01:16:55Z</time>
  <course>0.0</course>
  <speed>0.0</speed>
  <fix>3d</fix>
</trkpt>
<trkpt lat="33.810313" lon="-118.393867">
  <ele>-0.134</ele>
  <time>2026-09-01T01:16:55Z</time>
  <course>187.4</course>
  <speed>0.03605551275463989</speed>
  <fix>3d</fix>
</trkpt>
<trkpt lat="33.810313" lon="-118.393867">
  <ele>-0.12</ele>
  <time>2026-09-01T01:16:55Z</time>
  <course>0.0</course>
  <speed>0.0</speed>
  <fix>3d</fix>
</trkpt>
<trkpt lat="33.810313" lon="-118.393867">
  <ele>-0.137</ele>
  <time>2026-09-01T01:16:55Z</time>
  <course>187.39</course>
  <speed>0.03605551275463989</speed>
  <fix>3d</fix>
</trkpt>
<trkpt lat="33.810313" lon="-118.393867">
  <ele>-0.12</ele>
  <time>2026-09-01T01:16:55Z</time>
  <course>0.0</course>
  <speed>0.0</speed>
  <fix>3d</fix>
</trkpt>
<trkpt lat="33.810313" lon="-118.393867">
  <ele>-0.139</ele>
  <time>2026-09-01T01:16:55Z</time>
  <course>187.39</course>
  <speed>0.03605551275463989</speed>
  <fix>3d</fix>
</trkpt>
<trkpt lat="33.810313" lon="-118.393867">
  <ele>-0.12</ele>
  <time>2026-09-01T01:16:55Z</time>
  <course>0.0</course>
  <speed>0.0</speed>
  <fix>3d</fix>
</trkpt>
<trkpt lat="33.810313" lon="-118.393867">
  <ele>-0.141</ele>
  <time>2026-09-01T01:16:55Z</time>
  <course>187.38</course>
  <speed>0.03605551275463989</speed>
  <fix>3d</fix>
</trkpt>
<trkpt lat="33.810313" lon="-118.393867">
  <ele>-0.12</ele>
  <time>2026-09-01T01:16:55Z</time>
  <course>0.0</course>
  <speed>0.0</speed>
  <fix>3d</fix>
</trkpt>
<trkpt lat="33.810313" lon="-118.393867">
  <ele>-0.141</ele>
  <time>2026-09-01T01:16:55Z</time>
  <course>187.38</course>
  <speed>0.03605551275463989</speed>
  <fix>3d</fix>
</trkpt>
<trkpt lat="33.810313" lon="-118.393867">
  <ele>-0.12</ele>
  <time>2026-09-01T01:16:55Z</time>
  <course>0.0</course>
  <speed>0.0</speed>
  <fix>3d</fix>
</trkpt>
<trkpt lat="33.810313" lon="-118.393867">
  <ele>-0.139</ele>
  <time>2026-09-01T01:16:55Z</time>
  <course>187.37</course>
  <speed>0.03605551275463989</speed>
  <fix>3d</fix>
</trkpt>
<trkpt lat="33.810313" lon="-118.393867">
  <ele>-0.12</ele>
  <time>2026-09-01T01:16:55Z</time>
  <course>0.0</course>
  <speed>0.0</speed>
  <fix>3d</fix>
</trkpt>
<trkpt lat="33.810313" lon="-118.393867">
  <ele>-0.136</ele>
  <time>2026-09-01T01:16:55Z</time>
  <course>187.36</course>
  <speed>0.03605551275463989</speed>
  <fix>3d</fix>
</trkpt>
<trkpt lat="33.810313" lon="-118.393867">
  <ele>-0.12</ele>
  <time>2026-09-01T01:16:55Z</time>
  <course>0.0</course>
  <speed>0.0</speed>
  <fix>3d</fix>
</trkpt>
<trkpt lat="33.810313" lon="-118.393867">
  <ele>-0.132</ele>
  <time>2026-09-01T01:16:55Z</time>
  <course>187.36</course>
  <speed>0.03605551275463989</speed>
  <fix>3d</fix>
</trkpt>
<trkpt lat="33.810313" lon="-118.393867">
  <ele>-0.12</ele>
  <time>2026-09-01T01:16:55Z</time>
  <course>0.0</course>
  <speed>0.0</speed>
  <fix>3d</fix>
</trkpt>
<trkpt lat="33.810313" lon="-118.393867">
  <ele>-0.129</ele>
  <time>2026-09-01T01:16:55Z</time>
  <course>187.35</course>
  <speed>0.03605551275463989</speed>
  <fix>3d</fix>
</trkpt>
<trkpt lat="33.810313" lon="-118.393867">
  <ele>-0.12</ele>
  <time>2026-09-01T01:16:55Z</time>
  <course>0.0</course>
  <speed>0.0</speed>
  <fix>3d</fix>
</trkpt>
<trkpt lat="33.810313" lon="-118.393867">
  <ele>-0.127</ele>
  <time>2026-09-01T01:16:55Z</time>
  <course>187.35</course>
  <speed>0.03605551275463989</speed>
  <fix>3d</fix>
</trkpt>
<trkpt lat="33.810313" lon="-118.393867">
  <ele>-0.12</ele>
  <time>2026-09-01T01:16:55Z</time>
  <course>0.0</course>
  <speed>0.0</speed>
  <fix>3d</fix>
</trkpt>
<trkpt lat="33.810313" lon="-118.393867">
  <ele>-0.126</ele>
  <time>2026-09-01T01:16:55Z</time>
  <course>187.34</course>
  <speed>0.03605551275463989</speed>
  <fix>3d</fix>
</trkpt>
<trkpt lat="33.810313" lon="-118.393867">
  <ele>-0.12</ele>
  <time>2026-09-01T01:16:55Z</time>
  <course>0.0</course>
  <speed>0.0</speed>
  <fix>3d</fix>
</trkpt>
<trkpt lat="33.810313" lon="-118.393867">
  <ele>-0.126</ele>
  <time>2026-09-01T01:16:55Z</time>
  <course>187.33</course>
  <speed>0.03605551275463989</speed>
  <fix>3d</fix>
</trkpt>
<trkpt lat="33.810313" lon="-118.393867">
  <ele>-0.12</ele>
  <time>2026-09-01T01:16:55Z</time>
  <course>0.0</course>
  <speed>0.0</speed>
  <fix>3d</fix>
</trkpt>
<trkpt lat="33.810313" lon="-118.393867">
  <ele>-0.127</ele>
  <time>2026-09-01T01:16:55Z</time>
  <course>187.33</course>
  <speed>0.03605551275463989</speed>
  <fix>3d</fix>
</trkpt>
<trkpt lat="33.810313" lon="-118.393867">
  <ele>-0.12</ele>
  <time>2026-09-01T01:16:55Z</time>
  <course>0.0</course>
  <speed>0.0</speed>
  <fix>3d</fix>
</trkpt>
<trkpt lat="33.810313" lon="-118.393867">
  <ele>-0.126</ele>
  <time>2026-09-01T01:16:55Z</time>
  <course>187.32</course>
  <speed>0.03605551275463989</speed>
  <fix>3d</fix>
</trkpt>
<trkpt lat="33.810313" lon="-118.393867">
  <ele>-0.12</ele>
  <time>2026-09-01T01:16:55Z</time>
  <course>0.0</course>
  <speed>0.0</speed>
  <fix>3d</fix>
</trkpt>
<trkpt lat="33.810313" lon="-118.393867">
  <ele>-0.126</ele>
  <time>2026-09-01T01:16:55Z</time>
  <course>187.32</course>
  <speed>0.03605551275463989</speed>
  <fix>3d</fix>
</trkpt>
<trkpt lat="33.810313" lon="-118.393867">
  <ele>-0.12</ele>
  <time>2026-09-01T01:16:55Z</time>
  <course>0.0</course>
  <speed>0.0</speed>
  <fix>3d</fix>
</trkpt>
<trkpt lat="33.810313" lon="-118.393867">
  <ele>-0.125</ele>
  <time>2026-09-01T01:16:55Z</time>
  <course>187.31</course>
  <speed>0.03605551275463989</speed>
  <fix>3d</fix>
</trkpt>
<trkpt lat="33.810313" lon="-118.393867">
  <ele>-0.12</ele>
  <time>2026-09-01T01:16:55Z</time>
  <course>0.0</course>
  <speed>0.0</speed>
  <fix>3d</fix>
</trkpt>
<trkpt lat="33.810313" lon="-118.393867">
  <ele>-0.124</ele>
  <time>2026-09-01T01:16:55Z</time>
  <course>187.31</course>
  <speed>0.03605551275463989</speed>
  <fix>3d</fix>
</trkpt>
<trkpt lat="33.810313" lon="-118.393867">
  <ele>-0.12</ele>
  <time>2026-09-01T01:16:55Z</time>
  <course>0.0</course>
  <speed>0.0</speed>
  <fix>3d</fix>
</trkpt>
<trkpt lat="33.810313" lon="-118.393867">
  <ele>-0.122</ele>
  <time>2026-09-01T01:16:55Z</time>
  <course>187.3</course>
  <speed>0.03605551275463989</speed>
  <fix>3d</fix>
</trkpt>
<trkpt lat="33.810313" lon="-118.393867">
  <ele>-0.12</ele>
  <time>2026-09-01T01:16:55Z</time>
  <course>0.0</course>
  <speed>0.0</speed>
  <fix>3d</fix>
</trkpt>
<trkpt lat="33.810313" lon="-118.393867">
  <ele>-0.121</ele>
  <time>2026-09-01T01:16:55Z</time>
  <course>187.29</course>
  <speed>0.03605551275463989</speed>
  <fix>3d</fix>
</trkpt>
<trkpt lat="33.810313" lon="-118.393867">
  <ele>-0.12</ele>
  <time>2026-09-01T01:16:55Z</time>
  <course>0.0</course>
  <speed>0.0</speed>
  <fix>3d</fix>
</trkpt>
<trkpt lat="33.810313" lon="-118.393867">
  <ele>-0.122</ele>
  <time>2026-09-01T01:16:55Z</time>
  <course>187.29</course>
  <speed>0.03605551275463989</speed>
  <fix>3d</fix>
</trkpt>
<trkpt lat="33.810313" lon="-118.393867">
  <ele>-0.12</ele>
  <time>2026-09-01T01:16:55Z</time>
  <course>0.0</course>
  <speed>0.0</speed>
  <fix>3d</fix>
</trkpt>
<trkpt lat="33.810313" lon="-118.393867">
  <ele>-0.124</ele>
  <time>2026-09-01T01:16:55Z</time>
  <course>187.28</course>
  <speed>0.03605551275463989</speed>
  <fix>3d</fix>
</trkpt>
<trkpt lat="33.810313" lon="-118.393867">
  <ele>-0.12</ele>
  <time>2026-09-01T01:16:55Z</time>
  <course>0.0</course>
  <speed>0.0</speed>
  <fix>3d</fix>
</trkpt>
<trkpt lat="33.810313" lon="-118.393867">
  <ele>-0.128</ele>
  <time>2026-09-01T01:16:55Z</time>
  <course>187.28</course>
  <speed>0.03605551275463989</speed>
  <fix>3d</fix>
</trkpt>
<trkpt lat="33.810313" lon="-118.393867">
  <ele>-0.12</ele>
  <time>2026-09-01T01:16:55Z</time>
  <course>0.0</course>
  <speed>0.0</speed>
  <fix>3d</fix>
</trkpt>
<trkpt lat="33.810313" lon="-118.393867">
  <ele>-0.13</ele>
  <time>2026-09-01T01:16:55Z</time>
  <course>187.27</course>
  <speed>0.03605551275463989</speed>
  <fix>3d</fix>
</trkpt>
<trkpt lat="33.810313" lon="-118.393867">
  <ele>-0.12</ele>
  <time>2026-09-01T01:16:55Z</time>
  <course>0.0</course>
  <speed>0.0</speed>
  <fix>3d</fix>
</trkpt>
<trkpt lat="33.810313" lon="-118.393867">
  <ele>-0.133</ele>
  <time>2026-09-01T01:16:55Z</time>
  <course>187.27</course>
  <speed>0.03605551275463989</speed>
  <fix>3d</fix>
</trkpt>
<trkpt lat="33.810313" lon="-118.393867">
  <ele>-0.12</ele>
  <time>2026-09-01T01:16:55Z</time>
  <course>0.0</course>
  <speed>0.0</speed>
  <fix>3d</fix>
</trkpt>
<trkpt lat="33.810313" lon="-118.393867">
  <ele>-0.135</ele>
  <time>2026-09-01T01:16:55Z</time>
  <course>187.26</course>
  <speed>0.03605551275463989</speed>
  <fix>3d</fix>
</trkpt>
<trkpt lat="33.810313" lon="-118.393867">
  <ele>-0.12</ele>
  <time>2026-09-01T01:16:55Z</time>
  <course>0.0</course>
  <speed>0.0</speed>
  <fix>3d</fix>
</trkpt>
<trkpt lat="33.810313" lon="-118.393867">
  <ele>-0.136</ele>
  <time>2026-09-01T01:16:55Z</time>
  <course>187.26</course>
  <speed>0.03605551275463989</speed>
  <fix>3d</fix>
</trkpt>
<trkpt lat="33.810313" lon="-118.393867">
  <ele>-0.12</ele>
  <time>2026-09-01T01:16:55Z</time>
  <course>0.0</course>
  <speed>0.0</speed>
  <fix>3d</fix>
</trkpt>
<trkpt lat="33.810313" lon="-118.393867">
  <ele>-0.136</ele>
  <time>2026-09-01T01:16:55Z</time>
  <course>187.25</course>
  <speed>0.03605551275463989</speed>
  <fix>3d</fix>
</trkpt>
<trkpt lat="33.810313" lon="-118.393867">
  <ele>-0.12</ele>
  <time>2026-09-01T01:16:55Z</time>
  <course>0.0</course>
  <speed>0.0</speed>
  <fix>3d</fix>
</trkpt>
<trkpt lat="33.810313" lon="-118.393867">
  <ele>-0.135</ele>
  <time>2026-09-01T01:16:55Z</time>
  <course>187.25</course>
  <speed>0.03605551275463989</speed>
  <fix>3d</fix>
</trkpt>
<trkpt lat="33.810313" lon="-118.393867">
  <ele>-0.12</ele>
  <time>2026-09-01T01:16:55Z</time>
  <course>0.0</course>
  <speed>0.0</speed>
  <fix>3d</fix>
</trkpt>
<trkpt lat="33.810313" lon="-118.393867">
  <ele>-0.134</ele>
  <time>2026-09-01T01:16:55Z</time>
  <course>187.24</course>
  <speed>0.03605551275463989</speed>
  <fix>3d</fix>
</trkpt>
<trkpt lat="33.810313" lon="-118.393867">
  <ele>-0.12</ele>
  <time>2026-09-01T01:16:55Z</time>
  <course>0.0</course>
  <speed>0.0</speed>
  <fix>3d</fix>
</trkpt>
<trkpt lat="33.810313" lon="-118.393867">
  <ele>-0.132</ele>
  <time>2026-09-01T01:16:55Z</time>
  <course>187.24</course>
  <speed>0.03605551275463989</speed>
  <fix>3d</fix>
</trkpt>
<trkpt lat="33.810313" lon="-118.393867">
  <ele>-0.12</ele>
  <time>2026-09-01T01:16:55Z</time>
  <course>0.0</course>
  <speed>0.0</speed>
  <fix>3d</fix>
</trkpt>
<trkpt lat="33.810313" lon="-118.393867">
  <ele>-0.131</ele>
  <time>2026-09-01T01:16:55Z</time>
  <course>187.23</course>
  <speed>0.03605551275463989</speed>
  <fix>3d</fix>
</trkpt>
<trkpt lat="33.810313" lon="-118.393867">
  <ele>-0.12</ele>
  <time>2026-09-01T01:16:55Z</time>
  <course>0.0</course>
  <speed>0.0</speed>
  <fix>3d</fix>
</trkpt>
<trkpt lat="33.810313" lon="-118.393867">
  <ele>-0.131</ele>
  <time>2026-09-01T01:16:55Z</time>
  <course>187.22</course>
  <speed>0.03605551275463989</speed>
  <fix>3d</fix>
</trkpt>
<trkpt lat="33.810313" lon="-118.393867">
  <ele>-0.12</ele>
  <time>2026-09-01T01:16:55Z</time>
  <course>0.0</course>
  <speed>0.0</speed>
  <fix>3d</fix>
</trkpt>
<trkpt lat="33.810313" lon="-118.393867">
  <ele>-0.132</ele>
  <time>2026-09-01T01:16:55Z</time>
  <course>187.22</course>
  <speed>0.03605551275463989</speed>
  <fix>3d</fix>
</trkpt>
<trkpt lat="33.810313" lon="-118.393867">
  <ele>-0.12</ele>
  <time>2026-09-01T01:16:55Z</time>
  <course>0.0</course>
  <speed>0.0</speed>
  <fix>3d</fix>
</trkpt>
<trkpt lat="33.810313" lon="-118.393867">
  <ele>-0.132</ele>
  <time>2026-09-01T01:16:55Z</time>
  <course>187.21</course>
  <speed>0.03605551275463989</speed>
  <fix>3d</fix>
</trkpt>
<trkpt lat="33.810313" lon="-118.393867">
  <ele>-0.12</ele>
  <time>2026-09-01T01:16:55Z</time>
  <course>0.0</course>
  <speed>0.0</speed>
  <fix>3d</fix>
</trkpt>
<trkpt lat="33.810313" lon="-118.393867">
  <ele>-0.133</ele>
  <time>2026-09-01T01:16:55Z</time>
  <course>187.21</course>
  <speed>0.03605551275463989</speed>
  <fix>3d</fix>
</trkpt>
<trkpt lat="33.810313" lon="-118.393867">
  <ele>-0.12</ele>
  <time>2026-09-01T01:16:55Z</time>
  <course>0.0</course>
  <speed>0.0</speed>
  <fix>3d</fix>
</trkpt>
<trkpt lat="33.810313" lon="-118.393867">
  <ele>-0.132</ele>
  <time>2026-09-01T01:16:55Z</time>
  <course>187.2</course>
  <speed>0.03605551275463989</speed>
  <fix>3d</fix>
</trkpt>
<trkpt lat="33.810313" lon="-118.393867">
  <ele>-0.12</ele>
  <time>2026-09-01T01:16:55Z</time>
  <course>0.0</course>
  <speed>0.0</speed>
  <fix>3d</fix>
</trkpt>
<trkpt lat="33.810313" lon="-118.393867">
  <ele>-0.131</ele>
  <time>2026-09-01T01:16:55Z</time>
  <course>187.2</course>
  <speed>0.03605551275463989</speed>
  <fix>3d</fix>
</trkpt>
<trkpt lat="33.810313" lon="-118.393867">
  <ele>-0.12</ele>
  <time>2026-09-01T01:16:55Z</time>
  <course>0.0</course>
  <speed>0.0</speed>
  <fix>3d</fix>
</trkpt>
<trkpt lat="33.810313" lon="-118.393867">
  <ele>-0.129</ele>
  <time>2026-09-01T01:16:55Z</time>
  <course>187.19</course>
  <speed>0.03605551275463989</speed>
  <fix>3d</fix>
</trkpt>
<trkpt lat="33.810313" lon="-118.393867">
  <ele>-0.12</ele>
  <time>2026-09-01T01:16:55Z</time>
  <course>0.0</course>
  <speed>0.0</speed>
  <fix>3d</fix>
</trkpt>
<trkpt lat="33.810313" lon="-118.393867">
  <ele>-0.126</ele>
  <time>2026-09-01T01:16:55Z</time>
  <course>187.19</course>
  <speed>0.03605551275463989</speed>
  <fix>3d</fix>
</trkpt>
<trkpt lat="33.810313" lon="-118.393867">
  <ele>-0.12</ele>
  <time>2026-09-01T01:16:55Z</time>
  <course>0.0</course>
  <speed>0.0</speed>
  <fix>3d</fix>
</trkpt>
<trkpt lat="33.810313" lon="-118.393867">
  <ele>-0.124</ele>
  <time>2026-09-01T01:16:55Z</time>
  <course>187.18</course>
  <speed>0.03605551275463989</speed>
  <fix>3d</fix>
</trkpt>
<trkpt lat="33.810313" lon="-118.393867">
  <ele>-0.12</ele>
  <time>2026-09-01T01:16:55Z</time>
  <course>0.0</course>
  <speed>0.0</speed>
  <fix>3d</fix>
</trkpt>
<trkpt lat="33.810313" lon="-118.393867">
  <ele>-0.123</ele>
  <time>2026-09-01T01:16:55Z</time>
  <course>187.18</course>
  <speed>0.03605551275463989</speed>
  <fix>3d</fix>
</trkpt>
<trkpt lat="33.810313" lon="-118.393867">
  <ele>-0.12</ele>
  <time>2026-09-01T01:16:55Z</time>
  <course>0.0</course>
  <speed>0.0</speed>
  <fix>3d</fix>
</trkpt>
<trkpt lat="33.810313" lon="-118.393867">
  <ele>-0.123</ele>
  <time>2026-09-01T01:16:55Z</time>
  <course>187.17</course>
  <speed>0.03605551275463989</speed>
  <fix>3d</fix>
</trkpt>
<trkpt lat="33.810313" lon="-118.393867">
  <ele>-0.12</ele>
  <time>2026-09-01T01:16:55Z</time>
  <course>0.0</course>
  <speed>0.0</speed>
  <fix>3d</fix>
</trkpt>
<trkpt lat="33.810313" lon="-118.393867">
  <ele>-0.122</ele>
  <time>2026-09-01T01:16:55Z</time>
  <course>187.17</course>
  <speed>0.0</speed>
  <fix>3d</fix>
</trkpt>
<trkpt lat="33.810313" lon="-118.393867">
  <ele>-0.12</ele>
  <time>2026-09-01T01:16:55Z</time>
  <course>0.0</course>
  <speed>0.0</speed>
  <fix>3d</fix>
</trkpt>
<trkpt lat="33.810313" lon="-118.393867">
  <ele>-0.121</ele>
  <time>2026-09-01T01:16:55Z</time>
  <course>187.16</course>
  <speed>0.0</speed>
  <fix>3d</fix>
</trkpt>
<trkpt lat="33.810313" lon="-118.393867">
  <ele>-0.12</ele>
  <time>2026-09-01T01:16:55Z</time>
  <course>0.0</course>
  <speed>0.0</speed>
  <fix>3d</fix>
</trkpt>
<trkpt lat="33.810313" lon="-118.393867">
  <ele>-0.12</ele>
  <time>2026-09-01T01:16:55Z</time>
  <course>187.16</course>
  <speed>0.0</speed>
  <fix>3d</fix>
</trkpt>
<trkpt lat="33.810313" lon="-118.393867">
  <ele>-0.12</ele>
  <time>2026-09-01T01:16:55Z</time>
  <course>0.0</course>
  <speed>0.0</speed>
  <fix>3d</fix>
</trkpt>
<trkpt lat="33.810313" lon="-118.393867">
  <ele>-0.119</ele>
  <time>2026-09-01T01:16:55Z</time>
  <course>187.15</course>
  <speed>0.0</speed>
  <fix>3d</fix>
</trkpt>
<trkpt lat="33.810313" lon="-118.393867">
  <ele>-0.12</ele>
  <time>2026-09-01T01:16:55Z</time>
  <course>0.0</course>
  <speed>0.0</speed>
  <fix>3d</fix>
</trkpt>
<trkpt lat="33.810313" lon="-118.393867">
  <ele>-0.116</ele>
  <time>2026-09-01T01:16:55Z</time>
  <course>187.15</course>
  <speed>0.0</speed>
  <fix>3d</fix>
</trkpt>
<trkpt lat="33.810313" lon="-118.393867">
  <ele>-0.12</ele>
  <time>2026-09-01T01:16:55Z</time>
  <course>0.0</course>
  <speed>0.0</speed>
  <fix>3d</fix>
</trkpt>
<trkpt lat="33.810313" lon="-118.393867">
  <ele>-0.114</ele>
  <time>2026-09-01T01:16:55Z</time>
  <course>187.14</course>
  <speed>0.0</speed>
  <fix>3d</fix>
</trkpt>
<trkpt lat="33.810313" lon="-118.393867">
  <ele>-0.12</ele>
  <time>2026-09-01T01:16:55Z</time>
  <course>0.0</course>
  <speed>0.0</speed>
  <fix>3d</fix>
</trkpt>
<trkpt lat="33.810313" lon="-118.393867">
  <ele>-0.113</ele>
  <time>2026-09-01T01:16:55Z</time>
  <course>187.14</course>
  <speed>0.0</speed>
  <fix>3d</fix>
</trkpt>
<trkpt lat="33.810313" lon="-118.393867">
  <ele>-0.12</ele>
  <time>2026-09-01T01:16:55Z</time>
  <course>0.0</course>
  <speed>0.0</speed>
  <fix>3d</fix>
</trkpt>
<trkpt lat="33.810313" lon="-118.393867">
  <ele>-0.112</ele>
  <time>2026-09-01T01:16:55Z</time>
  <course>187.13</course>
  <speed>0.0</speed>
  <fix>3d</fix>
</trkpt>
<trkpt lat="33.810313" lon="-118.393867">
  <ele>-0.12</ele>
  <time>2026-09-01T01:16:55Z</time>
  <course>0.0</course>
  <speed>0.0</speed>
  <fix>3d</fix>
</trkpt>
<trkpt lat="33.810313" lon="-118.393867">
  <ele>-0.113</ele>
  <time>2026-09-01T01:16:55Z</time>
  <course>187.13</course>
  <speed>0.0</speed>
  <fix>3d</fix>
</trkpt>
<trkpt lat="33.810313" lon="-118.393867">
  <ele>-0.12</ele>
  <time>2026-09-01T01:16:55Z</time>
  <course>0.0</course>
  <speed>0.0</speed>
  <fix>3d</fix>
</trkpt>
<trkpt lat="33.810313" lon="-118.393867">
  <ele>-0.114</ele>
  <time>2026-09-01T01:16:55Z</time>
  <course>187.12</course>
  <speed>0.0</speed>
  <fix>3d</fix>
</trkpt>
<trkpt lat="33.810313" lon="-118.393867">
  <ele>-0.12</ele>
  <time>2026-09-01T01:16:55Z</time>
  <course>0.0</course>
  <speed>0.0</speed>
  <fix>3d</fix>
</trkpt>
<trkpt lat="33.810313" lon="-118.393867">
  <ele>-0.117</ele>
  <time>2026-09-01T01:16:55Z</time>
  <course>187.12</course>
  <speed>0.0</speed>
  <fix>3d</fix>
</trkpt>
<trkpt lat="33.810313" lon="-118.393867">
  <ele>-0.12</ele>
  <time>2026-09-01T01:16:55Z</time>
  <course>0.0</course>
  <speed>0.0</speed>
  <fix>3d</fix>
</trkpt>
<trkpt lat="33.810313" lon="-118.393867">
  <ele>-0.119</ele>
  <time>2026-09-01T01:16:55Z</time>
  <course>187.11</course>
  <speed>0.01</speed>
  <fix>3d</fix>
</trkpt>
<trkpt lat="33.810313" lon="-118.393867">
  <ele>-0.12</ele>
  <time>2026-09-01T01:16:55Z</time>
  <course>0.0</course>
  <speed>0.0</speed>
  <fix>3d</fix>
</trkpt>
<trkpt lat="33.810313" lon="-118.393867">
  <ele>-0.12</ele>
  <time>2026-09-01T01:16:55Z</time>
  <course>187.11</course>
  <speed>0.01</speed>
  <fix>3d</fix>
</trkpt>
<trkpt lat="33.810313" lon="-118.393867">
  <ele>-0.12</ele>
  <time>2026-09-01T01:16:55Z</time>
  <course>0.0</course>
  <speed>0.0</speed>
  <fix>3d</fix>
</trkpt>
<trkpt lat="33.810313" lon="-118.393867">
  <ele>-0.121</ele>
  <time>2026-09-01T01:16:55Z</time>
  <course>187.1</course>
  <speed>0.01</speed>
  <fix>3d</fix>
</trkpt>
<trkpt lat="33.810313" lon="-118.393867">
  <ele>-0.12</ele>
  <time>2026-09-01T01:16:55Z</time>
  <course>0.0</course>
  <speed>0.0</speed>
  <fix>3d</fix>
</trkpt>
<trkpt lat="33.810313" lon="-118.393867">
  <ele>-0.122</ele>
  <time>2026-09-01T01:16:55Z</time>
  <course>187.1</course>
  <speed>0.01414213562373095</speed>
  <fix>3d</fix>
</trkpt>
<trkpt lat="33.810313" lon="-118.393867">
  <ele>-0.12</ele>
  <time>2026-09-01T01:16:55Z</time>
  <course>0.0</course>
  <speed>0.0</speed>
  <fix>3d</fix>
</trkpt>
<trkpt lat="33.810313" lon="-118.393867">
  <ele>-0.122</ele>
  <time>2026-09-01T01:16:55Z</time>
  <course>187.09</course>
  <speed>0.01414213562373095</speed>
  <fix>3d</fix>
</trkpt>
<trkpt lat="33.810313" lon="-118.393867">
  <ele>-0.12</ele>
  <time>2026-09-01T01:16:55Z</time>
  <course>0.0</course>
  <speed>0.0</speed>
  <fix>3d</fix>
</trkpt>
<trkpt lat="33.810313" lon="-118.393867">
  <ele>-0.123</ele>
  <time>2026-09-01T01:16:55Z</time>
  <course>187.09</course>
  <speed>0.01414213562373095</speed>
  <fix>3d</fix>
</trkpt>
<trkpt lat="33.810313" lon="-118.393867">
  <ele>-0.12</ele>
  <time>2026-09-01T01:16:55Z</time>
  <course>0.0</course>
  <speed>0.0</speed>
  <fix>3d</fix>
</trkpt>
<trkpt lat="33.810313" lon="-118.393867">
  <ele>-0.124</ele>
  <time>2026-09-01T01:16:55Z</time>
  <course>187.08</course>
  <speed>0.01414213562373095</speed>
  <fix>3d</fix>
</trkpt>
<trkpt lat="33.810313" lon="-118.393867">
  <ele>-0.12</ele>
  <time>2026-09-01T01:16:55Z</time>
  <course>0.0</course>
  <speed>0.0</speed>
  <fix>3d</fix>
</trkpt>
<trkpt lat="33.810313" lon="-118.393867">
  <ele>-0.126</ele>
  <time>2026-09-01T01:16:55Z</time>
  <course>187.08</course>
  <speed>0.01414213562373095</speed>
  <fix>3d</fix>
</trkpt>
<trkpt lat="33.810313" lon="-118.393867">
  <ele>-0.12</ele>
  <time>2026-09-01T01:16:55Z</time>
  <course>0.0</course>
  <speed>0.0</speed>
  <fix>3d</fix>
</trkpt>
<trkpt lat="33.810313" lon="-118.393867">
  <ele>-0.128</ele>
  <time>2026-09-01T01:16:55Z</time>
  <course>187.07</course>
  <speed>0.01414213562373095</speed>
  <fix>3d</fix>
</trkpt>
<trkpt lat="33.810313" lon="-118.393867">
  <ele>-0.12</ele>
  <time>2026-09-01T01:16:55Z</time>
  <course>0.0</course>
  <speed>0.0</speed>
  <fix>3d</fix>
</trkpt>
<trkpt lat="33.810313" lon="-118.393867">
  <ele>-0.131</ele>
  <time>2026-09-01T01:16:55Z</time>
  <course>187.07</course>
  <speed>0.01414213562373095</speed>
  <fix>3d</fix>
</trkpt>
<trkpt lat="33.810313" lon="-118.393867">
  <ele>-0.12</ele>
  <time>2026-09-01T01:16:55Z</time>
  <course>0.0</course>
  <speed>0.0</speed>
  <fix>3d</fix>
</trkpt>
<trkpt lat="33.810313" lon="-118.393867">
  <ele>-0.134</ele>
  <time>2026-09-01T01:16:55Z</time>
  <course>187.06</course>
  <speed>0.022360679774997897</speed>
  <fix>3d</fix>
</trkpt>
<trkpt lat="33.810313" lon="-118.393867">
  <ele>-0.12</ele>
  <time>2026-09-01T01:16:55Z</time>
  <course>0.0</course>
  <speed>0.0</speed>
  <fix>3d</fix>
</trkpt>
<trkpt lat="33.810313" lon="-118.393867">
  <ele>-0.136</ele>
  <time>2026-09-01T01:16:55Z</time>
  <course>187.06</course>
  <speed>0.022360679774997897</speed>
  <fix>3d</fix>
</trkpt>
<trkpt lat="33.810313" lon="-118.393867">
  <ele>-0.12</ele>
  <time>2026-09-01T01:16:55Z</time>
  <course>0.0</course>
  <speed>0.0</speed>
  <fix>3d</fix>
</trkpt>
<trkpt lat="33.810313" lon="-118.393867">
  <ele>-0.137</ele>
  <time>2026-09-01T01:16:55Z</time>
  <course>187.06</course>
  <speed>0.022360679774997897</speed>
  <fix>3d</fix>
</trkpt>
<trkpt lat="33.810313" lon="-118.393867">
  <ele>-0.12</ele>
  <time>2026-09-01T01:16:55Z</time>
  <course>0.0</course>
  <speed>0.0</speed>
  <fix>3d</fix>
</trkpt>
<trkpt lat="33.810313" lon="-118.393867">
  <ele>-0.137</ele>
  <time>2026-09-01T01:16:55Z</time>
  <course>187.05</course>
  <speed>0.022360679774997897</speed>
  <fix>3d</fix>
</trkpt>
<trkpt lat="33.810313" lon="-118.393867">
  <ele>-0.12</ele>
  <time>2026-09-01T01:16:55Z</time>
  <course>0.0</course>
  <speed>0.0</speed>
  <fix>3d</fix>
</trkpt>
<trkpt lat="33.810313" lon="-118.393867">
  <ele>-0.135</ele>
  <time>2026-09-01T01:16:55Z</time>
  <course>187.05</course>
  <speed>0.022360679774997897</speed>
  <fix>3d</fix>
</trkpt>
<trkpt lat="33.810313" lon="-118.393867">
  <ele>-0.12</ele>
  <time>2026-09-01T01:16:55Z</time>
  <course>0.0</course>
  <speed>0.0</speed>
  <fix>3d</fix>
</trkpt>
<trkpt lat="33.810313" lon="-118.393867">
  <ele>-0.133</ele>
  <time>2026-09-01T01:16:55Z</time>
  <course>187.04</course>
  <speed>0.022360679774997897</speed>
  <fix>3d</fix>
</trkpt>
<trkpt lat="33.810313" lon="-118.393867">
  <ele>-0.12</ele>
  <time>2026-09-01T01:16:55Z</time>
  <course>0.0</course>
  <speed>0.0</speed>
  <fix>3d</fix>
</trkpt>
<trkpt lat="33.8103131" lon="-118.3938671">
  <ele>-0.131</ele>
  <time>2026-09-01T01:16:55Z</time>
  <course>187.04</course>
  <speed>0.022360679774997897</speed>
  <fix>3d</fix>
</trkpt>
<trkpt lat="33.810313" lon="-118.393867">
  <ele>-0.12</ele>
  <time>2026-09-01T01:16:55Z</time>
  <course>0.0</course>
  <speed>0.0</speed>
  <fix>3d</fix>
</trkpt>
<trkpt lat="33.8103131" lon="-118.3938671">
  <ele>-0.129</ele>
  <time>2026-09-01T01:16:55Z</time>
  <course>187.03</course>
  <speed>0.0282842712474619</speed>
  <fix>3d</fix>
</trkpt>
<trkpt lat="33.810313" lon="-118.393867">
  <ele>-0.12</ele>
  <time>2026-09-01T01:16:55Z</time>
  <course>0.0</course>
  <speed>0.0</speed>
  <fix>3d</fix>
</trkpt>
<trkpt lat="33.8103131" lon="-118.3938671">
  <ele>-0.129</ele>
  <time>2026-09-01T01:16:55Z</time>
  <course>187.03</course>
  <speed>0.0282842712474619</speed>
  <fix>3d</fix>
</trkpt>
<trkpt lat="33.810313" lon="-118.393867">
  <ele>-0.12</ele>
  <time>2026-09-01T01:16:55Z</time>
  <course>0.0</course>
  <speed>0.0</speed>
  <fix>3d</fix>
</trkpt>
<trkpt lat="33.8103131" lon="-118.3938671">
  <ele>-0.128</ele>
  <time>2026-09-01T01:16:55Z</time>
  <course>187.02</course>
  <speed>0.0282842712474619</speed>
  <fix>3d</fix>
</trkpt>
<trkpt lat="33.810313" lon="-118.393867">
  <ele>-0.12</ele>
  <time>2026-09-01T01:16:55Z</time>
  <course>0.0</course>
  <speed>0.0</speed>
  <fix>3d</fix>
</trkpt>
<trkpt lat="33.8103131" lon="-118.3938671">
  <ele>-0.129</ele>
  <time>2026-09-01T01:16:55Z</time>
  <course>187.02</course>
  <speed>0.0282842712474619</speed>
  <fix>3d</fix>
</trkpt>
<trkpt lat="33.810313" lon="-118.393867">
  <ele>-0.12</ele>
  <time>2026-09-01T01:16:55Z</time>
  <course>0.0</course>
  <speed>0.0</speed>
  <fix>3d</fix>
</trkpt>
<trkpt lat="33.8103131" lon="-118.3938671">
  <ele>-0.13</ele>
  <time>2026-09-01T01:16:55Z</time>
  <course>187.01</course>
  <speed>0.0282842712474619</speed>
  <fix>3d</fix>
</trkpt>
<trkpt lat="33.810313" lon="-118.393867">
  <ele>-0.12</ele>
  <time>2026-09-01T01:16:55Z</time>
  <course>0.0</course>
  <speed>0.0</speed>
  <fix>3d</fix>
</trkpt>
<trkpt lat="33.8103131" lon="-118.3938671">
  <ele>-0.131</ele>
  <time>2026-09-01T01:16:55Z</time>
  <course>187.01</course>
  <speed>0.0282842712474619</speed>
  <fix>3d</fix>
</trkpt>
<trkpt lat="33.810313" lon="-118.393867">
  <ele>-0.12</ele>
  <time>2026-09-01T01:16:55Z</time>
  <course>0.0</course>
  <speed>0.0</speed>
  <fix>3d</fix>
</trkpt>
<trkpt lat="33.8103131" lon="-118.3938671">
  <ele>-0.13</ele>
  <time>2026-09-01T01:16:55Z</time>
  <course>187.0</course>
  <speed>0.0282842712474619</speed>
  <fix>3d</fix>
</trkpt>
<trkpt lat="33.810313" lon="-118.393867">
  <ele>-0.12</ele>
  <time>2026-09-01T01:16:55Z</time>
  <course>0.0</course>
  <speed>0.0</speed>
  <fix>3d</fix>
</trkpt>
<trkpt lat="33.8103131" lon="-118.3938671">
  <ele>-0.13</ele>
  <time>2026-09-01T01:16:55Z</time>
  <course>187.0</course>
  <speed>0.0282842712474619</speed>
  <fix>3d</fix>
</trkpt>
<trkpt lat="33.810313" lon="-118.393867">
  <ele>-0.12</ele>
  <time>2026-09-01T01:16:55Z</time>
  <course>0.0</course>
  <speed>0.0</speed>
  <fix>3d</fix>
</trkpt>
<trkpt lat="33.8103131" lon="-118.3938671">
  <ele>-0.129</ele>
  <time>2026-09-01T01:16:55Z</time>
  <course>186.99</course>
  <speed>0.0282842712474619</speed>
  <fix>3d</fix>
</trkpt>
<trkpt lat="33.810313" lon="-118.393867">
  <ele>-0.12</ele>
  <time>2026-09-01T01:16:55Z</time>
  <course>0.0</course>
  <speed>0.0</speed>
  <fix>3d</fix>
</trkpt>
<trkpt lat="33.8103131" lon="-118.3938671">
  <ele>-0.128</ele>
  <time>2026-09-01T01:16:55Z</time>
  <course>186.99</course>
  <speed>0.03605551275463989</speed>
  <fix>3d</fix>
</trkpt>
<trkpt lat="33.810313" lon="-118.393867">
  <ele>-0.12</ele>
  <time>2026-09-01T01:16:55Z</time>
  <course>0.0</course>
  <speed>0.0</speed>
  <fix>3d</fix>
</trkpt>
<trkpt lat="33.8103131" lon="-118.3938671">
  <ele>-0.128</ele>
  <time>2026-09-01T01:16:55Z</time>
  <course>186.99</course>
  <speed>0.03605551275463989</speed>
  <fix>3d</fix>
</trkpt>
<trkpt lat="33.810313" lon="-118.393867">
  <ele>-0.12</ele>
  <time>2026-09-01T01:16:55Z</time>
  <course>0.0</course>
  <speed>0.0</speed>
  <fix>3d</fix>
</trkpt>
<trkpt lat="33.8103131" lon="-118.3938671">
  <ele>-0.128</ele>
  <time>2026-09-01T01:16:55Z</time>
  <course>186.98</course>
  <speed>0.03605551275463989</speed>
  <fix>3d</fix>
</trkpt>
<trkpt lat="33.810313" lon="-118.393867">
  <ele>-0.12</ele>
  <time>2026-09-01T01:16:55Z</time>
  <course>0.0</course>
  <speed>0.0</speed>
  <fix>3d</fix>
</trkpt>
<trkpt lat="33.8103131" lon="-118.3938671">
  <ele>-0.129</ele>
  <time>2026-09-01T01:16:55Z</time>
  <course>186.98</course>
  <speed>0.03605551275463989</speed>
  <fix>3d</fix>
</trkpt>
<trkpt lat="33.810313" lon="-118.393867">
  <ele>-0.12</ele>
  <time>2026-09-01T01:16:55Z</time>
  <course>0.0</course>
  <speed>0.0</speed>
  <fix>3d</fix>
</trkpt>
<trkpt lat="33.8103131" lon="-118.3938671">
  <ele>-0.132</ele>
  <time>2026-09-01T01:16:55Z</time>
  <course>186.97</course>
  <speed>0.03605551275463989</speed>
  <fix>3d</fix>
</trkpt>
<trkpt lat="33.810313" lon="-118.393867">
  <ele>-0.12</ele>
  <time>2026-09-01T01:16:55Z</time>
  <course>0.0</course>
  <speed>0.0</speed>
  <fix>3d</fix>
</trkpt>
<trkpt lat="33.8103131" lon="-118.3938671">
  <ele>-0.133</ele>
  <time>2026-09-01T01:16:55Z</time>
  <course>186.97</course>
  <speed>0.03605551275463989</speed>
  <fix>3d</fix>
</trkpt>
<trkpt lat="33.810313" lon="-118.393867">
  <ele>-0.12</ele>
  <time>2026-09-01T01:16:55Z</time>
  <course>0.0</course>
  <speed>0.0</speed>
  <fix>3d</fix>
</trkpt>
<trkpt lat="33.8103132" lon="-118.3938671">
  <ele>-0.134</ele>
  <time>2026-09-01T01:16:55Z</time>
  <course>186.96</course>
  <speed>0.03605551275463989</speed>
  <fix>3d</fix>
</trkpt>
<trkpt lat="33.810313" lon="-118.393867">
  <ele>-0.12</ele>
  <time>2026-09-01T01:16:55Z</time>
  <course>0.0</course>
  <speed>0.0</speed>
  <fix>3d</fix>
</trkpt>
<trkpt lat="33.8103132" lon="-118.3938671">
  <ele>-0.132</ele>
  <time>2026-09-01T01:16:55Z</time>
  <course>186.96</course>
  <speed>0.03605551275463989</speed>
  <fix>3d</fix>
</trkpt>
<trkpt lat="33.810313" lon="-118.393867">
  <ele>-0.12</ele>
  <time>2026-09-01T01:16:55Z</time>
  <course>0.0</course>
  <speed>0.0</speed>
  <fix>3d</fix>
</trkpt>
<trkpt lat="33.8103132" lon="-118.3938671">
  <ele>-0.131</ele>
  <time>2026-09-01T01:16:55Z</time>
  <course>186.96</course>
  <speed>0.03605551275463989</speed>
  <fix>3d</fix>
</trkpt>
<trkpt lat="33.810313" lon="-118.393867">
  <ele>-0.12</ele>
  <time>2026-09-01T01:16:55Z</time>
  <course>0.0</course>
  <speed>0.0</speed>
  <fix>3d</fix>
</trkpt>
<trkpt lat="33.8103132" lon="-118.3938671">
  <ele>-0.13</ele>
  <time>2026-09-01T01:16:55Z</time>
  <course>186.95</course>
  <speed>0.03605551275463989</speed>
  <fix>3d</fix>
</trkpt>
<trkpt lat="33.810313" lon="-118.393867">
  <ele>-0.12</ele>
  <time>2026-09-01T01:16:55Z</time>
  <course>0.0</course>
  <speed>0.0</speed>
  <fix>3d</fix>
</trkpt>
<trkpt lat="33.8103132" lon="-118.3938672">
  <ele>-0.129</ele>
  <time>2026-09-01T01:16:55Z</time>
  <course>186.95</course>
  <speed>0.03605551275463989</speed>
  <fix>3d</fix>
</trkpt>
<trkpt lat="33.810313" lon="-118.393867">
  <ele>-0.12</ele>
  <time>2026-09-01T01:16:55Z</time>
  <course>0.0</course>
  <speed>0.0</speed>
  <fix>3d</fix>
</trkpt>
<trkpt lat="33.8103132" lon="-118.3938672">
  <ele>-0.128</ele>
  <time>2026-09-01T01:16:55Z</time>
  <course>186.94</course>
  <speed>0.0282842712474619</speed>
  <fix>3d</fix>
</trkpt>
<trkpt lat="33.810313" lon="-118.393867">
  <ele>-0.12</ele>
  <time>2026-09-01T01:16:55Z</time>
  <course>0.0</course>
  <speed>0.0</speed>
  <fix>3d</fix>
</trkpt>
<trkpt lat="33.8103132" lon="-118.3938672">
  <ele>-0.128</ele>
  <time>2026-09-01T01:16:55Z</time>
  <course>186.94</course>
  <speed>0.0282842712474619</speed>
  <fix>3d</fix>
</trkpt>
<trkpt lat="33.810313" lon="-118.393867">
  <ele>-0.12</ele>
  <time>2026-09-01T01:16:55Z</time>
  <course>0.0</course>
  <speed>0.0</speed>
  <fix>3d</fix>
</trkpt>
<trkpt lat="33.8103132" lon="-118.3938672">
  <ele>-0.127</ele>
  <time>2026-09-01T01:16:55Z</time>
  <course>186.94</course>
  <speed>0.0282842712474619</speed>
  <fix>3d</fix>
</trkpt>
<trkpt lat="33.810313" lon="-118.393867">
  <ele>-0.12</ele>
  <time>2026-09-01T01:16:55Z</time>
  <course>0.0</course>
  <speed>0.0</speed>
  <fix>3d</fix>
</trkpt>
<trkpt lat="33.8103132" lon="-118.3938672">
  <ele>-0.128</ele>
  <time>2026-09-01T01:16:55Z</time>
  <course>186.93</course>
  <speed>0.0282842712474619</speed>
  <fix>3d</fix>
</trkpt>
<trkpt lat="33.810313" lon="-118.393867">
  <ele>-0.12</ele>
  <time>2026-09-01T01:16:55Z</time>
  <course>0.0</course>
  <speed>0.0</speed>
  <fix>3d</fix>
</trkpt>
<trkpt lat="33.8103132" lon="-118.3938671">
  <ele>-0.125</ele>
  <time>2026-09-01T01:16:55Z</time>
  <course>186.92</course>
  <speed>0.0282842712474619</speed>
  <fix>3d</fix>
</trkpt>
<trkpt lat="33.810313" lon="-118.393867">
  <ele>-0.12</ele>
  <time>2026-09-01T01:16:55Z</time>
  <course>0.0</course>
  <speed>0.0</speed>
  <fix>3d</fix>
</trkpt>
<trkpt lat="33.8103132" lon="-118.3938671">
  <ele>-0.121</ele>
  <time>2026-09-01T01:16:56Z</time>
  <course>186.91</course>
  <speed>0.0282842712474619</speed>
  <fix>3d</fix>
</trkpt>
<trkpt lat="33.810313" lon="-118.393867">
  <ele>-0.12</ele>
  <time>2026-09-01T01:16:56Z</time>
  <course>0.0</course>
  <speed>0.0</speed>
  <fix>3d</fix>
</trkpt>
<trkpt lat="33.8103132" lon="-118.3938671">
  <ele>-0.12</ele>
  <time>2026-09-01T01:16:56Z</time>
  <course>186.9</course>
  <speed>0.0282842712474619</speed>
  <fix>3d</fix>
</trkpt>
<trkpt lat="33.810313" lon="-118.393867">
  <ele>-0.12</ele>
  <time>2026-09-01T01:16:56Z</time>
  <course>0.0</course>
  <speed>0.0</speed>
  <fix>3d</fix>
</trkpt>
<trkpt lat="33.8103132" lon="-118.3938671">
  <ele>-0.119</ele>
  <time>2026-09-01T01:16:56Z</time>
  <course>186.9</course>
  <speed>0.022360679774997897</speed>
  <fix>3d</fix>
</trkpt>
<trkpt lat="33.810313" lon="-118.393867">
  <ele>-0.12</ele>
  <time>2026-09-01T01:16:56Z</time>
  <course>0.0</course>
  <speed>0.0</speed>
  <fix>3d</fix>
</trkpt>
<trkpt lat="33.8103131" lon="-118.3938671">
  <ele>-0.118</ele>
  <time>2026-09-01T01:16:56Z</time>
  <course>186.89</course>
  <speed>0.022360679774997897</speed>
  <fix>3d</fix>
</trkpt>
<trkpt lat="33.810313" lon="-118.393867">
  <ele>-0.12</ele>
  <time>2026-09-01T01:16:56Z</time>
  <course>0.0</course>
  <speed>0.0</speed>
  <fix>3d</fix>
</trkpt>
<trkpt lat="33.8103131" lon="-118.3938671">
  <ele>-0.119</ele>
  <time>2026-09-01T01:16:56Z</time>
  <course>186.89</course>
  <speed>0.022360679774997897</speed>
  <fix>3d</fix>
</trkpt>
<trkpt lat="33.810313" lon="-118.393867">
  <ele>-0.12</ele>
  <time>2026-09-01T01:16:56Z</time>
  <course>0.0</course>
  <speed>0.0</speed>
  <fix>3d</fix>
</trkpt>
<trkpt lat="33.8103131" lon="-118.3938671">
  <ele>-0.119</ele>
  <time>2026-09-01T01:16:56Z</time>
  <course>186.89</course>
  <speed>0.022360679774997897</speed>
  <fix>3d</fix>
</trkpt>
<trkpt lat="33.810313" lon="-118.393867">
  <ele>-0.12</ele>
  <time>2026-09-01T01:16:56Z</time>
  <course>0.0</course>
  <speed>0.0</speed>
  <fix>3d</fix>
</trkpt>
<trkpt lat="33.8103131" lon="-118.3938671">
  <ele>-0.119</ele>
  <time>2026-09-01T01:16:56Z</time>
  <course>186.88</course>
  <speed>0.022360679774997897</speed>
  <fix>3d</fix>
</trkpt>
<trkpt lat="33.810313" lon="-118.393867">
  <ele>-0.12</ele>
  <time>2026-09-01T01:16:56Z</time>
  <course>0.0</course>
  <speed>0.0</speed>
  <fix>3d</fix>
</trkpt>
<trkpt lat="33.8103131" lon="-118.3938671">
  <ele>-0.119</ele>
  <time>2026-09-01T01:16:56Z</time>
  <course>186.88</course>
  <speed>0.022360679774997897</speed>
  <fix>3d</fix>
</trkpt>
<trkpt lat="33.810313" lon="-118.393867">
  <ele>-0.12</ele>
  <time>2026-09-01T01:16:56Z</time>
  <course>0.0</course>
  <speed>0.0</speed>
  <fix>3d</fix>
</trkpt>
<trkpt lat="33.8103131" lon="-118.3938671">
  <ele>-0.119</ele>
  <time>2026-09-01T01:16:56Z</time>
  <course>186.88</course>
  <speed>0.022360679774997897</speed>
  <fix>3d</fix>
</trkpt>
<trkpt lat="33.810313" lon="-118.393867">
  <ele>-0.12</ele>
  <time>2026-09-01T01:16:56Z</time>
  <course>0.0</course>
  <speed>0.0</speed>
  <fix>3d</fix>
</trkpt>
<trkpt lat="33.8103131" lon="-118.3938671">
  <ele>-0.119</ele>
  <time>2026-09-01T01:16:56Z</time>
  <course>186.87</course>
  <speed>0.022360679774997897</speed>
  <fix>3d</fix>
</trkpt>
<trkpt lat="33.810313" lon="-118.393867">
  <ele>-0.12</ele>
  <time>2026-09-01T01:16:56Z</time>
  <course>0.0</course>
  <speed>0.0</speed>
  <fix>3d</fix>
</trkpt>
<trkpt lat="33.8103131" lon="-118.3938671">
  <ele>-0.121</ele>
  <time>2026-09-01T01:16:56Z</time>
  <course>186.87</course>
  <speed>0.022360679774997897</speed>
  <fix>3d</fix>
</trkpt>
<trkpt lat="33.810313" lon="-118.393867">
  <ele>-0.12</ele>
  <time>2026-09-01T01:16:56Z</time>
  <course>0.0</course>
  <speed>0.0</speed>
  <fix>3d</fix>
</trkpt>
<trkpt lat="33.8103131" lon="-118.3938671">
  <ele>-0.124</ele>
  <time>2026-09-01T01:16:56Z</time>
  <course>186.87</course>
  <speed>0.022360679774997897</speed>
  <fix>3d</fix>
</trkpt>
<trkpt lat="33.810313" lon="-118.393867">
  <ele>-0.12</ele>
  <time>2026-09-01T01:16:56Z</time>
  <course>0.0</course>
  <speed>0.0</speed>
  <fix>3d</fix>
</trkpt>
<trkpt lat="33.8103131" lon="-118.3938671">
  <ele>-0.126</ele>
  <time>2026-09-01T01:16:56Z</time>
  <course>186.87</course>
  <speed>0.022360679774997897</speed>
  <fix>3d</fix>
</trkpt>
<trkpt lat="33.810313" lon="-118.393867">
  <ele>-0.12</ele>
  <time>2026-09-01T01:16:56Z</time>
  <course>0.0</course>
  <speed>0.0</speed>
  <fix>3d</fix>
</trkpt>
<trkpt lat="33.8103131" lon="-118.3938671">
  <ele>-0.128</ele>
  <time>2026-09-01T01:16:56Z</time>
  <course>186.86</course>
  <speed>0.022360679774997897</speed>
  <fix>3d</fix>
</trkpt>
<trkpt lat="33.810313" lon="-118.393867">
  <ele>-0.12</ele>
  <time>2026-09-01T01:16:56Z</time>
  <course>0.0</course>
  <speed>0.0</speed>
  <fix>3d</fix>
</trkpt>
<trkpt lat="33.8103131" lon="-118.3938671">
  <ele>-0.131</ele>
  <time>2026-09-01T01:16:56Z</time>
  <course>186.86</course>
  <speed>0.022360679774997897</speed>
  <fix>3d</fix>
</trkpt>
<trkpt lat="33.810313" lon="-118.393867">
  <ele>-0.12</ele>
  <time>2026-09-01T01:16:56Z</time>
  <course>0.0</course>
  <speed>0.0</speed>
  <fix>3d</fix>
</trkpt>
<trkpt lat="33.8103131" lon="-118.3938671">
  <ele>-0.133</ele>
  <time>2026-09-01T01:16:56Z</time>
  <course>186.86</course>
  <speed>0.022360679774997897</speed>
  <fix>3d</fix>
</trkpt>
<trkpt lat="33.810313" lon="-118.393867">
  <ele>-0.12</ele>
  <time>2026-09-01T01:16:56Z</time>
  <course>0.0</course>
  <speed>0.0</speed>
  <fix>3d</fix>
</trkpt>
<trkpt lat="33.8103131" lon="-118.3938671">
  <ele>-0.133</ele>
  <time>2026-09-01T01:16:56Z</time>
  <course>186.85</course>
  <speed>0.022360679774997897</speed>
  <fix>3d</fix>
</trkpt>
<trkpt lat="33.810313" lon="-118.393867">
  <ele>-0.12</ele>
  <time>2026-09-01T01:16:56Z</time>
  <course>0.0</course>
  <speed>0.0</speed>
  <fix>3d</fix>
</trkpt>
<trkpt lat="33.8103131" lon="-118.3938671">
  <ele>-0.132</ele>
  <time>2026-09-01T01:16:56Z</time>
  <course>186.85</course>
  <speed>0.022360679774997897</speed>
  <fix>3d</fix>
</trkpt>
<trkpt lat="33.810313" lon="-118.393867">
  <ele>-0.12</ele>
  <time>2026-09-01T01:16:56Z</time>
  <course>0.0</course>
  <speed>0.0</speed>
  <fix>3d</fix>
</trkpt>
<trkpt lat="33.8103131" lon="-118.3938671">
  <ele>-0.131</ele>
  <time>2026-09-01T01:16:56Z</time>
  <course>186.85</course>
  <speed>0.022360679774997897</speed>
  <fix>3d</fix>
</trkpt>
<trkpt lat="33.810313" lon="-118.393867">
  <ele>-0.12</ele>
  <time>2026-09-01T01:16:56Z</time>
  <course>0.0</course>
  <speed>0.0</speed>
  <fix>3d</fix>
</trkpt>
<trkpt lat="33.8103131" lon="-118.3938671">
  <ele>-0.129</ele>
  <time>2026-09-01T01:16:56Z</time>
  <course>186.84</course>
  <speed>0.022360679774997897</speed>
  <fix>3d</fix>
</trkpt>
<trkpt lat="33.810313" lon="-118.393867">
  <ele>-0.12</ele>
  <time>2026-09-01T01:16:56Z</time>
  <course>0.0</course>
  <speed>0.0</speed>
  <fix>3d</fix>
</trkpt>
<trkpt lat="33.8103131" lon="-118.3938671">
  <ele>-0.128</ele>
  <time>2026-09-01T01:16:56Z</time>
  <course>186.84</course>
  <speed>0.022360679774997897</speed>
  <fix>3d</fix>
</trkpt>
<trkpt lat="33.810313" lon="-118.393867">
  <ele>-0.12</ele>
  <time>2026-09-01T01:16:56Z</time>
  <course>0.0</course>
  <speed>0.0</speed>
  <fix>3d</fix>
</trkpt>
<trkpt lat="33.8103131" lon="-118.3938671">
  <ele>-0.128</ele>
  <time>2026-09-01T01:16:56Z</time>
  <course>186.84</course>
  <speed>0.022360679774997897</speed>
  <fix>3d</fix>
</trkpt>
<trkpt lat="33.810313" lon="-118.393867">
  <ele>-0.12</ele>
  <time>2026-09-01T01:16:56Z</time>
  <course>0.0</course>
  <speed>0.0</speed>
  <fix>3d</fix>
</trkpt>
<trkpt lat="33.8103131" lon="-118.3938671">
  <ele>-0.128</ele>
  <time>2026-09-01T01:16:56Z</time>
  <course>186.83</course>
  <speed>0.022360679774997897</speed>
  <fix>3d</fix>
</trkpt>
<trkpt lat="33.810313" lon="-118.393867">
  <ele>-0.12</ele>
  <time>2026-09-01T01:16:56Z</time>
  <course>0.0</course>
  <speed>0.0</speed>
  <fix>3d</fix>
</trkpt>
<trkpt lat="33.8103131" lon="-118.3938671">
  <ele>-0.128</ele>
  <time>2026-09-01T01:16:56Z</time>
  <course>186.83</course>
  <speed>0.022360679774997897</speed>
  <fix>3d</fix>
</trkpt>
<trkpt lat="33.810313" lon="-118.393867">
  <ele>-0.12</ele>
  <time>2026-09-01T01:16:56Z</time>
  <course>0.0</course>
  <speed>0.0</speed>
  <fix>3d</fix>
</trkpt>
<trkpt lat="33.8103131" lon="-118.3938671">
  <ele>-0.127</ele>
  <time>2026-09-01T01:16:56Z</time>
  <course>186.83</course>
  <speed>0.022360679774997897</speed>
  <fix>3d</fix>
</trkpt>
<trkpt lat="33.810313" lon="-118.393867">
  <ele>-0.12</ele>
  <time>2026-09-01T01:16:56Z</time>
  <course>0.0</course>
  <speed>0.0</speed>
  <fix>3d</fix>
</trkpt>
<trkpt lat="33.8103131" lon="-118.3938671">
  <ele>-0.126</ele>
  <time>2026-09-01T01:16:56Z</time>
  <course>186.82</course>
  <speed>0.022360679774997897</speed>
  <fix>3d</fix>
</trkpt>
<trkpt lat="33.810313" lon="-118.393867">
  <ele>-0.12</ele>
  <time>2026-09-01T01:16:56Z</time>
  <course>0.0</course>
  <speed>0.0</speed>
  <fix>3d</fix>
</trkpt>
<trkpt lat="33.8103131" lon="-118.3938671">
  <ele>-0.125</ele>
  <time>2026-09-01T01:16:56Z</time>
  <course>186.82</course>
  <speed>0.022360679774997897</speed>
  <fix>3d</fix>
</trkpt>
<trkpt lat="33.810313" lon="-118.393867">
  <ele>-0.12</ele>
  <time>2026-09-01T01:16:56Z</time>
  <course>0.0</course>
  <speed>0.0</speed>
  <fix>3d</fix>
</trkpt>
<trkpt lat="33.8103131" lon="-118.3938671">
  <ele>-0.124</ele>
  <time>2026-09-01T01:16:56Z</time>
  <course>186.82</course>
  <speed>0.022360679774997897</speed>
  <fix>3d</fix>
</trkpt>
<trkpt lat="33.810313" lon="-118.393867">
  <ele>-0.12</ele>
  <time>2026-09-01T01:16:56Z</time>
  <course>0.0</course>
  <speed>0.0</speed>
  <fix>3d</fix>
</trkpt>
<trkpt lat="33.8103131" lon="-118.3938671">
  <ele>-0.123</ele>
  <time>2026-09-01T01:16:56Z</time>
  <course>186.81</course>
  <speed>0.022360679774997897</speed>
  <fix>3d</fix>
</trkpt>
<trkpt lat="33.810313" lon="-118.393867">
  <ele>-0.12</ele>
  <time>2026-09-01T01:16:56Z</time>
  <course>0.0</course>
  <speed>0.0</speed>
  <fix>3d</fix>
</trkpt>
<trkpt lat="33.8103131" lon="-118.3938671">
  <ele>-0.122</ele>
  <time>2026-09-01T01:16:56Z</time>
  <course>186.81</course>
  <speed>0.022360679774997897</speed>
  <fix>3d</fix>
</trkpt>
<trkpt lat="33.810313" lon="-118.393867">
  <ele>-0.12</ele>
  <time>2026-09-01T01:16:56Z</time>
  <course>0.0</course>
  <speed>0.0</speed>
  <fix>3d</fix>
</trkpt>
<trkpt lat="33.8103131" lon="-118.3938671">
  <ele>-0.122</ele>
  <time>2026-09-01T01:16:56Z</time>
  <course>186.81</course>
  <speed>0.022360679774997897</speed>
  <fix>3d</fix>
</trkpt>
<trkpt lat="33.810313" lon="-118.393867">
  <ele>-0.12</ele>
  <time>2026-09-01T01:16:56Z</time>
  <course>0.0</course>
  <speed>0.0</speed>
  <fix>3d</fix>
</trkpt>
<trkpt lat="33.8103131" lon="-118.3938671">
  <ele>-0.122</ele>
  <time>2026-09-01T01:16:56Z</time>
  <course>186.81</course>
  <speed>0.022360679774997897</speed>
  <fix>3d</fix>
</trkpt>
<trkpt lat="33.810313" lon="-118.393867">
  <ele>-0.12</ele>
  <time>2026-09-01T01:16:56Z</time>
  <course>0.0</course>
  <speed>0.0</speed>
  <fix>3d</fix>
</trkpt>
<trkpt lat="33.8103131" lon="-118.3938671">
  <ele>-0.121</ele>
  <time>2026-09-01T01:16:56Z</time>
  <course>186.8</course>
  <speed>0.022360679774997897</speed>
  <fix>3d</fix>
</trkpt>
<trkpt lat="33.810313" lon="-118.393867">
  <ele>-0.12</ele>
  <time>2026-09-01T01:16:56Z</time>
  <course>0.0</course>
  <speed>0.0</speed>
  <fix>3d</fix>
</trkpt>
<trkpt lat="33.8103131" lon="-118.3938671">
  <ele>-0.122</ele>
  <time>2026-09-01T01:16:56Z</time>
  <course>186.8</course>
  <speed>0.022360679774997897</speed>
  <fix>3d</fix>
</trkpt>
<trkpt lat="33.810313" lon="-118.393867">
  <ele>-0.12</ele>
  <time>2026-09-01T01:16:56Z</time>
  <course>0.0</course>
  <speed>0.0</speed>
  <fix>3d</fix>
</trkpt>
<trkpt lat="33.8103131" lon="-118.3938671">
  <ele>-0.122</ele>
  <time>2026-09-01T01:16:56Z</time>
  <course>186.8</course>
  <speed>0.022360679774997897</speed>
  <fix>3d</fix>
</trkpt>
<trkpt lat="33.810313" lon="-118.393867">
  <ele>-0.12</ele>
  <time>2026-09-01T01:16:56Z</time>
  <course>0.0</course>
  <speed>0.0</speed>
  <fix>3d</fix>
</trkpt>
<trkpt lat="33.8103131" lon="-118.3938671">
  <ele>-0.122</ele>
  <time>2026-09-01T01:16:56Z</time>
  <course>186.79</course>
  <speed>0.022360679774997897</speed>
  <fix>3d</fix>
</trkpt>
<trkpt lat="33.810313" lon="-118.393867">
  <ele>-0.12</ele>
  <time>2026-09-01T01:16:56Z</time>
  <course>0.0</course>
  <speed>0.0</speed>
  <fix>3d</fix>
</trkpt>
<trkpt lat="33.8103131" lon="-118.3938671">
  <ele>-0.122</ele>
  <time>2026-09-01T01:16:56Z</time>
  <course>186.79</course>
  <speed>0.022360679774997897</speed>
  <fix>3d</fix>
</trkpt>
<trkpt lat="33.810313" lon="-118.393867">
  <ele>-0.12</ele>
  <time>2026-09-01T01:16:56Z</time>
  <course>0.0</course>
  <speed>0.0</speed>
  <fix>3d</fix>
</trkpt>
<trkpt lat="33.8103131" lon="-118.3938671">
  <ele>-0.122</ele>
  <time>2026-09-01T01:16:56Z</time>
  <course>186.79</course>
  <speed>0.022360679774997897</speed>
  <fix>3d</fix>
</trkpt>
<trkpt lat="33.810313" lon="-118.393867">
  <ele>-0.12</ele>
  <time>2026-09-01T01:16:56Z</time>
  <course>0.0</course>
  <speed>0.0</speed>
  <fix>3d</fix>
</trkpt>
<trkpt lat="33.8103131" lon="-118.3938671">
  <ele>-0.121</ele>
  <time>2026-09-01T01:16:56Z</time>
  <course>186.79</course>
  <speed>0.022360679774997897</speed>
  <fix>3d</fix>
</trkpt>
<trkpt lat="33.810313" lon="-118.393867">
  <ele>-0.12</ele>
  <time>2026-09-01T01:16:56Z</time>
  <course>0.0</course>
  <speed>0.0</speed>
  <fix>3d</fix>
</trkpt>
<trkpt lat="33.8103131" lon="-118.3938671">
  <ele>-0.12</ele>
  <time>2026-09-01T01:16:56Z</time>
  <course>186.78</course>
  <speed>0.022360679774997897</speed>
  <fix>3d</fix>
</trkpt>
<trkpt lat="33.810313" lon="-118.393867">
  <ele>-0.12</ele>
  <time>2026-09-01T01:16:56Z</time>
  <course>0.0</course>
  <speed>0.0</speed>
  <fix>3d</fix>
</trkpt>
<trkpt lat="33.8103131" lon="-118.3938671">
  <ele>-0.12</ele>
  <time>2026-09-01T01:16:56Z</time>
  <course>186.78</course>
  <speed>0.022360679774997897</speed>
  <fix>3d</fix>
</trkpt>
<trkpt lat="33.810313" lon="-118.393867">
  <ele>-0.12</ele>
  <time>2026-09-01T01:16:56Z</time>
  <course>0.0</course>
  <speed>0.0</speed>
  <fix>3d</fix>
</trkpt>
<trkpt lat="33.8103131" lon="-118.3938671">
  <ele>-0.12</ele>
  <time>2026-09-01T01:16:56Z</time>
  <course>186.78</course>
  <speed>0.022360679774997897</speed>
  <fix>3d</fix>
</trkpt>
<trkpt lat="33.810313" lon="-118.393867">
  <ele>-0.12</ele>
  <time>2026-09-01T01:16:56Z</time>
  <course>0.0</course>
  <speed>0.0</speed>
  <fix>3d</fix>
</trkpt>
<trkpt lat="33.8103131" lon="-118.3938671">
  <ele>-0.122</ele>
  <time>2026-09-01T01:16:56Z</time>
  <course>186.77</course>
  <speed>0.022360679774997897</speed>
  <fix>3d</fix>
</trkpt>
<trkpt lat="33.810313" lon="-118.393867">
  <ele>-0.12</ele>
  <time>2026-09-01T01:16:56Z</time>
  <course>0.0</course>
  <speed>0.0</speed>
  <fix>3d</fix>
</trkpt>
<trkpt lat="33.8103131" lon="-118.3938671">
  <ele>-0.125</ele>
  <time>2026-09-01T01:16:56Z</time>
  <course>186.77</course>
  <speed>0.022360679774997897</speed>
  <fix>3d</fix>
</trkpt>
<trkpt lat="33.810313" lon="-118.393867">
  <ele>-0.12</ele>
  <time>2026-09-01T01:16:56Z</time>
  <course>0.0</course>
  <speed>0.0</speed>
  <fix>3d</fix>
</trkpt>
<trkpt lat="33.8103131" lon="-118.3938671">
  <ele>-0.128</ele>
  <time>2026-09-01T01:16:56Z</time>
  <course>186.77</course>
  <speed>0.022360679774997897</speed>
  <fix>3d</fix>
</trkpt>
<trkpt lat="33.810313" lon="-118.393867">
  <ele>-0.12</ele>
  <time>2026-09-01T01:16:56Z</time>
  <course>0.0</course>
  <speed>0.0</speed>
  <fix>3d</fix>
</trkpt>
<trkpt lat="33.8103131" lon="-118.3938671">
  <ele>-0.13</ele>
  <time>2026-09-01T01:16:56Z</time>
  <course>186.77</course>
  <speed>0.022360679774997897</speed>
  <fix>3d</fix>
</trkpt>
<trkpt lat="33.810313" lon="-118.393867">
  <ele>-0.12</ele>
  <time>2026-09-01T01:16:56Z</time>
  <course>0.0</course>
  <speed>0.0</speed>
  <fix>3d</fix>
</trkpt>
<trkpt lat="33.8103131" lon="-118.3938671">
  <ele>-0.13</ele>
  <time>2026-09-01T01:16:56Z</time>
  <course>186.76</course>
  <speed>0.022360679774997897</speed>
  <fix>3d</fix>
</trkpt>
<trkpt lat="33.810313" lon="-118.393867">
  <ele>-0.12</ele>
  <time>2026-09-01T01:16:56Z</time>
  <course>0.0</course>
  <speed>0.0</speed>
  <fix>3d</fix>
</trkpt>
<trkpt lat="33.8103131" lon="-118.3938671">
  <ele>-0.129</ele>
  <time>2026-09-01T01:16:56Z</time>
  <course>186.76</course>
  <speed>0.022360679774997897</speed>
  <fix>3d</fix>
</trkpt>
<trkpt lat="33.810313" lon="-118.393867">
  <ele>-0.12</ele>
  <time>2026-09-01T01:16:56Z</time>
  <course>0.0</course>
  <speed>0.0</speed>
  <fix>3d</fix>
</trkpt>
<trkpt lat="33.8103131" lon="-118.3938671">
  <ele>-0.127</ele>
  <time>2026-09-01T01:16:56Z</time>
  <course>186.76</course>
  <speed>0.022360679774997897</speed>
  <fix>3d</fix>
</trkpt>
<trkpt lat="33.810313" lon="-118.393867">
  <ele>-0.12</ele>
  <time>2026-09-01T01:16:56Z</time>
  <course>0.0</course>
  <speed>0.0</speed>
  <fix>3d</fix>
</trkpt>
<trkpt lat="33.8103131" lon="-118.3938671">
  <ele>-0.125</ele>
  <time>2026-09-01T01:16:56Z</time>
  <course>186.75</course>
  <speed>0.022360679774997897</speed>
  <fix>3d</fix>
</trkpt>
<trkpt lat="33.810313" lon="-118.393867">
  <ele>-0.12</ele>
  <time>2026-09-01T01:16:56Z</time>
  <course>0.0</course>
  <speed>0.0</speed>
  <fix>3d</fix>
</trkpt>
<trkpt lat="33.8103131" lon="-118.3938671">
  <ele>-0.124</ele>
  <time>2026-09-01T01:16:56Z</time>
  <course>186.75</course>
  <speed>0.022360679774997897</speed>
  <fix>3d</fix>
</trkpt>
<trkpt lat="33.810313" lon="-118.393867">
  <ele>-0.12</ele>
  <time>2026-09-01T01:16:56Z</time>
  <course>0.0</course>
  <speed>0.0</speed>
  <fix>3d</fix>
</trkpt>
<trkpt lat="33.8103131" lon="-118.3938671">
  <ele>-0.124</ele>
  <time>2026-09-01T01:16:56Z</time>
  <course>186.75</course>
  <speed>0.022360679774997897</speed>
  <fix>3d</fix>
</trkpt>
<trkpt lat="33.810313" lon="-118.393867">
  <ele>-0.12</ele>
  <time>2026-09-01T01:16:56Z</time>
  <course>0.0</course>
  <speed>0.0</speed>
  <fix>3d</fix>
</trkpt>
<trkpt lat="33.8103131" lon="-118.3938671">
  <ele>-0.123</ele>
  <time>2026-09-01T01:16:56Z</time>
  <course>186.75</course>
  <speed>0.022360679774997897</speed>
  <fix>3d</fix>
</trkpt>
<trkpt lat="33.810313" lon="-118.393867">
  <ele>-0.12</ele>
  <time>2026-09-01T01:16:56Z</time>
  <course>0.0</course>
  <speed>0.0</speed>
  <fix>3d</fix>
</trkpt>
<trkpt lat="33.8103131" lon="-118.3938671">
  <ele>-0.122</ele>
  <time>2026-09-01T01:16:56Z</time>
  <course>186.74</course>
  <speed>0.022360679774997897</speed>
  <fix>3d</fix>
</trkpt>
<trkpt lat="33.810313" lon="-118.393867">
  <ele>-0.12</ele>
  <time>2026-09-01T01:16:56Z</time>
  <course>0.0</course>
  <speed>0.0</speed>
  <fix>3d</fix>
</trkpt>
<trkpt lat="33.8103131" lon="-118.3938671">
  <ele>-0.122</ele>
  <time>2026-09-01T01:16:56Z</time>
  <course>186.74</course>
  <speed>0.022360679774997897</speed>
  <fix>3d</fix>
</trkpt>
<trkpt lat="33.810313" lon="-118.393867">
  <ele>-0.12</ele>
  <time>2026-09-01T01:16:56Z</time>
  <course>0.0</course>
  <speed>0.0</speed>
  <fix>3d</fix>
</trkpt>
<trkpt lat="33.8103131" lon="-118.3938671">
  <ele>-0.122</ele>
  <time>2026-09-01T01:16:56Z</time>
  <course>186.74</course>
  <speed>0.022360679774997897</speed>
  <fix>3d</fix>
</trkpt>
<trkpt lat="33.810313" lon="-118.393867">
  <ele>-0.12</ele>
  <time>2026-09-01T01:16:56Z</time>
  <course>0.0</course>
  <speed>0.0</speed>
  <fix>3d</fix>
</trkpt>
<trkpt lat="33.8103131" lon="-118.3938671">
  <ele>-0.122</ele>
  <time>2026-09-01T01:16:56Z</time>
  <course>186.74</course>
  <speed>0.022360679774997897</speed>
  <fix>3d</fix>
</trkpt>
<trkpt lat="33.810313" lon="-118.393867">
  <ele>-0.12</ele>
  <time>2026-09-01T01:16:56Z</time>
  <course>0.0</course>
  <speed>0.0</speed>
  <fix>3d</fix>
</trkpt>
<trkpt lat="33.8103131" lon="-118.3938671">
  <ele>-0.121</ele>
  <time>2026-09-01T01:16:56Z</time>
  <course>186.73</course>
  <speed>0.022360679774997897</speed>
  <fix>3d</fix>
</trkpt>
<trkpt lat="33.810313" lon="-118.393867">
  <ele>-0.12</ele>
  <time>2026-09-01T01:16:56Z</time>
  <course>0.0</course>
  <speed>0.0</speed>
  <fix>3d</fix>
</trkpt>
<trkpt lat="33.8103131" lon="-118.3938671">
  <ele>-0.12</ele>
  <time>2026-09-01T01:16:56Z</time>
  <course>186.73</course>
  <speed>0.022360679774997897</speed>
  <fix>3d</fix>
</trkpt>
<trkpt lat="33.810313" lon="-118.393867">
  <ele>-0.12</ele>
  <time>2026-09-01T01:16:56Z</time>
  <course>0.0</course>
  <speed>0.0</speed>
  <fix>3d</fix>
</trkpt>
<trkpt lat="33.8103131" lon="-118.3938671">
  <ele>-0.12</ele>
  <time>2026-09-01T01:16:56Z</time>
  <course>186.73</course>
  <speed>0.022360679774997897</speed>
  <fix>3d</fix>
</trkpt>
<trkpt lat="33.810313" lon="-118.393867">
  <ele>-0.12</ele>
  <time>2026-09-01T01:16:56Z</time>
  <course>0.0</course>
  <speed>0.0</speed>
  <fix>3d</fix>
</trkpt>
<trkpt lat="33.8103131" lon="-118.3938671">
  <ele>-0.12</ele>
  <time>2026-09-01T01:16:56Z</time>
  <course>186.72</course>
  <speed>0.022360679774997897</speed>
  <fix>3d</fix>
</trkpt>
<trkpt lat="33.810313" lon="-118.393867">
  <ele>-0.12</ele>
  <time>2026-09-01T01:16:56Z</time>
  <course>0.0</course>
  <speed>0.0</speed>
  <fix>3d</fix>
</trkpt>
<trkpt lat="33.8103131" lon="-118.3938671">
  <ele>-0.121</ele>
  <time>2026-09-01T01:16:56Z</time>
  <course>186.72</course>
  <speed>0.022360679774997897</speed>
  <fix>3d</fix>
</trkpt>
<trkpt lat="33.810313" lon="-118.393867">
  <ele>-0.12</ele>
  <time>2026-09-01T01:16:56Z</time>
  <course>0.0</course>
  <speed>0.0</speed>
  <fix>3d</fix>
</trkpt>
<trkpt lat="33.8103131" lon="-118.3938671">
  <ele>-0.123</ele>
  <time>2026-09-01T01:16:56Z</time>
  <course>186.72</course>
  <speed>0.022360679774997897</speed>
  <fix>3d</fix>
</trkpt>
<trkpt lat="33.810313" lon="-118.393867">
  <ele>-0.12</ele>
  <time>2026-09-01T01:16:56Z</time>
  <course>0.0</course>
  <speed>0.0</speed>
  <fix>3d</fix>
</trkpt>
<trkpt lat="33.8103131" lon="-118.3938671">
  <ele>-0.125</ele>
  <time>2026-09-01T01:16:56Z</time>
  <course>186.72</course>
  <speed>0.022360679774997897</speed>
  <fix>3d</fix>
</trkpt>
<trkpt lat="33.810313" lon="-118.393867">
  <ele>-0.12</ele>
  <time>2026-09-01T01:16:56Z</time>
  <course>0.0</course>
  <speed>0.0</speed>
  <fix>3d</fix>
</trkpt>
<trkpt lat="33.8103131" lon="-118.3938671">
  <ele>-0.127</ele>
  <time>2026-09-01T01:16:56Z</time>
  <course>186.71</course>
  <speed>0.022360679774997897</speed>
  <fix>3d</fix>
</trkpt>
<trkpt lat="33.810313" lon="-118.393867">
  <ele>-0.12</ele>
  <time>2026-09-01T01:16:56Z</time>
  <course>0.0</course>
  <speed>0.0</speed>
  <fix>3d</fix>
</trkpt>
<trkpt lat="33.8103131" lon="-118.3938671">
  <ele>-0.127</ele>
  <time>2026-09-01T01:16:56Z</time>
  <course>186.71</course>
  <speed>0.022360679774997897</speed>
  <fix>3d</fix>
</trkpt>
<trkpt lat="33.810313" lon="-118.393867">
  <ele>-0.12</ele>
  <time>2026-09-01T01:16:56Z</time>
  <course>0.0</course>
  <speed>0.0</speed>
  <fix>3d</fix>
</trkpt>
<trkpt lat="33.8103131" lon="-118.3938671">
  <ele>-0.128</ele>
  <time>2026-09-01T01:16:56Z</time>
  <course>186.71</course>
  <speed>0.022360679774997897</speed>
  <fix>3d</fix>
</trkpt>
<trkpt lat="33.810313" lon="-118.393867">
  <ele>-0.12</ele>
  <time>2026-09-01T01:16:56Z</time>
  <course>0.0</course>
  <speed>0.0</speed>
  <fix>3d</fix>
</trkpt>
<trkpt lat="33.8103131" lon="-118.3938671">
  <ele>-0.127</ele>
  <time>2026-09-01T01:16:56Z</time>
  <course>186.71</course>
  <speed>0.022360679774997897</speed>
  <fix>3d</fix>
</trkpt>
<trkpt lat="33.810313" lon="-118.393867">
  <ele>-0.12</ele>
  <time>2026-09-01T01:16:56Z</time>
  <course>0.0</course>
  <speed>0.0</speed>
  <fix>3d</fix>
</trkpt>
<trkpt lat="33.8103131" lon="-118.3938671">
  <ele>-0.125</ele>
  <time>2026-09-01T01:16:56Z</time>
  <course>186.7</course>
  <speed>0.022360679774997897</speed>
  <fix>3d</fix>
</trkpt>
<trkpt lat="33.810313" lon="-118.393867">
  <ele>-0.12</ele>
  <time>2026-09-01T01:16:56Z</time>
  <course>0.0</course>
  <speed>0.0</speed>
  <fix>3d</fix>
</trkpt>
<trkpt lat="33.8103131" lon="-118.3938671">
  <ele>-0.125</ele>
  <time>2026-09-01T01:16:56Z</time>
  <course>186.7</course>
  <speed>0.022360679774997897</speed>
  <fix>3d</fix>
</trkpt>
<trkpt lat="33.810313" lon="-118.393867">
  <ele>-0.12</ele>
  <time>2026-09-01T01:16:56Z</time>
  <course>0.0</course>
  <speed>0.0</speed>
  <fix>3d</fix>
</trkpt>
<trkpt lat="33.8103131" lon="-118.3938671">
  <ele>-0.125</ele>
  <time>2026-09-01T01:16:56Z</time>
  <course>186.7</course>
  <speed>0.022360679774997897</speed>
  <fix>3d</fix>
</trkpt>
<trkpt lat="33.810313" lon="-118.393867">
  <ele>-0.12</ele>
  <time>2026-09-01T01:16:56Z</time>
  <course>0.0</course>
  <speed>0.0</speed>
  <fix>3d</fix>
</trkpt>
<trkpt lat="33.8103131" lon="-118.3938671">
  <ele>-0.126</ele>
  <time>2026-09-01T01:16:56Z</time>
  <course>186.7</course>
  <speed>0.022360679774997897</speed>
  <fix>3d</fix>
</trkpt>
<trkpt lat="33.810313" lon="-118.393867">
  <ele>-0.12</ele>
  <time>2026-09-01T01:16:56Z</time>
  <course>0.0</course>
  <speed>0.0</speed>
  <fix>3d</fix>
</trkpt>
<trkpt lat="33.8103131" lon="-118.3938671">
  <ele>-0.128</ele>
  <time>2026-09-01T01:16:56Z</time>
  <course>186.69</course>
  <speed>0.022360679774997897</speed>
  <fix>3d</fix>
</trkpt>
<trkpt lat="33.810313" lon="-118.393867">
  <ele>-0.12</ele>
  <time>2026-09-01T01:16:56Z</time>
  <course>0.0</course>
  <speed>0.0</speed>
  <fix>3d</fix>
</trkpt>
<trkpt lat="33.8103131" lon="-118.3938671">
  <ele>-0.131</ele>
  <time>2026-09-01T01:16:56Z</time>
  <course>186.69</course>
  <speed>0.022360679774997897</speed>
  <fix>3d</fix>
</trkpt>
<trkpt lat="33.810313" lon="-118.393867">
  <ele>-0.12</ele>
  <time>2026-09-01T01:16:56Z</time>
  <course>0.0</course>
  <speed>0.0</speed>
  <fix>3d</fix>
</trkpt>
<trkpt lat="33.8103131" lon="-118.3938671">
  <ele>-0.132</ele>
  <time>2026-09-01T01:16:56Z</time>
  <course>186.68</course>
  <speed>0.022360679774997897</speed>
  <fix>3d</fix>
</trkpt>
<trkpt lat="33.810313" lon="-118.393867">
  <ele>-0.12</ele>
  <time>2026-09-01T01:16:56Z</time>
  <course>0.0</course>
  <speed>0.0</speed>
  <fix>3d</fix>
</trkpt>
<trkpt lat="33.8103131" lon="-118.3938671">
  <ele>-0.13</ele>
  <time>2026-09-01T01:16:56Z</time>
  <course>186.67</course>
  <speed>0.022360679774997897</speed>
  <fix>3d</fix>
</trkpt>
<trkpt lat="33.810313" lon="-118.393867">
  <ele>-0.12</ele>
  <time>2026-09-01T01:16:56Z</time>
  <course>0.0</course>
  <speed>0.0</speed>
  <fix>3d</fix>
</trkpt>
<trkpt lat="33.8103131" lon="-118.3938671">
  <ele>-0.13</ele>
  <time>2026-09-01T01:16:56Z</time>
  <course>186.67</course>
  <speed>0.022360679774997897</speed>
  <fix>3d</fix>
</trkpt>
<trkpt lat="33.810313" lon="-118.393867">
  <ele>-0.12</ele>
  <time>2026-09-01T01:16:56Z</time>
  <course>0.0</course>
  <speed>0.0</speed>
  <fix>3d</fix>
</trkpt>
<trkpt lat="33.8103131" lon="-118.3938671">
  <ele>-0.129</ele>
  <time>2026-09-01T01:16:56Z</time>
  <course>186.67</course>
  <speed>0.022360679774997897</speed>
  <fix>3d</fix>
</trkpt>
<trkpt lat="33.810313" lon="-118.393867">
  <ele>-0.12</ele>
  <time>2026-09-01T01:16:56Z</time>
  <course>0.0</course>
  <speed>0.0</speed>
  <fix>3d</fix>
</trkpt>
<trkpt lat="33.8103131" lon="-118.3938671">
  <ele>-0.13</ele>
  <time>2026-09-01T01:16:56Z</time>
  <course>186.67</course>
  <speed>0.022360679774997897</speed>
  <fix>3d</fix>
</trkpt>
<trkpt lat="33.810313" lon="-118.393867">
  <ele>-0.12</ele>
  <time>2026-09-01T01:16:56Z</time>
  <course>0.0</course>
  <speed>0.0</speed>
  <fix>3d</fix>
</trkpt>
<trkpt lat="33.8103131" lon="-118.3938671">
  <ele>-0.13</ele>
  <time>2026-09-01T01:16:56Z</time>
  <course>186.67</course>
  <speed>0.022360679774997897</speed>
  <fix>3d</fix>
</trkpt>
<trkpt lat="33.810313" lon="-118.393867">
  <ele>-0.12</ele>
  <time>2026-09-01T01:16:56Z</time>
  <course>0.0</course>
  <speed>0.0</speed>
  <fix>3d</fix>
</trkpt>
<trkpt lat="33.8103131" lon="-118.3938671">
  <ele>-0.129</ele>
  <time>2026-09-01T01:16:56Z</time>
  <course>186.66</course>
  <speed>0.022360679774997897</speed>
  <fix>3d</fix>
</trkpt>
<trkpt lat="33.810313" lon="-118.393867">
  <ele>-0.12</ele>
  <time>2026-09-01T01:16:56Z</time>
  <course>0.0</course>
  <speed>0.0</speed>
  <fix>3d</fix>
</trkpt>
<trkpt lat="33.8103131" lon="-118.3938671">
  <ele>-0.128</ele>
  <time>2026-09-01T01:16:56Z</time>
  <course>186.66</course>
  <speed>0.022360679774997897</speed>
  <fix>3d</fix>
</trkpt>
<trkpt lat="33.810313" lon="-118.393867">
  <ele>-0.12</ele>
  <time>2026-09-01T01:16:56Z</time>
  <course>0.0</course>
  <speed>0.0</speed>
  <fix>3d</fix>
</trkpt>
<trkpt lat="33.8103131" lon="-118.3938671">
  <ele>-0.126</ele>
  <time>2026-09-01T01:16:56Z</time>
  <course>186.66</course>
  <speed>0.022360679774997897</speed>
  <fix>3d</fix>
</trkpt>
<trkpt lat="33.810313" lon="-118.393867">
  <ele>-0.12</ele>
  <time>2026-09-01T01:16:56Z</time>
  <course>0.0</course>
  <speed>0.0</speed>
  <fix>3d</fix>
</trkpt>
<trkpt lat="33.8103131" lon="-118.3938671">
  <ele>-0.124</ele>
  <time>2026-09-01T01:16:56Z</time>
  <course>186.66</course>
  <speed>0.022360679774997897</speed>
  <fix>3d</fix>
</trkpt>
<trkpt lat="33.810313" lon="-118.393867">
  <ele>-0.12</ele>
  <time>2026-09-01T01:16:56Z</time>
  <course>0.0</course>
  <speed>0.0</speed>
  <fix>3d</fix>
</trkpt>
<trkpt lat="33.8103131" lon="-118.3938671">
  <ele>-0.122</ele>
  <time>2026-09-01T01:16:56Z</time>
  <course>186.65</course>
  <speed>0.022360679774997897</speed>
  <fix>3d</fix>
</trkpt>
<trkpt lat="33.810313" lon="-118.393867">
  <ele>-0.12</ele>
  <time>2026-09-01T01:16:56Z</time>
  <course>0.0</course>
  <speed>0.0</speed>
  <fix>3d</fix>
</trkpt>
<trkpt lat="33.8103131" lon="-118.3938671">
  <ele>-0.121</ele>
  <time>2026-09-01T01:16:56Z</time>
  <course>186.65</course>
  <speed>0.022360679774997897</speed>
  <fix>3d</fix>
</trkpt>
<trkpt lat="33.810313" lon="-118.393867">
  <ele>-0.12</ele>
  <time>2026-09-01T01:16:56Z</time>
  <course>0.0</course>
  <speed>0.0</speed>
  <fix>3d</fix>
</trkpt>
<trkpt lat="33.8103131" lon="-118.3938671">
  <ele>-0.122</ele>
  <time>2026-09-01T01:16:56Z</time>
  <course>186.65</course>
  <speed>0.022360679774997897</speed>
  <fix>3d</fix>
</trkpt>
<trkpt lat="33.810313" lon="-118.393867">
  <ele>-0.12</ele>
  <time>2026-09-01T01:16:56Z</time>
  <course>0.0</course>
  <speed>0.0</speed>
  <fix>3d</fix>
</trkpt>
<trkpt lat="33.8103131" lon="-118.3938671">
  <ele>-0.124</ele>
  <time>2026-09-01T01:16:56Z</time>
  <course>186.65</course>
  <speed>0.022360679774997897</speed>
  <fix>3d</fix>
</trkpt>
<trkpt lat="33.810313" lon="-118.393867">
  <ele>-0.12</ele>
  <time>2026-09-01T01:16:56Z</time>
  <course>0.0</course>
  <speed>0.0</speed>
  <fix>3d</fix>
</trkpt>
<trkpt lat="33.8103131" lon="-118.3938671">
  <ele>-0.127</ele>
  <time>2026-09-01T01:16:56Z</time>
  <course>186.64</course>
  <speed>0.022360679774997897</speed>
  <fix>3d</fix>
</trkpt>
<trkpt lat="33.810313" lon="-118.393867">
  <ele>-0.12</ele>
  <time>2026-09-01T01:16:56Z</time>
  <course>0.0</course>
  <speed>0.0</speed>
  <fix>3d</fix>
</trkpt>
<trkpt lat="33.8103131" lon="-118.3938671">
  <ele>-0.128</ele>
  <time>2026-09-01T01:16:56Z</time>
  <course>186.64</course>
  <speed>0.022360679774997897</speed>
  <fix>3d</fix>
</trkpt>
<trkpt lat="33.810313" lon="-118.393867">
  <ele>-0.12</ele>
  <time>2026-09-01T01:16:56Z</time>
  <course>0.0</course>
  <speed>0.0</speed>
  <fix>3d</fix>
</trkpt>
<trkpt lat="33.8103131" lon="-118.3938671">
  <ele>-0.129</ele>
  <time>2026-09-01T01:16:56Z</time>
  <course>186.64</course>
  <speed>0.022360679774997897</speed>
  <fix>3d</fix>
</trkpt>
<trkpt lat="33.810313" lon="-118.393867">
  <ele>-0.12</ele>
  <time>2026-09-01T01:16:56Z</time>
  <course>0.0</course>
  <speed>0.0</speed>
  <fix>3d</fix>
</trkpt>
<trkpt lat="33.8103131" lon="-118.3938671">
  <ele>-0.13</ele>
  <time>2026-09-01T01:16:56Z</time>
  <course>186.64</course>
  <speed>0.022360679774997897</speed>
  <fix>3d</fix>
</trkpt>
<trkpt lat="33.810313" lon="-118.393867">
  <ele>-0.12</ele>
  <time>2026-09-01T01:16:56Z</time>
  <course>0.0</course>
  <speed>0.0</speed>
  <fix>3d</fix>
</trkpt>
<trkpt lat="33.8103131" lon="-118.3938671">
  <ele>-0.129</ele>
  <time>2026-09-01T01:16:56Z</time>
  <course>186.64</course>
  <speed>0.022360679774997897</speed>
  <fix>3d</fix>
</trkpt>
<trkpt lat="33.810313" lon="-118.393867">
  <ele>-0.12</ele>
  <time>2026-09-01T01:16:56Z</time>
  <course>0.0</course>
  <speed>0.0</speed>
  <fix>3d</fix>
</trkpt>
<trkpt lat="33.8103131" lon="-118.3938671">
  <ele>-0.128</ele>
  <time>2026-09-01T01:16:56Z</time>
  <course>186.63</course>
  <speed>0.022360679774997897</speed>
  <fix>3d</fix>
</trkpt>
<trkpt lat="33.810313" lon="-118.393867">
  <ele>-0.12</ele>
  <time>2026-09-01T01:16:56Z</time>
  <course>0.0</course>
  <speed>0.0</speed>
  <fix>3d</fix>
</trkpt>
<trkpt lat="33.8103131" lon="-118.3938671">
  <ele>-0.127</ele>
  <time>2026-09-01T01:16:56Z</time>
  <course>186.63</course>
  <speed>0.022360679774997897</speed>
  <fix>3d</fix>
</trkpt>
<trkpt lat="33.810313" lon="-118.393867">
  <ele>-0.12</ele>
  <time>2026-09-01T01:16:56Z</time>
  <course>0.0</course>
  <speed>0.0</speed>
  <fix>3d</fix>
</trkpt>
<trkpt lat="33.8103131" lon="-118.3938671">
  <ele>-0.126</ele>
  <time>2026-09-01T01:16:56Z</time>
  <course>186.63</course>
  <speed>0.022360679774997897</speed>
  <fix>3d</fix>
</trkpt>
<trkpt lat="33.810313" lon="-118.393867">
  <ele>-0.12</ele>
  <time>2026-09-01T01:16:56Z</time>
  <course>0.0</course>
  <speed>0.0</speed>
  <fix>3d</fix>
</trkpt>
<trkpt lat="33.8103131" lon="-118.3938671">
  <ele>-0.126</ele>
  <time>2026-09-01T01:16:56Z</time>
  <course>186.63</course>
  <speed>0.022360679774997897</speed>
  <fix>3d</fix>
</trkpt>
<trkpt lat="33.810313" lon="-118.393867">
  <ele>-0.12</ele>
  <time>2026-09-01T01:16:56Z</time>
  <course>0.0</course>
  <speed>0.0</speed>
  <fix>3d</fix>
</trkpt>
<trkpt lat="33.8103131" lon="-118.3938671">
  <ele>-0.126</ele>
  <time>2026-09-01T01:16:56Z</time>
  <course>186.62</course>
  <speed>0.022360679774997897</speed>
  <fix>3d</fix>
</trkpt>
<trkpt lat="33.810313" lon="-118.393867">
  <ele>-0.12</ele>
  <time>2026-09-01T01:16:56Z</time>
  <course>0.0</course>
  <speed>0.0</speed>
  <fix>3d</fix>
</trkpt>
<trkpt lat="33.8103131" lon="-118.3938671">
  <ele>-0.127</ele>
  <time>2026-09-01T01:16:56Z</time>
  <course>186.62</course>
  <speed>0.022360679774997897</speed>
  <fix>3d</fix>
</trkpt>
<trkpt lat="33.810313" lon="-118.393867">
  <ele>-0.12</ele>
  <time>2026-09-01T01:16:56Z</time>
  <course>0.0</course>
  <speed>0.0</speed>
  <fix>3d</fix>
</trkpt>
<trkpt lat="33.8103131" lon="-118.3938671">
  <ele>-0.127</ele>
  <time>2026-09-01T01:16:56Z</time>
  <course>186.62</course>
  <speed>0.022360679774997897</speed>
  <fix>3d</fix>
</trkpt>
<trkpt lat="33.810313" lon="-118.393867">
  <ele>-0.12</ele>
  <time>2026-09-01T01:16:56Z</time>
  <course>0.0</course>
  <speed>0.0</speed>
  <fix>3d</fix>
</trkpt>
<trkpt lat="33.8103131" lon="-118.3938671">
  <ele>-0.127</ele>
  <time>2026-09-01T01:16:56Z</time>
  <course>186.62</course>
  <speed>0.022360679774997897</speed>
  <fix>3d</fix>
</trkpt>
<trkpt lat="33.810313" lon="-118.393867">
  <ele>-0.12</ele>
  <time>2026-09-01T01:16:56Z</time>
  <course>0.0</course>
  <speed>0.0</speed>
  <fix>3d</fix>
</trkpt>
<trkpt lat="33.8103131" lon="-118.3938671">
  <ele>-0.127</ele>
  <time>2026-09-01T01:16:56Z</time>
  <course>186.62</course>
  <speed>0.022360679774997897</speed>
  <fix>3d</fix>
</trkpt>
<trkpt lat="33.810313" lon="-118.393867">
  <ele>-0.12</ele>
  <time>2026-09-01T01:16:56Z</time>
  <course>0.0</course>
  <speed>0.0</speed>
  <fix>3d</fix>
</trkpt>
<trkpt lat="33.8103131" lon="-118.3938671">
  <ele>-0.127</ele>
  <time>2026-09-01T01:16:56Z</time>
  <course>186.61</course>
  <speed>0.022360679774997897</speed>
  <fix>3d</fix>
</trkpt>
<trkpt lat="33.810313" lon="-118.393867">
  <ele>-0.12</ele>
  <time>2026-09-01T01:16:56Z</time>
  <course>0.0</course>
  <speed>0.0</speed>
  <fix>3d</fix>
</trkpt>
<trkpt lat="33.8103131" lon="-118.3938671">
  <ele>-0.126</ele>
  <time>2026-09-01T01:16:56Z</time>
  <course>186.61</course>
  <speed>0.022360679774997897</speed>
  <fix>3d</fix>
</trkpt>
<trkpt lat="33.810313" lon="-118.393867">
  <ele>-0.12</ele>
  <time>2026-09-01T01:16:56Z</time>
  <course>0.0</course>
  <speed>0.0</speed>
  <fix>3d</fix>
</trkpt>
<trkpt lat="33.8103131" lon="-118.3938671">
  <ele>-0.125</ele>
  <time>2026-09-01T01:16:56Z</time>
  <course>186.61</course>
  <speed>0.022360679774997897</speed>
  <fix>3d</fix>
</trkpt>
<trkpt lat="33.810313" lon="-118.393867">
  <ele>-0.12</ele>
  <time>2026-09-01T01:16:56Z</time>
  <course>0.0</course>
  <speed>0.0</speed>
  <fix>3d</fix>
</trkpt>
<trkpt lat="33.8103131" lon="-118.3938671">
  <ele>-0.125</ele>
  <time>2026-09-01T01:16:56Z</time>
  <course>186.61</course>
  <speed>0.022360679774997897</speed>
  <fix>3d</fix>
</trkpt>
<trkpt lat="33.810313" lon="-118.393867">
  <ele>-0.12</ele>
  <time>2026-09-01T01:16:56Z</time>
  <course>0.0</course>
  <speed>0.0</speed>
  <fix>3d</fix>
</trkpt>
<trkpt lat="33.8103131" lon="-118.3938671">
  <ele>-0.125</ele>
  <time>2026-09-01T01:16:56Z</time>
  <course>186.6</course>
  <speed>0.022360679774997897</speed>
  <fix>3d</fix>
</trkpt>
<trkpt lat="33.810313" lon="-118.393867">
  <ele>-0.12</ele>
  <time>2026-09-01T01:16:56Z</time>
  <course>0.0</course>
  <speed>0.0</speed>
  <fix>3d</fix>
</trkpt>
<trkpt lat="33.8103131" lon="-118.3938671">
  <ele>-0.126</ele>
  <time>2026-09-01T01:16:56Z</time>
  <course>186.6</course>
  <speed>0.022360679774997897</speed>
  <fix>3d</fix>
</trkpt>
<trkpt lat="33.810313" lon="-118.393867">
  <ele>-0.12</ele>
  <time>2026-09-01T01:16:56Z</time>
  <course>0.0</course>
  <speed>0.0</speed>
  <fix>3d</fix>
</trkpt>
<trkpt lat="33.8103131" lon="-118.3938671">
  <ele>-0.126</ele>
  <time>2026-09-01T01:16:56Z</time>
  <course>186.6</course>
  <speed>0.022360679774997897</speed>
  <fix>3d</fix>
</trkpt>
<trkpt lat="33.810313" lon="-118.393867">
  <ele>-0.12</ele>
  <time>2026-09-01T01:16:56Z</time>
  <course>0.0</course>
  <speed>0.0</speed>
  <fix>3d</fix>
</trkpt>
<trkpt lat="33.8103131" lon="-118.3938671">
  <ele>-0.128</ele>
  <time>2026-09-01T01:16:56Z</time>
  <course>186.6</course>
  <speed>0.022360679774997897</speed>
  <fix>3d</fix>
</trkpt>
<trkpt lat="33.810313" lon="-118.393867">
  <ele>-0.12</ele>
  <time>2026-09-01T01:16:56Z</time>
  <course>0.0</course>
  <speed>0.0</speed>
  <fix>3d</fix>
</trkpt>
<trkpt lat="33.8103131" lon="-118.3938671">
  <ele>-0.13</ele>
  <time>2026-09-01T01:16:56Z</time>
  <course>186.6</course>
  <speed>0.022360679774997897</speed>
  <fix>3d</fix>
</trkpt>
<trkpt lat="33.810313" lon="-118.393867">
  <ele>-0.12</ele>
  <time>2026-09-01T01:16:56Z</time>
  <course>0.0</course>
  <speed>0.0</speed>
  <fix>3d</fix>
</trkpt>
<trkpt lat="33.8103131" lon="-118.3938671">
  <ele>-0.132</ele>
  <time>2026-09-01T01:16:56Z</time>
  <course>186.59</course>
  <speed>0.022360679774997897</speed>
  <fix>3d</fix>
</trkpt>
<trkpt lat="33.810313" lon="-118.393867">
  <ele>-0.12</ele>
  <time>2026-09-01T01:16:56Z</time>
  <course>0.0</course>
  <speed>0.0</speed>
  <fix>3d</fix>
</trkpt>
<trkpt lat="33.8103131" lon="-118.3938671">
  <ele>-0.132</ele>
  <time>2026-09-01T01:16:56Z</time>
  <course>186.59</course>
  <speed>0.022360679774997897</speed>
  <fix>3d</fix>
</trkpt>
<trkpt lat="33.810313" lon="-118.393867">
  <ele>-0.12</ele>
  <time>2026-09-01T01:16:56Z</time>
  <course>0.0</course>
  <speed>0.0</speed>
  <fix>3d</fix>
</trkpt>
<trkpt lat="33.8103131" lon="-118.3938671">
  <ele>-0.132</ele>
  <time>2026-09-01T01:16:56Z</time>
  <course>186.59</course>
  <speed>0.01</speed>
  <fix>3d</fix>
</trkpt>
<trkpt lat="33.810313" lon="-118.393867">
  <ele>-0.12</ele>
  <time>2026-09-01T01:16:56Z</time>
  <course>85.4</course>
  <speed>0.0</speed>
  <fix>3d</fix>
</trkpt>
<trkpt lat="33.8103131" lon="-118.3938671">
  <ele>-0.13</ele>
  <time>2026-09-01T01:16:56Z</time>
  <course>186.59</course>
  <speed>0.022360679774997897</speed>
  <fix>3d</fix>
</trkpt>
<trkpt lat="33.810313" lon="-118.393867">
  <ele>-0.12</ele>
  <time>2026-09-01T01:16:56Z</time>
  <course>85.4</course>
  <speed>0.0</speed>
  <fix>3d</fix>
</trkpt>
<trkpt lat="33.8103131" lon="-118.3938671">
  <ele>-0.129</ele>
  <time>2026-09-01T01:16:56Z</time>
  <course>186.6</course>
  <speed>0.0412310562561766</speed>
  <fix>3d</fix>
</trkpt>
<trkpt lat="33.810313" lon="-118.393867">
  <ele>-0.12</ele>
  <time>2026-09-01T01:16:56Z</time>
  <course>90.09</course>
  <speed>0.02</speed>
  <fix>3d</fix>
</trkpt>
<trkpt lat="33.8103131" lon="-118.393867">
  <ele>-0.129</ele>
  <time>2026-09-01T01:16:56Z</time>
  <course>186.63</course>
  <speed>0.07071067811865475</speed>
  <fix>3d</fix>
</trkpt>
<trkpt lat="33.810313" lon="-118.393867">
  <ele>-0.12</ele>
  <time>2026-09-01T01:16:56Z</time>
  <course>90.09</course>
  <speed>0.02</speed>
  <fix>3d</fix>
</trkpt>
<trkpt lat="33.8103131" lon="-118.3938669">
  <ele>-0.13</ele>
  <time>2026-09-01T01:16:56Z</time>
  <course>186.68</course>
  <speed>0.09</speed>
  <fix>3d</fix>
</trkpt>
<trkpt lat="33.810313" lon="-118.3938669">
  <ele>-0.12</ele>
  <time>2026-09-01T01:16:56Z</time>
  <course>91.31</course>
  <speed>0.06</speed>
  <fix>3d</fix>
</trkpt>
<trkpt lat="33.8103131" lon="-118.3938668">
  <ele>-0.132</ele>
  <time>2026-09-01T01:16:56Z</time>
  <course>186.74</course>
  <speed>0.12</speed>
  <fix>3d</fix>
</trkpt>
<trkpt lat="33.810313" lon="-118.3938669">
  <ele>-0.12</ele>
  <time>2026-09-01T01:16:56Z</time>
  <course>91.31</course>
  <speed>0.06</speed>
  <fix>3d</fix>
</trkpt>
<trkpt lat="33.8103131" lon="-118.3938666">
  <ele>-0.133</ele>
  <time>2026-09-01T01:16:56Z</time>
  <course>186.82</course>
  <speed>0.14</speed>
  <fix>3d</fix>
</trkpt>
<trkpt lat="33.810313" lon="-118.3938667">
  <ele>-0.12</ele>
  <time>2026-09-01T01:16:56Z</time>
  <course>91.66</course>
  <speed>0.11</speed>
  <fix>3d</fix>
</trkpt>
<trkpt lat="33.8103131" lon="-118.3938665">
  <ele>-0.132</ele>
  <time>2026-09-01T01:16:56Z</time>
  <course>186.83</course>
  <speed>0.15</speed>
  <fix>3d</fix>
</trkpt>
<trkpt lat="33.810313" lon="-118.3938667">
  <ele>-0.12</ele>
  <time>2026-09-01T01:16:56Z</time>
  <course>91.66</course>
  <speed>0.11</speed>
  <fix>3d</fix>
</trkpt>
<trkpt lat="33.8103131" lon="-118.3938663">
  <ele>-0.132</ele>
  <time>2026-09-01T01:16:56Z</time>
  <course>186.09</course>
  <speed>0.14</speed>
  <fix>3d</fix>
</trkpt>
<trkpt lat="33.810313" lon="-118.3938664">
  <ele>-0.12</ele>
  <time>2026-09-01T01:16:56Z</time>
  <course>91.72</course>
  <speed>0.15</speed>
  <fix>3d</fix>
</trkpt>
<trkpt lat="33.8103131" lon="-118.3938661">
  <ele>-0.13</ele>
  <time>2026-09-01T01:16:56Z</time>
  <course>184.83</course>
  <speed>0.130384048104053</speed>
  <fix>3d</fix>
</trkpt>
<trkpt lat="33.810313" lon="-118.3938664">
  <ele>-0.12</ele>
  <time>2026-09-01T01:16:56Z</time>
  <course>91.72</course>
  <speed>0.15</speed>
  <fix>3d</fix>
</trkpt>
<trkpt lat="33.8103131" lon="-118.393866">
  <ele>-0.127</ele>
  <time>2026-09-01T01:16:56Z</time>
  <course>184.56</course>
  <speed>0.12369316876852982</speed>
  <fix>3d</fix>
</trkpt>
<trkpt lat="33.810313" lon="-118.3938661">
  <ele>-0.12</ele>
  <time>2026-09-01T01:16:56Z</time>
  <course>88.89</course>
  <speed>0.15</speed>
  <fix>3d</fix>
</trkpt>
<trkpt lat="33.8103131" lon="-118.3938658">
  <ele>-0.125</ele>
  <time>2026-09-01T01:16:56Z</time>
  <course>186.4</course>
  <speed>0.12206555615733702</speed>
  <fix>3d</fix>
</trkpt>
<trkpt lat="33.810313" lon="-118.3938661">
  <ele>-0.12</ele>
  <time>2026-09-01T01:16:56Z</time>
  <course>88.89</course>
  <speed>0.15</speed>
  <fix>3d</fix>
</trkpt>
<trkpt lat="33.8103132" lon="-118.3938657">
  <ele>-0.125</ele>
  <time>2026-09-01T01:16:56Z</time>
  <course>189.36</course>
  <speed>0.13601470508735444</speed>
  <fix>3d</fix>
</trkpt>
<trkpt lat="33.810313" lon="-118.3938657">
  <ele>-0.12</ele>
  <time>2026-09-01T01:16:56Z</time>
  <course>69.06</course>
  <speed>0.13</speed>
  <fix>3d</fix>
</trkpt>
<trkpt lat="33.8103133" lon="-118.3938656">
  <ele>-0.127</ele>
  <time>2026-09-01T01:16:56Z</time>
  <course>192.8</course>
  <speed>0.1708800749063506</speed>
  <fix>3d</fix>
</trkpt>
<trkpt lat="33.810313" lon="-118.3938657">
  <ele>-0.12</ele>
  <time>2026-09-01T01:16:56Z</time>
  <course>69.06</course>
  <speed>0.13</speed>
  <fix>3d</fix>
</trkpt>
<trkpt lat="33.8103134" lon="-118.3938656">
  <ele>-0.129</ele>
  <time>2026-09-01T01:16:56Z</time>
  <course>196.54</course>
  <speed>0.223606797749979</speed>
  <fix>3d</fix>
</trkpt>
<trkpt lat="33.8103131" lon="-118.3938656">
  <ele>-0.12</ele>
  <time>2026-09-01T01:16:56Z</time>
  <course>31.85</course>
  <speed>0.15</speed>
  <fix>3d</fix>
</trkpt>
<trkpt lat="33.8103136" lon="-118.3938655">
  <ele>-0.13</ele>
  <time>2026-09-01T01:16:56Z</time>
  <course>200.52</course>
  <speed>0.280713376952364</speed>
  <fix>3d</fix>
</trkpt>
<trkpt lat="33.8103131" lon="-118.3938656">
  <ele>-0.12</ele>
  <time>2026-09-01T01:16:56Z</time>
  <course>31.85</course>
  <speed>0.15</speed>
  <fix>3d</fix>
</trkpt>
<trkpt lat="33.8103139" lon="-118.3938655">
  <ele>-0.13</ele>
  <time>2026-09-01T01:16:56Z</time>
  <course>204.76</course>
  <speed>0.35014282800023194</speed>
  <fix>3d</fix>
</trkpt>
<trkpt lat="33.8103135" lon="-118.3938654">
  <ele>-0.12</ele>
  <time>2026-09-01T01:16:56Z</time>
  <course>9.71</course>
  <speed>0.24</speed>
  <fix>3d</fix>
</trkpt>
<trkpt lat="33.8103142" lon="-118.3938654">
  <ele>-0.131</ele>
  <time>2026-09-01T01:16:56Z</time>
  <course>208.87</course>
  <speed>0.34</speed>
  <fix>3d</fix>
</trkpt>
<trkpt lat="33.8103135" lon="-118.3938654">
  <ele>-0.12</ele>
  <time>2026-09-01T01:16:56Z</time>
  <course>9.71</course>
  <speed>0.24</speed>
  <fix>3d</fix>
</trkpt>
<trkpt lat="33.8103145" lon="-118.3938654">
  <ele>-0.131</ele>
  <time>2026-09-01T01:16:56Z</time>
  <course>211.63</course>
  <speed>0.29017236257093815</speed>
  <fix>3d</fix>
</trkpt>
<trkpt lat="33.810314" lon="-118.3938654">
  <ele>-0.12</ele>
  <time>2026-09-01T01:16:56Z</time>
  <course>2.4</course>
  <speed>0.31</speed>
  <fix>3d</fix>
</trkpt>
<trkpt lat="33.8103147" lon="-118.3938654">
  <ele>-0.131</ele>
  <time>2026-09-01T01:16:56Z</time>
  <course>213.13</course>
  <speed>0.2501999200639361</speed>
  <fix>3d</fix>
</trkpt>
<trkpt lat="33.810314" lon="-118.3938654">
  <ele>-0.12</ele>
  <time>2026-09-01T01:16:56Z</time>
  <course>2.4</course>
  <speed>0.31</speed>
  <fix>3d</fix>
</trkpt>
<trkpt lat="33.8103149" lon="-118.3938654">
  <ele>-0.133</ele>
  <time>2026-09-01T01:16:56Z</time>
  <course>213.51</course>
  <speed>0.2109502310972899</speed>
  <fix>3d</fix>
</trkpt>
<trkpt lat="33.8103145" lon="-118.3938654">
  <ele>-0.13</ele>
  <time>2026-09-01T01:16:56Z</time>
  <course>1.49</course>
  <speed>0.29</speed>
  <fix>3d</fix>
</trkpt>
<trkpt lat="33.810315" lon="-118.3938654">
  <ele>-0.135</ele>
  <time>2026-09-01T01:16:56Z</time>
  <course>212.24</course>
  <speed>0.1649242250247064</speed>
  <fix>3d</fix>
</trkpt>
<trkpt lat="33.8103145" lon="-118.3938654">
  <ele>-0.13</ele>
  <time>2026-09-01T01:16:56Z</time>
  <course>1.49</course>
  <speed>0.29</speed>
  <fix>3d</fix>
</trkpt>
<trkpt lat="33.8103152" lon="-118.3938653">
  <ele>-0.136</ele>
  <time>2026-09-01T01:16:56Z</time>
  <course>210.28</course>
  <speed>0.1341640786499874</speed>
  <fix>3d</fix>
</trkpt>
<trkpt lat="33.810315" lon="-118.3938653">
  <ele>-0.13</ele>
  <time>2026-09-01T01:16:56Z</time>
  <course>8.46</course>
  <speed>0.21</speed>
  <fix>3d</fix>
</trkpt>
<trkpt lat="33.8103153" lon="-118.3938652">
  <ele>-0.136</ele>
  <time>2026-09-01T01:16:56Z</time>
  <course>208.5</course>
  <speed>0.1063014581273465</speed>
  <fix>3d</fix>
</trkpt>
<trkpt lat="33.810315" lon="-118.3938653">
  <ele>-0.13</ele>
  <time>2026-09-01T01:16:56Z</time>
  <course>8.46</course>
  <speed>0.21</speed>
  <fix>3d</fix>
</trkpt>
<trkpt lat="33.8103153" lon="-118.3938651">
  <ele>-0.135</ele>
  <time>2026-09-01T01:16:56Z</time>
  <course>207.18</course>
  <speed>0.10770329614269007</speed>
  <fix>3d</fix>
</trkpt>
<trkpt lat="33.8103153" lon="-118.3938652">
  <ele>-0.13</ele>
  <time>2026-09-01T01:16:56Z</time>
  <course>30.12</course>
  <speed>0.15</speed>
  <fix>3d</fix>
</trkpt>
<trkpt lat="33.8103154" lon="-118.393865">
  <ele>-0.134</ele>
  <time>2026-09-01T01:16:56Z</time>
  <course>206.3</course>
  <speed>0.12</speed>
  <fix>3d</fix>
</trkpt>
<trkpt lat="33.8103153" lon="-118.3938652">
  <ele>-0.13</ele>
  <time>2026-09-01T01:16:56Z</time>
  <course>30.12</course>
  <speed>0.15</speed>
  <fix>3d</fix>
</trkpt>
<trkpt lat="33.8103154" lon="-118.3938648">
  <ele>-0.134</ele>
  <time>2026-09-01T01:16:56Z</time>
  <course>205.83</course>
  <speed>0.1414213562373095</speed>
  <fix>3d</fix>
</trkpt>
<trkpt lat="33.8103155" lon="-118.393865">
  <ele>-0.13</ele>
  <time>2026-09-01T01:16:56Z</time>
  <course>66.36</course>
  <speed>0.13</speed>
  <fix>3d</fix>
</trkpt>
<trkpt lat="33.8103154" lon="-118.3938647">
  <ele>-0.133</ele>
  <time>2026-09-01T01:16:56Z</time>
  <course>205.58</course>
  <speed>0.15524174696260024</speed>
  <fix>3d</fix>
</trkpt>
<trkpt lat="33.8103155" lon="-118.393865">
  <ele>-0.13</ele>
  <time>2026-09-01T01:16:56Z</time>
  <course>66.36</course>
  <speed>0.13</speed>
  <fix>3d</fix>
</trkpt>
<trkpt lat="33.8103154" lon="-118.3938645">
  <ele>-0.131</ele>
  <time>2026-09-01T01:16:56Z</time>
  <course>204.68</course>
  <speed>0.14560219778561037</speed>
  <fix>3d</fix>
</trkpt>
<trkpt lat="33.8103155" lon="-118.3938647">
  <ele>-0.12</ele>
  <time>2026-09-01T01:16:56Z</time>
  <course>91.55</course>
  <speed>0.15</speed>
  <fix>3d</fix>
</trkpt>
<trkpt lat="33.8103154" lon="-118.3938644">
  <ele>-0.129</ele>
  <time>2026-09-01T01:16:56Z</time>
  <course>203.24</course>
  <speed>0.13601470508735444</speed>
  <fix>3d</fix>
</trkpt>
<trkpt lat="33.8103155" lon="-118.3938647">
  <ele>-0.12</ele>
  <time>2026-09-01T01:16:56Z</time>
  <course>91.55</course>
  <speed>0.15</speed>
  <fix>3d</fix>
</trkpt>
<trkpt lat="33.8103154" lon="-118.3938642">
  <ele>-0.128</ele>
  <time>2026-09-01T01:16:56Z</time>
  <course>202.55</course>
  <speed>0.1118033988749895</speed>
  <fix>3d</fix>
</trkpt>
<trkpt lat="33.8103155" lon="-118.3938643">
  <ele>-0.12</ele>
  <time>2026-09-01T01:16:56Z</time>
  <course>99.88</course>
  <speed>0.15</speed>
  <fix>3d</fix>
</trkpt>
<trkpt lat="33.8103154" lon="-118.3938641">
  <ele>-0.127</ele>
  <time>2026-09-01T01:16:56Z</time>
  <course>203.91</course>
  <speed>0.09</speed>
  <fix>3d</fix>
</trkpt>
<trkpt lat="33.8103155" lon="-118.3938643">
  <ele>-0.12</ele>
  <time>2026-09-01T01:16:56Z</time>
  <course>99.88</course>
  <speed>0.15</speed>
  <fix>3d</fix>
</trkpt>
<trkpt lat="33.8103154" lon="-118.393864">
  <ele>-0.127</ele>
  <time>2026-09-01T01:16:56Z</time>
  <course>206.77</course>
  <speed>0.09433981132056603</speed>
  <fix>3d</fix>
</trkpt>
<trkpt lat="33.8103155" lon="-118.393864">
  <ele>-0.12</ele>
  <time>2026-09-01T01:16:56Z</time>
  <course>90.26</course>
  <speed>0.12</speed>
  <fix>3d</fix>
</trkpt>
<trkpt lat="33.8103154" lon="-118.3938639">
  <ele>-0.127</ele>
  <time>2026-09-01T01:16:56Z</time>
  <course>210.18</course>
  <speed>0.10816653826391968</speed>
  <fix>3d</fix>
</trkpt>
<trkpt lat="33.8103155" lon="-118.393864">
  <ele>-0.12</ele>
  <time>2026-09-01T01:16:56Z</time>
  <course>90.26</course>
  <speed>0.12</speed>
  <fix>3d</fix>
</trkpt>
<trkpt lat="33.8103156" lon="-118.3938638">
  <ele>-0.128</ele>
  <time>2026-09-01T01:16:56Z</time>
  <course>213.9</course>
  <speed>0.15524174696260024</speed>
  <fix>3d</fix>
</trkpt>
<trkpt lat="33.8103155" lon="-118.3938638">
  <ele>-0.12</ele>
  <time>2026-09-01T01:16:56Z</time>
  <course>50.58</course>
  <speed>0.11</speed>
  <fix>3d</fix>
</trkpt>
<trkpt lat="33.8103157" lon="-118.3938638">
  <ele>-0.129</ele>
  <time>2026-09-01T01:16:56Z</time>
  <course>217.85</course>
  <speed>0.2009975124224178</speed>
  <fix>3d</fix>
</trkpt>
<trkpt lat="33.8103155" lon="-118.3938638">
  <ele>-0.12</ele>
  <time>2026-09-01T01:16:56Z</time>
  <course>50.58</course>
  <speed>0.11</speed>
  <fix>3d</fix>
</trkpt>
<trkpt lat="33.8103159" lon="-118.3938637">
  <ele>-0.131</ele>
  <time>2026-09-01T01:16:56Z</time>
  <course>222.03</course>
  <speed>0.27018512172212594</speed>
  <fix>3d</fix>
</trkpt>
<trkpt lat="33.8103157" lon="-118.3938636">
  <ele>-0.13</ele>
  <time>2026-09-01T01:16:56Z</time>
  <course>15.98</course>
  <speed>0.17</speed>
  <fix>3d</fix>
</trkpt>
<trkpt lat="33.8103162" lon="-118.3938637">
  <ele>-0.132</ele>
  <time>2026-09-01T01:16:56Z</time>
  <course>224.52</course>
  <speed>0.24020824298928628</speed>
  <fix>3d</fix>
</trkpt>
<trkpt lat="33.8103157" lon="-118.3938636">
  <ele>-0.13</ele>
  <time>2026-09-01T01:16:56Z</time>
  <course>15.98</course>
  <speed>0.17</speed>
  <fix>3d</fix>
</trkpt>
<trkpt lat="33.8103164" lon="-118.3938637">
  <ele>-0.133</ele>
  <time>2026-09-01T01:16:56Z</time>
  <course>225.64</course>
  <speed>0.22022715545545238</speed>
  <fix>3d</fix>
</trkpt>
<trkpt lat="33.8103161" lon="-118.3938636">
  <ele>-0.13</ele>
  <time>2026-09-01T01:16:56Z</time>
  <course>6.08</course>
  <speed>0.23</speed>
  <fix>3d</fix>
</trkpt>
<trkpt lat="33.8103166" lon="-118.3938636">
  <ele>-0.133</ele>
  <time>2026-09-01T01:16:56Z</time>
  <course>226.38</course>
  <speed>0.2</speed>
  <fix>3d</fix>
</trkpt>
<trkpt lat="33.8103161" lon="-118.3938636">
  <ele>-0.13</ele>
  <time>2026-09-01T01:16:56Z</time>
  <course>6.08</course>
  <speed>0.23</speed>
  <fix>3d</fix>
</trkpt>
<trkpt lat="33.8103168" lon="-118.3938636">
  <ele>-0.133</ele>
  <time>2026-09-01T01:16:56Z</time>
  <course>226.92</course>
  <speed>0.19</speed>
  <fix>3d</fix>
</trkpt>
<trkpt lat="33.8103165" lon="-118.3938635">
  <ele>-0.13</ele>
  <time>2026-09-01T01:16:56Z</time>
  <course>4.52</course>
  <speed>0.22</speed>
  <fix>3d</fix>
</trkpt>
<trkpt lat="33.8103169" lon="-118.3938636">
  <ele>-0.132</ele>
  <time>2026-09-01T01:16:56Z</time>
  <course>227.36</course>
  <speed>0.18</speed>
  <fix>3d</fix>
</trkpt>
<trkpt lat="33.8103165" lon="-118.3938635">
  <ele>-0.13</ele>
  <time>2026-09-01T01:16:56Z</time>
  <course>4.52</course>
  <speed>0.22</speed>
  <fix>3d</fix>
</trkpt>
<trkpt lat="33.8103171" lon="-118.3938636">
  <ele>-0.13</ele>
  <time>2026-09-01T01:16:56Z</time>
  <course>227.72</course>
  <speed>0.16</speed>
  <fix>3d</fix>
</trkpt>
<trkpt lat="33.8103169" lon="-118.3938635">
  <ele>-0.13</ele>
  <time>2026-09-01T01:16:56Z</time>
  <course>4.87</course>
  <speed>0.19</speed>
  <fix>3d</fix>
</trkpt>
<trkpt lat="33.8103172" lon="-118.3938636">
  <ele>-0.128</ele>
  <time>2026-09-01T01:16:56Z</time>
  <course>228.03</course>
  <speed>0.15</speed>
  <fix>3d</fix>
</trkpt>
<trkpt lat="33.8103169" lon="-118.3938635">
  <ele>-0.13</ele>
  <time>2026-09-01T01:16:56Z</time>
  <course>4.87</course>
  <speed>0.19</speed>
  <fix>3d</fix>
</trkpt>
<trkpt lat="33.8103174" lon="-118.3938636">
  <ele>-0.126</ele>
  <time>2026-09-01T01:16:56Z</time>
  <course>228.3</course>
  <speed>0.15</speed>
  <fix>3d</fix>
</trkpt>
<trkpt lat="33.8103172" lon="-118.3938634">
  <ele>-0.13</ele>
  <time>2026-09-01T01:16:56Z</time>
  <course>5.26</course>
  <speed>0.17</speed>
  <fix>3d</fix>
</trkpt>
<trkpt lat="33.8103175" lon="-118.3938636">
  <ele>-0.124</ele>
  <time>2026-09-01T01:16:56Z</time>
  <course>228.54</course>
  <speed>0.14</speed>
  <fix>3d</fix>
</trkpt>
<trkpt lat="33.8103172" lon="-118.3938634">
  <ele>-0.13</ele>
  <time>2026-09-01T01:16:56Z</time>
  <course>5.26</course>
  <speed>0.17</speed>
  <fix>3d</fix>
</trkpt>
<trkpt lat="33.8103176" lon="-118.3938635">
  <ele>-0.122</ele>
  <time>2026-09-01T01:16:56Z</time>
  <course>228.76</course>
  <speed>0.13</speed>
  <fix>3d</fix>
</trkpt>
<trkpt lat="33.8103175" lon="-118.3938634">
  <ele>-0.12</ele>
  <time>2026-09-01T01:16:56Z</time>
  <course>5.64</course>
  <speed>0.15</speed>
  <fix>3d</fix>
</trkpt>
<trkpt lat="33.8103178" lon="-118.3938635">
  <ele>-0.121</ele>
  <time>2026-09-01T01:16:56Z</time>
  <course>228.95</course>
  <speed>0.13</speed>
  <fix>3d</fix>
</trkpt>
<trkpt lat="33.8103175" lon="-118.3938634">
  <ele>-0.12</ele>
  <time>2026-09-01T01:16:56Z</time>
  <course>5.64</course>
  <speed>0.15</speed>
  <fix>3d</fix>
</trkpt>
<trkpt lat="33.8103179" lon="-118.3938635">
  <ele>-0.122</ele>
  <time>2026-09-01T01:16:56Z</time>
  <course>229.13</course>
  <speed>0.12</speed>
  <fix>3d</fix>
</trkpt>
<trkpt lat="33.8103178" lon="-118.3938634">
  <ele>-0.11</ele>
  <time>2026-09-01T01:16:56Z</time>
  <course>6.0</course>
  <speed>0.13</speed>
  <fix>3d</fix>
</trkpt>
<trkpt lat="33.810318" lon="-118.3938635">
  <ele>-0.125</ele>
  <time>2026-09-01T01:16:56Z</time>
  <course>229.3</course>
  <speed>0.12</speed>
  <fix>3d</fix>
</trkpt>
<trkpt lat="33.8103178" lon="-118.3938634">
  <ele>-0.11</ele>
  <time>2026-09-01T01:16:56Z</time>
  <course>6.0</course>
  <speed>0.13</speed>
  <fix>3d</fix>
</trkpt>
<trkpt lat="33.8103181" lon="-118.3938635">
  <ele>-0.129</ele>
  <time>2026-09-01T01:16:56Z</time>
  <course>229.45</course>
  <speed>0.11</speed>
  <fix>3d</fix>
</trkpt>
<trkpt lat="33.810318" lon="-118.3938634">
  <ele>-0.11</ele>
  <time>2026-09-01T01:16:56Z</time>
  <course>6.34</course>
  <speed>0.12</speed>
  <fix>3d</fix>
</trkpt>
<trkpt lat="33.8103182" lon="-118.3938635">
  <ele>-0.133</ele>
  <time>2026-09-01T01:16:56Z</time>
  <course>229.59</course>
  <speed>0.11</speed>
  <fix>3d</fix>
</trkpt>
<trkpt lat="33.810318" lon="-118.3938634">
  <ele>-0.11</ele>
  <time>2026-09-01T01:16:56Z</time>
  <course>6.34</course>
  <speed>0.12</speed>
  <fix>3d</fix>
</trkpt>
<trkpt lat="33.8103183" lon="-118.3938635">
  <ele>-0.137</ele>
  <time>2026-09-01T01:16:56Z</time>
  <course>229.72</course>
  <speed>0.1</speed>
  <fix>3d</fix>
</trkpt>
<trkpt lat="33.8103183" lon="-118.3938633">
  <ele>-0.12</ele>
  <time>2026-09-01T01:16:56Z</time>
  <course>6.64</course>
  <speed>0.11</speed>
  <fix>3d</fix>
</trkpt>
<trkpt lat="33.8103184" lon="-118.3938635">
  <ele>-0.14</ele>
  <time>2026-09-01T01:16:56Z</time>
  <course>229.85</course>
  <speed>0.1</speed>
  <fix>3d</fix>
</trkpt>
<trkpt lat="33.8103183" lon="-118.3938633">
  <ele>-0.12</ele>
  <time>2026-09-01T01:16:56Z</time>
  <course>6.64</course>
  <speed>0.11</speed>
  <fix>3d</fix>
</trkpt>
<trkpt lat="33.8103185" lon="-118.3938635">
  <ele>-0.143</ele>
  <time>2026-09-01T01:16:56Z</time>
  <course>229.97</course>
  <speed>0.1004987562112089</speed>
  <fix>3d</fix>
</trkpt>
<trkpt lat="33.8103184" lon="-118.3938633">
  <ele>-0.12</ele>
  <time>2026-09-01T01:16:56Z</time>
  <course>6.92</course>
  <speed>0.1</speed>
  <fix>3d</fix>
</trkpt>
<trkpt lat="33.8103186" lon="-118.3938635">
  <ele>-0.144</ele>
  <time>2026-09-01T01:16:56Z</time>
  <course>230.08</course>
  <speed>0.1004987562112089</speed>
  <fix>3d</fix>
</trkpt>
<trkpt lat="33.8103184" lon="-118.3938633">
  <ele>-0.12</ele>
  <time>2026-09-01T01:16:56Z</time>
  <course>6.92</course>
  <speed>0.1</speed>
  <fix>3d</fix>
</trkpt>
<trkpt lat="33.8103187" lon="-118.3938635">
  <ele>-0.144</ele>
  <time>2026-09-01T01:16:56Z</time>
  <course>230.19</course>
  <speed>0.09055385138137417</speed>
  <fix>3d</fix>
</trkpt>
<trkpt lat="33.8103186" lon="-118.3938633">
  <ele>-0.13</ele>
  <time>2026-09-01T01:16:56Z</time>
  <course>7.17</course>
  <speed>0.09</speed>
  <fix>3d</fix>
</trkpt>
<trkpt lat="33.8103188" lon="-118.3938635">
  <ele>-0.143</ele>
  <time>2026-09-01T01:16:56Z</time>
  <course>230.29</course>
  <speed>0.09055385138137417</speed>
  <fix>3d</fix>
</trkpt>
<trkpt lat="33.8103186" lon="-118.3938633">
  <ele>-0.13</ele>
  <time>2026-09-01T01:16:56Z</time>
  <course>7.17</course>
  <speed>0.09</speed>
  <fix>3d</fix>
</trkpt>
<trkpt lat="33.8103189" lon="-118.3938635">
  <ele>-0.142</ele>
  <time>2026-09-01T01:16:56Z</time>
  <course>230.38</course>
  <speed>0.09055385138137417</speed>
  <fix>3d</fix>
</trkpt>
<trkpt lat="33.8103188" lon="-118.3938632">
  <ele>-0.13</ele>
  <time>2026-09-01T01:16:56Z</time>
  <course>7.41</course>
  <speed>0.09</speed>
  <fix>3d</fix>
</trkpt>
<trkpt lat="33.8103189" lon="-118.3938635">
  <ele>-0.139</ele>
  <time>2026-09-01T01:16:56Z</time>
  <course>230.48</course>
  <speed>0.09055385138137417</speed>
  <fix>3d</fix>
</trkpt>
<trkpt lat="33.8103188" lon="-118.3938632">
  <ele>-0.13</ele>
  <time>2026-09-01T01:16:56Z</time>
  <course>7.41</course>
  <speed>0.09</speed>
  <fix>3d</fix>
</trkpt>
<trkpt lat="33.810319" lon="-118.3938635">
  <ele>-0.135</ele>
  <time>2026-09-01T01:16:56Z</time>
  <course>230.56</course>
  <speed>0.09055385138137417</speed>
  <fix>3d</fix>
</trkpt>
<trkpt lat="33.8103189" lon="-118.3938632">
  <ele>-0.13</ele>
  <time>2026-09-01T01:16:56Z</time>
  <course>7.64</course>
  <speed>0.08</speed>
  <fix>3d</fix>
</trkpt>
<trkpt lat="33.8103191" lon="-118.3938634">
  <ele>-0.13</ele>
  <time>2026-09-01T01:16:56Z</time>
  <course>230.65</course>
  <speed>0.08062257748298549</speed>
  <fix>3d</fix>
</trkpt>
<trkpt lat="33.8103189" lon="-118.3938632">
  <ele>-0.13</ele>
  <time>2026-09-01T01:16:56Z</time>
  <course>7.64</course>
  <speed>0.08</speed>
  <fix>3d</fix>
</trkpt>
<trkpt lat="33.8103192" lon="-118.3938634">
  <ele>-0.124</ele>
  <time>2026-09-01T01:16:57Z</time>
  <course>230.73</course>
  <speed>0.08062257748298549</speed>
  <fix>3d</fix>
</trkpt>
<trkpt lat="33.8103191" lon="-118.3938632">
  <ele>-0.12</ele>
  <time>2026-09-01T01:16:57Z</time>
  <course>7.85</course>
  <speed>0.08</speed>
  <fix>3d</fix>
</trkpt>
<trkpt lat="33.8103193" lon="-118.3938634">
  <ele>-0.12</ele>
  <time>2026-09-01T01:16:57Z</time>
  <course>230.81</course>
  <speed>0.08062257748298549</speed>
  <fix>3d</fix>
</trkpt>
<trkpt lat="33.8103191" lon="-118.3938632">
  <ele>-0.12</ele>
  <time>2026-09-01T01:16:57Z</time>
  <course>7.85</course>
  <speed>0.08</speed>
  <fix>3d</fix>
</trkpt>
<trkpt lat="33.8103193" lon="-118.3938634">
  <ele>-0.117</ele>
  <time>2026-09-01T01:16:57Z</time>
  <course>230.88</course>
  <speed>0.08062257748298549</speed>
  <fix>3d</fix>
</trkpt>
<trkpt lat="33.8103192" lon="-118.3938632">
  <ele>-0.12</ele>
  <time>2026-09-01T01:16:57Z</time>
  <course>8.05</course>
  <speed>0.07</speed>
  <fix>3d</fix>
</trkpt>
<trkpt lat="33.8103194" lon="-118.3938634">
  <ele>-0.116</ele>
  <time>2026-09-01T01:16:57Z</time>
  <course>230.96</course>
  <speed>0.08062257748298549</speed>
  <fix>3d</fix>
</trkpt>
<trkpt lat="33.8103192" lon="-118.3938632">
  <ele>-0.12</ele>
  <time>2026-09-01T01:16:57Z</time>
  <course>8.05</course>
  <speed>0.07</speed>
  <fix>3d</fix>
</trkpt>
<trkpt lat="33.8103197" lon="-118.3938634">
  <ele>-0.125</ele>
  <time>2026-09-01T01:16:57Z</time>
  <course>231.22</course>
  <speed>0.07071067811865475</speed>
  <fix>3d</fix>
</trkpt>
<trkpt lat="33.8103195" lon="-118.3938631">
  <ele>-0.12</ele>
  <time>2026-09-01T01:16:57Z</time>
  <course>8.4</course>
  <speed>0.06</speed>
  <fix>3d</fix>
</trkpt>
<trkpt lat="33.8103198" lon="-118.3938633">
  <ele>-0.129</ele>
  <time>2026-09-01T01:16:57Z</time>
  <course>231.41</course>
  <speed>0.07</speed>
  <fix>3d</fix>
</trkpt>
<trkpt lat="33.8103197" lon="-118.3938631">
  <ele>-0.13</ele>
  <time>2026-09-01T01:16:57Z</time>
  <course>8.71</course>
  <speed>0.06</speed>
  <fix>3d</fix>
</trkpt>
<trkpt lat="33.8103199" lon="-118.3938633">
  <ele>-0.128</ele>
  <time>2026-09-01T01:16:57Z</time>
  <course>231.46</course>
  <speed>0.07</speed>
  <fix>3d</fix>
</trkpt>
<trkpt lat="33.8103197" lon="-118.3938631">
  <ele>-0.13</ele>
  <time>2026-09-01T01:16:57Z</time>
  <course>8.71</course>
  <speed>0.06</speed>
  <fix>3d</fix>
</trkpt>
<trkpt lat="33.8103199" lon="-118.3938633">
  <ele>-0.128</ele>
  <time>2026-09-01T01:16:57Z</time>
  <course>231.52</course>
  <speed>0.07</speed>
  <fix>3d</fix>
</trkpt>
<trkpt lat="33.8103198" lon="-118.3938631">
  <ele>-0.13</ele>
  <time>2026-09-01T01:16:57Z</time>
  <course>8.87</course>
  <speed>0.05</speed>
  <fix>3d</fix>
</trkpt>
<trkpt lat="33.81032" lon="-118.3938633">
  <ele>-0.127</ele>
  <time>2026-09-01T01:16:57Z</time>
  <course>231.57</course>
  <speed>0.07</speed>
  <fix>3d</fix>
</trkpt>
<trkpt lat="33.8103198" lon="-118.3938631">
  <ele>-0.13</ele>
  <time>2026-09-01T01:16:57Z</time>
  <course>8.87</course>
  <speed>0.05</speed>
  <fix>3d</fix>
</trkpt>
<trkpt lat="33.8103201" lon="-118.3938633">
  <ele>-0.125</ele>
  <time>2026-09-01T01:16:57Z</time>
  <course>231.62</course>
  <speed>0.07</speed>
  <fix>3d</fix>
</trkpt>
<trkpt lat="33.8103199" lon="-118.3938631">
  <ele>-0.13</ele>
  <time>2026-09-01T01:16:57Z</time>
  <course>9.01</course>
  <speed>0.05</speed>
  <fix>3d</fix>
</trkpt>
<trkpt lat="33.8103201" lon="-118.3938633">
  <ele>-0.124</ele>
  <time>2026-09-01T01:16:57Z</time>
  <course>231.68</course>
  <speed>0.07</speed>
  <fix>3d</fix>
</trkpt>
<trkpt lat="33.8103199" lon="-118.3938631">
  <ele>-0.13</ele>
  <time>2026-09-01T01:16:57Z</time>
  <course>9.01</course>
  <speed>0.05</speed>
  <fix>3d</fix>
</trkpt>
<trkpt lat="33.8103202" lon="-118.3938633">
  <ele>-0.121</ele>
  <time>2026-09-01T01:16:57Z</time>
  <course>231.73</course>
  <speed>0.07</speed>
  <fix>3d</fix>
</trkpt>
<trkpt lat="33.81032" lon="-118.393863">
  <ele>-0.12</ele>
  <time>2026-09-01T01:16:57Z</time>
  <course>9.15</course>
  <speed>0.05</speed>
  <fix>3d</fix>
</trkpt>
<trkpt lat="33.8103202" lon="-118.3938632">
  <ele>-0.118</ele>
  <time>2026-09-01T01:16:57Z</time>
  <course>231.77</course>
  <speed>0.07</speed>
  <fix>3d</fix>
</trkpt>
<trkpt lat="33.81032" lon="-118.393863">
  <ele>-0.12</ele>
  <time>2026-09-01T01:16:57Z</time>
  <course>9.15</course>
  <speed>0.05</speed>
  <fix>3d</fix>
</trkpt>
<trkpt lat="33.8103202" lon="-118.3938632">
  <ele>-0.116</ele>
  <time>2026-09-01T01:16:57Z</time>
  <course>231.82</course>
  <speed>0.07</speed>
  <fix>3d</fix>
</trkpt>
<trkpt lat="33.8103201" lon="-118.393863">
  <ele>-0.12</ele>
  <time>2026-09-01T01:16:57Z</time>
  <course>9.27</course>
  <speed>0.05</speed>
  <fix>3d</fix>
</trkpt>
<trkpt lat="33.8103203" lon="-118.3938632">
  <ele>-0.116</ele>
  <time>2026-09-01T01:16:57Z</time>
  <course>231.87</course>
  <speed>0.07</speed>
  <fix>3d</fix>
</trkpt>
<trkpt lat="33.8103201" lon="-118.393863">
  <ele>-0.12</ele>
  <time>2026-09-01T01:16:57Z</time>
  <course>9.27</course>
  <speed>0.05</speed>
  <fix>3d</fix>
</trkpt>
<trkpt lat="33.8103203" lon="-118.3938632">
  <ele>-0.118</ele>
  <time>2026-09-01T01:16:57Z</time>
  <course>231.92</course>
  <speed>0.06</speed>
  <fix>3d</fix>
</trkpt>
<trkpt lat="33.8103202" lon="-118.393863">
  <ele>-0.12</ele>
  <time>2026-09-01T01:16:57Z</time>
  <course>9.38</course>
  <speed>0.05</speed>
  <fix>3d</fix>
</trkpt>
<trkpt lat="33.8103204" lon="-118.3938632">
  <ele>-0.121</ele>
  <time>2026-09-01T01:16:57Z</time>
  <course>231.96</course>
  <speed>0.06</speed>
  <fix>3d</fix>
</trkpt>
<trkpt lat="33.8103202" lon="-118.393863">
  <ele>-0.12</ele>
  <time>2026-09-01T01:16:57Z</time>
  <course>9.38</course>
  <speed>0.05</speed>
  <fix>3d</fix>
</trkpt>
<trkpt lat="33.8103204" lon="-118.3938632">
  <ele>-0.125</ele>
  <time>2026-09-01T01:16:57Z</time>
  <course>232.0</course>
  <speed>0.06</speed>
  <fix>3d</fix>
</trkpt>
<trkpt lat="33.8103203" lon="-118.393863">
  <ele>-0.12</ele>
  <time>2026-09-01T01:16:57Z</time>
  <course>9.49</course>
  <speed>0.04</speed>
  <fix>3d</fix>
</trkpt>
<trkpt lat="33.8103205" lon="-118.3938631">
  <ele>-0.127</ele>
  <time>2026-09-01T01:16:57Z</time>
  <course>232.05</course>
  <speed>0.06</speed>
  <fix>3d</fix>
</trkpt>
<trkpt lat="33.8103203" lon="-118.393863">
  <ele>-0.12</ele>
  <time>2026-09-01T01:16:57Z</time>
  <course>9.49</course>
  <speed>0.04</speed>
  <fix>3d</fix>
</trkpt>
<trkpt lat="33.8103205" lon="-118.3938631">
  <ele>-0.129</ele>
  <time>2026-09-01T01:16:57Z</time>
  <course>232.09</course>
  <speed>0.06</speed>
  <fix>3d</fix>
</trkpt>
<trkpt lat="33.8103204" lon="-118.393863">
  <ele>-0.12</ele>
  <time>2026-09-01T01:16:57Z</time>
  <course>9.61</course>
  <speed>0.04</speed>
  <fix>3d</fix>
</trkpt>
<trkpt lat="33.8103206" lon="-118.3938631">
  <ele>-0.13</ele>
  <time>2026-09-01T01:16:57Z</time>
  <course>232.13</course>
  <speed>0.06</speed>
  <fix>3d</fix>
</trkpt>
<trkpt lat="33.8103204" lon="-118.393863">
  <ele>-0.12</ele>
  <time>2026-09-01T01:16:57Z</time>
  <course>9.61</course>
  <speed>0.04</speed>
  <fix>3d</fix>
</trkpt>
<trkpt lat="33.8103206" lon="-118.3938631">
  <ele>-0.132</ele>
  <time>2026-09-01T01:16:57Z</time>
  <course>232.17</course>
  <speed>0.06</speed>
  <fix>3d</fix>
</trkpt>
<trkpt lat="33.8103204" lon="-118.3938629">
  <ele>-0.13</ele>
  <time>2026-09-01T01:16:57Z</time>
  <course>9.72</course>
  <speed>0.04</speed>
  <fix>3d</fix>
</trkpt>
<trkpt lat="33.8103207" lon="-118.3938631">
  <ele>-0.133</ele>
  <time>2026-09-01T01:16:57Z</time>
  <course>232.21</course>
  <speed>0.06</speed>
  <fix>3d</fix>
</trkpt>
<trkpt lat="33.8103204" lon="-118.3938629">
  <ele>-0.13</ele>
  <time>2026-09-01T01:16:57Z</time>
  <course>9.72</course>
  <speed>0.04</speed>
  <fix>3d</fix>
</trkpt>
<trkpt lat="33.8103207" lon="-118.3938631">
  <ele>-0.134</ele>
  <time>2026-09-01T01:16:57Z</time>
  <course>232.25</course>
  <speed>0.06</speed>
  <fix>3d</fix>
</trkpt>
<trkpt lat="33.8103205" lon="-118.3938628">
  <ele>-0.13</ele>
  <time>2026-09-01T01:16:57Z</time>
  <course>9.83</course>
  <speed>0.04</speed>
  <fix>3d</fix>
</trkpt>
<trkpt lat="33.8103207" lon="-118.393863">
  <ele>-0.134</ele>
  <time>2026-09-01T01:16:57Z</time>
  <course>232.29</course>
  <speed>0.06</speed>
  <fix>3d</fix>
</trkpt>
<trkpt lat="33.8103205" lon="-118.3938628">
  <ele>-0.13</ele>
  <time>2026-09-01T01:16:57Z</time>
  <course>9.83</course>
  <speed>0.04</speed>
  <fix>3d</fix>
</trkpt>
<trkpt lat="33.8103208" lon="-118.393863">
  <ele>-0.133</ele>
  <time>2026-09-01T01:16:57Z</time>
  <course>232.33</course>
  <speed>0.06</speed>
  <fix>3d</fix>
</trkpt>
<trkpt lat="33.8103206" lon="-118.3938628">
  <ele>-0.12</ele>
  <time>2026-09-01T01:16:57Z</time>
  <course>9.93</course>
  <speed>0.04</speed>
  <fix>3d</fix>
</trkpt>
<trkpt lat="33.8103208" lon="-118.393863">
  <ele>-0.132</ele>
  <time>2026-09-01T01:16:57Z</time>
  <course>232.37</course>
  <speed>0.06</speed>
  <fix>3d</fix>
</trkpt>
<trkpt lat="33.8103206" lon="-118.3938628">
  <ele>-0.12</ele>
  <time>2026-09-01T01:16:57Z</time>
  <course>9.93</course>
  <speed>0.04</speed>
  <fix>3d</fix>
</trkpt>
<trkpt lat="33.8103208" lon="-118.393863">
  <ele>-0.131</ele>
  <time>2026-09-01T01:16:57Z</time>
  <course>232.4</course>
  <speed>0.06</speed>
  <fix>3d</fix>
</trkpt>
<trkpt lat="33.8103207" lon="-118.3938628">
  <ele>-0.12</ele>
  <time>2026-09-01T01:16:57Z</time>
  <course>10.01</course>
  <speed>0.04</speed>
  <fix>3d</fix>
</trkpt>
<trkpt lat="33.8103209" lon="-118.393863">
  <ele>-0.132</ele>
  <time>2026-09-01T01:16:57Z</time>
  <course>232.44</course>
  <speed>0.06</speed>
  <fix>3d</fix>
</trkpt>
<trkpt lat="33.8103207" lon="-118.3938628">
  <ele>-0.12</ele>
  <time>2026-09-01T01:16:57Z</time>
  <course>10.01</course>
  <speed>0.04</speed>
  <fix>3d</fix>
</trkpt>
<trkpt lat="33.8103209" lon="-118.3938629">
  <ele>-0.134</ele>
  <time>2026-09-01T01:16:57Z</time>
  <course>232.47</course>
  <speed>0.06</speed>
  <fix>3d</fix>
</trkpt>
<trkpt lat="33.8103208" lon="-118.3938628">
  <ele>-0.12</ele>
  <time>2026-09-01T01:16:57Z</time>
  <course>10.1</course>
  <speed>0.04</speed>
  <fix>3d</fix>
</trkpt>
<trkpt lat="33.810321" lon="-118.3938629">
  <ele>-0.136</ele>
  <time>2026-09-01T01:16:57Z</time>
  <course>232.51</course>
  <speed>0.06</speed>
  <fix>3d</fix>
</trkpt>
<trkpt lat="33.8103208" lon="-118.3938628">
  <ele>-0.12</ele>
  <time>2026-09-01T01:16:57Z</time>
  <course>10.1</course>
  <speed>0.04</speed>
  <fix>3d</fix>
</trkpt>
<trkpt lat="33.810321" lon="-118.3938629">
  <ele>-0.139</ele>
  <time>2026-09-01T01:16:57Z</time>
  <course>232.54</course>
  <speed>0.06</speed>
  <fix>3d</fix>
</trkpt>
<trkpt lat="33.8103208" lon="-118.3938628">
  <ele>-0.12</ele>
  <time>2026-09-01T01:16:57Z</time>
  <course>10.18</course>
  <speed>0.03</speed>
  <fix>3d</fix>
</trkpt>
<trkpt lat="33.810321" lon="-118.3938629">
  <ele>-0.141</ele>
  <time>2026-09-01T01:16:57Z</time>
  <course>232.58</course>
  <speed>0.06</speed>
  <fix>3d</fix>
</trkpt>
<trkpt lat="33.8103208" lon="-118.3938628">
  <ele>-0.12</ele>
  <time>2026-09-01T01:16:57Z</time>
  <course>10.18</course>
  <speed>0.03</speed>
  <fix>3d</fix>
</trkpt>
<trkpt lat="33.8103211" lon="-118.3938629">
  <ele>-0.141</ele>
  <time>2026-09-01T01:16:57Z</time>
  <course>232.61</course>
  <speed>0.06</speed>
  <fix>3d</fix>
</trkpt>
<trkpt lat="33.8103209" lon="-118.3938628">
  <ele>-0.12</ele>
  <time>2026-09-01T01:16:57Z</time>
  <course>10.27</course>
  <speed>0.03</speed>
  <fix>3d</fix>
</trkpt>
<trkpt lat="33.8103211" lon="-118.3938629">
  <ele>-0.141</ele>
  <time>2026-09-01T01:16:57Z</time>
  <course>232.64</course>
  <speed>0.06</speed>
  <fix>3d</fix>
</trkpt>
<trkpt lat="33.8103209" lon="-118.3938628">
  <ele>-0.12</ele>
  <time>2026-09-01T01:16:57Z</time>
  <course>10.27</course>
  <speed>0.03</speed>
  <fix>3d</fix>
</trkpt>
<trkpt lat="33.8103211" lon="-118.3938628">
  <ele>-0.141</ele>
  <time>2026-09-01T01:16:57Z</time>
  <course>232.68</course>
  <speed>0.06</speed>
  <fix>3d</fix>
</trkpt>
<trkpt lat="33.810321" lon="-118.3938628">
  <ele>-0.12</ele>
  <time>2026-09-01T01:16:57Z</time>
  <course>10.37</course>
  <speed>0.03</speed>
  <fix>3d</fix>
</trkpt>
<trkpt lat="33.8103212" lon="-118.3938628">
  <ele>-0.141</ele>
  <time>2026-09-01T01:16:57Z</time>
  <course>232.71</course>
  <speed>0.06</speed>
  <fix>3d</fix>
</trkpt>
<trkpt lat="33.810321" lon="-118.3938628">
  <ele>-0.12</ele>
  <time>2026-09-01T01:16:57Z</time>
  <course>10.37</course>
  <speed>0.03</speed>
  <fix>3d</fix>
</trkpt>
<trkpt lat="33.8103212" lon="-118.3938628">
  <ele>-0.14</ele>
  <time>2026-09-01T01:16:57Z</time>
  <course>232.74</course>
  <speed>0.06</speed>
  <fix>3d</fix>
</trkpt>
<trkpt lat="33.810321" lon="-118.3938628">
  <ele>-0.13</ele>
  <time>2026-09-01T01:16:57Z</time>
  <course>10.45</course>
  <speed>0.03</speed>
  <fix>3d</fix>
</trkpt>
<trkpt lat="33.8103212" lon="-118.3938628">
  <ele>-0.138</ele>
  <time>2026-09-01T01:16:57Z</time>
  <course>232.77</course>
  <speed>0.06</speed>
  <fix>3d</fix>
</trkpt>
<trkpt lat="33.810321" lon="-118.3938628">
  <ele>-0.13</ele>
  <time>2026-09-01T01:16:57Z</time>
  <course>10.45</course>
  <speed>0.03</speed>
  <fix>3d</fix>
</trkpt>
<trkpt lat="33.8103213" lon="-118.3938628">
  <ele>-0.135</ele>
  <time>2026-09-01T01:16:57Z</time>
  <course>232.8</course>
  <speed>0.06</speed>
  <fix>3d</fix>
</trkpt>
<trkpt lat="33.8103211" lon="-118.3938628">
  <ele>-0.12</ele>
  <time>2026-09-01T01:16:57Z</time>
  <course>10.52</course>
  <speed>0.03</speed>
  <fix>3d</fix>
</trkpt>
<trkpt lat="33.8103213" lon="-118.3938628">
  <ele>-0.132</ele>
  <time>2026-09-01T01:16:57Z</time>
  <course>232.83</course>
  <speed>0.06</speed>
  <fix>3d</fix>
</trkpt>
<trkpt lat="33.8103211" lon="-118.3938628">
  <ele>-0.12</ele>
  <time>2026-09-01T01:16:57Z</time>
  <course>10.52</course>
  <speed>0.03</speed>
  <fix>3d</fix>
</trkpt>
<trkpt lat="33.8103213" lon="-118.3938628">
  <ele>-0.13</ele>
  <time>2026-09-01T01:16:57Z</time>
  <course>232.24</course>
  <speed>0.05</speed>
  <fix>3d</fix>
</trkpt>
<trkpt lat="33.8103212" lon="-118.3938628">
  <ele>-0.12</ele>
  <time>2026-09-01T01:16:57Z</time>
  <course>10.6</course>
  <speed>0.03</speed>
  <fix>3d</fix>
</trkpt>
<trkpt lat="33.8103214" lon="-118.3938628">
  <ele>-0.128</ele>
  <time>2026-09-01T01:16:57Z</time>
  <course>229.96</course>
  <speed>0.04</speed>
  <fix>3d</fix>
</trkpt>
<trkpt lat="33.8103212" lon="-118.3938628">
  <ele>-0.12</ele>
  <time>2026-09-01T01:16:57Z</time>
  <course>10.6</course>
  <speed>0.03</speed>
  <fix>3d</fix>
</trkpt>
<trkpt lat="33.8103214" lon="-118.3938628">
  <ele>-0.129</ele>
  <time>2026-09-01T01:16:57Z</time>
  <course>226.87</course>
  <speed>0.04</speed>
  <fix>3d</fix>
</trkpt>
<trkpt lat="33.8103212" lon="-118.3938628">
  <ele>-0.12</ele>
  <time>2026-09-01T01:16:57Z</time>
  <course>11.38</course>
  <speed>0.02</speed>
  <fix>3d</fix>
</trkpt>
<trkpt lat="33.8103214" lon="-118.3938628">
  <ele>-0.133</ele>
  <time>2026-09-01T01:16:57Z</time>
  <course>223.39</course>
  <speed>0.03</speed>
  <fix>3d</fix>
</trkpt>
<trkpt lat="33.8103212" lon="-118.3938628">
  <ele>-0.12</ele>
  <time>2026-09-01T01:16:57Z</time>
  <course>11.38</course>
  <speed>0.02</speed>
  <fix>3d</fix>
</trkpt>
<trkpt lat="33.8103214" lon="-118.3938628">
  <ele>-0.139</ele>
  <time>2026-09-01T01:16:57Z</time>
  <course>219.66</course>
  <speed>0.03</speed>
  <fix>3d</fix>
</trkpt>
<trkpt lat="33.8103213" lon="-118.3938628">
  <ele>-0.12</ele>
  <time>2026-09-01T01:16:57Z</time>
  <course>14.07</course>
  <speed>0.01</speed>
  <fix>3d</fix>
</trkpt>
<trkpt lat="33.8103214" lon="-118.3938628">
  <ele>-0.15</ele>
  <time>2026-09-01T01:16:57Z</time>
  <course>215.93</course>
  <speed>0.03</speed>
  <fix>3d</fix>
</trkpt>
<trkpt lat="33.8103213" lon="-118.3938628">
  <ele>-0.12</ele>
  <time>2026-09-01T01:16:57Z</time>
  <course>14.07</course>
  <speed>0.01</speed>
  <fix>3d</fix>
</trkpt>
<trkpt lat="33.8103214" lon="-118.3938628">
  <ele>-0.165</ele>
  <time>2026-09-01T01:16:57Z</time>
  <course>212.7</course>
  <speed>0.02</speed>
  <fix>3d</fix>
</trkpt>
<trkpt lat="33.8103213" lon="-118.3938628">
  <ele>-0.13</ele>
  <time>2026-09-01T01:16:57Z</time>
  <course>23.78</course>
  <speed>0.0</speed>
  <fix>3d</fix>
</trkpt>
<trkpt lat="33.8103214" lon="-118.3938628">
  <ele>-0.187</ele>
  <time>2026-09-01T01:16:57Z</time>
  <course>210.01</course>
  <speed>0.02</speed>
  <fix>3d</fix>
</trkpt>
<trkpt lat="33.8103213" lon="-118.3938628">
  <ele>-0.13</ele>
  <time>2026-09-01T01:16:57Z</time>
  <course>23.78</course>
  <speed>0.0</speed>
  <fix>3d</fix>
</trkpt>
<trkpt lat="33.8103214" lon="-118.3938628">
  <ele>-0.216</ele>
  <time>2026-09-01T01:16:57Z</time>
  <course>207.71</course>
  <speed>0.02</speed>
  <fix>3d</fix>
</trkpt>
<trkpt lat="33.8103213" lon="-118.3938628">
  <ele>-0.16</ele>
  <time>2026-09-01T01:16:57Z</time>
  <course>179.7</course>
  <speed>0.0</speed>
  <fix>3d</fix>
</trkpt>
<trkpt lat="33.8103214" lon="-118.3938628">
  <ele>-0.253</ele>
  <time>2026-09-01T01:16:57Z</time>
  <course>205.68</course>
  <speed>0.02</speed>
  <fix>3d</fix>
</trkpt>
<trkpt lat="33.8103213" lon="-118.3938628">
  <ele>-0.16</ele>
  <time>2026-09-01T01:16:57Z</time>
  <course>179.7</course>
  <speed>0.0</speed>
  <fix>3d</fix>
</trkpt>
<trkpt lat="33.8103214" lon="-118.3938628">
  <ele>-0.298</ele>
  <time>2026-09-01T01:16:57Z</time>
  <course>203.87</course>
  <speed>0.02</speed>
  <fix>3d</fix>
</trkpt>
<trkpt lat="33.8103213" lon="-118.3938628">
  <ele>-0.22</ele>
  <time>2026-09-01T01:16:57Z</time>
  <course>192.98</course>
  <speed>0.0</speed>
  <fix>3d</fix>
</trkpt>
<trkpt lat="33.8103214" lon="-118.3938628">
  <ele>-0.349</ele>
  <time>2026-09-01T01:16:57Z</time>
  <course>202.23</course>
  <speed>0.01</speed>
  <fix>3d</fix>
</trkpt>
<trkpt lat="33.8103213" lon="-118.3938628">
  <ele>-0.22</ele>
  <time>2026-09-01T01:16:57Z</time>
  <course>192.98</course>
  <speed>0.0</speed>
  <fix>3d</fix>
</trkpt>
<trkpt lat="33.8103214" lon="-118.3938628">
  <ele>-0.409</ele>
  <time>2026-09-01T01:16:57Z</time>
  <course>200.74</course>
  <speed>0.01</speed>
  <fix>3d</fix>
</trkpt>
<trkpt lat="33.8103213" lon="-118.3938628">
  <ele>-0.3</ele>
  <time>2026-09-01T01:16:57Z</time>
  <course>199.06</course>
  <speed>0.0</speed>
  <fix>3d</fix>
</trkpt>
<trkpt lat="33.8103214" lon="-118.3938628">
  <ele>-0.477</ele>
  <time>2026-09-01T01:16:57Z</time>
  <course>199.41</course>
  <speed>0.01</speed>
  <fix>3d</fix>
</trkpt>
<trkpt lat="33.8103213" lon="-118.3938628">
  <ele>-0.3</ele>
  <time>2026-09-01T01:16:57Z</time>
  <course>199.06</course>
  <speed>0.0</speed>
  <fix>3d</fix>
</trkpt>
<trkpt lat="33.8103214" lon="-118.3938628">
  <ele>-0.553</ele>
  <time>2026-09-01T01:16:57Z</time>
  <course>198.3</course>
  <speed>0.01</speed>
  <fix>3d</fix>
</trkpt>
<trkpt lat="33.8103213" lon="-118.3938628">
  <ele>-0.41</ele>
  <time>2026-09-01T01:16:57Z</time>
  <course>204.77</course>
  <speed>0.01</speed>
  <fix>3d</fix>
</trkpt>
<trkpt lat="33.8103214" lon="-118.3938628">
  <ele>-0.636</ele>
  <time>2026-09-01T01:16:57Z</time>
  <course>197.5</course>
  <speed>0.01</speed>
  <fix>3d</fix>
</trkpt>
<trkpt lat="33.8103213" lon="-118.3938628">
  <ele>-0.41</ele>
  <time>2026-09-01T01:16:57Z</time>
  <course>204.77</course>
  <speed>0.01</speed>
  <fix>3d</fix>
</trkpt>
<trkpt lat="33.8103214" lon="-118.3938628">
  <ele>-0.726</ele>
  <time>2026-09-01T01:16:57Z</time>
  <course>196.91</course>
  <speed>0.01</speed>
  <fix>3d</fix>
</trkpt>
<trkpt lat="33.8103213" lon="-118.3938628">
  <ele>-0.54</ele>
  <time>2026-09-01T01:16:57Z</time>
  <course>208.77</course>
  <speed>0.01</speed>
  <fix>3d</fix>
</trkpt>
<trkpt lat="33.8103214" lon="-118.3938628">
  <ele>-0.82</ele>
  <time>2026-09-01T01:16:57Z</time>
  <course>194.94</course>
  <speed>0.01</speed>
  <fix>3d</fix>
</trkpt>
<trkpt lat="33.8103213" lon="-118.3938628">
  <ele>-0.54</ele>
  <time>2026-09-01T01:16:57Z</time>
  <course>208.77</course>
  <speed>0.01</speed>
  <fix>3d</fix>
</trkpt>
<trkpt lat="33.8103214" lon="-118.3938628">
  <ele>-0.919</ele>
  <time>2026-09-01T01:16:57Z</time>
  <course>194.57</course>
  <speed>0.01</speed>
  <fix>3d</fix>
</trkpt>
<trkpt lat="33.8103213" lon="-118.3938628">
  <ele>-0.7</ele>
  <time>2026-09-01T01:16:57Z</time>
  <course>210.4</course>
  <speed>0.01</speed>
  <fix>3d</fix>
</trkpt>
<trkpt lat="33.8103214" lon="-118.3938628">
  <ele>-1.021</ele>
  <time>2026-09-01T01:16:57Z</time>
  <course>194.25</course>
  <speed>0.01</speed>
  <fix>3d</fix>
</trkpt>
<trkpt lat="33.8103213" lon="-118.3938628">
  <ele>-0.7</ele>
  <time>2026-09-01T01:16:57Z</time>
  <course>210.4</course>
  <speed>0.01</speed>
  <fix>3d</fix>
</trkpt>
<trkpt lat="33.8103214" lon="-118.3938628">
  <ele>-1.127</ele>
  <time>2026-09-01T01:16:57Z</time>
  <course>193.97</course>
  <speed>0.01</speed>
  <fix>3d</fix>
</trkpt>
<trkpt lat="33.8103213" lon="-118.3938628">
  <ele>-0.88</ele>
  <time>2026-09-01T01:16:57Z</time>
  <course>211.12</course>
  <speed>0.01</speed>
  <fix>3d</fix>
</trkpt>
<trkpt lat="33.8103214" lon="-118.3938628">
  <ele>-1.235</ele>
  <time>2026-09-01T01:16:57Z</time>
  <course>193.72</course>
  <speed>0.01</speed>
  <fix>3d</fix>
</trkpt>
<trkpt lat="33.8103213" lon="-118.3938628">
  <ele>-0.88</ele>
  <time>2026-09-01T01:16:57Z</time>
  <course>211.12</course>
  <speed>0.01</speed>
  <fix>3d</fix>
</trkpt>
<trkpt lat="33.8103214" lon="-118.3938628">
  <ele>-1.345</ele>
  <time>2026-09-01T01:16:57Z</time>
  <course>193.5</course>
  <speed>0.01414213562373095</speed>
  <fix>3d</fix>
</trkpt>
<trkpt lat="33.8103212" lon="-118.3938628">
  <ele>-1.07</ele>
  <time>2026-09-01T01:16:57Z</time>
  <course>211.76</course>
  <speed>0.01</speed>
  <fix>3d</fix>
</trkpt>
<trkpt lat="33.8103214" lon="-118.3938628">
  <ele>-1.456</ele>
  <time>2026-09-01T01:16:57Z</time>
  <course>193.29</course>
  <speed>0.01414213562373095</speed>
  <fix>3d</fix>
</trkpt>
<trkpt lat="33.8103212" lon="-118.3938628">
  <ele>-1.07</ele>
  <time>2026-09-01T01:16:57Z</time>
  <course>211.76</course>
  <speed>0.01</speed>
  <fix>3d</fix>
</trkpt>
<trkpt lat="33.8103214" lon="-118.3938628">
  <ele>-1.568</ele>
  <time>2026-09-01T01:16:57Z</time>
  <course>193.11</course>
  <speed>0.01414213562373095</speed>
  <fix>3d</fix>
</trkpt>
<trkpt lat="33.8103212" lon="-118.3938628">
  <ele>-1.28</ele>
  <time>2026-09-01T01:16:57Z</time>
  <course>212.27</course>
  <speed>0.01</speed>
  <fix>3d</fix>
</trkpt>
<trkpt lat="33.8103214" lon="-118.3938628">
  <ele>-1.682</ele>
  <time>2026-09-01T01:16:57Z</time>
  <course>192.93</course>
  <speed>0.01414213562373095</speed>
  <fix>3d</fix>
</trkpt>
<trkpt lat="33.8103212" lon="-118.3938628">
  <ele>-1.28</ele>
  <time>2026-09-01T01:16:57Z</time>
  <course>212.27</course>
  <speed>0.01</speed>
  <fix>3d</fix>
</trkpt>
<trkpt lat="33.8103214" lon="-118.3938628">
  <ele>-1.795</ele>
  <time>2026-09-01T01:16:57Z</time>
  <course>192.77</course>
  <speed>0.01414213562373095</speed>
  <fix>3d</fix>
</trkpt>
<trkpt lat="33.8103212" lon="-118.3938628">
  <ele>-1.49</ele>
  <time>2026-09-01T01:16:57Z</time>
  <course>212.65</course>
  <speed>0.01</speed>
  <fix>3d</fix>
</trkpt>
<trkpt lat="33.8103214" lon="-118.3938628">
  <ele>-1.909</ele>
  <time>2026-09-01T01:16:57Z</time>
  <course>192.65</course>
  <speed>0.01414213562373095</speed>
  <fix>3d</fix>
</trkpt>
<trkpt lat="33.8103212" lon="-118.3938628">
  <ele>-1.49</ele>
  <time>2026-09-01T01:16:57Z</time>
  <course>212.65</course>
  <speed>0.01</speed>
  <fix>3d</fix>
</trkpt>
<trkpt lat="33.8103214" lon="-118.3938628">
  <ele>-2.02</ele>
  <time>2026-09-01T01:16:57Z</time>
  <course>192.62</course>
  <speed>0.01414213562373095</speed>
  <fix>3d</fix>
</trkpt>
<trkpt lat="33.8103212" lon="-118.3938628">
  <ele>-1.71</ele>
  <time>2026-09-01T01:16:57Z</time>
  <course>214.59</course>
  <speed>0.01</speed>
  <fix>3d</fix>
</trkpt>
<trkpt lat="33.8103214" lon="-118.3938628">
  <ele>-2.127</ele>
  <time>2026-09-01T01:16:57Z</time>
  <course>192.62</course>
  <speed>0.01414213562373095</speed>
  <fix>3d</fix>
</trkpt>
<trkpt lat="33.8103212" lon="-118.3938628">
  <ele>-1.71</ele>
  <time>2026-09-01T01:16:57Z</time>
  <course>214.59</course>
  <speed>0.01</speed>
  <fix>3d</fix>
</trkpt>
<trkpt lat="33.8103214" lon="-118.3938628">
  <ele>-2.232</ele>
  <time>2026-09-01T01:16:57Z</time>
  <course>192.67</course>
  <speed>0.01</speed>
  <fix>3d</fix>
</trkpt>
<trkpt lat="33.8103212" lon="-118.3938628">
  <ele>-1.92</ele>
  <time>2026-09-01T01:16:57Z</time>
  <course>217.42</course>
  <speed>0.01</speed>
  <fix>3d</fix>
</trkpt>
<trkpt lat="33.8103214" lon="-118.3938628">
  <ele>-2.333</ele>
  <time>2026-09-01T01:16:57Z</time>
  <course>192.73</course>
  <speed>0.01414213562373095</speed>
  <fix>3d</fix>
</trkpt>
<trkpt lat="33.8103212" lon="-118.3938628">
  <ele>-1.92</ele>
  <time>2026-09-01T01:16:57Z</time>
  <course>217.42</course>
  <speed>0.01</speed>
  <fix>3d</fix>
</trkpt>
<trkpt lat="33.8103214" lon="-118.3938628">
  <ele>-2.43</ele>
  <time>2026-09-01T01:16:57Z</time>
  <course>192.82</course>
  <speed>0.01</speed>
  <fix>3d</fix>
</trkpt>
<trkpt lat="33.8103211" lon="-118.3938628">
  <ele>-2.13</ele>
  <time>2026-09-01T01:16:57Z</time>
  <course>219.09</course>
  <speed>0.01</speed>
  <fix>3d</fix>
</trkpt>
<trkpt lat="33.8103214" lon="-118.3938628">
  <ele>-2.523</ele>
  <time>2026-09-01T01:16:57Z</time>
  <course>192.91</course>
  <speed>0.01</speed>
  <fix>3d</fix>
</trkpt>
<trkpt lat="33.8103211" lon="-118.3938628">
  <ele>-2.13</ele>
  <time>2026-09-01T01:16:57Z</time>
  <course>219.09</course>
  <speed>0.01</speed>
  <fix>3d</fix>
</trkpt>
<trkpt lat="33.8103214" lon="-118.3938628">
  <ele>-2.61</ele>
  <time>2026-09-01T01:16:57Z</time>
  <course>193.0</course>
  <speed>0.01414213562373095</speed>
  <fix>3d</fix>
</trkpt>
<trkpt lat="33.810321" lon="-118.3938628">
  <ele>-2.32</ele>
  <time>2026-09-01T01:16:57Z</time>
  <course>219.89</course>
  <speed>0.01</speed>
  <fix>3d</fix>
</trkpt>
<trkpt lat="33.8103213" lon="-118.3938628">
  <ele>-2.689</ele>
  <time>2026-09-01T01:16:57Z</time>
  <course>193.08</course>
  <speed>0.01414213562373095</speed>
  <fix>3d</fix>
</trkpt>
<trkpt lat="33.810321" lon="-118.3938628">
  <ele>-2.32</ele>
  <time>2026-09-01T01:16:57Z</time>
  <course>219.89</course>
  <speed>0.01</speed>
  <fix>3d</fix>
</trkpt>
<trkpt lat="33.8103213" lon="-118.3938628">
  <ele>-2.76</ele>
  <time>2026-09-01T01:16:57Z</time>
  <course>193.17</course>
  <speed>0.01414213562373095</speed>
  <fix>3d</fix>
</trkpt>
<trkpt lat="33.810321" lon="-118.3938628">
  <ele>-2.49</ele>
  <time>2026-09-01T01:16:57Z</time>
  <course>219.95</course>
  <speed>0.01</speed>
  <fix>3d</fix>
</trkpt>
<trkpt lat="33.8103213" lon="-118.3938628">
  <ele>-2.823</ele>
  <time>2026-09-01T01:16:57Z</time>
  <course>193.24</course>
  <speed>0.01</speed>
  <fix>3d</fix>
</trkpt>
<trkpt lat="33.810321" lon="-118.3938628">
  <ele>-2.49</ele>
  <time>2026-09-01T01:16:57Z</time>
  <course>219.95</course>
  <speed>0.01</speed>
  <fix>3d</fix>
</trkpt>
<trkpt lat="33.8103213" lon="-118.3938628">
  <ele>-2.878</ele>
  <time>2026-09-01T01:16:57Z</time>
  <course>193.32</course>
  <speed>0.01</speed>
  <fix>3d</fix>
</trkpt>
<trkpt lat="33.810321" lon="-118.3938628">
  <ele>-2.63</ele>
  <time>2026-09-01T01:16:57Z</time>
  <course>219.46</course>
  <speed>0.01</speed>
  <fix>3d</fix>
</trkpt>
<trkpt lat="33.8103213" lon="-118.3938628">
  <ele>-2.924</ele>
  <time>2026-09-01T01:16:57Z</time>
  <course>193.4</course>
  <speed>0.01</speed>
  <fix>3d</fix>
</trkpt>
<trkpt lat="33.810321" lon="-118.3938628">
  <ele>-2.63</ele>
  <time>2026-09-01T01:16:57Z</time>
  <course>219.46</course>
  <speed>0.01</speed>
  <fix>3d</fix>
</trkpt>
<trkpt lat="33.8103213" lon="-118.3938628">
  <ele>-2.961</ele>
  <time>2026-09-01T01:16:57Z</time>
  <course>193.47</course>
  <speed>0.01</speed>
  <fix>3d</fix>
</trkpt>
<trkpt lat="33.810321" lon="-118.3938629">
  <ele>-2.75</ele>
  <time>2026-09-01T01:16:57Z</time>
  <course>218.92</course>
  <speed>0.01</speed>
  <fix>3d</fix>
</trkpt>
<trkpt lat="33.8103213" lon="-118.3938628">
  <ele>-2.991</ele>
  <time>2026-09-01T01:16:57Z</time>
  <course>193.54</course>
  <speed>0.01</speed>
  <fix>3d</fix>
</trkpt>
<trkpt lat="33.810321" lon="-118.3938629">
  <ele>-2.75</ele>
  <time>2026-09-01T01:16:57Z</time>
  <course>218.92</course>
  <speed>0.01</speed>
  <fix>3d</fix>
</trkpt>
<trkpt lat="33.8103212" lon="-118.3938628">
  <ele>-3.013</ele>
  <time>2026-09-01T01:16:57Z</time>
  <course>193.61</course>
  <speed>0.01</speed>
  <fix>3d</fix>
</trkpt>
<trkpt lat="33.810321" lon="-118.393863">
  <ele>-2.83</ele>
  <time>2026-09-01T01:16:57Z</time>
  <course>218.49</course>
  <speed>0.01</speed>
  <fix>3d</fix>
</trkpt>
<trkpt lat="33.8103212" lon="-118.3938628">
  <ele>-3.031</ele>
  <time>2026-09-01T01:16:57Z</time>
  <course>193.68</course>
  <speed>0.01</speed>
  <fix>3d</fix>
</trkpt>
<trkpt lat="33.810321" lon="-118.393863">
  <ele>-2.83</ele>
  <time>2026-09-01T01:16:57Z</time>
  <course>218.49</course>
  <speed>0.01</speed>
  <fix>3d</fix>
</trkpt>
<trkpt lat="33.8103212" lon="-118.3938628">
  <ele>-3.043</ele>
  <time>2026-09-01T01:16:57Z</time>
  <course>193.74</course>
  <speed>0.01</speed>
  <fix>3d</fix>
</trkpt>
<trkpt lat="33.810321" lon="-118.393863">
  <ele>-2.88</ele>
  <time>2026-09-01T01:16:57Z</time>
  <course>218.29</course>
  <speed>0.01</speed>
  <fix>3d</fix>
</trkpt>
<trkpt lat="33.8103212" lon="-118.3938628">
  <ele>-3.049</ele>
  <time>2026-09-01T01:16:57Z</time>
  <course>193.8</course>
  <speed>0.01</speed>
  <fix>3d</fix>
</trkpt>
<trkpt lat="33.810321" lon="-118.393863">
  <ele>-2.88</ele>
  <time>2026-09-01T01:16:57Z</time>
  <course>218.29</course>
  <speed>0.01</speed>
  <fix>3d</fix>
</trkpt>
<trkpt lat="33.8103212" lon="-118.3938628">
  <ele>-3.05</ele>
  <time>2026-09-01T01:16:57Z</time>
  <course>193.87</course>
  <speed>0.01</speed>
  <fix>3d</fix>
</trkpt>
<trkpt lat="33.8103209" lon="-118.393863">
  <ele>-2.92</ele>
  <time>2026-09-01T01:16:57Z</time>
  <course>218.21</course>
  <speed>0.01</speed>
  <fix>3d</fix>
</trkpt>
<trkpt lat="33.8103212" lon="-118.3938628">
  <ele>-3.048</ele>
  <time>2026-09-01T01:16:57Z</time>
  <course>193.93</course>
  <speed>0.01</speed>
  <fix>3d</fix>
</trkpt>
<trkpt lat="33.8103209" lon="-118.393863">
  <ele>-2.92</ele>
  <time>2026-09-01T01:16:57Z</time>
  <course>218.21</course>
  <speed>0.01</speed>
  <fix>3d</fix>
</trkpt>
<trkpt lat="33.8103212" lon="-118.3938628">
  <ele>-3.043</ele>
  <time>2026-09-01T01:16:57Z</time>
  <course>193.98</course>
  <speed>0.01</speed>
  <fix>3d</fix>
</trkpt>
<trkpt lat="33.8103209" lon="-118.393863">
  <ele>-2.94</ele>
  <time>2026-09-01T01:16:57Z</time>
  <course>218.11</course>
  <speed>0.01</speed>
  <fix>3d</fix>
</trkpt>
<trkpt lat="33.8103211" lon="-118.3938629">
  <ele>-3.039</ele>
  <time>2026-09-01T01:16:57Z</time>
  <course>194.07</course>
  <speed>0.01</speed>
  <fix>3d</fix>
</trkpt>
<trkpt lat="33.8103209" lon="-118.393863">
  <ele>-2.94</ele>
  <time>2026-09-01T01:16:57Z</time>
  <course>218.11</course>
  <speed>0.01</speed>
  <fix>3d</fix>
</trkpt>
<trkpt lat="33.8103211" lon="-118.3938629">
  <ele>-3.035</ele>
  <time>2026-09-01T01:16:57Z</time>
  <course>194.16</course>
  <speed>0.01</speed>
  <fix>3d</fix>
</trkpt>
<trkpt lat="33.8103209" lon="-118.3938631">
  <ele>-2.95</ele>
  <time>2026-09-01T01:16:57Z</time>
  <course>216.26</course>
  <speed>0.01</speed>
  <fix>3d</fix>
</trkpt>
<trkpt lat="33.8103211" lon="-118.3938629">
  <ele>-3.032</ele>
  <time>2026-09-01T01:16:57Z</time>
  <course>194.72</course>
  <speed>0.03</speed>
  <fix>3d</fix>
</trkpt>
<trkpt lat="33.8103209" lon="-118.3938631">
  <ele>-2.95</ele>
  <time>2026-09-01T01:16:57Z</time>
  <course>216.26</course>
  <speed>0.01</speed>
  <fix>3d</fix>
</trkpt>
<trkpt lat="33.8103211" lon="-118.3938629">
  <ele>-3.031</ele>
  <time>2026-09-01T01:16:57Z</time>
  <course>196.63</course>
  <speed>0.05099019513592785</speed>
  <fix>3d</fix>
</trkpt>
<trkpt lat="33.8103209" lon="-118.3938631">
  <ele>-2.95</ele>
  <time>2026-09-01T01:16:57Z</time>
  <course>255.31</course>
  <speed>0.0</speed>
  <fix>3d</fix>
</trkpt>
<trkpt lat="33.8103212" lon="-118.3938629">
  <ele>-3.031</ele>
  <time>2026-09-01T01:16:57Z</time>
  <course>199.53</course>
  <speed>0.0824621125123532</speed>
  <fix>3d</fix>
</trkpt>
<trkpt lat="33.8103209" lon="-118.3938631">
  <ele>-2.95</ele>
  <time>2026-09-01T01:16:57Z</time>
  <course>255.31</course>
  <speed>0.0</speed>
  <fix>3d</fix>
</trkpt>
<trkpt lat="33.8103212" lon="-118.3938629">
  <ele>-3.033</ele>
  <time>2026-09-01T01:16:57Z</time>
  <course>202.85</course>
  <speed>0.1118033988749895</speed>
  <fix>3d</fix>
</trkpt>
<trkpt lat="33.8103209" lon="-118.3938631">
  <ele>-2.95</ele>
  <time>2026-09-01T01:16:57Z</time>
  <course>15.32</course>
  <speed>0.03</speed>
  <fix>3d</fix>
</trkpt>
<trkpt lat="33.8103212" lon="-118.3938629">
  <ele>-3.035</ele>
  <time>2026-09-01T01:16:57Z</time>
  <course>206.46</course>
  <speed>0.15132745950421556</speed>
  <fix>3d</fix>
</trkpt>
<trkpt lat="33.8103209" lon="-118.3938631">
  <ele>-2.95</ele>
  <time>2026-09-01T01:16:57Z</time>
  <course>15.32</course>
  <speed>0.03</speed>
  <fix>3d</fix>
</trkpt>
<trkpt lat="33.8103214" lon="-118.3938629">
  <ele>-3.039</ele>
  <time>2026-09-01T01:16:57Z</time>
  <course>210.3</course>
  <speed>0.191049731745428</speed>
  <fix>3d</fix>
</trkpt>
<trkpt lat="33.8103209" lon="-118.3938631">
  <ele>-2.96</ele>
  <time>2026-09-01T01:16:57Z</time>
  <course>10.43</course>
  <speed>0.1</speed>
  <fix>3d</fix>
</trkpt>
<trkpt lat="33.8103215" lon="-118.3938629">
  <ele>-3.043</ele>
  <time>2026-09-01T01:16:57Z</time>
  <course>214.35</course>
  <speed>0.24020824298928628</speed>
  <fix>3d</fix>
</trkpt>
<trkpt lat="33.8103209" lon="-118.3938631">
  <ele>-2.96</ele>
  <time>2026-09-01T01:16:57Z</time>
  <course>10.43</course>
  <speed>0.1</speed>
  <fix>3d</fix>
</trkpt>
<trkpt lat="33.8103217" lon="-118.3938629">
  <ele>-3.046</ele>
  <time>2026-09-01T01:16:57Z</time>
  <course>218.58</course>
  <speed>0.30016662039607267</speed>
  <fix>3d</fix>
</trkpt>
<trkpt lat="33.8103212" lon="-118.3938631">
  <ele>-2.97</ele>
  <time>2026-09-01T01:16:57Z</time>
  <course>6.74</course>
  <speed>0.18</speed>
  <fix>3d</fix>
</trkpt>
<trkpt lat="33.810322" lon="-118.3938629">
  <ele>-3.049</ele>
  <time>2026-09-01T01:16:57Z</time>
  <course>222.99</course>
  <speed>0.36013886210738216</speed>
  <fix>3d</fix>
</trkpt>
<trkpt lat="33.8103212" lon="-118.3938631">
  <ele>-2.97</ele>
  <time>2026-09-01T01:16:57Z</time>
  <course>6.74</course>
  <speed>0.18</speed>
  <fix>3d</fix>
</trkpt>
<trkpt lat="33.8103223" lon="-118.3938629">
  <ele>-3.052</ele>
  <time>2026-09-01T01:16:57Z</time>
  <course>227.57</course>
  <speed>0.4301162633521314</speed>
  <fix>3d</fix>
</trkpt>
<trkpt lat="33.8103216" lon="-118.393863">
  <ele>-2.98</ele>
  <time>2026-09-01T01:16:57Z</time>
  <course>4.82</course>
  <speed>0.3</speed>
  <fix>3d</fix>
</trkpt>
<trkpt lat="33.8103227" lon="-118.3938629">
  <ele>-3.052</ele>
  <time>2026-09-01T01:16:57Z</time>
  <course>232.36</course>
  <speed>0.5000999900019995</speed>
  <fix>3d</fix>
</trkpt>
<trkpt lat="33.8103216" lon="-118.393863">
  <ele>-2.98</ele>
  <time>2026-09-01T01:16:57Z</time>
  <course>4.82</course>
  <speed>0.3</speed>
  <fix>3d</fix>
</trkpt>
<trkpt lat="33.8103231" lon="-118.3938629">
  <ele>-3.052</ele>
  <time>2026-09-01T01:16:57Z</time>
  <course>237.32</course>
  <speed>0.560357029044876</speed>
  <fix>3d</fix>
</trkpt>
<trkpt lat="33.8103222" lon="-118.393863">
  <ele>-2.98</ele>
  <time>2026-09-01T01:16:57Z</time>
  <course>4.12</course>
  <speed>0.43</speed>
  <fix>3d</fix>
</trkpt>
<trkpt lat="33.8103236" lon="-118.3938629">
  <ele>-3.052</ele>
  <time>2026-09-01T01:16:57Z</time>
  <course>242.51</course>
  <speed>0.620322496770833</speed>
  <fix>3d</fix>
</trkpt>
<trkpt lat="33.8103222" lon="-118.393863">
  <ele>-2.98</ele>
  <time>2026-09-01T01:16:57Z</time>
  <course>4.12</course>
  <speed>0.43</speed>
  <fix>3d</fix>
</trkpt>
<trkpt lat="33.8103242" lon="-118.3938629">
  <ele>-3.051</ele>
  <time>2026-09-01T01:16:57Z</time>
  <course>247.93</course>
  <speed>0.6702984409947557</speed>
  <fix>3d</fix>
</trkpt>
<trkpt lat="33.8103232" lon="-118.3938629">
  <ele>-2.98</ele>
  <time>2026-09-01T01:16:57Z</time>
  <course>4.2</course>
  <speed>0.56</speed>
  <fix>3d</fix>
</trkpt>
<trkpt lat="33.8103247" lon="-118.3938628">
  <ele>-3.05</ele>
  <time>2026-09-01T01:16:57Z</time>
  <course>253.63</course>
  <speed>0.7002856560004639</speed>
  <fix>3d</fix>
</trkpt>
<trkpt lat="33.8103232" lon="-118.3938629">
  <ele>-2.98</ele>
  <time>2026-09-01T01:16:57Z</time>
  <course>4.2</course>
  <speed>0.56</speed>
  <fix>3d</fix>
</trkpt>
<trkpt lat="33.8103253" lon="-118.3938628">
  <ele>-3.047</ele>
  <time>2026-09-01T01:16:57Z</time>
  <course>259.61</course>
  <speed>0.7302739212103907</speed>
  <fix>3d</fix>
</trkpt>
<trkpt lat="33.8103243" lon="-118.3938628">
  <ele>-2.98</ele>
  <time>2026-09-01T01:16:57Z</time>
  <course>4.45</course>
  <speed>0.66</speed>
  <fix>3d</fix>
</trkpt>
<trkpt lat="33.810326" lon="-118.3938628">
  <ele>-3.043</ele>
  <time>2026-09-01T01:16:57Z</time>
  <course>265.92</course>
  <speed>0.750066663703967</speed>
  <fix>3d</fix>
</trkpt>
<trkpt lat="33.8103243" lon="-118.3938628">
  <ele>-2.98</ele>
  <time>2026-09-01T01:16:57Z</time>
  <course>4.45</course>
  <speed>0.66</speed>
  <fix>3d</fix>
</trkpt>
<trkpt lat="33.8103266" lon="-118.3938628">
  <ele>-3.039</ele>
  <time>2026-09-01T01:16:57Z</time>
  <course>272.42</course>
  <speed>0.78</speed>
  <fix>3d</fix>
</trkpt>
<trkpt lat="33.8103255" lon="-118.3938627">
  <ele>-2.97</ele>
  <time>2026-09-01T01:16:57Z</time>
  <course>4.03</course>
  <speed>0.72</speed>
  <fix>3d</fix>
</trkpt>
<trkpt lat="33.8103273" lon="-118.3938628">
  <ele>-3.036</ele>
  <time>2026-09-01T01:16:57Z</time>
  <course>279.04</course>
  <speed>0.8002499609497022</speed>
  <fix>3d</fix>
</trkpt>
<trkpt lat="33.8103255" lon="-118.3938627">
  <ele>-2.97</ele>
  <time>2026-09-01T01:16:57Z</time>
  <course>4.03</course>
  <speed>0.72</speed>
  <fix>3d</fix>
</trkpt>
<trkpt lat="33.810328" lon="-118.3938628">
  <ele>-3.035</ele>
  <time>2026-09-01T01:16:57Z</time>
  <course>285.69</course>
  <speed>0.8215229759416348</speed>
  <fix>3d</fix>
</trkpt>
<trkpt lat="33.8103269" lon="-118.3938626">
  <ele>-2.96</ele>
  <time>2026-09-01T01:16:57Z</time>
  <course>2.12</course>
  <speed>0.77</speed>
  <fix>3d</fix>
</trkpt>
<trkpt lat="33.8103287" lon="-118.3938628">
  <ele>-3.034</ele>
  <time>2026-09-01T01:16:57Z</time>
  <course>292.29</course>
  <speed>0.8521150157109073</speed>
  <fix>3d</fix>
</trkpt>
<trkpt lat="33.8103269" lon="-118.3938626">
  <ele>-2.96</ele>
  <time>2026-09-01T01:16:57Z</time>
  <course>2.12</course>
  <speed>0.77</speed>
  <fix>3d</fix>
</trkpt>
<trkpt lat="33.8103295" lon="-118.3938628">
  <ele>-3.034</ele>
  <time>2026-09-01T01:16:57Z</time>
  <course>298.76</course>
  <speed>0.872066511224918</speed>
  <fix>3d</fix>
</trkpt>
<trkpt lat="33.8103283" lon="-118.3938626">
  <ele>-2.96</ele>
  <time>2026-09-01T01:16:57Z</time>
  <course>359.84</course>
  <speed>0.81</speed>
  <fix>3d</fix>
</trkpt>
<trkpt lat="33.8103303" lon="-118.3938628">
  <ele>-3.035</ele>
  <time>2026-09-01T01:16:57Z</time>
  <course>305.04</course>
  <speed>0.8920201791439475</speed>
  <fix>3d</fix>
</trkpt>
<trkpt lat="33.8103283" lon="-118.3938626">
  <ele>-2.96</ele>
  <time>2026-09-01T01:16:57Z</time>
  <course>359.84</course>
  <speed>0.81</speed>
  <fix>3d</fix>
</trkpt>
<trkpt lat="33.810331" lon="-118.3938629">
  <ele>-3.037</ele>
  <time>2026-09-01T01:16:57Z</time>
  <course>311.19</course>
  <speed>0.9113725912051558</speed>
  <fix>3d</fix>
</trkpt>
<trkpt lat="33.8103298" lon="-118.3938626">
  <ele>-2.96</ele>
  <time>2026-09-01T01:16:57Z</time>
  <course>359.34</course>
  <speed>0.85</speed>
  <fix>3d</fix>
</trkpt>
<trkpt lat="33.8103318" lon="-118.3938629">
  <ele>-3.038</ele>
  <time>2026-09-01T01:16:57Z</time>
  <course>317.17</course>
  <speed>0.920869154657707</speed>
  <fix>3d</fix>
</trkpt>
<trkpt lat="33.8103298" lon="-118.3938626">
  <ele>-2.96</ele>
  <time>2026-09-01T01:16:57Z</time>
  <course>359.34</course>
  <speed>0.85</speed>
  <fix>3d</fix>
</trkpt>
<trkpt lat="33.8103327" lon="-118.3938629">
  <ele>-3.039</ele>
  <time>2026-09-01T01:16:57Z</time>
  <course>323.07</course>
  <speed>0.9302150289046076</speed>
  <fix>3d</fix>
</trkpt>
<trkpt lat="33.8103313" lon="-118.3938626">
  <ele>-2.97</ele>
  <time>2026-09-01T01:16:57Z</time>
  <course>0.67</course>
  <speed>0.88</speed>
  <fix>3d</fix>
</trkpt>
<trkpt lat="33.8103335" lon="-118.3938628">
  <ele>-3.04</ele>
  <time>2026-09-01T01:16:57Z</time>
  <course>328.94</course>
  <speed>0.9300537618869137</speed>
  <fix>3d</fix>
</trkpt>
<trkpt lat="33.8103313" lon="-118.3938626">
  <ele>-2.97</ele>
  <time>2026-09-01T01:16:57Z</time>
  <course>0.67</course>
  <speed>0.88</speed>
  <fix>3d</fix>
</trkpt>
<trkpt lat="33.8103343" lon="-118.3938628">
  <ele>-3.041</ele>
  <time>2026-09-01T01:16:57Z</time>
  <course>334.5</course>
  <speed>0.92</speed>
  <fix>3d</fix>
</trkpt>
<trkpt lat="33.810333" lon="-118.3938625">
  <ele>-2.97</ele>
  <time>2026-09-01T01:16:57Z</time>
  <course>2.55</course>
  <speed>0.89</speed>
  <fix>3d</fix>
</trkpt>
<trkpt lat="33.8103351" lon="-118.3938628">
  <ele>-3.042</ele>
  <time>2026-09-01T01:16:57Z</time>
  <course>339.65</course>
  <speed>0.9000555538409837</speed>
  <fix>3d</fix>
</trkpt>
<trkpt lat="33.810333" lon="-118.3938625">
  <ele>-2.97</ele>
  <time>2026-09-01T01:16:57Z</time>
  <course>2.55</course>
  <speed>0.89</speed>
  <fix>3d</fix>
</trkpt>
<trkpt lat="33.8103358" lon="-118.3938628">
  <ele>-3.042</ele>
  <time>2026-09-01T01:16:57Z</time>
  <course>344.36</course>
  <speed>0.880056816347672</speed>
  <fix>3d</fix>
</trkpt>
<trkpt lat="33.8103346" lon="-118.3938624">
  <ele>-2.97</ele>
  <time>2026-09-01T01:16:57Z</time>
  <course>4.43</course>
  <speed>0.87</speed>
  <fix>3d</fix>
</trkpt>
<trkpt lat="33.8103366" lon="-118.3938627">
  <ele>-3.042</ele>
  <time>2026-09-01T01:16:57Z</time>
  <course>348.58</course>
  <speed>0.8700574693662483</speed>
  <fix>3d</fix>
</trkpt>
<trkpt lat="33.8103346" lon="-118.3938624">
  <ele>-2.97</ele>
  <time>2026-09-01T01:16:57Z</time>
  <course>4.43</course>
  <speed>0.87</speed>
  <fix>3d</fix>
</trkpt>
<trkpt lat="33.8103373" lon="-118.3938626">
  <ele>-3.042</ele>
  <time>2026-09-01T01:16:57Z</time>
  <course>352.21</course>
  <speed>0.86</speed>
  <fix>3d</fix>
</trkpt>
<trkpt lat="33.8103361" lon="-118.3938623">
  <ele>-2.97</ele>
  <time>2026-09-01T01:16:57Z</time>
  <course>5.3</course>
  <speed>0.83</speed>
  <fix>3d</fix>
</trkpt>
<trkpt lat="33.8103381" lon="-118.3938626">
  <ele>-3.041</ele>
  <time>2026-09-01T01:16:57Z</time>
  <course>355.22</course>
  <speed>0.8600581375697809</speed>
  <fix>3d</fix>
</trkpt>
<trkpt lat="33.8103361" lon="-118.3938623">
  <ele>-2.97</ele>
  <time>2026-09-01T01:16:57Z</time>
  <course>5.3</course>
  <speed>0.83</speed>
  <fix>3d</fix>
</trkpt>
<trkpt lat="33.8103388" lon="-118.3938626">
  <ele>-3.039</ele>
  <time>2026-09-01T01:16:57Z</time>
  <course>357.37</course>
  <speed>0.8602325267042628</speed>
  <fix>3d</fix>
</trkpt>
<trkpt lat="33.8103375" lon="-118.3938621">
  <ele>-2.96</ele>
  <time>2026-09-01T01:16:57Z</time>
  <course>4.16</course>
  <speed>0.81</speed>
  <fix>3d</fix>
</trkpt>
<trkpt lat="33.8103396" lon="-118.3938625">
  <ele>-3.038</ele>
  <time>2026-09-01T01:16:57Z</time>
  <course>358.62</course>
  <speed>0.8709190547921202</speed>
  <fix>3d</fix>
</trkpt>
<trkpt lat="33.8103375" lon="-118.3938621">
  <ele>-2.96</ele>
  <time>2026-09-01T01:16:57Z</time>
  <course>4.16</course>
  <speed>0.81</speed>
  <fix>3d</fix>
</trkpt>
<trkpt lat="33.8103403" lon="-118.3938625">
  <ele>-3.036</ele>
  <time>2026-09-01T01:16:57Z</time>
  <course>359.16</course>
  <speed>0.8714355971613738</speed>
  <fix>3d</fix>
</trkpt>
<trkpt lat="33.810339" lon="-118.393862">
  <ele>-2.96</ele>
  <time>2026-09-01T01:16:57Z</time>
  <course>2.04</course>
  <speed>0.8</speed>
  <fix>3d</fix>
</trkpt>
<trkpt lat="33.810341" lon="-118.3938625">
  <ele>-3.036</ele>
  <time>2026-09-01T01:16:57Z</time>
  <course>359.3</course>
  <speed>0.8714355971613738</speed>
  <fix>3d</fix>
</trkpt>
<trkpt lat="33.810339" lon="-118.393862">
  <ele>-2.96</ele>
  <time>2026-09-01T01:16:57Z</time>
  <course>2.04</course>
  <speed>0.8</speed>
  <fix>3d</fix>
</trkpt>
<trkpt lat="33.8103418" lon="-118.3938624">
  <ele>-3.037</ele>
  <time>2026-09-01T01:16:57Z</time>
  <course>359.25</course>
  <speed>0.872066511224918</speed>
  <fix>3d</fix>
</trkpt>
<trkpt lat="33.8103404" lon="-118.393862">
  <ele>-2.96</ele>
  <time>2026-09-01T01:16:57Z</time>
  <course>0.25</course>
  <speed>0.8</speed>
  <fix>3d</fix>
</trkpt>
<trkpt lat="33.8103425" lon="-118.3938624">
  <ele>-3.038</ele>
  <time>2026-09-01T01:16:57Z</time>
  <course>359.21</course>
  <speed>0.8820430828479978</speed>
  <fix>3d</fix>
</trkpt>
<trkpt lat="33.8103404" lon="-118.393862">
  <ele>-2.96</ele>
  <time>2026-09-01T01:16:57Z</time>
  <course>0.25</course>
  <speed>0.8</speed>
  <fix>3d</fix>
</trkpt>
<trkpt lat="33.8103433" lon="-118.3938624">
  <ele>-3.038</ele>
  <time>2026-09-01T01:16:57Z</time>
  <course>359.19</course>
  <speed>0.8820430828479978</speed>
  <fix>3d</fix>
</trkpt>
<trkpt lat="33.8103419" lon="-118.393862">
  <ele>-2.96</ele>
  <time>2026-09-01T01:16:57Z</time>
  <course>359.22</course>
  <speed>0.8</speed>
  <fix>3d</fix>
</trkpt>
<trkpt lat="33.810344" lon="-118.3938624">
  <ele>-3.038</ele>
  <time>2026-09-01T01:16:57Z</time>
  <course>359.2</course>
  <speed>0.8820430828479978</speed>
  <fix>3d</fix>
</trkpt>
<trkpt lat="33.8103419" lon="-118.393862">
  <ele>-2.96</ele>
  <time>2026-09-01T01:16:57Z</time>
  <course>359.22</course>
  <speed>0.8</speed>
  <fix>3d</fix>
</trkpt>
<trkpt lat="33.8103447" lon="-118.3938625">
  <ele>-3.038</ele>
  <time>2026-09-01T01:16:57Z</time>
  <course>359.23</course>
  <speed>0.8920201791439475</speed>
  <fix>3d</fix>
</trkpt>
<trkpt lat="33.8103434" lon="-118.393862">
  <ele>-2.96</ele>
  <time>2026-09-01T01:16:57Z</time>
  <course>358.69</course>
  <speed>0.8</speed>
  <fix>3d</fix>
</trkpt>
<trkpt lat="33.8103455" lon="-118.3938625">
  <ele>-3.036</ele>
  <time>2026-09-01T01:16:57Z</time>
  <course>359.27</course>
  <speed>0.9019977827023744</speed>
  <fix>3d</fix>
</trkpt>
<trkpt lat="33.8103434" lon="-118.393862">
  <ele>-2.96</ele>
  <time>2026-09-01T01:16:57Z</time>
  <course>358.69</course>
  <speed>0.8</speed>
  <fix>3d</fix>
</trkpt>
<trkpt lat="33.8103462" lon="-118.3938625">
  <ele>-3.035</ele>
  <time>2026-09-01T01:16:57Z</time>
  <course>359.31</course>
  <speed>0.9119758768739444</speed>
  <fix>3d</fix>
</trkpt>
<trkpt lat="33.8103448" lon="-118.393862">
  <ele>-2.96</ele>
  <time>2026-09-01T01:16:57Z</time>
  <course>358.34</course>
  <speed>0.81</speed>
  <fix>3d</fix>
</trkpt>
<trkpt lat="33.810347" lon="-118.3938625">
  <ele>-3.034</ele>
  <time>2026-09-01T01:16:57Z</time>
  <course>359.38</course>
  <speed>0.931933474020544</speed>
  <fix>3d</fix>
</trkpt>
<trkpt lat="33.8103448" lon="-118.393862">
  <ele>-2.96</ele>
  <time>2026-09-01T01:16:57Z</time>
  <course>358.34</course>
  <speed>0.81</speed>
  <fix>3d</fix>
</trkpt>
<trkpt lat="33.8103478" lon="-118.3938625">
  <ele>-3.034</ele>
  <time>2026-09-01T01:16:57Z</time>
  <course>359.44</course>
  <speed>0.9613012014972206</speed>
  <fix>3d</fix>
</trkpt>
<trkpt lat="33.8103463" lon="-118.393862">
  <ele>-2.96</ele>
  <time>2026-09-01T01:16:57Z</time>
  <course>358.07</course>
  <speed>0.84</speed>
  <fix>3d</fix>
</trkpt>
<trkpt lat="33.8103486" lon="-118.3938625">
  <ele>-3.034</ele>
  <time>2026-09-01T01:16:57Z</time>
  <course>359.52</course>
  <speed>0.9912618221237011</speed>
  <fix>3d</fix>
</trkpt>
<trkpt lat="33.8103463" lon="-118.393862">
  <ele>-2.96</ele>
  <time>2026-09-01T01:16:57Z</time>
  <course>358.07</course>
  <speed>0.84</speed>
  <fix>3d</fix>
</trkpt>
<trkpt lat="33.8103494" lon="-118.3938625">
  <ele>-3.035</ele>
  <time>2026-09-01T01:16:57Z</time>
  <course>359.6</course>
  <speed>1.0212247548899311</speed>
  <fix>3d</fix>
</trkpt>
<trkpt lat="33.8103478" lon="-118.3938621">
  <ele>-2.96</ele>
  <time>2026-09-01T01:16:57Z</time>
  <course>357.9</course>
  <speed>0.89</speed>
  <fix>3d</fix>
</trkpt>
<trkpt lat="33.8103503" lon="-118.3938625">
  <ele>-3.034</ele>
  <time>2026-09-01T01:16:57Z</time>
  <course>359.71</course>
  <speed>1.061178590059185</speed>
  <fix>3d</fix>
</trkpt>
<trkpt lat="33.8103478" lon="-118.3938621">
  <ele>-2.96</ele>
  <time>2026-09-01T01:16:57Z</time>
  <course>357.9</course>
  <speed>0.89</speed>
  <fix>3d</fix>
</trkpt>
<trkpt lat="33.8103512" lon="-118.3938625">
  <ele>-3.034</ele>
  <time>2026-09-01T01:16:57Z</time>
  <course>359.83</course>
  <speed>1.091146186356347</speed>
  <fix>3d</fix>
</trkpt>
<trkpt lat="33.8103495" lon="-118.3938621">
  <ele>-2.96</ele>
  <time>2026-09-01T01:16:57Z</time>
  <course>357.81</course>
  <speed>0.96</speed>
  <fix>3d</fix>
</trkpt>
<trkpt lat="33.8103521" lon="-118.3938625">
  <ele>-3.032</ele>
  <time>2026-09-01T01:16:57Z</time>
  <course>359.97</course>
  <speed>1.1311056537742175</speed>
  <fix>3d</fix>
</trkpt>
<trkpt lat="33.8103495" lon="-118.3938621">
  <ele>-2.96</ele>
  <time>2026-09-01T01:16:57Z</time>
  <course>357.81</course>
  <speed>0.96</speed>
  <fix>3d</fix>
</trkpt>
<trkpt lat="33.8103531" lon="-118.3938625">
  <ele>-3.031</ele>
  <time>2026-09-01T01:16:57Z</time>
  <course>0.1</course>
  <speed>1.151086443322134</speed>
  <fix>3d</fix>
</trkpt>
<trkpt lat="33.8103513" lon="-118.3938622">
  <ele>-2.96</ele>
  <time>2026-09-01T01:16:57Z</time>
  <course>357.79</course>
  <speed>1.03</speed>
  <fix>3d</fix>
</trkpt>
<trkpt lat="33.8103541" lon="-118.3938625">
  <ele>-3.031</ele>
  <time>2026-09-01T01:16:57Z</time>
  <course>0.24</course>
  <speed>1.1806777714516352</speed>
  <fix>3d</fix>
</trkpt>
<trkpt lat="33.8103513" lon="-118.3938622">
  <ele>-2.96</ele>
  <time>2026-09-01T01:16:57Z</time>
  <course>357.79</course>
  <speed>1.03</speed>
  <fix>3d</fix>
</trkpt>
<trkpt lat="33.8103551" lon="-118.3938626">
  <ele>-3.032</ele>
  <time>2026-09-01T01:16:57Z</time>
  <course>0.39</course>
  <speed>1.1906720791217034</speed>
  <fix>3d</fix>
</trkpt>
<trkpt lat="33.8103532" lon="-118.3938623">
  <ele>-2.96</ele>
  <time>2026-09-01T01:16:57Z</time>
  <course>357.78</course>
  <speed>1.09</speed>
  <fix>3d</fix>
</trkpt>
<trkpt lat="33.8103561" lon="-118.3938626">
  <ele>-3.033</ele>
  <time>2026-09-01T01:16:57Z</time>
  <course>0.54</course>
  <speed>1.2106609764917675</speed>
  <fix>3d</fix>
</trkpt>
<trkpt lat="33.8103532" lon="-118.3938623">
  <ele>-2.96</ele>
  <time>2026-09-01T01:16:57Z</time>
  <course>357.78</course>
  <speed>1.09</speed>
  <fix>3d</fix>
</trkpt>
<trkpt lat="33.8103571" lon="-118.3938626">
  <ele>-3.034</ele>
  <time>2026-09-01T01:16:57Z</time>
  <course>0.68</course>
  <speed>1.2206555615733703</speed>
  <fix>3d</fix>
</trkpt>
<trkpt lat="33.8103552" lon="-118.3938624">
  <ele>-2.97</ele>
  <time>2026-09-01T01:16:57Z</time>
  <course>357.82</course>
  <speed>1.14</speed>
  <fix>3d</fix>
</trkpt>
<trkpt lat="33.8103581" lon="-118.3938626">
  <ele>-3.036</ele>
  <time>2026-09-01T01:16:57Z</time>
  <course>0.83</course>
  <speed>1.2306502346320827</speed>
  <fix>3d</fix>
</trkpt>
<trkpt lat="33.8103552" lon="-118.3938624">
  <ele>-2.97</ele>
  <time>2026-09-01T01:16:57Z</time>
  <course>357.82</course>
  <speed>1.14</speed>
  <fix>3d</fix>
</trkpt>
<trkpt lat="33.8103592" lon="-118.3938626">
  <ele>-3.036</ele>
  <time>2026-09-01T01:16:57Z</time>
  <course>0.98</course>
  <speed>1.2303657992645927</speed>
  <fix>3d</fix>
</trkpt>
<trkpt lat="33.8103573" lon="-118.3938625">
  <ele>-2.97</ele>
  <time>2026-09-01T01:16:57Z</time>
  <course>357.92</course>
  <speed>1.17</speed>
  <fix>3d</fix>
</trkpt>
<trkpt lat="33.8103602" lon="-118.3938627">
  <ele>-3.037</ele>
  <time>2026-09-01T01:16:57Z</time>
  <course>1.13</course>
  <speed>1.2303657992645927</speed>
  <fix>3d</fix>
</trkpt>
<trkpt lat="33.8103573" lon="-118.3938625">
  <ele>-2.97</ele>
  <time>2026-09-01T01:16:57Z</time>
  <course>357.92</course>
  <speed>1.17</speed>
  <fix>3d</fix>
</trkpt>
<trkpt lat="33.8103613" lon="-118.3938627">
  <ele>-3.038</ele>
  <time>2026-09-01T01:16:57Z</time>
  <course>1.28</course>
  <speed>1.2203687967167958</speed>
  <fix>3d</fix>
</trkpt>
<trkpt lat="33.8103594" lon="-118.3938626">
  <ele>-2.97</ele>
  <time>2026-09-01T01:16:57Z</time>
  <course>358.05</course>
  <speed>1.18</speed>
  <fix>3d</fix>
</trkpt>
<trkpt lat="33.8103623" lon="-118.3938627">
  <ele>-3.039</ele>
  <time>2026-09-01T01:16:57Z</time>
  <course>1.42</course>
  <speed>1.2301625908797584</speed>
  <fix>3d</fix>
</trkpt>
<trkpt lat="33.8103594" lon="-118.3938626">
  <ele>-2.97</ele>
  <time>2026-09-01T01:16:57Z</time>
  <course>358.05</course>
  <speed>1.18</speed>
  <fix>3d</fix>
</trkpt>
<trkpt lat="33.8103634" lon="-118.3938627">
  <ele>-3.041</ele>
  <time>2026-09-01T01:16:57Z</time>
  <course>1.56</course>
  <speed>1.2301625908797584</speed>
  <fix>3d</fix>
</trkpt>
<trkpt lat="33.8103616" lon="-118.3938627">
  <ele>-2.97</ele>
  <time>2026-09-01T01:16:57Z</time>
  <course>358.22</course>
  <speed>1.19</speed>
  <fix>3d</fix>
</trkpt>
<trkpt lat="33.8103644" lon="-118.3938627">
  <ele>-3.041</ele>
  <time>2026-09-01T01:16:57Z</time>
  <course>1.7</course>
  <speed>1.2301625908797584</speed>
  <fix>3d</fix>
</trkpt>
<trkpt lat="33.8103616" lon="-118.3938627">
  <ele>-2.97</ele>
  <time>2026-09-01T01:16:57Z</time>
  <course>358.22</course>
  <speed>1.19</speed>
  <fix>3d</fix>
</trkpt>
<trkpt lat="33.8103655" lon="-118.3938628">
  <ele>-3.04</ele>
  <time>2026-09-01T01:16:57Z</time>
  <course>1.83</course>
  <speed>1.2300406497347964</speed>
  <fix>3d</fix>
</trkpt>
<trkpt lat="33.8103637" lon="-118.3938627">
  <ele>-2.97</ele>
  <time>2026-09-01T01:16:57Z</time>
  <course>358.41</course>
  <speed>1.19</speed>
  <fix>3d</fix>
</trkpt>
<trkpt lat="33.8103665" lon="-118.3938628">
  <ele>-3.038</ele>
  <time>2026-09-01T01:16:57Z</time>
  <course>1.96</course>
  <speed>1.2300406497347964</speed>
  <fix>3d</fix>
</trkpt>
<trkpt lat="33.8103637" lon="-118.3938627">
  <ele>-2.97</ele>
  <time>2026-09-01T01:16:57Z</time>
  <course>358.41</course>
  <speed>1.19</speed>
  <fix>3d</fix>
</trkpt>
<trkpt lat="33.8103676" lon="-118.3938628">
  <ele>-3.036</ele>
  <time>2026-09-01T01:16:57Z</time>
  <course>2.07</course>
  <speed>1.2300406497347964</speed>
  <fix>3d</fix>
</trkpt>
<trkpt lat="33.8103658" lon="-118.3938628">
  <ele>-2.97</ele>
  <time>2026-09-01T01:16:57Z</time>
  <course>358.59</course>
  <speed>1.2</speed>
  <fix>3d</fix>
</trkpt>
<trkpt lat="33.8103687" lon="-118.3938628">
  <ele>-3.036</ele>
  <time>2026-09-01T01:16:57Z</time>
  <course>2.17</course>
  <speed>1.2300406497347964</speed>
  <fix>3d</fix>
</trkpt>
<trkpt lat="33.8103658" lon="-118.3938628">
  <ele>-2.97</ele>
  <time>2026-09-01T01:16:57Z</time>
  <course>358.59</course>
  <speed>1.2</speed>
  <fix>3d</fix>
</trkpt>
<trkpt lat="33.8103698" lon="-118.3938629">
  <ele>-3.036</ele>
  <time>2026-09-01T01:16:57Z</time>
  <course>2.27</course>
  <speed>1.23</speed>
  <fix>3d</fix>
</trkpt>
<trkpt lat="33.8103681" lon="-118.3938628">
  <ele>-2.97</ele>
  <time>2026-09-01T01:16:57Z</time>
  <course>358.73</course>
  <speed>1.2</speed>
  <fix>3d</fix>
</trkpt>
<trkpt lat="33.8103708" lon="-118.3938629">
  <ele>-3.037</ele>
  <time>2026-09-01T01:16:57Z</time>
  <course>2.36</course>
  <speed>1.22</speed>
  <fix>3d</fix>
</trkpt>
<trkpt lat="33.8103681" lon="-118.3938628">
  <ele>-2.97</ele>
  <time>2026-09-01T01:16:57Z</time>
  <course>358.73</course>
  <speed>1.2</speed>
  <fix>3d</fix>
</trkpt>
<trkpt lat="33.8103719" lon="-118.3938629">
  <ele>-3.038</ele>
  <time>2026-09-01T01:16:57Z</time>
  <course>2.43</course>
  <speed>1.22</speed>
  <fix>3d</fix>
</trkpt>
<trkpt lat="33.8103702" lon="-118.3938629">
  <ele>-2.97</ele>
  <time>2026-09-01T01:16:57Z</time>
  <course>358.84</course>
  <speed>1.2</speed>
  <fix>3d</fix>
</trkpt>
<trkpt lat="33.810373" lon="-118.3938629">
  <ele>-3.038</ele>
  <time>2026-09-01T01:16:57Z</time>
  <course>2.5</course>
  <speed>1.22</speed>
  <fix>3d</fix>
</trkpt>
<trkpt lat="33.8103702" lon="-118.3938629">
  <ele>-2.97</ele>
  <time>2026-09-01T01:16:57Z</time>
  <course>358.84</course>
  <speed>1.2</speed>
  <fix>3d</fix>
</trkpt>
<trkpt lat="33.810374" lon="-118.3938629">
  <ele>-3.036</ele>
  <time>2026-09-01T01:16:57Z</time>
  <course>2.57</course>
  <speed>1.22</speed>
  <fix>3d</fix>
</trkpt>
<trkpt lat="33.8103724" lon="-118.393863">
  <ele>-2.96</ele>
  <time>2026-09-01T01:16:57Z</time>
  <course>358.94</course>
  <speed>1.2</speed>
  <fix>3d</fix>
</trkpt>
<trkpt lat="33.8103751" lon="-118.3938629">
  <ele>-3.034</ele>
  <time>2026-09-01T01:16:57Z</time>
  <course>2.64</course>
  <speed>1.21</speed>
  <fix>3d</fix>
</trkpt>
<trkpt lat="33.8103724" lon="-118.393863">
  <ele>-2.96</ele>
  <time>2026-09-01T01:16:57Z</time>
  <course>358.94</course>
  <speed>1.2</speed>
  <fix>3d</fix>
</trkpt>
<trkpt lat="33.8103762" lon="-118.3938629">
  <ele>-3.033</ele>
  <time>2026-09-01T01:16:57Z</time>
  <course>2.71</course>
  <speed>1.21</speed>
  <fix>3d</fix>
</trkpt>
<trkpt lat="33.8103746" lon="-118.393863">
  <ele>-2.96</ele>
  <time>2026-09-01T01:16:57Z</time>
  <course>359.06</course>
  <speed>1.2</speed>
  <fix>3d</fix>
</trkpt>
<trkpt lat="33.8103773" lon="-118.3938629">
  <ele>-3.031</ele>
  <time>2026-09-01T01:16:57Z</time>
  <course>2.78</course>
  <speed>1.21</speed>
  <fix>3d</fix>
</trkpt>
<trkpt lat="33.8103746" lon="-118.393863">
  <ele>-2.96</ele>
  <time>2026-09-01T01:16:57Z</time>
  <course>359.06</course>
  <speed>1.2</speed>
  <fix>3d</fix>
</trkpt>
<trkpt lat="33.8103783" lon="-118.3938629">
  <ele>-3.031</ele>
  <time>2026-09-01T01:16:57Z</time>
  <course>2.85</course>
  <speed>1.21</speed>
  <fix>3d</fix>
</trkpt>
<trkpt lat="33.8103767" lon="-118.3938631">
  <ele>-2.96</ele>
  <time>2026-09-01T01:16:57Z</time>
  <course>359.2</course>
  <speed>1.2</speed>
  <fix>3d</fix>
</trkpt>
<trkpt lat="33.8103794" lon="-118.3938629">
  <ele>-3.031</ele>
  <time>2026-09-01T01:16:57Z</time>
  <course>2.92</course>
  <speed>1.2</speed>
  <fix>3d</fix>
</trkpt>
<trkpt lat="33.8103767" lon="-118.3938631">
  <ele>-2.96</ele>
  <time>2026-09-01T01:16:57Z</time>
  <course>359.2</course>
  <speed>1.2</speed>
  <fix>3d</fix>
</trkpt>
<trkpt lat="33.8103805" lon="-118.393863">
  <ele>-3.031</ele>
  <time>2026-09-01T01:16:57Z</time>
  <course>2.98</course>
  <speed>1.2</speed>
  <fix>3d</fix>
</trkpt>
<trkpt lat="33.8103788" lon="-118.3938631">
  <ele>-2.96</ele>
  <time>2026-09-01T01:16:57Z</time>
  <course>359.32</course>
  <speed>1.2</speed>
  <fix>3d</fix>
</trkpt>
<trkpt lat="33.8103815" lon="-118.393863">
  <ele>-3.032</ele>
  <time>2026-09-01T01:16:57Z</time>
  <course>3.04</course>
  <speed>1.2</speed>
  <fix>3d</fix>
</trkpt>
<trkpt lat="33.8103788" lon="-118.3938631">
  <ele>-2.96</ele>
  <time>2026-09-01T01:16:57Z</time>
  <course>359.32</course>
  <speed>1.2</speed>
  <fix>3d</fix>
</trkpt>
<trkpt lat="33.8103826" lon="-118.393863">
  <ele>-3.033</ele>
  <time>2026-09-01T01:16:57Z</time>
  <course>3.1</course>
  <speed>1.2000416659433122</speed>
  <fix>3d</fix>
</trkpt>
<trkpt lat="33.8103811" lon="-118.3938631">
  <ele>-2.96</ele>
  <time>2026-09-01T01:16:57Z</time>
  <course>359.45</course>
  <speed>1.2</speed>
  <fix>3d</fix>
</trkpt>
<trkpt lat="33.8103837" lon="-118.393863">
  <ele>-3.034</ele>
  <time>2026-09-01T01:16:58Z</time>
  <course>3.15</course>
  <speed>1.2000416659433122</speed>
  <fix>3d</fix>
</trkpt>
<trkpt lat="33.8103811" lon="-118.3938631">
  <ele>-2.96</ele>
  <time>2026-09-01T01:16:58Z</time>
  <course>359.45</course>
  <speed>1.2</speed>
  <fix>3d</fix>
</trkpt>
<trkpt lat="33.8103847" lon="-118.393863">
  <ele>-3.033</ele>
  <time>2026-09-01T01:16:58Z</time>
  <course>3.18</course>
  <speed>1.1900420160649792</speed>
  <fix>3d</fix>
</trkpt>
<trkpt lat="33.8103832" lon="-118.3938632">
  <ele>-2.96</ele>
  <time>2026-09-01T01:16:58Z</time>
  <course>359.53</course>
  <speed>1.2</speed>
  <fix>3d</fix>
</trkpt>
<trkpt lat="33.8103858" lon="-118.393863">
  <ele>-3.034</ele>
  <time>2026-09-01T01:16:58Z</time>
  <course>3.22</course>
  <speed>1.1900420160649792</speed>
  <fix>3d</fix>
</trkpt>
<trkpt lat="33.8103832" lon="-118.3938632">
  <ele>-2.96</ele>
  <time>2026-09-01T01:16:58Z</time>
  <course>359.53</course>
  <speed>1.2</speed>
  <fix>3d</fix>
</trkpt>
<trkpt lat="33.8103869" lon="-118.393863">
  <ele>-3.034</ele>
  <time>2026-09-01T01:16:58Z</time>
  <course>3.25</course>
  <speed>1.1900420160649792</speed>
  <fix>3d</fix>
</trkpt>
<trkpt lat="33.8103854" lon="-118.3938632">
  <ele>-2.96</ele>
  <time>2026-09-01T01:16:58Z</time>
  <course>359.6</course>
  <speed>1.19</speed>
  <fix>3d</fix>
</trkpt>
<trkpt lat="33.8103879" lon="-118.393863">
  <ele>-3.034</ele>
  <time>2026-09-01T01:16:58Z</time>
  <course>3.29</course>
  <speed>1.1900420160649792</speed>
  <fix>3d</fix>
</trkpt>
<trkpt lat="33.8103854" lon="-118.3938632">
  <ele>-2.96</ele>
  <time>2026-09-01T01:16:58Z</time>
  <course>359.6</course>
  <speed>1.19</speed>
  <fix>3d</fix>
</trkpt>
<trkpt lat="33.810389" lon="-118.393863">
  <ele>-3.034</ele>
  <time>2026-09-01T01:16:58Z</time>
  <course>3.32</course>
  <speed>1.1900420160649792</speed>
  <fix>3d</fix>
</trkpt>
<trkpt lat="33.8103875" lon="-118.3938632">
  <ele>-2.96</ele>
  <time>2026-09-01T01:16:58Z</time>
  <course>359.7</course>
  <speed>1.19</speed>
  <fix>3d</fix>
</trkpt>
<trkpt lat="33.8103901" lon="-118.393863">
  <ele>-3.034</ele>
  <time>2026-09-01T01:16:58Z</time>
  <course>3.35</course>
  <speed>1.1900420160649792</speed>
  <fix>3d</fix>
</trkpt>
<trkpt lat="33.8103875" lon="-118.3938632">
  <ele>-2.96</ele>
  <time>2026-09-01T01:16:58Z</time>
  <course>359.7</course>
  <speed>1.19</speed>
  <fix>3d</fix>
</trkpt>
<trkpt lat="33.8103911" lon="-118.3938631">
  <ele>-3.034</ele>
  <time>2026-09-01T01:16:58Z</time>
  <course>3.38</course>
  <speed>1.1900420160649792</speed>
  <fix>3d</fix>
</trkpt>
<trkpt lat="33.8103897" lon="-118.3938632">
  <ele>-2.96</ele>
  <time>2026-09-01T01:16:58Z</time>
  <course>359.77</course>
  <speed>1.19</speed>
  <fix>3d</fix>
</trkpt>
<trkpt lat="33.8103922" lon="-118.3938631">
  <ele>-3.034</ele>
  <time>2026-09-01T01:16:58Z</time>
  <course>3.39</course>
  <speed>1.1900420160649792</speed>
  <fix>3d</fix>
</trkpt>
<trkpt lat="33.8103897" lon="-118.3938632">
  <ele>-2.96</ele>
  <time>2026-09-01T01:16:58Z</time>
  <course>359.77</course>
  <speed>1.19</speed>
  <fix>3d</fix>
</trkpt>
<trkpt lat="33.8103933" lon="-118.3938631">
  <ele>-3.033</ele>
  <time>2026-09-01T01:16:58Z</time>
  <course>3.4</course>
  <speed>1.1800423721205946</speed>
  <fix>3d</fix>
</trkpt>
<trkpt lat="33.8103918" lon="-118.3938632">
  <ele>-2.95</ele>
  <time>2026-09-01T01:16:58Z</time>
  <course>359.81</course>
  <speed>1.19</speed>
  <fix>3d</fix>
</trkpt>
<trkpt lat="33.8103944" lon="-118.3938631">
  <ele>-3.031</ele>
  <time>2026-09-01T01:16:58Z</time>
  <course>3.4</course>
  <speed>1.1800423721205946</speed>
  <fix>3d</fix>
</trkpt>
<trkpt lat="33.8103918" lon="-118.3938632">
  <ele>-2.95</ele>
  <time>2026-09-01T01:16:58Z</time>
  <course>359.81</course>
  <speed>1.19</speed>
  <fix>3d</fix>
</trkpt>
<trkpt lat="33.8103954" lon="-118.3938631">
  <ele>-3.029</ele>
  <time>2026-09-01T01:16:58Z</time>
  <course>3.39</course>
  <speed>1.1800423721205946</speed>
  <fix>3d</fix>
</trkpt>
<trkpt lat="33.810394" lon="-118.3938632">
  <ele>-2.95</ele>
  <time>2026-09-01T01:16:58Z</time>
  <course>359.84</course>
  <speed>1.2</speed>
  <fix>3d</fix>
</trkpt>
<trkpt lat="33.8103965" lon="-118.3938631">
  <ele>-3.028</ele>
  <time>2026-09-01T01:16:58Z</time>
  <course>3.38</course>
  <speed>1.1800423721205946</speed>
  <fix>3d</fix>
</trkpt>
<trkpt lat="33.810394" lon="-118.3938632">
  <ele>-2.95</ele>
  <time>2026-09-01T01:16:58Z</time>
  <course>359.84</course>
  <speed>1.2</speed>
  <fix>3d</fix>
</trkpt>
<trkpt lat="33.8103976" lon="-118.3938631">
  <ele>-3.027</ele>
  <time>2026-09-01T01:16:58Z</time>
  <course>3.36</course>
  <speed>1.1800423721205946</speed>
  <fix>3d</fix>
</trkpt>
<trkpt lat="33.8103961" lon="-118.3938632">
  <ele>-2.95</ele>
  <time>2026-09-01T01:16:58Z</time>
  <course>359.85</course>
  <speed>1.2</speed>
  <fix>3d</fix>
</trkpt>
<trkpt lat="33.8103986" lon="-118.3938631">
  <ele>-3.028</ele>
  <time>2026-09-01T01:16:58Z</time>
  <course>3.35</course>
  <speed>1.1900420160649792</speed>
  <fix>3d</fix>
</trkpt>
<trkpt lat="33.8103961" lon="-118.3938632">
  <ele>-2.95</ele>
  <time>2026-09-01T01:16:58Z</time>
  <course>359.85</course>
  <speed>1.2</speed>
  <fix>3d</fix>
</trkpt>
<trkpt lat="33.8103997" lon="-118.3938631">
  <ele>-3.029</ele>
  <time>2026-09-01T01:16:58Z</time>
  <course>3.33</course>
  <speed>1.1900420160649792</speed>
  <fix>3d</fix>
</trkpt>
<trkpt lat="33.8103983" lon="-118.3938632">
  <ele>-2.95</ele>
  <time>2026-09-01T01:16:58Z</time>
  <course>359.85</course>
  <speed>1.2</speed>
  <fix>3d</fix>
</trkpt>
<trkpt lat="33.8104008" lon="-118.3938631">
  <ele>-3.029</ele>
  <time>2026-09-01T01:16:58Z</time>
  <course>3.31</course>
  <speed>1.1900420160649792</speed>
  <fix>3d</fix>
</trkpt>
<trkpt lat="33.8103983" lon="-118.3938632">
  <ele>-2.95</ele>
  <time>2026-09-01T01:16:58Z</time>
  <course>359.85</course>
  <speed>1.2</speed>
  <fix>3d</fix>
</trkpt>
<trkpt lat="33.8104019" lon="-118.3938631">
  <ele>-3.028</ele>
  <time>2026-09-01T01:16:58Z</time>
  <course>3.29</course>
  <speed>1.1901680553602503</speed>
  <fix>3d</fix>
</trkpt>
<trkpt lat="33.8104005" lon="-118.3938633">
  <ele>-2.95</ele>
  <time>2026-09-01T01:16:58Z</time>
  <course>359.85</course>
  <speed>1.2</speed>
  <fix>3d</fix>
</trkpt>
<trkpt lat="33.810403" lon="-118.3938631">
  <ele>-3.028</ele>
  <time>2026-09-01T01:16:58Z</time>
  <course>3.27</course>
  <speed>1.1801694793545543</speed>
  <fix>3d</fix>
</trkpt>
<trkpt lat="33.8104005" lon="-118.3938633">
  <ele>-2.95</ele>
  <time>2026-09-01T01:16:58Z</time>
  <course>359.85</course>
  <speed>1.2</speed>
  <fix>3d</fix>
</trkpt>
<trkpt lat="33.810404" lon="-118.3938631">
  <ele>-3.028</ele>
  <time>2026-09-01T01:16:58Z</time>
  <course>3.27</course>
  <speed>1.1901680553602503</speed>
  <fix>3d</fix>
</trkpt>
<trkpt lat="33.8104027" lon="-118.3938633">
  <ele>-2.95</ele>
  <time>2026-09-01T01:16:58Z</time>
  <course>359.88</course>
  <speed>1.21</speed>
  <fix>3d</fix>
</trkpt>
<trkpt lat="33.8104051" lon="-118.3938631">
  <ele>-3.028</ele>
  <time>2026-09-01T01:16:58Z</time>
  <course>3.27</course>
  <speed>1.1901680553602503</speed>
  <fix>3d</fix>
</trkpt>
<trkpt lat="33.8104027" lon="-118.3938633">
  <ele>-2.95</ele>
  <time>2026-09-01T01:16:58Z</time>
  <course>359.88</course>
  <speed>1.21</speed>
  <fix>3d</fix>
</trkpt>
<trkpt lat="33.8104062" lon="-118.3938631">
  <ele>-3.028</ele>
  <time>2026-09-01T01:16:58Z</time>
  <course>3.28</course>
  <speed>1.1901680553602503</speed>
  <fix>3d</fix>
</trkpt>
<trkpt lat="33.8104048" lon="-118.3938633">
  <ele>-2.95</ele>
  <time>2026-09-01T01:16:58Z</time>
  <course>359.94</course>
  <speed>1.21</speed>
  <fix>3d</fix>
</trkpt>
<trkpt lat="33.8104073" lon="-118.3938631">
  <ele>-3.027</ele>
  <time>2026-09-01T01:16:58Z</time>
  <course>3.29</course>
  <speed>1.1901680553602503</speed>
  <fix>3d</fix>
</trkpt>
<trkpt lat="33.8104048" lon="-118.3938633">
  <ele>-2.95</ele>
  <time>2026-09-01T01:16:58Z</time>
  <course>359.94</course>
  <speed>1.21</speed>
  <fix>3d</fix>
</trkpt>
<trkpt lat="33.8104084" lon="-118.3938631">
  <ele>-3.026</ele>
  <time>2026-09-01T01:16:58Z</time>
  <course>3.29</course>
  <speed>1.1901680553602503</speed>
  <fix>3d</fix>
</trkpt>
<trkpt lat="33.810407" lon="-118.3938633">
  <ele>-2.95</ele>
  <time>2026-09-01T01:16:58Z</time>
  <course>0.0</course>
  <speed>1.21</speed>
  <fix>3d</fix>
</trkpt>
<trkpt lat="33.8104095" lon="-118.3938631">
  <ele>-3.026</ele>
  <time>2026-09-01T01:16:58Z</time>
  <course>3.29</course>
  <speed>1.1901680553602503</speed>
  <fix>3d</fix>
</trkpt>
<trkpt lat="33.810407" lon="-118.3938633">
  <ele>-2.95</ele>
  <time>2026-09-01T01:16:58Z</time>
  <course>0.0</course>
  <speed>1.21</speed>
  <fix>3d</fix>
</trkpt>
<trkpt lat="33.8104105" lon="-118.3938631">
  <ele>-3.026</ele>
  <time>2026-09-01T01:16:58Z</time>
  <course>3.29</course>
  <speed>1.1901680553602503</speed>
  <fix>3d</fix>
</trkpt>
<trkpt lat="33.8104091" lon="-118.3938633">
  <ele>-2.95</ele>
  <time>2026-09-01T01:16:58Z</time>
  <course>0.04</course>
  <speed>1.21</speed>
  <fix>3d</fix>
</trkpt>
<trkpt lat="33.8104116" lon="-118.3938631">
  <ele>-3.027</ele>
  <time>2026-09-01T01:16:58Z</time>
  <course>3.28</course>
  <speed>1.1901680553602503</speed>
  <fix>3d</fix>
</trkpt>
<trkpt lat="33.8104091" lon="-118.3938633">
  <ele>-2.95</ele>
  <time>2026-09-01T01:16:58Z</time>
  <course>0.04</course>
  <speed>1.21</speed>
  <fix>3d</fix>
</trkpt>
<trkpt lat="33.8104127" lon="-118.3938631">
  <ele>-3.029</ele>
  <time>2026-09-01T01:16:58Z</time>
  <course>3.27</course>
  <speed>1.1901680553602503</speed>
  <fix>3d</fix>
</trkpt>
<trkpt lat="33.8104114" lon="-118.3938633">
  <ele>-2.96</ele>
  <time>2026-09-01T01:16:58Z</time>
  <course>0.08</course>
  <speed>1.22</speed>
  <fix>3d</fix>
</trkpt>
<trkpt lat="33.8104138" lon="-118.3938631">
  <ele>-3.03</ele>
  <time>2026-09-01T01:16:58Z</time>
  <course>3.25</course>
  <speed>1.1901680553602503</speed>
  <fix>3d</fix>
</trkpt>
<trkpt lat="33.8104114" lon="-118.3938633">
  <ele>-2.96</ele>
  <time>2026-09-01T01:16:58Z</time>
  <course>0.08</course>
  <speed>1.22</speed>
  <fix>3d</fix>
</trkpt>
<trkpt lat="33.8104149" lon="-118.3938631">
  <ele>-3.031</ele>
  <time>2026-09-01T01:16:58Z</time>
  <course>3.23</course>
  <speed>1.2001666550941998</speed>
  <fix>3d</fix>
</trkpt>
<trkpt lat="33.8104135" lon="-118.3938633">
  <ele>-2.96</ele>
  <time>2026-09-01T01:16:58Z</time>
  <course>0.1</course>
  <speed>1.22</speed>
  <fix>3d</fix>
</trkpt>
<trkpt lat="33.810416" lon="-118.3938631">
  <ele>-3.033</ele>
  <time>2026-09-01T01:16:58Z</time>
  <course>3.21</course>
  <speed>1.2001666550941998</speed>
  <fix>3d</fix>
</trkpt>
<trkpt lat="33.8104135" lon="-118.3938633">
  <ele>-2.96</ele>
  <time>2026-09-01T01:16:58Z</time>
  <course>0.1</course>
  <speed>1.22</speed>
  <fix>3d</fix>
</trkpt>
<trkpt lat="33.8104171" lon="-118.3938631">
  <ele>-3.034</ele>
  <time>2026-09-01T01:16:58Z</time>
  <course>3.19</course>
  <speed>1.2001666550941998</speed>
  <fix>3d</fix>
</trkpt>
<trkpt lat="33.8104158" lon="-118.3938633">
  <ele>-2.96</ele>
  <time>2026-09-01T01:16:58Z</time>
  <course>0.11</course>
  <speed>1.23</speed>
  <fix>3d</fix>
</trkpt>
<trkpt lat="33.8104182" lon="-118.3938631">
  <ele>-3.034</ele>
  <time>2026-09-01T01:16:58Z</time>
  <course>3.17</course>
  <speed>1.2001666550941998</speed>
  <fix>3d</fix>
</trkpt>
<trkpt lat="33.8104158" lon="-118.3938633">
  <ele>-2.96</ele>
  <time>2026-09-01T01:16:58Z</time>
  <course>0.11</course>
  <speed>1.23</speed>
  <fix>3d</fix>
</trkpt>
<trkpt lat="33.8104193" lon="-118.3938631">
  <ele>-3.035</ele>
  <time>2026-09-01T01:16:58Z</time>
  <course>3.15</course>
  <speed>1.2001666550941998</speed>
  <fix>3d</fix>
</trkpt>
<trkpt lat="33.810418" lon="-118.3938633">
  <ele>-2.96</ele>
  <time>2026-09-01T01:16:58Z</time>
  <course>0.13</course>
  <speed>1.23</speed>
  <fix>3d</fix>
</trkpt>
<trkpt lat="33.8104204" lon="-118.3938631">
  <ele>-3.034</ele>
  <time>2026-09-01T01:16:58Z</time>
  <course>3.13</course>
  <speed>1.2001666550941998</speed>
  <fix>3d</fix>
</trkpt>
<trkpt lat="33.810418" lon="-118.3938633">
  <ele>-2.96</ele>
  <time>2026-09-01T01:16:58Z</time>
  <course>0.13</course>
  <speed>1.23</speed>
  <fix>3d</fix>
</trkpt>
<trkpt lat="33.8104215" lon="-118.3938631">
  <ele>-3.034</ele>
  <time>2026-09-01T01:16:58Z</time>
  <course>3.1</course>
  <speed>1.2001666550941998</speed>
  <fix>3d</fix>
</trkpt>
<trkpt lat="33.8104202" lon="-118.3938633">
  <ele>-2.96</ele>
  <time>2026-09-01T01:16:58Z</time>
  <course>0.14</course>
  <speed>1.24</speed>
  <fix>3d</fix>
</trkpt>
<trkpt lat="33.8104226" lon="-118.3938631">
  <ele>-3.034</ele>
  <time>2026-09-01T01:16:58Z</time>
  <course>3.08</course>
  <speed>1.2001666550941998</speed>
  <fix>3d</fix>
</trkpt>
<trkpt lat="33.8104202" lon="-118.3938633">
  <ele>-2.96</ele>
  <time>2026-09-01T01:16:58Z</time>
  <course>0.14</course>
  <speed>1.24</speed>
  <fix>3d</fix>
</trkpt>
<trkpt lat="33.8104238" lon="-118.3938631">
  <ele>-3.033</ele>
  <time>2026-09-01T01:16:58Z</time>
  <course>3.06</course>
  <speed>1.2101652779682617</speed>
  <fix>3d</fix>
</trkpt>
<trkpt lat="33.8104225" lon="-118.3938633">
  <ele>-2.95</ele>
  <time>2026-09-01T01:16:58Z</time>
  <course>0.15</course>
  <speed>1.24</speed>
  <fix>3d</fix>
</trkpt>
<trkpt lat="33.8104249" lon="-118.3938631">
  <ele>-3.031</ele>
  <time>2026-09-01T01:16:58Z</time>
  <course>3.03</course>
  <speed>1.2101652779682617</speed>
  <fix>3d</fix>
</trkpt>
<trkpt lat="33.8104225" lon="-118.3938633">
  <ele>-2.95</ele>
  <time>2026-09-01T01:16:58Z</time>
  <course>0.15</course>
  <speed>1.24</speed>
  <fix>3d</fix>
</trkpt>
<trkpt lat="33.810426" lon="-118.3938631">
  <ele>-3.029</ele>
  <time>2026-09-01T01:16:58Z</time>
  <course>3.01</course>
  <speed>1.2101652779682617</speed>
  <fix>3d</fix>
</trkpt>
<trkpt lat="33.8104247" lon="-118.3938633">
  <ele>-2.95</ele>
  <time>2026-09-01T01:16:58Z</time>
  <course>0.18</course>
  <speed>1.24</speed>
  <fix>3d</fix>
</trkpt>
<trkpt lat="33.8104271" lon="-118.3938631">
  <ele>-3.027</ele>
  <time>2026-09-01T01:16:58Z</time>
  <course>2.99</course>
  <speed>1.2101652779682617</speed>
  <fix>3d</fix>
</trkpt>
<trkpt lat="33.8104247" lon="-118.3938633">
  <ele>-2.95</ele>
  <time>2026-09-01T01:16:58Z</time>
  <course>0.18</course>
  <speed>1.24</speed>
  <fix>3d</fix>
</trkpt>
<trkpt lat="33.8104282" lon="-118.3938631">
  <ele>-3.026</ele>
  <time>2026-09-01T01:16:58Z</time>
  <course>2.97</course>
  <speed>1.2101652779682617</speed>
  <fix>3d</fix>
</trkpt>
<trkpt lat="33.810427" lon="-118.3938633">
  <ele>-2.94</ele>
  <time>2026-09-01T01:16:58Z</time>
  <course>0.2</course>
  <speed>1.25</speed>
  <fix>3d</fix>
</trkpt>
<trkpt lat="33.8104294" lon="-118.3938631">
  <ele>-3.025</ele>
  <time>2026-09-01T01:16:58Z</time>
  <course>2.94</course>
  <speed>1.2101652779682617</speed>
  <fix>3d</fix>
</trkpt>
<trkpt lat="33.810427" lon="-118.3938633">
  <ele>-2.94</ele>
  <time>2026-09-01T01:16:58Z</time>
  <course>0.2</course>
  <speed>1.25</speed>
  <fix>3d</fix>
</trkpt>
<trkpt lat="33.8104305" lon="-118.3938631">
  <ele>-3.025</ele>
  <time>2026-09-01T01:16:58Z</time>
  <course>2.92</course>
  <speed>1.2101652779682617</speed>
  <fix>3d</fix>
</trkpt>
<trkpt lat="33.8104292" lon="-118.3938633">
  <ele>-2.94</ele>
  <time>2026-09-01T01:16:58Z</time>
  <course>0.22</course>
  <speed>1.25</speed>
  <fix>3d</fix>
</trkpt>
<trkpt lat="33.8104316" lon="-118.3938631">
  <ele>-3.025</ele>
  <time>2026-09-01T01:16:58Z</time>
  <course>2.89</course>
  <speed>1.2101652779682617</speed>
  <fix>3d</fix>
</trkpt>
<trkpt lat="33.8104292" lon="-118.3938633">
  <ele>-2.94</ele>
  <time>2026-09-01T01:16:58Z</time>
  <course>0.22</course>
  <speed>1.25</speed>
  <fix>3d</fix>
</trkpt>
<trkpt lat="33.8104327" lon="-118.3938631">
  <ele>-3.024</ele>
  <time>2026-09-01T01:16:58Z</time>
  <course>2.87</course>
  <speed>1.2101652779682617</speed>
  <fix>3d</fix>
</trkpt>
<trkpt lat="33.8104315" lon="-118.3938633">
  <ele>-2.94</ele>
  <time>2026-09-01T01:16:58Z</time>
  <course>0.23</course>
  <speed>1.25</speed>
  <fix>3d</fix>
</trkpt>
<trkpt lat="33.8104338" lon="-118.3938631">
  <ele>-3.024</ele>
  <time>2026-09-01T01:16:58Z</time>
  <course>2.84</course>
  <speed>1.2101652779682617</speed>
  <fix>3d</fix>
</trkpt>
<trkpt lat="33.8104315" lon="-118.3938633">
  <ele>-2.94</ele>
  <time>2026-09-01T01:16:58Z</time>
  <course>0.23</course>
  <speed>1.25</speed>
  <fix>3d</fix>
</trkpt>
<trkpt lat="33.810435" lon="-118.3938631">
  <ele>-3.023</ele>
  <time>2026-09-01T01:16:58Z</time>
  <course>2.82</course>
  <speed>1.2101652779682617</speed>
  <fix>3d</fix>
</trkpt>
<trkpt lat="33.8104337" lon="-118.3938633">
  <ele>-2.94</ele>
  <time>2026-09-01T01:16:58Z</time>
  <course>0.25</course>
  <speed>1.25</speed>
  <fix>3d</fix>
</trkpt>
<trkpt lat="33.8104361" lon="-118.3938631">
  <ele>-3.022</ele>
  <time>2026-09-01T01:16:58Z</time>
  <course>2.8</course>
  <speed>1.2201639234135715</speed>
  <fix>3d</fix>
</trkpt>
<trkpt lat="33.8104337" lon="-118.3938633">
  <ele>-2.94</ele>
  <time>2026-09-01T01:16:58Z</time>
  <course>0.25</course>
  <speed>1.25</speed>
  <fix>3d</fix>
</trkpt>
<trkpt lat="33.8104372" lon="-118.3938631">
  <ele>-3.023</ele>
  <time>2026-09-01T01:16:58Z</time>
  <course>2.77</course>
  <speed>1.2201639234135715</speed>
  <fix>3d</fix>
</trkpt>
<trkpt lat="33.8104359" lon="-118.3938633">
  <ele>-2.94</ele>
  <time>2026-09-01T01:16:58Z</time>
  <course>0.26</course>
  <speed>1.26</speed>
  <fix>3d</fix>
</trkpt>
<trkpt lat="33.8104384" lon="-118.3938631">
  <ele>-3.024</ele>
  <time>2026-09-01T01:16:58Z</time>
  <course>2.75</course>
  <speed>1.2201639234135715</speed>
  <fix>3d</fix>
</trkpt>
<trkpt lat="33.8104359" lon="-118.3938633">
  <ele>-2.94</ele>
  <time>2026-09-01T01:16:58Z</time>
  <course>0.26</course>
  <speed>1.26</speed>
  <fix>3d</fix>
</trkpt>
<trkpt lat="33.8104395" lon="-118.3938631">
  <ele>-3.025</ele>
  <time>2026-09-01T01:16:58Z</time>
  <course>2.72</course>
  <speed>1.2201639234135715</speed>
  <fix>3d</fix>
</trkpt>
<trkpt lat="33.8104382" lon="-118.3938633">
  <ele>-2.94</ele>
  <time>2026-09-01T01:16:58Z</time>
  <course>0.27</course>
  <speed>1.26</speed>
  <fix>3d</fix>
</trkpt>
<trkpt lat="33.8104406" lon="-118.3938631">
  <ele>-3.025</ele>
  <time>2026-09-01T01:16:58Z</time>
  <course>2.69</course>
  <speed>1.2201639234135715</speed>
  <fix>3d</fix>
</trkpt>
<trkpt lat="33.8104382" lon="-118.3938633">
  <ele>-2.94</ele>
  <time>2026-09-01T01:16:58Z</time>
  <course>0.27</course>
  <speed>1.26</speed>
  <fix>3d</fix>
</trkpt>
<trkpt lat="33.8104418" lon="-118.3938631">
  <ele>-3.025</ele>
  <time>2026-09-01T01:16:58Z</time>
  <course>2.67</course>
  <speed>1.2201639234135715</speed>
  <fix>3d</fix>
</trkpt>
<trkpt lat="33.8104405" lon="-118.3938632">
  <ele>-2.94</ele>
  <time>2026-09-01T01:16:58Z</time>
  <course>0.29</course>
  <speed>1.26</speed>
  <fix>3d</fix>
</trkpt>
<trkpt lat="33.8104429" lon="-118.393863">
  <ele>-3.026</ele>
  <time>2026-09-01T01:16:58Z</time>
  <course>2.63</course>
  <speed>1.2301625908797584</speed>
  <fix>3d</fix>
</trkpt>
<trkpt lat="33.8104405" lon="-118.3938632">
  <ele>-2.94</ele>
  <time>2026-09-01T01:16:58Z</time>
  <course>0.29</course>
  <speed>1.26</speed>
  <fix>3d</fix>
</trkpt>
<trkpt lat="33.8104441" lon="-118.393863">
  <ele>-3.027</ele>
  <time>2026-09-01T01:16:58Z</time>
  <course>2.59</course>
  <speed>1.2301625908797584</speed>
  <fix>3d</fix>
</trkpt>
<trkpt lat="33.8104428" lon="-118.3938632">
  <ele>-2.95</ele>
  <time>2026-09-01T01:16:58Z</time>
  <course>0.27</course>
  <speed>1.27</speed>
  <fix>3d</fix>
</trkpt>
<trkpt lat="33.8104452" lon="-118.393863">
  <ele>-3.028</ele>
  <time>2026-09-01T01:16:58Z</time>
  <course>2.54</course>
  <speed>1.2301625908797584</speed>
  <fix>3d</fix>
</trkpt>
<trkpt lat="33.8104428" lon="-118.3938632">
  <ele>-2.95</ele>
  <time>2026-09-01T01:16:58Z</time>
  <course>0.27</course>
  <speed>1.27</speed>
  <fix>3d</fix>
</trkpt>
<trkpt lat="33.8104463" lon="-118.393863">
  <ele>-3.028</ele>
  <time>2026-09-01T01:16:58Z</time>
  <course>2.49</course>
  <speed>1.2301625908797584</speed>
  <fix>3d</fix>
</trkpt>
<trkpt lat="33.8104451" lon="-118.3938632">
  <ele>-2.95</ele>
  <time>2026-09-01T01:16:58Z</time>
  <course>0.2</course>
  <speed>1.27</speed>
  <fix>3d</fix>
</trkpt>
<trkpt lat="33.8104475" lon="-118.393863">
  <ele>-3.027</ele>
  <time>2026-09-01T01:16:58Z</time>
  <course>2.44</course>
  <speed>1.2301625908797584</speed>
  <fix>3d</fix>
</trkpt>
<trkpt lat="33.8104451" lon="-118.3938632">
  <ele>-2.95</ele>
  <time>2026-09-01T01:16:58Z</time>
  <course>0.2</course>
  <speed>1.27</speed>
  <fix>3d</fix>
</trkpt>
<trkpt lat="33.8104486" lon="-118.393863">
  <ele>-3.026</ele>
  <time>2026-09-01T01:16:58Z</time>
  <course>2.38</course>
  <speed>1.2301625908797584</speed>
  <fix>3d</fix>
</trkpt>
<trkpt lat="33.8104474" lon="-118.3938632">
  <ele>-2.95</ele>
  <time>2026-09-01T01:16:58Z</time>
  <course>0.16</course>
  <speed>1.27</speed>
  <fix>3d</fix>
</trkpt>
<trkpt lat="33.8104498" lon="-118.393863">
  <ele>-3.025</ele>
  <time>2026-09-01T01:16:58Z</time>
  <course>2.34</course>
  <speed>1.2301625908797584</speed>
  <fix>3d</fix>
</trkpt>
<trkpt lat="33.8104474" lon="-118.3938632">
  <ele>-2.95</ele>
  <time>2026-09-01T01:16:58Z</time>
  <course>0.16</course>
  <speed>1.27</speed>
  <fix>3d</fix>
</trkpt>
<trkpt lat="33.8104509" lon="-118.393863">
  <ele>-3.024</ele>
  <time>2026-09-01T01:16:58Z</time>
  <course>2.3</course>
  <speed>1.2301625908797584</speed>
  <fix>3d</fix>
</trkpt>
<trkpt lat="33.8104497" lon="-118.3938632">
  <ele>-2.94</ele>
  <time>2026-09-01T01:16:58Z</time>
  <course>0.13</course>
  <speed>1.28</speed>
  <fix>3d</fix>
</trkpt>
<trkpt lat="33.8104521" lon="-118.393863">
  <ele>-3.022</ele>
  <time>2026-09-01T01:16:58Z</time>
  <course>2.26</course>
  <speed>1.2401612798341997</speed>
  <fix>3d</fix>
</trkpt>
<trkpt lat="33.8104497" lon="-118.3938632">
  <ele>-2.94</ele>
  <time>2026-09-01T01:16:58Z</time>
  <course>0.13</course>
  <speed>1.28</speed>
  <fix>3d</fix>
</trkpt>
<trkpt lat="33.8104533" lon="-118.393863">
  <ele>-3.019</ele>
  <time>2026-09-01T01:16:58Z</time>
  <course>2.23</course>
  <speed>1.2401612798341997</speed>
  <fix>3d</fix>
</trkpt>
<trkpt lat="33.810452" lon="-118.3938632">
  <ele>-2.94</ele>
  <time>2026-09-01T01:16:58Z</time>
  <course>0.11</course>
  <speed>1.28</speed>
  <fix>3d</fix>
</trkpt>
<trkpt lat="33.8104544" lon="-118.393863">
  <ele>-3.018</ele>
  <time>2026-09-01T01:16:58Z</time>
  <course>2.19</course>
  <speed>1.2401612798341997</speed>
  <fix>3d</fix>
</trkpt>
<trkpt lat="33.810452" lon="-118.3938632">
  <ele>-2.94</ele>
  <time>2026-09-01T01:16:58Z</time>
  <course>0.11</course>
  <speed>1.28</speed>
  <fix>3d</fix>
</trkpt>
<trkpt lat="33.8104556" lon="-118.393863">
  <ele>-3.016</ele>
  <time>2026-09-01T01:16:58Z</time>
  <course>2.16</course>
  <speed>1.2401612798341997</speed>
  <fix>3d</fix>
</trkpt>
<trkpt lat="33.8104543" lon="-118.3938632">
  <ele>-2.94</ele>
  <time>2026-09-01T01:16:58Z</time>
  <course>0.11</course>
  <speed>1.28</speed>
  <fix>3d</fix>
</trkpt>
<trkpt lat="33.8104567" lon="-118.393863">
  <ele>-3.016</ele>
  <time>2026-09-01T01:16:58Z</time>
  <course>2.13</course>
  <speed>1.2401612798341997</speed>
  <fix>3d</fix>
</trkpt>
<trkpt lat="33.8104543" lon="-118.3938632">
  <ele>-2.94</ele>
  <time>2026-09-01T01:16:58Z</time>
  <course>0.11</course>
  <speed>1.28</speed>
  <fix>3d</fix>
</trkpt>
<trkpt lat="33.8104579" lon="-118.393863">
  <ele>-3.018</ele>
  <time>2026-09-01T01:16:58Z</time>
  <course>2.11</course>
  <speed>1.2401612798341997</speed>
  <fix>3d</fix>
</trkpt>
<trkpt lat="33.8104566" lon="-118.3938632">
  <ele>-2.94</ele>
  <time>2026-09-01T01:16:58Z</time>
  <course>0.11</course>
  <speed>1.28</speed>
  <fix>3d</fix>
</trkpt>
<trkpt lat="33.8104591" lon="-118.393863">
  <ele>-3.021</ele>
  <time>2026-09-01T01:16:58Z</time>
  <course>2.08</course>
  <speed>1.2501599897613105</speed>
  <fix>3d</fix>
</trkpt>
<trkpt lat="33.8104566" lon="-118.3938632">
  <ele>-2.94</ele>
  <time>2026-09-01T01:16:58Z</time>
  <course>0.11</course>
  <speed>1.28</speed>
  <fix>3d</fix>
</trkpt>
<trkpt lat="33.8104602" lon="-118.393863">
  <ele>-3.026</ele>
  <time>2026-09-01T01:16:58Z</time>
  <course>2.06</course>
  <speed>1.2501599897613105</speed>
  <fix>3d</fix>
</trkpt>
<trkpt lat="33.8104589" lon="-118.3938632">
  <ele>-2.95</ele>
  <time>2026-09-01T01:16:58Z</time>
  <course>0.11</course>
  <speed>1.29</speed>
  <fix>3d</fix>
</trkpt>
<trkpt lat="33.8104614" lon="-118.393863">
  <ele>-3.029</ele>
  <time>2026-09-01T01:16:58Z</time>
  <course>2.03</course>
  <speed>1.2501599897613105</speed>
  <fix>3d</fix>
</trkpt>
<trkpt lat="33.8104589" lon="-118.3938632">
  <ele>-2.95</ele>
  <time>2026-09-01T01:16:58Z</time>
  <course>0.11</course>
  <speed>1.29</speed>
  <fix>3d</fix>
</trkpt>
<trkpt lat="33.8104625" lon="-118.393863">
  <ele>-3.031</ele>
  <time>2026-09-01T01:16:58Z</time>
  <course>2.01</course>
  <speed>1.2601587201618691</speed>
  <fix>3d</fix>
</trkpt>
<trkpt lat="33.8104613" lon="-118.3938632">
  <ele>-2.95</ele>
  <time>2026-09-01T01:16:58Z</time>
  <course>0.11</course>
  <speed>1.29</speed>
  <fix>3d</fix>
</trkpt>
<trkpt lat="33.8104637" lon="-118.393863">
  <ele>-3.033</ele>
  <time>2026-09-01T01:16:58Z</time>
  <course>1.98</course>
  <speed>1.2601587201618691</speed>
  <fix>3d</fix>
</trkpt>
<trkpt lat="33.8104613" lon="-118.3938632">
  <ele>-2.95</ele>
  <time>2026-09-01T01:16:58Z</time>
  <course>0.11</course>
  <speed>1.29</speed>
  <fix>3d</fix>
</trkpt>
<trkpt lat="33.8104649" lon="-118.393863">
  <ele>-3.034</ele>
  <time>2026-09-01T01:16:58Z</time>
  <course>1.96</course>
  <speed>1.2601587201618691</speed>
  <fix>3d</fix>
</trkpt>
<trkpt lat="33.8104636" lon="-118.3938632">
  <ele>-2.96</ele>
  <time>2026-09-01T01:16:58Z</time>
  <course>0.11</course>
  <speed>1.3</speed>
  <fix>3d</fix>
</trkpt>
<trkpt lat="33.810466" lon="-118.393863">
  <ele>-3.033</ele>
  <time>2026-09-01T01:16:58Z</time>
  <course>1.94</course>
  <speed>1.2601587201618691</speed>
  <fix>3d</fix>
</trkpt>
<trkpt lat="33.8104636" lon="-118.3938632">
  <ele>-2.96</ele>
  <time>2026-09-01T01:16:58Z</time>
  <course>0.11</course>
  <speed>1.3</speed>
  <fix>3d</fix>
</trkpt>
<trkpt lat="33.8104672" lon="-118.393863">
  <ele>-3.032</ele>
  <time>2026-09-01T01:16:58Z</time>
  <course>1.92</course>
  <speed>1.2601587201618691</speed>
  <fix>3d</fix>
</trkpt>
<trkpt lat="33.810466" lon="-118.3938632">
  <ele>-2.96</ele>
  <time>2026-09-01T01:16:58Z</time>
  <course>0.1</course>
  <speed>1.3</speed>
  <fix>3d</fix>
</trkpt>
<trkpt lat="33.8104684" lon="-118.393863">
  <ele>-3.03</ele>
  <time>2026-09-01T01:16:58Z</time>
  <course>1.9</course>
  <speed>1.2601587201618691</speed>
  <fix>3d</fix>
</trkpt>
<trkpt lat="33.810466" lon="-118.3938632">
  <ele>-2.96</ele>
  <time>2026-09-01T01:16:58Z</time>
  <course>0.1</course>
  <speed>1.3</speed>
  <fix>3d</fix>
</trkpt>
<trkpt lat="33.8104696" lon="-118.393863">
  <ele>-3.027</ele>
  <time>2026-09-01T01:16:58Z</time>
  <course>1.89</course>
  <speed>1.2701574705523722</speed>
  <fix>3d</fix>
</trkpt>
<trkpt lat="33.8104683" lon="-118.3938632">
  <ele>-2.96</ele>
  <time>2026-09-01T01:16:58Z</time>
  <course>0.11</course>
  <speed>1.31</speed>
  <fix>3d</fix>
</trkpt>
<trkpt lat="33.8104707" lon="-118.393863">
  <ele>-3.023</ele>
  <time>2026-09-01T01:16:58Z</time>
  <course>1.87</course>
  <speed>1.2701574705523722</speed>
  <fix>3d</fix>
</trkpt>
<trkpt lat="33.8104683" lon="-118.3938632">
  <ele>-2.96</ele>
  <time>2026-09-01T01:16:58Z</time>
  <course>0.11</course>
  <speed>1.31</speed>
  <fix>3d</fix>
</trkpt>
<trkpt lat="33.8104719" lon="-118.393863">
  <ele>-3.02</ele>
  <time>2026-09-01T01:16:58Z</time>
  <course>1.85</course>
  <speed>1.2701574705523722</speed>
  <fix>3d</fix>
</trkpt>
<trkpt lat="33.8104706" lon="-118.3938632">
  <ele>-2.95</ele>
  <time>2026-09-01T01:16:58Z</time>
  <course>0.13</course>
  <speed>1.31</speed>
  <fix>3d</fix>
</trkpt>
<trkpt lat="33.8104731" lon="-118.393863">
  <ele>-3.019</ele>
  <time>2026-09-01T01:16:58Z</time>
  <course>1.84</course>
  <speed>1.2701574705523722</speed>
  <fix>3d</fix>
</trkpt>
<trkpt lat="33.8104706" lon="-118.3938632">
  <ele>-2.95</ele>
  <time>2026-09-01T01:16:58Z</time>
  <course>0.13</course>
  <speed>1.31</speed>
  <fix>3d</fix>
</trkpt>
<trkpt lat="33.8104743" lon="-118.393863">
  <ele>-3.018</ele>
  <time>2026-09-01T01:16:58Z</time>
  <course>1.82</course>
  <speed>1.2701574705523722</speed>
  <fix>3d</fix>
</trkpt>
<trkpt lat="33.810473" lon="-118.3938631">
  <ele>-2.95</ele>
  <time>2026-09-01T01:16:58Z</time>
  <course>0.14</course>
  <speed>1.31</speed>
  <fix>3d</fix>
</trkpt>
<trkpt lat="33.8104754" lon="-118.393863">
  <ele>-3.018</ele>
  <time>2026-09-01T01:16:58Z</time>
  <course>1.8</course>
  <speed>1.2701574705523722</speed>
  <fix>3d</fix>
</trkpt>
<trkpt lat="33.810473" lon="-118.3938631">
  <ele>-2.95</ele>
  <time>2026-09-01T01:16:58Z</time>
  <course>0.14</course>
  <speed>1.31</speed>
  <fix>3d</fix>
</trkpt>
<trkpt lat="33.8104766" lon="-118.393863">
  <ele>-3.02</ele>
  <time>2026-09-01T01:16:58Z</time>
  <course>1.77</course>
  <speed>1.2801562404644207</speed>
  <fix>3d</fix>
</trkpt>
<trkpt lat="33.8104754" lon="-118.3938631">
  <ele>-2.95</ele>
  <time>2026-09-01T01:16:58Z</time>
  <course>0.1</course>
  <speed>1.32</speed>
  <fix>3d</fix>
</trkpt>
<trkpt lat="33.8104778" lon="-118.393863">
  <ele>-3.021</ele>
  <time>2026-09-01T01:16:58Z</time>
  <course>1.72</course>
  <speed>1.2801562404644207</speed>
  <fix>3d</fix>
</trkpt>
<trkpt lat="33.8104754" lon="-118.3938631">
  <ele>-2.95</ele>
  <time>2026-09-01T01:16:58Z</time>
  <course>0.1</course>
  <speed>1.32</speed>
  <fix>3d</fix>
</trkpt>
<trkpt lat="33.810479" lon="-118.393863">
  <ele>-3.021</ele>
  <time>2026-09-01T01:16:58Z</time>
  <course>1.68</course>
  <speed>1.2801562404644207</speed>
  <fix>3d</fix>
</trkpt>
<trkpt lat="33.8104778" lon="-118.3938631">
  <ele>-2.95</ele>
  <time>2026-09-01T01:16:58Z</time>
  <course>0.04</course>
  <speed>1.32</speed>
  <fix>3d</fix>
</trkpt>
<trkpt lat="33.8104802" lon="-118.393863">
  <ele>-3.022</ele>
  <time>2026-09-01T01:16:58Z</time>
  <course>1.63</course>
  <speed>1.2801562404644207</speed>
  <fix>3d</fix>
</trkpt>
<trkpt lat="33.8104778" lon="-118.3938631">
  <ele>-2.95</ele>
  <time>2026-09-01T01:16:58Z</time>
  <course>0.04</course>
  <speed>1.32</speed>
  <fix>3d</fix>
</trkpt>
<trkpt lat="33.8104814" lon="-118.393863">
  <ele>-3.022</ele>
  <time>2026-09-01T01:16:58Z</time>
  <course>1.59</course>
  <speed>1.2800390619039717</speed>
  <fix>3d</fix>
</trkpt>
<trkpt lat="33.8104802" lon="-118.3938631">
  <ele>-2.95</ele>
  <time>2026-09-01T01:16:58Z</time>
  <course>359.99</course>
  <speed>1.32</speed>
  <fix>3d</fix>
</trkpt>
<trkpt lat="33.8104826" lon="-118.393863">
  <ele>-3.021</ele>
  <time>2026-09-01T01:16:58Z</time>
  <course>1.55</course>
  <speed>1.2800390619039717</speed>
  <fix>3d</fix>
</trkpt>
<trkpt lat="33.8104802" lon="-118.3938631">
  <ele>-2.95</ele>
  <time>2026-09-01T01:16:58Z</time>
  <course>359.99</course>
  <speed>1.32</speed>
  <fix>3d</fix>
</trkpt>
<trkpt lat="33.8104838" lon="-118.393863">
  <ele>-3.02</ele>
  <time>2026-09-01T01:16:58Z</time>
  <course>1.51</course>
  <speed>1.2800390619039717</speed>
  <fix>3d</fix>
</trkpt>
<trkpt lat="33.8104826" lon="-118.3938631">
  <ele>-2.95</ele>
  <time>2026-09-01T01:16:58Z</time>
  <course>359.92</course>
  <speed>1.33</speed>
  <fix>3d</fix>
</trkpt>
<trkpt lat="33.810485" lon="-118.393863">
  <ele>-3.019</ele>
  <time>2026-09-01T01:16:58Z</time>
  <course>1.48</course>
  <speed>1.2800390619039717</speed>
  <fix>3d</fix>
</trkpt>
<trkpt lat="33.8104826" lon="-118.3938631">
  <ele>-2.95</ele>
  <time>2026-09-01T01:16:58Z</time>
  <course>359.92</course>
  <speed>1.33</speed>
  <fix>3d</fix>
</trkpt>
<trkpt lat="33.8104862" lon="-118.393863">
  <ele>-3.02</ele>
  <time>2026-09-01T01:16:58Z</time>
  <course>1.45</course>
  <speed>1.2900387591076479</speed>
  <fix>3d</fix>
</trkpt>
<trkpt lat="33.810485" lon="-118.3938631">
  <ele>-2.95</ele>
  <time>2026-09-01T01:16:58Z</time>
  <course>359.88</course>
  <speed>1.33</speed>
  <fix>3d</fix>
</trkpt>
<trkpt lat="33.8104874" lon="-118.393863">
  <ele>-3.022</ele>
  <time>2026-09-01T01:16:58Z</time>
  <course>1.43</course>
  <speed>1.2900387591076479</speed>
  <fix>3d</fix>
</trkpt>
<trkpt lat="33.810485" lon="-118.3938631">
  <ele>-2.95</ele>
  <time>2026-09-01T01:16:58Z</time>
  <course>359.88</course>
  <speed>1.33</speed>
  <fix>3d</fix>
</trkpt>
<trkpt lat="33.8104886" lon="-118.393863">
  <ele>-3.024</ele>
  <time>2026-09-01T01:16:58Z</time>
  <course>1.4</course>
  <speed>1.2900387591076479</speed>
  <fix>3d</fix>
</trkpt>
<trkpt lat="33.8104874" lon="-118.3938631">
  <ele>-2.95</ele>
  <time>2026-09-01T01:16:58Z</time>
  <course>359.87</course>
  <speed>1.33</speed>
  <fix>3d</fix>
</trkpt>
<trkpt lat="33.8104898" lon="-118.393863">
  <ele>-3.026</ele>
  <time>2026-09-01T01:16:58Z</time>
  <course>1.38</course>
  <speed>1.2900387591076479</speed>
  <fix>3d</fix>
</trkpt>
<trkpt lat="33.8104874" lon="-118.3938631">
  <ele>-2.95</ele>
  <time>2026-09-01T01:16:58Z</time>
  <course>359.87</course>
  <speed>1.33</speed>
  <fix>3d</fix>
</trkpt>
<trkpt lat="33.810491" lon="-118.393863">
  <ele>-3.026</ele>
  <time>2026-09-01T01:16:58Z</time>
  <course>1.37</course>
  <speed>1.2900387591076479</speed>
  <fix>3d</fix>
</trkpt>
<trkpt lat="33.8104898" lon="-118.3938631">
  <ele>-2.95</ele>
  <time>2026-09-01T01:16:58Z</time>
  <course>359.85</course>
  <speed>1.33</speed>
  <fix>3d</fix>
</trkpt>
<trkpt lat="33.8104922" lon="-118.393863">
  <ele>-3.024</ele>
  <time>2026-09-01T01:16:58Z</time>
  <course>1.34</course>
  <speed>1.2900387591076479</speed>
  <fix>3d</fix>
</trkpt>
<trkpt lat="33.8104898" lon="-118.3938631">
  <ele>-2.95</ele>
  <time>2026-09-01T01:16:58Z</time>
  <course>359.85</course>
  <speed>1.33</speed>
  <fix>3d</fix>
</trkpt>
<trkpt lat="33.8104934" lon="-118.393863">
  <ele>-3.022</ele>
  <time>2026-09-01T01:16:58Z</time>
  <course>1.33</course>
  <speed>1.2900387591076479</speed>
  <fix>3d</fix>
</trkpt>
<trkpt lat="33.8104922" lon="-118.3938631">
  <ele>-2.95</ele>
  <time>2026-09-01T01:16:58Z</time>
  <course>359.83</course>
  <speed>1.33</speed>
  <fix>3d</fix>
</trkpt>
<trkpt lat="33.8104946" lon="-118.393863">
  <ele>-3.02</ele>
  <time>2026-09-01T01:16:58Z</time>
  <course>1.31</course>
  <speed>1.2900387591076479</speed>
  <fix>3d</fix>
</trkpt>
<trkpt lat="33.8104922" lon="-118.3938631">
  <ele>-2.95</ele>
  <time>2026-09-01T01:16:58Z</time>
  <course>359.83</course>
  <speed>1.33</speed>
  <fix>3d</fix>
</trkpt>
<trkpt lat="33.8104958" lon="-118.393863">
  <ele>-3.019</ele>
  <time>2026-09-01T01:16:58Z</time>
  <course>1.3</course>
  <speed>1.2900387591076479</speed>
  <fix>3d</fix>
</trkpt>
<trkpt lat="33.8104946" lon="-118.3938631">
  <ele>-2.94</ele>
  <time>2026-09-01T01:16:58Z</time>
  <course>359.81</course>
  <speed>1.33</speed>
  <fix>3d</fix>
</trkpt>
<trkpt lat="33.810497" lon="-118.393863">
  <ele>-3.018</ele>
  <time>2026-09-01T01:16:58Z</time>
  <course>1.29</course>
  <speed>1.3000384609695206</speed>
  <fix>3d</fix>
</trkpt>
<trkpt lat="33.8104946" lon="-118.3938631">
  <ele>-2.94</ele>
  <time>2026-09-01T01:16:58Z</time>
  <course>359.81</course>
  <speed>1.33</speed>
  <fix>3d</fix>
</trkpt>
<trkpt lat="33.8104982" lon="-118.393863">
  <ele>-3.017</ele>
  <time>2026-09-01T01:16:58Z</time>
  <course>1.28</course>
  <speed>1.3000384609695206</speed>
  <fix>3d</fix>
</trkpt>
<trkpt lat="33.810497" lon="-118.3938631">
  <ele>-2.94</ele>
  <time>2026-09-01T01:16:58Z</time>
  <course>359.8</course>
  <speed>1.33</speed>
  <fix>3d</fix>
</trkpt>
<trkpt lat="33.8104994" lon="-118.393863">
  <ele>-3.017</ele>
  <time>2026-09-01T01:16:58Z</time>
  <course>1.26</course>
  <speed>1.3000384609695206</speed>
  <fix>3d</fix>
</trkpt>
<trkpt lat="33.810497" lon="-118.3938631">
  <ele>-2.94</ele>
  <time>2026-09-01T01:16:58Z</time>
  <course>359.8</course>
  <speed>1.33</speed>
  <fix>3d</fix>
</trkpt>
<trkpt lat="33.8105006" lon="-118.393863">
  <ele>-3.018</ele>
  <time>2026-09-01T01:16:58Z</time>
  <course>1.25</course>
  <speed>1.3000384609695206</speed>
  <fix>3d</fix>
</trkpt>
<trkpt lat="33.8104994" lon="-118.3938631">
  <ele>-2.94</ele>
  <time>2026-09-01T01:16:58Z</time>
  <course>359.79</course>
  <speed>1.33</speed>
  <fix>3d</fix>
</trkpt>
<trkpt lat="33.8105019" lon="-118.393863">
  <ele>-3.019</ele>
  <time>2026-09-01T01:16:58Z</time>
  <course>1.25</course>
  <speed>1.3000384609695206</speed>
  <fix>3d</fix>
</trkpt>
<trkpt lat="33.8104994" lon="-118.3938631">
  <ele>-2.94</ele>
  <time>2026-09-01T01:16:58Z</time>
  <course>359.79</course>
  <speed>1.33</speed>
  <fix>3d</fix>
</trkpt>
<trkpt lat="33.8105031" lon="-118.393863">
  <ele>-3.02</ele>
  <time>2026-09-01T01:16:58Z</time>
  <course>1.24</course>
  <speed>1.3000384609695206</speed>
  <fix>3d</fix>
</trkpt>
<trkpt lat="33.8105018" lon="-118.3938631">
  <ele>-2.94</ele>
  <time>2026-09-01T01:16:58Z</time>
  <course>359.77</course>
  <speed>1.34</speed>
  <fix>3d</fix>
</trkpt>
<trkpt lat="33.8105043" lon="-118.393863">
  <ele>-3.02</ele>
  <time>2026-09-01T01:16:58Z</time>
  <course>1.23</course>
  <speed>1.3100381673829202</speed>
  <fix>3d</fix>
</trkpt>
<trkpt lat="33.8105018" lon="-118.3938631">
  <ele>-2.94</ele>
  <time>2026-09-01T01:16:58Z</time>
  <course>359.77</course>
  <speed>1.34</speed>
  <fix>3d</fix>
</trkpt>
<trkpt lat="33.8105055" lon="-118.393863">
  <ele>-3.02</ele>
  <time>2026-09-01T01:16:58Z</time>
  <course>1.22</course>
  <speed>1.3100381673829202</speed>
  <fix>3d</fix>
</trkpt>
<trkpt lat="33.8105041" lon="-118.3938631">
  <ele>-2.94</ele>
  <time>2026-09-01T01:16:58Z</time>
  <course>359.75</course>
  <speed>1.34</speed>
  <fix>3d</fix>
</trkpt>
<trkpt lat="33.8105067" lon="-118.393863">
  <ele>-3.02</ele>
  <time>2026-09-01T01:16:58Z</time>
  <course>1.21</course>
  <speed>1.3100381673829202</speed>
  <fix>3d</fix>
</trkpt>
<trkpt lat="33.8105041" lon="-118.3938631">
  <ele>-2.94</ele>
  <time>2026-09-01T01:16:58Z</time>
  <course>359.75</course>
  <speed>1.34</speed>
  <fix>3d</fix>
</trkpt>
<trkpt lat="33.8105079" lon="-118.393863">
  <ele>-3.02</ele>
  <time>2026-09-01T01:16:58Z</time>
  <course>1.2</course>
  <speed>1.3100381673829202</speed>
  <fix>3d</fix>
</trkpt>
<trkpt lat="33.8105065" lon="-118.3938631">
  <ele>-2.94</ele>
  <time>2026-09-01T01:16:58Z</time>
  <course>359.73</course>
  <speed>1.34</speed>
  <fix>3d</fix>
</trkpt>
<trkpt lat="33.8105091" lon="-118.393863">
  <ele>-3.02</ele>
  <time>2026-09-01T01:16:58Z</time>
  <course>1.19</course>
  <speed>1.3200378782444084</speed>
  <fix>3d</fix>
</trkpt>
<trkpt lat="33.8105065" lon="-118.3938631">
  <ele>-2.94</ele>
  <time>2026-09-01T01:16:58Z</time>
  <course>359.73</course>
  <speed>1.34</speed>
  <fix>3d</fix>
</trkpt>
<trkpt lat="33.8105104" lon="-118.393863">
  <ele>-3.018</ele>
  <time>2026-09-01T01:16:58Z</time>
  <course>1.19</course>
  <speed>1.3200378782444084</speed>
  <fix>3d</fix>
</trkpt>
<trkpt lat="33.810509" lon="-118.3938631">
  <ele>-2.94</ele>
  <time>2026-09-01T01:16:58Z</time>
  <course>359.71</course>
  <speed>1.35</speed>
  <fix>3d</fix>
</trkpt>
<trkpt lat="33.8105116" lon="-118.393863">
  <ele>-3.016</ele>
  <time>2026-09-01T01:16:58Z</time>
  <course>1.18</course>
  <speed>1.3200378782444084</speed>
  <fix>3d</fix>
</trkpt>
<trkpt lat="33.810509" lon="-118.3938631">
  <ele>-2.94</ele>
  <time>2026-09-01T01:16:58Z</time>
  <course>359.71</course>
  <speed>1.35</speed>
  <fix>3d</fix>
</trkpt>
<trkpt lat="33.8105128" lon="-118.393863">
  <ele>-3.015</ele>
  <time>2026-09-01T01:16:58Z</time>
  <course>1.17</course>
  <speed>1.3200378782444084</speed>
  <fix>3d</fix>
</trkpt>
<trkpt lat="33.8105114" lon="-118.3938631">
  <ele>-2.94</ele>
  <time>2026-09-01T01:16:58Z</time>
  <course>359.7</course>
  <speed>1.35</speed>
  <fix>3d</fix>
</trkpt>
<trkpt lat="33.810514" lon="-118.393863">
  <ele>-3.015</ele>
  <time>2026-09-01T01:16:58Z</time>
  <course>1.16</course>
  <speed>1.3200378782444084</speed>
  <fix>3d</fix>
</trkpt>
<trkpt lat="33.8105114" lon="-118.3938631">
  <ele>-2.94</ele>
  <time>2026-09-01T01:16:58Z</time>
  <course>359.7</course>
  <speed>1.35</speed>
  <fix>3d</fix>
</trkpt>
<trkpt lat="33.8105152" lon="-118.393863">
  <ele>-3.015</ele>
  <time>2026-09-01T01:16:58Z</time>
  <course>1.16</course>
  <speed>1.3300375934536586</speed>
  <fix>3d</fix>
</trkpt>
<trkpt lat="33.8105139" lon="-118.3938632">
  <ele>-2.94</ele>
  <time>2026-09-01T01:16:58Z</time>
  <course>359.68</course>
  <speed>1.36</speed>
  <fix>3d</fix>
</trkpt>
<trkpt lat="33.8105165" lon="-118.393863">
  <ele>-3.015</ele>
  <time>2026-09-01T01:16:58Z</time>
  <course>1.16</course>
  <speed>1.3301503674397117</speed>
  <fix>3d</fix>
</trkpt>
<trkpt lat="33.8105139" lon="-118.3938632">
  <ele>-2.94</ele>
  <time>2026-09-01T01:16:58Z</time>
  <course>359.68</course>
  <speed>1.36</speed>
  <fix>3d</fix>
</trkpt>
<trkpt lat="33.8105177" lon="-118.393863">
  <ele>-3.017</ele>
  <time>2026-09-01T01:16:58Z</time>
  <course>1.17</course>
  <speed>1.3301503674397117</speed>
  <fix>3d</fix>
</trkpt>
<trkpt lat="33.8105164" lon="-118.3938632">
  <ele>-2.94</ele>
  <time>2026-09-01T01:16:58Z</time>
  <course>359.7</course>
  <speed>1.36</speed>
  <fix>3d</fix>
</trkpt>
<trkpt lat="33.8105189" lon="-118.393863">
  <ele>-3.019</ele>
  <time>2026-09-01T01:16:58Z</time>
  <course>1.19</course>
  <speed>1.3301503674397117</speed>
  <fix>3d</fix>
</trkpt>
<trkpt lat="33.8105164" lon="-118.3938632">
  <ele>-2.94</ele>
  <time>2026-09-01T01:16:58Z</time>
  <course>359.7</course>
  <speed>1.36</speed>
  <fix>3d</fix>
</trkpt>
<trkpt lat="33.8105202" lon="-118.393863">
  <ele>-3.02</ele>
  <time>2026-09-01T01:16:58Z</time>
  <course>1.22</course>
  <speed>1.3301503674397117</speed>
  <fix>3d</fix>
</trkpt>
<trkpt lat="33.8105188" lon="-118.3938632">
  <ele>-2.94</ele>
  <time>2026-09-01T01:16:58Z</time>
  <course>359.76</course>
  <speed>1.36</speed>
  <fix>3d</fix>
</trkpt>
<trkpt lat="33.8105214" lon="-118.393863">
  <ele>-3.02</ele>
  <time>2026-09-01T01:16:58Z</time>
  <course>1.24</course>
  <speed>1.3301503674397117</speed>
  <fix>3d</fix>
</trkpt>
<trkpt lat="33.8105188" lon="-118.3938632">
  <ele>-2.94</ele>
  <time>2026-09-01T01:16:58Z</time>
  <course>359.76</course>
  <speed>1.36</speed>
  <fix>3d</fix>
</trkpt>
<trkpt lat="33.8105226" lon="-118.393863">
  <ele>-3.02</ele>
  <time>2026-09-01T01:16:58Z</time>
  <course>1.27</course>
  <speed>1.3301503674397117</speed>
  <fix>3d</fix>
</trkpt>
<trkpt lat="33.8105213" lon="-118.3938632">
  <ele>-2.94</ele>
  <time>2026-09-01T01:16:58Z</time>
  <course>359.81</course>
  <speed>1.37</speed>
  <fix>3d</fix>
</trkpt>
<trkpt lat="33.8105239" lon="-118.393863">
  <ele>-3.019</ele>
  <time>2026-09-01T01:16:58Z</time>
  <course>1.29</course>
  <speed>1.3301503674397117</speed>
  <fix>3d</fix>
</trkpt>
<trkpt lat="33.8105213" lon="-118.3938632">
  <ele>-2.94</ele>
  <time>2026-09-01T01:16:58Z</time>
  <course>359.81</course>
  <speed>1.37</speed>
  <fix>3d</fix>
</trkpt>
<trkpt lat="33.8105251" lon="-118.393863">
  <ele>-3.018</ele>
  <time>2026-09-01T01:16:58Z</time>
  <course>1.31</course>
  <speed>1.3101526628603246</speed>
  <fix>3d</fix>
</trkpt>
<trkpt lat="33.8105237" lon="-118.3938632">
  <ele>-2.94</ele>
  <time>2026-09-01T01:16:58Z</time>
  <course>359.86</course>
  <speed>1.36</speed>
  <fix>3d</fix>
</trkpt>
<trkpt lat="33.8105263" lon="-118.393863">
  <ele>-3.016</ele>
  <time>2026-09-01T01:16:58Z</time>
  <course>1.32</course>
  <speed>1.2901550294441362</speed>
  <fix>3d</fix>
</trkpt>
<trkpt lat="33.8105237" lon="-118.3938632">
  <ele>-2.94</ele>
  <time>2026-09-01T01:16:58Z</time>
  <course>359.86</course>
  <speed>1.36</speed>
  <fix>3d</fix>
</trkpt>
<trkpt lat="33.8105275" lon="-118.393863">
  <ele>-3.015</ele>
  <time>2026-09-01T01:16:58Z</time>
  <course>1.34</course>
  <speed>1.2701574705523722</speed>
  <fix>3d</fix>
</trkpt>
<trkpt lat="33.8105262" lon="-118.3938632">
  <ele>-2.94</ele>
  <time>2026-09-01T01:16:58Z</time>
  <course>359.9</course>
  <speed>1.34</speed>
  <fix>3d</fix>
</trkpt>
<trkpt lat="33.8105286" lon="-118.393863">
  <ele>-3.014</ele>
  <time>2026-09-01T01:16:58Z</time>
  <course>1.35</course>
  <speed>1.2401612798341997</speed>
  <fix>3d</fix>
</trkpt>
<trkpt lat="33.8105262" lon="-118.3938632">
  <ele>-2.94</ele>
  <time>2026-09-01T01:16:58Z</time>
  <course>359.9</course>
  <speed>1.34</speed>
  <fix>3d</fix>
</trkpt>
<trkpt lat="33.8105298" lon="-118.393863">
  <ele>-3.014</ele>
  <time>2026-09-01T01:16:58Z</time>
  <course>1.37</course>
  <speed>1.2001666550941998</speed>
  <fix>3d</fix>
</trkpt>
<trkpt lat="33.8105286" lon="-118.3938632">
  <ele>-2.94</ele>
  <time>2026-09-01T01:16:58Z</time>
  <course>359.97</course>
  <speed>1.29</speed>
  <fix>3d</fix>
</trkpt>
<trkpt lat="33.8105309" lon="-118.393863">
  <ele>-3.014</ele>
  <time>2026-09-01T01:16:58Z</time>
  <course>1.38</course>
  <speed>1.150173899895142</speed>
  <fix>3d</fix>
</trkpt>
<trkpt lat="33.8105286" lon="-118.3938632">
  <ele>-2.94</ele>
  <time>2026-09-01T01:16:58Z</time>
  <course>359.97</course>
  <speed>1.29</speed>
  <fix>3d</fix>
</trkpt>
<trkpt lat="33.8105319" lon="-118.393863">
  <ele>-3.014</ele>
  <time>2026-09-01T01:16:58Z</time>
  <course>1.41</course>
  <speed>1.1001818031580053</speed>
  <fix>3d</fix>
</trkpt>
<trkpt lat="33.8105308" lon="-118.3938632">
  <ele>-2.94</ele>
  <time>2026-09-01T01:16:58Z</time>
  <course>0.06</course>
  <speed>1.22</speed>
  <fix>3d</fix>
</trkpt>
<trkpt lat="33.8105329" lon="-118.393863">
  <ele>-3.016</ele>
  <time>2026-09-01T01:16:58Z</time>
  <course>1.43</course>
  <speed>1.0401922899156675</speed>
  <fix>3d</fix>
</trkpt>
<trkpt lat="33.8105308" lon="-118.3938632">
  <ele>-2.94</ele>
  <time>2026-09-01T01:16:58Z</time>
  <course>0.06</course>
  <speed>1.22</speed>
  <fix>3d</fix>
</trkpt>
<trkpt lat="33.8105339" lon="-118.393863">
  <ele>-3.018</ele>
  <time>2026-09-01T01:16:58Z</time>
  <course>1.47</course>
  <speed>0.9802040603874276</speed>
  <fix>3d</fix>
</trkpt>
<trkpt lat="33.8105329" lon="-118.3938632">
  <ele>-2.94</ele>
  <time>2026-09-01T01:16:58Z</time>
  <course>0.2</course>
  <speed>1.12</speed>
  <fix>3d</fix>
</trkpt>
<trkpt lat="33.8105348" lon="-118.393863">
  <ele>-3.02</ele>
  <time>2026-09-01T01:16:58Z</time>
  <course>1.51</course>
  <speed>0.9102197536858887</speed>
  <fix>3d</fix>
</trkpt>
<trkpt lat="33.8105329" lon="-118.3938632">
  <ele>-2.94</ele>
  <time>2026-09-01T01:16:58Z</time>
  <course>0.2</course>
  <speed>1.12</speed>
  <fix>3d</fix>
</trkpt>
<trkpt lat="33.8105356" lon="-118.393863">
  <ele>-3.02</ele>
  <time>2026-09-01T01:16:58Z</time>
  <course>1.57</course>
  <speed>0.8502352615599991</speed>
  <fix>3d</fix>
</trkpt>
<trkpt lat="33.8105348" lon="-118.3938632">
  <ele>-2.94</ele>
  <time>2026-09-01T01:16:58Z</time>
  <course>0.39</course>
  <speed>1.0</speed>
  <fix>3d</fix>
</trkpt>
<trkpt lat="33.8105364" lon="-118.393863">
  <ele>-3.02</ele>
  <time>2026-09-01T01:16:58Z</time>
  <course>1.63</course>
  <speed>0.7902531240052139</speed>
  <fix>3d</fix>
</trkpt>
<trkpt lat="33.8105348" lon="-118.3938632">
  <ele>-2.94</ele>
  <time>2026-09-01T01:16:58Z</time>
  <course>0.39</course>
  <speed>1.0</speed>
  <fix>3d</fix>
</trkpt>
<trkpt lat="33.8105371" lon="-118.393863">
  <ele>-3.018</ele>
  <time>2026-09-01T01:16:58Z</time>
  <course>1.71</course>
  <speed>0.7402702209328699</speed>
  <fix>3d</fix>
</trkpt>
<trkpt lat="33.8105365" lon="-118.3938632">
  <ele>-2.93</ele>
  <time>2026-09-01T01:16:58Z</time>
  <course>0.62</course>
  <speed>0.87</speed>
  <fix>3d</fix>
</trkpt>
<trkpt lat="33.8105378" lon="-118.393863">
  <ele>-3.016</ele>
  <time>2026-09-01T01:16:58Z</time>
  <course>1.8</course>
  <speed>0.7002856560004639</speed>
  <fix>3d</fix>
</trkpt>
<trkpt lat="33.8105365" lon="-118.3938632">
  <ele>-2.93</ele>
  <time>2026-09-01T01:16:58Z</time>
  <course>0.62</course>
  <speed>0.87</speed>
  <fix>3d</fix>
</trkpt>
<trkpt lat="33.8105385" lon="-118.393863">
  <ele>-3.014</ele>
  <time>2026-09-01T01:16:58Z</time>
  <course>1.91</course>
  <speed>0.660302960768767</speed>
  <fix>3d</fix>
</trkpt>
<trkpt lat="33.8105379" lon="-118.3938632">
  <ele>-2.93</ele>
  <time>2026-09-01T01:16:58Z</time>
  <course>0.84</course>
  <speed>0.76</speed>
  <fix>3d</fix>
</trkpt>
<trkpt lat="33.8105391" lon="-118.393863">
  <ele>-3.011</ele>
  <time>2026-09-01T01:16:58Z</time>
  <course>2.04</course>
  <speed>0.620322496770833</speed>
  <fix>3d</fix>
</trkpt>
<trkpt lat="33.8105379" lon="-118.3938632">
  <ele>-2.93</ele>
  <time>2026-09-01T01:16:58Z</time>
  <course>0.84</course>
  <speed>0.76</speed>
  <fix>3d</fix>
</trkpt>
<trkpt lat="33.8105397" lon="-118.393863">
  <ele>-3.009</ele>
  <time>2026-09-01T01:16:58Z</time>
  <course>2.2</course>
  <speed>0.5903388857258176</speed>
  <fix>3d</fix>
</trkpt>
<trkpt lat="33.8105393" lon="-118.3938632">
  <ele>-2.93</ele>
  <time>2026-09-01T01:16:58Z</time>
  <course>1.03</course>
  <speed>0.68</speed>
  <fix>3d</fix>
</trkpt>
<trkpt lat="33.8105402" lon="-118.393863">
  <ele>-3.009</ele>
  <time>2026-09-01T01:16:58Z</time>
  <course>2.37</course>
  <speed>0.560357029044876</speed>
  <fix>3d</fix>
</trkpt>
<trkpt lat="33.8105393" lon="-118.3938632">
  <ele>-2.93</ele>
  <time>2026-09-01T01:16:58Z</time>
  <course>1.03</course>
  <speed>0.68</speed>
  <fix>3d</fix>
</trkpt>
<trkpt lat="33.8105408" lon="-118.393863">
  <ele>-3.01</ele>
  <time>2026-09-01T01:16:58Z</time>
  <course>2.59</course>
  <speed>0.5403702434442519</speed>
  <fix>3d</fix>
</trkpt>
<trkpt lat="33.8105404" lon="-118.3938632">
  <ele>-2.93</ele>
  <time>2026-09-01T01:16:58Z</time>
  <course>1.15</course>
  <speed>0.61</speed>
  <fix>3d</fix>
</trkpt>
<trkpt lat="33.8105413" lon="-118.393863">
  <ele>-3.011</ele>
  <time>2026-09-01T01:16:58Z</time>
  <course>2.83</course>
  <speed>0.5303772242470448</speed>
  <fix>3d</fix>
</trkpt>
<trkpt lat="33.8105404" lon="-118.3938632">
  <ele>-2.93</ele>
  <time>2026-09-01T01:16:58Z</time>
  <course>1.15</course>
  <speed>0.61</speed>
  <fix>3d</fix>
</trkpt>
<trkpt lat="33.8105418" lon="-118.393863">
  <ele>-3.012</ele>
  <time>2026-09-01T01:16:58Z</time>
  <course>3.11</course>
  <speed>0.5200961449578337</speed>
  <fix>3d</fix>
</trkpt>
<trkpt lat="33.8105415" lon="-118.3938632">
  <ele>-2.93</ele>
  <time>2026-09-01T01:16:58Z</time>
  <course>1.15</course>
  <speed>0.56</speed>
  <fix>3d</fix>
</trkpt>
<trkpt lat="33.8105423" lon="-118.393863">
  <ele>-3.013</ele>
  <time>2026-09-01T01:16:58Z</time>
  <course>3.39</course>
  <speed>0.510098029794274</speed>
  <fix>3d</fix>
</trkpt>
<trkpt lat="33.8105415" lon="-118.3938632">
  <ele>-2.93</ele>
  <time>2026-09-01T01:16:58Z</time>
  <course>1.15</course>
  <speed>0.56</speed>
  <fix>3d</fix>
</trkpt>
<trkpt lat="33.8105428" lon="-118.393863">
  <ele>-3.015</ele>
  <time>2026-09-01T01:16:58Z</time>
  <course>3.71</course>
  <speed>0.5000999900019995</speed>
  <fix>3d</fix>
</trkpt>
<trkpt lat="33.8105424" lon="-118.3938632">
  <ele>-2.93</ele>
  <time>2026-09-01T01:16:58Z</time>
  <course>1.03</course>
  <speed>0.54</speed>
  <fix>3d</fix>
</trkpt>
<trkpt lat="33.8105433" lon="-118.393863">
  <ele>-3.016</ele>
  <time>2026-09-01T01:16:58Z</time>
  <course>4.04</course>
  <speed>0.4901020301937138</speed>
  <fix>3d</fix>
</trkpt>
<trkpt lat="33.8105424" lon="-118.3938632">
  <ele>-2.93</ele>
  <time>2026-09-01T01:16:58Z</time>
  <course>1.03</course>
  <speed>0.54</speed>
  <fix>3d</fix>
</trkpt>
<trkpt lat="33.8105437" lon="-118.393863">
  <ele>-3.016</ele>
  <time>2026-09-01T01:16:58Z</time>
  <course>4.41</course>
  <speed>0.4901020301937138</speed>
  <fix>3d</fix>
</trkpt>
<trkpt lat="33.8105434" lon="-118.3938631">
  <ele>-2.93</ele>
  <time>2026-09-01T01:16:58Z</time>
  <course>0.86</course>
  <speed>0.52</speed>
  <fix>3d</fix>
</trkpt>
<trkpt lat="33.8105442" lon="-118.393863">
  <ele>-3.016</ele>
  <time>2026-09-01T01:16:58Z</time>
  <course>4.77</course>
  <speed>0.4801041553663121</speed>
  <fix>3d</fix>
</trkpt>
<trkpt lat="33.8105434" lon="-118.3938631">
  <ele>-2.93</ele>
  <time>2026-09-01T01:16:58Z</time>
  <course>0.86</course>
  <speed>0.52</speed>
  <fix>3d</fix>
</trkpt>
<trkpt lat="33.8105447" lon="-118.393863">
  <ele>-3.016</ele>
  <time>2026-09-01T01:16:58Z</time>
  <course>5.1</course>
  <speed>0.47010637094172636</speed>
  <fix>3d</fix>
</trkpt>
<trkpt lat="33.8105444" lon="-118.3938631">
  <ele>-2.94</ele>
  <time>2026-09-01T01:16:58Z</time>
  <course>0.64</course>
  <speed>0.5</speed>
  <fix>3d</fix>
</trkpt>
<trkpt lat="33.8105451" lon="-118.393863">
  <ele>-3.015</ele>
  <time>2026-09-01T01:16:58Z</time>
  <course>5.35</course>
  <speed>0.47010637094172636</speed>
  <fix>3d</fix>
</trkpt>
<trkpt lat="33.8105444" lon="-118.3938631">
  <ele>-2.94</ele>
  <time>2026-09-01T01:16:58Z</time>
  <course>0.64</course>
  <speed>0.5</speed>
  <fix>3d</fix>
</trkpt>
<trkpt lat="33.8105456" lon="-118.393863">
  <ele>-3.015</ele>
  <time>2026-09-01T01:16:58Z</time>
  <course>5.58</course>
  <speed>0.46010868281309364</speed>
  <fix>3d</fix>
</trkpt>
<trkpt lat="33.8105453" lon="-118.3938631">
  <ele>-2.93</ele>
  <time>2026-09-01T01:16:58Z</time>
  <course>0.33</course>
  <speed>0.49</speed>
  <fix>3d</fix>
</trkpt>
<trkpt lat="33.810546" lon="-118.393863">
  <ele>-3.015</ele>
  <time>2026-09-01T01:16:58Z</time>
  <course>5.76</course>
  <speed>0.46010868281309364</speed>
  <fix>3d</fix>
</trkpt>
<trkpt lat="33.8105453" lon="-118.3938631">
  <ele>-2.93</ele>
  <time>2026-09-01T01:16:58Z</time>
  <course>0.33</course>
  <speed>0.49</speed>
  <fix>3d</fix>
</trkpt>
<trkpt lat="33.8105465" lon="-118.393863">
  <ele>-3.014</ele>
  <time>2026-09-01T01:16:58Z</time>
  <course>5.96</course>
  <speed>0.450111097397076</speed>
  <fix>3d</fix>
</trkpt>
<trkpt lat="33.8105462" lon="-118.3938631">
  <ele>-2.93</ele>
  <time>2026-09-01T01:16:58Z</time>
  <course>0.04</course>
  <speed>0.48</speed>
  <fix>3d</fix>
</trkpt>
<trkpt lat="33.8105469" lon="-118.393863">
  <ele>-3.012</ele>
  <time>2026-09-01T01:16:58Z</time>
  <course>6.14</course>
  <speed>0.450111097397076</speed>
  <fix>3d</fix>
</trkpt>
<trkpt lat="33.8105462" lon="-118.3938631">
  <ele>-2.93</ele>
  <time>2026-09-01T01:16:58Z</time>
  <course>0.04</course>
  <speed>0.48</speed>
  <fix>3d</fix>
</trkpt>
<trkpt lat="33.8105473" lon="-118.393863">
  <ele>-3.011</ele>
  <time>2026-09-01T01:16:58Z</time>
  <course>6.33</course>
  <speed>0.450111097397076</speed>
  <fix>3d</fix>
</trkpt>
<trkpt lat="33.810547" lon="-118.3938631">
  <ele>-2.93</ele>
  <time>2026-09-01T01:16:58Z</time>
  <course>359.79</course>
  <speed>0.47</speed>
  <fix>3d</fix>
</trkpt>
<trkpt lat="33.8105478" lon="-118.393863">
  <ele>-3.011</ele>
  <time>2026-09-01T01:16:58Z</time>
  <course>6.49</course>
  <speed>0.450111097397076</speed>
  <fix>3d</fix>
</trkpt>
<trkpt lat="33.810547" lon="-118.3938631">
  <ele>-2.93</ele>
  <time>2026-09-01T01:16:58Z</time>
  <course>359.79</course>
  <speed>0.47</speed>
  <fix>3d</fix>
</trkpt>
<trkpt lat="33.8105482" lon="-118.393863">
  <ele>-3.011</ele>
  <time>2026-09-01T01:16:58Z</time>
  <course>6.64</course>
  <speed>0.450111097397076</speed>
  <fix>3d</fix>
</trkpt>
<trkpt lat="33.8105479" lon="-118.3938631">
  <ele>-2.93</ele>
  <time>2026-09-01T01:16:58Z</time>
  <course>359.56</course>
  <speed>0.46</speed>
  <fix>3d</fix>
</trkpt>
<trkpt lat="33.8105486" lon="-118.393863">
  <ele>-3.011</ele>
  <time>2026-09-01T01:16:58Z</time>
  <course>6.75</course>
  <speed>0.450111097397076</speed>
  <fix>3d</fix>
</trkpt>
<trkpt lat="33.8105479" lon="-118.3938631">
  <ele>-2.93</ele>
  <time>2026-09-01T01:16:58Z</time>
  <course>359.56</course>
  <speed>0.46</speed>
  <fix>3d</fix>
</trkpt>
<trkpt lat="33.810549" lon="-118.393863">
  <ele>-3.012</ele>
  <time>2026-09-01T01:16:58Z</time>
  <course>6.86</course>
  <speed>0.450111097397076</speed>
  <fix>3d</fix>
</trkpt>
<trkpt lat="33.8105487" lon="-118.3938631">
  <ele>-2.93</ele>
  <time>2026-09-01T01:16:58Z</time>
  <course>359.36</course>
  <speed>0.46</speed>
  <fix>3d</fix>
</trkpt>
<trkpt lat="33.8105495" lon="-118.393863">
  <ele>-3.013</ele>
  <time>2026-09-01T01:16:58Z</time>
  <course>6.93</course>
  <speed>0.450111097397076</speed>
  <fix>3d</fix>
</trkpt>
<trkpt lat="33.8105487" lon="-118.3938631">
  <ele>-2.93</ele>
  <time>2026-09-01T01:16:58Z</time>
  <course>359.36</course>
  <speed>0.46</speed>
  <fix>3d</fix>
</trkpt>
<trkpt lat="33.8105499" lon="-118.393863">
  <ele>-3.012</ele>
  <time>2026-09-01T01:16:58Z</time>
  <course>6.96</course>
  <speed>0.47010637094172636</speed>
  <fix>3d</fix>
</trkpt>
<trkpt lat="33.8105496" lon="-118.3938631">
  <ele>-2.94</ele>
  <time>2026-09-01T01:16:58Z</time>
  <course>359.17</course>
  <speed>0.46</speed>
  <fix>3d</fix>
</trkpt>
<trkpt lat="33.8105504" lon="-118.393863">
  <ele>-3.012</ele>
  <time>2026-09-01T01:16:58Z</time>
  <course>6.82</course>
  <speed>0.4901020301937138</speed>
  <fix>3d</fix>
</trkpt>
<trkpt lat="33.8105496" lon="-118.3938631">
  <ele>-2.94</ele>
  <time>2026-09-01T01:16:58Z</time>
  <course>359.17</course>
  <speed>0.46</speed>
  <fix>3d</fix>
</trkpt>
<trkpt lat="33.8105508" lon="-118.393863">
  <ele>-3.013</ele>
  <time>2026-09-01T01:16:58Z</time>
  <course>6.5</course>
  <speed>0.5200961449578337</speed>
  <fix>3d</fix>
</trkpt>
<trkpt lat="33.8105504" lon="-118.3938631">
  <ele>-2.94</ele>
  <time>2026-09-01T01:16:58Z</time>
  <course>358.94</course>
  <speed>0.49</speed>
  <fix>3d</fix>
</trkpt>
<trkpt lat="33.8105514" lon="-118.393863">
  <ele>-3.014</ele>
  <time>2026-09-01T01:16:58Z</time>
  <course>6.01</course>
  <speed>0.5600892785976178</speed>
  <fix>3d</fix>
</trkpt>
<trkpt lat="33.8105504" lon="-118.3938631">
  <ele>-2.94</ele>
  <time>2026-09-01T01:16:58Z</time>
  <course>358.94</course>
  <speed>0.49</speed>
  <fix>3d</fix>
</trkpt>
<trkpt lat="33.8105519" lon="-118.393863">
  <ele>-3.014</ele>
  <time>2026-09-01T01:16:58Z</time>
  <course>5.43</course>
  <speed>0.6100819617067857</speed>
  <fix>3d</fix>
</trkpt>
<trkpt lat="33.8105513" lon="-118.3938631">
  <ele>-2.94</ele>
  <time>2026-09-01T01:16:58Z</time>
  <course>358.73</course>
  <speed>0.55</speed>
  <fix>3d</fix>
</trkpt>
<trkpt lat="33.8105525" lon="-118.393863">
  <ele>-3.014</ele>
  <time>2026-09-01T01:16:58Z</time>
  <course>4.82</course>
  <speed>0.66007575322837</speed>
  <fix>3d</fix>
</trkpt>
<trkpt lat="33.8105513" lon="-118.3938631">
  <ele>-2.94</ele>
  <time>2026-09-01T01:16:58Z</time>
  <course>358.73</course>
  <speed>0.55</speed>
  <fix>3d</fix>
</trkpt>
<trkpt lat="33.8105531" lon="-118.393863">
  <ele>-3.013</ele>
  <time>2026-09-01T01:16:58Z</time>
  <course>4.23</course>
  <speed>0.7100704190430693</speed>
  <fix>3d</fix>
</trkpt>
<trkpt lat="33.8105524" lon="-118.3938631">
  <ele>-2.94</ele>
  <time>2026-09-01T01:16:58Z</time>
  <course>358.65</course>
  <speed>0.64</speed>
  <fix>3d</fix>
</trkpt>
<trkpt lat="33.8105538" lon="-118.393863">
  <ele>-3.012</ele>
  <time>2026-09-01T01:16:58Z</time>
  <course>3.7</course>
  <speed>0.7600657866263946</speed>
  <fix>3d</fix>
</trkpt>
<trkpt lat="33.8105524" lon="-118.3938631">
  <ele>-2.94</ele>
  <time>2026-09-01T01:16:58Z</time>
  <course>358.65</course>
  <speed>0.64</speed>
  <fix>3d</fix>
</trkpt>
<trkpt lat="33.8105545" lon="-118.393863">
  <ele>-3.011</ele>
  <time>2026-09-01T01:16:58Z</time>
  <course>3.25</course>
  <speed>0.8000624975587844</speed>
  <fix>3d</fix>
</trkpt>
<trkpt lat="33.8105537" lon="-118.3938631">
  <ele>-2.94</ele>
  <time>2026-09-01T01:16:58Z</time>
  <course>358.68</course>
  <speed>0.74</speed>
  <fix>3d</fix>
</trkpt>
<trkpt lat="33.8105553" lon="-118.393863">
  <ele>-3.012</ele>
  <time>2026-09-01T01:16:58Z</time>
  <course>2.88</course>
  <speed>0.8200609733428362</speed>
  <fix>3d</fix>
</trkpt>
<trkpt lat="33.8105537" lon="-118.3938631">
  <ele>-2.94</ele>
  <time>2026-09-01T01:16:58Z</time>
  <course>358.68</course>
  <speed>0.74</speed>
  <fix>3d</fix>
</trkpt>
<trkpt lat="33.810556" lon="-118.393863">
  <ele>-3.012</ele>
  <time>2026-09-01T01:16:58Z</time>
  <course>2.6</course>
  <speed>0.8502352615599991</speed>
  <fix>3d</fix>
</trkpt>
<trkpt lat="33.8105551" lon="-118.3938632">
  <ele>-2.94</ele>
  <time>2026-09-01T01:16:58Z</time>
  <course>358.77</course>
  <speed>0.82</speed>
  <fix>3d</fix>
</trkpt>
<trkpt lat="33.8105568" lon="-118.393863">
  <ele>-3.014</ele>
  <time>2026-09-01T01:16:58Z</time>
  <course>2.37</course>
  <speed>0.8602325267042628</speed>
  <fix>3d</fix>
</trkpt>
<trkpt lat="33.8105551" lon="-118.3938632">
  <ele>-2.94</ele>
  <time>2026-09-01T01:16:58Z</time>
  <course>358.77</course>
  <speed>0.82</speed>
  <fix>3d</fix>
</trkpt>
<trkpt lat="33.8105576" lon="-118.393863">
  <ele>-3.015</ele>
  <time>2026-09-01T01:16:58Z</time>
  <course>2.22</course>
  <speed>0.8702298546935746</speed>
  <fix>3d</fix>
</trkpt>
<trkpt lat="33.8105566" lon="-118.3938632">
  <ele>-2.94</ele>
  <time>2026-09-01T01:16:58Z</time>
  <course>358.91</course>
  <speed>0.87</speed>
  <fix>3d</fix>
</trkpt>
<trkpt lat="33.8105584" lon="-118.393863">
  <ele>-3.017</ele>
  <time>2026-09-01T01:16:58Z</time>
  <course>2.12</course>
  <speed>0.8802272433866155</speed>
  <fix>3d</fix>
</trkpt>
<trkpt lat="33.8105566" lon="-118.3938632">
  <ele>-2.94</ele>
  <time>2026-09-01T01:16:58Z</time>
  <course>358.91</course>
  <speed>0.87</speed>
  <fix>3d</fix>
</trkpt>
<trkpt lat="33.8105592" lon="-118.393863">
  <ele>-3.018</ele>
  <time>2026-09-01T01:16:58Z</time>
  <course>2.06</course>
  <speed>0.8802272433866155</speed>
  <fix>3d</fix>
</trkpt>
<trkpt lat="33.8105582" lon="-118.3938633">
  <ele>-2.95</ele>
  <time>2026-09-01T01:16:58Z</time>
  <course>359.06</course>
  <speed>0.89</speed>
  <fix>3d</fix>
</trkpt>
<trkpt lat="33.81056" lon="-118.393863">
  <ele>-3.018</ele>
  <time>2026-09-01T01:16:58Z</time>
  <course>2.01</course>
  <speed>0.8902246907382428</speed>
  <fix>3d</fix>
</trkpt>
<trkpt lat="33.8105582" lon="-118.3938633">
  <ele>-2.95</ele>
  <time>2026-09-01T01:16:58Z</time>
  <course>359.06</course>
  <speed>0.89</speed>
  <fix>3d</fix>
</trkpt>
<trkpt lat="33.8105608" lon="-118.393863">
  <ele>-3.018</ele>
  <time>2026-09-01T01:16:58Z</time>
  <course>2.0</course>
  <speed>0.900222194794152</speed>
  <fix>3d</fix>
</trkpt>
<trkpt lat="33.8105598" lon="-118.3938633">
  <ele>-2.95</ele>
  <time>2026-09-01T01:16:58Z</time>
  <course>359.2</course>
  <speed>0.91</speed>
  <fix>3d</fix>
</trkpt>
<trkpt lat="33.8105617" lon="-118.393863">
  <ele>-3.018</ele>
  <time>2026-09-01T01:16:58Z</time>
  <course>2.0</course>
  <speed>0.9102197536858887</speed>
  <fix>3d</fix>
</trkpt>
<trkpt lat="33.8105598" lon="-118.3938633">
  <ele>-2.95</ele>
  <time>2026-09-01T01:16:58Z</time>
  <course>359.2</course>
  <speed>0.91</speed>
  <fix>3d</fix>
</trkpt>
<trkpt lat="33.8105625" lon="-118.393863">
  <ele>-3.017</ele>
  <time>2026-09-01T01:16:58Z</time>
  <course>2.02</course>
  <speed>0.9202173656261873</speed>
  <fix>3d</fix>
</trkpt>
<trkpt lat="33.8105615" lon="-118.3938633">
  <ele>-2.94</ele>
  <time>2026-09-01T01:16:58Z</time>
  <course>359.35</course>
  <speed>0.93</speed>
  <fix>3d</fix>
</trkpt>
<trkpt lat="33.8105634" lon="-118.393863">
  <ele>-3.015</ele>
  <time>2026-09-01T01:16:58Z</time>
  <course>2.03</course>
  <speed>0.9204890004774636</speed>
  <fix>3d</fix>
</trkpt>
<trkpt lat="33.8105615" lon="-118.3938633">
  <ele>-2.94</ele>
  <time>2026-09-01T01:16:58Z</time>
  <course>359.35</course>
  <speed>0.93</speed>
  <fix>3d</fix>
</trkpt>
<trkpt lat="33.8105642" lon="-118.393863">
  <ele>-3.013</ele>
  <time>2026-09-01T01:16:58Z</time>
  <course>2.05</course>
  <speed>0.9304837451562494</speed>
  <fix>3d</fix>
</trkpt>
<trkpt lat="33.8105632" lon="-118.3938633">
  <ele>-2.94</ele>
  <time>2026-09-01T01:16:58Z</time>
  <course>359.45</course>
  <speed>0.95</speed>
  <fix>3d</fix>
</trkpt>
<trkpt lat="33.8105651" lon="-118.393863">
  <ele>-3.011</ele>
  <time>2026-09-01T01:16:58Z</time>
  <course>2.06</course>
  <speed>0.9404786015641186</speed>
  <fix>3d</fix>
</trkpt>
<trkpt lat="33.8105632" lon="-118.3938633">
  <ele>-2.94</ele>
  <time>2026-09-01T01:16:58Z</time>
  <course>359.45</course>
  <speed>0.95</speed>
  <fix>3d</fix>
</trkpt>
<trkpt lat="33.8105659" lon="-118.393863">
  <ele>-3.009</ele>
  <time>2026-09-01T01:16:59Z</time>
  <course>2.07</course>
  <speed>0.9404786015641186</speed>
  <fix>3d</fix>
</trkpt>
<trkpt lat="33.8105649" lon="-118.3938634">
  <ele>-2.94</ele>
  <time>2026-09-01T01:16:59Z</time>
  <course>359.53</course>
  <speed>0.96</speed>
  <fix>3d</fix>
</trkpt>
<trkpt lat="33.8105668" lon="-118.393863">
  <ele>-3.008</ele>
  <time>2026-09-01T01:16:59Z</time>
  <course>2.09</course>
  <speed>0.9404786015641186</speed>
  <fix>3d</fix>
</trkpt>
<trkpt lat="33.8105649" lon="-118.3938634">
  <ele>-2.94</ele>
  <time>2026-09-01T01:16:59Z</time>
  <course>359.53</course>
  <speed>0.96</speed>
  <fix>3d</fix>
</trkpt>
<trkpt lat="33.8105677" lon="-118.393863">
  <ele>-3.009</ele>
  <time>2026-09-01T01:16:59Z</time>
  <course>2.12</course>
  <speed>0.9504735661763561</speed>
  <fix>3d</fix>
</trkpt>
<trkpt lat="33.8105666" lon="-118.3938634">
  <ele>-2.94</ele>
  <time>2026-09-01T01:16:59Z</time>
  <course>359.63</course>
  <speed>0.97</speed>
  <fix>3d</fix>
</trkpt>
<trkpt lat="33.8105686" lon="-118.393863">
  <ele>-3.01</ele>
  <time>2026-09-01T01:16:59Z</time>
  <course>2.16</course>
  <speed>0.9504735661763561</speed>
  <fix>3d</fix>
</trkpt>
<trkpt lat="33.8105666" lon="-118.3938634">
  <ele>-2.94</ele>
  <time>2026-09-01T01:16:59Z</time>
  <course>359.63</course>
  <speed>0.97</speed>
  <fix>3d</fix>
</trkpt>
<trkpt lat="33.8105694" lon="-118.393863">
  <ele>-3.011</ele>
  <time>2026-09-01T01:16:59Z</time>
  <course>2.2</course>
  <speed>0.9504735661763561</speed>
  <fix>3d</fix>
</trkpt>
<trkpt lat="33.8105684" lon="-118.3938634">
  <ele>-2.94</ele>
  <time>2026-09-01T01:16:59Z</time>
  <course>359.76</course>
  <speed>0.98</speed>
  <fix>3d</fix>
</trkpt>
<trkpt lat="33.8105703" lon="-118.393863">
  <ele>-3.012</ele>
  <time>2026-09-01T01:16:59Z</time>
  <course>2.25</course>
  <speed>0.9504735661763561</speed>
  <fix>3d</fix>
</trkpt>
<trkpt lat="33.8105684" lon="-118.3938634">
  <ele>-2.94</ele>
  <time>2026-09-01T01:16:59Z</time>
  <course>359.76</course>
  <speed>0.98</speed>
  <fix>3d</fix>
</trkpt>
<trkpt lat="33.8105712" lon="-118.393863">
  <ele>-3.013</ele>
  <time>2026-09-01T01:16:59Z</time>
  <course>2.3</course>
  <speed>0.9504735661763561</speed>
  <fix>3d</fix>
</trkpt>
<trkpt lat="33.8105702" lon="-118.3938634">
  <ele>-2.94</ele>
  <time>2026-09-01T01:16:59Z</time>
  <course>359.88</course>
  <speed>0.98</speed>
  <fix>3d</fix>
</trkpt>
<trkpt lat="33.8105721" lon="-118.393863">
  <ele>-3.013</ele>
  <time>2026-09-01T01:16:59Z</time>
  <course>2.32</course>
  <speed>0.9504735661763561</speed>
  <fix>3d</fix>
</trkpt>
<trkpt lat="33.8105702" lon="-118.3938634">
  <ele>-2.94</ele>
  <time>2026-09-01T01:16:59Z</time>
  <course>359.88</course>
  <speed>0.98</speed>
  <fix>3d</fix>
</trkpt>
<trkpt lat="33.810573" lon="-118.393863">
  <ele>-3.014</ele>
  <time>2026-09-01T01:16:59Z</time>
  <course>2.36</course>
  <speed>0.9604686356149272</speed>
  <fix>3d</fix>
</trkpt>
<trkpt lat="33.8105719" lon="-118.3938634">
  <ele>-2.94</ele>
  <time>2026-09-01T01:16:59Z</time>
  <course>359.97</course>
  <speed>0.99</speed>
  <fix>3d</fix>
</trkpt>
<trkpt lat="33.8105739" lon="-118.393863">
  <ele>-3.014</ele>
  <time>2026-09-01T01:16:59Z</time>
  <course>2.38</course>
  <speed>0.9704638066409278</speed>
  <fix>3d</fix>
</trkpt>
<trkpt lat="33.8105719" lon="-118.3938634">
  <ele>-2.94</ele>
  <time>2026-09-01T01:16:59Z</time>
  <course>359.97</course>
  <speed>0.99</speed>
  <fix>3d</fix>
</trkpt>
<trkpt lat="33.8105748" lon="-118.393863">
  <ele>-3.015</ele>
  <time>2026-09-01T01:16:59Z</time>
  <course>2.4</course>
  <speed>0.9804590761474953</speed>
  <fix>3d</fix>
</trkpt>
<trkpt lat="33.8105738" lon="-118.3938634">
  <ele>-2.94</ele>
  <time>2026-09-01T01:16:59Z</time>
  <course>0.03</course>
  <speed>1.0</speed>
  <fix>3d</fix>
</trkpt>
<trkpt lat="33.8105757" lon="-118.393863">
  <ele>-3.016</ele>
  <time>2026-09-01T01:16:59Z</time>
  <course>2.39</course>
  <speed>1.0104454463255303</speed>
  <fix>3d</fix>
</trkpt>
<trkpt lat="33.8105738" lon="-118.3938634">
  <ele>-2.94</ele>
  <time>2026-09-01T01:16:59Z</time>
  <course>0.03</course>
  <speed>1.0</speed>
  <fix>3d</fix>
</trkpt>
<trkpt lat="33.8105766" lon="-118.393863">
  <ele>-3.016</ele>
  <time>2026-09-01T01:16:59Z</time>
  <course>2.37</course>
  <speed>1.0404326023342407</speed>
  <fix>3d</fix>
</trkpt>
<trkpt lat="33.8105755" lon="-118.3938634">
  <ele>-2.94</ele>
  <time>2026-09-01T01:16:59Z</time>
  <course>0.03</course>
  <speed>1.03</speed>
  <fix>3d</fix>
</trkpt>
<trkpt lat="33.8105776" lon="-118.393863">
  <ele>-3.017</ele>
  <time>2026-09-01T01:16:59Z</time>
  <course>2.33</course>
  <speed>1.0804165863221464</speed>
  <fix>3d</fix>
</trkpt>
<trkpt lat="33.8105755" lon="-118.3938634">
  <ele>-2.94</ele>
  <time>2026-09-01T01:16:59Z</time>
  <course>0.03</course>
  <speed>1.03</speed>
  <fix>3d</fix>
</trkpt>
<trkpt lat="33.8105787" lon="-118.393863">
  <ele>-3.016</ele>
  <time>2026-09-01T01:16:59Z</time>
  <course>2.28</course>
  <speed>1.1303981599418853</speed>
  <fix>3d</fix>
</trkpt>
<trkpt lat="33.8105774" lon="-118.3938634">
  <ele>-2.94</ele>
  <time>2026-09-01T01:16:59Z</time>
  <course>359.98</course>
  <speed>1.09</speed>
  <fix>3d</fix>
</trkpt>
<trkpt lat="33.8105797" lon="-118.393863">
  <ele>-3.015</ele>
  <time>2026-09-01T01:16:59Z</time>
  <course>2.21</course>
  <speed>1.1803812943282352</speed>
  <fix>3d</fix>
</trkpt>
<trkpt lat="33.8105774" lon="-118.3938634">
  <ele>-2.94</ele>
  <time>2026-09-01T01:16:59Z</time>
  <course>359.98</course>
  <speed>1.09</speed>
  <fix>3d</fix>
</trkpt>
<trkpt lat="33.8105808" lon="-118.393863">
  <ele>-3.013</ele>
  <time>2026-09-01T01:16:59Z</time>
  <course>2.13</course>
  <speed>1.2303657992645927</speed>
  <fix>3d</fix>
</trkpt>
<trkpt lat="33.8105795" lon="-118.3938634">
  <ele>-2.94</ele>
  <time>2026-09-01T01:16:59Z</time>
  <course>359.92</course>
  <speed>1.18</speed>
  <fix>3d</fix>
</trkpt>
<trkpt lat="33.810582" lon="-118.393863">
  <ele>-3.01</ele>
  <time>2026-09-01T01:16:59Z</time>
  <course>2.04</course>
  <speed>1.2703542812932147</speed>
  <fix>3d</fix>
</trkpt>
<trkpt lat="33.8105795" lon="-118.3938634">
  <ele>-2.94</ele>
  <time>2026-09-01T01:16:59Z</time>
  <course>359.92</course>
  <speed>1.18</speed>
  <fix>3d</fix>
</trkpt>
<trkpt lat="33.8105832" lon="-118.393863">
  <ele>-3.007</ele>
  <time>2026-09-01T01:16:59Z</time>
  <course>1.96</course>
  <speed>1.3103434664239755</speed>
  <fix>3d</fix>
</trkpt>
<trkpt lat="33.8105817" lon="-118.3938634">
  <ele>-2.93</ele>
  <time>2026-09-01T01:16:59Z</time>
  <course>359.87</course>
  <speed>1.27</speed>
  <fix>3d</fix>
</trkpt>
<trkpt lat="33.8105844" lon="-118.393863">
  <ele>-3.004</ele>
  <time>2026-09-01T01:16:59Z</time>
  <course>1.89</course>
  <speed>1.330338302838793</speed>
  <fix>3d</fix>
</trkpt>
<trkpt lat="33.8105817" lon="-118.3938634">
  <ele>-2.93</ele>
  <time>2026-09-01T01:16:59Z</time>
  <course>359.87</course>
  <speed>1.27</speed>
  <fix>3d</fix>
</trkpt>
<trkpt lat="33.8105856" lon="-118.393863">
  <ele>-3.003</ele>
  <time>2026-09-01T01:16:59Z</time>
  <course>1.82</course>
  <speed>1.3503332921912277</speed>
  <fix>3d</fix>
</trkpt>
<trkpt lat="33.8105841" lon="-118.3938634">
  <ele>-2.93</ele>
  <time>2026-09-01T01:16:59Z</time>
  <course>359.88</course>
  <speed>1.35</speed>
  <fix>3d</fix>
</trkpt>
<trkpt lat="33.8105869" lon="-118.393863">
  <ele>-3.003</ele>
  <time>2026-09-01T01:16:59Z</time>
  <course>1.76</course>
  <speed>1.3703284277865655</speed>
  <fix>3d</fix>
</trkpt>
<trkpt lat="33.8105841" lon="-118.3938634">
  <ele>-2.93</ele>
  <time>2026-09-01T01:16:59Z</time>
  <course>359.88</course>
  <speed>1.35</speed>
  <fix>3d</fix>
</trkpt>
<trkpt lat="33.8105881" lon="-118.393863">
  <ele>-3.005</ele>
  <time>2026-09-01T01:16:59Z</time>
  <course>1.71</course>
  <speed>1.3703284277865655</speed>
  <fix>3d</fix>
</trkpt>
<trkpt lat="33.8105866" lon="-118.3938634">
  <ele>-2.93</ele>
  <time>2026-09-01T01:16:59Z</time>
  <course>359.93</course>
  <speed>1.39</speed>
  <fix>3d</fix>
</trkpt>
<trkpt lat="33.8105894" lon="-118.393863">
  <ele>-3.006</ele>
  <time>2026-09-01T01:16:59Z</time>
  <course>1.67</course>
  <speed>1.3703284277865655</speed>
  <fix>3d</fix>
</trkpt>
<trkpt lat="33.8105866" lon="-118.3938634">
  <ele>-2.93</ele>
  <time>2026-09-01T01:16:59Z</time>
  <course>359.93</course>
  <speed>1.39</speed>
  <fix>3d</fix>
</trkpt>
<trkpt lat="33.8105906" lon="-118.393863">
  <ele>-3.007</ele>
  <time>2026-09-01T01:16:59Z</time>
  <course>1.64</course>
  <speed>1.3803260484392808</speed>
  <fix>3d</fix>
</trkpt>
<trkpt lat="33.8105891" lon="-118.3938634">
  <ele>-2.93</ele>
  <time>2026-09-01T01:16:59Z</time>
  <course>0.0</course>
  <speed>1.41</speed>
  <fix>3d</fix>
</trkpt>
<trkpt lat="33.8105919" lon="-118.393863">
  <ele>-3.008</ele>
  <time>2026-09-01T01:16:59Z</time>
  <course>1.61</course>
  <speed>1.390323703315167</speed>
  <fix>3d</fix>
</trkpt>
<trkpt lat="33.8105891" lon="-118.3938634">
  <ele>-2.93</ele>
  <time>2026-09-01T01:16:59Z</time>
  <course>0.0</course>
  <speed>1.41</speed>
  <fix>3d</fix>
</trkpt>
<trkpt lat="33.8105932" lon="-118.393863">
  <ele>-3.008</ele>
  <time>2026-09-01T01:16:59Z</time>
  <course>1.59</course>
  <speed>1.390323703315167</speed>
  <fix>3d</fix>
</trkpt>
<trkpt lat="33.8105916" lon="-118.3938634">
  <ele>-2.94</ele>
  <time>2026-09-01T01:16:59Z</time>
  <course>0.07</course>
  <speed>1.42</speed>
  <fix>3d</fix>
</trkpt>
<trkpt lat="33.8105945" lon="-118.393863">
  <ele>-3.009</ele>
  <time>2026-09-01T01:16:59Z</time>
  <course>1.56</course>
  <speed>1.4003213916812098</speed>
  <fix>3d</fix>
</trkpt>
<trkpt lat="33.8105916" lon="-118.3938634">
  <ele>-2.94</ele>
  <time>2026-09-01T01:16:59Z</time>
  <course>0.07</course>
  <speed>1.42</speed>
  <fix>3d</fix>
</trkpt>
<trkpt lat="33.8105958" lon="-118.393863">
  <ele>-3.009</ele>
  <time>2026-09-01T01:16:59Z</time>
  <course>1.54</course>
  <speed>1.4003213916812098</speed>
  <fix>3d</fix>
</trkpt>
<trkpt lat="33.8105943" lon="-118.3938634">
  <ele>-2.94</ele>
  <time>2026-09-01T01:16:59Z</time>
  <course>0.13</course>
  <speed>1.43</speed>
  <fix>3d</fix>
</trkpt>
<trkpt lat="33.8105971" lon="-118.393863">
  <ele>-3.009</ele>
  <time>2026-09-01T01:16:59Z</time>
  <course>1.52</course>
  <speed>1.4003213916812098</speed>
  <fix>3d</fix>
</trkpt>
<trkpt lat="33.8105943" lon="-118.3938634">
  <ele>-2.94</ele>
  <time>2026-09-01T01:16:59Z</time>
  <course>0.13</course>
  <speed>1.43</speed>
  <fix>3d</fix>
</trkpt>
<trkpt lat="33.8105984" lon="-118.393863">
  <ele>-3.009</ele>
  <time>2026-09-01T01:16:59Z</time>
  <course>1.5</course>
  <speed>1.4003213916812098</speed>
  <fix>3d</fix>
</trkpt>
<trkpt lat="33.8105969" lon="-118.3938634">
  <ele>-2.94</ele>
  <time>2026-09-01T01:16:59Z</time>
  <course>0.17</course>
  <speed>1.44</speed>
  <fix>3d</fix>
</trkpt>
<trkpt lat="33.8105997" lon="-118.393863">
  <ele>-3.008</ele>
  <time>2026-09-01T01:16:59Z</time>
  <course>1.48</course>
  <speed>1.4003213916812098</speed>
  <fix>3d</fix>
</trkpt>
<trkpt lat="33.8105969" lon="-118.3938634">
  <ele>-2.94</ele>
  <time>2026-09-01T01:16:59Z</time>
  <course>0.17</course>
  <speed>1.44</speed>
  <fix>3d</fix>
</trkpt>
<trkpt lat="33.810601" lon="-118.393863">
  <ele>-3.009</ele>
  <time>2026-09-01T01:16:59Z</time>
  <course>1.47</course>
  <speed>1.4003213916812098</speed>
  <fix>3d</fix>
</trkpt>
<trkpt lat="33.8105994" lon="-118.3938634">
  <ele>-2.94</ele>
  <time>2026-09-01T01:16:59Z</time>
  <course>0.22</course>
  <speed>1.44</speed>
  <fix>3d</fix>
</trkpt>
<trkpt lat="33.8106022" lon="-118.393863">
  <ele>-3.01</ele>
  <time>2026-09-01T01:16:59Z</time>
  <course>1.45</course>
  <speed>1.4003213916812098</speed>
  <fix>3d</fix>
</trkpt>
<trkpt lat="33.8105994" lon="-118.3938634">
  <ele>-2.94</ele>
  <time>2026-09-01T01:16:59Z</time>
  <course>0.22</course>
  <speed>1.44</speed>
  <fix>3d</fix>
</trkpt>
<trkpt lat="33.8106035" lon="-118.393863">
  <ele>-3.012</ele>
  <time>2026-09-01T01:16:59Z</time>
  <course>1.43</course>
  <speed>1.4003213916812098</speed>
  <fix>3d</fix>
</trkpt>
<trkpt lat="33.810602" lon="-118.3938634">
  <ele>-2.95</ele>
  <time>2026-09-01T01:16:59Z</time>
  <course>0.26</course>
  <speed>1.44</speed>
  <fix>3d</fix>
</trkpt>
<trkpt lat="33.8106048" lon="-118.393863">
  <ele>-3.013</ele>
  <time>2026-09-01T01:16:59Z</time>
  <course>1.41</course>
  <speed>1.4003213916812098</speed>
  <fix>3d</fix>
</trkpt>
<trkpt lat="33.810602" lon="-118.3938634">
  <ele>-2.95</ele>
  <time>2026-09-01T01:16:59Z</time>
  <course>0.26</course>
  <speed>1.44</speed>
  <fix>3d</fix>
</trkpt>
<trkpt lat="33.8106061" lon="-118.393863">
  <ele>-3.014</ele>
  <time>2026-09-01T01:16:59Z</time>
  <course>1.4</course>
  <speed>1.4003213916812098</speed>
  <fix>3d</fix>
</trkpt>
<trkpt lat="33.8106047" lon="-118.3938634">
  <ele>-2.95</ele>
  <time>2026-09-01T01:16:59Z</time>
  <course>0.3</course>
  <speed>1.44</speed>
  <fix>3d</fix>
</trkpt>
<trkpt lat="33.8106074" lon="-118.393863">
  <ele>-3.013</ele>
  <time>2026-09-01T01:16:59Z</time>
  <course>1.39</course>
  <speed>1.4003213916812098</speed>
  <fix>3d</fix>
</trkpt>
<trkpt lat="33.8106047" lon="-118.3938634">
  <ele>-2.95</ele>
  <time>2026-09-01T01:16:59Z</time>
  <course>0.3</course>
  <speed>1.44</speed>
  <fix>3d</fix>
</trkpt>
<trkpt lat="33.8106087" lon="-118.393863">
  <ele>-3.012</ele>
  <time>2026-09-01T01:16:59Z</time>
  <course>1.38</course>
  <speed>1.390323703315167</speed>
  <fix>3d</fix>
</trkpt>
<trkpt lat="33.8106073" lon="-118.3938634">
  <ele>-2.94</ele>
  <time>2026-09-01T01:16:59Z</time>
  <course>0.35</course>
  <speed>1.44</speed>
  <fix>3d</fix>
</trkpt>
<trkpt lat="33.81061" lon="-118.393863">
  <ele>-3.011</ele>
  <time>2026-09-01T01:16:59Z</time>
  <course>1.37</course>
  <speed>1.390323703315167</speed>
  <fix>3d</fix>
</trkpt>
<trkpt lat="33.8106073" lon="-118.3938634">
  <ele>-2.94</ele>
  <time>2026-09-01T01:16:59Z</time>
  <course>0.35</course>
  <speed>1.44</speed>
  <fix>3d</fix>
</trkpt>
<trkpt lat="33.8106113" lon="-118.393863">
  <ele>-3.01</ele>
  <time>2026-09-01T01:16:59Z</time>
  <course>1.37</course>
  <speed>1.390323703315167</speed>
  <fix>3d</fix>
</trkpt>
<trkpt lat="33.8106098" lon="-118.3938634">
  <ele>-2.94</ele>
  <time>2026-09-01T01:16:59Z</time>
  <course>0.4</course>
  <speed>1.43</speed>
  <fix>3d</fix>
</trkpt>
<trkpt lat="33.8106125" lon="-118.393863">
  <ele>-3.01</ele>
  <time>2026-09-01T01:16:59Z</time>
  <course>1.36</course>
  <speed>1.3803260484392808</speed>
  <fix>3d</fix>
</trkpt>
<trkpt lat="33.8106098" lon="-118.3938634">
  <ele>-2.94</ele>
  <time>2026-09-01T01:16:59Z</time>
  <course>0.4</course>
  <speed>1.43</speed>
  <fix>3d</fix>
</trkpt>
<trkpt lat="33.8106138" lon="-118.393863">
  <ele>-3.01</ele>
  <time>2026-09-01T01:16:59Z</time>
  <course>1.35</course>
  <speed>1.3603308421115798</speed>
  <fix>3d</fix>
</trkpt>
<trkpt lat="33.8106123" lon="-118.3938634">
  <ele>-2.93</ele>
  <time>2026-09-01T01:16:59Z</time>
  <course>0.46</course>
  <speed>1.42</speed>
  <fix>3d</fix>
</trkpt>
<trkpt lat="33.810615" lon="-118.393863">
  <ele>-3.011</ele>
  <time>2026-09-01T01:16:59Z</time>
  <course>1.34</course>
  <speed>1.3403357788255896</speed>
  <fix>3d</fix>
</trkpt>
<trkpt lat="33.8106123" lon="-118.3938634">
  <ele>-2.93</ele>
  <time>2026-09-01T01:16:59Z</time>
  <course>0.46</course>
  <speed>1.42</speed>
  <fix>3d</fix>
</trkpt>
<trkpt lat="33.8106163" lon="-118.393863">
  <ele>-3.011</ele>
  <time>2026-09-01T01:16:59Z</time>
  <course>1.34</course>
  <speed>1.3103434664239755</speed>
  <fix>3d</fix>
</trkpt>
<trkpt lat="33.8106149" lon="-118.3938634">
  <ele>-2.93</ele>
  <time>2026-09-01T01:16:59Z</time>
  <course>0.53</course>
  <speed>1.39</speed>
  <fix>3d</fix>
</trkpt>
<trkpt lat="33.8106175" lon="-118.393863">
  <ele>-3.011</ele>
  <time>2026-09-01T01:16:59Z</time>
  <course>1.33</course>
  <speed>1.2703542812932147</speed>
  <fix>3d</fix>
</trkpt>
<trkpt lat="33.8106149" lon="-118.3938634">
  <ele>-2.93</ele>
  <time>2026-09-01T01:16:59Z</time>
  <course>0.53</course>
  <speed>1.39</speed>
  <fix>3d</fix>
</trkpt>
<trkpt lat="33.8106186" lon="-118.393863">
  <ele>-3.011</ele>
  <time>2026-09-01T01:16:59Z</time>
  <course>1.35</course>
  <speed>1.2303657992645927</speed>
  <fix>3d</fix>
</trkpt>
<trkpt lat="33.8106174" lon="-118.3938633">
  <ele>-2.93</ele>
  <time>2026-09-01T01:16:59Z</time>
  <course>0.65</course>
  <speed>1.34</speed>
  <fix>3d</fix>
</trkpt>
<trkpt lat="33.8106197" lon="-118.393863">
  <ele>-3.011</ele>
  <time>2026-09-01T01:16:59Z</time>
  <course>1.35</course>
  <speed>1.1803812943282352</speed>
  <fix>3d</fix>
</trkpt>
<trkpt lat="33.8106174" lon="-118.3938633">
  <ele>-2.93</ele>
  <time>2026-09-01T01:16:59Z</time>
  <course>0.65</course>
  <speed>1.34</speed>
  <fix>3d</fix>
</trkpt>
<trkpt lat="33.8106208" lon="-118.393863">
  <ele>-3.01</ele>
  <time>2026-09-01T01:16:59Z</time>
  <course>1.36</course>
  <speed>1.1204017136723774</speed>
  <fix>3d</fix>
</trkpt>
<trkpt lat="33.8106197" lon="-118.3938633">
  <ele>-2.92</ele>
  <time>2026-09-01T01:16:59Z</time>
  <course>0.79</course>
  <speed>1.25</speed>
  <fix>3d</fix>
</trkpt>
<trkpt lat="33.8106218" lon="-118.393863">
  <ele>-3.008</ele>
  <time>2026-09-01T01:16:59Z</time>
  <course>1.35</course>
  <speed>1.0604244433244643</speed>
  <fix>3d</fix>
</trkpt>
<trkpt lat="33.8106197" lon="-118.3938633">
  <ele>-2.92</ele>
  <time>2026-09-01T01:16:59Z</time>
  <course>0.79</course>
  <speed>1.25</speed>
  <fix>3d</fix>
</trkpt>
<trkpt lat="33.8106228" lon="-118.393863">
  <ele>-3.005</ele>
  <time>2026-09-01T01:16:59Z</time>
  <course>1.36</course>
  <speed>0.9902019995940222</speed>
  <fix>3d</fix>
</trkpt>
<trkpt lat="33.8106219" lon="-118.3938632">
  <ele>-2.92</ele>
  <time>2026-09-01T01:16:59Z</time>
  <course>0.95</course>
  <speed>1.14</speed>
  <fix>3d</fix>
</trkpt>
<trkpt lat="33.8106237" lon="-118.393863">
  <ele>-3.003</ele>
  <time>2026-09-01T01:16:59Z</time>
  <course>1.36</course>
  <speed>0.9202173656261873</speed>
  <fix>3d</fix>
</trkpt>
<trkpt lat="33.8106219" lon="-118.3938632">
  <ele>-2.92</ele>
  <time>2026-09-01T01:16:59Z</time>
  <course>0.95</course>
  <speed>1.14</speed>
  <fix>3d</fix>
</trkpt>
<trkpt lat="33.8106246" lon="-118.393863">
  <ele>-3.003</ele>
  <time>2026-09-01T01:16:59Z</time>
  <course>1.35</course>
  <speed>0.8602325267042628</speed>
  <fix>3d</fix>
</trkpt>
<trkpt lat="33.8106238" lon="-118.3938632">
  <ele>-2.92</ele>
  <time>2026-09-01T01:16:59Z</time>
  <course>1.14</course>
  <speed>1.01</speed>
  <fix>3d</fix>
</trkpt>
<trkpt lat="33.8106253" lon="-118.393863">
  <ele>-3.001</ele>
  <time>2026-09-01T01:16:59Z</time>
  <course>1.35</course>
  <speed>0.8002499609497022</speed>
  <fix>3d</fix>
</trkpt>
<trkpt lat="33.8106238" lon="-118.3938632">
  <ele>-2.92</ele>
  <time>2026-09-01T01:16:59Z</time>
  <course>1.14</course>
  <speed>1.01</speed>
  <fix>3d</fix>
</trkpt>
<trkpt lat="33.8106261" lon="-118.393863">
  <ele>-3.0</ele>
  <time>2026-09-01T01:16:59Z</time>
  <course>1.34</course>
  <speed>0.7502666192761077</speed>
  <fix>3d</fix>
</trkpt>
<trkpt lat="33.8106255" lon="-118.3938632">
  <ele>-2.91</ele>
  <time>2026-09-01T01:16:59Z</time>
  <course>1.34</course>
  <speed>0.88</speed>
  <fix>3d</fix>
</trkpt>
<trkpt lat="33.8106268" lon="-118.393863">
  <ele>-2.999</ele>
  <time>2026-09-01T01:16:59Z</time>
  <course>1.33</course>
  <speed>0.7002856560004639</speed>
  <fix>3d</fix>
</trkpt>
<trkpt lat="33.8106255" lon="-118.3938632">
  <ele>-2.91</ele>
  <time>2026-09-01T01:16:59Z</time>
  <course>1.34</course>
  <speed>0.88</speed>
  <fix>3d</fix>
</trkpt>
<trkpt lat="33.8106274" lon="-118.393863">
  <ele>-2.999</ele>
  <time>2026-09-01T01:16:59Z</time>
  <course>1.34</course>
  <speed>0.660302960768767</speed>
  <fix>3d</fix>
</trkpt>
<trkpt lat="33.8106271" lon="-118.3938631">
  <ele>-2.91</ele>
  <time>2026-09-01T01:16:59Z</time>
  <course>1.53</course>
  <speed>0.77</speed>
  <fix>3d</fix>
</trkpt>
<trkpt lat="33.8106281" lon="-118.393863">
  <ele>-3.0</ele>
  <time>2026-09-01T01:16:59Z</time>
  <course>1.33</course>
  <speed>0.620322496770833</speed>
  <fix>3d</fix>
</trkpt>
<trkpt lat="33.8106271" lon="-118.3938631">
  <ele>-2.91</ele>
  <time>2026-09-01T01:16:59Z</time>
  <course>1.53</course>
  <speed>0.77</speed>
  <fix>3d</fix>
</trkpt>
<trkpt lat="33.8106287" lon="-118.393863">
  <ele>-3.002</ele>
  <time>2026-09-01T01:16:59Z</time>
  <course>1.31</course>
  <speed>0.5900847396772771</speed>
  <fix>3d</fix>
</trkpt>
<trkpt lat="33.8106284" lon="-118.3938631">
  <ele>-2.91</ele>
  <time>2026-09-01T01:16:59Z</time>
  <course>1.65</course>
  <speed>0.68</speed>
  <fix>3d</fix>
</trkpt>
<trkpt lat="33.8106292" lon="-118.3938629">
  <ele>-3.004</ele>
  <time>2026-09-01T01:16:59Z</time>
  <course>1.26</course>
  <speed>0.5600892785976178</speed>
  <fix>3d</fix>
</trkpt>
<trkpt lat="33.8106284" lon="-118.3938631">
  <ele>-2.91</ele>
  <time>2026-09-01T01:16:59Z</time>
  <course>1.65</course>
  <speed>0.68</speed>
  <fix>3d</fix>
</trkpt>
<trkpt lat="33.8106298" lon="-118.3938629">
  <ele>-3.006</ele>
  <time>2026-09-01T01:16:59Z</time>
  <course>1.18</course>
  <speed>0.540092584655631</speed>
  <fix>3d</fix>
</trkpt>
<trkpt lat="33.8106295" lon="-118.393863">
  <ele>-2.92</ele>
  <time>2026-09-01T01:16:59Z</time>
  <course>1.64</course>
  <speed>0.61</speed>
  <fix>3d</fix>
</trkpt>
<trkpt lat="33.8106303" lon="-118.3938629">
  <ele>-3.005</ele>
  <time>2026-09-01T01:16:59Z</time>
  <course>1.05</course>
  <speed>0.5300943312279428</speed>
  <fix>3d</fix>
</trkpt>
<trkpt lat="33.8106295" lon="-118.393863">
  <ele>-2.92</ele>
  <time>2026-09-01T01:16:59Z</time>
  <course>1.64</course>
  <speed>0.61</speed>
  <fix>3d</fix>
</trkpt>
<trkpt lat="33.8106308" lon="-118.3938629">
  <ele>-3.004</ele>
  <time>2026-09-01T01:16:59Z</time>
  <course>0.87</course>
  <speed>0.5200961449578337</speed>
  <fix>3d</fix>
</trkpt>
<trkpt lat="33.8106305" lon="-118.393863">
  <ele>-2.92</ele>
  <time>2026-09-01T01:16:59Z</time>
  <course>1.49</course>
  <speed>0.56</speed>
  <fix>3d</fix>
</trkpt>
<trkpt lat="33.8106313" lon="-118.3938629">
  <ele>-3.002</ele>
  <time>2026-09-01T01:16:59Z</time>
  <course>0.58</course>
  <speed>0.510098029794274</speed>
  <fix>3d</fix>
</trkpt>
<trkpt lat="33.8106305" lon="-118.393863">
  <ele>-2.92</ele>
  <time>2026-09-01T01:16:59Z</time>
  <course>1.49</course>
  <speed>0.56</speed>
  <fix>3d</fix>
</trkpt>
<trkpt lat="33.8106318" lon="-118.3938629">
  <ele>-3.001</ele>
  <time>2026-09-01T01:16:59Z</time>
  <course>0.24</course>
  <speed>0.5000999900019995</speed>
  <fix>3d</fix>
</trkpt>
<trkpt lat="33.8106316" lon="-118.393863">
  <ele>-2.92</ele>
  <time>2026-09-01T01:16:59Z</time>
  <course>1.2</course>
  <speed>0.54</speed>
  <fix>3d</fix>
</trkpt>
<trkpt lat="33.8106323" lon="-118.3938629">
  <ele>-3.0</ele>
  <time>2026-09-01T01:16:59Z</time>
  <course>359.86</course>
  <speed>0.4901020301937138</speed>
  <fix>3d</fix>
</trkpt>
<trkpt lat="33.8106316" lon="-118.393863">
  <ele>-2.92</ele>
  <time>2026-09-01T01:16:59Z</time>
  <course>1.2</course>
  <speed>0.54</speed>
  <fix>3d</fix>
</trkpt>
<trkpt lat="33.8106328" lon="-118.3938629">
  <ele>-3.0</ele>
  <time>2026-09-01T01:16:59Z</time>
  <course>359.44</course>
  <speed>0.4801041553663121</speed>
  <fix>3d</fix>
</trkpt>
<trkpt lat="33.8106325" lon="-118.393863">
  <ele>-2.92</ele>
  <time>2026-09-01T01:16:59Z</time>
  <course>0.96</course>
  <speed>0.51</speed>
  <fix>3d</fix>
</trkpt>
<trkpt lat="33.8106333" lon="-118.3938629">
  <ele>-3.0</ele>
  <time>2026-09-01T01:16:59Z</time>
  <course>359.02</course>
  <speed>0.47010637094172636</speed>
  <fix>3d</fix>
</trkpt>
<trkpt lat="33.8106325" lon="-118.393863">
  <ele>-2.92</ele>
  <time>2026-09-01T01:16:59Z</time>
  <course>0.96</course>
  <speed>0.51</speed>
  <fix>3d</fix>
</trkpt>
<trkpt lat="33.8106337" lon="-118.3938629">
  <ele>-3.001</ele>
  <time>2026-09-01T01:16:59Z</time>
  <course>358.62</course>
  <speed>0.47010637094172636</speed>
  <fix>3d</fix>
</trkpt>
<trkpt lat="33.8106334" lon="-118.3938629">
  <ele>-2.92</ele>
  <time>2026-09-01T01:16:59Z</time>
  <course>0.82</course>
  <speed>0.5</speed>
  <fix>3d</fix>
</trkpt>
<trkpt lat="33.8106342" lon="-118.3938629">
  <ele>-3.002</ele>
  <time>2026-09-01T01:16:59Z</time>
  <course>358.18</course>
  <speed>0.46010868281309364</speed>
  <fix>3d</fix>
</trkpt>
<trkpt lat="33.8106334" lon="-118.3938629">
  <ele>-2.92</ele>
  <time>2026-09-01T01:16:59Z</time>
  <course>0.82</course>
  <speed>0.5</speed>
  <fix>3d</fix>
</trkpt>
<trkpt lat="33.8106346" lon="-118.3938629">
  <ele>-3.003</ele>
  <time>2026-09-01T01:16:59Z</time>
  <course>357.69</course>
  <speed>0.46010868281309364</speed>
  <fix>3d</fix>
</trkpt>
<trkpt lat="33.8106343" lon="-118.3938628">
  <ele>-2.92</ele>
  <time>2026-09-01T01:16:59Z</time>
  <course>0.67</course>
  <speed>0.48</speed>
  <fix>3d</fix>
</trkpt>
<trkpt lat="33.810635" lon="-118.3938629">
  <ele>-3.004</ele>
  <time>2026-09-01T01:16:59Z</time>
  <course>357.09</course>
  <speed>0.450111097397076</speed>
  <fix>3d</fix>
</trkpt>
<trkpt lat="33.8106343" lon="-118.3938628">
  <ele>-2.92</ele>
  <time>2026-09-01T01:16:59Z</time>
  <course>0.67</course>
  <speed>0.48</speed>
  <fix>3d</fix>
</trkpt>
<trkpt lat="33.8106355" lon="-118.3938628">
  <ele>-3.005</ele>
  <time>2026-09-01T01:16:59Z</time>
  <course>356.38</course>
  <speed>0.450111097397076</speed>
  <fix>3d</fix>
</trkpt>
<trkpt lat="33.8106352" lon="-118.3938628">
  <ele>-2.92</ele>
  <time>2026-09-01T01:16:59Z</time>
  <course>0.38</course>
  <speed>0.47</speed>
  <fix>3d</fix>
</trkpt>
<trkpt lat="33.8106359" lon="-118.3938628">
  <ele>-3.006</ele>
  <time>2026-09-01T01:16:59Z</time>
  <course>355.57</course>
  <speed>0.450111097397076</speed>
  <fix>3d</fix>
</trkpt>
<trkpt lat="33.8106352" lon="-118.3938628">
  <ele>-2.92</ele>
  <time>2026-09-01T01:16:59Z</time>
  <course>0.38</course>
  <speed>0.47</speed>
  <fix>3d</fix>
</trkpt>
<trkpt lat="33.8106363" lon="-118.3938628">
  <ele>-3.006</ele>
  <time>2026-09-01T01:16:59Z</time>
  <course>354.73</course>
  <speed>0.450111097397076</speed>
  <fix>3d</fix>
</trkpt>
<trkpt lat="33.810636" lon="-118.3938628">
  <ele>-2.93</ele>
  <time>2026-09-01T01:16:59Z</time>
  <course>0.0</course>
  <speed>0.47</speed>
  <fix>3d</fix>
</trkpt>
<trkpt lat="33.8106368" lon="-118.3938628">
  <ele>-3.005</ele>
  <time>2026-09-01T01:16:59Z</time>
  <course>353.9</course>
  <speed>0.450111097397076</speed>
  <fix>3d</fix>
</trkpt>
<trkpt lat="33.810636" lon="-118.3938628">
  <ele>-2.93</ele>
  <time>2026-09-01T01:16:59Z</time>
  <course>0.0</course>
  <speed>0.47</speed>
  <fix>3d</fix>
</trkpt>
<trkpt lat="33.8106372" lon="-118.3938628">
  <ele>-3.005</ele>
  <time>2026-09-01T01:16:59Z</time>
  <course>353.12</course>
  <speed>0.450111097397076</speed>
  <fix>3d</fix>
</trkpt>
<trkpt lat="33.8106369" lon="-118.3938628">
  <ele>-2.93</ele>
  <time>2026-09-01T01:16:59Z</time>
  <course>359.65</course>
  <speed>0.46</speed>
  <fix>3d</fix>
</trkpt>
<trkpt lat="33.8106376" lon="-118.3938628">
  <ele>-3.004</ele>
  <time>2026-09-01T01:16:59Z</time>
  <course>352.41</course>
  <speed>0.450111097397076</speed>
  <fix>3d</fix>
</trkpt>
<trkpt lat="33.8106369" lon="-118.3938628">
  <ele>-2.93</ele>
  <time>2026-09-01T01:16:59Z</time>
  <course>359.65</course>
  <speed>0.46</speed>
  <fix>3d</fix>
</trkpt>
<trkpt lat="33.810638" lon="-118.3938628">
  <ele>-3.005</ele>
  <time>2026-09-01T01:16:59Z</time>
  <course>351.82</course>
  <speed>0.3705401462729781</speed>
  <fix>3d</fix>
</trkpt>
<trkpt lat="33.8106377" lon="-118.3938628">
  <ele>-2.93</ele>
  <time>2026-09-01T01:16:59Z</time>
  <course>359.53</course>
  <speed>0.45</speed>
  <fix>3d</fix>
</trkpt>
<trkpt lat="33.8106384" lon="-118.3938628">
  <ele>-3.005</ele>
  <time>2026-09-01T01:16:59Z</time>
  <course>351.36</course>
  <speed>0.31064449134018135</speed>
  <fix>3d</fix>
</trkpt>
<trkpt lat="33.8106377" lon="-118.3938628">
  <ele>-2.93</ele>
  <time>2026-09-01T01:16:59Z</time>
  <course>359.53</course>
  <speed>0.45</speed>
  <fix>3d</fix>
</trkpt>
<trkpt lat="33.8106386" lon="-118.3938627">
  <ele>-3.004</ele>
  <time>2026-09-01T01:16:59Z</time>
  <course>350.99</course>
  <speed>0.27166155414412246</speed>
  <fix>3d</fix>
</trkpt>
<trkpt lat="33.8106385" lon="-118.3938628">
  <ele>-2.93</ele>
  <time>2026-09-01T01:16:59Z</time>
  <course>0.68</course>
  <speed>0.38</speed>
  <fix>3d</fix>
</trkpt>
<trkpt lat="33.8106389" lon="-118.3938627">
  <ele>-3.002</ele>
  <time>2026-09-01T01:16:59Z</time>
  <course>350.67</course>
  <speed>0.24186773244895649</speed>
  <fix>3d</fix>
</trkpt>
<trkpt lat="33.8106385" lon="-118.3938628">
  <ele>-2.93</ele>
  <time>2026-09-01T01:16:59Z</time>
  <course>0.68</course>
  <speed>0.38</speed>
  <fix>3d</fix>
</trkpt>
<trkpt lat="33.8106391" lon="-118.3938627">
  <ele>-2.998</ele>
  <time>2026-09-01T01:16:59Z</time>
  <course>350.39</course>
  <speed>0.21213203435596426</speed>
  <fix>3d</fix>
</trkpt>
<trkpt lat="33.8106391" lon="-118.3938628">
  <ele>-2.92</ele>
  <time>2026-09-01T01:16:59Z</time>
  <course>3.24</course>
  <speed>0.28</speed>
  <fix>3d</fix>
</trkpt>
<trkpt lat="33.8106393" lon="-118.3938627">
  <ele>-2.993</ele>
  <time>2026-09-01T01:16:59Z</time>
  <course>350.14</course>
  <speed>0.19235384061671343</speed>
  <fix>3d</fix>
</trkpt>
<trkpt lat="33.8106391" lon="-118.3938628">
  <ele>-2.92</ele>
  <time>2026-09-01T01:16:59Z</time>
  <course>3.24</course>
  <speed>0.28</speed>
  <fix>3d</fix>
</trkpt>
<trkpt lat="33.8106395" lon="-118.3938626">
  <ele>-2.987</ele>
  <time>2026-09-01T01:16:59Z</time>
  <course>349.92</course>
  <speed>0.18439088914585774</speed>
  <fix>3d</fix>
</trkpt>
<trkpt lat="33.8106396" lon="-118.3938628">
  <ele>-2.91</ele>
  <time>2026-09-01T01:16:59Z</time>
  <course>5.41</course>
  <speed>0.23</speed>
  <fix>3d</fix>
</trkpt>
<trkpt lat="33.8106397" lon="-118.3938626">
  <ele>-2.982</ele>
  <time>2026-09-01T01:16:59Z</time>
  <course>349.72</course>
  <speed>0.1649242250247064</speed>
  <fix>3d</fix>
</trkpt>
<trkpt lat="33.8106396" lon="-118.3938628">
  <ele>-2.91</ele>
  <time>2026-09-01T01:16:59Z</time>
  <course>5.41</course>
  <speed>0.23</speed>
  <fix>3d</fix>
</trkpt>
<trkpt lat="33.8106399" lon="-118.3938626">
  <ele>-2.975</ele>
  <time>2026-09-01T01:16:59Z</time>
  <course>349.54</course>
  <speed>0.15524174696260024</speed>
  <fix>3d</fix>
</trkpt>
<trkpt lat="33.8106399" lon="-118.3938628">
  <ele>-2.91</ele>
  <time>2026-09-01T01:16:59Z</time>
  <course>7.23</course>
  <speed>0.19</speed>
  <fix>3d</fix>
</trkpt>
<trkpt lat="33.8106401" lon="-118.3938626">
  <ele>-2.969</ele>
  <time>2026-09-01T01:16:59Z</time>
  <course>349.37</course>
  <speed>0.14560219778561037</speed>
  <fix>3d</fix>
</trkpt>
<trkpt lat="33.8106399" lon="-118.3938628">
  <ele>-2.91</ele>
  <time>2026-09-01T01:16:59Z</time>
  <course>7.23</course>
  <speed>0.19</speed>
  <fix>3d</fix>
</trkpt>
<trkpt lat="33.8106402" lon="-118.3938625">
  <ele>-2.963</ele>
  <time>2026-09-01T01:16:59Z</time>
  <course>349.21</course>
  <speed>0.13601470508735444</speed>
  <fix>3d</fix>
</trkpt>
<trkpt lat="33.8106402" lon="-118.3938627">
  <ele>-2.9</ele>
  <time>2026-09-01T01:16:59Z</time>
  <course>8.77</course>
  <speed>0.16</speed>
  <fix>3d</fix>
</trkpt>
<trkpt lat="33.8106403" lon="-118.3938625">
  <ele>-2.957</ele>
  <time>2026-09-01T01:16:59Z</time>
  <course>349.07</course>
  <speed>0.1264911064067352</speed>
  <fix>3d</fix>
</trkpt>
<trkpt lat="33.8106402" lon="-118.3938627">
  <ele>-2.9</ele>
  <time>2026-09-01T01:16:59Z</time>
  <course>8.77</course>
  <speed>0.16</speed>
  <fix>3d</fix>
</trkpt>
<trkpt lat="33.8106405" lon="-118.3938625">
  <ele>-2.951</ele>
  <time>2026-09-01T01:16:59Z</time>
  <course>348.93</course>
  <speed>0.11704699910719625</speed>
  <fix>3d</fix>
</trkpt>
<trkpt lat="33.8106405" lon="-118.3938627">
  <ele>-2.89</ele>
  <time>2026-09-01T01:16:59Z</time>
  <course>10.07</course>
  <speed>0.14</speed>
  <fix>3d</fix>
</trkpt>
<trkpt lat="33.8106406" lon="-118.3938624">
  <ele>-2.945</ele>
  <time>2026-09-01T01:16:59Z</time>
  <course>348.81</course>
  <speed>0.11704699910719625</speed>
  <fix>3d</fix>
</trkpt>
<trkpt lat="33.8106405" lon="-118.3938627">
  <ele>-2.89</ele>
  <time>2026-09-01T01:16:59Z</time>
  <course>10.07</course>
  <speed>0.14</speed>
  <fix>3d</fix>
</trkpt>
<trkpt lat="33.8106407" lon="-118.3938624">
  <ele>-2.938</ele>
  <time>2026-09-01T01:16:59Z</time>
  <course>348.69</course>
  <speed>0.10770329614269007</speed>
  <fix>3d</fix>
</trkpt>
<trkpt lat="33.8106408" lon="-118.3938626">
  <ele>-2.87</ele>
  <time>2026-09-01T01:16:59Z</time>
  <course>11.18</course>
  <speed>0.13</speed>
  <fix>3d</fix>
</trkpt>
<trkpt lat="33.8106408" lon="-118.3938624">
  <ele>-2.932</ele>
  <time>2026-09-01T01:16:59Z</time>
  <course>348.57</course>
  <speed>0.10770329614269007</speed>
  <fix>3d</fix>
</trkpt>
<trkpt lat="33.8106408" lon="-118.3938626">
  <ele>-2.87</ele>
  <time>2026-09-01T01:16:59Z</time>
  <course>11.18</course>
  <speed>0.13</speed>
  <fix>3d</fix>
</trkpt>
<trkpt lat="33.8106409" lon="-118.3938624">
  <ele>-2.925</ele>
  <time>2026-09-01T01:16:59Z</time>
  <course>348.46</course>
  <speed>0.09848857801796104</speed>
  <fix>3d</fix>
</trkpt>
<trkpt lat="33.8106409" lon="-118.3938626">
  <ele>-2.86</ele>
  <time>2026-09-01T01:16:59Z</time>
  <course>12.14</course>
  <speed>0.11</speed>
  <fix>3d</fix>
</trkpt>
<trkpt lat="33.810641" lon="-118.3938623">
  <ele>-2.917</ele>
  <time>2026-09-01T01:16:59Z</time>
  <course>348.36</course>
  <speed>0.09848857801796104</speed>
  <fix>3d</fix>
</trkpt>
<trkpt lat="33.8106409" lon="-118.3938626">
  <ele>-2.86</ele>
  <time>2026-09-01T01:16:59Z</time>
  <course>12.14</course>
  <speed>0.11</speed>
  <fix>3d</fix>
</trkpt>
<trkpt lat="33.8106411" lon="-118.3938623">
  <ele>-2.91</ele>
  <time>2026-09-01T01:16:59Z</time>
  <course>348.26</course>
  <speed>0.08944271909999159</speed>
  <fix>3d</fix>
</trkpt>
<trkpt lat="33.8106412" lon="-118.3938625">
  <ele>-2.85</ele>
  <time>2026-09-01T01:16:59Z</time>
  <course>12.97</course>
  <speed>0.1</speed>
  <fix>3d</fix>
</trkpt>
<trkpt lat="33.8106412" lon="-118.3938623">
  <ele>-2.903</ele>
  <time>2026-09-01T01:16:59Z</time>
  <course>348.17</course>
  <speed>0.08944271909999159</speed>
  <fix>3d</fix>
</trkpt>
<trkpt lat="33.8106412" lon="-118.3938625">
  <ele>-2.85</ele>
  <time>2026-09-01T01:16:59Z</time>
  <course>12.97</course>
  <speed>0.1</speed>
  <fix>3d</fix>
</trkpt>
<trkpt lat="33.8106413" lon="-118.3938623">
  <ele>-2.896</ele>
  <time>2026-09-01T01:16:59Z</time>
  <course>348.08</course>
  <speed>0.08062257748298549</speed>
  <fix>3d</fix>
</trkpt>
<trkpt lat="33.8106413" lon="-118.3938625">
  <ele>-2.83</ele>
  <time>2026-09-01T01:16:59Z</time>
  <course>13.69</course>
  <speed>0.1</speed>
  <fix>3d</fix>
</trkpt>
<trkpt lat="33.8106414" lon="-118.3938622">
  <ele>-2.888</ele>
  <time>2026-09-01T01:16:59Z</time>
  <course>347.99</course>
  <speed>0.08062257748298549</speed>
  <fix>3d</fix>
</trkpt>
<trkpt lat="33.8106413" lon="-118.3938625">
  <ele>-2.83</ele>
  <time>2026-09-01T01:16:59Z</time>
  <course>13.69</course>
  <speed>0.1</speed>
  <fix>3d</fix>
</trkpt>
<trkpt lat="33.8106415" lon="-118.3938622">
  <ele>-2.879</ele>
  <time>2026-09-01T01:16:59Z</time>
  <course>347.91</course>
  <speed>0.08062257748298549</speed>
  <fix>3d</fix>
</trkpt>
<trkpt lat="33.8106415" lon="-118.3938624">
  <ele>-2.82</ele>
  <time>2026-09-01T01:16:59Z</time>
  <course>14.31</course>
  <speed>0.09</speed>
  <fix>3d</fix>
</trkpt>
<trkpt lat="33.8106415" lon="-118.3938622">
  <ele>-2.87</ele>
  <time>2026-09-01T01:16:59Z</time>
  <course>347.83</course>
  <speed>0.07211102550927978</speed>
  <fix>3d</fix>
</trkpt>
<trkpt lat="33.8106415" lon="-118.3938624">
  <ele>-2.82</ele>
  <time>2026-09-01T01:16:59Z</time>
  <course>14.31</course>
  <speed>0.09</speed>
  <fix>3d</fix>
</trkpt>
<trkpt lat="33.8106416" lon="-118.3938622">
  <ele>-2.861</ele>
  <time>2026-09-01T01:16:59Z</time>
  <course>347.75</course>
  <speed>0.07211102550927978</speed>
  <fix>3d</fix>
</trkpt>
<trkpt lat="33.8106417" lon="-118.3938624">
  <ele>-2.8</ele>
  <time>2026-09-01T01:16:59Z</time>
  <course>14.86</course>
  <speed>0.08</speed>
  <fix>3d</fix>
</trkpt>
<trkpt lat="33.8106417" lon="-118.3938622">
  <ele>-2.851</ele>
  <time>2026-09-01T01:16:59Z</time>
  <course>347.68</course>
  <speed>0.07211102550927978</speed>
  <fix>3d</fix>
</trkpt>
<trkpt lat="33.8106417" lon="-118.3938624">
  <ele>-2.8</ele>
  <time>2026-09-01T01:16:59Z</time>
  <course>14.86</course>
  <speed>0.08</speed>
  <fix>3d</fix>
</trkpt>
<trkpt lat="33.8106419" lon="-118.3938621">
  <ele>-2.811</ele>
  <time>2026-09-01T01:16:59Z</time>
  <course>347.41</course>
  <speed>0.06403124237432849</speed>
  <fix>3d</fix>
</trkpt>
<trkpt lat="33.810642" lon="-118.3938623">
  <ele>-2.76</ele>
  <time>2026-09-01T01:16:59Z</time>
  <course>15.79</course>
  <speed>0.07</speed>
  <fix>3d</fix>
</trkpt>
<trkpt lat="33.8106421" lon="-118.393862">
  <ele>-2.781</ele>
  <time>2026-09-01T01:16:59Z</time>
  <course>347.22</course>
  <speed>0.0565685424949238</speed>
  <fix>3d</fix>
</trkpt>
<trkpt lat="33.8106422" lon="-118.3938622">
  <ele>-2.73</ele>
  <time>2026-09-01T01:16:59Z</time>
  <course>16.54</course>
  <speed>0.06</speed>
  <fix>3d</fix>
</trkpt>
<trkpt lat="33.8106422" lon="-118.393862">
  <ele>-2.77</ele>
  <time>2026-09-01T01:16:59Z</time>
  <course>347.16</course>
  <speed>0.0565685424949238</speed>
  <fix>3d</fix>
</trkpt>
<trkpt lat="33.8106422" lon="-118.3938622">
  <ele>-2.73</ele>
  <time>2026-09-01T01:16:59Z</time>
  <course>16.54</course>
  <speed>0.06</speed>
  <fix>3d</fix>
</trkpt>
<trkpt lat="33.8106422" lon="-118.393862">
  <ele>-2.76</ele>
  <time>2026-09-01T01:16:59Z</time>
  <course>347.11</course>
  <speed>0.0565685424949238</speed>
  <fix>3d</fix>
</trkpt>
<trkpt lat="33.8106423" lon="-118.3938621">
  <ele>-2.71</ele>
  <time>2026-09-01T01:16:59Z</time>
  <course>16.85</course>
  <speed>0.06</speed>
  <fix>3d</fix>
</trkpt>
<trkpt lat="33.8106423" lon="-118.3938619">
  <ele>-2.749</ele>
  <time>2026-09-01T01:16:59Z</time>
  <course>347.05</course>
  <speed>0.0565685424949238</speed>
  <fix>3d</fix>
</trkpt>
<trkpt lat="33.8106423" lon="-118.3938621">
  <ele>-2.71</ele>
  <time>2026-09-01T01:16:59Z</time>
  <course>16.85</course>
  <speed>0.06</speed>
  <fix>3d</fix>
</trkpt>
<trkpt lat="33.8106423" lon="-118.3938619">
  <ele>-2.739</ele>
  <time>2026-09-01T01:16:59Z</time>
  <course>347.0</course>
  <speed>0.0565685424949238</speed>
  <fix>3d</fix>
</trkpt>
<trkpt lat="33.8106424" lon="-118.3938621">
  <ele>-2.69</ele>
  <time>2026-09-01T01:16:59Z</time>
  <course>17.12</course>
  <speed>0.06</speed>
  <fix>3d</fix>
</trkpt>
<trkpt lat="33.8106424" lon="-118.3938619">
  <ele>-2.728</ele>
  <time>2026-09-01T01:16:59Z</time>
  <course>346.94</course>
  <speed>0.0565685424949238</speed>
  <fix>3d</fix>
</trkpt>
<trkpt lat="33.8106424" lon="-118.3938621">
  <ele>-2.69</ele>
  <time>2026-09-01T01:16:59Z</time>
  <course>17.12</course>
  <speed>0.06</speed>
  <fix>3d</fix>
</trkpt>
<trkpt lat="33.8106424" lon="-118.3938619">
  <ele>-2.718</ele>
  <time>2026-09-01T01:16:59Z</time>
  <course>346.89</course>
  <speed>0.05</speed>
  <fix>3d</fix>
</trkpt>
<trkpt lat="33.8106425" lon="-118.3938621">
  <ele>-2.67</ele>
  <time>2026-09-01T01:16:59Z</time>
  <course>17.38</course>
  <speed>0.06</speed>
  <fix>3d</fix>
</trkpt>
<trkpt lat="33.8106425" lon="-118.3938618">
  <ele>-2.708</ele>
  <time>2026-09-01T01:16:59Z</time>
  <course>346.84</course>
  <speed>0.05</speed>
  <fix>3d</fix>
</trkpt>
<trkpt lat="33.8106425" lon="-118.3938621">
  <ele>-2.67</ele>
  <time>2026-09-01T01:16:59Z</time>
  <course>17.38</course>
  <speed>0.06</speed>
  <fix>3d</fix>
</trkpt>
<trkpt lat="33.8106425" lon="-118.3938618">
  <ele>-2.698</ele>
  <time>2026-09-01T01:16:59Z</time>
  <course>346.79</course>
  <speed>0.05</speed>
  <fix>3d</fix>
</trkpt>
<trkpt lat="33.8106426" lon="-118.393862">
  <ele>-2.65</ele>
  <time>2026-09-01T01:16:59Z</time>
  <course>17.62</course>
  <speed>0.05</speed>
  <fix>3d</fix>
</trkpt>
<trkpt lat="33.8106426" lon="-118.3938618">
  <ele>-2.69</ele>
  <time>2026-09-01T01:16:59Z</time>
  <course>346.74</course>
  <speed>0.05</speed>
  <fix>3d</fix>
</trkpt>
<trkpt lat="33.8106426" lon="-118.393862">
  <ele>-2.65</ele>
  <time>2026-09-01T01:16:59Z</time>
  <course>17.62</course>
  <speed>0.05</speed>
  <fix>3d</fix>
</trkpt>
<trkpt lat="33.8106426" lon="-118.3938618">
  <ele>-2.681</ele>
  <time>2026-09-01T01:16:59Z</time>
  <course>346.7</course>
  <speed>0.05</speed>
  <fix>3d</fix>
</trkpt>
<trkpt lat="33.8106427" lon="-118.393862">
  <ele>-2.64</ele>
  <time>2026-09-01T01:16:59Z</time>
  <course>17.84</course>
  <speed>0.05</speed>
  <fix>3d</fix>
</trkpt>
<trkpt lat="33.8106427" lon="-118.3938618">
  <ele>-2.672</ele>
  <time>2026-09-01T01:16:59Z</time>
  <course>346.65</course>
  <speed>0.05</speed>
  <fix>3d</fix>
</trkpt>
<trkpt lat="33.8106427" lon="-118.393862">
  <ele>-2.64</ele>
  <time>2026-09-01T01:16:59Z</time>
  <course>17.84</course>
  <speed>0.05</speed>
  <fix>3d</fix>
</trkpt>
<trkpt lat="33.8106427" lon="-118.3938618">
  <ele>-2.663</ele>
  <time>2026-09-01T01:16:59Z</time>
  <course>346.61</course>
  <speed>0.05</speed>
  <fix>3d</fix>
</trkpt>
<trkpt lat="33.8106428" lon="-118.393862">
  <ele>-2.62</ele>
  <time>2026-09-01T01:16:59Z</time>
  <course>18.04</course>
  <speed>0.05</speed>
  <fix>3d</fix>
</trkpt>
<trkpt lat="33.8106427" lon="-118.3938617">
  <ele>-2.653</ele>
  <time>2026-09-01T01:16:59Z</time>
  <course>346.56</course>
  <speed>0.044721359549995794</speed>
  <fix>3d</fix>
</trkpt>
<trkpt lat="33.8106428" lon="-118.393862">
  <ele>-2.62</ele>
  <time>2026-09-01T01:16:59Z</time>
  <course>18.04</course>
  <speed>0.05</speed>
  <fix>3d</fix>
</trkpt>
<trkpt lat="33.8106428" lon="-118.3938617">
  <ele>-2.642</ele>
  <time>2026-09-01T01:16:59Z</time>
  <course>346.52</course>
  <speed>0.03605551275463989</speed>
  <fix>3d</fix>
</trkpt>
<trkpt lat="33.8106429" lon="-118.3938619">
  <ele>-2.6</ele>
  <time>2026-09-01T01:16:59Z</time>
  <course>18.21</course>
  <speed>0.05</speed>
  <fix>3d</fix>
</trkpt>
<trkpt lat="33.8106428" lon="-118.3938617">
  <ele>-2.632</ele>
  <time>2026-09-01T01:16:59Z</time>
  <course>346.48</course>
  <speed>0.03605551275463989</speed>
  <fix>3d</fix>
</trkpt>
<trkpt lat="33.8106429" lon="-118.3938619">
  <ele>-2.6</ele>
  <time>2026-09-01T01:16:59Z</time>
  <course>18.21</course>
  <speed>0.05</speed>
  <fix>3d</fix>
</trkpt>
<trkpt lat="33.8106429" lon="-118.3938617">
  <ele>-2.622</ele>
  <time>2026-09-01T01:16:59Z</time>
  <course>346.43</course>
  <speed>0.03605551275463989</speed>
  <fix>3d</fix>
</trkpt>
<trkpt lat="33.810643" lon="-118.3938619">
  <ele>-2.58</ele>
  <time>2026-09-01T01:16:59Z</time>
  <course>18.36</course>
  <speed>0.04</speed>
  <fix>3d</fix>
</trkpt>
<trkpt lat="33.8106429" lon="-118.3938617">
  <ele>-2.611</ele>
  <time>2026-09-01T01:16:59Z</time>
  <course>346.39</course>
  <speed>0.03605551275463989</speed>
  <fix>3d</fix>
</trkpt>
<trkpt lat="33.810643" lon="-118.3938619">
  <ele>-2.58</ele>
  <time>2026-09-01T01:16:59Z</time>
  <course>18.36</course>
  <speed>0.04</speed>
  <fix>3d</fix>
</trkpt>
<trkpt lat="33.8106429" lon="-118.3938617">
  <ele>-2.6</ele>
  <time>2026-09-01T01:16:59Z</time>
  <course>346.35</course>
  <speed>0.03605551275463989</speed>
  <fix>3d</fix>
</trkpt>
<trkpt lat="33.8106431" lon="-118.3938619">
  <ele>-2.56</ele>
  <time>2026-09-01T01:16:59Z</time>
  <course>18.5</course>
  <speed>0.04</speed>
  <fix>3d</fix>
</trkpt>
<trkpt lat="33.810643" lon="-118.3938616">
  <ele>-2.59</ele>
  <time>2026-09-01T01:16:59Z</time>
  <course>346.31</course>
  <speed>0.03605551275463989</speed>
  <fix>3d</fix>
</trkpt>
<trkpt lat="33.8106431" lon="-118.3938619">
  <ele>-2.56</ele>
  <time>2026-09-01T01:16:59Z</time>
  <course>18.5</course>
  <speed>0.04</speed>
  <fix>3d</fix>
</trkpt>
<trkpt lat="33.810643" lon="-118.3938616">
  <ele>-2.58</ele>
  <time>2026-09-01T01:16:59Z</time>
  <course>346.27</course>
  <speed>0.03605551275463989</speed>
  <fix>3d</fix>
</trkpt>
<trkpt lat="33.8106432" lon="-118.3938618">
  <ele>-2.54</ele>
  <time>2026-09-01T01:16:59Z</time>
  <course>18.64</course>
  <speed>0.04</speed>
  <fix>3d</fix>
</trkpt>
<trkpt lat="33.8106431" lon="-118.3938616">
  <ele>-2.57</ele>
  <time>2026-09-01T01:16:59Z</time>
  <course>346.24</course>
  <speed>0.03605551275463989</speed>
  <fix>3d</fix>
</trkpt>
<trkpt lat="33.8106432" lon="-118.3938618">
  <ele>-2.54</ele>
  <time>2026-09-01T01:16:59Z</time>
  <course>18.64</course>
  <speed>0.04</speed>
  <fix>3d</fix>
</trkpt>
<trkpt lat="33.8106431" lon="-118.3938616">
  <ele>-2.56</ele>
  <time>2026-09-01T01:16:59Z</time>
  <course>346.2</course>
  <speed>0.03605551275463989</speed>
  <fix>3d</fix>
</trkpt>
<trkpt lat="33.8106432" lon="-118.3938618">
  <ele>-2.52</ele>
  <time>2026-09-01T01:16:59Z</time>
  <course>18.78</course>
  <speed>0.04</speed>
  <fix>3d</fix>
</trkpt>
<trkpt lat="33.8106431" lon="-118.3938616">
  <ele>-2.552</ele>
  <time>2026-09-01T01:16:59Z</time>
  <course>346.16</course>
  <speed>0.03605551275463989</speed>
  <fix>3d</fix>
</trkpt>
<trkpt lat="33.8106432" lon="-118.3938618">
  <ele>-2.52</ele>
  <time>2026-09-01T01:16:59Z</time>
  <course>18.78</course>
  <speed>0.04</speed>
  <fix>3d</fix>
</trkpt>
<trkpt lat="33.8106432" lon="-118.3938616">
  <ele>-2.544</ele>
  <time>2026-09-01T01:16:59Z</time>
  <course>346.12</course>
  <speed>0.03605551275463989</speed>
  <fix>3d</fix>
</trkpt>
<trkpt lat="33.8106433" lon="-118.3938618">
  <ele>-2.5</ele>
  <time>2026-09-01T01:16:59Z</time>
  <course>18.91</course>
  <speed>0.04</speed>
  <fix>3d</fix>
</trkpt>
<trkpt lat="33.8106432" lon="-118.3938615">
  <ele>-2.536</ele>
  <time>2026-09-01T01:16:59Z</time>
  <course>346.09</course>
  <speed>0.0316227766016838</speed>
  <fix>3d</fix>
</trkpt>
<trkpt lat="33.8106433" lon="-118.3938618">
  <ele>-2.5</ele>
  <time>2026-09-01T01:16:59Z</time>
  <course>18.91</course>
  <speed>0.04</speed>
  <fix>3d</fix>
</trkpt>
<trkpt lat="33.8106432" lon="-118.3938615">
  <ele>-2.528</ele>
  <time>2026-09-01T01:16:59Z</time>
  <course>346.05</course>
  <speed>0.0316227766016838</speed>
  <fix>3d</fix>
</trkpt>
<trkpt lat="33.8106434" lon="-118.3938617">
  <ele>-2.48</ele>
  <time>2026-09-01T01:16:59Z</time>
  <course>19.03</course>
  <speed>0.04</speed>
  <fix>3d</fix>
</trkpt>
<trkpt lat="33.8106433" lon="-118.3938615">
  <ele>-2.52</ele>
  <time>2026-09-01T01:16:59Z</time>
  <course>346.02</course>
  <speed>0.0316227766016838</speed>
  <fix>3d</fix>
</trkpt>
<trkpt lat="33.8106434" lon="-118.3938617">
  <ele>-2.48</ele>
  <time>2026-09-01T01:16:59Z</time>
  <course>19.03</course>
  <speed>0.04</speed>
  <fix>3d</fix>
</trkpt>
<trkpt lat="33.8106433" lon="-118.3938615">
  <ele>-2.512</ele>
  <time>2026-09-01T01:16:59Z</time>
  <course>346.07</course>
  <speed>0.0316227766016838</speed>
  <fix>3d</fix>
</trkpt>
<trkpt lat="33.8106435" lon="-118.3938616">
  <ele>-2.46</ele>
  <time>2026-09-01T01:16:59Z</time>
  <course>18.93</course>
  <speed>0.03</speed>
  <fix>3d</fix>
</trkpt>
<trkpt lat="33.8106433" lon="-118.3938615">
  <ele>-2.507</ele>
  <time>2026-09-01T01:16:59Z</time>
  <course>346.24</course>
  <speed>0.0316227766016838</speed>
  <fix>3d</fix>
</trkpt>
<trkpt lat="33.8106435" lon="-118.3938616">
  <ele>-2.46</ele>
  <time>2026-09-01T01:16:59Z</time>
  <course>18.93</course>
  <speed>0.03</speed>
  <fix>3d</fix>
</trkpt>
<trkpt lat="33.8106434" lon="-118.3938615">
  <ele>-2.504</ele>
  <time>2026-09-01T01:16:59Z</time>
  <course>346.42</course>
  <speed>0.03</speed>
  <fix>3d</fix>
</trkpt>
<trkpt lat="33.8106435" lon="-118.3938616">
  <ele>-2.45</ele>
  <time>2026-09-01T01:16:59Z</time>
  <course>17.68</course>
  <speed>0.03</speed>
  <fix>3d</fix>
</trkpt>
<trkpt lat="33.8106434" lon="-118.3938614">
  <ele>-2.503</ele>
  <time>2026-09-01T01:16:59Z</time>
  <course>346.55</course>
  <speed>0.03</speed>
  <fix>3d</fix>
</trkpt>
<trkpt lat="33.8106435" lon="-118.3938616">
  <ele>-2.45</ele>
  <time>2026-09-01T01:16:59Z</time>
  <course>17.68</course>
  <speed>0.03</speed>
  <fix>3d</fix>
</trkpt>
<trkpt lat="33.8106434" lon="-118.3938614">
  <ele>-2.504</ele>
  <time>2026-09-01T01:16:59Z</time>
  <course>346.6</course>
  <speed>0.02</speed>
  <fix>3d</fix>
</trkpt>
<trkpt lat="33.8106436" lon="-118.3938616">
  <ele>-2.45</ele>
  <time>2026-09-01T01:16:59Z</time>
  <course>13.89</course>
  <speed>0.02</speed>
  <fix>3d</fix>
</trkpt>
<trkpt lat="33.8106434" lon="-118.3938614">
  <ele>-2.506</ele>
  <time>2026-09-01T01:16:59Z</time>
  <course>346.61</course>
  <speed>0.02</speed>
  <fix>3d</fix>
</trkpt>
<trkpt lat="33.8106436" lon="-118.3938616">
  <ele>-2.45</ele>
  <time>2026-09-01T01:16:59Z</time>
  <course>13.89</course>
  <speed>0.02</speed>
  <fix>3d</fix>
</trkpt>
<trkpt lat="33.8106434" lon="-118.3938614">
  <ele>-2.509</ele>
  <time>2026-09-01T01:16:59Z</time>
  <course>346.59</course>
  <speed>0.02</speed>
  <fix>3d</fix>
</trkpt>
<trkpt lat="33.8106436" lon="-118.3938616">
  <ele>-2.45</ele>
  <time>2026-09-01T01:16:59Z</time>
  <course>4.91</course>
  <speed>0.01</speed>
  <fix>3d</fix>
</trkpt>
<trkpt lat="33.8106434" lon="-118.3938614">
  <ele>-2.511</ele>
  <time>2026-09-01T01:16:59Z</time>
  <course>346.64</course>
  <speed>0.022360679774997897</speed>
  <fix>3d</fix>
</trkpt>
<trkpt lat="33.8106436" lon="-118.3938616">
  <ele>-2.45</ele>
  <time>2026-09-01T01:16:59Z</time>
  <course>4.91</course>
  <speed>0.01</speed>
  <fix>3d</fix>
</trkpt>
<trkpt lat="33.8106434" lon="-118.3938614">
  <ele>-2.513</ele>
  <time>2026-09-01T01:16:59Z</time>
  <course>346.88</course>
  <speed>0.01414213562373095</speed>
  <fix>3d</fix>
</trkpt>
<trkpt lat="33.8106437" lon="-118.3938616">
  <ele>-2.45</ele>
  <time>2026-09-01T01:16:59Z</time>
  <course>340.19</course>
  <speed>0.0</speed>
  <fix>3d</fix>
</trkpt>
<trkpt lat="33.8106434" lon="-118.3938614">
  <ele>-2.514</ele>
  <time>2026-09-01T01:16:59Z</time>
  <course>347.38</course>
  <speed>0.0282842712474619</speed>
  <fix>3d</fix>
</trkpt>
<trkpt lat="33.8106437" lon="-118.3938616">
  <ele>-2.45</ele>
  <time>2026-09-01T01:16:59Z</time>
  <course>340.19</course>
  <speed>0.0</speed>
  <fix>3d</fix>
</trkpt>
<trkpt lat="33.8106434" lon="-118.3938614">
  <ele>-2.515</ele>
  <time>2026-09-01T01:16:59Z</time>
  <course>348.03</course>
  <speed>0.022360679774997897</speed>
  <fix>3d</fix>
</trkpt>
<trkpt lat="33.8106437" lon="-118.3938616">
  <ele>-2.45</ele>
  <time>2026-09-01T01:16:59Z</time>
  <course>257.17</course>
  <speed>0.0</speed>
  <fix>3d</fix>
</trkpt>
<trkpt lat="33.8106434" lon="-118.3938614">
  <ele>-2.515</ele>
  <time>2026-09-01T01:16:59Z</time>
  <course>348.76</course>
  <speed>0.0316227766016838</speed>
  <fix>3d</fix>
</trkpt>
<trkpt lat="33.8106437" lon="-118.3938616">
  <ele>-2.45</ele>
  <time>2026-09-01T01:16:59Z</time>
  <course>257.17</course>
  <speed>0.0</speed>
  <fix>3d</fix>
</trkpt>
<trkpt lat="33.8106434" lon="-118.3938614">
  <ele>-2.515</ele>
  <time>2026-09-01T01:16:59Z</time>
  <course>349.5</course>
  <speed>0.0316227766016838</speed>
  <fix>3d</fix>
</trkpt>
<trkpt lat="33.8106437" lon="-118.3938616">
  <ele>-2.45</ele>
  <time>2026-09-01T01:16:59Z</time>
  <course>208.3</course>
  <speed>0.01</speed>
  <fix>3d</fix>
</trkpt>
<trkpt lat="33.8106434" lon="-118.3938614">
  <ele>-2.514</ele>
  <time>2026-09-01T01:16:59Z</time>
  <course>350.25</course>
  <speed>0.044721359549995794</speed>
  <fix>3d</fix>
</trkpt>
<trkpt lat="33.8106437" lon="-118.3938616">
  <ele>-2.45</ele>
  <time>2026-09-01T01:16:59Z</time>
  <course>208.3</course>
  <speed>0.01</speed>
  <fix>3d</fix>
</trkpt>
<trkpt lat="33.8106434" lon="-118.3938614">
  <ele>-2.513</ele>
  <time>2026-09-01T01:16:59Z</time>
  <course>351.05</course>
  <speed>0.044721359549995794</speed>
  <fix>3d</fix>
</trkpt>
<trkpt lat="33.8106437" lon="-118.3938616">
  <ele>-2.45</ele>
  <time>2026-09-01T01:16:59Z</time>
  <course>197.68</course>
  <speed>0.02</speed>
  <fix>3d</fix>
</trkpt>
<trkpt lat="33.8106434" lon="-118.3938614">
  <ele>-2.511</ele>
  <time>2026-09-01T01:16:59Z</time>
  <course>351.95</course>
  <speed>0.044721359549995794</speed>
  <fix>3d</fix>
</trkpt>
<trkpt lat="33.8106437" lon="-118.3938616">
  <ele>-2.45</ele>
  <time>2026-09-01T01:16:59Z</time>
  <course>197.68</course>
  <speed>0.02</speed>
  <fix>3d</fix>
</trkpt>
<trkpt lat="33.8106434" lon="-118.3938614">
  <ele>-2.511</ele>
  <time>2026-09-01T01:16:59Z</time>
  <course>352.9</course>
  <speed>0.03605551275463989</speed>
  <fix>3d</fix>
</trkpt>
<trkpt lat="33.8106437" lon="-118.3938616">
  <ele>-2.45</ele>
  <time>2026-09-01T01:16:59Z</time>
  <course>195.23</course>
  <speed>0.02</speed>
  <fix>3d</fix>
</trkpt>
<trkpt lat="33.8106434" lon="-118.3938614">
  <ele>-2.511</ele>
  <time>2026-09-01T01:16:59Z</time>
  <course>353.9</course>
  <speed>0.03605551275463989</speed>
  <fix>3d</fix>
</trkpt>
<trkpt lat="33.8106437" lon="-118.3938616">
  <ele>-2.45</ele>
  <time>2026-09-01T01:16:59Z</time>
  <course>195.23</course>
  <speed>0.02</speed>
  <fix>3d</fix>
</trkpt>
<trkpt lat="33.8106434" lon="-118.3938614">
  <ele>-2.51</ele>
  <time>2026-09-01T01:16:59Z</time>
  <course>354.91</course>
  <speed>0.03605551275463989</speed>
  <fix>3d</fix>
</trkpt>
<trkpt lat="33.8106436" lon="-118.3938616">
  <ele>-2.45</ele>
  <time>2026-09-01T01:16:59Z</time>
  <course>196.4</course>
  <speed>0.02</speed>
  <fix>3d</fix>
</trkpt>
<trkpt lat="33.8106434" lon="-118.3938614">
  <ele>-2.51</ele>
  <time>2026-09-01T01:16:59Z</time>
  <course>355.93</course>
  <speed>0.03605551275463989</speed>
  <fix>3d</fix>
</trkpt>
<trkpt lat="33.8106436" lon="-118.3938616">
  <ele>-2.45</ele>
  <time>2026-09-01T01:16:59Z</time>
  <course>196.4</course>
  <speed>0.02</speed>
  <fix>3d</fix>
</trkpt>
<trkpt lat="33.8106434" lon="-118.3938614">
  <ele>-2.51</ele>
  <time>2026-09-01T01:16:59Z</time>
  <course>356.94</course>
  <speed>0.03605551275463989</speed>
  <fix>3d</fix>
</trkpt>
<trkpt lat="33.8106436" lon="-118.3938616">
  <ele>-2.45</ele>
  <time>2026-09-01T01:16:59Z</time>
  <course>199.61</course>
  <speed>0.02</speed>
  <fix>3d</fix>
</trkpt>
<trkpt lat="33.8106434" lon="-118.3938614">
  <ele>-2.511</ele>
  <time>2026-09-01T01:16:59Z</time>
  <course>357.97</course>
  <speed>0.03605551275463989</speed>
  <fix>3d</fix>
</trkpt>
<trkpt lat="33.8106436" lon="-118.3938616">
  <ele>-2.45</ele>
  <time>2026-09-01T01:16:59Z</time>
  <course>199.61</course>
  <speed>0.02</speed>
  <fix>3d</fix>
</trkpt>
<trkpt lat="33.8106434" lon="-118.3938614">
  <ele>-2.511</ele>
  <time>2026-09-01T01:16:59Z</time>
  <course>358.98</course>
  <speed>0.0282842712474619</speed>
  <fix>3d</fix>
</trkpt>
<trkpt lat="33.8106436" lon="-118.3938616">
  <ele>-2.45</ele>
  <time>2026-09-01T01:16:59Z</time>
  <course>204.21</course>
  <speed>0.02</speed>
  <fix>3d</fix>
</trkpt>
<trkpt lat="33.8106434" lon="-118.3938614">
  <ele>-2.512</ele>
  <time>2026-09-01T01:16:59Z</time>
  <course>0.01</course>
  <speed>0.0282842712474619</speed>
  <fix>3d</fix>
</trkpt>
<trkpt lat="33.8106436" lon="-118.3938616">
  <ele>-2.45</ele>
  <time>2026-09-01T01:16:59Z</time>
  <course>204.21</course>
  <speed>0.02</speed>
  <fix>3d</fix>
</trkpt>
<trkpt lat="33.8106434" lon="-118.3938614">
  <ele>-2.513</ele>
  <time>2026-09-01T01:16:59Z</time>
  <course>1.01</course>
  <speed>0.0282842712474619</speed>
  <fix>3d</fix>
</trkpt>
<trkpt lat="33.8106435" lon="-118.3938616">
  <ele>-2.45</ele>
  <time>2026-09-01T01:16:59Z</time>
  <course>209.01</course>
  <speed>0.01</speed>
  <fix>3d</fix>
</trkpt>
<trkpt lat="33.8106434" lon="-118.3938614">
  <ele>-2.514</ele>
  <time>2026-09-01T01:16:59Z</time>
  <course>1.79</course>
  <speed>0.0282842712474619</speed>
  <fix>3d</fix>
</trkpt>
<trkpt lat="33.8106435" lon="-118.3938616">
  <ele>-2.45</ele>
  <time>2026-09-01T01:16:59Z</time>
  <course>209.01</course>
  <speed>0.01</speed>
  <fix>3d</fix>
</trkpt>
<trkpt lat="33.8106434" lon="-118.3938614">
  <ele>-2.515</ele>
  <time>2026-09-01T01:16:59Z</time>
  <course>2.36</course>
  <speed>0.0282842712474619</speed>
  <fix>3d</fix>
</trkpt>
<trkpt lat="33.8106435" lon="-118.3938616">
  <ele>-2.45</ele>
  <time>2026-09-01T01:16:59Z</time>
  <course>212.81</course>
  <speed>0.01</speed>
  <fix>3d</fix>
</trkpt>
<trkpt lat="33.8106434" lon="-118.3938614">
  <ele>-2.515</ele>
  <time>2026-09-01T01:16:59Z</time>
  <course>2.82</course>
  <speed>0.0282842712474619</speed>
  <fix>3d</fix>
</trkpt>
<trkpt lat="33.8106435" lon="-118.3938616">
  <ele>-2.45</ele>
  <time>2026-09-01T01:16:59Z</time>
  <course>212.81</course>
  <speed>0.01</speed>
  <fix>3d</fix>
</trkpt>
<trkpt lat="33.8106434" lon="-118.3938614">
  <ele>-2.515</ele>
  <time>2026-09-01T01:16:59Z</time>
  <course>3.19</course>
  <speed>0.0282842712474619</speed>
  <fix>3d</fix>
</trkpt>
<trkpt lat="33.8106435" lon="-118.3938616">
  <ele>-2.44</ele>
  <time>2026-09-01T01:16:59Z</time>
  <course>214.4</course>
  <speed>0.01</speed>
  <fix>3d</fix>
</trkpt>
<trkpt lat="33.8106434" lon="-118.3938614">
  <ele>-2.513</ele>
  <time>2026-09-01T01:16:59Z</time>
  <course>3.51</course>
  <speed>0.0282842712474619</speed>
  <fix>3d</fix>
</trkpt>
<trkpt lat="33.8106435" lon="-118.3938616">
  <ele>-2.44</ele>
  <time>2026-09-01T01:16:59Z</time>
  <course>214.4</course>
  <speed>0.01</speed>
  <fix>3d</fix>
</trkpt>
<trkpt lat="33.8106434" lon="-118.3938614">
  <ele>-2.511</ele>
  <time>2026-09-01T01:16:59Z</time>
  <course>3.79</course>
  <speed>0.0282842712474619</speed>
  <fix>3d</fix>
</trkpt>
<trkpt lat="33.8106435" lon="-118.3938617">
  <ele>-2.44</ele>
  <time>2026-09-01T01:16:59Z</time>
  <course>214.37</course>
  <speed>0.01</speed>
  <fix>3d</fix>
</trkpt>
<trkpt lat="33.8106434" lon="-118.3938614">
  <ele>-2.51</ele>
  <time>2026-09-01T01:16:59Z</time>
  <course>4.04</course>
  <speed>0.0282842712474619</speed>
  <fix>3d</fix>
</trkpt>
<trkpt lat="33.8106435" lon="-118.3938617">
  <ele>-2.44</ele>
  <time>2026-09-01T01:16:59Z</time>
  <course>214.37</course>
  <speed>0.01</speed>
  <fix>3d</fix>
</trkpt>
<trkpt lat="33.8106433" lon="-118.3938614">
  <ele>-2.508</ele>
  <time>2026-09-01T01:16:59Z</time>
  <course>4.26</course>
  <speed>0.0282842712474619</speed>
  <fix>3d</fix>
</trkpt>
<trkpt lat="33.8106434" lon="-118.3938618">
  <ele>-2.44</ele>
  <time>2026-09-01T01:16:59Z</time>
  <course>214.28</course>
  <speed>0.01</speed>
  <fix>3d</fix>
</trkpt>
<trkpt lat="33.8106433" lon="-118.3938614">
  <ele>-2.506</ele>
  <time>2026-09-01T01:16:59Z</time>
  <course>4.46</course>
  <speed>0.0282842712474619</speed>
  <fix>3d</fix>
</trkpt>
<trkpt lat="33.8106434" lon="-118.3938618">
  <ele>-2.44</ele>
  <time>2026-09-01T01:16:59Z</time>
  <course>214.28</course>
  <speed>0.01</speed>
  <fix>3d</fix>
</trkpt>
<trkpt lat="33.8106433" lon="-118.3938614">
  <ele>-2.505</ele>
  <time>2026-09-01T01:16:59Z</time>
  <course>4.65</course>
  <speed>0.0282842712474619</speed>
  <fix>3d</fix>
</trkpt>
<trkpt lat="33.8106433" lon="-118.3938618">
  <ele>-2.43</ele>
  <time>2026-09-01T01:16:59Z</time>
  <course>214.21</course>
  <speed>0.01</speed>
  <fix>3d</fix>
</trkpt>
<trkpt lat="33.8106433" lon="-118.3938614">
  <ele>-2.504</ele>
  <time>2026-09-01T01:16:59Z</time>
  <course>4.82</course>
  <speed>0.0282842712474619</speed>
  <fix>3d</fix>
</trkpt>
<trkpt lat="33.8106433" lon="-118.3938618">
  <ele>-2.43</ele>
  <time>2026-09-01T01:16:59Z</time>
  <course>214.21</course>
  <speed>0.01</speed>
  <fix>3d</fix>
</trkpt>
<trkpt lat="33.8106433" lon="-118.3938614">
  <ele>-2.506</ele>
  <time>2026-09-01T01:16:59Z</time>
  <course>4.98</course>
  <speed>0.0282842712474619</speed>
  <fix>3d</fix>
</trkpt>
<trkpt lat="33.8106433" lon="-118.3938618">
  <ele>-2.43</ele>
  <time>2026-09-01T01:16:59Z</time>
  <course>214.16</course>
  <speed>0.01</speed>
  <fix>3d</fix>
</trkpt>
<trkpt lat="33.8106433" lon="-118.3938614">
  <ele>-2.507</ele>
  <time>2026-09-01T01:16:59Z</time>
  <course>5.12</course>
  <speed>0.0282842712474619</speed>
  <fix>3d</fix>
</trkpt>
<trkpt lat="33.8106433" lon="-118.3938618">
  <ele>-2.43</ele>
  <time>2026-09-01T01:16:59Z</time>
  <course>214.16</course>
  <speed>0.01</speed>
  <fix>3d</fix>
</trkpt>
<trkpt lat="33.8106433" lon="-118.3938614">
  <ele>-2.509</ele>
  <time>2026-09-01T01:16:59Z</time>
  <course>5.26</course>
  <speed>0.0282842712474619</speed>
  <fix>3d</fix>
</trkpt>
<trkpt lat="33.8106433" lon="-118.3938618">
  <ele>-2.44</ele>
  <time>2026-09-01T01:16:59Z</time>
  <course>214.11</course>
  <speed>0.01</speed>
  <fix>3d</fix>
</trkpt>
<trkpt lat="33.8106433" lon="-118.3938614">
  <ele>-2.51</ele>
  <time>2026-09-01T01:16:59Z</time>
  <course>5.39</course>
  <speed>0.0282842712474619</speed>
  <fix>3d</fix>
</trkpt>
<trkpt lat="33.8106433" lon="-118.3938618">
  <ele>-2.44</ele>
  <time>2026-09-01T01:16:59Z</time>
  <course>214.11</course>
  <speed>0.01</speed>
  <fix>3d</fix>
</trkpt>
<trkpt lat="33.8106432" lon="-118.3938614">
  <ele>-2.51</ele>
  <time>2026-09-01T01:16:59Z</time>
  <course>5.52</course>
  <speed>0.0282842712474619</speed>
  <fix>3d</fix>
</trkpt>
<trkpt lat="33.8106433" lon="-118.3938618">
  <ele>-2.44</ele>
  <time>2026-09-01T01:16:59Z</time>
  <course>214.1</course>
  <speed>0.01</speed>
  <fix>3d</fix>
</trkpt>
<trkpt lat="33.8106432" lon="-118.3938614">
  <ele>-2.51</ele>
  <time>2026-09-01T01:16:59Z</time>
  <course>5.62</course>
  <speed>0.0282842712474619</speed>
  <fix>3d</fix>
</trkpt>
<trkpt lat="33.8106433" lon="-118.3938618">
  <ele>-2.44</ele>
  <time>2026-09-01T01:16:59Z</time>
  <course>214.1</course>
  <speed>0.01</speed>
  <fix>3d</fix>
</trkpt>
<trkpt lat="33.8106432" lon="-118.3938615">
  <ele>-2.51</ele>
  <time>2026-09-01T01:16:59Z</time>
  <course>5.68</course>
  <speed>0.0282842712474619</speed>
  <fix>3d</fix>
</trkpt>
<trkpt lat="33.8106432" lon="-118.3938618">
  <ele>-2.44</ele>
  <time>2026-09-01T01:16:59Z</time>
  <course>213.64</course>
  <speed>0.01</speed>
  <fix>3d</fix>
</trkpt>
<trkpt lat="33.8106432" lon="-118.3938615">
  <ele>-2.511</ele>
  <time>2026-09-01T01:16:59Z</time>
  <course>5.68</course>
  <speed>0.03605551275463989</speed>
  <fix>3d</fix>
</trkpt>
<trkpt lat="33.8106432" lon="-118.3938618">
  <ele>-2.44</ele>
  <time>2026-09-01T01:16:59Z</time>
  <course>213.64</course>
  <speed>0.01</speed>
  <fix>3d</fix>
</trkpt>
<trkpt lat="33.8106432" lon="-118.3938615">
  <ele>-2.511</ele>
  <time>2026-09-01T01:16:59Z</time>
  <course>5.67</course>
  <speed>0.03605551275463989</speed>
  <fix>3d</fix>
</trkpt>
<trkpt lat="33.8106432" lon="-118.3938619">
  <ele>-2.44</ele>
  <time>2026-09-01T01:16:59Z</time>
  <course>209.98</course>
  <speed>0.01</speed>
  <fix>3d</fix>
</trkpt>
<trkpt lat="33.8106432" lon="-118.3938615">
  <ele>-2.51</ele>
  <time>2026-09-01T01:16:59Z</time>
  <course>5.74</course>
  <speed>0.0316227766016838</speed>
  <fix>3d</fix>
</trkpt>
<trkpt lat="33.8106432" lon="-118.3938619">
  <ele>-2.44</ele>
  <time>2026-09-01T01:17:00Z</time>
  <course>209.98</course>
  <speed>0.01</speed>
  <fix>3d</fix>
</trkpt>
<trkpt lat="33.8106432" lon="-118.3938615">
  <ele>-2.508</ele>
  <time>2026-09-01T01:17:00Z</time>
  <course>6.12</course>
  <speed>0.0316227766016838</speed>
  <fix>3d</fix>
</trkpt>
<trkpt lat="33.8106432" lon="-118.3938619">
  <ele>-2.44</ele>
  <time>2026-09-01T01:17:00Z</time>
  <course>201.85</course>
  <speed>0.0</speed>
  <fix>3d</fix>
</trkpt>
<trkpt lat="33.8106432" lon="-118.3938615">
  <ele>-2.508</ele>
  <time>2026-09-01T01:17:00Z</time>
  <course>6.74</course>
  <speed>0.03</speed>
  <fix>3d</fix>
</trkpt>
<trkpt lat="33.8106432" lon="-118.3938619">
  <ele>-2.44</ele>
  <time>2026-09-01T01:17:00Z</time>
  <course>201.85</course>
  <speed>0.0</speed>
  <fix>3d</fix>
</trkpt>
<trkpt lat="33.8106432" lon="-118.3938615">
  <ele>-2.508</ele>
  <time>2026-09-01T01:17:00Z</time>
  <course>7.47</course>
  <speed>0.03</speed>
  <fix>3d</fix>
</trkpt>
<trkpt lat="33.8106432" lon="-118.3938619">
  <ele>-2.44</ele>
  <time>2026-09-01T01:17:00Z</time>
  <course>15.66</course>
  <speed>0.0</speed>
  <fix>3d</fix>
</trkpt>
<trkpt lat="33.8106432" lon="-118.3938615">
  <ele>-2.508</ele>
  <time>2026-09-01T01:17:00Z</time>
  <course>8.24</course>
  <speed>0.03</speed>
  <fix>3d</fix>
</trkpt>
<trkpt lat="33.8106432" lon="-118.3938619">
  <ele>-2.44</ele>
  <time>2026-09-01T01:17:00Z</time>
  <course>15.66</course>
  <speed>0.0</speed>
  <fix>3d</fix>
</trkpt>
<trkpt lat="33.8106432" lon="-118.3938615">
  <ele>-2.508</ele>
  <time>2026-09-01T01:17:00Z</time>
  <course>9.01</course>
  <speed>0.03</speed>
  <fix>3d</fix>
</trkpt>
<trkpt lat="33.8106432" lon="-118.3938619">
  <ele>-2.44</ele>
  <time>2026-09-01T01:17:00Z</time>
  <course>12.69</course>
  <speed>0.01</speed>
  <fix>3d</fix>
</trkpt>
<trkpt lat="33.8106432" lon="-118.3938615">
  <ele>-2.509</ele>
  <time>2026-09-01T01:17:00Z</time>
  <course>9.74</course>
  <speed>0.0412310562561766</speed>
  <fix>3d</fix>
</trkpt>
<trkpt lat="33.8106432" lon="-118.3938619">
  <ele>-2.44</ele>
  <time>2026-09-01T01:17:00Z</time>
  <course>12.69</course>
  <speed>0.01</speed>
  <fix>3d</fix>
</trkpt>
<trkpt lat="33.8106432" lon="-118.3938615">
  <ele>-2.511</ele>
  <time>2026-09-01T01:17:00Z</time>
  <course>10.46</course>
  <speed>0.0412310562561766</speed>
  <fix>3d</fix>
</trkpt>
<trkpt lat="33.8106432" lon="-118.3938619">
  <ele>-2.44</ele>
  <time>2026-09-01T01:17:00Z</time>
  <course>12.85</course>
  <speed>0.02</speed>
  <fix>3d</fix>
</trkpt>
<trkpt lat="33.8106432" lon="-118.3938615">
  <ele>-2.512</ele>
  <time>2026-09-01T01:17:00Z</time>
  <course>11.19</course>
  <speed>0.0412310562561766</speed>
  <fix>3d</fix>
</trkpt>
<trkpt lat="33.8106432" lon="-118.3938619">
  <ele>-2.44</ele>
  <time>2026-09-01T01:17:00Z</time>
  <course>12.85</course>
  <speed>0.02</speed>
  <fix>3d</fix>
</trkpt>
<trkpt lat="33.8106432" lon="-118.3938615">
  <ele>-2.514</ele>
  <time>2026-09-01T01:17:00Z</time>
  <course>12.06</course>
  <speed>0.0412310562561766</speed>
  <fix>3d</fix>
</trkpt>
<trkpt lat="33.8106432" lon="-118.3938619">
  <ele>-2.45</ele>
  <time>2026-09-01T01:17:00Z</time>
  <course>13.71</course>
  <speed>0.03</speed>
  <fix>3d</fix>
</trkpt>
<trkpt lat="33.8106432" lon="-118.3938615">
  <ele>-2.515</ele>
  <time>2026-09-01T01:17:00Z</time>
  <course>12.98</course>
  <speed>0.04</speed>
  <fix>3d</fix>
</trkpt>
<trkpt lat="33.8106432" lon="-118.3938619">
  <ele>-2.45</ele>
  <time>2026-09-01T01:17:00Z</time>
  <course>13.71</course>
  <speed>0.03</speed>
  <fix>3d</fix>
</trkpt>
<trkpt lat="33.8106432" lon="-118.3938615">
  <ele>-2.516</ele>
  <time>2026-09-01T01:17:00Z</time>
  <course>13.96</course>
  <speed>0.03</speed>
  <fix>3d</fix>
</trkpt>
<trkpt lat="33.8106433" lon="-118.3938619">
  <ele>-2.45</ele>
  <time>2026-09-01T01:17:00Z</time>
  <course>14.92</course>
  <speed>0.03</speed>
  <fix>3d</fix>
</trkpt>
<trkpt lat="33.8106432" lon="-118.3938615">
  <ele>-2.516</ele>
  <time>2026-09-01T01:17:00Z</time>
  <course>14.93</course>
  <speed>0.03</speed>
  <fix>3d</fix>
</trkpt>
<trkpt lat="33.8106433" lon="-118.3938619">
  <ele>-2.45</ele>
  <time>2026-09-01T01:17:00Z</time>
  <course>14.92</course>
  <speed>0.03</speed>
  <fix>3d</fix>
</trkpt>
<trkpt lat="33.8106432" lon="-118.3938615">
  <ele>-2.516</ele>
  <time>2026-09-01T01:17:00Z</time>
  <course>15.93</course>
  <speed>0.03</speed>
  <fix>3d</fix>
</trkpt>
<trkpt lat="33.8106433" lon="-118.3938619">
  <ele>-2.45</ele>
  <time>2026-09-01T01:17:00Z</time>
  <course>16.67</course>
  <speed>0.02</speed>
  <fix>3d</fix>
</trkpt>
<trkpt lat="33.8106432" lon="-118.3938615">
  <ele>-2.515</ele>
  <time>2026-09-01T01:17:00Z</time>
  <course>16.93</course>
  <speed>0.03</speed>
  <fix>3d</fix>
</trkpt>
<trkpt lat="33.8106433" lon="-118.3938619">
  <ele>-2.45</ele>
  <time>2026-09-01T01:17:00Z</time>
  <course>16.67</course>
  <speed>0.02</speed>
  <fix>3d</fix>
</trkpt>
<trkpt lat="33.8106433" lon="-118.3938615">
  <ele>-2.514</ele>
  <time>2026-09-01T01:17:00Z</time>
  <course>17.96</course>
  <speed>0.03</speed>
  <fix>3d</fix>
</trkpt>
<trkpt lat="33.8106434" lon="-118.3938619">
  <ele>-2.44</ele>
  <time>2026-09-01T01:17:00Z</time>
  <course>18.89</course>
  <speed>0.02</speed>
  <fix>3d</fix>
</trkpt>
<trkpt lat="33.8106433" lon="-118.3938615">
  <ele>-2.513</ele>
  <time>2026-09-01T01:17:00Z</time>
  <course>18.97</course>
  <speed>0.03</speed>
  <fix>3d</fix>
</trkpt>
<trkpt lat="33.8106434" lon="-118.3938619">
  <ele>-2.44</ele>
  <time>2026-09-01T01:17:00Z</time>
  <course>18.89</course>
  <speed>0.02</speed>
  <fix>3d</fix>
</trkpt>
<trkpt lat="33.8106433" lon="-118.3938615">
  <ele>-2.511</ele>
  <time>2026-09-01T01:17:00Z</time>
  <course>20.0</course>
  <speed>0.03</speed>
  <fix>3d</fix>
</trkpt>
<trkpt lat="33.8106435" lon="-118.3938619">
  <ele>-2.44</ele>
  <time>2026-09-01T01:17:00Z</time>
  <course>22.11</course>
  <speed>0.02</speed>
  <fix>3d</fix>
</trkpt>
<trkpt lat="33.8106433" lon="-118.3938615">
  <ele>-2.508</ele>
  <time>2026-09-01T01:17:00Z</time>
  <course>21.01</course>
  <speed>0.03</speed>
  <fix>3d</fix>
</trkpt>
<trkpt lat="33.8106435" lon="-118.3938619">
  <ele>-2.44</ele>
  <time>2026-09-01T01:17:00Z</time>
  <course>22.11</course>
  <speed>0.02</speed>
  <fix>3d</fix>
</trkpt>
<trkpt lat="33.8106433" lon="-118.3938615">
  <ele>-2.506</ele>
  <time>2026-09-01T01:17:00Z</time>
  <course>22.04</course>
  <speed>0.0316227766016838</speed>
  <fix>3d</fix>
</trkpt>
<trkpt lat="33.8106435" lon="-118.3938619">
  <ele>-2.44</ele>
  <time>2026-09-01T01:17:00Z</time>
  <course>28.39</course>
  <speed>0.01</speed>
  <fix>3d</fix>
</trkpt>
<trkpt lat="33.8106433" lon="-118.3938615">
  <ele>-2.506</ele>
  <time>2026-09-01T01:17:00Z</time>
  <course>23.05</course>
  <speed>0.0316227766016838</speed>
  <fix>3d</fix>
</trkpt>
<trkpt lat="33.8106435" lon="-118.3938619">
  <ele>-2.44</ele>
  <time>2026-09-01T01:17:00Z</time>
  <course>28.39</course>
  <speed>0.01</speed>
  <fix>3d</fix>
</trkpt>
<trkpt lat="33.8106433" lon="-118.3938615">
  <ele>-2.506</ele>
  <time>2026-09-01T01:17:00Z</time>
  <course>24.08</course>
  <speed>0.0316227766016838</speed>
  <fix>3d</fix>
</trkpt>
<trkpt lat="33.8106436" lon="-118.3938618">
  <ele>-2.44</ele>
  <time>2026-09-01T01:17:00Z</time>
  <course>38.15</course>
  <speed>0.01</speed>
  <fix>3d</fix>
</trkpt>
<trkpt lat="33.8106433" lon="-118.3938615">
  <ele>-2.508</ele>
  <time>2026-09-01T01:17:00Z</time>
  <course>25.1</course>
  <speed>0.0316227766016838</speed>
  <fix>3d</fix>
</trkpt>
<trkpt lat="33.8106436" lon="-118.3938618">
  <ele>-2.44</ele>
  <time>2026-09-01T01:17:00Z</time>
  <course>38.15</course>
  <speed>0.01</speed>
  <fix>3d</fix>
</trkpt>
<trkpt lat="33.8106434" lon="-118.3938615">
  <ele>-2.51</ele>
  <time>2026-09-01T01:17:00Z</time>
  <course>26.13</course>
  <speed>0.0316227766016838</speed>
  <fix>3d</fix>
</trkpt>
<trkpt lat="33.8106436" lon="-118.3938618">
  <ele>-2.44</ele>
  <time>2026-09-01T01:17:00Z</time>
  <course>50.72</course>
  <speed>0.01</speed>
  <fix>3d</fix>
</trkpt>
<trkpt lat="33.8106434" lon="-118.3938615">
  <ele>-2.511</ele>
  <time>2026-09-01T01:17:00Z</time>
  <course>27.07</course>
  <speed>0.03605551275463989</speed>
  <fix>3d</fix>
</trkpt>
<trkpt lat="33.8106436" lon="-118.3938618">
  <ele>-2.44</ele>
  <time>2026-09-01T01:17:00Z</time>
  <course>50.72</course>
  <speed>0.01</speed>
  <fix>3d</fix>
</trkpt>
<trkpt lat="33.8106434" lon="-118.3938615">
  <ele>-2.511</ele>
  <time>2026-09-01T01:17:00Z</time>
  <course>27.77</course>
  <speed>0.03605551275463989</speed>
  <fix>3d</fix>
</trkpt>
<trkpt lat="33.8106436" lon="-118.3938618">
  <ele>-2.44</ele>
  <time>2026-09-01T01:17:00Z</time>
  <course>67.66</course>
  <speed>0.0</speed>
  <fix>3d</fix>
</trkpt>
<trkpt lat="33.8106434" lon="-118.3938615">
  <ele>-2.511</ele>
  <time>2026-09-01T01:17:00Z</time>
  <course>28.3</course>
  <speed>0.03605551275463989</speed>
  <fix>3d</fix>
</trkpt>
<trkpt lat="33.8106436" lon="-118.3938618">
  <ele>-2.44</ele>
  <time>2026-09-01T01:17:00Z</time>
  <course>67.66</course>
  <speed>0.0</speed>
  <fix>3d</fix>
</trkpt>
<trkpt lat="33.8106434" lon="-118.3938615">
  <ele>-2.511</ele>
  <time>2026-09-01T01:17:00Z</time>
  <course>28.72</course>
  <speed>0.03605551275463989</speed>
  <fix>3d</fix>
</trkpt>
<trkpt lat="33.8106436" lon="-118.3938618">
  <ele>-2.44</ele>
  <time>2026-09-01T01:17:00Z</time>
  <course>80.83</course>
  <speed>0.0</speed>
  <fix>3d</fix>
</trkpt>
<trkpt lat="33.8106434" lon="-118.3938615">
  <ele>-2.509</ele>
  <time>2026-09-01T01:17:00Z</time>
  <course>29.08</course>
  <speed>0.03605551275463989</speed>
  <fix>3d</fix>
</trkpt>
<trkpt lat="33.8106436" lon="-118.3938618">
  <ele>-2.44</ele>
  <time>2026-09-01T01:17:00Z</time>
  <course>80.83</course>
  <speed>0.0</speed>
  <fix>3d</fix>
</trkpt>
<trkpt lat="33.8106434" lon="-118.3938615">
  <ele>-2.507</ele>
  <time>2026-09-01T01:17:00Z</time>
  <course>29.39</course>
  <speed>0.03605551275463989</speed>
  <fix>3d</fix>
</trkpt>
<trkpt lat="33.8106436" lon="-118.3938618">
  <ele>-2.44</ele>
  <time>2026-09-01T01:17:00Z</time>
  <course>81.23</course>
  <speed>0.0</speed>
  <fix>3d</fix>
</trkpt>
<trkpt lat="33.8106434" lon="-118.3938615">
  <ele>-2.506</ele>
  <time>2026-09-01T01:17:00Z</time>
  <course>29.65</course>
  <speed>0.03605551275463989</speed>
  <fix>3d</fix>
</trkpt>
<trkpt lat="33.8106436" lon="-118.3938618">
  <ele>-2.44</ele>
  <time>2026-09-01T01:17:00Z</time>
  <course>81.23</course>
  <speed>0.0</speed>
  <fix>3d</fix>
</trkpt>
<trkpt lat="33.8106434" lon="-118.3938615">
  <ele>-2.506</ele>
  <time>2026-09-01T01:17:00Z</time>
  <course>29.89</course>
  <speed>0.03605551275463989</speed>
  <fix>3d</fix>
</trkpt>
<trkpt lat="33.8106436" lon="-118.3938618">
  <ele>-2.44</ele>
  <time>2026-09-01T01:17:00Z</time>
  <course>81.45</course>
  <speed>0.0</speed>
  <fix>3d</fix>
</trkpt>
<trkpt lat="33.8106434" lon="-118.3938615">
  <ele>-2.507</ele>
  <time>2026-09-01T01:17:00Z</time>
  <course>30.11</course>
  <speed>0.03605551275463989</speed>
  <fix>3d</fix>
</trkpt>
<trkpt lat="33.8106436" lon="-118.3938618">
  <ele>-2.44</ele>
  <time>2026-09-01T01:17:00Z</time>
  <course>81.45</course>
  <speed>0.0</speed>
  <fix>3d</fix>
</trkpt>
<trkpt lat="33.8106434" lon="-118.3938615">
  <ele>-2.509</ele>
  <time>2026-09-01T01:17:00Z</time>
  <course>30.3</course>
  <speed>0.03605551275463989</speed>
  <fix>3d</fix>
</trkpt>
<trkpt lat="33.8106436" lon="-118.3938618">
  <ele>-2.44</ele>
  <time>2026-09-01T01:17:00Z</time>
  <course>81.71</course>
  <speed>0.0</speed>
  <fix>3d</fix>
</trkpt>
<trkpt lat="33.8106434" lon="-118.3938615">
  <ele>-2.51</ele>
  <time>2026-09-01T01:17:00Z</time>
  <course>30.48</course>
  <speed>0.03605551275463989</speed>
  <fix>3d</fix>
</trkpt>
<trkpt lat="33.8106436" lon="-118.3938618">
  <ele>-2.44</ele>
  <time>2026-09-01T01:17:00Z</time>
  <course>81.71</course>
  <speed>0.0</speed>
  <fix>3d</fix>
</trkpt>
<trkpt lat="33.8106434" lon="-118.3938615">
  <ele>-2.511</ele>
  <time>2026-09-01T01:17:00Z</time>
  <course>30.65</course>
  <speed>0.03605551275463989</speed>
  <fix>3d</fix>
</trkpt>
<trkpt lat="33.8106436" lon="-118.3938617">
  <ele>-2.44</ele>
  <time>2026-09-01T01:17:00Z</time>
  <course>81.86</course>
  <speed>0.0</speed>
  <fix>3d</fix>
</trkpt>
<trkpt lat="33.8106434" lon="-118.3938615">
  <ele>-2.511</ele>
  <time>2026-09-01T01:17:00Z</time>
  <course>30.81</course>
  <speed>0.03605551275463989</speed>
  <fix>3d</fix>
</trkpt>
<trkpt lat="33.8106436" lon="-118.3938617">
  <ele>-2.44</ele>
  <time>2026-09-01T01:17:00Z</time>
  <course>81.86</course>
  <speed>0.0</speed>
  <fix>3d</fix>
</trkpt>
<trkpt lat="33.8106434" lon="-118.3938615">
  <ele>-2.512</ele>
  <time>2026-09-01T01:17:00Z</time>
  <course>30.95</course>
  <speed>0.03605551275463989</speed>
  <fix>3d</fix>
</trkpt>
<trkpt lat="33.8106436" lon="-118.3938616">
  <ele>-2.45</ele>
  <time>2026-09-01T01:17:00Z</time>
  <course>81.88</course>
  <speed>0.0</speed>
  <fix>3d</fix>
</trkpt>
<trkpt lat="33.8106434" lon="-118.3938615">
  <ele>-2.512</ele>
  <time>2026-09-01T01:17:00Z</time>
  <course>31.09</course>
  <speed>0.03605551275463989</speed>
  <fix>3d</fix>
</trkpt>
<trkpt lat="33.8106436" lon="-118.3938616">
  <ele>-2.45</ele>
  <time>2026-09-01T01:17:00Z</time>
  <course>81.88</course>
  <speed>0.0</speed>
  <fix>3d</fix>
</trkpt>
<trkpt lat="33.8106434" lon="-118.3938614">
  <ele>-2.512</ele>
  <time>2026-09-01T01:17:00Z</time>
  <course>31.21</course>
  <speed>0.03605551275463989</speed>
  <fix>3d</fix>
</trkpt>
<trkpt lat="33.8106436" lon="-118.3938616">
  <ele>-2.45</ele>
  <time>2026-09-01T01:17:00Z</time>
  <course>81.94</course>
  <speed>0.0</speed>
  <fix>3d</fix>
</trkpt>
<trkpt lat="33.8106434" lon="-118.3938614">
  <ele>-2.511</ele>
  <time>2026-09-01T01:17:00Z</time>
  <course>31.33</course>
  <speed>0.03605551275463989</speed>
  <fix>3d</fix>
</trkpt>
<trkpt lat="33.8106436" lon="-118.3938616">
  <ele>-2.45</ele>
  <time>2026-09-01T01:17:00Z</time>
  <course>81.94</course>
  <speed>0.0</speed>
  <fix>3d</fix>
</trkpt>
<trkpt lat="33.8106434" lon="-118.3938614">
  <ele>-2.511</ele>
  <time>2026-09-01T01:17:00Z</time>
  <course>31.45</course>
  <speed>0.03605551275463989</speed>
  <fix>3d</fix>
</trkpt>
<trkpt lat="33.8106436" lon="-118.3938616">
  <ele>-2.45</ele>
  <time>2026-09-01T01:17:00Z</time>
  <course>82.11</course>
  <speed>0.0</speed>
  <fix>3d</fix>
</trkpt>
<trkpt lat="33.8106434" lon="-118.3938614">
  <ele>-2.511</ele>
  <time>2026-09-01T01:17:00Z</time>
  <course>31.56</course>
  <speed>0.03605551275463989</speed>
  <fix>3d</fix>
</trkpt>
<trkpt lat="33.8106436" lon="-118.3938616">
  <ele>-2.45</ele>
  <time>2026-09-01T01:17:00Z</time>
  <course>82.11</course>
  <speed>0.0</speed>
  <fix>3d</fix>
</trkpt>
<trkpt lat="33.8106434" lon="-118.3938614">
  <ele>-2.511</ele>
  <time>2026-09-01T01:17:00Z</time>
  <course>31.66</course>
  <speed>0.03605551275463989</speed>
  <fix>3d</fix>
</trkpt>
<trkpt lat="33.8106436" lon="-118.3938616">
  <ele>-2.45</ele>
  <time>2026-09-01T01:17:00Z</time>
  <course>82.34</course>
  <speed>0.0</speed>
  <fix>3d</fix>
</trkpt>
<trkpt lat="33.8106434" lon="-118.3938614">
  <ele>-2.512</ele>
  <time>2026-09-01T01:17:00Z</time>
  <course>31.76</course>
  <speed>0.03605551275463989</speed>
  <fix>3d</fix>
</trkpt>
<trkpt lat="33.8106436" lon="-118.3938616">
  <ele>-2.45</ele>
  <time>2026-09-01T01:17:00Z</time>
  <course>82.34</course>
  <speed>0.0</speed>
  <fix>3d</fix>
</trkpt>
<trkpt lat="33.8106434" lon="-118.3938614">
  <ele>-2.512</ele>
  <time>2026-09-01T01:17:00Z</time>
  <course>31.95</course>
  <speed>0.0282842712474619</speed>
  <fix>3d</fix>
</trkpt>
<trkpt lat="33.8106436" lon="-118.3938616">
  <ele>-2.45</ele>
  <time>2026-09-01T01:17:00Z</time>
  <course>83.46</course>
  <speed>0.0</speed>
  <fix>3d</fix>
</trkpt>
<trkpt lat="33.8106434" lon="-118.3938614">
  <ele>-2.512</ele>
  <time>2026-09-01T01:17:00Z</time>
  <course>32.27</course>
  <speed>0.0282842712474619</speed>
  <fix>3d</fix>
</trkpt>
<trkpt lat="33.8106436" lon="-118.3938616">
  <ele>-2.45</ele>
  <time>2026-09-01T01:17:00Z</time>
  <course>83.46</course>
  <speed>0.0</speed>
  <fix>3d</fix>
</trkpt>
<trkpt lat="33.8106434" lon="-118.3938614">
  <ele>-2.511</ele>
  <time>2026-09-01T01:17:00Z</time>
  <course>32.69</course>
  <speed>0.0282842712474619</speed>
  <fix>3d</fix>
</trkpt>
<trkpt lat="33.8106436" lon="-118.3938616">
  <ele>-2.45</ele>
  <time>2026-09-01T01:17:00Z</time>
  <course>139.31</course>
  <speed>0.0</speed>
  <fix>3d</fix>
</trkpt>
<trkpt lat="33.8106434" lon="-118.3938614">
  <ele>-2.51</ele>
  <time>2026-09-01T01:17:00Z</time>
  <course>33.17</course>
  <speed>0.022360679774997897</speed>
  <fix>3d</fix>
</trkpt>
<trkpt lat="33.8106436" lon="-118.3938616">
  <ele>-2.45</ele>
  <time>2026-09-01T01:17:00Z</time>
  <course>139.31</course>
  <speed>0.0</speed>
  <fix>3d</fix>
</trkpt>
<trkpt lat="33.8106434" lon="-118.3938614">
  <ele>-2.51</ele>
  <time>2026-09-01T01:17:00Z</time>
  <course>33.74</course>
  <speed>0.022360679774997897</speed>
  <fix>3d</fix>
</trkpt>
<trkpt lat="33.8106436" lon="-118.3938616">
  <ele>-2.45</ele>
  <time>2026-09-01T01:17:00Z</time>
  <course>251.51</course>
  <speed>0.0</speed>
  <fix>3d</fix>
</trkpt>
<trkpt lat="33.8106434" lon="-118.3938614">
  <ele>-2.51</ele>
  <time>2026-09-01T01:17:00Z</time>
  <course>34.5</course>
  <speed>0.022360679774997897</speed>
  <fix>3d</fix>
</trkpt>
<trkpt lat="33.8106436" lon="-118.3938616">
  <ele>-2.45</ele>
  <time>2026-09-01T01:17:00Z</time>
  <course>251.51</course>
  <speed>0.0</speed>
  <fix>3d</fix>
</trkpt>
<trkpt lat="33.8106434" lon="-118.3938614">
  <ele>-2.511</ele>
  <time>2026-09-01T01:17:00Z</time>
  <course>35.39</course>
  <speed>0.022360679774997897</speed>
  <fix>3d</fix>
</trkpt>
<trkpt lat="33.8106436" lon="-118.3938616">
  <ele>-2.45</ele>
  <time>2026-09-01T01:17:00Z</time>
  <course>256.56</course>
  <speed>0.01</speed>
  <fix>3d</fix>
</trkpt>
<trkpt lat="33.8106434" lon="-118.3938614">
  <ele>-2.512</ele>
  <time>2026-09-01T01:17:00Z</time>
  <course>36.35</course>
  <speed>0.022360679774997897</speed>
  <fix>3d</fix>
</trkpt>
<trkpt lat="33.8106436" lon="-118.3938616">
  <ele>-2.45</ele>
  <time>2026-09-01T01:17:00Z</time>
  <course>256.56</course>
  <speed>0.01</speed>
  <fix>3d</fix>
</trkpt>
<trkpt lat="33.8106434" lon="-118.3938614">
  <ele>-2.514</ele>
  <time>2026-09-01T01:17:00Z</time>
  <course>37.33</course>
  <speed>0.022360679774997897</speed>
  <fix>3d</fix>
</trkpt>
<trkpt lat="33.8106436" lon="-118.3938616">
  <ele>-2.45</ele>
  <time>2026-09-01T01:17:00Z</time>
  <course>260.27</course>
  <speed>0.01</speed>
  <fix>3d</fix>
</trkpt>
<trkpt lat="33.8106434" lon="-118.3938614">
  <ele>-2.515</ele>
  <time>2026-09-01T01:17:00Z</time>
  <course>38.33</course>
  <speed>0.022360679774997897</speed>
  <fix>3d</fix>
</trkpt>
<trkpt lat="33.8106436" lon="-118.3938616">
  <ele>-2.45</ele>
  <time>2026-09-01T01:17:00Z</time>
  <course>260.27</course>
  <speed>0.01</speed>
  <fix>3d</fix>
</trkpt>
<trkpt lat="33.8106434" lon="-118.3938614">
  <ele>-2.516</ele>
  <time>2026-09-01T01:17:00Z</time>
  <course>39.33</course>
  <speed>0.022360679774997897</speed>
  <fix>3d</fix>
</trkpt>
<trkpt lat="33.8106436" lon="-118.3938616">
  <ele>-2.45</ele>
  <time>2026-09-01T01:17:00Z</time>
  <course>263.69</course>
  <speed>0.01</speed>
  <fix>3d</fix>
</trkpt>
<trkpt lat="33.8106434" lon="-118.3938614">
  <ele>-2.516</ele>
  <time>2026-09-01T01:17:00Z</time>
  <course>40.35</course>
  <speed>0.022360679774997897</speed>
  <fix>3d</fix>
</trkpt>
<trkpt lat="33.8106436" lon="-118.3938616">
  <ele>-2.45</ele>
  <time>2026-09-01T01:17:00Z</time>
  <course>263.69</course>
  <speed>0.01</speed>
  <fix>3d</fix>
</trkpt>
<trkpt lat="33.8106434" lon="-118.3938614">
  <ele>-2.514</ele>
  <time>2026-09-01T01:17:00Z</time>
  <course>41.38</course>
  <speed>0.022360679774997897</speed>
  <fix>3d</fix>
</trkpt>
<trkpt lat="33.8106436" lon="-118.3938616">
  <ele>-2.44</ele>
  <time>2026-09-01T01:17:00Z</time>
  <course>267.7</course>
  <speed>0.01</speed>
  <fix>3d</fix>
</trkpt>
<trkpt lat="33.8106434" lon="-118.3938614">
  <ele>-2.512</ele>
  <time>2026-09-01T01:17:00Z</time>
  <course>42.39</course>
  <speed>0.022360679774997897</speed>
  <fix>3d</fix>
</trkpt>
<trkpt lat="33.8106436" lon="-118.3938616">
  <ele>-2.44</ele>
  <time>2026-09-01T01:17:00Z</time>
  <course>267.7</course>
  <speed>0.01</speed>
  <fix>3d</fix>
</trkpt>
<trkpt lat="33.8106434" lon="-118.3938614">
  <ele>-2.51</ele>
  <time>2026-09-01T01:17:00Z</time>
  <course>43.41</course>
  <speed>0.022360679774997897</speed>
  <fix>3d</fix>
</trkpt>
<trkpt lat="33.8106436" lon="-118.3938616">
  <ele>-2.44</ele>
  <time>2026-09-01T01:17:00Z</time>
  <course>272.12</course>
  <speed>0.0</speed>
  <fix>3d</fix>
</trkpt>
<trkpt lat="33.8106434" lon="-118.3938614">
  <ele>-2.508</ele>
  <time>2026-09-01T01:17:00Z</time>
  <course>44.44</course>
  <speed>0.0282842712474619</speed>
  <fix>3d</fix>
</trkpt>
<trkpt lat="33.8106436" lon="-118.3938616">
  <ele>-2.44</ele>
  <time>2026-09-01T01:17:00Z</time>
  <course>272.12</course>
  <speed>0.0</speed>
  <fix>3d</fix>
</trkpt>
<trkpt lat="33.8106434" lon="-118.3938614">
  <ele>-2.508</ele>
  <time>2026-09-01T01:17:00Z</time>
  <course>45.47</course>
  <speed>0.0282842712474619</speed>
  <fix>3d</fix>
</trkpt>
<trkpt lat="33.8106436" lon="-118.3938616">
  <ele>-2.44</ele>
  <time>2026-09-01T01:17:00Z</time>
  <course>278.43</course>
  <speed>0.0</speed>
  <fix>3d</fix>
</trkpt>
<trkpt lat="33.8106434" lon="-118.3938614">
  <ele>-2.509</ele>
  <time>2026-09-01T01:17:00Z</time>
  <course>46.49</course>
  <speed>0.0282842712474619</speed>
  <fix>3d</fix>
</trkpt>
<trkpt lat="33.8106436" lon="-118.3938616">
  <ele>-2.44</ele>
  <time>2026-09-01T01:17:00Z</time>
  <course>278.43</course>
  <speed>0.0</speed>
  <fix>3d</fix>
</trkpt>
<trkpt lat="33.8106434" lon="-118.3938614">
  <ele>-2.51</ele>
  <time>2026-09-01T01:17:00Z</time>
  <course>47.51</course>
  <speed>0.0282842712474619</speed>
  <fix>3d</fix>
</trkpt>
<trkpt lat="33.8106436" lon="-118.3938616">
  <ele>-2.44</ele>
  <time>2026-09-01T01:17:00Z</time>
  <course>284.68</course>
  <speed>0.0</speed>
  <fix>3d</fix>
</trkpt>
<trkpt lat="33.8106434" lon="-118.3938614">
  <ele>-2.511</ele>
  <time>2026-09-01T01:17:00Z</time>
  <course>48.53</course>
  <speed>0.0282842712474619</speed>
  <fix>3d</fix>
</trkpt>
<trkpt lat="33.8106436" lon="-118.3938616">
  <ele>-2.44</ele>
  <time>2026-09-01T01:17:00Z</time>
  <course>284.68</course>
  <speed>0.0</speed>
  <fix>3d</fix>
</trkpt>
<trkpt lat="33.8106434" lon="-118.3938614">
  <ele>-2.511</ele>
  <time>2026-09-01T01:17:00Z</time>
  <course>49.55</course>
  <speed>0.0282842712474619</speed>
  <fix>3d</fix>
</trkpt>
<trkpt lat="33.8106436" lon="-118.3938617">
  <ele>-2.44</ele>
  <time>2026-09-01T01:17:00Z</time>
  <course>289.47</course>
  <speed>0.0</speed>
  <fix>3d</fix>
</trkpt>
<trkpt lat="33.8106434" lon="-118.3938614">
  <ele>-2.509</ele>
  <time>2026-09-01T01:17:00Z</time>
  <course>50.58</course>
  <speed>0.0282842712474619</speed>
  <fix>3d</fix>
</trkpt>
<trkpt lat="33.8106436" lon="-118.3938617">
  <ele>-2.44</ele>
  <time>2026-09-01T01:17:00Z</time>
  <course>289.47</course>
  <speed>0.0</speed>
  <fix>3d</fix>
</trkpt>
<trkpt lat="33.8106434" lon="-118.3938614">
  <ele>-2.507</ele>
  <time>2026-09-01T01:17:00Z</time>
  <course>51.59</course>
  <speed>0.0282842712474619</speed>
  <fix>3d</fix>
</trkpt>
<trkpt lat="33.8106436" lon="-118.3938618">
  <ele>-2.44</ele>
  <time>2026-09-01T01:17:00Z</time>
  <course>295.25</course>
  <speed>0.0</speed>
  <fix>3d</fix>
</trkpt>
<trkpt lat="33.8106434" lon="-118.3938614">
  <ele>-2.505</ele>
  <time>2026-09-01T01:17:00Z</time>
  <course>52.6</course>
  <speed>0.0282842712474619</speed>
  <fix>3d</fix>
</trkpt>
<trkpt lat="33.8106436" lon="-118.3938618">
  <ele>-2.44</ele>
  <time>2026-09-01T01:17:00Z</time>
  <course>295.25</course>
  <speed>0.0</speed>
  <fix>3d</fix>
</trkpt>
<trkpt lat="33.8106434" lon="-118.3938614">
  <ele>-2.505</ele>
  <time>2026-09-01T01:17:00Z</time>
  <course>53.62</course>
  <speed>0.0282842712474619</speed>
  <fix>3d</fix>
</trkpt>
<trkpt lat="33.8106436" lon="-118.3938618">
  <ele>-2.44</ele>
  <time>2026-09-01T01:17:00Z</time>
  <course>309.05</course>
  <speed>0.0</speed>
  <fix>3d</fix>
</trkpt>
<trkpt lat="33.8106434" lon="-118.3938614">
  <ele>-2.506</ele>
  <time>2026-09-01T01:17:00Z</time>
  <course>54.62</course>
  <speed>0.0282842712474619</speed>
  <fix>3d</fix>
</trkpt>
<trkpt lat="33.8106436" lon="-118.3938618">
  <ele>-2.44</ele>
  <time>2026-09-01T01:17:00Z</time>
  <course>309.05</course>
  <speed>0.0</speed>
  <fix>3d</fix>
</trkpt>
<trkpt lat="33.8106434" lon="-118.3938614">
  <ele>-2.507</ele>
  <time>2026-09-01T01:17:00Z</time>
  <course>55.65</course>
  <speed>0.0282842712474619</speed>
  <fix>3d</fix>
</trkpt>
<trkpt lat="33.8106436" lon="-118.3938618">
  <ele>-2.44</ele>
  <time>2026-09-01T01:17:00Z</time>
  <course>347.35</course>
  <speed>0.0</speed>
  <fix>3d</fix>
</trkpt>
<trkpt lat="33.8106434" lon="-118.3938614">
  <ele>-2.509</ele>
  <time>2026-09-01T01:17:00Z</time>
  <course>56.72</course>
  <speed>0.0282842712474619</speed>
  <fix>3d</fix>
</trkpt>
<trkpt lat="33.8106436" lon="-118.3938618">
  <ele>-2.44</ele>
  <time>2026-09-01T01:17:00Z</time>
  <course>347.35</course>
  <speed>0.0</speed>
  <fix>3d</fix>
</trkpt>
<trkpt lat="33.8106434" lon="-118.3938615">
  <ele>-2.511</ele>
  <time>2026-09-01T01:17:00Z</time>
  <course>57.66</course>
  <speed>0.0282842712474619</speed>
  <fix>3d</fix>
</trkpt>
<trkpt lat="33.8106436" lon="-118.3938618">
  <ele>-2.44</ele>
  <time>2026-09-01T01:17:00Z</time>
  <course>29.04</course>
  <speed>0.0</speed>
  <fix>3d</fix>
</trkpt>
<trkpt lat="33.8106434" lon="-118.3938615">
  <ele>-2.512</ele>
  <time>2026-09-01T01:17:00Z</time>
  <course>58.35</course>
  <speed>0.0282842712474619</speed>
  <fix>3d</fix>
</trkpt>
<trkpt lat="33.8106436" lon="-118.3938618">
  <ele>-2.44</ele>
  <time>2026-09-01T01:17:00Z</time>
  <course>29.04</course>
  <speed>0.0</speed>
  <fix>3d</fix>
</trkpt>
<trkpt lat="33.8106434" lon="-118.3938615">
  <ele>-2.512</ele>
  <time>2026-09-01T01:17:00Z</time>
  <course>58.88</course>
  <speed>0.0282842712474619</speed>
  <fix>3d</fix>
</trkpt>
<trkpt lat="33.8106436" lon="-118.3938618">
  <ele>-2.45</ele>
  <time>2026-09-01T01:17:00Z</time>
  <course>44.16</course>
  <speed>0.0</speed>
  <fix>3d</fix>
</trkpt>
<trkpt lat="33.8106434" lon="-118.3938615">
  <ele>-2.511</ele>
  <time>2026-09-01T01:17:00Z</time>
  <course>59.3</course>
  <speed>0.0282842712474619</speed>
  <fix>3d</fix>
</trkpt>
<trkpt lat="33.8106436" lon="-118.3938618">
  <ele>-2.45</ele>
  <time>2026-09-01T01:17:00Z</time>
  <course>44.16</course>
  <speed>0.0</speed>
  <fix>3d</fix>
</trkpt>
<trkpt lat="33.8106434" lon="-118.3938615">
  <ele>-2.512</ele>
  <time>2026-09-01T01:17:00Z</time>
  <course>59.66</course>
  <speed>0.0282842712474619</speed>
  <fix>3d</fix>
</trkpt>
<trkpt lat="33.8106436" lon="-118.3938618">
  <ele>-2.45</ele>
  <time>2026-09-01T01:17:00Z</time>
  <course>48.23</course>
  <speed>0.0</speed>
  <fix>3d</fix>
</trkpt>
<trkpt lat="33.8106434" lon="-118.3938615">
  <ele>-2.514</ele>
  <time>2026-09-01T01:17:00Z</time>
  <course>59.96</course>
  <speed>0.0282842712474619</speed>
  <fix>3d</fix>
</trkpt>
<trkpt lat="33.8106436" lon="-118.3938618">
  <ele>-2.45</ele>
  <time>2026-09-01T01:17:00Z</time>
  <course>48.23</course>
  <speed>0.0</speed>
  <fix>3d</fix>
</trkpt>
<trkpt lat="33.8106434" lon="-118.3938615">
  <ele>-2.515</ele>
  <time>2026-09-01T01:17:00Z</time>
  <course>60.23</course>
  <speed>0.0282842712474619</speed>
  <fix>3d</fix>
</trkpt>
<trkpt lat="33.8106436" lon="-118.3938618">
  <ele>-2.45</ele>
  <time>2026-09-01T01:17:00Z</time>
  <course>48.42</course>
  <speed>0.0</speed>
  <fix>3d</fix>
</trkpt>
<trkpt lat="33.8106434" lon="-118.3938615">
  <ele>-2.516</ele>
  <time>2026-09-01T01:17:00Z</time>
  <course>60.47</course>
  <speed>0.0282842712474619</speed>
  <fix>3d</fix>
</trkpt>
<trkpt lat="33.8106436" lon="-118.3938618">
  <ele>-2.45</ele>
  <time>2026-09-01T01:17:00Z</time>
  <course>48.42</course>
  <speed>0.0</speed>
  <fix>3d</fix>
</trkpt>
<trkpt lat="33.8106434" lon="-118.3938615">
  <ele>-2.517</ele>
  <time>2026-09-01T01:17:00Z</time>
  <course>60.68</course>
  <speed>0.0282842712474619</speed>
  <fix>3d</fix>
</trkpt>
<trkpt lat="33.8106436" lon="-118.3938618">
  <ele>-2.45</ele>
  <time>2026-09-01T01:17:00Z</time>
  <course>48.55</course>
  <speed>0.0</speed>
  <fix>3d</fix>
</trkpt>
<trkpt lat="33.8106434" lon="-118.3938615">
  <ele>-2.517</ele>
  <time>2026-09-01T01:17:00Z</time>
  <course>60.87</course>
  <speed>0.03605551275463989</speed>
  <fix>3d</fix>
</trkpt>
<trkpt lat="33.8106436" lon="-118.3938618">
  <ele>-2.45</ele>
  <time>2026-09-01T01:17:00Z</time>
  <course>48.55</course>
  <speed>0.0</speed>
  <fix>3d</fix>
</trkpt>
<trkpt lat="33.8106434" lon="-118.3938615">
  <ele>-2.517</ele>
  <time>2026-09-01T01:17:00Z</time>
  <course>61.05</course>
  <speed>0.03605551275463989</speed>
  <fix>3d</fix>
</trkpt>
<trkpt lat="33.8106437" lon="-118.3938618">
  <ele>-2.45</ele>
  <time>2026-09-01T01:17:00Z</time>
  <course>48.57</course>
  <speed>0.0</speed>
  <fix>3d</fix>
</trkpt>
<trkpt lat="33.8106434" lon="-118.3938615">
  <ele>-2.515</ele>
  <time>2026-09-01T01:17:00Z</time>
  <course>61.22</course>
  <speed>0.03605551275463989</speed>
  <fix>3d</fix>
</trkpt>
<trkpt lat="33.8106437" lon="-118.3938618">
  <ele>-2.45</ele>
  <time>2026-09-01T01:17:00Z</time>
  <course>48.57</course>
  <speed>0.0</speed>
  <fix>3d</fix>
</trkpt>
<trkpt lat="33.8106434" lon="-118.3938615">
  <ele>-2.512</ele>
  <time>2026-09-01T01:17:00Z</time>
  <course>61.37</course>
  <speed>0.03605551275463989</speed>
  <fix>3d</fix>
</trkpt>
<trkpt lat="33.8106437" lon="-118.3938618">
  <ele>-2.44</ele>
  <time>2026-09-01T01:17:00Z</time>
  <course>48.71</course>
  <speed>0.0</speed>
  <fix>3d</fix>
</trkpt>
<trkpt lat="33.8106434" lon="-118.3938615">
  <ele>-2.509</ele>
  <time>2026-09-01T01:17:00Z</time>
  <course>61.51</course>
  <speed>0.0316227766016838</speed>
  <fix>3d</fix>
</trkpt>
<trkpt lat="33.8106437" lon="-118.3938618">
  <ele>-2.44</ele>
  <time>2026-09-01T01:17:00Z</time>
  <course>48.71</course>
  <speed>0.0</speed>
  <fix>3d</fix>
</trkpt>
<trkpt lat="33.8106434" lon="-118.3938615">
  <ele>-2.505</ele>
  <time>2026-09-01T01:17:00Z</time>
  <course>61.65</course>
  <speed>0.0316227766016838</speed>
  <fix>3d</fix>
</trkpt>
<trkpt lat="33.8106437" lon="-118.3938618">
  <ele>-2.44</ele>
  <time>2026-09-01T01:17:00Z</time>
  <course>49.14</course>
  <speed>0.0</speed>
  <fix>3d</fix>
</trkpt>
<trkpt lat="33.8106434" lon="-118.3938615">
  <ele>-2.503</ele>
  <time>2026-09-01T01:17:00Z</time>
  <course>61.78</course>
  <speed>0.0316227766016838</speed>
  <fix>3d</fix>
</trkpt>
<trkpt lat="33.8106437" lon="-118.3938618">
  <ele>-2.44</ele>
  <time>2026-09-01T01:17:00Z</time>
  <course>49.14</course>
  <speed>0.0</speed>
  <fix>3d</fix>
</trkpt>
<trkpt lat="33.8106434" lon="-118.3938615">
  <ele>-2.502</ele>
  <time>2026-09-01T01:17:00Z</time>
  <course>61.89</course>
  <speed>0.0316227766016838</speed>
  <fix>3d</fix>
</trkpt>
<trkpt lat="33.8106437" lon="-118.3938618">
  <ele>-2.44</ele>
  <time>2026-09-01T01:17:00Z</time>
  <course>49.84</course>
  <speed>0.0</speed>
  <fix>3d</fix>
</trkpt>
<trkpt lat="33.8106434" lon="-118.3938615">
  <ele>-2.503</ele>
  <time>2026-09-01T01:17:00Z</time>
  <course>62.01</course>
  <speed>0.0316227766016838</speed>
  <fix>3d</fix>
</trkpt>
<trkpt lat="33.8106437" lon="-118.3938618">
  <ele>-2.44</ele>
  <time>2026-09-01T01:17:00Z</time>
  <course>49.84</course>
  <speed>0.0</speed>
  <fix>3d</fix>
</trkpt>
<trkpt lat="33.8106434" lon="-118.3938615">
  <ele>-2.506</ele>
  <time>2026-09-01T01:17:00Z</time>
  <course>62.11</course>
  <speed>0.0316227766016838</speed>
  <fix>3d</fix>
</trkpt>
<trkpt lat="33.8106437" lon="-118.3938618">
  <ele>-2.44</ele>
  <time>2026-09-01T01:17:00Z</time>
  <course>50.54</course>
  <speed>0.0</speed>
  <fix>3d</fix>
</trkpt>
<trkpt lat="33.8106434" lon="-118.3938615">
  <ele>-2.508</ele>
  <time>2026-09-01T01:17:00Z</time>
  <course>62.15</course>
  <speed>0.0316227766016838</speed>
  <fix>3d</fix>
</trkpt>
<trkpt lat="33.8106437" lon="-118.3938618">
  <ele>-2.44</ele>
  <time>2026-09-01T01:17:00Z</time>
  <course>50.54</course>
  <speed>0.0</speed>
  <fix>3d</fix>
</trkpt>
<trkpt lat="33.8106434" lon="-118.3938615">
  <ele>-2.511</ele>
  <time>2026-09-01T01:17:00Z</time>
  <course>62.12</course>
  <speed>0.0316227766016838</speed>
  <fix>3d</fix>
</trkpt>
<trkpt lat="33.8106437" lon="-118.3938618">
  <ele>-2.44</ele>
  <time>2026-09-01T01:17:00Z</time>
  <course>58.07</course>
  <speed>0.0</speed>
  <fix>3d</fix>
</trkpt>
<trkpt lat="33.8106434" lon="-118.3938615">
  <ele>-2.513</ele>
  <time>2026-09-01T01:17:00Z</time>
  <course>61.89</course>
  <speed>0.03605551275463989</speed>
  <fix>3d</fix>
</trkpt>
<trkpt lat="33.8106437" lon="-118.3938618">
  <ele>-2.44</ele>
  <time>2026-09-01T01:17:00Z</time>
  <course>58.07</course>
  <speed>0.0</speed>
  <fix>3d</fix>
</trkpt>
<trkpt lat="33.8106434" lon="-118.3938615">
  <ele>-2.514</ele>
  <time>2026-09-01T01:17:00Z</time>
  <course>61.42</course>
  <speed>0.03605551275463989</speed>
  <fix>3d</fix>
</trkpt>
<trkpt lat="33.8106437" lon="-118.3938617">
  <ele>-2.45</ele>
  <time>2026-09-01T01:17:00Z</time>
  <course>76.6</course>
  <speed>0.01</speed>
  <fix>3d</fix>
</trkpt>
<trkpt lat="33.8106434" lon="-118.3938615">
  <ele>-2.515</ele>
  <time>2026-09-01T01:17:00Z</time>
  <course>60.78</course>
  <speed>0.04242640687119285</speed>
  <fix>3d</fix>
</trkpt>
<trkpt lat="33.8106437" lon="-118.3938617">
  <ele>-2.45</ele>
  <time>2026-09-01T01:17:00Z</time>
  <course>76.6</course>
  <speed>0.01</speed>
  <fix>3d</fix>
</trkpt>
<trkpt lat="33.8106434" lon="-118.3938615">
  <ele>-2.515</ele>
  <time>2026-09-01T01:17:00Z</time>
  <course>60.02</course>
  <speed>0.04242640687119285</speed>
  <fix>3d</fix>
</trkpt>
<trkpt lat="33.8106437" lon="-118.3938616">
  <ele>-2.45</ele>
  <time>2026-09-01T01:17:00Z</time>
  <course>84.47</course>
  <speed>0.02</speed>
  <fix>3d</fix>
</trkpt>
<trkpt lat="33.8106434" lon="-118.3938615">
  <ele>-2.515</ele>
  <time>2026-09-01T01:17:00Z</time>
  <course>59.14</course>
  <speed>0.04242640687119285</speed>
  <fix>3d</fix>
</trkpt>
<trkpt lat="33.8106437" lon="-118.3938616">
  <ele>-2.45</ele>
  <time>2026-09-01T01:17:00Z</time>
  <course>84.47</course>
  <speed>0.02</speed>
  <fix>3d</fix>
</trkpt>
<trkpt lat="33.8106434" lon="-118.3938615">
  <ele>-2.513</ele>
  <time>2026-09-01T01:17:00Z</time>
  <course>58.22</course>
  <speed>0.04242640687119285</speed>
  <fix>3d</fix>
</trkpt>
<trkpt lat="33.8106437" lon="-118.3938616">
  <ele>-2.45</ele>
  <time>2026-09-01T01:17:00Z</time>
  <course>86.89</course>
  <speed>0.02</speed>
  <fix>3d</fix>
</trkpt>
<trkpt lat="33.8106434" lon="-118.3938615">
  <ele>-2.512</ele>
  <time>2026-09-01T01:17:00Z</time>
  <course>57.26</course>
  <speed>0.03605551275463989</speed>
  <fix>3d</fix>
</trkpt>
<trkpt lat="33.8106437" lon="-118.3938616">
  <ele>-2.45</ele>
  <time>2026-09-01T01:17:00Z</time>
  <course>86.89</course>
  <speed>0.02</speed>
  <fix>3d</fix>
</trkpt>
<trkpt lat="33.8106434" lon="-118.3938615">
  <ele>-2.512</ele>
  <time>2026-09-01T01:17:00Z</time>
  <course>56.29</course>
  <speed>0.03605551275463989</speed>
  <fix>3d</fix>
</trkpt>
<trkpt lat="33.8106437" lon="-118.3938616">
  <ele>-2.45</ele>
  <time>2026-09-01T01:17:00Z</time>
  <course>87.39</course>
  <speed>0.02</speed>
  <fix>3d</fix>
</trkpt>
<trkpt lat="33.8106434" lon="-118.3938615">
  <ele>-2.513</ele>
  <time>2026-09-01T01:17:00Z</time>
  <course>55.27</course>
  <speed>0.03605551275463989</speed>
  <fix>3d</fix>
</trkpt>
<trkpt lat="33.8106437" lon="-118.3938616">
  <ele>-2.45</ele>
  <time>2026-09-01T01:17:00Z</time>
  <course>87.39</course>
  <speed>0.02</speed>
  <fix>3d</fix>
</trkpt>
<trkpt lat="33.8106434" lon="-118.3938614">
  <ele>-2.513</ele>
  <time>2026-09-01T01:17:00Z</time>
  <course>54.26</course>
  <speed>0.0316227766016838</speed>
  <fix>3d</fix>
</trkpt>
<trkpt lat="33.8106437" lon="-118.3938615">
  <ele>-2.45</ele>
  <time>2026-09-01T01:17:00Z</time>
  <course>86.67</course>
  <speed>0.02</speed>
  <fix>3d</fix>
</trkpt>
<trkpt lat="33.8106434" lon="-118.3938614">
  <ele>-2.514</ele>
  <time>2026-09-01T01:17:00Z</time>
  <course>53.23</course>
  <speed>0.0316227766016838</speed>
  <fix>3d</fix>
</trkpt>
<trkpt lat="33.8106437" lon="-118.3938615">
  <ele>-2.45</ele>
  <time>2026-09-01T01:17:00Z</time>
  <course>86.67</course>
  <speed>0.02</speed>
  <fix>3d</fix>
</trkpt>
<trkpt lat="33.8106434" lon="-118.3938614">
  <ele>-2.514</ele>
  <time>2026-09-01T01:17:00Z</time>
  <course>52.19</course>
  <speed>0.0316227766016838</speed>
  <fix>3d</fix>
</trkpt>
<trkpt lat="33.8106437" lon="-118.3938615">
  <ele>-2.44</ele>
  <time>2026-09-01T01:17:00Z</time>
  <course>86.45</course>
  <speed>0.01</speed>
  <fix>3d</fix>
</trkpt>
<trkpt lat="33.8106434" lon="-118.3938614">
  <ele>-2.513</ele>
  <time>2026-09-01T01:17:00Z</time>
  <course>51.14</course>
  <speed>0.0316227766016838</speed>
  <fix>3d</fix>
</trkpt>
<trkpt lat="33.8106437" lon="-118.3938615">
  <ele>-2.44</ele>
  <time>2026-09-01T01:17:00Z</time>
  <course>86.45</course>
  <speed>0.01</speed>
  <fix>3d</fix>
</trkpt>
<trkpt lat="33.8106434" lon="-118.3938614">
  <ele>-2.511</ele>
  <time>2026-09-01T01:17:00Z</time>
  <course>50.08</course>
  <speed>0.0316227766016838</speed>
  <fix>3d</fix>
</trkpt>
<trkpt lat="33.8106437" lon="-118.3938615">
  <ele>-2.44</ele>
  <time>2026-09-01T01:17:00Z</time>
  <course>86.47</course>
  <speed>0.01</speed>
  <fix>3d</fix>
</trkpt>
<trkpt lat="33.8106434" lon="-118.3938614">
  <ele>-2.509</ele>
  <time>2026-09-01T01:17:00Z</time>
  <course>49.02</course>
  <speed>0.0316227766016838</speed>
  <fix>3d</fix>
</trkpt>
<trkpt lat="33.8106437" lon="-118.3938615">
  <ele>-2.44</ele>
  <time>2026-09-01T01:17:00Z</time>
  <course>86.47</course>
  <speed>0.01</speed>
  <fix>3d</fix>
</trkpt>
<trkpt lat="33.8106434" lon="-118.3938614">
  <ele>-2.508</ele>
  <time>2026-09-01T01:17:00Z</time>
  <course>47.95</course>
  <speed>0.03</speed>
  <fix>3d</fix>
</trkpt>
<trkpt lat="33.8106437" lon="-118.3938614">
  <ele>-2.44</ele>
  <time>2026-09-01T01:17:00Z</time>
  <course>86.38</course>
  <speed>0.01</speed>
  <fix>3d</fix>
</trkpt>
<trkpt lat="33.8106434" lon="-118.3938614">
  <ele>-2.508</ele>
  <time>2026-09-01T01:17:00Z</time>
  <course>46.89</course>
  <speed>0.03</speed>
  <fix>3d</fix>
</trkpt>
<trkpt lat="33.8106437" lon="-118.3938614">
  <ele>-2.44</ele>
  <time>2026-09-01T01:17:00Z</time>
  <course>86.38</course>
  <speed>0.01</speed>
  <fix>3d</fix>
</trkpt>
<trkpt lat="33.8106434" lon="-118.3938614">
  <ele>-2.509</ele>
  <time>2026-09-01T01:17:00Z</time>
  <course>45.82</course>
  <speed>0.03</speed>
  <fix>3d</fix>
</trkpt>
<trkpt lat="33.8106437" lon="-118.3938614">
  <ele>-2.44</ele>
  <time>2026-09-01T01:17:00Z</time>
  <course>85.9</course>
  <speed>0.01</speed>
  <fix>3d</fix>
</trkpt>
<trkpt lat="33.8106434" lon="-118.3938614">
  <ele>-2.51</ele>
  <time>2026-09-01T01:17:00Z</time>
  <course>44.76</course>
  <speed>0.03</speed>
  <fix>3d</fix>
</trkpt>
<trkpt lat="33.8106437" lon="-118.3938614">
  <ele>-2.44</ele>
  <time>2026-09-01T01:17:00Z</time>
  <course>85.9</course>
  <speed>0.01</speed>
  <fix>3d</fix>
</trkpt>
<trkpt lat="33.8106434" lon="-118.3938614">
  <ele>-2.511</ele>
  <time>2026-09-01T01:17:00Z</time>
  <course>43.7</course>
  <speed>0.03</speed>
  <fix>3d</fix>
</trkpt>
<trkpt lat="33.8106437" lon="-118.3938614">
  <ele>-2.44</ele>
  <time>2026-09-01T01:17:00Z</time>
  <course>85.11</course>
  <speed>0.01</speed>
  <fix>3d</fix>
</trkpt>
<trkpt lat="33.8106434" lon="-118.3938614">
  <ele>-2.511</ele>
  <time>2026-09-01T01:17:00Z</time>
  <course>42.64</course>
  <speed>0.03</speed>
  <fix>3d</fix>
</trkpt>
<trkpt lat="33.8106437" lon="-118.3938614">
  <ele>-2.44</ele>
  <time>2026-09-01T01:17:00Z</time>
  <course>85.11</course>
  <speed>0.01</speed>
  <fix>3d</fix>
</trkpt>
<trkpt lat="33.8106434" lon="-118.3938614">
  <ele>-2.511</ele>
  <time>2026-09-01T01:17:00Z</time>
  <course>41.58</course>
  <speed>0.03</speed>
  <fix>3d</fix>
</trkpt>
<trkpt lat="33.8106437" lon="-118.3938613">
  <ele>-2.44</ele>
  <time>2026-09-01T01:17:00Z</time>
  <course>84.23</course>
  <speed>0.01</speed>
  <fix>3d</fix>
</trkpt>
<trkpt lat="33.8106434" lon="-118.3938614">
  <ele>-2.51</ele>
  <time>2026-09-01T01:17:00Z</time>
  <course>40.52</course>
  <speed>0.03</speed>
  <fix>3d</fix>
</trkpt>
<trkpt lat="33.8106437" lon="-118.3938613">
  <ele>-2.44</ele>
  <time>2026-09-01T01:17:00Z</time>
  <course>84.23</course>
  <speed>0.01</speed>
  <fix>3d</fix>
</trkpt>
<trkpt lat="33.8106434" lon="-118.3938614">
  <ele>-2.51</ele>
  <time>2026-09-01T01:17:00Z</time>
  <course>39.47</course>
  <speed>0.03</speed>
  <fix>3d</fix>
</trkpt>
<trkpt lat="33.8106437" lon="-118.3938613">
  <ele>-2.44</ele>
  <time>2026-09-01T01:17:00Z</time>
  <course>83.5</course>
  <speed>0.01</speed>
  <fix>3d</fix>
</trkpt>
<trkpt lat="33.8106434" lon="-118.3938614">
  <ele>-2.51</ele>
  <time>2026-09-01T01:17:00Z</time>
  <course>38.42</course>
  <speed>0.03</speed>
  <fix>3d</fix>
</trkpt>
<trkpt lat="33.8106437" lon="-118.3938613">
  <ele>-2.44</ele>
  <time>2026-09-01T01:17:00Z</time>
  <course>83.5</course>
  <speed>0.01</speed>
  <fix>3d</fix>
</trkpt>
<trkpt lat="33.8106434" lon="-118.3938614">
  <ele>-2.509</ele>
  <time>2026-09-01T01:17:00Z</time>
  <course>37.36</course>
  <speed>0.03</speed>
  <fix>3d</fix>
</trkpt>
<trkpt lat="33.8106437" lon="-118.3938613">
  <ele>-2.44</ele>
  <time>2026-09-01T01:17:00Z</time>
  <course>82.82</course>
  <speed>0.01</speed>
  <fix>3d</fix>
</trkpt>
<trkpt lat="33.8106434" lon="-118.3938614">
  <ele>-2.509</ele>
  <time>2026-09-01T01:17:00Z</time>
  <course>36.31</course>
  <speed>0.03</speed>
  <fix>3d</fix>
</trkpt>
<trkpt lat="33.8106437" lon="-118.3938613">
  <ele>-2.44</ele>
  <time>2026-09-01T01:17:00Z</time>
  <course>82.82</course>
  <speed>0.01</speed>
  <fix>3d</fix>
</trkpt>
<trkpt lat="33.8106434" lon="-118.3938614">
  <ele>-2.509</ele>
  <time>2026-09-01T01:17:00Z</time>
  <course>35.26</course>
  <speed>0.03</speed>
  <fix>3d</fix>
</trkpt>
<trkpt lat="33.8106437" lon="-118.3938613">
  <ele>-2.44</ele>
  <time>2026-09-01T01:17:00Z</time>
  <course>82.12</course>
  <speed>0.01</speed>
  <fix>3d</fix>
</trkpt>
<trkpt lat="33.8106434" lon="-118.3938614">
  <ele>-2.509</ele>
  <time>2026-09-01T01:17:00Z</time>
  <course>34.2</course>
  <speed>0.03</speed>
  <fix>3d</fix>
</trkpt>
<trkpt lat="33.8106437" lon="-118.3938613">
  <ele>-2.44</ele>
  <time>2026-09-01T01:17:00Z</time>
  <course>82.12</course>
  <speed>0.01</speed>
  <fix>3d</fix>
</trkpt>
<trkpt lat="33.8106434" lon="-118.3938613">
  <ele>-2.509</ele>
  <time>2026-09-01T01:17:00Z</time>
  <course>33.15</course>
  <speed>0.03</speed>
  <fix>3d</fix>
</trkpt>
<trkpt lat="33.8106437" lon="-118.3938613">
  <ele>-2.44</ele>
  <time>2026-09-01T01:17:00Z</time>
  <course>81.29</course>
  <speed>0.01</speed>
  <fix>3d</fix>
</trkpt>
<trkpt lat="33.8106434" lon="-118.3938613">
  <ele>-2.508</ele>
  <time>2026-09-01T01:17:00Z</time>
  <course>32.1</course>
  <speed>0.03</speed>
  <fix>3d</fix>
</trkpt>
<trkpt lat="33.8106437" lon="-118.3938613">
  <ele>-2.44</ele>
  <time>2026-09-01T01:17:00Z</time>
  <course>81.29</course>
  <speed>0.01</speed>
  <fix>3d</fix>
</trkpt>
<trkpt lat="33.8106434" lon="-118.3938613">
  <ele>-2.509</ele>
  <time>2026-09-01T01:17:00Z</time>
  <course>31.06</course>
  <speed>0.03</speed>
  <fix>3d</fix>
</trkpt>
<trkpt lat="33.8106437" lon="-118.3938612">
  <ele>-2.44</ele>
  <time>2026-09-01T01:17:00Z</time>
  <course>80.51</course>
  <speed>0.01</speed>
  <fix>3d</fix>
</trkpt>
<trkpt lat="33.8106434" lon="-118.3938613">
  <ele>-2.509</ele>
  <time>2026-09-01T01:17:00Z</time>
  <course>30.02</course>
  <speed>0.03</speed>
  <fix>3d</fix>
</trkpt>
<trkpt lat="33.8106437" lon="-118.3938612">
  <ele>-2.44</ele>
  <time>2026-09-01T01:17:00Z</time>
  <course>80.51</course>
  <speed>0.01</speed>
  <fix>3d</fix>
</trkpt>
<trkpt lat="33.8106434" lon="-118.3938613">
  <ele>-2.51</ele>
  <time>2026-09-01T01:17:00Z</time>
  <course>28.98</course>
  <speed>0.03</speed>
  <fix>3d</fix>
</trkpt>
<trkpt lat="33.8106437" lon="-118.3938612">
  <ele>-2.44</ele>
  <time>2026-09-01T01:17:00Z</time>
  <course>79.61</course>
  <speed>0.01</speed>
  <fix>3d</fix>
</trkpt>
<trkpt lat="33.8106434" lon="-118.3938613">
  <ele>-2.512</ele>
  <time>2026-09-01T01:17:00Z</time>
  <course>27.93</course>
  <speed>0.03</speed>
  <fix>3d</fix>
</trkpt>
<trkpt lat="33.8106437" lon="-118.3938612">
  <ele>-2.44</ele>
  <time>2026-09-01T01:17:00Z</time>
  <course>79.61</course>
  <speed>0.01</speed>
  <fix>3d</fix>
</trkpt>
<trkpt lat="33.8106434" lon="-118.3938613">
  <ele>-2.513</ele>
  <time>2026-09-01T01:17:00Z</time>
  <course>26.89</course>
  <speed>0.03</speed>
  <fix>3d</fix>
</trkpt>
<trkpt lat="33.8106437" lon="-118.3938612">
  <ele>-2.45</ele>
  <time>2026-09-01T01:17:00Z</time>
  <course>78.11</course>
  <speed>0.01</speed>
  <fix>3d</fix>
</trkpt>
<trkpt lat="33.8106434" lon="-118.3938613">
  <ele>-2.514</ele>
  <time>2026-09-01T01:17:00Z</time>
  <course>25.85</course>
  <speed>0.03</speed>
  <fix>3d</fix>
</trkpt>
<trkpt lat="33.8106437" lon="-118.3938612">
  <ele>-2.45</ele>
  <time>2026-09-01T01:17:00Z</time>
  <course>78.11</course>
  <speed>0.01</speed>
  <fix>3d</fix>
</trkpt>
<trkpt lat="33.8106434" lon="-118.3938613">
  <ele>-2.514</ele>
  <time>2026-09-01T01:17:00Z</time>
  <course>24.81</course>
  <speed>0.03</speed>
  <fix>3d</fix>
</trkpt>
<trkpt lat="33.8106437" lon="-118.3938612">
  <ele>-2.45</ele>
  <time>2026-09-01T01:17:00Z</time>
  <course>76.2</course>
  <speed>0.01</speed>
  <fix>3d</fix>
</trkpt>
<trkpt lat="33.8106434" lon="-118.3938613">
  <ele>-2.513</ele>
  <time>2026-09-01T01:17:00Z</time>
  <course>23.77</course>
  <speed>0.03</speed>
  <fix>3d</fix>
</trkpt>
<trkpt lat="33.8106437" lon="-118.3938612">
  <ele>-2.45</ele>
  <time>2026-09-01T01:17:00Z</time>
  <course>76.2</course>
  <speed>0.01</speed>
  <fix>3d</fix>
</trkpt>
<trkpt lat="33.8106434" lon="-118.3938613">
  <ele>-2.513</ele>
  <time>2026-09-01T01:17:00Z</time>
  <course>22.73</course>
  <speed>0.0316227766016838</speed>
  <fix>3d</fix>
</trkpt>
<trkpt lat="33.8106438" lon="-118.3938611">
  <ele>-2.45</ele>
  <time>2026-09-01T01:17:00Z</time>
  <course>74.08</course>
  <speed>0.0</speed>
  <fix>3d</fix>
</trkpt>
<trkpt lat="33.8106434" lon="-118.3938613">
  <ele>-2.512</ele>
  <time>2026-09-01T01:17:00Z</time>
  <course>21.72</course>
  <speed>0.0316227766016838</speed>
  <fix>3d</fix>
</trkpt>
<trkpt lat="33.8106438" lon="-118.3938611">
  <ele>-2.45</ele>
  <time>2026-09-01T01:17:00Z</time>
  <course>74.08</course>
  <speed>0.0</speed>
  <fix>3d</fix>
</trkpt>
<trkpt lat="33.8106434" lon="-118.3938613">
  <ele>-2.512</ele>
  <time>2026-09-01T01:17:00Z</time>
  <course>20.68</course>
  <speed>0.0316227766016838</speed>
  <fix>3d</fix>
</trkpt>
<trkpt lat="33.8106438" lon="-118.3938611">
  <ele>-2.44</ele>
  <time>2026-09-01T01:17:00Z</time>
  <course>74.49</course>
  <speed>0.0</speed>
  <fix>3d</fix>
</trkpt>
<trkpt lat="33.8106434" lon="-118.3938613">
  <ele>-2.511</ele>
  <time>2026-09-01T01:17:00Z</time>
  <course>19.67</course>
  <speed>0.0316227766016838</speed>
  <fix>3d</fix>
</trkpt>
<trkpt lat="33.8106438" lon="-118.3938611">
  <ele>-2.44</ele>
  <time>2026-09-01T01:17:00Z</time>
  <course>74.49</course>
  <speed>0.0</speed>
  <fix>3d</fix>
</trkpt>
<trkpt lat="33.8106434" lon="-118.3938613">
  <ele>-2.511</ele>
  <time>2026-09-01T01:17:00Z</time>
  <course>18.63</course>
  <speed>0.0316227766016838</speed>
  <fix>3d</fix>
</trkpt>
<trkpt lat="33.8106438" lon="-118.3938611">
  <ele>-2.44</ele>
  <time>2026-09-01T01:17:00Z</time>
  <course>81.83</course>
  <speed>0.0</speed>
  <fix>3d</fix>
</trkpt>
<trkpt lat="33.8106434" lon="-118.3938613">
  <ele>-2.509</ele>
  <time>2026-09-01T01:17:00Z</time>
  <course>17.61</course>
  <speed>0.0316227766016838</speed>
  <fix>3d</fix>
</trkpt>
<trkpt lat="33.8106438" lon="-118.3938611">
  <ele>-2.44</ele>
  <time>2026-09-01T01:17:00Z</time>
  <course>81.83</course>
  <speed>0.0</speed>
  <fix>3d</fix>
</trkpt>
<trkpt lat="33.8106434" lon="-118.3938613">
  <ele>-2.508</ele>
  <time>2026-09-01T01:17:00Z</time>
  <course>16.58</course>
  <speed>0.0316227766016838</speed>
  <fix>3d</fix>
</trkpt>
<trkpt lat="33.8106438" lon="-118.3938611">
  <ele>-2.44</ele>
  <time>2026-09-01T01:17:00Z</time>
  <course>98.77</course>
  <speed>0.0</speed>
  <fix>3d</fix>
</trkpt>
<trkpt lat="33.8106434" lon="-118.3938613">
  <ele>-2.507</ele>
  <time>2026-09-01T01:17:00Z</time>
  <course>15.54</course>
  <speed>0.0316227766016838</speed>
  <fix>3d</fix>
</trkpt>
<trkpt lat="33.8106438" lon="-118.3938611">
  <ele>-2.44</ele>
  <time>2026-09-01T01:17:00Z</time>
  <course>98.77</course>
  <speed>0.0</speed>
  <fix>3d</fix>
</trkpt>
<trkpt lat="33.8106434" lon="-118.3938613">
  <ele>-2.508</ele>
  <time>2026-09-01T01:17:00Z</time>
  <course>14.51</course>
  <speed>0.0316227766016838</speed>
  <fix>3d</fix>
</trkpt>
<trkpt lat="33.8106438" lon="-118.3938611">
  <ele>-2.44</ele>
  <time>2026-09-01T01:17:00Z</time>
  <course>122.2</course>
  <speed>0.0</speed>
  <fix>3d</fix>
</trkpt>
<trkpt lat="33.8106434" lon="-118.3938613">
  <ele>-2.51</ele>
  <time>2026-09-01T01:17:00Z</time>
  <course>13.59</course>
  <speed>0.0412310562561766</speed>
  <fix>3d</fix>
</trkpt>
<trkpt lat="33.8106438" lon="-118.3938611">
  <ele>-2.44</ele>
  <time>2026-09-01T01:17:00Z</time>
  <course>122.2</course>
  <speed>0.0</speed>
  <fix>3d</fix>
</trkpt>
<trkpt lat="33.8106434" lon="-118.3938612">
  <ele>-2.511</ele>
  <time>2026-09-01T01:17:00Z</time>
  <course>12.94</course>
  <speed>0.0412310562561766</speed>
  <fix>3d</fix>
</trkpt>
<trkpt lat="33.8106438" lon="-118.3938611">
  <ele>-2.44</ele>
  <time>2026-09-01T01:17:00Z</time>
  <course>141.42</course>
  <speed>0.0</speed>
  <fix>3d</fix>
</trkpt>
<trkpt lat="33.8106434" lon="-118.3938612">
  <ele>-2.511</ele>
  <time>2026-09-01T01:17:00Z</time>
  <course>12.43</course>
  <speed>0.0412310562561766</speed>
  <fix>3d</fix>
</trkpt>
<trkpt lat="33.8106438" lon="-118.3938611">
  <ele>-2.44</ele>
  <time>2026-09-01T01:17:00Z</time>
  <course>141.42</course>
  <speed>0.0</speed>
  <fix>3d</fix>
</trkpt>
<trkpt lat="33.8106434" lon="-118.3938612">
  <ele>-2.509</ele>
  <time>2026-09-01T01:17:00Z</time>
  <course>12.03</course>
  <speed>0.0412310562561766</speed>
  <fix>3d</fix>
</trkpt>
<trkpt lat="33.8106438" lon="-118.3938611">
  <ele>-2.44</ele>
  <time>2026-09-01T01:17:00Z</time>
  <course>147.47</course>
  <speed>0.0</speed>
  <fix>3d</fix>
</trkpt>
<trkpt lat="33.8106434" lon="-118.3938612">
  <ele>-2.508</ele>
  <time>2026-09-01T01:17:00Z</time>
  <course>11.68</course>
  <speed>0.0412310562561766</speed>
  <fix>3d</fix>
</trkpt>
<trkpt lat="33.8106438" lon="-118.3938611">
  <ele>-2.44</ele>
  <time>2026-09-01T01:17:00Z</time>
  <course>147.47</course>
  <speed>0.0</speed>
  <fix>3d</fix>
</trkpt>
<trkpt lat="33.8106434" lon="-118.3938612">
  <ele>-2.508</ele>
  <time>2026-09-01T01:17:00Z</time>
  <course>11.39</course>
  <speed>0.0412310562561766</speed>
  <fix>3d</fix>
</trkpt>
<trkpt lat="33.8106438" lon="-118.3938611">
  <ele>-2.44</ele>
  <time>2026-09-01T01:17:00Z</time>
  <course>147.43</course>
  <speed>0.0</speed>
  <fix>3d</fix>
</trkpt>
<trkpt lat="33.8106434" lon="-118.3938612">
  <ele>-2.508</ele>
  <time>2026-09-01T01:17:00Z</time>
  <course>11.12</course>
  <speed>0.0412310562561766</speed>
  <fix>3d</fix>
</trkpt>
<trkpt lat="33.8106438" lon="-118.3938611">
  <ele>-2.44</ele>
  <time>2026-09-01T01:17:00Z</time>
  <course>147.43</course>
  <speed>0.0</speed>
  <fix>3d</fix>
</trkpt>
<trkpt lat="33.8106434" lon="-118.3938612">
  <ele>-2.509</ele>
  <time>2026-09-01T01:17:00Z</time>
  <course>10.89</course>
  <speed>0.0412310562561766</speed>
  <fix>3d</fix>
</trkpt>
<trkpt lat="33.8106438" lon="-118.3938611">
  <ele>-2.44</ele>
  <time>2026-09-01T01:17:00Z</time>
  <course>147.27</course>
  <speed>0.0</speed>
  <fix>3d</fix>
</trkpt>
<trkpt lat="33.8106434" lon="-118.3938612">
  <ele>-2.512</ele>
  <time>2026-09-01T01:17:00Z</time>
  <course>10.68</course>
  <speed>0.0412310562561766</speed>
  <fix>3d</fix>
</trkpt>
<trkpt lat="33.8106438" lon="-118.3938611">
  <ele>-2.44</ele>
  <time>2026-09-01T01:17:00Z</time>
  <course>147.27</course>
  <speed>0.0</speed>
  <fix>3d</fix>
</trkpt>
<trkpt lat="33.8106434" lon="-118.3938612">
  <ele>-2.513</ele>
  <time>2026-09-01T01:17:00Z</time>
  <course>10.49</course>
  <speed>0.0316227766016838</speed>
  <fix>3d</fix>
</trkpt>
<trkpt lat="33.8106438" lon="-118.393861">
  <ele>-2.45</ele>
  <time>2026-09-01T01:17:00Z</time>
  <course>147.14</course>
  <speed>0.0</speed>
  <fix>3d</fix>
</trkpt>
<trkpt lat="33.8106434" lon="-118.3938612">
  <ele>-2.514</ele>
  <time>2026-09-01T01:17:00Z</time>
  <course>10.31</course>
  <speed>0.0316227766016838</speed>
  <fix>3d</fix>
</trkpt>
<trkpt lat="33.8106438" lon="-118.393861">
  <ele>-2.45</ele>
  <time>2026-09-01T01:17:00Z</time>
  <course>147.14</course>
  <speed>0.0</speed>
  <fix>3d</fix>
</trkpt>
<trkpt lat="33.8106434" lon="-118.3938612">
  <ele>-2.514</ele>
  <time>2026-09-01T01:17:00Z</time>
  <course>10.15</course>
  <speed>0.0316227766016838</speed>
  <fix>3d</fix>
</trkpt>
<trkpt lat="33.8106438" lon="-118.393861">
  <ele>-2.45</ele>
  <time>2026-09-01T01:17:00Z</time>
  <course>147.11</course>
  <speed>0.0</speed>
  <fix>3d</fix>
</trkpt>
<trkpt lat="33.8106434" lon="-118.3938612">
  <ele>-2.513</ele>
  <time>2026-09-01T01:17:00Z</time>
  <course>10.0</course>
  <speed>0.0316227766016838</speed>
  <fix>3d</fix>
</trkpt>
<trkpt lat="33.8106438" lon="-118.393861">
  <ele>-2.45</ele>
  <time>2026-09-01T01:17:00Z</time>
  <course>147.11</course>
  <speed>0.0</speed>
  <fix>3d</fix>
</trkpt>
<trkpt lat="33.8106434" lon="-118.3938612">
  <ele>-2.514</ele>
  <time>2026-09-01T01:17:00Z</time>
  <course>9.86</course>
  <speed>0.0316227766016838</speed>
  <fix>3d</fix>
</trkpt>
<trkpt lat="33.8106438" lon="-118.393861">
  <ele>-2.45</ele>
  <time>2026-09-01T01:17:00Z</time>
  <course>147.11</course>
  <speed>0.0</speed>
  <fix>3d</fix>
</trkpt>
<trkpt lat="33.8106434" lon="-118.3938612">
  <ele>-2.513</ele>
  <time>2026-09-01T01:17:00Z</time>
  <course>9.72</course>
  <speed>0.0316227766016838</speed>
  <fix>3d</fix>
</trkpt>
<trkpt lat="33.8106438" lon="-118.393861">
  <ele>-2.45</ele>
  <time>2026-09-01T01:17:00Z</time>
  <course>147.11</course>
  <speed>0.0</speed>
  <fix>3d</fix>
</trkpt>
<trkpt lat="33.8106434" lon="-118.3938612">
  <ele>-2.512</ele>
  <time>2026-09-01T01:17:00Z</time>
  <course>9.6</course>
  <speed>0.0316227766016838</speed>
  <fix>3d</fix>
</trkpt>
<trkpt lat="33.8106438" lon="-118.393861">
  <ele>-2.45</ele>
  <time>2026-09-01T01:17:00Z</time>
  <course>147.08</course>
  <speed>0.0</speed>
  <fix>3d</fix>
</trkpt>
<trkpt lat="33.8106434" lon="-118.3938612">
  <ele>-2.51</ele>
  <time>2026-09-01T01:17:00Z</time>
  <course>9.48</course>
  <speed>0.0316227766016838</speed>
  <fix>3d</fix>
</trkpt>
<trkpt lat="33.8106438" lon="-118.393861">
  <ele>-2.45</ele>
  <time>2026-09-01T01:17:00Z</time>
  <course>147.08</course>
  <speed>0.0</speed>
  <fix>3d</fix>
</trkpt>
<trkpt lat="33.8106434" lon="-118.3938612">
  <ele>-2.508</ele>
  <time>2026-09-01T01:17:00Z</time>
  <course>9.37</course>
  <speed>0.0316227766016838</speed>
  <fix>3d</fix>
</trkpt>
<trkpt lat="33.8106438" lon="-118.393861">
  <ele>-2.44</ele>
  <time>2026-09-01T01:17:00Z</time>
  <course>147.03</course>
  <speed>0.0</speed>
  <fix>3d</fix>
</trkpt>
<trkpt lat="33.8106434" lon="-118.3938612">
  <ele>-2.506</ele>
  <time>2026-09-01T01:17:00Z</time>
  <course>9.26</course>
  <speed>0.0316227766016838</speed>
  <fix>3d</fix>
</trkpt>
<trkpt lat="33.8106438" lon="-118.393861">
  <ele>-2.44</ele>
  <time>2026-09-01T01:17:00Z</time>
  <course>147.03</course>
  <speed>0.0</speed>
  <fix>3d</fix>
</trkpt>
<trkpt lat="33.8106434" lon="-118.3938612">
  <ele>-2.505</ele>
  <time>2026-09-01T01:17:00Z</time>
  <course>9.16</course>
  <speed>0.03</speed>
  <fix>3d</fix>
</trkpt>
<trkpt lat="33.8106437" lon="-118.393861">
  <ele>-2.44</ele>
  <time>2026-09-01T01:17:00Z</time>
  <course>146.92</course>
  <speed>0.0</speed>
  <fix>3d</fix>
</trkpt>
<trkpt lat="33.8106434" lon="-118.3938612">
  <ele>-2.505</ele>
  <time>2026-09-01T01:17:00Z</time>
  <course>9.06</course>
  <speed>0.03</speed>
  <fix>3d</fix>
</trkpt>
<trkpt lat="33.8106437" lon="-118.393861">
  <ele>-2.44</ele>
  <time>2026-09-01T01:17:00Z</time>
  <course>146.92</course>
  <speed>0.0</speed>
  <fix>3d</fix>
</trkpt>
<trkpt lat="33.8106434" lon="-118.3938612">
  <ele>-2.507</ele>
  <time>2026-09-01T01:17:00Z</time>
  <course>8.87</course>
  <speed>0.0316227766016838</speed>
  <fix>3d</fix>
</trkpt>
<trkpt lat="33.8106437" lon="-118.393861">
  <ele>-2.44</ele>
  <time>2026-09-01T01:17:00Z</time>
  <course>152.44</course>
  <speed>0.0</speed>
  <fix>3d</fix>
</trkpt>
<trkpt lat="33.8106434" lon="-118.3938612">
  <ele>-2.509</ele>
  <time>2026-09-01T01:17:00Z</time>
  <course>8.51</course>
  <speed>0.0316227766016838</speed>
  <fix>3d</fix>
</trkpt>
<trkpt lat="33.8106437" lon="-118.393861">
  <ele>-2.44</ele>
  <time>2026-09-01T01:17:00Z</time>
  <course>152.44</course>
  <speed>0.0</speed>
  <fix>3d</fix>
</trkpt>
<trkpt lat="33.8106434" lon="-118.3938612">
  <ele>-2.512</ele>
  <time>2026-09-01T01:17:00Z</time>
  <course>7.98</course>
  <speed>0.03605551275463989</speed>
  <fix>3d</fix>
</trkpt>
<trkpt lat="33.8106437" lon="-118.393861">
  <ele>-2.45</ele>
  <time>2026-09-01T01:17:00Z</time>
  <course>189.4</course>
  <speed>0.0</speed>
  <fix>3d</fix>
</trkpt>
<trkpt lat="33.8106434" lon="-118.3938612">
  <ele>-2.515</ele>
  <time>2026-09-01T01:17:00Z</time>
  <course>7.34</course>
  <speed>0.03605551275463989</speed>
  <fix>3d</fix>
</trkpt>
<trkpt lat="33.8106437" lon="-118.393861">
  <ele>-2.45</ele>
  <time>2026-09-01T01:17:00Z</time>
  <course>189.4</course>
  <speed>0.0</speed>
  <fix>3d</fix>
</trkpt>
<trkpt lat="33.8106434" lon="-118.3938612">
  <ele>-2.517</ele>
  <time>2026-09-01T01:17:00Z</time>
  <course>6.66</course>
  <speed>0.03605551275463989</speed>
  <fix>3d</fix>
</trkpt>
<trkpt lat="33.8106437" lon="-118.393861">
  <ele>-2.45</ele>
  <time>2026-09-01T01:17:00Z</time>
  <course>230.3</course>
  <speed>0.01</speed>
  <fix>3d</fix>
</trkpt>
<trkpt lat="33.8106434" lon="-118.3938612">
  <ele>-2.517</ele>
  <time>2026-09-01T01:17:00Z</time>
  <course>5.89</course>
  <speed>0.03605551275463989</speed>
  <fix>3d</fix>
</trkpt>
<trkpt lat="33.8106437" lon="-118.393861">
  <ele>-2.45</ele>
  <time>2026-09-01T01:17:00Z</time>
  <course>230.3</course>
  <speed>0.01</speed>
  <fix>3d</fix>
</trkpt>
<trkpt lat="33.8106434" lon="-118.3938612">
  <ele>-2.518</ele>
  <time>2026-09-01T01:17:00Z</time>
  <course>5.01</course>
  <speed>0.03605551275463989</speed>
  <fix>3d</fix>
</trkpt>
<trkpt lat="33.8106437" lon="-118.393861">
  <ele>-2.45</ele>
  <time>2026-09-01T01:17:00Z</time>
  <course>244.91</course>
  <speed>0.01</speed>
  <fix>3d</fix>
</trkpt>
<trkpt lat="33.8106434" lon="-118.3938612">
  <ele>-2.518</ele>
  <time>2026-09-01T01:17:00Z</time>
  <course>4.07</course>
  <speed>0.03605551275463989</speed>
  <fix>3d</fix>
</trkpt>
<trkpt lat="33.8106437" lon="-118.393861">
  <ele>-2.45</ele>
  <time>2026-09-01T01:17:00Z</time>
  <course>244.91</course>
  <speed>0.01</speed>
  <fix>3d</fix>
</trkpt>
<trkpt lat="33.8106434" lon="-118.3938612">
  <ele>-2.517</ele>
  <time>2026-09-01T01:17:00Z</time>
  <course>3.2</course>
  <speed>0.03605551275463989</speed>
  <fix>3d</fix>
</trkpt>
<trkpt lat="33.8106437" lon="-118.393861">
  <ele>-2.45</ele>
  <time>2026-09-01T01:17:00Z</time>
  <course>249.97</course>
  <speed>0.01</speed>
  <fix>3d</fix>
</trkpt>
<trkpt lat="33.8106434" lon="-118.3938612">
  <ele>-2.515</ele>
  <time>2026-09-01T01:17:00Z</time>
  <course>2.57</course>
  <speed>0.03605551275463989</speed>
  <fix>3d</fix>
</trkpt>
<trkpt lat="33.8106437" lon="-118.393861">
  <ele>-2.45</ele>
  <time>2026-09-01T01:17:00Z</time>
  <course>249.97</course>
  <speed>0.01</speed>
  <fix>3d</fix>
</trkpt>
<trkpt lat="33.8106434" lon="-118.3938612">
  <ele>-2.514</ele>
  <time>2026-09-01T01:17:00Z</time>
  <course>2.09</course>
  <speed>0.03605551275463989</speed>
  <fix>3d</fix>
</trkpt>
<trkpt lat="33.8106437" lon="-118.393861">
  <ele>-2.45</ele>
  <time>2026-09-01T01:17:00Z</time>
  <course>253.13</course>
  <speed>0.01</speed>
  <fix>3d</fix>
</trkpt>
<trkpt lat="33.8106434" lon="-118.3938612">
  <ele>-2.511</ele>
  <time>2026-09-01T01:17:00Z</time>
  <course>1.69</course>
  <speed>0.03605551275463989</speed>
  <fix>3d</fix>
</trkpt>
<trkpt lat="33.8106437" lon="-118.393861">
  <ele>-2.45</ele>
  <time>2026-09-01T01:17:00Z</time>
  <course>253.13</course>
  <speed>0.01</speed>
  <fix>3d</fix>
</trkpt>
<trkpt lat="33.8106434" lon="-118.3938612">
  <ele>-2.508</ele>
  <time>2026-09-01T01:17:00Z</time>
  <course>1.35</course>
  <speed>0.03605551275463989</speed>
  <fix>3d</fix>
</trkpt>
<trkpt lat="33.8106437" lon="-118.393861">
  <ele>-2.44</ele>
  <time>2026-09-01T01:17:00Z</time>
  <course>254.04</course>
  <speed>0.01</speed>
  <fix>3d</fix>
</trkpt>
<trkpt lat="33.8106434" lon="-118.3938612">
  <ele>-2.506</ele>
  <time>2026-09-01T01:17:00Z</time>
  <course>1.06</course>
  <speed>0.03605551275463989</speed>
  <fix>3d</fix>
</trkpt>
<trkpt lat="33.8106437" lon="-118.393861">
  <ele>-2.44</ele>
  <time>2026-09-01T01:17:00Z</time>
  <course>254.04</course>
  <speed>0.01</speed>
  <fix>3d</fix>
</trkpt>
<trkpt lat="33.8106434" lon="-118.3938612">
  <ele>-2.505</ele>
  <time>2026-09-01T01:17:00Z</time>
  <course>0.81</course>
  <speed>0.0316227766016838</speed>
  <fix>3d</fix>
</trkpt>
<trkpt lat="33.8106437" lon="-118.3938611">
  <ele>-2.44</ele>
  <time>2026-09-01T01:17:00Z</time>
  <course>253.78</course>
  <speed>0.01</speed>
  <fix>3d</fix>
</trkpt>
<trkpt lat="33.8106434" lon="-118.3938612">
  <ele>-2.504</ele>
  <time>2026-09-01T01:17:00Z</time>
  <course>0.58</course>
  <speed>0.0316227766016838</speed>
  <fix>3d</fix>
</trkpt>
<trkpt lat="33.8106437" lon="-118.3938611">
  <ele>-2.44</ele>
  <time>2026-09-01T01:17:00Z</time>
  <course>253.78</course>
  <speed>0.01</speed>
  <fix>3d</fix>
</trkpt>
<trkpt lat="33.8106434" lon="-118.3938612">
  <ele>-2.503</ele>
  <time>2026-09-01T01:17:00Z</time>
  <course>0.37</course>
  <speed>0.0316227766016838</speed>
  <fix>3d</fix>
</trkpt>
<trkpt lat="33.8106436" lon="-118.3938611">
  <ele>-2.44</ele>
  <time>2026-09-01T01:17:00Z</time>
  <course>253.5</course>
  <speed>0.01</speed>
  <fix>3d</fix>
</trkpt>
<trkpt lat="33.8106434" lon="-118.3938612">
  <ele>-2.503</ele>
  <time>2026-09-01T01:17:00Z</time>
  <course>0.18</course>
  <speed>0.0316227766016838</speed>
  <fix>3d</fix>
</trkpt>
<trkpt lat="33.8106436" lon="-118.3938611">
  <ele>-2.44</ele>
  <time>2026-09-01T01:17:00Z</time>
  <course>253.5</course>
  <speed>0.01</speed>
  <fix>3d</fix>
</trkpt>
<trkpt lat="33.8106434" lon="-118.3938612">
  <ele>-2.504</ele>
  <time>2026-09-01T01:17:00Z</time>
  <course>0.01</course>
  <speed>0.0316227766016838</speed>
  <fix>3d</fix>
</trkpt>
<trkpt lat="33.8106436" lon="-118.3938612">
  <ele>-2.44</ele>
  <time>2026-09-01T01:17:00Z</time>
  <course>253.23</course>
  <speed>0.01</speed>
  <fix>3d</fix>
</trkpt>
<trkpt lat="33.8106434" lon="-118.3938612">
  <ele>-2.507</ele>
  <time>2026-09-01T01:17:00Z</time>
  <course>359.85</course>
  <speed>0.0316227766016838</speed>
  <fix>3d</fix>
</trkpt>
<trkpt lat="33.8106436" lon="-118.3938612">
  <ele>-2.44</ele>
  <time>2026-09-01T01:17:00Z</time>
  <course>253.23</course>
  <speed>0.01</speed>
  <fix>3d</fix>
</trkpt>
<trkpt lat="33.8106434" lon="-118.3938612">
  <ele>-2.51</ele>
  <time>2026-09-01T01:17:00Z</time>
  <course>359.7</course>
  <speed>0.0316227766016838</speed>
  <fix>3d</fix>
</trkpt>
<trkpt lat="33.8106436" lon="-118.3938612">
  <ele>-2.44</ele>
  <time>2026-09-01T01:17:00Z</time>
  <course>252.98</course>
  <speed>0.01</speed>
  <fix>3d</fix>
</trkpt>
<trkpt lat="33.8106434" lon="-118.3938613">
  <ele>-2.511</ele>
  <time>2026-09-01T01:17:00Z</time>
  <course>359.56</course>
  <speed>0.0316227766016838</speed>
  <fix>3d</fix>
</trkpt>
<trkpt lat="33.8106436" lon="-118.3938612">
  <ele>-2.44</ele>
  <time>2026-09-01T01:17:00Z</time>
  <course>252.98</course>
  <speed>0.01</speed>
  <fix>3d</fix>
</trkpt>
<trkpt lat="33.8106434" lon="-118.3938613">
  <ele>-2.512</ele>
  <time>2026-09-01T01:17:00Z</time>
  <course>359.43</course>
  <speed>0.0316227766016838</speed>
  <fix>3d</fix>
</trkpt>
<trkpt lat="33.8106436" lon="-118.3938612">
  <ele>-2.45</ele>
  <time>2026-09-01T01:17:00Z</time>
  <course>252.75</course>
  <speed>0.01</speed>
  <fix>3d</fix>
</trkpt>
<trkpt lat="33.8106434" lon="-118.3938613">
  <ele>-2.512</ele>
  <time>2026-09-01T01:17:00Z</time>
  <course>359.31</course>
  <speed>0.0316227766016838</speed>
  <fix>3d</fix>
</trkpt>
<trkpt lat="33.8106436" lon="-118.3938612">
  <ele>-2.45</ele>
  <time>2026-09-01T01:17:00Z</time>
  <course>252.75</course>
  <speed>0.01</speed>
  <fix>3d</fix>
</trkpt>
<trkpt lat="33.8106434" lon="-118.3938613">
  <ele>-2.512</ele>
  <time>2026-09-01T01:17:00Z</time>
  <course>359.19</course>
  <speed>0.0316227766016838</speed>
  <fix>3d</fix>
</trkpt>
<trkpt lat="33.8106436" lon="-118.3938613">
  <ele>-2.45</ele>
  <time>2026-09-01T01:17:00Z</time>
  <course>252.52</course>
  <speed>0.01</speed>
  <fix>3d</fix>
</trkpt>
<trkpt lat="33.8106434" lon="-118.3938613">
  <ele>-2.511</ele>
  <time>2026-09-01T01:17:00Z</time>
  <course>359.08</course>
  <speed>0.03</speed>
  <fix>3d</fix>
</trkpt>
<trkpt lat="33.8106436" lon="-118.3938613">
  <ele>-2.45</ele>
  <time>2026-09-01T01:17:00Z</time>
  <course>252.52</course>
  <speed>0.01</speed>
  <fix>3d</fix>
</trkpt>
<trkpt lat="33.8106434" lon="-118.3938613">
  <ele>-2.511</ele>
  <time>2026-09-01T01:17:00Z</time>
  <course>358.97</course>
  <speed>0.03</speed>
  <fix>3d</fix>
</trkpt>
<trkpt lat="33.8106436" lon="-118.3938613">
  <ele>-2.45</ele>
  <time>2026-09-01T01:17:00Z</time>
  <course>252.29</course>
  <speed>0.01</speed>
  <fix>3d</fix>
</trkpt>
<trkpt lat="33.8106434" lon="-118.3938613">
  <ele>-2.512</ele>
  <time>2026-09-01T01:17:00Z</time>
  <course>358.88</course>
  <speed>0.03</speed>
  <fix>3d</fix>
</trkpt>
<trkpt lat="33.8106436" lon="-118.3938613">
  <ele>-2.45</ele>
  <time>2026-09-01T01:17:00Z</time>
  <course>252.29</course>
  <speed>0.01</speed>
  <fix>3d</fix>
</trkpt>
<trkpt lat="33.8106434" lon="-118.3938613">
  <ele>-2.512</ele>
  <time>2026-09-01T01:17:00Z</time>
  <course>358.88</course>
  <speed>0.02</speed>
  <fix>3d</fix>
</trkpt>
<trkpt lat="33.8106436" lon="-118.3938613">
  <ele>-2.45</ele>
  <time>2026-09-01T01:17:00Z</time>
  <course>253.46</course>
  <speed>0.01</speed>
  <fix>3d</fix>
</trkpt>
<trkpt lat="33.8106434" lon="-118.3938613">
  <ele>-2.511</ele>
  <time>2026-09-01T01:17:00Z</time>
  <course>359.12</course>
  <speed>0.02</speed>
  <fix>3d</fix>
</trkpt>
<trkpt lat="33.8106436" lon="-118.3938613">
  <ele>-2.45</ele>
  <time>2026-09-01T01:17:00Z</time>
  <course>253.46</course>
  <speed>0.01</speed>
  <fix>3d</fix>
</trkpt>
<trkpt lat="33.8106434" lon="-118.3938613">
  <ele>-2.509</ele>
  <time>2026-09-01T01:17:00Z</time>
  <course>359.71</course>
  <speed>0.02</speed>
  <fix>3d</fix>
</trkpt>
<trkpt lat="33.8106436" lon="-118.3938614">
  <ele>-2.45</ele>
  <time>2026-09-01T01:17:00Z</time>
  <course>266.73</course>
  <speed>0.01</speed>
  <fix>3d</fix>
</trkpt>
<trkpt lat="33.8106434" lon="-118.3938613">
  <ele>-2.507</ele>
  <time>2026-09-01T01:17:00Z</time>
  <course>0.55</course>
  <speed>0.02</speed>
  <fix>3d</fix>
</trkpt>
<trkpt lat="33.8106436" lon="-118.3938614">
  <ele>-2.45</ele>
  <time>2026-09-01T01:17:00Z</time>
  <course>266.73</course>
  <speed>0.01</speed>
  <fix>3d</fix>
</trkpt>
<trkpt lat="33.8106434" lon="-118.3938613">
  <ele>-2.506</ele>
  <time>2026-09-01T01:17:00Z</time>
  <course>1.5</course>
  <speed>0.02</speed>
  <fix>3d</fix>
</trkpt>
<trkpt lat="33.8106436" lon="-118.3938614">
  <ele>-2.45</ele>
  <time>2026-09-01T01:17:00Z</time>
  <course>292.26</course>
  <speed>0.0</speed>
  <fix>3d</fix>
</trkpt>
<trkpt lat="33.8106434" lon="-118.3938613">
  <ele>-2.505</ele>
  <time>2026-09-01T01:17:00Z</time>
  <course>2.48</course>
  <speed>0.02</speed>
  <fix>3d</fix>
</trkpt>
<trkpt lat="33.8106436" lon="-118.3938614">
  <ele>-2.45</ele>
  <time>2026-09-01T01:17:00Z</time>
  <course>292.26</course>
  <speed>0.0</speed>
  <fix>3d</fix>
</trkpt>
<trkpt lat="33.8106434" lon="-118.3938613">
  <ele>-2.506</ele>
  <time>2026-09-01T01:17:00Z</time>
  <course>3.5</course>
  <speed>0.02</speed>
  <fix>3d</fix>
</trkpt>
<trkpt lat="33.8106436" lon="-118.3938614">
  <ele>-2.45</ele>
  <time>2026-09-01T01:17:00Z</time>
  <course>301.5</course>
  <speed>0.0</speed>
  <fix>3d</fix>
</trkpt>
<trkpt lat="33.8106434" lon="-118.3938613">
  <ele>-2.508</ele>
  <time>2026-09-01T01:17:01Z</time>
  <course>4.51</course>
  <speed>0.02</speed>
  <fix>3d</fix>
</trkpt>
<trkpt lat="33.8106436" lon="-118.3938614">
  <ele>-2.45</ele>
  <time>2026-09-01T01:17:01Z</time>
  <course>301.5</course>
  <speed>0.0</speed>
  <fix>3d</fix>
</trkpt>
<trkpt lat="33.8106434" lon="-118.3938613">
  <ele>-2.51</ele>
  <time>2026-09-01T01:17:01Z</time>
  <course>5.54</course>
  <speed>0.02</speed>
  <fix>3d</fix>
</trkpt>
<trkpt lat="33.8106436" lon="-118.3938614">
  <ele>-2.46</ele>
  <time>2026-09-01T01:17:01Z</time>
  <course>299.26</course>
  <speed>0.0</speed>
  <fix>3d</fix>
</trkpt>
<trkpt lat="33.8106434" lon="-118.3938613">
  <ele>-2.513</ele>
  <time>2026-09-01T01:17:01Z</time>
  <course>6.57</course>
  <speed>0.02</speed>
  <fix>3d</fix>
</trkpt>
<trkpt lat="33.8106436" lon="-118.3938614">
  <ele>-2.46</ele>
  <time>2026-09-01T01:17:01Z</time>
  <course>299.26</course>
  <speed>0.0</speed>
  <fix>3d</fix>
</trkpt>
<trkpt lat="33.8106434" lon="-118.3938613">
  <ele>-2.515</ele>
  <time>2026-09-01T01:17:01Z</time>
  <course>7.61</course>
  <speed>0.02</speed>
  <fix>3d</fix>
</trkpt>
<trkpt lat="33.8106436" lon="-118.3938614">
  <ele>-2.46</ele>
  <time>2026-09-01T01:17:01Z</time>
  <course>290.59</course>
  <speed>0.0</speed>
  <fix>3d</fix>
</trkpt>
<trkpt lat="33.8106434" lon="-118.3938613">
  <ele>-2.516</ele>
  <time>2026-09-01T01:17:01Z</time>
  <course>8.67</course>
  <speed>0.02</speed>
  <fix>3d</fix>
</trkpt>
<trkpt lat="33.8106436" lon="-118.3938614">
  <ele>-2.46</ele>
  <time>2026-09-01T01:17:01Z</time>
  <course>290.59</course>
  <speed>0.0</speed>
  <fix>3d</fix>
</trkpt>
<trkpt lat="33.8106434" lon="-118.3938613">
  <ele>-2.516</ele>
  <time>2026-09-01T01:17:01Z</time>
  <course>9.71</course>
  <speed>0.02</speed>
  <fix>3d</fix>
</trkpt>
<trkpt lat="33.8106436" lon="-118.3938614">
  <ele>-2.46</ele>
  <time>2026-09-01T01:17:01Z</time>
  <course>280.5</course>
  <speed>0.0</speed>
  <fix>3d</fix>
</trkpt>
<trkpt lat="33.8106434" lon="-118.3938613">
  <ele>-2.516</ele>
  <time>2026-09-01T01:17:01Z</time>
  <course>10.76</course>
  <speed>0.02</speed>
  <fix>3d</fix>
</trkpt>
<trkpt lat="33.8106436" lon="-118.3938614">
  <ele>-2.46</ele>
  <time>2026-09-01T01:17:01Z</time>
  <course>280.5</course>
  <speed>0.0</speed>
  <fix>3d</fix>
</trkpt>
<trkpt lat="33.8106434" lon="-118.3938613">
  <ele>-2.517</ele>
  <time>2026-09-01T01:17:01Z</time>
  <course>11.8</course>
  <speed>0.02</speed>
  <fix>3d</fix>
</trkpt>
<trkpt lat="33.8106436" lon="-118.3938615">
  <ele>-2.46</ele>
  <time>2026-09-01T01:17:01Z</time>
  <course>273.41</course>
  <speed>0.0</speed>
  <fix>3d</fix>
</trkpt>
<trkpt lat="33.8106434" lon="-118.3938613">
  <ele>-2.517</ele>
  <time>2026-09-01T01:17:01Z</time>
  <course>12.84</course>
  <speed>0.02</speed>
  <fix>3d</fix>
</trkpt>
<trkpt lat="33.8106436" lon="-118.3938615">
  <ele>-2.46</ele>
  <time>2026-09-01T01:17:01Z</time>
  <course>273.41</course>
  <speed>0.0</speed>
  <fix>3d</fix>
</trkpt>
<trkpt lat="33.8106434" lon="-118.3938613">
  <ele>-2.516</ele>
  <time>2026-09-01T01:17:01Z</time>
  <course>13.88</course>
  <speed>0.02</speed>
  <fix>3d</fix>
</trkpt>
<trkpt lat="33.8106436" lon="-118.3938615">
  <ele>-2.46</ele>
  <time>2026-09-01T01:17:01Z</time>
  <course>268.42</course>
  <speed>0.0</speed>
  <fix>3d</fix>
</trkpt>
<trkpt lat="33.8106434" lon="-118.3938613">
  <ele>-2.515</ele>
  <time>2026-09-01T01:17:01Z</time>
  <course>14.92</course>
  <speed>0.02</speed>
  <fix>3d</fix>
</trkpt>
<trkpt lat="33.8106436" lon="-118.3938615">
  <ele>-2.46</ele>
  <time>2026-09-01T01:17:01Z</time>
  <course>268.42</course>
  <speed>0.0</speed>
  <fix>3d</fix>
</trkpt>
<trkpt lat="33.8106434" lon="-118.3938613">
  <ele>-2.513</ele>
  <time>2026-09-01T01:17:01Z</time>
  <course>15.91</course>
  <speed>0.02</speed>
  <fix>3d</fix>
</trkpt>
<trkpt lat="33.8106436" lon="-118.3938615">
  <ele>-2.46</ele>
  <time>2026-09-01T01:17:01Z</time>
  <course>264.76</course>
  <speed>0.0</speed>
  <fix>3d</fix>
</trkpt>
<trkpt lat="33.8106434" lon="-118.3938613">
  <ele>-2.512</ele>
  <time>2026-09-01T01:17:01Z</time>
  <course>16.62</course>
  <speed>0.02</speed>
  <fix>3d</fix>
</trkpt>
<trkpt lat="33.8106436" lon="-118.3938615">
  <ele>-2.46</ele>
  <time>2026-09-01T01:17:01Z</time>
  <course>264.76</course>
  <speed>0.0</speed>
  <fix>3d</fix>
</trkpt>
<trkpt lat="33.8106434" lon="-118.3938613">
  <ele>-2.512</ele>
  <time>2026-09-01T01:17:01Z</time>
  <course>17.16</course>
  <speed>0.022360679774997897</speed>
  <fix>3d</fix>
</trkpt>
<trkpt lat="33.8106436" lon="-118.3938615">
  <ele>-2.45</ele>
  <time>2026-09-01T01:17:01Z</time>
  <course>265.61</course>
  <speed>0.0</speed>
  <fix>3d</fix>
</trkpt>
<trkpt lat="33.8106434" lon="-118.3938613">
  <ele>-2.512</ele>
  <time>2026-09-01T01:17:01Z</time>
  <course>17.59</course>
  <speed>0.022360679774997897</speed>
  <fix>3d</fix>
</trkpt>
<trkpt lat="33.8106436" lon="-118.3938615">
  <ele>-2.45</ele>
  <time>2026-09-01T01:17:01Z</time>
  <course>265.61</course>
  <speed>0.0</speed>
  <fix>3d</fix>
</trkpt>
<trkpt lat="33.8106434" lon="-118.3938613">
  <ele>-2.511</ele>
  <time>2026-09-01T01:17:01Z</time>
  <course>17.94</course>
  <speed>0.022360679774997897</speed>
  <fix>3d</fix>
</trkpt>
<trkpt lat="33.8106436" lon="-118.3938615">
  <ele>-2.45</ele>
  <time>2026-09-01T01:17:01Z</time>
  <course>267.79</course>
  <speed>0.0</speed>
  <fix>3d</fix>
</trkpt>
<trkpt lat="33.8106434" lon="-118.3938614">
  <ele>-2.51</ele>
  <time>2026-09-01T01:17:01Z</time>
  <course>18.25</course>
  <speed>0.022360679774997897</speed>
  <fix>3d</fix>
</trkpt>
<trkpt lat="33.8106436" lon="-118.3938615">
  <ele>-2.45</ele>
  <time>2026-09-01T01:17:01Z</time>
  <course>267.79</course>
  <speed>0.0</speed>
  <fix>3d</fix>
</trkpt>
<trkpt lat="33.8106434" lon="-118.3938614">
  <ele>-2.51</ele>
  <time>2026-09-01T01:17:01Z</time>
  <course>18.52</course>
  <speed>0.022360679774997897</speed>
  <fix>3d</fix>
</trkpt>
<trkpt lat="33.8106436" lon="-118.3938616">
  <ele>-2.45</ele>
  <time>2026-09-01T01:17:01Z</time>
  <course>267.55</course>
  <speed>0.0</speed>
  <fix>3d</fix>
</trkpt>
<trkpt lat="33.8106434" lon="-118.3938614">
  <ele>-2.509</ele>
  <time>2026-09-01T01:17:01Z</time>
  <course>18.76</course>
  <speed>0.022360679774997897</speed>
  <fix>3d</fix>
</trkpt>
<trkpt lat="33.8106436" lon="-118.3938616">
  <ele>-2.45</ele>
  <time>2026-09-01T01:17:01Z</time>
  <course>267.55</course>
  <speed>0.0</speed>
  <fix>3d</fix>
</trkpt>
<trkpt lat="33.8106434" lon="-118.3938614">
  <ele>-2.51</ele>
  <time>2026-09-01T01:17:01Z</time>
  <course>18.98</course>
  <speed>0.022360679774997897</speed>
  <fix>3d</fix>
</trkpt>
<trkpt lat="33.8106436" lon="-118.3938616">
  <ele>-2.45</ele>
  <time>2026-09-01T01:17:01Z</time>
  <course>267.37</course>
  <speed>0.0</speed>
  <fix>3d</fix>
</trkpt>
<trkpt lat="33.8106434" lon="-118.3938614">
  <ele>-2.511</ele>
  <time>2026-09-01T01:17:01Z</time>
  <course>19.17</course>
  <speed>0.022360679774997897</speed>
  <fix>3d</fix>
</trkpt>
<trkpt lat="33.8106436" lon="-118.3938616">
  <ele>-2.45</ele>
  <time>2026-09-01T01:17:01Z</time>
  <course>267.37</course>
  <speed>0.0</speed>
  <fix>3d</fix>
</trkpt>
<trkpt lat="33.8106434" lon="-118.3938614">
  <ele>-2.513</ele>
  <time>2026-09-01T01:17:01Z</time>
  <course>19.35</course>
  <speed>0.022360679774997897</speed>
  <fix>3d</fix>
</trkpt>
<trkpt lat="33.8106436" lon="-118.3938616">
  <ele>-2.45</ele>
  <time>2026-09-01T01:17:01Z</time>
  <course>267.22</course>
  <speed>0.0</speed>
  <fix>3d</fix>
</trkpt>
<trkpt lat="33.8106434" lon="-118.3938614">
  <ele>-2.515</ele>
  <time>2026-09-01T01:17:01Z</time>
  <course>19.52</course>
  <speed>0.022360679774997897</speed>
  <fix>3d</fix>
</trkpt>
<trkpt lat="33.8106436" lon="-118.3938616">
  <ele>-2.45</ele>
  <time>2026-09-01T01:17:01Z</time>
  <course>267.22</course>
  <speed>0.0</speed>
  <fix>3d</fix>
</trkpt>
<trkpt lat="33.8106434" lon="-118.3938614">
  <ele>-2.516</ele>
  <time>2026-09-01T01:17:01Z</time>
  <course>19.67</course>
  <speed>0.022360679774997897</speed>
  <fix>3d</fix>
</trkpt>
<trkpt lat="33.8106436" lon="-118.3938616">
  <ele>-2.45</ele>
  <time>2026-09-01T01:17:01Z</time>
  <course>267.08</course>
  <speed>0.0</speed>
  <fix>3d</fix>
</trkpt>
<trkpt lat="33.8106434" lon="-118.3938614">
  <ele>-2.516</ele>
  <time>2026-09-01T01:17:01Z</time>
  <course>19.82</course>
  <speed>0.022360679774997897</speed>
  <fix>3d</fix>
</trkpt>
<trkpt lat="33.8106436" lon="-118.3938616">
  <ele>-2.45</ele>
  <time>2026-09-01T01:17:01Z</time>
  <course>267.08</course>
  <speed>0.0</speed>
  <fix>3d</fix>
</trkpt>
<trkpt lat="33.8106434" lon="-118.3938614">
  <ele>-2.516</ele>
  <time>2026-09-01T01:17:01Z</time>
  <course>19.95</course>
  <speed>0.022360679774997897</speed>
  <fix>3d</fix>
</trkpt>
<trkpt lat="33.8106436" lon="-118.3938616">
  <ele>-2.45</ele>
  <time>2026-09-01T01:17:01Z</time>
  <course>266.95</course>
  <speed>0.0</speed>
  <fix>3d</fix>
</trkpt>
<trkpt lat="33.8106434" lon="-118.3938614">
  <ele>-2.515</ele>
  <time>2026-09-01T01:17:01Z</time>
  <course>20.08</course>
  <speed>0.022360679774997897</speed>
  <fix>3d</fix>
</trkpt>
<trkpt lat="33.8106436" lon="-118.3938616">
  <ele>-2.45</ele>
  <time>2026-09-01T01:17:01Z</time>
  <course>266.95</course>
  <speed>0.0</speed>
  <fix>3d</fix>
</trkpt>
<trkpt lat="33.8106434" lon="-118.3938614">
  <ele>-2.514</ele>
  <time>2026-09-01T01:17:01Z</time>
  <course>20.2</course>
  <speed>0.022360679774997897</speed>
  <fix>3d</fix>
</trkpt>
<trkpt lat="33.8106436" lon="-118.3938616">
  <ele>-2.44</ele>
  <time>2026-09-01T01:17:01Z</time>
  <course>266.8</course>
  <speed>0.0</speed>
  <fix>3d</fix>
</trkpt>
<trkpt lat="33.8106434" lon="-118.3938614">
  <ele>-2.512</ele>
  <time>2026-09-01T01:17:01Z</time>
  <course>20.31</course>
  <speed>0.022360679774997897</speed>
  <fix>3d</fix>
</trkpt>
<trkpt lat="33.8106436" lon="-118.3938616">
  <ele>-2.44</ele>
  <time>2026-09-01T01:17:01Z</time>
  <course>266.8</course>
  <speed>0.0</speed>
  <fix>3d</fix>
</trkpt>
<trkpt lat="33.8106434" lon="-118.3938614">
  <ele>-2.511</ele>
  <time>2026-09-01T01:17:01Z</time>
  <course>20.42</course>
  <speed>0.022360679774997897</speed>
  <fix>3d</fix>
</trkpt>
<trkpt lat="33.8106436" lon="-118.3938616">
  <ele>-2.44</ele>
  <time>2026-09-01T01:17:01Z</time>
  <course>266.63</course>
  <speed>0.0</speed>
  <fix>3d</fix>
</trkpt>
<trkpt lat="33.8106434" lon="-118.3938614">
  <ele>-2.51</ele>
  <time>2026-09-01T01:17:01Z</time>
  <course>20.52</course>
  <speed>0.022360679774997897</speed>
  <fix>3d</fix>
</trkpt>
<trkpt lat="33.8106436" lon="-118.3938616">
  <ele>-2.44</ele>
  <time>2026-09-01T01:17:01Z</time>
  <course>266.63</course>
  <speed>0.0</speed>
  <fix>3d</fix>
</trkpt>
<trkpt lat="33.8106434" lon="-118.3938614">
  <ele>-2.51</ele>
  <time>2026-09-01T01:17:01Z</time>
  <course>20.62</course>
  <speed>0.022360679774997897</speed>
  <fix>3d</fix>
</trkpt>
<trkpt lat="33.8106436" lon="-118.3938616">
  <ele>-2.44</ele>
  <time>2026-09-01T01:17:01Z</time>
  <course>266.4</course>
  <speed>0.0</speed>
  <fix>3d</fix>
</trkpt>
<trkpt lat="33.8106434" lon="-118.3938614">
  <ele>-2.51</ele>
  <time>2026-09-01T01:17:01Z</time>
  <course>20.72</course>
  <speed>0.022360679774997897</speed>
  <fix>3d</fix>
</trkpt>
<trkpt lat="33.8106436" lon="-118.3938616">
  <ele>-2.44</ele>
  <time>2026-09-01T01:17:01Z</time>
  <course>266.4</course>
  <speed>0.0</speed>
  <fix>3d</fix>
</trkpt>
<trkpt lat="33.8106434" lon="-118.3938614">
  <ele>-2.511</ele>
  <time>2026-09-01T01:17:01Z</time>
  <course>20.81</course>
  <speed>0.022360679774997897</speed>
  <fix>3d</fix>
</trkpt>
<trkpt lat="33.8106436" lon="-118.3938616">
  <ele>-2.44</ele>
  <time>2026-09-01T01:17:01Z</time>
  <course>266.15</course>
  <speed>0.0</speed>
  <fix>3d</fix>
</trkpt>
<trkpt lat="33.8106434" lon="-118.3938614">
  <ele>-2.511</ele>
  <time>2026-09-01T01:17:01Z</time>
  <course>20.89</course>
  <speed>0.022360679774997897</speed>
  <fix>3d</fix>
</trkpt>
<trkpt lat="33.8106436" lon="-118.3938616">
  <ele>-2.44</ele>
  <time>2026-09-01T01:17:01Z</time>
  <course>266.15</course>
  <speed>0.0</speed>
  <fix>3d</fix>
</trkpt>
<trkpt lat="33.8106434" lon="-118.3938614">
  <ele>-2.51</ele>
  <time>2026-09-01T01:17:01Z</time>
  <course>20.98</course>
  <speed>0.022360679774997897</speed>
  <fix>3d</fix>
</trkpt>
<trkpt lat="33.8106436" lon="-118.3938616">
  <ele>-2.43</ele>
  <time>2026-09-01T01:17:01Z</time>
  <course>265.95</course>
  <speed>0.0</speed>
  <fix>3d</fix>
</trkpt>
<trkpt lat="33.8106434" lon="-118.3938614">
  <ele>-2.507</ele>
  <time>2026-09-01T01:17:01Z</time>
  <course>21.06</course>
  <speed>0.022360679774997897</speed>
  <fix>3d</fix>
</trkpt>
<trkpt lat="33.8106436" lon="-118.3938616">
  <ele>-2.43</ele>
  <time>2026-09-01T01:17:01Z</time>
  <course>265.95</course>
  <speed>0.0</speed>
  <fix>3d</fix>
</trkpt>
<trkpt lat="33.8106434" lon="-118.3938614">
  <ele>-2.504</ele>
  <time>2026-09-01T01:17:01Z</time>
  <course>21.13</course>
  <speed>0.022360679774997897</speed>
  <fix>3d</fix>
</trkpt>
<trkpt lat="33.8106436" lon="-118.3938616">
  <ele>-2.43</ele>
  <time>2026-09-01T01:17:01Z</time>
  <course>265.8</course>
  <speed>0.0</speed>
  <fix>3d</fix>
</trkpt>
<trkpt lat="33.8106434" lon="-118.3938614">
  <ele>-2.5</ele>
  <time>2026-09-01T01:17:01Z</time>
  <course>21.21</course>
  <speed>0.022360679774997897</speed>
  <fix>3d</fix>
</trkpt>
<trkpt lat="33.8106436" lon="-118.3938616">
  <ele>-2.43</ele>
  <time>2026-09-01T01:17:01Z</time>
  <course>265.8</course>
  <speed>0.0</speed>
  <fix>3d</fix>
</trkpt>
<trkpt lat="33.8106434" lon="-118.3938614">
  <ele>-2.495</ele>
  <time>2026-09-01T01:17:01Z</time>
  <course>21.28</course>
  <speed>0.022360679774997897</speed>
  <fix>3d</fix>
</trkpt>
<trkpt lat="33.8106436" lon="-118.3938617">
  <ele>-2.42</ele>
  <time>2026-09-01T01:17:01Z</time>
  <course>265.65</course>
  <speed>0.0</speed>
  <fix>3d</fix>
</trkpt>
<trkpt lat="33.8106434" lon="-118.3938614">
  <ele>-2.489</ele>
  <time>2026-09-01T01:17:01Z</time>
  <course>21.35</course>
  <speed>0.022360679774997897</speed>
  <fix>3d</fix>
</trkpt>
<trkpt lat="33.8106436" lon="-118.3938617">
  <ele>-2.42</ele>
  <time>2026-09-01T01:17:01Z</time>
  <course>265.65</course>
  <speed>0.0</speed>
  <fix>3d</fix>
</trkpt>
<trkpt lat="33.8106434" lon="-118.3938614">
  <ele>-2.482</ele>
  <time>2026-09-01T01:17:01Z</time>
  <course>21.42</course>
  <speed>0.022360679774997897</speed>
  <fix>3d</fix>
</trkpt>
<trkpt lat="33.8106436" lon="-118.3938618">
  <ele>-2.41</ele>
  <time>2026-09-01T01:17:01Z</time>
  <course>265.54</course>
  <speed>0.0</speed>
  <fix>3d</fix>
</trkpt>
<trkpt lat="33.8106434" lon="-118.3938614">
  <ele>-2.474</ele>
  <time>2026-09-01T01:17:01Z</time>
  <course>21.48</course>
  <speed>0.022360679774997897</speed>
  <fix>3d</fix>
</trkpt>
<trkpt lat="33.8106436" lon="-118.3938618">
  <ele>-2.41</ele>
  <time>2026-09-01T01:17:01Z</time>
  <course>265.54</course>
  <speed>0.0</speed>
  <fix>3d</fix>
</trkpt>
<trkpt lat="33.8106434" lon="-118.3938614">
  <ele>-2.467</ele>
  <time>2026-09-01T01:17:01Z</time>
  <course>21.55</course>
  <speed>0.022360679774997897</speed>
  <fix>3d</fix>
</trkpt>
<trkpt lat="33.8106436" lon="-118.3938618">
  <ele>-2.4</ele>
  <time>2026-09-01T01:17:01Z</time>
  <course>265.46</course>
  <speed>0.0</speed>
  <fix>3d</fix>
</trkpt>
<trkpt lat="33.8106434" lon="-118.3938614">
  <ele>-2.459</ele>
  <time>2026-09-01T01:17:01Z</time>
  <course>21.61</course>
  <speed>0.022360679774997897</speed>
  <fix>3d</fix>
</trkpt>
<trkpt lat="33.8106436" lon="-118.3938618">
  <ele>-2.4</ele>
  <time>2026-09-01T01:17:01Z</time>
  <course>265.46</course>
  <speed>0.0</speed>
  <fix>3d</fix>
</trkpt>
<trkpt lat="33.8106434" lon="-118.3938614">
  <ele>-2.45</ele>
  <time>2026-09-01T01:17:01Z</time>
  <course>21.67</course>
  <speed>0.022360679774997897</speed>
  <fix>3d</fix>
</trkpt>
<trkpt lat="33.8106436" lon="-118.3938618">
  <ele>-2.39</ele>
  <time>2026-09-01T01:17:01Z</time>
  <course>265.38</course>
  <speed>0.0</speed>
  <fix>3d</fix>
</trkpt>
<trkpt lat="33.8106434" lon="-118.3938615">
  <ele>-2.442</ele>
  <time>2026-09-01T01:17:01Z</time>
  <course>21.73</course>
  <speed>0.022360679774997897</speed>
  <fix>3d</fix>
</trkpt>
<trkpt lat="33.8106436" lon="-118.3938618">
  <ele>-2.39</ele>
  <time>2026-09-01T01:17:01Z</time>
  <course>265.38</course>
  <speed>0.0</speed>
  <fix>3d</fix>
</trkpt>
<trkpt lat="33.8106434" lon="-118.3938615">
  <ele>-2.435</ele>
  <time>2026-09-01T01:17:01Z</time>
  <course>21.78</course>
  <speed>0.022360679774997897</speed>
  <fix>3d</fix>
</trkpt>
<trkpt lat="33.8106436" lon="-118.3938618">
  <ele>-2.38</ele>
  <time>2026-09-01T01:17:01Z</time>
  <course>265.28</course>
  <speed>0.0</speed>
  <fix>3d</fix>
</trkpt>
<trkpt lat="33.8106434" lon="-118.3938615">
  <ele>-2.428</ele>
  <time>2026-09-01T01:17:01Z</time>
  <course>21.84</course>
  <speed>0.022360679774997897</speed>
  <fix>3d</fix>
</trkpt>
<trkpt lat="33.8106436" lon="-118.3938618">
  <ele>-2.38</ele>
  <time>2026-09-01T01:17:01Z</time>
  <course>265.28</course>
  <speed>0.0</speed>
  <fix>3d</fix>
</trkpt>
<trkpt lat="33.8106434" lon="-118.3938615">
  <ele>-2.42</ele>
  <time>2026-09-01T01:17:01Z</time>
  <course>21.85</course>
  <speed>0.022360679774997897</speed>
  <fix>3d</fix>
</trkpt>
<trkpt lat="33.8106436" lon="-118.3938618">
  <ele>-2.37</ele>
  <time>2026-09-01T01:17:01Z</time>
  <course>265.75</course>
  <speed>0.0</speed>
  <fix>3d</fix>
</trkpt>
<trkpt lat="33.8106434" lon="-118.3938615">
  <ele>-2.42</ele>
  <time>2026-09-01T01:17:01Z</time>
  <course>21.78</course>
  <speed>0.022360679774997897</speed>
  <fix>3d</fix>
</trkpt>
<trkpt lat="33.8106436" lon="-118.3938618">
  <ele>-2.37</ele>
  <time>2026-09-01T01:17:01Z</time>
  <course>265.75</course>
  <speed>0.0</speed>
  <fix>3d</fix>
</trkpt>
<trkpt lat="33.8106434" lon="-118.3938615">
  <ele>-2.427</ele>
  <time>2026-09-01T01:17:01Z</time>
  <course>21.7</course>
  <speed>0.022360679774997897</speed>
  <fix>3d</fix>
</trkpt>
<trkpt lat="33.8106436" lon="-118.3938618">
  <ele>-2.36</ele>
  <time>2026-09-01T01:17:01Z</time>
  <course>271.93</course>
  <speed>0.0</speed>
  <fix>3d</fix>
</trkpt>
<trkpt lat="33.8106434" lon="-118.3938615">
  <ele>-2.433</ele>
  <time>2026-09-01T01:17:01Z</time>
  <course>21.59</course>
  <speed>0.022360679774997897</speed>
  <fix>3d</fix>
</trkpt>
<trkpt lat="33.8106436" lon="-118.3938618">
  <ele>-2.36</ele>
  <time>2026-09-01T01:17:01Z</time>
  <course>271.93</course>
  <speed>0.0</speed>
  <fix>3d</fix>
</trkpt>
<trkpt lat="33.8106434" lon="-118.3938615">
  <ele>-2.438</ele>
  <time>2026-09-01T01:17:01Z</time>
  <course>21.48</course>
  <speed>0.022360679774997897</speed>
  <fix>3d</fix>
</trkpt>
<trkpt lat="33.8106436" lon="-118.3938618">
  <ele>-2.36</ele>
  <time>2026-09-01T01:17:01Z</time>
  <course>285.77</course>
  <speed>0.0</speed>
  <fix>3d</fix>
</trkpt>
<trkpt lat="33.8106434" lon="-118.3938615">
  <ele>-2.443</ele>
  <time>2026-09-01T01:17:01Z</time>
  <course>21.36</course>
  <speed>0.022360679774997897</speed>
  <fix>3d</fix>
</trkpt>
<trkpt lat="33.8106436" lon="-118.3938618">
  <ele>-2.36</ele>
  <time>2026-09-01T01:17:01Z</time>
  <course>285.77</course>
  <speed>0.0</speed>
  <fix>3d</fix>
</trkpt>
<trkpt lat="33.8106434" lon="-118.3938615">
  <ele>-2.448</ele>
  <time>2026-09-01T01:17:01Z</time>
  <course>21.25</course>
  <speed>0.022360679774997897</speed>
  <fix>3d</fix>
</trkpt>
<trkpt lat="33.8106436" lon="-118.3938619">
  <ele>-2.37</ele>
  <time>2026-09-01T01:17:01Z</time>
  <course>293.84</course>
  <speed>0.0</speed>
  <fix>3d</fix>
</trkpt>
<trkpt lat="33.8106434" lon="-118.3938616">
  <ele>-2.451</ele>
  <time>2026-09-01T01:17:01Z</time>
  <course>21.12</course>
  <speed>0.022360679774997897</speed>
  <fix>3d</fix>
</trkpt>
<trkpt lat="33.8106436" lon="-118.3938619">
  <ele>-2.37</ele>
  <time>2026-09-01T01:17:01Z</time>
  <course>293.84</course>
  <speed>0.0</speed>
  <fix>3d</fix>
</trkpt>
<trkpt lat="33.8106434" lon="-118.3938616">
  <ele>-2.453</ele>
  <time>2026-09-01T01:17:01Z</time>
  <course>20.99</course>
  <speed>0.022360679774997897</speed>
  <fix>3d</fix>
</trkpt>
<trkpt lat="33.8106436" lon="-118.3938619">
  <ele>-2.38</ele>
  <time>2026-09-01T01:17:01Z</time>
  <course>302.08</course>
  <speed>0.0</speed>
  <fix>3d</fix>
</trkpt>
<trkpt lat="33.8106434" lon="-118.3938616">
  <ele>-2.452</ele>
  <time>2026-09-01T01:17:01Z</time>
  <course>20.84</course>
  <speed>0.022360679774997897</speed>
  <fix>3d</fix>
</trkpt>
<trkpt lat="33.8106436" lon="-118.3938619">
  <ele>-2.38</ele>
  <time>2026-09-01T01:17:01Z</time>
  <course>302.08</course>
  <speed>0.0</speed>
  <fix>3d</fix>
</trkpt>
<trkpt lat="33.8106434" lon="-118.3938616">
  <ele>-2.45</ele>
  <time>2026-09-01T01:17:01Z</time>
  <course>20.69</course>
  <speed>0.022360679774997897</speed>
  <fix>3d</fix>
</trkpt>
<trkpt lat="33.8106436" lon="-118.3938619">
  <ele>-2.38</ele>
  <time>2026-09-01T01:17:01Z</time>
  <course>319.08</course>
  <speed>0.0</speed>
  <fix>3d</fix>
</trkpt>
<trkpt lat="33.8106434" lon="-118.3938616">
  <ele>-2.447</ele>
  <time>2026-09-01T01:17:01Z</time>
  <course>20.52</course>
  <speed>0.022360679774997897</speed>
  <fix>3d</fix>
</trkpt>
<trkpt lat="33.8106436" lon="-118.3938619">
  <ele>-2.38</ele>
  <time>2026-09-01T01:17:01Z</time>
  <course>319.08</course>
  <speed>0.0</speed>
  <fix>3d</fix>
</trkpt>
<trkpt lat="33.8106434" lon="-118.3938616">
  <ele>-2.443</ele>
  <time>2026-09-01T01:17:01Z</time>
  <course>20.37</course>
  <speed>0.022360679774997897</speed>
  <fix>3d</fix>
</trkpt>
<trkpt lat="33.8106436" lon="-118.3938619">
  <ele>-2.38</ele>
  <time>2026-09-01T01:17:01Z</time>
  <course>339.33</course>
  <speed>0.0</speed>
  <fix>3d</fix>
</trkpt>
<trkpt lat="33.8106434" lon="-118.3938616">
  <ele>-2.439</ele>
  <time>2026-09-01T01:17:01Z</time>
  <course>20.21</course>
  <speed>0.022360679774997897</speed>
  <fix>3d</fix>
</trkpt>
<trkpt lat="33.8106436" lon="-118.3938619">
  <ele>-2.38</ele>
  <time>2026-09-01T01:17:01Z</time>
  <course>339.33</course>
  <speed>0.0</speed>
  <fix>3d</fix>
</trkpt>
<trkpt lat="33.8106434" lon="-118.3938616">
  <ele>-2.436</ele>
  <time>2026-09-01T01:17:01Z</time>
  <course>20.06</course>
  <speed>0.022360679774997897</speed>
  <fix>3d</fix>
</trkpt>
<trkpt lat="33.8106436" lon="-118.3938619">
  <ele>-2.37</ele>
  <time>2026-09-01T01:17:01Z</time>
  <course>353.44</course>
  <speed>0.0</speed>
  <fix>3d</fix>
</trkpt>
<trkpt lat="33.8106434" lon="-118.3938616">
  <ele>-2.436</ele>
  <time>2026-09-01T01:17:01Z</time>
  <course>19.83</course>
  <speed>0.0282842712474619</speed>
  <fix>3d</fix>
</trkpt>
<trkpt lat="33.8106436" lon="-118.3938619">
  <ele>-2.37</ele>
  <time>2026-09-01T01:17:01Z</time>
  <course>353.44</course>
  <speed>0.0</speed>
  <fix>3d</fix>
</trkpt>
<trkpt lat="33.8106434" lon="-118.3938616">
  <ele>-2.437</ele>
  <time>2026-09-01T01:17:01Z</time>
  <course>19.36</course>
  <speed>0.0282842712474619</speed>
  <fix>3d</fix>
</trkpt>
<trkpt lat="33.8106436" lon="-118.3938619">
  <ele>-2.37</ele>
  <time>2026-09-01T01:17:01Z</time>
  <course>50.75</course>
  <speed>0.0</speed>
  <fix>3d</fix>
</trkpt>
<trkpt lat="33.8106434" lon="-118.3938616">
  <ele>-2.439</ele>
  <time>2026-09-01T01:17:01Z</time>
  <course>18.71</course>
  <speed>0.03605551275463989</speed>
  <fix>3d</fix>
</trkpt>
<trkpt lat="33.8106436" lon="-118.3938619">
  <ele>-2.37</ele>
  <time>2026-09-01T01:17:01Z</time>
  <course>50.75</course>
  <speed>0.0</speed>
  <fix>3d</fix>
</trkpt>
<trkpt lat="33.8106434" lon="-118.3938616">
  <ele>-2.44</ele>
  <time>2026-09-01T01:17:01Z</time>
  <course>17.99</course>
  <speed>0.03605551275463989</speed>
  <fix>3d</fix>
</trkpt>
<trkpt lat="33.8106436" lon="-118.3938619">
  <ele>-2.37</ele>
  <time>2026-09-01T01:17:01Z</time>
  <course>87.22</course>
  <speed>0.01</speed>
  <fix>3d</fix>
</trkpt>
<trkpt lat="33.8106434" lon="-118.3938616">
  <ele>-2.441</ele>
  <time>2026-09-01T01:17:01Z</time>
  <course>17.25</course>
  <speed>0.03605551275463989</speed>
  <fix>3d</fix>
</trkpt>
<trkpt lat="33.8106436" lon="-118.3938619">
  <ele>-2.37</ele>
  <time>2026-09-01T01:17:01Z</time>
  <course>87.22</course>
  <speed>0.01</speed>
  <fix>3d</fix>
</trkpt>
<trkpt lat="33.8106434" lon="-118.3938616">
  <ele>-2.442</ele>
  <time>2026-09-01T01:17:01Z</time>
  <course>16.52</course>
  <speed>0.044721359549995794</speed>
  <fix>3d</fix>
</trkpt>
<trkpt lat="33.8106436" lon="-118.3938619">
  <ele>-2.38</ele>
  <time>2026-09-01T01:17:01Z</time>
  <course>95.33</course>
  <speed>0.02</speed>
  <fix>3d</fix>
</trkpt>
<trkpt lat="33.8106434" lon="-118.3938616">
  <ele>-2.443</ele>
  <time>2026-09-01T01:17:01Z</time>
  <course>15.79</course>
  <speed>0.044721359549995794</speed>
  <fix>3d</fix>
</trkpt>
<trkpt lat="33.8106436" lon="-118.3938619">
  <ele>-2.38</ele>
  <time>2026-09-01T01:17:01Z</time>
  <course>95.33</course>
  <speed>0.02</speed>
  <fix>3d</fix>
</trkpt>
<trkpt lat="33.8106434" lon="-118.3938616">
  <ele>-2.445</ele>
  <time>2026-09-01T01:17:01Z</time>
  <course>15.07</course>
  <speed>0.044721359549995794</speed>
  <fix>3d</fix>
</trkpt>
<trkpt lat="33.8106436" lon="-118.3938618">
  <ele>-2.38</ele>
  <time>2026-09-01T01:17:01Z</time>
  <course>97.33</course>
  <speed>0.02</speed>
  <fix>3d</fix>
</trkpt>
<trkpt lat="33.8106434" lon="-118.3938616">
  <ele>-2.448</ele>
  <time>2026-09-01T01:17:01Z</time>
  <course>14.24</course>
  <speed>0.044721359549995794</speed>
  <fix>3d</fix>
</trkpt>
<trkpt lat="33.8106436" lon="-118.3938618">
  <ele>-2.38</ele>
  <time>2026-09-01T01:17:01Z</time>
  <course>97.33</course>
  <speed>0.02</speed>
  <fix>3d</fix>
</trkpt>
<trkpt lat="33.8106434" lon="-118.3938616">
  <ele>-2.451</ele>
  <time>2026-09-01T01:17:01Z</time>
  <course>13.33</course>
  <speed>0.03605551275463989</speed>
  <fix>3d</fix>
</trkpt>
<trkpt lat="33.8106436" lon="-118.3938618">
  <ele>-2.39</ele>
  <time>2026-09-01T01:17:01Z</time>
  <course>97.77</course>
  <speed>0.03</speed>
  <fix>3d</fix>
</trkpt>
<trkpt lat="33.8106434" lon="-118.3938615">
  <ele>-2.453</ele>
  <time>2026-09-01T01:17:01Z</time>
  <course>12.37</course>
  <speed>0.03605551275463989</speed>
  <fix>3d</fix>
</trkpt>
<trkpt lat="33.8106436" lon="-118.3938618">
  <ele>-2.39</ele>
  <time>2026-09-01T01:17:01Z</time>
  <course>97.77</course>
  <speed>0.03</speed>
  <fix>3d</fix>
</trkpt>
<trkpt lat="33.8106434" lon="-118.3938615">
  <ele>-2.453</ele>
  <time>2026-09-01T01:17:01Z</time>
  <course>11.39</course>
  <speed>0.03605551275463989</speed>
  <fix>3d</fix>
</trkpt>
<trkpt lat="33.8106436" lon="-118.3938617">
  <ele>-2.39</ele>
  <time>2026-09-01T01:17:01Z</time>
  <course>97.69</course>
  <speed>0.02</speed>
  <fix>3d</fix>
</trkpt>
<trkpt lat="33.8106434" lon="-118.3938615">
  <ele>-2.453</ele>
  <time>2026-09-01T01:17:01Z</time>
  <course>10.4</course>
  <speed>0.03605551275463989</speed>
  <fix>3d</fix>
</trkpt>
<trkpt lat="33.8106436" lon="-118.3938617">
  <ele>-2.39</ele>
  <time>2026-09-01T01:17:01Z</time>
  <course>97.69</course>
  <speed>0.02</speed>
  <fix>3d</fix>
</trkpt>
<trkpt lat="33.8106434" lon="-118.3938615">
  <ele>-2.452</ele>
  <time>2026-09-01T01:17:01Z</time>
  <course>9.41</course>
  <speed>0.0282842712474619</speed>
  <fix>3d</fix>
</trkpt>
<trkpt lat="33.8106436" lon="-118.3938616">
  <ele>-2.38</ele>
  <time>2026-09-01T01:17:01Z</time>
  <course>97.56</course>
  <speed>0.02</speed>
  <fix>3d</fix>
</trkpt>
<trkpt lat="33.8106434" lon="-118.3938615">
  <ele>-2.45</ele>
  <time>2026-09-01T01:17:01Z</time>
  <course>8.49</course>
  <speed>0.0282842712474619</speed>
  <fix>3d</fix>
</trkpt>
<trkpt lat="33.8106436" lon="-118.3938616">
  <ele>-2.38</ele>
  <time>2026-09-01T01:17:01Z</time>
  <course>97.56</course>
  <speed>0.02</speed>
  <fix>3d</fix>
</trkpt>
<trkpt lat="33.8106434" lon="-118.3938615">
  <ele>-2.446</ele>
  <time>2026-09-01T01:17:01Z</time>
  <course>7.8</course>
  <speed>0.0282842712474619</speed>
  <fix>3d</fix>
</trkpt>
<trkpt lat="33.8106436" lon="-118.3938616">
  <ele>-2.38</ele>
  <time>2026-09-01T01:17:01Z</time>
  <course>97.28</course>
  <speed>0.01</speed>
  <fix>3d</fix>
</trkpt>
<trkpt lat="33.8106434" lon="-118.3938615">
  <ele>-2.442</ele>
  <time>2026-09-01T01:17:01Z</time>
  <course>7.27</course>
  <speed>0.0282842712474619</speed>
  <fix>3d</fix>
</trkpt>
<trkpt lat="33.8106436" lon="-118.3938616">
  <ele>-2.38</ele>
  <time>2026-09-01T01:17:01Z</time>
  <course>97.28</course>
  <speed>0.01</speed>
  <fix>3d</fix>
</trkpt>
<trkpt lat="33.8106434" lon="-118.3938615">
  <ele>-2.439</ele>
  <time>2026-09-01T01:17:01Z</time>
  <course>6.84</course>
  <speed>0.0282842712474619</speed>
  <fix>3d</fix>
</trkpt>
<trkpt lat="33.8106436" lon="-118.3938616">
  <ele>-2.38</ele>
  <time>2026-09-01T01:17:01Z</time>
  <course>96.23</course>
  <speed>0.01</speed>
  <fix>3d</fix>
</trkpt>
<trkpt lat="33.8106434" lon="-118.3938614">
  <ele>-2.438</ele>
  <time>2026-09-01T01:17:01Z</time>
  <course>6.49</course>
  <speed>0.0282842712474619</speed>
  <fix>3d</fix>
</trkpt>
<trkpt lat="33.8106436" lon="-118.3938616">
  <ele>-2.38</ele>
  <time>2026-09-01T01:17:01Z</time>
  <course>96.23</course>
  <speed>0.01</speed>
  <fix>3d</fix>
</trkpt>
<trkpt lat="33.8106434" lon="-118.3938614">
  <ele>-2.437</ele>
  <time>2026-09-01T01:17:01Z</time>
  <course>6.18</course>
  <speed>0.0282842712474619</speed>
  <fix>3d</fix>
</trkpt>
<trkpt lat="33.8106436" lon="-118.3938615">
  <ele>-2.38</ele>
  <time>2026-09-01T01:17:01Z</time>
  <course>95.72</course>
  <speed>0.01</speed>
  <fix>3d</fix>
</trkpt>
<trkpt lat="33.8106434" lon="-118.3938614">
  <ele>-2.439</ele>
  <time>2026-09-01T01:17:01Z</time>
  <course>5.92</course>
  <speed>0.0282842712474619</speed>
  <fix>3d</fix>
</trkpt>
<trkpt lat="33.8106436" lon="-118.3938615">
  <ele>-2.38</ele>
  <time>2026-09-01T01:17:01Z</time>
  <course>95.72</course>
  <speed>0.01</speed>
  <fix>3d</fix>
</trkpt>
<trkpt lat="33.8106434" lon="-118.3938614">
  <ele>-2.44</ele>
  <time>2026-09-01T01:17:01Z</time>
  <course>5.68</course>
  <speed>0.0282842712474619</speed>
  <fix>3d</fix>
</trkpt>
<trkpt lat="33.8106436" lon="-118.3938615">
  <ele>-2.38</ele>
  <time>2026-09-01T01:17:01Z</time>
  <course>95.73</course>
  <speed>0.01</speed>
  <fix>3d</fix>
</trkpt>
<trkpt lat="33.8106434" lon="-118.3938614">
  <ele>-2.442</ele>
  <time>2026-09-01T01:17:01Z</time>
  <course>5.46</course>
  <speed>0.0282842712474619</speed>
  <fix>3d</fix>
</trkpt>
<trkpt lat="33.8106436" lon="-118.3938615">
  <ele>-2.38</ele>
  <time>2026-09-01T01:17:01Z</time>
  <course>95.73</course>
  <speed>0.01</speed>
  <fix>3d</fix>
</trkpt>
<trkpt lat="33.8106434" lon="-118.3938614">
  <ele>-2.445</ele>
  <time>2026-09-01T01:17:01Z</time>
  <course>5.27</course>
  <speed>0.0282842712474619</speed>
  <fix>3d</fix>
</trkpt>
<trkpt lat="33.8106436" lon="-118.3938615">
  <ele>-2.38</ele>
  <time>2026-09-01T01:17:01Z</time>
  <course>95.75</course>
  <speed>0.01</speed>
  <fix>3d</fix>
</trkpt>
<trkpt lat="33.8106434" lon="-118.3938614">
  <ele>-2.446</ele>
  <time>2026-09-01T01:17:01Z</time>
  <course>5.09</course>
  <speed>0.0282842712474619</speed>
  <fix>3d</fix>
</trkpt>
<trkpt lat="33.8106436" lon="-118.3938615">
  <ele>-2.38</ele>
  <time>2026-09-01T01:17:01Z</time>
  <course>95.75</course>
  <speed>0.01</speed>
  <fix>3d</fix>
</trkpt>
<trkpt lat="33.8106434" lon="-118.3938614">
  <ele>-2.447</ele>
  <time>2026-09-01T01:17:01Z</time>
  <course>4.92</course>
  <speed>0.0282842712474619</speed>
  <fix>3d</fix>
</trkpt>
<trkpt lat="33.8106436" lon="-118.3938614">
  <ele>-2.39</ele>
  <time>2026-09-01T01:17:01Z</time>
  <course>95.79</course>
  <speed>0.01</speed>
  <fix>3d</fix>
</trkpt>
<trkpt lat="33.8106434" lon="-118.3938614">
  <ele>-2.447</ele>
  <time>2026-09-01T01:17:01Z</time>
  <course>4.77</course>
  <speed>0.0282842712474619</speed>
  <fix>3d</fix>
</trkpt>
<trkpt lat="33.8106436" lon="-118.3938614">
  <ele>-2.39</ele>
  <time>2026-09-01T01:17:01Z</time>
  <course>95.79</course>
  <speed>0.01</speed>
  <fix>3d</fix>
</trkpt>
<trkpt lat="33.8106434" lon="-118.3938613">
  <ele>-2.447</ele>
  <time>2026-09-01T01:17:01Z</time>
  <course>4.62</course>
  <speed>0.0282842712474619</speed>
  <fix>3d</fix>
</trkpt>
<trkpt lat="33.8106436" lon="-118.3938614">
  <ele>-2.39</ele>
  <time>2026-09-01T01:17:01Z</time>
  <course>95.82</course>
  <speed>0.01</speed>
  <fix>3d</fix>
</trkpt>
<trkpt lat="33.8106434" lon="-118.3938613">
  <ele>-2.448</ele>
  <time>2026-09-01T01:17:01Z</time>
  <course>4.49</course>
  <speed>0.022360679774997897</speed>
  <fix>3d</fix>
</trkpt>
<trkpt lat="33.8106436" lon="-118.3938614">
  <ele>-2.39</ele>
  <time>2026-09-01T01:17:01Z</time>
  <course>95.82</course>
  <speed>0.01</speed>
  <fix>3d</fix>
</trkpt>
<trkpt lat="33.8106434" lon="-118.3938613">
  <ele>-2.449</ele>
  <time>2026-09-01T01:17:01Z</time>
  <course>4.36</course>
  <speed>0.022360679774997897</speed>
  <fix>3d</fix>
</trkpt>
<trkpt lat="33.8106436" lon="-118.3938614">
  <ele>-2.39</ele>
  <time>2026-09-01T01:17:01Z</time>
  <course>95.87</course>
  <speed>0.01</speed>
  <fix>3d</fix>
</trkpt>
<trkpt lat="33.8106434" lon="-118.3938613">
  <ele>-2.449</ele>
  <time>2026-09-01T01:17:01Z</time>
  <course>4.24</course>
  <speed>0.022360679774997897</speed>
  <fix>3d</fix>
</trkpt>
<trkpt lat="33.8106436" lon="-118.3938614">
  <ele>-2.39</ele>
  <time>2026-09-01T01:17:01Z</time>
  <course>95.87</course>
  <speed>0.01</speed>
  <fix>3d</fix>
</trkpt>
<trkpt lat="33.8106434" lon="-118.3938613">
  <ele>-2.448</ele>
  <time>2026-09-01T01:17:01Z</time>
  <course>4.13</course>
  <speed>0.022360679774997897</speed>
  <fix>3d</fix>
</trkpt>
<trkpt lat="33.8106436" lon="-118.3938613">
  <ele>-2.39</ele>
  <time>2026-09-01T01:17:01Z</time>
  <course>95.92</course>
  <speed>0.01</speed>
  <fix>3d</fix>
</trkpt>
<trkpt lat="33.8106434" lon="-118.3938613">
  <ele>-2.447</ele>
  <time>2026-09-01T01:17:01Z</time>
  <course>4.04</course>
  <speed>0.022360679774997897</speed>
  <fix>3d</fix>
</trkpt>
<trkpt lat="33.8106436" lon="-118.3938613">
  <ele>-2.39</ele>
  <time>2026-09-01T01:17:01Z</time>
  <course>95.92</course>
  <speed>0.01</speed>
  <fix>3d</fix>
</trkpt>
<trkpt lat="33.8106434" lon="-118.3938613">
  <ele>-2.447</ele>
  <time>2026-09-01T01:17:01Z</time>
  <course>3.99</course>
  <speed>0.022360679774997897</speed>
  <fix>3d</fix>
</trkpt>
<trkpt lat="33.8106436" lon="-118.3938613">
  <ele>-2.39</ele>
  <time>2026-09-01T01:17:01Z</time>
  <course>97.62</course>
  <speed>0.01</speed>
  <fix>3d</fix>
</trkpt>
<trkpt lat="33.8106434" lon="-118.3938613">
  <ele>-2.448</ele>
  <time>2026-09-01T01:17:01Z</time>
  <course>4.08</course>
  <speed>0.022360679774997897</speed>
  <fix>3d</fix>
</trkpt>
<trkpt lat="33.8106436" lon="-118.3938613">
  <ele>-2.39</ele>
  <time>2026-09-01T01:17:01Z</time>
  <course>97.62</course>
  <speed>0.01</speed>
  <fix>3d</fix>
</trkpt>
<trkpt lat="33.8106434" lon="-118.3938613">
  <ele>-2.45</ele>
  <time>2026-09-01T01:17:01Z</time>
  <course>4.47</course>
  <speed>0.02</speed>
  <fix>3d</fix>
</trkpt>
<trkpt lat="33.8106436" lon="-118.3938613">
  <ele>-2.39</ele>
  <time>2026-09-01T01:17:01Z</time>
  <course>106.73</course>
  <speed>0.01</speed>
  <fix>3d</fix>
</trkpt>
<trkpt lat="33.8106434" lon="-118.3938613">
  <ele>-2.451</ele>
  <time>2026-09-01T01:17:01Z</time>
  <course>5.09</course>
  <speed>0.02</speed>
  <fix>3d</fix>
</trkpt>
<trkpt lat="33.8106436" lon="-118.3938613">
  <ele>-2.39</ele>
  <time>2026-09-01T01:17:01Z</time>
  <course>106.73</course>
  <speed>0.01</speed>
  <fix>3d</fix>
</trkpt>
<trkpt lat="33.8106434" lon="-118.3938613">
  <ele>-2.452</ele>
  <time>2026-09-01T01:17:01Z</time>
  <course>5.82</course>
  <speed>0.02</speed>
  <fix>3d</fix>
</trkpt>
<trkpt lat="33.8106436" lon="-118.3938613">
  <ele>-2.39</ele>
  <time>2026-09-01T01:17:01Z</time>
  <course>177.12</course>
  <speed>0.0</speed>
  <fix>3d</fix>
</trkpt>
<trkpt lat="33.8106434" lon="-118.3938613">
  <ele>-2.453</ele>
  <time>2026-09-01T01:17:01Z</time>
  <course>6.57</course>
  <speed>0.02</speed>
  <fix>3d</fix>
</trkpt>
<trkpt lat="33.8106436" lon="-118.3938613">
  <ele>-2.39</ele>
  <time>2026-09-01T01:17:01Z</time>
  <course>177.12</course>
  <speed>0.0</speed>
  <fix>3d</fix>
</trkpt>
<trkpt lat="33.8106434" lon="-118.3938613">
  <ele>-2.453</ele>
  <time>2026-09-01T01:17:01Z</time>
  <course>7.33</course>
  <speed>0.022360679774997897</speed>
  <fix>3d</fix>
</trkpt>
<trkpt lat="33.8106435" lon="-118.3938613">
  <ele>-2.39</ele>
  <time>2026-09-01T01:17:01Z</time>
  <course>253.33</course>
  <speed>0.01</speed>
  <fix>3d</fix>
</trkpt>
<trkpt lat="33.8106434" lon="-118.3938613">
  <ele>-2.453</ele>
  <time>2026-09-01T01:17:01Z</time>
  <course>8.09</course>
  <speed>0.022360679774997897</speed>
  <fix>3d</fix>
</trkpt>
<trkpt lat="33.8106435" lon="-118.3938613">
  <ele>-2.39</ele>
  <time>2026-09-01T01:17:01Z</time>
  <course>253.33</course>
  <speed>0.01</speed>
  <fix>3d</fix>
</trkpt>
<trkpt lat="33.8106434" lon="-118.3938613">
  <ele>-2.452</ele>
  <time>2026-09-01T01:17:01Z</time>
  <course>8.92</course>
  <speed>0.022360679774997897</speed>
  <fix>3d</fix>
</trkpt>
<trkpt lat="33.8106435" lon="-118.3938613">
  <ele>-2.39</ele>
  <time>2026-09-01T01:17:01Z</time>
  <course>265.44</course>
  <speed>0.01</speed>
  <fix>3d</fix>
</trkpt>
<trkpt lat="33.8106434" lon="-118.3938613">
  <ele>-2.45</ele>
  <time>2026-09-01T01:17:01Z</time>
  <course>9.84</course>
  <speed>0.022360679774997897</speed>
  <fix>3d</fix>
</trkpt>
<trkpt lat="33.8106435" lon="-118.3938613">
  <ele>-2.39</ele>
  <time>2026-09-01T01:17:01Z</time>
  <course>265.44</course>
  <speed>0.01</speed>
  <fix>3d</fix>
</trkpt>
<trkpt lat="33.8106434" lon="-118.3938613">
  <ele>-2.447</ele>
  <time>2026-09-01T01:17:01Z</time>
  <course>10.79</course>
  <speed>0.022360679774997897</speed>
  <fix>3d</fix>
</trkpt>
<trkpt lat="33.8106435" lon="-118.3938613">
  <ele>-2.38</ele>
  <time>2026-09-01T01:17:01Z</time>
  <course>273.37</course>
  <speed>0.02</speed>
  <fix>3d</fix>
</trkpt>
<trkpt lat="33.8106434" lon="-118.3938613">
  <ele>-2.444</ele>
  <time>2026-09-01T01:17:01Z</time>
  <course>11.79</course>
  <speed>0.02</speed>
  <fix>3d</fix>
</trkpt>
<trkpt lat="33.8106435" lon="-118.3938613">
  <ele>-2.38</ele>
  <time>2026-09-01T01:17:01Z</time>
  <course>273.37</course>
  <speed>0.02</speed>
  <fix>3d</fix>
</trkpt>
<trkpt lat="33.8106434" lon="-118.3938613">
  <ele>-2.442</ele>
  <time>2026-09-01T01:17:01Z</time>
  <course>12.8</course>
  <speed>0.02</speed>
  <fix>3d</fix>
</trkpt>
<trkpt lat="33.8106435" lon="-118.3938613">
  <ele>-2.38</ele>
  <time>2026-09-01T01:17:01Z</time>
  <course>280.16</course>
  <speed>0.01</speed>
  <fix>3d</fix>
</trkpt>
<trkpt lat="33.8106434" lon="-118.3938613">
  <ele>-2.442</ele>
  <time>2026-09-01T01:17:01Z</time>
  <course>13.83</course>
  <speed>0.02</speed>
  <fix>3d</fix>
</trkpt>
<trkpt lat="33.8106435" lon="-118.3938613">
  <ele>-2.38</ele>
  <time>2026-09-01T01:17:01Z</time>
  <course>280.16</course>
  <speed>0.01</speed>
  <fix>3d</fix>
</trkpt>
<trkpt lat="33.8106434" lon="-118.3938613">
  <ele>-2.442</ele>
  <time>2026-09-01T01:17:01Z</time>
  <course>14.86</course>
  <speed>0.01</speed>
  <fix>3d</fix>
</trkpt>
<trkpt lat="33.8106435" lon="-118.3938613">
  <ele>-2.38</ele>
  <time>2026-09-01T01:17:01Z</time>
  <course>286.63</course>
  <speed>0.01</speed>
  <fix>3d</fix>
</trkpt>
<trkpt lat="33.8106434" lon="-118.3938613">
  <ele>-2.442</ele>
  <time>2026-09-01T01:17:01Z</time>
  <course>15.89</course>
  <speed>0.02</speed>
  <fix>3d</fix>
</trkpt>
<trkpt lat="33.8106435" lon="-118.3938613">
  <ele>-2.38</ele>
  <time>2026-09-01T01:17:01Z</time>
  <course>286.63</course>
  <speed>0.01</speed>
  <fix>3d</fix>
</trkpt>
<trkpt lat="33.8106434" lon="-118.3938613">
  <ele>-2.443</ele>
  <time>2026-09-01T01:17:01Z</time>
  <course>16.93</course>
  <speed>0.01</speed>
  <fix>3d</fix>
</trkpt>
<trkpt lat="33.8106435" lon="-118.3938614">
  <ele>-2.38</ele>
  <time>2026-09-01T01:17:01Z</time>
  <course>292.49</course>
  <speed>0.01</speed>
  <fix>3d</fix>
</trkpt>
<trkpt lat="33.8106434" lon="-118.3938613">
  <ele>-2.444</ele>
  <time>2026-09-01T01:17:01Z</time>
  <course>17.97</course>
  <speed>0.01</speed>
  <fix>3d</fix>
</trkpt>
<trkpt lat="33.8106435" lon="-118.3938614">
  <ele>-2.38</ele>
  <time>2026-09-01T01:17:01Z</time>
  <course>292.49</course>
  <speed>0.01</speed>
  <fix>3d</fix>
</trkpt>
<trkpt lat="33.8106434" lon="-118.3938613">
  <ele>-2.445</ele>
  <time>2026-09-01T01:17:01Z</time>
  <course>19.01</course>
  <speed>0.01</speed>
  <fix>3d</fix>
</trkpt>
<trkpt lat="33.8106435" lon="-118.3938614">
  <ele>-2.38</ele>
  <time>2026-09-01T01:17:01Z</time>
  <course>297.17</course>
  <speed>0.01</speed>
  <fix>3d</fix>
</trkpt>
<trkpt lat="33.8106434" lon="-118.3938613">
  <ele>-2.446</ele>
  <time>2026-09-01T01:17:01Z</time>
  <course>20.05</course>
  <speed>0.01</speed>
  <fix>3d</fix>
</trkpt>
<trkpt lat="33.8106435" lon="-118.3938614">
  <ele>-2.38</ele>
  <time>2026-09-01T01:17:01Z</time>
  <course>297.17</course>
  <speed>0.01</speed>
  <fix>3d</fix>
</trkpt>
<trkpt lat="33.8106434" lon="-118.3938613">
  <ele>-2.446</ele>
  <time>2026-09-01T01:17:01Z</time>
  <course>21.08</course>
  <speed>0.01</speed>
  <fix>3d</fix>
</trkpt>
<trkpt lat="33.8106435" lon="-118.3938614">
  <ele>-2.38</ele>
  <time>2026-09-01T01:17:01Z</time>
  <course>300.41</course>
  <speed>0.01</speed>
  <fix>3d</fix>
</trkpt>
<trkpt lat="33.8106434" lon="-118.3938613">
  <ele>-2.446</ele>
  <time>2026-09-01T01:17:01Z</time>
  <course>22.13</course>
  <speed>0.01</speed>
  <fix>3d</fix>
</trkpt>
<trkpt lat="33.8106435" lon="-118.3938614">
  <ele>-2.38</ele>
  <time>2026-09-01T01:17:01Z</time>
  <course>300.41</course>
  <speed>0.01</speed>
  <fix>3d</fix>
</trkpt>
<trkpt lat="33.8106434" lon="-118.3938614">
  <ele>-2.446</ele>
  <time>2026-09-01T01:17:01Z</time>
  <course>23.16</course>
  <speed>0.01</speed>
  <fix>3d</fix>
</trkpt>
<trkpt lat="33.8106435" lon="-118.3938615">
  <ele>-2.38</ele>
  <time>2026-09-01T01:17:01Z</time>
  <course>302.87</course>
  <speed>0.01</speed>
  <fix>3d</fix>
</trkpt>
<trkpt lat="33.8106434" lon="-118.3938614">
  <ele>-2.447</ele>
  <time>2026-09-01T01:17:01Z</time>
  <course>24.2</course>
  <speed>0.01</speed>
  <fix>3d</fix>
</trkpt>
<trkpt lat="33.8106435" lon="-118.3938615">
  <ele>-2.38</ele>
  <time>2026-09-01T01:17:01Z</time>
  <course>302.87</course>
  <speed>0.01</speed>
  <fix>3d</fix>
</trkpt>
<trkpt lat="33.8106434" lon="-118.3938614">
  <ele>-2.447</ele>
  <time>2026-09-01T01:17:01Z</time>
  <course>25.24</course>
  <speed>0.01</speed>
  <fix>3d</fix>
</trkpt>
<trkpt lat="33.8106435" lon="-118.3938615">
  <ele>-2.38</ele>
  <time>2026-09-01T01:17:01Z</time>
  <course>304.92</course>
  <speed>0.01</speed>
  <fix>3d</fix>
</trkpt>
<trkpt lat="33.8106434" lon="-118.3938614">
  <ele>-2.447</ele>
  <time>2026-09-01T01:17:01Z</time>
  <course>26.17</course>
  <speed>0.02</speed>
  <fix>3d</fix>
</trkpt>
<trkpt lat="33.8106435" lon="-118.3938615">
  <ele>-2.38</ele>
  <time>2026-09-01T01:17:01Z</time>
  <course>304.92</course>
  <speed>0.01</speed>
  <fix>3d</fix>
</trkpt>
<trkpt lat="33.8106434" lon="-118.3938614">
  <ele>-2.446</ele>
  <time>2026-09-01T01:17:01Z</time>
  <course>26.84</course>
  <speed>0.02</speed>
  <fix>3d</fix>
</trkpt>
<trkpt lat="33.8106435" lon="-118.3938615">
  <ele>-2.38</ele>
  <time>2026-09-01T01:17:01Z</time>
  <course>306.98</course>
  <speed>0.01</speed>
  <fix>3d</fix>
</trkpt>
<trkpt lat="33.8106434" lon="-118.3938614">
  <ele>-2.445</ele>
  <time>2026-09-01T01:17:01Z</time>
  <course>27.35</course>
  <speed>0.02</speed>
  <fix>3d</fix>
</trkpt>
<trkpt lat="33.8106435" lon="-118.3938615">
  <ele>-2.38</ele>
  <time>2026-09-01T01:17:01Z</time>
  <course>306.98</course>
  <speed>0.01</speed>
  <fix>3d</fix>
</trkpt>
<trkpt lat="33.8106434" lon="-118.3938614">
  <ele>-2.444</ele>
  <time>2026-09-01T01:17:01Z</time>
  <course>27.77</course>
  <speed>0.022360679774997897</speed>
  <fix>3d</fix>
</trkpt>
<trkpt lat="33.8106435" lon="-118.3938616">
  <ele>-2.38</ele>
  <time>2026-09-01T01:17:01Z</time>
  <course>308.02</course>
  <speed>0.01</speed>
  <fix>3d</fix>
</trkpt>
<trkpt lat="33.8106434" lon="-118.3938614">
  <ele>-2.444</ele>
  <time>2026-09-01T01:17:01Z</time>
  <course>28.11</course>
  <speed>0.022360679774997897</speed>
  <fix>3d</fix>
</trkpt>
<trkpt lat="33.8106435" lon="-118.3938616">
  <ele>-2.38</ele>
  <time>2026-09-01T01:17:01Z</time>
  <course>308.02</course>
  <speed>0.01</speed>
  <fix>3d</fix>
</trkpt>
<trkpt lat="33.8106434" lon="-118.3938614">
  <ele>-2.445</ele>
  <time>2026-09-01T01:17:01Z</time>
  <course>28.41</course>
  <speed>0.022360679774997897</speed>
  <fix>3d</fix>
</trkpt>
<trkpt lat="33.8106436" lon="-118.3938616">
  <ele>-2.38</ele>
  <time>2026-09-01T01:17:01Z</time>
  <course>308.19</course>
  <speed>0.01</speed>
  <fix>3d</fix>
</trkpt>
<trkpt lat="33.8106434" lon="-118.3938614">
  <ele>-2.447</ele>
  <time>2026-09-01T01:17:01Z</time>
  <course>28.67</course>
  <speed>0.022360679774997897</speed>
  <fix>3d</fix>
</trkpt>
<trkpt lat="33.8106436" lon="-118.3938616">
  <ele>-2.38</ele>
  <time>2026-09-01T01:17:01Z</time>
  <course>308.19</course>
  <speed>0.01</speed>
  <fix>3d</fix>
</trkpt>
<trkpt lat="33.8106434" lon="-118.3938614">
  <ele>-2.447</ele>
  <time>2026-09-01T01:17:01Z</time>
  <course>28.91</course>
  <speed>0.022360679774997897</speed>
  <fix>3d</fix>
</trkpt>
<trkpt lat="33.8106436" lon="-118.3938616">
  <ele>-2.38</ele>
  <time>2026-09-01T01:17:01Z</time>
  <course>308.36</course>
  <speed>0.01</speed>
  <fix>3d</fix>
</trkpt>
<trkpt lat="33.8106434" lon="-118.3938614">
  <ele>-2.447</ele>
  <time>2026-09-01T01:17:01Z</time>
  <course>29.12</course>
  <speed>0.022360679774997897</speed>
  <fix>3d</fix>
</trkpt>
<trkpt lat="33.8106436" lon="-118.3938616">
  <ele>-2.38</ele>
  <time>2026-09-01T01:17:01Z</time>
  <course>308.36</course>
  <speed>0.01</speed>
  <fix>3d</fix>
</trkpt>
<trkpt lat="33.8106434" lon="-118.3938614">
  <ele>-2.447</ele>
  <time>2026-09-01T01:17:01Z</time>
  <course>29.31</course>
  <speed>0.022360679774997897</speed>
  <fix>3d</fix>
</trkpt>
<trkpt lat="33.8106436" lon="-118.3938616">
  <ele>-2.39</ele>
  <time>2026-09-01T01:17:01Z</time>
  <course>308.52</course>
  <speed>0.01</speed>
  <fix>3d</fix>
</trkpt>
<trkpt lat="33.8106434" lon="-118.3938614">
  <ele>-2.447</ele>
  <time>2026-09-01T01:17:01Z</time>
  <course>29.49</course>
  <speed>0.022360679774997897</speed>
  <fix>3d</fix>
</trkpt>
<trkpt lat="33.8106436" lon="-118.3938616">
  <ele>-2.39</ele>
  <time>2026-09-01T01:17:01Z</time>
  <course>308.52</course>
  <speed>0.01</speed>
  <fix>3d</fix>
</trkpt>
<trkpt lat="33.8106434" lon="-118.3938614">
  <ele>-2.447</ele>
  <time>2026-09-01T01:17:01Z</time>
  <course>29.65</course>
  <speed>0.022360679774997897</speed>
  <fix>3d</fix>
</trkpt>
<trkpt lat="33.8106436" lon="-118.3938616">
  <ele>-2.39</ele>
  <time>2026-09-01T01:17:01Z</time>
  <course>308.69</course>
  <speed>0.01</speed>
  <fix>3d</fix>
</trkpt>
<trkpt lat="33.8106434" lon="-118.3938614">
  <ele>-2.448</ele>
  <time>2026-09-01T01:17:01Z</time>
  <course>29.81</course>
  <speed>0.022360679774997897</speed>
  <fix>3d</fix>
</trkpt>
<trkpt lat="33.8106436" lon="-118.3938616">
  <ele>-2.39</ele>
  <time>2026-09-01T01:17:01Z</time>
  <course>308.69</course>
  <speed>0.01</speed>
  <fix>3d</fix>
</trkpt>
<trkpt lat="33.8106434" lon="-118.3938614">
  <ele>-2.45</ele>
  <time>2026-09-01T01:17:01Z</time>
  <course>29.95</course>
  <speed>0.022360679774997897</speed>
  <fix>3d</fix>
</trkpt>
<trkpt lat="33.8106436" lon="-118.3938616">
  <ele>-2.39</ele>
  <time>2026-09-01T01:17:01Z</time>
  <course>308.88</course>
  <speed>0.01</speed>
  <fix>3d</fix>
</trkpt>
<trkpt lat="33.8106434" lon="-118.3938614">
  <ele>-2.451</ele>
  <time>2026-09-01T01:17:01Z</time>
  <course>30.08</course>
  <speed>0.022360679774997897</speed>
  <fix>3d</fix>
</trkpt>
<trkpt lat="33.8106436" lon="-118.3938616">
  <ele>-2.39</ele>
  <time>2026-09-01T01:17:01Z</time>
  <course>308.88</course>
  <speed>0.01</speed>
  <fix>3d</fix>
</trkpt>
<trkpt lat="33.8106434" lon="-118.3938614">
  <ele>-2.452</ele>
  <time>2026-09-01T01:17:01Z</time>
  <course>30.21</course>
  <speed>0.022360679774997897</speed>
  <fix>3d</fix>
</trkpt>
<trkpt lat="33.8106436" lon="-118.3938616">
  <ele>-2.39</ele>
  <time>2026-09-01T01:17:01Z</time>
  <course>309.04</course>
  <speed>0.01</speed>
  <fix>3d</fix>
</trkpt>
<trkpt lat="33.8106434" lon="-118.3938614">
  <ele>-2.452</ele>
  <time>2026-09-01T01:17:01Z</time>
  <course>30.32</course>
  <speed>0.022360679774997897</speed>
  <fix>3d</fix>
</trkpt>
<trkpt lat="33.8106436" lon="-118.3938616">
  <ele>-2.39</ele>
  <time>2026-09-01T01:17:01Z</time>
  <course>309.04</course>
  <speed>0.01</speed>
  <fix>3d</fix>
</trkpt>
<trkpt lat="33.8106434" lon="-118.3938614">
  <ele>-2.45</ele>
  <time>2026-09-01T01:17:01Z</time>
  <course>30.44</course>
  <speed>0.022360679774997897</speed>
  <fix>3d</fix>
</trkpt>
<trkpt lat="33.8106437" lon="-118.3938616">
  <ele>-2.38</ele>
  <time>2026-09-01T01:17:01Z</time>
  <course>309.18</course>
  <speed>0.01</speed>
  <fix>3d</fix>
</trkpt>
<trkpt lat="33.8106434" lon="-118.3938614">
  <ele>-2.449</ele>
  <time>2026-09-01T01:17:01Z</time>
  <course>30.54</course>
  <speed>0.022360679774997897</speed>
  <fix>3d</fix>
</trkpt>
<trkpt lat="33.8106437" lon="-118.3938616">
  <ele>-2.38</ele>
  <time>2026-09-01T01:17:01Z</time>
  <course>309.18</course>
  <speed>0.01</speed>
  <fix>3d</fix>
</trkpt>
<trkpt lat="33.8106434" lon="-118.3938614">
  <ele>-2.447</ele>
  <time>2026-09-01T01:17:01Z</time>
  <course>30.65</course>
  <speed>0.022360679774997897</speed>
  <fix>3d</fix>
</trkpt>
<trkpt lat="33.8106437" lon="-118.3938617">
  <ele>-2.38</ele>
  <time>2026-09-01T01:17:01Z</time>
  <course>309.31</course>
  <speed>0.01</speed>
  <fix>3d</fix>
</trkpt>
<trkpt lat="33.8106434" lon="-118.3938614">
  <ele>-2.447</ele>
  <time>2026-09-01T01:17:01Z</time>
  <course>30.74</course>
  <speed>0.022360679774997897</speed>
  <fix>3d</fix>
</trkpt>
<trkpt lat="33.8106437" lon="-118.3938617">
  <ele>-2.38</ele>
  <time>2026-09-01T01:17:01Z</time>
  <course>309.31</course>
  <speed>0.01</speed>
  <fix>3d</fix>
</trkpt>
<trkpt lat="33.8106434" lon="-118.3938614">
  <ele>-2.447</ele>
  <time>2026-09-01T01:17:01Z</time>
  <course>30.84</course>
  <speed>0.022360679774997897</speed>
  <fix>3d</fix>
</trkpt>
<trkpt lat="33.8106437" lon="-118.3938618">
  <ele>-2.38</ele>
  <time>2026-09-01T01:17:01Z</time>
  <course>309.47</course>
  <speed>0.01</speed>
  <fix>3d</fix>
</trkpt>
<trkpt lat="33.8106434" lon="-118.3938614">
  <ele>-2.447</ele>
  <time>2026-09-01T01:17:01Z</time>
  <course>30.94</course>
  <speed>0.022360679774997897</speed>
  <fix>3d</fix>
</trkpt>
<trkpt lat="33.8106437" lon="-118.3938618">
  <ele>-2.38</ele>
  <time>2026-09-01T01:17:01Z</time>
  <course>309.47</course>
  <speed>0.01</speed>
  <fix>3d</fix>
</trkpt>
<trkpt lat="33.8106434" lon="-118.3938615">
  <ele>-2.446</ele>
  <time>2026-09-01T01:17:01Z</time>
  <course>31.14</course>
  <speed>0.022360679774997897</speed>
  <fix>3d</fix>
</trkpt>
<trkpt lat="33.8106437" lon="-118.3938618">
  <ele>-2.37</ele>
  <time>2026-09-01T01:17:01Z</time>
  <course>306.5</course>
  <speed>0.01</speed>
  <fix>3d</fix>
</trkpt>
<trkpt lat="33.8106434" lon="-118.3938615">
  <ele>-2.445</ele>
  <time>2026-09-01T01:17:01Z</time>
  <course>31.52</course>
  <speed>0.03605551275463989</speed>
  <fix>3d</fix>
</trkpt>
<trkpt lat="33.8106437" lon="-118.3938618">
  <ele>-2.37</ele>
  <time>2026-09-01T01:17:01Z</time>
  <course>306.5</course>
  <speed>0.01</speed>
  <fix>3d</fix>
</trkpt>
<trkpt lat="33.8106434" lon="-118.3938615">
  <ele>-2.445</ele>
  <time>2026-09-01T01:17:01Z</time>
  <course>32.08</course>
  <speed>0.03605551275463989</speed>
  <fix>3d</fix>
</trkpt>
<trkpt lat="33.8106437" lon="-118.3938618">
  <ele>-2.37</ele>
  <time>2026-09-01T01:17:01Z</time>
  <course>295.19</course>
  <speed>0.0</speed>
  <fix>3d</fix>
</trkpt>
<trkpt lat="33.8106434" lon="-118.3938615">
  <ele>-2.445</ele>
  <time>2026-09-01T01:17:01Z</time>
  <course>32.81</course>
  <speed>0.03605551275463989</speed>
  <fix>3d</fix>
</trkpt>
<trkpt lat="33.8106437" lon="-118.3938618">
  <ele>-2.37</ele>
  <time>2026-09-01T01:17:01Z</time>
  <course>295.19</course>
  <speed>0.0</speed>
  <fix>3d</fix>
</trkpt>
<trkpt lat="33.8106434" lon="-118.3938615">
  <ele>-2.444</ele>
  <time>2026-09-01T01:17:01Z</time>
  <course>33.69</course>
  <speed>0.03605551275463989</speed>
  <fix>3d</fix>
</trkpt>
<trkpt lat="33.8106437" lon="-118.3938618">
  <ele>-2.37</ele>
  <time>2026-09-01T01:17:01Z</time>
  <course>203.58</course>
  <speed>0.0</speed>
  <fix>3d</fix>
</trkpt>
<trkpt lat="33.8106434" lon="-118.3938615">
  <ele>-2.443</ele>
  <time>2026-09-01T01:17:01Z</time>
  <course>34.65</course>
  <speed>0.03605551275463989</speed>
  <fix>3d</fix>
</trkpt>
<trkpt lat="33.8106437" lon="-118.3938618">
  <ele>-2.37</ele>
  <time>2026-09-01T01:17:01Z</time>
  <course>203.58</course>
  <speed>0.0</speed>
  <fix>3d</fix>
</trkpt>
<trkpt lat="33.8106434" lon="-118.3938615">
  <ele>-2.443</ele>
  <time>2026-09-01T01:17:01Z</time>
  <course>35.63</course>
  <speed>0.03605551275463989</speed>
  <fix>3d</fix>
</trkpt>
<trkpt lat="33.8106437" lon="-118.3938618">
  <ele>-2.37</ele>
  <time>2026-09-01T01:17:01Z</time>
  <course>163.26</course>
  <speed>0.0</speed>
  <fix>3d</fix>
</trkpt>
<trkpt lat="33.8106434" lon="-118.3938615">
  <ele>-2.443</ele>
  <time>2026-09-01T01:17:01Z</time>
  <course>36.64</course>
  <speed>0.03605551275463989</speed>
  <fix>3d</fix>
</trkpt>
<trkpt lat="33.8106437" lon="-118.3938618">
  <ele>-2.37</ele>
  <time>2026-09-01T01:17:01Z</time>
  <course>163.26</course>
  <speed>0.0</speed>
  <fix>3d</fix>
</trkpt>
<trkpt lat="33.8106434" lon="-118.3938615">
  <ele>-2.442</ele>
  <time>2026-09-01T01:17:01Z</time>
  <course>37.65</course>
  <speed>0.03605551275463989</speed>
  <fix>3d</fix>
</trkpt>
<trkpt lat="33.8106437" lon="-118.3938618">
  <ele>-2.37</ele>
  <time>2026-09-01T01:17:01Z</time>
  <course>148.59</course>
  <speed>0.0</speed>
  <fix>3d</fix>
</trkpt>
<trkpt lat="33.8106434" lon="-118.3938615">
  <ele>-2.442</ele>
  <time>2026-09-01T01:17:01Z</time>
  <course>38.68</course>
  <speed>0.03605551275463989</speed>
  <fix>3d</fix>
</trkpt>
<trkpt lat="33.8106437" lon="-118.3938618">
  <ele>-2.37</ele>
  <time>2026-09-01T01:17:01Z</time>
  <course>148.59</course>
  <speed>0.0</speed>
  <fix>3d</fix>
</trkpt>
<trkpt lat="33.8106434" lon="-118.3938615">
  <ele>-2.443</ele>
  <time>2026-09-01T01:17:01Z</time>
  <course>39.7</course>
  <speed>0.03605551275463989</speed>
  <fix>3d</fix>
</trkpt>
<trkpt lat="33.8106437" lon="-118.3938618">
  <ele>-2.37</ele>
  <time>2026-09-01T01:17:01Z</time>
  <course>133.71</course>
  <speed>0.0</speed>
  <fix>3d</fix>
</trkpt>
<trkpt lat="33.8106434" lon="-118.3938615">
  <ele>-2.443</ele>
  <time>2026-09-01T01:17:01Z</time>
  <course>40.73</course>
  <speed>0.03605551275463989</speed>
  <fix>3d</fix>
</trkpt>
<trkpt lat="33.8106437" lon="-118.3938618">
  <ele>-2.37</ele>
  <time>2026-09-01T01:17:01Z</time>
  <course>133.71</course>
  <speed>0.0</speed>
  <fix>3d</fix>
</trkpt>
<trkpt lat="33.8106434" lon="-118.3938615">
  <ele>-2.443</ele>
  <time>2026-09-01T01:17:01Z</time>
  <course>41.76</course>
  <speed>0.03605551275463989</speed>
  <fix>3d</fix>
</trkpt>
<trkpt lat="33.8106437" lon="-118.3938618">
  <ele>-2.38</ele>
  <time>2026-09-01T01:17:01Z</time>
  <course>120.78</course>
  <speed>0.0</speed>
  <fix>3d</fix>
</trkpt>
<trkpt lat="33.8106434" lon="-118.3938615">
  <ele>-2.443</ele>
  <time>2026-09-01T01:17:01Z</time>
  <course>42.78</course>
  <speed>0.03605551275463989</speed>
  <fix>3d</fix>
</trkpt>
<trkpt lat="33.8106437" lon="-118.3938618">
  <ele>-2.38</ele>
  <time>2026-09-01T01:17:01Z</time>
  <course>120.78</course>
  <speed>0.0</speed>
  <fix>3d</fix>
</trkpt>
<trkpt lat="33.8106434" lon="-118.3938615">
  <ele>-2.442</ele>
  <time>2026-09-01T01:17:01Z</time>
  <course>43.82</course>
  <speed>0.03605551275463989</speed>
  <fix>3d</fix>
</trkpt>
<trkpt lat="33.8106437" lon="-118.3938618">
  <ele>-2.38</ele>
  <time>2026-09-01T01:17:01Z</time>
  <course>114.38</course>
  <speed>0.0</speed>
  <fix>3d</fix>
</trkpt>
<trkpt lat="33.8106434" lon="-118.3938615">
  <ele>-2.441</ele>
  <time>2026-09-01T01:17:01Z</time>
  <course>44.85</course>
  <speed>0.03605551275463989</speed>
  <fix>3d</fix>
</trkpt>
<trkpt lat="33.8106437" lon="-118.3938618">
  <ele>-2.38</ele>
  <time>2026-09-01T01:17:01Z</time>
  <course>114.38</course>
  <speed>0.0</speed>
  <fix>3d</fix>
</trkpt>
<trkpt lat="33.8106434" lon="-118.3938615">
  <ele>-2.442</ele>
  <time>2026-09-01T01:17:01Z</time>
  <course>45.88</course>
  <speed>0.03605551275463989</speed>
  <fix>3d</fix>
</trkpt>
<trkpt lat="33.8106437" lon="-118.3938618">
  <ele>-2.38</ele>
  <time>2026-09-01T01:17:01Z</time>
  <course>112.73</course>
  <speed>0.0</speed>
  <fix>3d</fix>
</trkpt>
<trkpt lat="33.8106434" lon="-118.3938615">
  <ele>-2.444</ele>
  <time>2026-09-01T01:17:01Z</time>
  <course>46.91</course>
  <speed>0.03605551275463989</speed>
  <fix>3d</fix>
</trkpt>
<trkpt lat="33.8106437" lon="-118.3938618">
  <ele>-2.38</ele>
  <time>2026-09-01T01:17:01Z</time>
  <course>112.73</course>
  <speed>0.0</speed>
  <fix>3d</fix>
</trkpt>
<trkpt lat="33.8106434" lon="-118.3938615">
  <ele>-2.446</ele>
  <time>2026-09-01T01:17:01Z</time>
  <course>47.93</course>
  <speed>0.03605551275463989</speed>
  <fix>3d</fix>
</trkpt>
<trkpt lat="33.8106437" lon="-118.3938618">
  <ele>-2.38</ele>
  <time>2026-09-01T01:17:01Z</time>
  <course>112.04</course>
  <speed>0.0</speed>
  <fix>3d</fix>
</trkpt>
<trkpt lat="33.8106434" lon="-118.3938615">
  <ele>-2.449</ele>
  <time>2026-09-01T01:17:01Z</time>
  <course>48.96</course>
  <speed>0.03605551275463989</speed>
  <fix>3d</fix>
</trkpt>
<trkpt lat="33.8106437" lon="-118.3938618">
  <ele>-2.38</ele>
  <time>2026-09-01T01:17:01Z</time>
  <course>112.04</course>
  <speed>0.0</speed>
  <fix>3d</fix>
</trkpt>
<trkpt lat="33.8106434" lon="-118.3938615">
  <ele>-2.451</ele>
  <time>2026-09-01T01:17:01Z</time>
  <course>49.99</course>
  <speed>0.03605551275463989</speed>
  <fix>3d</fix>
</trkpt>
<trkpt lat="33.8106437" lon="-118.3938618">
  <ele>-2.39</ele>
  <time>2026-09-01T01:17:01Z</time>
  <course>111.5</course>
  <speed>0.0</speed>
  <fix>3d</fix>
</trkpt>
<trkpt lat="33.8106434" lon="-118.3938615">
  <ele>-2.453</ele>
  <time>2026-09-01T01:17:01Z</time>
  <course>51.02</course>
  <speed>0.03605551275463989</speed>
  <fix>3d</fix>
</trkpt>
<trkpt lat="33.8106437" lon="-118.3938618">
  <ele>-2.39</ele>
  <time>2026-09-01T01:17:01Z</time>
  <course>111.5</course>
  <speed>0.0</speed>
  <fix>3d</fix>
</trkpt>
<trkpt lat="33.8106434" lon="-118.3938615">
  <ele>-2.453</ele>
  <time>2026-09-01T01:17:01Z</time>
  <course>52.05</course>
  <speed>0.03605551275463989</speed>
  <fix>3d</fix>
</trkpt>
<trkpt lat="33.8106437" lon="-118.3938618">
  <ele>-2.39</ele>
  <time>2026-09-01T01:17:01Z</time>
  <course>110.93</course>
  <speed>0.0</speed>
  <fix>3d</fix>
</trkpt>
<trkpt lat="33.8106434" lon="-118.3938615">
  <ele>-2.453</ele>
  <time>2026-09-01T01:17:01Z</time>
  <course>53.07</course>
  <speed>0.03605551275463989</speed>
  <fix>3d</fix>
</trkpt>
<trkpt lat="33.8106437" lon="-118.3938618">
  <ele>-2.39</ele>
  <time>2026-09-01T01:17:01Z</time>
  <course>110.93</course>
  <speed>0.0</speed>
  <fix>3d</fix>
</trkpt>
<trkpt lat="33.8106434" lon="-118.3938615">
  <ele>-2.453</ele>
  <time>2026-09-01T01:17:01Z</time>
  <course>54.1</course>
  <speed>0.03605551275463989</speed>
  <fix>3d</fix>
</trkpt>
<trkpt lat="33.8106437" lon="-118.3938618">
  <ele>-2.39</ele>
  <time>2026-09-01T01:17:01Z</time>
  <course>109.85</course>
  <speed>0.0</speed>
  <fix>3d</fix>
</trkpt>
<trkpt lat="33.8106434" lon="-118.3938615">
  <ele>-2.451</ele>
  <time>2026-09-01T01:17:01Z</time>
  <course>55.12</course>
  <speed>0.03605551275463989</speed>
  <fix>3d</fix>
</trkpt>
<trkpt lat="33.8106437" lon="-118.3938618">
  <ele>-2.39</ele>
  <time>2026-09-01T01:17:01Z</time>
  <course>109.85</course>
  <speed>0.0</speed>
  <fix>3d</fix>
</trkpt>
<trkpt lat="33.8106434" lon="-118.3938615">
  <ele>-2.449</ele>
  <time>2026-09-01T01:17:01Z</time>
  <course>56.16</course>
  <speed>0.03605551275463989</speed>
  <fix>3d</fix>
</trkpt>
<trkpt lat="33.8106437" lon="-118.3938618">
  <ele>-2.39</ele>
  <time>2026-09-01T01:17:01Z</time>
  <course>108.91</course>
  <speed>0.0</speed>
  <fix>3d</fix>
</trkpt>
<trkpt lat="33.8106434" lon="-118.3938615">
  <ele>-2.446</ele>
  <time>2026-09-01T01:17:01Z</time>
  <course>57.07</course>
  <speed>0.03605551275463989</speed>
  <fix>3d</fix>
</trkpt>
<trkpt lat="33.8106437" lon="-118.3938618">
  <ele>-2.39</ele>
  <time>2026-09-01T01:17:01Z</time>
  <course>108.91</course>
  <speed>0.0</speed>
  <fix>3d</fix>
</trkpt>
<trkpt lat="33.8106434" lon="-118.3938615">
  <ele>-2.443</ele>
  <time>2026-09-01T01:17:01Z</time>
  <course>57.72</course>
  <speed>0.03605551275463989</speed>
  <fix>3d</fix>
</trkpt>
<trkpt lat="33.8106437" lon="-118.3938618">
  <ele>-2.38</ele>
  <time>2026-09-01T01:17:01Z</time>
  <course>108.38</course>
  <speed>0.0</speed>
  <fix>3d</fix>
</trkpt>
<trkpt lat="33.8106434" lon="-118.3938615">
  <ele>-2.441</ele>
  <time>2026-09-01T01:17:02Z</time>
  <course>58.21</course>
  <speed>0.03605551275463989</speed>
  <fix>3d</fix>
</trkpt>
<trkpt lat="33.8106437" lon="-118.3938618">
  <ele>-2.38</ele>
  <time>2026-09-01T01:17:02Z</time>
  <course>108.38</course>
  <speed>0.0</speed>
  <fix>3d</fix>
</trkpt>
<trkpt lat="33.8106434" lon="-118.3938615">
  <ele>-2.441</ele>
  <time>2026-09-01T01:17:02Z</time>
  <course>58.62</course>
  <speed>0.03605551275463989</speed>
  <fix>3d</fix>
</trkpt>
<trkpt lat="33.8106437" lon="-118.3938618">
  <ele>-2.38</ele>
  <time>2026-09-01T01:17:02Z</time>
  <course>108.42</course>
  <speed>0.0</speed>
  <fix>3d</fix>
</trkpt>
<trkpt lat="33.8106434" lon="-118.3938615">
  <ele>-2.441</ele>
  <time>2026-09-01T01:17:02Z</time>
  <course>58.96</course>
  <speed>0.03605551275463989</speed>
  <fix>3d</fix>
</trkpt>
<trkpt lat="33.8106437" lon="-118.3938618">
  <ele>-2.38</ele>
  <time>2026-09-01T01:17:02Z</time>
  <course>108.42</course>
  <speed>0.0</speed>
  <fix>3d</fix>
</trkpt>
<trkpt lat="33.8106434" lon="-118.3938615">
  <ele>-2.442</ele>
  <time>2026-09-01T01:17:02Z</time>
  <course>59.25</course>
  <speed>0.03605551275463989</speed>
  <fix>3d</fix>
</trkpt>
<trkpt lat="33.8106437" lon="-118.3938618">
  <ele>-2.38</ele>
  <time>2026-09-01T01:17:02Z</time>
  <course>108.94</course>
  <speed>0.0</speed>
  <fix>3d</fix>
</trkpt>
<trkpt lat="33.8106434" lon="-118.3938615">
  <ele>-2.443</ele>
  <time>2026-09-01T01:17:02Z</time>
  <course>59.51</course>
  <speed>0.03605551275463989</speed>
  <fix>3d</fix>
</trkpt>
<trkpt lat="33.8106437" lon="-118.3938618">
  <ele>-2.38</ele>
  <time>2026-09-01T01:17:02Z</time>
  <course>108.94</course>
  <speed>0.0</speed>
  <fix>3d</fix>
</trkpt>
<trkpt lat="33.8106434" lon="-118.3938615">
  <ele>-2.443</ele>
  <time>2026-09-01T01:17:02Z</time>
  <course>59.74</course>
  <speed>0.03605551275463989</speed>
  <fix>3d</fix>
</trkpt>
<trkpt lat="33.8106437" lon="-118.3938618">
  <ele>-2.38</ele>
  <time>2026-09-01T01:17:02Z</time>
  <course>109.4</course>
  <speed>0.0</speed>
  <fix>3d</fix>
</trkpt>
<trkpt lat="33.8106434" lon="-118.3938615">
  <ele>-2.444</ele>
  <time>2026-09-01T01:17:02Z</time>
  <course>59.95</course>
  <speed>0.03605551275463989</speed>
  <fix>3d</fix>
</trkpt>
<trkpt lat="33.8106437" lon="-118.3938618">
  <ele>-2.38</ele>
  <time>2026-09-01T01:17:02Z</time>
  <course>109.4</course>
  <speed>0.0</speed>
  <fix>3d</fix>
</trkpt>
<trkpt lat="33.8106434" lon="-118.3938615">
  <ele>-2.445</ele>
  <time>2026-09-01T01:17:02Z</time>
  <course>60.14</course>
  <speed>0.03605551275463989</speed>
  <fix>3d</fix>
</trkpt>
<trkpt lat="33.8106437" lon="-118.3938617">
  <ele>-2.39</ele>
  <time>2026-09-01T01:17:02Z</time>
  <course>109.56</course>
  <speed>0.0</speed>
  <fix>3d</fix>
</trkpt>
<trkpt lat="33.8106434" lon="-118.3938615">
  <ele>-2.447</ele>
  <time>2026-09-01T01:17:02Z</time>
  <course>60.32</course>
  <speed>0.03605551275463989</speed>
  <fix>3d</fix>
</trkpt>
<trkpt lat="33.8106437" lon="-118.3938617">
  <ele>-2.39</ele>
  <time>2026-09-01T01:17:02Z</time>
  <course>109.56</course>
  <speed>0.0</speed>
  <fix>3d</fix>
</trkpt>
<trkpt lat="33.8106434" lon="-118.3938615">
  <ele>-2.448</ele>
  <time>2026-09-01T01:17:02Z</time>
  <course>60.48</course>
  <speed>0.03605551275463989</speed>
  <fix>3d</fix>
</trkpt>
<trkpt lat="33.8106437" lon="-118.3938616">
  <ele>-2.39</ele>
  <time>2026-09-01T01:17:02Z</time>
  <course>109.55</course>
  <speed>0.0</speed>
  <fix>3d</fix>
</trkpt>
<trkpt lat="33.8106434" lon="-118.3938615">
  <ele>-2.448</ele>
  <time>2026-09-01T01:17:02Z</time>
  <course>60.63</course>
  <speed>0.03605551275463989</speed>
  <fix>3d</fix>
</trkpt>
<trkpt lat="33.8106437" lon="-118.3938616">
  <ele>-2.39</ele>
  <time>2026-09-01T01:17:02Z</time>
  <course>109.55</course>
  <speed>0.0</speed>
  <fix>3d</fix>
</trkpt>
<trkpt lat="33.8106434" lon="-118.3938615">
  <ele>-2.448</ele>
  <time>2026-09-01T01:17:02Z</time>
  <course>60.77</course>
  <speed>0.03605551275463989</speed>
  <fix>3d</fix>
</trkpt>
<trkpt lat="33.8106437" lon="-118.3938616">
  <ele>-2.39</ele>
  <time>2026-09-01T01:17:02Z</time>
  <course>109.48</course>
  <speed>0.0</speed>
  <fix>3d</fix>
</trkpt>
<trkpt lat="33.8106434" lon="-118.3938615">
  <ele>-2.449</ele>
  <time>2026-09-01T01:17:02Z</time>
  <course>60.9</course>
  <speed>0.03605551275463989</speed>
  <fix>3d</fix>
</trkpt>
<trkpt lat="33.8106437" lon="-118.3938616">
  <ele>-2.39</ele>
  <time>2026-09-01T01:17:02Z</time>
  <course>109.48</course>
  <speed>0.0</speed>
  <fix>3d</fix>
</trkpt>
<trkpt lat="33.8106434" lon="-118.3938615">
  <ele>-2.451</ele>
  <time>2026-09-01T01:17:02Z</time>
  <course>61.03</course>
  <speed>0.03605551275463989</speed>
  <fix>3d</fix>
</trkpt>
<trkpt lat="33.8106437" lon="-118.3938616">
  <ele>-2.4</ele>
  <time>2026-09-01T01:17:02Z</time>
  <course>109.53</course>
  <speed>0.0</speed>
  <fix>3d</fix>
</trkpt>
<trkpt lat="33.8106434" lon="-118.3938615">
  <ele>-2.452</ele>
  <time>2026-09-01T01:17:02Z</time>
  <course>61.14</course>
  <speed>0.03605551275463989</speed>
  <fix>3d</fix>
</trkpt>
<trkpt lat="33.8106437" lon="-118.3938616">
  <ele>-2.4</ele>
  <time>2026-09-01T01:17:02Z</time>
  <course>109.53</course>
  <speed>0.0</speed>
  <fix>3d</fix>
</trkpt>
<trkpt lat="33.8106434" lon="-118.3938615">
  <ele>-2.453</ele>
  <time>2026-09-01T01:17:02Z</time>
  <course>61.25</course>
  <speed>0.03605551275463989</speed>
  <fix>3d</fix>
</trkpt>
<trkpt lat="33.8106437" lon="-118.3938616">
  <ele>-2.39</ele>
  <time>2026-09-01T01:17:02Z</time>
  <course>109.61</course>
  <speed>0.0</speed>
  <fix>3d</fix>
</trkpt>
<trkpt lat="33.8106434" lon="-118.3938615">
  <ele>-2.453</ele>
  <time>2026-09-01T01:17:02Z</time>
  <course>61.36</course>
  <speed>0.03605551275463989</speed>
  <fix>3d</fix>
</trkpt>
<trkpt lat="33.8106437" lon="-118.3938616">
  <ele>-2.39</ele>
  <time>2026-09-01T01:17:02Z</time>
  <course>109.61</course>
  <speed>0.0</speed>
  <fix>3d</fix>
</trkpt>
<trkpt lat="33.8106434" lon="-118.3938615">
  <ele>-2.453</ele>
  <time>2026-09-01T01:17:02Z</time>
  <course>61.46</course>
  <speed>0.03605551275463989</speed>
  <fix>3d</fix>
</trkpt>
<trkpt lat="33.8106437" lon="-118.3938616">
  <ele>-2.39</ele>
  <time>2026-09-01T01:17:02Z</time>
  <course>109.63</course>
  <speed>0.0</speed>
  <fix>3d</fix>
</trkpt>
<trkpt lat="33.8106434" lon="-118.3938615">
  <ele>-2.452</ele>
  <time>2026-09-01T01:17:02Z</time>
  <course>61.56</course>
  <speed>0.0316227766016838</speed>
  <fix>3d</fix>
</trkpt>
<trkpt lat="33.8106437" lon="-118.3938616">
  <ele>-2.39</ele>
  <time>2026-09-01T01:17:02Z</time>
  <course>109.63</course>
  <speed>0.0</speed>
  <fix>3d</fix>
</trkpt>
<trkpt lat="33.8106434" lon="-118.3938615">
  <ele>-2.451</ele>
  <time>2026-09-01T01:17:02Z</time>
  <course>61.58</course>
  <speed>0.0316227766016838</speed>
  <fix>3d</fix>
</trkpt>
<trkpt lat="33.8106437" lon="-118.3938616">
  <ele>-2.39</ele>
  <time>2026-09-01T01:17:02Z</time>
  <course>109.84</course>
  <speed>0.0</speed>
  <fix>3d</fix>
</trkpt>
<trkpt lat="33.8106434" lon="-118.3938615">
  <ele>-2.45</ele>
  <time>2026-09-01T01:17:02Z</time>
  <course>61.26</course>
  <speed>0.0316227766016838</speed>
  <fix>3d</fix>
</trkpt>
<trkpt lat="33.8106437" lon="-118.3938616">
  <ele>-2.39</ele>
  <time>2026-09-01T01:17:02Z</time>
  <course>109.84</course>
  <speed>0.0</speed>
  <fix>3d</fix>
</trkpt>
<trkpt lat="33.8106434" lon="-118.3938615">
  <ele>-2.449</ele>
  <time>2026-09-01T01:17:02Z</time>
  <course>60.59</course>
  <speed>0.0316227766016838</speed>
  <fix>3d</fix>
</trkpt>
<trkpt lat="33.8106437" lon="-118.3938616">
  <ele>-2.38</ele>
  <time>2026-09-01T01:17:02Z</time>
  <course>110.15</course>
  <speed>0.0</speed>
  <fix>3d</fix>
</trkpt>
<trkpt lat="33.8106434" lon="-118.3938615">
  <ele>-2.448</ele>
  <time>2026-09-01T01:17:02Z</time>
  <course>59.73</course>
  <speed>0.0316227766016838</speed>
  <fix>3d</fix>
</trkpt>
<trkpt lat="33.8106437" lon="-118.3938616">
  <ele>-2.38</ele>
  <time>2026-09-01T01:17:02Z</time>
  <course>110.15</course>
  <speed>0.0</speed>
  <fix>3d</fix>
</trkpt>
<trkpt lat="33.8106434" lon="-118.3938615">
  <ele>-2.446</ele>
  <time>2026-09-01T01:17:02Z</time>
  <course>58.78</course>
  <speed>0.0316227766016838</speed>
  <fix>3d</fix>
</trkpt>
<trkpt lat="33.8106437" lon="-118.3938616">
  <ele>-2.38</ele>
  <time>2026-09-01T01:17:02Z</time>
  <course>111.36</course>
  <speed>0.0</speed>
  <fix>3d</fix>
</trkpt>
<trkpt lat="33.8106434" lon="-118.3938615">
  <ele>-2.444</ele>
  <time>2026-09-01T01:17:02Z</time>
  <course>57.8</course>
  <speed>0.0316227766016838</speed>
  <fix>3d</fix>
</trkpt>
<trkpt lat="33.8106437" lon="-118.3938616">
  <ele>-2.38</ele>
  <time>2026-09-01T01:17:02Z</time>
  <course>111.36</course>
  <speed>0.0</speed>
  <fix>3d</fix>
</trkpt>
<trkpt lat="33.8106434" lon="-118.3938615">
  <ele>-2.442</ele>
  <time>2026-09-01T01:17:02Z</time>
  <course>56.79</course>
  <speed>0.0316227766016838</speed>
  <fix>3d</fix>
</trkpt>
<trkpt lat="33.8106437" lon="-118.3938616">
  <ele>-2.38</ele>
  <time>2026-09-01T01:17:02Z</time>
  <course>110.31</course>
  <speed>0.0</speed>
  <fix>3d</fix>
</trkpt>
<trkpt lat="33.8106434" lon="-118.3938615">
  <ele>-2.441</ele>
  <time>2026-09-01T01:17:02Z</time>
  <course>55.78</course>
  <speed>0.0316227766016838</speed>
  <fix>3d</fix>
</trkpt>
<trkpt lat="33.8106437" lon="-118.3938616">
  <ele>-2.38</ele>
  <time>2026-09-01T01:17:02Z</time>
  <course>110.31</course>
  <speed>0.0</speed>
  <fix>3d</fix>
</trkpt>
<trkpt lat="33.8106434" lon="-118.3938615">
  <ele>-2.44</ele>
  <time>2026-09-01T01:17:02Z</time>
  <course>54.74</course>
  <speed>0.0316227766016838</speed>
  <fix>3d</fix>
</trkpt>
<trkpt lat="33.8106437" lon="-118.3938616">
  <ele>-2.38</ele>
  <time>2026-09-01T01:17:02Z</time>
  <course>107.63</course>
  <speed>0.0</speed>
  <fix>3d</fix>
</trkpt>
<trkpt lat="33.8106434" lon="-118.3938615">
  <ele>-2.442</ele>
  <time>2026-09-01T01:17:02Z</time>
  <course>53.72</course>
  <speed>0.0316227766016838</speed>
  <fix>3d</fix>
</trkpt>
<trkpt lat="33.8106437" lon="-118.3938616">
  <ele>-2.38</ele>
  <time>2026-09-01T01:17:02Z</time>
  <course>107.63</course>
  <speed>0.0</speed>
  <fix>3d</fix>
</trkpt>
<trkpt lat="33.8106434" lon="-118.3938615">
  <ele>-2.444</ele>
  <time>2026-09-01T01:17:02Z</time>
  <course>52.67</course>
  <speed>0.0316227766016838</speed>
  <fix>3d</fix>
</trkpt>
<trkpt lat="33.8106437" lon="-118.3938616">
  <ele>-2.38</ele>
  <time>2026-09-01T01:17:02Z</time>
  <course>105.66</course>
  <speed>0.0</speed>
  <fix>3d</fix>
</trkpt>
<trkpt lat="33.8106434" lon="-118.3938615">
  <ele>-2.445</ele>
  <time>2026-09-01T01:17:02Z</time>
  <course>51.64</course>
  <speed>0.0316227766016838</speed>
  <fix>3d</fix>
</trkpt>
<trkpt lat="33.8106437" lon="-118.3938616">
  <ele>-2.38</ele>
  <time>2026-09-01T01:17:02Z</time>
  <course>105.66</course>
  <speed>0.0</speed>
  <fix>3d</fix>
</trkpt>
<trkpt lat="33.8106434" lon="-118.3938615">
  <ele>-2.446</ele>
  <time>2026-09-01T01:17:02Z</time>
  <course>50.59</course>
  <speed>0.0316227766016838</speed>
  <fix>3d</fix>
</trkpt>
<trkpt lat="33.8106437" lon="-118.3938616">
  <ele>-2.38</ele>
  <time>2026-09-01T01:17:02Z</time>
  <course>103.58</course>
  <speed>0.0</speed>
  <fix>3d</fix>
</trkpt>
<trkpt lat="33.8106434" lon="-118.3938615">
  <ele>-2.447</ele>
  <time>2026-09-01T01:17:02Z</time>
  <course>49.55</course>
  <speed>0.0316227766016838</speed>
  <fix>3d</fix>
</trkpt>
<trkpt lat="33.8106437" lon="-118.3938616">
  <ele>-2.38</ele>
  <time>2026-09-01T01:17:02Z</time>
  <course>103.58</course>
  <speed>0.0</speed>
  <fix>3d</fix>
</trkpt>
<trkpt lat="33.8106434" lon="-118.3938615">
  <ele>-2.447</ele>
  <time>2026-09-01T01:17:02Z</time>
  <course>48.5</course>
  <speed>0.0316227766016838</speed>
  <fix>3d</fix>
</trkpt>
<trkpt lat="33.8106437" lon="-118.3938616">
  <ele>-2.38</ele>
  <time>2026-09-01T01:17:02Z</time>
  <course>101.62</course>
  <speed>0.0</speed>
  <fix>3d</fix>
</trkpt>
<trkpt lat="33.8106434" lon="-118.3938615">
  <ele>-2.447</ele>
  <time>2026-09-01T01:17:02Z</time>
  <course>47.46</course>
  <speed>0.0316227766016838</speed>
  <fix>3d</fix>
</trkpt>
<trkpt lat="33.8106437" lon="-118.3938616">
  <ele>-2.38</ele>
  <time>2026-09-01T01:17:02Z</time>
  <course>101.62</course>
  <speed>0.0</speed>
  <fix>3d</fix>
</trkpt>
<trkpt lat="33.8106434" lon="-118.3938615">
  <ele>-2.446</ele>
  <time>2026-09-01T01:17:02Z</time>
  <course>46.41</course>
  <speed>0.0316227766016838</speed>
  <fix>3d</fix>
</trkpt>
<trkpt lat="33.8106437" lon="-118.3938616">
  <ele>-2.38</ele>
  <time>2026-09-01T01:17:02Z</time>
  <course>99.86</course>
  <speed>0.01</speed>
  <fix>3d</fix>
</trkpt>
<trkpt lat="33.8106434" lon="-118.3938615">
  <ele>-2.445</ele>
  <time>2026-09-01T01:17:02Z</time>
  <course>45.36</course>
  <speed>0.0316227766016838</speed>
  <fix>3d</fix>
</trkpt>
<trkpt lat="33.8106437" lon="-118.3938616">
  <ele>-2.38</ele>
  <time>2026-09-01T01:17:02Z</time>
  <course>99.86</course>
  <speed>0.01</speed>
  <fix>3d</fix>
</trkpt>
<trkpt lat="33.8106434" lon="-118.3938615">
  <ele>-2.444</ele>
  <time>2026-09-01T01:17:02Z</time>
  <course>44.31</course>
  <speed>0.0316227766016838</speed>
  <fix>3d</fix>
</trkpt>
<trkpt lat="33.8106437" lon="-118.3938615">
  <ele>-2.38</ele>
  <time>2026-09-01T01:17:02Z</time>
  <course>98.47</course>
  <speed>0.01</speed>
  <fix>3d</fix>
</trkpt>
<trkpt lat="33.8106434" lon="-118.3938615">
  <ele>-2.444</ele>
  <time>2026-09-01T01:17:02Z</time>
  <course>43.24</course>
  <speed>0.0316227766016838</speed>
  <fix>3d</fix>
</trkpt>
<trkpt lat="33.8106437" lon="-118.3938615">
  <ele>-2.38</ele>
  <time>2026-09-01T01:17:02Z</time>
  <course>98.47</course>
  <speed>0.01</speed>
  <fix>3d</fix>
</trkpt>
<trkpt lat="33.8106434" lon="-118.3938615">
  <ele>-2.444</ele>
  <time>2026-09-01T01:17:02Z</time>
  <course>42.18</course>
  <speed>0.0316227766016838</speed>
  <fix>3d</fix>
</trkpt>
<trkpt lat="33.8106437" lon="-118.3938615">
  <ele>-2.38</ele>
  <time>2026-09-01T01:17:02Z</time>
  <course>97.8</course>
  <speed>0.01</speed>
  <fix>3d</fix>
</trkpt>
<trkpt lat="33.8106434" lon="-118.3938615">
  <ele>-2.445</ele>
  <time>2026-09-01T01:17:02Z</time>
  <course>41.13</course>
  <speed>0.03</speed>
  <fix>3d</fix>
</trkpt>
<trkpt lat="33.8106437" lon="-118.3938615">
  <ele>-2.38</ele>
  <time>2026-09-01T01:17:02Z</time>
  <course>97.8</course>
  <speed>0.01</speed>
  <fix>3d</fix>
</trkpt>
<trkpt lat="33.8106434" lon="-118.3938615">
  <ele>-2.448</ele>
  <time>2026-09-01T01:17:02Z</time>
  <course>40.08</course>
  <speed>0.03</speed>
  <fix>3d</fix>
</trkpt>
<trkpt lat="33.8106437" lon="-118.3938615">
  <ele>-2.39</ele>
  <time>2026-09-01T01:17:02Z</time>
  <course>97.81</course>
  <speed>0.01</speed>
  <fix>3d</fix>
</trkpt>
<trkpt lat="33.8106434" lon="-118.3938615">
  <ele>-2.451</ele>
  <time>2026-09-01T01:17:02Z</time>
  <course>39.02</course>
  <speed>0.03</speed>
  <fix>3d</fix>
</trkpt>
<trkpt lat="33.8106437" lon="-118.3938615">
  <ele>-2.39</ele>
  <time>2026-09-01T01:17:02Z</time>
  <course>97.81</course>
  <speed>0.01</speed>
  <fix>3d</fix>
</trkpt>
<trkpt lat="33.8106434" lon="-118.3938614">
  <ele>-2.452</ele>
  <time>2026-09-01T01:17:02Z</time>
  <course>37.98</course>
  <speed>0.03</speed>
  <fix>3d</fix>
</trkpt>
<trkpt lat="33.8106437" lon="-118.3938614">
  <ele>-2.39</ele>
  <time>2026-09-01T01:17:02Z</time>
  <course>98.01</course>
  <speed>0.01</speed>
  <fix>3d</fix>
</trkpt>
<trkpt lat="33.8106434" lon="-118.3938614">
  <ele>-2.452</ele>
  <time>2026-09-01T01:17:02Z</time>
  <course>36.93</course>
  <speed>0.03</speed>
  <fix>3d</fix>
</trkpt>
<trkpt lat="33.8106437" lon="-118.3938614">
  <ele>-2.39</ele>
  <time>2026-09-01T01:17:02Z</time>
  <course>98.01</course>
  <speed>0.01</speed>
  <fix>3d</fix>
</trkpt>
<trkpt lat="33.8106434" lon="-118.3938614">
  <ele>-2.451</ele>
  <time>2026-09-01T01:17:02Z</time>
  <course>35.89</course>
  <speed>0.03</speed>
  <fix>3d</fix>
</trkpt>
<trkpt lat="33.8106437" lon="-118.3938614">
  <ele>-2.39</ele>
  <time>2026-09-01T01:17:02Z</time>
  <course>98.14</course>
  <speed>0.01</speed>
  <fix>3d</fix>
</trkpt>
<trkpt lat="33.8106434" lon="-118.3938614">
  <ele>-2.449</ele>
  <time>2026-09-01T01:17:02Z</time>
  <course>34.85</course>
  <speed>0.03</speed>
  <fix>3d</fix>
</trkpt>
<trkpt lat="33.8106437" lon="-118.3938614">
  <ele>-2.39</ele>
  <time>2026-09-01T01:17:02Z</time>
  <course>98.14</course>
  <speed>0.01</speed>
  <fix>3d</fix>
</trkpt>
<trkpt lat="33.8106434" lon="-118.3938614">
  <ele>-2.447</ele>
  <time>2026-09-01T01:17:02Z</time>
  <course>33.81</course>
  <speed>0.03</speed>
  <fix>3d</fix>
</trkpt>
<trkpt lat="33.8106437" lon="-118.3938614">
  <ele>-2.38</ele>
  <time>2026-09-01T01:17:02Z</time>
  <course>98.62</course>
  <speed>0.01</speed>
  <fix>3d</fix>
</trkpt>
<trkpt lat="33.8106434" lon="-118.3938614">
  <ele>-2.445</ele>
  <time>2026-09-01T01:17:02Z</time>
  <course>32.78</course>
  <speed>0.03</speed>
  <fix>3d</fix>
</trkpt>
<trkpt lat="33.8106437" lon="-118.3938614">
  <ele>-2.38</ele>
  <time>2026-09-01T01:17:02Z</time>
  <course>98.62</course>
  <speed>0.01</speed>
  <fix>3d</fix>
</trkpt>
<trkpt lat="33.8106434" lon="-118.3938614">
  <ele>-2.444</ele>
  <time>2026-09-01T01:17:02Z</time>
  <course>31.74</course>
  <speed>0.03</speed>
  <fix>3d</fix>
</trkpt>
<trkpt lat="33.8106437" lon="-118.3938614">
  <ele>-2.38</ele>
  <time>2026-09-01T01:17:02Z</time>
  <course>99.57</course>
  <speed>0.01</speed>
  <fix>3d</fix>
</trkpt>
<trkpt lat="33.8106434" lon="-118.3938614">
  <ele>-2.443</ele>
  <time>2026-09-01T01:17:02Z</time>
  <course>30.7</course>
  <speed>0.03</speed>
  <fix>3d</fix>
</trkpt>
<trkpt lat="33.8106437" lon="-118.3938614">
  <ele>-2.38</ele>
  <time>2026-09-01T01:17:02Z</time>
  <course>99.57</course>
  <speed>0.01</speed>
  <fix>3d</fix>
</trkpt>
<trkpt lat="33.8106434" lon="-118.3938614">
  <ele>-2.444</ele>
  <time>2026-09-01T01:17:02Z</time>
  <course>29.66</course>
  <speed>0.03</speed>
  <fix>3d</fix>
</trkpt>
<trkpt lat="33.8106437" lon="-118.3938613">
  <ele>-2.38</ele>
  <time>2026-09-01T01:17:02Z</time>
  <course>100.28</course>
  <speed>0.01</speed>
  <fix>3d</fix>
</trkpt>
<trkpt lat="33.8106434" lon="-118.3938614">
  <ele>-2.444</ele>
  <time>2026-09-01T01:17:02Z</time>
  <course>28.63</course>
  <speed>0.03</speed>
  <fix>3d</fix>
</trkpt>
<trkpt lat="33.8106437" lon="-118.3938613">
  <ele>-2.38</ele>
  <time>2026-09-01T01:17:02Z</time>
  <course>100.28</course>
  <speed>0.01</speed>
  <fix>3d</fix>
</trkpt>
<trkpt lat="33.8106434" lon="-118.3938614">
  <ele>-2.446</ele>
  <time>2026-09-01T01:17:02Z</time>
  <course>27.6</course>
  <speed>0.03</speed>
  <fix>3d</fix>
</trkpt>
<trkpt lat="33.8106437" lon="-118.3938613">
  <ele>-2.38</ele>
  <time>2026-09-01T01:17:02Z</time>
  <course>101.16</course>
  <speed>0.0</speed>
  <fix>3d</fix>
</trkpt>
<trkpt lat="33.8106434" lon="-118.3938614">
  <ele>-2.447</ele>
  <time>2026-09-01T01:17:02Z</time>
  <course>26.57</course>
  <speed>0.03</speed>
  <fix>3d</fix>
</trkpt>
<trkpt lat="33.8106437" lon="-118.3938613">
  <ele>-2.38</ele>
  <time>2026-09-01T01:17:02Z</time>
  <course>101.16</course>
  <speed>0.0</speed>
  <fix>3d</fix>
</trkpt>
<trkpt lat="33.8106434" lon="-118.3938614">
  <ele>-2.448</ele>
  <time>2026-09-01T01:17:02Z</time>
  <course>25.53</course>
  <speed>0.03</speed>
  <fix>3d</fix>
</trkpt>
<trkpt lat="33.8106437" lon="-118.3938613">
  <ele>-2.38</ele>
  <time>2026-09-01T01:17:02Z</time>
  <course>102.3</course>
  <speed>0.0</speed>
  <fix>3d</fix>
</trkpt>
<trkpt lat="33.8106434" lon="-118.3938614">
  <ele>-2.448</ele>
  <time>2026-09-01T01:17:02Z</time>
  <course>24.5</course>
  <speed>0.03</speed>
  <fix>3d</fix>
</trkpt>
<trkpt lat="33.8106437" lon="-118.3938613">
  <ele>-2.38</ele>
  <time>2026-09-01T01:17:02Z</time>
  <course>102.3</course>
  <speed>0.0</speed>
  <fix>3d</fix>
</trkpt>
<trkpt lat="33.8106434" lon="-118.3938614">
  <ele>-2.448</ele>
  <time>2026-09-01T01:17:02Z</time>
  <course>23.47</course>
  <speed>0.03</speed>
  <fix>3d</fix>
</trkpt>
<trkpt lat="33.8106437" lon="-118.3938613">
  <ele>-2.38</ele>
  <time>2026-09-01T01:17:02Z</time>
  <course>102.7</course>
  <speed>0.0</speed>
  <fix>3d</fix>
</trkpt>
<trkpt lat="33.8106434" lon="-118.3938614">
  <ele>-2.446</ele>
  <time>2026-09-01T01:17:02Z</time>
  <course>22.43</course>
  <speed>0.03</speed>
  <fix>3d</fix>
</trkpt>
<trkpt lat="33.8106437" lon="-118.3938613">
  <ele>-2.38</ele>
  <time>2026-09-01T01:17:02Z</time>
  <course>102.7</course>
  <speed>0.0</speed>
  <fix>3d</fix>
</trkpt>
<trkpt lat="33.8106434" lon="-118.3938614">
  <ele>-2.445</ele>
  <time>2026-09-01T01:17:02Z</time>
  <course>21.38</course>
  <speed>0.03</speed>
  <fix>3d</fix>
</trkpt>
<trkpt lat="33.8106437" lon="-118.3938613">
  <ele>-2.38</ele>
  <time>2026-09-01T01:17:02Z</time>
  <course>102.14</course>
  <speed>0.0</speed>
  <fix>3d</fix>
</trkpt>
<trkpt lat="33.8106434" lon="-118.3938614">
  <ele>-2.444</ele>
  <time>2026-09-01T01:17:02Z</time>
  <course>20.36</course>
  <speed>0.03</speed>
  <fix>3d</fix>
</trkpt>
<trkpt lat="33.8106437" lon="-118.3938613">
  <ele>-2.38</ele>
  <time>2026-09-01T01:17:02Z</time>
  <course>102.14</course>
  <speed>0.0</speed>
  <fix>3d</fix>
</trkpt>
<trkpt lat="33.8106434" lon="-118.3938614">
  <ele>-2.444</ele>
  <time>2026-09-01T01:17:02Z</time>
  <course>19.33</course>
  <speed>0.03</speed>
  <fix>3d</fix>
</trkpt>
<trkpt lat="33.8106437" lon="-118.3938613">
  <ele>-2.38</ele>
  <time>2026-09-01T01:17:02Z</time>
  <course>101.2</course>
  <speed>0.0</speed>
  <fix>3d</fix>
</trkpt>
<trkpt lat="33.8106434" lon="-118.3938614">
  <ele>-2.445</ele>
  <time>2026-09-01T01:17:02Z</time>
  <course>18.31</course>
  <speed>0.03</speed>
  <fix>3d</fix>
</trkpt>
<trkpt lat="33.8106437" lon="-118.3938613">
  <ele>-2.38</ele>
  <time>2026-09-01T01:17:02Z</time>
  <course>101.2</course>
  <speed>0.0</speed>
  <fix>3d</fix>
</trkpt>
<trkpt lat="33.8106434" lon="-118.3938614">
  <ele>-2.447</ele>
  <time>2026-09-01T01:17:02Z</time>
  <course>17.28</course>
  <speed>0.03</speed>
  <fix>3d</fix>
</trkpt>
<trkpt lat="33.8106437" lon="-118.3938612">
  <ele>-2.38</ele>
  <time>2026-09-01T01:17:02Z</time>
  <course>100.16</course>
  <speed>0.0</speed>
  <fix>3d</fix>
</trkpt>
<trkpt lat="33.8106434" lon="-118.3938614">
  <ele>-2.448</ele>
  <time>2026-09-01T01:17:02Z</time>
  <course>16.27</course>
  <speed>0.03</speed>
  <fix>3d</fix>
</trkpt>
<trkpt lat="33.8106437" lon="-118.3938612">
  <ele>-2.38</ele>
  <time>2026-09-01T01:17:02Z</time>
  <course>100.16</course>
  <speed>0.0</speed>
  <fix>3d</fix>
</trkpt>
<trkpt lat="33.8106434" lon="-118.3938614">
  <ele>-2.447</ele>
  <time>2026-09-01T01:17:02Z</time>
  <course>15.24</course>
  <speed>0.03</speed>
  <fix>3d</fix>
</trkpt>
<trkpt lat="33.8106437" lon="-118.3938612">
  <ele>-2.38</ele>
  <time>2026-09-01T01:17:02Z</time>
  <course>99.86</course>
  <speed>0.0</speed>
  <fix>3d</fix>
</trkpt>
<trkpt lat="33.8106434" lon="-118.3938614">
  <ele>-2.447</ele>
  <time>2026-09-01T01:17:02Z</time>
  <course>14.21</course>
  <speed>0.0316227766016838</speed>
  <fix>3d</fix>
</trkpt>
<trkpt lat="33.8106437" lon="-118.3938612">
  <ele>-2.38</ele>
  <time>2026-09-01T01:17:02Z</time>
  <course>99.86</course>
  <speed>0.0</speed>
  <fix>3d</fix>
</trkpt>
<trkpt lat="33.8106434" lon="-118.3938614">
  <ele>-2.447</ele>
  <time>2026-09-01T01:17:02Z</time>
  <course>13.31</course>
  <speed>0.0316227766016838</speed>
  <fix>3d</fix>
</trkpt>
<trkpt lat="33.8106437" lon="-118.3938612">
  <ele>-2.38</ele>
  <time>2026-09-01T01:17:02Z</time>
  <course>100.2</course>
  <speed>0.0</speed>
  <fix>3d</fix>
</trkpt>
<trkpt lat="33.8106434" lon="-118.3938614">
  <ele>-2.446</ele>
  <time>2026-09-01T01:17:02Z</time>
  <course>12.65</course>
  <speed>0.0316227766016838</speed>
  <fix>3d</fix>
</trkpt>
<trkpt lat="33.8106437" lon="-118.3938612">
  <ele>-2.38</ele>
  <time>2026-09-01T01:17:02Z</time>
  <course>100.2</course>
  <speed>0.0</speed>
  <fix>3d</fix>
</trkpt>
<trkpt lat="33.8106434" lon="-118.3938614">
  <ele>-2.446</ele>
  <time>2026-09-01T01:17:02Z</time>
  <course>12.15</course>
  <speed>0.0316227766016838</speed>
  <fix>3d</fix>
</trkpt>
<trkpt lat="33.8106437" lon="-118.3938612">
  <ele>-2.38</ele>
  <time>2026-09-01T01:17:02Z</time>
  <course>96.13</course>
  <speed>0.0</speed>
  <fix>3d</fix>
</trkpt>
<trkpt lat="33.8106434" lon="-118.3938614">
  <ele>-2.447</ele>
  <time>2026-09-01T01:17:02Z</time>
  <course>11.73</course>
  <speed>0.0316227766016838</speed>
  <fix>3d</fix>
</trkpt>
<trkpt lat="33.8106437" lon="-118.3938612">
  <ele>-2.38</ele>
  <time>2026-09-01T01:17:02Z</time>
  <course>96.13</course>
  <speed>0.0</speed>
  <fix>3d</fix>
</trkpt>
<trkpt lat="33.8106434" lon="-118.3938614">
  <ele>-2.447</ele>
  <time>2026-09-01T01:17:02Z</time>
  <course>11.39</course>
  <speed>0.0316227766016838</speed>
  <fix>3d</fix>
</trkpt>
<trkpt lat="33.8106437" lon="-118.3938612">
  <ele>-2.38</ele>
  <time>2026-09-01T01:17:02Z</time>
  <course>91.82</course>
  <speed>0.0</speed>
  <fix>3d</fix>
</trkpt>
<trkpt lat="33.8106434" lon="-118.3938614">
  <ele>-2.447</ele>
  <time>2026-09-01T01:17:02Z</time>
  <course>11.09</course>
  <speed>0.0316227766016838</speed>
  <fix>3d</fix>
</trkpt>
<trkpt lat="33.8106437" lon="-118.3938612">
  <ele>-2.38</ele>
  <time>2026-09-01T01:17:02Z</time>
  <course>91.82</course>
  <speed>0.0</speed>
  <fix>3d</fix>
</trkpt>
<trkpt lat="33.8106434" lon="-118.3938613">
  <ele>-2.446</ele>
  <time>2026-09-01T01:17:02Z</time>
  <course>10.83</course>
  <speed>0.0316227766016838</speed>
  <fix>3d</fix>
</trkpt>
<trkpt lat="33.8106437" lon="-118.3938612">
  <ele>-2.38</ele>
  <time>2026-09-01T01:17:02Z</time>
  <course>91.79</course>
  <speed>0.0</speed>
  <fix>3d</fix>
</trkpt>
<trkpt lat="33.8106434" lon="-118.3938613">
  <ele>-2.446</ele>
  <time>2026-09-01T01:17:02Z</time>
  <course>10.6</course>
  <speed>0.0316227766016838</speed>
  <fix>3d</fix>
</trkpt>
<trkpt lat="33.8106437" lon="-118.3938612">
  <ele>-2.38</ele>
  <time>2026-09-01T01:17:02Z</time>
  <course>91.79</course>
  <speed>0.0</speed>
  <fix>3d</fix>
</trkpt>
<trkpt lat="33.8106434" lon="-118.3938613">
  <ele>-2.447</ele>
  <time>2026-09-01T01:17:02Z</time>
  <course>10.38</course>
  <speed>0.0316227766016838</speed>
  <fix>3d</fix>
</trkpt>
<trkpt lat="33.8106437" lon="-118.3938612">
  <ele>-2.38</ele>
  <time>2026-09-01T01:17:02Z</time>
  <course>91.76</course>
  <speed>0.0</speed>
  <fix>3d</fix>
</trkpt>
<trkpt lat="33.8106434" lon="-118.3938613">
  <ele>-2.448</ele>
  <time>2026-09-01T01:17:02Z</time>
  <course>10.19</course>
  <speed>0.03</speed>
  <fix>3d</fix>
</trkpt>
<trkpt lat="33.8106437" lon="-118.3938612">
  <ele>-2.38</ele>
  <time>2026-09-01T01:17:02Z</time>
  <course>91.76</course>
  <speed>0.0</speed>
  <fix>3d</fix>
</trkpt>
<trkpt lat="33.8106434" lon="-118.3938613">
  <ele>-2.448</ele>
  <time>2026-09-01T01:17:02Z</time>
  <course>10.02</course>
  <speed>0.03</speed>
  <fix>3d</fix>
</trkpt>
<trkpt lat="33.8106437" lon="-118.3938612">
  <ele>-2.38</ele>
  <time>2026-09-01T01:17:02Z</time>
  <course>91.74</course>
  <speed>0.0</speed>
  <fix>3d</fix>
</trkpt>
<trkpt lat="33.8106434" lon="-118.3938613">
  <ele>-2.448</ele>
  <time>2026-09-01T01:17:02Z</time>
  <course>9.85</course>
  <speed>0.03</speed>
  <fix>3d</fix>
</trkpt>
<trkpt lat="33.8106437" lon="-118.3938612">
  <ele>-2.38</ele>
  <time>2026-09-01T01:17:02Z</time>
  <course>91.74</course>
  <speed>0.0</speed>
  <fix>3d</fix>
</trkpt>
<trkpt lat="33.8106434" lon="-118.3938613">
  <ele>-2.448</ele>
  <time>2026-09-01T01:17:02Z</time>
  <course>9.7</course>
  <speed>0.03</speed>
  <fix>3d</fix>
</trkpt>
<trkpt lat="33.8106437" lon="-118.3938611">
  <ele>-2.38</ele>
  <time>2026-09-01T01:17:02Z</time>
  <course>91.72</course>
  <speed>0.0</speed>
  <fix>3d</fix>
</trkpt>
<trkpt lat="33.8106434" lon="-118.3938613">
  <ele>-2.448</ele>
  <time>2026-09-01T01:17:02Z</time>
  <course>9.56</course>
  <speed>0.03</speed>
  <fix>3d</fix>
</trkpt>
<trkpt lat="33.8106437" lon="-118.3938611">
  <ele>-2.38</ele>
  <time>2026-09-01T01:17:02Z</time>
  <course>91.72</course>
  <speed>0.0</speed>
  <fix>3d</fix>
</trkpt>
<trkpt lat="33.8106434" lon="-118.3938613">
  <ele>-2.447</ele>
  <time>2026-09-01T01:17:02Z</time>
  <course>9.42</course>
  <speed>0.03</speed>
  <fix>3d</fix>
</trkpt>
<trkpt lat="33.8106437" lon="-118.3938611">
  <ele>-2.38</ele>
  <time>2026-09-01T01:17:02Z</time>
  <course>91.72</course>
  <speed>0.0</speed>
  <fix>3d</fix>
</trkpt>
<trkpt lat="33.8106434" lon="-118.3938613">
  <ele>-2.445</ele>
  <time>2026-09-01T01:17:02Z</time>
  <course>9.3</course>
  <speed>0.03</speed>
  <fix>3d</fix>
</trkpt>
<trkpt lat="33.8106437" lon="-118.3938611">
  <ele>-2.38</ele>
  <time>2026-09-01T01:17:02Z</time>
  <course>91.72</course>
  <speed>0.0</speed>
  <fix>3d</fix>
</trkpt>
<trkpt lat="33.8106434" lon="-118.3938613">
  <ele>-2.444</ele>
  <time>2026-09-01T01:17:02Z</time>
  <course>9.18</course>
  <speed>0.03</speed>
  <fix>3d</fix>
</trkpt>
<trkpt lat="33.8106437" lon="-118.3938611">
  <ele>-2.38</ele>
  <time>2026-09-01T01:17:02Z</time>
  <course>91.71</course>
  <speed>0.0</speed>
  <fix>3d</fix>
</trkpt>
<trkpt lat="33.8106434" lon="-118.3938613">
  <ele>-2.444</ele>
  <time>2026-09-01T01:17:02Z</time>
  <course>9.07</course>
  <speed>0.03</speed>
  <fix>3d</fix>
</trkpt>
<trkpt lat="33.8106437" lon="-118.3938611">
  <ele>-2.38</ele>
  <time>2026-09-01T01:17:02Z</time>
  <course>91.71</course>
  <speed>0.0</speed>
  <fix>3d</fix>
</trkpt>
<trkpt lat="33.8106434" lon="-118.3938613">
  <ele>-2.445</ele>
  <time>2026-09-01T01:17:02Z</time>
  <course>8.96</course>
  <speed>0.03</speed>
  <fix>3d</fix>
</trkpt>
<trkpt lat="33.8106437" lon="-118.3938611">
  <ele>-2.38</ele>
  <time>2026-09-01T01:17:02Z</time>
  <course>91.68</course>
  <speed>0.0</speed>
  <fix>3d</fix>
</trkpt>
<trkpt lat="33.8106434" lon="-118.3938613">
  <ele>-2.445</ele>
  <time>2026-09-01T01:17:02Z</time>
  <course>8.86</course>
  <speed>0.03</speed>
  <fix>3d</fix>
</trkpt>
<trkpt lat="33.8106437" lon="-118.3938611">
  <ele>-2.38</ele>
  <time>2026-09-01T01:17:02Z</time>
  <course>91.68</course>
  <speed>0.0</speed>
  <fix>3d</fix>
</trkpt>
<trkpt lat="33.8106434" lon="-118.3938613">
  <ele>-2.446</ele>
  <time>2026-09-01T01:17:02Z</time>
  <course>8.76</course>
  <speed>0.03</speed>
  <fix>3d</fix>
</trkpt>
<trkpt lat="33.8106437" lon="-118.3938611">
  <ele>-2.38</ele>
  <time>2026-09-01T01:17:02Z</time>
  <course>91.65</course>
  <speed>0.0</speed>
  <fix>3d</fix>
</trkpt>
<trkpt lat="33.8106434" lon="-118.3938613">
  <ele>-2.447</ele>
  <time>2026-09-01T01:17:02Z</time>
  <course>8.58</course>
  <speed>0.03</speed>
  <fix>3d</fix>
</trkpt>
<trkpt lat="33.8106437" lon="-118.3938611">
  <ele>-2.38</ele>
  <time>2026-09-01T01:17:02Z</time>
  <course>91.65</course>
  <speed>0.0</speed>
  <fix>3d</fix>
</trkpt>
<trkpt lat="33.8106434" lon="-118.3938613">
  <ele>-2.448</ele>
  <time>2026-09-01T01:17:02Z</time>
  <course>8.2</course>
  <speed>0.0316227766016838</speed>
  <fix>3d</fix>
</trkpt>
<trkpt lat="33.8106436" lon="-118.3938611">
  <ele>-2.38</ele>
  <time>2026-09-01T01:17:02Z</time>
  <course>116.13</course>
  <speed>0.0</speed>
  <fix>3d</fix>
</trkpt>
<trkpt lat="33.8106434" lon="-118.3938613">
  <ele>-2.447</ele>
  <time>2026-09-01T01:17:02Z</time>
  <course>7.65</course>
  <speed>0.0316227766016838</speed>
  <fix>3d</fix>
</trkpt>
<trkpt lat="33.8106436" lon="-118.3938611">
  <ele>-2.38</ele>
  <time>2026-09-01T01:17:02Z</time>
  <course>116.13</course>
  <speed>0.0</speed>
  <fix>3d</fix>
</trkpt>
<trkpt lat="33.8106434" lon="-118.3938613">
  <ele>-2.447</ele>
  <time>2026-09-01T01:17:02Z</time>
  <course>7.01</course>
  <speed>0.03605551275463989</speed>
  <fix>3d</fix>
</trkpt>
<trkpt lat="33.8106436" lon="-118.3938611">
  <ele>-2.38</ele>
  <time>2026-09-01T01:17:02Z</time>
  <course>248.25</course>
  <speed>0.0</speed>
  <fix>3d</fix>
</trkpt>
<trkpt lat="33.8106434" lon="-118.3938613">
  <ele>-2.446</ele>
  <time>2026-09-01T01:17:02Z</time>
  <course>6.31</course>
  <speed>0.03605551275463989</speed>
  <fix>3d</fix>
</trkpt>
<trkpt lat="33.8106436" lon="-118.3938611">
  <ele>-2.38</ele>
  <time>2026-09-01T01:17:02Z</time>
  <course>248.25</course>
  <speed>0.0</speed>
  <fix>3d</fix>
</trkpt>
<trkpt lat="33.8106434" lon="-118.3938612">
  <ele>-2.444</ele>
  <time>2026-09-01T01:17:02Z</time>
  <course>5.61</course>
  <speed>0.03605551275463989</speed>
  <fix>3d</fix>
</trkpt>
<trkpt lat="33.8106436" lon="-118.3938611">
  <ele>-2.38</ele>
  <time>2026-09-01T01:17:02Z</time>
  <course>265.52</course>
  <speed>0.01</speed>
  <fix>3d</fix>
</trkpt>
<trkpt lat="33.8106434" lon="-118.3938612">
  <ele>-2.443</ele>
  <time>2026-09-01T01:17:02Z</time>
  <course>4.79</course>
  <speed>0.03605551275463989</speed>
  <fix>3d</fix>
</trkpt>
<trkpt lat="33.8106436" lon="-118.3938611">
  <ele>-2.38</ele>
  <time>2026-09-01T01:17:02Z</time>
  <course>265.52</course>
  <speed>0.01</speed>
  <fix>3d</fix>
</trkpt>
<trkpt lat="33.8106434" lon="-118.3938612">
  <ele>-2.442</ele>
  <time>2026-09-01T01:17:02Z</time>
  <course>3.86</course>
  <speed>0.0282842712474619</speed>
  <fix>3d</fix>
</trkpt>
<trkpt lat="33.8106436" lon="-118.3938611">
  <ele>-2.38</ele>
  <time>2026-09-01T01:17:02Z</time>
  <course>271.05</course>
  <speed>0.01</speed>
  <fix>3d</fix>
</trkpt>
<trkpt lat="33.8106434" lon="-118.3938612">
  <ele>-2.442</ele>
  <time>2026-09-01T01:17:02Z</time>
  <course>3.02</course>
  <speed>0.0282842712474619</speed>
  <fix>3d</fix>
</trkpt>
<trkpt lat="33.8106436" lon="-118.3938611">
  <ele>-2.38</ele>
  <time>2026-09-01T01:17:02Z</time>
  <course>271.05</course>
  <speed>0.01</speed>
  <fix>3d</fix>
</trkpt>
<trkpt lat="33.8106434" lon="-118.3938613">
  <ele>-2.443</ele>
  <time>2026-09-01T01:17:02Z</time>
  <course>2.4</course>
  <speed>0.0282842712474619</speed>
  <fix>3d</fix>
</trkpt>
<trkpt lat="33.8106436" lon="-118.3938611">
  <ele>-2.38</ele>
  <time>2026-09-01T01:17:02Z</time>
  <course>274.84</course>
  <speed>0.02</speed>
  <fix>3d</fix>
</trkpt>
<trkpt lat="33.8106434" lon="-118.3938613">
  <ele>-2.444</ele>
  <time>2026-09-01T01:17:02Z</time>
  <course>1.92</course>
  <speed>0.0282842712474619</speed>
  <fix>3d</fix>
</trkpt>
<trkpt lat="33.8106436" lon="-118.3938611">
  <ele>-2.38</ele>
  <time>2026-09-01T01:17:02Z</time>
  <course>274.84</course>
  <speed>0.02</speed>
  <fix>3d</fix>
</trkpt>
<trkpt lat="33.8106434" lon="-118.3938613">
  <ele>-2.446</ele>
  <time>2026-09-01T01:17:02Z</time>
  <course>1.53</course>
  <speed>0.0282842712474619</speed>
  <fix>3d</fix>
</trkpt>
<trkpt lat="33.8106436" lon="-118.3938611">
  <ele>-2.38</ele>
  <time>2026-09-01T01:17:02Z</time>
  <course>276.71</course>
  <speed>0.02</speed>
  <fix>3d</fix>
</trkpt>
<trkpt lat="33.8106434" lon="-118.3938613">
  <ele>-2.447</ele>
  <time>2026-09-01T01:17:02Z</time>
  <course>1.19</course>
  <speed>0.022360679774997897</speed>
  <fix>3d</fix>
</trkpt>
<trkpt lat="33.8106436" lon="-118.3938611">
  <ele>-2.38</ele>
  <time>2026-09-01T01:17:02Z</time>
  <course>276.71</course>
  <speed>0.02</speed>
  <fix>3d</fix>
</trkpt>
<trkpt lat="33.8106434" lon="-118.3938613">
  <ele>-2.447</ele>
  <time>2026-09-01T01:17:02Z</time>
  <course>0.9</course>
  <speed>0.022360679774997897</speed>
  <fix>3d</fix>
</trkpt>
<trkpt lat="33.8106436" lon="-118.3938612">
  <ele>-2.39</ele>
  <time>2026-09-01T01:17:02Z</time>
  <course>277.02</course>
  <speed>0.01</speed>
  <fix>3d</fix>
</trkpt>
<trkpt lat="33.8106434" lon="-118.3938613">
  <ele>-2.446</ele>
  <time>2026-09-01T01:17:02Z</time>
  <course>0.65</course>
  <speed>0.022360679774997897</speed>
  <fix>3d</fix>
</trkpt>
<trkpt lat="33.8106436" lon="-118.3938612">
  <ele>-2.39</ele>
  <time>2026-09-01T01:17:02Z</time>
  <course>277.02</course>
  <speed>0.01</speed>
  <fix>3d</fix>
</trkpt>
<trkpt lat="33.8106434" lon="-118.3938613">
  <ele>-2.446</ele>
  <time>2026-09-01T01:17:02Z</time>
  <course>0.42</course>
  <speed>0.022360679774997897</speed>
  <fix>3d</fix>
</trkpt>
<trkpt lat="33.8106436" lon="-118.3938612">
  <ele>-2.39</ele>
  <time>2026-09-01T01:17:02Z</time>
  <course>277.17</course>
  <speed>0.01</speed>
  <fix>3d</fix>
</trkpt>
<trkpt lat="33.8106434" lon="-118.3938613">
  <ele>-2.446</ele>
  <time>2026-09-01T01:17:02Z</time>
  <course>0.21</course>
  <speed>0.022360679774997897</speed>
  <fix>3d</fix>
</trkpt>
<trkpt lat="33.8106436" lon="-118.3938612">
  <ele>-2.39</ele>
  <time>2026-09-01T01:17:02Z</time>
  <course>277.17</course>
  <speed>0.01</speed>
  <fix>3d</fix>
</trkpt>
<trkpt lat="33.8106434" lon="-118.3938613">
  <ele>-2.447</ele>
  <time>2026-09-01T01:17:02Z</time>
  <course>0.03</course>
  <speed>0.022360679774997897</speed>
  <fix>3d</fix>
</trkpt>
<trkpt lat="33.8106436" lon="-118.3938613">
  <ele>-2.39</ele>
  <time>2026-09-01T01:17:02Z</time>
  <course>277.34</course>
  <speed>0.01</speed>
  <fix>3d</fix>
</trkpt>
<trkpt lat="33.8106434" lon="-118.3938613">
  <ele>-2.448</ele>
  <time>2026-09-01T01:17:02Z</time>
  <course>359.86</course>
  <speed>0.022360679774997897</speed>
  <fix>3d</fix>
</trkpt>
<trkpt lat="33.8106436" lon="-118.3938613">
  <ele>-2.39</ele>
  <time>2026-09-01T01:17:02Z</time>
  <course>277.34</course>
  <speed>0.01</speed>
  <fix>3d</fix>
</trkpt>
<trkpt lat="33.8106434" lon="-118.3938613">
  <ele>-2.45</ele>
  <time>2026-09-01T01:17:02Z</time>
  <course>359.7</course>
  <speed>0.022360679774997897</speed>
  <fix>3d</fix>
</trkpt>
<trkpt lat="33.8106436" lon="-118.3938613">
  <ele>-2.39</ele>
  <time>2026-09-01T01:17:02Z</time>
  <course>277.51</course>
  <speed>0.01</speed>
  <fix>3d</fix>
</trkpt>
<trkpt lat="33.8106434" lon="-118.3938613">
  <ele>-2.451</ele>
  <time>2026-09-01T01:17:02Z</time>
  <course>359.55</course>
  <speed>0.022360679774997897</speed>
  <fix>3d</fix>
</trkpt>
<trkpt lat="33.8106436" lon="-118.3938613">
  <ele>-2.39</ele>
  <time>2026-09-01T01:17:02Z</time>
  <course>277.51</course>
  <speed>0.01</speed>
  <fix>3d</fix>
</trkpt>
<trkpt lat="33.8106434" lon="-118.3938614">
  <ele>-2.452</ele>
  <time>2026-09-01T01:17:02Z</time>
  <course>359.41</course>
  <speed>0.022360679774997897</speed>
  <fix>3d</fix>
</trkpt>
<trkpt lat="33.8106436" lon="-118.3938613">
  <ele>-2.39</ele>
  <time>2026-09-01T01:17:02Z</time>
  <course>277.68</course>
  <speed>0.01</speed>
  <fix>3d</fix>
</trkpt>
<trkpt lat="33.8106434" lon="-118.3938614">
  <ele>-2.452</ele>
  <time>2026-09-01T01:17:02Z</time>
  <course>359.28</course>
  <speed>0.022360679774997897</speed>
  <fix>3d</fix>
</trkpt>
<trkpt lat="33.8106436" lon="-118.3938613">
  <ele>-2.39</ele>
  <time>2026-09-01T01:17:02Z</time>
  <course>277.68</course>
  <speed>0.01</speed>
  <fix>3d</fix>
</trkpt>
<trkpt lat="33.8106434" lon="-118.3938614">
  <ele>-2.451</ele>
  <time>2026-09-01T01:17:02Z</time>
  <course>359.16</course>
  <speed>0.02</speed>
  <fix>3d</fix>
</trkpt>
<trkpt lat="33.8106436" lon="-118.3938614">
  <ele>-2.39</ele>
  <time>2026-09-01T01:17:02Z</time>
  <course>277.85</course>
  <speed>0.01</speed>
  <fix>3d</fix>
</trkpt>
<trkpt lat="33.8106434" lon="-118.3938614">
  <ele>-2.45</ele>
  <time>2026-09-01T01:17:02Z</time>
  <course>359.04</course>
  <speed>0.02</speed>
  <fix>3d</fix>
</trkpt>
<trkpt lat="33.8106436" lon="-118.3938614">
  <ele>-2.39</ele>
  <time>2026-09-01T01:17:02Z</time>
  <course>277.85</course>
  <speed>0.01</speed>
  <fix>3d</fix>
</trkpt>
<trkpt lat="33.8106434" lon="-118.3938614">
  <ele>-2.449</ele>
  <time>2026-09-01T01:17:02Z</time>
  <course>358.93</course>
  <speed>0.02</speed>
  <fix>3d</fix>
</trkpt>
<trkpt lat="33.8106436" lon="-118.3938614">
  <ele>-2.39</ele>
  <time>2026-09-01T01:17:02Z</time>
  <course>278.03</course>
  <speed>0.01</speed>
  <fix>3d</fix>
</trkpt>
<trkpt lat="33.8106434" lon="-118.3938614">
  <ele>-2.449</ele>
  <time>2026-09-01T01:17:02Z</time>
  <course>358.82</course>
  <speed>0.02</speed>
  <fix>3d</fix>
</trkpt>
<trkpt lat="33.8106436" lon="-118.3938614">
  <ele>-2.39</ele>
  <time>2026-09-01T01:17:02Z</time>
  <course>278.03</course>
  <speed>0.01</speed>
  <fix>3d</fix>
</trkpt>
<trkpt lat="33.8106434" lon="-118.3938614">
  <ele>-2.449</ele>
  <time>2026-09-01T01:17:02Z</time>
  <course>358.73</course>
  <speed>0.02</speed>
  <fix>3d</fix>
</trkpt>
<trkpt lat="33.8106436" lon="-118.3938615">
  <ele>-2.39</ele>
  <time>2026-09-01T01:17:02Z</time>
  <course>278.22</course>
  <speed>0.01</speed>
  <fix>3d</fix>
</trkpt>
<trkpt lat="33.8106434" lon="-118.3938614">
  <ele>-2.449</ele>
  <time>2026-09-01T01:17:02Z</time>
  <course>358.77</course>
  <speed>0.02</speed>
  <fix>3d</fix>
</trkpt>
<trkpt lat="33.8106436" lon="-118.3938615">
  <ele>-2.39</ele>
  <time>2026-09-01T01:17:02Z</time>
  <course>278.22</course>
  <speed>0.01</speed>
  <fix>3d</fix>
</trkpt>
<trkpt lat="33.8106434" lon="-118.3938614">
  <ele>-2.448</ele>
  <time>2026-09-01T01:17:02Z</time>
  <course>359.08</course>
  <speed>0.02</speed>
  <fix>3d</fix>
</trkpt>
<trkpt lat="33.8106436" lon="-118.3938615">
  <ele>-2.38</ele>
  <time>2026-09-01T01:17:02Z</time>
  <course>285.19</course>
  <speed>0.01</speed>
  <fix>3d</fix>
</trkpt>
<trkpt lat="33.8106434" lon="-118.3938614">
  <ele>-2.447</ele>
  <time>2026-09-01T01:17:02Z</time>
  <course>359.64</course>
  <speed>0.02</speed>
  <fix>3d</fix>
</trkpt>
<trkpt lat="33.8106436" lon="-118.3938615">
  <ele>-2.38</ele>
  <time>2026-09-01T01:17:02Z</time>
  <course>285.19</course>
  <speed>0.01</speed>
  <fix>3d</fix>
</trkpt>
<trkpt lat="33.8106434" lon="-118.3938614">
  <ele>-2.445</ele>
  <time>2026-09-01T01:17:02Z</time>
  <course>0.43</course>
  <speed>0.02</speed>
  <fix>3d</fix>
</trkpt>
<trkpt lat="33.8106436" lon="-118.3938615">
  <ele>-2.38</ele>
  <time>2026-09-01T01:17:02Z</time>
  <course>310.56</course>
  <speed>0.0</speed>
  <fix>3d</fix>
</trkpt>
<trkpt lat="33.8106434" lon="-118.3938614">
  <ele>-2.444</ele>
  <time>2026-09-01T01:17:02Z</time>
  <course>1.34</course>
  <speed>0.022360679774997897</speed>
  <fix>3d</fix>
</trkpt>
<trkpt lat="33.8106436" lon="-118.3938615">
  <ele>-2.38</ele>
  <time>2026-09-01T01:17:02Z</time>
  <course>310.56</course>
  <speed>0.0</speed>
  <fix>3d</fix>
</trkpt>
<trkpt lat="33.8106434" lon="-118.3938614">
  <ele>-2.445</ele>
  <time>2026-09-01T01:17:02Z</time>
  <course>2.32</course>
  <speed>0.022360679774997897</speed>
  <fix>3d</fix>
</trkpt>
<trkpt lat="33.8106436" lon="-118.3938615">
  <ele>-2.38</ele>
  <time>2026-09-01T01:17:02Z</time>
  <course>340.82</course>
  <speed>0.0</speed>
  <fix>3d</fix>
</trkpt>
<trkpt lat="33.8106434" lon="-118.3938614">
  <ele>-2.445</ele>
  <time>2026-09-01T01:17:02Z</time>
  <course>3.33</course>
  <speed>0.022360679774997897</speed>
  <fix>3d</fix>
</trkpt>
<trkpt lat="33.8106436" lon="-118.3938615">
  <ele>-2.38</ele>
  <time>2026-09-01T01:17:02Z</time>
  <course>340.82</course>
  <speed>0.0</speed>
  <fix>3d</fix>
</trkpt>
<trkpt lat="33.8106434" lon="-118.3938614">
  <ele>-2.446</ele>
  <time>2026-09-01T01:17:02Z</time>
  <course>4.34</course>
  <speed>0.022360679774997897</speed>
  <fix>3d</fix>
</trkpt>
<trkpt lat="33.8106436" lon="-118.3938615">
  <ele>-2.38</ele>
  <time>2026-09-01T01:17:02Z</time>
  <course>345.97</course>
  <speed>0.0</speed>
  <fix>3d</fix>
</trkpt>
<trkpt lat="33.8106434" lon="-118.3938614">
  <ele>-2.447</ele>
  <time>2026-09-01T01:17:02Z</time>
  <course>5.37</course>
  <speed>0.022360679774997897</speed>
  <fix>3d</fix>
</trkpt>
<trkpt lat="33.8106436" lon="-118.3938615">
  <ele>-2.38</ele>
  <time>2026-09-01T01:17:02Z</time>
  <course>345.97</course>
  <speed>0.0</speed>
  <fix>3d</fix>
</trkpt>
<trkpt lat="33.8106434" lon="-118.3938614">
  <ele>-2.447</ele>
  <time>2026-09-01T01:17:02Z</time>
  <course>6.4</course>
  <speed>0.022360679774997897</speed>
  <fix>3d</fix>
</trkpt>
<trkpt lat="33.8106436" lon="-118.3938615">
  <ele>-2.38</ele>
  <time>2026-09-01T01:17:02Z</time>
  <course>335.14</course>
  <speed>0.0</speed>
  <fix>3d</fix>
</trkpt>
<trkpt lat="33.8106434" lon="-118.3938614">
  <ele>-2.447</ele>
  <time>2026-09-01T01:17:02Z</time>
  <course>7.43</course>
  <speed>0.022360679774997897</speed>
  <fix>3d</fix>
</trkpt>
<trkpt lat="33.8106436" lon="-118.3938615">
  <ele>-2.38</ele>
  <time>2026-09-01T01:17:02Z</time>
  <course>335.14</course>
  <speed>0.0</speed>
  <fix>3d</fix>
</trkpt>
<trkpt lat="33.8106434" lon="-118.3938614">
  <ele>-2.446</ele>
  <time>2026-09-01T01:17:02Z</time>
  <course>8.47</course>
  <speed>0.02</speed>
  <fix>3d</fix>
</trkpt>
<trkpt lat="33.8106436" lon="-118.3938615">
  <ele>-2.38</ele>
  <time>2026-09-01T01:17:02Z</time>
  <course>315.34</course>
  <speed>0.0</speed>
  <fix>3d</fix>
</trkpt>
<trkpt lat="33.8106434" lon="-118.3938614">
  <ele>-2.447</ele>
  <time>2026-09-01T01:17:02Z</time>
  <course>9.52</course>
  <speed>0.022360679774997897</speed>
  <fix>3d</fix>
</trkpt>
<trkpt lat="33.8106436" lon="-118.3938615">
  <ele>-2.38</ele>
  <time>2026-09-01T01:17:02Z</time>
  <course>315.34</course>
  <speed>0.0</speed>
  <fix>3d</fix>
</trkpt>
<trkpt lat="33.8106434" lon="-118.3938614">
  <ele>-2.448</ele>
  <time>2026-09-01T01:17:02Z</time>
  <course>10.56</course>
  <speed>0.02</speed>
  <fix>3d</fix>
</trkpt>
<trkpt lat="33.8106436" lon="-118.3938616">
  <ele>-2.38</ele>
  <time>2026-09-01T01:17:02Z</time>
  <course>298.92</course>
  <speed>0.0</speed>
  <fix>3d</fix>
</trkpt>
<trkpt lat="33.8106434" lon="-118.3938614">
  <ele>-2.448</ele>
  <time>2026-09-01T01:17:02Z</time>
  <course>11.6</course>
  <speed>0.022360679774997897</speed>
  <fix>3d</fix>
</trkpt>
<trkpt lat="33.8106436" lon="-118.3938616">
  <ele>-2.38</ele>
  <time>2026-09-01T01:17:02Z</time>
  <course>298.92</course>
  <speed>0.0</speed>
  <fix>3d</fix>
</trkpt>
<trkpt lat="33.8106434" lon="-118.3938614">
  <ele>-2.447</ele>
  <time>2026-09-01T01:17:02Z</time>
  <course>12.64</course>
  <speed>0.022360679774997897</speed>
  <fix>3d</fix>
</trkpt>
<trkpt lat="33.8106437" lon="-118.3938616">
  <ele>-2.38</ele>
  <time>2026-09-01T01:17:02Z</time>
  <course>289.51</course>
  <speed>0.0</speed>
  <fix>3d</fix>
</trkpt>
<trkpt lat="33.8106434" lon="-118.3938614">
  <ele>-2.446</ele>
  <time>2026-09-01T01:17:02Z</time>
  <course>13.68</course>
  <speed>0.022360679774997897</speed>
  <fix>3d</fix>
</trkpt>
<trkpt lat="33.8106437" lon="-118.3938616">
  <ele>-2.38</ele>
  <time>2026-09-01T01:17:02Z</time>
  <course>289.51</course>
  <speed>0.0</speed>
  <fix>3d</fix>
</trkpt>
<trkpt lat="33.8106434" lon="-118.3938615">
  <ele>-2.445</ele>
  <time>2026-09-01T01:17:02Z</time>
  <course>14.72</course>
  <speed>0.022360679774997897</speed>
  <fix>3d</fix>
</trkpt>
<trkpt lat="33.8106437" lon="-118.3938616">
  <ele>-2.38</ele>
  <time>2026-09-01T01:17:02Z</time>
  <course>279.56</course>
  <speed>0.0</speed>
  <fix>3d</fix>
</trkpt>
<trkpt lat="33.8106434" lon="-118.3938615">
  <ele>-2.445</ele>
  <time>2026-09-01T01:17:02Z</time>
  <course>15.73</course>
  <speed>0.022360679774997897</speed>
  <fix>3d</fix>
</trkpt>
<trkpt lat="33.8106437" lon="-118.3938616">
  <ele>-2.38</ele>
  <time>2026-09-01T01:17:02Z</time>
  <course>279.56</course>
  <speed>0.0</speed>
  <fix>3d</fix>
</trkpt>
<trkpt lat="33.8106434" lon="-118.3938615">
  <ele>-2.445</ele>
  <time>2026-09-01T01:17:02Z</time>
  <course>16.49</course>
  <speed>0.022360679774997897</speed>
  <fix>3d</fix>
</trkpt>
<trkpt lat="33.8106437" lon="-118.3938616">
  <ele>-2.38</ele>
  <time>2026-09-01T01:17:02Z</time>
  <course>260.13</course>
  <speed>0.0</speed>
  <fix>3d</fix>
</trkpt>
<trkpt lat="33.8106434" lon="-118.3938615">
  <ele>-2.445</ele>
  <time>2026-09-01T01:17:02Z</time>
  <course>17.06</course>
  <speed>0.022360679774997897</speed>
  <fix>3d</fix>
</trkpt>
<trkpt lat="33.8106437" lon="-118.3938616">
  <ele>-2.38</ele>
  <time>2026-09-01T01:17:02Z</time>
  <course>260.13</course>
  <speed>0.0</speed>
  <fix>3d</fix>
</trkpt>
<trkpt lat="33.8106434" lon="-118.3938615">
  <ele>-2.444</ele>
  <time>2026-09-01T01:17:02Z</time>
  <course>17.51</course>
  <speed>0.022360679774997897</speed>
  <fix>3d</fix>
</trkpt>
<trkpt lat="33.8106437" lon="-118.3938616">
  <ele>-2.38</ele>
  <time>2026-09-01T01:17:02Z</time>
  <course>247.2</course>
  <speed>0.0</speed>
  <fix>3d</fix>
</trkpt>
<trkpt lat="33.8106434" lon="-118.3938615">
  <ele>-2.444</ele>
  <time>2026-09-01T01:17:02Z</time>
  <course>17.88</course>
  <speed>0.022360679774997897</speed>
  <fix>3d</fix>
</trkpt>
<trkpt lat="33.8106437" lon="-118.3938616">
  <ele>-2.38</ele>
  <time>2026-09-01T01:17:02Z</time>
  <course>247.2</course>
  <speed>0.0</speed>
  <fix>3d</fix>
</trkpt>
<trkpt lat="33.8106434" lon="-118.3938615">
  <ele>-2.444</ele>
  <time>2026-09-01T01:17:02Z</time>
  <course>18.19</course>
  <speed>0.022360679774997897</speed>
  <fix>3d</fix>
</trkpt>
<trkpt lat="33.8106436" lon="-118.3938616">
  <ele>-2.38</ele>
  <time>2026-09-01T01:17:02Z</time>
  <course>247.02</course>
  <speed>0.0</speed>
  <fix>3d</fix>
</trkpt>
<trkpt lat="33.8106434" lon="-118.3938615">
  <ele>-2.445</ele>
  <time>2026-09-01T01:17:02Z</time>
  <course>18.47</course>
  <speed>0.022360679774997897</speed>
  <fix>3d</fix>
</trkpt>
<trkpt lat="33.8106436" lon="-118.3938616">
  <ele>-2.38</ele>
  <time>2026-09-01T01:17:02Z</time>
  <course>247.02</course>
  <speed>0.0</speed>
  <fix>3d</fix>
</trkpt>
<trkpt lat="33.8106434" lon="-118.3938615">
  <ele>-2.447</ele>
  <time>2026-09-01T01:17:02Z</time>
  <course>18.71</course>
  <speed>0.022360679774997897</speed>
  <fix>3d</fix>
</trkpt>
<trkpt lat="33.8106436" lon="-118.3938616">
  <ele>-2.38</ele>
  <time>2026-09-01T01:17:02Z</time>
  <course>246.88</course>
  <speed>0.0</speed>
  <fix>3d</fix>
</trkpt>
<trkpt lat="33.8106434" lon="-118.3938615">
  <ele>-2.447</ele>
  <time>2026-09-01T01:17:02Z</time>
  <course>18.93</course>
  <speed>0.022360679774997897</speed>
  <fix>3d</fix>
</trkpt>
<trkpt lat="33.8106436" lon="-118.3938616">
  <ele>-2.38</ele>
  <time>2026-09-01T01:17:02Z</time>
  <course>246.88</course>
  <speed>0.0</speed>
  <fix>3d</fix>
</trkpt>
<trkpt lat="33.8106434" lon="-118.3938615">
  <ele>-2.446</ele>
  <time>2026-09-01T01:17:02Z</time>
  <course>19.13</course>
  <speed>0.022360679774997897</speed>
  <fix>3d</fix>
</trkpt>
<trkpt lat="33.8106436" lon="-118.3938616">
  <ele>-2.38</ele>
  <time>2026-09-01T01:17:02Z</time>
  <course>246.78</course>
  <speed>0.0</speed>
  <fix>3d</fix>
</trkpt>
<trkpt lat="33.8106434" lon="-118.3938615">
  <ele>-2.445</ele>
  <time>2026-09-01T01:17:02Z</time>
  <course>19.32</course>
  <speed>0.022360679774997897</speed>
  <fix>3d</fix>
</trkpt>
<trkpt lat="33.8106436" lon="-118.3938616">
  <ele>-2.38</ele>
  <time>2026-09-01T01:17:02Z</time>
  <course>246.78</course>
  <speed>0.0</speed>
  <fix>3d</fix>
</trkpt>
<trkpt lat="33.8106434" lon="-118.3938615">
  <ele>-2.444</ele>
  <time>2026-09-01T01:17:02Z</time>
  <course>19.48</course>
  <speed>0.022360679774997897</speed>
  <fix>3d</fix>
</trkpt>
<trkpt lat="33.8106436" lon="-118.3938616">
  <ele>-2.38</ele>
  <time>2026-09-01T01:17:02Z</time>
  <course>246.64</course>
  <speed>0.0</speed>
  <fix>3d</fix>
</trkpt>
<trkpt lat="33.8106434" lon="-118.3938615">
  <ele>-2.444</ele>
  <time>2026-09-01T01:17:02Z</time>
  <course>19.64</course>
  <speed>0.022360679774997897</speed>
  <fix>3d</fix>
</trkpt>
<trkpt lat="33.8106436" lon="-118.3938616">
  <ele>-2.38</ele>
  <time>2026-09-01T01:17:02Z</time>
  <course>246.64</course>
  <speed>0.0</speed>
  <fix>3d</fix>
</trkpt>
<trkpt lat="33.8106434" lon="-118.3938615">
  <ele>-2.444</ele>
  <time>2026-09-01T01:17:02Z</time>
  <course>19.79</course>
  <speed>0.022360679774997897</speed>
  <fix>3d</fix>
</trkpt>
<trkpt lat="33.8106436" lon="-118.3938616">
  <ele>-2.38</ele>
  <time>2026-09-01T01:17:02Z</time>
  <course>246.34</course>
  <speed>0.0</speed>
  <fix>3d</fix>
</trkpt>
<trkpt lat="33.8106434" lon="-118.3938615">
  <ele>-2.444</ele>
  <time>2026-09-01T01:17:02Z</time>
  <course>19.92</course>
  <speed>0.022360679774997897</speed>
  <fix>3d</fix>
</trkpt>
<trkpt lat="33.8106436" lon="-118.3938616">
  <ele>-2.38</ele>
  <time>2026-09-01T01:17:02Z</time>
  <course>246.34</course>
  <speed>0.0</speed>
  <fix>3d</fix>
</trkpt>
<trkpt lat="33.8106434" lon="-118.3938615">
  <ele>-2.444</ele>
  <time>2026-09-01T01:17:02Z</time>
  <course>20.05</course>
  <speed>0.022360679774997897</speed>
  <fix>3d</fix>
</trkpt>
<trkpt lat="33.8106436" lon="-118.3938616">
  <ele>-2.38</ele>
  <time>2026-09-01T01:17:02Z</time>
  <course>246.04</course>
  <speed>0.0</speed>
  <fix>3d</fix>
</trkpt>
<trkpt lat="33.8106434" lon="-118.3938615">
  <ele>-2.444</ele>
  <time>2026-09-01T01:17:02Z</time>
  <course>20.17</course>
  <speed>0.0282842712474619</speed>
  <fix>3d</fix>
</trkpt>
<trkpt lat="33.8106436" lon="-118.3938616">
  <ele>-2.38</ele>
  <time>2026-09-01T01:17:02Z</time>
  <course>246.04</course>
  <speed>0.0</speed>
  <fix>3d</fix>
</trkpt>
<trkpt lat="33.8106434" lon="-118.3938615">
  <ele>-2.445</ele>
  <time>2026-09-01T01:17:02Z</time>
  <course>20.29</course>
  <speed>0.0282842712474619</speed>
  <fix>3d</fix>
</trkpt>
<trkpt lat="33.8106436" lon="-118.3938616">
  <ele>-2.38</ele>
  <time>2026-09-01T01:17:02Z</time>
  <course>245.86</course>
  <speed>0.0</speed>
  <fix>3d</fix>
</trkpt>
<trkpt lat="33.8106434" lon="-118.3938615">
  <ele>-2.446</ele>
  <time>2026-09-01T01:17:02Z</time>
  <course>20.4</course>
  <speed>0.0282842712474619</speed>
  <fix>3d</fix>
</trkpt>
<trkpt lat="33.8106436" lon="-118.3938616">
  <ele>-2.38</ele>
  <time>2026-09-01T01:17:02Z</time>
  <course>245.86</course>
  <speed>0.0</speed>
  <fix>3d</fix>
</trkpt>
<trkpt lat="33.8106434" lon="-118.3938615">
  <ele>-2.447</ele>
  <time>2026-09-01T01:17:02Z</time>
  <course>20.5</course>
  <speed>0.0282842712474619</speed>
  <fix>3d</fix>
</trkpt>
<trkpt lat="33.8106436" lon="-118.3938616">
  <ele>-2.39</ele>
  <time>2026-09-01T01:17:02Z</time>
  <course>245.75</course>
  <speed>0.0</speed>
  <fix>3d</fix>
</trkpt>
<trkpt lat="33.8106434" lon="-118.3938615">
  <ele>-2.446</ele>
  <time>2026-09-01T01:17:02Z</time>
  <course>20.6</course>
  <speed>0.0282842712474619</speed>
  <fix>3d</fix>
</trkpt>
<trkpt lat="33.8106436" lon="-118.3938616">
  <ele>-2.39</ele>
  <time>2026-09-01T01:17:02Z</time>
  <course>245.75</course>
  <speed>0.0</speed>
  <fix>3d</fix>
</trkpt>
<trkpt lat="33.8106434" lon="-118.3938615">
  <ele>-2.446</ele>
  <time>2026-09-01T01:17:02Z</time>
  <course>20.69</course>
  <speed>0.0282842712474619</speed>
  <fix>3d</fix>
</trkpt>
<trkpt lat="33.8106436" lon="-118.3938616">
  <ele>-2.39</ele>
  <time>2026-09-01T01:17:02Z</time>
  <course>245.66</course>
  <speed>0.0</speed>
  <fix>3d</fix>
</trkpt>
<trkpt lat="33.8106434" lon="-118.3938615">
  <ele>-2.446</ele>
  <time>2026-09-01T01:17:02Z</time>
  <course>20.78</course>
  <speed>0.0282842712474619</speed>
  <fix>3d</fix>
</trkpt>
<trkpt lat="33.8106436" lon="-118.3938616">
  <ele>-2.39</ele>
  <time>2026-09-01T01:17:02Z</time>
  <course>245.66</course>
  <speed>0.0</speed>
  <fix>3d</fix>
</trkpt>
<trkpt lat="33.8106434" lon="-118.3938615">
  <ele>-2.445</ele>
  <time>2026-09-01T01:17:02Z</time>
  <course>20.87</course>
  <speed>0.0282842712474619</speed>
  <fix>3d</fix>
</trkpt>
<trkpt lat="33.8106436" lon="-118.3938617">
  <ele>-2.39</ele>
  <time>2026-09-01T01:17:02Z</time>
  <course>245.55</course>
  <speed>0.0</speed>
  <fix>3d</fix>
</trkpt>
<trkpt lat="33.8106434" lon="-118.3938615">
  <ele>-2.445</ele>
  <time>2026-09-01T01:17:02Z</time>
  <course>20.96</course>
  <speed>0.0282842712474619</speed>
  <fix>3d</fix>
</trkpt>
<trkpt lat="33.8106436" lon="-118.3938617">
  <ele>-2.39</ele>
  <time>2026-09-01T01:17:02Z</time>
  <course>245.55</course>
  <speed>0.0</speed>
  <fix>3d</fix>
</trkpt>
<trkpt lat="33.8106434" lon="-118.3938615">
  <ele>-2.445</ele>
  <time>2026-09-01T01:17:02Z</time>
  <course>21.04</course>
  <speed>0.0282842712474619</speed>
  <fix>3d</fix>
</trkpt>
<trkpt lat="33.8106436" lon="-118.3938618">
  <ele>-2.39</ele>
  <time>2026-09-01T01:17:02Z</time>
  <course>245.38</course>
  <speed>0.0</speed>
  <fix>3d</fix>
</trkpt>
<trkpt lat="33.8106434" lon="-118.3938615">
  <ele>-2.444</ele>
  <time>2026-09-01T01:17:02Z</time>
  <course>21.11</course>
  <speed>0.0282842712474619</speed>
  <fix>3d</fix>
</trkpt>
<trkpt lat="33.8106436" lon="-118.3938618">
  <ele>-2.39</ele>
  <time>2026-09-01T01:17:02Z</time>
  <course>245.38</course>
  <speed>0.0</speed>
  <fix>3d</fix>
</trkpt>
<trkpt lat="33.8106434" lon="-118.3938615">
  <ele>-2.441</ele>
  <time>2026-09-01T01:17:02Z</time>
  <course>21.19</course>
  <speed>0.0282842712474619</speed>
  <fix>3d</fix>
</trkpt>
<trkpt lat="33.8106436" lon="-118.3938618">
  <ele>-2.38</ele>
  <time>2026-09-01T01:17:02Z</time>
  <course>245.2</course>
  <speed>0.0</speed>
  <fix>3d</fix>
</trkpt>
<trkpt lat="33.8106434" lon="-118.3938615">
  <ele>-2.438</ele>
  <time>2026-09-01T01:17:02Z</time>
  <course>21.26</course>
  <speed>0.0282842712474619</speed>
  <fix>3d</fix>
</trkpt>
<trkpt lat="33.8106436" lon="-118.3938618">
  <ele>-2.38</ele>
  <time>2026-09-01T01:17:02Z</time>
  <course>245.2</course>
  <speed>0.0</speed>
  <fix>3d</fix>
</trkpt>
<trkpt lat="33.8106434" lon="-118.3938615">
  <ele>-2.435</ele>
  <time>2026-09-01T01:17:02Z</time>
  <course>21.33</course>
  <speed>0.0282842712474619</speed>
  <fix>3d</fix>
</trkpt>
<trkpt lat="33.8106436" lon="-118.3938618">
  <ele>-2.38</ele>
  <time>2026-09-01T01:17:02Z</time>
  <course>245.1</course>
  <speed>0.0</speed>
  <fix>3d</fix>
</trkpt>
<trkpt lat="33.8106434" lon="-118.3938615">
  <ele>-2.432</ele>
  <time>2026-09-01T01:17:02Z</time>
  <course>21.4</course>
  <speed>0.0282842712474619</speed>
  <fix>3d</fix>
</trkpt>
<trkpt lat="33.8106436" lon="-118.3938618">
  <ele>-2.38</ele>
  <time>2026-09-01T01:17:02Z</time>
  <course>245.1</course>
  <speed>0.0</speed>
  <fix>3d</fix>
</trkpt>
<trkpt lat="33.8106434" lon="-118.3938615">
  <ele>-2.427</ele>
  <time>2026-09-01T01:17:02Z</time>
  <course>21.46</course>
  <speed>0.0282842712474619</speed>
  <fix>3d</fix>
</trkpt>
<trkpt lat="33.8106436" lon="-118.3938618">
  <ele>-2.37</ele>
  <time>2026-09-01T01:17:02Z</time>
  <course>245.13</course>
  <speed>0.0</speed>
  <fix>3d</fix>
</trkpt>
<trkpt lat="33.8106434" lon="-118.3938615">
  <ele>-2.422</ele>
  <time>2026-09-01T01:17:02Z</time>
  <course>21.53</course>
  <speed>0.022360679774997897</speed>
  <fix>3d</fix>
</trkpt>
<trkpt lat="33.8106436" lon="-118.3938618">
  <ele>-2.37</ele>
  <time>2026-09-01T01:17:02Z</time>
  <course>245.13</course>
  <speed>0.0</speed>
  <fix>3d</fix>
</trkpt>
<trkpt lat="33.8106434" lon="-118.3938615">
  <ele>-2.416</ele>
  <time>2026-09-01T01:17:02Z</time>
  <course>21.59</course>
  <speed>0.022360679774997897</speed>
  <fix>3d</fix>
</trkpt>
<trkpt lat="33.8106436" lon="-118.3938618">
  <ele>-2.36</ele>
  <time>2026-09-01T01:17:02Z</time>
  <course>245.22</course>
  <speed>0.0</speed>
  <fix>3d</fix>
</trkpt>
<trkpt lat="33.8106434" lon="-118.3938615">
  <ele>-2.409</ele>
  <time>2026-09-01T01:17:02Z</time>
  <course>21.65</course>
  <speed>0.022360679774997897</speed>
  <fix>3d</fix>
</trkpt>
<trkpt lat="33.8106436" lon="-118.3938618">
  <ele>-2.36</ele>
  <time>2026-09-01T01:17:02Z</time>
  <course>245.22</course>
  <speed>0.0</speed>
  <fix>3d</fix>
</trkpt>
<trkpt lat="33.8106434" lon="-118.3938615">
  <ele>-2.401</ele>
  <time>2026-09-01T01:17:02Z</time>
  <course>21.71</course>
  <speed>0.022360679774997897</speed>
  <fix>3d</fix>
</trkpt>
<trkpt lat="33.8106436" lon="-118.3938618">
  <ele>-2.35</ele>
  <time>2026-09-01T01:17:02Z</time>
  <course>245.25</course>
  <speed>0.0</speed>
  <fix>3d</fix>
</trkpt>
<trkpt lat="33.8106434" lon="-118.3938615">
  <ele>-2.393</ele>
  <time>2026-09-01T01:17:02Z</time>
  <course>21.77</course>
  <speed>0.022360679774997897</speed>
  <fix>3d</fix>
</trkpt>
<trkpt lat="33.8106436" lon="-118.3938618">
  <ele>-2.35</ele>
  <time>2026-09-01T01:17:02Z</time>
  <course>245.25</course>
  <speed>0.0</speed>
  <fix>3d</fix>
</trkpt>
<trkpt lat="33.8106434" lon="-118.3938615">
  <ele>-2.386</ele>
  <time>2026-09-01T01:17:02Z</time>
  <course>21.82</course>
  <speed>0.022360679774997897</speed>
  <fix>3d</fix>
</trkpt>
<trkpt lat="33.8106436" lon="-118.3938618">
  <ele>-2.34</ele>
  <time>2026-09-01T01:17:02Z</time>
  <course>245.15</course>
  <speed>0.0</speed>
  <fix>3d</fix>
</trkpt>
<trkpt lat="33.8106434" lon="-118.3938615">
  <ele>-2.379</ele>
  <time>2026-09-01T01:17:02Z</time>
  <course>21.88</course>
  <speed>0.022360679774997897</speed>
  <fix>3d</fix>
</trkpt>
<trkpt lat="33.8106436" lon="-118.3938618">
  <ele>-2.34</ele>
  <time>2026-09-01T01:17:02Z</time>
  <course>245.15</course>
  <speed>0.0</speed>
  <fix>3d</fix>
</trkpt>
<trkpt lat="33.8106434" lon="-118.3938616">
  <ele>-2.372</ele>
  <time>2026-09-01T01:17:02Z</time>
  <course>21.93</course>
  <speed>0.022360679774997897</speed>
  <fix>3d</fix>
</trkpt>
<trkpt lat="33.8106436" lon="-118.3938618">
  <ele>-2.32</ele>
  <time>2026-09-01T01:17:02Z</time>
  <course>244.97</course>
  <speed>0.0</speed>
  <fix>3d</fix>
</trkpt>
<trkpt lat="33.8106434" lon="-118.3938616">
  <ele>-2.365</ele>
  <time>2026-09-01T01:17:02Z</time>
  <course>21.98</course>
  <speed>0.022360679774997897</speed>
  <fix>3d</fix>
</trkpt>
<trkpt lat="33.8106436" lon="-118.3938618">
  <ele>-2.32</ele>
  <time>2026-09-01T01:17:02Z</time>
  <course>244.97</course>
  <speed>0.0</speed>
  <fix>3d</fix>
</trkpt>
<trkpt lat="33.8106434" lon="-118.3938616">
  <ele>-2.356</ele>
  <time>2026-09-01T01:17:02Z</time>
  <course>22.03</course>
  <speed>0.022360679774997897</speed>
  <fix>3d</fix>
</trkpt>
<trkpt lat="33.8106436" lon="-118.3938619">
  <ele>-2.31</ele>
  <time>2026-09-01T01:17:02Z</time>
  <course>244.86</course>
  <speed>0.0</speed>
  <fix>3d</fix>
</trkpt>
<trkpt lat="33.8106434" lon="-118.3938616">
  <ele>-2.348</ele>
  <time>2026-09-01T01:17:02Z</time>
  <course>22.08</course>
  <speed>0.022360679774997897</speed>
  <fix>3d</fix>
</trkpt>
<trkpt lat="33.8106436" lon="-118.3938619">
  <ele>-2.31</ele>
  <time>2026-09-01T01:17:02Z</time>
  <course>244.86</course>
  <speed>0.0</speed>
  <fix>3d</fix>
</trkpt>
<trkpt lat="33.8106434" lon="-118.3938616">
  <ele>-2.341</ele>
  <time>2026-09-01T01:17:02Z</time>
  <course>22.13</course>
  <speed>0.022360679774997897</speed>
  <fix>3d</fix>
</trkpt>
<trkpt lat="33.8106436" lon="-118.3938619">
  <ele>-2.29</ele>
  <time>2026-09-01T01:17:02Z</time>
  <course>244.9</course>
  <speed>0.0</speed>
  <fix>3d</fix>
</trkpt>
<trkpt lat="33.8106434" lon="-118.3938616">
  <ele>-2.332</ele>
  <time>2026-09-01T01:17:02Z</time>
  <course>22.17</course>
  <speed>0.022360679774997897</speed>
  <fix>3d</fix>
</trkpt>
<trkpt lat="33.8106436" lon="-118.3938619">
  <ele>-2.29</ele>
  <time>2026-09-01T01:17:02Z</time>
  <course>244.9</course>
  <speed>0.0</speed>
  <fix>3d</fix>
</trkpt>
<trkpt lat="33.8106434" lon="-118.3938616">
  <ele>-2.295</ele>
  <time>2026-09-01T01:17:02Z</time>
  <course>22.35</course>
  <speed>0.022360679774997897</speed>
  <fix>3d</fix>
</trkpt>
<trkpt lat="33.8106436" lon="-118.3938619">
  <ele>-2.26</ele>
  <time>2026-09-01T01:17:02Z</time>
  <course>245.12</course>
  <speed>0.0</speed>
  <fix>3d</fix>
</trkpt>
<trkpt lat="33.8106434" lon="-118.3938617">
  <ele>-2.268</ele>
  <time>2026-09-01T01:17:03Z</time>
  <course>22.48</course>
  <speed>0.022360679774997897</speed>
  <fix>3d</fix>
</trkpt>
<trkpt lat="33.8106436" lon="-118.3938619">
  <ele>-2.23</ele>
  <time>2026-09-01T01:17:03Z</time>
  <course>244.86</course>
  <speed>0.0</speed>
  <fix>3d</fix>
</trkpt>
<trkpt lat="33.8106434" lon="-118.3938617">
  <ele>-2.258</ele>
  <time>2026-09-01T01:17:03Z</time>
  <course>22.52</course>
  <speed>0.022360679774997897</speed>
  <fix>3d</fix>
</trkpt>
<trkpt lat="33.8106436" lon="-118.3938619">
  <ele>-2.23</ele>
  <time>2026-09-01T01:17:03Z</time>
  <course>244.86</course>
  <speed>0.0</speed>
  <fix>3d</fix>
</trkpt>
<trkpt lat="33.8106434" lon="-118.3938617">
  <ele>-2.247</ele>
  <time>2026-09-01T01:17:03Z</time>
  <course>22.56</course>
  <speed>0.022360679774997897</speed>
  <fix>3d</fix>
</trkpt>
<trkpt lat="33.8106436" lon="-118.3938619">
  <ele>-2.21</ele>
  <time>2026-09-01T01:17:03Z</time>
  <course>244.69</course>
  <speed>0.0</speed>
  <fix>3d</fix>
</trkpt>
<trkpt lat="33.8106434" lon="-118.3938617">
  <ele>-2.237</ele>
  <time>2026-09-01T01:17:03Z</time>
  <course>22.6</course>
  <speed>0.022360679774997897</speed>
  <fix>3d</fix>
</trkpt>
<trkpt lat="33.8106436" lon="-118.3938619">
  <ele>-2.21</ele>
  <time>2026-09-01T01:17:03Z</time>
  <course>244.69</course>
  <speed>0.0</speed>
  <fix>3d</fix>
</trkpt>
<trkpt lat="33.8106434" lon="-118.3938617">
  <ele>-2.227</ele>
  <time>2026-09-01T01:17:03Z</time>
  <course>22.63</course>
  <speed>0.022360679774997897</speed>
  <fix>3d</fix>
</trkpt>
<trkpt lat="33.8106436" lon="-118.3938619">
  <ele>-2.19</ele>
  <time>2026-09-01T01:17:03Z</time>
  <course>244.66</course>
  <speed>0.0</speed>
  <fix>3d</fix>
</trkpt>
<trkpt lat="33.8106434" lon="-118.3938617">
  <ele>-2.218</ele>
  <time>2026-09-01T01:17:03Z</time>
  <course>22.67</course>
  <speed>0.022360679774997897</speed>
  <fix>3d</fix>
</trkpt>
<trkpt lat="33.8106436" lon="-118.3938619">
  <ele>-2.19</ele>
  <time>2026-09-01T01:17:03Z</time>
  <course>244.66</course>
  <speed>0.0</speed>
  <fix>3d</fix>
</trkpt>
<trkpt lat="33.8106434" lon="-118.3938617">
  <ele>-2.208</ele>
  <time>2026-09-01T01:17:03Z</time>
  <course>22.71</course>
  <speed>0.022360679774997897</speed>
  <fix>3d</fix>
</trkpt>
<trkpt lat="33.8106436" lon="-118.393862">
  <ele>-2.17</ele>
  <time>2026-09-01T01:17:03Z</time>
  <course>244.78</course>
  <speed>0.0</speed>
  <fix>3d</fix>
</trkpt>
<trkpt lat="33.8106434" lon="-118.3938617">
  <ele>-2.199</ele>
  <time>2026-09-01T01:17:03Z</time>
  <course>22.74</course>
  <speed>0.022360679774997897</speed>
  <fix>3d</fix>
</trkpt>
<trkpt lat="33.8106436" lon="-118.393862">
  <ele>-2.17</ele>
  <time>2026-09-01T01:17:03Z</time>
  <course>244.78</course>
  <speed>0.0</speed>
  <fix>3d</fix>
</trkpt>
<trkpt lat="33.8106434" lon="-118.3938617">
  <ele>-2.19</ele>
  <time>2026-09-01T01:17:03Z</time>
  <course>22.78</course>
  <speed>0.022360679774997897</speed>
  <fix>3d</fix>
</trkpt>
<trkpt lat="33.8106436" lon="-118.393862">
  <ele>-2.15</ele>
  <time>2026-09-01T01:17:03Z</time>
  <course>244.91</course>
  <speed>0.0</speed>
  <fix>3d</fix>
</trkpt>
<trkpt lat="33.8106434" lon="-118.3938617">
  <ele>-2.182</ele>
  <time>2026-09-01T01:17:03Z</time>
  <course>22.81</course>
  <speed>0.022360679774997897</speed>
  <fix>3d</fix>
</trkpt>
<trkpt lat="33.8106436" lon="-118.393862">
  <ele>-2.15</ele>
  <time>2026-09-01T01:17:03Z</time>
  <course>244.91</course>
  <speed>0.0</speed>
  <fix>3d</fix>
</trkpt>
<trkpt lat="33.8106434" lon="-118.3938617">
  <ele>-2.173</ele>
  <time>2026-09-01T01:17:03Z</time>
  <course>22.85</course>
  <speed>0.022360679774997897</speed>
  <fix>3d</fix>
</trkpt>
<trkpt lat="33.8106436" lon="-118.393862">
  <ele>-2.14</ele>
  <time>2026-09-01T01:17:03Z</time>
  <course>244.94</course>
  <speed>0.0</speed>
  <fix>3d</fix>
</trkpt>
<trkpt lat="33.8106434" lon="-118.3938618">
  <ele>-2.164</ele>
  <time>2026-09-01T01:17:03Z</time>
  <course>22.88</course>
  <speed>0.022360679774997897</speed>
  <fix>3d</fix>
</trkpt>
<trkpt lat="33.8106436" lon="-118.393862">
  <ele>-2.14</ele>
  <time>2026-09-01T01:17:03Z</time>
  <course>244.94</course>
  <speed>0.0</speed>
  <fix>3d</fix>
</trkpt>
<trkpt lat="33.8106434" lon="-118.3938618">
  <ele>-2.155</ele>
  <time>2026-09-01T01:17:03Z</time>
  <course>22.92</course>
  <speed>0.02</speed>
  <fix>3d</fix>
</trkpt>
<trkpt lat="33.8106436" lon="-118.393862">
  <ele>-2.12</ele>
  <time>2026-09-01T01:17:03Z</time>
  <course>244.81</course>
  <speed>0.0</speed>
  <fix>3d</fix>
</trkpt>
<trkpt lat="33.8106434" lon="-118.3938618">
  <ele>-2.146</ele>
  <time>2026-09-01T01:17:03Z</time>
  <course>22.95</course>
  <speed>0.02</speed>
  <fix>3d</fix>
</trkpt>
<trkpt lat="33.8106436" lon="-118.393862">
  <ele>-2.12</ele>
  <time>2026-09-01T01:17:03Z</time>
  <course>244.81</course>
  <speed>0.0</speed>
  <fix>3d</fix>
</trkpt>
<trkpt lat="33.8106434" lon="-118.3938618">
  <ele>-2.137</ele>
  <time>2026-09-01T01:17:03Z</time>
  <course>22.98</course>
  <speed>0.02</speed>
  <fix>3d</fix>
</trkpt>
<trkpt lat="33.8106436" lon="-118.393862">
  <ele>-2.1</ele>
  <time>2026-09-01T01:17:03Z</time>
  <course>244.62</course>
  <speed>0.0</speed>
  <fix>3d</fix>
</trkpt>
<trkpt lat="33.8106434" lon="-118.3938618">
  <ele>-2.127</ele>
  <time>2026-09-01T01:17:03Z</time>
  <course>23.01</course>
  <speed>0.02</speed>
  <fix>3d</fix>
</trkpt>
<trkpt lat="33.8106436" lon="-118.393862">
  <ele>-2.1</ele>
  <time>2026-09-01T01:17:03Z</time>
  <course>244.62</course>
  <speed>0.0</speed>
  <fix>3d</fix>
</trkpt>
<trkpt lat="33.8106434" lon="-118.3938618">
  <ele>-2.117</ele>
  <time>2026-09-01T01:17:03Z</time>
  <course>23.04</course>
  <speed>0.02</speed>
  <fix>3d</fix>
</trkpt>
<trkpt lat="33.8106436" lon="-118.393862">
  <ele>-2.08</ele>
  <time>2026-09-01T01:17:03Z</time>
  <course>244.51</course>
  <speed>0.0</speed>
  <fix>3d</fix>
</trkpt>
<trkpt lat="33.8106434" lon="-118.3938618">
  <ele>-2.107</ele>
  <time>2026-09-01T01:17:03Z</time>
  <course>23.07</course>
  <speed>0.02</speed>
  <fix>3d</fix>
</trkpt>
<trkpt lat="33.8106436" lon="-118.393862">
  <ele>-2.08</ele>
  <time>2026-09-01T01:17:03Z</time>
  <course>244.51</course>
  <speed>0.0</speed>
  <fix>3d</fix>
</trkpt>
<trkpt lat="33.8106434" lon="-118.3938618">
  <ele>-2.097</ele>
  <time>2026-09-01T01:17:03Z</time>
  <course>23.1</course>
  <speed>0.02</speed>
  <fix>3d</fix>
</trkpt>
<trkpt lat="33.8106436" lon="-118.393862">
  <ele>-2.06</ele>
  <time>2026-09-01T01:17:03Z</time>
  <course>244.54</course>
  <speed>0.0</speed>
  <fix>3d</fix>
</trkpt>
<trkpt lat="33.8106434" lon="-118.3938618">
  <ele>-2.087</ele>
  <time>2026-09-01T01:17:03Z</time>
  <course>23.13</course>
  <speed>0.02</speed>
  <fix>3d</fix>
</trkpt>
<trkpt lat="33.8106436" lon="-118.393862">
  <ele>-2.06</ele>
  <time>2026-09-01T01:17:03Z</time>
  <course>244.54</course>
  <speed>0.0</speed>
  <fix>3d</fix>
</trkpt>
<trkpt lat="33.8106434" lon="-118.3938618">
  <ele>-2.078</ele>
  <time>2026-09-01T01:17:03Z</time>
  <course>23.16</course>
  <speed>0.02</speed>
  <fix>3d</fix>
</trkpt>
<trkpt lat="33.8106436" lon="-118.393862">
  <ele>-2.04</ele>
  <time>2026-09-01T01:17:03Z</time>
  <course>244.68</course>
  <speed>0.0</speed>
  <fix>3d</fix>
</trkpt>
<trkpt lat="33.8106434" lon="-118.3938618">
  <ele>-2.07</ele>
  <time>2026-09-01T01:17:03Z</time>
  <course>23.19</course>
  <speed>0.02</speed>
  <fix>3d</fix>
</trkpt>
<trkpt lat="33.8106436" lon="-118.393862">
  <ele>-2.04</ele>
  <time>2026-09-01T01:17:03Z</time>
  <course>244.68</course>
  <speed>0.0</speed>
  <fix>3d</fix>
</trkpt>
<trkpt lat="33.8106434" lon="-118.3938618">
  <ele>-2.062</ele>
  <time>2026-09-01T01:17:03Z</time>
  <course>23.22</course>
  <speed>0.02</speed>
  <fix>3d</fix>
</trkpt>
<trkpt lat="33.8106436" lon="-118.393862">
  <ele>-2.02</ele>
  <time>2026-09-01T01:17:03Z</time>
  <course>244.78</course>
  <speed>0.0</speed>
  <fix>3d</fix>
</trkpt>
<trkpt lat="33.8106434" lon="-118.3938618">
  <ele>-2.053</ele>
  <time>2026-09-01T01:17:03Z</time>
  <course>23.25</course>
  <speed>0.02</speed>
  <fix>3d</fix>
</trkpt>
<trkpt lat="33.8106436" lon="-118.393862">
  <ele>-2.02</ele>
  <time>2026-09-01T01:17:03Z</time>
  <course>244.78</course>
  <speed>0.0</speed>
  <fix>3d</fix>
</trkpt>
<trkpt lat="33.8106434" lon="-118.3938619">
  <ele>-2.044</ele>
  <time>2026-09-01T01:17:03Z</time>
  <course>23.28</course>
  <speed>0.02</speed>
  <fix>3d</fix>
</trkpt>
<trkpt lat="33.8106436" lon="-118.3938621">
  <ele>-2.0</ele>
  <time>2026-09-01T01:17:03Z</time>
  <course>244.75</course>
  <speed>0.0</speed>
  <fix>3d</fix>
</trkpt>
<trkpt lat="33.8106434" lon="-118.3938619">
  <ele>-2.035</ele>
  <time>2026-09-01T01:17:03Z</time>
  <course>23.31</course>
  <speed>0.02</speed>
  <fix>3d</fix>
</trkpt>
<trkpt lat="33.8106436" lon="-118.3938621">
  <ele>-2.0</ele>
  <time>2026-09-01T01:17:03Z</time>
  <course>244.75</course>
  <speed>0.0</speed>
  <fix>3d</fix>
</trkpt>
<trkpt lat="33.8106434" lon="-118.3938619">
  <ele>-2.024</ele>
  <time>2026-09-01T01:17:03Z</time>
  <course>23.33</course>
  <speed>0.02</speed>
  <fix>3d</fix>
</trkpt>
<trkpt lat="33.8106436" lon="-118.3938621">
  <ele>-1.98</ele>
  <time>2026-09-01T01:17:03Z</time>
  <course>244.59</course>
  <speed>0.0</speed>
  <fix>3d</fix>
</trkpt>
<trkpt lat="33.8106434" lon="-118.3938619">
  <ele>-2.013</ele>
  <time>2026-09-01T01:17:03Z</time>
  <course>23.36</course>
  <speed>0.02</speed>
  <fix>3d</fix>
</trkpt>
<trkpt lat="33.8106436" lon="-118.3938621">
  <ele>-1.98</ele>
  <time>2026-09-01T01:17:03Z</time>
  <course>244.59</course>
  <speed>0.0</speed>
  <fix>3d</fix>
</trkpt>
<trkpt lat="33.8106434" lon="-118.3938619">
  <ele>-2.002</ele>
  <time>2026-09-01T01:17:03Z</time>
  <course>23.39</course>
  <speed>0.02</speed>
  <fix>3d</fix>
</trkpt>
<trkpt lat="33.8106436" lon="-118.3938621">
  <ele>-1.97</ele>
  <time>2026-09-01T01:17:03Z</time>
  <course>244.43</course>
  <speed>0.0</speed>
  <fix>3d</fix>
</trkpt>
<trkpt lat="33.8106434" lon="-118.3938619">
  <ele>-1.991</ele>
  <time>2026-09-01T01:17:03Z</time>
  <course>23.41</course>
  <speed>0.02</speed>
  <fix>3d</fix>
</trkpt>
<trkpt lat="33.8106436" lon="-118.3938621">
  <ele>-1.97</ele>
  <time>2026-09-01T01:17:03Z</time>
  <course>244.43</course>
  <speed>0.0</speed>
  <fix>3d</fix>
</trkpt>
<trkpt lat="33.8106434" lon="-118.3938619">
  <ele>-1.98</ele>
  <time>2026-09-01T01:17:03Z</time>
  <course>23.44</course>
  <speed>0.02</speed>
  <fix>3d</fix>
</trkpt>
<trkpt lat="33.8106436" lon="-118.3938621">
  <ele>-1.95</ele>
  <time>2026-09-01T01:17:03Z</time>
  <course>244.37</course>
  <speed>0.0</speed>
  <fix>3d</fix>
</trkpt>
<trkpt lat="33.8106434" lon="-118.3938619">
  <ele>-1.97</ele>
  <time>2026-09-01T01:17:03Z</time>
  <course>23.46</course>
  <speed>0.02</speed>
  <fix>3d</fix>
</trkpt>
<trkpt lat="33.8106436" lon="-118.3938621">
  <ele>-1.95</ele>
  <time>2026-09-01T01:17:03Z</time>
  <course>244.37</course>
  <speed>0.0</speed>
  <fix>3d</fix>
</trkpt>
<trkpt lat="33.8106434" lon="-118.3938619">
  <ele>-1.96</ele>
  <time>2026-09-01T01:17:03Z</time>
  <course>23.49</course>
  <speed>0.02</speed>
  <fix>3d</fix>
</trkpt>
<trkpt lat="33.8106436" lon="-118.3938621">
  <ele>-1.93</ele>
  <time>2026-09-01T01:17:03Z</time>
  <course>244.45</course>
  <speed>0.0</speed>
  <fix>3d</fix>
</trkpt>
<trkpt lat="33.8106434" lon="-118.3938619">
  <ele>-1.95</ele>
  <time>2026-09-01T01:17:03Z</time>
  <course>23.51</course>
  <speed>0.02</speed>
  <fix>3d</fix>
</trkpt>
<trkpt lat="33.8106436" lon="-118.3938621">
  <ele>-1.93</ele>
  <time>2026-09-01T01:17:03Z</time>
  <course>244.45</course>
  <speed>0.0</speed>
  <fix>3d</fix>
</trkpt>
<trkpt lat="33.8106434" lon="-118.3938619">
  <ele>-1.94</ele>
  <time>2026-09-01T01:17:03Z</time>
  <course>23.54</course>
  <speed>0.02</speed>
  <fix>3d</fix>
</trkpt>
<trkpt lat="33.8106436" lon="-118.3938621">
  <ele>-1.91</ele>
  <time>2026-09-01T01:17:03Z</time>
  <course>244.58</course>
  <speed>0.0</speed>
  <fix>3d</fix>
</trkpt>
<trkpt lat="33.8106434" lon="-118.3938619">
  <ele>-1.929</ele>
  <time>2026-09-01T01:17:03Z</time>
  <course>23.56</course>
  <speed>0.02</speed>
  <fix>3d</fix>
</trkpt>
<trkpt lat="33.8106436" lon="-118.3938621">
  <ele>-1.91</ele>
  <time>2026-09-01T01:17:03Z</time>
  <course>244.58</course>
  <speed>0.0</speed>
  <fix>3d</fix>
</trkpt>
<trkpt lat="33.8106434" lon="-118.393862">
  <ele>-1.919</ele>
  <time>2026-09-01T01:17:03Z</time>
  <course>23.59</course>
  <speed>0.02</speed>
  <fix>3d</fix>
</trkpt>
<trkpt lat="33.8106436" lon="-118.3938621">
  <ele>-1.89</ele>
  <time>2026-09-01T01:17:03Z</time>
  <course>244.64</course>
  <speed>0.0</speed>
  <fix>3d</fix>
</trkpt>
<trkpt lat="33.8106434" lon="-118.393862">
  <ele>-1.908</ele>
  <time>2026-09-01T01:17:03Z</time>
  <course>23.61</course>
  <speed>0.02</speed>
  <fix>3d</fix>
</trkpt>
<trkpt lat="33.8106436" lon="-118.3938621">
  <ele>-1.89</ele>
  <time>2026-09-01T01:17:03Z</time>
  <course>244.64</course>
  <speed>0.0</speed>
  <fix>3d</fix>
</trkpt>
<trkpt lat="33.8106434" lon="-118.393862">
  <ele>-1.897</ele>
  <time>2026-09-01T01:17:03Z</time>
  <course>23.63</course>
  <speed>0.02</speed>
  <fix>3d</fix>
</trkpt>
<trkpt lat="33.8106436" lon="-118.3938621">
  <ele>-1.87</ele>
  <time>2026-09-01T01:17:03Z</time>
  <course>244.56</course>
  <speed>0.0</speed>
  <fix>3d</fix>
</trkpt>
<trkpt lat="33.8106434" lon="-118.393862">
  <ele>-1.887</ele>
  <time>2026-09-01T01:17:03Z</time>
  <course>23.66</course>
  <speed>0.02</speed>
  <fix>3d</fix>
</trkpt>
<trkpt lat="33.8106436" lon="-118.3938621">
  <ele>-1.87</ele>
  <time>2026-09-01T01:17:03Z</time>
  <course>244.56</course>
  <speed>0.0</speed>
  <fix>3d</fix>
</trkpt>
<trkpt lat="33.8106434" lon="-118.393862">
  <ele>-1.877</ele>
  <time>2026-09-01T01:17:03Z</time>
  <course>23.68</course>
  <speed>0.02</speed>
  <fix>3d</fix>
</trkpt>
<trkpt lat="33.8106435" lon="-118.3938621">
  <ele>-1.85</ele>
  <time>2026-09-01T01:17:03Z</time>
  <course>244.4</course>
  <speed>0.0</speed>
  <fix>3d</fix>
</trkpt>
<trkpt lat="33.8106434" lon="-118.393862">
  <ele>-1.867</ele>
  <time>2026-09-01T01:17:03Z</time>
  <course>23.7</course>
  <speed>0.02</speed>
  <fix>3d</fix>
</trkpt>
<trkpt lat="33.8106435" lon="-118.3938621">
  <ele>-1.85</ele>
  <time>2026-09-01T01:17:03Z</time>
  <course>244.4</course>
  <speed>0.0</speed>
  <fix>3d</fix>
</trkpt>
<trkpt lat="33.8106434" lon="-118.393862">
  <ele>-1.857</ele>
  <time>2026-09-01T01:17:03Z</time>
  <course>23.73</course>
  <speed>0.02</speed>
  <fix>3d</fix>
</trkpt>
<trkpt lat="33.8106435" lon="-118.3938622">
  <ele>-1.83</ele>
  <time>2026-09-01T01:17:03Z</time>
  <course>244.28</course>
  <speed>0.0</speed>
  <fix>3d</fix>
</trkpt>
<trkpt lat="33.8106434" lon="-118.393862">
  <ele>-1.847</ele>
  <time>2026-09-01T01:17:03Z</time>
  <course>23.75</course>
  <speed>0.02</speed>
  <fix>3d</fix>
</trkpt>
<trkpt lat="33.8106435" lon="-118.3938622">
  <ele>-1.83</ele>
  <time>2026-09-01T01:17:03Z</time>
  <course>244.28</course>
  <speed>0.0</speed>
  <fix>3d</fix>
</trkpt>
<trkpt lat="33.8106434" lon="-118.393862">
  <ele>-1.837</ele>
  <time>2026-09-01T01:17:03Z</time>
  <course>23.77</course>
  <speed>0.02</speed>
  <fix>3d</fix>
</trkpt>
<trkpt lat="33.8106435" lon="-118.3938622">
  <ele>-1.81</ele>
  <time>2026-09-01T01:17:03Z</time>
  <course>244.28</course>
  <speed>0.0</speed>
  <fix>3d</fix>
</trkpt>
<trkpt lat="33.8106434" lon="-118.393862">
  <ele>-1.828</ele>
  <time>2026-09-01T01:17:03Z</time>
  <course>23.79</course>
  <speed>0.03</speed>
  <fix>3d</fix>
</trkpt>
<trkpt lat="33.8106435" lon="-118.3938622">
  <ele>-1.81</ele>
  <time>2026-09-01T01:17:03Z</time>
  <course>244.28</course>
  <speed>0.0</speed>
  <fix>3d</fix>
</trkpt>
<trkpt lat="33.8106434" lon="-118.393862">
  <ele>-1.82</ele>
  <time>2026-09-01T01:17:03Z</time>
  <course>23.81</course>
  <speed>0.03</speed>
  <fix>3d</fix>
</trkpt>
<trkpt lat="33.8106435" lon="-118.3938622">
  <ele>-1.79</ele>
  <time>2026-09-01T01:17:03Z</time>
  <course>244.38</course>
  <speed>0.0</speed>
  <fix>3d</fix>
</trkpt>
<trkpt lat="33.8106434" lon="-118.393862">
  <ele>-1.811</ele>
  <time>2026-09-01T01:17:03Z</time>
  <course>23.84</course>
  <speed>0.03</speed>
  <fix>3d</fix>
</trkpt>
<trkpt lat="33.8106435" lon="-118.3938622">
  <ele>-1.79</ele>
  <time>2026-09-01T01:17:03Z</time>
  <course>244.38</course>
  <speed>0.0</speed>
  <fix>3d</fix>
</trkpt>
<trkpt lat="33.8106434" lon="-118.393862">
  <ele>-1.801</ele>
  <time>2026-09-01T01:17:03Z</time>
  <course>23.86</course>
  <speed>0.03</speed>
  <fix>3d</fix>
</trkpt>
<trkpt lat="33.8106435" lon="-118.3938622">
  <ele>-1.78</ele>
  <time>2026-09-01T01:17:03Z</time>
  <course>244.49</course>
  <speed>0.0</speed>
  <fix>3d</fix>
</trkpt>
<trkpt lat="33.8106433" lon="-118.393862">
  <ele>-1.79</ele>
  <time>2026-09-01T01:17:03Z</time>
  <course>23.88</course>
  <speed>0.03</speed>
  <fix>3d</fix>
</trkpt>
<trkpt lat="33.8106435" lon="-118.3938622">
  <ele>-1.78</ele>
  <time>2026-09-01T01:17:03Z</time>
  <course>244.49</course>
  <speed>0.0</speed>
  <fix>3d</fix>
</trkpt>
<trkpt lat="33.8106433" lon="-118.393862">
  <ele>-1.779</ele>
  <time>2026-09-01T01:17:03Z</time>
  <course>23.9</course>
  <speed>0.03</speed>
  <fix>3d</fix>
</trkpt>
<trkpt lat="33.8106435" lon="-118.3938622">
  <ele>-1.76</ele>
  <time>2026-09-01T01:17:03Z</time>
  <course>244.5</course>
  <speed>0.0</speed>
  <fix>3d</fix>
</trkpt>
<trkpt lat="33.8106433" lon="-118.393862">
  <ele>-1.769</ele>
  <time>2026-09-01T01:17:03Z</time>
  <course>23.92</course>
  <speed>0.03</speed>
  <fix>3d</fix>
</trkpt>
<trkpt lat="33.8106435" lon="-118.3938622">
  <ele>-1.76</ele>
  <time>2026-09-01T01:17:03Z</time>
  <course>244.5</course>
  <speed>0.0</speed>
  <fix>3d</fix>
</trkpt>
<trkpt lat="33.8106433" lon="-118.393862">
  <ele>-1.758</ele>
  <time>2026-09-01T01:17:03Z</time>
  <course>23.94</course>
  <speed>0.03</speed>
  <fix>3d</fix>
</trkpt>
<trkpt lat="33.8106435" lon="-118.3938622">
  <ele>-1.74</ele>
  <time>2026-09-01T01:17:03Z</time>
  <course>244.39</course>
  <speed>0.0</speed>
  <fix>3d</fix>
</trkpt>
<trkpt lat="33.8106433" lon="-118.393862">
  <ele>-1.748</ele>
  <time>2026-09-01T01:17:03Z</time>
  <course>23.96</course>
  <speed>0.03</speed>
  <fix>3d</fix>
</trkpt>
<trkpt lat="33.8106435" lon="-118.3938622">
  <ele>-1.74</ele>
  <time>2026-09-01T01:17:03Z</time>
  <course>244.39</course>
  <speed>0.0</speed>
  <fix>3d</fix>
</trkpt>
<trkpt lat="33.8106433" lon="-118.3938621">
  <ele>-1.739</ele>
  <time>2026-09-01T01:17:03Z</time>
  <course>23.98</course>
  <speed>0.03</speed>
  <fix>3d</fix>
</trkpt>
<trkpt lat="33.8106435" lon="-118.3938622">
  <ele>-1.72</ele>
  <time>2026-09-01T01:17:03Z</time>
  <course>244.24</course>
  <speed>0.0</speed>
  <fix>3d</fix>
</trkpt>
<trkpt lat="33.8106433" lon="-118.3938621">
  <ele>-1.738</ele>
  <time>2026-09-01T01:17:03Z</time>
  <course>23.98</course>
  <speed>0.03</speed>
  <fix>3d</fix>
</trkpt>
<trkpt lat="33.8106433" lon="-118.3938621">
  <ele>-1.732</ele>
  <time>2026-09-01T01:17:03Z</time>
  <course>24.0</course>
  <speed>0.03</speed>
  <fix>3d</fix>
</trkpt>
<trkpt lat="33.8106435" lon="-118.3938622">
  <ele>-1.72</ele>
  <time>2026-09-01T01:17:03Z</time>
  <course>244.24</course>
  <speed>0.0</speed>
  <fix>3d</fix>
</trkpt>
<trkpt lat="33.8106433" lon="-118.3938621">
  <ele>-1.744</ele>
  <time>2026-09-01T01:17:03Z</time>
  <course>24.02</course>
  <speed>0.03</speed>
  <fix>3d</fix>
</trkpt>
<trkpt lat="33.8106435" lon="-118.3938622">
  <ele>-1.7</ele>
  <time>2026-09-01T01:17:03Z</time>
  <course>244.86</course>
  <speed>0.0</speed>
  <fix>3d</fix>
</trkpt>
<trkpt lat="33.8106433" lon="-118.3938621">
  <ele>-1.777</ele>
  <time>2026-09-01T01:17:03Z</time>
  <course>24.04</course>
  <speed>0.03</speed>
  <fix>3d</fix>
</trkpt>
<trkpt lat="33.8106435" lon="-118.3938622">
  <ele>-1.7</ele>
  <time>2026-09-01T01:17:03Z</time>
  <course>244.86</course>
  <speed>0.0</speed>
  <fix>3d</fix>
</trkpt>
<trkpt lat="33.8106433" lon="-118.3938621">
  <ele>-1.826</ele>
  <time>2026-09-01T01:17:03Z</time>
  <course>24.06</course>
  <speed>0.03</speed>
  <fix>3d</fix>
</trkpt>
<trkpt lat="33.8106435" lon="-118.3938622">
  <ele>-1.72</ele>
  <time>2026-09-01T01:17:03Z</time>
  <course>247.46</course>
  <speed>0.0</speed>
  <fix>3d</fix>
</trkpt>
<trkpt lat="33.8106433" lon="-118.3938621">
  <ele>-1.828</ele>
  <time>2026-09-01T01:17:03Z</time>
  <course>24.06</course>
  <speed>0.03</speed>
  <fix>3d</fix>
</trkpt>
<trkpt lat="33.8106433" lon="-118.3938621">
  <ele>-1.883</ele>
  <time>2026-09-01T01:17:03Z</time>
  <course>24.08</course>
  <speed>0.03</speed>
  <fix>3d</fix>
</trkpt>
<trkpt lat="33.8106435" lon="-118.3938622">
  <ele>-1.72</ele>
  <time>2026-09-01T01:17:03Z</time>
  <course>247.46</course>
  <speed>0.0</speed>
  <fix>3d</fix>
</trkpt>
<trkpt lat="33.8106433" lon="-118.3938621">
  <ele>-1.885</ele>
  <time>2026-09-01T01:17:03Z</time>
  <course>24.08</course>
  <speed>0.03</speed>
  <fix>3d</fix>
</trkpt>
<trkpt lat="33.8106433" lon="-118.3938621">
  <ele>-1.946</ele>
  <time>2026-09-01T01:17:03Z</time>
  <course>24.1</course>
  <speed>0.03</speed>
  <fix>3d</fix>
</trkpt>
<trkpt lat="33.8106435" lon="-118.3938623">
  <ele>-1.8</ele>
  <time>2026-09-01T01:17:03Z</time>
  <course>249.77</course>
  <speed>0.0</speed>
  <fix>3d</fix>
</trkpt>
<trkpt lat="33.8106433" lon="-118.3938621">
  <ele>-1.971</ele>
  <time>2026-09-01T01:17:03Z</time>
  <course>24.1</course>
  <speed>0.03</speed>
  <fix>3d</fix>
</trkpt>
<trkpt lat="33.8106433" lon="-118.3938621">
  <ele>-2.011</ele>
  <time>2026-09-01T01:17:03Z</time>
  <course>24.12</course>
  <speed>0.03</speed>
  <fix>3d</fix>
</trkpt>
<trkpt lat="33.8106435" lon="-118.3938623">
  <ele>-1.8</ele>
  <time>2026-09-01T01:17:03Z</time>
  <course>249.77</course>
  <speed>0.0</speed>
  <fix>3d</fix>
</trkpt>
<trkpt lat="33.8106433" lon="-118.3938621">
  <ele>-2.034</ele>
  <time>2026-09-01T01:17:03Z</time>
  <course>24.12</course>
  <speed>0.03</speed>
  <fix>3d</fix>
</trkpt>
<trkpt lat="33.8106433" lon="-118.3938621">
  <ele>-2.075</ele>
  <time>2026-09-01T01:17:03Z</time>
  <course>24.13</course>
  <speed>0.03</speed>
  <fix>3d</fix>
</trkpt>
<trkpt lat="33.8106435" lon="-118.3938623">
  <ele>-1.91</ele>
  <time>2026-09-01T01:17:03Z</time>
  <course>250.21</course>
  <speed>0.0</speed>
  <fix>3d</fix>
</trkpt>
<trkpt lat="33.8106433" lon="-118.3938621">
  <ele>-2.1</ele>
  <time>2026-09-01T01:17:03Z</time>
  <course>24.14</course>
  <speed>0.03</speed>
  <fix>3d</fix>
</trkpt>
<trkpt lat="33.8106433" lon="-118.3938621">
  <ele>-2.142</ele>
  <time>2026-09-01T01:17:03Z</time>
  <course>24.15</course>
  <speed>0.03</speed>
  <fix>3d</fix>
</trkpt>
<trkpt lat="33.8106435" lon="-118.3938623">
  <ele>-1.91</ele>
  <time>2026-09-01T01:17:03Z</time>
  <course>250.21</course>
  <speed>0.0</speed>
  <fix>3d</fix>
</trkpt>
<trkpt lat="33.8106433" lon="-118.3938621">
  <ele>-2.165</ele>
  <time>2026-09-01T01:17:03Z</time>
  <course>24.16</course>
  <speed>0.03</speed>
  <fix>3d</fix>
</trkpt>
<trkpt lat="33.8106433" lon="-118.3938621">
  <ele>-2.207</ele>
  <time>2026-09-01T01:17:03Z</time>
  <course>24.17</course>
  <speed>0.03</speed>
  <fix>3d</fix>
</trkpt>
<trkpt lat="33.8106435" lon="-118.3938623">
  <ele>-2.03</ele>
  <time>2026-09-01T01:17:03Z</time>
  <course>250.07</course>
  <speed>0.0</speed>
  <fix>3d</fix>
</trkpt>
<trkpt lat="33.8106433" lon="-118.3938621">
  <ele>-2.209</ele>
  <time>2026-09-01T01:17:03Z</time>
  <course>24.17</course>
  <speed>0.03</speed>
  <fix>3d</fix>
</trkpt>
<trkpt lat="33.8106433" lon="-118.3938621">
  <ele>-2.274</ele>
  <time>2026-09-01T01:17:03Z</time>
  <course>24.19</course>
  <speed>0.03</speed>
  <fix>3d</fix>
</trkpt>
<trkpt lat="33.8106435" lon="-118.3938623">
  <ele>-2.03</ele>
  <time>2026-09-01T01:17:03Z</time>
  <course>250.07</course>
  <speed>0.0</speed>
  <fix>3d</fix>
</trkpt>
<trkpt lat="33.8106433" lon="-118.3938621">
  <ele>-2.297</ele>
  <time>2026-09-01T01:17:03Z</time>
  <course>24.19</course>
  <speed>0.03</speed>
  <fix>3d</fix>
</trkpt>
<trkpt lat="33.8106433" lon="-118.3938621">
  <ele>-2.339</ele>
  <time>2026-09-01T01:17:03Z</time>
  <course>24.21</course>
  <speed>0.03</speed>
  <fix>3d</fix>
</trkpt>
<trkpt lat="33.8106435" lon="-118.3938623">
  <ele>-2.15</ele>
  <time>2026-09-01T01:17:03Z</time>
  <course>249.85</course>
  <speed>0.0</speed>
  <fix>3d</fix>
</trkpt>
<trkpt lat="33.8106433" lon="-118.3938621">
  <ele>-2.362</ele>
  <time>2026-09-01T01:17:03Z</time>
  <course>24.21</course>
  <speed>0.03</speed>
  <fix>3d</fix>
</trkpt>
<trkpt lat="33.8106433" lon="-118.3938621">
  <ele>-2.404</ele>
  <time>2026-09-01T01:17:03Z</time>
  <course>24.22</course>
  <speed>0.03</speed>
  <fix>3d</fix>
</trkpt>
<trkpt lat="33.8106435" lon="-118.3938623">
  <ele>-2.15</ele>
  <time>2026-09-01T01:17:03Z</time>
  <course>249.85</course>
  <speed>0.0</speed>
  <fix>3d</fix>
</trkpt>
<trkpt lat="33.8106433" lon="-118.3938621">
  <ele>-2.426</ele>
  <time>2026-09-01T01:17:03Z</time>
  <course>24.23</course>
  <speed>0.03</speed>
  <fix>3d</fix>
</trkpt>
<trkpt lat="33.8106433" lon="-118.3938621">
  <ele>-2.47</ele>
  <time>2026-09-01T01:17:03Z</time>
  <course>23.0</course>
  <speed>0.03</speed>
  <fix>3d</fix>
</trkpt>
<trkpt lat="33.8106435" lon="-118.3938623">
  <ele>-2.27</ele>
  <time>2026-09-01T01:17:03Z</time>
  <course>249.68</course>
  <speed>0.0</speed>
  <fix>3d</fix>
</trkpt>
<trkpt lat="33.8106433" lon="-118.3938621">
  <ele>-2.472</ele>
  <time>2026-09-01T01:17:03Z</time>
  <course>23.0</course>
  <speed>0.03</speed>
  <fix>3d</fix>
</trkpt>
<trkpt lat="33.8106433" lon="-118.3938622">
  <ele>-2.537</ele>
  <time>2026-09-01T01:17:03Z</time>
  <course>23.02</course>
  <speed>0.03</speed>
  <fix>3d</fix>
</trkpt>
<trkpt lat="33.8106435" lon="-118.3938623">
  <ele>-2.27</ele>
  <time>2026-09-01T01:17:03Z</time>
  <course>249.68</course>
  <speed>0.0</speed>
  <fix>3d</fix>
</trkpt>
<trkpt lat="33.8106433" lon="-118.3938622">
  <ele>-2.539</ele>
  <time>2026-09-01T01:17:03Z</time>
  <course>23.02</course>
  <speed>0.03</speed>
  <fix>3d</fix>
</trkpt>
<trkpt lat="33.8106433" lon="-118.3938622">
  <ele>-2.602</ele>
  <time>2026-09-01T01:17:03Z</time>
  <course>23.04</course>
  <speed>0.03</speed>
  <fix>3d</fix>
</trkpt>
<trkpt lat="33.8106435" lon="-118.3938623">
  <ele>-2.38</ele>
  <time>2026-09-01T01:17:03Z</time>
  <course>249.65</course>
  <speed>0.0</speed>
  <fix>3d</fix>
</trkpt>
<trkpt lat="33.8106433" lon="-118.3938622">
  <ele>-2.605</ele>
  <time>2026-09-01T01:17:03Z</time>
  <course>23.04</course>
  <speed>0.03</speed>
  <fix>3d</fix>
</trkpt>
<trkpt lat="33.8106433" lon="-118.3938622">
  <ele>-2.668</ele>
  <time>2026-09-01T01:17:03Z</time>
  <course>23.06</course>
  <speed>0.03</speed>
  <fix>3d</fix>
</trkpt>
<trkpt lat="33.8106435" lon="-118.3938623">
  <ele>-2.38</ele>
  <time>2026-09-01T01:17:03Z</time>
  <course>249.65</course>
  <speed>0.0</speed>
  <fix>3d</fix>
</trkpt>
<trkpt lat="33.8106433" lon="-118.3938622">
  <ele>-2.67</ele>
  <time>2026-09-01T01:17:03Z</time>
  <course>23.06</course>
  <speed>0.03</speed>
  <fix>3d</fix>
</trkpt>
<trkpt lat="33.8106433" lon="-118.3938622">
  <ele>-2.732</ele>
  <time>2026-09-01T01:17:03Z</time>
  <course>23.08</course>
  <speed>0.03</speed>
  <fix>3d</fix>
</trkpt>
<trkpt lat="33.8106435" lon="-118.3938623">
  <ele>-2.51</ele>
  <time>2026-09-01T01:17:03Z</time>
  <course>249.73</course>
  <speed>0.0</speed>
  <fix>3d</fix>
</trkpt>
<trkpt lat="33.8106433" lon="-118.3938622">
  <ele>-2.734</ele>
  <time>2026-09-01T01:17:03Z</time>
  <course>23.09</course>
  <speed>0.03</speed>
  <fix>3d</fix>
</trkpt>
<trkpt lat="33.8106433" lon="-118.3938622">
  <ele>-2.796</ele>
  <time>2026-09-01T01:17:03Z</time>
  <course>23.11</course>
  <speed>0.03</speed>
  <fix>3d</fix>
</trkpt>
<trkpt lat="33.8106435" lon="-118.3938623">
  <ele>-2.51</ele>
  <time>2026-09-01T01:17:03Z</time>
  <course>249.73</course>
  <speed>0.0</speed>
  <fix>3d</fix>
</trkpt>
<trkpt lat="33.8106433" lon="-118.3938622">
  <ele>-2.798</ele>
  <time>2026-09-01T01:17:03Z</time>
  <course>23.11</course>
  <speed>0.03</speed>
  <fix>3d</fix>
</trkpt>
<trkpt lat="33.8106433" lon="-118.3938622">
  <ele>-2.86</ele>
  <time>2026-09-01T01:17:03Z</time>
  <course>23.13</course>
  <speed>0.03</speed>
  <fix>3d</fix>
</trkpt>
<trkpt lat="33.8106435" lon="-118.3938623">
  <ele>-2.63</ele>
  <time>2026-09-01T01:17:03Z</time>
  <course>249.83</course>
  <speed>0.0</speed>
  <fix>3d</fix>
</trkpt>
<trkpt lat="33.8106433" lon="-118.3938622">
  <ele>-2.861</ele>
  <time>2026-09-01T01:17:03Z</time>
  <course>23.13</course>
  <speed>0.03</speed>
  <fix>3d</fix>
</trkpt>
<trkpt lat="33.8106433" lon="-118.3938622">
  <ele>-2.923</ele>
  <time>2026-09-01T01:17:03Z</time>
  <course>23.14</course>
  <speed>0.03</speed>
  <fix>3d</fix>
</trkpt>
<trkpt lat="33.8106435" lon="-118.3938623">
  <ele>-2.63</ele>
  <time>2026-09-01T01:17:03Z</time>
  <course>249.83</course>
  <speed>0.0</speed>
  <fix>3d</fix>
</trkpt>
<trkpt lat="33.8106433" lon="-118.3938622">
  <ele>-2.945</ele>
  <time>2026-09-01T01:17:03Z</time>
  <course>23.15</course>
  <speed>0.03</speed>
  <fix>3d</fix>
</trkpt>
<trkpt lat="33.8106433" lon="-118.3938622">
  <ele>-2.986</ele>
  <time>2026-09-01T01:17:03Z</time>
  <course>23.16</course>
  <speed>0.03</speed>
  <fix>3d</fix>
</trkpt>
<trkpt lat="33.8106435" lon="-118.3938623">
  <ele>-2.75</ele>
  <time>2026-09-01T01:17:03Z</time>
  <course>249.83</course>
  <speed>0.0</speed>
  <fix>3d</fix>
</trkpt>
<trkpt lat="33.8106433" lon="-118.3938622">
  <ele>-2.987</ele>
  <time>2026-09-01T01:17:03Z</time>
  <course>23.16</course>
  <speed>0.03</speed>
  <fix>3d</fix>
</trkpt>
<trkpt lat="33.8106433" lon="-118.3938622">
  <ele>-3.049</ele>
  <time>2026-09-01T01:17:03Z</time>
  <course>23.18</course>
  <speed>0.03</speed>
  <fix>3d</fix>
</trkpt>
<trkpt lat="33.8106435" lon="-118.3938623">
  <ele>-2.75</ele>
  <time>2026-09-01T01:17:03Z</time>
  <course>249.83</course>
  <speed>0.0</speed>
  <fix>3d</fix>
</trkpt>
<trkpt lat="33.8106433" lon="-118.3938622">
  <ele>-3.051</ele>
  <time>2026-09-01T01:17:03Z</time>
  <course>23.18</course>
  <speed>0.03</speed>
  <fix>3d</fix>
</trkpt>
<trkpt lat="33.8106433" lon="-118.3938622">
  <ele>-3.113</ele>
  <time>2026-09-01T01:17:03Z</time>
  <course>23.19</course>
  <speed>0.03</speed>
  <fix>3d</fix>
</trkpt>
<trkpt lat="33.8106435" lon="-118.3938624">
  <ele>-2.87</ele>
  <time>2026-09-01T01:17:03Z</time>
  <course>249.7</course>
  <speed>0.0</speed>
  <fix>3d</fix>
</trkpt>
<trkpt lat="33.8106433" lon="-118.3938622">
  <ele>-3.114</ele>
  <time>2026-09-01T01:17:03Z</time>
  <course>23.2</course>
  <speed>0.03</speed>
  <fix>3d</fix>
</trkpt>
<trkpt lat="33.8106432" lon="-118.3938622">
  <ele>-3.176</ele>
  <time>2026-09-01T01:17:03Z</time>
  <course>23.21</course>
  <speed>0.03</speed>
  <fix>3d</fix>
</trkpt>
<trkpt lat="33.8106435" lon="-118.3938624">
  <ele>-2.87</ele>
  <time>2026-09-01T01:17:03Z</time>
  <course>249.7</course>
  <speed>0.0</speed>
  <fix>3d</fix>
</trkpt>
<trkpt lat="33.8106432" lon="-118.3938622">
  <ele>-3.177</ele>
  <time>2026-09-01T01:17:03Z</time>
  <course>23.21</course>
  <speed>0.03</speed>
  <fix>3d</fix>
</trkpt>
<trkpt lat="33.8106432" lon="-118.3938622">
  <ele>-3.238</ele>
  <time>2026-09-01T01:17:03Z</time>
  <course>23.23</course>
  <speed>0.03</speed>
  <fix>3d</fix>
</trkpt>
<trkpt lat="33.8106435" lon="-118.3938624">
  <ele>-2.99</ele>
  <time>2026-09-01T01:17:03Z</time>
  <course>249.52</course>
  <speed>0.0</speed>
  <fix>3d</fix>
</trkpt>
<trkpt lat="33.8106432" lon="-118.3938622">
  <ele>-3.24</ele>
  <time>2026-09-01T01:17:03Z</time>
  <course>23.23</course>
  <speed>0.03</speed>
  <fix>3d</fix>
</trkpt>
<trkpt lat="33.8106432" lon="-118.3938622">
  <ele>-3.3</ele>
  <time>2026-09-01T01:17:03Z</time>
  <course>23.25</course>
  <speed>0.03</speed>
  <fix>3d</fix>
</trkpt>
<trkpt lat="33.8106435" lon="-118.3938624">
  <ele>-2.99</ele>
  <time>2026-09-01T01:17:03Z</time>
  <course>249.52</course>
  <speed>0.0</speed>
  <fix>3d</fix>
</trkpt>
<trkpt lat="33.8106432" lon="-118.3938622">
  <ele>-3.301</ele>
  <time>2026-09-01T01:17:03Z</time>
  <course>23.25</course>
  <speed>0.03</speed>
  <fix>3d</fix>
</trkpt>
<trkpt lat="33.8106432" lon="-118.3938622">
  <ele>-3.359</ele>
  <time>2026-09-01T01:17:03Z</time>
  <course>23.27</course>
  <speed>0.03</speed>
  <fix>3d</fix>
</trkpt>
<trkpt lat="33.8106435" lon="-118.3938624">
  <ele>-3.11</ele>
  <time>2026-09-01T01:17:03Z</time>
  <course>249.4</course>
  <speed>0.0</speed>
  <fix>3d</fix>
</trkpt>
<trkpt lat="33.8106432" lon="-118.3938622">
  <ele>-3.362</ele>
  <time>2026-09-01T01:17:03Z</time>
  <course>23.27</course>
  <speed>0.03</speed>
  <fix>3d</fix>
</trkpt>
<trkpt lat="33.8106432" lon="-118.3938622">
  <ele>-3.419</ele>
  <time>2026-09-01T01:17:03Z</time>
  <course>23.29</course>
  <speed>0.03</speed>
  <fix>3d</fix>
</trkpt>
<trkpt lat="33.8106435" lon="-118.3938624">
  <ele>-3.11</ele>
  <time>2026-09-01T01:17:03Z</time>
  <course>249.4</course>
  <speed>0.0</speed>
  <fix>3d</fix>
</trkpt>
<trkpt lat="33.8106432" lon="-118.3938622">
  <ele>-3.422</ele>
  <time>2026-09-01T01:17:03Z</time>
  <course>23.29</course>
  <speed>0.03</speed>
  <fix>3d</fix>
</trkpt>
<trkpt lat="33.8106432" lon="-118.3938622">
  <ele>-3.479</ele>
  <time>2026-09-01T01:17:03Z</time>
  <course>23.31</course>
  <speed>0.03</speed>
  <fix>3d</fix>
</trkpt>
<trkpt lat="33.8106435" lon="-118.3938624">
  <ele>-3.23</ele>
  <time>2026-09-01T01:17:03Z</time>
  <course>249.42</course>
  <speed>0.0</speed>
  <fix>3d</fix>
</trkpt>
<trkpt lat="33.8106432" lon="-118.3938622">
  <ele>-3.482</ele>
  <time>2026-09-01T01:17:03Z</time>
  <course>23.31</course>
  <speed>0.03</speed>
  <fix>3d</fix>
</trkpt>
<trkpt lat="33.8106432" lon="-118.3938622">
  <ele>-3.538</ele>
  <time>2026-09-01T01:17:03Z</time>
  <course>23.39</course>
  <speed>0.04</speed>
  <fix>3d</fix>
</trkpt>
<trkpt lat="33.8106435" lon="-118.3938624">
  <ele>-3.23</ele>
  <time>2026-09-01T01:17:03Z</time>
  <course>249.42</course>
  <speed>0.0</speed>
  <fix>3d</fix>
</trkpt>
<trkpt lat="33.8106432" lon="-118.3938622">
  <ele>-3.558</ele>
  <time>2026-09-01T01:17:03Z</time>
  <course>23.43</course>
  <speed>0.04</speed>
  <fix>3d</fix>
</trkpt>
<trkpt lat="33.8106432" lon="-118.3938622">
  <ele>-3.598</ele>
  <time>2026-09-01T01:17:03Z</time>
  <course>23.52</course>
  <speed>0.04</speed>
  <fix>3d</fix>
</trkpt>
<trkpt lat="33.8106435" lon="-118.3938624">
  <ele>-3.36</ele>
  <time>2026-09-01T01:17:03Z</time>
  <course>249.52</course>
  <speed>0.0</speed>
  <fix>3d</fix>
</trkpt>
<trkpt lat="33.8106432" lon="-118.3938622">
  <ele>-3.619</ele>
  <time>2026-09-01T01:17:03Z</time>
  <course>23.55</course>
  <speed>0.04</speed>
  <fix>3d</fix>
</trkpt>
<trkpt lat="33.8106432" lon="-118.3938622">
  <ele>-3.658</ele>
  <time>2026-09-01T01:17:03Z</time>
  <course>23.61</course>
  <speed>0.04</speed>
  <fix>3d</fix>
</trkpt>
<trkpt lat="33.8106435" lon="-118.3938624">
  <ele>-3.36</ele>
  <time>2026-09-01T01:17:03Z</time>
  <course>249.52</course>
  <speed>0.0</speed>
  <fix>3d</fix>
</trkpt>
<trkpt lat="33.8106432" lon="-118.3938622">
  <ele>-3.678</ele>
  <time>2026-09-01T01:17:03Z</time>
  <course>23.63</course>
  <speed>0.04</speed>
  <fix>3d</fix>
</trkpt>
<trkpt lat="33.8106432" lon="-118.3938622">
  <ele>-3.717</ele>
  <time>2026-09-01T01:17:03Z</time>
  <course>23.66</course>
  <speed>0.0412310562561766</speed>
  <fix>3d</fix>
</trkpt>
<trkpt lat="33.8106435" lon="-118.3938624">
  <ele>-3.48</ele>
  <time>2026-09-01T01:17:03Z</time>
  <course>249.59</course>
  <speed>0.0</speed>
  <fix>3d</fix>
</trkpt>
<trkpt lat="33.8106432" lon="-118.3938622">
  <ele>-3.738</ele>
  <time>2026-09-01T01:17:03Z</time>
  <course>23.67</course>
  <speed>0.0412310562561766</speed>
  <fix>3d</fix>
</trkpt>
<trkpt lat="33.8106432" lon="-118.3938622">
  <ele>-3.778</ele>
  <time>2026-09-01T01:17:03Z</time>
  <course>23.68</course>
  <speed>0.0412310562561766</speed>
  <fix>3d</fix>
</trkpt>
<trkpt lat="33.8106435" lon="-118.3938624">
  <ele>-3.48</ele>
  <time>2026-09-01T01:17:03Z</time>
  <course>249.59</course>
  <speed>0.0</speed>
  <fix>3d</fix>
</trkpt>
<trkpt lat="33.8106432" lon="-118.3938622">
  <ele>-3.8</ele>
  <time>2026-09-01T01:17:03Z</time>
  <course>23.69</course>
  <speed>0.0412310562561766</speed>
  <fix>3d</fix>
</trkpt>
<trkpt lat="33.8106432" lon="-118.3938622">
  <ele>-3.838</ele>
  <time>2026-09-01T01:17:03Z</time>
  <course>23.7</course>
  <speed>0.0412310562561766</speed>
  <fix>3d</fix>
</trkpt>
<trkpt lat="33.8106435" lon="-118.3938624">
  <ele>-3.6</ele>
  <time>2026-09-01T01:17:03Z</time>
  <course>249.55</course>
  <speed>0.0</speed>
  <fix>3d</fix>
</trkpt>
<trkpt lat="33.8106432" lon="-118.3938622">
  <ele>-3.839</ele>
  <time>2026-09-01T01:17:03Z</time>
  <course>23.7</course>
  <speed>0.0412310562561766</speed>
  <fix>3d</fix>
</trkpt>
<trkpt lat="33.8106432" lon="-118.3938622">
  <ele>-3.897</ele>
  <time>2026-09-01T01:17:03Z</time>
  <course>23.72</course>
  <speed>0.0412310562561766</speed>
  <fix>3d</fix>
</trkpt>
<trkpt lat="33.8106435" lon="-118.3938624">
  <ele>-3.6</ele>
  <time>2026-09-01T01:17:03Z</time>
  <course>249.55</course>
  <speed>0.0</speed>
  <fix>3d</fix>
</trkpt>
<trkpt lat="33.8106432" lon="-118.3938622">
  <ele>-3.918</ele>
  <time>2026-09-01T01:17:03Z</time>
  <course>23.73</course>
  <speed>0.0412310562561766</speed>
  <fix>3d</fix>
</trkpt>
<trkpt lat="33.8106432" lon="-118.3938622">
  <ele>-3.957</ele>
  <time>2026-09-01T01:17:03Z</time>
  <course>23.74</course>
  <speed>0.0412310562561766</speed>
  <fix>3d</fix>
</trkpt>
<trkpt lat="33.8106435" lon="-118.3938624">
  <ele>-3.72</ele>
  <time>2026-09-01T01:17:03Z</time>
  <course>249.39</course>
  <speed>0.0</speed>
  <fix>3d</fix>
</trkpt>
<trkpt lat="33.8106432" lon="-118.3938622">
  <ele>-3.977</ele>
  <time>2026-09-01T01:17:03Z</time>
  <course>23.75</course>
  <speed>0.0412310562561766</speed>
  <fix>3d</fix>
</trkpt>
<trkpt lat="33.8106431" lon="-118.3938622">
  <ele>-4.017</ele>
  <time>2026-09-01T01:17:03Z</time>
  <course>23.76</course>
  <speed>0.0412310562561766</speed>
  <fix>3d</fix>
</trkpt>
<trkpt lat="33.8106435" lon="-118.3938624">
  <ele>-3.72</ele>
  <time>2026-09-01T01:17:03Z</time>
  <course>249.39</course>
  <speed>0.0</speed>
  <fix>3d</fix>
</trkpt>
<trkpt lat="33.8106431" lon="-118.3938622">
  <ele>-4.019</ele>
  <time>2026-09-01T01:17:03Z</time>
  <course>23.76</course>
  <speed>0.0412310562561766</speed>
  <fix>3d</fix>
</trkpt>
<trkpt lat="33.8106431" lon="-118.3938622">
  <ele>-4.077</ele>
  <time>2026-09-01T01:17:03Z</time>
  <course>23.78</course>
  <speed>0.0412310562561766</speed>
  <fix>3d</fix>
</trkpt>
<trkpt lat="33.8106434" lon="-118.3938624">
  <ele>-3.84</ele>
  <time>2026-09-01T01:17:03Z</time>
  <course>249.23</course>
  <speed>0.0</speed>
  <fix>3d</fix>
</trkpt>
<trkpt lat="33.8106431" lon="-118.3938622">
  <ele>-4.096</ele>
  <time>2026-09-01T01:17:03Z</time>
  <course>23.79</course>
  <speed>0.0412310562561766</speed>
  <fix>3d</fix>
</trkpt>
<trkpt lat="33.8106431" lon="-118.3938622">
  <ele>-4.136</ele>
  <time>2026-09-01T01:17:03Z</time>
  <course>23.8</course>
  <speed>0.0412310562561766</speed>
  <fix>3d</fix>
</trkpt>
<trkpt lat="33.8106434" lon="-118.3938624">
  <ele>-3.84</ele>
  <time>2026-09-01T01:17:03Z</time>
  <course>249.23</course>
  <speed>0.0</speed>
  <fix>3d</fix>
</trkpt>
<trkpt lat="33.8106431" lon="-118.3938622">
  <ele>-4.157</ele>
  <time>2026-09-01T01:17:03Z</time>
  <course>23.81</course>
  <speed>0.0412310562561766</speed>
  <fix>3d</fix>
</trkpt>
<trkpt lat="33.8106431" lon="-118.3938622">
  <ele>-4.196</ele>
  <time>2026-09-01T01:17:03Z</time>
  <course>23.82</course>
  <speed>0.0412310562561766</speed>
  <fix>3d</fix>
</trkpt>
<trkpt lat="33.8106433" lon="-118.3938625">
  <ele>-3.96</ele>
  <time>2026-09-01T01:17:03Z</time>
  <course>249.16</course>
  <speed>0.0</speed>
  <fix>3d</fix>
</trkpt>
<trkpt lat="33.8106431" lon="-118.3938622">
  <ele>-4.216</ele>
  <time>2026-09-01T01:17:03Z</time>
  <course>23.83</course>
  <speed>0.0412310562561766</speed>
  <fix>3d</fix>
</trkpt>
<trkpt lat="33.8106431" lon="-118.3938622">
  <ele>-4.256</ele>
  <time>2026-09-01T01:17:03Z</time>
  <course>23.84</course>
  <speed>0.0412310562561766</speed>
  <fix>3d</fix>
</trkpt>
<trkpt lat="33.8106433" lon="-118.3938625">
  <ele>-3.96</ele>
  <time>2026-09-01T01:17:03Z</time>
  <course>249.16</course>
  <speed>0.0</speed>
  <fix>3d</fix>
</trkpt>
<trkpt lat="33.8106431" lon="-118.3938622">
  <ele>-4.275</ele>
  <time>2026-09-01T01:17:03Z</time>
  <course>23.84</course>
  <speed>0.0412310562561766</speed>
  <fix>3d</fix>
</trkpt>
<trkpt lat="33.8106431" lon="-118.3938622">
  <ele>-4.316</ele>
  <time>2026-09-01T01:17:03Z</time>
  <course>23.86</course>
  <speed>0.0412310562561766</speed>
  <fix>3d</fix>
</trkpt>
<trkpt lat="33.8106433" lon="-118.3938625">
  <ele>-4.08</ele>
  <time>2026-09-01T01:17:03Z</time>
  <course>249.22</course>
  <speed>0.0</speed>
  <fix>3d</fix>
</trkpt>
<trkpt lat="33.8106431" lon="-118.3938623">
  <ele>-4.339</ele>
  <time>2026-09-01T01:17:03Z</time>
  <course>23.86</course>
  <speed>0.0412310562561766</speed>
  <fix>3d</fix>
</trkpt>
<trkpt lat="33.8106431" lon="-118.3938623">
  <ele>-4.377</ele>
  <time>2026-09-01T01:17:03Z</time>
  <course>23.87</course>
  <speed>0.0412310562561766</speed>
  <fix>3d</fix>
</trkpt>
<trkpt lat="33.8106433" lon="-118.3938625">
  <ele>-4.08</ele>
  <time>2026-09-01T01:17:03Z</time>
  <course>249.22</course>
  <speed>0.0</speed>
  <fix>3d</fix>
</trkpt>
<trkpt lat="33.8106431" lon="-118.3938623">
  <ele>-4.403</ele>
  <time>2026-09-01T01:17:03Z</time>
  <course>23.88</course>
  <speed>0.0412310562561766</speed>
  <fix>3d</fix>
</trkpt>
<trkpt lat="33.8106431" lon="-118.3938623">
  <ele>-4.439</ele>
  <time>2026-09-01T01:17:03Z</time>
  <course>23.89</course>
  <speed>0.0412310562561766</speed>
  <fix>3d</fix>
</trkpt>
<trkpt lat="33.8106433" lon="-118.3938625">
  <ele>-4.2</ele>
  <time>2026-09-01T01:17:03Z</time>
  <course>249.32</course>
  <speed>0.0</speed>
  <fix>3d</fix>
</trkpt>
<trkpt lat="33.8106431" lon="-118.3938623">
  <ele>-4.44</ele>
  <time>2026-09-01T01:17:03Z</time>
  <course>23.89</course>
  <speed>0.0412310562561766</speed>
  <fix>3d</fix>
</trkpt>
<trkpt lat="33.810643" lon="-118.3938623">
  <ele>-4.501</ele>
  <time>2026-09-01T01:17:03Z</time>
  <course>23.91</course>
  <speed>0.0412310562561766</speed>
  <fix>3d</fix>
</trkpt>
<trkpt lat="33.8106433" lon="-118.3938625">
  <ele>-4.2</ele>
  <time>2026-09-01T01:17:03Z</time>
  <course>249.32</course>
  <speed>0.0</speed>
  <fix>3d</fix>
</trkpt>
<trkpt lat="33.810643" lon="-118.3938623">
  <ele>-4.503</ele>
  <time>2026-09-01T01:17:03Z</time>
  <course>23.91</course>
  <speed>0.0412310562561766</speed>
  <fix>3d</fix>
</trkpt>
<trkpt lat="33.810643" lon="-118.3938623">
  <ele>-4.564</ele>
  <time>2026-09-01T01:17:03Z</time>
  <course>23.92</course>
  <speed>0.0412310562561766</speed>
  <fix>3d</fix>
</trkpt>
<trkpt lat="33.8106433" lon="-118.3938625">
  <ele>-4.32</ele>
  <time>2026-09-01T01:17:03Z</time>
  <course>249.36</course>
  <speed>0.0</speed>
  <fix>3d</fix>
</trkpt>
<trkpt lat="33.810643" lon="-118.3938623">
  <ele>-4.584</ele>
  <time>2026-09-01T01:17:03Z</time>
  <course>23.93</course>
  <speed>0.0412310562561766</speed>
  <fix>3d</fix>
</trkpt>
<trkpt lat="33.810643" lon="-118.3938623">
  <ele>-4.626</ele>
  <time>2026-09-01T01:17:03Z</time>
  <course>23.94</course>
  <speed>0.0412310562561766</speed>
  <fix>3d</fix>
</trkpt>
<trkpt lat="33.8106433" lon="-118.3938625">
  <ele>-4.32</ele>
  <time>2026-09-01T01:17:03Z</time>
  <course>249.36</course>
  <speed>0.0</speed>
  <fix>3d</fix>
</trkpt>
<trkpt lat="33.810643" lon="-118.3938623">
  <ele>-4.654</ele>
  <time>2026-09-01T01:17:03Z</time>
  <course>23.95</course>
  <speed>0.0412310562561766</speed>
  <fix>3d</fix>
</trkpt>
<trkpt lat="33.810643" lon="-118.3938623">
  <ele>-4.69</ele>
  <time>2026-09-01T01:17:03Z</time>
  <course>23.96</course>
  <speed>0.0412310562561766</speed>
  <fix>3d</fix>
</trkpt>
<trkpt lat="33.8106433" lon="-118.3938625">
  <ele>-4.44</ele>
  <time>2026-09-01T01:17:03Z</time>
  <course>249.27</course>
  <speed>0.0</speed>
  <fix>3d</fix>
</trkpt>
<trkpt lat="33.810643" lon="-118.3938623">
  <ele>-4.711</ele>
  <time>2026-09-01T01:17:03Z</time>
  <course>23.96</course>
  <speed>0.0412310562561766</speed>
  <fix>3d</fix>
</trkpt>
<trkpt lat="33.810643" lon="-118.3938623">
  <ele>-4.753</ele>
  <time>2026-09-01T01:17:03Z</time>
  <course>23.97</course>
  <speed>0.0412310562561766</speed>
  <fix>3d</fix>
</trkpt>
<trkpt lat="33.8106433" lon="-118.3938625">
  <ele>-4.44</ele>
  <time>2026-09-01T01:17:03Z</time>
  <course>249.27</course>
  <speed>0.0</speed>
  <fix>3d</fix>
</trkpt>
<trkpt lat="33.810643" lon="-118.3938623">
  <ele>-4.774</ele>
  <time>2026-09-01T01:17:03Z</time>
  <course>23.98</course>
  <speed>0.0412310562561766</speed>
  <fix>3d</fix>
</trkpt>
<trkpt lat="33.810643" lon="-118.3938623">
  <ele>-4.816</ele>
  <time>2026-09-01T01:17:03Z</time>
  <course>23.99</course>
  <speed>0.04</speed>
  <fix>3d</fix>
</trkpt>
<trkpt lat="33.8106433" lon="-118.3938625">
  <ele>-4.56</ele>
  <time>2026-09-01T01:17:03Z</time>
  <course>249.11</course>
  <speed>0.0</speed>
  <fix>3d</fix>
</trkpt>
<trkpt lat="33.810643" lon="-118.3938623">
  <ele>-4.836</ele>
  <time>2026-09-01T01:17:03Z</time>
  <course>23.99</course>
  <speed>0.04</speed>
  <fix>3d</fix>
</trkpt>
<trkpt lat="33.810643" lon="-118.3938623">
  <ele>-4.879</ele>
  <time>2026-09-01T01:17:03Z</time>
  <course>24.0</course>
  <speed>0.04</speed>
  <fix>3d</fix>
</trkpt>
<trkpt lat="33.8106433" lon="-118.3938625">
  <ele>-4.56</ele>
  <time>2026-09-01T01:17:03Z</time>
  <course>249.11</course>
  <speed>0.0</speed>
  <fix>3d</fix>
</trkpt>
<trkpt lat="33.810643" lon="-118.3938623">
  <ele>-4.901</ele>
  <time>2026-09-01T01:17:03Z</time>
  <course>24.01</course>
  <speed>0.04</speed>
  <fix>3d</fix>
</trkpt>
<trkpt lat="33.810643" lon="-118.3938623">
  <ele>-4.94</ele>
  <time>2026-09-01T01:17:03Z</time>
  <course>24.02</course>
  <speed>0.04</speed>
  <fix>3d</fix>
</trkpt>
<trkpt lat="33.8106433" lon="-118.3938625">
  <ele>-4.68</ele>
  <time>2026-09-01T01:17:03Z</time>
  <course>248.98</course>
  <speed>0.0</speed>
  <fix>3d</fix>
</trkpt>
<trkpt lat="33.810643" lon="-118.3938623">
  <ele>-4.962</ele>
  <time>2026-09-01T01:17:03Z</time>
  <course>24.02</course>
  <speed>0.04</speed>
  <fix>3d</fix>
</trkpt>
<trkpt lat="33.810643" lon="-118.3938623">
  <ele>-5.001</ele>
  <time>2026-09-01T01:17:03Z</time>
  <course>24.03</course>
  <speed>0.04</speed>
  <fix>3d</fix>
</trkpt>
<trkpt lat="33.8106433" lon="-118.3938625">
  <ele>-4.68</ele>
  <time>2026-09-01T01:17:03Z</time>
  <course>248.98</course>
  <speed>0.0</speed>
  <fix>3d</fix>
</trkpt>
<trkpt lat="33.810643" lon="-118.3938623">
  <ele>-5.022</ele>
  <time>2026-09-01T01:17:03Z</time>
  <course>24.04</course>
  <speed>0.04</speed>
  <fix>3d</fix>
</trkpt>
<trkpt lat="33.810643" lon="-118.3938623">
  <ele>-5.062</ele>
  <time>2026-09-01T01:17:03Z</time>
  <course>24.05</course>
  <speed>0.03</speed>
  <fix>3d</fix>
</trkpt>
<trkpt lat="33.8106433" lon="-118.3938625">
  <ele>-4.8</ele>
  <time>2026-09-01T01:17:03Z</time>
  <course>248.96</course>
  <speed>0.0</speed>
  <fix>3d</fix>
</trkpt>
<trkpt lat="33.810643" lon="-118.3938623">
  <ele>-5.081</ele>
  <time>2026-09-01T01:17:03Z</time>
  <course>24.06</course>
  <speed>0.03</speed>
  <fix>3d</fix>
</trkpt>
<trkpt lat="33.810643" lon="-118.3938623">
  <ele>-5.122</ele>
  <time>2026-09-01T01:17:03Z</time>
  <course>24.07</course>
  <speed>0.03</speed>
  <fix>3d</fix>
</trkpt>
<trkpt lat="33.8106433" lon="-118.3938625">
  <ele>-4.8</ele>
  <time>2026-09-01T01:17:03Z</time>
  <course>248.96</course>
  <speed>0.0</speed>
  <fix>3d</fix>
</trkpt>
<trkpt lat="33.810643" lon="-118.3938623">
  <ele>-5.126</ele>
  <time>2026-09-01T01:17:03Z</time>
  <course>24.07</course>
  <speed>0.03</speed>
  <fix>3d</fix>
</trkpt>
<trkpt lat="33.810643" lon="-118.3938623">
  <ele>-5.185</ele>
  <time>2026-09-01T01:17:03Z</time>
  <course>24.08</course>
  <speed>0.03</speed>
  <fix>3d</fix>
</trkpt>
<trkpt lat="33.8106433" lon="-118.3938625">
  <ele>-4.92</ele>
  <time>2026-09-01T01:17:03Z</time>
  <course>249.04</course>
  <speed>0.0</speed>
  <fix>3d</fix>
</trkpt>
<trkpt lat="33.810643" lon="-118.3938623">
  <ele>-5.206</ele>
  <time>2026-09-01T01:17:03Z</time>
  <course>24.09</course>
  <speed>0.03</speed>
  <fix>3d</fix>
</trkpt>
<trkpt lat="33.810643" lon="-118.3938623">
  <ele>-5.247</ele>
  <time>2026-09-01T01:17:03Z</time>
  <course>24.1</course>
  <speed>0.03</speed>
  <fix>3d</fix>
</trkpt>
<trkpt lat="33.8106433" lon="-118.3938625">
  <ele>-4.92</ele>
  <time>2026-09-01T01:17:03Z</time>
  <course>249.04</course>
  <speed>0.0</speed>
  <fix>3d</fix>
</trkpt>
<trkpt lat="33.810643" lon="-118.3938623">
  <ele>-5.249</ele>
  <time>2026-09-01T01:17:03Z</time>
  <course>24.1</course>
  <speed>0.03</speed>
  <fix>3d</fix>
</trkpt>
<trkpt lat="33.810643" lon="-118.3938624">
  <ele>-5.309</ele>
  <time>2026-09-01T01:17:03Z</time>
  <course>24.11</course>
  <speed>0.03</speed>
  <fix>3d</fix>
</trkpt>
<trkpt lat="33.8106433" lon="-118.3938625">
  <ele>-5.04</ele>
  <time>2026-09-01T01:17:03Z</time>
  <course>249.13</course>
  <speed>0.0</speed>
  <fix>3d</fix>
</trkpt>
<trkpt lat="33.810643" lon="-118.3938624">
  <ele>-5.33</ele>
  <time>2026-09-01T01:17:03Z</time>
  <course>24.12</course>
  <speed>0.03</speed>
  <fix>3d</fix>
</trkpt>
<trkpt lat="33.810643" lon="-118.3938624">
  <ele>-5.371</ele>
  <time>2026-09-01T01:17:03Z</time>
  <course>24.13</course>
  <speed>0.03</speed>
  <fix>3d</fix>
</trkpt>
<trkpt lat="33.8106433" lon="-118.3938625">
  <ele>-5.04</ele>
  <time>2026-09-01T01:17:03Z</time>
  <course>249.13</course>
  <speed>0.0</speed>
  <fix>3d</fix>
</trkpt>
<trkpt lat="33.810643" lon="-118.3938624">
  <ele>-5.395</ele>
  <time>2026-09-01T01:17:03Z</time>
  <course>24.13</course>
  <speed>0.03</speed>
  <fix>3d</fix>
</trkpt>
<trkpt lat="33.8106431" lon="-118.3938624">
  <ele>-5.434</ele>
  <time>2026-09-01T01:17:03Z</time>
  <course>24.14</course>
  <speed>0.03</speed>
  <fix>3d</fix>
</trkpt>
<trkpt lat="33.8106433" lon="-118.3938626">
  <ele>-5.17</ele>
  <time>2026-09-01T01:17:03Z</time>
  <course>249.12</course>
  <speed>0.0</speed>
  <fix>3d</fix>
</trkpt>
<trkpt lat="33.8106431" lon="-118.3938624">
  <ele>-5.455</ele>
  <time>2026-09-01T01:17:03Z</time>
  <course>24.15</course>
  <speed>0.03</speed>
  <fix>3d</fix>
</trkpt>
<trkpt lat="33.8106431" lon="-118.3938624">
  <ele>-5.498</ele>
  <time>2026-09-01T01:17:03Z</time>
  <course>24.16</course>
  <speed>0.02</speed>
  <fix>3d</fix>
</trkpt>
<trkpt lat="33.8106433" lon="-118.3938626">
  <ele>-5.17</ele>
  <time>2026-09-01T01:17:03Z</time>
  <course>249.12</course>
  <speed>0.0</speed>
  <fix>3d</fix>
</trkpt>
<trkpt lat="33.8106431" lon="-118.3938624">
  <ele>-5.52</ele>
  <time>2026-09-01T01:17:03Z</time>
  <course>24.16</course>
  <speed>0.02</speed>
  <fix>3d</fix>
</trkpt>
<trkpt lat="33.8106431" lon="-118.3938624">
  <ele>-5.561</ele>
  <time>2026-09-01T01:17:03Z</time>
  <course>24.17</course>
  <speed>0.02</speed>
  <fix>3d</fix>
</trkpt>
<trkpt lat="33.8106433" lon="-118.3938626">
  <ele>-5.29</ele>
  <time>2026-09-01T01:17:03Z</time>
  <course>249.01</course>
  <speed>0.0</speed>
  <fix>3d</fix>
</trkpt>
<trkpt lat="33.8106431" lon="-118.3938624">
  <ele>-5.581</ele>
  <time>2026-09-01T01:17:03Z</time>
  <course>24.18</course>
  <speed>0.02</speed>
  <fix>3d</fix>
</trkpt>
<trkpt lat="33.8106431" lon="-118.3938624">
  <ele>-5.623</ele>
  <time>2026-09-01T01:17:03Z</time>
  <course>24.19</course>
  <speed>0.02</speed>
  <fix>3d</fix>
</trkpt>
<trkpt lat="33.8106433" lon="-118.3938626">
  <ele>-5.29</ele>
  <time>2026-09-01T01:17:03Z</time>
  <course>249.01</course>
  <speed>0.0</speed>
  <fix>3d</fix>
</trkpt>
<trkpt lat="33.8106431" lon="-118.3938624">
  <ele>-5.643</ele>
  <time>2026-09-01T01:17:03Z</time>
  <course>24.19</course>
  <speed>0.02</speed>
  <fix>3d</fix>
</trkpt>
<trkpt lat="33.8106431" lon="-118.3938624">
  <ele>-5.686</ele>
  <time>2026-09-01T01:17:03Z</time>
  <course>24.2</course>
  <speed>0.02</speed>
  <fix>3d</fix>
</trkpt>
<trkpt lat="33.8106433" lon="-118.3938626">
  <ele>-5.41</ele>
  <time>2026-09-01T01:17:03Z</time>
  <course>248.85</course>
  <speed>0.0</speed>
  <fix>3d</fix>
</trkpt>
<trkpt lat="33.8106431" lon="-118.3938624">
  <ele>-5.706</ele>
  <time>2026-09-01T01:17:03Z</time>
  <course>24.21</course>
  <speed>0.02</speed>
  <fix>3d</fix>
</trkpt>
<trkpt lat="33.8106431" lon="-118.3938624">
  <ele>-5.748</ele>
  <time>2026-09-01T01:17:03Z</time>
  <course>24.22</course>
  <speed>0.02</speed>
  <fix>3d</fix>
</trkpt>
<trkpt lat="33.8106433" lon="-118.3938626">
  <ele>-5.41</ele>
  <time>2026-09-01T01:17:03Z</time>
  <course>248.85</course>
  <speed>0.0</speed>
  <fix>3d</fix>
</trkpt>
<trkpt lat="33.8106431" lon="-118.3938624">
  <ele>-5.768</ele>
  <time>2026-09-01T01:17:03Z</time>
  <course>24.22</course>
  <speed>0.02</speed>
  <fix>3d</fix>
</trkpt>
<trkpt lat="33.8106431" lon="-118.3938624">
  <ele>-5.809</ele>
  <time>2026-09-01T01:17:03Z</time>
  <course>24.23</course>
  <speed>0.02</speed>
  <fix>3d</fix>
</trkpt>
<trkpt lat="33.8106433" lon="-118.3938626">
  <ele>-5.52</ele>
  <time>2026-09-01T01:17:03Z</time>
  <course>248.76</course>
  <speed>0.0</speed>
  <fix>3d</fix>
</trkpt>
<trkpt lat="33.8106431" lon="-118.3938624">
  <ele>-5.81</ele>
  <time>2026-09-01T01:17:03Z</time>
  <course>24.23</course>
  <speed>0.02</speed>
  <fix>3d</fix>
</trkpt>
<trkpt lat="33.8106431" lon="-118.3938625">
  <ele>-5.87</ele>
  <time>2026-09-01T01:17:03Z</time>
  <course>24.25</course>
  <speed>0.02</speed>
  <fix>3d</fix>
</trkpt>
<trkpt lat="33.8106433" lon="-118.3938626">
  <ele>-5.52</ele>
  <time>2026-09-01T01:17:03Z</time>
  <course>248.76</course>
  <speed>0.0</speed>
  <fix>3d</fix>
</trkpt>
<trkpt lat="33.8106431" lon="-118.3938625">
  <ele>-5.871</ele>
  <time>2026-09-01T01:17:03Z</time>
  <course>24.25</course>
  <speed>0.02</speed>
  <fix>3d</fix>
</trkpt>
<trkpt lat="33.8106431" lon="-118.3938625">
  <ele>-5.93</ele>
  <time>2026-09-01T01:17:03Z</time>
  <course>24.26</course>
  <speed>0.02</speed>
  <fix>3d</fix>
</trkpt>
<trkpt lat="33.8106433" lon="-118.3938626">
  <ele>-5.65</ele>
  <time>2026-09-01T01:17:03Z</time>
  <course>248.78</course>
  <speed>0.0</speed>
  <fix>3d</fix>
</trkpt>
<trkpt lat="33.8106431" lon="-118.3938625">
  <ele>-5.953</ele>
  <time>2026-09-01T01:17:03Z</time>
  <course>24.27</course>
  <speed>0.02</speed>
  <fix>3d</fix>
</trkpt>
<trkpt lat="33.8106431" lon="-118.3938625">
  <ele>-5.992</ele>
  <time>2026-09-01T01:17:03Z</time>
  <course>24.28</course>
  <speed>0.02</speed>
  <fix>3d</fix>
</trkpt>
<trkpt lat="33.8106433" lon="-118.3938626">
  <ele>-5.65</ele>
  <time>2026-09-01T01:17:03Z</time>
  <course>248.78</course>
  <speed>0.0</speed>
  <fix>3d</fix>
</trkpt>
<trkpt lat="33.8106431" lon="-118.3938625">
  <ele>-6.011</ele>
  <time>2026-09-01T01:17:03Z</time>
  <course>24.28</course>
  <speed>0.02</speed>
  <fix>3d</fix>
</trkpt>
<trkpt lat="33.8106431" lon="-118.3938625">
  <ele>-6.055</ele>
  <time>2026-09-01T01:17:03Z</time>
  <course>24.29</course>
  <speed>0.02</speed>
  <fix>3d</fix>
</trkpt>
<trkpt lat="33.8106433" lon="-118.3938626">
  <ele>-5.77</ele>
  <time>2026-09-01T01:17:03Z</time>
  <course>248.87</course>
  <speed>0.0</speed>
  <fix>3d</fix>
</trkpt>
<trkpt lat="33.8106431" lon="-118.3938625">
  <ele>-6.076</ele>
  <time>2026-09-01T01:17:03Z</time>
  <course>24.3</course>
  <speed>0.02</speed>
  <fix>3d</fix>
</trkpt>
<trkpt lat="33.8106431" lon="-118.3938625">
  <ele>-6.121</ele>
  <time>2026-09-01T01:17:03Z</time>
  <course>24.31</course>
  <speed>0.02</speed>
  <fix>3d</fix>
</trkpt>
<trkpt lat="33.8106433" lon="-118.3938626">
  <ele>-5.77</ele>
  <time>2026-09-01T01:17:03Z</time>
  <course>248.87</course>
  <speed>0.0</speed>
  <fix>3d</fix>
</trkpt>
<trkpt lat="33.8106431" lon="-118.3938625">
  <ele>-6.141</ele>
  <time>2026-09-01T01:17:03Z</time>
  <course>24.31</course>
  <speed>0.02</speed>
  <fix>3d</fix>
</trkpt>
<trkpt lat="33.8106431" lon="-118.3938625">
  <ele>-6.185</ele>
  <time>2026-09-01T01:17:03Z</time>
  <course>24.32</course>
  <speed>0.02</speed>
  <fix>3d</fix>
</trkpt>
<trkpt lat="33.8106433" lon="-118.3938626">
  <ele>-5.89</ele>
  <time>2026-09-01T01:17:03Z</time>
  <course>248.94</course>
  <speed>0.0</speed>
  <fix>3d</fix>
</trkpt>
<trkpt lat="33.8106431" lon="-118.3938625">
  <ele>-6.208</ele>
  <time>2026-09-01T01:17:03Z</time>
  <course>24.33</course>
  <speed>0.02</speed>
  <fix>3d</fix>
</trkpt>
<trkpt lat="33.8106431" lon="-118.3938625">
  <ele>-6.248</ele>
  <time>2026-09-01T01:17:03Z</time>
  <course>24.34</course>
  <speed>0.02</speed>
  <fix>3d</fix>
</trkpt>
<trkpt lat="33.8106433" lon="-118.3938626">
  <ele>-5.89</ele>
  <time>2026-09-01T01:17:03Z</time>
  <course>248.94</course>
  <speed>0.0</speed>
  <fix>3d</fix>
</trkpt>
<trkpt lat="33.8106431" lon="-118.3938625">
  <ele>-6.268</ele>
  <time>2026-09-01T01:17:03Z</time>
  <course>24.34</course>
  <speed>0.02</speed>
  <fix>3d</fix>
</trkpt>
<trkpt lat="33.8106431" lon="-118.3938625">
  <ele>-6.31</ele>
  <time>2026-09-01T01:17:03Z</time>
  <course>24.35</course>
  <speed>0.01</speed>
  <fix>3d</fix>
</trkpt>
<trkpt lat="33.8106433" lon="-118.3938626">
  <ele>-6.01</ele>
  <time>2026-09-01T01:17:03Z</time>
  <course>248.89</course>
  <speed>0.0</speed>
  <fix>3d</fix>
</trkpt>
<trkpt lat="33.8106431" lon="-118.3938625">
  <ele>-6.334</ele>
  <time>2026-09-01T01:17:03Z</time>
  <course>24.36</course>
  <speed>0.01</speed>
  <fix>3d</fix>
</trkpt>
<trkpt lat="33.8106431" lon="-118.3938625">
  <ele>-6.372</ele>
  <time>2026-09-01T01:17:03Z</time>
  <course>24.37</course>
  <speed>0.01</speed>
  <fix>3d</fix>
</trkpt>
<trkpt lat="33.8106433" lon="-118.3938626">
  <ele>-6.01</ele>
  <time>2026-09-01T01:17:03Z</time>
  <course>248.89</course>
  <speed>0.0</speed>
  <fix>3d</fix>
</trkpt>
<trkpt lat="33.8106431" lon="-118.3938625">
  <ele>-6.392</ele>
  <time>2026-09-01T01:17:03Z</time>
  <course>24.37</course>
  <speed>0.01</speed>
  <fix>3d</fix>
</trkpt>
<trkpt lat="33.8106431" lon="-118.3938625">
  <ele>-6.434</ele>
  <time>2026-09-01T01:17:03Z</time>
  <course>24.38</course>
  <speed>0.01</speed>
  <fix>3d</fix>
</trkpt>
<trkpt lat="33.8106433" lon="-118.3938626">
  <ele>-6.13</ele>
  <time>2026-09-01T01:17:03Z</time>
  <course>248.76</course>
  <speed>0.0</speed>
  <fix>3d</fix>
</trkpt>
<trkpt lat="33.8106431" lon="-118.3938625">
  <ele>-6.436</ele>
  <time>2026-09-01T01:17:03Z</time>
  <course>24.38</course>
  <speed>0.01</speed>
  <fix>3d</fix>
</trkpt>
<trkpt lat="33.8106431" lon="-118.3938625">
  <ele>-6.497</ele>
  <time>2026-09-01T01:17:03Z</time>
  <course>24.39</course>
  <speed>0.01</speed>
  <fix>3d</fix>
</trkpt>
<trkpt lat="33.8106433" lon="-118.3938626">
  <ele>-6.13</ele>
  <time>2026-09-01T01:17:03Z</time>
  <course>248.76</course>
  <speed>0.0</speed>
  <fix>3d</fix>
</trkpt>
<trkpt lat="33.8106431" lon="-118.3938625">
  <ele>-6.5</ele>
  <time>2026-09-01T01:17:03Z</time>
  <course>24.39</course>
  <speed>0.01</speed>
  <fix>3d</fix>
</trkpt>
<trkpt lat="33.8106431" lon="-118.3938625">
  <ele>-6.561</ele>
  <time>2026-09-01T01:17:03Z</time>
  <course>24.41</course>
  <speed>0.01</speed>
  <fix>3d</fix>
</trkpt>
<trkpt lat="33.8106433" lon="-118.3938627">
  <ele>-6.25</ele>
  <time>2026-09-01T01:17:03Z</time>
  <course>248.62</course>
  <speed>0.0</speed>
  <fix>3d</fix>
</trkpt>
<trkpt lat="33.8106431" lon="-118.3938625">
  <ele>-6.583</ele>
  <time>2026-09-01T01:17:03Z</time>
  <course>24.41</course>
  <speed>0.01</speed>
  <fix>3d</fix>
</trkpt>
<trkpt lat="33.8106431" lon="-118.3938625">
  <ele>-6.625</ele>
  <time>2026-09-01T01:17:03Z</time>
  <course>24.42</course>
  <speed>0.01</speed>
  <fix>3d</fix>
</trkpt>
<trkpt lat="33.8106433" lon="-118.3938627">
  <ele>-6.25</ele>
  <time>2026-09-01T01:17:03Z</time>
  <course>248.62</course>
  <speed>0.0</speed>
  <fix>3d</fix>
</trkpt>
<trkpt lat="33.8106431" lon="-118.3938625">
  <ele>-6.646</ele>
  <time>2026-09-01T01:17:03Z</time>
  <course>24.43</course>
  <speed>0.01</speed>
  <fix>3d</fix>
</trkpt>
<trkpt lat="33.8106431" lon="-118.3938625">
  <ele>-6.689</ele>
  <time>2026-09-01T01:17:03Z</time>
  <course>24.44</course>
  <speed>0.01</speed>
  <fix>3d</fix>
</trkpt>
<trkpt lat="33.8106433" lon="-118.3938627">
  <ele>-6.37</ele>
  <time>2026-09-01T01:17:03Z</time>
  <course>248.57</course>
  <speed>0.0</speed>
  <fix>3d</fix>
</trkpt>
<trkpt lat="33.8106431" lon="-118.3938625">
  <ele>-6.711</ele>
  <time>2026-09-01T01:17:03Z</time>
  <course>24.44</course>
  <speed>0.01</speed>
  <fix>3d</fix>
</trkpt>
<trkpt lat="33.8106431" lon="-118.3938626">
  <ele>-6.751</ele>
  <time>2026-09-01T01:17:03Z</time>
  <course>24.45</course>
  <speed>0.01</speed>
  <fix>3d</fix>
</trkpt>
<trkpt lat="33.8106433" lon="-118.3938627">
  <ele>-6.37</ele>
  <time>2026-09-01T01:17:03Z</time>
  <course>248.57</course>
  <speed>0.0</speed>
  <fix>3d</fix>
</trkpt>
<trkpt lat="33.8106431" lon="-118.3938626">
  <ele>-6.771</ele>
  <time>2026-09-01T01:17:03Z</time>
  <course>24.46</course>
  <speed>0.01</speed>
  <fix>3d</fix>
</trkpt>
<trkpt lat="33.8106431" lon="-118.3938626">
  <ele>-6.813</ele>
  <time>2026-09-01T01:17:03Z</time>
  <course>24.47</course>
  <speed>0.01</speed>
  <fix>3d</fix>
</trkpt>
<trkpt lat="33.8106433" lon="-118.3938627">
  <ele>-6.49</ele>
  <time>2026-09-01T01:17:03Z</time>
  <course>248.63</course>
  <speed>0.0</speed>
  <fix>3d</fix>
</trkpt>
<trkpt lat="33.8106431" lon="-118.3938626">
  <ele>-6.837</ele>
  <time>2026-09-01T01:17:03Z</time>
  <course>24.47</course>
  <speed>0.01</speed>
  <fix>3d</fix>
</trkpt>
<trkpt lat="33.8106431" lon="-118.3938626">
  <ele>-6.875</ele>
  <time>2026-09-01T01:17:03Z</time>
  <course>24.48</course>
  <speed>0.01</speed>
  <fix>3d</fix>
</trkpt>
<trkpt lat="33.8106433" lon="-118.3938627">
  <ele>-6.49</ele>
  <time>2026-09-01T01:17:03Z</time>
  <course>248.63</course>
  <speed>0.0</speed>
  <fix>3d</fix>
</trkpt>
<trkpt lat="33.8106431" lon="-118.3938626">
  <ele>-6.895</ele>
  <time>2026-09-01T01:17:03Z</time>
  <course>24.48</course>
  <speed>0.01</speed>
  <fix>3d</fix>
</trkpt>
<trkpt lat="33.8106431" lon="-118.3938626">
  <ele>-6.936</ele>
  <time>2026-09-01T01:17:03Z</time>
  <course>24.49</course>
  <speed>0.01</speed>
  <fix>3d</fix>
</trkpt>
<trkpt lat="33.8106433" lon="-118.3938627">
  <ele>-6.61</ele>
  <time>2026-09-01T01:17:03Z</time>
  <course>248.72</course>
  <speed>0.0</speed>
  <fix>3d</fix>
</trkpt>
<trkpt lat="33.8106431" lon="-118.3938626">
  <ele>-6.957</ele>
  <time>2026-09-01T01:17:03Z</time>
  <course>24.5</course>
  <speed>0.01</speed>
  <fix>3d</fix>
</trkpt>
<trkpt lat="33.8106431" lon="-118.3938626">
  <ele>-6.997</ele>
  <time>2026-09-01T01:17:03Z</time>
  <course>24.51</course>
  <speed>0.01</speed>
  <fix>3d</fix>
</trkpt>
<trkpt lat="33.8106433" lon="-118.3938627">
  <ele>-6.61</ele>
  <time>2026-09-01T01:17:03Z</time>
  <course>248.72</course>
  <speed>0.0</speed>
  <fix>3d</fix>
</trkpt>
<trkpt lat="33.8106431" lon="-118.3938626">
  <ele>-7.019</ele>
  <time>2026-09-01T01:17:03Z</time>
  <course>24.51</course>
  <speed>0.01</speed>
  <fix>3d</fix>
</trkpt>
<trkpt lat="33.8106431" lon="-118.3938626">
  <ele>-7.059</ele>
  <time>2026-09-01T01:17:03Z</time>
  <course>24.52</course>
  <speed>0.01</speed>
  <fix>3d</fix>
</trkpt>
<trkpt lat="33.8106433" lon="-118.3938627">
  <ele>-6.73</ele>
  <time>2026-09-01T01:17:03Z</time>
  <course>248.75</course>
  <speed>0.0</speed>
  <fix>3d</fix>
</trkpt>
<trkpt lat="33.8106431" lon="-118.3938626">
  <ele>-7.083</ele>
  <time>2026-09-01T01:17:03Z</time>
  <course>24.53</course>
  <speed>0.01</speed>
  <fix>3d</fix>
</trkpt>
<trkpt lat="33.8106431" lon="-118.3938626">
  <ele>-7.121</ele>
  <time>2026-09-01T01:17:03Z</time>
  <course>24.53</course>
  <speed>0.01</speed>
  <fix>3d</fix>
</trkpt>
<trkpt lat="33.8106433" lon="-118.3938627">
  <ele>-6.73</ele>
  <time>2026-09-01T01:17:03Z</time>
  <course>248.75</course>
  <speed>0.0</speed>
  <fix>3d</fix>
</trkpt>
<trkpt lat="33.8106431" lon="-118.3938626">
  <ele>-7.122</ele>
  <time>2026-09-01T01:17:03Z</time>
  <course>24.53</course>
  <speed>0.01</speed>
  <fix>3d</fix>
</trkpt>
<trkpt lat="33.8106431" lon="-118.3938626">
  <ele>-7.183</ele>
  <time>2026-09-01T01:17:03Z</time>
  <course>24.55</course>
  <speed>0.02</speed>
  <fix>3d</fix>
</trkpt>
<trkpt lat="33.8106433" lon="-118.3938627">
  <ele>-6.85</ele>
  <time>2026-09-01T01:17:03Z</time>
  <course>248.67</course>
  <speed>0.0</speed>
  <fix>3d</fix>
</trkpt>
<trkpt lat="33.8106431" lon="-118.3938626">
  <ele>-7.205</ele>
  <time>2026-09-01T01:17:03Z</time>
  <course>24.55</course>
  <speed>0.02</speed>
  <fix>3d</fix>
</trkpt>
<trkpt lat="33.8106431" lon="-118.3938626">
  <ele>-7.244</ele>
  <time>2026-09-01T01:17:03Z</time>
  <course>24.56</course>
  <speed>0.02</speed>
  <fix>3d</fix>
</trkpt>
<trkpt lat="33.8106433" lon="-118.3938627">
  <ele>-6.85</ele>
  <time>2026-09-01T01:17:03Z</time>
  <course>248.67</course>
  <speed>0.0</speed>
  <fix>3d</fix>
</trkpt>
<trkpt lat="33.8106431" lon="-118.3938626">
  <ele>-7.266</ele>
  <time>2026-09-01T01:17:03Z</time>
  <course>24.57</course>
  <speed>0.02</speed>
  <fix>3d</fix>
</trkpt>
<trkpt lat="33.8106431" lon="-118.3938626">
  <ele>-7.307</ele>
  <time>2026-09-01T01:17:03Z</time>
  <course>24.58</course>
  <speed>0.02</speed>
  <fix>3d</fix>
</trkpt>
<trkpt lat="33.8106433" lon="-118.3938627">
  <ele>-6.98</ele>
  <time>2026-09-01T01:17:03Z</time>
  <course>248.52</course>
  <speed>0.0</speed>
  <fix>3d</fix>
</trkpt>
<trkpt lat="33.8106431" lon="-118.3938626">
  <ele>-7.329</ele>
  <time>2026-09-01T01:17:03Z</time>
  <course>24.58</course>
  <speed>0.02</speed>
  <fix>3d</fix>
</trkpt>
<trkpt lat="33.8106431" lon="-118.3938626">
  <ele>-7.369</ele>
  <time>2026-09-01T01:17:03Z</time>
  <course>24.59</course>
  <speed>0.02</speed>
  <fix>3d</fix>
</trkpt>
<trkpt lat="33.8106433" lon="-118.3938627">
  <ele>-6.98</ele>
  <time>2026-09-01T01:17:03Z</time>
  <course>248.52</course>
  <speed>0.0</speed>
  <fix>3d</fix>
</trkpt>
<trkpt lat="33.8106431" lon="-118.3938626">
  <ele>-7.394</ele>
  <time>2026-09-01T01:17:03Z</time>
  <course>24.59</course>
  <speed>0.02</speed>
  <fix>3d</fix>
</trkpt>
<trkpt lat="33.8106431" lon="-118.3938626">
  <ele>-7.433</ele>
  <time>2026-09-01T01:17:03Z</time>
  <course>24.6</course>
  <speed>0.02</speed>
  <fix>3d</fix>
</trkpt>
<trkpt lat="33.8106433" lon="-118.3938627">
  <ele>-7.1</ele>
  <time>2026-09-01T01:17:03Z</time>
  <course>248.42</course>
  <speed>0.0</speed>
  <fix>3d</fix>
</trkpt>
<trkpt lat="33.8106431" lon="-118.3938626">
  <ele>-7.456</ele>
  <time>2026-09-01T01:17:03Z</time>
  <course>24.61</course>
  <speed>0.02</speed>
  <fix>3d</fix>
</trkpt>
<trkpt lat="33.8106431" lon="-118.3938626">
  <ele>-7.495</ele>
  <time>2026-09-01T01:17:03Z</time>
  <course>24.62</course>
  <speed>0.02</speed>
  <fix>3d</fix>
</trkpt>
<trkpt lat="33.8106433" lon="-118.3938627">
  <ele>-7.1</ele>
  <time>2026-09-01T01:17:03Z</time>
  <course>248.42</course>
  <speed>0.0</speed>
  <fix>3d</fix>
</trkpt>
<trkpt lat="33.8106431" lon="-118.3938626">
  <ele>-7.519</ele>
  <time>2026-09-01T01:17:03Z</time>
  <course>24.62</course>
  <speed>0.02</speed>
  <fix>3d</fix>
</trkpt>
<trkpt lat="33.8106431" lon="-118.3938626">
  <ele>-7.556</ele>
  <time>2026-09-01T01:17:03Z</time>
  <course>24.63</course>
  <speed>0.02</speed>
  <fix>3d</fix>
</trkpt>
<trkpt lat="33.8106433" lon="-118.3938627">
  <ele>-7.22</ele>
  <time>2026-09-01T01:17:03Z</time>
  <course>248.41</course>
  <speed>0.0</speed>
  <fix>3d</fix>
</trkpt>
<trkpt lat="33.8106431" lon="-118.3938626">
  <ele>-7.578</ele>
  <time>2026-09-01T01:17:03Z</time>
  <course>24.63</course>
  <speed>0.02</speed>
  <fix>3d</fix>
</trkpt>
<trkpt lat="33.8106431" lon="-118.3938626">
  <ele>-7.616</ele>
  <time>2026-09-01T01:17:03Z</time>
  <course>24.64</course>
  <speed>0.02</speed>
  <fix>3d</fix>
</trkpt>
<trkpt lat="33.8106433" lon="-118.3938627">
  <ele>-7.22</ele>
  <time>2026-09-01T01:17:03Z</time>
  <course>248.41</course>
  <speed>0.0</speed>
  <fix>3d</fix>
</trkpt>
<trkpt lat="33.8106431" lon="-118.3938626">
  <ele>-7.638</ele>
  <time>2026-09-01T01:17:03Z</time>
  <course>24.65</course>
  <speed>0.02</speed>
  <fix>3d</fix>
</trkpt>
<trkpt lat="33.8106431" lon="-118.3938626">
  <ele>-7.676</ele>
  <time>2026-09-01T01:17:03Z</time>
  <course>24.66</course>
  <speed>0.02</speed>
  <fix>3d</fix>
</trkpt>
<trkpt lat="33.8106433" lon="-118.3938627">
  <ele>-7.34</ele>
  <time>2026-09-01T01:17:03Z</time>
  <course>248.49</course>
  <speed>0.0</speed>
  <fix>3d</fix>
</trkpt>
<trkpt lat="33.8106431" lon="-118.3938626">
  <ele>-7.697</ele>
  <time>2026-09-01T01:17:03Z</time>
  <course>24.66</course>
  <speed>0.02</speed>
  <fix>3d</fix>
</trkpt>
<trkpt lat="33.8106431" lon="-118.3938626">
  <ele>-7.735</ele>
  <time>2026-09-01T01:17:03Z</time>
  <course>24.67</course>
  <speed>0.02</speed>
  <fix>3d</fix>
</trkpt>
<trkpt lat="33.8106433" lon="-118.3938627">
  <ele>-7.34</ele>
  <time>2026-09-01T01:17:03Z</time>
  <course>248.49</course>
  <speed>0.0</speed>
  <fix>3d</fix>
</trkpt>
<trkpt lat="33.8106431" lon="-118.3938626">
  <ele>-7.737</ele>
  <time>2026-09-01T01:17:03Z</time>
  <course>24.67</course>
  <speed>0.02</speed>
  <fix>3d</fix>
</trkpt>
<trkpt lat="33.8106431" lon="-118.3938626">
  <ele>-7.797</ele>
  <time>2026-09-01T01:17:03Z</time>
  <course>24.68</course>
  <speed>0.02</speed>
  <fix>3d</fix>
</trkpt>
<trkpt lat="33.8106433" lon="-118.3938628">
  <ele>-7.46</ele>
  <time>2026-09-01T01:17:03Z</time>
  <course>248.57</course>
  <speed>0.0</speed>
  <fix>3d</fix>
</trkpt>
<trkpt lat="33.8106431" lon="-118.3938626">
  <ele>-7.799</ele>
  <time>2026-09-01T01:17:03Z</time>
  <course>24.68</course>
  <speed>0.02</speed>
  <fix>3d</fix>
</trkpt>
<trkpt lat="33.8106431" lon="-118.3938626">
  <ele>-7.859</ele>
  <time>2026-09-01T01:17:03Z</time>
  <course>24.69</course>
  <speed>0.02</speed>
  <fix>3d</fix>
</trkpt>
<trkpt lat="33.8106433" lon="-118.3938628">
  <ele>-7.46</ele>
  <time>2026-09-01T01:17:03Z</time>
  <course>248.57</course>
  <speed>0.0</speed>
  <fix>3d</fix>
</trkpt>
<trkpt lat="33.8106431" lon="-118.3938626">
  <ele>-7.883</ele>
  <time>2026-09-01T01:17:03Z</time>
  <course>24.7</course>
  <speed>0.02</speed>
  <fix>3d</fix>
</trkpt>
<trkpt lat="33.8106431" lon="-118.3938626">
  <ele>-7.922</ele>
  <time>2026-09-01T01:17:03Z</time>
  <course>24.71</course>
  <speed>0.02</speed>
  <fix>3d</fix>
</trkpt>
<trkpt lat="33.8106433" lon="-118.3938628">
  <ele>-7.58</ele>
  <time>2026-09-01T01:17:03Z</time>
  <course>248.56</course>
  <speed>0.0</speed>
  <fix>3d</fix>
</trkpt>
<trkpt lat="33.8106431" lon="-118.3938626">
  <ele>-7.944</ele>
  <time>2026-09-01T01:17:03Z</time>
  <course>24.71</course>
  <speed>0.02</speed>
  <fix>3d</fix>
</trkpt>
<trkpt lat="33.8106431" lon="-118.3938626">
  <ele>-7.985</ele>
  <time>2026-09-01T01:17:03Z</time>
  <course>24.72</course>
  <speed>0.02</speed>
  <fix>3d</fix>
</trkpt>
<trkpt lat="33.8106433" lon="-118.3938628">
  <ele>-7.58</ele>
  <time>2026-09-01T01:17:03Z</time>
  <course>248.56</course>
  <speed>0.0</speed>
  <fix>3d</fix>
</trkpt>
<trkpt lat="33.8106431" lon="-118.3938626">
  <ele>-8.007</ele>
  <time>2026-09-01T01:17:03Z</time>
  <course>24.72</course>
  <speed>0.02</speed>
  <fix>3d</fix>
</trkpt>
<trkpt lat="33.8106431" lon="-118.3938626">
  <ele>-8.047</ele>
  <time>2026-09-01T01:17:03Z</time>
  <course>24.73</course>
  <speed>0.02</speed>
  <fix>3d</fix>
</trkpt>
<trkpt lat="33.8106432" lon="-118.3938628">
  <ele>-7.7</ele>
  <time>2026-09-01T01:17:03Z</time>
  <course>248.45</course>
  <speed>0.0</speed>
  <fix>3d</fix>
</trkpt>
<trkpt lat="33.8106431" lon="-118.3938626">
  <ele>-8.069</ele>
  <time>2026-09-01T01:17:03Z</time>
  <course>24.74</course>
  <speed>0.02</speed>
  <fix>3d</fix>
</trkpt>
<trkpt lat="33.8106431" lon="-118.3938626">
  <ele>-8.109</ele>
  <time>2026-09-01T01:17:03Z</time>
  <course>24.75</course>
  <speed>0.02</speed>
  <fix>3d</fix>
</trkpt>
<trkpt lat="33.8106432" lon="-118.3938628">
  <ele>-7.7</ele>
  <time>2026-09-01T01:17:03Z</time>
  <course>248.45</course>
  <speed>0.0</speed>
  <fix>3d</fix>
</trkpt>
<trkpt lat="33.8106431" lon="-118.3938626">
  <ele>-8.13</ele>
  <time>2026-09-01T01:17:03Z</time>
  <course>24.75</course>
  <speed>0.02</speed>
  <fix>3d</fix>
</trkpt>
<trkpt lat="33.8106431" lon="-118.3938626">
  <ele>-8.17</ele>
  <time>2026-09-01T01:17:03Z</time>
  <course>24.76</course>
  <speed>0.02</speed>
  <fix>3d</fix>
</trkpt>
<trkpt lat="33.8106432" lon="-118.3938628">
  <ele>-7.82</ele>
  <time>2026-09-01T01:17:03Z</time>
  <course>248.31</course>
  <speed>0.0</speed>
  <fix>3d</fix>
</trkpt>
<trkpt lat="33.8106431" lon="-118.3938626">
  <ele>-8.192</ele>
  <time>2026-09-01T01:17:03Z</time>
  <course>24.76</course>
  <speed>0.02</speed>
  <fix>3d</fix>
</trkpt>
<trkpt lat="33.8106431" lon="-118.3938626">
  <ele>-8.23</ele>
  <time>2026-09-01T01:17:03Z</time>
  <course>24.77</course>
  <speed>0.02</speed>
  <fix>3d</fix>
</trkpt>
<trkpt lat="33.8106432" lon="-118.3938628">
  <ele>-7.82</ele>
  <time>2026-09-01T01:17:03Z</time>
  <course>248.31</course>
  <speed>0.0</speed>
  <fix>3d</fix>
</trkpt>
<trkpt lat="33.8106431" lon="-118.3938626">
  <ele>-8.251</ele>
  <time>2026-09-01T01:17:03Z</time>
  <course>24.78</course>
  <speed>0.02</speed>
  <fix>3d</fix>
</trkpt>
<trkpt lat="33.8106431" lon="-118.3938627">
  <ele>-8.291</ele>
  <time>2026-09-01T01:17:03Z</time>
  <course>24.78</course>
  <speed>0.02</speed>
  <fix>3d</fix>
</trkpt>
<trkpt lat="33.8106432" lon="-118.3938628">
  <ele>-7.94</ele>
  <time>2026-09-01T01:17:03Z</time>
  <course>248.24</course>
  <speed>0.0</speed>
  <fix>3d</fix>
</trkpt>
<trkpt lat="33.8106431" lon="-118.3938627">
  <ele>-8.314</ele>
  <time>2026-09-01T01:17:03Z</time>
  <course>24.79</course>
  <speed>0.02</speed>
  <fix>3d</fix>
</trkpt>
<trkpt lat="33.8106431" lon="-118.3938627">
  <ele>-8.353</ele>
  <time>2026-09-01T01:17:03Z</time>
  <course>24.8</course>
  <speed>0.03</speed>
  <fix>3d</fix>
</trkpt>
<trkpt lat="33.8106432" lon="-118.3938628">
  <ele>-7.94</ele>
  <time>2026-09-01T01:17:03Z</time>
  <course>248.24</course>
  <speed>0.0</speed>
  <fix>3d</fix>
</trkpt>
<trkpt lat="33.8106431" lon="-118.3938627">
  <ele>-8.354</ele>
  <time>2026-09-01T01:17:03Z</time>
  <course>24.8</course>
  <speed>0.03</speed>
  <fix>3d</fix>
</trkpt>
<trkpt lat="33.8106431" lon="-118.3938627">
  <ele>-8.414</ele>
  <time>2026-09-01T01:17:03Z</time>
  <course>24.81</course>
  <speed>0.03</speed>
  <fix>3d</fix>
</trkpt>
<trkpt lat="33.8106432" lon="-118.3938628">
  <ele>-8.05</ele>
  <time>2026-09-01T01:17:03Z</time>
  <course>248.27</course>
  <speed>0.0</speed>
  <fix>3d</fix>
</trkpt>
<trkpt lat="33.8106431" lon="-118.3938627">
  <ele>-8.416</ele>
  <time>2026-09-01T01:17:03Z</time>
  <course>24.81</course>
  <speed>0.03</speed>
  <fix>3d</fix>
</trkpt>
<trkpt lat="33.8106431" lon="-118.3938627">
  <ele>-8.476</ele>
  <time>2026-09-01T01:17:03Z</time>
  <course>24.82</course>
  <speed>0.03</speed>
  <fix>3d</fix>
</trkpt>
<trkpt lat="33.8106432" lon="-118.3938628">
  <ele>-8.05</ele>
  <time>2026-09-01T01:17:03Z</time>
  <course>248.27</course>
  <speed>0.0</speed>
  <fix>3d</fix>
</trkpt>
<trkpt lat="33.8106431" lon="-118.3938627">
  <ele>-8.498</ele>
  <time>2026-09-01T01:17:03Z</time>
  <course>24.83</course>
  <speed>0.03</speed>
  <fix>3d</fix>
</trkpt>
<trkpt lat="33.8106431" lon="-118.3938627">
  <ele>-8.536</ele>
  <time>2026-09-01T01:17:03Z</time>
  <course>24.83</course>
  <speed>0.03</speed>
  <fix>3d</fix>
</trkpt>
<trkpt lat="33.8106432" lon="-118.3938628">
  <ele>-8.18</ele>
  <time>2026-09-01T01:17:03Z</time>
  <course>248.36</course>
  <speed>0.0</speed>
  <fix>3d</fix>
</trkpt>
<trkpt lat="33.8106431" lon="-118.3938627">
  <ele>-8.556</ele>
  <time>2026-09-01T01:17:03Z</time>
  <course>24.84</course>
  <speed>0.03</speed>
  <fix>3d</fix>
</trkpt>
<trkpt lat="33.8106431" lon="-118.3938627">
  <ele>-8.597</ele>
  <time>2026-09-01T01:17:03Z</time>
  <course>24.85</course>
  <speed>0.03</speed>
  <fix>3d</fix>
</trkpt>
<trkpt lat="33.8106432" lon="-118.3938628">
  <ele>-8.18</ele>
  <time>2026-09-01T01:17:03Z</time>
  <course>248.36</course>
  <speed>0.0</speed>
  <fix>3d</fix>
</trkpt>
<trkpt lat="33.8106431" lon="-118.3938627">
  <ele>-8.622</ele>
  <time>2026-09-01T01:17:03Z</time>
  <course>24.85</course>
  <speed>0.03</speed>
  <fix>3d</fix>
</trkpt>
<trkpt lat="33.8106431" lon="-118.3938627">
  <ele>-8.658</ele>
  <time>2026-09-01T01:17:03Z</time>
  <course>24.86</course>
  <speed>0.03</speed>
  <fix>3d</fix>
</trkpt>
<trkpt lat="33.8106432" lon="-118.3938628">
  <ele>-8.29</ele>
  <time>2026-09-01T01:17:03Z</time>
  <course>248.41</course>
  <speed>0.0</speed>
  <fix>3d</fix>
</trkpt>
<trkpt lat="33.8106431" lon="-118.3938627">
  <ele>-8.677</ele>
  <time>2026-09-01T01:17:03Z</time>
  <course>24.86</course>
  <speed>0.03</speed>
  <fix>3d</fix>
</trkpt>
<trkpt lat="33.810643" lon="-118.3938627">
  <ele>-8.719</ele>
  <time>2026-09-01T01:17:03Z</time>
  <course>24.87</course>
  <speed>0.03</speed>
  <fix>3d</fix>
</trkpt>
<trkpt lat="33.8106432" lon="-118.3938628">
  <ele>-8.29</ele>
  <time>2026-09-01T01:17:03Z</time>
  <course>248.41</course>
  <speed>0.0</speed>
  <fix>3d</fix>
</trkpt>
<trkpt lat="33.810643" lon="-118.3938627">
  <ele>-8.742</ele>
  <time>2026-09-01T01:17:03Z</time>
  <course>24.88</course>
  <speed>0.03</speed>
  <fix>3d</fix>
</trkpt>
<trkpt lat="33.810643" lon="-118.3938627">
  <ele>-8.778</ele>
  <time>2026-09-01T01:17:03Z</time>
  <course>24.88</course>
  <speed>0.03</speed>
  <fix>3d</fix>
</trkpt>
<trkpt lat="33.8106432" lon="-118.3938628">
  <ele>-8.42</ele>
  <time>2026-09-01T01:17:03Z</time>
  <course>248.37</course>
  <speed>0.0</speed>
  <fix>3d</fix>
</trkpt>
<trkpt lat="33.810643" lon="-118.3938627">
  <ele>-8.798</ele>
  <time>2026-09-01T01:17:03Z</time>
  <course>24.89</course>
  <speed>0.03</speed>
  <fix>3d</fix>
</trkpt>
<trkpt lat="33.810643" lon="-118.3938627">
  <ele>-8.836</ele>
  <time>2026-09-01T01:17:03Z</time>
  <course>24.89</course>
  <speed>0.03</speed>
  <fix>3d</fix>
</trkpt>
<trkpt lat="33.8106432" lon="-118.3938628">
  <ele>-8.42</ele>
  <time>2026-09-01T01:17:03Z</time>
  <course>248.37</course>
  <speed>0.0</speed>
  <fix>3d</fix>
</trkpt>
<trkpt lat="33.810643" lon="-118.3938627">
  <ele>-8.857</ele>
  <time>2026-09-01T01:17:03Z</time>
  <course>24.9</course>
  <speed>0.03</speed>
  <fix>3d</fix>
</trkpt>
<trkpt lat="33.810643" lon="-118.3938627">
  <ele>-8.895</ele>
  <time>2026-09-01T01:17:03Z</time>
  <course>24.91</course>
  <speed>0.03</speed>
  <fix>3d</fix>
</trkpt>
<trkpt lat="33.8106432" lon="-118.3938628">
  <ele>-8.54</ele>
  <time>2026-09-01T01:17:03Z</time>
  <course>248.25</course>
  <speed>0.0</speed>
  <fix>3d</fix>
</trkpt>
<trkpt lat="33.810643" lon="-118.3938627">
  <ele>-8.915</ele>
  <time>2026-09-01T01:17:03Z</time>
  <course>24.91</course>
  <speed>0.03</speed>
  <fix>3d</fix>
</trkpt>
<trkpt lat="33.810643" lon="-118.3938627">
  <ele>-8.954</ele>
  <time>2026-09-01T01:17:03Z</time>
  <course>24.92</course>
  <speed>0.03</speed>
  <fix>3d</fix>
</trkpt>
<trkpt lat="33.8106432" lon="-118.3938628">
  <ele>-8.54</ele>
  <time>2026-09-01T01:17:03Z</time>
  <course>248.25</course>
  <speed>0.0</speed>
  <fix>3d</fix>
</trkpt>
<trkpt lat="33.810643" lon="-118.3938627">
  <ele>-8.955</ele>
  <time>2026-09-01T01:17:03Z</time>
  <course>24.92</course>
  <speed>0.03</speed>
  <fix>3d</fix>
</trkpt>
<trkpt lat="33.810643" lon="-118.3938627">
  <ele>-9.013</ele>
  <time>2026-09-01T01:17:03Z</time>
  <course>24.93</course>
  <speed>0.0316227766016838</speed>
  <fix>3d</fix>
</trkpt>
<trkpt lat="33.8106432" lon="-118.3938628">
  <ele>-8.66</ele>
  <time>2026-09-01T01:17:03Z</time>
  <course>248.13</course>
  <speed>0.0</speed>
  <fix>3d</fix>
</trkpt>
<trkpt lat="33.810643" lon="-118.3938627">
  <ele>-9.015</ele>
  <time>2026-09-01T01:17:03Z</time>
  <course>24.93</course>
  <speed>0.0316227766016838</speed>
  <fix>3d</fix>
</trkpt>
<trkpt lat="33.810643" lon="-118.3938627">
  <ele>-9.073</ele>
  <time>2026-09-01T01:17:03Z</time>
  <course>24.94</course>
  <speed>0.0316227766016838</speed>
  <fix>3d</fix>
</trkpt>
<trkpt lat="33.8106432" lon="-118.3938628">
  <ele>-8.66</ele>
  <time>2026-09-01T01:17:03Z</time>
  <course>248.13</course>
  <speed>0.0</speed>
  <fix>3d</fix>
</trkpt>
<trkpt lat="33.810643" lon="-118.3938627">
  <ele>-9.098</ele>
  <time>2026-09-01T01:17:03Z</time>
  <course>24.95</course>
  <speed>0.0316227766016838</speed>
  <fix>3d</fix>
</trkpt>
<trkpt lat="33.810643" lon="-118.3938627">
  <ele>-9.134</ele>
  <time>2026-09-01T01:17:03Z</time>
  <course>24.95</course>
  <speed>0.0316227766016838</speed>
  <fix>3d</fix>
</trkpt>
<trkpt lat="33.8106432" lon="-118.3938628">
  <ele>-8.79</ele>
  <time>2026-09-01T01:17:03Z</time>
  <course>248.09</course>
  <speed>0.0</speed>
  <fix>3d</fix>
</trkpt>
<trkpt lat="33.810643" lon="-118.3938627">
  <ele>-9.155</ele>
  <time>2026-09-01T01:17:03Z</time>
  <course>24.96</course>
  <speed>0.0316227766016838</speed>
  <fix>3d</fix>
</trkpt>
<trkpt lat="33.810643" lon="-118.3938627">
  <ele>-9.194</ele>
  <time>2026-09-01T01:17:03Z</time>
  <course>24.96</course>
  <speed>0.0316227766016838</speed>
  <fix>3d</fix>
</trkpt>
<trkpt lat="33.8106432" lon="-118.3938628">
  <ele>-8.79</ele>
  <time>2026-09-01T01:17:03Z</time>
  <course>248.09</course>
  <speed>0.0</speed>
  <fix>3d</fix>
</trkpt>
<trkpt lat="33.810643" lon="-118.3938627">
  <ele>-9.218</ele>
  <time>2026-09-01T01:17:03Z</time>
  <course>24.97</course>
  <speed>0.0316227766016838</speed>
  <fix>3d</fix>
</trkpt>
<trkpt lat="33.810643" lon="-118.3938627">
  <ele>-9.255</ele>
  <time>2026-09-01T01:17:03Z</time>
  <course>24.98</course>
  <speed>0.0316227766016838</speed>
  <fix>3d</fix>
</trkpt>
<trkpt lat="33.8106432" lon="-118.3938628">
  <ele>-8.91</ele>
  <time>2026-09-01T01:17:03Z</time>
  <course>248.15</course>
  <speed>0.0</speed>
  <fix>3d</fix>
</trkpt>
<trkpt lat="33.810643" lon="-118.3938627">
  <ele>-9.276</ele>
  <time>2026-09-01T01:17:03Z</time>
  <course>24.98</course>
  <speed>0.0316227766016838</speed>
  <fix>3d</fix>
</trkpt>
<trkpt lat="33.810643" lon="-118.3938627">
  <ele>-9.316</ele>
  <time>2026-09-01T01:17:03Z</time>
  <course>24.99</course>
  <speed>0.0316227766016838</speed>
  <fix>3d</fix>
</trkpt>
<trkpt lat="33.8106432" lon="-118.3938628">
  <ele>-8.91</ele>
  <time>2026-09-01T01:17:03Z</time>
  <course>248.15</course>
  <speed>0.0</speed>
  <fix>3d</fix>
</trkpt>
<trkpt lat="33.810643" lon="-118.3938627">
  <ele>-9.337</ele>
  <time>2026-09-01T01:17:03Z</time>
  <course>24.99</course>
  <speed>0.0316227766016838</speed>
  <fix>3d</fix>
</trkpt>
<trkpt lat="33.810643" lon="-118.3938627">
  <ele>-9.377</ele>
  <time>2026-09-01T01:17:03Z</time>
  <course>25.0</course>
  <speed>0.0316227766016838</speed>
  <fix>3d</fix>
</trkpt>
<trkpt lat="33.8106432" lon="-118.3938628">
  <ele>-9.03</ele>
  <time>2026-09-01T01:17:03Z</time>
  <course>248.24</course>
  <speed>0.0</speed>
  <fix>3d</fix>
</trkpt>
<trkpt lat="33.810643" lon="-118.3938627">
  <ele>-9.399</ele>
  <time>2026-09-01T01:17:03Z</time>
  <course>25.0</course>
  <speed>0.0316227766016838</speed>
  <fix>3d</fix>
</trkpt>
<trkpt lat="33.810643" lon="-118.3938627">
  <ele>-9.438</ele>
  <time>2026-09-01T01:17:03Z</time>
  <course>25.01</course>
  <speed>0.0316227766016838</speed>
  <fix>3d</fix>
</trkpt>
<trkpt lat="33.8106432" lon="-118.3938628">
  <ele>-9.03</ele>
  <time>2026-09-01T01:17:03Z</time>
  <course>248.24</course>
  <speed>0.0</speed>
  <fix>3d</fix>
</trkpt>
<trkpt lat="33.810643" lon="-118.3938627">
  <ele>-9.459</ele>
  <time>2026-09-01T01:17:03Z</time>
  <course>25.01</course>
  <speed>0.0316227766016838</speed>
  <fix>3d</fix>
</trkpt>
<trkpt lat="33.810643" lon="-118.3938627">
  <ele>-9.499</ele>
  <time>2026-09-01T01:17:03Z</time>
  <course>25.02</course>
  <speed>0.0316227766016838</speed>
  <fix>3d</fix>
</trkpt>
<trkpt lat="33.8106432" lon="-118.3938628">
  <ele>-9.15</ele>
  <time>2026-09-01T01:17:03Z</time>
  <course>248.26</course>
  <speed>0.0</speed>
  <fix>3d</fix>
</trkpt>
<trkpt lat="33.810643" lon="-118.3938627">
  <ele>-9.52</ele>
  <time>2026-09-01T01:17:03Z</time>
  <course>25.03</course>
  <speed>0.0316227766016838</speed>
  <fix>3d</fix>
</trkpt>
<trkpt lat="33.810643" lon="-118.3938627">
  <ele>-9.562</ele>
  <time>2026-09-01T01:17:03Z</time>
  <course>25.03</course>
  <speed>0.0316227766016838</speed>
  <fix>3d</fix>
</trkpt>
<trkpt lat="33.8106432" lon="-118.3938628">
  <ele>-9.15</ele>
  <time>2026-09-01T01:17:03Z</time>
  <course>248.26</course>
  <speed>0.0</speed>
  <fix>3d</fix>
</trkpt>
<trkpt lat="33.810643" lon="-118.3938627">
  <ele>-9.563</ele>
  <time>2026-09-01T01:17:03Z</time>
  <course>25.03</course>
  <speed>0.0316227766016838</speed>
  <fix>3d</fix>
</trkpt>
<trkpt lat="33.8106429" lon="-118.3938627">
  <ele>-9.624</ele>
  <time>2026-09-01T01:17:03Z</time>
  <course>25.05</course>
  <speed>0.0316227766016838</speed>
  <fix>3d</fix>
</trkpt>
<trkpt lat="33.8106432" lon="-118.3938628">
  <ele>-9.27</ele>
  <time>2026-09-01T01:17:03Z</time>
  <course>248.18</course>
  <speed>0.0</speed>
  <fix>3d</fix>
</trkpt>
<trkpt lat="33.8106429" lon="-118.3938627">
  <ele>-9.645</ele>
  <time>2026-09-01T01:17:03Z</time>
  <course>25.05</course>
  <speed>0.0316227766016838</speed>
  <fix>3d</fix>
</trkpt>
<trkpt lat="33.8106429" lon="-118.3938627">
  <ele>-9.686</ele>
  <time>2026-09-01T01:17:03Z</time>
  <course>25.06</course>
  <speed>0.0316227766016838</speed>
  <fix>3d</fix>
</trkpt>
<trkpt lat="33.8106432" lon="-118.3938628">
  <ele>-9.27</ele>
  <time>2026-09-01T01:17:03Z</time>
  <course>248.18</course>
  <speed>0.0</speed>
  <fix>3d</fix>
</trkpt>
<trkpt lat="33.8106429" lon="-118.3938627">
  <ele>-9.688</ele>
  <time>2026-09-01T01:17:03Z</time>
  <course>25.06</course>
  <speed>0.0316227766016838</speed>
  <fix>3d</fix>
</trkpt>
<trkpt lat="33.8106429" lon="-118.3938627">
  <ele>-9.748</ele>
  <time>2026-09-01T01:17:03Z</time>
  <course>25.07</course>
  <speed>0.0316227766016838</speed>
  <fix>3d</fix>
</trkpt>
<trkpt lat="33.8106432" lon="-118.3938628">
  <ele>-9.38</ele>
  <time>2026-09-01T01:17:03Z</time>
  <course>248.06</course>
  <speed>0.0</speed>
  <fix>3d</fix>
</trkpt>
<trkpt lat="33.8106429" lon="-118.3938627">
  <ele>-9.77</ele>
  <time>2026-09-01T01:17:03Z</time>
  <course>25.07</course>
  <speed>0.0316227766016838</speed>
  <fix>3d</fix>
</trkpt>
<trkpt lat="33.8106429" lon="-118.3938627">
  <ele>-9.811</ele>
  <time>2026-09-01T01:17:03Z</time>
  <course>25.08</course>
  <speed>0.0316227766016838</speed>
  <fix>3d</fix>
</trkpt>
<trkpt lat="33.8106432" lon="-118.3938628">
  <ele>-9.38</ele>
  <time>2026-09-01T01:17:03Z</time>
  <course>248.06</course>
  <speed>0.0</speed>
  <fix>3d</fix>
</trkpt>
<trkpt lat="33.8106429" lon="-118.3938627">
  <ele>-9.813</ele>
  <time>2026-09-01T01:17:03Z</time>
  <course>25.08</course>
  <speed>0.0316227766016838</speed>
  <fix>3d</fix>
</trkpt>
<trkpt lat="33.8106429" lon="-118.3938627">
  <ele>-9.875</ele>
  <time>2026-09-01T01:17:03Z</time>
  <course>25.09</course>
  <speed>0.0316227766016838</speed>
  <fix>3d</fix>
</trkpt>
<trkpt lat="33.8106432" lon="-118.3938628">
  <ele>-9.51</ele>
  <time>2026-09-01T01:17:03Z</time>
  <course>247.96</course>
  <speed>0.0</speed>
  <fix>3d</fix>
</trkpt>
<trkpt lat="33.8106429" lon="-118.3938627">
  <ele>-9.9</ele>
  <time>2026-09-01T01:17:03Z</time>
  <course>25.1</course>
  <speed>0.0316227766016838</speed>
  <fix>3d</fix>
</trkpt>
<trkpt lat="33.8106429" lon="-118.3938627">
  <ele>-9.939</ele>
  <time>2026-09-01T01:17:03Z</time>
  <course>25.1</course>
  <speed>0.0316227766016838</speed>
  <fix>3d</fix>
</trkpt>
<trkpt lat="33.8106432" lon="-118.3938628">
  <ele>-9.51</ele>
  <time>2026-09-01T01:17:03Z</time>
  <course>247.96</course>
  <speed>0.0</speed>
  <fix>3d</fix>
</trkpt>
<trkpt lat="33.8106429" lon="-118.3938627">
  <ele>-9.961</ele>
  <time>2026-09-01T01:17:03Z</time>
  <course>25.11</course>
  <speed>0.0412310562561766</speed>
  <fix>3d</fix>
</trkpt>
<trkpt lat="33.8106429" lon="-118.3938627">
  <ele>-10.004</ele>
  <time>2026-09-01T01:17:03Z</time>
  <course>25.11</course>
  <speed>0.0316227766016838</speed>
  <fix>3d</fix>
</trkpt>
<trkpt lat="33.8106432" lon="-118.3938628">
  <ele>-9.62</ele>
  <time>2026-09-01T01:17:03Z</time>
  <course>247.96</course>
  <speed>0.0</speed>
  <fix>3d</fix>
</trkpt>
<trkpt lat="33.8106429" lon="-118.3938627">
  <ele>-10.029</ele>
  <time>2026-09-01T01:17:03Z</time>
  <course>25.12</course>
  <speed>0.0316227766016838</speed>
  <fix>3d</fix>
</trkpt>
<trkpt lat="33.8106429" lon="-118.3938627">
  <ele>-10.068</ele>
  <time>2026-09-01T01:17:03Z</time>
  <course>25.12</course>
  <speed>0.0316227766016838</speed>
  <fix>3d</fix>
</trkpt>
<trkpt lat="33.8106432" lon="-118.3938628">
  <ele>-9.62</ele>
  <time>2026-09-01T01:17:03Z</time>
  <course>247.96</course>
  <speed>0.0</speed>
  <fix>3d</fix>
</trkpt>
<trkpt lat="33.8106429" lon="-118.3938627">
  <ele>-10.09</ele>
  <time>2026-09-01T01:17:03Z</time>
  <course>25.13</course>
  <speed>0.0412310562561766</speed>
  <fix>3d</fix>
</trkpt>
<trkpt lat="33.8106429" lon="-118.3938627">
  <ele>-10.131</ele>
  <time>2026-09-01T01:17:03Z</time>
  <course>25.14</course>
  <speed>0.0412310562561766</speed>
  <fix>3d</fix>
</trkpt>
<trkpt lat="33.8106432" lon="-118.3938628">
  <ele>-9.75</ele>
  <time>2026-09-01T01:17:03Z</time>
  <course>248.04</course>
  <speed>0.0</speed>
  <fix>3d</fix>
</trkpt>
<trkpt lat="33.8106429" lon="-118.3938627">
  <ele>-10.153</ele>
  <time>2026-09-01T01:17:03Z</time>
  <course>25.14</course>
  <speed>0.0316227766016838</speed>
  <fix>3d</fix>
</trkpt>
<trkpt lat="33.8106429" lon="-118.3938627">
  <ele>-10.194</ele>
  <time>2026-09-01T01:17:03Z</time>
  <course>25.15</course>
  <speed>0.0412310562561766</speed>
  <fix>3d</fix>
</trkpt>
<trkpt lat="33.8106432" lon="-118.3938628">
  <ele>-9.75</ele>
  <time>2026-09-01T01:17:03Z</time>
  <course>248.04</course>
  <speed>0.0</speed>
  <fix>3d</fix>
</trkpt>
<trkpt lat="33.8106429" lon="-118.3938627">
  <ele>-10.195</ele>
  <time>2026-09-01T01:17:03Z</time>
  <course>25.15</course>
  <speed>0.0412310562561766</speed>
  <fix>3d</fix>
</trkpt>
<trkpt lat="33.8106429" lon="-118.3938627">
  <ele>-10.257</ele>
  <time>2026-09-01T01:17:03Z</time>
  <course>25.16</course>
  <speed>0.0412310562561766</speed>
  <fix>3d</fix>
</trkpt>
<trkpt lat="33.8106432" lon="-118.3938628">
  <ele>-9.87</ele>
  <time>2026-09-01T01:17:03Z</time>
  <course>248.11</course>
  <speed>0.0</speed>
  <fix>3d</fix>
</trkpt>
<trkpt lat="33.8106429" lon="-118.3938627">
  <ele>-10.278</ele>
  <time>2026-09-01T01:17:03Z</time>
  <course>25.16</course>
  <speed>0.0316227766016838</speed>
  <fix>3d</fix>
</trkpt>
<trkpt lat="33.8106429" lon="-118.3938627">
  <ele>-10.319</ele>
  <time>2026-09-01T01:17:03Z</time>
  <course>25.17</course>
  <speed>0.0412310562561766</speed>
  <fix>3d</fix>
</trkpt>
<trkpt lat="33.8106432" lon="-118.3938628">
  <ele>-9.87</ele>
  <time>2026-09-01T01:17:03Z</time>
  <course>248.11</course>
  <speed>0.0</speed>
  <fix>3d</fix>
</trkpt>
<trkpt lat="33.8106429" lon="-118.3938627">
  <ele>-10.321</ele>
  <time>2026-09-01T01:17:03Z</time>
  <course>25.17</course>
  <speed>0.0412310562561766</speed>
  <fix>3d</fix>
</trkpt>
<trkpt lat="33.8106429" lon="-118.3938627">
  <ele>-10.381</ele>
  <time>2026-09-01T01:17:03Z</time>
  <course>25.18</course>
  <speed>0.0412310562561766</speed>
  <fix>3d</fix>
</trkpt>
<trkpt lat="33.8106432" lon="-118.3938629">
  <ele>-9.99</ele>
  <time>2026-09-01T01:17:03Z</time>
  <course>248.1</course>
  <speed>0.0</speed>
  <fix>3d</fix>
</trkpt>
<trkpt lat="33.8106429" lon="-118.3938627">
  <ele>-10.403</ele>
  <time>2026-09-01T01:17:03Z</time>
  <course>25.18</course>
  <speed>0.0316227766016838</speed>
  <fix>3d</fix>
</trkpt>
<trkpt lat="33.8106429" lon="-118.3938627">
  <ele>-10.443</ele>
  <time>2026-09-01T01:17:03Z</time>
  <course>25.19</course>
  <speed>0.0412310562561766</speed>
  <fix>3d</fix>
</trkpt>
<trkpt lat="33.8106432" lon="-118.3938629">
  <ele>-9.99</ele>
  <time>2026-09-01T01:17:03Z</time>
  <course>248.1</course>
  <speed>0.0</speed>
  <fix>3d</fix>
</trkpt>
<trkpt lat="33.8106429" lon="-118.3938627">
  <ele>-10.465</ele>
  <time>2026-09-01T01:17:03Z</time>
  <course>25.2</course>
  <speed>0.0412310562561766</speed>
  <fix>3d</fix>
</trkpt>
<trkpt lat="33.8106429" lon="-118.3938627">
  <ele>-10.505</ele>
  <time>2026-09-01T01:17:03Z</time>
  <course>25.2</course>
  <speed>0.0316227766016838</speed>
  <fix>3d</fix>
</trkpt>
<trkpt lat="33.8106432" lon="-118.393863">
  <ele>-10.11</ele>
  <time>2026-09-01T01:17:03Z</time>
  <course>248.0</course>
  <speed>0.0</speed>
  <fix>3d</fix>
</trkpt>
<trkpt lat="33.8106429" lon="-118.3938627">
  <ele>-10.507</ele>
  <time>2026-09-01T01:17:03Z</time>
  <course>25.2</course>
  <speed>0.0412310562561766</speed>
  <fix>3d</fix>
</trkpt>
<trkpt lat="33.8106429" lon="-118.3938627">
  <ele>-10.566</ele>
  <time>2026-09-01T01:17:03Z</time>
  <course>25.22</course>
  <speed>0.0316227766016838</speed>
  <fix>3d</fix>
</trkpt>
<trkpt lat="33.8106432" lon="-118.393863">
  <ele>-10.11</ele>
  <time>2026-09-01T01:17:03Z</time>
  <course>248.0</course>
  <speed>0.0</speed>
  <fix>3d</fix>
</trkpt>
<trkpt lat="33.8106429" lon="-118.3938627">
  <ele>-10.568</ele>
  <time>2026-09-01T01:17:03Z</time>
  <course>25.22</course>
  <speed>0.0316227766016838</speed>
  <fix>3d</fix>
</trkpt>
<trkpt lat="33.8106429" lon="-118.3938627">
  <ele>-10.628</ele>
  <time>2026-09-01T01:17:03Z</time>
  <course>25.23</course>
  <speed>0.0316227766016838</speed>
  <fix>3d</fix>
</trkpt>
<trkpt lat="33.8106432" lon="-118.393863">
  <ele>-10.23</ele>
  <time>2026-09-01T01:17:03Z</time>
  <course>247.88</course>
  <speed>0.0</speed>
  <fix>3d</fix>
</trkpt>
<trkpt lat="33.8106429" lon="-118.3938627">
  <ele>-10.651</ele>
  <time>2026-09-01T01:17:03Z</time>
  <course>25.23</course>
  <speed>0.0316227766016838</speed>
  <fix>3d</fix>
</trkpt>
<trkpt lat="33.8106429" lon="-118.3938627">
  <ele>-10.689</ele>
  <time>2026-09-01T01:17:03Z</time>
  <course>25.24</course>
  <speed>0.0316227766016838</speed>
  <fix>3d</fix>
</trkpt>
<trkpt lat="33.8106432" lon="-118.393863">
  <ele>-10.23</ele>
  <time>2026-09-01T01:17:03Z</time>
  <course>247.88</course>
  <speed>0.0</speed>
  <fix>3d</fix>
</trkpt>
<trkpt lat="33.8106429" lon="-118.3938627">
  <ele>-10.711</ele>
  <time>2026-09-01T01:17:03Z</time>
  <course>25.24</course>
  <speed>0.0316227766016838</speed>
  <fix>3d</fix>
</trkpt>
<trkpt lat="33.8106429" lon="-118.3938627">
  <ele>-10.75</ele>
  <time>2026-09-01T01:17:03Z</time>
  <course>25.25</course>
  <speed>0.0316227766016838</speed>
  <fix>3d</fix>
</trkpt>
<trkpt lat="33.8106432" lon="-118.393863">
  <ele>-10.35</ele>
  <time>2026-09-01T01:17:03Z</time>
  <course>247.82</course>
  <speed>0.0</speed>
  <fix>3d</fix>
</trkpt>
<trkpt lat="33.8106429" lon="-118.3938627">
  <ele>-10.772</ele>
  <time>2026-09-01T01:17:03Z</time>
  <course>25.25</course>
  <speed>0.0316227766016838</speed>
  <fix>3d</fix>
</trkpt>
<trkpt lat="33.8106429" lon="-118.3938627">
  <ele>-10.812</ele>
  <time>2026-09-01T01:17:03Z</time>
  <course>25.26</course>
  <speed>0.0316227766016838</speed>
  <fix>3d</fix>
</trkpt>
<trkpt lat="33.8106432" lon="-118.393863">
  <ele>-10.35</ele>
  <time>2026-09-01T01:17:03Z</time>
  <course>247.82</course>
  <speed>0.0</speed>
  <fix>3d</fix>
</trkpt>
<trkpt lat="33.8106429" lon="-118.3938627">
  <ele>-10.814</ele>
  <time>2026-09-01T01:17:03Z</time>
  <course>25.26</course>
  <speed>0.0316227766016838</speed>
  <fix>3d</fix>
</trkpt>
<trkpt lat="33.8106429" lon="-118.3938627">
  <ele>-10.874</ele>
  <time>2026-09-01T01:17:03Z</time>
  <course>25.27</course>
  <speed>0.0316227766016838</speed>
  <fix>3d</fix>
</trkpt>
<trkpt lat="33.8106432" lon="-118.393863">
  <ele>-10.47</ele>
  <time>2026-09-01T01:17:03Z</time>
  <course>247.86</course>
  <speed>0.0</speed>
  <fix>3d</fix>
</trkpt>
<trkpt lat="33.8106429" lon="-118.3938627">
  <ele>-10.897</ele>
  <time>2026-09-01T01:17:03Z</time>
  <course>25.28</course>
  <speed>0.0316227766016838</speed>
  <fix>3d</fix>
</trkpt>
<trkpt lat="33.8106429" lon="-118.3938627">
  <ele>-10.936</ele>
  <time>2026-09-01T01:17:03Z</time>
  <course>25.28</course>
  <speed>0.0316227766016838</speed>
  <fix>3d</fix>
</trkpt>
<trkpt lat="33.8106432" lon="-118.393863">
  <ele>-10.47</ele>
  <time>2026-09-01T01:17:03Z</time>
  <course>247.86</course>
  <speed>0.0</speed>
  <fix>3d</fix>
</trkpt>
<trkpt lat="33.8106429" lon="-118.3938627">
  <ele>-10.959</ele>
  <time>2026-09-01T01:17:03Z</time>
  <course>25.29</course>
  <speed>0.0316227766016838</speed>
  <fix>3d</fix>
</trkpt>
<trkpt lat="33.8106429" lon="-118.3938627">
  <ele>-10.997</ele>
  <time>2026-09-01T01:17:03Z</time>
  <course>25.3</course>
  <speed>0.0316227766016838</speed>
  <fix>3d</fix>
</trkpt>
<trkpt lat="33.8106432" lon="-118.393863">
  <ele>-10.6</ele>
  <time>2026-09-01T01:17:03Z</time>
  <course>247.94</course>
  <speed>0.0</speed>
  <fix>3d</fix>
</trkpt>
<trkpt lat="33.8106429" lon="-118.3938627">
  <ele>-10.999</ele>
  <time>2026-09-01T01:17:03Z</time>
  <course>25.3</course>
  <speed>0.0316227766016838</speed>
  <fix>3d</fix>
</trkpt>
<trkpt lat="33.8106429" lon="-118.3938627">
  <ele>-11.057</ele>
  <time>2026-09-01T01:17:03Z</time>
  <course>25.31</course>
  <speed>0.0316227766016838</speed>
  <fix>3d</fix>
</trkpt>
<trkpt lat="33.8106432" lon="-118.393863">
  <ele>-10.6</ele>
  <time>2026-09-01T01:17:03Z</time>
  <course>247.94</course>
  <speed>0.0</speed>
  <fix>3d</fix>
</trkpt>
<trkpt lat="33.8106429" lon="-118.3938627">
  <ele>-11.08</ele>
  <time>2026-09-01T01:17:03Z</time>
  <course>25.31</course>
  <speed>0.0316227766016838</speed>
  <fix>3d</fix>
</trkpt>
<trkpt lat="33.8106429" lon="-118.3938628">
  <ele>-11.117</ele>
  <time>2026-09-01T01:17:03Z</time>
  <course>25.32</course>
  <speed>0.0316227766016838</speed>
  <fix>3d</fix>
</trkpt>
<trkpt lat="33.8106432" lon="-118.393863">
  <ele>-10.71</ele>
  <time>2026-09-01T01:17:03Z</time>
  <course>247.99</course>
  <speed>0.0</speed>
  <fix>3d</fix>
</trkpt>
<trkpt lat="33.8106429" lon="-118.3938628">
  <ele>-11.137</ele>
  <time>2026-09-01T01:17:03Z</time>
  <course>25.32</course>
  <speed>0.0316227766016838</speed>
  <fix>3d</fix>
</trkpt>
<trkpt lat="33.8106429" lon="-118.3938628">
  <ele>-11.178</ele>
  <time>2026-09-01T01:17:03Z</time>
  <course>25.33</course>
  <speed>0.0316227766016838</speed>
  <fix>3d</fix>
</trkpt>
<trkpt lat="33.8106432" lon="-118.393863">
  <ele>-10.71</ele>
  <time>2026-09-01T01:17:03Z</time>
  <course>247.99</course>
  <speed>0.0</speed>
  <fix>3d</fix>
</trkpt>
<trkpt lat="33.8106429" lon="-118.3938628">
  <ele>-11.198</ele>
  <time>2026-09-01T01:17:03Z</time>
  <course>25.33</course>
  <speed>0.0316227766016838</speed>
  <fix>3d</fix>
</trkpt>
<trkpt lat="33.8106429" lon="-118.3938628">
  <ele>-11.24</ele>
  <time>2026-09-01T01:17:03Z</time>
  <course>25.34</course>
  <speed>0.0316227766016838</speed>
  <fix>3d</fix>
</trkpt>
<trkpt lat="33.8106432" lon="-118.393863">
  <ele>-10.84</ele>
  <time>2026-09-01T01:17:03Z</time>
  <course>247.95</course>
  <speed>0.0</speed>
  <fix>3d</fix>
</trkpt>
<trkpt lat="33.8106429" lon="-118.3938628">
  <ele>-11.26</ele>
  <time>2026-09-01T01:17:03Z</time>
  <course>25.34</course>
  <speed>0.0316227766016838</speed>
  <fix>3d</fix>
</trkpt>
<trkpt lat="33.8106429" lon="-118.3938628">
  <ele>-11.303</ele>
  <time>2026-09-01T01:17:03Z</time>
  <course>25.35</course>
  <speed>0.0316227766016838</speed>
  <fix>3d</fix>
</trkpt>
<trkpt lat="33.8106432" lon="-118.393863">
  <ele>-10.84</ele>
  <time>2026-09-01T01:17:03Z</time>
  <course>247.95</course>
  <speed>0.0</speed>
  <fix>3d</fix>
</trkpt>
<trkpt lat="33.8106429" lon="-118.3938628">
  <ele>-11.327</ele>
  <time>2026-09-01T01:17:03Z</time>
  <course>25.36</course>
  <speed>0.0316227766016838</speed>
  <fix>3d</fix>
</trkpt>
<trkpt lat="33.8106429" lon="-118.3938628">
  <ele>-11.364</ele>
  <time>2026-09-01T01:17:03Z</time>
  <course>25.36</course>
  <speed>0.0316227766016838</speed>
  <fix>3d</fix>
</trkpt>
<trkpt lat="33.8106432" lon="-118.393863">
  <ele>-10.96</ele>
  <time>2026-09-01T01:17:03Z</time>
  <course>247.83</course>
  <speed>0.0</speed>
  <fix>3d</fix>
</trkpt>
<trkpt lat="33.8106429" lon="-118.3938628">
  <ele>-11.365</ele>
  <time>2026-09-01T01:17:03Z</time>
  <course>25.36</course>
  <speed>0.0316227766016838</speed>
  <fix>3d</fix>
</trkpt>
<trkpt lat="33.8106429" lon="-118.3938628">
  <ele>-11.425</ele>
  <time>2026-09-01T01:17:03Z</time>
  <course>25.37</course>
  <speed>0.0316227766016838</speed>
  <fix>3d</fix>
</trkpt>
<trkpt lat="33.8106432" lon="-118.393863">
  <ele>-10.96</ele>
  <time>2026-09-01T01:17:03Z</time>
  <course>247.83</course>
  <speed>0.0</speed>
  <fix>3d</fix>
</trkpt>
<trkpt lat="33.8106429" lon="-118.3938628">
  <ele>-11.427</ele>
  <time>2026-09-01T01:17:03Z</time>
  <course>25.37</course>
  <speed>0.0316227766016838</speed>
  <fix>3d</fix>
</trkpt>
<trkpt lat="33.8106429" lon="-118.3938628">
  <ele>-11.487</ele>
  <time>2026-09-01T01:17:03Z</time>
  <course>25.38</course>
  <speed>0.0316227766016838</speed>
  <fix>3d</fix>
</trkpt>
<trkpt lat="33.8106432" lon="-118.393863">
  <ele>-11.08</ele>
  <time>2026-09-01T01:17:03Z</time>
  <course>247.73</course>
  <speed>0.0</speed>
  <fix>3d</fix>
</trkpt>
<trkpt lat="33.8106429" lon="-118.3938628">
  <ele>-11.509</ele>
  <time>2026-09-01T01:17:03Z</time>
  <course>25.39</course>
  <speed>0.0316227766016838</speed>
  <fix>3d</fix>
</trkpt>
<trkpt lat="33.8106429" lon="-118.3938628">
  <ele>-11.55</ele>
  <time>2026-09-01T01:17:03Z</time>
  <course>25.39</course>
  <speed>0.0316227766016838</speed>
  <fix>3d</fix>
</trkpt>
<trkpt lat="33.8106432" lon="-118.393863">
  <ele>-11.08</ele>
  <time>2026-09-01T01:17:03Z</time>
  <course>247.73</course>
  <speed>0.0</speed>
  <fix>3d</fix>
</trkpt>
<trkpt lat="33.8106429" lon="-118.3938628">
  <ele>-11.571</ele>
  <time>2026-09-01T01:17:03Z</time>
  <course>25.4</course>
  <speed>0.0316227766016838</speed>
  <fix>3d</fix>
</trkpt>
<trkpt lat="33.8106429" lon="-118.3938628">
  <ele>-11.613</ele>
  <time>2026-09-01T01:17:03Z</time>
  <course>25.41</course>
  <speed>0.0316227766016838</speed>
  <fix>3d</fix>
</trkpt>
<trkpt lat="33.8106432" lon="-118.393863">
  <ele>-11.2</ele>
  <time>2026-09-01T01:17:03Z</time>
  <course>247.7</course>
  <speed>0.0</speed>
  <fix>3d</fix>
</trkpt>
<trkpt lat="33.8106429" lon="-118.3938628">
  <ele>-11.615</ele>
  <time>2026-09-01T01:17:03Z</time>
  <course>25.41</course>
  <speed>0.0316227766016838</speed>
  <fix>3d</fix>
</trkpt>
<trkpt lat="33.8106429" lon="-118.3938628">
  <ele>-11.677</ele>
  <time>2026-09-01T01:17:03Z</time>
  <course>25.42</course>
  <speed>0.0316227766016838</speed>
  <fix>3d</fix>
</trkpt>
<trkpt lat="33.8106432" lon="-118.393863">
  <ele>-11.2</ele>
  <time>2026-09-01T01:17:03Z</time>
  <course>247.7</course>
  <speed>0.0</speed>
  <fix>3d</fix>
</trkpt>
<trkpt lat="33.8106429" lon="-118.3938628">
  <ele>-11.7</ele>
  <time>2026-09-01T01:17:03Z</time>
  <course>25.42</course>
  <speed>0.0316227766016838</speed>
  <fix>3d</fix>
</trkpt>
<trkpt lat="33.8106429" lon="-118.3938628">
  <ele>-11.741</ele>
  <time>2026-09-01T01:17:03Z</time>
  <course>25.43</course>
  <speed>0.0316227766016838</speed>
  <fix>3d</fix>
</trkpt>
<trkpt lat="33.8106432" lon="-118.393863">
  <ele>-11.32</ele>
  <time>2026-09-01T01:17:03Z</time>
  <course>247.76</course>
  <speed>0.0</speed>
  <fix>3d</fix>
</trkpt>
<trkpt lat="33.8106429" lon="-118.3938628">
  <ele>-11.765</ele>
  <time>2026-09-01T01:17:03Z</time>
  <course>25.43</course>
  <speed>0.0316227766016838</speed>
  <fix>3d</fix>
</trkpt>
<trkpt lat="33.8106429" lon="-118.3938628">
  <ele>-11.804</ele>
  <time>2026-09-01T01:17:03Z</time>
  <course>25.44</course>
  <speed>0.0316227766016838</speed>
  <fix>3d</fix>
</trkpt>
<trkpt lat="33.8106432" lon="-118.393863">
  <ele>-11.32</ele>
  <time>2026-09-01T01:17:03Z</time>
  <course>247.76</course>
  <speed>0.0</speed>
  <fix>3d</fix>
</trkpt>
<trkpt lat="33.8106429" lon="-118.3938628">
  <ele>-11.828</ele>
  <time>2026-09-01T01:17:03Z</time>
  <course>25.44</course>
  <speed>0.0316227766016838</speed>
  <fix>3d</fix>
</trkpt>
<trkpt lat="33.8106429" lon="-118.3938628">
  <ele>-11.867</ele>
  <time>2026-09-01T01:17:03Z</time>
  <course>25.45</course>
  <speed>0.0316227766016838</speed>
  <fix>3d</fix>
</trkpt>
<trkpt lat="33.8106432" lon="-118.3938631">
  <ele>-11.44</ele>
  <time>2026-09-01T01:17:03Z</time>
  <course>247.84</course>
  <speed>0.0</speed>
  <fix>3d</fix>
</trkpt>
<trkpt lat="33.8106429" lon="-118.3938628">
  <ele>-11.889</ele>
  <time>2026-09-01T01:17:03Z</time>
  <course>25.45</course>
  <speed>0.0316227766016838</speed>
  <fix>3d</fix>
</trkpt>
<trkpt lat="33.8106429" lon="-118.3938628">
  <ele>-11.929</ele>
  <time>2026-09-01T01:17:03Z</time>
  <course>25.46</course>
  <speed>0.0316227766016838</speed>
  <fix>3d</fix>
</trkpt>
<trkpt lat="33.8106432" lon="-118.3938631">
  <ele>-11.44</ele>
  <time>2026-09-01T01:17:03Z</time>
  <course>247.84</course>
  <speed>0.0</speed>
  <fix>3d</fix>
</trkpt>
<trkpt lat="33.8106429" lon="-118.3938628">
  <ele>-11.95</ele>
  <time>2026-09-01T01:17:03Z</time>
  <course>25.46</course>
  <speed>0.0316227766016838</speed>
  <fix>3d</fix>
</trkpt>
<trkpt lat="33.8106429" lon="-118.3938628">
  <ele>-11.992</ele>
  <time>2026-09-01T01:17:03Z</time>
  <course>25.47</course>
  <speed>0.03</speed>
  <fix>3d</fix>
</trkpt>
<trkpt lat="33.8106432" lon="-118.3938631">
  <ele>-11.55</ele>
  <time>2026-09-01T01:17:03Z</time>
  <course>247.86</course>
  <speed>0.0</speed>
  <fix>3d</fix>
</trkpt>
<trkpt lat="33.8106429" lon="-118.3938628">
  <ele>-12.013</ele>
  <time>2026-09-01T01:17:03Z</time>
  <course>25.47</course>
  <speed>0.03</speed>
  <fix>3d</fix>
</trkpt>
<trkpt lat="33.8106429" lon="-118.3938629">
  <ele>-12.053</ele>
  <time>2026-09-01T01:17:03Z</time>
  <course>25.48</course>
  <speed>0.03</speed>
  <fix>3d</fix>
</trkpt>
<trkpt lat="33.8106432" lon="-118.3938631">
  <ele>-11.55</ele>
  <time>2026-09-01T01:17:03Z</time>
  <course>247.86</course>
  <speed>0.0</speed>
  <fix>3d</fix>
</trkpt>
<trkpt lat="33.8106429" lon="-118.3938629">
  <ele>-12.055</ele>
  <time>2026-09-01T01:17:03Z</time>
  <course>25.48</course>
  <speed>0.03</speed>
  <fix>3d</fix>
</trkpt>
<trkpt lat="33.8106429" lon="-118.3938629">
  <ele>-12.115</ele>
  <time>2026-09-01T01:17:03Z</time>
  <course>25.49</course>
  <speed>0.03</speed>
  <fix>3d</fix>
</trkpt>
<trkpt lat="33.8106432" lon="-118.3938631">
  <ele>-11.68</ele>
  <time>2026-09-01T01:17:03Z</time>
  <course>247.79</course>
  <speed>0.0</speed>
  <fix>3d</fix>
</trkpt>
<trkpt lat="33.8106429" lon="-118.3938629">
  <ele>-12.116</ele>
  <time>2026-09-01T01:17:03Z</time>
  <course>25.49</course>
  <speed>0.03</speed>
  <fix>3d</fix>
</trkpt>
<trkpt lat="33.8106429" lon="-118.3938629">
  <ele>-12.176</ele>
  <time>2026-09-01T01:17:03Z</time>
  <course>25.5</course>
  <speed>0.03</speed>
  <fix>3d</fix>
</trkpt>
<trkpt lat="33.8106432" lon="-118.3938631">
  <ele>-11.68</ele>
  <time>2026-09-01T01:17:03Z</time>
  <course>247.79</course>
  <speed>0.0</speed>
  <fix>3d</fix>
</trkpt>
<trkpt lat="33.8106429" lon="-118.3938629">
  <ele>-12.201</ele>
  <time>2026-09-01T01:17:03Z</time>
  <course>25.51</course>
  <speed>0.03</speed>
  <fix>3d</fix>
</trkpt>
<trkpt lat="33.8106429" lon="-118.3938629">
  <ele>-12.238</ele>
  <time>2026-09-01T01:17:03Z</time>
  <course>25.51</course>
  <speed>0.03</speed>
  <fix>3d</fix>
</trkpt>
<trkpt lat="33.8106432" lon="-118.3938631">
  <ele>-11.79</ele>
  <time>2026-09-01T01:17:03Z</time>
  <course>247.67</course>
  <speed>0.0</speed>
  <fix>3d</fix>
</trkpt>
<trkpt lat="33.8106429" lon="-118.3938629">
  <ele>-12.259</ele>
  <time>2026-09-01T01:17:03Z</time>
  <course>25.52</course>
  <speed>0.03</speed>
  <fix>3d</fix>
</trkpt>
<trkpt lat="33.8106429" lon="-118.3938629">
  <ele>-12.299</ele>
  <time>2026-09-01T01:17:03Z</time>
  <course>25.53</course>
  <speed>0.03</speed>
  <fix>3d</fix>
</trkpt>
<trkpt lat="33.8106432" lon="-118.3938631">
  <ele>-11.79</ele>
  <time>2026-09-01T01:17:03Z</time>
  <course>247.67</course>
  <speed>0.0</speed>
  <fix>3d</fix>
</trkpt>
<trkpt lat="33.8106429" lon="-118.3938629">
  <ele>-12.3</ele>
  <time>2026-09-01T01:17:03Z</time>
  <course>25.53</course>
  <speed>0.03</speed>
  <fix>3d</fix>
</trkpt>
<trkpt lat="33.8106429" lon="-118.3938629">
  <ele>-12.359</ele>
  <time>2026-09-01T01:17:03Z</time>
  <course>25.54</course>
  <speed>0.03</speed>
  <fix>3d</fix>
</trkpt>
<trkpt lat="33.8106432" lon="-118.3938631">
  <ele>-11.92</ele>
  <time>2026-09-01T01:17:03Z</time>
  <course>247.59</course>
  <speed>0.0</speed>
  <fix>3d</fix>
</trkpt>
<trkpt lat="33.8106429" lon="-118.3938629">
  <ele>-12.381</ele>
  <time>2026-09-01T01:17:03Z</time>
  <course>25.54</course>
  <speed>0.03</speed>
  <fix>3d</fix>
</trkpt>
<trkpt lat="33.8106429" lon="-118.3938629">
  <ele>-12.42</ele>
  <time>2026-09-01T01:17:03Z</time>
  <course>25.55</course>
  <speed>0.03</speed>
  <fix>3d</fix>
</trkpt>
<trkpt lat="33.8106432" lon="-118.3938631">
  <ele>-11.92</ele>
  <time>2026-09-01T01:17:03Z</time>
  <course>247.59</course>
  <speed>0.0</speed>
  <fix>3d</fix>
</trkpt>
<trkpt lat="33.8106429" lon="-118.3938629">
  <ele>-12.441</ele>
  <time>2026-09-01T01:17:03Z</time>
  <course>25.55</course>
  <speed>0.03</speed>
  <fix>3d</fix>
</trkpt>
<trkpt lat="33.8106429" lon="-118.3938629">
  <ele>-12.481</ele>
  <time>2026-09-01T01:17:03Z</time>
  <course>25.56</course>
  <speed>0.03</speed>
  <fix>3d</fix>
</trkpt>
<trkpt lat="33.8106432" lon="-118.3938631">
  <ele>-12.04</ele>
  <time>2026-09-01T01:17:03Z</time>
  <course>247.6</course>
  <speed>0.0</speed>
  <fix>3d</fix>
</trkpt>
<trkpt lat="33.8106429" lon="-118.3938629">
  <ele>-12.504</ele>
  <time>2026-09-01T01:17:03Z</time>
  <course>25.56</course>
  <speed>0.03</speed>
  <fix>3d</fix>
</trkpt>
<trkpt lat="33.8106429" lon="-118.3938629">
  <ele>-12.542</ele>
  <time>2026-09-01T01:17:03Z</time>
  <course>25.57</course>
  <speed>0.03</speed>
  <fix>3d</fix>
</trkpt>
<trkpt lat="33.8106432" lon="-118.3938631">
  <ele>-12.04</ele>
  <time>2026-09-01T01:17:03Z</time>
  <course>247.6</course>
  <speed>0.0</speed>
  <fix>3d</fix>
</trkpt>
<trkpt lat="33.8106429" lon="-118.3938629">
  <ele>-12.561</ele>
  <time>2026-09-01T01:17:03Z</time>
  <course>25.57</course>
  <speed>0.03</speed>
  <fix>3d</fix>
</trkpt>
<trkpt lat="33.8106429" lon="-118.3938629">
  <ele>-12.604</ele>
  <time>2026-09-01T01:17:03Z</time>
  <course>25.58</course>
  <speed>0.03</speed>
  <fix>3d</fix>
</trkpt>
<trkpt lat="33.8106432" lon="-118.3938631">
  <ele>-12.16</ele>
  <time>2026-09-01T01:17:03Z</time>
  <course>247.68</course>
  <speed>0.0</speed>
  <fix>3d</fix>
</trkpt>
<trkpt lat="33.8106429" lon="-118.3938629">
  <ele>-12.626</ele>
  <time>2026-09-01T01:17:03Z</time>
  <course>25.58</course>
  <speed>0.03</speed>
  <fix>3d</fix>
</trkpt>
<trkpt lat="33.8106429" lon="-118.3938629">
  <ele>-12.666</ele>
  <time>2026-09-01T01:17:03Z</time>
  <course>25.59</course>
  <speed>0.03</speed>
  <fix>3d</fix>
</trkpt>
<trkpt lat="33.8106432" lon="-118.3938631">
  <ele>-12.16</ele>
  <time>2026-09-01T01:17:03Z</time>
  <course>247.68</course>
  <speed>0.0</speed>
  <fix>3d</fix>
</trkpt>
<trkpt lat="33.8106429" lon="-118.3938629">
  <ele>-12.668</ele>
  <time>2026-09-01T01:17:03Z</time>
  <course>25.59</course>
  <speed>0.03</speed>
  <fix>3d</fix>
</trkpt>
<trkpt lat="33.8106429" lon="-118.3938629">
  <ele>-12.728</ele>
  <time>2026-09-01T01:17:03Z</time>
  <course>25.6</course>
  <speed>0.03</speed>
  <fix>3d</fix>
</trkpt>
<trkpt lat="33.8106432" lon="-118.3938631">
  <ele>-12.29</ele>
  <time>2026-09-01T01:17:03Z</time>
  <course>247.75</course>
  <speed>0.0</speed>
  <fix>3d</fix>
</trkpt>
<trkpt lat="33.8106429" lon="-118.3938629">
  <ele>-12.749</ele>
  <time>2026-09-01T01:17:03Z</time>
  <course>25.6</course>
  <speed>0.03</speed>
  <fix>3d</fix>
</trkpt>
<trkpt lat="33.8106429" lon="-118.3938629">
  <ele>-12.789</ele>
  <time>2026-09-01T01:17:03Z</time>
  <course>25.61</course>
  <speed>0.03</speed>
  <fix>3d</fix>
</trkpt>
<trkpt lat="33.8106432" lon="-118.3938631">
  <ele>-12.29</ele>
  <time>2026-09-01T01:17:03Z</time>
  <course>247.75</course>
  <speed>0.0</speed>
  <fix>3d</fix>
</trkpt>
<trkpt lat="33.8106429" lon="-118.3938629">
  <ele>-12.811</ele>
  <time>2026-09-01T01:17:03Z</time>
  <course>25.61</course>
  <speed>0.03</speed>
  <fix>3d</fix>
</trkpt>
<trkpt lat="33.8106429" lon="-118.3938629">
  <ele>-12.849</ele>
  <time>2026-09-01T01:17:03Z</time>
  <course>25.62</course>
  <speed>0.03</speed>
  <fix>3d</fix>
</trkpt>
<trkpt lat="33.8106432" lon="-118.3938631">
  <ele>-12.41</ele>
  <time>2026-09-01T01:17:03Z</time>
  <course>247.73</course>
  <speed>0.0</speed>
  <fix>3d</fix>
</trkpt>
<trkpt lat="33.8106429" lon="-118.3938629">
  <ele>-12.851</ele>
  <time>2026-09-01T01:17:03Z</time>
  <course>25.62</course>
  <speed>0.03</speed>
  <fix>3d</fix>
</trkpt>
<trkpt lat="33.8106429" lon="-118.3938629">
  <ele>-12.909</ele>
  <time>2026-09-01T01:17:03Z</time>
  <course>25.63</course>
  <speed>0.03</speed>
  <fix>3d</fix>
</trkpt>
<trkpt lat="33.8106432" lon="-118.3938631">
  <ele>-12.41</ele>
  <time>2026-09-01T01:17:03Z</time>
  <course>247.73</course>
  <speed>0.0</speed>
  <fix>3d</fix>
</trkpt>
<trkpt lat="33.8106429" lon="-118.3938629">
  <ele>-12.911</ele>
  <time>2026-09-01T01:17:03Z</time>
  <course>25.63</course>
  <speed>0.03</speed>
  <fix>3d</fix>
</trkpt>
<trkpt lat="33.8106429" lon="-118.3938629">
  <ele>-12.97</ele>
  <time>2026-09-01T01:17:03Z</time>
  <course>25.64</course>
  <speed>0.03</speed>
  <fix>3d</fix>
</trkpt>
<trkpt lat="33.8106432" lon="-118.3938631">
  <ele>-12.53</ele>
  <time>2026-09-01T01:17:03Z</time>
  <course>247.64</course>
  <speed>0.0</speed>
  <fix>3d</fix>
</trkpt>
<trkpt lat="33.8106429" lon="-118.3938629">
  <ele>-12.992</ele>
  <time>2026-09-01T01:17:03Z</time>
  <course>25.65</course>
  <speed>0.03</speed>
  <fix>3d</fix>
</trkpt>
<trkpt lat="33.8106429" lon="-118.3938629">
  <ele>-13.032</ele>
  <time>2026-09-01T01:17:03Z</time>
  <course>25.65</course>
  <speed>0.03</speed>
  <fix>3d</fix>
</trkpt>
<trkpt lat="33.8106432" lon="-118.3938631">
  <ele>-12.53</ele>
  <time>2026-09-01T01:17:03Z</time>
  <course>247.64</course>
  <speed>0.0</speed>
  <fix>3d</fix>
</trkpt>
<trkpt lat="33.8106429" lon="-118.3938629">
  <ele>-13.056</ele>
  <time>2026-09-01T01:17:03Z</time>
  <course>25.66</course>
  <speed>0.0316227766016838</speed>
  <fix>3d</fix>
</trkpt>
<trkpt lat="33.8106429" lon="-118.3938629">
  <ele>-13.095</ele>
  <time>2026-09-01T01:17:03Z</time>
  <course>25.66</course>
  <speed>0.0316227766016838</speed>
  <fix>3d</fix>
</trkpt>
<trkpt lat="33.8106432" lon="-118.3938631">
  <ele>-12.65</ele>
  <time>2026-09-01T01:17:03Z</time>
  <course>247.53</course>
  <speed>0.0</speed>
  <fix>3d</fix>
</trkpt>
<trkpt lat="33.8106429" lon="-118.3938629">
  <ele>-13.118</ele>
  <time>2026-09-01T01:17:03Z</time>
  <course>25.67</course>
  <speed>0.0316227766016838</speed>
  <fix>3d</fix>
</trkpt>
<trkpt lat="33.8106429" lon="-118.3938629">
  <ele>-13.159</ele>
  <time>2026-09-01T01:17:03Z</time>
  <course>25.67</course>
  <speed>0.0316227766016838</speed>
  <fix>3d</fix>
</trkpt>
<trkpt lat="33.8106432" lon="-118.3938631">
  <ele>-12.65</ele>
  <time>2026-09-01T01:17:03Z</time>
  <course>247.53</course>
  <speed>0.0</speed>
  <fix>3d</fix>
</trkpt>
<trkpt lat="33.8106429" lon="-118.3938629">
  <ele>-13.181</ele>
  <time>2026-09-01T01:17:03Z</time>
  <course>25.68</course>
  <speed>0.0316227766016838</speed>
  <fix>3d</fix>
</trkpt>
<trkpt lat="33.8106429" lon="-118.3938629">
  <ele>-13.221</ele>
  <time>2026-09-01T01:17:03Z</time>
  <course>25.68</course>
  <speed>0.0316227766016838</speed>
  <fix>3d</fix>
</trkpt>
<trkpt lat="33.8106432" lon="-118.3938631">
  <ele>-12.77</ele>
  <time>2026-09-01T01:17:03Z</time>
  <course>247.48</course>
  <speed>0.0</speed>
  <fix>3d</fix>
</trkpt>
<trkpt lat="33.8106429" lon="-118.3938629">
  <ele>-13.243</ele>
  <time>2026-09-01T01:17:03Z</time>
  <course>25.69</course>
  <speed>0.0316227766016838</speed>
  <fix>3d</fix>
</trkpt>
<trkpt lat="33.8106429" lon="-118.3938629">
  <ele>-13.284</ele>
  <time>2026-09-01T01:17:04Z</time>
  <course>25.69</course>
  <speed>0.0316227766016838</speed>
  <fix>3d</fix>
</trkpt>
<trkpt lat="33.8106432" lon="-118.3938631">
  <ele>-12.77</ele>
  <time>2026-09-01T01:17:04Z</time>
  <course>247.48</course>
  <speed>0.0</speed>
  <fix>3d</fix>
</trkpt>
<trkpt lat="33.8106429" lon="-118.3938629">
  <ele>-13.286</ele>
  <time>2026-09-01T01:17:04Z</time>
  <course>25.7</course>
  <speed>0.0316227766016838</speed>
  <fix>3d</fix>
</trkpt>
<trkpt lat="33.8106429" lon="-118.3938629">
  <ele>-13.347</ele>
  <time>2026-09-01T01:17:04Z</time>
  <course>25.71</course>
  <speed>0.0316227766016838</speed>
  <fix>3d</fix>
</trkpt>
<trkpt lat="33.8106432" lon="-118.3938632">
  <ele>-12.88</ele>
  <time>2026-09-01T01:17:04Z</time>
  <course>247.52</course>
  <speed>0.0</speed>
  <fix>3d</fix>
</trkpt>
<trkpt lat="33.8106429" lon="-118.3938629">
  <ele>-13.368</ele>
  <time>2026-09-01T01:17:04Z</time>
  <course>25.71</course>
  <speed>0.0316227766016838</speed>
  <fix>3d</fix>
</trkpt>
<trkpt lat="33.8106429" lon="-118.3938629">
  <ele>-13.41</ele>
  <time>2026-09-01T01:17:04Z</time>
  <course>25.72</course>
  <speed>0.0316227766016838</speed>
  <fix>3d</fix>
</trkpt>
<trkpt lat="33.8106432" lon="-118.3938632">
  <ele>-12.88</ele>
  <time>2026-09-01T01:17:04Z</time>
  <course>247.52</course>
  <speed>0.0</speed>
  <fix>3d</fix>
</trkpt>
<trkpt lat="33.8106429" lon="-118.3938629">
  <ele>-13.432</ele>
  <time>2026-09-01T01:17:04Z</time>
  <course>25.72</course>
  <speed>0.0316227766016838</speed>
  <fix>3d</fix>
</trkpt>
<trkpt lat="33.8106429" lon="-118.393863">
  <ele>-13.473</ele>
  <time>2026-09-01T01:17:04Z</time>
  <course>25.73</course>
  <speed>0.0316227766016838</speed>
  <fix>3d</fix>
</trkpt>
<trkpt lat="33.8106432" lon="-118.3938632">
  <ele>-13.01</ele>
  <time>2026-09-01T01:17:04Z</time>
  <course>247.6</course>
  <speed>0.0</speed>
  <fix>3d</fix>
</trkpt>
<trkpt lat="33.8106429" lon="-118.393863">
  <ele>-13.497</ele>
  <time>2026-09-01T01:17:04Z</time>
  <course>25.73</course>
  <speed>0.0316227766016838</speed>
  <fix>3d</fix>
</trkpt>
<trkpt lat="33.8106429" lon="-118.393863">
  <ele>-13.536</ele>
  <time>2026-09-01T01:17:04Z</time>
  <course>25.74</course>
  <speed>0.0316227766016838</speed>
  <fix>3d</fix>
</trkpt>
<trkpt lat="33.8106432" lon="-118.3938632">
  <ele>-13.01</ele>
  <time>2026-09-01T01:17:04Z</time>
  <course>247.6</course>
  <speed>0.0</speed>
  <fix>3d</fix>
</trkpt>
<trkpt lat="33.8106429" lon="-118.393863">
  <ele>-13.559</ele>
  <time>2026-09-01T01:17:04Z</time>
  <course>25.74</course>
  <speed>0.0316227766016838</speed>
  <fix>3d</fix>
</trkpt>
<trkpt lat="33.8106429" lon="-118.393863">
  <ele>-13.599</ele>
  <time>2026-09-01T01:17:04Z</time>
  <course>25.75</course>
  <speed>0.0316227766016838</speed>
  <fix>3d</fix>
</trkpt>
<trkpt lat="33.8106432" lon="-118.3938632">
  <ele>-13.12</ele>
  <time>2026-09-01T01:17:04Z</time>
  <course>247.64</course>
  <speed>0.0</speed>
  <fix>3d</fix>
</trkpt>
<trkpt lat="33.8106429" lon="-118.393863">
  <ele>-13.601</ele>
  <time>2026-09-01T01:17:04Z</time>
  <course>25.75</course>
  <speed>0.0316227766016838</speed>
  <fix>3d</fix>
</trkpt>
<trkpt lat="33.8106429" lon="-118.393863">
  <ele>-13.661</ele>
  <time>2026-09-01T01:17:04Z</time>
  <course>25.76</course>
  <speed>0.0316227766016838</speed>
  <fix>3d</fix>
</trkpt>
<trkpt lat="33.8106432" lon="-118.3938632">
  <ele>-13.12</ele>
  <time>2026-09-01T01:17:04Z</time>
  <course>247.64</course>
  <speed>0.0</speed>
  <fix>3d</fix>
</trkpt>
<trkpt lat="33.8106429" lon="-118.393863">
  <ele>-13.663</ele>
  <time>2026-09-01T01:17:04Z</time>
  <course>25.76</course>
  <speed>0.0316227766016838</speed>
  <fix>3d</fix>
</trkpt>
<trkpt lat="33.8106429" lon="-118.393863">
  <ele>-13.724</ele>
  <time>2026-09-01T01:17:04Z</time>
  <course>25.77</course>
  <speed>0.0316227766016838</speed>
  <fix>3d</fix>
</trkpt>
<trkpt lat="33.8106432" lon="-118.3938632">
  <ele>-13.25</ele>
  <time>2026-09-01T01:17:04Z</time>
  <course>247.6</course>
  <speed>0.0</speed>
  <fix>3d</fix>
</trkpt>
<trkpt lat="33.8106429" lon="-118.393863">
  <ele>-13.745</ele>
  <time>2026-09-01T01:17:04Z</time>
  <course>25.77</course>
  <speed>0.0316227766016838</speed>
  <fix>3d</fix>
</trkpt>
<trkpt lat="33.8106429" lon="-118.393863">
  <ele>-13.786</ele>
  <time>2026-09-01T01:17:04Z</time>
  <course>25.78</course>
  <speed>0.0316227766016838</speed>
  <fix>3d</fix>
</trkpt>
<trkpt lat="33.8106432" lon="-118.3938632">
  <ele>-13.25</ele>
  <time>2026-09-01T01:17:04Z</time>
  <course>247.6</course>
  <speed>0.0</speed>
  <fix>3d</fix>
</trkpt>
<trkpt lat="33.8106429" lon="-118.393863">
  <ele>-13.808</ele>
  <time>2026-09-01T01:17:04Z</time>
  <course>25.78</course>
  <speed>0.0316227766016838</speed>
  <fix>3d</fix>
</trkpt>
<trkpt lat="33.8106429" lon="-118.393863">
  <ele>-13.851</ele>
  <time>2026-09-01T01:17:04Z</time>
  <course>25.79</course>
  <speed>0.0316227766016838</speed>
  <fix>3d</fix>
</trkpt>
<trkpt lat="33.8106432" lon="-118.3938632">
  <ele>-13.37</ele>
  <time>2026-09-01T01:17:04Z</time>
  <course>247.49</course>
  <speed>0.0</speed>
  <fix>3d</fix>
</trkpt>
<trkpt lat="33.8106429" lon="-118.393863">
  <ele>-13.875</ele>
  <time>2026-09-01T01:17:04Z</time>
  <course>25.79</course>
  <speed>0.0316227766016838</speed>
  <fix>3d</fix>
</trkpt>
<trkpt lat="33.8106429" lon="-118.393863">
  <ele>-13.914</ele>
  <time>2026-09-01T01:17:04Z</time>
  <course>25.8</course>
  <speed>0.0316227766016838</speed>
  <fix>3d</fix>
</trkpt>
<trkpt lat="33.8106432" lon="-118.3938632">
  <ele>-13.37</ele>
  <time>2026-09-01T01:17:04Z</time>
  <course>247.49</course>
  <speed>0.0</speed>
  <fix>3d</fix>
</trkpt>
<trkpt lat="33.8106429" lon="-118.393863">
  <ele>-13.916</ele>
  <time>2026-09-01T01:17:04Z</time>
  <course>25.8</course>
  <speed>0.0316227766016838</speed>
  <fix>3d</fix>
</trkpt>
<trkpt lat="33.8106429" lon="-118.393863">
  <ele>-13.978</ele>
  <time>2026-09-01T01:17:04Z</time>
  <course>25.81</course>
  <speed>0.0316227766016838</speed>
  <fix>3d</fix>
</trkpt>
<trkpt lat="33.8106432" lon="-118.3938632">
  <ele>-13.49</ele>
  <time>2026-09-01T01:17:04Z</time>
  <course>247.4</course>
  <speed>0.0</speed>
  <fix>3d</fix>
</trkpt>
<trkpt lat="33.8106429" lon="-118.393863">
  <ele>-13.98</ele>
  <time>2026-09-01T01:17:04Z</time>
  <course>25.81</course>
  <speed>0.0316227766016838</speed>
  <fix>3d</fix>
</trkpt>
<trkpt lat="33.8106429" lon="-118.393863">
  <ele>-14.043</ele>
  <time>2026-09-01T01:17:04Z</time>
  <course>25.82</course>
  <speed>0.0316227766016838</speed>
  <fix>3d</fix>
</trkpt>
<trkpt lat="33.8106432" lon="-118.3938632">
  <ele>-13.49</ele>
  <time>2026-09-01T01:17:04Z</time>
  <course>247.4</course>
  <speed>0.0</speed>
  <fix>3d</fix>
</trkpt>
<trkpt lat="33.8106429" lon="-118.393863">
  <ele>-14.065</ele>
  <time>2026-09-01T01:17:04Z</time>
  <course>25.82</course>
  <speed>0.0316227766016838</speed>
  <fix>3d</fix>
</trkpt>
<trkpt lat="33.8106429" lon="-118.393863">
  <ele>-14.107</ele>
  <time>2026-09-01T01:17:04Z</time>
  <course>25.83</course>
  <speed>0.0316227766016838</speed>
  <fix>3d</fix>
</trkpt>
<trkpt lat="33.8106432" lon="-118.3938632">
  <ele>-13.61</ele>
  <time>2026-09-01T01:17:04Z</time>
  <course>247.38</course>
  <speed>0.0</speed>
  <fix>3d</fix>
</trkpt>
<trkpt lat="33.8106429" lon="-118.393863">
  <ele>-14.129</ele>
  <time>2026-09-01T01:17:04Z</time>
  <course>25.83</course>
  <speed>0.0316227766016838</speed>
  <fix>3d</fix>
</trkpt>
<trkpt lat="33.8106429" lon="-118.393863">
  <ele>-14.17</ele>
  <time>2026-09-01T01:17:04Z</time>
  <course>25.84</course>
  <speed>0.0316227766016838</speed>
  <fix>3d</fix>
</trkpt>
<trkpt lat="33.8106432" lon="-118.3938632">
  <ele>-13.61</ele>
  <time>2026-09-01T01:17:04Z</time>
  <course>247.38</course>
  <speed>0.0</speed>
  <fix>3d</fix>
</trkpt>
<trkpt lat="33.8106429" lon="-118.393863">
  <ele>-14.195</ele>
  <time>2026-09-01T01:17:04Z</time>
  <course>25.85</course>
  <speed>0.0316227766016838</speed>
  <fix>3d</fix>
</trkpt>
<trkpt lat="33.8106429" lon="-118.393863">
  <ele>-14.235</ele>
  <time>2026-09-01T01:17:04Z</time>
  <course>25.85</course>
  <speed>0.0316227766016838</speed>
  <fix>3d</fix>
</trkpt>
<trkpt lat="33.8106432" lon="-118.3938632">
  <ele>-13.73</ele>
  <time>2026-09-01T01:17:04Z</time>
  <course>247.45</course>
  <speed>0.0</speed>
  <fix>3d</fix>
</trkpt>
<trkpt lat="33.8106429" lon="-118.393863">
  <ele>-14.237</ele>
  <time>2026-09-01T01:17:04Z</time>
  <course>25.85</course>
  <speed>0.0316227766016838</speed>
  <fix>3d</fix>
</trkpt>
<trkpt lat="33.8106429" lon="-118.393863">
  <ele>-14.297</ele>
  <time>2026-09-01T01:17:04Z</time>
  <course>25.86</course>
  <speed>0.0316227766016838</speed>
  <fix>3d</fix>
</trkpt>
<trkpt lat="33.8106432" lon="-118.3938632">
  <ele>-13.73</ele>
  <time>2026-09-01T01:17:04Z</time>
  <course>247.45</course>
  <speed>0.0</speed>
  <fix>3d</fix>
</trkpt>
<trkpt lat="33.8106429" lon="-118.393863">
  <ele>-14.321</ele>
  <time>2026-09-01T01:17:04Z</time>
  <course>25.87</course>
  <speed>0.0316227766016838</speed>
  <fix>3d</fix>
</trkpt>
<trkpt lat="33.8106429" lon="-118.393863">
  <ele>-14.359</ele>
  <time>2026-09-01T01:17:04Z</time>
  <course>25.87</course>
  <speed>0.0316227766016838</speed>
  <fix>3d</fix>
</trkpt>
<trkpt lat="33.8106432" lon="-118.3938632">
  <ele>-13.85</ele>
  <time>2026-09-01T01:17:04Z</time>
  <course>247.52</course>
  <speed>0.0</speed>
  <fix>3d</fix>
</trkpt>
<trkpt lat="33.8106429" lon="-118.393863">
  <ele>-14.381</ele>
  <time>2026-09-01T01:17:04Z</time>
  <course>25.88</course>
  <speed>0.0316227766016838</speed>
  <fix>3d</fix>
</trkpt>
<trkpt lat="33.8106429" lon="-118.393863">
  <ele>-14.422</ele>
  <time>2026-09-01T01:17:04Z</time>
  <course>25.88</course>
  <speed>0.0316227766016838</speed>
  <fix>3d</fix>
</trkpt>
<trkpt lat="33.8106432" lon="-118.3938632">
  <ele>-13.85</ele>
  <time>2026-09-01T01:17:04Z</time>
  <course>247.52</course>
  <speed>0.0</speed>
  <fix>3d</fix>
</trkpt>
<trkpt lat="33.8106429" lon="-118.393863">
  <ele>-14.445</ele>
  <time>2026-09-01T01:17:04Z</time>
  <course>25.89</course>
  <speed>0.0316227766016838</speed>
  <fix>3d</fix>
</trkpt>
<trkpt lat="33.8106429" lon="-118.393863">
  <ele>-14.483</ele>
  <time>2026-09-01T01:17:04Z</time>
  <course>25.89</course>
  <speed>0.0316227766016838</speed>
  <fix>3d</fix>
</trkpt>
<trkpt lat="33.8106432" lon="-118.3938632">
  <ele>-13.97</ele>
  <time>2026-09-01T01:17:04Z</time>
  <course>247.54</course>
  <speed>0.0</speed>
  <fix>3d</fix>
</trkpt>
<trkpt lat="33.8106429" lon="-118.393863">
  <ele>-14.485</ele>
  <time>2026-09-01T01:17:04Z</time>
  <course>25.89</course>
  <speed>0.0316227766016838</speed>
  <fix>3d</fix>
</trkpt>
<trkpt lat="33.8106429" lon="-118.393863">
  <ele>-14.544</ele>
  <time>2026-09-01T01:17:04Z</time>
  <course>25.9</course>
  <speed>0.0316227766016838</speed>
  <fix>3d</fix>
</trkpt>
<trkpt lat="33.8106432" lon="-118.3938632">
  <ele>-13.97</ele>
  <time>2026-09-01T01:17:04Z</time>
  <course>247.54</course>
  <speed>0.0</speed>
  <fix>3d</fix>
</trkpt>
<trkpt lat="33.8106429" lon="-118.393863">
  <ele>-14.546</ele>
  <time>2026-09-01T01:17:04Z</time>
  <course>25.9</course>
  <speed>0.0316227766016838</speed>
  <fix>3d</fix>
</trkpt>
<trkpt lat="33.8106429" lon="-118.393863">
  <ele>-14.605</ele>
  <time>2026-09-01T01:17:04Z</time>
  <course>25.91</course>
  <speed>0.0316227766016838</speed>
  <fix>3d</fix>
</trkpt>
<trkpt lat="33.8106432" lon="-118.3938632">
  <ele>-14.1</ele>
  <time>2026-09-01T01:17:04Z</time>
  <course>247.46</course>
  <speed>0.0</speed>
  <fix>3d</fix>
</trkpt>
<trkpt lat="33.8106429" lon="-118.393863">
  <ele>-14.627</ele>
  <time>2026-09-01T01:17:04Z</time>
  <course>25.92</course>
  <speed>0.0316227766016838</speed>
  <fix>3d</fix>
</trkpt>
<trkpt lat="33.8106429" lon="-118.393863">
  <ele>-14.666</ele>
  <time>2026-09-01T01:17:04Z</time>
  <course>25.92</course>
  <speed>0.0316227766016838</speed>
  <fix>3d</fix>
</trkpt>
<trkpt lat="33.8106432" lon="-118.3938632">
  <ele>-14.1</ele>
  <time>2026-09-01T01:17:04Z</time>
  <course>247.46</course>
  <speed>0.0</speed>
  <fix>3d</fix>
</trkpt>
<trkpt lat="33.8106429" lon="-118.393863">
  <ele>-14.688</ele>
  <time>2026-09-01T01:17:04Z</time>
  <course>25.93</course>
  <speed>0.0316227766016838</speed>
  <fix>3d</fix>
</trkpt>
<trkpt lat="33.8106429" lon="-118.393863">
  <ele>-14.728</ele>
  <time>2026-09-01T01:17:04Z</time>
  <course>25.93</course>
  <speed>0.0316227766016838</speed>
  <fix>3d</fix>
</trkpt>
<trkpt lat="33.8106432" lon="-118.3938632">
  <ele>-14.21</ele>
  <time>2026-09-01T01:17:04Z</time>
  <course>247.35</course>
  <speed>0.0</speed>
  <fix>3d</fix>
</trkpt>
<trkpt lat="33.8106429" lon="-118.393863">
  <ele>-14.751</ele>
  <time>2026-09-01T01:17:04Z</time>
  <course>25.94</course>
  <speed>0.0316227766016838</speed>
  <fix>3d</fix>
</trkpt>
<trkpt lat="33.8106429" lon="-118.393863">
  <ele>-14.789</ele>
  <time>2026-09-01T01:17:04Z</time>
  <course>25.94</course>
  <speed>0.0316227766016838</speed>
  <fix>3d</fix>
</trkpt>
<trkpt lat="33.8106432" lon="-118.3938632">
  <ele>-14.21</ele>
  <time>2026-09-01T01:17:04Z</time>
  <course>247.35</course>
  <speed>0.0</speed>
  <fix>3d</fix>
</trkpt>
<trkpt lat="33.8106429" lon="-118.393863">
  <ele>-14.811</ele>
  <time>2026-09-01T01:17:04Z</time>
  <course>25.95</course>
  <speed>0.0316227766016838</speed>
  <fix>3d</fix>
</trkpt>
<trkpt lat="33.8106429" lon="-118.393863">
  <ele>-14.851</ele>
  <time>2026-09-01T01:17:04Z</time>
  <course>25.95</course>
  <speed>0.0316227766016838</speed>
  <fix>3d</fix>
</trkpt>
<trkpt lat="33.8106432" lon="-118.3938633">
  <ele>-14.34</ele>
  <time>2026-09-01T01:17:04Z</time>
  <course>247.29</course>
  <speed>0.0</speed>
  <fix>3d</fix>
</trkpt>
<trkpt lat="33.8106429" lon="-118.393863">
  <ele>-14.875</ele>
  <time>2026-09-01T01:17:04Z</time>
  <course>25.96</course>
  <speed>0.0316227766016838</speed>
  <fix>3d</fix>
</trkpt>
<trkpt lat="33.8106429" lon="-118.393863">
  <ele>-14.912</ele>
  <time>2026-09-01T01:17:04Z</time>
  <course>25.96</course>
  <speed>0.0316227766016838</speed>
  <fix>3d</fix>
</trkpt>
<trkpt lat="33.8106432" lon="-118.3938633">
  <ele>-14.34</ele>
  <time>2026-09-01T01:17:04Z</time>
  <course>247.29</course>
  <speed>0.0</speed>
  <fix>3d</fix>
</trkpt>
<trkpt lat="33.8106429" lon="-118.393863">
  <ele>-14.914</ele>
  <time>2026-09-01T01:17:04Z</time>
  <course>25.96</course>
  <speed>0.0316227766016838</speed>
  <fix>3d</fix>
</trkpt>
<trkpt lat="33.8106429" lon="-118.393863">
  <ele>-14.973</ele>
  <time>2026-09-01T01:17:04Z</time>
  <course>25.97</course>
  <speed>0.0316227766016838</speed>
  <fix>3d</fix>
</trkpt>
<trkpt lat="33.8106432" lon="-118.3938633">
  <ele>-14.46</ele>
  <time>2026-09-01T01:17:04Z</time>
  <course>247.3</course>
  <speed>0.0</speed>
  <fix>3d</fix>
</trkpt>
<trkpt lat="33.8106429" lon="-118.393863">
  <ele>-14.993</ele>
  <time>2026-09-01T01:17:04Z</time>
  <course>25.98</course>
  <speed>0.0316227766016838</speed>
  <fix>3d</fix>
</trkpt>
<trkpt lat="33.8106429" lon="-118.393863">
  <ele>-15.034</ele>
  <time>2026-09-01T01:17:04Z</time>
  <course>25.98</course>
  <speed>0.0316227766016838</speed>
  <fix>3d</fix>
</trkpt>
<trkpt lat="33.8106432" lon="-118.3938633">
  <ele>-14.46</ele>
  <time>2026-09-01T01:17:04Z</time>
  <course>247.3</course>
  <speed>0.0</speed>
  <fix>3d</fix>
</trkpt>
<trkpt lat="33.8106429" lon="-118.3938631">
  <ele>-15.055</ele>
  <time>2026-09-01T01:17:04Z</time>
  <course>25.99</course>
  <speed>0.0316227766016838</speed>
  <fix>3d</fix>
</trkpt>
<trkpt lat="33.8106429" lon="-118.3938631">
  <ele>-15.095</ele>
  <time>2026-09-01T01:17:04Z</time>
  <course>25.99</course>
  <speed>0.0316227766016838</speed>
  <fix>3d</fix>
</trkpt>
<trkpt lat="33.8106432" lon="-118.3938633">
  <ele>-14.58</ele>
  <time>2026-09-01T01:17:04Z</time>
  <course>247.38</course>
  <speed>0.0</speed>
  <fix>3d</fix>
</trkpt>
<trkpt lat="33.8106429" lon="-118.3938631">
  <ele>-15.116</ele>
  <time>2026-09-01T01:17:04Z</time>
  <course>26.0</course>
  <speed>0.0316227766016838</speed>
  <fix>3d</fix>
</trkpt>
<trkpt lat="33.8106429" lon="-118.3938631">
  <ele>-15.157</ele>
  <time>2026-09-01T01:17:04Z</time>
  <course>26.0</course>
  <speed>0.0316227766016838</speed>
  <fix>3d</fix>
</trkpt>
<trkpt lat="33.8106432" lon="-118.3938633">
  <ele>-14.58</ele>
  <time>2026-09-01T01:17:04Z</time>
  <course>247.38</course>
  <speed>0.0</speed>
  <fix>3d</fix>
</trkpt>
<trkpt lat="33.8106429" lon="-118.3938631">
  <ele>-15.16</ele>
  <time>2026-09-01T01:17:04Z</time>
  <course>26.0</course>
  <speed>0.0316227766016838</speed>
  <fix>3d</fix>
</trkpt>
<trkpt lat="33.8106429" lon="-118.3938631">
  <ele>-15.219</ele>
  <time>2026-09-01T01:17:04Z</time>
  <course>26.01</course>
  <speed>0.0316227766016838</speed>
  <fix>3d</fix>
</trkpt>
<trkpt lat="33.8106432" lon="-118.3938633">
  <ele>-14.7</ele>
  <time>2026-09-01T01:17:04Z</time>
  <course>247.44</course>
  <speed>0.0</speed>
  <fix>3d</fix>
</trkpt>
<trkpt lat="33.8106429" lon="-118.3938631">
  <ele>-15.245</ele>
  <time>2026-09-01T01:17:04Z</time>
  <course>26.02</course>
  <speed>0.0316227766016838</speed>
  <fix>3d</fix>
</trkpt>
<trkpt lat="33.8106429" lon="-118.3938631">
  <ele>-15.28</ele>
  <time>2026-09-01T01:17:04Z</time>
  <course>26.02</course>
  <speed>0.0316227766016838</speed>
  <fix>3d</fix>
</trkpt>
<trkpt lat="33.8106432" lon="-118.3938633">
  <ele>-14.7</ele>
  <time>2026-09-01T01:17:04Z</time>
  <course>247.44</course>
  <speed>0.0</speed>
  <fix>3d</fix>
</trkpt>
<trkpt lat="33.8106429" lon="-118.3938631">
  <ele>-15.301</ele>
  <time>2026-09-01T01:17:04Z</time>
  <course>26.03</course>
  <speed>0.0316227766016838</speed>
  <fix>3d</fix>
</trkpt>
<trkpt lat="33.8106429" lon="-118.3938631">
  <ele>-15.341</ele>
  <time>2026-09-01T01:17:04Z</time>
  <course>26.03</course>
  <speed>0.0316227766016838</speed>
  <fix>3d</fix>
</trkpt>
<trkpt lat="33.8106432" lon="-118.3938633">
  <ele>-14.82</ele>
  <time>2026-09-01T01:17:04Z</time>
  <course>247.42</course>
  <speed>0.0</speed>
  <fix>3d</fix>
</trkpt>
<trkpt lat="33.8106429" lon="-118.3938631">
  <ele>-15.369</ele>
  <time>2026-09-01T01:17:04Z</time>
  <course>26.04</course>
  <speed>0.0316227766016838</speed>
  <fix>3d</fix>
</trkpt>
<trkpt lat="33.8106429" lon="-118.3938631">
  <ele>-15.404</ele>
  <time>2026-09-01T01:17:04Z</time>
  <course>26.04</course>
  <speed>0.0316227766016838</speed>
  <fix>3d</fix>
</trkpt>
<trkpt lat="33.8106432" lon="-118.3938633">
  <ele>-14.82</ele>
  <time>2026-09-01T01:17:04Z</time>
  <course>247.42</course>
  <speed>0.0</speed>
  <fix>3d</fix>
</trkpt>
<trkpt lat="33.8106429" lon="-118.3938631">
  <ele>-15.427</ele>
  <time>2026-09-01T01:17:04Z</time>
  <course>26.05</course>
  <speed>0.0316227766016838</speed>
  <fix>3d</fix>
</trkpt>
<trkpt lat="33.8106429" lon="-118.3938631">
  <ele>-15.466</ele>
  <time>2026-09-01T01:17:04Z</time>
  <course>26.05</course>
  <speed>0.0316227766016838</speed>
  <fix>3d</fix>
</trkpt>
<trkpt lat="33.8106432" lon="-118.3938633">
  <ele>-14.94</ele>
  <time>2026-09-01T01:17:04Z</time>
  <course>247.33</course>
  <speed>0.0</speed>
  <fix>3d</fix>
</trkpt>
<trkpt lat="33.8106429" lon="-118.3938631">
  <ele>-15.487</ele>
  <time>2026-09-01T01:17:04Z</time>
  <course>26.06</course>
  <speed>0.0316227766016838</speed>
  <fix>3d</fix>
</trkpt>
<trkpt lat="33.8106429" lon="-118.3938631">
  <ele>-15.528</ele>
  <time>2026-09-01T01:17:04Z</time>
  <course>26.06</course>
  <speed>0.0316227766016838</speed>
  <fix>3d</fix>
</trkpt>
<trkpt lat="33.8106432" lon="-118.3938633">
  <ele>-14.94</ele>
  <time>2026-09-01T01:17:04Z</time>
  <course>247.33</course>
  <speed>0.0</speed>
  <fix>3d</fix>
</trkpt>
<trkpt lat="33.8106429" lon="-118.3938631">
  <ele>-15.53</ele>
  <time>2026-09-01T01:17:04Z</time>
  <course>26.06</course>
  <speed>0.0316227766016838</speed>
  <fix>3d</fix>
</trkpt>
<trkpt lat="33.8106429" lon="-118.3938631">
  <ele>-15.59</ele>
  <time>2026-09-01T01:17:04Z</time>
  <course>26.07</course>
  <speed>0.0316227766016838</speed>
  <fix>3d</fix>
</trkpt>
<trkpt lat="33.8106432" lon="-118.3938633">
  <ele>-15.05</ele>
  <time>2026-09-01T01:17:04Z</time>
  <course>247.23</course>
  <speed>0.0</speed>
  <fix>3d</fix>
</trkpt>
<trkpt lat="33.8106429" lon="-118.3938631">
  <ele>-15.611</ele>
  <time>2026-09-01T01:17:04Z</time>
  <course>26.08</course>
  <speed>0.0316227766016838</speed>
  <fix>3d</fix>
</trkpt>
<trkpt lat="33.8106429" lon="-118.3938631">
  <ele>-15.651</ele>
  <time>2026-09-01T01:17:04Z</time>
  <course>26.08</course>
  <speed>0.0316227766016838</speed>
  <fix>3d</fix>
</trkpt>
<trkpt lat="33.8106432" lon="-118.3938633">
  <ele>-15.05</ele>
  <time>2026-09-01T01:17:04Z</time>
  <course>247.23</course>
  <speed>0.0</speed>
  <fix>3d</fix>
</trkpt>
<trkpt lat="33.8106429" lon="-118.3938631">
  <ele>-15.673</ele>
  <time>2026-09-01T01:17:04Z</time>
  <course>26.09</course>
  <speed>0.0316227766016838</speed>
  <fix>3d</fix>
</trkpt>
<trkpt lat="33.8106429" lon="-118.3938631">
  <ele>-15.712</ele>
  <time>2026-09-01T01:17:04Z</time>
  <course>26.09</course>
  <speed>0.0316227766016838</speed>
  <fix>3d</fix>
</trkpt>
<trkpt lat="33.8106432" lon="-118.3938633">
  <ele>-15.18</ele>
  <time>2026-09-01T01:17:04Z</time>
  <course>247.19</course>
  <speed>0.0</speed>
  <fix>3d</fix>
</trkpt>
<trkpt lat="33.8106429" lon="-118.3938631">
  <ele>-15.735</ele>
  <time>2026-09-01T01:17:04Z</time>
  <course>26.1</course>
  <speed>0.0316227766016838</speed>
  <fix>3d</fix>
</trkpt>
<trkpt lat="33.8106429" lon="-118.3938631">
  <ele>-15.773</ele>
  <time>2026-09-01T01:17:04Z</time>
  <course>26.1</course>
  <speed>0.0316227766016838</speed>
  <fix>3d</fix>
</trkpt>
<trkpt lat="33.8106432" lon="-118.3938633">
  <ele>-15.18</ele>
  <time>2026-09-01T01:17:04Z</time>
  <course>247.19</course>
  <speed>0.0</speed>
  <fix>3d</fix>
</trkpt>
<trkpt lat="33.8106429" lon="-118.3938631">
  <ele>-15.775</ele>
  <time>2026-09-01T01:17:04Z</time>
  <course>26.1</course>
  <speed>0.0316227766016838</speed>
  <fix>3d</fix>
</trkpt>
<trkpt lat="33.8106429" lon="-118.3938631">
  <ele>-15.835</ele>
  <time>2026-09-01T01:17:04Z</time>
  <course>26.11</course>
  <speed>0.0316227766016838</speed>
  <fix>3d</fix>
</trkpt>
<trkpt lat="33.8106432" lon="-118.3938633">
  <ele>-15.29</ele>
  <time>2026-09-01T01:17:04Z</time>
  <course>247.24</course>
  <speed>0.0</speed>
  <fix>3d</fix>
</trkpt>
<trkpt lat="33.8106429" lon="-118.3938631">
  <ele>-15.856</ele>
  <time>2026-09-01T01:17:04Z</time>
  <course>26.12</course>
  <speed>0.0316227766016838</speed>
  <fix>3d</fix>
</trkpt>
<trkpt lat="33.8106429" lon="-118.3938631">
  <ele>-15.895</ele>
  <time>2026-09-01T01:17:04Z</time>
  <course>26.12</course>
  <speed>0.0316227766016838</speed>
  <fix>3d</fix>
</trkpt>
<trkpt lat="33.8106432" lon="-118.3938633">
  <ele>-15.29</ele>
  <time>2026-09-01T01:17:04Z</time>
  <course>247.24</course>
  <speed>0.0</speed>
  <fix>3d</fix>
</trkpt>
<trkpt lat="33.8106429" lon="-118.3938631">
  <ele>-15.918</ele>
  <time>2026-09-01T01:17:04Z</time>
  <course>26.13</course>
  <speed>0.0316227766016838</speed>
  <fix>3d</fix>
</trkpt>
<trkpt lat="33.8106429" lon="-118.3938631">
  <ele>-15.957</ele>
  <time>2026-09-01T01:17:04Z</time>
  <course>26.13</course>
  <speed>0.0316227766016838</speed>
  <fix>3d</fix>
</trkpt>
<trkpt lat="33.8106432" lon="-118.3938633">
  <ele>-15.42</ele>
  <time>2026-09-01T01:17:04Z</time>
  <course>247.32</course>
  <speed>0.0</speed>
  <fix>3d</fix>
</trkpt>
<trkpt lat="33.8106429" lon="-118.3938631">
  <ele>-15.978</ele>
  <time>2026-09-01T01:17:04Z</time>
  <course>26.14</course>
  <speed>0.0316227766016838</speed>
  <fix>3d</fix>
</trkpt>
<trkpt lat="33.8106429" lon="-118.3938631">
  <ele>-16.018</ele>
  <time>2026-09-01T01:17:04Z</time>
  <course>26.14</course>
  <speed>0.0316227766016838</speed>
  <fix>3d</fix>
</trkpt>
<trkpt lat="33.8106432" lon="-118.3938633">
  <ele>-15.42</ele>
  <time>2026-09-01T01:17:04Z</time>
  <course>247.32</course>
  <speed>0.0</speed>
  <fix>3d</fix>
</trkpt>
<trkpt lat="33.8106429" lon="-118.3938631">
  <ele>-16.039</ele>
  <time>2026-09-01T01:17:04Z</time>
  <course>26.15</course>
  <speed>0.0316227766016838</speed>
  <fix>3d</fix>
</trkpt>
<trkpt lat="33.8106429" lon="-118.3938631">
  <ele>-16.079</ele>
  <time>2026-09-01T01:17:04Z</time>
  <course>26.15</course>
  <speed>0.0316227766016838</speed>
  <fix>3d</fix>
</trkpt>
<trkpt lat="33.8106432" lon="-118.3938633">
  <ele>-15.54</ele>
  <time>2026-09-01T01:17:04Z</time>
  <course>247.35</course>
  <speed>0.0</speed>
  <fix>3d</fix>
</trkpt>
<trkpt lat="33.8106429" lon="-118.3938631">
  <ele>-16.101</ele>
  <time>2026-09-01T01:17:04Z</time>
  <course>26.16</course>
  <speed>0.0316227766016838</speed>
  <fix>3d</fix>
</trkpt>
<trkpt lat="33.8106429" lon="-118.3938631">
  <ele>-16.14</ele>
  <time>2026-09-01T01:17:04Z</time>
  <course>26.16</course>
  <speed>0.0316227766016838</speed>
  <fix>3d</fix>
</trkpt>
<trkpt lat="33.8106432" lon="-118.3938633">
  <ele>-15.54</ele>
  <time>2026-09-01T01:17:04Z</time>
  <course>247.35</course>
  <speed>0.0</speed>
  <fix>3d</fix>
</trkpt>
<trkpt lat="33.8106429" lon="-118.3938631">
  <ele>-16.166</ele>
  <time>2026-09-01T01:17:04Z</time>
  <course>26.17</course>
  <speed>0.0316227766016838</speed>
  <fix>3d</fix>
</trkpt>
<trkpt lat="33.8106429" lon="-118.3938631">
  <ele>-16.201</ele>
  <time>2026-09-01T01:17:04Z</time>
  <course>26.17</course>
  <speed>0.0316227766016838</speed>
  <fix>3d</fix>
</trkpt>
<trkpt lat="33.8106432" lon="-118.3938633">
  <ele>-15.66</ele>
  <time>2026-09-01T01:17:04Z</time>
  <course>247.31</course>
  <speed>0.0</speed>
  <fix>3d</fix>
</trkpt>
<trkpt lat="33.8106429" lon="-118.3938631">
  <ele>-16.202</ele>
  <time>2026-09-01T01:17:04Z</time>
  <course>26.17</course>
  <speed>0.0316227766016838</speed>
  <fix>3d</fix>
</trkpt>
<trkpt lat="33.8106429" lon="-118.3938631">
  <ele>-16.262</ele>
  <time>2026-09-01T01:17:04Z</time>
  <course>26.18</course>
  <speed>0.0316227766016838</speed>
  <fix>3d</fix>
</trkpt>
<trkpt lat="33.8106432" lon="-118.3938633">
  <ele>-15.66</ele>
  <time>2026-09-01T01:17:04Z</time>
  <course>247.31</course>
  <speed>0.0</speed>
  <fix>3d</fix>
</trkpt>
<trkpt lat="33.8106429" lon="-118.3938631">
  <ele>-16.264</ele>
  <time>2026-09-01T01:17:04Z</time>
  <course>26.18</course>
  <speed>0.0316227766016838</speed>
  <fix>3d</fix>
</trkpt>
<trkpt lat="33.8106429" lon="-118.3938631">
  <ele>-16.324</ele>
  <time>2026-09-01T01:17:04Z</time>
  <course>26.19</course>
  <speed>0.0316227766016838</speed>
  <fix>3d</fix>
</trkpt>
<trkpt lat="33.8106431" lon="-118.3938633">
  <ele>-15.79</ele>
  <time>2026-09-01T01:17:04Z</time>
  <course>247.21</course>
  <speed>0.0</speed>
  <fix>3d</fix>
</trkpt>
<trkpt lat="33.8106429" lon="-118.3938631">
  <ele>-16.326</ele>
  <time>2026-09-01T01:17:04Z</time>
  <course>26.19</course>
  <speed>0.0316227766016838</speed>
  <fix>3d</fix>
</trkpt>
<trkpt lat="33.8106429" lon="-118.3938631">
  <ele>-16.386</ele>
  <time>2026-09-01T01:17:04Z</time>
  <course>26.2</course>
  <speed>0.0316227766016838</speed>
  <fix>3d</fix>
</trkpt>
<trkpt lat="33.8106431" lon="-118.3938633">
  <ele>-15.79</ele>
  <time>2026-09-01T01:17:04Z</time>
  <course>247.21</course>
  <speed>0.0</speed>
  <fix>3d</fix>
</trkpt>
<trkpt lat="33.8106429" lon="-118.3938631">
  <ele>-16.387</ele>
  <time>2026-09-01T01:17:04Z</time>
  <course>26.2</course>
  <speed>0.0316227766016838</speed>
  <fix>3d</fix>
</trkpt>
<trkpt lat="33.8106429" lon="-118.3938631">
  <ele>-16.449</ele>
  <time>2026-09-01T01:17:04Z</time>
  <course>26.21</course>
  <speed>0.0316227766016838</speed>
  <fix>3d</fix>
</trkpt>
<trkpt lat="33.8106431" lon="-118.3938634">
  <ele>-15.91</ele>
  <time>2026-09-01T01:17:04Z</time>
  <course>247.12</course>
  <speed>0.0</speed>
  <fix>3d</fix>
</trkpt>
<trkpt lat="33.8106429" lon="-118.3938631">
  <ele>-16.45</ele>
  <time>2026-09-01T01:17:04Z</time>
  <course>26.21</course>
  <speed>0.0316227766016838</speed>
  <fix>3d</fix>
</trkpt>
<trkpt lat="33.8106429" lon="-118.3938631">
  <ele>-16.511</ele>
  <time>2026-09-01T01:17:04Z</time>
  <course>26.22</course>
  <speed>0.0316227766016838</speed>
  <fix>3d</fix>
</trkpt>
<trkpt lat="33.8106431" lon="-118.3938634">
  <ele>-15.91</ele>
  <time>2026-09-01T01:17:04Z</time>
  <course>247.12</course>
  <speed>0.0</speed>
  <fix>3d</fix>
</trkpt>
<trkpt lat="33.8106429" lon="-118.3938631">
  <ele>-16.512</ele>
  <time>2026-09-01T01:17:04Z</time>
  <course>26.22</course>
  <speed>0.0316227766016838</speed>
  <fix>3d</fix>
</trkpt>
<trkpt lat="33.8106429" lon="-118.3938631">
  <ele>-16.573</ele>
  <time>2026-09-01T01:17:04Z</time>
  <course>26.23</course>
  <speed>0.0316227766016838</speed>
  <fix>3d</fix>
</trkpt>
<trkpt lat="33.8106431" lon="-118.3938634">
  <ele>-16.03</ele>
  <time>2026-09-01T01:17:04Z</time>
  <course>247.12</course>
  <speed>0.0</speed>
  <fix>3d</fix>
</trkpt>
<trkpt lat="33.8106429" lon="-118.3938631">
  <ele>-16.575</ele>
  <time>2026-09-01T01:17:04Z</time>
  <course>26.23</course>
  <speed>0.0316227766016838</speed>
  <fix>3d</fix>
</trkpt>
<trkpt lat="33.8106429" lon="-118.3938631">
  <ele>-16.636</ele>
  <time>2026-09-01T01:17:04Z</time>
  <course>26.24</course>
  <speed>0.0316227766016838</speed>
  <fix>3d</fix>
</trkpt>
<trkpt lat="33.8106431" lon="-118.3938634">
  <ele>-16.03</ele>
  <time>2026-09-01T01:17:04Z</time>
  <course>247.12</course>
  <speed>0.0</speed>
  <fix>3d</fix>
</trkpt>
<trkpt lat="33.8106429" lon="-118.3938631">
  <ele>-16.638</ele>
  <time>2026-09-01T01:17:04Z</time>
  <course>26.24</course>
  <speed>0.0316227766016838</speed>
  <fix>3d</fix>
</trkpt>
<trkpt lat="33.8106429" lon="-118.3938632">
  <ele>-16.699</ele>
  <time>2026-09-01T01:17:04Z</time>
  <course>26.25</course>
  <speed>0.0316227766016838</speed>
  <fix>3d</fix>
</trkpt>
<trkpt lat="33.8106431" lon="-118.3938634">
  <ele>-16.15</ele>
  <time>2026-09-01T01:17:04Z</time>
  <course>247.18</course>
  <speed>0.0</speed>
  <fix>3d</fix>
</trkpt>
<trkpt lat="33.8106429" lon="-118.3938632">
  <ele>-16.702</ele>
  <time>2026-09-01T01:17:04Z</time>
  <course>26.25</course>
  <speed>0.0316227766016838</speed>
  <fix>3d</fix>
</trkpt>
<trkpt lat="33.8106429" lon="-118.3938632">
  <ele>-16.761</ele>
  <time>2026-09-01T01:17:04Z</time>
  <course>26.26</course>
  <speed>0.0316227766016838</speed>
  <fix>3d</fix>
</trkpt>
<trkpt lat="33.8106431" lon="-118.3938634">
  <ele>-16.15</ele>
  <time>2026-09-01T01:17:04Z</time>
  <course>247.18</course>
  <speed>0.0</speed>
  <fix>3d</fix>
</trkpt>
<trkpt lat="33.8106429" lon="-118.3938632">
  <ele>-16.763</ele>
  <time>2026-09-01T01:17:04Z</time>
  <course>26.26</course>
  <speed>0.0316227766016838</speed>
  <fix>3d</fix>
</trkpt>
<trkpt lat="33.8106429" lon="-118.3938632">
  <ele>-16.822</ele>
  <time>2026-09-01T01:17:04Z</time>
  <course>26.27</course>
  <speed>0.0316227766016838</speed>
  <fix>3d</fix>
</trkpt>
<trkpt lat="33.8106431" lon="-118.3938634">
  <ele>-16.27</ele>
  <time>2026-09-01T01:17:04Z</time>
  <course>247.25</course>
  <speed>0.0</speed>
  <fix>3d</fix>
</trkpt>
<trkpt lat="33.8106429" lon="-118.3938632">
  <ele>-16.825</ele>
  <time>2026-09-01T01:17:04Z</time>
  <course>26.27</course>
  <speed>0.0316227766016838</speed>
  <fix>3d</fix>
</trkpt>
<trkpt lat="33.8106429" lon="-118.3938632">
  <ele>-16.884</ele>
  <time>2026-09-01T01:17:04Z</time>
  <course>26.28</course>
  <speed>0.0316227766016838</speed>
  <fix>3d</fix>
</trkpt>
<trkpt lat="33.8106431" lon="-118.3938634">
  <ele>-16.27</ele>
  <time>2026-09-01T01:17:04Z</time>
  <course>247.25</course>
  <speed>0.0</speed>
  <fix>3d</fix>
</trkpt>
<trkpt lat="33.8106429" lon="-118.3938632">
  <ele>-16.886</ele>
  <time>2026-09-01T01:17:04Z</time>
  <course>26.28</course>
  <speed>0.0316227766016838</speed>
  <fix>3d</fix>
</trkpt>
<trkpt lat="33.8106429" lon="-118.3938632">
  <ele>-16.946</ele>
  <time>2026-09-01T01:17:04Z</time>
  <course>26.29</course>
  <speed>0.0316227766016838</speed>
  <fix>3d</fix>
</trkpt>
<trkpt lat="33.8106431" lon="-118.3938634">
  <ele>-16.39</ele>
  <time>2026-09-01T01:17:04Z</time>
  <course>247.26</course>
  <speed>0.0</speed>
  <fix>3d</fix>
</trkpt>
<trkpt lat="33.8106429" lon="-118.3938632">
  <ele>-16.948</ele>
  <time>2026-09-01T01:17:04Z</time>
  <course>26.29</course>
  <speed>0.0316227766016838</speed>
  <fix>3d</fix>
</trkpt>
<trkpt lat="33.8106429" lon="-118.3938632">
  <ele>-17.008</ele>
  <time>2026-09-01T01:17:04Z</time>
  <course>26.3</course>
  <speed>0.0316227766016838</speed>
  <fix>3d</fix>
</trkpt>
<trkpt lat="33.8106431" lon="-118.3938634">
  <ele>-16.39</ele>
  <time>2026-09-01T01:17:04Z</time>
  <course>247.26</course>
  <speed>0.0</speed>
  <fix>3d</fix>
</trkpt>
<trkpt lat="33.8106429" lon="-118.3938632">
  <ele>-17.01</ele>
  <time>2026-09-01T01:17:04Z</time>
  <course>26.3</course>
  <speed>0.0316227766016838</speed>
  <fix>3d</fix>
</trkpt>
<trkpt lat="33.8106429" lon="-118.3938632">
  <ele>-17.07</ele>
  <time>2026-09-01T01:17:04Z</time>
  <course>26.3</course>
  <speed>0.0316227766016838</speed>
  <fix>3d</fix>
</trkpt>
<trkpt lat="33.8106431" lon="-118.3938634">
  <ele>-16.51</ele>
  <time>2026-09-01T01:17:04Z</time>
  <course>247.19</course>
  <speed>0.0</speed>
  <fix>3d</fix>
</trkpt>
<trkpt lat="33.8106429" lon="-118.3938632">
  <ele>-17.071</ele>
  <time>2026-09-01T01:17:04Z</time>
  <course>26.31</course>
  <speed>0.0316227766016838</speed>
  <fix>3d</fix>
</trkpt>
<trkpt lat="33.8106429" lon="-118.3938632">
  <ele>-17.131</ele>
  <time>2026-09-01T01:17:04Z</time>
  <course>26.31</course>
  <speed>0.0316227766016838</speed>
  <fix>3d</fix>
</trkpt>
<trkpt lat="33.8106431" lon="-118.3938634">
  <ele>-16.51</ele>
  <time>2026-09-01T01:17:04Z</time>
  <course>247.19</course>
  <speed>0.0</speed>
  <fix>3d</fix>
</trkpt>
<trkpt lat="33.8106429" lon="-118.3938632">
  <ele>-17.133</ele>
  <time>2026-09-01T01:17:04Z</time>
  <course>26.32</course>
  <speed>0.0316227766016838</speed>
  <fix>3d</fix>
</trkpt>
<trkpt lat="33.8106429" lon="-118.3938632">
  <ele>-17.193</ele>
  <time>2026-09-01T01:17:04Z</time>
  <course>26.32</course>
  <speed>0.0316227766016838</speed>
  <fix>3d</fix>
</trkpt>
<trkpt lat="33.8106431" lon="-118.3938634">
  <ele>-16.63</ele>
  <time>2026-09-01T01:17:04Z</time>
  <course>247.09</course>
  <speed>0.0</speed>
  <fix>3d</fix>
</trkpt>
<trkpt lat="33.8106429" lon="-118.3938632">
  <ele>-17.194</ele>
  <time>2026-09-01T01:17:04Z</time>
  <course>26.32</course>
  <speed>0.0316227766016838</speed>
  <fix>3d</fix>
</trkpt>
<trkpt lat="33.8106429" lon="-118.3938632">
  <ele>-17.255</ele>
  <time>2026-09-01T01:17:04Z</time>
  <course>26.33</course>
  <speed>0.0316227766016838</speed>
  <fix>3d</fix>
</trkpt>
<trkpt lat="33.8106431" lon="-118.3938634">
  <ele>-16.63</ele>
  <time>2026-09-01T01:17:04Z</time>
  <course>247.09</course>
  <speed>0.0</speed>
  <fix>3d</fix>
</trkpt>
<trkpt lat="33.8106429" lon="-118.3938632">
  <ele>-17.256</ele>
  <time>2026-09-01T01:17:04Z</time>
  <course>26.33</course>
  <speed>0.0316227766016838</speed>
  <fix>3d</fix>
</trkpt>
<trkpt lat="33.8106429" lon="-118.3938632">
  <ele>-17.318</ele>
  <time>2026-09-01T01:17:04Z</time>
  <course>26.34</course>
  <speed>0.0316227766016838</speed>
  <fix>3d</fix>
</trkpt>
<trkpt lat="33.8106431" lon="-118.3938634">
  <ele>-16.75</ele>
  <time>2026-09-01T01:17:04Z</time>
  <course>247.03</course>
  <speed>0.0</speed>
  <fix>3d</fix>
</trkpt>
<trkpt lat="33.8106429" lon="-118.3938632">
  <ele>-17.32</ele>
  <time>2026-09-01T01:17:04Z</time>
  <course>26.34</course>
  <speed>0.0316227766016838</speed>
  <fix>3d</fix>
</trkpt>
<trkpt lat="33.8106429" lon="-118.3938632">
  <ele>-17.382</ele>
  <time>2026-09-01T01:17:04Z</time>
  <course>26.35</course>
  <speed>0.0316227766016838</speed>
  <fix>3d</fix>
</trkpt>
<trkpt lat="33.8106431" lon="-118.3938634">
  <ele>-16.75</ele>
  <time>2026-09-01T01:17:04Z</time>
  <course>247.03</course>
  <speed>0.0</speed>
  <fix>3d</fix>
</trkpt>
<trkpt lat="33.8106429" lon="-118.3938632">
  <ele>-17.383</ele>
  <time>2026-09-01T01:17:04Z</time>
  <course>26.35</course>
  <speed>0.0316227766016838</speed>
  <fix>3d</fix>
</trkpt>
<trkpt lat="33.8106429" lon="-118.3938632">
  <ele>-17.445</ele>
  <time>2026-09-01T01:17:04Z</time>
  <course>26.36</course>
  <speed>0.0316227766016838</speed>
  <fix>3d</fix>
</trkpt>
<trkpt lat="33.8106431" lon="-118.3938634">
  <ele>-16.86</ele>
  <time>2026-09-01T01:17:04Z</time>
  <course>247.05</course>
  <speed>0.0</speed>
  <fix>3d</fix>
</trkpt>
<trkpt lat="33.8106429" lon="-118.3938632">
  <ele>-17.446</ele>
  <time>2026-09-01T01:17:04Z</time>
  <course>26.36</course>
  <speed>0.0316227766016838</speed>
  <fix>3d</fix>
</trkpt>
<trkpt lat="33.8106429" lon="-118.3938632">
  <ele>-17.506</ele>
  <time>2026-09-01T01:17:04Z</time>
  <course>26.37</course>
  <speed>0.0316227766016838</speed>
  <fix>3d</fix>
</trkpt>
<trkpt lat="33.8106431" lon="-118.3938634">
  <ele>-16.86</ele>
  <time>2026-09-01T01:17:04Z</time>
  <course>247.05</course>
  <speed>0.0</speed>
  <fix>3d</fix>
</trkpt>
<trkpt lat="33.8106429" lon="-118.3938632">
  <ele>-17.508</ele>
  <time>2026-09-01T01:17:04Z</time>
  <course>26.37</course>
  <speed>0.0316227766016838</speed>
  <fix>3d</fix>
</trkpt>
<trkpt lat="33.8106429" lon="-118.3938632">
  <ele>-17.569</ele>
  <time>2026-09-01T01:17:04Z</time>
  <course>26.38</course>
  <speed>0.0316227766016838</speed>
  <fix>3d</fix>
</trkpt>
<trkpt lat="33.8106431" lon="-118.3938634">
  <ele>-16.99</ele>
  <time>2026-09-01T01:17:04Z</time>
  <course>247.13</course>
  <speed>0.0</speed>
  <fix>3d</fix>
</trkpt>
<trkpt lat="33.8106429" lon="-118.3938632">
  <ele>-17.571</ele>
  <time>2026-09-01T01:17:04Z</time>
  <course>26.38</course>
  <speed>0.0316227766016838</speed>
  <fix>3d</fix>
</trkpt>
<trkpt lat="33.8106429" lon="-118.3938632">
  <ele>-17.631</ele>
  <time>2026-09-01T01:17:04Z</time>
  <course>26.39</course>
  <speed>0.0316227766016838</speed>
  <fix>3d</fix>
</trkpt>
<trkpt lat="33.8106431" lon="-118.3938634">
  <ele>-16.99</ele>
  <time>2026-09-01T01:17:04Z</time>
  <course>247.13</course>
  <speed>0.0</speed>
  <fix>3d</fix>
</trkpt>
<trkpt lat="33.8106429" lon="-118.3938632">
  <ele>-17.633</ele>
  <time>2026-09-01T01:17:04Z</time>
  <course>26.39</course>
  <speed>0.0316227766016838</speed>
  <fix>3d</fix>
</trkpt>
<trkpt lat="33.8106429" lon="-118.3938632">
  <ele>-17.692</ele>
  <time>2026-09-01T01:17:04Z</time>
  <course>26.4</course>
  <speed>0.0316227766016838</speed>
  <fix>3d</fix>
</trkpt>
<trkpt lat="33.8106431" lon="-118.3938634">
  <ele>-17.11</ele>
  <time>2026-09-01T01:17:04Z</time>
  <course>247.19</course>
  <speed>0.0</speed>
  <fix>3d</fix>
</trkpt>
<trkpt lat="33.8106429" lon="-118.3938632">
  <ele>-17.693</ele>
  <time>2026-09-01T01:17:04Z</time>
  <course>26.4</course>
  <speed>0.0316227766016838</speed>
  <fix>3d</fix>
</trkpt>
<trkpt lat="33.8106429" lon="-118.3938632">
  <ele>-17.752</ele>
  <time>2026-09-01T01:17:04Z</time>
  <course>26.41</course>
  <speed>0.0316227766016838</speed>
  <fix>3d</fix>
</trkpt>
<trkpt lat="33.8106431" lon="-118.3938634">
  <ele>-17.11</ele>
  <time>2026-09-01T01:17:04Z</time>
  <course>247.19</course>
  <speed>0.0</speed>
  <fix>3d</fix>
</trkpt>
<trkpt lat="33.8106429" lon="-118.3938632">
  <ele>-17.754</ele>
  <time>2026-09-01T01:17:04Z</time>
  <course>26.41</course>
  <speed>0.0316227766016838</speed>
  <fix>3d</fix>
</trkpt>
<trkpt lat="33.8106429" lon="-118.3938632">
  <ele>-17.812</ele>
  <time>2026-09-01T01:17:04Z</time>
  <course>26.42</course>
  <speed>0.0316227766016838</speed>
  <fix>3d</fix>
</trkpt>
<trkpt lat="33.8106431" lon="-118.3938634">
  <ele>-17.23</ele>
  <time>2026-09-01T01:17:04Z</time>
  <course>247.17</course>
  <speed>0.0</speed>
  <fix>3d</fix>
</trkpt>
<trkpt lat="33.8106429" lon="-118.3938632">
  <ele>-17.813</ele>
  <time>2026-09-01T01:17:04Z</time>
  <course>26.42</course>
  <speed>0.0316227766016838</speed>
  <fix>3d</fix>
</trkpt>
<trkpt lat="33.8106429" lon="-118.3938632">
  <ele>-17.871</ele>
  <time>2026-09-01T01:17:04Z</time>
  <course>26.43</course>
  <speed>0.0316227766016838</speed>
  <fix>3d</fix>
</trkpt>
<trkpt lat="33.8106431" lon="-118.3938634">
  <ele>-17.23</ele>
  <time>2026-09-01T01:17:04Z</time>
  <course>247.17</course>
  <speed>0.0</speed>
  <fix>3d</fix>
</trkpt>
<trkpt lat="33.8106429" lon="-118.3938632">
  <ele>-17.872</ele>
  <time>2026-09-01T01:17:04Z</time>
  <course>26.43</course>
  <speed>0.0316227766016838</speed>
  <fix>3d</fix>
</trkpt>
<trkpt lat="33.8106429" lon="-118.3938632">
  <ele>-17.93</ele>
  <time>2026-09-01T01:17:04Z</time>
  <course>26.44</course>
  <speed>0.0316227766016838</speed>
  <fix>3d</fix>
</trkpt>
<trkpt lat="33.8106431" lon="-118.3938634">
  <ele>-17.35</ele>
  <time>2026-09-01T01:17:04Z</time>
  <course>247.08</course>
  <speed>0.0</speed>
  <fix>3d</fix>
</trkpt>
<trkpt lat="33.8106429" lon="-118.3938632">
  <ele>-17.932</ele>
  <time>2026-09-01T01:17:04Z</time>
  <course>26.44</course>
  <speed>0.0316227766016838</speed>
  <fix>3d</fix>
</trkpt>
<trkpt lat="33.8106429" lon="-118.3938632">
  <ele>-17.99</ele>
  <time>2026-09-01T01:17:04Z</time>
  <course>26.45</course>
  <speed>0.0316227766016838</speed>
  <fix>3d</fix>
</trkpt>
<trkpt lat="33.8106431" lon="-118.3938634">
  <ele>-17.35</ele>
  <time>2026-09-01T01:17:04Z</time>
  <course>247.08</course>
  <speed>0.0</speed>
  <fix>3d</fix>
</trkpt>
<trkpt lat="33.8106429" lon="-118.3938632">
  <ele>-17.991</ele>
  <time>2026-09-01T01:17:04Z</time>
  <course>26.45</course>
  <speed>0.0316227766016838</speed>
  <fix>3d</fix>
</trkpt>
<trkpt lat="33.8106429" lon="-118.3938632">
  <ele>-18.049</ele>
  <time>2026-09-01T01:17:04Z</time>
  <course>26.46</course>
  <speed>0.0316227766016838</speed>
  <fix>3d</fix>
</trkpt>
<trkpt lat="33.8106431" lon="-118.3938635">
  <ele>-17.47</ele>
  <time>2026-09-01T01:17:04Z</time>
  <course>246.98</course>
  <speed>0.0</speed>
  <fix>3d</fix>
</trkpt>
<trkpt lat="33.8106429" lon="-118.3938632">
  <ele>-18.051</ele>
  <time>2026-09-01T01:17:04Z</time>
  <course>26.46</course>
  <speed>0.0316227766016838</speed>
  <fix>3d</fix>
</trkpt>
<trkpt lat="33.8106429" lon="-118.3938632">
  <ele>-18.109</ele>
  <time>2026-09-01T01:17:04Z</time>
  <course>26.47</course>
  <speed>0.0316227766016838</speed>
  <fix>3d</fix>
</trkpt>
<trkpt lat="33.8106431" lon="-118.3938635">
  <ele>-17.47</ele>
  <time>2026-09-01T01:17:04Z</time>
  <course>246.98</course>
  <speed>0.0</speed>
  <fix>3d</fix>
</trkpt>
<trkpt lat="33.8106429" lon="-118.3938632">
  <ele>-18.111</ele>
  <time>2026-09-01T01:17:04Z</time>
  <course>26.47</course>
  <speed>0.0316227766016838</speed>
  <fix>3d</fix>
</trkpt>
<trkpt lat="33.8106429" lon="-118.3938632">
  <ele>-18.169</ele>
  <time>2026-09-01T01:17:04Z</time>
  <course>26.48</course>
  <speed>0.0316227766016838</speed>
  <fix>3d</fix>
</trkpt>
<trkpt lat="33.8106431" lon="-118.3938635">
  <ele>-17.59</ele>
  <time>2026-09-01T01:17:04Z</time>
  <course>246.95</course>
  <speed>0.0</speed>
  <fix>3d</fix>
</trkpt>
<trkpt lat="33.8106429" lon="-118.3938632">
  <ele>-18.171</ele>
  <time>2026-09-01T01:17:04Z</time>
  <course>26.48</course>
  <speed>0.0316227766016838</speed>
  <fix>3d</fix>
</trkpt>
<trkpt lat="33.8106429" lon="-118.3938632">
  <ele>-18.23</ele>
  <time>2026-09-01T01:17:04Z</time>
  <course>26.49</course>
  <speed>0.0316227766016838</speed>
  <fix>3d</fix>
</trkpt>
<trkpt lat="33.8106431" lon="-118.3938635">
  <ele>-17.59</ele>
  <time>2026-09-01T01:17:04Z</time>
  <course>246.95</course>
  <speed>0.0</speed>
  <fix>3d</fix>
</trkpt>
<trkpt lat="33.8106429" lon="-118.3938632">
  <ele>-18.233</ele>
  <time>2026-09-01T01:17:04Z</time>
  <course>26.49</course>
  <speed>0.0316227766016838</speed>
  <fix>3d</fix>
</trkpt>
<trkpt lat="33.8106429" lon="-118.3938632">
  <ele>-18.29</ele>
  <time>2026-09-01T01:17:04Z</time>
  <course>26.5</course>
  <speed>0.0316227766016838</speed>
  <fix>3d</fix>
</trkpt>
<trkpt lat="33.8106431" lon="-118.3938635">
  <ele>-17.72</ele>
  <time>2026-09-01T01:17:04Z</time>
  <course>247.0</course>
  <speed>0.0</speed>
  <fix>3d</fix>
</trkpt>
<trkpt lat="33.8106429" lon="-118.3938632">
  <ele>-18.291</ele>
  <time>2026-09-01T01:17:04Z</time>
  <course>26.5</course>
  <speed>0.0316227766016838</speed>
  <fix>3d</fix>
</trkpt>
<trkpt lat="33.8106429" lon="-118.3938633">
  <ele>-18.349</ele>
  <time>2026-09-01T01:17:04Z</time>
  <course>26.51</course>
  <speed>0.0316227766016838</speed>
  <fix>3d</fix>
</trkpt>
<trkpt lat="33.8106431" lon="-118.3938635">
  <ele>-17.72</ele>
  <time>2026-09-01T01:17:04Z</time>
  <course>247.0</course>
  <speed>0.0</speed>
  <fix>3d</fix>
</trkpt>
<trkpt lat="33.8106429" lon="-118.3938633">
  <ele>-18.351</ele>
  <time>2026-09-01T01:17:04Z</time>
  <course>26.51</course>
  <speed>0.0316227766016838</speed>
  <fix>3d</fix>
</trkpt>
<trkpt lat="33.8106429" lon="-118.3938633">
  <ele>-18.409</ele>
  <time>2026-09-01T01:17:04Z</time>
  <course>26.52</course>
  <speed>0.0316227766016838</speed>
  <fix>3d</fix>
</trkpt>
<trkpt lat="33.8106431" lon="-118.3938635">
  <ele>-17.84</ele>
  <time>2026-09-01T01:17:04Z</time>
  <course>247.08</course>
  <speed>0.0</speed>
  <fix>3d</fix>
</trkpt>
<trkpt lat="33.8106429" lon="-118.3938633">
  <ele>-18.41</ele>
  <time>2026-09-01T01:17:04Z</time>
  <course>26.52</course>
  <speed>0.0316227766016838</speed>
  <fix>3d</fix>
</trkpt>
<trkpt lat="33.8106429" lon="-118.3938633">
  <ele>-18.468</ele>
  <time>2026-09-01T01:17:04Z</time>
  <course>26.52</course>
  <speed>0.0316227766016838</speed>
  <fix>3d</fix>
</trkpt>
<trkpt lat="33.8106431" lon="-118.3938635">
  <ele>-17.84</ele>
  <time>2026-09-01T01:17:04Z</time>
  <course>247.08</course>
  <speed>0.0</speed>
  <fix>3d</fix>
</trkpt>
<trkpt lat="33.8106429" lon="-118.3938633">
  <ele>-18.47</ele>
  <time>2026-09-01T01:17:04Z</time>
  <course>26.52</course>
  <speed>0.0316227766016838</speed>
  <fix>3d</fix>
</trkpt>
<trkpt lat="33.8106429" lon="-118.3938633">
  <ele>-18.528</ele>
  <time>2026-09-01T01:17:04Z</time>
  <course>26.53</course>
  <speed>0.0316227766016838</speed>
  <fix>3d</fix>
</trkpt>
<trkpt lat="33.8106431" lon="-118.3938635">
  <ele>-17.96</ele>
  <time>2026-09-01T01:17:04Z</time>
  <course>247.11</course>
  <speed>0.0</speed>
  <fix>3d</fix>
</trkpt>
<trkpt lat="33.8106429" lon="-118.3938633">
  <ele>-18.53</ele>
  <time>2026-09-01T01:17:04Z</time>
  <course>26.53</course>
  <speed>0.0316227766016838</speed>
  <fix>3d</fix>
</trkpt>
<trkpt lat="33.8106429" lon="-118.3938633">
  <ele>-18.589</ele>
  <time>2026-09-01T01:17:04Z</time>
  <course>26.54</course>
  <speed>0.0316227766016838</speed>
  <fix>3d</fix>
</trkpt>
<trkpt lat="33.8106431" lon="-118.3938635">
  <ele>-17.96</ele>
  <time>2026-09-01T01:17:04Z</time>
  <course>247.11</course>
  <speed>0.0</speed>
  <fix>3d</fix>
</trkpt>
<trkpt lat="33.8106429" lon="-118.3938633">
  <ele>-18.59</ele>
  <time>2026-09-01T01:17:04Z</time>
  <course>26.54</course>
  <speed>0.0316227766016838</speed>
  <fix>3d</fix>
</trkpt>
<trkpt lat="33.8106429" lon="-118.3938633">
  <ele>-18.65</ele>
  <time>2026-09-01T01:17:04Z</time>
  <course>26.55</course>
  <speed>0.0316227766016838</speed>
  <fix>3d</fix>
</trkpt>
<trkpt lat="33.8106431" lon="-118.3938635">
  <ele>-18.08</ele>
  <time>2026-09-01T01:17:04Z</time>
  <course>247.06</course>
  <speed>0.0</speed>
  <fix>3d</fix>
</trkpt>
<trkpt lat="33.8106429" lon="-118.3938633">
  <ele>-18.651</ele>
  <time>2026-09-01T01:17:04Z</time>
  <course>26.55</course>
  <speed>0.0316227766016838</speed>
  <fix>3d</fix>
</trkpt>
<trkpt lat="33.8106429" lon="-118.3938633">
  <ele>-18.711</ele>
  <time>2026-09-01T01:17:04Z</time>
  <course>26.56</course>
  <speed>0.0316227766016838</speed>
  <fix>3d</fix>
</trkpt>
<trkpt lat="33.8106431" lon="-118.3938635">
  <ele>-18.08</ele>
  <time>2026-09-01T01:17:04Z</time>
  <course>247.06</course>
  <speed>0.0</speed>
  <fix>3d</fix>
</trkpt>
<trkpt lat="33.8106429" lon="-118.3938633">
  <ele>-18.712</ele>
  <time>2026-09-01T01:17:04Z</time>
  <course>26.56</course>
  <speed>0.0316227766016838</speed>
  <fix>3d</fix>
</trkpt>
<trkpt lat="33.8106429" lon="-118.3938633">
  <ele>-18.772</ele>
  <time>2026-09-01T01:17:04Z</time>
  <course>26.57</course>
  <speed>0.0316227766016838</speed>
  <fix>3d</fix>
</trkpt>
<trkpt lat="33.8106431" lon="-118.3938635">
  <ele>-18.2</ele>
  <time>2026-09-01T01:17:04Z</time>
  <course>246.97</course>
  <speed>0.0</speed>
  <fix>3d</fix>
</trkpt>
<trkpt lat="33.8106429" lon="-118.3938633">
  <ele>-18.773</ele>
  <time>2026-09-01T01:17:04Z</time>
  <course>26.57</course>
  <speed>0.0316227766016838</speed>
  <fix>3d</fix>
</trkpt>
<trkpt lat="33.8106429" lon="-118.3938633">
  <ele>-18.835</ele>
  <time>2026-09-01T01:17:04Z</time>
  <course>26.58</course>
  <speed>0.0316227766016838</speed>
  <fix>3d</fix>
</trkpt>
<trkpt lat="33.8106431" lon="-118.3938635">
  <ele>-18.2</ele>
  <time>2026-09-01T01:17:04Z</time>
  <course>246.97</course>
  <speed>0.0</speed>
  <fix>3d</fix>
</trkpt>
<trkpt lat="33.8106429" lon="-118.3938633">
  <ele>-18.837</ele>
  <time>2026-09-01T01:17:04Z</time>
  <course>26.58</course>
  <speed>0.0316227766016838</speed>
  <fix>3d</fix>
</trkpt>
<trkpt lat="33.8106429" lon="-118.3938633">
  <ele>-18.9</ele>
  <time>2026-09-01T01:17:04Z</time>
  <course>26.59</course>
  <speed>0.0316227766016838</speed>
  <fix>3d</fix>
</trkpt>
<trkpt lat="33.8106431" lon="-118.3938635">
  <ele>-18.32</ele>
  <time>2026-09-01T01:17:04Z</time>
  <course>246.89</course>
  <speed>0.0</speed>
  <fix>3d</fix>
</trkpt>
<trkpt lat="33.8106429" lon="-118.3938633">
  <ele>-18.901</ele>
  <time>2026-09-01T01:17:04Z</time>
  <course>26.59</course>
  <speed>0.0316227766016838</speed>
  <fix>3d</fix>
</trkpt>
<trkpt lat="33.8106429" lon="-118.3938633">
  <ele>-18.964</ele>
  <time>2026-09-01T01:17:04Z</time>
  <course>26.6</course>
  <speed>0.0316227766016838</speed>
  <fix>3d</fix>
</trkpt>
<trkpt lat="33.8106431" lon="-118.3938635">
  <ele>-18.32</ele>
  <time>2026-09-01T01:17:04Z</time>
  <course>246.89</course>
  <speed>0.0</speed>
  <fix>3d</fix>
</trkpt>
<trkpt lat="33.8106429" lon="-118.3938633">
  <ele>-18.966</ele>
  <time>2026-09-01T01:17:04Z</time>
  <course>26.6</course>
  <speed>0.0316227766016838</speed>
  <fix>3d</fix>
</trkpt>
<trkpt lat="33.8106429" lon="-118.3938633">
  <ele>-19.03</ele>
  <time>2026-09-01T01:17:04Z</time>
  <course>26.61</course>
  <speed>0.0316227766016838</speed>
  <fix>3d</fix>
</trkpt>
<trkpt lat="33.8106431" lon="-118.3938635">
  <ele>-18.43</ele>
  <time>2026-09-01T01:17:04Z</time>
  <course>246.89</course>
  <speed>0.0</speed>
  <fix>3d</fix>
</trkpt>
<trkpt lat="33.8106429" lon="-118.3938633">
  <ele>-19.031</ele>
  <time>2026-09-01T01:17:04Z</time>
  <course>26.61</course>
  <speed>0.0316227766016838</speed>
  <fix>3d</fix>
</trkpt>
<trkpt lat="33.8106429" lon="-118.3938633">
  <ele>-19.094</ele>
  <time>2026-09-01T01:17:04Z</time>
  <course>26.62</course>
  <speed>0.0316227766016838</speed>
  <fix>3d</fix>
</trkpt>
<trkpt lat="33.8106431" lon="-118.3938635">
  <ele>-18.43</ele>
  <time>2026-09-01T01:17:04Z</time>
  <course>246.89</course>
  <speed>0.0</speed>
  <fix>3d</fix>
</trkpt>
<trkpt lat="33.8106429" lon="-118.3938633">
  <ele>-19.095</ele>
  <time>2026-09-01T01:17:04Z</time>
  <course>26.62</course>
  <speed>0.0316227766016838</speed>
  <fix>3d</fix>
</trkpt>
<trkpt lat="33.8106429" lon="-118.3938633">
  <ele>-19.157</ele>
  <time>2026-09-01T01:17:04Z</time>
  <course>26.63</course>
  <speed>0.0316227766016838</speed>
  <fix>3d</fix>
</trkpt>
<trkpt lat="33.8106431" lon="-118.3938635">
  <ele>-18.56</ele>
  <time>2026-09-01T01:17:04Z</time>
  <course>246.96</course>
  <speed>0.0</speed>
  <fix>3d</fix>
</trkpt>
<trkpt lat="33.8106429" lon="-118.3938633">
  <ele>-19.158</ele>
  <time>2026-09-01T01:17:04Z</time>
  <course>26.63</course>
  <speed>0.0316227766016838</speed>
  <fix>3d</fix>
</trkpt>
<trkpt lat="33.8106429" lon="-118.3938633">
  <ele>-19.22</ele>
  <time>2026-09-01T01:17:04Z</time>
  <course>26.64</course>
  <speed>0.0316227766016838</speed>
  <fix>3d</fix>
</trkpt>
<trkpt lat="33.8106431" lon="-118.3938635">
  <ele>-18.56</ele>
  <time>2026-09-01T01:17:04Z</time>
  <course>246.96</course>
  <speed>0.0</speed>
  <fix>3d</fix>
</trkpt>
<trkpt lat="33.8106429" lon="-118.3938633">
  <ele>-19.221</ele>
  <time>2026-09-01T01:17:04Z</time>
  <course>26.64</course>
  <speed>0.0316227766016838</speed>
  <fix>3d</fix>
</trkpt>
<trkpt lat="33.8106429" lon="-118.3938633">
  <ele>-19.283</ele>
  <time>2026-09-01T01:17:04Z</time>
  <course>26.65</course>
  <speed>0.0316227766016838</speed>
  <fix>3d</fix>
</trkpt>
<trkpt lat="33.8106431" lon="-118.3938635">
  <ele>-18.68</ele>
  <time>2026-09-01T01:17:04Z</time>
  <course>247.03</course>
  <speed>0.0</speed>
  <fix>3d</fix>
</trkpt>
<trkpt lat="33.8106429" lon="-118.3938633">
  <ele>-19.285</ele>
  <time>2026-09-01T01:17:04Z</time>
  <course>26.65</course>
  <speed>0.0316227766016838</speed>
  <fix>3d</fix>
</trkpt>
<trkpt lat="33.8106429" lon="-118.3938633">
  <ele>-19.345</ele>
  <time>2026-09-01T01:17:04Z</time>
  <course>26.65</course>
  <speed>0.0316227766016838</speed>
  <fix>3d</fix>
</trkpt>
<trkpt lat="33.8106431" lon="-118.3938635">
  <ele>-18.68</ele>
  <time>2026-09-01T01:17:04Z</time>
  <course>247.03</course>
  <speed>0.0</speed>
  <fix>3d</fix>
</trkpt>
<trkpt lat="33.8106429" lon="-118.3938633">
  <ele>-19.347</ele>
  <time>2026-09-01T01:17:04Z</time>
  <course>26.66</course>
  <speed>0.0316227766016838</speed>
  <fix>3d</fix>
</trkpt>
<trkpt lat="33.8106429" lon="-118.3938633">
  <ele>-19.408</ele>
  <time>2026-09-01T01:17:04Z</time>
  <course>26.66</course>
  <speed>0.0316227766016838</speed>
  <fix>3d</fix>
</trkpt>
<trkpt lat="33.8106431" lon="-118.3938635">
  <ele>-18.8</ele>
  <time>2026-09-01T01:17:04Z</time>
  <course>247.03</course>
  <speed>0.0</speed>
  <fix>3d</fix>
</trkpt>
<trkpt lat="33.8106429" lon="-118.3938633">
  <ele>-19.41</ele>
  <time>2026-09-01T01:17:04Z</time>
  <course>26.66</course>
  <speed>0.0316227766016838</speed>
  <fix>3d</fix>
</trkpt>
<trkpt lat="33.8106429" lon="-118.3938633">
  <ele>-19.47</ele>
  <time>2026-09-01T01:17:04Z</time>
  <course>26.67</course>
  <speed>0.0316227766016838</speed>
  <fix>3d</fix>
</trkpt>
<trkpt lat="33.8106431" lon="-118.3938635">
  <ele>-18.8</ele>
  <time>2026-09-01T01:17:04Z</time>
  <course>247.03</course>
  <speed>0.0</speed>
  <fix>3d</fix>
</trkpt>
<trkpt lat="33.8106429" lon="-118.3938633">
  <ele>-19.472</ele>
  <time>2026-09-01T01:17:04Z</time>
  <course>26.67</course>
  <speed>0.0316227766016838</speed>
  <fix>3d</fix>
</trkpt>
<trkpt lat="33.8106429" lon="-118.3938633">
  <ele>-19.533</ele>
  <time>2026-09-01T01:17:04Z</time>
  <course>26.68</course>
  <speed>0.0316227766016838</speed>
  <fix>3d</fix>
</trkpt>
<trkpt lat="33.8106431" lon="-118.3938635">
  <ele>-18.92</ele>
  <time>2026-09-01T01:17:04Z</time>
  <course>246.96</course>
  <speed>0.0</speed>
  <fix>3d</fix>
</trkpt>
<trkpt lat="33.8106429" lon="-118.3938633">
  <ele>-19.535</ele>
  <time>2026-09-01T01:17:04Z</time>
  <course>26.68</course>
  <speed>0.0316227766016838</speed>
  <fix>3d</fix>
</trkpt>
<trkpt lat="33.8106429" lon="-118.3938633">
  <ele>-19.597</ele>
  <time>2026-09-01T01:17:04Z</time>
  <course>26.69</course>
  <speed>0.0316227766016838</speed>
  <fix>3d</fix>
</trkpt>
<trkpt lat="33.8106431" lon="-118.3938635">
  <ele>-18.92</ele>
  <time>2026-09-01T01:17:04Z</time>
  <course>246.96</course>
  <speed>0.0</speed>
  <fix>3d</fix>
</trkpt>
<trkpt lat="33.8106429" lon="-118.3938633">
  <ele>-19.598</ele>
  <time>2026-09-01T01:17:04Z</time>
  <course>26.69</course>
  <speed>0.0316227766016838</speed>
  <fix>3d</fix>
</trkpt>
<trkpt lat="33.8106429" lon="-118.3938633">
  <ele>-19.66</ele>
  <time>2026-09-01T01:17:04Z</time>
  <course>26.7</course>
  <speed>0.0316227766016838</speed>
  <fix>3d</fix>
</trkpt>
<trkpt lat="33.8106431" lon="-118.3938635">
  <ele>-19.04</ele>
  <time>2026-09-01T01:17:04Z</time>
  <course>246.87</course>
  <speed>0.0</speed>
  <fix>3d</fix>
</trkpt>
<trkpt lat="33.8106429" lon="-118.3938633">
  <ele>-19.661</ele>
  <time>2026-09-01T01:17:04Z</time>
  <course>26.7</course>
  <speed>0.0316227766016838</speed>
  <fix>3d</fix>
</trkpt>
<trkpt lat="33.8106429" lon="-118.3938633">
  <ele>-19.723</ele>
  <time>2026-09-01T01:17:04Z</time>
  <course>26.71</course>
  <speed>0.0316227766016838</speed>
  <fix>3d</fix>
</trkpt>
<trkpt lat="33.8106431" lon="-118.3938635">
  <ele>-19.04</ele>
  <time>2026-09-01T01:17:04Z</time>
  <course>246.87</course>
  <speed>0.0</speed>
  <fix>3d</fix>
</trkpt>
<trkpt lat="33.8106429" lon="-118.3938633">
  <ele>-19.725</ele>
  <time>2026-09-01T01:17:04Z</time>
  <course>26.71</course>
  <speed>0.0316227766016838</speed>
  <fix>3d</fix>
</trkpt>
<trkpt lat="33.8106429" lon="-118.3938633">
  <ele>-19.787</ele>
  <time>2026-09-01T01:17:04Z</time>
  <course>26.72</course>
  <speed>0.0316227766016838</speed>
  <fix>3d</fix>
</trkpt>
<trkpt lat="33.8106431" lon="-118.3938636">
  <ele>-19.16</ele>
  <time>2026-09-01T01:17:04Z</time>
  <course>246.82</course>
  <speed>0.0</speed>
  <fix>3d</fix>
</trkpt>
<trkpt lat="33.8106429" lon="-118.3938633">
  <ele>-19.79</ele>
  <time>2026-09-01T01:17:04Z</time>
  <course>26.72</course>
  <speed>0.0316227766016838</speed>
  <fix>3d</fix>
</trkpt>
<trkpt lat="33.8106429" lon="-118.3938633">
  <ele>-19.851</ele>
  <time>2026-09-01T01:17:04Z</time>
  <course>26.73</course>
  <speed>0.0316227766016838</speed>
  <fix>3d</fix>
</trkpt>
<trkpt lat="33.8106431" lon="-118.3938636">
  <ele>-19.16</ele>
  <time>2026-09-01T01:17:04Z</time>
  <course>246.82</course>
  <speed>0.0</speed>
  <fix>3d</fix>
</trkpt>
<trkpt lat="33.8106429" lon="-118.3938633">
  <ele>-19.876</ele>
  <time>2026-09-01T01:17:04Z</time>
  <course>26.73</course>
  <speed>0.0316227766016838</speed>
  <fix>3d</fix>
</trkpt>
<trkpt lat="33.8106429" lon="-118.3938633">
  <ele>-19.914</ele>
  <time>2026-09-01T01:17:04Z</time>
  <course>26.74</course>
  <speed>0.0316227766016838</speed>
  <fix>3d</fix>
</trkpt>
<trkpt lat="33.8106431" lon="-118.3938636">
  <ele>-19.28</ele>
  <time>2026-09-01T01:17:04Z</time>
  <course>246.85</course>
  <speed>0.0</speed>
  <fix>3d</fix>
</trkpt>
<trkpt lat="33.8106429" lon="-118.3938633">
  <ele>-19.915</ele>
  <time>2026-09-01T01:17:04Z</time>
  <course>26.74</course>
  <speed>0.0316227766016838</speed>
  <fix>3d</fix>
</trkpt>
<trkpt lat="33.8106429" lon="-118.3938633">
  <ele>-19.976</ele>
  <time>2026-09-01T01:17:04Z</time>
  <course>26.75</course>
  <speed>0.0316227766016838</speed>
  <fix>3d</fix>
</trkpt>
<trkpt lat="33.8106431" lon="-118.3938636">
  <ele>-19.28</ele>
  <time>2026-09-01T01:17:04Z</time>
  <course>246.85</course>
  <speed>0.0</speed>
  <fix>3d</fix>
</trkpt>
<trkpt lat="33.8106429" lon="-118.3938633">
  <ele>-19.977</ele>
  <time>2026-09-01T01:17:04Z</time>
  <course>26.75</course>
  <speed>0.0316227766016838</speed>
  <fix>3d</fix>
</trkpt>
<trkpt lat="33.8106429" lon="-118.3938633">
  <ele>-20.038</ele>
  <time>2026-09-01T01:17:04Z</time>
  <course>26.76</course>
  <speed>0.0316227766016838</speed>
  <fix>3d</fix>
</trkpt>
<trkpt lat="33.8106431" lon="-118.3938636">
  <ele>-19.41</ele>
  <time>2026-09-01T01:17:04Z</time>
  <course>246.92</course>
  <speed>0.0</speed>
  <fix>3d</fix>
</trkpt>
<trkpt lat="33.8106429" lon="-118.3938633">
  <ele>-20.039</ele>
  <time>2026-09-01T01:17:04Z</time>
  <course>26.76</course>
  <speed>0.0316227766016838</speed>
  <fix>3d</fix>
</trkpt>
<trkpt lat="33.8106429" lon="-118.3938633">
  <ele>-20.099</ele>
  <time>2026-09-01T01:17:04Z</time>
  <course>26.77</course>
  <speed>0.0316227766016838</speed>
  <fix>3d</fix>
</trkpt>
<trkpt lat="33.8106431" lon="-118.3938636">
  <ele>-19.41</ele>
  <time>2026-09-01T01:17:04Z</time>
  <course>246.92</course>
  <speed>0.0</speed>
  <fix>3d</fix>
</trkpt>
<trkpt lat="33.8106429" lon="-118.3938633">
  <ele>-20.101</ele>
  <time>2026-09-01T01:17:04Z</time>
  <course>26.77</course>
  <speed>0.0316227766016838</speed>
  <fix>3d</fix>
</trkpt>
<trkpt lat="33.8106429" lon="-118.3938634">
  <ele>-20.161</ele>
  <time>2026-09-01T01:17:04Z</time>
  <course>26.77</course>
  <speed>0.0316227766016838</speed>
  <fix>3d</fix>
</trkpt>
<trkpt lat="33.8106431" lon="-118.3938636">
  <ele>-19.52</ele>
  <time>2026-09-01T01:17:04Z</time>
  <course>246.97</course>
  <speed>0.0</speed>
  <fix>3d</fix>
</trkpt>
<trkpt lat="33.8106429" lon="-118.3938634">
  <ele>-20.163</ele>
  <time>2026-09-01T01:17:04Z</time>
  <course>26.78</course>
  <speed>0.0316227766016838</speed>
  <fix>3d</fix>
</trkpt>
<trkpt lat="33.8106429" lon="-118.3938634">
  <ele>-20.222</ele>
  <time>2026-09-01T01:17:04Z</time>
  <course>26.78</course>
  <speed>0.0316227766016838</speed>
  <fix>3d</fix>
</trkpt>
<trkpt lat="33.8106431" lon="-118.3938636">
  <ele>-19.52</ele>
  <time>2026-09-01T01:17:04Z</time>
  <course>246.97</course>
  <speed>0.0</speed>
  <fix>3d</fix>
</trkpt>
<trkpt lat="33.8106429" lon="-118.3938634">
  <ele>-20.224</ele>
  <time>2026-09-01T01:17:04Z</time>
  <course>26.78</course>
  <speed>0.0316227766016838</speed>
  <fix>3d</fix>
</trkpt>
<trkpt lat="33.8106429" lon="-118.3938634">
  <ele>-20.282</ele>
  <time>2026-09-01T01:17:04Z</time>
  <course>26.79</course>
  <speed>0.0316227766016838</speed>
  <fix>3d</fix>
</trkpt>
<trkpt lat="33.8106431" lon="-118.3938636">
  <ele>-19.65</ele>
  <time>2026-09-01T01:17:04Z</time>
  <course>246.95</course>
  <speed>0.0</speed>
  <fix>3d</fix>
</trkpt>
<trkpt lat="33.8106429" lon="-118.3938634">
  <ele>-20.284</ele>
  <time>2026-09-01T01:17:04Z</time>
  <course>26.79</course>
  <speed>0.0316227766016838</speed>
  <fix>3d</fix>
</trkpt>
<trkpt lat="33.8106429" lon="-118.3938634">
  <ele>-20.344</ele>
  <time>2026-09-01T01:17:04Z</time>
  <course>26.8</course>
  <speed>0.0316227766016838</speed>
  <fix>3d</fix>
</trkpt>
<trkpt lat="33.8106431" lon="-118.3938636">
  <ele>-19.65</ele>
  <time>2026-09-01T01:17:04Z</time>
  <course>246.95</course>
  <speed>0.0</speed>
  <fix>3d</fix>
</trkpt>
<trkpt lat="33.8106429" lon="-118.3938634">
  <ele>-20.346</ele>
  <time>2026-09-01T01:17:04Z</time>
  <course>26.8</course>
  <speed>0.0316227766016838</speed>
  <fix>3d</fix>
</trkpt>
<trkpt lat="33.8106429" lon="-118.3938634">
  <ele>-20.405</ele>
  <time>2026-09-01T01:17:04Z</time>
  <course>26.81</course>
  <speed>0.0316227766016838</speed>
  <fix>3d</fix>
</trkpt>
<trkpt lat="33.8106431" lon="-118.3938636">
  <ele>-19.77</ele>
  <time>2026-09-01T01:17:04Z</time>
  <course>246.86</course>
  <speed>0.0</speed>
  <fix>3d</fix>
</trkpt>
<trkpt lat="33.8106429" lon="-118.3938634">
  <ele>-20.406</ele>
  <time>2026-09-01T01:17:04Z</time>
  <course>26.81</course>
  <speed>0.0316227766016838</speed>
  <fix>3d</fix>
</trkpt>
<trkpt lat="33.8106429" lon="-118.3938634">
  <ele>-20.466</ele>
  <time>2026-09-01T01:17:04Z</time>
  <course>26.82</course>
  <speed>0.0316227766016838</speed>
  <fix>3d</fix>
</trkpt>
<trkpt lat="33.8106431" lon="-118.3938636">
  <ele>-19.77</ele>
  <time>2026-09-01T01:17:04Z</time>
  <course>246.86</course>
  <speed>0.0</speed>
  <fix>3d</fix>
</trkpt>
<trkpt lat="33.8106429" lon="-118.3938634">
  <ele>-20.467</ele>
  <time>2026-09-01T01:17:04Z</time>
  <course>26.82</course>
  <speed>0.0316227766016838</speed>
  <fix>3d</fix>
</trkpt>
<trkpt lat="33.8106429" lon="-118.3938634">
  <ele>-20.526</ele>
  <time>2026-09-01T01:17:04Z</time>
  <course>26.83</course>
  <speed>0.0316227766016838</speed>
  <fix>3d</fix>
</trkpt>
<trkpt lat="33.8106431" lon="-118.3938636">
  <ele>-19.89</ele>
  <time>2026-09-01T01:17:04Z</time>
  <course>246.78</course>
  <speed>0.0</speed>
  <fix>3d</fix>
</trkpt>
<trkpt lat="33.8106429" lon="-118.3938634">
  <ele>-20.527</ele>
  <time>2026-09-01T01:17:04Z</time>
  <course>26.83</course>
  <speed>0.0316227766016838</speed>
  <fix>3d</fix>
</trkpt>
<trkpt lat="33.8106429" lon="-118.3938634">
  <ele>-20.586</ele>
  <time>2026-09-01T01:17:04Z</time>
  <course>26.84</course>
  <speed>0.0316227766016838</speed>
  <fix>3d</fix>
</trkpt>
<trkpt lat="33.8106431" lon="-118.3938636">
  <ele>-19.89</ele>
  <time>2026-09-01T01:17:04Z</time>
  <course>246.78</course>
  <speed>0.0</speed>
  <fix>3d</fix>
</trkpt>
<trkpt lat="33.8106429" lon="-118.3938634">
  <ele>-20.588</ele>
  <time>2026-09-01T01:17:04Z</time>
  <course>26.84</course>
  <speed>0.0316227766016838</speed>
  <fix>3d</fix>
</trkpt>
<trkpt lat="33.8106429" lon="-118.3938634">
  <ele>-20.647</ele>
  <time>2026-09-01T01:17:04Z</time>
  <course>26.85</course>
  <speed>0.0316227766016838</speed>
  <fix>3d</fix>
</trkpt>
<trkpt lat="33.8106431" lon="-118.3938636">
  <ele>-20.01</ele>
  <time>2026-09-01T01:17:04Z</time>
  <course>246.75</course>
  <speed>0.0</speed>
  <fix>3d</fix>
</trkpt>
<trkpt lat="33.8106429" lon="-118.3938634">
  <ele>-20.649</ele>
  <time>2026-09-01T01:17:04Z</time>
  <course>26.85</course>
  <speed>0.0316227766016838</speed>
  <fix>3d</fix>
</trkpt>
<trkpt lat="33.8106429" lon="-118.3938634">
  <ele>-20.708</ele>
  <time>2026-09-01T01:17:04Z</time>
  <course>26.86</course>
  <speed>0.0316227766016838</speed>
  <fix>3d</fix>
</trkpt>
<trkpt lat="33.8106431" lon="-118.3938636">
  <ele>-20.01</ele>
  <time>2026-09-01T01:17:04Z</time>
  <course>246.75</course>
  <speed>0.0</speed>
  <fix>3d</fix>
</trkpt>
<trkpt lat="33.8106429" lon="-118.3938634">
  <ele>-20.71</ele>
  <time>2026-09-01T01:17:04Z</time>
  <course>26.86</course>
  <speed>0.0316227766016838</speed>
  <fix>3d</fix>
</trkpt>
<trkpt lat="33.8106429" lon="-118.3938634">
  <ele>-20.769</ele>
  <time>2026-09-01T01:17:04Z</time>
  <course>26.87</course>
  <speed>0.0316227766016838</speed>
  <fix>3d</fix>
</trkpt>
<trkpt lat="33.8106431" lon="-118.3938636">
  <ele>-20.13</ele>
  <time>2026-09-01T01:17:04Z</time>
  <course>246.81</course>
  <speed>0.0</speed>
  <fix>3d</fix>
</trkpt>
<trkpt lat="33.8106429" lon="-118.3938634">
  <ele>-20.771</ele>
  <time>2026-09-01T01:17:04Z</time>
  <course>26.87</course>
  <speed>0.0316227766016838</speed>
  <fix>3d</fix>
</trkpt>
<trkpt lat="33.8106429" lon="-118.3938634">
  <ele>-20.831</ele>
  <time>2026-09-01T01:17:04Z</time>
  <course>26.87</course>
  <speed>0.0316227766016838</speed>
  <fix>3d</fix>
</trkpt>
<trkpt lat="33.8106431" lon="-118.3938636">
  <ele>-20.13</ele>
  <time>2026-09-01T01:17:04Z</time>
  <course>246.81</course>
  <speed>0.0</speed>
  <fix>3d</fix>
</trkpt>
<trkpt lat="33.8106429" lon="-118.3938634">
  <ele>-20.833</ele>
  <time>2026-09-01T01:17:04Z</time>
  <course>26.88</course>
  <speed>0.0316227766016838</speed>
  <fix>3d</fix>
</trkpt>
<trkpt lat="33.8106429" lon="-118.3938634">
  <ele>-20.894</ele>
  <time>2026-09-01T01:17:04Z</time>
  <course>26.88</course>
  <speed>0.0316227766016838</speed>
  <fix>3d</fix>
</trkpt>
<trkpt lat="33.8106431" lon="-118.3938636">
  <ele>-20.25</ele>
  <time>2026-09-01T01:17:04Z</time>
  <course>246.88</course>
  <speed>0.0</speed>
  <fix>3d</fix>
</trkpt>
<trkpt lat="33.8106429" lon="-118.3938634">
  <ele>-20.895</ele>
  <time>2026-09-01T01:17:04Z</time>
  <course>26.88</course>
  <speed>0.0316227766016838</speed>
  <fix>3d</fix>
</trkpt>
<trkpt lat="33.8106429" lon="-118.3938634">
  <ele>-20.956</ele>
  <time>2026-09-01T01:17:04Z</time>
  <course>26.89</course>
  <speed>0.0316227766016838</speed>
  <fix>3d</fix>
</trkpt>
<trkpt lat="33.8106431" lon="-118.3938636">
  <ele>-20.25</ele>
  <time>2026-09-01T01:17:04Z</time>
  <course>246.88</course>
  <speed>0.0</speed>
  <fix>3d</fix>
</trkpt>
<trkpt lat="33.8106429" lon="-118.3938634">
  <ele>-20.958</ele>
  <time>2026-09-01T01:17:04Z</time>
  <course>26.89</course>
  <speed>0.0316227766016838</speed>
  <fix>3d</fix>
</trkpt>
<trkpt lat="33.8106429" lon="-118.3938634">
  <ele>-21.019</ele>
  <time>2026-09-01T01:17:04Z</time>
  <course>26.9</course>
  <speed>0.0316227766016838</speed>
  <fix>3d</fix>
</trkpt>
<trkpt lat="33.8106431" lon="-118.3938636">
  <ele>-20.36</ele>
  <time>2026-09-01T01:17:04Z</time>
  <course>246.91</course>
  <speed>0.0</speed>
  <fix>3d</fix>
</trkpt>
<trkpt lat="33.8106429" lon="-118.3938634">
  <ele>-21.02</ele>
  <time>2026-09-01T01:17:04Z</time>
  <course>26.9</course>
  <speed>0.0316227766016838</speed>
  <fix>3d</fix>
</trkpt>
<trkpt lat="33.8106429" lon="-118.3938634">
  <ele>-21.081</ele>
  <time>2026-09-01T01:17:04Z</time>
  <course>26.91</course>
  <speed>0.0316227766016838</speed>
  <fix>3d</fix>
</trkpt>
<trkpt lat="33.8106431" lon="-118.3938636">
  <ele>-20.36</ele>
  <time>2026-09-01T01:17:04Z</time>
  <course>246.91</course>
  <speed>0.0</speed>
  <fix>3d</fix>
</trkpt>
<trkpt lat="33.8106429" lon="-118.3938634">
  <ele>-21.083</ele>
  <time>2026-09-01T01:17:04Z</time>
  <course>26.91</course>
  <speed>0.0316227766016838</speed>
  <fix>3d</fix>
</trkpt>
<trkpt lat="33.8106429" lon="-118.3938634">
  <ele>-21.144</ele>
  <time>2026-09-01T01:17:04Z</time>
  <course>26.92</course>
  <speed>0.0316227766016838</speed>
  <fix>3d</fix>
</trkpt>
<trkpt lat="33.810643" lon="-118.3938636">
  <ele>-20.49</ele>
  <time>2026-09-01T01:17:04Z</time>
  <course>246.86</course>
  <speed>0.0</speed>
  <fix>3d</fix>
</trkpt>
<trkpt lat="33.8106429" lon="-118.3938634">
  <ele>-21.145</ele>
  <time>2026-09-01T01:17:04Z</time>
  <course>26.92</course>
  <speed>0.0316227766016838</speed>
  <fix>3d</fix>
</trkpt>
<trkpt lat="33.8106429" lon="-118.3938634">
  <ele>-21.206</ele>
  <time>2026-09-01T01:17:04Z</time>
  <course>26.93</course>
  <speed>0.0316227766016838</speed>
  <fix>3d</fix>
</trkpt>
<trkpt lat="33.810643" lon="-118.3938636">
  <ele>-20.49</ele>
  <time>2026-09-01T01:17:04Z</time>
  <course>246.86</course>
  <speed>0.0</speed>
  <fix>3d</fix>
</trkpt>
<trkpt lat="33.8106429" lon="-118.3938634">
  <ele>-21.208</ele>
  <time>2026-09-01T01:17:04Z</time>
  <course>26.93</course>
  <speed>0.0316227766016838</speed>
  <fix>3d</fix>
</trkpt>
<trkpt lat="33.8106429" lon="-118.3938634">
  <ele>-21.268</ele>
  <time>2026-09-01T01:17:04Z</time>
  <course>26.94</course>
  <speed>0.0316227766016838</speed>
  <fix>3d</fix>
</trkpt>
<trkpt lat="33.810643" lon="-118.3938636">
  <ele>-20.61</ele>
  <time>2026-09-01T01:17:04Z</time>
  <course>246.76</course>
  <speed>0.0</speed>
  <fix>3d</fix>
</trkpt>
<trkpt lat="33.8106429" lon="-118.3938634">
  <ele>-21.269</ele>
  <time>2026-09-01T01:17:04Z</time>
  <course>26.94</course>
  <speed>0.0316227766016838</speed>
  <fix>3d</fix>
</trkpt>
<trkpt lat="33.8106429" lon="-118.3938634">
  <ele>-21.329</ele>
  <time>2026-09-01T01:17:04Z</time>
  <course>26.95</course>
  <speed>0.0316227766016838</speed>
  <fix>3d</fix>
</trkpt>
<trkpt lat="33.810643" lon="-118.3938636">
  <ele>-20.61</ele>
  <time>2026-09-01T01:17:04Z</time>
  <course>246.76</course>
  <speed>0.0</speed>
  <fix>3d</fix>
</trkpt>
<trkpt lat="33.8106429" lon="-118.3938634">
  <ele>-21.332</ele>
  <time>2026-09-01T01:17:04Z</time>
  <course>26.95</course>
  <speed>0.0316227766016838</speed>
  <fix>3d</fix>
</trkpt>
<trkpt lat="33.8106429" lon="-118.3938634">
  <ele>-21.389</ele>
  <time>2026-09-01T01:17:04Z</time>
  <course>26.95</course>
  <speed>0.0316227766016838</speed>
  <fix>3d</fix>
</trkpt>
<trkpt lat="33.810643" lon="-118.3938636">
  <ele>-20.73</ele>
  <time>2026-09-01T01:17:04Z</time>
  <course>246.7</course>
  <speed>0.0</speed>
  <fix>3d</fix>
</trkpt>
<trkpt lat="33.8106429" lon="-118.3938634">
  <ele>-21.39</ele>
  <time>2026-09-01T01:17:04Z</time>
  <course>26.95</course>
  <speed>0.0316227766016838</speed>
  <fix>3d</fix>
</trkpt>
<trkpt lat="33.8106428" lon="-118.3938634">
  <ele>-21.45</ele>
  <time>2026-09-01T01:17:04Z</time>
  <course>26.96</course>
  <speed>0.0316227766016838</speed>
  <fix>3d</fix>
</trkpt>
<trkpt lat="33.810643" lon="-118.3938636">
  <ele>-20.73</ele>
  <time>2026-09-01T01:17:04Z</time>
  <course>246.7</course>
  <speed>0.0</speed>
  <fix>3d</fix>
</trkpt>
<trkpt lat="33.8106428" lon="-118.3938634">
  <ele>-21.451</ele>
  <time>2026-09-01T01:17:04Z</time>
  <course>26.96</course>
  <speed>0.0316227766016838</speed>
  <fix>3d</fix>
</trkpt>
<trkpt lat="33.8106428" lon="-118.3938634">
  <ele>-21.511</ele>
  <time>2026-09-01T01:17:04Z</time>
  <course>26.97</course>
  <speed>0.0316227766016838</speed>
  <fix>3d</fix>
</trkpt>
<trkpt lat="33.810643" lon="-118.3938637">
  <ele>-20.85</ele>
  <time>2026-09-01T01:17:04Z</time>
  <course>246.71</course>
  <speed>0.0</speed>
  <fix>3d</fix>
</trkpt>
<trkpt lat="33.8106428" lon="-118.3938634">
  <ele>-21.513</ele>
  <time>2026-09-01T01:17:04Z</time>
  <course>26.97</course>
  <speed>0.0316227766016838</speed>
  <fix>3d</fix>
</trkpt>
<trkpt lat="33.8106428" lon="-118.3938634">
  <ele>-21.575</ele>
  <time>2026-09-01T01:17:04Z</time>
  <course>26.98</course>
  <speed>0.0316227766016838</speed>
  <fix>3d</fix>
</trkpt>
<trkpt lat="33.810643" lon="-118.3938637">
  <ele>-20.85</ele>
  <time>2026-09-01T01:17:04Z</time>
  <course>246.71</course>
  <speed>0.0</speed>
  <fix>3d</fix>
</trkpt>
<trkpt lat="33.8106428" lon="-118.3938634">
  <ele>-21.577</ele>
  <time>2026-09-01T01:17:04Z</time>
  <course>26.98</course>
  <speed>0.0316227766016838</speed>
  <fix>3d</fix>
</trkpt>
<trkpt lat="33.8106428" lon="-118.3938634">
  <ele>-21.637</ele>
  <time>2026-09-01T01:17:04Z</time>
  <course>26.99</course>
  <speed>0.0316227766016838</speed>
  <fix>3d</fix>
</trkpt>
<trkpt lat="33.810643" lon="-118.3938637">
  <ele>-20.97</ele>
  <time>2026-09-01T01:17:04Z</time>
  <course>246.77</course>
  <speed>0.0</speed>
  <fix>3d</fix>
</trkpt>
<trkpt lat="33.8106428" lon="-118.3938634">
  <ele>-21.638</ele>
  <time>2026-09-01T01:17:04Z</time>
  <course>26.99</course>
  <speed>0.0316227766016838</speed>
  <fix>3d</fix>
</trkpt>
<trkpt lat="33.8106428" lon="-118.3938634">
  <ele>-21.699</ele>
  <time>2026-09-01T01:17:04Z</time>
  <course>27.0</course>
  <speed>0.0316227766016838</speed>
  <fix>3d</fix>
</trkpt>
<trkpt lat="33.810643" lon="-118.3938637">
  <ele>-20.97</ele>
  <time>2026-09-01T01:17:04Z</time>
  <course>246.77</course>
  <speed>0.0</speed>
  <fix>3d</fix>
</trkpt>
<trkpt lat="33.8106428" lon="-118.3938634">
  <ele>-21.7</ele>
  <time>2026-09-01T01:17:04Z</time>
  <course>27.0</course>
  <speed>0.0316227766016838</speed>
  <fix>3d</fix>
</trkpt>
<trkpt lat="33.8106428" lon="-118.3938635">
  <ele>-21.76</ele>
  <time>2026-09-01T01:17:04Z</time>
  <course>27.01</course>
  <speed>0.0316227766016838</speed>
  <fix>3d</fix>
</trkpt>
<trkpt lat="33.810643" lon="-118.3938637">
  <ele>-21.09</ele>
  <time>2026-09-01T01:17:04Z</time>
  <course>246.84</course>
  <speed>0.0</speed>
  <fix>3d</fix>
</trkpt>
<trkpt lat="33.8106428" lon="-118.3938635">
  <ele>-21.762</ele>
  <time>2026-09-01T01:17:04Z</time>
  <course>27.01</course>
  <speed>0.0316227766016838</speed>
  <fix>3d</fix>
</trkpt>
<trkpt lat="33.8106428" lon="-118.3938635">
  <ele>-21.821</ele>
  <time>2026-09-01T01:17:04Z</time>
  <course>27.01</course>
  <speed>0.0316227766016838</speed>
  <fix>3d</fix>
</trkpt>
<trkpt lat="33.810643" lon="-118.3938637">
  <ele>-21.09</ele>
  <time>2026-09-01T01:17:04Z</time>
  <course>246.84</course>
  <speed>0.0</speed>
  <fix>3d</fix>
</trkpt>
<trkpt lat="33.8106428" lon="-118.3938635">
  <ele>-21.823</ele>
  <time>2026-09-01T01:17:04Z</time>
  <course>27.01</course>
  <speed>0.0316227766016838</speed>
  <fix>3d</fix>
</trkpt>
<trkpt lat="33.8106428" lon="-118.3938635">
  <ele>-21.881</ele>
  <time>2026-09-01T01:17:04Z</time>
  <course>27.02</course>
  <speed>0.0316227766016838</speed>
  <fix>3d</fix>
</trkpt>
<trkpt lat="33.810643" lon="-118.3938637">
  <ele>-21.22</ele>
  <time>2026-09-01T01:17:04Z</time>
  <course>246.84</course>
  <speed>0.0</speed>
  <fix>3d</fix>
</trkpt>
<trkpt lat="33.8106428" lon="-118.3938635">
  <ele>-21.883</ele>
  <time>2026-09-01T01:17:04Z</time>
  <course>27.02</course>
  <speed>0.0316227766016838</speed>
  <fix>3d</fix>
</trkpt>
<trkpt lat="33.8106428" lon="-118.3938635">
  <ele>-21.942</ele>
  <time>2026-09-01T01:17:04Z</time>
  <course>27.03</course>
  <speed>0.0316227766016838</speed>
  <fix>3d</fix>
</trkpt>
<trkpt lat="33.810643" lon="-118.3938637">
  <ele>-21.22</ele>
  <time>2026-09-01T01:17:04Z</time>
  <course>246.84</course>
  <speed>0.0</speed>
  <fix>3d</fix>
</trkpt>
<trkpt lat="33.8106428" lon="-118.3938635">
  <ele>-21.944</ele>
  <time>2026-09-01T01:17:04Z</time>
  <course>27.03</course>
  <speed>0.0316227766016838</speed>
  <fix>3d</fix>
</trkpt>
<trkpt lat="33.8106428" lon="-118.3938635">
  <ele>-22.003</ele>
  <time>2026-09-01T01:17:04Z</time>
  <course>27.04</course>
  <speed>0.0316227766016838</speed>
  <fix>3d</fix>
</trkpt>
<trkpt lat="33.810643" lon="-118.3938637">
  <ele>-21.34</ele>
  <time>2026-09-01T01:17:04Z</time>
  <course>246.77</course>
  <speed>0.0</speed>
  <fix>3d</fix>
</trkpt>
<trkpt lat="33.8106428" lon="-118.3938635">
  <ele>-22.005</ele>
  <time>2026-09-01T01:17:04Z</time>
  <course>27.04</course>
  <speed>0.0316227766016838</speed>
  <fix>3d</fix>
</trkpt>
<trkpt lat="33.8106428" lon="-118.3938635">
  <ele>-22.064</ele>
  <time>2026-09-01T01:17:04Z</time>
  <course>27.05</course>
  <speed>0.0316227766016838</speed>
  <fix>3d</fix>
</trkpt>
<trkpt lat="33.810643" lon="-118.3938637">
  <ele>-21.34</ele>
  <time>2026-09-01T01:17:04Z</time>
  <course>246.77</course>
  <speed>0.0</speed>
  <fix>3d</fix>
</trkpt>
<trkpt lat="33.8106428" lon="-118.3938635">
  <ele>-22.066</ele>
  <time>2026-09-01T01:17:04Z</time>
  <course>27.05</course>
  <speed>0.0316227766016838</speed>
  <fix>3d</fix>
</trkpt>
<trkpt lat="33.8106428" lon="-118.3938635">
  <ele>-22.126</ele>
  <time>2026-09-01T01:17:04Z</time>
  <course>27.06</course>
  <speed>0.0316227766016838</speed>
  <fix>3d</fix>
</trkpt>
<trkpt lat="33.810643" lon="-118.3938637">
  <ele>-21.46</ele>
  <time>2026-09-01T01:17:04Z</time>
  <course>246.68</course>
  <speed>0.0</speed>
  <fix>3d</fix>
</trkpt>
<trkpt lat="33.8106428" lon="-118.3938635">
  <ele>-22.127</ele>
  <time>2026-09-01T01:17:04Z</time>
  <course>27.06</course>
  <speed>0.0316227766016838</speed>
  <fix>3d</fix>
</trkpt>
<trkpt lat="33.8106428" lon="-118.3938635">
  <ele>-22.186</ele>
  <time>2026-09-01T01:17:04Z</time>
  <course>27.07</course>
  <speed>0.0316227766016838</speed>
  <fix>3d</fix>
</trkpt>
<trkpt lat="33.810643" lon="-118.3938637">
  <ele>-21.46</ele>
  <time>2026-09-01T01:17:04Z</time>
  <course>246.68</course>
  <speed>0.0</speed>
  <fix>3d</fix>
</trkpt>
<trkpt lat="33.8106428" lon="-118.3938635">
  <ele>-22.188</ele>
  <time>2026-09-01T01:17:04Z</time>
  <course>27.07</course>
  <speed>0.0316227766016838</speed>
  <fix>3d</fix>
</trkpt>
<trkpt lat="33.8106428" lon="-118.3938635">
  <ele>-22.246</ele>
  <time>2026-09-01T01:17:04Z</time>
  <course>27.08</course>
  <speed>0.0316227766016838</speed>
  <fix>3d</fix>
</trkpt>
<trkpt lat="33.810643" lon="-118.3938637">
  <ele>-21.58</ele>
  <time>2026-09-01T01:17:04Z</time>
  <course>246.64</course>
  <speed>0.0</speed>
  <fix>3d</fix>
</trkpt>
<trkpt lat="33.8106428" lon="-118.3938635">
  <ele>-22.248</ele>
  <time>2026-09-01T01:17:04Z</time>
  <course>27.08</course>
  <speed>0.0316227766016838</speed>
  <fix>3d</fix>
</trkpt>
<trkpt lat="33.8106428" lon="-118.3938635">
  <ele>-22.307</ele>
  <time>2026-09-01T01:17:04Z</time>
  <course>27.08</course>
  <speed>0.0316227766016838</speed>
  <fix>3d</fix>
</trkpt>
<trkpt lat="33.810643" lon="-118.3938637">
  <ele>-21.58</ele>
  <time>2026-09-01T01:17:04Z</time>
  <course>246.64</course>
  <speed>0.0</speed>
  <fix>3d</fix>
</trkpt>
<trkpt lat="33.8106428" lon="-118.3938635">
  <ele>-22.308</ele>
  <time>2026-09-01T01:17:04Z</time>
  <course>27.09</course>
  <speed>0.0316227766016838</speed>
  <fix>3d</fix>
</trkpt>
<trkpt lat="33.8106428" lon="-118.3938635">
  <ele>-22.367</ele>
  <time>2026-09-01T01:17:04Z</time>
  <course>27.09</course>
  <speed>0.0316227766016838</speed>
  <fix>3d</fix>
</trkpt>
<trkpt lat="33.810643" lon="-118.3938637">
  <ele>-21.7</ele>
  <time>2026-09-01T01:17:04Z</time>
  <course>246.67</course>
  <speed>0.0</speed>
  <fix>3d</fix>
</trkpt>
<trkpt lat="33.8106428" lon="-118.3938635">
  <ele>-22.369</ele>
  <time>2026-09-01T01:17:04Z</time>
  <course>27.09</course>
  <speed>0.0316227766016838</speed>
  <fix>3d</fix>
</trkpt>
<trkpt lat="33.8106428" lon="-118.3938635">
  <ele>-22.428</ele>
  <time>2026-09-01T01:17:04Z</time>
  <course>27.1</course>
  <speed>0.0316227766016838</speed>
  <fix>3d</fix>
</trkpt>
<trkpt lat="33.810643" lon="-118.3938637">
  <ele>-21.7</ele>
  <time>2026-09-01T01:17:04Z</time>
  <course>246.67</course>
  <speed>0.0</speed>
  <fix>3d</fix>
</trkpt>
<trkpt lat="33.8106428" lon="-118.3938635">
  <ele>-22.429</ele>
  <time>2026-09-01T01:17:04Z</time>
  <course>27.1</course>
  <speed>0.0316227766016838</speed>
  <fix>3d</fix>
</trkpt>
<trkpt lat="33.8106428" lon="-118.3938635">
  <ele>-22.489</ele>
  <time>2026-09-01T01:17:04Z</time>
  <course>27.11</course>
  <speed>0.0316227766016838</speed>
  <fix>3d</fix>
</trkpt>
<trkpt lat="33.810643" lon="-118.3938637">
  <ele>-21.82</ele>
  <time>2026-09-01T01:17:04Z</time>
  <course>246.74</course>
  <speed>0.0</speed>
  <fix>3d</fix>
</trkpt>
<trkpt lat="33.8106428" lon="-118.3938635">
  <ele>-22.49</ele>
  <time>2026-09-01T01:17:04Z</time>
  <course>27.11</course>
  <speed>0.0316227766016838</speed>
  <fix>3d</fix>
</trkpt>
<trkpt lat="33.8106428" lon="-118.3938635">
  <ele>-22.551</ele>
  <time>2026-09-01T01:17:04Z</time>
  <course>27.12</course>
  <speed>0.0316227766016838</speed>
  <fix>3d</fix>
</trkpt>
<trkpt lat="33.810643" lon="-118.3938637">
  <ele>-21.82</ele>
  <time>2026-09-01T01:17:04Z</time>
  <course>246.74</course>
  <speed>0.0</speed>
  <fix>3d</fix>
</trkpt>
<trkpt lat="33.8106428" lon="-118.3938635">
  <ele>-22.553</ele>
  <time>2026-09-01T01:17:04Z</time>
  <course>27.12</course>
  <speed>0.0316227766016838</speed>
  <fix>3d</fix>
</trkpt>
<trkpt lat="33.8106428" lon="-118.3938635">
  <ele>-22.614</ele>
  <time>2026-09-01T01:17:04Z</time>
  <course>27.13</course>
  <speed>0.0316227766016838</speed>
  <fix>3d</fix>
</trkpt>
<trkpt lat="33.810643" lon="-118.3938637">
  <ele>-21.93</ele>
  <time>2026-09-01T01:17:04Z</time>
  <course>246.79</course>
  <speed>0.0</speed>
  <fix>3d</fix>
</trkpt>
<trkpt lat="33.8106428" lon="-118.3938635">
  <ele>-22.616</ele>
  <time>2026-09-01T01:17:04Z</time>
  <course>27.13</course>
  <speed>0.0316227766016838</speed>
  <fix>3d</fix>
</trkpt>
<trkpt lat="33.8106428" lon="-118.3938635">
  <ele>-22.677</ele>
  <time>2026-09-01T01:17:04Z</time>
  <course>27.14</course>
  <speed>0.0316227766016838</speed>
  <fix>3d</fix>
</trkpt>
<trkpt lat="33.810643" lon="-118.3938637">
  <ele>-21.93</ele>
  <time>2026-09-01T01:17:04Z</time>
  <course>246.79</course>
  <speed>0.0</speed>
  <fix>3d</fix>
</trkpt>
<trkpt lat="33.8106428" lon="-118.3938635">
  <ele>-22.678</ele>
  <time>2026-09-01T01:17:04Z</time>
  <course>27.14</course>
  <speed>0.0316227766016838</speed>
  <fix>3d</fix>
</trkpt>
<trkpt lat="33.8106428" lon="-118.3938635">
  <ele>-22.741</ele>
  <time>2026-09-01T01:17:04Z</time>
  <course>27.15</course>
  <speed>0.0316227766016838</speed>
  <fix>3d</fix>
</trkpt>
<trkpt lat="33.810643" lon="-118.3938637">
  <ele>-22.06</ele>
  <time>2026-09-01T01:17:04Z</time>
  <course>246.76</course>
  <speed>0.0</speed>
  <fix>3d</fix>
</trkpt>
<trkpt lat="33.8106428" lon="-118.3938635">
  <ele>-22.743</ele>
  <time>2026-09-01T01:17:04Z</time>
  <course>27.15</course>
  <speed>0.0316227766016838</speed>
  <fix>3d</fix>
</trkpt>
<trkpt lat="33.8106428" lon="-118.3938635">
  <ele>-22.806</ele>
  <time>2026-09-01T01:17:04Z</time>
  <course>27.16</course>
  <speed>0.0316227766016838</speed>
  <fix>3d</fix>
</trkpt>
<trkpt lat="33.810643" lon="-118.3938637">
  <ele>-22.06</ele>
  <time>2026-09-01T01:17:04Z</time>
  <course>246.76</course>
  <speed>0.0</speed>
  <fix>3d</fix>
</trkpt>
<trkpt lat="33.8106428" lon="-118.3938635">
  <ele>-22.808</ele>
  <time>2026-09-01T01:17:04Z</time>
  <course>27.16</course>
  <speed>0.0316227766016838</speed>
  <fix>3d</fix>
</trkpt>
<trkpt lat="33.8106428" lon="-118.3938635">
  <ele>-22.872</ele>
  <time>2026-09-01T01:17:04Z</time>
  <course>27.16</course>
  <speed>0.0316227766016838</speed>
  <fix>3d</fix>
</trkpt>
<trkpt lat="33.810643" lon="-118.3938637">
  <ele>-22.18</ele>
  <time>2026-09-01T01:17:04Z</time>
  <course>246.68</course>
  <speed>0.0</speed>
  <fix>3d</fix>
</trkpt>
<trkpt lat="33.8106428" lon="-118.3938635">
  <ele>-22.874</ele>
  <time>2026-09-01T01:17:04Z</time>
  <course>27.16</course>
  <speed>0.0316227766016838</speed>
  <fix>3d</fix>
</trkpt>
<trkpt lat="33.8106428" lon="-118.3938635">
  <ele>-22.935</ele>
  <time>2026-09-01T01:17:04Z</time>
  <course>27.17</course>
  <speed>0.0316227766016838</speed>
  <fix>3d</fix>
</trkpt>
<trkpt lat="33.810643" lon="-118.3938637">
  <ele>-22.18</ele>
  <time>2026-09-01T01:17:04Z</time>
  <course>246.68</course>
  <speed>0.0</speed>
  <fix>3d</fix>
</trkpt>
<trkpt lat="33.8106428" lon="-118.3938635">
  <ele>-22.937</ele>
  <time>2026-09-01T01:17:04Z</time>
  <course>27.17</course>
  <speed>0.0316227766016838</speed>
  <fix>3d</fix>
</trkpt>
<trkpt lat="33.8106428" lon="-118.3938635">
  <ele>-22.998</ele>
  <time>2026-09-01T01:17:04Z</time>
  <course>27.18</course>
  <speed>0.0316227766016838</speed>
  <fix>3d</fix>
</trkpt>
<trkpt lat="33.810643" lon="-118.3938637">
  <ele>-22.3</ele>
  <time>2026-09-01T01:17:04Z</time>
  <course>246.6</course>
  <speed>0.0</speed>
  <fix>3d</fix>
</trkpt>
<trkpt lat="33.8106428" lon="-118.3938635">
  <ele>-23.0</ele>
  <time>2026-09-01T01:17:04Z</time>
  <course>27.18</course>
  <speed>0.0316227766016838</speed>
  <fix>3d</fix>
</trkpt>
<trkpt lat="33.8106428" lon="-118.3938635">
  <ele>-23.06</ele>
  <time>2026-09-01T01:17:04Z</time>
  <course>27.19</course>
  <speed>0.0316227766016838</speed>
  <fix>3d</fix>
</trkpt>
<trkpt lat="33.810643" lon="-118.3938637">
  <ele>-22.3</ele>
  <time>2026-09-01T01:17:04Z</time>
  <course>246.6</course>
  <speed>0.0</speed>
  <fix>3d</fix>
</trkpt>
<trkpt lat="33.8106428" lon="-118.3938635">
  <ele>-23.062</ele>
  <time>2026-09-01T01:17:04Z</time>
  <course>27.19</course>
  <speed>0.0316227766016838</speed>
  <fix>3d</fix>
</trkpt>
<trkpt lat="33.8106428" lon="-118.3938635">
  <ele>-23.123</ele>
  <time>2026-09-01T01:17:04Z</time>
  <course>27.2</course>
  <speed>0.0316227766016838</speed>
  <fix>3d</fix>
</trkpt>
<trkpt lat="33.810643" lon="-118.3938637">
  <ele>-22.42</ele>
  <time>2026-09-01T01:17:04Z</time>
  <course>246.59</course>
  <speed>0.0</speed>
  <fix>3d</fix>
</trkpt>
<trkpt lat="33.8106428" lon="-118.3938635">
  <ele>-23.124</ele>
  <time>2026-09-01T01:17:04Z</time>
  <course>27.2</course>
  <speed>0.0316227766016838</speed>
  <fix>3d</fix>
</trkpt>
<trkpt lat="33.8106428" lon="-118.3938635">
  <ele>-23.185</ele>
  <time>2026-09-01T01:17:04Z</time>
  <course>27.21</course>
  <speed>0.0316227766016838</speed>
  <fix>3d</fix>
</trkpt>
<trkpt lat="33.810643" lon="-118.3938637">
  <ele>-22.42</ele>
  <time>2026-09-01T01:17:04Z</time>
  <course>246.59</course>
  <speed>0.0</speed>
  <fix>3d</fix>
</trkpt>
<trkpt lat="33.8106428" lon="-118.3938635">
  <ele>-23.187</ele>
  <time>2026-09-01T01:17:04Z</time>
  <course>27.21</course>
  <speed>0.0316227766016838</speed>
  <fix>3d</fix>
</trkpt>
<trkpt lat="33.8106428" lon="-118.3938635">
  <ele>-23.248</ele>
  <time>2026-09-01T01:17:04Z</time>
  <course>27.22</course>
  <speed>0.0316227766016838</speed>
  <fix>3d</fix>
</trkpt>
<trkpt lat="33.810643" lon="-118.3938637">
  <ele>-22.54</ele>
  <time>2026-09-01T01:17:04Z</time>
  <course>246.64</course>
  <speed>0.0</speed>
  <fix>3d</fix>
</trkpt>
<trkpt lat="33.8106428" lon="-118.3938635">
  <ele>-23.25</ele>
  <time>2026-09-01T01:17:04Z</time>
  <course>27.22</course>
  <speed>0.0316227766016838</speed>
  <fix>3d</fix>
</trkpt>
<trkpt lat="33.8106428" lon="-118.3938635">
  <ele>-23.311</ele>
  <time>2026-09-01T01:17:04Z</time>
  <course>27.23</course>
  <speed>0.0316227766016838</speed>
  <fix>3d</fix>
</trkpt>
<trkpt lat="33.810643" lon="-118.3938637">
  <ele>-22.54</ele>
  <time>2026-09-01T01:17:04Z</time>
  <course>246.64</course>
  <speed>0.0</speed>
  <fix>3d</fix>
</trkpt>
<trkpt lat="33.8106428" lon="-118.3938635">
  <ele>-23.313</ele>
  <time>2026-09-01T01:17:04Z</time>
  <course>27.23</course>
  <speed>0.0316227766016838</speed>
  <fix>3d</fix>
</trkpt>
<trkpt lat="33.8106428" lon="-118.3938635">
  <ele>-23.374</ele>
  <time>2026-09-01T01:17:04Z</time>
  <course>27.23</course>
  <speed>0.0316227766016838</speed>
  <fix>3d</fix>
</trkpt>
<trkpt lat="33.810643" lon="-118.3938638">
  <ele>-22.66</ele>
  <time>2026-09-01T01:17:04Z</time>
  <course>246.71</course>
  <speed>0.0</speed>
  <fix>3d</fix>
</trkpt>
<trkpt lat="33.8106428" lon="-118.3938635">
  <ele>-23.376</ele>
  <time>2026-09-01T01:17:04Z</time>
  <course>27.23</course>
  <speed>0.0316227766016838</speed>
  <fix>3d</fix>
</trkpt>
<trkpt lat="33.8106428" lon="-118.3938635">
  <ele>-23.437</ele>
  <time>2026-09-01T01:17:04Z</time>
  <course>27.24</course>
  <speed>0.0316227766016838</speed>
  <fix>3d</fix>
</trkpt>
<trkpt lat="33.810643" lon="-118.3938638">
  <ele>-22.66</ele>
  <time>2026-09-01T01:17:04Z</time>
  <course>246.71</course>
  <speed>0.0</speed>
  <fix>3d</fix>
</trkpt>
<trkpt lat="33.8106428" lon="-118.3938635">
  <ele>-23.439</ele>
  <time>2026-09-01T01:17:04Z</time>
  <course>27.24</course>
  <speed>0.0316227766016838</speed>
  <fix>3d</fix>
</trkpt>
<trkpt lat="33.8106428" lon="-118.3938635">
  <ele>-23.5</ele>
  <time>2026-09-01T01:17:04Z</time>
  <course>27.25</course>
  <speed>0.0316227766016838</speed>
  <fix>3d</fix>
</trkpt>
<trkpt lat="33.810643" lon="-118.3938638">
  <ele>-22.77</ele>
  <time>2026-09-01T01:17:04Z</time>
  <course>246.74</course>
  <speed>0.0</speed>
  <fix>3d</fix>
</trkpt>
<trkpt lat="33.8106428" lon="-118.3938635">
  <ele>-23.502</ele>
  <time>2026-09-01T01:17:04Z</time>
  <course>27.25</course>
  <speed>0.0316227766016838</speed>
  <fix>3d</fix>
</trkpt>
<trkpt lat="33.8106428" lon="-118.3938635">
  <ele>-23.563</ele>
  <time>2026-09-01T01:17:04Z</time>
  <course>27.26</course>
  <speed>0.0316227766016838</speed>
  <fix>3d</fix>
</trkpt>
<trkpt lat="33.810643" lon="-118.3938638">
  <ele>-22.77</ele>
  <time>2026-09-01T01:17:04Z</time>
  <course>246.74</course>
  <speed>0.0</speed>
  <fix>3d</fix>
</trkpt>
<trkpt lat="33.8106428" lon="-118.3938635">
  <ele>-23.564</ele>
  <time>2026-09-01T01:17:04Z</time>
  <course>27.26</course>
  <speed>0.0316227766016838</speed>
  <fix>3d</fix>
</trkpt>
<trkpt lat="33.8106428" lon="-118.3938636">
  <ele>-23.625</ele>
  <time>2026-09-01T01:17:04Z</time>
  <course>27.27</course>
  <speed>0.0316227766016838</speed>
  <fix>3d</fix>
</trkpt>
<trkpt lat="33.810643" lon="-118.3938638">
  <ele>-22.9</ele>
  <time>2026-09-01T01:17:04Z</time>
  <course>246.68</course>
  <speed>0.0</speed>
  <fix>3d</fix>
</trkpt>
<trkpt lat="33.8106428" lon="-118.3938636">
  <ele>-23.628</ele>
  <time>2026-09-01T01:17:04Z</time>
  <course>27.27</course>
  <speed>0.0316227766016838</speed>
  <fix>3d</fix>
</trkpt>
<trkpt lat="33.8106428" lon="-118.3938636">
  <ele>-23.686</ele>
  <time>2026-09-01T01:17:04Z</time>
  <course>27.28</course>
  <speed>0.0316227766016838</speed>
  <fix>3d</fix>
</trkpt>
<trkpt lat="33.810643" lon="-118.3938638">
  <ele>-22.9</ele>
  <time>2026-09-01T01:17:04Z</time>
  <course>246.68</course>
  <speed>0.0</speed>
  <fix>3d</fix>
</trkpt>
<trkpt lat="33.8106428" lon="-118.3938636">
  <ele>-23.687</ele>
  <time>2026-09-01T01:17:04Z</time>
  <course>27.28</course>
  <speed>0.0316227766016838</speed>
  <fix>3d</fix>
</trkpt>
<trkpt lat="33.8106428" lon="-118.3938636">
  <ele>-23.746</ele>
  <time>2026-09-01T01:17:04Z</time>
  <course>27.29</course>
  <speed>0.0316227766016838</speed>
  <fix>3d</fix>
</trkpt>
<trkpt lat="33.810643" lon="-118.3938638">
  <ele>-23.02</ele>
  <time>2026-09-01T01:17:04Z</time>
  <course>246.59</course>
  <speed>0.0</speed>
  <fix>3d</fix>
</trkpt>
<trkpt lat="33.8106428" lon="-118.3938636">
  <ele>-23.748</ele>
  <time>2026-09-01T01:17:04Z</time>
  <course>27.29</course>
  <speed>0.0316227766016838</speed>
  <fix>3d</fix>
</trkpt>
<trkpt lat="33.8106428" lon="-118.3938636">
  <ele>-23.807</ele>
  <time>2026-09-01T01:17:04Z</time>
  <course>27.29</course>
  <speed>0.0316227766016838</speed>
  <fix>3d</fix>
</trkpt>
<trkpt lat="33.810643" lon="-118.3938638">
  <ele>-23.02</ele>
  <time>2026-09-01T01:17:04Z</time>
  <course>246.59</course>
  <speed>0.0</speed>
  <fix>3d</fix>
</trkpt>
<trkpt lat="33.8106428" lon="-118.3938636">
  <ele>-23.809</ele>
  <time>2026-09-01T01:17:04Z</time>
  <course>27.29</course>
  <speed>0.0316227766016838</speed>
  <fix>3d</fix>
</trkpt>
<trkpt lat="33.8106428" lon="-118.3938636">
  <ele>-23.869</ele>
  <time>2026-09-01T01:17:04Z</time>
  <course>27.3</course>
  <speed>0.0316227766016838</speed>
  <fix>3d</fix>
</trkpt>
<trkpt lat="33.810643" lon="-118.3938638">
  <ele>-23.15</ele>
  <time>2026-09-01T01:17:04Z</time>
  <course>246.53</course>
  <speed>0.0</speed>
  <fix>3d</fix>
</trkpt>
<trkpt lat="33.8106428" lon="-118.3938636">
  <ele>-23.871</ele>
  <time>2026-09-01T01:17:04Z</time>
  <course>27.3</course>
  <speed>0.0316227766016838</speed>
  <fix>3d</fix>
</trkpt>
<trkpt lat="33.8106428" lon="-118.3938636">
  <ele>-23.932</ele>
  <time>2026-09-01T01:17:04Z</time>
  <course>27.31</course>
  <speed>0.0316227766016838</speed>
  <fix>3d</fix>
</trkpt>
<trkpt lat="33.810643" lon="-118.3938638">
  <ele>-23.15</ele>
  <time>2026-09-01T01:17:04Z</time>
  <course>246.53</course>
  <speed>0.0</speed>
  <fix>3d</fix>
</trkpt>
<trkpt lat="33.8106428" lon="-118.3938636">
  <ele>-23.934</ele>
  <time>2026-09-01T01:17:04Z</time>
  <course>27.31</course>
  <speed>0.0316227766016838</speed>
  <fix>3d</fix>
</trkpt>
<trkpt lat="33.8106428" lon="-118.3938636">
  <ele>-23.993</ele>
  <time>2026-09-01T01:17:04Z</time>
  <course>27.32</course>
  <speed>0.0316227766016838</speed>
  <fix>3d</fix>
</trkpt>
<trkpt lat="33.810643" lon="-118.3938638">
  <ele>-23.27</ele>
  <time>2026-09-01T01:17:04Z</time>
  <course>246.55</course>
  <speed>0.0</speed>
  <fix>3d</fix>
</trkpt>
<trkpt lat="33.8106428" lon="-118.3938636">
  <ele>-23.995</ele>
  <time>2026-09-01T01:17:04Z</time>
  <course>27.32</course>
  <speed>0.0316227766016838</speed>
  <fix>3d</fix>
</trkpt>
<trkpt lat="33.8106428" lon="-118.3938636">
  <ele>-24.055</ele>
  <time>2026-09-01T01:17:04Z</time>
  <course>27.33</course>
  <speed>0.0316227766016838</speed>
  <fix>3d</fix>
</trkpt>
<trkpt lat="33.810643" lon="-118.3938638">
  <ele>-23.27</ele>
  <time>2026-09-01T01:17:04Z</time>
  <course>246.55</course>
  <speed>0.0</speed>
  <fix>3d</fix>
</trkpt>
<trkpt lat="33.8106428" lon="-118.3938636">
  <ele>-24.057</ele>
  <time>2026-09-01T01:17:04Z</time>
  <course>27.33</course>
  <speed>0.0316227766016838</speed>
  <fix>3d</fix>
</trkpt>
<trkpt lat="33.8106428" lon="-118.3938636">
  <ele>-24.116</ele>
  <time>2026-09-01T01:17:04Z</time>
  <course>27.34</course>
  <speed>0.0316227766016838</speed>
  <fix>3d</fix>
</trkpt>
<trkpt lat="33.810643" lon="-118.3938638">
  <ele>-23.39</ele>
  <time>2026-09-01T01:17:04Z</time>
  <course>246.62</course>
  <speed>0.0</speed>
  <fix>3d</fix>
</trkpt>
<trkpt lat="33.8106428" lon="-118.3938636">
  <ele>-24.118</ele>
  <time>2026-09-01T01:17:04Z</time>
  <course>27.34</course>
  <speed>0.0316227766016838</speed>
  <fix>3d</fix>
</trkpt>
<trkpt lat="33.8106428" lon="-118.3938636">
  <ele>-24.18</ele>
  <time>2026-09-01T01:17:04Z</time>
  <course>27.35</course>
  <speed>0.0316227766016838</speed>
  <fix>3d</fix>
</trkpt>
<trkpt lat="33.810643" lon="-118.3938638">
  <ele>-23.39</ele>
  <time>2026-09-01T01:17:04Z</time>
  <course>246.62</course>
  <speed>0.0</speed>
  <fix>3d</fix>
</trkpt>
<trkpt lat="33.8106428" lon="-118.3938636">
  <ele>-24.181</ele>
  <time>2026-09-01T01:17:04Z</time>
  <course>27.35</course>
  <speed>0.0316227766016838</speed>
  <fix>3d</fix>
</trkpt>
<trkpt lat="33.8106428" lon="-118.3938636">
  <ele>-24.242</ele>
  <time>2026-09-01T01:17:04Z</time>
  <course>27.35</course>
  <speed>0.0316227766016838</speed>
  <fix>3d</fix>
</trkpt>
<trkpt lat="33.810643" lon="-118.3938638">
  <ele>-23.51</ele>
  <time>2026-09-01T01:17:04Z</time>
  <course>246.68</course>
  <speed>0.0</speed>
  <fix>3d</fix>
</trkpt>
<trkpt lat="33.8106428" lon="-118.3938636">
  <ele>-24.244</ele>
  <time>2026-09-01T01:17:04Z</time>
  <course>27.35</course>
  <speed>0.0316227766016838</speed>
  <fix>3d</fix>
</trkpt>
<trkpt lat="33.8106428" lon="-118.3938636">
  <ele>-24.306</ele>
  <time>2026-09-01T01:17:04Z</time>
  <course>27.36</course>
  <speed>0.0316227766016838</speed>
  <fix>3d</fix>
</trkpt>
<trkpt lat="33.810643" lon="-118.3938638">
  <ele>-23.51</ele>
  <time>2026-09-01T01:17:04Z</time>
  <course>246.68</course>
  <speed>0.0</speed>
  <fix>3d</fix>
</trkpt>
<trkpt lat="33.8106428" lon="-118.3938636">
  <ele>-24.307</ele>
  <time>2026-09-01T01:17:04Z</time>
  <course>27.36</course>
  <speed>0.0316227766016838</speed>
  <fix>3d</fix>
</trkpt>
<trkpt lat="33.8106428" lon="-118.3938636">
  <ele>-24.369</ele>
  <time>2026-09-01T01:17:04Z</time>
  <course>27.37</course>
  <speed>0.0316227766016838</speed>
  <fix>3d</fix>
</trkpt>
<trkpt lat="33.810643" lon="-118.3938638">
  <ele>-23.63</ele>
  <time>2026-09-01T01:17:04Z</time>
  <course>246.67</course>
  <speed>0.0</speed>
  <fix>3d</fix>
</trkpt>
<trkpt lat="33.8106428" lon="-118.3938636">
  <ele>-24.371</ele>
  <time>2026-09-01T01:17:04Z</time>
  <course>27.37</course>
  <speed>0.0316227766016838</speed>
  <fix>3d</fix>
</trkpt>
<trkpt lat="33.8106428" lon="-118.3938636">
  <ele>-24.433</ele>
  <time>2026-09-01T01:17:04Z</time>
  <course>27.38</course>
  <speed>0.0316227766016838</speed>
  <fix>3d</fix>
</trkpt>
<trkpt lat="33.810643" lon="-118.3938638">
  <ele>-23.63</ele>
  <time>2026-09-01T01:17:04Z</time>
  <course>246.67</course>
  <speed>0.0</speed>
  <fix>3d</fix>
</trkpt>
<trkpt lat="33.8106428" lon="-118.3938636">
  <ele>-24.436</ele>
  <time>2026-09-01T01:17:04Z</time>
  <course>27.38</course>
  <speed>0.0316227766016838</speed>
  <fix>3d</fix>
</trkpt>
<trkpt lat="33.8106428" lon="-118.3938636">
  <ele>-24.495</ele>
  <time>2026-09-01T01:17:04Z</time>
  <course>27.39</course>
  <speed>0.0316227766016838</speed>
  <fix>3d</fix>
</trkpt>
<trkpt lat="33.810643" lon="-118.3938638">
  <ele>-23.75</ele>
  <time>2026-09-01T01:17:04Z</time>
  <course>246.6</course>
  <speed>0.0</speed>
  <fix>3d</fix>
</trkpt>
<trkpt lat="33.8106428" lon="-118.3938636">
  <ele>-24.498</ele>
  <time>2026-09-01T01:17:04Z</time>
  <course>27.39</course>
  <speed>0.0316227766016838</speed>
  <fix>3d</fix>
</trkpt>
<trkpt lat="33.8106428" lon="-118.3938636">
  <ele>-24.558</ele>
  <time>2026-09-01T01:17:04Z</time>
  <course>27.39</course>
  <speed>0.0316227766016838</speed>
  <fix>3d</fix>
</trkpt>
<trkpt lat="33.810643" lon="-118.3938638">
  <ele>-23.75</ele>
  <time>2026-09-01T01:17:04Z</time>
  <course>246.6</course>
  <speed>0.0</speed>
  <fix>3d</fix>
</trkpt>
<trkpt lat="33.8106428" lon="-118.3938636">
  <ele>-24.56</ele>
  <time>2026-09-01T01:17:04Z</time>
  <course>27.4</course>
  <speed>0.0316227766016838</speed>
  <fix>3d</fix>
</trkpt>
<trkpt lat="33.8106428" lon="-118.3938636">
  <ele>-24.619</ele>
  <time>2026-09-01T01:17:04Z</time>
  <course>27.4</course>
  <speed>0.0316227766016838</speed>
  <fix>3d</fix>
</trkpt>
<trkpt lat="33.810643" lon="-118.3938638">
  <ele>-23.86</ele>
  <time>2026-09-01T01:17:04Z</time>
  <course>246.52</course>
  <speed>0.0</speed>
  <fix>3d</fix>
</trkpt>
<trkpt lat="33.8106428" lon="-118.3938636">
  <ele>-24.621</ele>
  <time>2026-09-01T01:17:04Z</time>
  <course>27.4</course>
  <speed>0.0316227766016838</speed>
  <fix>3d</fix>
</trkpt>
<trkpt lat="33.8106428" lon="-118.3938636">
  <ele>-24.681</ele>
  <time>2026-09-01T01:17:04Z</time>
  <course>27.41</course>
  <speed>0.0316227766016838</speed>
  <fix>3d</fix>
</trkpt>
<trkpt lat="33.810643" lon="-118.3938638">
  <ele>-23.86</ele>
  <time>2026-09-01T01:17:04Z</time>
  <course>246.52</course>
  <speed>0.0</speed>
  <fix>3d</fix>
</trkpt>
<trkpt lat="33.8106428" lon="-118.3938636">
  <ele>-24.684</ele>
  <time>2026-09-01T01:17:04Z</time>
  <course>27.41</course>
  <speed>0.0316227766016838</speed>
  <fix>3d</fix>
</trkpt>
<trkpt lat="33.8106428" lon="-118.3938636">
  <ele>-24.745</ele>
  <time>2026-09-01T01:17:04Z</time>
  <course>27.42</course>
  <speed>0.0316227766016838</speed>
  <fix>3d</fix>
</trkpt>
<trkpt lat="33.810643" lon="-118.3938638">
  <ele>-23.99</ele>
  <time>2026-09-01T01:17:04Z</time>
  <course>246.48</course>
  <speed>0.0</speed>
  <fix>3d</fix>
</trkpt>
<trkpt lat="33.8106428" lon="-118.3938636">
  <ele>-24.747</ele>
  <time>2026-09-01T01:17:04Z</time>
  <course>27.42</course>
  <speed>0.0316227766016838</speed>
  <fix>3d</fix>
</trkpt>
<trkpt lat="33.8106428" lon="-118.3938636">
  <ele>-24.809</ele>
  <time>2026-09-01T01:17:04Z</time>
  <course>27.43</course>
  <speed>0.0316227766016838</speed>
  <fix>3d</fix>
</trkpt>
<trkpt lat="33.810643" lon="-118.3938638">
  <ele>-23.99</ele>
  <time>2026-09-01T01:17:04Z</time>
  <course>246.48</course>
  <speed>0.0</speed>
  <fix>3d</fix>
</trkpt>
<trkpt lat="33.8106428" lon="-118.3938636">
  <ele>-24.81</ele>
  <time>2026-09-01T01:17:04Z</time>
  <course>27.43</course>
  <speed>0.0316227766016838</speed>
  <fix>3d</fix>
</trkpt>
<trkpt lat="33.8106428" lon="-118.3938636">
  <ele>-24.872</ele>
  <time>2026-09-01T01:17:04Z</time>
  <course>27.44</course>
  <speed>0.0316227766016838</speed>
  <fix>3d</fix>
</trkpt>
<trkpt lat="33.810643" lon="-118.3938638">
  <ele>-24.11</ele>
  <time>2026-09-01T01:17:04Z</time>
  <course>246.52</course>
  <speed>0.0</speed>
  <fix>3d</fix>
</trkpt>
<trkpt lat="33.8106428" lon="-118.3938636">
  <ele>-24.874</ele>
  <time>2026-09-01T01:17:04Z</time>
  <course>27.44</course>
  <speed>0.0316227766016838</speed>
  <fix>3d</fix>
</trkpt>
<trkpt lat="33.8106428" lon="-118.3938636">
  <ele>-24.935</ele>
  <time>2026-09-01T01:17:04Z</time>
  <course>27.44</course>
  <speed>0.0316227766016838</speed>
  <fix>3d</fix>
</trkpt>
<trkpt lat="33.810643" lon="-118.3938638">
  <ele>-24.11</ele>
  <time>2026-09-01T01:17:04Z</time>
  <course>246.52</course>
  <speed>0.0</speed>
  <fix>3d</fix>
</trkpt>
<trkpt lat="33.8106428" lon="-118.3938636">
  <ele>-24.937</ele>
  <time>2026-09-01T01:17:04Z</time>
  <course>27.44</course>
  <speed>0.0316227766016838</speed>
  <fix>3d</fix>
</trkpt>
<trkpt lat="33.8106428" lon="-118.3938636">
  <ele>-24.998</ele>
  <time>2026-09-01T01:17:04Z</time>
  <course>27.45</course>
  <speed>0.0316227766016838</speed>
  <fix>3d</fix>
</trkpt>
<trkpt lat="33.810643" lon="-118.3938638">
  <ele>-24.23</ele>
  <time>2026-09-01T01:17:04Z</time>
  <course>246.6</course>
  <speed>0.0</speed>
  <fix>3d</fix>
</trkpt>
<trkpt lat="33.8106428" lon="-118.3938636">
  <ele>-25.0</ele>
  <time>2026-09-01T01:17:04Z</time>
  <course>27.45</course>
  <speed>0.0316227766016838</speed>
  <fix>3d</fix>
</trkpt>
<trkpt lat="33.8106428" lon="-118.3938636">
  <ele>-25.057</ele>
  <time>2026-09-01T01:17:04Z</time>
  <course>27.46</course>
  <speed>0.0316227766016838</speed>
  <fix>3d</fix>
</trkpt>
<trkpt lat="33.810643" lon="-118.3938638">
  <ele>-24.23</ele>
  <time>2026-09-01T01:17:04Z</time>
  <course>246.6</course>
  <speed>0.0</speed>
  <fix>3d</fix>
</trkpt>
<trkpt lat="33.8106428" lon="-118.3938636">
  <ele>-25.101</ele>
  <time>2026-09-01T01:17:04Z</time>
  <course>27.47</course>
  <speed>0.0316227766016838</speed>
  <fix>3d</fix>
</trkpt>
<trkpt lat="33.810643" lon="-118.3938638">
  <ele>-24.35</ele>
  <time>2026-09-01T01:17:04Z</time>
  <course>246.86</course>
  <speed>0.0</speed>
  <fix>3d</fix>
</trkpt>
<trkpt lat="33.8106428" lon="-118.3938636">
  <ele>-25.133</ele>
  <time>2026-09-01T01:17:04Z</time>
  <course>27.48</course>
  <speed>0.0316227766016838</speed>
  <fix>3d</fix>
</trkpt>
<trkpt lat="33.810643" lon="-118.3938638">
  <ele>-24.35</ele>
  <time>2026-09-01T01:17:04Z</time>
  <course>246.86</course>
  <speed>0.0</speed>
  <fix>3d</fix>
</trkpt>
<trkpt lat="33.8106428" lon="-118.3938636">
  <ele>-25.157</ele>
  <time>2026-09-01T01:17:04Z</time>
  <course>27.48</course>
  <speed>0.0316227766016838</speed>
  <fix>3d</fix>
</trkpt>
<trkpt lat="33.810643" lon="-118.3938638">
  <ele>-24.44</ele>
  <time>2026-09-01T01:17:04Z</time>
  <course>247.5</course>
  <speed>0.0</speed>
  <fix>3d</fix>
</trkpt>
<trkpt lat="33.8106428" lon="-118.3938636">
  <ele>-25.178</ele>
  <time>2026-09-01T01:17:04Z</time>
  <course>27.49</course>
  <speed>0.0316227766016838</speed>
  <fix>3d</fix>
</trkpt>
<trkpt lat="33.810643" lon="-118.3938638">
  <ele>-24.44</ele>
  <time>2026-09-01T01:17:04Z</time>
  <course>247.5</course>
  <speed>0.0</speed>
  <fix>3d</fix>
</trkpt>
<trkpt lat="33.8106428" lon="-118.3938636">
  <ele>-25.194</ele>
  <time>2026-09-01T01:17:04Z</time>
  <course>27.5</course>
  <speed>0.0316227766016838</speed>
  <fix>3d</fix>
</trkpt>
<trkpt lat="33.810643" lon="-118.3938639">
  <ele>-24.5</ele>
  <time>2026-09-01T01:17:04Z</time>
  <course>248.05</course>
  <speed>0.0</speed>
  <fix>3d</fix>
</trkpt>
<trkpt lat="33.8106428" lon="-118.3938636">
  <ele>-25.208</ele>
  <time>2026-09-01T01:17:04Z</time>
  <course>27.51</course>
  <speed>0.0316227766016838</speed>
  <fix>3d</fix>
</trkpt>
<trkpt lat="33.810643" lon="-118.3938639">
  <ele>-24.5</ele>
  <time>2026-09-01T01:17:04Z</time>
  <course>248.05</course>
  <speed>0.0</speed>
  <fix>3d</fix>
</trkpt>
<trkpt lat="33.8106428" lon="-118.3938637">
  <ele>-25.22</ele>
  <time>2026-09-01T01:17:04Z</time>
  <course>27.52</course>
  <speed>0.0316227766016838</speed>
  <fix>3d</fix>
</trkpt>
<trkpt lat="33.810643" lon="-118.3938639">
  <ele>-24.54</ele>
  <time>2026-09-01T01:17:04Z</time>
  <course>248.17</course>
  <speed>0.0</speed>
  <fix>3d</fix>
</trkpt>
<trkpt lat="33.8106428" lon="-118.3938637">
  <ele>-25.228</ele>
  <time>2026-09-01T01:17:04Z</time>
  <course>27.52</course>
  <speed>0.0316227766016838</speed>
  <fix>3d</fix>
</trkpt>
<trkpt lat="33.810643" lon="-118.3938639">
  <ele>-24.54</ele>
  <time>2026-09-01T01:17:04Z</time>
  <course>248.17</course>
  <speed>0.0</speed>
  <fix>3d</fix>
</trkpt>
<trkpt lat="33.8106428" lon="-118.3938637">
  <ele>-25.234</ele>
  <time>2026-09-01T01:17:05Z</time>
  <course>27.53</course>
  <speed>0.0316227766016838</speed>
  <fix>3d</fix>
</trkpt>
<trkpt lat="33.810643" lon="-118.3938639">
  <ele>-24.57</ele>
  <time>2026-09-01T01:17:05Z</time>
  <course>248.09</course>
  <speed>0.0</speed>
  <fix>3d</fix>
</trkpt>
<trkpt lat="33.8106428" lon="-118.3938637">
  <ele>-25.24</ele>
  <time>2026-09-01T01:17:05Z</time>
  <course>27.54</course>
  <speed>0.0316227766016838</speed>
  <fix>3d</fix>
</trkpt>
<trkpt lat="33.810643" lon="-118.3938639">
  <ele>-24.57</ele>
  <time>2026-09-01T01:17:05Z</time>
  <course>248.09</course>
  <speed>0.0</speed>
  <fix>3d</fix>
</trkpt>
<trkpt lat="33.8106428" lon="-118.3938637">
  <ele>-25.243</ele>
  <time>2026-09-01T01:17:05Z</time>
  <course>27.55</course>
  <speed>0.0316227766016838</speed>
  <fix>3d</fix>
</trkpt>
<trkpt lat="33.810643" lon="-118.3938639">
  <ele>-24.6</ele>
  <time>2026-09-01T01:17:05Z</time>
  <course>248.0</course>
  <speed>0.0</speed>
  <fix>3d</fix>
</trkpt>
<trkpt lat="33.8106428" lon="-118.3938637">
  <ele>-25.246</ele>
  <time>2026-09-01T01:17:05Z</time>
  <course>27.56</course>
  <speed>0.0316227766016838</speed>
  <fix>3d</fix>
</trkpt>
<trkpt lat="33.810643" lon="-118.3938639">
  <ele>-24.6</ele>
  <time>2026-09-01T01:17:05Z</time>
  <course>248.0</course>
  <speed>0.0</speed>
  <fix>3d</fix>
</trkpt>
<trkpt lat="33.8106428" lon="-118.3938637">
  <ele>-25.247</ele>
  <time>2026-09-01T01:17:05Z</time>
  <course>27.56</course>
  <speed>0.0316227766016838</speed>
  <fix>3d</fix>
</trkpt>
<trkpt lat="33.810643" lon="-118.3938639">
  <ele>-24.61</ele>
  <time>2026-09-01T01:17:05Z</time>
  <course>247.98</course>
  <speed>0.0</speed>
  <fix>3d</fix>
</trkpt>
<trkpt lat="33.8106428" lon="-118.3938637">
  <ele>-25.248</ele>
  <time>2026-09-01T01:17:05Z</time>
  <course>27.48</course>
  <speed>0.0316227766016838</speed>
  <fix>3d</fix>
</trkpt>
<trkpt lat="33.810643" lon="-118.3938639">
  <ele>-24.61</ele>
  <time>2026-09-01T01:17:05Z</time>
  <course>247.98</course>
  <speed>0.0</speed>
  <fix>3d</fix>
</trkpt>
<trkpt lat="33.8106428" lon="-118.3938637">
  <ele>-25.249</ele>
  <time>2026-09-01T01:17:05Z</time>
  <course>26.7</course>
  <speed>0.0316227766016838</speed>
  <fix>3d</fix>
</trkpt>
<trkpt lat="33.810643" lon="-118.3938639">
  <ele>-24.62</ele>
  <time>2026-09-01T01:17:05Z</time>
  <course>227.41</course>
  <speed>0.0</speed>
  <fix>3d</fix>
</trkpt>
<trkpt lat="33.8106428" lon="-118.3938637">
  <ele>-25.252</ele>
  <time>2026-09-01T01:17:05Z</time>
  <course>25.52</course>
  <speed>0.0316227766016838</speed>
  <fix>3d</fix>
</trkpt>
<trkpt lat="33.810643" lon="-118.3938639">
  <ele>-24.62</ele>
  <time>2026-09-01T01:17:05Z</time>
  <course>227.41</course>
  <speed>0.0</speed>
  <fix>3d</fix>
</trkpt>
<trkpt lat="33.8106428" lon="-118.3938637">
  <ele>-25.256</ele>
  <time>2026-09-01T01:17:05Z</time>
  <course>24.28</course>
  <speed>0.0316227766016838</speed>
  <fix>3d</fix>
</trkpt>
<trkpt lat="33.810643" lon="-118.3938639">
  <ele>-24.63</ele>
  <time>2026-09-01T01:17:05Z</time>
  <course>190.06</course>
  <speed>0.0</speed>
  <fix>3d</fix>
</trkpt>
<trkpt lat="33.8106428" lon="-118.3938637">
  <ele>-25.26</ele>
  <time>2026-09-01T01:17:05Z</time>
  <course>23.24</course>
  <speed>0.0316227766016838</speed>
  <fix>3d</fix>
</trkpt>
<trkpt lat="33.810643" lon="-118.3938639">
  <ele>-24.63</ele>
  <time>2026-09-01T01:17:05Z</time>
  <course>190.06</course>
  <speed>0.0</speed>
  <fix>3d</fix>
</trkpt>
<trkpt lat="33.8106428" lon="-118.3938637">
  <ele>-25.264</ele>
  <time>2026-09-01T01:17:05Z</time>
  <course>22.54</course>
  <speed>0.0316227766016838</speed>
  <fix>3d</fix>
</trkpt>
<trkpt lat="33.8106429" lon="-118.3938639">
  <ele>-24.64</ele>
  <time>2026-09-01T01:17:05Z</time>
  <course>169.05</course>
  <speed>0.0</speed>
  <fix>3d</fix>
</trkpt>
<trkpt lat="33.8106427" lon="-118.3938637">
  <ele>-25.267</ele>
  <time>2026-09-01T01:17:05Z</time>
  <course>22.01</course>
  <speed>0.0316227766016838</speed>
  <fix>3d</fix>
</trkpt>
<trkpt lat="33.8106429" lon="-118.3938639">
  <ele>-24.64</ele>
  <time>2026-09-01T01:17:05Z</time>
  <course>169.05</course>
  <speed>0.0</speed>
  <fix>3d</fix>
</trkpt>
<trkpt lat="33.8106427" lon="-118.3938637">
  <ele>-25.27</ele>
  <time>2026-09-01T01:17:05Z</time>
  <course>21.59</course>
  <speed>0.0316227766016838</speed>
  <fix>3d</fix>
</trkpt>
<trkpt lat="33.8106429" lon="-118.3938639">
  <ele>-24.65</ele>
  <time>2026-09-01T01:17:05Z</time>
  <course>162.95</course>
  <speed>0.0</speed>
  <fix>3d</fix>
</trkpt>
<trkpt lat="33.8106427" lon="-118.3938637">
  <ele>-25.271</ele>
  <time>2026-09-01T01:17:05Z</time>
  <course>21.24</course>
  <speed>0.0316227766016838</speed>
  <fix>3d</fix>
</trkpt>
<trkpt lat="33.8106429" lon="-118.3938639">
  <ele>-24.65</ele>
  <time>2026-09-01T01:17:05Z</time>
  <course>162.95</course>
  <speed>0.0</speed>
  <fix>3d</fix>
</trkpt>
<trkpt lat="33.8106427" lon="-118.3938637">
  <ele>-25.272</ele>
  <time>2026-09-01T01:17:05Z</time>
  <course>20.94</course>
  <speed>0.0316227766016838</speed>
  <fix>3d</fix>
</trkpt>
<trkpt lat="33.8106429" lon="-118.3938639">
  <ele>-24.66</ele>
  <time>2026-09-01T01:17:05Z</time>
  <course>162.9</course>
  <speed>0.0</speed>
  <fix>3d</fix>
</trkpt>
<trkpt lat="33.8106427" lon="-118.3938637">
  <ele>-25.272</ele>
  <time>2026-09-01T01:17:05Z</time>
  <course>20.68</course>
  <speed>0.0316227766016838</speed>
  <fix>3d</fix>
</trkpt>
<trkpt lat="33.8106429" lon="-118.3938639">
  <ele>-24.66</ele>
  <time>2026-09-01T01:17:05Z</time>
  <course>162.9</course>
  <speed>0.0</speed>
  <fix>3d</fix>
</trkpt>
<trkpt lat="33.8106427" lon="-118.3938637">
  <ele>-25.271</ele>
  <time>2026-09-01T01:17:05Z</time>
  <course>20.44</course>
  <speed>0.0316227766016838</speed>
  <fix>3d</fix>
</trkpt>
<trkpt lat="33.8106429" lon="-118.3938639">
  <ele>-24.66</ele>
  <time>2026-09-01T01:17:05Z</time>
  <course>162.87</course>
  <speed>0.0</speed>
  <fix>3d</fix>
</trkpt>
<trkpt lat="33.8106427" lon="-118.3938637">
  <ele>-25.269</ele>
  <time>2026-09-01T01:17:05Z</time>
  <course>20.2</course>
  <speed>0.03605551275463989</speed>
  <fix>3d</fix>
</trkpt>
<trkpt lat="33.8106429" lon="-118.3938639">
  <ele>-24.66</ele>
  <time>2026-09-01T01:17:05Z</time>
  <course>162.87</course>
  <speed>0.0</speed>
  <fix>3d</fix>
</trkpt>
<trkpt lat="33.8106427" lon="-118.3938637">
  <ele>-25.267</ele>
  <time>2026-09-01T01:17:05Z</time>
  <course>19.95</course>
  <speed>0.03605551275463989</speed>
  <fix>3d</fix>
</trkpt>
<trkpt lat="33.8106429" lon="-118.3938639">
  <ele>-24.66</ele>
  <time>2026-09-01T01:17:05Z</time>
  <course>120.19</course>
  <speed>0.0</speed>
  <fix>3d</fix>
</trkpt>
<trkpt lat="33.8106427" lon="-118.3938637">
  <ele>-25.263</ele>
  <time>2026-09-01T01:17:05Z</time>
  <course>19.75</course>
  <speed>0.05</speed>
  <fix>3d</fix>
</trkpt>
<trkpt lat="33.8106429" lon="-118.3938639">
  <ele>-24.66</ele>
  <time>2026-09-01T01:17:05Z</time>
  <course>120.19</course>
  <speed>0.0</speed>
  <fix>3d</fix>
</trkpt>
<trkpt lat="33.8106427" lon="-118.3938637">
  <ele>-25.261</ele>
  <time>2026-09-01T01:17:05Z</time>
  <course>19.66</course>
  <speed>0.07280109889280519</speed>
  <fix>3d</fix>
</trkpt>
<trkpt lat="33.8106429" lon="-118.3938639">
  <ele>-24.65</ele>
  <time>2026-09-01T01:17:05Z</time>
  <course>58.2</course>
  <speed>0.03</speed>
  <fix>3d</fix>
</trkpt>
<trkpt lat="33.8106427" lon="-118.3938636">
  <ele>-25.26</ele>
  <time>2026-09-01T01:17:05Z</time>
  <course>19.65</course>
  <speed>0.10770329614269007</speed>
  <fix>3d</fix>
</trkpt>
<trkpt lat="33.8106429" lon="-118.3938639">
  <ele>-24.65</ele>
  <time>2026-09-01T01:17:05Z</time>
  <course>58.2</course>
  <speed>0.03</speed>
  <fix>3d</fix>
</trkpt>
<trkpt lat="33.8106428" lon="-118.3938635">
  <ele>-25.261</ele>
  <time>2026-09-01T01:17:05Z</time>
  <course>19.68</course>
  <speed>0.16124515496597097</speed>
  <fix>3d</fix>
</trkpt>
<trkpt lat="33.8106429" lon="-118.3938638">
  <ele>-24.65</ele>
  <time>2026-09-01T01:17:05Z</time>
  <course>48.87</course>
  <speed>0.09</speed>
  <fix>3d</fix>
</trkpt>
<trkpt lat="33.8106429" lon="-118.3938633">
  <ele>-25.262</ele>
  <time>2026-09-01T01:17:05Z</time>
  <course>19.71</course>
  <speed>0.20248456731316586</speed>
  <fix>3d</fix>
</trkpt>
<trkpt lat="33.8106429" lon="-118.3938638">
  <ele>-24.65</ele>
  <time>2026-09-01T01:17:05Z</time>
  <course>48.87</course>
  <speed>0.09</speed>
  <fix>3d</fix>
</trkpt>
<trkpt lat="33.810643" lon="-118.3938631">
  <ele>-25.264</ele>
  <time>2026-09-01T01:17:05Z</time>
  <course>19.73</course>
  <speed>0.2720294101747089</speed>
  <fix>3d</fix>
</trkpt>
<trkpt lat="33.810643" lon="-118.3938636">
  <ele>-24.65</ele>
  <time>2026-09-01T01:17:05Z</time>
  <course>46.74</course>
  <speed>0.18</speed>
  <fix>3d</fix>
</trkpt>
<trkpt lat="33.8106432" lon="-118.3938629">
  <ele>-25.264</ele>
  <time>2026-09-01T01:17:05Z</time>
  <course>19.73</course>
  <speed>0.3280243893371345</speed>
  <fix>3d</fix>
</trkpt>
<trkpt lat="33.810643" lon="-118.3938636">
  <ele>-24.65</ele>
  <time>2026-09-01T01:17:05Z</time>
  <course>46.74</course>
  <speed>0.18</speed>
  <fix>3d</fix>
</trkpt>
<trkpt lat="33.8106434" lon="-118.3938626">
  <ele>-25.265</ele>
  <time>2026-09-01T01:17:05Z</time>
  <course>19.72</course>
  <speed>0.3920459156782532</speed>
  <fix>3d</fix>
</trkpt>
<trkpt lat="33.8106433" lon="-118.3938632">
  <ele>-24.65</ele>
  <time>2026-09-01T01:17:05Z</time>
  <course>45.91</course>
  <speed>0.3</speed>
  <fix>3d</fix>
</trkpt>
<trkpt lat="33.8106437" lon="-118.3938623">
  <ele>-25.263</ele>
  <time>2026-09-01T01:17:05Z</time>
  <course>19.7</course>
  <speed>0.45453272709454046</speed>
  <fix>3d</fix>
</trkpt>
<trkpt lat="33.8106433" lon="-118.3938632">
  <ele>-24.65</ele>
  <time>2026-09-01T01:17:05Z</time>
  <course>45.91</course>
  <speed>0.3</speed>
  <fix>3d</fix>
</trkpt>
<trkpt lat="33.810644" lon="-118.3938619">
  <ele>-25.26</ele>
  <time>2026-09-01T01:17:05Z</time>
  <course>19.69</course>
  <speed>0.518555686498567</speed>
  <fix>3d</fix>
</trkpt>
<trkpt lat="33.8106437" lon="-118.3938627">
  <ele>-24.65</ele>
  <time>2026-09-01T01:17:05Z</time>
  <course>45.52</course>
  <speed>0.42</speed>
  <fix>3d</fix>
</trkpt>
<trkpt lat="33.8106443" lon="-118.3938615">
  <ele>-25.258</ele>
  <time>2026-09-01T01:17:05Z</time>
  <course>19.67</course>
  <speed>0.5608029957123981</speed>
  <fix>3d</fix>
</trkpt>
<trkpt lat="33.8106437" lon="-118.3938627">
  <ele>-24.65</ele>
  <time>2026-09-01T01:17:05Z</time>
  <course>45.52</course>
  <speed>0.42</speed>
  <fix>3d</fix>
</trkpt>
<trkpt lat="33.8106447" lon="-118.393861">
  <ele>-25.257</ele>
  <time>2026-09-01T01:17:05Z</time>
  <course>19.67</course>
  <speed>0.6171709649683789</speed>
  <fix>3d</fix>
</trkpt>
<trkpt lat="33.8106444" lon="-118.3938619">
  <ele>-24.65</ele>
  <time>2026-09-01T01:17:05Z</time>
  <course>45.34</course>
  <speed>0.54</speed>
  <fix>3d</fix>
</trkpt>
<trkpt lat="33.8106451" lon="-118.3938605">
  <ele>-25.256</ele>
  <time>2026-09-01T01:17:05Z</time>
  <course>19.65</course>
  <speed>0.6453681120105021</speed>
  <fix>3d</fix>
</trkpt>
<trkpt lat="33.8106444" lon="-118.3938619">
  <ele>-24.65</ele>
  <time>2026-09-01T01:17:05Z</time>
  <course>45.34</course>
  <speed>0.54</speed>
  <fix>3d</fix>
</trkpt>
<trkpt lat="33.8106455" lon="-118.39386">
  <ele>-25.256</ele>
  <time>2026-09-01T01:17:05Z</time>
  <course>19.65</course>
  <speed>0.6876772498781678</speed>
  <fix>3d</fix>
</trkpt>
<trkpt lat="33.8106451" lon="-118.3938609">
  <ele>-24.65</ele>
  <time>2026-09-01T01:17:05Z</time>
  <course>45.31</course>
  <speed>0.64</speed>
  <fix>3d</fix>
</trkpt>
<trkpt lat="33.8106459" lon="-118.3938594">
  <ele>-25.256</ele>
  <time>2026-09-01T01:17:05Z</time>
  <course>19.64</course>
  <speed>0.7158910531638176</speed>
  <fix>3d</fix>
</trkpt>
<trkpt lat="33.8106451" lon="-118.3938609">
  <ele>-24.65</ele>
  <time>2026-09-01T01:17:05Z</time>
  <course>45.31</course>
  <speed>0.64</speed>
  <fix>3d</fix>
</trkpt>
<trkpt lat="33.8106464" lon="-118.3938589">
  <ele>-25.255</ele>
  <time>2026-09-01T01:17:05Z</time>
  <course>19.65</course>
  <speed>0.7366138744281159</speed>
  <fix>3d</fix>
</trkpt>
<trkpt lat="33.810646" lon="-118.3938599">
  <ele>-24.64</ele>
  <time>2026-09-01T01:17:05Z</time>
  <course>45.31</course>
  <speed>0.71</speed>
  <fix>3d</fix>
</trkpt>
<trkpt lat="33.8106469" lon="-118.3938583">
  <ele>-25.252</ele>
  <time>2026-09-01T01:17:05Z</time>
  <course>19.64</course>
  <speed>0.7582216034906945</speed>
  <fix>3d</fix>
</trkpt>
<trkpt lat="33.810646" lon="-118.3938599">
  <ele>-24.64</ele>
  <time>2026-09-01T01:17:05Z</time>
  <course>45.31</course>
  <speed>0.71</speed>
  <fix>3d</fix>
</trkpt>
<trkpt lat="33.8106473" lon="-118.3938577">
  <ele>-25.249</ele>
  <time>2026-09-01T01:17:05Z</time>
  <course>19.64</course>
  <speed>0.772334124585985</speed>
  <fix>3d</fix>
</trkpt>
<trkpt lat="33.810647" lon="-118.3938588">
  <ele>-24.64</ele>
  <time>2026-09-01T01:17:05Z</time>
  <course>45.31</course>
  <speed>0.76</speed>
  <fix>3d</fix>
</trkpt>
<trkpt lat="33.8106478" lon="-118.3938571">
  <ele>-25.246</ele>
  <time>2026-09-01T01:17:05Z</time>
  <course>19.63</course>
  <speed>0.772334124585985</speed>
  <fix>3d</fix>
</trkpt>
<trkpt lat="33.810647" lon="-118.3938588">
  <ele>-24.64</ele>
  <time>2026-09-01T01:17:05Z</time>
  <course>45.31</course>
  <speed>0.76</speed>
  <fix>3d</fix>
</trkpt>
<trkpt lat="33.8106483" lon="-118.3938565">
  <ele>-25.244</ele>
  <time>2026-09-01T01:17:05Z</time>
  <course>19.64</course>
  <speed>0.7789736837660179</speed>
  <fix>3d</fix>
</trkpt>
<trkpt lat="33.810648" lon="-118.3938576">
  <ele>-24.64</ele>
  <time>2026-09-01T01:17:05Z</time>
  <course>45.37</course>
  <speed>0.8</speed>
  <fix>3d</fix>
</trkpt>
<trkpt lat="33.8106489" lon="-118.3938559">
  <ele>-25.243</ele>
  <time>2026-09-01T01:17:05Z</time>
  <course>19.65</course>
  <speed>0.7789736837660179</speed>
  <fix>3d</fix>
</trkpt>
<trkpt lat="33.810648" lon="-118.3938576">
  <ele>-24.64</ele>
  <time>2026-09-01T01:17:05Z</time>
  <course>45.37</course>
  <speed>0.8</speed>
  <fix>3d</fix>
</trkpt>
<trkpt lat="33.8106494" lon="-118.3938553">
  <ele>-25.241</ele>
  <time>2026-09-01T01:17:05Z</time>
  <course>19.66</course>
  <speed>0.7864477096412705</speed>
  <fix>3d</fix>
</trkpt>
<trkpt lat="33.810649" lon="-118.3938563">
  <ele>-24.63</ele>
  <time>2026-09-01T01:17:05Z</time>
  <course>45.49</course>
  <speed>0.81</speed>
  <fix>3d</fix>
</trkpt>
<trkpt lat="33.8106499" lon="-118.3938547">
  <ele>-25.24</ele>
  <time>2026-09-01T01:17:05Z</time>
  <course>19.67</course>
  <speed>0.7864477096412705</speed>
  <fix>3d</fix>
</trkpt>
<trkpt lat="33.810649" lon="-118.3938563">
  <ele>-24.63</ele>
  <time>2026-09-01T01:17:05Z</time>
  <course>45.49</course>
  <speed>0.81</speed>
  <fix>3d</fix>
</trkpt>
<trkpt lat="33.8106504" lon="-118.393854">
  <ele>-25.24</ele>
  <time>2026-09-01T01:17:05Z</time>
  <course>19.69</course>
  <speed>0.7930952023559341</speed>
  <fix>3d</fix>
</trkpt>
<trkpt lat="33.8106499" lon="-118.3938551">
  <ele>-24.63</ele>
  <time>2026-09-01T01:17:05Z</time>
  <course>45.59</course>
  <speed>0.81</speed>
  <fix>3d</fix>
</trkpt>
<trkpt lat="33.8106509" lon="-118.3938534">
  <ele>-25.239</ele>
  <time>2026-09-01T01:17:05Z</time>
  <course>19.7</course>
  <speed>0.7930952023559341</speed>
  <fix>3d</fix>
</trkpt>
<trkpt lat="33.8106499" lon="-118.3938551">
  <ele>-24.63</ele>
  <time>2026-09-01T01:17:05Z</time>
  <course>45.59</course>
  <speed>0.81</speed>
  <fix>3d</fix>
</trkpt>
<trkpt lat="33.8106514" lon="-118.3938528">
  <ele>-25.239</ele>
  <time>2026-09-01T01:17:05Z</time>
  <course>19.71</course>
  <speed>0.7930952023559341</speed>
  <fix>3d</fix>
</trkpt>
<trkpt lat="33.810651" lon="-118.3938538">
  <ele>-24.63</ele>
  <time>2026-09-01T01:17:05Z</time>
  <course>45.59</course>
  <speed>0.82</speed>
  <fix>3d</fix>
</trkpt>
<trkpt lat="33.8106519" lon="-118.3938522">
  <ele>-25.239</ele>
  <time>2026-09-01T01:17:05Z</time>
  <course>19.71</course>
  <speed>0.7930952023559341</speed>
  <fix>3d</fix>
</trkpt>
<trkpt lat="33.810651" lon="-118.3938538">
  <ele>-24.63</ele>
  <time>2026-09-01T01:17:05Z</time>
  <course>45.59</course>
  <speed>0.82</speed>
  <fix>3d</fix>
</trkpt>
<trkpt lat="33.8106525" lon="-118.3938515">
  <ele>-25.238</ele>
  <time>2026-09-01T01:17:05Z</time>
  <course>19.71</course>
  <speed>0.7998124780221925</speed>
  <fix>3d</fix>
</trkpt>
<trkpt lat="33.8106521" lon="-118.3938525">
  <ele>-24.63</ele>
  <time>2026-09-01T01:17:05Z</time>
  <course>45.51</course>
  <speed>0.82</speed>
  <fix>3d</fix>
</trkpt>
<trkpt lat="33.810653" lon="-118.3938509">
  <ele>-25.236</ele>
  <time>2026-09-01T01:17:05Z</time>
  <course>19.72</course>
  <speed>0.7930952023559341</speed>
  <fix>3d</fix>
</trkpt>
<trkpt lat="33.8106521" lon="-118.3938525">
  <ele>-24.63</ele>
  <time>2026-09-01T01:17:05Z</time>
  <course>45.51</course>
  <speed>0.82</speed>
  <fix>3d</fix>
</trkpt>
<trkpt lat="33.8106535" lon="-118.3938503">
  <ele>-25.233</ele>
  <time>2026-09-01T01:17:05Z</time>
  <course>19.73</course>
  <speed>0.7998124780221925</speed>
  <fix>3d</fix>
</trkpt>
<trkpt lat="33.8106531" lon="-118.3938512">
  <ele>-24.62</ele>
  <time>2026-09-01T01:17:05Z</time>
  <course>45.41</course>
  <speed>0.82</speed>
  <fix>3d</fix>
</trkpt>
<trkpt lat="33.810654" lon="-118.3938496">
  <ele>-25.229</ele>
  <time>2026-09-01T01:17:05Z</time>
  <course>19.74</course>
  <speed>0.7856844150166147</speed>
  <fix>3d</fix>
</trkpt>
<trkpt lat="33.8106531" lon="-118.3938512">
  <ele>-24.62</ele>
  <time>2026-09-01T01:17:05Z</time>
  <course>45.41</course>
  <speed>0.82</speed>
  <fix>3d</fix>
</trkpt>
<trkpt lat="33.8106545" lon="-118.393849">
  <ele>-25.225</ele>
  <time>2026-09-01T01:17:05Z</time>
  <course>19.75</course>
  <speed>0.792464510246358</speed>
  <fix>3d</fix>
</trkpt>
<trkpt lat="33.8106542" lon="-118.3938499">
  <ele>-24.62</ele>
  <time>2026-09-01T01:17:05Z</time>
  <course>45.3</course>
  <speed>0.82</speed>
  <fix>3d</fix>
</trkpt>
<trkpt lat="33.8106551" lon="-118.3938484">
  <ele>-25.222</ele>
  <time>2026-09-01T01:17:05Z</time>
  <course>19.75</course>
  <speed>0.7856844150166147</speed>
  <fix>3d</fix>
</trkpt>
<trkpt lat="33.8106542" lon="-118.3938499">
  <ele>-24.62</ele>
  <time>2026-09-01T01:17:05Z</time>
  <course>45.3</course>
  <speed>0.82</speed>
  <fix>3d</fix>
</trkpt>
<trkpt lat="33.8106556" lon="-118.3938478">
  <ele>-25.221</ele>
  <time>2026-09-01T01:17:05Z</time>
  <course>19.75</course>
  <speed>0.7856844150166147</speed>
  <fix>3d</fix>
</trkpt>
<trkpt lat="33.8106552" lon="-118.3938487">
  <ele>-24.62</ele>
  <time>2026-09-01T01:17:05Z</time>
  <course>45.17</course>
  <speed>0.82</speed>
  <fix>3d</fix>
</trkpt>
<trkpt lat="33.8106561" lon="-118.3938471">
  <ele>-25.222</ele>
  <time>2026-09-01T01:17:05Z</time>
  <course>19.76</course>
  <speed>0.7856844150166147</speed>
  <fix>3d</fix>
</trkpt>
<trkpt lat="33.8106552" lon="-118.3938487">
  <ele>-24.62</ele>
  <time>2026-09-01T01:17:05Z</time>
  <course>45.17</course>
  <speed>0.82</speed>
  <fix>3d</fix>
</trkpt>
<trkpt lat="33.8106566" lon="-118.3938465">
  <ele>-25.224</ele>
  <time>2026-09-01T01:17:05Z</time>
  <course>19.76</course>
  <speed>0.7783315488916018</speed>
  <fix>3d</fix>
</trkpt>
<trkpt lat="33.8106563" lon="-118.3938475">
  <ele>-24.62</ele>
  <time>2026-09-01T01:17:05Z</time>
  <course>45.05</course>
  <speed>0.81</speed>
  <fix>3d</fix>
</trkpt>
<trkpt lat="33.8106571" lon="-118.3938459">
  <ele>-25.225</ele>
  <time>2026-09-01T01:17:05Z</time>
  <course>19.77</course>
  <speed>0.7783315488916018</speed>
  <fix>3d</fix>
</trkpt>
<trkpt lat="33.8106563" lon="-118.3938475">
  <ele>-24.62</ele>
  <time>2026-09-01T01:17:05Z</time>
  <course>45.05</course>
  <speed>0.81</speed>
  <fix>3d</fix>
</trkpt>
<trkpt lat="33.8106577" lon="-118.3938453">
  <ele>-25.225</ele>
  <time>2026-09-01T01:17:05Z</time>
  <course>19.78</course>
  <speed>0.7783315488916018</speed>
  <fix>3d</fix>
</trkpt>
<trkpt lat="33.8106573" lon="-118.3938462">
  <ele>-24.61</ele>
  <time>2026-09-01T01:17:05Z</time>
  <course>44.99</course>
  <speed>0.81</speed>
  <fix>3d</fix>
</trkpt>
<trkpt lat="33.8106582" lon="-118.3938447">
  <ele>-25.224</ele>
  <time>2026-09-01T01:17:05Z</time>
  <course>19.78</course>
  <speed>0.7783315488916018</speed>
  <fix>3d</fix>
</trkpt>
<trkpt lat="33.8106573" lon="-118.3938462">
  <ele>-24.61</ele>
  <time>2026-09-01T01:17:05Z</time>
  <course>44.99</course>
  <speed>0.81</speed>
  <fix>3d</fix>
</trkpt>
<trkpt lat="33.8106587" lon="-118.3938441">
  <ele>-25.223</ele>
  <time>2026-09-01T01:17:05Z</time>
  <course>19.79</course>
  <speed>0.7783315488916018</speed>
  <fix>3d</fix>
</trkpt>
<trkpt lat="33.8106583" lon="-118.393845">
  <ele>-24.61</ele>
  <time>2026-09-01T01:17:05Z</time>
  <course>44.96</course>
  <speed>0.8</speed>
  <fix>3d</fix>
</trkpt>
<trkpt lat="33.8106592" lon="-118.3938434">
  <ele>-25.221</ele>
  <time>2026-09-01T01:17:05Z</time>
  <course>19.79</course>
  <speed>0.7783315488916018</speed>
  <fix>3d</fix>
</trkpt>
<trkpt lat="33.8106583" lon="-118.393845">
  <ele>-24.61</ele>
  <time>2026-09-01T01:17:05Z</time>
  <course>44.96</course>
  <speed>0.8</speed>
  <fix>3d</fix>
</trkpt>
<trkpt lat="33.8106597" lon="-118.3938428">
  <ele>-25.219</ele>
  <time>2026-09-01T01:17:05Z</time>
  <course>19.8</course>
  <speed>0.7783315488916018</speed>
  <fix>3d</fix>
</trkpt>
<trkpt lat="33.8106594" lon="-118.3938437">
  <ele>-24.61</ele>
  <time>2026-09-01T01:17:05Z</time>
  <course>44.91</course>
  <speed>0.8</speed>
  <fix>3d</fix>
</trkpt>
<trkpt lat="33.8106602" lon="-118.3938422">
  <ele>-25.216</ele>
  <time>2026-09-01T01:17:05Z</time>
  <course>19.81</course>
  <speed>0.7783315488916018</speed>
  <fix>3d</fix>
</trkpt>
<trkpt lat="33.8106594" lon="-118.3938437">
  <ele>-24.61</ele>
  <time>2026-09-01T01:17:05Z</time>
  <course>44.91</course>
  <speed>0.8</speed>
  <fix>3d</fix>
</trkpt>
<trkpt lat="33.8106608" lon="-118.3938416">
  <ele>-25.213</ele>
  <time>2026-09-01T01:17:05Z</time>
  <course>19.81</course>
  <speed>0.7783315488916018</speed>
  <fix>3d</fix>
</trkpt>
<trkpt lat="33.8106604" lon="-118.3938425">
  <ele>-24.6</ele>
  <time>2026-09-01T01:17:05Z</time>
  <course>44.85</course>
  <speed>0.8</speed>
  <fix>3d</fix>
</trkpt>
<trkpt lat="33.8106613" lon="-118.393841">
  <ele>-25.211</ele>
  <time>2026-09-01T01:17:05Z</time>
  <course>19.81</course>
  <speed>0.7783315488916018</speed>
  <fix>3d</fix>
</trkpt>
<trkpt lat="33.8106604" lon="-118.3938425">
  <ele>-24.6</ele>
  <time>2026-09-01T01:17:05Z</time>
  <course>44.85</course>
  <speed>0.8</speed>
  <fix>3d</fix>
</trkpt>
<trkpt lat="33.8106618" lon="-118.3938404">
  <ele>-25.208</ele>
  <time>2026-09-01T01:17:05Z</time>
  <course>19.82</course>
  <speed>0.7783315488916018</speed>
  <fix>3d</fix>
</trkpt>
<trkpt lat="33.8106614" lon="-118.3938413">
  <ele>-24.59</ele>
  <time>2026-09-01T01:17:05Z</time>
  <course>44.8</course>
  <speed>0.79</speed>
  <fix>3d</fix>
</trkpt>
<trkpt lat="33.8106623" lon="-118.3938398">
  <ele>-25.205</ele>
  <time>2026-09-01T01:17:05Z</time>
  <course>19.82</course>
  <speed>0.7783315488916018</speed>
  <fix>3d</fix>
</trkpt>
<trkpt lat="33.8106614" lon="-118.3938413">
  <ele>-24.59</ele>
  <time>2026-09-01T01:17:05Z</time>
  <course>44.8</course>
  <speed>0.79</speed>
  <fix>3d</fix>
</trkpt>
<trkpt lat="33.8106628" lon="-118.3938392">
  <ele>-25.201</ele>
  <time>2026-09-01T01:17:05Z</time>
  <course>19.83</course>
  <speed>0.7783315488916018</speed>
  <fix>3d</fix>
</trkpt>
<trkpt lat="33.8106624" lon="-118.3938401">
  <ele>-24.59</ele>
  <time>2026-09-01T01:17:05Z</time>
  <course>44.76</course>
  <speed>0.79</speed>
  <fix>3d</fix>
</trkpt>
<trkpt lat="33.8106633" lon="-118.3938385">
  <ele>-25.198</ele>
  <time>2026-09-01T01:17:05Z</time>
  <course>19.83</course>
  <speed>0.7783315488916018</speed>
  <fix>3d</fix>
</trkpt>
<trkpt lat="33.8106624" lon="-118.3938401">
  <ele>-24.59</ele>
  <time>2026-09-01T01:17:05Z</time>
  <course>44.76</course>
  <speed>0.79</speed>
  <fix>3d</fix>
</trkpt>
<trkpt lat="33.8106638" lon="-118.3938379">
  <ele>-25.197</ele>
  <time>2026-09-01T01:17:05Z</time>
  <course>19.84</course>
  <speed>0.7783315488916018</speed>
  <fix>3d</fix>
</trkpt>
<trkpt lat="33.8106633" lon="-118.3938389">
  <ele>-24.59</ele>
  <time>2026-09-01T01:17:05Z</time>
  <course>44.72</course>
  <speed>0.79</speed>
  <fix>3d</fix>
</trkpt>
<trkpt lat="33.8106643" lon="-118.3938373">
  <ele>-25.196</ele>
  <time>2026-09-01T01:17:05Z</time>
  <course>19.84</course>
  <speed>0.7783315488916018</speed>
  <fix>3d</fix>
</trkpt>
<trkpt lat="33.8106633" lon="-118.3938389">
  <ele>-24.59</ele>
  <time>2026-09-01T01:17:05Z</time>
  <course>44.72</course>
  <speed>0.79</speed>
  <fix>3d</fix>
</trkpt>
<trkpt lat="33.8106648" lon="-118.3938367">
  <ele>-25.196</ele>
  <time>2026-09-01T01:17:05Z</time>
  <course>19.85</course>
  <speed>0.7783315488916018</speed>
  <fix>3d</fix>
</trkpt>
<trkpt lat="33.8106644" lon="-118.3938377">
  <ele>-24.58</ele>
  <time>2026-09-01T01:17:05Z</time>
  <course>44.65</course>
  <speed>0.79</speed>
  <fix>3d</fix>
</trkpt>
<trkpt lat="33.8106653" lon="-118.3938361">
  <ele>-25.194</ele>
  <time>2026-09-01T01:17:05Z</time>
  <course>19.86</course>
  <speed>0.7783315488916018</speed>
  <fix>3d</fix>
</trkpt>
<trkpt lat="33.8106644" lon="-118.3938377">
  <ele>-24.58</ele>
  <time>2026-09-01T01:17:05Z</time>
  <course>44.65</course>
  <speed>0.79</speed>
  <fix>3d</fix>
</trkpt>
<trkpt lat="33.8106659" lon="-118.3938355">
  <ele>-25.193</ele>
  <time>2026-09-01T01:17:05Z</time>
  <course>19.86</course>
  <speed>0.7783315488916018</speed>
  <fix>3d</fix>
</trkpt>
<trkpt lat="33.8106655" lon="-118.3938365">
  <ele>-24.58</ele>
  <time>2026-09-01T01:17:05Z</time>
  <course>44.58</course>
  <speed>0.79</speed>
  <fix>3d</fix>
</trkpt>
<trkpt lat="33.8106664" lon="-118.3938349">
  <ele>-25.192</ele>
  <time>2026-09-01T01:17:05Z</time>
  <course>19.87</course>
  <speed>0.7783315488916018</speed>
  <fix>3d</fix>
</trkpt>
<trkpt lat="33.8106655" lon="-118.3938365">
  <ele>-24.58</ele>
  <time>2026-09-01T01:17:05Z</time>
  <course>44.58</course>
  <speed>0.79</speed>
  <fix>3d</fix>
</trkpt>
<trkpt lat="33.8106669" lon="-118.3938343">
  <ele>-25.192</ele>
  <time>2026-09-01T01:17:05Z</time>
  <course>19.87</course>
  <speed>0.7783315488916018</speed>
  <fix>3d</fix>
</trkpt>
<trkpt lat="33.8106664" lon="-118.3938353">
  <ele>-24.58</ele>
  <time>2026-09-01T01:17:05Z</time>
  <course>44.58</course>
  <speed>0.79</speed>
  <fix>3d</fix>
</trkpt>
<trkpt lat="33.8106674" lon="-118.3938337">
  <ele>-25.191</ele>
  <time>2026-09-01T01:17:05Z</time>
  <course>19.87</course>
  <speed>0.7783315488916018</speed>
  <fix>3d</fix>
</trkpt>
<trkpt lat="33.8106664" lon="-118.3938353">
  <ele>-24.58</ele>
  <time>2026-09-01T01:17:05Z</time>
  <course>44.58</course>
  <speed>0.79</speed>
  <fix>3d</fix>
</trkpt>
<trkpt lat="33.8106679" lon="-118.3938331">
  <ele>-25.189</ele>
  <time>2026-09-01T01:17:05Z</time>
  <course>19.87</course>
  <speed>0.7783315488916018</speed>
  <fix>3d</fix>
</trkpt>
<trkpt lat="33.8106674" lon="-118.393834">
  <ele>-24.58</ele>
  <time>2026-09-01T01:17:05Z</time>
  <course>44.62</course>
  <speed>0.79</speed>
  <fix>3d</fix>
</trkpt>
<trkpt lat="33.8106684" lon="-118.3938325">
  <ele>-25.187</ele>
  <time>2026-09-01T01:17:05Z</time>
  <course>19.87</course>
  <speed>0.785175139698144</speed>
  <fix>3d</fix>
</trkpt>
<trkpt lat="33.8106674" lon="-118.393834">
  <ele>-24.58</ele>
  <time>2026-09-01T01:17:05Z</time>
  <course>44.62</course>
  <speed>0.79</speed>
  <fix>3d</fix>
</trkpt>
<trkpt lat="33.8106689" lon="-118.3938319">
  <ele>-25.185</ele>
  <time>2026-09-01T01:17:05Z</time>
  <course>19.87</course>
  <speed>0.785175139698144</speed>
  <fix>3d</fix>
</trkpt>
<trkpt lat="33.8106685" lon="-118.3938327">
  <ele>-24.58</ele>
  <time>2026-09-01T01:17:05Z</time>
  <course>44.59</course>
  <speed>0.8</speed>
  <fix>3d</fix>
</trkpt>
<trkpt lat="33.8106694" lon="-118.3938312">
  <ele>-25.184</ele>
  <time>2026-09-01T01:17:05Z</time>
  <course>19.87</course>
  <speed>0.785175139698144</speed>
  <fix>3d</fix>
</trkpt>
<trkpt lat="33.8106685" lon="-118.3938327">
  <ele>-24.58</ele>
  <time>2026-09-01T01:17:05Z</time>
  <course>44.59</course>
  <speed>0.8</speed>
  <fix>3d</fix>
</trkpt>
<trkpt lat="33.8106699" lon="-118.3938306">
  <ele>-25.184</ele>
  <time>2026-09-01T01:17:05Z</time>
  <course>19.87</course>
  <speed>0.785175139698144</speed>
  <fix>3d</fix>
</trkpt>
<trkpt lat="33.8106696" lon="-118.3938316">
  <ele>-24.58</ele>
  <time>2026-09-01T01:17:05Z</time>
  <course>44.49</course>
  <speed>0.8</speed>
  <fix>3d</fix>
</trkpt>
<trkpt lat="33.8106705" lon="-118.39383">
  <ele>-25.184</ele>
  <time>2026-09-01T01:17:05Z</time>
  <course>19.88</course>
  <speed>0.785175139698144</speed>
  <fix>3d</fix>
</trkpt>
<trkpt lat="33.8106696" lon="-118.3938316">
  <ele>-24.58</ele>
  <time>2026-09-01T01:17:05Z</time>
  <course>44.49</course>
  <speed>0.8</speed>
  <fix>3d</fix>
</trkpt>
<trkpt lat="33.810671" lon="-118.3938294">
  <ele>-25.184</ele>
  <time>2026-09-01T01:17:05Z</time>
  <course>19.88</course>
  <speed>0.785175139698144</speed>
  <fix>3d</fix>
</trkpt>
<trkpt lat="33.8106705" lon="-118.3938303">
  <ele>-24.58</ele>
  <time>2026-09-01T01:17:05Z</time>
  <course>44.45</course>
  <speed>0.8</speed>
  <fix>3d</fix>
</trkpt>
<trkpt lat="33.8106715" lon="-118.3938288">
  <ele>-25.184</ele>
  <time>2026-09-01T01:17:05Z</time>
  <course>19.88</course>
  <speed>0.785175139698144</speed>
  <fix>3d</fix>
</trkpt>
<trkpt lat="33.8106705" lon="-118.3938303">
  <ele>-24.58</ele>
  <time>2026-09-01T01:17:05Z</time>
  <course>44.45</course>
  <speed>0.8</speed>
  <fix>3d</fix>
</trkpt>
<trkpt lat="33.810672" lon="-118.3938282">
  <ele>-25.184</ele>
  <time>2026-09-01T01:17:05Z</time>
  <course>19.88</course>
  <speed>0.792464510246358</speed>
  <fix>3d</fix>
</trkpt>
<trkpt lat="33.8106716" lon="-118.3938292">
  <ele>-24.58</ele>
  <time>2026-09-01T01:17:05Z</time>
  <course>44.45</course>
  <speed>0.8</speed>
  <fix>3d</fix>
</trkpt>
<trkpt lat="33.8106725" lon="-118.3938275">
  <ele>-25.183</ele>
  <time>2026-09-01T01:17:05Z</time>
  <course>19.89</course>
  <speed>0.792464510246358</speed>
  <fix>3d</fix>
</trkpt>
<trkpt lat="33.8106716" lon="-118.3938292">
  <ele>-24.58</ele>
  <time>2026-09-01T01:17:05Z</time>
  <course>44.45</course>
  <speed>0.8</speed>
  <fix>3d</fix>
</trkpt>
<trkpt lat="33.8106731" lon="-118.3938269">
  <ele>-25.182</ele>
  <time>2026-09-01T01:17:05Z</time>
  <course>19.89</course>
  <speed>0.792464510246358</speed>
  <fix>3d</fix>
</trkpt>
<trkpt lat="33.8106726" lon="-118.3938279">
  <ele>-24.58</ele>
  <time>2026-09-01T01:17:05Z</time>
  <course>44.45</course>
  <speed>0.8</speed>
  <fix>3d</fix>
</trkpt>
<trkpt lat="33.8106736" lon="-118.3938263">
  <ele>-25.181</ele>
  <time>2026-09-01T01:17:05Z</time>
  <course>19.89</course>
  <speed>0.792464510246358</speed>
  <fix>3d</fix>
</trkpt>
<trkpt lat="33.8106726" lon="-118.3938279">
  <ele>-24.58</ele>
  <time>2026-09-01T01:17:05Z</time>
  <course>44.45</course>
  <speed>0.8</speed>
  <fix>3d</fix>
</trkpt>
<trkpt lat="33.8106741" lon="-118.3938257">
  <ele>-25.179</ele>
  <time>2026-09-01T01:17:05Z</time>
  <course>19.89</course>
  <speed>0.792464510246358</speed>
  <fix>3d</fix>
</trkpt>
<trkpt lat="33.8106736" lon="-118.3938267">
  <ele>-24.57</ele>
  <time>2026-09-01T01:17:05Z</time>
  <course>44.5</course>
  <speed>0.8</speed>
  <fix>3d</fix>
</trkpt>
<trkpt lat="33.8106746" lon="-118.3938251">
  <ele>-25.178</ele>
  <time>2026-09-01T01:17:05Z</time>
  <course>19.9</course>
  <speed>0.7993122043357026</speed>
  <fix>3d</fix>
</trkpt>
<trkpt lat="33.8106736" lon="-118.3938267">
  <ele>-24.57</ele>
  <time>2026-09-01T01:17:05Z</time>
  <course>44.5</course>
  <speed>0.8</speed>
  <fix>3d</fix>
</trkpt>
<trkpt lat="33.8106751" lon="-118.3938245">
  <ele>-25.176</ele>
  <time>2026-09-01T01:17:05Z</time>
  <course>19.9</course>
  <speed>0.7993122043357026</speed>
  <fix>3d</fix>
</trkpt>
<trkpt lat="33.8106747" lon="-118.3938255">
  <ele>-24.57</ele>
  <time>2026-09-01T01:17:05Z</time>
  <course>44.52</course>
  <speed>0.81</speed>
  <fix>3d</fix>
</trkpt>
<trkpt lat="33.8106757" lon="-118.3938238">
  <ele>-25.173</ele>
  <time>2026-09-01T01:17:05Z</time>
  <course>19.9</course>
  <speed>0.7993122043357026</speed>
  <fix>3d</fix>
</trkpt>
<trkpt lat="33.8106747" lon="-118.3938255">
  <ele>-24.57</ele>
  <time>2026-09-01T01:17:05Z</time>
  <course>44.52</course>
  <speed>0.81</speed>
  <fix>3d</fix>
</trkpt>
<trkpt lat="33.8106762" lon="-118.3938232">
  <ele>-25.169</ele>
  <time>2026-09-01T01:17:05Z</time>
  <course>19.9</course>
  <speed>0.8065977932030313</speed>
  <fix>3d</fix>
</trkpt>
<trkpt lat="33.8106757" lon="-118.3938243">
  <ele>-24.56</ele>
  <time>2026-09-01T01:17:05Z</time>
  <course>44.54</course>
  <speed>0.81</speed>
  <fix>3d</fix>
</trkpt>
<trkpt lat="33.8106767" lon="-118.3938226">
  <ele>-25.166</ele>
  <time>2026-09-01T01:17:05Z</time>
  <course>19.9</course>
  <speed>0.8065977932030313</speed>
  <fix>3d</fix>
</trkpt>
<trkpt lat="33.8106757" lon="-118.3938243">
  <ele>-24.56</ele>
  <time>2026-09-01T01:17:05Z</time>
  <course>44.54</course>
  <speed>0.81</speed>
  <fix>3d</fix>
</trkpt>
<trkpt lat="33.8106772" lon="-118.393822">
  <ele>-25.163</ele>
  <time>2026-09-01T01:17:05Z</time>
  <course>19.9</course>
  <speed>0.8065977932030313</speed>
  <fix>3d</fix>
</trkpt>
<trkpt lat="33.8106767" lon="-118.393823">
  <ele>-24.55</ele>
  <time>2026-09-01T01:17:05Z</time>
  <course>44.6</course>
  <speed>0.81</speed>
  <fix>3d</fix>
</trkpt>
<trkpt lat="33.8106777" lon="-118.3938214">
  <ele>-25.161</ele>
  <time>2026-09-01T01:17:05Z</time>
  <course>19.9</course>
  <speed>0.8065977932030313</speed>
  <fix>3d</fix>
</trkpt>
<trkpt lat="33.8106767" lon="-118.393823">
  <ele>-24.55</ele>
  <time>2026-09-01T01:17:05Z</time>
  <course>44.6</course>
  <speed>0.81</speed>
  <fix>3d</fix>
</trkpt>
<trkpt lat="33.8106783" lon="-118.3938207">
  <ele>-25.159</ele>
  <time>2026-09-01T01:17:05Z</time>
  <course>19.9</course>
  <speed>0.8065977932030313</speed>
  <fix>3d</fix>
</trkpt>
<trkpt lat="33.8106778" lon="-118.3938217">
  <ele>-24.55</ele>
  <time>2026-09-01T01:17:05Z</time>
  <course>44.63</course>
  <speed>0.81</speed>
  <fix>3d</fix>
</trkpt>
<trkpt lat="33.8106788" lon="-118.3938201">
  <ele>-25.156</ele>
  <time>2026-09-01T01:17:05Z</time>
  <course>19.91</course>
  <speed>0.8065977932030313</speed>
  <fix>3d</fix>
</trkpt>
<trkpt lat="33.8106778" lon="-118.3938217">
  <ele>-24.55</ele>
  <time>2026-09-01T01:17:05Z</time>
  <course>44.63</course>
  <speed>0.81</speed>
  <fix>3d</fix>
</trkpt>
<trkpt lat="33.8106793" lon="-118.3938195">
  <ele>-25.154</ele>
  <time>2026-09-01T01:17:05Z</time>
  <course>19.91</course>
  <speed>0.8134494452638098</speed>
  <fix>3d</fix>
</trkpt>
<trkpt lat="33.8106789" lon="-118.3938205">
  <ele>-24.54</ele>
  <time>2026-09-01T01:17:05Z</time>
  <course>44.61</course>
  <speed>0.82</speed>
  <fix>3d</fix>
</trkpt>
<trkpt lat="33.8106798" lon="-118.3938189">
  <ele>-25.152</ele>
  <time>2026-09-01T01:17:05Z</time>
  <course>19.91</course>
  <speed>0.8065977932030313</speed>
  <fix>3d</fix>
</trkpt>
<trkpt lat="33.8106789" lon="-118.3938205">
  <ele>-24.54</ele>
  <time>2026-09-01T01:17:05Z</time>
  <course>44.61</course>
  <speed>0.82</speed>
  <fix>3d</fix>
</trkpt>
<trkpt lat="33.8106804" lon="-118.3938182">
  <ele>-25.151</ele>
  <time>2026-09-01T01:17:05Z</time>
  <course>19.9</course>
  <speed>0.8134494452638098</speed>
  <fix>3d</fix>
</trkpt>
<trkpt lat="33.8106799" lon="-118.3938193">
  <ele>-24.54</ele>
  <time>2026-09-01T01:17:05Z</time>
  <course>44.6</course>
  <speed>0.82</speed>
  <fix>3d</fix>
</trkpt>
<trkpt lat="33.8106809" lon="-118.3938176">
  <ele>-25.15</ele>
  <time>2026-09-01T01:17:05Z</time>
  <course>19.9</course>
  <speed>0.8207313811473277</speed>
  <fix>3d</fix>
</trkpt>
<trkpt lat="33.8106799" lon="-118.3938193">
  <ele>-24.54</ele>
  <time>2026-09-01T01:17:05Z</time>
  <course>44.6</course>
  <speed>0.82</speed>
  <fix>3d</fix>
</trkpt>
<trkpt lat="33.8106814" lon="-118.393817">
  <ele>-25.15</ele>
  <time>2026-09-01T01:17:05Z</time>
  <course>19.9</course>
  <speed>0.8207313811473277</speed>
  <fix>3d</fix>
</trkpt>
<trkpt lat="33.810681" lon="-118.393818">
  <ele>-24.54</ele>
  <time>2026-09-01T01:17:05Z</time>
  <course>44.63</course>
  <speed>0.82</speed>
  <fix>3d</fix>
</trkpt>
<trkpt lat="33.810682" lon="-118.3938163">
  <ele>-25.148</ele>
  <time>2026-09-01T01:17:05Z</time>
  <course>19.91</course>
  <speed>0.8207313811473277</speed>
  <fix>3d</fix>
</trkpt>
<trkpt lat="33.810681" lon="-118.393818">
  <ele>-24.54</ele>
  <time>2026-09-01T01:17:05Z</time>
  <course>44.63</course>
  <speed>0.82</speed>
  <fix>3d</fix>
</trkpt>
<trkpt lat="33.8106825" lon="-118.3938157">
  <ele>-25.148</ele>
  <time>2026-09-01T01:17:05Z</time>
  <course>19.9</course>
  <speed>0.8207313811473277</speed>
  <fix>3d</fix>
</trkpt>
<trkpt lat="33.810682" lon="-118.3938168">
  <ele>-24.54</ele>
  <time>2026-09-01T01:17:05Z</time>
  <course>44.68</course>
  <speed>0.83</speed>
  <fix>3d</fix>
</trkpt>
<trkpt lat="33.810683" lon="-118.3938151">
  <ele>-25.149</ele>
  <time>2026-09-01T01:17:05Z</time>
  <course>19.91</course>
  <speed>0.8207313811473277</speed>
  <fix>3d</fix>
</trkpt>
<trkpt lat="33.810682" lon="-118.3938168">
  <ele>-24.54</ele>
  <time>2026-09-01T01:17:05Z</time>
  <course>44.68</course>
  <speed>0.83</speed>
  <fix>3d</fix>
</trkpt>
<trkpt lat="33.8106836" lon="-118.3938144">
  <ele>-25.15</ele>
  <time>2026-09-01T01:17:05Z</time>
  <course>19.91</course>
  <speed>0.8207313811473277</speed>
  <fix>3d</fix>
</trkpt>
<trkpt lat="33.8106831" lon="-118.3938155">
  <ele>-24.55</ele>
  <time>2026-09-01T01:17:05Z</time>
  <course>44.74</course>
  <speed>0.83</speed>
  <fix>3d</fix>
</trkpt>
<trkpt lat="33.8106841" lon="-118.3938138">
  <ele>-25.15</ele>
  <time>2026-09-01T01:17:05Z</time>
  <course>19.91</course>
  <speed>0.8348652585896721</speed>
  <fix>3d</fix>
</trkpt>
<trkpt lat="33.8106831" lon="-118.3938155">
  <ele>-24.55</ele>
  <time>2026-09-01T01:17:05Z</time>
  <course>44.74</course>
  <speed>0.83</speed>
  <fix>3d</fix>
</trkpt>
<trkpt lat="33.8106846" lon="-118.3938132">
  <ele>-25.15</ele>
  <time>2026-09-01T01:17:05Z</time>
  <course>19.91</course>
  <speed>0.8348652585896721</speed>
  <fix>3d</fix>
</trkpt>
<trkpt lat="33.8106842" lon="-118.3938142">
  <ele>-24.54</ele>
  <time>2026-09-01T01:17:05Z</time>
  <course>44.78</course>
  <speed>0.83</speed>
  <fix>3d</fix>
</trkpt>
<trkpt lat="33.8106852" lon="-118.3938125">
  <ele>-25.148</ele>
  <time>2026-09-01T01:17:05Z</time>
  <course>19.91</course>
  <speed>0.8348652585896721</speed>
  <fix>3d</fix>
</trkpt>
<trkpt lat="33.8106842" lon="-118.3938142">
  <ele>-24.54</ele>
  <time>2026-09-01T01:17:05Z</time>
  <course>44.78</course>
  <speed>0.83</speed>
  <fix>3d</fix>
</trkpt>
<trkpt lat="33.8106857" lon="-118.3938119">
  <ele>-25.145</ele>
  <time>2026-09-01T01:17:05Z</time>
  <course>19.91</course>
  <speed>0.8348652585896721</speed>
  <fix>3d</fix>
</trkpt>
<trkpt lat="33.8106852" lon="-118.3938129">
  <ele>-24.54</ele>
  <time>2026-09-01T01:17:05Z</time>
  <course>44.82</course>
  <speed>0.84</speed>
  <fix>3d</fix>
</trkpt>
<trkpt lat="33.8106862" lon="-118.3938112">
  <ele>-25.141</ele>
  <time>2026-09-01T01:17:05Z</time>
  <course>19.91</course>
  <speed>0.8348652585896721</speed>
  <fix>3d</fix>
</trkpt>
<trkpt lat="33.8106852" lon="-118.3938129">
  <ele>-24.54</ele>
  <time>2026-09-01T01:17:05Z</time>
  <course>44.82</course>
  <speed>0.84</speed>
  <fix>3d</fix>
</trkpt>
<trkpt lat="33.8106868" lon="-118.3938106">
  <ele>-25.138</ele>
  <time>2026-09-01T01:17:05Z</time>
  <course>19.91</course>
  <speed>0.8348652585896721</speed>
  <fix>3d</fix>
</trkpt>
<trkpt lat="33.8106863" lon="-118.3938116">
  <ele>-24.53</ele>
  <time>2026-09-01T01:17:05Z</time>
  <course>44.82</course>
  <speed>0.84</speed>
  <fix>3d</fix>
</trkpt>
<trkpt lat="33.8106873" lon="-118.3938099">
  <ele>-25.136</ele>
  <time>2026-09-01T01:17:05Z</time>
  <course>19.91</course>
  <speed>0.8348652585896721</speed>
  <fix>3d</fix>
</trkpt>
<trkpt lat="33.8106863" lon="-118.3938116">
  <ele>-24.53</ele>
  <time>2026-09-01T01:17:05Z</time>
  <course>44.82</course>
  <speed>0.84</speed>
  <fix>3d</fix>
</trkpt>
<trkpt lat="33.8106879" lon="-118.3938093">
  <ele>-25.132</ele>
  <time>2026-09-01T01:17:05Z</time>
  <course>19.91</course>
  <speed>0.8348652585896721</speed>
  <fix>3d</fix>
</trkpt>
<trkpt lat="33.8106874" lon="-118.3938104">
  <ele>-24.53</ele>
  <time>2026-09-01T01:17:05Z</time>
  <course>44.77</course>
  <speed>0.84</speed>
  <fix>3d</fix>
</trkpt>
<trkpt lat="33.8106884" lon="-118.3938087">
  <ele>-25.129</ele>
  <time>2026-09-01T01:17:05Z</time>
  <course>19.91</course>
  <speed>0.8348652585896721</speed>
  <fix>3d</fix>
</trkpt>
<trkpt lat="33.8106874" lon="-118.3938104">
  <ele>-24.53</ele>
  <time>2026-09-01T01:17:05Z</time>
  <course>44.77</course>
  <speed>0.84</speed>
  <fix>3d</fix>
</trkpt>
<trkpt lat="33.8106889" lon="-118.393808">
  <ele>-25.128</ele>
  <time>2026-09-01T01:17:05Z</time>
  <course>19.91</course>
  <speed>0.8348652585896721</speed>
  <fix>3d</fix>
</trkpt>
<trkpt lat="33.8106885" lon="-118.3938091">
  <ele>-24.52</ele>
  <time>2026-09-01T01:17:05Z</time>
  <course>44.75</course>
  <speed>0.85</speed>
  <fix>3d</fix>
</trkpt>
<trkpt lat="33.8106895" lon="-118.3938074">
  <ele>-25.127</ele>
  <time>2026-09-01T01:17:05Z</time>
  <course>19.91</course>
  <speed>0.8348652585896721</speed>
  <fix>3d</fix>
</trkpt>
<trkpt lat="33.8106885" lon="-118.3938091">
  <ele>-24.52</ele>
  <time>2026-09-01T01:17:05Z</time>
  <course>44.75</course>
  <speed>0.85</speed>
  <fix>3d</fix>
</trkpt>
<trkpt lat="33.81069" lon="-118.3938067">
  <ele>-25.128</ele>
  <time>2026-09-01T01:17:05Z</time>
  <course>19.91</course>
  <speed>0.8421995013059553</speed>
  <fix>3d</fix>
</trkpt>
<trkpt lat="33.8106895" lon="-118.3938078">
  <ele>-24.52</ele>
  <time>2026-09-01T01:17:05Z</time>
  <course>44.79</course>
  <speed>0.85</speed>
  <fix>3d</fix>
</trkpt>
<trkpt lat="33.8106906" lon="-118.3938061">
  <ele>-25.127</ele>
  <time>2026-09-01T01:17:05Z</time>
  <course>19.91</course>
  <speed>0.8489994110716449</speed>
  <fix>3d</fix>
</trkpt>
<trkpt lat="33.8106895" lon="-118.3938078">
  <ele>-24.52</ele>
  <time>2026-09-01T01:17:05Z</time>
  <course>44.79</course>
  <speed>0.85</speed>
  <fix>3d</fix>
</trkpt>
<trkpt lat="33.8106911" lon="-118.3938054">
  <ele>-25.126</ele>
  <time>2026-09-01T01:17:05Z</time>
  <course>19.91</course>
  <speed>0.8489994110716449</speed>
  <fix>3d</fix>
</trkpt>
<trkpt lat="33.8106906" lon="-118.3938065">
  <ele>-24.52</ele>
  <time>2026-09-01T01:17:05Z</time>
  <course>44.81</course>
  <speed>0.85</speed>
  <fix>3d</fix>
</trkpt>
<trkpt lat="33.8106917" lon="-118.3938048">
  <ele>-25.126</ele>
  <time>2026-09-01T01:17:05Z</time>
  <course>19.91</course>
  <speed>0.8489994110716449</speed>
  <fix>3d</fix>
</trkpt>
<trkpt lat="33.8106906" lon="-118.3938065">
  <ele>-24.52</ele>
  <time>2026-09-01T01:17:05Z</time>
  <course>44.81</course>
  <speed>0.85</speed>
  <fix>3d</fix>
</trkpt>
<trkpt lat="33.8106922" lon="-118.3938041">
  <ele>-25.126</ele>
  <time>2026-09-01T01:17:05Z</time>
  <course>19.91</course>
  <speed>0.8489994110716449</speed>
  <fix>3d</fix>
</trkpt>
<trkpt lat="33.8106917" lon="-118.3938052">
  <ele>-24.52</ele>
  <time>2026-09-01T01:17:05Z</time>
  <course>44.79</course>
  <speed>0.85</speed>
  <fix>3d</fix>
</trkpt>
<trkpt lat="33.8106928" lon="-118.3938035">
  <ele>-25.126</ele>
  <time>2026-09-01T01:17:05Z</time>
  <course>19.91</course>
  <speed>0.8489994110716449</speed>
  <fix>3d</fix>
</trkpt>
<trkpt lat="33.8106917" lon="-118.3938052">
  <ele>-24.52</ele>
  <time>2026-09-01T01:17:05Z</time>
  <course>44.79</course>
  <speed>0.85</speed>
  <fix>3d</fix>
</trkpt>
<trkpt lat="33.8106933" lon="-118.3938028">
  <ele>-25.126</ele>
  <time>2026-09-01T01:17:05Z</time>
  <course>19.91</course>
  <speed>0.8489994110716449</speed>
  <fix>3d</fix>
</trkpt>
<trkpt lat="33.8106928" lon="-118.3938039">
  <ele>-24.52</ele>
  <time>2026-09-01T01:17:05Z</time>
  <course>44.77</course>
  <speed>0.86</speed>
  <fix>3d</fix>
</trkpt>
<trkpt lat="33.8106939" lon="-118.3938022">
  <ele>-25.124</ele>
  <time>2026-09-01T01:17:05Z</time>
  <course>19.91</course>
  <speed>0.8489994110716449</speed>
  <fix>3d</fix>
</trkpt>
<trkpt lat="33.8106928" lon="-118.3938039">
  <ele>-24.52</ele>
  <time>2026-09-01T01:17:05Z</time>
  <course>44.77</course>
  <speed>0.86</speed>
  <fix>3d</fix>
</trkpt>
<trkpt lat="33.8106944" lon="-118.3938015">
  <ele>-25.122</ele>
  <time>2026-09-01T01:17:05Z</time>
  <course>19.91</course>
  <speed>0.8489994110716449</speed>
  <fix>3d</fix>
</trkpt>
<trkpt lat="33.8106939" lon="-118.3938025">
  <ele>-24.51</ele>
  <time>2026-09-01T01:17:05Z</time>
  <course>44.75</course>
  <speed>0.86</speed>
  <fix>3d</fix>
</trkpt>
<trkpt lat="33.810695" lon="-118.3938008">
  <ele>-25.12</ele>
  <time>2026-09-01T01:17:05Z</time>
  <course>19.92</course>
  <speed>0.8489994110716449</speed>
  <fix>3d</fix>
</trkpt>
<trkpt lat="33.8106939" lon="-118.3938025">
  <ele>-24.51</ele>
  <time>2026-09-01T01:17:05Z</time>
  <course>44.75</course>
  <speed>0.86</speed>
  <fix>3d</fix>
</trkpt>
<trkpt lat="33.8106955" lon="-118.3938002">
  <ele>-25.117</ele>
  <time>2026-09-01T01:17:05Z</time>
  <course>19.92</course>
  <speed>0.8489994110716449</speed>
  <fix>3d</fix>
</trkpt>
<trkpt lat="33.810695" lon="-118.3938012">
  <ele>-24.5</ele>
  <time>2026-09-01T01:17:05Z</time>
  <course>44.72</course>
  <speed>0.86</speed>
  <fix>3d</fix>
</trkpt>
<trkpt lat="33.8106961" lon="-118.3937995">
  <ele>-25.115</ele>
  <time>2026-09-01T01:17:05Z</time>
  <course>19.91</course>
  <speed>0.8489994110716449</speed>
  <fix>3d</fix>
</trkpt>
<trkpt lat="33.810695" lon="-118.3938012">
  <ele>-24.5</ele>
  <time>2026-09-01T01:17:05Z</time>
  <course>44.72</course>
  <speed>0.86</speed>
  <fix>3d</fix>
</trkpt>
<trkpt lat="33.8106966" lon="-118.3937989">
  <ele>-25.112</ele>
  <time>2026-09-01T01:17:05Z</time>
  <course>19.91</course>
  <speed>0.8558621384311844</speed>
  <fix>3d</fix>
</trkpt>
<trkpt lat="33.8106961" lon="-118.3937999">
  <ele>-24.5</ele>
  <time>2026-09-01T01:17:05Z</time>
  <course>44.67</course>
  <speed>0.86</speed>
  <fix>3d</fix>
</trkpt>
<trkpt lat="33.8106972" lon="-118.3937982">
  <ele>-25.11</ele>
  <time>2026-09-01T01:17:05Z</time>
  <course>19.91</course>
  <speed>0.8558621384311844</speed>
  <fix>3d</fix>
</trkpt>
<trkpt lat="33.8106961" lon="-118.3937999">
  <ele>-24.5</ele>
  <time>2026-09-01T01:17:05Z</time>
  <course>44.67</course>
  <speed>0.86</speed>
  <fix>3d</fix>
</trkpt>
<trkpt lat="33.8106977" lon="-118.3937975">
  <ele>-25.106</ele>
  <time>2026-09-01T01:17:05Z</time>
  <course>19.91</course>
  <speed>0.8558621384311844</speed>
  <fix>3d</fix>
</trkpt>
<trkpt lat="33.8106973" lon="-118.3937986">
  <ele>-24.49</ele>
  <time>2026-09-01T01:17:05Z</time>
  <course>44.64</course>
  <speed>0.87</speed>
  <fix>3d</fix>
</trkpt>
<trkpt lat="33.8106983" lon="-118.3937969">
  <ele>-25.102</ele>
  <time>2026-09-01T01:17:05Z</time>
  <course>19.92</course>
  <speed>0.8631338250816034</speed>
  <fix>3d</fix>
</trkpt>
<trkpt lat="33.8106973" lon="-118.3937986">
  <ele>-24.49</ele>
  <time>2026-09-01T01:17:05Z</time>
  <course>44.64</course>
  <speed>0.87</speed>
  <fix>3d</fix>
</trkpt>
<trkpt lat="33.8106988" lon="-118.3937962">
  <ele>-25.1</ele>
  <time>2026-09-01T01:17:05Z</time>
  <course>19.92</course>
  <speed>0.8631338250816034</speed>
  <fix>3d</fix>
</trkpt>
<trkpt lat="33.8106984" lon="-118.3937973">
  <ele>-24.49</ele>
  <time>2026-09-01T01:17:05Z</time>
  <course>44.65</course>
  <speed>0.87</speed>
  <fix>3d</fix>
</trkpt>
<trkpt lat="33.8106994" lon="-118.3937955">
  <ele>-25.098</ele>
  <time>2026-09-01T01:17:05Z</time>
  <course>19.91</course>
  <speed>0.8631338250816034</speed>
  <fix>3d</fix>
</trkpt>
<trkpt lat="33.8106984" lon="-118.3937973">
  <ele>-24.49</ele>
  <time>2026-09-01T01:17:05Z</time>
  <course>44.65</course>
  <speed>0.87</speed>
  <fix>3d</fix>
</trkpt>
<trkpt lat="33.8107" lon="-118.3937949">
  <ele>-25.096</ele>
  <time>2026-09-01T01:17:05Z</time>
  <course>19.91</course>
  <speed>0.8631338250816034</speed>
  <fix>3d</fix>
</trkpt>
<trkpt lat="33.8106995" lon="-118.3937959">
  <ele>-24.48</ele>
  <time>2026-09-01T01:17:05Z</time>
  <course>44.72</course>
  <speed>0.87</speed>
  <fix>3d</fix>
</trkpt>
<trkpt lat="33.8107005" lon="-118.3937942">
  <ele>-25.093</ele>
  <time>2026-09-01T01:17:05Z</time>
  <course>19.91</course>
  <speed>0.8631338250816034</speed>
  <fix>3d</fix>
</trkpt>
<trkpt lat="33.8106995" lon="-118.3937959">
  <ele>-24.48</ele>
  <time>2026-09-01T01:17:05Z</time>
  <course>44.72</course>
  <speed>0.87</speed>
  <fix>3d</fix>
</trkpt>
<trkpt lat="33.8107011" lon="-118.3937935">
  <ele>-25.09</ele>
  <time>2026-09-01T01:17:05Z</time>
  <course>19.91</course>
  <speed>0.8631338250816034</speed>
  <fix>3d</fix>
</trkpt>
<trkpt lat="33.8107006" lon="-118.3937946">
  <ele>-24.48</ele>
  <time>2026-09-01T01:17:05Z</time>
  <course>44.78</course>
  <speed>0.87</speed>
  <fix>3d</fix>
</trkpt>
<trkpt lat="33.8107016" lon="-118.3937929">
  <ele>-25.087</ele>
  <time>2026-09-01T01:17:05Z</time>
  <course>19.91</course>
  <speed>0.8631338250816034</speed>
  <fix>3d</fix>
</trkpt>
<trkpt lat="33.8107006" lon="-118.3937946">
  <ele>-24.48</ele>
  <time>2026-09-01T01:17:05Z</time>
  <course>44.78</course>
  <speed>0.87</speed>
  <fix>3d</fix>
</trkpt>
<trkpt lat="33.8107022" lon="-118.3937922">
  <ele>-25.086</ele>
  <time>2026-09-01T01:17:05Z</time>
  <course>19.91</course>
  <speed>0.8631338250816034</speed>
  <fix>3d</fix>
</trkpt>
<trkpt lat="33.8107017" lon="-118.3937933">
  <ele>-24.48</ele>
  <time>2026-09-01T01:17:05Z</time>
  <course>44.82</course>
  <speed>0.87</speed>
  <fix>3d</fix>
</trkpt>
<trkpt lat="33.8107027" lon="-118.3937915">
  <ele>-25.085</ele>
  <time>2026-09-01T01:17:05Z</time>
  <course>19.91</course>
  <speed>0.8631338250816034</speed>
  <fix>3d</fix>
</trkpt>
<trkpt lat="33.8107017" lon="-118.3937933">
  <ele>-24.48</ele>
  <time>2026-09-01T01:17:05Z</time>
  <course>44.82</course>
  <speed>0.87</speed>
  <fix>3d</fix>
</trkpt>
<trkpt lat="33.8107033" lon="-118.3937909">
  <ele>-25.084</ele>
  <time>2026-09-01T01:17:05Z</time>
  <course>19.91</course>
  <speed>0.8631338250816034</speed>
  <fix>3d</fix>
</trkpt>
<trkpt lat="33.8107028" lon="-118.393792">
  <ele>-24.48</ele>
  <time>2026-09-01T01:17:05Z</time>
  <course>44.83</course>
  <speed>0.87</speed>
  <fix>3d</fix>
</trkpt>
<trkpt lat="33.8107038" lon="-118.3937902">
  <ele>-25.085</ele>
  <time>2026-09-01T01:17:05Z</time>
  <course>19.92</course>
  <speed>0.7569015788066504</speed>
  <fix>3d</fix>
</trkpt>
<trkpt lat="33.8107028" lon="-118.393792">
  <ele>-24.48</ele>
  <time>2026-09-01T01:17:05Z</time>
  <course>44.83</course>
  <speed>0.87</speed>
  <fix>3d</fix>
</trkpt>
<trkpt lat="33.8107043" lon="-118.3937897">
  <ele>-25.088</ele>
  <time>2026-09-01T01:17:05Z</time>
  <course>19.92</course>
  <speed>0.6438167441127949</speed>
  <fix>3d</fix>
</trkpt>
<trkpt lat="33.8107039" lon="-118.3937906">
  <ele>-24.48</ele>
  <time>2026-09-01T01:17:05Z</time>
  <course>44.67</course>
  <speed>0.8</speed>
  <fix>3d</fix>
</trkpt>
<trkpt lat="33.8107047" lon="-118.3937892">
  <ele>-25.092</ele>
  <time>2026-09-01T01:17:05Z</time>
  <course>19.92</course>
  <speed>0.5517245689653489</speed>
  <fix>3d</fix>
</trkpt>
<trkpt lat="33.8107039" lon="-118.3937906">
  <ele>-24.48</ele>
  <time>2026-09-01T01:17:05Z</time>
  <course>44.67</course>
  <speed>0.8</speed>
  <fix>3d</fix>
</trkpt>
<trkpt lat="33.810705" lon="-118.3937888">
  <ele>-25.094</ele>
  <time>2026-09-01T01:17:05Z</time>
  <course>19.92</course>
  <speed>0.49517673612559787</speed>
  <fix>3d</fix>
</trkpt>
<trkpt lat="33.8107049" lon="-118.3937895">
  <ele>-24.49</ele>
  <time>2026-09-01T01:17:05Z</time>
  <course>44.11</course>
  <speed>0.64</speed>
  <fix>3d</fix>
</trkpt>
<trkpt lat="33.8107054" lon="-118.3937885">
  <ele>-25.096</ele>
  <time>2026-09-01T01:17:05Z</time>
  <course>19.93</course>
  <speed>0.44553338819890925</speed>
  <fix>3d</fix>
</trkpt>
<trkpt lat="33.8107049" lon="-118.3937895">
  <ele>-24.49</ele>
  <time>2026-09-01T01:17:05Z</time>
  <course>44.11</course>
  <speed>0.64</speed>
  <fix>3d</fix>
</trkpt>
<trkpt lat="33.8107057" lon="-118.3937882">
  <ele>-25.098</ele>
  <time>2026-09-01T01:17:05Z</time>
  <course>19.93</course>
  <speed>0.4172529209005013</speed>
  <fix>3d</fix>
</trkpt>
<trkpt lat="33.8107056" lon="-118.3937886">
  <ele>-24.49</ele>
  <time>2026-09-01T01:17:05Z</time>
  <course>43.29</course>
  <speed>0.5</speed>
  <fix>3d</fix>
</trkpt>
<trkpt lat="33.810706" lon="-118.3937878">
  <ele>-25.101</ele>
  <time>2026-09-01T01:17:05Z</time>
  <course>19.94</course>
  <speed>0.41036569057366384</speed>
  <fix>3d</fix>
</trkpt>
<trkpt lat="33.8107056" lon="-118.3937886">
  <ele>-24.49</ele>
  <time>2026-09-01T01:17:05Z</time>
  <course>43.29</course>
  <speed>0.5</speed>
  <fix>3d</fix>
</trkpt>
<trkpt lat="33.8107063" lon="-118.3937875">
  <ele>-25.102</ele>
  <time>2026-09-01T01:17:05Z</time>
  <course>19.95</course>
  <speed>0.42449970553582245</speed>
  <fix>3d</fix>
</trkpt>
<trkpt lat="33.8107062" lon="-118.393788">
  <ele>-24.5</ele>
  <time>2026-09-01T01:17:05Z</time>
  <course>42.87</course>
  <speed>0.43</speed>
  <fix>3d</fix>
</trkpt>
<trkpt lat="33.8107066" lon="-118.3937872">
  <ele>-25.104</ele>
  <time>2026-09-01T01:17:05Z</time>
  <course>19.96</course>
  <speed>0.4459820624195552</speed>
  <fix>3d</fix>
</trkpt>
<trkpt lat="33.8107062" lon="-118.393788">
  <ele>-24.5</ele>
  <time>2026-09-01T01:17:05Z</time>
  <course>42.87</course>
  <speed>0.43</speed>
  <fix>3d</fix>
</trkpt>
<trkpt lat="33.8107069" lon="-118.3937868">
  <ele>-25.105</ele>
  <time>2026-09-01T01:17:05Z</time>
  <course>19.96</course>
  <speed>0.4883646178829912</speed>
  <fix>3d</fix>
</trkpt>
<trkpt lat="33.8107068" lon="-118.3937873">
  <ele>-24.5</ele>
  <time>2026-09-01T01:17:05Z</time>
  <course>43.34</course>
  <speed>0.44</speed>
  <fix>3d</fix>
</trkpt>
<trkpt lat="33.8107072" lon="-118.3937864">
  <ele>-25.108</ele>
  <time>2026-09-01T01:17:05Z</time>
  <course>19.96</course>
  <speed>0.5381449618829484</speed>
  <fix>3d</fix>
</trkpt>
<trkpt lat="33.8107068" lon="-118.3937873">
  <ele>-24.5</ele>
  <time>2026-09-01T01:17:05Z</time>
  <course>43.34</course>
  <speed>0.44</speed>
  <fix>3d</fix>
</trkpt>
<trkpt lat="33.8107076" lon="-118.3937859">
  <ele>-25.111</ele>
  <time>2026-09-01T01:17:05Z</time>
  <course>19.96</course>
  <speed>0.5946427498927402</speed>
  <fix>3d</fix>
</trkpt>
<trkpt lat="33.8107074" lon="-118.3937866">
  <ele>-24.5</ele>
  <time>2026-09-01T01:17:05Z</time>
  <course>44.33</course>
  <speed>0.51</speed>
  <fix>3d</fix>
</trkpt>
<trkpt lat="33.810708" lon="-118.3937854">
  <ele>-25.115</ele>
  <time>2026-09-01T01:17:05Z</time>
  <course>19.96</course>
  <speed>0.6585590330410782</speed>
  <fix>3d</fix>
</trkpt>
<trkpt lat="33.8107074" lon="-118.3937866">
  <ele>-24.5</ele>
  <time>2026-09-01T01:17:05Z</time>
  <course>44.33</course>
  <speed>0.51</speed>
  <fix>3d</fix>
</trkpt>
<trkpt lat="33.8107084" lon="-118.3937849">
  <ele>-25.118</ele>
  <time>2026-09-01T01:17:05Z</time>
  <course>19.95</course>
  <speed>0.7009279563550023</speed>
  <fix>3d</fix>
</trkpt>
<trkpt lat="33.8107081" lon="-118.3937858">
  <ele>-24.51</ele>
  <time>2026-09-01T01:17:05Z</time>
  <course>45.1</course>
  <speed>0.61</speed>
  <fix>3d</fix>
</trkpt>
<trkpt lat="33.8107089" lon="-118.3937843">
  <ele>-25.122</ele>
  <time>2026-09-01T01:17:05Z</time>
  <course>19.95</course>
  <speed>0.7507329751649384</speed>
  <fix>3d</fix>
</trkpt>
<trkpt lat="33.8107081" lon="-118.3937858">
  <ele>-24.51</ele>
  <time>2026-09-01T01:17:05Z</time>
  <course>45.1</course>
  <speed>0.61</speed>
  <fix>3d</fix>
</trkpt>
<trkpt lat="33.8107094" lon="-118.3937837">
  <ele>-25.126</ele>
  <time>2026-09-01T01:17:05Z</time>
  <course>19.94</course>
  <speed>0.7930952023559341</speed>
  <fix>3d</fix>
</trkpt>
<trkpt lat="33.810709" lon="-118.3937847">
  <ele>-24.51</ele>
  <time>2026-09-01T01:17:05Z</time>
  <course>45.48</course>
  <speed>0.71</speed>
  <fix>3d</fix>
</trkpt>
<trkpt lat="33.8107099" lon="-118.3937831">
  <ele>-25.131</ele>
  <time>2026-09-01T01:17:05Z</time>
  <course>19.94</course>
  <speed>0.8213403679352428</speed>
  <fix>3d</fix>
</trkpt>
<trkpt lat="33.810709" lon="-118.3937847">
  <ele>-24.51</ele>
  <time>2026-09-01T01:17:05Z</time>
  <course>45.48</course>
  <speed>0.71</speed>
  <fix>3d</fix>
</trkpt>
<trkpt lat="33.8107104" lon="-118.3937824">
  <ele>-25.136</ele>
  <time>2026-09-01T01:17:05Z</time>
  <course>19.94</course>
  <speed>0.8495881355103778</speed>
  <fix>3d</fix>
</trkpt>
<trkpt lat="33.81071" lon="-118.3937836">
  <ele>-24.52</ele>
  <time>2026-09-01T01:17:05Z</time>
  <course>45.61</course>
  <speed>0.8</speed>
  <fix>3d</fix>
</trkpt>
<trkpt lat="33.810711" lon="-118.3937818">
  <ele>-25.141</ele>
  <time>2026-09-01T01:17:05Z</time>
  <course>19.93</course>
  <speed>0.8711486669908873</speed>
  <fix>3d</fix>
</trkpt>
<trkpt lat="33.81071" lon="-118.3937836">
  <ele>-24.52</ele>
  <time>2026-09-01T01:17:05Z</time>
  <course>45.61</course>
  <speed>0.8</speed>
  <fix>3d</fix>
</trkpt>
<trkpt lat="33.8107115" lon="-118.3937811">
  <ele>-25.146</ele>
  <time>2026-09-01T01:17:05Z</time>
  <course>19.93</course>
  <speed>0.8852683209061533</speed>
  <fix>3d</fix>
</trkpt>
<trkpt lat="33.810711" lon="-118.3937823">
  <ele>-24.52</ele>
  <time>2026-09-01T01:17:05Z</time>
  <course>45.63</course>
  <speed>0.86</speed>
  <fix>3d</fix>
</trkpt>
<trkpt lat="33.8107121" lon="-118.3937804">
  <ele>-25.15</ele>
  <time>2026-09-01T01:17:05Z</time>
  <course>19.93</course>
  <speed>0.8919641248391104</speed>
  <fix>3d</fix>
</trkpt>
<trkpt lat="33.810711" lon="-118.3937823">
  <ele>-24.52</ele>
  <time>2026-09-01T01:17:05Z</time>
  <course>45.63</course>
  <speed>0.86</speed>
  <fix>3d</fix>
</trkpt>
<trkpt lat="33.8107127" lon="-118.3937797">
  <ele>-25.155</ele>
  <time>2026-09-01T01:17:05Z</time>
  <course>19.92</course>
  <speed>0.9060905032059435</speed>
  <fix>3d</fix>
</trkpt>
<trkpt lat="33.8107121" lon="-118.3937809">
  <ele>-24.53</ele>
  <time>2026-09-01T01:17:05Z</time>
  <course>45.58</course>
  <speed>0.89</speed>
  <fix>3d</fix>
</trkpt>
<trkpt lat="33.8107132" lon="-118.393779">
  <ele>-25.159</ele>
  <time>2026-09-01T01:17:05Z</time>
  <course>19.92</course>
  <speed>0.9135097153287424</speed>
  <fix>3d</fix>
</trkpt>
<trkpt lat="33.8107121" lon="-118.3937809">
  <ele>-24.53</ele>
  <time>2026-09-01T01:17:05Z</time>
  <course>45.58</course>
  <speed>0.89</speed>
  <fix>3d</fix>
</trkpt>
<trkpt lat="33.8107138" lon="-118.3937783">
  <ele>-25.163</ele>
  <time>2026-09-01T01:17:05Z</time>
  <course>19.92</course>
  <speed>0.9202173656261873</speed>
  <fix>3d</fix>
</trkpt>
<trkpt lat="33.8107132" lon="-118.3937795">
  <ele>-24.53</ele>
  <time>2026-09-01T01:17:05Z</time>
  <course>45.49</course>
  <speed>0.91</speed>
  <fix>3d</fix>
</trkpt>
<trkpt lat="33.8107144" lon="-118.3937776">
  <ele>-25.165</ele>
  <time>2026-09-01T01:17:05Z</time>
  <course>19.92</course>
  <speed>0.9343446901438461</speed>
  <fix>3d</fix>
</trkpt>
<trkpt lat="33.8107132" lon="-118.3937795">
  <ele>-24.53</ele>
  <time>2026-09-01T01:17:05Z</time>
  <course>45.49</course>
  <speed>0.91</speed>
  <fix>3d</fix>
</trkpt>
<trkpt lat="33.810715" lon="-118.3937768">
  <ele>-25.167</ele>
  <time>2026-09-01T01:17:05Z</time>
  <course>19.91</course>
  <speed>0.9411163583744573</speed>
  <fix>3d</fix>
</trkpt>
<trkpt lat="33.8107144" lon="-118.3937781">
  <ele>-24.54</ele>
  <time>2026-09-01T01:17:05Z</time>
  <course>45.37</course>
  <speed>0.93</speed>
  <fix>3d</fix>
</trkpt>
<trkpt lat="33.8107156" lon="-118.3937761">
  <ele>-25.17</ele>
  <time>2026-09-01T01:17:05Z</time>
  <course>19.91</course>
  <speed>0.94847245611035</speed>
  <fix>3d</fix>
</trkpt>
<trkpt lat="33.8107144" lon="-118.3937781">
  <ele>-24.54</ele>
  <time>2026-09-01T01:17:05Z</time>
  <course>45.37</course>
  <speed>0.93</speed>
  <fix>3d</fix>
</trkpt>
<trkpt lat="33.8107162" lon="-118.3937754">
  <ele>-25.173</ele>
  <time>2026-09-01T01:17:05Z</time>
  <course>19.92</course>
  <speed>0.95524865872714</speed>
  <fix>3d</fix>
</trkpt>
<trkpt lat="33.8107156" lon="-118.3937766">
  <ele>-24.55</ele>
  <time>2026-09-01T01:17:05Z</time>
  <course>45.27</course>
  <speed>0.95</speed>
  <fix>3d</fix>
</trkpt>
<trkpt lat="33.8107168" lon="-118.3937746">
  <ele>-25.175</ele>
  <time>2026-09-01T01:17:05Z</time>
  <course>19.92</course>
  <speed>0.9626006440887103</speed>
  <fix>3d</fix>
</trkpt>
<trkpt lat="33.8107156" lon="-118.3937766">
  <ele>-24.55</ele>
  <time>2026-09-01T01:17:05Z</time>
  <course>45.27</course>
  <speed>0.95</speed>
  <fix>3d</fix>
</trkpt>
<trkpt lat="33.8107174" lon="-118.3937739">
  <ele>-25.177</ele>
  <time>2026-09-01T01:17:05Z</time>
  <course>19.91</course>
  <speed>0.9693812459502195</speed>
  <fix>3d</fix>
</trkpt>
<trkpt lat="33.8107168" lon="-118.3937751">
  <ele>-24.55</ele>
  <time>2026-09-01T01:17:05Z</time>
  <course>45.19</course>
  <speed>0.97</speed>
  <fix>3d</fix>
</trkpt>
<trkpt lat="33.810718" lon="-118.3937731">
  <ele>-25.179</ele>
  <time>2026-09-01T01:17:05Z</time>
  <course>19.91</course>
  <speed>0.9693812459502195</speed>
  <fix>3d</fix>
</trkpt>
<trkpt lat="33.8107168" lon="-118.3937751">
  <ele>-24.55</ele>
  <time>2026-09-01T01:17:05Z</time>
  <course>45.19</course>
  <speed>0.97</speed>
  <fix>3d</fix>
</trkpt>
<trkpt lat="33.8107187" lon="-118.3937724">
  <ele>-25.18</ele>
  <time>2026-09-01T01:17:05Z</time>
  <course>19.91</course>
  <speed>0.9693812459502195</speed>
  <fix>3d</fix>
</trkpt>
<trkpt lat="33.810718" lon="-118.3937736">
  <ele>-24.56</ele>
  <time>2026-09-01T01:17:05Z</time>
  <course>45.11</course>
  <speed>0.98</speed>
  <fix>3d</fix>
</trkpt>
<trkpt lat="33.8107193" lon="-118.3937716">
  <ele>-25.181</ele>
  <time>2026-09-01T01:17:05Z</time>
  <course>19.92</course>
  <speed>0.9693812459502195</speed>
  <fix>3d</fix>
</trkpt>
<trkpt lat="33.810718" lon="-118.3937736">
  <ele>-24.56</ele>
  <time>2026-09-01T01:17:05Z</time>
  <course>45.11</course>
  <speed>0.98</speed>
  <fix>3d</fix>
</trkpt>
<trkpt lat="33.8107199" lon="-118.3937709">
  <ele>-25.183</ele>
  <time>2026-09-01T01:17:05Z</time>
  <course>19.92</course>
  <speed>0.9693812459502195</speed>
  <fix>3d</fix>
</trkpt>
<trkpt lat="33.8107193" lon="-118.3937721">
  <ele>-24.56</ele>
  <time>2026-09-01T01:17:05Z</time>
  <course>45.03</course>
  <speed>0.98</speed>
  <fix>3d</fix>
</trkpt>
<trkpt lat="33.8107205" lon="-118.3937701">
  <ele>-25.186</ele>
  <time>2026-09-01T01:17:05Z</time>
  <course>19.91</course>
  <speed>0.9835141076771599</speed>
  <fix>3d</fix>
</trkpt>
<trkpt lat="33.8107193" lon="-118.3937721">
  <ele>-24.56</ele>
  <time>2026-09-01T01:17:05Z</time>
  <course>45.03</course>
  <speed>0.98</speed>
  <fix>3d</fix>
</trkpt>
<trkpt lat="33.8107212" lon="-118.3937693">
  <ele>-25.189</ele>
  <time>2026-09-01T01:17:05Z</time>
  <course>19.91</course>
  <speed>0.9835141076771599</speed>
  <fix>3d</fix>
</trkpt>
<trkpt lat="33.8107205" lon="-118.3937706">
  <ele>-24.57</ele>
  <time>2026-09-01T01:17:05Z</time>
  <course>44.96</course>
  <speed>0.99</speed>
  <fix>3d</fix>
</trkpt>
<trkpt lat="33.8107218" lon="-118.3937686">
  <ele>-25.191</ele>
  <time>2026-09-01T01:17:05Z</time>
  <course>19.91</course>
  <speed>0.9835141076771599</speed>
  <fix>3d</fix>
</trkpt>
<trkpt lat="33.8107205" lon="-118.3937706">
  <ele>-24.57</ele>
  <time>2026-09-01T01:17:05Z</time>
  <course>44.96</course>
  <speed>0.99</speed>
  <fix>3d</fix>
</trkpt>
<trkpt lat="33.8107224" lon="-118.3937678">
  <ele>-25.193</ele>
  <time>2026-09-01T01:17:05Z</time>
  <course>19.91</course>
  <speed>0.9835141076771599</speed>
  <fix>3d</fix>
</trkpt>
<trkpt lat="33.8107218" lon="-118.3937691">
  <ele>-24.58</ele>
  <time>2026-09-01T01:17:05Z</time>
  <course>44.9</course>
  <speed>0.99</speed>
  <fix>3d</fix>
</trkpt>
<trkpt lat="33.810723" lon="-118.3937671">
  <ele>-25.196</ele>
  <time>2026-09-01T01:17:05Z</time>
  <course>19.91</course>
  <speed>0.9835141076771599</speed>
  <fix>3d</fix>
</trkpt>
<trkpt lat="33.8107218" lon="-118.3937691">
  <ele>-24.58</ele>
  <time>2026-09-01T01:17:05Z</time>
  <course>44.9</course>
  <speed>0.99</speed>
  <fix>3d</fix>
</trkpt>
<trkpt lat="33.8107237" lon="-118.3937663">
  <ele>-25.198</ele>
  <time>2026-09-01T01:17:05Z</time>
  <course>19.91</course>
  <speed>0.9835141076771599</speed>
  <fix>3d</fix>
</trkpt>
<trkpt lat="33.8107231" lon="-118.3937676">
  <ele>-24.58</ele>
  <time>2026-09-01T01:17:05Z</time>
  <course>44.87</course>
  <speed>0.99</speed>
  <fix>3d</fix>
</trkpt>
<trkpt lat="33.8107243" lon="-118.3937656">
  <ele>-25.201</ele>
  <time>2026-09-01T01:17:05Z</time>
  <course>19.91</course>
  <speed>0.9835141076771599</speed>
  <fix>3d</fix>
</trkpt>
<trkpt lat="33.8107231" lon="-118.3937676">
  <ele>-24.58</ele>
  <time>2026-09-01T01:17:05Z</time>
  <course>44.87</course>
  <speed>0.99</speed>
  <fix>3d</fix>
</trkpt>
<trkpt lat="33.8107249" lon="-118.3937648">
  <ele>-25.204</ele>
  <time>2026-09-01T01:17:05Z</time>
  <course>19.91</course>
  <speed>0.9835141076771599</speed>
  <fix>3d</fix>
</trkpt>
<trkpt lat="33.8107244" lon="-118.3937661">
  <ele>-24.59</ele>
  <time>2026-09-01T01:17:05Z</time>
  <course>44.9</course>
  <speed>0.99</speed>
  <fix>3d</fix>
</trkpt>
<trkpt lat="33.8107256" lon="-118.393764">
  <ele>-25.207</ele>
  <time>2026-09-01T01:17:05Z</time>
  <course>19.91</course>
  <speed>0.9835141076771599</speed>
  <fix>3d</fix>
</trkpt>
<trkpt lat="33.8107244" lon="-118.3937661">
  <ele>-24.59</ele>
  <time>2026-09-01T01:17:05Z</time>
  <course>44.9</course>
  <speed>0.99</speed>
  <fix>3d</fix>
</trkpt>
<trkpt lat="33.8107262" lon="-118.3937633">
  <ele>-25.209</ele>
  <time>2026-09-01T01:17:05Z</time>
  <course>19.91</course>
  <speed>0.9762171889492625</speed>
  <fix>3d</fix>
</trkpt>
<trkpt lat="33.8107256" lon="-118.3937645">
  <ele>-24.59</ele>
  <time>2026-09-01T01:17:05Z</time>
  <course>44.96</course>
  <speed>0.99</speed>
  <fix>3d</fix>
</trkpt>
<trkpt lat="33.8107268" lon="-118.3937625">
  <ele>-25.212</ele>
  <time>2026-09-01T01:17:05Z</time>
  <course>19.92</course>
  <speed>0.9762171889492625</speed>
  <fix>3d</fix>
</trkpt>
<trkpt lat="33.8107256" lon="-118.3937645">
  <ele>-24.59</ele>
  <time>2026-09-01T01:17:05Z</time>
  <course>44.96</course>
  <speed>0.99</speed>
  <fix>3d</fix>
</trkpt>
<trkpt lat="33.8107275" lon="-118.3937618">
  <ele>-25.215</ele>
  <time>2026-09-01T01:17:05Z</time>
  <course>19.92</course>
  <speed>0.9762171889492625</speed>
  <fix>3d</fix>
</trkpt>
<trkpt lat="33.8107269" lon="-118.393763">
  <ele>-24.6</ele>
  <time>2026-09-01T01:17:05Z</time>
  <course>45.0</course>
  <speed>0.99</speed>
  <fix>3d</fix>
</trkpt>
<trkpt lat="33.8107281" lon="-118.393761">
  <ele>-25.218</ele>
  <time>2026-09-01T01:17:06Z</time>
  <course>19.92</course>
  <speed>0.9693812459502195</speed>
  <fix>3d</fix>
</trkpt>
<trkpt lat="33.8107269" lon="-118.393763">
  <ele>-24.6</ele>
  <time>2026-09-01T01:17:06Z</time>
  <course>45.0</course>
  <speed>0.99</speed>
  <fix>3d</fix>
</trkpt>
<trkpt lat="33.8107287" lon="-118.3937603">
  <ele>-25.221</ele>
  <time>2026-09-01T01:17:06Z</time>
  <course>19.92</course>
  <speed>0.9693812459502195</speed>
  <fix>3d</fix>
</trkpt>
<trkpt lat="33.8107282" lon="-118.3937615">
  <ele>-24.6</ele>
  <time>2026-09-01T01:17:06Z</time>
  <course>45.01</course>
  <speed>0.99</speed>
  <fix>3d</fix>
</trkpt>
<trkpt lat="33.8107294" lon="-118.3937595">
  <ele>-25.224</ele>
  <time>2026-09-01T01:17:06Z</time>
  <course>19.93</course>
  <speed>0.9693812459502195</speed>
  <fix>3d</fix>
</trkpt>
<trkpt lat="33.8107282" lon="-118.3937615">
  <ele>-24.6</ele>
  <time>2026-09-01T01:17:06Z</time>
  <course>45.01</course>
  <speed>0.99</speed>
  <fix>3d</fix>
</trkpt>
<trkpt lat="33.81073" lon="-118.3937588">
  <ele>-25.228</ele>
  <time>2026-09-01T01:17:06Z</time>
  <course>19.93</course>
  <speed>0.9693812459502195</speed>
  <fix>3d</fix>
</trkpt>
<trkpt lat="33.8107294" lon="-118.39376">
  <ele>-24.61</ele>
  <time>2026-09-01T01:17:06Z</time>
  <course>45.03</course>
  <speed>0.99</speed>
  <fix>3d</fix>
</trkpt>
<trkpt lat="33.8107306" lon="-118.393758">
  <ele>-25.231</ele>
  <time>2026-09-01T01:17:06Z</time>
  <course>19.93</course>
  <speed>0.9693812459502195</speed>
  <fix>3d</fix>
</trkpt>
<trkpt lat="33.8107294" lon="-118.39376">
  <ele>-24.61</ele>
  <time>2026-09-01T01:17:06Z</time>
  <course>45.03</course>
  <speed>0.99</speed>
  <fix>3d</fix>
</trkpt>
<trkpt lat="33.8107313" lon="-118.3937572">
  <ele>-25.234</ele>
  <time>2026-09-01T01:17:06Z</time>
  <course>19.93</course>
  <speed>0.9693812459502195</speed>
  <fix>3d</fix>
</trkpt>
<trkpt lat="33.8107307" lon="-118.3937585">
  <ele>-24.61</ele>
  <time>2026-09-01T01:17:06Z</time>
  <course>45.05</course>
  <speed>0.98</speed>
  <fix>3d</fix>
</trkpt>
<trkpt lat="33.8107319" lon="-118.3937565">
  <ele>-25.237</ele>
  <time>2026-09-01T01:17:06Z</time>
  <course>19.93</course>
  <speed>0.9693812459502195</speed>
  <fix>3d</fix>
</trkpt>
<trkpt lat="33.8107307" lon="-118.3937585">
  <ele>-24.61</ele>
  <time>2026-09-01T01:17:06Z</time>
  <course>45.05</course>
  <speed>0.98</speed>
  <fix>3d</fix>
</trkpt>
<trkpt lat="33.8107325" lon="-118.3937557">
  <ele>-25.24</ele>
  <time>2026-09-01T01:17:06Z</time>
  <course>19.93</course>
  <speed>0.9693812459502195</speed>
  <fix>3d</fix>
</trkpt>
<trkpt lat="33.8107319" lon="-118.3937569">
  <ele>-24.62</ele>
  <time>2026-09-01T01:17:06Z</time>
  <course>45.07</course>
  <speed>0.98</speed>
  <fix>3d</fix>
</trkpt>
<trkpt lat="33.8107331" lon="-118.393755">
  <ele>-25.243</ele>
  <time>2026-09-01T01:17:06Z</time>
  <course>19.93</course>
  <speed>0.9693812459502195</speed>
  <fix>3d</fix>
</trkpt>
<trkpt lat="33.8107319" lon="-118.3937569">
  <ele>-24.62</ele>
  <time>2026-09-01T01:17:06Z</time>
  <course>45.07</course>
  <speed>0.98</speed>
  <fix>3d</fix>
</trkpt>
<trkpt lat="33.8107338" lon="-118.3937542">
  <ele>-25.247</ele>
  <time>2026-09-01T01:17:06Z</time>
  <course>19.93</course>
  <speed>0.9693812459502195</speed>
  <fix>3d</fix>
</trkpt>
<trkpt lat="33.8107332" lon="-118.3937554">
  <ele>-24.62</ele>
  <time>2026-09-01T01:17:06Z</time>
  <course>45.06</course>
  <speed>0.98</speed>
  <fix>3d</fix>
</trkpt>
<trkpt lat="33.8107344" lon="-118.3937535">
  <ele>-25.251</ele>
  <time>2026-09-01T01:17:06Z</time>
  <course>19.93</course>
  <speed>0.9693812459502195</speed>
  <fix>3d</fix>
</trkpt>
<trkpt lat="33.8107332" lon="-118.3937554">
  <ele>-24.62</ele>
  <time>2026-09-01T01:17:06Z</time>
  <course>45.06</course>
  <speed>0.98</speed>
  <fix>3d</fix>
</trkpt>
<trkpt lat="33.810735" lon="-118.3937527">
  <ele>-25.255</ele>
  <time>2026-09-01T01:17:06Z</time>
  <course>19.93</course>
  <speed>0.9693812459502195</speed>
  <fix>3d</fix>
</trkpt>
<trkpt lat="33.8107344" lon="-118.3937539">
  <ele>-24.63</ele>
  <time>2026-09-01T01:17:06Z</time>
  <course>45.02</course>
  <speed>0.98</speed>
  <fix>3d</fix>
</trkpt>
<trkpt lat="33.8107356" lon="-118.393752">
  <ele>-25.258</ele>
  <time>2026-09-01T01:17:06Z</time>
  <course>19.93</course>
  <speed>0.9693812459502195</speed>
  <fix>3d</fix>
</trkpt>
<trkpt lat="33.8107344" lon="-118.3937539">
  <ele>-24.63</ele>
  <time>2026-09-01T01:17:06Z</time>
  <course>45.02</course>
  <speed>0.98</speed>
  <fix>3d</fix>
</trkpt>
<trkpt lat="33.8107363" lon="-118.3937512">
  <ele>-25.261</ele>
  <time>2026-09-01T01:17:06Z</time>
  <course>19.93</course>
  <speed>0.9693812459502195</speed>
  <fix>3d</fix>
</trkpt>
<trkpt lat="33.8107357" lon="-118.3937524">
  <ele>-24.63</ele>
  <time>2026-09-01T01:17:06Z</time>
  <course>44.97</course>
  <speed>0.98</speed>
  <fix>3d</fix>
</trkpt>
<trkpt lat="33.8107369" lon="-118.3937505">
  <ele>-25.265</ele>
  <time>2026-09-01T01:17:06Z</time>
  <course>19.94</course>
  <speed>0.9693812459502195</speed>
  <fix>3d</fix>
</trkpt>
<trkpt lat="33.8107357" lon="-118.3937524">
  <ele>-24.63</ele>
  <time>2026-09-01T01:17:06Z</time>
  <course>44.97</course>
  <speed>0.98</speed>
  <fix>3d</fix>
</trkpt>
<trkpt lat="33.8107375" lon="-118.3937497">
  <ele>-25.267</ele>
  <time>2026-09-01T01:17:06Z</time>
  <course>19.93</course>
  <speed>0.9693812459502195</speed>
  <fix>3d</fix>
</trkpt>
<trkpt lat="33.8107369" lon="-118.3937509">
  <ele>-24.64</ele>
  <time>2026-09-01T01:17:06Z</time>
  <course>44.94</course>
  <speed>0.98</speed>
  <fix>3d</fix>
</trkpt>
<trkpt lat="33.8107381" lon="-118.393749">
  <ele>-25.268</ele>
  <time>2026-09-01T01:17:06Z</time>
  <course>19.94</course>
  <speed>0.9693812459502195</speed>
  <fix>3d</fix>
</trkpt>
<trkpt lat="33.8107369" lon="-118.3937509">
  <ele>-24.64</ele>
  <time>2026-09-01T01:17:06Z</time>
  <course>44.94</course>
  <speed>0.98</speed>
  <fix>3d</fix>
</trkpt>
<trkpt lat="33.8107388" lon="-118.3937482">
  <ele>-25.269</ele>
  <time>2026-09-01T01:17:06Z</time>
  <course>19.94</course>
  <speed>0.9693812459502195</speed>
  <fix>3d</fix>
</trkpt>
<trkpt lat="33.8107382" lon="-118.3937494">
  <ele>-24.64</ele>
  <time>2026-09-01T01:17:06Z</time>
  <course>44.91</course>
  <speed>0.98</speed>
  <fix>3d</fix>
</trkpt>
<trkpt lat="33.8107394" lon="-118.3937474">
  <ele>-25.27</ele>
  <time>2026-09-01T01:17:06Z</time>
  <course>19.94</course>
  <speed>0.9693812459502195</speed>
  <fix>3d</fix>
</trkpt>
<trkpt lat="33.8107382" lon="-118.3937494">
  <ele>-24.64</ele>
  <time>2026-09-01T01:17:06Z</time>
  <course>44.91</course>
  <speed>0.98</speed>
  <fix>3d</fix>
</trkpt>
<trkpt lat="33.81074" lon="-118.3937467">
  <ele>-25.271</ele>
  <time>2026-09-01T01:17:06Z</time>
  <course>19.94</course>
  <speed>0.9693812459502195</speed>
  <fix>3d</fix>
</trkpt>
<trkpt lat="33.8107394" lon="-118.3937479">
  <ele>-24.65</ele>
  <time>2026-09-01T01:17:06Z</time>
  <course>44.9</course>
  <speed>0.98</speed>
  <fix>3d</fix>
</trkpt>
<trkpt lat="33.8107407" lon="-118.3937459">
  <ele>-25.273</ele>
  <time>2026-09-01T01:17:06Z</time>
  <course>19.94</course>
  <speed>0.9693812459502195</speed>
  <fix>3d</fix>
</trkpt>
<trkpt lat="33.8107394" lon="-118.3937479">
  <ele>-24.65</ele>
  <time>2026-09-01T01:17:06Z</time>
  <course>44.9</course>
  <speed>0.98</speed>
  <fix>3d</fix>
</trkpt>
<trkpt lat="33.8107413" lon="-118.3937452">
  <ele>-25.274</ele>
  <time>2026-09-01T01:17:06Z</time>
  <course>19.94</course>
  <speed>0.9762171889492625</speed>
  <fix>3d</fix>
</trkpt>
<trkpt lat="33.8107407" lon="-118.3937464">
  <ele>-24.65</ele>
  <time>2026-09-01T01:17:06Z</time>
  <course>44.89</course>
  <speed>0.98</speed>
  <fix>3d</fix>
</trkpt>
<trkpt lat="33.8107419" lon="-118.3937444">
  <ele>-25.276</ele>
  <time>2026-09-01T01:17:06Z</time>
  <course>19.95</course>
  <speed>0.9762171889492625</speed>
  <fix>3d</fix>
</trkpt>
<trkpt lat="33.8107407" lon="-118.3937464">
  <ele>-24.65</ele>
  <time>2026-09-01T01:17:06Z</time>
  <course>44.89</course>
  <speed>0.98</speed>
  <fix>3d</fix>
</trkpt>
<trkpt lat="33.8107426" lon="-118.3937437">
  <ele>-25.28</ele>
  <time>2026-09-01T01:17:06Z</time>
  <course>19.95</course>
  <speed>0.9762171889492625</speed>
  <fix>3d</fix>
</trkpt>
<trkpt lat="33.810742" lon="-118.3937449">
  <ele>-24.66</ele>
  <time>2026-09-01T01:17:06Z</time>
  <course>44.89</course>
  <speed>0.98</speed>
  <fix>3d</fix>
</trkpt>
<trkpt lat="33.8107432" lon="-118.3937429">
  <ele>-25.283</ele>
  <time>2026-09-01T01:17:06Z</time>
  <course>19.95</course>
  <speed>0.9762171889492625</speed>
  <fix>3d</fix>
</trkpt>
<trkpt lat="33.810742" lon="-118.3937449">
  <ele>-24.66</ele>
  <time>2026-09-01T01:17:06Z</time>
  <course>44.89</course>
  <speed>0.98</speed>
  <fix>3d</fix>
</trkpt>
<trkpt lat="33.8107438" lon="-118.3937422">
  <ele>-25.286</ele>
  <time>2026-09-01T01:17:06Z</time>
  <course>19.95</course>
  <speed>0.9762171889492625</speed>
  <fix>3d</fix>
</trkpt>
<trkpt lat="33.8107432" lon="-118.3937434">
  <ele>-24.66</ele>
  <time>2026-09-01T01:17:06Z</time>
  <course>44.92</course>
  <speed>0.98</speed>
  <fix>3d</fix>
</trkpt>
<trkpt lat="33.8107445" lon="-118.3937414">
  <ele>-25.289</ele>
  <time>2026-09-01T01:17:06Z</time>
  <course>19.95</course>
  <speed>0.9693812459502195</speed>
  <fix>3d</fix>
</trkpt>
<trkpt lat="33.8107432" lon="-118.3937434">
  <ele>-24.66</ele>
  <time>2026-09-01T01:17:06Z</time>
  <course>44.92</course>
  <speed>0.98</speed>
  <fix>3d</fix>
</trkpt>
<trkpt lat="33.8107451" lon="-118.3937406">
  <ele>-25.292</ele>
  <time>2026-09-01T01:17:06Z</time>
  <course>19.95</course>
  <speed>0.9762171889492625</speed>
  <fix>3d</fix>
</trkpt>
<trkpt lat="33.8107445" lon="-118.3937419">
  <ele>-24.67</ele>
  <time>2026-09-01T01:17:06Z</time>
  <course>44.96</course>
  <speed>0.98</speed>
  <fix>3d</fix>
</trkpt>
<trkpt lat="33.8107457" lon="-118.3937399">
  <ele>-25.295</ele>
  <time>2026-09-01T01:17:06Z</time>
  <course>19.95</course>
  <speed>0.9762171889492625</speed>
  <fix>3d</fix>
</trkpt>
<trkpt lat="33.8107445" lon="-118.3937419">
  <ele>-24.67</ele>
  <time>2026-09-01T01:17:06Z</time>
  <course>44.96</course>
  <speed>0.98</speed>
  <fix>3d</fix>
</trkpt>
<trkpt lat="33.8107463" lon="-118.3937391">
  <ele>-25.299</ele>
  <time>2026-09-01T01:17:06Z</time>
  <course>19.95</course>
  <speed>0.9762171889492625</speed>
  <fix>3d</fix>
</trkpt>
<trkpt lat="33.8107457" lon="-118.3937404">
  <ele>-24.68</ele>
  <time>2026-09-01T01:17:06Z</time>
  <course>44.98</course>
  <speed>0.98</speed>
  <fix>3d</fix>
</trkpt>
<trkpt lat="33.810747" lon="-118.3937384">
  <ele>-25.302</ele>
  <time>2026-09-01T01:17:06Z</time>
  <course>19.96</course>
  <speed>0.9762171889492625</speed>
  <fix>3d</fix>
</trkpt>
<trkpt lat="33.8107457" lon="-118.3937404">
  <ele>-24.68</ele>
  <time>2026-09-01T01:17:06Z</time>
  <course>44.98</course>
  <speed>0.98</speed>
  <fix>3d</fix>
</trkpt>
<trkpt lat="33.8107476" lon="-118.3937376">
  <ele>-25.306</ele>
  <time>2026-09-01T01:17:06Z</time>
  <course>19.96</course>
  <speed>0.9762171889492625</speed>
  <fix>3d</fix>
</trkpt>
<trkpt lat="33.810747" lon="-118.3937389">
  <ele>-24.68</ele>
  <time>2026-09-01T01:17:06Z</time>
  <course>45.0</course>
  <speed>0.98</speed>
  <fix>3d</fix>
</trkpt>
<trkpt lat="33.8107482" lon="-118.3937369">
  <ele>-25.309</ele>
  <time>2026-09-01T01:17:06Z</time>
  <course>19.96</course>
  <speed>0.9762171889492625</speed>
  <fix>3d</fix>
</trkpt>
<trkpt lat="33.810747" lon="-118.3937389">
  <ele>-24.68</ele>
  <time>2026-09-01T01:17:06Z</time>
  <course>45.0</course>
  <speed>0.98</speed>
  <fix>3d</fix>
</trkpt>
<trkpt lat="33.8107489" lon="-118.3937361">
  <ele>-25.312</ele>
  <time>2026-09-01T01:17:06Z</time>
  <course>19.96</course>
  <speed>0.9762171889492625</speed>
  <fix>3d</fix>
</trkpt>
<trkpt lat="33.8107483" lon="-118.3937373">
  <ele>-24.69</ele>
  <time>2026-09-01T01:17:06Z</time>
  <course>45.02</course>
  <speed>0.98</speed>
  <fix>3d</fix>
</trkpt>
<trkpt lat="33.8107495" lon="-118.3937354">
  <ele>-25.315</ele>
  <time>2026-09-01T01:17:06Z</time>
  <course>19.96</course>
  <speed>0.9762171889492625</speed>
  <fix>3d</fix>
</trkpt>
<trkpt lat="33.8107483" lon="-118.3937373">
  <ele>-24.69</ele>
  <time>2026-09-01T01:17:06Z</time>
  <course>45.02</course>
  <speed>0.98</speed>
  <fix>3d</fix>
</trkpt>
<trkpt lat="33.8107501" lon="-118.3937346">
  <ele>-25.317</ele>
  <time>2026-09-01T01:17:06Z</time>
  <course>19.96</course>
  <speed>0.9762171889492625</speed>
  <fix>3d</fix>
</trkpt>
<trkpt lat="33.8107495" lon="-118.3937358">
  <ele>-24.7</ele>
  <time>2026-09-01T01:17:06Z</time>
  <course>45.03</course>
  <speed>0.98</speed>
  <fix>3d</fix>
</trkpt>
<trkpt lat="33.8107507" lon="-118.3937339">
  <ele>-25.317</ele>
  <time>2026-09-01T01:17:06Z</time>
  <course>19.96</course>
  <speed>0.9762171889492625</speed>
  <fix>3d</fix>
</trkpt>
<trkpt lat="33.8107495" lon="-118.3937358">
  <ele>-24.7</ele>
  <time>2026-09-01T01:17:06Z</time>
  <course>45.03</course>
  <speed>0.98</speed>
  <fix>3d</fix>
</trkpt>
<trkpt lat="33.8107514" lon="-118.3937331">
  <ele>-25.318</ele>
  <time>2026-09-01T01:17:06Z</time>
  <course>19.96</course>
  <speed>0.9762171889492625</speed>
  <fix>3d</fix>
</trkpt>
<trkpt lat="33.8107508" lon="-118.3937343">
  <ele>-24.7</ele>
  <time>2026-09-01T01:17:06Z</time>
  <course>45.01</course>
  <speed>0.99</speed>
  <fix>3d</fix>
</trkpt>
<trkpt lat="33.810752" lon="-118.3937323">
  <ele>-25.318</ele>
  <time>2026-09-01T01:17:06Z</time>
  <course>19.96</course>
  <speed>0.9762171889492625</speed>
  <fix>3d</fix>
</trkpt>
<trkpt lat="33.8107508" lon="-118.3937343">
  <ele>-24.7</ele>
  <time>2026-09-01T01:17:06Z</time>
  <course>45.01</course>
  <speed>0.99</speed>
  <fix>3d</fix>
</trkpt>
<trkpt lat="33.8107526" lon="-118.3937316">
  <ele>-25.32</ele>
  <time>2026-09-01T01:17:06Z</time>
  <course>19.97</course>
  <speed>0.9762171889492625</speed>
  <fix>3d</fix>
</trkpt>
<trkpt lat="33.810752" lon="-118.3937328">
  <ele>-24.71</ele>
  <time>2026-09-01T01:17:06Z</time>
  <course>44.99</course>
  <speed>0.99</speed>
  <fix>3d</fix>
</trkpt>
<trkpt lat="33.8107533" lon="-118.3937308">
  <ele>-25.322</ele>
  <time>2026-09-01T01:17:06Z</time>
  <course>19.96</course>
  <speed>0.9762171889492625</speed>
  <fix>3d</fix>
</trkpt>
<trkpt lat="33.810752" lon="-118.3937328">
  <ele>-24.71</ele>
  <time>2026-09-01T01:17:06Z</time>
  <course>44.99</course>
  <speed>0.99</speed>
  <fix>3d</fix>
</trkpt>
<trkpt lat="33.8107539" lon="-118.3937301">
  <ele>-25.325</ele>
  <time>2026-09-01T01:17:06Z</time>
  <course>19.96</course>
  <speed>0.9762171889492625</speed>
  <fix>3d</fix>
</trkpt>
<trkpt lat="33.8107533" lon="-118.3937313">
  <ele>-24.71</ele>
  <time>2026-09-01T01:17:06Z</time>
  <course>44.97</course>
  <speed>0.99</speed>
  <fix>3d</fix>
</trkpt>
<trkpt lat="33.8107545" lon="-118.3937293">
  <ele>-25.328</ele>
  <time>2026-09-01T01:17:06Z</time>
  <course>19.97</course>
  <speed>0.9835141076771599</speed>
  <fix>3d</fix>
</trkpt>
<trkpt lat="33.8107533" lon="-118.3937313">
  <ele>-24.71</ele>
  <time>2026-09-01T01:17:06Z</time>
  <course>44.97</course>
  <speed>0.99</speed>
  <fix>3d</fix>
</trkpt>
<trkpt lat="33.8107552" lon="-118.3937286">
  <ele>-25.331</ele>
  <time>2026-09-01T01:17:06Z</time>
  <course>19.96</course>
  <speed>0.9835141076771599</speed>
  <fix>3d</fix>
</trkpt>
<trkpt lat="33.8107545" lon="-118.3937298">
  <ele>-24.71</ele>
  <time>2026-09-01T01:17:06Z</time>
  <course>44.96</course>
  <speed>0.99</speed>
  <fix>3d</fix>
</trkpt>
<trkpt lat="33.8107558" lon="-118.3937278">
  <ele>-25.333</ele>
  <time>2026-09-01T01:17:06Z</time>
  <course>19.96</course>
  <speed>0.9835141076771599</speed>
  <fix>3d</fix>
</trkpt>
<trkpt lat="33.8107545" lon="-118.3937298">
  <ele>-24.71</ele>
  <time>2026-09-01T01:17:06Z</time>
  <course>44.96</course>
  <speed>0.99</speed>
  <fix>3d</fix>
</trkpt>
<trkpt lat="33.8107564" lon="-118.393727">
  <ele>-25.335</ele>
  <time>2026-09-01T01:17:06Z</time>
  <course>19.96</course>
  <speed>0.9835141076771599</speed>
  <fix>3d</fix>
</trkpt>
<trkpt lat="33.8107558" lon="-118.3937283">
  <ele>-24.72</ele>
  <time>2026-09-01T01:17:06Z</time>
  <course>44.96</course>
  <speed>0.99</speed>
  <fix>3d</fix>
</trkpt>
<trkpt lat="33.810757" lon="-118.3937263">
  <ele>-25.338</ele>
  <time>2026-09-01T01:17:06Z</time>
  <course>19.96</course>
  <speed>0.9835141076771599</speed>
  <fix>3d</fix>
</trkpt>
<trkpt lat="33.8107558" lon="-118.3937283">
  <ele>-24.72</ele>
  <time>2026-09-01T01:17:06Z</time>
  <course>44.96</course>
  <speed>0.99</speed>
  <fix>3d</fix>
</trkpt>
<trkpt lat="33.8107577" lon="-118.3937255">
  <ele>-25.341</ele>
  <time>2026-09-01T01:17:06Z</time>
  <course>19.96</course>
  <speed>0.9835141076771599</speed>
  <fix>3d</fix>
</trkpt>
<trkpt lat="33.810757" lon="-118.3937267">
  <ele>-24.72</ele>
  <time>2026-09-01T01:17:06Z</time>
  <course>44.96</course>
  <speed>1.0</speed>
  <fix>3d</fix>
</trkpt>
<trkpt lat="33.8107583" lon="-118.3937248">
  <ele>-25.343</ele>
  <time>2026-09-01T01:17:06Z</time>
  <course>19.97</course>
  <speed>0.9903534722511957</speed>
  <fix>3d</fix>
</trkpt>
<trkpt lat="33.810757" lon="-118.3937267">
  <ele>-24.72</ele>
  <time>2026-09-01T01:17:06Z</time>
  <course>44.96</course>
  <speed>1.0</speed>
  <fix>3d</fix>
</trkpt>
<trkpt lat="33.8107589" lon="-118.393724">
  <ele>-25.346</ele>
  <time>2026-09-01T01:17:06Z</time>
  <course>19.97</course>
  <speed>0.9903534722511957</speed>
  <fix>3d</fix>
</trkpt>
<trkpt lat="33.8107583" lon="-118.3937252">
  <ele>-24.73</ele>
  <time>2026-09-01T01:17:06Z</time>
  <course>44.94</course>
  <speed>1.0</speed>
  <fix>3d</fix>
</trkpt>
<trkpt lat="33.8107596" lon="-118.3937232">
  <ele>-25.348</ele>
  <time>2026-09-01T01:17:06Z</time>
  <course>19.97</course>
  <speed>0.9903534722511957</speed>
  <fix>3d</fix>
</trkpt>
<trkpt lat="33.8107583" lon="-118.3937252">
  <ele>-24.73</ele>
  <time>2026-09-01T01:17:06Z</time>
  <course>44.94</course>
  <speed>1.0</speed>
  <fix>3d</fix>
</trkpt>
<trkpt lat="33.8107602" lon="-118.3937225">
  <ele>-25.351</ele>
  <time>2026-09-01T01:17:06Z</time>
  <course>19.97</course>
  <speed>0.9903534722511957</speed>
  <fix>3d</fix>
</trkpt>
<trkpt lat="33.8107596" lon="-118.3937237">
  <ele>-24.73</ele>
  <time>2026-09-01T01:17:06Z</time>
  <course>44.88</course>
  <speed>1.0</speed>
  <fix>3d</fix>
</trkpt>
<trkpt lat="33.8107608" lon="-118.3937217">
  <ele>-25.354</ele>
  <time>2026-09-01T01:17:06Z</time>
  <course>19.96</course>
  <speed>0.9903534722511957</speed>
  <fix>3d</fix>
</trkpt>
<trkpt lat="33.8107596" lon="-118.3937237">
  <ele>-24.73</ele>
  <time>2026-09-01T01:17:06Z</time>
  <course>44.88</course>
  <speed>1.0</speed>
  <fix>3d</fix>
</trkpt>
<trkpt lat="33.8107615" lon="-118.3937209">
  <ele>-25.358</ele>
  <time>2026-09-01T01:17:06Z</time>
  <course>19.97</course>
  <speed>0.9903534722511957</speed>
  <fix>3d</fix>
</trkpt>
<trkpt lat="33.8107609" lon="-118.3937221">
  <ele>-24.74</ele>
  <time>2026-09-01T01:17:06Z</time>
  <course>44.84</course>
  <speed>1.0</speed>
  <fix>3d</fix>
</trkpt>
<trkpt lat="33.8107621" lon="-118.3937202">
  <ele>-25.361</ele>
  <time>2026-09-01T01:17:06Z</time>
  <course>19.97</course>
  <speed>0.9903534722511957</speed>
  <fix>3d</fix>
</trkpt>
<trkpt lat="33.8107609" lon="-118.3937221">
  <ele>-24.74</ele>
  <time>2026-09-01T01:17:06Z</time>
  <course>44.84</course>
  <speed>1.0</speed>
  <fix>3d</fix>
</trkpt>
<trkpt lat="33.8107627" lon="-118.3937194">
  <ele>-25.365</ele>
  <time>2026-09-01T01:17:06Z</time>
  <course>19.97</course>
  <speed>0.9903534722511957</speed>
  <fix>3d</fix>
</trkpt>
<trkpt lat="33.8107622" lon="-118.3937206">
  <ele>-24.74</ele>
  <time>2026-09-01T01:17:06Z</time>
  <course>44.82</course>
  <speed>1.0</speed>
  <fix>3d</fix>
</trkpt>
<trkpt lat="33.8107634" lon="-118.3937187">
  <ele>-25.369</ele>
  <time>2026-09-01T01:17:06Z</time>
  <course>19.96</course>
  <speed>0.9903534722511957</speed>
  <fix>3d</fix>
</trkpt>
<trkpt lat="33.8107622" lon="-118.3937206">
  <ele>-24.74</ele>
  <time>2026-09-01T01:17:06Z</time>
  <course>44.82</course>
  <speed>1.0</speed>
  <fix>3d</fix>
</trkpt>
<trkpt lat="33.810764" lon="-118.3937179">
  <ele>-25.374</ele>
  <time>2026-09-01T01:17:06Z</time>
  <course>19.96</course>
  <speed>0.9903534722511957</speed>
  <fix>3d</fix>
</trkpt>
<trkpt lat="33.8107635" lon="-118.3937191">
  <ele>-24.75</ele>
  <time>2026-09-01T01:17:06Z</time>
  <course>44.83</course>
  <speed>1.0</speed>
  <fix>3d</fix>
</trkpt>
<trkpt lat="33.8107647" lon="-118.3937171">
  <ele>-25.378</ele>
  <time>2026-09-01T01:17:06Z</time>
  <course>19.96</course>
  <speed>0.9835141076771599</speed>
  <fix>3d</fix>
</trkpt>
<trkpt lat="33.8107635" lon="-118.3937191">
  <ele>-24.75</ele>
  <time>2026-09-01T01:17:06Z</time>
  <course>44.83</course>
  <speed>1.0</speed>
  <fix>3d</fix>
</trkpt>
<trkpt lat="33.8107653" lon="-118.3937164">
  <ele>-25.384</ele>
  <time>2026-09-01T01:17:06Z</time>
  <course>19.96</course>
  <speed>0.9835141076771599</speed>
  <fix>3d</fix>
</trkpt>
<trkpt lat="33.8107647" lon="-118.3937175">
  <ele>-24.76</ele>
  <time>2026-09-01T01:17:06Z</time>
  <course>44.86</course>
  <speed>1.0</speed>
  <fix>3d</fix>
</trkpt>
<trkpt lat="33.8107659" lon="-118.3937156">
  <ele>-25.389</ele>
  <time>2026-09-01T01:17:06Z</time>
  <course>19.96</course>
  <speed>0.9835141076771599</speed>
  <fix>3d</fix>
</trkpt>
<trkpt lat="33.8107647" lon="-118.3937175">
  <ele>-24.76</ele>
  <time>2026-09-01T01:17:06Z</time>
  <course>44.86</course>
  <speed>1.0</speed>
  <fix>3d</fix>
</trkpt>
<trkpt lat="33.8107666" lon="-118.3937148">
  <ele>-25.393</ele>
  <time>2026-09-01T01:17:06Z</time>
  <course>19.96</course>
  <speed>0.9835141076771599</speed>
  <fix>3d</fix>
</trkpt>
<trkpt lat="33.810766" lon="-118.393716">
  <ele>-24.76</ele>
  <time>2026-09-01T01:17:06Z</time>
  <course>44.88</course>
  <speed>1.0</speed>
  <fix>3d</fix>
</trkpt>
<trkpt lat="33.8107672" lon="-118.3937141">
  <ele>-25.396</ele>
  <time>2026-09-01T01:17:06Z</time>
  <course>19.97</course>
  <speed>0.9835141076771599</speed>
  <fix>3d</fix>
</trkpt>
<trkpt lat="33.810766" lon="-118.393716">
  <ele>-24.76</ele>
  <time>2026-09-01T01:17:06Z</time>
  <course>44.88</course>
  <speed>1.0</speed>
  <fix>3d</fix>
</trkpt>
<trkpt lat="33.8107679" lon="-118.3937133">
  <ele>-25.397</ele>
  <time>2026-09-01T01:17:06Z</time>
  <course>19.97</course>
  <speed>0.9835141076771599</speed>
  <fix>3d</fix>
</trkpt>
<trkpt lat="33.8107673" lon="-118.3937145">
  <ele>-24.77</ele>
  <time>2026-09-01T01:17:06Z</time>
  <course>44.85</course>
  <speed>1.0</speed>
  <fix>3d</fix>
</trkpt>
<trkpt lat="33.8107685" lon="-118.3937126">
  <ele>-25.398</ele>
  <time>2026-09-01T01:17:06Z</time>
  <course>19.97</course>
  <speed>0.9835141076771599</speed>
  <fix>3d</fix>
</trkpt>
<trkpt lat="33.8107673" lon="-118.3937145">
  <ele>-24.77</ele>
  <time>2026-09-01T01:17:06Z</time>
  <course>44.85</course>
  <speed>1.0</speed>
  <fix>3d</fix>
</trkpt>
<trkpt lat="33.8107691" lon="-118.3937118">
  <ele>-25.399</ele>
  <time>2026-09-01T01:17:06Z</time>
  <course>19.97</course>
  <speed>0.9835141076771599</speed>
  <fix>3d</fix>
</trkpt>
<trkpt lat="33.8107685" lon="-118.393713">
  <ele>-24.77</ele>
  <time>2026-09-01T01:17:06Z</time>
  <course>44.84</course>
  <speed>0.99</speed>
  <fix>3d</fix>
</trkpt>
<trkpt lat="33.8107698" lon="-118.393711">
  <ele>-25.4</ele>
  <time>2026-09-01T01:17:06Z</time>
  <course>19.97</course>
  <speed>0.9835141076771599</speed>
  <fix>3d</fix>
</trkpt>
<trkpt lat="33.8107685" lon="-118.393713">
  <ele>-24.77</ele>
  <time>2026-09-01T01:17:06Z</time>
  <course>44.84</course>
  <speed>0.99</speed>
  <fix>3d</fix>
</trkpt>
<trkpt lat="33.8107704" lon="-118.3937103">
  <ele>-25.401</ele>
  <time>2026-09-01T01:17:06Z</time>
  <course>19.97</course>
  <speed>0.9903534722511957</speed>
  <fix>3d</fix>
</trkpt>
<trkpt lat="33.8107698" lon="-118.3937114">
  <ele>-24.78</ele>
  <time>2026-09-01T01:17:06Z</time>
  <course>44.86</course>
  <speed>1.0</speed>
  <fix>3d</fix>
</trkpt>
<trkpt lat="33.810771" lon="-118.3937095">
  <ele>-25.402</ele>
  <time>2026-09-01T01:17:06Z</time>
  <course>19.97</course>
  <speed>0.9835141076771599</speed>
  <fix>3d</fix>
</trkpt>
<trkpt lat="33.8107698" lon="-118.3937114">
  <ele>-24.78</ele>
  <time>2026-09-01T01:17:06Z</time>
  <course>44.86</course>
  <speed>1.0</speed>
  <fix>3d</fix>
</trkpt>
<trkpt lat="33.8107717" lon="-118.3937087">
  <ele>-25.403</ele>
  <time>2026-09-01T01:17:06Z</time>
  <course>19.97</course>
  <speed>0.9835141076771599</speed>
  <fix>3d</fix>
</trkpt>
<trkpt lat="33.8107711" lon="-118.3937099">
  <ele>-24.78</ele>
  <time>2026-09-01T01:17:06Z</time>
  <course>44.85</course>
  <speed>1.0</speed>
  <fix>3d</fix>
</trkpt>
<trkpt lat="33.8107723" lon="-118.393708">
  <ele>-25.406</ele>
  <time>2026-09-01T01:17:06Z</time>
  <course>19.97</course>
  <speed>0.9835141076771599</speed>
  <fix>3d</fix>
</trkpt>
<trkpt lat="33.8107711" lon="-118.3937099">
  <ele>-24.78</ele>
  <time>2026-09-01T01:17:06Z</time>
  <course>44.85</course>
  <speed>1.0</speed>
  <fix>3d</fix>
</trkpt>
<trkpt lat="33.8107729" lon="-118.3937072">
  <ele>-25.408</ele>
  <time>2026-09-01T01:17:06Z</time>
  <course>19.97</course>
  <speed>0.9835141076771599</speed>
  <fix>3d</fix>
</trkpt>
<trkpt lat="33.8107724" lon="-118.3937084">
  <ele>-24.78</ele>
  <time>2026-09-01T01:17:06Z</time>
  <course>44.83</course>
  <speed>1.0</speed>
  <fix>3d</fix>
</trkpt>
<trkpt lat="33.8107736" lon="-118.3937065">
  <ele>-25.412</ele>
  <time>2026-09-01T01:17:06Z</time>
  <course>19.97</course>
  <speed>0.9835141076771599</speed>
  <fix>3d</fix>
</trkpt>
<trkpt lat="33.8107724" lon="-118.3937084">
  <ele>-24.78</ele>
  <time>2026-09-01T01:17:06Z</time>
  <course>44.83</course>
  <speed>1.0</speed>
  <fix>3d</fix>
</trkpt>
<trkpt lat="33.8107742" lon="-118.3937057">
  <ele>-25.415</ele>
  <time>2026-09-01T01:17:06Z</time>
  <course>19.96</course>
  <speed>0.9835141076771599</speed>
  <fix>3d</fix>
</trkpt>
<trkpt lat="33.8107737" lon="-118.3937068">
  <ele>-24.79</ele>
  <time>2026-09-01T01:17:06Z</time>
  <course>44.82</course>
  <speed>0.99</speed>
  <fix>3d</fix>
</trkpt>
<trkpt lat="33.8107749" lon="-118.3937049">
  <ele>-25.419</ele>
  <time>2026-09-01T01:17:06Z</time>
  <course>19.97</course>
  <speed>0.9835141076771599</speed>
  <fix>3d</fix>
</trkpt>
<trkpt lat="33.8107737" lon="-118.3937068">
  <ele>-24.79</ele>
  <time>2026-09-01T01:17:06Z</time>
  <course>44.82</course>
  <speed>0.99</speed>
  <fix>3d</fix>
</trkpt>
<trkpt lat="33.8107755" lon="-118.3937042">
  <ele>-25.422</ele>
  <time>2026-09-01T01:17:06Z</time>
  <course>19.97</course>
  <speed>0.9835141076771599</speed>
  <fix>3d</fix>
</trkpt>
<trkpt lat="33.8107749" lon="-118.3937053">
  <ele>-24.79</ele>
  <time>2026-09-01T01:17:06Z</time>
  <course>44.84</course>
  <speed>0.99</speed>
  <fix>3d</fix>
</trkpt>
<trkpt lat="33.8107761" lon="-118.3937034">
  <ele>-25.425</ele>
  <time>2026-09-01T01:17:06Z</time>
  <course>19.97</course>
  <speed>0.9835141076771599</speed>
  <fix>3d</fix>
</trkpt>
<trkpt lat="33.8107749" lon="-118.3937053">
  <ele>-24.79</ele>
  <time>2026-09-01T01:17:06Z</time>
  <course>44.84</course>
  <speed>0.99</speed>
  <fix>3d</fix>
</trkpt>
<trkpt lat="33.8107768" lon="-118.3937026">
  <ele>-25.428</ele>
  <time>2026-09-01T01:17:06Z</time>
  <course>19.97</course>
  <speed>0.9835141076771599</speed>
  <fix>3d</fix>
</trkpt>
<trkpt lat="33.8107762" lon="-118.3937038">
  <ele>-24.8</ele>
  <time>2026-09-01T01:17:06Z</time>
  <course>44.85</course>
  <speed>0.99</speed>
  <fix>3d</fix>
</trkpt>
<trkpt lat="33.8107774" lon="-118.3937019">
  <ele>-25.43</ele>
  <time>2026-09-01T01:17:06Z</time>
  <course>19.97</course>
  <speed>0.9835141076771599</speed>
  <fix>3d</fix>
</trkpt>
<trkpt lat="33.8107762" lon="-118.3937038">
  <ele>-24.8</ele>
  <time>2026-09-01T01:17:06Z</time>
  <course>44.85</course>
  <speed>0.99</speed>
  <fix>3d</fix>
</trkpt>
<trkpt lat="33.810778" lon="-118.3937011">
  <ele>-25.433</ele>
  <time>2026-09-01T01:17:06Z</time>
  <course>19.97</course>
  <speed>0.9835141076771599</speed>
  <fix>3d</fix>
</trkpt>
<trkpt lat="33.8107775" lon="-118.3937023">
  <ele>-24.81</ele>
  <time>2026-09-01T01:17:06Z</time>
  <course>44.84</course>
  <speed>0.99</speed>
  <fix>3d</fix>
</trkpt>
<trkpt lat="33.8107787" lon="-118.3937003">
  <ele>-25.436</ele>
  <time>2026-09-01T01:17:06Z</time>
  <course>19.97</course>
  <speed>0.9835141076771599</speed>
  <fix>3d</fix>
</trkpt>
<trkpt lat="33.8107775" lon="-118.3937023">
  <ele>-24.81</ele>
  <time>2026-09-01T01:17:06Z</time>
  <course>44.84</course>
  <speed>0.99</speed>
  <fix>3d</fix>
</trkpt>
<trkpt lat="33.8107793" lon="-118.3936996">
  <ele>-25.44</ele>
  <time>2026-09-01T01:17:06Z</time>
  <course>19.97</course>
  <speed>0.9835141076771599</speed>
  <fix>3d</fix>
</trkpt>
<trkpt lat="33.8107787" lon="-118.3937008">
  <ele>-24.81</ele>
  <time>2026-09-01T01:17:06Z</time>
  <course>44.86</course>
  <speed>0.99</speed>
  <fix>3d</fix>
</trkpt>
<trkpt lat="33.8107799" lon="-118.3936988">
  <ele>-25.445</ele>
  <time>2026-09-01T01:17:06Z</time>
  <course>19.98</course>
  <speed>0.9835141076771599</speed>
  <fix>3d</fix>
</trkpt>
<trkpt lat="33.8107787" lon="-118.3937008">
  <ele>-24.81</ele>
  <time>2026-09-01T01:17:06Z</time>
  <course>44.86</course>
  <speed>0.99</speed>
  <fix>3d</fix>
</trkpt>
<trkpt lat="33.8107806" lon="-118.3936981">
  <ele>-25.45</ele>
  <time>2026-09-01T01:17:06Z</time>
  <course>19.97</course>
  <speed>0.9835141076771599</speed>
  <fix>3d</fix>
</trkpt>
<trkpt lat="33.81078" lon="-118.3936992">
  <ele>-24.82</ele>
  <time>2026-09-01T01:17:06Z</time>
  <course>44.88</course>
  <speed>0.99</speed>
  <fix>3d</fix>
</trkpt>
<trkpt lat="33.8107812" lon="-118.3936973">
  <ele>-25.454</ele>
  <time>2026-09-01T01:17:06Z</time>
  <course>19.97</course>
  <speed>0.9835141076771599</speed>
  <fix>3d</fix>
</trkpt>
<trkpt lat="33.81078" lon="-118.3936992">
  <ele>-24.82</ele>
  <time>2026-09-01T01:17:06Z</time>
  <course>44.88</course>
  <speed>0.99</speed>
  <fix>3d</fix>
</trkpt>
<trkpt lat="33.8107818" lon="-118.3936965">
  <ele>-25.458</ele>
  <time>2026-09-01T01:17:06Z</time>
  <course>19.97</course>
  <speed>0.9835141076771599</speed>
  <fix>3d</fix>
</trkpt>
<trkpt lat="33.8107813" lon="-118.3936977">
  <ele>-24.83</ele>
  <time>2026-09-01T01:17:06Z</time>
  <course>44.87</course>
  <speed>0.99</speed>
  <fix>3d</fix>
</trkpt>
<trkpt lat="33.8107825" lon="-118.3936958">
  <ele>-25.461</ele>
  <time>2026-09-01T01:17:06Z</time>
  <course>19.97</course>
  <speed>0.9835141076771599</speed>
  <fix>3d</fix>
</trkpt>
<trkpt lat="33.8107813" lon="-118.3936977">
  <ele>-24.83</ele>
  <time>2026-09-01T01:17:06Z</time>
  <course>44.87</course>
  <speed>0.99</speed>
  <fix>3d</fix>
</trkpt>
<trkpt lat="33.8107831" lon="-118.393695">
  <ele>-25.463</ele>
  <time>2026-09-01T01:17:06Z</time>
  <course>19.97</course>
  <speed>0.9835141076771599</speed>
  <fix>3d</fix>
</trkpt>
<trkpt lat="33.8107825" lon="-118.3936962">
  <ele>-24.83</ele>
  <time>2026-09-01T01:17:06Z</time>
  <course>44.86</course>
  <speed>0.99</speed>
  <fix>3d</fix>
</trkpt>
<trkpt lat="33.8107838" lon="-118.3936942">
  <ele>-25.465</ele>
  <time>2026-09-01T01:17:06Z</time>
  <course>19.97</course>
  <speed>0.9835141076771599</speed>
  <fix>3d</fix>
</trkpt>
<trkpt lat="33.8107825" lon="-118.3936962">
  <ele>-24.83</ele>
  <time>2026-09-01T01:17:06Z</time>
  <course>44.86</course>
  <speed>0.99</speed>
  <fix>3d</fix>
</trkpt>
<trkpt lat="33.8107844" lon="-118.3936935">
  <ele>-25.467</ele>
  <time>2026-09-01T01:17:06Z</time>
  <course>19.98</course>
  <speed>0.9835141076771599</speed>
  <fix>3d</fix>
</trkpt>
<trkpt lat="33.8107838" lon="-118.3936947">
  <ele>-24.84</ele>
  <time>2026-09-01T01:17:06Z</time>
  <course>44.84</course>
  <speed>0.99</speed>
  <fix>3d</fix>
</trkpt>
<trkpt lat="33.810785" lon="-118.3936927">
  <ele>-25.47</ele>
  <time>2026-09-01T01:17:06Z</time>
  <course>19.98</course>
  <speed>0.9835141076771599</speed>
  <fix>3d</fix>
</trkpt>
<trkpt lat="33.8107838" lon="-118.3936947">
  <ele>-24.84</ele>
  <time>2026-09-01T01:17:06Z</time>
  <course>44.84</course>
  <speed>0.99</speed>
  <fix>3d</fix>
</trkpt>
<trkpt lat="33.8107857" lon="-118.393692">
  <ele>-25.473</ele>
  <time>2026-09-01T01:17:06Z</time>
  <course>19.99</course>
  <speed>0.9835141076771599</speed>
  <fix>3d</fix>
</trkpt>
<trkpt lat="33.8107851" lon="-118.3936932">
  <ele>-24.84</ele>
  <time>2026-09-01T01:17:06Z</time>
  <course>44.82</course>
  <speed>0.99</speed>
  <fix>3d</fix>
</trkpt>
<trkpt lat="33.8107863" lon="-118.3936912">
  <ele>-25.476</ele>
  <time>2026-09-01T01:17:06Z</time>
  <course>19.98</course>
  <speed>0.9835141076771599</speed>
  <fix>3d</fix>
</trkpt>
<trkpt lat="33.8107851" lon="-118.3936932">
  <ele>-24.84</ele>
  <time>2026-09-01T01:17:06Z</time>
  <course>44.82</course>
  <speed>0.99</speed>
  <fix>3d</fix>
</trkpt>
<trkpt lat="33.8107869" lon="-118.3936904">
  <ele>-25.479</ele>
  <time>2026-09-01T01:17:06Z</time>
  <course>19.98</course>
  <speed>0.9835141076771599</speed>
  <fix>3d</fix>
</trkpt>
<trkpt lat="33.8107864" lon="-118.3936916">
  <ele>-24.85</ele>
  <time>2026-09-01T01:17:06Z</time>
  <course>44.84</course>
  <speed>0.99</speed>
  <fix>3d</fix>
</trkpt>
<trkpt lat="33.8107876" lon="-118.3936897">
  <ele>-25.48</ele>
  <time>2026-09-01T01:17:06Z</time>
  <course>19.98</course>
  <speed>0.9835141076771599</speed>
  <fix>3d</fix>
</trkpt>
<trkpt lat="33.8107864" lon="-118.3936916">
  <ele>-24.85</ele>
  <time>2026-09-01T01:17:06Z</time>
  <course>44.84</course>
  <speed>0.99</speed>
  <fix>3d</fix>
</trkpt>
<trkpt lat="33.8107882" lon="-118.3936889">
  <ele>-25.481</ele>
  <time>2026-09-01T01:17:06Z</time>
  <course>19.98</course>
  <speed>0.9835141076771599</speed>
  <fix>3d</fix>
</trkpt>
<trkpt lat="33.8107876" lon="-118.3936901">
  <ele>-24.85</ele>
  <time>2026-09-01T01:17:06Z</time>
  <course>44.88</course>
  <speed>0.99</speed>
  <fix>3d</fix>
</trkpt>
<trkpt lat="33.8107888" lon="-118.3936881">
  <ele>-25.481</ele>
  <time>2026-09-01T01:17:06Z</time>
  <course>19.98</course>
  <speed>0.9835141076771599</speed>
  <fix>3d</fix>
</trkpt>
<trkpt lat="33.8107876" lon="-118.3936901">
  <ele>-24.85</ele>
  <time>2026-09-01T01:17:06Z</time>
  <course>44.88</course>
  <speed>0.99</speed>
  <fix>3d</fix>
</trkpt>
<trkpt lat="33.8107895" lon="-118.3936874">
  <ele>-25.481</ele>
  <time>2026-09-01T01:17:06Z</time>
  <course>19.98</course>
  <speed>0.9835141076771599</speed>
  <fix>3d</fix>
</trkpt>
<trkpt lat="33.8107889" lon="-118.3936886">
  <ele>-24.85</ele>
  <time>2026-09-01T01:17:06Z</time>
  <course>44.9</course>
  <speed>0.99</speed>
  <fix>3d</fix>
</trkpt>
<trkpt lat="33.8107901" lon="-118.3936866">
  <ele>-25.482</ele>
  <time>2026-09-01T01:17:06Z</time>
  <course>19.98</course>
  <speed>0.9835141076771599</speed>
  <fix>3d</fix>
</trkpt>
<trkpt lat="33.8107889" lon="-118.3936886">
  <ele>-24.85</ele>
  <time>2026-09-01T01:17:06Z</time>
  <course>44.9</course>
  <speed>0.99</speed>
  <fix>3d</fix>
</trkpt>
<trkpt lat="33.8107907" lon="-118.3936859">
  <ele>-25.484</ele>
  <time>2026-09-01T01:17:06Z</time>
  <course>19.98</course>
  <speed>0.9835141076771599</speed>
  <fix>3d</fix>
</trkpt>
<trkpt lat="33.8107902" lon="-118.3936871">
  <ele>-24.86</ele>
  <time>2026-09-01T01:17:06Z</time>
  <course>44.89</course>
  <speed>0.99</speed>
  <fix>3d</fix>
</trkpt>
<trkpt lat="33.8107914" lon="-118.3936851">
  <ele>-25.486</ele>
  <time>2026-09-01T01:17:06Z</time>
  <course>19.98</course>
  <speed>0.9835141076771599</speed>
  <fix>3d</fix>
</trkpt>
<trkpt lat="33.8107902" lon="-118.3936871">
  <ele>-24.86</ele>
  <time>2026-09-01T01:17:06Z</time>
  <course>44.89</course>
  <speed>0.99</speed>
  <fix>3d</fix>
</trkpt>
<trkpt lat="33.810792" lon="-118.3936843">
  <ele>-25.49</ele>
  <time>2026-09-01T01:17:06Z</time>
  <course>19.99</course>
  <speed>0.9835141076771599</speed>
  <fix>3d</fix>
</trkpt>
<trkpt lat="33.8107915" lon="-118.3936855">
  <ele>-24.86</ele>
  <time>2026-09-01T01:17:06Z</time>
  <course>44.92</course>
  <speed>0.99</speed>
  <fix>3d</fix>
</trkpt>
<trkpt lat="33.8107927" lon="-118.3936836">
  <ele>-25.494</ele>
  <time>2026-09-01T01:17:06Z</time>
  <course>19.98</course>
  <speed>0.9835141076771599</speed>
  <fix>3d</fix>
</trkpt>
<trkpt lat="33.8107915" lon="-118.3936855">
  <ele>-24.86</ele>
  <time>2026-09-01T01:17:06Z</time>
  <course>44.92</course>
  <speed>0.99</speed>
  <fix>3d</fix>
</trkpt>
<trkpt lat="33.8107933" lon="-118.3936828">
  <ele>-25.498</ele>
  <time>2026-09-01T01:17:06Z</time>
  <course>19.97</course>
  <speed>0.9835141076771599</speed>
  <fix>3d</fix>
</trkpt>
<trkpt lat="33.8107927" lon="-118.393684">
  <ele>-24.87</ele>
  <time>2026-09-01T01:17:06Z</time>
  <course>44.95</course>
  <speed>0.99</speed>
  <fix>3d</fix>
</trkpt>
<trkpt lat="33.8107939" lon="-118.3936821">
  <ele>-25.503</ele>
  <time>2026-09-01T01:17:06Z</time>
  <course>19.96</course>
  <speed>0.7310950690573697</speed>
  <fix>3d</fix>
</trkpt>
<trkpt lat="33.8107927" lon="-118.393684">
  <ele>-24.87</ele>
  <time>2026-09-01T01:17:06Z</time>
  <course>44.95</course>
  <speed>0.99</speed>
  <fix>3d</fix>
</trkpt>
<trkpt lat="33.8107942" lon="-118.3936816">
  <ele>-25.507</ele>
  <time>2026-09-01T01:17:06Z</time>
  <course>19.95</course>
  <speed>0.570087712549569</speed>
  <fix>3d</fix>
</trkpt>
<trkpt lat="33.8107939" lon="-118.3936826">
  <ele>-24.88</ele>
  <time>2026-09-01T01:17:06Z</time>
  <course>46.21</course>
  <speed>0.84</speed>
  <fix>3d</fix>
</trkpt>
<trkpt lat="33.8107945" lon="-118.3936812">
  <ele>-25.51</ele>
  <time>2026-09-01T01:17:06Z</time>
  <course>19.94</course>
  <speed>0.4661544808322666</speed>
  <fix>3d</fix>
</trkpt>
<trkpt lat="33.8107939" lon="-118.3936826">
  <ele>-24.88</ele>
  <time>2026-09-01T01:17:06Z</time>
  <course>46.21</course>
  <speed>0.84</speed>
  <fix>3d</fix>
</trkpt>
<trkpt lat="33.8107948" lon="-118.3936808">
  <ele>-25.513</ele>
  <time>2026-09-01T01:17:06Z</time>
  <course>19.93</course>
  <speed>0.3966106403010388</speed>
  <fix>3d</fix>
</trkpt>
<trkpt lat="33.8107948" lon="-118.3936814">
  <ele>-24.88</ele>
  <time>2026-09-01T01:17:06Z</time>
  <course>49.11</course>
  <speed>0.57</speed>
  <fix>3d</fix>
</trkpt>
<trkpt lat="33.810795" lon="-118.3936805">
  <ele>-25.515</ele>
  <time>2026-09-01T01:17:06Z</time>
  <course>19.92</course>
  <speed>0.3466987164671943</speed>
  <fix>3d</fix>
</trkpt>
<trkpt lat="33.8107948" lon="-118.3936814">
  <ele>-24.88</ele>
  <time>2026-09-01T01:17:06Z</time>
  <course>49.11</course>
  <speed>0.57</speed>
  <fix>3d</fix>
</trkpt>
<trkpt lat="33.8107952" lon="-118.3936802">
  <ele>-25.516</ele>
  <time>2026-09-01T01:17:06Z</time>
  <course>19.92</course>
  <speed>0.30528675044947495</speed>
  <fix>3d</fix>
</trkpt>
<trkpt lat="33.8107954" lon="-118.3936806">
  <ele>-24.89</ele>
  <time>2026-09-01T01:17:06Z</time>
  <course>51.45</course>
  <speed>0.4</speed>
  <fix>3d</fix>
</trkpt>
<trkpt lat="33.8107954" lon="-118.3936799">
  <ele>-25.516</ele>
  <time>2026-09-01T01:17:06Z</time>
  <course>19.92</course>
  <speed>0.2692582403567252</speed>
  <fix>3d</fix>
</trkpt>
<trkpt lat="33.8107954" lon="-118.3936806">
  <ele>-24.89</ele>
  <time>2026-09-01T01:17:06Z</time>
  <course>51.45</course>
  <speed>0.4</speed>
  <fix>3d</fix>
</trkpt>
<trkpt lat="33.8107956" lon="-118.3936797">
  <ele>-25.515</ele>
  <time>2026-09-01T01:17:06Z</time>
  <course>19.92</course>
  <speed>0.25553864678361277</speed>
  <fix>3d</fix>
</trkpt>
<trkpt lat="33.8107957" lon="-118.39368">
  <ele>-24.89</ele>
  <time>2026-09-01T01:17:06Z</time>
  <course>52.72</course>
  <speed>0.3</speed>
  <fix>3d</fix>
</trkpt>
<trkpt lat="33.8107957" lon="-118.3936794">
  <ele>-25.514</ele>
  <time>2026-09-01T01:17:06Z</time>
  <course>19.92</course>
  <speed>0.22825424421026652</speed>
  <fix>3d</fix>
</trkpt>
<trkpt lat="33.8107957" lon="-118.39368">
  <ele>-24.89</ele>
  <time>2026-09-01T01:17:06Z</time>
  <course>52.72</course>
  <speed>0.3</speed>
  <fix>3d</fix>
</trkpt>
<trkpt lat="33.8107959" lon="-118.3936792">
  <ele>-25.512</ele>
  <time>2026-09-01T01:17:06Z</time>
  <course>19.92</course>
  <speed>0.21470910553583888</speed>
  <fix>3d</fix>
</trkpt>
<trkpt lat="33.8107961" lon="-118.3936795">
  <ele>-24.89</ele>
  <time>2026-09-01T01:17:06Z</time>
  <course>53.52</course>
  <speed>0.25</speed>
  <fix>3d</fix>
</trkpt>
<trkpt lat="33.810796" lon="-118.393679">
  <ele>-25.51</ele>
  <time>2026-09-01T01:17:06Z</time>
  <course>19.93</course>
  <speed>0.19235384061671343</speed>
  <fix>3d</fix>
</trkpt>
<trkpt lat="33.8107961" lon="-118.3936795">
  <ele>-24.89</ele>
  <time>2026-09-01T01:17:06Z</time>
  <course>53.52</course>
  <speed>0.25</speed>
  <fix>3d</fix>
</trkpt>
<trkpt lat="33.8107961" lon="-118.3936788">
  <ele>-25.507</ele>
  <time>2026-09-01T01:17:06Z</time>
  <course>19.93</course>
  <speed>0.1835755975068582</speed>
  <fix>3d</fix>
</trkpt>
<trkpt lat="33.8107963" lon="-118.3936791">
  <ele>-24.88</ele>
  <time>2026-09-01T01:17:06Z</time>
  <course>54.08</course>
  <speed>0.21</speed>
  <fix>3d</fix>
</trkpt>
<trkpt lat="33.8107962" lon="-118.3936787">
  <ele>-25.503</ele>
  <time>2026-09-01T01:17:06Z</time>
  <course>19.93</course>
  <speed>0.17888543819998318</speed>
  <fix>3d</fix>
</trkpt>
<trkpt lat="33.8107963" lon="-118.3936791">
  <ele>-24.88</ele>
  <time>2026-09-01T01:17:06Z</time>
  <course>54.08</course>
  <speed>0.21</speed>
  <fix>3d</fix>
</trkpt>
<trkpt lat="33.8107963" lon="-118.3936785">
  <ele>-25.498</ele>
  <time>2026-09-01T01:17:06Z</time>
  <course>19.93</course>
  <speed>0.16552945357246848</speed>
  <fix>3d</fix>
</trkpt>
<trkpt lat="33.8107964" lon="-118.3936788">
  <ele>-24.88</ele>
  <time>2026-09-01T01:17:06Z</time>
  <course>54.48</course>
  <speed>0.18</speed>
  <fix>3d</fix>
</trkpt>
<trkpt lat="33.8107964" lon="-118.3936784">
  <ele>-25.493</ele>
  <time>2026-09-01T01:17:06Z</time>
  <course>19.93</course>
  <speed>0.15652475842498528</speed>
  <fix>3d</fix>
</trkpt>
<trkpt lat="33.8107964" lon="-118.3936788">
  <ele>-24.88</ele>
  <time>2026-09-01T01:17:06Z</time>
  <course>54.48</course>
  <speed>0.18</speed>
  <fix>3d</fix>
</trkpt>
<trkpt lat="33.8107965" lon="-118.3936782">
  <ele>-25.487</ele>
  <time>2026-09-01T01:17:06Z</time>
  <course>19.94</course>
  <speed>0.14317821063276354</speed>
  <fix>3d</fix>
</trkpt>
<trkpt lat="33.8107967" lon="-118.3936785">
  <ele>-24.87</ele>
  <time>2026-09-01T01:17:06Z</time>
  <course>54.79</course>
  <speed>0.16</speed>
  <fix>3d</fix>
</trkpt>
<trkpt lat="33.8107966" lon="-118.3936781">
  <ele>-25.479</ele>
  <time>2026-09-01T01:17:06Z</time>
  <course>19.94</course>
  <speed>0.14317821063276354</speed>
  <fix>3d</fix>
</trkpt>
<trkpt lat="33.8107967" lon="-118.3936785">
  <ele>-24.87</ele>
  <time>2026-09-01T01:17:06Z</time>
  <course>54.79</course>
  <speed>0.16</speed>
  <fix>3d</fix>
</trkpt>
<trkpt lat="33.8107967" lon="-118.3936779">
  <ele>-25.471</ele>
  <time>2026-09-01T01:17:06Z</time>
  <course>19.94</course>
  <speed>0.13</speed>
  <fix>3d</fix>
</trkpt>
<trkpt lat="33.8107968" lon="-118.3936782">
  <ele>-24.86</ele>
  <time>2026-09-01T01:17:06Z</time>
  <course>55.03</course>
  <speed>0.14</speed>
  <fix>3d</fix>
</trkpt>
<trkpt lat="33.8107967" lon="-118.3936778">
  <ele>-25.463</ele>
  <time>2026-09-01T01:17:06Z</time>
  <course>19.94</course>
  <speed>0.13</speed>
  <fix>3d</fix>
</trkpt>
<trkpt lat="33.8107968" lon="-118.3936782">
  <ele>-24.86</ele>
  <time>2026-09-01T01:17:06Z</time>
  <course>55.03</course>
  <speed>0.14</speed>
  <fix>3d</fix>
</trkpt>
<trkpt lat="33.8107968" lon="-118.3936777">
  <ele>-25.454</ele>
  <time>2026-09-01T01:17:06Z</time>
  <course>19.94</course>
  <speed>0.13</speed>
  <fix>3d</fix>
</trkpt>
<trkpt lat="33.8107969" lon="-118.393678">
  <ele>-24.85</ele>
  <time>2026-09-01T01:17:06Z</time>
  <course>55.24</course>
  <speed>0.13</speed>
  <fix>3d</fix>
</trkpt>
<trkpt lat="33.8107969" lon="-118.3936776">
  <ele>-25.446</ele>
  <time>2026-09-01T01:17:06Z</time>
  <course>19.94</course>
  <speed>0.11704699910719625</speed>
  <fix>3d</fix>
</trkpt>
<trkpt lat="33.8107969" lon="-118.393678">
  <ele>-24.85</ele>
  <time>2026-09-01T01:17:06Z</time>
  <course>55.24</course>
  <speed>0.13</speed>
  <fix>3d</fix>
</trkpt>
<trkpt lat="33.8107969" lon="-118.3936775">
  <ele>-25.438</ele>
  <time>2026-09-01T01:17:06Z</time>
  <course>19.94</course>
  <speed>0.11704699910719625</speed>
  <fix>3d</fix>
</trkpt>
<trkpt lat="33.8107971" lon="-118.3936778">
  <ele>-24.83</ele>
  <time>2026-09-01T01:17:06Z</time>
  <course>55.4</course>
  <speed>0.11</speed>
  <fix>3d</fix>
</trkpt>
<trkpt lat="33.810797" lon="-118.3936774">
  <ele>-25.431</ele>
  <time>2026-09-01T01:17:06Z</time>
  <course>19.94</course>
  <speed>0.10770329614269007</speed>
  <fix>3d</fix>
</trkpt>
<trkpt lat="33.8107971" lon="-118.3936778">
  <ele>-24.83</ele>
  <time>2026-09-01T01:17:06Z</time>
  <course>55.4</course>
  <speed>0.11</speed>
  <fix>3d</fix>
</trkpt>
<trkpt lat="33.810797" lon="-118.3936773">
  <ele>-25.422</ele>
  <time>2026-09-01T01:17:06Z</time>
  <course>19.94</course>
  <speed>0.10770329614269007</speed>
  <fix>3d</fix>
</trkpt>
<trkpt lat="33.8107972" lon="-118.3936776">
  <ele>-24.82</ele>
  <time>2026-09-01T01:17:06Z</time>
  <course>55.54</course>
  <speed>0.1</speed>
  <fix>3d</fix>
</trkpt>
<trkpt lat="33.8107971" lon="-118.3936772">
  <ele>-25.413</ele>
  <time>2026-09-01T01:17:06Z</time>
  <course>19.94</course>
  <speed>0.1044030650891055</speed>
  <fix>3d</fix>
</trkpt>
<trkpt lat="33.8107972" lon="-118.3936776">
  <ele>-24.82</ele>
  <time>2026-09-01T01:17:06Z</time>
  <course>55.54</course>
  <speed>0.1</speed>
  <fix>3d</fix>
</trkpt>
<trkpt lat="33.8107972" lon="-118.3936771">
  <ele>-25.404</ele>
  <time>2026-09-01T01:17:06Z</time>
  <course>19.94</course>
  <speed>0.1044030650891055</speed>
  <fix>3d</fix>
</trkpt>
<trkpt lat="33.8107973" lon="-118.3936774">
  <ele>-24.81</ele>
  <time>2026-09-01T01:17:06Z</time>
  <course>55.65</course>
  <speed>0.1</speed>
  <fix>3d</fix>
</trkpt>
<trkpt lat="33.8107972" lon="-118.393677">
  <ele>-25.394</ele>
  <time>2026-09-01T01:17:06Z</time>
  <course>19.93</course>
  <speed>0.09486832980505139</speed>
  <fix>3d</fix>
</trkpt>
<trkpt lat="33.8107973" lon="-118.3936774">
  <ele>-24.81</ele>
  <time>2026-09-01T01:17:06Z</time>
  <course>55.65</course>
  <speed>0.1</speed>
  <fix>3d</fix>
</trkpt>
<trkpt lat="33.8107973" lon="-118.3936769">
  <ele>-25.384</ele>
  <time>2026-09-01T01:17:06Z</time>
  <course>19.93</course>
  <speed>0.09486832980505139</speed>
  <fix>3d</fix>
</trkpt>
<trkpt lat="33.8107974" lon="-118.3936771">
  <ele>-24.79</ele>
  <time>2026-09-01T01:17:06Z</time>
  <course>55.75</course>
  <speed>0.09</speed>
  <fix>3d</fix>
</trkpt>
<trkpt lat="33.8107973" lon="-118.3936769">
  <ele>-25.375</ele>
  <time>2026-09-01T01:17:06Z</time>
  <course>19.93</course>
  <speed>0.09486832980505139</speed>
  <fix>3d</fix>
</trkpt>
<trkpt lat="33.8107974" lon="-118.3936771">
  <ele>-24.79</ele>
  <time>2026-09-01T01:17:06Z</time>
  <course>55.75</course>
  <speed>0.09</speed>
  <fix>3d</fix>
</trkpt>
<trkpt lat="33.8107975" lon="-118.3936765">
  <ele>-25.339</ele>
  <time>2026-09-01T01:17:06Z</time>
  <course>19.91</course>
  <speed>0.0824621125123532</speed>
  <fix>3d</fix>
</trkpt>
<trkpt lat="33.8107976" lon="-118.3936769">
  <ele>-24.76</ele>
  <time>2026-09-01T01:17:06Z</time>
  <course>55.92</course>
  <speed>0.08</speed>
  <fix>3d</fix>
</trkpt>
<trkpt lat="33.8107976" lon="-118.3936763">
  <ele>-25.317</ele>
  <time>2026-09-01T01:17:06Z</time>
  <course>19.89</course>
  <speed>0.07280109889280519</speed>
  <fix>3d</fix>
</trkpt>
<trkpt lat="33.8107977" lon="-118.3936766">
  <ele>-24.72</ele>
  <time>2026-09-01T01:17:06Z</time>
  <course>56.04</course>
  <speed>0.07</speed>
  <fix>3d</fix>
</trkpt>
<trkpt lat="33.8107976" lon="-118.3936763">
  <ele>-25.308</ele>
  <time>2026-09-01T01:17:06Z</time>
  <course>19.89</course>
  <speed>0.07071067811865475</speed>
  <fix>3d</fix>
</trkpt>
<trkpt lat="33.8107977" lon="-118.3936766">
  <ele>-24.72</ele>
  <time>2026-09-01T01:17:06Z</time>
  <course>56.04</course>
  <speed>0.07</speed>
  <fix>3d</fix>
</trkpt>
<trkpt lat="33.8107977" lon="-118.3936762">
  <ele>-25.3</ele>
  <time>2026-09-01T01:17:06Z</time>
  <course>19.88</course>
  <speed>0.07071067811865475</speed>
  <fix>3d</fix>
</trkpt>
<trkpt lat="33.8107978" lon="-118.3936764">
  <ele>-24.71</ele>
  <time>2026-09-01T01:17:06Z</time>
  <course>56.09</course>
  <speed>0.07</speed>
  <fix>3d</fix>
</trkpt>
<trkpt lat="33.8107977" lon="-118.3936762">
  <ele>-25.29</ele>
  <time>2026-09-01T01:17:06Z</time>
  <course>19.87</course>
  <speed>0.07071067811865475</speed>
  <fix>3d</fix>
</trkpt>
<trkpt lat="33.8107978" lon="-118.3936764">
  <ele>-24.71</ele>
  <time>2026-09-01T01:17:06Z</time>
  <course>56.09</course>
  <speed>0.07</speed>
  <fix>3d</fix>
</trkpt>
<trkpt lat="33.8107977" lon="-118.3936761">
  <ele>-25.281</ele>
  <time>2026-09-01T01:17:06Z</time>
  <course>19.87</course>
  <speed>0.07071067811865475</speed>
  <fix>3d</fix>
</trkpt>
<trkpt lat="33.8107979" lon="-118.3936763">
  <ele>-24.69</ele>
  <time>2026-09-01T01:17:06Z</time>
  <course>56.13</course>
  <speed>0.06</speed>
  <fix>3d</fix>
</trkpt>
<trkpt lat="33.8107977" lon="-118.393676">
  <ele>-25.271</ele>
  <time>2026-09-01T01:17:06Z</time>
  <course>19.86</course>
  <speed>0.07071067811865475</speed>
  <fix>3d</fix>
</trkpt>
<trkpt lat="33.8107979" lon="-118.3936763">
  <ele>-24.69</ele>
  <time>2026-09-01T01:17:06Z</time>
  <course>56.13</course>
  <speed>0.06</speed>
  <fix>3d</fix>
</trkpt>
<trkpt lat="33.8107978" lon="-118.393676">
  <ele>-25.261</ele>
  <time>2026-09-01T01:17:06Z</time>
  <course>19.85</course>
  <speed>0.07071067811865475</speed>
  <fix>3d</fix>
</trkpt>
<trkpt lat="33.810798" lon="-118.3936762">
  <ele>-24.67</ele>
  <time>2026-09-01T01:17:06Z</time>
  <course>56.18</course>
  <speed>0.06</speed>
  <fix>3d</fix>
</trkpt>
<trkpt lat="33.8107978" lon="-118.3936759">
  <ele>-25.251</ele>
  <time>2026-09-01T01:17:06Z</time>
  <course>19.85</course>
  <speed>0.06082762530298219</speed>
  <fix>3d</fix>
</trkpt>
<trkpt lat="33.810798" lon="-118.3936762">
  <ele>-24.67</ele>
  <time>2026-09-01T01:17:06Z</time>
  <course>56.18</course>
  <speed>0.06</speed>
  <fix>3d</fix>
</trkpt>
<trkpt lat="33.8107978" lon="-118.3936759">
  <ele>-25.241</ele>
  <time>2026-09-01T01:17:06Z</time>
  <course>19.84</course>
  <speed>0.06082762530298219</speed>
  <fix>3d</fix>
</trkpt>
<trkpt lat="33.810798" lon="-118.3936761">
  <ele>-24.65</ele>
  <time>2026-09-01T01:17:06Z</time>
  <course>56.22</course>
  <speed>0.06</speed>
  <fix>3d</fix>
</trkpt>
<trkpt lat="33.8107979" lon="-118.3936758">
  <ele>-25.232</ele>
  <time>2026-09-01T01:17:06Z</time>
  <course>19.83</course>
  <speed>0.06</speed>
  <fix>3d</fix>
</trkpt>
<trkpt lat="33.810798" lon="-118.3936761">
  <ele>-24.65</ele>
  <time>2026-09-01T01:17:06Z</time>
  <course>56.22</course>
  <speed>0.06</speed>
  <fix>3d</fix>
</trkpt>
<trkpt lat="33.8107979" lon="-118.3936758">
  <ele>-25.222</ele>
  <time>2026-09-01T01:17:06Z</time>
  <course>19.82</course>
  <speed>0.06</speed>
  <fix>3d</fix>
</trkpt>
<trkpt lat="33.8107981" lon="-118.393676">
  <ele>-24.63</ele>
  <time>2026-09-01T01:17:06Z</time>
  <course>56.26</course>
  <speed>0.05</speed>
  <fix>3d</fix>
</trkpt>
<trkpt lat="33.8107979" lon="-118.3936757">
  <ele>-25.213</ele>
  <time>2026-09-01T01:17:06Z</time>
  <course>19.81</course>
  <speed>0.06</speed>
  <fix>3d</fix>
</trkpt>
<trkpt lat="33.8107981" lon="-118.393676">
  <ele>-24.63</ele>
  <time>2026-09-01T01:17:06Z</time>
  <course>56.26</course>
  <speed>0.05</speed>
  <fix>3d</fix>
</trkpt>
<trkpt lat="33.810798" lon="-118.3936757">
  <ele>-25.203</ele>
  <time>2026-09-01T01:17:06Z</time>
  <course>19.81</course>
  <speed>0.06</speed>
  <fix>3d</fix>
</trkpt>
<trkpt lat="33.8107982" lon="-118.3936759">
  <ele>-24.61</ele>
  <time>2026-09-01T01:17:06Z</time>
  <course>56.3</course>
  <speed>0.05</speed>
  <fix>3d</fix>
</trkpt>
<trkpt lat="33.810798" lon="-118.3936756">
  <ele>-25.193</ele>
  <time>2026-09-01T01:17:06Z</time>
  <course>19.8</course>
  <speed>0.06</speed>
  <fix>3d</fix>
</trkpt>
<trkpt lat="33.8107982" lon="-118.3936759">
  <ele>-24.61</ele>
  <time>2026-09-01T01:17:06Z</time>
  <course>56.3</course>
  <speed>0.05</speed>
  <fix>3d</fix>
</trkpt>
<trkpt lat="33.810798" lon="-118.3936756">
  <ele>-25.183</ele>
  <time>2026-09-01T01:17:06Z</time>
  <course>19.79</course>
  <speed>0.06</speed>
  <fix>3d</fix>
</trkpt>
<trkpt lat="33.8107982" lon="-118.3936758">
  <ele>-24.59</ele>
  <time>2026-09-01T01:17:06Z</time>
  <course>56.32</course>
  <speed>0.05</speed>
  <fix>3d</fix>
</trkpt>
<trkpt lat="33.810798" lon="-118.3936755">
  <ele>-25.173</ele>
  <time>2026-09-01T01:17:06Z</time>
  <course>19.78</course>
  <speed>0.05</speed>
  <fix>3d</fix>
</trkpt>
<trkpt lat="33.8107982" lon="-118.3936758">
  <ele>-24.59</ele>
  <time>2026-09-01T01:17:06Z</time>
  <course>56.32</course>
  <speed>0.05</speed>
  <fix>3d</fix>
</trkpt>
<trkpt lat="33.8107981" lon="-118.3936755">
  <ele>-25.163</ele>
  <time>2026-09-01T01:17:06Z</time>
  <course>19.77</course>
  <speed>0.05</speed>
  <fix>3d</fix>
</trkpt>
<trkpt lat="33.8107983" lon="-118.3936757">
  <ele>-24.58</ele>
  <time>2026-09-01T01:17:06Z</time>
  <course>56.34</course>
  <speed>0.05</speed>
  <fix>3d</fix>
</trkpt>
<trkpt lat="33.8107981" lon="-118.3936755">
  <ele>-25.153</ele>
  <time>2026-09-01T01:17:06Z</time>
  <course>19.77</course>
  <speed>0.05</speed>
  <fix>3d</fix>
</trkpt>
<trkpt lat="33.8107983" lon="-118.3936757">
  <ele>-24.58</ele>
  <time>2026-09-01T01:17:06Z</time>
  <course>56.34</course>
  <speed>0.05</speed>
  <fix>3d</fix>
</trkpt>
<trkpt lat="33.8107981" lon="-118.3936754">
  <ele>-25.144</ele>
  <time>2026-09-01T01:17:06Z</time>
  <course>19.76</course>
  <speed>0.05</speed>
  <fix>3d</fix>
</trkpt>
<trkpt lat="33.8107983" lon="-118.3936756">
  <ele>-24.56</ele>
  <time>2026-09-01T01:17:06Z</time>
  <course>56.36</course>
  <speed>0.04</speed>
  <fix>3d</fix>
</trkpt>
<trkpt lat="33.8107981" lon="-118.3936754">
  <ele>-25.134</ele>
  <time>2026-09-01T01:17:06Z</time>
  <course>19.75</course>
  <speed>0.05</speed>
  <fix>3d</fix>
</trkpt>
<trkpt lat="33.8107983" lon="-118.3936756">
  <ele>-24.56</ele>
  <time>2026-09-01T01:17:06Z</time>
  <course>56.36</course>
  <speed>0.04</speed>
  <fix>3d</fix>
</trkpt>
<trkpt lat="33.8107982" lon="-118.3936753">
  <ele>-25.125</ele>
  <time>2026-09-01T01:17:06Z</time>
  <course>19.74</course>
  <speed>0.05</speed>
  <fix>3d</fix>
</trkpt>
<trkpt lat="33.8107983" lon="-118.3936755">
  <ele>-24.54</ele>
  <time>2026-09-01T01:17:06Z</time>
  <course>56.39</course>
  <speed>0.04</speed>
  <fix>3d</fix>
</trkpt>
<trkpt lat="33.8107982" lon="-118.3936753">
  <ele>-25.115</ele>
  <time>2026-09-01T01:17:06Z</time>
  <course>19.73</course>
  <speed>0.05</speed>
  <fix>3d</fix>
</trkpt>
<trkpt lat="33.8107983" lon="-118.3936755">
  <ele>-24.54</ele>
  <time>2026-09-01T01:17:06Z</time>
  <course>56.39</course>
  <speed>0.04</speed>
  <fix>3d</fix>
</trkpt>
<trkpt lat="33.8107982" lon="-118.3936753">
  <ele>-25.105</ele>
  <time>2026-09-01T01:17:06Z</time>
  <course>19.73</course>
  <speed>0.05</speed>
  <fix>3d</fix>
</trkpt>
<trkpt lat="33.8107984" lon="-118.3936754">
  <ele>-24.52</ele>
  <time>2026-09-01T01:17:06Z</time>
  <course>56.42</course>
  <speed>0.04</speed>
  <fix>3d</fix>
</trkpt>
<trkpt lat="33.8107982" lon="-118.3936752">
  <ele>-25.095</ele>
  <time>2026-09-01T01:17:06Z</time>
  <course>19.72</course>
  <speed>0.05</speed>
  <fix>3d</fix>
</trkpt>
<trkpt lat="33.8107984" lon="-118.3936754">
  <ele>-24.52</ele>
  <time>2026-09-01T01:17:06Z</time>
  <course>56.42</course>
  <speed>0.04</speed>
  <fix>3d</fix>
</trkpt>
<trkpt lat="33.8107982" lon="-118.3936752">
  <ele>-25.085</ele>
  <time>2026-09-01T01:17:06Z</time>
  <course>19.71</course>
  <speed>0.05</speed>
  <fix>3d</fix>
</trkpt>
<trkpt lat="33.8107985" lon="-118.3936753">
  <ele>-24.5</ele>
  <time>2026-09-01T01:17:06Z</time>
  <course>56.44</course>
  <speed>0.04</speed>
  <fix>3d</fix>
</trkpt>
<trkpt lat="33.8107982" lon="-118.3936751">
  <ele>-25.075</ele>
  <time>2026-09-01T01:17:06Z</time>
  <course>19.71</course>
  <speed>0.04</speed>
  <fix>3d</fix>
</trkpt>
<trkpt lat="33.8107985" lon="-118.3936753">
  <ele>-24.5</ele>
  <time>2026-09-01T01:17:06Z</time>
  <course>56.44</course>
  <speed>0.04</speed>
  <fix>3d</fix>
</trkpt>
<trkpt lat="33.8107983" lon="-118.3936751">
  <ele>-25.064</ele>
  <time>2026-09-01T01:17:06Z</time>
  <course>20.37</course>
  <speed>0.0412310562561766</speed>
  <fix>3d</fix>
</trkpt>
<trkpt lat="33.8107985" lon="-118.3936753">
  <ele>-24.48</ele>
  <time>2026-09-01T01:17:06Z</time>
  <course>57.04</course>
  <speed>0.04</speed>
  <fix>3d</fix>
</trkpt>
<trkpt lat="33.8107983" lon="-118.3936751">
  <ele>-25.055</ele>
  <time>2026-09-01T01:17:06Z</time>
  <course>22.63</course>
  <speed>0.04242640687119285</speed>
  <fix>3d</fix>
</trkpt>
<trkpt lat="33.8107985" lon="-118.3936753">
  <ele>-24.48</ele>
  <time>2026-09-01T01:17:06Z</time>
  <course>57.04</course>
  <speed>0.04</speed>
  <fix>3d</fix>
</trkpt>
<trkpt lat="33.8107982" lon="-118.3936751">
  <ele>-25.049</ele>
  <time>2026-09-01T01:17:06Z</time>
  <course>25.73</course>
  <speed>0.06082762530298219</speed>
  <fix>3d</fix>
</trkpt>
<trkpt lat="33.8107986" lon="-118.3936752">
  <ele>-24.46</ele>
  <time>2026-09-01T01:17:06Z</time>
  <course>81.52</course>
  <speed>0.02</speed>
  <fix>3d</fix>
</trkpt>
<trkpt lat="33.8107982" lon="-118.3936751">
  <ele>-25.047</ele>
  <time>2026-09-01T01:17:06Z</time>
  <course>29.2</course>
  <speed>0.1</speed>
  <fix>3d</fix>
</trkpt>
<trkpt lat="33.8107986" lon="-118.3936752">
  <ele>-24.46</ele>
  <time>2026-09-01T01:17:06Z</time>
  <course>81.52</course>
  <speed>0.02</speed>
  <fix>3d</fix>
</trkpt>
<trkpt lat="33.8107982" lon="-118.3936751">
  <ele>-25.046</ele>
  <time>2026-09-01T01:17:06Z</time>
  <course>32.96</course>
  <speed>0.14</speed>
  <fix>3d</fix>
</trkpt>
<trkpt lat="33.8107985" lon="-118.3936752">
  <ele>-24.45</ele>
  <time>2026-09-01T01:17:06Z</time>
  <course>176.23</course>
  <speed>0.05</speed>
  <fix>3d</fix>
</trkpt>
<trkpt lat="33.8107981" lon="-118.3936751">
  <ele>-25.046</ele>
  <time>2026-09-01T01:17:06Z</time>
  <course>36.95</course>
  <speed>0.2009975124224178</speed>
  <fix>3d</fix>
</trkpt>
<trkpt lat="33.8107985" lon="-118.3936752">
  <ele>-24.45</ele>
  <time>2026-09-01T01:17:06Z</time>
  <course>176.23</course>
  <speed>0.05</speed>
  <fix>3d</fix>
</trkpt>
<trkpt lat="33.8107979" lon="-118.3936751">
  <ele>-25.048</ele>
  <time>2026-09-01T01:17:07Z</time>
  <course>41.13</course>
  <speed>0.25179356624028343</speed>
  <fix>3d</fix>
</trkpt>
<trkpt lat="33.8107983" lon="-118.3936752">
  <ele>-24.45</ele>
  <time>2026-09-01T01:17:07Z</time>
  <course>189.69</course>
  <speed>0.13</speed>
  <fix>3d</fix>
</trkpt>
<trkpt lat="33.8107977" lon="-118.3936751">
  <ele>-25.051</ele>
  <time>2026-09-01T01:17:07Z</time>
  <course>45.54</course>
  <speed>0.3238826948140329</speed>
  <fix>3d</fix>
</trkpt>
<trkpt lat="33.8107983" lon="-118.3936752">
  <ele>-24.45</ele>
  <time>2026-09-01T01:17:07Z</time>
  <course>189.69</course>
  <speed>0.13</speed>
  <fix>3d</fix>
</trkpt>
<trkpt lat="33.8107974" lon="-118.3936752">
  <ele>-25.053</ele>
  <time>2026-09-01T01:17:07Z</time>
  <course>50.08</course>
  <speed>0.396232255123179</speed>
  <fix>3d</fix>
</trkpt>
<trkpt lat="33.8107981" lon="-118.3936752">
  <ele>-24.45</ele>
  <time>2026-09-01T01:17:07Z</time>
  <course>192.28</course>
  <speed>0.25</speed>
  <fix>3d</fix>
</trkpt>
<trkpt lat="33.810797" lon="-118.3936753">
  <ele>-25.055</ele>
  <time>2026-09-01T01:17:07Z</time>
  <course>54.83</course>
  <speed>0.47853944456021597</speed>
  <fix>3d</fix>
</trkpt>
<trkpt lat="33.8107981" lon="-118.3936752">
  <ele>-24.45</ele>
  <time>2026-09-01T01:17:07Z</time>
  <course>192.28</course>
  <speed>0.25</speed>
  <fix>3d</fix>
</trkpt>
<trkpt lat="33.8107966" lon="-118.3936754">
  <ele>-25.056</ele>
  <time>2026-09-01T01:17:07Z</time>
  <course>59.75</course>
  <speed>0.5510898293381942</speed>
  <fix>3d</fix>
</trkpt>
<trkpt lat="33.8107975" lon="-118.3936754">
  <ele>-24.45</ele>
  <time>2026-09-01T01:17:07Z</time>
  <course>193.41</course>
  <speed>0.39</speed>
  <fix>3d</fix>
</trkpt>
<trkpt lat="33.8107961" lon="-118.3936756">
  <ele>-25.055</ele>
  <time>2026-09-01T01:17:07Z</time>
  <course>64.87</course>
  <speed>0.6161168720299746</speed>
  <fix>3d</fix>
</trkpt>
<trkpt lat="33.8107975" lon="-118.3936754">
  <ele>-24.45</ele>
  <time>2026-09-01T01:17:07Z</time>
  <course>193.41</course>
  <speed>0.39</speed>
  <fix>3d</fix>
</trkpt>
<trkpt lat="33.8107956" lon="-118.3936758">
  <ele>-25.054</ele>
  <time>2026-09-01T01:17:07Z</time>
  <course>70.18</course>
  <speed>0.6791170738539859</speed>
  <fix>3d</fix>
</trkpt>
<trkpt lat="33.8107967" lon="-118.3936756">
  <ele>-24.45</ele>
  <time>2026-09-01T01:17:07Z</time>
  <course>194.41</course>
  <speed>0.54</speed>
  <fix>3d</fix>
</trkpt>
<trkpt lat="33.810795" lon="-118.393676">
  <ele>-25.052</ele>
  <time>2026-09-01T01:17:07Z</time>
  <course>75.75</course>
  <speed>0.7203471385380802</speed>
  <fix>3d</fix>
</trkpt>
<trkpt lat="33.8107967" lon="-118.3936756">
  <ele>-24.45</ele>
  <time>2026-09-01T01:17:07Z</time>
  <course>194.41</course>
  <speed>0.54</speed>
  <fix>3d</fix>
</trkpt>
<trkpt lat="33.8107944" lon="-118.3936762">
  <ele>-25.051</ele>
  <time>2026-09-01T01:17:07Z</time>
  <course>81.57</course>
  <speed>0.7543208866258443</speed>
  <fix>3d</fix>
</trkpt>
<trkpt lat="33.8107956" lon="-118.3936759">
  <ele>-24.45</ele>
  <time>2026-09-01T01:17:07Z</time>
  <course>195.45</course>
  <speed>0.66</speed>
  <fix>3d</fix>
</trkpt>
<trkpt lat="33.8107938" lon="-118.3936764">
  <ele>-25.051</ele>
  <time>2026-09-01T01:17:07Z</time>
  <course>87.61</course>
  <speed>0.78587530817554</speed>
  <fix>3d</fix>
</trkpt>
<trkpt lat="33.8107956" lon="-118.3936759">
  <ele>-24.45</ele>
  <time>2026-09-01T01:17:07Z</time>
  <course>195.45</course>
  <speed>0.66</speed>
  <fix>3d</fix>
</trkpt>
<trkpt lat="33.8107931" lon="-118.3936766">
  <ele>-25.051</ele>
  <time>2026-09-01T01:17:07Z</time>
  <course>94.03</course>
  <speed>0.7955501241279521</speed>
  <fix>3d</fix>
</trkpt>
<trkpt lat="33.8107944" lon="-118.3936763">
  <ele>-24.45</ele>
  <time>2026-09-01T01:17:07Z</time>
  <course>196.23</course>
  <speed>0.74</speed>
  <fix>3d</fix>
</trkpt>
<trkpt lat="33.8107925" lon="-118.3936768">
  <ele>-25.052</ele>
  <time>2026-09-01T01:17:07Z</time>
  <course>100.68</course>
  <speed>0.8125269226308751</speed>
  <fix>3d</fix>
</trkpt>
<trkpt lat="33.8107944" lon="-118.3936763">
  <ele>-24.45</ele>
  <time>2026-09-01T01:17:07Z</time>
  <course>196.23</course>
  <speed>0.74</speed>
  <fix>3d</fix>
</trkpt>
<trkpt lat="33.8107918" lon="-118.393677">
  <ele>-25.053</ele>
  <time>2026-09-01T01:17:07Z</time>
  <course>107.44</course>
  <speed>0.8276472678623424</speed>
  <fix>3d</fix>
</trkpt>
<trkpt lat="33.8107931" lon="-118.3936768">
  <ele>-24.45</ele>
  <time>2026-09-01T01:17:07Z</time>
  <course>195.81</course>
  <speed>0.79</speed>
  <fix>3d</fix>
</trkpt>
<trkpt lat="33.810791" lon="-118.3936772">
  <ele>-25.053</ele>
  <time>2026-09-01T01:17:07Z</time>
  <course>114.41</course>
  <speed>0.8532877591996736</speed>
  <fix>3d</fix>
</trkpt>
<trkpt lat="33.8107931" lon="-118.3936768">
  <ele>-24.45</ele>
  <time>2026-09-01T01:17:07Z</time>
  <course>195.81</course>
  <speed>0.79</speed>
  <fix>3d</fix>
</trkpt>
<trkpt lat="33.8107903" lon="-118.3936774">
  <ele>-25.054</ele>
  <time>2026-09-01T01:17:07Z</time>
  <course>121.16</course>
  <speed>0.8713208364316786</speed>
  <fix>3d</fix>
</trkpt>
<trkpt lat="33.8107916" lon="-118.3936773">
  <ele>-24.45</ele>
  <time>2026-09-01T01:17:07Z</time>
  <course>193.67</course>
  <speed>0.82</speed>
  <fix>3d</fix>
</trkpt>
<trkpt lat="33.8107896" lon="-118.3936775">
  <ele>-25.054</ele>
  <time>2026-09-01T01:17:07Z</time>
  <course>127.81</course>
  <speed>0.8895504482602434</speed>
  <fix>3d</fix>
</trkpt>
<trkpt lat="33.8107916" lon="-118.3936773">
  <ele>-24.45</ele>
  <time>2026-09-01T01:17:07Z</time>
  <course>193.67</course>
  <speed>0.82</speed>
  <fix>3d</fix>
</trkpt>
<trkpt lat="33.8107888" lon="-118.3936777">
  <ele>-25.055</ele>
  <time>2026-09-01T01:17:07Z</time>
  <course>134.33</course>
  <speed>0.910823802938856</speed>
  <fix>3d</fix>
</trkpt>
<trkpt lat="33.8107902" lon="-118.3936777">
  <ele>-24.45</ele>
  <time>2026-09-01T01:17:07Z</time>
  <course>191.59</course>
  <speed>0.86</speed>
  <fix>3d</fix>
</trkpt>
<trkpt lat="33.810788" lon="-118.3936779">
  <ele>-25.054</ele>
  <time>2026-09-01T01:17:07Z</time>
  <course>140.59</course>
  <speed>0.932148056909416</speed>
  <fix>3d</fix>
</trkpt>
<trkpt lat="33.8107902" lon="-118.3936777">
  <ele>-24.45</ele>
  <time>2026-09-01T01:17:07Z</time>
  <course>191.59</course>
  <speed>0.86</speed>
  <fix>3d</fix>
</trkpt>
<trkpt lat="33.8107872" lon="-118.3936781">
  <ele>-25.052</ele>
  <time>2026-09-01T01:17:07Z</time>
  <course>146.72</course>
  <speed>0.9454099639838793</speed>
  <fix>3d</fix>
</trkpt>
<trkpt lat="33.8107887" lon="-118.393678">
  <ele>-24.45</ele>
  <time>2026-09-01T01:17:07Z</time>
  <course>191.6</course>
  <speed>0.89</speed>
  <fix>3d</fix>
</trkpt>
<trkpt lat="33.8107864" lon="-118.3936783">
  <ele>-25.05</ele>
  <time>2026-09-01T01:17:07Z</time>
  <course>152.74</course>
  <speed>0.9492101980067429</speed>
  <fix>3d</fix>
</trkpt>
<trkpt lat="33.8107887" lon="-118.393678">
  <ele>-24.45</ele>
  <time>2026-09-01T01:17:07Z</time>
  <course>191.6</course>
  <speed>0.89</speed>
  <fix>3d</fix>
</trkpt>
<trkpt lat="33.8107856" lon="-118.3936786">
  <ele>-25.049</ele>
  <time>2026-09-01T01:17:07Z</time>
  <course>158.68</course>
  <speed>0.9534149149242422</speed>
  <fix>3d</fix>
</trkpt>
<trkpt lat="33.810787" lon="-118.3936784">
  <ele>-24.44</ele>
  <time>2026-09-01T01:17:07Z</time>
  <course>193.38</course>
  <speed>0.92</speed>
  <fix>3d</fix>
</trkpt>
<trkpt lat="33.8107848" lon="-118.3936788">
  <ele>-25.049</ele>
  <time>2026-09-01T01:17:07Z</time>
  <course>164.63</course>
  <speed>0.9580187889597991</speed>
  <fix>3d</fix>
</trkpt>
<trkpt lat="33.810787" lon="-118.3936784">
  <ele>-24.44</ele>
  <time>2026-09-01T01:17:07Z</time>
  <course>193.38</course>
  <speed>0.92</speed>
  <fix>3d</fix>
</trkpt>
<trkpt lat="33.810784" lon="-118.3936791">
  <ele>-25.051</ele>
  <time>2026-09-01T01:17:07Z</time>
  <course>170.46</course>
  <speed>0.9314504817756014</speed>
  <fix>3d</fix>
</trkpt>
<trkpt lat="33.8107854" lon="-118.393679">
  <ele>-24.44</ele>
  <time>2026-09-01T01:17:07Z</time>
  <course>195.61</course>
  <speed>0.93</speed>
  <fix>3d</fix>
</trkpt>
<trkpt lat="33.8107832" lon="-118.3936794">
  <ele>-25.052</ele>
  <time>2026-09-01T01:17:07Z</time>
  <course>175.88</course>
  <speed>0.9121403400793103</speed>
  <fix>3d</fix>
</trkpt>
<trkpt lat="33.8107854" lon="-118.393679">
  <ele>-24.44</ele>
  <time>2026-09-01T01:17:07Z</time>
  <course>195.61</course>
  <speed>0.93</speed>
  <fix>3d</fix>
</trkpt>
<trkpt lat="33.8107824" lon="-118.3936797">
  <ele>-25.051</ele>
  <time>2026-09-01T01:17:07Z</time>
  <course>180.8</course>
  <speed>0.8928605714219886</speed>
  <fix>3d</fix>
</trkpt>
<trkpt lat="33.8107838" lon="-118.3936795">
  <ele>-24.44</ele>
  <time>2026-09-01T01:17:07Z</time>
  <course>197.63</course>
  <speed>0.9</speed>
  <fix>3d</fix>
</trkpt>
<trkpt lat="33.8107817" lon="-118.39368">
  <ele>-25.051</ele>
  <time>2026-09-01T01:17:07Z</time>
  <course>185.1</course>
  <speed>0.8709190547921202</speed>
  <fix>3d</fix>
</trkpt>
<trkpt lat="33.8107838" lon="-118.3936795">
  <ele>-24.44</ele>
  <time>2026-09-01T01:17:07Z</time>
  <course>197.63</course>
  <speed>0.9</speed>
  <fix>3d</fix>
</trkpt>
<trkpt lat="33.810781" lon="-118.3936802">
  <ele>-25.05</ele>
  <time>2026-09-01T01:17:07Z</time>
  <course>188.74</course>
  <speed>0.8658521813797087</speed>
  <fix>3d</fix>
</trkpt>
<trkpt lat="33.8107823" lon="-118.3936801">
  <ele>-24.44</ele>
  <time>2026-09-01T01:17:07Z</time>
  <course>198.4</course>
  <speed>0.86</speed>
  <fix>3d</fix>
</trkpt>
<trkpt lat="33.8107802" lon="-118.3936805">
  <ele>-25.049</ele>
  <time>2026-09-01T01:17:07Z</time>
  <course>191.58</course>
  <speed>0.863481325796916</speed>
  <fix>3d</fix>
</trkpt>
<trkpt lat="33.8107823" lon="-118.3936801">
  <ele>-24.44</ele>
  <time>2026-09-01T01:17:07Z</time>
  <course>198.4</course>
  <speed>0.86</speed>
  <fix>3d</fix>
</trkpt>
<trkpt lat="33.8107795" lon="-118.3936807">
  <ele>-25.049</ele>
  <time>2026-09-01T01:17:07Z</time>
  <course>193.44</course>
  <speed>0.8590692637965812</speed>
  <fix>3d</fix>
</trkpt>
<trkpt lat="33.8107809" lon="-118.3936807">
  <ele>-24.44</ele>
  <time>2026-09-01T01:17:07Z</time>
  <course>197.19</course>
  <speed>0.83</speed>
  <fix>3d</fix>
</trkpt>
<trkpt lat="33.8107788" lon="-118.393681">
  <ele>-25.05</ele>
  <time>2026-09-01T01:17:07Z</time>
  <course>194.44</course>
  <speed>0.8668333173107734</speed>
  <fix>3d</fix>
</trkpt>
<trkpt lat="33.8107809" lon="-118.3936807">
  <ele>-24.44</ele>
  <time>2026-09-01T01:17:07Z</time>
  <course>197.19</course>
  <speed>0.83</speed>
  <fix>3d</fix>
</trkpt>
<trkpt lat="33.8107781" lon="-118.3936812">
  <ele>-25.05</ele>
  <time>2026-09-01T01:17:07Z</time>
  <course>194.87</course>
  <speed>0.8668333173107734</speed>
  <fix>3d</fix>
</trkpt>
<trkpt lat="33.8107794" lon="-118.3936812">
  <ele>-24.44</ele>
  <time>2026-09-01T01:17:07Z</time>
  <course>195.32</course>
  <speed>0.82</speed>
  <fix>3d</fix>
</trkpt>
<trkpt lat="33.8107773" lon="-118.3936814">
  <ele>-25.05</ele>
  <time>2026-09-01T01:17:07Z</time>
  <course>195.02</course>
  <speed>0.8649277426467485</speed>
  <fix>3d</fix>
</trkpt>
<trkpt lat="33.8107794" lon="-118.3936812">
  <ele>-24.44</ele>
  <time>2026-09-01T01:17:07Z</time>
  <course>195.32</course>
  <speed>0.82</speed>
  <fix>3d</fix>
</trkpt>
<trkpt lat="33.8107766" lon="-118.3936816">
  <ele>-25.049</ele>
  <time>2026-09-01T01:17:07Z</time>
  <course>195.07</course>
  <speed>0.8649277426467485</speed>
  <fix>3d</fix>
</trkpt>
<trkpt lat="33.810778" lon="-118.3936817">
  <ele>-24.44</ele>
  <time>2026-09-01T01:17:07Z</time>
  <course>194.04</course>
  <speed>0.82</speed>
  <fix>3d</fix>
</trkpt>
<trkpt lat="33.8107759" lon="-118.3936818">
  <ele>-25.047</ele>
  <time>2026-09-01T01:17:07Z</time>
  <course>195.12</course>
  <speed>0.8649277426467485</speed>
  <fix>3d</fix>
</trkpt>
<trkpt lat="33.810778" lon="-118.3936817">
  <ele>-24.44</ele>
  <time>2026-09-01T01:17:07Z</time>
  <course>194.04</course>
  <speed>0.82</speed>
  <fix>3d</fix>
</trkpt>
<trkpt lat="33.8107751" lon="-118.393682">
  <ele>-25.047</ele>
  <time>2026-09-01T01:17:07Z</time>
  <course>195.17</course>
  <speed>0.8649277426467485</speed>
  <fix>3d</fix>
</trkpt>
<trkpt lat="33.8107765" lon="-118.3936821">
  <ele>-24.44</ele>
  <time>2026-09-01T01:17:07Z</time>
  <course>193.47</course>
  <speed>0.82</speed>
  <fix>3d</fix>
</trkpt>
<trkpt lat="33.8107744" lon="-118.3936822">
  <ele>-25.048</ele>
  <time>2026-09-01T01:17:07Z</time>
  <course>195.21</course>
  <speed>0.8649277426467485</speed>
  <fix>3d</fix>
</trkpt>
<trkpt lat="33.8107765" lon="-118.3936821">
  <ele>-24.44</ele>
  <time>2026-09-01T01:17:07Z</time>
  <course>193.47</course>
  <speed>0.82</speed>
  <fix>3d</fix>
</trkpt>
<trkpt lat="33.8107737" lon="-118.3936825">
  <ele>-25.049</ele>
  <time>2026-09-01T01:17:07Z</time>
  <course>195.27</course>
  <speed>0.8649277426467485</speed>
  <fix>3d</fix>
</trkpt>
<trkpt lat="33.8107751" lon="-118.3936825">
  <ele>-24.44</ele>
  <time>2026-09-01T01:17:07Z</time>
  <course>193.23</course>
  <speed>0.81</speed>
  <fix>3d</fix>
</trkpt>
<trkpt lat="33.8107729" lon="-118.3936827">
  <ele>-25.051</ele>
  <time>2026-09-01T01:17:07Z</time>
  <course>195.32</course>
  <speed>0.8649277426467485</speed>
  <fix>3d</fix>
</trkpt>
<trkpt lat="33.8107751" lon="-118.3936825">
  <ele>-24.44</ele>
  <time>2026-09-01T01:17:07Z</time>
  <course>193.23</course>
  <speed>0.81</speed>
  <fix>3d</fix>
</trkpt>
<trkpt lat="33.8107722" lon="-118.3936829">
  <ele>-25.053</ele>
  <time>2026-09-01T01:17:07Z</time>
  <course>195.37</course>
  <speed>0.8649277426467485</speed>
  <fix>3d</fix>
</trkpt>
<trkpt lat="33.8107737" lon="-118.3936828">
  <ele>-24.44</ele>
  <time>2026-09-01T01:17:07Z</time>
  <course>193.14</course>
  <speed>0.81</speed>
  <fix>3d</fix>
</trkpt>
<trkpt lat="33.8107715" lon="-118.3936831">
  <ele>-25.054</ele>
  <time>2026-09-01T01:17:07Z</time>
  <course>195.43</course>
  <speed>0.8649277426467485</speed>
  <fix>3d</fix>
</trkpt>
<trkpt lat="33.8107737" lon="-118.3936828">
  <ele>-24.44</ele>
  <time>2026-09-01T01:17:07Z</time>
  <course>193.14</course>
  <speed>0.81</speed>
  <fix>3d</fix>
</trkpt>
<trkpt lat="33.8107708" lon="-118.3936833">
  <ele>-25.054</ele>
  <time>2026-09-01T01:17:07Z</time>
  <course>195.49</course>
  <speed>0.8570297544426332</speed>
  <fix>3d</fix>
</trkpt>
<trkpt lat="33.8107722" lon="-118.3936833">
  <ele>-24.45</ele>
  <time>2026-09-01T01:17:07Z</time>
  <course>193.15</course>
  <speed>0.81</speed>
  <fix>3d</fix>
</trkpt>
<trkpt lat="33.8107701" lon="-118.3936835">
  <ele>-25.052</ele>
  <time>2026-09-01T01:17:07Z</time>
  <course>195.55</course>
  <speed>0.8570297544426332</speed>
  <fix>3d</fix>
</trkpt>
<trkpt lat="33.8107722" lon="-118.3936833">
  <ele>-24.45</ele>
  <time>2026-09-01T01:17:07Z</time>
  <course>193.15</course>
  <speed>0.81</speed>
  <fix>3d</fix>
</trkpt>
<trkpt lat="33.8107694" lon="-118.3936837">
  <ele>-25.051</ele>
  <time>2026-09-01T01:17:07Z</time>
  <course>195.6</course>
  <speed>0.8570297544426332</speed>
  <fix>3d</fix>
</trkpt>
<trkpt lat="33.8107708" lon="-118.3936837">
  <ele>-24.45</ele>
  <time>2026-09-01T01:17:07Z</time>
  <course>193.16</course>
  <speed>0.8</speed>
  <fix>3d</fix>
</trkpt>
<trkpt lat="33.8107686" lon="-118.3936839">
  <ele>-25.049</ele>
  <time>2026-09-01T01:17:07Z</time>
  <course>195.64</course>
  <speed>0.8570297544426332</speed>
  <fix>3d</fix>
</trkpt>
<trkpt lat="33.8107708" lon="-118.3936837">
  <ele>-24.45</ele>
  <time>2026-09-01T01:17:07Z</time>
  <course>193.16</course>
  <speed>0.8</speed>
  <fix>3d</fix>
</trkpt>
<trkpt lat="33.8107679" lon="-118.3936841">
  <ele>-25.049</ele>
  <time>2026-09-01T01:17:07Z</time>
  <course>195.66</course>
  <speed>0.8570297544426332</speed>
  <fix>3d</fix>
</trkpt>
<trkpt lat="33.8107695" lon="-118.3936841">
  <ele>-24.45</ele>
  <time>2026-09-01T01:17:07Z</time>
  <course>193.12</course>
  <speed>0.8</speed>
  <fix>3d</fix>
</trkpt>
<trkpt lat="33.8107672" lon="-118.3936843">
  <ele>-25.05</ele>
  <time>2026-09-01T01:17:07Z</time>
  <course>195.68</course>
  <speed>0.8570297544426332</speed>
  <fix>3d</fix>
</trkpt>
<trkpt lat="33.8107695" lon="-118.3936841">
  <ele>-24.45</ele>
  <time>2026-09-01T01:17:07Z</time>
  <course>193.12</course>
  <speed>0.8</speed>
  <fix>3d</fix>
</trkpt>
<trkpt lat="33.8107665" lon="-118.3936846">
  <ele>-25.049</ele>
  <time>2026-09-01T01:17:07Z</time>
  <course>195.69</course>
  <speed>0.8570297544426332</speed>
  <fix>3d</fix>
</trkpt>
<trkpt lat="33.810768" lon="-118.3936845">
  <ele>-24.45</ele>
  <time>2026-09-01T01:17:07Z</time>
  <course>193.01</course>
  <speed>0.8</speed>
  <fix>3d</fix>
</trkpt>
<trkpt lat="33.8107658" lon="-118.3936848">
  <ele>-25.049</ele>
  <time>2026-09-01T01:17:07Z</time>
  <course>195.7</course>
  <speed>0.8472307831990054</speed>
  <fix>3d</fix>
</trkpt>
<trkpt lat="33.810768" lon="-118.3936845">
  <ele>-24.45</ele>
  <time>2026-09-01T01:17:07Z</time>
  <course>193.01</course>
  <speed>0.8</speed>
  <fix>3d</fix>
</trkpt>
<trkpt lat="33.8107651" lon="-118.393685">
  <ele>-25.051</ele>
  <time>2026-09-01T01:17:07Z</time>
  <course>195.7</course>
  <speed>0.8472307831990054</speed>
  <fix>3d</fix>
</trkpt>
<trkpt lat="33.8107666" lon="-118.3936849">
  <ele>-24.45</ele>
  <time>2026-09-01T01:17:07Z</time>
  <course>192.89</course>
  <speed>0.8</speed>
  <fix>3d</fix>
</trkpt>
<trkpt lat="33.8107644" lon="-118.3936852">
  <ele>-25.053</ele>
  <time>2026-09-01T01:17:07Z</time>
  <course>195.71</course>
  <speed>0.8472307831990054</speed>
  <fix>3d</fix>
</trkpt>
<trkpt lat="33.8107666" lon="-118.3936849">
  <ele>-24.45</ele>
  <time>2026-09-01T01:17:07Z</time>
  <course>192.89</course>
  <speed>0.8</speed>
  <fix>3d</fix>
</trkpt>
<trkpt lat="33.8107637" lon="-118.3936854">
  <ele>-25.054</ele>
  <time>2026-09-01T01:17:07Z</time>
  <course>195.72</course>
  <speed>0.8472307831990054</speed>
  <fix>3d</fix>
</trkpt>
<trkpt lat="33.8107652" lon="-118.3936852">
  <ele>-24.45</ele>
  <time>2026-09-01T01:17:07Z</time>
  <course>192.77</course>
  <speed>0.8</speed>
  <fix>3d</fix>
</trkpt>
<trkpt lat="33.810763" lon="-118.3936856">
  <ele>-25.055</ele>
  <time>2026-09-01T01:17:07Z</time>
  <course>195.75</course>
  <speed>0.8472307831990054</speed>
  <fix>3d</fix>
</trkpt>
<trkpt lat="33.8107652" lon="-118.3936852">
  <ele>-24.45</ele>
  <time>2026-09-01T01:17:07Z</time>
  <course>192.77</course>
  <speed>0.8</speed>
  <fix>3d</fix>
</trkpt>
<trkpt lat="33.8107623" lon="-118.3936858">
  <ele>-25.055</ele>
  <time>2026-09-01T01:17:07Z</time>
  <course>195.78</course>
  <speed>0.8472307831990054</speed>
  <fix>3d</fix>
</trkpt>
<trkpt lat="33.8107637" lon="-118.3936856">
  <ele>-24.45</ele>
  <time>2026-09-01T01:17:07Z</time>
  <course>192.72</course>
  <speed>0.8</speed>
  <fix>3d</fix>
</trkpt>
<trkpt lat="33.8107616" lon="-118.393686">
  <ele>-25.055</ele>
  <time>2026-09-01T01:17:07Z</time>
  <course>195.84</course>
  <speed>0.8395236744726142</speed>
  <fix>3d</fix>
</trkpt>
<trkpt lat="33.8107637" lon="-118.3936856">
  <ele>-24.45</ele>
  <time>2026-09-01T01:17:07Z</time>
  <course>192.72</course>
  <speed>0.8</speed>
  <fix>3d</fix>
</trkpt>
<trkpt lat="33.8107609" lon="-118.3936862">
  <ele>-25.054</ele>
  <time>2026-09-01T01:17:07Z</time>
  <course>195.91</course>
  <speed>0.8395236744726142</speed>
  <fix>3d</fix>
</trkpt>
<trkpt lat="33.8107624" lon="-118.393686">
  <ele>-24.44</ele>
  <time>2026-09-01T01:17:07Z</time>
  <course>192.73</course>
  <speed>0.8</speed>
  <fix>3d</fix>
</trkpt>
<trkpt lat="33.8107602" lon="-118.3936864">
  <ele>-25.054</ele>
  <time>2026-09-01T01:17:07Z</time>
  <course>195.97</course>
  <speed>0.8395236744726142</speed>
  <fix>3d</fix>
</trkpt>
<trkpt lat="33.8107624" lon="-118.393686">
  <ele>-24.44</ele>
  <time>2026-09-01T01:17:07Z</time>
  <course>192.73</course>
  <speed>0.8</speed>
  <fix>3d</fix>
</trkpt>
<trkpt lat="33.8107595" lon="-118.3936866">
  <ele>-25.054</ele>
  <time>2026-09-01T01:17:07Z</time>
  <course>196.03</course>
  <speed>0.8395236744726142</speed>
  <fix>3d</fix>
</trkpt>
<trkpt lat="33.810761" lon="-118.3936864">
  <ele>-24.44</ele>
  <time>2026-09-01T01:17:07Z</time>
  <course>192.75</course>
  <speed>0.8</speed>
  <fix>3d</fix>
</trkpt>
<trkpt lat="33.8107588" lon="-118.3936868">
  <ele>-25.054</ele>
  <time>2026-09-01T01:17:07Z</time>
  <course>196.09</course>
  <speed>0.8395236744726142</speed>
  <fix>3d</fix>
</trkpt>
<trkpt lat="33.810761" lon="-118.3936864">
  <ele>-24.44</ele>
  <time>2026-09-01T01:17:07Z</time>
  <course>192.75</course>
  <speed>0.8</speed>
  <fix>3d</fix>
</trkpt>
<trkpt lat="33.8107581" lon="-118.393687">
  <ele>-25.053</ele>
  <time>2026-09-01T01:17:07Z</time>
  <course>196.14</course>
  <speed>0.8395236744726142</speed>
  <fix>3d</fix>
</trkpt>
<trkpt lat="33.8107596" lon="-118.3936868">
  <ele>-24.44</ele>
  <time>2026-09-01T01:17:07Z</time>
  <course>192.73</course>
  <speed>0.8</speed>
  <fix>3d</fix>
</trkpt>
<trkpt lat="33.8107574" lon="-118.3936872">
  <ele>-25.052</ele>
  <time>2026-09-01T01:17:07Z</time>
  <course>196.18</course>
  <speed>0.8395236744726142</speed>
  <fix>3d</fix>
</trkpt>
<trkpt lat="33.8107596" lon="-118.3936868">
  <ele>-24.44</ele>
  <time>2026-09-01T01:17:07Z</time>
  <course>192.73</course>
  <speed>0.8</speed>
  <fix>3d</fix>
</trkpt>
<trkpt lat="33.8107568" lon="-118.3936874">
  <ele>-25.051</ele>
  <time>2026-09-01T01:17:07Z</time>
  <course>196.22</course>
  <speed>0.8395236744726142</speed>
  <fix>3d</fix>
</trkpt>
<trkpt lat="33.8107581" lon="-118.3936871">
  <ele>-24.44</ele>
  <time>2026-09-01T01:17:07Z</time>
  <course>192.69</course>
  <speed>0.8</speed>
  <fix>3d</fix>
</trkpt>
<trkpt lat="33.8107561" lon="-118.3936876">
  <ele>-25.05</ele>
  <time>2026-09-01T01:17:07Z</time>
  <course>196.26</course>
  <speed>0.8395236744726142</speed>
  <fix>3d</fix>
</trkpt>
<trkpt lat="33.8107581" lon="-118.3936871">
  <ele>-24.44</ele>
  <time>2026-09-01T01:17:07Z</time>
  <course>192.69</course>
  <speed>0.8</speed>
  <fix>3d</fix>
</trkpt>
<trkpt lat="33.8107554" lon="-118.3936878">
  <ele>-25.047</ele>
  <time>2026-09-01T01:17:07Z</time>
  <course>196.33</course>
  <speed>0.8417244204607586</speed>
  <fix>3d</fix>
</trkpt>
<trkpt lat="33.8107568" lon="-118.3936876">
  <ele>-24.43</ele>
  <time>2026-09-01T01:17:07Z</time>
  <course>192.68</course>
  <speed>0.8</speed>
  <fix>3d</fix>
</trkpt>
<trkpt lat="33.8107547" lon="-118.393688">
  <ele>-25.044</ele>
  <time>2026-09-01T01:17:07Z</time>
  <course>196.39</course>
  <speed>0.8319855767980596</speed>
  <fix>3d</fix>
</trkpt>
<trkpt lat="33.8107568" lon="-118.3936876">
  <ele>-24.43</ele>
  <time>2026-09-01T01:17:07Z</time>
  <course>192.68</course>
  <speed>0.8</speed>
  <fix>3d</fix>
</trkpt>
<trkpt lat="33.810754" lon="-118.3936882">
  <ele>-25.042</ele>
  <time>2026-09-01T01:17:07Z</time>
  <course>196.44</course>
  <speed>0.8319855767980596</speed>
  <fix>3d</fix>
</trkpt>
<trkpt lat="33.8107554" lon="-118.3936879">
  <ele>-24.43</ele>
  <time>2026-09-01T01:17:07Z</time>
  <course>192.68</course>
  <speed>0.8</speed>
  <fix>3d</fix>
</trkpt>
<trkpt lat="33.8107533" lon="-118.3936884">
  <ele>-25.041</ele>
  <time>2026-09-01T01:17:07Z</time>
  <course>196.49</course>
  <speed>0.8319855767980596</speed>
  <fix>3d</fix>
</trkpt>
<trkpt lat="33.8107554" lon="-118.3936879">
  <ele>-24.43</ele>
  <time>2026-09-01T01:17:07Z</time>
  <course>192.68</course>
  <speed>0.8</speed>
  <fix>3d</fix>
</trkpt>
<trkpt lat="33.8107526" lon="-118.3936886">
  <ele>-25.043</ele>
  <time>2026-09-01T01:17:07Z</time>
  <course>196.54</course>
  <speed>0.8319855767980596</speed>
  <fix>3d</fix>
</trkpt>
<trkpt lat="33.8107539" lon="-118.3936883">
  <ele>-24.43</ele>
  <time>2026-09-01T01:17:07Z</time>
  <course>192.65</course>
  <speed>0.81</speed>
  <fix>3d</fix>
</trkpt>
<trkpt lat="33.8107519" lon="-118.3936888">
  <ele>-25.045</ele>
  <time>2026-09-01T01:17:07Z</time>
  <course>196.6</course>
  <speed>0.8319855767980596</speed>
  <fix>3d</fix>
</trkpt>
<trkpt lat="33.8107539" lon="-118.3936883">
  <ele>-24.43</ele>
  <time>2026-09-01T01:17:07Z</time>
  <course>192.65</course>
  <speed>0.81</speed>
  <fix>3d</fix>
</trkpt>
<trkpt lat="33.8107512" lon="-118.393689">
  <ele>-25.048</ele>
  <time>2026-09-01T01:17:07Z</time>
  <course>196.67</course>
  <speed>0.8319855767980596</speed>
  <fix>3d</fix>
</trkpt>
<trkpt lat="33.8107525" lon="-118.3936887">
  <ele>-24.43</ele>
  <time>2026-09-01T01:17:07Z</time>
  <course>192.68</course>
  <speed>0.81</speed>
  <fix>3d</fix>
</trkpt>
<trkpt lat="33.8107505" lon="-118.3936892">
  <ele>-25.049</ele>
  <time>2026-09-01T01:17:07Z</time>
  <course>196.74</course>
  <speed>0.8319855767980596</speed>
  <fix>3d</fix>
</trkpt>
<trkpt lat="33.8107525" lon="-118.3936887">
  <ele>-24.43</ele>
  <time>2026-09-01T01:17:07Z</time>
  <course>192.68</course>
  <speed>0.81</speed>
  <fix>3d</fix>
</trkpt>
<trkpt lat="33.8107498" lon="-118.3936894">
  <ele>-25.05</ele>
  <time>2026-09-01T01:17:07Z</time>
  <course>196.81</course>
  <speed>0.8319855767980596</speed>
  <fix>3d</fix>
</trkpt>
<trkpt lat="33.8107511" lon="-118.3936891">
  <ele>-24.44</ele>
  <time>2026-09-01T01:17:07Z</time>
  <course>192.72</course>
  <speed>0.81</speed>
  <fix>3d</fix>
</trkpt>
<trkpt lat="33.8107491" lon="-118.3936896">
  <ele>-25.05</ele>
  <time>2026-09-01T01:17:07Z</time>
  <course>196.87</course>
  <speed>0.8343260753446461</speed>
  <fix>3d</fix>
</trkpt>
<trkpt lat="33.8107511" lon="-118.3936891">
  <ele>-24.44</ele>
  <time>2026-09-01T01:17:07Z</time>
  <course>192.72</course>
  <speed>0.81</speed>
  <fix>3d</fix>
</trkpt>
<trkpt lat="33.8107484" lon="-118.3936898">
  <ele>-25.052</ele>
  <time>2026-09-01T01:17:07Z</time>
  <course>196.93</course>
  <speed>0.8343260753446461</speed>
  <fix>3d</fix>
</trkpt>
<trkpt lat="33.8107496" lon="-118.3936895">
  <ele>-24.44</ele>
  <time>2026-09-01T01:17:07Z</time>
  <course>192.74</course>
  <speed>0.81</speed>
  <fix>3d</fix>
</trkpt>
<trkpt lat="33.8107477" lon="-118.3936901">
  <ele>-25.054</ele>
  <time>2026-09-01T01:17:07Z</time>
  <course>197.0</course>
  <speed>0.8343260753446461</speed>
  <fix>3d</fix>
</trkpt>
<trkpt lat="33.8107496" lon="-118.3936895">
  <ele>-24.44</ele>
  <time>2026-09-01T01:17:07Z</time>
  <course>192.74</course>
  <speed>0.81</speed>
  <fix>3d</fix>
</trkpt>
<trkpt lat="33.810747" lon="-118.3936903">
  <ele>-25.056</ele>
  <time>2026-09-01T01:17:07Z</time>
  <course>197.06</course>
  <speed>0.8246211251235321</speed>
  <fix>3d</fix>
</trkpt>
<trkpt lat="33.8107482" lon="-118.3936899">
  <ele>-24.45</ele>
  <time>2026-09-01T01:17:07Z</time>
  <course>192.77</course>
  <speed>0.82</speed>
  <fix>3d</fix>
</trkpt>
<trkpt lat="33.8107462" lon="-118.3936905">
  <ele>-25.058</ele>
  <time>2026-09-01T01:17:07Z</time>
  <course>197.11</course>
  <speed>0.8246211251235321</speed>
  <fix>3d</fix>
</trkpt>
<trkpt lat="33.8107482" lon="-118.3936899">
  <ele>-24.45</ele>
  <time>2026-09-01T01:17:07Z</time>
  <course>192.77</course>
  <speed>0.82</speed>
  <fix>3d</fix>
</trkpt>
<trkpt lat="33.8107455" lon="-118.3936907">
  <ele>-25.058</ele>
  <time>2026-09-01T01:17:07Z</time>
  <course>197.17</course>
  <speed>0.8246211251235321</speed>
  <fix>3d</fix>
</trkpt>
<trkpt lat="33.8107467" lon="-118.3936903">
  <ele>-24.45</ele>
  <time>2026-09-01T01:17:07Z</time>
  <course>192.79</course>
  <speed>0.82</speed>
  <fix>3d</fix>
</trkpt>
<trkpt lat="33.8107448" lon="-118.3936909">
  <ele>-25.056</ele>
  <time>2026-09-01T01:17:07Z</time>
  <course>197.23</course>
  <speed>0.8246211251235321</speed>
  <fix>3d</fix>
</trkpt>
<trkpt lat="33.8107467" lon="-118.3936903">
  <ele>-24.45</ele>
  <time>2026-09-01T01:17:07Z</time>
  <course>192.79</course>
  <speed>0.82</speed>
  <fix>3d</fix>
</trkpt>
<trkpt lat="33.8107441" lon="-118.3936911">
  <ele>-25.054</ele>
  <time>2026-09-01T01:17:07Z</time>
  <course>197.3</course>
  <speed>0.8246211251235321</speed>
  <fix>3d</fix>
</trkpt>
<trkpt lat="33.8107453" lon="-118.3936907">
  <ele>-24.44</ele>
  <time>2026-09-01T01:17:07Z</time>
  <course>192.8</course>
  <speed>0.82</speed>
  <fix>3d</fix>
</trkpt>
<trkpt lat="33.8107434" lon="-118.3936913">
  <ele>-25.051</ele>
  <time>2026-09-01T01:17:07Z</time>
  <course>197.35</course>
  <speed>0.8246211251235321</speed>
  <fix>3d</fix>
</trkpt>
<trkpt lat="33.8107453" lon="-118.3936907">
  <ele>-24.44</ele>
  <time>2026-09-01T01:17:07Z</time>
  <course>192.8</course>
  <speed>0.82</speed>
  <fix>3d</fix>
</trkpt>
<trkpt lat="33.8107427" lon="-118.3936915">
  <ele>-25.049</ele>
  <time>2026-09-01T01:17:07Z</time>
  <course>197.41</course>
  <speed>0.8246211251235321</speed>
  <fix>3d</fix>
</trkpt>
<trkpt lat="33.8107439" lon="-118.3936911">
  <ele>-24.44</ele>
  <time>2026-09-01T01:17:07Z</time>
  <course>192.83</course>
  <speed>0.82</speed>
  <fix>3d</fix>
</trkpt>
<trkpt lat="33.810742" lon="-118.3936917">
  <ele>-25.047</ele>
  <time>2026-09-01T01:17:07Z</time>
  <course>197.46</course>
  <speed>0.8246211251235321</speed>
  <fix>3d</fix>
</trkpt>
<trkpt lat="33.8107439" lon="-118.3936911">
  <ele>-24.44</ele>
  <time>2026-09-01T01:17:07Z</time>
  <course>192.83</course>
  <speed>0.82</speed>
  <fix>3d</fix>
</trkpt>
<trkpt lat="33.8107413" lon="-118.3936919">
  <ele>-25.046</ele>
  <time>2026-09-01T01:17:07Z</time>
  <course>197.52</course>
  <speed>0.8271033792700887</speed>
  <fix>3d</fix>
</trkpt>
<trkpt lat="33.8107424" lon="-118.3936915">
  <ele>-24.43</ele>
  <time>2026-09-01T01:17:07Z</time>
  <course>192.87</course>
  <speed>0.82</speed>
  <fix>3d</fix>
</trkpt>
<trkpt lat="33.8107406" lon="-118.3936921">
  <ele>-25.046</ele>
  <time>2026-09-01T01:17:07Z</time>
  <course>197.57</course>
  <speed>0.8271033792700887</speed>
  <fix>3d</fix>
</trkpt>
<trkpt lat="33.8107424" lon="-118.3936915">
  <ele>-24.43</ele>
  <time>2026-09-01T01:17:07Z</time>
  <course>192.87</course>
  <speed>0.82</speed>
  <fix>3d</fix>
</trkpt>
<trkpt lat="33.8107399" lon="-118.3936923">
  <ele>-25.045</ele>
  <time>2026-09-01T01:17:07Z</time>
  <course>197.62</course>
  <speed>0.8174350127074322</speed>
  <fix>3d</fix>
</trkpt>
<trkpt lat="33.810741" lon="-118.3936919">
  <ele>-24.43</ele>
  <time>2026-09-01T01:17:07Z</time>
  <course>192.92</course>
  <speed>0.82</speed>
  <fix>3d</fix>
</trkpt>
<trkpt lat="33.8107391" lon="-118.3936926">
  <ele>-25.046</ele>
  <time>2026-09-01T01:17:07Z</time>
  <course>197.68</course>
  <speed>0.8174350127074322</speed>
  <fix>3d</fix>
</trkpt>
<trkpt lat="33.810741" lon="-118.3936919">
  <ele>-24.43</ele>
  <time>2026-09-01T01:17:07Z</time>
  <course>192.92</course>
  <speed>0.82</speed>
  <fix>3d</fix>
</trkpt>
<trkpt lat="33.8107384" lon="-118.3936928">
  <ele>-25.047</ele>
  <time>2026-09-01T01:17:07Z</time>
  <course>197.73</course>
  <speed>0.8174350127074322</speed>
  <fix>3d</fix>
</trkpt>
<trkpt lat="33.8107395" lon="-118.3936923">
  <ele>-24.43</ele>
  <time>2026-09-01T01:17:07Z</time>
  <course>192.96</course>
  <speed>0.82</speed>
  <fix>3d</fix>
</trkpt>
<trkpt lat="33.8107377" lon="-118.393693">
  <ele>-25.05</ele>
  <time>2026-09-01T01:17:07Z</time>
  <course>197.79</course>
  <speed>0.8174350127074322</speed>
  <fix>3d</fix>
</trkpt>
<trkpt lat="33.8107395" lon="-118.3936923">
  <ele>-24.43</ele>
  <time>2026-09-01T01:17:07Z</time>
  <course>192.96</course>
  <speed>0.82</speed>
  <fix>3d</fix>
</trkpt>
<trkpt lat="33.810737" lon="-118.3936932">
  <ele>-25.051</ele>
  <time>2026-09-01T01:17:07Z</time>
  <course>197.84</course>
  <speed>0.8174350127074322</speed>
  <fix>3d</fix>
</trkpt>
<trkpt lat="33.810738" lon="-118.3936927">
  <ele>-24.44</ele>
  <time>2026-09-01T01:17:07Z</time>
  <course>193.01</course>
  <speed>0.83</speed>
  <fix>3d</fix>
</trkpt>
<trkpt lat="33.8107363" lon="-118.3936934">
  <ele>-25.051</ele>
  <time>2026-09-01T01:17:07Z</time>
  <course>197.9</course>
  <speed>0.8174350127074322</speed>
  <fix>3d</fix>
</trkpt>
<trkpt lat="33.810738" lon="-118.3936927">
  <ele>-24.44</ele>
  <time>2026-09-01T01:17:07Z</time>
  <course>193.01</course>
  <speed>0.83</speed>
  <fix>3d</fix>
</trkpt>
<trkpt lat="33.8107356" lon="-118.3936936">
  <ele>-25.051</ele>
  <time>2026-09-01T01:17:07Z</time>
  <course>197.97</course>
  <speed>0.8174350127074322</speed>
  <fix>3d</fix>
</trkpt>
<trkpt lat="33.8107366" lon="-118.3936931">
  <ele>-24.44</ele>
  <time>2026-09-01T01:17:07Z</time>
  <course>193.09</course>
  <speed>0.83</speed>
  <fix>3d</fix>
</trkpt>
<trkpt lat="33.8107348" lon="-118.3936938">
  <ele>-25.049</ele>
  <time>2026-09-01T01:17:07Z</time>
  <course>198.04</course>
  <speed>0.8174350127074322</speed>
  <fix>3d</fix>
</trkpt>
<trkpt lat="33.8107366" lon="-118.3936931">
  <ele>-24.44</ele>
  <time>2026-09-01T01:17:07Z</time>
  <course>193.09</course>
  <speed>0.83</speed>
  <fix>3d</fix>
</trkpt>
<trkpt lat="33.8107341" lon="-118.393694">
  <ele>-25.047</ele>
  <time>2026-09-01T01:17:07Z</time>
  <course>198.1</course>
  <speed>0.8174350127074322</speed>
  <fix>3d</fix>
</trkpt>
<trkpt lat="33.8107351" lon="-118.3936935">
  <ele>-24.44</ele>
  <time>2026-09-01T01:17:07Z</time>
  <course>193.18</course>
  <speed>0.83</speed>
  <fix>3d</fix>
</trkpt>
<trkpt lat="33.8107334" lon="-118.3936942">
  <ele>-25.044</ele>
  <time>2026-09-01T01:17:07Z</time>
  <course>198.16</course>
  <speed>0.8200609733428362</speed>
  <fix>3d</fix>
</trkpt>
<trkpt lat="33.8107351" lon="-118.3936935">
  <ele>-24.44</ele>
  <time>2026-09-01T01:17:07Z</time>
  <course>193.18</course>
  <speed>0.83</speed>
  <fix>3d</fix>
</trkpt>
<trkpt lat="33.8107327" lon="-118.3936944">
  <ele>-25.044</ele>
  <time>2026-09-01T01:17:07Z</time>
  <course>198.22</course>
  <speed>0.8200609733428362</speed>
  <fix>3d</fix>
</trkpt>
<trkpt lat="33.8107337" lon="-118.3936939">
  <ele>-24.44</ele>
  <time>2026-09-01T01:17:07Z</time>
  <course>193.26</course>
  <speed>0.83</speed>
  <fix>3d</fix>
</trkpt>
<trkpt lat="33.810732" lon="-118.3936947">
  <ele>-25.044</ele>
  <time>2026-09-01T01:17:07Z</time>
  <course>198.28</course>
  <speed>0.8200609733428362</speed>
  <fix>3d</fix>
</trkpt>
<trkpt lat="33.8107337" lon="-118.3936939">
  <ele>-24.44</ele>
  <time>2026-09-01T01:17:07Z</time>
  <course>193.26</course>
  <speed>0.83</speed>
  <fix>3d</fix>
</trkpt>
<trkpt lat="33.8107312" lon="-118.3936949">
  <ele>-25.046</ele>
  <time>2026-09-01T01:17:07Z</time>
  <course>198.34</course>
  <speed>0.8200609733428362</speed>
  <fix>3d</fix>
</trkpt>
<trkpt lat="33.8107322" lon="-118.3936943">
  <ele>-24.44</ele>
  <time>2026-09-01T01:17:07Z</time>
  <course>193.37</course>
  <speed>0.83</speed>
  <fix>3d</fix>
</trkpt>
<trkpt lat="33.8107305" lon="-118.3936951">
  <ele>-25.048</ele>
  <time>2026-09-01T01:17:07Z</time>
  <course>198.41</course>
  <speed>0.8200609733428362</speed>
  <fix>3d</fix>
</trkpt>
<trkpt lat="33.8107322" lon="-118.3936943">
  <ele>-24.44</ele>
  <time>2026-09-01T01:17:07Z</time>
  <course>193.37</course>
  <speed>0.83</speed>
  <fix>3d</fix>
</trkpt>
<trkpt lat="33.8107298" lon="-118.3936953">
  <ele>-25.05</ele>
  <time>2026-09-01T01:17:07Z</time>
  <course>198.47</course>
  <speed>0.8200609733428362</speed>
  <fix>3d</fix>
</trkpt>
<trkpt lat="33.8107308" lon="-118.3936947">
  <ele>-24.44</ele>
  <time>2026-09-01T01:17:07Z</time>
  <course>193.47</course>
  <speed>0.83</speed>
  <fix>3d</fix>
</trkpt>
<trkpt lat="33.810729" lon="-118.3936955">
  <ele>-25.052</ele>
  <time>2026-09-01T01:17:07Z</time>
  <course>198.52</course>
  <speed>0.8200609733428362</speed>
  <fix>3d</fix>
</trkpt>
<trkpt lat="33.8107308" lon="-118.3936947">
  <ele>-24.44</ele>
  <time>2026-09-01T01:17:07Z</time>
  <course>193.47</course>
  <speed>0.83</speed>
  <fix>3d</fix>
</trkpt>
<trkpt lat="33.8107283" lon="-118.3936957">
  <ele>-25.054</ele>
  <time>2026-09-01T01:17:07Z</time>
  <course>198.58</course>
  <speed>0.8200609733428362</speed>
  <fix>3d</fix>
</trkpt>
<trkpt lat="33.8107293" lon="-118.3936951">
  <ele>-24.45</ele>
  <time>2026-09-01T01:17:07Z</time>
  <course>193.58</course>
  <speed>0.84</speed>
  <fix>3d</fix>
</trkpt>
<trkpt lat="33.8107276" lon="-118.3936959">
  <ele>-25.055</ele>
  <time>2026-09-01T01:17:07Z</time>
  <course>198.63</course>
  <speed>0.8200609733428362</speed>
  <fix>3d</fix>
</trkpt>
<trkpt lat="33.8107293" lon="-118.3936951">
  <ele>-24.45</ele>
  <time>2026-09-01T01:17:07Z</time>
  <course>193.58</course>
  <speed>0.84</speed>
  <fix>3d</fix>
</trkpt>
<trkpt lat="33.8107269" lon="-118.3936962">
  <ele>-25.054</ele>
  <time>2026-09-01T01:17:07Z</time>
  <course>198.68</course>
  <speed>0.8228000972289685</speed>
  <fix>3d</fix>
</trkpt>
<trkpt lat="33.8107278" lon="-118.3936956">
  <ele>-24.45</ele>
  <time>2026-09-01T01:17:07Z</time>
  <course>193.71</course>
  <speed>0.84</speed>
  <fix>3d</fix>
</trkpt>
<trkpt lat="33.8107261" lon="-118.3936964">
  <ele>-25.054</ele>
  <time>2026-09-01T01:17:07Z</time>
  <course>198.73</course>
  <speed>0.8228000972289685</speed>
  <fix>3d</fix>
</trkpt>
<trkpt lat="33.8107278" lon="-118.3936956">
  <ele>-24.45</ele>
  <time>2026-09-01T01:17:07Z</time>
  <course>193.71</course>
  <speed>0.84</speed>
  <fix>3d</fix>
</trkpt>
<trkpt lat="33.8107254" lon="-118.3936966">
  <ele>-25.054</ele>
  <time>2026-09-01T01:17:07Z</time>
  <course>198.77</course>
  <speed>0.8228000972289685</speed>
  <fix>3d</fix>
</trkpt>
<trkpt lat="33.8107263" lon="-118.393696">
  <ele>-24.45</ele>
  <time>2026-09-01T01:17:07Z</time>
  <course>193.81</course>
  <speed>0.84</speed>
  <fix>3d</fix>
</trkpt>
<trkpt lat="33.8107247" lon="-118.3936968">
  <ele>-25.053</ele>
  <time>2026-09-01T01:17:07Z</time>
  <course>198.79</course>
  <speed>0.8228000972289685</speed>
  <fix>3d</fix>
</trkpt>
<trkpt lat="33.8107263" lon="-118.393696">
  <ele>-24.45</ele>
  <time>2026-09-01T01:17:07Z</time>
  <course>193.81</course>
  <speed>0.84</speed>
  <fix>3d</fix>
</trkpt>
<trkpt lat="33.8107239" lon="-118.393697">
  <ele>-25.052</ele>
  <time>2026-09-01T01:17:07Z</time>
  <course>198.81</course>
  <speed>0.8228000972289685</speed>
  <fix>3d</fix>
</trkpt>
<trkpt lat="33.8107248" lon="-118.3936964">
  <ele>-24.45</ele>
  <time>2026-09-01T01:17:07Z</time>
  <course>193.87</course>
  <speed>0.84</speed>
  <fix>3d</fix>
</trkpt>
<trkpt lat="33.8107232" lon="-118.3936973">
  <ele>-25.051</ele>
  <time>2026-09-01T01:17:07Z</time>
  <course>198.84</course>
  <speed>0.8228000972289685</speed>
  <fix>3d</fix>
</trkpt>
<trkpt lat="33.8107248" lon="-118.3936964">
  <ele>-24.45</ele>
  <time>2026-09-01T01:17:07Z</time>
  <course>193.87</course>
  <speed>0.84</speed>
  <fix>3d</fix>
</trkpt>
<trkpt lat="33.8107225" lon="-118.3936975">
  <ele>-25.051</ele>
  <time>2026-09-01T01:17:07Z</time>
  <course>198.87</course>
  <speed>0.8228000972289685</speed>
  <fix>3d</fix>
</trkpt>
<trkpt lat="33.8107234" lon="-118.3936969">
  <ele>-24.44</ele>
  <time>2026-09-01T01:17:07Z</time>
  <course>193.96</course>
  <speed>0.85</speed>
  <fix>3d</fix>
</trkpt>
<trkpt lat="33.8107217" lon="-118.3936977">
  <ele>-25.051</ele>
  <time>2026-09-01T01:17:07Z</time>
  <course>198.89</course>
  <speed>0.8228000972289685</speed>
  <fix>3d</fix>
</trkpt>
<trkpt lat="33.8107234" lon="-118.3936969">
  <ele>-24.44</ele>
  <time>2026-09-01T01:17:07Z</time>
  <course>193.96</course>
  <speed>0.85</speed>
  <fix>3d</fix>
</trkpt>
<trkpt lat="33.810721" lon="-118.3936979">
  <ele>-25.051</ele>
  <time>2026-09-01T01:17:07Z</time>
  <course>198.9</course>
  <speed>0.8228000972289685</speed>
  <fix>3d</fix>
</trkpt>
<trkpt lat="33.8107219" lon="-118.3936973">
  <ele>-24.44</ele>
  <time>2026-09-01T01:17:07Z</time>
  <course>194.03</course>
  <speed>0.85</speed>
  <fix>3d</fix>
</trkpt>
<trkpt lat="33.8107202" lon="-118.3936981">
  <ele>-25.05</ele>
  <time>2026-09-01T01:17:07Z</time>
  <course>198.9</course>
  <speed>0.8228000972289685</speed>
  <fix>3d</fix>
</trkpt>
<trkpt lat="33.8107219" lon="-118.3936973">
  <ele>-24.44</ele>
  <time>2026-09-01T01:17:07Z</time>
  <course>194.03</course>
  <speed>0.85</speed>
  <fix>3d</fix>
</trkpt>
<trkpt lat="33.8107195" lon="-118.3936984">
  <ele>-25.05</ele>
  <time>2026-09-01T01:17:07Z</time>
  <course>198.9</course>
  <speed>0.8228000972289685</speed>
  <fix>3d</fix>
</trkpt>
<trkpt lat="33.8107204" lon="-118.3936978">
  <ele>-24.44</ele>
  <time>2026-09-01T01:17:07Z</time>
  <course>194.07</course>
  <speed>0.85</speed>
  <fix>3d</fix>
</trkpt>
<trkpt lat="33.8107188" lon="-118.3936986">
  <ele>-25.051</ele>
  <time>2026-09-01T01:17:07Z</time>
  <course>198.89</course>
  <speed>0.8228000972289685</speed>
  <fix>3d</fix>
</trkpt>
<trkpt lat="33.8107204" lon="-118.3936978">
  <ele>-24.44</ele>
  <time>2026-09-01T01:17:07Z</time>
  <course>194.07</course>
  <speed>0.85</speed>
  <fix>3d</fix>
</trkpt>
<trkpt lat="33.810718" lon="-118.3936988">
  <ele>-25.051</ele>
  <time>2026-09-01T01:17:07Z</time>
  <course>198.87</course>
  <speed>0.8228000972289685</speed>
  <fix>3d</fix>
</trkpt>
<trkpt lat="33.8107189" lon="-118.3936982">
  <ele>-24.44</ele>
  <time>2026-09-01T01:17:07Z</time>
  <course>194.1</course>
  <speed>0.85</speed>
  <fix>3d</fix>
</trkpt>
<trkpt lat="33.8107173" lon="-118.393699">
  <ele>-25.051</ele>
  <time>2026-09-01T01:17:07Z</time>
  <course>198.83</course>
  <speed>0.8324061508662703</speed>
  <fix>3d</fix>
</trkpt>
<trkpt lat="33.8107189" lon="-118.3936982">
  <ele>-24.44</ele>
  <time>2026-09-01T01:17:07Z</time>
  <course>194.1</course>
  <speed>0.85</speed>
  <fix>3d</fix>
</trkpt>
<trkpt lat="33.8107166" lon="-118.3936993">
  <ele>-25.051</ele>
  <time>2026-09-01T01:17:07Z</time>
  <course>198.81</course>
  <speed>0.8324061508662703</speed>
  <fix>3d</fix>
</trkpt>
<trkpt lat="33.8107174" lon="-118.3936986">
  <ele>-24.44</ele>
  <time>2026-09-01T01:17:07Z</time>
  <course>194.1</course>
  <speed>0.86</speed>
  <fix>3d</fix>
</trkpt>
<trkpt lat="33.8107158" lon="-118.3936995">
  <ele>-25.05</ele>
  <time>2026-09-01T01:17:07Z</time>
  <course>198.78</course>
  <speed>0.8324061508662703</speed>
  <fix>3d</fix>
</trkpt>
<trkpt lat="33.8107174" lon="-118.3936986">
  <ele>-24.44</ele>
  <time>2026-09-01T01:17:07Z</time>
  <course>194.1</course>
  <speed>0.86</speed>
  <fix>3d</fix>
</trkpt>
<trkpt lat="33.810715" lon="-118.3936997">
  <ele>-25.049</ele>
  <time>2026-09-01T01:17:07Z</time>
  <course>198.79</course>
  <speed>0.8324061508662703</speed>
  <fix>3d</fix>
</trkpt>
<trkpt lat="33.8107159" lon="-118.3936991">
  <ele>-24.44</ele>
  <time>2026-09-01T01:17:07Z</time>
  <course>194.17</course>
  <speed>0.86</speed>
  <fix>3d</fix>
</trkpt>
<trkpt lat="33.8107143" lon="-118.3936999">
  <ele>-25.049</ele>
  <time>2026-09-01T01:17:07Z</time>
  <course>198.8</course>
  <speed>0.8324061508662703</speed>
  <fix>3d</fix>
</trkpt>
<trkpt lat="33.8107159" lon="-118.3936991">
  <ele>-24.44</ele>
  <time>2026-09-01T01:17:07Z</time>
  <course>194.17</course>
  <speed>0.86</speed>
  <fix>3d</fix>
</trkpt>
<trkpt lat="33.8107136" lon="-118.3937002">
  <ele>-25.049</ele>
  <time>2026-09-01T01:17:07Z</time>
  <course>198.8</course>
  <speed>0.8324061508662703</speed>
  <fix>3d</fix>
</trkpt>
<trkpt lat="33.8107144" lon="-118.3936996">
  <ele>-24.44</ele>
  <time>2026-09-01T01:17:07Z</time>
  <course>194.26</course>
  <speed>0.86</speed>
  <fix>3d</fix>
</trkpt>
<trkpt lat="33.8107128" lon="-118.3937004">
  <ele>-25.049</ele>
  <time>2026-09-01T01:17:07Z</time>
  <course>198.79</course>
  <speed>0.8324061508662703</speed>
  <fix>3d</fix>
</trkpt>
<trkpt lat="33.8107144" lon="-118.3936996">
  <ele>-24.44</ele>
  <time>2026-09-01T01:17:07Z</time>
  <course>194.26</course>
  <speed>0.86</speed>
  <fix>3d</fix>
</trkpt>
<trkpt lat="33.8107121" lon="-118.3937006">
  <ele>-25.049</ele>
  <time>2026-09-01T01:17:07Z</time>
  <course>198.77</course>
  <speed>0.8324061508662703</speed>
  <fix>3d</fix>
</trkpt>
<trkpt lat="33.8107129" lon="-118.3937001">
  <ele>-24.44</ele>
  <time>2026-09-01T01:17:07Z</time>
  <course>194.29</course>
  <speed>0.87</speed>
  <fix>3d</fix>
</trkpt>
<trkpt lat="33.8107113" lon="-118.3937008">
  <ele>-25.049</ele>
  <time>2026-09-01T01:17:07Z</time>
  <course>198.73</course>
  <speed>0.8324061508662703</speed>
  <fix>3d</fix>
</trkpt>
<trkpt lat="33.8107129" lon="-118.3937001">
  <ele>-24.44</ele>
  <time>2026-09-01T01:17:07Z</time>
  <course>194.29</course>
  <speed>0.87</speed>
  <fix>3d</fix>
</trkpt>
<trkpt lat="33.8107106" lon="-118.3937011">
  <ele>-25.049</ele>
  <time>2026-09-01T01:17:07Z</time>
  <course>198.67</course>
  <speed>0.8324061508662703</speed>
  <fix>3d</fix>
</trkpt>
<trkpt lat="33.8107114" lon="-118.3937005">
  <ele>-24.44</ele>
  <time>2026-09-01T01:17:07Z</time>
  <course>194.27</course>
  <speed>0.87</speed>
  <fix>3d</fix>
</trkpt>
<trkpt lat="33.8107098" lon="-118.3937013">
  <ele>-25.049</ele>
  <time>2026-09-01T01:17:07Z</time>
  <course>198.6</course>
  <speed>0.8324061508662703</speed>
  <fix>3d</fix>
</trkpt>
<trkpt lat="33.8107114" lon="-118.3937005">
  <ele>-24.44</ele>
  <time>2026-09-01T01:17:07Z</time>
  <course>194.27</course>
  <speed>0.87</speed>
  <fix>3d</fix>
</trkpt>
<trkpt lat="33.810709" lon="-118.3937015">
  <ele>-25.049</ele>
  <time>2026-09-01T01:17:07Z</time>
  <course>198.55</course>
  <speed>0.8324061508662703</speed>
  <fix>3d</fix>
</trkpt>
<trkpt lat="33.8107099" lon="-118.393701">
  <ele>-24.44</ele>
  <time>2026-09-01T01:17:07Z</time>
  <course>194.24</course>
  <speed>0.87</speed>
  <fix>3d</fix>
</trkpt>
<trkpt lat="33.8107083" lon="-118.3937018">
  <ele>-25.049</ele>
  <time>2026-09-01T01:17:07Z</time>
  <course>198.49</course>
  <speed>0.8324061508662703</speed>
  <fix>3d</fix>
</trkpt>
<trkpt lat="33.8107099" lon="-118.393701">
  <ele>-24.44</ele>
  <time>2026-09-01T01:17:07Z</time>
  <course>194.24</course>
  <speed>0.87</speed>
  <fix>3d</fix>
</trkpt>
<trkpt lat="33.8107075" lon="-118.393702">
  <ele>-25.049</ele>
  <time>2026-09-01T01:17:07Z</time>
  <course>198.44</course>
  <speed>0.8420213774008353</speed>
  <fix>3d</fix>
</trkpt>
<trkpt lat="33.8107083" lon="-118.3937015">
  <ele>-24.43</ele>
  <time>2026-09-01T01:17:07Z</time>
  <course>194.22</course>
  <speed>0.87</speed>
  <fix>3d</fix>
</trkpt>
<trkpt lat="33.8107068" lon="-118.3937022">
  <ele>-25.048</ele>
  <time>2026-09-01T01:17:07Z</time>
  <course>198.39</course>
  <speed>0.8420213774008353</speed>
  <fix>3d</fix>
</trkpt>
<trkpt lat="33.8107083" lon="-118.3937015">
  <ele>-24.43</ele>
  <time>2026-09-01T01:17:07Z</time>
  <course>194.22</course>
  <speed>0.87</speed>
  <fix>3d</fix>
</trkpt>
<trkpt lat="33.810706" lon="-118.3937025">
  <ele>-25.048</ele>
  <time>2026-09-01T01:17:07Z</time>
  <course>198.33</course>
  <speed>0.8420213774008353</speed>
  <fix>3d</fix>
</trkpt>
<trkpt lat="33.8107068" lon="-118.3937019">
  <ele>-24.43</ele>
  <time>2026-09-01T01:17:07Z</time>
  <course>194.19</course>
  <speed>0.87</speed>
  <fix>3d</fix>
</trkpt>
<trkpt lat="33.8107053" lon="-118.3937027">
  <ele>-25.047</ele>
  <time>2026-09-01T01:17:07Z</time>
  <course>198.28</course>
  <speed>0.8420213774008353</speed>
  <fix>3d</fix>
</trkpt>
<trkpt lat="33.8107068" lon="-118.3937019">
  <ele>-24.43</ele>
  <time>2026-09-01T01:17:07Z</time>
  <course>194.19</course>
  <speed>0.87</speed>
  <fix>3d</fix>
</trkpt>
<trkpt lat="33.8107045" lon="-118.3937029">
  <ele>-25.046</ele>
  <time>2026-09-01T01:17:07Z</time>
  <course>198.24</course>
  <speed>0.8420213774008353</speed>
  <fix>3d</fix>
</trkpt>
<trkpt lat="33.8107052" lon="-118.3937024">
  <ele>-24.43</ele>
  <time>2026-09-01T01:17:07Z</time>
  <course>194.18</course>
  <speed>0.88</speed>
  <fix>3d</fix>
</trkpt>
<trkpt lat="33.8107037" lon="-118.3937032">
  <ele>-25.047</ele>
  <time>2026-09-01T01:17:07Z</time>
  <course>198.21</course>
  <speed>0.8420213774008353</speed>
  <fix>3d</fix>
</trkpt>
<trkpt lat="33.8107052" lon="-118.3937024">
  <ele>-24.43</ele>
  <time>2026-09-01T01:17:07Z</time>
  <course>194.18</course>
  <speed>0.88</speed>
  <fix>3d</fix>
</trkpt>
<trkpt lat="33.810703" lon="-118.3937034">
  <ele>-25.046</ele>
  <time>2026-09-01T01:17:07Z</time>
  <course>198.18</course>
  <speed>0.8420213774008353</speed>
  <fix>3d</fix>
</trkpt>
<trkpt lat="33.8107037" lon="-118.3937029">
  <ele>-24.43</ele>
  <time>2026-09-01T01:17:07Z</time>
  <course>194.22</course>
  <speed>0.88</speed>
  <fix>3d</fix>
</trkpt>
<trkpt lat="33.8107022" lon="-118.3937036">
  <ele>-25.045</ele>
  <time>2026-09-01T01:17:07Z</time>
  <course>198.15</course>
  <speed>0.8420213774008353</speed>
  <fix>3d</fix>
</trkpt>
<trkpt lat="33.8107037" lon="-118.3937029">
  <ele>-24.43</ele>
  <time>2026-09-01T01:17:07Z</time>
  <course>194.22</course>
  <speed>0.88</speed>
  <fix>3d</fix>
</trkpt>
<trkpt lat="33.8107014" lon="-118.3937038">
  <ele>-25.043</ele>
  <time>2026-09-01T01:17:07Z</time>
  <course>198.11</course>
  <speed>0.8420213774008353</speed>
  <fix>3d</fix>
</trkpt>
<trkpt lat="33.8107022" lon="-118.3937033">
  <ele>-24.43</ele>
  <time>2026-09-01T01:17:07Z</time>
  <course>194.23</course>
  <speed>0.88</speed>
  <fix>3d</fix>
</trkpt>
<trkpt lat="33.8107007" lon="-118.3937041">
  <ele>-25.043</ele>
  <time>2026-09-01T01:17:07Z</time>
  <course>198.07</course>
  <speed>0.8420213774008353</speed>
  <fix>3d</fix>
</trkpt>
<trkpt lat="33.8107022" lon="-118.3937033">
  <ele>-24.43</ele>
  <time>2026-09-01T01:17:07Z</time>
  <course>194.23</course>
  <speed>0.88</speed>
  <fix>3d</fix>
</trkpt>
<trkpt lat="33.8106999" lon="-118.3937043">
  <ele>-25.045</ele>
  <time>2026-09-01T01:17:07Z</time>
  <course>198.04</course>
  <speed>0.8420213774008353</speed>
  <fix>3d</fix>
</trkpt>
<trkpt lat="33.8107007" lon="-118.3937038">
  <ele>-24.44</ele>
  <time>2026-09-01T01:17:07Z</time>
  <course>194.25</course>
  <speed>0.88</speed>
  <fix>3d</fix>
</trkpt>
<trkpt lat="33.8106991" lon="-118.3937046">
  <ele>-25.047</ele>
  <time>2026-09-01T01:17:07Z</time>
  <course>198.0</course>
  <speed>0.8420213774008353</speed>
  <fix>3d</fix>
</trkpt>
<trkpt lat="33.8107007" lon="-118.3937038">
  <ele>-24.44</ele>
  <time>2026-09-01T01:17:07Z</time>
  <course>194.25</course>
  <speed>0.88</speed>
  <fix>3d</fix>
</trkpt>
<trkpt lat="33.8106984" lon="-118.3937048">
  <ele>-25.049</ele>
  <time>2026-09-01T01:17:07Z</time>
  <course>197.96</course>
  <speed>0.8420213774008353</speed>
  <fix>3d</fix>
</trkpt>
<trkpt lat="33.8106991" lon="-118.3937043">
  <ele>-24.44</ele>
  <time>2026-09-01T01:17:07Z</time>
  <course>194.26</course>
  <speed>0.88</speed>
  <fix>3d</fix>
</trkpt>
<trkpt lat="33.8106976" lon="-118.393705">
  <ele>-25.049</ele>
  <time>2026-09-01T01:17:07Z</time>
  <course>197.92</course>
  <speed>0.8420213774008353</speed>
  <fix>3d</fix>
</trkpt>
<trkpt lat="33.8106991" lon="-118.3937043">
  <ele>-24.44</ele>
  <time>2026-09-01T01:17:07Z</time>
  <course>194.26</course>
  <speed>0.88</speed>
  <fix>3d</fix>
</trkpt>
<trkpt lat="33.8106968" lon="-118.3937053">
  <ele>-25.049</ele>
  <time>2026-09-01T01:17:07Z</time>
  <course>197.87</course>
  <speed>0.8420213774008353</speed>
  <fix>3d</fix>
</trkpt>
<trkpt lat="33.8106976" lon="-118.3937047">
  <ele>-24.44</ele>
  <time>2026-09-01T01:17:07Z</time>
  <course>194.24</course>
  <speed>0.88</speed>
  <fix>3d</fix>
</trkpt>
<trkpt lat="33.8106961" lon="-118.3937055">
  <ele>-25.048</ele>
  <time>2026-09-01T01:17:07Z</time>
  <course>197.82</course>
  <speed>0.8420213774008353</speed>
  <fix>3d</fix>
</trkpt>
<trkpt lat="33.8106976" lon="-118.3937047">
  <ele>-24.44</ele>
  <time>2026-09-01T01:17:07Z</time>
  <course>194.24</course>
  <speed>0.88</speed>
  <fix>3d</fix>
</trkpt>
<trkpt lat="33.8106953" lon="-118.3937057">
  <ele>-25.047</ele>
  <time>2026-09-01T01:17:07Z</time>
  <course>197.79</course>
  <speed>0.8516454661418682</speed>
  <fix>3d</fix>
</trkpt>
<trkpt lat="33.8106961" lon="-118.3937052">
  <ele>-24.44</ele>
  <time>2026-09-01T01:17:07Z</time>
  <course>194.26</course>
  <speed>0.88</speed>
  <fix>3d</fix>
</trkpt>
<trkpt lat="33.8106945" lon="-118.393706">
  <ele>-25.047</ele>
  <time>2026-09-01T01:17:07Z</time>
  <course>197.76</course>
  <speed>0.8516454661418682</speed>
  <fix>3d</fix>
</trkpt>
<trkpt lat="33.8106961" lon="-118.3937052">
  <ele>-24.44</ele>
  <time>2026-09-01T01:17:07Z</time>
  <course>194.26</course>
  <speed>0.88</speed>
  <fix>3d</fix>
</trkpt>
<trkpt lat="33.8106938" lon="-118.3937062">
  <ele>-25.046</ele>
  <time>2026-09-01T01:17:07Z</time>
  <course>197.72</course>
  <speed>0.8516454661418682</speed>
  <fix>3d</fix>
</trkpt>
<trkpt lat="33.8106945" lon="-118.3937057">
  <ele>-24.44</ele>
  <time>2026-09-01T01:17:07Z</time>
  <course>194.29</course>
  <speed>0.88</speed>
  <fix>3d</fix>
</trkpt>
<trkpt lat="33.810693" lon="-118.3937064">
  <ele>-25.046</ele>
  <time>2026-09-01T01:17:07Z</time>
  <course>197.68</course>
  <speed>0.8516454661418682</speed>
  <fix>3d</fix>
</trkpt>
<trkpt lat="33.8106945" lon="-118.3937057">
  <ele>-24.44</ele>
  <time>2026-09-01T01:17:07Z</time>
  <course>194.29</course>
  <speed>0.88</speed>
  <fix>3d</fix>
</trkpt>
<trkpt lat="33.8106922" lon="-118.3937067">
  <ele>-25.047</ele>
  <time>2026-09-01T01:17:07Z</time>
  <course>197.64</course>
  <speed>0.8516454661418682</speed>
  <fix>3d</fix>
</trkpt>
<trkpt lat="33.810693" lon="-118.3937062">
  <ele>-24.45</ele>
  <time>2026-09-01T01:17:07Z</time>
  <course>194.3</course>
  <speed>0.89</speed>
  <fix>3d</fix>
</trkpt>
<trkpt lat="33.8106914" lon="-118.3937069">
  <ele>-25.049</ele>
  <time>2026-09-01T01:17:07Z</time>
  <course>197.59</course>
  <speed>0.8516454661418682</speed>
  <fix>3d</fix>
</trkpt>
<trkpt lat="33.810693" lon="-118.3937062">
  <ele>-24.45</ele>
  <time>2026-09-01T01:17:07Z</time>
  <course>194.3</course>
  <speed>0.89</speed>
  <fix>3d</fix>
</trkpt>
<trkpt lat="33.8106907" lon="-118.3937071">
  <ele>-25.051</ele>
  <time>2026-09-01T01:17:07Z</time>
  <course>197.53</course>
  <speed>0.8516454661418682</speed>
  <fix>3d</fix>
</trkpt>
<trkpt lat="33.8106914" lon="-118.3937066">
  <ele>-24.45</ele>
  <time>2026-09-01T01:17:07Z</time>
  <course>194.25</course>
  <speed>0.89</speed>
  <fix>3d</fix>
</trkpt>
<trkpt lat="33.8106899" lon="-118.3937074">
  <ele>-25.052</ele>
  <time>2026-09-01T01:17:07Z</time>
  <course>197.47</course>
  <speed>0.8516454661418682</speed>
  <fix>3d</fix>
</trkpt>
<trkpt lat="33.8106914" lon="-118.3937066">
  <ele>-24.45</ele>
  <time>2026-09-01T01:17:07Z</time>
  <course>194.25</course>
  <speed>0.89</speed>
  <fix>3d</fix>
</trkpt>
<trkpt lat="33.8106891" lon="-118.3937076">
  <ele>-25.054</ele>
  <time>2026-09-01T01:17:07Z</time>
  <course>197.43</course>
  <speed>0.8516454661418682</speed>
  <fix>3d</fix>
</trkpt>
<trkpt lat="33.8106899" lon="-118.3937071">
  <ele>-24.45</ele>
  <time>2026-09-01T01:17:07Z</time>
  <course>194.23</course>
  <speed>0.89</speed>
  <fix>3d</fix>
</trkpt>
<trkpt lat="33.8106883" lon="-118.3937078">
  <ele>-25.054</ele>
  <time>2026-09-01T01:17:07Z</time>
  <course>197.39</course>
  <speed>0.8544003745317531</speed>
  <fix>3d</fix>
</trkpt>
<trkpt lat="33.8106899" lon="-118.3937071">
  <ele>-24.45</ele>
  <time>2026-09-01T01:17:07Z</time>
  <course>194.23</course>
  <speed>0.89</speed>
  <fix>3d</fix>
</trkpt>
<trkpt lat="33.8106875" lon="-118.3937081">
  <ele>-25.053</ele>
  <time>2026-09-01T01:17:07Z</time>
  <course>197.36</course>
  <speed>0.8516454661418682</speed>
  <fix>3d</fix>
</trkpt>
<trkpt lat="33.8106882" lon="-118.3937076">
  <ele>-24.45</ele>
  <time>2026-09-01T01:17:07Z</time>
  <course>194.26</course>
  <speed>0.89</speed>
  <fix>3d</fix>
</trkpt>
<trkpt lat="33.8106868" lon="-118.3937083">
  <ele>-25.052</ele>
  <time>2026-09-01T01:17:07Z</time>
  <course>197.33</course>
  <speed>0.8544003745317531</speed>
  <fix>3d</fix>
</trkpt>
<trkpt lat="33.8106882" lon="-118.3937076">
  <ele>-24.45</ele>
  <time>2026-09-01T01:17:07Z</time>
  <course>194.26</course>
  <speed>0.89</speed>
  <fix>3d</fix>
</trkpt>
<trkpt lat="33.810686" lon="-118.3937086">
  <ele>-25.051</ele>
  <time>2026-09-01T01:17:07Z</time>
  <course>197.3</course>
  <speed>0.861278120005379</speed>
  <fix>3d</fix>
</trkpt>
<trkpt lat="33.8106867" lon="-118.3937081">
  <ele>-24.45</ele>
  <time>2026-09-01T01:17:07Z</time>
  <course>194.28</course>
  <speed>0.89</speed>
  <fix>3d</fix>
</trkpt>
<trkpt lat="33.8106852" lon="-118.3937088">
  <ele>-25.051</ele>
  <time>2026-09-01T01:17:07Z</time>
  <course>197.27</course>
  <speed>0.8640023148117139</speed>
  <fix>3d</fix>
</trkpt>
<trkpt lat="33.8106867" lon="-118.3937081">
  <ele>-24.45</ele>
  <time>2026-09-01T01:17:07Z</time>
  <course>194.28</course>
  <speed>0.89</speed>
  <fix>3d</fix>
</trkpt>
<trkpt lat="33.8106844" lon="-118.393709">
  <ele>-25.052</ele>
  <time>2026-09-01T01:17:07Z</time>
  <course>197.23</course>
  <speed>0.861278120005379</speed>
  <fix>3d</fix>
</trkpt>
<trkpt lat="33.8106851" lon="-118.3937085">
  <ele>-24.44</ele>
  <time>2026-09-01T01:17:07Z</time>
  <course>194.28</course>
  <speed>0.89</speed>
  <fix>3d</fix>
</trkpt>
<trkpt lat="33.8106836" lon="-118.3937093">
  <ele>-25.052</ele>
  <time>2026-09-01T01:17:07Z</time>
  <course>197.19</course>
  <speed>0.8640023148117139</speed>
  <fix>3d</fix>
</trkpt>
<trkpt lat="33.8106851" lon="-118.3937085">
  <ele>-24.44</ele>
  <time>2026-09-01T01:17:07Z</time>
  <course>194.28</course>
  <speed>0.89</speed>
  <fix>3d</fix>
</trkpt>
<trkpt lat="33.8106828" lon="-118.3937095">
  <ele>-25.051</ele>
  <time>2026-09-01T01:17:07Z</time>
  <course>197.17</course>
  <speed>0.8640023148117139</speed>
  <fix>3d</fix>
</trkpt>
<trkpt lat="33.8106836" lon="-118.393709">
  <ele>-24.44</ele>
  <time>2026-09-01T01:17:07Z</time>
  <course>194.29</course>
  <speed>0.89</speed>
  <fix>3d</fix>
</trkpt>
<trkpt lat="33.810682" lon="-118.3937098">
  <ele>-25.049</ele>
  <time>2026-09-01T01:17:07Z</time>
  <course>197.15</course>
  <speed>0.8640023148117139</speed>
  <fix>3d</fix>
</trkpt>
<trkpt lat="33.8106836" lon="-118.393709">
  <ele>-24.44</ele>
  <time>2026-09-01T01:17:07Z</time>
  <course>194.29</course>
  <speed>0.89</speed>
  <fix>3d</fix>
</trkpt>
<trkpt lat="33.8106812" lon="-118.39371">
  <ele>-25.048</ele>
  <time>2026-09-01T01:17:07Z</time>
  <course>197.13</course>
  <speed>0.8640023148117139</speed>
  <fix>3d</fix>
</trkpt>
<trkpt lat="33.810682" lon="-118.3937095">
  <ele>-24.44</ele>
  <time>2026-09-01T01:17:07Z</time>
  <course>194.33</course>
  <speed>0.89</speed>
  <fix>3d</fix>
</trkpt>
<trkpt lat="33.8106805" lon="-118.3937102">
  <ele>-25.048</ele>
  <time>2026-09-01T01:17:07Z</time>
  <course>197.1</course>
  <speed>0.8640023148117139</speed>
  <fix>3d</fix>
</trkpt>
<trkpt lat="33.810682" lon="-118.3937095">
  <ele>-24.44</ele>
  <time>2026-09-01T01:17:07Z</time>
  <course>194.33</course>
  <speed>0.89</speed>
  <fix>3d</fix>
</trkpt>
<trkpt lat="33.8106797" lon="-118.3937105">
  <ele>-25.048</ele>
  <time>2026-09-01T01:17:07Z</time>
  <course>197.08</course>
  <speed>0.8640023148117139</speed>
  <fix>3d</fix>
</trkpt>
<trkpt lat="33.8106805" lon="-118.39371">
  <ele>-24.44</ele>
  <time>2026-09-01T01:17:07Z</time>
  <course>194.35</course>
  <speed>0.89</speed>
  <fix>3d</fix>
</trkpt>
<trkpt lat="33.8106789" lon="-118.3937107">
  <ele>-25.048</ele>
  <time>2026-09-01T01:17:07Z</time>
  <course>197.04</course>
  <speed>0.8640023148117139</speed>
  <fix>3d</fix>
</trkpt>
<trkpt lat="33.8106805" lon="-118.39371">
  <ele>-24.44</ele>
  <time>2026-09-01T01:17:07Z</time>
  <course>194.35</course>
  <speed>0.89</speed>
  <fix>3d</fix>
</trkpt>
<trkpt lat="33.8106781" lon="-118.393711">
  <ele>-25.048</ele>
  <time>2026-09-01T01:17:07Z</time>
  <course>196.99</course>
  <speed>0.8736131867136622</speed>
  <fix>3d</fix>
</trkpt>
<trkpt lat="33.8106789" lon="-118.3937105">
  <ele>-24.44</ele>
  <time>2026-09-01T01:17:07Z</time>
  <course>194.32</course>
  <speed>0.9</speed>
  <fix>3d</fix>
</trkpt>
<trkpt lat="33.8106773" lon="-118.3937112">
  <ele>-25.048</ele>
  <time>2026-09-01T01:17:07Z</time>
  <course>196.93</course>
  <speed>0.8736131867136622</speed>
  <fix>3d</fix>
</trkpt>
<trkpt lat="33.8106789" lon="-118.3937105">
  <ele>-24.44</ele>
  <time>2026-09-01T01:17:07Z</time>
  <course>194.32</course>
  <speed>0.9</speed>
  <fix>3d</fix>
</trkpt>
<trkpt lat="33.8106765" lon="-118.3937114">
  <ele>-25.047</ele>
  <time>2026-09-01T01:17:07Z</time>
  <course>196.87</course>
  <speed>0.8736131867136622</speed>
  <fix>3d</fix>
</trkpt>
<trkpt lat="33.8106774" lon="-118.3937109">
  <ele>-24.44</ele>
  <time>2026-09-01T01:17:07Z</time>
  <course>194.27</course>
  <speed>0.9</speed>
  <fix>3d</fix>
</trkpt>
<trkpt lat="33.8106757" lon="-118.3937117">
  <ele>-25.048</ele>
  <time>2026-09-01T01:17:07Z</time>
  <course>196.82</course>
  <speed>0.8736131867136622</speed>
  <fix>3d</fix>
</trkpt>
<trkpt lat="33.8106774" lon="-118.3937109">
  <ele>-24.44</ele>
  <time>2026-09-01T01:17:07Z</time>
  <course>194.27</course>
  <speed>0.9</speed>
  <fix>3d</fix>
</trkpt>
<trkpt lat="33.8106749" lon="-118.3937119">
  <ele>-25.048</ele>
  <time>2026-09-01T01:17:07Z</time>
  <course>196.77</course>
  <speed>0.8736131867136622</speed>
  <fix>3d</fix>
</trkpt>
<trkpt lat="33.8106758" lon="-118.3937114">
  <ele>-24.44</ele>
  <time>2026-09-01T01:17:07Z</time>
  <course>194.26</course>
  <speed>0.9</speed>
  <fix>3d</fix>
</trkpt>
<trkpt lat="33.8106741" lon="-118.3937122">
  <ele>-25.049</ele>
  <time>2026-09-01T01:17:07Z</time>
  <course>196.73</course>
  <speed>0.8736131867136622</speed>
  <fix>3d</fix>
</trkpt>
<trkpt lat="33.8106758" lon="-118.3937114">
  <ele>-24.44</ele>
  <time>2026-09-01T01:17:07Z</time>
  <course>194.26</course>
  <speed>0.9</speed>
  <fix>3d</fix>
</trkpt>
<trkpt lat="33.8106734" lon="-118.3937124">
  <ele>-25.049</ele>
  <time>2026-09-01T01:17:07Z</time>
  <course>196.71</course>
  <speed>0.8736131867136622</speed>
  <fix>3d</fix>
</trkpt>
<trkpt lat="33.8106741" lon="-118.3937119">
  <ele>-24.44</ele>
  <time>2026-09-01T01:17:07Z</time>
  <course>194.27</course>
  <speed>0.9</speed>
  <fix>3d</fix>
</trkpt>
<trkpt lat="33.8106726" lon="-118.3937126">
  <ele>-25.048</ele>
  <time>2026-09-01T01:17:07Z</time>
  <course>196.67</course>
  <speed>0.8736131867136622</speed>
  <fix>3d</fix>
</trkpt>
<trkpt lat="33.8106741" lon="-118.3937119">
  <ele>-24.44</ele>
  <time>2026-09-01T01:17:07Z</time>
  <course>194.27</course>
  <speed>0.9</speed>
  <fix>3d</fix>
</trkpt>
<trkpt lat="33.8106718" lon="-118.3937129">
  <ele>-25.049</ele>
  <time>2026-09-01T01:17:07Z</time>
  <course>196.65</course>
  <speed>0.8736131867136622</speed>
  <fix>3d</fix>
</trkpt>
<trkpt lat="33.8106726" lon="-118.3937124">
  <ele>-24.44</ele>
  <time>2026-09-01T01:17:07Z</time>
  <course>194.27</course>
  <speed>0.91</speed>
  <fix>3d</fix>
</trkpt>
<trkpt lat="33.810671" lon="-118.3937131">
  <ele>-25.049</ele>
  <time>2026-09-01T01:17:07Z</time>
  <course>196.63</course>
  <speed>0.8832326986700617</speed>
  <fix>3d</fix>
</trkpt>
<trkpt lat="33.8106726" lon="-118.3937124">
  <ele>-24.44</ele>
  <time>2026-09-01T01:17:07Z</time>
  <course>194.27</course>
  <speed>0.91</speed>
  <fix>3d</fix>
</trkpt>
<trkpt lat="33.8106702" lon="-118.3937134">
  <ele>-25.05</ele>
  <time>2026-09-01T01:17:07Z</time>
  <course>196.6</course>
  <speed>0.8832326986700617</speed>
  <fix>3d</fix>
</trkpt>
<trkpt lat="33.810671" lon="-118.3937129">
  <ele>-24.44</ele>
  <time>2026-09-01T01:17:07Z</time>
  <course>194.28</course>
  <speed>0.91</speed>
  <fix>3d</fix>
</trkpt>
<trkpt lat="33.8106694" lon="-118.3937136">
  <ele>-25.049</ele>
  <time>2026-09-01T01:17:07Z</time>
  <course>196.57</course>
  <speed>0.8832326986700617</speed>
  <fix>3d</fix>
</trkpt>
<trkpt lat="33.810671" lon="-118.3937129">
  <ele>-24.44</ele>
  <time>2026-09-01T01:17:07Z</time>
  <course>194.28</course>
  <speed>0.91</speed>
  <fix>3d</fix>
</trkpt>
<trkpt lat="33.8106686" lon="-118.3937139">
  <ele>-25.048</ele>
  <time>2026-09-01T01:17:07Z</time>
  <course>196.53</course>
  <speed>0.8832326986700617</speed>
  <fix>3d</fix>
</trkpt>
<trkpt lat="33.8106693" lon="-118.3937134">
  <ele>-24.44</ele>
  <time>2026-09-01T01:17:07Z</time>
  <course>194.26</course>
  <speed>0.91</speed>
  <fix>3d</fix>
</trkpt>
<trkpt lat="33.8106678" lon="-118.3937141">
  <ele>-25.046</ele>
  <time>2026-09-01T01:17:07Z</time>
  <course>196.49</course>
  <speed>0.8832326986700617</speed>
  <fix>3d</fix>
</trkpt>
<trkpt lat="33.8106693" lon="-118.3937134">
  <ele>-24.44</ele>
  <time>2026-09-01T01:17:07Z</time>
  <course>194.26</course>
  <speed>0.91</speed>
  <fix>3d</fix>
</trkpt>
<trkpt lat="33.810667" lon="-118.3937143">
  <ele>-25.044</ele>
  <time>2026-09-01T01:17:07Z</time>
  <course>196.45</course>
  <speed>0.8832326986700617</speed>
  <fix>3d</fix>
</trkpt>
<trkpt lat="33.8106678" lon="-118.3937139">
  <ele>-24.43</ele>
  <time>2026-09-01T01:17:07Z</time>
  <course>194.23</course>
  <speed>0.91</speed>
  <fix>3d</fix>
</trkpt>
<trkpt lat="33.8106662" lon="-118.3937146">
  <ele>-25.043</ele>
  <time>2026-09-01T01:17:07Z</time>
  <course>196.4</course>
  <speed>0.8832326986700617</speed>
  <fix>3d</fix>
</trkpt>
<trkpt lat="33.8106678" lon="-118.3937139">
  <ele>-24.43</ele>
  <time>2026-09-01T01:17:07Z</time>
  <course>194.23</course>
  <speed>0.91</speed>
  <fix>3d</fix>
</trkpt>
<trkpt lat="33.8106653" lon="-118.3937148">
  <ele>-25.042</ele>
  <time>2026-09-01T01:17:07Z</time>
  <course>196.36</course>
  <speed>0.8832326986700617</speed>
  <fix>3d</fix>
</trkpt>
<trkpt lat="33.8106662" lon="-118.3937143">
  <ele>-24.43</ele>
  <time>2026-09-01T01:17:07Z</time>
  <course>194.2</course>
  <speed>0.91</speed>
  <fix>3d</fix>
</trkpt>
<trkpt lat="33.8106645" lon="-118.3937151">
  <ele>-25.041</ele>
  <time>2026-09-01T01:17:07Z</time>
  <course>196.33</course>
  <speed>0.8832326986700617</speed>
  <fix>3d</fix>
</trkpt>
<trkpt lat="33.8106662" lon="-118.3937143">
  <ele>-24.43</ele>
  <time>2026-09-01T01:17:07Z</time>
  <course>194.2</course>
  <speed>0.91</speed>
  <fix>3d</fix>
</trkpt>
<trkpt lat="33.8106638" lon="-118.3937153">
  <ele>-25.04</ele>
  <time>2026-09-01T01:17:07Z</time>
  <course>196.3</course>
  <speed>0.8832326986700617</speed>
  <fix>3d</fix>
</trkpt>
<trkpt lat="33.8106647" lon="-118.3937148">
  <ele>-24.43</ele>
  <time>2026-09-01T01:17:07Z</time>
  <course>194.18</course>
  <speed>0.91</speed>
  <fix>3d</fix>
</trkpt>
<trkpt lat="33.810663" lon="-118.3937156">
  <ele>-25.041</ele>
  <time>2026-09-01T01:17:07Z</time>
  <course>196.28</course>
  <speed>0.8928605714219886</speed>
  <fix>3d</fix>
</trkpt>
<trkpt lat="33.8106647" lon="-118.3937148">
  <ele>-24.43</ele>
  <time>2026-09-01T01:17:07Z</time>
  <course>194.18</course>
  <speed>0.91</speed>
  <fix>3d</fix>
</trkpt>
<trkpt lat="33.8106621" lon="-118.3937158">
  <ele>-25.042</ele>
  <time>2026-09-01T01:17:07Z</time>
  <course>196.26</course>
  <speed>0.8928605714219886</speed>
  <fix>3d</fix>
</trkpt>
<trkpt lat="33.8106631" lon="-118.3937153">
  <ele>-24.44</ele>
  <time>2026-09-01T01:17:07Z</time>
  <course>194.2</course>
  <speed>0.91</speed>
  <fix>3d</fix>
</trkpt>
<trkpt lat="33.8106613" lon="-118.393716">
  <ele>-25.045</ele>
  <time>2026-09-01T01:17:07Z</time>
  <course>196.24</course>
  <speed>0.8928605714219886</speed>
  <fix>3d</fix>
</trkpt>
<trkpt lat="33.8106631" lon="-118.3937153">
  <ele>-24.44</ele>
  <time>2026-09-01T01:17:07Z</time>
  <course>194.2</course>
  <speed>0.91</speed>
  <fix>3d</fix>
</trkpt>
<trkpt lat="33.8106605" lon="-118.3937163">
  <ele>-25.047</ele>
  <time>2026-09-01T01:17:07Z</time>
  <course>196.22</course>
  <speed>0.8928605714219886</speed>
  <fix>3d</fix>
</trkpt>
<trkpt lat="33.8106614" lon="-118.3937158">
  <ele>-24.44</ele>
  <time>2026-09-01T01:17:07Z</time>
  <course>194.2</course>
  <speed>0.92</speed>
  <fix>3d</fix>
</trkpt>
<trkpt lat="33.8106597" lon="-118.3937165">
  <ele>-25.05</ele>
  <time>2026-09-01T01:17:07Z</time>
  <course>196.18</course>
  <speed>0.8928605714219886</speed>
  <fix>3d</fix>
</trkpt>
<trkpt lat="33.8106614" lon="-118.3937158">
  <ele>-24.44</ele>
  <time>2026-09-01T01:17:07Z</time>
  <course>194.2</course>
  <speed>0.92</speed>
  <fix>3d</fix>
</trkpt>
<trkpt lat="33.8106589" lon="-118.3937168">
  <ele>-25.051</ele>
  <time>2026-09-01T01:17:07Z</time>
  <course>196.16</course>
  <speed>0.8928605714219886</speed>
  <fix>3d</fix>
</trkpt>
<trkpt lat="33.8106598" lon="-118.3937163">
  <ele>-24.44</ele>
  <time>2026-09-01T01:17:07Z</time>
  <course>194.19</course>
  <speed>0.92</speed>
  <fix>3d</fix>
</trkpt>
<trkpt lat="33.8106581" lon="-118.393717">
  <ele>-25.051</ele>
  <time>2026-09-01T01:17:07Z</time>
  <course>196.14</course>
  <speed>0.8928605714219886</speed>
  <fix>3d</fix>
</trkpt>
<trkpt lat="33.8106598" lon="-118.3937163">
  <ele>-24.44</ele>
  <time>2026-09-01T01:17:07Z</time>
  <course>194.19</course>
  <speed>0.92</speed>
  <fix>3d</fix>
</trkpt>
<trkpt lat="33.8106573" lon="-118.3937173">
  <ele>-25.052</ele>
  <time>2026-09-01T01:17:08Z</time>
  <course>196.11</course>
  <speed>0.8928605714219886</speed>
  <fix>3d</fix>
</trkpt>
<trkpt lat="33.8106582" lon="-118.3937168">
  <ele>-24.45</ele>
  <time>2026-09-01T01:17:08Z</time>
  <course>194.17</course>
  <speed>0.92</speed>
  <fix>3d</fix>
</trkpt>
<trkpt lat="33.8106565" lon="-118.3937175">
  <ele>-25.052</ele>
  <time>2026-09-01T01:17:08Z</time>
  <course>196.08</course>
  <speed>0.8928605714219886</speed>
  <fix>3d</fix>
</trkpt>
<trkpt lat="33.8106582" lon="-118.3937168">
  <ele>-24.45</ele>
  <time>2026-09-01T01:17:08Z</time>
  <course>194.17</course>
  <speed>0.92</speed>
  <fix>3d</fix>
</trkpt>
<trkpt lat="33.8106557" lon="-118.3937178">
  <ele>-25.051</ele>
  <time>2026-09-01T01:17:08Z</time>
  <course>196.05</course>
  <speed>0.8928605714219886</speed>
  <fix>3d</fix>
</trkpt>
<trkpt lat="33.8106566" lon="-118.3937173">
  <ele>-24.45</ele>
  <time>2026-09-01T01:17:08Z</time>
  <course>194.14</course>
  <speed>0.92</speed>
  <fix>3d</fix>
</trkpt>
<trkpt lat="33.8106549" lon="-118.393718">
  <ele>-25.051</ele>
  <time>2026-09-01T01:17:08Z</time>
  <course>196.02</course>
  <speed>0.9024965373894794</speed>
  <fix>3d</fix>
</trkpt>
<trkpt lat="33.8106566" lon="-118.3937173">
  <ele>-24.45</ele>
  <time>2026-09-01T01:17:08Z</time>
  <course>194.14</course>
  <speed>0.92</speed>
  <fix>3d</fix>
</trkpt>
<trkpt lat="33.8106541" lon="-118.3937183">
  <ele>-25.051</ele>
  <time>2026-09-01T01:17:08Z</time>
  <course>195.99</course>
  <speed>0.9024965373894794</speed>
  <fix>3d</fix>
</trkpt>
<trkpt lat="33.8106549" lon="-118.3937178">
  <ele>-24.44</ele>
  <time>2026-09-01T01:17:08Z</time>
  <course>194.11</course>
  <speed>0.92</speed>
  <fix>3d</fix>
</trkpt>
<trkpt lat="33.8106533" lon="-118.3937185">
  <ele>-25.05</ele>
  <time>2026-09-01T01:17:08Z</time>
  <course>195.96</course>
  <speed>0.9024965373894794</speed>
  <fix>3d</fix>
</trkpt>
<trkpt lat="33.8106549" lon="-118.3937178">
  <ele>-24.44</ele>
  <time>2026-09-01T01:17:08Z</time>
  <course>194.11</course>
  <speed>0.92</speed>
  <fix>3d</fix>
</trkpt>
<trkpt lat="33.8106524" lon="-118.3937187">
  <ele>-25.05</ele>
  <time>2026-09-01T01:17:08Z</time>
  <course>195.93</course>
  <speed>0.9024965373894794</speed>
  <fix>3d</fix>
</trkpt>
<trkpt lat="33.8106534" lon="-118.3937183">
  <ele>-24.44</ele>
  <time>2026-09-01T01:17:08Z</time>
  <course>194.09</course>
  <speed>0.93</speed>
  <fix>3d</fix>
</trkpt>
<trkpt lat="33.8106516" lon="-118.393719">
  <ele>-25.049</ele>
  <time>2026-09-01T01:17:08Z</time>
  <course>195.9</course>
  <speed>0.9024965373894794</speed>
  <fix>3d</fix>
</trkpt>
<trkpt lat="33.8106534" lon="-118.3937183">
  <ele>-24.44</ele>
  <time>2026-09-01T01:17:08Z</time>
  <course>194.09</course>
  <speed>0.93</speed>
  <fix>3d</fix>
</trkpt>
<trkpt lat="33.8106508" lon="-118.3937192">
  <ele>-25.048</ele>
  <time>2026-09-01T01:17:08Z</time>
  <course>195.87</course>
  <speed>0.9024965373894794</speed>
  <fix>3d</fix>
</trkpt>
<trkpt lat="33.8106517" lon="-118.3937187">
  <ele>-24.44</ele>
  <time>2026-09-01T01:17:08Z</time>
  <course>194.05</course>
  <speed>0.93</speed>
  <fix>3d</fix>
</trkpt>
<trkpt lat="33.81065" lon="-118.3937195">
  <ele>-25.047</ele>
  <time>2026-09-01T01:17:08Z</time>
  <course>195.84</course>
  <speed>0.9024965373894794</speed>
  <fix>3d</fix>
</trkpt>
<trkpt lat="33.8106517" lon="-118.3937187">
  <ele>-24.44</ele>
  <time>2026-09-01T01:17:08Z</time>
  <course>194.05</course>
  <speed>0.93</speed>
  <fix>3d</fix>
</trkpt>
<trkpt lat="33.8106492" lon="-118.3937197">
  <ele>-25.048</ele>
  <time>2026-09-01T01:17:08Z</time>
  <course>195.83</course>
  <speed>0.9024965373894794</speed>
  <fix>3d</fix>
</trkpt>
<trkpt lat="33.8106501" lon="-118.3937192">
  <ele>-24.44</ele>
  <time>2026-09-01T01:17:08Z</time>
  <course>194.05</course>
  <speed>0.93</speed>
  <fix>3d</fix>
</trkpt>
<trkpt lat="33.8106484" lon="-118.39372">
  <ele>-25.048</ele>
  <time>2026-09-01T01:17:08Z</time>
  <course>195.84</course>
  <speed>0.9024965373894794</speed>
  <fix>3d</fix>
</trkpt>
<trkpt lat="33.8106501" lon="-118.3937192">
  <ele>-24.44</ele>
  <time>2026-09-01T01:17:08Z</time>
  <course>194.05</course>
  <speed>0.93</speed>
  <fix>3d</fix>
</trkpt>
<trkpt lat="33.8106475" lon="-118.3937202">
  <ele>-25.048</ele>
  <time>2026-09-01T01:17:08Z</time>
  <course>195.85</course>
  <speed>0.9024965373894794</speed>
  <fix>3d</fix>
</trkpt>
<trkpt lat="33.8106485" lon="-118.3937197">
  <ele>-24.44</ele>
  <time>2026-09-01T01:17:08Z</time>
  <course>194.11</course>
  <speed>0.93</speed>
  <fix>3d</fix>
</trkpt>
<trkpt lat="33.8106467" lon="-118.3937205">
  <ele>-25.047</ele>
  <time>2026-09-01T01:17:08Z</time>
  <course>195.87</course>
  <speed>0.9024965373894794</speed>
  <fix>3d</fix>
</trkpt>
<trkpt lat="33.8106485" lon="-118.3937197">
  <ele>-24.44</ele>
  <time>2026-09-01T01:17:08Z</time>
  <course>194.11</course>
  <speed>0.93</speed>
  <fix>3d</fix>
</trkpt>
<trkpt lat="33.8106459" lon="-118.3937207">
  <ele>-25.046</ele>
  <time>2026-09-01T01:17:08Z</time>
  <course>195.87</course>
  <speed>0.9024965373894794</speed>
  <fix>3d</fix>
</trkpt>
<trkpt lat="33.8106468" lon="-118.3937202">
  <ele>-24.43</ele>
  <time>2026-09-01T01:17:08Z</time>
  <course>194.14</course>
  <speed>0.93</speed>
  <fix>3d</fix>
</trkpt>
<trkpt lat="33.8106451" lon="-118.393721">
  <ele>-25.044</ele>
  <time>2026-09-01T01:17:08Z</time>
  <course>195.88</course>
  <speed>0.9024965373894794</speed>
  <fix>3d</fix>
</trkpt>
<trkpt lat="33.8106468" lon="-118.3937202">
  <ele>-24.43</ele>
  <time>2026-09-01T01:17:08Z</time>
  <course>194.14</course>
  <speed>0.93</speed>
  <fix>3d</fix>
</trkpt>
<trkpt lat="33.8106443" lon="-118.3937212">
  <ele>-25.042</ele>
  <time>2026-09-01T01:17:08Z</time>
  <course>195.88</course>
  <speed>0.9121403400793103</speed>
  <fix>3d</fix>
</trkpt>
<trkpt lat="33.8106452" lon="-118.3937207">
  <ele>-24.43</ele>
  <time>2026-09-01T01:17:08Z</time>
  <course>194.16</course>
  <speed>0.93</speed>
  <fix>3d</fix>
</trkpt>
<trkpt lat="33.8106434" lon="-118.3937215">
  <ele>-25.041</ele>
  <time>2026-09-01T01:17:08Z</time>
  <course>195.89</course>
  <speed>0.9024965373894794</speed>
  <fix>3d</fix>
</trkpt>
<trkpt lat="33.8106452" lon="-118.3937207">
  <ele>-24.43</ele>
  <time>2026-09-01T01:17:08Z</time>
  <course>194.16</course>
  <speed>0.93</speed>
  <fix>3d</fix>
</trkpt>
<trkpt lat="33.8106426" lon="-118.3937217">
  <ele>-25.041</ele>
  <time>2026-09-01T01:17:08Z</time>
  <course>195.89</course>
  <speed>0.9121403400793103</speed>
  <fix>3d</fix>
</trkpt>
<trkpt lat="33.8106436" lon="-118.3937212">
  <ele>-24.43</ele>
  <time>2026-09-01T01:17:08Z</time>
  <course>194.2</course>
  <speed>0.93</speed>
  <fix>3d</fix>
</trkpt>
<trkpt lat="33.8106418" lon="-118.393722">
  <ele>-25.043</ele>
  <time>2026-09-01T01:17:08Z</time>
  <course>195.88</course>
  <speed>0.9121403400793103</speed>
  <fix>3d</fix>
</trkpt>
<trkpt lat="33.8106436" lon="-118.3937212">
  <ele>-24.43</ele>
  <time>2026-09-01T01:17:08Z</time>
  <course>194.2</course>
  <speed>0.93</speed>
  <fix>3d</fix>
</trkpt>
<trkpt lat="33.810641" lon="-118.3937222">
  <ele>-25.045</ele>
  <time>2026-09-01T01:17:08Z</time>
  <course>195.87</course>
  <speed>0.9121403400793103</speed>
  <fix>3d</fix>
</trkpt>
<trkpt lat="33.810642" lon="-118.3937217">
  <ele>-24.43</ele>
  <time>2026-09-01T01:17:08Z</time>
  <course>194.19</course>
  <speed>0.94</speed>
  <fix>3d</fix>
</trkpt>
<trkpt lat="33.8106402" lon="-118.3937225">
  <ele>-25.046</ele>
  <time>2026-09-01T01:17:08Z</time>
  <course>195.84</course>
  <speed>0.9121403400793103</speed>
  <fix>3d</fix>
</trkpt>
<trkpt lat="33.810642" lon="-118.3937217">
  <ele>-24.43</ele>
  <time>2026-09-01T01:17:08Z</time>
  <course>194.19</course>
  <speed>0.94</speed>
  <fix>3d</fix>
</trkpt>
<trkpt lat="33.8106393" lon="-118.3937227">
  <ele>-25.046</ele>
  <time>2026-09-01T01:17:08Z</time>
  <course>195.82</course>
  <speed>0.9121403400793103</speed>
  <fix>3d</fix>
</trkpt>
<trkpt lat="33.8106403" lon="-118.3937222">
  <ele>-24.44</ele>
  <time>2026-09-01T01:17:08Z</time>
  <course>194.17</course>
  <speed>0.94</speed>
  <fix>3d</fix>
</trkpt>
<trkpt lat="33.8106385" lon="-118.393723">
  <ele>-25.047</ele>
  <time>2026-09-01T01:17:08Z</time>
  <course>195.8</course>
  <speed>0.9121403400793103</speed>
  <fix>3d</fix>
</trkpt>
<trkpt lat="33.8106403" lon="-118.3937222">
  <ele>-24.44</ele>
  <time>2026-09-01T01:17:08Z</time>
  <course>194.17</course>
  <speed>0.94</speed>
  <fix>3d</fix>
</trkpt>
<trkpt lat="33.8106377" lon="-118.3937232">
  <ele>-25.047</ele>
  <time>2026-09-01T01:17:08Z</time>
  <course>195.77</course>
  <speed>0.9121403400793103</speed>
  <fix>3d</fix>
</trkpt>
<trkpt lat="33.8106387" lon="-118.3937227">
  <ele>-24.44</ele>
  <time>2026-09-01T01:17:08Z</time>
  <course>194.15</course>
  <speed>0.94</speed>
  <fix>3d</fix>
</trkpt>
<trkpt lat="33.8106369" lon="-118.3937234">
  <ele>-25.047</ele>
  <time>2026-09-01T01:17:08Z</time>
  <course>195.75</course>
  <speed>0.9121403400793103</speed>
  <fix>3d</fix>
</trkpt>
<trkpt lat="33.8106387" lon="-118.3937227">
  <ele>-24.44</ele>
  <time>2026-09-01T01:17:08Z</time>
  <course>194.15</course>
  <speed>0.94</speed>
  <fix>3d</fix>
</trkpt>
<trkpt lat="33.8106361" lon="-118.3937237">
  <ele>-25.047</ele>
  <time>2026-09-01T01:17:08Z</time>
  <course>195.73</course>
  <speed>0.9121403400793103</speed>
  <fix>3d</fix>
</trkpt>
<trkpt lat="33.810637" lon="-118.3937232">
  <ele>-24.44</ele>
  <time>2026-09-01T01:17:08Z</time>
  <course>194.11</course>
  <speed>0.94</speed>
  <fix>3d</fix>
</trkpt>
<trkpt lat="33.8106352" lon="-118.3937239">
  <ele>-25.046</ele>
  <time>2026-09-01T01:17:08Z</time>
  <course>195.71</course>
  <speed>0.9121403400793103</speed>
  <fix>3d</fix>
</trkpt>
<trkpt lat="33.810637" lon="-118.3937232">
  <ele>-24.44</ele>
  <time>2026-09-01T01:17:08Z</time>
  <course>194.11</course>
  <speed>0.94</speed>
  <fix>3d</fix>
</trkpt>
<trkpt lat="33.8106344" lon="-118.3937242">
  <ele>-25.045</ele>
  <time>2026-09-01T01:17:08Z</time>
  <course>195.7</course>
  <speed>0.9121403400793103</speed>
  <fix>3d</fix>
</trkpt>
<trkpt lat="33.8106353" lon="-118.3937237">
  <ele>-24.44</ele>
  <time>2026-09-01T01:17:08Z</time>
  <course>194.08</course>
  <speed>0.94</speed>
  <fix>3d</fix>
</trkpt>
<trkpt lat="33.8106336" lon="-118.3937245">
  <ele>-25.045</ele>
  <time>2026-09-01T01:17:08Z</time>
  <course>195.69</course>
  <speed>0.9217917335276988</speed>
  <fix>3d</fix>
</trkpt>
<trkpt lat="33.8106353" lon="-118.3937237">
  <ele>-24.44</ele>
  <time>2026-09-01T01:17:08Z</time>
  <course>194.08</course>
  <speed>0.94</speed>
  <fix>3d</fix>
</trkpt>
<trkpt lat="33.8106327" lon="-118.3937247">
  <ele>-25.046</ele>
  <time>2026-09-01T01:17:08Z</time>
  <course>195.68</course>
  <speed>0.9217917335276988</speed>
  <fix>3d</fix>
</trkpt>
<trkpt lat="33.8106337" lon="-118.3937242">
  <ele>-24.44</ele>
  <time>2026-09-01T01:17:08Z</time>
  <course>194.08</course>
  <speed>0.94</speed>
  <fix>3d</fix>
</trkpt>
<trkpt lat="33.8106319" lon="-118.393725">
  <ele>-25.047</ele>
  <time>2026-09-01T01:17:08Z</time>
  <course>195.68</course>
  <speed>0.9217917335276988</speed>
  <fix>3d</fix>
</trkpt>
<trkpt lat="33.8106337" lon="-118.3937242">
  <ele>-24.44</ele>
  <time>2026-09-01T01:17:08Z</time>
  <course>194.08</course>
  <speed>0.94</speed>
  <fix>3d</fix>
</trkpt>
<trkpt lat="33.8106311" lon="-118.3937252">
  <ele>-25.047</ele>
  <time>2026-09-01T01:17:08Z</time>
  <course>195.68</course>
  <speed>0.9217917335276988</speed>
  <fix>3d</fix>
</trkpt>
<trkpt lat="33.8106321" lon="-118.3937247">
  <ele>-24.44</ele>
  <time>2026-09-01T01:17:08Z</time>
  <course>194.1</course>
  <speed>0.94</speed>
  <fix>3d</fix>
</trkpt>
<trkpt lat="33.8106303" lon="-118.3937255">
  <ele>-25.046</ele>
  <time>2026-09-01T01:17:08Z</time>
  <course>195.66</course>
  <speed>0.9217917335276988</speed>
  <fix>3d</fix>
</trkpt>
<trkpt lat="33.8106321" lon="-118.3937247">
  <ele>-24.44</ele>
  <time>2026-09-01T01:17:08Z</time>
  <course>194.1</course>
  <speed>0.94</speed>
  <fix>3d</fix>
</trkpt>
<trkpt lat="33.8106294" lon="-118.3937257">
  <ele>-25.046</ele>
  <time>2026-09-01T01:17:08Z</time>
  <course>195.65</course>
  <speed>0.9217917335276988</speed>
  <fix>3d</fix>
</trkpt>
<trkpt lat="33.8106304" lon="-118.3937252">
  <ele>-24.45</ele>
  <time>2026-09-01T01:17:08Z</time>
  <course>194.1</course>
  <speed>0.95</speed>
  <fix>3d</fix>
</trkpt>
<trkpt lat="33.8106286" lon="-118.393726">
  <ele>-25.047</ele>
  <time>2026-09-01T01:17:08Z</time>
  <course>195.63</course>
  <speed>0.9217917335276988</speed>
  <fix>3d</fix>
</trkpt>
<trkpt lat="33.8106304" lon="-118.3937252">
  <ele>-24.45</ele>
  <time>2026-09-01T01:17:08Z</time>
  <course>194.1</course>
  <speed>0.95</speed>
  <fix>3d</fix>
</trkpt>
<trkpt lat="33.8106278" lon="-118.3937262">
  <ele>-25.05</ele>
  <time>2026-09-01T01:17:08Z</time>
  <course>195.62</course>
  <speed>0.9217917335276988</speed>
  <fix>3d</fix>
</trkpt>
<trkpt lat="33.8106287" lon="-118.3937257">
  <ele>-24.45</ele>
  <time>2026-09-01T01:17:08Z</time>
  <course>194.08</course>
  <speed>0.95</speed>
  <fix>3d</fix>
</trkpt>
<trkpt lat="33.8106269" lon="-118.3937265">
  <ele>-25.051</ele>
  <time>2026-09-01T01:17:08Z</time>
  <course>195.61</course>
  <speed>0.9217917335276988</speed>
  <fix>3d</fix>
</trkpt>
<trkpt lat="33.8106287" lon="-118.3937257">
  <ele>-24.45</ele>
  <time>2026-09-01T01:17:08Z</time>
  <course>194.08</course>
  <speed>0.95</speed>
  <fix>3d</fix>
</trkpt>
<trkpt lat="33.8106261" lon="-118.3937267">
  <ele>-25.051</ele>
  <time>2026-09-01T01:17:08Z</time>
  <course>195.61</course>
  <speed>0.9217917335276988</speed>
  <fix>3d</fix>
</trkpt>
<trkpt lat="33.8106271" lon="-118.3937262">
  <ele>-24.45</ele>
  <time>2026-09-01T01:17:08Z</time>
  <course>194.07</course>
  <speed>0.95</speed>
  <fix>3d</fix>
</trkpt>
<trkpt lat="33.8106253" lon="-118.393727">
  <ele>-25.051</ele>
  <time>2026-09-01T01:17:08Z</time>
  <course>195.6</course>
  <speed>0.9217917335276988</speed>
  <fix>3d</fix>
</trkpt>
<trkpt lat="33.8106271" lon="-118.3937262">
  <ele>-24.45</ele>
  <time>2026-09-01T01:17:08Z</time>
  <course>194.07</course>
  <speed>0.95</speed>
  <fix>3d</fix>
</trkpt>
<trkpt lat="33.8106244" lon="-118.3937272">
  <ele>-25.051</ele>
  <time>2026-09-01T01:17:08Z</time>
  <course>195.59</course>
  <speed>0.9217917335276988</speed>
  <fix>3d</fix>
</trkpt>
<trkpt lat="33.8106254" lon="-118.3937267">
  <ele>-24.44</ele>
  <time>2026-09-01T01:17:08Z</time>
  <course>194.09</course>
  <speed>0.95</speed>
  <fix>3d</fix>
</trkpt>
<trkpt lat="33.8106236" lon="-118.3937275">
  <ele>-25.051</ele>
  <time>2026-09-01T01:17:08Z</time>
  <course>195.59</course>
  <speed>0.9217917335276988</speed>
  <fix>3d</fix>
</trkpt>
<trkpt lat="33.8106254" lon="-118.3937267">
  <ele>-24.44</ele>
  <time>2026-09-01T01:17:08Z</time>
  <course>194.09</course>
  <speed>0.95</speed>
  <fix>3d</fix>
</trkpt>
<trkpt lat="33.8106228" lon="-118.3937277">
  <ele>-25.05</ele>
  <time>2026-09-01T01:17:08Z</time>
  <course>195.58</course>
  <speed>0.9217917335276988</speed>
  <fix>3d</fix>
</trkpt>
<trkpt lat="33.8106237" lon="-118.3937272">
  <ele>-24.44</ele>
  <time>2026-09-01T01:17:08Z</time>
  <course>194.09</course>
  <speed>0.95</speed>
  <fix>3d</fix>
</trkpt>
<trkpt lat="33.8106219" lon="-118.393728">
  <ele>-25.049</ele>
  <time>2026-09-01T01:17:08Z</time>
  <course>195.57</course>
  <speed>0.9217917335276988</speed>
  <fix>3d</fix>
</trkpt>
<trkpt lat="33.8106237" lon="-118.3937272">
  <ele>-24.44</ele>
  <time>2026-09-01T01:17:08Z</time>
  <course>194.09</course>
  <speed>0.95</speed>
  <fix>3d</fix>
</trkpt>
<trkpt lat="33.8106211" lon="-118.3937282">
  <ele>-25.048</ele>
  <time>2026-09-01T01:17:08Z</time>
  <course>195.58</course>
  <speed>0.9217917335276988</speed>
  <fix>3d</fix>
</trkpt>
<trkpt lat="33.8106221" lon="-118.3937277">
  <ele>-24.44</ele>
  <time>2026-09-01T01:17:08Z</time>
  <course>194.1</course>
  <speed>0.95</speed>
  <fix>3d</fix>
</trkpt>
<trkpt lat="33.8106203" lon="-118.3937285">
  <ele>-25.047</ele>
  <time>2026-09-01T01:17:08Z</time>
  <course>195.58</course>
  <speed>0.9217917335276988</speed>
  <fix>3d</fix>
</trkpt>
<trkpt lat="33.8106221" lon="-118.3937277">
  <ele>-24.44</ele>
  <time>2026-09-01T01:17:08Z</time>
  <course>194.1</course>
  <speed>0.95</speed>
  <fix>3d</fix>
</trkpt>
<trkpt lat="33.8106194" lon="-118.3937287">
  <ele>-25.047</ele>
  <time>2026-09-01T01:17:08Z</time>
  <course>195.57</course>
  <speed>0.9217917335276988</speed>
  <fix>3d</fix>
</trkpt>
<trkpt lat="33.8106204" lon="-118.3937282">
  <ele>-24.43</ele>
  <time>2026-09-01T01:17:08Z</time>
  <course>194.09</course>
  <speed>0.95</speed>
  <fix>3d</fix>
</trkpt>
<trkpt lat="33.8106186" lon="-118.393729">
  <ele>-25.047</ele>
  <time>2026-09-01T01:17:08Z</time>
  <course>195.57</course>
  <speed>0.9217917335276988</speed>
  <fix>3d</fix>
</trkpt>
<trkpt lat="33.8106204" lon="-118.3937282">
  <ele>-24.43</ele>
  <time>2026-09-01T01:17:08Z</time>
  <course>194.09</course>
  <speed>0.95</speed>
  <fix>3d</fix>
</trkpt>
<trkpt lat="33.8106178" lon="-118.3937292">
  <ele>-25.047</ele>
  <time>2026-09-01T01:17:08Z</time>
  <course>195.57</course>
  <speed>0.9314504817756014</speed>
  <fix>3d</fix>
</trkpt>
<trkpt lat="33.8106187" lon="-118.3937287">
  <ele>-24.43</ele>
  <time>2026-09-01T01:17:08Z</time>
  <course>194.09</course>
  <speed>0.95</speed>
  <fix>3d</fix>
</trkpt>
<trkpt lat="33.8106169" lon="-118.3937295">
  <ele>-25.045</ele>
  <time>2026-09-01T01:17:08Z</time>
  <course>195.57</course>
  <speed>0.9340770846134703</speed>
  <fix>3d</fix>
</trkpt>
<trkpt lat="33.8106187" lon="-118.3937287">
  <ele>-24.43</ele>
  <time>2026-09-01T01:17:08Z</time>
  <course>194.09</course>
  <speed>0.95</speed>
  <fix>3d</fix>
</trkpt>
<trkpt lat="33.8106161" lon="-118.3937297">
  <ele>-25.044</ele>
  <time>2026-09-01T01:17:08Z</time>
  <course>195.58</course>
  <speed>0.9340770846134703</speed>
  <fix>3d</fix>
</trkpt>
<trkpt lat="33.8106171" lon="-118.3937292">
  <ele>-24.43</ele>
  <time>2026-09-01T01:17:08Z</time>
  <course>194.1</course>
  <speed>0.95</speed>
  <fix>3d</fix>
</trkpt>
<trkpt lat="33.8106152" lon="-118.39373">
  <ele>-25.043</ele>
  <time>2026-09-01T01:17:08Z</time>
  <course>195.58</course>
  <speed>0.9340770846134703</speed>
  <fix>3d</fix>
</trkpt>
<trkpt lat="33.8106171" lon="-118.3937292">
  <ele>-24.43</ele>
  <time>2026-09-01T01:17:08Z</time>
  <course>194.1</course>
  <speed>0.95</speed>
  <fix>3d</fix>
</trkpt>
<trkpt lat="33.8106144" lon="-118.3937302">
  <ele>-25.041</ele>
  <time>2026-09-01T01:17:08Z</time>
  <course>195.58</course>
  <speed>0.9340770846134703</speed>
  <fix>3d</fix>
</trkpt>
<trkpt lat="33.8106154" lon="-118.3937297">
  <ele>-24.43</ele>
  <time>2026-09-01T01:17:08Z</time>
  <course>194.12</course>
  <speed>0.96</speed>
  <fix>3d</fix>
</trkpt>
<trkpt lat="33.8106136" lon="-118.3937305">
  <ele>-25.041</ele>
  <time>2026-09-01T01:17:08Z</time>
  <course>195.58</course>
  <speed>0.9340770846134703</speed>
  <fix>3d</fix>
</trkpt>
<trkpt lat="33.8106154" lon="-118.3937297">
  <ele>-24.43</ele>
  <time>2026-09-01T01:17:08Z</time>
  <course>194.12</course>
  <speed>0.96</speed>
  <fix>3d</fix>
</trkpt>
<trkpt lat="33.8106127" lon="-118.3937307">
  <ele>-25.041</ele>
  <time>2026-09-01T01:17:08Z</time>
  <course>195.58</course>
  <speed>0.9340770846134703</speed>
  <fix>3d</fix>
</trkpt>
<trkpt lat="33.8106137" lon="-118.3937302">
  <ele>-24.43</ele>
  <time>2026-09-01T01:17:08Z</time>
  <course>194.13</course>
  <speed>0.96</speed>
  <fix>3d</fix>
</trkpt>
<trkpt lat="33.8106119" lon="-118.393731">
  <ele>-25.04</ele>
  <time>2026-09-01T01:17:08Z</time>
  <course>195.58</course>
  <speed>0.9340770846134703</speed>
  <fix>3d</fix>
</trkpt>
<trkpt lat="33.8106137" lon="-118.3937302">
  <ele>-24.43</ele>
  <time>2026-09-01T01:17:08Z</time>
  <course>194.13</course>
  <speed>0.96</speed>
  <fix>3d</fix>
</trkpt>
<trkpt lat="33.810611" lon="-118.3937312">
  <ele>-25.04</ele>
  <time>2026-09-01T01:17:08Z</time>
  <course>195.59</course>
  <speed>0.9340770846134703</speed>
  <fix>3d</fix>
</trkpt>
<trkpt lat="33.810612" lon="-118.3937308">
  <ele>-24.43</ele>
  <time>2026-09-01T01:17:08Z</time>
  <course>194.14</course>
  <speed>0.96</speed>
  <fix>3d</fix>
</trkpt>
<trkpt lat="33.8106102" lon="-118.3937315">
  <ele>-25.04</ele>
  <time>2026-09-01T01:17:08Z</time>
  <course>195.58</course>
  <speed>0.9340770846134703</speed>
  <fix>3d</fix>
</trkpt>
<trkpt lat="33.810612" lon="-118.3937308">
  <ele>-24.43</ele>
  <time>2026-09-01T01:17:08Z</time>
  <course>194.14</course>
  <speed>0.96</speed>
  <fix>3d</fix>
</trkpt>
<trkpt lat="33.8106094" lon="-118.3937318">
  <ele>-25.041</ele>
  <time>2026-09-01T01:17:08Z</time>
  <course>195.57</course>
  <speed>0.9340770846134703</speed>
  <fix>3d</fix>
</trkpt>
<trkpt lat="33.8106104" lon="-118.3937313">
  <ele>-24.43</ele>
  <time>2026-09-01T01:17:08Z</time>
  <course>194.11</course>
  <speed>0.96</speed>
  <fix>3d</fix>
</trkpt>
<trkpt lat="33.8106085" lon="-118.393732">
  <ele>-25.042</ele>
  <time>2026-09-01T01:17:08Z</time>
  <course>195.53</course>
  <speed>0.9340770846134703</speed>
  <fix>3d</fix>
</trkpt>
<trkpt lat="33.8106104" lon="-118.3937313">
  <ele>-24.43</ele>
  <time>2026-09-01T01:17:08Z</time>
  <course>194.11</course>
  <speed>0.96</speed>
  <fix>3d</fix>
</trkpt>
<trkpt lat="33.8106077" lon="-118.3937323">
  <ele>-25.042</ele>
  <time>2026-09-01T01:17:08Z</time>
  <course>195.49</course>
  <speed>0.9314504817756014</speed>
  <fix>3d</fix>
</trkpt>
<trkpt lat="33.8106087" lon="-118.3937318">
  <ele>-24.44</ele>
  <time>2026-09-01T01:17:08Z</time>
  <course>194.04</course>
  <speed>0.96</speed>
  <fix>3d</fix>
</trkpt>
<trkpt lat="33.8106068" lon="-118.3937325">
  <ele>-25.043</ele>
  <time>2026-09-01T01:17:08Z</time>
  <course>195.45</course>
  <speed>0.9314504817756014</speed>
  <fix>3d</fix>
</trkpt>
<trkpt lat="33.8106087" lon="-118.3937318">
  <ele>-24.44</ele>
  <time>2026-09-01T01:17:08Z</time>
  <course>194.04</course>
  <speed>0.96</speed>
  <fix>3d</fix>
</trkpt>
<trkpt lat="33.810606" lon="-118.3937328">
  <ele>-25.044</ele>
  <time>2026-09-01T01:17:08Z</time>
  <course>195.41</course>
  <speed>0.9314504817756014</speed>
  <fix>3d</fix>
</trkpt>
<trkpt lat="33.810607" lon="-118.3937323">
  <ele>-24.44</ele>
  <time>2026-09-01T01:17:08Z</time>
  <course>193.97</course>
  <speed>0.96</speed>
  <fix>3d</fix>
</trkpt>
<trkpt lat="33.8106052" lon="-118.393733">
  <ele>-25.046</ele>
  <time>2026-09-01T01:17:08Z</time>
  <course>195.39</course>
  <speed>0.9314504817756014</speed>
  <fix>3d</fix>
</trkpt>
<trkpt lat="33.810607" lon="-118.3937323">
  <ele>-24.44</ele>
  <time>2026-09-01T01:17:08Z</time>
  <course>193.97</course>
  <speed>0.96</speed>
  <fix>3d</fix>
</trkpt>
<trkpt lat="33.8106043" lon="-118.3937333">
  <ele>-25.048</ele>
  <time>2026-09-01T01:17:08Z</time>
  <course>195.36</course>
  <speed>0.9340770846134703</speed>
  <fix>3d</fix>
</trkpt>
<trkpt lat="33.8106053" lon="-118.3937328">
  <ele>-24.45</ele>
  <time>2026-09-01T01:17:08Z</time>
  <course>193.93</course>
  <speed>0.96</speed>
  <fix>3d</fix>
</trkpt>
<trkpt lat="33.8106035" lon="-118.3937335">
  <ele>-25.049</ele>
  <time>2026-09-01T01:17:08Z</time>
  <course>195.35</course>
  <speed>0.9340770846134703</speed>
  <fix>3d</fix>
</trkpt>
<trkpt lat="33.8106053" lon="-118.3937328">
  <ele>-24.45</ele>
  <time>2026-09-01T01:17:08Z</time>
  <course>193.93</course>
  <speed>0.96</speed>
  <fix>3d</fix>
</trkpt>
<trkpt lat="33.8106026" lon="-118.3937338">
  <ele>-25.049</ele>
  <time>2026-09-01T01:17:08Z</time>
  <course>195.34</course>
  <speed>0.943716058992322</speed>
  <fix>3d</fix>
</trkpt>
<trkpt lat="33.8106036" lon="-118.3937333">
  <ele>-24.45</ele>
  <time>2026-09-01T01:17:08Z</time>
  <course>193.92</course>
  <speed>0.96</speed>
  <fix>3d</fix>
</trkpt>
<trkpt lat="33.8106018" lon="-118.393734">
  <ele>-25.05</ele>
  <time>2026-09-01T01:17:08Z</time>
  <course>195.33</course>
  <speed>0.943716058992322</speed>
  <fix>3d</fix>
</trkpt>
<trkpt lat="33.8106036" lon="-118.3937333">
  <ele>-24.45</ele>
  <time>2026-09-01T01:17:08Z</time>
  <course>193.92</course>
  <speed>0.96</speed>
  <fix>3d</fix>
</trkpt>
<trkpt lat="33.8106009" lon="-118.3937343">
  <ele>-25.052</ele>
  <time>2026-09-01T01:17:08Z</time>
  <course>195.33</course>
  <speed>0.943716058992322</speed>
  <fix>3d</fix>
</trkpt>
<trkpt lat="33.8106019" lon="-118.3937338">
  <ele>-24.45</ele>
  <time>2026-09-01T01:17:08Z</time>
  <course>193.93</course>
  <speed>0.96</speed>
  <fix>3d</fix>
</trkpt>
<trkpt lat="33.8106001" lon="-118.3937346">
  <ele>-25.053</ele>
  <time>2026-09-01T01:17:08Z</time>
  <course>195.33</course>
  <speed>0.943716058992322</speed>
  <fix>3d</fix>
</trkpt>
<trkpt lat="33.8106019" lon="-118.3937338">
  <ele>-24.45</ele>
  <time>2026-09-01T01:17:08Z</time>
  <course>193.93</course>
  <speed>0.96</speed>
  <fix>3d</fix>
</trkpt>
<trkpt lat="33.8105993" lon="-118.3937348">
  <ele>-25.052</ele>
  <time>2026-09-01T01:17:08Z</time>
  <course>195.34</course>
  <speed>0.943716058992322</speed>
  <fix>3d</fix>
</trkpt>
<trkpt lat="33.8106003" lon="-118.3937343">
  <ele>-24.45</ele>
  <time>2026-09-01T01:17:08Z</time>
  <course>193.94</course>
  <speed>0.96</speed>
  <fix>3d</fix>
</trkpt>
<trkpt lat="33.8105984" lon="-118.3937351">
  <ele>-25.049</ele>
  <time>2026-09-01T01:17:08Z</time>
  <course>195.35</course>
  <speed>0.943716058992322</speed>
  <fix>3d</fix>
</trkpt>
<trkpt lat="33.8106003" lon="-118.3937343">
  <ele>-24.45</ele>
  <time>2026-09-01T01:17:08Z</time>
  <course>193.94</course>
  <speed>0.96</speed>
  <fix>3d</fix>
</trkpt>
<trkpt lat="33.8105976" lon="-118.3937353">
  <ele>-25.047</ele>
  <time>2026-09-01T01:17:08Z</time>
  <course>195.35</course>
  <speed>0.943716058992322</speed>
  <fix>3d</fix>
</trkpt>
<trkpt lat="33.8105986" lon="-118.3937348">
  <ele>-24.44</ele>
  <time>2026-09-01T01:17:08Z</time>
  <course>193.93</course>
  <speed>0.97</speed>
  <fix>3d</fix>
</trkpt>
<trkpt lat="33.8105967" lon="-118.3937356">
  <ele>-25.045</ele>
  <time>2026-09-01T01:17:08Z</time>
  <course>195.36</course>
  <speed>0.943716058992322</speed>
  <fix>3d</fix>
</trkpt>
<trkpt lat="33.8105986" lon="-118.3937348">
  <ele>-24.44</ele>
  <time>2026-09-01T01:17:08Z</time>
  <course>193.93</course>
  <speed>0.97</speed>
  <fix>3d</fix>
</trkpt>
<trkpt lat="33.8105959" lon="-118.3937358">
  <ele>-25.045</ele>
  <time>2026-09-01T01:17:08Z</time>
  <course>195.37</course>
  <speed>0.943716058992322</speed>
  <fix>3d</fix>
</trkpt>
<trkpt lat="33.8105969" lon="-118.3937353">
  <ele>-24.44</ele>
  <time>2026-09-01T01:17:08Z</time>
  <course>193.95</course>
  <speed>0.97</speed>
  <fix>3d</fix>
</trkpt>
<trkpt lat="33.810595" lon="-118.3937361">
  <ele>-25.046</ele>
  <time>2026-09-01T01:17:08Z</time>
  <course>195.37</course>
  <speed>0.943716058992322</speed>
  <fix>3d</fix>
</trkpt>
<trkpt lat="33.8105969" lon="-118.3937353">
  <ele>-24.44</ele>
  <time>2026-09-01T01:17:08Z</time>
  <course>193.95</course>
  <speed>0.97</speed>
  <fix>3d</fix>
</trkpt>
<trkpt lat="33.8105942" lon="-118.3937363">
  <ele>-25.046</ele>
  <time>2026-09-01T01:17:08Z</time>
  <course>195.38</course>
  <speed>0.9533624704172071</speed>
  <fix>3d</fix>
</trkpt>
<trkpt lat="33.8105952" lon="-118.3937358">
  <ele>-24.44</ele>
  <time>2026-09-01T01:17:08Z</time>
  <course>193.97</course>
  <speed>0.97</speed>
  <fix>3d</fix>
</trkpt>
<trkpt lat="33.8105933" lon="-118.3937366">
  <ele>-25.047</ele>
  <time>2026-09-01T01:17:08Z</time>
  <course>195.4</course>
  <speed>0.9533624704172071</speed>
  <fix>3d</fix>
</trkpt>
<trkpt lat="33.8105952" lon="-118.3937358">
  <ele>-24.44</ele>
  <time>2026-09-01T01:17:08Z</time>
  <course>193.97</course>
  <speed>0.97</speed>
  <fix>3d</fix>
</trkpt>
<trkpt lat="33.8105925" lon="-118.3937368">
  <ele>-25.046</ele>
  <time>2026-09-01T01:17:08Z</time>
  <course>195.41</course>
  <speed>0.9533624704172071</speed>
  <fix>3d</fix>
</trkpt>
<trkpt lat="33.8105935" lon="-118.3937363">
  <ele>-24.44</ele>
  <time>2026-09-01T01:17:08Z</time>
  <course>193.99</course>
  <speed>0.98</speed>
  <fix>3d</fix>
</trkpt>
<trkpt lat="33.8105916" lon="-118.3937371">
  <ele>-25.046</ele>
  <time>2026-09-01T01:17:08Z</time>
  <course>195.43</course>
  <speed>0.9533624704172071</speed>
  <fix>3d</fix>
</trkpt>
<trkpt lat="33.8105935" lon="-118.3937363">
  <ele>-24.44</ele>
  <time>2026-09-01T01:17:08Z</time>
  <course>193.99</course>
  <speed>0.98</speed>
  <fix>3d</fix>
</trkpt>
<trkpt lat="33.8105908" lon="-118.3937374">
  <ele>-25.047</ele>
  <time>2026-09-01T01:17:08Z</time>
  <course>195.44</course>
  <speed>0.9533624704172071</speed>
  <fix>3d</fix>
</trkpt>
<trkpt lat="33.8105918" lon="-118.3937368">
  <ele>-24.44</ele>
  <time>2026-09-01T01:17:08Z</time>
  <course>194.02</course>
  <speed>0.98</speed>
  <fix>3d</fix>
</trkpt>
<trkpt lat="33.8105899" lon="-118.3937376">
  <ele>-25.048</ele>
  <time>2026-09-01T01:17:08Z</time>
  <course>195.46</course>
  <speed>0.9533624704172071</speed>
  <fix>3d</fix>
</trkpt>
<trkpt lat="33.8105918" lon="-118.3937368">
  <ele>-24.44</ele>
  <time>2026-09-01T01:17:08Z</time>
  <course>194.02</course>
  <speed>0.98</speed>
  <fix>3d</fix>
</trkpt>
<trkpt lat="33.8105891" lon="-118.3937379">
  <ele>-25.047</ele>
  <time>2026-09-01T01:17:08Z</time>
  <course>195.48</course>
  <speed>0.9533624704172071</speed>
  <fix>3d</fix>
</trkpt>
<trkpt lat="33.81059" lon="-118.3937374">
  <ele>-24.44</ele>
  <time>2026-09-01T01:17:08Z</time>
  <course>194.04</course>
  <speed>0.98</speed>
  <fix>3d</fix>
</trkpt>
<trkpt lat="33.8105882" lon="-118.3937381">
  <ele>-25.046</ele>
  <time>2026-09-01T01:17:08Z</time>
  <course>195.49</course>
  <speed>0.9533624704172071</speed>
  <fix>3d</fix>
</trkpt>
<trkpt lat="33.81059" lon="-118.3937374">
  <ele>-24.44</ele>
  <time>2026-09-01T01:17:08Z</time>
  <course>194.04</course>
  <speed>0.98</speed>
  <fix>3d</fix>
</trkpt>
<trkpt lat="33.8105874" lon="-118.3937384">
  <ele>-25.044</ele>
  <time>2026-09-01T01:17:08Z</time>
  <course>195.5</course>
  <speed>0.9533624704172071</speed>
  <fix>3d</fix>
</trkpt>
<trkpt lat="33.8105883" lon="-118.3937379">
  <ele>-24.43</ele>
  <time>2026-09-01T01:17:08Z</time>
  <course>194.04</course>
  <speed>0.98</speed>
  <fix>3d</fix>
</trkpt>
<trkpt lat="33.8105865" lon="-118.3937386">
  <ele>-25.043</ele>
  <time>2026-09-01T01:17:08Z</time>
  <course>195.5</course>
  <speed>0.9533624704172071</speed>
  <fix>3d</fix>
</trkpt>
<trkpt lat="33.8105883" lon="-118.3937379">
  <ele>-24.43</ele>
  <time>2026-09-01T01:17:08Z</time>
  <course>194.04</course>
  <speed>0.98</speed>
  <fix>3d</fix>
</trkpt>
<trkpt lat="33.8105857" lon="-118.3937389">
  <ele>-25.041</ele>
  <time>2026-09-01T01:17:08Z</time>
  <course>195.5</course>
  <speed>0.9533624704172071</speed>
  <fix>3d</fix>
</trkpt>
<trkpt lat="33.8105866" lon="-118.3937384">
  <ele>-24.43</ele>
  <time>2026-09-01T01:17:08Z</time>
  <course>194.04</course>
  <speed>0.98</speed>
  <fix>3d</fix>
</trkpt>
<trkpt lat="33.8105848" lon="-118.3937392">
  <ele>-25.04</ele>
  <time>2026-09-01T01:17:08Z</time>
  <course>195.49</course>
  <speed>0.9533624704172071</speed>
  <fix>3d</fix>
</trkpt>
<trkpt lat="33.8105866" lon="-118.3937384">
  <ele>-24.43</ele>
  <time>2026-09-01T01:17:08Z</time>
  <course>194.04</course>
  <speed>0.98</speed>
  <fix>3d</fix>
</trkpt>
<trkpt lat="33.810584" lon="-118.3937394">
  <ele>-25.04</ele>
  <time>2026-09-01T01:17:08Z</time>
  <course>195.49</course>
  <speed>0.9533624704172071</speed>
  <fix>3d</fix>
</trkpt>
<trkpt lat="33.8105849" lon="-118.3937389">
  <ele>-24.43</ele>
  <time>2026-09-01T01:17:08Z</time>
  <course>194.04</course>
  <speed>0.98</speed>
  <fix>3d</fix>
</trkpt>
<trkpt lat="33.8105831" lon="-118.3937397">
  <ele>-25.04</ele>
  <time>2026-09-01T01:17:08Z</time>
  <course>195.49</course>
  <speed>0.9533624704172071</speed>
  <fix>3d</fix>
</trkpt>
<trkpt lat="33.8105849" lon="-118.3937389">
  <ele>-24.43</ele>
  <time>2026-09-01T01:17:08Z</time>
  <course>194.04</course>
  <speed>0.98</speed>
  <fix>3d</fix>
</trkpt>
<trkpt lat="33.8105822" lon="-118.3937399">
  <ele>-25.04</ele>
  <time>2026-09-01T01:17:08Z</time>
  <course>195.49</course>
  <speed>0.9533624704172071</speed>
  <fix>3d</fix>
</trkpt>
<trkpt lat="33.8105832" lon="-118.3937394">
  <ele>-24.43</ele>
  <time>2026-09-01T01:17:08Z</time>
  <course>194.06</course>
  <speed>0.98</speed>
  <fix>3d</fix>
</trkpt>
<trkpt lat="33.8105814" lon="-118.3937402">
  <ele>-25.042</ele>
  <time>2026-09-01T01:17:08Z</time>
  <course>195.49</course>
  <speed>0.9533624704172071</speed>
  <fix>3d</fix>
</trkpt>
<trkpt lat="33.8105832" lon="-118.3937394">
  <ele>-24.43</ele>
  <time>2026-09-01T01:17:08Z</time>
  <course>194.06</course>
  <speed>0.98</speed>
  <fix>3d</fix>
</trkpt>
<trkpt lat="33.8105805" lon="-118.3937404">
  <ele>-25.043</ele>
  <time>2026-09-01T01:17:08Z</time>
  <course>195.51</course>
  <speed>0.9533624704172071</speed>
  <fix>3d</fix>
</trkpt>
<trkpt lat="33.8105815" lon="-118.3937399">
  <ele>-24.43</ele>
  <time>2026-09-01T01:17:08Z</time>
  <course>194.08</course>
  <speed>0.98</speed>
  <fix>3d</fix>
</trkpt>
<trkpt lat="33.8105797" lon="-118.3937407">
  <ele>-25.044</ele>
  <time>2026-09-01T01:17:08Z</time>
  <course>195.52</course>
  <speed>0.9533624704172071</speed>
  <fix>3d</fix>
</trkpt>
<trkpt lat="33.8105815" lon="-118.3937399">
  <ele>-24.43</ele>
  <time>2026-09-01T01:17:08Z</time>
  <course>194.08</course>
  <speed>0.98</speed>
  <fix>3d</fix>
</trkpt>
<trkpt lat="33.8105788" lon="-118.393741">
  <ele>-25.045</ele>
  <time>2026-09-01T01:17:08Z</time>
  <course>195.53</course>
  <speed>0.9533624704172071</speed>
  <fix>3d</fix>
</trkpt>
<trkpt lat="33.8105798" lon="-118.3937405">
  <ele>-24.44</ele>
  <time>2026-09-01T01:17:08Z</time>
  <course>194.1</course>
  <speed>0.98</speed>
  <fix>3d</fix>
</trkpt>
<trkpt lat="33.810578" lon="-118.3937412">
  <ele>-25.045</ele>
  <time>2026-09-01T01:17:08Z</time>
  <course>195.53</course>
  <speed>0.9533624704172071</speed>
  <fix>3d</fix>
</trkpt>
<trkpt lat="33.8105798" lon="-118.3937405">
  <ele>-24.44</ele>
  <time>2026-09-01T01:17:08Z</time>
  <course>194.1</course>
  <speed>0.98</speed>
  <fix>3d</fix>
</trkpt>
<trkpt lat="33.8105771" lon="-118.3937415">
  <ele>-25.047</ele>
  <time>2026-09-01T01:17:08Z</time>
  <course>195.52</course>
  <speed>0.9533624704172071</speed>
  <fix>3d</fix>
</trkpt>
<trkpt lat="33.810578" lon="-118.393741">
  <ele>-24.44</ele>
  <time>2026-09-01T01:17:08Z</time>
  <course>194.08</course>
  <speed>0.98</speed>
  <fix>3d</fix>
</trkpt>
<trkpt lat="33.8105762" lon="-118.3937417">
  <ele>-25.048</ele>
  <time>2026-09-01T01:17:08Z</time>
  <course>195.5</course>
  <speed>0.9533624704172071</speed>
  <fix>3d</fix>
</trkpt>
<trkpt lat="33.810578" lon="-118.393741">
  <ele>-24.44</ele>
  <time>2026-09-01T01:17:08Z</time>
  <course>194.08</course>
  <speed>0.98</speed>
  <fix>3d</fix>
</trkpt>
<trkpt lat="33.8105754" lon="-118.393742">
  <ele>-25.048</ele>
  <time>2026-09-01T01:17:08Z</time>
  <course>195.48</course>
  <speed>0.9533624704172071</speed>
  <fix>3d</fix>
</trkpt>
<trkpt lat="33.8105763" lon="-118.3937415">
  <ele>-24.44</ele>
  <time>2026-09-01T01:17:08Z</time>
  <course>194.04</course>
  <speed>0.98</speed>
  <fix>3d</fix>
</trkpt>
<trkpt lat="33.8105745" lon="-118.3937423">
  <ele>-25.048</ele>
  <time>2026-09-01T01:17:08Z</time>
  <course>195.46</course>
  <speed>0.9533624704172071</speed>
  <fix>3d</fix>
</trkpt>
<trkpt lat="33.8105763" lon="-118.3937415">
  <ele>-24.44</ele>
  <time>2026-09-01T01:17:08Z</time>
  <course>194.04</course>
  <speed>0.98</speed>
  <fix>3d</fix>
</trkpt>
<trkpt lat="33.8105737" lon="-118.3937425">
  <ele>-25.047</ele>
  <time>2026-09-01T01:17:08Z</time>
  <course>195.47</course>
  <speed>0.9533624704172071</speed>
  <fix>3d</fix>
</trkpt>
<trkpt lat="33.8105746" lon="-118.393742">
  <ele>-24.44</ele>
  <time>2026-09-01T01:17:08Z</time>
  <course>194.03</course>
  <speed>0.98</speed>
  <fix>3d</fix>
</trkpt>
<trkpt lat="33.8105728" lon="-118.3937428">
  <ele>-25.047</ele>
  <time>2026-09-01T01:17:08Z</time>
  <course>195.46</course>
  <speed>0.9533624704172071</speed>
  <fix>3d</fix>
</trkpt>
<trkpt lat="33.8105746" lon="-118.393742">
  <ele>-24.44</ele>
  <time>2026-09-01T01:17:08Z</time>
  <course>194.03</course>
  <speed>0.98</speed>
  <fix>3d</fix>
</trkpt>
<trkpt lat="33.8105719" lon="-118.393743">
  <ele>-25.048</ele>
  <time>2026-09-01T01:17:08Z</time>
  <course>195.47</course>
  <speed>0.9533624704172071</speed>
  <fix>3d</fix>
</trkpt>
<trkpt lat="33.8105729" lon="-118.3937425">
  <ele>-24.44</ele>
  <time>2026-09-01T01:17:08Z</time>
  <course>194.05</course>
  <speed>0.98</speed>
  <fix>3d</fix>
</trkpt>
<trkpt lat="33.8105711" lon="-118.3937433">
  <ele>-25.048</ele>
  <time>2026-09-01T01:17:08Z</time>
  <course>195.48</course>
  <speed>0.9533624704172071</speed>
  <fix>3d</fix>
</trkpt>
<trkpt lat="33.8105729" lon="-118.3937425">
  <ele>-24.44</ele>
  <time>2026-09-01T01:17:08Z</time>
  <course>194.05</course>
  <speed>0.98</speed>
  <fix>3d</fix>
</trkpt>
<trkpt lat="33.8105702" lon="-118.3937435">
  <ele>-25.049</ele>
  <time>2026-09-01T01:17:08Z</time>
  <course>195.49</course>
  <speed>0.9533624704172071</speed>
  <fix>3d</fix>
</trkpt>
<trkpt lat="33.8105712" lon="-118.393743">
  <ele>-24.44</ele>
  <time>2026-09-01T01:17:08Z</time>
  <course>194.07</course>
  <speed>0.98</speed>
  <fix>3d</fix>
</trkpt>
<trkpt lat="33.8105694" lon="-118.3937438">
  <ele>-25.048</ele>
  <time>2026-09-01T01:17:08Z</time>
  <course>195.51</course>
  <speed>0.9533624704172071</speed>
  <fix>3d</fix>
</trkpt>
<trkpt lat="33.8105712" lon="-118.393743">
  <ele>-24.44</ele>
  <time>2026-09-01T01:17:08Z</time>
  <course>194.07</course>
  <speed>0.98</speed>
  <fix>3d</fix>
</trkpt>
<trkpt lat="33.8105685" lon="-118.3937441">
  <ele>-25.047</ele>
  <time>2026-09-01T01:17:08Z</time>
  <course>195.52</course>
  <speed>0.9533624704172071</speed>
  <fix>3d</fix>
</trkpt>
<trkpt lat="33.8105695" lon="-118.3937436">
  <ele>-24.44</ele>
  <time>2026-09-01T01:17:08Z</time>
  <course>194.08</course>
  <speed>0.98</speed>
  <fix>3d</fix>
</trkpt>
<trkpt lat="33.8105676" lon="-118.3937443">
  <ele>-25.045</ele>
  <time>2026-09-01T01:17:08Z</time>
  <course>195.53</course>
  <speed>0.9533624704172071</speed>
  <fix>3d</fix>
</trkpt>
<trkpt lat="33.8105695" lon="-118.3937436">
  <ele>-24.44</ele>
  <time>2026-09-01T01:17:08Z</time>
  <course>194.08</course>
  <speed>0.98</speed>
  <fix>3d</fix>
</trkpt>
<trkpt lat="33.8105668" lon="-118.3937446">
  <ele>-25.044</ele>
  <time>2026-09-01T01:17:08Z</time>
  <course>195.52</course>
  <speed>0.9533624704172071</speed>
  <fix>3d</fix>
</trkpt>
<trkpt lat="33.8105678" lon="-118.3937441">
  <ele>-24.43</ele>
  <time>2026-09-01T01:17:08Z</time>
  <course>194.08</course>
  <speed>0.98</speed>
  <fix>3d</fix>
</trkpt>
<trkpt lat="33.8105659" lon="-118.3937448">
  <ele>-25.042</ele>
  <time>2026-09-01T01:17:08Z</time>
  <course>195.5</course>
  <speed>0.9533624704172071</speed>
  <fix>3d</fix>
</trkpt>
<trkpt lat="33.8105678" lon="-118.3937441">
  <ele>-24.43</ele>
  <time>2026-09-01T01:17:08Z</time>
  <course>194.08</course>
  <speed>0.98</speed>
  <fix>3d</fix>
</trkpt>
<trkpt lat="33.8105651" lon="-118.3937451">
  <ele>-25.041</ele>
  <time>2026-09-01T01:17:08Z</time>
  <course>195.48</course>
  <speed>0.9533624704172071</speed>
  <fix>3d</fix>
</trkpt>
<trkpt lat="33.810566" lon="-118.3937446">
  <ele>-24.43</ele>
  <time>2026-09-01T01:17:08Z</time>
  <course>194.06</course>
  <speed>0.98</speed>
  <fix>3d</fix>
</trkpt>
<trkpt lat="33.8105642" lon="-118.3937454">
  <ele>-25.041</ele>
  <time>2026-09-01T01:17:08Z</time>
  <course>195.46</course>
  <speed>0.9533624704172071</speed>
  <fix>3d</fix>
</trkpt>
<trkpt lat="33.810566" lon="-118.3937446">
  <ele>-24.43</ele>
  <time>2026-09-01T01:17:08Z</time>
  <course>194.06</course>
  <speed>0.98</speed>
  <fix>3d</fix>
</trkpt>
<trkpt lat="33.8105633" lon="-118.3937456">
  <ele>-25.041</ele>
  <time>2026-09-01T01:17:08Z</time>
  <course>195.45</course>
  <speed>0.9533624704172071</speed>
  <fix>3d</fix>
</trkpt>
<trkpt lat="33.8105643" lon="-118.3937451">
  <ele>-24.43</ele>
  <time>2026-09-01T01:17:08Z</time>
  <course>194.04</course>
  <speed>0.98</speed>
  <fix>3d</fix>
</trkpt>
<trkpt lat="33.8105625" lon="-118.3937459">
  <ele>-25.041</ele>
  <time>2026-09-01T01:17:08Z</time>
  <course>195.45</course>
  <speed>0.9533624704172071</speed>
  <fix>3d</fix>
</trkpt>
<trkpt lat="33.8105643" lon="-118.3937451">
  <ele>-24.43</ele>
  <time>2026-09-01T01:17:08Z</time>
  <course>194.04</course>
  <speed>0.98</speed>
  <fix>3d</fix>
</trkpt>
<trkpt lat="33.8105616" lon="-118.3937461">
  <ele>-25.042</ele>
  <time>2026-09-01T01:17:08Z</time>
  <course>195.45</course>
  <speed>0.9533624704172071</speed>
  <fix>3d</fix>
</trkpt>
<trkpt lat="33.8105626" lon="-118.3937456">
  <ele>-24.43</ele>
  <time>2026-09-01T01:17:08Z</time>
  <course>194.06</course>
  <speed>0.98</speed>
  <fix>3d</fix>
</trkpt>
<trkpt lat="33.8105608" lon="-118.3937464">
  <ele>-25.043</ele>
  <time>2026-09-01T01:17:08Z</time>
  <course>195.46</course>
  <speed>0.9533624704172071</speed>
  <fix>3d</fix>
</trkpt>
<trkpt lat="33.8105626" lon="-118.3937456">
  <ele>-24.43</ele>
  <time>2026-09-01T01:17:08Z</time>
  <course>194.06</course>
  <speed>0.98</speed>
  <fix>3d</fix>
</trkpt>
<trkpt lat="33.8105599" lon="-118.3937467">
  <ele>-25.044</ele>
  <time>2026-09-01T01:17:08Z</time>
  <course>195.48</course>
  <speed>0.9630160954002794</speed>
  <fix>3d</fix>
</trkpt>
<trkpt lat="33.8105609" lon="-118.3937462">
  <ele>-24.43</ele>
  <time>2026-09-01T01:17:08Z</time>
  <course>194.08</course>
  <speed>0.98</speed>
  <fix>3d</fix>
</trkpt>
<trkpt lat="33.810559" lon="-118.3937469">
  <ele>-25.046</ele>
  <time>2026-09-01T01:17:08Z</time>
  <course>195.48</course>
  <speed>0.9630160954002794</speed>
  <fix>3d</fix>
</trkpt>
<trkpt lat="33.8105609" lon="-118.3937462">
  <ele>-24.43</ele>
  <time>2026-09-01T01:17:08Z</time>
  <course>194.08</course>
  <speed>0.98</speed>
  <fix>3d</fix>
</trkpt>
<trkpt lat="33.8105582" lon="-118.3937472">
  <ele>-25.046</ele>
  <time>2026-09-01T01:17:08Z</time>
  <course>195.47</course>
  <speed>0.9630160954002794</speed>
  <fix>3d</fix>
</trkpt>
<trkpt lat="33.8105592" lon="-118.3937467">
  <ele>-24.44</ele>
  <time>2026-09-01T01:17:08Z</time>
  <course>194.07</course>
  <speed>0.98</speed>
  <fix>3d</fix>
</trkpt>
<trkpt lat="33.8105573" lon="-118.3937474">
  <ele>-25.046</ele>
  <time>2026-09-01T01:17:08Z</time>
  <course>195.46</course>
  <speed>0.9630160954002794</speed>
  <fix>3d</fix>
</trkpt>
<trkpt lat="33.8105592" lon="-118.3937467">
  <ele>-24.44</ele>
  <time>2026-09-01T01:17:08Z</time>
  <course>194.07</course>
  <speed>0.98</speed>
  <fix>3d</fix>
</trkpt>
<trkpt lat="33.8105564" lon="-118.3937477">
  <ele>-25.046</ele>
  <time>2026-09-01T01:17:08Z</time>
  <course>195.43</course>
  <speed>0.9630160954002794</speed>
  <fix>3d</fix>
</trkpt>
<trkpt lat="33.8105574" lon="-118.3937472">
  <ele>-24.44</ele>
  <time>2026-09-01T01:17:08Z</time>
  <course>194.04</course>
  <speed>0.99</speed>
  <fix>3d</fix>
</trkpt>
<trkpt lat="33.8105556" lon="-118.393748">
  <ele>-25.047</ele>
  <time>2026-09-01T01:17:08Z</time>
  <course>195.41</course>
  <speed>0.9630160954002794</speed>
  <fix>3d</fix>
</trkpt>
<trkpt lat="33.8105574" lon="-118.3937472">
  <ele>-24.44</ele>
  <time>2026-09-01T01:17:08Z</time>
  <course>194.04</course>
  <speed>0.99</speed>
  <fix>3d</fix>
</trkpt>
<trkpt lat="33.8105547" lon="-118.3937482">
  <ele>-25.048</ele>
  <time>2026-09-01T01:17:08Z</time>
  <course>195.4</course>
  <speed>0.9630160954002794</speed>
  <fix>3d</fix>
</trkpt>
<trkpt lat="33.8105557" lon="-118.3937477">
  <ele>-24.44</ele>
  <time>2026-09-01T01:17:08Z</time>
  <course>194.02</course>
  <speed>0.99</speed>
  <fix>3d</fix>
</trkpt>
<trkpt lat="33.8105538" lon="-118.3937485">
  <ele>-25.049</ele>
  <time>2026-09-01T01:17:08Z</time>
  <course>195.4</course>
  <speed>0.9630160954002794</speed>
  <fix>3d</fix>
</trkpt>
<trkpt lat="33.8105557" lon="-118.3937477">
  <ele>-24.44</ele>
  <time>2026-09-01T01:17:08Z</time>
  <course>194.02</course>
  <speed>0.99</speed>
  <fix>3d</fix>
</trkpt>
<trkpt lat="33.810553" lon="-118.3937487">
  <ele>-25.05</ele>
  <time>2026-09-01T01:17:08Z</time>
  <course>195.4</course>
  <speed>0.9630160954002794</speed>
  <fix>3d</fix>
</trkpt>
<trkpt lat="33.8105539" lon="-118.3937482">
  <ele>-24.44</ele>
  <time>2026-09-01T01:17:08Z</time>
  <course>194.04</course>
  <speed>0.99</speed>
  <fix>3d</fix>
</trkpt>
<trkpt lat="33.8105521" lon="-118.393749">
  <ele>-25.049</ele>
  <time>2026-09-01T01:17:08Z</time>
  <course>195.42</course>
  <speed>0.9630160954002794</speed>
  <fix>3d</fix>
</trkpt>
<trkpt lat="33.8105539" lon="-118.3937482">
  <ele>-24.44</ele>
  <time>2026-09-01T01:17:08Z</time>
  <course>194.04</course>
  <speed>0.99</speed>
  <fix>3d</fix>
</trkpt>
<trkpt lat="33.8105512" lon="-118.3937493">
  <ele>-25.048</ele>
  <time>2026-09-01T01:17:08Z</time>
  <course>195.44</course>
  <speed>0.9630160954002794</speed>
  <fix>3d</fix>
</trkpt>
<trkpt lat="33.8105522" lon="-118.3937488">
  <ele>-24.43</ele>
  <time>2026-09-01T01:17:08Z</time>
  <course>194.08</course>
  <speed>0.99</speed>
  <fix>3d</fix>
</trkpt>
<trkpt lat="33.8105504" lon="-118.3937495">
  <ele>-25.046</ele>
  <time>2026-09-01T01:17:08Z</time>
  <course>195.46</course>
  <speed>0.9630160954002794</speed>
  <fix>3d</fix>
</trkpt>
<trkpt lat="33.8105522" lon="-118.3937488">
  <ele>-24.43</ele>
  <time>2026-09-01T01:17:08Z</time>
  <course>194.08</course>
  <speed>0.99</speed>
  <fix>3d</fix>
</trkpt>
<trkpt lat="33.8105495" lon="-118.3937498">
  <ele>-25.045</ele>
  <time>2026-09-01T01:17:08Z</time>
  <course>195.46</course>
  <speed>0.9630160954002794</speed>
  <fix>3d</fix>
</trkpt>
<trkpt lat="33.8105505" lon="-118.3937493">
  <ele>-24.43</ele>
  <time>2026-09-01T01:17:08Z</time>
  <course>194.1</course>
  <speed>0.99</speed>
  <fix>3d</fix>
</trkpt>
<trkpt lat="33.8105486" lon="-118.3937501">
  <ele>-25.045</ele>
  <time>2026-09-01T01:17:08Z</time>
  <course>195.46</course>
  <speed>0.9630160954002794</speed>
  <fix>3d</fix>
</trkpt>
<trkpt lat="33.8105505" lon="-118.3937493">
  <ele>-24.43</ele>
  <time>2026-09-01T01:17:08Z</time>
  <course>194.1</course>
  <speed>0.99</speed>
  <fix>3d</fix>
</trkpt>
<trkpt lat="33.8105478" lon="-118.3937503">
  <ele>-25.045</ele>
  <time>2026-09-01T01:17:08Z</time>
  <course>195.45</course>
  <speed>0.9630160954002794</speed>
  <fix>3d</fix>
</trkpt>
<trkpt lat="33.8105488" lon="-118.3937498">
  <ele>-24.42</ele>
  <time>2026-09-01T01:17:08Z</time>
  <course>194.09</course>
  <speed>0.99</speed>
  <fix>3d</fix>
</trkpt>
<trkpt lat="33.8105469" lon="-118.3937506">
  <ele>-25.045</ele>
  <time>2026-09-01T01:17:08Z</time>
  <course>195.44</course>
  <speed>0.9630160954002794</speed>
  <fix>3d</fix>
</trkpt>
<trkpt lat="33.8105488" lon="-118.3937498">
  <ele>-24.42</ele>
  <time>2026-09-01T01:17:08Z</time>
  <course>194.09</course>
  <speed>0.99</speed>
  <fix>3d</fix>
</trkpt>
<trkpt lat="33.8105461" lon="-118.3937508">
  <ele>-25.043</ele>
  <time>2026-09-01T01:17:08Z</time>
  <course>195.44</course>
  <speed>0.9630160954002794</speed>
  <fix>3d</fix>
</trkpt>
<trkpt lat="33.810547" lon="-118.3937503">
  <ele>-24.42</ele>
  <time>2026-09-01T01:17:08Z</time>
  <course>194.07</course>
  <speed>0.99</speed>
  <fix>3d</fix>
</trkpt>
<trkpt lat="33.8105452" lon="-118.3937511">
  <ele>-25.041</ele>
  <time>2026-09-01T01:17:08Z</time>
  <course>195.43</course>
  <speed>0.9630160954002794</speed>
  <fix>3d</fix>
</trkpt>
<trkpt lat="33.810547" lon="-118.3937503">
  <ele>-24.42</ele>
  <time>2026-09-01T01:17:08Z</time>
  <course>194.07</course>
  <speed>0.99</speed>
  <fix>3d</fix>
</trkpt>
<trkpt lat="33.8105443" lon="-118.3937514">
  <ele>-25.039</ele>
  <time>2026-09-01T01:17:08Z</time>
  <course>195.44</course>
  <speed>0.9630160954002794</speed>
  <fix>3d</fix>
</trkpt>
<trkpt lat="33.8105453" lon="-118.3937508">
  <ele>-24.42</ele>
  <time>2026-09-01T01:17:08Z</time>
  <course>194.08</course>
  <speed>0.99</speed>
  <fix>3d</fix>
</trkpt>
<trkpt lat="33.8105434" lon="-118.3937516">
  <ele>-25.038</ele>
  <time>2026-09-01T01:17:08Z</time>
  <course>195.45</course>
  <speed>0.9630160954002794</speed>
  <fix>3d</fix>
</trkpt>
<trkpt lat="33.8105453" lon="-118.3937508">
  <ele>-24.42</ele>
  <time>2026-09-01T01:17:08Z</time>
  <course>194.08</course>
  <speed>0.99</speed>
  <fix>3d</fix>
</trkpt>
<trkpt lat="33.8105426" lon="-118.3937519">
  <ele>-25.037</ele>
  <time>2026-09-01T01:17:08Z</time>
  <course>195.48</course>
  <speed>0.9630160954002794</speed>
  <fix>3d</fix>
</trkpt>
<trkpt lat="33.8105436" lon="-118.3937514">
  <ele>-24.42</ele>
  <time>2026-09-01T01:17:08Z</time>
  <course>194.12</course>
  <speed>0.99</speed>
  <fix>3d</fix>
</trkpt>
<trkpt lat="33.8105417" lon="-118.3937521">
  <ele>-25.038</ele>
  <time>2026-09-01T01:17:08Z</time>
  <course>195.49</course>
  <speed>0.9630160954002794</speed>
  <fix>3d</fix>
</trkpt>
<trkpt lat="33.8105436" lon="-118.3937514">
  <ele>-24.42</ele>
  <time>2026-09-01T01:17:08Z</time>
  <course>194.12</course>
  <speed>0.99</speed>
  <fix>3d</fix>
</trkpt>
<trkpt lat="33.8105408" lon="-118.3937524">
  <ele>-25.038</ele>
  <time>2026-09-01T01:17:08Z</time>
  <course>195.49</course>
  <speed>0.9630160954002794</speed>
  <fix>3d</fix>
</trkpt>
<trkpt lat="33.8105419" lon="-118.3937519">
  <ele>-24.42</ele>
  <time>2026-09-01T01:17:08Z</time>
  <course>194.12</course>
  <speed>0.99</speed>
  <fix>3d</fix>
</trkpt>
<trkpt lat="33.81054" lon="-118.3937527">
  <ele>-25.038</ele>
  <time>2026-09-01T01:17:08Z</time>
  <course>195.48</course>
  <speed>0.9630160954002794</speed>
  <fix>3d</fix>
</trkpt>
<trkpt lat="33.8105419" lon="-118.3937519">
  <ele>-24.42</ele>
  <time>2026-09-01T01:17:08Z</time>
  <course>194.12</course>
  <speed>0.99</speed>
  <fix>3d</fix>
</trkpt>
<trkpt lat="33.8105391" lon="-118.3937529">
  <ele>-25.039</ele>
  <time>2026-09-01T01:17:08Z</time>
  <course>195.46</course>
  <speed>0.9630160954002794</speed>
  <fix>3d</fix>
</trkpt>
<trkpt lat="33.8105401" lon="-118.3937524">
  <ele>-24.42</ele>
  <time>2026-09-01T01:17:08Z</time>
  <course>194.09</course>
  <speed>0.99</speed>
  <fix>3d</fix>
</trkpt>
<trkpt lat="33.8105382" lon="-118.3937532">
  <ele>-25.04</ele>
  <time>2026-09-01T01:17:08Z</time>
  <course>195.45</course>
  <speed>0.9630160954002794</speed>
  <fix>3d</fix>
</trkpt>
<trkpt lat="33.8105401" lon="-118.3937524">
  <ele>-24.42</ele>
  <time>2026-09-01T01:17:08Z</time>
  <course>194.09</course>
  <speed>0.99</speed>
  <fix>3d</fix>
</trkpt>
<trkpt lat="33.8105374" lon="-118.3937535">
  <ele>-25.04</ele>
  <time>2026-09-01T01:17:08Z</time>
  <course>195.44</course>
  <speed>0.9630160954002794</speed>
  <fix>3d</fix>
</trkpt>
<trkpt lat="33.8105384" lon="-118.3937529">
  <ele>-24.43</ele>
  <time>2026-09-01T01:17:08Z</time>
  <course>194.1</course>
  <speed>0.99</speed>
  <fix>3d</fix>
</trkpt>
<trkpt lat="33.8105365" lon="-118.3937537">
  <ele>-25.039</ele>
  <time>2026-09-01T01:17:08Z</time>
  <course>195.44</course>
  <speed>0.9630160954002794</speed>
  <fix>3d</fix>
</trkpt>
<trkpt lat="33.8105384" lon="-118.3937529">
  <ele>-24.43</ele>
  <time>2026-09-01T01:17:08Z</time>
  <course>194.1</course>
  <speed>0.99</speed>
  <fix>3d</fix>
</trkpt>
<trkpt lat="33.8105356" lon="-118.393754">
  <ele>-25.039</ele>
  <time>2026-09-01T01:17:08Z</time>
  <course>195.45</course>
  <speed>0.9630160954002794</speed>
  <fix>3d</fix>
</trkpt>
<trkpt lat="33.8105367" lon="-118.3937535">
  <ele>-24.43</ele>
  <time>2026-09-01T01:17:08Z</time>
  <course>194.13</course>
  <speed>0.99</speed>
  <fix>3d</fix>
</trkpt>
<trkpt lat="33.8105348" lon="-118.3937542">
  <ele>-25.039</ele>
  <time>2026-09-01T01:17:08Z</time>
  <course>195.45</course>
  <speed>0.9630160954002794</speed>
  <fix>3d</fix>
</trkpt>
<trkpt lat="33.8105367" lon="-118.3937535">
  <ele>-24.43</ele>
  <time>2026-09-01T01:17:08Z</time>
  <course>194.13</course>
  <speed>0.99</speed>
  <fix>3d</fix>
</trkpt>
<trkpt lat="33.8105339" lon="-118.3937545">
  <ele>-25.039</ele>
  <time>2026-09-01T01:17:08Z</time>
  <course>195.43</course>
  <speed>0.9726767191621274</speed>
  <fix>3d</fix>
</trkpt>
<trkpt lat="33.8105349" lon="-118.393754">
  <ele>-24.43</ele>
  <time>2026-09-01T01:17:08Z</time>
  <course>194.13</course>
  <speed>0.99</speed>
  <fix>3d</fix>
</trkpt>
<trkpt lat="33.810533" lon="-118.3937548">
  <ele>-25.039</ele>
  <time>2026-09-01T01:17:08Z</time>
  <course>195.41</course>
  <speed>0.9630160954002794</speed>
  <fix>3d</fix>
</trkpt>
<trkpt lat="33.8105349" lon="-118.393754">
  <ele>-24.43</ele>
  <time>2026-09-01T01:17:08Z</time>
  <course>194.13</course>
  <speed>0.99</speed>
  <fix>3d</fix>
</trkpt>
<trkpt lat="33.8105321" lon="-118.393755">
  <ele>-25.04</ele>
  <time>2026-09-01T01:17:08Z</time>
  <course>195.39</course>
  <speed>0.9726767191621274</speed>
  <fix>3d</fix>
</trkpt>
<trkpt lat="33.8105331" lon="-118.3937545">
  <ele>-24.44</ele>
  <time>2026-09-01T01:17:08Z</time>
  <course>194.1</course>
  <speed>0.99</speed>
  <fix>3d</fix>
</trkpt>
<trkpt lat="33.8105313" lon="-118.3937553">
  <ele>-25.041</ele>
  <time>2026-09-01T01:17:08Z</time>
  <course>195.38</course>
  <speed>0.9630160954002794</speed>
  <fix>3d</fix>
</trkpt>
<trkpt lat="33.8105331" lon="-118.3937545">
  <ele>-24.44</ele>
  <time>2026-09-01T01:17:08Z</time>
  <course>194.1</course>
  <speed>0.99</speed>
  <fix>3d</fix>
</trkpt>
<trkpt lat="33.8105304" lon="-118.3937556">
  <ele>-25.041</ele>
  <time>2026-09-01T01:17:08Z</time>
  <course>195.39</course>
  <speed>0.9630160954002794</speed>
  <fix>3d</fix>
</trkpt>
<trkpt lat="33.8105314" lon="-118.3937551">
  <ele>-24.44</ele>
  <time>2026-09-01T01:17:08Z</time>
  <course>194.11</course>
  <speed>0.99</speed>
  <fix>3d</fix>
</trkpt>
<trkpt lat="33.8105295" lon="-118.3937558">
  <ele>-25.044</ele>
  <time>2026-09-01T01:17:08Z</time>
  <course>195.39</course>
  <speed>0.9630160954002794</speed>
  <fix>3d</fix>
</trkpt>
<trkpt lat="33.8105314" lon="-118.3937551">
  <ele>-24.44</ele>
  <time>2026-09-01T01:17:08Z</time>
  <course>194.11</course>
  <speed>0.99</speed>
  <fix>3d</fix>
</trkpt>
<trkpt lat="33.8105287" lon="-118.3937561">
  <ele>-25.046</ele>
  <time>2026-09-01T01:17:08Z</time>
  <course>195.38</course>
  <speed>0.9630160954002794</speed>
  <fix>3d</fix>
</trkpt>
<trkpt lat="33.8105297" lon="-118.3937556">
  <ele>-24.44</ele>
  <time>2026-09-01T01:17:08Z</time>
  <course>194.09</course>
  <speed>0.99</speed>
  <fix>3d</fix>
</trkpt>
<trkpt lat="33.8105278" lon="-118.3937563">
  <ele>-25.049</ele>
  <time>2026-09-01T01:17:08Z</time>
  <course>195.36</course>
  <speed>0.9630160954002794</speed>
  <fix>3d</fix>
</trkpt>
<trkpt lat="33.8105297" lon="-118.3937556">
  <ele>-24.44</ele>
  <time>2026-09-01T01:17:08Z</time>
  <course>194.09</course>
  <speed>0.99</speed>
  <fix>3d</fix>
</trkpt>
<trkpt lat="33.8105269" lon="-118.3937566">
  <ele>-25.051</ele>
  <time>2026-09-01T01:17:08Z</time>
  <course>195.34</course>
  <speed>0.9630160954002794</speed>
  <fix>3d</fix>
</trkpt>
<trkpt lat="33.810528" lon="-118.3937561">
  <ele>-24.45</ele>
  <time>2026-09-01T01:17:08Z</time>
  <course>194.04</course>
  <speed>0.99</speed>
  <fix>3d</fix>
</trkpt>
<trkpt lat="33.810526" lon="-118.3937569">
  <ele>-25.052</ele>
  <time>2026-09-01T01:17:08Z</time>
  <course>195.33</course>
  <speed>0.9630160954002794</speed>
  <fix>3d</fix>
</trkpt>
<trkpt lat="33.810528" lon="-118.3937561">
  <ele>-24.45</ele>
  <time>2026-09-01T01:17:08Z</time>
  <course>194.04</course>
  <speed>0.99</speed>
  <fix>3d</fix>
</trkpt>
<trkpt lat="33.8105252" lon="-118.3937571">
  <ele>-25.053</ele>
  <time>2026-09-01T01:17:08Z</time>
  <course>195.31</course>
  <speed>0.9726767191621274</speed>
  <fix>3d</fix>
</trkpt>
<trkpt lat="33.8105262" lon="-118.3937566">
  <ele>-24.45</ele>
  <time>2026-09-01T01:17:08Z</time>
  <course>194.02</course>
  <speed>0.99</speed>
  <fix>3d</fix>
</trkpt>
<trkpt lat="33.8105243" lon="-118.3937574">
  <ele>-25.053</ele>
  <time>2026-09-01T01:17:08Z</time>
  <course>195.31</course>
  <speed>0.9726767191621274</speed>
  <fix>3d</fix>
</trkpt>
<trkpt lat="33.8105262" lon="-118.3937566">
  <ele>-24.45</ele>
  <time>2026-09-01T01:17:08Z</time>
  <course>194.02</course>
  <speed>0.99</speed>
  <fix>3d</fix>
</trkpt>
<trkpt lat="33.8105234" lon="-118.3937577">
  <ele>-25.051</ele>
  <time>2026-09-01T01:17:08Z</time>
  <course>195.31</course>
  <speed>0.9726767191621274</speed>
  <fix>3d</fix>
</trkpt>
<trkpt lat="33.8105245" lon="-118.3937572">
  <ele>-24.45</ele>
  <time>2026-09-01T01:17:08Z</time>
  <course>194.04</course>
  <speed>0.99</speed>
  <fix>3d</fix>
</trkpt>
<trkpt lat="33.8105226" lon="-118.3937579">
  <ele>-25.049</ele>
  <time>2026-09-01T01:17:08Z</time>
  <course>195.31</course>
  <speed>0.9726767191621274</speed>
  <fix>3d</fix>
</trkpt>
<trkpt lat="33.8105245" lon="-118.3937572">
  <ele>-24.45</ele>
  <time>2026-09-01T01:17:08Z</time>
  <course>194.04</course>
  <speed>0.99</speed>
  <fix>3d</fix>
</trkpt>
<trkpt lat="33.8105217" lon="-118.3937582">
  <ele>-25.045</ele>
  <time>2026-09-01T01:17:08Z</time>
  <course>195.3</course>
  <speed>0.9726767191621274</speed>
  <fix>3d</fix>
</trkpt>
<trkpt lat="33.8105228" lon="-118.3937577">
  <ele>-24.44</ele>
  <time>2026-09-01T01:17:08Z</time>
  <course>194.04</course>
  <speed>0.99</speed>
  <fix>3d</fix>
</trkpt>
<trkpt lat="33.8105208" lon="-118.3937585">
  <ele>-25.042</ele>
  <time>2026-09-01T01:17:08Z</time>
  <course>195.28</course>
  <speed>0.9726767191621274</speed>
  <fix>3d</fix>
</trkpt>
<trkpt lat="33.8105228" lon="-118.3937577">
  <ele>-24.44</ele>
  <time>2026-09-01T01:17:08Z</time>
  <course>194.04</course>
  <speed>0.99</speed>
  <fix>3d</fix>
</trkpt>
<trkpt lat="33.81052" lon="-118.3937587">
  <ele>-25.04</ele>
  <time>2026-09-01T01:17:08Z</time>
  <course>195.26</course>
  <speed>0.9726767191621274</speed>
  <fix>3d</fix>
</trkpt>
<trkpt lat="33.810521" lon="-118.3937582">
  <ele>-24.43</ele>
  <time>2026-09-01T01:17:08Z</time>
  <course>194.0</course>
  <speed>0.99</speed>
  <fix>3d</fix>
</trkpt>
<trkpt lat="33.8105191" lon="-118.393759">
  <ele>-25.039</ele>
  <time>2026-09-01T01:17:08Z</time>
  <course>195.24</course>
  <speed>0.9726767191621274</speed>
  <fix>3d</fix>
</trkpt>
<trkpt lat="33.810521" lon="-118.3937582">
  <ele>-24.43</ele>
  <time>2026-09-01T01:17:08Z</time>
  <course>194.0</course>
  <speed>0.99</speed>
  <fix>3d</fix>
</trkpt>
<trkpt lat="33.8105182" lon="-118.3937592">
  <ele>-25.04</ele>
  <time>2026-09-01T01:17:08Z</time>
  <course>195.23</course>
  <speed>0.9726767191621274</speed>
  <fix>3d</fix>
</trkpt>
<trkpt lat="33.8105192" lon="-118.3937587">
  <ele>-24.43</ele>
  <time>2026-09-01T01:17:08Z</time>
  <course>193.98</course>
  <speed>0.99</speed>
  <fix>3d</fix>
</trkpt>
<trkpt lat="33.8105173" lon="-118.3937595">
  <ele>-25.041</ele>
  <time>2026-09-01T01:17:08Z</time>
  <course>195.23</course>
  <speed>0.9726767191621274</speed>
  <fix>3d</fix>
</trkpt>
<trkpt lat="33.8105192" lon="-118.3937587">
  <ele>-24.43</ele>
  <time>2026-09-01T01:17:08Z</time>
  <course>193.98</course>
  <speed>0.99</speed>
  <fix>3d</fix>
</trkpt>
<trkpt lat="33.8105165" lon="-118.3937598">
  <ele>-25.04</ele>
  <time>2026-09-01T01:17:08Z</time>
  <course>195.25</course>
  <speed>0.9726767191621274</speed>
  <fix>3d</fix>
</trkpt>
<trkpt lat="33.8105175" lon="-118.3937592">
  <ele>-24.43</ele>
  <time>2026-09-01T01:17:08Z</time>
  <course>194.01</course>
  <speed>0.99</speed>
  <fix>3d</fix>
</trkpt>
<trkpt lat="33.8105156" lon="-118.39376">
  <ele>-25.04</ele>
  <time>2026-09-01T01:17:08Z</time>
  <course>195.28</course>
  <speed>0.9630160954002794</speed>
  <fix>3d</fix>
</trkpt>
<trkpt lat="33.8105175" lon="-118.3937592">
  <ele>-24.43</ele>
  <time>2026-09-01T01:17:08Z</time>
  <course>194.01</course>
  <speed>0.99</speed>
  <fix>3d</fix>
</trkpt>
<trkpt lat="33.8105147" lon="-118.3937603">
  <ele>-25.041</ele>
  <time>2026-09-01T01:17:08Z</time>
  <course>195.31</course>
  <speed>0.9726767191621274</speed>
  <fix>3d</fix>
</trkpt>
<trkpt lat="33.8105158" lon="-118.3937598">
  <ele>-24.43</ele>
  <time>2026-09-01T01:17:08Z</time>
  <course>194.06</course>
  <speed>0.99</speed>
  <fix>3d</fix>
</trkpt>
<trkpt lat="33.8105139" lon="-118.3937606">
  <ele>-25.042</ele>
  <time>2026-09-01T01:17:08Z</time>
  <course>195.34</course>
  <speed>0.9726767191621274</speed>
  <fix>3d</fix>
</trkpt>
<trkpt lat="33.8105158" lon="-118.3937598">
  <ele>-24.43</ele>
  <time>2026-09-01T01:17:08Z</time>
  <course>194.06</course>
  <speed>0.99</speed>
  <fix>3d</fix>
</trkpt>
<trkpt lat="33.810513" lon="-118.3937608">
  <ele>-25.045</ele>
  <time>2026-09-01T01:17:08Z</time>
  <course>195.34</course>
  <speed>0.9726767191621274</speed>
  <fix>3d</fix>
</trkpt>
<trkpt lat="33.810514" lon="-118.3937603">
  <ele>-24.44</ele>
  <time>2026-09-01T01:17:08Z</time>
  <course>194.08</course>
  <speed>0.99</speed>
  <fix>3d</fix>
</trkpt>
<trkpt lat="33.8105121" lon="-118.3937611">
  <ele>-25.046</ele>
  <time>2026-09-01T01:17:08Z</time>
  <course>195.34</course>
  <speed>0.9726767191621274</speed>
  <fix>3d</fix>
</trkpt>
<trkpt lat="33.810514" lon="-118.3937603">
  <ele>-24.44</ele>
  <time>2026-09-01T01:17:08Z</time>
  <course>194.08</course>
  <speed>0.99</speed>
  <fix>3d</fix>
</trkpt>
<trkpt lat="33.8105113" lon="-118.3937613">
  <ele>-25.046</ele>
  <time>2026-09-01T01:17:08Z</time>
  <course>195.34</course>
  <speed>0.9726767191621274</speed>
  <fix>3d</fix>
</trkpt>
<trkpt lat="33.8105123" lon="-118.3937608">
  <ele>-24.44</ele>
  <time>2026-09-01T01:17:08Z</time>
  <course>194.06</course>
  <speed>0.99</speed>
  <fix>3d</fix>
</trkpt>
<trkpt lat="33.8105104" lon="-118.3937616">
  <ele>-25.045</ele>
  <time>2026-09-01T01:17:08Z</time>
  <course>195.35</course>
  <speed>0.9726767191621274</speed>
  <fix>3d</fix>
</trkpt>
<trkpt lat="33.8105123" lon="-118.3937608">
  <ele>-24.44</ele>
  <time>2026-09-01T01:17:08Z</time>
  <course>194.06</course>
  <speed>0.99</speed>
  <fix>3d</fix>
</trkpt>
<trkpt lat="33.8105095" lon="-118.3937619">
  <ele>-25.044</ele>
  <time>2026-09-01T01:17:08Z</time>
  <course>195.35</course>
  <speed>0.9726767191621274</speed>
  <fix>3d</fix>
</trkpt>
<trkpt lat="33.8105106" lon="-118.3937613">
  <ele>-24.44</ele>
  <time>2026-09-01T01:17:08Z</time>
  <course>194.07</course>
  <speed>0.99</speed>
  <fix>3d</fix>
</trkpt>
<trkpt lat="33.8105086" lon="-118.3937621">
  <ele>-25.044</ele>
  <time>2026-09-01T01:17:08Z</time>
  <course>195.36</course>
  <speed>0.9726767191621274</speed>
  <fix>3d</fix>
</trkpt>
<trkpt lat="33.8105106" lon="-118.3937613">
  <ele>-24.44</ele>
  <time>2026-09-01T01:17:08Z</time>
  <course>194.07</course>
  <speed>0.99</speed>
  <fix>3d</fix>
</trkpt>
<trkpt lat="33.8105078" lon="-118.3937624">
  <ele>-25.044</ele>
  <time>2026-09-01T01:17:08Z</time>
  <course>195.37</course>
  <speed>0.9726767191621274</speed>
  <fix>3d</fix>
</trkpt>
<trkpt lat="33.8105088" lon="-118.3937618">
  <ele>-24.43</ele>
  <time>2026-09-01T01:17:08Z</time>
  <course>194.1</course>
  <speed>0.99</speed>
  <fix>3d</fix>
</trkpt>
<trkpt lat="33.8105069" lon="-118.3937626">
  <ele>-25.042</ele>
  <time>2026-09-01T01:17:08Z</time>
  <course>195.38</course>
  <speed>0.9752948272189288</speed>
  <fix>3d</fix>
</trkpt>
<trkpt lat="33.8105088" lon="-118.3937618">
  <ele>-24.43</ele>
  <time>2026-09-01T01:17:08Z</time>
  <course>194.1</course>
  <speed>0.99</speed>
  <fix>3d</fix>
</trkpt>
<trkpt lat="33.810506" lon="-118.3937629">
  <ele>-25.04</ele>
  <time>2026-09-01T01:17:08Z</time>
  <course>195.4</course>
  <speed>0.9752948272189288</speed>
  <fix>3d</fix>
</trkpt>
<trkpt lat="33.8105071" lon="-118.3937624">
  <ele>-24.43</ele>
  <time>2026-09-01T01:17:08Z</time>
  <course>194.15</course>
  <speed>0.99</speed>
  <fix>3d</fix>
</trkpt>
<trkpt lat="33.8105052" lon="-118.3937632">
  <ele>-25.038</ele>
  <time>2026-09-01T01:17:08Z</time>
  <course>195.42</course>
  <speed>0.9752948272189288</speed>
  <fix>3d</fix>
</trkpt>
<trkpt lat="33.8105071" lon="-118.3937624">
  <ele>-24.43</ele>
  <time>2026-09-01T01:17:08Z</time>
  <course>194.15</course>
  <speed>0.99</speed>
  <fix>3d</fix>
</trkpt>
<trkpt lat="33.8105043" lon="-118.3937634">
  <ele>-25.037</ele>
  <time>2026-09-01T01:17:08Z</time>
  <course>195.43</course>
  <speed>0.9752948272189288</speed>
  <fix>3d</fix>
</trkpt>
<trkpt lat="33.8105053" lon="-118.3937629">
  <ele>-24.43</ele>
  <time>2026-09-01T01:17:08Z</time>
  <course>194.16</course>
  <speed>0.99</speed>
  <fix>3d</fix>
</trkpt>
<trkpt lat="33.8105034" lon="-118.3937637">
  <ele>-25.036</ele>
  <time>2026-09-01T01:17:08Z</time>
  <course>195.43</course>
  <speed>0.9752948272189288</speed>
  <fix>3d</fix>
</trkpt>
<trkpt lat="33.8105053" lon="-118.3937629">
  <ele>-24.43</ele>
  <time>2026-09-01T01:17:08Z</time>
  <course>194.16</course>
  <speed>0.99</speed>
  <fix>3d</fix>
</trkpt>
<trkpt lat="33.8105025" lon="-118.393764">
  <ele>-25.036</ele>
  <time>2026-09-01T01:17:08Z</time>
  <course>195.42</course>
  <speed>0.9726767191621274</speed>
  <fix>3d</fix>
</trkpt>
<trkpt lat="33.8105036" lon="-118.3937635">
  <ele>-24.43</ele>
  <time>2026-09-01T01:17:08Z</time>
  <course>194.16</course>
  <speed>0.99</speed>
  <fix>3d</fix>
</trkpt>
<trkpt lat="33.8105017" lon="-118.3937642">
  <ele>-25.037</ele>
  <time>2026-09-01T01:17:08Z</time>
  <course>195.41</course>
  <speed>0.9726767191621274</speed>
  <fix>3d</fix>
</trkpt>
<trkpt lat="33.8105036" lon="-118.3937635">
  <ele>-24.43</ele>
  <time>2026-09-01T01:17:08Z</time>
  <course>194.16</course>
  <speed>0.99</speed>
  <fix>3d</fix>
</trkpt>
<trkpt lat="33.8105008" lon="-118.3937645">
  <ele>-25.038</ele>
  <time>2026-09-01T01:17:08Z</time>
  <course>195.38</course>
  <speed>0.9726767191621274</speed>
  <fix>3d</fix>
</trkpt>
<trkpt lat="33.8105019" lon="-118.393764">
  <ele>-24.43</ele>
  <time>2026-09-01T01:17:08Z</time>
  <course>194.13</course>
  <speed>0.99</speed>
  <fix>3d</fix>
</trkpt>
<trkpt lat="33.8104999" lon="-118.3937648">
  <ele>-25.04</ele>
  <time>2026-09-01T01:17:08Z</time>
  <course>195.35</course>
  <speed>0.9726767191621274</speed>
  <fix>3d</fix>
</trkpt>
<trkpt lat="33.8105019" lon="-118.393764">
  <ele>-24.43</ele>
  <time>2026-09-01T01:17:08Z</time>
  <course>194.13</course>
  <speed>0.99</speed>
  <fix>3d</fix>
</trkpt>
<trkpt lat="33.810499" lon="-118.393765">
  <ele>-25.042</ele>
  <time>2026-09-01T01:17:08Z</time>
  <course>195.32</course>
  <speed>0.9726767191621274</speed>
  <fix>3d</fix>
</trkpt>
<trkpt lat="33.8105001" lon="-118.3937645">
  <ele>-24.44</ele>
  <time>2026-09-01T01:17:08Z</time>
  <course>194.08</course>
  <speed>0.99</speed>
  <fix>3d</fix>
</trkpt>
<trkpt lat="33.8104982" lon="-118.3937653">
  <ele>-25.044</ele>
  <time>2026-09-01T01:17:08Z</time>
  <course>195.29</course>
  <speed>0.9726767191621274</speed>
  <fix>3d</fix>
</trkpt>
<trkpt lat="33.8105001" lon="-118.3937645">
  <ele>-24.44</ele>
  <time>2026-09-01T01:17:08Z</time>
  <course>194.08</course>
  <speed>0.99</speed>
  <fix>3d</fix>
</trkpt>
<trkpt lat="33.8104973" lon="-118.3937655">
  <ele>-25.046</ele>
  <time>2026-09-01T01:17:08Z</time>
  <course>195.28</course>
  <speed>0.9726767191621274</speed>
  <fix>3d</fix>
</trkpt>
<trkpt lat="33.8104984" lon="-118.393765">
  <ele>-24.44</ele>
  <time>2026-09-01T01:17:08Z</time>
  <course>194.05</course>
  <speed>0.99</speed>
  <fix>3d</fix>
</trkpt>
<trkpt lat="33.8104964" lon="-118.3937658">
  <ele>-25.048</ele>
  <time>2026-09-01T01:17:08Z</time>
  <course>195.27</course>
  <speed>0.9726767191621274</speed>
  <fix>3d</fix>
</trkpt>
<trkpt lat="33.8104984" lon="-118.393765">
  <ele>-24.44</ele>
  <time>2026-09-01T01:17:08Z</time>
  <course>194.05</course>
  <speed>0.99</speed>
  <fix>3d</fix>
</trkpt>
<trkpt lat="33.8104956" lon="-118.3937661">
  <ele>-25.05</ele>
  <time>2026-09-01T01:17:08Z</time>
  <course>195.27</course>
  <speed>0.9726767191621274</speed>
  <fix>3d</fix>
</trkpt>
<trkpt lat="33.8104967" lon="-118.3937656">
  <ele>-24.45</ele>
  <time>2026-09-01T01:17:08Z</time>
  <course>194.05</course>
  <speed>0.99</speed>
  <fix>3d</fix>
</trkpt>
<trkpt lat="33.8104947" lon="-118.3937663">
  <ele>-25.051</ele>
  <time>2026-09-01T01:17:08Z</time>
  <course>195.27</course>
  <speed>0.9726767191621274</speed>
  <fix>3d</fix>
</trkpt>
<trkpt lat="33.8104967" lon="-118.3937656">
  <ele>-24.45</ele>
  <time>2026-09-01T01:17:08Z</time>
  <course>194.05</course>
  <speed>0.99</speed>
  <fix>3d</fix>
</trkpt>
<trkpt lat="33.8104938" lon="-118.3937666">
  <ele>-25.051</ele>
  <time>2026-09-01T01:17:08Z</time>
  <course>195.25</course>
  <speed>0.9726767191621274</speed>
  <fix>3d</fix>
</trkpt>
<trkpt lat="33.8104949" lon="-118.3937661">
  <ele>-24.45</ele>
  <time>2026-09-01T01:17:08Z</time>
  <course>194.02</course>
  <speed>0.99</speed>
  <fix>3d</fix>
</trkpt>
<trkpt lat="33.810493" lon="-118.3937669">
  <ele>-25.05</ele>
  <time>2026-09-01T01:17:08Z</time>
  <course>195.24</course>
  <speed>0.9726767191621274</speed>
  <fix>3d</fix>
</trkpt>
<trkpt lat="33.8104949" lon="-118.3937661">
  <ele>-24.45</ele>
  <time>2026-09-01T01:17:08Z</time>
  <course>194.02</course>
  <speed>0.99</speed>
  <fix>3d</fix>
</trkpt>
<trkpt lat="33.8104921" lon="-118.3937671">
  <ele>-25.048</ele>
  <time>2026-09-01T01:17:08Z</time>
  <course>195.22</course>
  <speed>0.9726767191621274</speed>
  <fix>3d</fix>
</trkpt>
<trkpt lat="33.8104931" lon="-118.3937666">
  <ele>-24.44</ele>
  <time>2026-09-01T01:17:08Z</time>
  <course>193.97</course>
  <speed>1.0</speed>
  <fix>3d</fix>
</trkpt>
<trkpt lat="33.8104912" lon="-118.3937674">
  <ele>-25.047</ele>
  <time>2026-09-01T01:17:08Z</time>
  <course>195.21</course>
  <speed>0.9726767191621274</speed>
  <fix>3d</fix>
</trkpt>
<trkpt lat="33.8104931" lon="-118.3937666">
  <ele>-24.44</ele>
  <time>2026-09-01T01:17:08Z</time>
  <course>193.97</course>
  <speed>1.0</speed>
  <fix>3d</fix>
</trkpt>
<trkpt lat="33.8104903" lon="-118.3937677">
  <ele>-25.045</ele>
  <time>2026-09-01T01:17:08Z</time>
  <course>195.22</course>
  <speed>0.9726767191621274</speed>
  <fix>3d</fix>
</trkpt>
<trkpt lat="33.8104914" lon="-118.3937671">
  <ele>-24.44</ele>
  <time>2026-09-01T01:17:08Z</time>
  <course>193.98</course>
  <speed>0.99</speed>
  <fix>3d</fix>
</trkpt>
<trkpt lat="33.8104895" lon="-118.3937679">
  <ele>-25.042</ele>
  <time>2026-09-01T01:17:08Z</time>
  <course>195.23</course>
  <speed>0.9726767191621274</speed>
  <fix>3d</fix>
</trkpt>
<trkpt lat="33.8104914" lon="-118.3937671">
  <ele>-24.44</ele>
  <time>2026-09-01T01:17:08Z</time>
  <course>193.98</course>
  <speed>0.99</speed>
  <fix>3d</fix>
</trkpt>
<trkpt lat="33.8104886" lon="-118.3937682">
  <ele>-25.04</ele>
  <time>2026-09-01T01:17:08Z</time>
  <course>195.25</course>
  <speed>0.9726767191621274</speed>
  <fix>3d</fix>
</trkpt>
<trkpt lat="33.8104897" lon="-118.3937676">
  <ele>-24.43</ele>
  <time>2026-09-01T01:17:08Z</time>
  <course>194.02</course>
  <speed>0.99</speed>
  <fix>3d</fix>
</trkpt>
<trkpt lat="33.8104877" lon="-118.3937684">
  <ele>-25.039</ele>
  <time>2026-09-01T01:17:08Z</time>
  <course>195.29</course>
  <speed>0.9726767191621274</speed>
  <fix>3d</fix>
</trkpt>
<trkpt lat="33.8104897" lon="-118.3937676">
  <ele>-24.43</ele>
  <time>2026-09-01T01:17:08Z</time>
  <course>194.02</course>
  <speed>0.99</speed>
  <fix>3d</fix>
</trkpt>
<trkpt lat="33.8104868" lon="-118.3937687">
  <ele>-25.038</ele>
  <time>2026-09-01T01:17:08Z</time>
  <course>195.31</course>
  <speed>0.9726767191621274</speed>
  <fix>3d</fix>
</trkpt>
<trkpt lat="33.8104879" lon="-118.3937682">
  <ele>-24.43</ele>
  <time>2026-09-01T01:17:08Z</time>
  <course>194.05</course>
  <speed>0.99</speed>
  <fix>3d</fix>
</trkpt>
<trkpt lat="33.810486" lon="-118.393769">
  <ele>-25.037</ele>
  <time>2026-09-01T01:17:08Z</time>
  <course>195.33</course>
  <speed>0.9726767191621274</speed>
  <fix>3d</fix>
</trkpt>
<trkpt lat="33.8104879" lon="-118.3937682">
  <ele>-24.43</ele>
  <time>2026-09-01T01:17:08Z</time>
  <course>194.05</course>
  <speed>0.99</speed>
  <fix>3d</fix>
</trkpt>
<trkpt lat="33.8104851" lon="-118.3937692">
  <ele>-25.036</ele>
  <time>2026-09-01T01:17:08Z</time>
  <course>195.34</course>
  <speed>0.9726767191621274</speed>
  <fix>3d</fix>
</trkpt>
<trkpt lat="33.8104862" lon="-118.3937687">
  <ele>-24.43</ele>
  <time>2026-09-01T01:17:08Z</time>
  <course>194.06</course>
  <speed>1.0</speed>
  <fix>3d</fix>
</trkpt>
<trkpt lat="33.8104842" lon="-118.3937695">
  <ele>-25.037</ele>
  <time>2026-09-01T01:17:09Z</time>
  <course>195.34</course>
  <speed>0.9726767191621274</speed>
  <fix>3d</fix>
</trkpt>
<trkpt lat="33.8104862" lon="-118.3937687">
  <ele>-24.43</ele>
  <time>2026-09-01T01:17:09Z</time>
  <course>194.06</course>
  <speed>1.0</speed>
  <fix>3d</fix>
</trkpt>
<trkpt lat="33.8104834" lon="-118.3937697">
  <ele>-25.037</ele>
  <time>2026-09-01T01:17:09Z</time>
  <course>195.33</course>
  <speed>0.9726767191621274</speed>
  <fix>3d</fix>
</trkpt>
<trkpt lat="33.8104845" lon="-118.3937692">
  <ele>-24.43</ele>
  <time>2026-09-01T01:17:09Z</time>
  <course>194.05</course>
  <speed>1.0</speed>
  <fix>3d</fix>
</trkpt>
<trkpt lat="33.8104825" lon="-118.39377">
  <ele>-25.038</ele>
  <time>2026-09-01T01:17:09Z</time>
  <course>195.33</course>
  <speed>0.9726767191621274</speed>
  <fix>3d</fix>
</trkpt>
<trkpt lat="33.8104845" lon="-118.3937692">
  <ele>-24.43</ele>
  <time>2026-09-01T01:17:09Z</time>
  <course>194.05</course>
  <speed>1.0</speed>
  <fix>3d</fix>
</trkpt>
<trkpt lat="33.8104816" lon="-118.3937703">
  <ele>-25.039</ele>
  <time>2026-09-01T01:17:09Z</time>
  <course>195.33</course>
  <speed>0.9726767191621274</speed>
  <fix>3d</fix>
</trkpt>
<trkpt lat="33.8104827" lon="-118.3937698">
  <ele>-24.43</ele>
  <time>2026-09-01T01:17:09Z</time>
  <course>194.06</course>
  <speed>1.0</speed>
  <fix>3d</fix>
</trkpt>
<trkpt lat="33.8104807" lon="-118.3937705">
  <ele>-25.04</ele>
  <time>2026-09-01T01:17:09Z</time>
  <course>195.32</course>
  <speed>0.9726767191621274</speed>
  <fix>3d</fix>
</trkpt>
<trkpt lat="33.8104827" lon="-118.3937698">
  <ele>-24.43</ele>
  <time>2026-09-01T01:17:09Z</time>
  <course>194.06</course>
  <speed>1.0</speed>
  <fix>3d</fix>
</trkpt>
<trkpt lat="33.8104799" lon="-118.3937708">
  <ele>-25.042</ele>
  <time>2026-09-01T01:17:09Z</time>
  <course>195.31</course>
  <speed>0.9726767191621274</speed>
  <fix>3d</fix>
</trkpt>
<trkpt lat="33.8104809" lon="-118.3937703">
  <ele>-24.43</ele>
  <time>2026-09-01T01:17:09Z</time>
  <course>194.05</course>
  <speed>1.0</speed>
  <fix>3d</fix>
</trkpt>
<trkpt lat="33.810479" lon="-118.3937711">
  <ele>-25.043</ele>
  <time>2026-09-01T01:17:09Z</time>
  <course>195.29</course>
  <speed>0.9726767191621274</speed>
  <fix>3d</fix>
</trkpt>
<trkpt lat="33.8104809" lon="-118.3937703">
  <ele>-24.43</ele>
  <time>2026-09-01T01:17:09Z</time>
  <course>194.05</course>
  <speed>1.0</speed>
  <fix>3d</fix>
</trkpt>
<trkpt lat="33.8104781" lon="-118.3937713">
  <ele>-25.043</ele>
  <time>2026-09-01T01:17:09Z</time>
  <course>195.28</course>
  <speed>0.9726767191621274</speed>
  <fix>3d</fix>
</trkpt>
<trkpt lat="33.8104792" lon="-118.3937708">
  <ele>-24.44</ele>
  <time>2026-09-01T01:17:09Z</time>
  <course>194.01</course>
  <speed>1.0</speed>
  <fix>3d</fix>
</trkpt>
<trkpt lat="33.8104772" lon="-118.3937716">
  <ele>-25.043</ele>
  <time>2026-09-01T01:17:09Z</time>
  <course>195.28</course>
  <speed>0.9726767191621274</speed>
  <fix>3d</fix>
</trkpt>
<trkpt lat="33.8104792" lon="-118.3937708">
  <ele>-24.44</ele>
  <time>2026-09-01T01:17:09Z</time>
  <course>194.01</course>
  <speed>1.0</speed>
  <fix>3d</fix>
</trkpt>
<trkpt lat="33.8104764" lon="-118.3937719">
  <ele>-25.042</ele>
  <time>2026-09-01T01:17:09Z</time>
  <course>195.28</course>
  <speed>0.9726767191621274</speed>
  <fix>3d</fix>
</trkpt>
<trkpt lat="33.8104775" lon="-118.3937713">
  <ele>-24.44</ele>
  <time>2026-09-01T01:17:09Z</time>
  <course>194.0</course>
  <speed>1.0</speed>
  <fix>3d</fix>
</trkpt>
<trkpt lat="33.8104755" lon="-118.3937721">
  <ele>-25.042</ele>
  <time>2026-09-01T01:17:09Z</time>
  <course>195.29</course>
  <speed>0.9726767191621274</speed>
  <fix>3d</fix>
</trkpt>
<trkpt lat="33.8104775" lon="-118.3937713">
  <ele>-24.44</ele>
  <time>2026-09-01T01:17:09Z</time>
  <course>194.0</course>
  <speed>1.0</speed>
  <fix>3d</fix>
</trkpt>
<trkpt lat="33.8104747" lon="-118.3937724">
  <ele>-25.043</ele>
  <time>2026-09-01T01:17:09Z</time>
  <course>195.3</course>
  <speed>0.9726767191621274</speed>
  <fix>3d</fix>
</trkpt>
<trkpt lat="33.8104757" lon="-118.3937719">
  <ele>-24.44</ele>
  <time>2026-09-01T01:17:09Z</time>
  <course>194.02</course>
  <speed>1.0</speed>
  <fix>3d</fix>
</trkpt>
<trkpt lat="33.8104738" lon="-118.3937726">
  <ele>-25.044</ele>
  <time>2026-09-01T01:17:09Z</time>
  <course>195.3</course>
  <speed>0.9726767191621274</speed>
  <fix>3d</fix>
</trkpt>
<trkpt lat="33.8104757" lon="-118.3937719">
  <ele>-24.44</ele>
  <time>2026-09-01T01:17:09Z</time>
  <course>194.02</course>
  <speed>1.0</speed>
  <fix>3d</fix>
</trkpt>
<trkpt lat="33.8104729" lon="-118.3937729">
  <ele>-25.046</ele>
  <time>2026-09-01T01:17:09Z</time>
  <course>195.29</course>
  <speed>0.9726767191621274</speed>
  <fix>3d</fix>
</trkpt>
<trkpt lat="33.810474" lon="-118.3937724">
  <ele>-24.44</ele>
  <time>2026-09-01T01:17:09Z</time>
  <course>194.02</course>
  <speed>1.0</speed>
  <fix>3d</fix>
</trkpt>
<trkpt lat="33.810472" lon="-118.3937732">
  <ele>-25.046</ele>
  <time>2026-09-01T01:17:09Z</time>
  <course>195.28</course>
  <speed>0.9726767191621274</speed>
  <fix>3d</fix>
</trkpt>
<trkpt lat="33.810474" lon="-118.3937724">
  <ele>-24.44</ele>
  <time>2026-09-01T01:17:09Z</time>
  <course>194.02</course>
  <speed>1.0</speed>
  <fix>3d</fix>
</trkpt>
<trkpt lat="33.8104712" lon="-118.3937734">
  <ele>-25.046</ele>
  <time>2026-09-01T01:17:09Z</time>
  <course>195.26</course>
  <speed>0.9726767191621274</speed>
  <fix>3d</fix>
</trkpt>
<trkpt lat="33.8104723" lon="-118.3937729">
  <ele>-24.44</ele>
  <time>2026-09-01T01:17:09Z</time>
  <course>193.99</course>
  <speed>1.0</speed>
  <fix>3d</fix>
</trkpt>
<trkpt lat="33.8104703" lon="-118.3937737">
  <ele>-25.046</ele>
  <time>2026-09-01T01:17:09Z</time>
  <course>195.25</course>
  <speed>0.9726767191621274</speed>
  <fix>3d</fix>
</trkpt>
<trkpt lat="33.8104723" lon="-118.3937729">
  <ele>-24.44</ele>
  <time>2026-09-01T01:17:09Z</time>
  <course>193.99</course>
  <speed>1.0</speed>
  <fix>3d</fix>
</trkpt>
<trkpt lat="33.8104694" lon="-118.393774">
  <ele>-25.045</ele>
  <time>2026-09-01T01:17:09Z</time>
  <course>195.24</course>
  <speed>0.9726767191621274</speed>
  <fix>3d</fix>
</trkpt>
<trkpt lat="33.8104705" lon="-118.3937734">
  <ele>-24.43</ele>
  <time>2026-09-01T01:17:09Z</time>
  <course>193.98</course>
  <speed>1.0</speed>
  <fix>3d</fix>
</trkpt>
<trkpt lat="33.8104686" lon="-118.3937742">
  <ele>-25.043</ele>
  <time>2026-09-01T01:17:09Z</time>
  <course>195.24</course>
  <speed>0.9752948272189288</speed>
  <fix>3d</fix>
</trkpt>
<trkpt lat="33.8104705" lon="-118.3937734">
  <ele>-24.43</ele>
  <time>2026-09-01T01:17:09Z</time>
  <course>193.98</course>
  <speed>1.0</speed>
  <fix>3d</fix>
</trkpt>
<trkpt lat="33.8104677" lon="-118.3937745">
  <ele>-25.041</ele>
  <time>2026-09-01T01:17:09Z</time>
  <course>195.26</course>
  <speed>0.9752948272189288</speed>
  <fix>3d</fix>
</trkpt>
<trkpt lat="33.8104687" lon="-118.393774">
  <ele>-24.43</ele>
  <time>2026-09-01T01:17:09Z</time>
  <course>193.99</course>
  <speed>1.0</speed>
  <fix>3d</fix>
</trkpt>
<trkpt lat="33.8104668" lon="-118.3937747">
  <ele>-25.04</ele>
  <time>2026-09-01T01:17:09Z</time>
  <course>195.27</course>
  <speed>0.9752948272189288</speed>
  <fix>3d</fix>
</trkpt>
<trkpt lat="33.8104687" lon="-118.393774">
  <ele>-24.43</ele>
  <time>2026-09-01T01:17:09Z</time>
  <course>193.99</course>
  <speed>1.0</speed>
  <fix>3d</fix>
</trkpt>
<trkpt lat="33.8104659" lon="-118.393775">
  <ele>-25.039</ele>
  <time>2026-09-01T01:17:09Z</time>
  <course>195.28</course>
  <speed>0.9726767191621274</speed>
  <fix>3d</fix>
</trkpt>
<trkpt lat="33.810467" lon="-118.3937745">
  <ele>-24.43</ele>
  <time>2026-09-01T01:17:09Z</time>
  <course>194.0</course>
  <speed>1.0</speed>
  <fix>3d</fix>
</trkpt>
<trkpt lat="33.8104651" lon="-118.3937753">
  <ele>-25.039</ele>
  <time>2026-09-01T01:17:09Z</time>
  <course>195.28</course>
  <speed>0.9726767191621274</speed>
  <fix>3d</fix>
</trkpt>
<trkpt lat="33.810467" lon="-118.3937745">
  <ele>-24.43</ele>
  <time>2026-09-01T01:17:09Z</time>
  <course>194.0</course>
  <speed>1.0</speed>
  <fix>3d</fix>
</trkpt>
<trkpt lat="33.8104642" lon="-118.3937755">
  <ele>-25.04</ele>
  <time>2026-09-01T01:17:09Z</time>
  <course>195.27</course>
  <speed>0.9726767191621274</speed>
  <fix>3d</fix>
</trkpt>
<trkpt lat="33.8104652" lon="-118.393775">
  <ele>-24.43</ele>
  <time>2026-09-01T01:17:09Z</time>
  <course>193.99</course>
  <speed>1.0</speed>
  <fix>3d</fix>
</trkpt>
<trkpt lat="33.8104633" lon="-118.3937758">
  <ele>-25.041</ele>
  <time>2026-09-01T01:17:09Z</time>
  <course>195.28</course>
  <speed>0.9726767191621274</speed>
  <fix>3d</fix>
</trkpt>
<trkpt lat="33.8104652" lon="-118.393775">
  <ele>-24.43</ele>
  <time>2026-09-01T01:17:09Z</time>
  <course>193.99</course>
  <speed>1.0</speed>
  <fix>3d</fix>
</trkpt>
<trkpt lat="33.8104624" lon="-118.3937761">
  <ele>-25.042</ele>
  <time>2026-09-01T01:17:09Z</time>
  <course>195.29</course>
  <speed>0.9752948272189288</speed>
  <fix>3d</fix>
</trkpt>
<trkpt lat="33.8104635" lon="-118.3937755">
  <ele>-24.43</ele>
  <time>2026-09-01T01:17:09Z</time>
  <course>193.99</course>
  <speed>1.0</speed>
  <fix>3d</fix>
</trkpt>
<trkpt lat="33.8104616" lon="-118.3937763">
  <ele>-25.043</ele>
  <time>2026-09-01T01:17:09Z</time>
  <course>195.31</course>
  <speed>0.9752948272189288</speed>
  <fix>3d</fix>
</trkpt>
<trkpt lat="33.8104635" lon="-118.3937755">
  <ele>-24.43</ele>
  <time>2026-09-01T01:17:09Z</time>
  <course>193.99</course>
  <speed>1.0</speed>
  <fix>3d</fix>
</trkpt>
<trkpt lat="33.8104607" lon="-118.3937766">
  <ele>-25.043</ele>
  <time>2026-09-01T01:17:09Z</time>
  <course>195.33</course>
  <speed>0.9752948272189288</speed>
  <fix>3d</fix>
</trkpt>
<trkpt lat="33.8104617" lon="-118.3937761">
  <ele>-24.43</ele>
  <time>2026-09-01T01:17:09Z</time>
  <course>194.03</course>
  <speed>1.0</speed>
  <fix>3d</fix>
</trkpt>
<trkpt lat="33.8104598" lon="-118.3937768">
  <ele>-25.043</ele>
  <time>2026-09-01T01:17:09Z</time>
  <course>195.35</course>
  <speed>0.9752948272189288</speed>
  <fix>3d</fix>
</trkpt>
<trkpt lat="33.8104617" lon="-118.3937761">
  <ele>-24.43</ele>
  <time>2026-09-01T01:17:09Z</time>
  <course>194.03</course>
  <speed>1.0</speed>
  <fix>3d</fix>
</trkpt>
<trkpt lat="33.810459" lon="-118.3937771">
  <ele>-25.043</ele>
  <time>2026-09-01T01:17:09Z</time>
  <course>195.36</course>
  <speed>0.9726767191621274</speed>
  <fix>3d</fix>
</trkpt>
<trkpt lat="33.8104599" lon="-118.3937766">
  <ele>-24.43</ele>
  <time>2026-09-01T01:17:09Z</time>
  <course>194.05</course>
  <speed>1.0</speed>
  <fix>3d</fix>
</trkpt>
<trkpt lat="33.8104581" lon="-118.3937774">
  <ele>-25.042</ele>
  <time>2026-09-01T01:17:09Z</time>
  <course>195.36</course>
  <speed>0.9726767191621274</speed>
  <fix>3d</fix>
</trkpt>
<trkpt lat="33.8104599" lon="-118.3937766">
  <ele>-24.43</ele>
  <time>2026-09-01T01:17:09Z</time>
  <course>194.05</course>
  <speed>1.0</speed>
  <fix>3d</fix>
</trkpt>
<trkpt lat="33.8104572" lon="-118.3937776">
  <ele>-25.041</ele>
  <time>2026-09-01T01:17:09Z</time>
  <course>195.37</course>
  <speed>0.9726767191621274</speed>
  <fix>3d</fix>
</trkpt>
<trkpt lat="33.8104582" lon="-118.3937771">
  <ele>-24.42</ele>
  <time>2026-09-01T01:17:09Z</time>
  <course>194.04</course>
  <speed>1.0</speed>
  <fix>3d</fix>
</trkpt>
<trkpt lat="33.8104563" lon="-118.3937779">
  <ele>-25.04</ele>
  <time>2026-09-01T01:17:09Z</time>
  <course>195.38</course>
  <speed>0.9726767191621274</speed>
  <fix>3d</fix>
</trkpt>
<trkpt lat="33.8104582" lon="-118.3937771">
  <ele>-24.42</ele>
  <time>2026-09-01T01:17:09Z</time>
  <course>194.04</course>
  <speed>1.0</speed>
  <fix>3d</fix>
</trkpt>
<trkpt lat="33.8104555" lon="-118.3937781">
  <ele>-25.039</ele>
  <time>2026-09-01T01:17:09Z</time>
  <course>195.4</course>
  <speed>0.9726767191621274</speed>
  <fix>3d</fix>
</trkpt>
<trkpt lat="33.8104565" lon="-118.3937776">
  <ele>-24.42</ele>
  <time>2026-09-01T01:17:09Z</time>
  <course>194.06</course>
  <speed>1.0</speed>
  <fix>3d</fix>
</trkpt>
<trkpt lat="33.8104546" lon="-118.3937784">
  <ele>-25.037</ele>
  <time>2026-09-01T01:17:09Z</time>
  <course>195.42</course>
  <speed>0.9752948272189288</speed>
  <fix>3d</fix>
</trkpt>
<trkpt lat="33.8104565" lon="-118.3937776">
  <ele>-24.42</ele>
  <time>2026-09-01T01:17:09Z</time>
  <course>194.06</course>
  <speed>1.0</speed>
  <fix>3d</fix>
</trkpt>
<trkpt lat="33.8104537" lon="-118.3937787">
  <ele>-25.037</ele>
  <time>2026-09-01T01:17:09Z</time>
  <course>195.44</course>
  <speed>0.9726767191621274</speed>
  <fix>3d</fix>
</trkpt>
<trkpt lat="33.8104547" lon="-118.3937782">
  <ele>-24.42</ele>
  <time>2026-09-01T01:17:09Z</time>
  <course>194.09</course>
  <speed>1.0</speed>
  <fix>3d</fix>
</trkpt>
<trkpt lat="33.8104528" lon="-118.3937789">
  <ele>-25.036</ele>
  <time>2026-09-01T01:17:09Z</time>
  <course>195.46</course>
  <speed>0.9752948272189288</speed>
  <fix>3d</fix>
</trkpt>
<trkpt lat="33.8104547" lon="-118.3937782">
  <ele>-24.42</ele>
  <time>2026-09-01T01:17:09Z</time>
  <course>194.09</course>
  <speed>1.0</speed>
  <fix>3d</fix>
</trkpt>
<trkpt lat="33.810452" lon="-118.3937792">
  <ele>-25.036</ele>
  <time>2026-09-01T01:17:09Z</time>
  <course>195.46</course>
  <speed>0.9726767191621274</speed>
  <fix>3d</fix>
</trkpt>
<trkpt lat="33.8104529" lon="-118.3937787">
  <ele>-24.42</ele>
  <time>2026-09-01T01:17:09Z</time>
  <course>194.1</course>
  <speed>1.0</speed>
  <fix>3d</fix>
</trkpt>
<trkpt lat="33.8104511" lon="-118.3937795">
  <ele>-25.036</ele>
  <time>2026-09-01T01:17:09Z</time>
  <course>195.45</course>
  <speed>0.9726767191621274</speed>
  <fix>3d</fix>
</trkpt>
<trkpt lat="33.8104529" lon="-118.3937787">
  <ele>-24.42</ele>
  <time>2026-09-01T01:17:09Z</time>
  <course>194.1</course>
  <speed>1.0</speed>
  <fix>3d</fix>
</trkpt>
<trkpt lat="33.8104502" lon="-118.3937797">
  <ele>-25.037</ele>
  <time>2026-09-01T01:17:09Z</time>
  <course>195.45</course>
  <speed>0.9726767191621274</speed>
  <fix>3d</fix>
</trkpt>
<trkpt lat="33.8104512" lon="-118.3937792">
  <ele>-24.42</ele>
  <time>2026-09-01T01:17:09Z</time>
  <course>194.1</course>
  <speed>1.0</speed>
  <fix>3d</fix>
</trkpt>
<trkpt lat="33.8104493" lon="-118.39378">
  <ele>-25.038</ele>
  <time>2026-09-01T01:17:09Z</time>
  <course>195.46</course>
  <speed>0.9726767191621274</speed>
  <fix>3d</fix>
</trkpt>
<trkpt lat="33.8104512" lon="-118.3937792">
  <ele>-24.42</ele>
  <time>2026-09-01T01:17:09Z</time>
  <course>194.1</course>
  <speed>1.0</speed>
  <fix>3d</fix>
</trkpt>
<trkpt lat="33.8104485" lon="-118.3937803">
  <ele>-25.04</ele>
  <time>2026-09-01T01:17:09Z</time>
  <course>195.47</course>
  <speed>0.9726767191621274</speed>
  <fix>3d</fix>
</trkpt>
<trkpt lat="33.8104495" lon="-118.3937798">
  <ele>-24.42</ele>
  <time>2026-09-01T01:17:09Z</time>
  <course>194.12</course>
  <speed>1.0</speed>
  <fix>3d</fix>
</trkpt>
<trkpt lat="33.8104476" lon="-118.3937805">
  <ele>-25.041</ele>
  <time>2026-09-01T01:17:09Z</time>
  <course>195.47</course>
  <speed>0.9726767191621274</speed>
  <fix>3d</fix>
</trkpt>
<trkpt lat="33.8104495" lon="-118.3937798">
  <ele>-24.42</ele>
  <time>2026-09-01T01:17:09Z</time>
  <course>194.12</course>
  <speed>1.0</speed>
  <fix>3d</fix>
</trkpt>
<trkpt lat="33.8104467" lon="-118.3937808">
  <ele>-25.041</ele>
  <time>2026-09-01T01:17:09Z</time>
  <course>195.45</course>
  <speed>0.9726767191621274</speed>
  <fix>3d</fix>
</trkpt>
<trkpt lat="33.8104477" lon="-118.3937803">
  <ele>-24.43</ele>
  <time>2026-09-01T01:17:09Z</time>
  <course>194.12</course>
  <speed>1.0</speed>
  <fix>3d</fix>
</trkpt>
<trkpt lat="33.8104458" lon="-118.3937811">
  <ele>-25.04</ele>
  <time>2026-09-01T01:17:09Z</time>
  <course>195.43</course>
  <speed>0.9726767191621274</speed>
  <fix>3d</fix>
</trkpt>
<trkpt lat="33.8104477" lon="-118.3937803">
  <ele>-24.43</ele>
  <time>2026-09-01T01:17:09Z</time>
  <course>194.12</course>
  <speed>1.0</speed>
  <fix>3d</fix>
</trkpt>
<trkpt lat="33.810445" lon="-118.3937813">
  <ele>-25.039</ele>
  <time>2026-09-01T01:17:09Z</time>
  <course>195.42</course>
  <speed>0.9726767191621274</speed>
  <fix>3d</fix>
</trkpt>
<trkpt lat="33.810446" lon="-118.3937808">
  <ele>-24.43</ele>
  <time>2026-09-01T01:17:09Z</time>
  <course>194.1</course>
  <speed>1.0</speed>
  <fix>3d</fix>
</trkpt>
<trkpt lat="33.8104441" lon="-118.3937816">
  <ele>-25.039</ele>
  <time>2026-09-01T01:17:09Z</time>
  <course>195.41</course>
  <speed>0.9726767191621274</speed>
  <fix>3d</fix>
</trkpt>
<trkpt lat="33.810446" lon="-118.3937808">
  <ele>-24.43</ele>
  <time>2026-09-01T01:17:09Z</time>
  <course>194.1</course>
  <speed>1.0</speed>
  <fix>3d</fix>
</trkpt>
<trkpt lat="33.8104432" lon="-118.3937818">
  <ele>-25.039</ele>
  <time>2026-09-01T01:17:09Z</time>
  <course>195.4</course>
  <speed>0.9726767191621274</speed>
  <fix>3d</fix>
</trkpt>
<trkpt lat="33.8104442" lon="-118.3937814">
  <ele>-24.43</ele>
  <time>2026-09-01T01:17:09Z</time>
  <course>194.09</course>
  <speed>1.0</speed>
  <fix>3d</fix>
</trkpt>
<trkpt lat="33.8104424" lon="-118.3937821">
  <ele>-25.039</ele>
  <time>2026-09-01T01:17:09Z</time>
  <course>195.39</course>
  <speed>0.9726767191621274</speed>
  <fix>3d</fix>
</trkpt>
<trkpt lat="33.8104442" lon="-118.3937814">
  <ele>-24.43</ele>
  <time>2026-09-01T01:17:09Z</time>
  <course>194.09</course>
  <speed>1.0</speed>
  <fix>3d</fix>
</trkpt>
<trkpt lat="33.8104415" lon="-118.3937824">
  <ele>-25.04</ele>
  <time>2026-09-01T01:17:09Z</time>
  <course>195.37</course>
  <speed>0.9726767191621274</speed>
  <fix>3d</fix>
</trkpt>
<trkpt lat="33.8104424" lon="-118.3937819">
  <ele>-24.43</ele>
  <time>2026-09-01T01:17:09Z</time>
  <course>194.06</course>
  <speed>1.0</speed>
  <fix>3d</fix>
</trkpt>
<trkpt lat="33.8104406" lon="-118.3937826">
  <ele>-25.041</ele>
  <time>2026-09-01T01:17:09Z</time>
  <course>195.36</course>
  <speed>0.9630160954002794</speed>
  <fix>3d</fix>
</trkpt>
<trkpt lat="33.8104424" lon="-118.3937819">
  <ele>-24.43</ele>
  <time>2026-09-01T01:17:09Z</time>
  <course>194.06</course>
  <speed>1.0</speed>
  <fix>3d</fix>
</trkpt>
<trkpt lat="33.8104397" lon="-118.3937829">
  <ele>-25.042</ele>
  <time>2026-09-01T01:17:09Z</time>
  <course>195.34</course>
  <speed>0.9630160954002794</speed>
  <fix>3d</fix>
</trkpt>
<trkpt lat="33.8104407" lon="-118.3937824">
  <ele>-24.43</ele>
  <time>2026-09-01T01:17:09Z</time>
  <course>194.05</course>
  <speed>0.99</speed>
  <fix>3d</fix>
</trkpt>
<trkpt lat="33.8104389" lon="-118.3937832">
  <ele>-25.042</ele>
  <time>2026-09-01T01:17:09Z</time>
  <course>195.34</course>
  <speed>0.9630160954002794</speed>
  <fix>3d</fix>
</trkpt>
<trkpt lat="33.8104407" lon="-118.3937824">
  <ele>-24.43</ele>
  <time>2026-09-01T01:17:09Z</time>
  <course>194.05</course>
  <speed>0.99</speed>
  <fix>3d</fix>
</trkpt>
<trkpt lat="33.810438" lon="-118.3937834">
  <ele>-25.041</ele>
  <time>2026-09-01T01:17:09Z</time>
  <course>195.34</course>
  <speed>0.9630160954002794</speed>
  <fix>3d</fix>
</trkpt>
<trkpt lat="33.810439" lon="-118.3937829">
  <ele>-24.43</ele>
  <time>2026-09-01T01:17:09Z</time>
  <course>194.07</course>
  <speed>0.99</speed>
  <fix>3d</fix>
</trkpt>
<trkpt lat="33.8104371" lon="-118.3937837">
  <ele>-25.041</ele>
  <time>2026-09-01T01:17:09Z</time>
  <course>195.35</course>
  <speed>0.9630160954002794</speed>
  <fix>3d</fix>
</trkpt>
<trkpt lat="33.810439" lon="-118.3937829">
  <ele>-24.43</ele>
  <time>2026-09-01T01:17:09Z</time>
  <course>194.07</course>
  <speed>0.99</speed>
  <fix>3d</fix>
</trkpt>
<trkpt lat="33.8104362" lon="-118.393784">
  <ele>-25.041</ele>
  <time>2026-09-01T01:17:09Z</time>
  <course>195.35</course>
  <speed>0.9630160954002794</speed>
  <fix>3d</fix>
</trkpt>
<trkpt lat="33.8104373" lon="-118.3937835">
  <ele>-24.43</ele>
  <time>2026-09-01T01:17:09Z</time>
  <course>194.09</course>
  <speed>0.99</speed>
  <fix>3d</fix>
</trkpt>
<trkpt lat="33.8104354" lon="-118.3937842">
  <ele>-25.039</ele>
  <time>2026-09-01T01:17:09Z</time>
  <course>195.35</course>
  <speed>0.9630160954002794</speed>
  <fix>3d</fix>
</trkpt>
<trkpt lat="33.8104373" lon="-118.3937835">
  <ele>-24.43</ele>
  <time>2026-09-01T01:17:09Z</time>
  <course>194.09</course>
  <speed>0.99</speed>
  <fix>3d</fix>
</trkpt>
<trkpt lat="33.8104345" lon="-118.3937845">
  <ele>-25.036</ele>
  <time>2026-09-01T01:17:09Z</time>
  <course>195.34</course>
  <speed>0.9726767191621274</speed>
  <fix>3d</fix>
</trkpt>
<trkpt lat="33.8104355" lon="-118.393784">
  <ele>-24.43</ele>
  <time>2026-09-01T01:17:09Z</time>
  <course>194.07</course>
  <speed>0.99</speed>
  <fix>3d</fix>
</trkpt>
<trkpt lat="33.8104336" lon="-118.3937847">
  <ele>-25.036</ele>
  <time>2026-09-01T01:17:09Z</time>
  <course>195.32</course>
  <speed>0.9726767191621274</speed>
  <fix>3d</fix>
</trkpt>
<trkpt lat="33.8104355" lon="-118.393784">
  <ele>-24.43</ele>
  <time>2026-09-01T01:17:09Z</time>
  <course>194.07</course>
  <speed>0.99</speed>
  <fix>3d</fix>
</trkpt>
<trkpt lat="33.8104328" lon="-118.393785">
  <ele>-25.037</ele>
  <time>2026-09-01T01:17:09Z</time>
  <course>195.3</course>
  <speed>0.9726767191621274</speed>
  <fix>3d</fix>
</trkpt>
<trkpt lat="33.8104338" lon="-118.3937845">
  <ele>-24.43</ele>
  <time>2026-09-01T01:17:09Z</time>
  <course>194.04</course>
  <speed>0.99</speed>
  <fix>3d</fix>
</trkpt>
<trkpt lat="33.8104319" lon="-118.3937853">
  <ele>-25.038</ele>
  <time>2026-09-01T01:17:09Z</time>
  <course>195.28</course>
  <speed>0.9726767191621274</speed>
  <fix>3d</fix>
</trkpt>
<trkpt lat="33.8104338" lon="-118.3937845">
  <ele>-24.43</ele>
  <time>2026-09-01T01:17:09Z</time>
  <course>194.04</course>
  <speed>0.99</speed>
  <fix>3d</fix>
</trkpt>
<trkpt lat="33.810431" lon="-118.3937855">
  <ele>-25.04</ele>
  <time>2026-09-01T01:17:09Z</time>
  <course>195.27</course>
  <speed>0.9726767191621274</speed>
  <fix>3d</fix>
</trkpt>
<trkpt lat="33.810432" lon="-118.393785">
  <ele>-24.43</ele>
  <time>2026-09-01T01:17:09Z</time>
  <course>194.02</course>
  <speed>0.99</speed>
  <fix>3d</fix>
</trkpt>
<trkpt lat="33.8104302" lon="-118.3937858">
  <ele>-25.041</ele>
  <time>2026-09-01T01:17:09Z</time>
  <course>195.27</course>
  <speed>0.9726767191621274</speed>
  <fix>3d</fix>
</trkpt>
<trkpt lat="33.810432" lon="-118.393785">
  <ele>-24.43</ele>
  <time>2026-09-01T01:17:09Z</time>
  <course>194.02</course>
  <speed>0.99</speed>
  <fix>3d</fix>
</trkpt>
<trkpt lat="33.8104293" lon="-118.3937861">
  <ele>-25.042</ele>
  <time>2026-09-01T01:17:09Z</time>
  <course>195.29</course>
  <speed>0.9726767191621274</speed>
  <fix>3d</fix>
</trkpt>
<trkpt lat="33.8104303" lon="-118.3937855">
  <ele>-24.44</ele>
  <time>2026-09-01T01:17:09Z</time>
  <course>194.04</course>
  <speed>0.99</speed>
  <fix>3d</fix>
</trkpt>
<trkpt lat="33.8104284" lon="-118.3937863">
  <ele>-25.043</ele>
  <time>2026-09-01T01:17:09Z</time>
  <course>195.31</course>
  <speed>0.9630160954002794</speed>
  <fix>3d</fix>
</trkpt>
<trkpt lat="33.8104303" lon="-118.3937855">
  <ele>-24.44</ele>
  <time>2026-09-01T01:17:09Z</time>
  <course>194.04</course>
  <speed>0.99</speed>
  <fix>3d</fix>
</trkpt>
<trkpt lat="33.8104275" lon="-118.3937866">
  <ele>-25.044</ele>
  <time>2026-09-01T01:17:09Z</time>
  <course>195.34</course>
  <speed>0.9726767191621274</speed>
  <fix>3d</fix>
</trkpt>
<trkpt lat="33.8104285" lon="-118.3937861">
  <ele>-24.44</ele>
  <time>2026-09-01T01:17:09Z</time>
  <course>194.09</course>
  <speed>0.99</speed>
  <fix>3d</fix>
</trkpt>
<trkpt lat="33.8104267" lon="-118.3937868">
  <ele>-25.045</ele>
  <time>2026-09-01T01:17:09Z</time>
  <course>195.36</course>
  <speed>0.9630160954002794</speed>
  <fix>3d</fix>
</trkpt>
<trkpt lat="33.8104285" lon="-118.3937861">
  <ele>-24.44</ele>
  <time>2026-09-01T01:17:09Z</time>
  <course>194.09</course>
  <speed>0.99</speed>
  <fix>3d</fix>
</trkpt>
<trkpt lat="33.8104258" lon="-118.3937871">
  <ele>-25.045</ele>
  <time>2026-09-01T01:17:09Z</time>
  <course>195.37</course>
  <speed>0.9630160954002794</speed>
  <fix>3d</fix>
</trkpt>
<trkpt lat="33.8104268" lon="-118.3937866">
  <ele>-24.44</ele>
  <time>2026-09-01T01:17:09Z</time>
  <course>194.11</course>
  <speed>0.99</speed>
  <fix>3d</fix>
</trkpt>
<trkpt lat="33.8104249" lon="-118.3937874">
  <ele>-25.045</ele>
  <time>2026-09-01T01:17:09Z</time>
  <course>195.38</course>
  <speed>0.9630160954002794</speed>
  <fix>3d</fix>
</trkpt>
<trkpt lat="33.8104268" lon="-118.3937866">
  <ele>-24.44</ele>
  <time>2026-09-01T01:17:09Z</time>
  <course>194.11</course>
  <speed>0.99</speed>
  <fix>3d</fix>
</trkpt>
<trkpt lat="33.810424" lon="-118.3937876">
  <ele>-25.044</ele>
  <time>2026-09-01T01:17:09Z</time>
  <course>195.37</course>
  <speed>0.9726767191621274</speed>
  <fix>3d</fix>
</trkpt>
<trkpt lat="33.8104251" lon="-118.3937871">
  <ele>-24.44</ele>
  <time>2026-09-01T01:17:09Z</time>
  <course>194.1</course>
  <speed>0.99</speed>
  <fix>3d</fix>
</trkpt>
<trkpt lat="33.8104232" lon="-118.3937879">
  <ele>-25.044</ele>
  <time>2026-09-01T01:17:09Z</time>
  <course>195.37</course>
  <speed>0.9726767191621274</speed>
  <fix>3d</fix>
</trkpt>
<trkpt lat="33.8104251" lon="-118.3937871">
  <ele>-24.44</ele>
  <time>2026-09-01T01:17:09Z</time>
  <course>194.1</course>
  <speed>0.99</speed>
  <fix>3d</fix>
</trkpt>
<trkpt lat="33.8104223" lon="-118.3937882">
  <ele>-25.043</ele>
  <time>2026-09-01T01:17:09Z</time>
  <course>195.38</course>
  <speed>0.9726767191621274</speed>
  <fix>3d</fix>
</trkpt>
<trkpt lat="33.8104233" lon="-118.3937877">
  <ele>-24.43</ele>
  <time>2026-09-01T01:17:09Z</time>
  <course>194.1</course>
  <speed>0.99</speed>
  <fix>3d</fix>
</trkpt>
<trkpt lat="33.8104214" lon="-118.3937884">
  <ele>-25.041</ele>
  <time>2026-09-01T01:17:09Z</time>
  <course>195.37</course>
  <speed>0.9726767191621274</speed>
  <fix>3d</fix>
</trkpt>
<trkpt lat="33.8104233" lon="-118.3937877">
  <ele>-24.43</ele>
  <time>2026-09-01T01:17:09Z</time>
  <course>194.1</course>
  <speed>0.99</speed>
  <fix>3d</fix>
</trkpt>
<trkpt lat="33.8104206" lon="-118.3937887">
  <ele>-25.041</ele>
  <time>2026-09-01T01:17:09Z</time>
  <course>195.36</course>
  <speed>0.9726767191621274</speed>
  <fix>3d</fix>
</trkpt>
<trkpt lat="33.8104216" lon="-118.3937882">
  <ele>-24.43</ele>
  <time>2026-09-01T01:17:09Z</time>
  <course>194.09</course>
  <speed>0.99</speed>
  <fix>3d</fix>
</trkpt>
<trkpt lat="33.8104197" lon="-118.3937889">
  <ele>-25.04</ele>
  <time>2026-09-01T01:17:09Z</time>
  <course>195.34</course>
  <speed>0.9726767191621274</speed>
  <fix>3d</fix>
</trkpt>
<trkpt lat="33.8104216" lon="-118.3937882">
  <ele>-24.43</ele>
  <time>2026-09-01T01:17:09Z</time>
  <course>194.09</course>
  <speed>0.99</speed>
  <fix>3d</fix>
</trkpt>
<trkpt lat="33.8104188" lon="-118.3937892">
  <ele>-25.04</ele>
  <time>2026-09-01T01:17:09Z</time>
  <course>195.33</course>
  <speed>0.9726767191621274</speed>
  <fix>3d</fix>
</trkpt>
<trkpt lat="33.8104199" lon="-118.3937887">
  <ele>-24.43</ele>
  <time>2026-09-01T01:17:09Z</time>
  <course>194.06</course>
  <speed>0.99</speed>
  <fix>3d</fix>
</trkpt>
<trkpt lat="33.8104179" lon="-118.3937895">
  <ele>-25.04</ele>
  <time>2026-09-01T01:17:09Z</time>
  <course>195.31</course>
  <speed>0.9726767191621274</speed>
  <fix>3d</fix>
</trkpt>
<trkpt lat="33.8104199" lon="-118.3937887">
  <ele>-24.43</ele>
  <time>2026-09-01T01:17:09Z</time>
  <course>194.06</course>
  <speed>0.99</speed>
  <fix>3d</fix>
</trkpt>
<trkpt lat="33.8104171" lon="-118.3937897">
  <ele>-25.04</ele>
  <time>2026-09-01T01:17:09Z</time>
  <course>195.3</course>
  <speed>0.9726767191621274</speed>
  <fix>3d</fix>
</trkpt>
<trkpt lat="33.8104181" lon="-118.3937892">
  <ele>-24.43</ele>
  <time>2026-09-01T01:17:09Z</time>
  <course>194.05</course>
  <speed>0.99</speed>
  <fix>3d</fix>
</trkpt>
<trkpt lat="33.8104162" lon="-118.39379">
  <ele>-25.04</ele>
  <time>2026-09-01T01:17:09Z</time>
  <course>195.29</course>
  <speed>0.9726767191621274</speed>
  <fix>3d</fix>
</trkpt>
<trkpt lat="33.8104181" lon="-118.3937892">
  <ele>-24.43</ele>
  <time>2026-09-01T01:17:09Z</time>
  <course>194.05</course>
  <speed>0.99</speed>
  <fix>3d</fix>
</trkpt>
<trkpt lat="33.8104153" lon="-118.3937903">
  <ele>-25.038</ele>
  <time>2026-09-01T01:17:09Z</time>
  <course>195.3</course>
  <speed>0.9726767191621274</speed>
  <fix>3d</fix>
</trkpt>
<trkpt lat="33.8104164" lon="-118.3937898">
  <ele>-24.43</ele>
  <time>2026-09-01T01:17:09Z</time>
  <course>194.07</course>
  <speed>0.99</speed>
  <fix>3d</fix>
</trkpt>
<trkpt lat="33.8104145" lon="-118.3937905">
  <ele>-25.038</ele>
  <time>2026-09-01T01:17:09Z</time>
  <course>195.3</course>
  <speed>0.9726767191621274</speed>
  <fix>3d</fix>
</trkpt>
<trkpt lat="33.8104164" lon="-118.3937898">
  <ele>-24.43</ele>
  <time>2026-09-01T01:17:09Z</time>
  <course>194.07</course>
  <speed>0.99</speed>
  <fix>3d</fix>
</trkpt>
<trkpt lat="33.8104136" lon="-118.3937908">
  <ele>-25.037</ele>
  <time>2026-09-01T01:17:09Z</time>
  <course>195.29</course>
  <speed>0.9726767191621274</speed>
  <fix>3d</fix>
</trkpt>
<trkpt lat="33.8104146" lon="-118.3937903">
  <ele>-24.43</ele>
  <time>2026-09-01T01:17:09Z</time>
  <course>194.08</course>
  <speed>0.99</speed>
  <fix>3d</fix>
</trkpt>
<trkpt lat="33.8104127" lon="-118.3937911">
  <ele>-25.038</ele>
  <time>2026-09-01T01:17:09Z</time>
  <course>195.27</course>
  <speed>0.9726767191621274</speed>
  <fix>3d</fix>
</trkpt>
<trkpt lat="33.8104146" lon="-118.3937903">
  <ele>-24.43</ele>
  <time>2026-09-01T01:17:09Z</time>
  <course>194.08</course>
  <speed>0.99</speed>
  <fix>3d</fix>
</trkpt>
<trkpt lat="33.8104119" lon="-118.3937913">
  <ele>-25.038</ele>
  <time>2026-09-01T01:17:09Z</time>
  <course>195.26</course>
  <speed>0.9726767191621274</speed>
  <fix>3d</fix>
</trkpt>
<trkpt lat="33.8104129" lon="-118.3937908">
  <ele>-24.43</ele>
  <time>2026-09-01T01:17:09Z</time>
  <course>194.06</course>
  <speed>0.99</speed>
  <fix>3d</fix>
</trkpt>
<trkpt lat="33.810411" lon="-118.3937916">
  <ele>-25.038</ele>
  <time>2026-09-01T01:17:09Z</time>
  <course>195.25</course>
  <speed>0.9726767191621274</speed>
  <fix>3d</fix>
</trkpt>
<trkpt lat="33.8104129" lon="-118.3937908">
  <ele>-24.43</ele>
  <time>2026-09-01T01:17:09Z</time>
  <course>194.06</course>
  <speed>0.99</speed>
  <fix>3d</fix>
</trkpt>
<trkpt lat="33.8104101" lon="-118.3937918">
  <ele>-25.038</ele>
  <time>2026-09-01T01:17:09Z</time>
  <course>195.25</course>
  <speed>0.9726767191621274</speed>
  <fix>3d</fix>
</trkpt>
<trkpt lat="33.8104112" lon="-118.3937913">
  <ele>-24.43</ele>
  <time>2026-09-01T01:17:09Z</time>
  <course>194.06</course>
  <speed>0.99</speed>
  <fix>3d</fix>
</trkpt>
<trkpt lat="33.8104092" lon="-118.3937921">
  <ele>-25.038</ele>
  <time>2026-09-01T01:17:09Z</time>
  <course>195.25</course>
  <speed>0.9726767191621274</speed>
  <fix>3d</fix>
</trkpt>
<trkpt lat="33.8104112" lon="-118.3937913">
  <ele>-24.43</ele>
  <time>2026-09-01T01:17:09Z</time>
  <course>194.06</course>
  <speed>0.99</speed>
  <fix>3d</fix>
</trkpt>
<trkpt lat="33.8104084" lon="-118.3937924">
  <ele>-25.039</ele>
  <time>2026-09-01T01:17:09Z</time>
  <course>195.26</course>
  <speed>0.9726767191621274</speed>
  <fix>3d</fix>
</trkpt>
<trkpt lat="33.8104094" lon="-118.3937918">
  <ele>-24.43</ele>
  <time>2026-09-01T01:17:09Z</time>
  <course>194.08</course>
  <speed>0.99</speed>
  <fix>3d</fix>
</trkpt>
<trkpt lat="33.8104075" lon="-118.3937926">
  <ele>-25.04</ele>
  <time>2026-09-01T01:17:09Z</time>
  <course>195.28</course>
  <speed>0.9726767191621274</speed>
  <fix>3d</fix>
</trkpt>
<trkpt lat="33.8104094" lon="-118.3937918">
  <ele>-24.43</ele>
  <time>2026-09-01T01:17:09Z</time>
  <course>194.08</course>
  <speed>0.99</speed>
  <fix>3d</fix>
</trkpt>
<trkpt lat="33.8104066" lon="-118.3937929">
  <ele>-25.041</ele>
  <time>2026-09-01T01:17:09Z</time>
  <course>195.31</course>
  <speed>0.9726767191621274</speed>
  <fix>3d</fix>
</trkpt>
<trkpt lat="33.8104077" lon="-118.3937924">
  <ele>-24.43</ele>
  <time>2026-09-01T01:17:09Z</time>
  <course>194.12</course>
  <speed>0.99</speed>
  <fix>3d</fix>
</trkpt>
<trkpt lat="33.8104058" lon="-118.3937931">
  <ele>-25.041</ele>
  <time>2026-09-01T01:17:09Z</time>
  <course>195.33</course>
  <speed>0.9726767191621274</speed>
  <fix>3d</fix>
</trkpt>
<trkpt lat="33.8104077" lon="-118.3937924">
  <ele>-24.43</ele>
  <time>2026-09-01T01:17:09Z</time>
  <course>194.12</course>
  <speed>0.99</speed>
  <fix>3d</fix>
</trkpt>
<trkpt lat="33.8104049" lon="-118.3937934">
  <ele>-25.041</ele>
  <time>2026-09-01T01:17:09Z</time>
  <course>195.33</course>
  <speed>0.9726767191621274</speed>
  <fix>3d</fix>
</trkpt>
<trkpt lat="33.810406" lon="-118.3937929">
  <ele>-24.43</ele>
  <time>2026-09-01T01:17:09Z</time>
  <course>194.14</course>
  <speed>0.99</speed>
  <fix>3d</fix>
</trkpt>
<trkpt lat="33.810404" lon="-118.3937937">
  <ele>-25.04</ele>
  <time>2026-09-01T01:17:09Z</time>
  <course>195.32</course>
  <speed>0.9726767191621274</speed>
  <fix>3d</fix>
</trkpt>
<trkpt lat="33.810406" lon="-118.3937929">
  <ele>-24.43</ele>
  <time>2026-09-01T01:17:09Z</time>
  <course>194.14</course>
  <speed>0.99</speed>
  <fix>3d</fix>
</trkpt>
<trkpt lat="33.8104032" lon="-118.3937939">
  <ele>-25.039</ele>
  <time>2026-09-01T01:17:09Z</time>
  <course>195.31</course>
  <speed>0.9726767191621274</speed>
  <fix>3d</fix>
</trkpt>
<trkpt lat="33.8104042" lon="-118.3937934">
  <ele>-24.43</ele>
  <time>2026-09-01T01:17:09Z</time>
  <course>194.12</course>
  <speed>0.99</speed>
  <fix>3d</fix>
</trkpt>
<trkpt lat="33.8104023" lon="-118.3937942">
  <ele>-25.037</ele>
  <time>2026-09-01T01:17:09Z</time>
  <course>195.31</course>
  <speed>0.9726767191621274</speed>
  <fix>3d</fix>
</trkpt>
<trkpt lat="33.8104042" lon="-118.3937934">
  <ele>-24.43</ele>
  <time>2026-09-01T01:17:09Z</time>
  <course>194.12</course>
  <speed>0.99</speed>
  <fix>3d</fix>
</trkpt>
<trkpt lat="33.8104014" lon="-118.3937945">
  <ele>-25.036</ele>
  <time>2026-09-01T01:17:09Z</time>
  <course>195.31</course>
  <speed>0.9726767191621274</speed>
  <fix>3d</fix>
</trkpt>
<trkpt lat="33.8104024" lon="-118.3937939">
  <ele>-24.43</ele>
  <time>2026-09-01T01:17:09Z</time>
  <course>194.12</course>
  <speed>1.0</speed>
  <fix>3d</fix>
</trkpt>
<trkpt lat="33.8104005" lon="-118.3937947">
  <ele>-25.036</ele>
  <time>2026-09-01T01:17:09Z</time>
  <course>195.31</course>
  <speed>0.9726767191621274</speed>
  <fix>3d</fix>
</trkpt>
<trkpt lat="33.8104024" lon="-118.3937939">
  <ele>-24.43</ele>
  <time>2026-09-01T01:17:09Z</time>
  <course>194.12</course>
  <speed>1.0</speed>
  <fix>3d</fix>
</trkpt>
<trkpt lat="33.8103997" lon="-118.393795">
  <ele>-25.036</ele>
  <time>2026-09-01T01:17:09Z</time>
  <course>195.33</course>
  <speed>0.9726767191621274</speed>
  <fix>3d</fix>
</trkpt>
<trkpt lat="33.8104007" lon="-118.3937945">
  <ele>-24.43</ele>
  <time>2026-09-01T01:17:09Z</time>
  <course>194.18</course>
  <speed>0.99</speed>
  <fix>3d</fix>
</trkpt>
<trkpt lat="33.8103988" lon="-118.3937952">
  <ele>-25.036</ele>
  <time>2026-09-01T01:17:09Z</time>
  <course>195.36</course>
  <speed>0.9726767191621274</speed>
  <fix>3d</fix>
</trkpt>
<trkpt lat="33.8104007" lon="-118.3937945">
  <ele>-24.43</ele>
  <time>2026-09-01T01:17:09Z</time>
  <course>194.18</course>
  <speed>0.99</speed>
  <fix>3d</fix>
</trkpt>
<trkpt lat="33.8103979" lon="-118.3937955">
  <ele>-25.038</ele>
  <time>2026-09-01T01:17:09Z</time>
  <course>195.36</course>
  <speed>0.9726767191621274</speed>
  <fix>3d</fix>
</trkpt>
<trkpt lat="33.810399" lon="-118.393795">
  <ele>-24.43</ele>
  <time>2026-09-01T01:17:09Z</time>
  <course>194.24</course>
  <speed>0.99</speed>
  <fix>3d</fix>
</trkpt>
<trkpt lat="33.810397" lon="-118.3937958">
  <ele>-25.039</ele>
  <time>2026-09-01T01:17:09Z</time>
  <course>195.36</course>
  <speed>0.9726767191621274</speed>
  <fix>3d</fix>
</trkpt>
<trkpt lat="33.810399" lon="-118.393795">
  <ele>-24.43</ele>
  <time>2026-09-01T01:17:09Z</time>
  <course>194.24</course>
  <speed>0.99</speed>
  <fix>3d</fix>
</trkpt>
<trkpt lat="33.8103962" lon="-118.393796">
  <ele>-25.04</ele>
  <time>2026-09-01T01:17:09Z</time>
  <course>195.34</course>
  <speed>0.9726767191621274</speed>
  <fix>3d</fix>
</trkpt>
<trkpt lat="33.8103973" lon="-118.3937956">
  <ele>-24.43</ele>
  <time>2026-09-01T01:17:09Z</time>
  <course>194.24</course>
  <speed>0.99</speed>
  <fix>3d</fix>
</trkpt>
<trkpt lat="33.8103953" lon="-118.3937963">
  <ele>-25.041</ele>
  <time>2026-09-01T01:17:09Z</time>
  <course>195.32</course>
  <speed>0.9726767191621274</speed>
  <fix>3d</fix>
</trkpt>
<trkpt lat="33.8103973" lon="-118.3937956">
  <ele>-24.43</ele>
  <time>2026-09-01T01:17:09Z</time>
  <course>194.24</course>
  <speed>0.99</speed>
  <fix>3d</fix>
</trkpt>
<trkpt lat="33.8103944" lon="-118.3937966">
  <ele>-25.041</ele>
  <time>2026-09-01T01:17:09Z</time>
  <course>195.28</course>
  <speed>0.9726767191621274</speed>
  <fix>3d</fix>
</trkpt>
<trkpt lat="33.8103955" lon="-118.3937961">
  <ele>-24.43</ele>
  <time>2026-09-01T01:17:09Z</time>
  <course>194.2</course>
  <speed>0.99</speed>
  <fix>3d</fix>
</trkpt>
<trkpt lat="33.8103936" lon="-118.3937968">
  <ele>-25.041</ele>
  <time>2026-09-01T01:17:09Z</time>
  <course>195.23</course>
  <speed>0.9726767191621274</speed>
  <fix>3d</fix>
</trkpt>
<trkpt lat="33.8103955" lon="-118.3937961">
  <ele>-24.43</ele>
  <time>2026-09-01T01:17:09Z</time>
  <course>194.2</course>
  <speed>0.99</speed>
  <fix>3d</fix>
</trkpt>
<trkpt lat="33.8103927" lon="-118.3937971">
  <ele>-25.04</ele>
  <time>2026-09-01T01:17:09Z</time>
  <course>195.19</course>
  <speed>0.9726767191621274</speed>
  <fix>3d</fix>
</trkpt>
<trkpt lat="33.8103938" lon="-118.3937966">
  <ele>-24.43</ele>
  <time>2026-09-01T01:17:09Z</time>
  <course>194.16</course>
  <speed>0.99</speed>
  <fix>3d</fix>
</trkpt>
<trkpt lat="33.8103918" lon="-118.3937974">
  <ele>-25.039</ele>
  <time>2026-09-01T01:17:09Z</time>
  <course>195.16</course>
  <speed>0.9726767191621274</speed>
  <fix>3d</fix>
</trkpt>
<trkpt lat="33.8103938" lon="-118.3937966">
  <ele>-24.43</ele>
  <time>2026-09-01T01:17:09Z</time>
  <course>194.16</course>
  <speed>0.99</speed>
  <fix>3d</fix>
</trkpt>
<trkpt lat="33.8103909" lon="-118.3937976">
  <ele>-25.038</ele>
  <time>2026-09-01T01:17:09Z</time>
  <course>195.13</course>
  <speed>0.9726767191621274</speed>
  <fix>3d</fix>
</trkpt>
<trkpt lat="33.810392" lon="-118.3937971">
  <ele>-24.43</ele>
  <time>2026-09-01T01:17:09Z</time>
  <course>194.15</course>
  <speed>0.99</speed>
  <fix>3d</fix>
</trkpt>
<trkpt lat="33.8103901" lon="-118.3937979">
  <ele>-25.038</ele>
  <time>2026-09-01T01:17:09Z</time>
  <course>195.12</course>
  <speed>0.9726767191621274</speed>
  <fix>3d</fix>
</trkpt>
<trkpt lat="33.810392" lon="-118.3937971">
  <ele>-24.43</ele>
  <time>2026-09-01T01:17:09Z</time>
  <course>194.15</course>
  <speed>0.99</speed>
  <fix>3d</fix>
</trkpt>
<trkpt lat="33.8103892" lon="-118.3937982">
  <ele>-25.038</ele>
  <time>2026-09-01T01:17:09Z</time>
  <course>195.11</course>
  <speed>0.9726767191621274</speed>
  <fix>3d</fix>
</trkpt>
<trkpt lat="33.8103903" lon="-118.3937977">
  <ele>-24.43</ele>
  <time>2026-09-01T01:17:09Z</time>
  <course>194.17</course>
  <speed>0.99</speed>
  <fix>3d</fix>
</trkpt>
<trkpt lat="33.8103883" lon="-118.3937984">
  <ele>-25.037</ele>
  <time>2026-09-01T01:17:09Z</time>
  <course>195.11</course>
  <speed>0.9726767191621274</speed>
  <fix>3d</fix>
</trkpt>
<trkpt lat="33.8103903" lon="-118.3937977">
  <ele>-24.43</ele>
  <time>2026-09-01T01:17:09Z</time>
  <course>194.17</course>
  <speed>0.99</speed>
  <fix>3d</fix>
</trkpt>
<trkpt lat="33.8103875" lon="-118.3937987">
  <ele>-25.038</ele>
  <time>2026-09-01T01:17:09Z</time>
  <course>195.09</course>
  <speed>0.9726767191621274</speed>
  <fix>3d</fix>
</trkpt>
<trkpt lat="33.8103885" lon="-118.3937982">
  <ele>-24.43</ele>
  <time>2026-09-01T01:17:09Z</time>
  <course>194.18</course>
  <speed>0.99</speed>
  <fix>3d</fix>
</trkpt>
<trkpt lat="33.8103866" lon="-118.3937989">
  <ele>-25.038</ele>
  <time>2026-09-01T01:17:09Z</time>
  <course>195.08</course>
  <speed>0.9726767191621274</speed>
  <fix>3d</fix>
</trkpt>
<trkpt lat="33.8103885" lon="-118.3937982">
  <ele>-24.43</ele>
  <time>2026-09-01T01:17:09Z</time>
  <course>194.18</course>
  <speed>0.99</speed>
  <fix>3d</fix>
</trkpt>
<trkpt lat="33.8103857" lon="-118.3937992">
  <ele>-25.039</ele>
  <time>2026-09-01T01:17:09Z</time>
  <course>195.06</course>
  <speed>0.9726767191621274</speed>
  <fix>3d</fix>
</trkpt>
<trkpt lat="33.8103868" lon="-118.3937987">
  <ele>-24.43</ele>
  <time>2026-09-01T01:17:09Z</time>
  <course>194.17</course>
  <speed>0.99</speed>
  <fix>3d</fix>
</trkpt>
<trkpt lat="33.8103849" lon="-118.3937995">
  <ele>-25.039</ele>
  <time>2026-09-01T01:17:09Z</time>
  <course>195.06</course>
  <speed>0.9726767191621274</speed>
  <fix>3d</fix>
</trkpt>
<trkpt lat="33.8103868" lon="-118.3937987">
  <ele>-24.43</ele>
  <time>2026-09-01T01:17:09Z</time>
  <course>194.17</course>
  <speed>0.99</speed>
  <fix>3d</fix>
</trkpt>
<trkpt lat="33.810384" lon="-118.3937997">
  <ele>-25.039</ele>
  <time>2026-09-01T01:17:09Z</time>
  <course>195.06</course>
  <speed>0.9726767191621274</speed>
  <fix>3d</fix>
</trkpt>
<trkpt lat="33.8103851" lon="-118.3937993">
  <ele>-24.43</ele>
  <time>2026-09-01T01:17:09Z</time>
  <course>194.18</course>
  <speed>0.99</speed>
  <fix>3d</fix>
</trkpt>
<trkpt lat="33.8103831" lon="-118.3938">
  <ele>-25.04</ele>
  <time>2026-09-01T01:17:09Z</time>
  <course>195.05</course>
  <speed>0.9726767191621274</speed>
  <fix>3d</fix>
</trkpt>
<trkpt lat="33.8103851" lon="-118.3937993">
  <ele>-24.43</ele>
  <time>2026-09-01T01:17:09Z</time>
  <course>194.18</course>
  <speed>0.99</speed>
  <fix>3d</fix>
</trkpt>
<trkpt lat="33.8103822" lon="-118.3938003">
  <ele>-25.04</ele>
  <time>2026-09-01T01:17:09Z</time>
  <course>195.03</course>
  <speed>0.9726767191621274</speed>
  <fix>3d</fix>
</trkpt>
<trkpt lat="33.8103833" lon="-118.3937998">
  <ele>-24.43</ele>
  <time>2026-09-01T01:17:09Z</time>
  <course>194.18</course>
  <speed>0.99</speed>
  <fix>3d</fix>
</trkpt>
<trkpt lat="33.8103814" lon="-118.3938005">
  <ele>-25.04</ele>
  <time>2026-09-01T01:17:09Z</time>
  <course>195.0</course>
  <speed>0.9726767191621274</speed>
  <fix>3d</fix>
</trkpt>
<trkpt lat="33.8103833" lon="-118.3937998">
  <ele>-24.43</ele>
  <time>2026-09-01T01:17:09Z</time>
  <course>194.18</course>
  <speed>0.99</speed>
  <fix>3d</fix>
</trkpt>
<trkpt lat="33.8103805" lon="-118.3938008">
  <ele>-25.039</ele>
  <time>2026-09-01T01:17:09Z</time>
  <course>194.98</course>
  <speed>0.9726767191621274</speed>
  <fix>3d</fix>
</trkpt>
<trkpt lat="33.8103816" lon="-118.3938003">
  <ele>-24.43</ele>
  <time>2026-09-01T01:17:09Z</time>
  <course>194.15</course>
  <speed>0.99</speed>
  <fix>3d</fix>
</trkpt>
<trkpt lat="33.8103796" lon="-118.3938011">
  <ele>-25.038</ele>
  <time>2026-09-01T01:17:09Z</time>
  <course>194.96</course>
  <speed>0.9726767191621274</speed>
  <fix>3d</fix>
</trkpt>
<trkpt lat="33.8103816" lon="-118.3938003">
  <ele>-24.43</ele>
  <time>2026-09-01T01:17:09Z</time>
  <course>194.15</course>
  <speed>0.99</speed>
  <fix>3d</fix>
</trkpt>
<trkpt lat="33.8103787" lon="-118.3938013">
  <ele>-25.037</ele>
  <time>2026-09-01T01:17:09Z</time>
  <course>194.95</course>
  <speed>0.9726767191621274</speed>
  <fix>3d</fix>
</trkpt>
<trkpt lat="33.8103799" lon="-118.3938008">
  <ele>-24.43</ele>
  <time>2026-09-01T01:17:09Z</time>
  <course>194.16</course>
  <speed>0.99</speed>
  <fix>3d</fix>
</trkpt>
<trkpt lat="33.8103779" lon="-118.3938016">
  <ele>-25.038</ele>
  <time>2026-09-01T01:17:09Z</time>
  <course>194.95</course>
  <speed>0.9726767191621274</speed>
  <fix>3d</fix>
</trkpt>
<trkpt lat="33.8103799" lon="-118.3938008">
  <ele>-24.43</ele>
  <time>2026-09-01T01:17:09Z</time>
  <course>194.16</course>
  <speed>0.99</speed>
  <fix>3d</fix>
</trkpt>
<trkpt lat="33.810377" lon="-118.3938018">
  <ele>-25.037</ele>
  <time>2026-09-01T01:17:09Z</time>
  <course>194.95</course>
  <speed>0.9726767191621274</speed>
  <fix>3d</fix>
</trkpt>
<trkpt lat="33.8103782" lon="-118.3938014">
  <ele>-24.43</ele>
  <time>2026-09-01T01:17:09Z</time>
  <course>194.21</course>
  <speed>0.99</speed>
  <fix>3d</fix>
</trkpt>
<trkpt lat="33.8103761" lon="-118.3938021">
  <ele>-25.036</ele>
  <time>2026-09-01T01:17:09Z</time>
  <course>194.94</course>
  <speed>0.9726767191621274</speed>
  <fix>3d</fix>
</trkpt>
<trkpt lat="33.8103782" lon="-118.3938014">
  <ele>-24.43</ele>
  <time>2026-09-01T01:17:09Z</time>
  <course>194.21</course>
  <speed>0.99</speed>
  <fix>3d</fix>
</trkpt>
<trkpt lat="33.8103753" lon="-118.3938024">
  <ele>-25.035</ele>
  <time>2026-09-01T01:17:09Z</time>
  <course>194.92</course>
  <speed>0.9726767191621274</speed>
  <fix>3d</fix>
</trkpt>
<trkpt lat="33.8103764" lon="-118.3938019">
  <ele>-24.43</ele>
  <time>2026-09-01T01:17:09Z</time>
  <course>194.23</course>
  <speed>0.99</speed>
  <fix>3d</fix>
</trkpt>
<trkpt lat="33.8103744" lon="-118.3938026">
  <ele>-25.034</ele>
  <time>2026-09-01T01:17:09Z</time>
  <course>194.89</course>
  <speed>0.9726767191621274</speed>
  <fix>3d</fix>
</trkpt>
<trkpt lat="33.8103764" lon="-118.3938019">
  <ele>-24.43</ele>
  <time>2026-09-01T01:17:09Z</time>
  <course>194.23</course>
  <speed>0.99</speed>
  <fix>3d</fix>
</trkpt>
<trkpt lat="33.8103735" lon="-118.3938029">
  <ele>-25.034</ele>
  <time>2026-09-01T01:17:09Z</time>
  <course>194.86</course>
  <speed>0.9726767191621274</speed>
  <fix>3d</fix>
</trkpt>
<trkpt lat="33.8103747" lon="-118.3938024">
  <ele>-24.43</ele>
  <time>2026-09-01T01:17:09Z</time>
  <course>194.22</course>
  <speed>0.99</speed>
  <fix>3d</fix>
</trkpt>
<trkpt lat="33.8103727" lon="-118.3938032">
  <ele>-25.036</ele>
  <time>2026-09-01T01:17:09Z</time>
  <course>194.84</course>
  <speed>0.9726767191621274</speed>
  <fix>3d</fix>
</trkpt>
<trkpt lat="33.8103747" lon="-118.3938024">
  <ele>-24.43</ele>
  <time>2026-09-01T01:17:09Z</time>
  <course>194.22</course>
  <speed>0.99</speed>
  <fix>3d</fix>
</trkpt>
<trkpt lat="33.8103718" lon="-118.3938034">
  <ele>-25.039</ele>
  <time>2026-09-01T01:17:09Z</time>
  <course>194.82</course>
  <speed>0.982344135219425</speed>
  <fix>3d</fix>
</trkpt>
<trkpt lat="33.810373" lon="-118.393803">
  <ele>-24.44</ele>
  <time>2026-09-01T01:17:09Z</time>
  <course>194.23</course>
  <speed>0.99</speed>
  <fix>3d</fix>
</trkpt>
<trkpt lat="33.8103709" lon="-118.3938037">
  <ele>-25.042</ele>
  <time>2026-09-01T01:17:09Z</time>
  <course>194.8</course>
  <speed>0.982344135219425</speed>
  <fix>3d</fix>
</trkpt>
<trkpt lat="33.810373" lon="-118.393803">
  <ele>-24.44</ele>
  <time>2026-09-01T01:17:09Z</time>
  <course>194.23</course>
  <speed>0.99</speed>
  <fix>3d</fix>
</trkpt>
<trkpt lat="33.8103701" lon="-118.393804">
  <ele>-25.044</ele>
  <time>2026-09-01T01:17:09Z</time>
  <course>194.77</course>
  <speed>0.982344135219425</speed>
  <fix>3d</fix>
</trkpt>
<trkpt lat="33.8103712" lon="-118.3938035">
  <ele>-24.44</ele>
  <time>2026-09-01T01:17:09Z</time>
  <course>194.22</course>
  <speed>0.99</speed>
  <fix>3d</fix>
</trkpt>
<trkpt lat="33.8103692" lon="-118.3938042">
  <ele>-25.045</ele>
  <time>2026-09-01T01:17:09Z</time>
  <course>194.73</course>
  <speed>0.982344135219425</speed>
  <fix>3d</fix>
</trkpt>
<trkpt lat="33.8103712" lon="-118.3938035">
  <ele>-24.44</ele>
  <time>2026-09-01T01:17:09Z</time>
  <course>194.22</course>
  <speed>0.99</speed>
  <fix>3d</fix>
</trkpt>
<trkpt lat="33.8103683" lon="-118.3938045">
  <ele>-25.046</ele>
  <time>2026-09-01T01:17:09Z</time>
  <course>194.7</course>
  <speed>0.982344135219425</speed>
  <fix>3d</fix>
</trkpt>
<trkpt lat="33.8103694" lon="-118.393804">
  <ele>-24.44</ele>
  <time>2026-09-01T01:17:09Z</time>
  <course>194.19</course>
  <speed>0.99</speed>
  <fix>3d</fix>
</trkpt>
<trkpt lat="33.8103674" lon="-118.3938048">
  <ele>-25.046</ele>
  <time>2026-09-01T01:17:09Z</time>
  <course>194.68</course>
  <speed>0.982344135219425</speed>
  <fix>3d</fix>
</trkpt>
<trkpt lat="33.8103694" lon="-118.393804">
  <ele>-24.44</ele>
  <time>2026-09-01T01:17:09Z</time>
  <course>194.19</course>
  <speed>0.99</speed>
  <fix>3d</fix>
</trkpt>
<trkpt lat="33.8103666" lon="-118.393805">
  <ele>-25.045</ele>
  <time>2026-09-01T01:17:09Z</time>
  <course>194.67</course>
  <speed>0.982344135219425</speed>
  <fix>3d</fix>
</trkpt>
<trkpt lat="33.8103677" lon="-118.3938045">
  <ele>-24.44</ele>
  <time>2026-09-01T01:17:09Z</time>
  <course>194.2</course>
  <speed>0.99</speed>
  <fix>3d</fix>
</trkpt>
<trkpt lat="33.8103657" lon="-118.3938053">
  <ele>-25.043</ele>
  <time>2026-09-01T01:17:09Z</time>
  <course>194.67</course>
  <speed>0.982344135219425</speed>
  <fix>3d</fix>
</trkpt>
<trkpt lat="33.8103677" lon="-118.3938045">
  <ele>-24.44</ele>
  <time>2026-09-01T01:17:09Z</time>
  <course>194.2</course>
  <speed>0.99</speed>
  <fix>3d</fix>
</trkpt>
<trkpt lat="33.8103649" lon="-118.3938055">
  <ele>-25.042</ele>
  <time>2026-09-01T01:17:09Z</time>
  <course>194.68</course>
  <speed>0.982344135219425</speed>
  <fix>3d</fix>
</trkpt>
<trkpt lat="33.810366" lon="-118.3938051">
  <ele>-24.44</ele>
  <time>2026-09-01T01:17:09Z</time>
  <course>194.26</course>
  <speed>0.99</speed>
  <fix>3d</fix>
</trkpt>
<trkpt lat="33.810364" lon="-118.3938058">
  <ele>-25.042</ele>
  <time>2026-09-01T01:17:09Z</time>
  <course>194.69</course>
  <speed>0.982344135219425</speed>
  <fix>3d</fix>
</trkpt>
<trkpt lat="33.810366" lon="-118.3938051">
  <ele>-24.44</ele>
  <time>2026-09-01T01:17:09Z</time>
  <course>194.26</course>
  <speed>0.99</speed>
  <fix>3d</fix>
</trkpt>
<trkpt lat="33.8103631" lon="-118.3938061">
  <ele>-25.041</ele>
  <time>2026-09-01T01:17:09Z</time>
  <course>194.68</course>
  <speed>0.982344135219425</speed>
  <fix>3d</fix>
</trkpt>
<trkpt lat="33.8103643" lon="-118.3938056">
  <ele>-24.43</ele>
  <time>2026-09-01T01:17:09Z</time>
  <course>194.29</course>
  <speed>0.99</speed>
  <fix>3d</fix>
</trkpt>
<trkpt lat="33.8103622" lon="-118.3938063">
  <ele>-25.04</ele>
  <time>2026-09-01T01:17:09Z</time>
  <course>194.66</course>
  <speed>0.982344135219425</speed>
  <fix>3d</fix>
</trkpt>
<trkpt lat="33.8103643" lon="-118.3938056">
  <ele>-24.43</ele>
  <time>2026-09-01T01:17:09Z</time>
  <course>194.29</course>
  <speed>0.99</speed>
  <fix>3d</fix>
</trkpt>
<trkpt lat="33.8103614" lon="-118.3938066">
  <ele>-25.038</ele>
  <time>2026-09-01T01:17:09Z</time>
  <course>194.64</course>
  <speed>0.982344135219425</speed>
  <fix>3d</fix>
</trkpt>
<trkpt lat="33.8103625" lon="-118.3938061">
  <ele>-24.43</ele>
  <time>2026-09-01T01:17:09Z</time>
  <course>194.28</course>
  <speed>1.0</speed>
  <fix>3d</fix>
</trkpt>
<trkpt lat="33.8103605" lon="-118.3938069">
  <ele>-25.037</ele>
  <time>2026-09-01T01:17:09Z</time>
  <course>194.63</course>
  <speed>0.982344135219425</speed>
  <fix>3d</fix>
</trkpt>
<trkpt lat="33.8103625" lon="-118.3938061">
  <ele>-24.43</ele>
  <time>2026-09-01T01:17:09Z</time>
  <course>194.28</course>
  <speed>1.0</speed>
  <fix>3d</fix>
</trkpt>
<trkpt lat="33.8103596" lon="-118.3938071">
  <ele>-25.036</ele>
  <time>2026-09-01T01:17:09Z</time>
  <course>194.62</course>
  <speed>0.982344135219425</speed>
  <fix>3d</fix>
</trkpt>
<trkpt lat="33.8103608" lon="-118.3938067">
  <ele>-24.42</ele>
  <time>2026-09-01T01:17:09Z</time>
  <course>194.29</course>
  <speed>1.0</speed>
  <fix>3d</fix>
</trkpt>
<trkpt lat="33.8103588" lon="-118.3938074">
  <ele>-25.036</ele>
  <time>2026-09-01T01:17:09Z</time>
  <course>194.6</course>
  <speed>0.982344135219425</speed>
  <fix>3d</fix>
</trkpt>
<trkpt lat="33.8103608" lon="-118.3938067">
  <ele>-24.42</ele>
  <time>2026-09-01T01:17:09Z</time>
  <course>194.29</course>
  <speed>1.0</speed>
  <fix>3d</fix>
</trkpt>
<trkpt lat="33.8103579" lon="-118.3938076">
  <ele>-25.037</ele>
  <time>2026-09-01T01:17:09Z</time>
  <course>194.58</course>
  <speed>0.982344135219425</speed>
  <fix>3d</fix>
</trkpt>
<trkpt lat="33.810359" lon="-118.3938072">
  <ele>-24.42</ele>
  <time>2026-09-01T01:17:09Z</time>
  <course>194.3</course>
  <speed>1.0</speed>
  <fix>3d</fix>
</trkpt>
<trkpt lat="33.810357" lon="-118.3938079">
  <ele>-25.038</ele>
  <time>2026-09-01T01:17:09Z</time>
  <course>194.55</course>
  <speed>0.982344135219425</speed>
  <fix>3d</fix>
</trkpt>
<trkpt lat="33.810359" lon="-118.3938072">
  <ele>-24.42</ele>
  <time>2026-09-01T01:17:09Z</time>
  <course>194.3</course>
  <speed>1.0</speed>
  <fix>3d</fix>
</trkpt>
<trkpt lat="33.8103561" lon="-118.3938082">
  <ele>-25.038</ele>
  <time>2026-09-01T01:17:09Z</time>
  <course>194.53</course>
  <speed>0.982344135219425</speed>
  <fix>3d</fix>
</trkpt>
<trkpt lat="33.8103572" lon="-118.3938077">
  <ele>-24.42</ele>
  <time>2026-09-01T01:17:09Z</time>
  <course>194.28</course>
  <speed>1.0</speed>
  <fix>3d</fix>
</trkpt>
<trkpt lat="33.8103553" lon="-118.3938084">
  <ele>-25.038</ele>
  <time>2026-09-01T01:17:09Z</time>
  <course>194.52</course>
  <speed>0.982344135219425</speed>
  <fix>3d</fix>
</trkpt>
<trkpt lat="33.8103572" lon="-118.3938077">
  <ele>-24.42</ele>
  <time>2026-09-01T01:17:09Z</time>
  <course>194.28</course>
  <speed>1.0</speed>
  <fix>3d</fix>
</trkpt>
<trkpt lat="33.8103544" lon="-118.3938087">
  <ele>-25.038</ele>
  <time>2026-09-01T01:17:09Z</time>
  <course>194.51</course>
  <speed>0.982344135219425</speed>
  <fix>3d</fix>
</trkpt>
<trkpt lat="33.8103555" lon="-118.3938083">
  <ele>-24.42</ele>
  <time>2026-09-01T01:17:09Z</time>
  <course>194.3</course>
  <speed>1.0</speed>
  <fix>3d</fix>
</trkpt>
<trkpt lat="33.8103535" lon="-118.393809">
  <ele>-25.036</ele>
  <time>2026-09-01T01:17:09Z</time>
  <course>194.51</course>
  <speed>0.982344135219425</speed>
  <fix>3d</fix>
</trkpt>
<trkpt lat="33.8103555" lon="-118.3938083">
  <ele>-24.42</ele>
  <time>2026-09-01T01:17:09Z</time>
  <course>194.3</course>
  <speed>1.0</speed>
  <fix>3d</fix>
</trkpt>
<trkpt lat="33.8103527" lon="-118.3938092">
  <ele>-25.035</ele>
  <time>2026-09-01T01:17:09Z</time>
  <course>194.5</course>
  <speed>0.982344135219425</speed>
  <fix>3d</fix>
</trkpt>
<trkpt lat="33.8103538" lon="-118.3938088">
  <ele>-24.42</ele>
  <time>2026-09-01T01:17:09Z</time>
  <course>194.33</course>
  <speed>1.0</speed>
  <fix>3d</fix>
</trkpt>
<trkpt lat="33.8103518" lon="-118.3938095">
  <ele>-25.034</ele>
  <time>2026-09-01T01:17:09Z</time>
  <course>194.48</course>
  <speed>0.982344135219425</speed>
  <fix>3d</fix>
</trkpt>
<trkpt lat="33.8103538" lon="-118.3938088">
  <ele>-24.42</ele>
  <time>2026-09-01T01:17:09Z</time>
  <course>194.33</course>
  <speed>1.0</speed>
  <fix>3d</fix>
</trkpt>
<trkpt lat="33.8103509" lon="-118.3938098">
  <ele>-25.032</ele>
  <time>2026-09-01T01:17:09Z</time>
  <course>194.46</course>
  <speed>0.982344135219425</speed>
  <fix>3d</fix>
</trkpt>
<trkpt lat="33.8103521" lon="-118.3938094">
  <ele>-24.42</ele>
  <time>2026-09-01T01:17:09Z</time>
  <course>194.31</course>
  <speed>1.0</speed>
  <fix>3d</fix>
</trkpt>
<trkpt lat="33.81035" lon="-118.39381">
  <ele>-25.031</ele>
  <time>2026-09-01T01:17:09Z</time>
  <course>194.43</course>
  <speed>0.982344135219425</speed>
  <fix>3d</fix>
</trkpt>
<trkpt lat="33.8103521" lon="-118.3938094">
  <ele>-24.42</ele>
  <time>2026-09-01T01:17:09Z</time>
  <course>194.31</course>
  <speed>1.0</speed>
  <fix>3d</fix>
</trkpt>
<trkpt lat="33.8103492" lon="-118.3938103">
  <ele>-25.03</ele>
  <time>2026-09-01T01:17:09Z</time>
  <course>194.39</course>
  <speed>0.982344135219425</speed>
  <fix>3d</fix>
</trkpt>
<trkpt lat="33.8103503" lon="-118.3938099">
  <ele>-24.42</ele>
  <time>2026-09-01T01:17:09Z</time>
  <course>194.26</course>
  <speed>1.0</speed>
  <fix>3d</fix>
</trkpt>
<trkpt lat="33.8103483" lon="-118.3938106">
  <ele>-25.031</ele>
  <time>2026-09-01T01:17:09Z</time>
  <course>194.34</course>
  <speed>0.982344135219425</speed>
  <fix>3d</fix>
</trkpt>
<trkpt lat="33.8103503" lon="-118.3938099">
  <ele>-24.42</ele>
  <time>2026-09-01T01:17:09Z</time>
  <course>194.26</course>
  <speed>1.0</speed>
  <fix>3d</fix>
</trkpt>
<trkpt lat="33.8103474" lon="-118.3938108">
  <ele>-25.033</ele>
  <time>2026-09-01T01:17:09Z</time>
  <course>194.3</course>
  <speed>0.982344135219425</speed>
  <fix>3d</fix>
</trkpt>
<trkpt lat="33.8103486" lon="-118.3938104">
  <ele>-24.42</ele>
  <time>2026-09-01T01:17:09Z</time>
  <course>194.22</course>
  <speed>1.0</speed>
  <fix>3d</fix>
</trkpt>
<trkpt lat="33.8103466" lon="-118.3938111">
  <ele>-25.036</ele>
  <time>2026-09-01T01:17:09Z</time>
  <course>194.26</course>
  <speed>0.982344135219425</speed>
  <fix>3d</fix>
</trkpt>
<trkpt lat="33.8103486" lon="-118.3938104">
  <ele>-24.42</ele>
  <time>2026-09-01T01:17:09Z</time>
  <course>194.22</course>
  <speed>1.0</speed>
  <fix>3d</fix>
</trkpt>
<trkpt lat="33.8103457" lon="-118.3938113">
  <ele>-25.038</ele>
  <time>2026-09-01T01:17:09Z</time>
  <course>194.23</course>
  <speed>0.982344135219425</speed>
  <fix>3d</fix>
</trkpt>
<trkpt lat="33.8103468" lon="-118.3938109">
  <ele>-24.42</ele>
  <time>2026-09-01T01:17:09Z</time>
  <course>194.2</course>
  <speed>1.0</speed>
  <fix>3d</fix>
</trkpt>
<trkpt lat="33.8103448" lon="-118.3938116">
  <ele>-25.039</ele>
  <time>2026-09-01T01:17:09Z</time>
  <course>194.22</course>
  <speed>0.982344135219425</speed>
  <fix>3d</fix>
</trkpt>
<trkpt lat="33.8103468" lon="-118.3938109">
  <ele>-24.42</ele>
  <time>2026-09-01T01:17:09Z</time>
  <course>194.2</course>
  <speed>1.0</speed>
  <fix>3d</fix>
</trkpt>
<trkpt lat="33.8103439" lon="-118.3938119">
  <ele>-25.039</ele>
  <time>2026-09-01T01:17:09Z</time>
  <course>194.22</course>
  <speed>0.982344135219425</speed>
  <fix>3d</fix>
</trkpt>
<trkpt lat="33.810345" lon="-118.3938115">
  <ele>-24.43</ele>
  <time>2026-09-01T01:17:09Z</time>
  <course>194.22</course>
  <speed>1.0</speed>
  <fix>3d</fix>
</trkpt>
<trkpt lat="33.8103431" lon="-118.3938121">
  <ele>-25.038</ele>
  <time>2026-09-01T01:17:09Z</time>
  <course>194.22</course>
  <speed>0.982344135219425</speed>
  <fix>3d</fix>
</trkpt>
<trkpt lat="33.810345" lon="-118.3938115">
  <ele>-24.43</ele>
  <time>2026-09-01T01:17:09Z</time>
  <course>194.22</course>
  <speed>1.0</speed>
  <fix>3d</fix>
</trkpt>
<trkpt lat="33.8103422" lon="-118.3938124">
  <ele>-25.036</ele>
  <time>2026-09-01T01:17:09Z</time>
  <course>194.22</course>
  <speed>0.9798469268207153</speed>
  <fix>3d</fix>
</trkpt>
<trkpt lat="33.8103433" lon="-118.393812">
  <ele>-24.43</ele>
  <time>2026-09-01T01:17:09Z</time>
  <course>194.26</course>
  <speed>1.0</speed>
  <fix>3d</fix>
</trkpt>
<trkpt lat="33.8103413" lon="-118.3938127">
  <ele>-25.036</ele>
  <time>2026-09-01T01:17:09Z</time>
  <course>194.21</course>
  <speed>0.9798469268207153</speed>
  <fix>3d</fix>
</trkpt>
<trkpt lat="33.8103433" lon="-118.393812">
  <ele>-24.43</ele>
  <time>2026-09-01T01:17:09Z</time>
  <course>194.26</course>
  <speed>1.0</speed>
  <fix>3d</fix>
</trkpt>
<trkpt lat="33.8103405" lon="-118.3938129">
  <ele>-25.035</ele>
  <time>2026-09-01T01:17:09Z</time>
  <course>194.2</course>
  <speed>0.9798469268207153</speed>
  <fix>3d</fix>
</trkpt>
<trkpt lat="33.8103416" lon="-118.3938125">
  <ele>-24.43</ele>
  <time>2026-09-01T01:17:09Z</time>
  <course>194.27</course>
  <speed>0.99</speed>
  <fix>3d</fix>
</trkpt>
<trkpt lat="33.8103396" lon="-118.3938132">
  <ele>-25.035</ele>
  <time>2026-09-01T01:17:09Z</time>
  <course>194.19</course>
  <speed>0.9798469268207153</speed>
  <fix>3d</fix>
</trkpt>
<trkpt lat="33.8103416" lon="-118.3938125">
  <ele>-24.43</ele>
  <time>2026-09-01T01:17:09Z</time>
  <course>194.27</course>
  <speed>0.99</speed>
  <fix>3d</fix>
</trkpt>
<trkpt lat="33.8103387" lon="-118.3938135">
  <ele>-25.035</ele>
  <time>2026-09-01T01:17:09Z</time>
  <course>194.19</course>
  <speed>0.9798469268207153</speed>
  <fix>3d</fix>
</trkpt>
<trkpt lat="33.8103399" lon="-118.3938131">
  <ele>-24.43</ele>
  <time>2026-09-01T01:17:09Z</time>
  <course>194.29</course>
  <speed>0.99</speed>
  <fix>3d</fix>
</trkpt>
<trkpt lat="33.8103378" lon="-118.3938137">
  <ele>-25.037</ele>
  <time>2026-09-01T01:17:09Z</time>
  <course>194.18</course>
  <speed>0.9798469268207153</speed>
  <fix>3d</fix>
</trkpt>
<trkpt lat="33.8103399" lon="-118.3938131">
  <ele>-24.43</ele>
  <time>2026-09-01T01:17:09Z</time>
  <course>194.29</course>
  <speed>0.99</speed>
  <fix>3d</fix>
</trkpt>
<trkpt lat="33.810337" lon="-118.393814">
  <ele>-25.039</ele>
  <time>2026-09-01T01:17:09Z</time>
  <course>194.16</course>
  <speed>0.9798469268207153</speed>
  <fix>3d</fix>
</trkpt>
<trkpt lat="33.8103381" lon="-118.3938136">
  <ele>-24.43</ele>
  <time>2026-09-01T01:17:09Z</time>
  <course>194.28</course>
  <speed>0.99</speed>
  <fix>3d</fix>
</trkpt>
<trkpt lat="33.8103361" lon="-118.3938143">
  <ele>-25.04</ele>
  <time>2026-09-01T01:17:09Z</time>
  <course>194.12</course>
  <speed>0.9798469268207153</speed>
  <fix>3d</fix>
</trkpt>
<trkpt lat="33.8103381" lon="-118.3938136">
  <ele>-24.43</ele>
  <time>2026-09-01T01:17:09Z</time>
  <course>194.28</course>
  <speed>0.99</speed>
  <fix>3d</fix>
</trkpt>
<trkpt lat="33.8103352" lon="-118.3938145">
  <ele>-25.04</ele>
  <time>2026-09-01T01:17:09Z</time>
  <course>194.1</course>
  <speed>0.9798469268207153</speed>
  <fix>3d</fix>
</trkpt>
<trkpt lat="33.8103364" lon="-118.3938141">
  <ele>-24.43</ele>
  <time>2026-09-01T01:17:09Z</time>
  <course>194.26</course>
  <speed>0.99</speed>
  <fix>3d</fix>
</trkpt>
<trkpt lat="33.8103344" lon="-118.3938148">
  <ele>-25.04</ele>
  <time>2026-09-01T01:17:09Z</time>
  <course>194.07</course>
  <speed>0.9798469268207153</speed>
  <fix>3d</fix>
</trkpt>
<trkpt lat="33.8103364" lon="-118.3938141">
  <ele>-24.43</ele>
  <time>2026-09-01T01:17:09Z</time>
  <course>194.26</course>
  <speed>0.99</speed>
  <fix>3d</fix>
</trkpt>
<trkpt lat="33.8103335" lon="-118.393815">
  <ele>-25.038</ele>
  <time>2026-09-01T01:17:09Z</time>
  <course>194.06</course>
  <speed>0.9798469268207153</speed>
  <fix>3d</fix>
</trkpt>
<trkpt lat="33.8103346" lon="-118.3938147">
  <ele>-24.43</ele>
  <time>2026-09-01T01:17:09Z</time>
  <course>194.25</course>
  <speed>0.99</speed>
  <fix>3d</fix>
</trkpt>
<trkpt lat="33.8103326" lon="-118.3938153">
  <ele>-25.037</ele>
  <time>2026-09-01T01:17:09Z</time>
  <course>194.05</course>
  <speed>0.9798469268207153</speed>
  <fix>3d</fix>
</trkpt>
<trkpt lat="33.8103346" lon="-118.3938147">
  <ele>-24.43</ele>
  <time>2026-09-01T01:17:09Z</time>
  <course>194.25</course>
  <speed>0.99</speed>
  <fix>3d</fix>
</trkpt>
<trkpt lat="33.8103317" lon="-118.3938156">
  <ele>-25.036</ele>
  <time>2026-09-01T01:17:09Z</time>
  <course>194.03</course>
  <speed>0.9798469268207153</speed>
  <fix>3d</fix>
</trkpt>
<trkpt lat="33.8103329" lon="-118.3938152">
  <ele>-24.43</ele>
  <time>2026-09-01T01:17:09Z</time>
  <course>194.25</course>
  <speed>0.99</speed>
  <fix>3d</fix>
</trkpt>
<trkpt lat="33.8103309" lon="-118.3938158">
  <ele>-25.035</ele>
  <time>2026-09-01T01:17:09Z</time>
  <course>194.01</course>
  <speed>0.9895453501482385</speed>
  <fix>3d</fix>
</trkpt>
<trkpt lat="33.8103329" lon="-118.3938152">
  <ele>-24.43</ele>
  <time>2026-09-01T01:17:09Z</time>
  <course>194.25</course>
  <speed>0.99</speed>
  <fix>3d</fix>
</trkpt>
<trkpt lat="33.81033" lon="-118.3938161">
  <ele>-25.036</ele>
  <time>2026-09-01T01:17:09Z</time>
  <course>193.99</course>
  <speed>0.9895453501482385</speed>
  <fix>3d</fix>
</trkpt>
<trkpt lat="33.8103311" lon="-118.3938157">
  <ele>-24.43</ele>
  <time>2026-09-01T01:17:09Z</time>
  <course>194.24</course>
  <speed>0.99</speed>
  <fix>3d</fix>
</trkpt>
<trkpt lat="33.8103291" lon="-118.3938164">
  <ele>-25.036</ele>
  <time>2026-09-01T01:17:09Z</time>
  <course>193.97</course>
  <speed>0.9798469268207153</speed>
  <fix>3d</fix>
</trkpt>
<trkpt lat="33.8103311" lon="-118.3938157">
  <ele>-24.43</ele>
  <time>2026-09-01T01:17:09Z</time>
  <course>194.24</course>
  <speed>0.99</speed>
  <fix>3d</fix>
</trkpt>
<trkpt lat="33.8103283" lon="-118.3938166">
  <ele>-25.037</ele>
  <time>2026-09-01T01:17:09Z</time>
  <course>193.97</course>
  <speed>0.9798469268207153</speed>
  <fix>3d</fix>
</trkpt>
<trkpt lat="33.8103294" lon="-118.3938163">
  <ele>-24.43</ele>
  <time>2026-09-01T01:17:09Z</time>
  <course>194.24</course>
  <speed>0.99</speed>
  <fix>3d</fix>
</trkpt>
<trkpt lat="33.8103274" lon="-118.3938169">
  <ele>-25.038</ele>
  <time>2026-09-01T01:17:09Z</time>
  <course>193.96</course>
  <speed>0.9798469268207153</speed>
  <fix>3d</fix>
</trkpt>
<trkpt lat="33.8103294" lon="-118.3938163">
  <ele>-24.43</ele>
  <time>2026-09-01T01:17:09Z</time>
  <course>194.24</course>
  <speed>0.99</speed>
  <fix>3d</fix>
</trkpt>
<trkpt lat="33.8103265" lon="-118.3938172">
  <ele>-25.039</ele>
  <time>2026-09-01T01:17:09Z</time>
  <course>193.94</course>
  <speed>0.9798469268207153</speed>
  <fix>3d</fix>
</trkpt>
<trkpt lat="33.8103277" lon="-118.3938168">
  <ele>-24.43</ele>
  <time>2026-09-01T01:17:09Z</time>
  <course>194.25</course>
  <speed>0.99</speed>
  <fix>3d</fix>
</trkpt>
<trkpt lat="33.8103256" lon="-118.3938174">
  <ele>-25.04</ele>
  <time>2026-09-01T01:17:09Z</time>
  <course>193.92</course>
  <speed>0.9895453501482385</speed>
  <fix>3d</fix>
</trkpt>
<trkpt lat="33.8103277" lon="-118.3938168">
  <ele>-24.43</ele>
  <time>2026-09-01T01:17:09Z</time>
  <course>194.25</course>
  <speed>0.99</speed>
  <fix>3d</fix>
</trkpt>
<trkpt lat="33.8103248" lon="-118.3938177">
  <ele>-25.04</ele>
  <time>2026-09-01T01:17:09Z</time>
  <course>193.9</course>
  <speed>0.9895453501482385</speed>
  <fix>3d</fix>
</trkpt>
<trkpt lat="33.810326" lon="-118.3938173">
  <ele>-24.43</ele>
  <time>2026-09-01T01:17:09Z</time>
  <course>194.23</course>
  <speed>0.99</speed>
  <fix>3d</fix>
</trkpt>
<trkpt lat="33.8103239" lon="-118.3938179">
  <ele>-25.039</ele>
  <time>2026-09-01T01:17:09Z</time>
  <course>193.87</course>
  <speed>0.9895453501482385</speed>
  <fix>3d</fix>
</trkpt>
<trkpt lat="33.810326" lon="-118.3938173">
  <ele>-24.43</ele>
  <time>2026-09-01T01:17:09Z</time>
  <course>194.23</course>
  <speed>0.99</speed>
  <fix>3d</fix>
</trkpt>
<trkpt lat="33.810323" lon="-118.3938182">
  <ele>-25.038</ele>
  <time>2026-09-01T01:17:09Z</time>
  <course>193.86</course>
  <speed>0.9895453501482385</speed>
  <fix>3d</fix>
</trkpt>
<trkpt lat="33.8103242" lon="-118.3938178">
  <ele>-24.43</ele>
  <time>2026-09-01T01:17:09Z</time>
  <course>194.22</course>
  <speed>0.99</speed>
  <fix>3d</fix>
</trkpt>
<trkpt lat="33.8103222" lon="-118.3938185">
  <ele>-25.038</ele>
  <time>2026-09-01T01:17:09Z</time>
  <course>193.84</course>
  <speed>0.9895453501482385</speed>
  <fix>3d</fix>
</trkpt>
<trkpt lat="33.8103242" lon="-118.3938178">
  <ele>-24.43</ele>
  <time>2026-09-01T01:17:09Z</time>
  <course>194.22</course>
  <speed>0.99</speed>
  <fix>3d</fix>
</trkpt>
<trkpt lat="33.8103213" lon="-118.3938187">
  <ele>-25.037</ele>
  <time>2026-09-01T01:17:09Z</time>
  <course>193.84</course>
  <speed>0.9895453501482385</speed>
  <fix>3d</fix>
</trkpt>
<trkpt lat="33.8103225" lon="-118.3938184">
  <ele>-24.43</ele>
  <time>2026-09-01T01:17:09Z</time>
  <course>194.24</course>
  <speed>0.99</speed>
  <fix>3d</fix>
</trkpt>
<trkpt lat="33.8103204" lon="-118.393819">
  <ele>-25.036</ele>
  <time>2026-09-01T01:17:09Z</time>
  <course>193.84</course>
  <speed>0.9895453501482385</speed>
  <fix>3d</fix>
</trkpt>
<trkpt lat="33.8103225" lon="-118.3938184">
  <ele>-24.43</ele>
  <time>2026-09-01T01:17:09Z</time>
  <course>194.24</course>
  <speed>0.99</speed>
  <fix>3d</fix>
</trkpt>
<trkpt lat="33.8103196" lon="-118.3938193">
  <ele>-25.036</ele>
  <time>2026-09-01T01:17:09Z</time>
  <course>193.83</course>
  <speed>0.9895453501482385</speed>
  <fix>3d</fix>
</trkpt>
<trkpt lat="33.8103208" lon="-118.3938189">
  <ele>-24.43</ele>
  <time>2026-09-01T01:17:09Z</time>
  <course>194.26</course>
  <speed>0.99</speed>
  <fix>3d</fix>
</trkpt>
<trkpt lat="33.8103187" lon="-118.3938195">
  <ele>-25.036</ele>
  <time>2026-09-01T01:17:09Z</time>
  <course>193.81</course>
  <speed>0.9895453501482385</speed>
  <fix>3d</fix>
</trkpt>
<trkpt lat="33.8103208" lon="-118.3938189">
  <ele>-24.43</ele>
  <time>2026-09-01T01:17:09Z</time>
  <course>194.26</course>
  <speed>0.99</speed>
  <fix>3d</fix>
</trkpt>
<trkpt lat="33.8103178" lon="-118.3938198">
  <ele>-25.037</ele>
  <time>2026-09-01T01:17:09Z</time>
  <course>193.79</course>
  <speed>0.9895453501482385</speed>
  <fix>3d</fix>
</trkpt>
<trkpt lat="33.810319" lon="-118.3938194">
  <ele>-24.43</ele>
  <time>2026-09-01T01:17:09Z</time>
  <course>194.23</course>
  <speed>0.99</speed>
  <fix>3d</fix>
</trkpt>
<trkpt lat="33.8103169" lon="-118.3938201">
  <ele>-25.036</ele>
  <time>2026-09-01T01:17:09Z</time>
  <course>193.77</course>
  <speed>0.9895453501482385</speed>
  <fix>3d</fix>
</trkpt>
<trkpt lat="33.810319" lon="-118.3938194">
  <ele>-24.43</ele>
  <time>2026-09-01T01:17:09Z</time>
  <course>194.23</course>
  <speed>0.99</speed>
  <fix>3d</fix>
</trkpt>
<trkpt lat="33.8103161" lon="-118.3938203">
  <ele>-25.035</ele>
  <time>2026-09-01T01:17:09Z</time>
  <course>193.77</course>
  <speed>0.9895453501482385</speed>
  <fix>3d</fix>
</trkpt>
<trkpt lat="33.8103173" lon="-118.39382">
  <ele>-24.43</ele>
  <time>2026-09-01T01:17:09Z</time>
  <course>194.23</course>
  <speed>0.99</speed>
  <fix>3d</fix>
</trkpt>
<trkpt lat="33.8103152" lon="-118.3938206">
  <ele>-25.034</ele>
  <time>2026-09-01T01:17:09Z</time>
  <course>193.75</course>
  <speed>0.9895453501482385</speed>
  <fix>3d</fix>
</trkpt>
<trkpt lat="33.8103173" lon="-118.39382">
  <ele>-24.43</ele>
  <time>2026-09-01T01:17:09Z</time>
  <course>194.23</course>
  <speed>0.99</speed>
  <fix>3d</fix>
</trkpt>
<trkpt lat="33.8103143" lon="-118.3938208">
  <ele>-25.033</ele>
  <time>2026-09-01T01:17:09Z</time>
  <course>193.73</course>
  <speed>0.9895453501482385</speed>
  <fix>3d</fix>
</trkpt>
<trkpt lat="33.8103155" lon="-118.3938205">
  <ele>-24.43</ele>
  <time>2026-09-01T01:17:09Z</time>
  <course>194.22</course>
  <speed>0.99</speed>
  <fix>3d</fix>
</trkpt>
<trkpt lat="33.8103135" lon="-118.3938211">
  <ele>-25.032</ele>
  <time>2026-09-01T01:17:09Z</time>
  <course>193.71</course>
  <speed>0.9895453501482385</speed>
  <fix>3d</fix>
</trkpt>
<trkpt lat="33.8103155" lon="-118.3938205">
  <ele>-24.43</ele>
  <time>2026-09-01T01:17:09Z</time>
  <course>194.22</course>
  <speed>0.99</speed>
  <fix>3d</fix>
</trkpt>
<trkpt lat="33.8103126" lon="-118.3938214">
  <ele>-25.032</ele>
  <time>2026-09-01T01:17:09Z</time>
  <course>193.69</course>
  <speed>0.9895453501482385</speed>
  <fix>3d</fix>
</trkpt>
<trkpt lat="33.8103138" lon="-118.393821">
  <ele>-24.43</ele>
  <time>2026-09-01T01:17:09Z</time>
  <course>194.2</course>
  <speed>0.99</speed>
  <fix>3d</fix>
</trkpt>
<trkpt lat="33.8103117" lon="-118.3938216">
  <ele>-25.033</ele>
  <time>2026-09-01T01:17:09Z</time>
  <course>193.68</course>
  <speed>0.9895453501482385</speed>
  <fix>3d</fix>
</trkpt>
<trkpt lat="33.8103138" lon="-118.393821">
  <ele>-24.43</ele>
  <time>2026-09-01T01:17:09Z</time>
  <course>194.2</course>
  <speed>0.99</speed>
  <fix>3d</fix>
</trkpt>
<trkpt lat="33.8103109" lon="-118.3938219">
  <ele>-25.034</ele>
  <time>2026-09-01T01:17:09Z</time>
  <course>193.67</course>
  <speed>0.9895453501482385</speed>
  <fix>3d</fix>
</trkpt>
<trkpt lat="33.8103121" lon="-118.3938216">
  <ele>-24.43</ele>
  <time>2026-09-01T01:17:09Z</time>
  <course>194.2</course>
  <speed>0.99</speed>
  <fix>3d</fix>
</trkpt>
<trkpt lat="33.81031" lon="-118.3938222">
  <ele>-25.035</ele>
  <time>2026-09-01T01:17:09Z</time>
  <course>193.66</course>
  <speed>0.9895453501482385</speed>
  <fix>3d</fix>
</trkpt>
<trkpt lat="33.8103121" lon="-118.3938216">
  <ele>-24.43</ele>
  <time>2026-09-01T01:17:09Z</time>
  <course>194.2</course>
  <speed>0.99</speed>
  <fix>3d</fix>
</trkpt>
<trkpt lat="33.8103091" lon="-118.3938224">
  <ele>-25.036</ele>
  <time>2026-09-01T01:17:09Z</time>
  <course>193.64</course>
  <speed>0.9895453501482385</speed>
  <fix>3d</fix>
</trkpt>
<trkpt lat="33.8103103" lon="-118.3938221">
  <ele>-24.43</ele>
  <time>2026-09-01T01:17:09Z</time>
  <course>194.18</course>
  <speed>0.99</speed>
  <fix>3d</fix>
</trkpt>
<trkpt lat="33.8103082" lon="-118.3938227">
  <ele>-25.037</ele>
  <time>2026-09-01T01:17:09Z</time>
  <course>193.61</course>
  <speed>0.9895453501482385</speed>
  <fix>3d</fix>
</trkpt>
<trkpt lat="33.8103103" lon="-118.3938221">
  <ele>-24.43</ele>
  <time>2026-09-01T01:17:09Z</time>
  <course>194.18</course>
  <speed>0.99</speed>
  <fix>3d</fix>
</trkpt>
<trkpt lat="33.8103074" lon="-118.393823">
  <ele>-25.036</ele>
  <time>2026-09-01T01:17:09Z</time>
  <course>193.59</course>
  <speed>0.9895453501482385</speed>
  <fix>3d</fix>
</trkpt>
<trkpt lat="33.8103086" lon="-118.3938226">
  <ele>-24.43</ele>
  <time>2026-09-01T01:17:09Z</time>
  <course>194.14</course>
  <speed>0.99</speed>
  <fix>3d</fix>
</trkpt>
<trkpt lat="33.8103065" lon="-118.3938232">
  <ele>-25.036</ele>
  <time>2026-09-01T01:17:09Z</time>
  <course>193.58</course>
  <speed>0.9895453501482385</speed>
  <fix>3d</fix>
</trkpt>
<trkpt lat="33.8103086" lon="-118.3938226">
  <ele>-24.43</ele>
  <time>2026-09-01T01:17:10Z</time>
  <course>194.14</course>
  <speed>0.99</speed>
  <fix>3d</fix>
</trkpt>
<trkpt lat="33.8103056" lon="-118.3938235">
  <ele>-25.037</ele>
  <time>2026-09-01T01:17:10Z</time>
  <course>193.58</course>
  <speed>0.9895453501482385</speed>
  <fix>3d</fix>
</trkpt>
<trkpt lat="33.8103069" lon="-118.3938231">
  <ele>-24.43</ele>
  <time>2026-09-01T01:17:10Z</time>
  <course>194.13</course>
  <speed>0.99</speed>
  <fix>3d</fix>
</trkpt>
<trkpt lat="33.8103048" lon="-118.3938237">
  <ele>-25.037</ele>
  <time>2026-09-01T01:17:10Z</time>
  <course>193.58</course>
  <speed>0.9895453501482385</speed>
  <fix>3d</fix>
</trkpt>
<trkpt lat="33.8103069" lon="-118.3938231">
  <ele>-24.43</ele>
  <time>2026-09-01T01:17:10Z</time>
  <course>194.13</course>
  <speed>0.99</speed>
  <fix>3d</fix>
</trkpt>
<trkpt lat="33.8103039" lon="-118.393824">
  <ele>-25.037</ele>
  <time>2026-09-01T01:17:10Z</time>
  <course>193.59</course>
  <speed>0.9895453501482385</speed>
  <fix>3d</fix>
</trkpt>
<trkpt lat="33.8103051" lon="-118.3938236">
  <ele>-24.43</ele>
  <time>2026-09-01T01:17:10Z</time>
  <course>194.16</course>
  <speed>0.99</speed>
  <fix>3d</fix>
</trkpt>
<trkpt lat="33.810303" lon="-118.3938243">
  <ele>-25.037</ele>
  <time>2026-09-01T01:17:10Z</time>
  <course>193.6</course>
  <speed>0.9895453501482385</speed>
  <fix>3d</fix>
</trkpt>
<trkpt lat="33.8103051" lon="-118.3938236">
  <ele>-24.43</ele>
  <time>2026-09-01T01:17:10Z</time>
  <course>194.16</course>
  <speed>0.99</speed>
  <fix>3d</fix>
</trkpt>
<trkpt lat="33.8103021" lon="-118.3938245">
  <ele>-25.037</ele>
  <time>2026-09-01T01:17:10Z</time>
  <course>193.62</course>
  <speed>0.9895453501482385</speed>
  <fix>3d</fix>
</trkpt>
<trkpt lat="33.8103034" lon="-118.3938242">
  <ele>-24.44</ele>
  <time>2026-09-01T01:17:10Z</time>
  <course>194.24</course>
  <speed>0.99</speed>
  <fix>3d</fix>
</trkpt>
<trkpt lat="33.8103013" lon="-118.3938248">
  <ele>-25.036</ele>
  <time>2026-09-01T01:17:10Z</time>
  <course>193.64</course>
  <speed>0.9895453501482385</speed>
  <fix>3d</fix>
</trkpt>
<trkpt lat="33.8103034" lon="-118.3938242">
  <ele>-24.44</ele>
  <time>2026-09-01T01:17:10Z</time>
  <course>194.24</course>
  <speed>0.99</speed>
  <fix>3d</fix>
</trkpt>
<trkpt lat="33.8103004" lon="-118.3938251">
  <ele>-25.036</ele>
  <time>2026-09-01T01:17:10Z</time>
  <course>193.64</course>
  <speed>0.9895453501482385</speed>
  <fix>3d</fix>
</trkpt>
<trkpt lat="33.8103017" lon="-118.3938247">
  <ele>-24.44</ele>
  <time>2026-09-01T01:17:10Z</time>
  <course>194.28</course>
  <speed>0.99</speed>
  <fix>3d</fix>
</trkpt>
<trkpt lat="33.8102995" lon="-118.3938253">
  <ele>-25.037</ele>
  <time>2026-09-01T01:17:10Z</time>
  <course>193.64</course>
  <speed>0.9895453501482385</speed>
  <fix>3d</fix>
</trkpt>
<trkpt lat="33.8103017" lon="-118.3938247">
  <ele>-24.44</ele>
  <time>2026-09-01T01:17:10Z</time>
  <course>194.28</course>
  <speed>0.99</speed>
  <fix>3d</fix>
</trkpt>
<trkpt lat="33.8102987" lon="-118.3938256">
  <ele>-25.039</ele>
  <time>2026-09-01T01:17:10Z</time>
  <course>193.62</course>
  <speed>0.9895453501482385</speed>
  <fix>3d</fix>
</trkpt>
<trkpt lat="33.8103" lon="-118.3938253">
  <ele>-24.44</ele>
  <time>2026-09-01T01:17:10Z</time>
  <course>194.26</course>
  <speed>0.99</speed>
  <fix>3d</fix>
</trkpt>
<trkpt lat="33.8102978" lon="-118.3938258">
  <ele>-25.04</ele>
  <time>2026-09-01T01:17:10Z</time>
  <course>193.6</course>
  <speed>0.9895453501482385</speed>
  <fix>3d</fix>
</trkpt>
<trkpt lat="33.8103" lon="-118.3938253">
  <ele>-24.44</ele>
  <time>2026-09-01T01:17:10Z</time>
  <course>194.26</course>
  <speed>0.99</speed>
  <fix>3d</fix>
</trkpt>
<trkpt lat="33.8102969" lon="-118.3938261">
  <ele>-25.041</ele>
  <time>2026-09-01T01:17:10Z</time>
  <course>193.56</course>
  <speed>0.9992497185388645</speed>
  <fix>3d</fix>
</trkpt>
<trkpt lat="33.8102982" lon="-118.3938258">
  <ele>-24.43</ele>
  <time>2026-09-01T01:17:10Z</time>
  <course>194.21</course>
  <speed>0.99</speed>
  <fix>3d</fix>
</trkpt>
<trkpt lat="33.8102961" lon="-118.3938264">
  <ele>-25.04</ele>
  <time>2026-09-01T01:17:10Z</time>
  <course>193.52</course>
  <speed>0.9992497185388645</speed>
  <fix>3d</fix>
</trkpt>
<trkpt lat="33.8102982" lon="-118.3938258">
  <ele>-24.43</ele>
  <time>2026-09-01T01:17:10Z</time>
  <course>194.21</course>
  <speed>0.99</speed>
  <fix>3d</fix>
</trkpt>
<trkpt lat="33.8102952" lon="-118.3938266">
  <ele>-25.038</ele>
  <time>2026-09-01T01:17:10Z</time>
  <course>193.48</course>
  <speed>0.9992497185388645</speed>
  <fix>3d</fix>
</trkpt>
<trkpt lat="33.8102964" lon="-118.3938263">
  <ele>-24.43</ele>
  <time>2026-09-01T01:17:10Z</time>
  <course>194.15</course>
  <speed>0.99</speed>
  <fix>3d</fix>
</trkpt>
<trkpt lat="33.8102943" lon="-118.3938269">
  <ele>-25.036</ele>
  <time>2026-09-01T01:17:10Z</time>
  <course>193.45</course>
  <speed>0.9992497185388645</speed>
  <fix>3d</fix>
</trkpt>
<trkpt lat="33.8102964" lon="-118.3938263">
  <ele>-24.43</ele>
  <time>2026-09-01T01:17:10Z</time>
  <course>194.15</course>
  <speed>0.99</speed>
  <fix>3d</fix>
</trkpt>
<trkpt lat="33.8102935" lon="-118.3938272">
  <ele>-25.034</ele>
  <time>2026-09-01T01:17:10Z</time>
  <course>193.44</course>
  <speed>0.9992497185388645</speed>
  <fix>3d</fix>
</trkpt>
<trkpt lat="33.8102947" lon="-118.3938268">
  <ele>-24.43</ele>
  <time>2026-09-01T01:17:10Z</time>
  <course>194.13</course>
  <speed>0.99</speed>
  <fix>3d</fix>
</trkpt>
<trkpt lat="33.8102926" lon="-118.3938274">
  <ele>-25.033</ele>
  <time>2026-09-01T01:17:10Z</time>
  <course>193.44</course>
  <speed>0.9992497185388645</speed>
  <fix>3d</fix>
</trkpt>
<trkpt lat="33.8102947" lon="-118.3938268">
  <ele>-24.43</ele>
  <time>2026-09-01T01:17:10Z</time>
  <course>194.13</course>
  <speed>0.99</speed>
  <fix>3d</fix>
</trkpt>
<trkpt lat="33.8102917" lon="-118.3938277">
  <ele>-25.032</ele>
  <time>2026-09-01T01:17:10Z</time>
  <course>193.45</course>
  <speed>0.9895453501482385</speed>
  <fix>3d</fix>
</trkpt>
<trkpt lat="33.810293" lon="-118.3938274">
  <ele>-24.43</ele>
  <time>2026-09-01T01:17:10Z</time>
  <course>194.16</course>
  <speed>0.99</speed>
  <fix>3d</fix>
</trkpt>
<trkpt lat="33.8102908" lon="-118.393828">
  <ele>-25.032</ele>
  <time>2026-09-01T01:17:10Z</time>
  <course>193.45</course>
  <speed>0.9992497185388645</speed>
  <fix>3d</fix>
</trkpt>
<trkpt lat="33.810293" lon="-118.3938274">
  <ele>-24.43</ele>
  <time>2026-09-01T01:17:10Z</time>
  <course>194.16</course>
  <speed>0.99</speed>
  <fix>3d</fix>
</trkpt>
<trkpt lat="33.81029" lon="-118.3938282">
  <ele>-25.033</ele>
  <time>2026-09-01T01:17:10Z</time>
  <course>193.45</course>
  <speed>0.9992497185388645</speed>
  <fix>3d</fix>
</trkpt>
<trkpt lat="33.8102913" lon="-118.3938279">
  <ele>-24.43</ele>
  <time>2026-09-01T01:17:10Z</time>
  <course>194.17</course>
  <speed>0.99</speed>
  <fix>3d</fix>
</trkpt>
<trkpt lat="33.8102891" lon="-118.3938285">
  <ele>-25.034</ele>
  <time>2026-09-01T01:17:10Z</time>
  <course>193.44</course>
  <speed>0.9992497185388645</speed>
  <fix>3d</fix>
</trkpt>
<trkpt lat="33.8102913" lon="-118.3938279">
  <ele>-24.43</ele>
  <time>2026-09-01T01:17:10Z</time>
  <course>194.17</course>
  <speed>0.99</speed>
  <fix>3d</fix>
</trkpt>
<trkpt lat="33.8102882" lon="-118.3938287">
  <ele>-25.035</ele>
  <time>2026-09-01T01:17:10Z</time>
  <course>193.41</course>
  <speed>0.9992497185388645</speed>
  <fix>3d</fix>
</trkpt>
<trkpt lat="33.8102895" lon="-118.3938284">
  <ele>-24.43</ele>
  <time>2026-09-01T01:17:10Z</time>
  <course>194.14</course>
  <speed>0.99</speed>
  <fix>3d</fix>
</trkpt>
<trkpt lat="33.8102874" lon="-118.393829">
  <ele>-25.036</ele>
  <time>2026-09-01T01:17:10Z</time>
  <course>193.4</course>
  <speed>0.9992497185388645</speed>
  <fix>3d</fix>
</trkpt>
<trkpt lat="33.8102895" lon="-118.3938284">
  <ele>-24.43</ele>
  <time>2026-09-01T01:17:10Z</time>
  <course>194.14</course>
  <speed>0.99</speed>
  <fix>3d</fix>
</trkpt>
<trkpt lat="33.8102865" lon="-118.3938293">
  <ele>-25.037</ele>
  <time>2026-09-01T01:17:10Z</time>
  <course>193.39</course>
  <speed>0.9992497185388645</speed>
  <fix>3d</fix>
</trkpt>
<trkpt lat="33.8102878" lon="-118.3938289">
  <ele>-24.43</ele>
  <time>2026-09-01T01:17:10Z</time>
  <course>194.12</course>
  <speed>0.99</speed>
  <fix>3d</fix>
</trkpt>
<trkpt lat="33.8102856" lon="-118.3938295">
  <ele>-25.038</ele>
  <time>2026-09-01T01:17:10Z</time>
  <course>193.39</course>
  <speed>0.9992497185388645</speed>
  <fix>3d</fix>
</trkpt>
<trkpt lat="33.8102878" lon="-118.3938289">
  <ele>-24.43</ele>
  <time>2026-09-01T01:17:10Z</time>
  <course>194.12</course>
  <speed>0.99</speed>
  <fix>3d</fix>
</trkpt>
<trkpt lat="33.8102847" lon="-118.3938298">
  <ele>-25.039</ele>
  <time>2026-09-01T01:17:10Z</time>
  <course>193.4</course>
  <speed>0.9992497185388645</speed>
  <fix>3d</fix>
</trkpt>
<trkpt lat="33.8102861" lon="-118.3938295">
  <ele>-24.43</ele>
  <time>2026-09-01T01:17:10Z</time>
  <course>194.14</course>
  <speed>0.99</speed>
  <fix>3d</fix>
</trkpt>
<trkpt lat="33.8102839" lon="-118.3938301">
  <ele>-25.039</ele>
  <time>2026-09-01T01:17:10Z</time>
  <course>193.4</course>
  <speed>0.9992497185388645</speed>
  <fix>3d</fix>
</trkpt>
<trkpt lat="33.8102861" lon="-118.3938295">
  <ele>-24.43</ele>
  <time>2026-09-01T01:17:10Z</time>
  <course>194.14</course>
  <speed>0.99</speed>
  <fix>3d</fix>
</trkpt>
<trkpt lat="33.810283" lon="-118.3938303">
  <ele>-25.038</ele>
  <time>2026-09-01T01:17:10Z</time>
  <course>193.39</course>
  <speed>0.9992497185388645</speed>
  <fix>3d</fix>
</trkpt>
<trkpt lat="33.8102843" lon="-118.39383">
  <ele>-24.43</ele>
  <time>2026-09-01T01:17:10Z</time>
  <course>194.14</course>
  <speed>0.99</speed>
  <fix>3d</fix>
</trkpt>
<trkpt lat="33.8102821" lon="-118.3938306">
  <ele>-25.037</ele>
  <time>2026-09-01T01:17:10Z</time>
  <course>193.38</course>
  <speed>0.9992497185388645</speed>
  <fix>3d</fix>
</trkpt>
<trkpt lat="33.8102843" lon="-118.39383">
  <ele>-24.43</ele>
  <time>2026-09-01T01:17:10Z</time>
  <course>194.14</course>
  <speed>0.99</speed>
  <fix>3d</fix>
</trkpt>
<trkpt lat="33.8102813" lon="-118.3938308">
  <ele>-25.036</ele>
  <time>2026-09-01T01:17:10Z</time>
  <course>193.37</course>
  <speed>0.9968951800465282</speed>
  <fix>3d</fix>
</trkpt>
<trkpt lat="33.8102826" lon="-118.3938305">
  <ele>-24.43</ele>
  <time>2026-09-01T01:17:10Z</time>
  <course>194.12</course>
  <speed>0.99</speed>
  <fix>3d</fix>
</trkpt>
<trkpt lat="33.8102804" lon="-118.3938311">
  <ele>-25.035</ele>
  <time>2026-09-01T01:17:10Z</time>
  <course>193.36</course>
  <speed>0.9992497185388645</speed>
  <fix>3d</fix>
</trkpt>
<trkpt lat="33.8102826" lon="-118.3938305">
  <ele>-24.43</ele>
  <time>2026-09-01T01:17:10Z</time>
  <course>194.12</course>
  <speed>0.99</speed>
  <fix>3d</fix>
</trkpt>
<trkpt lat="33.8102795" lon="-118.3938314">
  <ele>-25.035</ele>
  <time>2026-09-01T01:17:10Z</time>
  <course>193.36</course>
  <speed>0.9968951800465282</speed>
  <fix>3d</fix>
</trkpt>
<trkpt lat="33.8102808" lon="-118.3938311">
  <ele>-24.43</ele>
  <time>2026-09-01T01:17:10Z</time>
  <course>194.12</course>
  <speed>0.99</speed>
  <fix>3d</fix>
</trkpt>
<trkpt lat="33.8102786" lon="-118.3938316">
  <ele>-25.036</ele>
  <time>2026-09-01T01:17:10Z</time>
  <course>193.36</course>
  <speed>0.9968951800465282</speed>
  <fix>3d</fix>
</trkpt>
<trkpt lat="33.8102808" lon="-118.3938311">
  <ele>-24.43</ele>
  <time>2026-09-01T01:17:10Z</time>
  <course>194.12</course>
  <speed>0.99</speed>
  <fix>3d</fix>
</trkpt>
<trkpt lat="33.8102778" lon="-118.3938319">
  <ele>-25.036</ele>
  <time>2026-09-01T01:17:10Z</time>
  <course>193.35</course>
  <speed>0.9968951800465282</speed>
  <fix>3d</fix>
</trkpt>
<trkpt lat="33.8102791" lon="-118.3938316">
  <ele>-24.43</ele>
  <time>2026-09-01T01:17:10Z</time>
  <course>194.12</course>
  <speed>0.99</speed>
  <fix>3d</fix>
</trkpt>
<trkpt lat="33.8102769" lon="-118.3938322">
  <ele>-25.036</ele>
  <time>2026-09-01T01:17:10Z</time>
  <course>193.33</course>
  <speed>0.9968951800465282</speed>
  <fix>3d</fix>
</trkpt>
<trkpt lat="33.8102791" lon="-118.3938316">
  <ele>-24.43</ele>
  <time>2026-09-01T01:17:10Z</time>
  <course>194.12</course>
  <speed>0.99</speed>
  <fix>3d</fix>
</trkpt>
<trkpt lat="33.810276" lon="-118.3938324">
  <ele>-25.037</ele>
  <time>2026-09-01T01:17:10Z</time>
  <course>193.31</course>
  <speed>0.9968951800465282</speed>
  <fix>3d</fix>
</trkpt>
<trkpt lat="33.8102774" lon="-118.3938321">
  <ele>-24.43</ele>
  <time>2026-09-01T01:17:10Z</time>
  <course>194.09</course>
  <speed>0.99</speed>
  <fix>3d</fix>
</trkpt>
<trkpt lat="33.8102752" lon="-118.3938327">
  <ele>-25.037</ele>
  <time>2026-09-01T01:17:10Z</time>
  <course>193.3</course>
  <speed>0.9968951800465282</speed>
  <fix>3d</fix>
</trkpt>
<trkpt lat="33.8102774" lon="-118.3938321">
  <ele>-24.43</ele>
  <time>2026-09-01T01:17:10Z</time>
  <course>194.09</course>
  <speed>0.99</speed>
  <fix>3d</fix>
</trkpt>
<trkpt lat="33.8102743" lon="-118.3938329">
  <ele>-25.037</ele>
  <time>2026-09-01T01:17:10Z</time>
  <course>193.29</course>
  <speed>0.9968951800465282</speed>
  <fix>3d</fix>
</trkpt>
<trkpt lat="33.8102756" lon="-118.3938326">
  <ele>-24.43</ele>
  <time>2026-09-01T01:17:10Z</time>
  <course>194.08</course>
  <speed>0.99</speed>
  <fix>3d</fix>
</trkpt>
<trkpt lat="33.8102734" lon="-118.3938332">
  <ele>-25.036</ele>
  <time>2026-09-01T01:17:10Z</time>
  <course>193.29</course>
  <speed>0.9968951800465282</speed>
  <fix>3d</fix>
</trkpt>
<trkpt lat="33.8102756" lon="-118.3938326">
  <ele>-24.43</ele>
  <time>2026-09-01T01:17:10Z</time>
  <course>194.08</course>
  <speed>0.99</speed>
  <fix>3d</fix>
</trkpt>
<trkpt lat="33.8102725" lon="-118.3938335">
  <ele>-25.036</ele>
  <time>2026-09-01T01:17:10Z</time>
  <course>193.3</course>
  <speed>0.9968951800465282</speed>
  <fix>3d</fix>
</trkpt>
<trkpt lat="33.8102739" lon="-118.3938332">
  <ele>-24.43</ele>
  <time>2026-09-01T01:17:10Z</time>
  <course>194.1</course>
  <speed>0.99</speed>
  <fix>3d</fix>
</trkpt>
<trkpt lat="33.8102717" lon="-118.3938337">
  <ele>-25.036</ele>
  <time>2026-09-01T01:17:10Z</time>
  <course>193.31</course>
  <speed>0.9968951800465282</speed>
  <fix>3d</fix>
</trkpt>
<trkpt lat="33.8102739" lon="-118.3938332">
  <ele>-24.43</ele>
  <time>2026-09-01T01:17:10Z</time>
  <course>194.1</course>
  <speed>0.99</speed>
  <fix>3d</fix>
</trkpt>
<trkpt lat="33.8102708" lon="-118.393834">
  <ele>-25.036</ele>
  <time>2026-09-01T01:17:10Z</time>
  <course>193.31</course>
  <speed>0.9968951800465282</speed>
  <fix>3d</fix>
</trkpt>
<trkpt lat="33.8102722" lon="-118.3938337">
  <ele>-24.42</ele>
  <time>2026-09-01T01:17:10Z</time>
  <course>194.1</course>
  <speed>0.99</speed>
  <fix>3d</fix>
</trkpt>
<trkpt lat="33.8102699" lon="-118.3938343">
  <ele>-25.035</ele>
  <time>2026-09-01T01:17:10Z</time>
  <course>193.3</course>
  <speed>0.9968951800465282</speed>
  <fix>3d</fix>
</trkpt>
<trkpt lat="33.8102722" lon="-118.3938337">
  <ele>-24.42</ele>
  <time>2026-09-01T01:17:10Z</time>
  <course>194.1</course>
  <speed>0.99</speed>
  <fix>3d</fix>
</trkpt>
<trkpt lat="33.8102691" lon="-118.3938345">
  <ele>-25.033</ele>
  <time>2026-09-01T01:17:10Z</time>
  <course>193.28</course>
  <speed>0.9968951800465282</speed>
  <fix>3d</fix>
</trkpt>
<trkpt lat="33.8102704" lon="-118.3938342">
  <ele>-24.42</ele>
  <time>2026-09-01T01:17:10Z</time>
  <course>194.08</course>
  <speed>0.99</speed>
  <fix>3d</fix>
</trkpt>
<trkpt lat="33.8102682" lon="-118.3938348">
  <ele>-25.032</ele>
  <time>2026-09-01T01:17:10Z</time>
  <course>193.28</course>
  <speed>0.9968951800465282</speed>
  <fix>3d</fix>
</trkpt>
<trkpt lat="33.8102704" lon="-118.3938342">
  <ele>-24.42</ele>
  <time>2026-09-01T01:17:10Z</time>
  <course>194.08</course>
  <speed>0.99</speed>
  <fix>3d</fix>
</trkpt>
<trkpt lat="33.8102673" lon="-118.3938351">
  <ele>-25.031</ele>
  <time>2026-09-01T01:17:10Z</time>
  <course>193.27</course>
  <speed>0.9968951800465282</speed>
  <fix>3d</fix>
</trkpt>
<trkpt lat="33.8102687" lon="-118.3938347">
  <ele>-24.42</ele>
  <time>2026-09-01T01:17:10Z</time>
  <course>194.07</course>
  <speed>0.99</speed>
  <fix>3d</fix>
</trkpt>
<trkpt lat="33.8102665" lon="-118.3938353">
  <ele>-25.031</ele>
  <time>2026-09-01T01:17:10Z</time>
  <course>193.28</course>
  <speed>0.9968951800465282</speed>
  <fix>3d</fix>
</trkpt>
<trkpt lat="33.8102687" lon="-118.3938347">
  <ele>-24.42</ele>
  <time>2026-09-01T01:17:10Z</time>
  <course>194.07</course>
  <speed>0.99</speed>
  <fix>3d</fix>
</trkpt>
<trkpt lat="33.8102656" lon="-118.3938356">
  <ele>-25.031</ele>
  <time>2026-09-01T01:17:10Z</time>
  <course>193.3</course>
  <speed>0.9968951800465282</speed>
  <fix>3d</fix>
</trkpt>
<trkpt lat="33.8102669" lon="-118.3938353">
  <ele>-24.42</ele>
  <time>2026-09-01T01:17:10Z</time>
  <course>194.07</course>
  <speed>0.99</speed>
  <fix>3d</fix>
</trkpt>
<trkpt lat="33.8102647" lon="-118.3938358">
  <ele>-25.03</ele>
  <time>2026-09-01T01:17:10Z</time>
  <course>193.31</course>
  <speed>0.9968951800465282</speed>
  <fix>3d</fix>
</trkpt>
<trkpt lat="33.8102669" lon="-118.3938353">
  <ele>-24.42</ele>
  <time>2026-09-01T01:17:10Z</time>
  <course>194.07</course>
  <speed>0.99</speed>
  <fix>3d</fix>
</trkpt>
<trkpt lat="33.8102638" lon="-118.3938361">
  <ele>-25.03</ele>
  <time>2026-09-01T01:17:10Z</time>
  <course>193.32</course>
  <speed>0.9968951800465282</speed>
  <fix>3d</fix>
</trkpt>
<trkpt lat="33.8102652" lon="-118.3938358">
  <ele>-24.42</ele>
  <time>2026-09-01T01:17:10Z</time>
  <course>194.08</course>
  <speed>0.99</speed>
  <fix>3d</fix>
</trkpt>
<trkpt lat="33.810263" lon="-118.3938364">
  <ele>-25.031</ele>
  <time>2026-09-01T01:17:10Z</time>
  <course>193.31</course>
  <speed>0.9968951800465282</speed>
  <fix>3d</fix>
</trkpt>
<trkpt lat="33.8102652" lon="-118.3938358">
  <ele>-24.42</ele>
  <time>2026-09-01T01:17:10Z</time>
  <course>194.08</course>
  <speed>0.99</speed>
  <fix>3d</fix>
</trkpt>
<trkpt lat="33.8102621" lon="-118.3938366">
  <ele>-25.033</ele>
  <time>2026-09-01T01:17:10Z</time>
  <course>193.31</course>
  <speed>0.9968951800465282</speed>
  <fix>3d</fix>
</trkpt>
<trkpt lat="33.8102635" lon="-118.3938363">
  <ele>-24.43</ele>
  <time>2026-09-01T01:17:10Z</time>
  <course>194.08</course>
  <speed>0.99</speed>
  <fix>3d</fix>
</trkpt>
<trkpt lat="33.8102612" lon="-118.3938369">
  <ele>-25.036</ele>
  <time>2026-09-01T01:17:10Z</time>
  <course>193.31</course>
  <speed>0.9968951800465282</speed>
  <fix>3d</fix>
</trkpt>
<trkpt lat="33.8102635" lon="-118.3938363">
  <ele>-24.43</ele>
  <time>2026-09-01T01:17:10Z</time>
  <course>194.08</course>
  <speed>0.99</speed>
  <fix>3d</fix>
</trkpt>
<trkpt lat="33.8102604" lon="-118.3938372">
  <ele>-25.038</ele>
  <time>2026-09-01T01:17:10Z</time>
  <course>193.3</course>
  <speed>0.9968951800465282</speed>
  <fix>3d</fix>
</trkpt>
<trkpt lat="33.8102617" lon="-118.3938368">
  <ele>-24.43</ele>
  <time>2026-09-01T01:17:10Z</time>
  <course>194.08</course>
  <speed>0.99</speed>
  <fix>3d</fix>
</trkpt>
<trkpt lat="33.8102595" lon="-118.3938374">
  <ele>-25.038</ele>
  <time>2026-09-01T01:17:10Z</time>
  <course>193.31</course>
  <speed>0.9968951800465282</speed>
  <fix>3d</fix>
</trkpt>
<trkpt lat="33.8102617" lon="-118.3938368">
  <ele>-24.43</ele>
  <time>2026-09-01T01:17:10Z</time>
  <course>194.08</course>
  <speed>0.99</speed>
  <fix>3d</fix>
</trkpt>
<trkpt lat="33.8102586" lon="-118.3938377">
  <ele>-25.037</ele>
  <time>2026-09-01T01:17:10Z</time>
  <course>193.32</course>
  <speed>0.9968951800465282</speed>
  <fix>3d</fix>
</trkpt>
<trkpt lat="33.81026" lon="-118.3938374">
  <ele>-24.43</ele>
  <time>2026-09-01T01:17:10Z</time>
  <course>194.11</course>
  <speed>0.99</speed>
  <fix>3d</fix>
</trkpt>
<trkpt lat="33.8102578" lon="-118.3938379">
  <ele>-25.034</ele>
  <time>2026-09-01T01:17:10Z</time>
  <course>193.33</course>
  <speed>0.9968951800465282</speed>
  <fix>3d</fix>
</trkpt>
<trkpt lat="33.81026" lon="-118.3938374">
  <ele>-24.43</ele>
  <time>2026-09-01T01:17:10Z</time>
  <course>194.11</course>
  <speed>0.99</speed>
  <fix>3d</fix>
</trkpt>
<trkpt lat="33.8102569" lon="-118.3938382">
  <ele>-25.033</ele>
  <time>2026-09-01T01:17:10Z</time>
  <course>193.33</course>
  <speed>0.9968951800465282</speed>
  <fix>3d</fix>
</trkpt>
<trkpt lat="33.8102583" lon="-118.3938379">
  <ele>-24.43</ele>
  <time>2026-09-01T01:17:10Z</time>
  <course>194.12</course>
  <speed>0.99</speed>
  <fix>3d</fix>
</trkpt>
<trkpt lat="33.810256" lon="-118.3938385">
  <ele>-25.032</ele>
  <time>2026-09-01T01:17:10Z</time>
  <course>193.32</course>
  <speed>0.9968951800465282</speed>
  <fix>3d</fix>
</trkpt>
<trkpt lat="33.8102583" lon="-118.3938379">
  <ele>-24.43</ele>
  <time>2026-09-01T01:17:10Z</time>
  <course>194.12</course>
  <speed>0.99</speed>
  <fix>3d</fix>
</trkpt>
<trkpt lat="33.8102551" lon="-118.3938387">
  <ele>-25.032</ele>
  <time>2026-09-01T01:17:10Z</time>
  <course>193.3</course>
  <speed>0.9968951800465282</speed>
  <fix>3d</fix>
</trkpt>
<trkpt lat="33.8102565" lon="-118.3938384">
  <ele>-24.43</ele>
  <time>2026-09-01T01:17:10Z</time>
  <course>194.08</course>
  <speed>0.99</speed>
  <fix>3d</fix>
</trkpt>
<trkpt lat="33.8102543" lon="-118.393839">
  <ele>-25.032</ele>
  <time>2026-09-01T01:17:10Z</time>
  <course>193.3</course>
  <speed>0.9968951800465282</speed>
  <fix>3d</fix>
</trkpt>
<trkpt lat="33.8102565" lon="-118.3938384">
  <ele>-24.43</ele>
  <time>2026-09-01T01:17:10Z</time>
  <course>194.08</course>
  <speed>0.99</speed>
  <fix>3d</fix>
</trkpt>
<trkpt lat="33.8102534" lon="-118.3938393">
  <ele>-25.033</ele>
  <time>2026-09-01T01:17:10Z</time>
  <course>193.29</course>
  <speed>0.9968951800465282</speed>
  <fix>3d</fix>
</trkpt>
<trkpt lat="33.8102547" lon="-118.3938389">
  <ele>-24.43</ele>
  <time>2026-09-01T01:17:10Z</time>
  <course>194.08</course>
  <speed>0.99</speed>
  <fix>3d</fix>
</trkpt>
<trkpt lat="33.8102525" lon="-118.3938395">
  <ele>-25.033</ele>
  <time>2026-09-01T01:17:10Z</time>
  <course>193.3</course>
  <speed>0.9968951800465282</speed>
  <fix>3d</fix>
</trkpt>
<trkpt lat="33.8102547" lon="-118.3938389">
  <ele>-24.43</ele>
  <time>2026-09-01T01:17:10Z</time>
  <course>194.08</course>
  <speed>0.99</speed>
  <fix>3d</fix>
</trkpt>
<trkpt lat="33.8102516" lon="-118.3938398">
  <ele>-25.033</ele>
  <time>2026-09-01T01:17:10Z</time>
  <course>193.32</course>
  <speed>0.9968951800465282</speed>
  <fix>3d</fix>
</trkpt>
<trkpt lat="33.810253" lon="-118.3938394">
  <ele>-24.43</ele>
  <time>2026-09-01T01:17:10Z</time>
  <course>194.13</course>
  <speed>0.99</speed>
  <fix>3d</fix>
</trkpt>
<trkpt lat="33.8102508" lon="-118.39384">
  <ele>-25.033</ele>
  <time>2026-09-01T01:17:10Z</time>
  <course>193.35</course>
  <speed>0.9968951800465282</speed>
  <fix>3d</fix>
</trkpt>
<trkpt lat="33.810253" lon="-118.3938394">
  <ele>-24.43</ele>
  <time>2026-09-01T01:17:10Z</time>
  <course>194.13</course>
  <speed>0.99</speed>
  <fix>3d</fix>
</trkpt>
<trkpt lat="33.8102499" lon="-118.3938403">
  <ele>-25.032</ele>
  <time>2026-09-01T01:17:10Z</time>
  <course>193.38</course>
  <speed>0.9968951800465282</speed>
  <fix>3d</fix>
</trkpt>
<trkpt lat="33.8102513" lon="-118.39384">
  <ele>-24.43</ele>
  <time>2026-09-01T01:17:10Z</time>
  <course>194.2</course>
  <speed>0.99</speed>
  <fix>3d</fix>
</trkpt>
<trkpt lat="33.810249" lon="-118.3938406">
  <ele>-25.033</ele>
  <time>2026-09-01T01:17:10Z</time>
  <course>193.41</course>
  <speed>0.9968951800465282</speed>
  <fix>3d</fix>
</trkpt>
<trkpt lat="33.8102513" lon="-118.39384">
  <ele>-24.43</ele>
  <time>2026-09-01T01:17:10Z</time>
  <course>194.2</course>
  <speed>0.99</speed>
  <fix>3d</fix>
</trkpt>
<trkpt lat="33.8102482" lon="-118.3938408">
  <ele>-25.034</ele>
  <time>2026-09-01T01:17:10Z</time>
  <course>193.42</course>
  <speed>0.9968951800465282</speed>
  <fix>3d</fix>
</trkpt>
<trkpt lat="33.8102495" lon="-118.3938405">
  <ele>-24.44</ele>
  <time>2026-09-01T01:17:10Z</time>
  <course>194.22</course>
  <speed>0.99</speed>
  <fix>3d</fix>
</trkpt>
<trkpt lat="33.8102473" lon="-118.3938411">
  <ele>-25.036</ele>
  <time>2026-09-01T01:17:10Z</time>
  <course>193.42</course>
  <speed>0.9968951800465282</speed>
  <fix>3d</fix>
</trkpt>
<trkpt lat="33.8102495" lon="-118.3938405">
  <ele>-24.44</ele>
  <time>2026-09-01T01:17:10Z</time>
  <course>194.22</course>
  <speed>0.99</speed>
  <fix>3d</fix>
</trkpt>
<trkpt lat="33.8102464" lon="-118.3938413">
  <ele>-25.037</ele>
  <time>2026-09-01T01:17:10Z</time>
  <course>193.43</course>
  <speed>0.9968951800465282</speed>
  <fix>3d</fix>
</trkpt>
<trkpt lat="33.8102478" lon="-118.393841">
  <ele>-24.44</ele>
  <time>2026-09-01T01:17:10Z</time>
  <course>194.21</course>
  <speed>0.99</speed>
  <fix>3d</fix>
</trkpt>
<trkpt lat="33.8102455" lon="-118.3938416">
  <ele>-25.039</ele>
  <time>2026-09-01T01:17:10Z</time>
  <course>193.43</course>
  <speed>0.9968951800465282</speed>
  <fix>3d</fix>
</trkpt>
<trkpt lat="33.8102478" lon="-118.393841">
  <ele>-24.44</ele>
  <time>2026-09-01T01:17:10Z</time>
  <course>194.21</course>
  <speed>0.99</speed>
  <fix>3d</fix>
</trkpt>
<trkpt lat="33.8102447" lon="-118.3938419">
  <ele>-25.04</ele>
  <time>2026-09-01T01:17:10Z</time>
  <course>193.43</course>
  <speed>0.9968951800465282</speed>
  <fix>3d</fix>
</trkpt>
<trkpt lat="33.8102461" lon="-118.3938416">
  <ele>-24.44</ele>
  <time>2026-09-01T01:17:10Z</time>
  <course>194.23</course>
  <speed>0.99</speed>
  <fix>3d</fix>
</trkpt>
<trkpt lat="33.8102438" lon="-118.3938421">
  <ele>-25.04</ele>
  <time>2026-09-01T01:17:10Z</time>
  <course>193.43</course>
  <speed>0.9968951800465282</speed>
  <fix>3d</fix>
</trkpt>
<trkpt lat="33.8102461" lon="-118.3938416">
  <ele>-24.44</ele>
  <time>2026-09-01T01:17:10Z</time>
  <course>194.23</course>
  <speed>0.99</speed>
  <fix>3d</fix>
</trkpt>
<trkpt lat="33.8102429" lon="-118.3938424">
  <ele>-25.041</ele>
  <time>2026-09-01T01:17:10Z</time>
  <course>193.42</course>
  <speed>0.9968951800465282</speed>
  <fix>3d</fix>
</trkpt>
<trkpt lat="33.8102444" lon="-118.3938421">
  <ele>-24.44</ele>
  <time>2026-09-01T01:17:10Z</time>
  <course>194.23</course>
  <speed>0.99</speed>
  <fix>3d</fix>
</trkpt>
<trkpt lat="33.8102421" lon="-118.3938427">
  <ele>-25.04</ele>
  <time>2026-09-01T01:17:10Z</time>
  <course>193.39</course>
  <speed>1.006628034578811</speed>
  <fix>3d</fix>
</trkpt>
<trkpt lat="33.8102444" lon="-118.3938421">
  <ele>-24.44</ele>
  <time>2026-09-01T01:17:10Z</time>
  <course>194.23</course>
  <speed>0.99</speed>
  <fix>3d</fix>
</trkpt>
<trkpt lat="33.8102412" lon="-118.3938429">
  <ele>-25.039</ele>
  <time>2026-09-01T01:17:10Z</time>
  <course>193.37</course>
  <speed>1.006628034578811</speed>
  <fix>3d</fix>
</trkpt>
<trkpt lat="33.8102426" lon="-118.3938426">
  <ele>-24.43</ele>
  <time>2026-09-01T01:17:10Z</time>
  <course>194.18</course>
  <speed>0.99</speed>
  <fix>3d</fix>
</trkpt>
<trkpt lat="33.8102403" lon="-118.3938432">
  <ele>-25.038</ele>
  <time>2026-09-01T01:17:10Z</time>
  <course>193.35</course>
  <speed>1.006628034578811</speed>
  <fix>3d</fix>
</trkpt>
<trkpt lat="33.8102426" lon="-118.3938426">
  <ele>-24.43</ele>
  <time>2026-09-01T01:17:10Z</time>
  <course>194.18</course>
  <speed>0.99</speed>
  <fix>3d</fix>
</trkpt>
<trkpt lat="33.8102395" lon="-118.3938435">
  <ele>-25.036</ele>
  <time>2026-09-01T01:17:10Z</time>
  <course>193.34</course>
  <speed>1.006628034578811</speed>
  <fix>3d</fix>
</trkpt>
<trkpt lat="33.8102408" lon="-118.3938432">
  <ele>-24.43</ele>
  <time>2026-09-01T01:17:10Z</time>
  <course>194.16</course>
  <speed>0.99</speed>
  <fix>3d</fix>
</trkpt>
<trkpt lat="33.8102386" lon="-118.3938437">
  <ele>-25.034</ele>
  <time>2026-09-01T01:17:10Z</time>
  <course>193.33</course>
  <speed>1.006628034578811</speed>
  <fix>3d</fix>
</trkpt>
<trkpt lat="33.8102408" lon="-118.3938432">
  <ele>-24.43</ele>
  <time>2026-09-01T01:17:10Z</time>
  <course>194.16</course>
  <speed>0.99</speed>
  <fix>3d</fix>
</trkpt>
<trkpt lat="33.8102377" lon="-118.393844">
  <ele>-25.034</ele>
  <time>2026-09-01T01:17:10Z</time>
  <course>193.33</course>
  <speed>1.006628034578811</speed>
  <fix>3d</fix>
</trkpt>
<trkpt lat="33.8102391" lon="-118.3938437">
  <ele>-24.43</ele>
  <time>2026-09-01T01:17:10Z</time>
  <course>194.17</course>
  <speed>1.0</speed>
  <fix>3d</fix>
</trkpt>
<trkpt lat="33.8102368" lon="-118.3938442">
  <ele>-25.035</ele>
  <time>2026-09-01T01:17:10Z</time>
  <course>193.31</course>
  <speed>1.006628034578811</speed>
  <fix>3d</fix>
</trkpt>
<trkpt lat="33.8102391" lon="-118.3938437">
  <ele>-24.43</ele>
  <time>2026-09-01T01:17:10Z</time>
  <course>194.17</course>
  <speed>1.0</speed>
  <fix>3d</fix>
</trkpt>
<trkpt lat="33.810236" lon="-118.3938445">
  <ele>-25.035</ele>
  <time>2026-09-01T01:17:10Z</time>
  <course>193.3</course>
  <speed>1.006628034578811</speed>
  <fix>3d</fix>
</trkpt>
<trkpt lat="33.8102374" lon="-118.3938442">
  <ele>-24.42</ele>
  <time>2026-09-01T01:17:10Z</time>
  <course>194.16</course>
  <speed>1.0</speed>
  <fix>3d</fix>
</trkpt>
<trkpt lat="33.8102351" lon="-118.3938448">
  <ele>-25.035</ele>
  <time>2026-09-01T01:17:10Z</time>
  <course>193.29</course>
  <speed>1.006628034578811</speed>
  <fix>3d</fix>
</trkpt>
<trkpt lat="33.8102374" lon="-118.3938442">
  <ele>-24.42</ele>
  <time>2026-09-01T01:17:10Z</time>
  <course>194.16</course>
  <speed>1.0</speed>
  <fix>3d</fix>
</trkpt>
<trkpt lat="33.8102342" lon="-118.393845">
  <ele>-25.035</ele>
  <time>2026-09-01T01:17:10Z</time>
  <course>193.28</course>
  <speed>1.006628034578811</speed>
  <fix>3d</fix>
</trkpt>
<trkpt lat="33.8102356" lon="-118.3938448">
  <ele>-24.42</ele>
  <time>2026-09-01T01:17:10Z</time>
  <course>194.14</course>
  <speed>1.0</speed>
  <fix>3d</fix>
</trkpt>
<trkpt lat="33.8102334" lon="-118.3938453">
  <ele>-25.033</ele>
  <time>2026-09-01T01:17:10Z</time>
  <course>193.26</course>
  <speed>1.006628034578811</speed>
  <fix>3d</fix>
</trkpt>
<trkpt lat="33.8102356" lon="-118.3938448">
  <ele>-24.42</ele>
  <time>2026-09-01T01:17:10Z</time>
  <course>194.14</course>
  <speed>1.0</speed>
  <fix>3d</fix>
</trkpt>
<trkpt lat="33.8102325" lon="-118.3938456">
  <ele>-25.031</ele>
  <time>2026-09-01T01:17:10Z</time>
  <course>193.24</course>
  <speed>1.006628034578811</speed>
  <fix>3d</fix>
</trkpt>
<trkpt lat="33.8102339" lon="-118.3938453">
  <ele>-24.42</ele>
  <time>2026-09-01T01:17:10Z</time>
  <course>194.11</course>
  <speed>1.0</speed>
  <fix>3d</fix>
</trkpt>
<trkpt lat="33.8102316" lon="-118.3938458">
  <ele>-25.03</ele>
  <time>2026-09-01T01:17:10Z</time>
  <course>193.22</course>
  <speed>1.006628034578811</speed>
  <fix>3d</fix>
</trkpt>
<trkpt lat="33.8102339" lon="-118.3938453">
  <ele>-24.42</ele>
  <time>2026-09-01T01:17:10Z</time>
  <course>194.11</course>
  <speed>1.0</speed>
  <fix>3d</fix>
</trkpt>
<trkpt lat="33.8102308" lon="-118.3938461">
  <ele>-25.03</ele>
  <time>2026-09-01T01:17:10Z</time>
  <course>193.2</course>
  <speed>1.006628034578811</speed>
  <fix>3d</fix>
</trkpt>
<trkpt lat="33.8102322" lon="-118.3938458">
  <ele>-24.42</ele>
  <time>2026-09-01T01:17:10Z</time>
  <course>194.09</course>
  <speed>1.0</speed>
  <fix>3d</fix>
</trkpt>
<trkpt lat="33.8102299" lon="-118.3938464">
  <ele>-25.031</ele>
  <time>2026-09-01T01:17:10Z</time>
  <course>193.18</course>
  <speed>1.006628034578811</speed>
  <fix>3d</fix>
</trkpt>
<trkpt lat="33.8102322" lon="-118.3938458">
  <ele>-24.42</ele>
  <time>2026-09-01T01:17:10Z</time>
  <course>194.09</course>
  <speed>1.0</speed>
  <fix>3d</fix>
</trkpt>
<trkpt lat="33.810229" lon="-118.3938466">
  <ele>-25.031</ele>
  <time>2026-09-01T01:17:10Z</time>
  <course>193.17</course>
  <speed>1.006628034578811</speed>
  <fix>3d</fix>
</trkpt>
<trkpt lat="33.8102303" lon="-118.3938463">
  <ele>-24.42</ele>
  <time>2026-09-01T01:17:10Z</time>
  <course>194.09</course>
  <speed>1.0</speed>
  <fix>3d</fix>
</trkpt>
<trkpt lat="33.8102281" lon="-118.3938469">
  <ele>-25.03</ele>
  <time>2026-09-01T01:17:10Z</time>
  <course>193.17</course>
  <speed>1.006628034578811</speed>
  <fix>3d</fix>
</trkpt>
<trkpt lat="33.8102303" lon="-118.3938463">
  <ele>-24.42</ele>
  <time>2026-09-01T01:17:10Z</time>
  <course>194.09</course>
  <speed>1.0</speed>
  <fix>3d</fix>
</trkpt>
<trkpt lat="33.8102273" lon="-118.3938471">
  <ele>-25.031</ele>
  <time>2026-09-01T01:17:10Z</time>
  <course>193.18</course>
  <speed>1.006628034578811</speed>
  <fix>3d</fix>
</trkpt>
<trkpt lat="33.8102286" lon="-118.3938469">
  <ele>-24.42</ele>
  <time>2026-09-01T01:17:10Z</time>
  <course>194.11</course>
  <speed>1.0</speed>
  <fix>3d</fix>
</trkpt>
<trkpt lat="33.8102264" lon="-118.3938474">
  <ele>-25.032</ele>
  <time>2026-09-01T01:17:10Z</time>
  <course>193.2</course>
  <speed>1.006628034578811</speed>
  <fix>3d</fix>
</trkpt>
<trkpt lat="33.8102286" lon="-118.3938469">
  <ele>-24.42</ele>
  <time>2026-09-01T01:17:10Z</time>
  <course>194.11</course>
  <speed>1.0</speed>
  <fix>3d</fix>
</trkpt>
<trkpt lat="33.8102255" lon="-118.3938477">
  <ele>-25.033</ele>
  <time>2026-09-01T01:17:10Z</time>
  <course>193.2</course>
  <speed>1.006628034578811</speed>
  <fix>3d</fix>
</trkpt>
<trkpt lat="33.8102269" lon="-118.3938474">
  <ele>-24.42</ele>
  <time>2026-09-01T01:17:10Z</time>
  <course>194.12</course>
  <speed>1.0</speed>
  <fix>3d</fix>
</trkpt>
<trkpt lat="33.8102246" lon="-118.3938479">
  <ele>-25.035</ele>
  <time>2026-09-01T01:17:10Z</time>
  <course>193.2</course>
  <speed>1.006628034578811</speed>
  <fix>3d</fix>
</trkpt>
<trkpt lat="33.8102269" lon="-118.3938474">
  <ele>-24.42</ele>
  <time>2026-09-01T01:17:10Z</time>
  <course>194.12</course>
  <speed>1.0</speed>
  <fix>3d</fix>
</trkpt>
<trkpt lat="33.8102238" lon="-118.3938482">
  <ele>-25.035</ele>
  <time>2026-09-01T01:17:10Z</time>
  <course>193.2</course>
  <speed>1.006628034578811</speed>
  <fix>3d</fix>
</trkpt>
<trkpt lat="33.8102251" lon="-118.3938479">
  <ele>-24.43</ele>
  <time>2026-09-01T01:17:10Z</time>
  <course>194.12</course>
  <speed>1.0</speed>
  <fix>3d</fix>
</trkpt>
<trkpt lat="33.8102229" lon="-118.3938485">
  <ele>-25.034</ele>
  <time>2026-09-01T01:17:10Z</time>
  <course>193.2</course>
  <speed>1.006628034578811</speed>
  <fix>3d</fix>
</trkpt>
<trkpt lat="33.8102251" lon="-118.3938479">
  <ele>-24.43</ele>
  <time>2026-09-01T01:17:10Z</time>
  <course>194.12</course>
  <speed>1.0</speed>
  <fix>3d</fix>
</trkpt>
<trkpt lat="33.810222" lon="-118.3938487">
  <ele>-25.034</ele>
  <time>2026-09-01T01:17:10Z</time>
  <course>193.2</course>
  <speed>1.006628034578811</speed>
  <fix>3d</fix>
</trkpt>
<trkpt lat="33.8102234" lon="-118.3938485">
  <ele>-24.43</ele>
  <time>2026-09-01T01:17:10Z</time>
  <course>194.13</course>
  <speed>1.0</speed>
  <fix>3d</fix>
</trkpt>
<trkpt lat="33.8102212" lon="-118.393849">
  <ele>-25.034</ele>
  <time>2026-09-01T01:17:10Z</time>
  <course>193.21</course>
  <speed>1.006628034578811</speed>
  <fix>3d</fix>
</trkpt>
<trkpt lat="33.8102234" lon="-118.3938485">
  <ele>-24.43</ele>
  <time>2026-09-01T01:17:10Z</time>
  <course>194.13</course>
  <speed>1.0</speed>
  <fix>3d</fix>
</trkpt>
<trkpt lat="33.8102203" lon="-118.3938492">
  <ele>-25.036</ele>
  <time>2026-09-01T01:17:10Z</time>
  <course>193.2</course>
  <speed>1.006628034578811</speed>
  <fix>3d</fix>
</trkpt>
<trkpt lat="33.8102216" lon="-118.393849">
  <ele>-24.43</ele>
  <time>2026-09-01T01:17:10Z</time>
  <course>194.13</course>
  <speed>1.0</speed>
  <fix>3d</fix>
</trkpt>
<trkpt lat="33.8102194" lon="-118.3938495">
  <ele>-25.036</ele>
  <time>2026-09-01T01:17:10Z</time>
  <course>193.18</course>
  <speed>1.006628034578811</speed>
  <fix>3d</fix>
</trkpt>
<trkpt lat="33.8102216" lon="-118.393849">
  <ele>-24.43</ele>
  <time>2026-09-01T01:17:10Z</time>
  <course>194.13</course>
  <speed>1.0</speed>
  <fix>3d</fix>
</trkpt>
<trkpt lat="33.8102185" lon="-118.3938498">
  <ele>-25.037</ele>
  <time>2026-09-01T01:17:10Z</time>
  <course>193.17</course>
  <speed>1.006628034578811</speed>
  <fix>3d</fix>
</trkpt>
<trkpt lat="33.8102198" lon="-118.3938495">
  <ele>-24.43</ele>
  <time>2026-09-01T01:17:10Z</time>
  <course>194.11</course>
  <speed>1.0</speed>
  <fix>3d</fix>
</trkpt>
<trkpt lat="33.8102176" lon="-118.39385">
  <ele>-25.036</ele>
  <time>2026-09-01T01:17:10Z</time>
  <course>193.17</course>
  <speed>1.006628034578811</speed>
  <fix>3d</fix>
</trkpt>
<trkpt lat="33.8102198" lon="-118.3938495">
  <ele>-24.43</ele>
  <time>2026-09-01T01:17:10Z</time>
  <course>194.11</course>
  <speed>1.0</speed>
  <fix>3d</fix>
</trkpt>
<trkpt lat="33.8102168" lon="-118.3938503">
  <ele>-25.036</ele>
  <time>2026-09-01T01:17:10Z</time>
  <course>193.18</course>
  <speed>1.006628034578811</speed>
  <fix>3d</fix>
</trkpt>
<trkpt lat="33.8102181" lon="-118.3938501">
  <ele>-24.43</ele>
  <time>2026-09-01T01:17:10Z</time>
  <course>194.13</course>
  <speed>1.0</speed>
  <fix>3d</fix>
</trkpt>
<trkpt lat="33.8102159" lon="-118.3938506">
  <ele>-25.035</ele>
  <time>2026-09-01T01:17:10Z</time>
  <course>193.18</course>
  <speed>1.006628034578811</speed>
  <fix>3d</fix>
</trkpt>
<trkpt lat="33.8102181" lon="-118.3938501">
  <ele>-24.43</ele>
  <time>2026-09-01T01:17:10Z</time>
  <course>194.13</course>
  <speed>1.0</speed>
  <fix>3d</fix>
</trkpt>
<trkpt lat="33.810215" lon="-118.3938508">
  <ele>-25.034</ele>
  <time>2026-09-01T01:17:10Z</time>
  <course>193.18</course>
  <speed>1.006628034578811</speed>
  <fix>3d</fix>
</trkpt>
<trkpt lat="33.8102164" lon="-118.3938506">
  <ele>-24.42</ele>
  <time>2026-09-01T01:17:10Z</time>
  <course>194.14</course>
  <speed>1.0</speed>
  <fix>3d</fix>
</trkpt>
<trkpt lat="33.8102142" lon="-118.3938511">
  <ele>-25.033</ele>
  <time>2026-09-01T01:17:10Z</time>
  <course>193.16</course>
  <speed>1.006628034578811</speed>
  <fix>3d</fix>
</trkpt>
<trkpt lat="33.8102164" lon="-118.3938506">
  <ele>-24.42</ele>
  <time>2026-09-01T01:17:10Z</time>
  <course>194.14</course>
  <speed>1.0</speed>
  <fix>3d</fix>
</trkpt>
<trkpt lat="33.8102133" lon="-118.3938514">
  <ele>-25.032</ele>
  <time>2026-09-01T01:17:10Z</time>
  <course>193.14</course>
  <speed>1.006628034578811</speed>
  <fix>3d</fix>
</trkpt>
<trkpt lat="33.8102146" lon="-118.3938511">
  <ele>-24.42</ele>
  <time>2026-09-01T01:17:10Z</time>
  <course>194.12</course>
  <speed>1.0</speed>
  <fix>3d</fix>
</trkpt>
<trkpt lat="33.8102124" lon="-118.3938516">
  <ele>-25.033</ele>
  <time>2026-09-01T01:17:10Z</time>
  <course>193.13</course>
  <speed>1.006628034578811</speed>
  <fix>3d</fix>
</trkpt>
<trkpt lat="33.8102146" lon="-118.3938511">
  <ele>-24.42</ele>
  <time>2026-09-01T01:17:10Z</time>
  <course>194.12</course>
  <speed>1.0</speed>
  <fix>3d</fix>
</trkpt>
<trkpt lat="33.8102115" lon="-118.3938519">
  <ele>-25.032</ele>
  <time>2026-09-01T01:17:10Z</time>
  <course>193.13</course>
  <speed>1.006628034578811</speed>
  <fix>3d</fix>
</trkpt>
<trkpt lat="33.8102129" lon="-118.3938516">
  <ele>-24.42</ele>
  <time>2026-09-01T01:17:10Z</time>
  <course>194.12</course>
  <speed>1.0</speed>
  <fix>3d</fix>
</trkpt>
<trkpt lat="33.8102107" lon="-118.3938522">
  <ele>-25.031</ele>
  <time>2026-09-01T01:17:10Z</time>
  <course>193.14</course>
  <speed>1.006628034578811</speed>
  <fix>3d</fix>
</trkpt>
<trkpt lat="33.8102129" lon="-118.3938516">
  <ele>-24.42</ele>
  <time>2026-09-01T01:17:10Z</time>
  <course>194.12</course>
  <speed>1.0</speed>
  <fix>3d</fix>
</trkpt>
<trkpt lat="33.8102098" lon="-118.3938524">
  <ele>-25.03</ele>
  <time>2026-09-01T01:17:10Z</time>
  <course>193.15</course>
  <speed>1.006628034578811</speed>
  <fix>3d</fix>
</trkpt>
<trkpt lat="33.8102112" lon="-118.3938522">
  <ele>-24.42</ele>
  <time>2026-09-01T01:17:10Z</time>
  <course>194.15</course>
  <speed>1.0</speed>
  <fix>3d</fix>
</trkpt>
<trkpt lat="33.8102089" lon="-118.3938527">
  <ele>-25.028</ele>
  <time>2026-09-01T01:17:10Z</time>
  <course>193.15</course>
  <speed>1.006628034578811</speed>
  <fix>3d</fix>
</trkpt>
<trkpt lat="33.8102112" lon="-118.3938522">
  <ele>-24.42</ele>
  <time>2026-09-01T01:17:10Z</time>
  <course>194.15</course>
  <speed>1.0</speed>
  <fix>3d</fix>
</trkpt>
<trkpt lat="33.810208" lon="-118.3938529">
  <ele>-25.027</ele>
  <time>2026-09-01T01:17:10Z</time>
  <course>193.14</course>
  <speed>1.006628034578811</speed>
  <fix>3d</fix>
</trkpt>
<trkpt lat="33.8102094" lon="-118.3938527">
  <ele>-24.42</ele>
  <time>2026-09-01T01:17:10Z</time>
  <course>194.16</course>
  <speed>1.0</speed>
  <fix>3d</fix>
</trkpt>
<trkpt lat="33.8102072" lon="-118.3938532">
  <ele>-25.026</ele>
  <time>2026-09-01T01:17:10Z</time>
  <course>193.12</course>
  <speed>1.006628034578811</speed>
  <fix>3d</fix>
</trkpt>
<trkpt lat="33.8102094" lon="-118.3938527">
  <ele>-24.42</ele>
  <time>2026-09-01T01:17:10Z</time>
  <course>194.16</course>
  <speed>1.0</speed>
  <fix>3d</fix>
</trkpt>
<trkpt lat="33.8102063" lon="-118.3938535">
  <ele>-25.025</ele>
  <time>2026-09-01T01:17:10Z</time>
  <course>193.11</course>
  <speed>1.006628034578811</speed>
  <fix>3d</fix>
</trkpt>
<trkpt lat="33.8102076" lon="-118.3938532">
  <ele>-24.42</ele>
  <time>2026-09-01T01:17:10Z</time>
  <course>194.15</course>
  <speed>1.0</speed>
  <fix>3d</fix>
</trkpt>
<trkpt lat="33.8102054" lon="-118.3938537">
  <ele>-25.025</ele>
  <time>2026-09-01T01:17:10Z</time>
  <course>193.1</course>
  <speed>1.006628034578811</speed>
  <fix>3d</fix>
</trkpt>
<trkpt lat="33.8102076" lon="-118.3938532">
  <ele>-24.42</ele>
  <time>2026-09-01T01:17:10Z</time>
  <course>194.15</course>
  <speed>1.0</speed>
  <fix>3d</fix>
</trkpt>
<trkpt lat="33.8102046" lon="-118.393854">
  <ele>-25.027</ele>
  <time>2026-09-01T01:17:10Z</time>
  <course>193.11</course>
  <speed>1.006628034578811</speed>
  <fix>3d</fix>
</trkpt>
<trkpt lat="33.8102059" lon="-118.3938537">
  <ele>-24.42</ele>
  <time>2026-09-01T01:17:10Z</time>
  <course>194.15</course>
  <speed>1.0</speed>
  <fix>3d</fix>
</trkpt>
<trkpt lat="33.8102037" lon="-118.3938543">
  <ele>-25.029</ele>
  <time>2026-09-01T01:17:10Z</time>
  <course>193.12</course>
  <speed>1.006628034578811</speed>
  <fix>3d</fix>
</trkpt>
<trkpt lat="33.8102059" lon="-118.3938537">
  <ele>-24.42</ele>
  <time>2026-09-01T01:17:10Z</time>
  <course>194.15</course>
  <speed>1.0</speed>
  <fix>3d</fix>
</trkpt>
<trkpt lat="33.8102028" lon="-118.3938545">
  <ele>-25.031</ele>
  <time>2026-09-01T01:17:10Z</time>
  <course>193.14</course>
  <speed>1.006628034578811</speed>
  <fix>3d</fix>
</trkpt>
<trkpt lat="33.8102042" lon="-118.3938543">
  <ele>-24.43</ele>
  <time>2026-09-01T01:17:10Z</time>
  <course>194.2</course>
  <speed>0.99</speed>
  <fix>3d</fix>
</trkpt>
<trkpt lat="33.8102019" lon="-118.3938548">
  <ele>-25.033</ele>
  <time>2026-09-01T01:17:10Z</time>
  <course>193.16</course>
  <speed>1.006628034578811</speed>
  <fix>3d</fix>
</trkpt>
<trkpt lat="33.8102042" lon="-118.3938543">
  <ele>-24.43</ele>
  <time>2026-09-01T01:17:10Z</time>
  <course>194.2</course>
  <speed>0.99</speed>
  <fix>3d</fix>
</trkpt>
<trkpt lat="33.8102011" lon="-118.393855">
  <ele>-25.035</ele>
  <time>2026-09-01T01:17:10Z</time>
  <course>193.16</course>
  <speed>1.006628034578811</speed>
  <fix>3d</fix>
</trkpt>
<trkpt lat="33.8102024" lon="-118.3938548">
  <ele>-24.43</ele>
  <time>2026-09-01T01:17:10Z</time>
  <course>194.2</course>
  <speed>0.99</speed>
  <fix>3d</fix>
</trkpt>
<trkpt lat="33.8102002" lon="-118.3938553">
  <ele>-25.036</ele>
  <time>2026-09-01T01:17:10Z</time>
  <course>193.15</course>
  <speed>1.006628034578811</speed>
  <fix>3d</fix>
</trkpt>
<trkpt lat="33.8102024" lon="-118.3938548">
  <ele>-24.43</ele>
  <time>2026-09-01T01:17:10Z</time>
  <course>194.2</course>
  <speed>0.99</speed>
  <fix>3d</fix>
</trkpt>
<trkpt lat="33.8101993" lon="-118.3938556">
  <ele>-25.037</ele>
  <time>2026-09-01T01:17:10Z</time>
  <course>193.14</course>
  <speed>1.006628034578811</speed>
  <fix>3d</fix>
</trkpt>
<trkpt lat="33.8102007" lon="-118.3938554">
  <ele>-24.44</ele>
  <time>2026-09-01T01:17:10Z</time>
  <course>194.18</course>
  <speed>0.99</speed>
  <fix>3d</fix>
</trkpt>
<trkpt lat="33.8101984" lon="-118.3938558">
  <ele>-25.037</ele>
  <time>2026-09-01T01:17:10Z</time>
  <course>193.13</course>
  <speed>1.006628034578811</speed>
  <fix>3d</fix>
</trkpt>
<trkpt lat="33.8102007" lon="-118.3938554">
  <ele>-24.44</ele>
  <time>2026-09-01T01:17:10Z</time>
  <course>194.18</course>
  <speed>0.99</speed>
  <fix>3d</fix>
</trkpt>
<trkpt lat="33.8101976" lon="-118.3938561">
  <ele>-25.037</ele>
  <time>2026-09-01T01:17:10Z</time>
  <course>193.1</course>
  <speed>1.006628034578811</speed>
  <fix>3d</fix>
</trkpt>
<trkpt lat="33.810199" lon="-118.3938559">
  <ele>-24.44</ele>
  <time>2026-09-01T01:17:10Z</time>
  <course>194.15</course>
  <speed>0.99</speed>
  <fix>3d</fix>
</trkpt>
<trkpt lat="33.8101967" lon="-118.3938564">
  <ele>-25.037</ele>
  <time>2026-09-01T01:17:10Z</time>
  <course>193.07</course>
  <speed>1.006628034578811</speed>
  <fix>3d</fix>
</trkpt>
<trkpt lat="33.810199" lon="-118.3938559">
  <ele>-24.44</ele>
  <time>2026-09-01T01:17:10Z</time>
  <course>194.15</course>
  <speed>0.99</speed>
  <fix>3d</fix>
</trkpt>
<trkpt lat="33.8101958" lon="-118.3938566">
  <ele>-25.037</ele>
  <time>2026-09-01T01:17:10Z</time>
  <course>193.03</course>
  <speed>1.006628034578811</speed>
  <fix>3d</fix>
</trkpt>
<trkpt lat="33.8101972" lon="-118.3938564">
  <ele>-24.44</ele>
  <time>2026-09-01T01:17:10Z</time>
  <course>194.09</course>
  <speed>0.99</speed>
  <fix>3d</fix>
</trkpt>
<trkpt lat="33.810195" lon="-118.3938569">
  <ele>-25.037</ele>
  <time>2026-09-01T01:17:10Z</time>
  <course>193.01</course>
  <speed>1.006628034578811</speed>
  <fix>3d</fix>
</trkpt>
<trkpt lat="33.8101972" lon="-118.3938564">
  <ele>-24.44</ele>
  <time>2026-09-01T01:17:10Z</time>
  <course>194.09</course>
  <speed>0.99</speed>
  <fix>3d</fix>
</trkpt>
<trkpt lat="33.8101941" lon="-118.3938572">
  <ele>-25.037</ele>
  <time>2026-09-01T01:17:10Z</time>
  <course>192.99</course>
  <speed>1.006628034578811</speed>
  <fix>3d</fix>
</trkpt>
<trkpt lat="33.8101954" lon="-118.3938569">
  <ele>-24.43</ele>
  <time>2026-09-01T01:17:10Z</time>
  <course>194.07</course>
  <speed>1.0</speed>
  <fix>3d</fix>
</trkpt>
<trkpt lat="33.8101932" lon="-118.3938574">
  <ele>-25.038</ele>
  <time>2026-09-01T01:17:10Z</time>
  <course>192.98</course>
  <speed>1.006628034578811</speed>
  <fix>3d</fix>
</trkpt>
<trkpt lat="33.8101954" lon="-118.3938569">
  <ele>-24.43</ele>
  <time>2026-09-01T01:17:10Z</time>
  <course>194.07</course>
  <speed>1.0</speed>
  <fix>3d</fix>
</trkpt>
<trkpt lat="33.8101923" lon="-118.3938577">
  <ele>-25.038</ele>
  <time>2026-09-01T01:17:10Z</time>
  <course>192.99</course>
  <speed>1.006628034578811</speed>
  <fix>3d</fix>
</trkpt>
<trkpt lat="33.8101937" lon="-118.3938575">
  <ele>-24.43</ele>
  <time>2026-09-01T01:17:10Z</time>
  <course>194.1</course>
  <speed>1.0</speed>
  <fix>3d</fix>
</trkpt>
<trkpt lat="33.8101915" lon="-118.393858">
  <ele>-25.038</ele>
  <time>2026-09-01T01:17:10Z</time>
  <course>193.01</course>
  <speed>1.006628034578811</speed>
  <fix>3d</fix>
</trkpt>
<trkpt lat="33.8101937" lon="-118.3938575">
  <ele>-24.43</ele>
  <time>2026-09-01T01:17:10Z</time>
  <course>194.1</course>
  <speed>1.0</speed>
  <fix>3d</fix>
</trkpt>
<trkpt lat="33.8101906" lon="-118.3938582">
  <ele>-25.036</ele>
  <time>2026-09-01T01:17:10Z</time>
  <course>193.0</course>
  <speed>1.006628034578811</speed>
  <fix>3d</fix>
</trkpt>
<trkpt lat="33.810192" lon="-118.393858">
  <ele>-24.43</ele>
  <time>2026-09-01T01:17:10Z</time>
  <course>194.13</course>
  <speed>0.99</speed>
  <fix>3d</fix>
</trkpt>
<trkpt lat="33.8101897" lon="-118.3938585">
  <ele>-25.034</ele>
  <time>2026-09-01T01:17:10Z</time>
  <course>192.99</course>
  <speed>1.006628034578811</speed>
  <fix>3d</fix>
</trkpt>
<trkpt lat="33.810192" lon="-118.393858">
  <ele>-24.43</ele>
  <time>2026-09-01T01:17:10Z</time>
  <course>194.13</course>
  <speed>0.99</speed>
  <fix>3d</fix>
</trkpt>
<trkpt lat="33.8101889" lon="-118.3938587">
  <ele>-25.032</ele>
  <time>2026-09-01T01:17:10Z</time>
  <course>192.97</course>
  <speed>1.006628034578811</speed>
  <fix>3d</fix>
</trkpt>
<trkpt lat="33.8101902" lon="-118.3938585">
  <ele>-24.42</ele>
  <time>2026-09-01T01:17:10Z</time>
  <course>194.11</course>
  <speed>0.99</speed>
  <fix>3d</fix>
</trkpt>
<trkpt lat="33.810188" lon="-118.393859">
  <ele>-25.031</ele>
  <time>2026-09-01T01:17:10Z</time>
  <course>192.95</course>
  <speed>1.006628034578811</speed>
  <fix>3d</fix>
</trkpt>
<trkpt lat="33.8101902" lon="-118.3938585">
  <ele>-24.42</ele>
  <time>2026-09-01T01:17:10Z</time>
  <course>194.11</course>
  <speed>0.99</speed>
  <fix>3d</fix>
</trkpt>
<trkpt lat="33.8101871" lon="-118.3938593">
  <ele>-25.029</ele>
  <time>2026-09-01T01:17:10Z</time>
  <course>192.95</course>
  <speed>1.006628034578811</speed>
  <fix>3d</fix>
</trkpt>
<trkpt lat="33.8101885" lon="-118.393859">
  <ele>-24.42</ele>
  <time>2026-09-01T01:17:10Z</time>
  <course>194.08</course>
  <speed>0.99</speed>
  <fix>3d</fix>
</trkpt>
<trkpt lat="33.8101862" lon="-118.3938595">
  <ele>-25.028</ele>
  <time>2026-09-01T01:17:10Z</time>
  <course>192.96</course>
  <speed>1.006628034578811</speed>
  <fix>3d</fix>
</trkpt>
<trkpt lat="33.8101885" lon="-118.393859">
  <ele>-24.42</ele>
  <time>2026-09-01T01:17:10Z</time>
  <course>194.08</course>
  <speed>0.99</speed>
  <fix>3d</fix>
</trkpt>
<trkpt lat="33.8101854" lon="-118.3938598">
  <ele>-25.027</ele>
  <time>2026-09-01T01:17:10Z</time>
  <course>192.98</course>
  <speed>1.006628034578811</speed>
  <fix>3d</fix>
</trkpt>
<trkpt lat="33.8101867" lon="-118.3938595">
  <ele>-24.42</ele>
  <time>2026-09-01T01:17:10Z</time>
  <course>194.1</course>
  <speed>0.99</speed>
  <fix>3d</fix>
</trkpt>
<trkpt lat="33.8101845" lon="-118.3938601">
  <ele>-25.027</ele>
  <time>2026-09-01T01:17:10Z</time>
  <course>193.0</course>
  <speed>1.006628034578811</speed>
  <fix>3d</fix>
</trkpt>
<trkpt lat="33.8101867" lon="-118.3938595">
  <ele>-24.42</ele>
  <time>2026-09-01T01:17:10Z</time>
  <course>194.1</course>
  <speed>0.99</speed>
  <fix>3d</fix>
</trkpt>
<trkpt lat="33.8101836" lon="-118.3938603">
  <ele>-25.028</ele>
  <time>2026-09-01T01:17:10Z</time>
  <course>193.03</course>
  <speed>1.006628034578811</speed>
  <fix>3d</fix>
</trkpt>
<trkpt lat="33.810185" lon="-118.3938601">
  <ele>-24.42</ele>
  <time>2026-09-01T01:17:10Z</time>
  <course>194.15</course>
  <speed>0.99</speed>
  <fix>3d</fix>
</trkpt>
<trkpt lat="33.8101828" lon="-118.3938606">
  <ele>-25.03</ele>
  <time>2026-09-01T01:17:10Z</time>
  <course>193.05</course>
  <speed>1.006628034578811</speed>
  <fix>3d</fix>
</trkpt>
<trkpt lat="33.810185" lon="-118.3938601">
  <ele>-24.42</ele>
  <time>2026-09-01T01:17:10Z</time>
  <course>194.15</course>
  <speed>0.99</speed>
  <fix>3d</fix>
</trkpt>
<trkpt lat="33.8101819" lon="-118.3938608">
  <ele>-25.031</ele>
  <time>2026-09-01T01:17:10Z</time>
  <course>193.07</course>
  <speed>1.006628034578811</speed>
  <fix>3d</fix>
</trkpt>
<trkpt lat="33.8101833" lon="-118.3938606">
  <ele>-24.42</ele>
  <time>2026-09-01T01:17:10Z</time>
  <course>194.19</course>
  <speed>0.99</speed>
  <fix>3d</fix>
</trkpt>
<trkpt lat="33.810181" lon="-118.3938611">
  <ele>-25.031</ele>
  <time>2026-09-01T01:17:10Z</time>
  <course>193.08</course>
  <speed>1.006628034578811</speed>
  <fix>3d</fix>
</trkpt>
<trkpt lat="33.8101833" lon="-118.3938606">
  <ele>-24.42</ele>
  <time>2026-09-01T01:17:10Z</time>
  <course>194.19</course>
  <speed>0.99</speed>
  <fix>3d</fix>
</trkpt>
<trkpt lat="33.8101801" lon="-118.3938614">
  <ele>-25.032</ele>
  <time>2026-09-01T01:17:10Z</time>
  <course>193.06</course>
  <speed>1.006628034578811</speed>
  <fix>3d</fix>
</trkpt>
<trkpt lat="33.8101815" lon="-118.3938612">
  <ele>-24.43</ele>
  <time>2026-09-01T01:17:10Z</time>
  <course>194.17</course>
  <speed>0.99</speed>
  <fix>3d</fix>
</trkpt>
<trkpt lat="33.8101792" lon="-118.3938616">
  <ele>-25.032</ele>
  <time>2026-09-01T01:17:10Z</time>
  <course>193.05</course>
  <speed>1.006628034578811</speed>
  <fix>3d</fix>
</trkpt>
<trkpt lat="33.8101815" lon="-118.3938612">
  <ele>-24.43</ele>
  <time>2026-09-01T01:17:10Z</time>
  <course>194.17</course>
  <speed>0.99</speed>
  <fix>3d</fix>
</trkpt>
<trkpt lat="33.8101784" lon="-118.3938619">
  <ele>-25.034</ele>
  <time>2026-09-01T01:17:10Z</time>
  <course>193.02</course>
  <speed>1.006628034578811</speed>
  <fix>3d</fix>
</trkpt>
<trkpt lat="33.8101798" lon="-118.3938617">
  <ele>-24.43</ele>
  <time>2026-09-01T01:17:10Z</time>
  <course>194.14</course>
  <speed>0.99</speed>
  <fix>3d</fix>
</trkpt>
<trkpt lat="33.8101775" lon="-118.3938622">
  <ele>-25.036</ele>
  <time>2026-09-01T01:17:10Z</time>
  <course>192.99</course>
  <speed>1.006628034578811</speed>
  <fix>3d</fix>
</trkpt>
<trkpt lat="33.8101798" lon="-118.3938617">
  <ele>-24.43</ele>
  <time>2026-09-01T01:17:10Z</time>
  <course>194.14</course>
  <speed>0.99</speed>
  <fix>3d</fix>
</trkpt>
<trkpt lat="33.8101766" lon="-118.3938624">
  <ele>-25.037</ele>
  <time>2026-09-01T01:17:10Z</time>
  <course>192.96</course>
  <speed>1.006628034578811</speed>
  <fix>3d</fix>
</trkpt>
<trkpt lat="33.8101781" lon="-118.3938622">
  <ele>-24.43</ele>
  <time>2026-09-01T01:17:10Z</time>
  <course>194.09</course>
  <speed>0.99</speed>
  <fix>3d</fix>
</trkpt>
<trkpt lat="33.8101758" lon="-118.3938627">
  <ele>-25.036</ele>
  <time>2026-09-01T01:17:10Z</time>
  <course>192.94</course>
  <speed>1.006628034578811</speed>
  <fix>3d</fix>
</trkpt>
<trkpt lat="33.8101781" lon="-118.3938622">
  <ele>-24.43</ele>
  <time>2026-09-01T01:17:10Z</time>
  <course>194.09</course>
  <speed>0.99</speed>
  <fix>3d</fix>
</trkpt>
<trkpt lat="33.8101749" lon="-118.393863">
  <ele>-25.034</ele>
  <time>2026-09-01T01:17:10Z</time>
  <course>192.92</course>
  <speed>1.006628034578811</speed>
  <fix>3d</fix>
</trkpt>
<trkpt lat="33.8101763" lon="-118.3938627">
  <ele>-24.43</ele>
  <time>2026-09-01T01:17:10Z</time>
  <course>194.03</course>
  <speed>0.99</speed>
  <fix>3d</fix>
</trkpt>
<trkpt lat="33.810174" lon="-118.3938632">
  <ele>-25.032</ele>
  <time>2026-09-01T01:17:10Z</time>
  <course>192.91</course>
  <speed>1.006628034578811</speed>
  <fix>3d</fix>
</trkpt>
<trkpt lat="33.8101763" lon="-118.3938627">
  <ele>-24.43</ele>
  <time>2026-09-01T01:17:10Z</time>
  <course>194.03</course>
  <speed>0.99</speed>
  <fix>3d</fix>
</trkpt>
<trkpt lat="33.8101732" lon="-118.3938635">
  <ele>-25.031</ele>
  <time>2026-09-01T01:17:10Z</time>
  <course>192.92</course>
  <speed>1.006628034578811</speed>
  <fix>3d</fix>
</trkpt>
<trkpt lat="33.8101745" lon="-118.3938633">
  <ele>-24.43</ele>
  <time>2026-09-01T01:17:10Z</time>
  <course>194.02</course>
  <speed>1.0</speed>
  <fix>3d</fix>
</trkpt>
<trkpt lat="33.8101723" lon="-118.3938637">
  <ele>-25.032</ele>
  <time>2026-09-01T01:17:10Z</time>
  <course>192.92</course>
  <speed>1.006628034578811</speed>
  <fix>3d</fix>
</trkpt>
<trkpt lat="33.8101745" lon="-118.3938633">
  <ele>-24.43</ele>
  <time>2026-09-01T01:17:10Z</time>
  <course>194.02</course>
  <speed>1.0</speed>
  <fix>3d</fix>
</trkpt>
<trkpt lat="33.8101714" lon="-118.393864">
  <ele>-25.032</ele>
  <time>2026-09-01T01:17:10Z</time>
  <course>192.92</course>
  <speed>1.006628034578811</speed>
  <fix>3d</fix>
</trkpt>
<trkpt lat="33.8101728" lon="-118.3938638">
  <ele>-24.42</ele>
  <time>2026-09-01T01:17:10Z</time>
  <course>194.05</course>
  <speed>0.99</speed>
  <fix>3d</fix>
</trkpt>
<trkpt lat="33.8101705" lon="-118.3938643">
  <ele>-25.033</ele>
  <time>2026-09-01T01:17:10Z</time>
  <course>192.92</course>
  <speed>1.006628034578811</speed>
  <fix>3d</fix>
</trkpt>
<trkpt lat="33.8101728" lon="-118.3938638">
  <ele>-24.42</ele>
  <time>2026-09-01T01:17:10Z</time>
  <course>194.05</course>
  <speed>0.99</speed>
  <fix>3d</fix>
</trkpt>
<trkpt lat="33.8101697" lon="-118.3938645">
  <ele>-25.033</ele>
  <time>2026-09-01T01:17:10Z</time>
  <course>192.91</course>
  <speed>1.006628034578811</speed>
  <fix>3d</fix>
</trkpt>
<trkpt lat="33.8101711" lon="-118.3938643">
  <ele>-24.42</ele>
  <time>2026-09-01T01:17:10Z</time>
  <course>194.05</course>
  <speed>0.99</speed>
  <fix>3d</fix>
</trkpt>
<trkpt lat="33.8101688" lon="-118.3938648">
  <ele>-25.033</ele>
  <time>2026-09-01T01:17:10Z</time>
  <course>192.9</course>
  <speed>1.006628034578811</speed>
  <fix>3d</fix>
</trkpt>
<trkpt lat="33.8101711" lon="-118.3938643">
  <ele>-24.42</ele>
  <time>2026-09-01T01:17:10Z</time>
  <course>194.05</course>
  <speed>0.99</speed>
  <fix>3d</fix>
</trkpt>
<trkpt lat="33.8101679" lon="-118.3938651">
  <ele>-25.032</ele>
  <time>2026-09-01T01:17:10Z</time>
  <course>192.9</course>
  <speed>1.006628034578811</speed>
  <fix>3d</fix>
</trkpt>
<trkpt lat="33.8101693" lon="-118.3938648">
  <ele>-24.42</ele>
  <time>2026-09-01T01:17:10Z</time>
  <course>194.05</course>
  <speed>0.99</speed>
  <fix>3d</fix>
</trkpt>
<trkpt lat="33.8101671" lon="-118.3938653">
  <ele>-25.03</ele>
  <time>2026-09-01T01:17:10Z</time>
  <course>192.9</course>
  <speed>1.006628034578811</speed>
  <fix>3d</fix>
</trkpt>
<trkpt lat="33.8101693" lon="-118.3938648">
  <ele>-24.42</ele>
  <time>2026-09-01T01:17:10Z</time>
  <course>194.05</course>
  <speed>0.99</speed>
  <fix>3d</fix>
</trkpt>
<trkpt lat="33.8101662" lon="-118.3938656">
  <ele>-25.028</ele>
  <time>2026-09-01T01:17:10Z</time>
  <course>192.92</course>
  <speed>1.006628034578811</speed>
  <fix>3d</fix>
</trkpt>
<trkpt lat="33.8101676" lon="-118.3938654">
  <ele>-24.42</ele>
  <time>2026-09-01T01:17:10Z</time>
  <course>194.07</course>
  <speed>0.99</speed>
  <fix>3d</fix>
</trkpt>
<trkpt lat="33.8101653" lon="-118.3938658">
  <ele>-25.026</ele>
  <time>2026-09-01T01:17:10Z</time>
  <course>192.93</course>
  <speed>1.006628034578811</speed>
  <fix>3d</fix>
</trkpt>
<trkpt lat="33.8101676" lon="-118.3938654">
  <ele>-24.42</ele>
  <time>2026-09-01T01:17:10Z</time>
  <course>194.07</course>
  <speed>0.99</speed>
  <fix>3d</fix>
</trkpt>
<trkpt lat="33.8101644" lon="-118.3938661">
  <ele>-25.025</ele>
  <time>2026-09-01T01:17:10Z</time>
  <course>192.93</course>
  <speed>1.006628034578811</speed>
  <fix>3d</fix>
</trkpt>
<trkpt lat="33.8101659" lon="-118.3938659">
  <ele>-24.42</ele>
  <time>2026-09-01T01:17:10Z</time>
  <course>194.08</course>
  <speed>0.99</speed>
  <fix>3d</fix>
</trkpt>
<trkpt lat="33.8101635" lon="-118.3938664">
  <ele>-25.024</ele>
  <time>2026-09-01T01:17:10Z</time>
  <course>192.92</course>
  <speed>1.006628034578811</speed>
  <fix>3d</fix>
</trkpt>
<trkpt lat="33.8101659" lon="-118.3938659">
  <ele>-24.42</ele>
  <time>2026-09-01T01:17:10Z</time>
  <course>194.08</course>
  <speed>0.99</speed>
  <fix>3d</fix>
</trkpt>
<trkpt lat="33.8101627" lon="-118.3938666">
  <ele>-25.025</ele>
  <time>2026-09-01T01:17:10Z</time>
  <course>192.91</course>
  <speed>1.006628034578811</speed>
  <fix>3d</fix>
</trkpt>
<trkpt lat="33.8101641" lon="-118.3938664">
  <ele>-24.42</ele>
  <time>2026-09-01T01:17:10Z</time>
  <course>194.05</course>
  <speed>0.99</speed>
  <fix>3d</fix>
</trkpt>
<trkpt lat="33.8101618" lon="-118.3938669">
  <ele>-25.028</ele>
  <time>2026-09-01T01:17:10Z</time>
  <course>192.89</course>
  <speed>1.006628034578811</speed>
  <fix>3d</fix>
</trkpt>
<trkpt lat="33.8101641" lon="-118.3938664">
  <ele>-24.42</ele>
  <time>2026-09-01T01:17:10Z</time>
  <course>194.05</course>
  <speed>0.99</speed>
  <fix>3d</fix>
</trkpt>
<trkpt lat="33.8101609" lon="-118.3938672">
  <ele>-25.031</ele>
  <time>2026-09-01T01:17:10Z</time>
  <course>192.89</course>
  <speed>1.006628034578811</speed>
  <fix>3d</fix>
</trkpt>
<trkpt lat="33.8101623" lon="-118.3938669">
  <ele>-24.43</ele>
  <time>2026-09-01T01:17:10Z</time>
  <course>194.03</course>
  <speed>0.99</speed>
  <fix>3d</fix>
</trkpt>
<trkpt lat="33.8101601" lon="-118.3938674">
  <ele>-25.034</ele>
  <time>2026-09-01T01:17:10Z</time>
  <course>192.91</course>
  <speed>1.006628034578811</speed>
  <fix>3d</fix>
</trkpt>
<trkpt lat="33.8101623" lon="-118.3938669">
  <ele>-24.43</ele>
  <time>2026-09-01T01:17:10Z</time>
  <course>194.03</course>
  <speed>0.99</speed>
  <fix>3d</fix>
</trkpt>
<trkpt lat="33.8101592" lon="-118.3938677">
  <ele>-25.036</ele>
  <time>2026-09-01T01:17:10Z</time>
  <course>192.93</course>
  <speed>1.006628034578811</speed>
  <fix>3d</fix>
</trkpt>
<trkpt lat="33.8101606" lon="-118.3938675">
  <ele>-24.43</ele>
  <time>2026-09-01T01:17:10Z</time>
  <course>194.06</course>
  <speed>0.99</speed>
  <fix>3d</fix>
</trkpt>
<trkpt lat="33.8101583" lon="-118.393868">
  <ele>-25.037</ele>
  <time>2026-09-01T01:17:10Z</time>
  <course>192.95</course>
  <speed>1.006628034578811</speed>
  <fix>3d</fix>
</trkpt>
<trkpt lat="33.8101606" lon="-118.3938675">
  <ele>-24.43</ele>
  <time>2026-09-01T01:17:10Z</time>
  <course>194.06</course>
  <speed>0.99</speed>
  <fix>3d</fix>
</trkpt>
<trkpt lat="33.8101574" lon="-118.3938682">
  <ele>-25.037</ele>
  <time>2026-09-01T01:17:10Z</time>
  <course>192.96</course>
  <speed>1.006628034578811</speed>
  <fix>3d</fix>
</trkpt>
<trkpt lat="33.8101589" lon="-118.393868">
  <ele>-24.43</ele>
  <time>2026-09-01T01:17:10Z</time>
  <course>194.1</course>
  <speed>0.99</speed>
  <fix>3d</fix>
</trkpt>
<trkpt lat="33.8101566" lon="-118.3938685">
  <ele>-25.037</ele>
  <time>2026-09-01T01:17:10Z</time>
  <course>192.96</course>
  <speed>1.006628034578811</speed>
  <fix>3d</fix>
</trkpt>
<trkpt lat="33.8101589" lon="-118.393868">
  <ele>-24.43</ele>
  <time>2026-09-01T01:17:10Z</time>
  <course>194.1</course>
  <speed>0.99</speed>
  <fix>3d</fix>
</trkpt>
<trkpt lat="33.8101557" lon="-118.3938687">
  <ele>-25.036</ele>
  <time>2026-09-01T01:17:10Z</time>
  <course>192.95</course>
  <speed>1.006628034578811</speed>
  <fix>3d</fix>
</trkpt>
<trkpt lat="33.8101571" lon="-118.3938685">
  <ele>-24.44</ele>
  <time>2026-09-01T01:17:10Z</time>
  <course>194.08</course>
  <speed>0.99</speed>
  <fix>3d</fix>
</trkpt>
<trkpt lat="33.8101548" lon="-118.393869">
  <ele>-25.034</ele>
  <time>2026-09-01T01:17:10Z</time>
  <course>192.94</course>
  <speed>1.006628034578811</speed>
  <fix>3d</fix>
</trkpt>
<trkpt lat="33.8101571" lon="-118.3938685">
  <ele>-24.44</ele>
  <time>2026-09-01T01:17:10Z</time>
  <course>194.08</course>
  <speed>0.99</speed>
  <fix>3d</fix>
</trkpt>
<trkpt lat="33.8101539" lon="-118.3938693">
  <ele>-25.032</ele>
  <time>2026-09-01T01:17:10Z</time>
  <course>192.94</course>
  <speed>1.006628034578811</speed>
  <fix>3d</fix>
</trkpt>
<trkpt lat="33.8101554" lon="-118.393869">
  <ele>-24.43</ele>
  <time>2026-09-01T01:17:10Z</time>
  <course>194.08</course>
  <speed>0.99</speed>
  <fix>3d</fix>
</trkpt>
<trkpt lat="33.8101531" lon="-118.3938695">
  <ele>-25.032</ele>
  <time>2026-09-01T01:17:10Z</time>
  <course>192.96</course>
  <speed>1.006628034578811</speed>
  <fix>3d</fix>
</trkpt>
<trkpt lat="33.8101554" lon="-118.393869">
  <ele>-24.43</ele>
  <time>2026-09-01T01:17:10Z</time>
  <course>194.08</course>
  <speed>0.99</speed>
  <fix>3d</fix>
</trkpt>
<trkpt lat="33.8101522" lon="-118.3938698">
  <ele>-25.032</ele>
  <time>2026-09-01T01:17:10Z</time>
  <course>192.97</course>
  <speed>1.006628034578811</speed>
  <fix>3d</fix>
</trkpt>
<trkpt lat="33.8101537" lon="-118.3938695">
  <ele>-24.43</ele>
  <time>2026-09-01T01:17:10Z</time>
  <course>194.11</course>
  <speed>0.99</speed>
  <fix>3d</fix>
</trkpt>
<trkpt lat="33.8101513" lon="-118.3938701">
  <ele>-25.032</ele>
  <time>2026-09-01T01:17:10Z</time>
  <course>192.99</course>
  <speed>1.006628034578811</speed>
  <fix>3d</fix>
</trkpt>
<trkpt lat="33.8101537" lon="-118.3938695">
  <ele>-24.43</ele>
  <time>2026-09-01T01:17:10Z</time>
  <course>194.11</course>
  <speed>0.99</speed>
  <fix>3d</fix>
</trkpt>
<trkpt lat="33.8101505" lon="-118.3938703">
  <ele>-25.032</ele>
  <time>2026-09-01T01:17:10Z</time>
  <course>193.01</course>
  <speed>1.006628034578811</speed>
  <fix>3d</fix>
</trkpt>
<trkpt lat="33.8101519" lon="-118.3938701">
  <ele>-24.43</ele>
  <time>2026-09-01T01:17:10Z</time>
  <course>194.15</course>
  <speed>0.99</speed>
  <fix>3d</fix>
</trkpt>
<trkpt lat="33.8101496" lon="-118.3938706">
  <ele>-25.033</ele>
  <time>2026-09-01T01:17:10Z</time>
  <course>193.03</course>
  <speed>1.006628034578811</speed>
  <fix>3d</fix>
</trkpt>
<trkpt lat="33.8101519" lon="-118.3938701">
  <ele>-24.43</ele>
  <time>2026-09-01T01:17:10Z</time>
  <course>194.15</course>
  <speed>0.99</speed>
  <fix>3d</fix>
</trkpt>
<trkpt lat="33.8101487" lon="-118.3938708">
  <ele>-25.034</ele>
  <time>2026-09-01T01:17:10Z</time>
  <course>193.04</course>
  <speed>1.006628034578811</speed>
  <fix>3d</fix>
</trkpt>
<trkpt lat="33.8101502" lon="-118.3938706">
  <ele>-24.43</ele>
  <time>2026-09-01T01:17:10Z</time>
  <course>194.17</course>
  <speed>0.99</speed>
  <fix>3d</fix>
</trkpt>
<trkpt lat="33.8101479" lon="-118.3938711">
  <ele>-25.035</ele>
  <time>2026-09-01T01:17:10Z</time>
  <course>193.03</course>
  <speed>1.006628034578811</speed>
  <fix>3d</fix>
</trkpt>
<trkpt lat="33.8101502" lon="-118.3938706">
  <ele>-24.43</ele>
  <time>2026-09-01T01:17:10Z</time>
  <course>194.17</course>
  <speed>0.99</speed>
  <fix>3d</fix>
</trkpt>
<trkpt lat="33.810147" lon="-118.3938714">
  <ele>-25.036</ele>
  <time>2026-09-01T01:17:10Z</time>
  <course>193.02</course>
  <speed>1.006628034578811</speed>
  <fix>3d</fix>
</trkpt>
<trkpt lat="33.8101484" lon="-118.3938711">
  <ele>-24.43</ele>
  <time>2026-09-01T01:17:10Z</time>
  <course>194.15</course>
  <speed>0.99</speed>
  <fix>3d</fix>
</trkpt>
<trkpt lat="33.8101461" lon="-118.3938716">
  <ele>-25.036</ele>
  <time>2026-09-01T01:17:10Z</time>
  <course>193.02</course>
  <speed>1.006628034578811</speed>
  <fix>3d</fix>
</trkpt>
<trkpt lat="33.8101484" lon="-118.3938711">
  <ele>-24.43</ele>
  <time>2026-09-01T01:17:10Z</time>
  <course>194.15</course>
  <speed>0.99</speed>
  <fix>3d</fix>
</trkpt>
<trkpt lat="33.8101452" lon="-118.3938719">
  <ele>-25.036</ele>
  <time>2026-09-01T01:17:10Z</time>
  <course>193.03</course>
  <speed>1.006628034578811</speed>
  <fix>3d</fix>
</trkpt>
<trkpt lat="33.8101467" lon="-118.3938717">
  <ele>-24.42</ele>
  <time>2026-09-01T01:17:10Z</time>
  <course>194.16</course>
  <speed>0.99</speed>
  <fix>3d</fix>
</trkpt>
<trkpt lat="33.8101444" lon="-118.3938722">
  <ele>-25.035</ele>
  <time>2026-09-01T01:17:10Z</time>
  <course>193.03</course>
  <speed>1.006628034578811</speed>
  <fix>3d</fix>
</trkpt>
<trkpt lat="33.8101467" lon="-118.3938717">
  <ele>-24.42</ele>
  <time>2026-09-01T01:17:10Z</time>
  <course>194.16</course>
  <speed>0.99</speed>
  <fix>3d</fix>
</trkpt>
<trkpt lat="33.8101435" lon="-118.3938724">
  <ele>-25.032</ele>
  <time>2026-09-01T01:17:10Z</time>
  <course>193.02</course>
  <speed>1.016366075781753</speed>
  <fix>3d</fix>
</trkpt>
<trkpt lat="33.810145" lon="-118.3938722">
  <ele>-24.42</ele>
  <time>2026-09-01T01:17:10Z</time>
  <course>194.16</course>
  <speed>0.99</speed>
  <fix>3d</fix>
</trkpt>
<trkpt lat="33.8101426" lon="-118.3938727">
  <ele>-25.03</ele>
  <time>2026-09-01T01:17:10Z</time>
  <course>193.0</course>
  <speed>1.016366075781753</speed>
  <fix>3d</fix>
</trkpt>
<trkpt lat="33.810145" lon="-118.3938722">
  <ele>-24.42</ele>
  <time>2026-09-01T01:17:10Z</time>
  <course>194.16</course>
  <speed>0.99</speed>
  <fix>3d</fix>
</trkpt>
<trkpt lat="33.8101417" lon="-118.393873">
  <ele>-25.029</ele>
  <time>2026-09-01T01:17:10Z</time>
  <course>192.98</course>
  <speed>1.016366075781753</speed>
  <fix>3d</fix>
</trkpt>
<trkpt lat="33.8101432" lon="-118.3938727">
  <ele>-24.42</ele>
  <time>2026-09-01T01:17:10Z</time>
  <course>194.12</course>
  <speed>0.99</speed>
  <fix>3d</fix>
</trkpt>
<trkpt lat="33.8101409" lon="-118.3938732">
  <ele>-25.028</ele>
  <time>2026-09-01T01:17:10Z</time>
  <course>192.97</course>
  <speed>1.016366075781753</speed>
  <fix>3d</fix>
</trkpt>
<trkpt lat="33.8101432" lon="-118.3938727">
  <ele>-24.42</ele>
  <time>2026-09-01T01:17:10Z</time>
  <course>194.12</course>
  <speed>0.99</speed>
  <fix>3d</fix>
</trkpt>
<trkpt lat="33.81014" lon="-118.3938735">
  <ele>-25.028</ele>
  <time>2026-09-01T01:17:10Z</time>
  <course>192.96</course>
  <speed>1.016366075781753</speed>
  <fix>3d</fix>
</trkpt>
<trkpt lat="33.8101415" lon="-118.3938732">
  <ele>-24.42</ele>
  <time>2026-09-01T01:17:10Z</time>
  <course>194.09</course>
  <speed>0.99</speed>
  <fix>3d</fix>
</trkpt>
<trkpt lat="33.8101391" lon="-118.3938737">
  <ele>-25.028</ele>
  <time>2026-09-01T01:17:10Z</time>
  <course>192.97</course>
  <speed>1.016366075781753</speed>
  <fix>3d</fix>
</trkpt>
<trkpt lat="33.8101415" lon="-118.3938732">
  <ele>-24.42</ele>
  <time>2026-09-01T01:17:10Z</time>
  <course>194.09</course>
  <speed>0.99</speed>
  <fix>3d</fix>
</trkpt>
<trkpt lat="33.8101383" lon="-118.393874">
  <ele>-25.027</ele>
  <time>2026-09-01T01:17:10Z</time>
  <course>192.98</course>
  <speed>1.016366075781753</speed>
  <fix>3d</fix>
</trkpt>
<trkpt lat="33.8101398" lon="-118.3938738">
  <ele>-24.42</ele>
  <time>2026-09-01T01:17:10Z</time>
  <course>194.1</course>
  <speed>0.99</speed>
  <fix>3d</fix>
</trkpt>
<trkpt lat="33.8101374" lon="-118.3938743">
  <ele>-25.027</ele>
  <time>2026-09-01T01:17:10Z</time>
  <course>192.99</course>
  <speed>1.016366075781753</speed>
  <fix>3d</fix>
</trkpt>
<trkpt lat="33.8101398" lon="-118.3938738">
  <ele>-24.42</ele>
  <time>2026-09-01T01:17:10Z</time>
  <course>194.1</course>
  <speed>0.99</speed>
  <fix>3d</fix>
</trkpt>
<trkpt lat="33.8101365" lon="-118.3938745">
  <ele>-25.029</ele>
  <time>2026-09-01T01:17:10Z</time>
  <course>192.98</course>
  <speed>1.016366075781753</speed>
  <fix>3d</fix>
</trkpt>
<trkpt lat="33.810138" lon="-118.3938743">
  <ele>-24.42</ele>
  <time>2026-09-01T01:17:10Z</time>
  <course>194.11</course>
  <speed>1.0</speed>
  <fix>3d</fix>
</trkpt>
<trkpt lat="33.8101356" lon="-118.3938748">
  <ele>-25.03</ele>
  <time>2026-09-01T01:17:10Z</time>
  <course>192.97</course>
  <speed>1.016366075781753</speed>
  <fix>3d</fix>
</trkpt>
<trkpt lat="33.810138" lon="-118.3938743">
  <ele>-24.42</ele>
  <time>2026-09-01T01:17:10Z</time>
  <course>194.11</course>
  <speed>1.0</speed>
  <fix>3d</fix>
</trkpt>
<trkpt lat="33.8101348" lon="-118.3938751">
  <ele>-25.03</ele>
  <time>2026-09-01T01:17:10Z</time>
  <course>192.96</course>
  <speed>1.016366075781753</speed>
  <fix>3d</fix>
</trkpt>
<trkpt lat="33.8101362" lon="-118.3938748">
  <ele>-24.42</ele>
  <time>2026-09-01T01:17:10Z</time>
  <course>194.07</course>
  <speed>1.0</speed>
  <fix>3d</fix>
</trkpt>
<trkpt lat="33.8101339" lon="-118.3938753">
  <ele>-25.03</ele>
  <time>2026-09-01T01:17:10Z</time>
  <course>192.96</course>
  <speed>1.016366075781753</speed>
  <fix>3d</fix>
</trkpt>
<trkpt lat="33.8101362" lon="-118.3938748">
  <ele>-24.42</ele>
  <time>2026-09-01T01:17:10Z</time>
  <course>194.07</course>
  <speed>1.0</speed>
  <fix>3d</fix>
</trkpt>
<trkpt lat="33.810133" lon="-118.3938756">
  <ele>-25.03</ele>
  <time>2026-09-01T01:17:11Z</time>
  <course>192.97</course>
  <speed>1.016366075781753</speed>
  <fix>3d</fix>
</trkpt>
<trkpt lat="33.8101345" lon="-118.3938753">
  <ele>-24.42</ele>
  <time>2026-09-01T01:17:11Z</time>
  <course>194.08</course>
  <speed>1.0</speed>
  <fix>3d</fix>
</trkpt>
<trkpt lat="33.8101321" lon="-118.3938758">
  <ele>-25.03</ele>
  <time>2026-09-01T01:17:11Z</time>
  <course>192.98</course>
  <speed>1.016366075781753</speed>
  <fix>3d</fix>
</trkpt>
<trkpt lat="33.8101345" lon="-118.3938753">
  <ele>-24.42</ele>
  <time>2026-09-01T01:17:11Z</time>
  <course>194.08</course>
  <speed>1.0</speed>
  <fix>3d</fix>
</trkpt>
<trkpt lat="33.8101313" lon="-118.3938761">
  <ele>-25.028</ele>
  <time>2026-09-01T01:17:11Z</time>
  <course>193.0</course>
  <speed>1.016366075781753</speed>
  <fix>3d</fix>
</trkpt>
<trkpt lat="33.8101328" lon="-118.3938759">
  <ele>-24.42</ele>
  <time>2026-09-01T01:17:11Z</time>
  <course>194.12</course>
  <speed>0.99</speed>
  <fix>3d</fix>
</trkpt>
<trkpt lat="33.8101304" lon="-118.3938764">
  <ele>-25.028</ele>
  <time>2026-09-01T01:17:11Z</time>
  <course>193.03</course>
  <speed>1.016366075781753</speed>
  <fix>3d</fix>
</trkpt>
<trkpt lat="33.8101328" lon="-118.3938759">
  <ele>-24.42</ele>
  <time>2026-09-01T01:17:11Z</time>
  <course>194.12</course>
  <speed>0.99</speed>
  <fix>3d</fix>
</trkpt>
<trkpt lat="33.8101296" lon="-118.3938766">
  <ele>-25.027</ele>
  <time>2026-09-01T01:17:11Z</time>
  <course>193.02</course>
  <speed>1.016366075781753</speed>
  <fix>3d</fix>
</trkpt>
<trkpt lat="33.810131" lon="-118.3938764">
  <ele>-24.42</ele>
  <time>2026-09-01T01:17:11Z</time>
  <course>194.12</course>
  <speed>0.99</speed>
  <fix>3d</fix>
</trkpt>
<trkpt lat="33.8101287" lon="-118.3938769">
  <ele>-25.027</ele>
  <time>2026-09-01T01:17:11Z</time>
  <course>193.02</course>
  <speed>1.016366075781753</speed>
  <fix>3d</fix>
</trkpt>
<trkpt lat="33.810131" lon="-118.3938764">
  <ele>-24.42</ele>
  <time>2026-09-01T01:17:11Z</time>
  <course>194.12</course>
  <speed>0.99</speed>
  <fix>3d</fix>
</trkpt>
<trkpt lat="33.8101278" lon="-118.3938772">
  <ele>-25.027</ele>
  <time>2026-09-01T01:17:11Z</time>
  <course>193.01</course>
  <speed>1.016366075781753</speed>
  <fix>3d</fix>
</trkpt>
<trkpt lat="33.8101293" lon="-118.3938769">
  <ele>-24.42</ele>
  <time>2026-09-01T01:17:11Z</time>
  <course>194.09</course>
  <speed>0.99</speed>
  <fix>3d</fix>
</trkpt>
<trkpt lat="33.8101269" lon="-118.3938774">
  <ele>-25.029</ele>
  <time>2026-09-01T01:17:11Z</time>
  <course>193.01</course>
  <speed>1.016366075781753</speed>
  <fix>3d</fix>
</trkpt>
<trkpt lat="33.8101293" lon="-118.3938769">
  <ele>-24.42</ele>
  <time>2026-09-01T01:17:11Z</time>
  <course>194.09</course>
  <speed>0.99</speed>
  <fix>3d</fix>
</trkpt>
<trkpt lat="33.810126" lon="-118.3938777">
  <ele>-25.03</ele>
  <time>2026-09-01T01:17:11Z</time>
  <course>193.01</course>
  <speed>1.016366075781753</speed>
  <fix>3d</fix>
</trkpt>
<trkpt lat="33.8101276" lon="-118.3938775">
  <ele>-24.42</ele>
  <time>2026-09-01T01:17:11Z</time>
  <course>194.1</course>
  <speed>1.0</speed>
  <fix>3d</fix>
</trkpt>
<trkpt lat="33.8101252" lon="-118.393878">
  <ele>-25.032</ele>
  <time>2026-09-01T01:17:11Z</time>
  <course>193.01</course>
  <speed>1.016366075781753</speed>
  <fix>3d</fix>
</trkpt>
<trkpt lat="33.8101276" lon="-118.3938775">
  <ele>-24.42</ele>
  <time>2026-09-01T01:17:11Z</time>
  <course>194.1</course>
  <speed>1.0</speed>
  <fix>3d</fix>
</trkpt>
<trkpt lat="33.8101243" lon="-118.3938782">
  <ele>-25.033</ele>
  <time>2026-09-01T01:17:11Z</time>
  <course>192.99</course>
  <speed>1.016366075781753</speed>
  <fix>3d</fix>
</trkpt>
<trkpt lat="33.8101258" lon="-118.393878">
  <ele>-24.42</ele>
  <time>2026-09-01T01:17:11Z</time>
  <course>194.08</course>
  <speed>1.0</speed>
  <fix>3d</fix>
</trkpt>
<trkpt lat="33.8101234" lon="-118.3938785">
  <ele>-25.035</ele>
  <time>2026-09-01T01:17:11Z</time>
  <course>192.96</course>
  <speed>1.016366075781753</speed>
  <fix>3d</fix>
</trkpt>
<trkpt lat="33.8101258" lon="-118.393878">
  <ele>-24.42</ele>
  <time>2026-09-01T01:17:11Z</time>
  <course>194.08</course>
  <speed>1.0</speed>
  <fix>3d</fix>
</trkpt>
<trkpt lat="33.8101226" lon="-118.3938787">
  <ele>-25.035</ele>
  <time>2026-09-01T01:17:11Z</time>
  <course>192.94</course>
  <speed>1.016366075781753</speed>
  <fix>3d</fix>
</trkpt>
<trkpt lat="33.810124" lon="-118.3938785">
  <ele>-24.43</ele>
  <time>2026-09-01T01:17:11Z</time>
  <course>194.04</course>
  <speed>1.0</speed>
  <fix>3d</fix>
</trkpt>
<trkpt lat="33.8101217" lon="-118.393879">
  <ele>-25.036</ele>
  <time>2026-09-01T01:17:11Z</time>
  <course>192.93</course>
  <speed>1.016366075781753</speed>
  <fix>3d</fix>
</trkpt>
<trkpt lat="33.810124" lon="-118.3938785">
  <ele>-24.43</ele>
  <time>2026-09-01T01:17:11Z</time>
  <course>194.04</course>
  <speed>1.0</speed>
  <fix>3d</fix>
</trkpt>
<trkpt lat="33.8101208" lon="-118.3938793">
  <ele>-25.035</ele>
  <time>2026-09-01T01:17:11Z</time>
  <course>192.93</course>
  <speed>1.016366075781753</speed>
  <fix>3d</fix>
</trkpt>
<trkpt lat="33.8101223" lon="-118.393879">
  <ele>-24.42</ele>
  <time>2026-09-01T01:17:11Z</time>
  <course>194.05</course>
  <speed>1.0</speed>
  <fix>3d</fix>
</trkpt>
<trkpt lat="33.8101199" lon="-118.3938795">
  <ele>-25.034</ele>
  <time>2026-09-01T01:17:11Z</time>
  <course>192.94</course>
  <speed>1.016366075781753</speed>
  <fix>3d</fix>
</trkpt>
<trkpt lat="33.8101223" lon="-118.393879">
  <ele>-24.42</ele>
  <time>2026-09-01T01:17:11Z</time>
  <course>194.05</course>
  <speed>1.0</speed>
  <fix>3d</fix>
</trkpt>
<trkpt lat="33.8101191" lon="-118.3938798">
  <ele>-25.032</ele>
  <time>2026-09-01T01:17:11Z</time>
  <course>192.96</course>
  <speed>1.016366075781753</speed>
  <fix>3d</fix>
</trkpt>
<trkpt lat="33.8101206" lon="-118.3938796">
  <ele>-24.42</ele>
  <time>2026-09-01T01:17:11Z</time>
  <course>194.08</course>
  <speed>1.0</speed>
  <fix>3d</fix>
</trkpt>
<trkpt lat="33.8101182" lon="-118.3938801">
  <ele>-25.031</ele>
  <time>2026-09-01T01:17:11Z</time>
  <course>192.96</course>
  <speed>1.016366075781753</speed>
  <fix>3d</fix>
</trkpt>
<trkpt lat="33.8101206" lon="-118.3938796">
  <ele>-24.42</ele>
  <time>2026-09-01T01:17:11Z</time>
  <course>194.08</course>
  <speed>1.0</speed>
  <fix>3d</fix>
</trkpt>
<trkpt lat="33.8101173" lon="-118.3938803">
  <ele>-25.03</ele>
  <time>2026-09-01T01:17:11Z</time>
  <course>192.96</course>
  <speed>1.016366075781753</speed>
  <fix>3d</fix>
</trkpt>
<trkpt lat="33.8101188" lon="-118.3938801">
  <ele>-24.42</ele>
  <time>2026-09-01T01:17:11Z</time>
  <course>194.09</course>
  <speed>1.0</speed>
  <fix>3d</fix>
</trkpt>
<trkpt lat="33.8101164" lon="-118.3938806">
  <ele>-25.028</ele>
  <time>2026-09-01T01:17:11Z</time>
  <course>192.95</course>
  <speed>1.016366075781753</speed>
  <fix>3d</fix>
</trkpt>
<trkpt lat="33.8101188" lon="-118.3938801">
  <ele>-24.42</ele>
  <time>2026-09-01T01:17:11Z</time>
  <course>194.09</course>
  <speed>1.0</speed>
  <fix>3d</fix>
</trkpt>
<trkpt lat="33.8101156" lon="-118.3938808">
  <ele>-25.028</ele>
  <time>2026-09-01T01:17:11Z</time>
  <course>192.94</course>
  <speed>1.016366075781753</speed>
  <fix>3d</fix>
</trkpt>
<trkpt lat="33.8101171" lon="-118.3938806">
  <ele>-24.41</ele>
  <time>2026-09-01T01:17:11Z</time>
  <course>194.07</course>
  <speed>1.0</speed>
  <fix>3d</fix>
</trkpt>
<trkpt lat="33.8101147" lon="-118.3938811">
  <ele>-25.028</ele>
  <time>2026-09-01T01:17:11Z</time>
  <course>192.93</course>
  <speed>1.016366075781753</speed>
  <fix>3d</fix>
</trkpt>
<trkpt lat="33.8101171" lon="-118.3938806">
  <ele>-24.41</ele>
  <time>2026-09-01T01:17:11Z</time>
  <course>194.07</course>
  <speed>1.0</speed>
  <fix>3d</fix>
</trkpt>
<trkpt lat="33.8101138" lon="-118.3938814">
  <ele>-25.029</ele>
  <time>2026-09-01T01:17:11Z</time>
  <course>192.93</course>
  <speed>1.016366075781753</speed>
  <fix>3d</fix>
</trkpt>
<trkpt lat="33.8101154" lon="-118.3938811">
  <ele>-24.41</ele>
  <time>2026-09-01T01:17:11Z</time>
  <course>194.06</course>
  <speed>1.0</speed>
  <fix>3d</fix>
</trkpt>
<trkpt lat="33.810113" lon="-118.3938816">
  <ele>-25.028</ele>
  <time>2026-09-01T01:17:11Z</time>
  <course>192.94</course>
  <speed>1.016366075781753</speed>
  <fix>3d</fix>
</trkpt>
<trkpt lat="33.8101154" lon="-118.3938811">
  <ele>-24.41</ele>
  <time>2026-09-01T01:17:11Z</time>
  <course>194.06</course>
  <speed>1.0</speed>
  <fix>3d</fix>
</trkpt>
<trkpt lat="33.8101121" lon="-118.3938819">
  <ele>-25.028</ele>
  <time>2026-09-01T01:17:11Z</time>
  <course>192.94</course>
  <speed>1.016366075781753</speed>
  <fix>3d</fix>
</trkpt>
<trkpt lat="33.8101136" lon="-118.3938817">
  <ele>-24.41</ele>
  <time>2026-09-01T01:17:11Z</time>
  <course>194.07</course>
  <speed>1.0</speed>
  <fix>3d</fix>
</trkpt>
<trkpt lat="33.8101112" lon="-118.3938822">
  <ele>-25.028</ele>
  <time>2026-09-01T01:17:11Z</time>
  <course>192.95</course>
  <speed>1.016366075781753</speed>
  <fix>3d</fix>
</trkpt>
<trkpt lat="33.8101136" lon="-118.3938817">
  <ele>-24.41</ele>
  <time>2026-09-01T01:17:11Z</time>
  <course>194.07</course>
  <speed>1.0</speed>
  <fix>3d</fix>
</trkpt>
<trkpt lat="33.8101104" lon="-118.3938824">
  <ele>-25.027</ele>
  <time>2026-09-01T01:17:11Z</time>
  <course>192.95</course>
  <speed>1.016366075781753</speed>
  <fix>3d</fix>
</trkpt>
<trkpt lat="33.8101118" lon="-118.3938822">
  <ele>-24.42</ele>
  <time>2026-09-01T01:17:11Z</time>
  <course>194.06</course>
  <speed>1.0</speed>
  <fix>3d</fix>
</trkpt>
<trkpt lat="33.8101095" lon="-118.3938827">
  <ele>-25.027</ele>
  <time>2026-09-01T01:17:11Z</time>
  <course>192.95</course>
  <speed>1.016366075781753</speed>
  <fix>3d</fix>
</trkpt>
<trkpt lat="33.8101118" lon="-118.3938822">
  <ele>-24.42</ele>
  <time>2026-09-01T01:17:11Z</time>
  <course>194.06</course>
  <speed>1.0</speed>
  <fix>3d</fix>
</trkpt>
<trkpt lat="33.8101086" lon="-118.3938829">
  <ele>-25.026</ele>
  <time>2026-09-01T01:17:11Z</time>
  <course>192.95</course>
  <speed>1.016366075781753</speed>
  <fix>3d</fix>
</trkpt>
<trkpt lat="33.8101101" lon="-118.3938827">
  <ele>-24.42</ele>
  <time>2026-09-01T01:17:11Z</time>
  <course>194.04</course>
  <speed>1.0</speed>
  <fix>3d</fix>
</trkpt>
<trkpt lat="33.8101077" lon="-118.3938832">
  <ele>-25.026</ele>
  <time>2026-09-01T01:17:11Z</time>
  <course>192.95</course>
  <speed>1.016366075781753</speed>
  <fix>3d</fix>
</trkpt>
<trkpt lat="33.8101101" lon="-118.3938827">
  <ele>-24.42</ele>
  <time>2026-09-01T01:17:11Z</time>
  <course>194.04</course>
  <speed>1.0</speed>
  <fix>3d</fix>
</trkpt>
<trkpt lat="33.8101069" lon="-118.3938835">
  <ele>-25.027</ele>
  <time>2026-09-01T01:17:11Z</time>
  <course>192.96</course>
  <speed>1.016366075781753</speed>
  <fix>3d</fix>
</trkpt>
<trkpt lat="33.8101084" lon="-118.3938833">
  <ele>-24.42</ele>
  <time>2026-09-01T01:17:11Z</time>
  <course>194.06</course>
  <speed>1.0</speed>
  <fix>3d</fix>
</trkpt>
<trkpt lat="33.810106" lon="-118.3938837">
  <ele>-25.027</ele>
  <time>2026-09-01T01:17:11Z</time>
  <course>192.96</course>
  <speed>1.016366075781753</speed>
  <fix>3d</fix>
</trkpt>
<trkpt lat="33.8101084" lon="-118.3938833">
  <ele>-24.42</ele>
  <time>2026-09-01T01:17:11Z</time>
  <course>194.06</course>
  <speed>1.0</speed>
  <fix>3d</fix>
</trkpt>
<trkpt lat="33.8101051" lon="-118.393884">
  <ele>-25.027</ele>
  <time>2026-09-01T01:17:11Z</time>
  <course>192.94</course>
  <speed>1.016366075781753</speed>
  <fix>3d</fix>
</trkpt>
<trkpt lat="33.8101066" lon="-118.3938838">
  <ele>-24.42</ele>
  <time>2026-09-01T01:17:11Z</time>
  <course>194.06</course>
  <speed>1.0</speed>
  <fix>3d</fix>
</trkpt>
<trkpt lat="33.8101043" lon="-118.3938843">
  <ele>-25.028</ele>
  <time>2026-09-01T01:17:11Z</time>
  <course>192.93</course>
  <speed>1.016366075781753</speed>
  <fix>3d</fix>
</trkpt>
<trkpt lat="33.8101066" lon="-118.3938838">
  <ele>-24.42</ele>
  <time>2026-09-01T01:17:11Z</time>
  <course>194.06</course>
  <speed>1.0</speed>
  <fix>3d</fix>
</trkpt>
<trkpt lat="33.8101034" lon="-118.3938845">
  <ele>-25.03</ele>
  <time>2026-09-01T01:17:11Z</time>
  <course>192.91</course>
  <speed>1.016366075781753</speed>
  <fix>3d</fix>
</trkpt>
<trkpt lat="33.8101049" lon="-118.3938843">
  <ele>-24.42</ele>
  <time>2026-09-01T01:17:11Z</time>
  <course>194.01</course>
  <speed>1.0</speed>
  <fix>3d</fix>
</trkpt>
<trkpt lat="33.8101025" lon="-118.3938848">
  <ele>-25.031</ele>
  <time>2026-09-01T01:17:11Z</time>
  <course>192.9</course>
  <speed>1.016366075781753</speed>
  <fix>3d</fix>
</trkpt>
<trkpt lat="33.8101049" lon="-118.3938843">
  <ele>-24.42</ele>
  <time>2026-09-01T01:17:11Z</time>
  <course>194.01</course>
  <speed>1.0</speed>
  <fix>3d</fix>
</trkpt>
<trkpt lat="33.8101016" lon="-118.3938851">
  <ele>-25.031</ele>
  <time>2026-09-01T01:17:11Z</time>
  <course>192.89</course>
  <speed>1.016366075781753</speed>
  <fix>3d</fix>
</trkpt>
<trkpt lat="33.810103" lon="-118.3938848">
  <ele>-24.42</ele>
  <time>2026-09-01T01:17:11Z</time>
  <course>193.98</course>
  <speed>1.0</speed>
  <fix>3d</fix>
</trkpt>
<trkpt lat="33.8101008" lon="-118.3938853">
  <ele>-25.032</ele>
  <time>2026-09-01T01:17:11Z</time>
  <course>192.89</course>
  <speed>1.016366075781753</speed>
  <fix>3d</fix>
</trkpt>
<trkpt lat="33.810103" lon="-118.3938848">
  <ele>-24.42</ele>
  <time>2026-09-01T01:17:11Z</time>
  <course>193.98</course>
  <speed>1.0</speed>
  <fix>3d</fix>
</trkpt>
<trkpt lat="33.8100999" lon="-118.3938856">
  <ele>-25.033</ele>
  <time>2026-09-01T01:17:11Z</time>
  <course>192.91</course>
  <speed>1.016366075781753</speed>
  <fix>3d</fix>
</trkpt>
<trkpt lat="33.8101013" lon="-118.3938853">
  <ele>-24.43</ele>
  <time>2026-09-01T01:17:11Z</time>
  <course>194.02</course>
  <speed>1.0</speed>
  <fix>3d</fix>
</trkpt>
<trkpt lat="33.810099" lon="-118.3938858">
  <ele>-25.033</ele>
  <time>2026-09-01T01:17:11Z</time>
  <course>192.95</course>
  <speed>1.016366075781753</speed>
  <fix>3d</fix>
</trkpt>
<trkpt lat="33.8101013" lon="-118.3938853">
  <ele>-24.43</ele>
  <time>2026-09-01T01:17:11Z</time>
  <course>194.02</course>
  <speed>1.0</speed>
  <fix>3d</fix>
</trkpt>
<trkpt lat="33.8100981" lon="-118.3938861">
  <ele>-25.033</ele>
  <time>2026-09-01T01:17:11Z</time>
  <course>192.99</course>
  <speed>1.016366075781753</speed>
  <fix>3d</fix>
</trkpt>
<trkpt lat="33.8100996" lon="-118.3938859">
  <ele>-24.43</ele>
  <time>2026-09-01T01:17:11Z</time>
  <course>194.1</course>
  <speed>1.0</speed>
  <fix>3d</fix>
</trkpt>
<trkpt lat="33.8100973" lon="-118.3938864">
  <ele>-25.033</ele>
  <time>2026-09-01T01:17:11Z</time>
  <course>193.02</course>
  <speed>1.016366075781753</speed>
  <fix>3d</fix>
</trkpt>
<trkpt lat="33.8100996" lon="-118.3938859">
  <ele>-24.43</ele>
  <time>2026-09-01T01:17:11Z</time>
  <course>194.1</course>
  <speed>1.0</speed>
  <fix>3d</fix>
</trkpt>
<trkpt lat="33.8100964" lon="-118.3938866">
  <ele>-25.031</ele>
  <time>2026-09-01T01:17:11Z</time>
  <course>193.03</course>
  <speed>1.016366075781753</speed>
  <fix>3d</fix>
</trkpt>
<trkpt lat="33.8100978" lon="-118.3938864">
  <ele>-24.42</ele>
  <time>2026-09-01T01:17:11Z</time>
  <course>194.14</course>
  <speed>1.0</speed>
  <fix>3d</fix>
</trkpt>
<trkpt lat="33.8100955" lon="-118.3938869">
  <ele>-25.029</ele>
  <time>2026-09-01T01:17:11Z</time>
  <course>193.04</course>
  <speed>1.016366075781753</speed>
  <fix>3d</fix>
</trkpt>
<trkpt lat="33.8100978" lon="-118.3938864">
  <ele>-24.42</ele>
  <time>2026-09-01T01:17:11Z</time>
  <course>194.14</course>
  <speed>1.0</speed>
  <fix>3d</fix>
</trkpt>
<trkpt lat="33.8100947" lon="-118.3938871">
  <ele>-25.028</ele>
  <time>2026-09-01T01:17:11Z</time>
  <course>193.04</course>
  <speed>1.016366075781753</speed>
  <fix>3d</fix>
</trkpt>
<trkpt lat="33.810096" lon="-118.393887">
  <ele>-24.42</ele>
  <time>2026-09-01T01:17:11Z</time>
  <course>194.14</course>
  <speed>1.0</speed>
  <fix>3d</fix>
</trkpt>
<trkpt lat="33.8100938" lon="-118.3938874">
  <ele>-25.027</ele>
  <time>2026-09-01T01:17:11Z</time>
  <course>193.05</course>
  <speed>1.016366075781753</speed>
  <fix>3d</fix>
</trkpt>
<trkpt lat="33.810096" lon="-118.393887">
  <ele>-24.42</ele>
  <time>2026-09-01T01:17:11Z</time>
  <course>194.14</course>
  <speed>1.0</speed>
  <fix>3d</fix>
</trkpt>
<trkpt lat="33.8100929" lon="-118.3938877">
  <ele>-25.027</ele>
  <time>2026-09-01T01:17:11Z</time>
  <course>193.03</course>
  <speed>1.016366075781753</speed>
  <fix>3d</fix>
</trkpt>
<trkpt lat="33.8100943" lon="-118.3938875">
  <ele>-24.42</ele>
  <time>2026-09-01T01:17:11Z</time>
  <course>194.12</course>
  <speed>1.0</speed>
  <fix>3d</fix>
</trkpt>
<trkpt lat="33.810092" lon="-118.3938879">
  <ele>-25.027</ele>
  <time>2026-09-01T01:17:11Z</time>
  <course>193.02</course>
  <speed>1.016366075781753</speed>
  <fix>3d</fix>
</trkpt>
<trkpt lat="33.8100943" lon="-118.3938875">
  <ele>-24.42</ele>
  <time>2026-09-01T01:17:11Z</time>
  <course>194.12</course>
  <speed>1.0</speed>
  <fix>3d</fix>
</trkpt>
<trkpt lat="33.8100911" lon="-118.3938882">
  <ele>-25.029</ele>
  <time>2026-09-01T01:17:11Z</time>
  <course>192.99</course>
  <speed>1.016366075781753</speed>
  <fix>3d</fix>
</trkpt>
<trkpt lat="33.8100926" lon="-118.393888">
  <ele>-24.42</ele>
  <time>2026-09-01T01:17:11Z</time>
  <course>194.09</course>
  <speed>1.0</speed>
  <fix>3d</fix>
</trkpt>
<trkpt lat="33.8100903" lon="-118.3938885">
  <ele>-25.03</ele>
  <time>2026-09-01T01:17:11Z</time>
  <course>192.98</course>
  <speed>1.016366075781753</speed>
  <fix>3d</fix>
</trkpt>
<trkpt lat="33.8100926" lon="-118.393888">
  <ele>-24.42</ele>
  <time>2026-09-01T01:17:11Z</time>
  <course>194.09</course>
  <speed>1.0</speed>
  <fix>3d</fix>
</trkpt>
<trkpt lat="33.8100894" lon="-118.3938887">
  <ele>-25.031</ele>
  <time>2026-09-01T01:17:11Z</time>
  <course>192.97</course>
  <speed>1.0141498903022177</speed>
  <fix>3d</fix>
</trkpt>
<trkpt lat="33.8100908" lon="-118.3938886">
  <ele>-24.42</ele>
  <time>2026-09-01T01:17:11Z</time>
  <course>194.08</course>
  <speed>1.0</speed>
  <fix>3d</fix>
</trkpt>
<trkpt lat="33.8100885" lon="-118.393889">
  <ele>-25.031</ele>
  <time>2026-09-01T01:17:11Z</time>
  <course>192.95</course>
  <speed>1.0141498903022177</speed>
  <fix>3d</fix>
</trkpt>
<trkpt lat="33.8100908" lon="-118.3938886">
  <ele>-24.42</ele>
  <time>2026-09-01T01:17:11Z</time>
  <course>194.08</course>
  <speed>1.0</speed>
  <fix>3d</fix>
</trkpt>
<trkpt lat="33.8100877" lon="-118.3938893">
  <ele>-25.032</ele>
  <time>2026-09-01T01:17:11Z</time>
  <course>192.93</course>
  <speed>1.0141498903022177</speed>
  <fix>3d</fix>
</trkpt>
<trkpt lat="33.8100891" lon="-118.3938891">
  <ele>-24.42</ele>
  <time>2026-09-01T01:17:11Z</time>
  <course>194.06</course>
  <speed>1.0</speed>
  <fix>3d</fix>
</trkpt>
<trkpt lat="33.8100868" lon="-118.3938895">
  <ele>-25.032</ele>
  <time>2026-09-01T01:17:11Z</time>
  <course>192.91</course>
  <speed>1.0141498903022177</speed>
  <fix>3d</fix>
</trkpt>
<trkpt lat="33.8100891" lon="-118.3938891">
  <ele>-24.42</ele>
  <time>2026-09-01T01:17:11Z</time>
  <course>194.06</course>
  <speed>1.0</speed>
  <fix>3d</fix>
</trkpt>
<trkpt lat="33.8100859" lon="-118.3938898">
  <ele>-25.032</ele>
  <time>2026-09-01T01:17:11Z</time>
  <course>192.89</course>
  <speed>1.0141498903022177</speed>
  <fix>3d</fix>
</trkpt>
<trkpt lat="33.8100873" lon="-118.3938896">
  <ele>-24.42</ele>
  <time>2026-09-01T01:17:11Z</time>
  <course>194.02</course>
  <speed>1.0</speed>
  <fix>3d</fix>
</trkpt>
<trkpt lat="33.810085" lon="-118.3938901">
  <ele>-25.03</ele>
  <time>2026-09-01T01:17:11Z</time>
  <course>192.87</course>
  <speed>1.0141498903022177</speed>
  <fix>3d</fix>
</trkpt>
<trkpt lat="33.8100873" lon="-118.3938896">
  <ele>-24.42</ele>
  <time>2026-09-01T01:17:11Z</time>
  <course>194.02</course>
  <speed>1.0</speed>
  <fix>3d</fix>
</trkpt>
<trkpt lat="33.8100842" lon="-118.3938903">
  <ele>-25.028</ele>
  <time>2026-09-01T01:17:11Z</time>
  <course>192.86</course>
  <speed>1.0141498903022177</speed>
  <fix>3d</fix>
</trkpt>
<trkpt lat="33.8100855" lon="-118.3938901">
  <ele>-24.42</ele>
  <time>2026-09-01T01:17:11Z</time>
  <course>194.01</course>
  <speed>1.0</speed>
  <fix>3d</fix>
</trkpt>
<trkpt lat="33.8100833" lon="-118.3938906">
  <ele>-25.027</ele>
  <time>2026-09-01T01:17:11Z</time>
  <course>192.87</course>
  <speed>1.0043903623591774</speed>
  <fix>3d</fix>
</trkpt>
<trkpt lat="33.8100855" lon="-118.3938901">
  <ele>-24.42</ele>
  <time>2026-09-01T01:17:11Z</time>
  <course>194.01</course>
  <speed>1.0</speed>
  <fix>3d</fix>
</trkpt>
<trkpt lat="33.8100824" lon="-118.3938909">
  <ele>-25.026</ele>
  <time>2026-09-01T01:17:11Z</time>
  <course>192.89</course>
  <speed>1.0043903623591774</speed>
  <fix>3d</fix>
</trkpt>
<trkpt lat="33.8100838" lon="-118.3938906">
  <ele>-24.42</ele>
  <time>2026-09-01T01:17:11Z</time>
  <course>194.05</course>
  <speed>1.0</speed>
  <fix>3d</fix>
</trkpt>
<trkpt lat="33.8100815" lon="-118.3938911">
  <ele>-25.026</ele>
  <time>2026-09-01T01:17:11Z</time>
  <course>192.92</course>
  <speed>1.0043903623591774</speed>
  <fix>3d</fix>
</trkpt>
<trkpt lat="33.8100838" lon="-118.3938906">
  <ele>-24.42</ele>
  <time>2026-09-01T01:17:11Z</time>
  <course>194.05</course>
  <speed>1.0</speed>
  <fix>3d</fix>
</trkpt>
<trkpt lat="33.8100807" lon="-118.3938914">
  <ele>-25.028</ele>
  <time>2026-09-01T01:17:11Z</time>
  <course>192.95</course>
  <speed>1.0043903623591774</speed>
  <fix>3d</fix>
</trkpt>
<trkpt lat="33.8100821" lon="-118.3938912">
  <ele>-24.42</ele>
  <time>2026-09-01T01:17:11Z</time>
  <course>194.11</course>
  <speed>1.0</speed>
  <fix>3d</fix>
</trkpt>
<trkpt lat="33.8100798" lon="-118.3938916">
  <ele>-25.03</ele>
  <time>2026-09-01T01:17:11Z</time>
  <course>192.98</course>
  <speed>1.0043903623591774</speed>
  <fix>3d</fix>
</trkpt>
<trkpt lat="33.8100821" lon="-118.3938912">
  <ele>-24.42</ele>
  <time>2026-09-01T01:17:11Z</time>
  <course>194.11</course>
  <speed>1.0</speed>
  <fix>3d</fix>
</trkpt>
<trkpt lat="33.8100789" lon="-118.3938919">
  <ele>-25.032</ele>
  <time>2026-09-01T01:17:11Z</time>
  <course>192.99</course>
  <speed>1.0043903623591774</speed>
  <fix>3d</fix>
</trkpt>
<trkpt lat="33.8100803" lon="-118.3938917">
  <ele>-24.42</ele>
  <time>2026-09-01T01:17:11Z</time>
  <course>194.12</course>
  <speed>0.99</speed>
  <fix>3d</fix>
</trkpt>
<trkpt lat="33.810078" lon="-118.3938922">
  <ele>-25.032</ele>
  <time>2026-09-01T01:17:11Z</time>
  <course>192.99</course>
  <speed>1.0043903623591774</speed>
  <fix>3d</fix>
</trkpt>
<trkpt lat="33.8100803" lon="-118.3938917">
  <ele>-24.42</ele>
  <time>2026-09-01T01:17:11Z</time>
  <course>194.12</course>
  <speed>0.99</speed>
  <fix>3d</fix>
</trkpt>
<trkpt lat="33.8100772" lon="-118.3938924">
  <ele>-25.031</ele>
  <time>2026-09-01T01:17:11Z</time>
  <course>192.99</course>
  <speed>1.0043903623591774</speed>
  <fix>3d</fix>
</trkpt>
<trkpt lat="33.8100786" lon="-118.3938922">
  <ele>-24.42</ele>
  <time>2026-09-01T01:17:11Z</time>
  <course>194.11</course>
  <speed>0.99</speed>
  <fix>3d</fix>
</trkpt>
<trkpt lat="33.8100763" lon="-118.3938927">
  <ele>-25.029</ele>
  <time>2026-09-01T01:17:11Z</time>
  <course>193.0</course>
  <speed>1.0141498903022177</speed>
  <fix>3d</fix>
</trkpt>
<trkpt lat="33.8100786" lon="-118.3938922">
  <ele>-24.42</ele>
  <time>2026-09-01T01:17:11Z</time>
  <course>194.11</course>
  <speed>0.99</speed>
  <fix>3d</fix>
</trkpt>
<trkpt lat="33.8100754" lon="-118.3938929">
  <ele>-25.027</ele>
  <time>2026-09-01T01:17:11Z</time>
  <course>193.0</course>
  <speed>1.0043903623591774</speed>
  <fix>3d</fix>
</trkpt>
<trkpt lat="33.8100768" lon="-118.3938928">
  <ele>-24.42</ele>
  <time>2026-09-01T01:17:11Z</time>
  <course>194.12</course>
  <speed>0.99</speed>
  <fix>3d</fix>
</trkpt>
<trkpt lat="33.8100746" lon="-118.3938932">
  <ele>-25.025</ele>
  <time>2026-09-01T01:17:11Z</time>
  <course>193.01</course>
  <speed>1.0141498903022177</speed>
  <fix>3d</fix>
</trkpt>
<trkpt lat="33.8100768" lon="-118.3938928">
  <ele>-24.42</ele>
  <time>2026-09-01T01:17:11Z</time>
  <course>194.12</course>
  <speed>0.99</speed>
  <fix>3d</fix>
</trkpt>
<trkpt lat="33.8100737" lon="-118.3938935">
  <ele>-25.024</ele>
  <time>2026-09-01T01:17:11Z</time>
  <course>193.0</course>
  <speed>1.0043903623591774</speed>
  <fix>3d</fix>
</trkpt>
<trkpt lat="33.8100751" lon="-118.3938933">
  <ele>-24.42</ele>
  <time>2026-09-01T01:17:11Z</time>
  <course>194.13</course>
  <speed>0.99</speed>
  <fix>3d</fix>
</trkpt>
<trkpt lat="33.8100728" lon="-118.3938937">
  <ele>-25.024</ele>
  <time>2026-09-01T01:17:11Z</time>
  <course>192.98</course>
  <speed>1.0141498903022177</speed>
  <fix>3d</fix>
</trkpt>
<trkpt lat="33.8100751" lon="-118.3938933">
  <ele>-24.42</ele>
  <time>2026-09-01T01:17:11Z</time>
  <course>194.13</course>
  <speed>0.99</speed>
  <fix>3d</fix>
</trkpt>
<trkpt lat="33.8100719" lon="-118.393894">
  <ele>-25.024</ele>
  <time>2026-09-01T01:17:11Z</time>
  <course>192.96</course>
  <speed>1.0043903623591774</speed>
  <fix>3d</fix>
</trkpt>
<trkpt lat="33.8100733" lon="-118.3938938">
  <ele>-24.42</ele>
  <time>2026-09-01T01:17:11Z</time>
  <course>194.12</course>
  <speed>0.99</speed>
  <fix>3d</fix>
</trkpt>
<trkpt lat="33.8100711" lon="-118.3938943">
  <ele>-25.025</ele>
  <time>2026-09-01T01:17:11Z</time>
  <course>192.95</course>
  <speed>1.0043903623591774</speed>
  <fix>3d</fix>
</trkpt>
<trkpt lat="33.8100733" lon="-118.3938938">
  <ele>-24.42</ele>
  <time>2026-09-01T01:17:11Z</time>
  <course>194.12</course>
  <speed>0.99</speed>
  <fix>3d</fix>
</trkpt>
<trkpt lat="33.8100702" lon="-118.3938945">
  <ele>-25.027</ele>
  <time>2026-09-01T01:17:11Z</time>
  <course>192.95</course>
  <speed>1.0043903623591774</speed>
  <fix>3d</fix>
</trkpt>
<trkpt lat="33.8100716" lon="-118.3938943">
  <ele>-24.42</ele>
  <time>2026-09-01T01:17:11Z</time>
  <course>194.11</course>
  <speed>0.99</speed>
  <fix>3d</fix>
</trkpt>
<trkpt lat="33.8100693" lon="-118.3938948">
  <ele>-25.029</ele>
  <time>2026-09-01T01:17:11Z</time>
  <course>192.95</course>
  <speed>1.0043903623591774</speed>
  <fix>3d</fix>
</trkpt>
<trkpt lat="33.8100716" lon="-118.3938943">
  <ele>-24.42</ele>
  <time>2026-09-01T01:17:11Z</time>
  <course>194.11</course>
  <speed>0.99</speed>
  <fix>3d</fix>
</trkpt>
<trkpt lat="33.8100684" lon="-118.3938951">
  <ele>-25.031</ele>
  <time>2026-09-01T01:17:11Z</time>
  <course>192.96</course>
  <speed>1.0043903623591774</speed>
  <fix>3d</fix>
</trkpt>
<trkpt lat="33.8100699" lon="-118.3938949">
  <ele>-24.43</ele>
  <time>2026-09-01T01:17:11Z</time>
  <course>194.12</course>
  <speed>0.99</speed>
  <fix>3d</fix>
</trkpt>
<trkpt lat="33.8100676" lon="-118.3938953">
  <ele>-25.032</ele>
  <time>2026-09-01T01:17:11Z</time>
  <course>192.97</course>
  <speed>1.0141498903022177</speed>
  <fix>3d</fix>
</trkpt>
<trkpt lat="33.8100699" lon="-118.3938949">
  <ele>-24.43</ele>
  <time>2026-09-01T01:17:11Z</time>
  <course>194.12</course>
  <speed>0.99</speed>
  <fix>3d</fix>
</trkpt>
<trkpt lat="33.8100667" lon="-118.3938956">
  <ele>-25.033</ele>
  <time>2026-09-01T01:17:11Z</time>
  <course>192.96</course>
  <speed>1.0141498903022177</speed>
  <fix>3d</fix>
</trkpt>
<trkpt lat="33.8100681" lon="-118.3938954">
  <ele>-24.43</ele>
  <time>2026-09-01T01:17:11Z</time>
  <course>194.12</course>
  <speed>0.99</speed>
  <fix>3d</fix>
</trkpt>
<trkpt lat="33.8100658" lon="-118.3938959">
  <ele>-25.034</ele>
  <time>2026-09-01T01:17:11Z</time>
  <course>192.95</course>
  <speed>1.0141498903022177</speed>
  <fix>3d</fix>
</trkpt>
<trkpt lat="33.8100681" lon="-118.3938954">
  <ele>-24.43</ele>
  <time>2026-09-01T01:17:11Z</time>
  <course>194.12</course>
  <speed>0.99</speed>
  <fix>3d</fix>
</trkpt>
<trkpt lat="33.8100649" lon="-118.3938961">
  <ele>-25.035</ele>
  <time>2026-09-01T01:17:11Z</time>
  <course>192.93</course>
  <speed>1.0043903623591774</speed>
  <fix>3d</fix>
</trkpt>
<trkpt lat="33.8100664" lon="-118.3938959">
  <ele>-24.43</ele>
  <time>2026-09-01T01:17:11Z</time>
  <course>194.12</course>
  <speed>0.99</speed>
  <fix>3d</fix>
</trkpt>
<trkpt lat="33.8100641" lon="-118.3938964">
  <ele>-25.035</ele>
  <time>2026-09-01T01:17:11Z</time>
  <course>192.92</course>
  <speed>1.0141498903022177</speed>
  <fix>3d</fix>
</trkpt>
<trkpt lat="33.8100664" lon="-118.3938959">
  <ele>-24.43</ele>
  <time>2026-09-01T01:17:11Z</time>
  <course>194.12</course>
  <speed>0.99</speed>
  <fix>3d</fix>
</trkpt>
<trkpt lat="33.8100632" lon="-118.3938966">
  <ele>-25.035</ele>
  <time>2026-09-01T01:17:11Z</time>
  <course>192.92</course>
  <speed>1.0141498903022177</speed>
  <fix>3d</fix>
</trkpt>
<trkpt lat="33.8100647" lon="-118.3938964">
  <ele>-24.43</ele>
  <time>2026-09-01T01:17:11Z</time>
  <course>194.12</course>
  <speed>0.99</speed>
  <fix>3d</fix>
</trkpt>
<trkpt lat="33.8100623" lon="-118.3938969">
  <ele>-25.034</ele>
  <time>2026-09-01T01:17:11Z</time>
  <course>192.93</course>
  <speed>1.0141498903022177</speed>
  <fix>3d</fix>
</trkpt>
<trkpt lat="33.8100647" lon="-118.3938964">
  <ele>-24.43</ele>
  <time>2026-09-01T01:17:11Z</time>
  <course>194.12</course>
  <speed>0.99</speed>
  <fix>3d</fix>
</trkpt>
<trkpt lat="33.8100615" lon="-118.3938972">
  <ele>-25.032</ele>
  <time>2026-09-01T01:17:11Z</time>
  <course>192.93</course>
  <speed>1.0141498903022177</speed>
  <fix>3d</fix>
</trkpt>
<trkpt lat="33.8100629" lon="-118.393897">
  <ele>-24.42</ele>
  <time>2026-09-01T01:17:11Z</time>
  <course>194.14</course>
  <speed>0.99</speed>
  <fix>3d</fix>
</trkpt>
<trkpt lat="33.8100606" lon="-118.3938974">
  <ele>-25.03</ele>
  <time>2026-09-01T01:17:11Z</time>
  <course>192.93</course>
  <speed>1.0141498903022177</speed>
  <fix>3d</fix>
</trkpt>
<trkpt lat="33.8100629" lon="-118.393897">
  <ele>-24.42</ele>
  <time>2026-09-01T01:17:11Z</time>
  <course>194.14</course>
  <speed>0.99</speed>
  <fix>3d</fix>
</trkpt>
<trkpt lat="33.8100597" lon="-118.3938977">
  <ele>-25.027</ele>
  <time>2026-09-01T01:17:11Z</time>
  <course>192.92</course>
  <speed>1.0141498903022177</speed>
  <fix>3d</fix>
</trkpt>
<trkpt lat="33.8100611" lon="-118.3938975">
  <ele>-24.42</ele>
  <time>2026-09-01T01:17:11Z</time>
  <course>194.13</course>
  <speed>0.99</speed>
  <fix>3d</fix>
</trkpt>
<trkpt lat="33.8100588" lon="-118.393898">
  <ele>-25.025</ele>
  <time>2026-09-01T01:17:11Z</time>
  <course>192.91</course>
  <speed>1.0141498903022177</speed>
  <fix>3d</fix>
</trkpt>
<trkpt lat="33.8100611" lon="-118.3938975">
  <ele>-24.42</ele>
  <time>2026-09-01T01:17:11Z</time>
  <course>194.13</course>
  <speed>0.99</speed>
  <fix>3d</fix>
</trkpt>
<trkpt lat="33.810058" lon="-118.3938982">
  <ele>-25.024</ele>
  <time>2026-09-01T01:17:11Z</time>
  <course>192.91</course>
  <speed>1.0141498903022177</speed>
  <fix>3d</fix>
</trkpt>
<trkpt lat="33.8100594" lon="-118.393898">
  <ele>-24.42</ele>
  <time>2026-09-01T01:17:11Z</time>
  <course>194.12</course>
  <speed>0.99</speed>
  <fix>3d</fix>
</trkpt>
<trkpt lat="33.8100571" lon="-118.3938985">
  <ele>-25.024</ele>
  <time>2026-09-01T01:17:11Z</time>
  <course>192.92</course>
  <speed>1.0141498903022177</speed>
  <fix>3d</fix>
</trkpt>
<trkpt lat="33.8100594" lon="-118.393898">
  <ele>-24.42</ele>
  <time>2026-09-01T01:17:11Z</time>
  <course>194.12</course>
  <speed>0.99</speed>
  <fix>3d</fix>
</trkpt>
<trkpt lat="33.8100562" lon="-118.3938987">
  <ele>-25.024</ele>
  <time>2026-09-01T01:17:11Z</time>
  <course>192.92</course>
  <speed>1.0141498903022177</speed>
  <fix>3d</fix>
</trkpt>
<trkpt lat="33.8100577" lon="-118.3938986">
  <ele>-24.42</ele>
  <time>2026-09-01T01:17:11Z</time>
  <course>194.14</course>
  <speed>0.99</speed>
  <fix>3d</fix>
</trkpt>
<trkpt lat="33.8100554" lon="-118.393899">
  <ele>-25.025</ele>
  <time>2026-09-01T01:17:11Z</time>
  <course>192.92</course>
  <speed>1.0141498903022177</speed>
  <fix>3d</fix>
</trkpt>
<trkpt lat="33.8100577" lon="-118.3938986">
  <ele>-24.42</ele>
  <time>2026-09-01T01:17:11Z</time>
  <course>194.14</course>
  <speed>0.99</speed>
  <fix>3d</fix>
</trkpt>
<trkpt lat="33.8100545" lon="-118.3938993">
  <ele>-25.026</ele>
  <time>2026-09-01T01:17:11Z</time>
  <course>192.9</course>
  <speed>1.0141498903022177</speed>
  <fix>3d</fix>
</trkpt>
<trkpt lat="33.810056" lon="-118.3938991">
  <ele>-24.42</ele>
  <time>2026-09-01T01:17:11Z</time>
  <course>194.12</course>
  <speed>0.99</speed>
  <fix>3d</fix>
</trkpt>
<trkpt lat="33.8100536" lon="-118.3938995">
  <ele>-25.027</ele>
  <time>2026-09-01T01:17:11Z</time>
  <course>192.88</course>
  <speed>1.0141498903022177</speed>
  <fix>3d</fix>
</trkpt>
<trkpt lat="33.810056" lon="-118.3938991">
  <ele>-24.42</ele>
  <time>2026-09-01T01:17:11Z</time>
  <course>194.12</course>
  <speed>0.99</speed>
  <fix>3d</fix>
</trkpt>
<trkpt lat="33.8100527" lon="-118.3938998">
  <ele>-25.027</ele>
  <time>2026-09-01T01:17:11Z</time>
  <course>192.85</course>
  <speed>1.0141498903022177</speed>
  <fix>3d</fix>
</trkpt>
<trkpt lat="33.8100542" lon="-118.3938996">
  <ele>-24.42</ele>
  <time>2026-09-01T01:17:11Z</time>
  <course>194.07</course>
  <speed>0.99</speed>
  <fix>3d</fix>
</trkpt>
<trkpt lat="33.8100519" lon="-118.3939001">
  <ele>-25.028</ele>
  <time>2026-09-01T01:17:11Z</time>
  <course>192.84</course>
  <speed>1.0141498903022177</speed>
  <fix>3d</fix>
</trkpt>
<trkpt lat="33.8100542" lon="-118.3938996">
  <ele>-24.42</ele>
  <time>2026-09-01T01:17:11Z</time>
  <course>194.07</course>
  <speed>0.99</speed>
  <fix>3d</fix>
</trkpt>
<trkpt lat="33.810051" lon="-118.3939003">
  <ele>-25.028</ele>
  <time>2026-09-01T01:17:11Z</time>
  <course>192.82</course>
  <speed>1.0141498903022177</speed>
  <fix>3d</fix>
</trkpt>
<trkpt lat="33.8100525" lon="-118.3939001">
  <ele>-24.42</ele>
  <time>2026-09-01T01:17:11Z</time>
  <course>194.04</course>
  <speed>0.99</speed>
  <fix>3d</fix>
</trkpt>
<trkpt lat="33.8100501" lon="-118.3939006">
  <ele>-25.029</ele>
  <time>2026-09-01T01:17:11Z</time>
  <course>192.82</course>
  <speed>1.0141498903022177</speed>
  <fix>3d</fix>
</trkpt>
<trkpt lat="33.8100525" lon="-118.3939001">
  <ele>-24.42</ele>
  <time>2026-09-01T01:17:11Z</time>
  <course>194.04</course>
  <speed>0.99</speed>
  <fix>3d</fix>
</trkpt>
<trkpt lat="33.8100493" lon="-118.3939009">
  <ele>-25.029</ele>
  <time>2026-09-01T01:17:11Z</time>
  <course>192.83</course>
  <speed>1.0141498903022177</speed>
  <fix>3d</fix>
</trkpt>
<trkpt lat="33.8100508" lon="-118.3939007">
  <ele>-24.42</ele>
  <time>2026-09-01T01:17:11Z</time>
  <course>194.04</course>
  <speed>0.99</speed>
  <fix>3d</fix>
</trkpt>
<trkpt lat="33.8100484" lon="-118.3939011">
  <ele>-25.028</ele>
  <time>2026-09-01T01:17:11Z</time>
  <course>192.83</course>
  <speed>1.0141498903022177</speed>
  <fix>3d</fix>
</trkpt>
<trkpt lat="33.8100508" lon="-118.3939007">
  <ele>-24.42</ele>
  <time>2026-09-01T01:17:11Z</time>
  <course>194.04</course>
  <speed>0.99</speed>
  <fix>3d</fix>
</trkpt>
<trkpt lat="33.8100475" lon="-118.3939014">
  <ele>-25.028</ele>
  <time>2026-09-01T01:17:11Z</time>
  <course>192.82</course>
  <speed>1.0141498903022177</speed>
  <fix>3d</fix>
</trkpt>
<trkpt lat="33.810049" lon="-118.3939012">
  <ele>-24.42</ele>
  <time>2026-09-01T01:17:11Z</time>
  <course>194.04</course>
  <speed>1.0</speed>
  <fix>3d</fix>
</trkpt>
<trkpt lat="33.8100467" lon="-118.3939016">
  <ele>-25.028</ele>
  <time>2026-09-01T01:17:11Z</time>
  <course>192.81</course>
  <speed>1.0141498903022177</speed>
  <fix>3d</fix>
</trkpt>
<trkpt lat="33.810049" lon="-118.3939012">
  <ele>-24.42</ele>
  <time>2026-09-01T01:17:11Z</time>
  <course>194.04</course>
  <speed>1.0</speed>
  <fix>3d</fix>
</trkpt>
<trkpt lat="33.8100458" lon="-118.3939019">
  <ele>-25.028</ele>
  <time>2026-09-01T01:17:11Z</time>
  <course>192.8</course>
  <speed>1.0141498903022177</speed>
  <fix>3d</fix>
</trkpt>
<trkpt lat="33.8100472" lon="-118.3939017">
  <ele>-24.42</ele>
  <time>2026-09-01T01:17:11Z</time>
  <course>194.01</course>
  <speed>1.0</speed>
  <fix>3d</fix>
</trkpt>
<trkpt lat="33.8100449" lon="-118.3939022">
  <ele>-25.029</ele>
  <time>2026-09-01T01:17:11Z</time>
  <course>192.79</course>
  <speed>1.0141498903022177</speed>
  <fix>3d</fix>
</trkpt>
<trkpt lat="33.8100472" lon="-118.3939017">
  <ele>-24.42</ele>
  <time>2026-09-01T01:17:11Z</time>
  <course>194.01</course>
  <speed>1.0</speed>
  <fix>3d</fix>
</trkpt>
<trkpt lat="33.810044" lon="-118.3939024">
  <ele>-25.029</ele>
  <time>2026-09-01T01:17:11Z</time>
  <course>192.8</course>
  <speed>1.0141498903022177</speed>
  <fix>3d</fix>
</trkpt>
<trkpt lat="33.8100455" lon="-118.3939022">
  <ele>-24.42</ele>
  <time>2026-09-01T01:17:11Z</time>
  <course>194.01</course>
  <speed>1.0</speed>
  <fix>3d</fix>
</trkpt>
<trkpt lat="33.8100432" lon="-118.3939027">
  <ele>-25.029</ele>
  <time>2026-09-01T01:17:11Z</time>
  <course>192.81</course>
  <speed>1.0141498903022177</speed>
  <fix>3d</fix>
</trkpt>
<trkpt lat="33.8100455" lon="-118.3939022">
  <ele>-24.42</ele>
  <time>2026-09-01T01:17:11Z</time>
  <course>194.01</course>
  <speed>1.0</speed>
  <fix>3d</fix>
</trkpt>
<trkpt lat="33.8100423" lon="-118.393903">
  <ele>-25.027</ele>
  <time>2026-09-01T01:17:11Z</time>
  <course>192.84</course>
  <speed>1.0141498903022177</speed>
  <fix>3d</fix>
</trkpt>
<trkpt lat="33.8100438" lon="-118.3939028">
  <ele>-24.42</ele>
  <time>2026-09-01T01:17:11Z</time>
  <course>194.04</course>
  <speed>1.0</speed>
  <fix>3d</fix>
</trkpt>
<trkpt lat="33.8100414" lon="-118.3939032">
  <ele>-25.027</ele>
  <time>2026-09-01T01:17:11Z</time>
  <course>192.85</course>
  <speed>1.0141498903022177</speed>
  <fix>3d</fix>
</trkpt>
<trkpt lat="33.8100438" lon="-118.3939028">
  <ele>-24.42</ele>
  <time>2026-09-01T01:17:11Z</time>
  <course>194.04</course>
  <speed>1.0</speed>
  <fix>3d</fix>
</trkpt>
<trkpt lat="33.8100405" lon="-118.3939035">
  <ele>-25.027</ele>
  <time>2026-09-01T01:17:11Z</time>
  <course>192.85</course>
  <speed>1.0141498903022177</speed>
  <fix>3d</fix>
</trkpt>
<trkpt lat="33.810042" lon="-118.3939033">
  <ele>-24.42</ele>
  <time>2026-09-01T01:17:11Z</time>
  <course>194.04</course>
  <speed>1.0</speed>
  <fix>3d</fix>
</trkpt>
<trkpt lat="33.8100397" lon="-118.3939037">
  <ele>-25.028</ele>
  <time>2026-09-01T01:17:11Z</time>
  <course>192.85</course>
  <speed>1.0141498903022177</speed>
  <fix>3d</fix>
</trkpt>
<trkpt lat="33.810042" lon="-118.3939033">
  <ele>-24.42</ele>
  <time>2026-09-01T01:17:11Z</time>
  <course>194.04</course>
  <speed>1.0</speed>
  <fix>3d</fix>
</trkpt>
<trkpt lat="33.8100388" lon="-118.393904">
  <ele>-25.03</ele>
  <time>2026-09-01T01:17:11Z</time>
  <course>192.84</course>
  <speed>1.0141498903022177</speed>
  <fix>3d</fix>
</trkpt>
<trkpt lat="33.8100403" lon="-118.3939038">
  <ele>-24.42</ele>
  <time>2026-09-01T01:17:11Z</time>
  <course>194.01</course>
  <speed>1.0</speed>
  <fix>3d</fix>
</trkpt>
<trkpt lat="33.8100379" lon="-118.3939043">
  <ele>-25.031</ele>
  <time>2026-09-01T01:17:11Z</time>
  <course>192.84</course>
  <speed>1.0141498903022177</speed>
  <fix>3d</fix>
</trkpt>
<trkpt lat="33.8100403" lon="-118.3939038">
  <ele>-24.42</ele>
  <time>2026-09-01T01:17:11Z</time>
  <course>194.01</course>
  <speed>1.0</speed>
  <fix>3d</fix>
</trkpt>
<trkpt lat="33.810037" lon="-118.3939045">
  <ele>-25.032</ele>
  <time>2026-09-01T01:17:11Z</time>
  <course>192.84</course>
  <speed>1.0141498903022177</speed>
  <fix>3d</fix>
</trkpt>
<trkpt lat="33.8100386" lon="-118.3939043">
  <ele>-24.42</ele>
  <time>2026-09-01T01:17:11Z</time>
  <course>194.01</course>
  <speed>1.0</speed>
  <fix>3d</fix>
</trkpt>
<trkpt lat="33.8100362" lon="-118.3939048">
  <ele>-25.031</ele>
  <time>2026-09-01T01:17:11Z</time>
  <course>192.85</course>
  <speed>1.0141498903022177</speed>
  <fix>3d</fix>
</trkpt>
<trkpt lat="33.8100386" lon="-118.3939043">
  <ele>-24.42</ele>
  <time>2026-09-01T01:17:11Z</time>
  <course>194.01</course>
  <speed>1.0</speed>
  <fix>3d</fix>
</trkpt>
<trkpt lat="33.8100353" lon="-118.3939051">
  <ele>-25.031</ele>
  <time>2026-09-01T01:17:11Z</time>
  <course>192.86</course>
  <speed>1.0141498903022177</speed>
  <fix>3d</fix>
</trkpt>
<trkpt lat="33.8100368" lon="-118.3939048">
  <ele>-24.42</ele>
  <time>2026-09-01T01:17:11Z</time>
  <course>194.04</course>
  <speed>1.0</speed>
  <fix>3d</fix>
</trkpt>
<trkpt lat="33.8100344" lon="-118.3939053">
  <ele>-25.03</ele>
  <time>2026-09-01T01:17:11Z</time>
  <course>192.88</course>
  <speed>1.0141498903022177</speed>
  <fix>3d</fix>
</trkpt>
<trkpt lat="33.8100368" lon="-118.3939048">
  <ele>-24.42</ele>
  <time>2026-09-01T01:17:11Z</time>
  <course>194.04</course>
  <speed>1.0</speed>
  <fix>3d</fix>
</trkpt>
<trkpt lat="33.8100336" lon="-118.3939056">
  <ele>-25.03</ele>
  <time>2026-09-01T01:17:11Z</time>
  <course>192.9</course>
  <speed>1.0141498903022177</speed>
  <fix>3d</fix>
</trkpt>
<trkpt lat="33.810035" lon="-118.3939054">
  <ele>-24.42</ele>
  <time>2026-09-01T01:17:11Z</time>
  <course>194.08</course>
  <speed>1.0</speed>
  <fix>3d</fix>
</trkpt>
<trkpt lat="33.8100327" lon="-118.3939058">
  <ele>-25.029</ele>
  <time>2026-09-01T01:17:11Z</time>
  <course>192.92</course>
  <speed>1.0141498903022177</speed>
  <fix>3d</fix>
</trkpt>
<trkpt lat="33.810035" lon="-118.3939054">
  <ele>-24.42</ele>
  <time>2026-09-01T01:17:11Z</time>
  <course>194.08</course>
  <speed>1.0</speed>
  <fix>3d</fix>
</trkpt>
<trkpt lat="33.8100318" lon="-118.3939061">
  <ele>-25.029</ele>
  <time>2026-09-01T01:17:11Z</time>
  <course>192.94</course>
  <speed>1.0141498903022177</speed>
  <fix>3d</fix>
</trkpt>
<trkpt lat="33.8100333" lon="-118.3939059">
  <ele>-24.41</ele>
  <time>2026-09-01T01:17:11Z</time>
  <course>194.1</course>
  <speed>1.0</speed>
  <fix>3d</fix>
</trkpt>
<trkpt lat="33.8100309" lon="-118.3939064">
  <ele>-25.028</ele>
  <time>2026-09-01T01:17:11Z</time>
  <course>192.94</course>
  <speed>1.0141498903022177</speed>
  <fix>3d</fix>
</trkpt>
<trkpt lat="33.8100333" lon="-118.3939059">
  <ele>-24.41</ele>
  <time>2026-09-01T01:17:11Z</time>
  <course>194.1</course>
  <speed>1.0</speed>
  <fix>3d</fix>
</trkpt>
<trkpt lat="33.8100301" lon="-118.3939066">
  <ele>-25.026</ele>
  <time>2026-09-01T01:17:11Z</time>
  <course>192.95</course>
  <speed>1.0141498903022177</speed>
  <fix>3d</fix>
</trkpt>
<trkpt lat="33.8100316" lon="-118.3939064">
  <ele>-24.41</ele>
  <time>2026-09-01T01:17:11Z</time>
  <course>194.1</course>
  <speed>1.0</speed>
  <fix>3d</fix>
</trkpt>
<trkpt lat="33.8100292" lon="-118.3939069">
  <ele>-25.025</ele>
  <time>2026-09-01T01:17:11Z</time>
  <course>192.95</course>
  <speed>1.0141498903022177</speed>
  <fix>3d</fix>
</trkpt>
<trkpt lat="33.8100316" lon="-118.3939064">
  <ele>-24.41</ele>
  <time>2026-09-01T01:17:11Z</time>
  <course>194.1</course>
  <speed>1.0</speed>
  <fix>3d</fix>
</trkpt>
<trkpt lat="33.8100283" lon="-118.3939072">
  <ele>-25.024</ele>
  <time>2026-09-01T01:17:11Z</time>
  <course>192.96</course>
  <speed>1.0141498903022177</speed>
  <fix>3d</fix>
</trkpt>
<trkpt lat="33.8100298" lon="-118.3939069">
  <ele>-24.41</ele>
  <time>2026-09-01T01:17:11Z</time>
  <course>194.12</course>
  <speed>0.99</speed>
  <fix>3d</fix>
</trkpt>
<trkpt lat="33.8100274" lon="-118.3939074">
  <ele>-25.023</ele>
  <time>2026-09-01T01:17:11Z</time>
  <course>192.97</course>
  <speed>1.0141498903022177</speed>
  <fix>3d</fix>
</trkpt>
<trkpt lat="33.8100298" lon="-118.3939069">
  <ele>-24.41</ele>
  <time>2026-09-01T01:17:11Z</time>
  <course>194.12</course>
  <speed>0.99</speed>
  <fix>3d</fix>
</trkpt>
<trkpt lat="33.8100266" lon="-118.3939077">
  <ele>-25.022</ele>
  <time>2026-09-01T01:17:11Z</time>
  <course>192.98</course>
  <speed>1.0141498903022177</speed>
  <fix>3d</fix>
</trkpt>
<trkpt lat="33.810028" lon="-118.3939075">
  <ele>-24.41</ele>
  <time>2026-09-01T01:17:11Z</time>
  <course>194.16</course>
  <speed>0.99</speed>
  <fix>3d</fix>
</trkpt>
<trkpt lat="33.8100257" lon="-118.3939079">
  <ele>-25.022</ele>
  <time>2026-09-01T01:17:11Z</time>
  <course>193.01</course>
  <speed>1.0141498903022177</speed>
  <fix>3d</fix>
</trkpt>
<trkpt lat="33.810028" lon="-118.3939075">
  <ele>-24.41</ele>
  <time>2026-09-01T01:17:11Z</time>
  <course>194.16</course>
  <speed>0.99</speed>
  <fix>3d</fix>
</trkpt>
<trkpt lat="33.8100248" lon="-118.3939082">
  <ele>-25.023</ele>
  <time>2026-09-01T01:17:11Z</time>
  <course>193.01</course>
  <speed>1.0141498903022177</speed>
  <fix>3d</fix>
</trkpt>
<trkpt lat="33.8100263" lon="-118.393908">
  <ele>-24.41</ele>
  <time>2026-09-01T01:17:11Z</time>
  <course>194.19</course>
  <speed>0.99</speed>
  <fix>3d</fix>
</trkpt>
<trkpt lat="33.810024" lon="-118.3939085">
  <ele>-25.024</ele>
  <time>2026-09-01T01:17:11Z</time>
  <course>193.01</course>
  <speed>1.0141498903022177</speed>
  <fix>3d</fix>
</trkpt>
<trkpt lat="33.8100263" lon="-118.393908">
  <ele>-24.41</ele>
  <time>2026-09-01T01:17:11Z</time>
  <course>194.19</course>
  <speed>0.99</speed>
  <fix>3d</fix>
</trkpt>
<trkpt lat="33.8100231" lon="-118.3939087">
  <ele>-25.024</ele>
  <time>2026-09-01T01:17:11Z</time>
  <course>193.0</course>
  <speed>1.0141498903022177</speed>
  <fix>3d</fix>
</trkpt>
<trkpt lat="33.8100246" lon="-118.3939085">
  <ele>-24.41</ele>
  <time>2026-09-01T01:17:11Z</time>
  <course>194.2</course>
  <speed>0.99</speed>
  <fix>3d</fix>
</trkpt>
<trkpt lat="33.8100222" lon="-118.393909">
  <ele>-25.024</ele>
  <time>2026-09-01T01:17:11Z</time>
  <course>192.99</course>
  <speed>1.0141498903022177</speed>
  <fix>3d</fix>
</trkpt>
<trkpt lat="33.8100246" lon="-118.3939085">
  <ele>-24.41</ele>
  <time>2026-09-01T01:17:11Z</time>
  <course>194.2</course>
  <speed>0.99</speed>
  <fix>3d</fix>
</trkpt>
<trkpt lat="33.8100214" lon="-118.3939093">
  <ele>-25.024</ele>
  <time>2026-09-01T01:17:11Z</time>
  <course>192.99</course>
  <speed>1.0141498903022177</speed>
  <fix>3d</fix>
</trkpt>
<trkpt lat="33.8100228" lon="-118.3939091">
  <ele>-24.41</ele>
  <time>2026-09-01T01:17:11Z</time>
  <course>194.2</course>
  <speed>0.99</speed>
  <fix>3d</fix>
</trkpt>
<trkpt lat="33.8100205" lon="-118.3939095">
  <ele>-25.024</ele>
  <time>2026-09-01T01:17:11Z</time>
  <course>192.99</course>
  <speed>1.0141498903022177</speed>
  <fix>3d</fix>
</trkpt>
<trkpt lat="33.8100228" lon="-118.3939091">
  <ele>-24.41</ele>
  <time>2026-09-01T01:17:11Z</time>
  <course>194.2</course>
  <speed>0.99</speed>
  <fix>3d</fix>
</trkpt>
<trkpt lat="33.8100196" lon="-118.3939098">
  <ele>-25.024</ele>
  <time>2026-09-01T01:17:11Z</time>
  <course>192.97</course>
  <speed>1.0141498903022177</speed>
  <fix>3d</fix>
</trkpt>
<trkpt lat="33.8100211" lon="-118.3939096">
  <ele>-24.42</ele>
  <time>2026-09-01T01:17:11Z</time>
  <course>194.19</course>
  <speed>0.99</speed>
  <fix>3d</fix>
</trkpt>
<trkpt lat="33.8100187" lon="-118.3939101">
  <ele>-25.024</ele>
  <time>2026-09-01T01:17:11Z</time>
  <course>192.95</course>
  <speed>1.0141498903022177</speed>
  <fix>3d</fix>
</trkpt>
<trkpt lat="33.8100211" lon="-118.3939096">
  <ele>-24.42</ele>
  <time>2026-09-01T01:17:11Z</time>
  <course>194.19</course>
  <speed>0.99</speed>
  <fix>3d</fix>
</trkpt>
<trkpt lat="33.8100178" lon="-118.3939103">
  <ele>-25.024</ele>
  <time>2026-09-01T01:17:11Z</time>
  <course>192.93</course>
  <speed>1.0141498903022177</speed>
  <fix>3d</fix>
</trkpt>
<trkpt lat="33.8100194" lon="-118.3939101">
  <ele>-24.42</ele>
  <time>2026-09-01T01:17:11Z</time>
  <course>194.17</course>
  <speed>0.99</speed>
  <fix>3d</fix>
</trkpt>
<trkpt lat="33.810017" lon="-118.3939106">
  <ele>-25.025</ele>
  <time>2026-09-01T01:17:11Z</time>
  <course>192.91</course>
  <speed>1.0141498903022177</speed>
  <fix>3d</fix>
</trkpt>
<trkpt lat="33.8100194" lon="-118.3939101">
  <ele>-24.42</ele>
  <time>2026-09-01T01:17:11Z</time>
  <course>194.17</course>
  <speed>0.99</speed>
  <fix>3d</fix>
</trkpt>
<trkpt lat="33.8100161" lon="-118.3939109">
  <ele>-25.027</ele>
  <time>2026-09-01T01:17:11Z</time>
  <course>192.9</course>
  <speed>1.0141498903022177</speed>
  <fix>3d</fix>
</trkpt>
<trkpt lat="33.8100176" lon="-118.3939107">
  <ele>-24.42</ele>
  <time>2026-09-01T01:17:11Z</time>
  <course>194.15</course>
  <speed>0.99</speed>
  <fix>3d</fix>
</trkpt>
<trkpt lat="33.8100152" lon="-118.3939111">
  <ele>-25.028</ele>
  <time>2026-09-01T01:17:11Z</time>
  <course>192.89</course>
  <speed>1.0141498903022177</speed>
  <fix>3d</fix>
</trkpt>
<trkpt lat="33.8100176" lon="-118.3939107">
  <ele>-24.42</ele>
  <time>2026-09-01T01:17:11Z</time>
  <course>194.15</course>
  <speed>0.99</speed>
  <fix>3d</fix>
</trkpt>
<trkpt lat="33.8100144" lon="-118.3939114">
  <ele>-25.028</ele>
  <time>2026-09-01T01:17:11Z</time>
  <course>192.87</course>
  <speed>1.0141498903022177</speed>
  <fix>3d</fix>
</trkpt>
<trkpt lat="33.8100159" lon="-118.3939112">
  <ele>-24.42</ele>
  <time>2026-09-01T01:17:11Z</time>
  <course>194.12</course>
  <speed>0.99</speed>
  <fix>3d</fix>
</trkpt>
<trkpt lat="33.8100135" lon="-118.3939116">
  <ele>-25.028</ele>
  <time>2026-09-01T01:17:11Z</time>
  <course>192.85</course>
  <speed>1.0141498903022177</speed>
  <fix>3d</fix>
</trkpt>
<trkpt lat="33.8100159" lon="-118.3939112">
  <ele>-24.42</ele>
  <time>2026-09-01T01:17:11Z</time>
  <course>194.12</course>
  <speed>0.99</speed>
  <fix>3d</fix>
</trkpt>
<trkpt lat="33.8100126" lon="-118.3939119">
  <ele>-25.028</ele>
  <time>2026-09-01T01:17:11Z</time>
  <course>192.82</course>
  <speed>1.0141498903022177</speed>
  <fix>3d</fix>
</trkpt>
<trkpt lat="33.8100142" lon="-118.3939117">
  <ele>-24.42</ele>
  <time>2026-09-01T01:17:11Z</time>
  <course>194.07</course>
  <speed>0.99</speed>
  <fix>3d</fix>
</trkpt>
<trkpt lat="33.8100118" lon="-118.3939122">
  <ele>-25.028</ele>
  <time>2026-09-01T01:17:11Z</time>
  <course>192.81</course>
  <speed>1.0141498903022177</speed>
  <fix>3d</fix>
</trkpt>
<trkpt lat="33.8100142" lon="-118.3939117">
  <ele>-24.42</ele>
  <time>2026-09-01T01:17:11Z</time>
  <course>194.07</course>
  <speed>0.99</speed>
  <fix>3d</fix>
</trkpt>
<trkpt lat="33.8100109" lon="-118.3939124">
  <ele>-25.029</ele>
  <time>2026-09-01T01:17:11Z</time>
  <course>192.79</course>
  <speed>1.0141498903022177</speed>
  <fix>3d</fix>
</trkpt>
<trkpt lat="33.8100124" lon="-118.3939122">
  <ele>-24.43</ele>
  <time>2026-09-01T01:17:11Z</time>
  <course>194.05</course>
  <speed>1.0</speed>
  <fix>3d</fix>
</trkpt>
<trkpt lat="33.81001" lon="-118.3939127">
  <ele>-25.03</ele>
  <time>2026-09-01T01:17:11Z</time>
  <course>192.79</course>
  <speed>1.0141498903022177</speed>
  <fix>3d</fix>
</trkpt>
<trkpt lat="33.8100124" lon="-118.3939122">
  <ele>-24.43</ele>
  <time>2026-09-01T01:17:11Z</time>
  <course>194.05</course>
  <speed>1.0</speed>
  <fix>3d</fix>
</trkpt>
<trkpt lat="33.8100091" lon="-118.393913">
  <ele>-25.03</ele>
  <time>2026-09-01T01:17:11Z</time>
  <course>192.79</course>
  <speed>1.0141498903022177</speed>
  <fix>3d</fix>
</trkpt>
<trkpt lat="33.8100106" lon="-118.3939128">
  <ele>-24.43</ele>
  <time>2026-09-01T01:17:11Z</time>
  <course>194.07</course>
  <speed>1.0</speed>
  <fix>3d</fix>
</trkpt>
<trkpt lat="33.8100083" lon="-118.3939132">
  <ele>-25.031</ele>
  <time>2026-09-01T01:17:11Z</time>
  <course>192.8</course>
  <speed>1.0141498903022177</speed>
  <fix>3d</fix>
</trkpt>
<trkpt lat="33.8100106" lon="-118.3939128">
  <ele>-24.43</ele>
  <time>2026-09-01T01:17:11Z</time>
  <course>194.07</course>
  <speed>1.0</speed>
  <fix>3d</fix>
</trkpt>
<trkpt lat="33.8100074" lon="-118.3939135">
  <ele>-25.031</ele>
  <time>2026-09-01T01:17:11Z</time>
  <course>192.8</course>
  <speed>1.0141498903022177</speed>
  <fix>3d</fix>
</trkpt>
<trkpt lat="33.8100089" lon="-118.3939133">
  <ele>-24.42</ele>
  <time>2026-09-01T01:17:11Z</time>
  <course>194.08</course>
  <speed>1.0</speed>
  <fix>3d</fix>
</trkpt>
<trkpt lat="33.8100065" lon="-118.3939138">
  <ele>-25.03</ele>
  <time>2026-09-01T01:17:11Z</time>
  <course>192.8</course>
  <speed>1.0141498903022177</speed>
  <fix>3d</fix>
</trkpt>
<trkpt lat="33.8100089" lon="-118.3939133">
  <ele>-24.42</ele>
  <time>2026-09-01T01:17:11Z</time>
  <course>194.08</course>
  <speed>1.0</speed>
  <fix>3d</fix>
</trkpt>
<trkpt lat="33.8100056" lon="-118.393914">
  <ele>-25.029</ele>
  <time>2026-09-01T01:17:11Z</time>
  <course>192.8</course>
  <speed>1.0141498903022177</speed>
  <fix>3d</fix>
</trkpt>
<trkpt lat="33.8100072" lon="-118.3939138">
  <ele>-24.42</ele>
  <time>2026-09-01T01:17:11Z</time>
  <course>194.06</course>
  <speed>0.99</speed>
  <fix>3d</fix>
</trkpt>
<trkpt lat="33.8100048" lon="-118.3939143">
  <ele>-25.027</ele>
  <time>2026-09-01T01:17:11Z</time>
  <course>192.79</course>
  <speed>1.0141498903022177</speed>
  <fix>3d</fix>
</trkpt>
<trkpt lat="33.8100072" lon="-118.3939138">
  <ele>-24.42</ele>
  <time>2026-09-01T01:17:11Z</time>
  <course>194.06</course>
  <speed>0.99</speed>
  <fix>3d</fix>
</trkpt>
<trkpt lat="33.8100039" lon="-118.3939145">
  <ele>-25.025</ele>
  <time>2026-09-01T01:17:11Z</time>
  <course>192.79</course>
  <speed>1.0141498903022177</speed>
  <fix>3d</fix>
</trkpt>
<trkpt lat="33.8100054" lon="-118.3939143">
  <ele>-24.42</ele>
  <time>2026-09-01T01:17:11Z</time>
  <course>194.06</course>
  <speed>0.99</speed>
  <fix>3d</fix>
</trkpt>
<trkpt lat="33.810003" lon="-118.3939148">
  <ele>-25.023</ele>
  <time>2026-09-01T01:17:11Z</time>
  <course>192.8</course>
  <speed>1.0141498903022177</speed>
  <fix>3d</fix>
</trkpt>
<trkpt lat="33.8100054" lon="-118.3939143">
  <ele>-24.42</ele>
  <time>2026-09-01T01:17:11Z</time>
  <course>194.06</course>
  <speed>0.99</speed>
  <fix>3d</fix>
</trkpt>
<trkpt lat="33.8100022" lon="-118.3939151">
  <ele>-25.023</ele>
  <time>2026-09-01T01:17:11Z</time>
  <course>192.82</course>
  <speed>1.0141498903022177</speed>
  <fix>3d</fix>
</trkpt>
<trkpt lat="33.8100037" lon="-118.3939149">
  <ele>-24.42</ele>
  <time>2026-09-01T01:17:11Z</time>
  <course>194.08</course>
  <speed>0.99</speed>
  <fix>3d</fix>
</trkpt>
<trkpt lat="33.8100013" lon="-118.3939153">
  <ele>-25.024</ele>
  <time>2026-09-01T01:17:11Z</time>
  <course>192.83</course>
  <speed>1.0141498903022177</speed>
  <fix>3d</fix>
</trkpt>
<trkpt lat="33.8100037" lon="-118.3939149">
  <ele>-24.42</ele>
  <time>2026-09-01T01:17:11Z</time>
  <course>194.08</course>
  <speed>0.99</speed>
  <fix>3d</fix>
</trkpt>
<trkpt lat="33.8100004" lon="-118.3939156">
  <ele>-25.025</ele>
  <time>2026-09-01T01:17:11Z</time>
  <course>192.83</course>
  <speed>1.0141498903022177</speed>
  <fix>3d</fix>
</trkpt>
<trkpt lat="33.810002" lon="-118.3939154">
  <ele>-24.42</ele>
  <time>2026-09-01T01:17:11Z</time>
  <course>194.09</course>
  <speed>1.0</speed>
  <fix>3d</fix>
</trkpt>
<trkpt lat="33.8099995" lon="-118.3939159">
  <ele>-25.026</ele>
  <time>2026-09-01T01:17:11Z</time>
  <course>192.83</course>
  <speed>1.0141498903022177</speed>
  <fix>3d</fix>
</trkpt>
<trkpt lat="33.810002" lon="-118.3939154">
  <ele>-24.42</ele>
  <time>2026-09-01T01:17:11Z</time>
  <course>194.09</course>
  <speed>1.0</speed>
  <fix>3d</fix>
</trkpt>
<trkpt lat="33.8099987" lon="-118.3939161">
  <ele>-25.027</ele>
  <time>2026-09-01T01:17:11Z</time>
  <course>192.81</course>
  <speed>1.0141498903022177</speed>
  <fix>3d</fix>
</trkpt>
<trkpt lat="33.8100002" lon="-118.3939159">
  <ele>-24.42</ele>
  <time>2026-09-01T01:17:11Z</time>
  <course>194.06</course>
  <speed>1.0</speed>
  <fix>3d</fix>
</trkpt>
<trkpt lat="33.8099978" lon="-118.3939164">
  <ele>-25.028</ele>
  <time>2026-09-01T01:17:11Z</time>
  <course>192.8</course>
  <speed>1.0239140588936164</speed>
  <fix>3d</fix>
</trkpt>
<trkpt lat="33.8100002" lon="-118.3939159">
  <ele>-24.42</ele>
  <time>2026-09-01T01:17:11Z</time>
  <course>194.06</course>
  <speed>1.0</speed>
  <fix>3d</fix>
</trkpt>
<trkpt lat="33.8099969" lon="-118.3939166">
  <ele>-25.029</ele>
  <time>2026-09-01T01:17:11Z</time>
  <course>192.79</course>
  <speed>1.0239140588936164</speed>
  <fix>3d</fix>
</trkpt>
<trkpt lat="33.8099984" lon="-118.3939164">
  <ele>-24.42</ele>
  <time>2026-09-01T01:17:11Z</time>
  <course>194.03</course>
  <speed>1.0</speed>
  <fix>3d</fix>
</trkpt>
<trkpt lat="33.8099961" lon="-118.3939169">
  <ele>-25.028</ele>
  <time>2026-09-01T01:17:11Z</time>
  <course>192.8</course>
  <speed>1.0239140588936164</speed>
  <fix>3d</fix>
</trkpt>
<trkpt lat="33.8099984" lon="-118.3939164">
  <ele>-24.42</ele>
  <time>2026-09-01T01:17:11Z</time>
  <course>194.03</course>
  <speed>1.0</speed>
  <fix>3d</fix>
</trkpt>
<trkpt lat="33.8099952" lon="-118.3939172">
  <ele>-25.028</ele>
  <time>2026-09-01T01:17:11Z</time>
  <course>192.82</course>
  <speed>1.0261091559868278</speed>
  <fix>3d</fix>
</trkpt>
<trkpt lat="33.8099967" lon="-118.3939169">
  <ele>-24.42</ele>
  <time>2026-09-01T01:17:11Z</time>
  <course>194.07</course>
  <speed>1.0</speed>
  <fix>3d</fix>
</trkpt>
<trkpt lat="33.8099943" lon="-118.3939174">
  <ele>-25.028</ele>
  <time>2026-09-01T01:17:11Z</time>
  <course>192.84</course>
  <speed>1.0261091559868278</speed>
  <fix>3d</fix>
</trkpt>
<trkpt lat="33.8099967" lon="-118.3939169">
  <ele>-24.42</ele>
  <time>2026-09-01T01:17:11Z</time>
  <course>194.07</course>
  <speed>1.0</speed>
  <fix>3d</fix>
</trkpt>
<trkpt lat="33.8099935" lon="-118.3939177">
  <ele>-25.026</ele>
  <time>2026-09-01T01:17:11Z</time>
  <course>192.87</course>
  <speed>1.0261091559868278</speed>
  <fix>3d</fix>
</trkpt>
<trkpt lat="33.809995" lon="-118.3939175">
  <ele>-24.42</ele>
  <time>2026-09-01T01:17:11Z</time>
  <course>194.13</course>
  <speed>1.0</speed>
  <fix>3d</fix>
</trkpt>
<trkpt lat="33.8099926" lon="-118.3939179">
  <ele>-25.025</ele>
  <time>2026-09-01T01:17:11Z</time>
  <course>192.89</course>
  <speed>1.0239140588936164</speed>
  <fix>3d</fix>
</trkpt>
<trkpt lat="33.809995" lon="-118.3939175">
  <ele>-24.42</ele>
  <time>2026-09-01T01:17:11Z</time>
  <course>194.13</course>
  <speed>1.0</speed>
  <fix>3d</fix>
</trkpt>
<trkpt lat="33.8099917" lon="-118.3939182">
  <ele>-25.024</ele>
  <time>2026-09-01T01:17:11Z</time>
  <course>192.9</course>
  <speed>1.0261091559868278</speed>
  <fix>3d</fix>
</trkpt>
<trkpt lat="33.8099932" lon="-118.393918">
  <ele>-24.42</ele>
  <time>2026-09-01T01:17:11Z</time>
  <course>194.15</course>
  <speed>1.0</speed>
  <fix>3d</fix>
</trkpt>
<trkpt lat="33.8099908" lon="-118.3939185">
  <ele>-25.025</ele>
  <time>2026-09-01T01:17:11Z</time>
  <course>192.9</course>
  <speed>1.0239140588936164</speed>
  <fix>3d</fix>
</trkpt>
<trkpt lat="33.8099932" lon="-118.393918">
  <ele>-24.42</ele>
  <time>2026-09-01T01:17:11Z</time>
  <course>194.15</course>
  <speed>1.0</speed>
  <fix>3d</fix>
</trkpt>
<trkpt lat="33.80999" lon="-118.3939187">
  <ele>-25.026</ele>
  <time>2026-09-01T01:17:11Z</time>
  <course>192.9</course>
  <speed>1.0141498903022177</speed>
  <fix>3d</fix>
</trkpt>
<trkpt lat="33.8099914" lon="-118.3939186">
  <ele>-24.42</ele>
  <time>2026-09-01T01:17:11Z</time>
  <course>194.14</course>
  <speed>1.0</speed>
  <fix>3d</fix>
</trkpt>
<trkpt lat="33.8099891" lon="-118.393919">
  <ele>-25.027</ele>
  <time>2026-09-01T01:17:11Z</time>
  <course>192.89</course>
  <speed>1.0141498903022177</speed>
  <fix>3d</fix>
</trkpt>
<trkpt lat="33.8099914" lon="-118.3939186">
  <ele>-24.42</ele>
  <time>2026-09-01T01:17:11Z</time>
  <course>194.14</course>
  <speed>1.0</speed>
  <fix>3d</fix>
</trkpt>
<trkpt lat="33.8099882" lon="-118.3939193">
  <ele>-25.027</ele>
  <time>2026-09-01T01:17:11Z</time>
  <course>192.87</course>
  <speed>1.0141498903022177</speed>
  <fix>3d</fix>
</trkpt>
<trkpt lat="33.8099897" lon="-118.3939191">
  <ele>-24.42</ele>
  <time>2026-09-01T01:17:11Z</time>
  <course>194.12</course>
  <speed>1.0</speed>
  <fix>3d</fix>
</trkpt>
<trkpt lat="33.8099873" lon="-118.3939195">
  <ele>-25.026</ele>
  <time>2026-09-01T01:17:11Z</time>
  <course>192.85</course>
  <speed>1.0141498903022177</speed>
  <fix>3d</fix>
</trkpt>
<trkpt lat="33.8099897" lon="-118.3939191">
  <ele>-24.42</ele>
  <time>2026-09-01T01:17:11Z</time>
  <course>194.12</course>
  <speed>1.0</speed>
  <fix>3d</fix>
</trkpt>
<trkpt lat="33.8099865" lon="-118.3939198">
  <ele>-25.025</ele>
  <time>2026-09-01T01:17:11Z</time>
  <course>192.83</course>
  <speed>1.0141498903022177</speed>
  <fix>3d</fix>
</trkpt>
<trkpt lat="33.8099879" lon="-118.3939196">
  <ele>-24.42</ele>
  <time>2026-09-01T01:17:11Z</time>
  <course>194.08</course>
  <speed>1.0</speed>
  <fix>3d</fix>
</trkpt>
<trkpt lat="33.8099856" lon="-118.3939201">
  <ele>-25.026</ele>
  <time>2026-09-01T01:17:11Z</time>
  <course>192.82</course>
  <speed>1.0141498903022177</speed>
  <fix>3d</fix>
</trkpt>
<trkpt lat="33.8099879" lon="-118.3939196">
  <ele>-24.42</ele>
  <time>2026-09-01T01:17:11Z</time>
  <course>194.08</course>
  <speed>1.0</speed>
  <fix>3d</fix>
</trkpt>
<trkpt lat="33.8099847" lon="-118.3939203">
  <ele>-25.026</ele>
  <time>2026-09-01T01:17:11Z</time>
  <course>192.81</course>
  <speed>1.0141498903022177</speed>
  <fix>3d</fix>
</trkpt>
<trkpt lat="33.8099862" lon="-118.3939202">
  <ele>-24.42</ele>
  <time>2026-09-01T01:17:11Z</time>
  <course>194.05</course>
  <speed>1.0</speed>
  <fix>3d</fix>
</trkpt>
<trkpt lat="33.8099839" lon="-118.3939206">
  <ele>-25.025</ele>
  <time>2026-09-01T01:17:11Z</time>
  <course>192.81</course>
  <speed>1.0141498903022177</speed>
  <fix>3d</fix>
</trkpt>
<trkpt lat="33.8099862" lon="-118.3939202">
  <ele>-24.42</ele>
  <time>2026-09-01T01:17:11Z</time>
  <course>194.05</course>
  <speed>1.0</speed>
  <fix>3d</fix>
</trkpt>
<trkpt lat="33.809983" lon="-118.3939209">
  <ele>-25.024</ele>
  <time>2026-09-01T01:17:11Z</time>
  <course>192.79</course>
  <speed>1.0141498903022177</speed>
  <fix>3d</fix>
</trkpt>
<trkpt lat="33.8099844" lon="-118.3939207">
  <ele>-24.42</ele>
  <time>2026-09-01T01:17:11Z</time>
  <course>194.02</course>
  <speed>1.0</speed>
  <fix>3d</fix>
</trkpt>
<trkpt lat="33.8099821" lon="-118.3939211">
  <ele>-25.023</ele>
  <time>2026-09-01T01:17:11Z</time>
  <course>192.78</course>
  <speed>1.0141498903022177</speed>
  <fix>3d</fix>
</trkpt>
<trkpt lat="33.8099844" lon="-118.3939207">
  <ele>-24.42</ele>
  <time>2026-09-01T01:17:11Z</time>
  <course>194.02</course>
  <speed>1.0</speed>
  <fix>3d</fix>
</trkpt>
<trkpt lat="33.8099812" lon="-118.3939214">
  <ele>-25.023</ele>
  <time>2026-09-01T01:17:11Z</time>
  <course>192.76</course>
  <speed>1.0141498903022177</speed>
  <fix>3d</fix>
</trkpt>
<trkpt lat="33.8099826" lon="-118.3939212">
  <ele>-24.42</ele>
  <time>2026-09-01T01:17:11Z</time>
  <course>193.99</course>
  <speed>1.0</speed>
  <fix>3d</fix>
</trkpt>
<trkpt lat="33.8099803" lon="-118.3939216">
  <ele>-25.023</ele>
  <time>2026-09-01T01:17:11Z</time>
  <course>192.76</course>
  <speed>1.0141498903022177</speed>
  <fix>3d</fix>
</trkpt>
<trkpt lat="33.8099826" lon="-118.3939212">
  <ele>-24.42</ele>
  <time>2026-09-01T01:17:11Z</time>
  <course>193.99</course>
  <speed>1.0</speed>
  <fix>3d</fix>
</trkpt>
<trkpt lat="33.8099795" lon="-118.3939219">
  <ele>-25.025</ele>
  <time>2026-09-01T01:17:11Z</time>
  <course>192.76</course>
  <speed>1.0141498903022177</speed>
  <fix>3d</fix>
</trkpt>
<trkpt lat="33.8099809" lon="-118.3939217">
  <ele>-24.42</ele>
  <time>2026-09-01T01:17:11Z</time>
  <course>194.0</course>
  <speed>1.0</speed>
  <fix>3d</fix>
</trkpt>
<trkpt lat="33.8099786" lon="-118.3939222">
  <ele>-25.026</ele>
  <time>2026-09-01T01:17:11Z</time>
  <course>192.77</course>
  <speed>1.0141498903022177</speed>
  <fix>3d</fix>
</trkpt>
<trkpt lat="33.8099809" lon="-118.3939217">
  <ele>-24.42</ele>
  <time>2026-09-01T01:17:11Z</time>
  <course>194.0</course>
  <speed>1.0</speed>
  <fix>3d</fix>
</trkpt>
<trkpt lat="33.8099777" lon="-118.3939224">
  <ele>-25.027</ele>
  <time>2026-09-01T01:17:11Z</time>
  <course>192.79</course>
  <speed>1.0141498903022177</speed>
  <fix>3d</fix>
</trkpt>
<trkpt lat="33.8099792" lon="-118.3939222">
  <ele>-24.42</ele>
  <time>2026-09-01T01:17:11Z</time>
  <course>194.04</course>
  <speed>1.0</speed>
  <fix>3d</fix>
</trkpt>
<trkpt lat="33.8099769" lon="-118.3939227">
  <ele>-25.028</ele>
  <time>2026-09-01T01:17:11Z</time>
  <course>192.82</course>
  <speed>1.0141498903022177</speed>
  <fix>3d</fix>
</trkpt>
<trkpt lat="33.8099792" lon="-118.3939222">
  <ele>-24.42</ele>
  <time>2026-09-01T01:17:11Z</time>
  <course>194.04</course>
  <speed>1.0</speed>
  <fix>3d</fix>
</trkpt>
<trkpt lat="33.809976" lon="-118.393923">
  <ele>-25.029</ele>
  <time>2026-09-01T01:17:11Z</time>
  <course>192.84</course>
  <speed>1.0141498903022177</speed>
  <fix>3d</fix>
</trkpt>
<trkpt lat="33.8099774" lon="-118.3939228">
  <ele>-24.43</ele>
  <time>2026-09-01T01:17:11Z</time>
  <course>194.09</course>
  <speed>1.0</speed>
  <fix>3d</fix>
</trkpt>
<trkpt lat="33.8099751" lon="-118.3939232">
  <ele>-25.028</ele>
  <time>2026-09-01T01:17:11Z</time>
  <course>192.87</course>
  <speed>1.0141498903022177</speed>
  <fix>3d</fix>
</trkpt>
<trkpt lat="33.8099774" lon="-118.3939228">
  <ele>-24.43</ele>
  <time>2026-09-01T01:17:11Z</time>
  <course>194.09</course>
  <speed>1.0</speed>
  <fix>3d</fix>
</trkpt>
<trkpt lat="33.8099742" lon="-118.3939235">
  <ele>-25.027</ele>
  <time>2026-09-01T01:17:11Z</time>
  <course>192.88</course>
  <speed>1.0141498903022177</speed>
  <fix>3d</fix>
</trkpt>
<trkpt lat="33.8099756" lon="-118.3939233">
  <ele>-24.43</ele>
  <time>2026-09-01T01:17:11Z</time>
  <course>194.1</course>
  <speed>1.0</speed>
  <fix>3d</fix>
</trkpt>
<trkpt lat="33.8099733" lon="-118.3939237">
  <ele>-25.026</ele>
  <time>2026-09-01T01:17:11Z</time>
  <course>192.88</course>
  <speed>1.0141498903022177</speed>
  <fix>3d</fix>
</trkpt>
<trkpt lat="33.8099756" lon="-118.3939233">
  <ele>-24.43</ele>
  <time>2026-09-01T01:17:11Z</time>
  <course>194.1</course>
  <speed>1.0</speed>
  <fix>3d</fix>
</trkpt>
<trkpt lat="33.8099725" lon="-118.393924">
  <ele>-25.025</ele>
  <time>2026-09-01T01:17:11Z</time>
  <course>192.89</course>
  <speed>1.0141498903022177</speed>
  <fix>3d</fix>
</trkpt>
<trkpt lat="33.8099739" lon="-118.3939239">
  <ele>-24.42</ele>
  <time>2026-09-01T01:17:11Z</time>
  <course>194.1</course>
  <speed>1.0</speed>
  <fix>3d</fix>
</trkpt>
<trkpt lat="33.8099716" lon="-118.3939243">
  <ele>-25.023</ele>
  <time>2026-09-01T01:17:11Z</time>
  <course>192.88</course>
  <speed>1.0141498903022177</speed>
  <fix>3d</fix>
</trkpt>
<trkpt lat="33.8099739" lon="-118.3939239">
  <ele>-24.42</ele>
  <time>2026-09-01T01:17:11Z</time>
  <course>194.1</course>
  <speed>1.0</speed>
  <fix>3d</fix>
</trkpt>
<trkpt lat="33.8099707" lon="-118.3939245">
  <ele>-25.023</ele>
  <time>2026-09-01T01:17:11Z</time>
  <course>192.86</course>
  <speed>1.0141498903022177</speed>
  <fix>3d</fix>
</trkpt>
<trkpt lat="33.8099722" lon="-118.3939244">
  <ele>-24.42</ele>
  <time>2026-09-01T01:17:11Z</time>
  <course>194.08</course>
  <speed>1.0</speed>
  <fix>3d</fix>
</trkpt>
<trkpt lat="33.8099699" lon="-118.3939248">
  <ele>-25.023</ele>
  <time>2026-09-01T01:17:11Z</time>
  <course>192.84</course>
  <speed>1.0141498903022177</speed>
  <fix>3d</fix>
</trkpt>
<trkpt lat="33.8099722" lon="-118.3939244">
  <ele>-24.42</ele>
  <time>2026-09-01T01:17:11Z</time>
  <course>194.08</course>
  <speed>1.0</speed>
  <fix>3d</fix>
</trkpt>
<trkpt lat="33.809969" lon="-118.3939251">
  <ele>-25.025</ele>
  <time>2026-09-01T01:17:11Z</time>
  <course>192.81</course>
  <speed>1.0141498903022177</speed>
  <fix>3d</fix>
</trkpt>
<trkpt lat="33.8099704" lon="-118.3939249">
  <ele>-24.42</ele>
  <time>2026-09-01T01:17:11Z</time>
  <course>194.03</course>
  <speed>1.0</speed>
  <fix>3d</fix>
</trkpt>
<trkpt lat="33.8099681" lon="-118.3939253">
  <ele>-25.028</ele>
  <time>2026-09-01T01:17:11Z</time>
  <course>192.8</course>
  <speed>1.0141498903022177</speed>
  <fix>3d</fix>
</trkpt>
<trkpt lat="33.8099704" lon="-118.3939249">
  <ele>-24.42</ele>
  <time>2026-09-01T01:17:11Z</time>
  <course>194.03</course>
  <speed>1.0</speed>
  <fix>3d</fix>
</trkpt>
<trkpt lat="33.8099673" lon="-118.3939256">
  <ele>-25.03</ele>
  <time>2026-09-01T01:17:11Z</time>
  <course>192.79</course>
  <speed>1.0141498903022177</speed>
  <fix>3d</fix>
</trkpt>
<trkpt lat="33.8099687" lon="-118.3939254">
  <ele>-24.43</ele>
  <time>2026-09-01T01:17:11Z</time>
  <course>194.01</course>
  <speed>1.0</speed>
  <fix>3d</fix>
</trkpt>
<trkpt lat="33.8099664" lon="-118.3939259">
  <ele>-25.033</ele>
  <time>2026-09-01T01:17:11Z</time>
  <course>192.78</course>
  <speed>1.0141498903022177</speed>
  <fix>3d</fix>
</trkpt>
<trkpt lat="33.8099687" lon="-118.3939254">
  <ele>-24.43</ele>
  <time>2026-09-01T01:17:11Z</time>
  <course>194.01</course>
  <speed>1.0</speed>
  <fix>3d</fix>
</trkpt>
<trkpt lat="33.8099655" lon="-118.3939261">
  <ele>-25.034</ele>
  <time>2026-09-01T01:17:11Z</time>
  <course>192.79</course>
  <speed>1.0141498903022177</speed>
  <fix>3d</fix>
</trkpt>
<trkpt lat="33.8099669" lon="-118.393926">
  <ele>-24.43</ele>
  <time>2026-09-01T01:17:11Z</time>
  <course>194.02</course>
  <speed>1.0</speed>
  <fix>3d</fix>
</trkpt>
<trkpt lat="33.8099646" lon="-118.3939264">
  <ele>-25.035</ele>
  <time>2026-09-01T01:17:11Z</time>
  <course>192.79</course>
  <speed>1.0141498903022177</speed>
  <fix>3d</fix>
</trkpt>
<trkpt lat="33.8099669" lon="-118.393926">
  <ele>-24.43</ele>
  <time>2026-09-01T01:17:11Z</time>
  <course>194.02</course>
  <speed>1.0</speed>
  <fix>3d</fix>
</trkpt>
<trkpt lat="33.8099637" lon="-118.3939267">
  <ele>-25.035</ele>
  <time>2026-09-01T01:17:11Z</time>
  <course>192.79</course>
  <speed>1.0141498903022177</speed>
  <fix>3d</fix>
</trkpt>
<trkpt lat="33.8099651" lon="-118.3939265">
  <ele>-24.42</ele>
  <time>2026-09-01T01:17:11Z</time>
  <course>194.02</course>
  <speed>1.0</speed>
  <fix>3d</fix>
</trkpt>
<trkpt lat="33.8099629" lon="-118.3939269">
  <ele>-25.033</ele>
  <time>2026-09-01T01:17:11Z</time>
  <course>192.79</course>
  <speed>1.0141498903022177</speed>
  <fix>3d</fix>
</trkpt>
<trkpt lat="33.8099651" lon="-118.3939265">
  <ele>-24.42</ele>
  <time>2026-09-01T01:17:11Z</time>
  <course>194.02</course>
  <speed>1.0</speed>
  <fix>3d</fix>
</trkpt>
<trkpt lat="33.809962" lon="-118.3939272">
  <ele>-25.031</ele>
  <time>2026-09-01T01:17:12Z</time>
  <course>192.79</course>
  <speed>1.0141498903022177</speed>
  <fix>3d</fix>
</trkpt>
<trkpt lat="33.8099634" lon="-118.393927">
  <ele>-24.42</ele>
  <time>2026-09-01T01:17:12Z</time>
  <course>194.02</course>
  <speed>0.99</speed>
  <fix>3d</fix>
</trkpt>
<trkpt lat="33.8099611" lon="-118.3939274">
  <ele>-25.028</ele>
  <time>2026-09-01T01:17:12Z</time>
  <course>192.79</course>
  <speed>1.0141498903022177</speed>
  <fix>3d</fix>
</trkpt>
<trkpt lat="33.8099634" lon="-118.393927">
  <ele>-24.42</ele>
  <time>2026-09-01T01:17:12Z</time>
  <course>194.02</course>
  <speed>0.99</speed>
  <fix>3d</fix>
</trkpt>
<trkpt lat="33.8099603" lon="-118.3939277">
  <ele>-25.025</ele>
  <time>2026-09-01T01:17:12Z</time>
  <course>192.79</course>
  <speed>1.0141498903022177</speed>
  <fix>3d</fix>
</trkpt>
<trkpt lat="33.8099617" lon="-118.3939275">
  <ele>-24.41</ele>
  <time>2026-09-01T01:17:12Z</time>
  <course>194.04</course>
  <speed>0.99</speed>
  <fix>3d</fix>
</trkpt>
<trkpt lat="33.8099594" lon="-118.393928">
  <ele>-25.023</ele>
  <time>2026-09-01T01:17:12Z</time>
  <course>192.8</course>
  <speed>1.0141498903022177</speed>
  <fix>3d</fix>
</trkpt>
<trkpt lat="33.8099617" lon="-118.3939275">
  <ele>-24.41</ele>
  <time>2026-09-01T01:17:12Z</time>
  <course>194.04</course>
  <speed>0.99</speed>
  <fix>3d</fix>
</trkpt>
<trkpt lat="33.8099585" lon="-118.3939282">
  <ele>-25.021</ele>
  <time>2026-09-01T01:17:12Z</time>
  <course>192.81</course>
  <speed>1.0141498903022177</speed>
  <fix>3d</fix>
</trkpt>
<trkpt lat="33.80996" lon="-118.3939281">
  <ele>-24.41</ele>
  <time>2026-09-01T01:17:12Z</time>
  <course>194.06</course>
  <speed>0.99</speed>
  <fix>3d</fix>
</trkpt>
<trkpt lat="33.8099576" lon="-118.3939285">
  <ele>-25.019</ele>
  <time>2026-09-01T01:17:12Z</time>
  <course>192.83</course>
  <speed>1.0141498903022177</speed>
  <fix>3d</fix>
</trkpt>
<trkpt lat="33.80996" lon="-118.3939281">
  <ele>-24.41</ele>
  <time>2026-09-01T01:17:12Z</time>
  <course>194.06</course>
  <speed>0.99</speed>
  <fix>3d</fix>
</trkpt>
<trkpt lat="33.8099568" lon="-118.3939288">
  <ele>-25.019</ele>
  <time>2026-09-01T01:17:12Z</time>
  <course>192.82</course>
  <speed>1.0141498903022177</speed>
  <fix>3d</fix>
</trkpt>
<trkpt lat="33.8099582" lon="-118.3939286">
  <ele>-24.41</ele>
  <time>2026-09-01T01:17:12Z</time>
  <course>194.04</course>
  <speed>0.99</speed>
  <fix>3d</fix>
</trkpt>
<trkpt lat="33.8099559" lon="-118.393929">
  <ele>-25.019</ele>
  <time>2026-09-01T01:17:12Z</time>
  <course>192.8</course>
  <speed>1.0141498903022177</speed>
  <fix>3d</fix>
</trkpt>
<trkpt lat="33.8099582" lon="-118.3939286">
  <ele>-24.41</ele>
  <time>2026-09-01T01:17:12Z</time>
  <course>194.04</course>
  <speed>0.99</speed>
  <fix>3d</fix>
</trkpt>
<trkpt lat="33.809955" lon="-118.3939293">
  <ele>-25.021</ele>
  <time>2026-09-01T01:17:12Z</time>
  <course>192.78</course>
  <speed>1.0141498903022177</speed>
  <fix>3d</fix>
</trkpt>
<trkpt lat="33.8099565" lon="-118.3939291">
  <ele>-24.41</ele>
  <time>2026-09-01T01:17:12Z</time>
  <course>194.0</course>
  <speed>0.99</speed>
  <fix>3d</fix>
</trkpt>
<trkpt lat="33.8099541" lon="-118.3939295">
  <ele>-25.023</ele>
  <time>2026-09-01T01:17:12Z</time>
  <course>192.77</course>
  <speed>1.0141498903022177</speed>
  <fix>3d</fix>
</trkpt>
<trkpt lat="33.8099565" lon="-118.3939291">
  <ele>-24.41</ele>
  <time>2026-09-01T01:17:12Z</time>
  <course>194.0</course>
  <speed>0.99</speed>
  <fix>3d</fix>
</trkpt>
<trkpt lat="33.8099533" lon="-118.3939298">
  <ele>-25.023</ele>
  <time>2026-09-01T01:17:12Z</time>
  <course>192.77</course>
  <speed>1.0141498903022177</speed>
  <fix>3d</fix>
</trkpt>
<trkpt lat="33.8099547" lon="-118.3939296">
  <ele>-24.41</ele>
  <time>2026-09-01T01:17:12Z</time>
  <course>193.99</course>
  <speed>0.99</speed>
  <fix>3d</fix>
</trkpt>
<trkpt lat="33.8099524" lon="-118.3939301">
  <ele>-25.023</ele>
  <time>2026-09-01T01:17:12Z</time>
  <course>192.79</course>
  <speed>1.0141498903022177</speed>
  <fix>3d</fix>
</trkpt>
<trkpt lat="33.8099547" lon="-118.3939296">
  <ele>-24.41</ele>
  <time>2026-09-01T01:17:12Z</time>
  <course>193.99</course>
  <speed>0.99</speed>
  <fix>3d</fix>
</trkpt>
<trkpt lat="33.8099515" lon="-118.3939303">
  <ele>-25.022</ele>
  <time>2026-09-01T01:17:12Z</time>
  <course>192.8</course>
  <speed>1.0141498903022177</speed>
  <fix>3d</fix>
</trkpt>
<trkpt lat="33.809953" lon="-118.3939301">
  <ele>-24.41</ele>
  <time>2026-09-01T01:17:12Z</time>
  <course>194.02</course>
  <speed>0.99</speed>
  <fix>3d</fix>
</trkpt>
<trkpt lat="33.8099507" lon="-118.3939306">
  <ele>-25.021</ele>
  <time>2026-09-01T01:17:12Z</time>
  <course>192.83</course>
  <speed>1.0141498903022177</speed>
  <fix>3d</fix>
</trkpt>
<trkpt lat="33.809953" lon="-118.3939301">
  <ele>-24.41</ele>
  <time>2026-09-01T01:17:12Z</time>
  <course>194.02</course>
  <speed>0.99</speed>
  <fix>3d</fix>
</trkpt>
<trkpt lat="33.8099498" lon="-118.3939309">
  <ele>-25.021</ele>
  <time>2026-09-01T01:17:12Z</time>
  <course>192.86</course>
  <speed>1.0141498903022177</speed>
  <fix>3d</fix>
</trkpt>
<trkpt lat="33.8099512" lon="-118.3939307">
  <ele>-24.41</ele>
  <time>2026-09-01T01:17:12Z</time>
  <course>194.07</course>
  <speed>0.99</speed>
  <fix>3d</fix>
</trkpt>
<trkpt lat="33.8099489" lon="-118.3939311">
  <ele>-25.02</ele>
  <time>2026-09-01T01:17:12Z</time>
  <course>192.89</course>
  <speed>1.0141498903022177</speed>
  <fix>3d</fix>
</trkpt>
<trkpt lat="33.8099512" lon="-118.3939307">
  <ele>-24.41</ele>
  <time>2026-09-01T01:17:12Z</time>
  <course>194.07</course>
  <speed>0.99</speed>
  <fix>3d</fix>
</trkpt>
<trkpt lat="33.8099481" lon="-118.3939314">
  <ele>-25.02</ele>
  <time>2026-09-01T01:17:12Z</time>
  <course>192.9</course>
  <speed>1.0141498903022177</speed>
  <fix>3d</fix>
</trkpt>
<trkpt lat="33.8099495" lon="-118.3939312">
  <ele>-24.41</ele>
  <time>2026-09-01T01:17:12Z</time>
  <course>194.1</course>
  <speed>0.99</speed>
  <fix>3d</fix>
</trkpt>
<trkpt lat="33.8099472" lon="-118.3939316">
  <ele>-25.02</ele>
  <time>2026-09-01T01:17:12Z</time>
  <course>192.9</course>
  <speed>1.0141498903022177</speed>
  <fix>3d</fix>
</trkpt>
<trkpt lat="33.8099495" lon="-118.3939312">
  <ele>-24.41</ele>
  <time>2026-09-01T01:17:12Z</time>
  <course>194.1</course>
  <speed>0.99</speed>
  <fix>3d</fix>
</trkpt>
<trkpt lat="33.8099463" lon="-118.3939319">
  <ele>-25.021</ele>
  <time>2026-09-01T01:17:12Z</time>
  <course>192.89</course>
  <speed>1.0141498903022177</speed>
  <fix>3d</fix>
</trkpt>
<trkpt lat="33.8099478" lon="-118.3939317">
  <ele>-24.41</ele>
  <time>2026-09-01T01:17:12Z</time>
  <course>194.1</course>
  <speed>0.99</speed>
  <fix>3d</fix>
</trkpt>
<trkpt lat="33.8099454" lon="-118.3939322">
  <ele>-25.023</ele>
  <time>2026-09-01T01:17:12Z</time>
  <course>192.89</course>
  <speed>1.0141498903022177</speed>
  <fix>3d</fix>
</trkpt>
<trkpt lat="33.8099478" lon="-118.3939317">
  <ele>-24.41</ele>
  <time>2026-09-01T01:17:12Z</time>
  <course>194.1</course>
  <speed>0.99</speed>
  <fix>3d</fix>
</trkpt>
<trkpt lat="33.8099445" lon="-118.3939324">
  <ele>-25.025</ele>
  <time>2026-09-01T01:17:12Z</time>
  <course>192.89</course>
  <speed>1.0141498903022177</speed>
  <fix>3d</fix>
</trkpt>
<trkpt lat="33.809946" lon="-118.3939322">
  <ele>-24.42</ele>
  <time>2026-09-01T01:17:12Z</time>
  <course>194.1</course>
  <speed>0.99</speed>
  <fix>3d</fix>
</trkpt>
<trkpt lat="33.8099437" lon="-118.3939327">
  <ele>-25.028</ele>
  <time>2026-09-01T01:17:12Z</time>
  <course>192.9</course>
  <speed>1.0141498903022177</speed>
  <fix>3d</fix>
</trkpt>
<trkpt lat="33.809946" lon="-118.3939322">
  <ele>-24.42</ele>
  <time>2026-09-01T01:17:12Z</time>
  <course>194.1</course>
  <speed>0.99</speed>
  <fix>3d</fix>
</trkpt>
<trkpt lat="33.8099428" lon="-118.393933">
  <ele>-25.03</ele>
  <time>2026-09-01T01:17:12Z</time>
  <course>192.92</course>
  <speed>1.0141498903022177</speed>
  <fix>3d</fix>
</trkpt>
<trkpt lat="33.8099443" lon="-118.3939327">
  <ele>-24.42</ele>
  <time>2026-09-01T01:17:12Z</time>
  <course>194.12</course>
  <speed>0.99</speed>
  <fix>3d</fix>
</trkpt>
<trkpt lat="33.8099419" lon="-118.3939332">
  <ele>-25.031</ele>
  <time>2026-09-01T01:17:12Z</time>
  <course>192.94</course>
  <speed>1.0141498903022177</speed>
  <fix>3d</fix>
</trkpt>
<trkpt lat="33.8099443" lon="-118.3939327">
  <ele>-24.42</ele>
  <time>2026-09-01T01:17:12Z</time>
  <course>194.12</course>
  <speed>0.99</speed>
  <fix>3d</fix>
</trkpt>
<trkpt lat="33.8099411" lon="-118.3939335">
  <ele>-25.031</ele>
  <time>2026-09-01T01:17:12Z</time>
  <course>192.97</course>
  <speed>1.0141498903022177</speed>
  <fix>3d</fix>
</trkpt>
<trkpt lat="33.8099426" lon="-118.3939333">
  <ele>-24.42</ele>
  <time>2026-09-01T01:17:12Z</time>
  <course>194.16</course>
  <speed>0.99</speed>
  <fix>3d</fix>
</trkpt>
<trkpt lat="33.8099402" lon="-118.3939337">
  <ele>-25.029</ele>
  <time>2026-09-01T01:17:12Z</time>
  <course>192.98</course>
  <speed>1.0141498903022177</speed>
  <fix>3d</fix>
</trkpt>
<trkpt lat="33.8099426" lon="-118.3939333">
  <ele>-24.42</ele>
  <time>2026-09-01T01:17:12Z</time>
  <course>194.16</course>
  <speed>0.99</speed>
  <fix>3d</fix>
</trkpt>
<trkpt lat="33.8099393" lon="-118.393934">
  <ele>-25.026</ele>
  <time>2026-09-01T01:17:12Z</time>
  <course>192.99</course>
  <speed>1.0141498903022177</speed>
  <fix>3d</fix>
</trkpt>
<trkpt lat="33.8099408" lon="-118.3939338">
  <ele>-24.42</ele>
  <time>2026-09-01T01:17:12Z</time>
  <course>194.2</course>
  <speed>1.0</speed>
  <fix>3d</fix>
</trkpt>
<trkpt lat="33.8099384" lon="-118.3939343">
  <ele>-25.023</ele>
  <time>2026-09-01T01:17:12Z</time>
  <course>192.98</course>
  <speed>1.0141498903022177</speed>
  <fix>3d</fix>
</trkpt>
<trkpt lat="33.8099408" lon="-118.3939338">
  <ele>-24.42</ele>
  <time>2026-09-01T01:17:12Z</time>
  <course>194.2</course>
  <speed>1.0</speed>
  <fix>3d</fix>
</trkpt>
<trkpt lat="33.8099376" lon="-118.3939345">
  <ele>-25.021</ele>
  <time>2026-09-01T01:17:12Z</time>
  <course>192.97</course>
  <speed>1.0141498903022177</speed>
  <fix>3d</fix>
</trkpt>
<trkpt lat="33.809939" lon="-118.3939344">
  <ele>-24.42</ele>
  <time>2026-09-01T01:17:12Z</time>
  <course>194.2</course>
  <speed>1.0</speed>
  <fix>3d</fix>
</trkpt>
<trkpt lat="33.8099367" lon="-118.3939348">
  <ele>-25.02</ele>
  <time>2026-09-01T01:17:12Z</time>
  <course>192.96</course>
  <speed>1.0141498903022177</speed>
  <fix>3d</fix>
</trkpt>
<trkpt lat="33.809939" lon="-118.3939344">
  <ele>-24.42</ele>
  <time>2026-09-01T01:17:12Z</time>
  <course>194.2</course>
  <speed>1.0</speed>
  <fix>3d</fix>
</trkpt>
<trkpt lat="33.8099358" lon="-118.3939351">
  <ele>-25.019</ele>
  <time>2026-09-01T01:17:12Z</time>
  <course>192.94</course>
  <speed>1.0141498903022177</speed>
  <fix>3d</fix>
</trkpt>
<trkpt lat="33.8099373" lon="-118.3939349">
  <ele>-24.41</ele>
  <time>2026-09-01T01:17:12Z</time>
  <course>194.18</course>
  <speed>1.0</speed>
  <fix>3d</fix>
</trkpt>
<trkpt lat="33.809935" lon="-118.3939353">
  <ele>-25.019</ele>
  <time>2026-09-01T01:17:12Z</time>
  <course>192.93</course>
  <speed>1.0141498903022177</speed>
  <fix>3d</fix>
</trkpt>
<trkpt lat="33.8099373" lon="-118.3939349">
  <ele>-24.41</ele>
  <time>2026-09-01T01:17:12Z</time>
  <course>194.18</course>
  <speed>1.0</speed>
  <fix>3d</fix>
</trkpt>
<trkpt lat="33.8099341" lon="-118.3939356">
  <ele>-25.02</ele>
  <time>2026-09-01T01:17:12Z</time>
  <course>192.9</course>
  <speed>1.0141498903022177</speed>
  <fix>3d</fix>
</trkpt>
<trkpt lat="33.8099356" lon="-118.3939354">
  <ele>-24.41</ele>
  <time>2026-09-01T01:17:12Z</time>
  <course>194.14</course>
  <speed>0.99</speed>
  <fix>3d</fix>
</trkpt>
<trkpt lat="33.8099332" lon="-118.3939359">
  <ele>-25.021</ele>
  <time>2026-09-01T01:17:12Z</time>
  <course>192.87</course>
  <speed>1.0141498903022177</speed>
  <fix>3d</fix>
</trkpt>
<trkpt lat="33.8099356" lon="-118.3939354">
  <ele>-24.41</ele>
  <time>2026-09-01T01:17:12Z</time>
  <course>194.14</course>
  <speed>0.99</speed>
  <fix>3d</fix>
</trkpt>
<trkpt lat="33.8099323" lon="-118.3939361">
  <ele>-25.024</ele>
  <time>2026-09-01T01:17:12Z</time>
  <course>192.86</course>
  <speed>1.0141498903022177</speed>
  <fix>3d</fix>
</trkpt>
<trkpt lat="33.8099338" lon="-118.3939359">
  <ele>-24.42</ele>
  <time>2026-09-01T01:17:12Z</time>
  <course>194.12</course>
  <speed>0.99</speed>
  <fix>3d</fix>
</trkpt>
<trkpt lat="33.8099315" lon="-118.3939364">
  <ele>-25.025</ele>
  <time>2026-09-01T01:17:12Z</time>
  <course>192.86</course>
  <speed>1.0141498903022177</speed>
  <fix>3d</fix>
</trkpt>
<trkpt lat="33.8099338" lon="-118.3939359">
  <ele>-24.42</ele>
  <time>2026-09-01T01:17:12Z</time>
  <course>194.12</course>
  <speed>0.99</speed>
  <fix>3d</fix>
</trkpt>
<trkpt lat="33.8099306" lon="-118.3939366">
  <ele>-25.026</ele>
  <time>2026-09-01T01:17:12Z</time>
  <course>192.86</course>
  <speed>1.0141498903022177</speed>
  <fix>3d</fix>
</trkpt>
<trkpt lat="33.8099321" lon="-118.3939365">
  <ele>-24.42</ele>
  <time>2026-09-01T01:17:12Z</time>
  <course>194.14</course>
  <speed>0.99</speed>
  <fix>3d</fix>
</trkpt>
<trkpt lat="33.8099297" lon="-118.3939369">
  <ele>-25.027</ele>
  <time>2026-09-01T01:17:12Z</time>
  <course>192.86</course>
  <speed>1.0141498903022177</speed>
  <fix>3d</fix>
</trkpt>
<trkpt lat="33.8099321" lon="-118.3939365">
  <ele>-24.42</ele>
  <time>2026-09-01T01:17:12Z</time>
  <course>194.14</course>
  <speed>0.99</speed>
  <fix>3d</fix>
</trkpt>
<trkpt lat="33.8099289" lon="-118.3939372">
  <ele>-25.028</ele>
  <time>2026-09-01T01:17:12Z</time>
  <course>192.85</course>
  <speed>1.0141498903022177</speed>
  <fix>3d</fix>
</trkpt>
<trkpt lat="33.8099304" lon="-118.393937">
  <ele>-24.42</ele>
  <time>2026-09-01T01:17:12Z</time>
  <course>194.14</course>
  <speed>0.99</speed>
  <fix>3d</fix>
</trkpt>
<trkpt lat="33.809928" lon="-118.3939374">
  <ele>-25.028</ele>
  <time>2026-09-01T01:17:12Z</time>
  <course>192.83</course>
  <speed>1.0141498903022177</speed>
  <fix>3d</fix>
</trkpt>
<trkpt lat="33.8099304" lon="-118.393937">
  <ele>-24.42</ele>
  <time>2026-09-01T01:17:12Z</time>
  <course>194.14</course>
  <speed>0.99</speed>
  <fix>3d</fix>
</trkpt>
<trkpt lat="33.8099271" lon="-118.3939377">
  <ele>-25.028</ele>
  <time>2026-09-01T01:17:12Z</time>
  <course>192.81</course>
  <speed>1.0141498903022177</speed>
  <fix>3d</fix>
</trkpt>
<trkpt lat="33.8099286" lon="-118.3939375">
  <ele>-24.42</ele>
  <time>2026-09-01T01:17:12Z</time>
  <course>194.11</course>
  <speed>0.99</speed>
  <fix>3d</fix>
</trkpt>
<trkpt lat="33.8099262" lon="-118.393938">
  <ele>-25.027</ele>
  <time>2026-09-01T01:17:12Z</time>
  <course>192.8</course>
  <speed>1.0141498903022177</speed>
  <fix>3d</fix>
</trkpt>
<trkpt lat="33.8099286" lon="-118.3939375">
  <ele>-24.42</ele>
  <time>2026-09-01T01:17:12Z</time>
  <course>194.11</course>
  <speed>0.99</speed>
  <fix>3d</fix>
</trkpt>
<trkpt lat="33.8099254" lon="-118.3939382">
  <ele>-25.025</ele>
  <time>2026-09-01T01:17:12Z</time>
  <course>192.8</course>
  <speed>1.0141498903022177</speed>
  <fix>3d</fix>
</trkpt>
<trkpt lat="33.8099268" lon="-118.393938">
  <ele>-24.42</ele>
  <time>2026-09-01T01:17:12Z</time>
  <course>194.1</course>
  <speed>1.0</speed>
  <fix>3d</fix>
</trkpt>
<trkpt lat="33.8099245" lon="-118.3939385">
  <ele>-25.023</ele>
  <time>2026-09-01T01:17:12Z</time>
  <course>192.8</course>
  <speed>1.0141498903022177</speed>
  <fix>3d</fix>
</trkpt>
<trkpt lat="33.8099268" lon="-118.393938">
  <ele>-24.42</ele>
  <time>2026-09-01T01:17:12Z</time>
  <course>194.1</course>
  <speed>1.0</speed>
  <fix>3d</fix>
</trkpt>
<trkpt lat="33.8099236" lon="-118.3939388">
  <ele>-25.021</ele>
  <time>2026-09-01T01:17:12Z</time>
  <course>192.82</course>
  <speed>1.0141498903022177</speed>
  <fix>3d</fix>
</trkpt>
<trkpt lat="33.8099251" lon="-118.3939386">
  <ele>-24.42</ele>
  <time>2026-09-01T01:17:12Z</time>
  <course>194.13</course>
  <speed>0.99</speed>
  <fix>3d</fix>
</trkpt>
<trkpt lat="33.8099227" lon="-118.393939">
  <ele>-25.022</ele>
  <time>2026-09-01T01:17:12Z</time>
  <course>192.83</course>
  <speed>1.0141498903022177</speed>
  <fix>3d</fix>
</trkpt>
<trkpt lat="33.8099251" lon="-118.3939386">
  <ele>-24.42</ele>
  <time>2026-09-01T01:17:12Z</time>
  <course>194.13</course>
  <speed>0.99</speed>
  <fix>3d</fix>
</trkpt>
<trkpt lat="33.8099219" lon="-118.3939393">
  <ele>-25.022</ele>
  <time>2026-09-01T01:17:12Z</time>
  <course>192.83</course>
  <speed>1.0141498903022177</speed>
  <fix>3d</fix>
</trkpt>
<trkpt lat="33.8099234" lon="-118.3939391">
  <ele>-24.42</ele>
  <time>2026-09-01T01:17:12Z</time>
  <course>194.16</course>
  <speed>0.99</speed>
  <fix>3d</fix>
</trkpt>
<trkpt lat="33.809921" lon="-118.3939395">
  <ele>-25.023</ele>
  <time>2026-09-01T01:17:12Z</time>
  <course>192.83</course>
  <speed>1.0141498903022177</speed>
  <fix>3d</fix>
</trkpt>
<trkpt lat="33.8099234" lon="-118.3939391">
  <ele>-24.42</ele>
  <time>2026-09-01T01:17:12Z</time>
  <course>194.16</course>
  <speed>0.99</speed>
  <fix>3d</fix>
</trkpt>
<trkpt lat="33.8099201" lon="-118.3939398">
  <ele>-25.024</ele>
  <time>2026-09-01T01:17:12Z</time>
  <course>192.81</course>
  <speed>1.0141498903022177</speed>
  <fix>3d</fix>
</trkpt>
<trkpt lat="33.8099217" lon="-118.3939396">
  <ele>-24.42</ele>
  <time>2026-09-01T01:17:12Z</time>
  <course>194.14</course>
  <speed>0.99</speed>
  <fix>3d</fix>
</trkpt>
<trkpt lat="33.8099193" lon="-118.3939401">
  <ele>-25.024</ele>
  <time>2026-09-01T01:17:12Z</time>
  <course>192.79</course>
  <speed>1.0141498903022177</speed>
  <fix>3d</fix>
</trkpt>
<trkpt lat="33.8099217" lon="-118.3939396">
  <ele>-24.42</ele>
  <time>2026-09-01T01:17:12Z</time>
  <course>194.14</course>
  <speed>0.99</speed>
  <fix>3d</fix>
</trkpt>
<trkpt lat="33.8099184" lon="-118.3939403">
  <ele>-25.024</ele>
  <time>2026-09-01T01:17:12Z</time>
  <course>192.78</course>
  <speed>1.0141498903022177</speed>
  <fix>3d</fix>
</trkpt>
<trkpt lat="33.8099199" lon="-118.3939402">
  <ele>-24.42</ele>
  <time>2026-09-01T01:17:12Z</time>
  <course>194.11</course>
  <speed>0.99</speed>
  <fix>3d</fix>
</trkpt>
<trkpt lat="33.8099175" lon="-118.3939406">
  <ele>-25.024</ele>
  <time>2026-09-01T01:17:12Z</time>
  <course>192.77</course>
  <speed>1.0141498903022177</speed>
  <fix>3d</fix>
</trkpt>
<trkpt lat="33.8099199" lon="-118.3939402">
  <ele>-24.42</ele>
  <time>2026-09-01T01:17:12Z</time>
  <course>194.11</course>
  <speed>0.99</speed>
  <fix>3d</fix>
</trkpt>
<trkpt lat="33.8099166" lon="-118.3939409">
  <ele>-25.024</ele>
  <time>2026-09-01T01:17:12Z</time>
  <course>192.75</course>
  <speed>1.0141498903022177</speed>
  <fix>3d</fix>
</trkpt>
<trkpt lat="33.8099182" lon="-118.3939407">
  <ele>-24.42</ele>
  <time>2026-09-01T01:17:12Z</time>
  <course>194.07</course>
  <speed>0.99</speed>
  <fix>3d</fix>
</trkpt>
<trkpt lat="33.8099158" lon="-118.3939411">
  <ele>-25.024</ele>
  <time>2026-09-01T01:17:12Z</time>
  <course>192.73</course>
  <speed>1.0141498903022177</speed>
  <fix>3d</fix>
</trkpt>
<trkpt lat="33.8099182" lon="-118.3939407">
  <ele>-24.42</ele>
  <time>2026-09-01T01:17:12Z</time>
  <course>194.07</course>
  <speed>0.99</speed>
  <fix>3d</fix>
</trkpt>
<trkpt lat="33.8099149" lon="-118.3939414">
  <ele>-25.024</ele>
  <time>2026-09-01T01:17:12Z</time>
  <course>192.71</course>
  <speed>1.0141498903022177</speed>
  <fix>3d</fix>
</trkpt>
<trkpt lat="33.8099164" lon="-118.3939412">
  <ele>-24.42</ele>
  <time>2026-09-01T01:17:12Z</time>
  <course>194.03</course>
  <speed>1.0</speed>
  <fix>3d</fix>
</trkpt>
<trkpt lat="33.809914" lon="-118.3939417">
  <ele>-25.023</ele>
  <time>2026-09-01T01:17:12Z</time>
  <course>192.69</course>
  <speed>1.0141498903022177</speed>
  <fix>3d</fix>
</trkpt>
<trkpt lat="33.8099164" lon="-118.3939412">
  <ele>-24.42</ele>
  <time>2026-09-01T01:17:12Z</time>
  <course>194.03</course>
  <speed>1.0</speed>
  <fix>3d</fix>
</trkpt>
<trkpt lat="33.8099132" lon="-118.3939419">
  <ele>-25.022</ele>
  <time>2026-09-01T01:17:12Z</time>
  <course>192.69</course>
  <speed>1.0141498903022177</speed>
  <fix>3d</fix>
</trkpt>
<trkpt lat="33.8099146" lon="-118.3939417">
  <ele>-24.42</ele>
  <time>2026-09-01T01:17:12Z</time>
  <course>194.02</course>
  <speed>1.0</speed>
  <fix>3d</fix>
</trkpt>
<trkpt lat="33.8099123" lon="-118.3939422">
  <ele>-25.021</ele>
  <time>2026-09-01T01:17:12Z</time>
  <course>192.7</course>
  <speed>1.0141498903022177</speed>
  <fix>3d</fix>
</trkpt>
<trkpt lat="33.8099146" lon="-118.3939417">
  <ele>-24.42</ele>
  <time>2026-09-01T01:17:12Z</time>
  <course>194.02</course>
  <speed>1.0</speed>
  <fix>3d</fix>
</trkpt>
<trkpt lat="33.8099114" lon="-118.3939424">
  <ele>-25.021</ele>
  <time>2026-09-01T01:17:12Z</time>
  <course>192.71</course>
  <speed>1.0141498903022177</speed>
  <fix>3d</fix>
</trkpt>
<trkpt lat="33.8099129" lon="-118.3939423">
  <ele>-24.42</ele>
  <time>2026-09-01T01:17:12Z</time>
  <course>194.05</course>
  <speed>0.99</speed>
  <fix>3d</fix>
</trkpt>
<trkpt lat="33.8099105" lon="-118.3939427">
  <ele>-25.022</ele>
  <time>2026-09-01T01:17:12Z</time>
  <course>192.74</course>
  <speed>1.0141498903022177</speed>
  <fix>3d</fix>
</trkpt>
<trkpt lat="33.8099129" lon="-118.3939423">
  <ele>-24.42</ele>
  <time>2026-09-01T01:17:12Z</time>
  <course>194.05</course>
  <speed>0.99</speed>
  <fix>3d</fix>
</trkpt>
<trkpt lat="33.8099097" lon="-118.393943">
  <ele>-25.023</ele>
  <time>2026-09-01T01:17:12Z</time>
  <course>192.74</course>
  <speed>1.0141498903022177</speed>
  <fix>3d</fix>
</trkpt>
<trkpt lat="33.8099112" lon="-118.3939428">
  <ele>-24.42</ele>
  <time>2026-09-01T01:17:12Z</time>
  <course>194.08</course>
  <speed>0.99</speed>
  <fix>3d</fix>
</trkpt>
<trkpt lat="33.8099088" lon="-118.3939432">
  <ele>-25.024</ele>
  <time>2026-09-01T01:17:12Z</time>
  <course>192.74</course>
  <speed>1.0141498903022177</speed>
  <fix>3d</fix>
</trkpt>
<trkpt lat="33.8099112" lon="-118.3939428">
  <ele>-24.42</ele>
  <time>2026-09-01T01:17:12Z</time>
  <course>194.08</course>
  <speed>0.99</speed>
  <fix>3d</fix>
</trkpt>
<trkpt lat="33.8099079" lon="-118.3939435">
  <ele>-25.024</ele>
  <time>2026-09-01T01:17:12Z</time>
  <course>192.73</course>
  <speed>1.0141498903022177</speed>
  <fix>3d</fix>
</trkpt>
<trkpt lat="33.8099095" lon="-118.3939433">
  <ele>-24.42</ele>
  <time>2026-09-01T01:17:12Z</time>
  <course>194.06</course>
  <speed>0.99</speed>
  <fix>3d</fix>
</trkpt>
<trkpt lat="33.809907" lon="-118.3939438">
  <ele>-25.025</ele>
  <time>2026-09-01T01:17:12Z</time>
  <course>192.71</course>
  <speed>1.0141498903022177</speed>
  <fix>3d</fix>
</trkpt>
<trkpt lat="33.8099095" lon="-118.3939433">
  <ele>-24.42</ele>
  <time>2026-09-01T01:17:12Z</time>
  <course>194.06</course>
  <speed>0.99</speed>
  <fix>3d</fix>
</trkpt>
<trkpt lat="33.8099062" lon="-118.393944">
  <ele>-25.025</ele>
  <time>2026-09-01T01:17:12Z</time>
  <course>192.7</course>
  <speed>1.0141498903022177</speed>
  <fix>3d</fix>
</trkpt>
<trkpt lat="33.8099077" lon="-118.3939438">
  <ele>-24.42</ele>
  <time>2026-09-01T01:17:12Z</time>
  <course>194.04</course>
  <speed>0.99</speed>
  <fix>3d</fix>
</trkpt>
<trkpt lat="33.8099053" lon="-118.3939443">
  <ele>-25.025</ele>
  <time>2026-09-01T01:17:12Z</time>
  <course>192.7</course>
  <speed>1.0141498903022177</speed>
  <fix>3d</fix>
</trkpt>
<trkpt lat="33.8099077" lon="-118.3939438">
  <ele>-24.42</ele>
  <time>2026-09-01T01:17:12Z</time>
  <course>194.04</course>
  <speed>0.99</speed>
  <fix>3d</fix>
</trkpt>
<trkpt lat="33.8099044" lon="-118.3939445">
  <ele>-25.025</ele>
  <time>2026-09-01T01:17:12Z</time>
  <course>192.72</course>
  <speed>1.0141498903022177</speed>
  <fix>3d</fix>
</trkpt>
<trkpt lat="33.809906" lon="-118.3939444">
  <ele>-24.42</ele>
  <time>2026-09-01T01:17:12Z</time>
  <course>194.05</course>
  <speed>1.0</speed>
  <fix>3d</fix>
</trkpt>
<trkpt lat="33.8099036" lon="-118.3939448">
  <ele>-25.025</ele>
  <time>2026-09-01T01:17:12Z</time>
  <course>192.72</course>
  <speed>1.0141498903022177</speed>
  <fix>3d</fix>
</trkpt>
<trkpt lat="33.809906" lon="-118.3939444">
  <ele>-24.42</ele>
  <time>2026-09-01T01:17:12Z</time>
  <course>194.05</course>
  <speed>1.0</speed>
  <fix>3d</fix>
</trkpt>
<trkpt lat="33.8099027" lon="-118.3939451">
  <ele>-25.026</ele>
  <time>2026-09-01T01:17:12Z</time>
  <course>192.72</course>
  <speed>1.0141498903022177</speed>
  <fix>3d</fix>
</trkpt>
<trkpt lat="33.8099042" lon="-118.3939449">
  <ele>-24.42</ele>
  <time>2026-09-01T01:17:12Z</time>
  <course>194.06</course>
  <speed>1.0</speed>
  <fix>3d</fix>
</trkpt>
<trkpt lat="33.8099018" lon="-118.3939453">
  <ele>-25.026</ele>
  <time>2026-09-01T01:17:12Z</time>
  <course>192.71</course>
  <speed>1.0141498903022177</speed>
  <fix>3d</fix>
</trkpt>
<trkpt lat="33.8099042" lon="-118.3939449">
  <ele>-24.42</ele>
  <time>2026-09-01T01:17:12Z</time>
  <course>194.06</course>
  <speed>1.0</speed>
  <fix>3d</fix>
</trkpt>
<trkpt lat="33.8099009" lon="-118.3939456">
  <ele>-25.027</ele>
  <time>2026-09-01T01:17:12Z</time>
  <course>192.7</course>
  <speed>1.0141498903022177</speed>
  <fix>3d</fix>
</trkpt>
<trkpt lat="33.8099024" lon="-118.3939454">
  <ele>-24.42</ele>
  <time>2026-09-01T01:17:12Z</time>
  <course>194.05</course>
  <speed>1.0</speed>
  <fix>3d</fix>
</trkpt>
<trkpt lat="33.8099001" lon="-118.3939459">
  <ele>-25.027</ele>
  <time>2026-09-01T01:17:12Z</time>
  <course>192.69</course>
  <speed>1.0141498903022177</speed>
  <fix>3d</fix>
</trkpt>
<trkpt lat="33.8099024" lon="-118.3939454">
  <ele>-24.42</ele>
  <time>2026-09-01T01:17:12Z</time>
  <course>194.05</course>
  <speed>1.0</speed>
  <fix>3d</fix>
</trkpt>
<trkpt lat="33.8098992" lon="-118.3939461">
  <ele>-25.026</ele>
  <time>2026-09-01T01:17:12Z</time>
  <course>192.7</course>
  <speed>1.0141498903022177</speed>
  <fix>3d</fix>
</trkpt>
<trkpt lat="33.8099007" lon="-118.3939459">
  <ele>-24.42</ele>
  <time>2026-09-01T01:17:12Z</time>
  <course>194.04</course>
  <speed>1.0</speed>
  <fix>3d</fix>
</trkpt>
<trkpt lat="33.8098983" lon="-118.3939464">
  <ele>-25.025</ele>
  <time>2026-09-01T01:17:12Z</time>
  <course>192.72</course>
  <speed>1.0141498903022177</speed>
  <fix>3d</fix>
</trkpt>
<trkpt lat="33.8099007" lon="-118.3939459">
  <ele>-24.42</ele>
  <time>2026-09-01T01:17:12Z</time>
  <course>194.04</course>
  <speed>1.0</speed>
  <fix>3d</fix>
</trkpt>
<trkpt lat="33.8098974" lon="-118.3939467">
  <ele>-25.024</ele>
  <time>2026-09-01T01:17:12Z</time>
  <course>192.74</course>
  <speed>1.0141498903022177</speed>
  <fix>3d</fix>
</trkpt>
<trkpt lat="33.809899" lon="-118.3939465">
  <ele>-24.42</ele>
  <time>2026-09-01T01:17:12Z</time>
  <course>194.07</course>
  <speed>1.0</speed>
  <fix>3d</fix>
</trkpt>
<trkpt lat="33.8098966" lon="-118.3939469">
  <ele>-25.023</ele>
  <time>2026-09-01T01:17:12Z</time>
  <course>192.75</course>
  <speed>1.0141498903022177</speed>
  <fix>3d</fix>
</trkpt>
<trkpt lat="33.809899" lon="-118.3939465">
  <ele>-24.42</ele>
  <time>2026-09-01T01:17:12Z</time>
  <course>194.07</course>
  <speed>1.0</speed>
  <fix>3d</fix>
</trkpt>
<trkpt lat="33.8098957" lon="-118.3939472">
  <ele>-25.022</ele>
  <time>2026-09-01T01:17:12Z</time>
  <course>192.76</course>
  <speed>1.0141498903022177</speed>
  <fix>3d</fix>
</trkpt>
<trkpt lat="33.8098972" lon="-118.393947">
  <ele>-24.42</ele>
  <time>2026-09-01T01:17:12Z</time>
  <course>194.07</course>
  <speed>1.0</speed>
  <fix>3d</fix>
</trkpt>
<trkpt lat="33.8098948" lon="-118.3939474">
  <ele>-25.021</ele>
  <time>2026-09-01T01:17:12Z</time>
  <course>192.75</course>
  <speed>1.0141498903022177</speed>
  <fix>3d</fix>
</trkpt>
<trkpt lat="33.8098972" lon="-118.393947">
  <ele>-24.42</ele>
  <time>2026-09-01T01:17:12Z</time>
  <course>194.07</course>
  <speed>1.0</speed>
  <fix>3d</fix>
</trkpt>
<trkpt lat="33.809894" lon="-118.3939477">
  <ele>-25.021</ele>
  <time>2026-09-01T01:17:12Z</time>
  <course>192.74</course>
  <speed>1.0141498903022177</speed>
  <fix>3d</fix>
</trkpt>
<trkpt lat="33.8098955" lon="-118.3939475">
  <ele>-24.42</ele>
  <time>2026-09-01T01:17:12Z</time>
  <course>194.04</course>
  <speed>1.0</speed>
  <fix>3d</fix>
</trkpt>
<trkpt lat="33.8098931" lon="-118.393948">
  <ele>-25.022</ele>
  <time>2026-09-01T01:17:12Z</time>
  <course>192.74</course>
  <speed>1.0141498903022177</speed>
  <fix>3d</fix>
</trkpt>
<trkpt lat="33.8098955" lon="-118.3939475">
  <ele>-24.42</ele>
  <time>2026-09-01T01:17:12Z</time>
  <course>194.04</course>
  <speed>1.0</speed>
  <fix>3d</fix>
</trkpt>
<trkpt lat="33.8098922" lon="-118.3939482">
  <ele>-25.022</ele>
  <time>2026-09-01T01:17:12Z</time>
  <course>192.74</course>
  <speed>1.0141498903022177</speed>
  <fix>3d</fix>
</trkpt>
<trkpt lat="33.8098938" lon="-118.393948">
  <ele>-24.42</ele>
  <time>2026-09-01T01:17:12Z</time>
  <course>194.04</course>
  <speed>1.0</speed>
  <fix>3d</fix>
</trkpt>
<trkpt lat="33.8098913" lon="-118.3939485">
  <ele>-25.022</ele>
  <time>2026-09-01T01:17:12Z</time>
  <course>192.75</course>
  <speed>1.0141498903022177</speed>
  <fix>3d</fix>
</trkpt>
<trkpt lat="33.8098938" lon="-118.393948">
  <ele>-24.42</ele>
  <time>2026-09-01T01:17:12Z</time>
  <course>194.04</course>
  <speed>1.0</speed>
  <fix>3d</fix>
</trkpt>
<trkpt lat="33.8098905" lon="-118.3939488">
  <ele>-25.023</ele>
  <time>2026-09-01T01:17:12Z</time>
  <course>192.76</course>
  <speed>1.0141498903022177</speed>
  <fix>3d</fix>
</trkpt>
<trkpt lat="33.809892" lon="-118.3939485">
  <ele>-24.42</ele>
  <time>2026-09-01T01:17:12Z</time>
  <course>194.08</course>
  <speed>1.0</speed>
  <fix>3d</fix>
</trkpt>
<trkpt lat="33.8098896" lon="-118.393949">
  <ele>-25.024</ele>
  <time>2026-09-01T01:17:12Z</time>
  <course>192.78</course>
  <speed>1.0141498903022177</speed>
  <fix>3d</fix>
</trkpt>
<trkpt lat="33.809892" lon="-118.3939485">
  <ele>-24.42</ele>
  <time>2026-09-01T01:17:12Z</time>
  <course>194.08</course>
  <speed>1.0</speed>
  <fix>3d</fix>
</trkpt>
<trkpt lat="33.8098887" lon="-118.3939493">
  <ele>-25.025</ele>
  <time>2026-09-01T01:17:12Z</time>
  <course>192.8</course>
  <speed>1.0141498903022177</speed>
  <fix>3d</fix>
</trkpt>
<trkpt lat="33.8098902" lon="-118.3939491">
  <ele>-24.42</ele>
  <time>2026-09-01T01:17:12Z</time>
  <course>194.13</course>
  <speed>1.0</speed>
  <fix>3d</fix>
</trkpt>
<trkpt lat="33.8098878" lon="-118.3939495">
  <ele>-25.025</ele>
  <time>2026-09-01T01:17:12Z</time>
  <course>192.82</course>
  <speed>1.0141498903022177</speed>
  <fix>3d</fix>
</trkpt>
<trkpt lat="33.8098902" lon="-118.3939491">
  <ele>-24.42</ele>
  <time>2026-09-01T01:17:12Z</time>
  <course>194.13</course>
  <speed>1.0</speed>
  <fix>3d</fix>
</trkpt>
<trkpt lat="33.809887" lon="-118.3939498">
  <ele>-25.025</ele>
  <time>2026-09-01T01:17:12Z</time>
  <course>192.83</course>
  <speed>1.0141498903022177</speed>
  <fix>3d</fix>
</trkpt>
<trkpt lat="33.8098885" lon="-118.3939496">
  <ele>-24.42</ele>
  <time>2026-09-01T01:17:12Z</time>
  <course>194.14</course>
  <speed>1.0</speed>
  <fix>3d</fix>
</trkpt>
<trkpt lat="33.8098861" lon="-118.3939501">
  <ele>-25.025</ele>
  <time>2026-09-01T01:17:12Z</time>
  <course>192.84</course>
  <speed>1.0141498903022177</speed>
  <fix>3d</fix>
</trkpt>
<trkpt lat="33.8098885" lon="-118.3939496">
  <ele>-24.42</ele>
  <time>2026-09-01T01:17:12Z</time>
  <course>194.14</course>
  <speed>1.0</speed>
  <fix>3d</fix>
</trkpt>
<trkpt lat="33.8098852" lon="-118.3939503">
  <ele>-25.026</ele>
  <time>2026-09-01T01:17:12Z</time>
  <course>192.84</course>
  <speed>1.0141498903022177</speed>
  <fix>3d</fix>
</trkpt>
<trkpt lat="33.8098868" lon="-118.3939502">
  <ele>-24.42</ele>
  <time>2026-09-01T01:17:12Z</time>
  <course>194.14</course>
  <speed>1.0</speed>
  <fix>3d</fix>
</trkpt>
<trkpt lat="33.8098844" lon="-118.3939506">
  <ele>-25.026</ele>
  <time>2026-09-01T01:17:12Z</time>
  <course>192.83</course>
  <speed>1.0141498903022177</speed>
  <fix>3d</fix>
</trkpt>
<trkpt lat="33.8098868" lon="-118.3939502">
  <ele>-24.42</ele>
  <time>2026-09-01T01:17:12Z</time>
  <course>194.14</course>
  <speed>1.0</speed>
  <fix>3d</fix>
</trkpt>
<trkpt lat="33.8098835" lon="-118.3939509">
  <ele>-25.026</ele>
  <time>2026-09-01T01:17:12Z</time>
  <course>192.81</course>
  <speed>1.0141498903022177</speed>
  <fix>3d</fix>
</trkpt>
<trkpt lat="33.809885" lon="-118.3939507">
  <ele>-24.41</ele>
  <time>2026-09-01T01:17:12Z</time>
  <course>194.12</course>
  <speed>1.0</speed>
  <fix>3d</fix>
</trkpt>
<trkpt lat="33.8098826" lon="-118.3939511">
  <ele>-25.025</ele>
  <time>2026-09-01T01:17:12Z</time>
  <course>192.78</course>
  <speed>1.0141498903022177</speed>
  <fix>3d</fix>
</trkpt>
<trkpt lat="33.809885" lon="-118.3939507">
  <ele>-24.41</ele>
  <time>2026-09-01T01:17:12Z</time>
  <course>194.12</course>
  <speed>1.0</speed>
  <fix>3d</fix>
</trkpt>
<trkpt lat="33.8098817" lon="-118.3939514">
  <ele>-25.023</ele>
  <time>2026-09-01T01:17:12Z</time>
  <course>192.76</course>
  <speed>1.0141498903022177</speed>
  <fix>3d</fix>
</trkpt>
<trkpt lat="33.8098832" lon="-118.3939512">
  <ele>-24.41</ele>
  <time>2026-09-01T01:17:12Z</time>
  <course>194.07</course>
  <speed>1.0</speed>
  <fix>3d</fix>
</trkpt>
<trkpt lat="33.8098809" lon="-118.3939517">
  <ele>-25.021</ele>
  <time>2026-09-01T01:17:12Z</time>
  <course>192.74</course>
  <speed>1.0141498903022177</speed>
  <fix>3d</fix>
</trkpt>
<trkpt lat="33.8098832" lon="-118.3939512">
  <ele>-24.41</ele>
  <time>2026-09-01T01:17:12Z</time>
  <course>194.07</course>
  <speed>1.0</speed>
  <fix>3d</fix>
</trkpt>
<trkpt lat="33.80988" lon="-118.3939519">
  <ele>-25.02</ele>
  <time>2026-09-01T01:17:12Z</time>
  <course>192.74</course>
  <speed>1.0141498903022177</speed>
  <fix>3d</fix>
</trkpt>
<trkpt lat="33.8098815" lon="-118.3939517">
  <ele>-24.41</ele>
  <time>2026-09-01T01:17:12Z</time>
  <course>194.04</course>
  <speed>1.0</speed>
  <fix>3d</fix>
</trkpt>
<trkpt lat="33.8098791" lon="-118.3939522">
  <ele>-25.019</ele>
  <time>2026-09-01T01:17:12Z</time>
  <course>192.75</course>
  <speed>1.0141498903022177</speed>
  <fix>3d</fix>
</trkpt>
<trkpt lat="33.8098815" lon="-118.3939517">
  <ele>-24.41</ele>
  <time>2026-09-01T01:17:12Z</time>
  <course>194.04</course>
  <speed>1.0</speed>
  <fix>3d</fix>
</trkpt>
<trkpt lat="33.8098782" lon="-118.3939524">
  <ele>-25.018</ele>
  <time>2026-09-01T01:17:12Z</time>
  <course>192.76</course>
  <speed>1.0141498903022177</speed>
  <fix>3d</fix>
</trkpt>
<trkpt lat="33.8098798" lon="-118.3939523">
  <ele>-24.41</ele>
  <time>2026-09-01T01:17:12Z</time>
  <course>194.07</course>
  <speed>0.99</speed>
  <fix>3d</fix>
</trkpt>
<trkpt lat="33.8098774" lon="-118.3939527">
  <ele>-25.018</ele>
  <time>2026-09-01T01:17:12Z</time>
  <course>192.78</course>
  <speed>1.0141498903022177</speed>
  <fix>3d</fix>
</trkpt>
<trkpt lat="33.8098798" lon="-118.3939523">
  <ele>-24.41</ele>
  <time>2026-09-01T01:17:12Z</time>
  <course>194.07</course>
  <speed>0.99</speed>
  <fix>3d</fix>
</trkpt>
<trkpt lat="33.8098765" lon="-118.393953">
  <ele>-25.018</ele>
  <time>2026-09-01T01:17:12Z</time>
  <course>192.77</course>
  <speed>1.0141498903022177</speed>
  <fix>3d</fix>
</trkpt>
<trkpt lat="33.809878" lon="-118.3939528">
  <ele>-24.41</ele>
  <time>2026-09-01T01:17:12Z</time>
  <course>194.06</course>
  <speed>0.99</speed>
  <fix>3d</fix>
</trkpt>
<trkpt lat="33.8098756" lon="-118.3939532">
  <ele>-25.017</ele>
  <time>2026-09-01T01:17:12Z</time>
  <course>192.76</course>
  <speed>1.0141498903022177</speed>
  <fix>3d</fix>
</trkpt>
<trkpt lat="33.809878" lon="-118.3939528">
  <ele>-24.41</ele>
  <time>2026-09-01T01:17:12Z</time>
  <course>194.06</course>
  <speed>0.99</speed>
  <fix>3d</fix>
</trkpt>
<trkpt lat="33.8098748" lon="-118.3939535">
  <ele>-25.018</ele>
  <time>2026-09-01T01:17:12Z</time>
  <course>192.75</course>
  <speed>1.0141498903022177</speed>
  <fix>3d</fix>
</trkpt>
<trkpt lat="33.8098763" lon="-118.3939533">
  <ele>-24.41</ele>
  <time>2026-09-01T01:17:12Z</time>
  <course>194.02</course>
  <speed>0.99</speed>
  <fix>3d</fix>
</trkpt>
<trkpt lat="33.8098739" lon="-118.3939537">
  <ele>-25.019</ele>
  <time>2026-09-01T01:17:12Z</time>
  <course>192.75</course>
  <speed>1.0141498903022177</speed>
  <fix>3d</fix>
</trkpt>
<trkpt lat="33.8098763" lon="-118.3939533">
  <ele>-24.41</ele>
  <time>2026-09-01T01:17:12Z</time>
  <course>194.02</course>
  <speed>0.99</speed>
  <fix>3d</fix>
</trkpt>
<trkpt lat="33.809873" lon="-118.393954">
  <ele>-25.021</ele>
  <time>2026-09-01T01:17:12Z</time>
  <course>192.75</course>
  <speed>1.0141498903022177</speed>
  <fix>3d</fix>
</trkpt>
<trkpt lat="33.8098746" lon="-118.3939538">
  <ele>-24.41</ele>
  <time>2026-09-01T01:17:12Z</time>
  <course>194.03</course>
  <speed>0.99</speed>
  <fix>3d</fix>
</trkpt>
<trkpt lat="33.8098721" lon="-118.3939543">
  <ele>-25.022</ele>
  <time>2026-09-01T01:17:12Z</time>
  <course>192.76</course>
  <speed>1.0141498903022177</speed>
  <fix>3d</fix>
</trkpt>
<trkpt lat="33.8098746" lon="-118.3939538">
  <ele>-24.41</ele>
  <time>2026-09-01T01:17:12Z</time>
  <course>194.03</course>
  <speed>0.99</speed>
  <fix>3d</fix>
</trkpt>
<trkpt lat="33.8098713" lon="-118.3939545">
  <ele>-25.022</ele>
  <time>2026-09-01T01:17:12Z</time>
  <course>192.77</course>
  <speed>1.0141498903022177</speed>
  <fix>3d</fix>
</trkpt>
<trkpt lat="33.8098728" lon="-118.3939543">
  <ele>-24.41</ele>
  <time>2026-09-01T01:17:12Z</time>
  <course>194.04</course>
  <speed>1.0</speed>
  <fix>3d</fix>
</trkpt>
<trkpt lat="33.8098704" lon="-118.3939548">
  <ele>-25.023</ele>
  <time>2026-09-01T01:17:12Z</time>
  <course>192.79</course>
  <speed>1.0239140588936164</speed>
  <fix>3d</fix>
</trkpt>
<trkpt lat="33.8098728" lon="-118.3939543">
  <ele>-24.41</ele>
  <time>2026-09-01T01:17:12Z</time>
  <course>194.04</course>
  <speed>1.0</speed>
  <fix>3d</fix>
</trkpt>
<trkpt lat="33.8098695" lon="-118.3939551">
  <ele>-25.023</ele>
  <time>2026-09-01T01:17:12Z</time>
  <course>192.81</course>
  <speed>1.0239140588936164</speed>
  <fix>3d</fix>
</trkpt>
<trkpt lat="33.809871" lon="-118.3939549">
  <ele>-24.42</ele>
  <time>2026-09-01T01:17:12Z</time>
  <course>194.07</course>
  <speed>1.0</speed>
  <fix>3d</fix>
</trkpt>
<trkpt lat="33.8098687" lon="-118.3939553">
  <ele>-25.024</ele>
  <time>2026-09-01T01:17:12Z</time>
  <course>192.83</course>
  <speed>1.0239140588936164</speed>
  <fix>3d</fix>
</trkpt>
<trkpt lat="33.809871" lon="-118.3939549">
  <ele>-24.42</ele>
  <time>2026-09-01T01:17:12Z</time>
  <course>194.07</course>
  <speed>1.0</speed>
  <fix>3d</fix>
</trkpt>
<trkpt lat="33.8098678" lon="-118.3939556">
  <ele>-25.024</ele>
  <time>2026-09-01T01:17:12Z</time>
  <course>192.83</course>
  <speed>1.0239140588936164</speed>
  <fix>3d</fix>
</trkpt>
<trkpt lat="33.8098693" lon="-118.3939554">
  <ele>-24.42</ele>
  <time>2026-09-01T01:17:12Z</time>
  <course>194.1</course>
  <speed>1.0</speed>
  <fix>3d</fix>
</trkpt>
<trkpt lat="33.8098669" lon="-118.3939558">
  <ele>-25.026</ele>
  <time>2026-09-01T01:17:12Z</time>
  <course>192.84</course>
  <speed>1.0239140588936164</speed>
  <fix>3d</fix>
</trkpt>
<trkpt lat="33.8098693" lon="-118.3939554">
  <ele>-24.42</ele>
  <time>2026-09-01T01:17:12Z</time>
  <course>194.1</course>
  <speed>1.0</speed>
  <fix>3d</fix>
</trkpt>
<trkpt lat="33.8098661" lon="-118.3939561">
  <ele>-25.027</ele>
  <time>2026-09-01T01:17:12Z</time>
  <course>192.84</course>
  <speed>1.0239140588936164</speed>
  <fix>3d</fix>
</trkpt>
<trkpt lat="33.8098676" lon="-118.393956">
  <ele>-24.42</ele>
  <time>2026-09-01T01:17:12Z</time>
  <course>194.11</course>
  <speed>1.0</speed>
  <fix>3d</fix>
</trkpt>
<trkpt lat="33.8098652" lon="-118.3939564">
  <ele>-25.028</ele>
  <time>2026-09-01T01:17:12Z</time>
  <course>192.83</course>
  <speed>1.0239140588936164</speed>
  <fix>3d</fix>
</trkpt>
<trkpt lat="33.8098676" lon="-118.393956">
  <ele>-24.42</ele>
  <time>2026-09-01T01:17:12Z</time>
  <course>194.11</course>
  <speed>1.0</speed>
  <fix>3d</fix>
</trkpt>
<trkpt lat="33.8098643" lon="-118.3939566">
  <ele>-25.028</ele>
  <time>2026-09-01T01:17:12Z</time>
  <course>192.8</course>
  <speed>1.0239140588936164</speed>
  <fix>3d</fix>
</trkpt>
<trkpt lat="33.8098658" lon="-118.3939565">
  <ele>-24.42</ele>
  <time>2026-09-01T01:17:12Z</time>
  <course>194.08</course>
  <speed>1.0</speed>
  <fix>3d</fix>
</trkpt>
<trkpt lat="33.8098634" lon="-118.3939569">
  <ele>-25.029</ele>
  <time>2026-09-01T01:17:12Z</time>
  <course>192.77</course>
  <speed>1.0239140588936164</speed>
  <fix>3d</fix>
</trkpt>
<trkpt lat="33.8098658" lon="-118.3939565">
  <ele>-24.42</ele>
  <time>2026-09-01T01:17:12Z</time>
  <course>194.08</course>
  <speed>1.0</speed>
  <fix>3d</fix>
</trkpt>
<trkpt lat="33.8098626" lon="-118.3939572">
  <ele>-25.028</ele>
  <time>2026-09-01T01:17:12Z</time>
  <course>192.74</course>
  <speed>1.0239140588936164</speed>
  <fix>3d</fix>
</trkpt>
<trkpt lat="33.8098641" lon="-118.393957">
  <ele>-24.41</ele>
  <time>2026-09-01T01:17:12Z</time>
  <course>194.02</course>
  <speed>1.0</speed>
  <fix>3d</fix>
</trkpt>
<trkpt lat="33.8098617" lon="-118.3939574">
  <ele>-25.025</ele>
  <time>2026-09-01T01:17:12Z</time>
  <course>192.72</course>
  <speed>1.0239140588936164</speed>
  <fix>3d</fix>
</trkpt>
<trkpt lat="33.8098641" lon="-118.393957">
  <ele>-24.41</ele>
  <time>2026-09-01T01:17:12Z</time>
  <course>194.02</course>
  <speed>1.0</speed>
  <fix>3d</fix>
</trkpt>
<trkpt lat="33.8098608" lon="-118.3939577">
  <ele>-25.022</ele>
  <time>2026-09-01T01:17:12Z</time>
  <course>192.7</course>
  <speed>1.0239140588936164</speed>
  <fix>3d</fix>
</trkpt>
<trkpt lat="33.8098622" lon="-118.3939575">
  <ele>-24.41</ele>
  <time>2026-09-01T01:17:12Z</time>
  <course>193.99</course>
  <speed>1.0</speed>
  <fix>3d</fix>
</trkpt>
<trkpt lat="33.8098599" lon="-118.393958">
  <ele>-25.019</ele>
  <time>2026-09-01T01:17:12Z</time>
  <course>192.7</course>
  <speed>1.0141498903022177</speed>
  <fix>3d</fix>
</trkpt>
<trkpt lat="33.8098622" lon="-118.3939575">
  <ele>-24.41</ele>
  <time>2026-09-01T01:17:12Z</time>
  <course>193.99</course>
  <speed>1.0</speed>
  <fix>3d</fix>
</trkpt>
<trkpt lat="33.8098591" lon="-118.3939582">
  <ele>-25.017</ele>
  <time>2026-09-01T01:17:12Z</time>
  <course>192.71</course>
  <speed>1.0141498903022177</speed>
  <fix>3d</fix>
</trkpt>
<trkpt lat="33.8098605" lon="-118.3939581">
  <ele>-24.4</ele>
  <time>2026-09-01T01:17:12Z</time>
  <course>194.0</course>
  <speed>1.0</speed>
  <fix>3d</fix>
</trkpt>
<trkpt lat="33.8098582" lon="-118.3939585">
  <ele>-25.015</ele>
  <time>2026-09-01T01:17:12Z</time>
  <course>192.73</course>
  <speed>1.0141498903022177</speed>
  <fix>3d</fix>
</trkpt>
<trkpt lat="33.8098605" lon="-118.3939581">
  <ele>-24.4</ele>
  <time>2026-09-01T01:17:12Z</time>
  <course>194.0</course>
  <speed>1.0</speed>
  <fix>3d</fix>
</trkpt>
<trkpt lat="33.8098573" lon="-118.3939587">
  <ele>-25.014</ele>
  <time>2026-09-01T01:17:12Z</time>
  <course>192.74</course>
  <speed>1.0141498903022177</speed>
  <fix>3d</fix>
</trkpt>
<trkpt lat="33.8098588" lon="-118.3939586">
  <ele>-24.4</ele>
  <time>2026-09-01T01:17:12Z</time>
  <course>194.01</course>
  <speed>1.0</speed>
  <fix>3d</fix>
</trkpt>
<trkpt lat="33.8098565" lon="-118.393959">
  <ele>-25.014</ele>
  <time>2026-09-01T01:17:12Z</time>
  <course>192.74</course>
  <speed>1.0141498903022177</speed>
  <fix>3d</fix>
</trkpt>
<trkpt lat="33.8098588" lon="-118.3939586">
  <ele>-24.4</ele>
  <time>2026-09-01T01:17:12Z</time>
  <course>194.01</course>
  <speed>1.0</speed>
  <fix>3d</fix>
</trkpt>
<trkpt lat="33.8098556" lon="-118.3939593">
  <ele>-25.014</ele>
  <time>2026-09-01T01:17:12Z</time>
  <course>192.73</course>
  <speed>1.0141498903022177</speed>
  <fix>3d</fix>
</trkpt>
<trkpt lat="33.809857" lon="-118.3939591">
  <ele>-24.4</ele>
  <time>2026-09-01T01:17:12Z</time>
  <course>193.99</course>
  <speed>1.0</speed>
  <fix>3d</fix>
</trkpt>
<trkpt lat="33.8098547" lon="-118.3939595">
  <ele>-25.016</ele>
  <time>2026-09-01T01:17:12Z</time>
  <course>192.74</course>
  <speed>1.0141498903022177</speed>
  <fix>3d</fix>
</trkpt>
<trkpt lat="33.809857" lon="-118.3939591">
  <ele>-24.4</ele>
  <time>2026-09-01T01:17:12Z</time>
  <course>193.99</course>
  <speed>1.0</speed>
  <fix>3d</fix>
</trkpt>
<trkpt lat="33.8098538" lon="-118.3939598">
  <ele>-25.017</ele>
  <time>2026-09-01T01:17:12Z</time>
  <course>192.75</course>
  <speed>1.0141498903022177</speed>
  <fix>3d</fix>
</trkpt>
<trkpt lat="33.8098552" lon="-118.3939596">
  <ele>-24.41</ele>
  <time>2026-09-01T01:17:12Z</time>
  <course>194.01</course>
  <speed>1.0</speed>
  <fix>3d</fix>
</trkpt>
<trkpt lat="33.8098529" lon="-118.3939601">
  <ele>-25.019</ele>
  <time>2026-09-01T01:17:12Z</time>
  <course>192.76</course>
  <speed>1.0141498903022177</speed>
  <fix>3d</fix>
</trkpt>
<trkpt lat="33.8098552" lon="-118.3939596">
  <ele>-24.41</ele>
  <time>2026-09-01T01:17:12Z</time>
  <course>194.01</course>
  <speed>1.0</speed>
  <fix>3d</fix>
</trkpt>
<trkpt lat="33.8098521" lon="-118.3939603">
  <ele>-25.021</ele>
  <time>2026-09-01T01:17:12Z</time>
  <course>192.79</course>
  <speed>1.0141498903022177</speed>
  <fix>3d</fix>
</trkpt>
<trkpt lat="33.8098535" lon="-118.3939602">
  <ele>-24.41</ele>
  <time>2026-09-01T01:17:12Z</time>
  <course>194.05</course>
  <speed>1.0</speed>
  <fix>3d</fix>
</trkpt>
<trkpt lat="33.8098512" lon="-118.3939606">
  <ele>-25.022</ele>
  <time>2026-09-01T01:17:12Z</time>
  <course>192.8</course>
  <speed>1.0141498903022177</speed>
  <fix>3d</fix>
</trkpt>
<trkpt lat="33.8098535" lon="-118.3939602">
  <ele>-24.41</ele>
  <time>2026-09-01T01:17:12Z</time>
  <course>194.05</course>
  <speed>1.0</speed>
  <fix>3d</fix>
</trkpt>
<trkpt lat="33.8098503" lon="-118.3939609">
  <ele>-25.023</ele>
  <time>2026-09-01T01:17:12Z</time>
  <course>192.81</course>
  <speed>1.0141498903022177</speed>
  <fix>3d</fix>
</trkpt>
<trkpt lat="33.8098518" lon="-118.3939607">
  <ele>-24.42</ele>
  <time>2026-09-01T01:17:12Z</time>
  <course>194.07</course>
  <speed>1.0</speed>
  <fix>3d</fix>
</trkpt>
<trkpt lat="33.8098494" lon="-118.3939611">
  <ele>-25.023</ele>
  <time>2026-09-01T01:17:12Z</time>
  <course>192.81</course>
  <speed>1.0141498903022177</speed>
  <fix>3d</fix>
</trkpt>
<trkpt lat="33.8098518" lon="-118.3939607">
  <ele>-24.42</ele>
  <time>2026-09-01T01:17:12Z</time>
  <course>194.07</course>
  <speed>1.0</speed>
  <fix>3d</fix>
</trkpt>
<trkpt lat="33.8098486" lon="-118.3939614">
  <ele>-25.024</ele>
  <time>2026-09-01T01:17:12Z</time>
  <course>192.81</course>
  <speed>1.0141498903022177</speed>
  <fix>3d</fix>
</trkpt>
<trkpt lat="33.80985" lon="-118.3939612">
  <ele>-24.42</ele>
  <time>2026-09-01T01:17:12Z</time>
  <course>194.06</course>
  <speed>1.0</speed>
  <fix>3d</fix>
</trkpt>
<trkpt lat="33.8098477" lon="-118.3939616">
  <ele>-25.025</ele>
  <time>2026-09-01T01:17:12Z</time>
  <course>192.81</course>
  <speed>1.0141498903022177</speed>
  <fix>3d</fix>
</trkpt>
<trkpt lat="33.80985" lon="-118.3939612">
  <ele>-24.42</ele>
  <time>2026-09-01T01:17:12Z</time>
  <course>194.06</course>
  <speed>1.0</speed>
  <fix>3d</fix>
</trkpt>
<trkpt lat="33.8098468" lon="-118.3939619">
  <ele>-25.026</ele>
  <time>2026-09-01T01:17:12Z</time>
  <course>192.81</course>
  <speed>1.0141498903022177</speed>
  <fix>3d</fix>
</trkpt>
<trkpt lat="33.8098483" lon="-118.3939617">
  <ele>-24.42</ele>
  <time>2026-09-01T01:17:12Z</time>
  <course>194.07</course>
  <speed>1.0</speed>
  <fix>3d</fix>
</trkpt>
<trkpt lat="33.809846" lon="-118.3939622">
  <ele>-25.025</ele>
  <time>2026-09-01T01:17:12Z</time>
  <course>192.82</course>
  <speed>1.0141498903022177</speed>
  <fix>3d</fix>
</trkpt>
<trkpt lat="33.8098483" lon="-118.3939617">
  <ele>-24.42</ele>
  <time>2026-09-01T01:17:12Z</time>
  <course>194.07</course>
  <speed>1.0</speed>
  <fix>3d</fix>
</trkpt>
<trkpt lat="33.8098451" lon="-118.3939624">
  <ele>-25.023</ele>
  <time>2026-09-01T01:17:12Z</time>
  <course>192.84</course>
  <speed>1.0141498903022177</speed>
  <fix>3d</fix>
</trkpt>
<trkpt lat="33.8098465" lon="-118.3939623">
  <ele>-24.42</ele>
  <time>2026-09-01T01:17:12Z</time>
  <course>194.1</course>
  <speed>1.0</speed>
  <fix>3d</fix>
</trkpt>
<trkpt lat="33.8098442" lon="-118.3939627">
  <ele>-25.023</ele>
  <time>2026-09-01T01:17:12Z</time>
  <course>192.85</course>
  <speed>1.0141498903022177</speed>
  <fix>3d</fix>
</trkpt>
<trkpt lat="33.8098465" lon="-118.3939623">
  <ele>-24.42</ele>
  <time>2026-09-01T01:17:12Z</time>
  <course>194.1</course>
  <speed>1.0</speed>
  <fix>3d</fix>
</trkpt>
<trkpt lat="33.8098433" lon="-118.393963">
  <ele>-25.023</ele>
  <time>2026-09-01T01:17:12Z</time>
  <course>192.85</course>
  <speed>1.0141498903022177</speed>
  <fix>3d</fix>
</trkpt>
<trkpt lat="33.8098448" lon="-118.3939628">
  <ele>-24.42</ele>
  <time>2026-09-01T01:17:12Z</time>
  <course>194.09</course>
  <speed>1.0</speed>
  <fix>3d</fix>
</trkpt>
<trkpt lat="33.8098425" lon="-118.3939632">
  <ele>-25.023</ele>
  <time>2026-09-01T01:17:12Z</time>
  <course>192.85</course>
  <speed>1.0141498903022177</speed>
  <fix>3d</fix>
</trkpt>
<trkpt lat="33.8098448" lon="-118.3939628">
  <ele>-24.42</ele>
  <time>2026-09-01T01:17:12Z</time>
  <course>194.09</course>
  <speed>1.0</speed>
  <fix>3d</fix>
</trkpt>
<trkpt lat="33.8098416" lon="-118.3939635">
  <ele>-25.024</ele>
  <time>2026-09-01T01:17:12Z</time>
  <course>192.84</course>
  <speed>1.0141498903022177</speed>
  <fix>3d</fix>
</trkpt>
<trkpt lat="33.809843" lon="-118.3939633">
  <ele>-24.42</ele>
  <time>2026-09-01T01:17:12Z</time>
  <course>194.06</course>
  <speed>1.0</speed>
  <fix>3d</fix>
</trkpt>
<trkpt lat="33.8098407" lon="-118.3939638">
  <ele>-25.024</ele>
  <time>2026-09-01T01:17:12Z</time>
  <course>192.84</course>
  <speed>1.0141498903022177</speed>
  <fix>3d</fix>
</trkpt>
<trkpt lat="33.809843" lon="-118.3939633">
  <ele>-24.42</ele>
  <time>2026-09-01T01:17:12Z</time>
  <course>194.06</course>
  <speed>1.0</speed>
  <fix>3d</fix>
</trkpt>
<trkpt lat="33.8098399" lon="-118.393964">
  <ele>-25.022</ele>
  <time>2026-09-01T01:17:12Z</time>
  <course>192.85</course>
  <speed>1.0141498903022177</speed>
  <fix>3d</fix>
</trkpt>
<trkpt lat="33.8098413" lon="-118.3939639">
  <ele>-24.41</ele>
  <time>2026-09-01T01:17:12Z</time>
  <course>194.07</course>
  <speed>0.99</speed>
  <fix>3d</fix>
</trkpt>
<trkpt lat="33.809839" lon="-118.3939643">
  <ele>-25.02</ele>
  <time>2026-09-01T01:17:12Z</time>
  <course>192.86</course>
  <speed>1.0141498903022177</speed>
  <fix>3d</fix>
</trkpt>
<trkpt lat="33.8098413" lon="-118.3939639">
  <ele>-24.41</ele>
  <time>2026-09-01T01:17:12Z</time>
  <course>194.07</course>
  <speed>0.99</speed>
  <fix>3d</fix>
</trkpt>
<trkpt lat="33.8098381" lon="-118.3939645">
  <ele>-25.018</ele>
  <time>2026-09-01T01:17:12Z</time>
  <course>192.85</course>
  <speed>1.0141498903022177</speed>
  <fix>3d</fix>
</trkpt>
<trkpt lat="33.8098396" lon="-118.3939644">
  <ele>-24.41</ele>
  <time>2026-09-01T01:17:12Z</time>
  <course>194.07</course>
  <speed>0.99</speed>
  <fix>3d</fix>
</trkpt>
<trkpt lat="33.8098372" lon="-118.3939648">
  <ele>-25.016</ele>
  <time>2026-09-01T01:17:12Z</time>
  <course>192.83</course>
  <speed>1.0141498903022177</speed>
  <fix>3d</fix>
</trkpt>
<trkpt lat="33.8098396" lon="-118.3939644">
  <ele>-24.41</ele>
  <time>2026-09-01T01:17:12Z</time>
  <course>194.07</course>
  <speed>0.99</speed>
  <fix>3d</fix>
</trkpt>
<trkpt lat="33.8098364" lon="-118.3939651">
  <ele>-25.016</ele>
  <time>2026-09-01T01:17:12Z</time>
  <course>192.81</course>
  <speed>1.0141498903022177</speed>
  <fix>3d</fix>
</trkpt>
<trkpt lat="33.8098378" lon="-118.3939649">
  <ele>-24.41</ele>
  <time>2026-09-01T01:17:12Z</time>
  <course>194.03</course>
  <speed>0.99</speed>
  <fix>3d</fix>
</trkpt>
<trkpt lat="33.8098355" lon="-118.3939653">
  <ele>-25.017</ele>
  <time>2026-09-01T01:17:12Z</time>
  <course>192.79</course>
  <speed>1.0141498903022177</speed>
  <fix>3d</fix>
</trkpt>
<trkpt lat="33.8098378" lon="-118.3939649">
  <ele>-24.41</ele>
  <time>2026-09-01T01:17:12Z</time>
  <course>194.03</course>
  <speed>0.99</speed>
  <fix>3d</fix>
</trkpt>
<trkpt lat="33.8098346" lon="-118.3939656">
  <ele>-25.019</ele>
  <time>2026-09-01T01:17:12Z</time>
  <course>192.78</course>
  <speed>1.0141498903022177</speed>
  <fix>3d</fix>
</trkpt>
<trkpt lat="33.8098361" lon="-118.3939654">
  <ele>-24.41</ele>
  <time>2026-09-01T01:17:12Z</time>
  <course>194.01</course>
  <speed>0.99</speed>
  <fix>3d</fix>
</trkpt>
<trkpt lat="33.8098337" lon="-118.3939659">
  <ele>-25.02</ele>
  <time>2026-09-01T01:17:12Z</time>
  <course>192.78</course>
  <speed>1.0141498903022177</speed>
  <fix>3d</fix>
</trkpt>
<trkpt lat="33.8098361" lon="-118.3939654">
  <ele>-24.41</ele>
  <time>2026-09-01T01:17:12Z</time>
  <course>194.01</course>
  <speed>0.99</speed>
  <fix>3d</fix>
</trkpt>
<trkpt lat="33.8098329" lon="-118.3939661">
  <ele>-25.021</ele>
  <time>2026-09-01T01:17:12Z</time>
  <course>192.79</course>
  <speed>1.0141498903022177</speed>
  <fix>3d</fix>
</trkpt>
<trkpt lat="33.8098343" lon="-118.393966">
  <ele>-24.42</ele>
  <time>2026-09-01T01:17:12Z</time>
  <course>194.03</course>
  <speed>0.99</speed>
  <fix>3d</fix>
</trkpt>
<trkpt lat="33.809832" lon="-118.3939664">
  <ele>-25.021</ele>
  <time>2026-09-01T01:17:12Z</time>
  <course>192.8</course>
  <speed>1.0141498903022177</speed>
  <fix>3d</fix>
</trkpt>
<trkpt lat="33.8098343" lon="-118.393966">
  <ele>-24.42</ele>
  <time>2026-09-01T01:17:12Z</time>
  <course>194.03</course>
  <speed>0.99</speed>
  <fix>3d</fix>
</trkpt>
<trkpt lat="33.8098311" lon="-118.3939667">
  <ele>-25.023</ele>
  <time>2026-09-01T01:17:12Z</time>
  <course>192.8</course>
  <speed>1.0141498903022177</speed>
  <fix>3d</fix>
</trkpt>
<trkpt lat="33.8098326" lon="-118.3939665">
  <ele>-24.42</ele>
  <time>2026-09-01T01:17:12Z</time>
  <course>194.04</course>
  <speed>1.0</speed>
  <fix>3d</fix>
</trkpt>
<trkpt lat="33.8098303" lon="-118.3939669">
  <ele>-25.024</ele>
  <time>2026-09-01T01:17:12Z</time>
  <course>192.79</course>
  <speed>1.0141498903022177</speed>
  <fix>3d</fix>
</trkpt>
<trkpt lat="33.8098326" lon="-118.3939665">
  <ele>-24.42</ele>
  <time>2026-09-01T01:17:12Z</time>
  <course>194.04</course>
  <speed>1.0</speed>
  <fix>3d</fix>
</trkpt>
<trkpt lat="33.8098294" lon="-118.3939672">
  <ele>-25.025</ele>
  <time>2026-09-01T01:17:12Z</time>
  <course>192.78</course>
  <speed>1.0141498903022177</speed>
  <fix>3d</fix>
</trkpt>
<trkpt lat="33.8098308" lon="-118.393967">
  <ele>-24.42</ele>
  <time>2026-09-01T01:17:12Z</time>
  <course>194.02</course>
  <speed>1.0</speed>
  <fix>3d</fix>
</trkpt>
<trkpt lat="33.8098285" lon="-118.3939674">
  <ele>-25.024</ele>
  <time>2026-09-01T01:17:12Z</time>
  <course>192.78</course>
  <speed>1.0141498903022177</speed>
  <fix>3d</fix>
</trkpt>
<trkpt lat="33.8098308" lon="-118.393967">
  <ele>-24.42</ele>
  <time>2026-09-01T01:17:12Z</time>
  <course>194.02</course>
  <speed>1.0</speed>
  <fix>3d</fix>
</trkpt>
<trkpt lat="33.8098276" lon="-118.3939677">
  <ele>-25.023</ele>
  <time>2026-09-01T01:17:12Z</time>
  <course>192.78</course>
  <speed>1.0141498903022177</speed>
  <fix>3d</fix>
</trkpt>
<trkpt lat="33.8098291" lon="-118.3939675">
  <ele>-24.42</ele>
  <time>2026-09-01T01:17:12Z</time>
  <course>194.03</course>
  <speed>0.99</speed>
  <fix>3d</fix>
</trkpt>
<trkpt lat="33.8098268" lon="-118.393968">
  <ele>-25.021</ele>
  <time>2026-09-01T01:17:12Z</time>
  <course>192.79</course>
  <speed>1.0141498903022177</speed>
  <fix>3d</fix>
</trkpt>
<trkpt lat="33.8098291" lon="-118.3939675">
  <ele>-24.42</ele>
  <time>2026-09-01T01:17:12Z</time>
  <course>194.03</course>
  <speed>0.99</speed>
  <fix>3d</fix>
</trkpt>
<trkpt lat="33.8098259" lon="-118.3939682">
  <ele>-25.02</ele>
  <time>2026-09-01T01:17:12Z</time>
  <course>192.81</course>
  <speed>1.0141498903022177</speed>
  <fix>3d</fix>
</trkpt>
<trkpt lat="33.8098274" lon="-118.393968">
  <ele>-24.42</ele>
  <time>2026-09-01T01:17:12Z</time>
  <course>194.06</course>
  <speed>0.99</speed>
  <fix>3d</fix>
</trkpt>
<trkpt lat="33.809825" lon="-118.3939685">
  <ele>-25.019</ele>
  <time>2026-09-01T01:17:12Z</time>
  <course>192.83</course>
  <speed>1.0141498903022177</speed>
  <fix>3d</fix>
</trkpt>
<trkpt lat="33.8098274" lon="-118.393968">
  <ele>-24.42</ele>
  <time>2026-09-01T01:17:12Z</time>
  <course>194.06</course>
  <speed>0.99</speed>
  <fix>3d</fix>
</trkpt>
<trkpt lat="33.8098241" lon="-118.3939687">
  <ele>-25.019</ele>
  <time>2026-09-01T01:17:12Z</time>
  <course>192.85</course>
  <speed>1.0141498903022177</speed>
  <fix>3d</fix>
</trkpt>
<trkpt lat="33.8098256" lon="-118.3939686">
  <ele>-24.42</ele>
  <time>2026-09-01T01:17:12Z</time>
  <course>194.1</course>
  <speed>0.99</speed>
  <fix>3d</fix>
</trkpt>
<trkpt lat="33.8098233" lon="-118.393969">
  <ele>-25.02</ele>
  <time>2026-09-01T01:17:12Z</time>
  <course>192.87</course>
  <speed>1.0141498903022177</speed>
  <fix>3d</fix>
</trkpt>
<trkpt lat="33.8098256" lon="-118.3939686">
  <ele>-24.42</ele>
  <time>2026-09-01T01:17:12Z</time>
  <course>194.1</course>
  <speed>0.99</speed>
  <fix>3d</fix>
</trkpt>
<trkpt lat="33.8098224" lon="-118.3939693">
  <ele>-25.021</ele>
  <time>2026-09-01T01:17:12Z</time>
  <course>192.87</course>
  <speed>1.0141498903022177</speed>
  <fix>3d</fix>
</trkpt>
<trkpt lat="33.8098239" lon="-118.3939691">
  <ele>-24.42</ele>
  <time>2026-09-01T01:17:12Z</time>
  <course>194.11</course>
  <speed>1.0</speed>
  <fix>3d</fix>
</trkpt>
<trkpt lat="33.8098215" lon="-118.3939695">
  <ele>-25.023</ele>
  <time>2026-09-01T01:17:12Z</time>
  <course>192.87</course>
  <speed>1.0141498903022177</speed>
  <fix>3d</fix>
</trkpt>
<trkpt lat="33.8098239" lon="-118.3939691">
  <ele>-24.42</ele>
  <time>2026-09-01T01:17:12Z</time>
  <course>194.11</course>
  <speed>1.0</speed>
  <fix>3d</fix>
</trkpt>
<trkpt lat="33.8098207" lon="-118.3939698">
  <ele>-25.024</ele>
  <time>2026-09-01T01:17:12Z</time>
  <course>192.87</course>
  <speed>1.0141498903022177</speed>
  <fix>3d</fix>
</trkpt>
<trkpt lat="33.8098221" lon="-118.3939696">
  <ele>-24.42</ele>
  <time>2026-09-01T01:17:12Z</time>
  <course>194.1</course>
  <speed>1.0</speed>
  <fix>3d</fix>
</trkpt>
<trkpt lat="33.8098198" lon="-118.3939701">
  <ele>-25.026</ele>
  <time>2026-09-01T01:17:12Z</time>
  <course>192.87</course>
  <speed>1.0141498903022177</speed>
  <fix>3d</fix>
</trkpt>
<trkpt lat="33.8098221" lon="-118.3939696">
  <ele>-24.42</ele>
  <time>2026-09-01T01:17:12Z</time>
  <course>194.1</course>
  <speed>1.0</speed>
  <fix>3d</fix>
</trkpt>
<trkpt lat="33.8098189" lon="-118.3939703">
  <ele>-25.026</ele>
  <time>2026-09-01T01:17:12Z</time>
  <course>192.87</course>
  <speed>1.0141498903022177</speed>
  <fix>3d</fix>
</trkpt>
<trkpt lat="33.8098204" lon="-118.3939701">
  <ele>-24.42</ele>
  <time>2026-09-01T01:17:12Z</time>
  <course>194.1</course>
  <speed>1.0</speed>
  <fix>3d</fix>
</trkpt>
<trkpt lat="33.809818" lon="-118.3939706">
  <ele>-25.025</ele>
  <time>2026-09-01T01:17:12Z</time>
  <course>192.89</course>
  <speed>1.0141498903022177</speed>
  <fix>3d</fix>
</trkpt>
<trkpt lat="33.8098204" lon="-118.3939701">
  <ele>-24.42</ele>
  <time>2026-09-01T01:17:12Z</time>
  <course>194.1</course>
  <speed>1.0</speed>
  <fix>3d</fix>
</trkpt>
<trkpt lat="33.8098172" lon="-118.3939709">
  <ele>-25.023</ele>
  <time>2026-09-01T01:17:12Z</time>
  <course>192.91</course>
  <speed>1.0141498903022177</speed>
  <fix>3d</fix>
</trkpt>
<trkpt lat="33.8098186" lon="-118.3939707">
  <ele>-24.42</ele>
  <time>2026-09-01T01:17:12Z</time>
  <course>194.14</course>
  <speed>0.99</speed>
  <fix>3d</fix>
</trkpt>
<trkpt lat="33.8098163" lon="-118.3939711">
  <ele>-25.022</ele>
  <time>2026-09-01T01:17:12Z</time>
  <course>192.92</course>
  <speed>1.0141498903022177</speed>
  <fix>3d</fix>
</trkpt>
<trkpt lat="33.8098186" lon="-118.3939707">
  <ele>-24.42</ele>
  <time>2026-09-01T01:17:12Z</time>
  <course>194.14</course>
  <speed>0.99</speed>
  <fix>3d</fix>
</trkpt>
<trkpt lat="33.8098154" lon="-118.3939714">
  <ele>-25.021</ele>
  <time>2026-09-01T01:17:12Z</time>
  <course>192.92</course>
  <speed>1.0141498903022177</speed>
  <fix>3d</fix>
</trkpt>
<trkpt lat="33.8098169" lon="-118.3939712">
  <ele>-24.42</ele>
  <time>2026-09-01T01:17:12Z</time>
  <course>194.15</course>
  <speed>0.99</speed>
  <fix>3d</fix>
</trkpt>
<trkpt lat="33.8098145" lon="-118.3939716">
  <ele>-25.021</ele>
  <time>2026-09-01T01:17:12Z</time>
  <course>192.92</course>
  <speed>1.0141498903022177</speed>
  <fix>3d</fix>
</trkpt>
<trkpt lat="33.8098169" lon="-118.3939712">
  <ele>-24.42</ele>
  <time>2026-09-01T01:17:12Z</time>
  <course>194.15</course>
  <speed>0.99</speed>
  <fix>3d</fix>
</trkpt>
<trkpt lat="33.8098137" lon="-118.3939719">
  <ele>-25.023</ele>
  <time>2026-09-01T01:17:12Z</time>
  <course>192.91</course>
  <speed>1.0141498903022177</speed>
  <fix>3d</fix>
</trkpt>
<trkpt lat="33.8098152" lon="-118.3939717">
  <ele>-24.41</ele>
  <time>2026-09-01T01:17:12Z</time>
  <course>194.13</course>
  <speed>0.99</speed>
  <fix>3d</fix>
</trkpt>
<trkpt lat="33.8098128" lon="-118.3939722">
  <ele>-25.025</ele>
  <time>2026-09-01T01:17:12Z</time>
  <course>192.9</course>
  <speed>1.0141498903022177</speed>
  <fix>3d</fix>
</trkpt>
<trkpt lat="33.8098152" lon="-118.3939717">
  <ele>-24.41</ele>
  <time>2026-09-01T01:17:12Z</time>
  <course>194.13</course>
  <speed>0.99</speed>
  <fix>3d</fix>
</trkpt>
<trkpt lat="33.8098119" lon="-118.3939724">
  <ele>-25.025</ele>
  <time>2026-09-01T01:17:12Z</time>
  <course>192.9</course>
  <speed>1.0141498903022177</speed>
  <fix>3d</fix>
</trkpt>
<trkpt lat="33.8098134" lon="-118.3939723">
  <ele>-24.41</ele>
  <time>2026-09-01T01:17:12Z</time>
  <course>194.13</course>
  <speed>0.99</speed>
  <fix>3d</fix>
</trkpt>
<trkpt lat="33.8098111" lon="-118.3939727">
  <ele>-25.024</ele>
  <time>2026-09-01T01:17:12Z</time>
  <course>192.89</course>
  <speed>1.0141498903022177</speed>
  <fix>3d</fix>
</trkpt>
<trkpt lat="33.8098134" lon="-118.3939723">
  <ele>-24.41</ele>
  <time>2026-09-01T01:17:12Z</time>
  <course>194.13</course>
  <speed>0.99</speed>
  <fix>3d</fix>
</trkpt>
<trkpt lat="33.8098102" lon="-118.393973">
  <ele>-25.023</ele>
  <time>2026-09-01T01:17:12Z</time>
  <course>192.87</course>
  <speed>1.0141498903022177</speed>
  <fix>3d</fix>
</trkpt>
<trkpt lat="33.8098117" lon="-118.3939728">
  <ele>-24.41</ele>
  <time>2026-09-01T01:17:12Z</time>
  <course>194.11</course>
  <speed>0.99</speed>
  <fix>3d</fix>
</trkpt>
<trkpt lat="33.8098093" lon="-118.3939732">
  <ele>-25.021</ele>
  <time>2026-09-01T01:17:12Z</time>
  <course>192.85</course>
  <speed>1.0141498903022177</speed>
  <fix>3d</fix>
</trkpt>
<trkpt lat="33.8098117" lon="-118.3939728">
  <ele>-24.41</ele>
  <time>2026-09-01T01:17:12Z</time>
  <course>194.11</course>
  <speed>0.99</speed>
  <fix>3d</fix>
</trkpt>
<trkpt lat="33.8098084" lon="-118.3939735">
  <ele>-25.019</ele>
  <time>2026-09-01T01:17:12Z</time>
  <course>192.83</course>
  <speed>1.0141498903022177</speed>
  <fix>3d</fix>
</trkpt>
<trkpt lat="33.80981" lon="-118.3939733">
  <ele>-24.41</ele>
  <time>2026-09-01T01:17:12Z</time>
  <course>194.07</course>
  <speed>0.99</speed>
  <fix>3d</fix>
</trkpt>
<trkpt lat="33.8098076" lon="-118.3939738">
  <ele>-25.018</ele>
  <time>2026-09-01T01:17:12Z</time>
  <course>192.81</course>
  <speed>1.0141498903022177</speed>
  <fix>3d</fix>
</trkpt>
<trkpt lat="33.80981" lon="-118.3939733">
  <ele>-24.41</ele>
  <time>2026-09-01T01:17:12Z</time>
  <course>194.07</course>
  <speed>0.99</speed>
  <fix>3d</fix>
</trkpt>
<trkpt lat="33.8098067" lon="-118.393974">
  <ele>-25.016</ele>
  <time>2026-09-01T01:17:12Z</time>
  <course>192.8</course>
  <speed>1.0141498903022177</speed>
  <fix>3d</fix>
</trkpt>
<trkpt lat="33.8098082" lon="-118.3939739">
  <ele>-24.41</ele>
  <time>2026-09-01T01:17:12Z</time>
  <course>194.05</course>
  <speed>1.0</speed>
  <fix>3d</fix>
</trkpt>
<trkpt lat="33.8098058" lon="-118.3939743">
  <ele>-25.016</ele>
  <time>2026-09-01T01:17:12Z</time>
  <course>192.78</course>
  <speed>1.0141498903022177</speed>
  <fix>3d</fix>
</trkpt>
<trkpt lat="33.8098082" lon="-118.3939739">
  <ele>-24.41</ele>
  <time>2026-09-01T01:17:12Z</time>
  <course>194.05</course>
  <speed>1.0</speed>
  <fix>3d</fix>
</trkpt>
<trkpt lat="33.809805" lon="-118.3939745">
  <ele>-25.017</ele>
  <time>2026-09-01T01:17:12Z</time>
  <course>192.76</course>
  <speed>1.0141498903022177</speed>
  <fix>3d</fix>
</trkpt>
<trkpt lat="33.8098064" lon="-118.3939744">
  <ele>-24.41</ele>
  <time>2026-09-01T01:17:12Z</time>
  <course>194.03</course>
  <speed>1.0</speed>
  <fix>3d</fix>
</trkpt>
<trkpt lat="33.8098041" lon="-118.3939748">
  <ele>-25.019</ele>
  <time>2026-09-01T01:17:12Z</time>
  <course>192.75</course>
  <speed>1.0141498903022177</speed>
  <fix>3d</fix>
</trkpt>
<trkpt lat="33.8098064" lon="-118.3939744">
  <ele>-24.41</ele>
  <time>2026-09-01T01:17:12Z</time>
  <course>194.03</course>
  <speed>1.0</speed>
  <fix>3d</fix>
</trkpt>
<trkpt lat="33.8098032" lon="-118.3939751">
  <ele>-25.021</ele>
  <time>2026-09-01T01:17:12Z</time>
  <course>192.73</course>
  <speed>1.0141498903022177</speed>
  <fix>3d</fix>
</trkpt>
<trkpt lat="33.8098047" lon="-118.3939749">
  <ele>-24.41</ele>
  <time>2026-09-01T01:17:12Z</time>
  <course>193.99</course>
  <speed>1.0</speed>
  <fix>3d</fix>
</trkpt>
<trkpt lat="33.8098024" lon="-118.3939753">
  <ele>-25.022</ele>
  <time>2026-09-01T01:17:12Z</time>
  <course>192.72</course>
  <speed>1.0141498903022177</speed>
  <fix>3d</fix>
</trkpt>
<trkpt lat="33.8098047" lon="-118.3939749">
  <ele>-24.41</ele>
  <time>2026-09-01T01:17:12Z</time>
  <course>193.99</course>
  <speed>1.0</speed>
  <fix>3d</fix>
</trkpt>
<trkpt lat="33.8098015" lon="-118.3939756">
  <ele>-25.021</ele>
  <time>2026-09-01T01:17:12Z</time>
  <course>192.71</course>
  <speed>1.0141498903022177</speed>
  <fix>3d</fix>
</trkpt>
<trkpt lat="33.809803" lon="-118.3939754">
  <ele>-24.41</ele>
  <time>2026-09-01T01:17:12Z</time>
  <course>193.99</course>
  <speed>0.99</speed>
  <fix>3d</fix>
</trkpt>
<trkpt lat="33.8098006" lon="-118.3939759">
  <ele>-25.019</ele>
  <time>2026-09-01T01:17:12Z</time>
  <course>192.72</course>
  <speed>1.0141498903022177</speed>
  <fix>3d</fix>
</trkpt>
<trkpt lat="33.809803" lon="-118.3939754">
  <ele>-24.41</ele>
  <time>2026-09-01T01:17:12Z</time>
  <course>193.99</course>
  <speed>0.99</speed>
  <fix>3d</fix>
</trkpt>
<trkpt lat="33.8097997" lon="-118.3939761">
  <ele>-25.017</ele>
  <time>2026-09-01T01:17:12Z</time>
  <course>192.73</course>
  <speed>1.0141498903022177</speed>
  <fix>3d</fix>
</trkpt>
<trkpt lat="33.8098012" lon="-118.3939759">
  <ele>-24.41</ele>
  <time>2026-09-01T01:17:12Z</time>
  <course>194.0</course>
  <speed>0.99</speed>
  <fix>3d</fix>
</trkpt>
<trkpt lat="33.8097988" lon="-118.3939764">
  <ele>-25.016</ele>
  <time>2026-09-01T01:17:12Z</time>
  <course>192.75</course>
  <speed>1.0141498903022177</speed>
  <fix>3d</fix>
</trkpt>
<trkpt lat="33.8098012" lon="-118.3939759">
  <ele>-24.41</ele>
  <time>2026-09-01T01:17:12Z</time>
  <course>194.0</course>
  <speed>0.99</speed>
  <fix>3d</fix>
</trkpt>
<trkpt lat="33.809798" lon="-118.3939766">
  <ele>-25.015</ele>
  <time>2026-09-01T01:17:12Z</time>
  <course>192.77</course>
  <speed>1.0141498903022177</speed>
  <fix>3d</fix>
</trkpt>
<trkpt lat="33.8097994" lon="-118.3939765">
  <ele>-24.41</ele>
  <time>2026-09-01T01:17:12Z</time>
  <course>194.05</course>
  <speed>0.99</speed>
  <fix>3d</fix>
</trkpt>
<trkpt lat="33.8097971" lon="-118.3939769">
  <ele>-25.016</ele>
  <time>2026-09-01T01:17:12Z</time>
  <course>192.8</course>
  <speed>1.0141498903022177</speed>
  <fix>3d</fix>
</trkpt>
<trkpt lat="33.8097994" lon="-118.3939765">
  <ele>-24.41</ele>
  <time>2026-09-01T01:17:12Z</time>
  <course>194.05</course>
  <speed>0.99</speed>
  <fix>3d</fix>
</trkpt>
<trkpt lat="33.8097962" lon="-118.3939772">
  <ele>-25.017</ele>
  <time>2026-09-01T01:17:12Z</time>
  <course>192.81</course>
  <speed>1.0141498903022177</speed>
  <fix>3d</fix>
</trkpt>
<trkpt lat="33.8097977" lon="-118.393977">
  <ele>-24.41</ele>
  <time>2026-09-01T01:17:12Z</time>
  <course>194.09</course>
  <speed>0.99</speed>
  <fix>3d</fix>
</trkpt>
<trkpt lat="33.8097953" lon="-118.3939774">
  <ele>-25.018</ele>
  <time>2026-09-01T01:17:12Z</time>
  <course>192.81</course>
  <speed>1.0141498903022177</speed>
  <fix>3d</fix>
</trkpt>
<trkpt lat="33.8097977" lon="-118.393977">
  <ele>-24.41</ele>
  <time>2026-09-01T01:17:12Z</time>
  <course>194.09</course>
  <speed>0.99</speed>
  <fix>3d</fix>
</trkpt>
<trkpt lat="33.8097945" lon="-118.3939777">
  <ele>-25.019</ele>
  <time>2026-09-01T01:17:12Z</time>
  <course>192.81</course>
  <speed>1.0141498903022177</speed>
  <fix>3d</fix>
</trkpt>
<trkpt lat="33.809796" lon="-118.3939775">
  <ele>-24.41</ele>
  <time>2026-09-01T01:17:12Z</time>
  <course>194.09</course>
  <speed>0.99</speed>
  <fix>3d</fix>
</trkpt>
<trkpt lat="33.8097936" lon="-118.393978">
  <ele>-25.019</ele>
  <time>2026-09-01T01:17:12Z</time>
  <course>192.82</course>
  <speed>1.0141498903022177</speed>
  <fix>3d</fix>
</trkpt>
<trkpt lat="33.809796" lon="-118.3939775">
  <ele>-24.41</ele>
  <time>2026-09-01T01:17:12Z</time>
  <course>194.09</course>
  <speed>0.99</speed>
  <fix>3d</fix>
</trkpt>
<trkpt lat="33.8097927" lon="-118.3939782">
  <ele>-25.019</ele>
  <time>2026-09-01T01:17:12Z</time>
  <course>192.81</course>
  <speed>1.0141498903022177</speed>
  <fix>3d</fix>
</trkpt>
<trkpt lat="33.8097942" lon="-118.393978">
  <ele>-24.41</ele>
  <time>2026-09-01T01:17:12Z</time>
  <course>194.09</course>
  <speed>0.99</speed>
  <fix>3d</fix>
</trkpt>
<trkpt lat="33.8097918" lon="-118.3939785">
  <ele>-25.019</ele>
  <time>2026-09-01T01:17:13Z</time>
  <course>192.82</course>
  <speed>1.0141498903022177</speed>
  <fix>3d</fix>
</trkpt>
<trkpt lat="33.8097942" lon="-118.393978">
  <ele>-24.41</ele>
  <time>2026-09-01T01:17:13Z</time>
  <course>194.09</course>
  <speed>0.99</speed>
  <fix>3d</fix>
</trkpt>
<trkpt lat="33.809791" lon="-118.3939788">
  <ele>-25.02</ele>
  <time>2026-09-01T01:17:13Z</time>
  <course>192.84</course>
  <speed>1.0141498903022177</speed>
  <fix>3d</fix>
</trkpt>
<trkpt lat="33.8097925" lon="-118.3939786">
  <ele>-24.41</ele>
  <time>2026-09-01T01:17:13Z</time>
  <course>194.11</course>
  <speed>0.99</speed>
  <fix>3d</fix>
</trkpt>
<trkpt lat="33.8097901" lon="-118.393979">
  <ele>-25.021</ele>
  <time>2026-09-01T01:17:13Z</time>
  <course>192.84</course>
  <speed>1.0141498903022177</speed>
  <fix>3d</fix>
</trkpt>
<trkpt lat="33.8097925" lon="-118.3939786">
  <ele>-24.41</ele>
  <time>2026-09-01T01:17:13Z</time>
  <course>194.11</course>
  <speed>0.99</speed>
  <fix>3d</fix>
</trkpt>
<trkpt lat="33.8097892" lon="-118.3939793">
  <ele>-25.023</ele>
  <time>2026-09-01T01:17:13Z</time>
  <course>192.84</course>
  <speed>1.0141498903022177</speed>
  <fix>3d</fix>
</trkpt>
<trkpt lat="33.8097908" lon="-118.3939791">
  <ele>-24.42</ele>
  <time>2026-09-01T01:17:13Z</time>
  <course>194.12</course>
  <speed>0.99</speed>
  <fix>3d</fix>
</trkpt>
<trkpt lat="33.8097884" lon="-118.3939795">
  <ele>-25.023</ele>
  <time>2026-09-01T01:17:13Z</time>
  <course>192.83</course>
  <speed>1.0141498903022177</speed>
  <fix>3d</fix>
</trkpt>
<trkpt lat="33.8097908" lon="-118.3939791">
  <ele>-24.42</ele>
  <time>2026-09-01T01:17:13Z</time>
  <course>194.12</course>
  <speed>0.99</speed>
  <fix>3d</fix>
</trkpt>
<trkpt lat="33.8097875" lon="-118.3939798">
  <ele>-25.023</ele>
  <time>2026-09-01T01:17:13Z</time>
  <course>192.82</course>
  <speed>0.9946356116689167</speed>
  <fix>3d</fix>
</trkpt>
<trkpt lat="33.809789" lon="-118.3939796">
  <ele>-24.42</ele>
  <time>2026-09-01T01:17:13Z</time>
  <course>194.08</course>
  <speed>0.99</speed>
  <fix>3d</fix>
</trkpt>
<trkpt lat="33.8097867" lon="-118.3939801">
  <ele>-25.024</ele>
  <time>2026-09-01T01:17:13Z</time>
  <course>192.8</course>
  <speed>0.9729337079164233</speed>
  <fix>3d</fix>
</trkpt>
<trkpt lat="33.809789" lon="-118.3939796">
  <ele>-24.42</ele>
  <time>2026-09-01T01:17:13Z</time>
  <course>194.08</course>
  <speed>0.99</speed>
  <fix>3d</fix>
</trkpt>
<trkpt lat="33.8097859" lon="-118.3939803">
  <ele>-25.024</ele>
  <time>2026-09-01T01:17:13Z</time>
  <course>192.79</course>
  <speed>0.9414881836751856</speed>
  <fix>3d</fix>
</trkpt>
<trkpt lat="33.8097873" lon="-118.3939801">
  <ele>-24.41</ele>
  <time>2026-09-01T01:17:13Z</time>
  <course>194.05</course>
  <speed>0.97</speed>
  <fix>3d</fix>
</trkpt>
<trkpt lat="33.8097851" lon="-118.3939805">
  <ele>-25.023</ele>
  <time>2026-09-01T01:17:13Z</time>
  <course>192.77</course>
  <speed>0.9121951545584969</speed>
  <fix>3d</fix>
</trkpt>
<trkpt lat="33.8097873" lon="-118.3939801">
  <ele>-24.41</ele>
  <time>2026-09-01T01:17:13Z</time>
  <course>194.05</course>
  <speed>0.97</speed>
  <fix>3d</fix>
</trkpt>
<trkpt lat="33.8097843" lon="-118.3939808">
  <ele>-25.021</ele>
  <time>2026-09-01T01:17:13Z</time>
  <course>192.75</course>
  <speed>0.8590692637965812</speed>
  <fix>3d</fix>
</trkpt>
<trkpt lat="33.8097857" lon="-118.3939806">
  <ele>-24.41</ele>
  <time>2026-09-01T01:17:13Z</time>
  <course>194.05</course>
  <speed>0.91</speed>
  <fix>3d</fix>
</trkpt>
<trkpt lat="33.8097836" lon="-118.393981">
  <ele>-25.02</ele>
  <time>2026-09-01T01:17:13Z</time>
  <course>192.72</course>
  <speed>0.808084154033477</speed>
  <fix>3d</fix>
</trkpt>
<trkpt lat="33.8097857" lon="-118.3939806">
  <ele>-24.41</ele>
  <time>2026-09-01T01:17:13Z</time>
  <course>194.05</course>
  <speed>0.91</speed>
  <fix>3d</fix>
</trkpt>
<trkpt lat="33.8097829" lon="-118.3939812">
  <ele>-25.017</ele>
  <time>2026-09-01T01:17:13Z</time>
  <course>192.66</course>
  <speed>0.7473285756613351</speed>
  <fix>3d</fix>
</trkpt>
<trkpt lat="33.8097841" lon="-118.3939811">
  <ele>-24.41</ele>
  <time>2026-09-01T01:17:13Z</time>
  <course>194.04</course>
  <speed>0.82</speed>
  <fix>3d</fix>
</trkpt>
<trkpt lat="33.8097823" lon="-118.3939814">
  <ele>-25.016</ele>
  <time>2026-09-01T01:17:13Z</time>
  <course>192.58</course>
  <speed>0.6844705983459041</speed>
  <fix>3d</fix>
</trkpt>
<trkpt lat="33.8097841" lon="-118.3939811">
  <ele>-24.41</ele>
  <time>2026-09-01T01:17:13Z</time>
  <course>194.04</course>
  <speed>0.82</speed>
  <fix>3d</fix>
</trkpt>
<trkpt lat="33.8097817" lon="-118.3939815">
  <ele>-25.015</ele>
  <time>2026-09-01T01:17:13Z</time>
  <course>192.44</course>
  <speed>0.6118823416311342</speed>
  <fix>3d</fix>
</trkpt>
<trkpt lat="33.8097828" lon="-118.3939815">
  <ele>-24.41</ele>
  <time>2026-09-01T01:17:13Z</time>
  <course>193.99</course>
  <speed>0.71</speed>
  <fix>3d</fix>
</trkpt>
<trkpt lat="33.8097813" lon="-118.3939817">
  <ele>-25.015</ele>
  <time>2026-09-01T01:17:13Z</time>
  <course>192.24</course>
  <speed>0.5412947441089743</speed>
  <fix>3d</fix>
</trkpt>
<trkpt lat="33.8097828" lon="-118.3939815">
  <ele>-24.41</ele>
  <time>2026-09-01T01:17:13Z</time>
  <course>193.99</course>
  <speed>0.71</speed>
  <fix>3d</fix>
</trkpt>
<trkpt lat="33.8097808" lon="-118.3939818">
  <ele>-25.015</ele>
  <time>2026-09-01T01:17:13Z</time>
  <course>191.94</course>
  <speed>0.4687216658103186</speed>
  <fix>3d</fix>
</trkpt>
<trkpt lat="33.8097817" lon="-118.3939818">
  <ele>-24.41</ele>
  <time>2026-09-01T01:17:13Z</time>
  <course>193.87</course>
  <speed>0.57</speed>
  <fix>3d</fix>
</trkpt>
<trkpt lat="33.8097805" lon="-118.3939819">
  <ele>-25.015</ele>
  <time>2026-09-01T01:17:13Z</time>
  <course>191.51</course>
  <speed>0.41773197148410846</speed>
  <fix>3d</fix>
</trkpt>
<trkpt lat="33.8097817" lon="-118.3939818">
  <ele>-24.41</ele>
  <time>2026-09-01T01:17:13Z</time>
  <course>193.87</course>
  <speed>0.57</speed>
  <fix>3d</fix>
</trkpt>
<trkpt lat="33.8097801" lon="-118.393982">
  <ele>-25.016</ele>
  <time>2026-09-01T01:17:13Z</time>
  <course>190.86</course>
  <speed>0.3649657518178932</speed>
  <fix>3d</fix>
</trkpt>
<trkpt lat="33.8097808" lon="-118.3939821">
  <ele>-24.41</ele>
  <time>2026-09-01T01:17:13Z</time>
  <course>193.74</course>
  <speed>0.44</speed>
  <fix>3d</fix>
</trkpt>
<trkpt lat="33.8097798" lon="-118.3939821">
  <ele>-25.017</ele>
  <time>2026-09-01T01:17:13Z</time>
  <course>189.97</course>
  <speed>0.3238826948140329</speed>
  <fix>3d</fix>
</trkpt>
<trkpt lat="33.8097808" lon="-118.3939821">
  <ele>-24.41</ele>
  <time>2026-09-01T01:17:13Z</time>
  <course>193.74</course>
  <speed>0.44</speed>
  <fix>3d</fix>
</trkpt>
<trkpt lat="33.8097796" lon="-118.3939822">
  <ele>-25.019</ele>
  <time>2026-09-01T01:17:13Z</time>
  <course>189.19</course>
  <speed>0.28442925306655786</speed>
  <fix>3d</fix>
</trkpt>
<trkpt lat="33.8097801" lon="-118.3939823">
  <ele>-24.41</ele>
  <time>2026-09-01T01:17:13Z</time>
  <course>193.68</course>
  <speed>0.33</speed>
  <fix>3d</fix>
</trkpt>
<trkpt lat="33.8097794" lon="-118.3939823">
  <ele>-25.021</ele>
  <time>2026-09-01T01:17:13Z</time>
  <course>188.99</course>
  <speed>0.24331050121192876</speed>
  <fix>3d</fix>
</trkpt>
<trkpt lat="33.8097801" lon="-118.3939823">
  <ele>-24.41</ele>
  <time>2026-09-01T01:17:13Z</time>
  <course>193.68</course>
  <speed>0.33</speed>
  <fix>3d</fix>
</trkpt>
<trkpt lat="33.8097792" lon="-118.3939823">
  <ele>-25.022</ele>
  <time>2026-09-01T01:17:13Z</time>
  <course>189.07</course>
  <speed>0.21213203435596426</speed>
  <fix>3d</fix>
</trkpt>
<trkpt lat="33.8097796" lon="-118.3939824">
  <ele>-24.42</ele>
  <time>2026-09-01T01:17:13Z</time>
  <course>193.63</course>
  <speed>0.25</speed>
  <fix>3d</fix>
</trkpt>
<trkpt lat="33.809779" lon="-118.3939824">
  <ele>-25.022</ele>
  <time>2026-09-01T01:17:13Z</time>
  <course>187.88</course>
  <speed>0.17029386365926402</speed>
  <fix>3d</fix>
</trkpt>
<trkpt lat="33.8097796" lon="-118.3939824">
  <ele>-24.42</ele>
  <time>2026-09-01T01:17:13Z</time>
  <course>193.63</course>
  <speed>0.25</speed>
  <fix>3d</fix>
</trkpt>
<trkpt lat="33.8097789" lon="-118.3939824">
  <ele>-25.022</ele>
  <time>2026-09-01T01:17:13Z</time>
  <course>185.33</course>
  <speed>0.140356688476182</speed>
  <fix>3d</fix>
</trkpt>
<trkpt lat="33.8097792" lon="-118.3939825">
  <ele>-24.42</ele>
  <time>2026-09-01T01:17:13Z</time>
  <course>193.01</course>
  <speed>0.17</speed>
  <fix>3d</fix>
</trkpt>
<trkpt lat="33.8097788" lon="-118.3939824">
  <ele>-25.023</ele>
  <time>2026-09-01T01:17:13Z</time>
  <course>182.17</course>
  <speed>0.12</speed>
  <fix>3d</fix>
</trkpt>
<trkpt lat="33.8097792" lon="-118.3939825">
  <ele>-24.42</ele>
  <time>2026-09-01T01:17:13Z</time>
  <course>193.01</course>
  <speed>0.17</speed>
  <fix>3d</fix>
</trkpt>
<trkpt lat="33.8097787" lon="-118.3939824">
  <ele>-25.024</ele>
  <time>2026-09-01T01:17:13Z</time>
  <course>178.66</course>
  <speed>0.09</speed>
  <fix>3d</fix>
</trkpt>
<trkpt lat="33.809779" lon="-118.3939826">
  <ele>-24.42</ele>
  <time>2026-09-01T01:17:13Z</time>
  <course>191.62</course>
  <speed>0.11</speed>
  <fix>3d</fix>
</trkpt>
<trkpt lat="33.8097786" lon="-118.3939824">
  <ele>-25.025</ele>
  <time>2026-09-01T01:17:13Z</time>
  <course>174.91</course>
  <speed>0.07</speed>
  <fix>3d</fix>
</trkpt>
<trkpt lat="33.809779" lon="-118.3939826">
  <ele>-24.42</ele>
  <time>2026-09-01T01:17:13Z</time>
  <course>191.62</course>
  <speed>0.11</speed>
  <fix>3d</fix>
</trkpt>
<trkpt lat="33.8097786" lon="-118.3939825">
  <ele>-25.025</ele>
  <time>2026-09-01T01:17:13Z</time>
  <course>170.96</course>
  <speed>0.05</speed>
  <fix>3d</fix>
</trkpt>
<trkpt lat="33.8097788" lon="-118.3939827">
  <ele>-24.42</ele>
  <time>2026-09-01T01:17:13Z</time>
  <course>191.95</course>
  <speed>0.06</speed>
  <fix>3d</fix>
</trkpt>
<trkpt lat="33.8097786" lon="-118.3939825">
  <ele>-25.025</ele>
  <time>2026-09-01T01:17:13Z</time>
  <course>166.91</course>
  <speed>0.01414213562373095</speed>
  <fix>3d</fix>
</trkpt>
<trkpt lat="33.8097788" lon="-118.3939827">
  <ele>-24.42</ele>
  <time>2026-09-01T01:17:13Z</time>
  <course>191.95</course>
  <speed>0.06</speed>
  <fix>3d</fix>
</trkpt>
<trkpt lat="33.8097786" lon="-118.3939825">
  <ele>-25.026</ele>
  <time>2026-09-01T01:17:13Z</time>
  <course>162.64</course>
  <speed>0.022360679774997897</speed>
  <fix>3d</fix>
</trkpt>
<trkpt lat="33.8097787" lon="-118.3939827">
  <ele>-24.41</ele>
  <time>2026-09-01T01:17:13Z</time>
  <course>243.44</course>
  <speed>0.02</speed>
  <fix>3d</fix>
</trkpt>
<trkpt lat="33.8097787" lon="-118.3939826">
  <ele>-25.027</ele>
  <time>2026-09-01T01:17:13Z</time>
  <course>158.24</course>
  <speed>0.06403124237432849</speed>
  <fix>3d</fix>
</trkpt>
<trkpt lat="33.8097787" lon="-118.3939827">
  <ele>-24.41</ele>
  <time>2026-09-01T01:17:13Z</time>
  <course>243.44</course>
  <speed>0.02</speed>
  <fix>3d</fix>
</trkpt>
<trkpt lat="33.8097787" lon="-118.3939826">
  <ele>-25.027</ele>
  <time>2026-09-01T01:17:13Z</time>
  <course>153.71</course>
  <speed>0.1</speed>
  <fix>3d</fix>
</trkpt>
<trkpt lat="33.8097788" lon="-118.3939827">
  <ele>-24.41</ele>
  <time>2026-09-01T01:17:13Z</time>
  <course>323.56</course>
  <speed>0.07</speed>
  <fix>3d</fix>
</trkpt>
<trkpt lat="33.8097788" lon="-118.3939827">
  <ele>-25.029</ele>
  <time>2026-09-01T01:17:13Z</time>
  <course>148.95</course>
  <speed>0.14422205101855956</speed>
  <fix>3d</fix>
</trkpt>
<trkpt lat="33.8097788" lon="-118.3939827">
  <ele>-24.41</ele>
  <time>2026-09-01T01:17:13Z</time>
  <course>323.56</course>
  <speed>0.07</speed>
  <fix>3d</fix>
</trkpt>
<trkpt lat="33.8097789" lon="-118.3939829">
  <ele>-25.034</ele>
  <time>2026-09-01T01:17:13Z</time>
  <course>144.2</course>
  <speed>0.18867962264113206</speed>
  <fix>3d</fix>
</trkpt>
<trkpt lat="33.8097789" lon="-118.3939829">
  <ele>-24.41</ele>
  <time>2026-09-01T01:17:13Z</time>
  <course>328.1</course>
  <speed>0.15</speed>
  <fix>3d</fix>
</trkpt>
<trkpt lat="33.8097791" lon="-118.393983">
  <ele>-25.04</ele>
  <time>2026-09-01T01:17:13Z</time>
  <course>139.35</course>
  <speed>0.22472205054244232</speed>
  <fix>3d</fix>
</trkpt>
<trkpt lat="33.8097789" lon="-118.3939829">
  <ele>-24.41</ele>
  <time>2026-09-01T01:17:13Z</time>
  <course>328.1</course>
  <speed>0.15</speed>
  <fix>3d</fix>
</trkpt>
<trkpt lat="33.8097793" lon="-118.3939832">
  <ele>-25.048</ele>
  <time>2026-09-01T01:17:13Z</time>
  <course>134.4</course>
  <speed>0.2745906043549196</speed>
  <fix>3d</fix>
</trkpt>
<trkpt lat="33.8097791" lon="-118.3939831">
  <ele>-24.42</ele>
  <time>2026-09-01T01:17:13Z</time>
  <course>328.19</course>
  <speed>0.23</speed>
  <fix>3d</fix>
</trkpt>
<trkpt lat="33.8097795" lon="-118.3939833">
  <ele>-25.058</ele>
  <time>2026-09-01T01:17:13Z</time>
  <course>129.39</course>
  <speed>0.31064449134018135</speed>
  <fix>3d</fix>
</trkpt>
<trkpt lat="33.8097791" lon="-118.3939831">
  <ele>-24.42</ele>
  <time>2026-09-01T01:17:13Z</time>
  <course>328.19</course>
  <speed>0.23</speed>
  <fix>3d</fix>
</trkpt>
<trkpt lat="33.8097798" lon="-118.3939836">
  <ele>-25.07</ele>
  <time>2026-09-01T01:17:13Z</time>
  <course>124.25</course>
  <speed>0.35510561809129404</speed>
  <fix>3d</fix>
</trkpt>
<trkpt lat="33.8097796" lon="-118.3939835">
  <ele>-24.43</ele>
  <time>2026-09-01T01:17:13Z</time>
  <course>327.94</course>
  <speed>0.32</speed>
  <fix>3d</fix>
</trkpt>
<trkpt lat="33.8097801" lon="-118.3939838">
  <ele>-25.085</ele>
  <time>2026-09-01T01:17:13Z</time>
  <course>119.03</course>
  <speed>0.3911521443121589</speed>
  <fix>3d</fix>
</trkpt>
<trkpt lat="33.8097796" lon="-118.3939835">
  <ele>-24.43</ele>
  <time>2026-09-01T01:17:13Z</time>
  <course>327.94</course>
  <speed>0.32</speed>
  <fix>3d</fix>
</trkpt>
<trkpt lat="33.8097805" lon="-118.3939841">
  <ele>-25.101</ele>
  <time>2026-09-01T01:17:13Z</time>
  <course>113.73</course>
  <speed>0.43266615305567874</speed>
  <fix>3d</fix>
</trkpt>
<trkpt lat="33.8097801" lon="-118.3939839">
  <ele>-24.45</ele>
  <time>2026-09-01T01:17:13Z</time>
  <course>327.54</course>
  <speed>0.4</speed>
  <fix>3d</fix>
</trkpt>
<trkpt lat="33.8097808" lon="-118.3939844">
  <ele>-25.119</ele>
  <time>2026-09-01T01:17:13Z</time>
  <course>108.31</course>
  <speed>0.4687216658103186</speed>
  <fix>3d</fix>
</trkpt>
<trkpt lat="33.8097801" lon="-118.3939839">
  <ele>-24.45</ele>
  <time>2026-09-01T01:17:13Z</time>
  <course>327.54</course>
  <speed>0.4</speed>
  <fix>3d</fix>
</trkpt>
<trkpt lat="33.8097812" lon="-118.3939847">
  <ele>-25.138</ele>
  <time>2026-09-01T01:17:13Z</time>
  <course>102.87</course>
  <speed>0.5047771785649585</speed>
  <fix>3d</fix>
</trkpt>
<trkpt lat="33.8097808" lon="-118.3939844">
  <ele>-24.49</ele>
  <time>2026-09-01T01:17:13Z</time>
  <course>326.84</course>
  <speed>0.48</speed>
  <fix>3d</fix>
</trkpt>
<trkpt lat="33.8097816" lon="-118.393985">
  <ele>-25.158</ele>
  <time>2026-09-01T01:17:13Z</time>
  <course>97.36</course>
  <speed>0.5243090691567331</speed>
  <fix>3d</fix>
</trkpt>
<trkpt lat="33.8097808" lon="-118.3939844">
  <ele>-24.49</ele>
  <time>2026-09-01T01:17:13Z</time>
  <course>326.84</course>
  <speed>0.48</speed>
  <fix>3d</fix>
</trkpt>
<trkpt lat="33.809782" lon="-118.3939854">
  <ele>-25.179</ele>
  <time>2026-09-01T01:17:13Z</time>
  <course>91.77</course>
  <speed>0.54644304369257</speed>
  <fix>3d</fix>
</trkpt>
<trkpt lat="33.8097815" lon="-118.393985">
  <ele>-24.52</ele>
  <time>2026-09-01T01:17:13Z</time>
  <course>325.87</course>
  <speed>0.54</speed>
  <fix>3d</fix>
</trkpt>
<trkpt lat="33.8097824" lon="-118.3939857">
  <ele>-25.202</ele>
  <time>2026-09-01T01:17:13Z</time>
  <course>86.1</course>
  <speed>0.560357029044876</speed>
  <fix>3d</fix>
</trkpt>
<trkpt lat="33.8097815" lon="-118.393985">
  <ele>-24.52</ele>
  <time>2026-09-01T01:17:13Z</time>
  <course>325.87</course>
  <speed>0.54</speed>
  <fix>3d</fix>
</trkpt>
<trkpt lat="33.8097829" lon="-118.3939861">
  <ele>-25.225</ele>
  <time>2026-09-01T01:17:13Z</time>
  <course>80.34</course>
  <speed>0.5742821606144493</speed>
  <fix>3d</fix>
</trkpt>
<trkpt lat="33.8097824" lon="-118.3939857">
  <ele>-24.57</ele>
  <time>2026-09-01T01:17:13Z</time>
  <course>324.89</course>
  <speed>0.58</speed>
  <fix>3d</fix>
</trkpt>
<trkpt lat="33.8097833" lon="-118.3939865">
  <ele>-25.249</ele>
  <time>2026-09-01T01:17:13Z</time>
  <course>74.49</course>
  <speed>0.5882176467941097</speed>
  <fix>3d</fix>
</trkpt>
<trkpt lat="33.8097824" lon="-118.3939857">
  <ele>-24.57</ele>
  <time>2026-09-01T01:17:13Z</time>
  <course>324.89</course>
  <speed>0.58</speed>
  <fix>3d</fix>
</trkpt>
<trkpt lat="33.8097838" lon="-118.3939869">
  <ele>-25.273</ele>
  <time>2026-09-01T01:17:13Z</time>
  <course>68.55</course>
  <speed>0.5964059020499378</speed>
  <fix>3d</fix>
</trkpt>
<trkpt lat="33.8097833" lon="-118.3939865">
  <ele>-24.61</ele>
  <time>2026-09-01T01:17:13Z</time>
  <course>324.29</course>
  <speed>0.61</speed>
  <fix>3d</fix>
</trkpt>
<trkpt lat="33.8097843" lon="-118.3939873">
  <ele>-25.295</ele>
  <time>2026-09-01T01:17:13Z</time>
  <course>62.52</course>
  <speed>0.604648658313239</speed>
  <fix>3d</fix>
</trkpt>
<trkpt lat="33.8097833" lon="-118.3939865">
  <ele>-24.61</ele>
  <time>2026-09-01T01:17:13Z</time>
  <course>324.29</course>
  <speed>0.61</speed>
  <fix>3d</fix>
</trkpt>
<trkpt lat="33.8097847" lon="-118.3939877">
  <ele>-25.316</ele>
  <time>2026-09-01T01:17:13Z</time>
  <course>56.53</course>
  <speed>0.6129437168288782</speed>
  <fix>3d</fix>
</trkpt>
<trkpt lat="33.8097842" lon="-118.3939873">
  <ele>-24.65</ele>
  <time>2026-09-01T01:17:13Z</time>
  <course>324.47</course>
  <speed>0.63</speed>
  <fix>3d</fix>
</trkpt>
<trkpt lat="33.8097852" lon="-118.393988">
  <ele>-25.336</ele>
  <time>2026-09-01T01:17:13Z</time>
  <course>50.39</course>
  <speed>0.6296824596572467</speed>
  <fix>3d</fix>
</trkpt>
<trkpt lat="33.8097842" lon="-118.3939873">
  <ele>-24.65</ele>
  <time>2026-09-01T01:17:13Z</time>
  <course>324.47</course>
  <speed>0.63</speed>
  <fix>3d</fix>
</trkpt>
<trkpt lat="33.8097857" lon="-118.3939884">
  <ele>-25.357</ele>
  <time>2026-09-01T01:17:13Z</time>
  <course>44.23</course>
  <speed>0.6381222453417527</speed>
  <fix>3d</fix>
</trkpt>
<trkpt lat="33.8097852" lon="-118.3939881">
  <ele>-24.7</ele>
  <time>2026-09-01T01:17:13Z</time>
  <course>325.64</course>
  <speed>0.64</speed>
  <fix>3d</fix>
</trkpt>
<trkpt lat="33.8097862" lon="-118.3939888">
  <ele>-25.376</ele>
  <time>2026-09-01T01:17:13Z</time>
  <course>37.93</course>
  <speed>0.6466065264130885</speed>
  <fix>3d</fix>
</trkpt>
<trkpt lat="33.8097852" lon="-118.3939881">
  <ele>-24.7</ele>
  <time>2026-09-01T01:17:13Z</time>
  <course>325.64</course>
  <speed>0.64</speed>
  <fix>3d</fix>
</trkpt>
<trkpt lat="33.8097868" lon="-118.3939892">
  <ele>-25.393</ele>
  <time>2026-09-01T01:17:13Z</time>
  <course>31.81</course>
  <speed>0.655133574166368</speed>
  <fix>3d</fix>
</trkpt>
<trkpt lat="33.8097862" lon="-118.3939888">
  <ele>-24.74</ele>
  <time>2026-09-01T01:17:13Z</time>
  <course>326.99</course>
  <speed>0.66</speed>
  <fix>3d</fix>
</trkpt>
<trkpt lat="33.8097873" lon="-118.3939896">
  <ele>-25.41</ele>
  <time>2026-09-01T01:17:13Z</time>
  <course>25.71</course>
  <speed>0.6688796603276258</speed>
  <fix>3d</fix>
</trkpt>
<trkpt lat="33.8097862" lon="-118.3939888">
  <ele>-24.74</ele>
  <time>2026-09-01T01:17:13Z</time>
  <course>326.99</course>
  <speed>0.66</speed>
  <fix>3d</fix>
</trkpt>
<trkpt lat="33.8097878" lon="-118.39399">
  <ele>-25.425</ele>
  <time>2026-09-01T01:17:13Z</time>
  <course>19.67</course>
  <speed>0.674166151627327</speed>
  <fix>3d</fix>
</trkpt>
<trkpt lat="33.8097872" lon="-118.3939896">
  <ele>-24.77</ele>
  <time>2026-09-01T01:17:13Z</time>
  <course>327.37</course>
  <speed>0.67</speed>
  <fix>3d</fix>
</trkpt>
<trkpt lat="33.8097883" lon="-118.3939904">
  <ele>-25.44</ele>
  <time>2026-09-01T01:17:13Z</time>
  <course>14.05</course>
  <speed>0.674166151627327</speed>
  <fix>3d</fix>
</trkpt>
<trkpt lat="33.8097872" lon="-118.3939896">
  <ele>-24.77</ele>
  <time>2026-09-01T01:17:13Z</time>
  <course>327.37</course>
  <speed>0.67</speed>
  <fix>3d</fix>
</trkpt>
<trkpt lat="33.8097889" lon="-118.3939908">
  <ele>-25.454</ele>
  <time>2026-09-01T01:17:13Z</time>
  <course>9.02</course>
  <speed>0.6711929677819934</speed>
  <fix>3d</fix>
</trkpt>
<trkpt lat="33.8097882" lon="-118.3939904">
  <ele>-24.8</ele>
  <time>2026-09-01T01:17:13Z</time>
  <course>326.73</course>
  <speed>0.68</speed>
  <fix>3d</fix>
</trkpt>
<trkpt lat="33.8097894" lon="-118.3939913">
  <ele>-25.466</ele>
  <time>2026-09-01T01:17:13Z</time>
  <course>4.34</course>
  <speed>0.6711929677819934</speed>
  <fix>3d</fix>
</trkpt>
<trkpt lat="33.8097882" lon="-118.3939904">
  <ele>-24.8</ele>
  <time>2026-09-01T01:17:13Z</time>
  <course>326.73</course>
  <speed>0.68</speed>
  <fix>3d</fix>
</trkpt>
<trkpt lat="33.8097899" lon="-118.3939917">
  <ele>-25.478</ele>
  <time>2026-09-01T01:17:13Z</time>
  <course>359.91</course>
  <speed>0.662872536767062</speed>
  <fix>3d</fix>
</trkpt>
<trkpt lat="33.8097892" lon="-118.3939912">
  <ele>-24.83</ele>
  <time>2026-09-01T01:17:13Z</time>
  <course>325.66</course>
  <speed>0.68</speed>
  <fix>3d</fix>
</trkpt>
<trkpt lat="33.8097904" lon="-118.3939921">
  <ele>-25.489</ele>
  <time>2026-09-01T01:17:13Z</time>
  <course>355.69</course>
  <speed>0.660302960768767</speed>
  <fix>3d</fix>
</trkpt>
<trkpt lat="33.8097892" lon="-118.3939912">
  <ele>-24.83</ele>
  <time>2026-09-01T01:17:13Z</time>
  <course>325.66</course>
  <speed>0.68</speed>
  <fix>3d</fix>
</trkpt>
<trkpt lat="33.8097909" lon="-118.3939925">
  <ele>-25.501</ele>
  <time>2026-09-01T01:17:13Z</time>
  <course>351.6</course>
  <speed>0.6521502894272148</speed>
  <fix>3d</fix>
</trkpt>
<trkpt lat="33.8097902" lon="-118.3939921">
  <ele>-24.85</ele>
  <time>2026-09-01T01:17:13Z</time>
  <course>324.44</course>
  <speed>0.67</speed>
  <fix>3d</fix>
</trkpt>
<trkpt lat="33.8097913" lon="-118.393993">
  <ele>-25.511</ele>
  <time>2026-09-01T01:17:13Z</time>
  <course>347.68</course>
  <speed>0.6440496875241847</speed>
  <fix>3d</fix>
</trkpt>
<trkpt lat="33.8097902" lon="-118.3939921">
  <ele>-24.85</ele>
  <time>2026-09-01T01:17:13Z</time>
  <course>324.44</course>
  <speed>0.67</speed>
  <fix>3d</fix>
</trkpt>
<trkpt lat="33.8097918" lon="-118.3939934">
  <ele>-25.522</ele>
  <time>2026-09-01T01:17:13Z</time>
  <course>343.91</course>
  <speed>0.6360031446463138</speed>
  <fix>3d</fix>
</trkpt>
<trkpt lat="33.8097912" lon="-118.3939929">
  <ele>-24.88</ele>
  <time>2026-09-01T01:17:13Z</time>
  <course>323.13</course>
  <speed>0.65</speed>
  <fix>3d</fix>
</trkpt>
<trkpt lat="33.8097923" lon="-118.3939938">
  <ele>-25.533</ele>
  <time>2026-09-01T01:17:13Z</time>
  <course>340.52</course>
  <speed>0.6360031446463138</speed>
  <fix>3d</fix>
</trkpt>
<trkpt lat="33.8097912" lon="-118.3939929">
  <ele>-24.88</ele>
  <time>2026-09-01T01:17:13Z</time>
  <course>323.13</course>
  <speed>0.65</speed>
  <fix>3d</fix>
</trkpt>
<trkpt lat="33.8097927" lon="-118.3939943">
  <ele>-25.545</ele>
  <time>2026-09-01T01:17:13Z</time>
  <course>337.77</course>
  <speed>0.6360031446463138</speed>
  <fix>3d</fix>
</trkpt>
<trkpt lat="33.8097921" lon="-118.3939938">
  <ele>-24.9</ele>
  <time>2026-09-01T01:17:13Z</time>
  <course>322.42</course>
  <speed>0.64</speed>
  <fix>3d</fix>
</trkpt>
<trkpt lat="33.8097932" lon="-118.3939947">
  <ele>-25.558</ele>
  <time>2026-09-01T01:17:13Z</time>
  <course>335.83</course>
  <speed>0.638200595424354</speed>
  <fix>3d</fix>
</trkpt>
<trkpt lat="33.8097921" lon="-118.3939938">
  <ele>-24.9</ele>
  <time>2026-09-01T01:17:13Z</time>
  <course>322.42</course>
  <speed>0.64</speed>
  <fix>3d</fix>
</trkpt>
<trkpt lat="33.8097937" lon="-118.3939951">
  <ele>-25.571</ele>
  <time>2026-09-01T01:17:13Z</time>
  <course>334.63</course>
  <speed>0.638200595424354</speed>
  <fix>3d</fix>
</trkpt>
<trkpt lat="33.809793" lon="-118.3939945">
  <ele>-24.92</ele>
  <time>2026-09-01T01:17:13Z</time>
  <course>323.04</course>
  <speed>0.63</speed>
  <fix>3d</fix>
</trkpt>
<trkpt lat="33.8097941" lon="-118.3939955">
  <ele>-25.586</ele>
  <time>2026-09-01T01:17:13Z</time>
  <course>333.99</course>
  <speed>0.6463745044476924</speed>
  <fix>3d</fix>
</trkpt>
<trkpt lat="33.809793" lon="-118.3939945">
  <ele>-24.92</ele>
  <time>2026-09-01T01:17:13Z</time>
  <course>323.04</course>
  <speed>0.63</speed>
  <fix>3d</fix>
</trkpt>
<trkpt lat="33.8097946" lon="-118.3939959">
  <ele>-25.602</ele>
  <time>2026-09-01T01:17:13Z</time>
  <course>333.66</course>
  <speed>0.6545991139621257</speed>
  <fix>3d</fix>
</trkpt>
<trkpt lat="33.8097939" lon="-118.3939954">
  <ele>-24.95</ele>
  <time>2026-09-01T01:17:13Z</time>
  <course>324.32</course>
  <speed>0.63</speed>
  <fix>3d</fix>
</trkpt>
<trkpt lat="33.8097951" lon="-118.3939963">
  <ele>-25.618</ele>
  <time>2026-09-01T01:17:13Z</time>
  <course>333.48</course>
  <speed>0.6545991139621257</speed>
  <fix>3d</fix>
</trkpt>
<trkpt lat="33.8097939" lon="-118.3939954">
  <ele>-24.95</ele>
  <time>2026-09-01T01:17:13Z</time>
  <course>324.32</course>
  <speed>0.63</speed>
  <fix>3d</fix>
</trkpt>
<trkpt lat="33.8097956" lon="-118.3939967">
  <ele>-25.635</ele>
  <time>2026-09-01T01:17:13Z</time>
  <course>333.38</course>
  <speed>0.662872536767062</speed>
  <fix>3d</fix>
</trkpt>
<trkpt lat="33.8097949" lon="-118.3939962">
  <ele>-24.97</ele>
  <time>2026-09-01T01:17:13Z</time>
  <course>325.36</course>
  <speed>0.63</speed>
  <fix>3d</fix>
</trkpt>
<trkpt lat="33.8097961" lon="-118.3939971">
  <ele>-25.652</ele>
  <time>2026-09-01T01:17:13Z</time>
  <course>333.3</course>
  <speed>0.662872536767062</speed>
  <fix>3d</fix>
</trkpt>
<trkpt lat="33.8097949" lon="-118.3939962">
  <ele>-24.97</ele>
  <time>2026-09-01T01:17:13Z</time>
  <course>325.36</course>
  <speed>0.63</speed>
  <fix>3d</fix>
</trkpt>
<trkpt lat="33.8097966" lon="-118.3939975">
  <ele>-25.67</ele>
  <time>2026-09-01T01:17:13Z</time>
  <course>333.24</course>
  <speed>0.662872536767062</speed>
  <fix>3d</fix>
</trkpt>
<trkpt lat="33.8097958" lon="-118.3939969">
  <ele>-25.01</ele>
  <time>2026-09-01T01:17:13Z</time>
  <course>326.02</course>
  <speed>0.64</speed>
  <fix>3d</fix>
</trkpt>
<trkpt lat="33.8097971" lon="-118.3939979">
  <ele>-25.688</ele>
  <time>2026-09-01T01:17:13Z</time>
  <course>333.18</course>
  <speed>0.662872536767062</speed>
  <fix>3d</fix>
</trkpt>
<trkpt lat="33.8097958" lon="-118.3939969">
  <ele>-25.01</ele>
  <time>2026-09-01T01:17:13Z</time>
  <course>326.02</course>
  <speed>0.64</speed>
  <fix>3d</fix>
</trkpt>
<trkpt lat="33.8097975" lon="-118.3939983">
  <ele>-25.705</ele>
  <time>2026-09-01T01:17:13Z</time>
  <course>333.11</course>
  <speed>0.6711929677819934</speed>
  <fix>3d</fix>
</trkpt>
<trkpt lat="33.8097968" lon="-118.3939978">
  <ele>-25.04</ele>
  <time>2026-09-01T01:17:13Z</time>
  <course>326.39</course>
  <speed>0.64</speed>
  <fix>3d</fix>
</trkpt>
<trkpt lat="33.809798" lon="-118.3939987">
  <ele>-25.722</ele>
  <time>2026-09-01T01:17:13Z</time>
  <course>333.55</course>
  <speed>0.6711929677819934</speed>
  <fix>3d</fix>
</trkpt>
<trkpt lat="33.8097968" lon="-118.3939978">
  <ele>-25.04</ele>
  <time>2026-09-01T01:17:13Z</time>
  <course>326.39</course>
  <speed>0.64</speed>
  <fix>3d</fix>
</trkpt>
<trkpt lat="33.8097985" lon="-118.3939991">
  <ele>-25.737</ele>
  <time>2026-09-01T01:17:13Z</time>
  <course>333.58</course>
  <speed>0.6711929677819934</speed>
  <fix>3d</fix>
</trkpt>
<trkpt lat="33.8097978" lon="-118.3939986">
  <ele>-25.07</ele>
  <time>2026-09-01T01:17:13Z</time>
  <course>326.57</course>
  <speed>0.65</speed>
  <fix>3d</fix>
</trkpt>
<trkpt lat="33.809799" lon="-118.3939995">
  <ele>-25.753</ele>
  <time>2026-09-01T01:17:13Z</time>
  <course>333.67</course>
  <speed>0.6767569726275453</speed>
  <fix>3d</fix>
</trkpt>
<trkpt lat="33.8097978" lon="-118.3939986">
  <ele>-25.07</ele>
  <time>2026-09-01T01:17:13Z</time>
  <course>326.57</course>
  <speed>0.65</speed>
  <fix>3d</fix>
</trkpt>
<trkpt lat="33.8097995" lon="-118.3939999">
  <ele>-25.767</ele>
  <time>2026-09-01T01:17:13Z</time>
  <course>333.53</course>
  <speed>0.6767569726275453</speed>
  <fix>3d</fix>
</trkpt>
<trkpt lat="33.8097987" lon="-118.3939993">
  <ele>-25.1</ele>
  <time>2026-09-01T01:17:13Z</time>
  <course>326.66</course>
  <speed>0.65</speed>
  <fix>3d</fix>
</trkpt>
<trkpt lat="33.8098" lon="-118.3940003">
  <ele>-25.781</ele>
  <time>2026-09-01T01:17:13Z</time>
  <course>333.26</course>
  <speed>0.6767569726275453</speed>
  <fix>3d</fix>
</trkpt>
<trkpt lat="33.8097987" lon="-118.3939993">
  <ele>-25.1</ele>
  <time>2026-09-01T01:17:13Z</time>
  <course>326.66</course>
  <speed>0.65</speed>
  <fix>3d</fix>
</trkpt>
<trkpt lat="33.8098005" lon="-118.3940007">
  <ele>-25.794</ele>
  <time>2026-09-01T01:17:13Z</time>
  <course>333.01</course>
  <speed>0.6767569726275453</speed>
  <fix>3d</fix>
</trkpt>
<trkpt lat="33.8097997" lon="-118.3940001">
  <ele>-25.13</ele>
  <time>2026-09-01T01:17:13Z</time>
  <course>326.75</course>
  <speed>0.65</speed>
  <fix>3d</fix>
</trkpt>
<trkpt lat="33.809801" lon="-118.3940011">
  <ele>-25.806</ele>
  <time>2026-09-01T01:17:13Z</time>
  <course>332.86</course>
  <speed>0.6767569726275453</speed>
  <fix>3d</fix>
</trkpt>
<trkpt lat="33.8097997" lon="-118.3940001">
  <ele>-25.13</ele>
  <time>2026-09-01T01:17:13Z</time>
  <course>326.75</course>
  <speed>0.65</speed>
  <fix>3d</fix>
</trkpt>
<trkpt lat="33.8098015" lon="-118.3940015">
  <ele>-25.818</ele>
  <time>2026-09-01T01:17:13Z</time>
  <course>332.76</course>
  <speed>0.6767569726275453</speed>
  <fix>3d</fix>
</trkpt>
<trkpt lat="33.8098006" lon="-118.3940009">
  <ele>-25.16</ele>
  <time>2026-09-01T01:17:13Z</time>
  <course>326.9</course>
  <speed>0.65</speed>
  <fix>3d</fix>
</trkpt>
<trkpt lat="33.809802" lon="-118.3940019">
  <ele>-25.83</ele>
  <time>2026-09-01T01:17:13Z</time>
  <course>332.69</course>
  <speed>0.6767569726275453</speed>
  <fix>3d</fix>
</trkpt>
<trkpt lat="33.8098006" lon="-118.3940009">
  <ele>-25.16</ele>
  <time>2026-09-01T01:17:13Z</time>
  <course>326.9</course>
  <speed>0.65</speed>
  <fix>3d</fix>
</trkpt>
<trkpt lat="33.8098024" lon="-118.3940023">
  <ele>-25.842</ele>
  <time>2026-09-01T01:17:13Z</time>
  <course>332.63</course>
  <speed>0.6767569726275453</speed>
  <fix>3d</fix>
</trkpt>
<trkpt lat="33.8098016" lon="-118.3940016">
  <ele>-25.18</ele>
  <time>2026-09-01T01:17:13Z</time>
  <course>327.07</course>
  <speed>0.65</speed>
  <fix>3d</fix>
</trkpt>
<trkpt lat="33.8098029" lon="-118.3940027">
  <ele>-25.855</ele>
  <time>2026-09-01T01:17:13Z</time>
  <course>332.57</course>
  <speed>0.6767569726275453</speed>
  <fix>3d</fix>
</trkpt>
<trkpt lat="33.8098016" lon="-118.3940016">
  <ele>-25.18</ele>
  <time>2026-09-01T01:17:13Z</time>
  <course>327.07</course>
  <speed>0.65</speed>
  <fix>3d</fix>
</trkpt>
<trkpt lat="33.8098034" lon="-118.3940031">
  <ele>-25.868</ele>
  <time>2026-09-01T01:17:13Z</time>
  <course>332.49</course>
  <speed>0.6767569726275453</speed>
  <fix>3d</fix>
</trkpt>
<trkpt lat="33.8098027" lon="-118.3940024">
  <ele>-25.21</ele>
  <time>2026-09-01T01:17:13Z</time>
  <course>327.17</course>
  <speed>0.65</speed>
  <fix>3d</fix>
</trkpt>
<trkpt lat="33.8098039" lon="-118.3940035">
  <ele>-25.883</ele>
  <time>2026-09-01T01:17:13Z</time>
  <course>332.39</course>
  <speed>0.6767569726275453</speed>
  <fix>3d</fix>
</trkpt>
<trkpt lat="33.8098027" lon="-118.3940024">
  <ele>-25.21</ele>
  <time>2026-09-01T01:17:13Z</time>
  <course>327.17</course>
  <speed>0.65</speed>
  <fix>3d</fix>
</trkpt>
<trkpt lat="33.8098044" lon="-118.3940039">
  <ele>-25.898</ele>
  <time>2026-09-01T01:17:13Z</time>
  <course>332.29</course>
  <speed>0.6824221567329127</speed>
  <fix>3d</fix>
</trkpt>
<trkpt lat="33.8098036" lon="-118.3940031">
  <ele>-25.24</ele>
  <time>2026-09-01T01:17:13Z</time>
  <course>327.14</course>
  <speed>0.65</speed>
  <fix>3d</fix>
</trkpt>
<trkpt lat="33.8098049" lon="-118.3940043">
  <ele>-25.912</ele>
  <time>2026-09-01T01:17:13Z</time>
  <course>332.18</course>
  <speed>0.6824221567329127</speed>
  <fix>3d</fix>
</trkpt>
<trkpt lat="33.8098036" lon="-118.3940031">
  <ele>-25.24</ele>
  <time>2026-09-01T01:17:13Z</time>
  <course>327.14</course>
  <speed>0.65</speed>
  <fix>3d</fix>
</trkpt>
<trkpt lat="33.8098054" lon="-118.3940047">
  <ele>-25.926</ele>
  <time>2026-09-01T01:17:13Z</time>
  <course>332.05</course>
  <speed>0.6824221567329127</speed>
  <fix>3d</fix>
</trkpt>
<trkpt lat="33.8098047" lon="-118.394004">
  <ele>-25.26</ele>
  <time>2026-09-01T01:17:13Z</time>
  <course>327.04</course>
  <speed>0.65</speed>
  <fix>3d</fix>
</trkpt>
<trkpt lat="33.8098059" lon="-118.3940051">
  <ele>-25.939</ele>
  <time>2026-09-01T01:17:13Z</time>
  <course>331.93</course>
  <speed>0.6824221567329127</speed>
  <fix>3d</fix>
</trkpt>
<trkpt lat="33.8098047" lon="-118.394004">
  <ele>-25.26</ele>
  <time>2026-09-01T01:17:13Z</time>
  <course>327.04</course>
  <speed>0.65</speed>
  <fix>3d</fix>
</trkpt>
<trkpt lat="33.8098064" lon="-118.3940055">
  <ele>-25.953</ele>
  <time>2026-09-01T01:17:13Z</time>
  <course>331.81</course>
  <speed>0.6824221567329127</speed>
  <fix>3d</fix>
</trkpt>
<trkpt lat="33.8098057" lon="-118.3940047">
  <ele>-25.29</ele>
  <time>2026-09-01T01:17:13Z</time>
  <course>326.93</course>
  <speed>0.65</speed>
  <fix>3d</fix>
</trkpt>
<trkpt lat="33.8098069" lon="-118.3940059">
  <ele>-25.968</ele>
  <time>2026-09-01T01:17:13Z</time>
  <course>331.69</course>
  <speed>0.6824221567329127</speed>
  <fix>3d</fix>
</trkpt>
<trkpt lat="33.8098057" lon="-118.3940047">
  <ele>-25.29</ele>
  <time>2026-09-01T01:17:13Z</time>
  <course>326.93</course>
  <speed>0.65</speed>
  <fix>3d</fix>
</trkpt>
<trkpt lat="33.8098074" lon="-118.3940063">
  <ele>-25.982</ele>
  <time>2026-09-01T01:17:13Z</time>
  <course>331.57</course>
  <speed>0.6824221567329127</speed>
  <fix>3d</fix>
</trkpt>
<trkpt lat="33.8098066" lon="-118.3940055">
  <ele>-25.32</ele>
  <time>2026-09-01T01:17:13Z</time>
  <course>326.83</course>
  <speed>0.65</speed>
  <fix>3d</fix>
</trkpt>
<trkpt lat="33.8098079" lon="-118.3940067">
  <ele>-25.997</ele>
  <time>2026-09-01T01:17:13Z</time>
  <course>331.45</course>
  <speed>0.6824221567329127</speed>
  <fix>3d</fix>
</trkpt>
<trkpt lat="33.8098066" lon="-118.3940055">
  <ele>-25.32</ele>
  <time>2026-09-01T01:17:13Z</time>
  <course>326.83</course>
  <speed>0.65</speed>
  <fix>3d</fix>
</trkpt>
<trkpt lat="33.8098084" lon="-118.3940071">
  <ele>-26.012</ele>
  <time>2026-09-01T01:17:13Z</time>
  <course>331.32</course>
  <speed>0.6881860213634101</speed>
  <fix>3d</fix>
</trkpt>
<trkpt lat="33.8098076" lon="-118.3940063">
  <ele>-25.34</ele>
  <time>2026-09-01T01:17:13Z</time>
  <course>326.73</course>
  <speed>0.65</speed>
  <fix>3d</fix>
</trkpt>
<trkpt lat="33.8098089" lon="-118.3940075">
  <ele>-26.027</ele>
  <time>2026-09-01T01:17:13Z</time>
  <course>331.21</course>
  <speed>0.6881860213634101</speed>
  <fix>3d</fix>
</trkpt>
<trkpt lat="33.8098076" lon="-118.3940063">
  <ele>-25.34</ele>
  <time>2026-09-01T01:17:13Z</time>
  <course>326.73</course>
  <speed>0.65</speed>
  <fix>3d</fix>
</trkpt>
<trkpt lat="33.8098093" lon="-118.3940079">
  <ele>-26.042</ele>
  <time>2026-09-01T01:17:13Z</time>
  <course>331.1</course>
  <speed>0.6881860213634101</speed>
  <fix>3d</fix>
</trkpt>
<trkpt lat="33.8098085" lon="-118.394007">
  <ele>-25.37</ele>
  <time>2026-09-01T01:17:13Z</time>
  <course>326.67</course>
  <speed>0.65</speed>
  <fix>3d</fix>
</trkpt>
<trkpt lat="33.8098098" lon="-118.3940083">
  <ele>-26.058</ele>
  <time>2026-09-01T01:17:13Z</time>
  <course>330.99</course>
  <speed>0.6881860213634101</speed>
  <fix>3d</fix>
</trkpt>
<trkpt lat="33.8098085" lon="-118.394007">
  <ele>-25.37</ele>
  <time>2026-09-01T01:17:13Z</time>
  <course>326.67</course>
  <speed>0.65</speed>
  <fix>3d</fix>
</trkpt>
<trkpt lat="33.8098103" lon="-118.3940087">
  <ele>-26.074</ele>
  <time>2026-09-01T01:17:13Z</time>
  <course>330.88</course>
  <speed>0.6881860213634101</speed>
  <fix>3d</fix>
</trkpt>
<trkpt lat="33.8098095" lon="-118.3940078">
  <ele>-25.4</ele>
  <time>2026-09-01T01:17:13Z</time>
  <course>326.64</course>
  <speed>0.65</speed>
  <fix>3d</fix>
</trkpt>
<trkpt lat="33.8098108" lon="-118.3940091">
  <ele>-26.09</ele>
  <time>2026-09-01T01:17:13Z</time>
  <course>330.77</course>
  <speed>0.6881860213634101</speed>
  <fix>3d</fix>
</trkpt>
<trkpt lat="33.8098095" lon="-118.3940078">
  <ele>-25.4</ele>
  <time>2026-09-01T01:17:13Z</time>
  <course>326.64</course>
  <speed>0.65</speed>
  <fix>3d</fix>
</trkpt>
<trkpt lat="33.8098113" lon="-118.3940095">
  <ele>-26.104</ele>
  <time>2026-09-01T01:17:13Z</time>
  <course>330.65</course>
  <speed>0.6881860213634101</speed>
  <fix>3d</fix>
</trkpt>
<trkpt lat="33.8098106" lon="-118.3940086">
  <ele>-25.43</ele>
  <time>2026-09-01T01:17:13Z</time>
  <course>326.6</course>
  <speed>0.65</speed>
  <fix>3d</fix>
</trkpt>
<trkpt lat="33.8098118" lon="-118.3940099">
  <ele>-26.119</ele>
  <time>2026-09-01T01:17:13Z</time>
  <course>330.53</course>
  <speed>0.6940461079784254</speed>
  <fix>3d</fix>
</trkpt>
<trkpt lat="33.8098106" lon="-118.3940086">
  <ele>-25.43</ele>
  <time>2026-09-01T01:17:13Z</time>
  <course>326.6</course>
  <speed>0.65</speed>
  <fix>3d</fix>
</trkpt>
<trkpt lat="33.8098123" lon="-118.3940103">
  <ele>-26.133</ele>
  <time>2026-09-01T01:17:13Z</time>
  <course>330.4</course>
  <speed>0.7021395872616784</speed>
  <fix>3d</fix>
</trkpt>
<trkpt lat="33.8098115" lon="-118.3940093">
  <ele>-25.46</ele>
  <time>2026-09-01T01:17:13Z</time>
  <course>326.52</course>
  <speed>0.66</speed>
  <fix>3d</fix>
</trkpt>
<trkpt lat="33.8098128" lon="-118.3940107">
  <ele>-26.147</ele>
  <time>2026-09-01T01:17:13Z</time>
  <course>330.27</course>
  <speed>0.7021395872616784</speed>
  <fix>3d</fix>
</trkpt>
<trkpt lat="33.8098115" lon="-118.3940093">
  <ele>-25.46</ele>
  <time>2026-09-01T01:17:13Z</time>
  <course>326.52</course>
  <speed>0.66</speed>
  <fix>3d</fix>
</trkpt>
<trkpt lat="33.8098133" lon="-118.3940111">
  <ele>-26.162</ele>
  <time>2026-09-01T01:17:13Z</time>
  <course>330.12</course>
  <speed>0.7021395872616784</speed>
  <fix>3d</fix>
</trkpt>
<trkpt lat="33.8098126" lon="-118.3940102">
  <ele>-25.49</ele>
  <time>2026-09-01T01:17:13Z</time>
  <course>326.38</course>
  <speed>0.66</speed>
  <fix>3d</fix>
</trkpt>
<trkpt lat="33.8098138" lon="-118.3940115">
  <ele>-26.176</ele>
  <time>2026-09-01T01:17:13Z</time>
  <course>329.97</course>
  <speed>0.7080254232723568</speed>
  <fix>3d</fix>
</trkpt>
<trkpt lat="33.8098126" lon="-118.3940102">
  <ele>-25.49</ele>
  <time>2026-09-01T01:17:13Z</time>
  <course>326.38</course>
  <speed>0.66</speed>
  <fix>3d</fix>
</trkpt>
<trkpt lat="33.8098143" lon="-118.3940119">
  <ele>-26.191</ele>
  <time>2026-09-01T01:17:13Z</time>
  <course>329.81</course>
  <speed>0.7080254232723568</speed>
  <fix>3d</fix>
</trkpt>
<trkpt lat="33.8098136" lon="-118.394011">
  <ele>-25.51</ele>
  <time>2026-09-01T01:17:13Z</time>
  <course>326.22</course>
  <speed>0.66</speed>
  <fix>3d</fix>
</trkpt>
<trkpt lat="33.8098148" lon="-118.3940123">
  <ele>-26.206</ele>
  <time>2026-09-01T01:17:13Z</time>
  <course>329.67</course>
  <speed>0.7080254232723568</speed>
  <fix>3d</fix>
</trkpt>
<trkpt lat="33.8098136" lon="-118.394011">
  <ele>-25.51</ele>
  <time>2026-09-01T01:17:13Z</time>
  <course>326.22</course>
  <speed>0.66</speed>
  <fix>3d</fix>
</trkpt>
<trkpt lat="33.8098153" lon="-118.3940127">
  <ele>-26.222</ele>
  <time>2026-09-01T01:17:13Z</time>
  <course>329.53</course>
  <speed>0.7080254232723568</speed>
  <fix>3d</fix>
</trkpt>
<trkpt lat="33.8098145" lon="-118.3940117">
  <ele>-25.54</ele>
  <time>2026-09-01T01:17:13Z</time>
  <course>326.07</course>
  <speed>0.67</speed>
  <fix>3d</fix>
</trkpt>
<trkpt lat="33.8098158" lon="-118.3940131">
  <ele>-26.237</ele>
  <time>2026-09-01T01:17:13Z</time>
  <course>329.4</course>
  <speed>0.7080254232723568</speed>
  <fix>3d</fix>
</trkpt>
<trkpt lat="33.8098145" lon="-118.3940117">
  <ele>-25.54</ele>
  <time>2026-09-01T01:17:13Z</time>
  <course>326.07</course>
  <speed>0.67</speed>
  <fix>3d</fix>
</trkpt>
<trkpt lat="33.8098163" lon="-118.3940136">
  <ele>-26.254</ele>
  <time>2026-09-01T01:17:13Z</time>
  <course>329.26</course>
  <speed>0.7080254232723568</speed>
  <fix>3d</fix>
</trkpt>
<trkpt lat="33.8098156" lon="-118.3940126">
  <ele>-25.57</ele>
  <time>2026-09-01T01:17:13Z</time>
  <course>325.92</course>
  <speed>0.67</speed>
  <fix>3d</fix>
</trkpt>
<trkpt lat="33.8098168" lon="-118.394014">
  <ele>-26.27</ele>
  <time>2026-09-01T01:17:13Z</time>
  <course>329.14</course>
  <speed>0.7140028011149536</speed>
  <fix>3d</fix>
</trkpt>
<trkpt lat="33.8098156" lon="-118.3940126">
  <ele>-25.57</ele>
  <time>2026-09-01T01:17:13Z</time>
  <course>325.92</course>
  <speed>0.67</speed>
  <fix>3d</fix>
</trkpt>
<trkpt lat="33.8098173" lon="-118.3940144">
  <ele>-26.286</ele>
  <time>2026-09-01T01:17:13Z</time>
  <course>329.0</course>
  <speed>0.7220110802473879</speed>
  <fix>3d</fix>
</trkpt>
<trkpt lat="33.8098166" lon="-118.3940134">
  <ele>-25.6</ele>
  <time>2026-09-01T01:17:13Z</time>
  <course>325.79</course>
  <speed>0.67</speed>
  <fix>3d</fix>
</trkpt>
<trkpt lat="33.8098179" lon="-118.3940148">
  <ele>-26.301</ele>
  <time>2026-09-01T01:17:13Z</time>
  <course>328.88</course>
  <speed>0.7220110802473879</speed>
  <fix>3d</fix>
</trkpt>
<trkpt lat="33.8098166" lon="-118.3940134">
  <ele>-25.6</ele>
  <time>2026-09-01T01:17:13Z</time>
  <course>325.79</course>
  <speed>0.67</speed>
  <fix>3d</fix>
</trkpt>
<trkpt lat="33.8098184" lon="-118.3940152">
  <ele>-26.314</ele>
  <time>2026-09-01T01:17:13Z</time>
  <course>328.75</course>
  <speed>0.7220110802473879</speed>
  <fix>3d</fix>
</trkpt>
<trkpt lat="33.8098176" lon="-118.3940142">
  <ele>-25.63</ele>
  <time>2026-09-01T01:17:13Z</time>
  <course>325.67</course>
  <speed>0.68</speed>
  <fix>3d</fix>
</trkpt>
<trkpt lat="33.8098189" lon="-118.3940157">
  <ele>-26.329</ele>
  <time>2026-09-01T01:17:13Z</time>
  <course>328.63</course>
  <speed>0.7220110802473879</speed>
  <fix>3d</fix>
</trkpt>
<trkpt lat="33.8098176" lon="-118.3940142">
  <ele>-25.63</ele>
  <time>2026-09-01T01:17:13Z</time>
  <course>325.67</course>
  <speed>0.68</speed>
  <fix>3d</fix>
</trkpt>
<trkpt lat="33.8098194" lon="-118.3940161">
  <ele>-26.345</ele>
  <time>2026-09-01T01:17:13Z</time>
  <course>328.51</course>
  <speed>0.7220110802473879</speed>
  <fix>3d</fix>
</trkpt>
<trkpt lat="33.8098186" lon="-118.3940151">
  <ele>-25.66</ele>
  <time>2026-09-01T01:17:13Z</time>
  <course>325.55</course>
  <speed>0.68</speed>
  <fix>3d</fix>
</trkpt>
<trkpt lat="33.8098199" lon="-118.3940165">
  <ele>-26.361</ele>
  <time>2026-09-01T01:17:13Z</time>
  <course>328.4</course>
  <speed>0.7280109889280518</speed>
  <fix>3d</fix>
</trkpt>
<trkpt lat="33.8098186" lon="-118.3940151">
  <ele>-25.66</ele>
  <time>2026-09-01T01:17:13Z</time>
  <course>325.55</course>
  <speed>0.68</speed>
  <fix>3d</fix>
</trkpt>
<trkpt lat="33.8098204" lon="-118.3940169">
  <ele>-26.376</ele>
  <time>2026-09-01T01:17:13Z</time>
  <course>328.3</course>
  <speed>0.7280109889280518</speed>
  <fix>3d</fix>
</trkpt>
<trkpt lat="33.8098196" lon="-118.3940159">
  <ele>-25.69</ele>
  <time>2026-09-01T01:17:13Z</time>
  <course>325.47</course>
  <speed>0.69</speed>
  <fix>3d</fix>
</trkpt>
<trkpt lat="33.8098209" lon="-118.3940173">
  <ele>-26.393</ele>
  <time>2026-09-01T01:17:13Z</time>
  <course>328.21</course>
  <speed>0.7360027173862879</speed>
  <fix>3d</fix>
</trkpt>
<trkpt lat="33.8098196" lon="-118.3940159">
  <ele>-25.69</ele>
  <time>2026-09-01T01:17:13Z</time>
  <course>325.47</course>
  <speed>0.69</speed>
  <fix>3d</fix>
</trkpt>
<trkpt lat="33.8098214" lon="-118.3940178">
  <ele>-26.408</ele>
  <time>2026-09-01T01:17:13Z</time>
  <course>328.13</course>
  <speed>0.7360027173862879</speed>
  <fix>3d</fix>
</trkpt>
<trkpt lat="33.8098206" lon="-118.3940168">
  <ele>-25.72</ele>
  <time>2026-09-01T01:17:13Z</time>
  <course>325.45</course>
  <speed>0.69</speed>
  <fix>3d</fix>
</trkpt>
<trkpt lat="33.809822" lon="-118.3940182">
  <ele>-26.424</ele>
  <time>2026-09-01T01:17:13Z</time>
  <course>328.06</course>
  <speed>0.7360027173862879</speed>
  <fix>3d</fix>
</trkpt>
<trkpt lat="33.8098206" lon="-118.3940168">
  <ele>-25.72</ele>
  <time>2026-09-01T01:17:13Z</time>
  <course>325.45</course>
  <speed>0.69</speed>
  <fix>3d</fix>
</trkpt>
<trkpt lat="33.8098225" lon="-118.3940186">
  <ele>-26.44</ele>
  <time>2026-09-01T01:17:13Z</time>
  <course>328.0</course>
  <speed>0.7360027173862879</speed>
  <fix>3d</fix>
</trkpt>
<trkpt lat="33.8098217" lon="-118.3940176">
  <ele>-25.75</ele>
  <time>2026-09-01T01:17:13Z</time>
  <course>325.48</course>
  <speed>0.7</speed>
  <fix>3d</fix>
</trkpt>
<trkpt lat="33.809823" lon="-118.3940191">
  <ele>-26.456</ele>
  <time>2026-09-01T01:17:13Z</time>
  <course>327.95</course>
  <speed>0.7360027173862879</speed>
  <fix>3d</fix>
</trkpt>
<trkpt lat="33.8098217" lon="-118.3940176">
  <ele>-25.75</ele>
  <time>2026-09-01T01:17:13Z</time>
  <course>325.48</course>
  <speed>0.7</speed>
  <fix>3d</fix>
</trkpt>
<trkpt lat="33.8098235" lon="-118.3940195">
  <ele>-26.471</ele>
  <time>2026-09-01T01:17:13Z</time>
  <course>327.88</course>
  <speed>0.7360027173862879</speed>
  <fix>3d</fix>
</trkpt>
<trkpt lat="33.8098227" lon="-118.3940184">
  <ele>-25.78</ele>
  <time>2026-09-01T01:17:13Z</time>
  <course>325.48</course>
  <speed>0.7</speed>
  <fix>3d</fix>
</trkpt>
<trkpt lat="33.8098241" lon="-118.3940199">
  <ele>-26.486</ele>
  <time>2026-09-01T01:17:13Z</time>
  <course>327.8</course>
  <speed>0.75</speed>
  <fix>3d</fix>
</trkpt>
<trkpt lat="33.8098227" lon="-118.3940184">
  <ele>-25.78</ele>
  <time>2026-09-01T01:17:13Z</time>
  <course>325.48</course>
  <speed>0.7</speed>
  <fix>3d</fix>
</trkpt>
<trkpt lat="33.8098246" lon="-118.3940204">
  <ele>-26.502</ele>
  <time>2026-09-01T01:17:13Z</time>
  <course>327.7</course>
  <speed>0.75</speed>
  <fix>3d</fix>
</trkpt>
<trkpt lat="33.8098237" lon="-118.3940193">
  <ele>-25.81</ele>
  <time>2026-09-01T01:17:13Z</time>
  <course>325.41</course>
  <speed>0.71</speed>
  <fix>3d</fix>
</trkpt>
<trkpt lat="33.8098251" lon="-118.3940208">
  <ele>-26.517</ele>
  <time>2026-09-01T01:17:13Z</time>
  <course>327.59</course>
  <speed>0.75</speed>
  <fix>3d</fix>
</trkpt>
<trkpt lat="33.8098237" lon="-118.3940193">
  <ele>-25.81</ele>
  <time>2026-09-01T01:17:13Z</time>
  <course>325.41</course>
  <speed>0.71</speed>
  <fix>3d</fix>
</trkpt>
<trkpt lat="33.8098256" lon="-118.3940212">
  <ele>-26.532</ele>
  <time>2026-09-01T01:17:13Z</time>
  <course>327.51</course>
  <speed>0.75</speed>
  <fix>3d</fix>
</trkpt>
<trkpt lat="33.8098248" lon="-118.3940202">
  <ele>-25.85</ele>
  <time>2026-09-01T01:17:13Z</time>
  <course>325.35</course>
  <speed>0.71</speed>
  <fix>3d</fix>
</trkpt>
<trkpt lat="33.8098261" lon="-118.3940217">
  <ele>-26.548</ele>
  <time>2026-09-01T01:17:13Z</time>
  <course>327.43</course>
  <speed>0.75</speed>
  <fix>3d</fix>
</trkpt>
<trkpt lat="33.8098248" lon="-118.3940202">
  <ele>-25.85</ele>
  <time>2026-09-01T01:17:13Z</time>
  <course>325.35</course>
  <speed>0.71</speed>
  <fix>3d</fix>
</trkpt>
<trkpt lat="33.8098267" lon="-118.3940221">
  <ele>-26.564</ele>
  <time>2026-09-01T01:17:13Z</time>
  <course>327.35</course>
  <speed>0.75</speed>
  <fix>3d</fix>
</trkpt>
<trkpt lat="33.8098259" lon="-118.3940211">
  <ele>-25.88</ele>
  <time>2026-09-01T01:17:13Z</time>
  <course>325.32</course>
  <speed>0.72</speed>
  <fix>3d</fix>
</trkpt>
<trkpt lat="33.8098272" lon="-118.3940226">
  <ele>-26.58</ele>
  <time>2026-09-01T01:17:13Z</time>
  <course>327.29</course>
  <speed>0.75</speed>
  <fix>3d</fix>
</trkpt>
<trkpt lat="33.8098259" lon="-118.3940211">
  <ele>-25.88</ele>
  <time>2026-09-01T01:17:13Z</time>
  <course>325.32</course>
  <speed>0.72</speed>
  <fix>3d</fix>
</trkpt>
<trkpt lat="33.8098277" lon="-118.394023">
  <ele>-26.597</ele>
  <time>2026-09-01T01:17:13Z</time>
  <course>327.22</course>
  <speed>0.758023746329889</speed>
  <fix>3d</fix>
</trkpt>
<trkpt lat="33.8098269" lon="-118.394022">
  <ele>-25.91</ele>
  <time>2026-09-01T01:17:13Z</time>
  <course>325.31</course>
  <speed>0.72</speed>
  <fix>3d</fix>
</trkpt>
<trkpt lat="33.8098283" lon="-118.3940235">
  <ele>-26.614</ele>
  <time>2026-09-01T01:17:13Z</time>
  <course>327.16</course>
  <speed>0.7640026177965623</speed>
  <fix>3d</fix>
</trkpt>
<trkpt lat="33.8098269" lon="-118.394022">
  <ele>-25.91</ele>
  <time>2026-09-01T01:17:13Z</time>
  <course>325.31</course>
  <speed>0.72</speed>
  <fix>3d</fix>
</trkpt>
<trkpt lat="33.8098288" lon="-118.3940239">
  <ele>-26.631</ele>
  <time>2026-09-01T01:17:13Z</time>
  <course>327.1</course>
  <speed>0.7640026177965623</speed>
  <fix>3d</fix>
</trkpt>
<trkpt lat="33.809828" lon="-118.3940229">
  <ele>-25.94</ele>
  <time>2026-09-01T01:17:13Z</time>
  <course>325.35</course>
  <speed>0.73</speed>
  <fix>3d</fix>
</trkpt>
<trkpt lat="33.8098294" lon="-118.3940244">
  <ele>-26.647</ele>
  <time>2026-09-01T01:17:13Z</time>
  <course>327.06</course>
  <speed>0.7640026177965623</speed>
  <fix>3d</fix>
</trkpt>
<trkpt lat="33.809828" lon="-118.3940229">
  <ele>-25.94</ele>
  <time>2026-09-01T01:17:13Z</time>
  <course>325.35</course>
  <speed>0.73</speed>
  <fix>3d</fix>
</trkpt>
<trkpt lat="33.8098299" lon="-118.3940248">
  <ele>-26.663</ele>
  <time>2026-09-01T01:17:13Z</time>
  <course>327.02</course>
  <speed>0.7640026177965623</speed>
  <fix>3d</fix>
</trkpt>
<trkpt lat="33.8098291" lon="-118.3940238">
  <ele>-25.97</ele>
  <time>2026-09-01T01:17:13Z</time>
  <course>325.39</course>
  <speed>0.73</speed>
  <fix>3d</fix>
</trkpt>
<trkpt lat="33.8098304" lon="-118.3940253">
  <ele>-26.679</ele>
  <time>2026-09-01T01:17:13Z</time>
  <course>326.98</course>
  <speed>0.7640026177965623</speed>
  <fix>3d</fix>
</trkpt>
<trkpt lat="33.8098291" lon="-118.3940238">
  <ele>-25.97</ele>
  <time>2026-09-01T01:17:13Z</time>
  <course>325.39</course>
  <speed>0.73</speed>
  <fix>3d</fix>
</trkpt>
<trkpt lat="33.809831" lon="-118.3940257">
  <ele>-26.695</ele>
  <time>2026-09-01T01:17:13Z</time>
  <course>326.93</course>
  <speed>0.7640026177965623</speed>
  <fix>3d</fix>
</trkpt>
<trkpt lat="33.8098302" lon="-118.3940247">
  <ele>-26.0</ele>
  <time>2026-09-01T01:17:13Z</time>
  <course>325.42</course>
  <speed>0.73</speed>
  <fix>3d</fix>
</trkpt>
<trkpt lat="33.8098315" lon="-118.3940262">
  <ele>-26.71</ele>
  <time>2026-09-01T01:17:13Z</time>
  <course>326.88</course>
  <speed>0.7640026177965623</speed>
  <fix>3d</fix>
</trkpt>
<trkpt lat="33.8098302" lon="-118.3940247">
  <ele>-26.0</ele>
  <time>2026-09-01T01:17:13Z</time>
  <course>325.42</course>
  <speed>0.73</speed>
  <fix>3d</fix>
</trkpt>
<trkpt lat="33.8098321" lon="-118.3940266">
  <ele>-26.725</ele>
  <time>2026-09-01T01:17:13Z</time>
  <course>326.83</course>
  <speed>0.7640026177965623</speed>
  <fix>3d</fix>
</trkpt>
<trkpt lat="33.8098313" lon="-118.3940256">
  <ele>-26.04</ele>
  <time>2026-09-01T01:17:13Z</time>
  <course>325.45</course>
  <speed>0.74</speed>
  <fix>3d</fix>
</trkpt>
<trkpt lat="33.8098326" lon="-118.3940271">
  <ele>-26.74</ele>
  <time>2026-09-01T01:17:13Z</time>
  <course>326.78</course>
  <speed>0.7640026177965623</speed>
  <fix>3d</fix>
</trkpt>
<trkpt lat="33.8098313" lon="-118.3940256">
  <ele>-26.04</ele>
  <time>2026-09-01T01:17:13Z</time>
  <course>325.45</course>
  <speed>0.74</speed>
  <fix>3d</fix>
</trkpt>
<trkpt lat="33.8098332" lon="-118.3940275">
  <ele>-26.754</ele>
  <time>2026-09-01T01:17:13Z</time>
  <course>326.71</course>
  <speed>0.7720103626247513</speed>
  <fix>3d</fix>
</trkpt>
<trkpt lat="33.8098323" lon="-118.3940265">
  <ele>-26.07</ele>
  <time>2026-09-01T01:17:13Z</time>
  <course>325.45</course>
  <speed>0.74</speed>
  <fix>3d</fix>
</trkpt>
<trkpt lat="33.8098337" lon="-118.394028">
  <ele>-26.768</ele>
  <time>2026-09-01T01:17:13Z</time>
  <course>326.65</course>
  <speed>0.7720103626247513</speed>
  <fix>3d</fix>
</trkpt>
<trkpt lat="33.8098323" lon="-118.3940265">
  <ele>-26.07</ele>
  <time>2026-09-01T01:17:13Z</time>
  <course>325.45</course>
  <speed>0.74</speed>
  <fix>3d</fix>
</trkpt>
<trkpt lat="33.8098343" lon="-118.3940285">
  <ele>-26.784</ele>
  <time>2026-09-01T01:17:13Z</time>
  <course>326.59</course>
  <speed>0.7720103626247513</speed>
  <fix>3d</fix>
</trkpt>
<trkpt lat="33.8098334" lon="-118.3940274">
  <ele>-26.1</ele>
  <time>2026-09-01T01:17:13Z</time>
  <course>325.45</course>
  <speed>0.74</speed>
  <fix>3d</fix>
</trkpt>
<trkpt lat="33.8098348" lon="-118.3940289">
  <ele>-26.801</ele>
  <time>2026-09-01T01:17:13Z</time>
  <course>326.55</course>
  <speed>0.7780102827083971</speed>
  <fix>3d</fix>
</trkpt>
<trkpt lat="33.8098334" lon="-118.3940274">
  <ele>-26.1</ele>
  <time>2026-09-01T01:17:13Z</time>
  <course>325.45</course>
  <speed>0.74</speed>
  <fix>3d</fix>
</trkpt>
<trkpt lat="33.8098354" lon="-118.3940294">
  <ele>-26.818</ele>
  <time>2026-09-01T01:17:13Z</time>
  <course>326.5</course>
  <speed>0.7780102827083971</speed>
  <fix>3d</fix>
</trkpt>
<trkpt lat="33.8098346" lon="-118.3940283">
  <ele>-26.13</ele>
  <time>2026-09-01T01:17:13Z</time>
  <course>325.49</course>
  <speed>0.75</speed>
  <fix>3d</fix>
</trkpt>
<trkpt lat="33.8098359" lon="-118.3940298">
  <ele>-26.837</ele>
  <time>2026-09-01T01:17:13Z</time>
  <course>326.45</course>
  <speed>0.7780102827083971</speed>
  <fix>3d</fix>
</trkpt>
<trkpt lat="33.8098346" lon="-118.3940283">
  <ele>-26.13</ele>
  <time>2026-09-01T01:17:13Z</time>
  <course>325.49</course>
  <speed>0.75</speed>
  <fix>3d</fix>
</trkpt>
<trkpt lat="33.8098365" lon="-118.3940303">
  <ele>-26.855</ele>
  <time>2026-09-01T01:17:13Z</time>
  <course>326.38</course>
  <speed>0.7780102827083971</speed>
  <fix>3d</fix>
</trkpt>
<trkpt lat="33.8098357" lon="-118.3940293">
  <ele>-26.17</ele>
  <time>2026-09-01T01:17:13Z</time>
  <course>325.48</course>
  <speed>0.75</speed>
  <fix>3d</fix>
</trkpt>
<trkpt lat="33.8098371" lon="-118.3940308">
  <ele>-26.874</ele>
  <time>2026-09-01T01:17:13Z</time>
  <course>326.31</course>
  <speed>0.7780102827083971</speed>
  <fix>3d</fix>
</trkpt>
<trkpt lat="33.8098357" lon="-118.3940293">
  <ele>-26.17</ele>
  <time>2026-09-01T01:17:13Z</time>
  <course>325.48</course>
  <speed>0.75</speed>
  <fix>3d</fix>
</trkpt>
<trkpt lat="33.8098376" lon="-118.3940312">
  <ele>-26.892</ele>
  <time>2026-09-01T01:17:13Z</time>
  <course>326.23</course>
  <speed>0.7860025445251434</speed>
  <fix>3d</fix>
</trkpt>
<trkpt lat="33.8098368" lon="-118.3940302">
  <ele>-26.2</ele>
  <time>2026-09-01T01:17:13Z</time>
  <course>325.45</course>
  <speed>0.75</speed>
  <fix>3d</fix>
</trkpt>
<trkpt lat="33.8098382" lon="-118.3940317">
  <ele>-26.911</ele>
  <time>2026-09-01T01:17:13Z</time>
  <course>326.17</course>
  <speed>0.7860025445251434</speed>
  <fix>3d</fix>
</trkpt>
<trkpt lat="33.8098368" lon="-118.3940302">
  <ele>-26.2</ele>
  <time>2026-09-01T01:17:13Z</time>
  <course>325.45</course>
  <speed>0.75</speed>
  <fix>3d</fix>
</trkpt>
<trkpt lat="33.8098387" lon="-118.3940322">
  <ele>-26.93</ele>
  <time>2026-09-01T01:17:13Z</time>
  <course>326.11</course>
  <speed>0.7860025445251434</speed>
  <fix>3d</fix>
</trkpt>
<trkpt lat="33.8098379" lon="-118.3940311">
  <ele>-26.23</ele>
  <time>2026-09-01T01:17:13Z</time>
  <course>325.44</course>
  <speed>0.76</speed>
  <fix>3d</fix>
</trkpt>
<trkpt lat="33.8098393" lon="-118.3940327">
  <ele>-26.949</ele>
  <time>2026-09-01T01:17:13Z</time>
  <course>326.07</course>
  <speed>0.7920227269466451</speed>
  <fix>3d</fix>
</trkpt>
<trkpt lat="33.8098379" lon="-118.3940311">
  <ele>-26.23</ele>
  <time>2026-09-01T01:17:13Z</time>
  <course>325.44</course>
  <speed>0.76</speed>
  <fix>3d</fix>
</trkpt>
<trkpt lat="33.8098399" lon="-118.3940331">
  <ele>-26.966</ele>
  <time>2026-09-01T01:17:13Z</time>
  <course>326.01</course>
  <speed>0.7920227269466451</speed>
  <fix>3d</fix>
</trkpt>
<trkpt lat="33.8098391" lon="-118.3940321">
  <ele>-26.27</ele>
  <time>2026-09-01T01:17:13Z</time>
  <course>325.43</course>
  <speed>0.76</speed>
  <fix>3d</fix>
</trkpt>
<trkpt lat="33.8098404" lon="-118.3940336">
  <ele>-26.981</ele>
  <time>2026-09-01T01:17:13Z</time>
  <course>325.95</course>
  <speed>0.7920227269466451</speed>
  <fix>3d</fix>
</trkpt>
<trkpt lat="33.8098391" lon="-118.3940321">
  <ele>-26.27</ele>
  <time>2026-09-01T01:17:13Z</time>
  <course>325.43</course>
  <speed>0.76</speed>
  <fix>3d</fix>
</trkpt>
<trkpt lat="33.809841" lon="-118.3940341">
  <ele>-26.997</ele>
  <time>2026-09-01T01:17:13Z</time>
  <course>325.89</course>
  <speed>0.7920227269466451</speed>
  <fix>3d</fix>
</trkpt>
<trkpt lat="33.8098402" lon="-118.394033">
  <ele>-26.3</ele>
  <time>2026-09-01T01:17:13Z</time>
  <course>325.42</course>
  <speed>0.76</speed>
  <fix>3d</fix>
</trkpt>
<trkpt lat="33.8098416" lon="-118.3940345">
  <ele>-27.013</ele>
  <time>2026-09-01T01:17:13Z</time>
  <course>325.84</course>
  <speed>0.7920227269466451</speed>
  <fix>3d</fix>
</trkpt>
<trkpt lat="33.8098402" lon="-118.394033">
  <ele>-26.3</ele>
  <time>2026-09-01T01:17:13Z</time>
  <course>325.42</course>
  <speed>0.76</speed>
  <fix>3d</fix>
</trkpt>
<trkpt lat="33.8098421" lon="-118.394035">
  <ele>-27.029</ele>
  <time>2026-09-01T01:17:13Z</time>
  <course>325.77</course>
  <speed>0.7920227269466451</speed>
  <fix>3d</fix>
</trkpt>
<trkpt lat="33.8098413" lon="-118.3940339">
  <ele>-26.33</ele>
  <time>2026-09-01T01:17:13Z</time>
  <course>325.4</course>
  <speed>0.76</speed>
  <fix>3d</fix>
</trkpt>
<trkpt lat="33.8098427" lon="-118.3940355">
  <ele>-27.045</ele>
  <time>2026-09-01T01:17:13Z</time>
  <course>325.71</course>
  <speed>0.8</speed>
  <fix>3d</fix>
</trkpt>
<trkpt lat="33.8098413" lon="-118.3940339">
  <ele>-26.33</ele>
  <time>2026-09-01T01:17:13Z</time>
  <course>325.4</course>
  <speed>0.76</speed>
  <fix>3d</fix>
</trkpt>
<trkpt lat="33.8098433" lon="-118.394036">
  <ele>-27.061</ele>
  <time>2026-09-01T01:17:13Z</time>
  <course>325.64</course>
  <speed>0.8</speed>
  <fix>3d</fix>
</trkpt>
<trkpt lat="33.8098425" lon="-118.3940349">
  <ele>-26.36</ele>
  <time>2026-09-01T01:17:13Z</time>
  <course>325.37</course>
  <speed>0.77</speed>
  <fix>3d</fix>
</trkpt>
<trkpt lat="33.8098438" lon="-118.3940364">
  <ele>-27.076</ele>
  <time>2026-09-01T01:17:13Z</time>
  <course>325.58</course>
  <speed>0.8</speed>
  <fix>3d</fix>
</trkpt>
<trkpt lat="33.8098425" lon="-118.3940349">
  <ele>-26.36</ele>
  <time>2026-09-01T01:17:13Z</time>
  <course>325.37</course>
  <speed>0.77</speed>
  <fix>3d</fix>
</trkpt>
<trkpt lat="33.8098444" lon="-118.3940369">
  <ele>-27.091</ele>
  <time>2026-09-01T01:17:13Z</time>
  <course>325.51</course>
  <speed>0.8</speed>
  <fix>3d</fix>
</trkpt>
<trkpt lat="33.8098436" lon="-118.3940358">
  <ele>-26.4</ele>
  <time>2026-09-01T01:17:13Z</time>
  <course>325.33</course>
  <speed>0.77</speed>
  <fix>3d</fix>
</trkpt>
<trkpt lat="33.809845" lon="-118.3940374">
  <ele>-27.107</ele>
  <time>2026-09-01T01:17:13Z</time>
  <course>325.44</course>
  <speed>0.8060397012554654</speed>
  <fix>3d</fix>
</trkpt>
<trkpt lat="33.8098436" lon="-118.3940358">
  <ele>-26.4</ele>
  <time>2026-09-01T01:17:13Z</time>
  <course>325.33</course>
  <speed>0.77</speed>
  <fix>3d</fix>
</trkpt>
<trkpt lat="33.8098456" lon="-118.3940379">
  <ele>-27.124</ele>
  <time>2026-09-01T01:17:13Z</time>
  <course>325.38</course>
  <speed>0.8060397012554654</speed>
  <fix>3d</fix>
</trkpt>
<trkpt lat="33.8098448" lon="-118.3940368">
  <ele>-26.43</ele>
  <time>2026-09-01T01:17:13Z</time>
  <course>325.27</course>
  <speed>0.77</speed>
  <fix>3d</fix>
</trkpt>
<trkpt lat="33.8098462" lon="-118.3940384">
  <ele>-27.141</ele>
  <time>2026-09-01T01:17:13Z</time>
  <course>325.31</course>
  <speed>0.8060397012554654</speed>
  <fix>3d</fix>
</trkpt>
<trkpt lat="33.8098448" lon="-118.3940368">
  <ele>-26.43</ele>
  <time>2026-09-01T01:17:13Z</time>
  <course>325.27</course>
  <speed>0.77</speed>
  <fix>3d</fix>
</trkpt>
<trkpt lat="33.8098467" lon="-118.3940389">
  <ele>-27.158</ele>
  <time>2026-09-01T01:17:13Z</time>
  <course>325.25</course>
  <speed>0.8060397012554654</speed>
  <fix>3d</fix>
</trkpt>
<trkpt lat="33.8098459" lon="-118.3940378">
  <ele>-26.46</ele>
  <time>2026-09-01T01:17:13Z</time>
  <course>325.22</course>
  <speed>0.78</speed>
  <fix>3d</fix>
</trkpt>
<trkpt lat="33.8098473" lon="-118.3940393">
  <ele>-27.176</ele>
  <time>2026-09-01T01:17:13Z</time>
  <course>325.2</course>
  <speed>0.8060397012554654</speed>
  <fix>3d</fix>
</trkpt>
<trkpt lat="33.8098459" lon="-118.3940378">
  <ele>-26.46</ele>
  <time>2026-09-01T01:17:13Z</time>
  <course>325.22</course>
  <speed>0.78</speed>
  <fix>3d</fix>
</trkpt>
<trkpt lat="33.8098479" lon="-118.3940398">
  <ele>-27.194</ele>
  <time>2026-09-01T01:17:13Z</time>
  <course>325.15</course>
  <speed>0.8060397012554654</speed>
  <fix>3d</fix>
</trkpt>
<trkpt lat="33.8098471" lon="-118.3940387">
  <ele>-26.5</ele>
  <time>2026-09-01T01:17:13Z</time>
  <course>325.21</course>
  <speed>0.78</speed>
  <fix>3d</fix>
</trkpt>
<trkpt lat="33.8098485" lon="-118.3940403">
  <ele>-27.212</ele>
  <time>2026-09-01T01:17:13Z</time>
  <course>325.11</course>
  <speed>0.8140024569987488</speed>
  <fix>3d</fix>
</trkpt>
<trkpt lat="33.8098471" lon="-118.3940387">
  <ele>-26.5</ele>
  <time>2026-09-01T01:17:13Z</time>
  <course>325.21</course>
  <speed>0.78</speed>
  <fix>3d</fix>
</trkpt>
<trkpt lat="33.8098491" lon="-118.3940408">
  <ele>-27.232</ele>
  <time>2026-09-01T01:17:13Z</time>
  <course>325.06</course>
  <speed>0.8140024569987488</speed>
  <fix>3d</fix>
</trkpt>
<trkpt lat="33.8098482" lon="-118.3940397">
  <ele>-26.53</ele>
  <time>2026-09-01T01:17:13Z</time>
  <course>325.21</course>
  <speed>0.78</speed>
  <fix>3d</fix>
</trkpt>
<trkpt lat="33.8098496" lon="-118.3940413">
  <ele>-27.252</ele>
  <time>2026-09-01T01:17:13Z</time>
  <course>325.01</course>
  <speed>0.8140024569987488</speed>
  <fix>3d</fix>
</trkpt>
<trkpt lat="33.8098482" lon="-118.3940397">
  <ele>-26.53</ele>
  <time>2026-09-01T01:17:13Z</time>
  <course>325.21</course>
  <speed>0.78</speed>
  <fix>3d</fix>
</trkpt>
<trkpt lat="33.8098502" lon="-118.3940418">
  <ele>-27.272</ele>
  <time>2026-09-01T01:17:13Z</time>
  <course>324.97</course>
  <speed>0.8140024569987488</speed>
  <fix>3d</fix>
</trkpt>
<trkpt lat="33.8098494" lon="-118.3940407">
  <ele>-26.57</ele>
  <time>2026-09-01T01:17:13Z</time>
  <course>325.19</course>
  <speed>0.79</speed>
  <fix>3d</fix>
</trkpt>
<trkpt lat="33.8098508" lon="-118.3940423">
  <ele>-27.291</ele>
  <time>2026-09-01T01:17:13Z</time>
  <course>324.93</course>
  <speed>0.8200609733428362</speed>
  <fix>3d</fix>
</trkpt>
<trkpt lat="33.8098494" lon="-118.3940407">
  <ele>-26.57</ele>
  <time>2026-09-01T01:17:13Z</time>
  <course>325.19</course>
  <speed>0.79</speed>
  <fix>3d</fix>
</trkpt>
<trkpt lat="33.8098514" lon="-118.3940428">
  <ele>-27.309</ele>
  <time>2026-09-01T01:17:13Z</time>
  <course>324.89</course>
  <speed>0.8200609733428362</speed>
  <fix>3d</fix>
</trkpt>
<trkpt lat="33.8098506" lon="-118.3940417">
  <ele>-26.6</ele>
  <time>2026-09-01T01:17:13Z</time>
  <course>325.2</course>
  <speed>0.79</speed>
  <fix>3d</fix>
</trkpt>
<trkpt lat="33.809852" lon="-118.3940433">
  <ele>-27.325</ele>
  <time>2026-09-01T01:17:13Z</time>
  <course>324.86</course>
  <speed>0.8200609733428362</speed>
  <fix>3d</fix>
</trkpt>
<trkpt lat="33.8098506" lon="-118.3940417">
  <ele>-26.6</ele>
  <time>2026-09-01T01:17:13Z</time>
  <course>325.2</course>
  <speed>0.79</speed>
  <fix>3d</fix>
</trkpt>
<trkpt lat="33.8098526" lon="-118.3940438">
  <ele>-27.342</ele>
  <time>2026-09-01T01:17:13Z</time>
  <course>324.83</course>
  <speed>0.8200609733428362</speed>
  <fix>3d</fix>
</trkpt>
<trkpt lat="33.8098517" lon="-118.3940427">
  <ele>-26.64</ele>
  <time>2026-09-01T01:17:13Z</time>
  <course>325.21</course>
  <speed>0.79</speed>
  <fix>3d</fix>
</trkpt>
<trkpt lat="33.8098532" lon="-118.3940443">
  <ele>-27.359</ele>
  <time>2026-09-01T01:17:13Z</time>
  <course>324.81</course>
  <speed>0.8280096617793781</speed>
  <fix>3d</fix>
</trkpt>
<trkpt lat="33.8098517" lon="-118.3940427">
  <ele>-26.64</ele>
  <time>2026-09-01T01:17:13Z</time>
  <course>325.21</course>
  <speed>0.79</speed>
  <fix>3d</fix>
</trkpt>
<trkpt lat="33.8098538" lon="-118.3940448">
  <ele>-27.376</ele>
  <time>2026-09-01T01:17:13Z</time>
  <course>324.79</course>
  <speed>0.8280096617793781</speed>
  <fix>3d</fix>
</trkpt>
<trkpt lat="33.8098529" lon="-118.3940436">
  <ele>-26.67</ele>
  <time>2026-09-01T01:17:13Z</time>
  <course>325.23</course>
  <speed>0.79</speed>
  <fix>3d</fix>
</trkpt>
<trkpt lat="33.8098543" lon="-118.3940453">
  <ele>-27.392</ele>
  <time>2026-09-01T01:17:13Z</time>
  <course>324.77</course>
  <speed>0.8280096617793781</speed>
  <fix>3d</fix>
</trkpt>
<trkpt lat="33.8098529" lon="-118.3940436">
  <ele>-26.67</ele>
  <time>2026-09-01T01:17:13Z</time>
  <course>325.23</course>
  <speed>0.79</speed>
  <fix>3d</fix>
</trkpt>
<trkpt lat="33.8098549" lon="-118.3940458">
  <ele>-27.411</ele>
  <time>2026-09-01T01:17:13Z</time>
  <course>324.74</course>
  <speed>0.8280096617793781</speed>
  <fix>3d</fix>
</trkpt>
<trkpt lat="33.809854" lon="-118.3940446">
  <ele>-26.71</ele>
  <time>2026-09-01T01:17:13Z</time>
  <course>325.25</course>
  <speed>0.8</speed>
  <fix>3d</fix>
</trkpt>
<trkpt lat="33.8098555" lon="-118.3940463">
  <ele>-27.429</ele>
  <time>2026-09-01T01:17:13Z</time>
  <course>324.71</course>
  <speed>0.8280096617793781</speed>
  <fix>3d</fix>
</trkpt>
<trkpt lat="33.809854" lon="-118.3940446">
  <ele>-26.71</ele>
  <time>2026-09-01T01:17:13Z</time>
  <course>325.25</course>
  <speed>0.8</speed>
  <fix>3d</fix>
</trkpt>
<trkpt lat="33.8098561" lon="-118.3940468">
  <ele>-27.447</ele>
  <time>2026-09-01T01:17:13Z</time>
  <course>324.67</course>
  <speed>0.8280096617793781</speed>
  <fix>3d</fix>
</trkpt>
<trkpt lat="33.8098552" lon="-118.3940456">
  <ele>-26.74</ele>
  <time>2026-09-01T01:17:13Z</time>
  <course>325.24</course>
  <speed>0.8</speed>
  <fix>3d</fix>
</trkpt>
<trkpt lat="33.8098567" lon="-118.3940473">
  <ele>-27.466</ele>
  <time>2026-09-01T01:17:13Z</time>
  <course>324.64</course>
  <speed>0.8420213774008353</speed>
  <fix>3d</fix>
</trkpt>
<trkpt lat="33.8098552" lon="-118.3940456">
  <ele>-26.74</ele>
  <time>2026-09-01T01:17:13Z</time>
  <course>325.24</course>
  <speed>0.8</speed>
  <fix>3d</fix>
</trkpt>
<trkpt lat="33.8098573" lon="-118.3940478">
  <ele>-27.485</ele>
  <time>2026-09-01T01:17:13Z</time>
  <course>324.62</course>
  <speed>0.8420213774008353</speed>
  <fix>3d</fix>
</trkpt>
<trkpt lat="33.8098564" lon="-118.3940466">
  <ele>-26.77</ele>
  <time>2026-09-01T01:17:13Z</time>
  <course>325.25</course>
  <speed>0.81</speed>
  <fix>3d</fix>
</trkpt>
<trkpt lat="33.8098579" lon="-118.3940483">
  <ele>-27.504</ele>
  <time>2026-09-01T01:17:13Z</time>
  <course>324.59</course>
  <speed>0.8420213774008353</speed>
  <fix>3d</fix>
</trkpt>
<trkpt lat="33.8098564" lon="-118.3940466">
  <ele>-26.77</ele>
  <time>2026-09-01T01:17:13Z</time>
  <course>325.25</course>
  <speed>0.81</speed>
  <fix>3d</fix>
</trkpt>
<trkpt lat="33.8098585" lon="-118.3940488">
  <ele>-27.523</ele>
  <time>2026-09-01T01:17:13Z</time>
  <course>324.57</course>
  <speed>0.8420213774008353</speed>
  <fix>3d</fix>
</trkpt>
<trkpt lat="33.8098576" lon="-118.3940476">
  <ele>-26.81</ele>
  <time>2026-09-01T01:17:13Z</time>
  <course>325.26</course>
  <speed>0.81</speed>
  <fix>3d</fix>
</trkpt>
<trkpt lat="33.8098591" lon="-118.3940493">
  <ele>-27.542</ele>
  <time>2026-09-01T01:17:13Z</time>
  <course>324.55</course>
  <speed>0.8420213774008353</speed>
  <fix>3d</fix>
</trkpt>
<trkpt lat="33.8098576" lon="-118.3940476">
  <ele>-26.81</ele>
  <time>2026-09-01T01:17:13Z</time>
  <course>325.26</course>
  <speed>0.81</speed>
  <fix>3d</fix>
</trkpt>
<trkpt lat="33.8098597" lon="-118.3940498">
  <ele>-27.561</ele>
  <time>2026-09-01T01:17:13Z</time>
  <course>324.51</course>
  <speed>0.8420213774008353</speed>
  <fix>3d</fix>
</trkpt>
<trkpt lat="33.8098589" lon="-118.3940486">
  <ele>-26.85</ele>
  <time>2026-09-01T01:17:13Z</time>
  <course>325.26</course>
  <speed>0.82</speed>
  <fix>3d</fix>
</trkpt>
<trkpt lat="33.8098603" lon="-118.3940503">
  <ele>-27.578</ele>
  <time>2026-09-01T01:17:13Z</time>
  <course>324.46</course>
  <speed>0.8420213774008353</speed>
  <fix>3d</fix>
</trkpt>
<trkpt lat="33.8098589" lon="-118.3940486">
  <ele>-26.85</ele>
  <time>2026-09-01T01:17:13Z</time>
  <course>325.26</course>
  <speed>0.82</speed>
  <fix>3d</fix>
</trkpt>
<trkpt lat="33.8098609" lon="-118.3940508">
  <ele>-27.596</ele>
  <time>2026-09-01T01:17:13Z</time>
  <course>324.41</course>
  <speed>0.8420213774008353</speed>
  <fix>3d</fix>
</trkpt>
<trkpt lat="33.8098601" lon="-118.3940496">
  <ele>-26.88</ele>
  <time>2026-09-01T01:17:13Z</time>
  <course>325.2</course>
  <speed>0.82</speed>
  <fix>3d</fix>
</trkpt>
<trkpt lat="33.8098615" lon="-118.3940513">
  <ele>-27.614</ele>
  <time>2026-09-01T01:17:13Z</time>
  <course>324.35</course>
  <speed>0.8420213774008353</speed>
  <fix>3d</fix>
</trkpt>
<trkpt lat="33.8098601" lon="-118.3940496">
  <ele>-26.88</ele>
  <time>2026-09-01T01:17:13Z</time>
  <course>325.2</course>
  <speed>0.82</speed>
  <fix>3d</fix>
</trkpt>
<trkpt lat="33.8098621" lon="-118.3940518">
  <ele>-27.633</ele>
  <time>2026-09-01T01:17:13Z</time>
  <course>324.28</course>
  <speed>0.8420213774008353</speed>
  <fix>3d</fix>
</trkpt>
<trkpt lat="33.8098613" lon="-118.3940507">
  <ele>-26.92</ele>
  <time>2026-09-01T01:17:13Z</time>
  <course>325.1</course>
  <speed>0.82</speed>
  <fix>3d</fix>
</trkpt>
<trkpt lat="33.8098627" lon="-118.3940523">
  <ele>-27.653</ele>
  <time>2026-09-01T01:17:13Z</time>
  <course>324.22</course>
  <speed>0.8560373823613078</speed>
  <fix>3d</fix>
</trkpt>
<trkpt lat="33.8098613" lon="-118.3940507">
  <ele>-26.92</ele>
  <time>2026-09-01T01:17:13Z</time>
  <course>325.1</course>
  <speed>0.82</speed>
  <fix>3d</fix>
</trkpt>
<trkpt lat="33.8098634" lon="-118.3940528">
  <ele>-27.673</ele>
  <time>2026-09-01T01:17:14Z</time>
  <course>324.18</course>
  <speed>0.8560373823613078</speed>
  <fix>3d</fix>
</trkpt>
<trkpt lat="33.8098625" lon="-118.3940517">
  <ele>-26.95</ele>
  <time>2026-09-01T01:17:14Z</time>
  <course>325.03</course>
  <speed>0.82</speed>
  <fix>3d</fix>
</trkpt>
<trkpt lat="33.809864" lon="-118.3940534">
  <ele>-27.693</ele>
  <time>2026-09-01T01:17:14Z</time>
  <course>324.15</course>
  <speed>0.8560373823613078</speed>
  <fix>3d</fix>
</trkpt>
<trkpt lat="33.8098625" lon="-118.3940517">
  <ele>-26.95</ele>
  <time>2026-09-01T01:17:14Z</time>
  <course>325.03</course>
  <speed>0.82</speed>
  <fix>3d</fix>
</trkpt>
<trkpt lat="33.8098646" lon="-118.3940539">
  <ele>-27.713</ele>
  <time>2026-09-01T01:17:14Z</time>
  <course>324.11</course>
  <speed>0.8560373823613078</speed>
  <fix>3d</fix>
</trkpt>
<trkpt lat="33.8098637" lon="-118.3940527">
  <ele>-26.99</ele>
  <time>2026-09-01T01:17:14Z</time>
  <course>325.03</course>
  <speed>0.83</speed>
  <fix>3d</fix>
</trkpt>
<trkpt lat="33.8098652" lon="-118.3940544">
  <ele>-27.733</ele>
  <time>2026-09-01T01:17:14Z</time>
  <course>324.1</course>
  <speed>0.8560373823613078</speed>
  <fix>3d</fix>
</trkpt>
<trkpt lat="33.8098637" lon="-118.3940527">
  <ele>-26.99</ele>
  <time>2026-09-01T01:17:14Z</time>
  <course>325.03</course>
  <speed>0.83</speed>
  <fix>3d</fix>
</trkpt>
<trkpt lat="33.8098658" lon="-118.3940549">
  <ele>-27.752</ele>
  <time>2026-09-01T01:17:14Z</time>
  <course>324.07</course>
  <speed>0.8560373823613078</speed>
  <fix>3d</fix>
</trkpt>
<trkpt lat="33.809865" lon="-118.3940537">
  <ele>-27.02</ele>
  <time>2026-09-01T01:17:14Z</time>
  <course>325.03</course>
  <speed>0.83</speed>
  <fix>3d</fix>
</trkpt>
<trkpt lat="33.8098664" lon="-118.3940554">
  <ele>-27.77</ele>
  <time>2026-09-01T01:17:14Z</time>
  <course>324.05</course>
  <speed>0.8560373823613078</speed>
  <fix>3d</fix>
</trkpt>
<trkpt lat="33.809865" lon="-118.3940537">
  <ele>-27.02</ele>
  <time>2026-09-01T01:17:14Z</time>
  <course>325.03</course>
  <speed>0.83</speed>
  <fix>3d</fix>
</trkpt>
<trkpt lat="33.809867" lon="-118.3940559">
  <ele>-27.787</ele>
  <time>2026-09-01T01:17:14Z</time>
  <course>324.01</course>
  <speed>0.8560373823613078</speed>
  <fix>3d</fix>
</trkpt>
<trkpt lat="33.8098662" lon="-118.3940548">
  <ele>-27.06</ele>
  <time>2026-09-01T01:17:14Z</time>
  <course>324.98</course>
  <speed>0.83</speed>
  <fix>3d</fix>
</trkpt>
<trkpt lat="33.8098677" lon="-118.3940565">
  <ele>-27.804</ele>
  <time>2026-09-01T01:17:14Z</time>
  <course>323.96</course>
  <speed>0.8560373823613078</speed>
  <fix>3d</fix>
</trkpt>
<trkpt lat="33.8098662" lon="-118.3940548">
  <ele>-27.06</ele>
  <time>2026-09-01T01:17:14Z</time>
  <course>324.98</course>
  <speed>0.83</speed>
  <fix>3d</fix>
</trkpt>
<trkpt lat="33.8098683" lon="-118.394057">
  <ele>-27.822</ele>
  <time>2026-09-01T01:17:14Z</time>
  <course>323.92</course>
  <speed>0.8560373823613078</speed>
  <fix>3d</fix>
</trkpt>
<trkpt lat="33.8098674" lon="-118.3940558">
  <ele>-27.1</ele>
  <time>2026-09-01T01:17:14Z</time>
  <course>324.92</course>
  <speed>0.83</speed>
  <fix>3d</fix>
</trkpt>
<trkpt lat="33.8098689" lon="-118.3940575">
  <ele>-27.838</ele>
  <time>2026-09-01T01:17:14Z</time>
  <course>323.9</course>
  <speed>0.8640023148117139</speed>
  <fix>3d</fix>
</trkpt>
<trkpt lat="33.8098674" lon="-118.3940558">
  <ele>-27.1</ele>
  <time>2026-09-01T01:17:14Z</time>
  <course>324.92</course>
  <speed>0.83</speed>
  <fix>3d</fix>
</trkpt>
<trkpt lat="33.8098695" lon="-118.394058">
  <ele>-27.855</ele>
  <time>2026-09-01T01:17:14Z</time>
  <course>323.87</course>
  <speed>0.8640023148117139</speed>
  <fix>3d</fix>
</trkpt>
<trkpt lat="33.8098686" lon="-118.3940568">
  <ele>-27.13</ele>
  <time>2026-09-01T01:17:14Z</time>
  <course>324.89</course>
  <speed>0.84</speed>
  <fix>3d</fix>
</trkpt>
<trkpt lat="33.8098701" lon="-118.3940586">
  <ele>-27.873</ele>
  <time>2026-09-01T01:17:14Z</time>
  <course>323.85</course>
  <speed>0.8700574693662483</speed>
  <fix>3d</fix>
</trkpt>
<trkpt lat="33.8098686" lon="-118.3940568">
  <ele>-27.13</ele>
  <time>2026-09-01T01:17:14Z</time>
  <course>324.89</course>
  <speed>0.84</speed>
  <fix>3d</fix>
</trkpt>
<trkpt lat="33.8098708" lon="-118.3940591">
  <ele>-27.89</ele>
  <time>2026-09-01T01:17:14Z</time>
  <course>323.83</course>
  <speed>0.8700574693662483</speed>
  <fix>3d</fix>
</trkpt>
<trkpt lat="33.8098699" lon="-118.3940579">
  <ele>-27.17</ele>
  <time>2026-09-01T01:17:14Z</time>
  <course>324.88</course>
  <speed>0.84</speed>
  <fix>3d</fix>
</trkpt>
<trkpt lat="33.8098714" lon="-118.3940596">
  <ele>-27.907</ele>
  <time>2026-09-01T01:17:14Z</time>
  <course>323.82</course>
  <speed>0.8700574693662483</speed>
  <fix>3d</fix>
</trkpt>
<trkpt lat="33.8098699" lon="-118.3940579">
  <ele>-27.17</ele>
  <time>2026-09-01T01:17:14Z</time>
  <course>324.88</course>
  <speed>0.84</speed>
  <fix>3d</fix>
</trkpt>
<trkpt lat="33.809872" lon="-118.3940601">
  <ele>-27.924</ele>
  <time>2026-09-01T01:17:14Z</time>
  <course>323.79</course>
  <speed>0.8700574693662483</speed>
  <fix>3d</fix>
</trkpt>
<trkpt lat="33.8098711" lon="-118.3940589">
  <ele>-27.21</ele>
  <time>2026-09-01T01:17:14Z</time>
  <course>324.85</course>
  <speed>0.84</speed>
  <fix>3d</fix>
</trkpt>
<trkpt lat="33.8098726" lon="-118.3940607">
  <ele>-27.942</ele>
  <time>2026-09-01T01:17:14Z</time>
  <course>323.77</course>
  <speed>0.8700574693662483</speed>
  <fix>3d</fix>
</trkpt>
<trkpt lat="33.8098711" lon="-118.3940589">
  <ele>-27.21</ele>
  <time>2026-09-01T01:17:14Z</time>
  <course>324.85</course>
  <speed>0.84</speed>
  <fix>3d</fix>
</trkpt>
<trkpt lat="33.8098733" lon="-118.3940612">
  <ele>-27.96</ele>
  <time>2026-09-01T01:17:14Z</time>
  <course>323.74</course>
  <speed>0.8700574693662483</speed>
  <fix>3d</fix>
</trkpt>
<trkpt lat="33.8098724" lon="-118.39406">
  <ele>-27.25</ele>
  <time>2026-09-01T01:17:14Z</time>
  <course>324.82</course>
  <speed>0.85</speed>
  <fix>3d</fix>
</trkpt>
<trkpt lat="33.8098739" lon="-118.3940617">
  <ele>-27.979</ele>
  <time>2026-09-01T01:17:14Z</time>
  <course>323.73</course>
  <speed>0.8700574693662483</speed>
  <fix>3d</fix>
</trkpt>
<trkpt lat="33.8098724" lon="-118.39406">
  <ele>-27.25</ele>
  <time>2026-09-01T01:17:14Z</time>
  <course>324.82</course>
  <speed>0.85</speed>
  <fix>3d</fix>
</trkpt>
<trkpt lat="33.8098745" lon="-118.3940622">
  <ele>-27.999</ele>
  <time>2026-09-01T01:17:14Z</time>
  <course>323.7</course>
  <speed>0.8700574693662483</speed>
  <fix>3d</fix>
</trkpt>
<trkpt lat="33.8098737" lon="-118.394061">
  <ele>-27.28</ele>
  <time>2026-09-01T01:17:14Z</time>
  <course>324.79</course>
  <speed>0.85</speed>
  <fix>3d</fix>
</trkpt>
<trkpt lat="33.8098751" lon="-118.3940628">
  <ele>-28.019</ele>
  <time>2026-09-01T01:17:14Z</time>
  <course>323.68</course>
  <speed>0.8700574693662483</speed>
  <fix>3d</fix>
</trkpt>
<trkpt lat="33.8098737" lon="-118.394061">
  <ele>-27.28</ele>
  <time>2026-09-01T01:17:14Z</time>
  <course>324.79</course>
  <speed>0.85</speed>
  <fix>3d</fix>
</trkpt>
<trkpt lat="33.8098758" lon="-118.3940633">
  <ele>-28.04</ele>
  <time>2026-09-01T01:17:14Z</time>
  <course>323.64</course>
  <speed>0.8700574693662483</speed>
  <fix>3d</fix>
</trkpt>
<trkpt lat="33.8098749" lon="-118.3940621">
  <ele>-27.32</ele>
  <time>2026-09-01T01:17:14Z</time>
  <course>324.71</course>
  <speed>0.85</speed>
  <fix>3d</fix>
</trkpt>
<trkpt lat="33.8098764" lon="-118.3940638">
  <ele>-28.062</ele>
  <time>2026-09-01T01:17:14Z</time>
  <course>323.61</course>
  <speed>0.8780091115700337</speed>
  <fix>3d</fix>
</trkpt>
<trkpt lat="33.8098749" lon="-118.3940621">
  <ele>-27.32</ele>
  <time>2026-09-01T01:17:14Z</time>
  <course>324.71</course>
  <speed>0.85</speed>
  <fix>3d</fix>
</trkpt>
<trkpt lat="33.809877" lon="-118.3940644">
  <ele>-28.084</ele>
  <time>2026-09-01T01:17:14Z</time>
  <course>323.58</course>
  <speed>0.8780091115700337</speed>
  <fix>3d</fix>
</trkpt>
<trkpt lat="33.8098762" lon="-118.3940632">
  <ele>-27.36</ele>
  <time>2026-09-01T01:17:14Z</time>
  <course>324.65</course>
  <speed>0.85</speed>
  <fix>3d</fix>
</trkpt>
<trkpt lat="33.8098777" lon="-118.3940649">
  <ele>-28.107</ele>
  <time>2026-09-01T01:17:14Z</time>
  <course>323.56</course>
  <speed>0.8780091115700337</speed>
  <fix>3d</fix>
</trkpt>
<trkpt lat="33.8098762" lon="-118.3940632">
  <ele>-27.36</ele>
  <time>2026-09-01T01:17:14Z</time>
  <course>324.65</course>
  <speed>0.85</speed>
  <fix>3d</fix>
</trkpt>
<trkpt lat="33.8098783" lon="-118.3940654">
  <ele>-28.129</ele>
  <time>2026-09-01T01:17:14Z</time>
  <course>323.55</course>
  <speed>0.8780091115700337</speed>
  <fix>3d</fix>
</trkpt>
<trkpt lat="33.8098774" lon="-118.3940643">
  <ele>-27.4</ele>
  <time>2026-09-01T01:17:14Z</time>
  <course>324.63</course>
  <speed>0.85</speed>
  <fix>3d</fix>
</trkpt>
<trkpt lat="33.8098789" lon="-118.394066">
  <ele>-28.15</ele>
  <time>2026-09-01T01:17:14Z</time>
  <course>323.54</course>
  <speed>0.8840814442120137</speed>
  <fix>3d</fix>
</trkpt>
<trkpt lat="33.8098774" lon="-118.3940643">
  <ele>-27.4</ele>
  <time>2026-09-01T01:17:14Z</time>
  <course>324.63</course>
  <speed>0.85</speed>
  <fix>3d</fix>
</trkpt>
<trkpt lat="33.8098795" lon="-118.3940665">
  <ele>-28.17</ele>
  <time>2026-09-01T01:17:14Z</time>
  <course>323.55</course>
  <speed>0.8780091115700337</speed>
  <fix>3d</fix>
</trkpt>
<trkpt lat="33.8098787" lon="-118.3940653">
  <ele>-27.43</ele>
  <time>2026-09-01T01:17:14Z</time>
  <course>324.65</course>
  <speed>0.86</speed>
  <fix>3d</fix>
</trkpt>
<trkpt lat="33.8098802" lon="-118.394067">
  <ele>-28.188</ele>
  <time>2026-09-01T01:17:14Z</time>
  <course>323.56</course>
  <speed>0.8840814442120137</speed>
  <fix>3d</fix>
</trkpt>
<trkpt lat="33.8098787" lon="-118.3940653">
  <ele>-27.43</ele>
  <time>2026-09-01T01:17:14Z</time>
  <course>324.65</course>
  <speed>0.86</speed>
  <fix>3d</fix>
</trkpt>
<trkpt lat="33.8098808" lon="-118.3940676">
  <ele>-28.206</ele>
  <time>2026-09-01T01:17:14Z</time>
  <course>323.56</course>
  <speed>0.8920201791439475</speed>
  <fix>3d</fix>
</trkpt>
<trkpt lat="33.80988" lon="-118.3940664">
  <ele>-27.47</ele>
  <time>2026-09-01T01:17:14Z</time>
  <course>324.66</course>
  <speed>0.86</speed>
  <fix>3d</fix>
</trkpt>
<trkpt lat="33.8098814" lon="-118.3940681">
  <ele>-28.224</ele>
  <time>2026-09-01T01:17:14Z</time>
  <course>323.56</course>
  <speed>0.8920201791439475</speed>
  <fix>3d</fix>
</trkpt>
<trkpt lat="33.80988" lon="-118.3940664">
  <ele>-27.47</ele>
  <time>2026-09-01T01:17:14Z</time>
  <course>324.66</course>
  <speed>0.86</speed>
  <fix>3d</fix>
</trkpt>
<trkpt lat="33.8098821" lon="-118.3940686">
  <ele>-28.243</ele>
  <time>2026-09-01T01:17:14Z</time>
  <course>323.54</course>
  <speed>0.8920201791439475</speed>
  <fix>3d</fix>
</trkpt>
<trkpt lat="33.8098812" lon="-118.3940675">
  <ele>-27.51</ele>
  <time>2026-09-01T01:17:14Z</time>
  <course>324.61</course>
  <speed>0.86</speed>
  <fix>3d</fix>
</trkpt>
<trkpt lat="33.8098827" lon="-118.3940692">
  <ele>-28.261</ele>
  <time>2026-09-01T01:17:14Z</time>
  <course>323.53</course>
  <speed>0.8920201791439475</speed>
  <fix>3d</fix>
</trkpt>
<trkpt lat="33.8098812" lon="-118.3940675">
  <ele>-27.51</ele>
  <time>2026-09-01T01:17:14Z</time>
  <course>324.61</course>
  <speed>0.86</speed>
  <fix>3d</fix>
</trkpt>
<trkpt lat="33.8098834" lon="-118.3940697">
  <ele>-28.279</ele>
  <time>2026-09-01T01:17:14Z</time>
  <course>323.52</course>
  <speed>0.8920201791439475</speed>
  <fix>3d</fix>
</trkpt>
<trkpt lat="33.8098825" lon="-118.3940686">
  <ele>-27.54</ele>
  <time>2026-09-01T01:17:14Z</time>
  <course>324.61</course>
  <speed>0.87</speed>
  <fix>3d</fix>
</trkpt>
<trkpt lat="33.809884" lon="-118.3940703">
  <ele>-28.296</ele>
  <time>2026-09-01T01:17:14Z</time>
  <course>323.53</course>
  <speed>0.8920201791439475</speed>
  <fix>3d</fix>
</trkpt>
<trkpt lat="33.8098825" lon="-118.3940686">
  <ele>-27.54</ele>
  <time>2026-09-01T01:17:14Z</time>
  <course>324.61</course>
  <speed>0.87</speed>
  <fix>3d</fix>
</trkpt>
<trkpt lat="33.8098846" lon="-118.3940708">
  <ele>-28.313</ele>
  <time>2026-09-01T01:17:14Z</time>
  <course>323.54</course>
  <speed>0.8920201791439475</speed>
  <fix>3d</fix>
</trkpt>
<trkpt lat="33.8098838" lon="-118.3940697">
  <ele>-27.58</ele>
  <time>2026-09-01T01:17:14Z</time>
  <course>324.64</course>
  <speed>0.87</speed>
  <fix>3d</fix>
</trkpt>
<trkpt lat="33.8098853" lon="-118.3940714">
  <ele>-28.33</ele>
  <time>2026-09-01T01:17:14Z</time>
  <course>323.56</course>
  <speed>0.8920201791439475</speed>
  <fix>3d</fix>
</trkpt>
<trkpt lat="33.8098838" lon="-118.3940697">
  <ele>-27.58</ele>
  <time>2026-09-01T01:17:14Z</time>
  <course>324.64</course>
  <speed>0.87</speed>
  <fix>3d</fix>
</trkpt>
<trkpt lat="33.8098859" lon="-118.3940719">
  <ele>-28.347</ele>
  <time>2026-09-01T01:17:14Z</time>
  <course>323.57</course>
  <speed>0.8920201791439475</speed>
  <fix>3d</fix>
</trkpt>
<trkpt lat="33.809885" lon="-118.3940708">
  <ele>-27.61</ele>
  <time>2026-09-01T01:17:14Z</time>
  <course>324.67</course>
  <speed>0.87</speed>
  <fix>3d</fix>
</trkpt>
<trkpt lat="33.8098866" lon="-118.3940724">
  <ele>-28.365</ele>
  <time>2026-09-01T01:17:14Z</time>
  <course>323.59</course>
  <speed>0.8920201791439475</speed>
  <fix>3d</fix>
</trkpt>
<trkpt lat="33.809885" lon="-118.3940708">
  <ele>-27.61</ele>
  <time>2026-09-01T01:17:14Z</time>
  <course>324.67</course>
  <speed>0.87</speed>
  <fix>3d</fix>
</trkpt>
<trkpt lat="33.8098872" lon="-118.394073">
  <ele>-28.384</ele>
  <time>2026-09-01T01:17:14Z</time>
  <course>323.62</course>
  <speed>0.8920201791439475</speed>
  <fix>3d</fix>
</trkpt>
<trkpt lat="33.8098863" lon="-118.3940719">
  <ele>-27.65</ele>
  <time>2026-09-01T01:17:14Z</time>
  <course>324.73</course>
  <speed>0.87</speed>
  <fix>3d</fix>
</trkpt>
<trkpt lat="33.8098878" lon="-118.3940735">
  <ele>-28.403</ele>
  <time>2026-09-01T01:17:14Z</time>
  <course>323.65</course>
  <speed>0.9</speed>
  <fix>3d</fix>
</trkpt>
<trkpt lat="33.8098863" lon="-118.3940719">
  <ele>-27.65</ele>
  <time>2026-09-01T01:17:14Z</time>
  <course>324.73</course>
  <speed>0.87</speed>
  <fix>3d</fix>
</trkpt>
<trkpt lat="33.8098885" lon="-118.3940741">
  <ele>-28.424</ele>
  <time>2026-09-01T01:17:14Z</time>
  <course>323.68</course>
  <speed>0.9</speed>
  <fix>3d</fix>
</trkpt>
<trkpt lat="33.8098876" lon="-118.394073">
  <ele>-27.68</ele>
  <time>2026-09-01T01:17:14Z</time>
  <course>324.79</course>
  <speed>0.88</speed>
  <fix>3d</fix>
</trkpt>
<trkpt lat="33.8098891" lon="-118.3940746">
  <ele>-28.446</ele>
  <time>2026-09-01T01:17:14Z</time>
  <course>323.72</course>
  <speed>0.9</speed>
  <fix>3d</fix>
</trkpt>
<trkpt lat="33.8098876" lon="-118.394073">
  <ele>-27.68</ele>
  <time>2026-09-01T01:17:14Z</time>
  <course>324.79</course>
  <speed>0.88</speed>
  <fix>3d</fix>
</trkpt>
<trkpt lat="33.8098898" lon="-118.3940752">
  <ele>-28.469</ele>
  <time>2026-09-01T01:17:14Z</time>
  <course>323.75</course>
  <speed>0.9</speed>
  <fix>3d</fix>
</trkpt>
<trkpt lat="33.8098889" lon="-118.3940741">
  <ele>-27.73</ele>
  <time>2026-09-01T01:17:14Z</time>
  <course>324.86</course>
  <speed>0.88</speed>
  <fix>3d</fix>
</trkpt>
<trkpt lat="33.8098904" lon="-118.3940757">
  <ele>-28.491</ele>
  <time>2026-09-01T01:17:14Z</time>
  <course>323.78</course>
  <speed>0.9</speed>
  <fix>3d</fix>
</trkpt>
<trkpt lat="33.8098889" lon="-118.3940741">
  <ele>-27.73</ele>
  <time>2026-09-01T01:17:14Z</time>
  <course>324.86</course>
  <speed>0.88</speed>
  <fix>3d</fix>
</trkpt>
<trkpt lat="33.8098911" lon="-118.3940763">
  <ele>-28.512</ele>
  <time>2026-09-01T01:17:14Z</time>
  <course>323.79</course>
  <speed>0.9</speed>
  <fix>3d</fix>
</trkpt>
<trkpt lat="33.8098902" lon="-118.3940752">
  <ele>-27.77</ele>
  <time>2026-09-01T01:17:14Z</time>
  <course>324.91</course>
  <speed>0.88</speed>
  <fix>3d</fix>
</trkpt>
<trkpt lat="33.8098917" lon="-118.3940768">
  <ele>-28.532</ele>
  <time>2026-09-01T01:17:14Z</time>
  <course>323.8</course>
  <speed>0.9</speed>
  <fix>3d</fix>
</trkpt>
<trkpt lat="33.8098902" lon="-118.3940752">
  <ele>-27.77</ele>
  <time>2026-09-01T01:17:14Z</time>
  <course>324.91</course>
  <speed>0.88</speed>
  <fix>3d</fix>
</trkpt>
<trkpt lat="33.8098924" lon="-118.3940774">
  <ele>-28.551</ele>
  <time>2026-09-01T01:17:14Z</time>
  <course>323.81</course>
  <speed>0.9</speed>
  <fix>3d</fix>
</trkpt>
<trkpt lat="33.8098915" lon="-118.3940763">
  <ele>-27.81</ele>
  <time>2026-09-01T01:17:14Z</time>
  <course>324.93</course>
  <speed>0.88</speed>
  <fix>3d</fix>
</trkpt>
<trkpt lat="33.809893" lon="-118.3940779">
  <ele>-28.571</ele>
  <time>2026-09-01T01:17:14Z</time>
  <course>323.82</course>
  <speed>0.9</speed>
  <fix>3d</fix>
</trkpt>
<trkpt lat="33.8098915" lon="-118.3940763">
  <ele>-27.81</ele>
  <time>2026-09-01T01:17:14Z</time>
  <course>324.93</course>
  <speed>0.88</speed>
  <fix>3d</fix>
</trkpt>
<trkpt lat="33.8098937" lon="-118.3940785">
  <ele>-28.591</ele>
  <time>2026-09-01T01:17:14Z</time>
  <course>323.81</course>
  <speed>0.9</speed>
  <fix>3d</fix>
</trkpt>
<trkpt lat="33.8098928" lon="-118.3940774">
  <ele>-27.85</ele>
  <time>2026-09-01T01:17:14Z</time>
  <course>324.96</course>
  <speed>0.88</speed>
  <fix>3d</fix>
</trkpt>
<trkpt lat="33.8098943" lon="-118.394079">
  <ele>-28.612</ele>
  <time>2026-09-01T01:17:14Z</time>
  <course>323.82</course>
  <speed>0.9</speed>
  <fix>3d</fix>
</trkpt>
<trkpt lat="33.8098928" lon="-118.3940774">
  <ele>-27.85</ele>
  <time>2026-09-01T01:17:14Z</time>
  <course>324.96</course>
  <speed>0.88</speed>
  <fix>3d</fix>
</trkpt>
<trkpt lat="33.809895" lon="-118.3940796">
  <ele>-28.633</ele>
  <time>2026-09-01T01:17:14Z</time>
  <course>323.81</course>
  <speed>0.9</speed>
  <fix>3d</fix>
</trkpt>
<trkpt lat="33.8098941" lon="-118.3940785">
  <ele>-27.89</ele>
  <time>2026-09-01T01:17:14Z</time>
  <course>324.97</course>
  <speed>0.88</speed>
  <fix>3d</fix>
</trkpt>
<trkpt lat="33.8098956" lon="-118.3940802">
  <ele>-28.654</ele>
  <time>2026-09-01T01:17:14Z</time>
  <course>323.81</course>
  <speed>0.9140021881811882</speed>
  <fix>3d</fix>
</trkpt>
<trkpt lat="33.8098941" lon="-118.3940785">
  <ele>-27.89</ele>
  <time>2026-09-01T01:17:14Z</time>
  <course>324.97</course>
  <speed>0.88</speed>
  <fix>3d</fix>
</trkpt>
<trkpt lat="33.8098963" lon="-118.3940807">
  <ele>-28.676</ele>
  <time>2026-09-01T01:17:14Z</time>
  <course>323.8</course>
  <speed>0.9080198235721508</speed>
  <fix>3d</fix>
</trkpt>
<trkpt lat="33.8098954" lon="-118.3940796">
  <ele>-27.93</ele>
  <time>2026-09-01T01:17:14Z</time>
  <course>324.97</course>
  <speed>0.89</speed>
  <fix>3d</fix>
</trkpt>
<trkpt lat="33.8098969" lon="-118.3940813">
  <ele>-28.696</ele>
  <time>2026-09-01T01:17:14Z</time>
  <course>323.8</course>
  <speed>0.9140021881811882</speed>
  <fix>3d</fix>
</trkpt>
<trkpt lat="33.8098954" lon="-118.3940796">
  <ele>-27.93</ele>
  <time>2026-09-01T01:17:14Z</time>
  <course>324.97</course>
  <speed>0.89</speed>
  <fix>3d</fix>
</trkpt>
<trkpt lat="33.8098976" lon="-118.3940818">
  <ele>-28.715</ele>
  <time>2026-09-01T01:17:14Z</time>
  <course>323.8</course>
  <speed>0.9140021881811882</speed>
  <fix>3d</fix>
</trkpt>
<trkpt lat="33.8098968" lon="-118.3940807">
  <ele>-27.97</ele>
  <time>2026-09-01T01:17:14Z</time>
  <course>324.98</course>
  <speed>0.89</speed>
  <fix>3d</fix>
</trkpt>
<trkpt lat="33.8098983" lon="-118.3940824">
  <ele>-28.734</ele>
  <time>2026-09-01T01:17:14Z</time>
  <course>323.78</course>
  <speed>0.9140021881811882</speed>
  <fix>3d</fix>
</trkpt>
<trkpt lat="33.8098968" lon="-118.3940807">
  <ele>-27.97</ele>
  <time>2026-09-01T01:17:14Z</time>
  <course>324.98</course>
  <speed>0.89</speed>
  <fix>3d</fix>
</trkpt>
<trkpt lat="33.8098989" lon="-118.3940829">
  <ele>-28.753</ele>
  <time>2026-09-01T01:17:14Z</time>
  <course>323.75</course>
  <speed>0.9140021881811882</speed>
  <fix>3d</fix>
</trkpt>
<trkpt lat="33.8098981" lon="-118.3940818">
  <ele>-28.01</ele>
  <time>2026-09-01T01:17:14Z</time>
  <course>324.95</course>
  <speed>0.89</speed>
  <fix>3d</fix>
</trkpt>
<trkpt lat="33.8098996" lon="-118.3940835">
  <ele>-28.773</ele>
  <time>2026-09-01T01:17:14Z</time>
  <course>323.72</course>
  <speed>0.9140021881811882</speed>
  <fix>3d</fix>
</trkpt>
<trkpt lat="33.8098981" lon="-118.3940818">
  <ele>-28.01</ele>
  <time>2026-09-01T01:17:14Z</time>
  <course>324.95</course>
  <speed>0.89</speed>
  <fix>3d</fix>
</trkpt>
<trkpt lat="33.8099002" lon="-118.394084">
  <ele>-28.792</ele>
  <time>2026-09-01T01:17:14Z</time>
  <course>323.68</course>
  <speed>0.9140021881811882</speed>
  <fix>3d</fix>
</trkpt>
<trkpt lat="33.8098994" lon="-118.3940829">
  <ele>-28.04</ele>
  <time>2026-09-01T01:17:14Z</time>
  <course>324.88</course>
  <speed>0.89</speed>
  <fix>3d</fix>
</trkpt>
<trkpt lat="33.8099009" lon="-118.3940846">
  <ele>-28.811</ele>
  <time>2026-09-01T01:17:14Z</time>
  <course>323.64</course>
  <speed>0.9140021881811882</speed>
  <fix>3d</fix>
</trkpt>
<trkpt lat="33.8098994" lon="-118.3940829">
  <ele>-28.04</ele>
  <time>2026-09-01T01:17:14Z</time>
  <course>324.88</course>
  <speed>0.89</speed>
  <fix>3d</fix>
</trkpt>
<trkpt lat="33.8099016" lon="-118.3940851">
  <ele>-28.829</ele>
  <time>2026-09-01T01:17:14Z</time>
  <course>323.6</course>
  <speed>0.9140021881811882</speed>
  <fix>3d</fix>
</trkpt>
<trkpt lat="33.8099007" lon="-118.394084">
  <ele>-28.08</ele>
  <time>2026-09-01T01:17:14Z</time>
  <course>324.81</course>
  <speed>0.89</speed>
  <fix>3d</fix>
</trkpt>
<trkpt lat="33.8099022" lon="-118.3940857">
  <ele>-28.848</ele>
  <time>2026-09-01T01:17:14Z</time>
  <course>323.56</course>
  <speed>0.9140021881811882</speed>
  <fix>3d</fix>
</trkpt>
<trkpt lat="33.8099007" lon="-118.394084">
  <ele>-28.08</ele>
  <time>2026-09-01T01:17:14Z</time>
  <course>324.81</course>
  <speed>0.89</speed>
  <fix>3d</fix>
</trkpt>
<trkpt lat="33.8099029" lon="-118.3940863">
  <ele>-28.868</ele>
  <time>2026-09-01T01:17:14Z</time>
  <course>323.53</course>
  <speed>0.9140021881811882</speed>
  <fix>3d</fix>
</trkpt>
<trkpt lat="33.809902" lon="-118.3940851">
  <ele>-28.11</ele>
  <time>2026-09-01T01:17:14Z</time>
  <course>324.75</course>
  <speed>0.89</speed>
  <fix>3d</fix>
</trkpt>
<trkpt lat="33.8099035" lon="-118.3940868">
  <ele>-28.887</ele>
  <time>2026-09-01T01:17:14Z</time>
  <course>323.51</course>
  <speed>0.9140021881811882</speed>
  <fix>3d</fix>
</trkpt>
<trkpt lat="33.809902" lon="-118.3940851">
  <ele>-28.11</ele>
  <time>2026-09-01T01:17:14Z</time>
  <course>324.75</course>
  <speed>0.89</speed>
  <fix>3d</fix>
</trkpt>
<trkpt lat="33.8099042" lon="-118.3940874">
  <ele>-28.906</ele>
  <time>2026-09-01T01:17:14Z</time>
  <course>323.48</course>
  <speed>0.9140021881811882</speed>
  <fix>3d</fix>
</trkpt>
<trkpt lat="33.8099033" lon="-118.3940862">
  <ele>-28.16</ele>
  <time>2026-09-01T01:17:14Z</time>
  <course>324.72</course>
  <speed>0.89</speed>
  <fix>3d</fix>
</trkpt>
<trkpt lat="33.8099049" lon="-118.394088">
  <ele>-28.925</ele>
  <time>2026-09-01T01:17:14Z</time>
  <course>323.46</course>
  <speed>0.9200543462209175</speed>
  <fix>3d</fix>
</trkpt>
<trkpt lat="33.8099033" lon="-118.3940862">
  <ele>-28.16</ele>
  <time>2026-09-01T01:17:14Z</time>
  <course>324.72</course>
  <speed>0.89</speed>
  <fix>3d</fix>
</trkpt>
<trkpt lat="33.8099055" lon="-118.3940885">
  <ele>-28.944</ele>
  <time>2026-09-01T01:17:14Z</time>
  <course>323.44</course>
  <speed>0.9220086767487604</speed>
  <fix>3d</fix>
</trkpt>
<trkpt lat="33.8099047" lon="-118.3940874">
  <ele>-28.19</ele>
  <time>2026-09-01T01:17:14Z</time>
  <course>324.69</course>
  <speed>0.9</speed>
  <fix>3d</fix>
</trkpt>
<trkpt lat="33.8099062" lon="-118.3940891">
  <ele>-28.962</ele>
  <time>2026-09-01T01:17:14Z</time>
  <course>323.43</course>
  <speed>0.9280086206496145</speed>
  <fix>3d</fix>
</trkpt>
<trkpt lat="33.8099047" lon="-118.3940874">
  <ele>-28.19</ele>
  <time>2026-09-01T01:17:14Z</time>
  <course>324.69</course>
  <speed>0.9</speed>
  <fix>3d</fix>
</trkpt>
<trkpt lat="33.8099069" lon="-118.3940896">
  <ele>-28.981</ele>
  <time>2026-09-01T01:17:14Z</time>
  <course>323.42</course>
  <speed>0.9280086206496145</speed>
  <fix>3d</fix>
</trkpt>
<trkpt lat="33.809906" lon="-118.3940885">
  <ele>-28.23</ele>
  <time>2026-09-01T01:17:14Z</time>
  <course>324.68</course>
  <speed>0.9</speed>
  <fix>3d</fix>
</trkpt>
<trkpt lat="33.8099075" lon="-118.3940902">
  <ele>-28.999</ele>
  <time>2026-09-01T01:17:14Z</time>
  <course>323.41</course>
  <speed>0.9280086206496145</speed>
  <fix>3d</fix>
</trkpt>
<trkpt lat="33.809906" lon="-118.3940885">
  <ele>-28.23</ele>
  <time>2026-09-01T01:17:14Z</time>
  <course>324.68</course>
  <speed>0.9</speed>
  <fix>3d</fix>
</trkpt>
<trkpt lat="33.8099082" lon="-118.3940908">
  <ele>-29.018</ele>
  <time>2026-09-01T01:17:14Z</time>
  <course>323.4</course>
  <speed>0.9280086206496145</speed>
  <fix>3d</fix>
</trkpt>
<trkpt lat="33.8099073" lon="-118.3940896">
  <ele>-28.27</ele>
  <time>2026-09-01T01:17:14Z</time>
  <course>324.67</course>
  <speed>0.9</speed>
  <fix>3d</fix>
</trkpt>
<trkpt lat="33.8099089" lon="-118.3940913">
  <ele>-29.037</ele>
  <time>2026-09-01T01:17:14Z</time>
  <course>323.4</course>
  <speed>0.9280086206496145</speed>
  <fix>3d</fix>
</trkpt>
<trkpt lat="33.8099073" lon="-118.3940896">
  <ele>-28.27</ele>
  <time>2026-09-01T01:17:14Z</time>
  <course>324.67</course>
  <speed>0.9</speed>
  <fix>3d</fix>
</trkpt>
<trkpt lat="33.8099095" lon="-118.3940919">
  <ele>-29.056</ele>
  <time>2026-09-01T01:17:14Z</time>
  <course>323.39</course>
  <speed>0.9280086206496145</speed>
  <fix>3d</fix>
</trkpt>
<trkpt lat="33.8099086" lon="-118.3940907">
  <ele>-28.31</ele>
  <time>2026-09-01T01:17:14Z</time>
  <course>324.66</course>
  <speed>0.9</speed>
  <fix>3d</fix>
</trkpt>
<trkpt lat="33.8099102" lon="-118.3940925">
  <ele>-29.076</ele>
  <time>2026-09-01T01:17:14Z</time>
  <course>323.4</course>
  <speed>0.9280086206496145</speed>
  <fix>3d</fix>
</trkpt>
<trkpt lat="33.8099086" lon="-118.3940907">
  <ele>-28.31</ele>
  <time>2026-09-01T01:17:14Z</time>
  <course>324.66</course>
  <speed>0.9</speed>
  <fix>3d</fix>
</trkpt>
<trkpt lat="33.8099109" lon="-118.394093">
  <ele>-29.096</ele>
  <time>2026-09-01T01:17:14Z</time>
  <course>323.39</course>
  <speed>0.9280086206496145</speed>
  <fix>3d</fix>
</trkpt>
<trkpt lat="33.80991" lon="-118.3940919">
  <ele>-28.36</ele>
  <time>2026-09-01T01:17:14Z</time>
  <course>324.65</course>
  <speed>0.9</speed>
  <fix>3d</fix>
</trkpt>
<trkpt lat="33.8099115" lon="-118.3940936">
  <ele>-29.115</ele>
  <time>2026-09-01T01:17:14Z</time>
  <course>323.39</course>
  <speed>0.9280086206496145</speed>
  <fix>3d</fix>
</trkpt>
<trkpt lat="33.80991" lon="-118.3940919">
  <ele>-28.36</ele>
  <time>2026-09-01T01:17:14Z</time>
  <course>324.65</course>
  <speed>0.9</speed>
  <fix>3d</fix>
</trkpt>
<trkpt lat="33.8099122" lon="-118.3940942">
  <ele>-29.135</ele>
  <time>2026-09-01T01:17:14Z</time>
  <course>323.39</course>
  <speed>0.9280086206496145</speed>
  <fix>3d</fix>
</trkpt>
<trkpt lat="33.8099113" lon="-118.394093">
  <ele>-28.4</ele>
  <time>2026-09-01T01:17:14Z</time>
  <course>324.64</course>
  <speed>0.91</speed>
  <fix>3d</fix>
</trkpt>
<trkpt lat="33.8099129" lon="-118.3940947">
  <ele>-29.155</ele>
  <time>2026-09-01T01:17:14Z</time>
  <course>323.39</course>
  <speed>0.9280086206496145</speed>
  <fix>3d</fix>
</trkpt>
<trkpt lat="33.8099113" lon="-118.394093">
  <ele>-28.4</ele>
  <time>2026-09-01T01:17:14Z</time>
  <course>324.64</course>
  <speed>0.91</speed>
  <fix>3d</fix>
</trkpt>
<trkpt lat="33.8099136" lon="-118.3940953">
  <ele>-29.174</ele>
  <time>2026-09-01T01:17:14Z</time>
  <course>323.39</course>
  <speed>0.9280086206496145</speed>
  <fix>3d</fix>
</trkpt>
<trkpt lat="33.8099126" lon="-118.3940941">
  <ele>-28.43</ele>
  <time>2026-09-01T01:17:14Z</time>
  <course>324.64</course>
  <speed>0.91</speed>
  <fix>3d</fix>
</trkpt>
<trkpt lat="33.8099142" lon="-118.3940959">
  <ele>-29.195</ele>
  <time>2026-09-01T01:17:14Z</time>
  <course>323.39</course>
  <speed>0.9360021367496978</speed>
  <fix>3d</fix>
</trkpt>
<trkpt lat="33.8099126" lon="-118.3940941">
  <ele>-28.43</ele>
  <time>2026-09-01T01:17:14Z</time>
  <course>324.64</course>
  <speed>0.91</speed>
  <fix>3d</fix>
</trkpt>
<trkpt lat="33.8099149" lon="-118.3940965">
  <ele>-29.215</ele>
  <time>2026-09-01T01:17:14Z</time>
  <course>323.39</course>
  <speed>0.9360021367496978</speed>
  <fix>3d</fix>
</trkpt>
<trkpt lat="33.809914" lon="-118.3940953">
  <ele>-28.48</ele>
  <time>2026-09-01T01:17:14Z</time>
  <course>324.65</course>
  <speed>0.91</speed>
  <fix>3d</fix>
</trkpt>
<trkpt lat="33.8099156" lon="-118.394097">
  <ele>-29.236</ele>
  <time>2026-09-01T01:17:14Z</time>
  <course>323.39</course>
  <speed>0.9360021367496978</speed>
  <fix>3d</fix>
</trkpt>
<trkpt lat="33.809914" lon="-118.3940953">
  <ele>-28.48</ele>
  <time>2026-09-01T01:17:14Z</time>
  <course>324.65</course>
  <speed>0.91</speed>
  <fix>3d</fix>
</trkpt>
<trkpt lat="33.8099162" lon="-118.3940976">
  <ele>-29.258</ele>
  <time>2026-09-01T01:17:14Z</time>
  <course>323.39</course>
  <speed>0.9360021367496978</speed>
  <fix>3d</fix>
</trkpt>
<trkpt lat="33.8099153" lon="-118.3940965">
  <ele>-28.52</ele>
  <time>2026-09-01T01:17:14Z</time>
  <course>324.65</course>
  <speed>0.91</speed>
  <fix>3d</fix>
</trkpt>
<trkpt lat="33.8099169" lon="-118.3940982">
  <ele>-29.281</ele>
  <time>2026-09-01T01:17:14Z</time>
  <course>323.41</course>
  <speed>0.9360021367496978</speed>
  <fix>3d</fix>
</trkpt>
<trkpt lat="33.8099153" lon="-118.3940965">
  <ele>-28.52</ele>
  <time>2026-09-01T01:17:14Z</time>
  <course>324.65</course>
  <speed>0.91</speed>
  <fix>3d</fix>
</trkpt>
<trkpt lat="33.8099176" lon="-118.3940988">
  <ele>-29.303</ele>
  <time>2026-09-01T01:17:14Z</time>
  <course>323.43</course>
  <speed>0.9360021367496978</speed>
  <fix>3d</fix>
</trkpt>
<trkpt lat="33.8099167" lon="-118.3940976">
  <ele>-28.56</ele>
  <time>2026-09-01T01:17:14Z</time>
  <course>324.69</course>
  <speed>0.91</speed>
  <fix>3d</fix>
</trkpt>
<trkpt lat="33.8099183" lon="-118.3940993">
  <ele>-29.324</ele>
  <time>2026-09-01T01:17:14Z</time>
  <course>323.45</course>
  <speed>0.9360021367496978</speed>
  <fix>3d</fix>
</trkpt>
<trkpt lat="33.8099167" lon="-118.3940976">
  <ele>-28.56</ele>
  <time>2026-09-01T01:17:14Z</time>
  <course>324.69</course>
  <speed>0.91</speed>
  <fix>3d</fix>
</trkpt>
<trkpt lat="33.809919" lon="-118.3940999">
  <ele>-29.345</ele>
  <time>2026-09-01T01:17:14Z</time>
  <course>323.47</course>
  <speed>0.9360021367496978</speed>
  <fix>3d</fix>
</trkpt>
<trkpt lat="33.809918" lon="-118.3940988">
  <ele>-28.6</ele>
  <time>2026-09-01T01:17:14Z</time>
  <course>324.74</course>
  <speed>0.91</speed>
  <fix>3d</fix>
</trkpt>
<trkpt lat="33.8099196" lon="-118.3941005">
  <ele>-29.365</ele>
  <time>2026-09-01T01:17:14Z</time>
  <course>323.49</course>
  <speed>0.9360021367496978</speed>
  <fix>3d</fix>
</trkpt>
<trkpt lat="33.809918" lon="-118.3940988">
  <ele>-28.6</ele>
  <time>2026-09-01T01:17:14Z</time>
  <course>324.74</course>
  <speed>0.91</speed>
  <fix>3d</fix>
</trkpt>
<trkpt lat="33.8099203" lon="-118.3941011">
  <ele>-29.385</ele>
  <time>2026-09-01T01:17:14Z</time>
  <course>323.51</course>
  <speed>0.9360021367496978</speed>
  <fix>3d</fix>
</trkpt>
<trkpt lat="33.8099194" lon="-118.3940999">
  <ele>-28.64</ele>
  <time>2026-09-01T01:17:14Z</time>
  <course>324.79</course>
  <speed>0.92</speed>
  <fix>3d</fix>
</trkpt>
<trkpt lat="33.809921" lon="-118.3941016">
  <ele>-29.405</ele>
  <time>2026-09-01T01:17:14Z</time>
  <course>323.53</course>
  <speed>0.942019108086455</speed>
  <fix>3d</fix>
</trkpt>
<trkpt lat="33.8099194" lon="-118.3940999">
  <ele>-28.64</ele>
  <time>2026-09-01T01:17:14Z</time>
  <course>324.79</course>
  <speed>0.92</speed>
  <fix>3d</fix>
</trkpt>
<trkpt lat="33.8099217" lon="-118.3941022">
  <ele>-29.425</ele>
  <time>2026-09-01T01:17:14Z</time>
  <course>323.54</course>
  <speed>0.9440338976964757</speed>
  <fix>3d</fix>
</trkpt>
<trkpt lat="33.8099207" lon="-118.3941011">
  <ele>-28.68</ele>
  <time>2026-09-01T01:17:14Z</time>
  <course>324.81</course>
  <speed>0.92</speed>
  <fix>3d</fix>
</trkpt>
<trkpt lat="33.8099223" lon="-118.3941028">
  <ele>-29.444</ele>
  <time>2026-09-01T01:17:14Z</time>
  <course>323.55</course>
  <speed>0.95</speed>
  <fix>3d</fix>
</trkpt>
<trkpt lat="33.8099207" lon="-118.3941011">
  <ele>-28.68</ele>
  <time>2026-09-01T01:17:14Z</time>
  <course>324.81</course>
  <speed>0.92</speed>
  <fix>3d</fix>
</trkpt>
<trkpt lat="33.809923" lon="-118.3941034">
  <ele>-29.464</ele>
  <time>2026-09-01T01:17:14Z</time>
  <course>323.57</course>
  <speed>0.9440338976964757</speed>
  <fix>3d</fix>
</trkpt>
<trkpt lat="33.809922" lon="-118.3941022">
  <ele>-28.71</ele>
  <time>2026-09-01T01:17:14Z</time>
  <course>324.84</course>
  <speed>0.92</speed>
  <fix>3d</fix>
</trkpt>
<trkpt lat="33.8099237" lon="-118.3941039">
  <ele>-29.485</ele>
  <time>2026-09-01T01:17:14Z</time>
  <course>323.59</course>
  <speed>0.95</speed>
  <fix>3d</fix>
</trkpt>
<trkpt lat="33.809922" lon="-118.3941022">
  <ele>-28.71</ele>
  <time>2026-09-01T01:17:14Z</time>
  <course>324.84</course>
  <speed>0.92</speed>
  <fix>3d</fix>
</trkpt>
<trkpt lat="33.8099244" lon="-118.3941045">
  <ele>-29.506</ele>
  <time>2026-09-01T01:17:14Z</time>
  <course>323.61</course>
  <speed>0.95</speed>
  <fix>3d</fix>
</trkpt>
<trkpt lat="33.8099234" lon="-118.3941034">
  <ele>-28.75</ele>
  <time>2026-09-01T01:17:14Z</time>
  <course>324.9</course>
  <speed>0.92</speed>
  <fix>3d</fix>
</trkpt>
<trkpt lat="33.8099251" lon="-118.3941051">
  <ele>-29.527</ele>
  <time>2026-09-01T01:17:14Z</time>
  <course>323.64</course>
  <speed>0.95</speed>
  <fix>3d</fix>
</trkpt>
<trkpt lat="33.8099234" lon="-118.3941034">
  <ele>-28.75</ele>
  <time>2026-09-01T01:17:14Z</time>
  <course>324.9</course>
  <speed>0.92</speed>
  <fix>3d</fix>
</trkpt>
<trkpt lat="33.8099257" lon="-118.3941057">
  <ele>-29.547</ele>
  <time>2026-09-01T01:17:14Z</time>
  <course>323.66</course>
  <speed>0.95</speed>
  <fix>3d</fix>
</trkpt>
<trkpt lat="33.8099248" lon="-118.3941045">
  <ele>-28.79</ele>
  <time>2026-09-01T01:17:14Z</time>
  <course>324.95</course>
  <speed>0.92</speed>
  <fix>3d</fix>
</trkpt>
<trkpt lat="33.8099264" lon="-118.3941063">
  <ele>-29.568</ele>
  <time>2026-09-01T01:17:14Z</time>
  <course>323.68</course>
  <speed>0.95</speed>
  <fix>3d</fix>
</trkpt>
<trkpt lat="33.8099248" lon="-118.3941045">
  <ele>-28.79</ele>
  <time>2026-09-01T01:17:14Z</time>
  <course>324.95</course>
  <speed>0.92</speed>
  <fix>3d</fix>
</trkpt>
<trkpt lat="33.8099271" lon="-118.3941068">
  <ele>-29.589</ele>
  <time>2026-09-01T01:17:14Z</time>
  <course>323.68</course>
  <speed>0.95</speed>
  <fix>3d</fix>
</trkpt>
<trkpt lat="33.8099262" lon="-118.3941056">
  <ele>-28.83</ele>
  <time>2026-09-01T01:17:14Z</time>
  <course>324.98</course>
  <speed>0.92</speed>
  <fix>3d</fix>
</trkpt>
<trkpt lat="33.8099278" lon="-118.3941074">
  <ele>-29.611</ele>
  <time>2026-09-01T01:17:14Z</time>
  <course>323.66</course>
  <speed>0.95</speed>
  <fix>3d</fix>
</trkpt>
<trkpt lat="33.8099262" lon="-118.3941056">
  <ele>-28.83</ele>
  <time>2026-09-01T01:17:14Z</time>
  <course>324.98</course>
  <speed>0.92</speed>
  <fix>3d</fix>
</trkpt>
<trkpt lat="33.8099285" lon="-118.394108">
  <ele>-29.633</ele>
  <time>2026-09-01T01:17:14Z</time>
  <course>323.62</course>
  <speed>0.95</speed>
  <fix>3d</fix>
</trkpt>
<trkpt lat="33.8099275" lon="-118.3941068">
  <ele>-28.86</ele>
  <time>2026-09-01T01:17:14Z</time>
  <course>324.92</course>
  <speed>0.93</speed>
  <fix>3d</fix>
</trkpt>
<trkpt lat="33.8099292" lon="-118.3941086">
  <ele>-29.655</ele>
  <time>2026-09-01T01:17:14Z</time>
  <course>323.57</course>
  <speed>0.95</speed>
  <fix>3d</fix>
</trkpt>
<trkpt lat="33.8099275" lon="-118.3941068">
  <ele>-28.86</ele>
  <time>2026-09-01T01:17:14Z</time>
  <course>324.92</course>
  <speed>0.93</speed>
  <fix>3d</fix>
</trkpt>
<trkpt lat="33.8099298" lon="-118.3941091">
  <ele>-29.676</ele>
  <time>2026-09-01T01:17:14Z</time>
  <course>323.54</course>
  <speed>0.95</speed>
  <fix>3d</fix>
</trkpt>
<trkpt lat="33.8099289" lon="-118.394108">
  <ele>-28.91</ele>
  <time>2026-09-01T01:17:14Z</time>
  <course>324.85</course>
  <speed>0.93</speed>
  <fix>3d</fix>
</trkpt>
<trkpt lat="33.8099305" lon="-118.3941097">
  <ele>-29.698</ele>
  <time>2026-09-01T01:17:14Z</time>
  <course>323.52</course>
  <speed>0.95</speed>
  <fix>3d</fix>
</trkpt>
<trkpt lat="33.8099289" lon="-118.394108">
  <ele>-28.91</ele>
  <time>2026-09-01T01:17:14Z</time>
  <course>324.85</course>
  <speed>0.93</speed>
  <fix>3d</fix>
</trkpt>
<trkpt lat="33.8099312" lon="-118.3941103">
  <ele>-29.72</ele>
  <time>2026-09-01T01:17:14Z</time>
  <course>323.5</course>
  <speed>0.95</speed>
  <fix>3d</fix>
</trkpt>
<trkpt lat="33.8099303" lon="-118.3941092">
  <ele>-28.95</ele>
  <time>2026-09-01T01:17:14Z</time>
  <course>324.83</course>
  <speed>0.93</speed>
  <fix>3d</fix>
</trkpt>
<trkpt lat="33.8099319" lon="-118.3941109">
  <ele>-29.742</ele>
  <time>2026-09-01T01:17:14Z</time>
  <course>323.5</course>
  <speed>0.9580187889597991</speed>
  <fix>3d</fix>
</trkpt>
<trkpt lat="33.8099303" lon="-118.3941092">
  <ele>-28.95</ele>
  <time>2026-09-01T01:17:14Z</time>
  <course>324.83</course>
  <speed>0.93</speed>
  <fix>3d</fix>
</trkpt>
<trkpt lat="33.8099326" lon="-118.3941115">
  <ele>-29.764</ele>
  <time>2026-09-01T01:17:14Z</time>
  <course>323.5</course>
  <speed>0.9580187889597991</speed>
  <fix>3d</fix>
</trkpt>
<trkpt lat="33.8099316" lon="-118.3941103">
  <ele>-28.99</ele>
  <time>2026-09-01T01:17:14Z</time>
  <course>324.86</course>
  <speed>0.93</speed>
  <fix>3d</fix>
</trkpt>
<trkpt lat="33.8099333" lon="-118.3941121">
  <ele>-29.786</ele>
  <time>2026-09-01T01:17:14Z</time>
  <course>323.51</course>
  <speed>0.9580187889597991</speed>
  <fix>3d</fix>
</trkpt>
<trkpt lat="33.8099316" lon="-118.3941103">
  <ele>-28.99</ele>
  <time>2026-09-01T01:17:14Z</time>
  <course>324.86</course>
  <speed>0.93</speed>
  <fix>3d</fix>
</trkpt>
<trkpt lat="33.809934" lon="-118.3941127">
  <ele>-29.807</ele>
  <time>2026-09-01T01:17:14Z</time>
  <course>323.52</course>
  <speed>0.9580187889597991</speed>
  <fix>3d</fix>
</trkpt>
<trkpt lat="33.809933" lon="-118.3941115">
  <ele>-29.03</ele>
  <time>2026-09-01T01:17:14Z</time>
  <course>324.89</course>
  <speed>0.93</speed>
  <fix>3d</fix>
</trkpt>
<trkpt lat="33.8099347" lon="-118.3941132">
  <ele>-29.828</ele>
  <time>2026-09-01T01:17:14Z</time>
  <course>323.53</course>
  <speed>0.9580187889597991</speed>
  <fix>3d</fix>
</trkpt>
<trkpt lat="33.809933" lon="-118.3941115">
  <ele>-29.03</ele>
  <time>2026-09-01T01:17:14Z</time>
  <course>324.89</course>
  <speed>0.93</speed>
  <fix>3d</fix>
</trkpt>
<trkpt lat="33.8099354" lon="-118.3941138">
  <ele>-29.847</ele>
  <time>2026-09-01T01:17:14Z</time>
  <course>323.53</course>
  <speed>0.9580187889597991</speed>
  <fix>3d</fix>
</trkpt>
<trkpt lat="33.8099344" lon="-118.3941126">
  <ele>-29.08</ele>
  <time>2026-09-01T01:17:14Z</time>
  <course>324.9</course>
  <speed>0.93</speed>
  <fix>3d</fix>
</trkpt>
<trkpt lat="33.8099361" lon="-118.3941144">
  <ele>-29.867</ele>
  <time>2026-09-01T01:17:14Z</time>
  <course>323.54</course>
  <speed>0.9640020746865642</speed>
  <fix>3d</fix>
</trkpt>
<trkpt lat="33.8099344" lon="-118.3941126">
  <ele>-29.08</ele>
  <time>2026-09-01T01:17:14Z</time>
  <course>324.9</course>
  <speed>0.93</speed>
  <fix>3d</fix>
</trkpt>
<trkpt lat="33.8099367" lon="-118.394115">
  <ele>-29.886</ele>
  <time>2026-09-01T01:17:14Z</time>
  <course>323.53</course>
  <speed>0.9640020746865642</speed>
  <fix>3d</fix>
</trkpt>
<trkpt lat="33.8099358" lon="-118.3941137">
  <ele>-29.11</ele>
  <time>2026-09-01T01:17:14Z</time>
  <course>324.89</course>
  <speed>0.93</speed>
  <fix>3d</fix>
</trkpt>
<trkpt lat="33.8099374" lon="-118.3941156">
  <ele>-29.906</ele>
  <time>2026-09-01T01:17:14Z</time>
  <course>323.5</course>
  <speed>0.9640020746865642</speed>
  <fix>3d</fix>
</trkpt>
<trkpt lat="33.8099358" lon="-118.3941137">
  <ele>-29.11</ele>
  <time>2026-09-01T01:17:14Z</time>
  <course>324.89</course>
  <speed>0.93</speed>
  <fix>3d</fix>
</trkpt>
<trkpt lat="33.8099381" lon="-118.3941162">
  <ele>-29.927</ele>
  <time>2026-09-01T01:17:14Z</time>
  <course>323.46</course>
  <speed>0.9640020746865642</speed>
  <fix>3d</fix>
</trkpt>
<trkpt lat="33.8099372" lon="-118.394115">
  <ele>-29.16</ele>
  <time>2026-09-01T01:17:14Z</time>
  <course>324.81</course>
  <speed>0.94</speed>
  <fix>3d</fix>
</trkpt>
<trkpt lat="33.8099388" lon="-118.3941168">
  <ele>-29.948</ele>
  <time>2026-09-01T01:17:14Z</time>
  <course>323.41</course>
  <speed>0.9640020746865642</speed>
  <fix>3d</fix>
</trkpt>
<trkpt lat="33.8099372" lon="-118.394115">
  <ele>-29.16</ele>
  <time>2026-09-01T01:17:14Z</time>
  <course>324.81</course>
  <speed>0.94</speed>
  <fix>3d</fix>
</trkpt>
<trkpt lat="33.8099395" lon="-118.3941173">
  <ele>-29.97</ele>
  <time>2026-09-01T01:17:14Z</time>
  <course>323.38</course>
  <speed>0.9640020746865642</speed>
  <fix>3d</fix>
</trkpt>
<trkpt lat="33.8099385" lon="-118.3941161">
  <ele>-29.2</ele>
  <time>2026-09-01T01:17:14Z</time>
  <course>324.73</course>
  <speed>0.94</speed>
  <fix>3d</fix>
</trkpt>
<trkpt lat="33.8099402" lon="-118.3941179">
  <ele>-29.993</ele>
  <time>2026-09-01T01:17:14Z</time>
  <course>323.36</course>
  <speed>0.9640020746865642</speed>
  <fix>3d</fix>
</trkpt>
<trkpt lat="33.8099385" lon="-118.3941161">
  <ele>-29.2</ele>
  <time>2026-09-01T01:17:14Z</time>
  <course>324.73</course>
  <speed>0.94</speed>
  <fix>3d</fix>
</trkpt>
<trkpt lat="33.8099409" lon="-118.3941185">
  <ele>-30.015</ele>
  <time>2026-09-01T01:17:14Z</time>
  <course>323.35</course>
  <speed>0.9640020746865642</speed>
  <fix>3d</fix>
</trkpt>
<trkpt lat="33.8099398" lon="-118.3941173">
  <ele>-29.24</ele>
  <time>2026-09-01T01:17:14Z</time>
  <course>324.72</course>
  <speed>0.94</speed>
  <fix>3d</fix>
</trkpt>
<trkpt lat="33.8099416" lon="-118.3941191">
  <ele>-30.036</ele>
  <time>2026-09-01T01:17:14Z</time>
  <course>323.35</course>
  <speed>0.9640020746865642</speed>
  <fix>3d</fix>
</trkpt>
<trkpt lat="33.8099398" lon="-118.3941173">
  <ele>-29.24</ele>
  <time>2026-09-01T01:17:14Z</time>
  <course>324.72</course>
  <speed>0.94</speed>
  <fix>3d</fix>
</trkpt>
<trkpt lat="33.8099423" lon="-118.3941197">
  <ele>-30.058</ele>
  <time>2026-09-01T01:17:14Z</time>
  <course>323.38</course>
  <speed>0.9720082304178294</speed>
  <fix>3d</fix>
</trkpt>
<trkpt lat="33.8099413" lon="-118.3941185">
  <ele>-29.27</ele>
  <time>2026-09-01T01:17:14Z</time>
  <course>324.77</course>
  <speed>0.94</speed>
  <fix>3d</fix>
</trkpt>
<trkpt lat="33.809943" lon="-118.3941203">
  <ele>-30.08</ele>
  <time>2026-09-01T01:17:14Z</time>
  <course>323.4</course>
  <speed>0.9720082304178294</speed>
  <fix>3d</fix>
</trkpt>
<trkpt lat="33.8099413" lon="-118.3941185">
  <ele>-29.27</ele>
  <time>2026-09-01T01:17:14Z</time>
  <course>324.77</course>
  <speed>0.94</speed>
  <fix>3d</fix>
</trkpt>
<trkpt lat="33.8099437" lon="-118.3941209">
  <ele>-30.103</ele>
  <time>2026-09-01T01:17:14Z</time>
  <course>323.42</course>
  <speed>0.9720082304178294</speed>
  <fix>3d</fix>
</trkpt>
<trkpt lat="33.8099427" lon="-118.3941197">
  <ele>-29.32</ele>
  <time>2026-09-01T01:17:14Z</time>
  <course>324.82</course>
  <speed>0.94</speed>
  <fix>3d</fix>
</trkpt>
<trkpt lat="33.8099444" lon="-118.3941215">
  <ele>-30.125</ele>
  <time>2026-09-01T01:17:14Z</time>
  <course>323.43</course>
  <speed>0.9720082304178294</speed>
  <fix>3d</fix>
</trkpt>
<trkpt lat="33.8099427" lon="-118.3941197">
  <ele>-29.32</ele>
  <time>2026-09-01T01:17:14Z</time>
  <course>324.82</course>
  <speed>0.94</speed>
  <fix>3d</fix>
</trkpt>
<trkpt lat="33.8099451" lon="-118.3941221">
  <ele>-30.147</ele>
  <time>2026-09-01T01:17:14Z</time>
  <course>323.43</course>
  <speed>0.9720082304178294</speed>
  <fix>3d</fix>
</trkpt>
<trkpt lat="33.809944" lon="-118.3941209">
  <ele>-29.36</ele>
  <time>2026-09-01T01:17:14Z</time>
  <course>324.85</course>
  <speed>0.95</speed>
  <fix>3d</fix>
</trkpt>
<trkpt lat="33.8099458" lon="-118.3941226">
  <ele>-30.168</ele>
  <time>2026-09-01T01:17:14Z</time>
  <course>323.45</course>
  <speed>0.9720082304178294</speed>
  <fix>3d</fix>
</trkpt>
<trkpt lat="33.809944" lon="-118.3941209">
  <ele>-29.36</ele>
  <time>2026-09-01T01:17:14Z</time>
  <course>324.85</course>
  <speed>0.95</speed>
  <fix>3d</fix>
</trkpt>
<trkpt lat="33.8099465" lon="-118.3941233">
  <ele>-30.19</ele>
  <time>2026-09-01T01:17:14Z</time>
  <course>323.48</course>
  <speed>0.9720082304178294</speed>
  <fix>3d</fix>
</trkpt>
<trkpt lat="33.8099455" lon="-118.3941221">
  <ele>-29.4</ele>
  <time>2026-09-01T01:17:14Z</time>
  <course>324.88</course>
  <speed>0.95</speed>
  <fix>3d</fix>
</trkpt>
<trkpt lat="33.8099472" lon="-118.3941239">
  <ele>-30.21</ele>
  <time>2026-09-01T01:17:14Z</time>
  <course>323.5</course>
  <speed>0.9720082304178294</speed>
  <fix>3d</fix>
</trkpt>
<trkpt lat="33.8099455" lon="-118.3941221">
  <ele>-29.4</ele>
  <time>2026-09-01T01:17:14Z</time>
  <course>324.88</course>
  <speed>0.95</speed>
  <fix>3d</fix>
</trkpt>
<trkpt lat="33.8099479" lon="-118.3941245">
  <ele>-30.23</ele>
  <time>2026-09-01T01:17:14Z</time>
  <course>323.53</course>
  <speed>0.9720082304178294</speed>
  <fix>3d</fix>
</trkpt>
<trkpt lat="33.8099469" lon="-118.3941233">
  <ele>-29.44</ele>
  <time>2026-09-01T01:17:14Z</time>
  <course>324.92</course>
  <speed>0.95</speed>
  <fix>3d</fix>
</trkpt>
<trkpt lat="33.8099486" lon="-118.394125">
  <ele>-30.251</ele>
  <time>2026-09-01T01:17:14Z</time>
  <course>323.55</course>
  <speed>0.9720082304178294</speed>
  <fix>3d</fix>
</trkpt>
<trkpt lat="33.8099469" lon="-118.3941233">
  <ele>-29.44</ele>
  <time>2026-09-01T01:17:14Z</time>
  <course>324.92</course>
  <speed>0.95</speed>
  <fix>3d</fix>
</trkpt>
<trkpt lat="33.8099493" lon="-118.3941256">
  <ele>-30.271</ele>
  <time>2026-09-01T01:17:14Z</time>
  <course>323.56</course>
  <speed>0.9720082304178294</speed>
  <fix>3d</fix>
</trkpt>
<trkpt lat="33.8099483" lon="-118.3941244">
  <ele>-29.49</ele>
  <time>2026-09-01T01:17:14Z</time>
  <course>324.93</course>
  <speed>0.95</speed>
  <fix>3d</fix>
</trkpt>
<trkpt lat="33.80995" lon="-118.3941262">
  <ele>-30.29</ele>
  <time>2026-09-01T01:17:14Z</time>
  <course>323.56</course>
  <speed>0.9720082304178294</speed>
  <fix>3d</fix>
</trkpt>
<trkpt lat="33.8099483" lon="-118.3941244">
  <ele>-29.49</ele>
  <time>2026-09-01T01:17:14Z</time>
  <course>324.93</course>
  <speed>0.95</speed>
  <fix>3d</fix>
</trkpt>
<trkpt lat="33.8099507" lon="-118.3941268">
  <ele>-30.31</ele>
  <time>2026-09-01T01:17:14Z</time>
  <course>323.55</course>
  <speed>0.9720082304178294</speed>
  <fix>3d</fix>
</trkpt>
<trkpt lat="33.8099497" lon="-118.3941256">
  <ele>-29.52</ele>
  <time>2026-09-01T01:17:14Z</time>
  <course>324.91</course>
  <speed>0.95</speed>
  <fix>3d</fix>
</trkpt>
<trkpt lat="33.8099514" lon="-118.3941274">
  <ele>-30.33</ele>
  <time>2026-09-01T01:17:14Z</time>
  <course>323.52</course>
  <speed>0.9720082304178294</speed>
  <fix>3d</fix>
</trkpt>
<trkpt lat="33.8099497" lon="-118.3941256">
  <ele>-29.52</ele>
  <time>2026-09-01T01:17:14Z</time>
  <course>324.91</course>
  <speed>0.95</speed>
  <fix>3d</fix>
</trkpt>
<trkpt lat="33.8099521" lon="-118.394128">
  <ele>-30.35</ele>
  <time>2026-09-01T01:17:14Z</time>
  <course>323.49</course>
  <speed>0.9720082304178294</speed>
  <fix>3d</fix>
</trkpt>
<trkpt lat="33.8099511" lon="-118.3941267">
  <ele>-29.57</ele>
  <time>2026-09-01T01:17:14Z</time>
  <course>324.87</course>
  <speed>0.95</speed>
  <fix>3d</fix>
</trkpt>
<trkpt lat="33.8099528" lon="-118.3941286">
  <ele>-30.371</ele>
  <time>2026-09-01T01:17:14Z</time>
  <course>323.47</course>
  <speed>0.9720082304178294</speed>
  <fix>3d</fix>
</trkpt>
<trkpt lat="33.8099511" lon="-118.3941267">
  <ele>-29.57</ele>
  <time>2026-09-01T01:17:14Z</time>
  <course>324.87</course>
  <speed>0.95</speed>
  <fix>3d</fix>
</trkpt>
<trkpt lat="33.8099535" lon="-118.3941292">
  <ele>-30.392</ele>
  <time>2026-09-01T01:17:14Z</time>
  <course>323.42</course>
  <speed>0.9720082304178294</speed>
  <fix>3d</fix>
</trkpt>
<trkpt lat="33.8099524" lon="-118.394128">
  <ele>-29.61</ele>
  <time>2026-09-01T01:17:14Z</time>
  <course>324.82</course>
  <speed>0.95</speed>
  <fix>3d</fix>
</trkpt>
<trkpt lat="33.8099542" lon="-118.3941298">
  <ele>-30.414</ele>
  <time>2026-09-01T01:17:14Z</time>
  <course>323.39</course>
  <speed>0.978008179924892</speed>
  <fix>3d</fix>
</trkpt>
<trkpt lat="33.8099524" lon="-118.394128">
  <ele>-29.61</ele>
  <time>2026-09-01T01:17:14Z</time>
  <course>324.82</course>
  <speed>0.95</speed>
  <fix>3d</fix>
</trkpt>
<trkpt lat="33.8099549" lon="-118.3941304">
  <ele>-30.436</ele>
  <time>2026-09-01T01:17:14Z</time>
  <course>323.38</course>
  <speed>0.9720082304178294</speed>
  <fix>3d</fix>
</trkpt>
<trkpt lat="33.8099538" lon="-118.3941291">
  <ele>-29.65</ele>
  <time>2026-09-01T01:17:14Z</time>
  <course>324.79</course>
  <speed>0.95</speed>
  <fix>3d</fix>
</trkpt>
<trkpt lat="33.8099556" lon="-118.394131">
  <ele>-30.458</ele>
  <time>2026-09-01T01:17:14Z</time>
  <course>323.38</course>
  <speed>0.978008179924892</speed>
  <fix>3d</fix>
</trkpt>
<trkpt lat="33.8099538" lon="-118.3941291">
  <ele>-29.65</ele>
  <time>2026-09-01T01:17:14Z</time>
  <course>324.79</course>
  <speed>0.95</speed>
  <fix>3d</fix>
</trkpt>
<trkpt lat="33.8099563" lon="-118.3941316">
  <ele>-30.48</ele>
  <time>2026-09-01T01:17:14Z</time>
  <course>323.39</course>
  <speed>0.9860020283954795</speed>
  <fix>3d</fix>
</trkpt>
<trkpt lat="33.8099553" lon="-118.3941304">
  <ele>-29.68</ele>
  <time>2026-09-01T01:17:14Z</time>
  <course>324.82</course>
  <speed>0.96</speed>
  <fix>3d</fix>
</trkpt>
<trkpt lat="33.809957" lon="-118.3941322">
  <ele>-30.501</ele>
  <time>2026-09-01T01:17:14Z</time>
  <course>323.4</course>
  <speed>0.9860020283954795</speed>
  <fix>3d</fix>
</trkpt>
<trkpt lat="33.8099553" lon="-118.3941304">
  <ele>-29.68</ele>
  <time>2026-09-01T01:17:14Z</time>
  <course>324.82</course>
  <speed>0.96</speed>
  <fix>3d</fix>
</trkpt>
<trkpt lat="33.8099577" lon="-118.3941328">
  <ele>-30.522</ele>
  <time>2026-09-01T01:17:14Z</time>
  <course>323.4</course>
  <speed>0.9860020283954795</speed>
  <fix>3d</fix>
</trkpt>
<trkpt lat="33.8099567" lon="-118.3941316">
  <ele>-29.73</ele>
  <time>2026-09-01T01:17:14Z</time>
  <course>324.85</course>
  <speed>0.96</speed>
  <fix>3d</fix>
</trkpt>
<trkpt lat="33.8099584" lon="-118.3941334">
  <ele>-30.542</ele>
  <time>2026-09-01T01:17:14Z</time>
  <course>323.41</course>
  <speed>0.9860020283954795</speed>
  <fix>3d</fix>
</trkpt>
<trkpt lat="33.8099567" lon="-118.3941316">
  <ele>-29.73</ele>
  <time>2026-09-01T01:17:14Z</time>
  <course>324.85</course>
  <speed>0.96</speed>
  <fix>3d</fix>
</trkpt>
<trkpt lat="33.8099591" lon="-118.394134">
  <ele>-30.564</ele>
  <time>2026-09-01T01:17:14Z</time>
  <course>323.42</course>
  <speed>0.9860020283954795</speed>
  <fix>3d</fix>
</trkpt>
<trkpt lat="33.8099581" lon="-118.3941328">
  <ele>-29.77</ele>
  <time>2026-09-01T01:17:14Z</time>
  <course>324.86</course>
  <speed>0.96</speed>
  <fix>3d</fix>
</trkpt>
<trkpt lat="33.8099598" lon="-118.3941346">
  <ele>-30.586</ele>
  <time>2026-09-01T01:17:14Z</time>
  <course>323.45</course>
  <speed>0.9860020283954795</speed>
  <fix>3d</fix>
</trkpt>
<trkpt lat="33.8099581" lon="-118.3941328">
  <ele>-29.77</ele>
  <time>2026-09-01T01:17:14Z</time>
  <course>324.86</course>
  <speed>0.96</speed>
  <fix>3d</fix>
</trkpt>
<trkpt lat="33.8099605" lon="-118.3941352">
  <ele>-30.608</ele>
  <time>2026-09-01T01:17:14Z</time>
  <course>323.47</course>
  <speed>0.9860020283954795</speed>
  <fix>3d</fix>
</trkpt>
<trkpt lat="33.8099596" lon="-118.394134">
  <ele>-29.82</ele>
  <time>2026-09-01T01:17:14Z</time>
  <course>324.9</course>
  <speed>0.96</speed>
  <fix>3d</fix>
</trkpt>
<trkpt lat="33.8099613" lon="-118.3941358">
  <ele>-30.632</ele>
  <time>2026-09-01T01:17:14Z</time>
  <course>323.48</course>
  <speed>0.9860020283954795</speed>
  <fix>3d</fix>
</trkpt>
<trkpt lat="33.8099596" lon="-118.394134">
  <ele>-29.82</ele>
  <time>2026-09-01T01:17:14Z</time>
  <course>324.9</course>
  <speed>0.96</speed>
  <fix>3d</fix>
</trkpt>
<trkpt lat="33.809962" lon="-118.3941364">
  <ele>-30.656</ele>
  <time>2026-09-01T01:17:14Z</time>
  <course>323.47</course>
  <speed>0.9860020283954795</speed>
  <fix>3d</fix>
</trkpt>
<trkpt lat="33.809961" lon="-118.3941352">
  <ele>-29.86</ele>
  <time>2026-09-01T01:17:14Z</time>
  <course>324.91</course>
  <speed>0.96</speed>
  <fix>3d</fix>
</trkpt>
<trkpt lat="33.8099627" lon="-118.394137">
  <ele>-30.679</ele>
  <time>2026-09-01T01:17:14Z</time>
  <course>323.46</course>
  <speed>0.9860020283954795</speed>
  <fix>3d</fix>
</trkpt>
<trkpt lat="33.809961" lon="-118.3941352">
  <ele>-29.86</ele>
  <time>2026-09-01T01:17:14Z</time>
  <course>324.91</course>
  <speed>0.96</speed>
  <fix>3d</fix>
</trkpt>
<trkpt lat="33.8099634" lon="-118.3941376">
  <ele>-30.702</ele>
  <time>2026-09-01T01:17:14Z</time>
  <course>323.44</course>
  <speed>0.9860020283954795</speed>
  <fix>3d</fix>
</trkpt>
<trkpt lat="33.8099623" lon="-118.3941364">
  <ele>-29.9</ele>
  <time>2026-09-01T01:17:14Z</time>
  <course>324.87</course>
  <speed>0.96</speed>
  <fix>3d</fix>
</trkpt>
<trkpt lat="33.8099641" lon="-118.3941382">
  <ele>-30.725</ele>
  <time>2026-09-01T01:17:14Z</time>
  <course>323.43</course>
  <speed>0.9860020283954795</speed>
  <fix>3d</fix>
</trkpt>
<trkpt lat="33.8099623" lon="-118.3941364">
  <ele>-29.9</ele>
  <time>2026-09-01T01:17:14Z</time>
  <course>324.87</course>
  <speed>0.96</speed>
  <fix>3d</fix>
</trkpt>
<trkpt lat="33.8099648" lon="-118.3941388">
  <ele>-30.747</ele>
  <time>2026-09-01T01:17:14Z</time>
  <course>323.43</course>
  <speed>0.9860020283954795</speed>
  <fix>3d</fix>
</trkpt>
<trkpt lat="33.8099638" lon="-118.3941376">
  <ele>-29.94</ele>
  <time>2026-09-01T01:17:14Z</time>
  <course>324.86</course>
  <speed>0.96</speed>
  <fix>3d</fix>
</trkpt>
<trkpt lat="33.8099655" lon="-118.3941394">
  <ele>-30.769</ele>
  <time>2026-09-01T01:17:14Z</time>
  <course>323.44</course>
  <speed>0.9860020283954795</speed>
  <fix>3d</fix>
</trkpt>
<trkpt lat="33.8099638" lon="-118.3941376">
  <ele>-29.94</ele>
  <time>2026-09-01T01:17:14Z</time>
  <course>324.86</course>
  <speed>0.96</speed>
  <fix>3d</fix>
</trkpt>
<trkpt lat="33.8099662" lon="-118.39414">
  <ele>-30.788</ele>
  <time>2026-09-01T01:17:14Z</time>
  <course>323.45</course>
  <speed>0.9860020283954795</speed>
  <fix>3d</fix>
</trkpt>
<trkpt lat="33.8099652" lon="-118.3941388">
  <ele>-29.99</ele>
  <time>2026-09-01T01:17:14Z</time>
  <course>324.88</course>
  <speed>0.97</speed>
  <fix>3d</fix>
</trkpt>
<trkpt lat="33.8099669" lon="-118.3941406">
  <ele>-30.808</ele>
  <time>2026-09-01T01:17:14Z</time>
  <course>323.46</course>
  <speed>0.9860020283954795</speed>
  <fix>3d</fix>
</trkpt>
<trkpt lat="33.8099652" lon="-118.3941388">
  <ele>-29.99</ele>
  <time>2026-09-01T01:17:14Z</time>
  <course>324.88</course>
  <speed>0.97</speed>
  <fix>3d</fix>
</trkpt>
<trkpt lat="33.8099676" lon="-118.3941412">
  <ele>-30.827</ele>
  <time>2026-09-01T01:17:14Z</time>
  <course>323.46</course>
  <speed>0.9860020283954795</speed>
  <fix>3d</fix>
</trkpt>
<trkpt lat="33.8099666" lon="-118.39414">
  <ele>-30.02</ele>
  <time>2026-09-01T01:17:14Z</time>
  <course>324.89</course>
  <speed>0.97</speed>
  <fix>3d</fix>
</trkpt>
<trkpt lat="33.8099683" lon="-118.3941418">
  <ele>-30.847</ele>
  <time>2026-09-01T01:17:14Z</time>
  <course>323.45</course>
  <speed>0.9860020283954795</speed>
  <fix>3d</fix>
</trkpt>
<trkpt lat="33.8099666" lon="-118.39414">
  <ele>-30.02</ele>
  <time>2026-09-01T01:17:14Z</time>
  <course>324.89</course>
  <speed>0.97</speed>
  <fix>3d</fix>
</trkpt>
<trkpt lat="33.809969" lon="-118.3941424">
  <ele>-30.866</ele>
  <time>2026-09-01T01:17:14Z</time>
  <course>323.45</course>
  <speed>0.9860020283954795</speed>
  <fix>3d</fix>
</trkpt>
<trkpt lat="33.8099681" lon="-118.3941412">
  <ele>-30.07</ele>
  <time>2026-09-01T01:17:14Z</time>
  <course>324.87</course>
  <speed>0.97</speed>
  <fix>3d</fix>
</trkpt>
<trkpt lat="33.8099698" lon="-118.394143">
  <ele>-30.885</ele>
  <time>2026-09-01T01:17:14Z</time>
  <course>323.46</course>
  <speed>0.9860020283954795</speed>
  <fix>3d</fix>
</trkpt>
<trkpt lat="33.8099681" lon="-118.3941412">
  <ele>-30.07</ele>
  <time>2026-09-01T01:17:14Z</time>
  <course>324.87</course>
  <speed>0.97</speed>
  <fix>3d</fix>
</trkpt>
<trkpt lat="33.8099705" lon="-118.3941436">
  <ele>-30.904</ele>
  <time>2026-09-01T01:17:14Z</time>
  <course>323.44</course>
  <speed>0.9860020283954795</speed>
  <fix>3d</fix>
</trkpt>
<trkpt lat="33.8099695" lon="-118.3941424">
  <ele>-30.11</ele>
  <time>2026-09-01T01:17:14Z</time>
  <course>324.85</course>
  <speed>0.97</speed>
  <fix>3d</fix>
</trkpt>
<trkpt lat="33.8099712" lon="-118.3941442">
  <ele>-30.924</ele>
  <time>2026-09-01T01:17:14Z</time>
  <course>323.43</course>
  <speed>0.9860020283954795</speed>
  <fix>3d</fix>
</trkpt>
<trkpt lat="33.8099695" lon="-118.3941424">
  <ele>-30.11</ele>
  <time>2026-09-01T01:17:14Z</time>
  <course>324.85</course>
  <speed>0.97</speed>
  <fix>3d</fix>
</trkpt>
<trkpt lat="33.8099719" lon="-118.3941448">
  <ele>-30.944</ele>
  <time>2026-09-01T01:17:14Z</time>
  <course>323.41</course>
  <speed>0.9860020283954795</speed>
  <fix>3d</fix>
</trkpt>
<trkpt lat="33.809971" lon="-118.3941436">
  <ele>-30.15</ele>
  <time>2026-09-01T01:17:14Z</time>
  <course>324.82</course>
  <speed>0.97</speed>
  <fix>3d</fix>
</trkpt>
<trkpt lat="33.8099726" lon="-118.3941454">
  <ele>-30.963</ele>
  <time>2026-09-01T01:17:14Z</time>
  <course>323.38</course>
  <speed>0.9860020283954795</speed>
  <fix>3d</fix>
</trkpt>
<trkpt lat="33.809971" lon="-118.3941436">
  <ele>-30.15</ele>
  <time>2026-09-01T01:17:14Z</time>
  <course>324.82</course>
  <speed>0.97</speed>
  <fix>3d</fix>
</trkpt>
<trkpt lat="33.8099733" lon="-118.394146">
  <ele>-30.984</ele>
  <time>2026-09-01T01:17:14Z</time>
  <course>323.35</course>
  <speed>0.9860020283954795</speed>
  <fix>3d</fix>
</trkpt>
<trkpt lat="33.8099724" lon="-118.3941448">
  <ele>-30.18</ele>
  <time>2026-09-01T01:17:14Z</time>
  <course>324.76</course>
  <speed>0.97</speed>
  <fix>3d</fix>
</trkpt>
<trkpt lat="33.809974" lon="-118.3941466">
  <ele>-31.004</ele>
  <time>2026-09-01T01:17:14Z</time>
  <course>323.32</course>
  <speed>0.9860020283954795</speed>
  <fix>3d</fix>
</trkpt>
<trkpt lat="33.8099724" lon="-118.3941448">
  <ele>-30.18</ele>
  <time>2026-09-01T01:17:14Z</time>
  <course>324.76</course>
  <speed>0.97</speed>
  <fix>3d</fix>
</trkpt>
<trkpt lat="33.8099748" lon="-118.3941472">
  <ele>-31.025</ele>
  <time>2026-09-01T01:17:14Z</time>
  <course>323.28</course>
  <speed>0.9860020283954795</speed>
  <fix>3d</fix>
</trkpt>
<trkpt lat="33.8099738" lon="-118.3941461">
  <ele>-30.23</ele>
  <time>2026-09-01T01:17:14Z</time>
  <course>324.68</course>
  <speed>0.97</speed>
  <fix>3d</fix>
</trkpt>
<trkpt lat="33.8099755" lon="-118.3941478">
  <ele>-31.046</ele>
  <time>2026-09-01T01:17:14Z</time>
  <course>323.25</course>
  <speed>0.9860020283954795</speed>
  <fix>3d</fix>
</trkpt>
<trkpt lat="33.8099738" lon="-118.3941461">
  <ele>-30.23</ele>
  <time>2026-09-01T01:17:14Z</time>
  <course>324.68</course>
  <speed>0.97</speed>
  <fix>3d</fix>
</trkpt>
<trkpt lat="33.8099762" lon="-118.3941484">
  <ele>-31.07</ele>
  <time>2026-09-01T01:17:14Z</time>
  <course>323.24</course>
  <speed>0.9860020283954795</speed>
  <fix>3d</fix>
</trkpt>
<trkpt lat="33.8099753" lon="-118.3941472">
  <ele>-30.27</ele>
  <time>2026-09-01T01:17:14Z</time>
  <course>324.66</course>
  <speed>0.97</speed>
  <fix>3d</fix>
</trkpt>
<trkpt lat="33.8099769" lon="-118.3941491">
  <ele>-31.094</ele>
  <time>2026-09-01T01:17:14Z</time>
  <course>323.24</course>
  <speed>0.9860020283954795</speed>
  <fix>3d</fix>
</trkpt>
<trkpt lat="33.8099753" lon="-118.3941472">
  <ele>-30.27</ele>
  <time>2026-09-01T01:17:14Z</time>
  <course>324.66</course>
  <speed>0.97</speed>
  <fix>3d</fix>
</trkpt>
<trkpt lat="33.8099776" lon="-118.3941497">
  <ele>-31.119</ele>
  <time>2026-09-01T01:17:14Z</time>
  <course>323.22</course>
  <speed>0.9860020283954795</speed>
  <fix>3d</fix>
</trkpt>
<trkpt lat="33.8099767" lon="-118.3941485">
  <ele>-30.32</ele>
  <time>2026-09-01T01:17:14Z</time>
  <course>324.65</course>
  <speed>0.97</speed>
  <fix>3d</fix>
</trkpt>
<trkpt lat="33.8099784" lon="-118.3941503">
  <ele>-31.144</ele>
  <time>2026-09-01T01:17:14Z</time>
  <course>323.2</course>
  <speed>0.9860020283954795</speed>
  <fix>3d</fix>
</trkpt>
<trkpt lat="33.8099767" lon="-118.3941485">
  <ele>-30.32</ele>
  <time>2026-09-01T01:17:14Z</time>
  <course>324.65</course>
  <speed>0.97</speed>
  <fix>3d</fix>
</trkpt>
<trkpt lat="33.8099791" lon="-118.3941509">
  <ele>-31.168</ele>
  <time>2026-09-01T01:17:14Z</time>
  <course>323.19</course>
  <speed>0.9860020283954795</speed>
  <fix>3d</fix>
</trkpt>
<trkpt lat="33.809978" lon="-118.3941496">
  <ele>-30.36</ele>
  <time>2026-09-01T01:17:14Z</time>
  <course>324.61</course>
  <speed>0.97</speed>
  <fix>3d</fix>
</trkpt>
<trkpt lat="33.8099798" lon="-118.3941515">
  <ele>-31.191</ele>
  <time>2026-09-01T01:17:14Z</time>
  <course>323.18</course>
  <speed>1.0</speed>
  <fix>3d</fix>
</trkpt>
<trkpt lat="33.809978" lon="-118.3941496">
  <ele>-30.36</ele>
  <time>2026-09-01T01:17:14Z</time>
  <course>324.61</course>
  <speed>0.97</speed>
  <fix>3d</fix>
</trkpt>
<trkpt lat="33.8099805" lon="-118.3941521">
  <ele>-31.215</ele>
  <time>2026-09-01T01:17:14Z</time>
  <course>323.18</course>
  <speed>1.0</speed>
  <fix>3d</fix>
</trkpt>
<trkpt lat="33.8099795" lon="-118.3941509">
  <ele>-30.41</ele>
  <time>2026-09-01T01:17:14Z</time>
  <course>324.6</course>
  <speed>0.97</speed>
  <fix>3d</fix>
</trkpt>
<trkpt lat="33.8099812" lon="-118.3941527">
  <ele>-31.239</ele>
  <time>2026-09-01T01:17:14Z</time>
  <course>323.19</course>
  <speed>1.0</speed>
  <fix>3d</fix>
</trkpt>
<trkpt lat="33.8099795" lon="-118.3941509">
  <ele>-30.41</ele>
  <time>2026-09-01T01:17:14Z</time>
  <course>324.6</course>
  <speed>0.97</speed>
  <fix>3d</fix>
</trkpt>
<trkpt lat="33.8099819" lon="-118.3941533">
  <ele>-31.262</ele>
  <time>2026-09-01T01:17:14Z</time>
  <course>323.21</course>
  <speed>1.0</speed>
  <fix>3d</fix>
</trkpt>
<trkpt lat="33.809981" lon="-118.3941522">
  <ele>-30.45</ele>
  <time>2026-09-01T01:17:14Z</time>
  <course>324.63</course>
  <speed>0.97</speed>
  <fix>3d</fix>
</trkpt>
<trkpt lat="33.8099826" lon="-118.3941539">
  <ele>-31.286</ele>
  <time>2026-09-01T01:17:14Z</time>
  <course>323.23</course>
  <speed>1.0</speed>
  <fix>3d</fix>
</trkpt>
<trkpt lat="33.809981" lon="-118.3941522">
  <ele>-30.45</ele>
  <time>2026-09-01T01:17:14Z</time>
  <course>324.63</course>
  <speed>0.97</speed>
  <fix>3d</fix>
</trkpt>
<trkpt lat="33.8099834" lon="-118.3941545">
  <ele>-31.309</ele>
  <time>2026-09-01T01:17:14Z</time>
  <course>323.24</course>
  <speed>0.9940321926376429</speed>
  <fix>3d</fix>
</trkpt>
<trkpt lat="33.8099823" lon="-118.3941534">
  <ele>-30.49</ele>
  <time>2026-09-01T01:17:14Z</time>
  <course>324.67</course>
  <speed>0.98</speed>
  <fix>3d</fix>
</trkpt>
<trkpt lat="33.8099841" lon="-118.3941551">
  <ele>-31.33</ele>
  <time>2026-09-01T01:17:14Z</time>
  <course>323.27</course>
  <speed>1.0</speed>
  <fix>3d</fix>
</trkpt>
<trkpt lat="33.8099823" lon="-118.3941534">
  <ele>-30.49</ele>
  <time>2026-09-01T01:17:14Z</time>
  <course>324.67</course>
  <speed>0.98</speed>
  <fix>3d</fix>
</trkpt>
<trkpt lat="33.8099848" lon="-118.3941558">
  <ele>-31.352</ele>
  <time>2026-09-01T01:17:14Z</time>
  <course>323.3</course>
  <speed>0.9940321926376429</speed>
  <fix>3d</fix>
</trkpt>
<trkpt lat="33.8099838" lon="-118.3941546">
  <ele>-30.52</ele>
  <time>2026-09-01T01:17:14Z</time>
  <course>324.74</course>
  <speed>0.98</speed>
  <fix>3d</fix>
</trkpt>
<trkpt lat="33.8099855" lon="-118.3941564">
  <ele>-31.372</ele>
  <time>2026-09-01T01:17:14Z</time>
  <course>323.35</course>
  <speed>1.0</speed>
  <fix>3d</fix>
</trkpt>
<trkpt lat="33.8099838" lon="-118.3941546">
  <ele>-30.52</ele>
  <time>2026-09-01T01:17:14Z</time>
  <course>324.74</course>
  <speed>0.98</speed>
  <fix>3d</fix>
</trkpt>
<trkpt lat="33.8099862" lon="-118.394157">
  <ele>-31.392</ele>
  <time>2026-09-01T01:17:14Z</time>
  <course>323.39</course>
  <speed>0.9940321926376429</speed>
  <fix>3d</fix>
</trkpt>
<trkpt lat="33.8099852" lon="-118.3941558">
  <ele>-30.57</ele>
  <time>2026-09-01T01:17:14Z</time>
  <course>324.82</course>
  <speed>0.98</speed>
  <fix>3d</fix>
</trkpt>
<trkpt lat="33.8099869" lon="-118.3941576">
  <ele>-31.413</ele>
  <time>2026-09-01T01:17:14Z</time>
  <course>323.42</course>
  <speed>1.0</speed>
  <fix>3d</fix>
</trkpt>
<trkpt lat="33.8099852" lon="-118.3941558">
  <ele>-30.57</ele>
  <time>2026-09-01T01:17:14Z</time>
  <course>324.82</course>
  <speed>0.98</speed>
  <fix>3d</fix>
</trkpt>
<trkpt lat="33.8099877" lon="-118.3941582">
  <ele>-31.433</ele>
  <time>2026-09-01T01:17:14Z</time>
  <course>323.44</course>
  <speed>1.0</speed>
  <fix>3d</fix>
</trkpt>
<trkpt lat="33.8099867" lon="-118.3941571">
  <ele>-30.61</ele>
  <time>2026-09-01T01:17:14Z</time>
  <course>324.84</course>
  <speed>0.98</speed>
  <fix>3d</fix>
</trkpt>
<trkpt lat="33.8099884" lon="-118.3941588">
  <ele>-31.453</ele>
  <time>2026-09-01T01:17:14Z</time>
  <course>323.47</course>
  <speed>1.0</speed>
  <fix>3d</fix>
</trkpt>
<trkpt lat="33.8099867" lon="-118.3941571">
  <ele>-30.61</ele>
  <time>2026-09-01T01:17:14Z</time>
  <course>324.84</course>
  <speed>0.98</speed>
  <fix>3d</fix>
</trkpt>
<trkpt lat="33.8099891" lon="-118.3941594">
  <ele>-31.473</ele>
  <time>2026-09-01T01:17:14Z</time>
  <course>323.49</course>
  <speed>1.0</speed>
  <fix>3d</fix>
</trkpt>
<trkpt lat="33.8099882" lon="-118.3941582">
  <ele>-30.65</ele>
  <time>2026-09-01T01:17:14Z</time>
  <course>324.86</course>
  <speed>0.98</speed>
  <fix>3d</fix>
</trkpt>
<trkpt lat="33.8099898" lon="-118.39416">
  <ele>-31.493</ele>
  <time>2026-09-01T01:17:14Z</time>
  <course>323.5</course>
  <speed>1.0</speed>
  <fix>3d</fix>
</trkpt>
<trkpt lat="33.8099882" lon="-118.3941582">
  <ele>-30.65</ele>
  <time>2026-09-01T01:17:14Z</time>
  <course>324.86</course>
  <speed>0.98</speed>
  <fix>3d</fix>
</trkpt>
<trkpt lat="33.8099905" lon="-118.3941606">
  <ele>-31.515</ele>
  <time>2026-09-01T01:17:14Z</time>
  <course>323.49</course>
  <speed>1.0</speed>
  <fix>3d</fix>
</trkpt>
<trkpt lat="33.8099896" lon="-118.3941595">
  <ele>-30.68</ele>
  <time>2026-09-01T01:17:14Z</time>
  <course>324.84</course>
  <speed>0.98</speed>
  <fix>3d</fix>
</trkpt>
<trkpt lat="33.8099913" lon="-118.3941613">
  <ele>-31.537</ele>
  <time>2026-09-01T01:17:14Z</time>
  <course>323.46</course>
  <speed>1.0</speed>
  <fix>3d</fix>
</trkpt>
<trkpt lat="33.8099896" lon="-118.3941595">
  <ele>-30.68</ele>
  <time>2026-09-01T01:17:14Z</time>
  <course>324.84</course>
  <speed>0.98</speed>
  <fix>3d</fix>
</trkpt>
<trkpt lat="33.809992" lon="-118.3941619">
  <ele>-31.559</ele>
  <time>2026-09-01T01:17:14Z</time>
  <course>323.43</course>
  <speed>1.0</speed>
  <fix>3d</fix>
</trkpt>
<trkpt lat="33.8099911" lon="-118.3941607">
  <ele>-30.73</ele>
  <time>2026-09-01T01:17:14Z</time>
  <course>324.79</course>
  <speed>0.98</speed>
  <fix>3d</fix>
</trkpt>
<trkpt lat="33.8099927" lon="-118.3941625">
  <ele>-31.58</ele>
  <time>2026-09-01T01:17:14Z</time>
  <course>323.41</course>
  <speed>1.0</speed>
  <fix>3d</fix>
</trkpt>
<trkpt lat="33.8099911" lon="-118.3941607">
  <ele>-30.73</ele>
  <time>2026-09-01T01:17:14Z</time>
  <course>324.79</course>
  <speed>0.98</speed>
  <fix>3d</fix>
</trkpt>
<trkpt lat="33.8099935" lon="-118.3941631">
  <ele>-31.602</ele>
  <time>2026-09-01T01:17:14Z</time>
  <course>323.38</course>
  <speed>1.0</speed>
  <fix>3d</fix>
</trkpt>
<trkpt lat="33.8099925" lon="-118.394162">
  <ele>-30.77</ele>
  <time>2026-09-01T01:17:14Z</time>
  <course>324.74</course>
  <speed>0.98</speed>
  <fix>3d</fix>
</trkpt>
<trkpt lat="33.8099942" lon="-118.3941637">
  <ele>-31.623</ele>
  <time>2026-09-01T01:17:14Z</time>
  <course>323.37</course>
  <speed>1.0</speed>
  <fix>3d</fix>
</trkpt>
<trkpt lat="33.8099925" lon="-118.394162">
  <ele>-30.77</ele>
  <time>2026-09-01T01:17:14Z</time>
  <course>324.74</course>
  <speed>0.98</speed>
  <fix>3d</fix>
</trkpt>
<trkpt lat="33.8099949" lon="-118.3941643">
  <ele>-31.644</ele>
  <time>2026-09-01T01:17:14Z</time>
  <course>323.36</course>
  <speed>1.0</speed>
  <fix>3d</fix>
</trkpt>
<trkpt lat="33.8099939" lon="-118.3941632">
  <ele>-30.82</ele>
  <time>2026-09-01T01:17:14Z</time>
  <course>324.73</course>
  <speed>0.98</speed>
  <fix>3d</fix>
</trkpt>
<trkpt lat="33.8099956" lon="-118.394165">
  <ele>-31.667</ele>
  <time>2026-09-01T01:17:14Z</time>
  <course>323.37</course>
  <speed>1.0</speed>
  <fix>3d</fix>
</trkpt>
<trkpt lat="33.8099939" lon="-118.3941632">
  <ele>-30.82</ele>
  <time>2026-09-01T01:17:14Z</time>
  <course>324.73</course>
  <speed>0.98</speed>
  <fix>3d</fix>
</trkpt>
<trkpt lat="33.8099964" lon="-118.3941656">
  <ele>-31.689</ele>
  <time>2026-09-01T01:17:14Z</time>
  <course>323.39</course>
  <speed>1.0</speed>
  <fix>3d</fix>
</trkpt>
<trkpt lat="33.8099954" lon="-118.3941644">
  <ele>-30.86</ele>
  <time>2026-09-01T01:17:14Z</time>
  <course>324.78</course>
  <speed>0.98</speed>
  <fix>3d</fix>
</trkpt>
<trkpt lat="33.8099971" lon="-118.3941662">
  <ele>-31.712</ele>
  <time>2026-09-01T01:17:14Z</time>
  <course>323.41</course>
  <speed>1.0</speed>
  <fix>3d</fix>
</trkpt>
<trkpt lat="33.8099954" lon="-118.3941644">
  <ele>-30.86</ele>
  <time>2026-09-01T01:17:14Z</time>
  <course>324.78</course>
  <speed>0.98</speed>
  <fix>3d</fix>
</trkpt>
<trkpt lat="33.8099978" lon="-118.3941668">
  <ele>-31.735</ele>
  <time>2026-09-01T01:17:14Z</time>
  <course>323.42</course>
  <speed>1.0</speed>
  <fix>3d</fix>
</trkpt>
<trkpt lat="33.8099968" lon="-118.3941656">
  <ele>-30.91</ele>
  <time>2026-09-01T01:17:14Z</time>
  <course>324.82</course>
  <speed>0.98</speed>
  <fix>3d</fix>
</trkpt>
<trkpt lat="33.8099985" lon="-118.3941674">
  <ele>-31.757</ele>
  <time>2026-09-01T01:17:15Z</time>
  <course>323.43</course>
  <speed>1.0</speed>
  <fix>3d</fix>
</trkpt>
<trkpt lat="33.8099968" lon="-118.3941656">
  <ele>-30.91</ele>
  <time>2026-09-01T01:17:15Z</time>
  <course>324.82</course>
  <speed>0.98</speed>
  <fix>3d</fix>
</trkpt>
<trkpt lat="33.8099993" lon="-118.394168">
  <ele>-31.78</ele>
  <time>2026-09-01T01:17:15Z</time>
  <course>323.42</course>
  <speed>1.0080178569846865</speed>
  <fix>3d</fix>
</trkpt>
<trkpt lat="33.8099982" lon="-118.3941668">
  <ele>-30.96</ele>
  <time>2026-09-01T01:17:15Z</time>
  <course>324.82</course>
  <speed>0.98</speed>
  <fix>3d</fix>
</trkpt>
<trkpt lat="33.81" lon="-118.3941686">
  <ele>-31.803</ele>
  <time>2026-09-01T01:17:15Z</time>
  <course>323.42</course>
  <speed>1.0080178569846865</speed>
  <fix>3d</fix>
</trkpt>
<trkpt lat="33.8099982" lon="-118.3941668">
  <ele>-30.96</ele>
  <time>2026-09-01T01:17:15Z</time>
  <course>324.82</course>
  <speed>0.98</speed>
  <fix>3d</fix>
</trkpt>
<trkpt lat="33.8100007" lon="-118.3941693">
  <ele>-31.826</ele>
  <time>2026-09-01T01:17:15Z</time>
  <course>323.41</course>
  <speed>1.0080178569846865</speed>
  <fix>3d</fix>
</trkpt>
<trkpt lat="33.8099997" lon="-118.3941681">
  <ele>-31.0</ele>
  <time>2026-09-01T01:17:15Z</time>
  <course>324.81</course>
  <speed>0.98</speed>
  <fix>3d</fix>
</trkpt>
<trkpt lat="33.8100014" lon="-118.3941699">
  <ele>-31.849</ele>
  <time>2026-09-01T01:17:15Z</time>
  <course>323.41</course>
  <speed>1.0080178569846865</speed>
  <fix>3d</fix>
</trkpt>
<trkpt lat="33.8099997" lon="-118.3941681">
  <ele>-31.0</ele>
  <time>2026-09-01T01:17:15Z</time>
  <course>324.81</course>
  <speed>0.98</speed>
  <fix>3d</fix>
</trkpt>
<trkpt lat="33.8100021" lon="-118.3941705">
  <ele>-31.872</ele>
  <time>2026-09-01T01:17:15Z</time>
  <course>323.42</course>
  <speed>1.0080178569846865</speed>
  <fix>3d</fix>
</trkpt>
<trkpt lat="33.8100012" lon="-118.3941693">
  <ele>-31.04</ele>
  <time>2026-09-01T01:17:15Z</time>
  <course>324.81</course>
  <speed>0.98</speed>
  <fix>3d</fix>
</trkpt>
<trkpt lat="33.8100029" lon="-118.3941711">
  <ele>-31.894</ele>
  <time>2026-09-01T01:17:15Z</time>
  <course>323.43</course>
  <speed>1.0080178569846865</speed>
  <fix>3d</fix>
</trkpt>
<trkpt lat="33.8100012" lon="-118.3941693">
  <ele>-31.04</ele>
  <time>2026-09-01T01:17:15Z</time>
  <course>324.81</course>
  <speed>0.98</speed>
  <fix>3d</fix>
</trkpt>
<trkpt lat="33.8100036" lon="-118.3941717">
  <ele>-31.917</ele>
  <time>2026-09-01T01:17:15Z</time>
  <course>323.42</course>
  <speed>1.0080178569846865</speed>
  <fix>3d</fix>
</trkpt>
<trkpt lat="33.8100026" lon="-118.3941706">
  <ele>-31.09</ele>
  <time>2026-09-01T01:17:15Z</time>
  <course>324.81</course>
  <speed>0.98</speed>
  <fix>3d</fix>
</trkpt>
<trkpt lat="33.8100043" lon="-118.3941723">
  <ele>-31.939</ele>
  <time>2026-09-01T01:17:15Z</time>
  <course>323.42</course>
  <speed>1.0080178569846865</speed>
  <fix>3d</fix>
</trkpt>
<trkpt lat="33.8100026" lon="-118.3941706">
  <ele>-31.09</ele>
  <time>2026-09-01T01:17:15Z</time>
  <course>324.81</course>
  <speed>0.98</speed>
  <fix>3d</fix>
</trkpt>
<trkpt lat="33.810005" lon="-118.3941729">
  <ele>-31.962</ele>
  <time>2026-09-01T01:17:15Z</time>
  <course>323.42</course>
  <speed>1.0080178569846865</speed>
  <fix>3d</fix>
</trkpt>
<trkpt lat="33.8100041" lon="-118.3941717">
  <ele>-31.13</ele>
  <time>2026-09-01T01:17:15Z</time>
  <course>324.81</course>
  <speed>0.98</speed>
  <fix>3d</fix>
</trkpt>
<trkpt lat="33.8100058" lon="-118.3941736">
  <ele>-31.984</ele>
  <time>2026-09-01T01:17:15Z</time>
  <course>323.43</course>
  <speed>1.0080178569846865</speed>
  <fix>3d</fix>
</trkpt>
<trkpt lat="33.8100041" lon="-118.3941717">
  <ele>-31.13</ele>
  <time>2026-09-01T01:17:15Z</time>
  <course>324.81</course>
  <speed>0.98</speed>
  <fix>3d</fix>
</trkpt>
<trkpt lat="33.8100065" lon="-118.3941742">
  <ele>-32.006</ele>
  <time>2026-09-01T01:17:15Z</time>
  <course>323.41</course>
  <speed>1.0080178569846865</speed>
  <fix>3d</fix>
</trkpt>
<trkpt lat="33.8100055" lon="-118.394173">
  <ele>-31.17</ele>
  <time>2026-09-01T01:17:15Z</time>
  <course>324.8</course>
  <speed>0.98</speed>
  <fix>3d</fix>
</trkpt>
<trkpt lat="33.8100073" lon="-118.3941748">
  <ele>-32.027</ele>
  <time>2026-09-01T01:17:15Z</time>
  <course>323.39</course>
  <speed>1.0080178569846865</speed>
  <fix>3d</fix>
</trkpt>
<trkpt lat="33.8100055" lon="-118.394173">
  <ele>-31.17</ele>
  <time>2026-09-01T01:17:15Z</time>
  <course>324.8</course>
  <speed>0.98</speed>
  <fix>3d</fix>
</trkpt>
<trkpt lat="33.810008" lon="-118.3941754">
  <ele>-32.046</ele>
  <time>2026-09-01T01:17:15Z</time>
  <course>323.38</course>
  <speed>1.0080178569846865</speed>
  <fix>3d</fix>
</trkpt>
<trkpt lat="33.810007" lon="-118.3941743">
  <ele>-31.21</ele>
  <time>2026-09-01T01:17:15Z</time>
  <course>324.77</course>
  <speed>0.99</speed>
  <fix>3d</fix>
</trkpt>
<trkpt lat="33.8100087" lon="-118.3941761">
  <ele>-32.065</ele>
  <time>2026-09-01T01:17:15Z</time>
  <course>323.38</course>
  <speed>1.0080178569846865</speed>
  <fix>3d</fix>
</trkpt>
<trkpt lat="33.810007" lon="-118.3941743">
  <ele>-31.21</ele>
  <time>2026-09-01T01:17:15Z</time>
  <course>324.77</course>
  <speed>0.99</speed>
  <fix>3d</fix>
</trkpt>
<trkpt lat="33.8100094" lon="-118.3941767">
  <ele>-32.084</ele>
  <time>2026-09-01T01:17:15Z</time>
  <course>323.38</course>
  <speed>1.0080178569846865</speed>
  <fix>3d</fix>
</trkpt>
<trkpt lat="33.8100084" lon="-118.3941755">
  <ele>-31.25</ele>
  <time>2026-09-01T01:17:15Z</time>
  <course>324.78</course>
  <speed>0.99</speed>
  <fix>3d</fix>
</trkpt>
<trkpt lat="33.8100102" lon="-118.3941773">
  <ele>-32.104</ele>
  <time>2026-09-01T01:17:15Z</time>
  <course>323.4</course>
  <speed>1.0080178569846865</speed>
  <fix>3d</fix>
</trkpt>
<trkpt lat="33.8100084" lon="-118.3941755">
  <ele>-31.25</ele>
  <time>2026-09-01T01:17:15Z</time>
  <course>324.78</course>
  <speed>0.99</speed>
  <fix>3d</fix>
</trkpt>
<trkpt lat="33.8100109" lon="-118.3941779">
  <ele>-32.124</ele>
  <time>2026-09-01T01:17:15Z</time>
  <course>323.41</course>
  <speed>1.0080178569846865</speed>
  <fix>3d</fix>
</trkpt>
<trkpt lat="33.8100099" lon="-118.3941767">
  <ele>-31.3</ele>
  <time>2026-09-01T01:17:15Z</time>
  <course>324.83</course>
  <speed>0.99</speed>
  <fix>3d</fix>
</trkpt>
<trkpt lat="33.8100116" lon="-118.3941785">
  <ele>-32.144</ele>
  <time>2026-09-01T01:17:15Z</time>
  <course>323.42</course>
  <speed>1.0080178569846865</speed>
  <fix>3d</fix>
</trkpt>
<trkpt lat="33.8100099" lon="-118.3941767">
  <ele>-31.3</ele>
  <time>2026-09-01T01:17:15Z</time>
  <course>324.83</course>
  <speed>0.99</speed>
  <fix>3d</fix>
</trkpt>
<trkpt lat="33.8100124" lon="-118.3941792">
  <ele>-32.164</ele>
  <time>2026-09-01T01:17:15Z</time>
  <course>323.43</course>
  <speed>1.0080178569846865</speed>
  <fix>3d</fix>
</trkpt>
<trkpt lat="33.8100113" lon="-118.3941779">
  <ele>-31.34</ele>
  <time>2026-09-01T01:17:15Z</time>
  <course>324.86</course>
  <speed>0.99</speed>
  <fix>3d</fix>
</trkpt>
<trkpt lat="33.8100131" lon="-118.3941798">
  <ele>-32.184</ele>
  <time>2026-09-01T01:17:15Z</time>
  <course>323.42</course>
  <speed>1.0080178569846865</speed>
  <fix>3d</fix>
</trkpt>
<trkpt lat="33.8100113" lon="-118.3941779">
  <ele>-31.34</ele>
  <time>2026-09-01T01:17:15Z</time>
  <course>324.86</course>
  <speed>0.99</speed>
  <fix>3d</fix>
</trkpt>
<trkpt lat="33.8100138" lon="-118.3941804">
  <ele>-32.206</ele>
  <time>2026-09-01T01:17:15Z</time>
  <course>323.41</course>
  <speed>1.0080178569846865</speed>
  <fix>3d</fix>
</trkpt>
<trkpt lat="33.8100128" lon="-118.3941792">
  <ele>-31.38</ele>
  <time>2026-09-01T01:17:15Z</time>
  <course>324.84</course>
  <speed>0.99</speed>
  <fix>3d</fix>
</trkpt>
<trkpt lat="33.8100145" lon="-118.394181">
  <ele>-32.228</ele>
  <time>2026-09-01T01:17:15Z</time>
  <course>323.4</course>
  <speed>1.0080178569846865</speed>
  <fix>3d</fix>
</trkpt>
<trkpt lat="33.8100128" lon="-118.3941792">
  <ele>-31.38</ele>
  <time>2026-09-01T01:17:15Z</time>
  <course>324.84</course>
  <speed>0.99</speed>
  <fix>3d</fix>
</trkpt>
<trkpt lat="33.8100153" lon="-118.3941816">
  <ele>-32.251</ele>
  <time>2026-09-01T01:17:15Z</time>
  <course>323.39</course>
  <speed>1.0080178569846865</speed>
  <fix>3d</fix>
</trkpt>
<trkpt lat="33.8100143" lon="-118.3941804">
  <ele>-31.42</ele>
  <time>2026-09-01T01:17:15Z</time>
  <course>324.82</course>
  <speed>0.99</speed>
  <fix>3d</fix>
</trkpt>
<trkpt lat="33.810016" lon="-118.3941822">
  <ele>-32.274</ele>
  <time>2026-09-01T01:17:15Z</time>
  <course>323.38</course>
  <speed>1.0140019723846694</speed>
  <fix>3d</fix>
</trkpt>
<trkpt lat="33.8100143" lon="-118.3941804">
  <ele>-31.42</ele>
  <time>2026-09-01T01:17:15Z</time>
  <course>324.82</course>
  <speed>0.99</speed>
  <fix>3d</fix>
</trkpt>
<trkpt lat="33.8100167" lon="-118.3941829">
  <ele>-32.298</ele>
  <time>2026-09-01T01:17:15Z</time>
  <course>323.37</course>
  <speed>1.0080178569846865</speed>
  <fix>3d</fix>
</trkpt>
<trkpt lat="33.8100157" lon="-118.3941817">
  <ele>-31.47</ele>
  <time>2026-09-01T01:17:15Z</time>
  <course>324.81</course>
  <speed>0.99</speed>
  <fix>3d</fix>
</trkpt>
<trkpt lat="33.8100175" lon="-118.3941835">
  <ele>-32.321</ele>
  <time>2026-09-01T01:17:15Z</time>
  <course>323.36</course>
  <speed>1.0140019723846694</speed>
  <fix>3d</fix>
</trkpt>
<trkpt lat="33.8100157" lon="-118.3941817">
  <ele>-31.47</ele>
  <time>2026-09-01T01:17:15Z</time>
  <course>324.81</course>
  <speed>0.99</speed>
  <fix>3d</fix>
</trkpt>
<trkpt lat="33.8100182" lon="-118.3941841">
  <ele>-32.344</ele>
  <time>2026-09-01T01:17:15Z</time>
  <course>323.35</course>
  <speed>1.0080178569846865</speed>
  <fix>3d</fix>
</trkpt>
<trkpt lat="33.8100172" lon="-118.3941829">
  <ele>-31.51</ele>
  <time>2026-09-01T01:17:15Z</time>
  <course>324.8</course>
  <speed>0.99</speed>
  <fix>3d</fix>
</trkpt>
<trkpt lat="33.8100189" lon="-118.3941847">
  <ele>-32.367</ele>
  <time>2026-09-01T01:17:15Z</time>
  <course>323.36</course>
  <speed>1.0140019723846694</speed>
  <fix>3d</fix>
</trkpt>
<trkpt lat="33.8100172" lon="-118.3941829">
  <ele>-31.51</ele>
  <time>2026-09-01T01:17:15Z</time>
  <course>324.8</course>
  <speed>0.99</speed>
  <fix>3d</fix>
</trkpt>
<trkpt lat="33.8100197" lon="-118.3941853">
  <ele>-32.39</ele>
  <time>2026-09-01T01:17:15Z</time>
  <course>323.36</course>
  <speed>1.0080178569846865</speed>
  <fix>3d</fix>
</trkpt>
<trkpt lat="33.8100186" lon="-118.3941841">
  <ele>-31.56</ele>
  <time>2026-09-01T01:17:15Z</time>
  <course>324.81</course>
  <speed>0.99</speed>
  <fix>3d</fix>
</trkpt>
<trkpt lat="33.8100204" lon="-118.394186">
  <ele>-32.413</ele>
  <time>2026-09-01T01:17:15Z</time>
  <course>323.36</course>
  <speed>1.0140019723846694</speed>
  <fix>3d</fix>
</trkpt>
<trkpt lat="33.8100186" lon="-118.3941841">
  <ele>-31.56</ele>
  <time>2026-09-01T01:17:15Z</time>
  <course>324.81</course>
  <speed>0.99</speed>
  <fix>3d</fix>
</trkpt>
<trkpt lat="33.8100211" lon="-118.3941866">
  <ele>-32.436</ele>
  <time>2026-09-01T01:17:15Z</time>
  <course>323.36</course>
  <speed>1.0140019723846694</speed>
  <fix>3d</fix>
</trkpt>
<trkpt lat="33.8100201" lon="-118.3941854">
  <ele>-31.6</ele>
  <time>2026-09-01T01:17:15Z</time>
  <course>324.8</course>
  <speed>0.99</speed>
  <fix>3d</fix>
</trkpt>
<trkpt lat="33.8100219" lon="-118.3941872">
  <ele>-32.458</ele>
  <time>2026-09-01T01:17:15Z</time>
  <course>323.36</course>
  <speed>1.0140019723846694</speed>
  <fix>3d</fix>
</trkpt>
<trkpt lat="33.8100201" lon="-118.3941854">
  <ele>-31.6</ele>
  <time>2026-09-01T01:17:15Z</time>
  <course>324.8</course>
  <speed>0.99</speed>
  <fix>3d</fix>
</trkpt>
<trkpt lat="33.8100226" lon="-118.3941878">
  <ele>-32.478</ele>
  <time>2026-09-01T01:17:15Z</time>
  <course>323.36</course>
  <speed>1.0140019723846694</speed>
  <fix>3d</fix>
</trkpt>
<trkpt lat="33.8100216" lon="-118.3941866">
  <ele>-31.65</ele>
  <time>2026-09-01T01:17:15Z</time>
  <course>324.8</course>
  <speed>0.99</speed>
  <fix>3d</fix>
</trkpt>
<trkpt lat="33.8100233" lon="-118.3941885">
  <ele>-32.499</ele>
  <time>2026-09-01T01:17:15Z</time>
  <course>323.36</course>
  <speed>1.0140019723846694</speed>
  <fix>3d</fix>
</trkpt>
<trkpt lat="33.8100216" lon="-118.3941866">
  <ele>-31.65</ele>
  <time>2026-09-01T01:17:15Z</time>
  <course>324.8</course>
  <speed>0.99</speed>
  <fix>3d</fix>
</trkpt>
<trkpt lat="33.8100241" lon="-118.3941891">
  <ele>-32.519</ele>
  <time>2026-09-01T01:17:15Z</time>
  <course>323.35</course>
  <speed>1.0140019723846694</speed>
  <fix>3d</fix>
</trkpt>
<trkpt lat="33.810023" lon="-118.3941879">
  <ele>-31.68</ele>
  <time>2026-09-01T01:17:15Z</time>
  <course>324.79</course>
  <speed>0.99</speed>
  <fix>3d</fix>
</trkpt>
<trkpt lat="33.8100248" lon="-118.3941897">
  <ele>-32.54</ele>
  <time>2026-09-01T01:17:15Z</time>
  <course>323.35</course>
  <speed>1.0220078277586722</speed>
  <fix>3d</fix>
</trkpt>
<trkpt lat="33.810023" lon="-118.3941879">
  <ele>-31.68</ele>
  <time>2026-09-01T01:17:15Z</time>
  <course>324.79</course>
  <speed>0.99</speed>
  <fix>3d</fix>
</trkpt>
<trkpt lat="33.8100255" lon="-118.3941903">
  <ele>-32.562</ele>
  <time>2026-09-01T01:17:15Z</time>
  <course>323.35</course>
  <speed>1.0220078277586722</speed>
  <fix>3d</fix>
</trkpt>
<trkpt lat="33.8100245" lon="-118.3941891">
  <ele>-31.73</ele>
  <time>2026-09-01T01:17:15Z</time>
  <course>324.79</course>
  <speed>0.99</speed>
  <fix>3d</fix>
</trkpt>
<trkpt lat="33.8100263" lon="-118.3941909">
  <ele>-32.583</ele>
  <time>2026-09-01T01:17:15Z</time>
  <course>323.36</course>
  <speed>1.0220078277586722</speed>
  <fix>3d</fix>
</trkpt>
<trkpt lat="33.8100245" lon="-118.3941891">
  <ele>-31.73</ele>
  <time>2026-09-01T01:17:15Z</time>
  <course>324.79</course>
  <speed>0.99</speed>
  <fix>3d</fix>
</trkpt>
<trkpt lat="33.810027" lon="-118.3941916">
  <ele>-32.605</ele>
  <time>2026-09-01T01:17:15Z</time>
  <course>323.37</course>
  <speed>1.0220078277586722</speed>
  <fix>3d</fix>
</trkpt>
<trkpt lat="33.8100259" lon="-118.3941903">
  <ele>-31.77</ele>
  <time>2026-09-01T01:17:15Z</time>
  <course>324.81</course>
  <speed>0.99</speed>
  <fix>3d</fix>
</trkpt>
<trkpt lat="33.8100277" lon="-118.3941922">
  <ele>-32.627</ele>
  <time>2026-09-01T01:17:15Z</time>
  <course>323.37</course>
  <speed>1.0140019723846694</speed>
  <fix>3d</fix>
</trkpt>
<trkpt lat="33.8100259" lon="-118.3941903">
  <ele>-31.77</ele>
  <time>2026-09-01T01:17:15Z</time>
  <course>324.81</course>
  <speed>0.99</speed>
  <fix>3d</fix>
</trkpt>
<trkpt lat="33.8100285" lon="-118.3941928">
  <ele>-32.648</ele>
  <time>2026-09-01T01:17:15Z</time>
  <course>323.37</course>
  <speed>1.0220078277586722</speed>
  <fix>3d</fix>
</trkpt>
<trkpt lat="33.8100274" lon="-118.3941916">
  <ele>-31.81</ele>
  <time>2026-09-01T01:17:15Z</time>
  <course>324.81</course>
  <speed>0.99</speed>
  <fix>3d</fix>
</trkpt>
<trkpt lat="33.8100292" lon="-118.3941934">
  <ele>-32.669</ele>
  <time>2026-09-01T01:17:15Z</time>
  <course>323.37</course>
  <speed>1.0220078277586722</speed>
  <fix>3d</fix>
</trkpt>
<trkpt lat="33.8100274" lon="-118.3941916">
  <ele>-31.81</ele>
  <time>2026-09-01T01:17:15Z</time>
  <course>324.81</course>
  <speed>0.99</speed>
  <fix>3d</fix>
</trkpt>
<trkpt lat="33.8100299" lon="-118.3941941">
  <ele>-32.69</ele>
  <time>2026-09-01T01:17:15Z</time>
  <course>323.37</course>
  <speed>1.0220078277586722</speed>
  <fix>3d</fix>
</trkpt>
<trkpt lat="33.8100289" lon="-118.3941928">
  <ele>-31.86</ele>
  <time>2026-09-01T01:17:15Z</time>
  <course>324.83</course>
  <speed>0.99</speed>
  <fix>3d</fix>
</trkpt>
<trkpt lat="33.8100307" lon="-118.3941947">
  <ele>-32.711</ele>
  <time>2026-09-01T01:17:15Z</time>
  <course>323.37</course>
  <speed>1.0220078277586722</speed>
  <fix>3d</fix>
</trkpt>
<trkpt lat="33.8100289" lon="-118.3941928">
  <ele>-31.86</ele>
  <time>2026-09-01T01:17:15Z</time>
  <course>324.83</course>
  <speed>0.99</speed>
  <fix>3d</fix>
</trkpt>
<trkpt lat="33.8100314" lon="-118.3941953">
  <ele>-32.733</ele>
  <time>2026-09-01T01:17:15Z</time>
  <course>323.36</course>
  <speed>1.0220078277586722</speed>
  <fix>3d</fix>
</trkpt>
<trkpt lat="33.8100303" lon="-118.3941941">
  <ele>-31.9</ele>
  <time>2026-09-01T01:17:15Z</time>
  <course>324.84</course>
  <speed>0.99</speed>
  <fix>3d</fix>
</trkpt>
<trkpt lat="33.8100321" lon="-118.3941959">
  <ele>-32.757</ele>
  <time>2026-09-01T01:17:15Z</time>
  <course>323.35</course>
  <speed>1.0220078277586722</speed>
  <fix>3d</fix>
</trkpt>
<trkpt lat="33.8100303" lon="-118.3941941">
  <ele>-31.9</ele>
  <time>2026-09-01T01:17:15Z</time>
  <course>324.84</course>
  <speed>0.99</speed>
  <fix>3d</fix>
</trkpt>
<trkpt lat="33.8100329" lon="-118.3941965">
  <ele>-32.78</ele>
  <time>2026-09-01T01:17:15Z</time>
  <course>323.35</course>
  <speed>1.0220078277586722</speed>
  <fix>3d</fix>
</trkpt>
<trkpt lat="33.8100318" lon="-118.3941953">
  <ele>-31.93</ele>
  <time>2026-09-01T01:17:15Z</time>
  <course>324.84</course>
  <speed>0.99</speed>
  <fix>3d</fix>
</trkpt>
<trkpt lat="33.8100336" lon="-118.3941972">
  <ele>-32.803</ele>
  <time>2026-09-01T01:17:15Z</time>
  <course>323.36</course>
  <speed>1.0220078277586722</speed>
  <fix>3d</fix>
</trkpt>
<trkpt lat="33.8100318" lon="-118.3941953">
  <ele>-31.93</ele>
  <time>2026-09-01T01:17:15Z</time>
  <course>324.84</course>
  <speed>0.99</speed>
  <fix>3d</fix>
</trkpt>
<trkpt lat="33.8100343" lon="-118.3941978">
  <ele>-32.827</ele>
  <time>2026-09-01T01:17:15Z</time>
  <course>323.36</course>
  <speed>1.0220078277586722</speed>
  <fix>3d</fix>
</trkpt>
<trkpt lat="33.8100333" lon="-118.3941965">
  <ele>-31.98</ele>
  <time>2026-09-01T01:17:15Z</time>
  <course>324.85</course>
  <speed>0.99</speed>
  <fix>3d</fix>
</trkpt>
<trkpt lat="33.810035" lon="-118.3941984">
  <ele>-32.85</ele>
  <time>2026-09-01T01:17:15Z</time>
  <course>323.35</course>
  <speed>1.0220078277586722</speed>
  <fix>3d</fix>
</trkpt>
<trkpt lat="33.8100333" lon="-118.3941965">
  <ele>-31.98</ele>
  <time>2026-09-01T01:17:15Z</time>
  <course>324.85</course>
  <speed>0.99</speed>
  <fix>3d</fix>
</trkpt>
<trkpt lat="33.8100358" lon="-118.394199">
  <ele>-32.873</ele>
  <time>2026-09-01T01:17:15Z</time>
  <course>323.33</course>
  <speed>1.0220078277586722</speed>
  <fix>3d</fix>
</trkpt>
<trkpt lat="33.8100347" lon="-118.3941978">
  <ele>-32.02</ele>
  <time>2026-09-01T01:17:15Z</time>
  <course>324.82</course>
  <speed>0.99</speed>
  <fix>3d</fix>
</trkpt>
<trkpt lat="33.8100365" lon="-118.3941997">
  <ele>-32.896</ele>
  <time>2026-09-01T01:17:15Z</time>
  <course>323.31</course>
  <speed>1.0220078277586722</speed>
  <fix>3d</fix>
</trkpt>
<trkpt lat="33.8100347" lon="-118.3941978">
  <ele>-32.02</ele>
  <time>2026-09-01T01:17:15Z</time>
  <course>324.82</course>
  <speed>0.99</speed>
  <fix>3d</fix>
</trkpt>
<trkpt lat="33.8100373" lon="-118.3942003">
  <ele>-32.917</ele>
  <time>2026-09-01T01:17:15Z</time>
  <course>323.3</course>
  <speed>1.0220078277586722</speed>
  <fix>3d</fix>
</trkpt>
<trkpt lat="33.8100362" lon="-118.394199">
  <ele>-32.07</ele>
  <time>2026-09-01T01:17:15Z</time>
  <course>324.79</course>
  <speed>0.99</speed>
  <fix>3d</fix>
</trkpt>
<trkpt lat="33.810038" lon="-118.3942009">
  <ele>-32.939</ele>
  <time>2026-09-01T01:17:15Z</time>
  <course>323.29</course>
  <speed>1.0220078277586722</speed>
  <fix>3d</fix>
</trkpt>
<trkpt lat="33.8100362" lon="-118.394199">
  <ele>-32.07</ele>
  <time>2026-09-01T01:17:15Z</time>
  <course>324.79</course>
  <speed>0.99</speed>
  <fix>3d</fix>
</trkpt>
<trkpt lat="33.8100387" lon="-118.3942015">
  <ele>-32.961</ele>
  <time>2026-09-01T01:17:15Z</time>
  <course>323.28</course>
  <speed>1.0220078277586722</speed>
  <fix>3d</fix>
</trkpt>
<trkpt lat="33.8100376" lon="-118.3942003">
  <ele>-32.11</ele>
  <time>2026-09-01T01:17:15Z</time>
  <course>324.77</course>
  <speed>0.99</speed>
  <fix>3d</fix>
</trkpt>
<trkpt lat="33.8100395" lon="-118.3942021">
  <ele>-32.983</ele>
  <time>2026-09-01T01:17:15Z</time>
  <course>323.29</course>
  <speed>1.0220078277586722</speed>
  <fix>3d</fix>
</trkpt>
<trkpt lat="33.8100376" lon="-118.3942003">
  <ele>-32.11</ele>
  <time>2026-09-01T01:17:15Z</time>
  <course>324.77</course>
  <speed>0.99</speed>
  <fix>3d</fix>
</trkpt>
<trkpt lat="33.8100402" lon="-118.3942028">
  <ele>-33.006</ele>
  <time>2026-09-01T01:17:15Z</time>
  <course>323.3</course>
  <speed>1.0220078277586722</speed>
  <fix>3d</fix>
</trkpt>
<trkpt lat="33.8100391" lon="-118.3942015">
  <ele>-32.16</ele>
  <time>2026-09-01T01:17:15Z</time>
  <course>324.78</course>
  <speed>0.99</speed>
  <fix>3d</fix>
</trkpt>
<trkpt lat="33.8100409" lon="-118.3942034">
  <ele>-33.029</ele>
  <time>2026-09-01T01:17:15Z</time>
  <course>323.32</course>
  <speed>1.0220078277586722</speed>
  <fix>3d</fix>
</trkpt>
<trkpt lat="33.8100391" lon="-118.3942015">
  <ele>-32.16</ele>
  <time>2026-09-01T01:17:15Z</time>
  <course>324.78</course>
  <speed>0.99</speed>
  <fix>3d</fix>
</trkpt>
<trkpt lat="33.8100416" lon="-118.394204">
  <ele>-33.053</ele>
  <time>2026-09-01T01:17:15Z</time>
  <course>323.34</course>
  <speed>1.0220078277586722</speed>
  <fix>3d</fix>
</trkpt>
<trkpt lat="33.8100406" lon="-118.3942027">
  <ele>-32.2</ele>
  <time>2026-09-01T01:17:15Z</time>
  <course>324.82</course>
  <speed>1.0</speed>
  <fix>3d</fix>
</trkpt>
<trkpt lat="33.8100424" lon="-118.3942046">
  <ele>-33.076</ele>
  <time>2026-09-01T01:17:15Z</time>
  <course>323.34</course>
  <speed>1.0220078277586722</speed>
  <fix>3d</fix>
</trkpt>
<trkpt lat="33.8100406" lon="-118.3942027">
  <ele>-32.2</ele>
  <time>2026-09-01T01:17:15Z</time>
  <course>324.82</course>
  <speed>1.0</speed>
  <fix>3d</fix>
</trkpt>
<trkpt lat="33.8100431" lon="-118.3942053">
  <ele>-33.099</ele>
  <time>2026-09-01T01:17:15Z</time>
  <course>323.33</course>
  <speed>1.0220078277586722</speed>
  <fix>3d</fix>
</trkpt>
<trkpt lat="33.810042" lon="-118.394204">
  <ele>-32.24</ele>
  <time>2026-09-01T01:17:15Z</time>
  <course>324.82</course>
  <speed>1.0</speed>
  <fix>3d</fix>
</trkpt>
<trkpt lat="33.8100439" lon="-118.3942059">
  <ele>-33.122</ele>
  <time>2026-09-01T01:17:15Z</time>
  <course>323.31</course>
  <speed>1.0220078277586722</speed>
  <fix>3d</fix>
</trkpt>
<trkpt lat="33.810042" lon="-118.394204">
  <ele>-32.24</ele>
  <time>2026-09-01T01:17:15Z</time>
  <course>324.82</course>
  <speed>1.0</speed>
  <fix>3d</fix>
</trkpt>
<trkpt lat="33.8100446" lon="-118.3942065">
  <ele>-33.143</ele>
  <time>2026-09-01T01:17:15Z</time>
  <course>323.31</course>
  <speed>1.0220078277586722</speed>
  <fix>3d</fix>
</trkpt>
<trkpt lat="33.8100435" lon="-118.3942052">
  <ele>-32.29</ele>
  <time>2026-09-01T01:17:15Z</time>
  <course>324.81</course>
  <speed>1.0</speed>
  <fix>3d</fix>
</trkpt>
<trkpt lat="33.8100453" lon="-118.3942071">
  <ele>-33.166</ele>
  <time>2026-09-01T01:17:15Z</time>
  <course>323.31</course>
  <speed>1.0220078277586722</speed>
  <fix>3d</fix>
</trkpt>
<trkpt lat="33.8100435" lon="-118.3942052">
  <ele>-32.29</ele>
  <time>2026-09-01T01:17:15Z</time>
  <course>324.81</course>
  <speed>1.0</speed>
  <fix>3d</fix>
</trkpt>
<trkpt lat="33.8100461" lon="-118.3942077">
  <ele>-33.189</ele>
  <time>2026-09-01T01:17:15Z</time>
  <course>323.3</course>
  <speed>1.0220078277586722</speed>
  <fix>3d</fix>
</trkpt>
<trkpt lat="33.810045" lon="-118.3942065">
  <ele>-32.33</ele>
  <time>2026-09-01T01:17:15Z</time>
  <course>324.82</course>
  <speed>1.0</speed>
  <fix>3d</fix>
</trkpt>
<trkpt lat="33.8100468" lon="-118.3942084">
  <ele>-33.211</ele>
  <time>2026-09-01T01:17:15Z</time>
  <course>323.29</course>
  <speed>1.0220078277586722</speed>
  <fix>3d</fix>
</trkpt>
<trkpt lat="33.810045" lon="-118.3942065">
  <ele>-32.33</ele>
  <time>2026-09-01T01:17:15Z</time>
  <course>324.82</course>
  <speed>1.0</speed>
  <fix>3d</fix>
</trkpt>
<trkpt lat="33.8100475" lon="-118.394209">
  <ele>-33.232</ele>
  <time>2026-09-01T01:17:15Z</time>
  <course>323.28</course>
  <speed>1.0220078277586722</speed>
  <fix>3d</fix>
</trkpt>
<trkpt lat="33.8100465" lon="-118.3942078">
  <ele>-32.37</ele>
  <time>2026-09-01T01:17:15Z</time>
  <course>324.8</course>
  <speed>1.0</speed>
  <fix>3d</fix>
</trkpt>
<trkpt lat="33.8100483" lon="-118.3942096">
  <ele>-33.253</ele>
  <time>2026-09-01T01:17:15Z</time>
  <course>323.28</course>
  <speed>1.0220078277586722</speed>
  <fix>3d</fix>
</trkpt>
<trkpt lat="33.8100465" lon="-118.3942078">
  <ele>-32.37</ele>
  <time>2026-09-01T01:17:15Z</time>
  <course>324.8</course>
  <speed>1.0</speed>
  <fix>3d</fix>
</trkpt>
<trkpt lat="33.810049" lon="-118.3942102">
  <ele>-33.273</ele>
  <time>2026-09-01T01:17:15Z</time>
  <course>323.28</course>
  <speed>1.0220078277586722</speed>
  <fix>3d</fix>
</trkpt>
<trkpt lat="33.8100479" lon="-118.394209">
  <ele>-32.41</ele>
  <time>2026-09-01T01:17:15Z</time>
  <course>324.8</course>
  <speed>1.0</speed>
  <fix>3d</fix>
</trkpt>
<trkpt lat="33.8100497" lon="-118.3942109">
  <ele>-33.294</ele>
  <time>2026-09-01T01:17:15Z</time>
  <course>323.28</course>
  <speed>1.0220078277586722</speed>
  <fix>3d</fix>
</trkpt>
<trkpt lat="33.8100479" lon="-118.394209">
  <ele>-32.41</ele>
  <time>2026-09-01T01:17:15Z</time>
  <course>324.8</course>
  <speed>1.0</speed>
  <fix>3d</fix>
</trkpt>
<trkpt lat="33.8100505" lon="-118.3942115">
  <ele>-33.314</ele>
  <time>2026-09-01T01:17:15Z</time>
  <course>323.29</course>
  <speed>1.0220078277586722</speed>
  <fix>3d</fix>
</trkpt>
<trkpt lat="33.8100494" lon="-118.3942103">
  <ele>-32.46</ele>
  <time>2026-09-01T01:17:15Z</time>
  <course>324.82</course>
  <speed>1.0</speed>
  <fix>3d</fix>
</trkpt>
<trkpt lat="33.8100512" lon="-118.3942121">
  <ele>-33.334</ele>
  <time>2026-09-01T01:17:15Z</time>
  <course>323.3</course>
  <speed>1.0220078277586722</speed>
  <fix>3d</fix>
</trkpt>
<trkpt lat="33.8100494" lon="-118.3942103">
  <ele>-32.46</ele>
  <time>2026-09-01T01:17:15Z</time>
  <course>324.82</course>
  <speed>1.0</speed>
  <fix>3d</fix>
</trkpt>
<trkpt lat="33.8100519" lon="-118.3942128">
  <ele>-33.355</ele>
  <time>2026-09-01T01:17:15Z</time>
  <course>323.32</course>
  <speed>1.0220078277586722</speed>
  <fix>3d</fix>
</trkpt>
<trkpt lat="33.8100509" lon="-118.3942115">
  <ele>-32.5</ele>
  <time>2026-09-01T01:17:15Z</time>
  <course>324.85</course>
  <speed>1.0</speed>
  <fix>3d</fix>
</trkpt>
<trkpt lat="33.8100527" lon="-118.3942134">
  <ele>-33.375</ele>
  <time>2026-09-01T01:17:15Z</time>
  <course>323.34</course>
  <speed>1.0220078277586722</speed>
  <fix>3d</fix>
</trkpt>
<trkpt lat="33.8100509" lon="-118.3942115">
  <ele>-32.5</ele>
  <time>2026-09-01T01:17:15Z</time>
  <course>324.85</course>
  <speed>1.0</speed>
  <fix>3d</fix>
</trkpt>
<trkpt lat="33.8100534" lon="-118.394214">
  <ele>-33.398</ele>
  <time>2026-09-01T01:17:15Z</time>
  <course>323.34</course>
  <speed>1.0220078277586722</speed>
  <fix>3d</fix>
</trkpt>
<trkpt lat="33.8100523" lon="-118.3942128">
  <ele>-32.54</ele>
  <time>2026-09-01T01:17:15Z</time>
  <course>324.85</course>
  <speed>1.0</speed>
  <fix>3d</fix>
</trkpt>
<trkpt lat="33.8100541" lon="-118.3942146">
  <ele>-33.421</ele>
  <time>2026-09-01T01:17:15Z</time>
  <course>323.35</course>
  <speed>1.0220078277586722</speed>
  <fix>3d</fix>
</trkpt>
<trkpt lat="33.8100523" lon="-118.3942128">
  <ele>-32.54</ele>
  <time>2026-09-01T01:17:15Z</time>
  <course>324.85</course>
  <speed>1.0</speed>
  <fix>3d</fix>
</trkpt>
<trkpt lat="33.8100549" lon="-118.3942153">
  <ele>-33.444</ele>
  <time>2026-09-01T01:17:15Z</time>
  <course>323.37</course>
  <speed>1.0220078277586722</speed>
  <fix>3d</fix>
</trkpt>
<trkpt lat="33.8100538" lon="-118.394214">
  <ele>-32.59</ele>
  <time>2026-09-01T01:17:15Z</time>
  <course>324.85</course>
  <speed>1.0</speed>
  <fix>3d</fix>
</trkpt>
<trkpt lat="33.8100556" lon="-118.3942159">
  <ele>-33.468</ele>
  <time>2026-09-01T01:17:15Z</time>
  <course>323.39</course>
  <speed>1.0220078277586722</speed>
  <fix>3d</fix>
</trkpt>
<trkpt lat="33.8100538" lon="-118.394214">
  <ele>-32.59</ele>
  <time>2026-09-01T01:17:15Z</time>
  <course>324.85</course>
  <speed>1.0</speed>
  <fix>3d</fix>
</trkpt>
<trkpt lat="33.8100563" lon="-118.3942165">
  <ele>-33.491</ele>
  <time>2026-09-01T01:17:15Z</time>
  <course>323.4</course>
  <speed>1.0220078277586722</speed>
  <fix>3d</fix>
</trkpt>
<trkpt lat="33.8100553" lon="-118.3942152">
  <ele>-32.63</ele>
  <time>2026-09-01T01:17:15Z</time>
  <course>324.88</course>
  <speed>1.0</speed>
  <fix>3d</fix>
</trkpt>
<trkpt lat="33.8100571" lon="-118.3942171">
  <ele>-33.514</ele>
  <time>2026-09-01T01:17:15Z</time>
  <course>323.4</course>
  <speed>1.0220078277586722</speed>
  <fix>3d</fix>
</trkpt>
<trkpt lat="33.8100553" lon="-118.3942152">
  <ele>-32.63</ele>
  <time>2026-09-01T01:17:15Z</time>
  <course>324.88</course>
  <speed>1.0</speed>
  <fix>3d</fix>
</trkpt>
<trkpt lat="33.8100578" lon="-118.3942177">
  <ele>-33.536</ele>
  <time>2026-09-01T01:17:15Z</time>
  <course>323.38</course>
  <speed>1.0220078277586722</speed>
  <fix>3d</fix>
</trkpt>
<trkpt lat="33.8100568" lon="-118.3942165">
  <ele>-32.68</ele>
  <time>2026-09-01T01:17:15Z</time>
  <course>324.87</course>
  <speed>1.0</speed>
  <fix>3d</fix>
</trkpt>
<trkpt lat="33.8100586" lon="-118.3942184">
  <ele>-33.559</ele>
  <time>2026-09-01T01:17:15Z</time>
  <course>323.37</course>
  <speed>1.0220078277586722</speed>
  <fix>3d</fix>
</trkpt>
<trkpt lat="33.8100568" lon="-118.3942165">
  <ele>-32.68</ele>
  <time>2026-09-01T01:17:15Z</time>
  <course>324.87</course>
  <speed>1.0</speed>
  <fix>3d</fix>
</trkpt>
<trkpt lat="33.8100593" lon="-118.394219">
  <ele>-33.582</ele>
  <time>2026-09-01T01:17:15Z</time>
  <course>323.34</course>
  <speed>1.0220078277586722</speed>
  <fix>3d</fix>
</trkpt>
<trkpt lat="33.8100582" lon="-118.3942177">
  <ele>-32.72</ele>
  <time>2026-09-01T01:17:15Z</time>
  <course>324.81</course>
  <speed>1.0</speed>
  <fix>3d</fix>
</trkpt>
<trkpt lat="33.81006" lon="-118.3942196">
  <ele>-33.606</ele>
  <time>2026-09-01T01:17:15Z</time>
  <course>323.32</course>
  <speed>1.0220078277586722</speed>
  <fix>3d</fix>
</trkpt>
<trkpt lat="33.8100582" lon="-118.3942177">
  <ele>-32.72</ele>
  <time>2026-09-01T01:17:15Z</time>
  <course>324.81</course>
  <speed>1.0</speed>
  <fix>3d</fix>
</trkpt>
<trkpt lat="33.8100608" lon="-118.3942202">
  <ele>-33.629</ele>
  <time>2026-09-01T01:17:15Z</time>
  <course>323.31</course>
  <speed>1.0220078277586722</speed>
  <fix>3d</fix>
</trkpt>
<trkpt lat="33.8100597" lon="-118.394219">
  <ele>-32.76</ele>
  <time>2026-09-01T01:17:15Z</time>
  <course>324.78</course>
  <speed>1.0</speed>
  <fix>3d</fix>
</trkpt>
<trkpt lat="33.8100615" lon="-118.3942209">
  <ele>-33.65</ele>
  <time>2026-09-01T01:17:15Z</time>
  <course>323.3</course>
  <speed>1.0220078277586722</speed>
  <fix>3d</fix>
</trkpt>
<trkpt lat="33.8100597" lon="-118.394219">
  <ele>-32.76</ele>
  <time>2026-09-01T01:17:15Z</time>
  <course>324.78</course>
  <speed>1.0</speed>
  <fix>3d</fix>
</trkpt>
<trkpt lat="33.8100622" lon="-118.3942215">
  <ele>-33.671</ele>
  <time>2026-09-01T01:17:15Z</time>
  <course>323.29</course>
  <speed>1.0220078277586722</speed>
  <fix>3d</fix>
</trkpt>
<trkpt lat="33.8100612" lon="-118.3942202">
  <ele>-32.81</ele>
  <time>2026-09-01T01:17:15Z</time>
  <course>324.78</course>
  <speed>1.0</speed>
  <fix>3d</fix>
</trkpt>
<trkpt lat="33.810063" lon="-118.3942221">
  <ele>-33.692</ele>
  <time>2026-09-01T01:17:15Z</time>
  <course>323.29</course>
  <speed>1.0220078277586722</speed>
  <fix>3d</fix>
</trkpt>
<trkpt lat="33.8100612" lon="-118.3942202">
  <ele>-32.81</ele>
  <time>2026-09-01T01:17:15Z</time>
  <course>324.78</course>
  <speed>1.0</speed>
  <fix>3d</fix>
</trkpt>
<trkpt lat="33.8100637" lon="-118.3942227">
  <ele>-33.713</ele>
  <time>2026-09-01T01:17:15Z</time>
  <course>323.27</course>
  <speed>1.0220078277586722</speed>
  <fix>3d</fix>
</trkpt>
<trkpt lat="33.8100626" lon="-118.3942214">
  <ele>-32.85</ele>
  <time>2026-09-01T01:17:15Z</time>
  <course>324.75</course>
  <speed>1.0</speed>
  <fix>3d</fix>
</trkpt>
<trkpt lat="33.8100644" lon="-118.3942233">
  <ele>-33.733</ele>
  <time>2026-09-01T01:17:15Z</time>
  <course>323.25</course>
  <speed>1.0220078277586722</speed>
  <fix>3d</fix>
</trkpt>
<trkpt lat="33.8100626" lon="-118.3942214">
  <ele>-32.85</ele>
  <time>2026-09-01T01:17:15Z</time>
  <course>324.75</course>
  <speed>1.0</speed>
  <fix>3d</fix>
</trkpt>
<trkpt lat="33.8100652" lon="-118.394224">
  <ele>-33.755</ele>
  <time>2026-09-01T01:17:15Z</time>
  <course>323.24</course>
  <speed>1.0220078277586722</speed>
  <fix>3d</fix>
</trkpt>
<trkpt lat="33.8100641" lon="-118.3942227">
  <ele>-32.89</ele>
  <time>2026-09-01T01:17:15Z</time>
  <course>324.71</course>
  <speed>1.0</speed>
  <fix>3d</fix>
</trkpt>
<trkpt lat="33.8100659" lon="-118.3942246">
  <ele>-33.778</ele>
  <time>2026-09-01T01:17:15Z</time>
  <course>323.23</course>
  <speed>1.0220078277586722</speed>
  <fix>3d</fix>
</trkpt>
<trkpt lat="33.8100641" lon="-118.3942227">
  <ele>-32.89</ele>
  <time>2026-09-01T01:17:15Z</time>
  <course>324.71</course>
  <speed>1.0</speed>
  <fix>3d</fix>
</trkpt>
<trkpt lat="33.8100666" lon="-118.3942252">
  <ele>-33.802</ele>
  <time>2026-09-01T01:17:15Z</time>
  <course>323.23</course>
  <speed>1.0220078277586722</speed>
  <fix>3d</fix>
</trkpt>
<trkpt lat="33.8100656" lon="-118.394224">
  <ele>-32.94</ele>
  <time>2026-09-01T01:17:15Z</time>
  <course>324.7</course>
  <speed>1.0</speed>
  <fix>3d</fix>
</trkpt>
<trkpt lat="33.8100674" lon="-118.3942258">
  <ele>-33.826</ele>
  <time>2026-09-01T01:17:15Z</time>
  <course>323.24</course>
  <speed>1.0220078277586722</speed>
  <fix>3d</fix>
</trkpt>
<trkpt lat="33.8100656" lon="-118.394224">
  <ele>-32.94</ele>
  <time>2026-09-01T01:17:15Z</time>
  <course>324.7</course>
  <speed>1.0</speed>
  <fix>3d</fix>
</trkpt>
<trkpt lat="33.8100681" lon="-118.3942265">
  <ele>-33.85</ele>
  <time>2026-09-01T01:17:15Z</time>
  <course>323.24</course>
  <speed>1.0220078277586722</speed>
  <fix>3d</fix>
</trkpt>
<trkpt lat="33.8100671" lon="-118.3942252">
  <ele>-32.98</ele>
  <time>2026-09-01T01:17:15Z</time>
  <course>324.72</course>
  <speed>1.0</speed>
  <fix>3d</fix>
</trkpt>
<trkpt lat="33.8100688" lon="-118.3942271">
  <ele>-33.873</ele>
  <time>2026-09-01T01:17:15Z</time>
  <course>323.25</course>
  <speed>1.0220078277586722</speed>
  <fix>3d</fix>
</trkpt>
<trkpt lat="33.8100671" lon="-118.3942252">
  <ele>-32.98</ele>
  <time>2026-09-01T01:17:15Z</time>
  <course>324.72</course>
  <speed>1.0</speed>
  <fix>3d</fix>
</trkpt>
<trkpt lat="33.8100696" lon="-118.3942277">
  <ele>-33.895</ele>
  <time>2026-09-01T01:17:15Z</time>
  <course>323.24</course>
  <speed>1.0220078277586722</speed>
  <fix>3d</fix>
</trkpt>
<trkpt lat="33.8100685" lon="-118.3942265">
  <ele>-33.02</ele>
  <time>2026-09-01T01:17:15Z</time>
  <course>324.7</course>
  <speed>1.0</speed>
  <fix>3d</fix>
</trkpt>
<trkpt lat="33.8100703" lon="-118.3942283">
  <ele>-33.916</ele>
  <time>2026-09-01T01:17:15Z</time>
  <course>323.23</course>
  <speed>1.0220078277586722</speed>
  <fix>3d</fix>
</trkpt>
<trkpt lat="33.8100685" lon="-118.3942265">
  <ele>-33.02</ele>
  <time>2026-09-01T01:17:15Z</time>
  <course>324.7</course>
  <speed>1.0</speed>
  <fix>3d</fix>
</trkpt>
<trkpt lat="33.810071" lon="-118.3942289">
  <ele>-33.938</ele>
  <time>2026-09-01T01:17:15Z</time>
  <course>323.23</course>
  <speed>1.0220078277586722</speed>
  <fix>3d</fix>
</trkpt>
<trkpt lat="33.81007" lon="-118.3942277">
  <ele>-33.06</ele>
  <time>2026-09-01T01:17:15Z</time>
  <course>324.7</course>
  <speed>1.0</speed>
  <fix>3d</fix>
</trkpt>
<trkpt lat="33.8100718" lon="-118.3942296">
  <ele>-33.96</ele>
  <time>2026-09-01T01:17:15Z</time>
  <course>323.25</course>
  <speed>1.0220078277586722</speed>
  <fix>3d</fix>
</trkpt>
<trkpt lat="33.81007" lon="-118.3942277">
  <ele>-33.06</ele>
  <time>2026-09-01T01:17:15Z</time>
  <course>324.7</course>
  <speed>1.0</speed>
  <fix>3d</fix>
</trkpt>
<trkpt lat="33.8100725" lon="-118.3942302">
  <ele>-33.981</ele>
  <time>2026-09-01T01:17:15Z</time>
  <course>323.26</course>
  <speed>1.0220078277586722</speed>
  <fix>3d</fix>
</trkpt>
<trkpt lat="33.8100715" lon="-118.394229">
  <ele>-33.11</ele>
  <time>2026-09-01T01:17:15Z</time>
  <course>324.71</course>
  <speed>1.0</speed>
  <fix>3d</fix>
</trkpt>
<trkpt lat="33.8100732" lon="-118.3942308">
  <ele>-34.001</ele>
  <time>2026-09-01T01:17:15Z</time>
  <course>323.26</course>
  <speed>1.0220078277586722</speed>
  <fix>3d</fix>
</trkpt>
<trkpt lat="33.8100715" lon="-118.394229">
  <ele>-33.11</ele>
  <time>2026-09-01T01:17:15Z</time>
  <course>324.71</course>
  <speed>1.0</speed>
  <fix>3d</fix>
</trkpt>
<trkpt lat="33.810074" lon="-118.3942314">
  <ele>-34.023</ele>
  <time>2026-09-01T01:17:15Z</time>
  <course>323.26</course>
  <speed>1.0220078277586722</speed>
  <fix>3d</fix>
</trkpt>
<trkpt lat="33.810073" lon="-118.3942302">
  <ele>-33.15</ele>
  <time>2026-09-01T01:17:15Z</time>
  <course>324.72</course>
  <speed>1.0</speed>
  <fix>3d</fix>
</trkpt>
<trkpt lat="33.8100747" lon="-118.3942321">
  <ele>-34.045</ele>
  <time>2026-09-01T01:17:15Z</time>
  <course>323.27</course>
  <speed>1.0220078277586722</speed>
  <fix>3d</fix>
</trkpt>
<trkpt lat="33.810073" lon="-118.3942302">
  <ele>-33.15</ele>
  <time>2026-09-01T01:17:15Z</time>
  <course>324.72</course>
  <speed>1.0</speed>
  <fix>3d</fix>
</trkpt>
<trkpt lat="33.8100754" lon="-118.3942327">
  <ele>-34.069</ele>
  <time>2026-09-01T01:17:15Z</time>
  <course>323.25</course>
  <speed>1.0220078277586722</speed>
  <fix>3d</fix>
</trkpt>
<trkpt lat="33.8100744" lon="-118.3942315">
  <ele>-33.19</ele>
  <time>2026-09-01T01:17:15Z</time>
  <course>324.7</course>
  <speed>1.0</speed>
  <fix>3d</fix>
</trkpt>
<trkpt lat="33.8100762" lon="-118.3942333">
  <ele>-34.092</ele>
  <time>2026-09-01T01:17:15Z</time>
  <course>323.24</course>
  <speed>1.0220078277586722</speed>
  <fix>3d</fix>
</trkpt>
<trkpt lat="33.8100744" lon="-118.3942315">
  <ele>-33.19</ele>
  <time>2026-09-01T01:17:15Z</time>
  <course>324.7</course>
  <speed>1.0</speed>
  <fix>3d</fix>
</trkpt>
<trkpt lat="33.8100769" lon="-118.3942339">
  <ele>-34.115</ele>
  <time>2026-09-01T01:17:15Z</time>
  <course>323.24</course>
  <speed>1.0220078277586722</speed>
  <fix>3d</fix>
</trkpt>
<trkpt lat="33.8100759" lon="-118.3942328">
  <ele>-33.23</ele>
  <time>2026-09-01T01:17:15Z</time>
  <course>324.69</course>
  <speed>1.0</speed>
  <fix>3d</fix>
</trkpt>
<trkpt lat="33.8100776" lon="-118.3942346">
  <ele>-34.137</ele>
  <time>2026-09-01T01:17:15Z</time>
  <course>323.26</course>
  <speed>1.0220078277586722</speed>
  <fix>3d</fix>
</trkpt>
<trkpt lat="33.8100759" lon="-118.3942328">
  <ele>-33.23</ele>
  <time>2026-09-01T01:17:15Z</time>
  <course>324.69</course>
  <speed>1.0</speed>
  <fix>3d</fix>
</trkpt>
<trkpt lat="33.8100784" lon="-118.3942352">
  <ele>-34.159</ele>
  <time>2026-09-01T01:17:15Z</time>
  <course>323.28</course>
  <speed>1.0220078277586722</speed>
  <fix>3d</fix>
</trkpt>
<trkpt lat="33.8100774" lon="-118.394234">
  <ele>-33.28</ele>
  <time>2026-09-01T01:17:15Z</time>
  <course>324.72</course>
  <speed>1.0</speed>
  <fix>3d</fix>
</trkpt>
<trkpt lat="33.8100791" lon="-118.3942358">
  <ele>-34.18</ele>
  <time>2026-09-01T01:17:15Z</time>
  <course>323.31</course>
  <speed>1.0220078277586722</speed>
  <fix>3d</fix>
</trkpt>
<trkpt lat="33.8100774" lon="-118.394234">
  <ele>-33.28</ele>
  <time>2026-09-01T01:17:15Z</time>
  <course>324.72</course>
  <speed>1.0</speed>
  <fix>3d</fix>
</trkpt>
<trkpt lat="33.8100798" lon="-118.3942364">
  <ele>-34.201</ele>
  <time>2026-09-01T01:17:15Z</time>
  <course>323.32</course>
  <speed>1.0220078277586722</speed>
  <fix>3d</fix>
</trkpt>
<trkpt lat="33.8100789" lon="-118.3942353">
  <ele>-33.32</ele>
  <time>2026-09-01T01:17:15Z</time>
  <course>324.76</course>
  <speed>1.0</speed>
  <fix>3d</fix>
</trkpt>
<trkpt lat="33.8100806" lon="-118.3942371">
  <ele>-34.223</ele>
  <time>2026-09-01T01:17:15Z</time>
  <course>323.32</course>
  <speed>1.0220078277586722</speed>
  <fix>3d</fix>
</trkpt>
<trkpt lat="33.8100789" lon="-118.3942353">
  <ele>-33.32</ele>
  <time>2026-09-01T01:17:15Z</time>
  <course>324.76</course>
  <speed>1.0</speed>
  <fix>3d</fix>
</trkpt>
<trkpt lat="33.8100813" lon="-118.3942377">
  <ele>-34.244</ele>
  <time>2026-09-01T01:17:15Z</time>
  <course>323.33</course>
  <speed>1.0220078277586722</speed>
  <fix>3d</fix>
</trkpt>
<trkpt lat="33.8100803" lon="-118.3942365">
  <ele>-33.36</ele>
  <time>2026-09-01T01:17:15Z</time>
  <course>324.76</course>
  <speed>1.0</speed>
  <fix>3d</fix>
</trkpt>
<trkpt lat="33.810082" lon="-118.3942383">
  <ele>-34.265</ele>
  <time>2026-09-01T01:17:15Z</time>
  <course>323.34</course>
  <speed>1.0220078277586722</speed>
  <fix>3d</fix>
</trkpt>
<trkpt lat="33.8100803" lon="-118.3942365">
  <ele>-33.36</ele>
  <time>2026-09-01T01:17:15Z</time>
  <course>324.76</course>
  <speed>1.0</speed>
  <fix>3d</fix>
</trkpt>
<trkpt lat="33.8100828" lon="-118.3942389">
  <ele>-34.287</ele>
  <time>2026-09-01T01:17:15Z</time>
  <course>323.34</course>
  <speed>1.0220078277586722</speed>
  <fix>3d</fix>
</trkpt>
<trkpt lat="33.8100818" lon="-118.3942377">
  <ele>-33.41</ele>
  <time>2026-09-01T01:17:15Z</time>
  <course>324.76</course>
  <speed>1.0</speed>
  <fix>3d</fix>
</trkpt>
<trkpt lat="33.8100835" lon="-118.3942396">
  <ele>-34.31</ele>
  <time>2026-09-01T01:17:15Z</time>
  <course>323.34</course>
  <speed>1.0220078277586722</speed>
  <fix>3d</fix>
</trkpt>
<trkpt lat="33.8100818" lon="-118.3942377">
  <ele>-33.41</ele>
  <time>2026-09-01T01:17:15Z</time>
  <course>324.76</course>
  <speed>1.0</speed>
  <fix>3d</fix>
</trkpt>
<trkpt lat="33.8100843" lon="-118.3942402">
  <ele>-34.333</ele>
  <time>2026-09-01T01:17:15Z</time>
  <course>323.33</course>
  <speed>1.0220078277586722</speed>
  <fix>3d</fix>
</trkpt>
<trkpt lat="33.8100833" lon="-118.394239">
  <ele>-33.45</ele>
  <time>2026-09-01T01:17:15Z</time>
  <course>324.74</course>
  <speed>1.0</speed>
  <fix>3d</fix>
</trkpt>
<trkpt lat="33.810085" lon="-118.3942408">
  <ele>-34.357</ele>
  <time>2026-09-01T01:17:15Z</time>
  <course>323.32</course>
  <speed>1.0220078277586722</speed>
  <fix>3d</fix>
</trkpt>
<trkpt lat="33.8100833" lon="-118.394239">
  <ele>-33.45</ele>
  <time>2026-09-01T01:17:15Z</time>
  <course>324.74</course>
  <speed>1.0</speed>
  <fix>3d</fix>
</trkpt>
<trkpt lat="33.8100857" lon="-118.3942414">
  <ele>-34.38</ele>
  <time>2026-09-01T01:17:15Z</time>
  <course>323.31</course>
  <speed>1.0220078277586722</speed>
  <fix>3d</fix>
</trkpt>
<trkpt lat="33.8100847" lon="-118.3942403">
  <ele>-33.5</ele>
  <time>2026-09-01T01:17:15Z</time>
  <course>324.69</course>
  <speed>1.0</speed>
  <fix>3d</fix>
</trkpt>
<trkpt lat="33.8100865" lon="-118.3942421">
  <ele>-34.402</ele>
  <time>2026-09-01T01:17:15Z</time>
  <course>323.3</course>
  <speed>1.0220078277586722</speed>
  <fix>3d</fix>
</trkpt>
<trkpt lat="33.8100847" lon="-118.3942403">
  <ele>-33.5</ele>
  <time>2026-09-01T01:17:15Z</time>
  <course>324.69</course>
  <speed>1.0</speed>
  <fix>3d</fix>
</trkpt>
<trkpt lat="33.8100872" lon="-118.3942427">
  <ele>-34.425</ele>
  <time>2026-09-01T01:17:15Z</time>
  <course>323.32</course>
  <speed>1.0220078277586722</speed>
  <fix>3d</fix>
</trkpt>
<trkpt lat="33.8100862" lon="-118.3942415">
  <ele>-33.54</ele>
  <time>2026-09-01T01:17:15Z</time>
  <course>324.7</course>
  <speed>1.0</speed>
  <fix>3d</fix>
</trkpt>
<trkpt lat="33.8100879" lon="-118.3942433">
  <ele>-34.448</ele>
  <time>2026-09-01T01:17:15Z</time>
  <course>323.34</course>
  <speed>1.0220078277586722</speed>
  <fix>3d</fix>
</trkpt>
<trkpt lat="33.8100862" lon="-118.3942415">
  <ele>-33.54</ele>
  <time>2026-09-01T01:17:15Z</time>
  <course>324.7</course>
  <speed>1.0</speed>
  <fix>3d</fix>
</trkpt>
<trkpt lat="33.8100887" lon="-118.3942439">
  <ele>-34.47</ele>
  <time>2026-09-01T01:17:15Z</time>
  <course>323.36</course>
  <speed>1.0220078277586722</speed>
  <fix>3d</fix>
</trkpt>
<trkpt lat="33.8100876" lon="-118.3942428">
  <ele>-33.58</ele>
  <time>2026-09-01T01:17:15Z</time>
  <course>324.75</course>
  <speed>1.0</speed>
  <fix>3d</fix>
</trkpt>
<trkpt lat="33.8100894" lon="-118.3942446">
  <ele>-34.493</ele>
  <time>2026-09-01T01:17:15Z</time>
  <course>323.38</course>
  <speed>1.0220078277586722</speed>
  <fix>3d</fix>
</trkpt>
<trkpt lat="33.8100876" lon="-118.3942428">
  <ele>-33.58</ele>
  <time>2026-09-01T01:17:15Z</time>
  <course>324.75</course>
  <speed>1.0</speed>
  <fix>3d</fix>
</trkpt>
<trkpt lat="33.8100901" lon="-118.3942452">
  <ele>-34.515</ele>
  <time>2026-09-01T01:17:15Z</time>
  <course>323.41</course>
  <speed>1.0220078277586722</speed>
  <fix>3d</fix>
</trkpt>
<trkpt lat="33.8100891" lon="-118.394244">
  <ele>-33.63</ele>
  <time>2026-09-01T01:17:15Z</time>
  <course>324.81</course>
  <speed>1.0</speed>
  <fix>3d</fix>
</trkpt>
<trkpt lat="33.8100909" lon="-118.3942458">
  <ele>-34.537</ele>
  <time>2026-09-01T01:17:15Z</time>
  <course>323.45</course>
  <speed>1.0220078277586722</speed>
  <fix>3d</fix>
</trkpt>
<trkpt lat="33.8100891" lon="-118.394244">
  <ele>-33.63</ele>
  <time>2026-09-01T01:17:15Z</time>
  <course>324.81</course>
  <speed>1.0</speed>
  <fix>3d</fix>
</trkpt>
<trkpt lat="33.8100916" lon="-118.3942464">
  <ele>-34.559</ele>
  <time>2026-09-01T01:17:15Z</time>
  <course>323.47</course>
  <speed>1.0220078277586722</speed>
  <fix>3d</fix>
</trkpt>
<trkpt lat="33.8100906" lon="-118.3942453">
  <ele>-33.67</ele>
  <time>2026-09-01T01:17:15Z</time>
  <course>324.86</course>
  <speed>1.0</speed>
  <fix>3d</fix>
</trkpt>
<trkpt lat="33.8100923" lon="-118.3942471">
  <ele>-34.581</ele>
  <time>2026-09-01T01:17:15Z</time>
  <course>323.49</course>
  <speed>1.0220078277586722</speed>
  <fix>3d</fix>
</trkpt>
<trkpt lat="33.8100906" lon="-118.3942453">
  <ele>-33.67</ele>
  <time>2026-09-01T01:17:15Z</time>
  <course>324.86</course>
  <speed>1.0</speed>
  <fix>3d</fix>
</trkpt>
<trkpt lat="33.8100931" lon="-118.3942477">
  <ele>-34.603</ele>
  <time>2026-09-01T01:17:15Z</time>
  <course>323.5</course>
  <speed>1.0220078277586722</speed>
  <fix>3d</fix>
</trkpt>
<trkpt lat="33.8100921" lon="-118.3942465">
  <ele>-33.71</ele>
  <time>2026-09-01T01:17:15Z</time>
  <course>324.88</course>
  <speed>1.0</speed>
  <fix>3d</fix>
</trkpt>
<trkpt lat="33.8100938" lon="-118.3942483">
  <ele>-34.626</ele>
  <time>2026-09-01T01:17:15Z</time>
  <course>323.52</course>
  <speed>1.0220078277586722</speed>
  <fix>3d</fix>
</trkpt>
<trkpt lat="33.8100921" lon="-118.3942465">
  <ele>-33.71</ele>
  <time>2026-09-01T01:17:15Z</time>
  <course>324.88</course>
  <speed>1.0</speed>
  <fix>3d</fix>
</trkpt>
<trkpt lat="33.8100945" lon="-118.3942489">
  <ele>-34.648</ele>
  <time>2026-09-01T01:17:15Z</time>
  <course>323.52</course>
  <speed>1.0220078277586722</speed>
  <fix>3d</fix>
</trkpt>
<trkpt lat="33.8100936" lon="-118.3942477">
  <ele>-33.75</ele>
  <time>2026-09-01T01:17:15Z</time>
  <course>324.87</course>
  <speed>0.99</speed>
  <fix>3d</fix>
</trkpt>
<trkpt lat="33.8100953" lon="-118.3942495">
  <ele>-34.669</ele>
  <time>2026-09-01T01:17:15Z</time>
  <course>323.5</course>
  <speed>1.0220078277586722</speed>
  <fix>3d</fix>
</trkpt>
<trkpt lat="33.8100936" lon="-118.3942477">
  <ele>-33.75</ele>
  <time>2026-09-01T01:17:15Z</time>
  <course>324.87</course>
  <speed>0.99</speed>
  <fix>3d</fix>
</trkpt>
<trkpt lat="33.810096" lon="-118.3942502">
  <ele>-34.69</ele>
  <time>2026-09-01T01:17:15Z</time>
  <course>323.47</course>
  <speed>1.0220078277586722</speed>
  <fix>3d</fix>
</trkpt>
<trkpt lat="33.810095" lon="-118.394249">
  <ele>-33.8</ele>
  <time>2026-09-01T01:17:15Z</time>
  <course>324.82</course>
  <speed>0.99</speed>
  <fix>3d</fix>
</trkpt>
<trkpt lat="33.8100967" lon="-118.3942508">
  <ele>-34.713</ele>
  <time>2026-09-01T01:17:15Z</time>
  <course>323.43</course>
  <speed>1.0220078277586722</speed>
  <fix>3d</fix>
</trkpt>
<trkpt lat="33.810095" lon="-118.394249">
  <ele>-33.8</ele>
  <time>2026-09-01T01:17:15Z</time>
  <course>324.82</course>
  <speed>0.99</speed>
  <fix>3d</fix>
</trkpt>
<trkpt lat="33.8100975" lon="-118.3942514">
  <ele>-34.736</ele>
  <time>2026-09-01T01:17:15Z</time>
  <course>323.4</course>
  <speed>1.0220078277586722</speed>
  <fix>3d</fix>
</trkpt>
<trkpt lat="33.8100965" lon="-118.3942502">
  <ele>-33.84</ele>
  <time>2026-09-01T01:17:15Z</time>
  <course>324.78</course>
  <speed>0.99</speed>
  <fix>3d</fix>
</trkpt>
<trkpt lat="33.8100982" lon="-118.3942521">
  <ele>-34.759</ele>
  <time>2026-09-01T01:17:15Z</time>
  <course>323.39</course>
  <speed>1.0220078277586722</speed>
  <fix>3d</fix>
</trkpt>
<trkpt lat="33.8100965" lon="-118.3942502">
  <ele>-33.84</ele>
  <time>2026-09-01T01:17:15Z</time>
  <course>324.78</course>
  <speed>0.99</speed>
  <fix>3d</fix>
</trkpt>
<trkpt lat="33.810099" lon="-118.3942527">
  <ele>-34.782</ele>
  <time>2026-09-01T01:17:15Z</time>
  <course>323.37</course>
  <speed>1.0220078277586722</speed>
  <fix>3d</fix>
</trkpt>
<trkpt lat="33.8100979" lon="-118.3942515">
  <ele>-33.88</ele>
  <time>2026-09-01T01:17:15Z</time>
  <course>324.76</course>
  <speed>0.99</speed>
  <fix>3d</fix>
</trkpt>
<trkpt lat="33.8100997" lon="-118.3942533">
  <ele>-34.804</ele>
  <time>2026-09-01T01:17:15Z</time>
  <course>323.35</course>
  <speed>1.0220078277586722</speed>
  <fix>3d</fix>
</trkpt>
<trkpt lat="33.8100979" lon="-118.3942515">
  <ele>-33.88</ele>
  <time>2026-09-01T01:17:15Z</time>
  <course>324.76</course>
  <speed>0.99</speed>
  <fix>3d</fix>
</trkpt>
<trkpt lat="33.8101004" lon="-118.3942539">
  <ele>-34.826</ele>
  <time>2026-09-01T01:17:15Z</time>
  <course>323.36</course>
  <speed>1.0220078277586722</speed>
  <fix>3d</fix>
</trkpt>
<trkpt lat="33.8100994" lon="-118.3942527">
  <ele>-33.92</ele>
  <time>2026-09-01T01:17:15Z</time>
  <course>324.75</course>
  <speed>0.99</speed>
  <fix>3d</fix>
</trkpt>
<trkpt lat="33.8101012" lon="-118.3942545">
  <ele>-34.849</ele>
  <time>2026-09-01T01:17:15Z</time>
  <course>323.37</course>
  <speed>1.0220078277586722</speed>
  <fix>3d</fix>
</trkpt>
<trkpt lat="33.8100994" lon="-118.3942527">
  <ele>-33.92</ele>
  <time>2026-09-01T01:17:15Z</time>
  <course>324.75</course>
  <speed>0.99</speed>
  <fix>3d</fix>
</trkpt>
<trkpt lat="33.8101019" lon="-118.3942552">
  <ele>-34.871</ele>
  <time>2026-09-01T01:17:15Z</time>
  <course>323.38</course>
  <speed>1.0220078277586722</speed>
  <fix>3d</fix>
</trkpt>
<trkpt lat="33.8101009" lon="-118.394254">
  <ele>-33.97</ele>
  <time>2026-09-01T01:17:15Z</time>
  <course>324.77</course>
  <speed>0.99</speed>
  <fix>3d</fix>
</trkpt>
<trkpt lat="33.8101026" lon="-118.3942558">
  <ele>-34.893</ele>
  <time>2026-09-01T01:17:15Z</time>
  <course>323.39</course>
  <speed>1.0220078277586722</speed>
  <fix>3d</fix>
</trkpt>
<trkpt lat="33.8101009" lon="-118.394254">
  <ele>-33.97</ele>
  <time>2026-09-01T01:17:15Z</time>
  <course>324.77</course>
  <speed>0.99</speed>
  <fix>3d</fix>
</trkpt>
<trkpt lat="33.8101034" lon="-118.3942564">
  <ele>-34.914</ele>
  <time>2026-09-01T01:17:15Z</time>
  <course>323.4</course>
  <speed>1.0220078277586722</speed>
  <fix>3d</fix>
</trkpt>
<trkpt lat="33.8101024" lon="-118.3942552">
  <ele>-34.01</ele>
  <time>2026-09-01T01:17:15Z</time>
  <course>324.78</course>
  <speed>1.0</speed>
  <fix>3d</fix>
</trkpt>
<trkpt lat="33.8101041" lon="-118.394257">
  <ele>-34.936</ele>
  <time>2026-09-01T01:17:15Z</time>
  <course>323.4</course>
  <speed>1.0220078277586722</speed>
  <fix>3d</fix>
</trkpt>
<trkpt lat="33.8101024" lon="-118.3942552">
  <ele>-34.01</ele>
  <time>2026-09-01T01:17:15Z</time>
  <course>324.78</course>
  <speed>1.0</speed>
  <fix>3d</fix>
</trkpt>
<trkpt lat="33.8101048" lon="-118.3942577">
  <ele>-34.957</ele>
  <time>2026-09-01T01:17:15Z</time>
  <course>323.39</course>
  <speed>1.0220078277586722</speed>
  <fix>3d</fix>
</trkpt>
<trkpt lat="33.8101038" lon="-118.3942564">
  <ele>-34.06</ele>
  <time>2026-09-01T01:17:15Z</time>
  <course>324.76</course>
  <speed>0.99</speed>
  <fix>3d</fix>
</trkpt>
<trkpt lat="33.8101056" lon="-118.3942583">
  <ele>-34.978</ele>
  <time>2026-09-01T01:17:15Z</time>
  <course>323.37</course>
  <speed>1.0220078277586722</speed>
  <fix>3d</fix>
</trkpt>
<trkpt lat="33.8101038" lon="-118.3942564">
  <ele>-34.06</ele>
  <time>2026-09-01T01:17:15Z</time>
  <course>324.76</course>
  <speed>0.99</speed>
  <fix>3d</fix>
</trkpt>
<trkpt lat="33.8101063" lon="-118.3942589">
  <ele>-35.0</ele>
  <time>2026-09-01T01:17:15Z</time>
  <course>323.35</course>
  <speed>1.0220078277586722</speed>
  <fix>3d</fix>
</trkpt>
<trkpt lat="33.8101052" lon="-118.3942577">
  <ele>-34.1</ele>
  <time>2026-09-01T01:17:15Z</time>
  <course>324.72</course>
  <speed>0.99</speed>
  <fix>3d</fix>
</trkpt>
<trkpt lat="33.810107" lon="-118.3942595">
  <ele>-35.021</ele>
  <time>2026-09-01T01:17:15Z</time>
  <course>323.34</course>
  <speed>1.0220078277586722</speed>
  <fix>3d</fix>
</trkpt>
<trkpt lat="33.8101052" lon="-118.3942577">
  <ele>-34.1</ele>
  <time>2026-09-01T01:17:15Z</time>
  <course>324.72</course>
  <speed>0.99</speed>
  <fix>3d</fix>
</trkpt>
<trkpt lat="33.8101078" lon="-118.3942601">
  <ele>-35.041</ele>
  <time>2026-09-01T01:17:15Z</time>
  <course>323.34</course>
  <speed>1.0220078277586722</speed>
  <fix>3d</fix>
</trkpt>
<trkpt lat="33.8101067" lon="-118.394259">
  <ele>-34.14</ele>
  <time>2026-09-01T01:17:15Z</time>
  <course>324.72</course>
  <speed>0.99</speed>
  <fix>3d</fix>
</trkpt>
<trkpt lat="33.8101085" lon="-118.3942608">
  <ele>-35.061</ele>
  <time>2026-09-01T01:17:15Z</time>
  <course>323.36</course>
  <speed>1.0220078277586722</speed>
  <fix>3d</fix>
</trkpt>
<trkpt lat="33.8101067" lon="-118.394259">
  <ele>-34.14</ele>
  <time>2026-09-01T01:17:15Z</time>
  <course>324.72</course>
  <speed>0.99</speed>
  <fix>3d</fix>
</trkpt>
<trkpt lat="33.8101092" lon="-118.3942614">
  <ele>-35.081</ele>
  <time>2026-09-01T01:17:15Z</time>
  <course>323.39</course>
  <speed>1.0220078277586722</speed>
  <fix>3d</fix>
</trkpt>
<trkpt lat="33.8101082" lon="-118.3942602">
  <ele>-34.19</ele>
  <time>2026-09-01T01:17:15Z</time>
  <course>324.78</course>
  <speed>1.0</speed>
  <fix>3d</fix>
</trkpt>
<trkpt lat="33.81011" lon="-118.394262">
  <ele>-35.101</ele>
  <time>2026-09-01T01:17:15Z</time>
  <course>323.43</course>
  <speed>1.0220078277586722</speed>
  <fix>3d</fix>
</trkpt>
<trkpt lat="33.8101082" lon="-118.3942602">
  <ele>-34.19</ele>
  <time>2026-09-01T01:17:15Z</time>
  <course>324.78</course>
  <speed>1.0</speed>
  <fix>3d</fix>
</trkpt>
<trkpt lat="33.8101107" lon="-118.3942626">
  <ele>-35.122</ele>
  <time>2026-09-01T01:17:15Z</time>
  <course>323.45</course>
  <speed>1.0220078277586722</speed>
  <fix>3d</fix>
</trkpt>
<trkpt lat="33.8101097" lon="-118.3942615">
  <ele>-34.23</ele>
  <time>2026-09-01T01:17:15Z</time>
  <course>324.84</course>
  <speed>1.0</speed>
  <fix>3d</fix>
</trkpt>
<trkpt lat="33.8101114" lon="-118.3942633">
  <ele>-35.146</ele>
  <time>2026-09-01T01:17:15Z</time>
  <course>323.47</course>
  <speed>1.0220078277586722</speed>
  <fix>3d</fix>
</trkpt>
<trkpt lat="33.8101097" lon="-118.3942615">
  <ele>-34.23</ele>
  <time>2026-09-01T01:17:15Z</time>
  <course>324.84</course>
  <speed>1.0</speed>
  <fix>3d</fix>
</trkpt>
<trkpt lat="33.8101122" lon="-118.3942639">
  <ele>-35.169</ele>
  <time>2026-09-01T01:17:15Z</time>
  <course>323.47</course>
  <speed>1.0220078277586722</speed>
  <fix>3d</fix>
</trkpt>
<trkpt lat="33.8101111" lon="-118.3942627">
  <ele>-34.27</ele>
  <time>2026-09-01T01:17:15Z</time>
  <course>324.84</course>
  <speed>1.0</speed>
  <fix>3d</fix>
</trkpt>
<trkpt lat="33.8101129" lon="-118.3942645">
  <ele>-35.193</ele>
  <time>2026-09-01T01:17:15Z</time>
  <course>323.49</course>
  <speed>1.0220078277586722</speed>
  <fix>3d</fix>
</trkpt>
<trkpt lat="33.8101111" lon="-118.3942627">
  <ele>-34.27</ele>
  <time>2026-09-01T01:17:15Z</time>
  <course>324.84</course>
  <speed>1.0</speed>
  <fix>3d</fix>
</trkpt>
<trkpt lat="33.8101136" lon="-118.3942652">
  <ele>-35.215</ele>
  <time>2026-09-01T01:17:15Z</time>
  <course>323.5</course>
  <speed>1.0220078277586722</speed>
  <fix>3d</fix>
</trkpt>
<trkpt lat="33.8101126" lon="-118.394264">
  <ele>-34.32</ele>
  <time>2026-09-01T01:17:15Z</time>
  <course>324.84</course>
  <speed>1.0</speed>
  <fix>3d</fix>
</trkpt>
<trkpt lat="33.8101144" lon="-118.3942658">
  <ele>-35.238</ele>
  <time>2026-09-01T01:17:15Z</time>
  <course>323.52</course>
  <speed>1.0220078277586722</speed>
  <fix>3d</fix>
</trkpt>
<trkpt lat="33.8101126" lon="-118.394264">
  <ele>-34.32</ele>
  <time>2026-09-01T01:17:15Z</time>
  <course>324.84</course>
  <speed>1.0</speed>
  <fix>3d</fix>
</trkpt>
<trkpt lat="33.8101151" lon="-118.3942664">
  <ele>-35.26</ele>
  <time>2026-09-01T01:17:15Z</time>
  <course>323.53</course>
  <speed>1.0220078277586722</speed>
  <fix>3d</fix>
</trkpt>
<trkpt lat="33.8101141" lon="-118.3942652">
  <ele>-34.36</ele>
  <time>2026-09-01T01:17:15Z</time>
  <course>324.87</course>
  <speed>0.99</speed>
  <fix>3d</fix>
</trkpt>
<trkpt lat="33.8101158" lon="-118.394267">
  <ele>-35.283</ele>
  <time>2026-09-01T01:17:15Z</time>
  <course>323.55</course>
  <speed>1.0220078277586722</speed>
  <fix>3d</fix>
</trkpt>
<trkpt lat="33.8101141" lon="-118.3942652">
  <ele>-34.36</ele>
  <time>2026-09-01T01:17:15Z</time>
  <course>324.87</course>
  <speed>0.99</speed>
  <fix>3d</fix>
</trkpt>
<trkpt lat="33.8101166" lon="-118.3942676">
  <ele>-35.305</ele>
  <time>2026-09-01T01:17:15Z</time>
  <course>323.55</course>
  <speed>1.0220078277586722</speed>
  <fix>3d</fix>
</trkpt>
<trkpt lat="33.8101155" lon="-118.3942664">
  <ele>-34.4</ele>
  <time>2026-09-01T01:17:15Z</time>
  <course>324.89</course>
  <speed>0.99</speed>
  <fix>3d</fix>
</trkpt>
<trkpt lat="33.8101173" lon="-118.3942683">
  <ele>-35.327</ele>
  <time>2026-09-01T01:17:15Z</time>
  <course>323.54</course>
  <speed>1.0220078277586722</speed>
  <fix>3d</fix>
</trkpt>
<trkpt lat="33.8101155" lon="-118.3942664">
  <ele>-34.4</ele>
  <time>2026-09-01T01:17:15Z</time>
  <course>324.89</course>
  <speed>0.99</speed>
  <fix>3d</fix>
</trkpt>
<trkpt lat="33.810118" lon="-118.3942689">
  <ele>-35.349</ele>
  <time>2026-09-01T01:17:15Z</time>
  <course>323.53</course>
  <speed>1.0220078277586722</speed>
  <fix>3d</fix>
</trkpt>
<trkpt lat="33.810117" lon="-118.3942677">
  <ele>-34.45</ele>
  <time>2026-09-01T01:17:15Z</time>
  <course>324.88</course>
  <speed>0.99</speed>
  <fix>3d</fix>
</trkpt>
<trkpt lat="33.8101188" lon="-118.3942695">
  <ele>-35.372</ele>
  <time>2026-09-01T01:17:15Z</time>
  <course>323.52</course>
  <speed>1.0220078277586722</speed>
  <fix>3d</fix>
</trkpt>
<trkpt lat="33.810117" lon="-118.3942677">
  <ele>-34.45</ele>
  <time>2026-09-01T01:17:15Z</time>
  <course>324.88</course>
  <speed>0.99</speed>
  <fix>3d</fix>
</trkpt>
<trkpt lat="33.8101195" lon="-118.3942701">
  <ele>-35.395</ele>
  <time>2026-09-01T01:17:15Z</time>
  <course>323.51</course>
  <speed>1.0220078277586722</speed>
  <fix>3d</fix>
</trkpt>
<trkpt lat="33.8101185" lon="-118.3942689">
  <ele>-34.48</ele>
  <time>2026-09-01T01:17:15Z</time>
  <course>324.87</course>
  <speed>1.0</speed>
  <fix>3d</fix>
</trkpt>
<trkpt lat="33.8101202" lon="-118.3942708">
  <ele>-35.419</ele>
  <time>2026-09-01T01:17:15Z</time>
  <course>323.51</course>
  <speed>1.0220078277586722</speed>
  <fix>3d</fix>
</trkpt>
<trkpt lat="33.8101185" lon="-118.3942689">
  <ele>-34.48</ele>
  <time>2026-09-01T01:17:15Z</time>
  <course>324.87</course>
  <speed>1.0</speed>
  <fix>3d</fix>
</trkpt>
<trkpt lat="33.810121" lon="-118.3942714">
  <ele>-35.443</ele>
  <time>2026-09-01T01:17:15Z</time>
  <course>323.49</course>
  <speed>1.0220078277586722</speed>
  <fix>3d</fix>
</trkpt>
<trkpt lat="33.81012" lon="-118.3942702">
  <ele>-34.53</ele>
  <time>2026-09-01T01:17:15Z</time>
  <course>324.86</course>
  <speed>1.0</speed>
  <fix>3d</fix>
</trkpt>
<trkpt lat="33.8101217" lon="-118.394272">
  <ele>-35.466</ele>
  <time>2026-09-01T01:17:15Z</time>
  <course>323.47</course>
  <speed>1.0220078277586722</speed>
  <fix>3d</fix>
</trkpt>
<trkpt lat="33.81012" lon="-118.3942702">
  <ele>-34.53</ele>
  <time>2026-09-01T01:17:15Z</time>
  <course>324.86</course>
  <speed>1.0</speed>
  <fix>3d</fix>
</trkpt>
<trkpt lat="33.8101225" lon="-118.3942726">
  <ele>-35.489</ele>
  <time>2026-09-01T01:17:15Z</time>
  <course>323.44</course>
  <speed>1.0220078277586722</speed>
  <fix>3d</fix>
</trkpt>
<trkpt lat="33.8101214" lon="-118.3942714">
  <ele>-34.58</ele>
  <time>2026-09-01T01:17:15Z</time>
  <course>324.84</course>
  <speed>0.99</speed>
  <fix>3d</fix>
</trkpt>
<trkpt lat="33.8101232" lon="-118.3942732">
  <ele>-35.51</ele>
  <time>2026-09-01T01:17:15Z</time>
  <course>323.43</course>
  <speed>1.0220078277586722</speed>
  <fix>3d</fix>
</trkpt>
<trkpt lat="33.8101214" lon="-118.3942714">
  <ele>-34.58</ele>
  <time>2026-09-01T01:17:15Z</time>
  <course>324.84</course>
  <speed>0.99</speed>
  <fix>3d</fix>
</trkpt>
<trkpt lat="33.8101239" lon="-118.3942739">
  <ele>-35.53</ele>
  <time>2026-09-01T01:17:15Z</time>
  <course>323.41</course>
  <speed>1.0220078277586722</speed>
  <fix>3d</fix>
</trkpt>
<trkpt lat="33.8101229" lon="-118.3942726">
  <ele>-34.62</ele>
  <time>2026-09-01T01:17:15Z</time>
  <course>324.83</course>
  <speed>0.99</speed>
  <fix>3d</fix>
</trkpt>
<trkpt lat="33.8101247" lon="-118.3942745">
  <ele>-35.55</ele>
  <time>2026-09-01T01:17:15Z</time>
  <course>323.4</course>
  <speed>1.0220078277586722</speed>
  <fix>3d</fix>
</trkpt>
<trkpt lat="33.8101229" lon="-118.3942726">
  <ele>-34.62</ele>
  <time>2026-09-01T01:17:15Z</time>
  <course>324.83</course>
  <speed>0.99</speed>
  <fix>3d</fix>
</trkpt>
<trkpt lat="33.8101254" lon="-118.3942751">
  <ele>-35.57</ele>
  <time>2026-09-01T01:17:15Z</time>
  <course>323.38</course>
  <speed>1.0220078277586722</speed>
  <fix>3d</fix>
</trkpt>
<trkpt lat="33.8101244" lon="-118.3942739">
  <ele>-34.66</ele>
  <time>2026-09-01T01:17:15Z</time>
  <course>324.8</course>
  <speed>0.99</speed>
  <fix>3d</fix>
</trkpt>
<trkpt lat="33.8101261" lon="-118.3942757">
  <ele>-35.59</ele>
  <time>2026-09-01T01:17:15Z</time>
  <course>323.35</course>
  <speed>1.0220078277586722</speed>
  <fix>3d</fix>
</trkpt>
<trkpt lat="33.8101244" lon="-118.3942739">
  <ele>-34.66</ele>
  <time>2026-09-01T01:17:15Z</time>
  <course>324.8</course>
  <speed>0.99</speed>
  <fix>3d</fix>
</trkpt>
<trkpt lat="33.8101269" lon="-118.3942763">
  <ele>-35.612</ele>
  <time>2026-09-01T01:17:15Z</time>
  <course>323.32</course>
  <speed>1.0220078277586722</speed>
  <fix>3d</fix>
</trkpt>
<trkpt lat="33.8101258" lon="-118.3942751">
  <ele>-34.7</ele>
  <time>2026-09-01T01:17:15Z</time>
  <course>324.76</course>
  <speed>0.99</speed>
  <fix>3d</fix>
</trkpt>
<trkpt lat="33.8101276" lon="-118.394277">
  <ele>-35.633</ele>
  <time>2026-09-01T01:17:15Z</time>
  <course>323.3</course>
  <speed>1.0220078277586722</speed>
  <fix>3d</fix>
</trkpt>
<trkpt lat="33.8101258" lon="-118.3942751">
  <ele>-34.7</ele>
  <time>2026-09-01T01:17:15Z</time>
  <course>324.76</course>
  <speed>0.99</speed>
  <fix>3d</fix>
</trkpt>
<trkpt lat="33.8101283" lon="-118.3942776">
  <ele>-35.656</ele>
  <time>2026-09-01T01:17:15Z</time>
  <course>323.28</course>
  <speed>1.0220078277586722</speed>
  <fix>3d</fix>
</trkpt>
<trkpt lat="33.8101273" lon="-118.3942764">
  <ele>-34.74</ele>
  <time>2026-09-01T01:17:15Z</time>
  <course>324.73</course>
  <speed>0.99</speed>
  <fix>3d</fix>
</trkpt>
<trkpt lat="33.8101291" lon="-118.3942782">
  <ele>-35.678</ele>
  <time>2026-09-01T01:17:15Z</time>
  <course>323.27</course>
  <speed>1.0220078277586722</speed>
  <fix>3d</fix>
</trkpt>
<trkpt lat="33.8101273" lon="-118.3942764">
  <ele>-34.74</ele>
  <time>2026-09-01T01:17:15Z</time>
  <course>324.73</course>
  <speed>0.99</speed>
  <fix>3d</fix>
</trkpt>
<trkpt lat="33.8101298" lon="-118.3942789">
  <ele>-35.7</ele>
  <time>2026-09-01T01:17:15Z</time>
  <course>323.27</course>
  <speed>1.0220078277586722</speed>
  <fix>3d</fix>
</trkpt>
<trkpt lat="33.8101288" lon="-118.3942777">
  <ele>-34.79</ele>
  <time>2026-09-01T01:17:15Z</time>
  <course>324.72</course>
  <speed>0.99</speed>
  <fix>3d</fix>
</trkpt>
<trkpt lat="33.8101305" lon="-118.3942795">
  <ele>-35.724</ele>
  <time>2026-09-01T01:17:15Z</time>
  <course>323.28</course>
  <speed>1.0220078277586722</speed>
  <fix>3d</fix>
</trkpt>
<trkpt lat="33.8101288" lon="-118.3942777">
  <ele>-34.79</ele>
  <time>2026-09-01T01:17:15Z</time>
  <course>324.72</course>
  <speed>0.99</speed>
  <fix>3d</fix>
</trkpt>
<trkpt lat="33.8101313" lon="-118.3942801">
  <ele>-35.747</ele>
  <time>2026-09-01T01:17:15Z</time>
  <course>323.3</course>
  <speed>1.0220078277586722</speed>
  <fix>3d</fix>
</trkpt>
<trkpt lat="33.8101302" lon="-118.3942789">
  <ele>-34.83</ele>
  <time>2026-09-01T01:17:15Z</time>
  <course>324.75</course>
  <speed>0.99</speed>
  <fix>3d</fix>
</trkpt>
<trkpt lat="33.810132" lon="-118.3942807">
  <ele>-35.77</ele>
  <time>2026-09-01T01:17:15Z</time>
  <course>323.31</course>
  <speed>1.0220078277586722</speed>
  <fix>3d</fix>
</trkpt>
<trkpt lat="33.8101302" lon="-118.3942789">
  <ele>-34.83</ele>
  <time>2026-09-01T01:17:15Z</time>
  <course>324.75</course>
  <speed>0.99</speed>
  <fix>3d</fix>
</trkpt>
<trkpt lat="33.8101327" lon="-118.3942813">
  <ele>-35.793</ele>
  <time>2026-09-01T01:17:15Z</time>
  <course>323.33</course>
  <speed>1.0220078277586722</speed>
  <fix>3d</fix>
</trkpt>
<trkpt lat="33.8101317" lon="-118.3942801">
  <ele>-34.87</ele>
  <time>2026-09-01T01:17:15Z</time>
  <course>324.79</course>
  <speed>0.99</speed>
  <fix>3d</fix>
</trkpt>
<trkpt lat="33.8101335" lon="-118.394282">
  <ele>-35.816</ele>
  <time>2026-09-01T01:17:15Z</time>
  <course>323.35</course>
  <speed>1.0220078277586722</speed>
  <fix>3d</fix>
</trkpt>
<trkpt lat="33.8101317" lon="-118.3942801">
  <ele>-34.87</ele>
  <time>2026-09-01T01:17:15Z</time>
  <course>324.79</course>
  <speed>0.99</speed>
  <fix>3d</fix>
</trkpt>
<trkpt lat="33.8101342" lon="-118.3942826">
  <ele>-35.838</ele>
  <time>2026-09-01T01:17:15Z</time>
  <course>323.35</course>
  <speed>1.0220078277586722</speed>
  <fix>3d</fix>
</trkpt>
<trkpt lat="33.8101331" lon="-118.3942813">
  <ele>-34.92</ele>
  <time>2026-09-01T01:17:15Z</time>
  <course>324.79</course>
  <speed>0.99</speed>
  <fix>3d</fix>
</trkpt>
<trkpt lat="33.8101349" lon="-118.3942832">
  <ele>-35.861</ele>
  <time>2026-09-01T01:17:15Z</time>
  <course>323.34</course>
  <speed>1.0220078277586722</speed>
  <fix>3d</fix>
</trkpt>
<trkpt lat="33.8101331" lon="-118.3942813">
  <ele>-34.92</ele>
  <time>2026-09-01T01:17:15Z</time>
  <course>324.79</course>
  <speed>0.99</speed>
  <fix>3d</fix>
</trkpt>
<trkpt lat="33.8101357" lon="-118.3942838">
  <ele>-35.884</ele>
  <time>2026-09-01T01:17:15Z</time>
  <course>323.33</course>
  <speed>1.0220078277586722</speed>
  <fix>3d</fix>
</trkpt>
<trkpt lat="33.8101346" lon="-118.3942826">
  <ele>-34.96</ele>
  <time>2026-09-01T01:17:15Z</time>
  <course>324.75</course>
  <speed>0.99</speed>
  <fix>3d</fix>
</trkpt>
<trkpt lat="33.8101364" lon="-118.3942845">
  <ele>-35.905</ele>
  <time>2026-09-01T01:17:15Z</time>
  <course>323.33</course>
  <speed>1.0220078277586722</speed>
  <fix>3d</fix>
</trkpt>
<trkpt lat="33.8101346" lon="-118.3942826">
  <ele>-34.96</ele>
  <time>2026-09-01T01:17:15Z</time>
  <course>324.75</course>
  <speed>0.99</speed>
  <fix>3d</fix>
</trkpt>
<trkpt lat="33.8101371" lon="-118.3942851">
  <ele>-35.927</ele>
  <time>2026-09-01T01:17:15Z</time>
  <course>323.33</course>
  <speed>1.0220078277586722</speed>
  <fix>3d</fix>
</trkpt>
<trkpt lat="33.8101361" lon="-118.3942839">
  <ele>-35.01</ele>
  <time>2026-09-01T01:17:15Z</time>
  <course>324.72</course>
  <speed>0.99</speed>
  <fix>3d</fix>
</trkpt>
<trkpt lat="33.8101379" lon="-118.3942857">
  <ele>-35.948</ele>
  <time>2026-09-01T01:17:15Z</time>
  <course>323.33</course>
  <speed>1.0220078277586722</speed>
  <fix>3d</fix>
</trkpt>
<trkpt lat="33.8101361" lon="-118.3942839">
  <ele>-35.01</ele>
  <time>2026-09-01T01:17:15Z</time>
  <course>324.72</course>
  <speed>0.99</speed>
  <fix>3d</fix>
</trkpt>
<trkpt lat="33.8101386" lon="-118.3942863">
  <ele>-35.969</ele>
  <time>2026-09-01T01:17:15Z</time>
  <course>323.35</course>
  <speed>1.0220078277586722</speed>
  <fix>3d</fix>
</trkpt>
<trkpt lat="33.8101376" lon="-118.3942851">
  <ele>-35.05</ele>
  <time>2026-09-01T01:17:15Z</time>
  <course>324.74</course>
  <speed>0.99</speed>
  <fix>3d</fix>
</trkpt>
<trkpt lat="33.8101393" lon="-118.394287">
  <ele>-35.99</ele>
  <time>2026-09-01T01:17:15Z</time>
  <course>323.36</course>
  <speed>1.0220078277586722</speed>
  <fix>3d</fix>
</trkpt>
<trkpt lat="33.8101376" lon="-118.3942851">
  <ele>-35.05</ele>
  <time>2026-09-01T01:17:15Z</time>
  <course>324.74</course>
  <speed>0.99</speed>
  <fix>3d</fix>
</trkpt>
<trkpt lat="33.8101401" lon="-118.3942876">
  <ele>-36.011</ele>
  <time>2026-09-01T01:17:15Z</time>
  <course>323.35</course>
  <speed>1.0220078277586722</speed>
  <fix>3d</fix>
</trkpt>
<trkpt lat="33.810139" lon="-118.3942864">
  <ele>-35.09</ele>
  <time>2026-09-01T01:17:15Z</time>
  <course>324.74</course>
  <speed>0.99</speed>
  <fix>3d</fix>
</trkpt>
<trkpt lat="33.8101408" lon="-118.3942882">
  <ele>-36.031</ele>
  <time>2026-09-01T01:17:15Z</time>
  <course>323.35</course>
  <speed>1.0220078277586722</speed>
  <fix>3d</fix>
</trkpt>
<trkpt lat="33.810139" lon="-118.3942864">
  <ele>-35.09</ele>
  <time>2026-09-01T01:17:15Z</time>
  <course>324.74</course>
  <speed>0.99</speed>
  <fix>3d</fix>
</trkpt>
<trkpt lat="33.8101415" lon="-118.3942888">
  <ele>-36.052</ele>
  <time>2026-09-01T01:17:15Z</time>
  <course>323.36</course>
  <speed>1.0220078277586722</speed>
  <fix>3d</fix>
</trkpt>
<trkpt lat="33.8101405" lon="-118.3942876">
  <ele>-35.14</ele>
  <time>2026-09-01T01:17:15Z</time>
  <course>324.76</course>
  <speed>0.99</speed>
  <fix>3d</fix>
</trkpt>
<trkpt lat="33.8101423" lon="-118.3942894">
  <ele>-36.073</ele>
  <time>2026-09-01T01:17:15Z</time>
  <course>323.37</course>
  <speed>1.0220078277586722</speed>
  <fix>3d</fix>
</trkpt>
<trkpt lat="33.8101405" lon="-118.3942876">
  <ele>-35.14</ele>
  <time>2026-09-01T01:17:15Z</time>
  <course>324.76</course>
  <speed>0.99</speed>
  <fix>3d</fix>
</trkpt>
<trkpt lat="33.810143" lon="-118.3942901">
  <ele>-36.094</ele>
  <time>2026-09-01T01:17:15Z</time>
  <course>323.38</course>
  <speed>1.0220078277586722</speed>
  <fix>3d</fix>
</trkpt>
<trkpt lat="33.810142" lon="-118.3942889">
  <ele>-35.18</ele>
  <time>2026-09-01T01:17:15Z</time>
  <course>324.79</course>
  <speed>0.99</speed>
  <fix>3d</fix>
</trkpt>
<trkpt lat="33.8101438" lon="-118.3942907">
  <ele>-36.117</ele>
  <time>2026-09-01T01:17:15Z</time>
  <course>323.38</course>
  <speed>1.0220078277586722</speed>
  <fix>3d</fix>
</trkpt>
<trkpt lat="33.810142" lon="-118.3942889">
  <ele>-35.18</ele>
  <time>2026-09-01T01:17:15Z</time>
  <course>324.79</course>
  <speed>0.99</speed>
  <fix>3d</fix>
</trkpt>
<trkpt lat="33.8101445" lon="-118.3942913">
  <ele>-36.14</ele>
  <time>2026-09-01T01:17:15Z</time>
  <course>323.39</course>
  <speed>1.0220078277586722</speed>
  <fix>3d</fix>
</trkpt>
<trkpt lat="33.8101434" lon="-118.3942901">
  <ele>-35.22</ele>
  <time>2026-09-01T01:17:15Z</time>
  <course>324.8</course>
  <speed>0.99</speed>
  <fix>3d</fix>
</trkpt>
<trkpt lat="33.8101452" lon="-118.394292">
  <ele>-36.163</ele>
  <time>2026-09-01T01:17:16Z</time>
  <course>323.39</course>
  <speed>1.0220078277586722</speed>
  <fix>3d</fix>
</trkpt>
<trkpt lat="33.8101434" lon="-118.3942901">
  <ele>-35.22</ele>
  <time>2026-09-01T01:17:16Z</time>
  <course>324.8</course>
  <speed>0.99</speed>
  <fix>3d</fix>
</trkpt>
<trkpt lat="33.810146" lon="-118.3942926">
  <ele>-36.187</ele>
  <time>2026-09-01T01:17:16Z</time>
  <course>323.4</course>
  <speed>1.0220078277586722</speed>
  <fix>3d</fix>
</trkpt>
<trkpt lat="33.8101449" lon="-118.3942913">
  <ele>-35.26</ele>
  <time>2026-09-01T01:17:16Z</time>
  <course>324.8</course>
  <speed>0.99</speed>
  <fix>3d</fix>
</trkpt>
<trkpt lat="33.8101467" lon="-118.3942932">
  <ele>-36.21</ele>
  <time>2026-09-01T01:17:16Z</time>
  <course>323.4</course>
  <speed>1.0220078277586722</speed>
  <fix>3d</fix>
</trkpt>
<trkpt lat="33.8101449" lon="-118.3942913">
  <ele>-35.26</ele>
  <time>2026-09-01T01:17:16Z</time>
  <course>324.8</course>
  <speed>0.99</speed>
  <fix>3d</fix>
</trkpt>
<trkpt lat="33.8101474" lon="-118.3942938">
  <ele>-36.233</ele>
  <time>2026-09-01T01:17:16Z</time>
  <course>323.39</course>
  <speed>1.0220078277586722</speed>
  <fix>3d</fix>
</trkpt>
<trkpt lat="33.8101464" lon="-118.3942926">
  <ele>-35.31</ele>
  <time>2026-09-01T01:17:16Z</time>
  <course>324.79</course>
  <speed>0.99</speed>
  <fix>3d</fix>
</trkpt>
<trkpt lat="33.8101482" lon="-118.3942944">
  <ele>-36.257</ele>
  <time>2026-09-01T01:17:16Z</time>
  <course>323.38</course>
  <speed>1.0220078277586722</speed>
  <fix>3d</fix>
</trkpt>
<trkpt lat="33.8101464" lon="-118.3942926">
  <ele>-35.31</ele>
  <time>2026-09-01T01:17:16Z</time>
  <course>324.79</course>
  <speed>0.99</speed>
  <fix>3d</fix>
</trkpt>
<trkpt lat="33.8101489" lon="-118.3942951">
  <ele>-36.28</ele>
  <time>2026-09-01T01:17:16Z</time>
  <course>323.36</course>
  <speed>1.0220078277586722</speed>
  <fix>3d</fix>
</trkpt>
<trkpt lat="33.8101478" lon="-118.3942938">
  <ele>-35.35</ele>
  <time>2026-09-01T01:17:16Z</time>
  <course>324.76</course>
  <speed>0.99</speed>
  <fix>3d</fix>
</trkpt>
<trkpt lat="33.8101496" lon="-118.3942957">
  <ele>-36.304</ele>
  <time>2026-09-01T01:17:16Z</time>
  <course>323.35</course>
  <speed>1.0220078277586722</speed>
  <fix>3d</fix>
</trkpt>
<trkpt lat="33.8101478" lon="-118.3942938">
  <ele>-35.35</ele>
  <time>2026-09-01T01:17:16Z</time>
  <course>324.76</course>
  <speed>0.99</speed>
  <fix>3d</fix>
</trkpt>
<trkpt lat="33.8101504" lon="-118.3942963">
  <ele>-36.326</ele>
  <time>2026-09-01T01:17:16Z</time>
  <course>323.34</course>
  <speed>1.0220078277586722</speed>
  <fix>3d</fix>
</trkpt>
<trkpt lat="33.8101493" lon="-118.3942951">
  <ele>-35.4</ele>
  <time>2026-09-01T01:17:16Z</time>
  <course>324.75</course>
  <speed>0.99</speed>
  <fix>3d</fix>
</trkpt>
<trkpt lat="33.8101511" lon="-118.3942969">
  <ele>-36.347</ele>
  <time>2026-09-01T01:17:16Z</time>
  <course>323.34</course>
  <speed>1.0220078277586722</speed>
  <fix>3d</fix>
</trkpt>
<trkpt lat="33.8101493" lon="-118.3942951">
  <ele>-35.4</ele>
  <time>2026-09-01T01:17:16Z</time>
  <course>324.75</course>
  <speed>0.99</speed>
  <fix>3d</fix>
</trkpt>
<trkpt lat="33.8101518" lon="-118.3942976">
  <ele>-36.367</ele>
  <time>2026-09-01T01:17:16Z</time>
  <course>323.35</course>
  <speed>1.0220078277586722</speed>
  <fix>3d</fix>
</trkpt>
<trkpt lat="33.8101508" lon="-118.3942963">
  <ele>-35.44</ele>
  <time>2026-09-01T01:17:16Z</time>
  <course>324.76</course>
  <speed>0.99</speed>
  <fix>3d</fix>
</trkpt>
<trkpt lat="33.8101526" lon="-118.3942982">
  <ele>-36.389</ele>
  <time>2026-09-01T01:17:16Z</time>
  <course>323.35</course>
  <speed>1.0220078277586722</speed>
  <fix>3d</fix>
</trkpt>
<trkpt lat="33.8101508" lon="-118.3942963">
  <ele>-35.44</ele>
  <time>2026-09-01T01:17:16Z</time>
  <course>324.76</course>
  <speed>0.99</speed>
  <fix>3d</fix>
</trkpt>
<trkpt lat="33.8101533" lon="-118.3942988">
  <ele>-36.411</ele>
  <time>2026-09-01T01:17:16Z</time>
  <course>323.34</course>
  <speed>1.0220078277586722</speed>
  <fix>3d</fix>
</trkpt>
<trkpt lat="33.8101522" lon="-118.3942975">
  <ele>-35.48</ele>
  <time>2026-09-01T01:17:16Z</time>
  <course>324.76</course>
  <speed>0.99</speed>
  <fix>3d</fix>
</trkpt>
<trkpt lat="33.810154" lon="-118.3942994">
  <ele>-36.433</ele>
  <time>2026-09-01T01:17:16Z</time>
  <course>323.33</course>
  <speed>1.0220078277586722</speed>
  <fix>3d</fix>
</trkpt>
<trkpt lat="33.8101522" lon="-118.3942975">
  <ele>-35.48</ele>
  <time>2026-09-01T01:17:16Z</time>
  <course>324.76</course>
  <speed>0.99</speed>
  <fix>3d</fix>
</trkpt>
<trkpt lat="33.8101548" lon="-118.3943">
  <ele>-36.455</ele>
  <time>2026-09-01T01:17:16Z</time>
  <course>323.31</course>
  <speed>1.0220078277586722</speed>
  <fix>3d</fix>
</trkpt>
<trkpt lat="33.8101537" lon="-118.3942988">
  <ele>-35.52</ele>
  <time>2026-09-01T01:17:16Z</time>
  <course>324.73</course>
  <speed>0.99</speed>
  <fix>3d</fix>
</trkpt>
<trkpt lat="33.8101555" lon="-118.3943007">
  <ele>-36.477</ele>
  <time>2026-09-01T01:17:16Z</time>
  <course>323.3</course>
  <speed>1.0220078277586722</speed>
  <fix>3d</fix>
</trkpt>
<trkpt lat="33.8101537" lon="-118.3942988">
  <ele>-35.52</ele>
  <time>2026-09-01T01:17:16Z</time>
  <course>324.73</course>
  <speed>0.99</speed>
  <fix>3d</fix>
</trkpt>
<trkpt lat="33.8101562" lon="-118.3943013">
  <ele>-36.498</ele>
  <time>2026-09-01T01:17:16Z</time>
  <course>323.29</course>
  <speed>1.0220078277586722</speed>
  <fix>3d</fix>
</trkpt>
<trkpt lat="33.8101551" lon="-118.3943">
  <ele>-35.56</ele>
  <time>2026-09-01T01:17:16Z</time>
  <course>324.71</course>
  <speed>0.99</speed>
  <fix>3d</fix>
</trkpt>
<trkpt lat="33.8101569" lon="-118.3943019">
  <ele>-36.519</ele>
  <time>2026-09-01T01:17:16Z</time>
  <course>323.28</course>
  <speed>1.0220078277586722</speed>
  <fix>3d</fix>
</trkpt>
<trkpt lat="33.8101551" lon="-118.3943">
  <ele>-35.56</ele>
  <time>2026-09-01T01:17:16Z</time>
  <course>324.71</course>
  <speed>0.99</speed>
  <fix>3d</fix>
</trkpt>
<trkpt lat="33.8101577" lon="-118.3943025">
  <ele>-36.541</ele>
  <time>2026-09-01T01:17:16Z</time>
  <course>323.29</course>
  <speed>1.0220078277586722</speed>
  <fix>3d</fix>
</trkpt>
<trkpt lat="33.8101566" lon="-118.3943013">
  <ele>-35.61</ele>
  <time>2026-09-01T01:17:16Z</time>
  <course>324.7</course>
  <speed>0.99</speed>
  <fix>3d</fix>
</trkpt>
<trkpt lat="33.8101584" lon="-118.3943031">
  <ele>-36.562</ele>
  <time>2026-09-01T01:17:16Z</time>
  <course>323.3</course>
  <speed>1.0220078277586722</speed>
  <fix>3d</fix>
</trkpt>
<trkpt lat="33.8101566" lon="-118.3943013">
  <ele>-35.61</ele>
  <time>2026-09-01T01:17:16Z</time>
  <course>324.7</course>
  <speed>0.99</speed>
  <fix>3d</fix>
</trkpt>
<trkpt lat="33.8101592" lon="-118.3943038">
  <ele>-36.584</ele>
  <time>2026-09-01T01:17:16Z</time>
  <course>323.32</course>
  <speed>1.0220078277586722</speed>
  <fix>3d</fix>
</trkpt>
<trkpt lat="33.810158" lon="-118.3943026">
  <ele>-35.65</ele>
  <time>2026-09-01T01:17:16Z</time>
  <course>324.71</course>
  <speed>0.99</speed>
  <fix>3d</fix>
</trkpt>
<trkpt lat="33.8101599" lon="-118.3943044">
  <ele>-36.606</ele>
  <time>2026-09-01T01:17:16Z</time>
  <course>323.34</course>
  <speed>1.0220078277586722</speed>
  <fix>3d</fix>
</trkpt>
<trkpt lat="33.810158" lon="-118.3943026">
  <ele>-35.65</ele>
  <time>2026-09-01T01:17:16Z</time>
  <course>324.71</course>
  <speed>0.99</speed>
  <fix>3d</fix>
</trkpt>
<trkpt lat="33.8101606" lon="-118.394305">
  <ele>-36.628</ele>
  <time>2026-09-01T01:17:16Z</time>
  <course>323.39</course>
  <speed>1.0220078277586722</speed>
  <fix>3d</fix>
</trkpt>
<trkpt lat="33.8101595" lon="-118.3943038">
  <ele>-35.69</ele>
  <time>2026-09-01T01:17:16Z</time>
  <course>324.78</course>
  <speed>1.0</speed>
  <fix>3d</fix>
</trkpt>
<trkpt lat="33.8101614" lon="-118.3943057">
  <ele>-36.649</ele>
  <time>2026-09-01T01:17:16Z</time>
  <course>323.43</course>
  <speed>1.0220078277586722</speed>
  <fix>3d</fix>
</trkpt>
<trkpt lat="33.8101595" lon="-118.3943038">
  <ele>-35.69</ele>
  <time>2026-09-01T01:17:16Z</time>
  <course>324.78</course>
  <speed>1.0</speed>
  <fix>3d</fix>
</trkpt>
<trkpt lat="33.8101621" lon="-118.3943063">
  <ele>-36.671</ele>
  <time>2026-09-01T01:17:16Z</time>
  <course>323.47</course>
  <speed>1.0220078277586722</speed>
  <fix>3d</fix>
</trkpt>
<trkpt lat="33.810161" lon="-118.3943051">
  <ele>-35.73</ele>
  <time>2026-09-01T01:17:16Z</time>
  <course>324.86</course>
  <speed>1.0</speed>
  <fix>3d</fix>
</trkpt>
<trkpt lat="33.8101628" lon="-118.3943069">
  <ele>-36.694</ele>
  <time>2026-09-01T01:17:16Z</time>
  <course>323.5</course>
  <speed>1.0220078277586722</speed>
  <fix>3d</fix>
</trkpt>
<trkpt lat="33.810161" lon="-118.3943051">
  <ele>-35.73</ele>
  <time>2026-09-01T01:17:16Z</time>
  <course>324.86</course>
  <speed>1.0</speed>
  <fix>3d</fix>
</trkpt>
<trkpt lat="33.8101636" lon="-118.3943075">
  <ele>-36.717</ele>
  <time>2026-09-01T01:17:16Z</time>
  <course>323.53</course>
  <speed>1.0220078277586722</speed>
  <fix>3d</fix>
</trkpt>
<trkpt lat="33.8101625" lon="-118.3943062">
  <ele>-35.78</ele>
  <time>2026-09-01T01:17:16Z</time>
  <course>324.92</course>
  <speed>1.0</speed>
  <fix>3d</fix>
</trkpt>
<trkpt lat="33.8101643" lon="-118.3943082">
  <ele>-36.739</ele>
  <time>2026-09-01T01:17:16Z</time>
  <course>323.54</course>
  <speed>1.0220078277586722</speed>
  <fix>3d</fix>
</trkpt>
<trkpt lat="33.8101625" lon="-118.3943062">
  <ele>-35.78</ele>
  <time>2026-09-01T01:17:16Z</time>
  <course>324.92</course>
  <speed>1.0</speed>
  <fix>3d</fix>
</trkpt>
<trkpt lat="33.810165" lon="-118.3943088">
  <ele>-36.761</ele>
  <time>2026-09-01T01:17:16Z</time>
  <course>323.52</course>
  <speed>1.0220078277586722</speed>
  <fix>3d</fix>
</trkpt>
<trkpt lat="33.810164" lon="-118.3943075">
  <ele>-35.83</ele>
  <time>2026-09-01T01:17:16Z</time>
  <course>324.9</course>
  <speed>1.0</speed>
  <fix>3d</fix>
</trkpt>
<trkpt lat="33.8101658" lon="-118.3943094">
  <ele>-36.782</ele>
  <time>2026-09-01T01:17:16Z</time>
  <course>323.49</course>
  <speed>1.0220078277586722</speed>
  <fix>3d</fix>
</trkpt>
<trkpt lat="33.810164" lon="-118.3943075">
  <ele>-35.83</ele>
  <time>2026-09-01T01:17:16Z</time>
  <course>324.9</course>
  <speed>1.0</speed>
  <fix>3d</fix>
</trkpt>
<trkpt lat="33.8101665" lon="-118.39431">
  <ele>-36.805</ele>
  <time>2026-09-01T01:17:16Z</time>
  <course>323.45</course>
  <speed>1.0220078277586722</speed>
  <fix>3d</fix>
</trkpt>
<trkpt lat="33.8101654" lon="-118.3943088">
  <ele>-35.87</ele>
  <time>2026-09-01T01:17:16Z</time>
  <course>324.83</course>
  <speed>1.0</speed>
  <fix>3d</fix>
</trkpt>
<trkpt lat="33.8101672" lon="-118.3943106">
  <ele>-36.827</ele>
  <time>2026-09-01T01:17:16Z</time>
  <course>323.41</course>
  <speed>1.0220078277586722</speed>
  <fix>3d</fix>
</trkpt>
<trkpt lat="33.8101654" lon="-118.3943088">
  <ele>-35.87</ele>
  <time>2026-09-01T01:17:16Z</time>
  <course>324.83</course>
  <speed>1.0</speed>
  <fix>3d</fix>
</trkpt>
<trkpt lat="33.810168" lon="-118.3943113">
  <ele>-36.85</ele>
  <time>2026-09-01T01:17:16Z</time>
  <course>323.4</course>
  <speed>1.0220078277586722</speed>
  <fix>3d</fix>
</trkpt>
<trkpt lat="33.8101669" lon="-118.39431">
  <ele>-35.91</ele>
  <time>2026-09-01T01:17:16Z</time>
  <course>324.79</course>
  <speed>1.0</speed>
  <fix>3d</fix>
</trkpt>
<trkpt lat="33.8101687" lon="-118.3943119">
  <ele>-36.873</ele>
  <time>2026-09-01T01:17:16Z</time>
  <course>323.39</course>
  <speed>1.0220078277586722</speed>
  <fix>3d</fix>
</trkpt>
<trkpt lat="33.8101669" lon="-118.39431">
  <ele>-35.91</ele>
  <time>2026-09-01T01:17:16Z</time>
  <course>324.79</course>
  <speed>1.0</speed>
  <fix>3d</fix>
</trkpt>
<trkpt lat="33.8101694" lon="-118.3943125">
  <ele>-36.896</ele>
  <time>2026-09-01T01:17:16Z</time>
  <course>323.38</course>
  <speed>1.0220078277586722</speed>
  <fix>3d</fix>
</trkpt>
<trkpt lat="33.8101683" lon="-118.3943113">
  <ele>-35.96</ele>
  <time>2026-09-01T01:17:16Z</time>
  <course>324.79</course>
  <speed>1.0</speed>
  <fix>3d</fix>
</trkpt>
<trkpt lat="33.8101702" lon="-118.3943131">
  <ele>-36.92</ele>
  <time>2026-09-01T01:17:16Z</time>
  <course>323.39</course>
  <speed>1.0220078277586722</speed>
  <fix>3d</fix>
</trkpt>
<trkpt lat="33.8101683" lon="-118.3943113">
  <ele>-35.96</ele>
  <time>2026-09-01T01:17:16Z</time>
  <course>324.79</course>
  <speed>1.0</speed>
  <fix>3d</fix>
</trkpt>
<trkpt lat="33.8101709" lon="-118.3943138">
  <ele>-36.943</ele>
  <time>2026-09-01T01:17:16Z</time>
  <course>323.4</course>
  <speed>1.0220078277586722</speed>
  <fix>3d</fix>
</trkpt>
<trkpt lat="33.8101698" lon="-118.3943125">
  <ele>-36.0</ele>
  <time>2026-09-01T01:17:16Z</time>
  <course>324.82</course>
  <speed>1.0</speed>
  <fix>3d</fix>
</trkpt>
<trkpt lat="33.8101716" lon="-118.3943144">
  <ele>-36.965</ele>
  <time>2026-09-01T01:17:16Z</time>
  <course>323.42</course>
  <speed>1.0220078277586722</speed>
  <fix>3d</fix>
</trkpt>
<trkpt lat="33.8101698" lon="-118.3943125">
  <ele>-36.0</ele>
  <time>2026-09-01T01:17:16Z</time>
  <course>324.82</course>
  <speed>1.0</speed>
  <fix>3d</fix>
</trkpt>
<trkpt lat="33.8101724" lon="-118.394315">
  <ele>-36.987</ele>
  <time>2026-09-01T01:17:16Z</time>
  <course>323.43</course>
  <speed>1.0220078277586722</speed>
  <fix>3d</fix>
</trkpt>
<trkpt lat="33.8101713" lon="-118.3943138">
  <ele>-36.04</ele>
  <time>2026-09-01T01:17:16Z</time>
  <course>324.86</course>
  <speed>1.0</speed>
  <fix>3d</fix>
</trkpt>
<trkpt lat="33.8101731" lon="-118.3943156">
  <ele>-37.009</ele>
  <time>2026-09-01T01:17:16Z</time>
  <course>323.45</course>
  <speed>1.0220078277586722</speed>
  <fix>3d</fix>
</trkpt>
<trkpt lat="33.8101713" lon="-118.3943138">
  <ele>-36.04</ele>
  <time>2026-09-01T01:17:16Z</time>
  <course>324.86</course>
  <speed>1.0</speed>
  <fix>3d</fix>
</trkpt>
<trkpt lat="33.8101738" lon="-118.3943163">
  <ele>-37.032</ele>
  <time>2026-09-01T01:17:16Z</time>
  <course>323.46</course>
  <speed>1.0220078277586722</speed>
  <fix>3d</fix>
</trkpt>
<trkpt lat="33.8101728" lon="-118.394315">
  <ele>-36.09</ele>
  <time>2026-09-01T01:17:16Z</time>
  <course>324.89</course>
  <speed>1.0</speed>
  <fix>3d</fix>
</trkpt>
<trkpt lat="33.8101746" lon="-118.3943169">
  <ele>-37.054</ele>
  <time>2026-09-01T01:17:16Z</time>
  <course>323.47</course>
  <speed>1.0220078277586722</speed>
  <fix>3d</fix>
</trkpt>
<trkpt lat="33.8101728" lon="-118.394315">
  <ele>-36.09</ele>
  <time>2026-09-01T01:17:16Z</time>
  <course>324.89</course>
  <speed>1.0</speed>
  <fix>3d</fix>
</trkpt>
<trkpt lat="33.8101753" lon="-118.3943175">
  <ele>-37.076</ele>
  <time>2026-09-01T01:17:16Z</time>
  <course>323.45</course>
  <speed>1.0220078277586722</speed>
  <fix>3d</fix>
</trkpt>
<trkpt lat="33.8101743" lon="-118.3943162">
  <ele>-36.13</ele>
  <time>2026-09-01T01:17:16Z</time>
  <course>324.87</course>
  <speed>1.0</speed>
  <fix>3d</fix>
</trkpt>
<trkpt lat="33.810176" lon="-118.3943181">
  <ele>-37.1</ele>
  <time>2026-09-01T01:17:16Z</time>
  <course>323.43</course>
  <speed>1.0220078277586722</speed>
  <fix>3d</fix>
</trkpt>
<trkpt lat="33.8101743" lon="-118.3943162">
  <ele>-36.13</ele>
  <time>2026-09-01T01:17:16Z</time>
  <course>324.87</course>
  <speed>1.0</speed>
  <fix>3d</fix>
</trkpt>
<trkpt lat="33.8101768" lon="-118.3943187">
  <ele>-37.123</ele>
  <time>2026-09-01T01:17:16Z</time>
  <course>323.4</course>
  <speed>1.0220078277586722</speed>
  <fix>3d</fix>
</trkpt>
<trkpt lat="33.8101757" lon="-118.3943175">
  <ele>-36.17</ele>
  <time>2026-09-01T01:17:16Z</time>
  <course>324.79</course>
  <speed>1.0</speed>
  <fix>3d</fix>
</trkpt>
<trkpt lat="33.8101775" lon="-118.3943193">
  <ele>-37.147</ele>
  <time>2026-09-01T01:17:16Z</time>
  <course>323.35</course>
  <speed>1.0220078277586722</speed>
  <fix>3d</fix>
</trkpt>
<trkpt lat="33.8101757" lon="-118.3943175">
  <ele>-36.17</ele>
  <time>2026-09-01T01:17:16Z</time>
  <course>324.79</course>
  <speed>1.0</speed>
  <fix>3d</fix>
</trkpt>
<trkpt lat="33.8101782" lon="-118.39432">
  <ele>-37.17</ele>
  <time>2026-09-01T01:17:16Z</time>
  <course>323.32</course>
  <speed>1.0220078277586722</speed>
  <fix>3d</fix>
</trkpt>
<trkpt lat="33.8101772" lon="-118.3943188">
  <ele>-36.21</ele>
  <time>2026-09-01T01:17:16Z</time>
  <course>324.73</course>
  <speed>1.0</speed>
  <fix>3d</fix>
</trkpt>
<trkpt lat="33.810179" lon="-118.3943206">
  <ele>-37.194</ele>
  <time>2026-09-01T01:17:16Z</time>
  <course>323.31</course>
  <speed>1.0220078277586722</speed>
  <fix>3d</fix>
</trkpt>
<trkpt lat="33.8101772" lon="-118.3943188">
  <ele>-36.21</ele>
  <time>2026-09-01T01:17:16Z</time>
  <course>324.73</course>
  <speed>1.0</speed>
  <fix>3d</fix>
</trkpt>
<trkpt lat="33.8101797" lon="-118.3943212">
  <ele>-37.217</ele>
  <time>2026-09-01T01:17:16Z</time>
  <course>323.31</course>
  <speed>1.0220078277586722</speed>
  <fix>3d</fix>
</trkpt>
<trkpt lat="33.8101786" lon="-118.39432">
  <ele>-36.25</ele>
  <time>2026-09-01T01:17:16Z</time>
  <course>324.74</course>
  <speed>1.0</speed>
  <fix>3d</fix>
</trkpt>
<trkpt lat="33.8101804" lon="-118.3943218">
  <ele>-37.24</ele>
  <time>2026-09-01T01:17:16Z</time>
  <course>323.33</course>
  <speed>1.0220078277586722</speed>
  <fix>3d</fix>
</trkpt>
<trkpt lat="33.8101786" lon="-118.39432">
  <ele>-36.25</ele>
  <time>2026-09-01T01:17:16Z</time>
  <course>324.74</course>
  <speed>1.0</speed>
  <fix>3d</fix>
</trkpt>
<trkpt lat="33.8101812" lon="-118.3943225">
  <ele>-37.261</ele>
  <time>2026-09-01T01:17:16Z</time>
  <course>323.34</course>
  <speed>1.0220078277586722</speed>
  <fix>3d</fix>
</trkpt>
<trkpt lat="33.8101801" lon="-118.3943213">
  <ele>-36.3</ele>
  <time>2026-09-01T01:17:16Z</time>
  <course>324.78</course>
  <speed>1.0</speed>
  <fix>3d</fix>
</trkpt>
<trkpt lat="33.8101819" lon="-118.3943231">
  <ele>-37.281</ele>
  <time>2026-09-01T01:17:16Z</time>
  <course>323.37</course>
  <speed>1.0220078277586722</speed>
  <fix>3d</fix>
</trkpt>
<trkpt lat="33.8101801" lon="-118.3943213">
  <ele>-36.3</ele>
  <time>2026-09-01T01:17:16Z</time>
  <course>324.78</course>
  <speed>1.0</speed>
  <fix>3d</fix>
</trkpt>
<trkpt lat="33.8101826" lon="-118.3943237">
  <ele>-37.301</ele>
  <time>2026-09-01T01:17:16Z</time>
  <course>323.39</course>
  <speed>1.0220078277586722</speed>
  <fix>3d</fix>
</trkpt>
<trkpt lat="33.8101816" lon="-118.3943225">
  <ele>-36.34</ele>
  <time>2026-09-01T01:17:16Z</time>
  <course>324.83</course>
  <speed>1.0</speed>
  <fix>3d</fix>
</trkpt>
<trkpt lat="33.8101834" lon="-118.3943243">
  <ele>-37.322</ele>
  <time>2026-09-01T01:17:16Z</time>
  <course>323.41</course>
  <speed>1.0220078277586722</speed>
  <fix>3d</fix>
</trkpt>
<trkpt lat="33.8101816" lon="-118.3943225">
  <ele>-36.34</ele>
  <time>2026-09-01T01:17:16Z</time>
  <course>324.83</course>
  <speed>1.0</speed>
  <fix>3d</fix>
</trkpt>
<trkpt lat="33.8101841" lon="-118.394325">
  <ele>-37.343</ele>
  <time>2026-09-01T01:17:16Z</time>
  <course>323.42</course>
  <speed>1.0220078277586722</speed>
  <fix>3d</fix>
</trkpt>
<trkpt lat="33.8101831" lon="-118.3943238">
  <ele>-36.38</ele>
  <time>2026-09-01T01:17:16Z</time>
  <course>324.87</course>
  <speed>1.0</speed>
  <fix>3d</fix>
</trkpt>
<trkpt lat="33.8101848" lon="-118.3943256">
  <ele>-37.366</ele>
  <time>2026-09-01T01:17:16Z</time>
  <course>323.42</course>
  <speed>1.0220078277586722</speed>
  <fix>3d</fix>
</trkpt>
<trkpt lat="33.8101831" lon="-118.3943238">
  <ele>-36.38</ele>
  <time>2026-09-01T01:17:16Z</time>
  <course>324.87</course>
  <speed>1.0</speed>
  <fix>3d</fix>
</trkpt>
<trkpt lat="33.8101856" lon="-118.3943262">
  <ele>-37.388</ele>
  <time>2026-09-01T01:17:16Z</time>
  <course>323.42</course>
  <speed>1.0220078277586722</speed>
  <fix>3d</fix>
</trkpt>
<trkpt lat="33.8101846" lon="-118.3943251">
  <ele>-36.42</ele>
  <time>2026-09-01T01:17:16Z</time>
  <course>324.85</course>
  <speed>1.0</speed>
  <fix>3d</fix>
</trkpt>
<trkpt lat="33.8101863" lon="-118.3943268">
  <ele>-37.41</ele>
  <time>2026-09-01T01:17:16Z</time>
  <course>323.42</course>
  <speed>1.0220078277586722</speed>
  <fix>3d</fix>
</trkpt>
<trkpt lat="33.8101846" lon="-118.3943251">
  <ele>-36.42</ele>
  <time>2026-09-01T01:17:16Z</time>
  <course>324.85</course>
  <speed>1.0</speed>
  <fix>3d</fix>
</trkpt>
<trkpt lat="33.810187" lon="-118.3943275">
  <ele>-37.433</ele>
  <time>2026-09-01T01:17:16Z</time>
  <course>323.42</course>
  <speed>1.0220078277586722</speed>
  <fix>3d</fix>
</trkpt>
<trkpt lat="33.8101861" lon="-118.3943263">
  <ele>-36.47</ele>
  <time>2026-09-01T01:17:16Z</time>
  <course>324.84</course>
  <speed>1.0</speed>
  <fix>3d</fix>
</trkpt>
<trkpt lat="33.8101878" lon="-118.3943281">
  <ele>-37.456</ele>
  <time>2026-09-01T01:17:16Z</time>
  <course>323.43</course>
  <speed>1.0220078277586722</speed>
  <fix>3d</fix>
</trkpt>
<trkpt lat="33.8101861" lon="-118.3943263">
  <ele>-36.47</ele>
  <time>2026-09-01T01:17:16Z</time>
  <course>324.84</course>
  <speed>1.0</speed>
  <fix>3d</fix>
</trkpt>
<trkpt lat="33.8101885" lon="-118.3943287">
  <ele>-37.48</ele>
  <time>2026-09-01T01:17:16Z</time>
  <course>323.42</course>
  <speed>1.0220078277586722</speed>
  <fix>3d</fix>
</trkpt>
<trkpt lat="33.8101876" lon="-118.3943276">
  <ele>-36.51</ele>
  <time>2026-09-01T01:17:16Z</time>
  <course>324.84</course>
  <speed>1.0</speed>
  <fix>3d</fix>
</trkpt>
<trkpt lat="33.8101893" lon="-118.3943294">
  <ele>-37.502</ele>
  <time>2026-09-01T01:17:16Z</time>
  <course>323.41</course>
  <speed>1.0220078277586722</speed>
  <fix>3d</fix>
</trkpt>
<trkpt lat="33.8101876" lon="-118.3943276">
  <ele>-36.51</ele>
  <time>2026-09-01T01:17:16Z</time>
  <course>324.84</course>
  <speed>1.0</speed>
  <fix>3d</fix>
</trkpt>
<trkpt lat="33.81019" lon="-118.39433">
  <ele>-37.524</ele>
  <time>2026-09-01T01:17:16Z</time>
  <course>323.4</course>
  <speed>1.0080178569846865</speed>
  <fix>3d</fix>
</trkpt>
<trkpt lat="33.810189" lon="-118.3943288">
  <ele>-36.56</ele>
  <time>2026-09-01T01:17:16Z</time>
  <course>324.82</course>
  <speed>1.0</speed>
  <fix>3d</fix>
</trkpt>
<trkpt lat="33.8101907" lon="-118.3943306">
  <ele>-37.546</ele>
  <time>2026-09-01T01:17:16Z</time>
  <course>323.39</course>
  <speed>1.0140019723846694</speed>
  <fix>3d</fix>
</trkpt>
<trkpt lat="33.810189" lon="-118.3943288">
  <ele>-36.56</ele>
  <time>2026-09-01T01:17:16Z</time>
  <course>324.82</course>
  <speed>1.0</speed>
  <fix>3d</fix>
</trkpt>
<trkpt lat="33.8101915" lon="-118.3943312">
  <ele>-37.569</ele>
  <time>2026-09-01T01:17:16Z</time>
  <course>323.38</course>
  <speed>1.0080178569846865</speed>
  <fix>3d</fix>
</trkpt>
<trkpt lat="33.8101905" lon="-118.3943301">
  <ele>-36.6</ele>
  <time>2026-09-01T01:17:16Z</time>
  <course>324.8</course>
  <speed>1.0</speed>
  <fix>3d</fix>
</trkpt>
<trkpt lat="33.8101922" lon="-118.3943319">
  <ele>-37.591</ele>
  <time>2026-09-01T01:17:16Z</time>
  <course>323.38</course>
  <speed>1.0080178569846865</speed>
  <fix>3d</fix>
</trkpt>
<trkpt lat="33.8101905" lon="-118.3943301">
  <ele>-36.6</ele>
  <time>2026-09-01T01:17:16Z</time>
  <course>324.8</course>
  <speed>1.0</speed>
  <fix>3d</fix>
</trkpt>
<trkpt lat="33.8101929" lon="-118.3943325">
  <ele>-37.614</ele>
  <time>2026-09-01T01:17:16Z</time>
  <course>323.38</course>
  <speed>1.016070863670443</speed>
  <fix>3d</fix>
</trkpt>
<trkpt lat="33.810192" lon="-118.3943313">
  <ele>-36.65</ele>
  <time>2026-09-01T01:17:16Z</time>
  <course>324.82</course>
  <speed>0.99</speed>
  <fix>3d</fix>
</trkpt>
<trkpt lat="33.8101937" lon="-118.3943331">
  <ele>-37.638</ele>
  <time>2026-09-01T01:17:16Z</time>
  <course>323.39</course>
  <speed>1.0140019723846694</speed>
  <fix>3d</fix>
</trkpt>
<trkpt lat="33.810192" lon="-118.3943313">
  <ele>-36.65</ele>
  <time>2026-09-01T01:17:16Z</time>
  <course>324.82</course>
  <speed>0.99</speed>
  <fix>3d</fix>
</trkpt>
<trkpt lat="33.8101944" lon="-118.3943337">
  <ele>-37.662</ele>
  <time>2026-09-01T01:17:16Z</time>
  <course>323.38</course>
  <speed>1.0080178569846865</speed>
  <fix>3d</fix>
</trkpt>
<trkpt lat="33.8101934" lon="-118.3943325">
  <ele>-36.69</ele>
  <time>2026-09-01T01:17:16Z</time>
  <course>324.83</course>
  <speed>0.99</speed>
  <fix>3d</fix>
</trkpt>
<trkpt lat="33.8101951" lon="-118.3943343">
  <ele>-37.684</ele>
  <time>2026-09-01T01:17:16Z</time>
  <course>323.37</course>
  <speed>1.0140019723846694</speed>
  <fix>3d</fix>
</trkpt>
<trkpt lat="33.8101934" lon="-118.3943325">
  <ele>-36.69</ele>
  <time>2026-09-01T01:17:16Z</time>
  <course>324.83</course>
  <speed>0.99</speed>
  <fix>3d</fix>
</trkpt>
<trkpt lat="33.8101959" lon="-118.394335">
  <ele>-37.707</ele>
  <time>2026-09-01T01:17:16Z</time>
  <course>323.35</course>
  <speed>1.0080178569846865</speed>
  <fix>3d</fix>
</trkpt>
<trkpt lat="33.8101949" lon="-118.3943338">
  <ele>-36.73</ele>
  <time>2026-09-01T01:17:16Z</time>
  <course>324.8</course>
  <speed>0.99</speed>
  <fix>3d</fix>
</trkpt>
<trkpt lat="33.8101966" lon="-118.3943356">
  <ele>-37.729</ele>
  <time>2026-09-01T01:17:16Z</time>
  <course>323.34</course>
  <speed>1.0140019723846694</speed>
  <fix>3d</fix>
</trkpt>
<trkpt lat="33.8101949" lon="-118.3943338">
  <ele>-36.73</ele>
  <time>2026-09-01T01:17:16Z</time>
  <course>324.8</course>
  <speed>0.99</speed>
  <fix>3d</fix>
</trkpt>
<trkpt lat="33.8101974" lon="-118.3943362">
  <ele>-37.75</ele>
  <time>2026-09-01T01:17:16Z</time>
  <course>323.33</course>
  <speed>1.0080178569846865</speed>
  <fix>3d</fix>
</trkpt>
<trkpt lat="33.8101963" lon="-118.394335">
  <ele>-36.78</ele>
  <time>2026-09-01T01:17:16Z</time>
  <course>324.79</course>
  <speed>0.99</speed>
  <fix>3d</fix>
</trkpt>
<trkpt lat="33.8101981" lon="-118.3943368">
  <ele>-37.772</ele>
  <time>2026-09-01T01:17:16Z</time>
  <course>323.33</course>
  <speed>1.0140019723846694</speed>
  <fix>3d</fix>
</trkpt>
<trkpt lat="33.8101963" lon="-118.394335">
  <ele>-36.78</ele>
  <time>2026-09-01T01:17:16Z</time>
  <course>324.79</course>
  <speed>0.99</speed>
  <fix>3d</fix>
</trkpt>
<trkpt lat="33.8101988" lon="-118.3943375">
  <ele>-37.794</ele>
  <time>2026-09-01T01:17:16Z</time>
  <course>323.33</course>
  <speed>1.0080178569846865</speed>
  <fix>3d</fix>
</trkpt>
<trkpt lat="33.8101978" lon="-118.3943363">
  <ele>-36.82</ele>
  <time>2026-09-01T01:17:16Z</time>
  <course>324.79</course>
  <speed>0.99</speed>
  <fix>3d</fix>
</trkpt>
<trkpt lat="33.8101996" lon="-118.3943381">
  <ele>-37.815</ele>
  <time>2026-09-01T01:17:16Z</time>
  <course>323.33</course>
  <speed>1.0220078277586722</speed>
  <fix>3d</fix>
</trkpt>
<trkpt lat="33.8101978" lon="-118.3943363">
  <ele>-36.82</ele>
  <time>2026-09-01T01:17:16Z</time>
  <course>324.79</course>
  <speed>0.99</speed>
  <fix>3d</fix>
</trkpt>
<trkpt lat="33.8102003" lon="-118.3943387">
  <ele>-37.835</ele>
  <time>2026-09-01T01:17:16Z</time>
  <course>323.34</course>
  <speed>1.016070863670443</speed>
  <fix>3d</fix>
</trkpt>
<trkpt lat="33.8101993" lon="-118.3943375">
  <ele>-36.86</ele>
  <time>2026-09-01T01:17:16Z</time>
  <course>324.8</course>
  <speed>0.99</speed>
  <fix>3d</fix>
</trkpt>
<trkpt lat="33.810201" lon="-118.3943393">
  <ele>-37.855</ele>
  <time>2026-09-01T01:17:16Z</time>
  <course>323.36</course>
  <speed>1.0220078277586722</speed>
  <fix>3d</fix>
</trkpt>
<trkpt lat="33.8101993" lon="-118.3943375">
  <ele>-36.86</ele>
  <time>2026-09-01T01:17:16Z</time>
  <course>324.8</course>
  <speed>0.99</speed>
  <fix>3d</fix>
</trkpt>
<trkpt lat="33.8102017" lon="-118.3943399">
  <ele>-37.876</ele>
  <time>2026-09-01T01:17:16Z</time>
  <course>323.37</course>
  <speed>1.0220078277586722</speed>
  <fix>3d</fix>
</trkpt>
<trkpt lat="33.8102007" lon="-118.3943387">
  <ele>-36.9</ele>
  <time>2026-09-01T01:17:16Z</time>
  <course>324.8</course>
  <speed>0.99</speed>
  <fix>3d</fix>
</trkpt>
<trkpt lat="33.8102025" lon="-118.3943406">
  <ele>-37.896</ele>
  <time>2026-09-01T01:17:16Z</time>
  <course>323.36</course>
  <speed>1.0220078277586722</speed>
  <fix>3d</fix>
</trkpt>
<trkpt lat="33.8102007" lon="-118.3943387">
  <ele>-36.9</ele>
  <time>2026-09-01T01:17:16Z</time>
  <course>324.8</course>
  <speed>0.99</speed>
  <fix>3d</fix>
</trkpt>
<trkpt lat="33.8102032" lon="-118.3943412">
  <ele>-37.918</ele>
  <time>2026-09-01T01:17:16Z</time>
  <course>323.34</course>
  <speed>1.0220078277586722</speed>
  <fix>3d</fix>
</trkpt>
<trkpt lat="33.8102022" lon="-118.39434">
  <ele>-36.95</ele>
  <time>2026-09-01T01:17:16Z</time>
  <course>324.78</course>
  <speed>0.99</speed>
  <fix>3d</fix>
</trkpt>
<trkpt lat="33.8102039" lon="-118.3943418">
  <ele>-37.941</ele>
  <time>2026-09-01T01:17:16Z</time>
  <course>323.34</course>
  <speed>1.0220078277586722</speed>
  <fix>3d</fix>
</trkpt>
<trkpt lat="33.8102022" lon="-118.39434">
  <ele>-36.95</ele>
  <time>2026-09-01T01:17:16Z</time>
  <course>324.78</course>
  <speed>0.99</speed>
  <fix>3d</fix>
</trkpt>
<trkpt lat="33.8102047" lon="-118.3943424">
  <ele>-37.964</ele>
  <time>2026-09-01T01:17:16Z</time>
  <course>323.33</course>
  <speed>1.0220078277586722</speed>
  <fix>3d</fix>
</trkpt>
<trkpt lat="33.8102037" lon="-118.3943413">
  <ele>-36.98</ele>
  <time>2026-09-01T01:17:16Z</time>
  <course>324.75</course>
  <speed>1.0</speed>
  <fix>3d</fix>
</trkpt>
<trkpt lat="33.8102054" lon="-118.3943431">
  <ele>-37.985</ele>
  <time>2026-09-01T01:17:16Z</time>
  <course>323.34</course>
  <speed>1.0220078277586722</speed>
  <fix>3d</fix>
</trkpt>
<trkpt lat="33.8102037" lon="-118.3943413">
  <ele>-36.98</ele>
  <time>2026-09-01T01:17:16Z</time>
  <course>324.75</course>
  <speed>1.0</speed>
  <fix>3d</fix>
</trkpt>
<trkpt lat="33.8102062" lon="-118.3943437">
  <ele>-38.005</ele>
  <time>2026-09-01T01:17:16Z</time>
  <course>323.34</course>
  <speed>1.0220078277586722</speed>
  <fix>3d</fix>
</trkpt>
<trkpt lat="33.8102052" lon="-118.3943425">
  <ele>-37.03</ele>
  <time>2026-09-01T01:17:16Z</time>
  <course>324.77</course>
  <speed>0.99</speed>
  <fix>3d</fix>
</trkpt>
<trkpt lat="33.8102069" lon="-118.3943443">
  <ele>-38.026</ele>
  <time>2026-09-01T01:17:16Z</time>
  <course>323.36</course>
  <speed>1.0220078277586722</speed>
  <fix>3d</fix>
</trkpt>
<trkpt lat="33.8102052" lon="-118.3943425">
  <ele>-37.03</ele>
  <time>2026-09-01T01:17:16Z</time>
  <course>324.77</course>
  <speed>0.99</speed>
  <fix>3d</fix>
</trkpt>
<trkpt lat="33.8102076" lon="-118.3943449">
  <ele>-38.046</ele>
  <time>2026-09-01T01:17:16Z</time>
  <course>323.35</course>
  <speed>1.016070863670443</speed>
  <fix>3d</fix>
</trkpt>
<trkpt lat="33.8102066" lon="-118.3943438">
  <ele>-37.07</ele>
  <time>2026-09-01T01:17:16Z</time>
  <course>324.79</course>
  <speed>0.99</speed>
  <fix>3d</fix>
</trkpt>
<trkpt lat="33.8102084" lon="-118.3943456">
  <ele>-38.066</ele>
  <time>2026-09-01T01:17:16Z</time>
  <course>323.36</course>
  <speed>1.0220078277586722</speed>
  <fix>3d</fix>
</trkpt>
<trkpt lat="33.8102066" lon="-118.3943438">
  <ele>-37.07</ele>
  <time>2026-09-01T01:17:16Z</time>
  <course>324.79</course>
  <speed>0.99</speed>
  <fix>3d</fix>
</trkpt>
<trkpt lat="33.8102091" lon="-118.3943462">
  <ele>-38.088</ele>
  <time>2026-09-01T01:17:16Z</time>
  <course>323.36</course>
  <speed>1.016070863670443</speed>
  <fix>3d</fix>
</trkpt>
<trkpt lat="33.8102081" lon="-118.3943449">
  <ele>-37.12</ele>
  <time>2026-09-01T01:17:16Z</time>
  <course>324.8</course>
  <speed>0.99</speed>
  <fix>3d</fix>
</trkpt>
<trkpt lat="33.8102098" lon="-118.3943468">
  <ele>-38.11</ele>
  <time>2026-09-01T01:17:16Z</time>
  <course>323.37</course>
  <speed>1.0220078277586722</speed>
  <fix>3d</fix>
</trkpt>
<trkpt lat="33.8102081" lon="-118.3943449">
  <ele>-37.12</ele>
  <time>2026-09-01T01:17:16Z</time>
  <course>324.8</course>
  <speed>0.99</speed>
  <fix>3d</fix>
</trkpt>
<trkpt lat="33.8102106" lon="-118.3943474">
  <ele>-38.132</ele>
  <time>2026-09-01T01:17:16Z</time>
  <course>323.35</course>
  <speed>1.0140019723846694</speed>
  <fix>3d</fix>
</trkpt>
<trkpt lat="33.8102096" lon="-118.3943462">
  <ele>-37.16</ele>
  <time>2026-09-01T01:17:16Z</time>
  <course>324.79</course>
  <speed>0.99</speed>
  <fix>3d</fix>
</trkpt>
<trkpt lat="33.8102113" lon="-118.394348">
  <ele>-38.156</ele>
  <time>2026-09-01T01:17:16Z</time>
  <course>323.32</course>
  <speed>1.0140019723846694</speed>
  <fix>3d</fix>
</trkpt>
<trkpt lat="33.8102096" lon="-118.3943462">
  <ele>-37.16</ele>
  <time>2026-09-01T01:17:16Z</time>
  <course>324.79</course>
  <speed>0.99</speed>
  <fix>3d</fix>
</trkpt>
<trkpt lat="33.810212" lon="-118.3943487">
  <ele>-38.179</ele>
  <time>2026-09-01T01:17:16Z</time>
  <course>323.29</course>
  <speed>1.0140019723846694</speed>
  <fix>3d</fix>
</trkpt>
<trkpt lat="33.810211" lon="-118.3943474">
  <ele>-37.21</ele>
  <time>2026-09-01T01:17:16Z</time>
  <course>324.73</course>
  <speed>0.99</speed>
  <fix>3d</fix>
</trkpt>
<trkpt lat="33.8102128" lon="-118.3943493">
  <ele>-38.202</ele>
  <time>2026-09-01T01:17:16Z</time>
  <course>323.26</course>
  <speed>1.0140019723846694</speed>
  <fix>3d</fix>
</trkpt>
<trkpt lat="33.810211" lon="-118.3943474">
  <ele>-37.21</ele>
  <time>2026-09-01T01:17:16Z</time>
  <course>324.73</course>
  <speed>0.99</speed>
  <fix>3d</fix>
</trkpt>
<trkpt lat="33.8102135" lon="-118.3943499">
  <ele>-38.226</ele>
  <time>2026-09-01T01:17:16Z</time>
  <course>323.23</course>
  <speed>1.0140019723846694</speed>
  <fix>3d</fix>
</trkpt>
<trkpt lat="33.8102125" lon="-118.3943487">
  <ele>-37.25</ele>
  <time>2026-09-01T01:17:16Z</time>
  <course>324.67</course>
  <speed>0.99</speed>
  <fix>3d</fix>
</trkpt>
<trkpt lat="33.8102142" lon="-118.3943505">
  <ele>-38.25</ele>
  <time>2026-09-01T01:17:16Z</time>
  <course>323.21</course>
  <speed>1.0140019723846694</speed>
  <fix>3d</fix>
</trkpt>
<trkpt lat="33.8102125" lon="-118.3943487">
  <ele>-37.25</ele>
  <time>2026-09-01T01:17:16Z</time>
  <course>324.67</course>
  <speed>0.99</speed>
  <fix>3d</fix>
</trkpt>
<trkpt lat="33.810215" lon="-118.3943512">
  <ele>-38.273</ele>
  <time>2026-09-01T01:17:16Z</time>
  <course>323.19</course>
  <speed>1.0220078277586722</speed>
  <fix>3d</fix>
</trkpt>
<trkpt lat="33.8102139" lon="-118.39435">
  <ele>-37.3</ele>
  <time>2026-09-01T01:17:16Z</time>
  <course>324.65</course>
  <speed>0.99</speed>
  <fix>3d</fix>
</trkpt>
<trkpt lat="33.8102157" lon="-118.3943518">
  <ele>-38.296</ele>
  <time>2026-09-01T01:17:16Z</time>
  <course>323.2</course>
  <speed>1.0220078277586722</speed>
  <fix>3d</fix>
</trkpt>
<trkpt lat="33.8102139" lon="-118.39435">
  <ele>-37.3</ele>
  <time>2026-09-01T01:17:16Z</time>
  <course>324.65</course>
  <speed>0.99</speed>
  <fix>3d</fix>
</trkpt>
<trkpt lat="33.8102164" lon="-118.3943524">
  <ele>-38.319</ele>
  <time>2026-09-01T01:17:16Z</time>
  <course>323.21</course>
  <speed>1.0220078277586722</speed>
  <fix>3d</fix>
</trkpt>
<trkpt lat="33.8102154" lon="-118.3943512">
  <ele>-37.34</ele>
  <time>2026-09-01T01:17:16Z</time>
  <course>324.68</course>
  <speed>0.99</speed>
  <fix>3d</fix>
</trkpt>
<trkpt lat="33.8102172" lon="-118.394353">
  <ele>-38.34</ele>
  <time>2026-09-01T01:17:16Z</time>
  <course>323.24</course>
  <speed>1.0220078277586722</speed>
  <fix>3d</fix>
</trkpt>
<trkpt lat="33.8102154" lon="-118.3943512">
  <ele>-37.34</ele>
  <time>2026-09-01T01:17:16Z</time>
  <course>324.68</course>
  <speed>0.99</speed>
  <fix>3d</fix>
</trkpt>
<trkpt lat="33.8102179" lon="-118.3943536">
  <ele>-38.362</ele>
  <time>2026-09-01T01:17:16Z</time>
  <course>323.27</course>
  <speed>1.0220078277586722</speed>
  <fix>3d</fix>
</trkpt>
<trkpt lat="33.8102169" lon="-118.3943525">
  <ele>-37.38</ele>
  <time>2026-09-01T01:17:16Z</time>
  <course>324.72</course>
  <speed>0.99</speed>
  <fix>3d</fix>
</trkpt>
<trkpt lat="33.8102186" lon="-118.3943543">
  <ele>-38.385</ele>
  <time>2026-09-01T01:17:16Z</time>
  <course>323.3</course>
  <speed>1.0220078277586722</speed>
  <fix>3d</fix>
</trkpt>
<trkpt lat="33.8102169" lon="-118.3943525">
  <ele>-37.38</ele>
  <time>2026-09-01T01:17:16Z</time>
  <course>324.72</course>
  <speed>0.99</speed>
  <fix>3d</fix>
</trkpt>
<trkpt lat="33.8102194" lon="-118.3943549">
  <ele>-38.407</ele>
  <time>2026-09-01T01:17:16Z</time>
  <course>323.31</course>
  <speed>1.016070863670443</speed>
  <fix>3d</fix>
</trkpt>
<trkpt lat="33.8102183" lon="-118.3943537">
  <ele>-37.43</ele>
  <time>2026-09-01T01:17:16Z</time>
  <course>324.76</course>
  <speed>0.99</speed>
  <fix>3d</fix>
</trkpt>
<trkpt lat="33.8102201" lon="-118.3943555">
  <ele>-38.429</ele>
  <time>2026-09-01T01:17:16Z</time>
  <course>323.34</course>
  <speed>1.0220078277586722</speed>
  <fix>3d</fix>
</trkpt>
<trkpt lat="33.8102183" lon="-118.3943537">
  <ele>-37.43</ele>
  <time>2026-09-01T01:17:16Z</time>
  <course>324.76</course>
  <speed>0.99</speed>
  <fix>3d</fix>
</trkpt>
<trkpt lat="33.8102208" lon="-118.3943562">
  <ele>-38.45</ele>
  <time>2026-09-01T01:17:16Z</time>
  <course>323.36</course>
  <speed>1.0220078277586722</speed>
  <fix>3d</fix>
</trkpt>
<trkpt lat="33.8102198" lon="-118.394355">
  <ele>-37.47</ele>
  <time>2026-09-01T01:17:16Z</time>
  <course>324.79</course>
  <speed>0.99</speed>
  <fix>3d</fix>
</trkpt>
<trkpt lat="33.8102216" lon="-118.3943568">
  <ele>-38.469</ele>
  <time>2026-09-01T01:17:16Z</time>
  <course>323.38</course>
  <speed>1.0220078277586722</speed>
  <fix>3d</fix>
</trkpt>
<trkpt lat="33.8102198" lon="-118.394355">
  <ele>-37.47</ele>
  <time>2026-09-01T01:17:16Z</time>
  <course>324.79</course>
  <speed>0.99</speed>
  <fix>3d</fix>
</trkpt>
<trkpt lat="33.8102223" lon="-118.3943574">
  <ele>-38.488</ele>
  <time>2026-09-01T01:17:16Z</time>
  <course>323.39</course>
  <speed>1.016070863670443</speed>
  <fix>3d</fix>
</trkpt>
<trkpt lat="33.8102212" lon="-118.3943562">
  <ele>-37.51</ele>
  <time>2026-09-01T01:17:16Z</time>
  <course>324.81</course>
  <speed>0.99</speed>
  <fix>3d</fix>
</trkpt>
<trkpt lat="33.810223" lon="-118.394358">
  <ele>-38.508</ele>
  <time>2026-09-01T01:17:16Z</time>
  <course>323.42</course>
  <speed>1.0220078277586722</speed>
  <fix>3d</fix>
</trkpt>
<trkpt lat="33.8102212" lon="-118.3943562">
  <ele>-37.51</ele>
  <time>2026-09-01T01:17:16Z</time>
  <course>324.81</course>
  <speed>0.99</speed>
  <fix>3d</fix>
</trkpt>
<trkpt lat="33.8102238" lon="-118.3943586">
  <ele>-38.528</ele>
  <time>2026-09-01T01:17:16Z</time>
  <course>323.44</course>
  <speed>1.0220078277586722</speed>
  <fix>3d</fix>
</trkpt>
<trkpt lat="33.8102227" lon="-118.3943574">
  <ele>-37.55</ele>
  <time>2026-09-01T01:17:16Z</time>
  <course>324.83</course>
  <speed>0.99</speed>
  <fix>3d</fix>
</trkpt>
<trkpt lat="33.8102245" lon="-118.3943593">
  <ele>-38.55</ele>
  <time>2026-09-01T01:17:16Z</time>
  <course>323.46</course>
  <speed>1.0220078277586722</speed>
  <fix>3d</fix>
</trkpt>
<trkpt lat="33.8102227" lon="-118.3943574">
  <ele>-37.55</ele>
  <time>2026-09-01T01:17:16Z</time>
  <course>324.83</course>
  <speed>0.99</speed>
  <fix>3d</fix>
</trkpt>
<trkpt lat="33.8102252" lon="-118.3943599">
  <ele>-38.573</ele>
  <time>2026-09-01T01:17:16Z</time>
  <course>323.47</course>
  <speed>1.0220078277586722</speed>
  <fix>3d</fix>
</trkpt>
<trkpt lat="33.8102242" lon="-118.3943587">
  <ele>-37.59</ele>
  <time>2026-09-01T01:17:16Z</time>
  <course>324.84</course>
  <speed>0.99</speed>
  <fix>3d</fix>
</trkpt>
<trkpt lat="33.810226" lon="-118.3943605">
  <ele>-38.596</ele>
  <time>2026-09-01T01:17:16Z</time>
  <course>323.48</course>
  <speed>1.0220078277586722</speed>
  <fix>3d</fix>
</trkpt>
<trkpt lat="33.8102242" lon="-118.3943587">
  <ele>-37.59</ele>
  <time>2026-09-01T01:17:16Z</time>
  <course>324.84</course>
  <speed>0.99</speed>
  <fix>3d</fix>
</trkpt>
<trkpt lat="33.8102267" lon="-118.3943611">
  <ele>-38.619</ele>
  <time>2026-09-01T01:17:16Z</time>
  <course>323.47</course>
  <speed>1.0220078277586722</speed>
  <fix>3d</fix>
</trkpt>
<trkpt lat="33.8102256" lon="-118.3943599">
  <ele>-37.63</ele>
  <time>2026-09-01T01:17:16Z</time>
  <course>324.83</course>
  <speed>1.0</speed>
  <fix>3d</fix>
</trkpt>
<trkpt lat="33.8102274" lon="-118.3943618">
  <ele>-38.642</ele>
  <time>2026-09-01T01:17:16Z</time>
  <course>323.47</course>
  <speed>1.0220078277586722</speed>
  <fix>3d</fix>
</trkpt>
<trkpt lat="33.8102256" lon="-118.3943599">
  <ele>-37.63</ele>
  <time>2026-09-01T01:17:16Z</time>
  <course>324.83</course>
  <speed>1.0</speed>
  <fix>3d</fix>
</trkpt>
<trkpt lat="33.8102282" lon="-118.3943624">
  <ele>-38.665</ele>
  <time>2026-09-01T01:17:16Z</time>
  <course>323.48</course>
  <speed>1.0220078277586722</speed>
  <fix>3d</fix>
</trkpt>
<trkpt lat="33.8102271" lon="-118.3943612">
  <ele>-37.68</ele>
  <time>2026-09-01T01:17:16Z</time>
  <course>324.84</course>
  <speed>1.0</speed>
  <fix>3d</fix>
</trkpt>
<trkpt lat="33.8102289" lon="-118.394363">
  <ele>-38.687</ele>
  <time>2026-09-01T01:17:16Z</time>
  <course>323.48</course>
  <speed>1.0220078277586722</speed>
  <fix>3d</fix>
</trkpt>
<trkpt lat="33.8102271" lon="-118.3943612">
  <ele>-37.68</ele>
  <time>2026-09-01T01:17:16Z</time>
  <course>324.84</course>
  <speed>1.0</speed>
  <fix>3d</fix>
</trkpt>
<trkpt lat="33.8102296" lon="-118.3943636">
  <ele>-38.709</ele>
  <time>2026-09-01T01:17:16Z</time>
  <course>323.49</course>
  <speed>1.0220078277586722</speed>
  <fix>3d</fix>
</trkpt>
<trkpt lat="33.8102286" lon="-118.3943624">
  <ele>-37.72</ele>
  <time>2026-09-01T01:17:16Z</time>
  <course>324.86</course>
  <speed>1.0</speed>
  <fix>3d</fix>
</trkpt>
<trkpt lat="33.8102304" lon="-118.3943642">
  <ele>-38.73</ele>
  <time>2026-09-01T01:17:16Z</time>
  <course>323.5</course>
  <speed>1.0220078277586722</speed>
  <fix>3d</fix>
</trkpt>
<trkpt lat="33.8102286" lon="-118.3943624">
  <ele>-37.72</ele>
  <time>2026-09-01T01:17:16Z</time>
  <course>324.86</course>
  <speed>1.0</speed>
  <fix>3d</fix>
</trkpt>
<trkpt lat="33.8102311" lon="-118.3943649">
  <ele>-38.752</ele>
  <time>2026-09-01T01:17:16Z</time>
  <course>323.49</course>
  <speed>1.0220078277586722</speed>
  <fix>3d</fix>
</trkpt>
<trkpt lat="33.8102301" lon="-118.3943636">
  <ele>-37.77</ele>
  <time>2026-09-01T01:17:16Z</time>
  <course>324.85</course>
  <speed>1.0</speed>
  <fix>3d</fix>
</trkpt>
<trkpt lat="33.8102318" lon="-118.3943655">
  <ele>-38.774</ele>
  <time>2026-09-01T01:17:16Z</time>
  <course>323.47</course>
  <speed>1.0220078277586722</speed>
  <fix>3d</fix>
</trkpt>
<trkpt lat="33.8102301" lon="-118.3943636">
  <ele>-37.77</ele>
  <time>2026-09-01T01:17:16Z</time>
  <course>324.85</course>
  <speed>1.0</speed>
  <fix>3d</fix>
</trkpt>
<trkpt lat="33.8102326" lon="-118.3943661">
  <ele>-38.797</ele>
  <time>2026-09-01T01:17:16Z</time>
  <course>323.44</course>
  <speed>1.0220078277586722</speed>
  <fix>3d</fix>
</trkpt>
<trkpt lat="33.8102315" lon="-118.3943649">
  <ele>-37.81</ele>
  <time>2026-09-01T01:17:16Z</time>
  <course>324.79</course>
  <speed>1.0</speed>
  <fix>3d</fix>
</trkpt>
<trkpt lat="33.8102333" lon="-118.3943667">
  <ele>-38.821</ele>
  <time>2026-09-01T01:17:16Z</time>
  <course>323.41</course>
  <speed>1.0220078277586722</speed>
  <fix>3d</fix>
</trkpt>
<trkpt lat="33.8102315" lon="-118.3943649">
  <ele>-37.81</ele>
  <time>2026-09-01T01:17:16Z</time>
  <course>324.79</course>
  <speed>1.0</speed>
  <fix>3d</fix>
</trkpt>
<trkpt lat="33.810234" lon="-118.3943673">
  <ele>-38.844</ele>
  <time>2026-09-01T01:17:16Z</time>
  <course>323.39</course>
  <speed>1.0220078277586722</speed>
  <fix>3d</fix>
</trkpt>
<trkpt lat="33.810233" lon="-118.3943662">
  <ele>-37.85</ele>
  <time>2026-09-01T01:17:16Z</time>
  <course>324.74</course>
  <speed>1.0</speed>
  <fix>3d</fix>
</trkpt>
<trkpt lat="33.8102348" lon="-118.394368">
  <ele>-38.867</ele>
  <time>2026-09-01T01:17:16Z</time>
  <course>323.39</course>
  <speed>1.0220078277586722</speed>
  <fix>3d</fix>
</trkpt>
<trkpt lat="33.810233" lon="-118.3943662">
  <ele>-37.85</ele>
  <time>2026-09-01T01:17:16Z</time>
  <course>324.74</course>
  <speed>1.0</speed>
  <fix>3d</fix>
</trkpt>
<trkpt lat="33.8102355" lon="-118.3943686">
  <ele>-38.89</ele>
  <time>2026-09-01T01:17:16Z</time>
  <course>323.4</course>
  <speed>1.0220078277586722</speed>
  <fix>3d</fix>
</trkpt>
<trkpt lat="33.8102345" lon="-118.3943674">
  <ele>-37.9</ele>
  <time>2026-09-01T01:17:16Z</time>
  <course>324.75</course>
  <speed>1.0</speed>
  <fix>3d</fix>
</trkpt>
<trkpt lat="33.8102362" lon="-118.3943692">
  <ele>-38.912</ele>
  <time>2026-09-01T01:17:16Z</time>
  <course>323.41</course>
  <speed>1.0220078277586722</speed>
  <fix>3d</fix>
</trkpt>
<trkpt lat="33.8102345" lon="-118.3943674">
  <ele>-37.9</ele>
  <time>2026-09-01T01:17:16Z</time>
  <course>324.75</course>
  <speed>1.0</speed>
  <fix>3d</fix>
</trkpt>
<trkpt lat="33.810237" lon="-118.3943699">
  <ele>-38.933</ele>
  <time>2026-09-01T01:17:16Z</time>
  <course>323.41</course>
  <speed>1.0220078277586722</speed>
  <fix>3d</fix>
</trkpt>
<trkpt lat="33.8102359" lon="-118.3943687">
  <ele>-37.94</ele>
  <time>2026-09-01T01:17:16Z</time>
  <course>324.77</course>
  <speed>0.99</speed>
  <fix>3d</fix>
</trkpt>
<trkpt lat="33.8102377" lon="-118.3943705">
  <ele>-38.955</ele>
  <time>2026-09-01T01:17:16Z</time>
  <course>323.42</course>
  <speed>1.0220078277586722</speed>
  <fix>3d</fix>
</trkpt>
<trkpt lat="33.8102359" lon="-118.3943687">
  <ele>-37.94</ele>
  <time>2026-09-01T01:17:16Z</time>
  <course>324.77</course>
  <speed>0.99</speed>
  <fix>3d</fix>
</trkpt>
<trkpt lat="33.8102384" lon="-118.3943711">
  <ele>-38.977</ele>
  <time>2026-09-01T01:17:16Z</time>
  <course>323.43</course>
  <speed>1.0220078277586722</speed>
  <fix>3d</fix>
</trkpt>
<trkpt lat="33.8102374" lon="-118.3943699">
  <ele>-37.98</ele>
  <time>2026-09-01T01:17:16Z</time>
  <course>324.79</course>
  <speed>0.99</speed>
  <fix>3d</fix>
</trkpt>
<trkpt lat="33.8102392" lon="-118.3943717">
  <ele>-38.998</ele>
  <time>2026-09-01T01:17:16Z</time>
  <course>323.45</course>
  <speed>1.0220078277586722</speed>
  <fix>3d</fix>
</trkpt>
<trkpt lat="33.8102374" lon="-118.3943699">
  <ele>-37.98</ele>
  <time>2026-09-01T01:17:16Z</time>
  <course>324.79</course>
  <speed>0.99</speed>
  <fix>3d</fix>
</trkpt>
<trkpt lat="33.8102399" lon="-118.3943724">
  <ele>-39.018</ele>
  <time>2026-09-01T01:17:16Z</time>
  <course>323.46</course>
  <speed>1.0220078277586722</speed>
  <fix>3d</fix>
</trkpt>
<trkpt lat="33.8102389" lon="-118.3943712">
  <ele>-38.03</ele>
  <time>2026-09-01T01:17:16Z</time>
  <course>324.81</course>
  <speed>0.99</speed>
  <fix>3d</fix>
</trkpt>
<trkpt lat="33.8102406" lon="-118.394373">
  <ele>-39.038</ele>
  <time>2026-09-01T01:17:16Z</time>
  <course>323.47</course>
  <speed>1.0220078277586722</speed>
  <fix>3d</fix>
</trkpt>
<trkpt lat="33.8102389" lon="-118.3943712">
  <ele>-38.03</ele>
  <time>2026-09-01T01:17:16Z</time>
  <course>324.81</course>
  <speed>0.99</speed>
  <fix>3d</fix>
</trkpt>
<trkpt lat="33.8102414" lon="-118.3943736">
  <ele>-39.057</ele>
  <time>2026-09-01T01:17:16Z</time>
  <course>323.48</course>
  <speed>1.016070863670443</speed>
  <fix>3d</fix>
</trkpt>
<trkpt lat="33.8102404" lon="-118.3943724">
  <ele>-38.07</ele>
  <time>2026-09-01T01:17:16Z</time>
  <course>324.83</course>
  <speed>0.99</speed>
  <fix>3d</fix>
</trkpt>
<trkpt lat="33.8102421" lon="-118.3943742">
  <ele>-39.078</ele>
  <time>2026-09-01T01:17:16Z</time>
  <course>323.48</course>
  <speed>1.016070863670443</speed>
  <fix>3d</fix>
</trkpt>
<trkpt lat="33.8102404" lon="-118.3943724">
  <ele>-38.07</ele>
  <time>2026-09-01T01:17:16Z</time>
  <course>324.83</course>
  <speed>0.99</speed>
  <fix>3d</fix>
</trkpt>
<trkpt lat="33.8102429" lon="-118.3943749">
  <ele>-39.098</ele>
  <time>2026-09-01T01:17:16Z</time>
  <course>323.46</course>
  <speed>1.016070863670443</speed>
  <fix>3d</fix>
</trkpt>
<trkpt lat="33.8102418" lon="-118.3943737">
  <ele>-38.11</ele>
  <time>2026-09-01T01:17:16Z</time>
  <course>324.82</course>
  <speed>0.99</speed>
  <fix>3d</fix>
</trkpt>
<trkpt lat="33.8102436" lon="-118.3943755">
  <ele>-39.12</ele>
  <time>2026-09-01T01:17:16Z</time>
  <course>323.45</course>
  <speed>1.016070863670443</speed>
  <fix>3d</fix>
</trkpt>
<trkpt lat="33.8102418" lon="-118.3943737">
  <ele>-38.11</ele>
  <time>2026-09-01T01:17:16Z</time>
  <course>324.82</course>
  <speed>0.99</speed>
  <fix>3d</fix>
</trkpt>
<trkpt lat="33.8102443" lon="-118.3943761">
  <ele>-39.143</ele>
  <time>2026-09-01T01:17:16Z</time>
  <course>323.45</course>
  <speed>1.016070863670443</speed>
  <fix>3d</fix>
</trkpt>
<trkpt lat="33.8102433" lon="-118.3943749">
  <ele>-38.15</ele>
  <time>2026-09-01T01:17:16Z</time>
  <course>324.81</course>
  <speed>0.99</speed>
  <fix>3d</fix>
</trkpt>
<trkpt lat="33.8102451" lon="-118.3943767">
  <ele>-39.167</ele>
  <time>2026-09-01T01:17:16Z</time>
  <course>323.46</course>
  <speed>1.016070863670443</speed>
  <fix>3d</fix>
</trkpt>
<trkpt lat="33.8102433" lon="-118.3943749">
  <ele>-38.15</ele>
  <time>2026-09-01T01:17:16Z</time>
  <course>324.81</course>
  <speed>0.99</speed>
  <fix>3d</fix>
</trkpt>
<trkpt lat="33.8102458" lon="-118.3943774">
  <ele>-39.191</ele>
  <time>2026-09-01T01:17:16Z</time>
  <course>323.46</course>
  <speed>1.016070863670443</speed>
  <fix>3d</fix>
</trkpt>
<trkpt lat="33.8102448" lon="-118.3943761">
  <ele>-38.2</ele>
  <time>2026-09-01T01:17:16Z</time>
  <course>324.83</course>
  <speed>0.99</speed>
  <fix>3d</fix>
</trkpt>
<trkpt lat="33.8102465" lon="-118.394378">
  <ele>-39.214</ele>
  <time>2026-09-01T01:17:16Z</time>
  <course>323.45</course>
  <speed>1.0220078277586722</speed>
  <fix>3d</fix>
</trkpt>
<trkpt lat="33.8102448" lon="-118.3943761">
  <ele>-38.2</ele>
  <time>2026-09-01T01:17:16Z</time>
  <course>324.83</course>
  <speed>0.99</speed>
  <fix>3d</fix>
</trkpt>
<trkpt lat="33.8102473" lon="-118.3943786">
  <ele>-39.237</ele>
  <time>2026-09-01T01:17:16Z</time>
  <course>323.43</course>
  <speed>1.0220078277586722</speed>
  <fix>3d</fix>
</trkpt>
<trkpt lat="33.8102462" lon="-118.3943774">
  <ele>-38.24</ele>
  <time>2026-09-01T01:17:16Z</time>
  <course>324.79</course>
  <speed>0.99</speed>
  <fix>3d</fix>
</trkpt>
<trkpt lat="33.810248" lon="-118.3943792">
  <ele>-39.261</ele>
  <time>2026-09-01T01:17:16Z</time>
  <course>323.42</course>
  <speed>1.0220078277586722</speed>
  <fix>3d</fix>
</trkpt>
<trkpt lat="33.8102462" lon="-118.3943774">
  <ele>-38.24</ele>
  <time>2026-09-01T01:17:16Z</time>
  <course>324.79</course>
  <speed>0.99</speed>
  <fix>3d</fix>
</trkpt>
<trkpt lat="33.8102487" lon="-118.3943798">
  <ele>-39.285</ele>
  <time>2026-09-01T01:17:16Z</time>
  <course>323.4</course>
  <speed>1.0220078277586722</speed>
  <fix>3d</fix>
</trkpt>
<trkpt lat="33.8102477" lon="-118.3943786">
  <ele>-38.29</ele>
  <time>2026-09-01T01:17:16Z</time>
  <course>324.76</course>
  <speed>0.99</speed>
  <fix>3d</fix>
</trkpt>
<trkpt lat="33.8102495" lon="-118.3943805">
  <ele>-39.309</ele>
  <time>2026-09-01T01:17:16Z</time>
  <course>323.4</course>
  <speed>1.0220078277586722</speed>
  <fix>3d</fix>
</trkpt>
<trkpt lat="33.8102477" lon="-118.3943786">
  <ele>-38.29</ele>
  <time>2026-09-01T01:17:16Z</time>
  <course>324.76</course>
  <speed>0.99</speed>
  <fix>3d</fix>
</trkpt>
<trkpt lat="33.8102502" lon="-118.3943811">
  <ele>-39.331</ele>
  <time>2026-09-01T01:17:16Z</time>
  <course>323.39</course>
  <speed>1.0220078277586722</speed>
  <fix>3d</fix>
</trkpt>
<trkpt lat="33.8102491" lon="-118.3943799">
  <ele>-38.33</ele>
  <time>2026-09-01T01:17:16Z</time>
  <course>324.76</course>
  <speed>0.99</speed>
  <fix>3d</fix>
</trkpt>
<trkpt lat="33.8102509" lon="-118.3943817">
  <ele>-39.353</ele>
  <time>2026-09-01T01:17:16Z</time>
  <course>323.38</course>
  <speed>1.0220078277586722</speed>
  <fix>3d</fix>
</trkpt>
<trkpt lat="33.8102491" lon="-118.3943799">
  <ele>-38.33</ele>
  <time>2026-09-01T01:17:16Z</time>
  <course>324.76</course>
  <speed>0.99</speed>
  <fix>3d</fix>
</trkpt>
<trkpt lat="33.8102517" lon="-118.3943823">
  <ele>-39.375</ele>
  <time>2026-09-01T01:17:16Z</time>
  <course>323.39</course>
  <speed>1.0220078277586722</speed>
  <fix>3d</fix>
</trkpt>
<trkpt lat="33.8102506" lon="-118.3943811">
  <ele>-38.37</ele>
  <time>2026-09-01T01:17:16Z</time>
  <course>324.78</course>
  <speed>0.99</speed>
  <fix>3d</fix>
</trkpt>
<trkpt lat="33.8102524" lon="-118.394383">
  <ele>-39.397</ele>
  <time>2026-09-01T01:17:16Z</time>
  <course>323.42</course>
  <speed>1.0220078277586722</speed>
  <fix>3d</fix>
</trkpt>
<trkpt lat="33.8102506" lon="-118.3943811">
  <ele>-38.37</ele>
  <time>2026-09-01T01:17:16Z</time>
  <course>324.78</course>
  <speed>0.99</speed>
  <fix>3d</fix>
</trkpt>
<trkpt lat="33.8102531" lon="-118.3943836">
  <ele>-39.419</ele>
  <time>2026-09-01T01:17:16Z</time>
  <course>323.43</course>
  <speed>1.0220078277586722</speed>
  <fix>3d</fix>
</trkpt>
<trkpt lat="33.8102521" lon="-118.3943823">
  <ele>-38.42</ele>
  <time>2026-09-01T01:17:16Z</time>
  <course>324.8</course>
  <speed>0.99</speed>
  <fix>3d</fix>
</trkpt>
<trkpt lat="33.8102539" lon="-118.3943842">
  <ele>-39.441</ele>
  <time>2026-09-01T01:17:16Z</time>
  <course>323.43</course>
  <speed>1.0220078277586722</speed>
  <fix>3d</fix>
</trkpt>
<trkpt lat="33.8102521" lon="-118.3943823">
  <ele>-38.42</ele>
  <time>2026-09-01T01:17:16Z</time>
  <course>324.8</course>
  <speed>0.99</speed>
  <fix>3d</fix>
</trkpt>
<trkpt lat="33.8102546" lon="-118.3943848">
  <ele>-39.464</ele>
  <time>2026-09-01T01:17:16Z</time>
  <course>323.41</course>
  <speed>1.0220078277586722</speed>
  <fix>3d</fix>
</trkpt>
<trkpt lat="33.8102535" lon="-118.3943836">
  <ele>-38.46</ele>
  <time>2026-09-01T01:17:16Z</time>
  <course>324.78</course>
  <speed>0.99</speed>
  <fix>3d</fix>
</trkpt>
<trkpt lat="33.8102553" lon="-118.3943854">
  <ele>-39.487</ele>
  <time>2026-09-01T01:17:16Z</time>
  <course>323.39</course>
  <speed>1.0220078277586722</speed>
  <fix>3d</fix>
</trkpt>
<trkpt lat="33.8102535" lon="-118.3943836">
  <ele>-38.46</ele>
  <time>2026-09-01T01:17:16Z</time>
  <course>324.78</course>
  <speed>0.99</speed>
  <fix>3d</fix>
</trkpt>
<trkpt lat="33.8102561" lon="-118.3943861">
  <ele>-39.509</ele>
  <time>2026-09-01T01:17:16Z</time>
  <course>323.39</course>
  <speed>1.0220078277586722</speed>
  <fix>3d</fix>
</trkpt>
<trkpt lat="33.810255" lon="-118.3943849">
  <ele>-38.5</ele>
  <time>2026-09-01T01:17:16Z</time>
  <course>324.75</course>
  <speed>0.99</speed>
  <fix>3d</fix>
</trkpt>
<trkpt lat="33.8102568" lon="-118.3943867">
  <ele>-39.531</ele>
  <time>2026-09-01T01:17:16Z</time>
  <course>323.4</course>
  <speed>1.0220078277586722</speed>
  <fix>3d</fix>
</trkpt>
<trkpt lat="33.810255" lon="-118.3943849">
  <ele>-38.5</ele>
  <time>2026-09-01T01:17:16Z</time>
  <course>324.75</course>
  <speed>0.99</speed>
  <fix>3d</fix>
</trkpt>
<trkpt lat="33.8102575" lon="-118.3943873">
  <ele>-39.553</ele>
  <time>2026-09-01T01:17:16Z</time>
  <course>323.42</course>
  <speed>1.0220078277586722</speed>
  <fix>3d</fix>
</trkpt>
<trkpt lat="33.8102564" lon="-118.3943861">
  <ele>-38.54</ele>
  <time>2026-09-01T01:17:16Z</time>
  <course>324.79</course>
  <speed>1.0</speed>
  <fix>3d</fix>
</trkpt>
<trkpt lat="33.8102583" lon="-118.394388">
  <ele>-39.575</ele>
  <time>2026-09-01T01:17:16Z</time>
  <course>323.44</course>
  <speed>1.0220078277586722</speed>
  <fix>3d</fix>
</trkpt>
<trkpt lat="33.8102564" lon="-118.3943861">
  <ele>-38.54</ele>
  <time>2026-09-01T01:17:16Z</time>
  <course>324.79</course>
  <speed>1.0</speed>
  <fix>3d</fix>
</trkpt>
<trkpt lat="33.810259" lon="-118.3943886">
  <ele>-39.596</ele>
  <time>2026-09-01T01:17:16Z</time>
  <course>323.47</course>
  <speed>1.0220078277586722</speed>
  <fix>3d</fix>
</trkpt>
<trkpt lat="33.8102579" lon="-118.3943873">
  <ele>-38.59</ele>
  <time>2026-09-01T01:17:16Z</time>
  <course>324.85</course>
  <speed>1.0</speed>
  <fix>3d</fix>
</trkpt>
<trkpt lat="33.8102597" lon="-118.3943892">
  <ele>-39.617</ele>
  <time>2026-09-01T01:17:16Z</time>
  <course>323.5</course>
  <speed>1.0220078277586722</speed>
  <fix>3d</fix>
</trkpt>
<trkpt lat="33.8102579" lon="-118.3943873">
  <ele>-38.59</ele>
  <time>2026-09-01T01:17:16Z</time>
  <course>324.85</course>
  <speed>1.0</speed>
  <fix>3d</fix>
</trkpt>
<trkpt lat="33.8102605" lon="-118.3943898">
  <ele>-39.637</ele>
  <time>2026-09-01T01:17:16Z</time>
  <course>323.5</course>
  <speed>1.0220078277586722</speed>
  <fix>3d</fix>
</trkpt>
<trkpt lat="33.8102594" lon="-118.3943885">
  <ele>-38.63</ele>
  <time>2026-09-01T01:17:16Z</time>
  <course>324.88</course>
  <speed>1.0</speed>
  <fix>3d</fix>
</trkpt>
<trkpt lat="33.8102612" lon="-118.3943904">
  <ele>-39.659</ele>
  <time>2026-09-01T01:17:16Z</time>
  <course>323.5</course>
  <speed>1.0220078277586722</speed>
  <fix>3d</fix>
</trkpt>
<trkpt lat="33.8102594" lon="-118.3943885">
  <ele>-38.63</ele>
  <time>2026-09-01T01:17:16Z</time>
  <course>324.88</course>
  <speed>1.0</speed>
  <fix>3d</fix>
</trkpt>
<trkpt lat="33.8102619" lon="-118.3943911">
  <ele>-39.68</ele>
  <time>2026-09-01T01:17:16Z</time>
  <course>323.48</course>
  <speed>1.0220078277586722</speed>
  <fix>3d</fix>
</trkpt>
<trkpt lat="33.8102609" lon="-118.3943898">
  <ele>-38.67</ele>
  <time>2026-09-01T01:17:16Z</time>
  <course>324.85</course>
  <speed>1.0</speed>
  <fix>3d</fix>
</trkpt>
<trkpt lat="33.8102627" lon="-118.3943917">
  <ele>-39.701</ele>
  <time>2026-09-01T01:17:16Z</time>
  <course>323.44</course>
  <speed>1.0220078277586722</speed>
  <fix>3d</fix>
</trkpt>
<trkpt lat="33.8102609" lon="-118.3943898">
  <ele>-38.67</ele>
  <time>2026-09-01T01:17:16Z</time>
  <course>324.85</course>
  <speed>1.0</speed>
  <fix>3d</fix>
</trkpt>
<trkpt lat="33.8102634" lon="-118.3943923">
  <ele>-39.722</ele>
  <time>2026-09-01T01:17:16Z</time>
  <course>323.41</course>
  <speed>1.0220078277586722</speed>
  <fix>3d</fix>
</trkpt>
<trkpt lat="33.8102624" lon="-118.3943911">
  <ele>-38.72</ele>
  <time>2026-09-01T01:17:16Z</time>
  <course>324.79</course>
  <speed>1.0</speed>
  <fix>3d</fix>
</trkpt>
<trkpt lat="33.8102641" lon="-118.3943929">
  <ele>-39.744</ele>
  <time>2026-09-01T01:17:16Z</time>
  <course>323.38</course>
  <speed>1.0220078277586722</speed>
  <fix>3d</fix>
</trkpt>
<trkpt lat="33.8102624" lon="-118.3943911">
  <ele>-38.72</ele>
  <time>2026-09-01T01:17:16Z</time>
  <course>324.79</course>
  <speed>1.0</speed>
  <fix>3d</fix>
</trkpt>
<trkpt lat="33.8102649" lon="-118.3943935">
  <ele>-39.767</ele>
  <time>2026-09-01T01:17:16Z</time>
  <course>323.35</course>
  <speed>1.0220078277586722</speed>
  <fix>3d</fix>
</trkpt>
<trkpt lat="33.8102638" lon="-118.3943923">
  <ele>-38.76</ele>
  <time>2026-09-01T01:17:16Z</time>
  <course>324.73</course>
  <speed>1.0</speed>
  <fix>3d</fix>
</trkpt>
<trkpt lat="33.8102656" lon="-118.3943942">
  <ele>-39.792</ele>
  <time>2026-09-01T01:17:16Z</time>
  <course>323.35</course>
  <speed>1.0220078277586722</speed>
  <fix>3d</fix>
</trkpt>
<trkpt lat="33.8102638" lon="-118.3943923">
  <ele>-38.76</ele>
  <time>2026-09-01T01:17:16Z</time>
  <course>324.73</course>
  <speed>1.0</speed>
  <fix>3d</fix>
</trkpt>
<trkpt lat="33.8102664" lon="-118.3943948">
  <ele>-39.815</ele>
  <time>2026-09-01T01:17:16Z</time>
  <course>323.35</course>
  <speed>1.0220078277586722</speed>
  <fix>3d</fix>
</trkpt>
<trkpt lat="33.8102653" lon="-118.3943936">
  <ele>-38.8</ele>
  <time>2026-09-01T01:17:16Z</time>
  <course>324.73</course>
  <speed>1.0</speed>
  <fix>3d</fix>
</trkpt>
<trkpt lat="33.8102671" lon="-118.3943954">
  <ele>-39.838</ele>
  <time>2026-09-01T01:17:16Z</time>
  <course>323.36</course>
  <speed>1.0220078277586722</speed>
  <fix>3d</fix>
</trkpt>
<trkpt lat="33.8102653" lon="-118.3943936">
  <ele>-38.8</ele>
  <time>2026-09-01T01:17:16Z</time>
  <course>324.73</course>
  <speed>1.0</speed>
  <fix>3d</fix>
</trkpt>
<trkpt lat="33.8102678" lon="-118.394396">
  <ele>-39.861</ele>
  <time>2026-09-01T01:17:16Z</time>
  <course>323.36</course>
  <speed>1.0220078277586722</speed>
  <fix>3d</fix>
</trkpt>
<trkpt lat="33.8102668" lon="-118.3943948">
  <ele>-38.85</ele>
  <time>2026-09-01T01:17:16Z</time>
  <course>324.76</course>
  <speed>1.0</speed>
  <fix>3d</fix>
</trkpt>
<trkpt lat="33.8102686" lon="-118.3943967">
  <ele>-39.884</ele>
  <time>2026-09-01T01:17:16Z</time>
  <course>323.37</course>
  <speed>1.0220078277586722</speed>
  <fix>3d</fix>
</trkpt>
<trkpt lat="33.8102668" lon="-118.3943948">
  <ele>-38.85</ele>
  <time>2026-09-01T01:17:16Z</time>
  <course>324.76</course>
  <speed>1.0</speed>
  <fix>3d</fix>
</trkpt>
<trkpt lat="33.8102693" lon="-118.3943973">
  <ele>-39.906</ele>
  <time>2026-09-01T01:17:16Z</time>
  <course>323.36</course>
  <speed>1.0220078277586722</speed>
  <fix>3d</fix>
</trkpt>
<trkpt lat="33.8102682" lon="-118.3943961">
  <ele>-38.89</ele>
  <time>2026-09-01T01:17:16Z</time>
  <course>324.75</course>
  <speed>1.0</speed>
  <fix>3d</fix>
</trkpt>
<trkpt lat="33.81027" lon="-118.3943979">
  <ele>-39.928</ele>
  <time>2026-09-01T01:17:16Z</time>
  <course>323.36</course>
  <speed>1.0220078277586722</speed>
  <fix>3d</fix>
</trkpt>
<trkpt lat="33.8102682" lon="-118.3943961">
  <ele>-38.89</ele>
  <time>2026-09-01T01:17:16Z</time>
  <course>324.75</course>
  <speed>1.0</speed>
  <fix>3d</fix>
</trkpt>
<trkpt lat="33.8102708" lon="-118.3943985">
  <ele>-39.95</ele>
  <time>2026-09-01T01:17:16Z</time>
  <course>323.37</course>
  <speed>1.0220078277586722</speed>
  <fix>3d</fix>
</trkpt>
<trkpt lat="33.8102697" lon="-118.3943973">
  <ele>-38.94</ele>
  <time>2026-09-01T01:17:16Z</time>
  <course>324.76</course>
  <speed>1.0</speed>
  <fix>3d</fix>
</trkpt>
<trkpt lat="33.8102715" lon="-118.3943992">
  <ele>-39.972</ele>
  <time>2026-09-01T01:17:16Z</time>
  <course>323.39</course>
  <speed>1.0220078277586722</speed>
  <fix>3d</fix>
</trkpt>
<trkpt lat="33.8102697" lon="-118.3943973">
  <ele>-38.94</ele>
  <time>2026-09-01T01:17:16Z</time>
  <course>324.76</course>
  <speed>1.0</speed>
  <fix>3d</fix>
</trkpt>
<trkpt lat="33.8102722" lon="-118.3943998">
  <ele>-39.995</ele>
  <time>2026-09-01T01:17:16Z</time>
  <course>323.39</course>
  <speed>1.0220078277586722</speed>
  <fix>3d</fix>
</trkpt>
<trkpt lat="33.8102712" lon="-118.3943986">
  <ele>-38.98</ele>
  <time>2026-09-01T01:17:16Z</time>
  <course>324.79</course>
  <speed>1.0</speed>
  <fix>3d</fix>
</trkpt>
<trkpt lat="33.810273" lon="-118.3944004">
  <ele>-40.019</ele>
  <time>2026-09-01T01:17:16Z</time>
  <course>323.4</course>
  <speed>1.0220078277586722</speed>
  <fix>3d</fix>
</trkpt>
<trkpt lat="33.8102712" lon="-118.3943986">
  <ele>-38.98</ele>
  <time>2026-09-01T01:17:16Z</time>
  <course>324.79</course>
  <speed>1.0</speed>
  <fix>3d</fix>
</trkpt>
<trkpt lat="33.8102737" lon="-118.394401">
  <ele>-40.043</ele>
  <time>2026-09-01T01:17:16Z</time>
  <course>323.4</course>
  <speed>1.0220078277586722</speed>
  <fix>3d</fix>
</trkpt>
<trkpt lat="33.8102727" lon="-118.3943998">
  <ele>-39.02</ele>
  <time>2026-09-01T01:17:16Z</time>
  <course>324.8</course>
  <speed>1.0</speed>
  <fix>3d</fix>
</trkpt>
<trkpt lat="33.8102744" lon="-118.3944017">
  <ele>-40.065</ele>
  <time>2026-09-01T01:17:16Z</time>
  <course>323.39</course>
  <speed>1.0220078277586722</speed>
  <fix>3d</fix>
</trkpt>
<trkpt lat="33.8102727" lon="-118.3943998">
  <ele>-39.02</ele>
  <time>2026-09-01T01:17:16Z</time>
  <course>324.8</course>
  <speed>1.0</speed>
  <fix>3d</fix>
</trkpt>
<trkpt lat="33.8102752" lon="-118.3944023">
  <ele>-40.087</ele>
  <time>2026-09-01T01:17:16Z</time>
  <course>323.38</course>
  <speed>1.0220078277586722</speed>
  <fix>3d</fix>
</trkpt>
<trkpt lat="33.8102741" lon="-118.3944011">
  <ele>-39.06</ele>
  <time>2026-09-01T01:17:16Z</time>
  <course>324.77</course>
  <speed>1.0</speed>
  <fix>3d</fix>
</trkpt>
<trkpt lat="33.8102759" lon="-118.3944029">
  <ele>-40.108</ele>
  <time>2026-09-01T01:17:16Z</time>
  <course>323.37</course>
  <speed>1.0220078277586722</speed>
  <fix>3d</fix>
</trkpt>
<trkpt lat="33.8102741" lon="-118.3944011">
  <ele>-39.06</ele>
  <time>2026-09-01T01:17:16Z</time>
  <course>324.77</course>
  <speed>1.0</speed>
  <fix>3d</fix>
</trkpt>
<trkpt lat="33.8102766" lon="-118.3944035">
  <ele>-40.128</ele>
  <time>2026-09-01T01:17:16Z</time>
  <course>323.37</course>
  <speed>1.0220078277586722</speed>
  <fix>3d</fix>
</trkpt>
<trkpt lat="33.8102756" lon="-118.3944024">
  <ele>-39.11</ele>
  <time>2026-09-01T01:17:16Z</time>
  <course>324.76</course>
  <speed>1.0</speed>
  <fix>3d</fix>
</trkpt>
<trkpt lat="33.8102774" lon="-118.3944042">
  <ele>-40.148</ele>
  <time>2026-09-01T01:17:16Z</time>
  <course>323.38</course>
  <speed>1.0220078277586722</speed>
  <fix>3d</fix>
</trkpt>
<trkpt lat="33.8102756" lon="-118.3944024">
  <ele>-39.11</ele>
  <time>2026-09-01T01:17:16Z</time>
  <course>324.76</course>
  <speed>1.0</speed>
  <fix>3d</fix>
</trkpt>
<trkpt lat="33.8102781" lon="-118.3944048">
  <ele>-40.169</ele>
  <time>2026-09-01T01:17:16Z</time>
  <course>323.4</course>
  <speed>1.0220078277586722</speed>
  <fix>3d</fix>
</trkpt>
<trkpt lat="33.8102771" lon="-118.3944036">
  <ele>-39.15</ele>
  <time>2026-09-01T01:17:16Z</time>
  <course>324.79</course>
  <speed>1.0</speed>
  <fix>3d</fix>
</trkpt>
<trkpt lat="33.8102788" lon="-118.3944054">
  <ele>-40.19</ele>
  <time>2026-09-01T01:17:16Z</time>
  <course>323.43</course>
  <speed>1.0220078277586722</speed>
  <fix>3d</fix>
</trkpt>
<trkpt lat="33.8102771" lon="-118.3944036">
  <ele>-39.15</ele>
  <time>2026-09-01T01:17:16Z</time>
  <course>324.79</course>
  <speed>1.0</speed>
  <fix>3d</fix>
</trkpt>
<trkpt lat="33.8102796" lon="-118.394406">
  <ele>-40.212</ele>
  <time>2026-09-01T01:17:16Z</time>
  <course>323.44</course>
  <speed>1.0220078277586722</speed>
  <fix>3d</fix>
</trkpt>
<trkpt lat="33.8102786" lon="-118.3944048">
  <ele>-39.19</ele>
  <time>2026-09-01T01:17:16Z</time>
  <course>324.82</course>
  <speed>1.0</speed>
  <fix>3d</fix>
</trkpt>
<trkpt lat="33.8102803" lon="-118.3944066">
  <ele>-40.234</ele>
  <time>2026-09-01T01:17:16Z</time>
  <course>323.45</course>
  <speed>1.0220078277586722</speed>
  <fix>3d</fix>
</trkpt>
<trkpt lat="33.8102786" lon="-118.3944048">
  <ele>-39.19</ele>
  <time>2026-09-01T01:17:16Z</time>
  <course>324.82</course>
  <speed>1.0</speed>
  <fix>3d</fix>
</trkpt>
<trkpt lat="33.8102811" lon="-118.3944073">
  <ele>-40.258</ele>
  <time>2026-09-01T01:17:16Z</time>
  <course>323.43</course>
  <speed>1.0220078277586722</speed>
  <fix>3d</fix>
</trkpt>
<trkpt lat="33.8102801" lon="-118.3944061">
  <ele>-39.23</ele>
  <time>2026-09-01T01:17:16Z</time>
  <course>324.78</course>
  <speed>1.0</speed>
  <fix>3d</fix>
</trkpt>
<trkpt lat="33.8102818" lon="-118.3944079">
  <ele>-40.281</ele>
  <time>2026-09-01T01:17:16Z</time>
  <course>323.41</course>
  <speed>1.0220078277586722</speed>
  <fix>3d</fix>
</trkpt>
<trkpt lat="33.8102801" lon="-118.3944061">
  <ele>-39.23</ele>
  <time>2026-09-01T01:17:16Z</time>
  <course>324.78</course>
  <speed>1.0</speed>
  <fix>3d</fix>
</trkpt>
<trkpt lat="33.8102825" lon="-118.3944085">
  <ele>-40.304</ele>
  <time>2026-09-01T01:17:16Z</time>
  <course>323.37</course>
  <speed>1.0220078277586722</speed>
  <fix>3d</fix>
</trkpt>
<trkpt lat="33.8102815" lon="-118.3944074">
  <ele>-39.28</ele>
  <time>2026-09-01T01:17:16Z</time>
  <course>324.71</course>
  <speed>1.0</speed>
  <fix>3d</fix>
</trkpt>
<trkpt lat="33.8102833" lon="-118.3944092">
  <ele>-40.327</ele>
  <time>2026-09-01T01:17:16Z</time>
  <course>323.36</course>
  <speed>1.0220078277586722</speed>
  <fix>3d</fix>
</trkpt>
<trkpt lat="33.8102815" lon="-118.3944074">
  <ele>-39.28</ele>
  <time>2026-09-01T01:17:16Z</time>
  <course>324.71</course>
  <speed>1.0</speed>
  <fix>3d</fix>
</trkpt>
<trkpt lat="33.810284" lon="-118.3944098">
  <ele>-40.35</ele>
  <time>2026-09-01T01:17:16Z</time>
  <course>323.36</course>
  <speed>1.0220078277586722</speed>
  <fix>3d</fix>
</trkpt>
<trkpt lat="33.810283" lon="-118.3944086">
  <ele>-39.32</ele>
  <time>2026-09-01T01:17:16Z</time>
  <course>324.7</course>
  <speed>1.0</speed>
  <fix>3d</fix>
</trkpt>
<trkpt lat="33.8102847" lon="-118.3944104">
  <ele>-40.371</ele>
  <time>2026-09-01T01:17:16Z</time>
  <course>323.38</course>
  <speed>1.0220078277586722</speed>
  <fix>3d</fix>
</trkpt>
<trkpt lat="33.810283" lon="-118.3944086">
  <ele>-39.32</ele>
  <time>2026-09-01T01:17:16Z</time>
  <course>324.7</course>
  <speed>1.0</speed>
  <fix>3d</fix>
</trkpt>
<trkpt lat="33.8102855" lon="-118.394411">
  <ele>-40.393</ele>
  <time>2026-09-01T01:17:16Z</time>
  <course>323.39</course>
  <speed>1.0220078277586722</speed>
  <fix>3d</fix>
</trkpt>
<trkpt lat="33.8102845" lon="-118.3944099">
  <ele>-39.36</ele>
  <time>2026-09-01T01:17:16Z</time>
  <course>324.73</course>
  <speed>1.0</speed>
  <fix>3d</fix>
</trkpt>
<trkpt lat="33.8102862" lon="-118.3944117">
  <ele>-40.414</ele>
  <time>2026-09-01T01:17:16Z</time>
  <course>323.41</course>
  <speed>1.0220078277586722</speed>
  <fix>3d</fix>
</trkpt>
<trkpt lat="33.8102845" lon="-118.3944099">
  <ele>-39.36</ele>
  <time>2026-09-01T01:17:16Z</time>
  <course>324.73</course>
  <speed>1.0</speed>
  <fix>3d</fix>
</trkpt>
<trkpt lat="33.8102869" lon="-118.3944123">
  <ele>-40.435</ele>
  <time>2026-09-01T01:17:16Z</time>
  <course>323.41</course>
  <speed>1.0220078277586722</speed>
  <fix>3d</fix>
</trkpt>
<trkpt lat="33.810286" lon="-118.3944111">
  <ele>-39.41</ele>
  <time>2026-09-01T01:17:16Z</time>
  <course>324.75</course>
  <speed>1.0</speed>
  <fix>3d</fix>
</trkpt>
<trkpt lat="33.8102877" lon="-118.3944129">
  <ele>-40.457</ele>
  <time>2026-09-01T01:17:16Z</time>
  <course>323.42</course>
  <speed>1.0220078277586722</speed>
  <fix>3d</fix>
</trkpt>
<trkpt lat="33.810286" lon="-118.3944111">
  <ele>-39.41</ele>
  <time>2026-09-01T01:17:16Z</time>
  <course>324.75</course>
  <speed>1.0</speed>
  <fix>3d</fix>
</trkpt>
<trkpt lat="33.8102884" lon="-118.3944135">
  <ele>-40.48</ele>
  <time>2026-09-01T01:17:16Z</time>
  <course>323.41</course>
  <speed>1.0220078277586722</speed>
  <fix>3d</fix>
</trkpt>
<trkpt lat="33.8102874" lon="-118.3944124">
  <ele>-39.45</ele>
  <time>2026-09-01T01:17:16Z</time>
  <course>324.74</course>
  <speed>1.0</speed>
  <fix>3d</fix>
</trkpt>
<trkpt lat="33.8102892" lon="-118.3944142">
  <ele>-40.503</ele>
  <time>2026-09-01T01:17:16Z</time>
  <course>323.4</course>
  <speed>1.0220078277586722</speed>
  <fix>3d</fix>
</trkpt>
<trkpt lat="33.8102874" lon="-118.3944124">
  <ele>-39.45</ele>
  <time>2026-09-01T01:17:16Z</time>
  <course>324.74</course>
  <speed>1.0</speed>
  <fix>3d</fix>
</trkpt>
<trkpt lat="33.8102899" lon="-118.3944148">
  <ele>-40.525</ele>
  <time>2026-09-01T01:17:16Z</time>
  <course>323.4</course>
  <speed>1.0220078277586722</speed>
  <fix>3d</fix>
</trkpt>
<trkpt lat="33.8102889" lon="-118.3944136">
  <ele>-39.49</ele>
  <time>2026-09-01T01:17:16Z</time>
  <course>324.74</course>
  <speed>1.0</speed>
  <fix>3d</fix>
</trkpt>
<trkpt lat="33.8102906" lon="-118.3944154">
  <ele>-40.547</ele>
  <time>2026-09-01T01:17:16Z</time>
  <course>323.4</course>
  <speed>1.0220078277586722</speed>
  <fix>3d</fix>
</trkpt>
<trkpt lat="33.8102889" lon="-118.3944136">
  <ele>-39.49</ele>
  <time>2026-09-01T01:17:16Z</time>
  <course>324.74</course>
  <speed>1.0</speed>
  <fix>3d</fix>
</trkpt>
<trkpt lat="33.8102914" lon="-118.394416">
  <ele>-40.568</ele>
  <time>2026-09-01T01:17:16Z</time>
  <course>323.4</course>
  <speed>1.0220078277586722</speed>
  <fix>3d</fix>
</trkpt>
<trkpt lat="33.8102904" lon="-118.3944149">
  <ele>-39.54</ele>
  <time>2026-09-01T01:17:16Z</time>
  <course>324.76</course>
  <speed>1.0</speed>
  <fix>3d</fix>
</trkpt>
<trkpt lat="33.8102921" lon="-118.3944167">
  <ele>-40.591</ele>
  <time>2026-09-01T01:17:16Z</time>
  <course>323.41</course>
  <speed>1.0220078277586722</speed>
  <fix>3d</fix>
</trkpt>
<trkpt lat="33.8102904" lon="-118.3944149">
  <ele>-39.54</ele>
  <time>2026-09-01T01:17:16Z</time>
  <course>324.76</course>
  <speed>1.0</speed>
  <fix>3d</fix>
</trkpt>
<trkpt lat="33.8102928" lon="-118.3944173">
  <ele>-40.614</ele>
  <time>2026-09-01T01:17:16Z</time>
  <course>323.4</course>
  <speed>1.0220078277586722</speed>
  <fix>3d</fix>
</trkpt>
<trkpt lat="33.8102918" lon="-118.3944162">
  <ele>-39.58</ele>
  <time>2026-09-01T01:17:16Z</time>
  <course>324.75</course>
  <speed>1.0</speed>
  <fix>3d</fix>
</trkpt>
<trkpt lat="33.8102936" lon="-118.3944179">
  <ele>-40.637</ele>
  <time>2026-09-01T01:17:16Z</time>
  <course>323.41</course>
  <speed>1.0220078277586722</speed>
  <fix>3d</fix>
</trkpt>
<trkpt lat="33.8102918" lon="-118.3944162">
  <ele>-39.58</ele>
  <time>2026-09-01T01:17:16Z</time>
  <course>324.75</course>
  <speed>1.0</speed>
  <fix>3d</fix>
</trkpt>
<trkpt lat="33.8102943" lon="-118.3944185">
  <ele>-40.66</ele>
  <time>2026-09-01T01:17:16Z</time>
  <course>323.44</course>
  <speed>1.016070863670443</speed>
  <fix>3d</fix>
</trkpt>
<trkpt lat="33.8102933" lon="-118.3944174">
  <ele>-39.63</ele>
  <time>2026-09-01T01:17:16Z</time>
  <course>324.79</course>
  <speed>1.0</speed>
  <fix>3d</fix>
</trkpt>
<trkpt lat="33.810295" lon="-118.3944192">
  <ele>-40.682</ele>
  <time>2026-09-01T01:17:17Z</time>
  <course>323.47</course>
  <speed>1.016070863670443</speed>
  <fix>3d</fix>
</trkpt>
<trkpt lat="33.8102933" lon="-118.3944174">
  <ele>-39.63</ele>
  <time>2026-09-01T01:17:17Z</time>
  <course>324.79</course>
  <speed>1.0</speed>
  <fix>3d</fix>
</trkpt>
<trkpt lat="33.8102958" lon="-118.3944198">
  <ele>-40.705</ele>
  <time>2026-09-01T01:17:17Z</time>
  <course>323.49</course>
  <speed>1.016070863670443</speed>
  <fix>3d</fix>
</trkpt>
<trkpt lat="33.8102948" lon="-118.3944187">
  <ele>-39.67</ele>
  <time>2026-09-01T01:17:17Z</time>
  <course>324.84</course>
  <speed>1.0</speed>
  <fix>3d</fix>
</trkpt>
<trkpt lat="33.8102965" lon="-118.3944204">
  <ele>-40.727</ele>
  <time>2026-09-01T01:17:17Z</time>
  <course>323.52</course>
  <speed>1.016070863670443</speed>
  <fix>3d</fix>
</trkpt>
<trkpt lat="33.8102948" lon="-118.3944187">
  <ele>-39.67</ele>
  <time>2026-09-01T01:17:17Z</time>
  <course>324.84</course>
  <speed>1.0</speed>
  <fix>3d</fix>
</trkpt>
<trkpt lat="33.8102973" lon="-118.394421">
  <ele>-40.75</ele>
  <time>2026-09-01T01:17:17Z</time>
  <course>323.54</course>
  <speed>1.016070863670443</speed>
  <fix>3d</fix>
</trkpt>
<trkpt lat="33.8102963" lon="-118.3944199">
  <ele>-39.71</ele>
  <time>2026-09-01T01:17:17Z</time>
  <course>324.87</course>
  <speed>1.0</speed>
  <fix>3d</fix>
</trkpt>
<trkpt lat="33.810298" lon="-118.3944217">
  <ele>-40.772</ele>
  <time>2026-09-01T01:17:17Z</time>
  <course>323.56</course>
  <speed>1.016070863670443</speed>
  <fix>3d</fix>
</trkpt>
<trkpt lat="33.8102963" lon="-118.3944199">
  <ele>-39.71</ele>
  <time>2026-09-01T01:17:17Z</time>
  <course>324.87</course>
  <speed>1.0</speed>
  <fix>3d</fix>
</trkpt>
<trkpt lat="33.8102987" lon="-118.3944223">
  <ele>-40.794</ele>
  <time>2026-09-01T01:17:17Z</time>
  <course>323.55</course>
  <speed>1.016070863670443</speed>
  <fix>3d</fix>
</trkpt>
<trkpt lat="33.8102977" lon="-118.3944211">
  <ele>-39.76</ele>
  <time>2026-09-01T01:17:17Z</time>
  <course>324.88</course>
  <speed>0.99</speed>
  <fix>3d</fix>
</trkpt>
<trkpt lat="33.8102995" lon="-118.3944229">
  <ele>-40.816</ele>
  <time>2026-09-01T01:17:17Z</time>
  <course>323.55</course>
  <speed>1.016070863670443</speed>
  <fix>3d</fix>
</trkpt>
<trkpt lat="33.8102977" lon="-118.3944211">
  <ele>-39.76</ele>
  <time>2026-09-01T01:17:17Z</time>
  <course>324.88</course>
  <speed>0.99</speed>
  <fix>3d</fix>
</trkpt>
<trkpt lat="33.8103002" lon="-118.3944235">
  <ele>-40.837</ele>
  <time>2026-09-01T01:17:17Z</time>
  <course>323.53</course>
  <speed>1.016070863670443</speed>
  <fix>3d</fix>
</trkpt>
<trkpt lat="33.8102992" lon="-118.3944224">
  <ele>-39.8</ele>
  <time>2026-09-01T01:17:17Z</time>
  <course>324.86</course>
  <speed>0.99</speed>
  <fix>3d</fix>
</trkpt>
<trkpt lat="33.8103009" lon="-118.3944242">
  <ele>-40.859</ele>
  <time>2026-09-01T01:17:17Z</time>
  <course>323.52</course>
  <speed>1.0220078277586722</speed>
  <fix>3d</fix>
</trkpt>
<trkpt lat="33.8102992" lon="-118.3944224">
  <ele>-39.8</ele>
  <time>2026-09-01T01:17:17Z</time>
  <course>324.86</course>
  <speed>0.99</speed>
  <fix>3d</fix>
</trkpt>
<trkpt lat="33.8103017" lon="-118.3944248">
  <ele>-40.881</ele>
  <time>2026-09-01T01:17:17Z</time>
  <course>323.5</course>
  <speed>1.016070863670443</speed>
  <fix>3d</fix>
</trkpt>
<trkpt lat="33.8103007" lon="-118.3944236">
  <ele>-39.84</ele>
  <time>2026-09-01T01:17:17Z</time>
  <course>324.83</course>
  <speed>0.99</speed>
  <fix>3d</fix>
</trkpt>
<trkpt lat="33.8103024" lon="-118.3944254">
  <ele>-40.903</ele>
  <time>2026-09-01T01:17:17Z</time>
  <course>323.49</course>
  <speed>1.016070863670443</speed>
  <fix>3d</fix>
</trkpt>
<trkpt lat="33.8103007" lon="-118.3944236">
  <ele>-39.84</ele>
  <time>2026-09-01T01:17:17Z</time>
  <course>324.83</course>
  <speed>0.99</speed>
  <fix>3d</fix>
</trkpt>
<trkpt lat="33.8103031" lon="-118.394426">
  <ele>-40.924</ele>
  <time>2026-09-01T01:17:17Z</time>
  <course>323.47</course>
  <speed>1.0080178569846865</speed>
  <fix>3d</fix>
</trkpt>
<trkpt lat="33.8103021" lon="-118.3944249">
  <ele>-39.88</ele>
  <time>2026-09-01T01:17:17Z</time>
  <course>324.81</course>
  <speed>0.99</speed>
  <fix>3d</fix>
</trkpt>
<trkpt lat="33.8103039" lon="-118.3944266">
  <ele>-40.946</ele>
  <time>2026-09-01T01:17:17Z</time>
  <course>323.46</course>
  <speed>0.9940321926376429</speed>
  <fix>3d</fix>
</trkpt>
<trkpt lat="33.8103021" lon="-118.3944249">
  <ele>-39.88</ele>
  <time>2026-09-01T01:17:17Z</time>
  <course>324.81</course>
  <speed>0.99</speed>
  <fix>3d</fix>
</trkpt>
<trkpt lat="33.8103046" lon="-118.3944273">
  <ele>-40.966</ele>
  <time>2026-09-01T01:17:17Z</time>
  <course>323.45</course>
  <speed>0.9720082304178294</speed>
  <fix>3d</fix>
</trkpt>
<trkpt lat="33.8103036" lon="-118.3944261">
  <ele>-39.93</ele>
  <time>2026-09-01T01:17:17Z</time>
  <course>324.8</course>
  <speed>0.98</speed>
  <fix>3d</fix>
</trkpt>
<trkpt lat="33.8103053" lon="-118.3944278">
  <ele>-40.987</ele>
  <time>2026-09-01T01:17:17Z</time>
  <course>323.44</course>
  <speed>0.9360021367496978</speed>
  <fix>3d</fix>
</trkpt>
<trkpt lat="33.8103036" lon="-118.3944261">
  <ele>-39.93</ele>
  <time>2026-09-01T01:17:17Z</time>
  <course>324.8</course>
  <speed>0.98</speed>
  <fix>3d</fix>
</trkpt>
<trkpt lat="33.8103059" lon="-118.3944284">
  <ele>-41.007</ele>
  <time>2026-09-01T01:17:17Z</time>
  <course>323.41</course>
  <speed>0.9</speed>
  <fix>3d</fix>
</trkpt>
<trkpt lat="33.810305" lon="-118.3944273">
  <ele>-39.97</ele>
  <time>2026-09-01T01:17:17Z</time>
  <course>324.8</course>
  <speed>0.93</speed>
  <fix>3d</fix>
</trkpt>
<trkpt lat="33.8103065" lon="-118.3944289">
  <ele>-41.026</ele>
  <time>2026-09-01T01:17:17Z</time>
  <course>323.37</course>
  <speed>0.85</speed>
  <fix>3d</fix>
</trkpt>
<trkpt lat="33.810305" lon="-118.3944273">
  <ele>-39.97</ele>
  <time>2026-09-01T01:17:17Z</time>
  <course>324.8</course>
  <speed>0.93</speed>
  <fix>3d</fix>
</trkpt>
<trkpt lat="33.8103071" lon="-118.3944294">
  <ele>-41.043</ele>
  <time>2026-09-01T01:17:17Z</time>
  <course>323.3</course>
  <speed>0.8</speed>
  <fix>3d</fix>
</trkpt>
<trkpt lat="33.8103063" lon="-118.3944284">
  <ele>-40.01</ele>
  <time>2026-09-01T01:17:17Z</time>
  <course>324.77</course>
  <speed>0.86</speed>
  <fix>3d</fix>
</trkpt>
<trkpt lat="33.8103077" lon="-118.3944299">
  <ele>-41.06</ele>
  <time>2026-09-01T01:17:17Z</time>
  <course>323.2</course>
  <speed>0.7360027173862879</speed>
  <fix>3d</fix>
</trkpt>
<trkpt lat="33.8103063" lon="-118.3944284">
  <ele>-40.01</ele>
  <time>2026-09-01T01:17:17Z</time>
  <course>324.77</course>
  <speed>0.86</speed>
  <fix>3d</fix>
</trkpt>
<trkpt lat="33.8103082" lon="-118.3944303">
  <ele>-41.074</ele>
  <time>2026-09-01T01:17:17Z</time>
  <course>323.07</course>
  <speed>0.6640030120413611</speed>
  <fix>3d</fix>
</trkpt>
<trkpt lat="33.8103075" lon="-118.3944295">
  <ele>-40.04</ele>
  <time>2026-09-01T01:17:17Z</time>
  <course>324.73</course>
  <speed>0.76</speed>
  <fix>3d</fix>
</trkpt>
<trkpt lat="33.8103086" lon="-118.3944307">
  <ele>-41.087</ele>
  <time>2026-09-01T01:17:17Z</time>
  <course>322.9</course>
  <speed>0.5920304046246274</speed>
  <fix>3d</fix>
</trkpt>
<trkpt lat="33.8103075" lon="-118.3944295">
  <ele>-40.04</ele>
  <time>2026-09-01T01:17:17Z</time>
  <course>324.73</course>
  <speed>0.76</speed>
  <fix>3d</fix>
</trkpt>
<trkpt lat="33.810309" lon="-118.3944311">
  <ele>-41.097</ele>
  <time>2026-09-01T01:17:17Z</time>
  <course>322.67</course>
  <speed>0.5280151512977634</speed>
  <fix>3d</fix>
</trkpt>
<trkpt lat="33.8103085" lon="-118.3944303">
  <ele>-40.07</ele>
  <time>2026-09-01T01:17:17Z</time>
  <course>324.7</course>
  <speed>0.63</speed>
  <fix>3d</fix>
</trkpt>
<trkpt lat="33.8103094" lon="-118.3944314">
  <ele>-41.103</ele>
  <time>2026-09-01T01:17:17Z</time>
  <course>322.35</course>
  <speed>0.4622769732530488</speed>
  <fix>3d</fix>
</trkpt>
<trkpt lat="33.8103085" lon="-118.3944303">
  <ele>-40.07</ele>
  <time>2026-09-01T01:17:17Z</time>
  <course>324.7</course>
  <speed>0.63</speed>
  <fix>3d</fix>
</trkpt>
<trkpt lat="33.8103097" lon="-118.3944316">
  <ele>-41.104</ele>
  <time>2026-09-01T01:17:17Z</time>
  <course>321.87</course>
  <speed>0.40607881008493907</speed>
  <fix>3d</fix>
</trkpt>
<trkpt lat="33.8103093" lon="-118.394431">
  <ele>-40.09</ele>
  <time>2026-09-01T01:17:17Z</time>
  <course>324.7</course>
  <speed>0.49</speed>
  <fix>3d</fix>
</trkpt>
<trkpt lat="33.81031" lon="-118.3944319">
  <ele>-41.098</ele>
  <time>2026-09-01T01:17:17Z</time>
  <course>321.14</course>
  <speed>0.35608987629529715</speed>
  <fix>3d</fix>
</trkpt>
<trkpt lat="33.8103093" lon="-118.394431">
  <ele>-40.09</ele>
  <time>2026-09-01T01:17:17Z</time>
  <course>324.7</course>
  <speed>0.49</speed>
  <fix>3d</fix>
</trkpt>
<trkpt lat="33.8103102" lon="-118.3944321">
  <ele>-41.087</ele>
  <time>2026-09-01T01:17:17Z</time>
  <course>320.2</course>
  <speed>0.32015621187164245</speed>
  <fix>3d</fix>
</trkpt>
<trkpt lat="33.81031" lon="-118.3944316">
  <ele>-40.09</ele>
  <time>2026-09-01T01:17:17Z</time>
  <course>324.79</course>
  <speed>0.37</speed>
  <fix>3d</fix>
</trkpt>
<trkpt lat="33.8103105" lon="-118.3944323">
  <ele>-41.072</ele>
  <time>2026-09-01T01:17:17Z</time>
  <course>319.45</course>
  <speed>0.2842534080710379</speed>
  <fix>3d</fix>
</trkpt>
<trkpt lat="33.81031" lon="-118.3944316">
  <ele>-40.09</ele>
  <time>2026-09-01T01:17:17Z</time>
  <course>324.79</course>
  <speed>0.37</speed>
  <fix>3d</fix>
</trkpt>
<trkpt lat="33.8103106" lon="-118.3944324">
  <ele>-41.055</ele>
  <time>2026-09-01T01:17:17Z</time>
  <course>319.46</course>
  <speed>0.24083189157584592</speed>
  <fix>3d</fix>
</trkpt>
<trkpt lat="33.8103105" lon="-118.394432">
  <ele>-40.07</ele>
  <time>2026-09-01T01:17:17Z</time>
  <course>324.91</course>
  <speed>0.28</speed>
  <fix>3d</fix>
</trkpt>
<trkpt lat="33.8103108" lon="-118.3944326">
  <ele>-41.036</ele>
  <time>2026-09-01T01:17:17Z</time>
  <course>319.41</course>
  <speed>0.20518284528683192</speed>
  <fix>3d</fix>
</trkpt>
<trkpt lat="33.8103105" lon="-118.394432">
  <ele>-40.07</ele>
  <time>2026-09-01T01:17:17Z</time>
  <course>324.91</course>
  <speed>0.28</speed>
  <fix>3d</fix>
</trkpt>
<trkpt lat="33.8103109" lon="-118.3944327">
  <ele>-41.016</ele>
  <time>2026-09-01T01:17:17Z</time>
  <course>317.81</course>
  <speed>0.16278820596099705</speed>
  <fix>3d</fix>
</trkpt>
<trkpt lat="33.8103108" lon="-118.3944323">
  <ele>-40.04</ele>
  <time>2026-09-01T01:17:17Z</time>
  <course>324.52</course>
  <speed>0.2</speed>
  <fix>3d</fix>
</trkpt>
<trkpt lat="33.810311" lon="-118.3944328">
  <ele>-40.996</ele>
  <time>2026-09-01T01:17:17Z</time>
  <course>315.05</course>
  <speed>0.12727922061357855</speed>
  <fix>3d</fix>
</trkpt>
<trkpt lat="33.8103108" lon="-118.3944323">
  <ele>-40.04</ele>
  <time>2026-09-01T01:17:17Z</time>
  <course>324.52</course>
  <speed>0.2</speed>
  <fix>3d</fix>
</trkpt>
<trkpt lat="33.8103111" lon="-118.3944328">
  <ele>-40.977</ele>
  <time>2026-09-01T01:17:17Z</time>
  <course>311.78</course>
  <speed>0.1063014581273465</speed>
  <fix>3d</fix>
</trkpt>
<trkpt lat="33.8103111" lon="-118.3944325">
  <ele>-40.01</ele>
  <time>2026-09-01T01:17:17Z</time>
  <course>322.79</course>
  <speed>0.12</speed>
  <fix>3d</fix>
</trkpt>
<trkpt lat="33.8103112" lon="-118.3944329">
  <ele>-40.958</ele>
  <time>2026-09-01T01:17:17Z</time>
  <course>308.16</course>
  <speed>0.08602325267042626</speed>
  <fix>3d</fix>
</trkpt>
<trkpt lat="33.8103111" lon="-118.3944325">
  <ele>-40.01</ele>
  <time>2026-09-01T01:17:17Z</time>
  <course>322.79</course>
  <speed>0.12</speed>
  <fix>3d</fix>
</trkpt>
<trkpt lat="33.8103112" lon="-118.3944329">
  <ele>-40.941</ele>
  <time>2026-09-01T01:17:17Z</time>
  <course>304.34</course>
  <speed>0.05830951894845301</speed>
  <fix>3d</fix>
</trkpt>
<trkpt lat="33.8103112" lon="-118.3944326">
  <ele>-39.98</ele>
  <time>2026-09-01T01:17:17Z</time>
  <course>318.96</course>
  <speed>0.06</speed>
  <fix>3d</fix>
</trkpt>
<trkpt lat="33.8103112" lon="-118.3944329">
  <ele>-40.925</ele>
  <time>2026-09-01T01:17:17Z</time>
  <course>300.34</course>
  <speed>0.03605551275463989</speed>
  <fix>3d</fix>
</trkpt>
<trkpt lat="33.8103112" lon="-118.3944326">
  <ele>-39.98</ele>
  <time>2026-09-01T01:17:17Z</time>
  <course>318.96</course>
  <speed>0.06</speed>
  <fix>3d</fix>
</trkpt>
<trkpt lat="33.8103113" lon="-118.3944329">
  <ele>-40.912</ele>
  <time>2026-09-01T01:17:17Z</time>
  <course>296.17</course>
  <speed>0.01</speed>
  <fix>3d</fix>
</trkpt>
<trkpt lat="33.8103112" lon="-118.3944327">
  <ele>-39.94</ele>
  <time>2026-09-01T01:17:17Z</time>
  <course>327.84</course>
  <speed>0.02</speed>
  <fix>3d</fix>
</trkpt>
<trkpt lat="33.8103113" lon="-118.3944329">
  <ele>-40.904</ele>
  <time>2026-09-01T01:17:17Z</time>
  <course>291.87</course>
  <speed>0.03</speed>
  <fix>3d</fix>
</trkpt>
<trkpt lat="33.8103112" lon="-118.3944327">
  <ele>-39.94</ele>
  <time>2026-09-01T01:17:17Z</time>
  <course>327.84</course>
  <speed>0.02</speed>
  <fix>3d</fix>
</trkpt>
<trkpt lat="33.8103113" lon="-118.3944328">
  <ele>-40.9</ele>
  <time>2026-09-01T01:17:17Z</time>
  <course>287.43</course>
  <speed>0.07</speed>
  <fix>3d</fix>
</trkpt>
<trkpt lat="33.8103112" lon="-118.3944327">
  <ele>-39.93</ele>
  <time>2026-09-01T01:17:17Z</time>
  <course>97.52</course>
  <speed>0.04</speed>
  <fix>3d</fix>
</trkpt>
<trkpt lat="33.8103113" lon="-118.3944327">
  <ele>-40.9</ele>
  <time>2026-09-01T01:17:17Z</time>
  <course>282.89</course>
  <speed>0.11</speed>
  <fix>3d</fix>
</trkpt>
<trkpt lat="33.8103112" lon="-118.3944327">
  <ele>-39.93</ele>
  <time>2026-09-01T01:17:17Z</time>
  <course>97.52</course>
  <speed>0.04</speed>
  <fix>3d</fix>
</trkpt>
<trkpt lat="33.8103112" lon="-118.3944326">
  <ele>-40.904</ele>
  <time>2026-09-01T01:17:17Z</time>
  <course>278.23</course>
  <speed>0.15</speed>
  <fix>3d</fix>
</trkpt>
<trkpt lat="33.8103112" lon="-118.3944325">
  <ele>-39.92</ele>
  <time>2026-09-01T01:17:17Z</time>
  <course>98.62</course>
  <speed>0.12</speed>
  <fix>3d</fix>
</trkpt>
<trkpt lat="33.8103112" lon="-118.3944324">
  <ele>-40.91</ele>
  <time>2026-09-01T01:17:17Z</time>
  <course>273.55</course>
  <speed>0.19</speed>
  <fix>3d</fix>
</trkpt>
<trkpt lat="33.8103112" lon="-118.3944325">
  <ele>-39.92</ele>
  <time>2026-09-01T01:17:17Z</time>
  <course>98.62</course>
  <speed>0.12</speed>
  <fix>3d</fix>
</trkpt>
<trkpt lat="33.8103112" lon="-118.3944321">
  <ele>-40.918</ele>
  <time>2026-09-01T01:17:17Z</time>
  <course>268.69</course>
  <speed>0.23</speed>
  <fix>3d</fix>
</trkpt>
<trkpt lat="33.8103112" lon="-118.3944322">
  <ele>-39.92</ele>
  <time>2026-09-01T01:17:17Z</time>
  <course>96.43</course>
  <speed>0.2</speed>
  <fix>3d</fix>
</trkpt>
<trkpt lat="33.8103112" lon="-118.3944318">
  <ele>-40.926</ele>
  <time>2026-09-01T01:17:17Z</time>
  <course>263.73</course>
  <speed>0.28</speed>
  <fix>3d</fix>
</trkpt>
<trkpt lat="33.8103112" lon="-118.3944322">
  <ele>-39.92</ele>
  <time>2026-09-01T01:17:17Z</time>
  <course>96.43</course>
  <speed>0.2</speed>
  <fix>3d</fix>
</trkpt>
<trkpt lat="33.8103112" lon="-118.3944314">
  <ele>-40.934</ele>
  <time>2026-09-01T01:17:17Z</time>
  <course>258.67</course>
  <speed>0.32</speed>
  <fix>3d</fix>
</trkpt>
<trkpt lat="33.8103112" lon="-118.3944316">
  <ele>-39.93</ele>
  <time>2026-09-01T01:17:17Z</time>
  <course>94.89</course>
  <speed>0.29</speed>
  <fix>3d</fix>
</trkpt>
<trkpt lat="33.8103112" lon="-118.394431">
  <ele>-40.941</ele>
  <time>2026-09-01T01:17:17Z</time>
  <course>253.39</course>
  <speed>0.36</speed>
  <fix>3d</fix>
</trkpt>
<trkpt lat="33.8103112" lon="-118.3944316">
  <ele>-39.93</ele>
  <time>2026-09-01T01:17:17Z</time>
  <course>94.89</course>
  <speed>0.29</speed>
  <fix>3d</fix>
</trkpt>
<trkpt lat="33.8103112" lon="-118.3944306">
  <ele>-40.947</ele>
  <time>2026-09-01T01:17:17Z</time>
  <course>248.14</course>
  <speed>0.4</speed>
  <fix>3d</fix>
</trkpt>
<trkpt lat="33.8103112" lon="-118.394431">
  <ele>-39.94</ele>
  <time>2026-09-01T01:17:17Z</time>
  <course>93.99</course>
  <speed>0.37</speed>
  <fix>3d</fix>
</trkpt>
<trkpt lat="33.8103112" lon="-118.3944301">
  <ele>-40.952</ele>
  <time>2026-09-01T01:17:17Z</time>
  <course>242.82</course>
  <speed>0.44</speed>
  <fix>3d</fix>
</trkpt>
<trkpt lat="33.8103112" lon="-118.394431">
  <ele>-39.94</ele>
  <time>2026-09-01T01:17:17Z</time>
  <course>93.99</course>
  <speed>0.37</speed>
  <fix>3d</fix>
</trkpt>
<trkpt lat="33.8103112" lon="-118.3944296">
  <ele>-40.953</ele>
  <time>2026-09-01T01:17:17Z</time>
  <course>237.43</course>
  <speed>0.48</speed>
  <fix>3d</fix>
</trkpt>
<trkpt lat="33.8103112" lon="-118.3944301">
  <ele>-39.96</ele>
  <time>2026-09-01T01:17:17Z</time>
  <course>93.31</course>
  <speed>0.46</speed>
  <fix>3d</fix>
</trkpt>
<trkpt lat="33.8103112" lon="-118.394429">
  <ele>-40.95</ele>
  <time>2026-09-01T01:17:17Z</time>
  <course>232.01</course>
  <speed>0.51</speed>
  <fix>3d</fix>
</trkpt>
<trkpt lat="33.8103112" lon="-118.3944301">
  <ele>-39.96</ele>
  <time>2026-09-01T01:17:17Z</time>
  <course>93.31</course>
  <speed>0.46</speed>
  <fix>3d</fix>
</trkpt>
<trkpt lat="33.8103112" lon="-118.3944284">
  <ele>-40.944</ele>
  <time>2026-09-01T01:17:17Z</time>
  <course>226.48</course>
  <speed>0.54</speed>
  <fix>3d</fix>
</trkpt>
<trkpt lat="33.8103112" lon="-118.394429">
  <ele>-39.96</ele>
  <time>2026-09-01T01:17:17Z</time>
  <course>92.52</course>
  <speed>0.53</speed>
  <fix>3d</fix>
</trkpt>
<trkpt lat="33.8103112" lon="-118.3944278">
  <ele>-40.936</ele>
  <time>2026-09-01T01:17:17Z</time>
  <course>220.87</course>
  <speed>0.56</speed>
  <fix>3d</fix>
</trkpt>
<trkpt lat="33.8103112" lon="-118.394429">
  <ele>-39.96</ele>
  <time>2026-09-01T01:17:17Z</time>
  <course>92.52</course>
  <speed>0.53</speed>
  <fix>3d</fix>
</trkpt>
<trkpt lat="33.8103112" lon="-118.3944272">
  <ele>-40.924</ele>
  <time>2026-09-01T01:17:17Z</time>
  <course>215.19</course>
  <speed>0.57</speed>
  <fix>3d</fix>
</trkpt>
<trkpt lat="33.8103111" lon="-118.3944278">
  <ele>-39.95</ele>
  <time>2026-09-01T01:17:17Z</time>
  <course>91.58</course>
  <speed>0.58</speed>
  <fix>3d</fix>
</trkpt>
<trkpt lat="33.8103112" lon="-118.3944265">
  <ele>-40.909</ele>
  <time>2026-09-01T01:17:17Z</time>
  <course>209.42</course>
  <speed>0.5900847396772771</speed>
  <fix>3d</fix>
</trkpt>
<trkpt lat="33.8103111" lon="-118.3944278">
  <ele>-39.95</ele>
  <time>2026-09-01T01:17:17Z</time>
  <course>91.58</course>
  <speed>0.58</speed>
  <fix>3d</fix>
</trkpt>
<trkpt lat="33.8103112" lon="-118.3944258">
  <ele>-40.891</ele>
  <time>2026-09-01T01:17:17Z</time>
  <course>203.5</course>
  <speed>0.6000833275470999</speed>
  <fix>3d</fix>
</trkpt>
<trkpt lat="33.8103111" lon="-118.3944265">
  <ele>-39.93</ele>
  <time>2026-09-01T01:17:17Z</time>
  <course>90.67</course>
  <speed>0.62</speed>
  <fix>3d</fix>
</trkpt>
<trkpt lat="33.8103112" lon="-118.3944251">
  <ele>-40.872</ele>
  <time>2026-09-01T01:17:17Z</time>
  <course>197.54</course>
  <speed>0.6100819617067857</speed>
  <fix>3d</fix>
</trkpt>
<trkpt lat="33.8103111" lon="-118.3944265">
  <ele>-39.93</ele>
  <time>2026-09-01T01:17:17Z</time>
  <course>90.67</course>
  <speed>0.62</speed>
  <fix>3d</fix>
</trkpt>
<trkpt lat="33.8103112" lon="-118.3944244">
  <ele>-40.852</ele>
  <time>2026-09-01T01:17:17Z</time>
  <course>191.47</course>
  <speed>0.61</speed>
  <fix>3d</fix>
</trkpt>
<trkpt lat="33.8103111" lon="-118.3944251">
  <ele>-39.9</ele>
  <time>2026-09-01T01:17:17Z</time>
  <course>90.21</course>
  <speed>0.65</speed>
  <fix>3d</fix>
</trkpt>
<trkpt lat="33.8103112" lon="-118.3944237">
  <ele>-40.83</ele>
  <time>2026-09-01T01:17:17Z</time>
  <course>185.34</course>
  <speed>0.62</speed>
  <fix>3d</fix>
</trkpt>
<trkpt lat="33.8103111" lon="-118.3944251">
  <ele>-39.9</ele>
  <time>2026-09-01T01:17:17Z</time>
  <course>90.21</course>
  <speed>0.65</speed>
  <fix>3d</fix>
</trkpt>
<trkpt lat="33.8103112" lon="-118.394423">
  <ele>-40.808</ele>
  <time>2026-09-01T01:17:17Z</time>
  <course>179.13</course>
  <speed>0.62</speed>
  <fix>3d</fix>
</trkpt>
<trkpt lat="33.8103111" lon="-118.3944236">
  <ele>-39.86</ele>
  <time>2026-09-01T01:17:17Z</time>
  <course>90.64</course>
  <speed>0.66</speed>
  <fix>3d</fix>
</trkpt>
<trkpt lat="33.8103112" lon="-118.3944223">
  <ele>-40.788</ele>
  <time>2026-09-01T01:17:17Z</time>
  <course>172.92</course>
  <speed>0.630317380372777</speed>
  <fix>3d</fix>
</trkpt>
<trkpt lat="33.8103111" lon="-118.3944236">
  <ele>-39.86</ele>
  <time>2026-09-01T01:17:17Z</time>
  <course>90.64</course>
  <speed>0.66</speed>
  <fix>3d</fix>
</trkpt>
<trkpt lat="33.8103111" lon="-118.3944216">
  <ele>-40.769</ele>
  <time>2026-09-01T01:17:17Z</time>
  <course>166.72</course>
  <speed>0.630317380372777</speed>
  <fix>3d</fix>
</trkpt>
<trkpt lat="33.8103111" lon="-118.3944222">
  <ele>-39.82</ele>
  <time>2026-09-01T01:17:17Z</time>
  <course>91.96</course>
  <speed>0.67</speed>
  <fix>3d</fix>
</trkpt>
<trkpt lat="33.8103111" lon="-118.3944208">
  <ele>-40.75</ele>
  <time>2026-09-01T01:17:17Z</time>
  <course>160.55</course>
  <speed>0.6407027391856539</speed>
  <fix>3d</fix>
</trkpt>
<trkpt lat="33.8103111" lon="-118.3944222">
  <ele>-39.82</ele>
  <time>2026-09-01T01:17:17Z</time>
  <course>91.96</course>
  <speed>0.67</speed>
  <fix>3d</fix>
</trkpt>
<trkpt lat="33.8103111" lon="-118.3944201">
  <ele>-40.732</ele>
  <time>2026-09-01T01:17:17Z</time>
  <course>154.49</course>
  <speed>0.6506919393998976</speed>
  <fix>3d</fix>
</trkpt>
<trkpt lat="33.810311" lon="-118.3944207">
  <ele>-39.78</ele>
  <time>2026-09-01T01:17:17Z</time>
  <course>93.15</course>
  <speed>0.68</speed>
  <fix>3d</fix>
</trkpt>
<trkpt lat="33.810311" lon="-118.3944193">
  <ele>-40.716</ele>
  <time>2026-09-01T01:17:17Z</time>
  <course>148.37</course>
  <speed>0.660302960768767</speed>
  <fix>3d</fix>
</trkpt>
<trkpt lat="33.810311" lon="-118.3944207">
  <ele>-39.78</ele>
  <time>2026-09-01T01:17:17Z</time>
  <course>93.15</course>
  <speed>0.68</speed>
  <fix>3d</fix>
</trkpt>
<trkpt lat="33.810311" lon="-118.3944186">
  <ele>-40.703</ele>
  <time>2026-09-01T01:17:17Z</time>
  <course>142.43</course>
  <speed>0.6702984409947557</speed>
  <fix>3d</fix>
</trkpt>
<trkpt lat="33.8103109" lon="-118.3944192">
  <ele>-39.75</ele>
  <time>2026-09-01T01:17:17Z</time>
  <course>93.16</course>
  <speed>0.7</speed>
  <fix>3d</fix>
</trkpt>
<trkpt lat="33.810311" lon="-118.3944178">
  <ele>-40.692</ele>
  <time>2026-09-01T01:17:17Z</time>
  <course>137.03</course>
  <speed>0.6700746227100381</speed>
  <fix>3d</fix>
</trkpt>
<trkpt lat="33.8103109" lon="-118.3944192">
  <ele>-39.75</ele>
  <time>2026-09-01T01:17:17Z</time>
  <course>93.16</course>
  <speed>0.7</speed>
  <fix>3d</fix>
</trkpt>
<trkpt lat="33.810311" lon="-118.394417">
  <ele>-40.682</ele>
  <time>2026-09-01T01:17:17Z</time>
  <course>131.99</course>
  <speed>0.66</speed>
  <fix>3d</fix>
</trkpt>
<trkpt lat="33.8103109" lon="-118.3944177">
  <ele>-39.73</ele>
  <time>2026-09-01T01:17:17Z</time>
  <course>92.23</course>
  <speed>0.7</speed>
  <fix>3d</fix>
</trkpt>
<trkpt lat="33.8103109" lon="-118.3944163">
  <ele>-40.674</ele>
  <time>2026-09-01T01:17:17Z</time>
  <course>127.39</course>
  <speed>0.65</speed>
  <fix>3d</fix>
</trkpt>
<trkpt lat="33.8103109" lon="-118.3944177">
  <ele>-39.73</ele>
  <time>2026-09-01T01:17:17Z</time>
  <course>92.23</course>
  <speed>0.7</speed>
  <fix>3d</fix>
</trkpt>
<trkpt lat="33.8103109" lon="-118.3944155">
  <ele>-40.668</ele>
  <time>2026-09-01T01:17:17Z</time>
  <course>123.03</course>
  <speed>0.65</speed>
  <fix>3d</fix>
</trkpt>
<trkpt lat="33.8103109" lon="-118.3944162">
  <ele>-39.71</ele>
  <time>2026-09-01T01:17:17Z</time>
  <course>90.93</course>
  <speed>0.69</speed>
  <fix>3d</fix>
</trkpt>
<trkpt lat="33.810311" lon="-118.3944148">
  <ele>-40.666</ele>
  <time>2026-09-01T01:17:17Z</time>
  <course>118.87</course>
  <speed>0.6400781202322103</speed>
  <fix>3d</fix>
</trkpt>
<trkpt lat="33.8103109" lon="-118.3944162">
  <ele>-39.71</ele>
  <time>2026-09-01T01:17:17Z</time>
  <course>90.93</course>
  <speed>0.69</speed>
  <fix>3d</fix>
</trkpt>
<trkpt lat="33.810311" lon="-118.394414">
  <ele>-40.664</ele>
  <time>2026-09-01T01:17:17Z</time>
  <course>114.9</course>
  <speed>0.6403124237432849</speed>
  <fix>3d</fix>
</trkpt>
<trkpt lat="33.8103109" lon="-118.3944147">
  <ele>-39.69</ele>
  <time>2026-09-01T01:17:17Z</time>
  <course>89.51</course>
  <speed>0.68</speed>
  <fix>3d</fix>
</trkpt>
<trkpt lat="33.810311" lon="-118.3944133">
  <ele>-40.663</ele>
  <time>2026-09-01T01:17:17Z</time>
  <course>111.03</course>
  <speed>0.6307138812488592</speed>
  <fix>3d</fix>
</trkpt>
<trkpt lat="33.8103109" lon="-118.3944147">
  <ele>-39.69</ele>
  <time>2026-09-01T01:17:17Z</time>
  <course>89.51</course>
  <speed>0.68</speed>
  <fix>3d</fix>
</trkpt>
<trkpt lat="33.810311" lon="-118.3944126">
  <ele>-40.662</ele>
  <time>2026-09-01T01:17:17Z</time>
  <course>107.45</course>
  <speed>0.6207253821135398</speed>
  <fix>3d</fix>
</trkpt>
<trkpt lat="33.8103109" lon="-118.3944132">
  <ele>-39.69</ele>
  <time>2026-09-01T01:17:17Z</time>
  <course>88.09</course>
  <speed>0.66</speed>
  <fix>3d</fix>
</trkpt>
<trkpt lat="33.810311" lon="-118.3944119">
  <ele>-40.662</ele>
  <time>2026-09-01T01:17:17Z</time>
  <course>104.42</course>
  <speed>0.620322496770833</speed>
  <fix>3d</fix>
</trkpt>
<trkpt lat="33.8103109" lon="-118.3944132">
  <ele>-39.69</ele>
  <time>2026-09-01T01:17:17Z</time>
  <course>88.09</course>
  <speed>0.66</speed>
  <fix>3d</fix>
</trkpt>
<trkpt lat="33.810311" lon="-118.3944112">
  <ele>-40.663</ele>
  <time>2026-09-01T01:17:17Z</time>
  <course>102.18</course>
  <speed>0.620322496770833</speed>
  <fix>3d</fix>
</trkpt>
<trkpt lat="33.8103109" lon="-118.3944118">
  <ele>-39.69</ele>
  <time>2026-09-01T01:17:17Z</time>
  <course>87.46</course>
  <speed>0.65</speed>
  <fix>3d</fix>
</trkpt>
<trkpt lat="33.810311" lon="-118.3944104">
  <ele>-40.663</ele>
  <time>2026-09-01T01:17:17Z</time>
  <course>100.75</course>
  <speed>0.6200806399170998</speed>
  <fix>3d</fix>
</trkpt>
<trkpt lat="33.8103109" lon="-118.3944118">
  <ele>-39.69</ele>
  <time>2026-09-01T01:17:17Z</time>
  <course>87.46</course>
  <speed>0.65</speed>
  <fix>3d</fix>
</trkpt>
<trkpt lat="33.810311" lon="-118.3944097">
  <ele>-40.663</ele>
  <time>2026-09-01T01:17:17Z</time>
  <course>99.95</course>
  <speed>0.6200806399170998</speed>
  <fix>3d</fix>
</trkpt>
<trkpt lat="33.8103109" lon="-118.3944104">
  <ele>-39.69</ele>
  <time>2026-09-01T01:17:17Z</time>
  <course>88.09</course>
  <speed>0.64</speed>
  <fix>3d</fix>
</trkpt>
<trkpt lat="33.810311" lon="-118.394409">
  <ele>-40.662</ele>
  <time>2026-09-01T01:17:17Z</time>
  <course>99.54</course>
  <speed>0.63</speed>
  <fix>3d</fix>
</trkpt>
<trkpt lat="33.8103109" lon="-118.3944104">
  <ele>-39.69</ele>
  <time>2026-09-01T01:17:17Z</time>
  <course>88.09</course>
  <speed>0.64</speed>
  <fix>3d</fix>
</trkpt>
<trkpt lat="33.810311" lon="-118.3944083">
  <ele>-40.661</ele>
  <time>2026-09-01T01:17:17Z</time>
  <course>99.33</course>
  <speed>0.63</speed>
  <fix>3d</fix>
</trkpt>
<trkpt lat="33.8103109" lon="-118.394409">
  <ele>-39.69</ele>
  <time>2026-09-01T01:17:17Z</time>
  <course>89.06</course>
  <speed>0.64</speed>
  <fix>3d</fix>
</trkpt>
<trkpt lat="33.810311" lon="-118.3944076">
  <ele>-40.657</ele>
  <time>2026-09-01T01:17:17Z</time>
  <course>99.2</course>
  <speed>0.63</speed>
  <fix>3d</fix>
</trkpt>
<trkpt lat="33.8103109" lon="-118.394409">
  <ele>-39.69</ele>
  <time>2026-09-01T01:17:17Z</time>
  <course>89.06</course>
  <speed>0.64</speed>
  <fix>3d</fix>
</trkpt>
<trkpt lat="33.810311" lon="-118.3944069">
  <ele>-40.651</ele>
  <time>2026-09-01T01:17:17Z</time>
  <course>99.1</course>
  <speed>0.64</speed>
  <fix>3d</fix>
</trkpt>
<trkpt lat="33.8103109" lon="-118.3944076">
  <ele>-39.68</ele>
  <time>2026-09-01T01:17:17Z</time>
  <course>89.7</course>
  <speed>0.64</speed>
  <fix>3d</fix>
</trkpt>
<trkpt lat="33.810311" lon="-118.3944061">
  <ele>-40.643</ele>
  <time>2026-09-01T01:17:17Z</time>
  <course>99.02</course>
  <speed>0.64</speed>
  <fix>3d</fix>
</trkpt>
<trkpt lat="33.8103109" lon="-118.3944076">
  <ele>-39.68</ele>
  <time>2026-09-01T01:17:17Z</time>
  <course>89.7</course>
  <speed>0.64</speed>
  <fix>3d</fix>
</trkpt>
<trkpt lat="33.810311" lon="-118.3944054">
  <ele>-40.634</ele>
  <time>2026-09-01T01:17:17Z</time>
  <course>98.94</course>
  <speed>0.64</speed>
  <fix>3d</fix>
</trkpt>
<trkpt lat="33.8103109" lon="-118.3944062">
  <ele>-39.67</ele>
  <time>2026-09-01T01:17:17Z</time>
  <course>90.0</course>
  <speed>0.65</speed>
  <fix>3d</fix>
</trkpt>
<trkpt lat="33.810311" lon="-118.3944047">
  <ele>-40.624</ele>
  <time>2026-09-01T01:17:17Z</time>
  <course>98.87</course>
  <speed>0.64</speed>
  <fix>3d</fix>
</trkpt>
<trkpt lat="33.8103109" lon="-118.3944062">
  <ele>-39.67</ele>
  <time>2026-09-01T01:17:17Z</time>
  <course>90.0</course>
  <speed>0.65</speed>
  <fix>3d</fix>
</trkpt>
<trkpt lat="33.810311" lon="-118.394404">
  <ele>-40.613</ele>
  <time>2026-09-01T01:17:17Z</time>
  <course>98.81</course>
  <speed>0.65</speed>
  <fix>3d</fix>
</trkpt>
<trkpt lat="33.8103109" lon="-118.3944048">
  <ele>-39.65</ele>
  <time>2026-09-01T01:17:17Z</time>
  <course>90.12</course>
  <speed>0.65</speed>
  <fix>3d</fix>
</trkpt>
<trkpt lat="33.810311" lon="-118.3944033">
  <ele>-40.602</ele>
  <time>2026-09-01T01:17:17Z</time>
  <course>98.77</course>
  <speed>0.65</speed>
  <fix>3d</fix>
</trkpt>
<trkpt lat="33.8103109" lon="-118.3944048">
  <ele>-39.65</ele>
  <time>2026-09-01T01:17:17Z</time>
  <course>90.12</course>
  <speed>0.65</speed>
  <fix>3d</fix>
</trkpt>
<trkpt lat="33.810311" lon="-118.3944025">
  <ele>-40.59</ele>
  <time>2026-09-01T01:17:17Z</time>
  <course>98.73</course>
  <speed>0.65</speed>
  <fix>3d</fix>
</trkpt>
<trkpt lat="33.8103109" lon="-118.3944033">
  <ele>-39.62</ele>
  <time>2026-09-01T01:17:17Z</time>
  <course>90.2</course>
  <speed>0.65</speed>
  <fix>3d</fix>
</trkpt>
<trkpt lat="33.810311" lon="-118.3944018">
  <ele>-40.578</ele>
  <time>2026-09-01T01:17:17Z</time>
  <course>98.7</course>
  <speed>0.65</speed>
  <fix>3d</fix>
</trkpt>
<trkpt lat="33.8103109" lon="-118.3944033">
  <ele>-39.62</ele>
  <time>2026-09-01T01:17:17Z</time>
  <course>90.2</course>
  <speed>0.65</speed>
  <fix>3d</fix>
</trkpt>
<trkpt lat="33.810311" lon="-118.3944011">
  <ele>-40.564</ele>
  <time>2026-09-01T01:17:17Z</time>
  <course>98.68</course>
  <speed>0.65</speed>
  <fix>3d</fix>
</trkpt>
<trkpt lat="33.8103109" lon="-118.394402">
  <ele>-39.6</ele>
  <time>2026-09-01T01:17:17Z</time>
  <course>90.28</course>
  <speed>0.65</speed>
  <fix>3d</fix>
</trkpt>
<trkpt lat="33.810311" lon="-118.3944004">
  <ele>-40.55</ele>
  <time>2026-09-01T01:17:17Z</time>
  <course>98.67</course>
  <speed>0.65</speed>
  <fix>3d</fix>
</trkpt>
<trkpt lat="33.8103109" lon="-118.394402">
  <ele>-39.6</ele>
  <time>2026-09-01T01:17:17Z</time>
  <course>90.28</course>
  <speed>0.65</speed>
  <fix>3d</fix>
</trkpt>
<trkpt lat="33.810311" lon="-118.3943996">
  <ele>-40.536</ele>
  <time>2026-09-01T01:17:17Z</time>
  <course>98.66</course>
  <speed>0.65</speed>
  <fix>3d</fix>
</trkpt>
<trkpt lat="33.8103109" lon="-118.3944006">
  <ele>-39.57</ele>
  <time>2026-09-01T01:17:17Z</time>
  <course>90.37</course>
  <speed>0.65</speed>
  <fix>3d</fix>
</trkpt>
<trkpt lat="33.810311" lon="-118.3943989">
  <ele>-40.523</ele>
  <time>2026-09-01T01:17:17Z</time>
  <course>98.65</course>
  <speed>0.65</speed>
  <fix>3d</fix>
</trkpt>
<trkpt lat="33.8103109" lon="-118.3944006">
  <ele>-39.57</ele>
  <time>2026-09-01T01:17:17Z</time>
  <course>90.37</course>
  <speed>0.65</speed>
  <fix>3d</fix>
</trkpt>
<trkpt lat="33.8103109" lon="-118.3943982">
  <ele>-40.51</ele>
  <time>2026-09-01T01:17:17Z</time>
  <course>98.64</course>
  <speed>0.66</speed>
  <fix>3d</fix>
</trkpt>
<trkpt lat="33.8103109" lon="-118.3943992">
  <ele>-39.55</ele>
  <time>2026-09-01T01:17:17Z</time>
  <course>90.49</course>
  <speed>0.65</speed>
  <fix>3d</fix>
</trkpt>
<trkpt lat="33.8103109" lon="-118.3943975">
  <ele>-40.498</ele>
  <time>2026-09-01T01:17:17Z</time>
  <course>98.63</course>
  <speed>0.66</speed>
  <fix>3d</fix>
</trkpt>
<trkpt lat="33.8103109" lon="-118.3943992">
  <ele>-39.55</ele>
  <time>2026-09-01T01:17:17Z</time>
  <course>90.49</course>
  <speed>0.65</speed>
  <fix>3d</fix>
</trkpt>
<trkpt lat="33.8103109" lon="-118.3943968">
  <ele>-40.486</ele>
  <time>2026-09-01T01:17:17Z</time>
  <course>98.62</course>
  <speed>0.66</speed>
  <fix>3d</fix>
</trkpt>
<trkpt lat="33.8103109" lon="-118.3943978">
  <ele>-39.52</ele>
  <time>2026-09-01T01:17:17Z</time>
  <course>90.61</course>
  <speed>0.65</speed>
  <fix>3d</fix>
</trkpt>
<trkpt lat="33.8103109" lon="-118.3943961">
  <ele>-40.475</ele>
  <time>2026-09-01T01:17:17Z</time>
  <course>98.6</course>
  <speed>0.66</speed>
  <fix>3d</fix>
</trkpt>
<trkpt lat="33.8103109" lon="-118.3943978">
  <ele>-39.52</ele>
  <time>2026-09-01T01:17:17Z</time>
  <course>90.61</course>
  <speed>0.65</speed>
  <fix>3d</fix>
</trkpt>
<trkpt lat="33.8103109" lon="-118.3943953">
  <ele>-40.464</ele>
  <time>2026-09-01T01:17:17Z</time>
  <course>98.59</course>
  <speed>0.66</speed>
  <fix>3d</fix>
</trkpt>
<trkpt lat="33.8103109" lon="-118.3943963">
  <ele>-39.5</ele>
  <time>2026-09-01T01:17:17Z</time>
  <course>90.75</course>
  <speed>0.65</speed>
  <fix>3d</fix>
</trkpt>
<trkpt lat="33.8103109" lon="-118.3943946">
  <ele>-40.454</ele>
  <time>2026-09-01T01:17:17Z</time>
  <course>98.58</course>
  <speed>0.66</speed>
  <fix>3d</fix>
</trkpt>
<trkpt lat="33.8103109" lon="-118.3943963">
  <ele>-39.5</ele>
  <time>2026-09-01T01:17:17Z</time>
  <course>90.75</course>
  <speed>0.65</speed>
  <fix>3d</fix>
</trkpt>
<trkpt lat="33.8103109" lon="-118.3943939">
  <ele>-40.445</ele>
  <time>2026-09-01T01:17:17Z</time>
  <course>98.56</course>
  <speed>0.66</speed>
  <fix>3d</fix>
</trkpt>
<trkpt lat="33.8103109" lon="-118.3943949">
  <ele>-39.48</ele>
  <time>2026-09-01T01:17:17Z</time>
  <course>90.92</course>
  <speed>0.65</speed>
  <fix>3d</fix>
</trkpt>
<trkpt lat="33.8103109" lon="-118.3943932">
  <ele>-40.439</ele>
  <time>2026-09-01T01:17:17Z</time>
  <course>98.55</course>
  <speed>0.66</speed>
  <fix>3d</fix>
</trkpt>
<trkpt lat="33.8103109" lon="-118.3943949">
  <ele>-39.48</ele>
  <time>2026-09-01T01:17:17Z</time>
  <course>90.92</course>
  <speed>0.65</speed>
  <fix>3d</fix>
</trkpt>
<trkpt lat="33.8103109" lon="-118.3943925">
  <ele>-40.434</ele>
  <time>2026-09-01T01:17:17Z</time>
  <course>98.53</course>
  <speed>0.67</speed>
  <fix>3d</fix>
</trkpt>
<trkpt lat="33.8103109" lon="-118.3943935">
  <ele>-39.46</ele>
  <time>2026-09-01T01:17:17Z</time>
  <course>91.1</course>
  <speed>0.65</speed>
  <fix>3d</fix>
</trkpt>
<trkpt lat="33.8103109" lon="-118.3943917">
  <ele>-40.43</ele>
  <time>2026-09-01T01:17:17Z</time>
  <course>98.52</course>
  <speed>0.67</speed>
  <fix>3d</fix>
</trkpt>
<trkpt lat="33.8103109" lon="-118.3943935">
  <ele>-39.46</ele>
  <time>2026-09-01T01:17:17Z</time>
  <course>91.1</course>
  <speed>0.65</speed>
  <fix>3d</fix>
</trkpt>
<trkpt lat="33.8103109" lon="-118.394391">
  <ele>-40.427</ele>
  <time>2026-09-01T01:17:17Z</time>
  <course>98.5</course>
  <speed>0.6700746227100381</speed>
  <fix>3d</fix>
</trkpt>
<trkpt lat="33.8103109" lon="-118.3943921">
  <ele>-39.46</ele>
  <time>2026-09-01T01:17:17Z</time>
  <course>91.26</course>
  <speed>0.65</speed>
  <fix>3d</fix>
</trkpt>
<trkpt lat="33.8103109" lon="-118.3943903">
  <ele>-40.424</ele>
  <time>2026-09-01T01:17:17Z</time>
  <course>98.48</course>
  <speed>0.6700746227100381</speed>
  <fix>3d</fix>
</trkpt>
<trkpt lat="33.8103109" lon="-118.3943921">
  <ele>-39.46</ele>
  <time>2026-09-01T01:17:17Z</time>
  <course>91.26</course>
  <speed>0.65</speed>
  <fix>3d</fix>
</trkpt>
<trkpt lat="33.8103109" lon="-118.3943896">
  <ele>-40.421</ele>
  <time>2026-09-01T01:17:17Z</time>
  <course>98.46</course>
  <speed>0.6700746227100381</speed>
  <fix>3d</fix>
</trkpt>
<trkpt lat="33.8103109" lon="-118.3943907">
  <ele>-39.45</ele>
  <time>2026-09-01T01:17:17Z</time>
  <course>91.45</course>
  <speed>0.65</speed>
  <fix>3d</fix>
</trkpt>
<trkpt lat="33.8103109" lon="-118.3943889">
  <ele>-40.417</ele>
  <time>2026-09-01T01:17:17Z</time>
  <course>98.43</course>
  <speed>0.6700746227100381</speed>
  <fix>3d</fix>
</trkpt>
<trkpt lat="33.8103109" lon="-118.3943907">
  <ele>-39.45</ele>
  <time>2026-09-01T01:17:17Z</time>
  <course>91.45</course>
  <speed>0.65</speed>
  <fix>3d</fix>
</trkpt>
<trkpt lat="33.8103109" lon="-118.3943882">
  <ele>-40.414</ele>
  <time>2026-09-01T01:17:17Z</time>
  <course>98.4</course>
  <speed>0.6700746227100381</speed>
  <fix>3d</fix>
</trkpt>
<trkpt lat="33.8103108" lon="-118.3943892">
  <ele>-39.45</ele>
  <time>2026-09-01T01:17:17Z</time>
  <course>91.64</course>
  <speed>0.65</speed>
  <fix>3d</fix>
</trkpt>
<trkpt lat="33.8103108" lon="-118.3943874">
  <ele>-40.41</ele>
  <time>2026-09-01T01:17:17Z</time>
  <course>98.36</course>
  <speed>0.6800735254367721</speed>
  <fix>3d</fix>
</trkpt>
<trkpt lat="33.8103108" lon="-118.3943892">
  <ele>-39.45</ele>
  <time>2026-09-01T01:17:17Z</time>
  <course>91.64</course>
  <speed>0.65</speed>
  <fix>3d</fix>
</trkpt>
<trkpt lat="33.8103108" lon="-118.3943867">
  <ele>-40.406</ele>
  <time>2026-09-01T01:17:17Z</time>
  <course>98.29</course>
  <speed>0.68</speed>
  <fix>3d</fix>
</trkpt>
<trkpt lat="33.8103107" lon="-118.3943878">
  <ele>-39.44</ele>
  <time>2026-09-01T01:17:17Z</time>
  <course>91.76</course>
  <speed>0.66</speed>
  <fix>3d</fix>
</trkpt>
<trkpt lat="33.8103108" lon="-118.394386">
  <ele>-40.402</ele>
  <time>2026-09-01T01:17:17Z</time>
  <course>98.19</course>
  <speed>0.68</speed>
  <fix>3d</fix>
</trkpt>
<trkpt lat="33.8103107" lon="-118.3943878">
  <ele>-39.44</ele>
  <time>2026-09-01T01:17:17Z</time>
  <course>91.76</course>
  <speed>0.66</speed>
  <fix>3d</fix>
</trkpt>
<trkpt lat="33.8103108" lon="-118.3943852">
  <ele>-40.398</ele>
  <time>2026-09-01T01:17:17Z</time>
  <course>98.05</course>
  <speed>0.68</speed>
  <fix>3d</fix>
</trkpt>
<trkpt lat="33.8103107" lon="-118.3943864">
  <ele>-39.43</ele>
  <time>2026-09-01T01:17:17Z</time>
  <course>91.72</course>
  <speed>0.66</speed>
  <fix>3d</fix>
</trkpt>
<trkpt lat="33.8103108" lon="-118.3943845">
  <ele>-40.393</ele>
  <time>2026-09-01T01:17:17Z</time>
  <course>97.91</course>
  <speed>0.68</speed>
  <fix>3d</fix>
</trkpt>
<trkpt lat="33.8103107" lon="-118.3943864">
  <ele>-39.43</ele>
  <time>2026-09-01T01:17:17Z</time>
  <course>91.72</course>
  <speed>0.66</speed>
  <fix>3d</fix>
</trkpt>
<trkpt lat="33.8103108" lon="-118.3943838">
  <ele>-40.387</ele>
  <time>2026-09-01T01:17:17Z</time>
  <course>97.75</course>
  <speed>0.69</speed>
  <fix>3d</fix>
</trkpt>
<trkpt lat="33.8103107" lon="-118.3943849">
  <ele>-39.42</ele>
  <time>2026-09-01T01:17:17Z</time>
  <course>91.6</course>
  <speed>0.66</speed>
  <fix>3d</fix>
</trkpt>
<trkpt lat="33.8103108" lon="-118.3943831">
  <ele>-40.38</ele>
  <time>2026-09-01T01:17:17Z</time>
  <course>97.6</course>
  <speed>0.69</speed>
  <fix>3d</fix>
</trkpt>
<trkpt lat="33.8103107" lon="-118.3943849">
  <ele>-39.42</ele>
  <time>2026-09-01T01:17:17Z</time>
  <course>91.6</course>
  <speed>0.66</speed>
  <fix>3d</fix>
</trkpt>
<trkpt lat="33.8103108" lon="-118.3943823">
  <ele>-40.37</ele>
  <time>2026-09-01T01:17:17Z</time>
  <course>97.45</course>
  <speed>0.69</speed>
  <fix>3d</fix>
</trkpt>
<trkpt lat="33.8103106" lon="-118.3943835">
  <ele>-39.41</ele>
  <time>2026-09-01T01:17:17Z</time>
  <course>91.5</course>
  <speed>0.67</speed>
  <fix>3d</fix>
</trkpt>
<trkpt lat="33.8103107" lon="-118.3943816">
  <ele>-40.358</ele>
  <time>2026-09-01T01:17:17Z</time>
  <course>97.32</course>
  <speed>0.69</speed>
  <fix>3d</fix>
</trkpt>
<trkpt lat="33.8103106" lon="-118.3943835">
  <ele>-39.41</ele>
  <time>2026-09-01T01:17:17Z</time>
  <course>91.5</course>
  <speed>0.67</speed>
  <fix>3d</fix>
</trkpt>
<trkpt lat="33.8103107" lon="-118.3943809">
  <ele>-40.344</ele>
  <time>2026-09-01T01:17:17Z</time>
  <course>97.18</course>
  <speed>0.69</speed>
  <fix>3d</fix>
</trkpt>
<trkpt lat="33.8103106" lon="-118.394382">
  <ele>-39.39</ele>
  <time>2026-09-01T01:17:17Z</time>
  <course>91.41</course>
  <speed>0.67</speed>
  <fix>3d</fix>
</trkpt>
<trkpt lat="33.8103107" lon="-118.3943801">
  <ele>-40.329</ele>
  <time>2026-09-01T01:17:17Z</time>
  <course>97.04</course>
  <speed>0.7</speed>
  <fix>3d</fix>
</trkpt>
<trkpt lat="33.8103106" lon="-118.394382">
  <ele>-39.39</ele>
  <time>2026-09-01T01:17:17Z</time>
  <course>91.41</course>
  <speed>0.67</speed>
  <fix>3d</fix>
</trkpt>
<trkpt lat="33.8103107" lon="-118.3943794">
  <ele>-40.314</ele>
  <time>2026-09-01T01:17:17Z</time>
  <course>96.9</course>
  <speed>0.7</speed>
  <fix>3d</fix>
</trkpt>
<trkpt lat="33.8103106" lon="-118.3943805">
  <ele>-39.37</ele>
  <time>2026-09-01T01:17:17Z</time>
  <course>91.33</course>
  <speed>0.67</speed>
  <fix>3d</fix>
</trkpt>
<trkpt lat="33.8103107" lon="-118.3943787">
  <ele>-40.299</ele>
  <time>2026-09-01T01:17:17Z</time>
  <course>96.76</course>
  <speed>0.7</speed>
  <fix>3d</fix>
</trkpt>
<trkpt lat="33.8103106" lon="-118.3943805">
  <ele>-39.37</ele>
  <time>2026-09-01T01:17:17Z</time>
  <course>91.33</course>
  <speed>0.67</speed>
  <fix>3d</fix>
</trkpt>
<trkpt lat="33.8103107" lon="-118.3943779">
  <ele>-40.285</ele>
  <time>2026-09-01T01:17:17Z</time>
  <course>96.64</course>
  <speed>0.7</speed>
  <fix>3d</fix>
</trkpt>
<trkpt lat="33.8103106" lon="-118.3943791">
  <ele>-39.34</ele>
  <time>2026-09-01T01:17:17Z</time>
  <course>91.28</course>
  <speed>0.68</speed>
  <fix>3d</fix>
</trkpt>
<trkpt lat="33.8103107" lon="-118.3943772">
  <ele>-40.273</ele>
  <time>2026-09-01T01:17:17Z</time>
  <course>96.54</course>
  <speed>0.7</speed>
  <fix>3d</fix>
</trkpt>
<trkpt lat="33.8103106" lon="-118.3943791">
  <ele>-39.34</ele>
  <time>2026-09-01T01:17:17Z</time>
  <course>91.28</course>
  <speed>0.68</speed>
  <fix>3d</fix>
</trkpt>
<trkpt lat="33.8103107" lon="-118.3943764">
  <ele>-40.261</ele>
  <time>2026-09-01T01:17:17Z</time>
  <course>96.43</course>
  <speed>0.7</speed>
  <fix>3d</fix>
</trkpt>
<trkpt lat="33.8103106" lon="-118.3943776">
  <ele>-39.32</ele>
  <time>2026-09-01T01:17:17Z</time>
  <course>91.28</course>
  <speed>0.68</speed>
  <fix>3d</fix>
</trkpt>
<trkpt lat="33.8103107" lon="-118.3943757">
  <ele>-40.249</ele>
  <time>2026-09-01T01:17:17Z</time>
  <course>96.34</course>
  <speed>0.71</speed>
  <fix>3d</fix>
</trkpt>
<trkpt lat="33.8103106" lon="-118.3943776">
  <ele>-39.32</ele>
  <time>2026-09-01T01:17:17Z</time>
  <course>91.28</course>
  <speed>0.68</speed>
  <fix>3d</fix>
</trkpt>
<trkpt lat="33.8103107" lon="-118.3943749">
  <ele>-40.238</ele>
  <time>2026-09-01T01:17:17Z</time>
  <course>96.26</course>
  <speed>0.71</speed>
  <fix>3d</fix>
</trkpt>
<trkpt lat="33.8103105" lon="-118.3943761">
  <ele>-39.29</ele>
  <time>2026-09-01T01:17:17Z</time>
  <course>91.34</course>
  <speed>0.68</speed>
  <fix>3d</fix>
</trkpt>
<trkpt lat="33.8103106" lon="-118.3943742">
  <ele>-40.227</ele>
  <time>2026-09-01T01:17:17Z</time>
  <course>96.17</course>
  <speed>0.71</speed>
  <fix>3d</fix>
</trkpt>
<trkpt lat="33.8103105" lon="-118.3943761">
  <ele>-39.29</ele>
  <time>2026-09-01T01:17:17Z</time>
  <course>91.34</course>
  <speed>0.68</speed>
  <fix>3d</fix>
</trkpt>
<trkpt lat="33.8103106" lon="-118.3943734">
  <ele>-40.216</ele>
  <time>2026-09-01T01:17:17Z</time>
  <course>96.07</course>
  <speed>0.71</speed>
  <fix>3d</fix>
</trkpt>
<trkpt lat="33.8103105" lon="-118.3943746">
  <ele>-39.26</ele>
  <time>2026-09-01T01:17:17Z</time>
  <course>91.37</course>
  <speed>0.69</speed>
  <fix>3d</fix>
</trkpt>
<trkpt lat="33.8103106" lon="-118.3943727">
  <ele>-40.206</ele>
  <time>2026-09-01T01:17:17Z</time>
  <course>95.96</course>
  <speed>0.72</speed>
  <fix>3d</fix>
</trkpt>
<trkpt lat="33.8103105" lon="-118.3943746">
  <ele>-39.26</ele>
  <time>2026-09-01T01:17:17Z</time>
  <course>91.37</course>
  <speed>0.69</speed>
  <fix>3d</fix>
</trkpt>
<trkpt lat="33.8103106" lon="-118.3943719">
  <ele>-40.198</ele>
  <time>2026-09-01T01:17:17Z</time>
  <course>95.84</course>
  <speed>0.72</speed>
  <fix>3d</fix>
</trkpt>
<trkpt lat="33.8103105" lon="-118.3943731">
  <ele>-39.25</ele>
  <time>2026-09-01T01:17:17Z</time>
  <course>91.34</course>
  <speed>0.69</speed>
  <fix>3d</fix>
</trkpt>
<trkpt lat="33.8103106" lon="-118.3943711">
  <ele>-40.19</ele>
  <time>2026-09-01T01:17:17Z</time>
  <course>95.73</course>
  <speed>0.72</speed>
  <fix>3d</fix>
</trkpt>
<trkpt lat="33.8103105" lon="-118.3943731">
  <ele>-39.25</ele>
  <time>2026-09-01T01:17:17Z</time>
  <course>91.34</course>
  <speed>0.69</speed>
  <fix>3d</fix>
</trkpt>
<trkpt lat="33.8103106" lon="-118.3943704">
  <ele>-40.182</ele>
  <time>2026-09-01T01:17:17Z</time>
  <course>95.62</course>
  <speed>0.72</speed>
  <fix>3d</fix>
</trkpt>
<trkpt lat="33.8103105" lon="-118.3943716">
  <ele>-39.23</ele>
  <time>2026-09-01T01:17:17Z</time>
  <course>91.34</course>
  <speed>0.7</speed>
  <fix>3d</fix>
</trkpt>
<trkpt lat="33.8103106" lon="-118.3943696">
  <ele>-40.175</ele>
  <time>2026-09-01T01:17:17Z</time>
  <course>95.52</course>
  <speed>0.72</speed>
  <fix>3d</fix>
</trkpt>
<trkpt lat="33.8103105" lon="-118.3943716">
  <ele>-39.23</ele>
  <time>2026-09-01T01:17:17Z</time>
  <course>91.34</course>
  <speed>0.7</speed>
  <fix>3d</fix>
</trkpt>
<trkpt lat="33.8103106" lon="-118.3943689">
  <ele>-40.168</ele>
  <time>2026-09-01T01:17:17Z</time>
  <course>95.43</course>
  <speed>0.73</speed>
  <fix>3d</fix>
</trkpt>
<trkpt lat="33.8103104" lon="-118.3943701">
  <ele>-39.21</ele>
  <time>2026-09-01T01:17:17Z</time>
  <course>91.36</course>
  <speed>0.7</speed>
  <fix>3d</fix>
</trkpt>
<trkpt lat="33.8103106" lon="-118.3943681">
  <ele>-40.162</ele>
  <time>2026-09-01T01:17:17Z</time>
  <course>95.34</course>
  <speed>0.73</speed>
  <fix>3d</fix>
</trkpt>
<trkpt lat="33.8103104" lon="-118.3943701">
  <ele>-39.21</ele>
  <time>2026-09-01T01:17:17Z</time>
  <course>91.36</course>
  <speed>0.7</speed>
  <fix>3d</fix>
</trkpt>
<trkpt lat="33.8103106" lon="-118.3943673">
  <ele>-40.157</ele>
  <time>2026-09-01T01:17:17Z</time>
  <course>95.23</course>
  <speed>0.73</speed>
  <fix>3d</fix>
</trkpt>
<trkpt lat="33.8103104" lon="-118.3943685">
  <ele>-39.2</ele>
  <time>2026-09-01T01:17:17Z</time>
  <course>91.34</course>
  <speed>0.7</speed>
  <fix>3d</fix>
</trkpt>
<trkpt lat="33.8103106" lon="-118.3943666">
  <ele>-40.153</ele>
  <time>2026-09-01T01:17:17Z</time>
  <course>95.11</course>
  <speed>0.73</speed>
  <fix>3d</fix>
</trkpt>
<trkpt lat="33.8103104" lon="-118.3943685">
  <ele>-39.2</ele>
  <time>2026-09-01T01:17:17Z</time>
  <course>91.34</course>
  <speed>0.7</speed>
  <fix>3d</fix>
</trkpt>
<trkpt lat="33.8103105" lon="-118.3943658">
  <ele>-40.148</ele>
  <time>2026-09-01T01:17:17Z</time>
  <course>95.0</course>
  <speed>0.73</speed>
  <fix>3d</fix>
</trkpt>
<trkpt lat="33.8103104" lon="-118.394367">
  <ele>-39.19</ele>
  <time>2026-09-01T01:17:17Z</time>
  <course>91.28</course>
  <speed>0.71</speed>
  <fix>3d</fix>
</trkpt>
<trkpt lat="33.8103105" lon="-118.394365">
  <ele>-40.143</ele>
  <time>2026-09-01T01:17:17Z</time>
  <course>94.89</course>
  <speed>0.73</speed>
  <fix>3d</fix>
</trkpt>
<trkpt lat="33.8103104" lon="-118.394367">
  <ele>-39.19</ele>
  <time>2026-09-01T01:17:17Z</time>
  <course>91.28</course>
  <speed>0.71</speed>
  <fix>3d</fix>
</trkpt>
<trkpt lat="33.8103105" lon="-118.3943642">
  <ele>-40.138</ele>
  <time>2026-09-01T01:17:17Z</time>
  <course>94.78</course>
  <speed>0.74</speed>
  <fix>3d</fix>
</trkpt>
<trkpt lat="33.8103103" lon="-118.3943655">
  <ele>-39.18</ele>
  <time>2026-09-01T01:17:17Z</time>
  <course>91.24</course>
  <speed>0.71</speed>
  <fix>3d</fix>
</trkpt>
<trkpt lat="33.8103105" lon="-118.3943634">
  <ele>-40.133</ele>
  <time>2026-09-01T01:17:17Z</time>
  <course>94.68</course>
  <speed>0.74</speed>
  <fix>3d</fix>
</trkpt>
<trkpt lat="33.8103103" lon="-118.3943655">
  <ele>-39.18</ele>
  <time>2026-09-01T01:17:17Z</time>
  <course>91.24</course>
  <speed>0.71</speed>
  <fix>3d</fix>
</trkpt>
<trkpt lat="33.8103105" lon="-118.3943627">
  <ele>-40.128</ele>
  <time>2026-09-01T01:17:17Z</time>
  <course>94.56</course>
  <speed>0.74</speed>
  <fix>3d</fix>
</trkpt>
<trkpt lat="33.8103103" lon="-118.3943639">
  <ele>-39.17</ele>
  <time>2026-09-01T01:17:17Z</time>
  <course>91.18</course>
  <speed>0.71</speed>
  <fix>3d</fix>
</trkpt>
<trkpt lat="33.8103105" lon="-118.3943619">
  <ele>-40.123</ele>
  <time>2026-09-01T01:17:17Z</time>
  <course>94.44</course>
  <speed>0.74</speed>
  <fix>3d</fix>
</trkpt>
<trkpt lat="33.8103103" lon="-118.3943639">
  <ele>-39.17</ele>
  <time>2026-09-01T01:17:17Z</time>
  <course>91.18</course>
  <speed>0.71</speed>
  <fix>3d</fix>
</trkpt>
<trkpt lat="33.8103105" lon="-118.3943611">
  <ele>-40.119</ele>
  <time>2026-09-01T01:17:17Z</time>
  <course>94.31</course>
  <speed>0.74</speed>
  <fix>3d</fix>
</trkpt>
<trkpt lat="33.8103103" lon="-118.3943624">
  <ele>-39.16</ele>
  <time>2026-09-01T01:17:17Z</time>
  <course>91.08</course>
  <speed>0.72</speed>
  <fix>3d</fix>
</trkpt>
<trkpt lat="33.8103105" lon="-118.3943603">
  <ele>-40.113</ele>
  <time>2026-09-01T01:17:17Z</time>
  <course>94.19</course>
  <speed>0.750066663703967</speed>
  <fix>3d</fix>
</trkpt>
<trkpt lat="33.8103103" lon="-118.3943624">
  <ele>-39.16</ele>
  <time>2026-09-01T01:17:17Z</time>
  <course>91.08</course>
  <speed>0.72</speed>
  <fix>3d</fix>
</trkpt>
<trkpt lat="33.8103105" lon="-118.3943595">
  <ele>-40.106</ele>
  <time>2026-09-01T01:17:17Z</time>
  <course>94.07</course>
  <speed>0.750066663703967</speed>
  <fix>3d</fix>
</trkpt>
<trkpt lat="33.8103103" lon="-118.3943607">
  <ele>-39.15</ele>
  <time>2026-09-01T01:17:17Z</time>
  <course>91.02</course>
  <speed>0.72</speed>
  <fix>3d</fix>
</trkpt>
<trkpt lat="33.8103105" lon="-118.3943587">
  <ele>-40.096</ele>
  <time>2026-09-01T01:17:17Z</time>
  <course>93.98</course>
  <speed>0.750066663703967</speed>
  <fix>3d</fix>
</trkpt>
<trkpt lat="33.8103103" lon="-118.3943607">
  <ele>-39.15</ele>
  <time>2026-09-01T01:17:17Z</time>
  <course>91.02</course>
  <speed>0.72</speed>
  <fix>3d</fix>
</trkpt>
<trkpt lat="33.8103105" lon="-118.394358">
  <ele>-40.085</ele>
  <time>2026-09-01T01:17:17Z</time>
  <course>93.88</course>
  <speed>0.750066663703967</speed>
  <fix>3d</fix>
</trkpt>
<trkpt lat="33.8103102" lon="-118.3943592">
  <ele>-39.12</ele>
  <time>2026-09-01T01:17:17Z</time>
  <course>91.0</course>
  <speed>0.73</speed>
  <fix>3d</fix>
</trkpt>
<trkpt lat="33.8103104" lon="-118.3943572">
  <ele>-40.073</ele>
  <time>2026-09-01T01:17:17Z</time>
  <course>93.79</course>
  <speed>0.750066663703967</speed>
  <fix>3d</fix>
</trkpt>
<trkpt lat="33.8103102" lon="-118.3943592">
  <ele>-39.12</ele>
  <time>2026-09-01T01:17:17Z</time>
  <course>91.0</course>
  <speed>0.73</speed>
  <fix>3d</fix>
</trkpt>
<trkpt lat="33.8103104" lon="-118.3943564">
  <ele>-40.06</ele>
  <time>2026-09-01T01:17:17Z</time>
  <course>93.69</course>
  <speed>0.750066663703967</speed>
  <fix>3d</fix>
</trkpt>
<trkpt lat="33.8103101" lon="-118.3943576">
  <ele>-39.11</ele>
  <time>2026-09-01T01:17:17Z</time>
  <course>90.95</course>
  <speed>0.73</speed>
  <fix>3d</fix>
</trkpt>
<trkpt lat="33.8103104" lon="-118.3943555">
  <ele>-40.045</ele>
  <time>2026-09-01T01:17:17Z</time>
  <course>93.57</course>
  <speed>0.7600657866263946</speed>
  <fix>3d</fix>
</trkpt>
<trkpt lat="33.8103101" lon="-118.3943576">
  <ele>-39.11</ele>
  <time>2026-09-01T01:17:17Z</time>
  <course>90.95</course>
  <speed>0.73</speed>
  <fix>3d</fix>
</trkpt>
<trkpt lat="33.8103104" lon="-118.3943547">
  <ele>-40.031</ele>
  <time>2026-09-01T01:17:17Z</time>
  <course>93.43</course>
  <speed>0.7600657866263946</speed>
  <fix>3d</fix>
</trkpt>
<trkpt lat="33.8103101" lon="-118.3943561">
  <ele>-39.09</ele>
  <time>2026-09-01T01:17:17Z</time>
  <course>90.79</course>
  <speed>0.73</speed>
  <fix>3d</fix>
</trkpt>
<trkpt lat="33.8103104" lon="-118.3943539">
  <ele>-40.017</ele>
  <time>2026-09-01T01:17:17Z</time>
  <course>93.27</course>
  <speed>0.7600657866263946</speed>
  <fix>3d</fix>
</trkpt>
<trkpt lat="33.8103101" lon="-118.3943561">
  <ele>-39.09</ele>
  <time>2026-09-01T01:17:17Z</time>
  <course>90.79</course>
  <speed>0.73</speed>
  <fix>3d</fix>
</trkpt>
<trkpt lat="33.8103104" lon="-118.3943531">
  <ele>-40.003</ele>
  <time>2026-09-01T01:17:17Z</time>
  <course>93.11</course>
  <speed>0.7600657866263946</speed>
  <fix>3d</fix>
</trkpt>
<trkpt lat="33.8103101" lon="-118.3943545">
  <ele>-39.06</ele>
  <time>2026-09-01T01:17:17Z</time>
  <course>90.56</course>
  <speed>0.74</speed>
  <fix>3d</fix>
</trkpt>
<trkpt lat="33.8103104" lon="-118.3943523">
  <ele>-39.989</ele>
  <time>2026-09-01T01:17:17Z</time>
  <course>92.97</course>
  <speed>0.7600657866263946</speed>
  <fix>3d</fix>
</trkpt>
<trkpt lat="33.8103101" lon="-118.3943545">
  <ele>-39.06</ele>
  <time>2026-09-01T01:17:17Z</time>
  <course>90.56</course>
  <speed>0.74</speed>
  <fix>3d</fix>
</trkpt>
<trkpt lat="33.8103104" lon="-118.3943515">
  <ele>-39.976</ele>
  <time>2026-09-01T01:17:17Z</time>
  <course>92.82</course>
  <speed>0.7700649323271382</speed>
  <fix>3d</fix>
</trkpt>
<trkpt lat="33.8103101" lon="-118.3943529">
  <ele>-39.04</ele>
  <time>2026-09-01T01:17:17Z</time>
  <course>90.38</course>
  <speed>0.74</speed>
  <fix>3d</fix>
</trkpt>
<trkpt lat="33.8103104" lon="-118.3943507">
  <ele>-39.964</ele>
  <time>2026-09-01T01:17:17Z</time>
  <course>92.69</course>
  <speed>0.7700649323271382</speed>
  <fix>3d</fix>
</trkpt>
<trkpt lat="33.8103101" lon="-118.3943529">
  <ele>-39.04</ele>
  <time>2026-09-01T01:17:17Z</time>
  <course>90.38</course>
  <speed>0.74</speed>
  <fix>3d</fix>
</trkpt>
<trkpt lat="33.8103104" lon="-118.3943499">
  <ele>-39.954</ele>
  <time>2026-09-01T01:17:17Z</time>
  <course>92.59</course>
  <speed>0.7700649323271382</speed>
  <fix>3d</fix>
</trkpt>
<trkpt lat="33.8103101" lon="-118.3943512">
  <ele>-39.01</ele>
  <time>2026-09-01T01:17:17Z</time>
  <course>90.28</course>
  <speed>0.75</speed>
  <fix>3d</fix>
</trkpt>
<trkpt lat="33.8103104" lon="-118.3943491">
  <ele>-39.943</ele>
  <time>2026-09-01T01:17:17Z</time>
  <course>92.5</course>
  <speed>0.7700649323271382</speed>
  <fix>3d</fix>
</trkpt>
<trkpt lat="33.8103101" lon="-118.3943512">
  <ele>-39.01</ele>
  <time>2026-09-01T01:17:17Z</time>
  <course>90.28</course>
  <speed>0.75</speed>
  <fix>3d</fix>
</trkpt>
<trkpt lat="33.8103103" lon="-118.3943483">
  <ele>-39.933</ele>
  <time>2026-09-01T01:17:17Z</time>
  <course>92.42</course>
  <speed>0.7700649323271382</speed>
  <fix>3d</fix>
</trkpt>
<trkpt lat="33.8103101" lon="-118.3943496">
  <ele>-38.99</ele>
  <time>2026-09-01T01:17:17Z</time>
  <course>90.24</course>
  <speed>0.75</speed>
  <fix>3d</fix>
</trkpt>
<trkpt lat="33.8103103" lon="-118.3943475">
  <ele>-39.924</ele>
  <time>2026-09-01T01:17:17Z</time>
  <course>92.37</course>
  <speed>0.7800640999302557</speed>
  <fix>3d</fix>
</trkpt>
<trkpt lat="33.8103101" lon="-118.3943496">
  <ele>-38.99</ele>
  <time>2026-09-01T01:17:17Z</time>
  <course>90.24</course>
  <speed>0.75</speed>
  <fix>3d</fix>
</trkpt>
<trkpt lat="33.8103103" lon="-118.3943466">
  <ele>-39.914</ele>
  <time>2026-09-01T01:17:17Z</time>
  <course>92.31</course>
  <speed>0.7800640999302557</speed>
  <fix>3d</fix>
</trkpt>
<trkpt lat="33.8103101" lon="-118.394348">
  <ele>-38.97</ele>
  <time>2026-09-01T01:17:17Z</time>
  <course>90.22</course>
  <speed>0.75</speed>
  <fix>3d</fix>
</trkpt>
<trkpt lat="33.8103103" lon="-118.3943458">
  <ele>-39.906</ele>
  <time>2026-09-01T01:17:17Z</time>
  <course>92.26</course>
  <speed>0.7800640999302557</speed>
  <fix>3d</fix>
</trkpt>
<trkpt lat="33.8103101" lon="-118.394348">
  <ele>-38.97</ele>
  <time>2026-09-01T01:17:17Z</time>
  <course>90.22</course>
  <speed>0.75</speed>
  <fix>3d</fix>
</trkpt>
<trkpt lat="33.8103103" lon="-118.394345">
  <ele>-39.897</ele>
  <time>2026-09-01T01:17:17Z</time>
  <course>92.21</course>
  <speed>0.7800640999302557</speed>
  <fix>3d</fix>
</trkpt>
<trkpt lat="33.8103101" lon="-118.3943463">
  <ele>-38.95</ele>
  <time>2026-09-01T01:17:17Z</time>
  <course>90.24</course>
  <speed>0.76</speed>
  <fix>3d</fix>
</trkpt>
<trkpt lat="33.8103103" lon="-118.3943442">
  <ele>-39.89</ele>
  <time>2026-09-01T01:17:17Z</time>
  <course>92.17</course>
  <speed>0.7800640999302557</speed>
  <fix>3d</fix>
</trkpt>
<trkpt lat="33.8103101" lon="-118.3943463">
  <ele>-38.95</ele>
  <time>2026-09-01T01:17:17Z</time>
  <course>90.24</course>
  <speed>0.76</speed>
  <fix>3d</fix>
</trkpt>
<trkpt lat="33.8103103" lon="-118.3943433">
  <ele>-39.883</ele>
  <time>2026-09-01T01:17:17Z</time>
  <course>92.13</course>
  <speed>0.7800640999302557</speed>
  <fix>3d</fix>
</trkpt>
<trkpt lat="33.8103101" lon="-118.3943446">
  <ele>-38.94</ele>
  <time>2026-09-01T01:17:17Z</time>
  <course>90.27</course>
  <speed>0.76</speed>
  <fix>3d</fix>
</trkpt>
<trkpt lat="33.8103103" lon="-118.3943425">
  <ele>-39.877</ele>
  <time>2026-09-01T01:17:17Z</time>
  <course>92.1</course>
  <speed>0.7900632886041472</speed>
  <fix>3d</fix>
</trkpt>
<trkpt lat="33.8103101" lon="-118.3943446">
  <ele>-38.94</ele>
  <time>2026-09-01T01:17:17Z</time>
  <course>90.27</course>
  <speed>0.76</speed>
  <fix>3d</fix>
</trkpt>
<trkpt lat="33.8103103" lon="-118.3943417">
  <ele>-39.871</ele>
  <time>2026-09-01T01:17:17Z</time>
  <course>92.07</course>
  <speed>0.7900632886041472</speed>
  <fix>3d</fix>
</trkpt>
<trkpt lat="33.81031" lon="-118.394343">
  <ele>-38.92</ele>
  <time>2026-09-01T01:17:17Z</time>
  <course>90.3</course>
  <speed>0.76</speed>
  <fix>3d</fix>
</trkpt>
<trkpt lat="33.8103103" lon="-118.3943409">
  <ele>-39.863</ele>
  <time>2026-09-01T01:17:17Z</time>
  <course>92.03</course>
  <speed>0.7900632886041472</speed>
  <fix>3d</fix>
</trkpt>
<trkpt lat="33.81031" lon="-118.394343">
  <ele>-38.92</ele>
  <time>2026-09-01T01:17:17Z</time>
  <course>90.3</course>
  <speed>0.76</speed>
  <fix>3d</fix>
</trkpt>
<trkpt lat="33.8103103" lon="-118.39434">
  <ele>-39.855</ele>
  <time>2026-09-01T01:17:17Z</time>
  <course>91.96</course>
  <speed>0.7900632886041472</speed>
  <fix>3d</fix>
</trkpt>
<trkpt lat="33.81031" lon="-118.3943413">
  <ele>-38.91</ele>
  <time>2026-09-01T01:17:17Z</time>
  <course>90.27</course>
  <speed>0.77</speed>
  <fix>3d</fix>
</trkpt>
<trkpt lat="33.8103103" lon="-118.3943392">
  <ele>-39.846</ele>
  <time>2026-09-01T01:17:17Z</time>
  <course>91.89</course>
  <speed>0.7900632886041472</speed>
  <fix>3d</fix>
</trkpt>
<trkpt lat="33.81031" lon="-118.3943413">
  <ele>-38.91</ele>
  <time>2026-09-01T01:17:17Z</time>
  <course>90.27</course>
  <speed>0.77</speed>
  <fix>3d</fix>
</trkpt>
<trkpt lat="33.8103103" lon="-118.3943383">
  <ele>-39.837</ele>
  <time>2026-09-01T01:17:17Z</time>
  <course>91.81</course>
  <speed>0.7900632886041472</speed>
  <fix>3d</fix>
</trkpt>
<trkpt lat="33.81031" lon="-118.3943396">
  <ele>-38.89</ele>
  <time>2026-09-01T01:17:17Z</time>
  <course>90.19</course>
  <speed>0.77</speed>
  <fix>3d</fix>
</trkpt>
<trkpt lat="33.8103103" lon="-118.3943375">
  <ele>-39.828</ele>
  <time>2026-09-01T01:17:17Z</time>
  <course>91.73</course>
  <speed>0.7902531240052139</speed>
  <fix>3d</fix>
</trkpt>
<trkpt lat="33.81031" lon="-118.3943396">
  <ele>-38.89</ele>
  <time>2026-09-01T01:17:17Z</time>
  <course>90.19</course>
  <speed>0.77</speed>
  <fix>3d</fix>
</trkpt>
<trkpt lat="33.8103103" lon="-118.3943366">
  <ele>-39.82</ele>
  <time>2026-09-01T01:17:17Z</time>
  <course>91.65</course>
  <speed>0.7902531240052139</speed>
  <fix>3d</fix>
</trkpt>
<trkpt lat="33.81031" lon="-118.3943379">
  <ele>-38.87</ele>
  <time>2026-09-01T01:17:17Z</time>
  <course>90.1</course>
  <speed>0.77</speed>
  <fix>3d</fix>
</trkpt>
<trkpt lat="33.8103103" lon="-118.3943358">
  <ele>-39.812</ele>
  <time>2026-09-01T01:17:17Z</time>
  <course>91.59</course>
  <speed>0.8002499609497022</speed>
  <fix>3d</fix>
</trkpt>
<trkpt lat="33.81031" lon="-118.3943379">
  <ele>-38.87</ele>
  <time>2026-09-01T01:17:17Z</time>
  <course>90.1</course>
  <speed>0.77</speed>
  <fix>3d</fix>
</trkpt>
<trkpt lat="33.8103103" lon="-118.3943349">
  <ele>-39.805</ele>
  <time>2026-09-01T01:17:17Z</time>
  <course>91.53</course>
  <speed>0.8002499609497022</speed>
  <fix>3d</fix>
</trkpt>
<trkpt lat="33.81031" lon="-118.3943363">
  <ele>-38.86</ele>
  <time>2026-09-01T01:17:17Z</time>
  <course>90.03</course>
  <speed>0.77</speed>
  <fix>3d</fix>
</trkpt>
<trkpt lat="33.8103103" lon="-118.3943341">
  <ele>-39.797</ele>
  <time>2026-09-01T01:17:17Z</time>
  <course>91.47</course>
  <speed>0.8002499609497022</speed>
  <fix>3d</fix>
</trkpt>
<trkpt lat="33.81031" lon="-118.3943363">
  <ele>-38.86</ele>
  <time>2026-09-01T01:17:17Z</time>
  <course>90.03</course>
  <speed>0.77</speed>
  <fix>3d</fix>
</trkpt>
<trkpt lat="33.8103103" lon="-118.3943332">
  <ele>-39.79</ele>
  <time>2026-09-01T01:17:17Z</time>
  <course>91.42</course>
  <speed>0.8002499609497022</speed>
  <fix>3d</fix>
</trkpt>
<trkpt lat="33.81031" lon="-118.3943346">
  <ele>-38.85</ele>
  <time>2026-09-01T01:17:17Z</time>
  <course>90.02</course>
  <speed>0.78</speed>
  <fix>3d</fix>
</trkpt>
<trkpt lat="33.8103103" lon="-118.3943324">
  <ele>-39.782</ele>
  <time>2026-09-01T01:17:17Z</time>
  <course>91.38</course>
  <speed>0.8002499609497022</speed>
  <fix>3d</fix>
</trkpt>
<trkpt lat="33.81031" lon="-118.3943346">
  <ele>-38.85</ele>
  <time>2026-09-01T01:17:17Z</time>
  <course>90.02</course>
  <speed>0.78</speed>
  <fix>3d</fix>
</trkpt>
<trkpt lat="33.8103103" lon="-118.3943315">
  <ele>-39.774</ele>
  <time>2026-09-01T01:17:17Z</time>
  <course>91.34</course>
  <speed>0.8000624975587844</speed>
  <fix>3d</fix>
</trkpt>
<trkpt lat="33.81031" lon="-118.3943329">
  <ele>-38.83</ele>
  <time>2026-09-01T01:17:17Z</time>
  <course>90.02</course>
  <speed>0.78</speed>
  <fix>3d</fix>
</trkpt>
<trkpt lat="33.8103103" lon="-118.3943307">
  <ele>-39.764</ele>
  <time>2026-09-01T01:17:17Z</time>
  <course>91.31</course>
  <speed>0.8102468759581859</speed>
  <fix>3d</fix>
</trkpt>
<trkpt lat="33.81031" lon="-118.3943329">
  <ele>-38.83</ele>
  <time>2026-09-01T01:17:17Z</time>
  <course>90.02</course>
  <speed>0.78</speed>
  <fix>3d</fix>
</trkpt>
<trkpt lat="33.8103102" lon="-118.3943298">
  <ele>-39.754</ele>
  <time>2026-09-01T01:17:17Z</time>
  <course>91.28</course>
  <speed>0.8100617260431454</speed>
  <fix>3d</fix>
</trkpt>
<trkpt lat="33.81031" lon="-118.3943312">
  <ele>-38.8</ele>
  <time>2026-09-01T01:17:17Z</time>
  <course>90.04</course>
  <speed>0.78</speed>
  <fix>3d</fix>
</trkpt>
<trkpt lat="33.8103102" lon="-118.394329">
  <ele>-39.743</ele>
  <time>2026-09-01T01:17:17Z</time>
  <course>91.25</course>
  <speed>0.8102468759581859</speed>
  <fix>3d</fix>
</trkpt>
<trkpt lat="33.81031" lon="-118.3943312">
  <ele>-38.8</ele>
  <time>2026-09-01T01:17:17Z</time>
  <course>90.04</course>
  <speed>0.78</speed>
  <fix>3d</fix>
</trkpt>
<trkpt lat="33.8103102" lon="-118.3943281">
  <ele>-39.732</ele>
  <time>2026-09-01T01:17:17Z</time>
  <course>91.22</course>
  <speed>0.8100617260431454</speed>
  <fix>3d</fix>
</trkpt>
<trkpt lat="33.81031" lon="-118.3943295">
  <ele>-38.79</ele>
  <time>2026-09-01T01:17:17Z</time>
  <course>90.06</course>
  <speed>0.79</speed>
  <fix>3d</fix>
</trkpt>
<trkpt lat="33.8103102" lon="-118.3943273">
  <ele>-39.72</ele>
  <time>2026-09-01T01:17:17Z</time>
  <course>91.2</course>
  <speed>0.8100617260431454</speed>
  <fix>3d</fix>
</trkpt>
<trkpt lat="33.81031" lon="-118.3943295">
  <ele>-38.79</ele>
  <time>2026-09-01T01:17:17Z</time>
  <course>90.06</course>
  <speed>0.79</speed>
  <fix>3d</fix>
</trkpt>
<trkpt lat="33.8103102" lon="-118.3943264">
  <ele>-39.707</ele>
  <time>2026-09-01T01:17:17Z</time>
  <course>91.17</course>
  <speed>0.8100617260431454</speed>
  <fix>3d</fix>
</trkpt>
<trkpt lat="33.81031" lon="-118.3943277">
  <ele>-38.76</ele>
  <time>2026-09-01T01:17:17Z</time>
  <course>90.09</course>
  <speed>0.79</speed>
  <fix>3d</fix>
</trkpt>
<trkpt lat="33.8103102" lon="-118.3943255">
  <ele>-39.693</ele>
  <time>2026-09-01T01:17:17Z</time>
  <course>91.15</course>
  <speed>0.8100617260431454</speed>
  <fix>3d</fix>
</trkpt>
<trkpt lat="33.81031" lon="-118.3943277">
  <ele>-38.76</ele>
  <time>2026-09-01T01:17:17Z</time>
  <course>90.09</course>
  <speed>0.79</speed>
  <fix>3d</fix>
</trkpt>
<trkpt lat="33.8103102" lon="-118.3943247">
  <ele>-39.679</ele>
  <time>2026-09-01T01:17:17Z</time>
  <course>91.12</course>
  <speed>0.8200609733428362</speed>
  <fix>3d</fix>
</trkpt>
<trkpt lat="33.81031" lon="-118.394326">
  <ele>-38.74</ele>
  <time>2026-09-01T01:17:17Z</time>
  <course>90.12</course>
  <speed>0.79</speed>
  <fix>3d</fix>
</trkpt>
<trkpt lat="33.8103102" lon="-118.3943238">
  <ele>-39.665</ele>
  <time>2026-09-01T01:17:17Z</time>
  <course>91.1</course>
  <speed>0.8200609733428362</speed>
  <fix>3d</fix>
</trkpt>
<trkpt lat="33.81031" lon="-118.394326">
  <ele>-38.74</ele>
  <time>2026-09-01T01:17:17Z</time>
  <course>90.12</course>
  <speed>0.79</speed>
  <fix>3d</fix>
</trkpt>
<trkpt lat="33.8103102" lon="-118.3943229">
  <ele>-39.652</ele>
  <time>2026-09-01T01:17:17Z</time>
  <course>91.08</course>
  <speed>0.8200609733428362</speed>
  <fix>3d</fix>
</trkpt>
<trkpt lat="33.81031" lon="-118.3943243">
  <ele>-38.72</ele>
  <time>2026-09-01T01:17:17Z</time>
  <course>90.15</course>
  <speed>0.8</speed>
  <fix>3d</fix>
</trkpt>
<trkpt lat="33.8103102" lon="-118.3943221">
  <ele>-39.64</ele>
  <time>2026-09-01T01:17:17Z</time>
  <course>91.06</course>
  <speed>0.8200609733428362</speed>
  <fix>3d</fix>
</trkpt>
<trkpt lat="33.81031" lon="-118.3943243">
  <ele>-38.72</ele>
  <time>2026-09-01T01:17:17Z</time>
  <course>90.15</course>
  <speed>0.8</speed>
  <fix>3d</fix>
</trkpt>
<trkpt lat="33.8103102" lon="-118.3943212">
  <ele>-39.628</ele>
  <time>2026-09-01T01:17:17Z</time>
  <course>91.04</course>
  <speed>0.8200609733428362</speed>
  <fix>3d</fix>
</trkpt>
<trkpt lat="33.81031" lon="-118.3943226">
  <ele>-38.69</ele>
  <time>2026-09-01T01:17:18Z</time>
  <course>90.17</course>
  <speed>0.8</speed>
  <fix>3d</fix>
</trkpt>
<trkpt lat="33.8103102" lon="-118.3943203">
  <ele>-39.618</ele>
  <time>2026-09-01T01:17:18Z</time>
  <course>91.02</course>
  <speed>0.8200609733428362</speed>
  <fix>3d</fix>
</trkpt>
<trkpt lat="33.81031" lon="-118.3943226">
  <ele>-38.69</ele>
  <time>2026-09-01T01:17:18Z</time>
  <course>90.17</course>
  <speed>0.8</speed>
  <fix>3d</fix>
</trkpt>
<trkpt lat="33.8103102" lon="-118.3943194">
  <ele>-39.607</ele>
  <time>2026-09-01T01:17:18Z</time>
  <course>90.99</course>
  <speed>0.8200609733428362</speed>
  <fix>3d</fix>
</trkpt>
<trkpt lat="33.81031" lon="-118.3943208">
  <ele>-38.67</ele>
  <time>2026-09-01T01:17:18Z</time>
  <course>90.21</course>
  <speed>0.8</speed>
  <fix>3d</fix>
</trkpt>
<trkpt lat="33.8103102" lon="-118.3943185">
  <ele>-39.598</ele>
  <time>2026-09-01T01:17:18Z</time>
  <course>90.98</course>
  <speed>0.8300602387778854</speed>
  <fix>3d</fix>
</trkpt>
<trkpt lat="33.81031" lon="-118.3943208">
  <ele>-38.67</ele>
  <time>2026-09-01T01:17:18Z</time>
  <course>90.21</course>
  <speed>0.8</speed>
  <fix>3d</fix>
</trkpt>
<trkpt lat="33.8103102" lon="-118.3943177">
  <ele>-39.588</ele>
  <time>2026-09-01T01:17:18Z</time>
  <course>90.95</course>
  <speed>0.8300602387778854</speed>
  <fix>3d</fix>
</trkpt>
<trkpt lat="33.81031" lon="-118.3943191">
  <ele>-38.65</ele>
  <time>2026-09-01T01:17:18Z</time>
  <course>90.24</course>
  <speed>0.81</speed>
  <fix>3d</fix>
</trkpt>
<trkpt lat="33.8103102" lon="-118.3943168">
  <ele>-39.577</ele>
  <time>2026-09-01T01:17:18Z</time>
  <course>90.94</course>
  <speed>0.8300602387778854</speed>
  <fix>3d</fix>
</trkpt>
<trkpt lat="33.81031" lon="-118.3943191">
  <ele>-38.65</ele>
  <time>2026-09-01T01:17:18Z</time>
  <course>90.24</course>
  <speed>0.81</speed>
  <fix>3d</fix>
</trkpt>
<trkpt lat="33.8103102" lon="-118.3943159">
  <ele>-39.567</ele>
  <time>2026-09-01T01:17:18Z</time>
  <course>90.92</course>
  <speed>0.8300602387778854</speed>
  <fix>3d</fix>
</trkpt>
<trkpt lat="33.81031" lon="-118.3943173">
  <ele>-38.62</ele>
  <time>2026-09-01T01:17:18Z</time>
  <course>90.27</course>
  <speed>0.81</speed>
  <fix>3d</fix>
</trkpt>
<trkpt lat="33.8103102" lon="-118.394315">
  <ele>-39.556</ele>
  <time>2026-09-01T01:17:18Z</time>
  <course>90.89</course>
  <speed>0.8300602387778854</speed>
  <fix>3d</fix>
</trkpt>
<trkpt lat="33.81031" lon="-118.3943173">
  <ele>-38.62</ele>
  <time>2026-09-01T01:17:18Z</time>
  <course>90.27</course>
  <speed>0.81</speed>
  <fix>3d</fix>
</trkpt>
<trkpt lat="33.8103102" lon="-118.3943141">
  <ele>-39.547</ele>
  <time>2026-09-01T01:17:18Z</time>
  <course>90.87</course>
  <speed>0.8300602387778854</speed>
  <fix>3d</fix>
</trkpt>
<trkpt lat="33.81031" lon="-118.3943156">
  <ele>-38.61</ele>
  <time>2026-09-01T01:17:18Z</time>
  <course>90.32</course>
  <speed>0.81</speed>
  <fix>3d</fix>
</trkpt>
<trkpt lat="33.8103102" lon="-118.3943133">
  <ele>-39.538</ele>
  <time>2026-09-01T01:17:18Z</time>
  <course>90.85</course>
  <speed>0.8400595217006948</speed>
  <fix>3d</fix>
</trkpt>
<trkpt lat="33.81031" lon="-118.3943156">
  <ele>-38.61</ele>
  <time>2026-09-01T01:17:18Z</time>
  <course>90.32</course>
  <speed>0.81</speed>
  <fix>3d</fix>
</trkpt>
<trkpt lat="33.8103102" lon="-118.3943124">
  <ele>-39.531</ele>
  <time>2026-09-01T01:17:18Z</time>
  <course>90.84</course>
  <speed>0.8400595217006948</speed>
  <fix>3d</fix>
</trkpt>
<trkpt lat="33.81031" lon="-118.3943138">
  <ele>-38.59</ele>
  <time>2026-09-01T01:17:18Z</time>
  <course>90.36</course>
  <speed>0.82</speed>
  <fix>3d</fix>
</trkpt>
<trkpt lat="33.8103102" lon="-118.3943115">
  <ele>-39.524</ele>
  <time>2026-09-01T01:17:18Z</time>
  <course>90.82</course>
  <speed>0.8400595217006948</speed>
  <fix>3d</fix>
</trkpt>
<trkpt lat="33.81031" lon="-118.3943138">
  <ele>-38.59</ele>
  <time>2026-09-01T01:17:18Z</time>
  <course>90.36</course>
  <speed>0.82</speed>
  <fix>3d</fix>
</trkpt>
<trkpt lat="33.8103102" lon="-118.3943106">
  <ele>-39.517</ele>
  <time>2026-09-01T01:17:18Z</time>
  <course>90.8</course>
  <speed>0.8400595217006948</speed>
  <fix>3d</fix>
</trkpt>
<trkpt lat="33.81031" lon="-118.3943119">
  <ele>-38.58</ele>
  <time>2026-09-01T01:17:18Z</time>
  <course>90.39</course>
  <speed>0.82</speed>
  <fix>3d</fix>
</trkpt>
<trkpt lat="33.8103102" lon="-118.3943097">
  <ele>-39.511</ele>
  <time>2026-09-01T01:17:18Z</time>
  <course>90.78</course>
  <speed>0.8400595217006948</speed>
  <fix>3d</fix>
</trkpt>
<trkpt lat="33.81031" lon="-118.3943119">
  <ele>-38.58</ele>
  <time>2026-09-01T01:17:18Z</time>
  <course>90.39</course>
  <speed>0.82</speed>
  <fix>3d</fix>
</trkpt>
<trkpt lat="33.8103102" lon="-118.3943088">
  <ele>-39.504</ele>
  <time>2026-09-01T01:17:18Z</time>
  <course>90.77</course>
  <speed>0.8400595217006948</speed>
  <fix>3d</fix>
</trkpt>
<trkpt lat="33.81031" lon="-118.3943102">
  <ele>-38.55</ele>
  <time>2026-09-01T01:17:18Z</time>
  <course>90.42</course>
  <speed>0.82</speed>
  <fix>3d</fix>
</trkpt>
<trkpt lat="33.8103102" lon="-118.3943079">
  <ele>-39.496</ele>
  <time>2026-09-01T01:17:18Z</time>
  <course>90.75</course>
  <speed>0.8400595217006948</speed>
  <fix>3d</fix>
</trkpt>
<trkpt lat="33.81031" lon="-118.3943102">
  <ele>-38.55</ele>
  <time>2026-09-01T01:17:18Z</time>
  <course>90.42</course>
  <speed>0.82</speed>
  <fix>3d</fix>
</trkpt>
<trkpt lat="33.8103102" lon="-118.394307">
  <ele>-39.489</ele>
  <time>2026-09-01T01:17:18Z</time>
  <course>90.73</course>
  <speed>0.8400595217006948</speed>
  <fix>3d</fix>
</trkpt>
<trkpt lat="33.81031" lon="-118.3943084">
  <ele>-38.54</ele>
  <time>2026-09-01T01:17:18Z</time>
  <course>90.46</course>
  <speed>0.82</speed>
  <fix>3d</fix>
</trkpt>
<trkpt lat="33.8103102" lon="-118.3943061">
  <ele>-39.48</ele>
  <time>2026-09-01T01:17:18Z</time>
  <course>90.72</course>
  <speed>0.8500588214941364</speed>
  <fix>3d</fix>
</trkpt>
<trkpt lat="33.81031" lon="-118.3943084">
  <ele>-38.54</ele>
  <time>2026-09-01T01:17:18Z</time>
  <course>90.46</course>
  <speed>0.82</speed>
  <fix>3d</fix>
</trkpt>
<trkpt lat="33.8103102" lon="-118.3943052">
  <ele>-39.471</ele>
  <time>2026-09-01T01:17:18Z</time>
  <course>90.69</course>
  <speed>0.8500588214941364</speed>
  <fix>3d</fix>
</trkpt>
<trkpt lat="33.81031" lon="-118.3943066">
  <ele>-38.53</ele>
  <time>2026-09-01T01:17:18Z</time>
  <course>90.5</course>
  <speed>0.83</speed>
  <fix>3d</fix>
</trkpt>
<trkpt lat="33.8103102" lon="-118.3943043">
  <ele>-39.463</ele>
  <time>2026-09-01T01:17:18Z</time>
  <course>90.67</course>
  <speed>0.8500588214941364</speed>
  <fix>3d</fix>
</trkpt>
<trkpt lat="33.81031" lon="-118.3943066">
  <ele>-38.53</ele>
  <time>2026-09-01T01:17:18Z</time>
  <course>90.5</course>
  <speed>0.83</speed>
  <fix>3d</fix>
</trkpt>
<trkpt lat="33.8103102" lon="-118.3943034">
  <ele>-39.455</ele>
  <time>2026-09-01T01:17:18Z</time>
  <course>90.65</course>
  <speed>0.8500588214941364</speed>
  <fix>3d</fix>
</trkpt>
<trkpt lat="33.81031" lon="-118.3943047">
  <ele>-38.51</ele>
  <time>2026-09-01T01:17:18Z</time>
  <course>90.54</course>
  <speed>0.83</speed>
  <fix>3d</fix>
</trkpt>
<trkpt lat="33.8103102" lon="-118.3943025">
  <ele>-39.446</ele>
  <time>2026-09-01T01:17:18Z</time>
  <course>90.64</course>
  <speed>0.8500588214941364</speed>
  <fix>3d</fix>
</trkpt>
<trkpt lat="33.81031" lon="-118.3943047">
  <ele>-38.51</ele>
  <time>2026-09-01T01:17:18Z</time>
  <course>90.54</course>
  <speed>0.83</speed>
  <fix>3d</fix>
</trkpt>
<trkpt lat="33.8103102" lon="-118.3943016">
  <ele>-39.437</ele>
  <time>2026-09-01T01:17:18Z</time>
  <course>90.63</course>
  <speed>0.8500588214941364</speed>
  <fix>3d</fix>
</trkpt>
<trkpt lat="33.81031" lon="-118.394303">
  <ele>-38.5</ele>
  <time>2026-09-01T01:17:18Z</time>
  <course>90.58</course>
  <speed>0.83</speed>
  <fix>3d</fix>
</trkpt>
<trkpt lat="33.8103102" lon="-118.3943006">
  <ele>-39.427</ele>
  <time>2026-09-01T01:17:18Z</time>
  <course>90.61</course>
  <speed>0.8500588214941364</speed>
  <fix>3d</fix>
</trkpt>
<trkpt lat="33.81031" lon="-118.394303">
  <ele>-38.5</ele>
  <time>2026-09-01T01:17:18Z</time>
  <course>90.58</course>
  <speed>0.83</speed>
  <fix>3d</fix>
</trkpt>
<trkpt lat="33.8103102" lon="-118.3942997">
  <ele>-39.417</ele>
  <time>2026-09-01T01:17:18Z</time>
  <course>90.59</course>
  <speed>0.8500588214941364</speed>
  <fix>3d</fix>
</trkpt>
<trkpt lat="33.81031" lon="-118.3943012">
  <ele>-38.48</ele>
  <time>2026-09-01T01:17:18Z</time>
  <course>90.61</course>
  <speed>0.83</speed>
  <fix>3d</fix>
</trkpt>
<trkpt lat="33.8103102" lon="-118.3942988">
  <ele>-39.405</ele>
  <time>2026-09-01T01:17:18Z</time>
  <course>90.58</course>
  <speed>0.8500588214941364</speed>
  <fix>3d</fix>
</trkpt>
<trkpt lat="33.81031" lon="-118.3943012">
  <ele>-38.48</ele>
  <time>2026-09-01T01:17:18Z</time>
  <course>90.61</course>
  <speed>0.83</speed>
  <fix>3d</fix>
</trkpt>
<trkpt lat="33.8103102" lon="-118.3942979">
  <ele>-39.392</ele>
  <time>2026-09-01T01:17:18Z</time>
  <course>90.56</course>
  <speed>0.8600581375697809</speed>
  <fix>3d</fix>
</trkpt>
<trkpt lat="33.81031" lon="-118.3942994">
  <ele>-38.45</ele>
  <time>2026-09-01T01:17:18Z</time>
  <course>90.66</course>
  <speed>0.83</speed>
  <fix>3d</fix>
</trkpt>
<trkpt lat="33.8103102" lon="-118.394297">
  <ele>-39.379</ele>
  <time>2026-09-01T01:17:18Z</time>
  <course>90.54</course>
  <speed>0.8600581375697809</speed>
  <fix>3d</fix>
</trkpt>
<trkpt lat="33.81031" lon="-118.3942994">
  <ele>-38.45</ele>
  <time>2026-09-01T01:17:18Z</time>
  <course>90.66</course>
  <speed>0.83</speed>
  <fix>3d</fix>
</trkpt>
<trkpt lat="33.8103102" lon="-118.3942961">
  <ele>-39.365</ele>
  <time>2026-09-01T01:17:18Z</time>
  <course>90.52</course>
  <speed>0.8600581375697809</speed>
  <fix>3d</fix>
</trkpt>
<trkpt lat="33.8103099" lon="-118.3942975">
  <ele>-38.43</ele>
  <time>2026-09-01T01:17:18Z</time>
  <course>90.71</course>
  <speed>0.84</speed>
  <fix>3d</fix>
</trkpt>
<trkpt lat="33.8103102" lon="-118.3942952">
  <ele>-39.352</ele>
  <time>2026-09-01T01:17:18Z</time>
  <course>90.49</course>
  <speed>0.8600581375697809</speed>
  <fix>3d</fix>
</trkpt>
<trkpt lat="33.8103099" lon="-118.3942975">
  <ele>-38.43</ele>
  <time>2026-09-01T01:17:18Z</time>
  <course>90.71</course>
  <speed>0.84</speed>
  <fix>3d</fix>
</trkpt>
<trkpt lat="33.8103101" lon="-118.3942943">
  <ele>-39.339</ele>
  <time>2026-09-01T01:17:18Z</time>
  <course>90.44</course>
  <speed>0.8600581375697809</speed>
  <fix>3d</fix>
</trkpt>
<trkpt lat="33.8103099" lon="-118.3942958">
  <ele>-38.4</ele>
  <time>2026-09-01T01:17:18Z</time>
  <course>90.7</course>
  <speed>0.84</speed>
  <fix>3d</fix>
</trkpt>
<trkpt lat="33.8103101" lon="-118.3942933">
  <ele>-39.327</ele>
  <time>2026-09-01T01:17:18Z</time>
  <course>90.38</course>
  <speed>0.8600581375697809</speed>
  <fix>3d</fix>
</trkpt>
<trkpt lat="33.8103099" lon="-118.3942958">
  <ele>-38.4</ele>
  <time>2026-09-01T01:17:18Z</time>
  <course>90.7</course>
  <speed>0.84</speed>
  <fix>3d</fix>
</trkpt>
<trkpt lat="33.8103101" lon="-118.3942924">
  <ele>-39.315</ele>
  <time>2026-09-01T01:17:18Z</time>
  <course>90.31</course>
  <speed>0.8600581375697809</speed>
  <fix>3d</fix>
</trkpt>
<trkpt lat="33.8103099" lon="-118.3942939">
  <ele>-38.37</ele>
  <time>2026-09-01T01:17:18Z</time>
  <course>90.62</course>
  <speed>0.84</speed>
  <fix>3d</fix>
</trkpt>
<trkpt lat="33.8103101" lon="-118.3942915">
  <ele>-39.303</ele>
  <time>2026-09-01T01:17:18Z</time>
  <course>90.24</course>
  <speed>0.8700574693662483</speed>
  <fix>3d</fix>
</trkpt>
<trkpt lat="33.8103099" lon="-118.3942939">
  <ele>-38.37</ele>
  <time>2026-09-01T01:17:18Z</time>
  <course>90.62</course>
  <speed>0.84</speed>
  <fix>3d</fix>
</trkpt>
<trkpt lat="33.8103101" lon="-118.3942906">
  <ele>-39.29</ele>
  <time>2026-09-01T01:17:18Z</time>
  <course>90.17</course>
  <speed>0.8700574693662483</speed>
  <fix>3d</fix>
</trkpt>
<trkpt lat="33.8103099" lon="-118.3942921">
  <ele>-38.35</ele>
  <time>2026-09-01T01:17:18Z</time>
  <course>90.53</course>
  <speed>0.85</speed>
  <fix>3d</fix>
</trkpt>
<trkpt lat="33.8103101" lon="-118.3942897">
  <ele>-39.278</ele>
  <time>2026-09-01T01:17:18Z</time>
  <course>90.11</course>
  <speed>0.8700574693662483</speed>
  <fix>3d</fix>
</trkpt>
<trkpt lat="33.8103099" lon="-118.3942921">
  <ele>-38.35</ele>
  <time>2026-09-01T01:17:18Z</time>
  <course>90.53</course>
  <speed>0.85</speed>
  <fix>3d</fix>
</trkpt>
<trkpt lat="33.8103101" lon="-118.3942887">
  <ele>-39.264</ele>
  <time>2026-09-01T01:17:18Z</time>
  <course>90.05</course>
  <speed>0.8700574693662483</speed>
  <fix>3d</fix>
</trkpt>
<trkpt lat="33.8103099" lon="-118.3942902">
  <ele>-38.33</ele>
  <time>2026-09-01T01:17:18Z</time>
  <course>90.48</course>
  <speed>0.85</speed>
  <fix>3d</fix>
</trkpt>
<trkpt lat="33.8103101" lon="-118.3942878">
  <ele>-39.251</ele>
  <time>2026-09-01T01:17:18Z</time>
  <course>90.01</course>
  <speed>0.8702298546935746</speed>
  <fix>3d</fix>
</trkpt>
<trkpt lat="33.8103099" lon="-118.3942902">
  <ele>-38.33</ele>
  <time>2026-09-01T01:17:18Z</time>
  <course>90.48</course>
  <speed>0.85</speed>
  <fix>3d</fix>
</trkpt>
<trkpt lat="33.8103101" lon="-118.3942869">
  <ele>-39.238</ele>
  <time>2026-09-01T01:17:18Z</time>
  <course>89.97</course>
  <speed>0.8700574693662483</speed>
  <fix>3d</fix>
</trkpt>
<trkpt lat="33.8103099" lon="-118.3942884">
  <ele>-38.3</ele>
  <time>2026-09-01T01:17:18Z</time>
  <course>90.46</course>
  <speed>0.85</speed>
  <fix>3d</fix>
</trkpt>
<trkpt lat="33.8103101" lon="-118.394286">
  <ele>-39.225</ele>
  <time>2026-09-01T01:17:18Z</time>
  <course>89.93</course>
  <speed>0.8702298546935746</speed>
  <fix>3d</fix>
</trkpt>
<trkpt lat="33.8103099" lon="-118.3942884">
  <ele>-38.3</ele>
  <time>2026-09-01T01:17:18Z</time>
  <course>90.46</course>
  <speed>0.85</speed>
  <fix>3d</fix>
</trkpt>
<trkpt lat="33.8103101" lon="-118.394285">
  <ele>-39.213</ele>
  <time>2026-09-01T01:17:18Z</time>
  <course>89.9</course>
  <speed>0.8700574693662483</speed>
  <fix>3d</fix>
</trkpt>
<trkpt lat="33.8103099" lon="-118.3942865">
  <ele>-38.29</ele>
  <time>2026-09-01T01:17:18Z</time>
  <course>90.46</course>
  <speed>0.86</speed>
  <fix>3d</fix>
</trkpt>
<trkpt lat="33.8103101" lon="-118.3942841">
  <ele>-39.2</ele>
  <time>2026-09-01T01:17:18Z</time>
  <course>89.88</course>
  <speed>0.880056816347672</speed>
  <fix>3d</fix>
</trkpt>
<trkpt lat="33.8103099" lon="-118.3942865">
  <ele>-38.29</ele>
  <time>2026-09-01T01:17:18Z</time>
  <course>90.46</course>
  <speed>0.86</speed>
  <fix>3d</fix>
</trkpt>
<trkpt lat="33.8103101" lon="-118.3942832">
  <ele>-39.188</ele>
  <time>2026-09-01T01:17:18Z</time>
  <course>89.86</course>
  <speed>0.880056816347672</speed>
  <fix>3d</fix>
</trkpt>
<trkpt lat="33.8103098" lon="-118.3942846">
  <ele>-38.26</ele>
  <time>2026-09-01T01:17:18Z</time>
  <course>90.47</course>
  <speed>0.86</speed>
  <fix>3d</fix>
</trkpt>
<trkpt lat="33.8103101" lon="-118.3942822">
  <ele>-39.178</ele>
  <time>2026-09-01T01:17:18Z</time>
  <course>89.83</course>
  <speed>0.8802272433866155</speed>
  <fix>3d</fix>
</trkpt>
<trkpt lat="33.8103098" lon="-118.3942846">
  <ele>-38.26</ele>
  <time>2026-09-01T01:17:18Z</time>
  <course>90.47</course>
  <speed>0.86</speed>
  <fix>3d</fix>
</trkpt>
<trkpt lat="33.8103101" lon="-118.3942813">
  <ele>-39.169</ele>
  <time>2026-09-01T01:17:18Z</time>
  <course>89.78</course>
  <speed>0.8802272433866155</speed>
  <fix>3d</fix>
</trkpt>
<trkpt lat="33.8103098" lon="-118.3942827">
  <ele>-38.25</ele>
  <time>2026-09-01T01:17:18Z</time>
  <course>90.42</course>
  <speed>0.86</speed>
  <fix>3d</fix>
</trkpt>
<trkpt lat="33.8103101" lon="-118.3942803">
  <ele>-39.161</ele>
  <time>2026-09-01T01:17:18Z</time>
  <course>89.72</course>
  <speed>0.8802272433866155</speed>
  <fix>3d</fix>
</trkpt>
<trkpt lat="33.8103098" lon="-118.3942827">
  <ele>-38.25</ele>
  <time>2026-09-01T01:17:18Z</time>
  <course>90.42</course>
  <speed>0.86</speed>
  <fix>3d</fix>
</trkpt>
<trkpt lat="33.8103101" lon="-118.3942794">
  <ele>-39.153</ele>
  <time>2026-09-01T01:17:18Z</time>
  <course>89.64</course>
  <speed>0.8802272433866155</speed>
  <fix>3d</fix>
</trkpt>
<trkpt lat="33.8103098" lon="-118.3942809">
  <ele>-38.23</ele>
  <time>2026-09-01T01:17:18Z</time>
  <course>90.3</course>
  <speed>0.86</speed>
  <fix>3d</fix>
</trkpt>
<trkpt lat="33.8103101" lon="-118.3942785">
  <ele>-39.145</ele>
  <time>2026-09-01T01:17:18Z</time>
  <course>89.58</course>
  <speed>0.8802272433866155</speed>
  <fix>3d</fix>
</trkpt>
<trkpt lat="33.8103098" lon="-118.3942809">
  <ele>-38.23</ele>
  <time>2026-09-01T01:17:18Z</time>
  <course>90.3</course>
  <speed>0.86</speed>
  <fix>3d</fix>
</trkpt>
<trkpt lat="33.8103101" lon="-118.3942775">
  <ele>-39.137</ele>
  <time>2026-09-01T01:17:18Z</time>
  <course>89.52</course>
  <speed>0.8802272433866155</speed>
  <fix>3d</fix>
</trkpt>
<trkpt lat="33.8103098" lon="-118.394279">
  <ele>-38.21</ele>
  <time>2026-09-01T01:17:18Z</time>
  <course>90.19</course>
  <speed>0.86</speed>
  <fix>3d</fix>
</trkpt>
<trkpt lat="33.8103101" lon="-118.3942766">
  <ele>-39.129</ele>
  <time>2026-09-01T01:17:18Z</time>
  <course>89.46</course>
  <speed>0.8802272433866155</speed>
  <fix>3d</fix>
</trkpt>
<trkpt lat="33.8103098" lon="-118.394279">
  <ele>-38.21</ele>
  <time>2026-09-01T01:17:18Z</time>
  <course>90.19</course>
  <speed>0.86</speed>
  <fix>3d</fix>
</trkpt>
<trkpt lat="33.8103101" lon="-118.3942756">
  <ele>-39.121</ele>
  <time>2026-09-01T01:17:18Z</time>
  <course>89.42</course>
  <speed>0.8802272433866155</speed>
  <fix>3d</fix>
</trkpt>
<trkpt lat="33.8103098" lon="-118.3942771">
  <ele>-38.19</ele>
  <time>2026-09-01T01:17:18Z</time>
  <course>90.13</course>
  <speed>0.87</speed>
  <fix>3d</fix>
</trkpt>
<trkpt lat="33.8103101" lon="-118.3942747">
  <ele>-39.112</ele>
  <time>2026-09-01T01:17:18Z</time>
  <course>89.38</course>
  <speed>0.8902246907382428</speed>
  <fix>3d</fix>
</trkpt>
<trkpt lat="33.8103098" lon="-118.3942771">
  <ele>-38.19</ele>
  <time>2026-09-01T01:17:18Z</time>
  <course>90.13</course>
  <speed>0.87</speed>
  <fix>3d</fix>
</trkpt>
<trkpt lat="33.8103101" lon="-118.3942737">
  <ele>-39.102</ele>
  <time>2026-09-01T01:17:18Z</time>
  <course>89.35</course>
  <speed>0.8902246907382428</speed>
  <fix>3d</fix>
</trkpt>
<trkpt lat="33.8103098" lon="-118.3942752">
  <ele>-38.18</ele>
  <time>2026-09-01T01:17:18Z</time>
  <course>90.08</course>
  <speed>0.87</speed>
  <fix>3d</fix>
</trkpt>
<trkpt lat="33.8103101" lon="-118.3942728">
  <ele>-39.092</ele>
  <time>2026-09-01T01:17:18Z</time>
  <course>89.32</course>
  <speed>0.8902246907382428</speed>
  <fix>3d</fix>
</trkpt>
<trkpt lat="33.8103098" lon="-118.3942752">
  <ele>-38.18</ele>
  <time>2026-09-01T01:17:18Z</time>
  <course>90.08</course>
  <speed>0.87</speed>
  <fix>3d</fix>
</trkpt>
<trkpt lat="33.8103101" lon="-118.3942718">
  <ele>-39.08</ele>
  <time>2026-09-01T01:17:18Z</time>
  <course>89.3</course>
  <speed>0.8902246907382428</speed>
  <fix>3d</fix>
</trkpt>
<trkpt lat="33.8103098" lon="-118.3942734">
  <ele>-38.16</ele>
  <time>2026-09-01T01:17:18Z</time>
  <course>90.06</course>
  <speed>0.87</speed>
  <fix>3d</fix>
</trkpt>
<trkpt lat="33.8103101" lon="-118.3942709">
  <ele>-39.07</ele>
  <time>2026-09-01T01:17:18Z</time>
  <course>89.28</course>
  <speed>0.8902246907382428</speed>
  <fix>3d</fix>
</trkpt>
<trkpt lat="33.8103098" lon="-118.3942734">
  <ele>-38.16</ele>
  <time>2026-09-01T01:17:18Z</time>
  <course>90.06</course>
  <speed>0.87</speed>
  <fix>3d</fix>
</trkpt>
<trkpt lat="33.8103101" lon="-118.3942699">
  <ele>-39.06</ele>
  <time>2026-09-01T01:17:18Z</time>
  <course>89.26</course>
  <speed>0.8902246907382428</speed>
  <fix>3d</fix>
</trkpt>
<trkpt lat="33.8103098" lon="-118.3942715">
  <ele>-38.14</ele>
  <time>2026-09-01T01:17:18Z</time>
  <course>90.04</course>
  <speed>0.87</speed>
  <fix>3d</fix>
</trkpt>
<trkpt lat="33.8103101" lon="-118.394269">
  <ele>-39.051</ele>
  <time>2026-09-01T01:17:18Z</time>
  <course>89.25</course>
  <speed>0.8902246907382428</speed>
  <fix>3d</fix>
</trkpt>
<trkpt lat="33.8103098" lon="-118.3942715">
  <ele>-38.14</ele>
  <time>2026-09-01T01:17:18Z</time>
  <course>90.04</course>
  <speed>0.87</speed>
  <fix>3d</fix>
</trkpt>
<trkpt lat="33.8103101" lon="-118.394268">
  <ele>-39.042</ele>
  <time>2026-09-01T01:17:18Z</time>
  <course>89.24</course>
  <speed>0.8902246907382428</speed>
  <fix>3d</fix>
</trkpt>
<trkpt lat="33.8103098" lon="-118.3942696">
  <ele>-38.12</ele>
  <time>2026-09-01T01:17:18Z</time>
  <course>90.04</course>
  <speed>0.88</speed>
  <fix>3d</fix>
</trkpt>
<trkpt lat="33.8103101" lon="-118.3942671">
  <ele>-39.031</ele>
  <time>2026-09-01T01:17:18Z</time>
  <course>89.23</course>
  <speed>0.900222194794152</speed>
  <fix>3d</fix>
</trkpt>
<trkpt lat="33.8103098" lon="-118.3942696">
  <ele>-38.12</ele>
  <time>2026-09-01T01:17:18Z</time>
  <course>90.04</course>
  <speed>0.88</speed>
  <fix>3d</fix>
</trkpt>
<trkpt lat="33.8103101" lon="-118.3942662">
  <ele>-39.021</ele>
  <time>2026-09-01T01:17:18Z</time>
  <course>89.22</course>
  <speed>0.900222194794152</speed>
  <fix>3d</fix>
</trkpt>
<trkpt lat="33.8103098" lon="-118.3942676">
  <ele>-38.1</ele>
  <time>2026-09-01T01:17:18Z</time>
  <course>90.05</course>
  <speed>0.88</speed>
  <fix>3d</fix>
</trkpt>
<trkpt lat="33.8103101" lon="-118.3942652">
  <ele>-39.01</ele>
  <time>2026-09-01T01:17:18Z</time>
  <course>89.22</course>
  <speed>0.900222194794152</speed>
  <fix>3d</fix>
</trkpt>
<trkpt lat="33.8103098" lon="-118.3942676">
  <ele>-38.1</ele>
  <time>2026-09-01T01:17:18Z</time>
  <course>90.05</course>
  <speed>0.88</speed>
  <fix>3d</fix>
</trkpt>
<trkpt lat="33.8103101" lon="-118.3942642">
  <ele>-38.998</ele>
  <time>2026-09-01T01:17:18Z</time>
  <course>89.22</course>
  <speed>0.900222194794152</speed>
  <fix>3d</fix>
</trkpt>
<trkpt lat="33.8103098" lon="-118.3942657">
  <ele>-38.08</ele>
  <time>2026-09-01T01:17:18Z</time>
  <course>90.05</course>
  <speed>0.88</speed>
  <fix>3d</fix>
</trkpt>
<trkpt lat="33.8103101" lon="-118.3942633">
  <ele>-38.984</ele>
  <time>2026-09-01T01:17:18Z</time>
  <course>89.22</course>
  <speed>0.900222194794152</speed>
  <fix>3d</fix>
</trkpt>
<trkpt lat="33.8103098" lon="-118.3942657">
  <ele>-38.08</ele>
  <time>2026-09-01T01:17:18Z</time>
  <course>90.05</course>
  <speed>0.88</speed>
  <fix>3d</fix>
</trkpt>
<trkpt lat="33.8103101" lon="-118.3942623">
  <ele>-38.971</ele>
  <time>2026-09-01T01:17:18Z</time>
  <course>89.21</course>
  <speed>0.900222194794152</speed>
  <fix>3d</fix>
</trkpt>
<trkpt lat="33.8103098" lon="-118.3942638">
  <ele>-38.05</ele>
  <time>2026-09-01T01:17:18Z</time>
  <course>90.06</course>
  <speed>0.88</speed>
  <fix>3d</fix>
</trkpt>
<trkpt lat="33.8103101" lon="-118.3942614">
  <ele>-38.958</ele>
  <time>2026-09-01T01:17:18Z</time>
  <course>89.21</course>
  <speed>0.900222194794152</speed>
  <fix>3d</fix>
</trkpt>
<trkpt lat="33.8103098" lon="-118.3942638">
  <ele>-38.05</ele>
  <time>2026-09-01T01:17:18Z</time>
  <course>90.06</course>
  <speed>0.88</speed>
  <fix>3d</fix>
</trkpt>
<trkpt lat="33.8103101" lon="-118.3942604">
  <ele>-38.946</ele>
  <time>2026-09-01T01:17:18Z</time>
  <course>89.2</course>
  <speed>0.900222194794152</speed>
  <fix>3d</fix>
</trkpt>
<trkpt lat="33.8103098" lon="-118.3942619">
  <ele>-38.03</ele>
  <time>2026-09-01T01:17:18Z</time>
  <course>90.06</course>
  <speed>0.89</speed>
  <fix>3d</fix>
</trkpt>
<trkpt lat="33.8103101" lon="-118.3942594">
  <ele>-38.933</ele>
  <time>2026-09-01T01:17:18Z</time>
  <course>89.19</course>
  <speed>0.9102197536858887</speed>
  <fix>3d</fix>
</trkpt>
<trkpt lat="33.8103098" lon="-118.3942619">
  <ele>-38.03</ele>
  <time>2026-09-01T01:17:18Z</time>
  <course>90.06</course>
  <speed>0.89</speed>
  <fix>3d</fix>
</trkpt>
<trkpt lat="33.81031" lon="-118.3942585">
  <ele>-38.922</ele>
  <time>2026-09-01T01:17:18Z</time>
  <course>89.18</course>
  <speed>0.9102197536858887</speed>
  <fix>3d</fix>
</trkpt>
<trkpt lat="33.8103098" lon="-118.39426">
  <ele>-38.0</ele>
  <time>2026-09-01T01:17:18Z</time>
  <course>90.07</course>
  <speed>0.89</speed>
  <fix>3d</fix>
</trkpt>
<trkpt lat="33.81031" lon="-118.3942575">
  <ele>-38.91</ele>
  <time>2026-09-01T01:17:18Z</time>
  <course>89.18</course>
  <speed>0.9102197536858887</speed>
  <fix>3d</fix>
</trkpt>
<trkpt lat="33.8103098" lon="-118.39426">
  <ele>-38.0</ele>
  <time>2026-09-01T01:17:18Z</time>
  <course>90.07</course>
  <speed>0.89</speed>
  <fix>3d</fix>
</trkpt>
<trkpt lat="33.81031" lon="-118.3942566">
  <ele>-38.898</ele>
  <time>2026-09-01T01:17:18Z</time>
  <course>89.17</course>
  <speed>0.9102197536858887</speed>
  <fix>3d</fix>
</trkpt>
<trkpt lat="33.8103098" lon="-118.394258">
  <ele>-37.98</ele>
  <time>2026-09-01T01:17:18Z</time>
  <course>90.05</course>
  <speed>0.89</speed>
  <fix>3d</fix>
</trkpt>
<trkpt lat="33.81031" lon="-118.3942556">
  <ele>-38.886</ele>
  <time>2026-09-01T01:17:18Z</time>
  <course>89.16</course>
  <speed>0.9102197536858887</speed>
  <fix>3d</fix>
</trkpt>
<trkpt lat="33.8103098" lon="-118.394258">
  <ele>-37.98</ele>
  <time>2026-09-01T01:17:18Z</time>
  <course>90.05</course>
  <speed>0.89</speed>
  <fix>3d</fix>
</trkpt>
<trkpt lat="33.81031" lon="-118.3942546">
  <ele>-38.874</ele>
  <time>2026-09-01T01:17:18Z</time>
  <course>89.16</course>
  <speed>0.9102197536858887</speed>
  <fix>3d</fix>
</trkpt>
<trkpt lat="33.8103098" lon="-118.3942561">
  <ele>-37.95</ele>
  <time>2026-09-01T01:17:18Z</time>
  <course>90.04</course>
  <speed>0.9</speed>
  <fix>3d</fix>
</trkpt>
<trkpt lat="33.81031" lon="-118.3942536">
  <ele>-38.862</ele>
  <time>2026-09-01T01:17:18Z</time>
  <course>89.16</course>
  <speed>0.9102197536858887</speed>
  <fix>3d</fix>
</trkpt>
<trkpt lat="33.8103098" lon="-118.3942561">
  <ele>-37.95</ele>
  <time>2026-09-01T01:17:18Z</time>
  <course>90.04</course>
  <speed>0.9</speed>
  <fix>3d</fix>
</trkpt>
<trkpt lat="33.81031" lon="-118.3942527">
  <ele>-38.85</ele>
  <time>2026-09-01T01:17:18Z</time>
  <course>89.15</course>
  <speed>0.9102197536858887</speed>
  <fix>3d</fix>
</trkpt>
<trkpt lat="33.8103098" lon="-118.3942541">
  <ele>-37.93</ele>
  <time>2026-09-01T01:17:18Z</time>
  <course>90.07</course>
  <speed>0.9</speed>
  <fix>3d</fix>
</trkpt>
<trkpt lat="33.81031" lon="-118.3942517">
  <ele>-38.839</ele>
  <time>2026-09-01T01:17:18Z</time>
  <course>89.15</course>
  <speed>0.9102197536858887</speed>
  <fix>3d</fix>
</trkpt>
<trkpt lat="33.8103098" lon="-118.3942541">
  <ele>-37.93</ele>
  <time>2026-09-01T01:17:18Z</time>
  <course>90.07</course>
  <speed>0.9</speed>
  <fix>3d</fix>
</trkpt>
<trkpt lat="33.81031" lon="-118.3942507">
  <ele>-38.829</ele>
  <time>2026-09-01T01:17:18Z</time>
  <course>89.15</course>
  <speed>0.9102197536858887</speed>
  <fix>3d</fix>
</trkpt>
<trkpt lat="33.8103098" lon="-118.3942522">
  <ele>-37.91</ele>
  <time>2026-09-01T01:17:18Z</time>
  <course>90.08</course>
  <speed>0.9</speed>
  <fix>3d</fix>
</trkpt>
<trkpt lat="33.81031" lon="-118.3942498">
  <ele>-38.819</ele>
  <time>2026-09-01T01:17:18Z</time>
  <course>89.15</course>
  <speed>0.9102197536858887</speed>
  <fix>3d</fix>
</trkpt>
<trkpt lat="33.8103098" lon="-118.3942522">
  <ele>-37.91</ele>
  <time>2026-09-01T01:17:18Z</time>
  <course>90.08</course>
  <speed>0.9</speed>
  <fix>3d</fix>
</trkpt>
<trkpt lat="33.81031" lon="-118.3942488">
  <ele>-38.809</ele>
  <time>2026-09-01T01:17:18Z</time>
  <course>89.14</course>
  <speed>0.9102197536858887</speed>
  <fix>3d</fix>
</trkpt>
<trkpt lat="33.8103098" lon="-118.3942502">
  <ele>-37.89</ele>
  <time>2026-09-01T01:17:18Z</time>
  <course>90.07</course>
  <speed>0.9</speed>
  <fix>3d</fix>
</trkpt>
<trkpt lat="33.81031" lon="-118.3942478">
  <ele>-38.799</ele>
  <time>2026-09-01T01:17:18Z</time>
  <course>89.13</course>
  <speed>0.9102197536858887</speed>
  <fix>3d</fix>
</trkpt>
<trkpt lat="33.8103098" lon="-118.3942502">
  <ele>-37.89</ele>
  <time>2026-09-01T01:17:18Z</time>
  <course>90.07</course>
  <speed>0.9</speed>
  <fix>3d</fix>
</trkpt>
<trkpt lat="33.81031" lon="-118.3942468">
  <ele>-38.788</ele>
  <time>2026-09-01T01:17:18Z</time>
  <course>89.13</course>
  <speed>0.9102197536858887</speed>
  <fix>3d</fix>
</trkpt>
<trkpt lat="33.8103098" lon="-118.3942482">
  <ele>-37.87</ele>
  <time>2026-09-01T01:17:18Z</time>
  <course>90.06</course>
  <speed>0.9</speed>
  <fix>3d</fix>
</trkpt>
<trkpt lat="33.81031" lon="-118.3942459">
  <ele>-38.776</ele>
  <time>2026-09-01T01:17:18Z</time>
  <course>89.14</course>
  <speed>0.9102197536858887</speed>
  <fix>3d</fix>
</trkpt>
<trkpt lat="33.8103098" lon="-118.3942482">
  <ele>-37.87</ele>
  <time>2026-09-01T01:17:18Z</time>
  <course>90.06</course>
  <speed>0.9</speed>
  <fix>3d</fix>
</trkpt>
<trkpt lat="33.81031" lon="-118.3942449">
  <ele>-38.764</ele>
  <time>2026-09-01T01:17:18Z</time>
  <course>89.13</course>
  <speed>0.9102197536858887</speed>
  <fix>3d</fix>
</trkpt>
<trkpt lat="33.8103098" lon="-118.3942463">
  <ele>-37.85</ele>
  <time>2026-09-01T01:17:18Z</time>
  <course>90.06</course>
  <speed>0.9</speed>
  <fix>3d</fix>
</trkpt>
<trkpt lat="33.81031" lon="-118.3942439">
  <ele>-38.751</ele>
  <time>2026-09-01T01:17:18Z</time>
  <course>89.13</course>
  <speed>0.9202173656261873</speed>
  <fix>3d</fix>
</trkpt>
<trkpt lat="33.8103098" lon="-118.3942463">
  <ele>-37.85</ele>
  <time>2026-09-01T01:17:18Z</time>
  <course>90.06</course>
  <speed>0.9</speed>
  <fix>3d</fix>
</trkpt>
<trkpt lat="33.81031" lon="-118.3942429">
  <ele>-38.74</ele>
  <time>2026-09-01T01:17:18Z</time>
  <course>89.13</course>
  <speed>0.9202173656261873</speed>
  <fix>3d</fix>
</trkpt>
<trkpt lat="33.8103098" lon="-118.3942444">
  <ele>-37.83</ele>
  <time>2026-09-01T01:17:18Z</time>
  <course>90.07</course>
  <speed>0.9</speed>
  <fix>3d</fix>
</trkpt>
<trkpt lat="33.81031" lon="-118.3942419">
  <ele>-38.73</ele>
  <time>2026-09-01T01:17:18Z</time>
  <course>89.13</course>
  <speed>0.9202173656261873</speed>
  <fix>3d</fix>
</trkpt>
<trkpt lat="33.8103098" lon="-118.3942444">
  <ele>-37.83</ele>
  <time>2026-09-01T01:17:18Z</time>
  <course>90.07</course>
  <speed>0.9</speed>
  <fix>3d</fix>
</trkpt>
<trkpt lat="33.81031" lon="-118.3942409">
  <ele>-38.719</ele>
  <time>2026-09-01T01:17:18Z</time>
  <course>89.13</course>
  <speed>0.9202173656261873</speed>
  <fix>3d</fix>
</trkpt>
<trkpt lat="33.8103098" lon="-118.3942424">
  <ele>-37.8</ele>
  <time>2026-09-01T01:17:18Z</time>
  <course>90.08</course>
  <speed>0.9</speed>
  <fix>3d</fix>
</trkpt>
<trkpt lat="33.81031" lon="-118.39424">
  <ele>-38.709</ele>
  <time>2026-09-01T01:17:18Z</time>
  <course>89.13</course>
  <speed>0.9202173656261873</speed>
  <fix>3d</fix>
</trkpt>
<trkpt lat="33.8103098" lon="-118.3942424">
  <ele>-37.8</ele>
  <time>2026-09-01T01:17:18Z</time>
  <course>90.08</course>
  <speed>0.9</speed>
  <fix>3d</fix>
</trkpt>
<trkpt lat="33.81031" lon="-118.394239">
  <ele>-38.7</ele>
  <time>2026-09-01T01:17:18Z</time>
  <course>89.12</course>
  <speed>0.9202173656261873</speed>
  <fix>3d</fix>
</trkpt>
<trkpt lat="33.8103098" lon="-118.3942404">
  <ele>-37.79</ele>
  <time>2026-09-01T01:17:18Z</time>
  <course>90.08</course>
  <speed>0.91</speed>
  <fix>3d</fix>
</trkpt>
<trkpt lat="33.81031" lon="-118.394238">
  <ele>-38.69</ele>
  <time>2026-09-01T01:17:18Z</time>
  <course>89.12</course>
  <speed>0.9202173656261873</speed>
  <fix>3d</fix>
</trkpt>
<trkpt lat="33.8103098" lon="-118.3942404">
  <ele>-37.79</ele>
  <time>2026-09-01T01:17:18Z</time>
  <course>90.08</course>
  <speed>0.91</speed>
  <fix>3d</fix>
</trkpt>
<trkpt lat="33.81031" lon="-118.394237">
  <ele>-38.68</ele>
  <time>2026-09-01T01:17:18Z</time>
  <course>89.12</course>
  <speed>0.9202173656261873</speed>
  <fix>3d</fix>
</trkpt>
<trkpt lat="33.8103098" lon="-118.3942385">
  <ele>-37.76</ele>
  <time>2026-09-01T01:17:18Z</time>
  <course>90.08</course>
  <speed>0.91</speed>
  <fix>3d</fix>
</trkpt>
<trkpt lat="33.81031" lon="-118.394236">
  <ele>-38.67</ele>
  <time>2026-09-01T01:17:18Z</time>
  <course>89.12</course>
  <speed>0.9202173656261873</speed>
  <fix>3d</fix>
</trkpt>
<trkpt lat="33.8103098" lon="-118.3942385">
  <ele>-37.76</ele>
  <time>2026-09-01T01:17:18Z</time>
  <course>90.08</course>
  <speed>0.91</speed>
  <fix>3d</fix>
</trkpt>
<trkpt lat="33.81031" lon="-118.394235">
  <ele>-38.658</ele>
  <time>2026-09-01T01:17:18Z</time>
  <course>89.11</course>
  <speed>0.9202173656261873</speed>
  <fix>3d</fix>
</trkpt>
<trkpt lat="33.8103098" lon="-118.3942365">
  <ele>-37.75</ele>
  <time>2026-09-01T01:17:18Z</time>
  <course>90.1</course>
  <speed>0.91</speed>
  <fix>3d</fix>
</trkpt>
<trkpt lat="33.81031" lon="-118.394234">
  <ele>-38.648</ele>
  <time>2026-09-01T01:17:18Z</time>
  <course>89.11</course>
  <speed>0.9202173656261873</speed>
  <fix>3d</fix>
</trkpt>
<trkpt lat="33.8103098" lon="-118.3942365">
  <ele>-37.75</ele>
  <time>2026-09-01T01:17:18Z</time>
  <course>90.1</course>
  <speed>0.91</speed>
  <fix>3d</fix>
</trkpt>
<trkpt lat="33.81031" lon="-118.394233">
  <ele>-38.636</ele>
  <time>2026-09-01T01:17:18Z</time>
  <course>89.11</course>
  <speed>0.9202173656261873</speed>
  <fix>3d</fix>
</trkpt>
<trkpt lat="33.8103098" lon="-118.3942345">
  <ele>-37.73</ele>
  <time>2026-09-01T01:17:18Z</time>
  <course>90.09</course>
  <speed>0.91</speed>
  <fix>3d</fix>
</trkpt>
<trkpt lat="33.81031" lon="-118.3942321">
  <ele>-38.625</ele>
  <time>2026-09-01T01:17:18Z</time>
  <course>89.12</course>
  <speed>0.9202173656261873</speed>
  <fix>3d</fix>
</trkpt>
<trkpt lat="33.8103098" lon="-118.3942345">
  <ele>-37.73</ele>
  <time>2026-09-01T01:17:18Z</time>
  <course>90.09</course>
  <speed>0.91</speed>
  <fix>3d</fix>
</trkpt>
<trkpt lat="33.81031" lon="-118.3942311">
  <ele>-38.613</ele>
  <time>2026-09-01T01:17:18Z</time>
  <course>89.11</course>
  <speed>0.9302150289046076</speed>
  <fix>3d</fix>
</trkpt>
<trkpt lat="33.8103098" lon="-118.3942325">
  <ele>-37.71</ele>
  <time>2026-09-01T01:17:18Z</time>
  <course>90.09</course>
  <speed>0.91</speed>
  <fix>3d</fix>
</trkpt>
<trkpt lat="33.81031" lon="-118.3942301">
  <ele>-38.601</ele>
  <time>2026-09-01T01:17:18Z</time>
  <course>89.11</course>
  <speed>0.9302150289046076</speed>
  <fix>3d</fix>
</trkpt>
<trkpt lat="33.8103098" lon="-118.3942325">
  <ele>-37.71</ele>
  <time>2026-09-01T01:17:18Z</time>
  <course>90.09</course>
  <speed>0.91</speed>
  <fix>3d</fix>
</trkpt>
<trkpt lat="33.81031" lon="-118.3942291">
  <ele>-38.588</ele>
  <time>2026-09-01T01:17:18Z</time>
  <course>89.11</course>
  <speed>0.9302150289046076</speed>
  <fix>3d</fix>
</trkpt>
<trkpt lat="33.8103098" lon="-118.3942305">
  <ele>-37.69</ele>
  <time>2026-09-01T01:17:18Z</time>
  <course>90.12</course>
  <speed>0.91</speed>
  <fix>3d</fix>
</trkpt>
<trkpt lat="33.81031" lon="-118.3942281">
  <ele>-38.576</ele>
  <time>2026-09-01T01:17:18Z</time>
  <course>89.11</course>
  <speed>0.9302150289046076</speed>
  <fix>3d</fix>
</trkpt>
<trkpt lat="33.8103098" lon="-118.3942305">
  <ele>-37.69</ele>
  <time>2026-09-01T01:17:18Z</time>
  <course>90.12</course>
  <speed>0.91</speed>
  <fix>3d</fix>
</trkpt>
<trkpt lat="33.81031" lon="-118.3942271">
  <ele>-38.562</ele>
  <time>2026-09-01T01:17:18Z</time>
  <course>89.11</course>
  <speed>0.9302150289046076</speed>
  <fix>3d</fix>
</trkpt>
<trkpt lat="33.8103098" lon="-118.3942286">
  <ele>-37.66</ele>
  <time>2026-09-01T01:17:18Z</time>
  <course>90.13</course>
  <speed>0.91</speed>
  <fix>3d</fix>
</trkpt>
<trkpt lat="33.81031" lon="-118.3942261">
  <ele>-38.548</ele>
  <time>2026-09-01T01:17:18Z</time>
  <course>89.11</course>
  <speed>0.9302150289046076</speed>
  <fix>3d</fix>
</trkpt>
<trkpt lat="33.8103098" lon="-118.3942286">
  <ele>-37.66</ele>
  <time>2026-09-01T01:17:18Z</time>
  <course>90.13</course>
  <speed>0.91</speed>
  <fix>3d</fix>
</trkpt>
<trkpt lat="33.81031" lon="-118.3942251">
  <ele>-38.534</ele>
  <time>2026-09-01T01:17:18Z</time>
  <course>89.11</course>
  <speed>0.9302150289046076</speed>
  <fix>3d</fix>
</trkpt>
<trkpt lat="33.8103098" lon="-118.3942266">
  <ele>-37.64</ele>
  <time>2026-09-01T01:17:18Z</time>
  <course>90.13</course>
  <speed>0.92</speed>
  <fix>3d</fix>
</trkpt>
<trkpt lat="33.81031" lon="-118.3942241">
  <ele>-38.52</ele>
  <time>2026-09-01T01:17:18Z</time>
  <course>89.1</course>
  <speed>0.9302150289046076</speed>
  <fix>3d</fix>
</trkpt>
<trkpt lat="33.8103098" lon="-118.3942266">
  <ele>-37.64</ele>
  <time>2026-09-01T01:17:18Z</time>
  <course>90.13</course>
  <speed>0.92</speed>
  <fix>3d</fix>
</trkpt>
<trkpt lat="33.81031" lon="-118.3942231">
  <ele>-38.507</ele>
  <time>2026-09-01T01:17:18Z</time>
  <course>89.09</course>
  <speed>0.9302150289046076</speed>
  <fix>3d</fix>
</trkpt>
<trkpt lat="33.8103098" lon="-118.3942246">
  <ele>-37.61</ele>
  <time>2026-09-01T01:17:18Z</time>
  <course>90.13</course>
  <speed>0.92</speed>
  <fix>3d</fix>
</trkpt>
<trkpt lat="33.81031" lon="-118.3942221">
  <ele>-38.495</ele>
  <time>2026-09-01T01:17:18Z</time>
  <course>89.09</course>
  <speed>0.9302150289046076</speed>
  <fix>3d</fix>
</trkpt>
<trkpt lat="33.8103098" lon="-118.3942246">
  <ele>-37.61</ele>
  <time>2026-09-01T01:17:18Z</time>
  <course>90.13</course>
  <speed>0.92</speed>
  <fix>3d</fix>
</trkpt>
<trkpt lat="33.81031" lon="-118.3942211">
  <ele>-38.483</ele>
  <time>2026-09-01T01:17:18Z</time>
  <course>89.09</course>
  <speed>0.9302150289046076</speed>
  <fix>3d</fix>
</trkpt>
<trkpt lat="33.8103097" lon="-118.3942226">
  <ele>-37.59</ele>
  <time>2026-09-01T01:17:18Z</time>
  <course>90.15</course>
  <speed>0.92</speed>
  <fix>3d</fix>
</trkpt>
<trkpt lat="33.81031" lon="-118.3942201">
  <ele>-38.472</ele>
  <time>2026-09-01T01:17:18Z</time>
  <course>89.07</course>
  <speed>0.9402127418834527</speed>
  <fix>3d</fix>
</trkpt>
<trkpt lat="33.8103097" lon="-118.3942226">
  <ele>-37.59</ele>
  <time>2026-09-01T01:17:18Z</time>
  <course>90.15</course>
  <speed>0.92</speed>
  <fix>3d</fix>
</trkpt>
<trkpt lat="33.81031" lon="-118.3942191">
  <ele>-38.462</ele>
  <time>2026-09-01T01:17:18Z</time>
  <course>89.05</course>
  <speed>0.9402127418834527</speed>
  <fix>3d</fix>
</trkpt>
<trkpt lat="33.8103097" lon="-118.3942206">
  <ele>-37.56</ele>
  <time>2026-09-01T01:17:18Z</time>
  <course>90.11</course>
  <speed>0.92</speed>
  <fix>3d</fix>
</trkpt>
<trkpt lat="33.81031" lon="-118.3942181">
  <ele>-38.452</ele>
  <time>2026-09-01T01:17:18Z</time>
  <course>89.0</course>
  <speed>0.9402127418834527</speed>
  <fix>3d</fix>
</trkpt>
<trkpt lat="33.8103097" lon="-118.3942206">
  <ele>-37.56</ele>
  <time>2026-09-01T01:17:18Z</time>
  <course>90.11</course>
  <speed>0.92</speed>
  <fix>3d</fix>
</trkpt>
<trkpt lat="33.81031" lon="-118.3942171">
  <ele>-38.441</ele>
  <time>2026-09-01T01:17:18Z</time>
  <course>88.94</course>
  <speed>0.9402127418834527</speed>
  <fix>3d</fix>
</trkpt>
<trkpt lat="33.8103097" lon="-118.3942185">
  <ele>-37.54</ele>
  <time>2026-09-01T01:17:18Z</time>
  <course>90.0</course>
  <speed>0.92</speed>
  <fix>3d</fix>
</trkpt>
<trkpt lat="33.81031" lon="-118.3942161">
  <ele>-38.431</ele>
  <time>2026-09-01T01:17:18Z</time>
  <course>88.88</course>
  <speed>0.9402127418834527</speed>
  <fix>3d</fix>
</trkpt>
<trkpt lat="33.8103097" lon="-118.3942185">
  <ele>-37.54</ele>
  <time>2026-09-01T01:17:18Z</time>
  <course>90.0</course>
  <speed>0.92</speed>
  <fix>3d</fix>
</trkpt>
<trkpt lat="33.81031" lon="-118.3942151">
  <ele>-38.42</ele>
  <time>2026-09-01T01:17:18Z</time>
  <course>88.83</course>
  <speed>0.9402127418834527</speed>
  <fix>3d</fix>
</trkpt>
<trkpt lat="33.8103097" lon="-118.3942166">
  <ele>-37.51</ele>
  <time>2026-09-01T01:17:18Z</time>
  <course>89.89</course>
  <speed>0.92</speed>
  <fix>3d</fix>
</trkpt>
<trkpt lat="33.81031" lon="-118.3942141">
  <ele>-38.408</ele>
  <time>2026-09-01T01:17:18Z</time>
  <course>88.79</course>
  <speed>0.9402127418834527</speed>
  <fix>3d</fix>
</trkpt>
<trkpt lat="33.8103097" lon="-118.3942166">
  <ele>-37.51</ele>
  <time>2026-09-01T01:17:18Z</time>
  <course>89.89</course>
  <speed>0.92</speed>
  <fix>3d</fix>
</trkpt>
<trkpt lat="33.81031" lon="-118.3942131">
  <ele>-38.396</ele>
  <time>2026-09-01T01:17:18Z</time>
  <course>88.74</course>
  <speed>0.9402127418834527</speed>
  <fix>3d</fix>
</trkpt>
<trkpt lat="33.8103097" lon="-118.3942146">
  <ele>-37.5</ele>
  <time>2026-09-01T01:17:18Z</time>
  <course>89.81</course>
  <speed>0.92</speed>
  <fix>3d</fix>
</trkpt>
<trkpt lat="33.81031" lon="-118.3942121">
  <ele>-38.384</ele>
  <time>2026-09-01T01:17:18Z</time>
  <course>88.72</course>
  <speed>0.9402127418834527</speed>
  <fix>3d</fix>
</trkpt>
<trkpt lat="33.8103097" lon="-118.3942146">
  <ele>-37.5</ele>
  <time>2026-09-01T01:17:18Z</time>
  <course>89.81</course>
  <speed>0.92</speed>
  <fix>3d</fix>
</trkpt>
<trkpt lat="33.81031" lon="-118.3942111">
  <ele>-38.373</ele>
  <time>2026-09-01T01:17:18Z</time>
  <course>88.69</course>
  <speed>0.9402127418834527</speed>
  <fix>3d</fix>
</trkpt>
<trkpt lat="33.8103097" lon="-118.3942126">
  <ele>-37.48</ele>
  <time>2026-09-01T01:17:18Z</time>
  <course>89.75</course>
  <speed>0.93</speed>
  <fix>3d</fix>
</trkpt>
<trkpt lat="33.81031" lon="-118.39421">
  <ele>-38.361</ele>
  <time>2026-09-01T01:17:18Z</time>
  <course>88.67</course>
  <speed>0.9402127418834527</speed>
  <fix>3d</fix>
</trkpt>
<trkpt lat="33.8103097" lon="-118.3942126">
  <ele>-37.48</ele>
  <time>2026-09-01T01:17:18Z</time>
  <course>89.75</course>
  <speed>0.93</speed>
  <fix>3d</fix>
</trkpt>
<trkpt lat="33.81031" lon="-118.394209">
  <ele>-38.35</ele>
  <time>2026-09-01T01:17:18Z</time>
  <course>88.65</course>
  <speed>0.9402127418834527</speed>
  <fix>3d</fix>
</trkpt>
<trkpt lat="33.8103097" lon="-118.3942105">
  <ele>-37.45</ele>
  <time>2026-09-01T01:17:18Z</time>
  <course>89.72</course>
  <speed>0.93</speed>
  <fix>3d</fix>
</trkpt>
<trkpt lat="33.81031" lon="-118.394208">
  <ele>-38.337</ele>
  <time>2026-09-01T01:17:18Z</time>
  <course>88.64</course>
  <speed>0.9402127418834527</speed>
  <fix>3d</fix>
</trkpt>
<trkpt lat="33.8103097" lon="-118.3942105">
  <ele>-37.45</ele>
  <time>2026-09-01T01:17:18Z</time>
  <course>89.72</course>
  <speed>0.93</speed>
  <fix>3d</fix>
</trkpt>
<trkpt lat="33.81031" lon="-118.394207">
  <ele>-38.325</ele>
  <time>2026-09-01T01:17:18Z</time>
  <course>88.63</course>
  <speed>0.9402127418834527</speed>
  <fix>3d</fix>
</trkpt>
<trkpt lat="33.8103097" lon="-118.3942085">
  <ele>-37.43</ele>
  <time>2026-09-01T01:17:18Z</time>
  <course>89.71</course>
  <speed>0.93</speed>
  <fix>3d</fix>
</trkpt>
<trkpt lat="33.81031" lon="-118.394206">
  <ele>-38.313</ele>
  <time>2026-09-01T01:17:18Z</time>
  <course>88.62</course>
  <speed>0.9502105029939419</speed>
  <fix>3d</fix>
</trkpt>
<trkpt lat="33.8103097" lon="-118.3942085">
  <ele>-37.43</ele>
  <time>2026-09-01T01:17:18Z</time>
  <course>89.71</course>
  <speed>0.93</speed>
  <fix>3d</fix>
</trkpt>
<trkpt lat="33.8103099" lon="-118.394205">
  <ele>-38.303</ele>
  <time>2026-09-01T01:17:18Z</time>
  <course>88.61</course>
  <speed>0.9502105029939419</speed>
  <fix>3d</fix>
</trkpt>
<trkpt lat="33.8103097" lon="-118.3942065">
  <ele>-37.41</ele>
  <time>2026-09-01T01:17:18Z</time>
  <course>89.69</course>
  <speed>0.93</speed>
  <fix>3d</fix>
</trkpt>
<trkpt lat="33.8103099" lon="-118.394204">
  <ele>-38.292</ele>
  <time>2026-09-01T01:17:18Z</time>
  <course>88.61</course>
  <speed>0.9502105029939419</speed>
  <fix>3d</fix>
</trkpt>
<trkpt lat="33.8103097" lon="-118.3942065">
  <ele>-37.41</ele>
  <time>2026-09-01T01:17:18Z</time>
  <course>89.69</course>
  <speed>0.93</speed>
  <fix>3d</fix>
</trkpt>
<trkpt lat="33.8103099" lon="-118.394203">
  <ele>-38.282</ele>
  <time>2026-09-01T01:17:18Z</time>
  <course>88.6</course>
  <speed>0.9502105029939419</speed>
  <fix>3d</fix>
</trkpt>
<trkpt lat="33.8103097" lon="-118.3942045">
  <ele>-37.39</ele>
  <time>2026-09-01T01:17:18Z</time>
  <course>89.66</course>
  <speed>0.93</speed>
  <fix>3d</fix>
</trkpt>
<trkpt lat="33.8103099" lon="-118.3942019">
  <ele>-38.272</ele>
  <time>2026-09-01T01:17:18Z</time>
  <course>88.6</course>
  <speed>0.9502105029939419</speed>
  <fix>3d</fix>
</trkpt>
<trkpt lat="33.8103097" lon="-118.3942045">
  <ele>-37.39</ele>
  <time>2026-09-01T01:17:18Z</time>
  <course>89.66</course>
  <speed>0.93</speed>
  <fix>3d</fix>
</trkpt>
<trkpt lat="33.8103099" lon="-118.3942009">
  <ele>-38.262</ele>
  <time>2026-09-01T01:17:18Z</time>
  <course>88.6</course>
  <speed>0.9502105029939419</speed>
  <fix>3d</fix>
</trkpt>
<trkpt lat="33.8103097" lon="-118.3942025">
  <ele>-37.36</ele>
  <time>2026-09-01T01:17:18Z</time>
  <course>89.64</course>
  <speed>0.93</speed>
  <fix>3d</fix>
</trkpt>
<trkpt lat="33.8103099" lon="-118.3941999">
  <ele>-38.253</ele>
  <time>2026-09-01T01:17:18Z</time>
  <course>88.6</course>
  <speed>0.9502105029939419</speed>
  <fix>3d</fix>
</trkpt>
<trkpt lat="33.8103097" lon="-118.3942025">
  <ele>-37.36</ele>
  <time>2026-09-01T01:17:18Z</time>
  <course>89.64</course>
  <speed>0.93</speed>
  <fix>3d</fix>
</trkpt>
<trkpt lat="33.8103099" lon="-118.3941989">
  <ele>-38.245</ele>
  <time>2026-09-01T01:17:18Z</time>
  <course>88.6</course>
  <speed>0.9502105029939419</speed>
  <fix>3d</fix>
</trkpt>
<trkpt lat="33.8103097" lon="-118.3942004">
  <ele>-37.34</ele>
  <time>2026-09-01T01:17:18Z</time>
  <course>89.63</course>
  <speed>0.93</speed>
  <fix>3d</fix>
</trkpt>
<trkpt lat="33.8103099" lon="-118.3941979">
  <ele>-38.236</ele>
  <time>2026-09-01T01:17:18Z</time>
  <course>88.61</course>
  <speed>0.9502105029939419</speed>
  <fix>3d</fix>
</trkpt>
<trkpt lat="33.8103097" lon="-118.3942004">
  <ele>-37.34</ele>
  <time>2026-09-01T01:17:18Z</time>
  <course>89.63</course>
  <speed>0.93</speed>
  <fix>3d</fix>
</trkpt>
<trkpt lat="33.8103099" lon="-118.3941969">
  <ele>-38.227</ele>
  <time>2026-09-01T01:17:18Z</time>
  <course>88.6</course>
  <speed>0.9502105029939419</speed>
  <fix>3d</fix>
</trkpt>
<trkpt lat="33.8103097" lon="-118.3941984">
  <ele>-37.32</ele>
  <time>2026-09-01T01:17:18Z</time>
  <course>89.62</course>
  <speed>0.94</speed>
  <fix>3d</fix>
</trkpt>
<trkpt lat="33.8103099" lon="-118.3941958">
  <ele>-38.217</ele>
  <time>2026-09-01T01:17:18Z</time>
  <course>88.61</course>
  <speed>0.9502105029939419</speed>
  <fix>3d</fix>
</trkpt>
<trkpt lat="33.8103097" lon="-118.3941984">
  <ele>-37.32</ele>
  <time>2026-09-01T01:17:18Z</time>
  <course>89.62</course>
  <speed>0.94</speed>
  <fix>3d</fix>
</trkpt>
<trkpt lat="33.8103099" lon="-118.3941948">
  <ele>-38.207</ele>
  <time>2026-09-01T01:17:18Z</time>
  <course>88.61</course>
  <speed>0.9502105029939419</speed>
  <fix>3d</fix>
</trkpt>
<trkpt lat="33.8103097" lon="-118.3941964">
  <ele>-37.3</ele>
  <time>2026-09-01T01:17:18Z</time>
  <course>89.59</course>
  <speed>0.94</speed>
  <fix>3d</fix>
</trkpt>
<trkpt lat="33.8103099" lon="-118.3941938">
  <ele>-38.196</ele>
  <time>2026-09-01T01:17:18Z</time>
  <course>88.62</course>
  <speed>0.9602083107326242</speed>
  <fix>3d</fix>
</trkpt>
<trkpt lat="33.8103097" lon="-118.3941964">
  <ele>-37.3</ele>
  <time>2026-09-01T01:17:18Z</time>
  <course>89.59</course>
  <speed>0.94</speed>
  <fix>3d</fix>
</trkpt>
<trkpt lat="33.8103099" lon="-118.3941928">
  <ele>-38.184</ele>
  <time>2026-09-01T01:17:18Z</time>
  <course>88.62</course>
  <speed>0.9602083107326242</speed>
  <fix>3d</fix>
</trkpt>
<trkpt lat="33.8103097" lon="-118.3941943">
  <ele>-37.27</ele>
  <time>2026-09-01T01:17:18Z</time>
  <course>89.59</course>
  <speed>0.94</speed>
  <fix>3d</fix>
</trkpt>
<trkpt lat="33.8103099" lon="-118.3941918">
  <ele>-38.171</ele>
  <time>2026-09-01T01:17:18Z</time>
  <course>88.63</course>
  <speed>0.9602083107326242</speed>
  <fix>3d</fix>
</trkpt>
<trkpt lat="33.8103097" lon="-118.3941943">
  <ele>-37.27</ele>
  <time>2026-09-01T01:17:18Z</time>
  <course>89.59</course>
  <speed>0.94</speed>
  <fix>3d</fix>
</trkpt>
<trkpt lat="33.8103099" lon="-118.3941907">
  <ele>-38.158</ele>
  <time>2026-09-01T01:17:18Z</time>
  <course>88.63</course>
  <speed>0.9602083107326242</speed>
  <fix>3d</fix>
</trkpt>
<trkpt lat="33.8103097" lon="-118.3941922">
  <ele>-37.25</ele>
  <time>2026-09-01T01:17:18Z</time>
  <course>89.58</course>
  <speed>0.94</speed>
  <fix>3d</fix>
</trkpt>
<trkpt lat="33.8103099" lon="-118.3941897">
  <ele>-38.145</ele>
  <time>2026-09-01T01:17:18Z</time>
  <course>88.63</course>
  <speed>0.9602083107326242</speed>
  <fix>3d</fix>
</trkpt>
<trkpt lat="33.8103097" lon="-118.3941922">
  <ele>-37.25</ele>
  <time>2026-09-01T01:17:18Z</time>
  <course>89.58</course>
  <speed>0.94</speed>
  <fix>3d</fix>
</trkpt>
<trkpt lat="33.8103099" lon="-118.3941887">
  <ele>-38.133</ele>
  <time>2026-09-01T01:17:18Z</time>
  <course>88.63</course>
  <speed>0.9602083107326242</speed>
  <fix>3d</fix>
</trkpt>
<trkpt lat="33.8103098" lon="-118.3941902">
  <ele>-37.22</ele>
  <time>2026-09-01T01:17:18Z</time>
  <course>89.56</course>
  <speed>0.94</speed>
  <fix>3d</fix>
</trkpt>
<trkpt lat="33.8103099" lon="-118.3941876">
  <ele>-38.119</ele>
  <time>2026-09-01T01:17:18Z</time>
  <course>88.64</course>
  <speed>0.9602083107326242</speed>
  <fix>3d</fix>
</trkpt>
<trkpt lat="33.8103098" lon="-118.3941902">
  <ele>-37.22</ele>
  <time>2026-09-01T01:17:18Z</time>
  <course>89.56</course>
  <speed>0.94</speed>
  <fix>3d</fix>
</trkpt>
<trkpt lat="33.8103099" lon="-118.3941866">
  <ele>-38.106</ele>
  <time>2026-09-01T01:17:18Z</time>
  <course>88.68</course>
  <speed>0.9602083107326242</speed>
  <fix>3d</fix>
</trkpt>
<trkpt lat="33.8103098" lon="-118.3941882">
  <ele>-37.19</ele>
  <time>2026-09-01T01:17:18Z</time>
  <course>89.6</course>
  <speed>0.94</speed>
  <fix>3d</fix>
</trkpt>
<trkpt lat="33.8103099" lon="-118.3941856">
  <ele>-38.092</ele>
  <time>2026-09-01T01:17:18Z</time>
  <course>88.73</course>
  <speed>0.9602083107326242</speed>
  <fix>3d</fix>
</trkpt>
<trkpt lat="33.8103098" lon="-118.3941882">
  <ele>-37.19</ele>
  <time>2026-09-01T01:17:18Z</time>
  <course>89.6</course>
  <speed>0.94</speed>
  <fix>3d</fix>
</trkpt>
<trkpt lat="33.8103099" lon="-118.3941846">
  <ele>-38.079</ele>
  <time>2026-09-01T01:17:18Z</time>
  <course>88.79</course>
  <speed>0.9602083107326242</speed>
  <fix>3d</fix>
</trkpt>
<trkpt lat="33.8103098" lon="-118.3941861">
  <ele>-37.17</ele>
  <time>2026-09-01T01:17:18Z</time>
  <course>89.7</course>
  <speed>0.94</speed>
  <fix>3d</fix>
</trkpt>
<trkpt lat="33.8103099" lon="-118.3941836">
  <ele>-38.067</ele>
  <time>2026-09-01T01:17:18Z</time>
  <course>88.85</course>
  <speed>0.9602083107326242</speed>
  <fix>3d</fix>
</trkpt>
<trkpt lat="33.8103098" lon="-118.3941861">
  <ele>-37.17</ele>
  <time>2026-09-01T01:17:18Z</time>
  <course>89.7</course>
  <speed>0.94</speed>
  <fix>3d</fix>
</trkpt>
<trkpt lat="33.8103099" lon="-118.3941825">
  <ele>-38.054</ele>
  <time>2026-09-01T01:17:18Z</time>
  <course>88.9</course>
  <speed>0.9602083107326242</speed>
  <fix>3d</fix>
</trkpt>
<trkpt lat="33.8103098" lon="-118.3941841">
  <ele>-37.15</ele>
  <time>2026-09-01T01:17:18Z</time>
  <course>89.8</course>
  <speed>0.94</speed>
  <fix>3d</fix>
</trkpt>
<trkpt lat="33.8103099" lon="-118.3941815">
  <ele>-38.042</ele>
  <time>2026-09-01T01:17:18Z</time>
  <course>88.95</course>
  <speed>0.9602083107326242</speed>
  <fix>3d</fix>
</trkpt>
<trkpt lat="33.8103098" lon="-118.3941841">
  <ele>-37.15</ele>
  <time>2026-09-01T01:17:18Z</time>
  <course>89.8</course>
  <speed>0.94</speed>
  <fix>3d</fix>
</trkpt>
<trkpt lat="33.8103099" lon="-118.3941804">
  <ele>-38.029</ele>
  <time>2026-09-01T01:17:18Z</time>
  <course>88.99</course>
  <speed>0.9600520819205591</speed>
  <fix>3d</fix>
</trkpt>
<trkpt lat="33.8103098" lon="-118.394182">
  <ele>-37.12</ele>
  <time>2026-09-01T01:17:18Z</time>
  <course>89.88</course>
  <speed>0.95</speed>
  <fix>3d</fix>
</trkpt>
<trkpt lat="33.8103099" lon="-118.3941794">
  <ele>-38.017</ele>
  <time>2026-09-01T01:17:18Z</time>
  <course>89.02</course>
  <speed>0.9602083107326242</speed>
  <fix>3d</fix>
</trkpt>
<trkpt lat="33.8103098" lon="-118.394182">
  <ele>-37.12</ele>
  <time>2026-09-01T01:17:18Z</time>
  <course>89.88</course>
  <speed>0.95</speed>
  <fix>3d</fix>
</trkpt>
<trkpt lat="33.8103099" lon="-118.3941784">
  <ele>-38.006</ele>
  <time>2026-09-01T01:17:18Z</time>
  <course>89.05</course>
  <speed>0.9600520819205591</speed>
  <fix>3d</fix>
</trkpt>
<trkpt lat="33.8103098" lon="-118.39418">
  <ele>-37.11</ele>
  <time>2026-09-01T01:17:18Z</time>
  <course>89.92</course>
  <speed>0.95</speed>
  <fix>3d</fix>
</trkpt>
<trkpt lat="33.8103099" lon="-118.3941774">
  <ele>-37.995</ele>
  <time>2026-09-01T01:17:18Z</time>
  <course>89.07</course>
  <speed>0.970051545022222</speed>
  <fix>3d</fix>
</trkpt>
<trkpt lat="33.8103098" lon="-118.39418">
  <ele>-37.11</ele>
  <time>2026-09-01T01:17:18Z</time>
  <course>89.92</course>
  <speed>0.95</speed>
  <fix>3d</fix>
</trkpt>
<trkpt lat="33.8103099" lon="-118.3941763">
  <ele>-37.984</ele>
  <time>2026-09-01T01:17:18Z</time>
  <course>89.09</course>
  <speed>0.970051545022222</speed>
  <fix>3d</fix>
</trkpt>
<trkpt lat="33.8103098" lon="-118.3941779">
  <ele>-37.09</ele>
  <time>2026-09-01T01:17:18Z</time>
  <course>89.94</course>
  <speed>0.95</speed>
  <fix>3d</fix>
</trkpt>
<trkpt lat="33.8103099" lon="-118.3941753">
  <ele>-37.973</ele>
  <time>2026-09-01T01:17:18Z</time>
  <course>89.11</course>
  <speed>0.970051545022222</speed>
  <fix>3d</fix>
</trkpt>
<trkpt lat="33.8103098" lon="-118.3941779">
  <ele>-37.09</ele>
  <time>2026-09-01T01:17:18Z</time>
  <course>89.94</course>
  <speed>0.95</speed>
  <fix>3d</fix>
</trkpt>
<trkpt lat="33.8103099" lon="-118.3941743">
  <ele>-37.961</ele>
  <time>2026-09-01T01:17:18Z</time>
  <course>89.12</course>
  <speed>0.970051545022222</speed>
  <fix>3d</fix>
</trkpt>
<trkpt lat="33.8103098" lon="-118.3941758">
  <ele>-37.07</ele>
  <time>2026-09-01T01:17:18Z</time>
  <course>89.97</course>
  <speed>0.95</speed>
  <fix>3d</fix>
</trkpt>
<trkpt lat="33.8103099" lon="-118.3941732">
  <ele>-37.95</ele>
  <time>2026-09-01T01:17:18Z</time>
  <course>89.13</course>
  <speed>0.970051545022222</speed>
  <fix>3d</fix>
</trkpt>
<trkpt lat="33.8103098" lon="-118.3941758">
  <ele>-37.07</ele>
  <time>2026-09-01T01:17:18Z</time>
  <course>89.97</course>
  <speed>0.95</speed>
  <fix>3d</fix>
</trkpt>
<trkpt lat="33.8103099" lon="-118.3941722">
  <ele>-37.937</ele>
  <time>2026-09-01T01:17:18Z</time>
  <course>89.13</course>
  <speed>0.970051545022222</speed>
  <fix>3d</fix>
</trkpt>
<trkpt lat="33.8103098" lon="-118.3941738">
  <ele>-37.05</ele>
  <time>2026-09-01T01:17:18Z</time>
  <course>89.99</course>
  <speed>0.95</speed>
  <fix>3d</fix>
</trkpt>
<trkpt lat="33.8103099" lon="-118.3941711">
  <ele>-37.925</ele>
  <time>2026-09-01T01:17:18Z</time>
  <course>89.14</course>
  <speed>0.970051545022222</speed>
  <fix>3d</fix>
</trkpt>
<trkpt lat="33.8103098" lon="-118.3941738">
  <ele>-37.05</ele>
  <time>2026-09-01T01:17:18Z</time>
  <course>89.99</course>
  <speed>0.95</speed>
  <fix>3d</fix>
</trkpt>
<trkpt lat="33.8103099" lon="-118.3941701">
  <ele>-37.913</ele>
  <time>2026-09-01T01:17:18Z</time>
  <course>89.14</course>
  <speed>0.970051545022222</speed>
  <fix>3d</fix>
</trkpt>
<trkpt lat="33.8103098" lon="-118.3941717">
  <ele>-37.03</ele>
  <time>2026-09-01T01:17:18Z</time>
  <course>90.01</course>
  <speed>0.95</speed>
  <fix>3d</fix>
</trkpt>
<trkpt lat="33.8103099" lon="-118.3941691">
  <ele>-37.902</ele>
  <time>2026-09-01T01:17:18Z</time>
  <course>89.15</course>
  <speed>0.970051545022222</speed>
  <fix>3d</fix>
</trkpt>
<trkpt lat="33.8103098" lon="-118.3941717">
  <ele>-37.03</ele>
  <time>2026-09-01T01:17:18Z</time>
  <course>90.01</course>
  <speed>0.95</speed>
  <fix>3d</fix>
</trkpt>
<trkpt lat="33.8103099" lon="-118.394168">
  <ele>-37.891</ele>
  <time>2026-09-01T01:17:18Z</time>
  <course>89.15</course>
  <speed>0.970051545022222</speed>
  <fix>3d</fix>
</trkpt>
<trkpt lat="33.8103098" lon="-118.3941696">
  <ele>-37.0</ele>
  <time>2026-09-01T01:17:18Z</time>
  <course>90.03</course>
  <speed>0.95</speed>
  <fix>3d</fix>
</trkpt>
<trkpt lat="33.8103099" lon="-118.394167">
  <ele>-37.879</ele>
  <time>2026-09-01T01:17:18Z</time>
  <course>89.16</course>
  <speed>0.970051545022222</speed>
  <fix>3d</fix>
</trkpt>
<trkpt lat="33.8103098" lon="-118.3941696">
  <ele>-37.0</ele>
  <time>2026-09-01T01:17:18Z</time>
  <course>90.03</course>
  <speed>0.95</speed>
  <fix>3d</fix>
</trkpt>
<trkpt lat="33.8103099" lon="-118.394166">
  <ele>-37.867</ele>
  <time>2026-09-01T01:17:18Z</time>
  <course>89.16</course>
  <speed>0.970051545022222</speed>
  <fix>3d</fix>
</trkpt>
<trkpt lat="33.8103098" lon="-118.3941675">
  <ele>-36.98</ele>
  <time>2026-09-01T01:17:18Z</time>
  <course>90.04</course>
  <speed>0.95</speed>
  <fix>3d</fix>
</trkpt>
<trkpt lat="33.8103099" lon="-118.3941649">
  <ele>-37.855</ele>
  <time>2026-09-01T01:17:18Z</time>
  <course>89.16</course>
  <speed>0.970051545022222</speed>
  <fix>3d</fix>
</trkpt>
<trkpt lat="33.8103098" lon="-118.3941675">
  <ele>-36.98</ele>
  <time>2026-09-01T01:17:18Z</time>
  <course>90.04</course>
  <speed>0.95</speed>
  <fix>3d</fix>
</trkpt>
<trkpt lat="33.8103099" lon="-118.3941639">
  <ele>-37.841</ele>
  <time>2026-09-01T01:17:18Z</time>
  <course>89.16</course>
  <speed>0.970051545022222</speed>
  <fix>3d</fix>
</trkpt>
<trkpt lat="33.8103098" lon="-118.3941654">
  <ele>-36.96</ele>
  <time>2026-09-01T01:17:18Z</time>
  <course>90.07</course>
  <speed>0.95</speed>
  <fix>3d</fix>
</trkpt>
<trkpt lat="33.8103099" lon="-118.3941628">
  <ele>-37.828</ele>
  <time>2026-09-01T01:17:18Z</time>
  <course>89.16</course>
  <speed>0.970051545022222</speed>
  <fix>3d</fix>
</trkpt>
<trkpt lat="33.8103098" lon="-118.3941654">
  <ele>-36.96</ele>
  <time>2026-09-01T01:17:18Z</time>
  <course>90.07</course>
  <speed>0.95</speed>
  <fix>3d</fix>
</trkpt>
<trkpt lat="33.8103099" lon="-118.3941618">
  <ele>-37.815</ele>
  <time>2026-09-01T01:17:18Z</time>
  <course>89.15</course>
  <speed>0.970051545022222</speed>
  <fix>3d</fix>
</trkpt>
<trkpt lat="33.8103098" lon="-118.3941634">
  <ele>-36.93</ele>
  <time>2026-09-01T01:17:18Z</time>
  <course>90.09</course>
  <speed>0.96</speed>
  <fix>3d</fix>
</trkpt>
<trkpt lat="33.8103099" lon="-118.3941608">
  <ele>-37.802</ele>
  <time>2026-09-01T01:17:18Z</time>
  <course>89.15</course>
  <speed>0.970051545022222</speed>
  <fix>3d</fix>
</trkpt>
<trkpt lat="33.8103098" lon="-118.3941634">
  <ele>-36.93</ele>
  <time>2026-09-01T01:17:18Z</time>
  <course>90.09</course>
  <speed>0.96</speed>
  <fix>3d</fix>
</trkpt>
<trkpt lat="33.8103099" lon="-118.3941597">
  <ele>-37.79</ele>
  <time>2026-09-01T01:17:18Z</time>
  <course>89.15</course>
  <speed>0.970051545022222</speed>
  <fix>3d</fix>
</trkpt>
<trkpt lat="33.8103098" lon="-118.3941613">
  <ele>-36.91</ele>
  <time>2026-09-01T01:17:18Z</time>
  <course>90.11</course>
  <speed>0.96</speed>
  <fix>3d</fix>
</trkpt>
<trkpt lat="33.8103099" lon="-118.3941586">
  <ele>-37.778</ele>
  <time>2026-09-01T01:17:18Z</time>
  <course>89.15</course>
  <speed>0.9800510190801294</speed>
  <fix>3d</fix>
</trkpt>
<trkpt lat="33.8103098" lon="-118.3941613">
  <ele>-36.91</ele>
  <time>2026-09-01T01:17:18Z</time>
  <course>90.11</course>
  <speed>0.96</speed>
  <fix>3d</fix>
</trkpt>
<trkpt lat="33.8103099" lon="-118.3941576">
  <ele>-37.767</ele>
  <time>2026-09-01T01:17:18Z</time>
  <course>89.14</course>
  <speed>0.9800510190801294</speed>
  <fix>3d</fix>
</trkpt>
<trkpt lat="33.8103098" lon="-118.3941592">
  <ele>-36.88</ele>
  <time>2026-09-01T01:17:18Z</time>
  <course>90.13</course>
  <speed>0.96</speed>
  <fix>3d</fix>
</trkpt>
<trkpt lat="33.8103099" lon="-118.3941566">
  <ele>-37.755</ele>
  <time>2026-09-01T01:17:18Z</time>
  <course>89.14</course>
  <speed>0.9800510190801294</speed>
  <fix>3d</fix>
</trkpt>
<trkpt lat="33.8103098" lon="-118.3941592">
  <ele>-36.88</ele>
  <time>2026-09-01T01:17:18Z</time>
  <course>90.13</course>
  <speed>0.96</speed>
  <fix>3d</fix>
</trkpt>
<trkpt lat="33.8103099" lon="-118.3941555">
  <ele>-37.743</ele>
  <time>2026-09-01T01:17:18Z</time>
  <course>89.14</course>
  <speed>0.9800510190801294</speed>
  <fix>3d</fix>
</trkpt>
<trkpt lat="33.8103098" lon="-118.3941572">
  <ele>-36.86</ele>
  <time>2026-09-01T01:17:18Z</time>
  <course>90.14</course>
  <speed>0.96</speed>
  <fix>3d</fix>
</trkpt>
<trkpt lat="33.8103099" lon="-118.3941545">
  <ele>-37.73</ele>
  <time>2026-09-01T01:17:18Z</time>
  <course>89.14</course>
  <speed>0.9800510190801294</speed>
  <fix>3d</fix>
</trkpt>
<trkpt lat="33.8103098" lon="-118.3941572">
  <ele>-36.86</ele>
  <time>2026-09-01T01:17:18Z</time>
  <course>90.14</course>
  <speed>0.96</speed>
  <fix>3d</fix>
</trkpt>
<trkpt lat="33.8103099" lon="-118.3941534">
  <ele>-37.718</ele>
  <time>2026-09-01T01:17:18Z</time>
  <course>89.14</course>
  <speed>0.9800510190801294</speed>
  <fix>3d</fix>
</trkpt>
<trkpt lat="33.8103098" lon="-118.3941551">
  <ele>-36.83</ele>
  <time>2026-09-01T01:17:18Z</time>
  <course>90.17</course>
  <speed>0.96</speed>
  <fix>3d</fix>
</trkpt>
<trkpt lat="33.8103099" lon="-118.3941524">
  <ele>-37.707</ele>
  <time>2026-09-01T01:17:18Z</time>
  <course>89.13</course>
  <speed>0.9800510190801294</speed>
  <fix>3d</fix>
</trkpt>
<trkpt lat="33.8103098" lon="-118.3941551">
  <ele>-36.83</ele>
  <time>2026-09-01T01:17:18Z</time>
  <course>90.17</course>
  <speed>0.96</speed>
  <fix>3d</fix>
</trkpt>
<trkpt lat="33.8103099" lon="-118.3941513">
  <ele>-37.696</ele>
  <time>2026-09-01T01:17:18Z</time>
  <course>89.13</course>
  <speed>0.9800510190801294</speed>
  <fix>3d</fix>
</trkpt>
<trkpt lat="33.8103098" lon="-118.394153">
  <ele>-36.8</ele>
  <time>2026-09-01T01:17:18Z</time>
  <course>90.19</course>
  <speed>0.96</speed>
  <fix>3d</fix>
</trkpt>
<trkpt lat="33.8103099" lon="-118.3941503">
  <ele>-37.684</ele>
  <time>2026-09-01T01:17:18Z</time>
  <course>89.13</course>
  <speed>0.9800510190801294</speed>
  <fix>3d</fix>
</trkpt>
<trkpt lat="33.8103098" lon="-118.394153">
  <ele>-36.8</ele>
  <time>2026-09-01T01:17:18Z</time>
  <course>90.19</course>
  <speed>0.96</speed>
  <fix>3d</fix>
</trkpt>
<trkpt lat="33.8103099" lon="-118.3941492">
  <ele>-37.673</ele>
  <time>2026-09-01T01:17:18Z</time>
  <course>89.12</course>
  <speed>0.9800510190801294</speed>
  <fix>3d</fix>
</trkpt>
<trkpt lat="33.8103098" lon="-118.3941509">
  <ele>-36.79</ele>
  <time>2026-09-01T01:17:18Z</time>
  <course>90.21</course>
  <speed>0.96</speed>
  <fix>3d</fix>
</trkpt>
<trkpt lat="33.8103099" lon="-118.3941482">
  <ele>-37.663</ele>
  <time>2026-09-01T01:17:18Z</time>
  <course>89.12</course>
  <speed>0.9800510190801294</speed>
  <fix>3d</fix>
</trkpt>
<trkpt lat="33.8103098" lon="-118.3941509">
  <ele>-36.79</ele>
  <time>2026-09-01T01:17:18Z</time>
  <course>90.21</course>
  <speed>0.96</speed>
  <fix>3d</fix>
</trkpt>
<trkpt lat="33.8103099" lon="-118.3941471">
  <ele>-37.652</ele>
  <time>2026-09-01T01:17:18Z</time>
  <course>89.11</course>
  <speed>0.9800510190801294</speed>
  <fix>3d</fix>
</trkpt>
<trkpt lat="33.8103098" lon="-118.3941488">
  <ele>-36.76</ele>
  <time>2026-09-01T01:17:18Z</time>
  <course>90.24</course>
  <speed>0.97</speed>
  <fix>3d</fix>
</trkpt>
<trkpt lat="33.8103099" lon="-118.3941461">
  <ele>-37.64</ele>
  <time>2026-09-01T01:17:18Z</time>
  <course>89.11</course>
  <speed>0.9800510190801294</speed>
  <fix>3d</fix>
</trkpt>
<trkpt lat="33.8103098" lon="-118.3941488">
  <ele>-36.76</ele>
  <time>2026-09-01T01:17:18Z</time>
  <course>90.24</course>
  <speed>0.97</speed>
  <fix>3d</fix>
</trkpt>
<trkpt lat="33.8103099" lon="-118.394145">
  <ele>-37.628</ele>
  <time>2026-09-01T01:17:18Z</time>
  <course>89.1</course>
  <speed>0.9800510190801294</speed>
  <fix>3d</fix>
</trkpt>
<trkpt lat="33.8103098" lon="-118.3941467">
  <ele>-36.73</ele>
  <time>2026-09-01T01:17:18Z</time>
  <course>90.26</course>
  <speed>0.97</speed>
  <fix>3d</fix>
</trkpt>
<trkpt lat="33.8103099" lon="-118.394144">
  <ele>-37.616</ele>
  <time>2026-09-01T01:17:18Z</time>
  <course>89.09</course>
  <speed>0.9800510190801294</speed>
  <fix>3d</fix>
</trkpt>
<trkpt lat="33.8103098" lon="-118.3941467">
  <ele>-36.73</ele>
  <time>2026-09-01T01:17:18Z</time>
  <course>90.26</course>
  <speed>0.97</speed>
  <fix>3d</fix>
</trkpt>
<trkpt lat="33.8103099" lon="-118.3941429">
  <ele>-37.603</ele>
  <time>2026-09-01T01:17:18Z</time>
  <course>89.08</course>
  <speed>0.9800510190801294</speed>
  <fix>3d</fix>
</trkpt>
<trkpt lat="33.8103098" lon="-118.3941446">
  <ele>-36.72</ele>
  <time>2026-09-01T01:17:18Z</time>
  <course>90.26</course>
  <speed>0.97</speed>
  <fix>3d</fix>
</trkpt>
<trkpt lat="33.8103099" lon="-118.3941419">
  <ele>-37.591</ele>
  <time>2026-09-01T01:17:18Z</time>
  <course>89.08</course>
  <speed>0.9900505037623081</speed>
  <fix>3d</fix>
</trkpt>
<trkpt lat="33.8103098" lon="-118.3941446">
  <ele>-36.72</ele>
  <time>2026-09-01T01:17:18Z</time>
  <course>90.26</course>
  <speed>0.97</speed>
  <fix>3d</fix>
</trkpt>
<trkpt lat="33.8103099" lon="-118.3941409">
  <ele>-37.58</ele>
  <time>2026-09-01T01:17:18Z</time>
  <course>89.07</course>
  <speed>0.9900505037623081</speed>
  <fix>3d</fix>
</trkpt>
<trkpt lat="33.8103098" lon="-118.3941425">
  <ele>-36.69</ele>
  <time>2026-09-01T01:17:18Z</time>
  <course>90.27</course>
  <speed>0.97</speed>
  <fix>3d</fix>
</trkpt>
<trkpt lat="33.8103099" lon="-118.3941398">
  <ele>-37.569</ele>
  <time>2026-09-01T01:17:18Z</time>
  <course>89.07</course>
  <speed>0.9900505037623081</speed>
  <fix>3d</fix>
</trkpt>
<trkpt lat="33.8103098" lon="-118.3941425">
  <ele>-36.69</ele>
  <time>2026-09-01T01:17:18Z</time>
  <course>90.27</course>
  <speed>0.97</speed>
  <fix>3d</fix>
</trkpt>
<trkpt lat="33.8103099" lon="-118.3941388">
  <ele>-37.557</ele>
  <time>2026-09-01T01:17:18Z</time>
  <course>89.06</course>
  <speed>0.9900505037623081</speed>
  <fix>3d</fix>
</trkpt>
<trkpt lat="33.8103098" lon="-118.3941404">
  <ele>-36.67</ele>
  <time>2026-09-01T01:17:18Z</time>
  <course>90.29</course>
  <speed>0.97</speed>
  <fix>3d</fix>
</trkpt>
<trkpt lat="33.8103099" lon="-118.3941377">
  <ele>-37.543</ele>
  <time>2026-09-01T01:17:18Z</time>
  <course>89.07</course>
  <speed>0.9900505037623081</speed>
  <fix>3d</fix>
</trkpt>
<trkpt lat="33.8103098" lon="-118.3941404">
  <ele>-36.67</ele>
  <time>2026-09-01T01:17:18Z</time>
  <course>90.29</course>
  <speed>0.97</speed>
  <fix>3d</fix>
</trkpt>
<trkpt lat="33.8103099" lon="-118.3941366">
  <ele>-37.529</ele>
  <time>2026-09-01T01:17:18Z</time>
  <course>89.07</course>
  <speed>0.9900505037623081</speed>
  <fix>3d</fix>
</trkpt>
<trkpt lat="33.8103098" lon="-118.3941383">
  <ele>-36.65</ele>
  <time>2026-09-01T01:17:18Z</time>
  <course>90.31</course>
  <speed>0.97</speed>
  <fix>3d</fix>
</trkpt>
<trkpt lat="33.8103099" lon="-118.3941356">
  <ele>-37.517</ele>
  <time>2026-09-01T01:17:18Z</time>
  <course>89.07</course>
  <speed>0.9900505037623081</speed>
  <fix>3d</fix>
</trkpt>
<trkpt lat="33.8103098" lon="-118.3941383">
  <ele>-36.65</ele>
  <time>2026-09-01T01:17:18Z</time>
  <course>90.31</course>
  <speed>0.97</speed>
  <fix>3d</fix>
</trkpt>
<trkpt lat="33.8103099" lon="-118.3941345">
  <ele>-37.503</ele>
  <time>2026-09-01T01:17:18Z</time>
  <course>89.06</course>
  <speed>0.9900505037623081</speed>
  <fix>3d</fix>
</trkpt>
<trkpt lat="33.8103098" lon="-118.3941361">
  <ele>-36.62</ele>
  <time>2026-09-01T01:17:18Z</time>
  <course>90.34</course>
  <speed>0.97</speed>
  <fix>3d</fix>
</trkpt>
<trkpt lat="33.8103099" lon="-118.3941335">
  <ele>-37.489</ele>
  <time>2026-09-01T01:17:19Z</time>
  <course>89.06</course>
  <speed>0.9900505037623081</speed>
  <fix>3d</fix>
</trkpt>
<trkpt lat="33.8103098" lon="-118.3941361">
  <ele>-36.62</ele>
  <time>2026-09-01T01:17:19Z</time>
  <course>90.34</course>
  <speed>0.97</speed>
  <fix>3d</fix>
</trkpt>
<trkpt lat="33.8103099" lon="-118.3941324">
  <ele>-37.475</ele>
  <time>2026-09-01T01:17:19Z</time>
  <course>89.05</course>
  <speed>0.9900505037623081</speed>
  <fix>3d</fix>
</trkpt>
<trkpt lat="33.8103098" lon="-118.394134">
  <ele>-36.6</ele>
  <time>2026-09-01T01:17:19Z</time>
  <course>90.36</course>
  <speed>0.98</speed>
  <fix>3d</fix>
</trkpt>
<trkpt lat="33.8103099" lon="-118.3941314">
  <ele>-37.46</ele>
  <time>2026-09-01T01:17:19Z</time>
  <course>89.04</course>
  <speed>0.9902019995940222</speed>
  <fix>3d</fix>
</trkpt>
<trkpt lat="33.8103098" lon="-118.394134">
  <ele>-36.6</ele>
  <time>2026-09-01T01:17:19Z</time>
  <course>90.36</course>
  <speed>0.98</speed>
  <fix>3d</fix>
</trkpt>
<trkpt lat="33.8103099" lon="-118.3941303">
  <ele>-37.446</ele>
  <time>2026-09-01T01:17:19Z</time>
  <course>89.03</course>
  <speed>0.9900505037623081</speed>
  <fix>3d</fix>
</trkpt>
<trkpt lat="33.8103098" lon="-118.3941319">
  <ele>-36.58</ele>
  <time>2026-09-01T01:17:19Z</time>
  <course>90.36</course>
  <speed>0.98</speed>
  <fix>3d</fix>
</trkpt>
<trkpt lat="33.8103099" lon="-118.3941292">
  <ele>-37.432</ele>
  <time>2026-09-01T01:17:19Z</time>
  <course>89.03</course>
  <speed>0.9900505037623081</speed>
  <fix>3d</fix>
</trkpt>
<trkpt lat="33.8103098" lon="-118.3941319">
  <ele>-36.58</ele>
  <time>2026-09-01T01:17:19Z</time>
  <course>90.36</course>
  <speed>0.98</speed>
  <fix>3d</fix>
</trkpt>
<trkpt lat="33.8103099" lon="-118.3941282">
  <ele>-37.42</ele>
  <time>2026-09-01T01:17:19Z</time>
  <course>89.02</course>
  <speed>0.9900505037623081</speed>
  <fix>3d</fix>
</trkpt>
<trkpt lat="33.8103098" lon="-118.3941298">
  <ele>-36.55</ele>
  <time>2026-09-01T01:17:19Z</time>
  <course>90.37</course>
  <speed>0.98</speed>
  <fix>3d</fix>
</trkpt>
<trkpt lat="33.8103099" lon="-118.3941271">
  <ele>-37.408</ele>
  <time>2026-09-01T01:17:19Z</time>
  <course>89.02</course>
  <speed>0.9900505037623081</speed>
  <fix>3d</fix>
</trkpt>
<trkpt lat="33.8103098" lon="-118.3941298">
  <ele>-36.55</ele>
  <time>2026-09-01T01:17:19Z</time>
  <course>90.37</course>
  <speed>0.98</speed>
  <fix>3d</fix>
</trkpt>
<trkpt lat="33.8103099" lon="-118.3941261">
  <ele>-37.397</ele>
  <time>2026-09-01T01:17:19Z</time>
  <course>89.02</course>
  <speed>0.9900505037623081</speed>
  <fix>3d</fix>
</trkpt>
<trkpt lat="33.8103098" lon="-118.3941276">
  <ele>-36.53</ele>
  <time>2026-09-01T01:17:19Z</time>
  <course>90.41</course>
  <speed>0.98</speed>
  <fix>3d</fix>
</trkpt>
<trkpt lat="33.8103099" lon="-118.394125">
  <ele>-37.385</ele>
  <time>2026-09-01T01:17:19Z</time>
  <course>89.01</course>
  <speed>0.9900505037623081</speed>
  <fix>3d</fix>
</trkpt>
<trkpt lat="33.8103098" lon="-118.3941276">
  <ele>-36.53</ele>
  <time>2026-09-01T01:17:19Z</time>
  <course>90.41</course>
  <speed>0.98</speed>
  <fix>3d</fix>
</trkpt>
<trkpt lat="33.8103099" lon="-118.3941239">
  <ele>-37.372</ele>
  <time>2026-09-01T01:17:19Z</time>
  <course>89.0</course>
  <speed>0.9900505037623081</speed>
  <fix>3d</fix>
</trkpt>
<trkpt lat="33.8103098" lon="-118.3941255">
  <ele>-36.51</ele>
  <time>2026-09-01T01:17:19Z</time>
  <course>90.44</course>
  <speed>0.98</speed>
  <fix>3d</fix>
</trkpt>
<trkpt lat="33.8103099" lon="-118.3941229">
  <ele>-37.36</ele>
  <time>2026-09-01T01:17:19Z</time>
  <course>89.0</course>
  <speed>0.9900505037623081</speed>
  <fix>3d</fix>
</trkpt>
<trkpt lat="33.8103098" lon="-118.3941255">
  <ele>-36.51</ele>
  <time>2026-09-01T01:17:19Z</time>
  <course>90.44</course>
  <speed>0.98</speed>
  <fix>3d</fix>
</trkpt>
<trkpt lat="33.8103099" lon="-118.3941218">
  <ele>-37.348</ele>
  <time>2026-09-01T01:17:19Z</time>
  <course>88.99</course>
  <speed>0.9900505037623081</speed>
  <fix>3d</fix>
</trkpt>
<trkpt lat="33.8103097" lon="-118.3941234">
  <ele>-36.48</ele>
  <time>2026-09-01T01:17:19Z</time>
  <course>90.45</course>
  <speed>0.98</speed>
  <fix>3d</fix>
</trkpt>
<trkpt lat="33.8103099" lon="-118.3941208">
  <ele>-37.336</ele>
  <time>2026-09-01T01:17:19Z</time>
  <course>88.97</course>
  <speed>0.9902019995940222</speed>
  <fix>3d</fix>
</trkpt>
<trkpt lat="33.8103097" lon="-118.3941234">
  <ele>-36.48</ele>
  <time>2026-09-01T01:17:19Z</time>
  <course>90.45</course>
  <speed>0.98</speed>
  <fix>3d</fix>
</trkpt>
<trkpt lat="33.8103099" lon="-118.3941197">
  <ele>-37.326</ele>
  <time>2026-09-01T01:17:19Z</time>
  <course>88.93</course>
  <speed>0.9902019995940222</speed>
  <fix>3d</fix>
</trkpt>
<trkpt lat="33.8103097" lon="-118.3941213">
  <ele>-36.46</ele>
  <time>2026-09-01T01:17:19Z</time>
  <course>90.41</course>
  <speed>0.98</speed>
  <fix>3d</fix>
</trkpt>
<trkpt lat="33.8103099" lon="-118.3941186">
  <ele>-37.315</ele>
  <time>2026-09-01T01:17:19Z</time>
  <course>88.89</course>
  <speed>1.000199980003999</speed>
  <fix>3d</fix>
</trkpt>
<trkpt lat="33.8103097" lon="-118.3941213">
  <ele>-36.46</ele>
  <time>2026-09-01T01:17:19Z</time>
  <course>90.41</course>
  <speed>0.98</speed>
  <fix>3d</fix>
</trkpt>
<trkpt lat="33.8103099" lon="-118.3941176">
  <ele>-37.303</ele>
  <time>2026-09-01T01:17:19Z</time>
  <course>88.84</course>
  <speed>0.9902019995940222</speed>
  <fix>3d</fix>
</trkpt>
<trkpt lat="33.8103097" lon="-118.3941191">
  <ele>-36.44</ele>
  <time>2026-09-01T01:17:19Z</time>
  <course>90.31</course>
  <speed>0.98</speed>
  <fix>3d</fix>
</trkpt>
<trkpt lat="33.8103099" lon="-118.3941165">
  <ele>-37.291</ele>
  <time>2026-09-01T01:17:19Z</time>
  <course>88.78</course>
  <speed>1.000199980003999</speed>
  <fix>3d</fix>
</trkpt>
<trkpt lat="33.8103097" lon="-118.3941191">
  <ele>-36.44</ele>
  <time>2026-09-01T01:17:19Z</time>
  <course>90.31</course>
  <speed>0.98</speed>
  <fix>3d</fix>
</trkpt>
<trkpt lat="33.8103099" lon="-118.3941155">
  <ele>-37.279</ele>
  <time>2026-09-01T01:17:19Z</time>
  <course>88.73</course>
  <speed>1.000199980003999</speed>
  <fix>3d</fix>
</trkpt>
<trkpt lat="33.8103097" lon="-118.394117">
  <ele>-36.42</ele>
  <time>2026-09-01T01:17:19Z</time>
  <course>90.23</course>
  <speed>0.98</speed>
  <fix>3d</fix>
</trkpt>
<trkpt lat="33.8103099" lon="-118.3941144">
  <ele>-37.267</ele>
  <time>2026-09-01T01:17:19Z</time>
  <course>88.68</course>
  <speed>1.000199980003999</speed>
  <fix>3d</fix>
</trkpt>
<trkpt lat="33.8103097" lon="-118.394117">
  <ele>-36.42</ele>
  <time>2026-09-01T01:17:19Z</time>
  <course>90.23</course>
  <speed>0.98</speed>
  <fix>3d</fix>
</trkpt>
<trkpt lat="33.8103099" lon="-118.3941133">
  <ele>-37.255</ele>
  <time>2026-09-01T01:17:19Z</time>
  <course>88.64</course>
  <speed>1.000199980003999</speed>
  <fix>3d</fix>
</trkpt>
<trkpt lat="33.8103097" lon="-118.3941149">
  <ele>-36.39</ele>
  <time>2026-09-01T01:17:19Z</time>
  <course>90.17</course>
  <speed>0.98</speed>
  <fix>3d</fix>
</trkpt>
<trkpt lat="33.8103099" lon="-118.3941122">
  <ele>-37.244</ele>
  <time>2026-09-01T01:17:19Z</time>
  <course>88.6</course>
  <speed>1.000199980003999</speed>
  <fix>3d</fix>
</trkpt>
<trkpt lat="33.8103097" lon="-118.3941149">
  <ele>-36.39</ele>
  <time>2026-09-01T01:17:19Z</time>
  <course>90.17</course>
  <speed>0.98</speed>
  <fix>3d</fix>
</trkpt>
<trkpt lat="33.8103099" lon="-118.3941112">
  <ele>-37.232</ele>
  <time>2026-09-01T01:17:19Z</time>
  <course>88.57</course>
  <speed>1.000199980003999</speed>
  <fix>3d</fix>
</trkpt>
<trkpt lat="33.8103097" lon="-118.3941127">
  <ele>-36.37</ele>
  <time>2026-09-01T01:17:19Z</time>
  <course>90.13</course>
  <speed>0.98</speed>
  <fix>3d</fix>
</trkpt>
<trkpt lat="33.8103099" lon="-118.3941101">
  <ele>-37.219</ele>
  <time>2026-09-01T01:17:19Z</time>
  <course>88.55</course>
  <speed>1.000199980003999</speed>
  <fix>3d</fix>
</trkpt>
<trkpt lat="33.8103097" lon="-118.3941127">
  <ele>-36.37</ele>
  <time>2026-09-01T01:17:19Z</time>
  <course>90.13</course>
  <speed>0.98</speed>
  <fix>3d</fix>
</trkpt>
<trkpt lat="33.8103099" lon="-118.394109">
  <ele>-37.208</ele>
  <time>2026-09-01T01:17:19Z</time>
  <course>88.53</course>
  <speed>1.000199980003999</speed>
  <fix>3d</fix>
</trkpt>
<trkpt lat="33.8103097" lon="-118.3941106">
  <ele>-36.34</ele>
  <time>2026-09-01T01:17:19Z</time>
  <course>90.1</course>
  <speed>0.98</speed>
  <fix>3d</fix>
</trkpt>
<trkpt lat="33.8103099" lon="-118.394108">
  <ele>-37.196</ele>
  <time>2026-09-01T01:17:19Z</time>
  <course>88.51</course>
  <speed>1.000199980003999</speed>
  <fix>3d</fix>
</trkpt>
<trkpt lat="33.8103097" lon="-118.3941106">
  <ele>-36.34</ele>
  <time>2026-09-01T01:17:19Z</time>
  <course>90.1</course>
  <speed>0.98</speed>
  <fix>3d</fix>
</trkpt>
<trkpt lat="33.8103099" lon="-118.3941069">
  <ele>-37.185</ele>
  <time>2026-09-01T01:17:19Z</time>
  <course>88.5</course>
  <speed>1.000199980003999</speed>
  <fix>3d</fix>
</trkpt>
<trkpt lat="33.8103097" lon="-118.3941084">
  <ele>-36.31</ele>
  <time>2026-09-01T01:17:19Z</time>
  <course>90.09</course>
  <speed>0.98</speed>
  <fix>3d</fix>
</trkpt>
<trkpt lat="33.8103099" lon="-118.3941058">
  <ele>-37.173</ele>
  <time>2026-09-01T01:17:19Z</time>
  <course>88.5</course>
  <speed>1.000199980003999</speed>
  <fix>3d</fix>
</trkpt>
<trkpt lat="33.8103097" lon="-118.3941084">
  <ele>-36.31</ele>
  <time>2026-09-01T01:17:19Z</time>
  <course>90.09</course>
  <speed>0.98</speed>
  <fix>3d</fix>
</trkpt>
<trkpt lat="33.8103099" lon="-118.3941048">
  <ele>-37.159</ele>
  <time>2026-09-01T01:17:19Z</time>
  <course>88.49</course>
  <speed>1.000199980003999</speed>
  <fix>3d</fix>
</trkpt>
<trkpt lat="33.8103097" lon="-118.3941063">
  <ele>-36.29</ele>
  <time>2026-09-01T01:17:19Z</time>
  <course>90.09</course>
  <speed>0.99</speed>
  <fix>3d</fix>
</trkpt>
<trkpt lat="33.8103099" lon="-118.3941037">
  <ele>-37.147</ele>
  <time>2026-09-01T01:17:19Z</time>
  <course>88.49</course>
  <speed>1.000199980003999</speed>
  <fix>3d</fix>
</trkpt>
<trkpt lat="33.8103097" lon="-118.3941063">
  <ele>-36.29</ele>
  <time>2026-09-01T01:17:19Z</time>
  <course>90.09</course>
  <speed>0.99</speed>
  <fix>3d</fix>
</trkpt>
<trkpt lat="33.8103099" lon="-118.3941026">
  <ele>-37.135</ele>
  <time>2026-09-01T01:17:19Z</time>
  <course>88.48</course>
  <speed>1.000199980003999</speed>
  <fix>3d</fix>
</trkpt>
<trkpt lat="33.8103097" lon="-118.3941041">
  <ele>-36.26</ele>
  <time>2026-09-01T01:17:19Z</time>
  <course>90.08</course>
  <speed>0.98</speed>
  <fix>3d</fix>
</trkpt>
<trkpt lat="33.8103099" lon="-118.3941015">
  <ele>-37.123</ele>
  <time>2026-09-01T01:17:19Z</time>
  <course>88.49</course>
  <speed>1.000199980003999</speed>
  <fix>3d</fix>
</trkpt>
<trkpt lat="33.8103097" lon="-118.3941041">
  <ele>-36.26</ele>
  <time>2026-09-01T01:17:19Z</time>
  <course>90.08</course>
  <speed>0.98</speed>
  <fix>3d</fix>
</trkpt>
<trkpt lat="33.8103099" lon="-118.3941005">
  <ele>-37.111</ele>
  <time>2026-09-01T01:17:19Z</time>
  <course>88.48</course>
  <speed>1.000199980003999</speed>
  <fix>3d</fix>
</trkpt>
<trkpt lat="33.8103097" lon="-118.394102">
  <ele>-36.23</ele>
  <time>2026-09-01T01:17:19Z</time>
  <course>90.06</course>
  <speed>0.98</speed>
  <fix>3d</fix>
</trkpt>
<trkpt lat="33.8103099" lon="-118.3940994">
  <ele>-37.099</ele>
  <time>2026-09-01T01:17:19Z</time>
  <course>88.48</course>
  <speed>1.000199980003999</speed>
  <fix>3d</fix>
</trkpt>
<trkpt lat="33.8103097" lon="-118.394102">
  <ele>-36.23</ele>
  <time>2026-09-01T01:17:19Z</time>
  <course>90.06</course>
  <speed>0.98</speed>
  <fix>3d</fix>
</trkpt>
<trkpt lat="33.8103099" lon="-118.3940983">
  <ele>-37.086</ele>
  <time>2026-09-01T01:17:19Z</time>
  <course>88.48</course>
  <speed>1.000199980003999</speed>
  <fix>3d</fix>
</trkpt>
<trkpt lat="33.8103097" lon="-118.3940998">
  <ele>-36.22</ele>
  <time>2026-09-01T01:17:19Z</time>
  <course>90.04</course>
  <speed>0.98</speed>
  <fix>3d</fix>
</trkpt>
<trkpt lat="33.8103099" lon="-118.3940973">
  <ele>-37.075</ele>
  <time>2026-09-01T01:17:19Z</time>
  <course>88.48</course>
  <speed>1.000199980003999</speed>
  <fix>3d</fix>
</trkpt>
<trkpt lat="33.8103097" lon="-118.3940998">
  <ele>-36.22</ele>
  <time>2026-09-01T01:17:19Z</time>
  <course>90.04</course>
  <speed>0.98</speed>
  <fix>3d</fix>
</trkpt>
<trkpt lat="33.8103099" lon="-118.3940962">
  <ele>-37.063</ele>
  <time>2026-09-01T01:17:19Z</time>
  <course>88.48</course>
  <speed>1.000199980003999</speed>
  <fix>3d</fix>
</trkpt>
<trkpt lat="33.8103097" lon="-118.3940977">
  <ele>-36.19</ele>
  <time>2026-09-01T01:17:19Z</time>
  <course>90.03</course>
  <speed>0.98</speed>
  <fix>3d</fix>
</trkpt>
<trkpt lat="33.8103099" lon="-118.3940951">
  <ele>-37.052</ele>
  <time>2026-09-01T01:17:19Z</time>
  <course>88.49</course>
  <speed>1.000199980003999</speed>
  <fix>3d</fix>
</trkpt>
<trkpt lat="33.8103097" lon="-118.3940977">
  <ele>-36.19</ele>
  <time>2026-09-01T01:17:19Z</time>
  <course>90.03</course>
  <speed>0.98</speed>
  <fix>3d</fix>
</trkpt>
<trkpt lat="33.8103099" lon="-118.3940941">
  <ele>-37.041</ele>
  <time>2026-09-01T01:17:19Z</time>
  <course>88.49</course>
  <speed>1.000199980003999</speed>
  <fix>3d</fix>
</trkpt>
<trkpt lat="33.8103097" lon="-118.3940956">
  <ele>-36.17</ele>
  <time>2026-09-01T01:17:19Z</time>
  <course>90.02</course>
  <speed>0.98</speed>
  <fix>3d</fix>
</trkpt>
<trkpt lat="33.8103099" lon="-118.394093">
  <ele>-37.03</ele>
  <time>2026-09-01T01:17:19Z</time>
  <course>88.49</course>
  <speed>1.000199980003999</speed>
  <fix>3d</fix>
</trkpt>
<trkpt lat="33.8103097" lon="-118.3940956">
  <ele>-36.17</ele>
  <time>2026-09-01T01:17:19Z</time>
  <course>90.02</course>
  <speed>0.98</speed>
  <fix>3d</fix>
</trkpt>
<trkpt lat="33.8103099" lon="-118.3940919">
  <ele>-37.018</ele>
  <time>2026-09-01T01:17:19Z</time>
  <course>88.49</course>
  <speed>1.000199980003999</speed>
  <fix>3d</fix>
</trkpt>
<trkpt lat="33.8103097" lon="-118.3940935">
  <ele>-36.15</ele>
  <time>2026-09-01T01:17:19Z</time>
  <course>90.01</course>
  <speed>0.98</speed>
  <fix>3d</fix>
</trkpt>
<trkpt lat="33.8103099" lon="-118.3940908">
  <ele>-37.007</ele>
  <time>2026-09-01T01:17:19Z</time>
  <course>88.49</course>
  <speed>1.000199980003999</speed>
  <fix>3d</fix>
</trkpt>
<trkpt lat="33.8103097" lon="-118.3940935">
  <ele>-36.15</ele>
  <time>2026-09-01T01:17:19Z</time>
  <course>90.01</course>
  <speed>0.98</speed>
  <fix>3d</fix>
</trkpt>
<trkpt lat="33.8103099" lon="-118.3940898">
  <ele>-36.996</ele>
  <time>2026-09-01T01:17:19Z</time>
  <course>88.49</course>
  <speed>1.000199980003999</speed>
  <fix>3d</fix>
</trkpt>
<trkpt lat="33.8103097" lon="-118.3940913">
  <ele>-36.12</ele>
  <time>2026-09-01T01:17:19Z</time>
  <course>90.0</course>
  <speed>0.98</speed>
  <fix>3d</fix>
</trkpt>
<trkpt lat="33.8103099" lon="-118.3940887">
  <ele>-36.985</ele>
  <time>2026-09-01T01:17:19Z</time>
  <course>88.5</course>
  <speed>1.000199980003999</speed>
  <fix>3d</fix>
</trkpt>
<trkpt lat="33.8103097" lon="-118.3940913">
  <ele>-36.12</ele>
  <time>2026-09-01T01:17:19Z</time>
  <course>90.0</course>
  <speed>0.98</speed>
  <fix>3d</fix>
</trkpt>
<trkpt lat="33.8103099" lon="-118.3940876">
  <ele>-36.974</ele>
  <time>2026-09-01T01:17:19Z</time>
  <course>88.5</course>
  <speed>1.000199980003999</speed>
  <fix>3d</fix>
</trkpt>
<trkpt lat="33.8103097" lon="-118.3940892">
  <ele>-36.1</ele>
  <time>2026-09-01T01:17:19Z</time>
  <course>90.0</course>
  <speed>0.99</speed>
  <fix>3d</fix>
</trkpt>
<trkpt lat="33.8103099" lon="-118.3940865">
  <ele>-36.961</ele>
  <time>2026-09-01T01:17:19Z</time>
  <course>88.5</course>
  <speed>1.000199980003999</speed>
  <fix>3d</fix>
</trkpt>
<trkpt lat="33.8103097" lon="-118.3940892">
  <ele>-36.1</ele>
  <time>2026-09-01T01:17:19Z</time>
  <course>90.0</course>
  <speed>0.99</speed>
  <fix>3d</fix>
</trkpt>
<trkpt lat="33.8103099" lon="-118.3940855">
  <ele>-36.947</ele>
  <time>2026-09-01T01:17:19Z</time>
  <course>88.5</course>
  <speed>1.000199980003999</speed>
  <fix>3d</fix>
</trkpt>
<trkpt lat="33.8103097" lon="-118.3940871">
  <ele>-36.08</ele>
  <time>2026-09-01T01:17:19Z</time>
  <course>89.99</course>
  <speed>0.99</speed>
  <fix>3d</fix>
</trkpt>
<trkpt lat="33.8103099" lon="-118.3940844">
  <ele>-36.933</ele>
  <time>2026-09-01T01:17:19Z</time>
  <course>88.51</course>
  <speed>1.000199980003999</speed>
  <fix>3d</fix>
</trkpt>
<trkpt lat="33.8103097" lon="-118.3940871">
  <ele>-36.08</ele>
  <time>2026-09-01T01:17:19Z</time>
  <course>89.99</course>
  <speed>0.99</speed>
  <fix>3d</fix>
</trkpt>
<trkpt lat="33.8103099" lon="-118.3940833">
  <ele>-36.92</ele>
  <time>2026-09-01T01:17:19Z</time>
  <course>88.52</course>
  <speed>1.000199980003999</speed>
  <fix>3d</fix>
</trkpt>
<trkpt lat="33.8103097" lon="-118.3940849">
  <ele>-36.05</ele>
  <time>2026-09-01T01:17:19Z</time>
  <course>89.97</course>
  <speed>0.99</speed>
  <fix>3d</fix>
</trkpt>
<trkpt lat="33.8103099" lon="-118.3940822">
  <ele>-36.907</ele>
  <time>2026-09-01T01:17:19Z</time>
  <course>88.52</course>
  <speed>1.000199980003999</speed>
  <fix>3d</fix>
</trkpt>
<trkpt lat="33.8103097" lon="-118.3940849">
  <ele>-36.05</ele>
  <time>2026-09-01T01:17:19Z</time>
  <course>89.97</course>
  <speed>0.99</speed>
  <fix>3d</fix>
</trkpt>
<trkpt lat="33.8103099" lon="-118.3940812">
  <ele>-36.893</ele>
  <time>2026-09-01T01:17:19Z</time>
  <course>88.52</course>
  <speed>1.000199980003999</speed>
  <fix>3d</fix>
</trkpt>
<trkpt lat="33.8103097" lon="-118.3940828">
  <ele>-36.03</ele>
  <time>2026-09-01T01:17:19Z</time>
  <course>89.95</course>
  <speed>0.99</speed>
  <fix>3d</fix>
</trkpt>
<trkpt lat="33.8103099" lon="-118.3940801">
  <ele>-36.879</ele>
  <time>2026-09-01T01:17:19Z</time>
  <course>88.52</course>
  <speed>1.000199980003999</speed>
  <fix>3d</fix>
</trkpt>
<trkpt lat="33.8103097" lon="-118.3940828">
  <ele>-36.03</ele>
  <time>2026-09-01T01:17:19Z</time>
  <course>89.95</course>
  <speed>0.99</speed>
  <fix>3d</fix>
</trkpt>
<trkpt lat="33.8103099" lon="-118.394079">
  <ele>-36.866</ele>
  <time>2026-09-01T01:17:19Z</time>
  <course>88.52</course>
  <speed>1.010198000393982</speed>
  <fix>3d</fix>
</trkpt>
<trkpt lat="33.8103097" lon="-118.3940806">
  <ele>-36.01</ele>
  <time>2026-09-01T01:17:19Z</time>
  <course>89.94</course>
  <speed>0.99</speed>
  <fix>3d</fix>
</trkpt>
<trkpt lat="33.8103099" lon="-118.3940779">
  <ele>-36.854</ele>
  <time>2026-09-01T01:17:19Z</time>
  <course>88.53</course>
  <speed>1.010198000393982</speed>
  <fix>3d</fix>
</trkpt>
<trkpt lat="33.8103097" lon="-118.3940806">
  <ele>-36.01</ele>
  <time>2026-09-01T01:17:19Z</time>
  <course>89.94</course>
  <speed>0.99</speed>
  <fix>3d</fix>
</trkpt>
<trkpt lat="33.8103099" lon="-118.3940769">
  <ele>-36.842</ele>
  <time>2026-09-01T01:17:19Z</time>
  <course>88.53</course>
  <speed>1.010198000393982</speed>
  <fix>3d</fix>
</trkpt>
<trkpt lat="33.8103097" lon="-118.3940785">
  <ele>-35.98</ele>
  <time>2026-09-01T01:17:19Z</time>
  <course>89.94</course>
  <speed>0.99</speed>
  <fix>3d</fix>
</trkpt>
<trkpt lat="33.8103099" lon="-118.3940758">
  <ele>-36.829</ele>
  <time>2026-09-01T01:17:19Z</time>
  <course>88.53</course>
  <speed>1.010198000393982</speed>
  <fix>3d</fix>
</trkpt>
<trkpt lat="33.8103097" lon="-118.3940785">
  <ele>-35.98</ele>
  <time>2026-09-01T01:17:19Z</time>
  <course>89.94</course>
  <speed>0.99</speed>
  <fix>3d</fix>
</trkpt>
<trkpt lat="33.8103099" lon="-118.3940747">
  <ele>-36.817</ele>
  <time>2026-09-01T01:17:19Z</time>
  <course>88.53</course>
  <speed>1.010198000393982</speed>
  <fix>3d</fix>
</trkpt>
<trkpt lat="33.8103097" lon="-118.3940763">
  <ele>-35.96</ele>
  <time>2026-09-01T01:17:19Z</time>
  <course>89.93</course>
  <speed>0.99</speed>
  <fix>3d</fix>
</trkpt>
<trkpt lat="33.8103099" lon="-118.3940737">
  <ele>-36.804</ele>
  <time>2026-09-01T01:17:19Z</time>
  <course>88.54</course>
  <speed>1.010198000393982</speed>
  <fix>3d</fix>
</trkpt>
<trkpt lat="33.8103097" lon="-118.3940763">
  <ele>-35.96</ele>
  <time>2026-09-01T01:17:19Z</time>
  <course>89.93</course>
  <speed>0.99</speed>
  <fix>3d</fix>
</trkpt>
<trkpt lat="33.8103099" lon="-118.3940726">
  <ele>-36.791</ele>
  <time>2026-09-01T01:17:19Z</time>
  <course>88.53</course>
  <speed>1.010198000393982</speed>
  <fix>3d</fix>
</trkpt>
<trkpt lat="33.8103097" lon="-118.3940741">
  <ele>-35.94</ele>
  <time>2026-09-01T01:17:19Z</time>
  <course>89.92</course>
  <speed>0.99</speed>
  <fix>3d</fix>
</trkpt>
<trkpt lat="33.8103099" lon="-118.3940715">
  <ele>-36.778</ele>
  <time>2026-09-01T01:17:19Z</time>
  <course>88.54</course>
  <speed>1.010198000393982</speed>
  <fix>3d</fix>
</trkpt>
<trkpt lat="33.8103097" lon="-118.3940741">
  <ele>-35.94</ele>
  <time>2026-09-01T01:17:19Z</time>
  <course>89.92</course>
  <speed>0.99</speed>
  <fix>3d</fix>
</trkpt>
<trkpt lat="33.8103099" lon="-118.3940704">
  <ele>-36.765</ele>
  <time>2026-09-01T01:17:19Z</time>
  <course>88.54</course>
  <speed>1.010198000393982</speed>
  <fix>3d</fix>
</trkpt>
<trkpt lat="33.8103097" lon="-118.394072">
  <ele>-35.91</ele>
  <time>2026-09-01T01:17:19Z</time>
  <course>89.9</course>
  <speed>0.99</speed>
  <fix>3d</fix>
</trkpt>
<trkpt lat="33.8103099" lon="-118.3940693">
  <ele>-36.753</ele>
  <time>2026-09-01T01:17:19Z</time>
  <course>88.55</course>
  <speed>1.010198000393982</speed>
  <fix>3d</fix>
</trkpt>
<trkpt lat="33.8103097" lon="-118.394072">
  <ele>-35.91</ele>
  <time>2026-09-01T01:17:19Z</time>
  <course>89.9</course>
  <speed>0.99</speed>
  <fix>3d</fix>
</trkpt>
<trkpt lat="33.8103099" lon="-118.3940682">
  <ele>-36.741</ele>
  <time>2026-09-01T01:17:19Z</time>
  <course>88.55</course>
  <speed>1.010198000393982</speed>
  <fix>3d</fix>
</trkpt>
<trkpt lat="33.8103097" lon="-118.3940698">
  <ele>-35.89</ele>
  <time>2026-09-01T01:17:19Z</time>
  <course>89.88</course>
  <speed>0.99</speed>
  <fix>3d</fix>
</trkpt>
<trkpt lat="33.8103099" lon="-118.3940672">
  <ele>-36.729</ele>
  <time>2026-09-01T01:17:19Z</time>
  <course>88.55</course>
  <speed>1.010198000393982</speed>
  <fix>3d</fix>
</trkpt>
<trkpt lat="33.8103097" lon="-118.3940698">
  <ele>-35.89</ele>
  <time>2026-09-01T01:17:19Z</time>
  <course>89.88</course>
  <speed>0.99</speed>
  <fix>3d</fix>
</trkpt>
<trkpt lat="33.8103099" lon="-118.3940661">
  <ele>-36.718</ele>
  <time>2026-09-01T01:17:19Z</time>
  <course>88.56</course>
  <speed>1.010198000393982</speed>
  <fix>3d</fix>
</trkpt>
<trkpt lat="33.8103097" lon="-118.3940677">
  <ele>-35.86</ele>
  <time>2026-09-01T01:17:19Z</time>
  <course>89.87</course>
  <speed>0.99</speed>
  <fix>3d</fix>
</trkpt>
<trkpt lat="33.8103099" lon="-118.394065">
  <ele>-36.707</ele>
  <time>2026-09-01T01:17:19Z</time>
  <course>88.56</course>
  <speed>1.010198000393982</speed>
  <fix>3d</fix>
</trkpt>
<trkpt lat="33.8103097" lon="-118.3940677">
  <ele>-35.86</ele>
  <time>2026-09-01T01:17:19Z</time>
  <course>89.87</course>
  <speed>0.99</speed>
  <fix>3d</fix>
</trkpt>
<trkpt lat="33.8103099" lon="-118.3940639">
  <ele>-36.696</ele>
  <time>2026-09-01T01:17:19Z</time>
  <course>88.57</course>
  <speed>1.010198000393982</speed>
  <fix>3d</fix>
</trkpt>
<trkpt lat="33.8103097" lon="-118.3940655">
  <ele>-35.84</ele>
  <time>2026-09-01T01:17:19Z</time>
  <course>89.86</course>
  <speed>0.99</speed>
  <fix>3d</fix>
</trkpt>
<trkpt lat="33.8103099" lon="-118.3940628">
  <ele>-36.687</ele>
  <time>2026-09-01T01:17:19Z</time>
  <course>88.58</course>
  <speed>1.010198000393982</speed>
  <fix>3d</fix>
</trkpt>
<trkpt lat="33.8103097" lon="-118.3940655">
  <ele>-35.84</ele>
  <time>2026-09-01T01:17:19Z</time>
  <course>89.86</course>
  <speed>0.99</speed>
  <fix>3d</fix>
</trkpt>
<trkpt lat="33.8103099" lon="-118.3940618">
  <ele>-36.677</ele>
  <time>2026-09-01T01:17:19Z</time>
  <course>88.58</course>
  <speed>1.010198000393982</speed>
  <fix>3d</fix>
</trkpt>
<trkpt lat="33.8103097" lon="-118.3940634">
  <ele>-35.81</ele>
  <time>2026-09-01T01:17:19Z</time>
  <course>89.86</course>
  <speed>0.99</speed>
  <fix>3d</fix>
</trkpt>
<trkpt lat="33.8103099" lon="-118.3940607">
  <ele>-36.668</ele>
  <time>2026-09-01T01:17:19Z</time>
  <course>88.59</course>
  <speed>1.010198000393982</speed>
  <fix>3d</fix>
</trkpt>
<trkpt lat="33.8103097" lon="-118.3940634">
  <ele>-35.81</ele>
  <time>2026-09-01T01:17:19Z</time>
  <course>89.86</course>
  <speed>0.99</speed>
  <fix>3d</fix>
</trkpt>
<trkpt lat="33.8103099" lon="-118.3940596">
  <ele>-36.657</ele>
  <time>2026-09-01T01:17:19Z</time>
  <course>88.59</course>
  <speed>1.010198000393982</speed>
  <fix>3d</fix>
</trkpt>
<trkpt lat="33.8103097" lon="-118.3940612">
  <ele>-35.79</ele>
  <time>2026-09-01T01:17:19Z</time>
  <course>89.87</course>
  <speed>0.99</speed>
  <fix>3d</fix>
</trkpt>
<trkpt lat="33.8103099" lon="-118.3940585">
  <ele>-36.644</ele>
  <time>2026-09-01T01:17:19Z</time>
  <course>88.59</course>
  <speed>1.010198000393982</speed>
  <fix>3d</fix>
</trkpt>
<trkpt lat="33.8103097" lon="-118.3940612">
  <ele>-35.79</ele>
  <time>2026-09-01T01:17:19Z</time>
  <course>89.87</course>
  <speed>0.99</speed>
  <fix>3d</fix>
</trkpt>
<trkpt lat="33.8103099" lon="-118.3940574">
  <ele>-36.631</ele>
  <time>2026-09-01T01:17:19Z</time>
  <course>88.6</course>
  <speed>1.010198000393982</speed>
  <fix>3d</fix>
</trkpt>
<trkpt lat="33.8103097" lon="-118.3940591">
  <ele>-35.76</ele>
  <time>2026-09-01T01:17:19Z</time>
  <course>89.87</course>
  <speed>0.99</speed>
  <fix>3d</fix>
</trkpt>
<trkpt lat="33.8103099" lon="-118.3940564">
  <ele>-36.618</ele>
  <time>2026-09-01T01:17:19Z</time>
  <course>88.6</course>
  <speed>1.010198000393982</speed>
  <fix>3d</fix>
</trkpt>
<trkpt lat="33.8103097" lon="-118.3940591">
  <ele>-35.76</ele>
  <time>2026-09-01T01:17:19Z</time>
  <course>89.87</course>
  <speed>0.99</speed>
  <fix>3d</fix>
</trkpt>
<trkpt lat="33.8103099" lon="-118.3940553">
  <ele>-36.603</ele>
  <time>2026-09-01T01:17:19Z</time>
  <course>88.6</course>
  <speed>1.010198000393982</speed>
  <fix>3d</fix>
</trkpt>
<trkpt lat="33.8103097" lon="-118.3940569">
  <ele>-35.74</ele>
  <time>2026-09-01T01:17:19Z</time>
  <course>89.87</course>
  <speed>0.99</speed>
  <fix>3d</fix>
</trkpt>
<trkpt lat="33.8103099" lon="-118.3940542">
  <ele>-36.589</ele>
  <time>2026-09-01T01:17:19Z</time>
  <course>88.61</course>
  <speed>1.010198000393982</speed>
  <fix>3d</fix>
</trkpt>
<trkpt lat="33.8103097" lon="-118.3940569">
  <ele>-35.74</ele>
  <time>2026-09-01T01:17:19Z</time>
  <course>89.87</course>
  <speed>0.99</speed>
  <fix>3d</fix>
</trkpt>
<trkpt lat="33.8103099" lon="-118.3940531">
  <ele>-36.576</ele>
  <time>2026-09-01T01:17:19Z</time>
  <course>88.6</course>
  <speed>1.010198000393982</speed>
  <fix>3d</fix>
</trkpt>
<trkpt lat="33.8103097" lon="-118.3940548">
  <ele>-35.72</ele>
  <time>2026-09-01T01:17:19Z</time>
  <course>89.86</course>
  <speed>0.99</speed>
  <fix>3d</fix>
</trkpt>
<trkpt lat="33.8103099" lon="-118.3940521">
  <ele>-36.565</ele>
  <time>2026-09-01T01:17:19Z</time>
  <course>88.61</course>
  <speed>1.010198000393982</speed>
  <fix>3d</fix>
</trkpt>
<trkpt lat="33.8103097" lon="-118.3940548">
  <ele>-35.72</ele>
  <time>2026-09-01T01:17:19Z</time>
  <course>89.86</course>
  <speed>0.99</speed>
  <fix>3d</fix>
</trkpt>
<trkpt lat="33.8103099" lon="-118.394051">
  <ele>-36.553</ele>
  <time>2026-09-01T01:17:19Z</time>
  <course>88.6</course>
  <speed>1.010198000393982</speed>
  <fix>3d</fix>
</trkpt>
<trkpt lat="33.8103097" lon="-118.3940526">
  <ele>-35.69</ele>
  <time>2026-09-01T01:17:19Z</time>
  <course>89.85</course>
  <speed>0.99</speed>
  <fix>3d</fix>
</trkpt>
<trkpt lat="33.8103099" lon="-118.3940499">
  <ele>-36.541</ele>
  <time>2026-09-01T01:17:19Z</time>
  <course>88.61</course>
  <speed>1.010198000393982</speed>
  <fix>3d</fix>
</trkpt>
<trkpt lat="33.8103097" lon="-118.3940526">
  <ele>-35.69</ele>
  <time>2026-09-01T01:17:19Z</time>
  <course>89.85</course>
  <speed>0.99</speed>
  <fix>3d</fix>
</trkpt>
<trkpt lat="33.8103099" lon="-118.3940488">
  <ele>-36.53</ele>
  <time>2026-09-01T01:17:19Z</time>
  <course>88.6</course>
  <speed>1.010198000393982</speed>
  <fix>3d</fix>
</trkpt>
<trkpt lat="33.8103097" lon="-118.3940504">
  <ele>-35.67</ele>
  <time>2026-09-01T01:17:19Z</time>
  <course>89.83</course>
  <speed>0.99</speed>
  <fix>3d</fix>
</trkpt>
<trkpt lat="33.8103099" lon="-118.3940477">
  <ele>-36.519</ele>
  <time>2026-09-01T01:17:19Z</time>
  <course>88.61</course>
  <speed>1.010198000393982</speed>
  <fix>3d</fix>
</trkpt>
<trkpt lat="33.8103097" lon="-118.3940504">
  <ele>-35.67</ele>
  <time>2026-09-01T01:17:19Z</time>
  <course>89.83</course>
  <speed>0.99</speed>
  <fix>3d</fix>
</trkpt>
<trkpt lat="33.8103099" lon="-118.3940466">
  <ele>-36.508</ele>
  <time>2026-09-01T01:17:19Z</time>
  <course>88.61</course>
  <speed>1.010198000393982</speed>
  <fix>3d</fix>
</trkpt>
<trkpt lat="33.8103097" lon="-118.3940483">
  <ele>-35.65</ele>
  <time>2026-09-01T01:17:19Z</time>
  <course>89.82</course>
  <speed>0.99</speed>
  <fix>3d</fix>
</trkpt>
<trkpt lat="33.8103099" lon="-118.3940456">
  <ele>-36.497</ele>
  <time>2026-09-01T01:17:19Z</time>
  <course>88.61</course>
  <speed>1.010198000393982</speed>
  <fix>3d</fix>
</trkpt>
<trkpt lat="33.8103097" lon="-118.3940483">
  <ele>-35.65</ele>
  <time>2026-09-01T01:17:19Z</time>
  <course>89.82</course>
  <speed>0.99</speed>
  <fix>3d</fix>
</trkpt>
<trkpt lat="33.8103099" lon="-118.3940445">
  <ele>-36.486</ele>
  <time>2026-09-01T01:17:19Z</time>
  <course>88.61</course>
  <speed>1.010198000393982</speed>
  <fix>3d</fix>
</trkpt>
<trkpt lat="33.8103097" lon="-118.3940461">
  <ele>-35.62</ele>
  <time>2026-09-01T01:17:19Z</time>
  <course>89.82</course>
  <speed>0.99</speed>
  <fix>3d</fix>
</trkpt>
<trkpt lat="33.8103099" lon="-118.3940434">
  <ele>-36.475</ele>
  <time>2026-09-01T01:17:19Z</time>
  <course>88.61</course>
  <speed>1.010198000393982</speed>
  <fix>3d</fix>
</trkpt>
<trkpt lat="33.8103097" lon="-118.3940461">
  <ele>-35.62</ele>
  <time>2026-09-01T01:17:19Z</time>
  <course>89.82</course>
  <speed>0.99</speed>
  <fix>3d</fix>
</trkpt>
<trkpt lat="33.8103099" lon="-118.3940423">
  <ele>-36.464</ele>
  <time>2026-09-01T01:17:19Z</time>
  <course>88.62</course>
  <speed>1.010198000393982</speed>
  <fix>3d</fix>
</trkpt>
<trkpt lat="33.8103097" lon="-118.394044">
  <ele>-35.6</ele>
  <time>2026-09-01T01:17:19Z</time>
  <course>89.81</course>
  <speed>0.99</speed>
  <fix>3d</fix>
</trkpt>
<trkpt lat="33.8103099" lon="-118.3940412">
  <ele>-36.451</ele>
  <time>2026-09-01T01:17:19Z</time>
  <course>88.62</course>
  <speed>1.010198000393982</speed>
  <fix>3d</fix>
</trkpt>
<trkpt lat="33.8103097" lon="-118.394044">
  <ele>-35.6</ele>
  <time>2026-09-01T01:17:19Z</time>
  <course>89.81</course>
  <speed>0.99</speed>
  <fix>3d</fix>
</trkpt>
<trkpt lat="33.8103099" lon="-118.3940402">
  <ele>-36.437</ele>
  <time>2026-09-01T01:17:19Z</time>
  <course>88.62</course>
  <speed>1.010198000393982</speed>
  <fix>3d</fix>
</trkpt>
<trkpt lat="33.8103097" lon="-118.3940418">
  <ele>-35.58</ele>
  <time>2026-09-01T01:17:19Z</time>
  <course>89.8</course>
  <speed>0.99</speed>
  <fix>3d</fix>
</trkpt>
<trkpt lat="33.8103099" lon="-118.3940391">
  <ele>-36.424</ele>
  <time>2026-09-01T01:17:19Z</time>
  <course>88.63</course>
  <speed>1.010198000393982</speed>
  <fix>3d</fix>
</trkpt>
<trkpt lat="33.8103097" lon="-118.3940418">
  <ele>-35.58</ele>
  <time>2026-09-01T01:17:19Z</time>
  <course>89.8</course>
  <speed>0.99</speed>
  <fix>3d</fix>
</trkpt>
<trkpt lat="33.8103099" lon="-118.394038">
  <ele>-36.41</ele>
  <time>2026-09-01T01:17:19Z</time>
  <course>88.63</course>
  <speed>1.010198000393982</speed>
  <fix>3d</fix>
</trkpt>
<trkpt lat="33.8103097" lon="-118.3940397">
  <ele>-35.55</ele>
  <time>2026-09-01T01:17:19Z</time>
  <course>89.8</course>
  <speed>0.99</speed>
  <fix>3d</fix>
</trkpt>
<trkpt lat="33.8103099" lon="-118.3940369">
  <ele>-36.396</ele>
  <time>2026-09-01T01:17:19Z</time>
  <course>88.63</course>
  <speed>1.010198000393982</speed>
  <fix>3d</fix>
</trkpt>
<trkpt lat="33.8103097" lon="-118.3940397">
  <ele>-35.55</ele>
  <time>2026-09-01T01:17:19Z</time>
  <course>89.8</course>
  <speed>0.99</speed>
  <fix>3d</fix>
</trkpt>
<trkpt lat="33.8103099" lon="-118.3940358">
  <ele>-36.382</ele>
  <time>2026-09-01T01:17:19Z</time>
  <course>88.63</course>
  <speed>1.010198000393982</speed>
  <fix>3d</fix>
</trkpt>
<trkpt lat="33.8103097" lon="-118.3940375">
  <ele>-35.53</ele>
  <time>2026-09-01T01:17:19Z</time>
  <course>89.78</course>
  <speed>0.99</speed>
  <fix>3d</fix>
</trkpt>
<trkpt lat="33.8103099" lon="-118.3940348">
  <ele>-36.368</ele>
  <time>2026-09-01T01:17:19Z</time>
  <course>88.64</course>
  <speed>1.010198000393982</speed>
  <fix>3d</fix>
</trkpt>
<trkpt lat="33.8103097" lon="-118.3940375">
  <ele>-35.53</ele>
  <time>2026-09-01T01:17:19Z</time>
  <course>89.78</course>
  <speed>0.99</speed>
  <fix>3d</fix>
</trkpt>
<trkpt lat="33.8103099" lon="-118.3940337">
  <ele>-36.355</ele>
  <time>2026-09-01T01:17:19Z</time>
  <course>88.63</course>
  <speed>1.010198000393982</speed>
  <fix>3d</fix>
</trkpt>
<trkpt lat="33.8103097" lon="-118.3940354">
  <ele>-35.5</ele>
  <time>2026-09-01T01:17:19Z</time>
  <course>89.76</course>
  <speed>0.99</speed>
  <fix>3d</fix>
</trkpt>
<trkpt lat="33.8103099" lon="-118.3940326">
  <ele>-36.342</ele>
  <time>2026-09-01T01:17:19Z</time>
  <course>88.64</course>
  <speed>1.010198000393982</speed>
  <fix>3d</fix>
</trkpt>
<trkpt lat="33.8103097" lon="-118.3940354">
  <ele>-35.5</ele>
  <time>2026-09-01T01:17:19Z</time>
  <course>89.76</course>
  <speed>0.99</speed>
  <fix>3d</fix>
</trkpt>
<trkpt lat="33.8103099" lon="-118.3940315">
  <ele>-36.329</ele>
  <time>2026-09-01T01:17:19Z</time>
  <course>88.64</course>
  <speed>1.010198000393982</speed>
  <fix>3d</fix>
</trkpt>
<trkpt lat="33.8103097" lon="-118.3940332">
  <ele>-35.48</ele>
  <time>2026-09-01T01:17:19Z</time>
  <course>89.75</course>
  <speed>0.99</speed>
  <fix>3d</fix>
</trkpt>
<trkpt lat="33.8103099" lon="-118.3940304">
  <ele>-36.317</ele>
  <time>2026-09-01T01:17:19Z</time>
  <course>88.65</course>
  <speed>1.010198000393982</speed>
  <fix>3d</fix>
</trkpt>
<trkpt lat="33.8103097" lon="-118.3940332">
  <ele>-35.48</ele>
  <time>2026-09-01T01:17:19Z</time>
  <course>89.75</course>
  <speed>0.99</speed>
  <fix>3d</fix>
</trkpt>
<trkpt lat="33.8103099" lon="-118.3940294">
  <ele>-36.306</ele>
  <time>2026-09-01T01:17:19Z</time>
  <course>88.66</course>
  <speed>1.010198000393982</speed>
  <fix>3d</fix>
</trkpt>
<trkpt lat="33.8103097" lon="-118.394031">
  <ele>-35.45</ele>
  <time>2026-09-01T01:17:19Z</time>
  <course>89.75</course>
  <speed>0.99</speed>
  <fix>3d</fix>
</trkpt>
<trkpt lat="33.8103099" lon="-118.3940283">
  <ele>-36.296</ele>
  <time>2026-09-01T01:17:19Z</time>
  <course>88.66</course>
  <speed>1.010198000393982</speed>
  <fix>3d</fix>
</trkpt>
<trkpt lat="33.8103097" lon="-118.394031">
  <ele>-35.45</ele>
  <time>2026-09-01T01:17:19Z</time>
  <course>89.75</course>
  <speed>0.99</speed>
  <fix>3d</fix>
</trkpt>
<trkpt lat="33.8103099" lon="-118.3940272">
  <ele>-36.284</ele>
  <time>2026-09-01T01:17:19Z</time>
  <course>88.67</course>
  <speed>1.010198000393982</speed>
  <fix>3d</fix>
</trkpt>
<trkpt lat="33.8103097" lon="-118.3940289">
  <ele>-35.43</ele>
  <time>2026-09-01T01:17:19Z</time>
  <course>89.74</course>
  <speed>0.99</speed>
  <fix>3d</fix>
</trkpt>
<trkpt lat="33.8103099" lon="-118.3940261">
  <ele>-36.273</ele>
  <time>2026-09-01T01:17:19Z</time>
  <course>88.68</course>
  <speed>1.010198000393982</speed>
  <fix>3d</fix>
</trkpt>
<trkpt lat="33.8103097" lon="-118.3940289">
  <ele>-35.43</ele>
  <time>2026-09-01T01:17:19Z</time>
  <course>89.74</course>
  <speed>0.99</speed>
  <fix>3d</fix>
</trkpt>
<trkpt lat="33.8103099" lon="-118.394025">
  <ele>-36.262</ele>
  <time>2026-09-01T01:17:19Z</time>
  <course>88.68</course>
  <speed>1.010198000393982</speed>
  <fix>3d</fix>
</trkpt>
<trkpt lat="33.8103097" lon="-118.3940266">
  <ele>-35.41</ele>
  <time>2026-09-01T01:17:19Z</time>
  <course>89.74</course>
  <speed>1.0</speed>
  <fix>3d</fix>
</trkpt>
<trkpt lat="33.8103099" lon="-118.3940239">
  <ele>-36.251</ele>
  <time>2026-09-01T01:17:19Z</time>
  <course>88.69</course>
  <speed>1.010198000393982</speed>
  <fix>3d</fix>
</trkpt>
<trkpt lat="33.8103097" lon="-118.3940266">
  <ele>-35.41</ele>
  <time>2026-09-01T01:17:19Z</time>
  <course>89.74</course>
  <speed>1.0</speed>
  <fix>3d</fix>
</trkpt>
<trkpt lat="33.8103099" lon="-118.3940229">
  <ele>-36.241</ele>
  <time>2026-09-01T01:17:19Z</time>
  <course>88.69</course>
  <speed>1.010198000393982</speed>
  <fix>3d</fix>
</trkpt>
<trkpt lat="33.8103097" lon="-118.3940245">
  <ele>-35.38</ele>
  <time>2026-09-01T01:17:19Z</time>
  <course>89.73</course>
  <speed>0.99</speed>
  <fix>3d</fix>
</trkpt>
<trkpt lat="33.8103099" lon="-118.3940218">
  <ele>-36.23</ele>
  <time>2026-09-01T01:17:19Z</time>
  <course>88.69</course>
  <speed>1.010198000393982</speed>
  <fix>3d</fix>
</trkpt>
<trkpt lat="33.8103097" lon="-118.3940245">
  <ele>-35.38</ele>
  <time>2026-09-01T01:17:19Z</time>
  <course>89.73</course>
  <speed>0.99</speed>
  <fix>3d</fix>
</trkpt>
<trkpt lat="33.8103099" lon="-118.3940218">
  <ele>-36.229</ele>
  <time>2026-09-01T01:17:19Z</time>
  <course>88.69</course>
  <speed>1.010198000393982</speed>
  <fix>3d</fix>
</trkpt>
<trkpt lat="33.8103099" lon="-118.3940207">
  <ele>-36.218</ele>
  <time>2026-09-01T01:17:19Z</time>
  <course>88.69</course>
  <speed>1.010198000393982</speed>
  <fix>3d</fix>
</trkpt>
<trkpt lat="33.8103097" lon="-118.3940223">
  <ele>-35.36</ele>
  <time>2026-09-01T01:17:19Z</time>
  <course>89.73</course>
  <speed>0.99</speed>
  <fix>3d</fix>
</trkpt>
<trkpt lat="33.8103099" lon="-118.3940207">
  <ele>-36.217</ele>
  <time>2026-09-01T01:17:19Z</time>
  <course>88.69</course>
  <speed>1.010198000393982</speed>
  <fix>3d</fix>
</trkpt>
<trkpt lat="33.8103099" lon="-118.3940196">
  <ele>-36.205</ele>
  <time>2026-09-01T01:17:19Z</time>
  <course>88.69</course>
  <speed>1.010198000393982</speed>
  <fix>3d</fix>
</trkpt>
<trkpt lat="33.8103097" lon="-118.3940223">
  <ele>-35.36</ele>
  <time>2026-09-01T01:17:19Z</time>
  <course>89.73</course>
  <speed>0.99</speed>
  <fix>3d</fix>
</trkpt>
<trkpt lat="33.8103099" lon="-118.3940193">
  <ele>-36.201</ele>
  <time>2026-09-01T01:17:19Z</time>
  <course>88.69</course>
  <speed>1.010198000393982</speed>
  <fix>3d</fix>
</trkpt>
<trkpt lat="33.8103099" lon="-118.3940185">
  <ele>-36.193</ele>
  <time>2026-09-01T01:17:19Z</time>
  <course>88.69</course>
  <speed>1.010198000393982</speed>
  <fix>3d</fix>
</trkpt>
<trkpt lat="33.8103097" lon="-118.3940202">
  <ele>-35.34</ele>
  <time>2026-09-01T01:17:19Z</time>
  <course>89.72</course>
  <speed>0.99</speed>
  <fix>3d</fix>
</trkpt>
<trkpt lat="33.8103099" lon="-118.3940182">
  <ele>-36.189</ele>
  <time>2026-09-01T01:17:19Z</time>
  <course>88.69</course>
  <speed>1.010198000393982</speed>
  <fix>3d</fix>
</trkpt>
<trkpt lat="33.8103099" lon="-118.3940175">
  <ele>-36.18</ele>
  <time>2026-09-01T01:17:19Z</time>
  <course>88.69</course>
  <speed>1.010198000393982</speed>
  <fix>3d</fix>
</trkpt>
<trkpt lat="33.8103097" lon="-118.3940202">
  <ele>-35.34</ele>
  <time>2026-09-01T01:17:19Z</time>
  <course>89.72</course>
  <speed>0.99</speed>
  <fix>3d</fix>
</trkpt>
<trkpt lat="33.8103099" lon="-118.3940171">
  <ele>-36.177</ele>
  <time>2026-09-01T01:17:19Z</time>
  <course>88.69</course>
  <speed>1.010198000393982</speed>
  <fix>3d</fix>
</trkpt>
<trkpt lat="33.8103099" lon="-118.3940164">
  <ele>-36.168</ele>
  <time>2026-09-01T01:17:19Z</time>
  <course>88.69</course>
  <speed>1.010198000393982</speed>
  <fix>3d</fix>
</trkpt>
<trkpt lat="33.8103097" lon="-118.394018">
  <ele>-35.31</ele>
  <time>2026-09-01T01:17:19Z</time>
  <course>89.72</course>
  <speed>0.99</speed>
  <fix>3d</fix>
</trkpt>
<trkpt lat="33.8103099" lon="-118.394016">
  <ele>-36.164</ele>
  <time>2026-09-01T01:17:19Z</time>
  <course>88.69</course>
  <speed>1.010198000393982</speed>
  <fix>3d</fix>
</trkpt>
<trkpt lat="33.8103099" lon="-118.3940153">
  <ele>-36.156</ele>
  <time>2026-09-01T01:17:19Z</time>
  <course>88.69</course>
  <speed>1.010198000393982</speed>
  <fix>3d</fix>
</trkpt>
<trkpt lat="33.8103097" lon="-118.394018">
  <ele>-35.31</ele>
  <time>2026-09-01T01:17:19Z</time>
  <course>89.72</course>
  <speed>0.99</speed>
  <fix>3d</fix>
</trkpt>
<trkpt lat="33.8103099" lon="-118.394015">
  <ele>-36.153</ele>
  <time>2026-09-01T01:17:19Z</time>
  <course>88.69</course>
  <speed>1.010198000393982</speed>
  <fix>3d</fix>
</trkpt>
<trkpt lat="33.8103099" lon="-118.3940142">
  <ele>-36.145</ele>
  <time>2026-09-01T01:17:19Z</time>
  <course>88.69</course>
  <speed>1.010198000393982</speed>
  <fix>3d</fix>
</trkpt>
<trkpt lat="33.8103097" lon="-118.3940159">
  <ele>-35.29</ele>
  <time>2026-09-01T01:17:19Z</time>
  <course>89.71</course>
  <speed>0.99</speed>
  <fix>3d</fix>
</trkpt>
<trkpt lat="33.8103099" lon="-118.3940139">
  <ele>-36.141</ele>
  <time>2026-09-01T01:17:19Z</time>
  <course>88.69</course>
  <speed>1.010198000393982</speed>
  <fix>3d</fix>
</trkpt>
<trkpt lat="33.8103099" lon="-118.3940131">
  <ele>-36.133</ele>
  <time>2026-09-01T01:17:19Z</time>
  <course>88.69</course>
  <speed>1.010198000393982</speed>
  <fix>3d</fix>
</trkpt>
<trkpt lat="33.8103097" lon="-118.3940159">
  <ele>-35.29</ele>
  <time>2026-09-01T01:17:19Z</time>
  <course>89.71</course>
  <speed>0.99</speed>
  <fix>3d</fix>
</trkpt>
<trkpt lat="33.8103099" lon="-118.3940131">
  <ele>-36.133</ele>
  <time>2026-09-01T01:17:19Z</time>
  <course>88.69</course>
  <speed>1.010198000393982</speed>
  <fix>3d</fix>
</trkpt>
<trkpt lat="33.8103099" lon="-118.394012">
  <ele>-36.121</ele>
  <time>2026-09-01T01:17:19Z</time>
  <course>88.68</course>
  <speed>1.010198000393982</speed>
  <fix>3d</fix>
</trkpt>
<trkpt lat="33.8103097" lon="-118.3940137">
  <ele>-35.26</ele>
  <time>2026-09-01T01:17:19Z</time>
  <course>89.7</course>
  <speed>0.99</speed>
  <fix>3d</fix>
</trkpt>
<trkpt lat="33.8103099" lon="-118.3940117">
  <ele>-36.118</ele>
  <time>2026-09-01T01:17:19Z</time>
  <course>88.69</course>
  <speed>1.010198000393982</speed>
  <fix>3d</fix>
</trkpt>
<trkpt lat="33.8103099" lon="-118.394011">
  <ele>-36.109</ele>
  <time>2026-09-01T01:17:19Z</time>
  <course>88.69</course>
  <speed>1.010198000393982</speed>
  <fix>3d</fix>
</trkpt>
<trkpt lat="33.8103097" lon="-118.3940137">
  <ele>-35.26</ele>
  <time>2026-09-01T01:17:19Z</time>
  <course>89.7</course>
  <speed>0.99</speed>
  <fix>3d</fix>
</trkpt>
<trkpt lat="33.8103099" lon="-118.3940106">
  <ele>-36.104</ele>
  <time>2026-09-01T01:17:19Z</time>
  <course>88.69</course>
  <speed>1.010198000393982</speed>
  <fix>3d</fix>
</trkpt>
<trkpt lat="33.8103099" lon="-118.3940099">
  <ele>-36.095</ele>
  <time>2026-09-01T01:17:19Z</time>
  <course>88.69</course>
  <speed>1.010198000393982</speed>
  <fix>3d</fix>
</trkpt>
<trkpt lat="33.8103098" lon="-118.3940116">
  <ele>-35.23</ele>
  <time>2026-09-01T01:17:19Z</time>
  <course>89.7</course>
  <speed>0.99</speed>
  <fix>3d</fix>
</trkpt>
<trkpt lat="33.8103099" lon="-118.3940096">
  <ele>-36.091</ele>
  <time>2026-09-01T01:17:19Z</time>
  <course>88.69</course>
  <speed>1.010198000393982</speed>
  <fix>3d</fix>
</trkpt>
<trkpt lat="33.8103099" lon="-118.3940088">
  <ele>-36.082</ele>
  <time>2026-09-01T01:17:19Z</time>
  <course>88.7</course>
  <speed>1.010198000393982</speed>
  <fix>3d</fix>
</trkpt>
<trkpt lat="33.8103098" lon="-118.3940116">
  <ele>-35.23</ele>
  <time>2026-09-01T01:17:19Z</time>
  <course>89.7</course>
  <speed>0.99</speed>
  <fix>3d</fix>
</trkpt>
<trkpt lat="33.8103099" lon="-118.3940088">
  <ele>-36.081</ele>
  <time>2026-09-01T01:17:19Z</time>
  <course>88.7</course>
  <speed>1.010198000393982</speed>
  <fix>3d</fix>
</trkpt>
<trkpt lat="33.8103099" lon="-118.3940077">
  <ele>-36.068</ele>
  <time>2026-09-01T01:17:19Z</time>
  <course>88.74</course>
  <speed>1.010198000393982</speed>
  <fix>3d</fix>
</trkpt>
<trkpt lat="33.8103098" lon="-118.3940094">
  <ele>-35.21</ele>
  <time>2026-09-01T01:17:19Z</time>
  <course>89.74</course>
  <speed>0.99</speed>
  <fix>3d</fix>
</trkpt>
<trkpt lat="33.8103099" lon="-118.3940074">
  <ele>-36.064</ele>
  <time>2026-09-01T01:17:19Z</time>
  <course>88.76</course>
  <speed>1.010198000393982</speed>
  <fix>3d</fix>
</trkpt>
<trkpt lat="33.8103099" lon="-118.3940067">
  <ele>-36.054</ele>
  <time>2026-09-01T01:17:19Z</time>
  <course>88.79</course>
  <speed>1.010198000393982</speed>
  <fix>3d</fix>
</trkpt>
<trkpt lat="33.8103098" lon="-118.3940094">
  <ele>-35.21</ele>
  <time>2026-09-01T01:17:19Z</time>
  <course>89.74</course>
  <speed>0.99</speed>
  <fix>3d</fix>
</trkpt>
<trkpt lat="33.8103099" lon="-118.3940063">
  <ele>-36.049</ele>
  <time>2026-09-01T01:17:19Z</time>
  <course>88.81</course>
  <speed>1.010198000393982</speed>
  <fix>3d</fix>
</trkpt>
<trkpt lat="33.8103099" lon="-118.3940056">
  <ele>-36.039</ele>
  <time>2026-09-01T01:17:19Z</time>
  <course>88.85</course>
  <speed>1.010198000393982</speed>
  <fix>3d</fix>
</trkpt>
<trkpt lat="33.8103098" lon="-118.3940073">
  <ele>-35.19</ele>
  <time>2026-09-01T01:17:19Z</time>
  <course>89.84</course>
  <speed>0.99</speed>
  <fix>3d</fix>
</trkpt>
<trkpt lat="33.8103099" lon="-118.3940052">
  <ele>-36.034</ele>
  <time>2026-09-01T01:17:19Z</time>
  <course>88.86</course>
  <speed>1.010198000393982</speed>
  <fix>3d</fix>
</trkpt>
<trkpt lat="33.8103099" lon="-118.3940045">
  <ele>-36.024</ele>
  <time>2026-09-01T01:17:19Z</time>
  <course>88.9</course>
  <speed>1.010049503737317</speed>
  <fix>3d</fix>
</trkpt>
<trkpt lat="33.8103098" lon="-118.3940073">
  <ele>-35.19</ele>
  <time>2026-09-01T01:17:19Z</time>
  <course>89.84</course>
  <speed>0.99</speed>
  <fix>3d</fix>
</trkpt>
<trkpt lat="33.8103099" lon="-118.3940037">
  <ele>-36.014</ele>
  <time>2026-09-01T01:17:19Z</time>
  <course>88.94</course>
  <speed>1.010049503737317</speed>
  <fix>3d</fix>
</trkpt>
<trkpt lat="33.8103099" lon="-118.3940034">
  <ele>-36.011</ele>
  <time>2026-09-01T01:17:19Z</time>
  <course>88.95</course>
  <speed>1.010049503737317</speed>
  <fix>3d</fix>
</trkpt>
<trkpt lat="33.8103098" lon="-118.394005">
  <ele>-35.17</ele>
  <time>2026-09-01T01:17:19Z</time>
  <course>89.94</course>
  <speed>1.0</speed>
  <fix>3d</fix>
</trkpt>
<trkpt lat="33.8103099" lon="-118.3940023">
  <ele>-35.998</ele>
  <time>2026-09-01T01:17:19Z</time>
  <course>89.0</course>
  <speed>1.010049503737317</speed>
  <fix>3d</fix>
</trkpt>
<trkpt lat="33.8103098" lon="-118.394005">
  <ele>-35.17</ele>
  <time>2026-09-01T01:17:19Z</time>
  <course>89.94</course>
  <speed>1.0</speed>
  <fix>3d</fix>
</trkpt>
<trkpt lat="33.8103099" lon="-118.3940019">
  <ele>-35.994</ele>
  <time>2026-09-01T01:17:19Z</time>
  <course>89.01</course>
  <speed>1.010049503737317</speed>
  <fix>3d</fix>
</trkpt>
<trkpt lat="33.8103099" lon="-118.3940012">
  <ele>-35.987</ele>
  <time>2026-09-01T01:17:19Z</time>
  <course>89.04</course>
  <speed>1.010049503737317</speed>
  <fix>3d</fix>
</trkpt>
<trkpt lat="33.8103098" lon="-118.3940029">
  <ele>-35.14</ele>
  <time>2026-09-01T01:17:19Z</time>
  <course>90.01</course>
  <speed>1.0</speed>
  <fix>3d</fix>
</trkpt>
<trkpt lat="33.8103099" lon="-118.3940009">
  <ele>-35.984</ele>
  <time>2026-09-01T01:17:19Z</time>
  <course>89.05</course>
  <speed>1.010049503737317</speed>
  <fix>3d</fix>
</trkpt>
<trkpt lat="33.8103099" lon="-118.3940001">
  <ele>-35.975</ele>
  <time>2026-09-01T01:17:19Z</time>
  <course>89.07</course>
  <speed>1.010049503737317</speed>
  <fix>3d</fix>
</trkpt>
<trkpt lat="33.8103098" lon="-118.3940029">
  <ele>-35.14</ele>
  <time>2026-09-01T01:17:19Z</time>
  <course>90.01</course>
  <speed>1.0</speed>
  <fix>3d</fix>
</trkpt>
<trkpt lat="33.8103099" lon="-118.3939998">
  <ele>-35.971</ele>
  <time>2026-09-01T01:17:19Z</time>
  <course>89.08</course>
  <speed>1.010049503737317</speed>
  <fix>3d</fix>
</trkpt>
<trkpt lat="33.8103099" lon="-118.3939991">
  <ele>-35.963</ele>
  <time>2026-09-01T01:17:19Z</time>
  <course>89.1</course>
  <speed>1.010049503737317</speed>
  <fix>3d</fix>
</trkpt>
<trkpt lat="33.8103098" lon="-118.3940007">
  <ele>-35.12</ele>
  <time>2026-09-01T01:17:19Z</time>
  <course>90.05</course>
  <speed>0.99</speed>
  <fix>3d</fix>
</trkpt>
<trkpt lat="33.8103099" lon="-118.3939982">
  <ele>-35.951</ele>
  <time>2026-09-01T01:17:19Z</time>
  <course>89.12</course>
  <speed>0.7100704190430693</speed>
  <fix>3d</fix>
</trkpt>
<trkpt lat="33.8103098" lon="-118.3940007">
  <ele>-35.12</ele>
  <time>2026-09-01T01:17:19Z</time>
  <course>90.05</course>
  <speed>0.99</speed>
  <fix>3d</fix>
</trkpt>
<trkpt lat="33.8103099" lon="-118.3939975">
  <ele>-35.939</ele>
  <time>2026-09-01T01:17:19Z</time>
  <course>89.14</course>
  <speed>0.540092584655631</speed>
  <fix>3d</fix>
</trkpt>
<trkpt lat="33.8103098" lon="-118.3939987">
  <ele>-35.1</ele>
  <time>2026-09-01T01:17:19Z</time>
  <course>90.12</course>
  <speed>0.82</speed>
  <fix>3d</fix>
</trkpt>
<trkpt lat="33.8103099" lon="-118.393997">
  <ele>-35.927</ele>
  <time>2026-09-01T01:17:19Z</time>
  <course>89.16</course>
  <speed>0.44011362169330775</speed>
  <fix>3d</fix>
</trkpt>
<trkpt lat="33.8103098" lon="-118.3939987">
  <ele>-35.1</ele>
  <time>2026-09-01T01:17:19Z</time>
  <course>90.12</course>
  <speed>0.82</speed>
  <fix>3d</fix>
</trkpt>
<trkpt lat="33.8103099" lon="-118.3939966">
  <ele>-35.915</ele>
  <time>2026-09-01T01:17:19Z</time>
  <course>89.17</course>
  <speed>0.37013511046643494</speed>
  <fix>3d</fix>
</trkpt>
<trkpt lat="33.8103098" lon="-118.3939972">
  <ele>-35.08</ele>
  <time>2026-09-01T01:17:19Z</time>
  <course>90.23</course>
  <speed>0.52</speed>
  <fix>3d</fix>
</trkpt>
<trkpt lat="33.8103099" lon="-118.3939962">
  <ele>-35.904</ele>
  <time>2026-09-01T01:17:19Z</time>
  <course>89.19</course>
  <speed>0.32015621187164245</speed>
  <fix>3d</fix>
</trkpt>
<trkpt lat="33.8103098" lon="-118.3939972">
  <ele>-35.08</ele>
  <time>2026-09-01T01:17:19Z</time>
  <course>90.23</course>
  <speed>0.52</speed>
  <fix>3d</fix>
</trkpt>
<trkpt lat="33.8103099" lon="-118.3939958">
  <ele>-35.893</ele>
  <time>2026-09-01T01:17:19Z</time>
  <course>89.21</course>
  <speed>0.280178514522438</speed>
  <fix>3d</fix>
</trkpt>
<trkpt lat="33.8103098" lon="-118.3939963">
  <ele>-35.05</ele>
  <time>2026-09-01T01:17:19Z</time>
  <course>90.34</course>
  <speed>0.35</speed>
  <fix>3d</fix>
</trkpt>
<trkpt lat="33.8103099" lon="-118.3939955">
  <ele>-35.883</ele>
  <time>2026-09-01T01:17:19Z</time>
  <course>89.22</course>
  <speed>0.2601922366251538</speed>
  <fix>3d</fix>
</trkpt>
<trkpt lat="33.8103098" lon="-118.3939963">
  <ele>-35.05</ele>
  <time>2026-09-01T01:17:19Z</time>
  <course>90.34</course>
  <speed>0.35</speed>
  <fix>3d</fix>
</trkpt>
<trkpt lat="33.8103099" lon="-118.3939953">
  <ele>-35.873</ele>
  <time>2026-09-01T01:17:19Z</time>
  <course>89.24</course>
  <speed>0.23021728866442676</speed>
  <fix>3d</fix>
</trkpt>
<trkpt lat="33.8103098" lon="-118.3939957">
  <ele>-35.03</ele>
  <time>2026-09-01T01:17:19Z</time>
  <course>90.44</course>
  <speed>0.26</speed>
  <fix>3d</fix>
</trkpt>
<trkpt lat="33.8103099" lon="-118.393995">
  <ele>-35.863</ele>
  <time>2026-09-01T01:17:19Z</time>
  <course>89.26</course>
  <speed>0.22022715545545238</speed>
  <fix>3d</fix>
</trkpt>
<trkpt lat="33.8103098" lon="-118.3939957">
  <ele>-35.03</ele>
  <time>2026-09-01T01:17:19Z</time>
  <course>90.44</course>
  <speed>0.26</speed>
  <fix>3d</fix>
</trkpt>
<trkpt lat="33.8103099" lon="-118.3939948">
  <ele>-35.853</ele>
  <time>2026-09-01T01:17:19Z</time>
  <course>89.27</course>
  <speed>0.2002498439450079</speed>
  <fix>3d</fix>
</trkpt>
<trkpt lat="33.8103098" lon="-118.3939951">
  <ele>-35.01</ele>
  <time>2026-09-01T01:17:19Z</time>
  <course>90.53</course>
  <speed>0.21</speed>
  <fix>3d</fix>
</trkpt>
<trkpt lat="33.8103099" lon="-118.3939946">
  <ele>-35.844</ele>
  <time>2026-09-01T01:17:19Z</time>
  <course>89.29</course>
  <speed>0.19026297590440447</speed>
  <fix>3d</fix>
</trkpt>
<trkpt lat="33.8103098" lon="-118.3939951">
  <ele>-35.01</ele>
  <time>2026-09-01T01:17:19Z</time>
  <course>90.53</course>
  <speed>0.21</speed>
  <fix>3d</fix>
</trkpt>
<trkpt lat="33.8103099" lon="-118.3939944">
  <ele>-35.834</ele>
  <time>2026-09-01T01:17:19Z</time>
  <course>89.3</course>
  <speed>0.18027756377319945</speed>
  <fix>3d</fix>
</trkpt>
<trkpt lat="33.8103098" lon="-118.3939947">
  <ele>-34.98</ele>
  <time>2026-09-01T01:17:19Z</time>
  <course>90.61</course>
  <speed>0.17</speed>
  <fix>3d</fix>
</trkpt>
<trkpt lat="33.8103099" lon="-118.3939942">
  <ele>-35.824</ele>
  <time>2026-09-01T01:17:19Z</time>
  <course>89.32</course>
  <speed>0.17029386365926402</speed>
  <fix>3d</fix>
</trkpt>
<trkpt lat="33.8103098" lon="-118.3939947">
  <ele>-34.98</ele>
  <time>2026-09-01T01:17:19Z</time>
  <course>90.61</course>
  <speed>0.17</speed>
  <fix>3d</fix>
</trkpt>
<trkpt lat="33.8103099" lon="-118.3939941">
  <ele>-35.813</ele>
  <time>2026-09-01T01:17:19Z</time>
  <course>89.34</course>
  <speed>0.16031219541881397</speed>
  <fix>3d</fix>
</trkpt>
<trkpt lat="33.8103098" lon="-118.3939944">
  <ele>-34.97</ele>
  <time>2026-09-01T01:17:19Z</time>
  <course>90.69</course>
  <speed>0.15</speed>
  <fix>3d</fix>
</trkpt>
<trkpt lat="33.8103099" lon="-118.3939939">
  <ele>-35.803</ele>
  <time>2026-09-01T01:17:19Z</time>
  <course>89.35</course>
  <speed>0.15033296378372907</speed>
  <fix>3d</fix>
</trkpt>
<trkpt lat="33.8103098" lon="-118.3939944">
  <ele>-34.97</ele>
  <time>2026-09-01T01:17:19Z</time>
  <course>90.69</course>
  <speed>0.15</speed>
  <fix>3d</fix>
</trkpt>
<trkpt lat="33.8103099" lon="-118.3939938">
  <ele>-35.793</ele>
  <time>2026-09-01T01:17:19Z</time>
  <course>89.36</course>
  <speed>0.140356688476182</speed>
  <fix>3d</fix>
</trkpt>
<trkpt lat="33.8103098" lon="-118.393994">
  <ele>-34.94</ele>
  <time>2026-09-01T01:17:19Z</time>
  <course>90.76</course>
  <speed>0.13</speed>
  <fix>3d</fix>
</trkpt>
<trkpt lat="33.8103099" lon="-118.3939936">
  <ele>-35.783</ele>
  <time>2026-09-01T01:17:19Z</time>
  <course>89.38</course>
  <speed>0.140356688476182</speed>
  <fix>3d</fix>
</trkpt>
<trkpt lat="33.8103098" lon="-118.393994">
  <ele>-34.94</ele>
  <time>2026-09-01T01:17:19Z</time>
  <course>90.76</course>
  <speed>0.13</speed>
  <fix>3d</fix>
</trkpt>
<trkpt lat="33.8103099" lon="-118.3939935">
  <ele>-35.774</ele>
  <time>2026-09-01T01:17:19Z</time>
  <course>89.39</course>
  <speed>0.130384048104053</speed>
  <fix>3d</fix>
</trkpt>
<trkpt lat="33.8103098" lon="-118.3939938">
  <ele>-34.93</ele>
  <time>2026-09-01T01:17:19Z</time>
  <course>90.81</course>
  <speed>0.11</speed>
  <fix>3d</fix>
</trkpt>
<trkpt lat="33.8103099" lon="-118.3939933">
  <ele>-35.766</ele>
  <time>2026-09-01T01:17:19Z</time>
  <course>89.41</course>
  <speed>0.130384048104053</speed>
  <fix>3d</fix>
</trkpt>
<trkpt lat="33.8103098" lon="-118.3939938">
  <ele>-34.93</ele>
  <time>2026-09-01T01:17:19Z</time>
  <course>90.81</course>
  <speed>0.11</speed>
  <fix>3d</fix>
</trkpt>
<trkpt lat="33.8103099" lon="-118.3939932">
  <ele>-35.757</ele>
  <time>2026-09-01T01:17:19Z</time>
  <course>89.42</course>
  <speed>0.12041594578792296</speed>
  <fix>3d</fix>
</trkpt>
<trkpt lat="33.8103098" lon="-118.3939935">
  <ele>-34.92</ele>
  <time>2026-09-01T01:17:19Z</time>
  <course>90.87</course>
  <speed>0.1</speed>
  <fix>3d</fix>
</trkpt>
<trkpt lat="33.8103099" lon="-118.3939931">
  <ele>-35.748</ele>
  <time>2026-09-01T01:17:19Z</time>
  <course>89.44</course>
  <speed>0.12041594578792296</speed>
  <fix>3d</fix>
</trkpt>
<trkpt lat="33.8103098" lon="-118.3939935">
  <ele>-34.92</ele>
  <time>2026-09-01T01:17:19Z</time>
  <course>90.87</course>
  <speed>0.1</speed>
  <fix>3d</fix>
</trkpt>
<trkpt lat="33.8103099" lon="-118.393993">
  <ele>-35.739</ele>
  <time>2026-09-01T01:17:19Z</time>
  <course>89.45</course>
  <speed>0.12041594578792296</speed>
  <fix>3d</fix>
</trkpt>
<trkpt lat="33.8103098" lon="-118.3939933">
  <ele>-34.9</ele>
  <time>2026-09-01T01:17:19Z</time>
  <course>90.92</course>
  <speed>0.09</speed>
  <fix>3d</fix>
</trkpt>
<trkpt lat="33.8103099" lon="-118.3939929">
  <ele>-35.729</ele>
  <time>2026-09-01T01:17:19Z</time>
  <course>89.46</course>
  <speed>0.11045361017187261</speed>
  <fix>3d</fix>
</trkpt>
<trkpt lat="33.8103098" lon="-118.3939933">
  <ele>-34.9</ele>
  <time>2026-09-01T01:17:19Z</time>
  <course>90.92</course>
  <speed>0.09</speed>
  <fix>3d</fix>
</trkpt>
<trkpt lat="33.8103099" lon="-118.3939928">
  <ele>-35.72</ele>
  <time>2026-09-01T01:17:19Z</time>
  <course>89.48</course>
  <speed>0.11045361017187261</speed>
  <fix>3d</fix>
</trkpt>
<trkpt lat="33.8103098" lon="-118.3939931">
  <ele>-34.87</ele>
  <time>2026-09-01T01:17:19Z</time>
  <course>90.98</course>
  <speed>0.08</speed>
  <fix>3d</fix>
</trkpt>
<trkpt lat="33.8103099" lon="-118.3939927">
  <ele>-35.712</ele>
  <time>2026-09-01T01:17:19Z</time>
  <course>89.49</course>
  <speed>0.11045361017187261</speed>
  <fix>3d</fix>
</trkpt>
<trkpt lat="33.8103098" lon="-118.3939931">
  <ele>-34.87</ele>
  <time>2026-09-01T01:17:19Z</time>
  <course>90.98</course>
  <speed>0.08</speed>
  <fix>3d</fix>
</trkpt>
<trkpt lat="33.8103099" lon="-118.3939926">
  <ele>-35.704</ele>
  <time>2026-09-01T01:17:19Z</time>
  <course>89.51</course>
  <speed>0.1004987562112089</speed>
  <fix>3d</fix>
</trkpt>
<trkpt lat="33.8103098" lon="-118.393993">
  <ele>-34.86</ele>
  <time>2026-09-01T01:17:19Z</time>
  <course>91.04</course>
  <speed>0.08</speed>
  <fix>3d</fix>
</trkpt>
<trkpt lat="33.8103099" lon="-118.3939925">
  <ele>-35.695</ele>
  <time>2026-09-01T01:17:19Z</time>
  <course>89.52</course>
  <speed>0.1004987562112089</speed>
  <fix>3d</fix>
</trkpt>
<trkpt lat="33.8103098" lon="-118.393993">
  <ele>-34.86</ele>
  <time>2026-09-01T01:17:19Z</time>
  <course>91.04</course>
  <speed>0.08</speed>
  <fix>3d</fix>
</trkpt>
<trkpt lat="33.8103099" lon="-118.3939922">
  <ele>-35.655</ele>
  <time>2026-09-01T01:17:19Z</time>
  <course>89.57</course>
  <speed>0.09219544457292887</speed>
  <fix>3d</fix>
</trkpt>
<trkpt lat="33.8103098" lon="-118.3939926">
  <ele>-34.82</ele>
  <time>2026-09-01T01:17:19Z</time>
  <course>91.13</course>
  <speed>0.07</speed>
  <fix>3d</fix>
</trkpt>
<trkpt lat="33.8103099" lon="-118.393992">
  <ele>-35.623</ele>
  <time>2026-09-01T01:17:19Z</time>
  <course>89.61</course>
  <speed>0.0824621125123532</speed>
  <fix>3d</fix>
</trkpt>
<trkpt lat="33.8103098" lon="-118.3939923">
  <ele>-34.78</ele>
  <time>2026-09-01T01:17:19Z</time>
  <course>91.2</course>
  <speed>0.06</speed>
  <fix>3d</fix>
</trkpt>
<trkpt lat="33.8103099" lon="-118.3939919">
  <ele>-35.613</ele>
  <time>2026-09-01T01:17:19Z</time>
  <course>89.62</course>
  <speed>0.0824621125123532</speed>
  <fix>3d</fix>
</trkpt>
<trkpt lat="33.8103098" lon="-118.3939923">
  <ele>-34.78</ele>
  <time>2026-09-01T01:17:19Z</time>
  <course>91.2</course>
  <speed>0.06</speed>
  <fix>3d</fix>
</trkpt>
<trkpt lat="33.8103099" lon="-118.3939919">
  <ele>-35.603</ele>
  <time>2026-09-01T01:17:19Z</time>
  <course>89.64</course>
  <speed>0.0824621125123532</speed>
  <fix>3d</fix>
</trkpt>
<trkpt lat="33.8103098" lon="-118.3939921">
  <ele>-34.76</ele>
  <time>2026-09-01T01:17:19Z</time>
  <course>91.24</course>
  <speed>0.05</speed>
  <fix>3d</fix>
</trkpt>
<trkpt lat="33.8103099" lon="-118.3939918">
  <ele>-35.593</ele>
  <time>2026-09-01T01:17:19Z</time>
  <course>89.65</course>
  <speed>0.0824621125123532</speed>
  <fix>3d</fix>
</trkpt>
<trkpt lat="33.8103098" lon="-118.3939921">
  <ele>-34.76</ele>
  <time>2026-09-01T01:17:19Z</time>
  <course>91.24</course>
  <speed>0.05</speed>
  <fix>3d</fix>
</trkpt>
<trkpt lat="33.8103099" lon="-118.3939918">
  <ele>-35.583</ele>
  <time>2026-09-01T01:17:19Z</time>
  <course>89.66</course>
  <speed>0.0824621125123532</speed>
  <fix>3d</fix>
</trkpt>
<trkpt lat="33.8103098" lon="-118.393992">
  <ele>-34.73</ele>
  <time>2026-09-01T01:17:19Z</time>
  <course>91.29</course>
  <speed>0.05</speed>
  <fix>3d</fix>
</trkpt>
<trkpt lat="33.8103099" lon="-118.3939917">
  <ele>-35.573</ele>
  <time>2026-09-01T01:17:19Z</time>
  <course>89.68</course>
  <speed>0.07280109889280519</speed>
  <fix>3d</fix>
</trkpt>
<trkpt lat="33.8103098" lon="-118.393992">
  <ele>-34.73</ele>
  <time>2026-09-01T01:17:19Z</time>
  <course>91.29</course>
  <speed>0.05</speed>
  <fix>3d</fix>
</trkpt>
<trkpt lat="33.8103099" lon="-118.3939916">
  <ele>-35.563</ele>
  <time>2026-09-01T01:17:19Z</time>
  <course>89.69</course>
  <speed>0.07280109889280519</speed>
  <fix>3d</fix>
</trkpt>
<trkpt lat="33.8103098" lon="-118.3939919">
  <ele>-34.72</ele>
  <time>2026-09-01T01:17:19Z</time>
  <course>91.33</course>
  <speed>0.05</speed>
  <fix>3d</fix>
</trkpt>
<trkpt lat="33.8103099" lon="-118.3939916">
  <ele>-35.554</ele>
  <time>2026-09-01T01:17:19Z</time>
  <course>89.7</course>
  <speed>0.07280109889280519</speed>
  <fix>3d</fix>
</trkpt>
<trkpt lat="33.8103098" lon="-118.3939919">
  <ele>-34.72</ele>
  <time>2026-09-01T01:17:19Z</time>
  <course>91.33</course>
  <speed>0.05</speed>
  <fix>3d</fix>
</trkpt>
<trkpt lat="33.8103099" lon="-118.3939915">
  <ele>-35.545</ele>
  <time>2026-09-01T01:17:19Z</time>
  <course>89.71</course>
  <speed>0.07280109889280519</speed>
  <fix>3d</fix>
</trkpt>
<trkpt lat="33.8103098" lon="-118.3939918">
  <ele>-34.7</ele>
  <time>2026-09-01T01:17:19Z</time>
  <course>91.37</course>
  <speed>0.05</speed>
  <fix>3d</fix>
</trkpt>
<trkpt lat="33.8103099" lon="-118.3939915">
  <ele>-35.535</ele>
  <time>2026-09-01T01:17:19Z</time>
  <course>89.73</course>
  <speed>0.07280109889280519</speed>
  <fix>3d</fix>
</trkpt>
<trkpt lat="33.8103098" lon="-118.3939918">
  <ele>-34.7</ele>
  <time>2026-09-01T01:17:19Z</time>
  <course>91.37</course>
  <speed>0.05</speed>
  <fix>3d</fix>
</trkpt>
<trkpt lat="33.8103099" lon="-118.3939914">
  <ele>-35.526</ele>
  <time>2026-09-01T01:17:19Z</time>
  <course>89.74</course>
  <speed>0.07280109889280519</speed>
  <fix>3d</fix>
</trkpt>
<trkpt lat="33.8103098" lon="-118.3939917">
  <ele>-34.69</ele>
  <time>2026-09-01T01:17:19Z</time>
  <course>91.39</course>
  <speed>0.04</speed>
  <fix>3d</fix>
</trkpt>
<trkpt lat="33.8103099" lon="-118.3939914">
  <ele>-35.516</ele>
  <time>2026-09-01T01:17:19Z</time>
  <course>89.75</course>
  <speed>0.07280109889280519</speed>
  <fix>3d</fix>
</trkpt>
<trkpt lat="33.8103098" lon="-118.3939917">
  <ele>-34.69</ele>
  <time>2026-09-01T01:17:19Z</time>
  <course>91.39</course>
  <speed>0.04</speed>
  <fix>3d</fix>
</trkpt>
<trkpt lat="33.8103099" lon="-118.3939913">
  <ele>-35.505</ele>
  <time>2026-09-01T01:17:19Z</time>
  <course>89.77</course>
  <speed>0.0632455532033676</speed>
  <fix>3d</fix>
</trkpt>
<trkpt lat="33.8103098" lon="-118.3939916">
  <ele>-34.67</ele>
  <time>2026-09-01T01:17:19Z</time>
  <course>91.41</course>
  <speed>0.04</speed>
  <fix>3d</fix>
</trkpt>
<trkpt lat="33.8103099" lon="-118.3939913">
  <ele>-35.495</ele>
  <time>2026-09-01T01:17:19Z</time>
  <course>89.78</course>
  <speed>0.0632455532033676</speed>
  <fix>3d</fix>
</trkpt>
<trkpt lat="33.8103098" lon="-118.3939916">
  <ele>-34.67</ele>
  <time>2026-09-01T01:17:19Z</time>
  <course>91.41</course>
  <speed>0.04</speed>
  <fix>3d</fix>
</trkpt>
<trkpt lat="33.8103099" lon="-118.3939912">
  <ele>-35.485</ele>
  <time>2026-09-01T01:17:19Z</time>
  <course>89.79</course>
  <speed>0.0632455532033676</speed>
  <fix>3d</fix>
</trkpt>
<trkpt lat="33.8103098" lon="-118.3939915">
  <ele>-34.65</ele>
  <time>2026-09-01T01:17:19Z</time>
  <course>91.43</course>
  <speed>0.04</speed>
  <fix>3d</fix>
</trkpt>
<trkpt lat="33.8103099" lon="-118.3939912">
  <ele>-35.475</ele>
  <time>2026-09-01T01:17:19Z</time>
  <course>89.8</course>
  <speed>0.0632455532033676</speed>
  <fix>3d</fix>
</trkpt>
<trkpt lat="33.81031" lon="-118.3939911">
  <ele>-35.464</ele>
  <time>2026-09-01T01:17:19Z</time>
  <course>89.82</course>
  <speed>0.0632455532033676</speed>
  <fix>3d</fix>
</trkpt>
<trkpt lat="33.81031" lon="-118.3939911">
  <ele>-35.454</ele>
  <time>2026-09-01T01:17:19Z</time>
  <course>89.83</course>
  <speed>0.0632455532033676</speed>
  <fix>3d</fix>
</trkpt>
<trkpt lat="33.81031" lon="-118.393991">
  <ele>-35.445</ele>
  <time>2026-09-01T01:17:19Z</time>
  <course>89.84</course>
  <speed>0.0632455532033676</speed>
  <fix>3d</fix>
</trkpt>
<trkpt lat="33.81031" lon="-118.3939909">
  <ele>-35.435</ele>
  <time>2026-09-01T01:17:19Z</time>
  <course>89.85</course>
  <speed>0.0632455532033676</speed>
  <fix>3d</fix>
</trkpt>
<trkpt lat="33.81031" lon="-118.3939909">
  <ele>-35.425</ele>
  <time>2026-09-01T01:17:19Z</time>
  <course>89.87</course>
  <speed>0.0670820393249937</speed>
  <fix>3d</fix>
</trkpt>
<trkpt lat="33.8103101" lon="-118.3939908">
  <ele>-35.414</ele>
  <time>2026-09-01T01:17:20Z</time>
  <course>89.88</course>
  <speed>0.0670820393249937</speed>
  <fix>3d</fix>
</trkpt>
<trkpt lat="33.8103101" lon="-118.3939907">
  <ele>-35.404</ele>
  <time>2026-09-01T01:17:20Z</time>
  <course>89.89</course>
  <speed>0.0670820393249937</speed>
  <fix>3d</fix>
</trkpt>
<trkpt lat="33.8103101" lon="-118.3939906">
  <ele>-35.393</ele>
  <time>2026-09-01T01:17:20Z</time>
  <course>89.9</course>
  <speed>0.0670820393249937</speed>
  <fix>3d</fix>
</trkpt>
<trkpt lat="33.8103102" lon="-118.3939906">
  <ele>-35.382</ele>
  <time>2026-09-01T01:17:20Z</time>
  <course>89.91</course>
  <speed>0.0670820393249937</speed>
  <fix>3d</fix>
</trkpt>
<trkpt lat="33.8103102" lon="-118.3939905">
  <ele>-35.372</ele>
  <time>2026-09-01T01:17:20Z</time>
  <course>89.93</course>
  <speed>0.0670820393249937</speed>
  <fix>3d</fix>
</trkpt>
<trkpt lat="33.8103102" lon="-118.3939904">
  <ele>-35.362</ele>
  <time>2026-09-01T01:17:20Z</time>
  <course>89.94</course>
  <speed>0.07211102550927978</speed>
  <fix>3d</fix>
</trkpt>
<trkpt lat="47.607584" lon="-122.343911">
  <ele>-0.095</ele>
  <time>2026-09-01T01:17:20Z</time>
  <course>173.5</course>
  <speed>0.0</speed>
  <fix>3d</fix>
</trkpt>
<trkpt lat="47.607584" lon="-122.343911">
  <ele>-0.098</ele>
  <time>2026-09-01T01:17:20Z</time>
  <course>174.02</course>
  <speed>0.0</speed>
  <fix>3d</fix>
</trkpt>
<trkpt lat="47.607584" lon="-122.343911">
  <ele>-0.099</ele>
  <time>2026-09-01T01:17:20Z</time>
  <course>174.89</course>
  <speed>0.0</speed>
  <fix>3d</fix>
</trkpt>
<trkpt lat="47.607584" lon="-122.343911">
  <ele>-0.1</ele>
  <time>2026-09-01T01:17:20Z</time>
  <course>175.72</course>
  <speed>0.0</speed>
  <fix>3d</fix>
</trkpt>
<trkpt lat="47.607584" lon="-122.343911">
  <ele>-0.103</ele>
  <time>2026-09-01T01:17:20Z</time>
  <course>176.45</course>
  <speed>0.0</speed>
  <fix>3d</fix>
</trkpt>
<trkpt lat="47.607584" lon="-122.343911">
  <ele>-0.105</ele>
  <time>2026-09-01T01:17:20Z</time>
  <course>177.13</course>
  <speed>0.0</speed>
  <fix>3d</fix>
</trkpt>
<trkpt lat="47.607584" lon="-122.343911">
  <ele>-0.106</ele>
  <time>2026-09-01T01:17:20Z</time>
  <course>177.77</course>
  <speed>0.0</speed>
  <fix>3d</fix>
</trkpt>
<trkpt lat="47.607584" lon="-122.343911">
  <ele>-0.105</ele>
  <time>2026-09-01T01:17:20Z</time>
  <course>178.38</course>
  <speed>0.0</speed>
  <fix>3d</fix>
</trkpt>
<trkpt lat="47.607584" lon="-122.343911">
  <ele>-0.103</ele>
  <time>2026-09-01T01:17:20Z</time>
  <course>178.96</course>
  <speed>0.0</speed>
  <fix>3d</fix>
</trkpt>
<trkpt lat="47.607584" lon="-122.343911">
  <ele>-0.1</ele>
  <time>2026-09-01T01:17:20Z</time>
  <course>179.52</course>
  <speed>0.0</speed>
  <fix>3d</fix>
</trkpt>
<trkpt lat="47.607584" lon="-122.343911">
  <ele>-0.098</ele>
  <time>2026-09-01T01:17:20Z</time>
  <course>180.07</course>
  <speed>0.0</speed>
  <fix>3d</fix>
</trkpt>
<trkpt lat="47.607584" lon="-122.343911">
  <ele>-0.095</ele>
  <time>2026-09-01T01:17:20Z</time>
  <course>180.59</course>
  <speed>0.0</speed>
  <fix>3d</fix>
</trkpt>
<trkpt lat="47.607584" lon="-122.343911">
  <ele>-0.093</ele>
  <time>2026-09-01T01:17:20Z</time>
  <course>181.08</course>
  <speed>0.0</speed>
  <fix>3d</fix>
</trkpt>
<trkpt lat="47.607584" lon="-122.343911">
  <ele>-0.089</ele>
  <time>2026-09-01T01:17:20Z</time>
  <course>181.56</course>
  <speed>0.0</speed>
  <fix>3d</fix>
</trkpt>
<trkpt lat="47.607584" lon="-122.343911">
  <ele>-0.085</ele>
  <time>2026-09-01T01:17:20Z</time>
  <course>182.02</course>
  <speed>0.0</speed>
  <fix>3d</fix>
</trkpt>
<trkpt lat="47.607584" lon="-122.343911">
  <ele>-0.08</ele>
  <time>2026-09-01T01:17:20Z</time>
  <course>182.46</course>
  <speed>0.0</speed>
  <fix>3d</fix>
</trkpt>
<trkpt lat="47.607584" lon="-122.343911">
  <ele>-0.077</ele>
  <time>2026-09-01T01:17:20Z</time>
  <course>182.89</course>
  <speed>0.0</speed>
  <fix>3d</fix>
</trkpt>
<trkpt lat="47.607584" lon="-122.343911">
  <ele>-0.072</ele>
  <time>2026-09-01T01:17:20Z</time>
  <course>183.3</course>
  <speed>0.0</speed>
  <fix>3d</fix>
</trkpt>
<trkpt lat="47.607584" lon="-122.343911">
  <ele>-0.066</ele>
  <time>2026-09-01T01:17:20Z</time>
  <course>183.7</course>
  <speed>0.0</speed>
  <fix>3d</fix>
</trkpt>
<trkpt lat="47.607584" lon="-122.343911">
  <ele>-0.06</ele>
  <time>2026-09-01T01:17:20Z</time>
  <course>184.09</course>
  <speed>0.0</speed>
  <fix>3d</fix>
</trkpt>
<trkpt lat="47.607584" lon="-122.343911">
  <ele>-0.055</ele>
  <time>2026-09-01T01:17:20Z</time>
  <course>184.47</course>
  <speed>0.0</speed>
  <fix>3d</fix>
</trkpt>
<trkpt lat="47.607584" lon="-122.343911">
  <ele>-0.051</ele>
  <time>2026-09-01T01:17:20Z</time>
  <course>184.83</course>
  <speed>0.0</speed>
  <fix>3d</fix>
</trkpt>
<trkpt lat="47.607584" lon="-122.343911">
  <ele>-0.052</ele>
  <time>2026-09-01T01:17:20Z</time>
  <course>185.18</course>
  <speed>0.0</speed>
  <fix>3d</fix>
</trkpt>
<trkpt lat="47.607584" lon="-122.343911">
  <ele>-0.057</ele>
  <time>2026-09-01T01:17:20Z</time>
  <course>185.52</course>
  <speed>0.0</speed>
  <fix>3d</fix>
</trkpt>
<trkpt lat="47.607584" lon="-122.343911">
  <ele>-0.064</ele>
  <time>2026-09-01T01:17:20Z</time>
  <course>185.84</course>
  <speed>0.0</speed>
  <fix>3d</fix>
</trkpt>
<trkpt lat="47.607584" lon="-122.343911">
  <ele>-0.071</ele>
  <time>2026-09-01T01:17:20Z</time>
  <course>186.15</course>
  <speed>0.0</speed>
  <fix>3d</fix>
</trkpt>
<trkpt lat="47.607584" lon="-122.343911">
  <ele>-0.077</ele>
  <time>2026-09-01T01:17:20Z</time>
  <course>186.46</course>
  <speed>0.0</speed>
  <fix>3d</fix>
</trkpt>
<trkpt lat="47.607584" lon="-122.343911">
  <ele>-0.082</ele>
  <time>2026-09-01T01:17:20Z</time>
  <course>186.75</course>
  <speed>0.0</speed>
  <fix>3d</fix>
</trkpt>
<trkpt lat="47.607584" lon="-122.343911">
  <ele>-0.088</ele>
  <time>2026-09-01T01:17:20Z</time>
  <course>187.03</course>
  <speed>0.0</speed>
  <fix>3d</fix>
</trkpt>
<trkpt lat="47.607584" lon="-122.343911">
  <ele>-0.092</ele>
  <time>2026-09-01T01:17:20Z</time>
  <course>187.3</course>
  <speed>0.0</speed>
  <fix>3d</fix>
</trkpt>
<trkpt lat="47.607584" lon="-122.343911">
  <ele>-0.096</ele>
  <time>2026-09-01T01:17:20Z</time>
  <course>187.55</course>
  <speed>0.0</speed>
  <fix>3d</fix>
</trkpt>
<trkpt lat="47.607584" lon="-122.343911">
  <ele>-0.098</ele>
  <time>2026-09-01T01:17:20Z</time>
  <course>187.8</course>
  <speed>0.0</speed>
  <fix>3d</fix>
</trkpt>
<trkpt lat="47.607584" lon="-122.343911">
  <ele>-0.098</ele>
  <time>2026-09-01T01:17:20Z</time>
  <course>188.04</course>
  <speed>0.0</speed>
  <fix>3d</fix>
</trkpt>
<trkpt lat="47.607584" lon="-122.343911">
  <ele>-0.097</ele>
  <time>2026-09-01T01:17:20Z</time>
  <course>188.27</course>
  <speed>0.0</speed>
  <fix>3d</fix>
</trkpt>
<trkpt lat="47.607584" lon="-122.343911">
  <ele>-0.095</ele>
  <time>2026-09-01T01:17:20Z</time>
  <course>188.48</course>
  <speed>0.0</speed>
  <fix>3d</fix>
</trkpt>
<trkpt lat="47.607584" lon="-122.343911">
  <ele>-0.092</ele>
  <time>2026-09-01T01:17:20Z</time>
  <course>188.69</course>
  <speed>0.0</speed>
  <fix>3d</fix>
</trkpt>
<trkpt lat="47.607584" lon="-122.343911">
  <ele>-0.088</ele>
  <time>2026-09-01T01:17:20Z</time>
  <course>188.89</course>
  <speed>0.0</speed>
  <fix>3d</fix>
</trkpt>
<trkpt lat="47.607584" lon="-122.343911">
  <ele>-0.085</ele>
  <time>2026-09-01T01:17:20Z</time>
  <course>189.08</course>
  <speed>0.0</speed>
  <fix>3d</fix>
</trkpt>
<trkpt lat="47.607584" lon="-122.343911">
  <ele>-0.082</ele>
  <time>2026-09-01T01:17:20Z</time>
  <course>189.26</course>
  <speed>0.0</speed>
  <fix>3d</fix>
</trkpt>
<trkpt lat="47.607584" lon="-122.343911">
  <ele>-0.08</ele>
  <time>2026-09-01T01:17:20Z</time>
  <course>189.43</course>
  <speed>0.0</speed>
  <fix>3d</fix>
</trkpt>
<trkpt lat="47.607584" lon="-122.343911">
  <ele>-0.078</ele>
  <time>2026-09-01T01:17:20Z</time>
  <course>189.59</course>
  <speed>0.0</speed>
  <fix>3d</fix>
</trkpt>
<trkpt lat="47.607584" lon="-122.343911">
  <ele>-0.075</ele>
  <time>2026-09-01T01:17:20Z</time>
  <course>189.75</course>
  <speed>0.0</speed>
  <fix>3d</fix>
</trkpt>
<trkpt lat="47.6075872" lon="-122.3439104">
  <ele>-0.091</ele>
  <time>2026-09-01T01:17:21Z</time>
  <course>173.68</course>
  <speed>0.0</speed>
  <fix>3d</fix>
</trkpt>
<trkpt lat="47.6075872" lon="-122.3439104">
  <ele>-0.089</ele>
  <time>2026-09-01T01:17:21Z</time>
  <course>174.22</course>
  <speed>0.0</speed>
  <fix>3d</fix>
</trkpt>
<trkpt lat="47.6075872" lon="-122.3439104">
  <ele>-0.087</ele>
  <time>2026-09-01T01:17:21Z</time>
  <course>174.94</course>
  <speed>0.0</speed>
  <fix>3d</fix>
</trkpt>
<trkpt lat="47.6075872" lon="-122.3439104">
  <ele>-0.083</ele>
  <time>2026-09-01T01:17:21Z</time>
  <course>175.68</course>
  <speed>0.0</speed>
  <fix>3d</fix>
</trkpt>
<trkpt lat="47.6075872" lon="-122.3439104">
  <ele>-0.079</ele>
  <time>2026-09-01T01:17:21Z</time>
  <course>176.39</course>
  <speed>0.0</speed>
  <fix>3d</fix>
</trkpt>
<trkpt lat="47.6075872" lon="-122.3439104">
  <ele>-0.074</ele>
  <time>2026-09-01T01:17:21Z</time>
  <course>177.05</course>
  <speed>0.0</speed>
  <fix>3d</fix>
</trkpt>
<trkpt lat="47.6075872" lon="-122.3439104">
  <ele>-0.07</ele>
  <time>2026-09-01T01:17:21Z</time>
  <course>177.69</course>
  <speed>0.0</speed>
  <fix>3d</fix>
</trkpt>
<trkpt lat="47.6075872" lon="-122.3439104">
  <ele>-0.066</ele>
  <time>2026-09-01T01:17:21Z</time>
  <course>178.3</course>
  <speed>0.0</speed>
  <fix>3d</fix>
</trkpt>
<trkpt lat="47.6075872" lon="-122.3439104">
  <ele>-0.061</ele>
  <time>2026-09-01T01:17:21Z</time>
  <course>178.89</course>
  <speed>0.0</speed>
  <fix>3d</fix>
</trkpt>
<trkpt lat="47.6075872" lon="-122.3439104">
  <ele>-0.056</ele>
  <time>2026-09-01T01:17:21Z</time>
  <course>179.47</course>
  <speed>0.0</speed>
  <fix>3d</fix>
</trkpt>
<trkpt lat="47.6075872" lon="-122.3439104">
  <ele>-0.053</ele>
  <time>2026-09-01T01:17:21Z</time>
  <course>180.04</course>
  <speed>0.0</speed>
  <fix>3d</fix>
</trkpt>
<trkpt lat="47.6075872" lon="-122.3439104">
  <ele>-0.052</ele>
  <time>2026-09-01T01:17:21Z</time>
  <course>180.59</course>
  <speed>0.0</speed>
  <fix>3d</fix>
</trkpt>
<trkpt lat="47.6075872" lon="-122.3439104">
  <ele>-0.257</ele>
  <time>2026-09-01T01:17:21Z</time>
  <course>0.0</course>
  <speed>0.0</speed>
  <fix>3d</fix>
</trkpt>
<trkpt lat="47.6075872" lon="-122.3439104">
  <ele>-0.243</ele>
  <time>2026-09-01T01:17:21Z</time>
  <course>0.0</course>
  <speed>0.0</speed>
  <fix>3d</fix>
</trkpt>
<trkpt lat="47.6075872" lon="-122.3439104">
  <ele>-0.204</ele>
  <time>2026-09-01T01:17:21Z</time>
  <course>0.0</course>
  <speed>0.0</speed>
  <fix>3d</fix>
</trkpt>
<trkpt lat="47.6075872" lon="-122.3439104">
  <ele>-0.175</ele>
  <time>2026-09-01T01:17:21Z</time>
  <course>0.0</course>
  <speed>0.0</speed>
  <fix>3d</fix>
</trkpt>
<trkpt lat="47.6075872" lon="-122.3439104">
  <ele>-0.159</ele>
  <time>2026-09-01T01:17:21Z</time>
  <course>0.0</course>
  <speed>0.0</speed>
  <fix>3d</fix>
</trkpt>
<trkpt lat="47.6075872" lon="-122.3439104">
  <ele>-0.152</ele>
  <time>2026-09-01T01:17:21Z</time>
  <course>0.01</course>
  <speed>0.0</speed>
  <fix>3d</fix>
</trkpt>
<trkpt lat="47.6075872" lon="-122.3439104">
  <ele>-0.19</ele>
  <time>2026-09-01T01:17:21Z</time>
  <course>188.68</course>
  <speed>0.0</speed>
  <fix>3d</fix>
</trkpt>
<trkpt lat="47.6075872" lon="-122.3439104">
  <ele>-0.173</ele>
  <time>2026-09-01T01:17:21Z</time>
  <course>188.68</course>
  <speed>0.0</speed>
  <fix>3d</fix>
</trkpt>
<trkpt lat="47.6075872" lon="-122.3439104">
  <ele>-0.155</ele>
  <time>2026-09-01T01:17:21Z</time>
  <course>188.68</course>
  <speed>0.0</speed>
  <fix>3d</fix>
</trkpt>
<trkpt lat="47.6075872" lon="-122.3439104">
  <ele>-0.14</ele>
  <time>2026-09-01T01:17:21Z</time>
  <course>188.68</course>
  <speed>0.0</speed>
  <fix>3d</fix>
</trkpt>
<trkpt lat="47.6075872" lon="-122.3439104">
  <ele>-0.124</ele>
  <time>2026-09-01T01:17:21Z</time>
  <course>188.68</course>
  <speed>0.0</speed>
  <fix>3d</fix>
</trkpt>
<trkpt lat="47.6075872" lon="-122.3439104">
  <ele>-0.108</ele>
  <time>2026-09-01T01:17:21Z</time>
  <course>188.68</course>
  <speed>0.0</speed>
  <fix>3d</fix>
</trkpt>
<trkpt lat="47.6075872" lon="-122.3439104">
  <ele>-0.093</ele>
  <time>2026-09-01T01:17:21Z</time>
  <course>188.68</course>
  <speed>0.0</speed>
  <fix>3d</fix>
</trkpt>
<trkpt lat="47.6075872" lon="-122.3439104">
  <ele>-0.078</ele>
  <time>2026-09-01T01:17:21Z</time>
  <course>188.68</course>
  <speed>0.0</speed>
  <fix>3d</fix>
</trkpt>
<trkpt lat="47.6075872" lon="-122.3439104">
  <ele>-0.062</ele>
  <time>2026-09-01T01:17:21Z</time>
  <course>188.68</course>
  <speed>0.0</speed>
  <fix>3d</fix>
</trkpt>
<trkpt lat="47.6075872" lon="-122.3439104">
  <ele>-0.051</ele>
  <time>2026-09-01T01:17:21Z</time>
  <course>188.68</course>
  <speed>0.0</speed>
  <fix>3d</fix>
</trkpt>
<trkpt lat="47.6075872" lon="-122.3439104">
  <ele>-0.046</ele>
  <time>2026-09-01T01:17:21Z</time>
  <course>188.68</course>
  <speed>0.0</speed>
  <fix>3d</fix>
</trkpt>
<trkpt lat="47.6075872" lon="-122.3439104">
  <ele>-0.047</ele>
  <time>2026-09-01T01:17:21Z</time>
  <course>188.68</course>
  <speed>0.0</speed>
  <fix>3d</fix>
</trkpt>
<trkpt lat="47.6075872" lon="-122.3439104">
  <ele>-0.054</ele>
  <time>2026-09-01T01:17:21Z</time>
  <course>188.68</course>
  <speed>0.0</speed>
  <fix>3d</fix>
</trkpt>
<trkpt lat="47.6075872" lon="-122.3439104">
  <ele>-0.064</ele>
  <time>2026-09-01T01:17:21Z</time>
  <course>188.68</course>
  <speed>0.0</speed>
  <fix>3d</fix>
</trkpt>
<trkpt lat="47.6075872" lon="-122.3439104">
  <ele>-0.073</ele>
  <time>2026-09-01T01:17:21Z</time>
  <course>188.68</course>
  <speed>0.0</speed>
  <fix>3d</fix>
</trkpt>
<trkpt lat="47.6075872" lon="-122.3439104">
  <ele>-0.081</ele>
  <time>2026-09-01T01:17:21Z</time>
  <course>188.68</course>
  <speed>0.0</speed>
  <fix>3d</fix>
</trkpt>
<trkpt lat="47.6075872" lon="-122.3439104">
  <ele>-0.089</ele>
  <time>2026-09-01T01:17:21Z</time>
  <course>188.68</course>
  <speed>0.0</speed>
  <fix>3d</fix>
</trkpt>
<trkpt lat="47.6075872" lon="-122.3439104">
  <ele>-0.095</ele>
  <time>2026-09-01T01:17:21Z</time>
  <course>188.68</course>
  <speed>0.0</speed>
  <fix>3d</fix>
</trkpt>
<trkpt lat="47.6075872" lon="-122.3439104">
  <ele>-0.098</ele>
  <time>2026-09-01T01:17:21Z</time>
  <course>188.68</course>
  <speed>0.0</speed>
  <fix>3d</fix>
</trkpt>
<trkpt lat="47.6075872" lon="-122.3439104">
  <ele>-0.099</ele>
  <time>2026-09-01T01:17:21Z</time>
  <course>188.68</course>
  <speed>0.0</speed>
  <fix>3d</fix>
</trkpt>
<trkpt lat="47.6075872" lon="-122.3439104">
  <ele>-0.1</ele>
  <time>2026-09-01T01:17:21Z</time>
  <course>188.68</course>
  <speed>0.0</speed>
  <fix>3d</fix>
</trkpt>
<trkpt lat="47.6075872" lon="-122.3439104">
  <ele>-0.103</ele>
  <time>2026-09-01T01:17:21Z</time>
  <course>188.68</course>
  <speed>0.0</speed>
  <fix>3d</fix>
</trkpt>
<trkpt lat="47.6075872" lon="-122.3439104">
  <ele>-0.105</ele>
  <time>2026-09-01T01:17:21Z</time>
  <course>188.68</course>
  <speed>0.0</speed>
  <fix>3d</fix>
</trkpt>
<trkpt lat="47.6075872" lon="-122.3439104">
  <ele>-0.106</ele>
  <time>2026-09-01T01:17:21Z</time>
  <course>188.68</course>
  <speed>0.0</speed>
  <fix>3d</fix>
</trkpt>
<trkpt lat="47.6075872" lon="-122.3439104">
  <ele>-0.105</ele>
  <time>2026-09-01T01:17:21Z</time>
  <course>188.68</course>
  <speed>0.0</speed>
  <fix>3d</fix>
</trkpt>
<trkpt lat="47.6075872" lon="-122.3439104">
  <ele>-0.103</ele>
  <time>2026-09-01T01:17:21Z</time>
  <course>188.68</course>
  <speed>0.0</speed>
  <fix>3d</fix>
</trkpt>
<trkpt lat="47.6075872" lon="-122.3439104">
  <ele>-0.1</ele>
  <time>2026-09-01T01:17:21Z</time>
  <course>188.68</course>
  <speed>0.0</speed>
  <fix>3d</fix>
</trkpt>
<trkpt lat="47.6075872" lon="-122.3439104">
  <ele>-0.098</ele>
  <time>2026-09-01T01:17:21Z</time>
  <course>188.68</course>
  <speed>0.0</speed>
  <fix>3d</fix>
</trkpt>
<trkpt lat="47.6075872" lon="-122.3439104">
  <ele>-0.095</ele>
  <time>2026-09-01T01:17:21Z</time>
  <course>188.68</course>
  <speed>0.0</speed>
  <fix>3d</fix>
</trkpt>
<trkpt lat="33.4368002" lon="-117.0859339">
  <ele>-0.11</ele>
  <time>2026-09-01T01:17:22Z</time>
  <course>0.0</course>
  <speed>0.0</speed>
  <fix>3d</fix>
</trkpt>
<trkpt lat="33.4368002" lon="-117.0859339">
  <ele>-0.11</ele>
  <time>2026-09-01T01:17:22Z</time>
  <course>0.0</course>
  <speed>0.0</speed>
  <fix>3d</fix>
</trkpt>
<trkpt lat="33.810313" lon="-118.393867">
  <ele>0.0</ele>
  <time>2026-09-01T01:17:22Z</time>
  <course>173.5</course>
  <speed>0.0</speed>
  <fix>3d</fix>
</trkpt>
<trkpt lat="33.810313" lon="-118.393867">
  <ele>-0.11</ele>
  <time>2026-09-01T01:17:22Z</time>
  <course>0.0</course>
  <speed>0.0</speed>
  <fix>3d</fix>
</trkpt>
<trkpt lat="33.4368002" lon="-117.0859339">
  <ele>-0.11</ele>
  <time>2026-09-01T01:17:22Z</time>
  <course>0.0</course>
  <speed>0.0</speed>
  <fix>3d</fix>
</trkpt>
<trkpt lat="33.4368002" lon="-117.0859339">
  <ele>-0.11</ele>
  <time>2026-09-01T01:17:22Z</time>
  <course>0.0</course>
  <speed>0.0</speed>
  <fix>3d</fix>
</trkpt>
<trkpt lat="33.810313" lon="-118.393867">
  <ele>0.0</ele>
  <time>2026-09-01T01:17:22Z</time>
  <course>173.5</course>
  <speed>0.0</speed>
  <fix>3d</fix>
</trkpt>
<trkpt lat="33.810313" lon="-118.393867">
  <ele>-0.11</ele>
  <time>2026-09-01T01:17:22Z</time>
  <course>0.0</course>
  <speed>0.0</speed>
  <fix>3d</fix>
</trkpt>
<trkpt lat="33.810313" lon="-118.393867">
  <ele>0.0</ele>
  <time>2026-09-01T01:17:22Z</time>
  <course>173.61</course>
  <speed>0.0</speed>
  <fix>3d</fix>
</trkpt>
<trkpt lat="33.810313" lon="-118.393867">
  <ele>-0.11</ele>
  <time>2026-09-01T01:17:22Z</time>
  <course>0.0</course>
  <speed>0.0</speed>
  <fix>3d</fix>
</trkpt>
<trkpt lat="33.810313" lon="-118.393867">
  <ele>0.0</ele>
  <time>2026-09-01T01:17:22Z</time>
  <course>173.98</course>
  <speed>0.0</speed>
  <fix>3d</fix>
</trkpt>
<trkpt lat="33.810313" lon="-118.393867">
  <ele>-0.11</ele>
  <time>2026-09-01T01:17:22Z</time>
  <course>0.0</course>
  <speed>0.0</speed>
  <fix>3d</fix>
</trkpt>
<trkpt lat="33.810313" lon="-118.393867">
  <ele>0.0</ele>
  <time>2026-09-01T01:17:22Z</time>
  <course>174.51</course>
  <speed>0.0</speed>
  <fix>3d</fix>
</trkpt>
<trkpt lat="33.810313" lon="-118.393867">
  <ele>-0.11</ele>
  <time>2026-09-01T01:17:22Z</time>
  <course>0.0</course>
  <speed>0.0</speed>
  <fix>3d</fix>
</trkpt>
<trkpt lat="33.810313" lon="-118.393867">
  <ele>0.0</ele>
  <time>2026-09-01T01:17:22Z</time>
  <course>175.07</course>
  <speed>0.0</speed>
  <fix>3d</fix>
</trkpt>
<trkpt lat="33.810313" lon="-118.393867">
  <ele>-0.12</ele>
  <time>2026-09-01T01:17:22Z</time>
  <course>0.0</course>
  <speed>0.0</speed>
  <fix>3d</fix>
</trkpt>
<trkpt lat="33.810313" lon="-118.393867">
  <ele>0.0</ele>
  <time>2026-09-01T01:17:22Z</time>
  <course>175.61</course>
  <speed>0.0</speed>
  <fix>3d</fix>
</trkpt>
<trkpt lat="33.810313" lon="-118.393867">
  <ele>-0.12</ele>
  <time>2026-09-01T01:17:22Z</time>
  <course>0.0</course>
  <speed>0.0</speed>
  <fix>3d</fix>
</trkpt>
<trkpt lat="33.810313" lon="-118.393867">
  <ele>0.0</ele>
  <time>2026-09-01T01:17:22Z</time>
  <course>176.12</course>
  <speed>0.0</speed>
  <fix>3d</fix>
</trkpt>
<trkpt lat="33.810313" lon="-118.393867">
  <ele>-0.13</ele>
  <time>2026-09-01T01:17:22Z</time>
  <course>0.0</course>
  <speed>0.0</speed>
  <fix>3d</fix>
</trkpt>
<trkpt lat="33.810313" lon="-118.393867">
  <ele>0.0</ele>
  <time>2026-09-01T01:17:22Z</time>
  <course>176.6</course>
  <speed>0.0</speed>
  <fix>3d</fix>
</trkpt>
<trkpt lat="33.810313" lon="-118.393867">
  <ele>-0.13</ele>
  <time>2026-09-01T01:17:22Z</time>
  <course>0.0</course>
  <speed>0.0</speed>
  <fix>3d</fix>
</trkpt>
<trkpt lat="33.810313" lon="-118.393867">
  <ele>0.0</ele>
  <time>2026-09-01T01:17:22Z</time>
  <course>177.07</course>
  <speed>0.0</speed>
  <fix>3d</fix>
</trkpt>
<trkpt lat="33.810313" lon="-118.393867">
  <ele>-0.13</ele>
  <time>2026-09-01T01:17:22Z</time>
  <course>0.0</course>
  <speed>0.0</speed>
  <fix>3d</fix>
</trkpt>
<trkpt lat="33.810313" lon="-118.393867">
  <ele>0.0</ele>
  <time>2026-09-01T01:17:22Z</time>
  <course>177.53</course>
  <speed>0.0</speed>
  <fix>3d</fix>
</trkpt>
<trkpt lat="33.810313" lon="-118.393867">
  <ele>-0.13</ele>
  <time>2026-09-01T01:17:22Z</time>
  <course>0.0</course>
  <speed>0.0</speed>
  <fix>3d</fix>
</trkpt>
<trkpt lat="33.810313" lon="-118.393867">
  <ele>0.0</ele>
  <time>2026-09-01T01:17:22Z</time>
  <course>177.97</course>
  <speed>0.0</speed>
  <fix>3d</fix>
</trkpt>
<trkpt lat="33.810313" lon="-118.393867">
  <ele>-0.14</ele>
  <time>2026-09-01T01:17:22Z</time>
  <course>0.0</course>
  <speed>0.0</speed>
  <fix>3d</fix>
</trkpt>
<trkpt lat="33.810313" lon="-118.393867">
  <ele>0.0</ele>
  <time>2026-09-01T01:17:22Z</time>
  <course>178.4</course>
  <speed>0.0</speed>
  <fix>3d</fix>
</trkpt>
<trkpt lat="33.810313" lon="-118.393867">
  <ele>-0.14</ele>
  <time>2026-09-01T01:17:22Z</time>
  <course>0.0</course>
  <speed>0.0</speed>
  <fix>3d</fix>
</trkpt>
<trkpt lat="33.810313" lon="-118.393867">
  <ele>0.0</ele>
  <time>2026-09-01T01:17:22Z</time>
  <course>178.83</course>
  <speed>0.0</speed>
  <fix>3d</fix>
</trkpt>
<trkpt lat="33.810313" lon="-118.393867">
  <ele>-0.14</ele>
  <time>2026-09-01T01:17:22Z</time>
  <course>0.0</course>
  <speed>0.0</speed>
  <fix>3d</fix>
</trkpt>
<trkpt lat="33.810313" lon="-118.393867">
  <ele>0.0</ele>
  <time>2026-09-01T01:17:22Z</time>
  <course>179.23</course>
  <speed>0.0</speed>
  <fix>3d</fix>
</trkpt>
<trkpt lat="33.810313" lon="-118.393867">
  <ele>-0.14</ele>
  <time>2026-09-01T01:17:22Z</time>
  <course>0.0</course>
  <speed>0.0</speed>
  <fix>3d</fix>
</trkpt>
<trkpt lat="33.810313" lon="-118.393867">
  <ele>0.0</ele>
  <time>2026-09-01T01:17:22Z</time>
  <course>179.62</course>
  <speed>0.0</speed>
  <fix>3d</fix>
</trkpt>
<trkpt lat="33.810313" lon="-118.393867">
  <ele>-0.14</ele>
  <time>2026-09-01T01:17:22Z</time>
  <course>0.0</course>
  <speed>0.0</speed>
  <fix>3d</fix>
</trkpt>
<trkpt lat="33.810313" lon="-118.393867">
  <ele>0.0</ele>
  <time>2026-09-01T01:17:22Z</time>
  <course>180.01</course>
  <speed>0.0</speed>
  <fix>3d</fix>
</trkpt>
<trkpt lat="33.810313" lon="-118.393867">
  <ele>-0.14</ele>
  <time>2026-09-01T01:17:22Z</time>
  <course>0.0</course>
  <speed>0.0</speed>
  <fix>3d</fix>
</trkpt>
<trkpt lat="33.810313" lon="-118.393867">
  <ele>0.0</ele>
  <time>2026-09-01T01:17:22Z</time>
  <course>180.37</course>
  <speed>0.0</speed>
  <fix>3d</fix>
</trkpt>
<trkpt lat="33.810313" lon="-118.393867">
  <ele>-0.14</ele>
  <time>2026-09-01T01:17:22Z</time>
  <course>0.0</course>
  <speed>0.0</speed>
  <fix>3d</fix>
</trkpt>
<trkpt lat="33.810313" lon="-118.393867">
  <ele>0.0</ele>
  <time>2026-09-01T01:17:22Z</time>
  <course>180.73</course>
  <speed>0.0</speed>
  <fix>3d</fix>
</trkpt>
<trkpt lat="33.810313" lon="-118.393867">
  <ele>-0.14</ele>
  <time>2026-09-01T01:17:22Z</time>
  <course>0.0</course>
  <speed>0.0</speed>
  <fix>3d</fix>
</trkpt>
<trkpt lat="33.810313" lon="-118.393867">
  <ele>0.0</ele>
  <time>2026-09-01T01:17:22Z</time>
  <course>181.07</course>
  <speed>0.0</speed>
  <fix>3d</fix>
</trkpt>
<trkpt lat="33.810313" lon="-118.393867">
  <ele>-0.13</ele>
  <time>2026-09-01T01:17:22Z</time>
  <course>0.0</course>
  <speed>0.0</speed>
  <fix>3d</fix>
</trkpt>
<trkpt lat="33.810313" lon="-118.393867">
  <ele>0.0</ele>
  <time>2026-09-01T01:17:22Z</time>
  <course>181.4</course>
  <speed>0.0</speed>
  <fix>3d</fix>
</trkpt>
<trkpt lat="33.810313" lon="-118.393867">
  <ele>-0.13</ele>
  <time>2026-09-01T01:17:22Z</time>
  <course>0.0</course>
  <speed>0.0</speed>
  <fix>3d</fix>
</trkpt>
<trkpt lat="33.810313" lon="-118.393867">
  <ele>0.0</ele>
  <time>2026-09-01T01:17:22Z</time>
  <course>181.72</course>
  <speed>0.0</speed>
  <fix>3d</fix>
</trkpt>
<trkpt lat="33.810313" lon="-118.393867">
  <ele>-0.12</ele>
  <time>2026-09-01T01:17:22Z</time>
  <course>0.0</course>
  <speed>0.0</speed>
  <fix>3d</fix>
</trkpt>
<trkpt lat="33.810313" lon="-118.393867">
  <ele>0.0</ele>
  <time>2026-09-01T01:17:22Z</time>
  <course>182.02</course>
  <speed>0.0</speed>
  <fix>3d</fix>
</trkpt>
<trkpt lat="33.810313" lon="-118.393867">
  <ele>-0.12</ele>
  <time>2026-09-01T01:17:22Z</time>
  <course>0.0</course>
  <speed>0.0</speed>
  <fix>3d</fix>
</trkpt>
<trkpt lat="33.810313" lon="-118.393867">
  <ele>0.0</ele>
  <time>2026-09-01T01:17:22Z</time>
  <course>182.32</course>
  <speed>0.0</speed>
  <fix>3d</fix>
</trkpt>
<trkpt lat="33.810313" lon="-118.393867">
  <ele>-0.12</ele>
  <time>2026-09-01T01:17:22Z</time>
  <course>0.0</course>
  <speed>0.0</speed>
  <fix>3d</fix>
</trkpt>
<trkpt lat="33.810313" lon="-118.393867">
  <ele>0.0</ele>
  <time>2026-09-01T01:17:22Z</time>
  <course>182.6</course>
  <speed>0.0</speed>
  <fix>3d</fix>
</trkpt>
<trkpt lat="33.810313" lon="-118.393867">
  <ele>-0.12</ele>
  <time>2026-09-01T01:17:22Z</time>
  <course>0.0</course>
  <speed>0.0</speed>
  <fix>3d</fix>
</trkpt>
<trkpt lat="33.810313" lon="-118.393867">
  <ele>0.0</ele>
  <time>2026-09-01T01:17:22Z</time>
  <course>182.87</course>
  <speed>0.0</speed>
  <fix>3d</fix>
</trkpt>
<trkpt lat="33.810313" lon="-118.393867">
  <ele>-0.11</ele>
  <time>2026-09-01T01:17:22Z</time>
  <course>0.0</course>
  <speed>0.0</speed>
  <fix>3d</fix>
</trkpt>
<trkpt lat="33.810313" lon="-118.393867">
  <ele>0.0</ele>
  <time>2026-09-01T01:17:22Z</time>
  <course>183.14</course>
  <speed>0.0</speed>
  <fix>3d</fix>
</trkpt>
<trkpt lat="33.810313" lon="-118.393867">
  <ele>-0.11</ele>
  <time>2026-09-01T01:17:22Z</time>
  <course>0.0</course>
  <speed>0.0</speed>
  <fix>3d</fix>
</trkpt>
<trkpt lat="33.810313" lon="-118.393867">
  <ele>0.0</ele>
  <time>2026-09-01T01:17:22Z</time>
  <course>183.39</course>
  <speed>0.0</speed>
  <fix>3d</fix>
</trkpt>
<trkpt lat="33.810313" lon="-118.393867">
  <ele>-0.11</ele>
  <time>2026-09-01T01:17:22Z</time>
  <course>0.0</course>
  <speed>0.0</speed>
  <fix>3d</fix>
</trkpt>
<trkpt lat="33.810313" lon="-118.393867">
  <ele>0.0</ele>
  <time>2026-09-01T01:17:22Z</time>
  <course>183.63</course>
  <speed>0.0</speed>
  <fix>3d</fix>
</trkpt>
<trkpt lat="33.810313" lon="-118.393867">
  <ele>-0.11</ele>
  <time>2026-09-01T01:17:22Z</time>
  <course>0.0</course>
  <speed>0.0</speed>
  <fix>3d</fix>
</trkpt>
<trkpt lat="33.810313" lon="-118.393867">
  <ele>0.0</ele>
  <time>2026-09-01T01:17:22Z</time>
  <course>183.86</course>
  <speed>0.0</speed>
  <fix>3d</fix>
</trkpt>
<trkpt lat="33.810313" lon="-118.393867">
  <ele>-0.12</ele>
  <time>2026-09-01T01:17:22Z</time>
  <course>0.0</course>
  <speed>0.0</speed>
  <fix>3d</fix>
</trkpt>
<trkpt lat="33.810313" lon="-118.393867">
  <ele>0.0</ele>
  <time>2026-09-01T01:17:22Z</time>
  <course>184.08</course>
  <speed>0.0</speed>
  <fix>3d</fix>
</trkpt>
<trkpt lat="33.810313" lon="-118.393867">
  <ele>-0.12</ele>
  <time>2026-09-01T01:17:22Z</time>
  <course>0.0</course>
  <speed>0.0</speed>
  <fix>3d</fix>
</trkpt>
<trkpt lat="33.810313" lon="-118.393867">
  <ele>0.0</ele>
  <time>2026-09-01T01:17:22Z</time>
  <course>184.3</course>
  <speed>0.0</speed>
  <fix>3d</fix>
</trkpt>
<trkpt lat="33.810313" lon="-118.393867">
  <ele>-0.13</ele>
  <time>2026-09-01T01:17:22Z</time>
  <course>0.0</course>
  <speed>0.0</speed>
  <fix>3d</fix>
</trkpt>
<trkpt lat="33.810313" lon="-118.393867">
  <ele>0.0</ele>
  <time>2026-09-01T01:17:22Z</time>
  <course>184.5</course>
  <speed>0.0</speed>
  <fix>3d</fix>
</trkpt>
<trkpt lat="33.810313" lon="-118.393867">
  <ele>-0.13</ele>
  <time>2026-09-01T01:17:22Z</time>
  <course>0.0</course>
  <speed>0.0</speed>
  <fix>3d</fix>
</trkpt>
<trkpt lat="33.810313" lon="-118.393867">
  <ele>0.0</ele>
  <time>2026-09-01T01:17:22Z</time>
  <course>184.7</course>
  <speed>0.0</speed>
  <fix>3d</fix>
</trkpt>
<trkpt lat="33.810313" lon="-118.393867">
  <ele>-0.13</ele>
  <time>2026-09-01T01:17:22Z</time>
  <course>0.0</course>
  <speed>0.0</speed>
  <fix>3d</fix>
</trkpt>
<trkpt lat="33.810313" lon="-118.393867">
  <ele>0.0</ele>
  <time>2026-09-01T01:17:22Z</time>
  <course>184.89</course>
  <speed>0.0</speed>
  <fix>3d</fix>
</trkpt>
<trkpt lat="33.810313" lon="-118.393867">
  <ele>-0.13</ele>
  <time>2026-09-01T01:17:22Z</time>
  <course>0.0</course>
  <speed>0.0</speed>
  <fix>3d</fix>
</trkpt>
<trkpt lat="33.810313" lon="-118.393867">
  <ele>0.0</ele>
  <time>2026-09-01T01:17:22Z</time>
  <course>185.07</course>
  <speed>0.0</speed>
  <fix>3d</fix>
</trkpt>
<trkpt lat="33.810313" lon="-118.393867">
  <ele>-0.14</ele>
  <time>2026-09-01T01:17:22Z</time>
  <course>0.0</course>
  <speed>0.0</speed>
  <fix>3d</fix>
</trkpt>
<trkpt lat="33.810313" lon="-118.393867">
  <ele>0.0</ele>
  <time>2026-09-01T01:17:22Z</time>
  <course>185.24</course>
  <speed>0.0</speed>
  <fix>3d</fix>
</trkpt>
<trkpt lat="33.810313" lon="-118.393867">
  <ele>-0.14</ele>
  <time>2026-09-01T01:17:22Z</time>
  <course>0.0</course>
  <speed>0.0</speed>
  <fix>3d</fix>
</trkpt>
<trkpt lat="33.810313" lon="-118.393867">
  <ele>0.0</ele>
  <time>2026-09-01T01:17:22Z</time>
  <course>185.41</course>
  <speed>0.0</speed>
  <fix>3d</fix>
</trkpt>
<trkpt lat="33.810313" lon="-118.393867">
  <ele>-0.13</ele>
  <time>2026-09-01T01:17:22Z</time>
  <course>0.0</course>
  <speed>0.0</speed>
  <fix>3d</fix>
</trkpt>
<trkpt lat="33.810313" lon="-118.393867">
  <ele>0.0</ele>
  <time>2026-09-01T01:17:22Z</time>
  <course>185.56</course>
  <speed>0.0</speed>
  <fix>3d</fix>
</trkpt>
<trkpt lat="33.810313" lon="-118.393867">
  <ele>-0.13</ele>
  <time>2026-09-01T01:17:22Z</time>
  <course>0.0</course>
  <speed>0.0</speed>
  <fix>3d</fix>
</trkpt>
<trkpt lat="33.810313" lon="-118.393867">
  <ele>0.0</ele>
  <time>2026-09-01T01:17:22Z</time>
  <course>185.72</course>
  <speed>0.0</speed>
  <fix>3d</fix>
</trkpt>
<trkpt lat="33.810313" lon="-118.393867">
  <ele>-0.13</ele>
  <time>2026-09-01T01:17:22Z</time>
  <course>0.0</course>
  <speed>0.0</speed>
  <fix>3d</fix>
</trkpt>
<trkpt lat="33.810313" lon="-118.393867">
  <ele>0.0</ele>
  <time>2026-09-01T01:17:22Z</time>
  <course>185.86</course>
  <speed>0.0</speed>
  <fix>3d</fix>
</trkpt>
<trkpt lat="33.810313" lon="-118.393867">
  <ele>-0.13</ele>
  <time>2026-09-01T01:17:22Z</time>
  <course>0.0</course>
  <speed>0.0</speed>
  <fix>3d</fix>
</trkpt>
<trkpt lat="33.810313" lon="-118.393867">
  <ele>0.0</ele>
  <time>2026-09-01T01:17:22Z</time>
  <course>186.0</course>
  <speed>0.0</speed>
  <fix>3d</fix>
</trkpt>
<trkpt lat="33.810313" lon="-118.393867">
  <ele>-0.12</ele>
  <time>2026-09-01T01:17:22Z</time>
  <course>0.0</course>
  <speed>0.0</speed>
  <fix>3d</fix>
</trkpt>
<trkpt lat="33.810313" lon="-118.393867">
  <ele>0.0</ele>
  <time>2026-09-01T01:17:22Z</time>
  <course>186.13</course>
  <speed>0.0</speed>
  <fix>3d</fix>
</trkpt>
<trkpt lat="33.810313" lon="-118.393867">
  <ele>-0.12</ele>
  <time>2026-09-01T01:17:22Z</time>
  <course>0.0</course>
  <speed>0.0</speed>
  <fix>3d</fix>
</trkpt>
<trkpt lat="33.810313" lon="-118.393867">
  <ele>0.0</ele>
  <time>2026-09-01T01:17:22Z</time>
  <course>186.26</course>
  <speed>0.0</speed>
  <fix>3d</fix>
</trkpt>
<trkpt lat="33.810313" lon="-118.393867">
  <ele>-0.12</ele>
  <time>2026-09-01T01:17:22Z</time>
  <course>0.0</course>
  <speed>0.0</speed>
  <fix>3d</fix>
</trkpt>
<trkpt lat="33.810313" lon="-118.393867">
  <ele>0.0</ele>
  <time>2026-09-01T01:17:22Z</time>
  <course>186.38</course>
  <speed>0.0</speed>
  <fix>3d</fix>
</trkpt>
<trkpt lat="33.810313" lon="-118.393867">
  <ele>-0.12</ele>
  <time>2026-09-01T01:17:22Z</time>
  <course>0.0</course>
  <speed>0.0</speed>
  <fix>3d</fix>
</trkpt>
<trkpt lat="33.810313" lon="-118.393867">
  <ele>0.0</ele>
  <time>2026-09-01T01:17:22Z</time>
  <course>186.49</course>
  <speed>0.0</speed>
  <fix>3d</fix>
</trkpt>
<trkpt lat="33.810313" lon="-118.393867">
  <ele>-0.12</ele>
  <time>2026-09-01T01:17:22Z</time>
  <course>0.0</course>
  <speed>0.0</speed>
  <fix>3d</fix>
</trkpt>
<trkpt lat="33.810313" lon="-118.393867">
  <ele>0.0</ele>
  <time>2026-09-01T01:17:22Z</time>
  <course>186.6</course>
  <speed>0.0</speed>
  <fix>3d</fix>
</trkpt>
<trkpt lat="33.810313" lon="-118.393867">
  <ele>-0.12</ele>
  <time>2026-09-01T01:17:22Z</time>
  <course>0.0</course>
  <speed>0.0</speed>
  <fix>3d</fix>
</trkpt>
<trkpt lat="33.810313" lon="-118.393867">
  <ele>0.0</ele>
  <time>2026-09-01T01:17:22Z</time>
  <course>186.71</course>
  <speed>0.0</speed>
  <fix>3d</fix>
</trkpt>
<trkpt lat="33.810313" lon="-118.393867">
  <ele>-0.12</ele>
  <time>2026-09-01T01:17:22Z</time>
  <course>0.0</course>
  <speed>0.0</speed>
  <fix>3d</fix>
</trkpt>
<trkpt lat="33.810313" lon="-118.393867">
  <ele>0.0</ele>
  <time>2026-09-01T01:17:22Z</time>
  <course>186.81</course>
  <speed>0.0</speed>
  <fix>3d</fix>
</trkpt>
<trkpt lat="33.810313" lon="-118.393867">
  <ele>-0.12</ele>
  <time>2026-09-01T01:17:22Z</time>
  <course>0.0</course>
  <speed>0.0</speed>
  <fix>3d</fix>
</trkpt>
<trkpt lat="33.810313" lon="-118.393867">
  <ele>0.0</ele>
  <time>2026-09-01T01:17:22Z</time>
  <course>186.9</course>
  <speed>0.0</speed>
  <fix>3d</fix>
</trkpt>
<trkpt lat="33.810313" lon="-118.393867">
  <ele>-0.12</ele>
  <time>2026-09-01T01:17:22Z</time>
  <course>0.0</course>
  <speed>0.0</speed>
  <fix>3d</fix>
</trkpt>
<trkpt lat="33.810313" lon="-118.393867">
  <ele>0.0</ele>
  <time>2026-09-01T01:17:22Z</time>
  <course>187.0</course>
  <speed>0.0</speed>
  <fix>3d</fix>
</trkpt>
<trkpt lat="33.810313" lon="-118.393867">
  <ele>-0.12</ele>
  <time>2026-09-01T01:17:22Z</time>
  <course>0.0</course>
  <speed>0.0</speed>
  <fix>3d</fix>
</trkpt>
<trkpt lat="33.810313" lon="-118.393867">
  <ele>0.0</ele>
  <time>2026-09-01T01:17:22Z</time>
  <course>187.08</course>
  <speed>0.0</speed>
  <fix>3d</fix>
</trkpt>
<trkpt lat="33.810313" lon="-118.393867">
  <ele>-0.13</ele>
  <time>2026-09-01T01:17:22Z</time>
  <course>0.0</course>
  <speed>0.0</speed>
  <fix>3d</fix>
</trkpt>
<trkpt lat="33.810313" lon="-118.393867">
  <ele>0.0</ele>
  <time>2026-09-01T01:17:22Z</time>
  <course>187.17</course>
  <speed>0.0</speed>
  <fix>3d</fix>
</trkpt>
<trkpt lat="33.810313" lon="-118.393867">
  <ele>-0.13</ele>
  <time>2026-09-01T01:17:22Z</time>
  <course>0.0</course>
  <speed>0.0</speed>
  <fix>3d</fix>
</trkpt>
<trkpt lat="33.810313" lon="-118.393867">
  <ele>0.0</ele>
  <time>2026-09-01T01:17:22Z</time>
  <course>187.24</course>
  <speed>0.0</speed>
  <fix>3d</fix>
</trkpt>
<trkpt lat="33.810313" lon="-118.393867">
  <ele>-0.13</ele>
  <time>2026-09-01T01:17:22Z</time>
  <course>0.0</course>
  <speed>0.0</speed>
  <fix>3d</fix>
</trkpt>
<trkpt lat="33.810313" lon="-118.393867">
  <ele>0.0</ele>
  <time>2026-09-01T01:17:22Z</time>
  <course>187.32</course>
  <speed>0.0</speed>
  <fix>3d</fix>
</trkpt>
<trkpt lat="33.810313" lon="-118.393867">
  <ele>-0.13</ele>
  <time>2026-09-01T01:17:22Z</time>
  <course>0.0</course>
  <speed>0.0</speed>
  <fix>3d</fix>
</trkpt>
<trkpt lat="33.810313" lon="-118.393867">
  <ele>0.0</ele>
  <time>2026-09-01T01:17:22Z</time>
  <course>187.39</course>
  <speed>0.0</speed>
  <fix>3d</fix>
</trkpt>
<trkpt lat="33.810313" lon="-118.393867">
  <ele>-0.13</ele>
  <time>2026-09-01T01:17:22Z</time>
  <course>0.0</course>
  <speed>0.0</speed>
  <fix>3d</fix>
</trkpt>
<trkpt lat="33.810313" lon="-118.393867">
  <ele>0.0</ele>
  <time>2026-09-01T01:17:22Z</time>
  <course>187.46</course>
  <speed>0.0</speed>
  <fix>3d</fix>
</trkpt>
<trkpt lat="33.810313" lon="-118.393867">
  <ele>-0.13</ele>
  <time>2026-09-01T01:17:22Z</time>
  <course>0.0</course>
  <speed>0.0</speed>
  <fix>3d</fix>
</trkpt>
<trkpt lat="33.810313" lon="-118.393867">
  <ele>0.0</ele>
  <time>2026-09-01T01:17:22Z</time>
  <course>187.53</course>
  <speed>0.0</speed>
  <fix>3d</fix>
</trkpt>
<trkpt lat="33.810313" lon="-118.393867">
  <ele>-0.13</ele>
  <time>2026-09-01T01:17:22Z</time>
  <course>0.0</course>
  <speed>0.0</speed>
  <fix>3d</fix>
</trkpt>
<trkpt lat="33.810313" lon="-118.393867">
  <ele>0.0</ele>
  <time>2026-09-01T01:17:22Z</time>
  <course>187.59</course>
  <speed>0.0</speed>
  <fix>3d</fix>
</trkpt>
<trkpt lat="33.810313" lon="-118.393867">
  <ele>-0.13</ele>
  <time>2026-09-01T01:17:22Z</time>
  <course>0.0</course>
  <speed>0.0</speed>
  <fix>3d</fix>
</trkpt>
<trkpt lat="33.810313" lon="-118.393867">
  <ele>0.0</ele>
  <time>2026-09-01T01:17:22Z</time>
  <course>187.65</course>
  <speed>0.0</speed>
  <fix>3d</fix>
</trkpt>
<trkpt lat="33.810313" lon="-118.393867">
  <ele>-0.12</ele>
  <time>2026-09-01T01:17:22Z</time>
  <course>0.0</course>
  <speed>0.0</speed>
  <fix>3d</fix>
</trkpt>
<trkpt lat="33.810313" lon="-118.393867">
  <ele>0.0</ele>
  <time>2026-09-01T01:17:22Z</time>
  <course>187.7</course>
  <speed>0.0</speed>
  <fix>3d</fix>
</trkpt>
<trkpt lat="33.810313" lon="-118.393867">
  <ele>-0.12</ele>
  <time>2026-09-01T01:17:22Z</time>
  <course>0.0</course>
  <speed>0.0</speed>
  <fix>3d</fix>
</trkpt>
<trkpt lat="33.810313" lon="-118.393867">
  <ele>0.0</ele>
  <time>2026-09-01T01:17:22Z</time>
  <course>187.76</course>
  <speed>0.0</speed>
  <fix>3d</fix>
</trkpt>
<trkpt lat="33.810313" lon="-118.393867">
  <ele>-0.12</ele>
  <time>2026-09-01T01:17:22Z</time>
  <course>0.0</course>
  <speed>0.0</speed>
  <fix>3d</fix>
</trkpt>
<trkpt lat="33.810313" lon="-118.393867">
  <ele>0.0</ele>
  <time>2026-09-01T01:17:22Z</time>
  <course>187.81</course>
  <speed>0.0</speed>
  <fix>3d</fix>
</trkpt>
<trkpt lat="33.810313" lon="-118.393867">
  <ele>-0.12</ele>
  <time>2026-09-01T01:17:22Z</time>
  <course>0.0</course>
  <speed>0.0</speed>
  <fix>3d</fix>
</trkpt>
<trkpt lat="33.810313" lon="-118.393867">
  <ele>0.0</ele>
  <time>2026-09-01T01:17:22Z</time>
  <course>187.86</course>
  <speed>0.0</speed>
  <fix>3d</fix>
</trkpt>
<trkpt lat="33.810313" lon="-118.393867">
  <ele>-0.12</ele>
  <time>2026-09-01T01:17:22Z</time>
  <course>0.0</course>
  <speed>0.0</speed>
  <fix>3d</fix>
</trkpt>
<trkpt lat="33.810313" lon="-118.393867">
  <ele>0.0</ele>
  <time>2026-09-01T01:17:22Z</time>
  <course>187.9</course>
  <speed>0.0</speed>
  <fix>3d</fix>
</trkpt>
<trkpt lat="33.810313" lon="-118.393867">
  <ele>-0.12</ele>
  <time>2026-09-01T01:17:22Z</time>
  <course>0.0</course>
  <speed>0.0</speed>
  <fix>3d</fix>
</trkpt>
<trkpt lat="33.810313" lon="-118.393867">
  <ele>0.0</ele>
  <time>2026-09-01T01:17:22Z</time>
  <course>187.94</course>
  <speed>0.0</speed>
  <fix>3d</fix>
</trkpt>
<trkpt lat="33.810313" lon="-118.393867">
  <ele>-0.12</ele>
  <time>2026-09-01T01:17:22Z</time>
  <course>0.0</course>
  <speed>0.0</speed>
  <fix>3d</fix>
</trkpt>
<trkpt lat="33.810313" lon="-118.393867">
  <ele>0.0</ele>
  <time>2026-09-01T01:17:22Z</time>
  <course>187.99</course>
  <speed>0.0</speed>
  <fix>3d</fix>
</trkpt>
<trkpt lat="33.810313" lon="-118.393867">
  <ele>-0.12</ele>
  <time>2026-09-01T01:17:22Z</time>
  <course>0.0</course>
  <speed>0.0</speed>
  <fix>3d</fix>
</trkpt>
<trkpt lat="33.810313" lon="-118.393867">
  <ele>0.0</ele>
  <time>2026-09-01T01:17:22Z</time>
  <course>188.02</course>
  <speed>0.0</speed>
  <fix>3d</fix>
</trkpt>
<trkpt lat="33.810313" lon="-118.393867">
  <ele>-0.12</ele>
  <time>2026-09-01T01:17:22Z</time>
  <course>0.0</course>
  <speed>0.0</speed>
  <fix>3d</fix>
</trkpt>
<trkpt lat="33.810313" lon="-118.393867">
  <ele>0.0</ele>
  <time>2026-09-01T01:17:22Z</time>
  <course>188.06</course>
  <speed>0.0</speed>
  <fix>3d</fix>
</trkpt>
<trkpt lat="33.810313" lon="-118.393867">
  <ele>-0.12</ele>
  <time>2026-09-01T01:17:22Z</time>
  <course>0.0</course>
  <speed>0.0</speed>
  <fix>3d</fix>
</trkpt>
<trkpt lat="33.810313" lon="-118.393867">
  <ele>0.0</ele>
  <time>2026-09-01T01:17:22Z</time>
  <course>188.1</course>
  <speed>0.0</speed>
  <fix>3d</fix>
</trkpt>
<trkpt lat="33.810313" lon="-118.393867">
  <ele>-0.13</ele>
  <time>2026-09-01T01:17:22Z</time>
  <course>0.0</course>
  <speed>0.0</speed>
  <fix>3d</fix>
</trkpt>
<trkpt lat="33.810313" lon="-118.393867">
  <ele>0.0</ele>
  <time>2026-09-01T01:17:22Z</time>
  <course>188.13</course>
  <speed>0.0</speed>
  <fix>3d</fix>
</trkpt>
<trkpt lat="33.810313" lon="-118.393867">
  <ele>-0.13</ele>
  <time>2026-09-01T01:17:22Z</time>
  <course>0.0</course>
  <speed>0.0</speed>
  <fix>3d</fix>
</trkpt>
<trkpt lat="33.810313" lon="-118.393867">
  <ele>0.0</ele>
  <time>2026-09-01T01:17:22Z</time>
  <course>188.16</course>
  <speed>0.0</speed>
  <fix>3d</fix>
</trkpt>
<trkpt lat="33.810313" lon="-118.393867">
  <ele>-0.13</ele>
  <time>2026-09-01T01:17:22Z</time>
  <course>0.0</course>
  <speed>0.0</speed>
  <fix>3d</fix>
</trkpt>
<trkpt lat="33.810313" lon="-118.393867">
  <ele>0.0</ele>
  <time>2026-09-01T01:17:22Z</time>
  <course>188.19</course>
  <speed>0.0</speed>
  <fix>3d</fix>
</trkpt>
<trkpt lat="33.810313" lon="-118.393867">
  <ele>-0.13</ele>
  <time>2026-09-01T01:17:22Z</time>
  <course>0.0</course>
  <speed>0.0</speed>
  <fix>3d</fix>
</trkpt>
<trkpt lat="33.810313" lon="-118.393867">
  <ele>0.0</ele>
  <time>2026-09-01T01:17:22Z</time>
  <course>188.22</course>
  <speed>0.0</speed>
  <fix>3d</fix>
</trkpt>
<trkpt lat="33.810313" lon="-118.393867">
  <ele>-0.13</ele>
  <time>2026-09-01T01:17:22Z</time>
  <course>0.0</course>
  <speed>0.0</speed>
  <fix>3d</fix>
</trkpt>
<trkpt lat="33.810313" lon="-118.393867">
  <ele>0.0</ele>
  <time>2026-09-01T01:17:22Z</time>
  <course>188.24</course>
  <speed>0.0</speed>
  <fix>3d</fix>
</trkpt>
<trkpt lat="33.810313" lon="-118.393867">
  <ele>-0.13</ele>
  <time>2026-09-01T01:17:22Z</time>
  <course>0.0</course>
  <speed>0.0</speed>
  <fix>3d</fix>
</trkpt>
<trkpt lat="33.810313" lon="-118.393867">
  <ele>0.0</ele>
  <time>2026-09-01T01:17:22Z</time>
  <course>188.27</course>
  <speed>0.0</speed>
  <fix>3d</fix>
</trkpt>
<trkpt lat="33.810313" lon="-118.393867">
  <ele>-0.12</ele>
  <time>2026-09-01T01:17:22Z</time>
  <course>0.0</course>
  <speed>0.0</speed>
  <fix>3d</fix>
</trkpt>
<trkpt lat="33.810313" lon="-118.393867">
  <ele>0.0</ele>
  <time>2026-09-01T01:17:22Z</time>
  <course>188.29</course>
  <speed>0.0</speed>
  <fix>3d</fix>
</trkpt>
<trkpt lat="33.810313" lon="-118.393867">
  <ele>-0.12</ele>
  <time>2026-09-01T01:17:22Z</time>
  <course>0.0</course>
  <speed>0.0</speed>
  <fix>3d</fix>
</trkpt>
<trkpt lat="33.810313" lon="-118.393867">
  <ele>0.0</ele>
  <time>2026-09-01T01:17:22Z</time>
  <course>188.32</course>
  <speed>0.0</speed>
  <fix>3d</fix>
</trkpt>
<trkpt lat="33.810313" lon="-118.393867">
  <ele>-0.12</ele>
  <time>2026-09-01T01:17:22Z</time>
  <course>0.0</course>
  <speed>0.0</speed>
  <fix>3d</fix>
</trkpt>
<trkpt lat="33.810313" lon="-118.393867">
  <ele>0.0</ele>
  <time>2026-09-01T01:17:22Z</time>
  <course>188.34</course>
  <speed>0.0</speed>
  <fix>3d</fix>
</trkpt>
<trkpt lat="33.810313" lon="-118.393867">
  <ele>-0.12</ele>
  <time>2026-09-01T01:17:22Z</time>
  <course>0.0</course>
  <speed>0.0</speed>
  <fix>3d</fix>
</trkpt>
<trkpt lat="33.810313" lon="-118.393867">
  <ele>0.0</ele>
  <time>2026-09-01T01:17:22Z</time>
  <course>188.36</course>
  <speed>0.0</speed>
  <fix>3d</fix>
</trkpt>
<trkpt lat="33.810313" lon="-118.393867">
  <ele>-0.12</ele>
  <time>2026-09-01T01:17:22Z</time>
  <course>0.0</course>
  <speed>0.0</speed>
  <fix>3d</fix>
</trkpt>
<trkpt lat="33.810313" lon="-118.393867">
  <ele>0.0</ele>
  <time>2026-09-01T01:17:22Z</time>
  <course>188.38</course>
  <speed>0.0</speed>
  <fix>3d</fix>
</trkpt>
<trkpt lat="33.810313" lon="-118.393867">
  <ele>-0.12</ele>
  <time>2026-09-01T01:17:22Z</time>
  <course>0.0</course>
  <speed>0.0</speed>
  <fix>3d</fix>
</trkpt>
<trkpt lat="33.810313" lon="-118.393867">
  <ele>0.0</ele>
  <time>2026-09-01T01:17:22Z</time>
  <course>188.39</course>
  <speed>0.0</speed>
  <fix>3d</fix>
</trkpt>
<trkpt lat="33.810313" lon="-118.393867">
  <ele>-0.12</ele>
  <time>2026-09-01T01:17:22Z</time>
  <course>0.0</course>
  <speed>0.0</speed>
  <fix>3d</fix>
</trkpt>
<trkpt lat="33.810313" lon="-118.393867">
  <ele>0.0</ele>
  <time>2026-09-01T01:17:22Z</time>
  <course>188.41</course>
  <speed>0.0</speed>
  <fix>3d</fix>
</trkpt>
<trkpt lat="33.810313" lon="-118.393867">
  <ele>-0.12</ele>
  <time>2026-09-01T01:17:22Z</time>
  <course>0.0</course>
  <speed>0.0</speed>
  <fix>3d</fix>
</trkpt>
<trkpt lat="33.810313" lon="-118.393867">
  <ele>0.0</ele>
  <time>2026-09-01T01:17:22Z</time>
  <course>188.42</course>
  <speed>0.0</speed>
  <fix>3d</fix>
</trkpt>
<trkpt lat="33.810313" lon="-118.393867">
  <ele>-0.12</ele>
  <time>2026-09-01T01:17:22Z</time>
  <course>0.0</course>
  <speed>0.0</speed>
  <fix>3d</fix>
</trkpt>
<trkpt lat="33.810313" lon="-118.393867">
  <ele>0.0</ele>
  <time>2026-09-01T01:17:22Z</time>
  <course>188.44</course>
  <speed>0.0</speed>
  <fix>3d</fix>
</trkpt>
<trkpt lat="33.810313" lon="-118.393867">
  <ele>-0.12</ele>
  <time>2026-09-01T01:17:22Z</time>
  <course>0.0</course>
  <speed>0.0</speed>
  <fix>3d</fix>
</trkpt>
<trkpt lat="33.810313" lon="-118.393867">
  <ele>0.0</ele>
  <time>2026-09-01T01:17:22Z</time>
  <course>188.45</course>
  <speed>0.0</speed>
  <fix>3d</fix>
</trkpt>
<trkpt lat="33.810313" lon="-118.393867">
  <ele>-0.13</ele>
  <time>2026-09-01T01:17:22Z</time>
  <course>0.0</course>
  <speed>0.0</speed>
  <fix>3d</fix>
</trkpt>
<trkpt lat="33.810313" lon="-118.393867">
  <ele>0.0</ele>
  <time>2026-09-01T01:17:22Z</time>
  <course>188.46</course>
  <speed>0.0</speed>
  <fix>3d</fix>
</trkpt>
<trkpt lat="33.810313" lon="-118.393867">
  <ele>-0.13</ele>
  <time>2026-09-01T01:17:22Z</time>
  <course>0.0</course>
  <speed>0.0</speed>
  <fix>3d</fix>
</trkpt>
<trkpt lat="33.810313" lon="-118.393867">
  <ele>0.0</ele>
  <time>2026-09-01T01:17:22Z</time>
  <course>188.47</course>
  <speed>0.0</speed>
  <fix>3d</fix>
</trkpt>
<trkpt lat="33.810313" lon="-118.393867">
  <ele>-0.13</ele>
  <time>2026-09-01T01:17:22Z</time>
  <course>0.0</course>
  <speed>0.0</speed>
  <fix>3d</fix>
</trkpt>
<trkpt lat="33.810313" lon="-118.393867">
  <ele>0.0</ele>
  <time>2026-09-01T01:17:22Z</time>
  <course>188.48</course>
  <speed>0.0</speed>
  <fix>3d</fix>
</trkpt>
<trkpt lat="33.810313" lon="-118.393867">
  <ele>-0.13</ele>
  <time>2026-09-01T01:17:22Z</time>
  <course>0.0</course>
  <speed>0.0</speed>
  <fix>3d</fix>
</trkpt>
<trkpt lat="33.810313" lon="-118.393867">
  <ele>0.0</ele>
  <time>2026-09-01T01:17:22Z</time>
  <course>188.49</course>
  <speed>0.0</speed>
  <fix>3d</fix>
</trkpt>
<trkpt lat="33.810313" lon="-118.393867">
  <ele>-0.13</ele>
  <time>2026-09-01T01:17:22Z</time>
  <course>0.0</course>
  <speed>0.0</speed>
  <fix>3d</fix>
</trkpt>
<trkpt lat="33.810313" lon="-118.393867">
  <ele>0.0</ele>
  <time>2026-09-01T01:17:22Z</time>
  <course>188.5</course>
  <speed>0.0</speed>
  <fix>3d</fix>
</trkpt>
<trkpt lat="33.810313" lon="-118.393867">
  <ele>-0.13</ele>
  <time>2026-09-01T01:17:22Z</time>
  <course>0.0</course>
  <speed>0.0</speed>
  <fix>3d</fix>
</trkpt>
<trkpt lat="33.810313" lon="-118.393867">
  <ele>0.0</ele>
  <time>2026-09-01T01:17:22Z</time>
  <course>188.51</course>
  <speed>0.0</speed>
  <fix>3d</fix>
</trkpt>
<trkpt lat="33.810313" lon="-118.393867">
  <ele>-0.12</ele>
  <time>2026-09-01T01:17:22Z</time>
  <course>0.0</course>
  <speed>0.0</speed>
  <fix>3d</fix>
</trkpt>
<trkpt lat="33.810313" lon="-118.393867">
  <ele>0.0</ele>
  <time>2026-09-01T01:17:22Z</time>
  <course>188.52</course>
  <speed>0.0</speed>
  <fix>3d</fix>
</trkpt>
<trkpt lat="33.810313" lon="-118.393867">
  <ele>-0.12</ele>
  <time>2026-09-01T01:17:22Z</time>
  <course>0.0</course>
  <speed>0.0</speed>
  <fix>3d</fix>
</trkpt>
<trkpt lat="33.810313" lon="-118.393867">
  <ele>0.0</ele>
  <time>2026-09-01T01:17:22Z</time>
  <course>188.53</course>
  <speed>0.0</speed>
  <fix>3d</fix>
</trkpt>
<trkpt lat="33.810313" lon="-118.393867">
  <ele>-0.12</ele>
  <time>2026-09-01T01:17:22Z</time>
  <course>0.0</course>
  <speed>0.0</speed>
  <fix>3d</fix>
</trkpt>
<trkpt lat="33.810313" lon="-118.393867">
  <ele>0.0</ele>
  <time>2026-09-01T01:17:22Z</time>
  <course>188.53</course>
  <speed>0.0</speed>
  <fix>3d</fix>
</trkpt>
<trkpt lat="33.810313" lon="-118.393867">
  <ele>-0.12</ele>
  <time>2026-09-01T01:17:22Z</time>
  <course>0.0</course>
  <speed>0.0</speed>
  <fix>3d</fix>
</trkpt>
<trkpt lat="33.810313" lon="-118.393867">
  <ele>0.0</ele>
  <time>2026-09-01T01:17:22Z</time>
  <course>188.54</course>
  <speed>0.0</speed>
  <fix>3d</fix>
</trkpt>
<trkpt lat="33.810313" lon="-118.393867">
  <ele>-0.12</ele>
  <time>2026-09-01T01:17:22Z</time>
  <course>0.0</course>
  <speed>0.0</speed>
  <fix>3d</fix>
</trkpt>
<trkpt lat="33.810313" lon="-118.393867">
  <ele>0.0</ele>
  <time>2026-09-01T01:17:22Z</time>
  <course>188.54</course>
  <speed>0.0</speed>
  <fix>3d</fix>
</trkpt>
<trkpt lat="33.810313" lon="-118.393867">
  <ele>-0.12</ele>
  <time>2026-09-01T01:17:22Z</time>
  <course>0.0</course>
  <speed>0.0</speed>
  <fix>3d</fix>
</trkpt>
<trkpt lat="33.810313" lon="-118.393867">
  <ele>0.0</ele>
  <time>2026-09-01T01:17:22Z</time>
  <course>188.54</course>
  <speed>0.0</speed>
  <fix>3d</fix>
</trkpt>
<trkpt lat="33.810313" lon="-118.393867">
  <ele>-0.12</ele>
  <time>2026-09-01T01:17:22Z</time>
  <course>0.0</course>
  <speed>0.0</speed>
  <fix>3d</fix>
</trkpt>
<trkpt lat="33.810313" lon="-118.393867">
  <ele>0.0</ele>
  <time>2026-09-01T01:17:22Z</time>
  <course>188.55</course>
  <speed>0.0</speed>
  <fix>3d</fix>
</trkpt>
<trkpt lat="33.810313" lon="-118.393867">
  <ele>-0.12</ele>
  <time>2026-09-01T01:17:22Z</time>
  <course>0.0</course>
  <speed>0.0</speed>
  <fix>3d</fix>
</trkpt>
<trkpt lat="33.810313" lon="-118.393867">
  <ele>0.0</ele>
  <time>2026-09-01T01:17:22Z</time>
  <course>188.55</course>
  <speed>0.0</speed>
  <fix>3d</fix>
</trkpt>
<trkpt lat="33.810313" lon="-118.393867">
  <ele>-0.12</ele>
  <time>2026-09-01T01:17:22Z</time>
  <course>0.0</course>
  <speed>0.0</speed>
  <fix>3d</fix>
</trkpt>
<trkpt lat="33.810313" lon="-118.393867">
  <ele>0.0</ele>
  <time>2026-09-01T01:17:22Z</time>
  <course>188.55</course>
  <speed>0.0</speed>
  <fix>3d</fix>
</trkpt>
<trkpt lat="33.810313" lon="-118.393867">
  <ele>-0.12</ele>
  <time>2026-09-01T01:17:22Z</time>
  <course>0.0</course>
  <speed>0.0</speed>
  <fix>3d</fix>
</trkpt>
<trkpt lat="33.810313" lon="-118.393867">
  <ele>-0.126</ele>
  <time>2026-09-01T01:17:22Z</time>
  <course>188.55</course>
  <speed>0.0</speed>
  <fix>3d</fix>
</trkpt>
<trkpt lat="33.810313" lon="-118.393867">
  <ele>-0.13</ele>
  <time>2026-09-01T01:17:22Z</time>
  <course>0.0</course>
  <speed>0.0</speed>
  <fix>3d</fix>
</trkpt>
<trkpt lat="33.810313" lon="-118.393867">
  <ele>-0.126</ele>
  <time>2026-09-01T01:17:22Z</time>
  <course>188.56</course>
  <speed>0.0</speed>
  <fix>3d</fix>
</trkpt>
<trkpt lat="33.810313" lon="-118.393867">
  <ele>-0.13</ele>
  <time>2026-09-01T01:17:22Z</time>
  <course>0.0</course>
  <speed>0.0</speed>
  <fix>3d</fix>
</trkpt>
<trkpt lat="33.810313" lon="-118.393867">
  <ele>-0.125</ele>
  <time>2026-09-01T01:17:22Z</time>
  <course>188.56</course>
  <speed>0.0</speed>
  <fix>3d</fix>
</trkpt>
<trkpt lat="33.810313" lon="-118.393867">
  <ele>-0.13</ele>
  <time>2026-09-01T01:17:22Z</time>
  <course>0.0</course>
  <speed>0.0</speed>
  <fix>3d</fix>
</trkpt>
<trkpt lat="33.810313" lon="-118.393867">
  <ele>-0.123</ele>
  <time>2026-09-01T01:17:22Z</time>
  <course>188.56</course>
  <speed>0.0</speed>
  <fix>3d</fix>
</trkpt>
<trkpt lat="33.810313" lon="-118.393867">
  <ele>-0.13</ele>
  <time>2026-09-01T01:17:22Z</time>
  <course>0.0</course>
  <speed>0.0</speed>
  <fix>3d</fix>
</trkpt>
<trkpt lat="33.810313" lon="-118.393867">
  <ele>-0.121</ele>
  <time>2026-09-01T01:17:22Z</time>
  <course>188.56</course>
  <speed>0.0</speed>
  <fix>3d</fix>
</trkpt>
<trkpt lat="33.810313" lon="-118.393867">
  <ele>-0.12</ele>
  <time>2026-09-01T01:17:22Z</time>
  <course>0.0</course>
  <speed>0.0</speed>
  <fix>3d</fix>
</trkpt>
<trkpt lat="33.810313" lon="-118.393867">
  <ele>-0.12</ele>
  <time>2026-09-01T01:17:22Z</time>
  <course>188.56</course>
  <speed>0.0</speed>
  <fix>3d</fix>
</trkpt>
<trkpt lat="33.810313" lon="-118.393867">
  <ele>-0.12</ele>
  <time>2026-09-01T01:17:22Z</time>
  <course>0.0</course>
  <speed>0.0</speed>
  <fix>3d</fix>
</trkpt>
<trkpt lat="33.810313" lon="-118.393867">
  <ele>-0.119</ele>
  <time>2026-09-01T01:17:22Z</time>
  <course>188.56</course>
  <speed>0.0</speed>
  <fix>3d</fix>
</trkpt>
<trkpt lat="33.810313" lon="-118.393867">
  <ele>-0.12</ele>
  <time>2026-09-01T01:17:22Z</time>
  <course>0.0</course>
  <speed>0.0</speed>
  <fix>3d</fix>
</trkpt>
<trkpt lat="33.810313" lon="-118.393867">
  <ele>-0.12</ele>
  <time>2026-09-01T01:17:22Z</time>
  <course>188.56</course>
  <speed>0.0</speed>
  <fix>3d</fix>
</trkpt>
<trkpt lat="33.810313" lon="-118.393867">
  <ele>-0.12</ele>
  <time>2026-09-01T01:17:22Z</time>
  <course>0.0</course>
  <speed>0.0</speed>
  <fix>3d</fix>
</trkpt>
<trkpt lat="33.810313" lon="-118.393867">
  <ele>-0.123</ele>
  <time>2026-09-01T01:17:22Z</time>
  <course>188.55</course>
  <speed>0.0</speed>
  <fix>3d</fix>
</trkpt>
<trkpt lat="33.810313" lon="-118.393867">
  <ele>-0.12</ele>
  <time>2026-09-01T01:17:22Z</time>
  <course>0.0</course>
  <speed>0.0</speed>
  <fix>3d</fix>
</trkpt>
<trkpt lat="33.810313" lon="-118.393867">
  <ele>-0.127</ele>
  <time>2026-09-01T01:17:22Z</time>
  <course>188.55</course>
  <speed>0.0</speed>
  <fix>3d</fix>
</trkpt>
<trkpt lat="33.810313" lon="-118.393867">
  <ele>-0.12</ele>
  <time>2026-09-01T01:17:22Z</time>
  <course>0.0</course>
  <speed>0.0</speed>
  <fix>3d</fix>
</trkpt>
<trkpt lat="33.810313" lon="-118.393867">
  <ele>-0.13</ele>
  <time>2026-09-01T01:17:22Z</time>
  <course>188.55</course>
  <speed>0.0</speed>
  <fix>3d</fix>
</trkpt>
<trkpt lat="33.810313" lon="-118.393867">
  <ele>-0.12</ele>
  <time>2026-09-01T01:17:22Z</time>
  <course>0.0</course>
  <speed>0.0</speed>
  <fix>3d</fix>
</trkpt>
<trkpt lat="33.810313" lon="-118.393867">
  <ele>-0.132</ele>
  <time>2026-09-01T01:17:22Z</time>
  <course>188.55</course>
  <speed>0.0</speed>
  <fix>3d</fix>
</trkpt>
<trkpt lat="33.810313" lon="-118.393867">
  <ele>-0.12</ele>
  <time>2026-09-01T01:17:22Z</time>
  <course>0.0</course>
  <speed>0.0</speed>
  <fix>3d</fix>
</trkpt>
<trkpt lat="33.810313" lon="-118.393867">
  <ele>-0.132</ele>
  <time>2026-09-01T01:17:22Z</time>
  <course>188.55</course>
  <speed>0.0</speed>
  <fix>3d</fix>
</trkpt>
<trkpt lat="33.810313" lon="-118.393867">
  <ele>-0.12</ele>
  <time>2026-09-01T01:17:22Z</time>
  <course>0.0</course>
  <speed>0.0</speed>
  <fix>3d</fix>
</trkpt>
<trkpt lat="33.810313" lon="-118.393867">
  <ele>-0.132</ele>
  <time>2026-09-01T01:17:22Z</time>
  <course>188.55</course>
  <speed>0.0</speed>
  <fix>3d</fix>
</trkpt>
<trkpt lat="33.810313" lon="-118.393867">
  <ele>-0.12</ele>
  <time>2026-09-01T01:17:22Z</time>
  <course>0.0</course>
  <speed>0.0</speed>
  <fix>3d</fix>
</trkpt>
<trkpt lat="33.810313" lon="-118.393867">
  <ele>-0.132</ele>
  <time>2026-09-01T01:17:22Z</time>
  <course>188.55</course>
  <speed>0.0</speed>
  <fix>3d</fix>
</trkpt>
<trkpt lat="33.810313" lon="-118.393867">
  <ele>-0.12</ele>
  <time>2026-09-01T01:17:22Z</time>
  <course>0.0</course>
  <speed>0.0</speed>
  <fix>3d</fix>
</trkpt>
<trkpt lat="33.810313" lon="-118.393867">
  <ele>-0.131</ele>
  <time>2026-09-01T01:17:22Z</time>
  <course>188.55</course>
  <speed>0.0</speed>
  <fix>3d</fix>
</trkpt>
<trkpt lat="33.810313" lon="-118.393867">
  <ele>-0.12</ele>
  <time>2026-09-01T01:17:22Z</time>
  <course>0.0</course>
  <speed>0.0</speed>
  <fix>3d</fix>
</trkpt>
<trkpt lat="33.810313" lon="-118.393867">
  <ele>-0.129</ele>
  <time>2026-09-01T01:17:22Z</time>
  <course>188.54</course>
  <speed>0.0</speed>
  <fix>3d</fix>
</trkpt>
<trkpt lat="33.810313" lon="-118.393867">
  <ele>-0.13</ele>
  <time>2026-09-01T01:17:22Z</time>
  <course>0.0</course>
  <speed>0.0</speed>
  <fix>3d</fix>
</trkpt>
<trkpt lat="33.810313" lon="-118.393867">
  <ele>-0.128</ele>
  <time>2026-09-01T01:17:22Z</time>
  <course>188.54</course>
  <speed>0.0</speed>
  <fix>3d</fix>
</trkpt>
<trkpt lat="33.810313" lon="-118.393867">
  <ele>-0.13</ele>
  <time>2026-09-01T01:17:22Z</time>
  <course>0.0</course>
  <speed>0.0</speed>
  <fix>3d</fix>
</trkpt>
<trkpt lat="33.810313" lon="-118.393867">
  <ele>-0.125</ele>
  <time>2026-09-01T01:17:22Z</time>
  <course>188.53</course>
  <speed>0.0</speed>
  <fix>3d</fix>
</trkpt>
<trkpt lat="33.810313" lon="-118.393867">
  <ele>-0.12</ele>
  <time>2026-09-01T01:17:22Z</time>
  <course>0.0</course>
  <speed>0.0</speed>
  <fix>3d</fix>
</trkpt>
<trkpt lat="33.810313" lon="-118.393867">
  <ele>-0.123</ele>
  <time>2026-09-01T01:17:22Z</time>
  <course>188.53</course>
  <speed>0.0</speed>
  <fix>3d</fix>
</trkpt>
<trkpt lat="33.810313" lon="-118.393867">
  <ele>-0.12</ele>
  <time>2026-09-01T01:17:22Z</time>
  <course>0.0</course>
  <speed>0.0</speed>
  <fix>3d</fix>
</trkpt>
<trkpt lat="33.810313" lon="-118.393867">
  <ele>-0.121</ele>
  <time>2026-09-01T01:17:22Z</time>
  <course>188.52</course>
  <speed>0.0</speed>
  <fix>3d</fix>
</trkpt>
<trkpt lat="33.810313" lon="-118.393867">
  <ele>-0.12</ele>
  <time>2026-09-01T01:17:22Z</time>
  <course>0.0</course>
  <speed>0.0</speed>
  <fix>3d</fix>
</trkpt>
<trkpt lat="33.810313" lon="-118.393867">
  <ele>-0.121</ele>
  <time>2026-09-01T01:17:22Z</time>
  <course>188.52</course>
  <speed>0.0</speed>
  <fix>3d</fix>
</trkpt>
<trkpt lat="33.810313" lon="-118.393867">
  <ele>-0.12</ele>
  <time>2026-09-01T01:17:22Z</time>
  <course>0.0</course>
  <speed>0.0</speed>
  <fix>3d</fix>
</trkpt>
<trkpt lat="33.810313" lon="-118.393867">
  <ele>-0.121</ele>
  <time>2026-09-01T01:17:22Z</time>
  <course>188.51</course>
  <speed>0.0</speed>
  <fix>3d</fix>
</trkpt>
<trkpt lat="33.810313" lon="-118.393867">
  <ele>-0.12</ele>
  <time>2026-09-01T01:17:22Z</time>
  <course>0.0</course>
  <speed>0.0</speed>
  <fix>3d</fix>
</trkpt>
<trkpt lat="33.810313" lon="-118.393867">
  <ele>-0.123</ele>
  <time>2026-09-01T01:17:22Z</time>
  <course>188.51</course>
  <speed>0.0</speed>
  <fix>3d</fix>
</trkpt>
<trkpt lat="33.810313" lon="-118.393867">
  <ele>-0.12</ele>
  <time>2026-09-01T01:17:22Z</time>
  <course>0.0</course>
  <speed>0.0</speed>
  <fix>3d</fix>
</trkpt>
<trkpt lat="33.810313" lon="-118.393867">
  <ele>-0.126</ele>
  <time>2026-09-01T01:17:22Z</time>
  <course>188.5</course>
  <speed>0.0</speed>
  <fix>3d</fix>
</trkpt>
<trkpt lat="33.810313" lon="-118.393867">
  <ele>-0.12</ele>
  <time>2026-09-01T01:17:22Z</time>
  <course>0.0</course>
  <speed>0.0</speed>
  <fix>3d</fix>
</trkpt>
<trkpt lat="33.810313" lon="-118.393867">
  <ele>-0.127</ele>
  <time>2026-09-01T01:17:22Z</time>
  <course>188.5</course>
  <speed>0.0</speed>
  <fix>3d</fix>
</trkpt>
<trkpt lat="33.810313" lon="-118.393867">
  <ele>-0.12</ele>
  <time>2026-09-01T01:17:22Z</time>
  <course>0.0</course>
  <speed>0.0</speed>
  <fix>3d</fix>
</trkpt>
<trkpt lat="33.810313" lon="-118.393867">
  <ele>-0.128</ele>
  <time>2026-09-01T01:17:22Z</time>
  <course>188.49</course>
  <speed>0.0</speed>
  <fix>3d</fix>
</trkpt>
<trkpt lat="33.810313" lon="-118.393867">
  <ele>-0.12</ele>
  <time>2026-09-01T01:17:22Z</time>
  <course>0.0</course>
  <speed>0.0</speed>
  <fix>3d</fix>
</trkpt>
<trkpt lat="33.810313" lon="-118.393867">
  <ele>-0.127</ele>
  <time>2026-09-01T01:17:22Z</time>
  <course>188.49</course>
  <speed>0.0</speed>
  <fix>3d</fix>
</trkpt>
<trkpt lat="33.810313" lon="-118.393867">
  <ele>-0.12</ele>
  <time>2026-09-01T01:17:22Z</time>
  <course>0.0</course>
  <speed>0.0</speed>
  <fix>3d</fix>
</trkpt>
<trkpt lat="33.810313" lon="-118.393867">
  <ele>-0.127</ele>
  <time>2026-09-01T01:17:22Z</time>
  <course>188.48</course>
  <speed>0.0</speed>
  <fix>3d</fix>
</trkpt>
<trkpt lat="33.810313" lon="-118.393867">
  <ele>-0.12</ele>
  <time>2026-09-01T01:17:22Z</time>
  <course>0.0</course>
  <speed>0.0</speed>
  <fix>3d</fix>
</trkpt>
<trkpt lat="33.810313" lon="-118.393867">
  <ele>-0.127</ele>
  <time>2026-09-01T01:17:22Z</time>
  <course>188.47</course>
  <speed>0.01</speed>
  <fix>3d</fix>
</trkpt>
<trkpt lat="33.810313" lon="-118.393867">
  <ele>-0.12</ele>
  <time>2026-09-01T01:17:22Z</time>
  <course>0.0</course>
  <speed>0.0</speed>
  <fix>3d</fix>
</trkpt>
<trkpt lat="33.810313" lon="-118.393867">
  <ele>-0.127</ele>
  <time>2026-09-01T01:17:22Z</time>
  <course>188.47</course>
  <speed>0.01</speed>
  <fix>3d</fix>
</trkpt>
<trkpt lat="33.810313" lon="-118.393867">
  <ele>-0.12</ele>
  <time>2026-09-01T01:17:22Z</time>
  <course>0.0</course>
  <speed>0.0</speed>
  <fix>3d</fix>
</trkpt>
<trkpt lat="33.810313" lon="-118.393867">
  <ele>-0.127</ele>
  <time>2026-09-01T01:17:22Z</time>
  <course>188.46</course>
  <speed>0.01</speed>
  <fix>3d</fix>
</trkpt>
<trkpt lat="33.810313" lon="-118.393867">
  <ele>-0.12</ele>
  <time>2026-09-01T01:17:22Z</time>
  <course>0.0</course>
  <speed>0.0</speed>
  <fix>3d</fix>
</trkpt>
<trkpt lat="33.810313" lon="-118.393867">
  <ele>-0.126</ele>
  <time>2026-09-01T01:17:22Z</time>
  <course>188.45</course>
  <speed>0.01</speed>
  <fix>3d</fix>
</trkpt>
<trkpt lat="33.810313" lon="-118.393867">
  <ele>-0.12</ele>
  <time>2026-09-01T01:17:22Z</time>
  <course>0.0</course>
  <speed>0.0</speed>
  <fix>3d</fix>
</trkpt>
<trkpt lat="33.810313" lon="-118.393867">
  <ele>-0.126</ele>
  <time>2026-09-01T01:17:22Z</time>
  <course>188.45</course>
  <speed>0.01</speed>
  <fix>3d</fix>
</trkpt>
<trkpt lat="33.810313" lon="-118.393867">
  <ele>-0.12</ele>
  <time>2026-09-01T01:17:22Z</time>
  <course>0.0</course>
  <speed>0.0</speed>
  <fix>3d</fix>
</trkpt>
<trkpt lat="33.810313" lon="-118.393867">
  <ele>-0.125</ele>
  <time>2026-09-01T01:17:22Z</time>
  <course>188.44</course>
  <speed>0.01</speed>
  <fix>3d</fix>
</trkpt>
<trkpt lat="33.810313" lon="-118.393867">
  <ele>-0.12</ele>
  <time>2026-09-01T01:17:22Z</time>
  <course>0.0</course>
  <speed>0.0</speed>
  <fix>3d</fix>
</trkpt>
<trkpt lat="33.810313" lon="-118.393867">
  <ele>-0.126</ele>
  <time>2026-09-01T01:17:23Z</time>
  <course>188.43</course>
  <speed>0.01</speed>
  <fix>3d</fix>
</trkpt>
<trkpt lat="33.810313" lon="-118.393867">
  <ele>-0.12</ele>
  <time>2026-09-01T01:17:23Z</time>
  <course>0.0</course>
  <speed>0.0</speed>
  <fix>3d</fix>
</trkpt>
<trkpt lat="33.810313" lon="-118.393867">
  <ele>-0.127</ele>
  <time>2026-09-01T01:17:23Z</time>
  <course>188.42</course>
  <speed>0.01</speed>
  <fix>3d</fix>
</trkpt>
<trkpt lat="33.810313" lon="-118.393867">
  <ele>-0.12</ele>
  <time>2026-09-01T01:17:23Z</time>
  <course>0.0</course>
  <speed>0.0</speed>
  <fix>3d</fix>
</trkpt>
<trkpt lat="33.810313" lon="-118.393867">
  <ele>-0.128</ele>
  <time>2026-09-01T01:17:23Z</time>
  <course>188.42</course>
  <speed>0.01</speed>
  <fix>3d</fix>
</trkpt>
<trkpt lat="33.810313" lon="-118.393867">
  <ele>-0.12</ele>
  <time>2026-09-01T01:17:23Z</time>
  <course>0.0</course>
  <speed>0.0</speed>
  <fix>3d</fix>
</trkpt>
<trkpt lat="33.810313" lon="-118.393867">
  <ele>-0.129</ele>
  <time>2026-09-01T01:17:23Z</time>
  <course>188.41</course>
  <speed>0.01</speed>
  <fix>3d</fix>
</trkpt>
<trkpt lat="33.810313" lon="-118.393867">
  <ele>-0.12</ele>
  <time>2026-09-01T01:17:23Z</time>
  <course>0.0</course>
  <speed>0.0</speed>
  <fix>3d</fix>
</trkpt>
<trkpt lat="33.810313" lon="-118.393867">
  <ele>-0.129</ele>
  <time>2026-09-01T01:17:23Z</time>
  <course>188.4</course>
  <speed>0.01</speed>
  <fix>3d</fix>
</trkpt>
<trkpt lat="33.810313" lon="-118.393867">
  <ele>-0.12</ele>
  <time>2026-09-01T01:17:23Z</time>
  <course>0.0</course>
  <speed>0.0</speed>
  <fix>3d</fix>
</trkpt>
<trkpt lat="33.810313" lon="-118.393867">
  <ele>-0.13</ele>
  <time>2026-09-01T01:17:23Z</time>
  <course>188.4</course>
  <speed>0.01414213562373095</speed>
  <fix>3d</fix>
</trkpt>
<trkpt lat="33.810313" lon="-118.393867">
  <ele>-0.12</ele>
  <time>2026-09-01T01:17:23Z</time>
  <course>0.0</course>
  <speed>0.0</speed>
  <fix>3d</fix>
</trkpt>
<trkpt lat="33.810313" lon="-118.393867">
  <ele>-0.13</ele>
  <time>2026-09-01T01:17:23Z</time>
  <course>188.39</course>
  <speed>0.01414213562373095</speed>
  <fix>3d</fix>
</trkpt>
<trkpt lat="33.810313" lon="-118.393867">
  <ele>-0.12</ele>
  <time>2026-09-01T01:17:23Z</time>
  <course>0.0</course>
  <speed>0.0</speed>
  <fix>3d</fix>
</trkpt>
<trkpt lat="33.810313" lon="-118.393867">
  <ele>-0.13</ele>
  <time>2026-09-01T01:17:23Z</time>
  <course>188.38</course>
  <speed>0.01414213562373095</speed>
  <fix>3d</fix>
</trkpt>
<trkpt lat="33.810313" lon="-118.393867">
  <ele>-0.12</ele>
  <time>2026-09-01T01:17:23Z</time>
  <course>0.0</course>
  <speed>0.0</speed>
  <fix>3d</fix>
</trkpt>
<trkpt lat="33.810313" lon="-118.393867">
  <ele>-0.129</ele>
  <time>2026-09-01T01:17:23Z</time>
  <course>188.37</course>
  <speed>0.01414213562373095</speed>
  <fix>3d</fix>
</trkpt>
<trkpt lat="33.810313" lon="-118.393867">
  <ele>-0.12</ele>
  <time>2026-09-01T01:17:23Z</time>
  <course>0.0</course>
  <speed>0.0</speed>
  <fix>3d</fix>
</trkpt>
<trkpt lat="33.810313" lon="-118.393867">
  <ele>-0.128</ele>
  <time>2026-09-01T01:17:23Z</time>
  <course>188.37</course>
  <speed>0.01414213562373095</speed>
  <fix>3d</fix>
</trkpt>
<trkpt lat="33.810313" lon="-118.393867">
  <ele>-0.12</ele>
  <time>2026-09-01T01:17:23Z</time>
  <course>0.0</course>
  <speed>0.0</speed>
  <fix>3d</fix>
</trkpt>
<trkpt lat="33.810313" lon="-118.393867">
  <ele>-0.126</ele>
  <time>2026-09-01T01:17:23Z</time>
  <course>188.36</course>
  <speed>0.01414213562373095</speed>
  <fix>3d</fix>
</trkpt>
<trkpt lat="33.810313" lon="-118.393867">
  <ele>-0.12</ele>
  <time>2026-09-01T01:17:23Z</time>
  <course>0.0</course>
  <speed>0.0</speed>
  <fix>3d</fix>
</trkpt>
<trkpt lat="33.810313" lon="-118.393867">
  <ele>-0.124</ele>
  <time>2026-09-01T01:17:23Z</time>
  <course>188.35</course>
  <speed>0.01414213562373095</speed>
  <fix>3d</fix>
</trkpt>
<trkpt lat="33.810313" lon="-118.393867">
  <ele>-0.12</ele>
  <time>2026-09-01T01:17:23Z</time>
  <course>0.0</course>
  <speed>0.0</speed>
  <fix>3d</fix>
</trkpt>
<trkpt lat="33.810313" lon="-118.393867">
  <ele>-0.122</ele>
  <time>2026-09-01T01:17:23Z</time>
  <course>188.34</course>
  <speed>0.01414213562373095</speed>
  <fix>3d</fix>
</trkpt>
<trkpt lat="33.810313" lon="-118.393867">
  <ele>-0.12</ele>
  <time>2026-09-01T01:17:23Z</time>
  <course>0.0</course>
  <speed>0.0</speed>
  <fix>3d</fix>
</trkpt>
<trkpt lat="33.810313" lon="-118.393867">
  <ele>-0.123</ele>
  <time>2026-09-01T01:17:23Z</time>
  <course>188.34</course>
  <speed>0.01414213562373095</speed>
  <fix>3d</fix>
</trkpt>
<trkpt lat="33.810313" lon="-118.393867">
  <ele>-0.12</ele>
  <time>2026-09-01T01:17:23Z</time>
  <course>0.0</course>
  <speed>0.0</speed>
  <fix>3d</fix>
</trkpt>
<trkpt lat="33.810313" lon="-118.393867">
  <ele>-0.125</ele>
  <time>2026-09-01T01:17:23Z</time>
  <course>188.33</course>
  <speed>0.01414213562373095</speed>
  <fix>3d</fix>
</trkpt>
<trkpt lat="33.810313" lon="-118.393867">
  <ele>-0.12</ele>
  <time>2026-09-01T01:17:23Z</time>
  <course>0.0</course>
  <speed>0.0</speed>
  <fix>3d</fix>
</trkpt>
<trkpt lat="33.810313" lon="-118.393867">
  <ele>-0.128</ele>
  <time>2026-09-01T01:17:23Z</time>
  <course>188.32</course>
  <speed>0.01414213562373095</speed>
  <fix>3d</fix>
</trkpt>
<trkpt lat="33.810313" lon="-118.393867">
  <ele>-0.12</ele>
  <time>2026-09-01T01:17:23Z</time>
  <course>0.0</course>
  <speed>0.0</speed>
  <fix>3d</fix>
</trkpt>
<trkpt lat="33.810313" lon="-118.393867">
  <ele>-0.131</ele>
  <time>2026-09-01T01:17:23Z</time>
  <course>188.31</course>
  <speed>0.01414213562373095</speed>
  <fix>3d</fix>
</trkpt>
<trkpt lat="33.810313" lon="-118.393867">
  <ele>-0.12</ele>
  <time>2026-09-01T01:17:23Z</time>
  <course>0.0</course>
  <speed>0.0</speed>
  <fix>3d</fix>
</trkpt>
<trkpt lat="33.810313" lon="-118.393867">
  <ele>-0.134</ele>
  <time>2026-09-01T01:17:23Z</time>
  <course>188.3</course>
  <speed>0.01414213562373095</speed>
  <fix>3d</fix>
</trkpt>
<trkpt lat="33.810313" lon="-118.393867">
  <ele>-0.12</ele>
  <time>2026-09-01T01:17:23Z</time>
  <course>0.0</course>
  <speed>0.0</speed>
  <fix>3d</fix>
</trkpt>
<trkpt lat="33.810313" lon="-118.393867">
  <ele>-0.135</ele>
  <time>2026-09-01T01:17:23Z</time>
  <course>188.3</course>
  <speed>0.01414213562373095</speed>
  <fix>3d</fix>
</trkpt>
<trkpt lat="33.810313" lon="-118.393867">
  <ele>-0.12</ele>
  <time>2026-09-01T01:17:23Z</time>
  <course>0.0</course>
  <speed>0.0</speed>
  <fix>3d</fix>
</trkpt>
<trkpt lat="33.810313" lon="-118.393867">
  <ele>-0.134</ele>
  <time>2026-09-01T01:17:23Z</time>
  <course>188.29</course>
  <speed>0.01414213562373095</speed>
  <fix>3d</fix>
</trkpt>
<trkpt lat="33.810313" lon="-118.393867">
  <ele>-0.12</ele>
  <time>2026-09-01T01:17:23Z</time>
  <course>0.0</course>
  <speed>0.0</speed>
  <fix>3d</fix>
</trkpt>
<trkpt lat="33.810313" lon="-118.393867">
  <ele>-0.132</ele>
  <time>2026-09-01T01:17:23Z</time>
  <course>188.28</course>
  <speed>0.01414213562373095</speed>
  <fix>3d</fix>
</trkpt>
<trkpt lat="33.810313" lon="-118.393867">
  <ele>-0.12</ele>
  <time>2026-09-01T01:17:23Z</time>
  <course>0.0</course>
  <speed>0.0</speed>
  <fix>3d</fix>
</trkpt>
<trkpt lat="33.810313" lon="-118.393867">
  <ele>-0.13</ele>
  <time>2026-09-01T01:17:23Z</time>
  <course>188.27</course>
  <speed>0.01414213562373095</speed>
  <fix>3d</fix>
</trkpt>
<trkpt lat="33.810313" lon="-118.393867">
  <ele>-0.12</ele>
  <time>2026-09-01T01:17:23Z</time>
  <course>0.0</course>
  <speed>0.0</speed>
  <fix>3d</fix>
</trkpt>
<trkpt lat="33.810313" lon="-118.393867">
  <ele>-0.127</ele>
  <time>2026-09-01T01:17:23Z</time>
  <course>188.26</course>
  <speed>0.01414213562373095</speed>
  <fix>3d</fix>
</trkpt>
<trkpt lat="33.810313" lon="-118.393867">
  <ele>-0.12</ele>
  <time>2026-09-01T01:17:23Z</time>
  <course>0.0</course>
  <speed>0.0</speed>
  <fix>3d</fix>
</trkpt>
<trkpt lat="33.810313" lon="-118.393867">
  <ele>-0.125</ele>
  <time>2026-09-01T01:17:23Z</time>
  <course>188.25</course>
  <speed>0.01414213562373095</speed>
  <fix>3d</fix>
</trkpt>
<trkpt lat="33.810313" lon="-118.393867">
  <ele>-0.12</ele>
  <time>2026-09-01T01:17:23Z</time>
  <course>0.0</course>
  <speed>0.0</speed>
  <fix>3d</fix>
</trkpt>
<trkpt lat="33.810313" lon="-118.393867">
  <ele>-0.123</ele>
  <time>2026-09-01T01:17:23Z</time>
  <course>188.25</course>
  <speed>0.01414213562373095</speed>
  <fix>3d</fix>
</trkpt>
<trkpt lat="33.810313" lon="-118.393867">
  <ele>-0.12</ele>
  <time>2026-09-01T01:17:23Z</time>
  <course>0.0</course>
  <speed>0.0</speed>
  <fix>3d</fix>
</trkpt>
<trkpt lat="33.810313" lon="-118.393867">
  <ele>-0.124</ele>
  <time>2026-09-01T01:17:23Z</time>
  <course>188.24</course>
  <speed>0.01414213562373095</speed>
  <fix>3d</fix>
</trkpt>
<trkpt lat="33.810313" lon="-118.393867">
  <ele>-0.12</ele>
  <time>2026-09-01T01:17:23Z</time>
  <course>0.0</course>
  <speed>0.0</speed>
  <fix>3d</fix>
</trkpt>
<trkpt lat="33.810313" lon="-118.393867">
  <ele>-0.125</ele>
  <time>2026-09-01T01:17:23Z</time>
  <course>188.23</course>
  <speed>0.01414213562373095</speed>
  <fix>3d</fix>
</trkpt>
<trkpt lat="33.810313" lon="-118.393867">
  <ele>-0.12</ele>
  <time>2026-09-01T01:17:23Z</time>
  <course>0.0</course>
  <speed>0.0</speed>
  <fix>3d</fix>
</trkpt>
<trkpt lat="33.810313" lon="-118.393867">
  <ele>-0.127</ele>
  <time>2026-09-01T01:17:23Z</time>
  <course>188.22</course>
  <speed>0.01414213562373095</speed>
  <fix>3d</fix>
</trkpt>
<trkpt lat="33.810313" lon="-118.393867">
  <ele>-0.12</ele>
  <time>2026-09-01T01:17:23Z</time>
  <course>0.0</course>
  <speed>0.0</speed>
  <fix>3d</fix>
</trkpt>
<trkpt lat="33.810313" lon="-118.393867">
  <ele>-0.128</ele>
  <time>2026-09-01T01:17:23Z</time>
  <course>188.21</course>
  <speed>0.01414213562373095</speed>
  <fix>3d</fix>
</trkpt>
<trkpt lat="33.810313" lon="-118.393867">
  <ele>-0.12</ele>
  <time>2026-09-01T01:17:23Z</time>
  <course>0.0</course>
  <speed>0.0</speed>
  <fix>3d</fix>
</trkpt>
<trkpt lat="33.810313" lon="-118.393867">
  <ele>-0.129</ele>
  <time>2026-09-01T01:17:23Z</time>
  <course>188.21</course>
  <speed>0.01414213562373095</speed>
  <fix>3d</fix>
</trkpt>
<trkpt lat="33.810313" lon="-118.393867">
  <ele>-0.12</ele>
  <time>2026-09-01T01:17:23Z</time>
  <course>0.0</course>
  <speed>0.0</speed>
  <fix>3d</fix>
</trkpt>
<trkpt lat="33.810313" lon="-118.393867">
  <ele>-0.129</ele>
  <time>2026-09-01T01:17:23Z</time>
  <course>188.2</course>
  <speed>0.01414213562373095</speed>
  <fix>3d</fix>
</trkpt>
<trkpt lat="33.810313" lon="-118.393867">
  <ele>-0.12</ele>
  <time>2026-09-01T01:17:23Z</time>
  <course>0.0</course>
  <speed>0.0</speed>
  <fix>3d</fix>
</trkpt>
<trkpt lat="33.810313" lon="-118.393867">
  <ele>-0.128</ele>
  <time>2026-09-01T01:17:23Z</time>
  <course>188.19</course>
  <speed>0.01414213562373095</speed>
  <fix>3d</fix>
</trkpt>
<trkpt lat="33.810313" lon="-118.393867">
  <ele>-0.12</ele>
  <time>2026-09-01T01:17:23Z</time>
  <course>0.0</course>
  <speed>0.0</speed>
  <fix>3d</fix>
</trkpt>
<trkpt lat="33.810313" lon="-118.393867">
  <ele>-0.128</ele>
  <time>2026-09-01T01:17:23Z</time>
  <course>188.18</course>
  <speed>0.01414213562373095</speed>
  <fix>3d</fix>
</trkpt>
<trkpt lat="33.810313" lon="-118.393867">
  <ele>-0.12</ele>
  <time>2026-09-01T01:17:23Z</time>
  <course>0.0</course>
  <speed>0.0</speed>
  <fix>3d</fix>
</trkpt>
<trkpt lat="33.810313" lon="-118.393867">
  <ele>-0.127</ele>
  <time>2026-09-01T01:17:23Z</time>
  <course>188.17</course>
  <speed>0.01414213562373095</speed>
  <fix>3d</fix>
</trkpt>
<trkpt lat="33.810313" lon="-118.393867">
  <ele>-0.12</ele>
  <time>2026-09-01T01:17:23Z</time>
  <course>0.0</course>
  <speed>0.0</speed>
  <fix>3d</fix>
</trkpt>
<trkpt lat="33.810313" lon="-118.393867">
  <ele>-0.127</ele>
  <time>2026-09-01T01:17:23Z</time>
  <course>188.16</course>
  <speed>0.01414213562373095</speed>
  <fix>3d</fix>
</trkpt>
<trkpt lat="33.810313" lon="-118.393867">
  <ele>-0.12</ele>
  <time>2026-09-01T01:17:23Z</time>
  <course>0.0</course>
  <speed>0.0</speed>
  <fix>3d</fix>
</trkpt>
<trkpt lat="33.810313" lon="-118.393867">
  <ele>-0.128</ele>
  <time>2026-09-01T01:17:23Z</time>
  <course>188.16</course>
  <speed>0.01414213562373095</speed>
  <fix>3d</fix>
</trkpt>
<trkpt lat="33.810313" lon="-118.393867">
  <ele>-0.12</ele>
  <time>2026-09-01T01:17:23Z</time>
  <course>0.0</course>
  <speed>0.0</speed>
  <fix>3d</fix>
</trkpt>
<trkpt lat="33.810313" lon="-118.393867">
  <ele>-0.129</ele>
  <time>2026-09-01T01:17:23Z</time>
  <course>188.15</course>
  <speed>0.01414213562373095</speed>
  <fix>3d</fix>
</trkpt>
<trkpt lat="33.810313" lon="-118.393867">
  <ele>-0.12</ele>
  <time>2026-09-01T01:17:23Z</time>
  <course>0.0</course>
  <speed>0.0</speed>
  <fix>3d</fix>
</trkpt>
<trkpt lat="33.810313" lon="-118.393867">
  <ele>-0.131</ele>
  <time>2026-09-01T01:17:23Z</time>
  <course>188.14</course>
  <speed>0.01414213562373095</speed>
  <fix>3d</fix>
</trkpt>
<trkpt lat="33.810313" lon="-118.393867">
  <ele>-0.12</ele>
  <time>2026-09-01T01:17:23Z</time>
  <course>0.0</course>
  <speed>0.0</speed>
  <fix>3d</fix>
</trkpt>
<trkpt lat="33.810313" lon="-118.393867">
  <ele>-0.133</ele>
  <time>2026-09-01T01:17:23Z</time>
  <course>188.13</course>
  <speed>0.01414213562373095</speed>
  <fix>3d</fix>
</trkpt>
<trkpt lat="33.810313" lon="-118.393867">
  <ele>-0.12</ele>
  <time>2026-09-01T01:17:23Z</time>
  <course>0.0</course>
  <speed>0.0</speed>
  <fix>3d</fix>
</trkpt>
<trkpt lat="33.810313" lon="-118.393867">
  <ele>-0.135</ele>
  <time>2026-09-01T01:17:23Z</time>
  <course>188.12</course>
  <speed>0.01414213562373095</speed>
  <fix>3d</fix>
</trkpt>
<trkpt lat="33.810313" lon="-118.393867">
  <ele>-0.12</ele>
  <time>2026-09-01T01:17:23Z</time>
  <course>0.0</course>
  <speed>0.0</speed>
  <fix>3d</fix>
</trkpt>
<trkpt lat="33.810313" lon="-118.393867">
  <ele>-0.136</ele>
  <time>2026-09-01T01:17:23Z</time>
  <course>188.12</course>
  <speed>0.01414213562373095</speed>
  <fix>3d</fix>
</trkpt>
<trkpt lat="33.810313" lon="-118.393867">
  <ele>-0.12</ele>
  <time>2026-09-01T01:17:23Z</time>
  <course>0.0</course>
  <speed>0.0</speed>
  <fix>3d</fix>
</trkpt>
<trkpt lat="33.810313" lon="-118.393867">
  <ele>-0.136</ele>
  <time>2026-09-01T01:17:23Z</time>
  <course>188.11</course>
  <speed>0.01414213562373095</speed>
  <fix>3d</fix>
</trkpt>
<trkpt lat="33.810313" lon="-118.393867">
  <ele>-0.12</ele>
  <time>2026-09-01T01:17:23Z</time>
  <course>0.0</course>
  <speed>0.0</speed>
  <fix>3d</fix>
</trkpt>
<trkpt lat="33.810313" lon="-118.393867">
  <ele>-0.136</ele>
  <time>2026-09-01T01:17:23Z</time>
  <course>188.1</course>
  <speed>0.01414213562373095</speed>
  <fix>3d</fix>
</trkpt>
<trkpt lat="33.810313" lon="-118.393867">
  <ele>-0.12</ele>
  <time>2026-09-01T01:17:23Z</time>
  <course>0.0</course>
  <speed>0.0</speed>
  <fix>3d</fix>
</trkpt>
<trkpt lat="33.810313" lon="-118.393867">
  <ele>-0.135</ele>
  <time>2026-09-01T01:17:23Z</time>
  <course>188.09</course>
  <speed>0.01414213562373095</speed>
  <fix>3d</fix>
</trkpt>
<trkpt lat="33.810313" lon="-118.393867">
  <ele>-0.12</ele>
  <time>2026-09-01T01:17:23Z</time>
  <course>0.0</course>
  <speed>0.0</speed>
  <fix>3d</fix>
</trkpt>
<trkpt lat="33.810313" lon="-118.393867">
  <ele>-0.134</ele>
  <time>2026-09-01T01:17:23Z</time>
  <course>188.08</course>
  <speed>0.01414213562373095</speed>
  <fix>3d</fix>
</trkpt>
<trkpt lat="33.810313" lon="-118.393867">
  <ele>-0.12</ele>
  <time>2026-09-01T01:17:23Z</time>
  <course>0.0</course>
  <speed>0.0</speed>
  <fix>3d</fix>
</trkpt>
<trkpt lat="33.810313" lon="-118.393867">
  <ele>-0.131</ele>
  <time>2026-09-01T01:17:23Z</time>
  <course>188.07</course>
  <speed>0.022360679774997897</speed>
  <fix>3d</fix>
</trkpt>
<trkpt lat="33.810313" lon="-118.393867">
  <ele>-0.12</ele>
  <time>2026-09-01T01:17:23Z</time>
  <course>0.0</course>
  <speed>0.0</speed>
  <fix>3d</fix>
</trkpt>
<trkpt lat="33.810313" lon="-118.393867">
  <ele>-0.128</ele>
  <time>2026-09-01T01:17:23Z</time>
  <course>188.07</course>
  <speed>0.022360679774997897</speed>
  <fix>3d</fix>
</trkpt>
<trkpt lat="33.810313" lon="-118.393867">
  <ele>-0.12</ele>
  <time>2026-09-01T01:17:23Z</time>
  <course>0.0</course>
  <speed>0.0</speed>
  <fix>3d</fix>
</trkpt>
<trkpt lat="33.810313" lon="-118.393867">
  <ele>-0.127</ele>
  <time>2026-09-01T01:17:23Z</time>
  <course>188.06</course>
  <speed>0.022360679774997897</speed>
  <fix>3d</fix>
</trkpt>
<trkpt lat="33.810313" lon="-118.393867">
  <ele>-0.12</ele>
  <time>2026-09-01T01:17:23Z</time>
  <course>0.0</course>
  <speed>0.0</speed>
  <fix>3d</fix>
</trkpt>
<trkpt lat="33.810313" lon="-118.393867">
  <ele>-0.126</ele>
  <time>2026-09-01T01:17:23Z</time>
  <course>188.05</course>
  <speed>0.022360679774997897</speed>
  <fix>3d</fix>
</trkpt>
<trkpt lat="33.810313" lon="-118.393867">
  <ele>-0.12</ele>
  <time>2026-09-01T01:17:23Z</time>
  <course>0.0</course>
  <speed>0.0</speed>
  <fix>3d</fix>
</trkpt>
<trkpt lat="33.810313" lon="-118.393867">
  <ele>-0.126</ele>
  <time>2026-09-01T01:17:23Z</time>
  <course>188.04</course>
  <speed>0.022360679774997897</speed>
  <fix>3d</fix>
</trkpt>
<trkpt lat="33.810313" lon="-118.393867">
  <ele>-0.12</ele>
  <time>2026-09-01T01:17:23Z</time>
  <course>0.0</course>
  <speed>0.0</speed>
  <fix>3d</fix>
</trkpt>
<trkpt lat="33.810313" lon="-118.393867">
  <ele>-0.127</ele>
  <time>2026-09-01T01:17:23Z</time>
  <course>188.03</course>
  <speed>0.022360679774997897</speed>
  <fix>3d</fix>
</trkpt>
<trkpt lat="33.810313" lon="-118.393867">
  <ele>-0.12</ele>
  <time>2026-09-01T01:17:23Z</time>
  <course>0.0</course>
  <speed>0.0</speed>
  <fix>3d</fix>
</trkpt>
<trkpt lat="33.810313" lon="-118.393867">
  <ele>-0.127</ele>
  <time>2026-09-01T01:17:23Z</time>
  <course>188.03</course>
  <speed>0.022360679774997897</speed>
  <fix>3d</fix>
</trkpt>
<trkpt lat="33.810313" lon="-118.393867">
  <ele>-0.12</ele>
  <time>2026-09-01T01:17:23Z</time>
  <course>0.0</course>
  <speed>0.0</speed>
  <fix>3d</fix>
</trkpt>
<trkpt lat="33.810313" lon="-118.393867">
  <ele>-0.127</ele>
  <time>2026-09-01T01:17:23Z</time>
  <course>188.02</course>
  <speed>0.022360679774997897</speed>
  <fix>3d</fix>
</trkpt>
<trkpt lat="33.810313" lon="-118.393867">
  <ele>-0.12</ele>
  <time>2026-09-01T01:17:23Z</time>
  <course>0.0</course>
  <speed>0.0</speed>
  <fix>3d</fix>
</trkpt>
<trkpt lat="33.810313" lon="-118.393867">
  <ele>-0.128</ele>
  <time>2026-09-01T01:17:23Z</time>
  <course>188.01</course>
  <speed>0.022360679774997897</speed>
  <fix>3d</fix>
</trkpt>
<trkpt lat="33.810313" lon="-118.393867">
  <ele>-0.12</ele>
  <time>2026-09-01T01:17:23Z</time>
  <course>0.0</course>
  <speed>0.0</speed>
  <fix>3d</fix>
</trkpt>
<trkpt lat="33.810313" lon="-118.393867">
  <ele>-0.128</ele>
  <time>2026-09-01T01:17:23Z</time>
  <course>188.0</course>
  <speed>0.022360679774997897</speed>
  <fix>3d</fix>
</trkpt>
<trkpt lat="33.810313" lon="-118.393867">
  <ele>-0.12</ele>
  <time>2026-09-01T01:17:23Z</time>
  <course>0.0</course>
  <speed>0.0</speed>
  <fix>3d</fix>
</trkpt>
<trkpt lat="33.810313" lon="-118.393867">
  <ele>-0.128</ele>
  <time>2026-09-01T01:17:23Z</time>
  <course>187.99</course>
  <speed>0.022360679774997897</speed>
  <fix>3d</fix>
</trkpt>
<trkpt lat="33.810313" lon="-118.393867">
  <ele>-0.12</ele>
  <time>2026-09-01T01:17:23Z</time>
  <course>0.0</course>
  <speed>0.0</speed>
  <fix>3d</fix>
</trkpt>
<trkpt lat="33.810313" lon="-118.393867">
  <ele>-0.126</ele>
  <time>2026-09-01T01:17:23Z</time>
  <course>187.99</course>
  <speed>0.022360679774997897</speed>
  <fix>3d</fix>
</trkpt>
<trkpt lat="33.810313" lon="-118.393867">
  <ele>-0.12</ele>
  <time>2026-09-01T01:17:23Z</time>
  <course>0.0</course>
  <speed>0.0</speed>
  <fix>3d</fix>
</trkpt>
<trkpt lat="33.810313" lon="-118.393867">
  <ele>-0.124</ele>
  <time>2026-09-01T01:17:23Z</time>
  <course>187.98</course>
  <speed>0.022360679774997897</speed>
  <fix>3d</fix>
</trkpt>
<trkpt lat="33.810313" lon="-118.393867">
  <ele>-0.12</ele>
  <time>2026-09-01T01:17:23Z</time>
  <course>0.0</course>
  <speed>0.0</speed>
  <fix>3d</fix>
</trkpt>
<trkpt lat="33.810313" lon="-118.393867">
  <ele>-0.122</ele>
  <time>2026-09-01T01:17:23Z</time>
  <course>187.97</course>
  <speed>0.022360679774997897</speed>
  <fix>3d</fix>
</trkpt>
<trkpt lat="33.810313" lon="-118.393867">
  <ele>-0.12</ele>
  <time>2026-09-01T01:17:23Z</time>
  <course>0.0</course>
  <speed>0.0</speed>
  <fix>3d</fix>
</trkpt>
<trkpt lat="33.810313" lon="-118.393867">
  <ele>-0.12</ele>
  <time>2026-09-01T01:17:23Z</time>
  <course>187.96</course>
  <speed>0.022360679774997897</speed>
  <fix>3d</fix>
</trkpt>
<trkpt lat="33.810313" lon="-118.393867">
  <ele>-0.12</ele>
  <time>2026-09-01T01:17:23Z</time>
  <course>0.0</course>
  <speed>0.0</speed>
  <fix>3d</fix>
</trkpt>
<trkpt lat="33.810313" lon="-118.393867">
  <ele>-0.12</ele>
  <time>2026-09-01T01:17:23Z</time>
  <course>187.95</course>
  <speed>0.022360679774997897</speed>
  <fix>3d</fix>
</trkpt>
<trkpt lat="33.810313" lon="-118.393867">
  <ele>-0.12</ele>
  <time>2026-09-01T01:17:23Z</time>
  <course>0.0</course>
  <speed>0.0</speed>
  <fix>3d</fix>
</trkpt>
<trkpt lat="33.810313" lon="-118.393867">
  <ele>-0.122</ele>
  <time>2026-09-01T01:17:23Z</time>
  <course>187.94</course>
  <speed>0.022360679774997897</speed>
  <fix>3d</fix>
</trkpt>
<trkpt lat="33.810313" lon="-118.393867">
  <ele>-0.12</ele>
  <time>2026-09-01T01:17:23Z</time>
  <course>0.0</course>
  <speed>0.0</speed>
  <fix>3d</fix>
</trkpt>
<trkpt lat="33.810313" lon="-118.393867">
  <ele>-0.125</ele>
  <time>2026-09-01T01:17:23Z</time>
  <course>187.94</course>
  <speed>0.022360679774997897</speed>
  <fix>3d</fix>
</trkpt>
<trkpt lat="33.810313" lon="-118.393867">
  <ele>-0.12</ele>
  <time>2026-09-01T01:17:23Z</time>
  <course>0.0</course>
  <speed>0.0</speed>
  <fix>3d</fix>
</trkpt>
<trkpt lat="33.810313" lon="-118.393867">
  <ele>-0.128</ele>
  <time>2026-09-01T01:17:23Z</time>
  <course>187.93</course>
  <speed>0.022360679774997897</speed>
  <fix>3d</fix>
</trkpt>
<trkpt lat="33.810313" lon="-118.393867">
  <ele>-0.12</ele>
  <time>2026-09-01T01:17:23Z</time>
  <course>0.0</course>
  <speed>0.0</speed>
  <fix>3d</fix>
</trkpt>
<trkpt lat="33.810313" lon="-118.393867">
  <ele>-0.131</ele>
  <time>2026-09-01T01:17:23Z</time>
  <course>187.92</course>
  <speed>0.022360679774997897</speed>
  <fix>3d</fix>
</trkpt>
<trkpt lat="33.810313" lon="-118.393867">
  <ele>-0.12</ele>
  <time>2026-09-01T01:17:23Z</time>
  <course>0.0</course>
  <speed>0.0</speed>
  <fix>3d</fix>
</trkpt>
<trkpt lat="33.810313" lon="-118.393867">
  <ele>-0.132</ele>
  <time>2026-09-01T01:17:23Z</time>
  <course>187.91</course>
  <speed>0.022360679774997897</speed>
  <fix>3d</fix>
</trkpt>
<trkpt lat="33.810313" lon="-118.393867">
  <ele>-0.12</ele>
  <time>2026-09-01T01:17:23Z</time>
  <course>0.0</course>
  <speed>0.0</speed>
  <fix>3d</fix>
</trkpt>
<trkpt lat="33.810313" lon="-118.393867">
  <ele>-0.132</ele>
  <time>2026-09-01T01:17:23Z</time>
  <course>187.91</course>
  <speed>0.022360679774997897</speed>
  <fix>3d</fix>
</trkpt>
<trkpt lat="33.810313" lon="-118.393867">
  <ele>-0.12</ele>
  <time>2026-09-01T01:17:23Z</time>
  <course>0.0</course>
  <speed>0.0</speed>
  <fix>3d</fix>
</trkpt>
<trkpt lat="33.810313" lon="-118.393867">
  <ele>-0.132</ele>
  <time>2026-09-01T01:17:23Z</time>
  <course>187.9</course>
  <speed>0.022360679774997897</speed>
  <fix>3d</fix>
</trkpt>
<trkpt lat="33.810313" lon="-118.393867">
  <ele>-0.12</ele>
  <time>2026-09-01T01:17:23Z</time>
  <course>0.0</course>
  <speed>0.0</speed>
  <fix>3d</fix>
</trkpt>
<trkpt lat="33.810313" lon="-118.393867">
  <ele>-0.13</ele>
  <time>2026-09-01T01:17:23Z</time>
  <course>187.89</course>
  <speed>0.022360679774997897</speed>
  <fix>3d</fix>
</trkpt>
<trkpt lat="33.810313" lon="-118.393867">
  <ele>-0.12</ele>
  <time>2026-09-01T01:17:23Z</time>
  <course>0.0</course>
  <speed>0.0</speed>
  <fix>3d</fix>
</trkpt>
<trkpt lat="33.810313" lon="-118.393867">
  <ele>-0.127</ele>
  <time>2026-09-01T01:17:23Z</time>
  <course>187.88</course>
  <speed>0.022360679774997897</speed>
  <fix>3d</fix>
</trkpt>
<trkpt lat="33.810313" lon="-118.393867">
  <ele>-0.12</ele>
  <time>2026-09-01T01:17:23Z</time>
  <course>0.0</course>
  <speed>0.0</speed>
  <fix>3d</fix>
</trkpt>
<trkpt lat="33.810313" lon="-118.393867">
  <ele>-0.123</ele>
  <time>2026-09-01T01:17:23Z</time>
  <course>187.87</course>
  <speed>0.022360679774997897</speed>
  <fix>3d</fix>
</trkpt>
<trkpt lat="33.810313" lon="-118.393867">
  <ele>-0.12</ele>
  <time>2026-09-01T01:17:23Z</time>
  <course>0.0</course>
  <speed>0.0</speed>
  <fix>3d</fix>
</trkpt>
<trkpt lat="33.810313" lon="-118.393867">
  <ele>-0.121</ele>
  <time>2026-09-01T01:17:23Z</time>
  <course>187.87</course>
  <speed>0.022360679774997897</speed>
  <fix>3d</fix>
</trkpt>
<trkpt lat="33.810313" lon="-118.393867">
  <ele>-0.12</ele>
  <time>2026-09-01T01:17:23Z</time>
  <course>0.0</course>
  <speed>0.0</speed>
  <fix>3d</fix>
</trkpt>
<trkpt lat="33.810313" lon="-118.393867">
  <ele>-0.121</ele>
  <time>2026-09-01T01:17:23Z</time>
  <course>187.86</course>
  <speed>0.022360679774997897</speed>
  <fix>3d</fix>
</trkpt>
<trkpt lat="33.810313" lon="-118.393867">
  <ele>-0.12</ele>
  <time>2026-09-01T01:17:23Z</time>
  <course>0.0</course>
  <speed>0.0</speed>
  <fix>3d</fix>
</trkpt>
<trkpt lat="33.810313" lon="-118.393867">
  <ele>-0.123</ele>
  <time>2026-09-01T01:17:23Z</time>
  <course>187.85</course>
  <speed>0.022360679774997897</speed>
  <fix>3d</fix>
</trkpt>
<trkpt lat="33.810313" lon="-118.393867">
  <ele>-0.12</ele>
  <time>2026-09-01T01:17:23Z</time>
  <course>0.0</course>
  <speed>0.0</speed>
  <fix>3d</fix>
</trkpt>
<trkpt lat="33.810313" lon="-118.393867">
  <ele>-0.124</ele>
  <time>2026-09-01T01:17:23Z</time>
  <course>187.84</course>
  <speed>0.022360679774997897</speed>
  <fix>3d</fix>
</trkpt>
<trkpt lat="33.810313" lon="-118.393867">
  <ele>-0.12</ele>
  <time>2026-09-01T01:17:23Z</time>
  <course>0.0</course>
  <speed>0.0</speed>
  <fix>3d</fix>
</trkpt>
<trkpt lat="33.810313" lon="-118.393867">
  <ele>-0.126</ele>
  <time>2026-09-01T01:17:23Z</time>
  <course>187.83</course>
  <speed>0.022360679774997897</speed>
  <fix>3d</fix>
</trkpt>
<trkpt lat="33.810313" lon="-118.393867">
  <ele>-0.12</ele>
  <time>2026-09-01T01:17:23Z</time>
  <course>0.0</course>
  <speed>0.0</speed>
  <fix>3d</fix>
</trkpt>
<trkpt lat="33.810313" lon="-118.393867">
  <ele>-0.127</ele>
  <time>2026-09-01T01:17:23Z</time>
  <course>187.83</course>
  <speed>0.022360679774997897</speed>
  <fix>3d</fix>
</trkpt>
<trkpt lat="33.810313" lon="-118.393867">
  <ele>-0.12</ele>
  <time>2026-09-01T01:17:23Z</time>
  <course>0.0</course>
  <speed>0.0</speed>
  <fix>3d</fix>
</trkpt>
<trkpt lat="33.810313" lon="-118.393867">
  <ele>-0.127</ele>
  <time>2026-09-01T01:17:23Z</time>
  <course>187.82</course>
  <speed>0.022360679774997897</speed>
  <fix>3d</fix>
</trkpt>
<trkpt lat="33.810313" lon="-118.393867">
  <ele>-0.12</ele>
  <time>2026-09-01T01:17:23Z</time>
  <course>0.0</course>
  <speed>0.0</speed>
  <fix>3d</fix>
</trkpt>
<trkpt lat="33.810313" lon="-118.393867">
  <ele>-0.127</ele>
  <time>2026-09-01T01:17:23Z</time>
  <course>187.81</course>
  <speed>0.022360679774997897</speed>
  <fix>3d</fix>
</trkpt>
<trkpt lat="33.810313" lon="-118.393867">
  <ele>-0.12</ele>
  <time>2026-09-01T01:17:23Z</time>
  <course>0.0</course>
  <speed>0.0</speed>
  <fix>3d</fix>
</trkpt>
<trkpt lat="33.810313" lon="-118.393867">
  <ele>-0.126</ele>
  <time>2026-09-01T01:17:23Z</time>
  <course>187.8</course>
  <speed>0.022360679774997897</speed>
  <fix>3d</fix>
</trkpt>
<trkpt lat="33.810313" lon="-118.393867">
  <ele>-0.12</ele>
  <time>2026-09-01T01:17:23Z</time>
  <course>0.0</course>
  <speed>0.0</speed>
  <fix>3d</fix>
</trkpt>
<trkpt lat="33.810313" lon="-118.393867">
  <ele>-0.124</ele>
  <time>2026-09-01T01:17:23Z</time>
  <course>187.8</course>
  <speed>0.022360679774997897</speed>
  <fix>3d</fix>
</trkpt>
<trkpt lat="33.810313" lon="-118.393867">
  <ele>-0.12</ele>
  <time>2026-09-01T01:17:23Z</time>
  <course>0.0</course>
  <speed>0.0</speed>
  <fix>3d</fix>
</trkpt>
<trkpt lat="33.810313" lon="-118.393867">
  <ele>-0.121</ele>
  <time>2026-09-01T01:17:23Z</time>
  <course>187.79</course>
  <speed>0.022360679774997897</speed>
  <fix>3d</fix>
</trkpt>
<trkpt lat="33.810313" lon="-118.393867">
  <ele>-0.12</ele>
  <time>2026-09-01T01:17:23Z</time>
  <course>0.0</course>
  <speed>0.0</speed>
  <fix>3d</fix>
</trkpt>
<trkpt lat="33.810313" lon="-118.393867">
  <ele>-0.119</ele>
  <time>2026-09-01T01:17:23Z</time>
  <course>187.78</course>
  <speed>0.022360679774997897</speed>
  <fix>3d</fix>
</trkpt>
<trkpt lat="33.810313" lon="-118.393867">
  <ele>-0.12</ele>
  <time>2026-09-01T01:17:23Z</time>
  <course>0.0</course>
  <speed>0.0</speed>
  <fix>3d</fix>
</trkpt>
<trkpt lat="33.810313" lon="-118.393867">
  <ele>-0.118</ele>
  <time>2026-09-01T01:17:23Z</time>
  <course>187.77</course>
  <speed>0.022360679774997897</speed>
  <fix>3d</fix>
</trkpt>
<trkpt lat="33.810313" lon="-118.393867">
  <ele>-0.12</ele>
  <time>2026-09-01T01:17:23Z</time>
  <course>0.0</course>
  <speed>0.0</speed>
  <fix>3d</fix>
</trkpt>
<trkpt lat="33.810313" lon="-118.393867">
  <ele>-0.118</ele>
  <time>2026-09-01T01:17:23Z</time>
  <course>187.77</course>
  <speed>0.022360679774997897</speed>
  <fix>3d</fix>
</trkpt>
<trkpt lat="33.810313" lon="-118.393867">
  <ele>-0.12</ele>
  <time>2026-09-01T01:17:23Z</time>
  <course>0.0</course>
  <speed>0.0</speed>
  <fix>3d</fix>
</trkpt>
<trkpt lat="33.810313" lon="-118.393867">
  <ele>-0.119</ele>
  <time>2026-09-01T01:17:23Z</time>
  <course>187.76</course>
  <speed>0.022360679774997897</speed>
  <fix>3d</fix>
</trkpt>
<trkpt lat="33.810313" lon="-118.393867">
  <ele>-0.12</ele>
  <time>2026-09-01T01:17:23Z</time>
  <course>0.0</course>
  <speed>0.0</speed>
  <fix>3d</fix>
</trkpt>
<trkpt lat="33.810313" lon="-118.393867">
  <ele>-0.12</ele>
  <time>2026-09-01T01:17:23Z</time>
  <course>187.75</course>
  <speed>0.022360679774997897</speed>
  <fix>3d</fix>
</trkpt>
<trkpt lat="33.810313" lon="-118.393867">
  <ele>-0.12</ele>
  <time>2026-09-01T01:17:23Z</time>
  <course>0.0</course>
  <speed>0.0</speed>
  <fix>3d</fix>
</trkpt>
<trkpt lat="33.810313" lon="-118.393867">
  <ele>-0.12</ele>
  <time>2026-09-01T01:17:23Z</time>
  <course>187.74</course>
  <speed>0.0282842712474619</speed>
  <fix>3d</fix>
</trkpt>
<trkpt lat="33.810313" lon="-118.393867">
  <ele>-0.12</ele>
  <time>2026-09-01T01:17:23Z</time>
  <course>0.0</course>
  <speed>0.0</speed>
  <fix>3d</fix>
</trkpt>
<trkpt lat="33.810313" lon="-118.393867">
  <ele>-0.12</ele>
  <time>2026-09-01T01:17:23Z</time>
  <course>187.74</course>
  <speed>0.0282842712474619</speed>
  <fix>3d</fix>
</trkpt>
<trkpt lat="33.810313" lon="-118.393867">
  <ele>-0.12</ele>
  <time>2026-09-01T01:17:23Z</time>
  <course>0.0</course>
  <speed>0.0</speed>
  <fix>3d</fix>
</trkpt>
<trkpt lat="33.810313" lon="-118.393867">
  <ele>-0.119</ele>
  <time>2026-09-01T01:17:23Z</time>
  <course>187.73</course>
  <speed>0.0282842712474619</speed>
  <fix>3d</fix>
</trkpt>
<trkpt lat="33.810313" lon="-118.393867">
  <ele>-0.12</ele>
  <time>2026-09-01T01:17:23Z</time>
  <course>0.0</course>
  <speed>0.0</speed>
  <fix>3d</fix>
</trkpt>
<trkpt lat="33.810313" lon="-118.393867">
  <ele>-0.118</ele>
  <time>2026-09-01T01:17:23Z</time>
  <course>187.72</course>
  <speed>0.0282842712474619</speed>
  <fix>3d</fix>
</trkpt>
<trkpt lat="33.810313" lon="-118.393867">
  <ele>-0.12</ele>
  <time>2026-09-01T01:17:23Z</time>
  <course>0.0</course>
  <speed>0.0</speed>
  <fix>3d</fix>
</trkpt>
<trkpt lat="33.810313" lon="-118.393867">
  <ele>-0.116</ele>
  <time>2026-09-01T01:17:23Z</time>
  <course>187.71</course>
  <speed>0.0282842712474619</speed>
  <fix>3d</fix>
</trkpt>
<trkpt lat="33.810313" lon="-118.393867">
  <ele>-0.12</ele>
  <time>2026-09-01T01:17:23Z</time>
  <course>0.0</course>
  <speed>0.0</speed>
  <fix>3d</fix>
</trkpt>
<trkpt lat="33.810313" lon="-118.393867">
  <ele>-0.114</ele>
  <time>2026-09-01T01:17:23Z</time>
  <course>187.71</course>
  <speed>0.0282842712474619</speed>
  <fix>3d</fix>
</trkpt>
<trkpt lat="33.810313" lon="-118.393867">
  <ele>-0.12</ele>
  <time>2026-09-01T01:17:23Z</time>
  <course>0.0</course>
  <speed>0.0</speed>
  <fix>3d</fix>
</trkpt>
<trkpt lat="33.810313" lon="-118.393867">
  <ele>-0.112</ele>
  <time>2026-09-01T01:17:23Z</time>
  <course>187.7</course>
  <speed>0.0282842712474619</speed>
  <fix>3d</fix>
</trkpt>
<trkpt lat="33.810313" lon="-118.393867">
  <ele>-0.12</ele>
  <time>2026-09-01T01:17:23Z</time>
  <course>0.0</course>
  <speed>0.0</speed>
  <fix>3d</fix>
</trkpt>
<trkpt lat="33.810313" lon="-118.393867">
  <ele>-0.113</ele>
  <time>2026-09-01T01:17:23Z</time>
  <course>187.69</course>
  <speed>0.0282842712474619</speed>
  <fix>3d</fix>
</trkpt>
<trkpt lat="33.810313" lon="-118.393867">
  <ele>-0.12</ele>
  <time>2026-09-01T01:17:23Z</time>
  <course>0.0</course>
  <speed>0.0</speed>
  <fix>3d</fix>
</trkpt>
<trkpt lat="33.810313" lon="-118.393867">
  <ele>-0.115</ele>
  <time>2026-09-01T01:17:23Z</time>
  <course>187.69</course>
  <speed>0.0282842712474619</speed>
  <fix>3d</fix>
</trkpt>
<trkpt lat="33.810313" lon="-118.393867">
  <ele>-0.12</ele>
  <time>2026-09-01T01:17:23Z</time>
  <course>0.0</course>
  <speed>0.0</speed>
  <fix>3d</fix>
</trkpt>
<trkpt lat="33.810313" lon="-118.393867">
  <ele>-0.119</ele>
  <time>2026-09-01T01:17:23Z</time>
  <course>187.68</course>
  <speed>0.0282842712474619</speed>
  <fix>3d</fix>
</trkpt>
<trkpt lat="33.810313" lon="-118.393867">
  <ele>-0.12</ele>
  <time>2026-09-01T01:17:23Z</time>
  <course>0.0</course>
  <speed>0.0</speed>
  <fix>3d</fix>
</trkpt>
<trkpt lat="33.810313" lon="-118.393867">
  <ele>-0.123</ele>
  <time>2026-09-01T01:17:23Z</time>
  <course>187.67</course>
  <speed>0.0282842712474619</speed>
  <fix>3d</fix>
</trkpt>
<trkpt lat="33.810313" lon="-118.393867">
  <ele>-0.12</ele>
  <time>2026-09-01T01:17:23Z</time>
  <course>0.0</course>
  <speed>0.0</speed>
  <fix>3d</fix>
</trkpt>
<trkpt lat="33.810313" lon="-118.393867">
  <ele>-0.128</ele>
  <time>2026-09-01T01:17:23Z</time>
  <course>187.66</course>
  <speed>0.0282842712474619</speed>
  <fix>3d</fix>
</trkpt>
<trkpt lat="33.810313" lon="-118.393867">
  <ele>-0.12</ele>
  <time>2026-09-01T01:17:23Z</time>
  <course>0.0</course>
  <speed>0.0</speed>
  <fix>3d</fix>
</trkpt>
<trkpt lat="33.810313" lon="-118.393867">
  <ele>-0.132</ele>
  <time>2026-09-01T01:17:23Z</time>
  <course>187.66</course>
  <speed>0.0282842712474619</speed>
  <fix>3d</fix>
</trkpt>
<trkpt lat="33.810313" lon="-118.393867">
  <ele>-0.12</ele>
  <time>2026-09-01T01:17:23Z</time>
  <course>0.0</course>
  <speed>0.0</speed>
  <fix>3d</fix>
</trkpt>
<trkpt lat="33.810313" lon="-118.393867">
  <ele>-0.134</ele>
  <time>2026-09-01T01:17:23Z</time>
  <course>187.65</course>
  <speed>0.0282842712474619</speed>
  <fix>3d</fix>
</trkpt>
<trkpt lat="33.810313" lon="-118.393867">
  <ele>-0.12</ele>
  <time>2026-09-01T01:17:23Z</time>
  <course>0.0</course>
  <speed>0.0</speed>
  <fix>3d</fix>
</trkpt>
<trkpt lat="33.810313" lon="-118.393867">
  <ele>-0.135</ele>
  <time>2026-09-01T01:17:23Z</time>
  <course>187.64</course>
  <speed>0.0282842712474619</speed>
  <fix>3d</fix>
</trkpt>
<trkpt lat="33.810313" lon="-118.393867">
  <ele>-0.12</ele>
  <time>2026-09-01T01:17:23Z</time>
  <course>0.0</course>
  <speed>0.0</speed>
  <fix>3d</fix>
</trkpt>
<trkpt lat="33.810313" lon="-118.393867">
  <ele>-0.135</ele>
  <time>2026-09-01T01:17:23Z</time>
  <course>187.64</course>
  <speed>0.0282842712474619</speed>
  <fix>3d</fix>
</trkpt>
<trkpt lat="33.810313" lon="-118.393867">
  <ele>-0.12</ele>
  <time>2026-09-01T01:17:23Z</time>
  <course>0.0</course>
  <speed>0.0</speed>
  <fix>3d</fix>
</trkpt>
<trkpt lat="33.810313" lon="-118.393867">
  <ele>-0.133</ele>
  <time>2026-09-01T01:17:23Z</time>
  <course>187.63</course>
  <speed>0.0282842712474619</speed>
  <fix>3d</fix>
</trkpt>
<trkpt lat="33.810313" lon="-118.393867">
  <ele>-0.12</ele>
  <time>2026-09-01T01:17:23Z</time>
  <course>0.0</course>
  <speed>0.0</speed>
  <fix>3d</fix>
</trkpt>
<trkpt lat="33.810313" lon="-118.393867">
  <ele>-0.132</ele>
  <time>2026-09-01T01:17:23Z</time>
  <course>187.63</course>
  <speed>0.0282842712474619</speed>
  <fix>3d</fix>
</trkpt>
<trkpt lat="33.810313" lon="-118.393867">
  <ele>-0.12</ele>
  <time>2026-09-01T01:17:23Z</time>
  <course>0.0</course>
  <speed>0.0</speed>
  <fix>3d</fix>
</trkpt>
<trkpt lat="33.810313" lon="-118.393867">
  <ele>-0.132</ele>
  <time>2026-09-01T01:17:23Z</time>
  <course>187.62</course>
  <speed>0.03605551275463989</speed>
  <fix>3d</fix>
</trkpt>
<trkpt lat="33.810313" lon="-118.393867">
  <ele>-0.12</ele>
  <time>2026-09-01T01:17:23Z</time>
  <course>0.0</course>
  <speed>0.0</speed>
  <fix>3d</fix>
</trkpt>
<trkpt lat="33.810313" lon="-118.393867">
  <ele>-0.132</ele>
  <time>2026-09-01T01:17:23Z</time>
  <course>187.61</course>
  <speed>0.03605551275463989</speed>
  <fix>3d</fix>
</trkpt>
<trkpt lat="33.810313" lon="-118.393867">
  <ele>-0.12</ele>
  <time>2026-09-01T01:17:23Z</time>
  <course>0.0</course>
  <speed>0.0</speed>
  <fix>3d</fix>
</trkpt>
<trkpt lat="33.810313" lon="-118.393867">
  <ele>-0.133</ele>
  <time>2026-09-01T01:17:23Z</time>
  <course>187.61</course>
  <speed>0.03605551275463989</speed>
  <fix>3d</fix>
</trkpt>
<trkpt lat="33.810313" lon="-118.393867">
  <ele>-0.12</ele>
  <time>2026-09-01T01:17:23Z</time>
  <course>0.0</course>
  <speed>0.0</speed>
  <fix>3d</fix>
</trkpt>
<trkpt lat="33.810313" lon="-118.393867">
  <ele>-0.134</ele>
  <time>2026-09-01T01:17:23Z</time>
  <course>187.6</course>
  <speed>0.03605551275463989</speed>
  <fix>3d</fix>
</trkpt>
<trkpt lat="33.810313" lon="-118.393867">
  <ele>-0.12</ele>
  <time>2026-09-01T01:17:23Z</time>
  <course>0.0</course>
  <speed>0.0</speed>
  <fix>3d</fix>
</trkpt>
<trkpt lat="33.810313" lon="-118.393867">
  <ele>-0.133</ele>
  <time>2026-09-01T01:17:23Z</time>
  <course>187.59</course>
  <speed>0.03605551275463989</speed>
  <fix>3d</fix>
</trkpt>
<trkpt lat="33.810313" lon="-118.393867">
  <ele>-0.12</ele>
  <time>2026-09-01T01:17:23Z</time>
  <course>0.0</course>
  <speed>0.0</speed>
  <fix>3d</fix>
</trkpt>
<trkpt lat="33.810313" lon="-118.393867">
  <ele>-0.132</ele>
  <time>2026-09-01T01:17:23Z</time>
  <course>187.59</course>
  <speed>0.03605551275463989</speed>
  <fix>3d</fix>
</trkpt>
<trkpt lat="33.810313" lon="-118.393867">
  <ele>-0.12</ele>
  <time>2026-09-01T01:17:23Z</time>
  <course>0.0</course>
  <speed>0.0</speed>
  <fix>3d</fix>
</trkpt>
<trkpt lat="33.810313" lon="-118.393867">
  <ele>-0.13</ele>
  <time>2026-09-01T01:17:23Z</time>
  <course>187.58</course>
  <speed>0.03605551275463989</speed>
  <fix>3d</fix>
</trkpt>
<trkpt lat="33.810313" lon="-118.393867">
  <ele>-0.12</ele>
  <time>2026-09-01T01:17:23Z</time>
  <course>0.0</course>
  <speed>0.0</speed>
  <fix>3d</fix>
</trkpt>
<trkpt lat="33.810313" lon="-118.393867">
  <ele>-0.127</ele>
  <time>2026-09-01T01:17:23Z</time>
  <course>187.57</course>
  <speed>0.03605551275463989</speed>
  <fix>3d</fix>
</trkpt>
<trkpt lat="33.810313" lon="-118.393867">
  <ele>-0.12</ele>
  <time>2026-09-01T01:17:23Z</time>
  <course>0.0</course>
  <speed>0.0</speed>
  <fix>3d</fix>
</trkpt>
<trkpt lat="33.810313" lon="-118.393867">
  <ele>-0.125</ele>
  <time>2026-09-01T01:17:23Z</time>
  <course>187.57</course>
  <speed>0.03605551275463989</speed>
  <fix>3d</fix>
</trkpt>
<trkpt lat="33.810313" lon="-118.393867">
  <ele>-0.12</ele>
  <time>2026-09-01T01:17:23Z</time>
  <course>0.0</course>
  <speed>0.0</speed>
  <fix>3d</fix>
</trkpt>
<trkpt lat="33.810313" lon="-118.393867">
  <ele>-0.122</ele>
  <time>2026-09-01T01:17:23Z</time>
  <course>187.56</course>
  <speed>0.03605551275463989</speed>
  <fix>3d</fix>
</trkpt>
<trkpt lat="33.810313" lon="-118.393867">
  <ele>-0.12</ele>
  <time>2026-09-01T01:17:23Z</time>
  <course>0.0</course>
  <speed>0.0</speed>
  <fix>3d</fix>
</trkpt>
<trkpt lat="33.810313" lon="-118.393867">
  <ele>-0.119</ele>
  <time>2026-09-01T01:17:23Z</time>
  <course>187.55</course>
  <speed>0.03605551275463989</speed>
  <fix>3d</fix>
</trkpt>
<trkpt lat="33.810313" lon="-118.393867">
  <ele>-0.12</ele>
  <time>2026-09-01T01:17:23Z</time>
  <course>0.0</course>
  <speed>0.0</speed>
  <fix>3d</fix>
</trkpt>
<trkpt lat="33.810313" lon="-118.393867">
  <ele>-0.117</ele>
  <time>2026-09-01T01:17:23Z</time>
  <course>187.55</course>
  <speed>0.03605551275463989</speed>
  <fix>3d</fix>
</trkpt>
<trkpt lat="33.810313" lon="-118.393867">
  <ele>-0.12</ele>
  <time>2026-09-01T01:17:23Z</time>
  <course>0.0</course>
  <speed>0.0</speed>
  <fix>3d</fix>
</trkpt>
<trkpt lat="33.810313" lon="-118.393867">
  <ele>-0.117</ele>
  <time>2026-09-01T01:17:23Z</time>
  <course>187.54</course>
  <speed>0.03605551275463989</speed>
  <fix>3d</fix>
</trkpt>
<trkpt lat="33.810313" lon="-118.393867">
  <ele>-0.12</ele>
  <time>2026-09-01T01:17:23Z</time>
  <course>0.0</course>
  <speed>0.0</speed>
  <fix>3d</fix>
</trkpt>
<trkpt lat="33.810313" lon="-118.393867">
  <ele>-0.118</ele>
  <time>2026-09-01T01:17:23Z</time>
  <course>187.53</course>
  <speed>0.03605551275463989</speed>
  <fix>3d</fix>
</trkpt>
<trkpt lat="33.810313" lon="-118.393867">
  <ele>-0.12</ele>
  <time>2026-09-01T01:17:23Z</time>
  <course>0.0</course>
  <speed>0.0</speed>
  <fix>3d</fix>
</trkpt>
<trkpt lat="33.810313" lon="-118.393867">
  <ele>-0.119</ele>
  <time>2026-09-01T01:17:23Z</time>
  <course>187.53</course>
  <speed>0.03605551275463989</speed>
  <fix>3d</fix>
</trkpt>
<trkpt lat="33.810313" lon="-118.393867">
  <ele>-0.12</ele>
  <time>2026-09-01T01:17:23Z</time>
  <course>0.0</course>
  <speed>0.0</speed>
  <fix>3d</fix>
</trkpt>
<trkpt lat="33.810313" lon="-118.393867">
  <ele>-0.12</ele>
  <time>2026-09-01T01:17:23Z</time>
  <course>187.52</course>
  <speed>0.03605551275463989</speed>
  <fix>3d</fix>
</trkpt>
<trkpt lat="33.810313" lon="-118.393867">
  <ele>-0.12</ele>
  <time>2026-09-01T01:17:23Z</time>
  <course>0.0</course>
  <speed>0.0</speed>
  <fix>3d</fix>
</trkpt>
<trkpt lat="33.810313" lon="-118.393867">
  <ele>-0.121</ele>
  <time>2026-09-01T01:17:23Z</time>
  <course>187.51</course>
  <speed>0.03605551275463989</speed>
  <fix>3d</fix>
</trkpt>
<trkpt lat="33.810313" lon="-118.393867">
  <ele>-0.12</ele>
  <time>2026-09-01T01:17:23Z</time>
  <course>0.0</course>
  <speed>0.0</speed>
  <fix>3d</fix>
</trkpt>
<trkpt lat="33.810313" lon="-118.393867">
  <ele>-0.121</ele>
  <time>2026-09-01T01:17:23Z</time>
  <course>187.51</course>
  <speed>0.03605551275463989</speed>
  <fix>3d</fix>
</trkpt>
<trkpt lat="33.810313" lon="-118.393867">
  <ele>-0.12</ele>
  <time>2026-09-01T01:17:23Z</time>
  <course>0.0</course>
  <speed>0.0</speed>
  <fix>3d</fix>
</trkpt>
<trkpt lat="33.810313" lon="-118.393867">
  <ele>-0.121</ele>
  <time>2026-09-01T01:17:23Z</time>
  <course>187.5</course>
  <speed>0.03605551275463989</speed>
  <fix>3d</fix>
</trkpt>
<trkpt lat="33.810313" lon="-118.393867">
  <ele>-0.12</ele>
  <time>2026-09-01T01:17:23Z</time>
  <course>0.0</course>
  <speed>0.0</speed>
  <fix>3d</fix>
</trkpt>
<trkpt lat="33.810313" lon="-118.393867">
  <ele>-0.121</ele>
  <time>2026-09-01T01:17:23Z</time>
  <course>187.49</course>
  <speed>0.03605551275463989</speed>
  <fix>3d</fix>
</trkpt>
<trkpt lat="33.810313" lon="-118.393867">
  <ele>-0.12</ele>
  <time>2026-09-01T01:17:23Z</time>
  <course>0.0</course>
  <speed>0.0</speed>
  <fix>3d</fix>
</trkpt>
<trkpt lat="33.810313" lon="-118.393867">
  <ele>-0.121</ele>
  <time>2026-09-01T01:17:23Z</time>
  <course>187.49</course>
  <speed>0.03605551275463989</speed>
  <fix>3d</fix>
</trkpt>
<trkpt lat="33.810313" lon="-118.393867">
  <ele>-0.12</ele>
  <time>2026-09-01T01:17:23Z</time>
  <course>0.0</course>
  <speed>0.0</speed>
  <fix>3d</fix>
</trkpt>
<trkpt lat="33.810313" lon="-118.393867">
  <ele>-0.121</ele>
  <time>2026-09-01T01:17:23Z</time>
  <course>187.48</course>
  <speed>0.03605551275463989</speed>
  <fix>3d</fix>
</trkpt>
<trkpt lat="33.810313" lon="-118.393867">
  <ele>-0.12</ele>
  <time>2026-09-01T01:17:23Z</time>
  <course>0.0</course>
  <speed>0.0</speed>
  <fix>3d</fix>
</trkpt>
<trkpt lat="33.810313" lon="-118.393867">
  <ele>-0.122</ele>
  <time>2026-09-01T01:17:23Z</time>
  <course>187.47</course>
  <speed>0.03605551275463989</speed>
  <fix>3d</fix>
</trkpt>
<trkpt lat="33.810313" lon="-118.393867">
  <ele>-0.12</ele>
  <time>2026-09-01T01:17:23Z</time>
  <course>0.0</course>
  <speed>0.0</speed>
  <fix>3d</fix>
</trkpt>
<trkpt lat="33.810313" lon="-118.393867">
  <ele>-0.124</ele>
  <time>2026-09-01T01:17:23Z</time>
  <course>187.47</course>
  <speed>0.03605551275463989</speed>
  <fix>3d</fix>
</trkpt>
<trkpt lat="33.810313" lon="-118.393867">
  <ele>-0.12</ele>
  <time>2026-09-01T01:17:23Z</time>
  <course>0.0</course>
  <speed>0.0</speed>
  <fix>3d</fix>
</trkpt>
<trkpt lat="33.810313" lon="-118.393867">
  <ele>-0.127</ele>
  <time>2026-09-01T01:17:23Z</time>
  <course>187.46</course>
  <speed>0.03605551275463989</speed>
  <fix>3d</fix>
</trkpt>
<trkpt lat="33.810313" lon="-118.393867">
  <ele>-0.12</ele>
  <time>2026-09-01T01:17:23Z</time>
  <course>0.0</course>
  <speed>0.0</speed>
  <fix>3d</fix>
</trkpt>
<trkpt lat="33.810313" lon="-118.393867">
  <ele>-0.129</ele>
  <time>2026-09-01T01:17:23Z</time>
  <course>187.46</course>
  <speed>0.03605551275463989</speed>
  <fix>3d</fix>
</trkpt>
<trkpt lat="33.810313" lon="-118.393867">
  <ele>-0.12</ele>
  <time>2026-09-01T01:17:23Z</time>
  <course>0.0</course>
  <speed>0.0</speed>
  <fix>3d</fix>
</trkpt>
<trkpt lat="33.810313" lon="-118.393867">
  <ele>-0.131</ele>
  <time>2026-09-01T01:17:23Z</time>
  <course>187.45</course>
  <speed>0.03605551275463989</speed>
  <fix>3d</fix>
</trkpt>
<trkpt lat="33.810313" lon="-118.393867">
  <ele>-0.12</ele>
  <time>2026-09-01T01:17:23Z</time>
  <course>0.0</course>
  <speed>0.0</speed>
  <fix>3d</fix>
</trkpt>
<trkpt lat="33.810313" lon="-118.393867">
  <ele>-0.132</ele>
  <time>2026-09-01T01:17:23Z</time>
  <course>187.44</course>
  <speed>0.03605551275463989</speed>
  <fix>3d</fix>
</trkpt>
<trkpt lat="33.810313" lon="-118.393867">
  <ele>-0.12</ele>
  <time>2026-09-01T01:17:23Z</time>
  <course>0.0</course>
  <speed>0.0</speed>
  <fix>3d</fix>
</trkpt>
<trkpt lat="33.810313" lon="-118.393867">
  <ele>-0.132</ele>
  <time>2026-09-01T01:17:23Z</time>
  <course>187.44</course>
  <speed>0.03605551275463989</speed>
  <fix>3d</fix>
</trkpt>
<trkpt lat="33.810313" lon="-118.393867">
  <ele>-0.12</ele>
  <time>2026-09-01T01:17:23Z</time>
  <course>0.0</course>
  <speed>0.0</speed>
  <fix>3d</fix>
</trkpt>
<trkpt lat="33.810313" lon="-118.393867">
  <ele>-0.132</ele>
  <time>2026-09-01T01:17:23Z</time>
  <course>187.43</course>
  <speed>0.03605551275463989</speed>
  <fix>3d</fix>
</trkpt>
<trkpt lat="33.810313" lon="-118.393867">
  <ele>-0.12</ele>
  <time>2026-09-01T01:17:23Z</time>
  <course>0.0</course>
  <speed>0.0</speed>
  <fix>3d</fix>
</trkpt>
<trkpt lat="33.810313" lon="-118.393867">
  <ele>-0.132</ele>
  <time>2026-09-01T01:17:23Z</time>
  <course>187.42</course>
  <speed>0.03605551275463989</speed>
  <fix>3d</fix>
</trkpt>
<trkpt lat="33.810313" lon="-118.393867">
  <ele>-0.12</ele>
  <time>2026-09-01T01:17:23Z</time>
  <course>0.0</course>
  <speed>0.0</speed>
  <fix>3d</fix>
</trkpt>
<trkpt lat="33.810313" lon="-118.393867">
  <ele>-0.131</ele>
  <time>2026-09-01T01:17:23Z</time>
  <course>187.42</course>
  <speed>0.03605551275463989</speed>
  <fix>3d</fix>
</trkpt>
<trkpt lat="33.810313" lon="-118.393867">
  <ele>-0.12</ele>
  <time>2026-09-01T01:17:23Z</time>
  <course>0.0</course>
  <speed>0.0</speed>
  <fix>3d</fix>
</trkpt>
<trkpt lat="33.810313" lon="-118.393867">
  <ele>-0.131</ele>
  <time>2026-09-01T01:17:23Z</time>
  <course>187.41</course>
  <speed>0.03605551275463989</speed>
  <fix>3d</fix>
</trkpt>
<trkpt lat="33.810313" lon="-118.393867">
  <ele>-0.12</ele>
  <time>2026-09-01T01:17:23Z</time>
  <course>0.0</course>
  <speed>0.0</speed>
  <fix>3d</fix>
</trkpt>
<trkpt lat="33.810313" lon="-118.393867">
  <ele>-0.132</ele>
  <time>2026-09-01T01:17:23Z</time>
  <course>187.41</course>
  <speed>0.03605551275463989</speed>
  <fix>3d</fix>
</trkpt>
<trkpt lat="33.810313" lon="-118.393867">
  <ele>-0.12</ele>
  <time>2026-09-01T01:17:23Z</time>
  <course>0.0</course>
  <speed>0.0</speed>
  <fix>3d</fix>
</trkpt>
<trkpt lat="33.810313" lon="-118.393867">
  <ele>-0.134</ele>
  <time>2026-09-01T01:17:23Z</time>
  <course>187.4</course>
  <speed>0.03605551275463989</speed>
  <fix>3d</fix>
</trkpt>
<trkpt lat="33.810313" lon="-118.393867">
  <ele>-0.12</ele>
  <time>2026-09-01T01:17:23Z</time>
  <course>0.0</course>
  <speed>0.0</speed>
  <fix>3d</fix>
</trkpt>
<trkpt lat="33.810313" lon="-118.393867">
  <ele>-0.137</ele>
  <time>2026-09-01T01:17:23Z</time>
  <course>187.39</course>
  <speed>0.03605551275463989</speed>
  <fix>3d</fix>
</trkpt>
<trkpt lat="33.810313" lon="-118.393867">
  <ele>-0.12</ele>
  <time>2026-09-01T01:17:23Z</time>
  <course>0.0</course>
  <speed>0.0</speed>
  <fix>3d</fix>
</trkpt>
<trkpt lat="33.810313" lon="-118.393867">
  <ele>-0.139</ele>
  <time>2026-09-01T01:17:23Z</time>
  <course>187.39</course>
  <speed>0.03605551275463989</speed>
  <fix>3d</fix>
</trkpt>
<trkpt lat="33.810313" lon="-118.393867">
  <ele>-0.12</ele>
  <time>2026-09-01T01:17:23Z</time>
  <course>0.0</course>
  <speed>0.0</speed>
  <fix>3d</fix>
</trkpt>
<trkpt lat="33.810313" lon="-118.393867">
  <ele>-0.141</ele>
  <time>2026-09-01T01:17:23Z</time>
  <course>187.38</course>
  <speed>0.03605551275463989</speed>
  <fix>3d</fix>
</trkpt>
<trkpt lat="33.810313" lon="-118.393867">
  <ele>-0.12</ele>
  <time>2026-09-01T01:17:23Z</time>
  <course>0.0</course>
  <speed>0.0</speed>
  <fix>3d</fix>
</trkpt>
<trkpt lat="33.810313" lon="-118.393867">
  <ele>-0.141</ele>
  <time>2026-09-01T01:17:23Z</time>
  <course>187.38</course>
  <speed>0.03605551275463989</speed>
  <fix>3d</fix>
</trkpt>
<trkpt lat="33.810313" lon="-118.393867">
  <ele>-0.12</ele>
  <time>2026-09-01T01:17:23Z</time>
  <course>0.0</course>
  <speed>0.0</speed>
  <fix>3d</fix>
</trkpt>
<trkpt lat="33.810313" lon="-118.393867">
  <ele>-0.139</ele>
  <time>2026-09-01T01:17:23Z</time>
  <course>187.37</course>
  <speed>0.03605551275463989</speed>
  <fix>3d</fix>
</trkpt>
<trkpt lat="33.810313" lon="-118.393867">
  <ele>-0.12</ele>
  <time>2026-09-01T01:17:23Z</time>
  <course>0.0</course>
  <speed>0.0</speed>
  <fix>3d</fix>
</trkpt>
<trkpt lat="33.810313" lon="-118.393867">
  <ele>-0.136</ele>
  <time>2026-09-01T01:17:23Z</time>
  <course>187.36</course>
  <speed>0.03605551275463989</speed>
  <fix>3d</fix>
</trkpt>
<trkpt lat="33.810313" lon="-118.393867">
  <ele>-0.12</ele>
  <time>2026-09-01T01:17:23Z</time>
  <course>0.0</course>
  <speed>0.0</speed>
  <fix>3d</fix>
</trkpt>
<trkpt lat="33.810313" lon="-118.393867">
  <ele>-0.133</ele>
  <time>2026-09-01T01:17:23Z</time>
  <course>187.36</course>
  <speed>0.03605551275463989</speed>
  <fix>3d</fix>
</trkpt>
<trkpt lat="33.810313" lon="-118.393867">
  <ele>-0.12</ele>
  <time>2026-09-01T01:17:23Z</time>
  <course>0.0</course>
  <speed>0.0</speed>
  <fix>3d</fix>
</trkpt>
<trkpt lat="33.810313" lon="-118.393867">
  <ele>-0.129</ele>
  <time>2026-09-01T01:17:23Z</time>
  <course>187.35</course>
  <speed>0.03605551275463989</speed>
  <fix>3d</fix>
</trkpt>
<trkpt lat="33.810313" lon="-118.393867">
  <ele>-0.12</ele>
  <time>2026-09-01T01:17:23Z</time>
  <course>0.0</course>
  <speed>0.0</speed>
  <fix>3d</fix>
</trkpt>
<trkpt lat="33.810313" lon="-118.393867">
  <ele>-0.127</ele>
  <time>2026-09-01T01:17:23Z</time>
  <course>187.35</course>
  <speed>0.03605551275463989</speed>
  <fix>3d</fix>
</trkpt>
<trkpt lat="33.810313" lon="-118.393867">
  <ele>-0.12</ele>
  <time>2026-09-01T01:17:23Z</time>
  <course>0.0</course>
  <speed>0.0</speed>
  <fix>3d</fix>
</trkpt>
<trkpt lat="33.810313" lon="-118.393867">
  <ele>-0.127</ele>
  <time>2026-09-01T01:17:23Z</time>
  <course>187.34</course>
  <speed>0.03605551275463989</speed>
  <fix>3d</fix>
</trkpt>
<trkpt lat="33.810313" lon="-118.393867">
  <ele>-0.12</ele>
  <time>2026-09-01T01:17:23Z</time>
  <course>0.0</course>
  <speed>0.0</speed>
  <fix>3d</fix>
</trkpt>
<trkpt lat="33.810313" lon="-118.393867">
  <ele>-0.126</ele>
  <time>2026-09-01T01:17:23Z</time>
  <course>187.34</course>
  <speed>0.03605551275463989</speed>
  <fix>3d</fix>
</trkpt>
<trkpt lat="33.810313" lon="-118.393867">
  <ele>-0.12</ele>
  <time>2026-09-01T01:17:23Z</time>
  <course>0.0</course>
  <speed>0.0</speed>
  <fix>3d</fix>
</trkpt>
<trkpt lat="33.810313" lon="-118.393867">
  <ele>-0.126</ele>
  <time>2026-09-01T01:17:23Z</time>
  <course>187.33</course>
  <speed>0.03605551275463989</speed>
  <fix>3d</fix>
</trkpt>
<trkpt lat="33.810313" lon="-118.393867">
  <ele>-0.12</ele>
  <time>2026-09-01T01:17:23Z</time>
  <course>0.0</course>
  <speed>0.0</speed>
  <fix>3d</fix>
</trkpt>
<trkpt lat="33.810313" lon="-118.393867">
  <ele>-0.126</ele>
  <time>2026-09-01T01:17:23Z</time>
  <course>187.32</course>
  <speed>0.03605551275463989</speed>
  <fix>3d</fix>
</trkpt>
<trkpt lat="33.810313" lon="-118.393867">
  <ele>-0.12</ele>
  <time>2026-09-01T01:17:23Z</time>
  <course>0.0</course>
  <speed>0.0</speed>
  <fix>3d</fix>
</trkpt>
<trkpt lat="33.810313" lon="-118.393867">
  <ele>-0.126</ele>
  <time>2026-09-01T01:17:23Z</time>
  <course>187.32</course>
  <speed>0.03605551275463989</speed>
  <fix>3d</fix>
</trkpt>
<trkpt lat="33.810313" lon="-118.393867">
  <ele>-0.12</ele>
  <time>2026-09-01T01:17:23Z</time>
  <course>0.0</course>
  <speed>0.0</speed>
  <fix>3d</fix>
</trkpt>
<trkpt lat="33.810313" lon="-118.393867">
  <ele>-0.125</ele>
  <time>2026-09-01T01:17:23Z</time>
  <course>187.31</course>
  <speed>0.03605551275463989</speed>
  <fix>3d</fix>
</trkpt>
<trkpt lat="33.810313" lon="-118.393867">
  <ele>-0.12</ele>
  <time>2026-09-01T01:17:23Z</time>
  <course>0.0</course>
  <speed>0.0</speed>
  <fix>3d</fix>
</trkpt>
<trkpt lat="33.810313" lon="-118.393867">
  <ele>-0.124</ele>
  <time>2026-09-01T01:17:23Z</time>
  <course>187.31</course>
  <speed>0.03605551275463989</speed>
  <fix>3d</fix>
</trkpt>
<trkpt lat="33.810313" lon="-118.393867">
  <ele>-0.12</ele>
  <time>2026-09-01T01:17:23Z</time>
  <course>0.0</course>
  <speed>0.0</speed>
  <fix>3d</fix>
</trkpt>
<trkpt lat="33.810313" lon="-118.393867">
  <ele>-0.122</ele>
  <time>2026-09-01T01:17:23Z</time>
  <course>187.3</course>
  <speed>0.03605551275463989</speed>
  <fix>3d</fix>
</trkpt>
<trkpt lat="33.810313" lon="-118.393867">
  <ele>-0.12</ele>
  <time>2026-09-01T01:17:23Z</time>
  <course>0.0</course>
  <speed>0.0</speed>
  <fix>3d</fix>
</trkpt>
<trkpt lat="33.810313" lon="-118.393867">
  <ele>-0.121</ele>
  <time>2026-09-01T01:17:23Z</time>
  <course>187.3</course>
  <speed>0.03605551275463989</speed>
  <fix>3d</fix>
</trkpt>
<trkpt lat="33.810313" lon="-118.393867">
  <ele>-0.12</ele>
  <time>2026-09-01T01:17:23Z</time>
  <course>0.0</course>
  <speed>0.0</speed>
  <fix>3d</fix>
</trkpt>
<trkpt lat="33.810313" lon="-118.393867">
  <ele>-0.122</ele>
  <time>2026-09-01T01:17:23Z</time>
  <course>187.29</course>
  <speed>0.03605551275463989</speed>
  <fix>3d</fix>
</trkpt>
<trkpt lat="33.810313" lon="-118.393867">
  <ele>-0.12</ele>
  <time>2026-09-01T01:17:23Z</time>
  <course>0.0</course>
  <speed>0.0</speed>
  <fix>3d</fix>
</trkpt>
<trkpt lat="33.810313" lon="-118.393867">
  <ele>-0.124</ele>
  <time>2026-09-01T01:17:23Z</time>
  <course>187.28</course>
  <speed>0.03605551275463989</speed>
  <fix>3d</fix>
</trkpt>
<trkpt lat="33.810313" lon="-118.393867">
  <ele>-0.12</ele>
  <time>2026-09-01T01:17:23Z</time>
  <course>0.0</course>
  <speed>0.0</speed>
  <fix>3d</fix>
</trkpt>
<trkpt lat="33.810313" lon="-118.393867">
  <ele>-0.127</ele>
  <time>2026-09-01T01:17:23Z</time>
  <course>187.28</course>
  <speed>0.03605551275463989</speed>
  <fix>3d</fix>
</trkpt>
<trkpt lat="33.810313" lon="-118.393867">
  <ele>-0.12</ele>
  <time>2026-09-01T01:17:23Z</time>
  <course>0.0</course>
  <speed>0.0</speed>
  <fix>3d</fix>
</trkpt>
<trkpt lat="33.810313" lon="-118.393867">
  <ele>-0.13</ele>
  <time>2026-09-01T01:17:23Z</time>
  <course>187.27</course>
  <speed>0.03605551275463989</speed>
  <fix>3d</fix>
</trkpt>
<trkpt lat="33.810313" lon="-118.393867">
  <ele>-0.12</ele>
  <time>2026-09-01T01:17:23Z</time>
  <course>0.0</course>
  <speed>0.0</speed>
  <fix>3d</fix>
</trkpt>
<trkpt lat="33.810313" lon="-118.393867">
  <ele>-0.132</ele>
  <time>2026-09-01T01:17:23Z</time>
  <course>187.27</course>
  <speed>0.03605551275463989</speed>
  <fix>3d</fix>
</trkpt>
<trkpt lat="33.810313" lon="-118.393867">
  <ele>-0.12</ele>
  <time>2026-09-01T01:17:23Z</time>
  <course>0.0</course>
  <speed>0.0</speed>
  <fix>3d</fix>
</trkpt>
<trkpt lat="33.810313" lon="-118.393867">
  <ele>-0.134</ele>
  <time>2026-09-01T01:17:23Z</time>
  <course>187.26</course>
  <speed>0.03605551275463989</speed>
  <fix>3d</fix>
</trkpt>
<trkpt lat="33.810313" lon="-118.393867">
  <ele>-0.12</ele>
  <time>2026-09-01T01:17:23Z</time>
  <course>0.0</course>
  <speed>0.0</speed>
  <fix>3d</fix>
</trkpt>
<trkpt lat="33.810313" lon="-118.393867">
  <ele>-0.136</ele>
  <time>2026-09-01T01:17:23Z</time>
  <course>187.26</course>
  <speed>0.03605551275463989</speed>
  <fix>3d</fix>
</trkpt>
<trkpt lat="33.810313" lon="-118.393867">
  <ele>-0.12</ele>
  <time>2026-09-01T01:17:23Z</time>
  <course>0.0</course>
  <speed>0.0</speed>
  <fix>3d</fix>
</trkpt>
<trkpt lat="33.810313" lon="-118.393867">
  <ele>-0.136</ele>
  <time>2026-09-01T01:17:23Z</time>
  <course>187.25</course>
  <speed>0.03605551275463989</speed>
  <fix>3d</fix>
</trkpt>
<trkpt lat="33.810313" lon="-118.393867">
  <ele>-0.12</ele>
  <time>2026-09-01T01:17:23Z</time>
  <course>0.0</course>
  <speed>0.0</speed>
  <fix>3d</fix>
</trkpt>
<trkpt lat="33.810313" lon="-118.393867">
  <ele>-0.135</ele>
  <time>2026-09-01T01:17:23Z</time>
  <course>187.25</course>
  <speed>0.03605551275463989</speed>
  <fix>3d</fix>
</trkpt>
<trkpt lat="33.810313" lon="-118.393867">
  <ele>-0.12</ele>
  <time>2026-09-01T01:17:23Z</time>
  <course>0.0</course>
  <speed>0.0</speed>
  <fix>3d</fix>
</trkpt>
<trkpt lat="33.810313" lon="-118.393867">
  <ele>-0.134</ele>
  <time>2026-09-01T01:17:23Z</time>
  <course>187.24</course>
  <speed>0.03605551275463989</speed>
  <fix>3d</fix>
</trkpt>
<trkpt lat="33.810313" lon="-118.393867">
  <ele>-0.12</ele>
  <time>2026-09-01T01:17:23Z</time>
  <course>0.0</course>
  <speed>0.0</speed>
  <fix>3d</fix>
</trkpt>
<trkpt lat="33.810313" lon="-118.393867">
  <ele>-0.132</ele>
  <time>2026-09-01T01:17:23Z</time>
  <course>187.24</course>
  <speed>0.03605551275463989</speed>
  <fix>3d</fix>
</trkpt>
<trkpt lat="33.810313" lon="-118.393867">
  <ele>-0.12</ele>
  <time>2026-09-01T01:17:23Z</time>
  <course>0.0</course>
  <speed>0.0</speed>
  <fix>3d</fix>
</trkpt>
<trkpt lat="33.810313" lon="-118.393867">
  <ele>-0.131</ele>
  <time>2026-09-01T01:17:23Z</time>
  <course>187.23</course>
  <speed>0.03605551275463989</speed>
  <fix>3d</fix>
</trkpt>
<trkpt lat="33.810313" lon="-118.393867">
  <ele>-0.12</ele>
  <time>2026-09-01T01:17:23Z</time>
  <course>0.0</course>
  <speed>0.0</speed>
  <fix>3d</fix>
</trkpt>
<trkpt lat="33.810313" lon="-118.393867">
  <ele>-0.131</ele>
  <time>2026-09-01T01:17:23Z</time>
  <course>187.23</course>
  <speed>0.03605551275463989</speed>
  <fix>3d</fix>
</trkpt>
<trkpt lat="33.810313" lon="-118.393867">
  <ele>-0.12</ele>
  <time>2026-09-01T01:17:23Z</time>
  <course>0.0</course>
  <speed>0.0</speed>
  <fix>3d</fix>
</trkpt>
<trkpt lat="33.810313" lon="-118.393867">
  <ele>-0.132</ele>
  <time>2026-09-01T01:17:23Z</time>
  <course>187.22</course>
  <speed>0.03605551275463989</speed>
  <fix>3d</fix>
</trkpt>
<trkpt lat="33.810313" lon="-118.393867">
  <ele>-0.12</ele>
  <time>2026-09-01T01:17:23Z</time>
  <course>0.0</course>
  <speed>0.0</speed>
  <fix>3d</fix>
</trkpt>
<trkpt lat="33.810313" lon="-118.393867">
  <ele>-0.132</ele>
  <time>2026-09-01T01:17:23Z</time>
  <course>187.21</course>
  <speed>0.03605551275463989</speed>
  <fix>3d</fix>
</trkpt>
<trkpt lat="33.810313" lon="-118.393867">
  <ele>-0.12</ele>
  <time>2026-09-01T01:17:23Z</time>
  <course>0.0</course>
  <speed>0.0</speed>
  <fix>3d</fix>
</trkpt>
<trkpt lat="33.810313" lon="-118.393867">
  <ele>-0.133</ele>
  <time>2026-09-01T01:17:23Z</time>
  <course>187.21</course>
  <speed>0.03605551275463989</speed>
  <fix>3d</fix>
</trkpt>
<trkpt lat="33.810313" lon="-118.393867">
  <ele>-0.12</ele>
  <time>2026-09-01T01:17:23Z</time>
  <course>0.0</course>
  <speed>0.0</speed>
  <fix>3d</fix>
</trkpt>
<trkpt lat="33.810313" lon="-118.393867">
  <ele>-0.132</ele>
  <time>2026-09-01T01:17:23Z</time>
  <course>187.2</course>
  <speed>0.03605551275463989</speed>
  <fix>3d</fix>
</trkpt>
<trkpt lat="33.810313" lon="-118.393867">
  <ele>-0.12</ele>
  <time>2026-09-01T01:17:23Z</time>
  <course>0.0</course>
  <speed>0.0</speed>
  <fix>3d</fix>
</trkpt>
<trkpt lat="33.810313" lon="-118.393867">
  <ele>-0.131</ele>
  <time>2026-09-01T01:17:23Z</time>
  <course>187.2</course>
  <speed>0.03605551275463989</speed>
  <fix>3d</fix>
</trkpt>
<trkpt lat="33.810313" lon="-118.393867">
  <ele>-0.12</ele>
  <time>2026-09-01T01:17:23Z</time>
  <course>0.0</course>
  <speed>0.0</speed>
  <fix>3d</fix>
</trkpt>
<trkpt lat="33.810313" lon="-118.393867">
  <ele>-0.129</ele>
  <time>2026-09-01T01:17:23Z</time>
  <course>187.19</course>
  <speed>0.03605551275463989</speed>
  <fix>3d</fix>
</trkpt>
<trkpt lat="33.810313" lon="-118.393867">
  <ele>-0.12</ele>
  <time>2026-09-01T01:17:23Z</time>
  <course>0.0</course>
  <speed>0.0</speed>
  <fix>3d</fix>
</trkpt>
<trkpt lat="33.810313" lon="-118.393867">
  <ele>-0.126</ele>
  <time>2026-09-01T01:17:23Z</time>
  <course>187.19</course>
  <speed>0.03605551275463989</speed>
  <fix>3d</fix>
</trkpt>
<trkpt lat="33.810313" lon="-118.393867">
  <ele>-0.12</ele>
  <time>2026-09-01T01:17:23Z</time>
  <course>0.0</course>
  <speed>0.0</speed>
  <fix>3d</fix>
</trkpt>
<trkpt lat="33.810313" lon="-118.393867">
  <ele>-0.124</ele>
  <time>2026-09-01T01:17:23Z</time>
  <course>187.18</course>
  <speed>0.03605551275463989</speed>
  <fix>3d</fix>
</trkpt>
<trkpt lat="33.810313" lon="-118.393867">
  <ele>-0.12</ele>
  <time>2026-09-01T01:17:23Z</time>
  <course>0.0</course>
  <speed>0.0</speed>
  <fix>3d</fix>
</trkpt>
<trkpt lat="33.810313" lon="-118.393867">
  <ele>-0.123</ele>
  <time>2026-09-01T01:17:23Z</time>
  <course>187.18</course>
  <speed>0.03605551275463989</speed>
  <fix>3d</fix>
</trkpt>
<trkpt lat="33.810313" lon="-118.393867">
  <ele>-0.12</ele>
  <time>2026-09-01T01:17:23Z</time>
  <course>0.0</course>
  <speed>0.0</speed>
  <fix>3d</fix>
</trkpt>
<trkpt lat="33.810313" lon="-118.393867">
  <ele>-0.123</ele>
  <time>2026-09-01T01:17:23Z</time>
  <course>187.17</course>
  <speed>0.03605551275463989</speed>
  <fix>3d</fix>
</trkpt>
<trkpt lat="33.810313" lon="-118.393867">
  <ele>-0.12</ele>
  <time>2026-09-01T01:17:23Z</time>
  <course>0.0</course>
  <speed>0.0</speed>
  <fix>3d</fix>
</trkpt>
<trkpt lat="33.810313" lon="-118.393867">
  <ele>-0.122</ele>
  <time>2026-09-01T01:17:23Z</time>
  <course>187.17</course>
  <speed>0.0</speed>
  <fix>3d</fix>
</trkpt>
<trkpt lat="33.810313" lon="-118.393867">
  <ele>-0.12</ele>
  <time>2026-09-01T01:17:23Z</time>
  <course>0.0</course>
  <speed>0.0</speed>
  <fix>3d</fix>
</trkpt>
<trkpt lat="33.810313" lon="-118.393867">
  <ele>-0.121</ele>
  <time>2026-09-01T01:17:23Z</time>
  <course>187.16</course>
  <speed>0.0</speed>
  <fix>3d</fix>
</trkpt>
<trkpt lat="33.810313" lon="-118.393867">
  <ele>-0.12</ele>
  <time>2026-09-01T01:17:23Z</time>
  <course>0.0</course>
  <speed>0.0</speed>
  <fix>3d</fix>
</trkpt>
<trkpt lat="33.810313" lon="-118.393867">
  <ele>-0.121</ele>
  <time>2026-09-01T01:17:23Z</time>
  <course>187.16</course>
  <speed>0.0</speed>
  <fix>3d</fix>
</trkpt>
<trkpt lat="33.810313" lon="-118.393867">
  <ele>-0.12</ele>
  <time>2026-09-01T01:17:23Z</time>
  <course>0.0</course>
  <speed>0.0</speed>
  <fix>3d</fix>
</trkpt>
<trkpt lat="33.810313" lon="-118.393867">
  <ele>-0.119</ele>
  <time>2026-09-01T01:17:23Z</time>
  <course>187.15</course>
  <speed>0.0</speed>
  <fix>3d</fix>
</trkpt>
<trkpt lat="33.810313" lon="-118.393867">
  <ele>-0.12</ele>
  <time>2026-09-01T01:17:23Z</time>
  <course>0.0</course>
  <speed>0.0</speed>
  <fix>3d</fix>
</trkpt>
<trkpt lat="33.810313" lon="-118.393867">
  <ele>-0.116</ele>
  <time>2026-09-01T01:17:23Z</time>
  <course>187.15</course>
  <speed>0.0</speed>
  <fix>3d</fix>
</trkpt>
<trkpt lat="33.810313" lon="-118.393867">
  <ele>-0.12</ele>
  <time>2026-09-01T01:17:23Z</time>
  <course>0.0</course>
  <speed>0.0</speed>
  <fix>3d</fix>
</trkpt>
<trkpt lat="33.810313" lon="-118.393867">
  <ele>-0.114</ele>
  <time>2026-09-01T01:17:23Z</time>
  <course>187.14</course>
  <speed>0.0</speed>
  <fix>3d</fix>
</trkpt>
<trkpt lat="33.810313" lon="-118.393867">
  <ele>-0.12</ele>
  <time>2026-09-01T01:17:23Z</time>
  <course>0.0</course>
  <speed>0.0</speed>
  <fix>3d</fix>
</trkpt>
<trkpt lat="33.810313" lon="-118.393867">
  <ele>-0.113</ele>
  <time>2026-09-01T01:17:23Z</time>
  <course>187.14</course>
  <speed>0.0</speed>
  <fix>3d</fix>
</trkpt>
<trkpt lat="33.810313" lon="-118.393867">
  <ele>-0.12</ele>
  <time>2026-09-01T01:17:23Z</time>
  <course>0.0</course>
  <speed>0.0</speed>
  <fix>3d</fix>
</trkpt>
<trkpt lat="33.810313" lon="-118.393867">
  <ele>-0.112</ele>
  <time>2026-09-01T01:17:23Z</time>
  <course>187.13</course>
  <speed>0.0</speed>
  <fix>3d</fix>
</trkpt>
<trkpt lat="33.810313" lon="-118.393867">
  <ele>-0.12</ele>
  <time>2026-09-01T01:17:23Z</time>
  <course>0.0</course>
  <speed>0.0</speed>
  <fix>3d</fix>
</trkpt>
<trkpt lat="33.810313" lon="-118.393867">
  <ele>-0.113</ele>
  <time>2026-09-01T01:17:23Z</time>
  <course>187.13</course>
  <speed>0.0</speed>
  <fix>3d</fix>
</trkpt>
<trkpt lat="33.810313" lon="-118.393867">
  <ele>-0.12</ele>
  <time>2026-09-01T01:17:23Z</time>
  <course>0.0</course>
  <speed>0.0</speed>
  <fix>3d</fix>
</trkpt>
<trkpt lat="33.810313" lon="-118.393867">
  <ele>-0.114</ele>
  <time>2026-09-01T01:17:23Z</time>
  <course>187.12</course>
  <speed>0.0</speed>
  <fix>3d</fix>
</trkpt>
<trkpt lat="33.810313" lon="-118.393867">
  <ele>-0.12</ele>
  <time>2026-09-01T01:17:23Z</time>
  <course>0.0</course>
  <speed>0.0</speed>
  <fix>3d</fix>
</trkpt>
<trkpt lat="33.810313" lon="-118.393867">
  <ele>-0.116</ele>
  <time>2026-09-01T01:17:23Z</time>
  <course>187.12</course>
  <speed>0.0</speed>
  <fix>3d</fix>
</trkpt>
<trkpt lat="33.810313" lon="-118.393867">
  <ele>-0.12</ele>
  <time>2026-09-01T01:17:23Z</time>
  <course>0.0</course>
  <speed>0.0</speed>
  <fix>3d</fix>
</trkpt>
<trkpt lat="33.810313" lon="-118.393867">
  <ele>-0.119</ele>
  <time>2026-09-01T01:17:23Z</time>
  <course>187.11</course>
  <speed>0.01</speed>
  <fix>3d</fix>
</trkpt>
<trkpt lat="33.810313" lon="-118.393867">
  <ele>-0.12</ele>
  <time>2026-09-01T01:17:23Z</time>
  <course>0.0</course>
  <speed>0.0</speed>
  <fix>3d</fix>
</trkpt>
<trkpt lat="33.810313" lon="-118.393867">
  <ele>-0.12</ele>
  <time>2026-09-01T01:17:23Z</time>
  <course>187.11</course>
  <speed>0.01</speed>
  <fix>3d</fix>
</trkpt>
<trkpt lat="33.810313" lon="-118.393867">
  <ele>-0.12</ele>
  <time>2026-09-01T01:17:23Z</time>
  <course>0.0</course>
  <speed>0.0</speed>
  <fix>3d</fix>
</trkpt>
<trkpt lat="33.810313" lon="-118.393867">
  <ele>-0.121</ele>
  <time>2026-09-01T01:17:23Z</time>
  <course>187.1</course>
  <speed>0.01</speed>
  <fix>3d</fix>
</trkpt>
<trkpt lat="33.810313" lon="-118.393867">
  <ele>-0.12</ele>
  <time>2026-09-01T01:17:23Z</time>
  <course>0.0</course>
  <speed>0.0</speed>
  <fix>3d</fix>
</trkpt>
<trkpt lat="33.810313" lon="-118.393867">
  <ele>-0.122</ele>
  <time>2026-09-01T01:17:23Z</time>
  <course>187.1</course>
  <speed>0.01414213562373095</speed>
  <fix>3d</fix>
</trkpt>
<trkpt lat="33.810313" lon="-118.393867">
  <ele>-0.12</ele>
  <time>2026-09-01T01:17:23Z</time>
  <course>0.0</course>
  <speed>0.0</speed>
  <fix>3d</fix>
</trkpt>
<trkpt lat="33.810313" lon="-118.393867">
  <ele>-0.122</ele>
  <time>2026-09-01T01:17:23Z</time>
  <course>187.1</course>
  <speed>0.01414213562373095</speed>
  <fix>3d</fix>
</trkpt>
<trkpt lat="33.810313" lon="-118.393867">
  <ele>-0.12</ele>
  <time>2026-09-01T01:17:23Z</time>
  <course>0.0</course>
  <speed>0.0</speed>
  <fix>3d</fix>
</trkpt>
<trkpt lat="33.810313" lon="-118.393867">
  <ele>-0.123</ele>
  <time>2026-09-01T01:17:23Z</time>
  <course>187.09</course>
  <speed>0.01414213562373095</speed>
  <fix>3d</fix>
</trkpt>
<trkpt lat="33.810313" lon="-118.393867">
  <ele>-0.12</ele>
  <time>2026-09-01T01:17:23Z</time>
  <course>0.0</course>
  <speed>0.0</speed>
  <fix>3d</fix>
</trkpt>
<trkpt lat="33.810313" lon="-118.393867">
  <ele>-0.124</ele>
  <time>2026-09-01T01:17:23Z</time>
  <course>187.09</course>
  <speed>0.01414213562373095</speed>
  <fix>3d</fix>
</trkpt>
<trkpt lat="33.810313" lon="-118.393867">
  <ele>-0.12</ele>
  <time>2026-09-01T01:17:23Z</time>
  <course>0.0</course>
  <speed>0.0</speed>
  <fix>3d</fix>
</trkpt>
<trkpt lat="33.810313" lon="-118.393867">
  <ele>-0.126</ele>
  <time>2026-09-01T01:17:23Z</time>
  <course>187.08</course>
  <speed>0.01414213562373095</speed>
  <fix>3d</fix>
</trkpt>
<trkpt lat="33.810313" lon="-118.393867">
  <ele>-0.12</ele>
  <time>2026-09-01T01:17:23Z</time>
  <course>0.0</course>
  <speed>0.0</speed>
  <fix>3d</fix>
</trkpt>
<trkpt lat="33.810313" lon="-118.393867">
  <ele>-0.128</ele>
  <time>2026-09-01T01:17:23Z</time>
  <course>187.08</course>
  <speed>0.01414213562373095</speed>
  <fix>3d</fix>
</trkpt>
<trkpt lat="33.810313" lon="-118.393867">
  <ele>-0.12</ele>
  <time>2026-09-01T01:17:23Z</time>
  <course>0.0</course>
  <speed>0.0</speed>
  <fix>3d</fix>
</trkpt>
<trkpt lat="33.810313" lon="-118.393867">
  <ele>-0.13</ele>
  <time>2026-09-01T01:17:23Z</time>
  <course>187.07</course>
  <speed>0.01414213562373095</speed>
  <fix>3d</fix>
</trkpt>
<trkpt lat="33.810313" lon="-118.393867">
  <ele>-0.12</ele>
  <time>2026-09-01T01:17:23Z</time>
  <course>0.0</course>
  <speed>0.0</speed>
  <fix>3d</fix>
</trkpt>
<trkpt lat="33.810313" lon="-118.393867">
  <ele>-0.134</ele>
  <time>2026-09-01T01:17:23Z</time>
  <course>187.07</course>
  <speed>0.01414213562373095</speed>
  <fix>3d</fix>
</trkpt>
<trkpt lat="33.810313" lon="-118.393867">
  <ele>-0.12</ele>
  <time>2026-09-01T01:17:23Z</time>
  <course>0.0</course>
  <speed>0.0</speed>
  <fix>3d</fix>
</trkpt>
<trkpt lat="33.810313" lon="-118.393867">
  <ele>-0.136</ele>
  <time>2026-09-01T01:17:23Z</time>
  <course>187.06</course>
  <speed>0.01414213562373095</speed>
  <fix>3d</fix>
</trkpt>
<trkpt lat="33.810313" lon="-118.393867">
  <ele>-0.12</ele>
  <time>2026-09-01T01:17:23Z</time>
  <course>0.0</course>
  <speed>0.0</speed>
  <fix>3d</fix>
</trkpt>
<trkpt lat="33.810313" lon="-118.393867">
  <ele>-0.137</ele>
  <time>2026-09-01T01:17:23Z</time>
  <course>187.06</course>
  <speed>0.01414213562373095</speed>
  <fix>3d</fix>
</trkpt>
<trkpt lat="33.810313" lon="-118.393867">
  <ele>-0.12</ele>
  <time>2026-09-01T01:17:23Z</time>
  <course>0.0</course>
  <speed>0.0</speed>
  <fix>3d</fix>
</trkpt>
<trkpt lat="33.810313" lon="-118.393867">
  <ele>-0.137</ele>
  <time>2026-09-01T01:17:23Z</time>
  <course>187.05</course>
  <speed>0.01414213562373095</speed>
  <fix>3d</fix>
</trkpt>
<trkpt lat="33.810313" lon="-118.393867">
  <ele>-0.12</ele>
  <time>2026-09-01T01:17:23Z</time>
  <course>0.0</course>
  <speed>0.0</speed>
  <fix>3d</fix>
</trkpt>
<trkpt lat="33.810313" lon="-118.393867">
  <ele>-0.136</ele>
  <time>2026-09-01T01:17:23Z</time>
  <course>187.05</course>
  <speed>0.01414213562373095</speed>
  <fix>3d</fix>
</trkpt>
<trkpt lat="33.810313" lon="-118.393867">
  <ele>-0.12</ele>
  <time>2026-09-01T01:17:23Z</time>
  <course>0.0</course>
  <speed>0.0</speed>
  <fix>3d</fix>
</trkpt>
<trkpt lat="33.810313" lon="-118.393867">
  <ele>-0.133</ele>
  <time>2026-09-01T01:17:23Z</time>
  <course>187.04</course>
  <speed>0.01414213562373095</speed>
  <fix>3d</fix>
</trkpt>
<trkpt lat="33.810313" lon="-118.393867">
  <ele>-0.12</ele>
  <time>2026-09-01T01:17:23Z</time>
  <course>0.0</course>
  <speed>0.0</speed>
  <fix>3d</fix>
</trkpt>
<trkpt lat="33.810313" lon="-118.393867">
  <ele>-0.131</ele>
  <time>2026-09-01T01:17:23Z</time>
  <course>187.04</course>
  <speed>0.01414213562373095</speed>
  <fix>3d</fix>
</trkpt>
<trkpt lat="33.810313" lon="-118.393867">
  <ele>-0.12</ele>
  <time>2026-09-01T01:17:23Z</time>
  <course>0.0</course>
  <speed>0.0</speed>
  <fix>3d</fix>
</trkpt>
<trkpt lat="33.810313" lon="-118.393867">
  <ele>-0.129</ele>
  <time>2026-09-01T01:17:23Z</time>
  <course>187.03</course>
  <speed>0.01414213562373095</speed>
  <fix>3d</fix>
</trkpt>
<trkpt lat="33.810313" lon="-118.393867">
  <ele>-0.12</ele>
  <time>2026-09-01T01:17:23Z</time>
  <course>0.0</course>
  <speed>0.0</speed>
  <fix>3d</fix>
</trkpt>
<trkpt lat="33.810313" lon="-118.393867">
  <ele>-0.129</ele>
  <time>2026-09-01T01:17:23Z</time>
  <course>187.03</course>
  <speed>0.01414213562373095</speed>
  <fix>3d</fix>
</trkpt>
<trkpt lat="33.810313" lon="-118.393867">
  <ele>-0.12</ele>
  <time>2026-09-01T01:17:23Z</time>
  <course>0.0</course>
  <speed>0.0</speed>
  <fix>3d</fix>
</trkpt>
<trkpt lat="33.810313" lon="-118.393867">
  <ele>-0.128</ele>
  <time>2026-09-01T01:17:23Z</time>
  <course>187.02</course>
  <speed>0.01414213562373095</speed>
  <fix>3d</fix>
</trkpt>
<trkpt lat="33.810313" lon="-118.393867">
  <ele>-0.12</ele>
  <time>2026-09-01T01:17:23Z</time>
  <course>0.0</course>
  <speed>0.0</speed>
  <fix>3d</fix>
</trkpt>
<trkpt lat="33.810313" lon="-118.393867">
  <ele>-0.129</ele>
  <time>2026-09-01T01:17:23Z</time>
  <course>187.02</course>
  <speed>0.01</speed>
  <fix>3d</fix>
</trkpt>
<trkpt lat="33.810313" lon="-118.393867">
  <ele>-0.12</ele>
  <time>2026-09-01T01:17:23Z</time>
  <course>0.0</course>
  <speed>0.0</speed>
  <fix>3d</fix>
</trkpt>
<trkpt lat="33.810313" lon="-118.393867">
  <ele>-0.13</ele>
  <time>2026-09-01T01:17:23Z</time>
  <course>187.01</course>
  <speed>0.01</speed>
  <fix>3d</fix>
</trkpt>
<trkpt lat="33.810313" lon="-118.393867">
  <ele>-0.12</ele>
  <time>2026-09-01T01:17:23Z</time>
  <course>0.0</course>
  <speed>0.0</speed>
  <fix>3d</fix>
</trkpt>
<trkpt lat="33.810313" lon="-118.393867">
  <ele>-0.131</ele>
  <time>2026-09-01T01:17:24Z</time>
  <course>187.01</course>
  <speed>0.01</speed>
  <fix>3d</fix>
</trkpt>
<trkpt lat="33.810313" lon="-118.393867">
  <ele>-0.12</ele>
  <time>2026-09-01T01:17:24Z</time>
  <course>0.0</course>
  <speed>0.0</speed>
  <fix>3d</fix>
</trkpt>
<trkpt lat="33.810313" lon="-118.393867">
  <ele>-0.13</ele>
  <time>2026-09-01T01:17:24Z</time>
  <course>187.0</course>
  <speed>0.01</speed>
  <fix>3d</fix>
</trkpt>
<trkpt lat="33.810313" lon="-118.393867">
  <ele>-0.12</ele>
  <time>2026-09-01T01:17:24Z</time>
  <course>0.0</course>
  <speed>0.0</speed>
  <fix>3d</fix>
</trkpt>
<trkpt lat="33.810313" lon="-118.393867">
  <ele>-0.13</ele>
  <time>2026-09-01T01:17:24Z</time>
  <course>187.0</course>
  <speed>0.0</speed>
  <fix>3d</fix>
</trkpt>
<trkpt lat="33.810313" lon="-118.393867">
  <ele>-0.12</ele>
  <time>2026-09-01T01:17:24Z</time>
  <course>0.0</course>
  <speed>0.0</speed>
  <fix>3d</fix>
</trkpt>
<trkpt lat="33.810313" lon="-118.393867">
  <ele>-0.129</ele>
  <time>2026-09-01T01:17:24Z</time>
  <course>186.99</course>
  <speed>0.0</speed>
  <fix>3d</fix>
</trkpt>
<trkpt lat="33.810313" lon="-118.393867">
  <ele>-0.12</ele>
  <time>2026-09-01T01:17:24Z</time>
  <course>0.0</course>
  <speed>0.0</speed>
  <fix>3d</fix>
</trkpt>
<trkpt lat="33.810313" lon="-118.393867">
  <ele>-0.128</ele>
  <time>2026-09-01T01:17:24Z</time>
  <course>186.99</course>
  <speed>0.0</speed>
  <fix>3d</fix>
</trkpt>
<trkpt lat="33.810313" lon="-118.393867">
  <ele>-0.12</ele>
  <time>2026-09-01T01:17:24Z</time>
  <course>0.0</course>
  <speed>0.0</speed>
  <fix>3d</fix>
</trkpt>
<trkpt lat="33.810313" lon="-118.393867">
  <ele>-0.128</ele>
  <time>2026-09-01T01:17:24Z</time>
  <course>186.98</course>
  <speed>0.0</speed>
  <fix>3d</fix>
</trkpt>
<trkpt lat="33.810313" lon="-118.393867">
  <ele>-0.12</ele>
  <time>2026-09-01T01:17:24Z</time>
  <course>0.0</course>
  <speed>0.0</speed>
  <fix>3d</fix>
</trkpt>
<trkpt lat="33.810313" lon="-118.393867">
  <ele>-0.128</ele>
  <time>2026-09-01T01:17:24Z</time>
  <course>186.98</course>
  <speed>0.0</speed>
  <fix>3d</fix>
</trkpt>
<trkpt lat="33.810313" lon="-118.393867">
  <ele>-0.12</ele>
  <time>2026-09-01T01:17:24Z</time>
  <course>0.0</course>
  <speed>0.0</speed>
  <fix>3d</fix>
</trkpt>
<trkpt lat="33.810313" lon="-118.393867">
  <ele>-0.129</ele>
  <time>2026-09-01T01:17:24Z</time>
  <course>186.97</course>
  <speed>0.0</speed>
  <fix>3d</fix>
</trkpt>
<trkpt lat="33.810313" lon="-118.393867">
  <ele>-0.12</ele>
  <time>2026-09-01T01:17:24Z</time>
  <course>0.0</course>
  <speed>0.0</speed>
  <fix>3d</fix>
</trkpt>
<trkpt lat="33.810313" lon="-118.393867">
  <ele>-0.131</ele>
  <time>2026-09-01T01:17:24Z</time>
  <course>186.97</course>
  <speed>0.0</speed>
  <fix>3d</fix>
</trkpt>
<trkpt lat="33.810313" lon="-118.393867">
  <ele>-0.12</ele>
  <time>2026-09-01T01:17:24Z</time>
  <course>0.0</course>
  <speed>0.0</speed>
  <fix>3d</fix>
</trkpt>
<trkpt lat="33.810313" lon="-118.393867">
  <ele>-0.133</ele>
  <time>2026-09-01T01:17:24Z</time>
  <course>186.96</course>
  <speed>0.0</speed>
  <fix>3d</fix>
</trkpt>
<trkpt lat="33.810313" lon="-118.393867">
  <ele>-0.12</ele>
  <time>2026-09-01T01:17:24Z</time>
  <course>0.0</course>
  <speed>0.0</speed>
  <fix>3d</fix>
</trkpt>
<trkpt lat="33.810313" lon="-118.393867">
  <ele>-0.134</ele>
  <time>2026-09-01T01:17:24Z</time>
  <course>186.96</course>
  <speed>0.0</speed>
  <fix>3d</fix>
</trkpt>
<trkpt lat="33.810313" lon="-118.393867">
  <ele>-0.12</ele>
  <time>2026-09-01T01:17:24Z</time>
  <course>0.0</course>
  <speed>0.0</speed>
  <fix>3d</fix>
</trkpt>
<trkpt lat="33.810313" lon="-118.393867">
  <ele>-0.133</ele>
  <time>2026-09-01T01:17:24Z</time>
  <course>186.95</course>
  <speed>0.0</speed>
  <fix>3d</fix>
</trkpt>
<trkpt lat="33.810313" lon="-118.393867">
  <ele>-0.12</ele>
  <time>2026-09-01T01:17:24Z</time>
  <course>0.0</course>
  <speed>0.0</speed>
  <fix>3d</fix>
</trkpt>
<trkpt lat="33.810313" lon="-118.393867">
  <ele>-0.131</ele>
  <time>2026-09-01T01:17:24Z</time>
  <course>186.95</course>
  <speed>0.0</speed>
  <fix>3d</fix>
</trkpt>
<trkpt lat="33.810313" lon="-118.393867">
  <ele>-0.12</ele>
  <time>2026-09-01T01:17:24Z</time>
  <course>0.0</course>
  <speed>0.0</speed>
  <fix>3d</fix>
</trkpt>
<trkpt lat="33.810313" lon="-118.393867">
  <ele>-0.13</ele>
  <time>2026-09-01T01:17:24Z</time>
  <course>186.94</course>
  <speed>0.0</speed>
  <fix>3d</fix>
</trkpt>
<trkpt lat="33.810313" lon="-118.393867">
  <ele>-0.12</ele>
  <time>2026-09-01T01:17:24Z</time>
  <course>0.0</course>
  <speed>0.0</speed>
  <fix>3d</fix>
</trkpt>
<trkpt lat="33.810313" lon="-118.393867">
  <ele>-0.129</ele>
  <time>2026-09-01T01:17:24Z</time>
  <course>186.94</course>
  <speed>0.0</speed>
  <fix>3d</fix>
</trkpt>
<trkpt lat="33.810313" lon="-118.393867">
  <ele>-0.12</ele>
  <time>2026-09-01T01:17:24Z</time>
  <course>0.0</course>
  <speed>0.0</speed>
  <fix>3d</fix>
</trkpt>
<trkpt lat="33.810313" lon="-118.393867">
  <ele>-0.128</ele>
  <time>2026-09-01T01:17:24Z</time>
  <course>186.93</course>
  <speed>0.0</speed>
  <fix>3d</fix>
</trkpt>
<trkpt lat="33.810313" lon="-118.393867">
  <ele>-0.12</ele>
  <time>2026-09-01T01:17:24Z</time>
  <course>0.0</course>
  <speed>0.0</speed>
  <fix>3d</fix>
</trkpt>
<trkpt lat="33.810313" lon="-118.393867">
  <ele>-0.128</ele>
  <time>2026-09-01T01:17:24Z</time>
  <course>186.93</course>
  <speed>0.0</speed>
  <fix>3d</fix>
</trkpt>
<trkpt lat="33.810313" lon="-118.393867">
  <ele>-0.12</ele>
  <time>2026-09-01T01:17:24Z</time>
  <course>0.0</course>
  <speed>0.0</speed>
  <fix>3d</fix>
</trkpt>
<trkpt lat="33.810313" lon="-118.393867">
  <ele>-0.127</ele>
  <time>2026-09-01T01:17:24Z</time>
  <course>186.93</course>
  <speed>0.0</speed>
  <fix>3d</fix>
</trkpt>
<trkpt lat="33.810313" lon="-118.393867">
  <ele>-0.12</ele>
  <time>2026-09-01T01:17:24Z</time>
  <course>0.0</course>
  <speed>0.0</speed>
  <fix>3d</fix>
</trkpt>
<trkpt lat="33.810313" lon="-118.393867">
  <ele>-0.128</ele>
  <time>2026-09-01T01:17:24Z</time>
  <course>186.92</course>
  <speed>0.0</speed>
  <fix>3d</fix>
</trkpt>
<trkpt lat="33.810313" lon="-118.393867">
  <ele>-0.12</ele>
  <time>2026-09-01T01:17:24Z</time>
  <course>0.0</course>
  <speed>0.0</speed>
  <fix>3d</fix>
</trkpt>
<trkpt lat="33.810313" lon="-118.393867">
  <ele>-0.128</ele>
  <time>2026-09-01T01:17:24Z</time>
  <course>186.92</course>
  <speed>0.0</speed>
  <fix>3d</fix>
</trkpt>
<trkpt lat="33.810313" lon="-118.393867">
  <ele>-0.12</ele>
  <time>2026-09-01T01:17:24Z</time>
  <course>0.0</course>
  <speed>0.0</speed>
  <fix>3d</fix>
</trkpt>
<trkpt lat="33.810313" lon="-118.393867">
  <ele>-0.127</ele>
  <time>2026-09-01T01:17:24Z</time>
  <course>186.91</course>
  <speed>0.0</speed>
  <fix>3d</fix>
</trkpt>
<trkpt lat="33.810313" lon="-118.393867">
  <ele>-0.12</ele>
  <time>2026-09-01T01:17:24Z</time>
  <course>0.0</course>
  <speed>0.0</speed>
  <fix>3d</fix>
</trkpt>
<trkpt lat="33.810313" lon="-118.393867">
  <ele>-0.127</ele>
  <time>2026-09-01T01:17:24Z</time>
  <course>186.91</course>
  <speed>0.0</speed>
  <fix>3d</fix>
</trkpt>
<trkpt lat="33.810313" lon="-118.393867">
  <ele>-0.12</ele>
  <time>2026-09-01T01:17:24Z</time>
  <course>0.0</course>
  <speed>0.0</speed>
  <fix>3d</fix>
</trkpt>
<trkpt lat="33.810313" lon="-118.393867">
  <ele>-0.125</ele>
  <time>2026-09-01T01:17:24Z</time>
  <course>186.9</course>
  <speed>0.0</speed>
  <fix>3d</fix>
</trkpt>
<trkpt lat="33.810313" lon="-118.393867">
  <ele>-0.12</ele>
  <time>2026-09-01T01:17:24Z</time>
  <course>0.0</course>
  <speed>0.0</speed>
  <fix>3d</fix>
</trkpt>
<trkpt lat="33.810313" lon="-118.393867">
  <ele>-0.124</ele>
  <time>2026-09-01T01:17:24Z</time>
  <course>186.9</course>
  <speed>0.0</speed>
  <fix>3d</fix>
</trkpt>
<trkpt lat="33.810313" lon="-118.393867">
  <ele>-0.12</ele>
  <time>2026-09-01T01:17:24Z</time>
  <course>0.0</course>
  <speed>0.0</speed>
  <fix>3d</fix>
</trkpt>
<trkpt lat="33.810313" lon="-118.393867">
  <ele>-0.123</ele>
  <time>2026-09-01T01:17:24Z</time>
  <course>186.89</course>
  <speed>0.0</speed>
  <fix>3d</fix>
</trkpt>
<trkpt lat="33.810313" lon="-118.393867">
  <ele>-0.12</ele>
  <time>2026-09-01T01:17:24Z</time>
  <course>0.0</course>
  <speed>0.0</speed>
  <fix>3d</fix>
</trkpt>
<trkpt lat="33.810313" lon="-118.393867">
  <ele>-0.121</ele>
  <time>2026-09-01T01:17:24Z</time>
  <course>186.89</course>
  <speed>0.0</speed>
  <fix>3d</fix>
</trkpt>
<trkpt lat="33.810313" lon="-118.393867">
  <ele>-0.12</ele>
  <time>2026-09-01T01:17:24Z</time>
  <course>0.0</course>
  <speed>0.0</speed>
  <fix>3d</fix>
</trkpt>
<trkpt lat="33.810313" lon="-118.393867">
  <ele>-0.12</ele>
  <time>2026-09-01T01:17:24Z</time>
  <course>186.88</course>
  <speed>0.0</speed>
  <fix>3d</fix>
</trkpt>
<trkpt lat="33.810313" lon="-118.393867">
  <ele>-0.12</ele>
  <time>2026-09-01T01:17:24Z</time>
  <course>0.0</course>
  <speed>0.0</speed>
  <fix>3d</fix>
</trkpt>
<trkpt lat="33.810313" lon="-118.393867">
  <ele>-0.119</ele>
  <time>2026-09-01T01:17:24Z</time>
  <course>186.88</course>
  <speed>0.0</speed>
  <fix>3d</fix>
</trkpt>
<trkpt lat="33.810313" lon="-118.393867">
  <ele>-0.12</ele>
  <time>2026-09-01T01:17:24Z</time>
  <course>0.0</course>
  <speed>0.0</speed>
  <fix>3d</fix>
</trkpt>
<trkpt lat="33.810313" lon="-118.393867">
  <ele>-0.119</ele>
  <time>2026-09-01T01:17:24Z</time>
  <course>186.87</course>
  <speed>0.0</speed>
  <fix>3d</fix>
</trkpt>
<trkpt lat="33.810313" lon="-118.393867">
  <ele>-0.12</ele>
  <time>2026-09-01T01:17:24Z</time>
  <course>0.0</course>
  <speed>0.0</speed>
  <fix>3d</fix>
</trkpt>
<trkpt lat="33.810313" lon="-118.393867">
  <ele>-0.119</ele>
  <time>2026-09-01T01:17:24Z</time>
  <course>186.87</course>
  <speed>0.01</speed>
  <fix>3d</fix>
</trkpt>
<trkpt lat="33.810313" lon="-118.393867">
  <ele>-0.12</ele>
  <time>2026-09-01T01:17:24Z</time>
  <course>0.0</course>
  <speed>0.0</speed>
  <fix>3d</fix>
</trkpt>
<trkpt lat="33.810313" lon="-118.393867">
  <ele>-0.119</ele>
  <time>2026-09-01T01:17:24Z</time>
  <course>186.86</course>
  <speed>0.01</speed>
  <fix>3d</fix>
</trkpt>
<trkpt lat="33.810313" lon="-118.393867">
  <ele>-0.12</ele>
  <time>2026-09-01T01:17:24Z</time>
  <course>0.0</course>
  <speed>0.0</speed>
  <fix>3d</fix>
</trkpt>
<trkpt lat="33.810313" lon="-118.393867">
  <ele>-0.119</ele>
  <time>2026-09-01T01:17:24Z</time>
  <course>186.86</course>
  <speed>0.01</speed>
  <fix>3d</fix>
</trkpt>
<trkpt lat="33.810313" lon="-118.393867">
  <ele>-0.12</ele>
  <time>2026-09-01T01:17:24Z</time>
  <course>0.0</course>
  <speed>0.0</speed>
  <fix>3d</fix>
</trkpt>
<trkpt lat="33.810313" lon="-118.393867">
  <ele>-0.119</ele>
  <time>2026-09-01T01:17:24Z</time>
  <course>186.85</course>
  <speed>0.01</speed>
  <fix>3d</fix>
</trkpt>
<trkpt lat="33.810313" lon="-118.393867">
  <ele>-0.12</ele>
  <time>2026-09-01T01:17:24Z</time>
  <course>0.0</course>
  <speed>0.0</speed>
  <fix>3d</fix>
</trkpt>
<trkpt lat="33.810313" lon="-118.393867">
  <ele>-0.119</ele>
  <time>2026-09-01T01:17:24Z</time>
  <course>186.85</course>
  <speed>0.01</speed>
  <fix>3d</fix>
</trkpt>
<trkpt lat="33.810313" lon="-118.393867">
  <ele>-0.12</ele>
  <time>2026-09-01T01:17:24Z</time>
  <course>0.0</course>
  <speed>0.0</speed>
  <fix>3d</fix>
</trkpt>
<trkpt lat="33.810313" lon="-118.393867">
  <ele>-0.12</ele>
  <time>2026-09-01T01:17:24Z</time>
  <course>186.84</course>
  <speed>0.01</speed>
  <fix>3d</fix>
</trkpt>
<trkpt lat="33.810313" lon="-118.393867">
  <ele>-0.12</ele>
  <time>2026-09-01T01:17:24Z</time>
  <course>0.0</course>
  <speed>0.0</speed>
  <fix>3d</fix>
</trkpt>
<trkpt lat="33.810313" lon="-118.393867">
  <ele>-0.121</ele>
  <time>2026-09-01T01:17:24Z</time>
  <course>186.84</course>
  <speed>0.01</speed>
  <fix>3d</fix>
</trkpt>
<trkpt lat="33.810313" lon="-118.393867">
  <ele>-0.12</ele>
  <time>2026-09-01T01:17:24Z</time>
  <course>0.0</course>
  <speed>0.0</speed>
  <fix>3d</fix>
</trkpt>
<trkpt lat="33.810313" lon="-118.393867">
  <ele>-0.124</ele>
  <time>2026-09-01T01:17:24Z</time>
  <course>184.72</course>
  <speed>0.01414213562373095</speed>
  <fix>3d</fix>
</trkpt>
<trkpt lat="33.810313" lon="-118.393867">
  <ele>-0.12</ele>
  <time>2026-09-01T01:17:24Z</time>
  <course>0.0</course>
  <speed>0.0</speed>
  <fix>3d</fix>
</trkpt>
<trkpt lat="33.810313" lon="-118.393867">
  <ele>-0.125</ele>
  <time>2026-09-01T01:17:24Z</time>
  <course>184.72</course>
  <speed>0.01414213562373095</speed>
  <fix>3d</fix>
</trkpt>
<trkpt lat="33.810313" lon="-118.393867">
  <ele>-0.12</ele>
  <time>2026-09-01T01:17:24Z</time>
  <course>0.0</course>
  <speed>0.0</speed>
  <fix>3d</fix>
</trkpt>
<trkpt lat="33.810313" lon="-118.393867">
  <ele>-0.128</ele>
  <time>2026-09-01T01:17:24Z</time>
  <course>184.73</course>
  <speed>0.01414213562373095</speed>
  <fix>3d</fix>
</trkpt>
<trkpt lat="33.810313" lon="-118.393867">
  <ele>-0.12</ele>
  <time>2026-09-01T01:17:24Z</time>
  <course>0.0</course>
  <speed>0.0</speed>
  <fix>3d</fix>
</trkpt>
<trkpt lat="33.810313" lon="-118.393867">
  <ele>-0.13</ele>
  <time>2026-09-01T01:17:24Z</time>
  <course>184.74</course>
  <speed>0.01414213562373095</speed>
  <fix>3d</fix>
</trkpt>
<trkpt lat="33.810313" lon="-118.393867">
  <ele>-0.12</ele>
  <time>2026-09-01T01:17:24Z</time>
  <course>0.0</course>
  <speed>0.0</speed>
  <fix>3d</fix>
</trkpt>
<trkpt lat="33.810313" lon="-118.393867">
  <ele>-0.132</ele>
  <time>2026-09-01T01:17:24Z</time>
  <course>184.75</course>
  <speed>0.01414213562373095</speed>
  <fix>3d</fix>
</trkpt>
<trkpt lat="33.810313" lon="-118.393867">
  <ele>-0.12</ele>
  <time>2026-09-01T01:17:24Z</time>
  <course>0.0</course>
  <speed>0.0</speed>
  <fix>3d</fix>
</trkpt>
<trkpt lat="33.810313" lon="-118.393867">
  <ele>-0.133</ele>
  <time>2026-09-01T01:17:24Z</time>
  <course>184.76</course>
  <speed>0.01414213562373095</speed>
  <fix>3d</fix>
</trkpt>
<trkpt lat="33.810313" lon="-118.393867">
  <ele>-0.12</ele>
  <time>2026-09-01T01:17:24Z</time>
  <course>0.0</course>
  <speed>0.0</speed>
  <fix>3d</fix>
</trkpt>
<trkpt lat="33.810313" lon="-118.393867">
  <ele>-0.132</ele>
  <time>2026-09-01T01:17:24Z</time>
  <course>184.77</course>
  <speed>0.01414213562373095</speed>
  <fix>3d</fix>
</trkpt>
<trkpt lat="33.810313" lon="-118.393867">
  <ele>-0.12</ele>
  <time>2026-09-01T01:17:24Z</time>
  <course>0.0</course>
  <speed>0.0</speed>
  <fix>3d</fix>
</trkpt>
<trkpt lat="33.810313" lon="-118.393867">
  <ele>-0.13</ele>
  <time>2026-09-01T01:17:24Z</time>
  <course>184.78</course>
  <speed>0.01414213562373095</speed>
  <fix>3d</fix>
</trkpt>
<trkpt lat="33.810313" lon="-118.393867">
  <ele>-0.12</ele>
  <time>2026-09-01T01:17:24Z</time>
  <course>0.0</course>
  <speed>0.0</speed>
  <fix>3d</fix>
</trkpt>
<trkpt lat="33.810313" lon="-118.393867">
  <ele>-0.129</ele>
  <time>2026-09-01T01:17:24Z</time>
  <course>184.79</course>
  <speed>0.01414213562373095</speed>
  <fix>3d</fix>
</trkpt>
<trkpt lat="33.810313" lon="-118.393867">
  <ele>-0.12</ele>
  <time>2026-09-01T01:17:24Z</time>
  <course>0.0</course>
  <speed>0.0</speed>
  <fix>3d</fix>
</trkpt>
<trkpt lat="33.810313" lon="-118.393867">
  <ele>-0.128</ele>
  <time>2026-09-01T01:17:24Z</time>
  <course>184.8</course>
  <speed>0.01414213562373095</speed>
  <fix>3d</fix>
</trkpt>
<trkpt lat="33.810313" lon="-118.393867">
  <ele>-0.12</ele>
  <time>2026-09-01T01:17:24Z</time>
  <course>0.0</course>
  <speed>0.0</speed>
  <fix>3d</fix>
</trkpt>
<trkpt lat="33.810313" lon="-118.393867">
  <ele>-0.128</ele>
  <time>2026-09-01T01:17:24Z</time>
  <course>184.81</course>
  <speed>0.01414213562373095</speed>
  <fix>3d</fix>
</trkpt>
<trkpt lat="33.810313" lon="-118.393867">
  <ele>-0.12</ele>
  <time>2026-09-01T01:17:24Z</time>
  <course>0.0</course>
  <speed>0.0</speed>
  <fix>3d</fix>
</trkpt>
<trkpt lat="33.8103131" lon="-118.393867">
  <ele>-0.128</ele>
  <time>2026-09-01T01:17:24Z</time>
  <course>184.82</course>
  <speed>0.01414213562373095</speed>
  <fix>3d</fix>
</trkpt>
<trkpt lat="33.810313" lon="-118.393867">
  <ele>-0.12</ele>
  <time>2026-09-01T01:17:24Z</time>
  <course>0.0</course>
  <speed>0.0</speed>
  <fix>3d</fix>
</trkpt>
<trkpt lat="33.8103131" lon="-118.393867">
  <ele>-0.128</ele>
  <time>2026-09-01T01:17:24Z</time>
  <course>184.83</course>
  <speed>0.01414213562373095</speed>
  <fix>3d</fix>
</trkpt>
<trkpt lat="33.810313" lon="-118.393867">
  <ele>-0.12</ele>
  <time>2026-09-01T01:17:24Z</time>
  <course>0.0</course>
  <speed>0.0</speed>
  <fix>3d</fix>
</trkpt>
<trkpt lat="33.8103131" lon="-118.3938671">
  <ele>-0.127</ele>
  <time>2026-09-01T01:17:24Z</time>
  <course>184.84</course>
  <speed>0.01414213562373095</speed>
  <fix>3d</fix>
</trkpt>
<trkpt lat="33.810313" lon="-118.393867">
  <ele>-0.12</ele>
  <time>2026-09-01T01:17:24Z</time>
  <course>0.0</course>
  <speed>0.0</speed>
  <fix>3d</fix>
</trkpt>
<trkpt lat="33.8103131" lon="-118.3938671">
  <ele>-0.126</ele>
  <time>2026-09-01T01:17:24Z</time>
  <course>184.85</course>
  <speed>0.01414213562373095</speed>
  <fix>3d</fix>
</trkpt>
<trkpt lat="33.810313" lon="-118.393867">
  <ele>-0.12</ele>
  <time>2026-09-01T01:17:24Z</time>
  <course>0.0</course>
  <speed>0.0</speed>
  <fix>3d</fix>
</trkpt>
<trkpt lat="33.8103131" lon="-118.3938671">
  <ele>-0.125</ele>
  <time>2026-09-01T01:17:24Z</time>
  <course>184.86</course>
  <speed>0.01414213562373095</speed>
  <fix>3d</fix>
</trkpt>
<trkpt lat="33.810313" lon="-118.393867">
  <ele>-0.12</ele>
  <time>2026-09-01T01:17:24Z</time>
  <course>0.0</course>
  <speed>0.0</speed>
  <fix>3d</fix>
</trkpt>
<trkpt lat="33.8103131" lon="-118.3938671">
  <ele>-0.124</ele>
  <time>2026-09-01T01:17:24Z</time>
  <course>184.87</course>
  <speed>0.01414213562373095</speed>
  <fix>3d</fix>
</trkpt>
<trkpt lat="33.810313" lon="-118.393867">
  <ele>-0.12</ele>
  <time>2026-09-01T01:17:24Z</time>
  <course>0.0</course>
  <speed>0.0</speed>
  <fix>3d</fix>
</trkpt>
<trkpt lat="33.8103131" lon="-118.3938671">
  <ele>-0.123</ele>
  <time>2026-09-01T01:17:24Z</time>
  <course>184.88</course>
  <speed>0.01414213562373095</speed>
  <fix>3d</fix>
</trkpt>
<trkpt lat="33.810313" lon="-118.393867">
  <ele>-0.12</ele>
  <time>2026-09-01T01:17:24Z</time>
  <course>0.0</course>
  <speed>0.0</speed>
  <fix>3d</fix>
</trkpt>
<trkpt lat="33.8103131" lon="-118.3938671">
  <ele>-0.122</ele>
  <time>2026-09-01T01:17:24Z</time>
  <course>184.89</course>
  <speed>0.01414213562373095</speed>
  <fix>3d</fix>
</trkpt>
<trkpt lat="33.810313" lon="-118.393867">
  <ele>-0.12</ele>
  <time>2026-09-01T01:17:24Z</time>
  <course>0.0</course>
  <speed>0.0</speed>
  <fix>3d</fix>
</trkpt>
<trkpt lat="33.8103131" lon="-118.3938671">
  <ele>-0.122</ele>
  <time>2026-09-01T01:17:24Z</time>
  <course>184.9</course>
  <speed>0.01414213562373095</speed>
  <fix>3d</fix>
</trkpt>
<trkpt lat="33.810313" lon="-118.393867">
  <ele>-0.12</ele>
  <time>2026-09-01T01:17:24Z</time>
  <course>0.0</course>
  <speed>0.0</speed>
  <fix>3d</fix>
</trkpt>
<trkpt lat="33.8103131" lon="-118.3938671">
  <ele>-0.122</ele>
  <time>2026-09-01T01:17:24Z</time>
  <course>184.91</course>
  <speed>0.01414213562373095</speed>
  <fix>3d</fix>
</trkpt>
<trkpt lat="33.810313" lon="-118.393867">
  <ele>-0.12</ele>
  <time>2026-09-01T01:17:24Z</time>
  <course>0.0</course>
  <speed>0.0</speed>
  <fix>3d</fix>
</trkpt>
<trkpt lat="33.8103131" lon="-118.3938671">
  <ele>-0.121</ele>
  <time>2026-09-01T01:17:24Z</time>
  <course>184.92</course>
  <speed>0.01414213562373095</speed>
  <fix>3d</fix>
</trkpt>
<trkpt lat="33.810313" lon="-118.393867">
  <ele>-0.12</ele>
  <time>2026-09-01T01:17:24Z</time>
  <course>0.0</course>
  <speed>0.0</speed>
  <fix>3d</fix>
</trkpt>
<trkpt lat="33.8103131" lon="-118.3938671">
  <ele>-0.122</ele>
  <time>2026-09-01T01:17:24Z</time>
  <course>184.93</course>
  <speed>0.01414213562373095</speed>
  <fix>3d</fix>
</trkpt>
<trkpt lat="33.810313" lon="-118.393867">
  <ele>-0.12</ele>
  <time>2026-09-01T01:17:24Z</time>
  <course>0.0</course>
  <speed>0.0</speed>
  <fix>3d</fix>
</trkpt>
<trkpt lat="33.8103131" lon="-118.3938671">
  <ele>-0.122</ele>
  <time>2026-09-01T01:17:24Z</time>
  <course>184.94</course>
  <speed>0.01414213562373095</speed>
  <fix>3d</fix>
</trkpt>
<trkpt lat="33.810313" lon="-118.393867">
  <ele>-0.12</ele>
  <time>2026-09-01T01:17:24Z</time>
  <course>0.0</course>
  <speed>0.0</speed>
  <fix>3d</fix>
</trkpt>
<trkpt lat="33.8103131" lon="-118.3938671">
  <ele>-0.123</ele>
  <time>2026-09-01T01:17:24Z</time>
  <course>184.95</course>
  <speed>0.01414213562373095</speed>
  <fix>3d</fix>
</trkpt>
<trkpt lat="33.810313" lon="-118.393867">
  <ele>-0.12</ele>
  <time>2026-09-01T01:17:24Z</time>
  <course>0.0</course>
  <speed>0.0</speed>
  <fix>3d</fix>
</trkpt>
<trkpt lat="33.8103131" lon="-118.3938671">
  <ele>-0.122</ele>
  <time>2026-09-01T01:17:24Z</time>
  <course>184.96</course>
  <speed>0.01414213562373095</speed>
  <fix>3d</fix>
</trkpt>
<trkpt lat="33.810313" lon="-118.393867">
  <ele>-0.12</ele>
  <time>2026-09-01T01:17:24Z</time>
  <course>0.0</course>
  <speed>0.0</speed>
  <fix>3d</fix>
</trkpt>
<trkpt lat="33.8103131" lon="-118.3938671">
  <ele>-0.122</ele>
  <time>2026-09-01T01:17:24Z</time>
  <course>184.97</course>
  <speed>0.01414213562373095</speed>
  <fix>3d</fix>
</trkpt>
<trkpt lat="33.810313" lon="-118.393867">
  <ele>-0.12</ele>
  <time>2026-09-01T01:17:24Z</time>
  <course>0.0</course>
  <speed>0.0</speed>
  <fix>3d</fix>
</trkpt>
<trkpt lat="33.810313" lon="-118.3938671">
  <ele>-0.121</ele>
  <time>2026-09-01T01:17:24Z</time>
  <course>184.98</course>
  <speed>0.01414213562373095</speed>
  <fix>3d</fix>
</trkpt>
<trkpt lat="33.810313" lon="-118.393867">
  <ele>-0.12</ele>
  <time>2026-09-01T01:17:24Z</time>
  <course>0.0</course>
  <speed>0.0</speed>
  <fix>3d</fix>
</trkpt>
<trkpt lat="33.810313" lon="-118.393867">
  <ele>-0.12</ele>
  <time>2026-09-01T01:17:24Z</time>
  <course>184.99</course>
  <speed>0.01414213562373095</speed>
  <fix>3d</fix>
</trkpt>
<trkpt lat="33.810313" lon="-118.393867">
  <ele>-0.12</ele>
  <time>2026-09-01T01:17:24Z</time>
  <course>0.0</course>
  <speed>0.0</speed>
  <fix>3d</fix>
</trkpt>
<trkpt lat="33.810313" lon="-118.393867">
  <ele>-0.12</ele>
  <time>2026-09-01T01:17:24Z</time>
  <course>185.0</course>
  <speed>0.01414213562373095</speed>
  <fix>3d</fix>
</trkpt>
<trkpt lat="33.810313" lon="-118.393867">
  <ele>-0.12</ele>
  <time>2026-09-01T01:17:24Z</time>
  <course>0.0</course>
  <speed>0.0</speed>
  <fix>3d</fix>
</trkpt>
<trkpt lat="33.810313" lon="-118.393867">
  <ele>-0.12</ele>
  <time>2026-09-01T01:17:24Z</time>
  <course>185.01</course>
  <speed>0.01414213562373095</speed>
  <fix>3d</fix>
</trkpt>
<trkpt lat="33.810313" lon="-118.393867">
  <ele>-0.12</ele>
  <time>2026-09-01T01:17:24Z</time>
  <course>0.0</course>
  <speed>0.0</speed>
  <fix>3d</fix>
</trkpt>
<trkpt lat="33.810313" lon="-118.393867">
  <ele>-0.122</ele>
  <time>2026-09-01T01:17:24Z</time>
  <course>185.02</course>
  <speed>0.01414213562373095</speed>
  <fix>3d</fix>
</trkpt>
<trkpt lat="33.810313" lon="-118.393867">
  <ele>-0.12</ele>
  <time>2026-09-01T01:17:24Z</time>
  <course>0.0</course>
  <speed>0.0</speed>
  <fix>3d</fix>
</trkpt>
<trkpt lat="33.810313" lon="-118.393867">
  <ele>-0.124</ele>
  <time>2026-09-01T01:17:24Z</time>
  <course>185.03</course>
  <speed>0.01414213562373095</speed>
  <fix>3d</fix>
</trkpt>
<trkpt lat="33.810313" lon="-118.393867">
  <ele>-0.12</ele>
  <time>2026-09-01T01:17:24Z</time>
  <course>0.0</course>
  <speed>0.0</speed>
  <fix>3d</fix>
</trkpt>
<trkpt lat="33.810313" lon="-118.393867">
  <ele>-0.127</ele>
  <time>2026-09-01T01:17:24Z</time>
  <course>185.04</course>
  <speed>0.01414213562373095</speed>
  <fix>3d</fix>
</trkpt>
<trkpt lat="33.810313" lon="-118.393867">
  <ele>-0.12</ele>
  <time>2026-09-01T01:17:24Z</time>
  <course>0.0</course>
  <speed>0.0</speed>
  <fix>3d</fix>
</trkpt>
<trkpt lat="33.810313" lon="-118.393867">
  <ele>-0.129</ele>
  <time>2026-09-01T01:17:24Z</time>
  <course>185.05</course>
  <speed>0.01414213562373095</speed>
  <fix>3d</fix>
</trkpt>
<trkpt lat="33.810313" lon="-118.393867">
  <ele>-0.12</ele>
  <time>2026-09-01T01:17:24Z</time>
  <course>0.0</course>
  <speed>0.0</speed>
  <fix>3d</fix>
</trkpt>
<trkpt lat="33.810313" lon="-118.393867">
  <ele>-0.13</ele>
  <time>2026-09-01T01:17:24Z</time>
  <course>185.05</course>
  <speed>0.01414213562373095</speed>
  <fix>3d</fix>
</trkpt>
<trkpt lat="33.810313" lon="-118.393867">
  <ele>-0.12</ele>
  <time>2026-09-01T01:17:24Z</time>
  <course>0.0</course>
  <speed>0.0</speed>
  <fix>3d</fix>
</trkpt>
<trkpt lat="33.810313" lon="-118.393867">
  <ele>-0.129</ele>
  <time>2026-09-01T01:17:24Z</time>
  <course>185.06</course>
  <speed>0.01414213562373095</speed>
  <fix>3d</fix>
</trkpt>
<trkpt lat="33.810313" lon="-118.393867">
  <ele>-0.12</ele>
  <time>2026-09-01T01:17:24Z</time>
  <course>0.0</course>
  <speed>0.0</speed>
  <fix>3d</fix>
</trkpt>
<trkpt lat="33.810313" lon="-118.393867">
  <ele>-0.127</ele>
  <time>2026-09-01T01:17:24Z</time>
  <course>185.07</course>
  <speed>0.01414213562373095</speed>
  <fix>3d</fix>
</trkpt>
<trkpt lat="33.810313" lon="-118.393867">
  <ele>-0.12</ele>
  <time>2026-09-01T01:17:24Z</time>
  <course>0.0</course>
  <speed>0.0</speed>
  <fix>3d</fix>
</trkpt>
<trkpt lat="33.810313" lon="-118.393867">
  <ele>-0.125</ele>
  <time>2026-09-01T01:17:24Z</time>
  <course>185.08</course>
  <speed>0.01414213562373095</speed>
  <fix>3d</fix>
</trkpt>
<trkpt lat="33.810313" lon="-118.393867">
  <ele>-0.12</ele>
  <time>2026-09-01T01:17:24Z</time>
  <course>0.0</course>
  <speed>0.0</speed>
  <fix>3d</fix>
</trkpt>
<trkpt lat="33.810313" lon="-118.393867">
  <ele>-0.124</ele>
  <time>2026-09-01T01:17:24Z</time>
  <course>185.09</course>
  <speed>0.01414213562373095</speed>
  <fix>3d</fix>
</trkpt>
<trkpt lat="33.810313" lon="-118.393867">
  <ele>-0.12</ele>
  <time>2026-09-01T01:17:24Z</time>
  <course>0.0</course>
  <speed>0.0</speed>
  <fix>3d</fix>
</trkpt>
<trkpt lat="33.810313" lon="-118.393867">
  <ele>-0.124</ele>
  <time>2026-09-01T01:17:24Z</time>
  <course>185.1</course>
  <speed>0.01414213562373095</speed>
  <fix>3d</fix>
</trkpt>
<trkpt lat="33.810313" lon="-118.393867">
  <ele>-0.12</ele>
  <time>2026-09-01T01:17:24Z</time>
  <course>0.0</course>
  <speed>0.0</speed>
  <fix>3d</fix>
</trkpt>
<trkpt lat="33.810313" lon="-118.393867">
  <ele>-0.123</ele>
  <time>2026-09-01T01:17:24Z</time>
  <course>185.11</course>
  <speed>0.01414213562373095</speed>
  <fix>3d</fix>
</trkpt>
<trkpt lat="33.810313" lon="-118.393867">
  <ele>-0.12</ele>
  <time>2026-09-01T01:17:24Z</time>
  <course>0.0</course>
  <speed>0.0</speed>
  <fix>3d</fix>
</trkpt>
<trkpt lat="33.810313" lon="-118.393867">
  <ele>-0.122</ele>
  <time>2026-09-01T01:17:24Z</time>
  <course>185.12</course>
  <speed>0.01414213562373095</speed>
  <fix>3d</fix>
</trkpt>
<trkpt lat="33.810313" lon="-118.393867">
  <ele>-0.12</ele>
  <time>2026-09-01T01:17:24Z</time>
  <course>0.0</course>
  <speed>0.0</speed>
  <fix>3d</fix>
</trkpt>
<trkpt lat="33.810313" lon="-118.393867">
  <ele>-0.122</ele>
  <time>2026-09-01T01:17:24Z</time>
  <course>185.13</course>
  <speed>0.01414213562373095</speed>
  <fix>3d</fix>
</trkpt>
<trkpt lat="33.810313" lon="-118.393867">
  <ele>-0.12</ele>
  <time>2026-09-01T01:17:24Z</time>
  <course>0.0</course>
  <speed>0.0</speed>
  <fix>3d</fix>
</trkpt>
<trkpt lat="33.810313" lon="-118.393867">
  <ele>-0.122</ele>
  <time>2026-09-01T01:17:24Z</time>
  <course>185.14</course>
  <speed>0.01414213562373095</speed>
  <fix>3d</fix>
</trkpt>
<trkpt lat="33.810313" lon="-118.393867">
  <ele>-0.12</ele>
  <time>2026-09-01T01:17:24Z</time>
  <course>0.0</course>
  <speed>0.0</speed>
  <fix>3d</fix>
</trkpt>
<trkpt lat="33.810313" lon="-118.393867">
  <ele>-0.122</ele>
  <time>2026-09-01T01:17:24Z</time>
  <course>185.15</course>
  <speed>0.01414213562373095</speed>
  <fix>3d</fix>
</trkpt>
<trkpt lat="33.810313" lon="-118.393867">
  <ele>-0.12</ele>
  <time>2026-09-01T01:17:24Z</time>
  <course>0.0</course>
  <speed>0.0</speed>
  <fix>3d</fix>
</trkpt>
<trkpt lat="33.810313" lon="-118.393867">
  <ele>-0.121</ele>
  <time>2026-09-01T01:17:24Z</time>
  <course>185.15</course>
  <speed>0.01414213562373095</speed>
  <fix>3d</fix>
</trkpt>
<trkpt lat="33.810313" lon="-118.393867">
  <ele>-0.12</ele>
  <time>2026-09-01T01:17:24Z</time>
  <course>0.0</course>
  <speed>0.0</speed>
  <fix>3d</fix>
</trkpt>
<trkpt lat="33.810313" lon="-118.393867">
  <ele>-0.12</ele>
  <time>2026-09-01T01:17:24Z</time>
  <course>185.16</course>
  <speed>0.01414213562373095</speed>
  <fix>3d</fix>
</trkpt>
<trkpt lat="33.810313" lon="-118.393867">
  <ele>-0.12</ele>
  <time>2026-09-01T01:17:24Z</time>
  <course>0.0</course>
  <speed>0.0</speed>
  <fix>3d</fix>
</trkpt>
<trkpt lat="33.810313" lon="-118.393867">
  <ele>-0.12</ele>
  <time>2026-09-01T01:17:24Z</time>
  <course>185.16</course>
  <speed>0.01414213562373095</speed>
  <fix>3d</fix>
</trkpt>
<trkpt lat="33.810313" lon="-118.393867">
  <ele>-0.12</ele>
  <time>2026-09-01T01:17:24Z</time>
  <course>0.0</course>
  <speed>0.0</speed>
  <fix>3d</fix>
</trkpt>
<trkpt lat="33.810313" lon="-118.393867">
  <ele>-0.12</ele>
  <time>2026-09-01T01:17:24Z</time>
  <course>185.13</course>
  <speed>0.01414213562373095</speed>
  <fix>3d</fix>
</trkpt>
<trkpt lat="33.810313" lon="-118.393867">
  <ele>-0.12</ele>
  <time>2026-09-01T01:17:24Z</time>
  <course>0.0</course>
  <speed>0.0</speed>
  <fix>3d</fix>
</trkpt>
<trkpt lat="33.810313" lon="-118.393867">
  <ele>-0.121</ele>
  <time>2026-09-01T01:17:24Z</time>
  <course>185.09</course>
  <speed>0.01414213562373095</speed>
  <fix>3d</fix>
</trkpt>
<trkpt lat="33.810313" lon="-118.393867">
  <ele>-0.12</ele>
  <time>2026-09-01T01:17:24Z</time>
  <course>0.0</course>
  <speed>0.0</speed>
  <fix>3d</fix>
</trkpt>
<trkpt lat="33.810313" lon="-118.3938671">
  <ele>-0.122</ele>
  <time>2026-09-01T01:17:24Z</time>
  <course>185.05</course>
  <speed>0.01414213562373095</speed>
  <fix>3d</fix>
</trkpt>
<trkpt lat="33.810313" lon="-118.393867">
  <ele>-0.12</ele>
  <time>2026-09-01T01:17:24Z</time>
  <course>0.0</course>
  <speed>0.0</speed>
  <fix>3d</fix>
</trkpt>
<trkpt lat="33.810313" lon="-118.3938671">
  <ele>-0.124</ele>
  <time>2026-09-01T01:17:24Z</time>
  <course>185.02</course>
  <speed>0.01414213562373095</speed>
  <fix>3d</fix>
</trkpt>
<trkpt lat="33.810313" lon="-118.393867">
  <ele>-0.12</ele>
  <time>2026-09-01T01:17:24Z</time>
  <course>0.0</course>
  <speed>0.0</speed>
  <fix>3d</fix>
</trkpt>
<trkpt lat="33.8103131" lon="-118.3938671">
  <ele>-0.126</ele>
  <time>2026-09-01T01:17:24Z</time>
  <course>185.0</course>
  <speed>0.01414213562373095</speed>
  <fix>3d</fix>
</trkpt>
<trkpt lat="33.810313" lon="-118.393867">
  <ele>-0.12</ele>
  <time>2026-09-01T01:17:24Z</time>
  <course>0.0</course>
  <speed>0.0</speed>
  <fix>3d</fix>
</trkpt>
<trkpt lat="33.8103131" lon="-118.3938671">
  <ele>-0.127</ele>
  <time>2026-09-01T01:17:24Z</time>
  <course>184.99</course>
  <speed>0.01414213562373095</speed>
  <fix>3d</fix>
</trkpt>
<trkpt lat="33.810313" lon="-118.393867">
  <ele>-0.12</ele>
  <time>2026-09-01T01:17:24Z</time>
  <course>0.0</course>
  <speed>0.0</speed>
  <fix>3d</fix>
</trkpt>
<trkpt lat="33.8103131" lon="-118.3938671">
  <ele>-0.127</ele>
  <time>2026-09-01T01:17:24Z</time>
  <course>184.98</course>
  <speed>0.01414213562373095</speed>
  <fix>3d</fix>
</trkpt>
<trkpt lat="33.810313" lon="-118.393867">
  <ele>-0.12</ele>
  <time>2026-09-01T01:17:24Z</time>
  <course>0.0</course>
  <speed>0.0</speed>
  <fix>3d</fix>
</trkpt>
<trkpt lat="33.8103131" lon="-118.3938671">
  <ele>-0.127</ele>
  <time>2026-09-01T01:17:24Z</time>
  <course>184.97</course>
  <speed>0.01414213562373095</speed>
  <fix>3d</fix>
</trkpt>
<trkpt lat="33.810313" lon="-118.393867">
  <ele>-0.12</ele>
  <time>2026-09-01T01:17:24Z</time>
  <course>0.0</course>
  <speed>0.0</speed>
  <fix>3d</fix>
</trkpt>
<trkpt lat="33.8103131" lon="-118.3938671">
  <ele>-0.125</ele>
  <time>2026-09-01T01:17:24Z</time>
  <course>184.97</course>
  <speed>0.01414213562373095</speed>
  <fix>3d</fix>
</trkpt>
<trkpt lat="33.810313" lon="-118.393867">
  <ele>-0.12</ele>
  <time>2026-09-01T01:17:24Z</time>
  <course>0.0</course>
  <speed>0.0</speed>
  <fix>3d</fix>
</trkpt>
<trkpt lat="33.8103131" lon="-118.3938671">
  <ele>-0.125</ele>
  <time>2026-09-01T01:17:24Z</time>
  <course>184.96</course>
  <speed>0.01414213562373095</speed>
  <fix>3d</fix>
</trkpt>
<trkpt lat="33.810313" lon="-118.393867">
  <ele>-0.12</ele>
  <time>2026-09-01T01:17:24Z</time>
  <course>0.0</course>
  <speed>0.0</speed>
  <fix>3d</fix>
</trkpt>
<trkpt lat="33.8103131" lon="-118.3938671">
  <ele>-0.125</ele>
  <time>2026-09-01T01:17:24Z</time>
  <course>184.96</course>
  <speed>0.022360679774997897</speed>
  <fix>3d</fix>
</trkpt>
<trkpt lat="33.810313" lon="-118.393867">
  <ele>-0.12</ele>
  <time>2026-09-01T01:17:24Z</time>
  <course>0.0</course>
  <speed>0.0</speed>
  <fix>3d</fix>
</trkpt>
<trkpt lat="33.8103131" lon="-118.3938671">
  <ele>-0.125</ele>
  <time>2026-09-01T01:17:24Z</time>
  <course>184.96</course>
  <speed>0.022360679774997897</speed>
  <fix>3d</fix>
</trkpt>
<trkpt lat="33.810313" lon="-118.393867">
  <ele>-0.12</ele>
  <time>2026-09-01T01:17:24Z</time>
  <course>0.0</course>
  <speed>0.0</speed>
  <fix>3d</fix>
</trkpt>
<trkpt lat="33.8103131" lon="-118.3938671">
  <ele>-0.128</ele>
  <time>2026-09-01T01:17:24Z</time>
  <course>184.95</course>
  <speed>0.022360679774997897</speed>
  <fix>3d</fix>
</trkpt>
<trkpt lat="33.810313" lon="-118.393867">
  <ele>-0.12</ele>
  <time>2026-09-01T01:17:24Z</time>
  <course>0.0</course>
  <speed>0.0</speed>
  <fix>3d</fix>
</trkpt>
<trkpt lat="33.8103131" lon="-118.3938671">
  <ele>-0.13</ele>
  <time>2026-09-01T01:17:24Z</time>
  <course>184.95</course>
  <speed>0.022360679774997897</speed>
  <fix>3d</fix>
</trkpt>
<trkpt lat="33.810313" lon="-118.393867">
  <ele>-0.12</ele>
  <time>2026-09-01T01:17:24Z</time>
  <course>0.0</course>
  <speed>0.0</speed>
  <fix>3d</fix>
</trkpt>
<trkpt lat="33.8103131" lon="-118.3938671">
  <ele>-0.132</ele>
  <time>2026-09-01T01:17:24Z</time>
  <course>184.95</course>
  <speed>0.022360679774997897</speed>
  <fix>3d</fix>
</trkpt>
<trkpt lat="33.810313" lon="-118.393867">
  <ele>-0.12</ele>
  <time>2026-09-01T01:17:24Z</time>
  <course>0.0</course>
  <speed>0.0</speed>
  <fix>3d</fix>
</trkpt>
<trkpt lat="33.8103131" lon="-118.3938671">
  <ele>-0.132</ele>
  <time>2026-09-01T01:17:24Z</time>
  <course>184.96</course>
  <speed>0.022360679774997897</speed>
  <fix>3d</fix>
</trkpt>
<trkpt lat="33.810313" lon="-118.393867">
  <ele>-0.12</ele>
  <time>2026-09-01T01:17:24Z</time>
  <course>0.0</course>
  <speed>0.0</speed>
  <fix>3d</fix>
</trkpt>
<trkpt lat="33.8103131" lon="-118.3938671">
  <ele>-0.132</ele>
  <time>2026-09-01T01:17:24Z</time>
  <course>184.96</course>
  <speed>0.022360679774997897</speed>
  <fix>3d</fix>
</trkpt>
<trkpt lat="33.810313" lon="-118.393867">
  <ele>-0.12</ele>
  <time>2026-09-01T01:17:24Z</time>
  <course>0.0</course>
  <speed>0.0</speed>
  <fix>3d</fix>
</trkpt>
<trkpt lat="33.8103131" lon="-118.3938671">
  <ele>-0.132</ele>
  <time>2026-09-01T01:17:24Z</time>
  <course>184.96</course>
  <speed>0.022360679774997897</speed>
  <fix>3d</fix>
</trkpt>
<trkpt lat="33.810313" lon="-118.393867">
  <ele>-0.12</ele>
  <time>2026-09-01T01:17:24Z</time>
  <course>0.0</course>
  <speed>0.0</speed>
  <fix>3d</fix>
</trkpt>
<trkpt lat="33.8103131" lon="-118.3938671">
  <ele>-0.131</ele>
  <time>2026-09-01T01:17:24Z</time>
  <course>184.96</course>
  <speed>0.022360679774997897</speed>
  <fix>3d</fix>
</trkpt>
<trkpt lat="33.810313" lon="-118.393867">
  <ele>-0.12</ele>
  <time>2026-09-01T01:17:24Z</time>
  <course>0.0</course>
  <speed>0.0</speed>
  <fix>3d</fix>
</trkpt>
<trkpt lat="33.8103131" lon="-118.3938671">
  <ele>-0.13</ele>
  <time>2026-09-01T01:17:24Z</time>
  <course>184.97</course>
  <speed>0.022360679774997897</speed>
  <fix>3d</fix>
</trkpt>
<trkpt lat="33.810313" lon="-118.393867">
  <ele>-0.12</ele>
  <time>2026-09-01T01:17:24Z</time>
  <course>0.0</course>
  <speed>0.0</speed>
  <fix>3d</fix>
</trkpt>
<trkpt lat="33.8103131" lon="-118.3938671">
  <ele>-0.13</ele>
  <time>2026-09-01T01:17:24Z</time>
  <course>184.97</course>
  <speed>0.022360679774997897</speed>
  <fix>3d</fix>
</trkpt>
<trkpt lat="33.810313" lon="-118.393867">
  <ele>-0.12</ele>
  <time>2026-09-01T01:17:24Z</time>
  <course>0.0</course>
  <speed>0.0</speed>
  <fix>3d</fix>
</trkpt>
<trkpt lat="33.8103131" lon="-118.3938671">
  <ele>-0.129</ele>
  <time>2026-09-01T01:17:24Z</time>
  <course>184.97</course>
  <speed>0.022360679774997897</speed>
  <fix>3d</fix>
</trkpt>
<trkpt lat="33.810313" lon="-118.393867">
  <ele>-0.12</ele>
  <time>2026-09-01T01:17:24Z</time>
  <course>0.0</course>
  <speed>0.0</speed>
  <fix>3d</fix>
</trkpt>
<trkpt lat="33.8103131" lon="-118.3938671">
  <ele>-0.129</ele>
  <time>2026-09-01T01:17:24Z</time>
  <course>184.98</course>
  <speed>0.022360679774997897</speed>
  <fix>3d</fix>
</trkpt>
<trkpt lat="33.810313" lon="-118.393867">
  <ele>-0.12</ele>
  <time>2026-09-01T01:17:24Z</time>
  <course>0.0</course>
  <speed>0.0</speed>
  <fix>3d</fix>
</trkpt>
<trkpt lat="33.8103131" lon="-118.3938671">
  <ele>-0.129</ele>
  <time>2026-09-01T01:17:24Z</time>
  <course>184.98</course>
  <speed>0.022360679774997897</speed>
  <fix>3d</fix>
</trkpt>
<trkpt lat="33.810313" lon="-118.393867">
  <ele>-0.12</ele>
  <time>2026-09-01T01:17:24Z</time>
  <course>0.0</course>
  <speed>0.0</speed>
  <fix>3d</fix>
</trkpt>
<trkpt lat="33.8103131" lon="-118.3938671">
  <ele>-0.13</ele>
  <time>2026-09-01T01:17:24Z</time>
  <course>184.99</course>
  <speed>0.022360679774997897</speed>
  <fix>3d</fix>
</trkpt>
<trkpt lat="33.810313" lon="-118.393867">
  <ele>-0.12</ele>
  <time>2026-09-01T01:17:24Z</time>
  <course>0.0</course>
  <speed>0.0</speed>
  <fix>3d</fix>
</trkpt>
<trkpt lat="33.8103131" lon="-118.3938671">
  <ele>-0.13</ele>
  <time>2026-09-01T01:17:24Z</time>
  <course>184.99</course>
  <speed>0.022360679774997897</speed>
  <fix>3d</fix>
</trkpt>
<trkpt lat="33.810313" lon="-118.393867">
  <ele>-0.12</ele>
  <time>2026-09-01T01:17:24Z</time>
  <course>0.0</course>
  <speed>0.0</speed>
  <fix>3d</fix>
</trkpt>
<trkpt lat="33.4368002" lon="-117.0859339">
  <ele>-0.11</ele>
  <time>2026-09-01T01:17:25Z</time>
  <course>0.0</course>
  <speed>0.0</speed>
  <fix>3d</fix>
</trkpt>
<trkpt lat="33.4368002" lon="-117.0859339">
  <ele>-0.11</ele>
  <time>2026-09-01T01:17:25Z</time>
  <course>0.0</course>
  <speed>0.0</speed>
  <fix>3d</fix>
</trkpt>
<trkpt lat="33.810313" lon="-118.393867">
  <ele>0.0</ele>
  <time>2026-09-01T01:17:25Z</time>
  <course>173.5</course>
  <speed>0.0</speed>
  <fix>3d</fix>
</trkpt>
<trkpt lat="33.810313" lon="-118.393867">
  <ele>-0.11</ele>
  <time>2026-09-01T01:17:25Z</time>
  <course>0.0</course>
  <speed>0.0</speed>
  <fix>3d</fix>
</trkpt>
<trkpt lat="33.810313" lon="-118.393867">
  <ele>0.0</ele>
  <time>2026-09-01T01:17:25Z</time>
  <course>173.61</course>
  <speed>0.0</speed>
  <fix>3d</fix>
</trkpt>
<trkpt lat="33.810313" lon="-118.393867">
  <ele>-0.11</ele>
  <time>2026-09-01T01:17:25Z</time>
  <course>0.0</course>
  <speed>0.0</speed>
  <fix>3d</fix>
</trkpt>
<trkpt lat="33.810313" lon="-118.393867">
  <ele>0.0</ele>
  <time>2026-09-01T01:17:25Z</time>
  <course>173.98</course>
  <speed>0.0</speed>
  <fix>3d</fix>
</trkpt>
<trkpt lat="33.810313" lon="-118.393867">
  <ele>-0.11</ele>
  <time>2026-09-01T01:17:25Z</time>
  <course>0.0</course>
  <speed>0.0</speed>
  <fix>3d</fix>
</trkpt>
<trkpt lat="33.810313" lon="-118.393867">
  <ele>0.0</ele>
  <time>2026-09-01T01:17:25Z</time>
  <course>174.51</course>
  <speed>0.0</speed>
  <fix>3d</fix>
</trkpt>
<trkpt lat="33.810313" lon="-118.393867">
  <ele>-0.11</ele>
  <time>2026-09-01T01:17:25Z</time>
  <course>0.0</course>
  <speed>0.0</speed>
  <fix>3d</fix>
</trkpt>
<trkpt lat="33.810313" lon="-118.393867">
  <ele>0.0</ele>
  <time>2026-09-01T01:17:25Z</time>
  <course>175.07</course>
  <speed>0.0</speed>
  <fix>3d</fix>
</trkpt>
<trkpt lat="33.810313" lon="-118.393867">
  <ele>-0.12</ele>
  <time>2026-09-01T01:17:25Z</time>
  <course>0.0</course>
  <speed>0.0</speed>
  <fix>3d</fix>
</trkpt>
<trkpt lat="33.810313" lon="-118.393867">
  <ele>0.0</ele>
  <time>2026-09-01T01:17:25Z</time>
  <course>175.61</course>
  <speed>0.0</speed>
  <fix>3d</fix>
</trkpt>
<trkpt lat="33.810313" lon="-118.393867">
  <ele>-0.12</ele>
  <time>2026-09-01T01:17:25Z</time>
  <course>0.0</course>
  <speed>0.0</speed>
  <fix>3d</fix>
</trkpt>
<trkpt lat="33.810313" lon="-118.393867">
  <ele>0.0</ele>
  <time>2026-09-01T01:17:25Z</time>
  <course>176.12</course>
  <speed>0.0</speed>
  <fix>3d</fix>
</trkpt>
<trkpt lat="33.810313" lon="-118.393867">
  <ele>-0.13</ele>
  <time>2026-09-01T01:17:25Z</time>
  <course>0.0</course>
  <speed>0.0</speed>
  <fix>3d</fix>
</trkpt>
<trkpt lat="33.810313" lon="-118.393867">
  <ele>0.0</ele>
  <time>2026-09-01T01:17:25Z</time>
  <course>176.6</course>
  <speed>0.0</speed>
  <fix>3d</fix>
</trkpt>
<trkpt lat="33.810313" lon="-118.393867">
  <ele>-0.13</ele>
  <time>2026-09-01T01:17:25Z</time>
  <course>0.0</course>
  <speed>0.0</speed>
  <fix>3d</fix>
</trkpt>
<trkpt lat="33.810313" lon="-118.393867">
  <ele>0.0</ele>
  <time>2026-09-01T01:17:25Z</time>
  <course>177.07</course>
  <speed>0.0</speed>
  <fix>3d</fix>
</trkpt>
<trkpt lat="33.810313" lon="-118.393867">
  <ele>-0.13</ele>
  <time>2026-09-01T01:17:25Z</time>
  <course>0.0</course>
  <speed>0.0</speed>
  <fix>3d</fix>
</trkpt>
<trkpt lat="33.810313" lon="-118.393867">
  <ele>0.0</ele>
  <time>2026-09-01T01:17:25Z</time>
  <course>177.53</course>
  <speed>0.0</speed>
  <fix>3d</fix>
</trkpt>
<trkpt lat="33.810313" lon="-118.393867">
  <ele>-0.13</ele>
  <time>2026-09-01T01:17:25Z</time>
  <course>0.0</course>
  <speed>0.0</speed>
  <fix>3d</fix>
</trkpt>
<trkpt lat="33.810313" lon="-118.393867">
  <ele>0.0</ele>
  <time>2026-09-01T01:17:25Z</time>
  <course>177.97</course>
  <speed>0.0</speed>
  <fix>3d</fix>
</trkpt>
<trkpt lat="33.810313" lon="-118.393867">
  <ele>-0.14</ele>
  <time>2026-09-01T01:17:25Z</time>
  <course>0.0</course>
  <speed>0.0</speed>
  <fix>3d</fix>
</trkpt>
<trkpt lat="33.810313" lon="-118.393867">
  <ele>0.0</ele>
  <time>2026-09-01T01:17:25Z</time>
  <course>178.4</course>
  <speed>0.0</speed>
  <fix>3d</fix>
</trkpt>
<trkpt lat="33.810313" lon="-118.393867">
  <ele>-0.14</ele>
  <time>2026-09-01T01:17:25Z</time>
  <course>0.0</course>
  <speed>0.0</speed>
  <fix>3d</fix>
</trkpt>
<trkpt lat="33.810313" lon="-118.393867">
  <ele>0.0</ele>
  <time>2026-09-01T01:17:25Z</time>
  <course>178.83</course>
  <speed>0.0</speed>
  <fix>3d</fix>
</trkpt>
<trkpt lat="33.810313" lon="-118.393867">
  <ele>-0.14</ele>
  <time>2026-09-01T01:17:25Z</time>
  <course>0.0</course>
  <speed>0.0</speed>
  <fix>3d</fix>
</trkpt>
<trkpt lat="33.810313" lon="-118.393867">
  <ele>0.0</ele>
  <time>2026-09-01T01:17:25Z</time>
  <course>179.23</course>
  <speed>0.0</speed>
  <fix>3d</fix>
</trkpt>
<trkpt lat="33.810313" lon="-118.393867">
  <ele>-0.14</ele>
  <time>2026-09-01T01:17:25Z</time>
  <course>0.0</course>
  <speed>0.0</speed>
  <fix>3d</fix>
</trkpt>
<trkpt lat="33.810313" lon="-118.393867">
  <ele>0.0</ele>
  <time>2026-09-01T01:17:25Z</time>
  <course>179.62</course>
  <speed>0.0</speed>
  <fix>3d</fix>
</trkpt>
<trkpt lat="33.810313" lon="-118.393867">
  <ele>-0.14</ele>
  <time>2026-09-01T01:17:25Z</time>
  <course>0.0</course>
  <speed>0.0</speed>
  <fix>3d</fix>
</trkpt>
<trkpt lat="33.810313" lon="-118.393867">
  <ele>0.0</ele>
  <time>2026-09-01T01:17:25Z</time>
  <course>180.01</course>
  <speed>0.0</speed>
  <fix>3d</fix>
</trkpt>
<trkpt lat="33.810313" lon="-118.393867">
  <ele>-0.14</ele>
  <time>2026-09-01T01:17:25Z</time>
  <course>0.0</course>
  <speed>0.0</speed>
  <fix>3d</fix>
</trkpt>
<trkpt lat="33.810313" lon="-118.393867">
  <ele>0.0</ele>
  <time>2026-09-01T01:17:25Z</time>
  <course>180.37</course>
  <speed>0.0</speed>
  <fix>3d</fix>
</trkpt>
<trkpt lat="33.810313" lon="-118.393867">
  <ele>-0.14</ele>
  <time>2026-09-01T01:17:25Z</time>
  <course>0.0</course>
  <speed>0.0</speed>
  <fix>3d</fix>
</trkpt>
<trkpt lat="33.810313" lon="-118.393867">
  <ele>0.0</ele>
  <time>2026-09-01T01:17:25Z</time>
  <course>180.73</course>
  <speed>0.0</speed>
  <fix>3d</fix>
</trkpt>
<trkpt lat="33.810313" lon="-118.393867">
  <ele>-0.14</ele>
  <time>2026-09-01T01:17:25Z</time>
  <course>0.0</course>
  <speed>0.0</speed>
  <fix>3d</fix>
</trkpt>
<trkpt lat="33.810313" lon="-118.393867">
  <ele>0.0</ele>
  <time>2026-09-01T01:17:25Z</time>
  <course>181.07</course>
  <speed>0.0</speed>
  <fix>3d</fix>
</trkpt>
<trkpt lat="33.810313" lon="-118.393867">
  <ele>-0.13</ele>
  <time>2026-09-01T01:17:25Z</time>
  <course>0.0</course>
  <speed>0.0</speed>
  <fix>3d</fix>
</trkpt>
<trkpt lat="33.810313" lon="-118.393867">
  <ele>0.0</ele>
  <time>2026-09-01T01:17:25Z</time>
  <course>181.4</course>
  <speed>0.0</speed>
  <fix>3d</fix>
</trkpt>
<trkpt lat="33.810313" lon="-118.393867">
  <ele>-0.13</ele>
  <time>2026-09-01T01:17:25Z</time>
  <course>0.0</course>
  <speed>0.0</speed>
  <fix>3d</fix>
</trkpt>
<trkpt lat="33.810313" lon="-118.393867">
  <ele>0.0</ele>
  <time>2026-09-01T01:17:25Z</time>
  <course>181.72</course>
  <speed>0.0</speed>
  <fix>3d</fix>
</trkpt>
<trkpt lat="33.810313" lon="-118.393867">
  <ele>-0.12</ele>
  <time>2026-09-01T01:17:25Z</time>
  <course>0.0</course>
  <speed>0.0</speed>
  <fix>3d</fix>
</trkpt>
<trkpt lat="33.810313" lon="-118.393867">
  <ele>0.0</ele>
  <time>2026-09-01T01:17:25Z</time>
  <course>182.02</course>
  <speed>0.0</speed>
  <fix>3d</fix>
</trkpt>
<trkpt lat="33.810313" lon="-118.393867">
  <ele>-0.12</ele>
  <time>2026-09-01T01:17:25Z</time>
  <course>0.0</course>
  <speed>0.0</speed>
  <fix>3d</fix>
</trkpt>
<trkpt lat="33.810313" lon="-118.393867">
  <ele>0.0</ele>
  <time>2026-09-01T01:17:25Z</time>
  <course>182.32</course>
  <speed>0.0</speed>
  <fix>3d</fix>
</trkpt>
<trkpt lat="33.810313" lon="-118.393867">
  <ele>-0.12</ele>
  <time>2026-09-01T01:17:25Z</time>
  <course>0.0</course>
  <speed>0.0</speed>
  <fix>3d</fix>
</trkpt>
<trkpt lat="33.810313" lon="-118.393867">
  <ele>0.0</ele>
  <time>2026-09-01T01:17:25Z</time>
  <course>182.6</course>
  <speed>0.0</speed>
  <fix>3d</fix>
</trkpt>
<trkpt lat="33.810313" lon="-118.393867">
  <ele>-0.12</ele>
  <time>2026-09-01T01:17:25Z</time>
  <course>0.0</course>
  <speed>0.0</speed>
  <fix>3d</fix>
</trkpt>
<trkpt lat="33.810313" lon="-118.393867">
  <ele>0.0</ele>
  <time>2026-09-01T01:17:25Z</time>
  <course>182.87</course>
  <speed>0.0</speed>
  <fix>3d</fix>
</trkpt>
<trkpt lat="33.810313" lon="-118.393867">
  <ele>-0.11</ele>
  <time>2026-09-01T01:17:25Z</time>
  <course>0.0</course>
  <speed>0.0</speed>
  <fix>3d</fix>
</trkpt>
<trkpt lat="33.810313" lon="-118.393867">
  <ele>0.0</ele>
  <time>2026-09-01T01:17:25Z</time>
  <course>183.14</course>
  <speed>0.0</speed>
  <fix>3d</fix>
</trkpt>
<trkpt lat="33.810313" lon="-118.393867">
  <ele>-0.11</ele>
  <time>2026-09-01T01:17:25Z</time>
  <course>0.0</course>
  <speed>0.0</speed>
  <fix>3d</fix>
</trkpt>
<trkpt lat="33.810313" lon="-118.393867">
  <ele>0.0</ele>
  <time>2026-09-01T01:17:25Z</time>
  <course>183.39</course>
  <speed>0.0</speed>
  <fix>3d</fix>
</trkpt>
<trkpt lat="33.810313" lon="-118.393867">
  <ele>-0.11</ele>
  <time>2026-09-01T01:17:25Z</time>
  <course>0.0</course>
  <speed>0.0</speed>
  <fix>3d</fix>
</trkpt>
<trkpt lat="33.810313" lon="-118.393867">
  <ele>0.0</ele>
  <time>2026-09-01T01:17:25Z</time>
  <course>183.63</course>
  <speed>0.0</speed>
  <fix>3d</fix>
</trkpt>
<trkpt lat="33.810313" lon="-118.393867">
  <ele>-0.11</ele>
  <time>2026-09-01T01:17:25Z</time>
  <course>0.0</course>
  <speed>0.0</speed>
  <fix>3d</fix>
</trkpt>
<trkpt lat="33.810313" lon="-118.393867">
  <ele>0.0</ele>
  <time>2026-09-01T01:17:25Z</time>
  <course>183.86</course>
  <speed>0.0</speed>
  <fix>3d</fix>
</trkpt>
<trkpt lat="33.810313" lon="-118.393867">
  <ele>-0.12</ele>
  <time>2026-09-01T01:17:25Z</time>
  <course>0.0</course>
  <speed>0.0</speed>
  <fix>3d</fix>
</trkpt>
<trkpt lat="33.810313" lon="-118.393867">
  <ele>0.0</ele>
  <time>2026-09-01T01:17:25Z</time>
  <course>184.08</course>
  <speed>0.0</speed>
  <fix>3d</fix>
</trkpt>
<trkpt lat="33.810313" lon="-118.393867">
  <ele>-0.12</ele>
  <time>2026-09-01T01:17:25Z</time>
  <course>0.0</course>
  <speed>0.0</speed>
  <fix>3d</fix>
</trkpt>
<trkpt lat="33.810313" lon="-118.393867">
  <ele>0.0</ele>
  <time>2026-09-01T01:17:25Z</time>
  <course>184.3</course>
  <speed>0.0</speed>
  <fix>3d</fix>
</trkpt>
<trkpt lat="33.810313" lon="-118.393867">
  <ele>-0.13</ele>
  <time>2026-09-01T01:17:25Z</time>
  <course>0.0</course>
  <speed>0.0</speed>
  <fix>3d</fix>
</trkpt>
<trkpt lat="33.810313" lon="-118.393867">
  <ele>0.0</ele>
  <time>2026-09-01T01:17:25Z</time>
  <course>184.5</course>
  <speed>0.0</speed>
  <fix>3d</fix>
</trkpt>
<trkpt lat="33.810313" lon="-118.393867">
  <ele>-0.13</ele>
  <time>2026-09-01T01:17:25Z</time>
  <course>0.0</course>
  <speed>0.0</speed>
  <fix>3d</fix>
</trkpt>
<trkpt lat="33.810313" lon="-118.393867">
  <ele>0.0</ele>
  <time>2026-09-01T01:17:25Z</time>
  <course>184.7</course>
  <speed>0.0</speed>
  <fix>3d</fix>
</trkpt>
<trkpt lat="33.810313" lon="-118.393867">
  <ele>-0.13</ele>
  <time>2026-09-01T01:17:25Z</time>
  <course>0.0</course>
  <speed>0.0</speed>
  <fix>3d</fix>
</trkpt>
<trkpt lat="33.810313" lon="-118.393867">
  <ele>0.0</ele>
  <time>2026-09-01T01:17:25Z</time>
  <course>184.89</course>
  <speed>0.0</speed>
  <fix>3d</fix>
</trkpt>
<trkpt lat="33.810313" lon="-118.393867">
  <ele>-0.13</ele>
  <time>2026-09-01T01:17:25Z</time>
  <course>0.0</course>
  <speed>0.0</speed>
  <fix>3d</fix>
</trkpt>
<trkpt lat="33.810313" lon="-118.393867">
  <ele>0.0</ele>
  <time>2026-09-01T01:17:25Z</time>
  <course>185.07</course>
  <speed>0.0</speed>
  <fix>3d</fix>
</trkpt>
<trkpt lat="33.810313" lon="-118.393867">
  <ele>-0.14</ele>
  <time>2026-09-01T01:17:25Z</time>
  <course>0.0</course>
  <speed>0.0</speed>
  <fix>3d</fix>
</trkpt>
<trkpt lat="33.810313" lon="-118.393867">
  <ele>0.0</ele>
  <time>2026-09-01T01:17:25Z</time>
  <course>185.24</course>
  <speed>0.0</speed>
  <fix>3d</fix>
</trkpt>
<trkpt lat="33.810313" lon="-118.393867">
  <ele>-0.14</ele>
  <time>2026-09-01T01:17:25Z</time>
  <course>0.0</course>
  <speed>0.0</speed>
  <fix>3d</fix>
</trkpt>
<trkpt lat="33.810313" lon="-118.393867">
  <ele>0.0</ele>
  <time>2026-09-01T01:17:25Z</time>
  <course>185.41</course>
  <speed>0.0</speed>
  <fix>3d</fix>
</trkpt>
<trkpt lat="33.810313" lon="-118.393867">
  <ele>-0.13</ele>
  <time>2026-09-01T01:17:25Z</time>
  <course>0.0</course>
  <speed>0.0</speed>
  <fix>3d</fix>
</trkpt>
<trkpt lat="33.810313" lon="-118.393867">
  <ele>0.0</ele>
  <time>2026-09-01T01:17:25Z</time>
  <course>185.56</course>
  <speed>0.0</speed>
  <fix>3d</fix>
</trkpt>
<trkpt lat="33.810313" lon="-118.393867">
  <ele>-0.13</ele>
  <time>2026-09-01T01:17:25Z</time>
  <course>0.0</course>
  <speed>0.0</speed>
  <fix>3d</fix>
</trkpt>
<trkpt lat="33.810313" lon="-118.393867">
  <ele>0.0</ele>
  <time>2026-09-01T01:17:25Z</time>
  <course>185.72</course>
  <speed>0.0</speed>
  <fix>3d</fix>
</trkpt>
<trkpt lat="33.810313" lon="-118.393867">
  <ele>-0.13</ele>
  <time>2026-09-01T01:17:25Z</time>
  <course>0.0</course>
  <speed>0.0</speed>
  <fix>3d</fix>
</trkpt>
<trkpt lat="33.810313" lon="-118.393867">
  <ele>0.0</ele>
  <time>2026-09-01T01:17:25Z</time>
  <course>185.86</course>
  <speed>0.0</speed>
  <fix>3d</fix>
</trkpt>
<trkpt lat="33.810313" lon="-118.393867">
  <ele>-0.13</ele>
  <time>2026-09-01T01:17:25Z</time>
  <course>0.0</course>
  <speed>0.0</speed>
  <fix>3d</fix>
</trkpt>
<trkpt lat="33.810313" lon="-118.393867">
  <ele>0.0</ele>
  <time>2026-09-01T01:17:25Z</time>
  <course>186.0</course>
  <speed>0.0</speed>
  <fix>3d</fix>
</trkpt>
<trkpt lat="33.810313" lon="-118.393867">
  <ele>-0.12</ele>
  <time>2026-09-01T01:17:25Z</time>
  <course>0.0</course>
  <speed>0.0</speed>
  <fix>3d</fix>
</trkpt>
<trkpt lat="33.810313" lon="-118.393867">
  <ele>0.0</ele>
  <time>2026-09-01T01:17:25Z</time>
  <course>186.13</course>
  <speed>0.0</speed>
  <fix>3d</fix>
</trkpt>
<trkpt lat="33.810313" lon="-118.393867">
  <ele>-0.12</ele>
  <time>2026-09-01T01:17:25Z</time>
  <course>0.0</course>
  <speed>0.0</speed>
  <fix>3d</fix>
</trkpt>
<trkpt lat="33.810313" lon="-118.393867">
  <ele>0.0</ele>
  <time>2026-09-01T01:17:25Z</time>
  <course>186.26</course>
  <speed>0.0</speed>
  <fix>3d</fix>
</trkpt>
<trkpt lat="33.810313" lon="-118.393867">
  <ele>-0.12</ele>
  <time>2026-09-01T01:17:25Z</time>
  <course>0.0</course>
  <speed>0.0</speed>
  <fix>3d</fix>
</trkpt>
<trkpt lat="33.810313" lon="-118.393867">
  <ele>0.0</ele>
  <time>2026-09-01T01:17:25Z</time>
  <course>186.38</course>
  <speed>0.0</speed>
  <fix>3d</fix>
</trkpt>
<trkpt lat="33.810313" lon="-118.393867">
  <ele>-0.12</ele>
  <time>2026-09-01T01:17:25Z</time>
  <course>0.0</course>
  <speed>0.0</speed>
  <fix>3d</fix>
</trkpt>
<trkpt lat="33.810313" lon="-118.393867">
  <ele>0.0</ele>
  <time>2026-09-01T01:17:25Z</time>
  <course>186.49</course>
  <speed>0.0</speed>
  <fix>3d</fix>
</trkpt>
<trkpt lat="33.810313" lon="-118.393867">
  <ele>-0.12</ele>
  <time>2026-09-01T01:17:25Z</time>
  <course>0.0</course>
  <speed>0.0</speed>
  <fix>3d</fix>
</trkpt>
<trkpt lat="33.810313" lon="-118.393867">
  <ele>0.0</ele>
  <time>2026-09-01T01:17:25Z</time>
  <course>186.6</course>
  <speed>0.0</speed>
  <fix>3d</fix>
</trkpt>
<trkpt lat="33.810313" lon="-118.393867">
  <ele>-0.12</ele>
  <time>2026-09-01T01:17:25Z</time>
  <course>0.0</course>
  <speed>0.0</speed>
  <fix>3d</fix>
</trkpt>
<trkpt lat="33.810313" lon="-118.393867">
  <ele>0.0</ele>
  <time>2026-09-01T01:17:25Z</time>
  <course>186.71</course>
  <speed>0.0</speed>
  <fix>3d</fix>
</trkpt>
<trkpt lat="33.810313" lon="-118.393867">
  <ele>-0.12</ele>
  <time>2026-09-01T01:17:25Z</time>
  <course>0.0</course>
  <speed>0.0</speed>
  <fix>3d</fix>
</trkpt>
<trkpt lat="33.810313" lon="-118.393867">
  <ele>0.0</ele>
  <time>2026-09-01T01:17:25Z</time>
  <course>186.81</course>
  <speed>0.0</speed>
  <fix>3d</fix>
</trkpt>
<trkpt lat="33.810313" lon="-118.393867">
  <ele>-0.12</ele>
  <time>2026-09-01T01:17:25Z</time>
  <course>0.0</course>
  <speed>0.0</speed>
  <fix>3d</fix>
</trkpt>
<trkpt lat="33.810313" lon="-118.393867">
  <ele>0.0</ele>
  <time>2026-09-01T01:17:25Z</time>
  <course>186.9</course>
  <speed>0.0</speed>
  <fix>3d</fix>
</trkpt>
<trkpt lat="33.810313" lon="-118.393867">
  <ele>-0.12</ele>
  <time>2026-09-01T01:17:25Z</time>
  <course>0.0</course>
  <speed>0.0</speed>
  <fix>3d</fix>
</trkpt>
<trkpt lat="33.810313" lon="-118.393867">
  <ele>0.0</ele>
  <time>2026-09-01T01:17:25Z</time>
  <course>187.0</course>
  <speed>0.0</speed>
  <fix>3d</fix>
</trkpt>
<trkpt lat="33.810313" lon="-118.393867">
  <ele>-0.12</ele>
  <time>2026-09-01T01:17:25Z</time>
  <course>0.0</course>
  <speed>0.0</speed>
  <fix>3d</fix>
</trkpt>
<trkpt lat="33.810313" lon="-118.393867">
  <ele>0.0</ele>
  <time>2026-09-01T01:17:25Z</time>
  <course>187.08</course>
  <speed>0.0</speed>
  <fix>3d</fix>
</trkpt>
<trkpt lat="33.810313" lon="-118.393867">
  <ele>-0.13</ele>
  <time>2026-09-01T01:17:25Z</time>
  <course>0.0</course>
  <speed>0.0</speed>
  <fix>3d</fix>
</trkpt>
<trkpt lat="33.810313" lon="-118.393867">
  <ele>0.0</ele>
  <time>2026-09-01T01:17:25Z</time>
  <course>187.17</course>
  <speed>0.0</speed>
  <fix>3d</fix>
</trkpt>
<trkpt lat="33.810313" lon="-118.393867">
  <ele>-0.13</ele>
  <time>2026-09-01T01:17:25Z</time>
  <course>0.0</course>
  <speed>0.0</speed>
  <fix>3d</fix>
</trkpt>
<trkpt lat="33.810313" lon="-118.393867">
  <ele>0.0</ele>
  <time>2026-09-01T01:17:25Z</time>
  <course>187.24</course>
  <speed>0.0</speed>
  <fix>3d</fix>
</trkpt>
<trkpt lat="33.810313" lon="-118.393867">
  <ele>-0.13</ele>
  <time>2026-09-01T01:17:25Z</time>
  <course>0.0</course>
  <speed>0.0</speed>
  <fix>3d</fix>
</trkpt>
<trkpt lat="33.810313" lon="-118.393867">
  <ele>0.0</ele>
  <time>2026-09-01T01:17:25Z</time>
  <course>187.32</course>
  <speed>0.0</speed>
  <fix>3d</fix>
</trkpt>
<trkpt lat="33.810313" lon="-118.393867">
  <ele>-0.13</ele>
  <time>2026-09-01T01:17:25Z</time>
  <course>0.0</course>
  <speed>0.0</speed>
  <fix>3d</fix>
</trkpt>
<trkpt lat="33.810313" lon="-118.393867">
  <ele>0.0</ele>
  <time>2026-09-01T01:17:25Z</time>
  <course>187.39</course>
  <speed>0.0</speed>
  <fix>3d</fix>
</trkpt>
<trkpt lat="33.810313" lon="-118.393867">
  <ele>-0.13</ele>
  <time>2026-09-01T01:17:25Z</time>
  <course>0.0</course>
  <speed>0.0</speed>
  <fix>3d</fix>
</trkpt>
<trkpt lat="33.810313" lon="-118.393867">
  <ele>0.0</ele>
  <time>2026-09-01T01:17:25Z</time>
  <course>187.46</course>
  <speed>0.0</speed>
  <fix>3d</fix>
</trkpt>
<trkpt lat="33.810313" lon="-118.393867">
  <ele>-0.13</ele>
  <time>2026-09-01T01:17:25Z</time>
  <course>0.0</course>
  <speed>0.0</speed>
  <fix>3d</fix>
</trkpt>
<trkpt lat="33.810313" lon="-118.393867">
  <ele>0.0</ele>
  <time>2026-09-01T01:17:25Z</time>
  <course>187.53</course>
  <speed>0.0</speed>
  <fix>3d</fix>
</trkpt>
<trkpt lat="33.810313" lon="-118.393867">
  <ele>-0.13</ele>
  <time>2026-09-01T01:17:25Z</time>
  <course>0.0</course>
  <speed>0.0</speed>
  <fix>3d</fix>
</trkpt>
<trkpt lat="33.810313" lon="-118.393867">
  <ele>0.0</ele>
  <time>2026-09-01T01:17:25Z</time>
  <course>187.59</course>
  <speed>0.0</speed>
  <fix>3d</fix>
</trkpt>
<trkpt lat="33.810313" lon="-118.393867">
  <ele>-0.13</ele>
  <time>2026-09-01T01:17:25Z</time>
  <course>0.0</course>
  <speed>0.0</speed>
  <fix>3d</fix>
</trkpt>
<trkpt lat="33.810313" lon="-118.393867">
  <ele>0.0</ele>
  <time>2026-09-01T01:17:25Z</time>
  <course>187.65</course>
  <speed>0.0</speed>
  <fix>3d</fix>
</trkpt>
<trkpt lat="33.810313" lon="-118.393867">
  <ele>-0.12</ele>
  <time>2026-09-01T01:17:25Z</time>
  <course>0.0</course>
  <speed>0.0</speed>
  <fix>3d</fix>
</trkpt>
<trkpt lat="33.810313" lon="-118.393867">
  <ele>0.0</ele>
  <time>2026-09-01T01:17:25Z</time>
  <course>187.7</course>
  <speed>0.0</speed>
  <fix>3d</fix>
</trkpt>
<trkpt lat="33.810313" lon="-118.393867">
  <ele>-0.12</ele>
  <time>2026-09-01T01:17:25Z</time>
  <course>0.0</course>
  <speed>0.0</speed>
  <fix>3d</fix>
</trkpt>
<trkpt lat="33.810313" lon="-118.393867">
  <ele>0.0</ele>
  <time>2026-09-01T01:17:25Z</time>
  <course>187.76</course>
  <speed>0.0</speed>
  <fix>3d</fix>
</trkpt>
<trkpt lat="33.810313" lon="-118.393867">
  <ele>-0.12</ele>
  <time>2026-09-01T01:17:25Z</time>
  <course>0.0</course>
  <speed>0.0</speed>
  <fix>3d</fix>
</trkpt>
<trkpt lat="33.810313" lon="-118.393867">
  <ele>0.0</ele>
  <time>2026-09-01T01:17:25Z</time>
  <course>187.81</course>
  <speed>0.0</speed>
  <fix>3d</fix>
</trkpt>
<trkpt lat="33.810313" lon="-118.393867">
  <ele>-0.12</ele>
  <time>2026-09-01T01:17:25Z</time>
  <course>0.0</course>
  <speed>0.0</speed>
  <fix>3d</fix>
</trkpt>
<trkpt lat="33.810313" lon="-118.393867">
  <ele>0.0</ele>
  <time>2026-09-01T01:17:25Z</time>
  <course>187.86</course>
  <speed>0.0</speed>
  <fix>3d</fix>
</trkpt>
<trkpt lat="33.810313" lon="-118.393867">
  <ele>-0.12</ele>
  <time>2026-09-01T01:17:25Z</time>
  <course>0.0</course>
  <speed>0.0</speed>
  <fix>3d</fix>
</trkpt>
<trkpt lat="33.810313" lon="-118.393867">
  <ele>0.0</ele>
  <time>2026-09-01T01:17:25Z</time>
  <course>187.9</course>
  <speed>0.0</speed>
  <fix>3d</fix>
</trkpt>
<trkpt lat="33.810313" lon="-118.393867">
  <ele>-0.12</ele>
  <time>2026-09-01T01:17:25Z</time>
  <course>0.0</course>
  <speed>0.0</speed>
  <fix>3d</fix>
</trkpt>
<trkpt lat="33.810313" lon="-118.393867">
  <ele>0.0</ele>
  <time>2026-09-01T01:17:25Z</time>
  <course>187.94</course>
  <speed>0.0</speed>
  <fix>3d</fix>
</trkpt>
<trkpt lat="33.810313" lon="-118.393867">
  <ele>-0.12</ele>
  <time>2026-09-01T01:17:25Z</time>
  <course>0.0</course>
  <speed>0.0</speed>
  <fix>3d</fix>
</trkpt>
<trkpt lat="33.810313" lon="-118.393867">
  <ele>0.0</ele>
  <time>2026-09-01T01:17:25Z</time>
  <course>187.99</course>
  <speed>0.0</speed>
  <fix>3d</fix>
</trkpt>
<trkpt lat="33.810313" lon="-118.393867">
  <ele>-0.12</ele>
  <time>2026-09-01T01:17:25Z</time>
  <course>0.0</course>
  <speed>0.0</speed>
  <fix>3d</fix>
</trkpt>
<trkpt lat="33.810313" lon="-118.393867">
  <ele>0.0</ele>
  <time>2026-09-01T01:17:25Z</time>
  <course>188.02</course>
  <speed>0.0</speed>
  <fix>3d</fix>
</trkpt>
<trkpt lat="33.810313" lon="-118.393867">
  <ele>-0.12</ele>
  <time>2026-09-01T01:17:25Z</time>
  <course>0.0</course>
  <speed>0.0</speed>
  <fix>3d</fix>
</trkpt>
<trkpt lat="33.810313" lon="-118.393867">
  <ele>0.0</ele>
  <time>2026-09-01T01:17:25Z</time>
  <course>188.06</course>
  <speed>0.0</speed>
  <fix>3d</fix>
</trkpt>
<trkpt lat="33.810313" lon="-118.393867">
  <ele>-0.12</ele>
  <time>2026-09-01T01:17:25Z</time>
  <course>0.0</course>
  <speed>0.0</speed>
  <fix>3d</fix>
</trkpt>
<trkpt lat="33.810313" lon="-118.393867">
  <ele>0.0</ele>
  <time>2026-09-01T01:17:25Z</time>
  <course>188.1</course>
  <speed>0.0</speed>
  <fix>3d</fix>
</trkpt>
<trkpt lat="33.810313" lon="-118.393867">
  <ele>-0.13</ele>
  <time>2026-09-01T01:17:25Z</time>
  <course>0.0</course>
  <speed>0.0</speed>
  <fix>3d</fix>
</trkpt>
<trkpt lat="33.810313" lon="-118.393867">
  <ele>0.0</ele>
  <time>2026-09-01T01:17:25Z</time>
  <course>188.13</course>
  <speed>0.0</speed>
  <fix>3d</fix>
</trkpt>
<trkpt lat="33.810313" lon="-118.393867">
  <ele>-0.13</ele>
  <time>2026-09-01T01:17:25Z</time>
  <course>0.0</course>
  <speed>0.0</speed>
  <fix>3d</fix>
</trkpt>
<trkpt lat="33.810313" lon="-118.393867">
  <ele>0.0</ele>
  <time>2026-09-01T01:17:25Z</time>
  <course>188.16</course>
  <speed>0.0</speed>
  <fix>3d</fix>
</trkpt>
<trkpt lat="33.810313" lon="-118.393867">
  <ele>-0.13</ele>
  <time>2026-09-01T01:17:25Z</time>
  <course>0.0</course>
  <speed>0.0</speed>
  <fix>3d</fix>
</trkpt>
<trkpt lat="33.810313" lon="-118.393867">
  <ele>0.0</ele>
  <time>2026-09-01T01:17:25Z</time>
  <course>188.19</course>
  <speed>0.0</speed>
  <fix>3d</fix>
</trkpt>
<trkpt lat="33.810313" lon="-118.393867">
  <ele>-0.13</ele>
  <time>2026-09-01T01:17:25Z</time>
  <course>0.0</course>
  <speed>0.0</speed>
  <fix>3d</fix>
</trkpt>
<trkpt lat="33.810313" lon="-118.393867">
  <ele>0.0</ele>
  <time>2026-09-01T01:17:25Z</time>
  <course>188.22</course>
  <speed>0.0</speed>
  <fix>3d</fix>
</trkpt>
<trkpt lat="33.810313" lon="-118.393867">
  <ele>-0.13</ele>
  <time>2026-09-01T01:17:25Z</time>
  <course>0.0</course>
  <speed>0.0</speed>
  <fix>3d</fix>
</trkpt>
<trkpt lat="33.810313" lon="-118.393867">
  <ele>0.0</ele>
  <time>2026-09-01T01:17:25Z</time>
  <course>188.24</course>
  <speed>0.0</speed>
  <fix>3d</fix>
</trkpt>
<trkpt lat="33.810313" lon="-118.393867">
  <ele>-0.13</ele>
  <time>2026-09-01T01:17:25Z</time>
  <course>0.0</course>
  <speed>0.0</speed>
  <fix>3d</fix>
</trkpt>
<trkpt lat="33.810313" lon="-118.393867">
  <ele>0.0</ele>
  <time>2026-09-01T01:17:25Z</time>
  <course>188.27</course>
  <speed>0.0</speed>
  <fix>3d</fix>
</trkpt>
<trkpt lat="33.810313" lon="-118.393867">
  <ele>-0.12</ele>
  <time>2026-09-01T01:17:25Z</time>
  <course>0.0</course>
  <speed>0.0</speed>
  <fix>3d</fix>
</trkpt>
<trkpt lat="33.810313" lon="-118.393867">
  <ele>0.0</ele>
  <time>2026-09-01T01:17:25Z</time>
  <course>188.29</course>
  <speed>0.0</speed>
  <fix>3d</fix>
</trkpt>
<trkpt lat="33.810313" lon="-118.393867">
  <ele>-0.12</ele>
  <time>2026-09-01T01:17:25Z</time>
  <course>0.0</course>
  <speed>0.0</speed>
  <fix>3d</fix>
</trkpt>
<trkpt lat="33.810313" lon="-118.393867">
  <ele>0.0</ele>
  <time>2026-09-01T01:17:25Z</time>
  <course>188.32</course>
  <speed>0.0</speed>
  <fix>3d</fix>
</trkpt>
<trkpt lat="33.810313" lon="-118.393867">
  <ele>-0.12</ele>
  <time>2026-09-01T01:17:25Z</time>
  <course>0.0</course>
  <speed>0.0</speed>
  <fix>3d</fix>
</trkpt>
<trkpt lat="33.810313" lon="-118.393867">
  <ele>0.0</ele>
  <time>2026-09-01T01:17:25Z</time>
  <course>188.34</course>
  <speed>0.0</speed>
  <fix>3d</fix>
</trkpt>
<trkpt lat="33.810313" lon="-118.393867">
  <ele>-0.12</ele>
  <time>2026-09-01T01:17:25Z</time>
  <course>0.0</course>
  <speed>0.0</speed>
  <fix>3d</fix>
</trkpt>
<trkpt lat="33.810313" lon="-118.393867">
  <ele>0.0</ele>
  <time>2026-09-01T01:17:25Z</time>
  <course>188.36</course>
  <speed>0.0</speed>
  <fix>3d</fix>
</trkpt>
<trkpt lat="33.810313" lon="-118.393867">
  <ele>-0.12</ele>
  <time>2026-09-01T01:17:25Z</time>
  <course>0.0</course>
  <speed>0.0</speed>
  <fix>3d</fix>
</trkpt>
<trkpt lat="33.810313" lon="-118.393867">
  <ele>0.0</ele>
  <time>2026-09-01T01:17:25Z</time>
  <course>188.38</course>
  <speed>0.0</speed>
  <fix>3d</fix>
</trkpt>
<trkpt lat="33.810313" lon="-118.393867">
  <ele>-0.12</ele>
  <time>2026-09-01T01:17:25Z</time>
  <course>0.0</course>
  <speed>0.0</speed>
  <fix>3d</fix>
</trkpt>
<trkpt lat="33.810313" lon="-118.393867">
  <ele>0.0</ele>
  <time>2026-09-01T01:17:25Z</time>
  <course>188.39</course>
  <speed>0.0</speed>
  <fix>3d</fix>
</trkpt>
<trkpt lat="33.810313" lon="-118.393867">
  <ele>-0.12</ele>
  <time>2026-09-01T01:17:25Z</time>
  <course>0.0</course>
  <speed>0.0</speed>
  <fix>3d</fix>
</trkpt>
<trkpt lat="33.810313" lon="-118.393867">
  <ele>0.0</ele>
  <time>2026-09-01T01:17:25Z</time>
  <course>188.41</course>
  <speed>0.0</speed>
  <fix>3d</fix>
</trkpt>
<trkpt lat="33.810313" lon="-118.393867">
  <ele>-0.12</ele>
  <time>2026-09-01T01:17:25Z</time>
  <course>0.0</course>
  <speed>0.0</speed>
  <fix>3d</fix>
</trkpt>
<trkpt lat="33.810313" lon="-118.393867">
  <ele>0.0</ele>
  <time>2026-09-01T01:17:25Z</time>
  <course>188.42</course>
  <speed>0.0</speed>
  <fix>3d</fix>
</trkpt>
<trkpt lat="33.810313" lon="-118.393867">
  <ele>-0.12</ele>
  <time>2026-09-01T01:17:25Z</time>
  <course>0.0</course>
  <speed>0.0</speed>
  <fix>3d</fix>
</trkpt>
<trkpt lat="33.810313" lon="-118.393867">
  <ele>0.0</ele>
  <time>2026-09-01T01:17:25Z</time>
  <course>188.44</course>
  <speed>0.0</speed>
  <fix>3d</fix>
</trkpt>
<trkpt lat="33.810313" lon="-118.393867">
  <ele>-0.12</ele>
  <time>2026-09-01T01:17:25Z</time>
  <course>0.0</course>
  <speed>0.0</speed>
  <fix>3d</fix>
</trkpt>
<trkpt lat="33.810313" lon="-118.393867">
  <ele>0.0</ele>
  <time>2026-09-01T01:17:25Z</time>
  <course>188.45</course>
  <speed>0.0</speed>
  <fix>3d</fix>
</trkpt>
<trkpt lat="33.810313" lon="-118.393867">
  <ele>-0.13</ele>
  <time>2026-09-01T01:17:25Z</time>
  <course>0.0</course>
  <speed>0.0</speed>
  <fix>3d</fix>
</trkpt>
<trkpt lat="33.810313" lon="-118.393867">
  <ele>0.0</ele>
  <time>2026-09-01T01:17:25Z</time>
  <course>188.46</course>
  <speed>0.0</speed>
  <fix>3d</fix>
</trkpt>
<trkpt lat="33.810313" lon="-118.393867">
  <ele>-0.13</ele>
  <time>2026-09-01T01:17:25Z</time>
  <course>0.0</course>
  <speed>0.0</speed>
  <fix>3d</fix>
</trkpt>
<trkpt lat="33.810313" lon="-118.393867">
  <ele>0.0</ele>
  <time>2026-09-01T01:17:25Z</time>
  <course>188.47</course>
  <speed>0.0</speed>
  <fix>3d</fix>
</trkpt>
<trkpt lat="33.810313" lon="-118.393867">
  <ele>-0.13</ele>
  <time>2026-09-01T01:17:25Z</time>
  <course>0.0</course>
  <speed>0.0</speed>
  <fix>3d</fix>
</trkpt>
<trkpt lat="33.810313" lon="-118.393867">
  <ele>0.0</ele>
  <time>2026-09-01T01:17:25Z</time>
  <course>188.48</course>
  <speed>0.0</speed>
  <fix>3d</fix>
</trkpt>
<trkpt lat="33.810313" lon="-118.393867">
  <ele>-0.13</ele>
  <time>2026-09-01T01:17:25Z</time>
  <course>0.0</course>
  <speed>0.0</speed>
  <fix>3d</fix>
</trkpt>
<trkpt lat="33.810313" lon="-118.393867">
  <ele>0.0</ele>
  <time>2026-09-01T01:17:25Z</time>
  <course>188.49</course>
  <speed>0.0</speed>
  <fix>3d</fix>
</trkpt>
<trkpt lat="33.810313" lon="-118.393867">
  <ele>-0.13</ele>
  <time>2026-09-01T01:17:25Z</time>
  <course>0.0</course>
  <speed>0.0</speed>
  <fix>3d</fix>
</trkpt>
<trkpt lat="33.810313" lon="-118.393867">
  <ele>0.0</ele>
  <time>2026-09-01T01:17:25Z</time>
  <course>188.5</course>
  <speed>0.0</speed>
  <fix>3d</fix>
</trkpt>
<trkpt lat="33.810313" lon="-118.393867">
  <ele>-0.13</ele>
  <time>2026-09-01T01:17:25Z</time>
  <course>0.0</course>
  <speed>0.0</speed>
  <fix>3d</fix>
</trkpt>
<trkpt lat="33.810313" lon="-118.393867">
  <ele>0.0</ele>
  <time>2026-09-01T01:17:25Z</time>
  <course>188.51</course>
  <speed>0.0</speed>
  <fix>3d</fix>
</trkpt>
<trkpt lat="33.810313" lon="-118.393867">
  <ele>-0.12</ele>
  <time>2026-09-01T01:17:25Z</time>
  <course>0.0</course>
  <speed>0.0</speed>
  <fix>3d</fix>
</trkpt>
<trkpt lat="33.810313" lon="-118.393867">
  <ele>0.0</ele>
  <time>2026-09-01T01:17:25Z</time>
  <course>188.52</course>
  <speed>0.0</speed>
  <fix>3d</fix>
</trkpt>
<trkpt lat="33.810313" lon="-118.393867">
  <ele>-0.12</ele>
  <time>2026-09-01T01:17:25Z</time>
  <course>0.0</course>
  <speed>0.0</speed>
  <fix>3d</fix>
</trkpt>
<trkpt lat="33.810313" lon="-118.393867">
  <ele>0.0</ele>
  <time>2026-09-01T01:17:25Z</time>
  <course>188.53</course>
  <speed>0.0</speed>
  <fix>3d</fix>
</trkpt>
<trkpt lat="33.810313" lon="-118.393867">
  <ele>-0.12</ele>
  <time>2026-09-01T01:17:25Z</time>
  <course>0.0</course>
  <speed>0.0</speed>
  <fix>3d</fix>
</trkpt>
<trkpt lat="33.810313" lon="-118.393867">
  <ele>0.0</ele>
  <time>2026-09-01T01:17:25Z</time>
  <course>188.53</course>
  <speed>0.0</speed>
  <fix>3d</fix>
</trkpt>
<trkpt lat="33.810313" lon="-118.393867">
  <ele>-0.12</ele>
  <time>2026-09-01T01:17:25Z</time>
  <course>0.0</course>
  <speed>0.0</speed>
  <fix>3d</fix>
</trkpt>
<trkpt lat="33.810313" lon="-118.393867">
  <ele>0.0</ele>
  <time>2026-09-01T01:17:25Z</time>
  <course>188.54</course>
  <speed>0.0</speed>
  <fix>3d</fix>
</trkpt>
<trkpt lat="33.810313" lon="-118.393867">
  <ele>-0.12</ele>
  <time>2026-09-01T01:17:25Z</time>
  <course>0.0</course>
  <speed>0.0</speed>
  <fix>3d</fix>
</trkpt>
<trkpt lat="33.810313" lon="-118.393867">
  <ele>0.0</ele>
  <time>2026-09-01T01:17:25Z</time>
  <course>188.54</course>
  <speed>0.0</speed>
  <fix>3d</fix>
</trkpt>
<trkpt lat="33.810313" lon="-118.393867">
  <ele>-0.12</ele>
  <time>2026-09-01T01:17:25Z</time>
  <course>0.0</course>
  <speed>0.0</speed>
  <fix>3d</fix>
</trkpt>
<trkpt lat="33.810313" lon="-118.393867">
  <ele>0.0</ele>
  <time>2026-09-01T01:17:25Z</time>
  <course>188.54</course>
  <speed>0.0</speed>
  <fix>3d</fix>
</trkpt>
<trkpt lat="33.810313" lon="-118.393867">
  <ele>-0.12</ele>
  <time>2026-09-01T01:17:25Z</time>
  <course>0.0</course>
  <speed>0.0</speed>
  <fix>3d</fix>
</trkpt>
<trkpt lat="33.810313" lon="-118.393867">
  <ele>0.0</ele>
  <time>2026-09-01T01:17:25Z</time>
  <course>188.55</course>
  <speed>0.0</speed>
  <fix>3d</fix>
</trkpt>
<trkpt lat="33.810313" lon="-118.393867">
  <ele>-0.12</ele>
  <time>2026-09-01T01:17:25Z</time>
  <course>0.0</course>
  <speed>0.0</speed>
  <fix>3d</fix>
</trkpt>
<trkpt lat="33.810313" lon="-118.393867">
  <ele>0.0</ele>
  <time>2026-09-01T01:17:25Z</time>
  <course>188.55</course>
  <speed>0.0</speed>
  <fix>3d</fix>
</trkpt>
<trkpt lat="33.810313" lon="-118.393867">
  <ele>-0.12</ele>
  <time>2026-09-01T01:17:25Z</time>
  <course>0.0</course>
  <speed>0.0</speed>
  <fix>3d</fix>
</trkpt>
<trkpt lat="33.810313" lon="-118.393867">
  <ele>0.0</ele>
  <time>2026-09-01T01:17:25Z</time>
  <course>188.55</course>
  <speed>0.0</speed>
  <fix>3d</fix>
</trkpt>
<trkpt lat="33.810313" lon="-118.393867">
  <ele>-0.12</ele>
  <time>2026-09-01T01:17:25Z</time>
  <course>0.0</course>
  <speed>0.0</speed>
  <fix>3d</fix>
</trkpt>
<trkpt lat="33.810313" lon="-118.393867">
  <ele>-0.126</ele>
  <time>2026-09-01T01:17:25Z</time>
  <course>188.55</course>
  <speed>0.0</speed>
  <fix>3d</fix>
</trkpt>
<trkpt lat="33.810313" lon="-118.393867">
  <ele>-0.13</ele>
  <time>2026-09-01T01:17:25Z</time>
  <course>0.0</course>
  <speed>0.0</speed>
  <fix>3d</fix>
</trkpt>
<trkpt lat="33.810313" lon="-118.393867">
  <ele>-0.126</ele>
  <time>2026-09-01T01:17:25Z</time>
  <course>188.56</course>
  <speed>0.0</speed>
  <fix>3d</fix>
</trkpt>
<trkpt lat="33.810313" lon="-118.393867">
  <ele>-0.13</ele>
  <time>2026-09-01T01:17:25Z</time>
  <course>0.0</course>
  <speed>0.0</speed>
  <fix>3d</fix>
</trkpt>
<trkpt lat="33.810313" lon="-118.393867">
  <ele>-0.125</ele>
  <time>2026-09-01T01:17:25Z</time>
  <course>188.56</course>
  <speed>0.0</speed>
  <fix>3d</fix>
</trkpt>
<trkpt lat="33.810313" lon="-118.393867">
  <ele>-0.13</ele>
  <time>2026-09-01T01:17:25Z</time>
  <course>0.0</course>
  <speed>0.0</speed>
  <fix>3d</fix>
</trkpt>
<trkpt lat="33.810313" lon="-118.393867">
  <ele>-0.123</ele>
  <time>2026-09-01T01:17:25Z</time>
  <course>188.56</course>
  <speed>0.0</speed>
  <fix>3d</fix>
</trkpt>
<trkpt lat="33.810313" lon="-118.393867">
  <ele>-0.13</ele>
  <time>2026-09-01T01:17:25Z</time>
  <course>0.0</course>
  <speed>0.0</speed>
  <fix>3d</fix>
</trkpt>
<trkpt lat="33.810313" lon="-118.393867">
  <ele>-0.121</ele>
  <time>2026-09-01T01:17:25Z</time>
  <course>188.56</course>
  <speed>0.0</speed>
  <fix>3d</fix>
</trkpt>
<trkpt lat="33.810313" lon="-118.393867">
  <ele>-0.12</ele>
  <time>2026-09-01T01:17:25Z</time>
  <course>0.0</course>
  <speed>0.0</speed>
  <fix>3d</fix>
</trkpt>
<trkpt lat="33.810313" lon="-118.393867">
  <ele>-0.12</ele>
  <time>2026-09-01T01:17:25Z</time>
  <course>188.56</course>
  <speed>0.0</speed>
  <fix>3d</fix>
</trkpt>
<trkpt lat="33.810313" lon="-118.393867">
  <ele>-0.12</ele>
  <time>2026-09-01T01:17:25Z</time>
  <course>0.0</course>
  <speed>0.0</speed>
  <fix>3d</fix>
</trkpt>
<trkpt lat="33.810313" lon="-118.393867">
  <ele>-0.119</ele>
  <time>2026-09-01T01:17:25Z</time>
  <course>188.56</course>
  <speed>0.0</speed>
  <fix>3d</fix>
</trkpt>
<trkpt lat="33.810313" lon="-118.393867">
  <ele>-0.12</ele>
  <time>2026-09-01T01:17:25Z</time>
  <course>0.0</course>
  <speed>0.0</speed>
  <fix>3d</fix>
</trkpt>
<trkpt lat="33.810313" lon="-118.393867">
  <ele>-0.12</ele>
  <time>2026-09-01T01:17:25Z</time>
  <course>188.56</course>
  <speed>0.0</speed>
  <fix>3d</fix>
</trkpt>
<trkpt lat="33.810313" lon="-118.393867">
  <ele>-0.12</ele>
  <time>2026-09-01T01:17:25Z</time>
  <course>0.0</course>
  <speed>0.0</speed>
  <fix>3d</fix>
</trkpt>
<trkpt lat="33.810313" lon="-118.393867">
  <ele>-0.123</ele>
  <time>2026-09-01T01:17:25Z</time>
  <course>188.55</course>
  <speed>0.0</speed>
  <fix>3d</fix>
</trkpt>
<trkpt lat="33.810313" lon="-118.393867">
  <ele>-0.12</ele>
  <time>2026-09-01T01:17:25Z</time>
  <course>0.0</course>
  <speed>0.0</speed>
  <fix>3d</fix>
</trkpt>
<trkpt lat="33.810313" lon="-118.393867">
  <ele>-0.127</ele>
  <time>2026-09-01T01:17:25Z</time>
  <course>188.55</course>
  <speed>0.0</speed>
  <fix>3d</fix>
</trkpt>
<trkpt lat="33.810313" lon="-118.393867">
  <ele>-0.12</ele>
  <time>2026-09-01T01:17:25Z</time>
  <course>0.0</course>
  <speed>0.0</speed>
  <fix>3d</fix>
</trkpt>
<trkpt lat="33.810313" lon="-118.393867">
  <ele>-0.13</ele>
  <time>2026-09-01T01:17:25Z</time>
  <course>188.55</course>
  <speed>0.0</speed>
  <fix>3d</fix>
</trkpt>
<trkpt lat="33.810313" lon="-118.393867">
  <ele>-0.12</ele>
  <time>2026-09-01T01:17:25Z</time>
  <course>0.0</course>
  <speed>0.0</speed>
  <fix>3d</fix>
</trkpt>
<trkpt lat="33.810313" lon="-118.393867">
  <ele>-0.132</ele>
  <time>2026-09-01T01:17:25Z</time>
  <course>188.55</course>
  <speed>0.0</speed>
  <fix>3d</fix>
</trkpt>
<trkpt lat="33.810313" lon="-118.393867">
  <ele>-0.12</ele>
  <time>2026-09-01T01:17:25Z</time>
  <course>0.0</course>
  <speed>0.0</speed>
  <fix>3d</fix>
</trkpt>
<trkpt lat="33.810313" lon="-118.393867">
  <ele>-0.132</ele>
  <time>2026-09-01T01:17:25Z</time>
  <course>188.55</course>
  <speed>0.0</speed>
  <fix>3d</fix>
</trkpt>
<trkpt lat="33.810313" lon="-118.393867">
  <ele>-0.12</ele>
  <time>2026-09-01T01:17:25Z</time>
  <course>0.0</course>
  <speed>0.0</speed>
  <fix>3d</fix>
</trkpt>
<trkpt lat="33.810313" lon="-118.393867">
  <ele>-0.132</ele>
  <time>2026-09-01T01:17:25Z</time>
  <course>188.55</course>
  <speed>0.0</speed>
  <fix>3d</fix>
</trkpt>
<trkpt lat="33.810313" lon="-118.393867">
  <ele>-0.12</ele>
  <time>2026-09-01T01:17:25Z</time>
  <course>0.0</course>
  <speed>0.0</speed>
  <fix>3d</fix>
</trkpt>
<trkpt lat="33.810313" lon="-118.393867">
  <ele>-0.132</ele>
  <time>2026-09-01T01:17:25Z</time>
  <course>188.55</course>
  <speed>0.0</speed>
  <fix>3d</fix>
</trkpt>
<trkpt lat="33.810313" lon="-118.393867">
  <ele>-0.12</ele>
  <time>2026-09-01T01:17:25Z</time>
  <course>0.0</course>
  <speed>0.0</speed>
  <fix>3d</fix>
</trkpt>
<trkpt lat="33.810313" lon="-118.393867">
  <ele>-0.131</ele>
  <time>2026-09-01T01:17:25Z</time>
  <course>188.55</course>
  <speed>0.0</speed>
  <fix>3d</fix>
</trkpt>
<trkpt lat="33.810313" lon="-118.393867">
  <ele>-0.12</ele>
  <time>2026-09-01T01:17:25Z</time>
  <course>0.0</course>
  <speed>0.0</speed>
  <fix>3d</fix>
</trkpt>
<trkpt lat="33.810313" lon="-118.393867">
  <ele>-0.129</ele>
  <time>2026-09-01T01:17:25Z</time>
  <course>188.54</course>
  <speed>0.0</speed>
  <fix>3d</fix>
</trkpt>
<trkpt lat="33.810313" lon="-118.393867">
  <ele>-0.13</ele>
  <time>2026-09-01T01:17:25Z</time>
  <course>0.0</course>
  <speed>0.0</speed>
  <fix>3d</fix>
</trkpt>
<trkpt lat="33.810313" lon="-118.393867">
  <ele>-0.128</ele>
  <time>2026-09-01T01:17:25Z</time>
  <course>188.54</course>
  <speed>0.0</speed>
  <fix>3d</fix>
</trkpt>
<trkpt lat="33.810313" lon="-118.393867">
  <ele>-0.13</ele>
  <time>2026-09-01T01:17:25Z</time>
  <course>0.0</course>
  <speed>0.0</speed>
  <fix>3d</fix>
</trkpt>
<trkpt lat="33.810313" lon="-118.393867">
  <ele>-0.125</ele>
  <time>2026-09-01T01:17:25Z</time>
  <course>188.53</course>
  <speed>0.0</speed>
  <fix>3d</fix>
</trkpt>
<trkpt lat="33.810313" lon="-118.393867">
  <ele>-0.12</ele>
  <time>2026-09-01T01:17:25Z</time>
  <course>0.0</course>
  <speed>0.0</speed>
  <fix>3d</fix>
</trkpt>
<trkpt lat="33.810313" lon="-118.393867">
  <ele>-0.123</ele>
  <time>2026-09-01T01:17:25Z</time>
  <course>188.53</course>
  <speed>0.0</speed>
  <fix>3d</fix>
</trkpt>
<trkpt lat="33.810313" lon="-118.393867">
  <ele>-0.12</ele>
  <time>2026-09-01T01:17:25Z</time>
  <course>0.0</course>
  <speed>0.0</speed>
  <fix>3d</fix>
</trkpt>
<trkpt lat="33.810313" lon="-118.393867">
  <ele>-0.121</ele>
  <time>2026-09-01T01:17:25Z</time>
  <course>188.52</course>
  <speed>0.0</speed>
  <fix>3d</fix>
</trkpt>
<trkpt lat="33.810313" lon="-118.393867">
  <ele>-0.12</ele>
  <time>2026-09-01T01:17:25Z</time>
  <course>0.0</course>
  <speed>0.0</speed>
  <fix>3d</fix>
</trkpt>
<trkpt lat="33.810313" lon="-118.393867">
  <ele>-0.121</ele>
  <time>2026-09-01T01:17:25Z</time>
  <course>188.52</course>
  <speed>0.0</speed>
  <fix>3d</fix>
</trkpt>
<trkpt lat="33.810313" lon="-118.393867">
  <ele>-0.12</ele>
  <time>2026-09-01T01:17:25Z</time>
  <course>0.0</course>
  <speed>0.0</speed>
  <fix>3d</fix>
</trkpt>
<trkpt lat="33.810313" lon="-118.393867">
  <ele>-0.121</ele>
  <time>2026-09-01T01:17:25Z</time>
  <course>188.51</course>
  <speed>0.0</speed>
  <fix>3d</fix>
</trkpt>
<trkpt lat="33.810313" lon="-118.393867">
  <ele>-0.12</ele>
  <time>2026-09-01T01:17:25Z</time>
  <course>0.0</course>
  <speed>0.0</speed>
  <fix>3d</fix>
</trkpt>
<trkpt lat="33.810313" lon="-118.393867">
  <ele>-0.123</ele>
  <time>2026-09-01T01:17:25Z</time>
  <course>188.51</course>
  <speed>0.0</speed>
  <fix>3d</fix>
</trkpt>
<trkpt lat="33.810313" lon="-118.393867">
  <ele>-0.12</ele>
  <time>2026-09-01T01:17:25Z</time>
  <course>0.0</course>
  <speed>0.0</speed>
  <fix>3d</fix>
</trkpt>
<trkpt lat="33.810313" lon="-118.393867">
  <ele>-0.126</ele>
  <time>2026-09-01T01:17:25Z</time>
  <course>188.5</course>
  <speed>0.0</speed>
  <fix>3d</fix>
</trkpt>
<trkpt lat="33.810313" lon="-118.393867">
  <ele>-0.12</ele>
  <time>2026-09-01T01:17:25Z</time>
  <course>0.0</course>
  <speed>0.0</speed>
  <fix>3d</fix>
</trkpt>
<trkpt lat="33.810313" lon="-118.393867">
  <ele>-0.127</ele>
  <time>2026-09-01T01:17:25Z</time>
  <course>188.5</course>
  <speed>0.0</speed>
  <fix>3d</fix>
</trkpt>
<trkpt lat="33.810313" lon="-118.393867">
  <ele>-0.12</ele>
  <time>2026-09-01T01:17:25Z</time>
  <course>0.0</course>
  <speed>0.0</speed>
  <fix>3d</fix>
</trkpt>
<trkpt lat="33.810313" lon="-118.393867">
  <ele>-0.128</ele>
  <time>2026-09-01T01:17:25Z</time>
  <course>188.49</course>
  <speed>0.0</speed>
  <fix>3d</fix>
</trkpt>
<trkpt lat="33.810313" lon="-118.393867">
  <ele>-0.12</ele>
  <time>2026-09-01T01:17:25Z</time>
  <course>0.0</course>
  <speed>0.0</speed>
  <fix>3d</fix>
</trkpt>
<trkpt lat="33.810313" lon="-118.393867">
  <ele>-0.127</ele>
  <time>2026-09-01T01:17:25Z</time>
  <course>188.49</course>
  <speed>0.0</speed>
  <fix>3d</fix>
</trkpt>
<trkpt lat="33.810313" lon="-118.393867">
  <ele>-0.12</ele>
  <time>2026-09-01T01:17:25Z</time>
  <course>0.0</course>
  <speed>0.0</speed>
  <fix>3d</fix>
</trkpt>
<trkpt lat="33.810313" lon="-118.393867">
  <ele>-0.127</ele>
  <time>2026-09-01T01:17:25Z</time>
  <course>188.48</course>
  <speed>0.0</speed>
  <fix>3d</fix>
</trkpt>
<trkpt lat="33.810313" lon="-118.393867">
  <ele>-0.12</ele>
  <time>2026-09-01T01:17:25Z</time>
  <course>0.0</course>
  <speed>0.0</speed>
  <fix>3d</fix>
</trkpt>
<trkpt lat="33.810313" lon="-118.393867">
  <ele>-0.127</ele>
  <time>2026-09-01T01:17:25Z</time>
  <course>188.47</course>
  <speed>0.01</speed>
  <fix>3d</fix>
</trkpt>
<trkpt lat="33.810313" lon="-118.393867">
  <ele>-0.12</ele>
  <time>2026-09-01T01:17:25Z</time>
  <course>0.0</course>
  <speed>0.0</speed>
  <fix>3d</fix>
</trkpt>
<trkpt lat="33.810313" lon="-118.393867">
  <ele>-0.127</ele>
  <time>2026-09-01T01:17:25Z</time>
  <course>188.47</course>
  <speed>0.01</speed>
  <fix>3d</fix>
</trkpt>
<trkpt lat="33.810313" lon="-118.393867">
  <ele>-0.12</ele>
  <time>2026-09-01T01:17:25Z</time>
  <course>0.0</course>
  <speed>0.0</speed>
  <fix>3d</fix>
</trkpt>
<trkpt lat="33.810313" lon="-118.393867">
  <ele>-0.127</ele>
  <time>2026-09-01T01:17:25Z</time>
  <course>188.46</course>
  <speed>0.01</speed>
  <fix>3d</fix>
</trkpt>
<trkpt lat="33.810313" lon="-118.393867">
  <ele>-0.12</ele>
  <time>2026-09-01T01:17:25Z</time>
  <course>0.0</course>
  <speed>0.0</speed>
  <fix>3d</fix>
</trkpt>
<trkpt lat="33.810313" lon="-118.393867">
  <ele>-0.126</ele>
  <time>2026-09-01T01:17:25Z</time>
  <course>188.45</course>
  <speed>0.01</speed>
  <fix>3d</fix>
</trkpt>
<trkpt lat="33.810313" lon="-118.393867">
  <ele>-0.12</ele>
  <time>2026-09-01T01:17:25Z</time>
  <course>0.0</course>
  <speed>0.0</speed>
  <fix>3d</fix>
</trkpt>
<trkpt lat="33.810313" lon="-118.393867">
  <ele>-0.126</ele>
  <time>2026-09-01T01:17:25Z</time>
  <course>188.45</course>
  <speed>0.01</speed>
  <fix>3d</fix>
</trkpt>
<trkpt lat="33.810313" lon="-118.393867">
  <ele>-0.12</ele>
  <time>2026-09-01T01:17:25Z</time>
  <course>0.0</course>
  <speed>0.0</speed>
  <fix>3d</fix>
</trkpt>
<trkpt lat="33.810313" lon="-118.393867">
  <ele>-0.125</ele>
  <time>2026-09-01T01:17:25Z</time>
  <course>188.44</course>
  <speed>0.01</speed>
  <fix>3d</fix>
</trkpt>
<trkpt lat="33.810313" lon="-118.393867">
  <ele>-0.12</ele>
  <time>2026-09-01T01:17:25Z</time>
  <course>0.0</course>
  <speed>0.0</speed>
  <fix>3d</fix>
</trkpt>
<trkpt lat="33.810313" lon="-118.393867">
  <ele>-0.126</ele>
  <time>2026-09-01T01:17:25Z</time>
  <course>188.43</course>
  <speed>0.01</speed>
  <fix>3d</fix>
</trkpt>
<trkpt lat="33.810313" lon="-118.393867">
  <ele>-0.12</ele>
  <time>2026-09-01T01:17:25Z</time>
  <course>0.0</course>
  <speed>0.0</speed>
  <fix>3d</fix>
</trkpt>
<trkpt lat="33.810313" lon="-118.393867">
  <ele>-0.127</ele>
  <time>2026-09-01T01:17:25Z</time>
  <course>188.42</course>
  <speed>0.01</speed>
  <fix>3d</fix>
</trkpt>
<trkpt lat="33.810313" lon="-118.393867">
  <ele>-0.12</ele>
  <time>2026-09-01T01:17:25Z</time>
  <course>0.0</course>
  <speed>0.0</speed>
  <fix>3d</fix>
</trkpt>
<trkpt lat="33.810313" lon="-118.393867">
  <ele>-0.128</ele>
  <time>2026-09-01T01:17:25Z</time>
  <course>188.42</course>
  <speed>0.01</speed>
  <fix>3d</fix>
</trkpt>
<trkpt lat="33.810313" lon="-118.393867">
  <ele>-0.12</ele>
  <time>2026-09-01T01:17:25Z</time>
  <course>0.0</course>
  <speed>0.0</speed>
  <fix>3d</fix>
</trkpt>
<trkpt lat="33.810313" lon="-118.393867">
  <ele>-0.129</ele>
  <time>2026-09-01T01:17:25Z</time>
  <course>188.41</course>
  <speed>0.01</speed>
  <fix>3d</fix>
</trkpt>
<trkpt lat="33.810313" lon="-118.393867">
  <ele>-0.12</ele>
  <time>2026-09-01T01:17:25Z</time>
  <course>0.0</course>
  <speed>0.0</speed>
  <fix>3d</fix>
</trkpt>
<trkpt lat="33.810313" lon="-118.393867">
  <ele>-0.129</ele>
  <time>2026-09-01T01:17:25Z</time>
  <course>188.4</course>
  <speed>0.01</speed>
  <fix>3d</fix>
</trkpt>
<trkpt lat="33.810313" lon="-118.393867">
  <ele>-0.12</ele>
  <time>2026-09-01T01:17:25Z</time>
  <course>0.0</course>
  <speed>0.0</speed>
  <fix>3d</fix>
</trkpt>
<trkpt lat="33.810313" lon="-118.393867">
  <ele>-0.13</ele>
  <time>2026-09-01T01:17:25Z</time>
  <course>188.4</course>
  <speed>0.01414213562373095</speed>
  <fix>3d</fix>
</trkpt>
<trkpt lat="33.810313" lon="-118.393867">
  <ele>-0.12</ele>
  <time>2026-09-01T01:17:25Z</time>
  <course>0.0</course>
  <speed>0.0</speed>
  <fix>3d</fix>
</trkpt>
<trkpt lat="33.810313" lon="-118.393867">
  <ele>-0.13</ele>
  <time>2026-09-01T01:17:25Z</time>
  <course>188.39</course>
  <speed>0.01414213562373095</speed>
  <fix>3d</fix>
</trkpt>
<trkpt lat="33.810313" lon="-118.393867">
  <ele>-0.12</ele>
  <time>2026-09-01T01:17:25Z</time>
  <course>0.0</course>
  <speed>0.0</speed>
  <fix>3d</fix>
</trkpt>
<trkpt lat="33.810313" lon="-118.393867">
  <ele>-0.13</ele>
  <time>2026-09-01T01:17:25Z</time>
  <course>188.38</course>
  <speed>0.01414213562373095</speed>
  <fix>3d</fix>
</trkpt>
<trkpt lat="33.810313" lon="-118.393867">
  <ele>-0.12</ele>
  <time>2026-09-01T01:17:25Z</time>
  <course>0.0</course>
  <speed>0.0</speed>
  <fix>3d</fix>
</trkpt>
<trkpt lat="33.810313" lon="-118.393867">
  <ele>-0.129</ele>
  <time>2026-09-01T01:17:25Z</time>
  <course>188.37</course>
  <speed>0.01414213562373095</speed>
  <fix>3d</fix>
</trkpt>
<trkpt lat="33.810313" lon="-118.393867">
  <ele>-0.12</ele>
  <time>2026-09-01T01:17:25Z</time>
  <course>0.0</course>
  <speed>0.0</speed>
  <fix>3d</fix>
</trkpt>
<trkpt lat="33.810313" lon="-118.393867">
  <ele>-0.128</ele>
  <time>2026-09-01T01:17:25Z</time>
  <course>188.37</course>
  <speed>0.01414213562373095</speed>
  <fix>3d</fix>
</trkpt>
<trkpt lat="33.810313" lon="-118.393867">
  <ele>-0.12</ele>
  <time>2026-09-01T01:17:25Z</time>
  <course>0.0</course>
  <speed>0.0</speed>
  <fix>3d</fix>
</trkpt>
<trkpt lat="33.810313" lon="-118.393867">
  <ele>-0.126</ele>
  <time>2026-09-01T01:17:25Z</time>
  <course>188.36</course>
  <speed>0.01414213562373095</speed>
  <fix>3d</fix>
</trkpt>
<trkpt lat="33.810313" lon="-118.393867">
  <ele>-0.12</ele>
  <time>2026-09-01T01:17:25Z</time>
  <course>0.0</course>
  <speed>0.0</speed>
  <fix>3d</fix>
</trkpt>
<trkpt lat="33.810313" lon="-118.393867">
  <ele>-0.124</ele>
  <time>2026-09-01T01:17:25Z</time>
  <course>188.35</course>
  <speed>0.01414213562373095</speed>
  <fix>3d</fix>
</trkpt>
<trkpt lat="33.810313" lon="-118.393867">
  <ele>-0.12</ele>
  <time>2026-09-01T01:17:25Z</time>
  <course>0.0</course>
  <speed>0.0</speed>
  <fix>3d</fix>
</trkpt>
<trkpt lat="33.810313" lon="-118.393867">
  <ele>-0.122</ele>
  <time>2026-09-01T01:17:25Z</time>
  <course>188.34</course>
  <speed>0.01414213562373095</speed>
  <fix>3d</fix>
</trkpt>
<trkpt lat="33.810313" lon="-118.393867">
  <ele>-0.12</ele>
  <time>2026-09-01T01:17:25Z</time>
  <course>0.0</course>
  <speed>0.0</speed>
  <fix>3d</fix>
</trkpt>
<trkpt lat="33.810313" lon="-118.393867">
  <ele>-0.123</ele>
  <time>2026-09-01T01:17:25Z</time>
  <course>188.34</course>
  <speed>0.01414213562373095</speed>
  <fix>3d</fix>
</trkpt>
<trkpt lat="33.810313" lon="-118.393867">
  <ele>-0.12</ele>
  <time>2026-09-01T01:17:25Z</time>
  <course>0.0</course>
  <speed>0.0</speed>
  <fix>3d</fix>
</trkpt>
<trkpt lat="33.810313" lon="-118.393867">
  <ele>-0.125</ele>
  <time>2026-09-01T01:17:25Z</time>
  <course>188.33</course>
  <speed>0.01414213562373095</speed>
  <fix>3d</fix>
</trkpt>
<trkpt lat="33.810313" lon="-118.393867">
  <ele>-0.12</ele>
  <time>2026-09-01T01:17:25Z</time>
  <course>0.0</course>
  <speed>0.0</speed>
  <fix>3d</fix>
</trkpt>
<trkpt lat="33.810313" lon="-118.393867">
  <ele>-0.128</ele>
  <time>2026-09-01T01:17:25Z</time>
  <course>188.32</course>
  <speed>0.01414213562373095</speed>
  <fix>3d</fix>
</trkpt>
<trkpt lat="33.810313" lon="-118.393867">
  <ele>-0.12</ele>
  <time>2026-09-01T01:17:25Z</time>
  <course>0.0</course>
  <speed>0.0</speed>
  <fix>3d</fix>
</trkpt>
<trkpt lat="33.810313" lon="-118.393867">
  <ele>-0.131</ele>
  <time>2026-09-01T01:17:25Z</time>
  <course>188.31</course>
  <speed>0.01414213562373095</speed>
  <fix>3d</fix>
</trkpt>
<trkpt lat="33.810313" lon="-118.393867">
  <ele>-0.12</ele>
  <time>2026-09-01T01:17:25Z</time>
  <course>0.0</course>
  <speed>0.0</speed>
  <fix>3d</fix>
</trkpt>
<trkpt lat="33.810313" lon="-118.393867">
  <ele>-0.134</ele>
  <time>2026-09-01T01:17:25Z</time>
  <course>188.3</course>
  <speed>0.01414213562373095</speed>
  <fix>3d</fix>
</trkpt>
<trkpt lat="33.810313" lon="-118.393867">
  <ele>-0.12</ele>
  <time>2026-09-01T01:17:25Z</time>
  <course>0.0</course>
  <speed>0.0</speed>
  <fix>3d</fix>
</trkpt>
<trkpt lat="33.810313" lon="-118.393867">
  <ele>-0.135</ele>
  <time>2026-09-01T01:17:25Z</time>
  <course>188.3</course>
  <speed>0.01414213562373095</speed>
  <fix>3d</fix>
</trkpt>
<trkpt lat="33.810313" lon="-118.393867">
  <ele>-0.12</ele>
  <time>2026-09-01T01:17:25Z</time>
  <course>0.0</course>
  <speed>0.0</speed>
  <fix>3d</fix>
</trkpt>
<trkpt lat="33.810313" lon="-118.393867">
  <ele>-0.134</ele>
  <time>2026-09-01T01:17:25Z</time>
  <course>188.29</course>
  <speed>0.01414213562373095</speed>
  <fix>3d</fix>
</trkpt>
<trkpt lat="33.810313" lon="-118.393867">
  <ele>-0.12</ele>
  <time>2026-09-01T01:17:25Z</time>
  <course>0.0</course>
  <speed>0.0</speed>
  <fix>3d</fix>
</trkpt>
<trkpt lat="33.810313" lon="-118.393867">
  <ele>-0.132</ele>
  <time>2026-09-01T01:17:25Z</time>
  <course>188.28</course>
  <speed>0.01414213562373095</speed>
  <fix>3d</fix>
</trkpt>
<trkpt lat="33.810313" lon="-118.393867">
  <ele>-0.12</ele>
  <time>2026-09-01T01:17:25Z</time>
  <course>0.0</course>
  <speed>0.0</speed>
  <fix>3d</fix>
</trkpt>
<trkpt lat="33.810313" lon="-118.393867">
  <ele>-0.13</ele>
  <time>2026-09-01T01:17:25Z</time>
  <course>188.27</course>
  <speed>0.01414213562373095</speed>
  <fix>3d</fix>
</trkpt>
<trkpt lat="33.810313" lon="-118.393867">
  <ele>-0.12</ele>
  <time>2026-09-01T01:17:25Z</time>
  <course>0.0</course>
  <speed>0.0</speed>
  <fix>3d</fix>
</trkpt>
<trkpt lat="33.810313" lon="-118.393867">
  <ele>-0.127</ele>
  <time>2026-09-01T01:17:25Z</time>
  <course>188.26</course>
  <speed>0.01414213562373095</speed>
  <fix>3d</fix>
</trkpt>
<trkpt lat="33.810313" lon="-118.393867">
  <ele>-0.12</ele>
  <time>2026-09-01T01:17:25Z</time>
  <course>0.0</course>
  <speed>0.0</speed>
  <fix>3d</fix>
</trkpt>
<trkpt lat="33.810313" lon="-118.393867">
  <ele>-0.125</ele>
  <time>2026-09-01T01:17:25Z</time>
  <course>188.25</course>
  <speed>0.01414213562373095</speed>
  <fix>3d</fix>
</trkpt>
<trkpt lat="33.810313" lon="-118.393867">
  <ele>-0.12</ele>
  <time>2026-09-01T01:17:25Z</time>
  <course>0.0</course>
  <speed>0.0</speed>
  <fix>3d</fix>
</trkpt>
<trkpt lat="33.810313" lon="-118.393867">
  <ele>-0.123</ele>
  <time>2026-09-01T01:17:25Z</time>
  <course>188.25</course>
  <speed>0.01414213562373095</speed>
  <fix>3d</fix>
</trkpt>
<trkpt lat="33.810313" lon="-118.393867">
  <ele>-0.12</ele>
  <time>2026-09-01T01:17:25Z</time>
  <course>0.0</course>
  <speed>0.0</speed>
  <fix>3d</fix>
</trkpt>
<trkpt lat="33.810313" lon="-118.393867">
  <ele>-0.124</ele>
  <time>2026-09-01T01:17:25Z</time>
  <course>188.24</course>
  <speed>0.01414213562373095</speed>
  <fix>3d</fix>
</trkpt>
<trkpt lat="33.810313" lon="-118.393867">
  <ele>-0.12</ele>
  <time>2026-09-01T01:17:25Z</time>
  <course>0.0</course>
  <speed>0.0</speed>
  <fix>3d</fix>
</trkpt>
<trkpt lat="33.810313" lon="-118.393867">
  <ele>-0.125</ele>
  <time>2026-09-01T01:17:25Z</time>
  <course>188.23</course>
  <speed>0.01414213562373095</speed>
  <fix>3d</fix>
</trkpt>
<trkpt lat="33.810313" lon="-118.393867">
  <ele>-0.12</ele>
  <time>2026-09-01T01:17:25Z</time>
  <course>0.0</course>
  <speed>0.0</speed>
  <fix>3d</fix>
</trkpt>
<trkpt lat="33.810313" lon="-118.393867">
  <ele>-0.127</ele>
  <time>2026-09-01T01:17:25Z</time>
  <course>188.22</course>
  <speed>0.01414213562373095</speed>
  <fix>3d</fix>
</trkpt>
<trkpt lat="33.810313" lon="-118.393867">
  <ele>-0.12</ele>
  <time>2026-09-01T01:17:25Z</time>
  <course>0.0</course>
  <speed>0.0</speed>
  <fix>3d</fix>
</trkpt>
<trkpt lat="33.810313" lon="-118.393867">
  <ele>-0.128</ele>
  <time>2026-09-01T01:17:25Z</time>
  <course>188.21</course>
  <speed>0.01414213562373095</speed>
  <fix>3d</fix>
</trkpt>
<trkpt lat="33.810313" lon="-118.393867">
  <ele>-0.12</ele>
  <time>2026-09-01T01:17:25Z</time>
  <course>0.0</course>
  <speed>0.0</speed>
  <fix>3d</fix>
</trkpt>
<trkpt lat="33.810313" lon="-118.393867">
  <ele>-0.129</ele>
  <time>2026-09-01T01:17:25Z</time>
  <course>188.21</course>
  <speed>0.01414213562373095</speed>
  <fix>3d</fix>
</trkpt>
<trkpt lat="33.810313" lon="-118.393867">
  <ele>-0.12</ele>
  <time>2026-09-01T01:17:25Z</time>
  <course>0.0</course>
  <speed>0.0</speed>
  <fix>3d</fix>
</trkpt>
<trkpt lat="33.810313" lon="-118.393867">
  <ele>-0.129</ele>
  <time>2026-09-01T01:17:25Z</time>
  <course>188.2</course>
  <speed>0.01414213562373095</speed>
  <fix>3d</fix>
</trkpt>
<trkpt lat="33.810313" lon="-118.393867">
  <ele>-0.12</ele>
  <time>2026-09-01T01:17:25Z</time>
  <course>0.0</course>
  <speed>0.0</speed>
  <fix>3d</fix>
</trkpt>
<trkpt lat="33.810313" lon="-118.393867">
  <ele>-0.128</ele>
  <time>2026-09-01T01:17:25Z</time>
  <course>188.19</course>
  <speed>0.01414213562373095</speed>
  <fix>3d</fix>
</trkpt>
<trkpt lat="33.810313" lon="-118.393867">
  <ele>-0.12</ele>
  <time>2026-09-01T01:17:25Z</time>
  <course>0.0</course>
  <speed>0.0</speed>
  <fix>3d</fix>
</trkpt>
<trkpt lat="33.810313" lon="-118.393867">
  <ele>-0.128</ele>
  <time>2026-09-01T01:17:25Z</time>
  <course>188.18</course>
  <speed>0.01414213562373095</speed>
  <fix>3d</fix>
</trkpt>
<trkpt lat="33.810313" lon="-118.393867">
  <ele>-0.12</ele>
  <time>2026-09-01T01:17:25Z</time>
  <course>0.0</course>
  <speed>0.0</speed>
  <fix>3d</fix>
</trkpt>
<trkpt lat="33.810313" lon="-118.393867">
  <ele>-0.127</ele>
  <time>2026-09-01T01:17:25Z</time>
  <course>188.17</course>
  <speed>0.01414213562373095</speed>
  <fix>3d</fix>
</trkpt>
<trkpt lat="33.810313" lon="-118.393867">
  <ele>-0.12</ele>
  <time>2026-09-01T01:17:25Z</time>
  <course>0.0</course>
  <speed>0.0</speed>
  <fix>3d</fix>
</trkpt>
<trkpt lat="33.810313" lon="-118.393867">
  <ele>-0.127</ele>
  <time>2026-09-01T01:17:25Z</time>
  <course>188.16</course>
  <speed>0.01414213562373095</speed>
  <fix>3d</fix>
</trkpt>
<trkpt lat="33.810313" lon="-118.393867">
  <ele>-0.12</ele>
  <time>2026-09-01T01:17:25Z</time>
  <course>0.0</course>
  <speed>0.0</speed>
  <fix>3d</fix>
</trkpt>
<trkpt lat="33.810313" lon="-118.393867">
  <ele>-0.128</ele>
  <time>2026-09-01T01:17:25Z</time>
  <course>188.16</course>
  <speed>0.01414213562373095</speed>
  <fix>3d</fix>
</trkpt>
<trkpt lat="33.810313" lon="-118.393867">
  <ele>-0.12</ele>
  <time>2026-09-01T01:17:25Z</time>
  <course>0.0</course>
  <speed>0.0</speed>
  <fix>3d</fix>
</trkpt>
<trkpt lat="33.810313" lon="-118.393867">
  <ele>-0.129</ele>
  <time>2026-09-01T01:17:25Z</time>
  <course>188.15</course>
  <speed>0.01414213562373095</speed>
  <fix>3d</fix>
</trkpt>
<trkpt lat="33.810313" lon="-118.393867">
  <ele>-0.12</ele>
  <time>2026-09-01T01:17:25Z</time>
  <course>0.0</course>
  <speed>0.0</speed>
  <fix>3d</fix>
</trkpt>
<trkpt lat="33.810313" lon="-118.393867">
  <ele>-0.131</ele>
  <time>2026-09-01T01:17:25Z</time>
  <course>188.14</course>
  <speed>0.01414213562373095</speed>
  <fix>3d</fix>
</trkpt>
<trkpt lat="33.810313" lon="-118.393867">
  <ele>-0.12</ele>
  <time>2026-09-01T01:17:25Z</time>
  <course>0.0</course>
  <speed>0.0</speed>
  <fix>3d</fix>
</trkpt>
<trkpt lat="33.810313" lon="-118.393867">
  <ele>-0.133</ele>
  <time>2026-09-01T01:17:25Z</time>
  <course>188.13</course>
  <speed>0.01414213562373095</speed>
  <fix>3d</fix>
</trkpt>
<trkpt lat="33.810313" lon="-118.393867">
  <ele>-0.12</ele>
  <time>2026-09-01T01:17:25Z</time>
  <course>0.0</course>
  <speed>0.0</speed>
  <fix>3d</fix>
</trkpt>
<trkpt lat="33.810313" lon="-118.393867">
  <ele>-0.135</ele>
  <time>2026-09-01T01:17:25Z</time>
  <course>188.12</course>
  <speed>0.01414213562373095</speed>
  <fix>3d</fix>
</trkpt>
<trkpt lat="33.810313" lon="-118.393867">
  <ele>-0.12</ele>
  <time>2026-09-01T01:17:25Z</time>
  <course>0.0</course>
  <speed>0.0</speed>
  <fix>3d</fix>
</trkpt>
<trkpt lat="33.810313" lon="-118.393867">
  <ele>-0.136</ele>
  <time>2026-09-01T01:17:25Z</time>
  <course>188.12</course>
  <speed>0.01414213562373095</speed>
  <fix>3d</fix>
</trkpt>
<trkpt lat="33.810313" lon="-118.393867">
  <ele>-0.12</ele>
  <time>2026-09-01T01:17:25Z</time>
  <course>0.0</course>
  <speed>0.0</speed>
  <fix>3d</fix>
</trkpt>
<trkpt lat="33.810313" lon="-118.393867">
  <ele>-0.136</ele>
  <time>2026-09-01T01:17:25Z</time>
  <course>188.11</course>
  <speed>0.01414213562373095</speed>
  <fix>3d</fix>
</trkpt>
<trkpt lat="33.810313" lon="-118.393867">
  <ele>-0.12</ele>
  <time>2026-09-01T01:17:25Z</time>
  <course>0.0</course>
  <speed>0.0</speed>
  <fix>3d</fix>
</trkpt>
<trkpt lat="33.810313" lon="-118.393867">
  <ele>-0.136</ele>
  <time>2026-09-01T01:17:25Z</time>
  <course>188.1</course>
  <speed>0.01414213562373095</speed>
  <fix>3d</fix>
</trkpt>
<trkpt lat="33.810313" lon="-118.393867">
  <ele>-0.12</ele>
  <time>2026-09-01T01:17:25Z</time>
  <course>0.0</course>
  <speed>0.0</speed>
  <fix>3d</fix>
</trkpt>
<trkpt lat="33.810313" lon="-118.393867">
  <ele>-0.135</ele>
  <time>2026-09-01T01:17:25Z</time>
  <course>188.09</course>
  <speed>0.01414213562373095</speed>
  <fix>3d</fix>
</trkpt>
<trkpt lat="33.810313" lon="-118.393867">
  <ele>-0.12</ele>
  <time>2026-09-01T01:17:25Z</time>
  <course>0.0</course>
  <speed>0.0</speed>
  <fix>3d</fix>
</trkpt>
<trkpt lat="33.810313" lon="-118.393867">
  <ele>-0.134</ele>
  <time>2026-09-01T01:17:25Z</time>
  <course>188.08</course>
  <speed>0.01414213562373095</speed>
  <fix>3d</fix>
</trkpt>
<trkpt lat="33.810313" lon="-118.393867">
  <ele>-0.12</ele>
  <time>2026-09-01T01:17:25Z</time>
  <course>0.0</course>
  <speed>0.0</speed>
  <fix>3d</fix>
</trkpt>
<trkpt lat="33.810313" lon="-118.393867">
  <ele>-0.131</ele>
  <time>2026-09-01T01:17:25Z</time>
  <course>188.07</course>
  <speed>0.022360679774997897</speed>
  <fix>3d</fix>
</trkpt>
<trkpt lat="33.810313" lon="-118.393867">
  <ele>-0.12</ele>
  <time>2026-09-01T01:17:25Z</time>
  <course>0.0</course>
  <speed>0.0</speed>
  <fix>3d</fix>
</trkpt>
<trkpt lat="33.810313" lon="-118.393867">
  <ele>-0.128</ele>
  <time>2026-09-01T01:17:25Z</time>
  <course>188.07</course>
  <speed>0.022360679774997897</speed>
  <fix>3d</fix>
</trkpt>
<trkpt lat="33.810313" lon="-118.393867">
  <ele>-0.12</ele>
  <time>2026-09-01T01:17:25Z</time>
  <course>0.0</course>
  <speed>0.0</speed>
  <fix>3d</fix>
</trkpt>
<trkpt lat="33.810313" lon="-118.393867">
  <ele>-0.127</ele>
  <time>2026-09-01T01:17:25Z</time>
  <course>188.06</course>
  <speed>0.022360679774997897</speed>
  <fix>3d</fix>
</trkpt>
<trkpt lat="33.810313" lon="-118.393867">
  <ele>-0.12</ele>
  <time>2026-09-01T01:17:25Z</time>
  <course>0.0</course>
  <speed>0.0</speed>
  <fix>3d</fix>
</trkpt>
<trkpt lat="33.810313" lon="-118.393867">
  <ele>-0.126</ele>
  <time>2026-09-01T01:17:25Z</time>
  <course>188.05</course>
  <speed>0.022360679774997897</speed>
  <fix>3d</fix>
</trkpt>
<trkpt lat="33.810313" lon="-118.393867">
  <ele>-0.12</ele>
  <time>2026-09-01T01:17:25Z</time>
  <course>0.0</course>
  <speed>0.0</speed>
  <fix>3d</fix>
</trkpt>
<trkpt lat="33.810313" lon="-118.393867">
  <ele>-0.126</ele>
  <time>2026-09-01T01:17:25Z</time>
  <course>188.04</course>
  <speed>0.022360679774997897</speed>
  <fix>3d</fix>
</trkpt>
<trkpt lat="33.810313" lon="-118.393867">
  <ele>-0.12</ele>
  <time>2026-09-01T01:17:25Z</time>
  <course>0.0</course>
  <speed>0.0</speed>
  <fix>3d</fix>
</trkpt>
<trkpt lat="33.810313" lon="-118.393867">
  <ele>-0.127</ele>
  <time>2026-09-01T01:17:25Z</time>
  <course>188.03</course>
  <speed>0.022360679774997897</speed>
  <fix>3d</fix>
</trkpt>
<trkpt lat="33.810313" lon="-118.393867">
  <ele>-0.12</ele>
  <time>2026-09-01T01:17:25Z</time>
  <course>0.0</course>
  <speed>0.0</speed>
  <fix>3d</fix>
</trkpt>
<trkpt lat="33.810313" lon="-118.393867">
  <ele>-0.127</ele>
  <time>2026-09-01T01:17:25Z</time>
  <course>188.03</course>
  <speed>0.022360679774997897</speed>
  <fix>3d</fix>
</trkpt>
<trkpt lat="33.810313" lon="-118.393867">
  <ele>-0.12</ele>
  <time>2026-09-01T01:17:25Z</time>
  <course>0.0</course>
  <speed>0.0</speed>
  <fix>3d</fix>
</trkpt>
<trkpt lat="33.810313" lon="-118.393867">
  <ele>-0.127</ele>
  <time>2026-09-01T01:17:25Z</time>
  <course>188.02</course>
  <speed>0.022360679774997897</speed>
  <fix>3d</fix>
</trkpt>
<trkpt lat="33.810313" lon="-118.393867">
  <ele>-0.12</ele>
  <time>2026-09-01T01:17:25Z</time>
  <course>0.0</course>
  <speed>0.0</speed>
  <fix>3d</fix>
</trkpt>
<trkpt lat="33.810313" lon="-118.393867">
  <ele>-0.128</ele>
  <time>2026-09-01T01:17:25Z</time>
  <course>188.01</course>
  <speed>0.022360679774997897</speed>
  <fix>3d</fix>
</trkpt>
<trkpt lat="33.810313" lon="-118.393867">
  <ele>-0.12</ele>
  <time>2026-09-01T01:17:25Z</time>
  <course>0.0</course>
  <speed>0.0</speed>
  <fix>3d</fix>
</trkpt>
<trkpt lat="33.810313" lon="-118.393867">
  <ele>-0.128</ele>
  <time>2026-09-01T01:17:25Z</time>
  <course>188.0</course>
  <speed>0.022360679774997897</speed>
  <fix>3d</fix>
</trkpt>
<trkpt lat="33.810313" lon="-118.393867">
  <ele>-0.12</ele>
  <time>2026-09-01T01:17:25Z</time>
  <course>0.0</course>
  <speed>0.0</speed>
  <fix>3d</fix>
</trkpt>
<trkpt lat="33.810313" lon="-118.393867">
  <ele>-0.128</ele>
  <time>2026-09-01T01:17:25Z</time>
  <course>187.99</course>
  <speed>0.022360679774997897</speed>
  <fix>3d</fix>
</trkpt>
<trkpt lat="33.810313" lon="-118.393867">
  <ele>-0.12</ele>
  <time>2026-09-01T01:17:25Z</time>
  <course>0.0</course>
  <speed>0.0</speed>
  <fix>3d</fix>
</trkpt>
<trkpt lat="33.810313" lon="-118.393867">
  <ele>-0.126</ele>
  <time>2026-09-01T01:17:25Z</time>
  <course>187.99</course>
  <speed>0.022360679774997897</speed>
  <fix>3d</fix>
</trkpt>
<trkpt lat="33.810313" lon="-118.393867">
  <ele>-0.12</ele>
  <time>2026-09-01T01:17:25Z</time>
  <course>0.0</course>
  <speed>0.0</speed>
  <fix>3d</fix>
</trkpt>
<trkpt lat="33.810313" lon="-118.393867">
  <ele>-0.124</ele>
  <time>2026-09-01T01:17:25Z</time>
  <course>187.98</course>
  <speed>0.022360679774997897</speed>
  <fix>3d</fix>
</trkpt>
<trkpt lat="33.810313" lon="-118.393867">
  <ele>-0.12</ele>
  <time>2026-09-01T01:17:25Z</time>
  <course>0.0</course>
  <speed>0.0</speed>
  <fix>3d</fix>
</trkpt>
<trkpt lat="33.810313" lon="-118.393867">
  <ele>-0.122</ele>
  <time>2026-09-01T01:17:25Z</time>
  <course>187.97</course>
  <speed>0.022360679774997897</speed>
  <fix>3d</fix>
</trkpt>
<trkpt lat="33.810313" lon="-118.393867">
  <ele>-0.12</ele>
  <time>2026-09-01T01:17:25Z</time>
  <course>0.0</course>
  <speed>0.0</speed>
  <fix>3d</fix>
</trkpt>
<trkpt lat="33.810313" lon="-118.393867">
  <ele>-0.12</ele>
  <time>2026-09-01T01:17:25Z</time>
  <course>187.96</course>
  <speed>0.022360679774997897</speed>
  <fix>3d</fix>
</trkpt>
<trkpt lat="33.810313" lon="-118.393867">
  <ele>-0.12</ele>
  <time>2026-09-01T01:17:25Z</time>
  <course>0.0</course>
  <speed>0.0</speed>
  <fix>3d</fix>
</trkpt>
<trkpt lat="33.810313" lon="-118.393867">
  <ele>-0.12</ele>
  <time>2026-09-01T01:17:25Z</time>
  <course>187.95</course>
  <speed>0.022360679774997897</speed>
  <fix>3d</fix>
</trkpt>
<trkpt lat="33.810313" lon="-118.393867">
  <ele>-0.12</ele>
  <time>2026-09-01T01:17:25Z</time>
  <course>0.0</course>
  <speed>0.0</speed>
  <fix>3d</fix>
</trkpt>
<trkpt lat="33.810313" lon="-118.393867">
  <ele>-0.122</ele>
  <time>2026-09-01T01:17:25Z</time>
  <course>187.94</course>
  <speed>0.022360679774997897</speed>
  <fix>3d</fix>
</trkpt>
<trkpt lat="33.810313" lon="-118.393867">
  <ele>-0.12</ele>
  <time>2026-09-01T01:17:25Z</time>
  <course>0.0</course>
  <speed>0.0</speed>
  <fix>3d</fix>
</trkpt>
<trkpt lat="33.810313" lon="-118.393867">
  <ele>-0.125</ele>
  <time>2026-09-01T01:17:25Z</time>
  <course>187.94</course>
  <speed>0.022360679774997897</speed>
  <fix>3d</fix>
</trkpt>
<trkpt lat="33.810313" lon="-118.393867">
  <ele>-0.12</ele>
  <time>2026-09-01T01:17:25Z</time>
  <course>0.0</course>
  <speed>0.0</speed>
  <fix>3d</fix>
</trkpt>
<trkpt lat="33.810313" lon="-118.393867">
  <ele>-0.128</ele>
  <time>2026-09-01T01:17:25Z</time>
  <course>187.93</course>
  <speed>0.022360679774997897</speed>
  <fix>3d</fix>
</trkpt>
<trkpt lat="33.810313" lon="-118.393867">
  <ele>-0.12</ele>
  <time>2026-09-01T01:17:25Z</time>
  <course>0.0</course>
  <speed>0.0</speed>
  <fix>3d</fix>
</trkpt>
<trkpt lat="33.810313" lon="-118.393867">
  <ele>-0.131</ele>
  <time>2026-09-01T01:17:25Z</time>
  <course>187.92</course>
  <speed>0.022360679774997897</speed>
  <fix>3d</fix>
</trkpt>
<trkpt lat="33.810313" lon="-118.393867">
  <ele>-0.12</ele>
  <time>2026-09-01T01:17:25Z</time>
  <course>0.0</course>
  <speed>0.0</speed>
  <fix>3d</fix>
</trkpt>
<trkpt lat="33.810313" lon="-118.393867">
  <ele>-0.132</ele>
  <time>2026-09-01T01:17:25Z</time>
  <course>187.91</course>
  <speed>0.022360679774997897</speed>
  <fix>3d</fix>
</trkpt>
<trkpt lat="33.810313" lon="-118.393867">
  <ele>-0.12</ele>
  <time>2026-09-01T01:17:25Z</time>
  <course>0.0</course>
  <speed>0.0</speed>
  <fix>3d</fix>
</trkpt>
<trkpt lat="33.810313" lon="-118.393867">
  <ele>-0.132</ele>
  <time>2026-09-01T01:17:25Z</time>
  <course>187.91</course>
  <speed>0.022360679774997897</speed>
  <fix>3d</fix>
</trkpt>
<trkpt lat="33.810313" lon="-118.393867">
  <ele>-0.12</ele>
  <time>2026-09-01T01:17:25Z</time>
  <course>0.0</course>
  <speed>0.0</speed>
  <fix>3d</fix>
</trkpt>
<trkpt lat="33.810313" lon="-118.393867">
  <ele>-0.132</ele>
  <time>2026-09-01T01:17:26Z</time>
  <course>187.9</course>
  <speed>0.022360679774997897</speed>
  <fix>3d</fix>
</trkpt>
<trkpt lat="33.810313" lon="-118.393867">
  <ele>-0.12</ele>
  <time>2026-09-01T01:17:26Z</time>
  <course>0.0</course>
  <speed>0.0</speed>
  <fix>3d</fix>
</trkpt>
<trkpt lat="33.810313" lon="-118.393867">
  <ele>-0.13</ele>
  <time>2026-09-01T01:17:26Z</time>
  <course>187.89</course>
  <speed>0.022360679774997897</speed>
  <fix>3d</fix>
</trkpt>
<trkpt lat="33.810313" lon="-118.393867">
  <ele>-0.12</ele>
  <time>2026-09-01T01:17:26Z</time>
  <course>0.0</course>
  <speed>0.0</speed>
  <fix>3d</fix>
</trkpt>
<trkpt lat="33.810313" lon="-118.393867">
  <ele>-0.127</ele>
  <time>2026-09-01T01:17:26Z</time>
  <course>187.88</course>
  <speed>0.022360679774997897</speed>
  <fix>3d</fix>
</trkpt>
<trkpt lat="33.810313" lon="-118.393867">
  <ele>-0.12</ele>
  <time>2026-09-01T01:17:26Z</time>
  <course>0.0</course>
  <speed>0.0</speed>
  <fix>3d</fix>
</trkpt>
<trkpt lat="33.810313" lon="-118.393867">
  <ele>-0.123</ele>
  <time>2026-09-01T01:17:26Z</time>
  <course>187.87</course>
  <speed>0.022360679774997897</speed>
  <fix>3d</fix>
</trkpt>
<trkpt lat="33.810313" lon="-118.393867">
  <ele>-0.12</ele>
  <time>2026-09-01T01:17:26Z</time>
  <course>0.0</course>
  <speed>0.0</speed>
  <fix>3d</fix>
</trkpt>
<trkpt lat="33.810313" lon="-118.393867">
  <ele>-0.121</ele>
  <time>2026-09-01T01:17:26Z</time>
  <course>187.87</course>
  <speed>0.022360679774997897</speed>
  <fix>3d</fix>
</trkpt>
<trkpt lat="33.810313" lon="-118.393867">
  <ele>-0.12</ele>
  <time>2026-09-01T01:17:26Z</time>
  <course>0.0</course>
  <speed>0.0</speed>
  <fix>3d</fix>
</trkpt>
<trkpt lat="33.810313" lon="-118.393867">
  <ele>-0.121</ele>
  <time>2026-09-01T01:17:26Z</time>
  <course>187.86</course>
  <speed>0.022360679774997897</speed>
  <fix>3d</fix>
</trkpt>
<trkpt lat="33.810313" lon="-118.393867">
  <ele>-0.12</ele>
  <time>2026-09-01T01:17:26Z</time>
  <course>0.0</course>
  <speed>0.0</speed>
  <fix>3d</fix>
</trkpt>
<trkpt lat="33.810313" lon="-118.393867">
  <ele>-0.123</ele>
  <time>2026-09-01T01:17:26Z</time>
  <course>187.85</course>
  <speed>0.022360679774997897</speed>
  <fix>3d</fix>
</trkpt>
<trkpt lat="33.810313" lon="-118.393867">
  <ele>-0.12</ele>
  <time>2026-09-01T01:17:26Z</time>
  <course>0.0</course>
  <speed>0.0</speed>
  <fix>3d</fix>
</trkpt>
<trkpt lat="33.810313" lon="-118.393867">
  <ele>-0.124</ele>
  <time>2026-09-01T01:17:26Z</time>
  <course>187.84</course>
  <speed>0.022360679774997897</speed>
  <fix>3d</fix>
</trkpt>
<trkpt lat="33.810313" lon="-118.393867">
  <ele>-0.12</ele>
  <time>2026-09-01T01:17:26Z</time>
  <course>0.0</course>
  <speed>0.0</speed>
  <fix>3d</fix>
</trkpt>
<trkpt lat="33.810313" lon="-118.393867">
  <ele>-0.126</ele>
  <time>2026-09-01T01:17:26Z</time>
  <course>187.83</course>
  <speed>0.022360679774997897</speed>
  <fix>3d</fix>
</trkpt>
<trkpt lat="33.810313" lon="-118.393867">
  <ele>-0.12</ele>
  <time>2026-09-01T01:17:26Z</time>
  <course>0.0</course>
  <speed>0.0</speed>
  <fix>3d</fix>
</trkpt>
<trkpt lat="33.810313" lon="-118.393867">
  <ele>-0.127</ele>
  <time>2026-09-01T01:17:26Z</time>
  <course>187.83</course>
  <speed>0.022360679774997897</speed>
  <fix>3d</fix>
</trkpt>
<trkpt lat="33.810313" lon="-118.393867">
  <ele>-0.12</ele>
  <time>2026-09-01T01:17:26Z</time>
  <course>0.0</course>
  <speed>0.0</speed>
  <fix>3d</fix>
</trkpt>
<trkpt lat="33.810313" lon="-118.393867">
  <ele>-0.127</ele>
  <time>2026-09-01T01:17:26Z</time>
  <course>187.82</course>
  <speed>0.022360679774997897</speed>
  <fix>3d</fix>
</trkpt>
<trkpt lat="33.810313" lon="-118.393867">
  <ele>-0.12</ele>
  <time>2026-09-01T01:17:26Z</time>
  <course>0.0</course>
  <speed>0.0</speed>
  <fix>3d</fix>
</trkpt>
<trkpt lat="33.810313" lon="-118.393867">
  <ele>-0.127</ele>
  <time>2026-09-01T01:17:26Z</time>
  <course>187.81</course>
  <speed>0.022360679774997897</speed>
  <fix>3d</fix>
</trkpt>
<trkpt lat="33.810313" lon="-118.393867">
  <ele>-0.12</ele>
  <time>2026-09-01T01:17:26Z</time>
  <course>0.0</course>
  <speed>0.0</speed>
  <fix>3d</fix>
</trkpt>
<trkpt lat="33.810313" lon="-118.393867">
  <ele>-0.126</ele>
  <time>2026-09-01T01:17:26Z</time>
  <course>187.8</course>
  <speed>0.022360679774997897</speed>
  <fix>3d</fix>
</trkpt>
<trkpt lat="33.810313" lon="-118.393867">
  <ele>-0.12</ele>
  <time>2026-09-01T01:17:26Z</time>
  <course>0.0</course>
  <speed>0.0</speed>
  <fix>3d</fix>
</trkpt>
<trkpt lat="33.810313" lon="-118.393867">
  <ele>-0.124</ele>
  <time>2026-09-01T01:17:26Z</time>
  <course>187.8</course>
  <speed>0.022360679774997897</speed>
  <fix>3d</fix>
</trkpt>
<trkpt lat="33.810313" lon="-118.393867">
  <ele>-0.12</ele>
  <time>2026-09-01T01:17:26Z</time>
  <course>0.0</course>
  <speed>0.0</speed>
  <fix>3d</fix>
</trkpt>
<trkpt lat="33.810313" lon="-118.393867">
  <ele>-0.121</ele>
  <time>2026-09-01T01:17:26Z</time>
  <course>187.79</course>
  <speed>0.022360679774997897</speed>
  <fix>3d</fix>
</trkpt>
<trkpt lat="33.810313" lon="-118.393867">
  <ele>-0.12</ele>
  <time>2026-09-01T01:17:26Z</time>
  <course>0.0</course>
  <speed>0.0</speed>
  <fix>3d</fix>
</trkpt>
<trkpt lat="33.810313" lon="-118.393867">
  <ele>-0.119</ele>
  <time>2026-09-01T01:17:26Z</time>
  <course>187.78</course>
  <speed>0.022360679774997897</speed>
  <fix>3d</fix>
</trkpt>
<trkpt lat="33.810313" lon="-118.393867">
  <ele>-0.12</ele>
  <time>2026-09-01T01:17:26Z</time>
  <course>0.0</course>
  <speed>0.0</speed>
  <fix>3d</fix>
</trkpt>
<trkpt lat="33.810313" lon="-118.393867">
  <ele>-0.118</ele>
  <time>2026-09-01T01:17:26Z</time>
  <course>187.77</course>
  <speed>0.022360679774997897</speed>
  <fix>3d</fix>
</trkpt>
<trkpt lat="33.810313" lon="-118.393867">
  <ele>-0.12</ele>
  <time>2026-09-01T01:17:26Z</time>
  <course>0.0</course>
  <speed>0.0</speed>
  <fix>3d</fix>
</trkpt>
<trkpt lat="33.810313" lon="-118.393867">
  <ele>-0.118</ele>
  <time>2026-09-01T01:17:26Z</time>
  <course>187.77</course>
  <speed>0.022360679774997897</speed>
  <fix>3d</fix>
</trkpt>
<trkpt lat="33.810313" lon="-118.393867">
  <ele>-0.12</ele>
  <time>2026-09-01T01:17:26Z</time>
  <course>0.0</course>
  <speed>0.0</speed>
  <fix>3d</fix>
</trkpt>
<trkpt lat="33.810313" lon="-118.393867">
  <ele>-0.119</ele>
  <time>2026-09-01T01:17:26Z</time>
  <course>187.76</course>
  <speed>0.022360679774997897</speed>
  <fix>3d</fix>
</trkpt>
<trkpt lat="33.810313" lon="-118.393867">
  <ele>-0.12</ele>
  <time>2026-09-01T01:17:26Z</time>
  <course>0.0</course>
  <speed>0.0</speed>
  <fix>3d</fix>
</trkpt>
<trkpt lat="33.810313" lon="-118.393867">
  <ele>-0.12</ele>
  <time>2026-09-01T01:17:26Z</time>
  <course>187.75</course>
  <speed>0.022360679774997897</speed>
  <fix>3d</fix>
</trkpt>
<trkpt lat="33.810313" lon="-118.393867">
  <ele>-0.12</ele>
  <time>2026-09-01T01:17:26Z</time>
  <course>0.0</course>
  <speed>0.0</speed>
  <fix>3d</fix>
</trkpt>
<trkpt lat="33.810313" lon="-118.393867">
  <ele>-0.12</ele>
  <time>2026-09-01T01:17:26Z</time>
  <course>187.74</course>
  <speed>0.0282842712474619</speed>
  <fix>3d</fix>
</trkpt>
<trkpt lat="33.810313" lon="-118.393867">
  <ele>-0.12</ele>
  <time>2026-09-01T01:17:26Z</time>
  <course>0.0</course>
  <speed>0.0</speed>
  <fix>3d</fix>
</trkpt>
<trkpt lat="33.810313" lon="-118.393867">
  <ele>-0.12</ele>
  <time>2026-09-01T01:17:26Z</time>
  <course>187.74</course>
  <speed>0.0282842712474619</speed>
  <fix>3d</fix>
</trkpt>
<trkpt lat="33.810313" lon="-118.393867">
  <ele>-0.12</ele>
  <time>2026-09-01T01:17:26Z</time>
  <course>0.0</course>
  <speed>0.0</speed>
  <fix>3d</fix>
</trkpt>
<trkpt lat="33.810313" lon="-118.393867">
  <ele>-0.119</ele>
  <time>2026-09-01T01:17:26Z</time>
  <course>187.73</course>
  <speed>0.0282842712474619</speed>
  <fix>3d</fix>
</trkpt>
<trkpt lat="33.810313" lon="-118.393867">
  <ele>-0.12</ele>
  <time>2026-09-01T01:17:26Z</time>
  <course>0.0</course>
  <speed>0.0</speed>
  <fix>3d</fix>
</trkpt>
<trkpt lat="33.810313" lon="-118.393867">
  <ele>-0.118</ele>
  <time>2026-09-01T01:17:26Z</time>
  <course>187.72</course>
  <speed>0.0282842712474619</speed>
  <fix>3d</fix>
</trkpt>
<trkpt lat="33.810313" lon="-118.393867">
  <ele>-0.12</ele>
  <time>2026-09-01T01:17:26Z</time>
  <course>0.0</course>
  <speed>0.0</speed>
  <fix>3d</fix>
</trkpt>
<trkpt lat="33.810313" lon="-118.393867">
  <ele>-0.116</ele>
  <time>2026-09-01T01:17:26Z</time>
  <course>187.71</course>
  <speed>0.0282842712474619</speed>
  <fix>3d</fix>
</trkpt>
<trkpt lat="33.810313" lon="-118.393867">
  <ele>-0.12</ele>
  <time>2026-09-01T01:17:26Z</time>
  <course>0.0</course>
  <speed>0.0</speed>
  <fix>3d</fix>
</trkpt>
<trkpt lat="33.810313" lon="-118.393867">
  <ele>-0.114</ele>
  <time>2026-09-01T01:17:26Z</time>
  <course>187.71</course>
  <speed>0.0282842712474619</speed>
  <fix>3d</fix>
</trkpt>
<trkpt lat="33.810313" lon="-118.393867">
  <ele>-0.12</ele>
  <time>2026-09-01T01:17:26Z</time>
  <course>0.0</course>
  <speed>0.0</speed>
  <fix>3d</fix>
</trkpt>
<trkpt lat="33.810313" lon="-118.393867">
  <ele>-0.112</ele>
  <time>2026-09-01T01:17:26Z</time>
  <course>187.7</course>
  <speed>0.0282842712474619</speed>
  <fix>3d</fix>
</trkpt>
<trkpt lat="33.810313" lon="-118.393867">
  <ele>-0.12</ele>
  <time>2026-09-01T01:17:26Z</time>
  <course>0.0</course>
  <speed>0.0</speed>
  <fix>3d</fix>
</trkpt>
<trkpt lat="33.810313" lon="-118.393867">
  <ele>-0.113</ele>
  <time>2026-09-01T01:17:26Z</time>
  <course>187.69</course>
  <speed>0.0282842712474619</speed>
  <fix>3d</fix>
</trkpt>
<trkpt lat="33.810313" lon="-118.393867">
  <ele>-0.12</ele>
  <time>2026-09-01T01:17:26Z</time>
  <course>0.0</course>
  <speed>0.0</speed>
  <fix>3d</fix>
</trkpt>
<trkpt lat="33.810313" lon="-118.393867">
  <ele>-0.115</ele>
  <time>2026-09-01T01:17:26Z</time>
  <course>187.69</course>
  <speed>0.0282842712474619</speed>
  <fix>3d</fix>
</trkpt>
<trkpt lat="33.810313" lon="-118.393867">
  <ele>-0.12</ele>
  <time>2026-09-01T01:17:26Z</time>
  <course>0.0</course>
  <speed>0.0</speed>
  <fix>3d</fix>
</trkpt>
<trkpt lat="33.810313" lon="-118.393867">
  <ele>-0.119</ele>
  <time>2026-09-01T01:17:26Z</time>
  <course>187.68</course>
  <speed>0.0282842712474619</speed>
  <fix>3d</fix>
</trkpt>
<trkpt lat="33.810313" lon="-118.393867">
  <ele>-0.12</ele>
  <time>2026-09-01T01:17:26Z</time>
  <course>0.0</course>
  <speed>0.0</speed>
  <fix>3d</fix>
</trkpt>
<trkpt lat="33.810313" lon="-118.393867">
  <ele>-0.123</ele>
  <time>2026-09-01T01:17:26Z</time>
  <course>187.67</course>
  <speed>0.0282842712474619</speed>
  <fix>3d</fix>
</trkpt>
<trkpt lat="33.810313" lon="-118.393867">
  <ele>-0.12</ele>
  <time>2026-09-01T01:17:26Z</time>
  <course>0.0</course>
  <speed>0.0</speed>
  <fix>3d</fix>
</trkpt>
<trkpt lat="33.810313" lon="-118.393867">
  <ele>-0.128</ele>
  <time>2026-09-01T01:17:26Z</time>
  <course>187.66</course>
  <speed>0.0282842712474619</speed>
  <fix>3d</fix>
</trkpt>
<trkpt lat="33.810313" lon="-118.393867">
  <ele>-0.12</ele>
  <time>2026-09-01T01:17:26Z</time>
  <course>0.0</course>
  <speed>0.0</speed>
  <fix>3d</fix>
</trkpt>
<trkpt lat="33.810313" lon="-118.393867">
  <ele>-0.132</ele>
  <time>2026-09-01T01:17:26Z</time>
  <course>187.66</course>
  <speed>0.0282842712474619</speed>
  <fix>3d</fix>
</trkpt>
<trkpt lat="33.810313" lon="-118.393867">
  <ele>-0.12</ele>
  <time>2026-09-01T01:17:26Z</time>
  <course>0.0</course>
  <speed>0.0</speed>
  <fix>3d</fix>
</trkpt>
<trkpt lat="33.810313" lon="-118.393867">
  <ele>-0.134</ele>
  <time>2026-09-01T01:17:26Z</time>
  <course>187.65</course>
  <speed>0.0282842712474619</speed>
  <fix>3d</fix>
</trkpt>
<trkpt lat="33.810313" lon="-118.393867">
  <ele>-0.12</ele>
  <time>2026-09-01T01:17:26Z</time>
  <course>0.0</course>
  <speed>0.0</speed>
  <fix>3d</fix>
</trkpt>
<trkpt lat="33.810313" lon="-118.393867">
  <ele>-0.135</ele>
  <time>2026-09-01T01:17:26Z</time>
  <course>187.64</course>
  <speed>0.0282842712474619</speed>
  <fix>3d</fix>
</trkpt>
<trkpt lat="33.810313" lon="-118.393867">
  <ele>-0.12</ele>
  <time>2026-09-01T01:17:26Z</time>
  <course>0.0</course>
  <speed>0.0</speed>
  <fix>3d</fix>
</trkpt>
<trkpt lat="33.810313" lon="-118.393867">
  <ele>-0.135</ele>
  <time>2026-09-01T01:17:26Z</time>
  <course>187.64</course>
  <speed>0.0282842712474619</speed>
  <fix>3d</fix>
</trkpt>
<trkpt lat="33.810313" lon="-118.393867">
  <ele>-0.12</ele>
  <time>2026-09-01T01:17:26Z</time>
  <course>0.0</course>
  <speed>0.0</speed>
  <fix>3d</fix>
</trkpt>
<trkpt lat="33.810313" lon="-118.393867">
  <ele>-0.133</ele>
  <time>2026-09-01T01:17:26Z</time>
  <course>187.63</course>
  <speed>0.0282842712474619</speed>
  <fix>3d</fix>
</trkpt>
<trkpt lat="33.810313" lon="-118.393867">
  <ele>-0.12</ele>
  <time>2026-09-01T01:17:26Z</time>
  <course>0.0</course>
  <speed>0.0</speed>
  <fix>3d</fix>
</trkpt>
<trkpt lat="33.810313" lon="-118.393867">
  <ele>-0.132</ele>
  <time>2026-09-01T01:17:26Z</time>
  <course>187.63</course>
  <speed>0.0282842712474619</speed>
  <fix>3d</fix>
</trkpt>
<trkpt lat="33.810313" lon="-118.393867">
  <ele>-0.12</ele>
  <time>2026-09-01T01:17:26Z</time>
  <course>0.0</course>
  <speed>0.0</speed>
  <fix>3d</fix>
</trkpt>
<trkpt lat="33.810313" lon="-118.393867">
  <ele>-0.132</ele>
  <time>2026-09-01T01:17:26Z</time>
  <course>187.62</course>
  <speed>0.03605551275463989</speed>
  <fix>3d</fix>
</trkpt>
<trkpt lat="33.810313" lon="-118.393867">
  <ele>-0.12</ele>
  <time>2026-09-01T01:17:26Z</time>
  <course>0.0</course>
  <speed>0.0</speed>
  <fix>3d</fix>
</trkpt>
<trkpt lat="33.810313" lon="-118.393867">
  <ele>-0.132</ele>
  <time>2026-09-01T01:17:26Z</time>
  <course>187.61</course>
  <speed>0.03605551275463989</speed>
  <fix>3d</fix>
</trkpt>
<trkpt lat="33.810313" lon="-118.393867">
  <ele>-0.12</ele>
  <time>2026-09-01T01:17:26Z</time>
  <course>0.0</course>
  <speed>0.0</speed>
  <fix>3d</fix>
</trkpt>
<trkpt lat="33.810313" lon="-118.393867">
  <ele>-0.133</ele>
  <time>2026-09-01T01:17:26Z</time>
  <course>187.61</course>
  <speed>0.03605551275463989</speed>
  <fix>3d</fix>
</trkpt>
<trkpt lat="33.810313" lon="-118.393867">
  <ele>-0.12</ele>
  <time>2026-09-01T01:17:26Z</time>
  <course>0.0</course>
  <speed>0.0</speed>
  <fix>3d</fix>
</trkpt>
<trkpt lat="33.810313" lon="-118.393867">
  <ele>-0.134</ele>
  <time>2026-09-01T01:17:26Z</time>
  <course>187.6</course>
  <speed>0.03605551275463989</speed>
  <fix>3d</fix>
</trkpt>
<trkpt lat="33.810313" lon="-118.393867">
  <ele>-0.12</ele>
  <time>2026-09-01T01:17:26Z</time>
  <course>0.0</course>
  <speed>0.0</speed>
  <fix>3d</fix>
</trkpt>
<trkpt lat="33.810313" lon="-118.393867">
  <ele>-0.133</ele>
  <time>2026-09-01T01:17:26Z</time>
  <course>187.59</course>
  <speed>0.03605551275463989</speed>
  <fix>3d</fix>
</trkpt>
<trkpt lat="33.810313" lon="-118.393867">
  <ele>-0.12</ele>
  <time>2026-09-01T01:17:26Z</time>
  <course>0.0</course>
  <speed>0.0</speed>
  <fix>3d</fix>
</trkpt>
<trkpt lat="33.810313" lon="-118.393867">
  <ele>-0.132</ele>
  <time>2026-09-01T01:17:26Z</time>
  <course>187.59</course>
  <speed>0.03605551275463989</speed>
  <fix>3d</fix>
</trkpt>
<trkpt lat="33.810313" lon="-118.393867">
  <ele>-0.12</ele>
  <time>2026-09-01T01:17:26Z</time>
  <course>0.0</course>
  <speed>0.0</speed>
  <fix>3d</fix>
</trkpt>
<trkpt lat="33.810313" lon="-118.393867">
  <ele>-0.13</ele>
  <time>2026-09-01T01:17:26Z</time>
  <course>187.58</course>
  <speed>0.03605551275463989</speed>
  <fix>3d</fix>
</trkpt>
<trkpt lat="33.810313" lon="-118.393867">
  <ele>-0.12</ele>
  <time>2026-09-01T01:17:26Z</time>
  <course>0.0</course>
  <speed>0.0</speed>
  <fix>3d</fix>
</trkpt>
<trkpt lat="33.810313" lon="-118.393867">
  <ele>-0.127</ele>
  <time>2026-09-01T01:17:26Z</time>
  <course>187.57</course>
  <speed>0.03605551275463989</speed>
  <fix>3d</fix>
</trkpt>
<trkpt lat="33.810313" lon="-118.393867">
  <ele>-0.12</ele>
  <time>2026-09-01T01:17:26Z</time>
  <course>0.0</course>
  <speed>0.0</speed>
  <fix>3d</fix>
</trkpt>
<trkpt lat="33.810313" lon="-118.393867">
  <ele>-0.125</ele>
  <time>2026-09-01T01:17:26Z</time>
  <course>187.57</course>
  <speed>0.03605551275463989</speed>
  <fix>3d</fix>
</trkpt>
<trkpt lat="33.810313" lon="-118.393867">
  <ele>-0.12</ele>
  <time>2026-09-01T01:17:26Z</time>
  <course>0.0</course>
  <speed>0.0</speed>
  <fix>3d</fix>
</trkpt>
<trkpt lat="33.810313" lon="-118.393867">
  <ele>-0.122</ele>
  <time>2026-09-01T01:17:26Z</time>
  <course>187.56</course>
  <speed>0.03605551275463989</speed>
  <fix>3d</fix>
</trkpt>
<trkpt lat="33.810313" lon="-118.393867">
  <ele>-0.12</ele>
  <time>2026-09-01T01:17:26Z</time>
  <course>0.0</course>
  <speed>0.0</speed>
  <fix>3d</fix>
</trkpt>
<trkpt lat="33.810313" lon="-118.393867">
  <ele>-0.119</ele>
  <time>2026-09-01T01:17:26Z</time>
  <course>187.55</course>
  <speed>0.03605551275463989</speed>
  <fix>3d</fix>
</trkpt>
<trkpt lat="33.810313" lon="-118.393867">
  <ele>-0.12</ele>
  <time>2026-09-01T01:17:26Z</time>
  <course>0.0</course>
  <speed>0.0</speed>
  <fix>3d</fix>
</trkpt>
<trkpt lat="33.810313" lon="-118.393867">
  <ele>-0.117</ele>
  <time>2026-09-01T01:17:26Z</time>
  <course>187.55</course>
  <speed>0.03605551275463989</speed>
  <fix>3d</fix>
</trkpt>
<trkpt lat="33.810313" lon="-118.393867">
  <ele>-0.12</ele>
  <time>2026-09-01T01:17:26Z</time>
  <course>0.0</course>
  <speed>0.0</speed>
  <fix>3d</fix>
</trkpt>
<trkpt lat="33.810313" lon="-118.393867">
  <ele>-0.117</ele>
  <time>2026-09-01T01:17:26Z</time>
  <course>187.54</course>
  <speed>0.03605551275463989</speed>
  <fix>3d</fix>
</trkpt>
<trkpt lat="33.810313" lon="-118.393867">
  <ele>-0.12</ele>
  <time>2026-09-01T01:17:26Z</time>
  <course>0.0</course>
  <speed>0.0</speed>
  <fix>3d</fix>
</trkpt>
<trkpt lat="33.810313" lon="-118.393867">
  <ele>-0.118</ele>
  <time>2026-09-01T01:17:26Z</time>
  <course>187.53</course>
  <speed>0.03605551275463989</speed>
  <fix>3d</fix>
</trkpt>
<trkpt lat="33.810313" lon="-118.393867">
  <ele>-0.12</ele>
  <time>2026-09-01T01:17:26Z</time>
  <course>0.0</course>
  <speed>0.0</speed>
  <fix>3d</fix>
</trkpt>
<trkpt lat="33.810313" lon="-118.393867">
  <ele>-0.119</ele>
  <time>2026-09-01T01:17:26Z</time>
  <course>187.53</course>
  <speed>0.03605551275463989</speed>
  <fix>3d</fix>
</trkpt>
<trkpt lat="33.810313" lon="-118.393867">
  <ele>-0.12</ele>
  <time>2026-09-01T01:17:26Z</time>
  <course>0.0</course>
  <speed>0.0</speed>
  <fix>3d</fix>
</trkpt>
<trkpt lat="33.810313" lon="-118.393867">
  <ele>-0.12</ele>
  <time>2026-09-01T01:17:26Z</time>
  <course>187.52</course>
  <speed>0.03605551275463989</speed>
  <fix>3d</fix>
</trkpt>
<trkpt lat="33.810313" lon="-118.393867">
  <ele>-0.12</ele>
  <time>2026-09-01T01:17:26Z</time>
  <course>0.0</course>
  <speed>0.0</speed>
  <fix>3d</fix>
</trkpt>
<trkpt lat="33.810313" lon="-118.393867">
  <ele>-0.121</ele>
  <time>2026-09-01T01:17:26Z</time>
  <course>187.51</course>
  <speed>0.03605551275463989</speed>
  <fix>3d</fix>
</trkpt>
<trkpt lat="33.810313" lon="-118.393867">
  <ele>-0.12</ele>
  <time>2026-09-01T01:17:26Z</time>
  <course>0.0</course>
  <speed>0.0</speed>
  <fix>3d</fix>
</trkpt>
<trkpt lat="33.810313" lon="-118.393867">
  <ele>-0.121</ele>
  <time>2026-09-01T01:17:26Z</time>
  <course>187.51</course>
  <speed>0.03605551275463989</speed>
  <fix>3d</fix>
</trkpt>
<trkpt lat="33.810313" lon="-118.393867">
  <ele>-0.12</ele>
  <time>2026-09-01T01:17:26Z</time>
  <course>0.0</course>
  <speed>0.0</speed>
  <fix>3d</fix>
</trkpt>
<trkpt lat="33.810313" lon="-118.393867">
  <ele>-0.121</ele>
  <time>2026-09-01T01:17:26Z</time>
  <course>187.5</course>
  <speed>0.03605551275463989</speed>
  <fix>3d</fix>
</trkpt>
<trkpt lat="33.810313" lon="-118.393867">
  <ele>-0.12</ele>
  <time>2026-09-01T01:17:26Z</time>
  <course>0.0</course>
  <speed>0.0</speed>
  <fix>3d</fix>
</trkpt>
<trkpt lat="33.810313" lon="-118.393867">
  <ele>-0.121</ele>
  <time>2026-09-01T01:17:26Z</time>
  <course>187.49</course>
  <speed>0.03605551275463989</speed>
  <fix>3d</fix>
</trkpt>
<trkpt lat="33.810313" lon="-118.393867">
  <ele>-0.12</ele>
  <time>2026-09-01T01:17:26Z</time>
  <course>0.0</course>
  <speed>0.0</speed>
  <fix>3d</fix>
</trkpt>
<trkpt lat="33.810313" lon="-118.393867">
  <ele>-0.121</ele>
  <time>2026-09-01T01:17:26Z</time>
  <course>187.49</course>
  <speed>0.03605551275463989</speed>
  <fix>3d</fix>
</trkpt>
<trkpt lat="33.810313" lon="-118.393867">
  <ele>-0.12</ele>
  <time>2026-09-01T01:17:26Z</time>
  <course>0.0</course>
  <speed>0.0</speed>
  <fix>3d</fix>
</trkpt>
<trkpt lat="33.810313" lon="-118.393867">
  <ele>-0.121</ele>
  <time>2026-09-01T01:17:26Z</time>
  <course>187.48</course>
  <speed>0.03605551275463989</speed>
  <fix>3d</fix>
</trkpt>
<trkpt lat="33.810313" lon="-118.393867">
  <ele>-0.12</ele>
  <time>2026-09-01T01:17:26Z</time>
  <course>0.0</course>
  <speed>0.0</speed>
  <fix>3d</fix>
</trkpt>
<trkpt lat="33.810313" lon="-118.393867">
  <ele>-0.122</ele>
  <time>2026-09-01T01:17:26Z</time>
  <course>187.47</course>
  <speed>0.03605551275463989</speed>
  <fix>3d</fix>
</trkpt>
<trkpt lat="33.810313" lon="-118.393867">
  <ele>-0.12</ele>
  <time>2026-09-01T01:17:26Z</time>
  <course>0.0</course>
  <speed>0.0</speed>
  <fix>3d</fix>
</trkpt>
<trkpt lat="33.810313" lon="-118.393867">
  <ele>-0.124</ele>
  <time>2026-09-01T01:17:26Z</time>
  <course>187.47</course>
  <speed>0.03605551275463989</speed>
  <fix>3d</fix>
</trkpt>
<trkpt lat="33.810313" lon="-118.393867">
  <ele>-0.12</ele>
  <time>2026-09-01T01:17:26Z</time>
  <course>0.0</course>
  <speed>0.0</speed>
  <fix>3d</fix>
</trkpt>
<trkpt lat="33.810313" lon="-118.393867">
  <ele>-0.127</ele>
  <time>2026-09-01T01:17:26Z</time>
  <course>187.46</course>
  <speed>0.03605551275463989</speed>
  <fix>3d</fix>
</trkpt>
<trkpt lat="33.810313" lon="-118.393867">
  <ele>-0.12</ele>
  <time>2026-09-01T01:17:26Z</time>
  <course>0.0</course>
  <speed>0.0</speed>
  <fix>3d</fix>
</trkpt>
<trkpt lat="33.810313" lon="-118.393867">
  <ele>-0.129</ele>
  <time>2026-09-01T01:17:26Z</time>
  <course>187.46</course>
  <speed>0.03605551275463989</speed>
  <fix>3d</fix>
</trkpt>
<trkpt lat="33.810313" lon="-118.393867">
  <ele>-0.12</ele>
  <time>2026-09-01T01:17:26Z</time>
  <course>0.0</course>
  <speed>0.0</speed>
  <fix>3d</fix>
</trkpt>
<trkpt lat="33.810313" lon="-118.393867">
  <ele>-0.131</ele>
  <time>2026-09-01T01:17:26Z</time>
  <course>187.45</course>
  <speed>0.03605551275463989</speed>
  <fix>3d</fix>
</trkpt>
<trkpt lat="33.810313" lon="-118.393867">
  <ele>-0.12</ele>
  <time>2026-09-01T01:17:26Z</time>
  <course>0.0</course>
  <speed>0.0</speed>
  <fix>3d</fix>
</trkpt>
<trkpt lat="33.810313" lon="-118.393867">
  <ele>-0.132</ele>
  <time>2026-09-01T01:17:26Z</time>
  <course>187.44</course>
  <speed>0.03605551275463989</speed>
  <fix>3d</fix>
</trkpt>
<trkpt lat="33.810313" lon="-118.393867">
  <ele>-0.12</ele>
  <time>2026-09-01T01:17:26Z</time>
  <course>0.0</course>
  <speed>0.0</speed>
  <fix>3d</fix>
</trkpt>
<trkpt lat="33.810313" lon="-118.393867">
  <ele>-0.132</ele>
  <time>2026-09-01T01:17:26Z</time>
  <course>187.44</course>
  <speed>0.03605551275463989</speed>
  <fix>3d</fix>
</trkpt>
<trkpt lat="33.810313" lon="-118.393867">
  <ele>-0.12</ele>
  <time>2026-09-01T01:17:26Z</time>
  <course>0.0</course>
  <speed>0.0</speed>
  <fix>3d</fix>
</trkpt>
<trkpt lat="33.810313" lon="-118.393867">
  <ele>-0.132</ele>
  <time>2026-09-01T01:17:26Z</time>
  <course>187.43</course>
  <speed>0.03605551275463989</speed>
  <fix>3d</fix>
</trkpt>
<trkpt lat="33.810313" lon="-118.393867">
  <ele>-0.12</ele>
  <time>2026-09-01T01:17:26Z</time>
  <course>0.0</course>
  <speed>0.0</speed>
  <fix>3d</fix>
</trkpt>
<trkpt lat="33.810313" lon="-118.393867">
  <ele>-0.132</ele>
  <time>2026-09-01T01:17:26Z</time>
  <course>187.42</course>
  <speed>0.03605551275463989</speed>
  <fix>3d</fix>
</trkpt>
<trkpt lat="33.810313" lon="-118.393867">
  <ele>-0.12</ele>
  <time>2026-09-01T01:17:26Z</time>
  <course>0.0</course>
  <speed>0.0</speed>
  <fix>3d</fix>
</trkpt>
<trkpt lat="33.810313" lon="-118.393867">
  <ele>-0.131</ele>
  <time>2026-09-01T01:17:26Z</time>
  <course>187.42</course>
  <speed>0.03605551275463989</speed>
  <fix>3d</fix>
</trkpt>
<trkpt lat="33.810313" lon="-118.393867">
  <ele>-0.12</ele>
  <time>2026-09-01T01:17:26Z</time>
  <course>0.0</course>
  <speed>0.0</speed>
  <fix>3d</fix>
</trkpt>
<trkpt lat="33.810313" lon="-118.393867">
  <ele>-0.131</ele>
  <time>2026-09-01T01:17:26Z</time>
  <course>187.41</course>
  <speed>0.03605551275463989</speed>
  <fix>3d</fix>
</trkpt>
<trkpt lat="33.810313" lon="-118.393867">
  <ele>-0.12</ele>
  <time>2026-09-01T01:17:26Z</time>
  <course>0.0</course>
  <speed>0.0</speed>
  <fix>3d</fix>
</trkpt>
<trkpt lat="33.810313" lon="-118.393867">
  <ele>-0.132</ele>
  <time>2026-09-01T01:17:26Z</time>
  <course>187.41</course>
  <speed>0.03605551275463989</speed>
  <fix>3d</fix>
</trkpt>
<trkpt lat="33.810313" lon="-118.393867">
  <ele>-0.12</ele>
  <time>2026-09-01T01:17:26Z</time>
  <course>0.0</course>
  <speed>0.0</speed>
  <fix>3d</fix>
</trkpt>
<trkpt lat="33.810313" lon="-118.393867">
  <ele>-0.134</ele>
  <time>2026-09-01T01:17:26Z</time>
  <course>187.4</course>
  <speed>0.03605551275463989</speed>
  <fix>3d</fix>
</trkpt>
<trkpt lat="33.810313" lon="-118.393867">
  <ele>-0.12</ele>
  <time>2026-09-01T01:17:26Z</time>
  <course>0.0</course>
  <speed>0.0</speed>
  <fix>3d</fix>
</trkpt>
<trkpt lat="33.810313" lon="-118.393867">
  <ele>-0.137</ele>
  <time>2026-09-01T01:17:26Z</time>
  <course>187.39</course>
  <speed>0.03605551275463989</speed>
  <fix>3d</fix>
</trkpt>
<trkpt lat="33.810313" lon="-118.393867">
  <ele>-0.12</ele>
  <time>2026-09-01T01:17:26Z</time>
  <course>0.0</course>
  <speed>0.0</speed>
  <fix>3d</fix>
</trkpt>
<trkpt lat="33.810313" lon="-118.393867">
  <ele>-0.139</ele>
  <time>2026-09-01T01:17:26Z</time>
  <course>187.39</course>
  <speed>0.03605551275463989</speed>
  <fix>3d</fix>
</trkpt>
<trkpt lat="33.810313" lon="-118.393867">
  <ele>-0.12</ele>
  <time>2026-09-01T01:17:26Z</time>
  <course>0.0</course>
  <speed>0.0</speed>
  <fix>3d</fix>
</trkpt>
<trkpt lat="33.810313" lon="-118.393867">
  <ele>-0.141</ele>
  <time>2026-09-01T01:17:26Z</time>
  <course>187.38</course>
  <speed>0.03605551275463989</speed>
  <fix>3d</fix>
</trkpt>
<trkpt lat="33.810313" lon="-118.393867">
  <ele>-0.12</ele>
  <time>2026-09-01T01:17:26Z</time>
  <course>0.0</course>
  <speed>0.0</speed>
  <fix>3d</fix>
</trkpt>
<trkpt lat="33.810313" lon="-118.393867">
  <ele>-0.141</ele>
  <time>2026-09-01T01:17:26Z</time>
  <course>187.38</course>
  <speed>0.03605551275463989</speed>
  <fix>3d</fix>
</trkpt>
<trkpt lat="33.810313" lon="-118.393867">
  <ele>-0.12</ele>
  <time>2026-09-01T01:17:26Z</time>
  <course>0.0</course>
  <speed>0.0</speed>
  <fix>3d</fix>
</trkpt>
<trkpt lat="33.810313" lon="-118.393867">
  <ele>-0.139</ele>
  <time>2026-09-01T01:17:26Z</time>
  <course>187.37</course>
  <speed>0.03605551275463989</speed>
  <fix>3d</fix>
</trkpt>
<trkpt lat="33.810313" lon="-118.393867">
  <ele>-0.12</ele>
  <time>2026-09-01T01:17:26Z</time>
  <course>0.0</course>
  <speed>0.0</speed>
  <fix>3d</fix>
</trkpt>
<trkpt lat="33.810313" lon="-118.393867">
  <ele>-0.136</ele>
  <time>2026-09-01T01:17:26Z</time>
  <course>187.36</course>
  <speed>0.03605551275463989</speed>
  <fix>3d</fix>
</trkpt>
<trkpt lat="33.810313" lon="-118.393867">
  <ele>-0.12</ele>
  <time>2026-09-01T01:17:26Z</time>
  <course>0.0</course>
  <speed>0.0</speed>
  <fix>3d</fix>
</trkpt>
<trkpt lat="33.810313" lon="-118.393867">
  <ele>-0.133</ele>
  <time>2026-09-01T01:17:26Z</time>
  <course>187.36</course>
  <speed>0.03605551275463989</speed>
  <fix>3d</fix>
</trkpt>
<trkpt lat="33.810313" lon="-118.393867">
  <ele>-0.12</ele>
  <time>2026-09-01T01:17:26Z</time>
  <course>0.0</course>
  <speed>0.0</speed>
  <fix>3d</fix>
</trkpt>
<trkpt lat="33.810313" lon="-118.393867">
  <ele>-0.129</ele>
  <time>2026-09-01T01:17:26Z</time>
  <course>187.35</course>
  <speed>0.03605551275463989</speed>
  <fix>3d</fix>
</trkpt>
<trkpt lat="33.810313" lon="-118.393867">
  <ele>-0.12</ele>
  <time>2026-09-01T01:17:26Z</time>
  <course>0.0</course>
  <speed>0.0</speed>
  <fix>3d</fix>
</trkpt>
<trkpt lat="33.810313" lon="-118.393867">
  <ele>-0.127</ele>
  <time>2026-09-01T01:17:26Z</time>
  <course>187.35</course>
  <speed>0.03605551275463989</speed>
  <fix>3d</fix>
</trkpt>
<trkpt lat="33.810313" lon="-118.393867">
  <ele>-0.12</ele>
  <time>2026-09-01T01:17:26Z</time>
  <course>0.0</course>
  <speed>0.0</speed>
  <fix>3d</fix>
</trkpt>
<trkpt lat="33.810313" lon="-118.393867">
  <ele>-0.127</ele>
  <time>2026-09-01T01:17:26Z</time>
  <course>187.34</course>
  <speed>0.03605551275463989</speed>
  <fix>3d</fix>
</trkpt>
<trkpt lat="33.810313" lon="-118.393867">
  <ele>-0.12</ele>
  <time>2026-09-01T01:17:26Z</time>
  <course>0.0</course>
  <speed>0.0</speed>
  <fix>3d</fix>
</trkpt>
<trkpt lat="33.810313" lon="-118.393867">
  <ele>-0.126</ele>
  <time>2026-09-01T01:17:26Z</time>
  <course>187.34</course>
  <speed>0.03605551275463989</speed>
  <fix>3d</fix>
</trkpt>
<trkpt lat="33.810313" lon="-118.393867">
  <ele>-0.12</ele>
  <time>2026-09-01T01:17:26Z</time>
  <course>0.0</course>
  <speed>0.0</speed>
  <fix>3d</fix>
</trkpt>
<trkpt lat="33.810313" lon="-118.393867">
  <ele>-0.126</ele>
  <time>2026-09-01T01:17:26Z</time>
  <course>187.33</course>
  <speed>0.03605551275463989</speed>
  <fix>3d</fix>
</trkpt>
<trkpt lat="33.810313" lon="-118.393867">
  <ele>-0.12</ele>
  <time>2026-09-01T01:17:26Z</time>
  <course>0.0</course>
  <speed>0.0</speed>
  <fix>3d</fix>
</trkpt>
<trkpt lat="33.810313" lon="-118.393867">
  <ele>-0.126</ele>
  <time>2026-09-01T01:17:26Z</time>
  <course>187.32</course>
  <speed>0.03605551275463989</speed>
  <fix>3d</fix>
</trkpt>
<trkpt lat="33.810313" lon="-118.393867">
  <ele>-0.12</ele>
  <time>2026-09-01T01:17:26Z</time>
  <course>0.0</course>
  <speed>0.0</speed>
  <fix>3d</fix>
</trkpt>
<trkpt lat="33.810313" lon="-118.393867">
  <ele>-0.126</ele>
  <time>2026-09-01T01:17:26Z</time>
  <course>187.32</course>
  <speed>0.03605551275463989</speed>
  <fix>3d</fix>
</trkpt>
<trkpt lat="33.810313" lon="-118.393867">
  <ele>-0.12</ele>
  <time>2026-09-01T01:17:26Z</time>
  <course>0.0</course>
  <speed>0.0</speed>
  <fix>3d</fix>
</trkpt>
<trkpt lat="33.810313" lon="-118.393867">
  <ele>-0.125</ele>
  <time>2026-09-01T01:17:26Z</time>
  <course>187.31</course>
  <speed>0.03605551275463989</speed>
  <fix>3d</fix>
</trkpt>
<trkpt lat="33.810313" lon="-118.393867">
  <ele>-0.12</ele>
  <time>2026-09-01T01:17:26Z</time>
  <course>0.0</course>
  <speed>0.0</speed>
  <fix>3d</fix>
</trkpt>
<trkpt lat="33.810313" lon="-118.393867">
  <ele>-0.124</ele>
  <time>2026-09-01T01:17:26Z</time>
  <course>187.31</course>
  <speed>0.03605551275463989</speed>
  <fix>3d</fix>
</trkpt>
<trkpt lat="33.810313" lon="-118.393867">
  <ele>-0.12</ele>
  <time>2026-09-01T01:17:26Z</time>
  <course>0.0</course>
  <speed>0.0</speed>
  <fix>3d</fix>
</trkpt>
<trkpt lat="33.810313" lon="-118.393867">
  <ele>-0.122</ele>
  <time>2026-09-01T01:17:26Z</time>
  <course>187.3</course>
  <speed>0.03605551275463989</speed>
  <fix>3d</fix>
</trkpt>
<trkpt lat="33.810313" lon="-118.393867">
  <ele>-0.12</ele>
  <time>2026-09-01T01:17:26Z</time>
  <course>0.0</course>
  <speed>0.0</speed>
  <fix>3d</fix>
</trkpt>
<trkpt lat="33.810313" lon="-118.393867">
  <ele>-0.121</ele>
  <time>2026-09-01T01:17:26Z</time>
  <course>187.3</course>
  <speed>0.03605551275463989</speed>
  <fix>3d</fix>
</trkpt>
<trkpt lat="33.810313" lon="-118.393867">
  <ele>-0.12</ele>
  <time>2026-09-01T01:17:26Z</time>
  <course>0.0</course>
  <speed>0.0</speed>
  <fix>3d</fix>
</trkpt>
<trkpt lat="33.810313" lon="-118.393867">
  <ele>-0.122</ele>
  <time>2026-09-01T01:17:26Z</time>
  <course>187.29</course>
  <speed>0.03605551275463989</speed>
  <fix>3d</fix>
</trkpt>
<trkpt lat="33.810313" lon="-118.393867">
  <ele>-0.12</ele>
  <time>2026-09-01T01:17:26Z</time>
  <course>0.0</course>
  <speed>0.0</speed>
  <fix>3d</fix>
</trkpt>
<trkpt lat="33.810313" lon="-118.393867">
  <ele>-0.124</ele>
  <time>2026-09-01T01:17:26Z</time>
  <course>187.28</course>
  <speed>0.03605551275463989</speed>
  <fix>3d</fix>
</trkpt>
<trkpt lat="33.810313" lon="-118.393867">
  <ele>-0.12</ele>
  <time>2026-09-01T01:17:26Z</time>
  <course>0.0</course>
  <speed>0.0</speed>
  <fix>3d</fix>
</trkpt>
<trkpt lat="33.810313" lon="-118.393867">
  <ele>-0.127</ele>
  <time>2026-09-01T01:17:26Z</time>
  <course>187.28</course>
  <speed>0.03605551275463989</speed>
  <fix>3d</fix>
</trkpt>
<trkpt lat="33.810313" lon="-118.393867">
  <ele>-0.12</ele>
  <time>2026-09-01T01:17:26Z</time>
  <course>0.0</course>
  <speed>0.0</speed>
  <fix>3d</fix>
</trkpt>
<trkpt lat="33.810313" lon="-118.393867">
  <ele>-0.13</ele>
  <time>2026-09-01T01:17:26Z</time>
  <course>187.27</course>
  <speed>0.03605551275463989</speed>
  <fix>3d</fix>
</trkpt>
<trkpt lat="33.810313" lon="-118.393867">
  <ele>-0.12</ele>
  <time>2026-09-01T01:17:26Z</time>
  <course>0.0</course>
  <speed>0.0</speed>
  <fix>3d</fix>
</trkpt>
<trkpt lat="33.810313" lon="-118.393867">
  <ele>-0.132</ele>
  <time>2026-09-01T01:17:26Z</time>
  <course>187.27</course>
  <speed>0.03605551275463989</speed>
  <fix>3d</fix>
</trkpt>
<trkpt lat="33.810313" lon="-118.393867">
  <ele>-0.12</ele>
  <time>2026-09-01T01:17:26Z</time>
  <course>0.0</course>
  <speed>0.0</speed>
  <fix>3d</fix>
</trkpt>
<trkpt lat="33.810313" lon="-118.393867">
  <ele>-0.134</ele>
  <time>2026-09-01T01:17:26Z</time>
  <course>187.26</course>
  <speed>0.03605551275463989</speed>
  <fix>3d</fix>
</trkpt>
<trkpt lat="33.810313" lon="-118.393867">
  <ele>-0.12</ele>
  <time>2026-09-01T01:17:26Z</time>
  <course>0.0</course>
  <speed>0.0</speed>
  <fix>3d</fix>
</trkpt>
<trkpt lat="33.810313" lon="-118.393867">
  <ele>-0.136</ele>
  <time>2026-09-01T01:17:26Z</time>
  <course>187.26</course>
  <speed>0.03605551275463989</speed>
  <fix>3d</fix>
</trkpt>
<trkpt lat="33.810313" lon="-118.393867">
  <ele>-0.12</ele>
  <time>2026-09-01T01:17:26Z</time>
  <course>0.0</course>
  <speed>0.0</speed>
  <fix>3d</fix>
</trkpt>
<trkpt lat="33.810313" lon="-118.393867">
  <ele>-0.136</ele>
  <time>2026-09-01T01:17:26Z</time>
  <course>187.25</course>
  <speed>0.03605551275463989</speed>
  <fix>3d</fix>
</trkpt>
<trkpt lat="33.810313" lon="-118.393867">
  <ele>-0.12</ele>
  <time>2026-09-01T01:17:26Z</time>
  <course>0.0</course>
  <speed>0.0</speed>
  <fix>3d</fix>
</trkpt>
<trkpt lat="33.810313" lon="-118.393867">
  <ele>-0.135</ele>
  <time>2026-09-01T01:17:26Z</time>
  <course>187.25</course>
  <speed>0.03605551275463989</speed>
  <fix>3d</fix>
</trkpt>
<trkpt lat="33.810313" lon="-118.393867">
  <ele>-0.12</ele>
  <time>2026-09-01T01:17:26Z</time>
  <course>0.0</course>
  <speed>0.0</speed>
  <fix>3d</fix>
</trkpt>
<trkpt lat="33.810313" lon="-118.393867">
  <ele>-0.134</ele>
  <time>2026-09-01T01:17:26Z</time>
  <course>187.24</course>
  <speed>0.03605551275463989</speed>
  <fix>3d</fix>
</trkpt>
<trkpt lat="33.810313" lon="-118.393867">
  <ele>-0.12</ele>
  <time>2026-09-01T01:17:26Z</time>
  <course>0.0</course>
  <speed>0.0</speed>
  <fix>3d</fix>
</trkpt>
<trkpt lat="33.810313" lon="-118.393867">
  <ele>-0.132</ele>
  <time>2026-09-01T01:17:26Z</time>
  <course>187.24</course>
  <speed>0.03605551275463989</speed>
  <fix>3d</fix>
</trkpt>
<trkpt lat="33.810313" lon="-118.393867">
  <ele>-0.12</ele>
  <time>2026-09-01T01:17:26Z</time>
  <course>0.0</course>
  <speed>0.0</speed>
  <fix>3d</fix>
</trkpt>
<trkpt lat="33.810313" lon="-118.393867">
  <ele>-0.131</ele>
  <time>2026-09-01T01:17:26Z</time>
  <course>187.23</course>
  <speed>0.03605551275463989</speed>
  <fix>3d</fix>
</trkpt>
<trkpt lat="33.810313" lon="-118.393867">
  <ele>-0.12</ele>
  <time>2026-09-01T01:17:26Z</time>
  <course>0.0</course>
  <speed>0.0</speed>
  <fix>3d</fix>
</trkpt>
<trkpt lat="33.810313" lon="-118.393867">
  <ele>-0.131</ele>
  <time>2026-09-01T01:17:26Z</time>
  <course>187.23</course>
  <speed>0.03605551275463989</speed>
  <fix>3d</fix>
</trkpt>
<trkpt lat="33.810313" lon="-118.393867">
  <ele>-0.12</ele>
  <time>2026-09-01T01:17:26Z</time>
  <course>0.0</course>
  <speed>0.0</speed>
  <fix>3d</fix>
</trkpt>
<trkpt lat="33.810313" lon="-118.393867">
  <ele>-0.132</ele>
  <time>2026-09-01T01:17:26Z</time>
  <course>187.22</course>
  <speed>0.03605551275463989</speed>
  <fix>3d</fix>
</trkpt>
<trkpt lat="33.810313" lon="-118.393867">
  <ele>-0.12</ele>
  <time>2026-09-01T01:17:26Z</time>
  <course>0.0</course>
  <speed>0.0</speed>
  <fix>3d</fix>
</trkpt>
<trkpt lat="33.810313" lon="-118.393867">
  <ele>-0.132</ele>
  <time>2026-09-01T01:17:26Z</time>
  <course>187.21</course>
  <speed>0.03605551275463989</speed>
  <fix>3d</fix>
</trkpt>
<trkpt lat="33.810313" lon="-118.393867">
  <ele>-0.12</ele>
  <time>2026-09-01T01:17:26Z</time>
  <course>0.0</course>
  <speed>0.0</speed>
  <fix>3d</fix>
</trkpt>
<trkpt lat="33.810313" lon="-118.393867">
  <ele>-0.133</ele>
  <time>2026-09-01T01:17:26Z</time>
  <course>187.21</course>
  <speed>0.03605551275463989</speed>
  <fix>3d</fix>
</trkpt>
<trkpt lat="33.810313" lon="-118.393867">
  <ele>-0.12</ele>
  <time>2026-09-01T01:17:26Z</time>
  <course>0.0</course>
  <speed>0.0</speed>
  <fix>3d</fix>
</trkpt>
<trkpt lat="33.810313" lon="-118.393867">
  <ele>-0.132</ele>
  <time>2026-09-01T01:17:26Z</time>
  <course>187.2</course>
  <speed>0.03605551275463989</speed>
  <fix>3d</fix>
</trkpt>
<trkpt lat="33.810313" lon="-118.393867">
  <ele>-0.12</ele>
  <time>2026-09-01T01:17:26Z</time>
  <course>0.0</course>
  <speed>0.0</speed>
  <fix>3d</fix>
</trkpt>
<trkpt lat="33.810313" lon="-118.393867">
  <ele>-0.131</ele>
  <time>2026-09-01T01:17:26Z</time>
  <course>187.2</course>
  <speed>0.03605551275463989</speed>
  <fix>3d</fix>
</trkpt>
<trkpt lat="33.810313" lon="-118.393867">
  <ele>-0.12</ele>
  <time>2026-09-01T01:17:26Z</time>
  <course>0.0</course>
  <speed>0.0</speed>
  <fix>3d</fix>
</trkpt>
<trkpt lat="33.810313" lon="-118.393867">
  <ele>-0.129</ele>
  <time>2026-09-01T01:17:26Z</time>
  <course>187.19</course>
  <speed>0.03605551275463989</speed>
  <fix>3d</fix>
</trkpt>
<trkpt lat="33.810313" lon="-118.393867">
  <ele>-0.12</ele>
  <time>2026-09-01T01:17:26Z</time>
  <course>0.0</course>
  <speed>0.0</speed>
  <fix>3d</fix>
</trkpt>
<trkpt lat="33.810313" lon="-118.393867">
  <ele>-0.126</ele>
  <time>2026-09-01T01:17:26Z</time>
  <course>187.19</course>
  <speed>0.03605551275463989</speed>
  <fix>3d</fix>
</trkpt>
<trkpt lat="33.810313" lon="-118.393867">
  <ele>-0.12</ele>
  <time>2026-09-01T01:17:26Z</time>
  <course>0.0</course>
  <speed>0.0</speed>
  <fix>3d</fix>
</trkpt>
<trkpt lat="33.810313" lon="-118.393867">
  <ele>-0.124</ele>
  <time>2026-09-01T01:17:26Z</time>
  <course>187.18</course>
  <speed>0.03605551275463989</speed>
  <fix>3d</fix>
</trkpt>
<trkpt lat="33.810313" lon="-118.393867">
  <ele>-0.12</ele>
  <time>2026-09-01T01:17:26Z</time>
  <course>0.0</course>
  <speed>0.0</speed>
  <fix>3d</fix>
</trkpt>
<trkpt lat="33.810313" lon="-118.393867">
  <ele>-0.123</ele>
  <time>2026-09-01T01:17:26Z</time>
  <course>187.18</course>
  <speed>0.03605551275463989</speed>
  <fix>3d</fix>
</trkpt>
<trkpt lat="33.810313" lon="-118.393867">
  <ele>-0.12</ele>
  <time>2026-09-01T01:17:26Z</time>
  <course>0.0</course>
  <speed>0.0</speed>
  <fix>3d</fix>
</trkpt>
<trkpt lat="33.810313" lon="-118.393867">
  <ele>-0.123</ele>
  <time>2026-09-01T01:17:26Z</time>
  <course>187.17</course>
  <speed>0.03605551275463989</speed>
  <fix>3d</fix>
</trkpt>
<trkpt lat="33.810313" lon="-118.393867">
  <ele>-0.12</ele>
  <time>2026-09-01T01:17:26Z</time>
  <course>0.0</course>
  <speed>0.0</speed>
  <fix>3d</fix>
</trkpt>
<trkpt lat="33.810313" lon="-118.393867">
  <ele>-0.122</ele>
  <time>2026-09-01T01:17:26Z</time>
  <course>187.17</course>
  <speed>0.0</speed>
  <fix>3d</fix>
</trkpt>
<trkpt lat="33.810313" lon="-118.393867">
  <ele>-0.12</ele>
  <time>2026-09-01T01:17:26Z</time>
  <course>0.0</course>
  <speed>0.0</speed>
  <fix>3d</fix>
</trkpt>
<trkpt lat="33.810313" lon="-118.393867">
  <ele>-0.121</ele>
  <time>2026-09-01T01:17:26Z</time>
  <course>187.16</course>
  <speed>0.0</speed>
  <fix>3d</fix>
</trkpt>
<trkpt lat="33.810313" lon="-118.393867">
  <ele>-0.12</ele>
  <time>2026-09-01T01:17:26Z</time>
  <course>0.0</course>
  <speed>0.0</speed>
  <fix>3d</fix>
</trkpt>
<trkpt lat="33.810313" lon="-118.393867">
  <ele>-0.121</ele>
  <time>2026-09-01T01:17:26Z</time>
  <course>187.16</course>
  <speed>0.0</speed>
  <fix>3d</fix>
</trkpt>
<trkpt lat="33.810313" lon="-118.393867">
  <ele>-0.12</ele>
  <time>2026-09-01T01:17:26Z</time>
  <course>0.0</course>
  <speed>0.0</speed>
  <fix>3d</fix>
</trkpt>
<trkpt lat="33.810313" lon="-118.393867">
  <ele>-0.119</ele>
  <time>2026-09-01T01:17:26Z</time>
  <course>187.15</course>
  <speed>0.0</speed>
  <fix>3d</fix>
</trkpt>
<trkpt lat="33.810313" lon="-118.393867">
  <ele>-0.12</ele>
  <time>2026-09-01T01:17:26Z</time>
  <course>0.0</course>
  <speed>0.0</speed>
  <fix>3d</fix>
</trkpt>
<trkpt lat="33.810313" lon="-118.393867">
  <ele>-0.116</ele>
  <time>2026-09-01T01:17:26Z</time>
  <course>187.15</course>
  <speed>0.0</speed>
  <fix>3d</fix>
</trkpt>
<trkpt lat="33.810313" lon="-118.393867">
  <ele>-0.12</ele>
  <time>2026-09-01T01:17:26Z</time>
  <course>0.0</course>
  <speed>0.0</speed>
  <fix>3d</fix>
</trkpt>
<trkpt lat="33.810313" lon="-118.393867">
  <ele>-0.114</ele>
  <time>2026-09-01T01:17:26Z</time>
  <course>187.14</course>
  <speed>0.0</speed>
  <fix>3d</fix>
</trkpt>
<trkpt lat="33.810313" lon="-118.393867">
  <ele>-0.12</ele>
  <time>2026-09-01T01:17:26Z</time>
  <course>0.0</course>
  <speed>0.0</speed>
  <fix>3d</fix>
</trkpt>
<trkpt lat="33.810313" lon="-118.393867">
  <ele>-0.113</ele>
  <time>2026-09-01T01:17:26Z</time>
  <course>187.14</course>
  <speed>0.0</speed>
  <fix>3d</fix>
</trkpt>
<trkpt lat="33.810313" lon="-118.393867">
  <ele>-0.12</ele>
  <time>2026-09-01T01:17:26Z</time>
  <course>0.0</course>
  <speed>0.0</speed>
  <fix>3d</fix>
</trkpt>
<trkpt lat="33.810313" lon="-118.393867">
  <ele>-0.112</ele>
  <time>2026-09-01T01:17:26Z</time>
  <course>187.13</course>
  <speed>0.0</speed>
  <fix>3d</fix>
</trkpt>
<trkpt lat="33.810313" lon="-118.393867">
  <ele>-0.12</ele>
  <time>2026-09-01T01:17:26Z</time>
  <course>0.0</course>
  <speed>0.0</speed>
  <fix>3d</fix>
</trkpt>
<trkpt lat="33.810313" lon="-118.393867">
  <ele>-0.113</ele>
  <time>2026-09-01T01:17:26Z</time>
  <course>187.13</course>
  <speed>0.0</speed>
  <fix>3d</fix>
</trkpt>
<trkpt lat="33.810313" lon="-118.393867">
  <ele>-0.12</ele>
  <time>2026-09-01T01:17:26Z</time>
  <course>0.0</course>
  <speed>0.0</speed>
  <fix>3d</fix>
</trkpt>
<trkpt lat="33.810313" lon="-118.393867">
  <ele>-0.114</ele>
  <time>2026-09-01T01:17:26Z</time>
  <course>187.12</course>
  <speed>0.0</speed>
  <fix>3d</fix>
</trkpt>
<trkpt lat="33.810313" lon="-118.393867">
  <ele>-0.12</ele>
  <time>2026-09-01T01:17:26Z</time>
  <course>0.0</course>
  <speed>0.0</speed>
  <fix>3d</fix>
</trkpt>
<trkpt lat="33.810313" lon="-118.393867">
  <ele>-0.116</ele>
  <time>2026-09-01T01:17:26Z</time>
  <course>187.12</course>
  <speed>0.0</speed>
  <fix>3d</fix>
</trkpt>
<trkpt lat="33.810313" lon="-118.393867">
  <ele>-0.12</ele>
  <time>2026-09-01T01:17:26Z</time>
  <course>0.0</course>
  <speed>0.0</speed>
  <fix>3d</fix>
</trkpt>
<trkpt lat="33.810313" lon="-118.393867">
  <ele>-0.119</ele>
  <time>2026-09-01T01:17:26Z</time>
  <course>187.11</course>
  <speed>0.01</speed>
  <fix>3d</fix>
</trkpt>
<trkpt lat="33.810313" lon="-118.393867">
  <ele>-0.12</ele>
  <time>2026-09-01T01:17:26Z</time>
  <course>0.0</course>
  <speed>0.0</speed>
  <fix>3d</fix>
</trkpt>
<trkpt lat="33.810313" lon="-118.393867">
  <ele>-0.119</ele>
  <time>2026-09-01T01:17:26Z</time>
  <course>187.11</course>
  <speed>0.01</speed>
  <fix>3d</fix>
</trkpt>
<trkpt lat="33.810313" lon="-118.393867">
  <ele>-0.12</ele>
  <time>2026-09-01T01:17:26Z</time>
  <course>187.11</course>
  <speed>0.01</speed>
  <fix>3d</fix>
</trkpt>
<trkpt lat="33.810313" lon="-118.393867">
  <ele>-0.12</ele>
  <time>2026-09-01T01:17:26Z</time>
  <course>0.0</course>
  <speed>0.0</speed>
  <fix>3d</fix>
</trkpt>
<trkpt lat="33.810313" lon="-118.393867">
  <ele>-0.121</ele>
  <time>2026-09-01T01:17:26Z</time>
  <course>187.1</course>
  <speed>0.01</speed>
  <fix>3d</fix>
</trkpt>
<trkpt lat="33.810313" lon="-118.393867">
  <ele>-0.12</ele>
  <time>2026-09-01T01:17:26Z</time>
  <course>0.0</course>
  <speed>0.0</speed>
  <fix>3d</fix>
</trkpt>
<trkpt lat="33.810313" lon="-118.393867">
  <ele>-0.122</ele>
  <time>2026-09-01T01:17:26Z</time>
  <course>187.1</course>
  <speed>0.01414213562373095</speed>
  <fix>3d</fix>
</trkpt>
<trkpt lat="33.810313" lon="-118.393867">
  <ele>-0.12</ele>
  <time>2026-09-01T01:17:26Z</time>
  <course>0.0</course>
  <speed>0.0</speed>
  <fix>3d</fix>
</trkpt>
<trkpt lat="33.810313" lon="-118.393867">
  <ele>-0.122</ele>
  <time>2026-09-01T01:17:26Z</time>
  <course>187.1</course>
  <speed>0.01414213562373095</speed>
  <fix>3d</fix>
</trkpt>
<trkpt lat="33.810313" lon="-118.393867">
  <ele>-0.12</ele>
  <time>2026-09-01T01:17:26Z</time>
  <course>0.0</course>
  <speed>0.0</speed>
  <fix>3d</fix>
</trkpt>
<trkpt lat="33.810313" lon="-118.393867">
  <ele>-0.123</ele>
  <time>2026-09-01T01:17:26Z</time>
  <course>187.09</course>
  <speed>0.01414213562373095</speed>
  <fix>3d</fix>
</trkpt>
<trkpt lat="33.810313" lon="-118.393867">
  <ele>-0.12</ele>
  <time>2026-09-01T01:17:26Z</time>
  <course>0.0</course>
  <speed>0.0</speed>
  <fix>3d</fix>
</trkpt>
<trkpt lat="33.810313" lon="-118.393867">
  <ele>-0.124</ele>
  <time>2026-09-01T01:17:26Z</time>
  <course>187.09</course>
  <speed>0.01414213562373095</speed>
  <fix>3d</fix>
</trkpt>
<trkpt lat="33.810313" lon="-118.393867">
  <ele>-0.12</ele>
  <time>2026-09-01T01:17:26Z</time>
  <course>0.0</course>
  <speed>0.0</speed>
  <fix>3d</fix>
</trkpt>
<trkpt lat="33.810313" lon="-118.393867">
  <ele>-0.126</ele>
  <time>2026-09-01T01:17:26Z</time>
  <course>187.08</course>
  <speed>0.01414213562373095</speed>
  <fix>3d</fix>
</trkpt>
<trkpt lat="33.810313" lon="-118.393867">
  <ele>-0.12</ele>
  <time>2026-09-01T01:17:26Z</time>
  <course>0.0</course>
  <speed>0.0</speed>
  <fix>3d</fix>
</trkpt>
<trkpt lat="33.810313" lon="-118.393867">
  <ele>-0.128</ele>
  <time>2026-09-01T01:17:26Z</time>
  <course>187.08</course>
  <speed>0.01414213562373095</speed>
  <fix>3d</fix>
</trkpt>
<trkpt lat="33.810313" lon="-118.393867">
  <ele>-0.12</ele>
  <time>2026-09-01T01:17:26Z</time>
  <course>0.0</course>
  <speed>0.0</speed>
  <fix>3d</fix>
</trkpt>
<trkpt lat="33.810313" lon="-118.393867">
  <ele>-0.13</ele>
  <time>2026-09-01T01:17:26Z</time>
  <course>187.07</course>
  <speed>0.01414213562373095</speed>
  <fix>3d</fix>
</trkpt>
<trkpt lat="33.810313" lon="-118.393867">
  <ele>-0.12</ele>
  <time>2026-09-01T01:17:26Z</time>
  <course>0.0</course>
  <speed>0.0</speed>
  <fix>3d</fix>
</trkpt>
<trkpt lat="33.810313" lon="-118.393867">
  <ele>-0.134</ele>
  <time>2026-09-01T01:17:26Z</time>
  <course>187.07</course>
  <speed>0.01414213562373095</speed>
  <fix>3d</fix>
</trkpt>
<trkpt lat="33.810313" lon="-118.393867">
  <ele>-0.12</ele>
  <time>2026-09-01T01:17:26Z</time>
  <course>0.0</course>
  <speed>0.0</speed>
  <fix>3d</fix>
</trkpt>
<trkpt lat="33.810313" lon="-118.393867">
  <ele>-0.14</ele>
  <time>2026-09-01T01:17:26Z</time>
  <course>187.06</course>
  <speed>0.01414213562373095</speed>
  <fix>3d</fix>
</trkpt>
<trkpt lat="33.810313" lon="-118.393867">
  <ele>-0.12</ele>
  <time>2026-09-01T01:17:26Z</time>
  <course>0.0</course>
  <speed>0.0</speed>
  <fix>3d</fix>
</trkpt>
<trkpt lat="33.810313" lon="-118.393867">
  <ele>-0.167</ele>
  <time>2026-09-01T01:17:26Z</time>
  <course>187.06</course>
  <speed>0.01414213562373095</speed>
  <fix>3d</fix>
</trkpt>
<trkpt lat="33.810313" lon="-118.393867">
  <ele>-0.12</ele>
  <time>2026-09-01T01:17:26Z</time>
  <course>0.0</course>
  <speed>0.0</speed>
  <fix>3d</fix>
</trkpt>
<trkpt lat="33.810313" lon="-118.393867">
  <ele>-0.209</ele>
  <time>2026-09-01T01:17:26Z</time>
  <course>187.05</course>
  <speed>0.01414213562373095</speed>
  <fix>3d</fix>
</trkpt>
<trkpt lat="33.810313" lon="-118.393867">
  <ele>-0.14</ele>
  <time>2026-09-01T01:17:26Z</time>
  <course>0.0</course>
  <speed>0.0</speed>
  <fix>3d</fix>
</trkpt>
<trkpt lat="33.810313" lon="-118.393867">
  <ele>-0.263</ele>
  <time>2026-09-01T01:17:26Z</time>
  <course>187.05</course>
  <speed>0.01414213562373095</speed>
  <fix>3d</fix>
</trkpt>
<trkpt lat="33.810313" lon="-118.393867">
  <ele>-0.14</ele>
  <time>2026-09-01T01:17:26Z</time>
  <course>0.0</course>
  <speed>0.0</speed>
  <fix>3d</fix>
</trkpt>
<trkpt lat="33.810313" lon="-118.393867">
  <ele>-0.266</ele>
  <time>2026-09-01T01:17:26Z</time>
  <course>187.05</course>
  <speed>0.01414213562373095</speed>
  <fix>3d</fix>
</trkpt>
<trkpt lat="33.810313" lon="-118.393867">
  <ele>-0.322</ele>
  <time>2026-09-01T01:17:26Z</time>
  <course>187.04</course>
  <speed>0.01414213562373095</speed>
  <fix>3d</fix>
</trkpt>
<trkpt lat="33.810313" lon="-118.393867">
  <ele>-0.21</ele>
  <time>2026-09-01T01:17:26Z</time>
  <course>0.0</course>
  <speed>0.0</speed>
  <fix>3d</fix>
</trkpt>
<trkpt lat="33.810313" lon="-118.393867">
  <ele>-0.323</ele>
  <time>2026-09-01T01:17:26Z</time>
  <course>187.04</course>
  <speed>0.01414213562373095</speed>
  <fix>3d</fix>
</trkpt>
<trkpt lat="33.810313" lon="-118.393867">
  <ele>-0.383</ele>
  <time>2026-09-01T01:17:26Z</time>
  <course>187.04</course>
  <speed>0.01414213562373095</speed>
  <fix>3d</fix>
</trkpt>
<trkpt lat="33.810313" lon="-118.393867">
  <ele>-0.21</ele>
  <time>2026-09-01T01:17:26Z</time>
  <course>0.0</course>
  <speed>0.0</speed>
  <fix>3d</fix>
</trkpt>
<trkpt lat="33.810313" lon="-118.393867">
  <ele>-0.404</ele>
  <time>2026-09-01T01:17:26Z</time>
  <course>187.04</course>
  <speed>0.01414213562373095</speed>
  <fix>3d</fix>
</trkpt>
<trkpt lat="33.810313" lon="-118.393867">
  <ele>-0.446</ele>
  <time>2026-09-01T01:17:26Z</time>
  <course>187.03</course>
  <speed>0.01414213562373095</speed>
  <fix>3d</fix>
</trkpt>
<trkpt lat="33.810313" lon="-118.393867">
  <ele>-0.32</ele>
  <time>2026-09-01T01:17:26Z</time>
  <course>0.0</course>
  <speed>0.0</speed>
  <fix>3d</fix>
</trkpt>
<trkpt lat="33.810313" lon="-118.393867">
  <ele>-0.466</ele>
  <time>2026-09-01T01:17:26Z</time>
  <course>187.03</course>
  <speed>0.01414213562373095</speed>
  <fix>3d</fix>
</trkpt>
<trkpt lat="33.810313" lon="-118.393867">
  <ele>-0.51</ele>
  <time>2026-09-01T01:17:26Z</time>
  <course>187.03</course>
  <speed>0.01414213562373095</speed>
  <fix>3d</fix>
</trkpt>
<trkpt lat="33.810313" lon="-118.393867">
  <ele>-0.32</ele>
  <time>2026-09-01T01:17:26Z</time>
  <course>0.0</course>
  <speed>0.0</speed>
  <fix>3d</fix>
</trkpt>
<trkpt lat="33.810313" lon="-118.393867">
  <ele>-0.531</ele>
  <time>2026-09-01T01:17:26Z</time>
  <course>187.03</course>
  <speed>0.01414213562373095</speed>
  <fix>3d</fix>
</trkpt>
<trkpt lat="33.810313" lon="-118.393867">
  <ele>-0.573</ele>
  <time>2026-09-01T01:17:26Z</time>
  <course>187.02</course>
  <speed>0.01414213562373095</speed>
  <fix>3d</fix>
</trkpt>
<trkpt lat="33.810313" lon="-118.393867">
  <ele>-0.44</ele>
  <time>2026-09-01T01:17:26Z</time>
  <course>0.0</course>
  <speed>0.0</speed>
  <fix>3d</fix>
</trkpt>
<trkpt lat="33.810313" lon="-118.393867">
  <ele>-0.597</ele>
  <time>2026-09-01T01:17:26Z</time>
  <course>187.02</course>
  <speed>0.01414213562373095</speed>
  <fix>3d</fix>
</trkpt>
<trkpt lat="33.810313" lon="-118.393867">
  <ele>-0.638</ele>
  <time>2026-09-01T01:17:26Z</time>
  <course>187.02</course>
  <speed>0.01</speed>
  <fix>3d</fix>
</trkpt>
<trkpt lat="33.810313" lon="-118.393867">
  <ele>-0.44</ele>
  <time>2026-09-01T01:17:26Z</time>
  <course>0.0</course>
  <speed>0.0</speed>
  <fix>3d</fix>
</trkpt>
<trkpt lat="33.810313" lon="-118.393867">
  <ele>-0.659</ele>
  <time>2026-09-01T01:17:26Z</time>
  <course>187.02</course>
  <speed>0.01</speed>
  <fix>3d</fix>
</trkpt>
<trkpt lat="33.810313" lon="-118.393867">
  <ele>-0.703</ele>
  <time>2026-09-01T01:17:26Z</time>
  <course>187.01</course>
  <speed>0.01</speed>
  <fix>3d</fix>
</trkpt>
<trkpt lat="33.810313" lon="-118.393867">
  <ele>-0.56</ele>
  <time>2026-09-01T01:17:26Z</time>
  <course>0.0</course>
  <speed>0.0</speed>
  <fix>3d</fix>
</trkpt>
<trkpt lat="33.810313" lon="-118.393867">
  <ele>-0.705</ele>
  <time>2026-09-01T01:17:26Z</time>
  <course>187.01</course>
  <speed>0.01</speed>
  <fix>3d</fix>
</trkpt>
<trkpt lat="33.810313" lon="-118.393867">
  <ele>-0.768</ele>
  <time>2026-09-01T01:17:26Z</time>
  <course>184.83</course>
  <speed>0.01</speed>
  <fix>3d</fix>
</trkpt>
<trkpt lat="33.810313" lon="-118.393867">
  <ele>-0.56</ele>
  <time>2026-09-01T01:17:26Z</time>
  <course>0.0</course>
  <speed>0.0</speed>
  <fix>3d</fix>
</trkpt>
<trkpt lat="33.810313" lon="-118.393867">
  <ele>-0.769</ele>
  <time>2026-09-01T01:17:26Z</time>
  <course>184.83</course>
  <speed>0.01</speed>
  <fix>3d</fix>
</trkpt>
<trkpt lat="33.810313" lon="-118.393867">
  <ele>-0.833</ele>
  <time>2026-09-01T01:17:26Z</time>
  <course>184.82</course>
  <speed>0.01</speed>
  <fix>3d</fix>
</trkpt>
<trkpt lat="33.810313" lon="-118.393867">
  <ele>-0.68</ele>
  <time>2026-09-01T01:17:26Z</time>
  <course>0.0</course>
  <speed>0.0</speed>
  <fix>3d</fix>
</trkpt>
<trkpt lat="33.810313" lon="-118.393867">
  <ele>-0.834</ele>
  <time>2026-09-01T01:17:26Z</time>
  <course>184.82</course>
  <speed>0.01</speed>
  <fix>3d</fix>
</trkpt>
<trkpt lat="33.810313" lon="-118.393867">
  <ele>-0.899</ele>
  <time>2026-09-01T01:17:26Z</time>
  <course>184.82</course>
  <speed>0.01</speed>
  <fix>3d</fix>
</trkpt>
<trkpt lat="33.810313" lon="-118.393867">
  <ele>-0.68</ele>
  <time>2026-09-01T01:17:26Z</time>
  <course>0.0</course>
  <speed>0.0</speed>
  <fix>3d</fix>
</trkpt>
<trkpt lat="33.810313" lon="-118.393867">
  <ele>-0.9</ele>
  <time>2026-09-01T01:17:26Z</time>
  <course>184.82</course>
  <speed>0.01</speed>
  <fix>3d</fix>
</trkpt>
<trkpt lat="33.810313" lon="-118.393867">
  <ele>-0.964</ele>
  <time>2026-09-01T01:17:26Z</time>
  <course>184.82</course>
  <speed>0.0</speed>
  <fix>3d</fix>
</trkpt>
<trkpt lat="33.810313" lon="-118.393867">
  <ele>-0.8</ele>
  <time>2026-09-01T01:17:26Z</time>
  <course>0.0</course>
  <speed>0.0</speed>
  <fix>3d</fix>
</trkpt>
<trkpt lat="33.810313" lon="-118.393867">
  <ele>-0.965</ele>
  <time>2026-09-01T01:17:26Z</time>
  <course>184.82</course>
  <speed>0.0</speed>
  <fix>3d</fix>
</trkpt>
<trkpt lat="33.810313" lon="-118.393867">
  <ele>-1.028</ele>
  <time>2026-09-01T01:17:26Z</time>
  <course>184.81</course>
  <speed>0.0</speed>
  <fix>3d</fix>
</trkpt>
<trkpt lat="33.810313" lon="-118.393867">
  <ele>-0.8</ele>
  <time>2026-09-01T01:17:26Z</time>
  <course>0.0</course>
  <speed>0.0</speed>
  <fix>3d</fix>
</trkpt>
<trkpt lat="33.810313" lon="-118.393867">
  <ele>-1.031</ele>
  <time>2026-09-01T01:17:26Z</time>
  <course>184.81</course>
  <speed>0.0</speed>
  <fix>3d</fix>
</trkpt>
<trkpt lat="33.810313" lon="-118.393867">
  <ele>-1.093</ele>
  <time>2026-09-01T01:17:26Z</time>
  <course>184.81</course>
  <speed>0.0</speed>
  <fix>3d</fix>
</trkpt>
<trkpt lat="33.810313" lon="-118.393867">
  <ele>-0.92</ele>
  <time>2026-09-01T01:17:26Z</time>
  <course>0.0</course>
  <speed>0.0</speed>
  <fix>3d</fix>
</trkpt>
<trkpt lat="33.810313" lon="-118.393867">
  <ele>-1.096</ele>
  <time>2026-09-01T01:17:26Z</time>
  <course>184.81</course>
  <speed>0.0</speed>
  <fix>3d</fix>
</trkpt>
<trkpt lat="33.810313" lon="-118.393867">
  <ele>-1.157</ele>
  <time>2026-09-01T01:17:26Z</time>
  <course>184.81</course>
  <speed>0.0</speed>
  <fix>3d</fix>
</trkpt>
<trkpt lat="33.810313" lon="-118.393867">
  <ele>-0.92</ele>
  <time>2026-09-01T01:17:26Z</time>
  <course>0.0</course>
  <speed>0.0</speed>
  <fix>3d</fix>
</trkpt>
<trkpt lat="33.810313" lon="-118.393867">
  <ele>-1.158</ele>
  <time>2026-09-01T01:17:26Z</time>
  <course>184.81</course>
  <speed>0.0</speed>
  <fix>3d</fix>
</trkpt>
<trkpt lat="33.810313" lon="-118.393867">
  <ele>-1.221</ele>
  <time>2026-09-01T01:17:26Z</time>
  <course>184.81</course>
  <speed>0.0</speed>
  <fix>3d</fix>
</trkpt>
<trkpt lat="33.810313" lon="-118.393867">
  <ele>-1.04</ele>
  <time>2026-09-01T01:17:26Z</time>
  <course>0.0</course>
  <speed>0.0</speed>
  <fix>3d</fix>
</trkpt>
<trkpt lat="33.810313" lon="-118.393867">
  <ele>-1.223</ele>
  <time>2026-09-01T01:17:26Z</time>
  <course>184.81</course>
  <speed>0.0</speed>
  <fix>3d</fix>
</trkpt>
<trkpt lat="33.810313" lon="-118.393867">
  <ele>-1.285</ele>
  <time>2026-09-01T01:17:26Z</time>
  <course>184.8</course>
  <speed>0.0</speed>
  <fix>3d</fix>
</trkpt>
<trkpt lat="33.810313" lon="-118.393867">
  <ele>-1.04</ele>
  <time>2026-09-01T01:17:26Z</time>
  <course>0.0</course>
  <speed>0.0</speed>
  <fix>3d</fix>
</trkpt>
<trkpt lat="33.810313" lon="-118.393867">
  <ele>-1.287</ele>
  <time>2026-09-01T01:17:26Z</time>
  <course>184.8</course>
  <speed>0.0</speed>
  <fix>3d</fix>
</trkpt>
<trkpt lat="33.810313" lon="-118.393867">
  <ele>-1.35</ele>
  <time>2026-09-01T01:17:26Z</time>
  <course>184.8</course>
  <speed>0.0</speed>
  <fix>3d</fix>
</trkpt>
<trkpt lat="33.810313" lon="-118.393867">
  <ele>-1.16</ele>
  <time>2026-09-01T01:17:26Z</time>
  <course>0.0</course>
  <speed>0.0</speed>
  <fix>3d</fix>
</trkpt>
<trkpt lat="33.810313" lon="-118.393867">
  <ele>-1.351</ele>
  <time>2026-09-01T01:17:26Z</time>
  <course>184.8</course>
  <speed>0.0</speed>
  <fix>3d</fix>
</trkpt>
<trkpt lat="33.810313" lon="-118.393867">
  <ele>-1.413</ele>
  <time>2026-09-01T01:17:26Z</time>
  <course>184.8</course>
  <speed>0.0</speed>
  <fix>3d</fix>
</trkpt>
<trkpt lat="33.810313" lon="-118.393867">
  <ele>-1.16</ele>
  <time>2026-09-01T01:17:26Z</time>
  <course>0.0</course>
  <speed>0.0</speed>
  <fix>3d</fix>
</trkpt>
<trkpt lat="33.810313" lon="-118.393867">
  <ele>-1.414</ele>
  <time>2026-09-01T01:17:26Z</time>
  <course>184.8</course>
  <speed>0.0</speed>
  <fix>3d</fix>
</trkpt>
<trkpt lat="33.810313" lon="-118.393867">
  <ele>-1.474</ele>
  <time>2026-09-01T01:17:26Z</time>
  <course>184.79</course>
  <speed>0.0</speed>
  <fix>3d</fix>
</trkpt>
<trkpt lat="33.810313" lon="-118.393867">
  <ele>-1.28</ele>
  <time>2026-09-01T01:17:26Z</time>
  <course>0.0</course>
  <speed>0.0</speed>
  <fix>3d</fix>
</trkpt>
<trkpt lat="33.810313" lon="-118.393867">
  <ele>-1.476</ele>
  <time>2026-09-01T01:17:26Z</time>
  <course>184.79</course>
  <speed>0.0</speed>
  <fix>3d</fix>
</trkpt>
<trkpt lat="33.810313" lon="-118.393867">
  <ele>-1.536</ele>
  <time>2026-09-01T01:17:26Z</time>
  <course>184.79</course>
  <speed>0.0</speed>
  <fix>3d</fix>
</trkpt>
<trkpt lat="33.810313" lon="-118.393867">
  <ele>-1.28</ele>
  <time>2026-09-01T01:17:26Z</time>
  <course>0.0</course>
  <speed>0.0</speed>
  <fix>3d</fix>
</trkpt>
<trkpt lat="33.810313" lon="-118.393867">
  <ele>-1.538</ele>
  <time>2026-09-01T01:17:26Z</time>
  <course>184.79</course>
  <speed>0.0</speed>
  <fix>3d</fix>
</trkpt>
<trkpt lat="33.810313" lon="-118.393867">
  <ele>-1.599</ele>
  <time>2026-09-01T01:17:26Z</time>
  <course>184.79</course>
  <speed>0.0</speed>
  <fix>3d</fix>
</trkpt>
<trkpt lat="33.810313" lon="-118.393867">
  <ele>-1.4</ele>
  <time>2026-09-01T01:17:26Z</time>
  <course>0.0</course>
  <speed>0.0</speed>
  <fix>3d</fix>
</trkpt>
<trkpt lat="33.810313" lon="-118.393867">
  <ele>-1.6</ele>
  <time>2026-09-01T01:17:26Z</time>
  <course>184.79</course>
  <speed>0.0</speed>
  <fix>3d</fix>
</trkpt>
<trkpt lat="33.810313" lon="-118.393867">
  <ele>-1.66</ele>
  <time>2026-09-01T01:17:26Z</time>
  <course>184.78</course>
  <speed>0.0</speed>
  <fix>3d</fix>
</trkpt>
<trkpt lat="33.810313" lon="-118.393867">
  <ele>-1.4</ele>
  <time>2026-09-01T01:17:26Z</time>
  <course>0.0</course>
  <speed>0.0</speed>
  <fix>3d</fix>
</trkpt>
<trkpt lat="33.810313" lon="-118.393867">
  <ele>-1.662</ele>
  <time>2026-09-01T01:17:26Z</time>
  <course>184.78</course>
  <speed>0.0</speed>
  <fix>3d</fix>
</trkpt>
<trkpt lat="33.810313" lon="-118.393867">
  <ele>-1.721</ele>
  <time>2026-09-01T01:17:26Z</time>
  <course>184.78</course>
  <speed>0.0</speed>
  <fix>3d</fix>
</trkpt>
<trkpt lat="33.810313" lon="-118.393867">
  <ele>-1.52</ele>
  <time>2026-09-01T01:17:26Z</time>
  <course>0.0</course>
  <speed>0.0</speed>
  <fix>3d</fix>
</trkpt>
<trkpt lat="33.810313" lon="-118.393867">
  <ele>-1.741</ele>
  <time>2026-09-01T01:17:26Z</time>
  <course>184.79</course>
  <speed>0.0</speed>
  <fix>3d</fix>
</trkpt>
<trkpt lat="33.810313" lon="-118.393867">
  <ele>-1.782</ele>
  <time>2026-09-01T01:17:26Z</time>
  <course>184.78</course>
  <speed>0.0</speed>
  <fix>3d</fix>
</trkpt>
<trkpt lat="33.810313" lon="-118.393867">
  <ele>-1.52</ele>
  <time>2026-09-01T01:17:26Z</time>
  <course>0.0</course>
  <speed>0.0</speed>
  <fix>3d</fix>
</trkpt>
<trkpt lat="33.810313" lon="-118.393867">
  <ele>-1.783</ele>
  <time>2026-09-01T01:17:26Z</time>
  <course>184.78</course>
  <speed>0.0</speed>
  <fix>3d</fix>
</trkpt>
<trkpt lat="33.810313" lon="-118.393867">
  <ele>-1.842</ele>
  <time>2026-09-01T01:17:26Z</time>
  <course>184.79</course>
  <speed>0.0</speed>
  <fix>3d</fix>
</trkpt>
<trkpt lat="33.810313" lon="-118.393867">
  <ele>-1.64</ele>
  <time>2026-09-01T01:17:26Z</time>
  <course>0.0</course>
  <speed>0.0</speed>
  <fix>3d</fix>
</trkpt>
<trkpt lat="33.810313" lon="-118.393867">
  <ele>-1.861</ele>
  <time>2026-09-01T01:17:26Z</time>
  <course>184.79</course>
  <speed>0.0</speed>
  <fix>3d</fix>
</trkpt>
<trkpt lat="33.810313" lon="-118.393867">
  <ele>-1.901</ele>
  <time>2026-09-01T01:17:26Z</time>
  <course>184.8</course>
  <speed>0.0</speed>
  <fix>3d</fix>
</trkpt>
<trkpt lat="33.810313" lon="-118.393867">
  <ele>-1.64</ele>
  <time>2026-09-01T01:17:26Z</time>
  <course>0.0</course>
  <speed>0.0</speed>
  <fix>3d</fix>
</trkpt>
<trkpt lat="33.810313" lon="-118.393867">
  <ele>-1.921</ele>
  <time>2026-09-01T01:17:26Z</time>
  <course>184.8</course>
  <speed>0.0</speed>
  <fix>3d</fix>
</trkpt>
<trkpt lat="33.810313" lon="-118.393867">
  <ele>-1.961</ele>
  <time>2026-09-01T01:17:26Z</time>
  <course>184.81</course>
  <speed>0.0</speed>
  <fix>3d</fix>
</trkpt>
<trkpt lat="33.810313" lon="-118.393867">
  <ele>-1.76</ele>
  <time>2026-09-01T01:17:26Z</time>
  <course>0.0</course>
  <speed>0.0</speed>
  <fix>3d</fix>
</trkpt>
<trkpt lat="33.810313" lon="-118.393867">
  <ele>-1.982</ele>
  <time>2026-09-01T01:17:26Z</time>
  <course>184.81</course>
  <speed>0.0</speed>
  <fix>3d</fix>
</trkpt>
<trkpt lat="33.810313" lon="-118.393867">
  <ele>-2.02</ele>
  <time>2026-09-01T01:17:26Z</time>
  <course>184.82</course>
  <speed>0.0</speed>
  <fix>3d</fix>
</trkpt>
<trkpt lat="33.810313" lon="-118.393867">
  <ele>-1.76</ele>
  <time>2026-09-01T01:17:26Z</time>
  <course>0.0</course>
  <speed>0.0</speed>
  <fix>3d</fix>
</trkpt>
<trkpt lat="33.810313" lon="-118.393867">
  <ele>-2.039</ele>
  <time>2026-09-01T01:17:26Z</time>
  <course>184.82</course>
  <speed>0.0</speed>
  <fix>3d</fix>
</trkpt>
<trkpt lat="33.810313" lon="-118.393867">
  <ele>-2.079</ele>
  <time>2026-09-01T01:17:26Z</time>
  <course>184.83</course>
  <speed>0.0</speed>
  <fix>3d</fix>
</trkpt>
<trkpt lat="33.810313" lon="-118.393867">
  <ele>-1.88</ele>
  <time>2026-09-01T01:17:26Z</time>
  <course>0.0</course>
  <speed>0.0</speed>
  <fix>3d</fix>
</trkpt>
<trkpt lat="33.810313" lon="-118.393867">
  <ele>-2.1</ele>
  <time>2026-09-01T01:17:26Z</time>
  <course>184.84</course>
  <speed>0.0</speed>
  <fix>3d</fix>
</trkpt>
<trkpt lat="33.810313" lon="-118.393867">
  <ele>-2.139</ele>
  <time>2026-09-01T01:17:26Z</time>
  <course>184.84</course>
  <speed>0.0</speed>
  <fix>3d</fix>
</trkpt>
<trkpt lat="33.810313" lon="-118.393867">
  <ele>-1.88</ele>
  <time>2026-09-01T01:17:26Z</time>
  <course>0.0</course>
  <speed>0.0</speed>
  <fix>3d</fix>
</trkpt>
<trkpt lat="33.810313" lon="-118.393867">
  <ele>-2.152</ele>
  <time>2026-09-01T01:17:26Z</time>
  <course>184.85</course>
  <speed>0.0</speed>
  <fix>3d</fix>
</trkpt>
<trkpt lat="33.810313" lon="-118.393867">
  <ele>-2.198</ele>
  <time>2026-09-01T01:17:26Z</time>
  <course>184.85</course>
  <speed>0.0</speed>
  <fix>3d</fix>
</trkpt>
<trkpt lat="33.810313" lon="-118.393867">
  <ele>-2.01</ele>
  <time>2026-09-01T01:17:26Z</time>
  <course>0.0</course>
  <speed>0.0</speed>
  <fix>3d</fix>
</trkpt>
<trkpt lat="33.810313" lon="-118.393867">
  <ele>-2.217</ele>
  <time>2026-09-01T01:17:26Z</time>
  <course>184.86</course>
  <speed>0.0</speed>
  <fix>3d</fix>
</trkpt>
<trkpt lat="33.810313" lon="-118.393867">
  <ele>-2.258</ele>
  <time>2026-09-01T01:17:26Z</time>
  <course>184.86</course>
  <speed>0.0</speed>
  <fix>3d</fix>
</trkpt>
<trkpt lat="33.810313" lon="-118.393867">
  <ele>-2.01</ele>
  <time>2026-09-01T01:17:26Z</time>
  <course>0.0</course>
  <speed>0.0</speed>
  <fix>3d</fix>
</trkpt>
<trkpt lat="33.810313" lon="-118.393867">
  <ele>-2.276</ele>
  <time>2026-09-01T01:17:26Z</time>
  <course>184.87</course>
  <speed>0.0</speed>
  <fix>3d</fix>
</trkpt>
<trkpt lat="33.810313" lon="-118.393867">
  <ele>-2.317</ele>
  <time>2026-09-01T01:17:26Z</time>
  <course>184.88</course>
  <speed>0.0</speed>
  <fix>3d</fix>
</trkpt>
<trkpt lat="33.810313" lon="-118.393867">
  <ele>-2.13</ele>
  <time>2026-09-01T01:17:26Z</time>
  <course>0.0</course>
  <speed>0.0</speed>
  <fix>3d</fix>
</trkpt>
<trkpt lat="33.810313" lon="-118.393867">
  <ele>-2.318</ele>
  <time>2026-09-01T01:17:26Z</time>
  <course>184.88</course>
  <speed>0.0</speed>
  <fix>3d</fix>
</trkpt>
<trkpt lat="33.810313" lon="-118.393867">
  <ele>-2.375</ele>
  <time>2026-09-01T01:17:26Z</time>
  <course>184.89</course>
  <speed>0.0</speed>
  <fix>3d</fix>
</trkpt>
<trkpt lat="33.810313" lon="-118.393867">
  <ele>-2.13</ele>
  <time>2026-09-01T01:17:26Z</time>
  <course>0.0</course>
  <speed>0.0</speed>
  <fix>3d</fix>
</trkpt>
<trkpt lat="33.810313" lon="-118.393867">
  <ele>-2.396</ele>
  <time>2026-09-01T01:17:26Z</time>
  <course>184.89</course>
  <speed>0.0</speed>
  <fix>3d</fix>
</trkpt>
<trkpt lat="33.810313" lon="-118.393867">
  <ele>-2.434</ele>
  <time>2026-09-01T01:17:26Z</time>
  <course>184.9</course>
  <speed>0.0</speed>
  <fix>3d</fix>
</trkpt>
<trkpt lat="33.810313" lon="-118.393867">
  <ele>-2.25</ele>
  <time>2026-09-01T01:17:26Z</time>
  <course>0.0</course>
  <speed>0.0</speed>
  <fix>3d</fix>
</trkpt>
<trkpt lat="33.810313" lon="-118.393867">
  <ele>-2.435</ele>
  <time>2026-09-01T01:17:26Z</time>
  <course>184.9</course>
  <speed>0.0</speed>
  <fix>3d</fix>
</trkpt>
<trkpt lat="33.810313" lon="-118.393867">
  <ele>-2.492</ele>
  <time>2026-09-01T01:17:26Z</time>
  <course>184.91</course>
  <speed>0.0</speed>
  <fix>3d</fix>
</trkpt>
<trkpt lat="33.810313" lon="-118.393867">
  <ele>-2.25</ele>
  <time>2026-09-01T01:17:26Z</time>
  <course>0.0</course>
  <speed>0.0</speed>
  <fix>3d</fix>
</trkpt>
<trkpt lat="33.810313" lon="-118.393867">
  <ele>-2.494</ele>
  <time>2026-09-01T01:17:26Z</time>
  <course>184.91</course>
  <speed>0.0</speed>
  <fix>3d</fix>
</trkpt>
<trkpt lat="33.810313" lon="-118.393867">
  <ele>-2.552</ele>
  <time>2026-09-01T01:17:26Z</time>
  <course>184.92</course>
  <speed>0.0</speed>
  <fix>3d</fix>
</trkpt>
<trkpt lat="33.810313" lon="-118.393867">
  <ele>-2.37</ele>
  <time>2026-09-01T01:17:26Z</time>
  <course>0.0</course>
  <speed>0.0</speed>
  <fix>3d</fix>
</trkpt>
<trkpt lat="33.810313" lon="-118.393867">
  <ele>-2.553</ele>
  <time>2026-09-01T01:17:26Z</time>
  <course>184.92</course>
  <speed>0.0</speed>
  <fix>3d</fix>
</trkpt>
<trkpt lat="33.810313" lon="-118.393867">
  <ele>-2.612</ele>
  <time>2026-09-01T01:17:26Z</time>
  <course>184.93</course>
  <speed>0.0</speed>
  <fix>3d</fix>
</trkpt>
<trkpt lat="33.810313" lon="-118.393867">
  <ele>-2.37</ele>
  <time>2026-09-01T01:17:26Z</time>
  <course>0.0</course>
  <speed>0.0</speed>
  <fix>3d</fix>
</trkpt>
<trkpt lat="33.810313" lon="-118.393867">
  <ele>-2.629</ele>
  <time>2026-09-01T01:17:26Z</time>
  <course>184.93</course>
  <speed>0.0</speed>
  <fix>3d</fix>
</trkpt>
<trkpt lat="33.810313" lon="-118.393867">
  <ele>-2.673</ele>
  <time>2026-09-01T01:17:26Z</time>
  <course>184.94</course>
  <speed>0.0</speed>
  <fix>3d</fix>
</trkpt>
<trkpt lat="33.810313" lon="-118.393867">
  <ele>-2.49</ele>
  <time>2026-09-01T01:17:26Z</time>
  <course>0.0</course>
  <speed>0.0</speed>
  <fix>3d</fix>
</trkpt>
<trkpt lat="33.810313" lon="-118.393867">
  <ele>-2.694</ele>
  <time>2026-09-01T01:17:26Z</time>
  <course>184.95</course>
  <speed>0.0</speed>
  <fix>3d</fix>
</trkpt>
<trkpt lat="33.810313" lon="-118.393867">
  <ele>-2.735</ele>
  <time>2026-09-01T01:17:26Z</time>
  <course>184.95</course>
  <speed>0.0</speed>
  <fix>3d</fix>
</trkpt>
<trkpt lat="33.810313" lon="-118.393867">
  <ele>-2.49</ele>
  <time>2026-09-01T01:17:26Z</time>
  <course>0.0</course>
  <speed>0.0</speed>
  <fix>3d</fix>
</trkpt>
<trkpt lat="33.810313" lon="-118.393867">
  <ele>-2.754</ele>
  <time>2026-09-01T01:17:26Z</time>
  <course>184.96</course>
  <speed>0.0</speed>
  <fix>3d</fix>
</trkpt>
<trkpt lat="33.810313" lon="-118.393867">
  <ele>-2.798</ele>
  <time>2026-09-01T01:17:26Z</time>
  <course>184.96</course>
  <speed>0.0</speed>
  <fix>3d</fix>
</trkpt>
<trkpt lat="33.810313" lon="-118.393867">
  <ele>-2.61</ele>
  <time>2026-09-01T01:17:26Z</time>
  <course>0.0</course>
  <speed>0.0</speed>
  <fix>3d</fix>
</trkpt>
<trkpt lat="33.810313" lon="-118.393867">
  <ele>-2.819</ele>
  <time>2026-09-01T01:17:26Z</time>
  <course>184.97</course>
  <speed>0.0</speed>
  <fix>3d</fix>
</trkpt>
<trkpt lat="33.810313" lon="-118.393867">
  <ele>-2.862</ele>
  <time>2026-09-01T01:17:26Z</time>
  <course>184.98</course>
  <speed>0.0</speed>
  <fix>3d</fix>
</trkpt>
<trkpt lat="33.810313" lon="-118.393867">
  <ele>-2.61</ele>
  <time>2026-09-01T01:17:26Z</time>
  <course>0.0</course>
  <speed>0.0</speed>
  <fix>3d</fix>
</trkpt>
<trkpt lat="33.810313" lon="-118.393867">
  <ele>-2.883</ele>
  <time>2026-09-01T01:17:26Z</time>
  <course>184.98</course>
  <speed>0.0</speed>
  <fix>3d</fix>
</trkpt>
<trkpt lat="33.810313" lon="-118.393867">
  <ele>-2.927</ele>
  <time>2026-09-01T01:17:26Z</time>
  <course>184.99</course>
  <speed>0.0</speed>
  <fix>3d</fix>
</trkpt>
<trkpt lat="33.810313" lon="-118.393867">
  <ele>-2.73</ele>
  <time>2026-09-01T01:17:26Z</time>
  <course>0.0</course>
  <speed>0.0</speed>
  <fix>3d</fix>
</trkpt>
<trkpt lat="33.810313" lon="-118.393867">
  <ele>-2.928</ele>
  <time>2026-09-01T01:17:26Z</time>
  <course>184.99</course>
  <speed>0.0</speed>
  <fix>3d</fix>
</trkpt>
<trkpt lat="33.810313" lon="-118.393867">
  <ele>-2.992</ele>
  <time>2026-09-01T01:17:26Z</time>
  <course>185.0</course>
  <speed>0.0</speed>
  <fix>3d</fix>
</trkpt>
<trkpt lat="33.810313" lon="-118.393867">
  <ele>-2.73</ele>
  <time>2026-09-01T01:17:26Z</time>
  <course>0.0</course>
  <speed>0.0</speed>
  <fix>3d</fix>
</trkpt>
<trkpt lat="33.810313" lon="-118.393867">
  <ele>-3.013</ele>
  <time>2026-09-01T01:17:26Z</time>
  <course>185.0</course>
  <speed>0.01</speed>
  <fix>3d</fix>
</trkpt>
<trkpt lat="33.810313" lon="-118.393867">
  <ele>-3.057</ele>
  <time>2026-09-01T01:17:26Z</time>
  <course>185.01</course>
  <speed>0.01</speed>
  <fix>3d</fix>
</trkpt>
<trkpt lat="33.810313" lon="-118.393867">
  <ele>-2.85</ele>
  <time>2026-09-01T01:17:26Z</time>
  <course>0.0</course>
  <speed>0.0</speed>
  <fix>3d</fix>
</trkpt>
<trkpt lat="33.810313" lon="-118.393867">
  <ele>-3.077</ele>
  <time>2026-09-01T01:17:26Z</time>
  <course>185.01</course>
  <speed>0.01</speed>
  <fix>3d</fix>
</trkpt>
<trkpt lat="33.810313" lon="-118.393867">
  <ele>-3.121</ele>
  <time>2026-09-01T01:17:26Z</time>
  <course>185.02</course>
  <speed>0.01</speed>
  <fix>3d</fix>
</trkpt>
<trkpt lat="33.810313" lon="-118.393867">
  <ele>-2.85</ele>
  <time>2026-09-01T01:17:26Z</time>
  <course>0.0</course>
  <speed>0.0</speed>
  <fix>3d</fix>
</trkpt>
<trkpt lat="33.810313" lon="-118.393867">
  <ele>-3.142</ele>
  <time>2026-09-01T01:17:26Z</time>
  <course>185.03</course>
  <speed>0.01</speed>
  <fix>3d</fix>
</trkpt>
<trkpt lat="33.810313" lon="-118.393867">
  <ele>-3.186</ele>
  <time>2026-09-01T01:17:26Z</time>
  <course>185.03</course>
  <speed>0.01</speed>
  <fix>3d</fix>
</trkpt>
<trkpt lat="33.810313" lon="-118.393867">
  <ele>-2.97</ele>
  <time>2026-09-01T01:17:26Z</time>
  <course>0.0</course>
  <speed>0.0</speed>
  <fix>3d</fix>
</trkpt>
<trkpt lat="33.810313" lon="-118.393867">
  <ele>-3.237</ele>
  <time>2026-09-01T01:17:26Z</time>
  <course>185.05</course>
  <speed>0.01</speed>
  <fix>3d</fix>
</trkpt>
<trkpt lat="33.810313" lon="-118.393867">
  <ele>-2.97</ele>
  <time>2026-09-01T01:17:26Z</time>
  <course>0.0</course>
  <speed>0.0</speed>
  <fix>3d</fix>
</trkpt>
<trkpt lat="33.810313" lon="-118.393867">
  <ele>-3.275</ele>
  <time>2026-09-01T01:17:26Z</time>
  <course>185.06</course>
  <speed>0.01414213562373095</speed>
  <fix>3d</fix>
</trkpt>
<trkpt lat="33.810313" lon="-118.393867">
  <ele>-3.08</ele>
  <time>2026-09-01T01:17:26Z</time>
  <course>0.0</course>
  <speed>0.0</speed>
  <fix>3d</fix>
</trkpt>
<trkpt lat="33.810313" lon="-118.393867">
  <ele>-3.304</ele>
  <time>2026-09-01T01:17:26Z</time>
  <course>185.07</course>
  <speed>0.01414213562373095</speed>
  <fix>3d</fix>
</trkpt>
<trkpt lat="33.810313" lon="-118.393867">
  <ele>-3.08</ele>
  <time>2026-09-01T01:17:26Z</time>
  <course>0.0</course>
  <speed>0.0</speed>
  <fix>3d</fix>
</trkpt>
<trkpt lat="33.810313" lon="-118.393867">
  <ele>-3.327</ele>
  <time>2026-09-01T01:17:26Z</time>
  <course>185.08</course>
  <speed>0.01414213562373095</speed>
  <fix>3d</fix>
</trkpt>
<trkpt lat="33.810313" lon="-118.393867">
  <ele>-3.16</ele>
  <time>2026-09-01T01:17:26Z</time>
  <course>0.0</course>
  <speed>0.0</speed>
  <fix>3d</fix>
</trkpt>
<trkpt lat="33.810313" lon="-118.393867">
  <ele>-3.346</ele>
  <time>2026-09-01T01:17:26Z</time>
  <course>185.08</course>
  <speed>0.01414213562373095</speed>
  <fix>3d</fix>
</trkpt>
<trkpt lat="33.810313" lon="-118.393867">
  <ele>-3.16</ele>
  <time>2026-09-01T01:17:26Z</time>
  <course>0.0</course>
  <speed>0.0</speed>
  <fix>3d</fix>
</trkpt>
<trkpt lat="33.810313" lon="-118.393867">
  <ele>-3.361</ele>
  <time>2026-09-01T01:17:26Z</time>
  <course>185.07</course>
  <speed>0.01414213562373095</speed>
  <fix>3d</fix>
</trkpt>
<trkpt lat="33.810313" lon="-118.393867">
  <ele>-3.21</ele>
  <time>2026-09-01T01:17:26Z</time>
  <course>0.0</course>
  <speed>0.0</speed>
  <fix>3d</fix>
</trkpt>
<trkpt lat="33.810313" lon="-118.393867">
  <ele>-3.372</ele>
  <time>2026-09-01T01:17:26Z</time>
  <course>185.05</course>
  <speed>0.01414213562373095</speed>
  <fix>3d</fix>
</trkpt>
<trkpt lat="33.810313" lon="-118.393867">
  <ele>-3.21</ele>
  <time>2026-09-01T01:17:26Z</time>
  <course>0.0</course>
  <speed>0.0</speed>
  <fix>3d</fix>
</trkpt>
<trkpt lat="33.810313" lon="-118.393867">
  <ele>-3.382</ele>
  <time>2026-09-01T01:17:26Z</time>
  <course>185.04</course>
  <speed>0.01414213562373095</speed>
  <fix>3d</fix>
</trkpt>
<trkpt lat="33.810313" lon="-118.393867">
  <ele>-3.24</ele>
  <time>2026-09-01T01:17:26Z</time>
  <course>0.0</course>
  <speed>0.0</speed>
  <fix>3d</fix>
</trkpt>
<trkpt lat="33.810313" lon="-118.393867">
  <ele>-3.389</ele>
  <time>2026-09-01T01:17:26Z</time>
  <course>185.02</course>
  <speed>0.01414213562373095</speed>
  <fix>3d</fix>
</trkpt>
<trkpt lat="33.810313" lon="-118.393867">
  <ele>-3.24</ele>
  <time>2026-09-01T01:17:26Z</time>
  <course>0.0</course>
  <speed>0.0</speed>
  <fix>3d</fix>
</trkpt>
<trkpt lat="33.810313" lon="-118.393867">
  <ele>-3.395</ele>
  <time>2026-09-01T01:17:26Z</time>
  <course>185.02</course>
  <speed>0.01414213562373095</speed>
  <fix>3d</fix>
</trkpt>
<trkpt lat="33.810313" lon="-118.393867">
  <ele>-3.27</ele>
  <time>2026-09-01T01:17:26Z</time>
  <course>0.0</course>
  <speed>0.0</speed>
  <fix>3d</fix>
</trkpt>
<trkpt lat="33.810313" lon="-118.393867">
  <ele>-3.4</ele>
  <time>2026-09-01T01:17:26Z</time>
  <course>185.01</course>
  <speed>0.01414213562373095</speed>
  <fix>3d</fix>
</trkpt>
<trkpt lat="33.810313" lon="-118.393867">
  <ele>-3.27</ele>
  <time>2026-09-01T01:17:26Z</time>
  <course>0.0</course>
  <speed>0.0</speed>
  <fix>3d</fix>
</trkpt>
<trkpt lat="33.810313" lon="-118.393867">
  <ele>-3.404</ele>
  <time>2026-09-01T01:17:26Z</time>
  <course>185.01</course>
  <speed>0.01414213562373095</speed>
  <fix>3d</fix>
</trkpt>
<trkpt lat="33.810313" lon="-118.393867">
  <ele>-3.29</ele>
  <time>2026-09-01T01:17:26Z</time>
  <course>0.0</course>
  <speed>0.0</speed>
  <fix>3d</fix>
</trkpt>
<trkpt lat="33.810313" lon="-118.393867">
  <ele>-3.408</ele>
  <time>2026-09-01T01:17:26Z</time>
  <course>185.01</course>
  <speed>0.01414213562373095</speed>
  <fix>3d</fix>
</trkpt>
<trkpt lat="33.810313" lon="-118.393867">
  <ele>-3.29</ele>
  <time>2026-09-01T01:17:26Z</time>
  <course>0.0</course>
  <speed>0.0</speed>
  <fix>3d</fix>
</trkpt>
<trkpt lat="33.810313" lon="-118.393867">
  <ele>-3.411</ele>
  <time>2026-09-01T01:17:26Z</time>
  <course>185.01</course>
  <speed>0.01414213562373095</speed>
  <fix>3d</fix>
</trkpt>
<trkpt lat="33.810313" lon="-118.393867">
  <ele>-3.3</ele>
  <time>2026-09-01T01:17:26Z</time>
  <course>0.0</course>
  <speed>0.0</speed>
  <fix>3d</fix>
</trkpt>
<trkpt lat="33.810313" lon="-118.393867">
  <ele>-3.413</ele>
  <time>2026-09-01T01:17:26Z</time>
  <course>185.01</course>
  <speed>0.01414213562373095</speed>
  <fix>3d</fix>
</trkpt>
<trkpt lat="33.810313" lon="-118.393867">
  <ele>-3.3</ele>
  <time>2026-09-01T01:17:26Z</time>
  <course>0.0</course>
  <speed>0.0</speed>
  <fix>3d</fix>
</trkpt>
<trkpt lat="33.810313" lon="-118.393867">
  <ele>-3.416</ele>
  <time>2026-09-01T01:17:26Z</time>
  <course>185.01</course>
  <speed>0.01414213562373095</speed>
  <fix>3d</fix>
</trkpt>
<trkpt lat="33.810313" lon="-118.393867">
  <ele>-3.31</ele>
  <time>2026-09-01T01:17:26Z</time>
  <course>0.0</course>
  <speed>0.0</speed>
  <fix>3d</fix>
</trkpt>
<trkpt lat="33.810313" lon="-118.393867">
  <ele>-3.417</ele>
  <time>2026-09-01T01:17:26Z</time>
  <course>185.01</course>
  <speed>0.01414213562373095</speed>
  <fix>3d</fix>
</trkpt>
<trkpt lat="33.810313" lon="-118.393867">
  <ele>-3.31</ele>
  <time>2026-09-01T01:17:26Z</time>
  <course>0.0</course>
  <speed>0.0</speed>
  <fix>3d</fix>
</trkpt>
<trkpt lat="33.810313" lon="-118.393867">
  <ele>-3.418</ele>
  <time>2026-09-01T01:17:26Z</time>
  <course>185.02</course>
  <speed>0.01414213562373095</speed>
  <fix>3d</fix>
</trkpt>
<trkpt lat="33.810313" lon="-118.393867">
  <ele>-3.32</ele>
  <time>2026-09-01T01:17:26Z</time>
  <course>0.0</course>
  <speed>0.0</speed>
  <fix>3d</fix>
</trkpt>
<trkpt lat="33.810313" lon="-118.393867">
  <ele>-3.418</ele>
  <time>2026-09-01T01:17:26Z</time>
  <course>185.02</course>
  <speed>0.01414213562373095</speed>
  <fix>3d</fix>
</trkpt>
<trkpt lat="33.810313" lon="-118.393867">
  <ele>-3.32</ele>
  <time>2026-09-01T01:17:26Z</time>
  <course>0.0</course>
  <speed>0.0</speed>
  <fix>3d</fix>
</trkpt>
<trkpt lat="33.810313" lon="-118.393867">
  <ele>-3.417</ele>
  <time>2026-09-01T01:17:27Z</time>
  <course>185.03</course>
  <speed>0.01414213562373095</speed>
  <fix>3d</fix>
</trkpt>
<trkpt lat="33.810313" lon="-118.393867">
  <ele>-3.33</ele>
  <time>2026-09-01T01:17:27Z</time>
  <course>0.0</course>
  <speed>0.0</speed>
  <fix>3d</fix>
</trkpt>
<trkpt lat="33.810313" lon="-118.393867">
  <ele>-3.416</ele>
  <time>2026-09-01T01:17:27Z</time>
  <course>185.03</course>
  <speed>0.01414213562373095</speed>
  <fix>3d</fix>
</trkpt>
<trkpt lat="33.810313" lon="-118.393867">
  <ele>-3.33</ele>
  <time>2026-09-01T01:17:27Z</time>
  <course>0.0</course>
  <speed>0.0</speed>
  <fix>3d</fix>
</trkpt>
<trkpt lat="33.810313" lon="-118.393867">
  <ele>-3.416</ele>
  <time>2026-09-01T01:17:27Z</time>
  <course>185.03</course>
  <speed>0.01414213562373095</speed>
  <fix>3d</fix>
</trkpt>
<trkpt lat="33.810313" lon="-118.393867">
  <ele>-3.33</ele>
  <time>2026-09-01T01:17:27Z</time>
  <course>0.0</course>
  <speed>0.0</speed>
  <fix>3d</fix>
</trkpt>
<trkpt lat="33.810313" lon="-118.3938671">
  <ele>-3.415</ele>
  <time>2026-09-01T01:17:27Z</time>
  <course>185.04</course>
  <speed>0.01414213562373095</speed>
  <fix>3d</fix>
</trkpt>
<trkpt lat="33.810313" lon="-118.393867">
  <ele>-3.33</ele>
  <time>2026-09-01T01:17:27Z</time>
  <course>0.0</course>
  <speed>0.0</speed>
  <fix>3d</fix>
</trkpt>
<trkpt lat="33.8103131" lon="-118.3938671">
  <ele>-3.413</ele>
  <time>2026-09-01T01:17:27Z</time>
  <course>185.05</course>
  <speed>0.01414213562373095</speed>
  <fix>3d</fix>
</trkpt>
<trkpt lat="33.810313" lon="-118.393867">
  <ele>-3.34</ele>
  <time>2026-09-01T01:17:27Z</time>
  <course>0.0</course>
  <speed>0.0</speed>
  <fix>3d</fix>
</trkpt>
<trkpt lat="33.8103131" lon="-118.3938671">
  <ele>-3.412</ele>
  <time>2026-09-01T01:17:27Z</time>
  <course>185.05</course>
  <speed>0.01414213562373095</speed>
  <fix>3d</fix>
</trkpt>
<trkpt lat="33.810313" lon="-118.393867">
  <ele>-3.34</ele>
  <time>2026-09-01T01:17:27Z</time>
  <course>0.0</course>
  <speed>0.0</speed>
  <fix>3d</fix>
</trkpt>
<trkpt lat="33.8103131" lon="-118.3938671">
  <ele>-3.409</ele>
  <time>2026-09-01T01:17:27Z</time>
  <course>185.06</course>
  <speed>0.01414213562373095</speed>
  <fix>3d</fix>
</trkpt>
<trkpt lat="33.810313" lon="-118.393867">
  <ele>-3.33</ele>
  <time>2026-09-01T01:17:27Z</time>
  <course>0.0</course>
  <speed>0.0</speed>
  <fix>3d</fix>
</trkpt>
<trkpt lat="33.8103131" lon="-118.3938671">
  <ele>-3.406</ele>
  <time>2026-09-01T01:17:27Z</time>
  <course>185.06</course>
  <speed>0.01414213562373095</speed>
  <fix>3d</fix>
</trkpt>
<trkpt lat="33.810313" lon="-118.393867">
  <ele>-3.33</ele>
  <time>2026-09-01T01:17:27Z</time>
  <course>0.0</course>
  <speed>0.0</speed>
  <fix>3d</fix>
</trkpt>
<trkpt lat="33.8103131" lon="-118.3938671">
  <ele>-3.403</ele>
  <time>2026-09-01T01:17:27Z</time>
  <course>185.07</course>
  <speed>0.01414213562373095</speed>
  <fix>3d</fix>
</trkpt>
<trkpt lat="33.810313" lon="-118.393867">
  <ele>-3.33</ele>
  <time>2026-09-01T01:17:27Z</time>
  <course>0.0</course>
  <speed>0.0</speed>
  <fix>3d</fix>
</trkpt>
<trkpt lat="33.8103131" lon="-118.3938671">
  <ele>-3.401</ele>
  <time>2026-09-01T01:17:27Z</time>
  <course>185.08</course>
  <speed>0.01414213562373095</speed>
  <fix>3d</fix>
</trkpt>
<trkpt lat="33.810313" lon="-118.393867">
  <ele>-3.33</ele>
  <time>2026-09-01T01:17:27Z</time>
  <course>0.0</course>
  <speed>0.0</speed>
  <fix>3d</fix>
</trkpt>
<trkpt lat="33.8103131" lon="-118.3938671">
  <ele>-3.398</ele>
  <time>2026-09-01T01:17:27Z</time>
  <course>185.08</course>
  <speed>0.01414213562373095</speed>
  <fix>3d</fix>
</trkpt>
<trkpt lat="33.810313" lon="-118.393867">
  <ele>-3.32</ele>
  <time>2026-09-01T01:17:27Z</time>
  <course>0.0</course>
  <speed>0.0</speed>
  <fix>3d</fix>
</trkpt>
<trkpt lat="33.8103131" lon="-118.3938671">
  <ele>-3.394</ele>
  <time>2026-09-01T01:17:27Z</time>
  <course>185.09</course>
  <speed>0.01414213562373095</speed>
  <fix>3d</fix>
</trkpt>
<trkpt lat="33.810313" lon="-118.393867">
  <ele>-3.32</ele>
  <time>2026-09-01T01:17:27Z</time>
  <course>0.0</course>
  <speed>0.0</speed>
  <fix>3d</fix>
</trkpt>
<trkpt lat="33.4368002" lon="-117.0859339">
  <ele>-0.11</ele>
  <time>2026-09-01T01:17:27Z</time>
  <course>0.0</course>
  <speed>0.0</speed>
  <fix>3d</fix>
</trkpt>
<trkpt lat="33.4368002" lon="-117.0859339">
  <ele>-0.11</ele>
  <time>2026-09-01T01:17:27Z</time>
  <course>0.0</course>
  <speed>0.0</speed>
  <fix>3d</fix>
</trkpt>
<trkpt lat="33.810313" lon="-118.393867">
  <ele>0.0</ele>
  <time>2026-09-01T01:17:27Z</time>
  <course>173.5</course>
  <speed>0.0</speed>
  <fix>3d</fix>
</trkpt>
<trkpt lat="33.810313" lon="-118.393867">
  <ele>-0.11</ele>
  <time>2026-09-01T01:17:27Z</time>
  <course>0.0</course>
  <speed>0.0</speed>
  <fix>3d</fix>
</trkpt>
<trkpt lat="33.810313" lon="-118.393867">
  <ele>0.0</ele>
  <time>2026-09-01T01:17:27Z</time>
  <course>173.53</course>
  <speed>0.0</speed>
  <fix>3d</fix>
</trkpt>
<trkpt lat="33.810313" lon="-118.393867">
  <ele>-0.11</ele>
  <time>2026-09-01T01:17:27Z</time>
  <course>0.0</course>
  <speed>0.0</speed>
  <fix>3d</fix>
</trkpt>
<trkpt lat="33.810313" lon="-118.393867">
  <ele>0.0</ele>
  <time>2026-09-01T01:17:27Z</time>
  <course>173.62</course>
  <speed>0.0</speed>
  <fix>3d</fix>
</trkpt>
<trkpt lat="33.810313" lon="-118.393867">
  <ele>-0.11</ele>
  <time>2026-09-01T01:17:27Z</time>
  <course>0.0</course>
  <speed>0.0</speed>
  <fix>3d</fix>
</trkpt>
<trkpt lat="33.810313" lon="-118.393867">
  <ele>0.0</ele>
  <time>2026-09-01T01:17:27Z</time>
  <course>173.76</course>
  <speed>0.0</speed>
  <fix>3d</fix>
</trkpt>
<trkpt lat="33.810313" lon="-118.393867">
  <ele>-0.11</ele>
  <time>2026-09-01T01:17:27Z</time>
  <course>0.0</course>
  <speed>0.0</speed>
  <fix>3d</fix>
</trkpt>
<trkpt lat="33.810313" lon="-118.393867">
  <ele>0.0</ele>
  <time>2026-09-01T01:17:27Z</time>
  <course>173.9</course>
  <speed>0.0</speed>
  <fix>3d</fix>
</trkpt>
<trkpt lat="33.810313" lon="-118.393867">
  <ele>-0.12</ele>
  <time>2026-09-01T01:17:27Z</time>
  <course>0.0</course>
  <speed>0.0</speed>
  <fix>3d</fix>
</trkpt>
<trkpt lat="33.810313" lon="-118.393867">
  <ele>0.0</ele>
  <time>2026-09-01T01:17:27Z</time>
  <course>174.03</course>
  <speed>0.0</speed>
  <fix>3d</fix>
</trkpt>
<trkpt lat="33.810313" lon="-118.393867">
  <ele>-0.12</ele>
  <time>2026-09-01T01:17:27Z</time>
  <course>0.0</course>
  <speed>0.0</speed>
  <fix>3d</fix>
</trkpt>
<trkpt lat="33.810313" lon="-118.393867">
  <ele>0.0</ele>
  <time>2026-09-01T01:17:27Z</time>
  <course>174.15</course>
  <speed>0.0</speed>
  <fix>3d</fix>
</trkpt>
<trkpt lat="33.810313" lon="-118.393867">
  <ele>-0.13</ele>
  <time>2026-09-01T01:17:27Z</time>
  <course>0.0</course>
  <speed>0.0</speed>
  <fix>3d</fix>
</trkpt>
<trkpt lat="33.810313" lon="-118.393867">
  <ele>0.0</ele>
  <time>2026-09-01T01:17:27Z</time>
  <course>174.28</course>
  <speed>0.0</speed>
  <fix>3d</fix>
</trkpt>
<trkpt lat="33.810313" lon="-118.393867">
  <ele>-0.13</ele>
  <time>2026-09-01T01:17:27Z</time>
  <course>0.0</course>
  <speed>0.0</speed>
  <fix>3d</fix>
</trkpt>
<trkpt lat="33.810313" lon="-118.393867">
  <ele>0.0</ele>
  <time>2026-09-01T01:17:27Z</time>
  <course>174.39</course>
  <speed>0.0</speed>
  <fix>3d</fix>
</trkpt>
<trkpt lat="33.810313" lon="-118.393867">
  <ele>-0.13</ele>
  <time>2026-09-01T01:17:27Z</time>
  <course>0.0</course>
  <speed>0.0</speed>
  <fix>3d</fix>
</trkpt>
<trkpt lat="33.810313" lon="-118.393867">
  <ele>0.0</ele>
  <time>2026-09-01T01:17:27Z</time>
  <course>174.51</course>
  <speed>0.0</speed>
  <fix>3d</fix>
</trkpt>
<trkpt lat="33.810313" lon="-118.393867">
  <ele>-0.13</ele>
  <time>2026-09-01T01:17:27Z</time>
  <course>0.0</course>
  <speed>0.0</speed>
  <fix>3d</fix>
</trkpt>
<trkpt lat="33.810313" lon="-118.393867">
  <ele>0.0</ele>
  <time>2026-09-01T01:17:27Z</time>
  <course>174.62</course>
  <speed>0.0</speed>
  <fix>3d</fix>
</trkpt>
<trkpt lat="33.810313" lon="-118.393867">
  <ele>-0.14</ele>
  <time>2026-09-01T01:17:27Z</time>
  <course>0.0</course>
  <speed>0.0</speed>
  <fix>3d</fix>
</trkpt>
<trkpt lat="33.810313" lon="-118.393867">
  <ele>0.0</ele>
  <time>2026-09-01T01:17:27Z</time>
  <course>174.73</course>
  <speed>0.0</speed>
  <fix>3d</fix>
</trkpt>
<trkpt lat="33.810313" lon="-118.393867">
  <ele>-0.14</ele>
  <time>2026-09-01T01:17:27Z</time>
  <course>0.0</course>
  <speed>0.0</speed>
  <fix>3d</fix>
</trkpt>
<trkpt lat="33.810313" lon="-118.393867">
  <ele>0.0</ele>
  <time>2026-09-01T01:17:27Z</time>
  <course>174.83</course>
  <speed>0.0</speed>
  <fix>3d</fix>
</trkpt>
<trkpt lat="33.810313" lon="-118.393867">
  <ele>-0.14</ele>
  <time>2026-09-01T01:17:27Z</time>
  <course>0.0</course>
  <speed>0.0</speed>
  <fix>3d</fix>
</trkpt>
<trkpt lat="33.810313" lon="-118.393867">
  <ele>0.0</ele>
  <time>2026-09-01T01:17:27Z</time>
  <course>174.94</course>
  <speed>0.0</speed>
  <fix>3d</fix>
</trkpt>
<trkpt lat="33.810313" lon="-118.393867">
  <ele>-0.14</ele>
  <time>2026-09-01T01:17:27Z</time>
  <course>0.0</course>
  <speed>0.0</speed>
  <fix>3d</fix>
</trkpt>
<trkpt lat="33.810313" lon="-118.393867">
  <ele>0.0</ele>
  <time>2026-09-01T01:17:27Z</time>
  <course>175.04</course>
  <speed>0.0</speed>
  <fix>3d</fix>
</trkpt>
<trkpt lat="33.810313" lon="-118.393867">
  <ele>-0.14</ele>
  <time>2026-09-01T01:17:27Z</time>
  <course>0.0</course>
  <speed>0.0</speed>
  <fix>3d</fix>
</trkpt>
<trkpt lat="33.810313" lon="-118.393867">
  <ele>0.0</ele>
  <time>2026-09-01T01:17:27Z</time>
  <course>175.14</course>
  <speed>0.0</speed>
  <fix>3d</fix>
</trkpt>
<trkpt lat="33.810313" lon="-118.393867">
  <ele>-0.14</ele>
  <time>2026-09-01T01:17:27Z</time>
  <course>0.0</course>
  <speed>0.0</speed>
  <fix>3d</fix>
</trkpt>
<trkpt lat="33.810313" lon="-118.393867">
  <ele>0.0</ele>
  <time>2026-09-01T01:17:27Z</time>
  <course>175.23</course>
  <speed>0.0</speed>
  <fix>3d</fix>
</trkpt>
<trkpt lat="33.810313" lon="-118.393867">
  <ele>-0.14</ele>
  <time>2026-09-01T01:17:27Z</time>
  <course>0.0</course>
  <speed>0.0</speed>
  <fix>3d</fix>
</trkpt>
<trkpt lat="33.810313" lon="-118.393867">
  <ele>0.0</ele>
  <time>2026-09-01T01:17:27Z</time>
  <course>175.33</course>
  <speed>0.0</speed>
  <fix>3d</fix>
</trkpt>
<trkpt lat="33.810313" lon="-118.393867">
  <ele>-0.14</ele>
  <time>2026-09-01T01:17:27Z</time>
  <course>0.0</course>
  <speed>0.0</speed>
  <fix>3d</fix>
</trkpt>
<trkpt lat="33.810313" lon="-118.393867">
  <ele>0.0</ele>
  <time>2026-09-01T01:17:27Z</time>
  <course>175.42</course>
  <speed>0.0</speed>
  <fix>3d</fix>
</trkpt>
<trkpt lat="33.810313" lon="-118.393867">
  <ele>-0.13</ele>
  <time>2026-09-01T01:17:27Z</time>
  <course>0.0</course>
  <speed>0.0</speed>
  <fix>3d</fix>
</trkpt>
<trkpt lat="33.810313" lon="-118.393867">
  <ele>0.0</ele>
  <time>2026-09-01T01:17:27Z</time>
  <course>175.51</course>
  <speed>0.0</speed>
  <fix>3d</fix>
</trkpt>
<trkpt lat="33.810313" lon="-118.393867">
  <ele>-0.13</ele>
  <time>2026-09-01T01:17:27Z</time>
  <course>0.0</course>
  <speed>0.0</speed>
  <fix>3d</fix>
</trkpt>
<trkpt lat="33.810313" lon="-118.393867">
  <ele>0.0</ele>
  <time>2026-09-01T01:17:27Z</time>
  <course>175.6</course>
  <speed>0.0</speed>
  <fix>3d</fix>
</trkpt>
<trkpt lat="33.810313" lon="-118.393867">
  <ele>-0.12</ele>
  <time>2026-09-01T01:17:27Z</time>
  <course>0.0</course>
  <speed>0.0</speed>
  <fix>3d</fix>
</trkpt>
<trkpt lat="33.810313" lon="-118.393867">
  <ele>0.0</ele>
  <time>2026-09-01T01:17:27Z</time>
  <course>175.69</course>
  <speed>0.0</speed>
  <fix>3d</fix>
</trkpt>
<trkpt lat="33.810313" lon="-118.393867">
  <ele>-0.12</ele>
  <time>2026-09-01T01:17:27Z</time>
  <course>0.0</course>
  <speed>0.0</speed>
  <fix>3d</fix>
</trkpt>
<trkpt lat="33.810313" lon="-118.393867">
  <ele>0.0</ele>
  <time>2026-09-01T01:17:27Z</time>
  <course>175.77</course>
  <speed>0.0</speed>
  <fix>3d</fix>
</trkpt>
<trkpt lat="33.810313" lon="-118.393867">
  <ele>-0.12</ele>
  <time>2026-09-01T01:17:27Z</time>
  <course>0.0</course>
  <speed>0.0</speed>
  <fix>3d</fix>
</trkpt>
<trkpt lat="33.810313" lon="-118.393867">
  <ele>0.0</ele>
  <time>2026-09-01T01:17:27Z</time>
  <course>175.86</course>
  <speed>0.0</speed>
  <fix>3d</fix>
</trkpt>
<trkpt lat="33.810313" lon="-118.393867">
  <ele>-0.12</ele>
  <time>2026-09-01T01:17:27Z</time>
  <course>0.0</course>
  <speed>0.0</speed>
  <fix>3d</fix>
</trkpt>
<trkpt lat="33.810313" lon="-118.393867">
  <ele>0.0</ele>
  <time>2026-09-01T01:17:27Z</time>
  <course>175.94</course>
  <speed>0.0</speed>
  <fix>3d</fix>
</trkpt>
<trkpt lat="33.810313" lon="-118.393867">
  <ele>-0.11</ele>
  <time>2026-09-01T01:17:27Z</time>
  <course>0.0</course>
  <speed>0.0</speed>
  <fix>3d</fix>
</trkpt>
<trkpt lat="33.810313" lon="-118.393867">
  <ele>0.0</ele>
  <time>2026-09-01T01:17:27Z</time>
  <course>176.02</course>
  <speed>0.0</speed>
  <fix>3d</fix>
</trkpt>
<trkpt lat="33.810313" lon="-118.393867">
  <ele>-0.11</ele>
  <time>2026-09-01T01:17:27Z</time>
  <course>0.0</course>
  <speed>0.0</speed>
  <fix>3d</fix>
</trkpt>
<trkpt lat="33.810313" lon="-118.393867">
  <ele>0.0</ele>
  <time>2026-09-01T01:17:27Z</time>
  <course>176.09</course>
  <speed>0.0</speed>
  <fix>3d</fix>
</trkpt>
<trkpt lat="33.810313" lon="-118.393867">
  <ele>-0.11</ele>
  <time>2026-09-01T01:17:27Z</time>
  <course>0.0</course>
  <speed>0.0</speed>
  <fix>3d</fix>
</trkpt>
<trkpt lat="33.810313" lon="-118.393867">
  <ele>0.0</ele>
  <time>2026-09-01T01:17:27Z</time>
  <course>176.17</course>
  <speed>0.0</speed>
  <fix>3d</fix>
</trkpt>
<trkpt lat="33.810313" lon="-118.393867">
  <ele>-0.11</ele>
  <time>2026-09-01T01:17:27Z</time>
  <course>0.0</course>
  <speed>0.0</speed>
  <fix>3d</fix>
</trkpt>
<trkpt lat="33.810313" lon="-118.393867">
  <ele>0.0</ele>
  <time>2026-09-01T01:17:27Z</time>
  <course>176.25</course>
  <speed>0.0</speed>
  <fix>3d</fix>
</trkpt>
<trkpt lat="33.810313" lon="-118.393867">
  <ele>-0.12</ele>
  <time>2026-09-01T01:17:27Z</time>
  <course>0.0</course>
  <speed>0.0</speed>
  <fix>3d</fix>
</trkpt>
<trkpt lat="33.810313" lon="-118.393867">
  <ele>0.0</ele>
  <time>2026-09-01T01:17:27Z</time>
  <course>176.32</course>
  <speed>0.0</speed>
  <fix>3d</fix>
</trkpt>
<trkpt lat="33.810313" lon="-118.393867">
  <ele>-0.12</ele>
  <time>2026-09-01T01:17:27Z</time>
  <course>0.0</course>
  <speed>0.0</speed>
  <fix>3d</fix>
</trkpt>
<trkpt lat="33.810313" lon="-118.393867">
  <ele>0.0</ele>
  <time>2026-09-01T01:17:27Z</time>
  <course>176.39</course>
  <speed>0.0</speed>
  <fix>3d</fix>
</trkpt>
<trkpt lat="33.810313" lon="-118.393867">
  <ele>-0.13</ele>
  <time>2026-09-01T01:17:27Z</time>
  <course>0.0</course>
  <speed>0.0</speed>
  <fix>3d</fix>
</trkpt>
<trkpt lat="33.810313" lon="-118.393867">
  <ele>0.0</ele>
  <time>2026-09-01T01:17:27Z</time>
  <course>176.46</course>
  <speed>0.0</speed>
  <fix>3d</fix>
</trkpt>
<trkpt lat="33.810313" lon="-118.393867">
  <ele>-0.13</ele>
  <time>2026-09-01T01:17:27Z</time>
  <course>0.0</course>
  <speed>0.0</speed>
  <fix>3d</fix>
</trkpt>
<trkpt lat="33.810313" lon="-118.393867">
  <ele>0.0</ele>
  <time>2026-09-01T01:17:27Z</time>
  <course>176.53</course>
  <speed>0.0</speed>
  <fix>3d</fix>
</trkpt>
<trkpt lat="33.810313" lon="-118.393867">
  <ele>-0.13</ele>
  <time>2026-09-01T01:17:27Z</time>
  <course>0.0</course>
  <speed>0.0</speed>
  <fix>3d</fix>
</trkpt>
<trkpt lat="33.810313" lon="-118.393867">
  <ele>0.0</ele>
  <time>2026-09-01T01:17:27Z</time>
  <course>176.6</course>
  <speed>0.0</speed>
  <fix>3d</fix>
</trkpt>
<trkpt lat="33.810313" lon="-118.393867">
  <ele>-0.13</ele>
  <time>2026-09-01T01:17:27Z</time>
  <course>0.0</course>
  <speed>0.0</speed>
  <fix>3d</fix>
</trkpt>
<trkpt lat="33.810313" lon="-118.393867">
  <ele>0.0</ele>
  <time>2026-09-01T01:17:27Z</time>
  <course>176.67</course>
  <speed>0.0</speed>
  <fix>3d</fix>
</trkpt>
<trkpt lat="33.810313" lon="-118.393867">
  <ele>-0.14</ele>
  <time>2026-09-01T01:17:27Z</time>
  <course>0.0</course>
  <speed>0.0</speed>
  <fix>3d</fix>
</trkpt>
<trkpt lat="33.810313" lon="-118.393867">
  <ele>0.0</ele>
  <time>2026-09-01T01:17:27Z</time>
  <course>176.73</course>
  <speed>0.0</speed>
  <fix>3d</fix>
</trkpt>
<trkpt lat="33.810313" lon="-118.393867">
  <ele>-0.14</ele>
  <time>2026-09-01T01:17:27Z</time>
  <course>0.0</course>
  <speed>0.0</speed>
  <fix>3d</fix>
</trkpt>
<trkpt lat="33.810313" lon="-118.393867">
  <ele>0.0</ele>
  <time>2026-09-01T01:17:27Z</time>
  <course>176.8</course>
  <speed>0.0</speed>
  <fix>3d</fix>
</trkpt>
<trkpt lat="33.810313" lon="-118.393867">
  <ele>-0.13</ele>
  <time>2026-09-01T01:17:27Z</time>
  <course>0.0</course>
  <speed>0.0</speed>
  <fix>3d</fix>
</trkpt>
<trkpt lat="33.810313" lon="-118.393867">
  <ele>0.0</ele>
  <time>2026-09-01T01:17:27Z</time>
  <course>176.86</course>
  <speed>0.0</speed>
  <fix>3d</fix>
</trkpt>
<trkpt lat="33.810313" lon="-118.393867">
  <ele>-0.13</ele>
  <time>2026-09-01T01:17:27Z</time>
  <course>0.0</course>
  <speed>0.0</speed>
  <fix>3d</fix>
</trkpt>
<trkpt lat="33.810313" lon="-118.393867">
  <ele>0.0</ele>
  <time>2026-09-01T01:17:27Z</time>
  <course>176.93</course>
  <speed>0.0</speed>
  <fix>3d</fix>
</trkpt>
<trkpt lat="33.810313" lon="-118.393867">
  <ele>-0.13</ele>
  <time>2026-09-01T01:17:27Z</time>
  <course>0.0</course>
  <speed>0.0</speed>
  <fix>3d</fix>
</trkpt>
<trkpt lat="33.810313" lon="-118.393867">
  <ele>0.0</ele>
  <time>2026-09-01T01:17:27Z</time>
  <course>176.99</course>
  <speed>0.0</speed>
  <fix>3d</fix>
</trkpt>
<trkpt lat="33.810313" lon="-118.393867">
  <ele>-0.13</ele>
  <time>2026-09-01T01:17:27Z</time>
  <course>0.0</course>
  <speed>0.0</speed>
  <fix>3d</fix>
</trkpt>
<trkpt lat="33.810313" lon="-118.393867">
  <ele>0.0</ele>
  <time>2026-09-01T01:17:27Z</time>
  <course>177.05</course>
  <speed>0.0</speed>
  <fix>3d</fix>
</trkpt>
<trkpt lat="33.810313" lon="-118.393867">
  <ele>-0.12</ele>
  <time>2026-09-01T01:17:27Z</time>
  <course>0.0</course>
  <speed>0.0</speed>
  <fix>3d</fix>
</trkpt>
<trkpt lat="33.810313" lon="-118.393867">
  <ele>0.0</ele>
  <time>2026-09-01T01:17:27Z</time>
  <course>177.11</course>
  <speed>0.0</speed>
  <fix>3d</fix>
</trkpt>
<trkpt lat="33.810313" lon="-118.393867">
  <ele>-0.12</ele>
  <time>2026-09-01T01:17:27Z</time>
  <course>0.0</course>
  <speed>0.0</speed>
  <fix>3d</fix>
</trkpt>
<trkpt lat="33.810313" lon="-118.393867">
  <ele>0.0</ele>
  <time>2026-09-01T01:17:27Z</time>
  <course>177.16</course>
  <speed>0.0</speed>
  <fix>3d</fix>
</trkpt>
<trkpt lat="33.810313" lon="-118.393867">
  <ele>-0.12</ele>
  <time>2026-09-01T01:17:27Z</time>
  <course>0.0</course>
  <speed>0.0</speed>
  <fix>3d</fix>
</trkpt>
<trkpt lat="33.810313" lon="-118.393867">
  <ele>0.0</ele>
  <time>2026-09-01T01:17:27Z</time>
  <course>177.22</course>
  <speed>0.0</speed>
  <fix>3d</fix>
</trkpt>
<trkpt lat="33.810313" lon="-118.393867">
  <ele>-0.12</ele>
  <time>2026-09-01T01:17:27Z</time>
  <course>0.0</course>
  <speed>0.0</speed>
  <fix>3d</fix>
</trkpt>
<trkpt lat="33.810313" lon="-118.393867">
  <ele>0.0</ele>
  <time>2026-09-01T01:17:27Z</time>
  <course>177.28</course>
  <speed>0.0</speed>
  <fix>3d</fix>
</trkpt>
<trkpt lat="33.810313" lon="-118.393867">
  <ele>-0.12</ele>
  <time>2026-09-01T01:17:27Z</time>
  <course>0.0</course>
  <speed>0.0</speed>
  <fix>3d</fix>
</trkpt>
<trkpt lat="33.810313" lon="-118.393867">
  <ele>0.0</ele>
  <time>2026-09-01T01:17:27Z</time>
  <course>177.33</course>
  <speed>0.0</speed>
  <fix>3d</fix>
</trkpt>
<trkpt lat="33.810313" lon="-118.393867">
  <ele>-0.12</ele>
  <time>2026-09-01T01:17:27Z</time>
  <course>0.0</course>
  <speed>0.0</speed>
  <fix>3d</fix>
</trkpt>
<trkpt lat="33.810313" lon="-118.393867">
  <ele>0.0</ele>
  <time>2026-09-01T01:17:27Z</time>
  <course>177.39</course>
  <speed>0.0</speed>
  <fix>3d</fix>
</trkpt>
<trkpt lat="33.810313" lon="-118.393867">
  <ele>-0.12</ele>
  <time>2026-09-01T01:17:27Z</time>
  <course>0.0</course>
  <speed>0.0</speed>
  <fix>3d</fix>
</trkpt>
<trkpt lat="33.810313" lon="-118.393867">
  <ele>0.0</ele>
  <time>2026-09-01T01:17:27Z</time>
  <course>177.44</course>
  <speed>0.0</speed>
  <fix>3d</fix>
</trkpt>
<trkpt lat="33.810313" lon="-118.393867">
  <ele>-0.12</ele>
  <time>2026-09-01T01:17:27Z</time>
  <course>0.0</course>
  <speed>0.0</speed>
  <fix>3d</fix>
</trkpt>
<trkpt lat="33.810313" lon="-118.393867">
  <ele>0.0</ele>
  <time>2026-09-01T01:17:27Z</time>
  <course>177.49</course>
  <speed>0.0</speed>
  <fix>3d</fix>
</trkpt>
<trkpt lat="33.810313" lon="-118.393867">
  <ele>-0.12</ele>
  <time>2026-09-01T01:17:27Z</time>
  <course>0.0</course>
  <speed>0.0</speed>
  <fix>3d</fix>
</trkpt>
<trkpt lat="33.810313" lon="-118.393867">
  <ele>0.0</ele>
  <time>2026-09-01T01:17:27Z</time>
  <course>177.54</course>
  <speed>0.0</speed>
  <fix>3d</fix>
</trkpt>
<trkpt lat="33.810313" lon="-118.393867">
  <ele>-0.12</ele>
  <time>2026-09-01T01:17:27Z</time>
  <course>0.0</course>
  <speed>0.0</speed>
  <fix>3d</fix>
</trkpt>
<trkpt lat="33.810313" lon="-118.393867">
  <ele>0.0</ele>
  <time>2026-09-01T01:17:27Z</time>
  <course>177.59</course>
  <speed>0.0</speed>
  <fix>3d</fix>
</trkpt>
<trkpt lat="33.810313" lon="-118.393867">
  <ele>-0.13</ele>
  <time>2026-09-01T01:17:27Z</time>
  <course>0.0</course>
  <speed>0.0</speed>
  <fix>3d</fix>
</trkpt>
<trkpt lat="33.810313" lon="-118.393867">
  <ele>0.0</ele>
  <time>2026-09-01T01:17:27Z</time>
  <course>177.64</course>
  <speed>0.0</speed>
  <fix>3d</fix>
</trkpt>
<trkpt lat="33.810313" lon="-118.393867">
  <ele>-0.13</ele>
  <time>2026-09-01T01:17:27Z</time>
  <course>0.0</course>
  <speed>0.0</speed>
  <fix>3d</fix>
</trkpt>
<trkpt lat="33.810313" lon="-118.393867">
  <ele>0.0</ele>
  <time>2026-09-01T01:17:27Z</time>
  <course>177.69</course>
  <speed>0.0</speed>
  <fix>3d</fix>
</trkpt>
<trkpt lat="33.810313" lon="-118.393867">
  <ele>-0.13</ele>
  <time>2026-09-01T01:17:27Z</time>
  <course>0.0</course>
  <speed>0.0</speed>
  <fix>3d</fix>
</trkpt>
<trkpt lat="33.810313" lon="-118.393867">
  <ele>0.0</ele>
  <time>2026-09-01T01:17:27Z</time>
  <course>177.74</course>
  <speed>0.0</speed>
  <fix>3d</fix>
</trkpt>
<trkpt lat="33.810313" lon="-118.393867">
  <ele>-0.13</ele>
  <time>2026-09-01T01:17:27Z</time>
  <course>0.0</course>
  <speed>0.0</speed>
  <fix>3d</fix>
</trkpt>
<trkpt lat="33.810313" lon="-118.393867">
  <ele>0.0</ele>
  <time>2026-09-01T01:17:27Z</time>
  <course>177.79</course>
  <speed>0.0</speed>
  <fix>3d</fix>
</trkpt>
<trkpt lat="33.810313" lon="-118.393867">
  <ele>-0.13</ele>
  <time>2026-09-01T01:17:27Z</time>
  <course>0.0</course>
  <speed>0.0</speed>
  <fix>3d</fix>
</trkpt>
<trkpt lat="33.810313" lon="-118.393867">
  <ele>0.0</ele>
  <time>2026-09-01T01:17:27Z</time>
  <course>177.84</course>
  <speed>0.0</speed>
  <fix>3d</fix>
</trkpt>
<trkpt lat="33.810313" lon="-118.393867">
  <ele>-0.13</ele>
  <time>2026-09-01T01:17:27Z</time>
  <course>0.0</course>
  <speed>0.0</speed>
  <fix>3d</fix>
</trkpt>
<trkpt lat="33.810313" lon="-118.393867">
  <ele>0.0</ele>
  <time>2026-09-01T01:17:27Z</time>
  <course>177.88</course>
  <speed>0.0</speed>
  <fix>3d</fix>
</trkpt>
<trkpt lat="33.810313" lon="-118.393867">
  <ele>-0.13</ele>
  <time>2026-09-01T01:17:27Z</time>
  <course>0.0</course>
  <speed>0.0</speed>
  <fix>3d</fix>
</trkpt>
<trkpt lat="33.810313" lon="-118.393867">
  <ele>0.0</ele>
  <time>2026-09-01T01:17:27Z</time>
  <course>177.93</course>
  <speed>0.0</speed>
  <fix>3d</fix>
</trkpt>
<trkpt lat="33.810313" lon="-118.393867">
  <ele>-0.13</ele>
  <time>2026-09-01T01:17:27Z</time>
  <course>0.0</course>
  <speed>0.0</speed>
  <fix>3d</fix>
</trkpt>
<trkpt lat="33.810313" lon="-118.393867">
  <ele>0.0</ele>
  <time>2026-09-01T01:17:27Z</time>
  <course>177.97</course>
  <speed>0.0</speed>
  <fix>3d</fix>
</trkpt>
<trkpt lat="33.810313" lon="-118.393867">
  <ele>-0.12</ele>
  <time>2026-09-01T01:17:27Z</time>
  <course>0.0</course>
  <speed>0.0</speed>
  <fix>3d</fix>
</trkpt>
<trkpt lat="33.810313" lon="-118.393867">
  <ele>0.0</ele>
  <time>2026-09-01T01:17:27Z</time>
  <course>178.01</course>
  <speed>0.0</speed>
  <fix>3d</fix>
</trkpt>
<trkpt lat="33.810313" lon="-118.393867">
  <ele>-0.12</ele>
  <time>2026-09-01T01:17:27Z</time>
  <course>0.0</course>
  <speed>0.0</speed>
  <fix>3d</fix>
</trkpt>
<trkpt lat="33.810313" lon="-118.393867">
  <ele>0.0</ele>
  <time>2026-09-01T01:17:27Z</time>
  <course>178.06</course>
  <speed>0.0</speed>
  <fix>3d</fix>
</trkpt>
<trkpt lat="33.810313" lon="-118.393867">
  <ele>-0.12</ele>
  <time>2026-09-01T01:17:27Z</time>
  <course>0.0</course>
  <speed>0.0</speed>
  <fix>3d</fix>
</trkpt>
<trkpt lat="33.810313" lon="-118.393867">
  <ele>0.0</ele>
  <time>2026-09-01T01:17:27Z</time>
  <course>178.1</course>
  <speed>0.0</speed>
  <fix>3d</fix>
</trkpt>
<trkpt lat="33.810313" lon="-118.393867">
  <ele>-0.12</ele>
  <time>2026-09-01T01:17:27Z</time>
  <course>0.0</course>
  <speed>0.0</speed>
  <fix>3d</fix>
</trkpt>
<trkpt lat="33.810313" lon="-118.393867">
  <ele>0.0</ele>
  <time>2026-09-01T01:17:27Z</time>
  <course>178.14</course>
  <speed>0.0</speed>
  <fix>3d</fix>
</trkpt>
<trkpt lat="33.810313" lon="-118.393867">
  <ele>-0.12</ele>
  <time>2026-09-01T01:17:27Z</time>
  <course>0.0</course>
  <speed>0.0</speed>
  <fix>3d</fix>
</trkpt>
<trkpt lat="33.810313" lon="-118.393867">
  <ele>0.0</ele>
  <time>2026-09-01T01:17:27Z</time>
  <course>178.18</course>
  <speed>0.0</speed>
  <fix>3d</fix>
</trkpt>
<trkpt lat="33.810313" lon="-118.393867">
  <ele>-0.12</ele>
  <time>2026-09-01T01:17:27Z</time>
  <course>0.0</course>
  <speed>0.0</speed>
  <fix>3d</fix>
</trkpt>
<trkpt lat="33.810313" lon="-118.393867">
  <ele>0.0</ele>
  <time>2026-09-01T01:17:27Z</time>
  <course>178.22</course>
  <speed>0.0</speed>
  <fix>3d</fix>
</trkpt>
<trkpt lat="33.810313" lon="-118.393867">
  <ele>-0.12</ele>
  <time>2026-09-01T01:17:27Z</time>
  <course>0.0</course>
  <speed>0.0</speed>
  <fix>3d</fix>
</trkpt>
<trkpt lat="33.810313" lon="-118.393867">
  <ele>0.0</ele>
  <time>2026-09-01T01:17:27Z</time>
  <course>178.26</course>
  <speed>0.0</speed>
  <fix>3d</fix>
</trkpt>
<trkpt lat="33.810313" lon="-118.393867">
  <ele>-0.12</ele>
  <time>2026-09-01T01:17:27Z</time>
  <course>0.0</course>
  <speed>0.0</speed>
  <fix>3d</fix>
</trkpt>
<trkpt lat="33.810313" lon="-118.393867">
  <ele>0.0</ele>
  <time>2026-09-01T01:17:27Z</time>
  <course>178.3</course>
  <speed>0.0</speed>
  <fix>3d</fix>
</trkpt>
<trkpt lat="33.810313" lon="-118.393867">
  <ele>-0.12</ele>
  <time>2026-09-01T01:17:27Z</time>
  <course>0.0</course>
  <speed>0.0</speed>
  <fix>3d</fix>
</trkpt>
<trkpt lat="33.810313" lon="-118.393867">
  <ele>0.0</ele>
  <time>2026-09-01T01:17:27Z</time>
  <course>178.34</course>
  <speed>0.0</speed>
  <fix>3d</fix>
</trkpt>
<trkpt lat="33.810313" lon="-118.393867">
  <ele>-0.12</ele>
  <time>2026-09-01T01:17:27Z</time>
  <course>0.0</course>
  <speed>0.0</speed>
  <fix>3d</fix>
</trkpt>
<trkpt lat="33.810313" lon="-118.393867">
  <ele>0.0</ele>
  <time>2026-09-01T01:17:27Z</time>
  <course>178.37</course>
  <speed>0.0</speed>
  <fix>3d</fix>
</trkpt>
<trkpt lat="33.810313" lon="-118.393867">
  <ele>-0.13</ele>
  <time>2026-09-01T01:17:27Z</time>
  <course>0.0</course>
  <speed>0.0</speed>
  <fix>3d</fix>
</trkpt>
<trkpt lat="33.810313" lon="-118.393867">
  <ele>0.0</ele>
  <time>2026-09-01T01:17:27Z</time>
  <course>178.41</course>
  <speed>0.0</speed>
  <fix>3d</fix>
</trkpt>
<trkpt lat="33.810313" lon="-118.393867">
  <ele>-0.13</ele>
  <time>2026-09-01T01:17:27Z</time>
  <course>0.0</course>
  <speed>0.0</speed>
  <fix>3d</fix>
</trkpt>
<trkpt lat="33.810313" lon="-118.393867">
  <ele>0.0</ele>
  <time>2026-09-01T01:17:27Z</time>
  <course>178.45</course>
  <speed>0.0</speed>
  <fix>3d</fix>
</trkpt>
<trkpt lat="33.810313" lon="-118.393867">
  <ele>-0.13</ele>
  <time>2026-09-01T01:17:27Z</time>
  <course>0.0</course>
  <speed>0.0</speed>
  <fix>3d</fix>
</trkpt>
<trkpt lat="33.810313" lon="-118.393867">
  <ele>0.0</ele>
  <time>2026-09-01T01:17:27Z</time>
  <course>178.48</course>
  <speed>0.0</speed>
  <fix>3d</fix>
</trkpt>
<trkpt lat="33.810313" lon="-118.393867">
  <ele>-0.13</ele>
  <time>2026-09-01T01:17:27Z</time>
  <course>0.0</course>
  <speed>0.0</speed>
  <fix>3d</fix>
</trkpt>
<trkpt lat="33.810313" lon="-118.393867">
  <ele>0.0</ele>
  <time>2026-09-01T01:17:27Z</time>
  <course>178.52</course>
  <speed>0.0</speed>
  <fix>3d</fix>
</trkpt>
<trkpt lat="33.810313" lon="-118.393867">
  <ele>-0.13</ele>
  <time>2026-09-01T01:17:27Z</time>
  <course>0.0</course>
  <speed>0.0</speed>
  <fix>3d</fix>
</trkpt>
<trkpt lat="33.810313" lon="-118.393867">
  <ele>0.0</ele>
  <time>2026-09-01T01:17:27Z</time>
  <course>178.55</course>
  <speed>0.0</speed>
  <fix>3d</fix>
</trkpt>
<trkpt lat="33.810313" lon="-118.393867">
  <ele>-0.13</ele>
  <time>2026-09-01T01:17:27Z</time>
  <course>0.0</course>
  <speed>0.0</speed>
  <fix>3d</fix>
</trkpt>
<trkpt lat="33.810313" lon="-118.393867">
  <ele>0.0</ele>
  <time>2026-09-01T01:17:27Z</time>
  <course>178.59</course>
  <speed>0.0</speed>
  <fix>3d</fix>
</trkpt>
<trkpt lat="33.810313" lon="-118.393867">
  <ele>-0.12</ele>
  <time>2026-09-01T01:17:27Z</time>
  <course>0.0</course>
  <speed>0.0</speed>
  <fix>3d</fix>
</trkpt>
<trkpt lat="33.810313" lon="-118.393867">
  <ele>0.0</ele>
  <time>2026-09-01T01:17:27Z</time>
  <course>178.62</course>
  <speed>0.0</speed>
  <fix>3d</fix>
</trkpt>
<trkpt lat="33.810313" lon="-118.393867">
  <ele>-0.12</ele>
  <time>2026-09-01T01:17:27Z</time>
  <course>0.0</course>
  <speed>0.0</speed>
  <fix>3d</fix>
</trkpt>
<trkpt lat="33.810313" lon="-118.393867">
  <ele>0.0</ele>
  <time>2026-09-01T01:17:27Z</time>
  <course>178.65</course>
  <speed>0.0</speed>
  <fix>3d</fix>
</trkpt>
<trkpt lat="33.810313" lon="-118.393867">
  <ele>-0.12</ele>
  <time>2026-09-01T01:17:27Z</time>
  <course>0.0</course>
  <speed>0.0</speed>
  <fix>3d</fix>
</trkpt>
<trkpt lat="33.810313" lon="-118.393867">
  <ele>0.0</ele>
  <time>2026-09-01T01:17:27Z</time>
  <course>178.68</course>
  <speed>0.0</speed>
  <fix>3d</fix>
</trkpt>
<trkpt lat="33.810313" lon="-118.393867">
  <ele>-0.12</ele>
  <time>2026-09-01T01:17:27Z</time>
  <course>0.0</course>
  <speed>0.0</speed>
  <fix>3d</fix>
</trkpt>
<trkpt lat="33.810313" lon="-118.393867">
  <ele>0.0</ele>
  <time>2026-09-01T01:17:27Z</time>
  <course>178.71</course>
  <speed>0.0</speed>
  <fix>3d</fix>
</trkpt>
<trkpt lat="33.810313" lon="-118.393867">
  <ele>-0.12</ele>
  <time>2026-09-01T01:17:27Z</time>
  <course>0.0</course>
  <speed>0.0</speed>
  <fix>3d</fix>
</trkpt>
<trkpt lat="33.810313" lon="-118.393867">
  <ele>0.0</ele>
  <time>2026-09-01T01:17:27Z</time>
  <course>178.75</course>
  <speed>0.0</speed>
  <fix>3d</fix>
</trkpt>
<trkpt lat="33.810313" lon="-118.393867">
  <ele>-0.12</ele>
  <time>2026-09-01T01:17:27Z</time>
  <course>0.0</course>
  <speed>0.0</speed>
  <fix>3d</fix>
</trkpt>
<trkpt lat="33.810313" lon="-118.393867">
  <ele>0.0</ele>
  <time>2026-09-01T01:17:27Z</time>
  <course>178.78</course>
  <speed>0.0</speed>
  <fix>3d</fix>
</trkpt>
<trkpt lat="33.810313" lon="-118.393867">
  <ele>-0.12</ele>
  <time>2026-09-01T01:17:27Z</time>
  <course>0.0</course>
  <speed>0.0</speed>
  <fix>3d</fix>
</trkpt>
<trkpt lat="33.810313" lon="-118.393867">
  <ele>0.0</ele>
  <time>2026-09-01T01:17:27Z</time>
  <course>178.81</course>
  <speed>0.0</speed>
  <fix>3d</fix>
</trkpt>
<trkpt lat="33.810313" lon="-118.393867">
  <ele>-0.12</ele>
  <time>2026-09-01T01:17:27Z</time>
  <course>0.0</course>
  <speed>0.0</speed>
  <fix>3d</fix>
</trkpt>
<trkpt lat="33.810313" lon="-118.393867">
  <ele>0.0</ele>
  <time>2026-09-01T01:17:27Z</time>
  <course>178.83</course>
  <speed>0.0</speed>
  <fix>3d</fix>
</trkpt>
<trkpt lat="33.810313" lon="-118.393867">
  <ele>-0.12</ele>
  <time>2026-09-01T01:17:27Z</time>
  <course>0.0</course>
  <speed>0.0</speed>
  <fix>3d</fix>
</trkpt>
<trkpt lat="33.810313" lon="-118.393867">
  <ele>0.0</ele>
  <time>2026-09-01T01:17:27Z</time>
  <course>178.86</course>
  <speed>0.0</speed>
  <fix>3d</fix>
</trkpt>
<trkpt lat="33.810313" lon="-118.393867">
  <ele>-0.12</ele>
  <time>2026-09-01T01:17:27Z</time>
  <course>0.0</course>
  <speed>0.0</speed>
  <fix>3d</fix>
</trkpt>
<trkpt lat="33.810313" lon="-118.393867">
  <ele>0.0</ele>
  <time>2026-09-01T01:17:27Z</time>
  <course>178.89</course>
  <speed>0.0</speed>
  <fix>3d</fix>
</trkpt>
<trkpt lat="33.810313" lon="-118.393867">
  <ele>-0.13</ele>
  <time>2026-09-01T01:17:27Z</time>
  <course>0.0</course>
  <speed>0.0</speed>
  <fix>3d</fix>
</trkpt>
<trkpt lat="33.810313" lon="-118.393867">
  <ele>0.0</ele>
  <time>2026-09-01T01:17:27Z</time>
  <course>178.92</course>
  <speed>0.0</speed>
  <fix>3d</fix>
</trkpt>
<trkpt lat="33.810313" lon="-118.393867">
  <ele>-0.13</ele>
  <time>2026-09-01T01:17:27Z</time>
  <course>0.0</course>
  <speed>0.0</speed>
  <fix>3d</fix>
</trkpt>
<trkpt lat="33.810313" lon="-118.393867">
  <ele>0.0</ele>
  <time>2026-09-01T01:17:27Z</time>
  <course>178.95</course>
  <speed>0.0</speed>
  <fix>3d</fix>
</trkpt>
<trkpt lat="33.810313" lon="-118.393867">
  <ele>-0.13</ele>
  <time>2026-09-01T01:17:27Z</time>
  <course>0.0</course>
  <speed>0.0</speed>
  <fix>3d</fix>
</trkpt>
<trkpt lat="33.810313" lon="-118.393867">
  <ele>0.0</ele>
  <time>2026-09-01T01:17:27Z</time>
  <course>178.97</course>
  <speed>0.0</speed>
  <fix>3d</fix>
</trkpt>
<trkpt lat="33.810313" lon="-118.393867">
  <ele>-0.13</ele>
  <time>2026-09-01T01:17:27Z</time>
  <course>0.0</course>
  <speed>0.0</speed>
  <fix>3d</fix>
</trkpt>
<trkpt lat="33.810313" lon="-118.393867">
  <ele>0.0</ele>
  <time>2026-09-01T01:17:27Z</time>
  <course>179.0</course>
  <speed>0.0</speed>
  <fix>3d</fix>
</trkpt>
<trkpt lat="33.810313" lon="-118.393867">
  <ele>-0.13</ele>
  <time>2026-09-01T01:17:27Z</time>
  <course>0.0</course>
  <speed>0.0</speed>
  <fix>3d</fix>
</trkpt>
<trkpt lat="33.810313" lon="-118.393867">
  <ele>0.0</ele>
  <time>2026-09-01T01:17:27Z</time>
  <course>179.03</course>
  <speed>0.0</speed>
  <fix>3d</fix>
</trkpt>
<trkpt lat="33.810313" lon="-118.393867">
  <ele>-0.13</ele>
  <time>2026-09-01T01:17:27Z</time>
  <course>0.0</course>
  <speed>0.0</speed>
  <fix>3d</fix>
</trkpt>
<trkpt lat="33.810313" lon="-118.393867">
  <ele>0.0</ele>
  <time>2026-09-01T01:17:27Z</time>
  <course>179.05</course>
  <speed>0.0</speed>
  <fix>3d</fix>
</trkpt>
<trkpt lat="33.810313" lon="-118.393867">
  <ele>-0.12</ele>
  <time>2026-09-01T01:17:27Z</time>
  <course>0.0</course>
  <speed>0.0</speed>
  <fix>3d</fix>
</trkpt>
<trkpt lat="33.810313" lon="-118.393867">
  <ele>0.0</ele>
  <time>2026-09-01T01:17:27Z</time>
  <course>179.08</course>
  <speed>0.0</speed>
  <fix>3d</fix>
</trkpt>
<trkpt lat="33.810313" lon="-118.393867">
  <ele>-0.12</ele>
  <time>2026-09-01T01:17:27Z</time>
  <course>0.0</course>
  <speed>0.0</speed>
  <fix>3d</fix>
</trkpt>
<trkpt lat="33.810313" lon="-118.393867">
  <ele>0.0</ele>
  <time>2026-09-01T01:17:27Z</time>
  <course>179.1</course>
  <speed>0.0</speed>
  <fix>3d</fix>
</trkpt>
<trkpt lat="33.810313" lon="-118.393867">
  <ele>-0.12</ele>
  <time>2026-09-01T01:17:27Z</time>
  <course>0.0</course>
  <speed>0.0</speed>
  <fix>3d</fix>
</trkpt>
<trkpt lat="33.810313" lon="-118.393867">
  <ele>0.0</ele>
  <time>2026-09-01T01:17:27Z</time>
  <course>179.12</course>
  <speed>0.0</speed>
  <fix>3d</fix>
</trkpt>
<trkpt lat="33.810313" lon="-118.393867">
  <ele>-0.12</ele>
  <time>2026-09-01T01:17:27Z</time>
  <course>0.0</course>
  <speed>0.0</speed>
  <fix>3d</fix>
</trkpt>
<trkpt lat="33.810313" lon="-118.393867">
  <ele>0.0</ele>
  <time>2026-09-01T01:17:27Z</time>
  <course>179.15</course>
  <speed>0.0</speed>
  <fix>3d</fix>
</trkpt>
<trkpt lat="33.810313" lon="-118.393867">
  <ele>-0.12</ele>
  <time>2026-09-01T01:17:27Z</time>
  <course>0.0</course>
  <speed>0.0</speed>
  <fix>3d</fix>
</trkpt>
<trkpt lat="33.810313" lon="-118.393867">
  <ele>0.0</ele>
  <time>2026-09-01T01:17:27Z</time>
  <course>179.17</course>
  <speed>0.0</speed>
  <fix>3d</fix>
</trkpt>
<trkpt lat="33.810313" lon="-118.393867">
  <ele>-0.12</ele>
  <time>2026-09-01T01:17:27Z</time>
  <course>0.0</course>
  <speed>0.0</speed>
  <fix>3d</fix>
</trkpt>
<trkpt lat="33.810313" lon="-118.393867">
  <ele>0.0</ele>
  <time>2026-09-01T01:17:27Z</time>
  <course>179.19</course>
  <speed>0.0</speed>
  <fix>3d</fix>
</trkpt>
<trkpt lat="33.810313" lon="-118.393867">
  <ele>-0.12</ele>
  <time>2026-09-01T01:17:27Z</time>
  <course>0.0</course>
  <speed>0.0</speed>
  <fix>3d</fix>
</trkpt>
<trkpt lat="33.810313" lon="-118.393867">
  <ele>0.0</ele>
  <time>2026-09-01T01:17:27Z</time>
  <course>179.21</course>
  <speed>0.0</speed>
  <fix>3d</fix>
</trkpt>
<trkpt lat="33.810313" lon="-118.393867">
  <ele>-0.12</ele>
  <time>2026-09-01T01:17:27Z</time>
  <course>0.0</course>
  <speed>0.0</speed>
  <fix>3d</fix>
</trkpt>
<trkpt lat="33.810313" lon="-118.393867">
  <ele>0.0</ele>
  <time>2026-09-01T01:17:27Z</time>
  <course>179.24</course>
  <speed>0.0</speed>
  <fix>3d</fix>
</trkpt>
<trkpt lat="33.810313" lon="-118.393867">
  <ele>-0.12</ele>
  <time>2026-09-01T01:17:27Z</time>
  <course>0.0</course>
  <speed>0.0</speed>
  <fix>3d</fix>
</trkpt>
<trkpt lat="33.810313" lon="-118.393867">
  <ele>0.0</ele>
  <time>2026-09-01T01:17:27Z</time>
  <course>179.26</course>
  <speed>0.0</speed>
  <fix>3d</fix>
</trkpt>
<trkpt lat="33.810313" lon="-118.393867">
  <ele>-0.12</ele>
  <time>2026-09-01T01:17:27Z</time>
  <course>0.0</course>
  <speed>0.0</speed>
  <fix>3d</fix>
</trkpt>
<trkpt lat="33.810313" lon="-118.393867">
  <ele>0.0</ele>
  <time>2026-09-01T01:17:27Z</time>
  <course>179.28</course>
  <speed>0.0</speed>
  <fix>3d</fix>
</trkpt>
<trkpt lat="33.810313" lon="-118.393867">
  <ele>-0.13</ele>
  <time>2026-09-01T01:17:27Z</time>
  <course>0.0</course>
  <speed>0.0</speed>
  <fix>3d</fix>
</trkpt>
<trkpt lat="33.810313" lon="-118.393867">
  <ele>0.0</ele>
  <time>2026-09-01T01:17:27Z</time>
  <course>179.3</course>
  <speed>0.0</speed>
  <fix>3d</fix>
</trkpt>
<trkpt lat="33.810313" lon="-118.393867">
  <ele>-0.13</ele>
  <time>2026-09-01T01:17:27Z</time>
  <course>0.0</course>
  <speed>0.0</speed>
  <fix>3d</fix>
</trkpt>
<trkpt lat="33.810313" lon="-118.393867">
  <ele>-0.125</ele>
  <time>2026-09-01T01:17:27Z</time>
  <course>179.32</course>
  <speed>0.0</speed>
  <fix>3d</fix>
</trkpt>
<trkpt lat="33.810313" lon="-118.393867">
  <ele>-0.13</ele>
  <time>2026-09-01T01:17:27Z</time>
  <course>0.0</course>
  <speed>0.0</speed>
  <fix>3d</fix>
</trkpt>
<trkpt lat="33.810313" lon="-118.393867">
  <ele>-0.123</ele>
  <time>2026-09-01T01:17:27Z</time>
  <course>179.35</course>
  <speed>0.0</speed>
  <fix>3d</fix>
</trkpt>
<trkpt lat="33.810313" lon="-118.393867">
  <ele>-0.13</ele>
  <time>2026-09-01T01:17:27Z</time>
  <course>0.0</course>
  <speed>0.0</speed>
  <fix>3d</fix>
</trkpt>
<trkpt lat="33.810313" lon="-118.393867">
  <ele>-0.121</ele>
  <time>2026-09-01T01:17:28Z</time>
  <course>179.46</course>
  <speed>0.0</speed>
  <fix>3d</fix>
</trkpt>
<trkpt lat="33.810313" lon="-118.393867">
  <ele>-0.12</ele>
  <time>2026-09-01T01:17:28Z</time>
  <course>0.0</course>
  <speed>0.0</speed>
  <fix>3d</fix>
</trkpt>
<trkpt lat="33.810313" lon="-118.393867">
  <ele>-0.119</ele>
  <time>2026-09-01T01:17:28Z</time>
  <course>179.67</course>
  <speed>0.01</speed>
  <fix>3d</fix>
</trkpt>
<trkpt lat="33.810313" lon="-118.393867">
  <ele>-0.12</ele>
  <time>2026-09-01T01:17:28Z</time>
  <course>0.0</course>
  <speed>0.0</speed>
  <fix>3d</fix>
</trkpt>
<trkpt lat="33.810313" lon="-118.393867">
  <ele>-0.119</ele>
  <time>2026-09-01T01:17:28Z</time>
  <course>179.95</course>
  <speed>0.01</speed>
  <fix>3d</fix>
</trkpt>
<trkpt lat="33.810313" lon="-118.393867">
  <ele>-0.12</ele>
  <time>2026-09-01T01:17:28Z</time>
  <course>0.0</course>
  <speed>0.0</speed>
  <fix>3d</fix>
</trkpt>
<trkpt lat="33.810313" lon="-118.393867">
  <ele>-0.12</ele>
  <time>2026-09-01T01:17:28Z</time>
  <course>180.24</course>
  <speed>0.01</speed>
  <fix>3d</fix>
</trkpt>
<trkpt lat="33.810313" lon="-118.393867">
  <ele>-0.12</ele>
  <time>2026-09-01T01:17:28Z</time>
  <course>0.0</course>
  <speed>0.0</speed>
  <fix>3d</fix>
</trkpt>
<trkpt lat="33.810313" lon="-118.393867">
  <ele>-0.123</ele>
  <time>2026-09-01T01:17:28Z</time>
  <course>180.51</course>
  <speed>0.02</speed>
  <fix>3d</fix>
</trkpt>
<trkpt lat="33.810313" lon="-118.393867">
  <ele>-0.12</ele>
  <time>2026-09-01T01:17:28Z</time>
  <course>0.0</course>
  <speed>0.0</speed>
  <fix>3d</fix>
</trkpt>
<trkpt lat="33.810313" lon="-118.393867">
  <ele>-0.127</ele>
  <time>2026-09-01T01:17:28Z</time>
  <course>180.75</course>
  <speed>0.02</speed>
  <fix>3d</fix>
</trkpt>
<trkpt lat="33.810313" lon="-118.393867">
  <ele>-0.12</ele>
  <time>2026-09-01T01:17:28Z</time>
  <course>0.0</course>
  <speed>0.0</speed>
  <fix>3d</fix>
</trkpt>
<trkpt lat="33.810313" lon="-118.393867">
  <ele>-0.13</ele>
  <time>2026-09-01T01:17:28Z</time>
  <course>180.97</course>
  <speed>0.02</speed>
  <fix>3d</fix>
</trkpt>
<trkpt lat="33.810313" lon="-118.393867">
  <ele>-0.12</ele>
  <time>2026-09-01T01:17:28Z</time>
  <course>0.0</course>
  <speed>0.0</speed>
  <fix>3d</fix>
</trkpt>
<trkpt lat="33.810313" lon="-118.393867">
  <ele>-0.132</ele>
  <time>2026-09-01T01:17:28Z</time>
  <course>181.18</course>
  <speed>0.03</speed>
  <fix>3d</fix>
</trkpt>
<trkpt lat="33.810313" lon="-118.393867">
  <ele>-0.12</ele>
  <time>2026-09-01T01:17:28Z</time>
  <course>0.0</course>
  <speed>0.0</speed>
  <fix>3d</fix>
</trkpt>
<trkpt lat="33.810313" lon="-118.393867">
  <ele>-0.132</ele>
  <time>2026-09-01T01:17:28Z</time>
  <course>181.38</course>
  <speed>0.03</speed>
  <fix>3d</fix>
</trkpt>
<trkpt lat="33.810313" lon="-118.393867">
  <ele>-0.12</ele>
  <time>2026-09-01T01:17:28Z</time>
  <course>0.0</course>
  <speed>0.0</speed>
  <fix>3d</fix>
</trkpt>
<trkpt lat="33.810313" lon="-118.393867">
  <ele>-0.132</ele>
  <time>2026-09-01T01:17:28Z</time>
  <course>181.55</course>
  <speed>0.03</speed>
  <fix>3d</fix>
</trkpt>
<trkpt lat="33.810313" lon="-118.393867">
  <ele>-0.12</ele>
  <time>2026-09-01T01:17:28Z</time>
  <course>0.0</course>
  <speed>0.0</speed>
  <fix>3d</fix>
</trkpt>
<trkpt lat="33.810313" lon="-118.393867">
  <ele>-0.132</ele>
  <time>2026-09-01T01:17:28Z</time>
  <course>181.72</course>
  <speed>0.03</speed>
  <fix>3d</fix>
</trkpt>
<trkpt lat="33.810313" lon="-118.393867">
  <ele>-0.12</ele>
  <time>2026-09-01T01:17:28Z</time>
  <course>0.0</course>
  <speed>0.0</speed>
  <fix>3d</fix>
</trkpt>
<trkpt lat="33.810313" lon="-118.393867">
  <ele>-0.131</ele>
  <time>2026-09-01T01:17:28Z</time>
  <course>181.89</course>
  <speed>0.04</speed>
  <fix>3d</fix>
</trkpt>
<trkpt lat="33.810313" lon="-118.393867">
  <ele>-0.12</ele>
  <time>2026-09-01T01:17:28Z</time>
  <course>0.0</course>
  <speed>0.0</speed>
  <fix>3d</fix>
</trkpt>
<trkpt lat="33.810313" lon="-118.393867">
  <ele>-0.129</ele>
  <time>2026-09-01T01:17:28Z</time>
  <course>182.04</course>
  <speed>0.04</speed>
  <fix>3d</fix>
</trkpt>
<trkpt lat="33.810313" lon="-118.393867">
  <ele>-0.13</ele>
  <time>2026-09-01T01:17:28Z</time>
  <course>0.0</course>
  <speed>0.0</speed>
  <fix>3d</fix>
</trkpt>
<trkpt lat="33.810313" lon="-118.393867">
  <ele>-0.128</ele>
  <time>2026-09-01T01:17:28Z</time>
  <course>182.19</course>
  <speed>0.04</speed>
  <fix>3d</fix>
</trkpt>
<trkpt lat="33.810313" lon="-118.393867">
  <ele>-0.13</ele>
  <time>2026-09-01T01:17:28Z</time>
  <course>0.0</course>
  <speed>0.0</speed>
  <fix>3d</fix>
</trkpt>
<trkpt lat="33.810313" lon="-118.393867">
  <ele>-0.125</ele>
  <time>2026-09-01T01:17:28Z</time>
  <course>182.34</course>
  <speed>0.04</speed>
  <fix>3d</fix>
</trkpt>
<trkpt lat="33.810313" lon="-118.393867">
  <ele>-0.12</ele>
  <time>2026-09-01T01:17:28Z</time>
  <course>0.0</course>
  <speed>0.0</speed>
  <fix>3d</fix>
</trkpt>
<trkpt lat="33.810313" lon="-118.393867">
  <ele>-0.123</ele>
  <time>2026-09-01T01:17:28Z</time>
  <course>182.47</course>
  <speed>0.04</speed>
  <fix>3d</fix>
</trkpt>
<trkpt lat="33.810313" lon="-118.393867">
  <ele>-0.12</ele>
  <time>2026-09-01T01:17:28Z</time>
  <course>0.0</course>
  <speed>0.0</speed>
  <fix>3d</fix>
</trkpt>
<trkpt lat="33.810313" lon="-118.393867">
  <ele>-0.121</ele>
  <time>2026-09-01T01:17:28Z</time>
  <course>182.6</course>
  <speed>0.04</speed>
  <fix>3d</fix>
</trkpt>
<trkpt lat="33.810313" lon="-118.393867">
  <ele>-0.12</ele>
  <time>2026-09-01T01:17:28Z</time>
  <course>0.0</course>
  <speed>0.0</speed>
  <fix>3d</fix>
</trkpt>
<trkpt lat="33.810313" lon="-118.393867">
  <ele>-0.121</ele>
  <time>2026-09-01T01:17:28Z</time>
  <course>182.73</course>
  <speed>0.04</speed>
  <fix>3d</fix>
</trkpt>
<trkpt lat="33.810313" lon="-118.393867">
  <ele>-0.12</ele>
  <time>2026-09-01T01:17:28Z</time>
  <course>0.0</course>
  <speed>0.0</speed>
  <fix>3d</fix>
</trkpt>
<trkpt lat="33.810313" lon="-118.393867">
  <ele>-0.121</ele>
  <time>2026-09-01T01:17:28Z</time>
  <course>182.84</course>
  <speed>0.05</speed>
  <fix>3d</fix>
</trkpt>
<trkpt lat="33.810313" lon="-118.393867">
  <ele>-0.12</ele>
  <time>2026-09-01T01:17:28Z</time>
  <course>0.0</course>
  <speed>0.0</speed>
  <fix>3d</fix>
</trkpt>
<trkpt lat="33.810313" lon="-118.393867">
  <ele>-0.123</ele>
  <time>2026-09-01T01:17:28Z</time>
  <course>182.96</course>
  <speed>0.05</speed>
  <fix>3d</fix>
</trkpt>
<trkpt lat="33.810313" lon="-118.393867">
  <ele>-0.12</ele>
  <time>2026-09-01T01:17:28Z</time>
  <course>0.0</course>
  <speed>0.0</speed>
  <fix>3d</fix>
</trkpt>
<trkpt lat="33.810313" lon="-118.393867">
  <ele>-0.126</ele>
  <time>2026-09-01T01:17:28Z</time>
  <course>183.07</course>
  <speed>0.05</speed>
  <fix>3d</fix>
</trkpt>
<trkpt lat="33.810313" lon="-118.393867">
  <ele>-0.12</ele>
  <time>2026-09-01T01:17:28Z</time>
  <course>0.0</course>
  <speed>0.0</speed>
  <fix>3d</fix>
</trkpt>
<trkpt lat="33.810313" lon="-118.393867">
  <ele>-0.127</ele>
  <time>2026-09-01T01:17:28Z</time>
  <course>183.17</course>
  <speed>0.05</speed>
  <fix>3d</fix>
</trkpt>
<trkpt lat="33.810313" lon="-118.393867">
  <ele>-0.12</ele>
  <time>2026-09-01T01:17:28Z</time>
  <course>0.0</course>
  <speed>0.0</speed>
  <fix>3d</fix>
</trkpt>
<trkpt lat="33.810313" lon="-118.393867">
  <ele>-0.127</ele>
  <time>2026-09-01T01:17:28Z</time>
  <course>183.27</course>
  <speed>0.05</speed>
  <fix>3d</fix>
</trkpt>
<trkpt lat="33.810313" lon="-118.393867">
  <ele>-0.12</ele>
  <time>2026-09-01T01:17:28Z</time>
  <course>0.0</course>
  <speed>0.0</speed>
  <fix>3d</fix>
</trkpt>
<trkpt lat="33.810313" lon="-118.393867">
  <ele>-0.127</ele>
  <time>2026-09-01T01:17:28Z</time>
  <course>183.37</course>
  <speed>0.05</speed>
  <fix>3d</fix>
</trkpt>
<trkpt lat="33.810313" lon="-118.393867">
  <ele>-0.12</ele>
  <time>2026-09-01T01:17:28Z</time>
  <course>0.0</course>
  <speed>0.0</speed>
  <fix>3d</fix>
</trkpt>
<trkpt lat="33.810313" lon="-118.393867">
  <ele>-0.127</ele>
  <time>2026-09-01T01:17:28Z</time>
  <course>183.46</course>
  <speed>0.05</speed>
  <fix>3d</fix>
</trkpt>
<trkpt lat="33.810313" lon="-118.393867">
  <ele>-0.12</ele>
  <time>2026-09-01T01:17:28Z</time>
  <course>0.0</course>
  <speed>0.0</speed>
  <fix>3d</fix>
</trkpt>
<trkpt lat="33.810313" lon="-118.393867">
  <ele>-0.127</ele>
  <time>2026-09-01T01:17:28Z</time>
  <course>183.55</course>
  <speed>0.05</speed>
  <fix>3d</fix>
</trkpt>
<trkpt lat="33.810313" lon="-118.393867">
  <ele>-0.12</ele>
  <time>2026-09-01T01:17:28Z</time>
  <course>0.0</course>
  <speed>0.0</speed>
  <fix>3d</fix>
</trkpt>
<trkpt lat="33.810313" lon="-118.393867">
  <ele>-0.127</ele>
  <time>2026-09-01T01:17:28Z</time>
  <course>183.64</course>
  <speed>0.05</speed>
  <fix>3d</fix>
</trkpt>
<trkpt lat="33.810313" lon="-118.393867">
  <ele>-0.12</ele>
  <time>2026-09-01T01:17:28Z</time>
  <course>0.0</course>
  <speed>0.0</speed>
  <fix>3d</fix>
</trkpt>
<trkpt lat="33.810313" lon="-118.393867">
  <ele>-0.127</ele>
  <time>2026-09-01T01:17:28Z</time>
  <course>183.72</course>
  <speed>0.05</speed>
  <fix>3d</fix>
</trkpt>
<trkpt lat="33.810313" lon="-118.393867">
  <ele>-0.12</ele>
  <time>2026-09-01T01:17:28Z</time>
  <course>0.0</course>
  <speed>0.0</speed>
  <fix>3d</fix>
</trkpt>
<trkpt lat="33.810313" lon="-118.393867">
  <ele>-0.126</ele>
  <time>2026-09-01T01:17:28Z</time>
  <course>183.8</course>
  <speed>0.05</speed>
  <fix>3d</fix>
</trkpt>
<trkpt lat="33.810313" lon="-118.393867">
  <ele>-0.12</ele>
  <time>2026-09-01T01:17:28Z</time>
  <course>0.0</course>
  <speed>0.0</speed>
  <fix>3d</fix>
</trkpt>
<trkpt lat="33.810313" lon="-118.393867">
  <ele>-0.126</ele>
  <time>2026-09-01T01:17:28Z</time>
  <course>183.88</course>
  <speed>0.05</speed>
  <fix>3d</fix>
</trkpt>
<trkpt lat="33.810313" lon="-118.393867">
  <ele>-0.12</ele>
  <time>2026-09-01T01:17:28Z</time>
  <course>0.0</course>
  <speed>0.0</speed>
  <fix>3d</fix>
</trkpt>
<trkpt lat="33.810313" lon="-118.393867">
  <ele>-0.125</ele>
  <time>2026-09-01T01:17:28Z</time>
  <course>183.96</course>
  <speed>0.05</speed>
  <fix>3d</fix>
</trkpt>
<trkpt lat="33.810313" lon="-118.393867">
  <ele>-0.12</ele>
  <time>2026-09-01T01:17:28Z</time>
  <course>0.0</course>
  <speed>0.0</speed>
  <fix>3d</fix>
</trkpt>
<trkpt lat="33.810313" lon="-118.393867">
  <ele>-0.126</ele>
  <time>2026-09-01T01:17:28Z</time>
  <course>184.03</course>
  <speed>0.05</speed>
  <fix>3d</fix>
</trkpt>
<trkpt lat="33.810313" lon="-118.393867">
  <ele>-0.12</ele>
  <time>2026-09-01T01:17:28Z</time>
  <course>0.0</course>
  <speed>0.0</speed>
  <fix>3d</fix>
</trkpt>
<trkpt lat="33.810313" lon="-118.393867">
  <ele>-0.127</ele>
  <time>2026-09-01T01:17:28Z</time>
  <course>184.1</course>
  <speed>0.05</speed>
  <fix>3d</fix>
</trkpt>
<trkpt lat="33.810313" lon="-118.393867">
  <ele>-0.12</ele>
  <time>2026-09-01T01:17:28Z</time>
  <course>0.0</course>
  <speed>0.0</speed>
  <fix>3d</fix>
</trkpt>
<trkpt lat="33.810313" lon="-118.393867">
  <ele>-0.128</ele>
  <time>2026-09-01T01:17:28Z</time>
  <course>184.16</course>
  <speed>0.05</speed>
  <fix>3d</fix>
</trkpt>
<trkpt lat="33.810313" lon="-118.393867">
  <ele>-0.12</ele>
  <time>2026-09-01T01:17:28Z</time>
  <course>0.0</course>
  <speed>0.0</speed>
  <fix>3d</fix>
</trkpt>
<trkpt lat="33.810313" lon="-118.393867">
  <ele>-0.129</ele>
  <time>2026-09-01T01:17:28Z</time>
  <course>184.23</course>
  <speed>0.05</speed>
  <fix>3d</fix>
</trkpt>
<trkpt lat="33.810313" lon="-118.393867">
  <ele>-0.12</ele>
  <time>2026-09-01T01:17:28Z</time>
  <course>0.0</course>
  <speed>0.0</speed>
  <fix>3d</fix>
</trkpt>
<trkpt lat="33.810313" lon="-118.393867">
  <ele>-0.129</ele>
  <time>2026-09-01T01:17:28Z</time>
  <course>184.29</course>
  <speed>0.05</speed>
  <fix>3d</fix>
</trkpt>
<trkpt lat="33.810313" lon="-118.393867">
  <ele>-0.12</ele>
  <time>2026-09-01T01:17:28Z</time>
  <course>0.0</course>
  <speed>0.0</speed>
  <fix>3d</fix>
</trkpt>
<trkpt lat="33.810313" lon="-118.393867">
  <ele>-0.13</ele>
  <time>2026-09-01T01:17:28Z</time>
  <course>184.35</course>
  <speed>0.05</speed>
  <fix>3d</fix>
</trkpt>
<trkpt lat="33.810313" lon="-118.393867">
  <ele>-0.12</ele>
  <time>2026-09-01T01:17:28Z</time>
  <course>0.0</course>
  <speed>0.0</speed>
  <fix>3d</fix>
</trkpt>
<trkpt lat="33.810313" lon="-118.393867">
  <ele>-0.13</ele>
  <time>2026-09-01T01:17:28Z</time>
  <course>184.41</course>
  <speed>0.05</speed>
  <fix>3d</fix>
</trkpt>
<trkpt lat="33.810313" lon="-118.393867">
  <ele>-0.12</ele>
  <time>2026-09-01T01:17:28Z</time>
  <course>0.0</course>
  <speed>0.0</speed>
  <fix>3d</fix>
</trkpt>
<trkpt lat="33.810313" lon="-118.393867">
  <ele>-0.13</ele>
  <time>2026-09-01T01:17:28Z</time>
  <course>184.47</course>
  <speed>0.05</speed>
  <fix>3d</fix>
</trkpt>
<trkpt lat="33.810313" lon="-118.393867">
  <ele>-0.12</ele>
  <time>2026-09-01T01:17:28Z</time>
  <course>0.0</course>
  <speed>0.0</speed>
  <fix>3d</fix>
</trkpt>
<trkpt lat="33.810313" lon="-118.393867">
  <ele>-0.129</ele>
  <time>2026-09-01T01:17:28Z</time>
  <course>184.52</course>
  <speed>0.05</speed>
  <fix>3d</fix>
</trkpt>
<trkpt lat="33.810313" lon="-118.393867">
  <ele>-0.12</ele>
  <time>2026-09-01T01:17:28Z</time>
  <course>0.0</course>
  <speed>0.0</speed>
  <fix>3d</fix>
</trkpt>
<trkpt lat="33.810313" lon="-118.393867">
  <ele>-0.128</ele>
  <time>2026-09-01T01:17:28Z</time>
  <course>184.57</course>
  <speed>0.05</speed>
  <fix>3d</fix>
</trkpt>
<trkpt lat="33.810313" lon="-118.393867">
  <ele>-0.12</ele>
  <time>2026-09-01T01:17:28Z</time>
  <course>0.0</course>
  <speed>0.0</speed>
  <fix>3d</fix>
</trkpt>
<trkpt lat="33.810313" lon="-118.393867">
  <ele>-0.126</ele>
  <time>2026-09-01T01:17:28Z</time>
  <course>184.63</course>
  <speed>0.05</speed>
  <fix>3d</fix>
</trkpt>
<trkpt lat="33.810313" lon="-118.393867">
  <ele>-0.12</ele>
  <time>2026-09-01T01:17:28Z</time>
  <course>0.0</course>
  <speed>0.0</speed>
  <fix>3d</fix>
</trkpt>
<trkpt lat="33.810313" lon="-118.393867">
  <ele>-0.124</ele>
  <time>2026-09-01T01:17:28Z</time>
  <course>184.67</course>
  <speed>0.05</speed>
  <fix>3d</fix>
</trkpt>
<trkpt lat="33.810313" lon="-118.393867">
  <ele>-0.12</ele>
  <time>2026-09-01T01:17:28Z</time>
  <course>0.0</course>
  <speed>0.0</speed>
  <fix>3d</fix>
</trkpt>
<trkpt lat="33.810313" lon="-118.393867">
  <ele>-0.122</ele>
  <time>2026-09-01T01:17:28Z</time>
  <course>184.72</course>
  <speed>0.04</speed>
  <fix>3d</fix>
</trkpt>
<trkpt lat="33.810313" lon="-118.393867">
  <ele>-0.12</ele>
  <time>2026-09-01T01:17:28Z</time>
  <course>0.0</course>
  <speed>0.0</speed>
  <fix>3d</fix>
</trkpt>
<trkpt lat="33.810313" lon="-118.393867">
  <ele>-0.123</ele>
  <time>2026-09-01T01:17:28Z</time>
  <course>184.77</course>
  <speed>0.04</speed>
  <fix>3d</fix>
</trkpt>
<trkpt lat="33.810313" lon="-118.393867">
  <ele>-0.12</ele>
  <time>2026-09-01T01:17:28Z</time>
  <course>0.0</course>
  <speed>0.0</speed>
  <fix>3d</fix>
</trkpt>
<trkpt lat="33.810313" lon="-118.393867">
  <ele>-0.125</ele>
  <time>2026-09-01T01:17:28Z</time>
  <course>184.81</course>
  <speed>0.04</speed>
  <fix>3d</fix>
</trkpt>
<trkpt lat="33.810313" lon="-118.393867">
  <ele>-0.12</ele>
  <time>2026-09-01T01:17:28Z</time>
  <course>0.0</course>
  <speed>0.0</speed>
  <fix>3d</fix>
</trkpt>
<trkpt lat="33.810313" lon="-118.393867">
  <ele>-0.128</ele>
  <time>2026-09-01T01:17:28Z</time>
  <course>184.85</course>
  <speed>0.04</speed>
  <fix>3d</fix>
</trkpt>
<trkpt lat="33.810313" lon="-118.393867">
  <ele>-0.12</ele>
  <time>2026-09-01T01:17:28Z</time>
  <course>0.0</course>
  <speed>0.0</speed>
  <fix>3d</fix>
</trkpt>
<trkpt lat="33.810313" lon="-118.393867">
  <ele>-0.131</ele>
  <time>2026-09-01T01:17:28Z</time>
  <course>184.9</course>
  <speed>0.04</speed>
  <fix>3d</fix>
</trkpt>
<trkpt lat="33.810313" lon="-118.393867">
  <ele>-0.12</ele>
  <time>2026-09-01T01:17:28Z</time>
  <course>0.0</course>
  <speed>0.0</speed>
  <fix>3d</fix>
</trkpt>
<trkpt lat="33.810313" lon="-118.393867">
  <ele>-0.134</ele>
  <time>2026-09-01T01:17:28Z</time>
  <course>184.94</course>
  <speed>0.04</speed>
  <fix>3d</fix>
</trkpt>
<trkpt lat="33.810313" lon="-118.393867">
  <ele>-0.12</ele>
  <time>2026-09-01T01:17:28Z</time>
  <course>0.0</course>
  <speed>0.0</speed>
  <fix>3d</fix>
</trkpt>
<trkpt lat="33.810313" lon="-118.393867">
  <ele>-0.135</ele>
  <time>2026-09-01T01:17:28Z</time>
  <course>184.97</course>
  <speed>0.04</speed>
  <fix>3d</fix>
</trkpt>
<trkpt lat="33.810313" lon="-118.393867">
  <ele>-0.12</ele>
  <time>2026-09-01T01:17:28Z</time>
  <course>0.0</course>
  <speed>0.0</speed>
  <fix>3d</fix>
</trkpt>
<trkpt lat="33.810313" lon="-118.393867">
  <ele>-0.134</ele>
  <time>2026-09-01T01:17:28Z</time>
  <course>185.01</course>
  <speed>0.04</speed>
  <fix>3d</fix>
</trkpt>
<trkpt lat="33.810313" lon="-118.393867">
  <ele>-0.12</ele>
  <time>2026-09-01T01:17:28Z</time>
  <course>0.0</course>
  <speed>0.0</speed>
  <fix>3d</fix>
</trkpt>
<trkpt lat="33.810313" lon="-118.393867">
  <ele>-0.132</ele>
  <time>2026-09-01T01:17:28Z</time>
  <course>185.05</course>
  <speed>0.04</speed>
  <fix>3d</fix>
</trkpt>
<trkpt lat="33.810313" lon="-118.393867">
  <ele>-0.12</ele>
  <time>2026-09-01T01:17:28Z</time>
  <course>0.0</course>
  <speed>0.0</speed>
  <fix>3d</fix>
</trkpt>
<trkpt lat="33.810313" lon="-118.393867">
  <ele>-0.13</ele>
  <time>2026-09-01T01:17:28Z</time>
  <course>185.08</course>
  <speed>0.04</speed>
  <fix>3d</fix>
</trkpt>
<trkpt lat="33.810313" lon="-118.393867">
  <ele>-0.12</ele>
  <time>2026-09-01T01:17:28Z</time>
  <course>0.0</course>
  <speed>0.0</speed>
  <fix>3d</fix>
</trkpt>
<trkpt lat="33.810313" lon="-118.393867">
  <ele>-0.127</ele>
  <time>2026-09-01T01:17:28Z</time>
  <course>185.11</course>
  <speed>0.04</speed>
  <fix>3d</fix>
</trkpt>
<trkpt lat="33.810313" lon="-118.393867">
  <ele>-0.12</ele>
  <time>2026-09-01T01:17:28Z</time>
  <course>0.0</course>
  <speed>0.0</speed>
  <fix>3d</fix>
</trkpt>
<trkpt lat="33.810313" lon="-118.393867">
  <ele>-0.125</ele>
  <time>2026-09-01T01:17:28Z</time>
  <course>185.14</course>
  <speed>0.04</speed>
  <fix>3d</fix>
</trkpt>
<trkpt lat="33.810313" lon="-118.393867">
  <ele>-0.12</ele>
  <time>2026-09-01T01:17:28Z</time>
  <course>0.0</course>
  <speed>0.0</speed>
  <fix>3d</fix>
</trkpt>
<trkpt lat="33.810313" lon="-118.393867">
  <ele>-0.123</ele>
  <time>2026-09-01T01:17:28Z</time>
  <course>185.17</course>
  <speed>0.0316227766016838</speed>
  <fix>3d</fix>
</trkpt>
<trkpt lat="33.810313" lon="-118.393867">
  <ele>-0.12</ele>
  <time>2026-09-01T01:17:28Z</time>
  <course>0.0</course>
  <speed>0.0</speed>
  <fix>3d</fix>
</trkpt>
<trkpt lat="33.810313" lon="-118.393867">
  <ele>-0.124</ele>
  <time>2026-09-01T01:17:28Z</time>
  <course>185.2</course>
  <speed>0.0316227766016838</speed>
  <fix>3d</fix>
</trkpt>
<trkpt lat="33.810313" lon="-118.393867">
  <ele>-0.12</ele>
  <time>2026-09-01T01:17:28Z</time>
  <course>0.0</course>
  <speed>0.0</speed>
  <fix>3d</fix>
</trkpt>
<trkpt lat="33.810313" lon="-118.393867">
  <ele>-0.126</ele>
  <time>2026-09-01T01:17:28Z</time>
  <course>185.23</course>
  <speed>0.0316227766016838</speed>
  <fix>3d</fix>
</trkpt>
<trkpt lat="33.810313" lon="-118.393867">
  <ele>-0.12</ele>
  <time>2026-09-01T01:17:28Z</time>
  <course>0.0</course>
  <speed>0.0</speed>
  <fix>3d</fix>
</trkpt>
<trkpt lat="33.810313" lon="-118.393867">
  <ele>-0.127</ele>
  <time>2026-09-01T01:17:28Z</time>
  <course>185.26</course>
  <speed>0.0316227766016838</speed>
  <fix>3d</fix>
</trkpt>
<trkpt lat="33.810313" lon="-118.393867">
  <ele>-0.12</ele>
  <time>2026-09-01T01:17:28Z</time>
  <course>0.0</course>
  <speed>0.0</speed>
  <fix>3d</fix>
</trkpt>
<trkpt lat="33.810313" lon="-118.393867">
  <ele>-0.128</ele>
  <time>2026-09-01T01:17:28Z</time>
  <course>185.28</course>
  <speed>0.0316227766016838</speed>
  <fix>3d</fix>
</trkpt>
<trkpt lat="33.810313" lon="-118.393867">
  <ele>-0.12</ele>
  <time>2026-09-01T01:17:28Z</time>
  <course>0.0</course>
  <speed>0.0</speed>
  <fix>3d</fix>
</trkpt>
<trkpt lat="33.810313" lon="-118.393867">
  <ele>-0.129</ele>
  <time>2026-09-01T01:17:28Z</time>
  <course>185.31</course>
  <speed>0.0316227766016838</speed>
  <fix>3d</fix>
</trkpt>
<trkpt lat="33.810313" lon="-118.393867">
  <ele>-0.12</ele>
  <time>2026-09-01T01:17:28Z</time>
  <course>0.0</course>
  <speed>0.0</speed>
  <fix>3d</fix>
</trkpt>
<trkpt lat="33.810313" lon="-118.393867">
  <ele>-0.129</ele>
  <time>2026-09-01T01:17:28Z</time>
  <course>185.33</course>
  <speed>0.0316227766016838</speed>
  <fix>3d</fix>
</trkpt>
<trkpt lat="33.810313" lon="-118.393867">
  <ele>-0.12</ele>
  <time>2026-09-01T01:17:28Z</time>
  <course>0.0</course>
  <speed>0.0</speed>
  <fix>3d</fix>
</trkpt>
<trkpt lat="33.810313" lon="-118.393867">
  <ele>-0.128</ele>
  <time>2026-09-01T01:17:28Z</time>
  <course>185.36</course>
  <speed>0.0316227766016838</speed>
  <fix>3d</fix>
</trkpt>
<trkpt lat="33.810313" lon="-118.393867">
  <ele>-0.12</ele>
  <time>2026-09-01T01:17:28Z</time>
  <course>0.0</course>
  <speed>0.0</speed>
  <fix>3d</fix>
</trkpt>
<trkpt lat="33.810313" lon="-118.393867">
  <ele>-0.128</ele>
  <time>2026-09-01T01:17:28Z</time>
  <course>185.38</course>
  <speed>0.0316227766016838</speed>
  <fix>3d</fix>
</trkpt>
<trkpt lat="33.810313" lon="-118.393867">
  <ele>-0.12</ele>
  <time>2026-09-01T01:17:28Z</time>
  <course>0.0</course>
  <speed>0.0</speed>
  <fix>3d</fix>
</trkpt>
<trkpt lat="33.810313" lon="-118.393867">
  <ele>-0.127</ele>
  <time>2026-09-01T01:17:28Z</time>
  <course>185.4</course>
  <speed>0.0316227766016838</speed>
  <fix>3d</fix>
</trkpt>
<trkpt lat="33.810313" lon="-118.393867">
  <ele>-0.12</ele>
  <time>2026-09-01T01:17:28Z</time>
  <course>0.0</course>
  <speed>0.0</speed>
  <fix>3d</fix>
</trkpt>
<trkpt lat="33.810313" lon="-118.393867">
  <ele>-0.127</ele>
  <time>2026-09-01T01:17:28Z</time>
  <course>185.42</course>
  <speed>0.0316227766016838</speed>
  <fix>3d</fix>
</trkpt>
<trkpt lat="33.810313" lon="-118.393867">
  <ele>-0.12</ele>
  <time>2026-09-01T01:17:28Z</time>
  <course>0.0</course>
  <speed>0.0</speed>
  <fix>3d</fix>
</trkpt>
<trkpt lat="33.810313" lon="-118.393867">
  <ele>-0.127</ele>
  <time>2026-09-01T01:17:28Z</time>
  <course>185.44</course>
  <speed>0.022360679774997897</speed>
  <fix>3d</fix>
</trkpt>
<trkpt lat="33.810313" lon="-118.393867">
  <ele>-0.12</ele>
  <time>2026-09-01T01:17:28Z</time>
  <course>0.0</course>
  <speed>0.0</speed>
  <fix>3d</fix>
</trkpt>
<trkpt lat="33.810313" lon="-118.393867">
  <ele>-0.129</ele>
  <time>2026-09-01T01:17:28Z</time>
  <course>185.45</course>
  <speed>0.022360679774997897</speed>
  <fix>3d</fix>
</trkpt>
<trkpt lat="33.810313" lon="-118.393867">
  <ele>-0.12</ele>
  <time>2026-09-01T01:17:28Z</time>
  <course>0.0</course>
  <speed>0.0</speed>
  <fix>3d</fix>
</trkpt>
<trkpt lat="33.810313" lon="-118.393867">
  <ele>-0.131</ele>
  <time>2026-09-01T01:17:28Z</time>
  <course>185.47</course>
  <speed>0.022360679774997897</speed>
  <fix>3d</fix>
</trkpt>
<trkpt lat="33.810313" lon="-118.393867">
  <ele>-0.12</ele>
  <time>2026-09-01T01:17:28Z</time>
  <course>0.0</course>
  <speed>0.0</speed>
  <fix>3d</fix>
</trkpt>
<trkpt lat="33.810313" lon="-118.393867">
  <ele>-0.133</ele>
  <time>2026-09-01T01:17:28Z</time>
  <course>185.49</course>
  <speed>0.022360679774997897</speed>
  <fix>3d</fix>
</trkpt>
<trkpt lat="33.810313" lon="-118.393867">
  <ele>-0.12</ele>
  <time>2026-09-01T01:17:28Z</time>
  <course>0.0</course>
  <speed>0.0</speed>
  <fix>3d</fix>
</trkpt>
<trkpt lat="33.810313" lon="-118.393867">
  <ele>-0.135</ele>
  <time>2026-09-01T01:17:28Z</time>
  <course>185.5</course>
  <speed>0.022360679774997897</speed>
  <fix>3d</fix>
</trkpt>
<trkpt lat="33.810313" lon="-118.393867">
  <ele>-0.12</ele>
  <time>2026-09-01T01:17:28Z</time>
  <course>0.0</course>
  <speed>0.0</speed>
  <fix>3d</fix>
</trkpt>
<trkpt lat="33.810313" lon="-118.393867">
  <ele>-0.136</ele>
  <time>2026-09-01T01:17:28Z</time>
  <course>185.52</course>
  <speed>0.022360679774997897</speed>
  <fix>3d</fix>
</trkpt>
<trkpt lat="33.810313" lon="-118.393867">
  <ele>-0.12</ele>
  <time>2026-09-01T01:17:28Z</time>
  <course>0.0</course>
  <speed>0.0</speed>
  <fix>3d</fix>
</trkpt>
<trkpt lat="33.810313" lon="-118.393867">
  <ele>-0.136</ele>
  <time>2026-09-01T01:17:28Z</time>
  <course>185.53</course>
  <speed>0.022360679774997897</speed>
  <fix>3d</fix>
</trkpt>
<trkpt lat="33.810313" lon="-118.393867">
  <ele>-0.12</ele>
  <time>2026-09-01T01:17:28Z</time>
  <course>0.0</course>
  <speed>0.0</speed>
  <fix>3d</fix>
</trkpt>
<trkpt lat="33.810313" lon="-118.393867">
  <ele>-0.136</ele>
  <time>2026-09-01T01:17:28Z</time>
  <course>185.54</course>
  <speed>0.022360679774997897</speed>
  <fix>3d</fix>
</trkpt>
<trkpt lat="33.810313" lon="-118.393867">
  <ele>-0.12</ele>
  <time>2026-09-01T01:17:28Z</time>
  <course>0.0</course>
  <speed>0.0</speed>
  <fix>3d</fix>
</trkpt>
<trkpt lat="33.810313" lon="-118.393867">
  <ele>-0.135</ele>
  <time>2026-09-01T01:17:28Z</time>
  <course>185.56</course>
  <speed>0.022360679774997897</speed>
  <fix>3d</fix>
</trkpt>
<trkpt lat="33.810313" lon="-118.393867">
  <ele>-0.12</ele>
  <time>2026-09-01T01:17:28Z</time>
  <course>0.0</course>
  <speed>0.0</speed>
  <fix>3d</fix>
</trkpt>
<trkpt lat="33.810313" lon="-118.393867">
  <ele>-0.134</ele>
  <time>2026-09-01T01:17:28Z</time>
  <course>185.57</course>
  <speed>0.022360679774997897</speed>
  <fix>3d</fix>
</trkpt>
<trkpt lat="33.810313" lon="-118.393867">
  <ele>-0.12</ele>
  <time>2026-09-01T01:17:28Z</time>
  <course>0.0</course>
  <speed>0.0</speed>
  <fix>3d</fix>
</trkpt>
<trkpt lat="33.810313" lon="-118.393867">
  <ele>-0.131</ele>
  <time>2026-09-01T01:17:28Z</time>
  <course>185.58</course>
  <speed>0.022360679774997897</speed>
  <fix>3d</fix>
</trkpt>
<trkpt lat="33.810313" lon="-118.393867">
  <ele>-0.12</ele>
  <time>2026-09-01T01:17:28Z</time>
  <course>0.0</course>
  <speed>0.0</speed>
  <fix>3d</fix>
</trkpt>
<trkpt lat="33.810313" lon="-118.393867">
  <ele>-0.129</ele>
  <time>2026-09-01T01:17:28Z</time>
  <course>185.59</course>
  <speed>0.022360679774997897</speed>
  <fix>3d</fix>
</trkpt>
<trkpt lat="33.810313" lon="-118.393867">
  <ele>-0.12</ele>
  <time>2026-09-01T01:17:28Z</time>
  <course>0.0</course>
  <speed>0.0</speed>
  <fix>3d</fix>
</trkpt>
<trkpt lat="33.810313" lon="-118.393867">
  <ele>-0.126</ele>
  <time>2026-09-01T01:17:28Z</time>
  <course>185.6</course>
  <speed>0.022360679774997897</speed>
  <fix>3d</fix>
</trkpt>
<trkpt lat="33.810313" lon="-118.393867">
  <ele>-0.12</ele>
  <time>2026-09-01T01:17:28Z</time>
  <course>0.0</course>
  <speed>0.0</speed>
  <fix>3d</fix>
</trkpt>
<trkpt lat="33.810313" lon="-118.393867">
  <ele>-0.126</ele>
  <time>2026-09-01T01:17:28Z</time>
  <course>185.61</course>
  <speed>0.01414213562373095</speed>
  <fix>3d</fix>
</trkpt>
<trkpt lat="33.810313" lon="-118.393867">
  <ele>-0.12</ele>
  <time>2026-09-01T01:17:28Z</time>
  <course>0.0</course>
  <speed>0.0</speed>
  <fix>3d</fix>
</trkpt>
<trkpt lat="33.810313" lon="-118.393867">
  <ele>-0.126</ele>
  <time>2026-09-01T01:17:28Z</time>
  <course>185.62</course>
  <speed>0.01414213562373095</speed>
  <fix>3d</fix>
</trkpt>
<trkpt lat="33.810313" lon="-118.393867">
  <ele>-0.12</ele>
  <time>2026-09-01T01:17:28Z</time>
  <course>0.0</course>
  <speed>0.0</speed>
  <fix>3d</fix>
</trkpt>
<trkpt lat="33.810313" lon="-118.393867">
  <ele>-0.127</ele>
  <time>2026-09-01T01:17:28Z</time>
  <course>185.62</course>
  <speed>0.01414213562373095</speed>
  <fix>3d</fix>
</trkpt>
<trkpt lat="33.810313" lon="-118.393867">
  <ele>-0.12</ele>
  <time>2026-09-01T01:17:28Z</time>
  <course>0.0</course>
  <speed>0.0</speed>
  <fix>3d</fix>
</trkpt>
<trkpt lat="33.810313" lon="-118.393867">
  <ele>-0.127</ele>
  <time>2026-09-01T01:17:28Z</time>
  <course>185.63</course>
  <speed>0.01414213562373095</speed>
  <fix>3d</fix>
</trkpt>
<trkpt lat="33.810313" lon="-118.393867">
  <ele>-0.12</ele>
  <time>2026-09-01T01:17:28Z</time>
  <course>0.0</course>
  <speed>0.0</speed>
  <fix>3d</fix>
</trkpt>
<trkpt lat="33.810313" lon="-118.393867">
  <ele>-0.127</ele>
  <time>2026-09-01T01:17:28Z</time>
  <course>185.64</course>
  <speed>0.01414213562373095</speed>
  <fix>3d</fix>
</trkpt>
<trkpt lat="33.810313" lon="-118.393867">
  <ele>-0.12</ele>
  <time>2026-09-01T01:17:28Z</time>
  <course>0.0</course>
  <speed>0.0</speed>
  <fix>3d</fix>
</trkpt>
<trkpt lat="33.810313" lon="-118.393867">
  <ele>-0.128</ele>
  <time>2026-09-01T01:17:28Z</time>
  <course>185.64</course>
  <speed>0.01414213562373095</speed>
  <fix>3d</fix>
</trkpt>
<trkpt lat="33.810313" lon="-118.393867">
  <ele>-0.12</ele>
  <time>2026-09-01T01:17:28Z</time>
  <course>0.0</course>
  <speed>0.0</speed>
  <fix>3d</fix>
</trkpt>
<trkpt lat="33.810313" lon="-118.393867">
  <ele>-0.129</ele>
  <time>2026-09-01T01:17:28Z</time>
  <course>185.65</course>
  <speed>0.01414213562373095</speed>
  <fix>3d</fix>
</trkpt>
<trkpt lat="33.810313" lon="-118.393867">
  <ele>-0.12</ele>
  <time>2026-09-01T01:17:28Z</time>
  <course>0.0</course>
  <speed>0.0</speed>
  <fix>3d</fix>
</trkpt>
<trkpt lat="33.810313" lon="-118.393867">
  <ele>-0.128</ele>
  <time>2026-09-01T01:17:28Z</time>
  <course>185.65</course>
  <speed>0.01414213562373095</speed>
  <fix>3d</fix>
</trkpt>
<trkpt lat="33.810313" lon="-118.393867">
  <ele>-0.12</ele>
  <time>2026-09-01T01:17:28Z</time>
  <course>0.0</course>
  <speed>0.0</speed>
  <fix>3d</fix>
</trkpt>
<trkpt lat="33.810313" lon="-118.393867">
  <ele>-0.126</ele>
  <time>2026-09-01T01:17:28Z</time>
  <course>185.66</course>
  <speed>0.01414213562373095</speed>
  <fix>3d</fix>
</trkpt>
<trkpt lat="33.810313" lon="-118.393867">
  <ele>-0.12</ele>
  <time>2026-09-01T01:17:28Z</time>
  <course>0.0</course>
  <speed>0.0</speed>
  <fix>3d</fix>
</trkpt>
<trkpt lat="33.810313" lon="-118.393867">
  <ele>-0.124</ele>
  <time>2026-09-01T01:17:28Z</time>
  <course>185.66</course>
  <speed>0.01414213562373095</speed>
  <fix>3d</fix>
</trkpt>
<trkpt lat="33.810313" lon="-118.393867">
  <ele>-0.12</ele>
  <time>2026-09-01T01:17:28Z</time>
  <course>0.0</course>
  <speed>0.0</speed>
  <fix>3d</fix>
</trkpt>
<trkpt lat="33.810313" lon="-118.393867">
  <ele>-0.121</ele>
  <time>2026-09-01T01:17:28Z</time>
  <course>185.66</course>
  <speed>0.01414213562373095</speed>
  <fix>3d</fix>
</trkpt>
<trkpt lat="33.810313" lon="-118.393867">
  <ele>-0.12</ele>
  <time>2026-09-01T01:17:28Z</time>
  <course>0.0</course>
  <speed>0.0</speed>
  <fix>3d</fix>
</trkpt>
<trkpt lat="33.810313" lon="-118.393867">
  <ele>-0.12</ele>
  <time>2026-09-01T01:17:28Z</time>
  <course>185.66</course>
  <speed>0.01414213562373095</speed>
  <fix>3d</fix>
</trkpt>
<trkpt lat="33.810313" lon="-118.393867">
  <ele>-0.12</ele>
  <time>2026-09-01T01:17:28Z</time>
  <course>0.0</course>
  <speed>0.0</speed>
  <fix>3d</fix>
</trkpt>
<trkpt lat="33.810313" lon="-118.393867">
  <ele>-0.12</ele>
  <time>2026-09-01T01:17:28Z</time>
  <course>185.67</course>
  <speed>0.01414213562373095</speed>
  <fix>3d</fix>
</trkpt>
<trkpt lat="33.810313" lon="-118.393867">
  <ele>-0.12</ele>
  <time>2026-09-01T01:17:28Z</time>
  <course>0.0</course>
  <speed>0.0</speed>
  <fix>3d</fix>
</trkpt>
<trkpt lat="33.810313" lon="-118.393867">
  <ele>-0.121</ele>
  <time>2026-09-01T01:17:28Z</time>
  <course>185.67</course>
  <speed>0.01414213562373095</speed>
  <fix>3d</fix>
</trkpt>
<trkpt lat="33.810313" lon="-118.393867">
  <ele>-0.12</ele>
  <time>2026-09-01T01:17:28Z</time>
  <course>0.0</course>
  <speed>0.0</speed>
  <fix>3d</fix>
</trkpt>
<trkpt lat="33.810313" lon="-118.393867">
  <ele>-0.125</ele>
  <time>2026-09-01T01:17:28Z</time>
  <course>185.67</course>
  <speed>0.01414213562373095</speed>
  <fix>3d</fix>
</trkpt>
<trkpt lat="33.810313" lon="-118.393867">
  <ele>-0.12</ele>
  <time>2026-09-01T01:17:28Z</time>
  <course>0.0</course>
  <speed>0.0</speed>
  <fix>3d</fix>
</trkpt>
<trkpt lat="33.810313" lon="-118.393867">
  <ele>-0.128</ele>
  <time>2026-09-01T01:17:28Z</time>
  <course>185.67</course>
  <speed>0.01414213562373095</speed>
  <fix>3d</fix>
</trkpt>
<trkpt lat="33.810313" lon="-118.393867">
  <ele>-0.12</ele>
  <time>2026-09-01T01:17:28Z</time>
  <course>0.0</course>
  <speed>0.0</speed>
  <fix>3d</fix>
</trkpt>
<trkpt lat="33.810313" lon="-118.393867">
  <ele>-0.131</ele>
  <time>2026-09-01T01:17:28Z</time>
  <course>185.67</course>
  <speed>0.01414213562373095</speed>
  <fix>3d</fix>
</trkpt>
<trkpt lat="33.810313" lon="-118.393867">
  <ele>-0.12</ele>
  <time>2026-09-01T01:17:28Z</time>
  <course>0.0</course>
  <speed>0.0</speed>
  <fix>3d</fix>
</trkpt>
<trkpt lat="33.810313" lon="-118.393867">
  <ele>-0.132</ele>
  <time>2026-09-01T01:17:28Z</time>
  <course>185.67</course>
  <speed>0.01414213562373095</speed>
  <fix>3d</fix>
</trkpt>
<trkpt lat="33.810313" lon="-118.393867">
  <ele>-0.12</ele>
  <time>2026-09-01T01:17:28Z</time>
  <course>0.0</course>
  <speed>0.0</speed>
  <fix>3d</fix>
</trkpt>
<trkpt lat="33.810313" lon="-118.393867">
  <ele>-0.132</ele>
  <time>2026-09-01T01:17:28Z</time>
  <course>185.67</course>
  <speed>0.01414213562373095</speed>
  <fix>3d</fix>
</trkpt>
<trkpt lat="33.810313" lon="-118.393867">
  <ele>-0.12</ele>
  <time>2026-09-01T01:17:28Z</time>
  <course>0.0</course>
  <speed>0.0</speed>
  <fix>3d</fix>
</trkpt>
<trkpt lat="33.810313" lon="-118.393867">
  <ele>-0.132</ele>
  <time>2026-09-01T01:17:28Z</time>
  <course>185.67</course>
  <speed>0.01414213562373095</speed>
  <fix>3d</fix>
</trkpt>
<trkpt lat="33.810313" lon="-118.393867">
  <ele>-0.12</ele>
  <time>2026-09-01T01:17:28Z</time>
  <course>0.0</course>
  <speed>0.0</speed>
  <fix>3d</fix>
</trkpt>
<trkpt lat="33.810313" lon="-118.393867">
  <ele>-0.13</ele>
  <time>2026-09-01T01:17:28Z</time>
  <course>185.67</course>
  <speed>0.01414213562373095</speed>
  <fix>3d</fix>
</trkpt>
<trkpt lat="33.810313" lon="-118.393867">
  <ele>-0.12</ele>
  <time>2026-09-01T01:17:28Z</time>
  <course>0.0</course>
  <speed>0.0</speed>
  <fix>3d</fix>
</trkpt>
<trkpt lat="33.810313" lon="-118.393867">
  <ele>-0.127</ele>
  <time>2026-09-01T01:17:28Z</time>
  <course>185.66</course>
  <speed>0.01414213562373095</speed>
  <fix>3d</fix>
</trkpt>
<trkpt lat="33.810313" lon="-118.393867">
  <ele>-0.12</ele>
  <time>2026-09-01T01:17:28Z</time>
  <course>0.0</course>
  <speed>0.0</speed>
  <fix>3d</fix>
</trkpt>
<trkpt lat="33.810313" lon="-118.393867">
  <ele>-0.124</ele>
  <time>2026-09-01T01:17:28Z</time>
  <course>185.66</course>
  <speed>0.01414213562373095</speed>
  <fix>3d</fix>
</trkpt>
<trkpt lat="33.810313" lon="-118.393867">
  <ele>-0.12</ele>
  <time>2026-09-01T01:17:28Z</time>
  <course>0.0</course>
  <speed>0.0</speed>
  <fix>3d</fix>
</trkpt>
<trkpt lat="33.810313" lon="-118.393867">
  <ele>-0.121</ele>
  <time>2026-09-01T01:17:28Z</time>
  <course>185.66</course>
  <speed>0.01414213562373095</speed>
  <fix>3d</fix>
</trkpt>
<trkpt lat="33.810313" lon="-118.393867">
  <ele>-0.12</ele>
  <time>2026-09-01T01:17:28Z</time>
  <course>0.0</course>
  <speed>0.0</speed>
  <fix>3d</fix>
</trkpt>
<trkpt lat="33.810313" lon="-118.393867">
  <ele>-0.121</ele>
  <time>2026-09-01T01:17:28Z</time>
  <course>185.66</course>
  <speed>0.01414213562373095</speed>
  <fix>3d</fix>
</trkpt>
<trkpt lat="33.810313" lon="-118.393867">
  <ele>-0.12</ele>
  <time>2026-09-01T01:17:28Z</time>
  <course>0.0</course>
  <speed>0.0</speed>
  <fix>3d</fix>
</trkpt>
<trkpt lat="33.810313" lon="-118.393867">
  <ele>-0.123</ele>
  <time>2026-09-01T01:17:28Z</time>
  <course>185.65</course>
  <speed>0.01414213562373095</speed>
  <fix>3d</fix>
</trkpt>
<trkpt lat="33.810313" lon="-118.393867">
  <ele>-0.12</ele>
  <time>2026-09-01T01:17:28Z</time>
  <course>0.0</course>
  <speed>0.0</speed>
  <fix>3d</fix>
</trkpt>
<trkpt lat="33.810313" lon="-118.393867">
  <ele>-0.124</ele>
  <time>2026-09-01T01:17:28Z</time>
  <course>185.65</course>
  <speed>0.01414213562373095</speed>
  <fix>3d</fix>
</trkpt>
<trkpt lat="33.810313" lon="-118.393867">
  <ele>-0.12</ele>
  <time>2026-09-01T01:17:28Z</time>
  <course>0.0</course>
  <speed>0.0</speed>
  <fix>3d</fix>
</trkpt>
<trkpt lat="33.810313" lon="-118.393867">
  <ele>-0.126</ele>
  <time>2026-09-01T01:17:28Z</time>
  <course>185.65</course>
  <speed>0.01414213562373095</speed>
  <fix>3d</fix>
</trkpt>
<trkpt lat="33.810313" lon="-118.393867">
  <ele>-0.12</ele>
  <time>2026-09-01T01:17:28Z</time>
  <course>0.0</course>
  <speed>0.0</speed>
  <fix>3d</fix>
</trkpt>
<trkpt lat="33.810313" lon="-118.393867">
  <ele>-0.127</ele>
  <time>2026-09-01T01:17:28Z</time>
  <course>185.64</course>
  <speed>0.01414213562373095</speed>
  <fix>3d</fix>
</trkpt>
<trkpt lat="33.810313" lon="-118.393867">
  <ele>-0.12</ele>
  <time>2026-09-01T01:17:28Z</time>
  <course>0.0</course>
  <speed>0.0</speed>
  <fix>3d</fix>
</trkpt>
<trkpt lat="33.810313" lon="-118.393867">
  <ele>-0.127</ele>
  <time>2026-09-01T01:17:28Z</time>
  <course>185.64</course>
  <speed>0.01414213562373095</speed>
  <fix>3d</fix>
</trkpt>
<trkpt lat="33.810313" lon="-118.393867">
  <ele>-0.12</ele>
  <time>2026-09-01T01:17:28Z</time>
  <course>0.0</course>
  <speed>0.0</speed>
  <fix>3d</fix>
</trkpt>
<trkpt lat="33.810313" lon="-118.393867">
  <ele>-0.127</ele>
  <time>2026-09-01T01:17:28Z</time>
  <course>185.63</course>
  <speed>0.01414213562373095</speed>
  <fix>3d</fix>
</trkpt>
<trkpt lat="33.810313" lon="-118.393867">
  <ele>-0.12</ele>
  <time>2026-09-01T01:17:28Z</time>
  <course>0.0</course>
  <speed>0.0</speed>
  <fix>3d</fix>
</trkpt>
<trkpt lat="33.810313" lon="-118.393867">
  <ele>-0.126</ele>
  <time>2026-09-01T01:17:28Z</time>
  <course>185.63</course>
  <speed>0.01414213562373095</speed>
  <fix>3d</fix>
</trkpt>
<trkpt lat="33.810313" lon="-118.393867">
  <ele>-0.12</ele>
  <time>2026-09-01T01:17:28Z</time>
  <course>0.0</course>
  <speed>0.0</speed>
  <fix>3d</fix>
</trkpt>
<trkpt lat="33.810313" lon="-118.393867">
  <ele>-0.124</ele>
  <time>2026-09-01T01:17:28Z</time>
  <course>185.62</course>
  <speed>0.01414213562373095</speed>
  <fix>3d</fix>
</trkpt>
<trkpt lat="33.810313" lon="-118.393867">
  <ele>-0.12</ele>
  <time>2026-09-01T01:17:28Z</time>
  <course>0.0</course>
  <speed>0.0</speed>
  <fix>3d</fix>
</trkpt>
<trkpt lat="33.810313" lon="-118.393867">
  <ele>-0.122</ele>
  <time>2026-09-01T01:17:28Z</time>
  <course>185.62</course>
  <speed>0.01414213562373095</speed>
  <fix>3d</fix>
</trkpt>
<trkpt lat="33.810313" lon="-118.393867">
  <ele>-0.12</ele>
  <time>2026-09-01T01:17:28Z</time>
  <course>0.0</course>
  <speed>0.0</speed>
  <fix>3d</fix>
</trkpt>
<trkpt lat="33.810313" lon="-118.393867">
  <ele>-0.119</ele>
  <time>2026-09-01T01:17:28Z</time>
  <course>185.61</course>
  <speed>0.01414213562373095</speed>
  <fix>3d</fix>
</trkpt>
<trkpt lat="33.810313" lon="-118.393867">
  <ele>-0.12</ele>
  <time>2026-09-01T01:17:28Z</time>
  <course>0.0</course>
  <speed>0.0</speed>
  <fix>3d</fix>
</trkpt>
<trkpt lat="33.810313" lon="-118.393867">
  <ele>-0.118</ele>
  <time>2026-09-01T01:17:28Z</time>
  <course>185.61</course>
  <speed>0.01414213562373095</speed>
  <fix>3d</fix>
</trkpt>
<trkpt lat="33.810313" lon="-118.393867">
  <ele>-0.12</ele>
  <time>2026-09-01T01:17:28Z</time>
  <course>0.0</course>
  <speed>0.0</speed>
  <fix>3d</fix>
</trkpt>
<trkpt lat="33.810313" lon="-118.393867">
  <ele>-0.118</ele>
  <time>2026-09-01T01:17:28Z</time>
  <course>185.6</course>
  <speed>0.01414213562373095</speed>
  <fix>3d</fix>
</trkpt>
<trkpt lat="33.810313" lon="-118.393867">
  <ele>-0.12</ele>
  <time>2026-09-01T01:17:28Z</time>
  <course>0.0</course>
  <speed>0.0</speed>
  <fix>3d</fix>
</trkpt>
<trkpt lat="33.810313" lon="-118.393867">
  <ele>-0.119</ele>
  <time>2026-09-01T01:17:28Z</time>
  <course>185.59</course>
  <speed>0.01414213562373095</speed>
  <fix>3d</fix>
</trkpt>
<trkpt lat="33.810313" lon="-118.393867">
  <ele>-0.12</ele>
  <time>2026-09-01T01:17:28Z</time>
  <course>0.0</course>
  <speed>0.0</speed>
  <fix>3d</fix>
</trkpt>
<trkpt lat="33.810313" lon="-118.393867">
  <ele>-0.12</ele>
  <time>2026-09-01T01:17:28Z</time>
  <course>185.59</course>
  <speed>0.01414213562373095</speed>
  <fix>3d</fix>
</trkpt>
<trkpt lat="33.810313" lon="-118.393867">
  <ele>-0.12</ele>
  <time>2026-09-01T01:17:28Z</time>
  <course>0.0</course>
  <speed>0.0</speed>
  <fix>3d</fix>
</trkpt>
<trkpt lat="33.810313" lon="-118.393867">
  <ele>-0.12</ele>
  <time>2026-09-01T01:17:28Z</time>
  <course>185.58</course>
  <speed>0.01414213562373095</speed>
  <fix>3d</fix>
</trkpt>
<trkpt lat="33.810313" lon="-118.393867">
  <ele>-0.12</ele>
  <time>2026-09-01T01:17:28Z</time>
  <course>0.0</course>
  <speed>0.0</speed>
  <fix>3d</fix>
</trkpt>
<trkpt lat="33.810313" lon="-118.393867">
  <ele>-0.12</ele>
  <time>2026-09-01T01:17:28Z</time>
  <course>185.58</course>
  <speed>0.01414213562373095</speed>
  <fix>3d</fix>
</trkpt>
<trkpt lat="33.810313" lon="-118.393867">
  <ele>-0.12</ele>
  <time>2026-09-01T01:17:28Z</time>
  <course>0.0</course>
  <speed>0.0</speed>
  <fix>3d</fix>
</trkpt>
<trkpt lat="33.810313" lon="-118.393867">
  <ele>-0.119</ele>
  <time>2026-09-01T01:17:28Z</time>
  <course>185.57</course>
  <speed>0.01414213562373095</speed>
  <fix>3d</fix>
</trkpt>
<trkpt lat="33.810313" lon="-118.393867">
  <ele>-0.12</ele>
  <time>2026-09-01T01:17:28Z</time>
  <course>0.0</course>
  <speed>0.0</speed>
  <fix>3d</fix>
</trkpt>
<trkpt lat="33.810313" lon="-118.393867">
  <ele>-0.118</ele>
  <time>2026-09-01T01:17:28Z</time>
  <course>185.56</course>
  <speed>0.022360679774997897</speed>
  <fix>3d</fix>
</trkpt>
<trkpt lat="33.810313" lon="-118.393867">
  <ele>-0.12</ele>
  <time>2026-09-01T01:17:28Z</time>
  <course>0.0</course>
  <speed>0.0</speed>
  <fix>3d</fix>
</trkpt>
<trkpt lat="33.810313" lon="-118.393867">
  <ele>-0.116</ele>
  <time>2026-09-01T01:17:28Z</time>
  <course>185.56</course>
  <speed>0.022360679774997897</speed>
  <fix>3d</fix>
</trkpt>
<trkpt lat="33.810313" lon="-118.393867">
  <ele>-0.12</ele>
  <time>2026-09-01T01:17:28Z</time>
  <course>0.0</course>
  <speed>0.0</speed>
  <fix>3d</fix>
</trkpt>
<trkpt lat="33.810313" lon="-118.393867">
  <ele>-0.114</ele>
  <time>2026-09-01T01:17:28Z</time>
  <course>185.55</course>
  <speed>0.022360679774997897</speed>
  <fix>3d</fix>
</trkpt>
<trkpt lat="33.810313" lon="-118.393867">
  <ele>-0.12</ele>
  <time>2026-09-01T01:17:28Z</time>
  <course>0.0</course>
  <speed>0.0</speed>
  <fix>3d</fix>
</trkpt>
<trkpt lat="33.810313" lon="-118.393867">
  <ele>-0.112</ele>
  <time>2026-09-01T01:17:28Z</time>
  <course>185.54</course>
  <speed>0.022360679774997897</speed>
  <fix>3d</fix>
</trkpt>
<trkpt lat="33.810313" lon="-118.393867">
  <ele>-0.12</ele>
  <time>2026-09-01T01:17:28Z</time>
  <course>0.0</course>
  <speed>0.0</speed>
  <fix>3d</fix>
</trkpt>
<trkpt lat="33.810313" lon="-118.393867">
  <ele>-0.113</ele>
  <time>2026-09-01T01:17:28Z</time>
  <course>185.53</course>
  <speed>0.022360679774997897</speed>
  <fix>3d</fix>
</trkpt>
<trkpt lat="33.810313" lon="-118.393867">
  <ele>-0.12</ele>
  <time>2026-09-01T01:17:28Z</time>
  <course>0.0</course>
  <speed>0.0</speed>
  <fix>3d</fix>
</trkpt>
<trkpt lat="33.810313" lon="-118.393867">
  <ele>-0.114</ele>
  <time>2026-09-01T01:17:28Z</time>
  <course>185.53</course>
  <speed>0.022360679774997897</speed>
  <fix>3d</fix>
</trkpt>
<trkpt lat="33.810313" lon="-118.393867">
  <ele>-0.12</ele>
  <time>2026-09-01T01:17:28Z</time>
  <course>0.0</course>
  <speed>0.0</speed>
  <fix>3d</fix>
</trkpt>
<trkpt lat="33.810313" lon="-118.393867">
  <ele>-0.118</ele>
  <time>2026-09-01T01:17:28Z</time>
  <course>185.52</course>
  <speed>0.022360679774997897</speed>
  <fix>3d</fix>
</trkpt>
<trkpt lat="33.810313" lon="-118.393867">
  <ele>-0.12</ele>
  <time>2026-09-01T01:17:28Z</time>
  <course>0.0</course>
  <speed>0.0</speed>
  <fix>3d</fix>
</trkpt>
<trkpt lat="33.810313" lon="-118.393867">
  <ele>-0.123</ele>
  <time>2026-09-01T01:17:28Z</time>
  <course>185.51</course>
  <speed>0.022360679774997897</speed>
  <fix>3d</fix>
</trkpt>
<trkpt lat="33.810313" lon="-118.393867">
  <ele>-0.12</ele>
  <time>2026-09-01T01:17:28Z</time>
  <course>0.0</course>
  <speed>0.0</speed>
  <fix>3d</fix>
</trkpt>
<trkpt lat="33.810313" lon="-118.393867">
  <ele>-0.128</ele>
  <time>2026-09-01T01:17:28Z</time>
  <course>185.5</course>
  <speed>0.022360679774997897</speed>
  <fix>3d</fix>
</trkpt>
<trkpt lat="33.810313" lon="-118.393867">
  <ele>-0.12</ele>
  <time>2026-09-01T01:17:28Z</time>
  <course>0.0</course>
  <speed>0.0</speed>
  <fix>3d</fix>
</trkpt>
<trkpt lat="33.810313" lon="-118.393867">
  <ele>-0.132</ele>
  <time>2026-09-01T01:17:28Z</time>
  <course>185.5</course>
  <speed>0.022360679774997897</speed>
  <fix>3d</fix>
</trkpt>
<trkpt lat="33.810313" lon="-118.393867">
  <ele>-0.12</ele>
  <time>2026-09-01T01:17:28Z</time>
  <course>0.0</course>
  <speed>0.0</speed>
  <fix>3d</fix>
</trkpt>
<trkpt lat="33.810313" lon="-118.393867">
  <ele>-0.134</ele>
  <time>2026-09-01T01:17:28Z</time>
  <course>185.49</course>
  <speed>0.022360679774997897</speed>
  <fix>3d</fix>
</trkpt>
<trkpt lat="33.810313" lon="-118.393867">
  <ele>-0.12</ele>
  <time>2026-09-01T01:17:28Z</time>
  <course>0.0</course>
  <speed>0.0</speed>
  <fix>3d</fix>
</trkpt>
<trkpt lat="33.810313" lon="-118.393867">
  <ele>-0.135</ele>
  <time>2026-09-01T01:17:28Z</time>
  <course>185.48</course>
  <speed>0.022360679774997897</speed>
  <fix>3d</fix>
</trkpt>
<trkpt lat="33.810313" lon="-118.393867">
  <ele>-0.12</ele>
  <time>2026-09-01T01:17:28Z</time>
  <course>0.0</course>
  <speed>0.0</speed>
  <fix>3d</fix>
</trkpt>
<trkpt lat="33.810313" lon="-118.393867">
  <ele>-0.135</ele>
  <time>2026-09-01T01:17:28Z</time>
  <course>185.47</course>
  <speed>0.022360679774997897</speed>
  <fix>3d</fix>
</trkpt>
<trkpt lat="33.810313" lon="-118.393867">
  <ele>-0.12</ele>
  <time>2026-09-01T01:17:28Z</time>
  <course>0.0</course>
  <speed>0.0</speed>
  <fix>3d</fix>
</trkpt>
<trkpt lat="33.810313" lon="-118.393867">
  <ele>-0.133</ele>
  <time>2026-09-01T01:17:28Z</time>
  <course>185.47</course>
  <speed>0.022360679774997897</speed>
  <fix>3d</fix>
</trkpt>
<trkpt lat="33.810313" lon="-118.393867">
  <ele>-0.12</ele>
  <time>2026-09-01T01:17:28Z</time>
  <course>0.0</course>
  <speed>0.0</speed>
  <fix>3d</fix>
</trkpt>
<trkpt lat="33.810313" lon="-118.393867">
  <ele>-0.132</ele>
  <time>2026-09-01T01:17:28Z</time>
  <course>185.46</course>
  <speed>0.022360679774997897</speed>
  <fix>3d</fix>
</trkpt>
<trkpt lat="33.810313" lon="-118.393867">
  <ele>-0.12</ele>
  <time>2026-09-01T01:17:28Z</time>
  <course>0.0</course>
  <speed>0.0</speed>
  <fix>3d</fix>
</trkpt>
<trkpt lat="33.810313" lon="-118.393867">
  <ele>-0.132</ele>
  <time>2026-09-01T01:17:28Z</time>
  <course>185.45</course>
  <speed>0.022360679774997897</speed>
  <fix>3d</fix>
</trkpt>
<trkpt lat="33.810313" lon="-118.393867">
  <ele>-0.12</ele>
  <time>2026-09-01T01:17:28Z</time>
  <course>0.0</course>
  <speed>0.0</speed>
  <fix>3d</fix>
</trkpt>
<trkpt lat="33.810313" lon="-118.393867">
  <ele>-0.132</ele>
  <time>2026-09-01T01:17:28Z</time>
  <course>185.44</course>
  <speed>0.022360679774997897</speed>
  <fix>3d</fix>
</trkpt>
<trkpt lat="33.810313" lon="-118.393867">
  <ele>-0.12</ele>
  <time>2026-09-01T01:17:28Z</time>
  <course>0.0</course>
  <speed>0.0</speed>
  <fix>3d</fix>
</trkpt>
<trkpt lat="33.810313" lon="-118.393867">
  <ele>-0.133</ele>
  <time>2026-09-01T01:17:28Z</time>
  <course>185.43</course>
  <speed>0.022360679774997897</speed>
  <fix>3d</fix>
</trkpt>
<trkpt lat="33.810313" lon="-118.393867">
  <ele>-0.12</ele>
  <time>2026-09-01T01:17:28Z</time>
  <course>0.0</course>
  <speed>0.0</speed>
  <fix>3d</fix>
</trkpt>
<trkpt lat="33.810313" lon="-118.393867">
  <ele>-0.134</ele>
  <time>2026-09-01T01:17:28Z</time>
  <course>185.42</course>
  <speed>0.022360679774997897</speed>
  <fix>3d</fix>
</trkpt>
<trkpt lat="33.810313" lon="-118.393867">
  <ele>-0.12</ele>
  <time>2026-09-01T01:17:28Z</time>
  <course>0.0</course>
  <speed>0.0</speed>
  <fix>3d</fix>
</trkpt>
<trkpt lat="33.810313" lon="-118.393867">
  <ele>-0.133</ele>
  <time>2026-09-01T01:17:28Z</time>
  <course>185.42</course>
  <speed>0.022360679774997897</speed>
  <fix>3d</fix>
</trkpt>
<trkpt lat="33.810313" lon="-118.393867">
  <ele>-0.12</ele>
  <time>2026-09-01T01:17:28Z</time>
  <course>0.0</course>
  <speed>0.0</speed>
  <fix>3d</fix>
</trkpt>
<trkpt lat="33.810313" lon="-118.393867">
  <ele>-0.132</ele>
  <time>2026-09-01T01:17:28Z</time>
  <course>185.41</course>
  <speed>0.022360679774997897</speed>
  <fix>3d</fix>
</trkpt>
<trkpt lat="33.810313" lon="-118.393867">
  <ele>-0.12</ele>
  <time>2026-09-01T01:17:28Z</time>
  <course>0.0</course>
  <speed>0.0</speed>
  <fix>3d</fix>
</trkpt>
<trkpt lat="33.810313" lon="-118.393867">
  <ele>-0.13</ele>
  <time>2026-09-01T01:17:28Z</time>
  <course>185.4</course>
  <speed>0.022360679774997897</speed>
  <fix>3d</fix>
</trkpt>
<trkpt lat="33.810313" lon="-118.393867">
  <ele>-0.12</ele>
  <time>2026-09-01T01:17:28Z</time>
  <course>0.0</course>
  <speed>0.0</speed>
  <fix>3d</fix>
</trkpt>
<trkpt lat="33.810313" lon="-118.393867">
  <ele>-0.128</ele>
  <time>2026-09-01T01:17:28Z</time>
  <course>185.39</course>
  <speed>0.022360679774997897</speed>
  <fix>3d</fix>
</trkpt>
<trkpt lat="33.810313" lon="-118.393867">
  <ele>-0.12</ele>
  <time>2026-09-01T01:17:28Z</time>
  <course>0.0</course>
  <speed>0.0</speed>
  <fix>3d</fix>
</trkpt>
<trkpt lat="33.810313" lon="-118.393867">
  <ele>-0.125</ele>
  <time>2026-09-01T01:17:28Z</time>
  <course>185.38</course>
  <speed>0.022360679774997897</speed>
  <fix>3d</fix>
</trkpt>
<trkpt lat="33.810313" lon="-118.393867">
  <ele>-0.12</ele>
  <time>2026-09-01T01:17:28Z</time>
  <course>0.0</course>
  <speed>0.0</speed>
  <fix>3d</fix>
</trkpt>
<trkpt lat="33.810313" lon="-118.393867">
  <ele>-0.122</ele>
  <time>2026-09-01T01:17:28Z</time>
  <course>185.37</course>
  <speed>0.022360679774997897</speed>
  <fix>3d</fix>
</trkpt>
<trkpt lat="33.810313" lon="-118.393867">
  <ele>-0.12</ele>
  <time>2026-09-01T01:17:28Z</time>
  <course>0.0</course>
  <speed>0.0</speed>
  <fix>3d</fix>
</trkpt>
<trkpt lat="33.810313" lon="-118.393867">
  <ele>-0.119</ele>
  <time>2026-09-01T01:17:28Z</time>
  <course>185.36</course>
  <speed>0.022360679774997897</speed>
  <fix>3d</fix>
</trkpt>
<trkpt lat="33.810313" lon="-118.393867">
  <ele>-0.12</ele>
  <time>2026-09-01T01:17:28Z</time>
  <course>0.0</course>
  <speed>0.0</speed>
  <fix>3d</fix>
</trkpt>
<trkpt lat="33.810313" lon="-118.393867">
  <ele>-0.117</ele>
  <time>2026-09-01T01:17:28Z</time>
  <course>185.35</course>
  <speed>0.022360679774997897</speed>
  <fix>3d</fix>
</trkpt>
<trkpt lat="33.810313" lon="-118.393867">
  <ele>-0.12</ele>
  <time>2026-09-01T01:17:28Z</time>
  <course>0.0</course>
  <speed>0.0</speed>
  <fix>3d</fix>
</trkpt>
<trkpt lat="33.810313" lon="-118.393867">
  <ele>-0.117</ele>
  <time>2026-09-01T01:17:28Z</time>
  <course>185.35</course>
  <speed>0.022360679774997897</speed>
  <fix>3d</fix>
</trkpt>
<trkpt lat="33.810313" lon="-118.393867">
  <ele>-0.12</ele>
  <time>2026-09-01T01:17:28Z</time>
  <course>0.0</course>
  <speed>0.0</speed>
  <fix>3d</fix>
</trkpt>
<trkpt lat="33.810313" lon="-118.393867">
  <ele>-0.118</ele>
  <time>2026-09-01T01:17:28Z</time>
  <course>185.34</course>
  <speed>0.022360679774997897</speed>
  <fix>3d</fix>
</trkpt>
<trkpt lat="33.810313" lon="-118.393867">
  <ele>-0.12</ele>
  <time>2026-09-01T01:17:28Z</time>
  <course>0.0</course>
  <speed>0.0</speed>
  <fix>3d</fix>
</trkpt>
<trkpt lat="33.810313" lon="-118.393867">
  <ele>-0.119</ele>
  <time>2026-09-01T01:17:28Z</time>
  <course>185.33</course>
  <speed>0.022360679774997897</speed>
  <fix>3d</fix>
</trkpt>
<trkpt lat="33.810313" lon="-118.393867">
  <ele>-0.12</ele>
  <time>2026-09-01T01:17:28Z</time>
  <course>0.0</course>
  <speed>0.0</speed>
  <fix>3d</fix>
</trkpt>
<trkpt lat="33.810313" lon="-118.393867">
  <ele>-0.12</ele>
  <time>2026-09-01T01:17:28Z</time>
  <course>185.32</course>
  <speed>0.022360679774997897</speed>
  <fix>3d</fix>
</trkpt>
<trkpt lat="33.810313" lon="-118.393867">
  <ele>-0.12</ele>
  <time>2026-09-01T01:17:28Z</time>
  <course>0.0</course>
  <speed>0.0</speed>
  <fix>3d</fix>
</trkpt>
<trkpt lat="33.810313" lon="-118.393867">
  <ele>-0.121</ele>
  <time>2026-09-01T01:17:28Z</time>
  <course>185.31</course>
  <speed>0.022360679774997897</speed>
  <fix>3d</fix>
</trkpt>
<trkpt lat="33.810313" lon="-118.393867">
  <ele>-0.12</ele>
  <time>2026-09-01T01:17:28Z</time>
  <course>0.0</course>
  <speed>0.0</speed>
  <fix>3d</fix>
</trkpt>
<trkpt lat="33.810313" lon="-118.393867">
  <ele>-0.121</ele>
  <time>2026-09-01T01:17:28Z</time>
  <course>185.3</course>
  <speed>0.022360679774997897</speed>
  <fix>3d</fix>
</trkpt>
<trkpt lat="33.810313" lon="-118.393867">
  <ele>-0.12</ele>
  <time>2026-09-01T01:17:28Z</time>
  <course>0.0</course>
  <speed>0.0</speed>
  <fix>3d</fix>
</trkpt>
<trkpt lat="33.810313" lon="-118.393867">
  <ele>-0.121</ele>
  <time>2026-09-01T01:17:28Z</time>
  <course>185.29</course>
  <speed>0.022360679774997897</speed>
  <fix>3d</fix>
</trkpt>
<trkpt lat="33.810313" lon="-118.393867">
  <ele>-0.12</ele>
  <time>2026-09-01T01:17:28Z</time>
  <course>0.0</course>
  <speed>0.0</speed>
  <fix>3d</fix>
</trkpt>
<trkpt lat="33.810313" lon="-118.393867">
  <ele>-0.121</ele>
  <time>2026-09-01T01:17:28Z</time>
  <course>185.28</course>
  <speed>0.022360679774997897</speed>
  <fix>3d</fix>
</trkpt>
<trkpt lat="33.810313" lon="-118.393867">
  <ele>-0.12</ele>
  <time>2026-09-01T01:17:28Z</time>
  <course>0.0</course>
  <speed>0.0</speed>
  <fix>3d</fix>
</trkpt>
<trkpt lat="33.810313" lon="-118.393867">
  <ele>-0.121</ele>
  <time>2026-09-01T01:17:28Z</time>
  <course>185.28</course>
  <speed>0.022360679774997897</speed>
  <fix>3d</fix>
</trkpt>
<trkpt lat="33.810313" lon="-118.393867">
  <ele>-0.12</ele>
  <time>2026-09-01T01:17:28Z</time>
  <course>0.0</course>
  <speed>0.0</speed>
  <fix>3d</fix>
</trkpt>
<trkpt lat="33.810313" lon="-118.393867">
  <ele>-0.121</ele>
  <time>2026-09-01T01:17:28Z</time>
  <course>185.27</course>
  <speed>0.022360679774997897</speed>
  <fix>3d</fix>
</trkpt>
<trkpt lat="33.810313" lon="-118.393867">
  <ele>-0.12</ele>
  <time>2026-09-01T01:17:28Z</time>
  <course>0.0</course>
  <speed>0.0</speed>
  <fix>3d</fix>
</trkpt>
<trkpt lat="33.810313" lon="-118.393867">
  <ele>-0.122</ele>
  <time>2026-09-01T01:17:28Z</time>
  <course>185.26</course>
  <speed>0.022360679774997897</speed>
  <fix>3d</fix>
</trkpt>
<trkpt lat="33.810313" lon="-118.393867">
  <ele>-0.12</ele>
  <time>2026-09-01T01:17:28Z</time>
  <course>0.0</course>
  <speed>0.0</speed>
  <fix>3d</fix>
</trkpt>
<trkpt lat="33.810313" lon="-118.393867">
  <ele>-0.124</ele>
  <time>2026-09-01T01:17:28Z</time>
  <course>185.25</course>
  <speed>0.022360679774997897</speed>
  <fix>3d</fix>
</trkpt>
<trkpt lat="33.810313" lon="-118.393867">
  <ele>-0.12</ele>
  <time>2026-09-01T01:17:28Z</time>
  <course>0.0</course>
  <speed>0.0</speed>
  <fix>3d</fix>
</trkpt>
<trkpt lat="33.810313" lon="-118.393867">
  <ele>-0.127</ele>
  <time>2026-09-01T01:17:28Z</time>
  <course>185.24</course>
  <speed>0.022360679774997897</speed>
  <fix>3d</fix>
</trkpt>
<trkpt lat="33.810313" lon="-118.393867">
  <ele>-0.12</ele>
  <time>2026-09-01T01:17:28Z</time>
  <course>0.0</course>
  <speed>0.0</speed>
  <fix>3d</fix>
</trkpt>
<trkpt lat="33.810313" lon="-118.393867">
  <ele>-0.129</ele>
  <time>2026-09-01T01:17:28Z</time>
  <course>185.23</course>
  <speed>0.022360679774997897</speed>
  <fix>3d</fix>
</trkpt>
<trkpt lat="33.810313" lon="-118.393867">
  <ele>-0.12</ele>
  <time>2026-09-01T01:17:28Z</time>
  <course>0.0</course>
  <speed>0.0</speed>
  <fix>3d</fix>
</trkpt>
<trkpt lat="33.810313" lon="-118.393867">
  <ele>-0.131</ele>
  <time>2026-09-01T01:17:28Z</time>
  <course>185.22</course>
  <speed>0.022360679774997897</speed>
  <fix>3d</fix>
</trkpt>
<trkpt lat="33.810313" lon="-118.393867">
  <ele>-0.12</ele>
  <time>2026-09-01T01:17:28Z</time>
  <course>0.0</course>
  <speed>0.0</speed>
  <fix>3d</fix>
</trkpt>
<trkpt lat="33.810313" lon="-118.393867">
  <ele>-0.132</ele>
  <time>2026-09-01T01:17:28Z</time>
  <course>185.21</course>
  <speed>0.022360679774997897</speed>
  <fix>3d</fix>
</trkpt>
<trkpt lat="33.810313" lon="-118.393867">
  <ele>-0.12</ele>
  <time>2026-09-01T01:17:28Z</time>
  <course>0.0</course>
  <speed>0.0</speed>
  <fix>3d</fix>
</trkpt>
<trkpt lat="33.810313" lon="-118.393867">
  <ele>-0.132</ele>
  <time>2026-09-01T01:17:28Z</time>
  <course>185.21</course>
  <speed>0.022360679774997897</speed>
  <fix>3d</fix>
</trkpt>
<trkpt lat="33.810313" lon="-118.393867">
  <ele>-0.12</ele>
  <time>2026-09-01T01:17:28Z</time>
  <course>0.0</course>
  <speed>0.0</speed>
  <fix>3d</fix>
</trkpt>
<trkpt lat="33.810313" lon="-118.393867">
  <ele>-0.132</ele>
  <time>2026-09-01T01:17:28Z</time>
  <course>185.2</course>
  <speed>0.022360679774997897</speed>
  <fix>3d</fix>
</trkpt>
<trkpt lat="33.810313" lon="-118.393867">
  <ele>-0.12</ele>
  <time>2026-09-01T01:17:28Z</time>
  <course>0.0</course>
  <speed>0.0</speed>
  <fix>3d</fix>
</trkpt>
<trkpt lat="33.810313" lon="-118.393867">
  <ele>-0.132</ele>
  <time>2026-09-01T01:17:28Z</time>
  <course>185.19</course>
  <speed>0.0</speed>
  <fix>3d</fix>
</trkpt>
<trkpt lat="33.810313" lon="-118.393867">
  <ele>-0.12</ele>
  <time>2026-09-01T01:17:28Z</time>
  <course>0.0</course>
  <speed>0.0</speed>
  <fix>3d</fix>
</trkpt>
<trkpt lat="33.810313" lon="-118.393867">
  <ele>-0.131</ele>
  <time>2026-09-01T01:17:28Z</time>
  <course>185.18</course>
  <speed>0.0</speed>
  <fix>3d</fix>
</trkpt>
<trkpt lat="33.810313" lon="-118.393867">
  <ele>-0.12</ele>
  <time>2026-09-01T01:17:28Z</time>
  <course>0.0</course>
  <speed>0.0</speed>
  <fix>3d</fix>
</trkpt>
<trkpt lat="33.810313" lon="-118.393867">
  <ele>-0.131</ele>
  <time>2026-09-01T01:17:28Z</time>
  <course>185.17</course>
  <speed>0.0</speed>
  <fix>3d</fix>
</trkpt>
<trkpt lat="33.810313" lon="-118.393867">
  <ele>-0.12</ele>
  <time>2026-09-01T01:17:28Z</time>
  <course>0.0</course>
  <speed>0.0</speed>
  <fix>3d</fix>
</trkpt>
<trkpt lat="33.810313" lon="-118.393867">
  <ele>-0.132</ele>
  <time>2026-09-01T01:17:28Z</time>
  <course>185.16</course>
  <speed>0.0</speed>
  <fix>3d</fix>
</trkpt>
<trkpt lat="33.810313" lon="-118.393867">
  <ele>-0.12</ele>
  <time>2026-09-01T01:17:28Z</time>
  <course>0.0</course>
  <speed>0.0</speed>
  <fix>3d</fix>
</trkpt>
<trkpt lat="33.810313" lon="-118.393867">
  <ele>-0.134</ele>
  <time>2026-09-01T01:17:28Z</time>
  <course>185.15</course>
  <speed>0.0</speed>
  <fix>3d</fix>
</trkpt>
<trkpt lat="33.810313" lon="-118.393867">
  <ele>-0.12</ele>
  <time>2026-09-01T01:17:28Z</time>
  <course>0.0</course>
  <speed>0.0</speed>
  <fix>3d</fix>
</trkpt>
<trkpt lat="33.810313" lon="-118.393867">
  <ele>-0.137</ele>
  <time>2026-09-01T01:17:28Z</time>
  <course>185.14</course>
  <speed>0.0</speed>
  <fix>3d</fix>
</trkpt>
<trkpt lat="33.810313" lon="-118.393867">
  <ele>-0.12</ele>
  <time>2026-09-01T01:17:28Z</time>
  <course>0.0</course>
  <speed>0.0</speed>
  <fix>3d</fix>
</trkpt>
<trkpt lat="33.810313" lon="-118.393867">
  <ele>-0.139</ele>
  <time>2026-09-01T01:17:28Z</time>
  <course>185.14</course>
  <speed>0.0</speed>
  <fix>3d</fix>
</trkpt>
<trkpt lat="33.810313" lon="-118.393867">
  <ele>-0.12</ele>
  <time>2026-09-01T01:17:28Z</time>
  <course>0.0</course>
  <speed>0.0</speed>
  <fix>3d</fix>
</trkpt>
<trkpt lat="33.810313" lon="-118.393867">
  <ele>-0.141</ele>
  <time>2026-09-01T01:17:28Z</time>
  <course>185.13</course>
  <speed>0.0</speed>
  <fix>3d</fix>
</trkpt>
<trkpt lat="33.810313" lon="-118.393867">
  <ele>-0.12</ele>
  <time>2026-09-01T01:17:28Z</time>
  <course>0.0</course>
  <speed>0.0</speed>
  <fix>3d</fix>
</trkpt>
<trkpt lat="33.810313" lon="-118.393867">
  <ele>-0.141</ele>
  <time>2026-09-01T01:17:28Z</time>
  <course>185.12</course>
  <speed>0.0</speed>
  <fix>3d</fix>
</trkpt>
<trkpt lat="33.810313" lon="-118.393867">
  <ele>-0.12</ele>
  <time>2026-09-01T01:17:28Z</time>
  <course>0.0</course>
  <speed>0.0</speed>
  <fix>3d</fix>
</trkpt>
<trkpt lat="33.810313" lon="-118.393867">
  <ele>-0.139</ele>
  <time>2026-09-01T01:17:28Z</time>
  <course>185.11</course>
  <speed>0.0</speed>
  <fix>3d</fix>
</trkpt>
<trkpt lat="33.810313" lon="-118.393867">
  <ele>-0.12</ele>
  <time>2026-09-01T01:17:28Z</time>
  <course>0.0</course>
  <speed>0.0</speed>
  <fix>3d</fix>
</trkpt>
<trkpt lat="33.810313" lon="-118.393867">
  <ele>-0.136</ele>
  <time>2026-09-01T01:17:28Z</time>
  <course>185.1</course>
  <speed>0.0</speed>
  <fix>3d</fix>
</trkpt>
<trkpt lat="33.810313" lon="-118.393867">
  <ele>-0.12</ele>
  <time>2026-09-01T01:17:28Z</time>
  <course>0.0</course>
  <speed>0.0</speed>
  <fix>3d</fix>
</trkpt>
<trkpt lat="33.810313" lon="-118.393867">
  <ele>-0.133</ele>
  <time>2026-09-01T01:17:28Z</time>
  <course>185.09</course>
  <speed>0.0</speed>
  <fix>3d</fix>
</trkpt>
<trkpt lat="33.810313" lon="-118.393867">
  <ele>-0.12</ele>
  <time>2026-09-01T01:17:28Z</time>
  <course>0.0</course>
  <speed>0.0</speed>
  <fix>3d</fix>
</trkpt>
<trkpt lat="33.810313" lon="-118.393867">
  <ele>-0.129</ele>
  <time>2026-09-01T01:17:28Z</time>
  <course>185.08</course>
  <speed>0.0</speed>
  <fix>3d</fix>
</trkpt>
<trkpt lat="33.810313" lon="-118.393867">
  <ele>-0.12</ele>
  <time>2026-09-01T01:17:28Z</time>
  <course>0.0</course>
  <speed>0.0</speed>
  <fix>3d</fix>
</trkpt>
<trkpt lat="33.810313" lon="-118.393867">
  <ele>-0.127</ele>
  <time>2026-09-01T01:17:28Z</time>
  <course>185.07</course>
  <speed>0.0</speed>
  <fix>3d</fix>
</trkpt>
<trkpt lat="33.810313" lon="-118.393867">
  <ele>-0.12</ele>
  <time>2026-09-01T01:17:28Z</time>
  <course>0.0</course>
  <speed>0.0</speed>
  <fix>3d</fix>
</trkpt>
<trkpt lat="33.810313" lon="-118.393867">
  <ele>-0.126</ele>
  <time>2026-09-01T01:17:28Z</time>
  <course>185.07</course>
  <speed>0.0</speed>
  <fix>3d</fix>
</trkpt>
<trkpt lat="33.810313" lon="-118.393867">
  <ele>-0.12</ele>
  <time>2026-09-01T01:17:28Z</time>
  <course>0.0</course>
  <speed>0.0</speed>
  <fix>3d</fix>
</trkpt>
<trkpt lat="33.810313" lon="-118.393867">
  <ele>-0.126</ele>
  <time>2026-09-01T01:17:28Z</time>
  <course>185.06</course>
  <speed>0.01</speed>
  <fix>3d</fix>
</trkpt>
<trkpt lat="33.810313" lon="-118.393867">
  <ele>-0.12</ele>
  <time>2026-09-01T01:17:28Z</time>
  <course>0.0</course>
  <speed>0.0</speed>
  <fix>3d</fix>
</trkpt>
<trkpt lat="33.810313" lon="-118.393867">
  <ele>-0.126</ele>
  <time>2026-09-01T01:17:28Z</time>
  <course>185.05</course>
  <speed>0.01</speed>
  <fix>3d</fix>
</trkpt>
<trkpt lat="33.810313" lon="-118.393867">
  <ele>-0.12</ele>
  <time>2026-09-01T01:17:28Z</time>
  <course>0.0</course>
  <speed>0.0</speed>
  <fix>3d</fix>
</trkpt>
<trkpt lat="33.810313" lon="-118.393867">
  <ele>-0.126</ele>
  <time>2026-09-01T01:17:28Z</time>
  <course>185.04</course>
  <speed>0.01</speed>
  <fix>3d</fix>
</trkpt>
<trkpt lat="33.810313" lon="-118.393867">
  <ele>-0.12</ele>
  <time>2026-09-01T01:17:28Z</time>
  <course>0.0</course>
  <speed>0.0</speed>
  <fix>3d</fix>
</trkpt>
<trkpt lat="33.810313" lon="-118.393867">
  <ele>-0.126</ele>
  <time>2026-09-01T01:17:28Z</time>
  <course>185.03</course>
  <speed>0.01</speed>
  <fix>3d</fix>
</trkpt>
<trkpt lat="33.810313" lon="-118.393867">
  <ele>-0.12</ele>
  <time>2026-09-01T01:17:28Z</time>
  <course>0.0</course>
  <speed>0.0</speed>
  <fix>3d</fix>
</trkpt>
<trkpt lat="33.810313" lon="-118.393867">
  <ele>-0.125</ele>
  <time>2026-09-01T01:17:28Z</time>
  <course>185.02</course>
  <speed>0.01</speed>
  <fix>3d</fix>
</trkpt>
<trkpt lat="33.810313" lon="-118.393867">
  <ele>-0.12</ele>
  <time>2026-09-01T01:17:28Z</time>
  <course>0.0</course>
  <speed>0.0</speed>
  <fix>3d</fix>
</trkpt>
<trkpt lat="33.810313" lon="-118.393867">
  <ele>-0.124</ele>
  <time>2026-09-01T01:17:28Z</time>
  <course>185.02</course>
  <speed>0.01</speed>
  <fix>3d</fix>
</trkpt>
<trkpt lat="33.810313" lon="-118.393867">
  <ele>-0.12</ele>
  <time>2026-09-01T01:17:28Z</time>
  <course>0.0</course>
  <speed>0.0</speed>
  <fix>3d</fix>
</trkpt>
<trkpt lat="33.810313" lon="-118.393867">
  <ele>-0.122</ele>
  <time>2026-09-01T01:17:28Z</time>
  <course>185.01</course>
  <speed>0.01</speed>
  <fix>3d</fix>
</trkpt>
<trkpt lat="33.810313" lon="-118.393867">
  <ele>-0.12</ele>
  <time>2026-09-01T01:17:28Z</time>
  <course>0.0</course>
  <speed>0.0</speed>
  <fix>3d</fix>
</trkpt>
<trkpt lat="33.810313" lon="-118.393867">
  <ele>-0.121</ele>
  <time>2026-09-01T01:17:28Z</time>
  <course>185.0</course>
  <speed>0.01</speed>
  <fix>3d</fix>
</trkpt>
<trkpt lat="33.810313" lon="-118.393867">
  <ele>-0.12</ele>
  <time>2026-09-01T01:17:28Z</time>
  <course>0.0</course>
  <speed>0.0</speed>
  <fix>3d</fix>
</trkpt>
<trkpt lat="33.810313" lon="-118.393867">
  <ele>-0.122</ele>
  <time>2026-09-01T01:17:28Z</time>
  <course>184.99</course>
  <speed>0.01</speed>
  <fix>3d</fix>
</trkpt>
<trkpt lat="33.810313" lon="-118.393867">
  <ele>-0.12</ele>
  <time>2026-09-01T01:17:28Z</time>
  <course>0.0</course>
  <speed>0.0</speed>
  <fix>3d</fix>
</trkpt>
<trkpt lat="33.810313" lon="-118.393867">
  <ele>-0.124</ele>
  <time>2026-09-01T01:17:28Z</time>
  <course>184.98</course>
  <speed>0.01</speed>
  <fix>3d</fix>
</trkpt>
<trkpt lat="33.810313" lon="-118.393867">
  <ele>-0.12</ele>
  <time>2026-09-01T01:17:28Z</time>
  <course>0.0</course>
  <speed>0.0</speed>
  <fix>3d</fix>
</trkpt>
<trkpt lat="33.810313" lon="-118.393867">
  <ele>-0.127</ele>
  <time>2026-09-01T01:17:28Z</time>
  <course>184.98</course>
  <speed>0.01</speed>
  <fix>3d</fix>
</trkpt>
<trkpt lat="33.810313" lon="-118.393867">
  <ele>-0.12</ele>
  <time>2026-09-01T01:17:28Z</time>
  <course>0.0</course>
  <speed>0.0</speed>
  <fix>3d</fix>
</trkpt>
<trkpt lat="33.810313" lon="-118.393867">
  <ele>-0.13</ele>
  <time>2026-09-01T01:17:28Z</time>
  <course>184.97</course>
  <speed>0.01414213562373095</speed>
  <fix>3d</fix>
</trkpt>
<trkpt lat="33.810313" lon="-118.393867">
  <ele>-0.12</ele>
  <time>2026-09-01T01:17:28Z</time>
  <course>0.0</course>
  <speed>0.0</speed>
  <fix>3d</fix>
</trkpt>
<trkpt lat="33.810313" lon="-118.393867">
  <ele>-0.132</ele>
  <time>2026-09-01T01:17:28Z</time>
  <course>184.96</course>
  <speed>0.01414213562373095</speed>
  <fix>3d</fix>
</trkpt>
<trkpt lat="33.810313" lon="-118.393867">
  <ele>-0.12</ele>
  <time>2026-09-01T01:17:28Z</time>
  <course>0.0</course>
  <speed>0.0</speed>
  <fix>3d</fix>
</trkpt>
<trkpt lat="33.810313" lon="-118.393867">
  <ele>-0.134</ele>
  <time>2026-09-01T01:17:28Z</time>
  <course>184.95</course>
  <speed>0.01414213562373095</speed>
  <fix>3d</fix>
</trkpt>
<trkpt lat="33.810313" lon="-118.393867">
  <ele>-0.12</ele>
  <time>2026-09-01T01:17:28Z</time>
  <course>0.0</course>
  <speed>0.0</speed>
  <fix>3d</fix>
</trkpt>
<trkpt lat="33.810313" lon="-118.393867">
  <ele>-0.136</ele>
  <time>2026-09-01T01:17:28Z</time>
  <course>184.94</course>
  <speed>0.01414213562373095</speed>
  <fix>3d</fix>
</trkpt>
<trkpt lat="33.810313" lon="-118.393867">
  <ele>-0.12</ele>
  <time>2026-09-01T01:17:28Z</time>
  <course>0.0</course>
  <speed>0.0</speed>
  <fix>3d</fix>
</trkpt>
<trkpt lat="33.4368002" lon="-117.0859339">
  <ele>-0.11</ele>
  <time>2026-09-01T01:17:29Z</time>
  <course>0.0</course>
  <speed>0.0</speed>
  <fix>3d</fix>
</trkpt>
<trkpt lat="33.4368002" lon="-117.0859339">
  <ele>-0.11</ele>
  <time>2026-09-01T01:17:29Z</time>
  <course>0.0</course>
  <speed>0.0</speed>
  <fix>3d</fix>
</trkpt>
<trkpt lat="33.810313" lon="-118.393867">
  <ele>0.0</ele>
  <time>2026-09-01T01:17:29Z</time>
  <course>173.5</course>
  <speed>0.0</speed>
  <fix>3d</fix>
</trkpt>
<trkpt lat="33.810313" lon="-118.393867">
  <ele>-0.11</ele>
  <time>2026-09-01T01:17:29Z</time>
  <course>0.0</course>
  <speed>0.0</speed>
  <fix>3d</fix>
</trkpt>
<trkpt lat="33.4368002" lon="-117.0859339">
  <ele>-0.11</ele>
  <time>2026-09-01T01:17:30Z</time>
  <course>0.0</course>
  <speed>0.0</speed>
  <fix>3d</fix>
</trkpt>
<trkpt lat="33.4368002" lon="-117.0859339">
  <ele>-0.11</ele>
  <time>2026-09-01T01:17:30Z</time>
  <course>0.0</course>
  <speed>0.0</speed>
  <fix>3d</fix>
</trkpt>
<trkpt lat="33.810313" lon="-118.393867">
  <ele>0.0</ele>
  <time>2026-09-01T01:17:30Z</time>
  <course>173.5</course>
  <speed>0.0</speed>
  <fix>3d</fix>
</trkpt>
<trkpt lat="33.810313" lon="-118.393867">
  <ele>-0.11</ele>
  <time>2026-09-01T01:17:30Z</time>
  <course>0.0</course>
  <speed>0.0</speed>
  <fix>3d</fix>
</trkpt>
<trkpt lat="33.810313" lon="-118.393867">
  <ele>0.0</ele>
  <time>2026-09-01T01:17:30Z</time>
  <course>173.64</course>
  <speed>0.0</speed>
  <fix>3d</fix>
</trkpt>
<trkpt lat="33.810313" lon="-118.393867">
  <ele>-0.11</ele>
  <time>2026-09-01T01:17:30Z</time>
  <course>0.0</course>
  <speed>0.0</speed>
  <fix>3d</fix>
</trkpt>
<trkpt lat="33.810313" lon="-118.393867">
  <ele>0.0</ele>
  <time>2026-09-01T01:17:30Z</time>
  <course>174.03</course>
  <speed>0.0</speed>
  <fix>3d</fix>
</trkpt>
<trkpt lat="33.810313" lon="-118.393867">
  <ele>-0.11</ele>
  <time>2026-09-01T01:17:30Z</time>
  <course>0.0</course>
  <speed>0.0</speed>
  <fix>3d</fix>
</trkpt>
<trkpt lat="33.810313" lon="-118.393867">
  <ele>0.0</ele>
  <time>2026-09-01T01:17:30Z</time>
  <course>174.57</course>
  <speed>0.0</speed>
  <fix>3d</fix>
</trkpt>
<trkpt lat="33.810313" lon="-118.393867">
  <ele>-0.11</ele>
  <time>2026-09-01T01:17:30Z</time>
  <course>0.0</course>
  <speed>0.0</speed>
  <fix>3d</fix>
</trkpt>
<trkpt lat="33.810313" lon="-118.393867">
  <ele>0.0</ele>
  <time>2026-09-01T01:17:30Z</time>
  <course>175.13</course>
  <speed>0.0</speed>
  <fix>3d</fix>
</trkpt>
<trkpt lat="33.810313" lon="-118.393867">
  <ele>-0.12</ele>
  <time>2026-09-01T01:17:30Z</time>
  <course>0.0</course>
  <speed>0.0</speed>
  <fix>3d</fix>
</trkpt>
<trkpt lat="33.810313" lon="-118.393867">
  <ele>0.0</ele>
  <time>2026-09-01T01:17:30Z</time>
  <course>175.67</course>
  <speed>0.0</speed>
  <fix>3d</fix>
</trkpt>
<trkpt lat="33.810313" lon="-118.393867">
  <ele>-0.12</ele>
  <time>2026-09-01T01:17:30Z</time>
  <course>0.0</course>
  <speed>0.0</speed>
  <fix>3d</fix>
</trkpt>
<trkpt lat="33.810313" lon="-118.393867">
  <ele>0.0</ele>
  <time>2026-09-01T01:17:30Z</time>
  <course>176.17</course>
  <speed>0.0</speed>
  <fix>3d</fix>
</trkpt>
<trkpt lat="33.810313" lon="-118.393867">
  <ele>-0.13</ele>
  <time>2026-09-01T01:17:30Z</time>
  <course>0.0</course>
  <speed>0.0</speed>
  <fix>3d</fix>
</trkpt>
<trkpt lat="33.810313" lon="-118.393867">
  <ele>0.0</ele>
  <time>2026-09-01T01:17:30Z</time>
  <course>176.65</course>
  <speed>0.0</speed>
  <fix>3d</fix>
</trkpt>
<trkpt lat="33.810313" lon="-118.393867">
  <ele>-0.13</ele>
  <time>2026-09-01T01:17:30Z</time>
  <course>0.0</course>
  <speed>0.0</speed>
  <fix>3d</fix>
</trkpt>
<trkpt lat="33.810313" lon="-118.393867">
  <ele>0.0</ele>
  <time>2026-09-01T01:17:30Z</time>
  <course>177.12</course>
  <speed>0.0</speed>
  <fix>3d</fix>
</trkpt>
<trkpt lat="33.810313" lon="-118.393867">
  <ele>-0.13</ele>
  <time>2026-09-01T01:17:30Z</time>
  <course>0.0</course>
  <speed>0.0</speed>
  <fix>3d</fix>
</trkpt>
<trkpt lat="33.810313" lon="-118.393867">
  <ele>0.0</ele>
  <time>2026-09-01T01:17:30Z</time>
  <course>177.57</course>
  <speed>0.0</speed>
  <fix>3d</fix>
</trkpt>
<trkpt lat="33.810313" lon="-118.393867">
  <ele>-0.13</ele>
  <time>2026-09-01T01:17:30Z</time>
  <course>0.0</course>
  <speed>0.0</speed>
  <fix>3d</fix>
</trkpt>
<trkpt lat="33.810313" lon="-118.393867">
  <ele>0.0</ele>
  <time>2026-09-01T01:17:30Z</time>
  <course>178.02</course>
  <speed>0.0</speed>
  <fix>3d</fix>
</trkpt>
<trkpt lat="33.810313" lon="-118.393867">
  <ele>-0.14</ele>
  <time>2026-09-01T01:17:30Z</time>
  <course>0.0</course>
  <speed>0.0</speed>
  <fix>3d</fix>
</trkpt>
<trkpt lat="33.810313" lon="-118.393867">
  <ele>0.0</ele>
  <time>2026-09-01T01:17:30Z</time>
  <course>178.45</course>
  <speed>0.0</speed>
  <fix>3d</fix>
</trkpt>
<trkpt lat="33.810313" lon="-118.393867">
  <ele>-0.14</ele>
  <time>2026-09-01T01:17:30Z</time>
  <course>0.0</course>
  <speed>0.0</speed>
  <fix>3d</fix>
</trkpt>
<trkpt lat="33.810313" lon="-118.393867">
  <ele>0.0</ele>
  <time>2026-09-01T01:17:30Z</time>
  <course>178.87</course>
  <speed>0.0</speed>
  <fix>3d</fix>
</trkpt>
<trkpt lat="33.810313" lon="-118.393867">
  <ele>-0.14</ele>
  <time>2026-09-01T01:17:30Z</time>
  <course>0.0</course>
  <speed>0.0</speed>
  <fix>3d</fix>
</trkpt>
<trkpt lat="33.810313" lon="-118.393867">
  <ele>0.0</ele>
  <time>2026-09-01T01:17:30Z</time>
  <course>179.27</course>
  <speed>0.0</speed>
  <fix>3d</fix>
</trkpt>
<trkpt lat="33.810313" lon="-118.393867">
  <ele>-0.14</ele>
  <time>2026-09-01T01:17:30Z</time>
  <course>0.0</course>
  <speed>0.0</speed>
  <fix>3d</fix>
</trkpt>
<trkpt lat="33.810313" lon="-118.393867">
  <ele>0.0</ele>
  <time>2026-09-01T01:17:30Z</time>
  <course>179.66</course>
  <speed>0.0</speed>
  <fix>3d</fix>
</trkpt>
<trkpt lat="33.810313" lon="-118.393867">
  <ele>-0.14</ele>
  <time>2026-09-01T01:17:30Z</time>
  <course>0.0</course>
  <speed>0.0</speed>
  <fix>3d</fix>
</trkpt>
<trkpt lat="33.810313" lon="-118.393867">
  <ele>0.0</ele>
  <time>2026-09-01T01:17:30Z</time>
  <course>180.05</course>
  <speed>0.0</speed>
  <fix>3d</fix>
</trkpt>
<trkpt lat="33.810313" lon="-118.393867">
  <ele>-0.14</ele>
  <time>2026-09-01T01:17:30Z</time>
  <course>0.0</course>
  <speed>0.0</speed>
  <fix>3d</fix>
</trkpt>
<trkpt lat="33.810313" lon="-118.393867">
  <ele>0.0</ele>
  <time>2026-09-01T01:17:30Z</time>
  <course>180.41</course>
  <speed>0.0</speed>
  <fix>3d</fix>
</trkpt>
<trkpt lat="33.810313" lon="-118.393867">
  <ele>-0.14</ele>
  <time>2026-09-01T01:17:30Z</time>
  <course>0.0</course>
  <speed>0.0</speed>
  <fix>3d</fix>
</trkpt>
<trkpt lat="33.810313" lon="-118.393867">
  <ele>0.0</ele>
  <time>2026-09-01T01:17:30Z</time>
  <course>180.76</course>
  <speed>0.0</speed>
  <fix>3d</fix>
</trkpt>
<trkpt lat="33.810313" lon="-118.393867">
  <ele>-0.14</ele>
  <time>2026-09-01T01:17:30Z</time>
  <course>0.0</course>
  <speed>0.0</speed>
  <fix>3d</fix>
</trkpt>
<trkpt lat="33.810313" lon="-118.393867">
  <ele>0.0</ele>
  <time>2026-09-01T01:17:30Z</time>
  <course>181.1</course>
  <speed>0.0</speed>
  <fix>3d</fix>
</trkpt>
<trkpt lat="33.810313" lon="-118.393867">
  <ele>-0.13</ele>
  <time>2026-09-01T01:17:30Z</time>
  <course>0.0</course>
  <speed>0.0</speed>
  <fix>3d</fix>
</trkpt>
<trkpt lat="33.810313" lon="-118.393867">
  <ele>0.0</ele>
  <time>2026-09-01T01:17:30Z</time>
  <course>181.43</course>
  <speed>0.0</speed>
  <fix>3d</fix>
</trkpt>
<trkpt lat="33.810313" lon="-118.393867">
  <ele>-0.13</ele>
  <time>2026-09-01T01:17:30Z</time>
  <course>0.0</course>
  <speed>0.0</speed>
  <fix>3d</fix>
</trkpt>
<trkpt lat="33.810313" lon="-118.393867">
  <ele>0.0</ele>
  <time>2026-09-01T01:17:30Z</time>
  <course>181.75</course>
  <speed>0.0</speed>
  <fix>3d</fix>
</trkpt>
<trkpt lat="33.810313" lon="-118.393867">
  <ele>-0.12</ele>
  <time>2026-09-01T01:17:30Z</time>
  <course>0.0</course>
  <speed>0.0</speed>
  <fix>3d</fix>
</trkpt>
<trkpt lat="33.810313" lon="-118.393867">
  <ele>0.0</ele>
  <time>2026-09-01T01:17:30Z</time>
  <course>182.05</course>
  <speed>0.0</speed>
  <fix>3d</fix>
</trkpt>
<trkpt lat="33.810313" lon="-118.393867">
  <ele>-0.12</ele>
  <time>2026-09-01T01:17:30Z</time>
  <course>0.0</course>
  <speed>0.0</speed>
  <fix>3d</fix>
</trkpt>
<trkpt lat="33.810313" lon="-118.393867">
  <ele>0.0</ele>
  <time>2026-09-01T01:17:30Z</time>
  <course>182.35</course>
  <speed>0.0</speed>
  <fix>3d</fix>
</trkpt>
<trkpt lat="33.810313" lon="-118.393867">
  <ele>-0.12</ele>
  <time>2026-09-01T01:17:30Z</time>
  <course>0.0</course>
  <speed>0.0</speed>
  <fix>3d</fix>
</trkpt>
<trkpt lat="33.810313" lon="-118.393867">
  <ele>0.0</ele>
  <time>2026-09-01T01:17:30Z</time>
  <course>182.63</course>
  <speed>0.0</speed>
  <fix>3d</fix>
</trkpt>
<trkpt lat="33.810313" lon="-118.393867">
  <ele>-0.12</ele>
  <time>2026-09-01T01:17:30Z</time>
  <course>0.0</course>
  <speed>0.0</speed>
  <fix>3d</fix>
</trkpt>
<trkpt lat="33.810313" lon="-118.393867">
  <ele>0.0</ele>
  <time>2026-09-01T01:17:30Z</time>
  <course>182.9</course>
  <speed>0.0</speed>
  <fix>3d</fix>
</trkpt>
<trkpt lat="33.810313" lon="-118.393867">
  <ele>-0.11</ele>
  <time>2026-09-01T01:17:30Z</time>
  <course>0.0</course>
  <speed>0.0</speed>
  <fix>3d</fix>
</trkpt>
<trkpt lat="33.810313" lon="-118.393867">
  <ele>0.0</ele>
  <time>2026-09-01T01:17:30Z</time>
  <course>183.16</course>
  <speed>0.0</speed>
  <fix>3d</fix>
</trkpt>
<trkpt lat="33.810313" lon="-118.393867">
  <ele>-0.11</ele>
  <time>2026-09-01T01:17:30Z</time>
  <course>0.0</course>
  <speed>0.0</speed>
  <fix>3d</fix>
</trkpt>
<trkpt lat="33.810313" lon="-118.393867">
  <ele>0.0</ele>
  <time>2026-09-01T01:17:30Z</time>
  <course>183.41</course>
  <speed>0.0</speed>
  <fix>3d</fix>
</trkpt>
<trkpt lat="33.810313" lon="-118.393867">
  <ele>-0.11</ele>
  <time>2026-09-01T01:17:30Z</time>
  <course>0.0</course>
  <speed>0.0</speed>
  <fix>3d</fix>
</trkpt>
<trkpt lat="33.810313" lon="-118.393867">
  <ele>0.0</ele>
  <time>2026-09-01T01:17:30Z</time>
  <course>183.65</course>
  <speed>0.0</speed>
  <fix>3d</fix>
</trkpt>
<trkpt lat="33.810313" lon="-118.393867">
  <ele>-0.11</ele>
  <time>2026-09-01T01:17:30Z</time>
  <course>0.0</course>
  <speed>0.0</speed>
  <fix>3d</fix>
</trkpt>
<trkpt lat="33.810313" lon="-118.393867">
  <ele>0.0</ele>
  <time>2026-09-01T01:17:30Z</time>
  <course>183.88</course>
  <speed>0.0</speed>
  <fix>3d</fix>
</trkpt>
<trkpt lat="33.810313" lon="-118.393867">
  <ele>-0.12</ele>
  <time>2026-09-01T01:17:30Z</time>
  <course>0.0</course>
  <speed>0.0</speed>
  <fix>3d</fix>
</trkpt>
<trkpt lat="33.810313" lon="-118.393867">
  <ele>0.0</ele>
  <time>2026-09-01T01:17:30Z</time>
  <course>184.11</course>
  <speed>0.0</speed>
  <fix>3d</fix>
</trkpt>
<trkpt lat="33.810313" lon="-118.393867">
  <ele>-0.12</ele>
  <time>2026-09-01T01:17:30Z</time>
  <course>0.0</course>
  <speed>0.0</speed>
  <fix>3d</fix>
</trkpt>
<trkpt lat="33.810313" lon="-118.393867">
  <ele>0.0</ele>
  <time>2026-09-01T01:17:30Z</time>
  <course>184.32</course>
  <speed>0.0</speed>
  <fix>3d</fix>
</trkpt>
<trkpt lat="33.810313" lon="-118.393867">
  <ele>-0.13</ele>
  <time>2026-09-01T01:17:30Z</time>
  <course>0.0</course>
  <speed>0.0</speed>
  <fix>3d</fix>
</trkpt>
<trkpt lat="33.810313" lon="-118.393867">
  <ele>0.0</ele>
  <time>2026-09-01T01:17:30Z</time>
  <course>184.52</course>
  <speed>0.0</speed>
  <fix>3d</fix>
</trkpt>
<trkpt lat="33.810313" lon="-118.393867">
  <ele>-0.13</ele>
  <time>2026-09-01T01:17:30Z</time>
  <course>0.0</course>
  <speed>0.0</speed>
  <fix>3d</fix>
</trkpt>
<trkpt lat="33.810313" lon="-118.393867">
  <ele>0.0</ele>
  <time>2026-09-01T01:17:30Z</time>
  <course>184.72</course>
  <speed>0.0</speed>
  <fix>3d</fix>
</trkpt>
<trkpt lat="33.810313" lon="-118.393867">
  <ele>-0.13</ele>
  <time>2026-09-01T01:17:30Z</time>
  <course>0.0</course>
  <speed>0.0</speed>
  <fix>3d</fix>
</trkpt>
<trkpt lat="33.810313" lon="-118.393867">
  <ele>0.0</ele>
  <time>2026-09-01T01:17:30Z</time>
  <course>184.91</course>
  <speed>0.0</speed>
  <fix>3d</fix>
</trkpt>
<trkpt lat="33.810313" lon="-118.393867">
  <ele>-0.13</ele>
  <time>2026-09-01T01:17:30Z</time>
  <course>0.0</course>
  <speed>0.0</speed>
  <fix>3d</fix>
</trkpt>
<trkpt lat="33.810313" lon="-118.393867">
  <ele>0.0</ele>
  <time>2026-09-01T01:17:30Z</time>
  <course>185.09</course>
  <speed>0.0</speed>
  <fix>3d</fix>
</trkpt>
<trkpt lat="33.810313" lon="-118.393867">
  <ele>-0.14</ele>
  <time>2026-09-01T01:17:30Z</time>
  <course>0.0</course>
  <speed>0.0</speed>
  <fix>3d</fix>
</trkpt>
<trkpt lat="33.810313" lon="-118.393867">
  <ele>0.0</ele>
  <time>2026-09-01T01:17:30Z</time>
  <course>185.26</course>
  <speed>0.0</speed>
  <fix>3d</fix>
</trkpt>
<trkpt lat="33.810313" lon="-118.393867">
  <ele>-0.14</ele>
  <time>2026-09-01T01:17:30Z</time>
  <course>0.0</course>
  <speed>0.0</speed>
  <fix>3d</fix>
</trkpt>
<trkpt lat="33.810313" lon="-118.393867">
  <ele>0.0</ele>
  <time>2026-09-01T01:17:30Z</time>
  <course>185.42</course>
  <speed>0.0</speed>
  <fix>3d</fix>
</trkpt>
<trkpt lat="33.810313" lon="-118.393867">
  <ele>-0.13</ele>
  <time>2026-09-01T01:17:30Z</time>
  <course>0.0</course>
  <speed>0.0</speed>
  <fix>3d</fix>
</trkpt>
<trkpt lat="33.810313" lon="-118.393867">
  <ele>0.0</ele>
  <time>2026-09-01T01:17:30Z</time>
  <course>185.58</course>
  <speed>0.0</speed>
  <fix>3d</fix>
</trkpt>
<trkpt lat="33.810313" lon="-118.393867">
  <ele>-0.13</ele>
  <time>2026-09-01T01:17:30Z</time>
  <course>0.0</course>
  <speed>0.0</speed>
  <fix>3d</fix>
</trkpt>
<trkpt lat="33.810313" lon="-118.393867">
  <ele>0.0</ele>
  <time>2026-09-01T01:17:30Z</time>
  <course>185.73</course>
  <speed>0.0</speed>
  <fix>3d</fix>
</trkpt>
<trkpt lat="33.810313" lon="-118.393867">
  <ele>-0.13</ele>
  <time>2026-09-01T01:17:30Z</time>
  <course>0.0</course>
  <speed>0.0</speed>
  <fix>3d</fix>
</trkpt>
<trkpt lat="33.810313" lon="-118.393867">
  <ele>0.0</ele>
  <time>2026-09-01T01:17:30Z</time>
  <course>185.87</course>
  <speed>0.0</speed>
  <fix>3d</fix>
</trkpt>
<trkpt lat="33.810313" lon="-118.393867">
  <ele>-0.13</ele>
  <time>2026-09-01T01:17:30Z</time>
  <course>0.0</course>
  <speed>0.0</speed>
  <fix>3d</fix>
</trkpt>
<trkpt lat="33.810313" lon="-118.393867">
  <ele>0.0</ele>
  <time>2026-09-01T01:17:30Z</time>
  <course>186.01</course>
  <speed>0.0</speed>
  <fix>3d</fix>
</trkpt>
<trkpt lat="33.810313" lon="-118.393867">
  <ele>-0.12</ele>
  <time>2026-09-01T01:17:30Z</time>
  <course>0.0</course>
  <speed>0.0</speed>
  <fix>3d</fix>
</trkpt>
<trkpt lat="33.810313" lon="-118.393867">
  <ele>0.0</ele>
  <time>2026-09-01T01:17:30Z</time>
  <course>186.14</course>
  <speed>0.0</speed>
  <fix>3d</fix>
</trkpt>
<trkpt lat="33.810313" lon="-118.393867">
  <ele>-0.12</ele>
  <time>2026-09-01T01:17:30Z</time>
  <course>0.0</course>
  <speed>0.0</speed>
  <fix>3d</fix>
</trkpt>
<trkpt lat="33.810313" lon="-118.393867">
  <ele>0.0</ele>
  <time>2026-09-01T01:17:30Z</time>
  <course>186.27</course>
  <speed>0.0</speed>
  <fix>3d</fix>
</trkpt>
<trkpt lat="33.810313" lon="-118.393867">
  <ele>-0.12</ele>
  <time>2026-09-01T01:17:30Z</time>
  <course>0.0</course>
  <speed>0.0</speed>
  <fix>3d</fix>
</trkpt>
<trkpt lat="33.810313" lon="-118.393867">
  <ele>0.0</ele>
  <time>2026-09-01T01:17:30Z</time>
  <course>186.39</course>
  <speed>0.0</speed>
  <fix>3d</fix>
</trkpt>
<trkpt lat="33.810313" lon="-118.393867">
  <ele>-0.12</ele>
  <time>2026-09-01T01:17:30Z</time>
  <course>0.0</course>
  <speed>0.0</speed>
  <fix>3d</fix>
</trkpt>
<trkpt lat="33.810313" lon="-118.393867">
  <ele>0.0</ele>
  <time>2026-09-01T01:17:30Z</time>
  <course>186.5</course>
  <speed>0.0</speed>
  <fix>3d</fix>
</trkpt>
<trkpt lat="33.810313" lon="-118.393867">
  <ele>-0.12</ele>
  <time>2026-09-01T01:17:30Z</time>
  <course>0.0</course>
  <speed>0.0</speed>
  <fix>3d</fix>
</trkpt>
<trkpt lat="33.810313" lon="-118.393867">
  <ele>0.0</ele>
  <time>2026-09-01T01:17:30Z</time>
  <course>186.61</course>
  <speed>0.0</speed>
  <fix>3d</fix>
</trkpt>
<trkpt lat="33.810313" lon="-118.393867">
  <ele>-0.12</ele>
  <time>2026-09-01T01:17:30Z</time>
  <course>0.0</course>
  <speed>0.0</speed>
  <fix>3d</fix>
</trkpt>
<trkpt lat="33.810313" lon="-118.393867">
  <ele>0.0</ele>
  <time>2026-09-01T01:17:30Z</time>
  <course>186.72</course>
  <speed>0.0</speed>
  <fix>3d</fix>
</trkpt>
<trkpt lat="33.810313" lon="-118.393867">
  <ele>-0.12</ele>
  <time>2026-09-01T01:17:30Z</time>
  <course>0.0</course>
  <speed>0.0</speed>
  <fix>3d</fix>
</trkpt>
<trkpt lat="33.810313" lon="-118.393867">
  <ele>0.0</ele>
  <time>2026-09-01T01:17:30Z</time>
  <course>186.82</course>
  <speed>0.0</speed>
  <fix>3d</fix>
</trkpt>
<trkpt lat="33.810313" lon="-118.393867">
  <ele>-0.12</ele>
  <time>2026-09-01T01:17:30Z</time>
  <course>0.0</course>
  <speed>0.0</speed>
  <fix>3d</fix>
</trkpt>
<trkpt lat="33.810313" lon="-118.393867">
  <ele>0.0</ele>
  <time>2026-09-01T01:17:30Z</time>
  <course>186.91</course>
  <speed>0.0</speed>
  <fix>3d</fix>
</trkpt>
<trkpt lat="33.810313" lon="-118.393867">
  <ele>-0.12</ele>
  <time>2026-09-01T01:17:30Z</time>
  <course>0.0</course>
  <speed>0.0</speed>
  <fix>3d</fix>
</trkpt>
<trkpt lat="33.810313" lon="-118.393867">
  <ele>0.0</ele>
  <time>2026-09-01T01:17:30Z</time>
  <course>187.0</course>
  <speed>0.0</speed>
  <fix>3d</fix>
</trkpt>
<trkpt lat="33.810313" lon="-118.393867">
  <ele>-0.12</ele>
  <time>2026-09-01T01:17:30Z</time>
  <course>0.0</course>
  <speed>0.0</speed>
  <fix>3d</fix>
</trkpt>
<trkpt lat="33.810313" lon="-118.393867">
  <ele>0.0</ele>
  <time>2026-09-01T01:17:30Z</time>
  <course>187.09</course>
  <speed>0.0</speed>
  <fix>3d</fix>
</trkpt>
<trkpt lat="33.810313" lon="-118.393867">
  <ele>-0.13</ele>
  <time>2026-09-01T01:17:30Z</time>
  <course>0.0</course>
  <speed>0.0</speed>
  <fix>3d</fix>
</trkpt>
<trkpt lat="33.810313" lon="-118.393867">
  <ele>0.0</ele>
  <time>2026-09-01T01:17:30Z</time>
  <course>187.17</course>
  <speed>0.0</speed>
  <fix>3d</fix>
</trkpt>
<trkpt lat="33.810313" lon="-118.393867">
  <ele>-0.13</ele>
  <time>2026-09-01T01:17:30Z</time>
  <course>0.0</course>
  <speed>0.0</speed>
  <fix>3d</fix>
</trkpt>
<trkpt lat="33.810313" lon="-118.393867">
  <ele>0.0</ele>
  <time>2026-09-01T01:17:30Z</time>
  <course>187.25</course>
  <speed>0.0</speed>
  <fix>3d</fix>
</trkpt>
<trkpt lat="33.810313" lon="-118.393867">
  <ele>-0.13</ele>
  <time>2026-09-01T01:17:30Z</time>
  <course>0.0</course>
  <speed>0.0</speed>
  <fix>3d</fix>
</trkpt>
<trkpt lat="33.810313" lon="-118.393867">
  <ele>0.0</ele>
  <time>2026-09-01T01:17:30Z</time>
  <course>187.33</course>
  <speed>0.0</speed>
  <fix>3d</fix>
</trkpt>
<trkpt lat="33.810313" lon="-118.393867">
  <ele>-0.13</ele>
  <time>2026-09-01T01:17:30Z</time>
  <course>0.0</course>
  <speed>0.0</speed>
  <fix>3d</fix>
</trkpt>
<trkpt lat="33.810313" lon="-118.393867">
  <ele>0.0</ele>
  <time>2026-09-01T01:17:30Z</time>
  <course>187.4</course>
  <speed>0.0</speed>
  <fix>3d</fix>
</trkpt>
<trkpt lat="33.810313" lon="-118.393867">
  <ele>-0.13</ele>
  <time>2026-09-01T01:17:30Z</time>
  <course>0.0</course>
  <speed>0.0</speed>
  <fix>3d</fix>
</trkpt>
<trkpt lat="33.810313" lon="-118.393867">
  <ele>0.0</ele>
  <time>2026-09-01T01:17:30Z</time>
  <course>187.47</course>
  <speed>0.0</speed>
  <fix>3d</fix>
</trkpt>
<trkpt lat="33.810313" lon="-118.393867">
  <ele>-0.13</ele>
  <time>2026-09-01T01:17:30Z</time>
  <course>0.0</course>
  <speed>0.0</speed>
  <fix>3d</fix>
</trkpt>
<trkpt lat="33.810313" lon="-118.393867">
  <ele>0.0</ele>
  <time>2026-09-01T01:17:30Z</time>
  <course>187.53</course>
  <speed>0.0</speed>
  <fix>3d</fix>
</trkpt>
<trkpt lat="33.810313" lon="-118.393867">
  <ele>-0.13</ele>
  <time>2026-09-01T01:17:30Z</time>
  <course>0.0</course>
  <speed>0.0</speed>
  <fix>3d</fix>
</trkpt>
<trkpt lat="33.810313" lon="-118.393867">
  <ele>0.0</ele>
  <time>2026-09-01T01:17:30Z</time>
  <course>187.59</course>
  <speed>0.0</speed>
  <fix>3d</fix>
</trkpt>
<trkpt lat="33.810313" lon="-118.393867">
  <ele>-0.13</ele>
  <time>2026-09-01T01:17:30Z</time>
  <course>0.0</course>
  <speed>0.0</speed>
  <fix>3d</fix>
</trkpt>
<trkpt lat="33.810313" lon="-118.393867">
  <ele>0.0</ele>
  <time>2026-09-01T01:17:30Z</time>
  <course>187.65</course>
  <speed>0.0</speed>
  <fix>3d</fix>
</trkpt>
<trkpt lat="33.810313" lon="-118.393867">
  <ele>-0.12</ele>
  <time>2026-09-01T01:17:30Z</time>
  <course>0.0</course>
  <speed>0.0</speed>
  <fix>3d</fix>
</trkpt>
<trkpt lat="33.810313" lon="-118.393867">
  <ele>0.0</ele>
  <time>2026-09-01T01:17:30Z</time>
  <course>187.71</course>
  <speed>0.0</speed>
  <fix>3d</fix>
</trkpt>
<trkpt lat="33.810313" lon="-118.393867">
  <ele>-0.12</ele>
  <time>2026-09-01T01:17:30Z</time>
  <course>0.0</course>
  <speed>0.0</speed>
  <fix>3d</fix>
</trkpt>
<trkpt lat="33.810313" lon="-118.393867">
  <ele>0.0</ele>
  <time>2026-09-01T01:17:30Z</time>
  <course>187.76</course>
  <speed>0.0</speed>
  <fix>3d</fix>
</trkpt>
<trkpt lat="33.810313" lon="-118.393867">
  <ele>-0.12</ele>
  <time>2026-09-01T01:17:30Z</time>
  <course>0.0</course>
  <speed>0.0</speed>
  <fix>3d</fix>
</trkpt>
<trkpt lat="33.810313" lon="-118.393867">
  <ele>0.0</ele>
  <time>2026-09-01T01:17:30Z</time>
  <course>187.81</course>
  <speed>0.0</speed>
  <fix>3d</fix>
</trkpt>
<trkpt lat="33.810313" lon="-118.393867">
  <ele>-0.12</ele>
  <time>2026-09-01T01:17:30Z</time>
  <course>0.0</course>
  <speed>0.0</speed>
  <fix>3d</fix>
</trkpt>
<trkpt lat="33.810313" lon="-118.393867">
  <ele>0.0</ele>
  <time>2026-09-01T01:17:30Z</time>
  <course>187.86</course>
  <speed>0.0</speed>
  <fix>3d</fix>
</trkpt>
<trkpt lat="33.810313" lon="-118.393867">
  <ele>-0.12</ele>
  <time>2026-09-01T01:17:30Z</time>
  <course>0.0</course>
  <speed>0.0</speed>
  <fix>3d</fix>
</trkpt>
<trkpt lat="33.810313" lon="-118.393867">
  <ele>0.0</ele>
  <time>2026-09-01T01:17:30Z</time>
  <course>187.91</course>
  <speed>0.0</speed>
  <fix>3d</fix>
</trkpt>
<trkpt lat="33.810313" lon="-118.393867">
  <ele>-0.12</ele>
  <time>2026-09-01T01:17:30Z</time>
  <course>0.0</course>
  <speed>0.0</speed>
  <fix>3d</fix>
</trkpt>
<trkpt lat="33.810313" lon="-118.393867">
  <ele>0.0</ele>
  <time>2026-09-01T01:17:30Z</time>
  <course>187.95</course>
  <speed>0.0</speed>
  <fix>3d</fix>
</trkpt>
<trkpt lat="33.810313" lon="-118.393867">
  <ele>-0.12</ele>
  <time>2026-09-01T01:17:30Z</time>
  <course>0.0</course>
  <speed>0.0</speed>
  <fix>3d</fix>
</trkpt>
<trkpt lat="33.810313" lon="-118.393867">
  <ele>0.0</ele>
  <time>2026-09-01T01:17:30Z</time>
  <course>187.99</course>
  <speed>0.0</speed>
  <fix>3d</fix>
</trkpt>
<trkpt lat="33.810313" lon="-118.393867">
  <ele>-0.12</ele>
  <time>2026-09-01T01:17:30Z</time>
  <course>0.0</course>
  <speed>0.0</speed>
  <fix>3d</fix>
</trkpt>
<trkpt lat="33.810313" lon="-118.393867">
  <ele>0.0</ele>
  <time>2026-09-01T01:17:30Z</time>
  <course>188.03</course>
  <speed>0.0</speed>
  <fix>3d</fix>
</trkpt>
<trkpt lat="33.810313" lon="-118.393867">
  <ele>-0.12</ele>
  <time>2026-09-01T01:17:30Z</time>
  <course>0.0</course>
  <speed>0.0</speed>
  <fix>3d</fix>
</trkpt>
<trkpt lat="33.810313" lon="-118.393867">
  <ele>0.0</ele>
  <time>2026-09-01T01:17:30Z</time>
  <course>188.07</course>
  <speed>0.0</speed>
  <fix>3d</fix>
</trkpt>
<trkpt lat="33.810313" lon="-118.393867">
  <ele>-0.12</ele>
  <time>2026-09-01T01:17:30Z</time>
  <course>0.0</course>
  <speed>0.0</speed>
  <fix>3d</fix>
</trkpt>
<trkpt lat="33.810313" lon="-118.393867">
  <ele>0.0</ele>
  <time>2026-09-01T01:17:30Z</time>
  <course>188.1</course>
  <speed>0.0</speed>
  <fix>3d</fix>
</trkpt>
<trkpt lat="33.810313" lon="-118.393867">
  <ele>-0.13</ele>
  <time>2026-09-01T01:17:30Z</time>
  <course>0.0</course>
  <speed>0.0</speed>
  <fix>3d</fix>
</trkpt>
<trkpt lat="33.810313" lon="-118.393867">
  <ele>0.0</ele>
  <time>2026-09-01T01:17:30Z</time>
  <course>188.13</course>
  <speed>0.0</speed>
  <fix>3d</fix>
</trkpt>
<trkpt lat="33.810313" lon="-118.393867">
  <ele>-0.13</ele>
  <time>2026-09-01T01:17:30Z</time>
  <course>0.0</course>
  <speed>0.0</speed>
  <fix>3d</fix>
</trkpt>
<trkpt lat="33.810313" lon="-118.393867">
  <ele>0.0</ele>
  <time>2026-09-01T01:17:30Z</time>
  <course>188.17</course>
  <speed>0.0</speed>
  <fix>3d</fix>
</trkpt>
<trkpt lat="33.810313" lon="-118.393867">
  <ele>-0.13</ele>
  <time>2026-09-01T01:17:30Z</time>
  <course>0.0</course>
  <speed>0.0</speed>
  <fix>3d</fix>
</trkpt>
<trkpt lat="33.810313" lon="-118.393867">
  <ele>0.0</ele>
  <time>2026-09-01T01:17:30Z</time>
  <course>188.19</course>
  <speed>0.0</speed>
  <fix>3d</fix>
</trkpt>
<trkpt lat="33.810313" lon="-118.393867">
  <ele>-0.13</ele>
  <time>2026-09-01T01:17:30Z</time>
  <course>0.0</course>
  <speed>0.0</speed>
  <fix>3d</fix>
</trkpt>
<trkpt lat="33.810313" lon="-118.393867">
  <ele>0.0</ele>
  <time>2026-09-01T01:17:30Z</time>
  <course>188.22</course>
  <speed>0.0</speed>
  <fix>3d</fix>
</trkpt>
<trkpt lat="33.810313" lon="-118.393867">
  <ele>-0.13</ele>
  <time>2026-09-01T01:17:30Z</time>
  <course>0.0</course>
  <speed>0.0</speed>
  <fix>3d</fix>
</trkpt>
<trkpt lat="33.810313" lon="-118.393867">
  <ele>0.0</ele>
  <time>2026-09-01T01:17:30Z</time>
  <course>188.25</course>
  <speed>0.0</speed>
  <fix>3d</fix>
</trkpt>
<trkpt lat="33.810313" lon="-118.393867">
  <ele>-0.13</ele>
  <time>2026-09-01T01:17:30Z</time>
  <course>0.0</course>
  <speed>0.0</speed>
  <fix>3d</fix>
</trkpt>
<trkpt lat="33.810313" lon="-118.393867">
  <ele>0.0</ele>
  <time>2026-09-01T01:17:30Z</time>
  <course>188.27</course>
  <speed>0.0</speed>
  <fix>3d</fix>
</trkpt>
<trkpt lat="33.810313" lon="-118.393867">
  <ele>-0.12</ele>
  <time>2026-09-01T01:17:30Z</time>
  <course>0.0</course>
  <speed>0.0</speed>
  <fix>3d</fix>
</trkpt>
<trkpt lat="33.810313" lon="-118.393867">
  <ele>0.0</ele>
  <time>2026-09-01T01:17:30Z</time>
  <course>188.3</course>
  <speed>0.0</speed>
  <fix>3d</fix>
</trkpt>
<trkpt lat="33.810313" lon="-118.393867">
  <ele>-0.12</ele>
  <time>2026-09-01T01:17:30Z</time>
  <course>0.0</course>
  <speed>0.0</speed>
  <fix>3d</fix>
</trkpt>
<trkpt lat="33.810313" lon="-118.393867">
  <ele>0.0</ele>
  <time>2026-09-01T01:17:30Z</time>
  <course>188.32</course>
  <speed>0.0</speed>
  <fix>3d</fix>
</trkpt>
<trkpt lat="33.810313" lon="-118.393867">
  <ele>-0.12</ele>
  <time>2026-09-01T01:17:30Z</time>
  <course>0.0</course>
  <speed>0.0</speed>
  <fix>3d</fix>
</trkpt>
<trkpt lat="33.810313" lon="-118.393867">
  <ele>0.0</ele>
  <time>2026-09-01T01:17:30Z</time>
  <course>188.34</course>
  <speed>0.0</speed>
  <fix>3d</fix>
</trkpt>
<trkpt lat="33.810313" lon="-118.393867">
  <ele>-0.12</ele>
  <time>2026-09-01T01:17:30Z</time>
  <course>0.0</course>
  <speed>0.0</speed>
  <fix>3d</fix>
</trkpt>
<trkpt lat="33.810313" lon="-118.393867">
  <ele>0.0</ele>
  <time>2026-09-01T01:17:30Z</time>
  <course>188.36</course>
  <speed>0.0</speed>
  <fix>3d</fix>
</trkpt>
<trkpt lat="33.810313" lon="-118.393867">
  <ele>-0.12</ele>
  <time>2026-09-01T01:17:30Z</time>
  <course>0.0</course>
  <speed>0.0</speed>
  <fix>3d</fix>
</trkpt>
<trkpt lat="33.810313" lon="-118.393867">
  <ele>0.0</ele>
  <time>2026-09-01T01:17:30Z</time>
  <course>188.38</course>
  <speed>0.0</speed>
  <fix>3d</fix>
</trkpt>
<trkpt lat="33.810313" lon="-118.393867">
  <ele>-0.12</ele>
  <time>2026-09-01T01:17:30Z</time>
  <course>0.0</course>
  <speed>0.0</speed>
  <fix>3d</fix>
</trkpt>
<trkpt lat="33.810313" lon="-118.393867">
  <ele>0.0</ele>
  <time>2026-09-01T01:17:30Z</time>
  <course>188.39</course>
  <speed>0.0</speed>
  <fix>3d</fix>
</trkpt>
<trkpt lat="33.810313" lon="-118.393867">
  <ele>-0.12</ele>
  <time>2026-09-01T01:17:30Z</time>
  <course>0.0</course>
  <speed>0.0</speed>
  <fix>3d</fix>
</trkpt>
<trkpt lat="33.810313" lon="-118.393867">
  <ele>0.0</ele>
  <time>2026-09-01T01:17:30Z</time>
  <course>188.41</course>
  <speed>0.0</speed>
  <fix>3d</fix>
</trkpt>
<trkpt lat="33.810313" lon="-118.393867">
  <ele>-0.12</ele>
  <time>2026-09-01T01:17:30Z</time>
  <course>0.0</course>
  <speed>0.0</speed>
  <fix>3d</fix>
</trkpt>
<trkpt lat="33.810313" lon="-118.393867">
  <ele>0.0</ele>
  <time>2026-09-01T01:17:30Z</time>
  <course>188.43</course>
  <speed>0.0</speed>
  <fix>3d</fix>
</trkpt>
<trkpt lat="33.810313" lon="-118.393867">
  <ele>-0.12</ele>
  <time>2026-09-01T01:17:30Z</time>
  <course>0.0</course>
  <speed>0.0</speed>
  <fix>3d</fix>
</trkpt>
<trkpt lat="33.810313" lon="-118.393867">
  <ele>0.0</ele>
  <time>2026-09-01T01:17:30Z</time>
  <course>188.44</course>
  <speed>0.0</speed>
  <fix>3d</fix>
</trkpt>
<trkpt lat="33.810313" lon="-118.393867">
  <ele>-0.12</ele>
  <time>2026-09-01T01:17:30Z</time>
  <course>0.0</course>
  <speed>0.0</speed>
  <fix>3d</fix>
</trkpt>
<trkpt lat="33.810313" lon="-118.393867">
  <ele>0.0</ele>
  <time>2026-09-01T01:17:30Z</time>
  <course>188.45</course>
  <speed>0.0</speed>
  <fix>3d</fix>
</trkpt>
<trkpt lat="33.810313" lon="-118.393867">
  <ele>-0.13</ele>
  <time>2026-09-01T01:17:30Z</time>
  <course>0.0</course>
  <speed>0.0</speed>
  <fix>3d</fix>
</trkpt>
<trkpt lat="33.810313" lon="-118.393867">
  <ele>0.0</ele>
  <time>2026-09-01T01:17:30Z</time>
  <course>188.46</course>
  <speed>0.0</speed>
  <fix>3d</fix>
</trkpt>
<trkpt lat="33.810313" lon="-118.393867">
  <ele>-0.13</ele>
  <time>2026-09-01T01:17:30Z</time>
  <course>0.0</course>
  <speed>0.0</speed>
  <fix>3d</fix>
</trkpt>
<trkpt lat="33.810313" lon="-118.393867">
  <ele>0.0</ele>
  <time>2026-09-01T01:17:30Z</time>
  <course>188.48</course>
  <speed>0.0</speed>
  <fix>3d</fix>
</trkpt>
<trkpt lat="33.810313" lon="-118.393867">
  <ele>-0.13</ele>
  <time>2026-09-01T01:17:30Z</time>
  <course>0.0</course>
  <speed>0.0</speed>
  <fix>3d</fix>
</trkpt>
<trkpt lat="33.810313" lon="-118.393867">
  <ele>0.0</ele>
  <time>2026-09-01T01:17:30Z</time>
  <course>188.49</course>
  <speed>0.0</speed>
  <fix>3d</fix>
</trkpt>
<trkpt lat="33.810313" lon="-118.393867">
  <ele>-0.13</ele>
  <time>2026-09-01T01:17:30Z</time>
  <course>0.0</course>
  <speed>0.0</speed>
  <fix>3d</fix>
</trkpt>
<trkpt lat="33.810313" lon="-118.393867">
  <ele>0.0</ele>
  <time>2026-09-01T01:17:30Z</time>
  <course>188.49</course>
  <speed>0.0</speed>
  <fix>3d</fix>
</trkpt>
<trkpt lat="33.810313" lon="-118.393867">
  <ele>-0.13</ele>
  <time>2026-09-01T01:17:30Z</time>
  <course>0.0</course>
  <speed>0.0</speed>
  <fix>3d</fix>
</trkpt>
<trkpt lat="33.810313" lon="-118.393867">
  <ele>0.0</ele>
  <time>2026-09-01T01:17:30Z</time>
  <course>188.5</course>
  <speed>0.0</speed>
  <fix>3d</fix>
</trkpt>
<trkpt lat="33.810313" lon="-118.393867">
  <ele>-0.13</ele>
  <time>2026-09-01T01:17:30Z</time>
  <course>0.0</course>
  <speed>0.0</speed>
  <fix>3d</fix>
</trkpt>
<trkpt lat="33.810313" lon="-118.393867">
  <ele>0.0</ele>
  <time>2026-09-01T01:17:30Z</time>
  <course>188.51</course>
  <speed>0.0</speed>
  <fix>3d</fix>
</trkpt>
<trkpt lat="33.810313" lon="-118.393867">
  <ele>-0.12</ele>
  <time>2026-09-01T01:17:30Z</time>
  <course>0.0</course>
  <speed>0.0</speed>
  <fix>3d</fix>
</trkpt>
<trkpt lat="33.810313" lon="-118.393867">
  <ele>0.0</ele>
  <time>2026-09-01T01:17:30Z</time>
  <course>188.52</course>
  <speed>0.0</speed>
  <fix>3d</fix>
</trkpt>
<trkpt lat="33.810313" lon="-118.393867">
  <ele>-0.12</ele>
  <time>2026-09-01T01:17:30Z</time>
  <course>0.0</course>
  <speed>0.0</speed>
  <fix>3d</fix>
</trkpt>
<trkpt lat="33.810313" lon="-118.393867">
  <ele>0.0</ele>
  <time>2026-09-01T01:17:30Z</time>
  <course>188.53</course>
  <speed>0.0</speed>
  <fix>3d</fix>
</trkpt>
<trkpt lat="33.810313" lon="-118.393867">
  <ele>-0.12</ele>
  <time>2026-09-01T01:17:30Z</time>
  <course>0.0</course>
  <speed>0.0</speed>
  <fix>3d</fix>
</trkpt>
<trkpt lat="33.810313" lon="-118.393867">
  <ele>0.0</ele>
  <time>2026-09-01T01:17:30Z</time>
  <course>188.53</course>
  <speed>0.0</speed>
  <fix>3d</fix>
</trkpt>
<trkpt lat="33.810313" lon="-118.393867">
  <ele>-0.12</ele>
  <time>2026-09-01T01:17:30Z</time>
  <course>0.0</course>
  <speed>0.0</speed>
  <fix>3d</fix>
</trkpt>
<trkpt lat="33.810313" lon="-118.393867">
  <ele>0.0</ele>
  <time>2026-09-01T01:17:30Z</time>
  <course>188.54</course>
  <speed>0.0</speed>
  <fix>3d</fix>
</trkpt>
<trkpt lat="33.810313" lon="-118.393867">
  <ele>-0.12</ele>
  <time>2026-09-01T01:17:30Z</time>
  <course>0.0</course>
  <speed>0.0</speed>
  <fix>3d</fix>
</trkpt>
<trkpt lat="33.810313" lon="-118.393867">
  <ele>0.0</ele>
  <time>2026-09-01T01:17:30Z</time>
  <course>188.54</course>
  <speed>0.0</speed>
  <fix>3d</fix>
</trkpt>
<trkpt lat="33.810313" lon="-118.393867">
  <ele>-0.12</ele>
  <time>2026-09-01T01:17:30Z</time>
  <course>0.0</course>
  <speed>0.0</speed>
  <fix>3d</fix>
</trkpt>
<trkpt lat="33.810313" lon="-118.393867">
  <ele>0.0</ele>
  <time>2026-09-01T01:17:30Z</time>
  <course>188.54</course>
  <speed>0.0</speed>
  <fix>3d</fix>
</trkpt>
<trkpt lat="33.810313" lon="-118.393867">
  <ele>-0.12</ele>
  <time>2026-09-01T01:17:30Z</time>
  <course>0.0</course>
  <speed>0.0</speed>
  <fix>3d</fix>
</trkpt>
<trkpt lat="33.810313" lon="-118.393867">
  <ele>0.0</ele>
  <time>2026-09-01T01:17:30Z</time>
  <course>188.55</course>
  <speed>0.0</speed>
  <fix>3d</fix>
</trkpt>
<trkpt lat="33.810313" lon="-118.393867">
  <ele>-0.12</ele>
  <time>2026-09-01T01:17:30Z</time>
  <course>0.0</course>
  <speed>0.0</speed>
  <fix>3d</fix>
</trkpt>
<trkpt lat="33.810313" lon="-118.393867">
  <ele>0.0</ele>
  <time>2026-09-01T01:17:30Z</time>
  <course>188.55</course>
  <speed>0.0</speed>
  <fix>3d</fix>
</trkpt>
<trkpt lat="33.810313" lon="-118.393867">
  <ele>-0.12</ele>
  <time>2026-09-01T01:17:30Z</time>
  <course>0.0</course>
  <speed>0.0</speed>
  <fix>3d</fix>
</trkpt>
<trkpt lat="33.810313" lon="-118.393867">
  <ele>0.0</ele>
  <time>2026-09-01T01:17:30Z</time>
  <course>188.55</course>
  <speed>0.0</speed>
  <fix>3d</fix>
</trkpt>
<trkpt lat="33.810313" lon="-118.393867">
  <ele>-0.12</ele>
  <time>2026-09-01T01:17:30Z</time>
  <course>0.0</course>
  <speed>0.0</speed>
  <fix>3d</fix>
</trkpt>
<trkpt lat="33.810313" lon="-118.393867">
  <ele>-0.126</ele>
  <time>2026-09-01T01:17:30Z</time>
  <course>188.55</course>
  <speed>0.0</speed>
  <fix>3d</fix>
</trkpt>
<trkpt lat="33.810313" lon="-118.393867">
  <ele>-0.13</ele>
  <time>2026-09-01T01:17:30Z</time>
  <course>0.0</course>
  <speed>0.0</speed>
  <fix>3d</fix>
</trkpt>
<trkpt lat="33.810313" lon="-118.393867">
  <ele>-0.126</ele>
  <time>2026-09-01T01:17:30Z</time>
  <course>188.56</course>
  <speed>0.0</speed>
  <fix>3d</fix>
</trkpt>
<trkpt lat="33.810313" lon="-118.393867">
  <ele>-0.13</ele>
  <time>2026-09-01T01:17:30Z</time>
  <course>0.0</course>
  <speed>0.0</speed>
  <fix>3d</fix>
</trkpt>
<trkpt lat="33.810313" lon="-118.393867">
  <ele>-0.124</ele>
  <time>2026-09-01T01:17:30Z</time>
  <course>188.56</course>
  <speed>0.0</speed>
  <fix>3d</fix>
</trkpt>
<trkpt lat="33.810313" lon="-118.393867">
  <ele>-0.13</ele>
  <time>2026-09-01T01:17:30Z</time>
  <course>0.0</course>
  <speed>0.0</speed>
  <fix>3d</fix>
</trkpt>
<trkpt lat="33.810313" lon="-118.393867">
  <ele>-0.123</ele>
  <time>2026-09-01T01:17:30Z</time>
  <course>188.56</course>
  <speed>0.0</speed>
  <fix>3d</fix>
</trkpt>
<trkpt lat="33.810313" lon="-118.393867">
  <ele>-0.13</ele>
  <time>2026-09-01T01:17:30Z</time>
  <course>0.0</course>
  <speed>0.0</speed>
  <fix>3d</fix>
</trkpt>
<trkpt lat="33.810313" lon="-118.393867">
  <ele>-0.121</ele>
  <time>2026-09-01T01:17:30Z</time>
  <course>188.56</course>
  <speed>0.0</speed>
  <fix>3d</fix>
</trkpt>
<trkpt lat="33.810313" lon="-118.393867">
  <ele>-0.12</ele>
  <time>2026-09-01T01:17:30Z</time>
  <course>0.0</course>
  <speed>0.0</speed>
  <fix>3d</fix>
</trkpt>
<trkpt lat="33.810313" lon="-118.393867">
  <ele>-0.12</ele>
  <time>2026-09-01T01:17:30Z</time>
  <course>188.56</course>
  <speed>0.0</speed>
  <fix>3d</fix>
</trkpt>
<trkpt lat="33.810313" lon="-118.393867">
  <ele>-0.12</ele>
  <time>2026-09-01T01:17:30Z</time>
  <course>0.0</course>
  <speed>0.0</speed>
  <fix>3d</fix>
</trkpt>
<trkpt lat="33.810313" lon="-118.393867">
  <ele>-0.119</ele>
  <time>2026-09-01T01:17:30Z</time>
  <course>188.56</course>
  <speed>0.0</speed>
  <fix>3d</fix>
</trkpt>
<trkpt lat="33.810313" lon="-118.393867">
  <ele>-0.12</ele>
  <time>2026-09-01T01:17:30Z</time>
  <course>0.0</course>
  <speed>0.0</speed>
  <fix>3d</fix>
</trkpt>
<trkpt lat="33.810313" lon="-118.393867">
  <ele>-0.12</ele>
  <time>2026-09-01T01:17:30Z</time>
  <course>188.56</course>
  <speed>0.0</speed>
  <fix>3d</fix>
</trkpt>
<trkpt lat="33.810313" lon="-118.393867">
  <ele>-0.12</ele>
  <time>2026-09-01T01:17:30Z</time>
  <course>0.0</course>
  <speed>0.0</speed>
  <fix>3d</fix>
</trkpt>
<trkpt lat="33.810313" lon="-118.393867">
  <ele>-0.124</ele>
  <time>2026-09-01T01:17:30Z</time>
  <course>188.55</course>
  <speed>0.0</speed>
  <fix>3d</fix>
</trkpt>
<trkpt lat="33.810313" lon="-118.393867">
  <ele>-0.12</ele>
  <time>2026-09-01T01:17:30Z</time>
  <course>0.0</course>
  <speed>0.0</speed>
  <fix>3d</fix>
</trkpt>
<trkpt lat="33.810313" lon="-118.393867">
  <ele>-0.127</ele>
  <time>2026-09-01T01:17:30Z</time>
  <course>188.55</course>
  <speed>0.0</speed>
  <fix>3d</fix>
</trkpt>
<trkpt lat="33.810313" lon="-118.393867">
  <ele>-0.12</ele>
  <time>2026-09-01T01:17:30Z</time>
  <course>0.0</course>
  <speed>0.0</speed>
  <fix>3d</fix>
</trkpt>
<trkpt lat="33.810313" lon="-118.393867">
  <ele>-0.13</ele>
  <time>2026-09-01T01:17:30Z</time>
  <course>188.55</course>
  <speed>0.0</speed>
  <fix>3d</fix>
</trkpt>
<trkpt lat="33.810313" lon="-118.393867">
  <ele>-0.12</ele>
  <time>2026-09-01T01:17:30Z</time>
  <course>0.0</course>
  <speed>0.0</speed>
  <fix>3d</fix>
</trkpt>
<trkpt lat="33.810313" lon="-118.393867">
  <ele>-0.132</ele>
  <time>2026-09-01T01:17:30Z</time>
  <course>188.55</course>
  <speed>0.0</speed>
  <fix>3d</fix>
</trkpt>
<trkpt lat="33.810313" lon="-118.393867">
  <ele>-0.12</ele>
  <time>2026-09-01T01:17:30Z</time>
  <course>0.0</course>
  <speed>0.0</speed>
  <fix>3d</fix>
</trkpt>
<trkpt lat="33.810313" lon="-118.393867">
  <ele>-0.132</ele>
  <time>2026-09-01T01:17:30Z</time>
  <course>188.55</course>
  <speed>0.0</speed>
  <fix>3d</fix>
</trkpt>
<trkpt lat="33.810313" lon="-118.393867">
  <ele>-0.12</ele>
  <time>2026-09-01T01:17:30Z</time>
  <course>0.0</course>
  <speed>0.0</speed>
  <fix>3d</fix>
</trkpt>
<trkpt lat="33.810313" lon="-118.393867">
  <ele>-0.132</ele>
  <time>2026-09-01T01:17:30Z</time>
  <course>188.55</course>
  <speed>0.0</speed>
  <fix>3d</fix>
</trkpt>
<trkpt lat="33.810313" lon="-118.393867">
  <ele>-0.12</ele>
  <time>2026-09-01T01:17:30Z</time>
  <course>0.0</course>
  <speed>0.0</speed>
  <fix>3d</fix>
</trkpt>
<trkpt lat="33.810313" lon="-118.393867">
  <ele>-0.132</ele>
  <time>2026-09-01T01:17:30Z</time>
  <course>188.55</course>
  <speed>0.0</speed>
  <fix>3d</fix>
</trkpt>
<trkpt lat="33.810313" lon="-118.393867">
  <ele>-0.12</ele>
  <time>2026-09-01T01:17:30Z</time>
  <course>0.0</course>
  <speed>0.0</speed>
  <fix>3d</fix>
</trkpt>
<trkpt lat="33.810313" lon="-118.393867">
  <ele>-0.131</ele>
  <time>2026-09-01T01:17:30Z</time>
  <course>188.55</course>
  <speed>0.0</speed>
  <fix>3d</fix>
</trkpt>
<trkpt lat="33.810313" lon="-118.393867">
  <ele>-0.12</ele>
  <time>2026-09-01T01:17:30Z</time>
  <course>0.0</course>
  <speed>0.0</speed>
  <fix>3d</fix>
</trkpt>
<trkpt lat="33.810313" lon="-118.393867">
  <ele>-0.129</ele>
  <time>2026-09-01T01:17:30Z</time>
  <course>188.54</course>
  <speed>0.0</speed>
  <fix>3d</fix>
</trkpt>
<trkpt lat="33.810313" lon="-118.393867">
  <ele>-0.13</ele>
  <time>2026-09-01T01:17:30Z</time>
  <course>0.0</course>
  <speed>0.0</speed>
  <fix>3d</fix>
</trkpt>
<trkpt lat="33.810313" lon="-118.393867">
  <ele>-0.128</ele>
  <time>2026-09-01T01:17:30Z</time>
  <course>188.54</course>
  <speed>0.0</speed>
  <fix>3d</fix>
</trkpt>
<trkpt lat="33.810313" lon="-118.393867">
  <ele>-0.13</ele>
  <time>2026-09-01T01:17:30Z</time>
  <course>0.0</course>
  <speed>0.0</speed>
  <fix>3d</fix>
</trkpt>
<trkpt lat="33.810313" lon="-118.393867">
  <ele>-0.125</ele>
  <time>2026-09-01T01:17:30Z</time>
  <course>188.53</course>
  <speed>0.0</speed>
  <fix>3d</fix>
</trkpt>
<trkpt lat="33.810313" lon="-118.393867">
  <ele>-0.12</ele>
  <time>2026-09-01T01:17:30Z</time>
  <course>0.0</course>
  <speed>0.0</speed>
  <fix>3d</fix>
</trkpt>
<trkpt lat="33.810313" lon="-118.393867">
  <ele>-0.123</ele>
  <time>2026-09-01T01:17:30Z</time>
  <course>188.53</course>
  <speed>0.0</speed>
  <fix>3d</fix>
</trkpt>
<trkpt lat="33.810313" lon="-118.393867">
  <ele>-0.12</ele>
  <time>2026-09-01T01:17:30Z</time>
  <course>0.0</course>
  <speed>0.0</speed>
  <fix>3d</fix>
</trkpt>
<trkpt lat="33.810313" lon="-118.393867">
  <ele>-0.121</ele>
  <time>2026-09-01T01:17:30Z</time>
  <course>188.52</course>
  <speed>0.0</speed>
  <fix>3d</fix>
</trkpt>
<trkpt lat="33.810313" lon="-118.393867">
  <ele>-0.12</ele>
  <time>2026-09-01T01:17:30Z</time>
  <course>0.0</course>
  <speed>0.0</speed>
  <fix>3d</fix>
</trkpt>
<trkpt lat="33.810313" lon="-118.393867">
  <ele>-0.121</ele>
  <time>2026-09-01T01:17:30Z</time>
  <course>188.52</course>
  <speed>0.0</speed>
  <fix>3d</fix>
</trkpt>
<trkpt lat="33.810313" lon="-118.393867">
  <ele>-0.12</ele>
  <time>2026-09-01T01:17:30Z</time>
  <course>0.0</course>
  <speed>0.0</speed>
  <fix>3d</fix>
</trkpt>
<trkpt lat="33.810313" lon="-118.393867">
  <ele>-0.122</ele>
  <time>2026-09-01T01:17:30Z</time>
  <course>188.51</course>
  <speed>0.0</speed>
  <fix>3d</fix>
</trkpt>
<trkpt lat="33.810313" lon="-118.393867">
  <ele>-0.12</ele>
  <time>2026-09-01T01:17:30Z</time>
  <course>0.0</course>
  <speed>0.0</speed>
  <fix>3d</fix>
</trkpt>
<trkpt lat="33.810313" lon="-118.393867">
  <ele>-0.123</ele>
  <time>2026-09-01T01:17:30Z</time>
  <course>188.51</course>
  <speed>0.0</speed>
  <fix>3d</fix>
</trkpt>
<trkpt lat="33.810313" lon="-118.393867">
  <ele>-0.12</ele>
  <time>2026-09-01T01:17:30Z</time>
  <course>0.0</course>
  <speed>0.0</speed>
  <fix>3d</fix>
</trkpt>
<trkpt lat="33.810313" lon="-118.393867">
  <ele>-0.126</ele>
  <time>2026-09-01T01:17:30Z</time>
  <course>188.5</course>
  <speed>0.0</speed>
  <fix>3d</fix>
</trkpt>
<trkpt lat="33.810313" lon="-118.393867">
  <ele>-0.12</ele>
  <time>2026-09-01T01:17:30Z</time>
  <course>0.0</course>
  <speed>0.0</speed>
  <fix>3d</fix>
</trkpt>
<trkpt lat="33.810313" lon="-118.393867">
  <ele>-0.127</ele>
  <time>2026-09-01T01:17:30Z</time>
  <course>188.5</course>
  <speed>0.0</speed>
  <fix>3d</fix>
</trkpt>
<trkpt lat="33.810313" lon="-118.393867">
  <ele>-0.12</ele>
  <time>2026-09-01T01:17:31Z</time>
  <course>0.0</course>
  <speed>0.0</speed>
  <fix>3d</fix>
</trkpt>
<trkpt lat="33.810313" lon="-118.393867">
  <ele>-0.128</ele>
  <time>2026-09-01T01:17:31Z</time>
  <course>188.49</course>
  <speed>0.0</speed>
  <fix>3d</fix>
</trkpt>
<trkpt lat="33.810313" lon="-118.393867">
  <ele>-0.12</ele>
  <time>2026-09-01T01:17:31Z</time>
  <course>0.0</course>
  <speed>0.0</speed>
  <fix>3d</fix>
</trkpt>
<trkpt lat="33.810313" lon="-118.393867">
  <ele>-0.127</ele>
  <time>2026-09-01T01:17:31Z</time>
  <course>188.48</course>
  <speed>0.0</speed>
  <fix>3d</fix>
</trkpt>
<trkpt lat="33.810313" lon="-118.393867">
  <ele>-0.12</ele>
  <time>2026-09-01T01:17:31Z</time>
  <course>0.0</course>
  <speed>0.0</speed>
  <fix>3d</fix>
</trkpt>
<trkpt lat="33.810313" lon="-118.393867">
  <ele>-0.127</ele>
  <time>2026-09-01T01:17:31Z</time>
  <course>188.48</course>
  <speed>0.0</speed>
  <fix>3d</fix>
</trkpt>
<trkpt lat="33.810313" lon="-118.393867">
  <ele>-0.12</ele>
  <time>2026-09-01T01:17:31Z</time>
  <course>0.0</course>
  <speed>0.0</speed>
  <fix>3d</fix>
</trkpt>
<trkpt lat="33.810313" lon="-118.393867">
  <ele>-0.127</ele>
  <time>2026-09-01T01:17:31Z</time>
  <course>188.47</course>
  <speed>0.01</speed>
  <fix>3d</fix>
</trkpt>
<trkpt lat="33.810313" lon="-118.393867">
  <ele>-0.12</ele>
  <time>2026-09-01T01:17:31Z</time>
  <course>0.0</course>
  <speed>0.0</speed>
  <fix>3d</fix>
</trkpt>
<trkpt lat="33.810313" lon="-118.393867">
  <ele>-0.127</ele>
  <time>2026-09-01T01:17:31Z</time>
  <course>188.47</course>
  <speed>0.01</speed>
  <fix>3d</fix>
</trkpt>
<trkpt lat="33.810313" lon="-118.393867">
  <ele>-0.12</ele>
  <time>2026-09-01T01:17:31Z</time>
  <course>0.0</course>
  <speed>0.0</speed>
  <fix>3d</fix>
</trkpt>
<trkpt lat="33.810313" lon="-118.393867">
  <ele>-0.126</ele>
  <time>2026-09-01T01:17:31Z</time>
  <course>188.46</course>
  <speed>0.01</speed>
  <fix>3d</fix>
</trkpt>
<trkpt lat="33.810313" lon="-118.393867">
  <ele>-0.12</ele>
  <time>2026-09-01T01:17:31Z</time>
  <course>0.0</course>
  <speed>0.0</speed>
  <fix>3d</fix>
</trkpt>
<trkpt lat="33.810313" lon="-118.393867">
  <ele>-0.126</ele>
  <time>2026-09-01T01:17:31Z</time>
  <course>188.45</course>
  <speed>0.01</speed>
  <fix>3d</fix>
</trkpt>
<trkpt lat="33.810313" lon="-118.393867">
  <ele>-0.12</ele>
  <time>2026-09-01T01:17:31Z</time>
  <course>0.0</course>
  <speed>0.0</speed>
  <fix>3d</fix>
</trkpt>
<trkpt lat="33.810313" lon="-118.393867">
  <ele>-0.126</ele>
  <time>2026-09-01T01:17:31Z</time>
  <course>188.45</course>
  <speed>0.01</speed>
  <fix>3d</fix>
</trkpt>
<trkpt lat="33.810313" lon="-118.393867">
  <ele>-0.12</ele>
  <time>2026-09-01T01:17:31Z</time>
  <course>0.0</course>
  <speed>0.0</speed>
  <fix>3d</fix>
</trkpt>
<trkpt lat="33.810313" lon="-118.393867">
  <ele>-0.125</ele>
  <time>2026-09-01T01:17:31Z</time>
  <course>188.44</course>
  <speed>0.01</speed>
  <fix>3d</fix>
</trkpt>
<trkpt lat="33.810313" lon="-118.393867">
  <ele>-0.12</ele>
  <time>2026-09-01T01:17:31Z</time>
  <course>0.0</course>
  <speed>0.0</speed>
  <fix>3d</fix>
</trkpt>
<trkpt lat="33.810313" lon="-118.393867">
  <ele>-0.126</ele>
  <time>2026-09-01T01:17:31Z</time>
  <course>188.43</course>
  <speed>0.01</speed>
  <fix>3d</fix>
</trkpt>
<trkpt lat="33.810313" lon="-118.393867">
  <ele>-0.12</ele>
  <time>2026-09-01T01:17:31Z</time>
  <course>0.0</course>
  <speed>0.0</speed>
  <fix>3d</fix>
</trkpt>
<trkpt lat="33.810313" lon="-118.393867">
  <ele>-0.127</ele>
  <time>2026-09-01T01:17:31Z</time>
  <course>188.42</course>
  <speed>0.01</speed>
  <fix>3d</fix>
</trkpt>
<trkpt lat="33.810313" lon="-118.393867">
  <ele>-0.12</ele>
  <time>2026-09-01T01:17:31Z</time>
  <course>0.0</course>
  <speed>0.0</speed>
  <fix>3d</fix>
</trkpt>
<trkpt lat="33.810313" lon="-118.393867">
  <ele>-0.128</ele>
  <time>2026-09-01T01:17:31Z</time>
  <course>188.42</course>
  <speed>0.01</speed>
  <fix>3d</fix>
</trkpt>
<trkpt lat="33.810313" lon="-118.393867">
  <ele>-0.12</ele>
  <time>2026-09-01T01:17:31Z</time>
  <course>0.0</course>
  <speed>0.0</speed>
  <fix>3d</fix>
</trkpt>
<trkpt lat="33.810313" lon="-118.393867">
  <ele>-0.129</ele>
  <time>2026-09-01T01:17:31Z</time>
  <course>188.41</course>
  <speed>0.01</speed>
  <fix>3d</fix>
</trkpt>
<trkpt lat="33.810313" lon="-118.393867">
  <ele>-0.12</ele>
  <time>2026-09-01T01:17:31Z</time>
  <course>0.0</course>
  <speed>0.0</speed>
  <fix>3d</fix>
</trkpt>
<trkpt lat="33.810313" lon="-118.393867">
  <ele>-0.129</ele>
  <time>2026-09-01T01:17:31Z</time>
  <course>188.4</course>
  <speed>0.01</speed>
  <fix>3d</fix>
</trkpt>
<trkpt lat="33.810313" lon="-118.393867">
  <ele>-0.12</ele>
  <time>2026-09-01T01:17:31Z</time>
  <course>0.0</course>
  <speed>0.0</speed>
  <fix>3d</fix>
</trkpt>
<trkpt lat="33.810313" lon="-118.393867">
  <ele>-0.13</ele>
  <time>2026-09-01T01:17:31Z</time>
  <course>188.4</course>
  <speed>0.01414213562373095</speed>
  <fix>3d</fix>
</trkpt>
<trkpt lat="33.810313" lon="-118.393867">
  <ele>-0.12</ele>
  <time>2026-09-01T01:17:31Z</time>
  <course>0.0</course>
  <speed>0.0</speed>
  <fix>3d</fix>
</trkpt>
<trkpt lat="33.810313" lon="-118.393867">
  <ele>-0.13</ele>
  <time>2026-09-01T01:17:31Z</time>
  <course>188.39</course>
  <speed>0.01414213562373095</speed>
  <fix>3d</fix>
</trkpt>
<trkpt lat="33.810313" lon="-118.393867">
  <ele>-0.12</ele>
  <time>2026-09-01T01:17:31Z</time>
  <course>0.0</course>
  <speed>0.0</speed>
  <fix>3d</fix>
</trkpt>
<trkpt lat="33.810313" lon="-118.393867">
  <ele>-0.13</ele>
  <time>2026-09-01T01:17:31Z</time>
  <course>188.38</course>
  <speed>0.01414213562373095</speed>
  <fix>3d</fix>
</trkpt>
<trkpt lat="33.810313" lon="-118.393867">
  <ele>-0.12</ele>
  <time>2026-09-01T01:17:31Z</time>
  <course>0.0</course>
  <speed>0.0</speed>
  <fix>3d</fix>
</trkpt>
<trkpt lat="33.810313" lon="-118.393867">
  <ele>-0.129</ele>
  <time>2026-09-01T01:17:31Z</time>
  <course>188.37</course>
  <speed>0.01414213562373095</speed>
  <fix>3d</fix>
</trkpt>
<trkpt lat="33.810313" lon="-118.393867">
  <ele>-0.12</ele>
  <time>2026-09-01T01:17:31Z</time>
  <course>0.0</course>
  <speed>0.0</speed>
  <fix>3d</fix>
</trkpt>
<trkpt lat="33.810313" lon="-118.393867">
  <ele>-0.128</ele>
  <time>2026-09-01T01:17:31Z</time>
  <course>188.37</course>
  <speed>0.01414213562373095</speed>
  <fix>3d</fix>
</trkpt>
<trkpt lat="33.810313" lon="-118.393867">
  <ele>-0.12</ele>
  <time>2026-09-01T01:17:31Z</time>
  <course>0.0</course>
  <speed>0.0</speed>
  <fix>3d</fix>
</trkpt>
<trkpt lat="33.810313" lon="-118.393867">
  <ele>-0.126</ele>
  <time>2026-09-01T01:17:31Z</time>
  <course>188.36</course>
  <speed>0.01414213562373095</speed>
  <fix>3d</fix>
</trkpt>
<trkpt lat="33.810313" lon="-118.393867">
  <ele>-0.12</ele>
  <time>2026-09-01T01:17:31Z</time>
  <course>0.0</course>
  <speed>0.0</speed>
  <fix>3d</fix>
</trkpt>
<trkpt lat="33.810313" lon="-118.393867">
  <ele>-0.124</ele>
  <time>2026-09-01T01:17:31Z</time>
  <course>188.35</course>
  <speed>0.01414213562373095</speed>
  <fix>3d</fix>
</trkpt>
<trkpt lat="33.810313" lon="-118.393867">
  <ele>-0.12</ele>
  <time>2026-09-01T01:17:31Z</time>
  <course>0.0</course>
  <speed>0.0</speed>
  <fix>3d</fix>
</trkpt>
<trkpt lat="33.810313" lon="-118.393867">
  <ele>-0.122</ele>
  <time>2026-09-01T01:17:31Z</time>
  <course>188.34</course>
  <speed>0.01414213562373095</speed>
  <fix>3d</fix>
</trkpt>
<trkpt lat="33.810313" lon="-118.393867">
  <ele>-0.12</ele>
  <time>2026-09-01T01:17:31Z</time>
  <course>0.0</course>
  <speed>0.0</speed>
  <fix>3d</fix>
</trkpt>
<trkpt lat="33.810313" lon="-118.393867">
  <ele>-0.123</ele>
  <time>2026-09-01T01:17:31Z</time>
  <course>188.33</course>
  <speed>0.01414213562373095</speed>
  <fix>3d</fix>
</trkpt>
<trkpt lat="33.810313" lon="-118.393867">
  <ele>-0.12</ele>
  <time>2026-09-01T01:17:31Z</time>
  <course>0.0</course>
  <speed>0.0</speed>
  <fix>3d</fix>
</trkpt>
<trkpt lat="33.810313" lon="-118.393867">
  <ele>-0.125</ele>
  <time>2026-09-01T01:17:31Z</time>
  <course>188.33</course>
  <speed>0.01414213562373095</speed>
  <fix>3d</fix>
</trkpt>
<trkpt lat="33.810313" lon="-118.393867">
  <ele>-0.12</ele>
  <time>2026-09-01T01:17:31Z</time>
  <course>0.0</course>
  <speed>0.0</speed>
  <fix>3d</fix>
</trkpt>
<trkpt lat="33.810313" lon="-118.393867">
  <ele>-0.128</ele>
  <time>2026-09-01T01:17:31Z</time>
  <course>188.32</course>
  <speed>0.01414213562373095</speed>
  <fix>3d</fix>
</trkpt>
<trkpt lat="33.810313" lon="-118.393867">
  <ele>-0.12</ele>
  <time>2026-09-01T01:17:31Z</time>
  <course>0.0</course>
  <speed>0.0</speed>
  <fix>3d</fix>
</trkpt>
<trkpt lat="33.810313" lon="-118.393867">
  <ele>-0.132</ele>
  <time>2026-09-01T01:17:31Z</time>
  <course>188.31</course>
  <speed>0.01414213562373095</speed>
  <fix>3d</fix>
</trkpt>
<trkpt lat="33.810313" lon="-118.393867">
  <ele>-0.12</ele>
  <time>2026-09-01T01:17:31Z</time>
  <course>0.0</course>
  <speed>0.0</speed>
  <fix>3d</fix>
</trkpt>
<trkpt lat="33.810313" lon="-118.393867">
  <ele>-0.135</ele>
  <time>2026-09-01T01:17:31Z</time>
  <course>188.3</course>
  <speed>0.01414213562373095</speed>
  <fix>3d</fix>
</trkpt>
<trkpt lat="33.810313" lon="-118.393867">
  <ele>-0.12</ele>
  <time>2026-09-01T01:17:31Z</time>
  <course>0.0</course>
  <speed>0.0</speed>
  <fix>3d</fix>
</trkpt>
<trkpt lat="33.810313" lon="-118.393867">
  <ele>-0.135</ele>
  <time>2026-09-01T01:17:31Z</time>
  <course>188.3</course>
  <speed>0.01414213562373095</speed>
  <fix>3d</fix>
</trkpt>
<trkpt lat="33.810313" lon="-118.393867">
  <ele>-0.12</ele>
  <time>2026-09-01T01:17:31Z</time>
  <course>0.0</course>
  <speed>0.0</speed>
  <fix>3d</fix>
</trkpt>
<trkpt lat="33.810313" lon="-118.393867">
  <ele>-0.134</ele>
  <time>2026-09-01T01:17:31Z</time>
  <course>188.29</course>
  <speed>0.01414213562373095</speed>
  <fix>3d</fix>
</trkpt>
<trkpt lat="33.810313" lon="-118.393867">
  <ele>-0.12</ele>
  <time>2026-09-01T01:17:31Z</time>
  <course>0.0</course>
  <speed>0.0</speed>
  <fix>3d</fix>
</trkpt>
<trkpt lat="33.810313" lon="-118.393867">
  <ele>-0.132</ele>
  <time>2026-09-01T01:17:31Z</time>
  <course>188.28</course>
  <speed>0.01414213562373095</speed>
  <fix>3d</fix>
</trkpt>
<trkpt lat="33.810313" lon="-118.393867">
  <ele>-0.12</ele>
  <time>2026-09-01T01:17:31Z</time>
  <course>0.0</course>
  <speed>0.0</speed>
  <fix>3d</fix>
</trkpt>
<trkpt lat="33.810313" lon="-118.393867">
  <ele>-0.129</ele>
  <time>2026-09-01T01:17:31Z</time>
  <course>188.27</course>
  <speed>0.01414213562373095</speed>
  <fix>3d</fix>
</trkpt>
<trkpt lat="33.810313" lon="-118.393867">
  <ele>-0.12</ele>
  <time>2026-09-01T01:17:31Z</time>
  <course>0.0</course>
  <speed>0.0</speed>
  <fix>3d</fix>
</trkpt>
<trkpt lat="33.810313" lon="-118.393867">
  <ele>-0.127</ele>
  <time>2026-09-01T01:17:31Z</time>
  <course>188.26</course>
  <speed>0.01414213562373095</speed>
  <fix>3d</fix>
</trkpt>
<trkpt lat="33.810313" lon="-118.393867">
  <ele>-0.12</ele>
  <time>2026-09-01T01:17:31Z</time>
  <course>0.0</course>
  <speed>0.0</speed>
  <fix>3d</fix>
</trkpt>
<trkpt lat="33.810313" lon="-118.393867">
  <ele>-0.124</ele>
  <time>2026-09-01T01:17:31Z</time>
  <course>188.25</course>
  <speed>0.01414213562373095</speed>
  <fix>3d</fix>
</trkpt>
<trkpt lat="33.810313" lon="-118.393867">
  <ele>-0.12</ele>
  <time>2026-09-01T01:17:31Z</time>
  <course>0.0</course>
  <speed>0.0</speed>
  <fix>3d</fix>
</trkpt>
<trkpt lat="33.810313" lon="-118.393867">
  <ele>-0.123</ele>
  <time>2026-09-01T01:17:31Z</time>
  <course>188.25</course>
  <speed>0.01414213562373095</speed>
  <fix>3d</fix>
</trkpt>
<trkpt lat="33.810313" lon="-118.393867">
  <ele>-0.12</ele>
  <time>2026-09-01T01:17:31Z</time>
  <course>0.0</course>
  <speed>0.0</speed>
  <fix>3d</fix>
</trkpt>
<trkpt lat="33.810313" lon="-118.393867">
  <ele>-0.124</ele>
  <time>2026-09-01T01:17:31Z</time>
  <course>188.24</course>
  <speed>0.01414213562373095</speed>
  <fix>3d</fix>
</trkpt>
<trkpt lat="33.810313" lon="-118.393867">
  <ele>-0.12</ele>
  <time>2026-09-01T01:17:31Z</time>
  <course>0.0</course>
  <speed>0.0</speed>
  <fix>3d</fix>
</trkpt>
<trkpt lat="33.810313" lon="-118.393867">
  <ele>-0.126</ele>
  <time>2026-09-01T01:17:31Z</time>
  <course>188.23</course>
  <speed>0.01414213562373095</speed>
  <fix>3d</fix>
</trkpt>
<trkpt lat="33.810313" lon="-118.393867">
  <ele>-0.12</ele>
  <time>2026-09-01T01:17:31Z</time>
  <course>0.0</course>
  <speed>0.0</speed>
  <fix>3d</fix>
</trkpt>
<trkpt lat="33.810313" lon="-118.393867">
  <ele>-0.127</ele>
  <time>2026-09-01T01:17:31Z</time>
  <course>188.22</course>
  <speed>0.01414213562373095</speed>
  <fix>3d</fix>
</trkpt>
<trkpt lat="33.810313" lon="-118.393867">
  <ele>-0.12</ele>
  <time>2026-09-01T01:17:31Z</time>
  <course>0.0</course>
  <speed>0.0</speed>
  <fix>3d</fix>
</trkpt>
<trkpt lat="33.810313" lon="-118.393867">
  <ele>-0.129</ele>
  <time>2026-09-01T01:17:31Z</time>
  <course>188.21</course>
  <speed>0.01414213562373095</speed>
  <fix>3d</fix>
</trkpt>
<trkpt lat="33.810313" lon="-118.393867">
  <ele>-0.12</ele>
  <time>2026-09-01T01:17:31Z</time>
  <course>0.0</course>
  <speed>0.0</speed>
  <fix>3d</fix>
</trkpt>
<trkpt lat="33.810313" lon="-118.393867">
  <ele>-0.129</ele>
  <time>2026-09-01T01:17:31Z</time>
  <course>188.21</course>
  <speed>0.01414213562373095</speed>
  <fix>3d</fix>
</trkpt>
<trkpt lat="33.810313" lon="-118.393867">
  <ele>-0.12</ele>
  <time>2026-09-01T01:17:31Z</time>
  <course>0.0</course>
  <speed>0.0</speed>
  <fix>3d</fix>
</trkpt>
<trkpt lat="33.810313" lon="-118.393867">
  <ele>-0.129</ele>
  <time>2026-09-01T01:17:31Z</time>
  <course>188.2</course>
  <speed>0.01414213562373095</speed>
  <fix>3d</fix>
</trkpt>
<trkpt lat="33.810313" lon="-118.393867">
  <ele>-0.12</ele>
  <time>2026-09-01T01:17:31Z</time>
  <course>0.0</course>
  <speed>0.0</speed>
  <fix>3d</fix>
</trkpt>
<trkpt lat="33.810313" lon="-118.393867">
  <ele>-0.128</ele>
  <time>2026-09-01T01:17:31Z</time>
  <course>188.19</course>
  <speed>0.01414213562373095</speed>
  <fix>3d</fix>
</trkpt>
<trkpt lat="33.810313" lon="-118.393867">
  <ele>-0.12</ele>
  <time>2026-09-01T01:17:31Z</time>
  <course>0.0</course>
  <speed>0.0</speed>
  <fix>3d</fix>
</trkpt>
<trkpt lat="33.810313" lon="-118.393867">
  <ele>-0.128</ele>
  <time>2026-09-01T01:17:31Z</time>
  <course>188.18</course>
  <speed>0.01414213562373095</speed>
  <fix>3d</fix>
</trkpt>
<trkpt lat="33.810313" lon="-118.393867">
  <ele>-0.12</ele>
  <time>2026-09-01T01:17:31Z</time>
  <course>0.0</course>
  <speed>0.0</speed>
  <fix>3d</fix>
</trkpt>
<trkpt lat="33.810313" lon="-118.393867">
  <ele>-0.127</ele>
  <time>2026-09-01T01:17:31Z</time>
  <course>188.17</course>
  <speed>0.01414213562373095</speed>
  <fix>3d</fix>
</trkpt>
<trkpt lat="33.810313" lon="-118.393867">
  <ele>-0.12</ele>
  <time>2026-09-01T01:17:31Z</time>
  <course>0.0</course>
  <speed>0.0</speed>
  <fix>3d</fix>
</trkpt>
<trkpt lat="33.810313" lon="-118.393867">
  <ele>-0.127</ele>
  <time>2026-09-01T01:17:31Z</time>
  <course>188.16</course>
  <speed>0.01414213562373095</speed>
  <fix>3d</fix>
</trkpt>
<trkpt lat="33.810313" lon="-118.393867">
  <ele>-0.12</ele>
  <time>2026-09-01T01:17:31Z</time>
  <course>0.0</course>
  <speed>0.0</speed>
  <fix>3d</fix>
</trkpt>
<trkpt lat="33.810313" lon="-118.393867">
  <ele>-0.128</ele>
  <time>2026-09-01T01:17:31Z</time>
  <course>188.16</course>
  <speed>0.01414213562373095</speed>
  <fix>3d</fix>
</trkpt>
<trkpt lat="33.810313" lon="-118.393867">
  <ele>-0.12</ele>
  <time>2026-09-01T01:17:31Z</time>
  <course>0.0</course>
  <speed>0.0</speed>
  <fix>3d</fix>
</trkpt>
<trkpt lat="33.810313" lon="-118.393867">
  <ele>-0.129</ele>
  <time>2026-09-01T01:17:31Z</time>
  <course>188.15</course>
  <speed>0.01414213562373095</speed>
  <fix>3d</fix>
</trkpt>
<trkpt lat="33.810313" lon="-118.393867">
  <ele>-0.12</ele>
  <time>2026-09-01T01:17:31Z</time>
  <course>0.0</course>
  <speed>0.0</speed>
  <fix>3d</fix>
</trkpt>
<trkpt lat="33.810313" lon="-118.393867">
  <ele>-0.131</ele>
  <time>2026-09-01T01:17:31Z</time>
  <course>188.14</course>
  <speed>0.01414213562373095</speed>
  <fix>3d</fix>
</trkpt>
<trkpt lat="33.810313" lon="-118.393867">
  <ele>-0.12</ele>
  <time>2026-09-01T01:17:31Z</time>
  <course>0.0</course>
  <speed>0.0</speed>
  <fix>3d</fix>
</trkpt>
<trkpt lat="33.810313" lon="-118.393867">
  <ele>-0.133</ele>
  <time>2026-09-01T01:17:31Z</time>
  <course>188.13</course>
  <speed>0.01414213562373095</speed>
  <fix>3d</fix>
</trkpt>
<trkpt lat="33.810313" lon="-118.393867">
  <ele>-0.12</ele>
  <time>2026-09-01T01:17:31Z</time>
  <course>0.0</course>
  <speed>0.0</speed>
  <fix>3d</fix>
</trkpt>
<trkpt lat="33.810313" lon="-118.393867">
  <ele>-0.135</ele>
  <time>2026-09-01T01:17:31Z</time>
  <course>188.12</course>
  <speed>0.01414213562373095</speed>
  <fix>3d</fix>
</trkpt>
<trkpt lat="33.810313" lon="-118.393867">
  <ele>-0.12</ele>
  <time>2026-09-01T01:17:31Z</time>
  <course>0.0</course>
  <speed>0.0</speed>
  <fix>3d</fix>
</trkpt>
<trkpt lat="33.810313" lon="-118.393867">
  <ele>-0.136</ele>
  <time>2026-09-01T01:17:31Z</time>
  <course>188.12</course>
  <speed>0.01414213562373095</speed>
  <fix>3d</fix>
</trkpt>
<trkpt lat="33.810313" lon="-118.393867">
  <ele>-0.12</ele>
  <time>2026-09-01T01:17:31Z</time>
  <course>0.0</course>
  <speed>0.0</speed>
  <fix>3d</fix>
</trkpt>
<trkpt lat="33.810313" lon="-118.393867">
  <ele>-0.136</ele>
  <time>2026-09-01T01:17:31Z</time>
  <course>188.11</course>
  <speed>0.01414213562373095</speed>
  <fix>3d</fix>
</trkpt>
<trkpt lat="33.810313" lon="-118.393867">
  <ele>-0.12</ele>
  <time>2026-09-01T01:17:31Z</time>
  <course>0.0</course>
  <speed>0.0</speed>
  <fix>3d</fix>
</trkpt>
<trkpt lat="33.810313" lon="-118.393867">
  <ele>-0.136</ele>
  <time>2026-09-01T01:17:31Z</time>
  <course>188.1</course>
  <speed>0.01414213562373095</speed>
  <fix>3d</fix>
</trkpt>
<trkpt lat="33.810313" lon="-118.393867">
  <ele>-0.12</ele>
  <time>2026-09-01T01:17:31Z</time>
  <course>0.0</course>
  <speed>0.0</speed>
  <fix>3d</fix>
</trkpt>
<trkpt lat="33.810313" lon="-118.393867">
  <ele>-0.135</ele>
  <time>2026-09-01T01:17:31Z</time>
  <course>188.09</course>
  <speed>0.01414213562373095</speed>
  <fix>3d</fix>
</trkpt>
<trkpt lat="33.810313" lon="-118.393867">
  <ele>-0.12</ele>
  <time>2026-09-01T01:17:31Z</time>
  <course>0.0</course>
  <speed>0.0</speed>
  <fix>3d</fix>
</trkpt>
<trkpt lat="33.810313" lon="-118.393867">
  <ele>-0.134</ele>
  <time>2026-09-01T01:17:31Z</time>
  <course>188.08</course>
  <speed>0.01414213562373095</speed>
  <fix>3d</fix>
</trkpt>
<trkpt lat="33.810313" lon="-118.393867">
  <ele>-0.12</ele>
  <time>2026-09-01T01:17:31Z</time>
  <course>0.0</course>
  <speed>0.0</speed>
  <fix>3d</fix>
</trkpt>
<trkpt lat="33.810313" lon="-118.393867">
  <ele>-0.131</ele>
  <time>2026-09-01T01:17:31Z</time>
  <course>188.07</course>
  <speed>0.022360679774997897</speed>
  <fix>3d</fix>
</trkpt>
<trkpt lat="33.810313" lon="-118.393867">
  <ele>-0.12</ele>
  <time>2026-09-01T01:17:31Z</time>
  <course>0.0</course>
  <speed>0.0</speed>
  <fix>3d</fix>
</trkpt>
<trkpt lat="33.810313" lon="-118.393867">
  <ele>-0.128</ele>
  <time>2026-09-01T01:17:31Z</time>
  <course>188.07</course>
  <speed>0.022360679774997897</speed>
  <fix>3d</fix>
</trkpt>
<trkpt lat="33.810313" lon="-118.393867">
  <ele>-0.12</ele>
  <time>2026-09-01T01:17:31Z</time>
  <course>0.0</course>
  <speed>0.0</speed>
  <fix>3d</fix>
</trkpt>
<trkpt lat="33.810313" lon="-118.393867">
  <ele>-0.126</ele>
  <time>2026-09-01T01:17:31Z</time>
  <course>188.06</course>
  <speed>0.022360679774997897</speed>
  <fix>3d</fix>
</trkpt>
<trkpt lat="33.810313" lon="-118.393867">
  <ele>-0.12</ele>
  <time>2026-09-01T01:17:31Z</time>
  <course>0.0</course>
  <speed>0.0</speed>
  <fix>3d</fix>
</trkpt>
<trkpt lat="33.810313" lon="-118.393867">
  <ele>-0.126</ele>
  <time>2026-09-01T01:17:31Z</time>
  <course>188.05</course>
  <speed>0.022360679774997897</speed>
  <fix>3d</fix>
</trkpt>
<trkpt lat="33.810313" lon="-118.393867">
  <ele>-0.12</ele>
  <time>2026-09-01T01:17:31Z</time>
  <course>0.0</course>
  <speed>0.0</speed>
  <fix>3d</fix>
</trkpt>
<trkpt lat="33.810313" lon="-118.393867">
  <ele>-0.126</ele>
  <time>2026-09-01T01:17:31Z</time>
  <course>188.04</course>
  <speed>0.022360679774997897</speed>
  <fix>3d</fix>
</trkpt>
<trkpt lat="33.810313" lon="-118.393867">
  <ele>-0.12</ele>
  <time>2026-09-01T01:17:31Z</time>
  <course>0.0</course>
  <speed>0.0</speed>
  <fix>3d</fix>
</trkpt>
<trkpt lat="33.810313" lon="-118.393867">
  <ele>-0.127</ele>
  <time>2026-09-01T01:17:31Z</time>
  <course>188.03</course>
  <speed>0.022360679774997897</speed>
  <fix>3d</fix>
</trkpt>
<trkpt lat="33.810313" lon="-118.393867">
  <ele>-0.12</ele>
  <time>2026-09-01T01:17:31Z</time>
  <course>0.0</course>
  <speed>0.0</speed>
  <fix>3d</fix>
</trkpt>
<trkpt lat="33.810313" lon="-118.393867">
  <ele>-0.127</ele>
  <time>2026-09-01T01:17:31Z</time>
  <course>188.03</course>
  <speed>0.022360679774997897</speed>
  <fix>3d</fix>
</trkpt>
<trkpt lat="33.810313" lon="-118.393867">
  <ele>-0.12</ele>
  <time>2026-09-01T01:17:31Z</time>
  <course>0.0</course>
  <speed>0.0</speed>
  <fix>3d</fix>
</trkpt>
<trkpt lat="33.810313" lon="-118.393867">
  <ele>-0.127</ele>
  <time>2026-09-01T01:17:31Z</time>
  <course>188.02</course>
  <speed>0.022360679774997897</speed>
  <fix>3d</fix>
</trkpt>
<trkpt lat="33.810313" lon="-118.393867">
  <ele>-0.12</ele>
  <time>2026-09-01T01:17:31Z</time>
  <course>0.0</course>
  <speed>0.0</speed>
  <fix>3d</fix>
</trkpt>
<trkpt lat="33.810313" lon="-118.393867">
  <ele>-0.128</ele>
  <time>2026-09-01T01:17:31Z</time>
  <course>188.01</course>
  <speed>0.022360679774997897</speed>
  <fix>3d</fix>
</trkpt>
<trkpt lat="33.810313" lon="-118.393867">
  <ele>-0.12</ele>
  <time>2026-09-01T01:17:31Z</time>
  <course>0.0</course>
  <speed>0.0</speed>
  <fix>3d</fix>
</trkpt>
<trkpt lat="33.810313" lon="-118.393867">
  <ele>-0.128</ele>
  <time>2026-09-01T01:17:31Z</time>
  <course>188.0</course>
  <speed>0.022360679774997897</speed>
  <fix>3d</fix>
</trkpt>
<trkpt lat="33.810313" lon="-118.393867">
  <ele>-0.12</ele>
  <time>2026-09-01T01:17:31Z</time>
  <course>0.0</course>
  <speed>0.0</speed>
  <fix>3d</fix>
</trkpt>
<trkpt lat="33.810313" lon="-118.393867">
  <ele>-0.127</ele>
  <time>2026-09-01T01:17:31Z</time>
  <course>187.99</course>
  <speed>0.022360679774997897</speed>
  <fix>3d</fix>
</trkpt>
<trkpt lat="33.810313" lon="-118.393867">
  <ele>-0.12</ele>
  <time>2026-09-01T01:17:31Z</time>
  <course>0.0</course>
  <speed>0.0</speed>
  <fix>3d</fix>
</trkpt>
<trkpt lat="33.810313" lon="-118.393867">
  <ele>-0.126</ele>
  <time>2026-09-01T01:17:31Z</time>
  <course>187.98</course>
  <speed>0.022360679774997897</speed>
  <fix>3d</fix>
</trkpt>
<trkpt lat="33.810313" lon="-118.393867">
  <ele>-0.12</ele>
  <time>2026-09-01T01:17:31Z</time>
  <course>0.0</course>
  <speed>0.0</speed>
  <fix>3d</fix>
</trkpt>
<trkpt lat="33.810313" lon="-118.393867">
  <ele>-0.123</ele>
  <time>2026-09-01T01:17:31Z</time>
  <course>187.98</course>
  <speed>0.022360679774997897</speed>
  <fix>3d</fix>
</trkpt>
<trkpt lat="33.810313" lon="-118.393867">
  <ele>-0.12</ele>
  <time>2026-09-01T01:17:31Z</time>
  <course>0.0</course>
  <speed>0.0</speed>
  <fix>3d</fix>
</trkpt>
<trkpt lat="33.810313" lon="-118.393867">
  <ele>-0.121</ele>
  <time>2026-09-01T01:17:31Z</time>
  <course>187.97</course>
  <speed>0.022360679774997897</speed>
  <fix>3d</fix>
</trkpt>
<trkpt lat="33.810313" lon="-118.393867">
  <ele>-0.12</ele>
  <time>2026-09-01T01:17:31Z</time>
  <course>0.0</course>
  <speed>0.0</speed>
  <fix>3d</fix>
</trkpt>
<trkpt lat="33.810313" lon="-118.393867">
  <ele>-0.12</ele>
  <time>2026-09-01T01:17:31Z</time>
  <course>187.96</course>
  <speed>0.022360679774997897</speed>
  <fix>3d</fix>
</trkpt>
<trkpt lat="33.810313" lon="-118.393867">
  <ele>-0.12</ele>
  <time>2026-09-01T01:17:31Z</time>
  <course>0.0</course>
  <speed>0.0</speed>
  <fix>3d</fix>
</trkpt>
<trkpt lat="33.810313" lon="-118.393867">
  <ele>-0.12</ele>
  <time>2026-09-01T01:17:31Z</time>
  <course>187.95</course>
  <speed>0.022360679774997897</speed>
  <fix>3d</fix>
</trkpt>
<trkpt lat="33.810313" lon="-118.393867">
  <ele>-0.12</ele>
  <time>2026-09-01T01:17:31Z</time>
  <course>0.0</course>
  <speed>0.0</speed>
  <fix>3d</fix>
</trkpt>
<trkpt lat="33.810313" lon="-118.393867">
  <ele>-0.122</ele>
  <time>2026-09-01T01:17:31Z</time>
  <course>187.94</course>
  <speed>0.022360679774997897</speed>
  <fix>3d</fix>
</trkpt>
<trkpt lat="33.810313" lon="-118.393867">
  <ele>-0.12</ele>
  <time>2026-09-01T01:17:31Z</time>
  <course>0.0</course>
  <speed>0.0</speed>
  <fix>3d</fix>
</trkpt>
<trkpt lat="33.810313" lon="-118.393867">
  <ele>-0.125</ele>
  <time>2026-09-01T01:17:31Z</time>
  <course>187.94</course>
  <speed>0.022360679774997897</speed>
  <fix>3d</fix>
</trkpt>
<trkpt lat="33.810313" lon="-118.393867">
  <ele>-0.12</ele>
  <time>2026-09-01T01:17:31Z</time>
  <course>0.0</course>
  <speed>0.0</speed>
  <fix>3d</fix>
</trkpt>
<trkpt lat="33.810313" lon="-118.393867">
  <ele>-0.129</ele>
  <time>2026-09-01T01:17:31Z</time>
  <course>187.93</course>
  <speed>0.022360679774997897</speed>
  <fix>3d</fix>
</trkpt>
<trkpt lat="33.810313" lon="-118.393867">
  <ele>-0.12</ele>
  <time>2026-09-01T01:17:31Z</time>
  <course>0.0</course>
  <speed>0.0</speed>
  <fix>3d</fix>
</trkpt>
<trkpt lat="33.810313" lon="-118.393867">
  <ele>-0.131</ele>
  <time>2026-09-01T01:17:31Z</time>
  <course>187.92</course>
  <speed>0.022360679774997897</speed>
  <fix>3d</fix>
</trkpt>
<trkpt lat="33.810313" lon="-118.393867">
  <ele>-0.12</ele>
  <time>2026-09-01T01:17:31Z</time>
  <course>0.0</course>
  <speed>0.0</speed>
  <fix>3d</fix>
</trkpt>
<trkpt lat="33.810313" lon="-118.393867">
  <ele>-0.132</ele>
  <time>2026-09-01T01:17:31Z</time>
  <course>187.91</course>
  <speed>0.022360679774997897</speed>
  <fix>3d</fix>
</trkpt>
<trkpt lat="33.810313" lon="-118.393867">
  <ele>-0.12</ele>
  <time>2026-09-01T01:17:31Z</time>
  <course>0.0</course>
  <speed>0.0</speed>
  <fix>3d</fix>
</trkpt>
<trkpt lat="33.810313" lon="-118.393867">
  <ele>-0.132</ele>
  <time>2026-09-01T01:17:31Z</time>
  <course>187.9</course>
  <speed>0.022360679774997897</speed>
  <fix>3d</fix>
</trkpt>
<trkpt lat="33.810313" lon="-118.393867">
  <ele>-0.12</ele>
  <time>2026-09-01T01:17:31Z</time>
  <course>0.0</course>
  <speed>0.0</speed>
  <fix>3d</fix>
</trkpt>
<trkpt lat="33.810313" lon="-118.393867">
  <ele>-0.132</ele>
  <time>2026-09-01T01:17:31Z</time>
  <course>187.9</course>
  <speed>0.022360679774997897</speed>
  <fix>3d</fix>
</trkpt>
<trkpt lat="33.810313" lon="-118.393867">
  <ele>-0.12</ele>
  <time>2026-09-01T01:17:31Z</time>
  <course>0.0</course>
  <speed>0.0</speed>
  <fix>3d</fix>
</trkpt>
<trkpt lat="33.810313" lon="-118.393867">
  <ele>-0.13</ele>
  <time>2026-09-01T01:17:31Z</time>
  <course>187.89</course>
  <speed>0.022360679774997897</speed>
  <fix>3d</fix>
</trkpt>
<trkpt lat="33.810313" lon="-118.393867">
  <ele>-0.12</ele>
  <time>2026-09-01T01:17:31Z</time>
  <course>0.0</course>
  <speed>0.0</speed>
  <fix>3d</fix>
</trkpt>
<trkpt lat="33.810313" lon="-118.393867">
  <ele>-0.127</ele>
  <time>2026-09-01T01:17:31Z</time>
  <course>187.88</course>
  <speed>0.022360679774997897</speed>
  <fix>3d</fix>
</trkpt>
<trkpt lat="33.810313" lon="-118.393867">
  <ele>-0.12</ele>
  <time>2026-09-01T01:17:31Z</time>
  <course>0.0</course>
  <speed>0.0</speed>
  <fix>3d</fix>
</trkpt>
<trkpt lat="33.810313" lon="-118.393867">
  <ele>-0.123</ele>
  <time>2026-09-01T01:17:31Z</time>
  <course>187.87</course>
  <speed>0.022360679774997897</speed>
  <fix>3d</fix>
</trkpt>
<trkpt lat="33.810313" lon="-118.393867">
  <ele>-0.12</ele>
  <time>2026-09-01T01:17:31Z</time>
  <course>0.0</course>
  <speed>0.0</speed>
  <fix>3d</fix>
</trkpt>
<trkpt lat="33.810313" lon="-118.393867">
  <ele>-0.121</ele>
  <time>2026-09-01T01:17:31Z</time>
  <course>187.87</course>
  <speed>0.022360679774997897</speed>
  <fix>3d</fix>
</trkpt>
<trkpt lat="33.810313" lon="-118.393867">
  <ele>-0.12</ele>
  <time>2026-09-01T01:17:31Z</time>
  <course>0.0</course>
  <speed>0.0</speed>
  <fix>3d</fix>
</trkpt>
<trkpt lat="33.810313" lon="-118.393867">
  <ele>-0.121</ele>
  <time>2026-09-01T01:17:31Z</time>
  <course>187.86</course>
  <speed>0.022360679774997897</speed>
  <fix>3d</fix>
</trkpt>
<trkpt lat="33.810313" lon="-118.393867">
  <ele>-0.12</ele>
  <time>2026-09-01T01:17:31Z</time>
  <course>0.0</course>
  <speed>0.0</speed>
  <fix>3d</fix>
</trkpt>
<trkpt lat="33.810313" lon="-118.393867">
  <ele>-0.123</ele>
  <time>2026-09-01T01:17:31Z</time>
  <course>187.85</course>
  <speed>0.022360679774997897</speed>
  <fix>3d</fix>
</trkpt>
<trkpt lat="33.810313" lon="-118.393867">
  <ele>-0.12</ele>
  <time>2026-09-01T01:17:31Z</time>
  <course>0.0</course>
  <speed>0.0</speed>
  <fix>3d</fix>
</trkpt>
<trkpt lat="33.810313" lon="-118.393867">
  <ele>-0.124</ele>
  <time>2026-09-01T01:17:31Z</time>
  <course>187.84</course>
  <speed>0.022360679774997897</speed>
  <fix>3d</fix>
</trkpt>
<trkpt lat="33.810313" lon="-118.393867">
  <ele>-0.12</ele>
  <time>2026-09-01T01:17:31Z</time>
  <course>0.0</course>
  <speed>0.0</speed>
  <fix>3d</fix>
</trkpt>
<trkpt lat="33.810313" lon="-118.393867">
  <ele>-0.126</ele>
  <time>2026-09-01T01:17:31Z</time>
  <course>187.83</course>
  <speed>0.022360679774997897</speed>
  <fix>3d</fix>
</trkpt>
<trkpt lat="33.810313" lon="-118.393867">
  <ele>-0.12</ele>
  <time>2026-09-01T01:17:31Z</time>
  <course>0.0</course>
  <speed>0.0</speed>
  <fix>3d</fix>
</trkpt>
<trkpt lat="33.810313" lon="-118.393867">
  <ele>-0.127</ele>
  <time>2026-09-01T01:17:31Z</time>
  <course>187.83</course>
  <speed>0.022360679774997897</speed>
  <fix>3d</fix>
</trkpt>
<trkpt lat="33.810313" lon="-118.393867">
  <ele>-0.12</ele>
  <time>2026-09-01T01:17:31Z</time>
  <course>0.0</course>
  <speed>0.0</speed>
  <fix>3d</fix>
</trkpt>
<trkpt lat="33.810313" lon="-118.393867">
  <ele>-0.127</ele>
  <time>2026-09-01T01:17:31Z</time>
  <course>187.82</course>
  <speed>0.022360679774997897</speed>
  <fix>3d</fix>
</trkpt>
<trkpt lat="33.810313" lon="-118.393867">
  <ele>-0.12</ele>
  <time>2026-09-01T01:17:31Z</time>
  <course>0.0</course>
  <speed>0.0</speed>
  <fix>3d</fix>
</trkpt>
<trkpt lat="33.810313" lon="-118.393867">
  <ele>-0.127</ele>
  <time>2026-09-01T01:17:31Z</time>
  <course>187.81</course>
  <speed>0.022360679774997897</speed>
  <fix>3d</fix>
</trkpt>
<trkpt lat="33.810313" lon="-118.393867">
  <ele>-0.12</ele>
  <time>2026-09-01T01:17:31Z</time>
  <course>0.0</course>
  <speed>0.0</speed>
  <fix>3d</fix>
</trkpt>
<trkpt lat="33.810313" lon="-118.393867">
  <ele>-0.126</ele>
  <time>2026-09-01T01:17:31Z</time>
  <course>187.8</course>
  <speed>0.022360679774997897</speed>
  <fix>3d</fix>
</trkpt>
<trkpt lat="33.810313" lon="-118.393867">
  <ele>-0.12</ele>
  <time>2026-09-01T01:17:31Z</time>
  <course>0.0</course>
  <speed>0.0</speed>
  <fix>3d</fix>
</trkpt>
<trkpt lat="33.810313" lon="-118.393867">
  <ele>-0.124</ele>
  <time>2026-09-01T01:17:31Z</time>
  <course>187.8</course>
  <speed>0.022360679774997897</speed>
  <fix>3d</fix>
</trkpt>
<trkpt lat="33.810313" lon="-118.393867">
  <ele>-0.12</ele>
  <time>2026-09-01T01:17:31Z</time>
  <course>0.0</course>
  <speed>0.0</speed>
  <fix>3d</fix>
</trkpt>
<trkpt lat="33.810313" lon="-118.393867">
  <ele>-0.121</ele>
  <time>2026-09-01T01:17:31Z</time>
  <course>187.79</course>
  <speed>0.022360679774997897</speed>
  <fix>3d</fix>
</trkpt>
<trkpt lat="33.810313" lon="-118.393867">
  <ele>-0.12</ele>
  <time>2026-09-01T01:17:31Z</time>
  <course>0.0</course>
  <speed>0.0</speed>
  <fix>3d</fix>
</trkpt>
<trkpt lat="33.810313" lon="-118.393867">
  <ele>-0.119</ele>
  <time>2026-09-01T01:17:31Z</time>
  <course>187.78</course>
  <speed>0.022360679774997897</speed>
  <fix>3d</fix>
</trkpt>
<trkpt lat="33.810313" lon="-118.393867">
  <ele>-0.12</ele>
  <time>2026-09-01T01:17:31Z</time>
  <course>0.0</course>
  <speed>0.0</speed>
  <fix>3d</fix>
</trkpt>
<trkpt lat="33.810313" lon="-118.393867">
  <ele>-0.118</ele>
  <time>2026-09-01T01:17:31Z</time>
  <course>187.77</course>
  <speed>0.022360679774997897</speed>
  <fix>3d</fix>
</trkpt>
<trkpt lat="33.810313" lon="-118.393867">
  <ele>-0.12</ele>
  <time>2026-09-01T01:17:31Z</time>
  <course>0.0</course>
  <speed>0.0</speed>
  <fix>3d</fix>
</trkpt>
<trkpt lat="33.810313" lon="-118.393867">
  <ele>-0.118</ele>
  <time>2026-09-01T01:17:31Z</time>
  <course>187.76</course>
  <speed>0.022360679774997897</speed>
  <fix>3d</fix>
</trkpt>
<trkpt lat="33.810313" lon="-118.393867">
  <ele>-0.12</ele>
  <time>2026-09-01T01:17:31Z</time>
  <course>0.0</course>
  <speed>0.0</speed>
  <fix>3d</fix>
</trkpt>
<trkpt lat="33.810313" lon="-118.393867">
  <ele>-0.119</ele>
  <time>2026-09-01T01:17:31Z</time>
  <course>187.76</course>
  <speed>0.022360679774997897</speed>
  <fix>3d</fix>
</trkpt>
<trkpt lat="33.810313" lon="-118.393867">
  <ele>-0.12</ele>
  <time>2026-09-01T01:17:31Z</time>
  <course>0.0</course>
  <speed>0.0</speed>
  <fix>3d</fix>
</trkpt>
<trkpt lat="33.810313" lon="-118.393867">
  <ele>-0.12</ele>
  <time>2026-09-01T01:17:31Z</time>
  <course>187.75</course>
  <speed>0.022360679774997897</speed>
  <fix>3d</fix>
</trkpt>
<trkpt lat="33.810313" lon="-118.393867">
  <ele>-0.12</ele>
  <time>2026-09-01T01:17:31Z</time>
  <course>0.0</course>
  <speed>0.0</speed>
  <fix>3d</fix>
</trkpt>
<trkpt lat="33.810313" lon="-118.393867">
  <ele>-0.12</ele>
  <time>2026-09-01T01:17:31Z</time>
  <course>187.74</course>
  <speed>0.0282842712474619</speed>
  <fix>3d</fix>
</trkpt>
<trkpt lat="33.810313" lon="-118.393867">
  <ele>-0.12</ele>
  <time>2026-09-01T01:17:31Z</time>
  <course>0.0</course>
  <speed>0.0</speed>
  <fix>3d</fix>
</trkpt>
<trkpt lat="33.810313" lon="-118.393867">
  <ele>-0.12</ele>
  <time>2026-09-01T01:17:31Z</time>
  <course>187.74</course>
  <speed>0.0282842712474619</speed>
  <fix>3d</fix>
</trkpt>
<trkpt lat="33.810313" lon="-118.393867">
  <ele>-0.12</ele>
  <time>2026-09-01T01:17:31Z</time>
  <course>0.0</course>
  <speed>0.0</speed>
  <fix>3d</fix>
</trkpt>
<trkpt lat="33.810313" lon="-118.393867">
  <ele>-0.119</ele>
  <time>2026-09-01T01:17:31Z</time>
  <course>187.73</course>
  <speed>0.0282842712474619</speed>
  <fix>3d</fix>
</trkpt>
<trkpt lat="33.810313" lon="-118.393867">
  <ele>-0.12</ele>
  <time>2026-09-01T01:17:31Z</time>
  <course>0.0</course>
  <speed>0.0</speed>
  <fix>3d</fix>
</trkpt>
<trkpt lat="33.810313" lon="-118.393867">
  <ele>-0.118</ele>
  <time>2026-09-01T01:17:31Z</time>
  <course>187.72</course>
  <speed>0.0282842712474619</speed>
  <fix>3d</fix>
</trkpt>
<trkpt lat="33.810313" lon="-118.393867">
  <ele>-0.12</ele>
  <time>2026-09-01T01:17:31Z</time>
  <course>0.0</course>
  <speed>0.0</speed>
  <fix>3d</fix>
</trkpt>
<trkpt lat="33.810313" lon="-118.393867">
  <ele>-0.116</ele>
  <time>2026-09-01T01:17:31Z</time>
  <course>187.71</course>
  <speed>0.0282842712474619</speed>
  <fix>3d</fix>
</trkpt>
<trkpt lat="33.810313" lon="-118.393867">
  <ele>-0.12</ele>
  <time>2026-09-01T01:17:31Z</time>
  <course>0.0</course>
  <speed>0.0</speed>
  <fix>3d</fix>
</trkpt>
<trkpt lat="33.810313" lon="-118.393867">
  <ele>-0.113</ele>
  <time>2026-09-01T01:17:31Z</time>
  <course>187.71</course>
  <speed>0.0282842712474619</speed>
  <fix>3d</fix>
</trkpt>
<trkpt lat="33.810313" lon="-118.393867">
  <ele>-0.12</ele>
  <time>2026-09-01T01:17:31Z</time>
  <course>0.0</course>
  <speed>0.0</speed>
  <fix>3d</fix>
</trkpt>
<trkpt lat="33.810313" lon="-118.393867">
  <ele>-0.112</ele>
  <time>2026-09-01T01:17:31Z</time>
  <course>187.7</course>
  <speed>0.0282842712474619</speed>
  <fix>3d</fix>
</trkpt>
<trkpt lat="33.810313" lon="-118.393867">
  <ele>-0.12</ele>
  <time>2026-09-01T01:17:31Z</time>
  <course>0.0</course>
  <speed>0.0</speed>
  <fix>3d</fix>
</trkpt>
<trkpt lat="33.810313" lon="-118.393867">
  <ele>-0.113</ele>
  <time>2026-09-01T01:17:31Z</time>
  <course>187.69</course>
  <speed>0.0282842712474619</speed>
  <fix>3d</fix>
</trkpt>
<trkpt lat="33.810313" lon="-118.393867">
  <ele>-0.12</ele>
  <time>2026-09-01T01:17:31Z</time>
  <course>0.0</course>
  <speed>0.0</speed>
  <fix>3d</fix>
</trkpt>
<trkpt lat="33.810313" lon="-118.393867">
  <ele>-0.115</ele>
  <time>2026-09-01T01:17:31Z</time>
  <course>187.68</course>
  <speed>0.0282842712474619</speed>
  <fix>3d</fix>
</trkpt>
<trkpt lat="33.810313" lon="-118.393867">
  <ele>-0.12</ele>
  <time>2026-09-01T01:17:31Z</time>
  <course>0.0</course>
  <speed>0.0</speed>
  <fix>3d</fix>
</trkpt>
<trkpt lat="33.810313" lon="-118.393867">
  <ele>-0.119</ele>
  <time>2026-09-01T01:17:31Z</time>
  <course>187.68</course>
  <speed>0.0282842712474619</speed>
  <fix>3d</fix>
</trkpt>
<trkpt lat="33.810313" lon="-118.393867">
  <ele>-0.12</ele>
  <time>2026-09-01T01:17:31Z</time>
  <course>0.0</course>
  <speed>0.0</speed>
  <fix>3d</fix>
</trkpt>
<trkpt lat="33.810313" lon="-118.393867">
  <ele>-0.124</ele>
  <time>2026-09-01T01:17:31Z</time>
  <course>187.67</course>
  <speed>0.0282842712474619</speed>
  <fix>3d</fix>
</trkpt>
<trkpt lat="33.810313" lon="-118.393867">
  <ele>-0.12</ele>
  <time>2026-09-01T01:17:31Z</time>
  <course>0.0</course>
  <speed>0.0</speed>
  <fix>3d</fix>
</trkpt>
<trkpt lat="33.810313" lon="-118.393867">
  <ele>-0.129</ele>
  <time>2026-09-01T01:17:31Z</time>
  <course>187.66</course>
  <speed>0.0282842712474619</speed>
  <fix>3d</fix>
</trkpt>
<trkpt lat="33.810313" lon="-118.393867">
  <ele>-0.12</ele>
  <time>2026-09-01T01:17:31Z</time>
  <course>0.0</course>
  <speed>0.0</speed>
  <fix>3d</fix>
</trkpt>
<trkpt lat="33.810313" lon="-118.393867">
  <ele>-0.133</ele>
  <time>2026-09-01T01:17:31Z</time>
  <course>187.66</course>
  <speed>0.0282842712474619</speed>
  <fix>3d</fix>
</trkpt>
<trkpt lat="33.810313" lon="-118.393867">
  <ele>-0.12</ele>
  <time>2026-09-01T01:17:31Z</time>
  <course>0.0</course>
  <speed>0.0</speed>
  <fix>3d</fix>
</trkpt>
<trkpt lat="33.810313" lon="-118.393867">
  <ele>-0.135</ele>
  <time>2026-09-01T01:17:31Z</time>
  <course>187.65</course>
  <speed>0.0282842712474619</speed>
  <fix>3d</fix>
</trkpt>
<trkpt lat="33.810313" lon="-118.393867">
  <ele>-0.12</ele>
  <time>2026-09-01T01:17:31Z</time>
  <course>0.0</course>
  <speed>0.0</speed>
  <fix>3d</fix>
</trkpt>
<trkpt lat="33.810313" lon="-118.393867">
  <ele>-0.135</ele>
  <time>2026-09-01T01:17:31Z</time>
  <course>187.64</course>
  <speed>0.0282842712474619</speed>
  <fix>3d</fix>
</trkpt>
<trkpt lat="33.810313" lon="-118.393867">
  <ele>-0.12</ele>
  <time>2026-09-01T01:17:31Z</time>
  <course>0.0</course>
  <speed>0.0</speed>
  <fix>3d</fix>
</trkpt>
<trkpt lat="33.810313" lon="-118.393867">
  <ele>-0.135</ele>
  <time>2026-09-01T01:17:31Z</time>
  <course>187.64</course>
  <speed>0.0282842712474619</speed>
  <fix>3d</fix>
</trkpt>
<trkpt lat="33.810313" lon="-118.393867">
  <ele>-0.12</ele>
  <time>2026-09-01T01:17:31Z</time>
  <course>0.0</course>
  <speed>0.0</speed>
  <fix>3d</fix>
</trkpt>
<trkpt lat="33.810313" lon="-118.393867">
  <ele>-0.133</ele>
  <time>2026-09-01T01:17:31Z</time>
  <course>187.63</course>
  <speed>0.0282842712474619</speed>
  <fix>3d</fix>
</trkpt>
<trkpt lat="33.810313" lon="-118.393867">
  <ele>-0.12</ele>
  <time>2026-09-01T01:17:31Z</time>
  <course>0.0</course>
  <speed>0.0</speed>
  <fix>3d</fix>
</trkpt>
<trkpt lat="33.810313" lon="-118.393867">
  <ele>-0.132</ele>
  <time>2026-09-01T01:17:31Z</time>
  <course>187.63</course>
  <speed>0.03605551275463989</speed>
  <fix>3d</fix>
</trkpt>
<trkpt lat="33.810313" lon="-118.393867">
  <ele>-0.12</ele>
  <time>2026-09-01T01:17:31Z</time>
  <course>0.0</course>
  <speed>0.0</speed>
  <fix>3d</fix>
</trkpt>
<trkpt lat="33.810313" lon="-118.393867">
  <ele>-0.132</ele>
  <time>2026-09-01T01:17:31Z</time>
  <course>187.62</course>
  <speed>0.03605551275463989</speed>
  <fix>3d</fix>
</trkpt>
<trkpt lat="33.810313" lon="-118.393867">
  <ele>-0.12</ele>
  <time>2026-09-01T01:17:31Z</time>
  <course>0.0</course>
  <speed>0.0</speed>
  <fix>3d</fix>
</trkpt>
<trkpt lat="33.810313" lon="-118.393867">
  <ele>-0.133</ele>
  <time>2026-09-01T01:17:31Z</time>
  <course>187.61</course>
  <speed>0.03605551275463989</speed>
  <fix>3d</fix>
</trkpt>
<trkpt lat="33.810313" lon="-118.393867">
  <ele>-0.12</ele>
  <time>2026-09-01T01:17:31Z</time>
  <course>0.0</course>
  <speed>0.0</speed>
  <fix>3d</fix>
</trkpt>
<trkpt lat="33.810313" lon="-118.393867">
  <ele>-0.134</ele>
  <time>2026-09-01T01:17:31Z</time>
  <course>187.6</course>
  <speed>0.03605551275463989</speed>
  <fix>3d</fix>
</trkpt>
<trkpt lat="33.810313" lon="-118.393867">
  <ele>-0.12</ele>
  <time>2026-09-01T01:17:31Z</time>
  <course>0.0</course>
  <speed>0.0</speed>
  <fix>3d</fix>
</trkpt>
<trkpt lat="33.810313" lon="-118.393867">
  <ele>-0.134</ele>
  <time>2026-09-01T01:17:31Z</time>
  <course>187.6</course>
  <speed>0.03605551275463989</speed>
  <fix>3d</fix>
</trkpt>
<trkpt lat="33.810313" lon="-118.393867">
  <ele>-0.12</ele>
  <time>2026-09-01T01:17:31Z</time>
  <course>0.0</course>
  <speed>0.0</speed>
  <fix>3d</fix>
</trkpt>
<trkpt lat="33.810313" lon="-118.393867">
  <ele>-0.134</ele>
  <time>2026-09-01T01:17:31Z</time>
  <course>187.59</course>
  <speed>0.03605551275463989</speed>
  <fix>3d</fix>
</trkpt>
<trkpt lat="33.810313" lon="-118.393867">
  <ele>-0.12</ele>
  <time>2026-09-01T01:17:31Z</time>
  <course>0.0</course>
  <speed>0.0</speed>
  <fix>3d</fix>
</trkpt>
<trkpt lat="33.810313" lon="-118.393867">
  <ele>-0.132</ele>
  <time>2026-09-01T01:17:31Z</time>
  <course>187.58</course>
  <speed>0.03605551275463989</speed>
  <fix>3d</fix>
</trkpt>
<trkpt lat="33.810313" lon="-118.393867">
  <ele>-0.12</ele>
  <time>2026-09-01T01:17:31Z</time>
  <course>0.0</course>
  <speed>0.0</speed>
  <fix>3d</fix>
</trkpt>
<trkpt lat="33.810313" lon="-118.393867">
  <ele>-0.129</ele>
  <time>2026-09-01T01:17:31Z</time>
  <course>187.58</course>
  <speed>0.03605551275463989</speed>
  <fix>3d</fix>
</trkpt>
<trkpt lat="33.810313" lon="-118.393867">
  <ele>-0.12</ele>
  <time>2026-09-01T01:17:31Z</time>
  <course>0.0</course>
  <speed>0.0</speed>
  <fix>3d</fix>
</trkpt>
<trkpt lat="33.810313" lon="-118.393867">
  <ele>-0.127</ele>
  <time>2026-09-01T01:17:31Z</time>
  <course>187.57</course>
  <speed>0.03605551275463989</speed>
  <fix>3d</fix>
</trkpt>
<trkpt lat="33.810313" lon="-118.393867">
  <ele>-0.12</ele>
  <time>2026-09-01T01:17:31Z</time>
  <course>0.0</course>
  <speed>0.0</speed>
  <fix>3d</fix>
</trkpt>
<trkpt lat="33.810313" lon="-118.393867">
  <ele>-0.125</ele>
  <time>2026-09-01T01:17:31Z</time>
  <course>187.56</course>
  <speed>0.03605551275463989</speed>
  <fix>3d</fix>
</trkpt>
<trkpt lat="33.810313" lon="-118.393867">
  <ele>-0.12</ele>
  <time>2026-09-01T01:17:31Z</time>
  <course>0.0</course>
  <speed>0.0</speed>
  <fix>3d</fix>
</trkpt>
<trkpt lat="33.810313" lon="-118.393867">
  <ele>-0.122</ele>
  <time>2026-09-01T01:17:31Z</time>
  <course>187.56</course>
  <speed>0.03605551275463989</speed>
  <fix>3d</fix>
</trkpt>
<trkpt lat="33.810313" lon="-118.393867">
  <ele>-0.12</ele>
  <time>2026-09-01T01:17:31Z</time>
  <course>0.0</course>
  <speed>0.0</speed>
  <fix>3d</fix>
</trkpt>
<trkpt lat="33.810313" lon="-118.393867">
  <ele>-0.119</ele>
  <time>2026-09-01T01:17:31Z</time>
  <course>187.55</course>
  <speed>0.03605551275463989</speed>
  <fix>3d</fix>
</trkpt>
<trkpt lat="33.810313" lon="-118.393867">
  <ele>-0.12</ele>
  <time>2026-09-01T01:17:31Z</time>
  <course>0.0</course>
  <speed>0.0</speed>
  <fix>3d</fix>
</trkpt>
<trkpt lat="33.810313" lon="-118.393867">
  <ele>-0.117</ele>
  <time>2026-09-01T01:17:31Z</time>
  <course>187.54</course>
  <speed>0.03605551275463989</speed>
  <fix>3d</fix>
</trkpt>
<trkpt lat="33.810313" lon="-118.393867">
  <ele>-0.12</ele>
  <time>2026-09-01T01:17:31Z</time>
  <course>0.0</course>
  <speed>0.0</speed>
  <fix>3d</fix>
</trkpt>
<trkpt lat="33.810313" lon="-118.393867">
  <ele>-0.117</ele>
  <time>2026-09-01T01:17:31Z</time>
  <course>187.54</course>
  <speed>0.03605551275463989</speed>
  <fix>3d</fix>
</trkpt>
<trkpt lat="33.810313" lon="-118.393867">
  <ele>-0.12</ele>
  <time>2026-09-01T01:17:31Z</time>
  <course>0.0</course>
  <speed>0.0</speed>
  <fix>3d</fix>
</trkpt>
<trkpt lat="33.810313" lon="-118.393867">
  <ele>-0.118</ele>
  <time>2026-09-01T01:17:31Z</time>
  <course>187.53</course>
  <speed>0.03605551275463989</speed>
  <fix>3d</fix>
</trkpt>
<trkpt lat="33.810313" lon="-118.393867">
  <ele>-0.12</ele>
  <time>2026-09-01T01:17:31Z</time>
  <course>0.0</course>
  <speed>0.0</speed>
  <fix>3d</fix>
</trkpt>
<trkpt lat="33.810313" lon="-118.393867">
  <ele>-0.119</ele>
  <time>2026-09-01T01:17:31Z</time>
  <course>187.52</course>
  <speed>0.03605551275463989</speed>
  <fix>3d</fix>
</trkpt>
<trkpt lat="33.810313" lon="-118.393867">
  <ele>-0.12</ele>
  <time>2026-09-01T01:17:31Z</time>
  <course>0.0</course>
  <speed>0.0</speed>
  <fix>3d</fix>
</trkpt>
<trkpt lat="33.810313" lon="-118.393867">
  <ele>-0.12</ele>
  <time>2026-09-01T01:17:31Z</time>
  <course>187.52</course>
  <speed>0.03605551275463989</speed>
  <fix>3d</fix>
</trkpt>
<trkpt lat="33.810313" lon="-118.393867">
  <ele>-0.12</ele>
  <time>2026-09-01T01:17:31Z</time>
  <course>0.0</course>
  <speed>0.0</speed>
  <fix>3d</fix>
</trkpt>
<trkpt lat="33.810313" lon="-118.393867">
  <ele>-0.121</ele>
  <time>2026-09-01T01:17:31Z</time>
  <course>187.51</course>
  <speed>0.03605551275463989</speed>
  <fix>3d</fix>
</trkpt>
<trkpt lat="33.810313" lon="-118.393867">
  <ele>-0.12</ele>
  <time>2026-09-01T01:17:31Z</time>
  <course>0.0</course>
  <speed>0.0</speed>
  <fix>3d</fix>
</trkpt>
<trkpt lat="33.810313" lon="-118.393867">
  <ele>-0.121</ele>
  <time>2026-09-01T01:17:31Z</time>
  <course>187.51</course>
  <speed>0.03605551275463989</speed>
  <fix>3d</fix>
</trkpt>
<trkpt lat="33.810313" lon="-118.393867">
  <ele>-0.12</ele>
  <time>2026-09-01T01:17:31Z</time>
  <course>0.0</course>
  <speed>0.0</speed>
  <fix>3d</fix>
</trkpt>
<trkpt lat="33.810313" lon="-118.393867">
  <ele>-0.121</ele>
  <time>2026-09-01T01:17:31Z</time>
  <course>187.5</course>
  <speed>0.03605551275463989</speed>
  <fix>3d</fix>
</trkpt>
<trkpt lat="33.810313" lon="-118.393867">
  <ele>-0.12</ele>
  <time>2026-09-01T01:17:31Z</time>
  <course>0.0</course>
  <speed>0.0</speed>
  <fix>3d</fix>
</trkpt>
<trkpt lat="33.810313" lon="-118.393867">
  <ele>-0.121</ele>
  <time>2026-09-01T01:17:31Z</time>
  <course>187.49</course>
  <speed>0.03605551275463989</speed>
  <fix>3d</fix>
</trkpt>
<trkpt lat="33.810313" lon="-118.393867">
  <ele>-0.12</ele>
  <time>2026-09-01T01:17:31Z</time>
  <course>0.0</course>
  <speed>0.0</speed>
  <fix>3d</fix>
</trkpt>
<trkpt lat="33.810313" lon="-118.393867">
  <ele>-0.121</ele>
  <time>2026-09-01T01:17:31Z</time>
  <course>187.49</course>
  <speed>0.03605551275463989</speed>
  <fix>3d</fix>
</trkpt>
<trkpt lat="33.810313" lon="-118.393867">
  <ele>-0.12</ele>
  <time>2026-09-01T01:17:31Z</time>
  <course>0.0</course>
  <speed>0.0</speed>
  <fix>3d</fix>
</trkpt>
<trkpt lat="33.810313" lon="-118.393867">
  <ele>-0.121</ele>
  <time>2026-09-01T01:17:31Z</time>
  <course>187.48</course>
  <speed>0.03605551275463989</speed>
  <fix>3d</fix>
</trkpt>
<trkpt lat="33.810313" lon="-118.393867">
  <ele>-0.12</ele>
  <time>2026-09-01T01:17:31Z</time>
  <course>0.0</course>
  <speed>0.0</speed>
  <fix>3d</fix>
</trkpt>
<trkpt lat="33.810313" lon="-118.393867">
  <ele>-0.122</ele>
  <time>2026-09-01T01:17:31Z</time>
  <course>187.47</course>
  <speed>0.03605551275463989</speed>
  <fix>3d</fix>
</trkpt>
<trkpt lat="33.810313" lon="-118.393867">
  <ele>-0.12</ele>
  <time>2026-09-01T01:17:31Z</time>
  <course>0.0</course>
  <speed>0.0</speed>
  <fix>3d</fix>
</trkpt>
<trkpt lat="33.810313" lon="-118.393867">
  <ele>-0.124</ele>
  <time>2026-09-01T01:17:31Z</time>
  <course>187.47</course>
  <speed>0.03605551275463989</speed>
  <fix>3d</fix>
</trkpt>
<trkpt lat="33.810313" lon="-118.393867">
  <ele>-0.12</ele>
  <time>2026-09-01T01:17:31Z</time>
  <course>0.0</course>
  <speed>0.0</speed>
  <fix>3d</fix>
</trkpt>
<trkpt lat="33.810313" lon="-118.393867">
  <ele>-0.127</ele>
  <time>2026-09-01T01:17:31Z</time>
  <course>187.46</course>
  <speed>0.03605551275463989</speed>
  <fix>3d</fix>
</trkpt>
<trkpt lat="33.810313" lon="-118.393867">
  <ele>-0.12</ele>
  <time>2026-09-01T01:17:31Z</time>
  <course>0.0</course>
  <speed>0.0</speed>
  <fix>3d</fix>
</trkpt>
<trkpt lat="33.810313" lon="-118.393867">
  <ele>-0.129</ele>
  <time>2026-09-01T01:17:31Z</time>
  <course>187.45</course>
  <speed>0.03605551275463989</speed>
  <fix>3d</fix>
</trkpt>
<trkpt lat="33.810313" lon="-118.393867">
  <ele>-0.12</ele>
  <time>2026-09-01T01:17:31Z</time>
  <course>0.0</course>
  <speed>0.0</speed>
  <fix>3d</fix>
</trkpt>
<trkpt lat="33.810313" lon="-118.393867">
  <ele>-0.131</ele>
  <time>2026-09-01T01:17:31Z</time>
  <course>187.45</course>
  <speed>0.03605551275463989</speed>
  <fix>3d</fix>
</trkpt>
<trkpt lat="33.810313" lon="-118.393867">
  <ele>-0.12</ele>
  <time>2026-09-01T01:17:31Z</time>
  <course>0.0</course>
  <speed>0.0</speed>
  <fix>3d</fix>
</trkpt>
<trkpt lat="33.810313" lon="-118.393867">
  <ele>-0.132</ele>
  <time>2026-09-01T01:17:31Z</time>
  <course>187.44</course>
  <speed>0.03605551275463989</speed>
  <fix>3d</fix>
</trkpt>
<trkpt lat="33.810313" lon="-118.393867">
  <ele>-0.12</ele>
  <time>2026-09-01T01:17:31Z</time>
  <course>0.0</course>
  <speed>0.0</speed>
  <fix>3d</fix>
</trkpt>
<trkpt lat="33.810313" lon="-118.393867">
  <ele>-0.132</ele>
  <time>2026-09-01T01:17:31Z</time>
  <course>187.44</course>
  <speed>0.03605551275463989</speed>
  <fix>3d</fix>
</trkpt>
<trkpt lat="33.810313" lon="-118.393867">
  <ele>-0.12</ele>
  <time>2026-09-01T01:17:31Z</time>
  <course>0.0</course>
  <speed>0.0</speed>
  <fix>3d</fix>
</trkpt>
<trkpt lat="33.810313" lon="-118.393867">
  <ele>-0.132</ele>
  <time>2026-09-01T01:17:31Z</time>
  <course>187.43</course>
  <speed>0.03605551275463989</speed>
  <fix>3d</fix>
</trkpt>
<trkpt lat="33.810313" lon="-118.393867">
  <ele>-0.12</ele>
  <time>2026-09-01T01:17:31Z</time>
  <course>0.0</course>
  <speed>0.0</speed>
  <fix>3d</fix>
</trkpt>
<trkpt lat="33.810313" lon="-118.393867">
  <ele>-0.132</ele>
  <time>2026-09-01T01:17:31Z</time>
  <course>187.42</course>
  <speed>0.03605551275463989</speed>
  <fix>3d</fix>
</trkpt>
<trkpt lat="33.810313" lon="-118.393867">
  <ele>-0.12</ele>
  <time>2026-09-01T01:17:31Z</time>
  <course>0.0</course>
  <speed>0.0</speed>
  <fix>3d</fix>
</trkpt>
<trkpt lat="33.810313" lon="-118.393867">
  <ele>-0.131</ele>
  <time>2026-09-01T01:17:31Z</time>
  <course>187.42</course>
  <speed>0.03605551275463989</speed>
  <fix>3d</fix>
</trkpt>
<trkpt lat="33.810313" lon="-118.393867">
  <ele>-0.12</ele>
  <time>2026-09-01T01:17:31Z</time>
  <course>0.0</course>
  <speed>0.0</speed>
  <fix>3d</fix>
</trkpt>
<trkpt lat="33.810313" lon="-118.393867">
  <ele>-0.131</ele>
  <time>2026-09-01T01:17:31Z</time>
  <course>187.41</course>
  <speed>0.03605551275463989</speed>
  <fix>3d</fix>
</trkpt>
<trkpt lat="33.810313" lon="-118.393867">
  <ele>-0.12</ele>
  <time>2026-09-01T01:17:31Z</time>
  <course>0.0</course>
  <speed>0.0</speed>
  <fix>3d</fix>
</trkpt>
<trkpt lat="33.810313" lon="-118.393867">
  <ele>-0.132</ele>
  <time>2026-09-01T01:17:31Z</time>
  <course>187.41</course>
  <speed>0.03605551275463989</speed>
  <fix>3d</fix>
</trkpt>
<trkpt lat="33.810313" lon="-118.393867">
  <ele>-0.12</ele>
  <time>2026-09-01T01:17:31Z</time>
  <course>0.0</course>
  <speed>0.0</speed>
  <fix>3d</fix>
</trkpt>
<trkpt lat="33.810313" lon="-118.393867">
  <ele>-0.134</ele>
  <time>2026-09-01T01:17:31Z</time>
  <course>187.4</course>
  <speed>0.03605551275463989</speed>
  <fix>3d</fix>
</trkpt>
<trkpt lat="33.810313" lon="-118.393867">
  <ele>-0.12</ele>
  <time>2026-09-01T01:17:31Z</time>
  <course>0.0</course>
  <speed>0.0</speed>
  <fix>3d</fix>
</trkpt>
<trkpt lat="33.810313" lon="-118.393867">
  <ele>-0.137</ele>
  <time>2026-09-01T01:17:31Z</time>
  <course>187.39</course>
  <speed>0.03605551275463989</speed>
  <fix>3d</fix>
</trkpt>
<trkpt lat="33.810313" lon="-118.393867">
  <ele>-0.12</ele>
  <time>2026-09-01T01:17:31Z</time>
  <course>0.0</course>
  <speed>0.0</speed>
  <fix>3d</fix>
</trkpt>
<trkpt lat="33.810313" lon="-118.393867">
  <ele>-0.139</ele>
  <time>2026-09-01T01:17:31Z</time>
  <course>187.39</course>
  <speed>0.03605551275463989</speed>
  <fix>3d</fix>
</trkpt>
<trkpt lat="33.810313" lon="-118.393867">
  <ele>-0.12</ele>
  <time>2026-09-01T01:17:31Z</time>
  <course>0.0</course>
  <speed>0.0</speed>
  <fix>3d</fix>
</trkpt>
<trkpt lat="33.810313" lon="-118.393867">
  <ele>-0.141</ele>
  <time>2026-09-01T01:17:31Z</time>
  <course>187.38</course>
  <speed>0.03605551275463989</speed>
  <fix>3d</fix>
</trkpt>
<trkpt lat="33.810313" lon="-118.393867">
  <ele>-0.12</ele>
  <time>2026-09-01T01:17:31Z</time>
  <course>0.0</course>
  <speed>0.0</speed>
  <fix>3d</fix>
</trkpt>
<trkpt lat="33.810313" lon="-118.393867">
  <ele>-0.141</ele>
  <time>2026-09-01T01:17:31Z</time>
  <course>187.38</course>
  <speed>0.03605551275463989</speed>
  <fix>3d</fix>
</trkpt>
<trkpt lat="33.810313" lon="-118.393867">
  <ele>-0.12</ele>
  <time>2026-09-01T01:17:31Z</time>
  <course>0.0</course>
  <speed>0.0</speed>
  <fix>3d</fix>
</trkpt>
<trkpt lat="33.810313" lon="-118.393867">
  <ele>-0.139</ele>
  <time>2026-09-01T01:17:31Z</time>
  <course>187.37</course>
  <speed>0.03605551275463989</speed>
  <fix>3d</fix>
</trkpt>
<trkpt lat="33.810313" lon="-118.393867">
  <ele>-0.12</ele>
  <time>2026-09-01T01:17:31Z</time>
  <course>0.0</course>
  <speed>0.0</speed>
  <fix>3d</fix>
</trkpt>
<trkpt lat="33.810313" lon="-118.393867">
  <ele>-0.136</ele>
  <time>2026-09-01T01:17:31Z</time>
  <course>187.36</course>
  <speed>0.03605551275463989</speed>
  <fix>3d</fix>
</trkpt>
<trkpt lat="33.810313" lon="-118.393867">
  <ele>-0.12</ele>
  <time>2026-09-01T01:17:31Z</time>
  <course>0.0</course>
  <speed>0.0</speed>
  <fix>3d</fix>
</trkpt>
<trkpt lat="33.810313" lon="-118.393867">
  <ele>-0.132</ele>
  <time>2026-09-01T01:17:31Z</time>
  <course>187.36</course>
  <speed>0.03605551275463989</speed>
  <fix>3d</fix>
</trkpt>
<trkpt lat="33.810313" lon="-118.393867">
  <ele>-0.12</ele>
  <time>2026-09-01T01:17:31Z</time>
  <course>0.0</course>
  <speed>0.0</speed>
  <fix>3d</fix>
</trkpt>
<trkpt lat="33.810313" lon="-118.393867">
  <ele>-0.129</ele>
  <time>2026-09-01T01:17:31Z</time>
  <course>187.35</course>
  <speed>0.03605551275463989</speed>
  <fix>3d</fix>
</trkpt>
<trkpt lat="33.810313" lon="-118.393867">
  <ele>-0.12</ele>
  <time>2026-09-01T01:17:31Z</time>
  <course>0.0</course>
  <speed>0.0</speed>
  <fix>3d</fix>
</trkpt>
<trkpt lat="33.810313" lon="-118.393867">
  <ele>-0.127</ele>
  <time>2026-09-01T01:17:31Z</time>
  <course>187.35</course>
  <speed>0.03605551275463989</speed>
  <fix>3d</fix>
</trkpt>
<trkpt lat="33.810313" lon="-118.393867">
  <ele>-0.12</ele>
  <time>2026-09-01T01:17:31Z</time>
  <course>0.0</course>
  <speed>0.0</speed>
  <fix>3d</fix>
</trkpt>
<trkpt lat="33.810313" lon="-118.393867">
  <ele>-0.126</ele>
  <time>2026-09-01T01:17:31Z</time>
  <course>187.34</course>
  <speed>0.03605551275463989</speed>
  <fix>3d</fix>
</trkpt>
<trkpt lat="33.810313" lon="-118.393867">
  <ele>-0.12</ele>
  <time>2026-09-01T01:17:31Z</time>
  <course>0.0</course>
  <speed>0.0</speed>
  <fix>3d</fix>
</trkpt>
<trkpt lat="33.810313" lon="-118.393867">
  <ele>-0.126</ele>
  <time>2026-09-01T01:17:31Z</time>
  <course>187.33</course>
  <speed>0.03605551275463989</speed>
  <fix>3d</fix>
</trkpt>
<trkpt lat="33.810313" lon="-118.393867">
  <ele>-0.12</ele>
  <time>2026-09-01T01:17:31Z</time>
  <course>0.0</course>
  <speed>0.0</speed>
  <fix>3d</fix>
</trkpt>
<trkpt lat="33.810313" lon="-118.393867">
  <ele>-0.127</ele>
  <time>2026-09-01T01:17:31Z</time>
  <course>187.33</course>
  <speed>0.03605551275463989</speed>
  <fix>3d</fix>
</trkpt>
<trkpt lat="33.810313" lon="-118.393867">
  <ele>-0.12</ele>
  <time>2026-09-01T01:17:31Z</time>
  <course>0.0</course>
  <speed>0.0</speed>
  <fix>3d</fix>
</trkpt>
<trkpt lat="33.810313" lon="-118.393867">
  <ele>-0.126</ele>
  <time>2026-09-01T01:17:31Z</time>
  <course>187.32</course>
  <speed>0.03605551275463989</speed>
  <fix>3d</fix>
</trkpt>
<trkpt lat="33.810313" lon="-118.393867">
  <ele>-0.12</ele>
  <time>2026-09-01T01:17:31Z</time>
  <course>0.0</course>
  <speed>0.0</speed>
  <fix>3d</fix>
</trkpt>
<trkpt lat="33.810313" lon="-118.393867">
  <ele>-0.126</ele>
  <time>2026-09-01T01:17:31Z</time>
  <course>187.32</course>
  <speed>0.03605551275463989</speed>
  <fix>3d</fix>
</trkpt>
<trkpt lat="33.810313" lon="-118.393867">
  <ele>-0.12</ele>
  <time>2026-09-01T01:17:31Z</time>
  <course>0.0</course>
  <speed>0.0</speed>
  <fix>3d</fix>
</trkpt>
<trkpt lat="33.810313" lon="-118.393867">
  <ele>-0.125</ele>
  <time>2026-09-01T01:17:31Z</time>
  <course>187.31</course>
  <speed>0.03605551275463989</speed>
  <fix>3d</fix>
</trkpt>
<trkpt lat="33.810313" lon="-118.393867">
  <ele>-0.12</ele>
  <time>2026-09-01T01:17:31Z</time>
  <course>0.0</course>
  <speed>0.0</speed>
  <fix>3d</fix>
</trkpt>
<trkpt lat="33.810313" lon="-118.393867">
  <ele>-0.124</ele>
  <time>2026-09-01T01:17:31Z</time>
  <course>187.31</course>
  <speed>0.03605551275463989</speed>
  <fix>3d</fix>
</trkpt>
<trkpt lat="33.810313" lon="-118.393867">
  <ele>-0.12</ele>
  <time>2026-09-01T01:17:31Z</time>
  <course>0.0</course>
  <speed>0.0</speed>
  <fix>3d</fix>
</trkpt>
<trkpt lat="33.810313" lon="-118.393867">
  <ele>-0.122</ele>
  <time>2026-09-01T01:17:31Z</time>
  <course>187.3</course>
  <speed>0.03605551275463989</speed>
  <fix>3d</fix>
</trkpt>
<trkpt lat="33.810313" lon="-118.393867">
  <ele>-0.12</ele>
  <time>2026-09-01T01:17:31Z</time>
  <course>0.0</course>
  <speed>0.0</speed>
  <fix>3d</fix>
</trkpt>
<trkpt lat="33.810313" lon="-118.393867">
  <ele>-0.121</ele>
  <time>2026-09-01T01:17:31Z</time>
  <course>187.29</course>
  <speed>0.03605551275463989</speed>
  <fix>3d</fix>
</trkpt>
<trkpt lat="33.810313" lon="-118.393867">
  <ele>-0.12</ele>
  <time>2026-09-01T01:17:31Z</time>
  <course>0.0</course>
  <speed>0.0</speed>
  <fix>3d</fix>
</trkpt>
<trkpt lat="33.810313" lon="-118.393867">
  <ele>-0.122</ele>
  <time>2026-09-01T01:17:31Z</time>
  <course>187.29</course>
  <speed>0.03605551275463989</speed>
  <fix>3d</fix>
</trkpt>
<trkpt lat="33.810313" lon="-118.393867">
  <ele>-0.12</ele>
  <time>2026-09-01T01:17:31Z</time>
  <course>0.0</course>
  <speed>0.0</speed>
  <fix>3d</fix>
</trkpt>
<trkpt lat="33.810313" lon="-118.393867">
  <ele>-0.124</ele>
  <time>2026-09-01T01:17:31Z</time>
  <course>187.28</course>
  <speed>0.03605551275463989</speed>
  <fix>3d</fix>
</trkpt>
<trkpt lat="33.810313" lon="-118.393867">
  <ele>-0.12</ele>
  <time>2026-09-01T01:17:31Z</time>
  <course>0.0</course>
  <speed>0.0</speed>
  <fix>3d</fix>
</trkpt>
<trkpt lat="33.810313" lon="-118.393867">
  <ele>-0.128</ele>
  <time>2026-09-01T01:17:31Z</time>
  <course>187.28</course>
  <speed>0.03605551275463989</speed>
  <fix>3d</fix>
</trkpt>
<trkpt lat="33.810313" lon="-118.393867">
  <ele>-0.12</ele>
  <time>2026-09-01T01:17:31Z</time>
  <course>0.0</course>
  <speed>0.0</speed>
  <fix>3d</fix>
</trkpt>
<trkpt lat="33.810313" lon="-118.393867">
  <ele>-0.13</ele>
  <time>2026-09-01T01:17:31Z</time>
  <course>187.27</course>
  <speed>0.03605551275463989</speed>
  <fix>3d</fix>
</trkpt>
<trkpt lat="33.810313" lon="-118.393867">
  <ele>-0.12</ele>
  <time>2026-09-01T01:17:31Z</time>
  <course>0.0</course>
  <speed>0.0</speed>
  <fix>3d</fix>
</trkpt>
<trkpt lat="33.810313" lon="-118.393867">
  <ele>-0.133</ele>
  <time>2026-09-01T01:17:31Z</time>
  <course>187.27</course>
  <speed>0.03605551275463989</speed>
  <fix>3d</fix>
</trkpt>
<trkpt lat="33.810313" lon="-118.393867">
  <ele>-0.12</ele>
  <time>2026-09-01T01:17:31Z</time>
  <course>0.0</course>
  <speed>0.0</speed>
  <fix>3d</fix>
</trkpt>
<trkpt lat="33.810313" lon="-118.393867">
  <ele>-0.135</ele>
  <time>2026-09-01T01:17:31Z</time>
  <course>187.26</course>
  <speed>0.03605551275463989</speed>
  <fix>3d</fix>
</trkpt>
<trkpt lat="33.810313" lon="-118.393867">
  <ele>-0.12</ele>
  <time>2026-09-01T01:17:31Z</time>
  <course>0.0</course>
  <speed>0.0</speed>
  <fix>3d</fix>
</trkpt>
<trkpt lat="33.810313" lon="-118.393867">
  <ele>-0.136</ele>
  <time>2026-09-01T01:17:31Z</time>
  <course>187.26</course>
  <speed>0.03605551275463989</speed>
  <fix>3d</fix>
</trkpt>
<trkpt lat="33.810313" lon="-118.393867">
  <ele>-0.12</ele>
  <time>2026-09-01T01:17:31Z</time>
  <course>0.0</course>
  <speed>0.0</speed>
  <fix>3d</fix>
</trkpt>
<trkpt lat="33.810313" lon="-118.393867">
  <ele>-0.136</ele>
  <time>2026-09-01T01:17:31Z</time>
  <course>187.25</course>
  <speed>0.03605551275463989</speed>
  <fix>3d</fix>
</trkpt>
<trkpt lat="33.810313" lon="-118.393867">
  <ele>-0.12</ele>
  <time>2026-09-01T01:17:31Z</time>
  <course>0.0</course>
  <speed>0.0</speed>
  <fix>3d</fix>
</trkpt>
<trkpt lat="33.810313" lon="-118.393867">
  <ele>-0.135</ele>
  <time>2026-09-01T01:17:31Z</time>
  <course>187.25</course>
  <speed>0.03605551275463989</speed>
  <fix>3d</fix>
</trkpt>
<trkpt lat="33.810313" lon="-118.393867">
  <ele>-0.12</ele>
  <time>2026-09-01T01:17:31Z</time>
  <course>0.0</course>
  <speed>0.0</speed>
  <fix>3d</fix>
</trkpt>
<trkpt lat="33.810313" lon="-118.393867">
  <ele>-0.134</ele>
  <time>2026-09-01T01:17:31Z</time>
  <course>187.24</course>
  <speed>0.03605551275463989</speed>
  <fix>3d</fix>
</trkpt>
<trkpt lat="33.810313" lon="-118.393867">
  <ele>-0.12</ele>
  <time>2026-09-01T01:17:31Z</time>
  <course>0.0</course>
  <speed>0.0</speed>
  <fix>3d</fix>
</trkpt>
<trkpt lat="33.810313" lon="-118.393867">
  <ele>-0.132</ele>
  <time>2026-09-01T01:17:31Z</time>
  <course>187.24</course>
  <speed>0.03605551275463989</speed>
  <fix>3d</fix>
</trkpt>
<trkpt lat="33.810313" lon="-118.393867">
  <ele>-0.12</ele>
  <time>2026-09-01T01:17:31Z</time>
  <course>0.0</course>
  <speed>0.0</speed>
  <fix>3d</fix>
</trkpt>
<trkpt lat="33.810313" lon="-118.393867">
  <ele>-0.131</ele>
  <time>2026-09-01T01:17:31Z</time>
  <course>187.23</course>
  <speed>0.03605551275463989</speed>
  <fix>3d</fix>
</trkpt>
<trkpt lat="33.810313" lon="-118.393867">
  <ele>-0.12</ele>
  <time>2026-09-01T01:17:31Z</time>
  <course>0.0</course>
  <speed>0.0</speed>
  <fix>3d</fix>
</trkpt>
<trkpt lat="33.810313" lon="-118.393867">
  <ele>-0.131</ele>
  <time>2026-09-01T01:17:31Z</time>
  <course>187.22</course>
  <speed>0.03605551275463989</speed>
  <fix>3d</fix>
</trkpt>
<trkpt lat="33.810313" lon="-118.393867">
  <ele>-0.12</ele>
  <time>2026-09-01T01:17:31Z</time>
  <course>0.0</course>
  <speed>0.0</speed>
  <fix>3d</fix>
</trkpt>
<trkpt lat="33.810313" lon="-118.393867">
  <ele>-0.132</ele>
  <time>2026-09-01T01:17:31Z</time>
  <course>187.22</course>
  <speed>0.03605551275463989</speed>
  <fix>3d</fix>
</trkpt>
<trkpt lat="33.810313" lon="-118.393867">
  <ele>-0.12</ele>
  <time>2026-09-01T01:17:31Z</time>
  <course>0.0</course>
  <speed>0.0</speed>
  <fix>3d</fix>
</trkpt>
<trkpt lat="33.810313" lon="-118.393867">
  <ele>-0.132</ele>
  <time>2026-09-01T01:17:31Z</time>
  <course>187.21</course>
  <speed>0.03605551275463989</speed>
  <fix>3d</fix>
</trkpt>
<trkpt lat="33.810313" lon="-118.393867">
  <ele>-0.12</ele>
  <time>2026-09-01T01:17:31Z</time>
  <course>0.0</course>
  <speed>0.0</speed>
  <fix>3d</fix>
</trkpt>
<trkpt lat="33.810313" lon="-118.393867">
  <ele>-0.133</ele>
  <time>2026-09-01T01:17:31Z</time>
  <course>187.21</course>
  <speed>0.03605551275463989</speed>
  <fix>3d</fix>
</trkpt>
<trkpt lat="33.810313" lon="-118.393867">
  <ele>-0.12</ele>
  <time>2026-09-01T01:17:31Z</time>
  <course>0.0</course>
  <speed>0.0</speed>
  <fix>3d</fix>
</trkpt>
<trkpt lat="33.810313" lon="-118.393867">
  <ele>-0.132</ele>
  <time>2026-09-01T01:17:31Z</time>
  <course>187.2</course>
  <speed>0.03605551275463989</speed>
  <fix>3d</fix>
</trkpt>
<trkpt lat="33.810313" lon="-118.393867">
  <ele>-0.12</ele>
  <time>2026-09-01T01:17:31Z</time>
  <course>0.0</course>
  <speed>0.0</speed>
  <fix>3d</fix>
</trkpt>
<trkpt lat="33.810313" lon="-118.393867">
  <ele>-0.131</ele>
  <time>2026-09-01T01:17:31Z</time>
  <course>187.2</course>
  <speed>0.03605551275463989</speed>
  <fix>3d</fix>
</trkpt>
<trkpt lat="33.810313" lon="-118.393867">
  <ele>-0.12</ele>
  <time>2026-09-01T01:17:31Z</time>
  <course>0.0</course>
  <speed>0.0</speed>
  <fix>3d</fix>
</trkpt>
<trkpt lat="33.810313" lon="-118.393867">
  <ele>-0.129</ele>
  <time>2026-09-01T01:17:31Z</time>
  <course>187.19</course>
  <speed>0.03605551275463989</speed>
  <fix>3d</fix>
</trkpt>
<trkpt lat="33.810313" lon="-118.393867">
  <ele>-0.12</ele>
  <time>2026-09-01T01:17:31Z</time>
  <course>0.0</course>
  <speed>0.0</speed>
  <fix>3d</fix>
</trkpt>
<trkpt lat="33.810313" lon="-118.393867">
  <ele>-0.126</ele>
  <time>2026-09-01T01:17:31Z</time>
  <course>187.19</course>
  <speed>0.03605551275463989</speed>
  <fix>3d</fix>
</trkpt>
<trkpt lat="33.810313" lon="-118.393867">
  <ele>-0.12</ele>
  <time>2026-09-01T01:17:31Z</time>
  <course>0.0</course>
  <speed>0.0</speed>
  <fix>3d</fix>
</trkpt>
<trkpt lat="33.810313" lon="-118.393867">
  <ele>-0.124</ele>
  <time>2026-09-01T01:17:31Z</time>
  <course>187.18</course>
  <speed>0.03605551275463989</speed>
  <fix>3d</fix>
</trkpt>
<trkpt lat="33.810313" lon="-118.393867">
  <ele>-0.12</ele>
  <time>2026-09-01T01:17:31Z</time>
  <course>0.0</course>
  <speed>0.0</speed>
  <fix>3d</fix>
</trkpt>
<trkpt lat="33.810313" lon="-118.393867">
  <ele>-0.123</ele>
  <time>2026-09-01T01:17:31Z</time>
  <course>187.18</course>
  <speed>0.03605551275463989</speed>
  <fix>3d</fix>
</trkpt>
<trkpt lat="33.810313" lon="-118.393867">
  <ele>-0.12</ele>
  <time>2026-09-01T01:17:31Z</time>
  <course>0.0</course>
  <speed>0.0</speed>
  <fix>3d</fix>
</trkpt>
<trkpt lat="33.810313" lon="-118.393867">
  <ele>-0.123</ele>
  <time>2026-09-01T01:17:31Z</time>
  <course>187.17</course>
  <speed>0.03605551275463989</speed>
  <fix>3d</fix>
</trkpt>
<trkpt lat="33.810313" lon="-118.393867">
  <ele>-0.12</ele>
  <time>2026-09-01T01:17:31Z</time>
  <course>0.0</course>
  <speed>0.0</speed>
  <fix>3d</fix>
</trkpt>
<trkpt lat="33.810313" lon="-118.393867">
  <ele>-0.122</ele>
  <time>2026-09-01T01:17:31Z</time>
  <course>187.17</course>
  <speed>0.0</speed>
  <fix>3d</fix>
</trkpt>
<trkpt lat="33.810313" lon="-118.393867">
  <ele>-0.12</ele>
  <time>2026-09-01T01:17:31Z</time>
  <course>0.0</course>
  <speed>0.0</speed>
  <fix>3d</fix>
</trkpt>
<trkpt lat="33.810313" lon="-118.393867">
  <ele>-0.121</ele>
  <time>2026-09-01T01:17:31Z</time>
  <course>187.16</course>
  <speed>0.0</speed>
  <fix>3d</fix>
</trkpt>
<trkpt lat="33.810313" lon="-118.393867">
  <ele>-0.12</ele>
  <time>2026-09-01T01:17:31Z</time>
  <course>0.0</course>
  <speed>0.0</speed>
  <fix>3d</fix>
</trkpt>
<trkpt lat="33.810313" lon="-118.393867">
  <ele>-0.12</ele>
  <time>2026-09-01T01:17:31Z</time>
  <course>187.16</course>
  <speed>0.0</speed>
  <fix>3d</fix>
</trkpt>
<trkpt lat="33.810313" lon="-118.393867">
  <ele>-0.12</ele>
  <time>2026-09-01T01:17:31Z</time>
  <course>0.0</course>
  <speed>0.0</speed>
  <fix>3d</fix>
</trkpt>
<trkpt lat="33.810313" lon="-118.393867">
  <ele>-0.119</ele>
  <time>2026-09-01T01:17:31Z</time>
  <course>187.15</course>
  <speed>0.0</speed>
  <fix>3d</fix>
</trkpt>
<trkpt lat="33.810313" lon="-118.393867">
  <ele>-0.12</ele>
  <time>2026-09-01T01:17:31Z</time>
  <course>0.0</course>
  <speed>0.0</speed>
  <fix>3d</fix>
</trkpt>
<trkpt lat="33.810313" lon="-118.393867">
  <ele>-0.116</ele>
  <time>2026-09-01T01:17:31Z</time>
  <course>187.15</course>
  <speed>0.0</speed>
  <fix>3d</fix>
</trkpt>
<trkpt lat="33.810313" lon="-118.393867">
  <ele>-0.12</ele>
  <time>2026-09-01T01:17:31Z</time>
  <course>0.0</course>
  <speed>0.0</speed>
  <fix>3d</fix>
</trkpt>
<trkpt lat="33.810313" lon="-118.393867">
  <ele>-0.114</ele>
  <time>2026-09-01T01:17:31Z</time>
  <course>187.14</course>
  <speed>0.0</speed>
  <fix>3d</fix>
</trkpt>
<trkpt lat="33.810313" lon="-118.393867">
  <ele>-0.12</ele>
  <time>2026-09-01T01:17:31Z</time>
  <course>0.0</course>
  <speed>0.0</speed>
  <fix>3d</fix>
</trkpt>
<trkpt lat="33.810313" lon="-118.393867">
  <ele>-0.113</ele>
  <time>2026-09-01T01:17:31Z</time>
  <course>187.14</course>
  <speed>0.0</speed>
  <fix>3d</fix>
</trkpt>
<trkpt lat="33.810313" lon="-118.393867">
  <ele>-0.12</ele>
  <time>2026-09-01T01:17:31Z</time>
  <course>0.0</course>
  <speed>0.0</speed>
  <fix>3d</fix>
</trkpt>
<trkpt lat="33.810313" lon="-118.393867">
  <ele>-0.112</ele>
  <time>2026-09-01T01:17:31Z</time>
  <course>187.13</course>
  <speed>0.0</speed>
  <fix>3d</fix>
</trkpt>
<trkpt lat="33.810313" lon="-118.393867">
  <ele>-0.12</ele>
  <time>2026-09-01T01:17:31Z</time>
  <course>0.0</course>
  <speed>0.0</speed>
  <fix>3d</fix>
</trkpt>
<trkpt lat="33.810313" lon="-118.393867">
  <ele>-0.113</ele>
  <time>2026-09-01T01:17:31Z</time>
  <course>187.13</course>
  <speed>0.0</speed>
  <fix>3d</fix>
</trkpt>
<trkpt lat="33.810313" lon="-118.393867">
  <ele>-0.12</ele>
  <time>2026-09-01T01:17:31Z</time>
  <course>0.0</course>
  <speed>0.0</speed>
  <fix>3d</fix>
</trkpt>
<trkpt lat="33.810313" lon="-118.393867">
  <ele>-0.114</ele>
  <time>2026-09-01T01:17:31Z</time>
  <course>187.12</course>
  <speed>0.0</speed>
  <fix>3d</fix>
</trkpt>
<trkpt lat="33.810313" lon="-118.393867">
  <ele>-0.12</ele>
  <time>2026-09-01T01:17:31Z</time>
  <course>0.0</course>
  <speed>0.0</speed>
  <fix>3d</fix>
</trkpt>
<trkpt lat="33.810313" lon="-118.393867">
  <ele>-0.117</ele>
  <time>2026-09-01T01:17:31Z</time>
  <course>187.12</course>
  <speed>0.0</speed>
  <fix>3d</fix>
</trkpt>
<trkpt lat="33.810313" lon="-118.393867">
  <ele>-0.12</ele>
  <time>2026-09-01T01:17:31Z</time>
  <course>0.0</course>
  <speed>0.0</speed>
  <fix>3d</fix>
</trkpt>
<trkpt lat="33.810313" lon="-118.393867">
  <ele>-0.119</ele>
  <time>2026-09-01T01:17:31Z</time>
  <course>187.11</course>
  <speed>0.01</speed>
  <fix>3d</fix>
</trkpt>
<trkpt lat="33.810313" lon="-118.393867">
  <ele>-0.12</ele>
  <time>2026-09-01T01:17:31Z</time>
  <course>0.0</course>
  <speed>0.0</speed>
  <fix>3d</fix>
</trkpt>
<trkpt lat="33.810313" lon="-118.393867">
  <ele>-0.12</ele>
  <time>2026-09-01T01:17:31Z</time>
  <course>187.11</course>
  <speed>0.01</speed>
  <fix>3d</fix>
</trkpt>
<trkpt lat="33.810313" lon="-118.393867">
  <ele>-0.12</ele>
  <time>2026-09-01T01:17:31Z</time>
  <course>0.0</course>
  <speed>0.0</speed>
  <fix>3d</fix>
</trkpt>
<trkpt lat="33.810313" lon="-118.393867">
  <ele>-0.121</ele>
  <time>2026-09-01T01:17:31Z</time>
  <course>187.1</course>
  <speed>0.01</speed>
  <fix>3d</fix>
</trkpt>
<trkpt lat="33.810313" lon="-118.393867">
  <ele>-0.12</ele>
  <time>2026-09-01T01:17:31Z</time>
  <course>0.0</course>
  <speed>0.0</speed>
  <fix>3d</fix>
</trkpt>
<trkpt lat="33.810313" lon="-118.393867">
  <ele>-0.122</ele>
  <time>2026-09-01T01:17:31Z</time>
  <course>187.1</course>
  <speed>0.01414213562373095</speed>
  <fix>3d</fix>
</trkpt>
<trkpt lat="33.810313" lon="-118.393867">
  <ele>-0.12</ele>
  <time>2026-09-01T01:17:31Z</time>
  <course>0.0</course>
  <speed>0.0</speed>
  <fix>3d</fix>
</trkpt>
<trkpt lat="33.810313" lon="-118.393867">
  <ele>-0.122</ele>
  <time>2026-09-01T01:17:31Z</time>
  <course>187.09</course>
  <speed>0.01414213562373095</speed>
  <fix>3d</fix>
</trkpt>
<trkpt lat="33.810313" lon="-118.393867">
  <ele>-0.12</ele>
  <time>2026-09-01T01:17:31Z</time>
  <course>0.0</course>
  <speed>0.0</speed>
  <fix>3d</fix>
</trkpt>
<trkpt lat="33.810313" lon="-118.393867">
  <ele>-0.129</ele>
  <time>2026-09-01T01:17:31Z</time>
  <course>187.09</course>
  <speed>0.01414213562373095</speed>
  <fix>3d</fix>
</trkpt>
<trkpt lat="33.810313" lon="-118.393867">
  <ele>-0.12</ele>
  <time>2026-09-01T01:17:31Z</time>
  <course>0.0</course>
  <speed>0.0</speed>
  <fix>3d</fix>
</trkpt>
<trkpt lat="33.810313" lon="-118.393867">
  <ele>-0.158</ele>
  <time>2026-09-01T01:17:31Z</time>
  <course>187.08</course>
  <speed>0.01414213562373095</speed>
  <fix>3d</fix>
</trkpt>
<trkpt lat="33.810313" lon="-118.393867">
  <ele>-0.12</ele>
  <time>2026-09-01T01:17:31Z</time>
  <course>0.0</course>
  <speed>0.0</speed>
  <fix>3d</fix>
</trkpt>
<trkpt lat="33.810313" lon="-118.393867">
  <ele>-0.202</ele>
  <time>2026-09-01T01:17:31Z</time>
  <course>187.08</course>
  <speed>0.01414213562373095</speed>
  <fix>3d</fix>
</trkpt>
<trkpt lat="33.810313" lon="-118.393867">
  <ele>-0.14</ele>
  <time>2026-09-01T01:17:31Z</time>
  <course>0.0</course>
  <speed>0.0</speed>
  <fix>3d</fix>
</trkpt>
<trkpt lat="33.810313" lon="-118.393867">
  <ele>-0.256</ele>
  <time>2026-09-01T01:17:31Z</time>
  <course>187.07</course>
  <speed>0.01414213562373095</speed>
  <fix>3d</fix>
</trkpt>
<trkpt lat="33.810313" lon="-118.393867">
  <ele>-0.14</ele>
  <time>2026-09-01T01:17:31Z</time>
  <course>0.0</course>
  <speed>0.0</speed>
  <fix>3d</fix>
</trkpt>
<trkpt lat="33.810313" lon="-118.393867">
  <ele>-0.317</ele>
  <time>2026-09-01T01:17:31Z</time>
  <course>187.07</course>
  <speed>0.01414213562373095</speed>
  <fix>3d</fix>
</trkpt>
<trkpt lat="33.810313" lon="-118.393867">
  <ele>-0.21</ele>
  <time>2026-09-01T01:17:31Z</time>
  <course>0.0</course>
  <speed>0.0</speed>
  <fix>3d</fix>
</trkpt>
<trkpt lat="33.810313" lon="-118.393867">
  <ele>-0.382</ele>
  <time>2026-09-01T01:17:31Z</time>
  <course>187.06</course>
  <speed>0.01414213562373095</speed>
  <fix>3d</fix>
</trkpt>
<trkpt lat="33.810313" lon="-118.393867">
  <ele>-0.21</ele>
  <time>2026-09-01T01:17:31Z</time>
  <course>0.0</course>
  <speed>0.0</speed>
  <fix>3d</fix>
</trkpt>
<trkpt lat="33.810313" lon="-118.393867">
  <ele>-0.448</ele>
  <time>2026-09-01T01:17:32Z</time>
  <course>187.06</course>
  <speed>0.01414213562373095</speed>
  <fix>3d</fix>
</trkpt>
<trkpt lat="33.810313" lon="-118.393867">
  <ele>-0.31</ele>
  <time>2026-09-01T01:17:32Z</time>
  <course>0.0</course>
  <speed>0.0</speed>
  <fix>3d</fix>
</trkpt>
<trkpt lat="33.810313" lon="-118.393867">
  <ele>-0.514</ele>
  <time>2026-09-01T01:17:32Z</time>
  <course>187.06</course>
  <speed>0.01414213562373095</speed>
  <fix>3d</fix>
</trkpt>
<trkpt lat="33.810313" lon="-118.393867">
  <ele>-0.31</ele>
  <time>2026-09-01T01:17:32Z</time>
  <course>0.0</course>
  <speed>0.0</speed>
  <fix>3d</fix>
</trkpt>
<trkpt lat="33.810313" lon="-118.393867">
  <ele>-0.58</ele>
  <time>2026-09-01T01:17:32Z</time>
  <course>187.05</course>
  <speed>0.01414213562373095</speed>
  <fix>3d</fix>
</trkpt>
<trkpt lat="33.810313" lon="-118.393867">
  <ele>-0.43</ele>
  <time>2026-09-01T01:17:32Z</time>
  <course>0.0</course>
  <speed>0.0</speed>
  <fix>3d</fix>
</trkpt>
<trkpt lat="33.810313" lon="-118.393867">
  <ele>-0.646</ele>
  <time>2026-09-01T01:17:32Z</time>
  <course>187.05</course>
  <speed>0.01414213562373095</speed>
  <fix>3d</fix>
</trkpt>
<trkpt lat="33.810313" lon="-118.393867">
  <ele>-0.43</ele>
  <time>2026-09-01T01:17:32Z</time>
  <course>0.0</course>
  <speed>0.0</speed>
  <fix>3d</fix>
</trkpt>
<trkpt lat="33.810313" lon="-118.393867">
  <ele>-0.711</ele>
  <time>2026-09-01T01:17:32Z</time>
  <course>187.04</course>
  <speed>0.01414213562373095</speed>
  <fix>3d</fix>
</trkpt>
<trkpt lat="33.810313" lon="-118.393867">
  <ele>-0.55</ele>
  <time>2026-09-01T01:17:32Z</time>
  <course>0.0</course>
  <speed>0.0</speed>
  <fix>3d</fix>
</trkpt>
<trkpt lat="33.810313" lon="-118.393867">
  <ele>-0.775</ele>
  <time>2026-09-01T01:17:32Z</time>
  <course>184.84</course>
  <speed>0.01414213562373095</speed>
  <fix>3d</fix>
</trkpt>
<trkpt lat="33.810313" lon="-118.393867">
  <ele>-0.55</ele>
  <time>2026-09-01T01:17:32Z</time>
  <course>0.0</course>
  <speed>0.0</speed>
  <fix>3d</fix>
</trkpt>
<trkpt lat="33.810313" lon="-118.393867">
  <ele>-0.839</ele>
  <time>2026-09-01T01:17:32Z</time>
  <course>184.83</course>
  <speed>0.01414213562373095</speed>
  <fix>3d</fix>
</trkpt>
<trkpt lat="33.810313" lon="-118.393867">
  <ele>-0.67</ele>
  <time>2026-09-01T01:17:32Z</time>
  <course>0.0</course>
  <speed>0.0</speed>
  <fix>3d</fix>
</trkpt>
<trkpt lat="33.810313" lon="-118.393867">
  <ele>-0.903</ele>
  <time>2026-09-01T01:17:32Z</time>
  <course>184.83</course>
  <speed>0.01414213562373095</speed>
  <fix>3d</fix>
</trkpt>
<trkpt lat="33.810313" lon="-118.393867">
  <ele>-0.67</ele>
  <time>2026-09-01T01:17:32Z</time>
  <course>0.0</course>
  <speed>0.0</speed>
  <fix>3d</fix>
</trkpt>
<trkpt lat="33.810313" lon="-118.393867">
  <ele>-0.966</ele>
  <time>2026-09-01T01:17:32Z</time>
  <course>184.83</course>
  <speed>0.01</speed>
  <fix>3d</fix>
</trkpt>
<trkpt lat="33.810313" lon="-118.393867">
  <ele>-0.79</ele>
  <time>2026-09-01T01:17:32Z</time>
  <course>0.0</course>
  <speed>0.0</speed>
  <fix>3d</fix>
</trkpt>
<trkpt lat="33.810313" lon="-118.393867">
  <ele>-1.029</ele>
  <time>2026-09-01T01:17:32Z</time>
  <course>184.83</course>
  <speed>0.01</speed>
  <fix>3d</fix>
</trkpt>
<trkpt lat="33.810313" lon="-118.393867">
  <ele>-0.79</ele>
  <time>2026-09-01T01:17:32Z</time>
  <course>0.0</course>
  <speed>0.0</speed>
  <fix>3d</fix>
</trkpt>
<trkpt lat="33.810313" lon="-118.393867">
  <ele>-1.094</ele>
  <time>2026-09-01T01:17:32Z</time>
  <course>184.82</course>
  <speed>0.01</speed>
  <fix>3d</fix>
</trkpt>
<trkpt lat="33.810313" lon="-118.393867">
  <ele>-0.91</ele>
  <time>2026-09-01T01:17:32Z</time>
  <course>0.0</course>
  <speed>0.0</speed>
  <fix>3d</fix>
</trkpt>
<trkpt lat="33.810313" lon="-118.393867">
  <ele>-1.157</ele>
  <time>2026-09-01T01:17:32Z</time>
  <course>184.82</course>
  <speed>0.01</speed>
  <fix>3d</fix>
</trkpt>
<trkpt lat="33.810313" lon="-118.393867">
  <ele>-0.91</ele>
  <time>2026-09-01T01:17:32Z</time>
  <course>0.0</course>
  <speed>0.0</speed>
  <fix>3d</fix>
</trkpt>
<trkpt lat="33.810313" lon="-118.393867">
  <ele>-1.22</ele>
  <time>2026-09-01T01:17:32Z</time>
  <course>184.82</course>
  <speed>0.01</speed>
  <fix>3d</fix>
</trkpt>
<trkpt lat="33.810313" lon="-118.393867">
  <ele>-1.03</ele>
  <time>2026-09-01T01:17:32Z</time>
  <course>0.0</course>
  <speed>0.0</speed>
  <fix>3d</fix>
</trkpt>
<trkpt lat="33.810313" lon="-118.393867">
  <ele>-1.284</ele>
  <time>2026-09-01T01:17:32Z</time>
  <course>184.81</course>
  <speed>0.0</speed>
  <fix>3d</fix>
</trkpt>
<trkpt lat="33.810313" lon="-118.393867">
  <ele>-1.03</ele>
  <time>2026-09-01T01:17:32Z</time>
  <course>0.0</course>
  <speed>0.0</speed>
  <fix>3d</fix>
</trkpt>
<trkpt lat="33.810313" lon="-118.393867">
  <ele>-1.346</ele>
  <time>2026-09-01T01:17:32Z</time>
  <course>184.81</course>
  <speed>0.0</speed>
  <fix>3d</fix>
</trkpt>
<trkpt lat="33.810313" lon="-118.393867">
  <ele>-1.16</ele>
  <time>2026-09-01T01:17:32Z</time>
  <course>0.0</course>
  <speed>0.0</speed>
  <fix>3d</fix>
</trkpt>
<trkpt lat="33.810313" lon="-118.393867">
  <ele>-1.407</ele>
  <time>2026-09-01T01:17:32Z</time>
  <course>184.81</course>
  <speed>0.0</speed>
  <fix>3d</fix>
</trkpt>
<trkpt lat="33.810313" lon="-118.393867">
  <ele>-1.16</ele>
  <time>2026-09-01T01:17:32Z</time>
  <course>0.0</course>
  <speed>0.0</speed>
  <fix>3d</fix>
</trkpt>
<trkpt lat="33.810313" lon="-118.393867">
  <ele>-1.469</ele>
  <time>2026-09-01T01:17:32Z</time>
  <course>184.81</course>
  <speed>0.0</speed>
  <fix>3d</fix>
</trkpt>
<trkpt lat="33.810313" lon="-118.393867">
  <ele>-1.28</ele>
  <time>2026-09-01T01:17:32Z</time>
  <course>0.0</course>
  <speed>0.0</speed>
  <fix>3d</fix>
</trkpt>
<trkpt lat="33.810313" lon="-118.393867">
  <ele>-1.531</ele>
  <time>2026-09-01T01:17:32Z</time>
  <course>184.8</course>
  <speed>0.0</speed>
  <fix>3d</fix>
</trkpt>
<trkpt lat="33.810313" lon="-118.393867">
  <ele>-1.28</ele>
  <time>2026-09-01T01:17:32Z</time>
  <course>0.0</course>
  <speed>0.0</speed>
  <fix>3d</fix>
</trkpt>
<trkpt lat="33.810313" lon="-118.393867">
  <ele>-1.592</ele>
  <time>2026-09-01T01:17:32Z</time>
  <course>184.8</course>
  <speed>0.0</speed>
  <fix>3d</fix>
</trkpt>
<trkpt lat="33.810313" lon="-118.393867">
  <ele>-1.4</ele>
  <time>2026-09-01T01:17:32Z</time>
  <course>0.0</course>
  <speed>0.0</speed>
  <fix>3d</fix>
</trkpt>
<trkpt lat="33.810313" lon="-118.393867">
  <ele>-1.655</ele>
  <time>2026-09-01T01:17:32Z</time>
  <course>184.8</course>
  <speed>0.0</speed>
  <fix>3d</fix>
</trkpt>
<trkpt lat="33.810313" lon="-118.393867">
  <ele>-1.4</ele>
  <time>2026-09-01T01:17:32Z</time>
  <course>0.0</course>
  <speed>0.0</speed>
  <fix>3d</fix>
</trkpt>
<trkpt lat="33.810313" lon="-118.393867">
  <ele>-1.717</ele>
  <time>2026-09-01T01:17:32Z</time>
  <course>184.79</course>
  <speed>0.0</speed>
  <fix>3d</fix>
</trkpt>
<trkpt lat="33.810313" lon="-118.393867">
  <ele>-1.52</ele>
  <time>2026-09-01T01:17:32Z</time>
  <course>0.0</course>
  <speed>0.0</speed>
  <fix>3d</fix>
</trkpt>
<trkpt lat="33.810313" lon="-118.393867">
  <ele>-1.778</ele>
  <time>2026-09-01T01:17:32Z</time>
  <course>184.79</course>
  <speed>0.0</speed>
  <fix>3d</fix>
</trkpt>
<trkpt lat="33.810313" lon="-118.393867">
  <ele>-1.52</ele>
  <time>2026-09-01T01:17:32Z</time>
  <course>0.0</course>
  <speed>0.0</speed>
  <fix>3d</fix>
</trkpt>
<trkpt lat="33.810313" lon="-118.393867">
  <ele>-1.838</ele>
  <time>2026-09-01T01:17:32Z</time>
  <course>184.8</course>
  <speed>0.0</speed>
  <fix>3d</fix>
</trkpt>
<trkpt lat="33.810313" lon="-118.393867">
  <ele>-1.64</ele>
  <time>2026-09-01T01:17:32Z</time>
  <course>0.0</course>
  <speed>0.0</speed>
  <fix>3d</fix>
</trkpt>
<trkpt lat="33.810313" lon="-118.393867">
  <ele>-1.891</ele>
  <time>2026-09-01T01:17:32Z</time>
  <course>184.81</course>
  <speed>0.0</speed>
  <fix>3d</fix>
</trkpt>
<trkpt lat="33.810313" lon="-118.393867">
  <ele>-1.64</ele>
  <time>2026-09-01T01:17:32Z</time>
  <course>0.0</course>
  <speed>0.0</speed>
  <fix>3d</fix>
</trkpt>
<trkpt lat="33.810313" lon="-118.393867">
  <ele>-1.931</ele>
  <time>2026-09-01T01:17:32Z</time>
  <course>184.82</course>
  <speed>0.0</speed>
  <fix>3d</fix>
</trkpt>
<trkpt lat="33.810313" lon="-118.393867">
  <ele>-1.75</ele>
  <time>2026-09-01T01:17:32Z</time>
  <course>0.0</course>
  <speed>0.0</speed>
  <fix>3d</fix>
</trkpt>
<trkpt lat="33.810313" lon="-118.393867">
  <ele>-1.961</ele>
  <time>2026-09-01T01:17:32Z</time>
  <course>184.83</course>
  <speed>0.0</speed>
  <fix>3d</fix>
</trkpt>
<trkpt lat="33.810313" lon="-118.393867">
  <ele>-1.75</ele>
  <time>2026-09-01T01:17:32Z</time>
  <course>0.0</course>
  <speed>0.0</speed>
  <fix>3d</fix>
</trkpt>
<trkpt lat="33.810313" lon="-118.393867">
  <ele>-1.985</ele>
  <time>2026-09-01T01:17:32Z</time>
  <course>184.85</course>
  <speed>0.0</speed>
  <fix>3d</fix>
</trkpt>
<trkpt lat="33.810313" lon="-118.393867">
  <ele>-1.83</ele>
  <time>2026-09-01T01:17:32Z</time>
  <course>0.0</course>
  <speed>0.0</speed>
  <fix>3d</fix>
</trkpt>
<trkpt lat="33.810313" lon="-118.393867">
  <ele>-2.004</ele>
  <time>2026-09-01T01:17:32Z</time>
  <course>184.86</course>
  <speed>0.0</speed>
  <fix>3d</fix>
</trkpt>
<trkpt lat="33.810313" lon="-118.393867">
  <ele>-1.83</ele>
  <time>2026-09-01T01:17:32Z</time>
  <course>0.0</course>
  <speed>0.0</speed>
  <fix>3d</fix>
</trkpt>
<trkpt lat="33.810313" lon="-118.393867">
  <ele>-2.018</ele>
  <time>2026-09-01T01:17:32Z</time>
  <course>184.87</course>
  <speed>0.0</speed>
  <fix>3d</fix>
</trkpt>
<trkpt lat="33.810313" lon="-118.393867">
  <ele>-1.89</ele>
  <time>2026-09-01T01:17:32Z</time>
  <course>0.0</course>
  <speed>0.0</speed>
  <fix>3d</fix>
</trkpt>
<trkpt lat="33.810313" lon="-118.393867">
  <ele>-2.03</ele>
  <time>2026-09-01T01:17:32Z</time>
  <course>184.88</course>
  <speed>0.0</speed>
  <fix>3d</fix>
</trkpt>
<trkpt lat="33.810313" lon="-118.393867">
  <ele>-1.89</ele>
  <time>2026-09-01T01:17:32Z</time>
  <course>0.0</course>
  <speed>0.0</speed>
  <fix>3d</fix>
</trkpt>
<trkpt lat="33.810313" lon="-118.393867">
  <ele>-2.04</ele>
  <time>2026-09-01T01:17:32Z</time>
  <course>184.89</course>
  <speed>0.0</speed>
  <fix>3d</fix>
</trkpt>
<trkpt lat="33.810313" lon="-118.393867">
  <ele>-1.93</ele>
  <time>2026-09-01T01:17:32Z</time>
  <course>0.0</course>
  <speed>0.0</speed>
  <fix>3d</fix>
</trkpt>
<trkpt lat="33.810313" lon="-118.393867">
  <ele>-2.048</ele>
  <time>2026-09-01T01:17:32Z</time>
  <course>184.9</course>
  <speed>0.0</speed>
  <fix>3d</fix>
</trkpt>
<trkpt lat="33.810313" lon="-118.393867">
  <ele>-1.93</ele>
  <time>2026-09-01T01:17:32Z</time>
  <course>0.0</course>
  <speed>0.0</speed>
  <fix>3d</fix>
</trkpt>
<trkpt lat="33.810313" lon="-118.393867">
  <ele>-2.055</ele>
  <time>2026-09-01T01:17:32Z</time>
  <course>184.91</course>
  <speed>0.0</speed>
  <fix>3d</fix>
</trkpt>
<trkpt lat="33.810313" lon="-118.393867">
  <ele>-1.96</ele>
  <time>2026-09-01T01:17:32Z</time>
  <course>0.0</course>
  <speed>0.0</speed>
  <fix>3d</fix>
</trkpt>
<trkpt lat="33.810313" lon="-118.393867">
  <ele>-2.061</ele>
  <time>2026-09-01T01:17:32Z</time>
  <course>184.93</course>
  <speed>0.0</speed>
  <fix>3d</fix>
</trkpt>
<trkpt lat="33.810313" lon="-118.393867">
  <ele>-1.96</ele>
  <time>2026-09-01T01:17:32Z</time>
  <course>0.0</course>
  <speed>0.0</speed>
  <fix>3d</fix>
</trkpt>
<trkpt lat="33.810313" lon="-118.393867">
  <ele>-2.066</ele>
  <time>2026-09-01T01:17:32Z</time>
  <course>184.94</course>
  <speed>0.0</speed>
  <fix>3d</fix>
</trkpt>
<trkpt lat="33.810313" lon="-118.393867">
  <ele>-1.98</ele>
  <time>2026-09-01T01:17:32Z</time>
  <course>0.0</course>
  <speed>0.0</speed>
  <fix>3d</fix>
</trkpt>
<trkpt lat="33.810313" lon="-118.393867">
  <ele>-2.07</ele>
  <time>2026-09-01T01:17:32Z</time>
  <course>184.95</course>
  <speed>0.0</speed>
  <fix>3d</fix>
</trkpt>
<trkpt lat="33.810313" lon="-118.393867">
  <ele>-1.98</ele>
  <time>2026-09-01T01:17:32Z</time>
  <course>0.0</course>
  <speed>0.0</speed>
  <fix>3d</fix>
</trkpt>
<trkpt lat="33.810313" lon="-118.393867">
  <ele>-2.072</ele>
  <time>2026-09-01T01:17:32Z</time>
  <course>184.96</course>
  <speed>0.0</speed>
  <fix>3d</fix>
</trkpt>
<trkpt lat="33.810313" lon="-118.393867">
  <ele>-2.0</ele>
  <time>2026-09-01T01:17:32Z</time>
  <course>0.0</course>
  <speed>0.0</speed>
  <fix>3d</fix>
</trkpt>
<trkpt lat="33.810313" lon="-118.393867">
  <ele>-2.074</ele>
  <time>2026-09-01T01:17:32Z</time>
  <course>184.97</course>
  <speed>0.0</speed>
  <fix>3d</fix>
</trkpt>
<trkpt lat="33.810313" lon="-118.393867">
  <ele>-2.0</ele>
  <time>2026-09-01T01:17:32Z</time>
  <course>0.0</course>
  <speed>0.0</speed>
  <fix>3d</fix>
</trkpt>
<trkpt lat="33.810313" lon="-118.393867">
  <ele>-2.075</ele>
  <time>2026-09-01T01:17:32Z</time>
  <course>184.98</course>
  <speed>0.0</speed>
  <fix>3d</fix>
</trkpt>
<trkpt lat="33.810313" lon="-118.393867">
  <ele>-2.01</ele>
  <time>2026-09-01T01:17:32Z</time>
  <course>0.0</course>
  <speed>0.0</speed>
  <fix>3d</fix>
</trkpt>
<trkpt lat="33.810313" lon="-118.393867">
  <ele>-2.076</ele>
  <time>2026-09-01T01:17:32Z</time>
  <course>185.0</course>
  <speed>0.0</speed>
  <fix>3d</fix>
</trkpt>
<trkpt lat="33.810313" lon="-118.393867">
  <ele>-2.01</ele>
  <time>2026-09-01T01:17:32Z</time>
  <course>0.0</course>
  <speed>0.0</speed>
  <fix>3d</fix>
</trkpt>
<trkpt lat="33.810313" lon="-118.393867">
  <ele>-2.076</ele>
  <time>2026-09-01T01:17:32Z</time>
  <course>185.01</course>
  <speed>0.0</speed>
  <fix>3d</fix>
</trkpt>
<trkpt lat="33.810313" lon="-118.393867">
  <ele>-2.02</ele>
  <time>2026-09-01T01:17:32Z</time>
  <course>0.0</course>
  <speed>0.0</speed>
  <fix>3d</fix>
</trkpt>
<trkpt lat="33.810313" lon="-118.393867">
  <ele>-2.077</ele>
  <time>2026-09-01T01:17:32Z</time>
  <course>185.02</course>
  <speed>0.0</speed>
  <fix>3d</fix>
</trkpt>
<trkpt lat="33.810313" lon="-118.393867">
  <ele>-2.02</ele>
  <time>2026-09-01T01:17:32Z</time>
  <course>0.0</course>
  <speed>0.0</speed>
  <fix>3d</fix>
</trkpt>
<trkpt lat="33.810313" lon="-118.393867">
  <ele>-2.078</ele>
  <time>2026-09-01T01:17:32Z</time>
  <course>185.03</course>
  <speed>0.01</speed>
  <fix>3d</fix>
</trkpt>
<trkpt lat="33.810313" lon="-118.393867">
  <ele>-2.03</ele>
  <time>2026-09-01T01:17:32Z</time>
  <course>0.0</course>
  <speed>0.0</speed>
  <fix>3d</fix>
</trkpt>
<trkpt lat="33.810313" lon="-118.393867">
  <ele>-2.078</ele>
  <time>2026-09-01T01:17:32Z</time>
  <course>185.04</course>
  <speed>0.01</speed>
  <fix>3d</fix>
</trkpt>
<trkpt lat="33.810313" lon="-118.393867">
  <ele>-2.03</ele>
  <time>2026-09-01T01:17:32Z</time>
  <course>0.0</course>
  <speed>0.0</speed>
  <fix>3d</fix>
</trkpt>
<trkpt lat="33.810313" lon="-118.393867">
  <ele>-2.079</ele>
  <time>2026-09-01T01:17:32Z</time>
  <course>185.05</course>
  <speed>0.01</speed>
  <fix>3d</fix>
</trkpt>
<trkpt lat="33.810313" lon="-118.393867">
  <ele>-2.03</ele>
  <time>2026-09-01T01:17:32Z</time>
  <course>0.0</course>
  <speed>0.0</speed>
  <fix>3d</fix>
</trkpt>
<trkpt lat="33.810313" lon="-118.393867">
  <ele>-2.08</ele>
  <time>2026-09-01T01:17:32Z</time>
  <course>185.07</course>
  <speed>0.01</speed>
  <fix>3d</fix>
</trkpt>
<trkpt lat="33.810313" lon="-118.393867">
  <ele>-2.03</ele>
  <time>2026-09-01T01:17:32Z</time>
  <course>0.0</course>
  <speed>0.0</speed>
  <fix>3d</fix>
</trkpt>
<trkpt lat="33.810313" lon="-118.393867">
  <ele>-2.081</ele>
  <time>2026-09-01T01:17:32Z</time>
  <course>185.08</course>
  <speed>0.01</speed>
  <fix>3d</fix>
</trkpt>
<trkpt lat="33.810313" lon="-118.393867">
  <ele>-2.04</ele>
  <time>2026-09-01T01:17:32Z</time>
  <course>0.0</course>
  <speed>0.0</speed>
  <fix>3d</fix>
</trkpt>
<trkpt lat="33.810313" lon="-118.393867">
  <ele>-2.082</ele>
  <time>2026-09-01T01:17:32Z</time>
  <course>185.09</course>
  <speed>0.01</speed>
  <fix>3d</fix>
</trkpt>
<trkpt lat="33.810313" lon="-118.393867">
  <ele>-2.04</ele>
  <time>2026-09-01T01:17:32Z</time>
  <course>0.0</course>
  <speed>0.0</speed>
  <fix>3d</fix>
</trkpt>
<trkpt lat="33.810313" lon="-118.393867">
  <ele>-2.081</ele>
  <time>2026-09-01T01:17:32Z</time>
  <course>185.1</course>
  <speed>0.01</speed>
  <fix>3d</fix>
</trkpt>
<trkpt lat="33.810313" lon="-118.393867">
  <ele>-2.03</ele>
  <time>2026-09-01T01:17:32Z</time>
  <course>0.0</course>
  <speed>0.0</speed>
  <fix>3d</fix>
</trkpt>
<trkpt lat="33.810313" lon="-118.393867">
  <ele>-2.08</ele>
  <time>2026-09-01T01:17:32Z</time>
  <course>185.11</course>
  <speed>0.01</speed>
  <fix>3d</fix>
</trkpt>
<trkpt lat="33.810313" lon="-118.393867">
  <ele>-2.03</ele>
  <time>2026-09-01T01:17:32Z</time>
  <course>0.0</course>
  <speed>0.0</speed>
  <fix>3d</fix>
</trkpt>
<trkpt lat="33.810313" lon="-118.393867">
  <ele>-2.079</ele>
  <time>2026-09-01T01:17:32Z</time>
  <course>185.13</course>
  <speed>0.01</speed>
  <fix>3d</fix>
</trkpt>
<trkpt lat="33.810313" lon="-118.393867">
  <ele>-2.03</ele>
  <time>2026-09-01T01:17:32Z</time>
  <course>95.0</course>
  <speed>0.0</speed>
  <fix>3d</fix>
</trkpt>
<trkpt lat="33.810313" lon="-118.393867">
  <ele>-2.079</ele>
  <time>2026-09-01T01:17:32Z</time>
  <course>185.14</course>
  <speed>0.01</speed>
  <fix>3d</fix>
</trkpt>
<trkpt lat="33.810313" lon="-118.393867">
  <ele>-2.03</ele>
  <time>2026-09-01T01:17:32Z</time>
  <course>95.0</course>
  <speed>0.0</speed>
  <fix>3d</fix>
</trkpt>
<trkpt lat="33.810313" lon="-118.393867">
  <ele>-2.078</ele>
  <time>2026-09-01T01:17:32Z</time>
  <course>185.15</course>
  <speed>0.01</speed>
  <fix>3d</fix>
</trkpt>
<trkpt lat="33.810313" lon="-118.393867">
  <ele>-2.03</ele>
  <time>2026-09-01T01:17:32Z</time>
  <course>275.0</course>
  <speed>0.0</speed>
  <fix>3d</fix>
</trkpt>
<trkpt lat="33.810313" lon="-118.393867">
  <ele>-2.077</ele>
  <time>2026-09-01T01:17:32Z</time>
  <course>185.14</course>
  <speed>0.01414213562373095</speed>
  <fix>3d</fix>
</trkpt>
<trkpt lat="33.810313" lon="-118.393867">
  <ele>-2.03</ele>
  <time>2026-09-01T01:17:32Z</time>
  <course>275.0</course>
  <speed>0.0</speed>
  <fix>3d</fix>
</trkpt>
<trkpt lat="33.810313" lon="-118.393867">
  <ele>-2.076</ele>
  <time>2026-09-01T01:17:32Z</time>
  <course>185.11</course>
  <speed>0.0316227766016838</speed>
  <fix>3d</fix>
</trkpt>
<trkpt lat="33.810313" lon="-118.393867">
  <ele>-2.03</ele>
  <time>2026-09-01T01:17:32Z</time>
  <course>185.46</course>
  <speed>0.01</speed>
  <fix>3d</fix>
</trkpt>
<trkpt lat="33.810313" lon="-118.393867">
  <ele>-2.076</ele>
  <time>2026-09-01T01:17:32Z</time>
  <course>185.08</course>
  <speed>0.05099019513592785</speed>
  <fix>3d</fix>
</trkpt>
<trkpt lat="33.810313" lon="-118.393867">
  <ele>-2.03</ele>
  <time>2026-09-01T01:17:32Z</time>
  <course>185.46</course>
  <speed>0.01</speed>
  <fix>3d</fix>
</trkpt>
<trkpt lat="33.810313" lon="-118.393867">
  <ele>-2.076</ele>
  <time>2026-09-01T01:17:32Z</time>
  <course>185.06</course>
  <speed>0.07071067811865475</speed>
  <fix>3d</fix>
</trkpt>
<trkpt lat="33.8103129" lon="-118.393867">
  <ele>-2.03</ele>
  <time>2026-09-01T01:17:32Z</time>
  <course>185.08</course>
  <speed>0.05</speed>
  <fix>3d</fix>
</trkpt>
<trkpt lat="33.8103129" lon="-118.393867">
  <ele>-2.077</ele>
  <time>2026-09-01T01:17:32Z</time>
  <course>185.05</course>
  <speed>0.09055385138137417</speed>
  <fix>3d</fix>
</trkpt>
<trkpt lat="33.8103129" lon="-118.393867">
  <ele>-2.03</ele>
  <time>2026-09-01T01:17:32Z</time>
  <course>185.08</course>
  <speed>0.05</speed>
  <fix>3d</fix>
</trkpt>
<trkpt lat="33.8103128" lon="-118.3938671">
  <ele>-2.077</ele>
  <time>2026-09-01T01:17:32Z</time>
  <course>185.05</course>
  <speed>0.1019803902718557</speed>
  <fix>3d</fix>
</trkpt>
<trkpt lat="33.8103128" lon="-118.393867">
  <ele>-2.03</ele>
  <time>2026-09-01T01:17:32Z</time>
  <course>184.79</course>
  <speed>0.09</speed>
  <fix>3d</fix>
</trkpt>
<trkpt lat="33.8103127" lon="-118.3938671">
  <ele>-2.077</ele>
  <time>2026-09-01T01:17:32Z</time>
  <course>185.05</course>
  <speed>0.1118033988749895</speed>
  <fix>3d</fix>
</trkpt>
<trkpt lat="33.8103128" lon="-118.393867">
  <ele>-2.03</ele>
  <time>2026-09-01T01:17:32Z</time>
  <course>184.79</course>
  <speed>0.09</speed>
  <fix>3d</fix>
</trkpt>
<trkpt lat="33.8103125" lon="-118.3938671">
  <ele>-2.077</ele>
  <time>2026-09-01T01:17:32Z</time>
  <course>185.05</course>
  <speed>0.12165525060596438</speed>
  <fix>3d</fix>
</trkpt>
<trkpt lat="33.8103126" lon="-118.393867">
  <ele>-2.03</ele>
  <time>2026-09-01T01:17:32Z</time>
  <course>184.63</course>
  <speed>0.12</speed>
  <fix>3d</fix>
</trkpt>
<trkpt lat="33.8103124" lon="-118.3938671">
  <ele>-2.077</ele>
  <time>2026-09-01T01:17:32Z</time>
  <course>185.05</course>
  <speed>0.13152946437965907</speed>
  <fix>3d</fix>
</trkpt>
<trkpt lat="33.8103126" lon="-118.393867">
  <ele>-2.03</ele>
  <time>2026-09-01T01:17:32Z</time>
  <course>184.63</course>
  <speed>0.12</speed>
  <fix>3d</fix>
</trkpt>
<trkpt lat="33.8103123" lon="-118.3938671">
  <ele>-2.076</ele>
  <time>2026-09-01T01:17:32Z</time>
  <course>185.05</course>
  <speed>0.1414213562373095</speed>
  <fix>3d</fix>
</trkpt>
<trkpt lat="33.8103124" lon="-118.393867">
  <ele>-2.03</ele>
  <time>2026-09-01T01:17:32Z</time>
  <course>184.65</course>
  <speed>0.14</speed>
  <fix>3d</fix>
</trkpt>
<trkpt lat="33.8103121" lon="-118.3938671">
  <ele>-2.077</ele>
  <time>2026-09-01T01:17:32Z</time>
  <course>185.05</course>
  <speed>0.15132745950421556</speed>
  <fix>3d</fix>
</trkpt>
<trkpt lat="33.8103124" lon="-118.393867">
  <ele>-2.03</ele>
  <time>2026-09-01T01:17:32Z</time>
  <course>184.65</course>
  <speed>0.14</speed>
  <fix>3d</fix>
</trkpt>
<trkpt lat="33.810312" lon="-118.3938671">
  <ele>-2.078</ele>
  <time>2026-09-01T01:17:32Z</time>
  <course>185.05</course>
  <speed>0.15132745950421556</speed>
  <fix>3d</fix>
</trkpt>
<trkpt lat="33.8103121" lon="-118.393867">
  <ele>-2.03</ele>
  <time>2026-09-01T01:17:32Z</time>
  <course>184.77</course>
  <speed>0.16</speed>
  <fix>3d</fix>
</trkpt>
<trkpt lat="33.8103118" lon="-118.3938671">
  <ele>-2.079</ele>
  <time>2026-09-01T01:17:32Z</time>
  <course>185.05</course>
  <speed>0.16124515496597097</speed>
  <fix>3d</fix>
</trkpt>
<trkpt lat="33.8103121" lon="-118.393867">
  <ele>-2.03</ele>
  <time>2026-09-01T01:17:32Z</time>
  <course>184.77</course>
  <speed>0.16</speed>
  <fix>3d</fix>
</trkpt>
<trkpt lat="33.8103117" lon="-118.3938672">
  <ele>-2.079</ele>
  <time>2026-09-01T01:17:32Z</time>
  <course>185.06</course>
  <speed>0.16124515496597097</speed>
  <fix>3d</fix>
</trkpt>
<trkpt lat="33.8103118" lon="-118.3938671">
  <ele>-2.03</ele>
  <time>2026-09-01T01:17:32Z</time>
  <course>184.97</course>
  <speed>0.17</speed>
  <fix>3d</fix>
</trkpt>
<trkpt lat="33.8103115" lon="-118.3938672">
  <ele>-2.079</ele>
  <time>2026-09-01T01:17:32Z</time>
  <course>185.05</course>
  <speed>0.16124515496597097</speed>
  <fix>3d</fix>
</trkpt>
<trkpt lat="33.8103118" lon="-118.3938671">
  <ele>-2.03</ele>
  <time>2026-09-01T01:17:32Z</time>
  <course>184.97</course>
  <speed>0.17</speed>
  <fix>3d</fix>
</trkpt>
<trkpt lat="33.8103114" lon="-118.3938672">
  <ele>-2.078</ele>
  <time>2026-09-01T01:17:32Z</time>
  <course>185.05</course>
  <speed>0.1711724276862369</speed>
  <fix>3d</fix>
</trkpt>
<trkpt lat="33.8103115" lon="-118.3938671">
  <ele>-2.03</ele>
  <time>2026-09-01T01:17:32Z</time>
  <course>185.13</course>
  <speed>0.18</speed>
  <fix>3d</fix>
</trkpt>
<trkpt lat="33.8103112" lon="-118.3938672">
  <ele>-2.077</ele>
  <time>2026-09-01T01:17:32Z</time>
  <course>185.05</course>
  <speed>0.1711724276862369</speed>
  <fix>3d</fix>
</trkpt>
<trkpt lat="33.8103115" lon="-118.3938671">
  <ele>-2.03</ele>
  <time>2026-09-01T01:17:32Z</time>
  <course>185.13</course>
  <speed>0.18</speed>
  <fix>3d</fix>
</trkpt>
<trkpt lat="33.810311" lon="-118.3938672">
  <ele>-2.077</ele>
  <time>2026-09-01T01:17:32Z</time>
  <course>185.05</course>
  <speed>0.1711724276862369</speed>
  <fix>3d</fix>
</trkpt>
<trkpt lat="33.8103111" lon="-118.3938671">
  <ele>-2.03</ele>
  <time>2026-09-01T01:17:32Z</time>
  <course>185.15</course>
  <speed>0.19</speed>
  <fix>3d</fix>
</trkpt>
<trkpt lat="33.8103109" lon="-118.3938672">
  <ele>-2.076</ele>
  <time>2026-09-01T01:17:32Z</time>
  <course>185.05</course>
  <speed>0.1711724276862369</speed>
  <fix>3d</fix>
</trkpt>
<trkpt lat="33.8103111" lon="-118.3938671">
  <ele>-2.03</ele>
  <time>2026-09-01T01:17:32Z</time>
  <course>185.15</course>
  <speed>0.19</speed>
  <fix>3d</fix>
</trkpt>
<trkpt lat="33.8103107" lon="-118.3938673">
  <ele>-2.077</ele>
  <time>2026-09-01T01:17:32Z</time>
  <course>185.05</course>
  <speed>0.17262676501632068</speed>
  <fix>3d</fix>
</trkpt>
<trkpt lat="33.8103107" lon="-118.3938672">
  <ele>-2.03</ele>
  <time>2026-09-01T01:17:32Z</time>
  <course>185.14</course>
  <speed>0.19</speed>
  <fix>3d</fix>
</trkpt>
<trkpt lat="33.8103105" lon="-118.3938673">
  <ele>-2.078</ele>
  <time>2026-09-01T01:17:32Z</time>
  <course>185.05</course>
  <speed>0.17262676501632068</speed>
  <fix>3d</fix>
</trkpt>
<trkpt lat="33.8103107" lon="-118.3938672">
  <ele>-2.03</ele>
  <time>2026-09-01T01:17:32Z</time>
  <course>185.14</course>
  <speed>0.19</speed>
  <fix>3d</fix>
</trkpt>
<trkpt lat="33.8103104" lon="-118.3938673">
  <ele>-2.078</ele>
  <time>2026-09-01T01:17:32Z</time>
  <course>185.05</course>
  <speed>0.17262676501632068</speed>
  <fix>3d</fix>
</trkpt>
<trkpt lat="33.8103104" lon="-118.3938672">
  <ele>-2.03</ele>
  <time>2026-09-01T01:17:32Z</time>
  <course>185.11</course>
  <speed>0.19</speed>
  <fix>3d</fix>
</trkpt>
<trkpt lat="33.8103102" lon="-118.3938673">
  <ele>-2.078</ele>
  <time>2026-09-01T01:17:32Z</time>
  <course>185.05</course>
  <speed>0.17262676501632068</speed>
  <fix>3d</fix>
</trkpt>
<trkpt lat="33.8103104" lon="-118.3938672">
  <ele>-2.03</ele>
  <time>2026-09-01T01:17:32Z</time>
  <course>185.11</course>
  <speed>0.19</speed>
  <fix>3d</fix>
</trkpt>
<trkpt lat="33.81031" lon="-118.3938673">
  <ele>-2.079</ele>
  <time>2026-09-01T01:17:32Z</time>
  <course>185.06</course>
  <speed>0.1711724276862369</speed>
  <fix>3d</fix>
</trkpt>
<trkpt lat="33.81031" lon="-118.3938672">
  <ele>-2.03</ele>
  <time>2026-09-01T01:17:32Z</time>
  <course>185.0</course>
  <speed>0.19</speed>
  <fix>3d</fix>
</trkpt>
<trkpt lat="33.8103098" lon="-118.3938673">
  <ele>-2.079</ele>
  <time>2026-09-01T01:17:32Z</time>
  <course>185.06</course>
  <speed>0.17262676501632068</speed>
  <fix>3d</fix>
</trkpt>
<trkpt lat="33.81031" lon="-118.3938672">
  <ele>-2.03</ele>
  <time>2026-09-01T01:17:32Z</time>
  <course>185.0</course>
  <speed>0.19</speed>
  <fix>3d</fix>
</trkpt>
<trkpt lat="33.8103097" lon="-118.3938674">
  <ele>-2.08</ele>
  <time>2026-09-01T01:17:32Z</time>
  <course>185.06</course>
  <speed>0.17262676501632068</speed>
  <fix>3d</fix>
</trkpt>
<trkpt lat="33.8103097" lon="-118.3938673">
  <ele>-2.03</ele>
  <time>2026-09-01T01:17:32Z</time>
  <course>184.9</course>
  <speed>0.19</speed>
  <fix>3d</fix>
</trkpt>
<trkpt lat="33.8103095" lon="-118.3938674">
  <ele>-2.081</ele>
  <time>2026-09-01T01:17:32Z</time>
  <course>185.06</course>
  <speed>0.17262676501632068</speed>
  <fix>3d</fix>
</trkpt>
<trkpt lat="33.8103097" lon="-118.3938673">
  <ele>-2.03</ele>
  <time>2026-09-01T01:17:32Z</time>
  <course>184.9</course>
  <speed>0.19</speed>
  <fix>3d</fix>
</trkpt>
<trkpt lat="33.8103093" lon="-118.3938674">
  <ele>-2.082</ele>
  <time>2026-09-01T01:17:32Z</time>
  <course>185.06</course>
  <speed>0.17262676501632068</speed>
  <fix>3d</fix>
</trkpt>
<trkpt lat="33.8103093" lon="-118.3938673">
  <ele>-2.03</ele>
  <time>2026-09-01T01:17:32Z</time>
  <course>184.83</course>
  <speed>0.19</speed>
  <fix>3d</fix>
</trkpt>
<trkpt lat="33.8103091" lon="-118.3938674">
  <ele>-2.082</ele>
  <time>2026-09-01T01:17:32Z</time>
  <course>185.06</course>
  <speed>0.16278820596099705</speed>
  <fix>3d</fix>
</trkpt>
<trkpt lat="33.8103093" lon="-118.3938673">
  <ele>-2.03</ele>
  <time>2026-09-01T01:17:32Z</time>
  <course>184.83</course>
  <speed>0.19</speed>
  <fix>3d</fix>
</trkpt>
<trkpt lat="33.810309" lon="-118.3938674">
  <ele>-2.081</ele>
  <time>2026-09-01T01:17:32Z</time>
  <course>185.06</course>
  <speed>0.16278820596099705</speed>
  <fix>3d</fix>
</trkpt>
<trkpt lat="33.810309" lon="-118.3938673">
  <ele>-2.03</ele>
  <time>2026-09-01T01:17:32Z</time>
  <course>184.69</course>
  <speed>0.19</speed>
  <fix>3d</fix>
</trkpt>
<trkpt lat="33.8103088" lon="-118.3938675">
  <ele>-2.079</ele>
  <time>2026-09-01T01:17:32Z</time>
  <course>185.06</course>
  <speed>0.16278820596099705</speed>
  <fix>3d</fix>
</trkpt>
<trkpt lat="33.810309" lon="-118.3938673">
  <ele>-2.03</ele>
  <time>2026-09-01T01:17:32Z</time>
  <course>184.69</course>
  <speed>0.19</speed>
  <fix>3d</fix>
</trkpt>
<trkpt lat="33.8103086" lon="-118.3938675">
  <ele>-2.075</ele>
  <time>2026-09-01T01:17:32Z</time>
  <course>185.06</course>
  <speed>0.16278820596099705</speed>
  <fix>3d</fix>
</trkpt>
<trkpt lat="33.8103086" lon="-118.3938674">
  <ele>-2.02</ele>
  <time>2026-09-01T01:17:32Z</time>
  <course>184.57</course>
  <speed>0.19</speed>
  <fix>3d</fix>
</trkpt>
<trkpt lat="33.8103085" lon="-118.3938675">
  <ele>-2.073</ele>
  <time>2026-09-01T01:17:32Z</time>
  <course>185.07</course>
  <speed>0.15297058540778355</speed>
  <fix>3d</fix>
</trkpt>
<trkpt lat="33.8103086" lon="-118.3938674">
  <ele>-2.02</ele>
  <time>2026-09-01T01:17:32Z</time>
  <course>184.57</course>
  <speed>0.19</speed>
  <fix>3d</fix>
</trkpt>
<trkpt lat="33.8103083" lon="-118.3938675">
  <ele>-2.072</ele>
  <time>2026-09-01T01:17:32Z</time>
  <course>185.07</course>
  <speed>0.1414213562373095</speed>
  <fix>3d</fix>
</trkpt>
<trkpt lat="33.8103083" lon="-118.3938674">
  <ele>-2.02</ele>
  <time>2026-09-01T01:17:32Z</time>
  <course>184.51</course>
  <speed>0.18</speed>
  <fix>3d</fix>
</trkpt>
<trkpt lat="33.8103082" lon="-118.3938675">
  <ele>-2.072</ele>
  <time>2026-09-01T01:17:32Z</time>
  <course>185.07</course>
  <speed>0.13152946437965907</speed>
  <fix>3d</fix>
</trkpt>
<trkpt lat="33.8103083" lon="-118.3938674">
  <ele>-2.02</ele>
  <time>2026-09-01T01:17:32Z</time>
  <course>184.51</course>
  <speed>0.18</speed>
  <fix>3d</fix>
</trkpt>
<trkpt lat="33.810308" lon="-118.3938675">
  <ele>-2.072</ele>
  <time>2026-09-01T01:17:32Z</time>
  <course>185.08</course>
  <speed>0.1118033988749895</speed>
  <fix>3d</fix>
</trkpt>
<trkpt lat="33.810308" lon="-118.3938674">
  <ele>-2.02</ele>
  <time>2026-09-01T01:17:32Z</time>
  <course>184.44</course>
  <speed>0.16</speed>
  <fix>3d</fix>
</trkpt>
<trkpt lat="33.8103079" lon="-118.3938675">
  <ele>-2.071</ele>
  <time>2026-09-01T01:17:32Z</time>
  <course>185.09</course>
  <speed>0.1019803902718557</speed>
  <fix>3d</fix>
</trkpt>
<trkpt lat="33.810308" lon="-118.3938674">
  <ele>-2.02</ele>
  <time>2026-09-01T01:17:32Z</time>
  <course>184.44</course>
  <speed>0.16</speed>
  <fix>3d</fix>
</trkpt>
<trkpt lat="33.8103078" lon="-118.3938676">
  <ele>-2.072</ele>
  <time>2026-09-01T01:17:32Z</time>
  <course>185.07</course>
  <speed>0.0824621125123532</speed>
  <fix>3d</fix>
</trkpt>
<trkpt lat="33.8103077" lon="-118.3938675">
  <ele>-2.02</ele>
  <time>2026-09-01T01:17:32Z</time>
  <course>184.13</course>
  <speed>0.13</speed>
  <fix>3d</fix>
</trkpt>
<trkpt lat="33.8103077" lon="-118.3938676">
  <ele>-2.074</ele>
  <time>2026-09-01T01:17:32Z</time>
  <course>185.05</course>
  <speed>0.07280109889280519</speed>
  <fix>3d</fix>
</trkpt>
<trkpt lat="33.8103077" lon="-118.3938675">
  <ele>-2.02</ele>
  <time>2026-09-01T01:17:32Z</time>
  <course>184.13</course>
  <speed>0.13</speed>
  <fix>3d</fix>
</trkpt>
<trkpt lat="33.8103076" lon="-118.3938676">
  <ele>-2.076</ele>
  <time>2026-09-01T01:17:32Z</time>
  <course>185.04</course>
  <speed>0.053851648071345036</speed>
  <fix>3d</fix>
</trkpt>
<trkpt lat="33.8103076" lon="-118.3938675">
  <ele>-2.02</ele>
  <time>2026-09-01T01:17:32Z</time>
  <course>183.48</course>
  <speed>0.1</speed>
  <fix>3d</fix>
</trkpt>
<trkpt lat="33.8103076" lon="-118.3938676">
  <ele>-2.077</ele>
  <time>2026-09-01T01:17:32Z</time>
  <course>185.05</course>
  <speed>0.044721359549995794</speed>
  <fix>3d</fix>
</trkpt>
<trkpt lat="33.8103076" lon="-118.3938675">
  <ele>-2.02</ele>
  <time>2026-09-01T01:17:32Z</time>
  <course>183.48</course>
  <speed>0.1</speed>
  <fix>3d</fix>
</trkpt>
<trkpt lat="33.8103075" lon="-118.3938676">
  <ele>-2.079</ele>
  <time>2026-09-01T01:17:32Z</time>
  <course>185.06</course>
  <speed>0.0316227766016838</speed>
  <fix>3d</fix>
</trkpt>
<trkpt lat="33.8103074" lon="-118.3938675">
  <ele>-2.03</ele>
  <time>2026-09-01T01:17:32Z</time>
  <course>182.69</course>
  <speed>0.08</speed>
  <fix>3d</fix>
</trkpt>
<trkpt lat="33.8103075" lon="-118.3938676">
  <ele>-2.079</ele>
  <time>2026-09-01T01:17:32Z</time>
  <course>185.07</course>
  <speed>0.022360679774997897</speed>
  <fix>3d</fix>
</trkpt>
<trkpt lat="33.8103074" lon="-118.3938675">
  <ele>-2.03</ele>
  <time>2026-09-01T01:17:32Z</time>
  <course>182.69</course>
  <speed>0.08</speed>
  <fix>3d</fix>
</trkpt>
<trkpt lat="33.8103074" lon="-118.3938676">
  <ele>-2.08</ele>
  <time>2026-09-01T01:17:32Z</time>
  <course>185.05</course>
  <speed>0.01414213562373095</speed>
  <fix>3d</fix>
</trkpt>
<trkpt lat="33.8103072" lon="-118.3938675">
  <ele>-2.03</ele>
  <time>2026-09-01T01:17:32Z</time>
  <course>181.15</course>
  <speed>0.05</speed>
  <fix>3d</fix>
</trkpt>
<trkpt lat="33.8103074" lon="-118.3938676">
  <ele>-2.081</ele>
  <time>2026-09-01T01:17:32Z</time>
  <course>185.04</course>
  <speed>0.01</speed>
  <fix>3d</fix>
</trkpt>
<trkpt lat="33.8103072" lon="-118.3938675">
  <ele>-2.03</ele>
  <time>2026-09-01T01:17:32Z</time>
  <course>181.15</course>
  <speed>0.05</speed>
  <fix>3d</fix>
</trkpt>
<trkpt lat="33.8103074" lon="-118.3938676">
  <ele>-2.081</ele>
  <time>2026-09-01T01:17:32Z</time>
  <course>185.05</course>
  <speed>0.01</speed>
  <fix>3d</fix>
</trkpt>
<trkpt lat="33.8103071" lon="-118.3938675">
  <ele>-2.03</ele>
  <time>2026-09-01T01:17:32Z</time>
  <course>178.21</course>
  <speed>0.03</speed>
  <fix>3d</fix>
</trkpt>
<trkpt lat="33.8103073" lon="-118.3938676">
  <ele>-2.081</ele>
  <time>2026-09-01T01:17:32Z</time>
  <course>185.08</course>
  <speed>0.01</speed>
  <fix>3d</fix>
</trkpt>
<trkpt lat="33.8103071" lon="-118.3938675">
  <ele>-2.03</ele>
  <time>2026-09-01T01:17:32Z</time>
  <course>178.21</course>
  <speed>0.03</speed>
  <fix>3d</fix>
</trkpt>
<trkpt lat="33.8103073" lon="-118.3938676">
  <ele>-2.081</ele>
  <time>2026-09-01T01:17:32Z</time>
  <course>185.11</course>
  <speed>0.01414213562373095</speed>
  <fix>3d</fix>
</trkpt>
<trkpt lat="33.810307" lon="-118.3938675">
  <ele>-2.03</ele>
  <time>2026-09-01T01:17:32Z</time>
  <course>173.3</course>
  <speed>0.02</speed>
  <fix>3d</fix>
</trkpt>
<trkpt lat="33.8103073" lon="-118.3938676">
  <ele>-2.08</ele>
  <time>2026-09-01T01:17:32Z</time>
  <course>185.12</course>
  <speed>0.01414213562373095</speed>
  <fix>3d</fix>
</trkpt>
<trkpt lat="33.810307" lon="-118.3938675">
  <ele>-2.03</ele>
  <time>2026-09-01T01:17:32Z</time>
  <course>173.3</course>
  <speed>0.02</speed>
  <fix>3d</fix>
</trkpt>
<trkpt lat="33.8103073" lon="-118.3938676">
  <ele>-2.079</ele>
  <time>2026-09-01T01:17:32Z</time>
  <course>185.12</course>
  <speed>0.022360679774997897</speed>
  <fix>3d</fix>
</trkpt>
<trkpt lat="33.810307" lon="-118.3938675">
  <ele>-2.03</ele>
  <time>2026-09-01T01:17:32Z</time>
  <course>164.9</course>
  <speed>0.01</speed>
  <fix>3d</fix>
</trkpt>
<trkpt lat="33.8103073" lon="-118.3938676">
  <ele>-2.078</ele>
  <time>2026-09-01T01:17:32Z</time>
  <course>185.12</course>
  <speed>0.022360679774997897</speed>
  <fix>3d</fix>
</trkpt>
<trkpt lat="33.810307" lon="-118.3938675">
  <ele>-2.03</ele>
  <time>2026-09-01T01:17:32Z</time>
  <course>164.9</course>
  <speed>0.01</speed>
  <fix>3d</fix>
</trkpt>
<trkpt lat="33.8103073" lon="-118.3938676">
  <ele>-2.077</ele>
  <time>2026-09-01T01:17:32Z</time>
  <course>185.13</course>
  <speed>0.022360679774997897</speed>
  <fix>3d</fix>
</trkpt>
<trkpt lat="33.810307" lon="-118.3938675">
  <ele>-2.02</ele>
  <time>2026-09-01T01:17:32Z</time>
  <course>144.83</course>
  <speed>0.0</speed>
  <fix>3d</fix>
</trkpt>
<trkpt lat="33.8103073" lon="-118.3938676">
  <ele>-2.076</ele>
  <time>2026-09-01T01:17:32Z</time>
  <course>185.11</course>
  <speed>0.022360679774997897</speed>
  <fix>3d</fix>
</trkpt>
<trkpt lat="33.810307" lon="-118.3938675">
  <ele>-2.02</ele>
  <time>2026-09-01T01:17:32Z</time>
  <course>144.83</course>
  <speed>0.0</speed>
  <fix>3d</fix>
</trkpt>
<trkpt lat="33.8103073" lon="-118.3938676">
  <ele>-2.077</ele>
  <time>2026-09-01T01:17:32Z</time>
  <course>185.09</course>
  <speed>0.022360679774997897</speed>
  <fix>3d</fix>
</trkpt>
<trkpt lat="33.810307" lon="-118.3938675">
  <ele>-2.02</ele>
  <time>2026-09-01T01:17:32Z</time>
  <course>93.63</course>
  <speed>0.0</speed>
  <fix>3d</fix>
</trkpt>
<trkpt lat="33.8103073" lon="-118.3938676">
  <ele>-2.077</ele>
  <time>2026-09-01T01:17:32Z</time>
  <course>185.07</course>
  <speed>0.0316227766016838</speed>
  <fix>3d</fix>
</trkpt>
<trkpt lat="33.810307" lon="-118.3938675">
  <ele>-2.02</ele>
  <time>2026-09-01T01:17:32Z</time>
  <course>93.63</course>
  <speed>0.0</speed>
  <fix>3d</fix>
</trkpt>
<trkpt lat="33.8103073" lon="-118.3938676">
  <ele>-2.078</ele>
  <time>2026-09-01T01:17:32Z</time>
  <course>185.06</course>
  <speed>0.0316227766016838</speed>
  <fix>3d</fix>
</trkpt>
<trkpt lat="33.810307" lon="-118.3938675">
  <ele>-2.02</ele>
  <time>2026-09-01T01:17:32Z</time>
  <course>55.34</course>
  <speed>0.0</speed>
  <fix>3d</fix>
</trkpt>
<trkpt lat="33.8103072" lon="-118.3938676">
  <ele>-2.08</ele>
  <time>2026-09-01T01:17:32Z</time>
  <course>185.06</course>
  <speed>0.0316227766016838</speed>
  <fix>3d</fix>
</trkpt>
<trkpt lat="33.810307" lon="-118.3938675">
  <ele>-2.02</ele>
  <time>2026-09-01T01:17:32Z</time>
  <course>55.34</course>
  <speed>0.0</speed>
  <fix>3d</fix>
</trkpt>
<trkpt lat="33.8103072" lon="-118.3938676">
  <ele>-2.079</ele>
  <time>2026-09-01T01:17:32Z</time>
  <course>185.05</course>
  <speed>0.0316227766016838</speed>
  <fix>3d</fix>
</trkpt>
<trkpt lat="33.810307" lon="-118.3938675">
  <ele>-2.02</ele>
  <time>2026-09-01T01:17:32Z</time>
  <course>45.97</course>
  <speed>0.0</speed>
  <fix>3d</fix>
</trkpt>
<trkpt lat="33.8103072" lon="-118.3938676">
  <ele>-2.078</ele>
  <time>2026-09-01T01:17:32Z</time>
  <course>185.06</course>
  <speed>0.0316227766016838</speed>
  <fix>3d</fix>
</trkpt>
<trkpt lat="33.810307" lon="-118.3938675">
  <ele>-2.02</ele>
  <time>2026-09-01T01:17:32Z</time>
  <course>45.97</course>
  <speed>0.0</speed>
  <fix>3d</fix>
</trkpt>
<trkpt lat="33.8103072" lon="-118.3938676">
  <ele>-2.076</ele>
  <time>2026-09-01T01:17:32Z</time>
  <course>185.07</course>
  <speed>0.0316227766016838</speed>
  <fix>3d</fix>
</trkpt>
<trkpt lat="33.810307" lon="-118.3938675">
  <ele>-2.02</ele>
  <time>2026-09-01T01:17:32Z</time>
  <course>45.04</course>
  <speed>0.0</speed>
  <fix>3d</fix>
</trkpt>
<trkpt lat="33.8103072" lon="-118.3938676">
  <ele>-2.075</ele>
  <time>2026-09-01T01:17:32Z</time>
  <course>185.08</course>
  <speed>0.0316227766016838</speed>
  <fix>3d</fix>
</trkpt>
<trkpt lat="33.810307" lon="-118.3938675">
  <ele>-2.02</ele>
  <time>2026-09-01T01:17:32Z</time>
  <course>45.04</course>
  <speed>0.0</speed>
  <fix>3d</fix>
</trkpt>
<trkpt lat="33.8103072" lon="-118.3938676">
  <ele>-2.074</ele>
  <time>2026-09-01T01:17:32Z</time>
  <course>185.09</course>
  <speed>0.0316227766016838</speed>
  <fix>3d</fix>
</trkpt>
<trkpt lat="33.810307" lon="-118.3938675">
  <ele>-2.02</ele>
  <time>2026-09-01T01:17:32Z</time>
  <course>44.75</course>
  <speed>0.0</speed>
  <fix>3d</fix>
</trkpt>
<trkpt lat="33.8103072" lon="-118.3938676">
  <ele>-2.075</ele>
  <time>2026-09-01T01:17:32Z</time>
  <course>185.11</course>
  <speed>0.0316227766016838</speed>
  <fix>3d</fix>
</trkpt>
<trkpt lat="33.810307" lon="-118.3938675">
  <ele>-2.02</ele>
  <time>2026-09-01T01:17:32Z</time>
  <course>44.75</course>
  <speed>0.0</speed>
  <fix>3d</fix>
</trkpt>
<trkpt lat="33.8103072" lon="-118.3938676">
  <ele>-2.076</ele>
  <time>2026-09-01T01:17:32Z</time>
  <course>185.11</course>
  <speed>0.0316227766016838</speed>
  <fix>3d</fix>
</trkpt>
<trkpt lat="33.810307" lon="-118.3938675">
  <ele>-2.02</ele>
  <time>2026-09-01T01:17:32Z</time>
  <course>43.06</course>
  <speed>0.0</speed>
  <fix>3d</fix>
</trkpt>
<trkpt lat="33.8103072" lon="-118.3938676">
  <ele>-2.076</ele>
  <time>2026-09-01T01:17:32Z</time>
  <course>185.13</course>
  <speed>0.0316227766016838</speed>
  <fix>3d</fix>
</trkpt>
<trkpt lat="33.810307" lon="-118.3938675">
  <ele>-2.02</ele>
  <time>2026-09-01T01:17:32Z</time>
  <course>43.06</course>
  <speed>0.0</speed>
  <fix>3d</fix>
</trkpt>
<trkpt lat="33.8103072" lon="-118.3938676">
  <ele>-2.076</ele>
  <time>2026-09-01T01:17:32Z</time>
  <course>185.14</course>
  <speed>0.0316227766016838</speed>
  <fix>3d</fix>
</trkpt>
<trkpt lat="33.810307" lon="-118.3938675">
  <ele>-2.02</ele>
  <time>2026-09-01T01:17:32Z</time>
  <course>41.77</course>
  <speed>0.0</speed>
  <fix>3d</fix>
</trkpt>
<trkpt lat="33.8103072" lon="-118.3938676">
  <ele>-2.076</ele>
  <time>2026-09-01T01:17:32Z</time>
  <course>185.14</course>
  <speed>0.02</speed>
  <fix>3d</fix>
</trkpt>
<trkpt lat="33.810307" lon="-118.3938675">
  <ele>-2.02</ele>
  <time>2026-09-01T01:17:32Z</time>
  <course>41.77</course>
  <speed>0.0</speed>
  <fix>3d</fix>
</trkpt>
<trkpt lat="33.8103072" lon="-118.3938676">
  <ele>-2.076</ele>
  <time>2026-09-01T01:17:32Z</time>
  <course>185.11</course>
  <speed>0.044721359549995794</speed>
  <fix>3d</fix>
</trkpt>
<trkpt lat="33.810307" lon="-118.3938675">
  <ele>-2.02</ele>
  <time>2026-09-01T01:17:32Z</time>
  <course>167.12</course>
  <speed>0.01</speed>
  <fix>3d</fix>
</trkpt>
<trkpt lat="33.8103072" lon="-118.3938676">
  <ele>-2.075</ele>
  <time>2026-09-01T01:17:32Z</time>
  <course>185.08</course>
  <speed>0.07280109889280519</speed>
  <fix>3d</fix>
</trkpt>
<trkpt lat="33.810307" lon="-118.3938675">
  <ele>-2.02</ele>
  <time>2026-09-01T01:17:32Z</time>
  <course>167.12</course>
  <speed>0.01</speed>
  <fix>3d</fix>
</trkpt>
<trkpt lat="33.8103071" lon="-118.3938676">
  <ele>-2.074</ele>
  <time>2026-09-01T01:17:32Z</time>
  <course>185.06</course>
  <speed>0.1019803902718557</speed>
  <fix>3d</fix>
</trkpt>
<trkpt lat="33.810307" lon="-118.3938675">
  <ele>-2.02</ele>
  <time>2026-09-01T01:17:32Z</time>
  <course>179.5</course>
  <speed>0.07</speed>
  <fix>3d</fix>
</trkpt>
<trkpt lat="33.8103069" lon="-118.3938676">
  <ele>-2.073</ele>
  <time>2026-09-01T01:17:32Z</time>
  <course>185.04</course>
  <speed>0.13341664064126335</speed>
  <fix>3d</fix>
</trkpt>
<trkpt lat="33.810307" lon="-118.3938675">
  <ele>-2.02</ele>
  <time>2026-09-01T01:17:32Z</time>
  <course>179.5</course>
  <speed>0.07</speed>
  <fix>3d</fix>
</trkpt>
<trkpt lat="33.8103068" lon="-118.3938676">
  <ele>-2.073</ele>
  <time>2026-09-01T01:17:32Z</time>
  <course>185.04</course>
  <speed>0.15297058540778355</speed>
  <fix>3d</fix>
</trkpt>
<trkpt lat="33.8103068" lon="-118.3938675">
  <ele>-2.02</ele>
  <time>2026-09-01T01:17:32Z</time>
  <course>181.34</course>
  <speed>0.13</speed>
  <fix>3d</fix>
</trkpt>
<trkpt lat="33.8103066" lon="-118.3938677">
  <ele>-2.073</ele>
  <time>2026-09-01T01:17:32Z</time>
  <course>185.05</course>
  <speed>0.17262676501632068</speed>
  <fix>3d</fix>
</trkpt>
<trkpt lat="33.8103068" lon="-118.3938675">
  <ele>-2.02</ele>
  <time>2026-09-01T01:17:32Z</time>
  <course>181.34</course>
  <speed>0.13</speed>
  <fix>3d</fix>
</trkpt>
<trkpt lat="33.8103065" lon="-118.3938677">
  <ele>-2.074</ele>
  <time>2026-09-01T01:17:32Z</time>
  <course>185.05</course>
  <speed>0.19235384061671343</speed>
  <fix>3d</fix>
</trkpt>
<trkpt lat="33.8103065" lon="-118.3938675">
  <ele>-2.02</ele>
  <time>2026-09-01T01:17:32Z</time>
  <course>182.05</course>
  <speed>0.18</speed>
  <fix>3d</fix>
</trkpt>
<trkpt lat="33.8103063" lon="-118.3938677">
  <ele>-2.076</ele>
  <time>2026-09-01T01:17:32Z</time>
  <course>185.05</course>
  <speed>0.20223748416156684</speed>
  <fix>3d</fix>
</trkpt>
<trkpt lat="33.8103065" lon="-118.3938675">
  <ele>-2.02</ele>
  <time>2026-09-01T01:17:32Z</time>
  <course>182.05</course>
  <speed>0.18</speed>
  <fix>3d</fix>
</trkpt>
<trkpt lat="33.810306" lon="-118.3938677">
  <ele>-2.079</ele>
  <time>2026-09-01T01:17:32Z</time>
  <course>185.04</course>
  <speed>0.223606797749979</speed>
  <fix>3d</fix>
</trkpt>
<trkpt lat="33.8103062" lon="-118.3938675">
  <ele>-2.02</ele>
  <time>2026-09-01T01:17:32Z</time>
  <course>182.58</course>
  <speed>0.22</speed>
  <fix>3d</fix>
</trkpt>
<trkpt lat="33.8103058" lon="-118.3938677">
  <ele>-2.082</ele>
  <time>2026-09-01T01:17:32Z</time>
  <course>185.04</course>
  <speed>0.23345235059857505</speed>
  <fix>3d</fix>
</trkpt>
<trkpt lat="33.8103062" lon="-118.3938675">
  <ele>-2.02</ele>
  <time>2026-09-01T01:17:32Z</time>
  <course>182.58</course>
  <speed>0.22</speed>
  <fix>3d</fix>
</trkpt>
<trkpt lat="33.8103056" lon="-118.3938677">
  <ele>-2.083</ele>
  <time>2026-09-01T01:17:32Z</time>
  <course>185.03</course>
  <speed>0.24331050121192876</speed>
  <fix>3d</fix>
</trkpt>
<trkpt lat="33.8103057" lon="-118.3938675">
  <ele>-2.03</ele>
  <time>2026-09-01T01:17:32Z</time>
  <course>183.09</course>
  <speed>0.25</speed>
  <fix>3d</fix>
</trkpt>
<trkpt lat="33.8103054" lon="-118.3938678">
  <ele>-2.083</ele>
  <time>2026-09-01T01:17:32Z</time>
  <course>185.03</course>
  <speed>0.25317977802344327</speed>
  <fix>3d</fix>
</trkpt>
<trkpt lat="33.8103057" lon="-118.3938675">
  <ele>-2.03</ele>
  <time>2026-09-01T01:17:32Z</time>
  <course>183.09</course>
  <speed>0.25</speed>
  <fix>3d</fix>
</trkpt>
<trkpt lat="33.8103051" lon="-118.3938678">
  <ele>-2.083</ele>
  <time>2026-09-01T01:17:32Z</time>
  <course>185.02</course>
  <speed>0.25317977802344327</speed>
  <fix>3d</fix>
</trkpt>
<trkpt lat="33.8103052" lon="-118.3938675">
  <ele>-2.03</ele>
  <time>2026-09-01T01:17:32Z</time>
  <course>183.64</course>
  <speed>0.27</speed>
  <fix>3d</fix>
</trkpt>
<trkpt lat="33.8103049" lon="-118.3938678">
  <ele>-2.082</ele>
  <time>2026-09-01T01:17:32Z</time>
  <course>185.02</course>
  <speed>0.26476404589747454</speed>
  <fix>3d</fix>
</trkpt>
<trkpt lat="33.8103052" lon="-118.3938675">
  <ele>-2.03</ele>
  <time>2026-09-01T01:17:32Z</time>
  <course>183.64</course>
  <speed>0.27</speed>
  <fix>3d</fix>
</trkpt>
<trkpt lat="33.8103046" lon="-118.3938678">
  <ele>-2.08</ele>
  <time>2026-09-01T01:17:32Z</time>
  <course>185.02</course>
  <speed>0.26476404589747454</speed>
  <fix>3d</fix>
</trkpt>
<trkpt lat="33.8103047" lon="-118.3938675">
  <ele>-2.03</ele>
  <time>2026-09-01T01:17:32Z</time>
  <course>184.25</course>
  <speed>0.29</speed>
  <fix>3d</fix>
</trkpt>
<trkpt lat="33.8103043" lon="-118.3938679">
  <ele>-2.078</ele>
  <time>2026-09-01T01:17:32Z</time>
  <course>185.02</course>
  <speed>0.2745906043549196</speed>
  <fix>3d</fix>
</trkpt>
<trkpt lat="33.8103047" lon="-118.3938675">
  <ele>-2.03</ele>
  <time>2026-09-01T01:17:32Z</time>
  <course>184.25</course>
  <speed>0.29</speed>
  <fix>3d</fix>
</trkpt>
<trkpt lat="33.8103041" lon="-118.3938679">
  <ele>-2.076</ele>
  <time>2026-09-01T01:17:32Z</time>
  <course>185.02</course>
  <speed>0.2745906043549196</speed>
  <fix>3d</fix>
</trkpt>
<trkpt lat="33.8103042" lon="-118.3938676">
  <ele>-2.02</ele>
  <time>2026-09-01T01:17:32Z</time>
  <course>184.94</course>
  <speed>0.3</speed>
  <fix>3d</fix>
</trkpt>
<trkpt lat="33.8103038" lon="-118.3938679">
  <ele>-2.075</ele>
  <time>2026-09-01T01:17:32Z</time>
  <course>185.02</course>
  <speed>0.2745906043549196</speed>
  <fix>3d</fix>
</trkpt>
<trkpt lat="33.8103042" lon="-118.3938676">
  <ele>-2.02</ele>
  <time>2026-09-01T01:17:32Z</time>
  <course>184.94</course>
  <speed>0.3</speed>
  <fix>3d</fix>
</trkpt>
<trkpt lat="33.8103035" lon="-118.3938679">
  <ele>-2.074</ele>
  <time>2026-09-01T01:17:32Z</time>
  <course>185.02</course>
  <speed>0.2745906043549196</speed>
  <fix>3d</fix>
</trkpt>
<trkpt lat="33.8103036" lon="-118.3938676">
  <ele>-2.02</ele>
  <time>2026-09-01T01:17:32Z</time>
  <course>185.6</course>
  <speed>0.3</speed>
  <fix>3d</fix>
</trkpt>
<trkpt lat="33.8103032" lon="-118.393868">
  <ele>-2.074</ele>
  <time>2026-09-01T01:17:32Z</time>
  <course>185.02</course>
  <speed>0.28442925306655786</speed>
  <fix>3d</fix>
</trkpt>
<trkpt lat="33.8103036" lon="-118.3938676">
  <ele>-2.02</ele>
  <time>2026-09-01T01:17:32Z</time>
  <course>185.6</course>
  <speed>0.3</speed>
  <fix>3d</fix>
</trkpt>
<trkpt lat="33.810303" lon="-118.393868">
  <ele>-2.074</ele>
  <time>2026-09-01T01:17:32Z</time>
  <course>185.02</course>
  <speed>0.28442925306655786</speed>
  <fix>3d</fix>
</trkpt>
<trkpt lat="33.8103031" lon="-118.3938677">
  <ele>-2.02</ele>
  <time>2026-09-01T01:17:32Z</time>
  <course>186.15</course>
  <speed>0.31</speed>
  <fix>3d</fix>
</trkpt>
<trkpt lat="33.8103027" lon="-118.393868">
  <ele>-2.074</ele>
  <time>2026-09-01T01:17:32Z</time>
  <course>185.02</course>
  <speed>0.28442925306655786</speed>
  <fix>3d</fix>
</trkpt>
<trkpt lat="33.8103031" lon="-118.3938677">
  <ele>-2.02</ele>
  <time>2026-09-01T01:17:32Z</time>
  <course>186.15</course>
  <speed>0.31</speed>
  <fix>3d</fix>
</trkpt>
<trkpt lat="33.8103024" lon="-118.393868">
  <ele>-2.075</ele>
  <time>2026-09-01T01:17:32Z</time>
  <course>185.03</course>
  <speed>0.28442925306655786</speed>
  <fix>3d</fix>
</trkpt>
<trkpt lat="33.8103026" lon="-118.3938678">
  <ele>-2.02</ele>
  <time>2026-09-01T01:17:32Z</time>
  <course>186.57</course>
  <speed>0.31</speed>
  <fix>3d</fix>
</trkpt>
<trkpt lat="33.8103021" lon="-118.3938681">
  <ele>-2.075</ele>
  <time>2026-09-01T01:17:32Z</time>
  <course>185.03</course>
  <speed>0.28442925306655786</speed>
  <fix>3d</fix>
</trkpt>
<trkpt lat="33.8103026" lon="-118.3938678">
  <ele>-2.02</ele>
  <time>2026-09-01T01:17:32Z</time>
  <course>186.57</course>
  <speed>0.31</speed>
  <fix>3d</fix>
</trkpt>
<trkpt lat="33.8103018" lon="-118.3938681">
  <ele>-2.076</ele>
  <time>2026-09-01T01:17:32Z</time>
  <course>185.03</course>
  <speed>0.28442925306655786</speed>
  <fix>3d</fix>
</trkpt>
<trkpt lat="33.8103019" lon="-118.3938678">
  <ele>-2.02</ele>
  <time>2026-09-01T01:17:32Z</time>
  <course>186.8</course>
  <speed>0.31</speed>
  <fix>3d</fix>
</trkpt>
<trkpt lat="33.8103016" lon="-118.3938681">
  <ele>-2.076</ele>
  <time>2026-09-01T01:17:32Z</time>
  <course>185.02</course>
  <speed>0.28442925306655786</speed>
  <fix>3d</fix>
</trkpt>
<trkpt lat="33.8103019" lon="-118.3938678">
  <ele>-2.02</ele>
  <time>2026-09-01T01:17:32Z</time>
  <course>186.8</course>
  <speed>0.31</speed>
  <fix>3d</fix>
</trkpt>
<trkpt lat="33.8103013" lon="-118.3938682">
  <ele>-2.077</ele>
  <time>2026-09-01T01:17:32Z</time>
  <course>185.02</course>
  <speed>0.28442925306655786</speed>
  <fix>3d</fix>
</trkpt>
<trkpt lat="33.8103014" lon="-118.3938679">
  <ele>-2.02</ele>
  <time>2026-09-01T01:17:32Z</time>
  <course>186.92</course>
  <speed>0.32</speed>
  <fix>3d</fix>
</trkpt>
<trkpt lat="33.810301" lon="-118.3938682">
  <ele>-2.077</ele>
  <time>2026-09-01T01:17:32Z</time>
  <course>185.02</course>
  <speed>0.28442925306655786</speed>
  <fix>3d</fix>
</trkpt>
<trkpt lat="33.8103014" lon="-118.3938679">
  <ele>-2.02</ele>
  <time>2026-09-01T01:17:32Z</time>
  <course>186.92</course>
  <speed>0.32</speed>
  <fix>3d</fix>
</trkpt>
<trkpt lat="33.8103007" lon="-118.3938682">
  <ele>-2.077</ele>
  <time>2026-09-01T01:17:32Z</time>
  <course>185.03</course>
  <speed>0.28442925306655786</speed>
  <fix>3d</fix>
</trkpt>
<trkpt lat="33.8103008" lon="-118.393868">
  <ele>-2.02</ele>
  <time>2026-09-01T01:17:32Z</time>
  <course>187.03</course>
  <speed>0.32</speed>
  <fix>3d</fix>
</trkpt>
<trkpt lat="33.8103004" lon="-118.3938683">
  <ele>-2.077</ele>
  <time>2026-09-01T01:17:32Z</time>
  <course>185.03</course>
  <speed>0.28442925306655786</speed>
  <fix>3d</fix>
</trkpt>
<trkpt lat="33.8103008" lon="-118.393868">
  <ele>-2.02</ele>
  <time>2026-09-01T01:17:32Z</time>
  <course>187.03</course>
  <speed>0.32</speed>
  <fix>3d</fix>
</trkpt>
<trkpt lat="33.8103001" lon="-118.3938683">
  <ele>-2.077</ele>
  <time>2026-09-01T01:17:32Z</time>
  <course>185.03</course>
  <speed>0.28442925306655786</speed>
  <fix>3d</fix>
</trkpt>
<trkpt lat="33.8103002" lon="-118.3938681">
  <ele>-2.02</ele>
  <time>2026-09-01T01:17:32Z</time>
  <course>187.12</course>
  <speed>0.32</speed>
  <fix>3d</fix>
</trkpt>
<trkpt lat="33.8102998" lon="-118.3938683">
  <ele>-2.077</ele>
  <time>2026-09-01T01:17:32Z</time>
  <course>185.03</course>
  <speed>0.2745906043549196</speed>
  <fix>3d</fix>
</trkpt>
<trkpt lat="33.8103002" lon="-118.3938681">
  <ele>-2.02</ele>
  <time>2026-09-01T01:17:32Z</time>
  <course>187.12</course>
  <speed>0.32</speed>
  <fix>3d</fix>
</trkpt>
<trkpt lat="33.8102996" lon="-118.3938684">
  <ele>-2.078</ele>
  <time>2026-09-01T01:17:32Z</time>
  <course>185.04</course>
  <speed>0.23345235059857505</speed>
  <fix>3d</fix>
</trkpt>
<trkpt lat="33.8102997" lon="-118.3938682">
  <ele>-2.02</ele>
  <time>2026-09-01T01:17:32Z</time>
  <course>187.2</course>
  <speed>0.3</speed>
  <fix>3d</fix>
</trkpt>
<trkpt lat="33.8102994" lon="-118.3938684">
  <ele>-2.079</ele>
  <time>2026-09-01T01:17:32Z</time>
  <course>185.04</course>
  <speed>0.2039607805437114</speed>
  <fix>3d</fix>
</trkpt>
<trkpt lat="33.8102997" lon="-118.3938682">
  <ele>-2.02</ele>
  <time>2026-09-01T01:17:32Z</time>
  <course>187.2</course>
  <speed>0.3</speed>
  <fix>3d</fix>
</trkpt>
<trkpt lat="33.8102992" lon="-118.3938684">
  <ele>-2.078</ele>
  <time>2026-09-01T01:17:32Z</time>
  <course>185.04</course>
  <speed>0.18439088914585774</speed>
  <fix>3d</fix>
</trkpt>
<trkpt lat="33.8102992" lon="-118.3938683">
  <ele>-2.02</ele>
  <time>2026-09-01T01:17:32Z</time>
  <course>187.61</course>
  <speed>0.26</speed>
  <fix>3d</fix>
</trkpt>
<trkpt lat="33.810299" lon="-118.3938685">
  <ele>-2.076</ele>
  <time>2026-09-01T01:17:32Z</time>
  <course>185.05</course>
  <speed>0.1649242250247064</speed>
  <fix>3d</fix>
</trkpt>
<trkpt lat="33.8102992" lon="-118.3938683">
  <ele>-2.02</ele>
  <time>2026-09-01T01:17:32Z</time>
  <course>187.61</course>
  <speed>0.26</speed>
  <fix>3d</fix>
</trkpt>
<trkpt lat="33.8102988" lon="-118.3938685">
  <ele>-2.075</ele>
  <time>2026-09-01T01:17:32Z</time>
  <course>185.08</course>
  <speed>0.14317821063276354</speed>
  <fix>3d</fix>
</trkpt>
<trkpt lat="33.8102988" lon="-118.3938683">
  <ele>-2.02</ele>
  <time>2026-09-01T01:17:32Z</time>
  <course>188.2</course>
  <speed>0.21</speed>
  <fix>3d</fix>
</trkpt>
<trkpt lat="33.8102987" lon="-118.3938685">
  <ele>-2.075</ele>
  <time>2026-09-01T01:17:32Z</time>
  <course>185.08</course>
  <speed>0.12369316876852982</speed>
  <fix>3d</fix>
</trkpt>
<trkpt lat="33.8102988" lon="-118.3938683">
  <ele>-2.02</ele>
  <time>2026-09-01T01:17:32Z</time>
  <course>188.2</course>
  <speed>0.21</speed>
  <fix>3d</fix>
</trkpt>
<trkpt lat="33.8102985" lon="-118.3938685">
  <ele>-2.076</ele>
  <time>2026-09-01T01:17:32Z</time>
  <course>185.07</course>
  <speed>0.1044030650891055</speed>
  <fix>3d</fix>
</trkpt>
<trkpt lat="33.8102984" lon="-118.3938684">
  <ele>-2.02</ele>
  <time>2026-09-01T01:17:32Z</time>
  <course>188.42</course>
  <speed>0.17</speed>
  <fix>3d</fix>
</trkpt>
<trkpt lat="33.8102984" lon="-118.3938685">
  <ele>-2.078</ele>
  <time>2026-09-01T01:17:32Z</time>
  <course>185.06</course>
  <speed>0.0824621125123532</speed>
  <fix>3d</fix>
</trkpt>
<trkpt lat="33.8102984" lon="-118.3938684">
  <ele>-2.02</ele>
  <time>2026-09-01T01:17:32Z</time>
  <course>188.42</course>
  <speed>0.17</speed>
  <fix>3d</fix>
</trkpt>
<trkpt lat="33.8102983" lon="-118.3938685">
  <ele>-2.078</ele>
  <time>2026-09-01T01:17:32Z</time>
  <course>185.05</course>
  <speed>0.0632455532033676</speed>
  <fix>3d</fix>
</trkpt>
<trkpt lat="33.8102982" lon="-118.3938685">
  <ele>-2.02</ele>
  <time>2026-09-01T01:17:32Z</time>
  <course>188.73</course>
  <speed>0.13</speed>
  <fix>3d</fix>
</trkpt>
<trkpt lat="33.8102982" lon="-118.3938686">
  <ele>-2.077</ele>
  <time>2026-09-01T01:17:32Z</time>
  <course>185.06</course>
  <speed>0.053851648071345036</speed>
  <fix>3d</fix>
</trkpt>
<trkpt lat="33.8102982" lon="-118.3938685">
  <ele>-2.02</ele>
  <time>2026-09-01T01:17:32Z</time>
  <course>188.73</course>
  <speed>0.13</speed>
  <fix>3d</fix>
</trkpt>
<trkpt lat="33.8102982" lon="-118.3938686">
  <ele>-2.076</ele>
  <time>2026-09-01T01:17:32Z</time>
  <course>185.06</course>
  <speed>0.03605551275463989</speed>
  <fix>3d</fix>
</trkpt>
<trkpt lat="33.810298" lon="-118.3938685">
  <ele>-2.02</ele>
  <time>2026-09-01T01:17:32Z</time>
  <course>189.42</course>
  <speed>0.09</speed>
  <fix>3d</fix>
</trkpt>
<trkpt lat="33.8102981" lon="-118.3938686">
  <ele>-2.075</ele>
  <time>2026-09-01T01:17:32Z</time>
  <course>185.07</course>
  <speed>0.022360679774997897</speed>
  <fix>3d</fix>
</trkpt>
<trkpt lat="33.810298" lon="-118.3938685">
  <ele>-2.02</ele>
  <time>2026-09-01T01:17:32Z</time>
  <course>189.42</course>
  <speed>0.09</speed>
  <fix>3d</fix>
</trkpt>
<trkpt lat="33.8102981" lon="-118.3938686">
  <ele>-2.073</ele>
  <time>2026-09-01T01:17:32Z</time>
  <course>185.08</course>
  <speed>0.01414213562373095</speed>
  <fix>3d</fix>
</trkpt>
<trkpt lat="33.8102978" lon="-118.3938685">
  <ele>-2.02</ele>
  <time>2026-09-01T01:17:32Z</time>
  <course>190.29</course>
  <speed>0.06</speed>
  <fix>3d</fix>
</trkpt>
<trkpt lat="33.810298" lon="-118.3938686">
  <ele>-2.072</ele>
  <time>2026-09-01T01:17:32Z</time>
  <course>185.08</course>
  <speed>0.01</speed>
  <fix>3d</fix>
</trkpt>
<trkpt lat="33.8102978" lon="-118.3938685">
  <ele>-2.02</ele>
  <time>2026-09-01T01:17:32Z</time>
  <course>190.29</course>
  <speed>0.06</speed>
  <fix>3d</fix>
</trkpt>
<trkpt lat="33.810298" lon="-118.3938686">
  <ele>-2.073</ele>
  <time>2026-09-01T01:17:32Z</time>
  <course>185.08</course>
  <speed>0.01</speed>
  <fix>3d</fix>
</trkpt>
<trkpt lat="33.8102977" lon="-118.3938686">
  <ele>-2.02</ele>
  <time>2026-09-01T01:17:32Z</time>
  <course>191.98</course>
  <speed>0.03</speed>
  <fix>3d</fix>
</trkpt>
<trkpt lat="33.810298" lon="-118.3938686">
  <ele>-2.075</ele>
  <time>2026-09-01T01:17:32Z</time>
  <course>185.06</course>
  <speed>0.01414213562373095</speed>
  <fix>3d</fix>
</trkpt>
<trkpt lat="33.8102977" lon="-118.3938686">
  <ele>-2.02</ele>
  <time>2026-09-01T01:17:32Z</time>
  <course>191.98</course>
  <speed>0.03</speed>
  <fix>3d</fix>
</trkpt>
<trkpt lat="33.810298" lon="-118.3938686">
  <ele>-2.078</ele>
  <time>2026-09-01T01:17:32Z</time>
  <course>185.05</course>
  <speed>0.022360679774997897</speed>
  <fix>3d</fix>
</trkpt>
<trkpt lat="33.8102977" lon="-118.3938686">
  <ele>-2.02</ele>
  <time>2026-09-01T01:17:32Z</time>
  <course>194.42</course>
  <speed>0.01</speed>
  <fix>3d</fix>
</trkpt>
<trkpt lat="33.810298" lon="-118.3938686">
  <ele>-2.08</ele>
  <time>2026-09-01T01:17:32Z</time>
  <course>185.07</course>
  <speed>0.022360679774997897</speed>
  <fix>3d</fix>
</trkpt>
<trkpt lat="33.8102977" lon="-118.3938686">
  <ele>-2.02</ele>
  <time>2026-09-01T01:17:32Z</time>
  <course>194.42</course>
  <speed>0.01</speed>
  <fix>3d</fix>
</trkpt>
<trkpt lat="33.810298" lon="-118.3938686">
  <ele>-2.081</ele>
  <time>2026-09-01T01:17:32Z</time>
  <course>185.1</course>
  <speed>0.02</speed>
  <fix>3d</fix>
</trkpt>
<trkpt lat="33.8102977" lon="-118.3938686">
  <ele>-2.03</ele>
  <time>2026-09-01T01:17:32Z</time>
  <course>199.08</course>
  <speed>0.0</speed>
  <fix>3d</fix>
</trkpt>
<trkpt lat="33.810298" lon="-118.3938686">
  <ele>-2.081</ele>
  <time>2026-09-01T01:17:32Z</time>
  <course>185.11</course>
  <speed>0.03</speed>
  <fix>3d</fix>
</trkpt>
<trkpt lat="33.8102977" lon="-118.3938686">
  <ele>-2.03</ele>
  <time>2026-09-01T01:17:32Z</time>
  <course>199.08</course>
  <speed>0.0</speed>
  <fix>3d</fix>
</trkpt>
<trkpt lat="33.810298" lon="-118.3938686">
  <ele>-2.08</ele>
  <time>2026-09-01T01:17:32Z</time>
  <course>185.12</course>
  <speed>0.03</speed>
  <fix>3d</fix>
</trkpt>
<trkpt lat="33.8102977" lon="-118.3938686">
  <ele>-2.03</ele>
  <time>2026-09-01T01:17:32Z</time>
  <course>5.73</course>
  <speed>0.0</speed>
  <fix>3d</fix>
</trkpt>
<trkpt lat="33.810298" lon="-118.3938686">
  <ele>-2.079</ele>
  <time>2026-09-01T01:17:32Z</time>
  <course>185.12</course>
  <speed>0.03</speed>
  <fix>3d</fix>
</trkpt>
<trkpt lat="33.8102977" lon="-118.3938686">
  <ele>-2.03</ele>
  <time>2026-09-01T01:17:32Z</time>
  <course>5.73</course>
  <speed>0.0</speed>
  <fix>3d</fix>
</trkpt>
<trkpt lat="33.810298" lon="-118.3938686">
  <ele>-2.078</ele>
  <time>2026-09-01T01:17:32Z</time>
  <course>185.13</course>
  <speed>0.03</speed>
  <fix>3d</fix>
</trkpt>
<trkpt lat="33.8102977" lon="-118.3938686">
  <ele>-2.03</ele>
  <time>2026-09-01T01:17:32Z</time>
  <course>10.82</course>
  <speed>0.0</speed>
  <fix>3d</fix>
</trkpt>
<trkpt lat="33.810298" lon="-118.3938686">
  <ele>-2.078</ele>
  <time>2026-09-01T01:17:32Z</time>
  <course>185.13</course>
  <speed>0.03</speed>
  <fix>3d</fix>
</trkpt>
<trkpt lat="33.8102977" lon="-118.3938686">
  <ele>-2.03</ele>
  <time>2026-09-01T01:17:32Z</time>
  <course>10.82</course>
  <speed>0.0</speed>
  <fix>3d</fix>
</trkpt>
<trkpt lat="33.810298" lon="-118.3938686">
  <ele>-2.079</ele>
  <time>2026-09-01T01:17:32Z</time>
  <course>185.13</course>
  <speed>0.03</speed>
  <fix>3d</fix>
</trkpt>
<trkpt lat="33.8102977" lon="-118.3938686">
  <ele>-2.03</ele>
  <time>2026-09-01T01:17:32Z</time>
  <course>13.14</course>
  <speed>0.0</speed>
  <fix>3d</fix>
</trkpt>
<trkpt lat="33.810298" lon="-118.3938686">
  <ele>-2.079</ele>
  <time>2026-09-01T01:17:32Z</time>
  <course>185.14</course>
  <speed>0.03</speed>
  <fix>3d</fix>
</trkpt>
<trkpt lat="33.8102977" lon="-118.3938686">
  <ele>-2.03</ele>
  <time>2026-09-01T01:17:32Z</time>
  <course>13.14</course>
  <speed>0.0</speed>
  <fix>3d</fix>
</trkpt>
<trkpt lat="33.810298" lon="-118.3938686">
  <ele>-2.078</ele>
  <time>2026-09-01T01:17:32Z</time>
  <course>185.15</course>
  <speed>0.03</speed>
  <fix>3d</fix>
</trkpt>
<trkpt lat="33.8102977" lon="-118.3938686">
  <ele>-2.02</ele>
  <time>2026-09-01T01:17:32Z</time>
  <course>15.26</course>
  <speed>0.0</speed>
  <fix>3d</fix>
</trkpt>
<trkpt lat="33.810298" lon="-118.3938686">
  <ele>-2.076</ele>
  <time>2026-09-01T01:17:32Z</time>
  <course>185.14</course>
  <speed>0.03</speed>
  <fix>3d</fix>
</trkpt>
<trkpt lat="33.8102977" lon="-118.3938686">
  <ele>-2.02</ele>
  <time>2026-09-01T01:17:32Z</time>
  <course>15.26</course>
  <speed>0.0</speed>
  <fix>3d</fix>
</trkpt>
<trkpt lat="33.810298" lon="-118.3938686">
  <ele>-2.076</ele>
  <time>2026-09-01T01:17:32Z</time>
  <course>185.12</course>
  <speed>0.03</speed>
  <fix>3d</fix>
</trkpt>
<trkpt lat="33.8102977" lon="-118.3938686">
  <ele>-2.02</ele>
  <time>2026-09-01T01:17:32Z</time>
  <course>17.21</course>
  <speed>0.0</speed>
  <fix>3d</fix>
</trkpt>
<trkpt lat="33.810298" lon="-118.3938686">
  <ele>-2.075</ele>
  <time>2026-09-01T01:17:32Z</time>
  <course>185.12</course>
  <speed>0.03</speed>
  <fix>3d</fix>
</trkpt>
<trkpt lat="33.8102977" lon="-118.3938686">
  <ele>-2.02</ele>
  <time>2026-09-01T01:17:32Z</time>
  <course>17.21</course>
  <speed>0.0</speed>
  <fix>3d</fix>
</trkpt>
<trkpt lat="33.810298" lon="-118.3938686">
  <ele>-2.074</ele>
  <time>2026-09-01T01:17:32Z</time>
  <course>185.13</course>
  <speed>0.03</speed>
  <fix>3d</fix>
</trkpt>
<trkpt lat="33.8102977" lon="-118.3938686">
  <ele>-2.02</ele>
  <time>2026-09-01T01:17:32Z</time>
  <course>18.73</course>
  <speed>0.0</speed>
  <fix>3d</fix>
</trkpt>
<trkpt lat="33.810298" lon="-118.3938686">
  <ele>-2.073</ele>
  <time>2026-09-01T01:17:32Z</time>
  <course>185.13</course>
  <speed>0.03</speed>
  <fix>3d</fix>
</trkpt>
<trkpt lat="33.8102977" lon="-118.3938686">
  <ele>-2.02</ele>
  <time>2026-09-01T01:17:32Z</time>
  <course>18.73</course>
  <speed>0.0</speed>
  <fix>3d</fix>
</trkpt>
<trkpt lat="33.810298" lon="-118.3938686">
  <ele>-2.073</ele>
  <time>2026-09-01T01:17:32Z</time>
  <course>185.13</course>
  <speed>0.03</speed>
  <fix>3d</fix>
</trkpt>
<trkpt lat="33.8102977" lon="-118.3938686">
  <ele>-2.02</ele>
  <time>2026-09-01T01:17:32Z</time>
  <course>20.17</course>
  <speed>0.0</speed>
  <fix>3d</fix>
</trkpt>
<trkpt lat="33.810298" lon="-118.3938686">
  <ele>-2.073</ele>
  <time>2026-09-01T01:17:32Z</time>
  <course>185.13</course>
  <speed>0.03</speed>
  <fix>3d</fix>
</trkpt>
<trkpt lat="33.8102977" lon="-118.3938686">
  <ele>-2.02</ele>
  <time>2026-09-01T01:17:32Z</time>
  <course>20.17</course>
  <speed>0.0</speed>
  <fix>3d</fix>
</trkpt>
<trkpt lat="33.810298" lon="-118.3938686">
  <ele>-2.074</ele>
  <time>2026-09-01T01:17:32Z</time>
  <course>185.11</course>
  <speed>0.01414213562373095</speed>
  <fix>3d</fix>
</trkpt>
<trkpt lat="33.8102977" lon="-118.3938686">
  <ele>-2.02</ele>
  <time>2026-09-01T01:17:32Z</time>
  <course>26.2</course>
  <speed>0.0</speed>
  <fix>3d</fix>
</trkpt>
<trkpt lat="33.8102979" lon="-118.3938686">
  <ele>-2.074</ele>
  <time>2026-09-01T01:17:32Z</time>
  <course>185.08</course>
  <speed>0.08062257748298549</speed>
  <fix>3d</fix>
</trkpt>
<trkpt lat="33.8102977" lon="-118.3938686">
  <ele>-2.02</ele>
  <time>2026-09-01T01:17:32Z</time>
  <course>26.2</course>
  <speed>0.0</speed>
  <fix>3d</fix>
</trkpt>
<trkpt lat="33.8102978" lon="-118.3938686">
  <ele>-2.074</ele>
  <time>2026-09-01T01:17:32Z</time>
  <course>185.06</course>
  <speed>0.13152946437965907</speed>
  <fix>3d</fix>
</trkpt>
<trkpt lat="33.8102977" lon="-118.3938686">
  <ele>-2.02</ele>
  <time>2026-09-01T01:17:32Z</time>
  <course>178.98</course>
  <speed>0.05</speed>
  <fix>3d</fix>
</trkpt>
<trkpt lat="33.8102977" lon="-118.3938686">
  <ele>-2.076</ele>
  <time>2026-09-01T01:17:32Z</time>
  <course>185.05</course>
  <speed>0.1711724276862369</speed>
  <fix>3d</fix>
</trkpt>
<trkpt lat="33.8102977" lon="-118.3938686">
  <ele>-2.02</ele>
  <time>2026-09-01T01:17:32Z</time>
  <course>178.98</course>
  <speed>0.05</speed>
  <fix>3d</fix>
</trkpt>
<trkpt lat="33.8102975" lon="-118.3938687">
  <ele>-2.077</ele>
  <time>2026-09-01T01:17:32Z</time>
  <course>185.04</course>
  <speed>0.2109502310972899</speed>
  <fix>3d</fix>
</trkpt>
<trkpt lat="33.8102975" lon="-118.3938686">
  <ele>-2.03</ele>
  <time>2026-09-01T01:17:32Z</time>
  <course>181.9</course>
  <speed>0.15</speed>
  <fix>3d</fix>
</trkpt>
<trkpt lat="33.8102972" lon="-118.3938687">
  <ele>-2.078</ele>
  <time>2026-09-01T01:17:32Z</time>
  <course>185.04</course>
  <speed>0.23194827009486402</speed>
  <fix>3d</fix>
</trkpt>
<trkpt lat="33.8102975" lon="-118.3938686">
  <ele>-2.03</ele>
  <time>2026-09-01T01:17:32Z</time>
  <course>181.9</course>
  <speed>0.15</speed>
  <fix>3d</fix>
</trkpt>
<trkpt lat="33.810297" lon="-118.3938687">
  <ele>-2.079</ele>
  <time>2026-09-01T01:17:32Z</time>
  <course>185.04</course>
  <speed>0.261725046566048</speed>
  <fix>3d</fix>
</trkpt>
<trkpt lat="33.8102971" lon="-118.3938686">
  <ele>-2.03</ele>
  <time>2026-09-01T01:17:32Z</time>
  <course>182.53</course>
  <speed>0.23</speed>
  <fix>3d</fix>
</trkpt>
<trkpt lat="33.8102967" lon="-118.3938687">
  <ele>-2.079</ele>
  <time>2026-09-01T01:17:32Z</time>
  <course>185.04</course>
  <speed>0.2816025568065745</speed>
  <fix>3d</fix>
</trkpt>
<trkpt lat="33.8102971" lon="-118.3938686">
  <ele>-2.03</ele>
  <time>2026-09-01T01:17:32Z</time>
  <course>182.53</course>
  <speed>0.23</speed>
  <fix>3d</fix>
</trkpt>
<trkpt lat="33.8102965" lon="-118.3938688">
  <ele>-2.08</ele>
  <time>2026-09-01T01:17:32Z</time>
  <course>185.03</course>
  <speed>0.3014962686336267</speed>
  <fix>3d</fix>
</trkpt>
<trkpt lat="33.8102967" lon="-118.3938686">
  <ele>-2.03</ele>
  <time>2026-09-01T01:17:32Z</time>
  <course>182.94</course>
  <speed>0.29</speed>
  <fix>3d</fix>
</trkpt>
<trkpt lat="33.8102962" lon="-118.3938688">
  <ele>-2.08</ele>
  <time>2026-09-01T01:17:32Z</time>
  <course>185.03</course>
  <speed>0.32249030993194194</speed>
  <fix>3d</fix>
</trkpt>
<trkpt lat="33.8102967" lon="-118.3938686">
  <ele>-2.03</ele>
  <time>2026-09-01T01:17:32Z</time>
  <course>182.94</course>
  <speed>0.29</speed>
  <fix>3d</fix>
</trkpt>
<trkpt lat="33.8102959" lon="-118.3938688">
  <ele>-2.079</ele>
  <time>2026-09-01T01:17:32Z</time>
  <course>185.02</course>
  <speed>0.33241540277189324</speed>
  <fix>3d</fix>
</trkpt>
<trkpt lat="33.8102961" lon="-118.3938686">
  <ele>-2.03</ele>
  <time>2026-09-01T01:17:32Z</time>
  <course>183.36</course>
  <speed>0.33</speed>
  <fix>3d</fix>
</trkpt>
<trkpt lat="33.8102955" lon="-118.3938688">
  <ele>-2.078</ele>
  <time>2026-09-01T01:17:32Z</time>
  <course>185.02</course>
  <speed>0.3423448553724738</speed>
  <fix>3d</fix>
</trkpt>
<trkpt lat="33.8102961" lon="-118.3938686">
  <ele>-2.03</ele>
  <time>2026-09-01T01:17:32Z</time>
  <course>183.36</course>
  <speed>0.33</speed>
  <fix>3d</fix>
</trkpt>
<trkpt lat="33.8102952" lon="-118.3938689">
  <ele>-2.079</ele>
  <time>2026-09-01T01:17:32Z</time>
  <course>185.02</course>
  <speed>0.3522782990761707</speed>
  <fix>3d</fix>
</trkpt>
<trkpt lat="33.8102955" lon="-118.3938686">
  <ele>-2.03</ele>
  <time>2026-09-01T01:17:32Z</time>
  <course>183.87</course>
  <speed>0.36</speed>
  <fix>3d</fix>
</trkpt>
<trkpt lat="33.8102949" lon="-118.3938689">
  <ele>-2.08</ele>
  <time>2026-09-01T01:17:32Z</time>
  <course>185.01</course>
  <speed>0.3634556369077249</speed>
  <fix>3d</fix>
</trkpt>
<trkpt lat="33.8102955" lon="-118.3938686">
  <ele>-2.03</ele>
  <time>2026-09-01T01:17:32Z</time>
  <course>183.87</course>
  <speed>0.36</speed>
  <fix>3d</fix>
</trkpt>
<trkpt lat="33.8102945" lon="-118.3938689">
  <ele>-2.081</ele>
  <time>2026-09-01T01:17:32Z</time>
  <course>185.01</course>
  <speed>0.37336309405188944</speed>
  <fix>3d</fix>
</trkpt>
<trkpt lat="33.8102948" lon="-118.3938687">
  <ele>-2.03</ele>
  <time>2026-09-01T01:17:32Z</time>
  <course>184.44</course>
  <speed>0.38</speed>
  <fix>3d</fix>
</trkpt>
<trkpt lat="33.8102942" lon="-118.393869">
  <ele>-2.083</ele>
  <time>2026-09-01T01:17:32Z</time>
  <course>185.01</course>
  <speed>0.383275357934736</speed>
  <fix>3d</fix>
</trkpt>
<trkpt lat="33.8102948" lon="-118.3938687">
  <ele>-2.03</ele>
  <time>2026-09-01T01:17:32Z</time>
  <course>184.44</course>
  <speed>0.38</speed>
  <fix>3d</fix>
</trkpt>
<trkpt lat="33.8102938" lon="-118.393869">
  <ele>-2.083</ele>
  <time>2026-09-01T01:17:32Z</time>
  <course>185.01</course>
  <speed>0.39319206502675</speed>
  <fix>3d</fix>
</trkpt>
<trkpt lat="33.8102941" lon="-118.3938688">
  <ele>-2.03</ele>
  <time>2026-09-01T01:17:32Z</time>
  <course>184.98</course>
  <speed>0.4</speed>
  <fix>3d</fix>
</trkpt>
<trkpt lat="33.8102934" lon="-118.393869">
  <ele>-2.082</ele>
  <time>2026-09-01T01:17:32Z</time>
  <course>185.01</course>
  <speed>0.39319206502675</speed>
  <fix>3d</fix>
</trkpt>
<trkpt lat="33.8102941" lon="-118.3938688">
  <ele>-2.03</ele>
  <time>2026-09-01T01:17:32Z</time>
  <course>184.98</course>
  <speed>0.4</speed>
  <fix>3d</fix>
</trkpt>
<trkpt lat="33.8102931" lon="-118.3938691">
  <ele>-2.08</ele>
  <time>2026-09-01T01:17:32Z</time>
  <course>185.01</course>
  <speed>0.39319206502675</speed>
  <fix>3d</fix>
</trkpt>
<trkpt lat="33.8102934" lon="-118.3938688">
  <ele>-2.02</ele>
  <time>2026-09-01T01:17:32Z</time>
  <course>185.36</course>
  <speed>0.41</speed>
  <fix>3d</fix>
</trkpt>
<trkpt lat="33.8102927" lon="-118.3938691">
  <ele>-2.078</ele>
  <time>2026-09-01T01:17:32Z</time>
  <course>185.01</course>
  <speed>0.4044749683231337</speed>
  <fix>3d</fix>
</trkpt>
<trkpt lat="33.8102934" lon="-118.3938688">
  <ele>-2.02</ele>
  <time>2026-09-01T01:17:32Z</time>
  <course>185.36</course>
  <speed>0.41</speed>
  <fix>3d</fix>
</trkpt>
<trkpt lat="33.8102923" lon="-118.3938691">
  <ele>-2.077</ele>
  <time>2026-09-01T01:17:32Z</time>
  <course>185.01</course>
  <speed>0.4044749683231337</speed>
  <fix>3d</fix>
</trkpt>
<trkpt lat="33.8102926" lon="-118.3938689">
  <ele>-2.02</ele>
  <time>2026-09-01T01:17:32Z</time>
  <course>185.62</course>
  <speed>0.42</speed>
  <fix>3d</fix>
</trkpt>
<trkpt lat="33.8102919" lon="-118.3938692">
  <ele>-2.076</ele>
  <time>2026-09-01T01:17:32Z</time>
  <course>185.01</course>
  <speed>0.4044749683231337</speed>
  <fix>3d</fix>
</trkpt>
<trkpt lat="33.8102926" lon="-118.3938689">
  <ele>-2.02</ele>
  <time>2026-09-01T01:17:32Z</time>
  <course>185.62</course>
  <speed>0.42</speed>
  <fix>3d</fix>
</trkpt>
<trkpt lat="33.8102915" lon="-118.3938692">
  <ele>-2.076</ele>
  <time>2026-09-01T01:17:32Z</time>
  <course>185.01</course>
  <speed>0.4143669871020132</speed>
  <fix>3d</fix>
</trkpt>
<trkpt lat="33.8102918" lon="-118.393869">
  <ele>-2.02</ele>
  <time>2026-09-01T01:17:32Z</time>
  <course>185.86</course>
  <speed>0.43</speed>
  <fix>3d</fix>
</trkpt>
<trkpt lat="33.8102911" lon="-118.3938693">
  <ele>-2.076</ele>
  <time>2026-09-01T01:17:33Z</time>
  <course>185.01</course>
  <speed>0.4143669871020132</speed>
  <fix>3d</fix>
</trkpt>
<trkpt lat="33.8102918" lon="-118.393869">
  <ele>-2.02</ele>
  <time>2026-09-01T01:17:33Z</time>
  <course>185.86</course>
  <speed>0.43</speed>
  <fix>3d</fix>
</trkpt>
<trkpt lat="33.8102908" lon="-118.3938693">
  <ele>-2.074</ele>
  <time>2026-09-01T01:17:33Z</time>
  <course>185.02</course>
  <speed>0.4143669871020132</speed>
  <fix>3d</fix>
</trkpt>
<trkpt lat="33.8102911" lon="-118.3938691">
  <ele>-2.01</ele>
  <time>2026-09-01T01:17:33Z</time>
  <course>186.05</course>
  <speed>0.44</speed>
  <fix>3d</fix>
</trkpt>
<trkpt lat="33.8102904" lon="-118.3938694">
  <ele>-2.073</ele>
  <time>2026-09-01T01:17:33Z</time>
  <course>185.02</course>
  <speed>0.4143669871020132</speed>
  <fix>3d</fix>
</trkpt>
<trkpt lat="33.8102911" lon="-118.3938691">
  <ele>-2.01</ele>
  <time>2026-09-01T01:17:33Z</time>
  <course>186.05</course>
  <speed>0.44</speed>
  <fix>3d</fix>
</trkpt>
<trkpt lat="33.81029" lon="-118.3938694">
  <ele>-2.072</ele>
  <time>2026-09-01T01:17:33Z</time>
  <course>185.02</course>
  <speed>0.4143669871020132</speed>
  <fix>3d</fix>
</trkpt>
<trkpt lat="33.8102903" lon="-118.3938692">
  <ele>-2.01</ele>
  <time>2026-09-01T01:17:33Z</time>
  <course>186.17</course>
  <speed>0.44</speed>
  <fix>3d</fix>
</trkpt>
<trkpt lat="33.8102896" lon="-118.3938694">
  <ele>-2.071</ele>
  <time>2026-09-01T01:17:33Z</time>
  <course>185.02</course>
  <speed>0.4143669871020132</speed>
  <fix>3d</fix>
</trkpt>
<trkpt lat="33.8102903" lon="-118.3938692">
  <ele>-2.01</ele>
  <time>2026-09-01T01:17:33Z</time>
  <course>186.17</course>
  <speed>0.44</speed>
  <fix>3d</fix>
</trkpt>
<trkpt lat="33.8102892" lon="-118.3938695">
  <ele>-2.07</ele>
  <time>2026-09-01T01:17:33Z</time>
  <course>185.02</course>
  <speed>0.41303752856126763</speed>
  <fix>3d</fix>
</trkpt>
<trkpt lat="33.8102894" lon="-118.3938693">
  <ele>-2.01</ele>
  <time>2026-09-01T01:17:33Z</time>
  <course>186.21</course>
  <speed>0.44</speed>
  <fix>3d</fix>
</trkpt>
<trkpt lat="33.8102888" lon="-118.3938695">
  <ele>-2.069</ele>
  <time>2026-09-01T01:17:33Z</time>
  <course>185.03</course>
  <speed>0.41303752856126763</speed>
  <fix>3d</fix>
</trkpt>
<trkpt lat="33.8102894" lon="-118.3938693">
  <ele>-2.01</ele>
  <time>2026-09-01T01:17:33Z</time>
  <course>186.21</course>
  <speed>0.44</speed>
  <fix>3d</fix>
</trkpt>
<trkpt lat="33.8102884" lon="-118.3938696">
  <ele>-2.069</ele>
  <time>2026-09-01T01:17:33Z</time>
  <course>185.03</course>
  <speed>0.41303752856126763</speed>
  <fix>3d</fix>
</trkpt>
<trkpt lat="33.8102887" lon="-118.3938694">
  <ele>-2.02</ele>
  <time>2026-09-01T01:17:33Z</time>
  <course>186.2</course>
  <speed>0.44</speed>
  <fix>3d</fix>
</trkpt>
<trkpt lat="33.810288" lon="-118.3938696">
  <ele>-2.071</ele>
  <time>2026-09-01T01:17:33Z</time>
  <course>185.03</course>
  <speed>0.41303752856126763</speed>
  <fix>3d</fix>
</trkpt>
<trkpt lat="33.8102887" lon="-118.3938694">
  <ele>-2.02</ele>
  <time>2026-09-01T01:17:33Z</time>
  <course>186.2</course>
  <speed>0.44</speed>
  <fix>3d</fix>
</trkpt>
<trkpt lat="33.8102876" lon="-118.3938697">
  <ele>-2.073</ele>
  <time>2026-09-01T01:17:33Z</time>
  <course>185.03</course>
  <speed>0.39319206502675</speed>
  <fix>3d</fix>
</trkpt>
<trkpt lat="33.8102879" lon="-118.3938695">
  <ele>-2.02</ele>
  <time>2026-09-01T01:17:33Z</time>
  <course>186.14</course>
  <speed>0.44</speed>
  <fix>3d</fix>
</trkpt>
<trkpt lat="33.8102872" lon="-118.3938697">
  <ele>-2.075</ele>
  <time>2026-09-01T01:17:33Z</time>
  <course>185.03</course>
  <speed>0.34365680554879163</speed>
  <fix>3d</fix>
</trkpt>
<trkpt lat="33.8102879" lon="-118.3938695">
  <ele>-2.02</ele>
  <time>2026-09-01T01:17:33Z</time>
  <course>186.14</course>
  <speed>0.44</speed>
  <fix>3d</fix>
</trkpt>
<trkpt lat="33.8102869" lon="-118.3938697">
  <ele>-2.077</ele>
  <time>2026-09-01T01:17:33Z</time>
  <course>185.04</course>
  <speed>0.282842712474619</speed>
  <fix>3d</fix>
</trkpt>
<trkpt lat="33.8102871" lon="-118.3938696">
  <ele>-2.02</ele>
  <time>2026-09-01T01:17:33Z</time>
  <course>186.26</course>
  <speed>0.4</speed>
  <fix>3d</fix>
</trkpt>
<trkpt lat="33.8102867" lon="-118.3938698">
  <ele>-2.078</ele>
  <time>2026-09-01T01:17:33Z</time>
  <course>185.04</course>
  <speed>0.24331050121192876</speed>
  <fix>3d</fix>
</trkpt>
<trkpt lat="33.8102871" lon="-118.3938696">
  <ele>-2.02</ele>
  <time>2026-09-01T01:17:33Z</time>
  <course>186.26</course>
  <speed>0.4</speed>
  <fix>3d</fix>
</trkpt>
<trkpt lat="33.8102864" lon="-118.3938698">
  <ele>-2.078</ele>
  <time>2026-09-01T01:17:33Z</time>
  <course>185.05</course>
  <speed>0.21213203435596426</speed>
  <fix>3d</fix>
</trkpt>
<trkpt lat="33.8102865" lon="-118.3938697">
  <ele>-2.03</ele>
  <time>2026-09-01T01:17:33Z</time>
  <course>186.75</course>
  <speed>0.31</speed>
  <fix>3d</fix>
</trkpt>
<trkpt lat="33.8102862" lon="-118.3938698">
  <ele>-2.078</ele>
  <time>2026-09-01T01:17:33Z</time>
  <course>185.06</course>
  <speed>0.19235384061671343</speed>
  <fix>3d</fix>
</trkpt>
<trkpt lat="33.8102865" lon="-118.3938697">
  <ele>-2.03</ele>
  <time>2026-09-01T01:17:33Z</time>
  <course>186.75</course>
  <speed>0.31</speed>
  <fix>3d</fix>
</trkpt>
<trkpt lat="33.810286" lon="-118.3938699">
  <ele>-2.079</ele>
  <time>2026-09-01T01:17:33Z</time>
  <course>185.07</course>
  <speed>0.17262676501632068</speed>
  <fix>3d</fix>
</trkpt>
<trkpt lat="33.810286" lon="-118.3938698">
  <ele>-2.03</ele>
  <time>2026-09-01T01:17:33Z</time>
  <course>187.42</course>
  <speed>0.24</speed>
  <fix>3d</fix>
</trkpt>
<trkpt lat="33.8102859" lon="-118.3938699">
  <ele>-2.079</ele>
  <time>2026-09-01T01:17:33Z</time>
  <course>185.08</course>
  <speed>0.15297058540778355</speed>
  <fix>3d</fix>
</trkpt>
<trkpt lat="33.810286" lon="-118.3938698">
  <ele>-2.03</ele>
  <time>2026-09-01T01:17:33Z</time>
  <course>187.42</course>
  <speed>0.24</speed>
  <fix>3d</fix>
</trkpt>
<trkpt lat="33.8102857" lon="-118.3938699">
  <ele>-2.078</ele>
  <time>2026-09-01T01:17:33Z</time>
  <course>185.1</course>
  <speed>0.13152946437965907</speed>
  <fix>3d</fix>
</trkpt>
<trkpt lat="33.8102856" lon="-118.3938699">
  <ele>-2.03</ele>
  <time>2026-09-01T01:17:33Z</time>
  <course>187.85</course>
  <speed>0.19</speed>
  <fix>3d</fix>
</trkpt>
<trkpt lat="33.8102855" lon="-118.3938699">
  <ele>-2.076</ele>
  <time>2026-09-01T01:17:33Z</time>
  <course>185.09</course>
  <speed>0.1118033988749895</speed>
  <fix>3d</fix>
</trkpt>
<trkpt lat="33.8102856" lon="-118.3938699">
  <ele>-2.03</ele>
  <time>2026-09-01T01:17:33Z</time>
  <course>187.85</course>
  <speed>0.19</speed>
  <fix>3d</fix>
</trkpt>
<trkpt lat="33.8102854" lon="-118.3938699">
  <ele>-2.076</ele>
  <time>2026-09-01T01:17:33Z</time>
  <course>185.08</course>
  <speed>0.09219544457292887</speed>
  <fix>3d</fix>
</trkpt>
<trkpt lat="33.8102852" lon="-118.3938699">
  <ele>-2.03</ele>
  <time>2026-09-01T01:17:33Z</time>
  <course>187.71</course>
  <speed>0.15</speed>
  <fix>3d</fix>
</trkpt>
<trkpt lat="33.8102853" lon="-118.39387">
  <ele>-2.077</ele>
  <time>2026-09-01T01:17:33Z</time>
  <course>185.07</course>
  <speed>0.07071067811865475</speed>
  <fix>3d</fix>
</trkpt>
<trkpt lat="33.8102852" lon="-118.3938699">
  <ele>-2.03</ele>
  <time>2026-09-01T01:17:33Z</time>
  <course>187.71</course>
  <speed>0.15</speed>
  <fix>3d</fix>
</trkpt>
<trkpt lat="33.8102852" lon="-118.39387">
  <ele>-2.077</ele>
  <time>2026-09-01T01:17:33Z</time>
  <course>185.06</course>
  <speed>0.06082762530298219</speed>
  <fix>3d</fix>
</trkpt>
<trkpt lat="33.810285" lon="-118.39387">
  <ele>-2.03</ele>
  <time>2026-09-01T01:17:33Z</time>
  <course>187.33</course>
  <speed>0.11</speed>
  <fix>3d</fix>
</trkpt>
<trkpt lat="33.8102851" lon="-118.39387">
  <ele>-2.078</ele>
  <time>2026-09-01T01:17:33Z</time>
  <course>185.06</course>
  <speed>0.0412310562561766</speed>
  <fix>3d</fix>
</trkpt>
<trkpt lat="33.810285" lon="-118.39387">
  <ele>-2.03</ele>
  <time>2026-09-01T01:17:33Z</time>
  <course>187.33</course>
  <speed>0.11</speed>
  <fix>3d</fix>
</trkpt>
<trkpt lat="33.8102851" lon="-118.39387">
  <ele>-2.079</ele>
  <time>2026-09-01T01:17:33Z</time>
  <course>185.06</course>
  <speed>0.0316227766016838</speed>
  <fix>3d</fix>
</trkpt>
<trkpt lat="33.8102848" lon="-118.39387">
  <ele>-2.03</ele>
  <time>2026-09-01T01:17:33Z</time>
  <course>187.01</course>
  <speed>0.08</speed>
  <fix>3d</fix>
</trkpt>
<trkpt lat="33.810285" lon="-118.39387">
  <ele>-2.079</ele>
  <time>2026-09-01T01:17:33Z</time>
  <course>185.06</course>
  <speed>0.01414213562373095</speed>
  <fix>3d</fix>
</trkpt>
<trkpt lat="33.8102848" lon="-118.39387">
  <ele>-2.03</ele>
  <time>2026-09-01T01:17:33Z</time>
  <course>187.01</course>
  <speed>0.08</speed>
  <fix>3d</fix>
</trkpt>
<trkpt lat="33.810285" lon="-118.39387">
  <ele>-2.078</ele>
  <time>2026-09-01T01:17:33Z</time>
  <course>185.07</course>
  <speed>0.0</speed>
  <fix>3d</fix>
</trkpt>
<trkpt lat="33.8102847" lon="-118.39387">
  <ele>-2.03</ele>
  <time>2026-09-01T01:17:33Z</time>
  <course>186.22</course>
  <speed>0.04</speed>
  <fix>3d</fix>
</trkpt>
<trkpt lat="33.810285" lon="-118.39387">
  <ele>-2.077</ele>
  <time>2026-09-01T01:17:33Z</time>
  <course>185.08</course>
  <speed>0.0</speed>
  <fix>3d</fix>
</trkpt>
<trkpt lat="33.8102847" lon="-118.39387">
  <ele>-2.03</ele>
  <time>2026-09-01T01:17:33Z</time>
  <course>186.22</course>
  <speed>0.04</speed>
  <fix>3d</fix>
</trkpt>
<trkpt lat="33.8102849" lon="-118.39387">
  <ele>-2.076</ele>
  <time>2026-09-01T01:17:33Z</time>
  <course>185.07</course>
  <speed>0.01</speed>
  <fix>3d</fix>
</trkpt>
<trkpt lat="33.8102846" lon="-118.39387">
  <ele>-2.03</ele>
  <time>2026-09-01T01:17:33Z</time>
  <course>184.04</course>
  <speed>0.02</speed>
  <fix>3d</fix>
</trkpt>
<trkpt lat="33.8102849" lon="-118.39387">
  <ele>-2.076</ele>
  <time>2026-09-01T01:17:33Z</time>
  <course>185.07</course>
  <speed>0.02</speed>
  <fix>3d</fix>
</trkpt>
<trkpt lat="33.8102846" lon="-118.39387">
  <ele>-2.03</ele>
  <time>2026-09-01T01:17:33Z</time>
  <course>184.04</course>
  <speed>0.02</speed>
  <fix>3d</fix>
</trkpt>
<trkpt lat="33.8102849" lon="-118.39387">
  <ele>-2.077</ele>
  <time>2026-09-01T01:17:33Z</time>
  <course>185.07</course>
  <speed>0.02</speed>
  <fix>3d</fix>
</trkpt>
<trkpt lat="33.8102846" lon="-118.39387">
  <ele>-2.03</ele>
  <time>2026-09-01T01:17:33Z</time>
  <course>115.42</course>
  <speed>0.0</speed>
  <fix>3d</fix>
</trkpt>
<trkpt lat="33.8102849" lon="-118.39387">
  <ele>-2.078</ele>
  <time>2026-09-01T01:17:33Z</time>
  <course>185.08</course>
  <speed>0.03</speed>
  <fix>3d</fix>
</trkpt>
<trkpt lat="33.8102846" lon="-118.39387">
  <ele>-2.03</ele>
  <time>2026-09-01T01:17:33Z</time>
  <course>115.42</course>
  <speed>0.0</speed>
  <fix>3d</fix>
</trkpt>
<trkpt lat="33.8102849" lon="-118.39387">
  <ele>-2.079</ele>
  <time>2026-09-01T01:17:33Z</time>
  <course>185.09</course>
  <speed>0.03</speed>
  <fix>3d</fix>
</trkpt>
<trkpt lat="33.8102846" lon="-118.39387">
  <ele>-2.03</ele>
  <time>2026-09-01T01:17:33Z</time>
  <course>13.48</course>
  <speed>0.01</speed>
  <fix>3d</fix>
</trkpt>
<trkpt lat="33.8102849" lon="-118.39387">
  <ele>-2.079</ele>
  <time>2026-09-01T01:17:33Z</time>
  <course>185.08</course>
  <speed>0.03</speed>
  <fix>3d</fix>
</trkpt>
<trkpt lat="33.8102846" lon="-118.39387">
  <ele>-2.03</ele>
  <time>2026-09-01T01:17:33Z</time>
  <course>13.48</course>
  <speed>0.01</speed>
  <fix>3d</fix>
</trkpt>
<trkpt lat="33.8102849" lon="-118.39387">
  <ele>-2.08</ele>
  <time>2026-09-01T01:17:33Z</time>
  <course>185.08</course>
  <speed>0.03</speed>
  <fix>3d</fix>
</trkpt>
<trkpt lat="33.8102846" lon="-118.39387">
  <ele>-2.03</ele>
  <time>2026-09-01T01:17:33Z</time>
  <course>10.13</course>
  <speed>0.01</speed>
  <fix>3d</fix>
</trkpt>
<trkpt lat="33.8102849" lon="-118.39387">
  <ele>-2.081</ele>
  <time>2026-09-01T01:17:33Z</time>
  <course>185.07</course>
  <speed>0.03</speed>
  <fix>3d</fix>
</trkpt>
<trkpt lat="33.8102846" lon="-118.39387">
  <ele>-2.03</ele>
  <time>2026-09-01T01:17:33Z</time>
  <course>10.13</course>
  <speed>0.01</speed>
  <fix>3d</fix>
</trkpt>
<trkpt lat="33.8102849" lon="-118.39387">
  <ele>-2.081</ele>
  <time>2026-09-01T01:17:33Z</time>
  <course>185.06</course>
  <speed>0.03</speed>
  <fix>3d</fix>
</trkpt>
<trkpt lat="33.8102846" lon="-118.39387">
  <ele>-2.03</ele>
  <time>2026-09-01T01:17:33Z</time>
  <course>9.05</course>
  <speed>0.01</speed>
  <fix>3d</fix>
</trkpt>
<trkpt lat="33.8102849" lon="-118.39387">
  <ele>-2.081</ele>
  <time>2026-09-01T01:17:33Z</time>
  <course>185.06</course>
  <speed>0.03</speed>
  <fix>3d</fix>
</trkpt>
<trkpt lat="33.8102846" lon="-118.39387">
  <ele>-2.03</ele>
  <time>2026-09-01T01:17:33Z</time>
  <course>9.05</course>
  <speed>0.01</speed>
  <fix>3d</fix>
</trkpt>
<trkpt lat="33.8102849" lon="-118.39387">
  <ele>-2.082</ele>
  <time>2026-09-01T01:17:33Z</time>
  <course>185.07</course>
  <speed>0.03</speed>
  <fix>3d</fix>
</trkpt>
<trkpt lat="33.8102846" lon="-118.39387">
  <ele>-2.03</ele>
  <time>2026-09-01T01:17:33Z</time>
  <course>9.23</course>
  <speed>0.01</speed>
  <fix>3d</fix>
</trkpt>
<trkpt lat="33.8102849" lon="-118.39387">
  <ele>-2.082</ele>
  <time>2026-09-01T01:17:33Z</time>
  <course>185.09</course>
  <speed>0.03</speed>
  <fix>3d</fix>
</trkpt>
<trkpt lat="33.8102846" lon="-118.39387">
  <ele>-2.03</ele>
  <time>2026-09-01T01:17:33Z</time>
  <course>9.23</course>
  <speed>0.01</speed>
  <fix>3d</fix>
</trkpt>
<trkpt lat="33.8102849" lon="-118.39387">
  <ele>-2.082</ele>
  <time>2026-09-01T01:17:33Z</time>
  <course>185.1</course>
  <speed>0.03</speed>
  <fix>3d</fix>
</trkpt>
<trkpt lat="33.8102846" lon="-118.39387">
  <ele>-2.03</ele>
  <time>2026-09-01T01:17:33Z</time>
  <course>9.84</course>
  <speed>0.01</speed>
  <fix>3d</fix>
</trkpt>
<trkpt lat="33.8102849" lon="-118.39387">
  <ele>-2.082</ele>
  <time>2026-09-01T01:17:33Z</time>
  <course>185.11</course>
  <speed>0.03</speed>
  <fix>3d</fix>
</trkpt>
<trkpt lat="33.8102846" lon="-118.39387">
  <ele>-2.03</ele>
  <time>2026-09-01T01:17:33Z</time>
  <course>9.84</course>
  <speed>0.01</speed>
  <fix>3d</fix>
</trkpt>
<trkpt lat="33.8102849" lon="-118.39387">
  <ele>-2.081</ele>
  <time>2026-09-01T01:17:33Z</time>
  <course>185.12</course>
  <speed>0.03</speed>
  <fix>3d</fix>
</trkpt>
<trkpt lat="33.8102847" lon="-118.39387">
  <ele>-2.02</ele>
  <time>2026-09-01T01:17:33Z</time>
  <course>10.35</course>
  <speed>0.01</speed>
  <fix>3d</fix>
</trkpt>
<trkpt lat="33.8102849" lon="-118.39387">
  <ele>-2.079</ele>
  <time>2026-09-01T01:17:33Z</time>
  <course>185.13</course>
  <speed>0.03</speed>
  <fix>3d</fix>
</trkpt>
<trkpt lat="33.8102847" lon="-118.39387">
  <ele>-2.02</ele>
  <time>2026-09-01T01:17:33Z</time>
  <course>10.35</course>
  <speed>0.01</speed>
  <fix>3d</fix>
</trkpt>
<trkpt lat="33.8102849" lon="-118.39387">
  <ele>-2.077</ele>
  <time>2026-09-01T01:17:33Z</time>
  <course>185.15</course>
  <speed>0.03</speed>
  <fix>3d</fix>
</trkpt>
<trkpt lat="33.8102848" lon="-118.39387">
  <ele>-2.02</ele>
  <time>2026-09-01T01:17:33Z</time>
  <course>11.05</course>
  <speed>0.01</speed>
  <fix>3d</fix>
</trkpt>
<trkpt lat="33.8102849" lon="-118.39387">
  <ele>-2.076</ele>
  <time>2026-09-01T01:17:33Z</time>
  <course>185.17</course>
  <speed>0.03</speed>
  <fix>3d</fix>
</trkpt>
<trkpt lat="33.8102848" lon="-118.39387">
  <ele>-2.02</ele>
  <time>2026-09-01T01:17:33Z</time>
  <course>11.05</course>
  <speed>0.01</speed>
  <fix>3d</fix>
</trkpt>
<trkpt lat="33.8102849" lon="-118.39387">
  <ele>-2.074</ele>
  <time>2026-09-01T01:17:33Z</time>
  <course>185.17</course>
  <speed>0.01</speed>
  <fix>3d</fix>
</trkpt>
<trkpt lat="33.8102848" lon="-118.39387">
  <ele>-2.01</ele>
  <time>2026-09-01T01:17:33Z</time>
  <course>11.38</course>
  <speed>0.01</speed>
  <fix>3d</fix>
</trkpt>
<trkpt lat="33.8102849" lon="-118.39387">
  <ele>-2.072</ele>
  <time>2026-09-01T01:17:33Z</time>
  <course>185.12</course>
  <speed>0.08062257748298549</speed>
  <fix>3d</fix>
</trkpt>
<trkpt lat="33.8102848" lon="-118.39387">
  <ele>-2.01</ele>
  <time>2026-09-01T01:17:33Z</time>
  <course>11.38</course>
  <speed>0.01</speed>
  <fix>3d</fix>
</trkpt>
<trkpt lat="33.8102848" lon="-118.39387">
  <ele>-2.072</ele>
  <time>2026-09-01T01:17:33Z</time>
  <course>185.08</course>
  <speed>0.16124515496597097</speed>
  <fix>3d</fix>
</trkpt>
<trkpt lat="33.8102848" lon="-118.39387">
  <ele>-2.01</ele>
  <time>2026-09-01T01:17:33Z</time>
  <course>179.58</course>
  <speed>0.04</speed>
  <fix>3d</fix>
</trkpt>
<trkpt lat="33.8102846" lon="-118.39387">
  <ele>-2.072</ele>
  <time>2026-09-01T01:17:33Z</time>
  <course>185.05</course>
  <speed>0.22090722034374521</speed>
  <fix>3d</fix>
</trkpt>
<trkpt lat="33.8102848" lon="-118.39387">
  <ele>-2.01</ele>
  <time>2026-09-01T01:17:33Z</time>
  <course>179.58</course>
  <speed>0.04</speed>
  <fix>3d</fix>
</trkpt>
<trkpt lat="33.8102844" lon="-118.3938701">
  <ele>-2.073</ele>
  <time>2026-09-01T01:17:33Z</time>
  <course>185.04</course>
  <speed>0.27166155414412246</speed>
  <fix>3d</fix>
</trkpt>
<trkpt lat="33.8102846" lon="-118.39387">
  <ele>-2.01</ele>
  <time>2026-09-01T01:17:33Z</time>
  <course>182.24</course>
  <speed>0.18</speed>
  <fix>3d</fix>
</trkpt>
<trkpt lat="33.8102841" lon="-118.3938701">
  <ele>-2.073</ele>
  <time>2026-09-01T01:17:33Z</time>
  <course>185.04</course>
  <speed>0.31144823004794875</speed>
  <fix>3d</fix>
</trkpt>
<trkpt lat="33.8102846" lon="-118.39387">
  <ele>-2.01</ele>
  <time>2026-09-01T01:17:33Z</time>
  <course>182.24</course>
  <speed>0.18</speed>
  <fix>3d</fix>
</trkpt>
<trkpt lat="33.8102838" lon="-118.3938701">
  <ele>-2.074</ele>
  <time>2026-09-01T01:17:33Z</time>
  <course>185.04</course>
  <speed>0.34132096331752027</speed>
  <fix>3d</fix>
</trkpt>
<trkpt lat="33.8102842" lon="-118.39387">
  <ele>-2.01</ele>
  <time>2026-09-01T01:17:33Z</time>
  <course>182.79</course>
  <speed>0.29</speed>
  <fix>3d</fix>
</trkpt>
<trkpt lat="33.8102835" lon="-118.3938701">
  <ele>-2.075</ele>
  <time>2026-09-01T01:17:33Z</time>
  <course>185.03</course>
  <speed>0.3721558813185679</speed>
  <fix>3d</fix>
</trkpt>
<trkpt lat="33.8102842" lon="-118.39387">
  <ele>-2.01</ele>
  <time>2026-09-01T01:17:33Z</time>
  <course>182.79</course>
  <speed>0.29</speed>
  <fix>3d</fix>
</trkpt>
<trkpt lat="33.8102832" lon="-118.3938702">
  <ele>-2.077</ele>
  <time>2026-09-01T01:17:33Z</time>
  <course>185.03</course>
  <speed>0.3920459156782532</speed>
  <fix>3d</fix>
</trkpt>
<trkpt lat="33.8102836" lon="-118.39387">
  <ele>-2.02</ele>
  <time>2026-09-01T01:17:33Z</time>
  <course>183.13</course>
  <speed>0.36</speed>
  <fix>3d</fix>
</trkpt>
<trkpt lat="33.8102828" lon="-118.3938702">
  <ele>-2.077</ele>
  <time>2026-09-01T01:17:33Z</time>
  <course>185.03</course>
  <speed>0.4119465984809196</speed>
  <fix>3d</fix>
</trkpt>
<trkpt lat="33.8102836" lon="-118.39387">
  <ele>-2.02</ele>
  <time>2026-09-01T01:17:33Z</time>
  <course>183.13</course>
  <speed>0.36</speed>
  <fix>3d</fix>
</trkpt>
<trkpt lat="33.8102824" lon="-118.3938702">
  <ele>-2.077</ele>
  <time>2026-09-01T01:17:33Z</time>
  <course>185.03</course>
  <speed>0.43289721643826723</speed>
  <fix>3d</fix>
</trkpt>
<trkpt lat="33.8102829" lon="-118.3938701">
  <ele>-2.02</ele>
  <time>2026-09-01T01:17:33Z</time>
  <course>183.52</course>
  <speed>0.42</speed>
  <fix>3d</fix>
</trkpt>
<trkpt lat="33.810282" lon="-118.3938703">
  <ele>-2.077</ele>
  <time>2026-09-01T01:17:33Z</time>
  <course>185.02</course>
  <speed>0.45276925690687087</speed>
  <fix>3d</fix>
</trkpt>
<trkpt lat="33.8102829" lon="-118.3938701">
  <ele>-2.02</ele>
  <time>2026-09-01T01:17:33Z</time>
  <course>183.52</course>
  <speed>0.42</speed>
  <fix>3d</fix>
</trkpt>
<trkpt lat="33.8102816" lon="-118.3938703">
  <ele>-2.077</ele>
  <time>2026-09-01T01:17:33Z</time>
  <course>185.02</course>
  <speed>0.46270941205037097</speed>
  <fix>3d</fix>
</trkpt>
<trkpt lat="33.8102822" lon="-118.3938701">
  <ele>-2.02</ele>
  <time>2026-09-01T01:17:33Z</time>
  <course>183.9</course>
  <speed>0.46</speed>
  <fix>3d</fix>
</trkpt>
<trkpt lat="33.8102812" lon="-118.3938704">
  <ele>-2.076</ele>
  <time>2026-09-01T01:17:33Z</time>
  <course>185.02</course>
  <speed>0.4825971404805462</speed>
  <fix>3d</fix>
</trkpt>
<trkpt lat="33.8102822" lon="-118.3938701">
  <ele>-2.02</ele>
  <time>2026-09-01T01:17:33Z</time>
  <course>183.9</course>
  <speed>0.46</speed>
  <fix>3d</fix>
</trkpt>
<trkpt lat="33.8102807" lon="-118.3938704">
  <ele>-2.074</ele>
  <time>2026-09-01T01:17:33Z</time>
  <course>185.02</course>
  <speed>0.4936598018878993</speed>
  <fix>3d</fix>
</trkpt>
<trkpt lat="33.8102813" lon="-118.3938702">
  <ele>-2.02</ele>
  <time>2026-09-01T01:17:33Z</time>
  <course>184.24</course>
  <speed>0.49</speed>
  <fix>3d</fix>
</trkpt>
<trkpt lat="33.8102803" lon="-118.3938704">
  <ele>-2.072</ele>
  <time>2026-09-01T01:17:33Z</time>
  <course>185.01</course>
  <speed>0.5035871324805669</speed>
  <fix>3d</fix>
</trkpt>
<trkpt lat="33.8102813" lon="-118.3938702">
  <ele>-2.02</ele>
  <time>2026-09-01T01:17:33Z</time>
  <course>184.24</course>
  <speed>0.49</speed>
  <fix>3d</fix>
</trkpt>
<trkpt lat="33.8102798" lon="-118.3938705">
  <ele>-2.072</ele>
  <time>2026-09-01T01:17:33Z</time>
  <course>185.01</course>
  <speed>0.5135172830587107</speed>
  <fix>3d</fix>
</trkpt>
<trkpt lat="33.8102803" lon="-118.3938703">
  <ele>-2.02</ele>
  <time>2026-09-01T01:17:33Z</time>
  <course>184.56</course>
  <speed>0.52</speed>
  <fix>3d</fix>
</trkpt>
<trkpt lat="33.8102793" lon="-118.3938705">
  <ele>-2.074</ele>
  <time>2026-09-01T01:17:33Z</time>
  <course>185.01</course>
  <speed>0.5135172830587107</speed>
  <fix>3d</fix>
</trkpt>
<trkpt lat="33.8102803" lon="-118.3938703">
  <ele>-2.02</ele>
  <time>2026-09-01T01:17:33Z</time>
  <course>184.56</course>
  <speed>0.52</speed>
  <fix>3d</fix>
</trkpt>
<trkpt lat="33.8102789" lon="-118.3938706">
  <ele>-2.076</ele>
  <time>2026-09-01T01:17:33Z</time>
  <course>185.01</course>
  <speed>0.523450093132096</speed>
  <fix>3d</fix>
</trkpt>
<trkpt lat="33.8102794" lon="-118.3938704">
  <ele>-2.02</ele>
  <time>2026-09-01T01:17:33Z</time>
  <course>184.82</course>
  <speed>0.53</speed>
  <fix>3d</fix>
</trkpt>
<trkpt lat="33.8102784" lon="-118.3938706">
  <ele>-2.076</ele>
  <time>2026-09-01T01:17:33Z</time>
  <course>185.01</course>
  <speed>0.523450093132096</speed>
  <fix>3d</fix>
</trkpt>
<trkpt lat="33.8102794" lon="-118.3938704">
  <ele>-2.02</ele>
  <time>2026-09-01T01:17:33Z</time>
  <course>184.82</course>
  <speed>0.53</speed>
  <fix>3d</fix>
</trkpt>
<trkpt lat="33.8102779" lon="-118.3938707">
  <ele>-2.077</ele>
  <time>2026-09-01T01:17:33Z</time>
  <course>185.02</course>
  <speed>0.5333854141237835</speed>
  <fix>3d</fix>
</trkpt>
<trkpt lat="33.8102784" lon="-118.3938705">
  <ele>-2.02</ele>
  <time>2026-09-01T01:17:33Z</time>
  <course>185.02</course>
  <speed>0.55</speed>
  <fix>3d</fix>
</trkpt>
<trkpt lat="33.8102774" lon="-118.3938707">
  <ele>-2.079</ele>
  <time>2026-09-01T01:17:33Z</time>
  <course>185.02</course>
  <speed>0.5333854141237835</speed>
  <fix>3d</fix>
</trkpt>
<trkpt lat="33.8102784" lon="-118.3938705">
  <ele>-2.02</ele>
  <time>2026-09-01T01:17:33Z</time>
  <course>185.02</course>
  <speed>0.55</speed>
  <fix>3d</fix>
</trkpt>
<trkpt lat="33.8102769" lon="-118.3938708">
  <ele>-2.08</ele>
  <time>2026-09-01T01:17:33Z</time>
  <course>185.02</course>
  <speed>0.5333854141237835</speed>
  <fix>3d</fix>
</trkpt>
<trkpt lat="33.8102775" lon="-118.3938706">
  <ele>-2.03</ele>
  <time>2026-09-01T01:17:33Z</time>
  <course>185.15</course>
  <speed>0.56</speed>
  <fix>3d</fix>
</trkpt>
<trkpt lat="33.8102764" lon="-118.3938708">
  <ele>-2.082</ele>
  <time>2026-09-01T01:17:33Z</time>
  <course>185.02</course>
  <speed>0.5333854141237835</speed>
  <fix>3d</fix>
</trkpt>
<trkpt lat="33.8102775" lon="-118.3938706">
  <ele>-2.03</ele>
  <time>2026-09-01T01:17:33Z</time>
  <course>185.15</course>
  <speed>0.56</speed>
  <fix>3d</fix>
</trkpt>
<trkpt lat="33.8102759" lon="-118.3938709">
  <ele>-2.083</ele>
  <time>2026-09-01T01:17:33Z</time>
  <course>185.02</course>
  <speed>0.5433231082882449</speed>
  <fix>3d</fix>
</trkpt>
<trkpt lat="33.8102765" lon="-118.3938707">
  <ele>-2.03</ele>
  <time>2026-09-01T01:17:33Z</time>
  <course>185.24</course>
  <speed>0.56</speed>
  <fix>3d</fix>
</trkpt>
<trkpt lat="33.8102754" lon="-118.393871">
  <ele>-2.084</ele>
  <time>2026-09-01T01:17:33Z</time>
  <course>185.02</course>
  <speed>0.5433231082882449</speed>
  <fix>3d</fix>
</trkpt>
<trkpt lat="33.8102765" lon="-118.3938707">
  <ele>-2.03</ele>
  <time>2026-09-01T01:17:33Z</time>
  <course>185.24</course>
  <speed>0.56</speed>
  <fix>3d</fix>
</trkpt>
<trkpt lat="33.8102749" lon="-118.393871">
  <ele>-2.083</ele>
  <time>2026-09-01T01:17:33Z</time>
  <course>185.02</course>
  <speed>0.5433231082882449</speed>
  <fix>3d</fix>
</trkpt>
<trkpt lat="33.8102754" lon="-118.3938708">
  <ele>-2.02</ele>
  <time>2026-09-01T01:17:33Z</time>
  <course>185.3</course>
  <speed>0.57</speed>
  <fix>3d</fix>
</trkpt>
<trkpt lat="33.8102744" lon="-118.3938711">
  <ele>-2.082</ele>
  <time>2026-09-01T01:17:33Z</time>
  <course>185.02</course>
  <speed>0.5433231082882449</speed>
  <fix>3d</fix>
</trkpt>
<trkpt lat="33.8102754" lon="-118.3938708">
  <ele>-2.02</ele>
  <time>2026-09-01T01:17:33Z</time>
  <course>185.3</course>
  <speed>0.57</speed>
  <fix>3d</fix>
</trkpt>
<trkpt lat="33.8102739" lon="-118.3938711">
  <ele>-2.08</ele>
  <time>2026-09-01T01:17:33Z</time>
  <course>185.02</course>
  <speed>0.5433231082882449</speed>
  <fix>3d</fix>
</trkpt>
<trkpt lat="33.8102744" lon="-118.3938709">
  <ele>-2.02</ele>
  <time>2026-09-01T01:17:33Z</time>
  <course>185.35</course>
  <speed>0.57</speed>
  <fix>3d</fix>
</trkpt>
<trkpt lat="33.8102734" lon="-118.3938712">
  <ele>-2.077</ele>
  <time>2026-09-01T01:17:33Z</time>
  <course>185.02</course>
  <speed>0.5433231082882449</speed>
  <fix>3d</fix>
</trkpt>
<trkpt lat="33.8102744" lon="-118.3938709">
  <ele>-2.02</ele>
  <time>2026-09-01T01:17:33Z</time>
  <course>185.35</course>
  <speed>0.57</speed>
  <fix>3d</fix>
</trkpt>
<trkpt lat="33.8102729" lon="-118.3938712">
  <ele>-2.074</ele>
  <time>2026-09-01T01:17:33Z</time>
  <course>185.03</course>
  <speed>0.5433231082882449</speed>
  <fix>3d</fix>
</trkpt>
<trkpt lat="33.8102734" lon="-118.393871">
  <ele>-2.01</ele>
  <time>2026-09-01T01:17:33Z</time>
  <course>185.43</course>
  <speed>0.57</speed>
  <fix>3d</fix>
</trkpt>
<trkpt lat="33.8102724" lon="-118.3938713">
  <ele>-2.072</ele>
  <time>2026-09-01T01:17:33Z</time>
  <course>185.03</course>
  <speed>0.5433231082882449</speed>
  <fix>3d</fix>
</trkpt>
<trkpt lat="33.8102734" lon="-118.393871">
  <ele>-2.01</ele>
  <time>2026-09-01T01:17:33Z</time>
  <course>185.43</course>
  <speed>0.57</speed>
  <fix>3d</fix>
</trkpt>
<trkpt lat="33.8102719" lon="-118.3938713">
  <ele>-2.071</ele>
  <time>2026-09-01T01:17:33Z</time>
  <course>185.03</course>
  <speed>0.5433231082882449</speed>
  <fix>3d</fix>
</trkpt>
<trkpt lat="33.8102723" lon="-118.3938712">
  <ele>-2.01</ele>
  <time>2026-09-01T01:17:33Z</time>
  <course>185.52</course>
  <speed>0.57</speed>
  <fix>3d</fix>
</trkpt>
<trkpt lat="33.8102713" lon="-118.3938714">
  <ele>-2.071</ele>
  <time>2026-09-01T01:17:33Z</time>
  <course>185.03</course>
  <speed>0.5135172830587107</speed>
  <fix>3d</fix>
</trkpt>
<trkpt lat="33.8102723" lon="-118.3938712">
  <ele>-2.01</ele>
  <time>2026-09-01T01:17:33Z</time>
  <course>185.52</course>
  <speed>0.57</speed>
  <fix>3d</fix>
</trkpt>
<trkpt lat="33.8102709" lon="-118.3938714">
  <ele>-2.072</ele>
  <time>2026-09-01T01:17:33Z</time>
  <course>185.04</course>
  <speed>0.45276925690687087</speed>
  <fix>3d</fix>
</trkpt>
<trkpt lat="33.8102712" lon="-118.3938713">
  <ele>-2.01</ele>
  <time>2026-09-01T01:17:33Z</time>
  <course>185.58</course>
  <speed>0.56</speed>
  <fix>3d</fix>
</trkpt>
<trkpt lat="33.8102705" lon="-118.3938715">
  <ele>-2.074</ele>
  <time>2026-09-01T01:17:33Z</time>
  <course>185.04</course>
  <speed>0.37336309405188944</speed>
  <fix>3d</fix>
</trkpt>
<trkpt lat="33.8102712" lon="-118.3938713">
  <ele>-2.01</ele>
  <time>2026-09-01T01:17:33Z</time>
  <course>185.58</course>
  <speed>0.56</speed>
  <fix>3d</fix>
</trkpt>
<trkpt lat="33.8102702" lon="-118.3938715">
  <ele>-2.075</ele>
  <time>2026-09-01T01:17:33Z</time>
  <course>185.05</course>
  <speed>0.3125699921617557</speed>
  <fix>3d</fix>
</trkpt>
<trkpt lat="33.8102703" lon="-118.3938714">
  <ele>-2.01</ele>
  <time>2026-09-01T01:17:33Z</time>
  <course>185.69</course>
  <speed>0.46</speed>
  <fix>3d</fix>
</trkpt>
<trkpt lat="33.8102699" lon="-118.3938716">
  <ele>-2.076</ele>
  <time>2026-09-01T01:17:33Z</time>
  <course>185.04</course>
  <speed>0.26305892875931813</speed>
  <fix>3d</fix>
</trkpt>
<trkpt lat="33.8102703" lon="-118.3938714">
  <ele>-2.01</ele>
  <time>2026-09-01T01:17:33Z</time>
  <course>185.69</course>
  <speed>0.46</speed>
  <fix>3d</fix>
</trkpt>
<trkpt lat="33.8102696" lon="-118.3938716">
  <ele>-2.076</ele>
  <time>2026-09-01T01:17:33Z</time>
  <course>185.04</course>
  <speed>0.23194827009486402</speed>
  <fix>3d</fix>
</trkpt>
<trkpt lat="33.8102696" lon="-118.3938715">
  <ele>-2.02</ele>
  <time>2026-09-01T01:17:33Z</time>
  <course>185.93</course>
  <speed>0.33</speed>
  <fix>3d</fix>
</trkpt>
<trkpt lat="33.8102694" lon="-118.3938716">
  <ele>-2.076</ele>
  <time>2026-09-01T01:17:33Z</time>
  <course>185.05</course>
  <speed>0.20223748416156684</speed>
  <fix>3d</fix>
</trkpt>
<trkpt lat="33.8102696" lon="-118.3938715">
  <ele>-2.02</ele>
  <time>2026-09-01T01:17:33Z</time>
  <course>185.93</course>
  <speed>0.33</speed>
  <fix>3d</fix>
</trkpt>
<trkpt lat="33.8102692" lon="-118.3938716">
  <ele>-2.077</ele>
  <time>2026-09-01T01:17:33Z</time>
  <course>185.05</course>
  <speed>0.1824828759089466</speed>
  <fix>3d</fix>
</trkpt>
<trkpt lat="33.8102691" lon="-118.3938715">
  <ele>-2.02</ele>
  <time>2026-09-01T01:17:33Z</time>
  <course>186.24</course>
  <speed>0.25</speed>
  <fix>3d</fix>
</trkpt>
<trkpt lat="33.810269" lon="-118.3938717">
  <ele>-2.078</ele>
  <time>2026-09-01T01:17:33Z</time>
  <course>185.06</course>
  <speed>0.16278820596099705</speed>
  <fix>3d</fix>
</trkpt>
<trkpt lat="33.8102691" lon="-118.3938715">
  <ele>-2.02</ele>
  <time>2026-09-01T01:17:33Z</time>
  <course>186.24</course>
  <speed>0.25</speed>
  <fix>3d</fix>
</trkpt>
<trkpt lat="33.8102688" lon="-118.3938717">
  <ele>-2.078</ele>
  <time>2026-09-01T01:17:33Z</time>
  <course>185.06</course>
  <speed>0.14317821063276354</speed>
  <fix>3d</fix>
</trkpt>
<trkpt lat="33.8102687" lon="-118.3938716">
  <ele>-2.02</ele>
  <time>2026-09-01T01:17:33Z</time>
  <course>186.61</course>
  <speed>0.2</speed>
  <fix>3d</fix>
</trkpt>
<trkpt lat="33.8102686" lon="-118.3938717">
  <ele>-2.078</ele>
  <time>2026-09-01T01:17:33Z</time>
  <course>185.08</course>
  <speed>0.13152946437965907</speed>
  <fix>3d</fix>
</trkpt>
<trkpt lat="33.8102687" lon="-118.3938716">
  <ele>-2.02</ele>
  <time>2026-09-01T01:17:33Z</time>
  <course>186.61</course>
  <speed>0.2</speed>
  <fix>3d</fix>
</trkpt>
<trkpt lat="33.8102685" lon="-118.3938717">
  <ele>-2.076</ele>
  <time>2026-09-01T01:17:33Z</time>
  <course>185.07</course>
  <speed>0.1118033988749895</speed>
  <fix>3d</fix>
</trkpt>
<trkpt lat="33.8102684" lon="-118.3938717">
  <ele>-2.02</ele>
  <time>2026-09-01T01:17:33Z</time>
  <course>186.68</course>
  <speed>0.17</speed>
  <fix>3d</fix>
</trkpt>
<trkpt lat="33.8102684" lon="-118.3938717">
  <ele>-2.075</ele>
  <time>2026-09-01T01:17:33Z</time>
  <course>185.06</course>
  <speed>0.09219544457292887</speed>
  <fix>3d</fix>
</trkpt>
<trkpt lat="33.8102684" lon="-118.3938717">
  <ele>-2.02</ele>
  <time>2026-09-01T01:17:33Z</time>
  <course>186.68</course>
  <speed>0.17</speed>
  <fix>3d</fix>
</trkpt>
<trkpt lat="33.8102683" lon="-118.3938718">
  <ele>-2.075</ele>
  <time>2026-09-01T01:17:33Z</time>
  <course>185.06</course>
  <speed>0.0824621125123532</speed>
  <fix>3d</fix>
</trkpt>
<trkpt lat="33.8102681" lon="-118.3938717">
  <ele>-2.02</ele>
  <time>2026-09-01T01:17:33Z</time>
  <course>186.47</course>
  <speed>0.13</speed>
  <fix>3d</fix>
</trkpt>
<trkpt lat="33.8102682" lon="-118.3938718">
  <ele>-2.076</ele>
  <time>2026-09-01T01:17:33Z</time>
  <course>185.07</course>
  <speed>0.06082762530298219</speed>
  <fix>3d</fix>
</trkpt>
<trkpt lat="33.8102681" lon="-118.3938717">
  <ele>-2.02</ele>
  <time>2026-09-01T01:17:33Z</time>
  <course>186.47</course>
  <speed>0.13</speed>
  <fix>3d</fix>
</trkpt>
<trkpt lat="33.8102681" lon="-118.3938718">
  <ele>-2.076</ele>
  <time>2026-09-01T01:17:33Z</time>
  <course>185.07</course>
  <speed>0.0412310562561766</speed>
  <fix>3d</fix>
</trkpt>
<trkpt lat="33.8102679" lon="-118.3938717">
  <ele>-2.02</ele>
  <time>2026-09-01T01:17:33Z</time>
  <course>186.31</course>
  <speed>0.1</speed>
  <fix>3d</fix>
</trkpt>
<trkpt lat="33.810268" lon="-118.3938718">
  <ele>-2.076</ele>
  <time>2026-09-01T01:17:33Z</time>
  <course>185.08</course>
  <speed>0.0316227766016838</speed>
  <fix>3d</fix>
</trkpt>
<trkpt lat="33.8102679" lon="-118.3938717">
  <ele>-2.02</ele>
  <time>2026-09-01T01:17:33Z</time>
  <course>186.31</course>
  <speed>0.1</speed>
  <fix>3d</fix>
</trkpt>
<trkpt lat="33.810268" lon="-118.3938718">
  <ele>-2.076</ele>
  <time>2026-09-01T01:17:33Z</time>
  <course>185.08</course>
  <speed>0.01414213562373095</speed>
  <fix>3d</fix>
</trkpt>
<trkpt lat="33.8102677" lon="-118.3938718">
  <ele>-2.02</ele>
  <time>2026-09-01T01:17:33Z</time>
  <course>186.14</course>
  <speed>0.06</speed>
  <fix>3d</fix>
</trkpt>
<trkpt lat="33.8102679" lon="-118.3938718">
  <ele>-2.076</ele>
  <time>2026-09-01T01:17:33Z</time>
  <course>185.09</course>
  <speed>0.01</speed>
  <fix>3d</fix>
</trkpt>
<trkpt lat="33.8102677" lon="-118.3938718">
  <ele>-2.02</ele>
  <time>2026-09-01T01:17:33Z</time>
  <course>186.14</course>
  <speed>0.06</speed>
  <fix>3d</fix>
</trkpt>
<trkpt lat="33.8102679" lon="-118.3938718">
  <ele>-2.076</ele>
  <time>2026-09-01T01:17:33Z</time>
  <course>185.09</course>
  <speed>0.01</speed>
  <fix>3d</fix>
</trkpt>
<trkpt lat="33.8102676" lon="-118.3938718">
  <ele>-2.02</ele>
  <time>2026-09-01T01:17:33Z</time>
  <course>185.87</course>
  <speed>0.03</speed>
  <fix>3d</fix>
</trkpt>
<trkpt lat="33.8102679" lon="-118.3938718">
  <ele>-2.076</ele>
  <time>2026-09-01T01:17:33Z</time>
  <course>185.09</course>
  <speed>0.01</speed>
  <fix>3d</fix>
</trkpt>
<trkpt lat="33.8102676" lon="-118.3938718">
  <ele>-2.02</ele>
  <time>2026-09-01T01:17:33Z</time>
  <course>185.87</course>
  <speed>0.03</speed>
  <fix>3d</fix>
</trkpt>
<trkpt lat="33.8102679" lon="-118.3938718">
  <ele>-2.075</ele>
  <time>2026-09-01T01:17:33Z</time>
  <course>185.07</course>
  <speed>0.02</speed>
  <fix>3d</fix>
</trkpt>
<trkpt lat="33.8102675" lon="-118.3938718">
  <ele>-2.02</ele>
  <time>2026-09-01T01:17:33Z</time>
  <course>183.66</course>
  <speed>0.01</speed>
  <fix>3d</fix>
</trkpt>
<trkpt lat="33.8102679" lon="-118.3938718">
  <ele>-2.073</ele>
  <time>2026-09-01T01:17:33Z</time>
  <course>185.06</course>
  <speed>0.02</speed>
  <fix>3d</fix>
</trkpt>
<trkpt lat="33.8102675" lon="-118.3938718">
  <ele>-2.02</ele>
  <time>2026-09-01T01:17:33Z</time>
  <course>183.66</course>
  <speed>0.01</speed>
  <fix>3d</fix>
</trkpt>
<trkpt lat="33.8102678" lon="-118.3938718">
  <ele>-2.071</ele>
  <time>2026-09-01T01:17:33Z</time>
  <course>185.08</course>
  <speed>0.03</speed>
  <fix>3d</fix>
</trkpt>
<trkpt lat="33.8102675" lon="-118.3938718">
  <ele>-2.02</ele>
  <time>2026-09-01T01:17:33Z</time>
  <course>25.26</course>
  <speed>0.0</speed>
  <fix>3d</fix>
</trkpt>
<trkpt lat="33.8102678" lon="-118.3938718">
  <ele>-2.071</ele>
  <time>2026-09-01T01:17:33Z</time>
  <course>185.1</course>
  <speed>0.03</speed>
  <fix>3d</fix>
</trkpt>
<trkpt lat="33.8102675" lon="-118.3938718">
  <ele>-2.02</ele>
  <time>2026-09-01T01:17:33Z</time>
  <course>25.26</course>
  <speed>0.0</speed>
  <fix>3d</fix>
</trkpt>
<trkpt lat="33.8102678" lon="-118.3938718">
  <ele>-2.071</ele>
  <time>2026-09-01T01:17:33Z</time>
  <course>185.12</course>
  <speed>0.03</speed>
  <fix>3d</fix>
</trkpt>
<trkpt lat="33.8102675" lon="-118.3938718">
  <ele>-2.02</ele>
  <time>2026-09-01T01:17:33Z</time>
  <course>13.62</course>
  <speed>0.01</speed>
  <fix>3d</fix>
</trkpt>
<trkpt lat="33.8102678" lon="-118.3938718">
  <ele>-2.073</ele>
  <time>2026-09-01T01:17:33Z</time>
  <course>185.11</course>
  <speed>0.03</speed>
  <fix>3d</fix>
</trkpt>
<trkpt lat="33.8102675" lon="-118.3938718">
  <ele>-2.02</ele>
  <time>2026-09-01T01:17:33Z</time>
  <course>13.62</course>
  <speed>0.01</speed>
  <fix>3d</fix>
</trkpt>
<trkpt lat="33.8102678" lon="-118.3938718">
  <ele>-2.075</ele>
  <time>2026-09-01T01:17:33Z</time>
  <course>185.11</course>
  <speed>0.03</speed>
  <fix>3d</fix>
</trkpt>
<trkpt lat="33.8102675" lon="-118.3938718">
  <ele>-2.03</ele>
  <time>2026-09-01T01:17:33Z</time>
  <course>11.59</course>
  <speed>0.01</speed>
  <fix>3d</fix>
</trkpt>
<trkpt lat="33.8102678" lon="-118.3938718">
  <ele>-2.077</ele>
  <time>2026-09-01T01:17:33Z</time>
  <course>185.11</course>
  <speed>0.03</speed>
  <fix>3d</fix>
</trkpt>
<trkpt lat="33.8102675" lon="-118.3938718">
  <ele>-2.03</ele>
  <time>2026-09-01T01:17:33Z</time>
  <course>11.59</course>
  <speed>0.01</speed>
  <fix>3d</fix>
</trkpt>
<trkpt lat="33.8102678" lon="-118.3938718">
  <ele>-2.078</ele>
  <time>2026-09-01T01:17:33Z</time>
  <course>185.11</course>
  <speed>0.03</speed>
  <fix>3d</fix>
</trkpt>
<trkpt lat="33.8102675" lon="-118.3938718">
  <ele>-2.03</ele>
  <time>2026-09-01T01:17:33Z</time>
  <course>11.33</course>
  <speed>0.02</speed>
  <fix>3d</fix>
</trkpt>
<trkpt lat="33.8102678" lon="-118.3938718">
  <ele>-2.08</ele>
  <time>2026-09-01T01:17:33Z</time>
  <course>185.12</course>
  <speed>0.03</speed>
  <fix>3d</fix>
</trkpt>
<trkpt lat="33.8102675" lon="-118.3938718">
  <ele>-2.03</ele>
  <time>2026-09-01T01:17:33Z</time>
  <course>11.33</course>
  <speed>0.02</speed>
  <fix>3d</fix>
</trkpt>
<trkpt lat="33.8102678" lon="-118.3938718">
  <ele>-2.081</ele>
  <time>2026-09-01T01:17:33Z</time>
  <course>185.13</course>
  <speed>0.03</speed>
  <fix>3d</fix>
</trkpt>
<trkpt lat="33.8102676" lon="-118.3938718">
  <ele>-2.03</ele>
  <time>2026-09-01T01:17:33Z</time>
  <course>11.44</course>
  <speed>0.02</speed>
  <fix>3d</fix>
</trkpt>
<trkpt lat="33.8102678" lon="-118.3938718">
  <ele>-2.083</ele>
  <time>2026-09-01T01:17:33Z</time>
  <course>185.14</course>
  <speed>0.03</speed>
  <fix>3d</fix>
</trkpt>
<trkpt lat="33.8102676" lon="-118.3938718">
  <ele>-2.03</ele>
  <time>2026-09-01T01:17:33Z</time>
  <course>11.44</course>
  <speed>0.02</speed>
  <fix>3d</fix>
</trkpt>
<trkpt lat="33.8102678" lon="-118.3938718">
  <ele>-2.084</ele>
  <time>2026-09-01T01:17:33Z</time>
  <course>185.14</course>
  <speed>0.03</speed>
  <fix>3d</fix>
</trkpt>
<trkpt lat="33.8102677" lon="-118.3938718">
  <ele>-2.03</ele>
  <time>2026-09-01T01:17:33Z</time>
  <course>11.92</course>
  <speed>0.02</speed>
  <fix>3d</fix>
</trkpt>
<trkpt lat="33.8102678" lon="-118.3938718">
  <ele>-2.083</ele>
  <time>2026-09-01T01:17:33Z</time>
  <course>185.13</course>
  <speed>0.01</speed>
  <fix>3d</fix>
</trkpt>
<trkpt lat="33.8102677" lon="-118.3938718">
  <ele>-2.03</ele>
  <time>2026-09-01T01:17:33Z</time>
  <course>11.92</course>
  <speed>0.02</speed>
  <fix>3d</fix>
</trkpt>
<trkpt lat="33.8102678" lon="-118.3938718">
  <ele>-2.082</ele>
  <time>2026-09-01T01:17:33Z</time>
  <course>185.1</course>
  <speed>0.08062257748298549</speed>
  <fix>3d</fix>
</trkpt>
<trkpt lat="33.8102677" lon="-118.3938718">
  <ele>-2.03</ele>
  <time>2026-09-01T01:17:33Z</time>
  <course>51.3</course>
  <speed>0.0</speed>
  <fix>3d</fix>
</trkpt>
<trkpt lat="33.8102677" lon="-118.3938718">
  <ele>-2.081</ele>
  <time>2026-09-01T01:17:33Z</time>
  <course>185.08</course>
  <speed>0.24186773244895649</speed>
  <fix>3d</fix>
</trkpt>
<trkpt lat="33.8102677" lon="-118.3938718">
  <ele>-2.03</ele>
  <time>2026-09-01T01:17:33Z</time>
  <course>51.3</course>
  <speed>0.0</speed>
  <fix>3d</fix>
</trkpt>
<trkpt lat="33.8102674" lon="-118.3938719">
  <ele>-2.08</ele>
  <time>2026-09-01T01:17:33Z</time>
  <course>185.07</course>
  <speed>0.3721558813185679</speed>
  <fix>3d</fix>
</trkpt>
<trkpt lat="33.8102676" lon="-118.3938718">
  <ele>-2.03</ele>
  <time>2026-09-01T01:17:33Z</time>
  <course>182.39</course>
  <speed>0.15</speed>
  <fix>3d</fix>
</trkpt>
<trkpt lat="33.810267" lon="-118.3938719">
  <ele>-2.08</ele>
  <time>2026-09-01T01:17:33Z</time>
  <course>185.06</course>
  <speed>0.45276925690687087</speed>
  <fix>3d</fix>
</trkpt>
<trkpt lat="33.8102676" lon="-118.3938718">
  <ele>-2.03</ele>
  <time>2026-09-01T01:17:33Z</time>
  <course>182.39</course>
  <speed>0.15</speed>
  <fix>3d</fix>
</trkpt>
<trkpt lat="33.8102666" lon="-118.3938719">
  <ele>-2.08</ele>
  <time>2026-09-01T01:17:33Z</time>
  <course>185.05</course>
  <speed>0.5223983154643591</speed>
  <fix>3d</fix>
</trkpt>
<trkpt lat="33.8102672" lon="-118.3938718">
  <ele>-2.02</ele>
  <time>2026-09-01T01:17:33Z</time>
  <course>183.44</course>
  <speed>0.39</speed>
  <fix>3d</fix>
</trkpt>
<trkpt lat="33.8102661" lon="-118.393872">
  <ele>-2.08</ele>
  <time>2026-09-01T01:17:33Z</time>
  <course>185.05</course>
  <speed>0.5731491952362839</speed>
  <fix>3d</fix>
</trkpt>
<trkpt lat="33.8102672" lon="-118.3938718">
  <ele>-2.02</ele>
  <time>2026-09-01T01:17:33Z</time>
  <course>183.44</course>
  <speed>0.39</speed>
  <fix>3d</fix>
</trkpt>
<trkpt lat="33.8102656" lon="-118.393872">
  <ele>-2.078</ele>
  <time>2026-09-01T01:17:33Z</time>
  <course>185.04</course>
  <speed>0.6129437168288782</speed>
  <fix>3d</fix>
</trkpt>
<trkpt lat="33.8102664" lon="-118.3938718">
  <ele>-2.02</ele>
  <time>2026-09-01T01:17:33Z</time>
  <course>183.71</course>
  <speed>0.54</speed>
  <fix>3d</fix>
</trkpt>
<trkpt lat="33.810265" lon="-118.3938721">
  <ele>-2.077</ele>
  <time>2026-09-01T01:17:33Z</time>
  <course>185.04</course>
  <speed>0.6537583651472461</speed>
  <fix>3d</fix>
</trkpt>
<trkpt lat="33.8102664" lon="-118.3938718">
  <ele>-2.02</ele>
  <time>2026-09-01T01:17:33Z</time>
  <course>183.71</course>
  <speed>0.54</speed>
  <fix>3d</fix>
</trkpt>
<trkpt lat="33.8102644" lon="-118.3938721">
  <ele>-2.075</ele>
  <time>2026-09-01T01:17:33Z</time>
  <course>185.03</course>
  <speed>0.6835934464285041</speed>
  <fix>3d</fix>
</trkpt>
<trkpt lat="33.8102653" lon="-118.3938719">
  <ele>-2.02</ele>
  <time>2026-09-01T01:17:33Z</time>
  <course>183.97</course>
  <speed>0.64</speed>
  <fix>3d</fix>
</trkpt>
<trkpt lat="33.8102638" lon="-118.3938722">
  <ele>-2.074</ele>
  <time>2026-09-01T01:17:33Z</time>
  <course>185.03</course>
  <speed>0.723394774656273</speed>
  <fix>3d</fix>
</trkpt>
<trkpt lat="33.8102653" lon="-118.3938719">
  <ele>-2.02</ele>
  <time>2026-09-01T01:17:33Z</time>
  <course>183.97</course>
  <speed>0.64</speed>
  <fix>3d</fix>
</trkpt>
<trkpt lat="33.8102632" lon="-118.3938723">
  <ele>-2.074</ele>
  <time>2026-09-01T01:17:33Z</time>
  <course>185.03</course>
  <speed>0.7443117626371358</speed>
  <fix>3d</fix>
</trkpt>
<trkpt lat="33.810264" lon="-118.393872">
  <ele>-2.02</ele>
  <time>2026-09-01T01:17:33Z</time>
  <course>184.27</course>
  <speed>0.72</speed>
  <fix>3d</fix>
</trkpt>
<trkpt lat="33.8102625" lon="-118.3938723">
  <ele>-2.074</ele>
  <time>2026-09-01T01:17:33Z</time>
  <course>185.02</course>
  <speed>0.7741446893184762</speed>
  <fix>3d</fix>
</trkpt>
<trkpt lat="33.810264" lon="-118.393872">
  <ele>-2.02</ele>
  <time>2026-09-01T01:17:33Z</time>
  <course>184.27</course>
  <speed>0.72</speed>
  <fix>3d</fix>
</trkpt>
<trkpt lat="33.8102618" lon="-118.3938724">
  <ele>-2.074</ele>
  <time>2026-09-01T01:17:33Z</time>
  <course>185.02</course>
  <speed>0.7940403012442127</speed>
  <fix>3d</fix>
</trkpt>
<trkpt lat="33.8102626" lon="-118.3938721">
  <ele>-2.02</ele>
  <time>2026-09-01T01:17:33Z</time>
  <course>184.55</course>
  <speed>0.78</speed>
  <fix>3d</fix>
</trkpt>
<trkpt lat="33.810261" lon="-118.3938725">
  <ele>-2.075</ele>
  <time>2026-09-01T01:17:33Z</time>
  <course>185.02</course>
  <speed>0.8149846624323674</speed>
  <fix>3d</fix>
</trkpt>
<trkpt lat="33.8102626" lon="-118.3938721">
  <ele>-2.02</ele>
  <time>2026-09-01T01:17:33Z</time>
  <course>184.55</course>
  <speed>0.78</speed>
  <fix>3d</fix>
</trkpt>
<trkpt lat="33.8102603" lon="-118.3938725">
  <ele>-2.076</ele>
  <time>2026-09-01T01:17:33Z</time>
  <course>185.02</course>
  <speed>0.8249242389456137</speed>
  <fix>3d</fix>
</trkpt>
<trkpt lat="33.8102612" lon="-118.3938723">
  <ele>-2.02</ele>
  <time>2026-09-01T01:17:33Z</time>
  <course>184.82</course>
  <speed>0.82</speed>
  <fix>3d</fix>
</trkpt>
<trkpt lat="33.8102595" lon="-118.3938726">
  <ele>-2.077</ele>
  <time>2026-09-01T01:17:33Z</time>
  <course>185.02</course>
  <speed>0.8448076704197234</speed>
  <fix>3d</fix>
</trkpt>
<trkpt lat="33.8102612" lon="-118.3938723">
  <ele>-2.02</ele>
  <time>2026-09-01T01:17:33Z</time>
  <course>184.82</course>
  <speed>0.82</speed>
  <fix>3d</fix>
</trkpt>
<trkpt lat="33.8102588" lon="-118.3938727">
  <ele>-2.077</ele>
  <time>2026-09-01T01:17:33Z</time>
  <course>185.02</course>
  <speed>0.8547514258543241</speed>
  <fix>3d</fix>
</trkpt>
<trkpt lat="33.8102597" lon="-118.3938724">
  <ele>-2.02</ele>
  <time>2026-09-01T01:17:33Z</time>
  <course>185.04</course>
  <speed>0.86</speed>
  <fix>3d</fix>
</trkpt>
<trkpt lat="33.810258" lon="-118.3938728">
  <ele>-2.076</ele>
  <time>2026-09-01T01:17:33Z</time>
  <course>185.01</course>
  <speed>0.8646964785403025</speed>
  <fix>3d</fix>
</trkpt>
<trkpt lat="33.8102597" lon="-118.3938724">
  <ele>-2.02</ele>
  <time>2026-09-01T01:17:33Z</time>
  <course>185.04</course>
  <speed>0.86</speed>
  <fix>3d</fix>
</trkpt>
<trkpt lat="33.8102572" lon="-118.3938729">
  <ele>-2.076</ele>
  <time>2026-09-01T01:17:33Z</time>
  <course>185.02</course>
  <speed>0.875728268357257</speed>
  <fix>3d</fix>
</trkpt>
<trkpt lat="33.8102581" lon="-118.3938726">
  <ele>-2.02</ele>
  <time>2026-09-01T01:17:33Z</time>
  <course>185.19</course>
  <speed>0.89</speed>
  <fix>3d</fix>
</trkpt>
<trkpt lat="33.8102564" lon="-118.393873">
  <ele>-2.077</ele>
  <time>2026-09-01T01:17:33Z</time>
  <course>185.02</course>
  <speed>0.8856635930193812</speed>
  <fix>3d</fix>
</trkpt>
<trkpt lat="33.8102581" lon="-118.3938726">
  <ele>-2.02</ele>
  <time>2026-09-01T01:17:33Z</time>
  <course>185.19</course>
  <speed>0.89</speed>
  <fix>3d</fix>
</trkpt>
<trkpt lat="33.8102556" lon="-118.393873">
  <ele>-2.077</ele>
  <time>2026-09-01T01:17:33Z</time>
  <course>185.03</course>
  <speed>0.8856635930193812</speed>
  <fix>3d</fix>
</trkpt>
<trkpt lat="33.8102566" lon="-118.3938728">
  <ele>-2.02</ele>
  <time>2026-09-01T01:17:33Z</time>
  <course>185.31</course>
  <speed>0.91</speed>
  <fix>3d</fix>
</trkpt>
<trkpt lat="33.8102548" lon="-118.3938731">
  <ele>-2.078</ele>
  <time>2026-09-01T01:17:33Z</time>
  <course>185.02</course>
  <speed>0.8956003573022958</speed>
  <fix>3d</fix>
</trkpt>
<trkpt lat="33.8102566" lon="-118.3938728">
  <ele>-2.02</ele>
  <time>2026-09-01T01:17:33Z</time>
  <course>185.31</course>
  <speed>0.91</speed>
  <fix>3d</fix>
</trkpt>
<trkpt lat="33.810254" lon="-118.3938732">
  <ele>-2.079</ele>
  <time>2026-09-01T01:17:33Z</time>
  <course>185.02</course>
  <speed>0.9055385138137417</speed>
  <fix>3d</fix>
</trkpt>
<trkpt lat="33.8102549" lon="-118.3938729">
  <ele>-2.03</ele>
  <time>2026-09-01T01:17:33Z</time>
  <course>185.37</course>
  <speed>0.92</speed>
  <fix>3d</fix>
</trkpt>
<trkpt lat="33.8102531" lon="-118.3938733">
  <ele>-2.079</ele>
  <time>2026-09-01T01:17:33Z</time>
  <course>185.02</course>
  <speed>0.9055385138137417</speed>
  <fix>3d</fix>
</trkpt>
<trkpt lat="33.8102549" lon="-118.3938729">
  <ele>-2.03</ele>
  <time>2026-09-01T01:17:33Z</time>
  <course>185.37</course>
  <speed>0.92</speed>
  <fix>3d</fix>
</trkpt>
<trkpt lat="33.8102523" lon="-118.3938734">
  <ele>-2.079</ele>
  <time>2026-09-01T01:17:33Z</time>
  <course>185.02</course>
  <speed>0.9055385138137417</speed>
  <fix>3d</fix>
</trkpt>
<trkpt lat="33.8102532" lon="-118.3938732">
  <ele>-2.03</ele>
  <time>2026-09-01T01:17:33Z</time>
  <course>185.41</course>
  <speed>0.94</speed>
  <fix>3d</fix>
</trkpt>
<trkpt lat="33.8102515" lon="-118.3938735">
  <ele>-2.079</ele>
  <time>2026-09-01T01:17:33Z</time>
  <course>185.03</course>
  <speed>0.9154780172128657</speed>
  <fix>3d</fix>
</trkpt>
<trkpt lat="33.8102532" lon="-118.3938732">
  <ele>-2.03</ele>
  <time>2026-09-01T01:17:33Z</time>
  <course>185.41</course>
  <speed>0.94</speed>
  <fix>3d</fix>
</trkpt>
<trkpt lat="33.8102506" lon="-118.3938736">
  <ele>-2.078</ele>
  <time>2026-09-01T01:17:33Z</time>
  <course>185.03</course>
  <speed>0.9154780172128657</speed>
  <fix>3d</fix>
</trkpt>
<trkpt lat="33.8102515" lon="-118.3938734">
  <ele>-2.02</ele>
  <time>2026-09-01T01:17:33Z</time>
  <course>185.43</course>
  <speed>0.94</speed>
  <fix>3d</fix>
</trkpt>
<trkpt lat="33.8102498" lon="-118.3938737">
  <ele>-2.078</ele>
  <time>2026-09-01T01:17:33Z</time>
  <course>185.04</course>
  <speed>0.9154780172128657</speed>
  <fix>3d</fix>
</trkpt>
<trkpt lat="33.8102515" lon="-118.3938734">
  <ele>-2.02</ele>
  <time>2026-09-01T01:17:33Z</time>
  <course>185.43</course>
  <speed>0.94</speed>
  <fix>3d</fix>
</trkpt>
<trkpt lat="33.8102489" lon="-118.3938738">
  <ele>-2.078</ele>
  <time>2026-09-01T01:17:33Z</time>
  <course>185.04</course>
  <speed>0.9154780172128657</speed>
  <fix>3d</fix>
</trkpt>
<trkpt lat="33.8102498" lon="-118.3938736">
  <ele>-2.02</ele>
  <time>2026-09-01T01:17:33Z</time>
  <course>185.37</course>
  <speed>0.95</speed>
  <fix>3d</fix>
</trkpt>
<trkpt lat="33.8102481" lon="-118.3938739">
  <ele>-2.078</ele>
  <time>2026-09-01T01:17:33Z</time>
  <course>185.04</course>
  <speed>0.9144397191723465</speed>
  <fix>3d</fix>
</trkpt>
<trkpt lat="33.8102498" lon="-118.3938736">
  <ele>-2.02</ele>
  <time>2026-09-01T01:17:33Z</time>
  <course>185.37</course>
  <speed>0.95</speed>
  <fix>3d</fix>
</trkpt>
<trkpt lat="33.8102472" lon="-118.3938739">
  <ele>-2.077</ele>
  <time>2026-09-01T01:17:33Z</time>
  <course>185.04</course>
  <speed>0.9144397191723465</speed>
  <fix>3d</fix>
</trkpt>
<trkpt lat="33.8102481" lon="-118.3938737">
  <ele>-2.02</ele>
  <time>2026-09-01T01:17:33Z</time>
  <course>185.26</course>
  <speed>0.95</speed>
  <fix>3d</fix>
</trkpt>
<trkpt lat="33.8102464" lon="-118.393874">
  <ele>-2.077</ele>
  <time>2026-09-01T01:17:33Z</time>
  <course>185.04</course>
  <speed>0.8845903006477066</speed>
  <fix>3d</fix>
</trkpt>
<trkpt lat="33.8102481" lon="-118.3938737">
  <ele>-2.02</ele>
  <time>2026-09-01T01:17:33Z</time>
  <course>185.26</course>
  <speed>0.95</speed>
  <fix>3d</fix>
</trkpt>
<trkpt lat="33.8102456" lon="-118.3938741">
  <ele>-2.076</ele>
  <time>2026-09-01T01:17:33Z</time>
  <course>185.04</course>
  <speed>0.8039900496896712</speed>
  <fix>3d</fix>
</trkpt>
<trkpt lat="33.8102464" lon="-118.3938739">
  <ele>-2.02</ele>
  <time>2026-09-01T01:17:33Z</time>
  <course>185.21</course>
  <speed>0.93</speed>
  <fix>3d</fix>
</trkpt>
<trkpt lat="33.8102449" lon="-118.3938742">
  <ele>-2.074</ele>
  <time>2026-09-01T01:17:33Z</time>
  <course>185.04</course>
  <speed>0.6835934464285041</speed>
  <fix>3d</fix>
</trkpt>
<trkpt lat="33.8102464" lon="-118.3938739">
  <ele>-2.02</ele>
  <time>2026-09-01T01:17:33Z</time>
  <course>185.21</course>
  <speed>0.93</speed>
  <fix>3d</fix>
</trkpt>
<trkpt lat="33.8102443" lon="-118.3938743">
  <ele>-2.073</ele>
  <time>2026-09-01T01:17:33Z</time>
  <course>185.05</course>
  <speed>0.563205113613149</speed>
  <fix>3d</fix>
</trkpt>
<trkpt lat="33.8102449" lon="-118.3938741">
  <ele>-2.02</ele>
  <time>2026-09-01T01:17:33Z</time>
  <course>185.26</course>
  <speed>0.8</speed>
  <fix>3d</fix>
</trkpt>
<trkpt lat="33.8102438" lon="-118.3938743">
  <ele>-2.073</ele>
  <time>2026-09-01T01:17:33Z</time>
  <course>185.05</course>
  <speed>0.4738143096192854</speed>
  <fix>3d</fix>
</trkpt>
<trkpt lat="33.8102449" lon="-118.3938741">
  <ele>-2.02</ele>
  <time>2026-09-01T01:17:33Z</time>
  <course>185.26</course>
  <speed>0.8</speed>
  <fix>3d</fix>
</trkpt>
<trkpt lat="33.8102434" lon="-118.3938744">
  <ele>-2.073</ele>
  <time>2026-09-01T01:17:33Z</time>
  <course>185.06</course>
  <speed>0.41303752856126763</speed>
  <fix>3d</fix>
</trkpt>
<trkpt lat="33.8102436" lon="-118.3938742">
  <ele>-2.02</ele>
  <time>2026-09-01T01:17:33Z</time>
  <course>185.38</course>
  <speed>0.59</speed>
  <fix>3d</fix>
</trkpt>
<trkpt lat="33.810243" lon="-118.3938744">
  <ele>-2.074</ele>
  <time>2026-09-01T01:17:33Z</time>
  <course>185.07</course>
  <speed>0.3622154055254967</speed>
  <fix>3d</fix>
</trkpt>
<trkpt lat="33.8102436" lon="-118.3938742">
  <ele>-2.02</ele>
  <time>2026-09-01T01:17:33Z</time>
  <course>185.38</course>
  <speed>0.59</speed>
  <fix>3d</fix>
</trkpt>
<trkpt lat="33.8102427" lon="-118.3938744">
  <ele>-2.074</ele>
  <time>2026-09-01T01:17:33Z</time>
  <course>185.07</course>
  <speed>0.32249030993194194</speed>
  <fix>3d</fix>
</trkpt>
<trkpt lat="33.8102427" lon="-118.3938743">
  <ele>-2.02</ele>
  <time>2026-09-01T01:17:33Z</time>
  <course>185.48</course>
  <speed>0.44</speed>
  <fix>3d</fix>
</trkpt>
<trkpt lat="33.8102423" lon="-118.3938745">
  <ele>-2.074</ele>
  <time>2026-09-01T01:17:33Z</time>
  <course>185.08</course>
  <speed>0.282842712474619</speed>
  <fix>3d</fix>
</trkpt>
<trkpt lat="33.8102427" lon="-118.3938743">
  <ele>-2.02</ele>
  <time>2026-09-01T01:17:33Z</time>
  <course>185.48</course>
  <speed>0.44</speed>
  <fix>3d</fix>
</trkpt>
<trkpt lat="33.810242" lon="-118.3938745">
  <ele>-2.074</ele>
  <time>2026-09-01T01:17:33Z</time>
  <course>185.08</course>
  <speed>0.25179356624028343</speed>
  <fix>3d</fix>
</trkpt>
<trkpt lat="33.810242" lon="-118.3938744">
  <ele>-2.02</ele>
  <time>2026-09-01T01:17:33Z</time>
  <course>185.57</course>
  <speed>0.34</speed>
  <fix>3d</fix>
</trkpt>
<trkpt lat="33.8102418" lon="-118.3938745">
  <ele>-2.074</ele>
  <time>2026-09-01T01:17:33Z</time>
  <course>185.09</course>
  <speed>0.2220360331117452</speed>
  <fix>3d</fix>
</trkpt>
<trkpt lat="33.810242" lon="-118.3938744">
  <ele>-2.02</ele>
  <time>2026-09-01T01:17:33Z</time>
  <course>185.57</course>
  <speed>0.34</speed>
  <fix>3d</fix>
</trkpt>
<trkpt lat="33.8102416" lon="-118.3938746">
  <ele>-2.073</ele>
  <time>2026-09-01T01:17:33Z</time>
  <course>185.09</course>
  <speed>0.19235384061671343</speed>
  <fix>3d</fix>
</trkpt>
<trkpt lat="33.8102414" lon="-118.3938745">
  <ele>-2.03</ele>
  <time>2026-09-01T01:17:33Z</time>
  <course>185.61</course>
  <speed>0.27</speed>
  <fix>3d</fix>
</trkpt>
<trkpt lat="33.8102413" lon="-118.3938746">
  <ele>-2.073</ele>
  <time>2026-09-01T01:17:33Z</time>
  <course>185.1</course>
  <speed>0.17262676501632068</speed>
  <fix>3d</fix>
</trkpt>
<trkpt lat="33.8102414" lon="-118.3938745">
  <ele>-2.03</ele>
  <time>2026-09-01T01:17:33Z</time>
  <course>185.61</course>
  <speed>0.27</speed>
  <fix>3d</fix>
</trkpt>
<trkpt lat="33.8102412" lon="-118.3938746">
  <ele>-2.074</ele>
  <time>2026-09-01T01:17:33Z</time>
  <course>185.11</course>
  <speed>0.16278820596099705</speed>
  <fix>3d</fix>
</trkpt>
<trkpt lat="33.810241" lon="-118.3938745">
  <ele>-2.03</ele>
  <time>2026-09-01T01:17:33Z</time>
  <course>185.67</course>
  <speed>0.22</speed>
  <fix>3d</fix>
</trkpt>
<trkpt lat="33.810241" lon="-118.3938746">
  <ele>-2.075</ele>
  <time>2026-09-01T01:17:33Z</time>
  <course>185.11</course>
  <speed>0.1414213562373095</speed>
  <fix>3d</fix>
</trkpt>
<trkpt lat="33.810241" lon="-118.3938745">
  <ele>-2.03</ele>
  <time>2026-09-01T01:17:33Z</time>
  <course>185.67</course>
  <speed>0.22</speed>
  <fix>3d</fix>
</trkpt>
<trkpt lat="33.8102408" lon="-118.3938746">
  <ele>-2.075</ele>
  <time>2026-09-01T01:17:33Z</time>
  <course>185.1</course>
  <speed>0.12165525060596438</speed>
  <fix>3d</fix>
</trkpt>
<trkpt lat="33.8102406" lon="-118.3938746">
  <ele>-2.03</ele>
  <time>2026-09-01T01:17:33Z</time>
  <course>185.82</course>
  <speed>0.17</speed>
  <fix>3d</fix>
</trkpt>
<trkpt lat="33.8102407" lon="-118.3938747">
  <ele>-2.076</ele>
  <time>2026-09-01T01:17:33Z</time>
  <course>185.1</course>
  <speed>0.1019803902718557</speed>
  <fix>3d</fix>
</trkpt>
<trkpt lat="33.8102406" lon="-118.3938746">
  <ele>-2.03</ele>
  <time>2026-09-01T01:17:33Z</time>
  <course>185.82</course>
  <speed>0.17</speed>
  <fix>3d</fix>
</trkpt>
<trkpt lat="33.8102406" lon="-118.3938747">
  <ele>-2.077</ele>
  <time>2026-09-01T01:17:33Z</time>
  <course>185.09</course>
  <speed>0.0824621125123532</speed>
  <fix>3d</fix>
</trkpt>
<trkpt lat="33.8102404" lon="-118.3938746">
  <ele>-2.03</ele>
  <time>2026-09-01T01:17:33Z</time>
  <course>185.93</course>
  <speed>0.13</speed>
  <fix>3d</fix>
</trkpt>
<trkpt lat="33.8102405" lon="-118.3938747">
  <ele>-2.078</ele>
  <time>2026-09-01T01:17:33Z</time>
  <course>185.09</course>
  <speed>0.0632455532033676</speed>
  <fix>3d</fix>
</trkpt>
<trkpt lat="33.8102404" lon="-118.3938746">
  <ele>-2.03</ele>
  <time>2026-09-01T01:17:33Z</time>
  <course>185.93</course>
  <speed>0.13</speed>
  <fix>3d</fix>
</trkpt>
<trkpt lat="33.8102404" lon="-118.3938747">
  <ele>-2.08</ele>
  <time>2026-09-01T01:17:33Z</time>
  <course>185.09</course>
  <speed>0.0412310562561766</speed>
  <fix>3d</fix>
</trkpt>
<trkpt lat="33.8102401" lon="-118.3938746">
  <ele>-2.04</ele>
  <time>2026-09-01T01:17:33Z</time>
  <course>186.03</course>
  <speed>0.09</speed>
  <fix>3d</fix>
</trkpt>
<trkpt lat="33.8102403" lon="-118.3938747">
  <ele>-2.082</ele>
  <time>2026-09-01T01:17:33Z</time>
  <course>185.09</course>
  <speed>0.022360679774997897</speed>
  <fix>3d</fix>
</trkpt>
<trkpt lat="33.8102401" lon="-118.3938746">
  <ele>-2.04</ele>
  <time>2026-09-01T01:17:33Z</time>
  <course>186.03</course>
  <speed>0.09</speed>
  <fix>3d</fix>
</trkpt>
<trkpt lat="33.8102403" lon="-118.3938747">
  <ele>-2.083</ele>
  <time>2026-09-01T01:17:33Z</time>
  <course>185.09</course>
  <speed>0.01414213562373095</speed>
  <fix>3d</fix>
</trkpt>
<trkpt lat="33.81024" lon="-118.3938747">
  <ele>-2.04</ele>
  <time>2026-09-01T01:17:33Z</time>
  <course>186.39</course>
  <speed>0.05</speed>
  <fix>3d</fix>
</trkpt>
<trkpt lat="33.8102403" lon="-118.3938747">
  <ele>-2.084</ele>
  <time>2026-09-01T01:17:33Z</time>
  <course>185.09</course>
  <speed>0.01</speed>
  <fix>3d</fix>
</trkpt>
<trkpt lat="33.81024" lon="-118.3938747">
  <ele>-2.04</ele>
  <time>2026-09-01T01:17:33Z</time>
  <course>186.39</course>
  <speed>0.05</speed>
  <fix>3d</fix>
</trkpt>
<trkpt lat="33.8102402" lon="-118.3938747">
  <ele>-2.083</ele>
  <time>2026-09-01T01:17:33Z</time>
  <course>185.09</course>
  <speed>0.01414213562373095</speed>
  <fix>3d</fix>
</trkpt>
<trkpt lat="33.8102399" lon="-118.3938747">
  <ele>-2.04</ele>
  <time>2026-09-01T01:17:33Z</time>
  <course>187.86</course>
  <speed>0.02</speed>
  <fix>3d</fix>
</trkpt>
<trkpt lat="33.8102402" lon="-118.3938747">
  <ele>-2.081</ele>
  <time>2026-09-01T01:17:33Z</time>
  <course>185.09</course>
  <speed>0.022360679774997897</speed>
  <fix>3d</fix>
</trkpt>
<trkpt lat="33.8102399" lon="-118.3938747">
  <ele>-2.04</ele>
  <time>2026-09-01T01:17:33Z</time>
  <course>187.86</course>
  <speed>0.02</speed>
  <fix>3d</fix>
</trkpt>
<trkpt lat="33.8102402" lon="-118.3938747">
  <ele>-2.079</ele>
  <time>2026-09-01T01:17:33Z</time>
  <course>185.07</course>
  <speed>0.0316227766016838</speed>
  <fix>3d</fix>
</trkpt>
<trkpt lat="33.8102399" lon="-118.3938747">
  <ele>-2.03</ele>
  <time>2026-09-01T01:17:33Z</time>
  <course>334.98</course>
  <speed>0.0</speed>
  <fix>3d</fix>
</trkpt>
<trkpt lat="33.8102402" lon="-118.3938747">
  <ele>-2.077</ele>
  <time>2026-09-01T01:17:33Z</time>
  <course>185.08</course>
  <speed>0.03</speed>
  <fix>3d</fix>
</trkpt>
<trkpt lat="33.8102399" lon="-118.3938747">
  <ele>-2.03</ele>
  <time>2026-09-01T01:17:33Z</time>
  <course>334.98</course>
  <speed>0.0</speed>
  <fix>3d</fix>
</trkpt>
<trkpt lat="33.8102402" lon="-118.3938747">
  <ele>-2.077</ele>
  <time>2026-09-01T01:17:33Z</time>
  <course>185.11</course>
  <speed>0.03</speed>
  <fix>3d</fix>
</trkpt>
<trkpt lat="33.81024" lon="-118.3938747">
  <ele>-2.03</ele>
  <time>2026-09-01T01:17:33Z</time>
  <course>5.34</course>
  <speed>0.01</speed>
  <fix>3d</fix>
</trkpt>
<trkpt lat="33.8102402" lon="-118.3938747">
  <ele>-2.078</ele>
  <time>2026-09-01T01:17:33Z</time>
  <course>185.13</course>
  <speed>0.03</speed>
  <fix>3d</fix>
</trkpt>
<trkpt lat="33.81024" lon="-118.3938747">
  <ele>-2.03</ele>
  <time>2026-09-01T01:17:33Z</time>
  <course>5.34</course>
  <speed>0.01</speed>
  <fix>3d</fix>
</trkpt>
<trkpt lat="33.8102402" lon="-118.3938747">
  <ele>-2.079</ele>
  <time>2026-09-01T01:17:33Z</time>
  <course>185.15</course>
  <speed>0.0316227766016838</speed>
  <fix>3d</fix>
</trkpt>
<trkpt lat="33.81024" lon="-118.3938747">
  <ele>-2.03</ele>
  <time>2026-09-01T01:17:33Z</time>
  <course>6.99</course>
  <speed>0.02</speed>
  <fix>3d</fix>
</trkpt>
<trkpt lat="33.8102402" lon="-118.3938747">
  <ele>-2.079</ele>
  <time>2026-09-01T01:17:33Z</time>
  <course>185.17</course>
  <speed>0.0316227766016838</speed>
  <fix>3d</fix>
</trkpt>
<trkpt lat="33.81024" lon="-118.3938747">
  <ele>-2.03</ele>
  <time>2026-09-01T01:17:33Z</time>
  <course>6.99</course>
  <speed>0.02</speed>
  <fix>3d</fix>
</trkpt>
<trkpt lat="33.8102402" lon="-118.3938747">
  <ele>-2.078</ele>
  <time>2026-09-01T01:17:33Z</time>
  <course>185.18</course>
  <speed>0.0316227766016838</speed>
  <fix>3d</fix>
</trkpt>
<trkpt lat="33.81024" lon="-118.3938747">
  <ele>-2.02</ele>
  <time>2026-09-01T01:17:33Z</time>
  <course>7.45</course>
  <speed>0.02</speed>
  <fix>3d</fix>
</trkpt>
<trkpt lat="33.8102402" lon="-118.3938747">
  <ele>-2.077</ele>
  <time>2026-09-01T01:17:33Z</time>
  <course>185.18</course>
  <speed>0.0316227766016838</speed>
  <fix>3d</fix>
</trkpt>
<trkpt lat="33.81024" lon="-118.3938747">
  <ele>-2.02</ele>
  <time>2026-09-01T01:17:33Z</time>
  <course>7.45</course>
  <speed>0.02</speed>
  <fix>3d</fix>
</trkpt>
<trkpt lat="33.8102402" lon="-118.3938747">
  <ele>-2.076</ele>
  <time>2026-09-01T01:17:33Z</time>
  <course>185.19</course>
  <speed>0.0316227766016838</speed>
  <fix>3d</fix>
</trkpt>
<trkpt lat="33.81024" lon="-118.3938747">
  <ele>-2.02</ele>
  <time>2026-09-01T01:17:33Z</time>
  <course>7.65</course>
  <speed>0.02</speed>
  <fix>3d</fix>
</trkpt>
<trkpt lat="33.8102402" lon="-118.3938747">
  <ele>-2.075</ele>
  <time>2026-09-01T01:17:33Z</time>
  <course>185.2</course>
  <speed>0.0316227766016838</speed>
  <fix>3d</fix>
</trkpt>
<trkpt lat="33.81024" lon="-118.3938747">
  <ele>-2.02</ele>
  <time>2026-09-01T01:17:33Z</time>
  <course>7.65</course>
  <speed>0.02</speed>
  <fix>3d</fix>
</trkpt>
<trkpt lat="33.8102402" lon="-118.3938747">
  <ele>-2.074</ele>
  <time>2026-09-01T01:17:33Z</time>
  <course>185.18</course>
  <speed>0.01</speed>
  <fix>3d</fix>
</trkpt>
<trkpt lat="33.81024" lon="-118.3938747">
  <ele>-2.02</ele>
  <time>2026-09-01T01:17:33Z</time>
  <course>8.38</course>
  <speed>0.02</speed>
  <fix>3d</fix>
</trkpt>
<trkpt lat="33.8102402" lon="-118.3938747">
  <ele>-2.073</ele>
  <time>2026-09-01T01:17:33Z</time>
  <course>185.13</course>
  <speed>0.12165525060596438</speed>
  <fix>3d</fix>
</trkpt>
<trkpt lat="33.81024" lon="-118.3938747">
  <ele>-2.02</ele>
  <time>2026-09-01T01:17:33Z</time>
  <course>8.38</course>
  <speed>0.02</speed>
  <fix>3d</fix>
</trkpt>
<trkpt lat="33.81024" lon="-118.3938748">
  <ele>-2.073</ele>
  <time>2026-09-01T01:17:33Z</time>
  <course>185.09</course>
  <speed>0.3014962686336267</speed>
  <fix>3d</fix>
</trkpt>
<trkpt lat="33.81024" lon="-118.3938747">
  <ele>-2.02</ele>
  <time>2026-09-01T01:17:33Z</time>
  <course>182.19</course>
  <speed>0.07</speed>
  <fix>3d</fix>
</trkpt>
<trkpt lat="33.8102396" lon="-118.3938748">
  <ele>-2.073</ele>
  <time>2026-09-01T01:17:33Z</time>
  <course>185.07</course>
  <speed>0.49254441424099005</speed>
  <fix>3d</fix>
</trkpt>
<trkpt lat="33.81024" lon="-118.3938747">
  <ele>-2.02</ele>
  <time>2026-09-01T01:17:33Z</time>
  <course>182.19</course>
  <speed>0.07</speed>
  <fix>3d</fix>
</trkpt>
<trkpt lat="33.8102391" lon="-118.3938748">
  <ele>-2.074</ele>
  <time>2026-09-01T01:17:33Z</time>
  <course>185.07</course>
  <speed>0.6228964600958975</speed>
  <fix>3d</fix>
</trkpt>
<trkpt lat="33.8102396" lon="-118.3938747">
  <ele>-2.02</ele>
  <time>2026-09-01T01:17:33Z</time>
  <course>183.77</course>
  <speed>0.35</speed>
  <fix>3d</fix>
</trkpt>
<trkpt lat="33.8102385" lon="-118.3938749">
  <ele>-2.075</ele>
  <time>2026-09-01T01:17:33Z</time>
  <course>185.06</course>
  <speed>0.723394774656273</speed>
  <fix>3d</fix>
</trkpt>
<trkpt lat="33.8102396" lon="-118.3938747">
  <ele>-2.02</ele>
  <time>2026-09-01T01:17:33Z</time>
  <course>183.77</course>
  <speed>0.35</speed>
  <fix>3d</fix>
</trkpt>
<trkpt lat="33.8102378" lon="-118.393875">
  <ele>-2.076</ele>
  <time>2026-09-01T01:17:33Z</time>
  <course>185.06</course>
  <speed>0.7940403012442127</speed>
  <fix>3d</fix>
</trkpt>
<trkpt lat="33.8102388" lon="-118.3938747">
  <ele>-2.02</ele>
  <time>2026-09-01T01:17:33Z</time>
  <course>184.11</course>
  <speed>0.64</speed>
  <fix>3d</fix>
</trkpt>
<trkpt lat="33.8102371" lon="-118.393875">
  <ele>-2.078</ele>
  <time>2026-09-01T01:17:33Z</time>
  <course>185.05</course>
  <speed>0.8537564055396598</speed>
  <fix>3d</fix>
</trkpt>
<trkpt lat="33.8102388" lon="-118.3938747">
  <ele>-2.02</ele>
  <time>2026-09-01T01:17:33Z</time>
  <course>184.11</course>
  <speed>0.64</speed>
  <fix>3d</fix>
</trkpt>
<trkpt lat="33.8102363" lon="-118.3938751">
  <ele>-2.079</ele>
  <time>2026-09-01T01:17:33Z</time>
  <course>185.05</course>
  <speed>0.9044888059008801</speed>
  <fix>3d</fix>
</trkpt>
<trkpt lat="33.8102375" lon="-118.3938748">
  <ele>-2.03</ele>
  <time>2026-09-01T01:17:33Z</time>
  <course>184.31</course>
  <speed>0.81</speed>
  <fix>3d</fix>
</trkpt>
<trkpt lat="33.8102355" lon="-118.3938752">
  <ele>-2.08</ele>
  <time>2026-09-01T01:17:33Z</time>
  <course>185.04</course>
  <speed>0.945304183847718</speed>
  <fix>3d</fix>
</trkpt>
<trkpt lat="33.8102375" lon="-118.3938748">
  <ele>-2.03</ele>
  <time>2026-09-01T01:17:33Z</time>
  <course>184.31</course>
  <speed>0.81</speed>
  <fix>3d</fix>
</trkpt>
<trkpt lat="33.8102347" lon="-118.3938753">
  <ele>-2.08</ele>
  <time>2026-09-01T01:17:33Z</time>
  <course>185.03</course>
  <speed>0.9950376877284599</speed>
  <fix>3d</fix>
</trkpt>
<trkpt lat="33.8102359" lon="-118.393875">
  <ele>-2.03</ele>
  <time>2026-09-01T01:17:33Z</time>
  <course>184.52</course>
  <speed>0.93</speed>
  <fix>3d</fix>
</trkpt>
<trkpt lat="33.8102337" lon="-118.3938754">
  <ele>-2.081</ele>
  <time>2026-09-01T01:17:33Z</time>
  <course>185.03</course>
  <speed>1.035857133006285</speed>
  <fix>3d</fix>
</trkpt>
<trkpt lat="33.8102359" lon="-118.393875">
  <ele>-2.03</ele>
  <time>2026-09-01T01:17:33Z</time>
  <course>184.52</course>
  <speed>0.93</speed>
  <fix>3d</fix>
</trkpt>
<trkpt lat="33.8102328" lon="-118.3938755">
  <ele>-2.081</ele>
  <time>2026-09-01T01:17:33Z</time>
  <course>185.03</course>
  <speed>1.0656922632730332</speed>
  <fix>3d</fix>
</trkpt>
<trkpt lat="33.8102341" lon="-118.3938752">
  <ele>-2.03</ele>
  <time>2026-09-01T01:17:33Z</time>
  <course>184.72</course>
  <speed>1.02</speed>
  <fix>3d</fix>
</trkpt>
<trkpt lat="33.8102318" lon="-118.3938756">
  <ele>-2.081</ele>
  <time>2026-09-01T01:17:33Z</time>
  <course>185.03</course>
  <speed>1.0955363982999378</speed>
  <fix>3d</fix>
</trkpt>
<trkpt lat="33.8102341" lon="-118.3938752">
  <ele>-2.03</ele>
  <time>2026-09-01T01:17:33Z</time>
  <course>184.72</course>
  <speed>1.02</speed>
  <fix>3d</fix>
</trkpt>
<trkpt lat="33.8102308" lon="-118.3938757">
  <ele>-2.08</ele>
  <time>2026-09-01T01:17:33Z</time>
  <course>185.02</course>
  <speed>1.1253888216967503</speed>
  <fix>3d</fix>
</trkpt>
<trkpt lat="33.8102322" lon="-118.3938753">
  <ele>-2.03</ele>
  <time>2026-09-01T01:17:33Z</time>
  <course>184.85</course>
  <speed>1.09</speed>
  <fix>3d</fix>
</trkpt>
<trkpt lat="33.8102298" lon="-118.3938758">
  <ele>-2.079</ele>
  <time>2026-09-01T01:17:33Z</time>
  <course>185.03</course>
  <speed>1.1462983904725679</speed>
  <fix>3d</fix>
</trkpt>
<trkpt lat="33.8102322" lon="-118.3938753">
  <ele>-2.03</ele>
  <time>2026-09-01T01:17:33Z</time>
  <course>184.85</course>
  <speed>1.09</speed>
  <fix>3d</fix>
</trkpt>
<trkpt lat="33.8102288" lon="-118.3938759">
  <ele>-2.077</ele>
  <time>2026-09-01T01:17:33Z</time>
  <course>185.02</course>
  <speed>1.16619037896906</speed>
  <fix>3d</fix>
</trkpt>
<trkpt lat="33.8102302" lon="-118.3938756">
  <ele>-2.02</ele>
  <time>2026-09-01T01:17:33Z</time>
  <course>184.97</course>
  <speed>1.15</speed>
  <fix>3d</fix>
</trkpt>
<trkpt lat="33.8102277" lon="-118.393876">
  <ele>-2.076</ele>
  <time>2026-09-01T01:17:33Z</time>
  <course>185.03</course>
  <speed>1.186086000254619</speed>
  <fix>3d</fix>
</trkpt>
<trkpt lat="33.8102302" lon="-118.3938756">
  <ele>-2.02</ele>
  <time>2026-09-01T01:17:33Z</time>
  <course>184.97</course>
  <speed>1.15</speed>
  <fix>3d</fix>
</trkpt>
<trkpt lat="33.8102266" lon="-118.3938761">
  <ele>-2.075</ele>
  <time>2026-09-01T01:17:33Z</time>
  <course>185.03</course>
  <speed>1.2059850745345069</speed>
  <fix>3d</fix>
</trkpt>
<trkpt lat="33.8102281" lon="-118.3938758">
  <ele>-2.02</ele>
  <time>2026-09-01T01:17:33Z</time>
  <course>185.07</course>
  <speed>1.2</speed>
  <fix>3d</fix>
</trkpt>
<trkpt lat="33.8102255" lon="-118.3938762">
  <ele>-2.075</ele>
  <time>2026-09-01T01:17:33Z</time>
  <course>185.02</course>
  <speed>1.226906679417795</speed>
  <fix>3d</fix>
</trkpt>
<trkpt lat="33.8102281" lon="-118.3938758">
  <ele>-2.02</ele>
  <time>2026-09-01T01:17:33Z</time>
  <course>185.07</course>
  <speed>1.2</speed>
  <fix>3d</fix>
</trkpt>
<trkpt lat="33.8102244" lon="-118.3938763">
  <ele>-2.075</ele>
  <time>2026-09-01T01:17:33Z</time>
  <course>185.03</course>
  <speed>1.2368508398347797</speed>
  <fix>3d</fix>
</trkpt>
<trkpt lat="33.8102259" lon="-118.393876">
  <ele>-2.02</ele>
  <time>2026-09-01T01:17:33Z</time>
  <course>185.14</course>
  <speed>1.24</speed>
  <fix>3d</fix>
</trkpt>
<trkpt lat="33.8102233" lon="-118.3938765">
  <ele>-2.075</ele>
  <time>2026-09-01T01:17:33Z</time>
  <course>185.02</course>
  <speed>1.2467958934805647</speed>
  <fix>3d</fix>
</trkpt>
<trkpt lat="33.8102259" lon="-118.393876">
  <ele>-2.02</ele>
  <time>2026-09-01T01:17:33Z</time>
  <course>185.14</course>
  <speed>1.24</speed>
  <fix>3d</fix>
</trkpt>
<trkpt lat="33.8102222" lon="-118.3938766">
  <ele>-2.074</ele>
  <time>2026-09-01T01:17:33Z</time>
  <course>185.03</course>
  <speed>1.2567418191498205</speed>
  <fix>3d</fix>
</trkpt>
<trkpt lat="33.8102236" lon="-118.3938762">
  <ele>-2.02</ele>
  <time>2026-09-01T01:17:33Z</time>
  <course>185.2</course>
  <speed>1.27</speed>
  <fix>3d</fix>
</trkpt>
<trkpt lat="33.810221" lon="-118.3938767">
  <ele>-2.074</ele>
  <time>2026-09-01T01:17:33Z</time>
  <course>185.03</course>
  <speed>1.2567418191498205</speed>
  <fix>3d</fix>
</trkpt>
<trkpt lat="33.8102236" lon="-118.3938762">
  <ele>-2.02</ele>
  <time>2026-09-01T01:17:33Z</time>
  <course>185.2</course>
  <speed>1.27</speed>
  <fix>3d</fix>
</trkpt>
<trkpt lat="33.8102199" lon="-118.3938768">
  <ele>-2.074</ele>
  <time>2026-09-01T01:17:34Z</time>
  <course>185.03</course>
  <speed>1.2666885963013956</speed>
  <fix>3d</fix>
</trkpt>
<trkpt lat="33.8102213" lon="-118.3938765">
  <ele>-2.02</ele>
  <time>2026-09-01T01:17:34Z</time>
  <course>185.27</course>
  <speed>1.29</speed>
  <fix>3d</fix>
</trkpt>
<trkpt lat="33.8102187" lon="-118.3938769">
  <ele>-2.074</ele>
  <time>2026-09-01T01:17:34Z</time>
  <course>185.03</course>
  <speed>1.2766362050325848</speed>
  <fix>3d</fix>
</trkpt>
<trkpt lat="33.8102213" lon="-118.3938765">
  <ele>-2.02</ele>
  <time>2026-09-01T01:17:34Z</time>
  <course>185.27</course>
  <speed>1.29</speed>
  <fix>3d</fix>
</trkpt>
<trkpt lat="33.8102176" lon="-118.3938771">
  <ele>-2.075</ele>
  <time>2026-09-01T01:17:34Z</time>
  <course>185.03</course>
  <speed>1.2766362050325848</speed>
  <fix>3d</fix>
</trkpt>
<trkpt lat="33.810219" lon="-118.3938767">
  <ele>-2.02</ele>
  <time>2026-09-01T01:17:34Z</time>
  <course>185.34</course>
  <speed>1.3</speed>
  <fix>3d</fix>
</trkpt>
<trkpt lat="33.8102164" lon="-118.3938772">
  <ele>-2.075</ele>
  <time>2026-09-01T01:17:34Z</time>
  <course>185.03</course>
  <speed>1.2766362050325848</speed>
  <fix>3d</fix>
</trkpt>
<trkpt lat="33.810219" lon="-118.3938767">
  <ele>-2.02</ele>
  <time>2026-09-01T01:17:34Z</time>
  <course>185.34</course>
  <speed>1.3</speed>
  <fix>3d</fix>
</trkpt>
<trkpt lat="33.8102152" lon="-118.3938773">
  <ele>-2.076</ele>
  <time>2026-09-01T01:17:34Z</time>
  <course>185.04</course>
  <speed>1.2865846260545786</speed>
  <fix>3d</fix>
</trkpt>
<trkpt lat="33.8102167" lon="-118.393877">
  <ele>-2.03</ele>
  <time>2026-09-01T01:17:34Z</time>
  <course>185.39</course>
  <speed>1.31</speed>
  <fix>3d</fix>
</trkpt>
<trkpt lat="33.8102141" lon="-118.3938774">
  <ele>-2.077</ele>
  <time>2026-09-01T01:17:34Z</time>
  <course>185.04</course>
  <speed>1.2865846260545786</speed>
  <fix>3d</fix>
</trkpt>
<trkpt lat="33.8102167" lon="-118.393877">
  <ele>-2.03</ele>
  <time>2026-09-01T01:17:34Z</time>
  <course>185.39</course>
  <speed>1.31</speed>
  <fix>3d</fix>
</trkpt>
<trkpt lat="33.8102129" lon="-118.3938776">
  <ele>-2.077</ele>
  <time>2026-09-01T01:17:34Z</time>
  <course>185.04</course>
  <speed>1.2865846260545786</speed>
  <fix>3d</fix>
</trkpt>
<trkpt lat="33.8102143" lon="-118.3938773">
  <ele>-2.03</ele>
  <time>2026-09-01T01:17:34Z</time>
  <course>185.41</course>
  <speed>1.32</speed>
  <fix>3d</fix>
</trkpt>
<trkpt lat="33.8102117" lon="-118.3938777">
  <ele>-2.078</ele>
  <time>2026-09-01T01:17:34Z</time>
  <course>185.04</course>
  <speed>1.2865846260545786</speed>
  <fix>3d</fix>
</trkpt>
<trkpt lat="33.8102143" lon="-118.3938773">
  <ele>-2.03</ele>
  <time>2026-09-01T01:17:34Z</time>
  <course>185.41</course>
  <speed>1.32</speed>
  <fix>3d</fix>
</trkpt>
<trkpt lat="33.8102105" lon="-118.3938778">
  <ele>-2.078</ele>
  <time>2026-09-01T01:17:34Z</time>
  <course>185.05</course>
  <speed>1.2567418191498205</speed>
  <fix>3d</fix>
</trkpt>
<trkpt lat="33.810212" lon="-118.3938776">
  <ele>-2.03</ele>
  <time>2026-09-01T01:17:34Z</time>
  <course>185.4</course>
  <speed>1.32</speed>
  <fix>3d</fix>
</trkpt>
<trkpt lat="33.8102094" lon="-118.393878">
  <ele>-2.079</ele>
  <time>2026-09-01T01:17:34Z</time>
  <course>185.05</course>
  <speed>1.16619037896906</speed>
  <fix>3d</fix>
</trkpt>
<trkpt lat="33.810212" lon="-118.3938776">
  <ele>-2.03</ele>
  <time>2026-09-01T01:17:34Z</time>
  <course>185.4</course>
  <speed>1.32</speed>
  <fix>3d</fix>
</trkpt>
<trkpt lat="33.8102084" lon="-118.3938781">
  <ele>-2.079</ele>
  <time>2026-09-01T01:17:34Z</time>
  <course>185.05</course>
  <speed>1.0458011283222064</speed>
  <fix>3d</fix>
</trkpt>
<trkpt lat="33.8102096" lon="-118.3938779">
  <ele>-2.03</ele>
  <time>2026-09-01T01:17:34Z</time>
  <course>185.36</course>
  <speed>1.25</speed>
  <fix>3d</fix>
</trkpt>
<trkpt lat="33.8102075" lon="-118.3938782">
  <ele>-2.08</ele>
  <time>2026-09-01T01:17:34Z</time>
  <course>185.05</course>
  <speed>0.8845903006477066</speed>
  <fix>3d</fix>
</trkpt>
<trkpt lat="33.8102096" lon="-118.3938779">
  <ele>-2.03</ele>
  <time>2026-09-01T01:17:34Z</time>
  <course>185.36</course>
  <speed>1.25</speed>
  <fix>3d</fix>
</trkpt>
<trkpt lat="33.8102067" lon="-118.3938783">
  <ele>-2.081</ele>
  <time>2026-09-01T01:17:34Z</time>
  <course>185.05</course>
  <speed>0.7343704787094864</speed>
  <fix>3d</fix>
</trkpt>
<trkpt lat="33.8102076" lon="-118.3938781">
  <ele>-2.03</ele>
  <time>2026-09-01T01:17:34Z</time>
  <course>185.3</course>
  <speed>1.03</speed>
  <fix>3d</fix>
</trkpt>
<trkpt lat="33.8102061" lon="-118.3938783">
  <ele>-2.082</ele>
  <time>2026-09-01T01:17:34Z</time>
  <course>185.06</course>
  <speed>0.6338769596696191</speed>
  <fix>3d</fix>
</trkpt>
<trkpt lat="33.8102076" lon="-118.3938781">
  <ele>-2.03</ele>
  <time>2026-09-01T01:17:34Z</time>
  <course>185.3</course>
  <speed>1.03</speed>
  <fix>3d</fix>
</trkpt>
<trkpt lat="33.8102055" lon="-118.3938784">
  <ele>-2.082</ele>
  <time>2026-09-01T01:17:34Z</time>
  <course>185.06</course>
  <speed>0.5532630477449222</speed>
  <fix>3d</fix>
</trkpt>
<trkpt lat="33.810206" lon="-118.3938782">
  <ele>-2.03</ele>
  <time>2026-09-01T01:17:34Z</time>
  <course>185.22</course>
  <speed>0.76</speed>
  <fix>3d</fix>
</trkpt>
<trkpt lat="33.810205" lon="-118.3938784">
  <ele>-2.082</ele>
  <time>2026-09-01T01:17:34Z</time>
  <course>185.07</course>
  <speed>0.49254441424099005</speed>
  <fix>3d</fix>
</trkpt>
<trkpt lat="33.810206" lon="-118.3938782">
  <ele>-2.03</ele>
  <time>2026-09-01T01:17:34Z</time>
  <course>185.22</course>
  <speed>0.76</speed>
  <fix>3d</fix>
</trkpt>
<trkpt lat="33.8102046" lon="-118.3938785">
  <ele>-2.082</ele>
  <time>2026-09-01T01:17:34Z</time>
  <course>185.07</course>
  <speed>0.4428317965096906</speed>
  <fix>3d</fix>
</trkpt>
<trkpt lat="33.8102047" lon="-118.3938784">
  <ele>-2.02</ele>
  <time>2026-09-01T01:17:34Z</time>
  <course>185.13</course>
  <speed>0.58</speed>
  <fix>3d</fix>
</trkpt>
<trkpt lat="33.8102041" lon="-118.3938785">
  <ele>-2.081</ele>
  <time>2026-09-01T01:17:34Z</time>
  <course>185.07</course>
  <speed>0.3920459156782532</speed>
  <fix>3d</fix>
</trkpt>
<trkpt lat="33.8102047" lon="-118.3938784">
  <ele>-2.02</ele>
  <time>2026-09-01T01:17:34Z</time>
  <course>185.13</course>
  <speed>0.58</speed>
  <fix>3d</fix>
</trkpt>
<trkpt lat="33.8102038" lon="-118.3938786">
  <ele>-2.08</ele>
  <time>2026-09-01T01:17:34Z</time>
  <course>185.08</course>
  <speed>0.3423448553724738</speed>
  <fix>3d</fix>
</trkpt>
<trkpt lat="33.8102039" lon="-118.3938785">
  <ele>-2.02</ele>
  <time>2026-09-01T01:17:34Z</time>
  <course>185.07</course>
  <speed>0.46</speed>
  <fix>3d</fix>
</trkpt>
<trkpt lat="33.8102034" lon="-118.3938786">
  <ele>-2.078</ele>
  <time>2026-09-01T01:17:34Z</time>
  <course>185.08</course>
  <speed>0.3026549190084311</speed>
  <fix>3d</fix>
</trkpt>
<trkpt lat="33.8102039" lon="-118.3938785">
  <ele>-2.02</ele>
  <time>2026-09-01T01:17:34Z</time>
  <course>185.07</course>
  <speed>0.46</speed>
  <fix>3d</fix>
</trkpt>
<trkpt lat="33.8102031" lon="-118.3938786">
  <ele>-2.077</ele>
  <time>2026-09-01T01:17:34Z</time>
  <course>185.08</course>
  <speed>0.261725046566048</speed>
  <fix>3d</fix>
</trkpt>
<trkpt lat="33.8102031" lon="-118.3938786">
  <ele>-2.02</ele>
  <time>2026-09-01T01:17:34Z</time>
  <course>184.99</course>
  <speed>0.36</speed>
  <fix>3d</fix>
</trkpt>
<trkpt lat="33.8102029" lon="-118.3938787">
  <ele>-2.076</ele>
  <time>2026-09-01T01:17:34Z</time>
  <course>185.09</course>
  <speed>0.23194827009486402</speed>
  <fix>3d</fix>
</trkpt>
<trkpt lat="33.8102031" lon="-118.3938786">
  <ele>-2.02</ele>
  <time>2026-09-01T01:17:34Z</time>
  <course>184.99</course>
  <speed>0.36</speed>
  <fix>3d</fix>
</trkpt>
<trkpt lat="33.8102026" lon="-118.3938787">
  <ele>-2.075</ele>
  <time>2026-09-01T01:17:34Z</time>
  <course>185.1</course>
  <speed>0.20223748416156684</speed>
  <fix>3d</fix>
</trkpt>
<trkpt lat="33.8102025" lon="-118.3938786">
  <ele>-2.01</ele>
  <time>2026-09-01T01:17:34Z</time>
  <course>184.86</course>
  <speed>0.28</speed>
  <fix>3d</fix>
</trkpt>
<trkpt lat="33.8102024" lon="-118.3938787">
  <ele>-2.074</ele>
  <time>2026-09-01T01:17:34Z</time>
  <course>185.1</course>
  <speed>0.1824828759089466</speed>
  <fix>3d</fix>
</trkpt>
<trkpt lat="33.8102025" lon="-118.3938786">
  <ele>-2.01</ele>
  <time>2026-09-01T01:17:34Z</time>
  <course>184.86</course>
  <speed>0.28</speed>
  <fix>3d</fix>
</trkpt>
<trkpt lat="33.8102022" lon="-118.3938787">
  <ele>-2.074</ele>
  <time>2026-09-01T01:17:34Z</time>
  <course>185.11</course>
  <speed>0.1711724276862369</speed>
  <fix>3d</fix>
</trkpt>
<trkpt lat="33.8102021" lon="-118.3938786">
  <ele>-2.01</ele>
  <time>2026-09-01T01:17:34Z</time>
  <course>184.74</course>
  <speed>0.22</speed>
  <fix>3d</fix>
</trkpt>
<trkpt lat="33.810202" lon="-118.3938788">
  <ele>-2.074</ele>
  <time>2026-09-01T01:17:34Z</time>
  <course>185.11</course>
  <speed>0.1414213562373095</speed>
  <fix>3d</fix>
</trkpt>
<trkpt lat="33.8102021" lon="-118.3938786">
  <ele>-2.01</ele>
  <time>2026-09-01T01:17:34Z</time>
  <course>184.74</course>
  <speed>0.22</speed>
  <fix>3d</fix>
</trkpt>
<trkpt lat="33.8102019" lon="-118.3938788">
  <ele>-2.073</ele>
  <time>2026-09-01T01:17:34Z</time>
  <course>185.1</course>
  <speed>0.12165525060596438</speed>
  <fix>3d</fix>
</trkpt>
<trkpt lat="33.8102017" lon="-118.3938787">
  <ele>-2.01</ele>
  <time>2026-09-01T01:17:34Z</time>
  <course>184.83</course>
  <speed>0.18</speed>
  <fix>3d</fix>
</trkpt>
<trkpt lat="33.8102017" lon="-118.3938788">
  <ele>-2.073</ele>
  <time>2026-09-01T01:17:34Z</time>
  <course>185.09</course>
  <speed>0.09219544457292887</speed>
  <fix>3d</fix>
</trkpt>
<trkpt lat="33.8102017" lon="-118.3938787">
  <ele>-2.01</ele>
  <time>2026-09-01T01:17:34Z</time>
  <course>184.83</course>
  <speed>0.18</speed>
  <fix>3d</fix>
</trkpt>
<trkpt lat="33.8102016" lon="-118.3938788">
  <ele>-2.072</ele>
  <time>2026-09-01T01:17:34Z</time>
  <course>185.08</course>
  <speed>0.07280109889280519</speed>
  <fix>3d</fix>
</trkpt>
<trkpt lat="33.8102014" lon="-118.3938788">
  <ele>-2.01</ele>
  <time>2026-09-01T01:17:34Z</time>
  <course>185.18</course>
  <speed>0.13</speed>
  <fix>3d</fix>
</trkpt>
<trkpt lat="33.8102015" lon="-118.3938788">
  <ele>-2.072</ele>
  <time>2026-09-01T01:17:34Z</time>
  <course>185.08</course>
  <speed>0.053851648071345036</speed>
  <fix>3d</fix>
</trkpt>
<trkpt lat="33.8102014" lon="-118.3938788">
  <ele>-2.01</ele>
  <time>2026-09-01T01:17:34Z</time>
  <course>185.18</course>
  <speed>0.13</speed>
  <fix>3d</fix>
</trkpt>
<trkpt lat="33.8102015" lon="-118.3938788">
  <ele>-2.072</ele>
  <time>2026-09-01T01:17:34Z</time>
  <course>185.08</course>
  <speed>0.0316227766016838</speed>
  <fix>3d</fix>
</trkpt>
<trkpt lat="33.8102012" lon="-118.3938788">
  <ele>-2.01</ele>
  <time>2026-09-01T01:17:34Z</time>
  <course>185.65</course>
  <speed>0.08</speed>
  <fix>3d</fix>
</trkpt>
<trkpt lat="33.8102014" lon="-118.3938788">
  <ele>-2.073</ele>
  <time>2026-09-01T01:17:34Z</time>
  <course>185.08</course>
  <speed>0.01414213562373095</speed>
  <fix>3d</fix>
</trkpt>
<trkpt lat="33.8102012" lon="-118.3938788">
  <ele>-2.01</ele>
  <time>2026-09-01T01:17:34Z</time>
  <course>185.65</course>
  <speed>0.08</speed>
  <fix>3d</fix>
</trkpt>
<trkpt lat="33.8102014" lon="-118.3938788">
  <ele>-2.074</ele>
  <time>2026-09-01T01:17:34Z</time>
  <course>185.08</course>
  <speed>0.01</speed>
  <fix>3d</fix>
</trkpt>
<trkpt lat="33.8102011" lon="-118.3938788">
  <ele>-2.01</ele>
  <time>2026-09-01T01:17:34Z</time>
  <course>185.98</course>
  <speed>0.04</speed>
  <fix>3d</fix>
</trkpt>
<trkpt lat="33.8102013" lon="-118.3938788">
  <ele>-2.075</ele>
  <time>2026-09-01T01:17:34Z</time>
  <course>185.08</course>
  <speed>0.01414213562373095</speed>
  <fix>3d</fix>
</trkpt>
<trkpt lat="33.8102011" lon="-118.3938788">
  <ele>-2.01</ele>
  <time>2026-09-01T01:17:34Z</time>
  <course>185.98</course>
  <speed>0.04</speed>
  <fix>3d</fix>
</trkpt>
<trkpt lat="33.8102013" lon="-118.3938788">
  <ele>-2.075</ele>
  <time>2026-09-01T01:17:34Z</time>
  <course>185.09</course>
  <speed>0.022360679774997897</speed>
  <fix>3d</fix>
</trkpt>
<trkpt lat="33.8102011" lon="-118.3938788">
  <ele>-2.02</ele>
  <time>2026-09-01T01:17:34Z</time>
  <course>185.85</course>
  <speed>0.01</speed>
  <fix>3d</fix>
</trkpt>
<trkpt lat="33.8102013" lon="-118.3938788">
  <ele>-2.076</ele>
  <time>2026-09-01T01:17:34Z</time>
  <course>185.09</course>
  <speed>0.0316227766016838</speed>
  <fix>3d</fix>
</trkpt>
<trkpt lat="33.8102011" lon="-118.3938788">
  <ele>-2.02</ele>
  <time>2026-09-01T01:17:34Z</time>
  <course>185.85</course>
  <speed>0.01</speed>
  <fix>3d</fix>
</trkpt>
<trkpt lat="33.8102013" lon="-118.3938788">
  <ele>-2.077</ele>
  <time>2026-09-01T01:17:34Z</time>
  <course>185.09</course>
  <speed>0.0316227766016838</speed>
  <fix>3d</fix>
</trkpt>
<trkpt lat="33.8102011" lon="-118.3938788">
  <ele>-2.02</ele>
  <time>2026-09-01T01:17:34Z</time>
  <course>8.48</course>
  <speed>0.01</speed>
  <fix>3d</fix>
</trkpt>
<trkpt lat="33.8102013" lon="-118.3938788">
  <ele>-2.078</ele>
  <time>2026-09-01T01:17:34Z</time>
  <course>185.1</course>
  <speed>0.0316227766016838</speed>
  <fix>3d</fix>
</trkpt>
<trkpt lat="33.8102011" lon="-118.3938788">
  <ele>-2.02</ele>
  <time>2026-09-01T01:17:34Z</time>
  <course>8.48</course>
  <speed>0.01</speed>
  <fix>3d</fix>
</trkpt>
<trkpt lat="33.8102013" lon="-118.3938788">
  <ele>-2.078</ele>
  <time>2026-09-01T01:17:34Z</time>
  <course>185.12</course>
  <speed>0.03</speed>
  <fix>3d</fix>
</trkpt>
<trkpt lat="33.8102011" lon="-118.3938788">
  <ele>-2.02</ele>
  <time>2026-09-01T01:17:34Z</time>
  <course>8.18</course>
  <speed>0.02</speed>
  <fix>3d</fix>
</trkpt>
<trkpt lat="33.8102013" lon="-118.3938788">
  <ele>-2.077</ele>
  <time>2026-09-01T01:17:34Z</time>
  <course>185.11</course>
  <speed>0.0316227766016838</speed>
  <fix>3d</fix>
</trkpt>
<trkpt lat="33.8102011" lon="-118.3938788">
  <ele>-2.02</ele>
  <time>2026-09-01T01:17:34Z</time>
  <course>8.18</course>
  <speed>0.02</speed>
  <fix>3d</fix>
</trkpt>
<trkpt lat="33.8102013" lon="-118.3938788">
  <ele>-2.076</ele>
  <time>2026-09-01T01:17:34Z</time>
  <course>185.1</course>
  <speed>0.0316227766016838</speed>
  <fix>3d</fix>
</trkpt>
<trkpt lat="33.8102011" lon="-118.3938788">
  <ele>-2.02</ele>
  <time>2026-09-01T01:17:34Z</time>
  <course>8.02</course>
  <speed>0.02</speed>
  <fix>3d</fix>
</trkpt>
<trkpt lat="33.8102013" lon="-118.3938788">
  <ele>-2.075</ele>
  <time>2026-09-01T01:17:34Z</time>
  <course>185.1</course>
  <speed>0.0316227766016838</speed>
  <fix>3d</fix>
</trkpt>
<trkpt lat="33.8102011" lon="-118.3938788">
  <ele>-2.02</ele>
  <time>2026-09-01T01:17:34Z</time>
  <course>8.02</course>
  <speed>0.02</speed>
  <fix>3d</fix>
</trkpt>
<trkpt lat="33.8102013" lon="-118.3938788">
  <ele>-2.075</ele>
  <time>2026-09-01T01:17:34Z</time>
  <course>185.1</course>
  <speed>0.0316227766016838</speed>
  <fix>3d</fix>
</trkpt>
<trkpt lat="33.8102011" lon="-118.3938788">
  <ele>-2.02</ele>
  <time>2026-09-01T01:17:34Z</time>
  <course>8.17</course>
  <speed>0.02</speed>
  <fix>3d</fix>
</trkpt>
<trkpt lat="33.8102013" lon="-118.3938788">
  <ele>-2.073</ele>
  <time>2026-09-01T01:17:34Z</time>
  <course>185.11</course>
  <speed>0.0316227766016838</speed>
  <fix>3d</fix>
</trkpt>
<trkpt lat="33.8102011" lon="-118.3938788">
  <ele>-2.02</ele>
  <time>2026-09-01T01:17:34Z</time>
  <course>8.17</course>
  <speed>0.02</speed>
  <fix>3d</fix>
</trkpt>
<trkpt lat="33.8102013" lon="-118.3938788">
  <ele>-2.072</ele>
  <time>2026-09-01T01:17:34Z</time>
  <course>185.11</course>
  <speed>0.0316227766016838</speed>
  <fix>3d</fix>
</trkpt>
<trkpt lat="33.8102011" lon="-118.3938788">
  <ele>-2.02</ele>
  <time>2026-09-01T01:17:34Z</time>
  <course>8.39</course>
  <speed>0.02</speed>
  <fix>3d</fix>
</trkpt>
<trkpt lat="33.8102013" lon="-118.3938788">
  <ele>-2.071</ele>
  <time>2026-09-01T01:17:34Z</time>
  <course>185.14</course>
  <speed>0.0316227766016838</speed>
  <fix>3d</fix>
</trkpt>
<trkpt lat="33.8102011" lon="-118.3938788">
  <ele>-2.02</ele>
  <time>2026-09-01T01:17:34Z</time>
  <course>8.39</course>
  <speed>0.02</speed>
  <fix>3d</fix>
</trkpt>
<trkpt lat="33.8102014" lon="-118.3938788">
  <ele>-2.071</ele>
  <time>2026-09-01T01:17:34Z</time>
  <course>185.15</course>
  <speed>0.0316227766016838</speed>
  <fix>3d</fix>
</trkpt>
<trkpt lat="33.8102012" lon="-118.3938788">
  <ele>-2.02</ele>
  <time>2026-09-01T01:17:34Z</time>
  <course>9.14</course>
  <speed>0.02</speed>
  <fix>3d</fix>
</trkpt>
<trkpt lat="33.8102014" lon="-118.3938788">
  <ele>-2.07</ele>
  <time>2026-09-01T01:17:34Z</time>
  <course>185.16</course>
  <speed>0.0316227766016838</speed>
  <fix>3d</fix>
</trkpt>
<trkpt lat="33.8102012" lon="-118.3938788">
  <ele>-2.02</ele>
  <time>2026-09-01T01:17:34Z</time>
  <course>9.14</course>
  <speed>0.02</speed>
  <fix>3d</fix>
</trkpt>
<trkpt lat="33.8102014" lon="-118.3938788">
  <ele>-2.071</ele>
  <time>2026-09-01T01:17:34Z</time>
  <course>185.16</course>
  <speed>0.0316227766016838</speed>
  <fix>3d</fix>
</trkpt>
<trkpt lat="33.8102012" lon="-118.3938788">
  <ele>-2.02</ele>
  <time>2026-09-01T01:17:34Z</time>
  <course>10.18</course>
  <speed>0.02</speed>
  <fix>3d</fix>
</trkpt>
<trkpt lat="33.8102014" lon="-118.3938788">
  <ele>-2.075</ele>
  <time>2026-09-01T01:17:34Z</time>
  <course>185.16</course>
  <speed>0.0316227766016838</speed>
  <fix>3d</fix>
</trkpt>
<trkpt lat="33.8102012" lon="-118.3938788">
  <ele>-2.02</ele>
  <time>2026-09-01T01:17:34Z</time>
  <course>10.18</course>
  <speed>0.02</speed>
  <fix>3d</fix>
</trkpt>
<trkpt lat="33.8102014" lon="-118.3938788">
  <ele>-2.079</ele>
  <time>2026-09-01T01:17:34Z</time>
  <course>185.15</course>
  <speed>0.0316227766016838</speed>
  <fix>3d</fix>
</trkpt>
<trkpt lat="33.8102012" lon="-118.3938788">
  <ele>-2.03</ele>
  <time>2026-09-01T01:17:34Z</time>
  <course>10.63</course>
  <speed>0.02</speed>
  <fix>3d</fix>
</trkpt>
<trkpt lat="33.8102014" lon="-118.3938788">
  <ele>-2.081</ele>
  <time>2026-09-01T01:17:34Z</time>
  <course>185.14</course>
  <speed>0.0316227766016838</speed>
  <fix>3d</fix>
</trkpt>
<trkpt lat="33.8102012" lon="-118.3938788">
  <ele>-2.03</ele>
  <time>2026-09-01T01:17:34Z</time>
  <course>10.63</course>
  <speed>0.02</speed>
  <fix>3d</fix>
</trkpt>
<trkpt lat="33.8102014" lon="-118.3938788">
  <ele>-2.083</ele>
  <time>2026-09-01T01:17:34Z</time>
  <course>185.12</course>
  <speed>0.0316227766016838</speed>
  <fix>3d</fix>
</trkpt>
<trkpt lat="33.8102012" lon="-118.3938788">
  <ele>-2.03</ele>
  <time>2026-09-01T01:17:34Z</time>
  <course>11.02</course>
  <speed>0.02</speed>
  <fix>3d</fix>
</trkpt>
<trkpt lat="33.8102014" lon="-118.3938788">
  <ele>-2.084</ele>
  <time>2026-09-01T01:17:34Z</time>
  <course>185.13</course>
  <speed>0.0316227766016838</speed>
  <fix>3d</fix>
</trkpt>
<trkpt lat="33.8102012" lon="-118.3938788">
  <ele>-2.03</ele>
  <time>2026-09-01T01:17:34Z</time>
  <course>11.02</course>
  <speed>0.02</speed>
  <fix>3d</fix>
</trkpt>
<trkpt lat="33.8102015" lon="-118.3938788">
  <ele>-2.084</ele>
  <time>2026-09-01T01:17:34Z</time>
  <course>185.13</course>
  <speed>0.0316227766016838</speed>
  <fix>3d</fix>
</trkpt>
<trkpt lat="33.8102013" lon="-118.3938788">
  <ele>-2.03</ele>
  <time>2026-09-01T01:17:34Z</time>
  <course>12.11</course>
  <speed>0.02</speed>
  <fix>3d</fix>
</trkpt>
<trkpt lat="33.8102015" lon="-118.3938788">
  <ele>-2.084</ele>
  <time>2026-09-01T01:17:34Z</time>
  <course>185.13</course>
  <speed>0.0316227766016838</speed>
  <fix>3d</fix>
</trkpt>
<trkpt lat="33.8102013" lon="-118.3938788">
  <ele>-2.03</ele>
  <time>2026-09-01T01:17:34Z</time>
  <course>12.11</course>
  <speed>0.02</speed>
  <fix>3d</fix>
</trkpt>
<trkpt lat="33.8102015" lon="-118.3938788">
  <ele>-2.083</ele>
  <time>2026-09-01T01:17:34Z</time>
  <course>185.12</course>
  <speed>0.0316227766016838</speed>
  <fix>3d</fix>
</trkpt>
<trkpt lat="33.8102013" lon="-118.3938788">
  <ele>-2.03</ele>
  <time>2026-09-01T01:17:34Z</time>
  <course>13.23</course>
  <speed>0.02</speed>
  <fix>3d</fix>
</trkpt>
<trkpt lat="33.8102015" lon="-118.3938788">
  <ele>-2.081</ele>
  <time>2026-09-01T01:17:34Z</time>
  <course>185.12</course>
  <speed>0.0316227766016838</speed>
  <fix>3d</fix>
</trkpt>
<trkpt lat="33.8102013" lon="-118.3938788">
  <ele>-2.03</ele>
  <time>2026-09-01T01:17:34Z</time>
  <course>13.23</course>
  <speed>0.02</speed>
  <fix>3d</fix>
</trkpt>
<trkpt lat="33.8102015" lon="-118.3938788">
  <ele>-2.078</ele>
  <time>2026-09-01T01:17:34Z</time>
  <course>185.1</course>
  <speed>0.01</speed>
  <fix>3d</fix>
</trkpt>
<trkpt lat="33.8102014" lon="-118.3938788">
  <ele>-2.03</ele>
  <time>2026-09-01T01:17:34Z</time>
  <course>13.68</course>
  <speed>0.02</speed>
  <fix>3d</fix>
</trkpt>
<trkpt lat="33.8102015" lon="-118.3938788">
  <ele>-2.075</ele>
  <time>2026-09-01T01:17:34Z</time>
  <course>185.08</course>
  <speed>0.09219544457292887</speed>
  <fix>3d</fix>
</trkpt>
<trkpt lat="33.8102014" lon="-118.3938788">
  <ele>-2.03</ele>
  <time>2026-09-01T01:17:34Z</time>
  <course>13.68</course>
  <speed>0.02</speed>
  <fix>3d</fix>
</trkpt>
<trkpt lat="33.8102014" lon="-118.3938789">
  <ele>-2.074</ele>
  <time>2026-09-01T01:17:34Z</time>
  <course>185.06</course>
  <speed>0.261725046566048</speed>
  <fix>3d</fix>
</trkpt>
<trkpt lat="33.8102015" lon="-118.3938788">
  <ele>-2.03</ele>
  <time>2026-09-01T01:17:34Z</time>
  <course>178.21</course>
  <speed>0.06</speed>
  <fix>3d</fix>
</trkpt>
<trkpt lat="33.8102011" lon="-118.3938789">
  <ele>-2.074</ele>
  <time>2026-09-01T01:17:34Z</time>
  <course>185.06</course>
  <speed>0.382099463490856</speed>
  <fix>3d</fix>
</trkpt>
<trkpt lat="33.8102015" lon="-118.3938788">
  <ele>-2.03</ele>
  <time>2026-09-01T01:17:34Z</time>
  <course>178.21</course>
  <speed>0.06</speed>
  <fix>3d</fix>
</trkpt>
<trkpt lat="33.8102007" lon="-118.3938789">
  <ele>-2.075</ele>
  <time>2026-09-01T01:17:34Z</time>
  <course>185.05</course>
  <speed>0.46270941205037097</speed>
  <fix>3d</fix>
</trkpt>
<trkpt lat="33.8102012" lon="-118.3938788">
  <ele>-2.03</ele>
  <time>2026-09-01T01:17:34Z</time>
  <course>182.47</course>
  <speed>0.27</speed>
  <fix>3d</fix>
</trkpt>
<trkpt lat="33.8102003" lon="-118.393879">
  <ele>-2.076</ele>
  <time>2026-09-01T01:17:34Z</time>
  <course>185.05</course>
  <speed>0.5223983154643591</speed>
  <fix>3d</fix>
</trkpt>
<trkpt lat="33.8102012" lon="-118.3938788">
  <ele>-2.03</ele>
  <time>2026-09-01T01:17:34Z</time>
  <course>182.47</course>
  <speed>0.27</speed>
  <fix>3d</fix>
</trkpt>
<trkpt lat="33.8101998" lon="-118.393879">
  <ele>-2.078</ele>
  <time>2026-09-01T01:17:34Z</time>
  <course>185.05</course>
  <speed>0.5731491952362839</speed>
  <fix>3d</fix>
</trkpt>
<trkpt lat="33.8102005" lon="-118.3938788">
  <ele>-2.03</ele>
  <time>2026-09-01T01:17:34Z</time>
  <course>183.29</course>
  <speed>0.48</speed>
  <fix>3d</fix>
</trkpt>
<trkpt lat="33.8101992" lon="-118.3938791">
  <ele>-2.079</ele>
  <time>2026-09-01T01:17:34Z</time>
  <course>185.04</course>
  <speed>0.6228964600958975</speed>
  <fix>3d</fix>
</trkpt>
<trkpt lat="33.8102005" lon="-118.3938788">
  <ele>-2.03</ele>
  <time>2026-09-01T01:17:34Z</time>
  <course>183.29</course>
  <speed>0.48</speed>
  <fix>3d</fix>
</trkpt>
<trkpt lat="33.8101987" lon="-118.3938791">
  <ele>-2.078</ele>
  <time>2026-09-01T01:17:34Z</time>
  <course>185.04</course>
  <speed>0.6637017402418047</speed>
  <fix>3d</fix>
</trkpt>
<trkpt lat="33.8101995" lon="-118.3938788">
  <ele>-2.03</ele>
  <time>2026-09-01T01:17:34Z</time>
  <course>183.67</course>
  <speed>0.6</speed>
  <fix>3d</fix>
</trkpt>
<trkpt lat="33.8101981" lon="-118.3938792">
  <ele>-2.078</ele>
  <time>2026-09-01T01:17:34Z</time>
  <course>185.04</course>
  <speed>0.6935416353759881</speed>
  <fix>3d</fix>
</trkpt>
<trkpt lat="33.8101995" lon="-118.3938788">
  <ele>-2.03</ele>
  <time>2026-09-01T01:17:34Z</time>
  <course>183.67</course>
  <speed>0.6</speed>
  <fix>3d</fix>
</trkpt>
<trkpt lat="33.8101975" lon="-118.3938792">
  <ele>-2.078</ele>
  <time>2026-09-01T01:17:34Z</time>
  <course>185.04</course>
  <speed>0.7244308110509934</speed>
  <fix>3d</fix>
</trkpt>
<trkpt lat="33.8101984" lon="-118.3938789">
  <ele>-2.03</ele>
  <time>2026-09-01T01:17:34Z</time>
  <course>184.05</course>
  <speed>0.68</speed>
  <fix>3d</fix>
</trkpt>
<trkpt lat="33.8101968" lon="-118.3938793">
  <ele>-2.077</ele>
  <time>2026-09-01T01:17:34Z</time>
  <course>185.04</course>
  <speed>0.754254598925323</speed>
  <fix>3d</fix>
</trkpt>
<trkpt lat="33.8101984" lon="-118.3938789">
  <ele>-2.03</ele>
  <time>2026-09-01T01:17:34Z</time>
  <course>184.05</course>
  <speed>0.68</speed>
  <fix>3d</fix>
</trkpt>
<trkpt lat="33.8101961" lon="-118.3938793">
  <ele>-2.076</ele>
  <time>2026-09-01T01:17:34Z</time>
  <course>185.04</course>
  <speed>0.7741446893184762</speed>
  <fix>3d</fix>
</trkpt>
<trkpt lat="33.810197" lon="-118.393879">
  <ele>-2.03</ele>
  <time>2026-09-01T01:17:34Z</time>
  <course>184.45</course>
  <speed>0.75</speed>
  <fix>3d</fix>
</trkpt>
<trkpt lat="33.8101954" lon="-118.3938794">
  <ele>-2.075</ele>
  <time>2026-09-01T01:17:34Z</time>
  <course>185.03</course>
  <speed>0.7951100552753688</speed>
  <fix>3d</fix>
</trkpt>
<trkpt lat="33.810197" lon="-118.393879">
  <ele>-2.03</ele>
  <time>2026-09-01T01:17:34Z</time>
  <course>184.45</course>
  <speed>0.75</speed>
  <fix>3d</fix>
</trkpt>
<trkpt lat="33.8101947" lon="-118.3938795">
  <ele>-2.076</ele>
  <time>2026-09-01T01:17:34Z</time>
  <course>185.03</course>
  <speed>0.8149846624323674</speed>
  <fix>3d</fix>
</trkpt>
<trkpt lat="33.8101956" lon="-118.3938791">
  <ele>-2.03</ele>
  <time>2026-09-01T01:17:34Z</time>
  <course>184.8</course>
  <speed>0.8</speed>
  <fix>3d</fix>
</trkpt>
<trkpt lat="33.8101939" lon="-118.3938796">
  <ele>-2.078</ele>
  <time>2026-09-01T01:17:34Z</time>
  <course>185.03</course>
  <speed>0.8249242389456137</speed>
  <fix>3d</fix>
</trkpt>
<trkpt lat="33.8101956" lon="-118.3938791">
  <ele>-2.03</ele>
  <time>2026-09-01T01:17:34Z</time>
  <course>184.8</course>
  <speed>0.8</speed>
  <fix>3d</fix>
</trkpt>
<trkpt lat="33.8101932" lon="-118.3938796">
  <ele>-2.081</ele>
  <time>2026-09-01T01:17:34Z</time>
  <course>185.03</course>
  <speed>0.845931439302264</speed>
  <fix>3d</fix>
</trkpt>
<trkpt lat="33.8101942" lon="-118.3938793">
  <ele>-2.03</ele>
  <time>2026-09-01T01:17:34Z</time>
  <course>185.1</course>
  <speed>0.84</speed>
  <fix>3d</fix>
</trkpt>
<trkpt lat="33.8101924" lon="-118.3938797">
  <ele>-2.083</ele>
  <time>2026-09-01T01:17:34Z</time>
  <course>185.03</course>
  <speed>0.8558621384311844</speed>
  <fix>3d</fix>
</trkpt>
<trkpt lat="33.8101942" lon="-118.3938793">
  <ele>-2.03</ele>
  <time>2026-09-01T01:17:34Z</time>
  <course>185.1</course>
  <speed>0.84</speed>
  <fix>3d</fix>
</trkpt>
<trkpt lat="33.8101916" lon="-118.3938798">
  <ele>-2.083</ele>
  <time>2026-09-01T01:17:34Z</time>
  <course>185.03</course>
  <speed>0.8657944328765345</speed>
  <fix>3d</fix>
</trkpt>
<trkpt lat="33.8101927" lon="-118.3938795">
  <ele>-2.03</ele>
  <time>2026-09-01T01:17:34Z</time>
  <course>185.33</course>
  <speed>0.88</speed>
  <fix>3d</fix>
</trkpt>
<trkpt lat="33.8101909" lon="-118.3938799">
  <ele>-2.082</ele>
  <time>2026-09-01T01:17:34Z</time>
  <course>185.03</course>
  <speed>0.875728268357257</speed>
  <fix>3d</fix>
</trkpt>
<trkpt lat="33.8101927" lon="-118.3938795">
  <ele>-2.03</ele>
  <time>2026-09-01T01:17:34Z</time>
  <course>185.33</course>
  <speed>0.88</speed>
  <fix>3d</fix>
</trkpt>
<trkpt lat="33.8101901" lon="-118.39388">
  <ele>-2.08</ele>
  <time>2026-09-01T01:17:34Z</time>
  <course>185.03</course>
  <speed>0.8856635930193812</speed>
  <fix>3d</fix>
</trkpt>
<trkpt lat="33.8101911" lon="-118.3938796">
  <ele>-2.03</ele>
  <time>2026-09-01T01:17:34Z</time>
  <course>185.45</course>
  <speed>0.9</speed>
  <fix>3d</fix>
</trkpt>
<trkpt lat="33.8101893" lon="-118.3938801">
  <ele>-2.077</ele>
  <time>2026-09-01T01:17:34Z</time>
  <course>185.03</course>
  <speed>0.8956003573022958</speed>
  <fix>3d</fix>
</trkpt>
<trkpt lat="33.8101911" lon="-118.3938796">
  <ele>-2.03</ele>
  <time>2026-09-01T01:17:34Z</time>
  <course>185.45</course>
  <speed>0.9</speed>
  <fix>3d</fix>
</trkpt>
<trkpt lat="33.8101884" lon="-118.3938801">
  <ele>-2.076</ele>
  <time>2026-09-01T01:17:34Z</time>
  <course>185.03</course>
  <speed>0.8956003573022958</speed>
  <fix>3d</fix>
</trkpt>
<trkpt lat="33.8101894" lon="-118.3938799">
  <ele>-2.02</ele>
  <time>2026-09-01T01:17:34Z</time>
  <course>185.51</course>
  <speed>0.92</speed>
  <fix>3d</fix>
</trkpt>
<trkpt lat="33.8101876" lon="-118.3938802">
  <ele>-2.074</ele>
  <time>2026-09-01T01:17:34Z</time>
  <course>185.04</course>
  <speed>0.9055385138137417</speed>
  <fix>3d</fix>
</trkpt>
<trkpt lat="33.8101894" lon="-118.3938799">
  <ele>-2.02</ele>
  <time>2026-09-01T01:17:34Z</time>
  <course>185.51</course>
  <speed>0.92</speed>
  <fix>3d</fix>
</trkpt>
<trkpt lat="33.8101868" lon="-118.3938803">
  <ele>-2.073</ele>
  <time>2026-09-01T01:17:34Z</time>
  <course>185.04</course>
  <speed>0.9055385138137417</speed>
  <fix>3d</fix>
</trkpt>
<trkpt lat="33.8101877" lon="-118.3938801">
  <ele>-2.02</ele>
  <time>2026-09-01T01:17:34Z</time>
  <course>185.52</course>
  <speed>0.93</speed>
  <fix>3d</fix>
</trkpt>
<trkpt lat="33.810186" lon="-118.3938804">
  <ele>-2.074</ele>
  <time>2026-09-01T01:17:34Z</time>
  <course>185.04</course>
  <speed>0.9055385138137417</speed>
  <fix>3d</fix>
</trkpt>
<trkpt lat="33.8101877" lon="-118.3938801">
  <ele>-2.02</ele>
  <time>2026-09-01T01:17:34Z</time>
  <course>185.52</course>
  <speed>0.93</speed>
  <fix>3d</fix>
</trkpt>
<trkpt lat="33.8101851" lon="-118.3938805">
  <ele>-2.075</ele>
  <time>2026-09-01T01:17:34Z</time>
  <course>185.04</course>
  <speed>0.9055385138137417</speed>
  <fix>3d</fix>
</trkpt>
<trkpt lat="33.810186" lon="-118.3938803">
  <ele>-2.02</ele>
  <time>2026-09-01T01:17:34Z</time>
  <course>185.47</course>
  <speed>0.94</speed>
  <fix>3d</fix>
</trkpt>
<trkpt lat="33.8101843" lon="-118.3938806">
  <ele>-2.077</ele>
  <time>2026-09-01T01:17:34Z</time>
  <course>185.04</course>
  <speed>0.9055385138137417</speed>
  <fix>3d</fix>
</trkpt>
<trkpt lat="33.810186" lon="-118.3938803">
  <ele>-2.02</ele>
  <time>2026-09-01T01:17:34Z</time>
  <course>185.47</course>
  <speed>0.94</speed>
  <fix>3d</fix>
</trkpt>
<trkpt lat="33.8101834" lon="-118.3938807">
  <ele>-2.077</ele>
  <time>2026-09-01T01:17:34Z</time>
  <course>185.04</course>
  <speed>0.9154780172128657</speed>
  <fix>3d</fix>
</trkpt>
<trkpt lat="33.8101843" lon="-118.3938804">
  <ele>-2.02</ele>
  <time>2026-09-01T01:17:34Z</time>
  <course>185.38</course>
  <speed>0.95</speed>
  <fix>3d</fix>
</trkpt>
<trkpt lat="33.8101826" lon="-118.3938808">
  <ele>-2.078</ele>
  <time>2026-09-01T01:17:34Z</time>
  <course>185.04</course>
  <speed>0.9154780172128657</speed>
  <fix>3d</fix>
</trkpt>
<trkpt lat="33.8101843" lon="-118.3938804">
  <ele>-2.02</ele>
  <time>2026-09-01T01:17:34Z</time>
  <course>185.38</course>
  <speed>0.95</speed>
  <fix>3d</fix>
</trkpt>
<trkpt lat="33.8101818" lon="-118.3938809">
  <ele>-2.078</ele>
  <time>2026-09-01T01:17:34Z</time>
  <course>185.04</course>
  <speed>0.9154780172128657</speed>
  <fix>3d</fix>
</trkpt>
<trkpt lat="33.8101826" lon="-118.3938806">
  <ele>-2.02</ele>
  <time>2026-09-01T01:17:34Z</time>
  <course>185.31</course>
  <speed>0.95</speed>
  <fix>3d</fix>
</trkpt>
<trkpt lat="33.8101809" lon="-118.393881">
  <ele>-2.078</ele>
  <time>2026-09-01T01:17:34Z</time>
  <course>185.04</course>
  <speed>0.9154780172128657</speed>
  <fix>3d</fix>
</trkpt>
<trkpt lat="33.8101826" lon="-118.3938806">
  <ele>-2.02</ele>
  <time>2026-09-01T01:17:34Z</time>
  <course>185.31</course>
  <speed>0.95</speed>
  <fix>3d</fix>
</trkpt>
<trkpt lat="33.8101801" lon="-118.3938811">
  <ele>-2.078</ele>
  <time>2026-09-01T01:17:34Z</time>
  <course>185.04</course>
  <speed>0.8746427842267951</speed>
  <fix>3d</fix>
</trkpt>
<trkpt lat="33.8101809" lon="-118.3938808">
  <ele>-2.02</ele>
  <time>2026-09-01T01:17:34Z</time>
  <course>185.32</course>
  <speed>0.95</speed>
  <fix>3d</fix>
</trkpt>
<trkpt lat="33.8101793" lon="-118.3938811">
  <ele>-2.078</ele>
  <time>2026-09-01T01:17:34Z</time>
  <course>185.05</course>
  <speed>0.7951100552753688</speed>
  <fix>3d</fix>
</trkpt>
<trkpt lat="33.8101809" lon="-118.3938808">
  <ele>-2.02</ele>
  <time>2026-09-01T01:17:34Z</time>
  <course>185.32</course>
  <speed>0.95</speed>
  <fix>3d</fix>
</trkpt>
<trkpt lat="33.8101786" lon="-118.3938812">
  <ele>-2.076</ele>
  <time>2026-09-01T01:17:34Z</time>
  <course>185.05</course>
  <speed>0.6747592163134936</speed>
  <fix>3d</fix>
</trkpt>
<trkpt lat="33.8101793" lon="-118.393881">
  <ele>-2.02</ele>
  <time>2026-09-01T01:17:34Z</time>
  <course>185.39</course>
  <speed>0.88</speed>
  <fix>3d</fix>
</trkpt>
<trkpt lat="33.810178" lon="-118.3938813">
  <ele>-2.075</ele>
  <time>2026-09-01T01:17:34Z</time>
  <course>185.05</course>
  <speed>0.5544366510251645</speed>
  <fix>3d</fix>
</trkpt>
<trkpt lat="33.8101793" lon="-118.393881">
  <ele>-2.02</ele>
  <time>2026-09-01T01:17:34Z</time>
  <course>185.39</course>
  <speed>0.88</speed>
  <fix>3d</fix>
</trkpt>
<trkpt lat="33.8101775" lon="-118.3938813">
  <ele>-2.074</ele>
  <time>2026-09-01T01:17:34Z</time>
  <course>185.05</course>
  <speed>0.46389654018972803</speed>
  <fix>3d</fix>
</trkpt>
<trkpt lat="33.8101779" lon="-118.3938812">
  <ele>-2.02</ele>
  <time>2026-09-01T01:17:34Z</time>
  <course>185.54</course>
  <speed>0.68</speed>
  <fix>3d</fix>
</trkpt>
<trkpt lat="33.8101771" lon="-118.3938814">
  <ele>-2.074</ele>
  <time>2026-09-01T01:17:34Z</time>
  <course>185.05</course>
  <speed>0.40311288741492746</speed>
  <fix>3d</fix>
</trkpt>
<trkpt lat="33.8101779" lon="-118.3938812">
  <ele>-2.02</ele>
  <time>2026-09-01T01:17:34Z</time>
  <course>185.54</course>
  <speed>0.68</speed>
  <fix>3d</fix>
</trkpt>
<trkpt lat="33.8101767" lon="-118.3938814">
  <ele>-2.074</ele>
  <time>2026-09-01T01:17:34Z</time>
  <course>185.06</course>
  <speed>0.3535533905932738</speed>
  <fix>3d</fix>
</trkpt>
<trkpt lat="33.8101768" lon="-118.3938813">
  <ele>-2.02</ele>
  <time>2026-09-01T01:17:34Z</time>
  <course>185.71</course>
  <speed>0.49</speed>
  <fix>3d</fix>
</trkpt>
<trkpt lat="33.8101764" lon="-118.3938815">
  <ele>-2.074</ele>
  <time>2026-09-01T01:17:34Z</time>
  <course>185.06</course>
  <speed>0.3125699921617557</speed>
  <fix>3d</fix>
</trkpt>
<trkpt lat="33.8101768" lon="-118.3938813">
  <ele>-2.02</ele>
  <time>2026-09-01T01:17:34Z</time>
  <course>185.71</course>
  <speed>0.49</speed>
  <fix>3d</fix>
</trkpt>
<trkpt lat="33.810176" lon="-118.3938815">
  <ele>-2.075</ele>
  <time>2026-09-01T01:17:34Z</time>
  <course>185.06</course>
  <speed>0.282842712474619</speed>
  <fix>3d</fix>
</trkpt>
<trkpt lat="33.810176" lon="-118.3938814">
  <ele>-2.02</ele>
  <time>2026-09-01T01:17:34Z</time>
  <course>185.77</course>
  <speed>0.38</speed>
  <fix>3d</fix>
</trkpt>
<trkpt lat="33.8101758" lon="-118.3938815">
  <ele>-2.078</ele>
  <time>2026-09-01T01:17:34Z</time>
  <course>185.06</course>
  <speed>0.24186773244895649</speed>
  <fix>3d</fix>
</trkpt>
<trkpt lat="33.810176" lon="-118.3938814">
  <ele>-2.02</ele>
  <time>2026-09-01T01:17:34Z</time>
  <course>185.77</course>
  <speed>0.38</speed>
  <fix>3d</fix>
</trkpt>
<trkpt lat="33.8101755" lon="-118.3938816">
  <ele>-2.079</ele>
  <time>2026-09-01T01:17:34Z</time>
  <course>185.06</course>
  <speed>0.21213203435596426</speed>
  <fix>3d</fix>
</trkpt>
<trkpt lat="33.8101754" lon="-118.3938814">
  <ele>-2.02</ele>
  <time>2026-09-01T01:17:34Z</time>
  <course>185.78</course>
  <speed>0.3</speed>
  <fix>3d</fix>
</trkpt>
<trkpt lat="33.8101753" lon="-118.3938816">
  <ele>-2.079</ele>
  <time>2026-09-01T01:17:34Z</time>
  <course>185.06</course>
  <speed>0.19235384061671343</speed>
  <fix>3d</fix>
</trkpt>
<trkpt lat="33.8101754" lon="-118.3938814">
  <ele>-2.02</ele>
  <time>2026-09-01T01:17:34Z</time>
  <course>185.78</course>
  <speed>0.3</speed>
  <fix>3d</fix>
</trkpt>
<trkpt lat="33.8101751" lon="-118.3938816">
  <ele>-2.079</ele>
  <time>2026-09-01T01:17:34Z</time>
  <course>185.06</course>
  <speed>0.17262676501632068</speed>
  <fix>3d</fix>
</trkpt>
<trkpt lat="33.810175" lon="-118.3938815">
  <ele>-2.02</ele>
  <time>2026-09-01T01:17:34Z</time>
  <course>185.88</course>
  <speed>0.24</speed>
  <fix>3d</fix>
</trkpt>
<trkpt lat="33.8101749" lon="-118.3938816">
  <ele>-2.079</ele>
  <time>2026-09-01T01:17:34Z</time>
  <course>185.06</course>
  <speed>0.15297058540778355</speed>
  <fix>3d</fix>
</trkpt>
<trkpt lat="33.810175" lon="-118.3938815">
  <ele>-2.02</ele>
  <time>2026-09-01T01:17:34Z</time>
  <course>185.88</course>
  <speed>0.24</speed>
  <fix>3d</fix>
</trkpt>
<trkpt lat="33.8101747" lon="-118.3938817">
  <ele>-2.078</ele>
  <time>2026-09-01T01:17:34Z</time>
  <course>185.07</course>
  <speed>0.1414213562373095</speed>
  <fix>3d</fix>
</trkpt>
<trkpt lat="33.8101745" lon="-118.3938816">
  <ele>-2.02</ele>
  <time>2026-09-01T01:17:34Z</time>
  <course>186.09</course>
  <speed>0.19</speed>
  <fix>3d</fix>
</trkpt>
<trkpt lat="33.8101746" lon="-118.3938817">
  <ele>-2.076</ele>
  <time>2026-09-01T01:17:34Z</time>
  <course>185.07</course>
  <speed>0.1118033988749895</speed>
  <fix>3d</fix>
</trkpt>
<trkpt lat="33.8101745" lon="-118.3938816">
  <ele>-2.02</ele>
  <time>2026-09-01T01:17:34Z</time>
  <course>186.09</course>
  <speed>0.19</speed>
  <fix>3d</fix>
</trkpt>
<trkpt lat="33.8101744" lon="-118.3938817">
  <ele>-2.075</ele>
  <time>2026-09-01T01:17:34Z</time>
  <course>185.08</course>
  <speed>0.09219544457292887</speed>
  <fix>3d</fix>
</trkpt>
<trkpt lat="33.8101742" lon="-118.3938816">
  <ele>-2.02</ele>
  <time>2026-09-01T01:17:34Z</time>
  <course>186.02</course>
  <speed>0.15</speed>
  <fix>3d</fix>
</trkpt>
<trkpt lat="33.8101743" lon="-118.3938817">
  <ele>-2.074</ele>
  <time>2026-09-01T01:17:34Z</time>
  <course>185.08</course>
  <speed>0.07280109889280519</speed>
  <fix>3d</fix>
</trkpt>
<trkpt lat="33.8101742" lon="-118.3938816">
  <ele>-2.02</ele>
  <time>2026-09-01T01:17:34Z</time>
  <course>186.02</course>
  <speed>0.15</speed>
  <fix>3d</fix>
</trkpt>
<trkpt lat="33.8101742" lon="-118.3938817">
  <ele>-2.073</ele>
  <time>2026-09-01T01:17:34Z</time>
  <course>185.08</course>
  <speed>0.053851648071345036</speed>
  <fix>3d</fix>
</trkpt>
<trkpt lat="33.8101739" lon="-118.3938816">
  <ele>-2.02</ele>
  <time>2026-09-01T01:17:34Z</time>
  <course>185.65</course>
  <speed>0.11</speed>
  <fix>3d</fix>
</trkpt>
<trkpt lat="33.8101741" lon="-118.3938817">
  <ele>-2.073</ele>
  <time>2026-09-01T01:17:34Z</time>
  <course>185.08</course>
  <speed>0.0316227766016838</speed>
  <fix>3d</fix>
</trkpt>
<trkpt lat="33.8101739" lon="-118.3938816">
  <ele>-2.02</ele>
  <time>2026-09-01T01:17:34Z</time>
  <course>185.65</course>
  <speed>0.11</speed>
  <fix>3d</fix>
</trkpt>
<trkpt lat="33.8101741" lon="-118.3938817">
  <ele>-2.074</ele>
  <time>2026-09-01T01:17:34Z</time>
  <course>185.07</course>
  <speed>0.022360679774997897</speed>
  <fix>3d</fix>
</trkpt>
<trkpt lat="33.8101738" lon="-118.3938817">
  <ele>-2.02</ele>
  <time>2026-09-01T01:17:34Z</time>
  <course>185.48</course>
  <speed>0.07</speed>
  <fix>3d</fix>
</trkpt>
<trkpt lat="33.810174" lon="-118.3938817">
  <ele>-2.075</ele>
  <time>2026-09-01T01:17:34Z</time>
  <course>185.07</course>
  <speed>0.01</speed>
  <fix>3d</fix>
</trkpt>
<trkpt lat="33.8101738" lon="-118.3938817">
  <ele>-2.02</ele>
  <time>2026-09-01T01:17:34Z</time>
  <course>185.48</course>
  <speed>0.07</speed>
  <fix>3d</fix>
</trkpt>
<trkpt lat="33.810174" lon="-118.3938817">
  <ele>-2.078</ele>
  <time>2026-09-01T01:17:34Z</time>
  <course>185.07</course>
  <speed>0.01</speed>
  <fix>3d</fix>
</trkpt>
<trkpt lat="33.8101737" lon="-118.3938817">
  <ele>-2.02</ele>
  <time>2026-09-01T01:17:34Z</time>
  <course>185.47</course>
  <speed>0.03</speed>
  <fix>3d</fix>
</trkpt>
<trkpt lat="33.810174" lon="-118.3938817">
  <ele>-2.08</ele>
  <time>2026-09-01T01:17:34Z</time>
  <course>185.07</course>
  <speed>0.022360679774997897</speed>
  <fix>3d</fix>
</trkpt>
<trkpt lat="33.8101737" lon="-118.3938817">
  <ele>-2.02</ele>
  <time>2026-09-01T01:17:34Z</time>
  <course>185.47</course>
  <speed>0.03</speed>
  <fix>3d</fix>
</trkpt>
<trkpt lat="33.810174" lon="-118.3938817">
  <ele>-2.08</ele>
  <time>2026-09-01T01:17:34Z</time>
  <course>185.07</course>
  <speed>0.0316227766016838</speed>
  <fix>3d</fix>
</trkpt>
<trkpt lat="33.8101737" lon="-118.3938817">
  <ele>-2.02</ele>
  <time>2026-09-01T01:17:34Z</time>
  <course>183.12</course>
  <speed>0.0</speed>
  <fix>3d</fix>
</trkpt>
<trkpt lat="33.810174" lon="-118.3938817">
  <ele>-2.08</ele>
  <time>2026-09-01T01:17:34Z</time>
  <course>185.07</course>
  <speed>0.0316227766016838</speed>
  <fix>3d</fix>
</trkpt>
<trkpt lat="33.8101737" lon="-118.3938817">
  <ele>-2.02</ele>
  <time>2026-09-01T01:17:34Z</time>
  <course>183.12</course>
  <speed>0.0</speed>
  <fix>3d</fix>
</trkpt>
<trkpt lat="33.810174" lon="-118.3938817">
  <ele>-2.079</ele>
  <time>2026-09-01T01:17:34Z</time>
  <course>185.09</course>
  <speed>0.03</speed>
  <fix>3d</fix>
</trkpt>
<trkpt lat="33.8101737" lon="-118.3938817">
  <ele>-2.02</ele>
  <time>2026-09-01T01:17:34Z</time>
  <course>9.6</course>
  <speed>0.01</speed>
  <fix>3d</fix>
</trkpt>
<trkpt lat="33.810174" lon="-118.3938817">
  <ele>-2.078</ele>
  <time>2026-09-01T01:17:34Z</time>
  <course>185.08</course>
  <speed>0.04</speed>
  <fix>3d</fix>
</trkpt>
<trkpt lat="33.8101737" lon="-118.3938817">
  <ele>-2.02</ele>
  <time>2026-09-01T01:17:34Z</time>
  <course>9.6</course>
  <speed>0.01</speed>
  <fix>3d</fix>
</trkpt>
<trkpt lat="33.810174" lon="-118.3938817">
  <ele>-2.076</ele>
  <time>2026-09-01T01:17:34Z</time>
  <course>185.07</course>
  <speed>0.04</speed>
  <fix>3d</fix>
</trkpt>
<trkpt lat="33.8101737" lon="-118.3938817">
  <ele>-2.02</ele>
  <time>2026-09-01T01:17:34Z</time>
  <course>10.27</course>
  <speed>0.02</speed>
  <fix>3d</fix>
</trkpt>
<trkpt lat="33.810174" lon="-118.3938817">
  <ele>-2.074</ele>
  <time>2026-09-01T01:17:34Z</time>
  <course>185.07</course>
  <speed>0.04</speed>
  <fix>3d</fix>
</trkpt>
<trkpt lat="33.8101737" lon="-118.3938817">
  <ele>-2.02</ele>
  <time>2026-09-01T01:17:34Z</time>
  <course>10.27</course>
  <speed>0.02</speed>
  <fix>3d</fix>
</trkpt>
<trkpt lat="33.810174" lon="-118.3938817">
  <ele>-2.073</ele>
  <time>2026-09-01T01:17:34Z</time>
  <course>185.06</course>
  <speed>0.0412310562561766</speed>
  <fix>3d</fix>
</trkpt>
<trkpt lat="33.8101738" lon="-118.3938817">
  <ele>-2.02</ele>
  <time>2026-09-01T01:17:34Z</time>
  <course>10.53</course>
  <speed>0.02</speed>
  <fix>3d</fix>
</trkpt>
<trkpt lat="33.810174" lon="-118.3938817">
  <ele>-2.073</ele>
  <time>2026-09-01T01:17:34Z</time>
  <course>185.05</course>
  <speed>0.0412310562561766</speed>
  <fix>3d</fix>
</trkpt>
<trkpt lat="33.8101738" lon="-118.3938817">
  <ele>-2.02</ele>
  <time>2026-09-01T01:17:34Z</time>
  <course>10.53</course>
  <speed>0.02</speed>
  <fix>3d</fix>
</trkpt>
<trkpt lat="33.810174" lon="-118.3938817">
  <ele>-2.074</ele>
  <time>2026-09-01T01:17:34Z</time>
  <course>185.04</course>
  <speed>0.0316227766016838</speed>
  <fix>3d</fix>
</trkpt>
<trkpt lat="33.8101738" lon="-118.3938817">
  <ele>-2.02</ele>
  <time>2026-09-01T01:17:34Z</time>
  <course>10.3</course>
  <speed>0.02</speed>
  <fix>3d</fix>
</trkpt>
<trkpt lat="33.810174" lon="-118.3938817">
  <ele>-2.075</ele>
  <time>2026-09-01T01:17:34Z</time>
  <course>185.03</course>
  <speed>0.0316227766016838</speed>
  <fix>3d</fix>
</trkpt>
<trkpt lat="33.8101738" lon="-118.3938817">
  <ele>-2.02</ele>
  <time>2026-09-01T01:17:34Z</time>
  <course>10.3</course>
  <speed>0.02</speed>
  <fix>3d</fix>
</trkpt>
<trkpt lat="33.810174" lon="-118.3938817">
  <ele>-2.076</ele>
  <time>2026-09-01T01:17:34Z</time>
  <course>185.04</course>
  <speed>0.01</speed>
  <fix>3d</fix>
</trkpt>
<trkpt lat="33.8101738" lon="-118.3938817">
  <ele>-2.02</ele>
  <time>2026-09-01T01:17:34Z</time>
  <course>10.95</course>
  <speed>0.02</speed>
  <fix>3d</fix>
</trkpt>
<trkpt lat="33.810174" lon="-118.3938817">
  <ele>-2.077</ele>
  <time>2026-09-01T01:17:34Z</time>
  <course>185.06</course>
  <speed>0.12165525060596438</speed>
  <fix>3d</fix>
</trkpt>
<trkpt lat="33.8101738" lon="-118.3938817">
  <ele>-2.02</ele>
  <time>2026-09-01T01:17:34Z</time>
  <course>10.95</course>
  <speed>0.02</speed>
  <fix>3d</fix>
</trkpt>
<trkpt lat="33.8101738" lon="-118.3938818">
  <ele>-2.079</ele>
  <time>2026-09-01T01:17:34Z</time>
  <course>185.07</course>
  <speed>0.31144823004794875</speed>
  <fix>3d</fix>
</trkpt>
<trkpt lat="33.8101738" lon="-118.3938817">
  <ele>-2.02</ele>
  <time>2026-09-01T01:17:34Z</time>
  <course>181.96</course>
  <speed>0.07</speed>
  <fix>3d</fix>
</trkpt>
<trkpt lat="33.8101734" lon="-118.3938818">
  <ele>-2.079</ele>
  <time>2026-09-01T01:17:34Z</time>
  <course>185.07</course>
  <speed>0.5024937810560445</speed>
  <fix>3d</fix>
</trkpt>
<trkpt lat="33.8101738" lon="-118.3938817">
  <ele>-2.02</ele>
  <time>2026-09-01T01:17:34Z</time>
  <course>181.96</course>
  <speed>0.07</speed>
  <fix>3d</fix>
</trkpt>
<trkpt lat="33.8101729" lon="-118.3938819">
  <ele>-2.079</ele>
  <time>2026-09-01T01:17:34Z</time>
  <course>185.07</course>
  <speed>0.6835934464285041</speed>
  <fix>3d</fix>
</trkpt>
<trkpt lat="33.8101735" lon="-118.3938817">
  <ele>-2.02</ele>
  <time>2026-09-01T01:17:34Z</time>
  <course>183.98</course>
  <speed>0.37</speed>
  <fix>3d</fix>
</trkpt>
<trkpt lat="33.8101722" lon="-118.3938819">
  <ele>-2.079</ele>
  <time>2026-09-01T01:17:34Z</time>
  <course>185.07</course>
  <speed>0.8139410298049853</speed>
  <fix>3d</fix>
</trkpt>
<trkpt lat="33.8101735" lon="-118.3938817">
  <ele>-2.02</ele>
  <time>2026-09-01T01:17:34Z</time>
  <course>183.98</course>
  <speed>0.37</speed>
  <fix>3d</fix>
</trkpt>
<trkpt lat="33.8101714" lon="-118.393882">
  <ele>-2.078</ele>
  <time>2026-09-01T01:17:34Z</time>
  <course>185.07</course>
  <speed>0.9144397191723465</speed>
  <fix>3d</fix>
</trkpt>
<trkpt lat="33.8101725" lon="-118.3938817">
  <ele>-2.02</ele>
  <time>2026-09-01T01:17:34Z</time>
  <course>184.35</course>
  <speed>0.71</speed>
  <fix>3d</fix>
</trkpt>
<trkpt lat="33.8101706" lon="-118.3938821">
  <ele>-2.077</ele>
  <time>2026-09-01T01:17:34Z</time>
  <course>185.06</course>
  <speed>0.9850888284819801</speed>
  <fix>3d</fix>
</trkpt>
<trkpt lat="33.8101725" lon="-118.3938817">
  <ele>-2.02</ele>
  <time>2026-09-01T01:17:34Z</time>
  <course>184.35</course>
  <speed>0.71</speed>
  <fix>3d</fix>
</trkpt>
<trkpt lat="33.8101697" lon="-118.3938822">
  <ele>-2.077</ele>
  <time>2026-09-01T01:17:34Z</time>
  <course>185.06</course>
  <speed>1.0547511554864493</speed>
  <fix>3d</fix>
</trkpt>
<trkpt lat="33.810171" lon="-118.3938819">
  <ele>-2.02</ele>
  <time>2026-09-01T01:17:34Z</time>
  <course>184.53</course>
  <speed>0.94</speed>
  <fix>3d</fix>
</trkpt>
<trkpt lat="33.8101687" lon="-118.3938823">
  <ele>-2.077</ele>
  <time>2026-09-01T01:17:34Z</time>
  <course>185.06</course>
  <speed>1.105486318323298</speed>
  <fix>3d</fix>
</trkpt>
<trkpt lat="33.810171" lon="-118.3938819">
  <ele>-2.02</ele>
  <time>2026-09-01T01:17:34Z</time>
  <course>184.53</course>
  <speed>0.94</speed>
  <fix>3d</fix>
</trkpt>
<trkpt lat="33.8101677" lon="-118.3938824">
  <ele>-2.076</ele>
  <time>2026-09-01T01:17:34Z</time>
  <course>185.06</course>
  <speed>1.1562439189029277</speed>
  <fix>3d</fix>
</trkpt>
<trkpt lat="33.8101692" lon="-118.393882">
  <ele>-2.02</ele>
  <time>2026-09-01T01:17:34Z</time>
  <course>184.69</course>
  <speed>1.08</speed>
  <fix>3d</fix>
</trkpt>
<trkpt lat="33.8101667" lon="-118.3938825">
  <ele>-2.076</ele>
  <time>2026-09-01T01:17:34Z</time>
  <course>185.05</course>
  <speed>1.2059850745345069</speed>
  <fix>3d</fix>
</trkpt>
<trkpt lat="33.8101692" lon="-118.393882">
  <ele>-2.02</ele>
  <time>2026-09-01T01:17:34Z</time>
  <course>184.69</course>
  <speed>1.08</speed>
  <fix>3d</fix>
</trkpt>
<trkpt lat="33.8101656" lon="-118.3938826">
  <ele>-2.076</ele>
  <time>2026-09-01T01:17:34Z</time>
  <course>185.05</course>
  <speed>1.2467958934805647</speed>
  <fix>3d</fix>
</trkpt>
<trkpt lat="33.8101671" lon="-118.3938823">
  <ele>-2.02</ele>
  <time>2026-09-01T01:17:34Z</time>
  <course>184.83</course>
  <speed>1.19</speed>
  <fix>3d</fix>
</trkpt>
<trkpt lat="33.8101644" lon="-118.3938827">
  <ele>-2.076</ele>
  <time>2026-09-01T01:17:34Z</time>
  <course>185.05</course>
  <speed>1.2865846260545786</speed>
  <fix>3d</fix>
</trkpt>
<trkpt lat="33.8101671" lon="-118.3938823">
  <ele>-2.02</ele>
  <time>2026-09-01T01:17:34Z</time>
  <course>184.83</course>
  <speed>1.19</speed>
  <fix>3d</fix>
</trkpt>
<trkpt lat="33.8101633" lon="-118.3938828">
  <ele>-2.076</ele>
  <time>2026-09-01T01:17:34Z</time>
  <course>185.05</course>
  <speed>1.3164345787011218</speed>
  <fix>3d</fix>
</trkpt>
<trkpt lat="33.8101648" lon="-118.3938825">
  <ele>-2.02</ele>
  <time>2026-09-01T01:17:34Z</time>
  <course>184.94</course>
  <speed>1.28</speed>
  <fix>3d</fix>
</trkpt>
<trkpt lat="33.8101621" lon="-118.393883">
  <ele>-2.076</ele>
  <time>2026-09-01T01:17:34Z</time>
  <course>185.05</course>
  <speed>1.3472935834479431</speed>
  <fix>3d</fix>
</trkpt>
<trkpt lat="33.8101648" lon="-118.3938825">
  <ele>-2.02</ele>
  <time>2026-09-01T01:17:34Z</time>
  <course>184.94</course>
  <speed>1.28</speed>
  <fix>3d</fix>
</trkpt>
<trkpt lat="33.8101608" lon="-118.3938831">
  <ele>-2.077</ele>
  <time>2026-09-01T01:17:34Z</time>
  <course>185.05</course>
  <speed>1.3771347065556077</speed>
  <fix>3d</fix>
</trkpt>
<trkpt lat="33.8101624" lon="-118.3938827">
  <ele>-2.02</ele>
  <time>2026-09-01T01:17:34Z</time>
  <course>185.01</course>
  <speed>1.36</speed>
  <fix>3d</fix>
</trkpt>
<trkpt lat="33.8101596" lon="-118.3938832">
  <ele>-2.077</ele>
  <time>2026-09-01T01:17:34Z</time>
  <course>185.05</course>
  <speed>1.3970325694127537</speed>
  <fix>3d</fix>
</trkpt>
<trkpt lat="33.8101624" lon="-118.3938827">
  <ele>-2.02</ele>
  <time>2026-09-01T01:17:34Z</time>
  <course>185.01</course>
  <speed>1.36</speed>
  <fix>3d</fix>
</trkpt>
<trkpt lat="33.8101583" lon="-118.3938834">
  <ele>-2.076</ele>
  <time>2026-09-01T01:17:34Z</time>
  <course>185.05</course>
  <speed>1.4169333082400175</speed>
  <fix>3d</fix>
</trkpt>
<trkpt lat="33.81016" lon="-118.393883">
  <ele>-2.02</ele>
  <time>2026-09-01T01:17:34Z</time>
  <course>185.08</course>
  <speed>1.41</speed>
  <fix>3d</fix>
</trkpt>
<trkpt lat="33.810157" lon="-118.3938835">
  <ele>-2.074</ele>
  <time>2026-09-01T01:17:34Z</time>
  <course>185.05</course>
  <speed>1.4378456106272326</speed>
  <fix>3d</fix>
</trkpt>
<trkpt lat="33.81016" lon="-118.393883">
  <ele>-2.02</ele>
  <time>2026-09-01T01:17:34Z</time>
  <course>185.08</course>
  <speed>1.41</speed>
  <fix>3d</fix>
</trkpt>
<trkpt lat="33.8101557" lon="-118.3938836">
  <ele>-2.074</ele>
  <time>2026-09-01T01:17:34Z</time>
  <course>185.05</course>
  <speed>1.457737973711325</speed>
  <fix>3d</fix>
</trkpt>
<trkpt lat="33.8101574" lon="-118.3938833">
  <ele>-2.02</ele>
  <time>2026-09-01T01:17:34Z</time>
  <course>185.16</course>
  <speed>1.46</speed>
  <fix>3d</fix>
</trkpt>
<trkpt lat="33.8101544" lon="-118.3938838">
  <ele>-2.074</ele>
  <time>2026-09-01T01:17:34Z</time>
  <course>185.05</course>
  <speed>1.4676852523616908</speed>
  <fix>3d</fix>
</trkpt>
<trkpt lat="33.8101574" lon="-118.3938833">
  <ele>-2.02</ele>
  <time>2026-09-01T01:17:34Z</time>
  <course>185.16</course>
  <speed>1.46</speed>
  <fix>3d</fix>
</trkpt>
<trkpt lat="33.810153" lon="-118.3938839">
  <ele>-2.075</ele>
  <time>2026-09-01T01:17:34Z</time>
  <course>185.05</course>
  <speed>1.4776332427229701</speed>
  <fix>3d</fix>
</trkpt>
<trkpt lat="33.8101548" lon="-118.3938836">
  <ele>-2.02</ele>
  <time>2026-09-01T01:17:34Z</time>
  <course>185.19</course>
  <speed>1.49</speed>
  <fix>3d</fix>
</trkpt>
<trkpt lat="33.8101517" lon="-118.3938841">
  <ele>-2.076</ele>
  <time>2026-09-01T01:17:34Z</time>
  <course>185.05</course>
  <speed>1.48758193051677</speed>
  <fix>3d</fix>
</trkpt>
<trkpt lat="33.8101548" lon="-118.3938836">
  <ele>-2.02</ele>
  <time>2026-09-01T01:17:34Z</time>
  <course>185.19</course>
  <speed>1.49</speed>
  <fix>3d</fix>
</trkpt>
<trkpt lat="33.8101503" lon="-118.3938842">
  <ele>-2.077</ele>
  <time>2026-09-01T01:17:34Z</time>
  <course>185.05</course>
  <speed>1.4975313018431367</speed>
  <fix>3d</fix>
</trkpt>
<trkpt lat="33.810152" lon="-118.3938838">
  <ele>-2.03</ele>
  <time>2026-09-01T01:17:34Z</time>
  <course>185.2</course>
  <speed>1.52</speed>
  <fix>3d</fix>
</trkpt>
<trkpt lat="33.8101489" lon="-118.3938844">
  <ele>-2.076</ele>
  <time>2026-09-01T01:17:34Z</time>
  <course>185.05</course>
  <speed>1.5074813431681335</speed>
  <fix>3d</fix>
</trkpt>
<trkpt lat="33.810152" lon="-118.3938838">
  <ele>-2.03</ele>
  <time>2026-09-01T01:17:34Z</time>
  <course>185.2</course>
  <speed>1.52</speed>
  <fix>3d</fix>
</trkpt>
<trkpt lat="33.8101476" lon="-118.3938845">
  <ele>-2.077</ele>
  <time>2026-09-01T01:17:34Z</time>
  <course>185.05</course>
  <speed>1.5174320413119</speed>
  <fix>3d</fix>
</trkpt>
<trkpt lat="33.8101493" lon="-118.3938842">
  <ele>-2.03</ele>
  <time>2026-09-01T01:17:34Z</time>
  <course>185.22</course>
  <speed>1.54</speed>
  <fix>3d</fix>
</trkpt>
<trkpt lat="33.8101462" lon="-118.3938847">
  <ele>-2.078</ele>
  <time>2026-09-01T01:17:34Z</time>
  <course>185.05</course>
  <speed>1.5174320413119</speed>
  <fix>3d</fix>
</trkpt>
<trkpt lat="33.8101493" lon="-118.3938842">
  <ele>-2.03</ele>
  <time>2026-09-01T01:17:34Z</time>
  <course>185.22</course>
  <speed>1.54</speed>
  <fix>3d</fix>
</trkpt>
<trkpt lat="33.8101448" lon="-118.3938848">
  <ele>-2.079</ele>
  <time>2026-09-01T01:17:34Z</time>
  <course>185.05</course>
  <speed>1.5273833834371775</speed>
  <fix>3d</fix>
</trkpt>
<trkpt lat="33.8101465" lon="-118.3938845">
  <ele>-2.03</ele>
  <time>2026-09-01T01:17:34Z</time>
  <course>185.23</course>
  <speed>1.55</speed>
  <fix>3d</fix>
</trkpt>
<trkpt lat="33.8101434" lon="-118.393885">
  <ele>-2.079</ele>
  <time>2026-09-01T01:17:34Z</time>
  <course>185.05</course>
  <speed>1.5273833834371775</speed>
  <fix>3d</fix>
</trkpt>
<trkpt lat="33.8101465" lon="-118.3938845">
  <ele>-2.03</ele>
  <time>2026-09-01T01:17:34Z</time>
  <course>185.23</course>
  <speed>1.55</speed>
  <fix>3d</fix>
</trkpt>
<trkpt lat="33.810142" lon="-118.3938851">
  <ele>-2.08</ele>
  <time>2026-09-01T01:17:34Z</time>
  <course>185.05</course>
  <speed>1.5273833834371775</speed>
  <fix>3d</fix>
</trkpt>
<trkpt lat="33.8101438" lon="-118.3938848">
  <ele>-2.03</ele>
  <time>2026-09-01T01:17:34Z</time>
  <course>185.21</course>
  <speed>1.56</speed>
  <fix>3d</fix>
</trkpt>
<trkpt lat="33.8101406" lon="-118.3938853">
  <ele>-2.08</ele>
  <time>2026-09-01T01:17:34Z</time>
  <course>185.05</course>
  <speed>1.5373353570382746</speed>
  <fix>3d</fix>
</trkpt>
<trkpt lat="33.8101438" lon="-118.3938848">
  <ele>-2.03</ele>
  <time>2026-09-01T01:17:34Z</time>
  <course>185.21</course>
  <speed>1.56</speed>
  <fix>3d</fix>
</trkpt>
<trkpt lat="33.8101392" lon="-118.3938854">
  <ele>-2.08</ele>
  <time>2026-09-01T01:17:34Z</time>
  <course>185.06</course>
  <speed>1.5074813431681335</speed>
  <fix>3d</fix>
</trkpt>
<trkpt lat="33.8101409" lon="-118.3938851">
  <ele>-2.03</ele>
  <time>2026-09-01T01:17:34Z</time>
  <course>185.18</course>
  <speed>1.57</speed>
  <fix>3d</fix>
</trkpt>
<trkpt lat="33.8101379" lon="-118.3938856">
  <ele>-2.08</ele>
  <time>2026-09-01T01:17:34Z</time>
  <course>185.06</course>
  <speed>1.4268847185389575</speed>
  <fix>3d</fix>
</trkpt>
<trkpt lat="33.8101409" lon="-118.3938851">
  <ele>-2.03</ele>
  <time>2026-09-01T01:17:34Z</time>
  <course>185.18</course>
  <speed>1.57</speed>
  <fix>3d</fix>
</trkpt>
<trkpt lat="33.8101366" lon="-118.3938857">
  <ele>-2.079</ele>
  <time>2026-09-01T01:17:34Z</time>
  <course>185.06</course>
  <speed>1.3064838307457156</speed>
  <fix>3d</fix>
</trkpt>
<trkpt lat="33.8101381" lon="-118.3938854">
  <ele>-2.03</ele>
  <time>2026-09-01T01:17:34Z</time>
  <course>185.16</course>
  <speed>1.51</speed>
  <fix>3d</fix>
</trkpt>
<trkpt lat="33.8101355" lon="-118.3938858">
  <ele>-2.079</ele>
  <time>2026-09-01T01:17:34Z</time>
  <course>185.06</course>
  <speed>1.1562439189029277</speed>
  <fix>3d</fix>
</trkpt>
<trkpt lat="33.8101381" lon="-118.3938854">
  <ele>-2.03</ele>
  <time>2026-09-01T01:17:34Z</time>
  <course>185.16</course>
  <speed>1.51</speed>
  <fix>3d</fix>
</trkpt>
<trkpt lat="33.8101345" lon="-118.3938859">
  <ele>-2.079</ele>
  <time>2026-09-01T01:17:34Z</time>
  <course>185.06</course>
  <speed>0.9950376877284599</speed>
  <fix>3d</fix>
</trkpt>
<trkpt lat="33.8101356" lon="-118.3938857">
  <ele>-2.03</ele>
  <time>2026-09-01T01:17:34Z</time>
  <course>185.15</course>
  <speed>1.3</speed>
  <fix>3d</fix>
</trkpt>
<trkpt lat="33.8101336" lon="-118.393886">
  <ele>-2.078</ele>
  <time>2026-09-01T01:17:34Z</time>
  <course>185.07</course>
  <speed>0.8348652585896721</speed>
  <fix>3d</fix>
</trkpt>
<trkpt lat="33.8101356" lon="-118.3938857">
  <ele>-2.03</ele>
  <time>2026-09-01T01:17:34Z</time>
  <course>185.15</course>
  <speed>1.3</speed>
  <fix>3d</fix>
</trkpt>
<trkpt lat="33.8101329" lon="-118.3938861">
  <ele>-2.077</ele>
  <time>2026-09-01T01:17:34Z</time>
  <course>185.07</course>
  <speed>0.7244308110509934</speed>
  <fix>3d</fix>
</trkpt>
<trkpt lat="33.8101336" lon="-118.3938858">
  <ele>-2.03</ele>
  <time>2026-09-01T01:17:34Z</time>
  <course>185.16</course>
  <speed>1.0</speed>
  <fix>3d</fix>
</trkpt>
<trkpt lat="33.8101322" lon="-118.3938862">
  <ele>-2.076</ele>
  <time>2026-09-01T01:17:34Z</time>
  <course>185.07</course>
  <speed>0.6338769596696191</speed>
  <fix>3d</fix>
</trkpt>
<trkpt lat="33.8101336" lon="-118.3938858">
  <ele>-2.03</ele>
  <time>2026-09-01T01:17:34Z</time>
  <course>185.16</course>
  <speed>1.0</speed>
  <fix>3d</fix>
</trkpt>
<trkpt lat="33.8101316" lon="-118.3938862">
  <ele>-2.075</ele>
  <time>2026-09-01T01:17:34Z</time>
  <course>185.07</course>
  <speed>0.563205113613149</speed>
  <fix>3d</fix>
</trkpt>
<trkpt lat="33.810132" lon="-118.3938861">
  <ele>-2.03</ele>
  <time>2026-09-01T01:17:34Z</time>
  <course>185.21</course>
  <speed>0.75</speed>
  <fix>3d</fix>
</trkpt>
<trkpt lat="33.8101311" lon="-118.3938863">
  <ele>-2.075</ele>
  <time>2026-09-01T01:17:34Z</time>
  <course>185.08</course>
  <speed>0.5035871324805669</speed>
  <fix>3d</fix>
</trkpt>
<trkpt lat="33.810132" lon="-118.3938861">
  <ele>-2.03</ele>
  <time>2026-09-01T01:17:34Z</time>
  <course>185.21</course>
  <speed>0.75</speed>
  <fix>3d</fix>
</trkpt>
<trkpt lat="33.8101306" lon="-118.3938863">
  <ele>-2.075</ele>
  <time>2026-09-01T01:17:34Z</time>
  <course>185.08</course>
  <speed>0.4428317965096906</speed>
  <fix>3d</fix>
</trkpt>
<trkpt lat="33.8101308" lon="-118.3938862">
  <ele>-2.03</ele>
  <time>2026-09-01T01:17:34Z</time>
  <course>185.28</course>
  <speed>0.58</speed>
  <fix>3d</fix>
</trkpt>
<trkpt lat="33.8101302" lon="-118.3938864">
  <ele>-2.076</ele>
  <time>2026-09-01T01:17:34Z</time>
  <course>185.08</course>
  <speed>0.39319206502675</speed>
  <fix>3d</fix>
</trkpt>
<trkpt lat="33.8101308" lon="-118.3938862">
  <ele>-2.03</ele>
  <time>2026-09-01T01:17:34Z</time>
  <course>185.28</course>
  <speed>0.58</speed>
  <fix>3d</fix>
</trkpt>
<trkpt lat="33.8101298" lon="-118.3938864">
  <ele>-2.077</ele>
  <time>2026-09-01T01:17:34Z</time>
  <course>185.08</course>
  <speed>0.3522782990761707</speed>
  <fix>3d</fix>
</trkpt>
<trkpt lat="33.8101298" lon="-118.3938863">
  <ele>-2.03</ele>
  <time>2026-09-01T01:17:34Z</time>
  <course>185.29</course>
  <speed>0.46</speed>
  <fix>3d</fix>
</trkpt>
<trkpt lat="33.8101295" lon="-118.3938865">
  <ele>-2.078</ele>
  <time>2026-09-01T01:17:34Z</time>
  <course>185.08</course>
  <speed>0.3026549190084311</speed>
  <fix>3d</fix>
</trkpt>
<trkpt lat="33.8101298" lon="-118.3938863">
  <ele>-2.03</ele>
  <time>2026-09-01T01:17:34Z</time>
  <course>185.29</course>
  <speed>0.46</speed>
  <fix>3d</fix>
</trkpt>
<trkpt lat="33.8101292" lon="-118.3938865">
  <ele>-2.078</ele>
  <time>2026-09-01T01:17:34Z</time>
  <course>185.08</course>
  <speed>0.26305892875931813</speed>
  <fix>3d</fix>
</trkpt>
<trkpt lat="33.8101291" lon="-118.3938864">
  <ele>-2.03</ele>
  <time>2026-09-01T01:17:34Z</time>
  <course>185.28</course>
  <speed>0.36</speed>
  <fix>3d</fix>
</trkpt>
<trkpt lat="33.8101289" lon="-118.3938865">
  <ele>-2.079</ele>
  <time>2026-09-01T01:17:34Z</time>
  <course>185.07</course>
  <speed>0.23194827009486402</speed>
  <fix>3d</fix>
</trkpt>
<trkpt lat="33.8101291" lon="-118.3938864">
  <ele>-2.03</ele>
  <time>2026-09-01T01:17:34Z</time>
  <course>185.28</course>
  <speed>0.36</speed>
  <fix>3d</fix>
</trkpt>
<trkpt lat="33.8101286" lon="-118.3938865">
  <ele>-2.079</ele>
  <time>2026-09-01T01:17:34Z</time>
  <course>185.07</course>
  <speed>0.20223748416156684</speed>
  <fix>3d</fix>
</trkpt>
<trkpt lat="33.8101285" lon="-118.3938864">
  <ele>-2.03</ele>
  <time>2026-09-01T01:17:34Z</time>
  <course>185.27</course>
  <speed>0.28</speed>
  <fix>3d</fix>
</trkpt>
<trkpt lat="33.8101284" lon="-118.3938866">
  <ele>-2.079</ele>
  <time>2026-09-01T01:17:34Z</time>
  <course>185.07</course>
  <speed>0.1824828759089466</speed>
  <fix>3d</fix>
</trkpt>
<trkpt lat="33.8101285" lon="-118.3938864">
  <ele>-2.03</ele>
  <time>2026-09-01T01:17:34Z</time>
  <course>185.27</course>
  <speed>0.28</speed>
  <fix>3d</fix>
</trkpt>
<trkpt lat="33.8101282" lon="-118.3938866">
  <ele>-2.08</ele>
  <time>2026-09-01T01:17:34Z</time>
  <course>185.07</course>
  <speed>0.16278820596099705</speed>
  <fix>3d</fix>
</trkpt>
<trkpt lat="33.8101281" lon="-118.3938865">
  <ele>-2.03</ele>
  <time>2026-09-01T01:17:34Z</time>
  <course>185.33</course>
  <speed>0.22</speed>
  <fix>3d</fix>
</trkpt>
<trkpt lat="33.810128" lon="-118.3938866">
  <ele>-2.081</ele>
  <time>2026-09-01T01:17:34Z</time>
  <course>185.08</course>
  <speed>0.13152946437965907</speed>
  <fix>3d</fix>
</trkpt>
<trkpt lat="33.8101281" lon="-118.3938865">
  <ele>-2.03</ele>
  <time>2026-09-01T01:17:34Z</time>
  <course>185.33</course>
  <speed>0.22</speed>
  <fix>3d</fix>
</trkpt>
<trkpt lat="33.8101279" lon="-118.3938866">
  <ele>-2.081</ele>
  <time>2026-09-01T01:17:34Z</time>
  <course>185.09</course>
  <speed>0.1118033988749895</speed>
  <fix>3d</fix>
</trkpt>
<trkpt lat="33.8101277" lon="-118.3938865">
  <ele>-2.02</ele>
  <time>2026-09-01T01:17:34Z</time>
  <course>185.49</course>
  <speed>0.17</speed>
  <fix>3d</fix>
</trkpt>
<trkpt lat="33.8101278" lon="-118.3938866">
  <ele>-2.081</ele>
  <time>2026-09-01T01:17:34Z</time>
  <course>185.09</course>
  <speed>0.0824621125123532</speed>
  <fix>3d</fix>
</trkpt>
<trkpt lat="33.8101277" lon="-118.3938865">
  <ele>-2.02</ele>
  <time>2026-09-01T01:17:34Z</time>
  <course>185.49</course>
  <speed>0.17</speed>
  <fix>3d</fix>
</trkpt>
<trkpt lat="33.8101277" lon="-118.3938866">
  <ele>-2.08</ele>
  <time>2026-09-01T01:17:34Z</time>
  <course>185.09</course>
  <speed>0.0632455532033676</speed>
  <fix>3d</fix>
</trkpt>
<trkpt lat="33.8101275" lon="-118.3938865">
  <ele>-2.02</ele>
  <time>2026-09-01T01:17:34Z</time>
  <course>185.89</course>
  <speed>0.12</speed>
  <fix>3d</fix>
</trkpt>
<trkpt lat="33.8101276" lon="-118.3938867">
  <ele>-2.078</ele>
  <time>2026-09-01T01:17:34Z</time>
  <course>185.09</course>
  <speed>0.044721359549995794</speed>
  <fix>3d</fix>
</trkpt>
<trkpt lat="33.8101275" lon="-118.3938865">
  <ele>-2.02</ele>
  <time>2026-09-01T01:17:34Z</time>
  <course>185.89</course>
  <speed>0.12</speed>
  <fix>3d</fix>
</trkpt>
<trkpt lat="33.8101275" lon="-118.3938867">
  <ele>-2.076</ele>
  <time>2026-09-01T01:17:34Z</time>
  <course>185.09</course>
  <speed>0.0282842712474619</speed>
  <fix>3d</fix>
</trkpt>
<trkpt lat="33.8101273" lon="-118.3938865">
  <ele>-2.02</ele>
  <time>2026-09-01T01:17:34Z</time>
  <course>187.0</course>
  <speed>0.07</speed>
  <fix>3d</fix>
</trkpt>
<trkpt lat="33.8101275" lon="-118.3938867">
  <ele>-2.074</ele>
  <time>2026-09-01T01:17:34Z</time>
  <course>185.09</course>
  <speed>0.01</speed>
  <fix>3d</fix>
</trkpt>
<trkpt lat="33.8101273" lon="-118.3938865">
  <ele>-2.02</ele>
  <time>2026-09-01T01:17:34Z</time>
  <course>187.0</course>
  <speed>0.07</speed>
  <fix>3d</fix>
</trkpt>
<trkpt lat="33.8101275" lon="-118.3938867">
  <ele>-2.071</ele>
  <time>2026-09-01T01:17:34Z</time>
  <course>185.09</course>
  <speed>0.01</speed>
  <fix>3d</fix>
</trkpt>
<trkpt lat="33.8101271" lon="-118.3938865">
  <ele>-2.01</ele>
  <time>2026-09-01T01:17:34Z</time>
  <course>191.03</course>
  <speed>0.03</speed>
  <fix>3d</fix>
</trkpt>
<trkpt lat="33.8101274" lon="-118.3938867">
  <ele>-2.069</ele>
  <time>2026-09-01T01:17:34Z</time>
  <course>185.09</course>
  <speed>0.01414213562373095</speed>
  <fix>3d</fix>
</trkpt>
<trkpt lat="33.8101271" lon="-118.3938865">
  <ele>-2.01</ele>
  <time>2026-09-01T01:17:34Z</time>
  <course>191.03</course>
  <speed>0.03</speed>
  <fix>3d</fix>
</trkpt>
<trkpt lat="33.8101274" lon="-118.3938867">
  <ele>-2.067</ele>
  <time>2026-09-01T01:17:34Z</time>
  <course>185.09</course>
  <speed>0.022360679774997897</speed>
  <fix>3d</fix>
</trkpt>
<trkpt lat="33.8101271" lon="-118.3938866">
  <ele>-2.01</ele>
  <time>2026-09-01T01:17:34Z</time>
  <course>244.73</course>
  <speed>0.0</speed>
  <fix>3d</fix>
</trkpt>
<trkpt lat="33.8101274" lon="-118.3938867">
  <ele>-2.068</ele>
  <time>2026-09-01T01:17:34Z</time>
  <course>185.08</course>
  <speed>0.0316227766016838</speed>
  <fix>3d</fix>
</trkpt>
<trkpt lat="33.8101271" lon="-118.3938866">
  <ele>-2.01</ele>
  <time>2026-09-01T01:17:34Z</time>
  <course>244.73</course>
  <speed>0.0</speed>
  <fix>3d</fix>
</trkpt>
<trkpt lat="33.8101274" lon="-118.3938867">
  <ele>-2.069</ele>
  <time>2026-09-01T01:17:34Z</time>
  <course>185.09</course>
  <speed>0.0412310562561766</speed>
  <fix>3d</fix>
</trkpt>
<trkpt lat="33.8101271" lon="-118.3938867">
  <ele>-2.01</ele>
  <time>2026-09-01T01:17:34Z</time>
  <course>348.77</course>
  <speed>0.02</speed>
  <fix>3d</fix>
</trkpt>
<trkpt lat="33.8101275" lon="-118.3938867">
  <ele>-2.071</ele>
  <time>2026-09-01T01:17:34Z</time>
  <course>185.1</course>
  <speed>0.0412310562561766</speed>
  <fix>3d</fix>
</trkpt>
<trkpt lat="33.8101271" lon="-118.3938867">
  <ele>-2.01</ele>
  <time>2026-09-01T01:17:34Z</time>
  <course>348.77</course>
  <speed>0.02</speed>
  <fix>3d</fix>
</trkpt>
<trkpt lat="33.8101275" lon="-118.3938867">
  <ele>-2.072</ele>
  <time>2026-09-01T01:17:34Z</time>
  <course>185.12</course>
  <speed>0.0412310562561766</speed>
  <fix>3d</fix>
</trkpt>
<trkpt lat="33.8101272" lon="-118.3938867">
  <ele>-2.02</ele>
  <time>2026-09-01T01:17:34Z</time>
  <course>356.36</course>
  <speed>0.03</speed>
  <fix>3d</fix>
</trkpt>
<trkpt lat="33.8101275" lon="-118.3938867">
  <ele>-2.073</ele>
  <time>2026-09-01T01:17:34Z</time>
  <course>185.14</course>
  <speed>0.0412310562561766</speed>
  <fix>3d</fix>
</trkpt>
<trkpt lat="33.8101272" lon="-118.3938867">
  <ele>-2.02</ele>
  <time>2026-09-01T01:17:34Z</time>
  <course>356.36</course>
  <speed>0.03</speed>
  <fix>3d</fix>
</trkpt>
<trkpt lat="33.8101275" lon="-118.3938867">
  <ele>-2.074</ele>
  <time>2026-09-01T01:17:34Z</time>
  <course>185.14</course>
  <speed>0.0412310562561766</speed>
  <fix>3d</fix>
</trkpt>
<trkpt lat="33.8101273" lon="-118.3938867">
  <ele>-2.02</ele>
  <time>2026-09-01T01:17:34Z</time>
  <course>0.4</course>
  <speed>0.03</speed>
  <fix>3d</fix>
</trkpt>
<trkpt lat="33.8101275" lon="-118.3938867">
  <ele>-2.075</ele>
  <time>2026-09-01T01:17:34Z</time>
  <course>185.14</course>
  <speed>0.0412310562561766</speed>
  <fix>3d</fix>
</trkpt>
<trkpt lat="33.8101273" lon="-118.3938867">
  <ele>-2.02</ele>
  <time>2026-09-01T01:17:34Z</time>
  <course>0.4</course>
  <speed>0.03</speed>
  <fix>3d</fix>
</trkpt>
<trkpt lat="33.8101275" lon="-118.3938867">
  <ele>-2.076</ele>
  <time>2026-09-01T01:17:35Z</time>
  <course>185.15</course>
  <speed>0.0412310562561766</speed>
  <fix>3d</fix>
</trkpt>
<trkpt lat="33.8101273" lon="-118.3938867">
  <ele>-2.03</ele>
  <time>2026-09-01T01:17:35Z</time>
  <course>2.21</course>
  <speed>0.03</speed>
  <fix>3d</fix>
</trkpt>
<trkpt lat="33.8101275" lon="-118.3938867">
  <ele>-2.076</ele>
  <time>2026-09-01T01:17:35Z</time>
  <course>185.15</course>
  <speed>0.0412310562561766</speed>
  <fix>3d</fix>
</trkpt>
<trkpt lat="33.8101273" lon="-118.3938867">
  <ele>-2.03</ele>
  <time>2026-09-01T01:17:35Z</time>
  <course>2.21</course>
  <speed>0.03</speed>
  <fix>3d</fix>
</trkpt>
<trkpt lat="33.8101275" lon="-118.3938867">
  <ele>-2.077</ele>
  <time>2026-09-01T01:17:35Z</time>
  <course>185.16</course>
  <speed>0.0412310562561766</speed>
  <fix>3d</fix>
</trkpt>
<trkpt lat="33.8101273" lon="-118.3938867">
  <ele>-2.03</ele>
  <time>2026-09-01T01:17:35Z</time>
  <course>2.54</course>
  <speed>0.03</speed>
  <fix>3d</fix>
</trkpt>
<trkpt lat="33.8101275" lon="-118.3938867">
  <ele>-2.077</ele>
  <time>2026-09-01T01:17:35Z</time>
  <course>185.15</course>
  <speed>0.0412310562561766</speed>
  <fix>3d</fix>
</trkpt>
<trkpt lat="33.8101273" lon="-118.3938867">
  <ele>-2.03</ele>
  <time>2026-09-01T01:17:35Z</time>
  <course>2.54</course>
  <speed>0.03</speed>
  <fix>3d</fix>
</trkpt>
<trkpt lat="33.8101276" lon="-118.3938867">
  <ele>-2.078</ele>
  <time>2026-09-01T01:17:35Z</time>
  <course>185.15</course>
  <speed>0.0412310562561766</speed>
  <fix>3d</fix>
</trkpt>
<trkpt lat="33.8101274" lon="-118.3938867">
  <ele>-2.03</ele>
  <time>2026-09-01T01:17:35Z</time>
  <course>2.59</course>
  <speed>0.03</speed>
  <fix>3d</fix>
</trkpt>
<trkpt lat="33.8101276" lon="-118.3938867">
  <ele>-2.079</ele>
  <time>2026-09-01T01:17:35Z</time>
  <course>185.14</course>
  <speed>0.0412310562561766</speed>
  <fix>3d</fix>
</trkpt>
<trkpt lat="33.8101274" lon="-118.3938867">
  <ele>-2.03</ele>
  <time>2026-09-01T01:17:35Z</time>
  <course>2.59</course>
  <speed>0.03</speed>
  <fix>3d</fix>
</trkpt>
<trkpt lat="33.8101276" lon="-118.3938867">
  <ele>-2.08</ele>
  <time>2026-09-01T01:17:35Z</time>
  <course>185.13</course>
  <speed>0.0412310562561766</speed>
  <fix>3d</fix>
</trkpt>
<trkpt lat="33.8101274" lon="-118.3938867">
  <ele>-2.04</ele>
  <time>2026-09-01T01:17:35Z</time>
  <course>2.63</course>
  <speed>0.03</speed>
  <fix>3d</fix>
</trkpt>
<trkpt lat="33.8101276" lon="-118.3938867">
  <ele>-2.082</ele>
  <time>2026-09-01T01:17:35Z</time>
  <course>185.12</course>
  <speed>0.0412310562561766</speed>
  <fix>3d</fix>
</trkpt>
<trkpt lat="33.8101274" lon="-118.3938867">
  <ele>-2.04</ele>
  <time>2026-09-01T01:17:35Z</time>
  <course>2.63</course>
  <speed>0.03</speed>
  <fix>3d</fix>
</trkpt>
<trkpt lat="33.8101276" lon="-118.3938868">
  <ele>-2.082</ele>
  <time>2026-09-01T01:17:35Z</time>
  <course>185.12</course>
  <speed>0.0412310562561766</speed>
  <fix>3d</fix>
</trkpt>
<trkpt lat="33.8101275" lon="-118.3938867">
  <ele>-2.04</ele>
  <time>2026-09-01T01:17:35Z</time>
  <course>2.55</course>
  <speed>0.03</speed>
  <fix>3d</fix>
</trkpt>
<trkpt lat="33.8101277" lon="-118.3938868">
  <ele>-2.082</ele>
  <time>2026-09-01T01:17:35Z</time>
  <course>185.11</course>
  <speed>0.0412310562561766</speed>
  <fix>3d</fix>
</trkpt>
<trkpt lat="33.8101275" lon="-118.3938867">
  <ele>-2.04</ele>
  <time>2026-09-01T01:17:35Z</time>
  <course>2.55</course>
  <speed>0.03</speed>
  <fix>3d</fix>
</trkpt>
<trkpt lat="33.8101277" lon="-118.3938868">
  <ele>-2.082</ele>
  <time>2026-09-01T01:17:35Z</time>
  <course>185.1</course>
  <speed>0.0316227766016838</speed>
  <fix>3d</fix>
</trkpt>
<trkpt lat="33.8101276" lon="-118.3938867">
  <ele>-2.03</ele>
  <time>2026-09-01T01:17:35Z</time>
  <course>2.47</course>
  <speed>0.03</speed>
  <fix>3d</fix>
</trkpt>
<trkpt lat="33.8101277" lon="-118.3938868">
  <ele>-2.08</ele>
  <time>2026-09-01T01:17:35Z</time>
  <course>185.09</course>
  <speed>0.0316227766016838</speed>
  <fix>3d</fix>
</trkpt>
<trkpt lat="33.8101276" lon="-118.3938867">
  <ele>-2.03</ele>
  <time>2026-09-01T01:17:35Z</time>
  <course>2.47</course>
  <speed>0.03</speed>
  <fix>3d</fix>
</trkpt>
<trkpt lat="33.8101277" lon="-118.3938868">
  <ele>-2.08</ele>
  <time>2026-09-01T01:17:35Z</time>
  <course>185.08</course>
  <speed>0.0316227766016838</speed>
  <fix>3d</fix>
</trkpt>
<trkpt lat="33.8101276" lon="-118.3938867">
  <ele>-2.03</ele>
  <time>2026-09-01T01:17:35Z</time>
  <course>2.35</course>
  <speed>0.03</speed>
  <fix>3d</fix>
</trkpt>
<trkpt lat="33.8101277" lon="-118.3938868">
  <ele>-2.08</ele>
  <time>2026-09-01T01:17:35Z</time>
  <course>185.07</course>
  <speed>0.02</speed>
  <fix>3d</fix>
</trkpt>
<trkpt lat="33.8101276" lon="-118.3938867">
  <ele>-2.03</ele>
  <time>2026-09-01T01:17:35Z</time>
  <course>2.35</course>
  <speed>0.03</speed>
  <fix>3d</fix>
</trkpt>
<trkpt lat="33.8101276" lon="-118.3938868">
  <ele>-2.08</ele>
  <time>2026-09-01T01:17:35Z</time>
  <course>185.06</course>
  <speed>0.15033296378372907</speed>
  <fix>3d</fix>
</trkpt>
<trkpt lat="33.8101276" lon="-118.3938867">
  <ele>-2.03</ele>
  <time>2026-09-01T01:17:35Z</time>
  <course>148.76</course>
  <speed>0.01</speed>
  <fix>3d</fix>
</trkpt>
<trkpt lat="33.8101275" lon="-118.3938868">
  <ele>-2.081</ele>
  <time>2026-09-01T01:17:35Z</time>
  <course>185.06</course>
  <speed>0.3306055050963308</speed>
  <fix>3d</fix>
</trkpt>
<trkpt lat="33.8101276" lon="-118.3938867">
  <ele>-2.03</ele>
  <time>2026-09-01T01:17:35Z</time>
  <course>148.76</course>
  <speed>0.01</speed>
  <fix>3d</fix>
</trkpt>
<trkpt lat="33.8101271" lon="-118.3938868">
  <ele>-2.082</ele>
  <time>2026-09-01T01:17:35Z</time>
  <course>185.06</course>
  <speed>0.521536192416212</speed>
  <fix>3d</fix>
</trkpt>
<trkpt lat="33.8101275" lon="-118.3938867">
  <ele>-2.02</ele>
  <time>2026-09-01T01:17:35Z</time>
  <course>179.56</course>
  <speed>0.22</speed>
  <fix>3d</fix>
</trkpt>
<trkpt lat="33.8101266" lon="-118.3938868">
  <ele>-2.082</ele>
  <time>2026-09-01T01:17:35Z</time>
  <course>185.06</course>
  <speed>0.7025667228100119</speed>
  <fix>3d</fix>
</trkpt>
<trkpt lat="33.8101275" lon="-118.3938867">
  <ele>-2.02</ele>
  <time>2026-09-01T01:17:35Z</time>
  <course>179.56</course>
  <speed>0.22</speed>
  <fix>3d</fix>
</trkpt>
<trkpt lat="33.8101259" lon="-118.3938869">
  <ele>-2.082</ele>
  <time>2026-09-01T01:17:35Z</time>
  <course>185.06</course>
  <speed>0.8728115489611719</speed>
  <fix>3d</fix>
</trkpt>
<trkpt lat="33.8101269" lon="-118.3938867">
  <ele>-2.02</ele>
  <time>2026-09-01T01:17:35Z</time>
  <course>182.44</course>
  <speed>0.57</speed>
  <fix>3d</fix>
</trkpt>
<trkpt lat="33.810125" lon="-118.393887">
  <ele>-2.081</ele>
  <time>2026-09-01T01:17:35Z</time>
  <course>185.06</course>
  <speed>1.0438869670610895</speed>
  <fix>3d</fix>
</trkpt>
<trkpt lat="33.8101269" lon="-118.3938867">
  <ele>-2.02</ele>
  <time>2026-09-01T01:17:35Z</time>
  <course>182.44</course>
  <speed>0.57</speed>
  <fix>3d</fix>
</trkpt>
<trkpt lat="33.810124" lon="-118.3938871">
  <ele>-2.08</ele>
  <time>2026-09-01T01:17:35Z</time>
  <course>185.06</course>
  <speed>1.2149897118905988</speed>
  <fix>3d</fix>
</trkpt>
<trkpt lat="33.8101255" lon="-118.3938867">
  <ele>-2.02</ele>
  <time>2026-09-01T01:17:35Z</time>
  <course>183.49</course>
  <speed>0.92</speed>
  <fix>3d</fix>
</trkpt>
<trkpt lat="33.8101229" lon="-118.3938872">
  <ele>-2.079</ele>
  <time>2026-09-01T01:17:35Z</time>
  <course>185.05</course>
  <speed>1.346291201783626</speed>
  <fix>3d</fix>
</trkpt>
<trkpt lat="33.8101255" lon="-118.3938867">
  <ele>-2.02</ele>
  <time>2026-09-01T01:17:35Z</time>
  <course>183.49</course>
  <speed>0.92</speed>
  <fix>3d</fix>
</trkpt>
<trkpt lat="33.8101217" lon="-118.3938873">
  <ele>-2.077</ele>
  <time>2026-09-01T01:17:35Z</time>
  <course>185.05</course>
  <speed>1.446789549312546</speed>
  <fix>3d</fix>
</trkpt>
<trkpt lat="33.8101236" lon="-118.3938868">
  <ele>-2.01</ele>
  <time>2026-09-01T01:17:35Z</time>
  <course>184.06</course>
  <speed>1.24</speed>
  <fix>3d</fix>
</trkpt>
<trkpt lat="33.8101204" lon="-118.3938874">
  <ele>-2.075</ele>
  <time>2026-09-01T01:17:35Z</time>
  <course>185.05</course>
  <speed>1.5273833834371775</speed>
  <fix>3d</fix>
</trkpt>
<trkpt lat="33.8101236" lon="-118.3938868">
  <ele>-2.01</ele>
  <time>2026-09-01T01:17:35Z</time>
  <course>184.06</course>
  <speed>1.24</speed>
  <fix>3d</fix>
</trkpt>
<trkpt lat="33.810119" lon="-118.3938875">
  <ele>-2.074</ele>
  <time>2026-09-01T01:17:35Z</time>
  <course>185.04</course>
  <speed>1.6079800993793425</speed>
  <fix>3d</fix>
</trkpt>
<trkpt lat="33.8101211" lon="-118.3938871">
  <ele>-2.01</ele>
  <time>2026-09-01T01:17:35Z</time>
  <course>184.44</course>
  <speed>1.48</speed>
  <fix>3d</fix>
</trkpt>
<trkpt lat="33.8101176" lon="-118.3938877">
  <ele>-2.072</ele>
  <time>2026-09-01T01:17:35Z</time>
  <course>185.04</course>
  <speed>1.6676930173146374</speed>
  <fix>3d</fix>
</trkpt>
<trkpt lat="33.8101211" lon="-118.3938871">
  <ele>-2.01</ele>
  <time>2026-09-01T01:17:35Z</time>
  <course>184.44</course>
  <speed>1.48</speed>
  <fix>3d</fix>
</trkpt>
<trkpt lat="33.8101161" lon="-118.3938878">
  <ele>-2.071</ele>
  <time>2026-09-01T01:17:35Z</time>
  <course>185.04</course>
  <speed>1.7283807450906181</speed>
  <fix>3d</fix>
</trkpt>
<trkpt lat="33.8101183" lon="-118.3938873">
  <ele>-2.01</ele>
  <time>2026-09-01T01:17:35Z</time>
  <course>184.72</course>
  <speed>1.65</speed>
  <fix>3d</fix>
</trkpt>
<trkpt lat="33.8101145" lon="-118.393888">
  <ele>-2.071</ele>
  <time>2026-09-01T01:17:35Z</time>
  <course>185.04</course>
  <speed>1.7791290003819284</speed>
  <fix>3d</fix>
</trkpt>
<trkpt lat="33.8101183" lon="-118.3938873">
  <ele>-2.01</ele>
  <time>2026-09-01T01:17:35Z</time>
  <course>184.72</course>
  <speed>1.65</speed>
  <fix>3d</fix>
</trkpt>
<trkpt lat="33.8101129" lon="-118.3938882">
  <ele>-2.072</ele>
  <time>2026-09-01T01:17:35Z</time>
  <course>185.04</course>
  <speed>1.828879438344693</speed>
  <fix>3d</fix>
</trkpt>
<trkpt lat="33.8101152" lon="-118.3938877">
  <ele>-2.01</ele>
  <time>2026-09-01T01:17:35Z</time>
  <course>184.92</course>
  <speed>1.78</speed>
  <fix>3d</fix>
</trkpt>
<trkpt lat="33.8101113" lon="-118.3938883">
  <ele>-2.074</ele>
  <time>2026-09-01T01:17:35Z</time>
  <course>185.04</course>
  <speed>1.8696791168540126</speed>
  <fix>3d</fix>
</trkpt>
<trkpt lat="33.8101152" lon="-118.3938877">
  <ele>-2.01</ele>
  <time>2026-09-01T01:17:35Z</time>
  <course>184.92</course>
  <speed>1.78</speed>
  <fix>3d</fix>
</trkpt>
<trkpt lat="33.8101096" lon="-118.3938885">
  <ele>-2.075</ele>
  <time>2026-09-01T01:17:35Z</time>
  <course>185.04</course>
  <speed>1.9094763680129692</speed>
  <fix>3d</fix>
</trkpt>
<trkpt lat="33.8101119" lon="-118.393888">
  <ele>-2.01</ele>
  <time>2026-09-01T01:17:35Z</time>
  <course>185.06</course>
  <speed>1.88</speed>
  <fix>3d</fix>
</trkpt>
<trkpt lat="33.8101079" lon="-118.3938887">
  <ele>-2.077</ele>
  <time>2026-09-01T01:17:35Z</time>
  <course>185.04</course>
  <speed>1.9303885619221848</speed>
  <fix>3d</fix>
</trkpt>
<trkpt lat="33.8101119" lon="-118.393888">
  <ele>-2.01</ele>
  <time>2026-09-01T01:17:35Z</time>
  <course>185.06</course>
  <speed>1.88</speed>
  <fix>3d</fix>
</trkpt>
<trkpt lat="33.8101061" lon="-118.3938889">
  <ele>-2.079</ele>
  <time>2026-09-01T01:17:35Z</time>
  <course>185.04</course>
  <speed>1.9403350226185168</speed>
  <fix>3d</fix>
</trkpt>
<trkpt lat="33.8101085" lon="-118.3938884">
  <ele>-2.02</ele>
  <time>2026-09-01T01:17:35Z</time>
  <course>185.15</course>
  <speed>1.95</speed>
  <fix>3d</fix>
</trkpt>
<trkpt lat="33.8101044" lon="-118.3938891">
  <ele>-2.079</ele>
  <time>2026-09-01T01:17:35Z</time>
  <course>185.04</course>
  <speed>1.9403350226185168</speed>
  <fix>3d</fix>
</trkpt>
<trkpt lat="33.8101085" lon="-118.3938884">
  <ele>-2.02</ele>
  <time>2026-09-01T01:17:35Z</time>
  <course>185.15</course>
  <speed>1.95</speed>
  <fix>3d</fix>
</trkpt>
<trkpt lat="33.8101026" lon="-118.3938892">
  <ele>-2.077</ele>
  <time>2026-09-01T01:17:35Z</time>
  <course>185.04</course>
  <speed>1.9393297811357408</speed>
  <fix>3d</fix>
</trkpt>
<trkpt lat="33.810105" lon="-118.3938888">
  <ele>-2.02</ele>
  <time>2026-09-01T01:17:35Z</time>
  <course>185.22</course>
  <speed>1.99</speed>
  <fix>3d</fix>
</trkpt>
<trkpt lat="33.8101009" lon="-118.3938894">
  <ele>-2.075</ele>
  <time>2026-09-01T01:17:35Z</time>
  <course>185.04</course>
  <speed>1.9194269978303422</speed>
  <fix>3d</fix>
</trkpt>
<trkpt lat="33.810105" lon="-118.3938888">
  <ele>-2.02</ele>
  <time>2026-09-01T01:17:35Z</time>
  <course>185.22</course>
  <speed>1.99</speed>
  <fix>3d</fix>
</trkpt>
<trkpt lat="33.8100992" lon="-118.3938896">
  <ele>-2.075</ele>
  <time>2026-09-01T01:17:35Z</time>
  <course>185.04</course>
  <speed>1.89952625672824</speed>
  <fix>3d</fix>
</trkpt>
<trkpt lat="33.8101014" lon="-118.3938892">
  <ele>-2.02</ele>
  <time>2026-09-01T01:17:35Z</time>
  <course>185.25</course>
  <speed>1.98</speed>
  <fix>3d</fix>
</trkpt>
<trkpt lat="33.8100974" lon="-118.3938898">
  <ele>-2.074</ele>
  <time>2026-09-01T01:17:35Z</time>
  <course>185.05</course>
  <speed>1.89952625672824</speed>
  <fix>3d</fix>
</trkpt>
<trkpt lat="33.8101014" lon="-118.3938892">
  <ele>-2.02</ele>
  <time>2026-09-01T01:17:35Z</time>
  <course>185.25</course>
  <speed>1.98</speed>
  <fix>3d</fix>
</trkpt>
<trkpt lat="33.8100957" lon="-118.39389">
  <ele>-2.074</ele>
  <time>2026-09-01T01:17:35Z</time>
  <course>185.05</course>
  <speed>1.89952625672824</speed>
  <fix>3d</fix>
</trkpt>
<trkpt lat="33.8100978" lon="-118.3938896">
  <ele>-2.02</ele>
  <time>2026-09-01T01:17:35Z</time>
  <course>185.26</course>
  <speed>1.96</speed>
  <fix>3d</fix>
</trkpt>
<trkpt lat="33.810094" lon="-118.3938902">
  <ele>-2.074</ele>
  <time>2026-09-01T01:17:35Z</time>
  <course>185.04</course>
  <speed>1.9094763680129692</speed>
  <fix>3d</fix>
</trkpt>
<trkpt lat="33.8100978" lon="-118.3938896">
  <ele>-2.02</ele>
  <time>2026-09-01T01:17:35Z</time>
  <course>185.26</course>
  <speed>1.96</speed>
  <fix>3d</fix>
</trkpt>
<trkpt lat="33.8100922" lon="-118.3938904">
  <ele>-2.075</ele>
  <time>2026-09-01T01:17:35Z</time>
  <course>185.05</course>
  <speed>1.9094763680129692</speed>
  <fix>3d</fix>
</trkpt>
<trkpt lat="33.8100943" lon="-118.39389">
  <ele>-2.02</ele>
  <time>2026-09-01T01:17:35Z</time>
  <course>185.26</course>
  <speed>1.96</speed>
  <fix>3d</fix>
</trkpt>
<trkpt lat="33.8100905" lon="-118.3938905">
  <ele>-2.076</ele>
  <time>2026-09-01T01:17:35Z</time>
  <course>185.05</course>
  <speed>1.9194269978303422</speed>
  <fix>3d</fix>
</trkpt>
<trkpt lat="33.8100943" lon="-118.39389">
  <ele>-2.02</ele>
  <time>2026-09-01T01:17:35Z</time>
  <course>185.26</course>
  <speed>1.96</speed>
  <fix>3d</fix>
</trkpt>
<trkpt lat="33.8100887" lon="-118.3938907">
  <ele>-2.077</ele>
  <time>2026-09-01T01:17:35Z</time>
  <course>185.05</course>
  <speed>1.9293781381574737</speed>
  <fix>3d</fix>
</trkpt>
<trkpt lat="33.8100908" lon="-118.3938904">
  <ele>-2.02</ele>
  <time>2026-09-01T01:17:35Z</time>
  <course>185.23</course>
  <speed>1.97</speed>
  <fix>3d</fix>
</trkpt>
<trkpt lat="33.810087" lon="-118.3938909">
  <ele>-2.077</ele>
  <time>2026-09-01T01:17:35Z</time>
  <course>185.06</course>
  <speed>1.9393297811357408</speed>
  <fix>3d</fix>
</trkpt>
<trkpt lat="33.8100908" lon="-118.3938904">
  <ele>-2.02</ele>
  <time>2026-09-01T01:17:35Z</time>
  <course>185.23</course>
  <speed>1.97</speed>
  <fix>3d</fix>
</trkpt>
<trkpt lat="33.8100852" lon="-118.3938911">
  <ele>-2.078</ele>
  <time>2026-09-01T01:17:35Z</time>
  <course>185.05</course>
  <speed>1.9393297811357408</speed>
  <fix>3d</fix>
</trkpt>
<trkpt lat="33.8100873" lon="-118.3938908">
  <ele>-2.02</ele>
  <time>2026-09-01T01:17:35Z</time>
  <course>185.2</course>
  <speed>1.98</speed>
  <fix>3d</fix>
</trkpt>
<trkpt lat="33.8100834" lon="-118.3938913">
  <ele>-2.079</ele>
  <time>2026-09-01T01:17:35Z</time>
  <course>185.06</course>
  <speed>1.9293781381574737</speed>
  <fix>3d</fix>
</trkpt>
<trkpt lat="33.8100873" lon="-118.3938908">
  <ele>-2.02</ele>
  <time>2026-09-01T01:17:35Z</time>
  <course>185.2</course>
  <speed>1.98</speed>
  <fix>3d</fix>
</trkpt>
<trkpt lat="33.8100817" lon="-118.3938915">
  <ele>-2.079</ele>
  <time>2026-09-01T01:17:35Z</time>
  <course>185.06</course>
  <speed>1.8985520798756088</speed>
  <fix>3d</fix>
</trkpt>
<trkpt lat="33.8100837" lon="-118.3938911">
  <ele>-2.03</ele>
  <time>2026-09-01T01:17:35Z</time>
  <course>185.16</course>
  <speed>1.98</speed>
  <fix>3d</fix>
</trkpt>
<trkpt lat="33.8100799" lon="-118.3938917">
  <ele>-2.079</ele>
  <time>2026-09-01T01:17:35Z</time>
  <course>185.06</course>
  <speed>1.8189282558693733</speed>
  <fix>3d</fix>
</trkpt>
<trkpt lat="33.8100837" lon="-118.3938911">
  <ele>-2.03</ele>
  <time>2026-09-01T01:17:35Z</time>
  <course>185.16</course>
  <speed>1.98</speed>
  <fix>3d</fix>
</trkpt>
<trkpt lat="33.8100783" lon="-118.3938919">
  <ele>-2.079</ele>
  <time>2026-09-01T01:17:35Z</time>
  <course>185.06</course>
  <speed>1.6985287751463027</speed>
  <fix>3d</fix>
</trkpt>
<trkpt lat="33.8100802" lon="-118.3938915">
  <ele>-2.03</ele>
  <time>2026-09-01T01:17:35Z</time>
  <course>185.14</course>
  <speed>1.91</speed>
  <fix>3d</fix>
</trkpt>
<trkpt lat="33.8100768" lon="-118.393892">
  <ele>-2.079</ele>
  <time>2026-09-01T01:17:35Z</time>
  <course>185.06</course>
  <speed>1.5472879499304582</speed>
  <fix>3d</fix>
</trkpt>
<trkpt lat="33.8100802" lon="-118.3938915">
  <ele>-2.03</ele>
  <time>2026-09-01T01:17:35Z</time>
  <course>185.14</course>
  <speed>1.91</speed>
  <fix>3d</fix>
</trkpt>
<trkpt lat="33.8100755" lon="-118.3938922">
  <ele>-2.079</ele>
  <time>2026-09-01T01:17:35Z</time>
  <course>185.06</course>
  <speed>1.4069825869569246</speed>
  <fix>3d</fix>
</trkpt>
<trkpt lat="33.8100769" lon="-118.3938919">
  <ele>-2.03</ele>
  <time>2026-09-01T01:17:35Z</time>
  <course>185.16</course>
  <speed>1.71</speed>
  <fix>3d</fix>
</trkpt>
<trkpt lat="33.8100742" lon="-118.3938923">
  <ele>-2.08</ele>
  <time>2026-09-01T01:17:35Z</time>
  <course>185.06</course>
  <speed>1.2666885963013956</speed>
  <fix>3d</fix>
</trkpt>
<trkpt lat="33.8100769" lon="-118.3938919">
  <ele>-2.03</ele>
  <time>2026-09-01T01:17:35Z</time>
  <course>185.16</course>
  <speed>1.71</speed>
  <fix>3d</fix>
</trkpt>
<trkpt lat="33.8100731" lon="-118.3938924">
  <ele>-2.081</ele>
  <time>2026-09-01T01:17:35Z</time>
  <course>185.07</course>
  <speed>1.1253888216967503</speed>
  <fix>3d</fix>
</trkpt>
<trkpt lat="33.810074" lon="-118.3938921">
  <ele>-2.02</ele>
  <time>2026-09-01T01:17:35Z</time>
  <course>185.19</course>
  <speed>1.43</speed>
  <fix>3d</fix>
</trkpt>
<trkpt lat="33.8100721" lon="-118.3938925">
  <ele>-2.08</ele>
  <time>2026-09-01T01:17:35Z</time>
  <course>185.07</course>
  <speed>0.9751410154434076</speed>
  <fix>3d</fix>
</trkpt>
<trkpt lat="33.810074" lon="-118.3938921">
  <ele>-2.02</ele>
  <time>2026-09-01T01:17:35Z</time>
  <course>185.19</course>
  <speed>1.43</speed>
  <fix>3d</fix>
</trkpt>
<trkpt lat="33.8100712" lon="-118.3938926">
  <ele>-2.077</ele>
  <time>2026-09-01T01:17:35Z</time>
  <course>185.07</course>
  <speed>0.8448076704197234</speed>
  <fix>3d</fix>
</trkpt>
<trkpt lat="33.8100718" lon="-118.3938924">
  <ele>-2.02</ele>
  <time>2026-09-01T01:17:35Z</time>
  <course>185.24</course>
  <speed>1.14</speed>
  <fix>3d</fix>
</trkpt>
<trkpt lat="33.8100704" lon="-118.3938927">
  <ele>-2.075</ele>
  <time>2026-09-01T01:17:35Z</time>
  <course>185.07</course>
  <speed>0.7343704787094864</speed>
  <fix>3d</fix>
</trkpt>
<trkpt lat="33.8100718" lon="-118.3938924">
  <ele>-2.02</ele>
  <time>2026-09-01T01:17:35Z</time>
  <course>185.24</course>
  <speed>1.14</speed>
  <fix>3d</fix>
</trkpt>
<trkpt lat="33.8100697" lon="-118.3938928">
  <ele>-2.072</ele>
  <time>2026-09-01T01:17:35Z</time>
  <course>185.07</course>
  <speed>0.6537583651472461</speed>
  <fix>3d</fix>
</trkpt>
<trkpt lat="33.81007" lon="-118.3938926">
  <ele>-2.02</ele>
  <time>2026-09-01T01:17:35Z</time>
  <course>185.34</course>
  <speed>0.87</speed>
  <fix>3d</fix>
</trkpt>
<trkpt lat="33.8100691" lon="-118.3938928">
  <ele>-2.07</ele>
  <time>2026-09-01T01:17:35Z</time>
  <course>185.07</course>
  <speed>0.5742821606144493</speed>
  <fix>3d</fix>
</trkpt>
<trkpt lat="33.81007" lon="-118.3938926">
  <ele>-2.02</ele>
  <time>2026-09-01T01:17:35Z</time>
  <course>185.34</course>
  <speed>0.87</speed>
  <fix>3d</fix>
</trkpt>
<trkpt lat="33.8100685" lon="-118.3938929">
  <ele>-2.071</ele>
  <time>2026-09-01T01:17:35Z</time>
  <course>185.08</course>
  <speed>0.5135172830587107</speed>
  <fix>3d</fix>
</trkpt>
<trkpt lat="33.8100686" lon="-118.3938928">
  <ele>-2.02</ele>
  <time>2026-09-01T01:17:35Z</time>
  <course>185.45</course>
  <speed>0.67</speed>
  <fix>3d</fix>
</trkpt>
<trkpt lat="33.810068" lon="-118.393893">
  <ele>-2.071</ele>
  <time>2026-09-01T01:17:35Z</time>
  <course>185.08</course>
  <speed>0.45276925690687087</speed>
  <fix>3d</fix>
</trkpt>
<trkpt lat="33.8100686" lon="-118.3938928">
  <ele>-2.02</ele>
  <time>2026-09-01T01:17:35Z</time>
  <course>185.45</course>
  <speed>0.67</speed>
  <fix>3d</fix>
</trkpt>
<trkpt lat="33.8100676" lon="-118.393893">
  <ele>-2.073</ele>
  <time>2026-09-01T01:17:35Z</time>
  <course>185.08</course>
  <speed>0.39319206502675</speed>
  <fix>3d</fix>
</trkpt>
<trkpt lat="33.8100675" lon="-118.3938929">
  <ele>-2.02</ele>
  <time>2026-09-01T01:17:35Z</time>
  <course>185.52</course>
  <speed>0.53</speed>
  <fix>3d</fix>
</trkpt>
<trkpt lat="33.8100672" lon="-118.3938931">
  <ele>-2.076</ele>
  <time>2026-09-01T01:17:35Z</time>
  <course>185.08</course>
  <speed>0.3423448553724738</speed>
  <fix>3d</fix>
</trkpt>
<trkpt lat="33.8100675" lon="-118.3938929">
  <ele>-2.02</ele>
  <time>2026-09-01T01:17:35Z</time>
  <course>185.52</course>
  <speed>0.53</speed>
  <fix>3d</fix>
</trkpt>
<trkpt lat="33.8100668" lon="-118.3938931">
  <ele>-2.078</ele>
  <time>2026-09-01T01:17:35Z</time>
  <course>185.08</course>
  <speed>0.3026549190084311</speed>
  <fix>3d</fix>
</trkpt>
<trkpt lat="33.8100667" lon="-118.393893">
  <ele>-2.02</ele>
  <time>2026-09-01T01:17:35Z</time>
  <course>185.58</course>
  <speed>0.41</speed>
  <fix>3d</fix>
</trkpt>
<trkpt lat="33.8100665" lon="-118.3938931">
  <ele>-2.08</ele>
  <time>2026-09-01T01:17:35Z</time>
  <course>185.08</course>
  <speed>0.26305892875931813</speed>
  <fix>3d</fix>
</trkpt>
<trkpt lat="33.8100667" lon="-118.393893">
  <ele>-2.02</ele>
  <time>2026-09-01T01:17:35Z</time>
  <course>185.58</course>
  <speed>0.41</speed>
  <fix>3d</fix>
</trkpt>
<trkpt lat="33.8100662" lon="-118.3938932">
  <ele>-2.081</ele>
  <time>2026-09-01T01:17:35Z</time>
  <course>185.08</course>
  <speed>0.23194827009486402</speed>
  <fix>3d</fix>
</trkpt>
<trkpt lat="33.8100661" lon="-118.3938931">
  <ele>-2.02</ele>
  <time>2026-09-01T01:17:35Z</time>
  <course>185.62</course>
  <speed>0.31</speed>
  <fix>3d</fix>
</trkpt>
<trkpt lat="33.810066" lon="-118.3938932">
  <ele>-2.082</ele>
  <time>2026-09-01T01:17:35Z</time>
  <course>185.08</course>
  <speed>0.20223748416156684</speed>
  <fix>3d</fix>
</trkpt>
<trkpt lat="33.8100661" lon="-118.3938931">
  <ele>-2.02</ele>
  <time>2026-09-01T01:17:35Z</time>
  <course>185.62</course>
  <speed>0.31</speed>
  <fix>3d</fix>
</trkpt>
<trkpt lat="33.8100658" lon="-118.3938932">
  <ele>-2.083</ele>
  <time>2026-09-01T01:17:35Z</time>
  <course>185.08</course>
  <speed>0.1824828759089466</speed>
  <fix>3d</fix>
</trkpt>
<trkpt lat="33.8100656" lon="-118.3938931">
  <ele>-2.03</ele>
  <time>2026-09-01T01:17:35Z</time>
  <course>185.67</course>
  <speed>0.24</speed>
  <fix>3d</fix>
</trkpt>
<trkpt lat="33.8100656" lon="-118.3938932">
  <ele>-2.082</ele>
  <time>2026-09-01T01:17:35Z</time>
  <course>185.08</course>
  <speed>0.15297058540778355</speed>
  <fix>3d</fix>
</trkpt>
<trkpt lat="33.8100656" lon="-118.3938931">
  <ele>-2.03</ele>
  <time>2026-09-01T01:17:35Z</time>
  <course>185.67</course>
  <speed>0.24</speed>
  <fix>3d</fix>
</trkpt>
<trkpt lat="33.8100654" lon="-118.3938933">
  <ele>-2.081</ele>
  <time>2026-09-01T01:17:35Z</time>
  <course>185.08</course>
  <speed>0.12165525060596438</speed>
  <fix>3d</fix>
</trkpt>
<trkpt lat="33.8100651" lon="-118.3938932">
  <ele>-2.02</ele>
  <time>2026-09-01T01:17:35Z</time>
  <course>185.68</course>
  <speed>0.18</speed>
  <fix>3d</fix>
</trkpt>
<trkpt lat="33.8100653" lon="-118.3938933">
  <ele>-2.08</ele>
  <time>2026-09-01T01:17:35Z</time>
  <course>185.08</course>
  <speed>0.09219544457292887</speed>
  <fix>3d</fix>
</trkpt>
<trkpt lat="33.8100651" lon="-118.3938932">
  <ele>-2.02</ele>
  <time>2026-09-01T01:17:35Z</time>
  <course>185.68</course>
  <speed>0.18</speed>
  <fix>3d</fix>
</trkpt>
<trkpt lat="33.8100652" lon="-118.3938933">
  <ele>-2.079</ele>
  <time>2026-09-01T01:17:35Z</time>
  <course>185.08</course>
  <speed>0.07280109889280519</speed>
  <fix>3d</fix>
</trkpt>
<trkpt lat="33.8100649" lon="-118.3938932">
  <ele>-2.02</ele>
  <time>2026-09-01T01:17:35Z</time>
  <course>185.76</course>
  <speed>0.12</speed>
  <fix>3d</fix>
</trkpt>
<trkpt lat="33.8100651" lon="-118.3938933">
  <ele>-2.078</ele>
  <time>2026-09-01T01:17:35Z</time>
  <course>185.08</course>
  <speed>0.044721359549995794</speed>
  <fix>3d</fix>
</trkpt>
<trkpt lat="33.8100649" lon="-118.3938932">
  <ele>-2.02</ele>
  <time>2026-09-01T01:17:35Z</time>
  <course>185.76</course>
  <speed>0.12</speed>
  <fix>3d</fix>
</trkpt>
<trkpt lat="33.810065" lon="-118.3938933">
  <ele>-2.077</ele>
  <time>2026-09-01T01:17:35Z</time>
  <course>185.08</course>
  <speed>0.022360679774997897</speed>
  <fix>3d</fix>
</trkpt>
<trkpt lat="33.8100647" lon="-118.3938932">
  <ele>-2.01</ele>
  <time>2026-09-01T01:17:35Z</time>
  <course>186.23</course>
  <speed>0.07</speed>
  <fix>3d</fix>
</trkpt>
<trkpt lat="33.810065" lon="-118.3938933">
  <ele>-2.075</ele>
  <time>2026-09-01T01:17:35Z</time>
  <course>185.08</course>
  <speed>0.01</speed>
  <fix>3d</fix>
</trkpt>
<trkpt lat="33.8100647" lon="-118.3938932">
  <ele>-2.01</ele>
  <time>2026-09-01T01:17:35Z</time>
  <course>186.23</course>
  <speed>0.07</speed>
  <fix>3d</fix>
</trkpt>
<trkpt lat="33.8100649" lon="-118.3938933">
  <ele>-2.074</ele>
  <time>2026-09-01T01:17:35Z</time>
  <course>185.08</course>
  <speed>0.01414213562373095</speed>
  <fix>3d</fix>
</trkpt>
<trkpt lat="33.8100646" lon="-118.3938932">
  <ele>-2.01</ele>
  <time>2026-09-01T01:17:35Z</time>
  <course>188.91</course>
  <speed>0.02</speed>
  <fix>3d</fix>
</trkpt>
<trkpt lat="33.8100649" lon="-118.3938933">
  <ele>-2.073</ele>
  <time>2026-09-01T01:17:35Z</time>
  <course>185.08</course>
  <speed>0.022360679774997897</speed>
  <fix>3d</fix>
</trkpt>
<trkpt lat="33.8100646" lon="-118.3938932">
  <ele>-2.01</ele>
  <time>2026-09-01T01:17:35Z</time>
  <course>188.91</course>
  <speed>0.02</speed>
  <fix>3d</fix>
</trkpt>
<trkpt lat="33.8100649" lon="-118.3938933">
  <ele>-2.072</ele>
  <time>2026-09-01T01:17:35Z</time>
  <course>185.08</course>
  <speed>0.0316227766016838</speed>
  <fix>3d</fix>
</trkpt>
<trkpt lat="33.8100646" lon="-118.3938932">
  <ele>-2.01</ele>
  <time>2026-09-01T01:17:35Z</time>
  <course>353.8</course>
  <speed>0.01</speed>
  <fix>3d</fix>
</trkpt>
<trkpt lat="33.8100649" lon="-118.3938933">
  <ele>-2.072</ele>
  <time>2026-09-01T01:17:35Z</time>
  <course>185.08</course>
  <speed>0.0412310562561766</speed>
  <fix>3d</fix>
</trkpt>
<trkpt lat="33.8100646" lon="-118.3938932">
  <ele>-2.01</ele>
  <time>2026-09-01T01:17:35Z</time>
  <course>353.8</course>
  <speed>0.01</speed>
  <fix>3d</fix>
</trkpt>
<trkpt lat="33.8100649" lon="-118.3938933">
  <ele>-2.071</ele>
  <time>2026-09-01T01:17:35Z</time>
  <course>185.09</course>
  <speed>0.0412310562561766</speed>
  <fix>3d</fix>
</trkpt>
<trkpt lat="33.8100647" lon="-118.3938932">
  <ele>-2.01</ele>
  <time>2026-09-01T01:17:35Z</time>
  <course>0.52</course>
  <speed>0.03</speed>
  <fix>3d</fix>
</trkpt>
<trkpt lat="33.8100649" lon="-118.3938933">
  <ele>-2.07</ele>
  <time>2026-09-01T01:17:35Z</time>
  <course>185.1</course>
  <speed>0.0412310562561766</speed>
  <fix>3d</fix>
</trkpt>
<trkpt lat="33.8100647" lon="-118.3938932">
  <ele>-2.01</ele>
  <time>2026-09-01T01:17:35Z</time>
  <course>0.52</course>
  <speed>0.03</speed>
  <fix>3d</fix>
</trkpt>
<trkpt lat="33.8100649" lon="-118.3938933">
  <ele>-2.07</ele>
  <time>2026-09-01T01:17:35Z</time>
  <course>185.11</course>
  <speed>0.0412310562561766</speed>
  <fix>3d</fix>
</trkpt>
<trkpt lat="33.8100647" lon="-118.3938932">
  <ele>-2.01</ele>
  <time>2026-09-01T01:17:35Z</time>
  <course>0.67</course>
  <speed>0.04</speed>
  <fix>3d</fix>
</trkpt>
<trkpt lat="33.8100649" lon="-118.3938933">
  <ele>-2.072</ele>
  <time>2026-09-01T01:17:35Z</time>
  <course>185.1</course>
  <speed>0.0412310562561766</speed>
  <fix>3d</fix>
</trkpt>
<trkpt lat="33.8100647" lon="-118.3938932">
  <ele>-2.01</ele>
  <time>2026-09-01T01:17:35Z</time>
  <course>0.67</course>
  <speed>0.04</speed>
  <fix>3d</fix>
</trkpt>
<trkpt lat="33.810065" lon="-118.3938933">
  <ele>-2.074</ele>
  <time>2026-09-01T01:17:35Z</time>
  <course>185.1</course>
  <speed>0.0412310562561766</speed>
  <fix>3d</fix>
</trkpt>
<trkpt lat="33.8100647" lon="-118.3938932">
  <ele>-2.01</ele>
  <time>2026-09-01T01:17:35Z</time>
  <course>0.18</course>
  <speed>0.05</speed>
  <fix>3d</fix>
</trkpt>
<trkpt lat="33.810065" lon="-118.3938933">
  <ele>-2.076</ele>
  <time>2026-09-01T01:17:35Z</time>
  <course>185.09</course>
  <speed>0.0412310562561766</speed>
  <fix>3d</fix>
</trkpt>
<trkpt lat="33.8100647" lon="-118.3938932">
  <ele>-2.01</ele>
  <time>2026-09-01T01:17:35Z</time>
  <course>0.18</course>
  <speed>0.05</speed>
  <fix>3d</fix>
</trkpt>
<trkpt lat="33.810065" lon="-118.3938933">
  <ele>-2.077</ele>
  <time>2026-09-01T01:17:35Z</time>
  <course>185.09</course>
  <speed>0.0412310562561766</speed>
  <fix>3d</fix>
</trkpt>
<trkpt lat="33.8100648" lon="-118.3938932">
  <ele>-2.02</ele>
  <time>2026-09-01T01:17:35Z</time>
  <course>359.96</course>
  <speed>0.04</speed>
  <fix>3d</fix>
</trkpt>
<trkpt lat="33.810065" lon="-118.3938933">
  <ele>-2.077</ele>
  <time>2026-09-01T01:17:35Z</time>
  <course>185.08</course>
  <speed>0.0412310562561766</speed>
  <fix>3d</fix>
</trkpt>
<trkpt lat="33.8100648" lon="-118.3938932">
  <ele>-2.02</ele>
  <time>2026-09-01T01:17:35Z</time>
  <course>359.96</course>
  <speed>0.04</speed>
  <fix>3d</fix>
</trkpt>
<trkpt lat="33.810065" lon="-118.3938933">
  <ele>-2.077</ele>
  <time>2026-09-01T01:17:35Z</time>
  <course>185.08</course>
  <speed>0.0412310562561766</speed>
  <fix>3d</fix>
</trkpt>
<trkpt lat="33.8100649" lon="-118.3938932">
  <ele>-2.02</ele>
  <time>2026-09-01T01:17:35Z</time>
  <course>359.76</course>
  <speed>0.04</speed>
  <fix>3d</fix>
</trkpt>
<trkpt lat="33.8100651" lon="-118.3938933">
  <ele>-2.076</ele>
  <time>2026-09-01T01:17:35Z</time>
  <course>185.07</course>
  <speed>0.0412310562561766</speed>
  <fix>3d</fix>
</trkpt>
<trkpt lat="33.8100649" lon="-118.3938932">
  <ele>-2.02</ele>
  <time>2026-09-01T01:17:35Z</time>
  <course>359.76</course>
  <speed>0.04</speed>
  <fix>3d</fix>
</trkpt>
<trkpt lat="33.8100651" lon="-118.3938933">
  <ele>-2.075</ele>
  <time>2026-09-01T01:17:35Z</time>
  <course>185.07</course>
  <speed>0.0412310562561766</speed>
  <fix>3d</fix>
</trkpt>
<trkpt lat="33.810065" lon="-118.3938932">
  <ele>-2.02</ele>
  <time>2026-09-01T01:17:35Z</time>
  <course>359.55</course>
  <speed>0.04</speed>
  <fix>3d</fix>
</trkpt>
<trkpt lat="33.8100651" lon="-118.3938933">
  <ele>-2.074</ele>
  <time>2026-09-01T01:17:35Z</time>
  <course>185.06</course>
  <speed>0.0412310562561766</speed>
  <fix>3d</fix>
</trkpt>
<trkpt lat="33.810065" lon="-118.3938932">
  <ele>-2.02</ele>
  <time>2026-09-01T01:17:35Z</time>
  <course>359.55</course>
  <speed>0.04</speed>
  <fix>3d</fix>
</trkpt>
<trkpt lat="33.8100651" lon="-118.3938933">
  <ele>-2.074</ele>
  <time>2026-09-01T01:17:35Z</time>
  <course>185.05</course>
  <speed>0.0316227766016838</speed>
  <fix>3d</fix>
</trkpt>
<trkpt lat="33.810065" lon="-118.3938932">
  <ele>-2.02</ele>
  <time>2026-09-01T01:17:35Z</time>
  <course>359.31</course>
  <speed>0.04</speed>
  <fix>3d</fix>
</trkpt>
<trkpt lat="33.8100652" lon="-118.3938933">
  <ele>-2.076</ele>
  <time>2026-09-01T01:17:35Z</time>
  <course>185.05</course>
  <speed>0.0316227766016838</speed>
  <fix>3d</fix>
</trkpt>
<trkpt lat="33.810065" lon="-118.3938932">
  <ele>-2.02</ele>
  <time>2026-09-01T01:17:35Z</time>
  <course>359.31</course>
  <speed>0.04</speed>
  <fix>3d</fix>
</trkpt>
<trkpt lat="33.8100652" lon="-118.3938933">
  <ele>-2.078</ele>
  <time>2026-09-01T01:17:35Z</time>
  <course>185.04</course>
  <speed>0.0316227766016838</speed>
  <fix>3d</fix>
</trkpt>
<trkpt lat="33.8100651" lon="-118.3938932">
  <ele>-2.02</ele>
  <time>2026-09-01T01:17:35Z</time>
  <course>359.05</course>
  <speed>0.04</speed>
  <fix>3d</fix>
</trkpt>
<trkpt lat="33.8100652" lon="-118.3938933">
  <ele>-2.079</ele>
  <time>2026-09-01T01:17:35Z</time>
  <course>185.03</course>
  <speed>0.0316227766016838</speed>
  <fix>3d</fix>
</trkpt>
<trkpt lat="33.8100651" lon="-118.3938932">
  <ele>-2.02</ele>
  <time>2026-09-01T01:17:35Z</time>
  <course>359.05</course>
  <speed>0.04</speed>
  <fix>3d</fix>
</trkpt>
<trkpt lat="33.8100652" lon="-118.3938933">
  <ele>-2.08</ele>
  <time>2026-09-01T01:17:35Z</time>
  <course>185.02</course>
  <speed>0.0316227766016838</speed>
  <fix>3d</fix>
</trkpt>
<trkpt lat="33.8100652" lon="-118.3938932">
  <ele>-2.03</ele>
  <time>2026-09-01T01:17:35Z</time>
  <course>358.82</course>
  <speed>0.03</speed>
  <fix>3d</fix>
</trkpt>
<trkpt lat="33.8100653" lon="-118.3938933">
  <ele>-2.08</ele>
  <time>2026-09-01T01:17:35Z</time>
  <course>185.01</course>
  <speed>0.0316227766016838</speed>
  <fix>3d</fix>
</trkpt>
<trkpt lat="33.8100652" lon="-118.3938932">
  <ele>-2.03</ele>
  <time>2026-09-01T01:17:35Z</time>
  <course>358.82</course>
  <speed>0.03</speed>
  <fix>3d</fix>
</trkpt>
<trkpt lat="33.8100653" lon="-118.3938933">
  <ele>-2.078</ele>
  <time>2026-09-01T01:17:35Z</time>
  <course>185.01</course>
  <speed>0.0316227766016838</speed>
  <fix>3d</fix>
</trkpt>
<trkpt lat="33.8100653" lon="-118.3938932">
  <ele>-2.03</ele>
  <time>2026-09-01T01:17:35Z</time>
  <course>358.62</course>
  <speed>0.03</speed>
  <fix>3d</fix>
</trkpt>
<trkpt lat="33.8100653" lon="-118.3938933">
  <ele>-2.077</ele>
  <time>2026-09-01T01:17:35Z</time>
  <course>185.0</course>
  <speed>0.0316227766016838</speed>
  <fix>3d</fix>
</trkpt>
<trkpt lat="33.8100653" lon="-118.3938932">
  <ele>-2.03</ele>
  <time>2026-09-01T01:17:35Z</time>
  <course>358.62</course>
  <speed>0.03</speed>
  <fix>3d</fix>
</trkpt>
<trkpt lat="33.8100654" lon="-118.3938933">
  <ele>-2.076</ele>
  <time>2026-09-01T01:17:35Z</time>
  <course>184.99</course>
  <speed>0.0316227766016838</speed>
  <fix>3d</fix>
</trkpt>
<trkpt lat="33.8100654" lon="-118.3938932">
  <ele>-2.02</ele>
  <time>2026-09-01T01:17:35Z</time>
  <course>358.42</course>
  <speed>0.03</speed>
  <fix>3d</fix>
</trkpt>
<trkpt lat="33.8100654" lon="-118.3938933">
  <ele>-2.073</ele>
  <time>2026-09-01T01:17:35Z</time>
  <course>184.98</course>
  <speed>0.0316227766016838</speed>
  <fix>3d</fix>
</trkpt>
<trkpt lat="33.8100654" lon="-118.3938932">
  <ele>-2.02</ele>
  <time>2026-09-01T01:17:35Z</time>
  <course>358.42</course>
  <speed>0.03</speed>
  <fix>3d</fix>
</trkpt>
<trkpt lat="33.8100654" lon="-118.3938933">
  <ele>-2.069</ele>
  <time>2026-09-01T01:17:35Z</time>
  <course>184.97</course>
  <speed>0.0316227766016838</speed>
  <fix>3d</fix>
</trkpt>
<trkpt lat="33.8100654" lon="-118.3938932">
  <ele>-2.02</ele>
  <time>2026-09-01T01:17:35Z</time>
  <course>358.22</course>
  <speed>0.03</speed>
  <fix>3d</fix>
</trkpt>
<trkpt lat="33.8100655" lon="-118.3938933">
  <ele>-2.064</ele>
  <time>2026-09-01T01:17:35Z</time>
  <course>184.96</course>
  <speed>0.0316227766016838</speed>
  <fix>3d</fix>
</trkpt>
<trkpt lat="33.8100654" lon="-118.3938932">
  <ele>-2.02</ele>
  <time>2026-09-01T01:17:35Z</time>
  <course>358.22</course>
  <speed>0.03</speed>
  <fix>3d</fix>
</trkpt>
<trkpt lat="33.8100655" lon="-118.3938933">
  <ele>-2.06</ele>
  <time>2026-09-01T01:17:35Z</time>
  <course>184.95</course>
  <speed>0.0316227766016838</speed>
  <fix>3d</fix>
</trkpt>
<trkpt lat="33.8100655" lon="-118.3938932">
  <ele>-2.01</ele>
  <time>2026-09-01T01:17:35Z</time>
  <course>358.05</course>
  <speed>0.03</speed>
  <fix>3d</fix>
</trkpt>
<trkpt lat="33.8100655" lon="-118.3938933">
  <ele>-2.055</ele>
  <time>2026-09-01T01:17:35Z</time>
  <course>184.94</course>
  <speed>0.0316227766016838</speed>
  <fix>3d</fix>
</trkpt>
<trkpt lat="33.8100655" lon="-118.3938932">
  <ele>-2.01</ele>
  <time>2026-09-01T01:17:35Z</time>
  <course>358.05</course>
  <speed>0.03</speed>
  <fix>3d</fix>
</trkpt>
<trkpt lat="33.8100656" lon="-118.3938933">
  <ele>-2.05</ele>
  <time>2026-09-01T01:17:35Z</time>
  <course>184.93</course>
  <speed>0.0316227766016838</speed>
  <fix>3d</fix>
</trkpt>
<trkpt lat="33.8100656" lon="-118.3938932">
  <ele>-2.0</ele>
  <time>2026-09-01T01:17:35Z</time>
  <course>357.89</course>
  <speed>0.03</speed>
  <fix>3d</fix>
</trkpt>
<trkpt lat="33.8100656" lon="-118.3938933">
  <ele>-2.045</ele>
  <time>2026-09-01T01:17:35Z</time>
  <course>184.92</course>
  <speed>0.0412310562561766</speed>
  <fix>3d</fix>
</trkpt>
<trkpt lat="33.8100656" lon="-118.3938932">
  <ele>-2.0</ele>
  <time>2026-09-01T01:17:35Z</time>
  <course>357.89</course>
  <speed>0.03</speed>
  <fix>3d</fix>
</trkpt>
<trkpt lat="33.8100656" lon="-118.3938933">
  <ele>-2.04</ele>
  <time>2026-09-01T01:17:35Z</time>
  <course>184.91</course>
  <speed>0.0412310562561766</speed>
  <fix>3d</fix>
</trkpt>
<trkpt lat="33.8100656" lon="-118.3938932">
  <ele>-1.99</ele>
  <time>2026-09-01T01:17:35Z</time>
  <course>357.73</course>
  <speed>0.03</speed>
  <fix>3d</fix>
</trkpt>
<trkpt lat="33.8100657" lon="-118.3938933">
  <ele>-2.034</ele>
  <time>2026-09-01T01:17:35Z</time>
  <course>184.9</course>
  <speed>0.0412310562561766</speed>
  <fix>3d</fix>
</trkpt>
<trkpt lat="33.8100656" lon="-118.3938932">
  <ele>-1.99</ele>
  <time>2026-09-01T01:17:35Z</time>
  <course>357.73</course>
  <speed>0.03</speed>
  <fix>3d</fix>
</trkpt>
<trkpt lat="33.8100657" lon="-118.3938933">
  <ele>-2.027</ele>
  <time>2026-09-01T01:17:35Z</time>
  <course>184.89</course>
  <speed>0.0412310562561766</speed>
  <fix>3d</fix>
</trkpt>
<trkpt lat="33.8100656" lon="-118.3938932">
  <ele>-1.98</ele>
  <time>2026-09-01T01:17:35Z</time>
  <course>357.56</course>
  <speed>0.03</speed>
  <fix>3d</fix>
</trkpt>
<trkpt lat="33.8100657" lon="-118.3938933">
  <ele>-2.02</ele>
  <time>2026-09-01T01:17:35Z</time>
  <course>184.87</course>
  <speed>0.0412310562561766</speed>
  <fix>3d</fix>
</trkpt>
<trkpt lat="33.8100656" lon="-118.3938932">
  <ele>-1.98</ele>
  <time>2026-09-01T01:17:35Z</time>
  <course>357.56</course>
  <speed>0.03</speed>
  <fix>3d</fix>
</trkpt>
<trkpt lat="33.8100658" lon="-118.3938933">
  <ele>-2.011</ele>
  <time>2026-09-01T01:17:35Z</time>
  <course>184.86</course>
  <speed>0.0412310562561766</speed>
  <fix>3d</fix>
</trkpt>
<trkpt lat="33.8100657" lon="-118.3938932">
  <ele>-1.97</ele>
  <time>2026-09-01T01:17:35Z</time>
  <course>357.36</course>
  <speed>0.03</speed>
  <fix>3d</fix>
</trkpt>
<trkpt lat="33.8100658" lon="-118.3938933">
  <ele>-2.002</ele>
  <time>2026-09-01T01:17:35Z</time>
  <course>184.85</course>
  <speed>0.0412310562561766</speed>
  <fix>3d</fix>
</trkpt>
<trkpt lat="33.8100657" lon="-118.3938932">
  <ele>-1.97</ele>
  <time>2026-09-01T01:17:35Z</time>
  <course>357.36</course>
  <speed>0.03</speed>
  <fix>3d</fix>
</trkpt>
<trkpt lat="33.8100658" lon="-118.3938933">
  <ele>-1.993</ele>
  <time>2026-09-01T01:17:35Z</time>
  <course>184.84</course>
  <speed>0.0412310562561766</speed>
  <fix>3d</fix>
</trkpt>
<trkpt lat="33.8100657" lon="-118.3938932">
  <ele>-1.96</ele>
  <time>2026-09-01T01:17:35Z</time>
  <course>357.18</course>
  <speed>0.03</speed>
  <fix>3d</fix>
</trkpt>
<trkpt lat="33.8100658" lon="-118.3938933">
  <ele>-1.983</ele>
  <time>2026-09-01T01:17:35Z</time>
  <course>184.83</course>
  <speed>0.0412310562561766</speed>
  <fix>3d</fix>
</trkpt>
<trkpt lat="33.8100657" lon="-118.3938932">
  <ele>-1.96</ele>
  <time>2026-09-01T01:17:35Z</time>
  <course>357.18</course>
  <speed>0.03</speed>
  <fix>3d</fix>
</trkpt>
<trkpt lat="33.8100659" lon="-118.3938933">
  <ele>-1.973</ele>
  <time>2026-09-01T01:17:35Z</time>
  <course>184.82</course>
  <speed>0.0412310562561766</speed>
  <fix>3d</fix>
</trkpt>
<trkpt lat="33.8100658" lon="-118.3938932">
  <ele>-1.94</ele>
  <time>2026-09-01T01:17:35Z</time>
  <course>357.02</course>
  <speed>0.02</speed>
  <fix>3d</fix>
</trkpt>
<trkpt lat="33.8100659" lon="-118.3938933">
  <ele>-1.964</ele>
  <time>2026-09-01T01:17:35Z</time>
  <course>184.81</course>
  <speed>0.0412310562561766</speed>
  <fix>3d</fix>
</trkpt>
<trkpt lat="33.8100658" lon="-118.3938932">
  <ele>-1.94</ele>
  <time>2026-09-01T01:17:35Z</time>
  <course>357.02</course>
  <speed>0.02</speed>
  <fix>3d</fix>
</trkpt>
<trkpt lat="33.810066" lon="-118.3938933">
  <ele>-1.927</ele>
  <time>2026-09-01T01:17:35Z</time>
  <course>184.77</course>
  <speed>0.0412310562561766</speed>
  <fix>3d</fix>
</trkpt>
<trkpt lat="33.8100659" lon="-118.3938932">
  <ele>-1.91</ele>
  <time>2026-09-01T01:17:35Z</time>
  <course>356.75</course>
  <speed>0.02</speed>
  <fix>3d</fix>
</trkpt>
<trkpt lat="33.8100661" lon="-118.3938933">
  <ele>-1.9</ele>
  <time>2026-09-01T01:17:35Z</time>
  <course>184.74</course>
  <speed>0.0412310562561766</speed>
  <fix>3d</fix>
</trkpt>
<trkpt lat="33.810066" lon="-118.3938932">
  <ele>-1.88</ele>
  <time>2026-09-01T01:17:35Z</time>
  <course>356.4</course>
  <speed>0.02</speed>
  <fix>3d</fix>
</trkpt>
<trkpt lat="33.8100661" lon="-118.3938933">
  <ele>-1.891</ele>
  <time>2026-09-01T01:17:35Z</time>
  <course>184.72</course>
  <speed>0.0412310562561766</speed>
  <fix>3d</fix>
</trkpt>
<trkpt lat="33.810066" lon="-118.3938932">
  <ele>-1.88</ele>
  <time>2026-09-01T01:17:35Z</time>
  <course>356.4</course>
  <speed>0.02</speed>
  <fix>3d</fix>
</trkpt>
<trkpt lat="33.8100661" lon="-118.3938933">
  <ele>-1.882</ele>
  <time>2026-09-01T01:17:35Z</time>
  <course>184.71</course>
  <speed>0.0412310562561766</speed>
  <fix>3d</fix>
</trkpt>
<trkpt lat="33.8100661" lon="-118.3938932">
  <ele>-1.86</ele>
  <time>2026-09-01T01:17:35Z</time>
  <course>356.21</course>
  <speed>0.02</speed>
  <fix>3d</fix>
</trkpt>
<trkpt lat="33.8100662" lon="-118.3938933">
  <ele>-1.873</ele>
  <time>2026-09-01T01:17:35Z</time>
  <course>184.7</course>
  <speed>0.0412310562561766</speed>
  <fix>3d</fix>
</trkpt>
<trkpt lat="33.8100661" lon="-118.3938932">
  <ele>-1.86</ele>
  <time>2026-09-01T01:17:35Z</time>
  <course>356.21</course>
  <speed>0.02</speed>
  <fix>3d</fix>
</trkpt>
<trkpt lat="33.8100662" lon="-118.3938933">
  <ele>-1.864</ele>
  <time>2026-09-01T01:17:35Z</time>
  <course>184.69</course>
  <speed>0.0412310562561766</speed>
  <fix>3d</fix>
</trkpt>
<trkpt lat="33.8100661" lon="-118.3938932">
  <ele>-1.84</ele>
  <time>2026-09-01T01:17:35Z</time>
  <course>356.05</course>
  <speed>0.02</speed>
  <fix>3d</fix>
</trkpt>
<trkpt lat="33.8100662" lon="-118.3938933">
  <ele>-1.854</ele>
  <time>2026-09-01T01:17:35Z</time>
  <course>184.68</course>
  <speed>0.0412310562561766</speed>
  <fix>3d</fix>
</trkpt>
<trkpt lat="33.8100661" lon="-118.3938932">
  <ele>-1.84</ele>
  <time>2026-09-01T01:17:35Z</time>
  <course>356.05</course>
  <speed>0.02</speed>
  <fix>3d</fix>
</trkpt>
<trkpt lat="33.8100663" lon="-118.3938933">
  <ele>-1.844</ele>
  <time>2026-09-01T01:17:35Z</time>
  <course>184.67</course>
  <speed>0.0412310562561766</speed>
  <fix>3d</fix>
</trkpt>
<trkpt lat="33.8100662" lon="-118.3938932">
  <ele>-1.81</ele>
  <time>2026-09-01T01:17:35Z</time>
  <course>355.92</course>
  <speed>0.02</speed>
  <fix>3d</fix>
</trkpt>
<trkpt lat="33.8100663" lon="-118.3938933">
  <ele>-1.835</ele>
  <time>2026-09-01T01:17:35Z</time>
  <course>184.66</course>
  <speed>0.0412310562561766</speed>
  <fix>3d</fix>
</trkpt>
<trkpt lat="33.8100662" lon="-118.3938932">
  <ele>-1.81</ele>
  <time>2026-09-01T01:17:35Z</time>
  <course>355.92</course>
  <speed>0.02</speed>
  <fix>3d</fix>
</trkpt>
<trkpt lat="33.8100663" lon="-118.3938933">
  <ele>-1.826</ele>
  <time>2026-09-01T01:17:35Z</time>
  <course>184.65</course>
  <speed>0.0412310562561766</speed>
  <fix>3d</fix>
</trkpt>
<trkpt lat="33.8100662" lon="-118.3938932">
  <ele>-1.8</ele>
  <time>2026-09-01T01:17:35Z</time>
  <course>355.81</course>
  <speed>0.02</speed>
  <fix>3d</fix>
</trkpt>
<trkpt lat="33.8100663" lon="-118.3938933">
  <ele>-1.816</ele>
  <time>2026-09-01T01:17:35Z</time>
  <course>184.64</course>
  <speed>0.0412310562561766</speed>
  <fix>3d</fix>
</trkpt>
<trkpt lat="33.8100662" lon="-118.3938932">
  <ele>-1.8</ele>
  <time>2026-09-01T01:17:35Z</time>
  <course>355.81</course>
  <speed>0.02</speed>
  <fix>3d</fix>
</trkpt>
<trkpt lat="33.8100664" lon="-118.3938933">
  <ele>-1.807</ele>
  <time>2026-09-01T01:17:35Z</time>
  <course>184.63</course>
  <speed>0.0412310562561766</speed>
  <fix>3d</fix>
</trkpt>
<trkpt lat="33.8100662" lon="-118.3938932">
  <ele>-1.78</ele>
  <time>2026-09-01T01:17:35Z</time>
  <course>355.68</course>
  <speed>0.02</speed>
  <fix>3d</fix>
</trkpt>
<trkpt lat="33.8100664" lon="-118.3938933">
  <ele>-1.799</ele>
  <time>2026-09-01T01:17:35Z</time>
  <course>184.62</course>
  <speed>0.0412310562561766</speed>
  <fix>3d</fix>
</trkpt>
<trkpt lat="33.8100662" lon="-118.3938932">
  <ele>-1.78</ele>
  <time>2026-09-01T01:17:35Z</time>
  <course>355.68</course>
  <speed>0.02</speed>
  <fix>3d</fix>
</trkpt>
<trkpt lat="33.8100664" lon="-118.3938933">
  <ele>-1.791</ele>
  <time>2026-09-01T01:17:35Z</time>
  <course>184.61</course>
  <speed>0.0412310562561766</speed>
  <fix>3d</fix>
</trkpt>
<trkpt lat="33.8100663" lon="-118.3938932">
  <ele>-1.77</ele>
  <time>2026-09-01T01:17:35Z</time>
  <course>355.51</course>
  <speed>0.02</speed>
  <fix>3d</fix>
</trkpt>
<trkpt lat="33.8100664" lon="-118.3938933">
  <ele>-1.782</ele>
  <time>2026-09-01T01:17:35Z</time>
  <course>184.6</course>
  <speed>0.0412310562561766</speed>
  <fix>3d</fix>
</trkpt>
<trkpt lat="33.8100663" lon="-118.3938932">
  <ele>-1.77</ele>
  <time>2026-09-01T01:17:35Z</time>
  <course>355.51</course>
  <speed>0.02</speed>
  <fix>3d</fix>
</trkpt>
<trkpt lat="33.8100664" lon="-118.3938933">
  <ele>-1.774</ele>
  <time>2026-09-01T01:17:35Z</time>
  <course>184.59</course>
  <speed>0.0412310562561766</speed>
  <fix>3d</fix>
</trkpt>
<trkpt lat="33.8100663" lon="-118.3938932">
  <ele>-1.75</ele>
  <time>2026-09-01T01:17:35Z</time>
  <course>355.33</course>
  <speed>0.02</speed>
  <fix>3d</fix>
</trkpt>
<trkpt lat="33.8100665" lon="-118.3938933">
  <ele>-1.766</ele>
  <time>2026-09-01T01:17:35Z</time>
  <course>184.58</course>
  <speed>0.0412310562561766</speed>
  <fix>3d</fix>
</trkpt>
<trkpt lat="33.8100663" lon="-118.3938932">
  <ele>-1.75</ele>
  <time>2026-09-01T01:17:35Z</time>
  <course>355.33</course>
  <speed>0.02</speed>
  <fix>3d</fix>
</trkpt>
<trkpt lat="33.8100665" lon="-118.3938933">
  <ele>-1.758</ele>
  <time>2026-09-01T01:17:35Z</time>
  <course>184.57</course>
  <speed>0.0412310562561766</speed>
  <fix>3d</fix>
</trkpt>
<trkpt lat="33.8100663" lon="-118.3938933">
  <ele>-1.73</ele>
  <time>2026-09-01T01:17:35Z</time>
  <course>355.15</course>
  <speed>0.02</speed>
  <fix>3d</fix>
</trkpt>
<trkpt lat="33.8100665" lon="-118.3938933">
  <ele>-1.749</ele>
  <time>2026-09-01T01:17:35Z</time>
  <course>184.56</course>
  <speed>0.0412310562561766</speed>
  <fix>3d</fix>
</trkpt>
<trkpt lat="33.8100663" lon="-118.3938933">
  <ele>-1.73</ele>
  <time>2026-09-01T01:17:35Z</time>
  <course>355.15</course>
  <speed>0.02</speed>
  <fix>3d</fix>
</trkpt>
<trkpt lat="33.8100665" lon="-118.3938933">
  <ele>-1.739</ele>
  <time>2026-09-01T01:17:35Z</time>
  <course>184.56</course>
  <speed>0.0412310562561766</speed>
  <fix>3d</fix>
</trkpt>
<trkpt lat="33.8100664" lon="-118.3938934">
  <ele>-1.71</ele>
  <time>2026-09-01T01:17:35Z</time>
  <course>355.02</course>
  <speed>0.02</speed>
  <fix>3d</fix>
</trkpt>
<trkpt lat="33.8100665" lon="-118.3938933">
  <ele>-1.73</ele>
  <time>2026-09-01T01:17:35Z</time>
  <course>184.55</course>
  <speed>0.0412310562561766</speed>
  <fix>3d</fix>
</trkpt>
<trkpt lat="33.8100664" lon="-118.3938934">
  <ele>-1.71</ele>
  <time>2026-09-01T01:17:35Z</time>
  <course>355.02</course>
  <speed>0.02</speed>
  <fix>3d</fix>
</trkpt>
<trkpt lat="33.8100666" lon="-118.3938933">
  <ele>-1.72</ele>
  <time>2026-09-01T01:17:35Z</time>
  <course>184.54</course>
  <speed>0.0412310562561766</speed>
  <fix>3d</fix>
</trkpt>
<trkpt lat="33.8100665" lon="-118.3938934">
  <ele>-1.69</ele>
  <time>2026-09-01T01:17:35Z</time>
  <course>354.91</course>
  <speed>0.02</speed>
  <fix>3d</fix>
</trkpt>
<trkpt lat="33.8100666" lon="-118.3938933">
  <ele>-1.708</ele>
  <time>2026-09-01T01:17:35Z</time>
  <course>184.53</course>
  <speed>0.0412310562561766</speed>
  <fix>3d</fix>
</trkpt>
<trkpt lat="33.8100665" lon="-118.3938934">
  <ele>-1.69</ele>
  <time>2026-09-01T01:17:35Z</time>
  <course>354.91</course>
  <speed>0.02</speed>
  <fix>3d</fix>
</trkpt>
<trkpt lat="33.8100666" lon="-118.3938934">
  <ele>-1.697</ele>
  <time>2026-09-01T01:17:35Z</time>
  <course>184.52</course>
  <speed>0.0412310562561766</speed>
  <fix>3d</fix>
</trkpt>
<trkpt lat="33.8100665" lon="-118.3938934">
  <ele>-1.67</ele>
  <time>2026-09-01T01:17:35Z</time>
  <course>354.81</course>
  <speed>0.02</speed>
  <fix>3d</fix>
</trkpt>
<trkpt lat="33.8100666" lon="-118.3938934">
  <ele>-1.686</ele>
  <time>2026-09-01T01:17:35Z</time>
  <course>184.51</course>
  <speed>0.0412310562561766</speed>
  <fix>3d</fix>
</trkpt>
<trkpt lat="33.8100665" lon="-118.3938934">
  <ele>-1.67</ele>
  <time>2026-09-01T01:17:35Z</time>
  <course>354.81</course>
  <speed>0.02</speed>
  <fix>3d</fix>
</trkpt>
<trkpt lat="33.8100667" lon="-118.3938934">
  <ele>-1.677</ele>
  <time>2026-09-01T01:17:35Z</time>
  <course>184.5</course>
  <speed>0.0412310562561766</speed>
  <fix>3d</fix>
</trkpt>
<trkpt lat="33.8100666" lon="-118.3938934">
  <ele>-1.65</ele>
  <time>2026-09-01T01:17:35Z</time>
  <course>354.68</course>
  <speed>0.02</speed>
  <fix>3d</fix>
</trkpt>
<trkpt lat="33.8100667" lon="-118.3938934">
  <ele>-1.668</ele>
  <time>2026-09-01T01:17:35Z</time>
  <course>184.49</course>
  <speed>0.0412310562561766</speed>
  <fix>3d</fix>
</trkpt>
<trkpt lat="33.8100666" lon="-118.3938934">
  <ele>-1.65</ele>
  <time>2026-09-01T01:17:35Z</time>
  <course>354.68</course>
  <speed>0.02</speed>
  <fix>3d</fix>
</trkpt>
<trkpt lat="33.8100667" lon="-118.3938934">
  <ele>-1.659</ele>
  <time>2026-09-01T01:17:35Z</time>
  <course>184.48</course>
  <speed>0.0412310562561766</speed>
  <fix>3d</fix>
</trkpt>
<trkpt lat="33.8100666" lon="-118.3938934">
  <ele>-1.63</ele>
  <time>2026-09-01T01:17:35Z</time>
  <course>354.51</course>
  <speed>0.02</speed>
  <fix>3d</fix>
</trkpt>
<trkpt lat="33.4368002" lon="-117.0859339">
  <ele>-0.11</ele>
  <time>2026-09-01T01:17:36Z</time>
  <course>0.0</course>
  <speed>0.0</speed>
  <fix>3d</fix>
</trkpt>
<trkpt lat="33.4368002" lon="-117.0859339">
  <ele>-0.11</ele>
  <time>2026-09-01T01:17:36Z</time>
  <course>0.0</course>
  <speed>0.0</speed>
  <fix>3d</fix>
</trkpt>
<trkpt lat="33.810313" lon="-118.393867">
  <ele>0.0</ele>
  <time>2026-09-01T01:17:36Z</time>
  <course>173.5</course>
  <speed>0.0</speed>
  <fix>3d</fix>
</trkpt>
<trkpt lat="33.810313" lon="-118.393867">
  <ele>-0.11</ele>
  <time>2026-09-01T01:17:36Z</time>
  <course>0.0</course>
  <speed>0.0</speed>
  <fix>3d</fix>
</trkpt>
<trkpt lat="33.810313" lon="-118.393867">
  <ele>0.0</ele>
  <time>2026-09-01T01:17:36Z</time>
  <course>173.61</course>
  <speed>0.0</speed>
  <fix>3d</fix>
</trkpt>
<trkpt lat="33.810313" lon="-118.393867">
  <ele>-0.11</ele>
  <time>2026-09-01T01:17:36Z</time>
  <course>0.0</course>
  <speed>0.0</speed>
  <fix>3d</fix>
</trkpt>
<trkpt lat="33.810313" lon="-118.393867">
  <ele>0.0</ele>
  <time>2026-09-01T01:17:36Z</time>
  <course>173.99</course>
  <speed>0.0</speed>
  <fix>3d</fix>
</trkpt>
<trkpt lat="33.810313" lon="-118.393867">
  <ele>-0.11</ele>
  <time>2026-09-01T01:17:36Z</time>
  <course>0.0</course>
  <speed>0.0</speed>
  <fix>3d</fix>
</trkpt>
<trkpt lat="33.810313" lon="-118.393867">
  <ele>0.0</ele>
  <time>2026-09-01T01:17:36Z</time>
  <course>174.51</course>
  <speed>0.0</speed>
  <fix>3d</fix>
</trkpt>
<trkpt lat="33.810313" lon="-118.393867">
  <ele>-0.11</ele>
  <time>2026-09-01T01:17:36Z</time>
  <course>0.0</course>
  <speed>0.0</speed>
  <fix>3d</fix>
</trkpt>
<trkpt lat="33.810313" lon="-118.393867">
  <ele>0.0</ele>
  <time>2026-09-01T01:17:36Z</time>
  <course>175.07</course>
  <speed>0.0</speed>
  <fix>3d</fix>
</trkpt>
<trkpt lat="33.810313" lon="-118.393867">
  <ele>-0.12</ele>
  <time>2026-09-01T01:17:36Z</time>
  <course>0.0</course>
  <speed>0.0</speed>
  <fix>3d</fix>
</trkpt>
<trkpt lat="33.810313" lon="-118.393867">
  <ele>0.0</ele>
  <time>2026-09-01T01:17:36Z</time>
  <course>175.61</course>
  <speed>0.0</speed>
  <fix>3d</fix>
</trkpt>
<trkpt lat="33.810313" lon="-118.393867">
  <ele>-0.12</ele>
  <time>2026-09-01T01:17:36Z</time>
  <course>0.0</course>
  <speed>0.0</speed>
  <fix>3d</fix>
</trkpt>
<trkpt lat="33.810313" lon="-118.393867">
  <ele>0.0</ele>
  <time>2026-09-01T01:17:36Z</time>
  <course>176.12</course>
  <speed>0.0</speed>
  <fix>3d</fix>
</trkpt>
<trkpt lat="33.810313" lon="-118.393867">
  <ele>-0.13</ele>
  <time>2026-09-01T01:17:36Z</time>
  <course>0.0</course>
  <speed>0.0</speed>
  <fix>3d</fix>
</trkpt>
<trkpt lat="33.810313" lon="-118.393867">
  <ele>0.0</ele>
  <time>2026-09-01T01:17:36Z</time>
  <course>176.6</course>
  <speed>0.0</speed>
  <fix>3d</fix>
</trkpt>
<trkpt lat="33.810313" lon="-118.393867">
  <ele>-0.13</ele>
  <time>2026-09-01T01:17:36Z</time>
  <course>0.0</course>
  <speed>0.0</speed>
  <fix>3d</fix>
</trkpt>
<trkpt lat="33.810313" lon="-118.393867">
  <ele>0.0</ele>
  <time>2026-09-01T01:17:36Z</time>
  <course>177.07</course>
  <speed>0.0</speed>
  <fix>3d</fix>
</trkpt>
<trkpt lat="33.810313" lon="-118.393867">
  <ele>-0.13</ele>
  <time>2026-09-01T01:17:36Z</time>
  <course>0.0</course>
  <speed>0.0</speed>
  <fix>3d</fix>
</trkpt>
<trkpt lat="33.810313" lon="-118.393867">
  <ele>0.0</ele>
  <time>2026-09-01T01:17:36Z</time>
  <course>177.53</course>
  <speed>0.0</speed>
  <fix>3d</fix>
</trkpt>
<trkpt lat="33.810313" lon="-118.393867">
  <ele>-0.13</ele>
  <time>2026-09-01T01:17:36Z</time>
  <course>0.0</course>
  <speed>0.0</speed>
  <fix>3d</fix>
</trkpt>
<trkpt lat="33.810313" lon="-118.393867">
  <ele>0.0</ele>
  <time>2026-09-01T01:17:36Z</time>
  <course>177.97</course>
  <speed>0.0</speed>
  <fix>3d</fix>
</trkpt>
<trkpt lat="33.810313" lon="-118.393867">
  <ele>-0.14</ele>
  <time>2026-09-01T01:17:36Z</time>
  <course>0.0</course>
  <speed>0.0</speed>
  <fix>3d</fix>
</trkpt>
<trkpt lat="33.810313" lon="-118.393867">
  <ele>0.0</ele>
  <time>2026-09-01T01:17:36Z</time>
  <course>178.4</course>
  <speed>0.0</speed>
  <fix>3d</fix>
</trkpt>
<trkpt lat="33.810313" lon="-118.393867">
  <ele>-0.14</ele>
  <time>2026-09-01T01:17:36Z</time>
  <course>0.0</course>
  <speed>0.0</speed>
  <fix>3d</fix>
</trkpt>
<trkpt lat="33.810313" lon="-118.393867">
  <ele>0.0</ele>
  <time>2026-09-01T01:17:36Z</time>
  <course>178.82</course>
  <speed>0.0</speed>
  <fix>3d</fix>
</trkpt>
<trkpt lat="33.810313" lon="-118.393867">
  <ele>-0.14</ele>
  <time>2026-09-01T01:17:36Z</time>
  <course>0.0</course>
  <speed>0.0</speed>
  <fix>3d</fix>
</trkpt>
<trkpt lat="33.810313" lon="-118.393867">
  <ele>0.0</ele>
  <time>2026-09-01T01:17:36Z</time>
  <course>179.23</course>
  <speed>0.0</speed>
  <fix>3d</fix>
</trkpt>
<trkpt lat="33.810313" lon="-118.393867">
  <ele>-0.14</ele>
  <time>2026-09-01T01:17:36Z</time>
  <course>0.0</course>
  <speed>0.0</speed>
  <fix>3d</fix>
</trkpt>
<trkpt lat="33.810313" lon="-118.393867">
  <ele>0.0</ele>
  <time>2026-09-01T01:17:36Z</time>
  <course>179.62</course>
  <speed>0.0</speed>
  <fix>3d</fix>
</trkpt>
<trkpt lat="33.810313" lon="-118.393867">
  <ele>-0.14</ele>
  <time>2026-09-01T01:17:36Z</time>
  <course>0.0</course>
  <speed>0.0</speed>
  <fix>3d</fix>
</trkpt>
<trkpt lat="33.810313" lon="-118.393867">
  <ele>0.0</ele>
  <time>2026-09-01T01:17:36Z</time>
  <course>180.01</course>
  <speed>0.0</speed>
  <fix>3d</fix>
</trkpt>
<trkpt lat="33.810313" lon="-118.393867">
  <ele>-0.14</ele>
  <time>2026-09-01T01:17:36Z</time>
  <course>0.0</course>
  <speed>0.0</speed>
  <fix>3d</fix>
</trkpt>
<trkpt lat="33.810313" lon="-118.393867">
  <ele>0.0</ele>
  <time>2026-09-01T01:17:36Z</time>
  <course>180.37</course>
  <speed>0.0</speed>
  <fix>3d</fix>
</trkpt>
<trkpt lat="33.810313" lon="-118.393867">
  <ele>-0.14</ele>
  <time>2026-09-01T01:17:36Z</time>
  <course>0.0</course>
  <speed>0.0</speed>
  <fix>3d</fix>
</trkpt>
<trkpt lat="33.810313" lon="-118.393867">
  <ele>0.0</ele>
  <time>2026-09-01T01:17:36Z</time>
  <course>180.73</course>
  <speed>0.0</speed>
  <fix>3d</fix>
</trkpt>
<trkpt lat="33.810313" lon="-118.393867">
  <ele>-0.14</ele>
  <time>2026-09-01T01:17:36Z</time>
  <course>0.0</course>
  <speed>0.0</speed>
  <fix>3d</fix>
</trkpt>
<trkpt lat="33.810313" lon="-118.393867">
  <ele>0.0</ele>
  <time>2026-09-01T01:17:36Z</time>
  <course>181.07</course>
  <speed>0.0</speed>
  <fix>3d</fix>
</trkpt>
<trkpt lat="33.810313" lon="-118.393867">
  <ele>-0.13</ele>
  <time>2026-09-01T01:17:36Z</time>
  <course>0.0</course>
  <speed>0.0</speed>
  <fix>3d</fix>
</trkpt>
<trkpt lat="33.810313" lon="-118.393867">
  <ele>0.0</ele>
  <time>2026-09-01T01:17:36Z</time>
  <course>181.4</course>
  <speed>0.0</speed>
  <fix>3d</fix>
</trkpt>
<trkpt lat="33.810313" lon="-118.393867">
  <ele>-0.13</ele>
  <time>2026-09-01T01:17:36Z</time>
  <course>0.0</course>
  <speed>0.0</speed>
  <fix>3d</fix>
</trkpt>
<trkpt lat="33.810313" lon="-118.393867">
  <ele>0.0</ele>
  <time>2026-09-01T01:17:36Z</time>
  <course>181.72</course>
  <speed>0.0</speed>
  <fix>3d</fix>
</trkpt>
<trkpt lat="33.810313" lon="-118.393867">
  <ele>-0.12</ele>
  <time>2026-09-01T01:17:36Z</time>
  <course>0.0</course>
  <speed>0.0</speed>
  <fix>3d</fix>
</trkpt>
<trkpt lat="33.810313" lon="-118.393867">
  <ele>0.0</ele>
  <time>2026-09-01T01:17:36Z</time>
  <course>182.02</course>
  <speed>0.0</speed>
  <fix>3d</fix>
</trkpt>
<trkpt lat="33.810313" lon="-118.393867">
  <ele>-0.12</ele>
  <time>2026-09-01T01:17:36Z</time>
  <course>0.0</course>
  <speed>0.0</speed>
  <fix>3d</fix>
</trkpt>
<trkpt lat="33.810313" lon="-118.393867">
  <ele>0.0</ele>
  <time>2026-09-01T01:17:36Z</time>
  <course>182.32</course>
  <speed>0.0</speed>
  <fix>3d</fix>
</trkpt>
<trkpt lat="33.810313" lon="-118.393867">
  <ele>-0.12</ele>
  <time>2026-09-01T01:17:36Z</time>
  <course>0.0</course>
  <speed>0.0</speed>
  <fix>3d</fix>
</trkpt>
<trkpt lat="33.810313" lon="-118.393867">
  <ele>0.0</ele>
  <time>2026-09-01T01:17:36Z</time>
  <course>182.6</course>
  <speed>0.0</speed>
  <fix>3d</fix>
</trkpt>
<trkpt lat="33.810313" lon="-118.393867">
  <ele>-0.12</ele>
  <time>2026-09-01T01:17:36Z</time>
  <course>0.0</course>
  <speed>0.0</speed>
  <fix>3d</fix>
</trkpt>
<trkpt lat="33.810313" lon="-118.393867">
  <ele>0.0</ele>
  <time>2026-09-01T01:17:36Z</time>
  <course>182.87</course>
  <speed>0.0</speed>
  <fix>3d</fix>
</trkpt>
<trkpt lat="33.810313" lon="-118.393867">
  <ele>-0.11</ele>
  <time>2026-09-01T01:17:36Z</time>
  <course>0.0</course>
  <speed>0.0</speed>
  <fix>3d</fix>
</trkpt>
<trkpt lat="33.810313" lon="-118.393867">
  <ele>0.0</ele>
  <time>2026-09-01T01:17:36Z</time>
  <course>183.13</course>
  <speed>0.0</speed>
  <fix>3d</fix>
</trkpt>
<trkpt lat="33.810313" lon="-118.393867">
  <ele>-0.11</ele>
  <time>2026-09-01T01:17:36Z</time>
  <course>0.0</course>
  <speed>0.0</speed>
  <fix>3d</fix>
</trkpt>
<trkpt lat="33.810313" lon="-118.393867">
  <ele>0.0</ele>
  <time>2026-09-01T01:17:36Z</time>
  <course>183.39</course>
  <speed>0.0</speed>
  <fix>3d</fix>
</trkpt>
<trkpt lat="33.810313" lon="-118.393867">
  <ele>-0.11</ele>
  <time>2026-09-01T01:17:36Z</time>
  <course>0.0</course>
  <speed>0.0</speed>
  <fix>3d</fix>
</trkpt>
<trkpt lat="33.810313" lon="-118.393867">
  <ele>0.0</ele>
  <time>2026-09-01T01:17:36Z</time>
  <course>183.63</course>
  <speed>0.0</speed>
  <fix>3d</fix>
</trkpt>
<trkpt lat="33.810313" lon="-118.393867">
  <ele>-0.11</ele>
  <time>2026-09-01T01:17:36Z</time>
  <course>0.0</course>
  <speed>0.0</speed>
  <fix>3d</fix>
</trkpt>
<trkpt lat="33.810313" lon="-118.393867">
  <ele>0.0</ele>
  <time>2026-09-01T01:17:36Z</time>
  <course>183.86</course>
  <speed>0.0</speed>
  <fix>3d</fix>
</trkpt>
<trkpt lat="33.810313" lon="-118.393867">
  <ele>-0.12</ele>
  <time>2026-09-01T01:17:36Z</time>
  <course>0.0</course>
  <speed>0.0</speed>
  <fix>3d</fix>
</trkpt>
<trkpt lat="33.810313" lon="-118.393867">
  <ele>0.0</ele>
  <time>2026-09-01T01:17:36Z</time>
  <course>184.08</course>
  <speed>0.0</speed>
  <fix>3d</fix>
</trkpt>
<trkpt lat="33.810313" lon="-118.393867">
  <ele>-0.12</ele>
  <time>2026-09-01T01:17:36Z</time>
  <course>0.0</course>
  <speed>0.0</speed>
  <fix>3d</fix>
</trkpt>
<trkpt lat="33.810313" lon="-118.393867">
  <ele>0.0</ele>
  <time>2026-09-01T01:17:36Z</time>
  <course>184.3</course>
  <speed>0.0</speed>
  <fix>3d</fix>
</trkpt>
<trkpt lat="33.810313" lon="-118.393867">
  <ele>-0.13</ele>
  <time>2026-09-01T01:17:36Z</time>
  <course>0.0</course>
  <speed>0.0</speed>
  <fix>3d</fix>
</trkpt>
<trkpt lat="33.810313" lon="-118.393867">
  <ele>0.0</ele>
  <time>2026-09-01T01:17:36Z</time>
  <course>184.5</course>
  <speed>0.0</speed>
  <fix>3d</fix>
</trkpt>
<trkpt lat="33.810313" lon="-118.393867">
  <ele>-0.13</ele>
  <time>2026-09-01T01:17:36Z</time>
  <course>0.0</course>
  <speed>0.0</speed>
  <fix>3d</fix>
</trkpt>
<trkpt lat="33.810313" lon="-118.393867">
  <ele>0.0</ele>
  <time>2026-09-01T01:17:36Z</time>
  <course>184.7</course>
  <speed>0.0</speed>
  <fix>3d</fix>
</trkpt>
<trkpt lat="33.810313" lon="-118.393867">
  <ele>-0.13</ele>
  <time>2026-09-01T01:17:36Z</time>
  <course>0.0</course>
  <speed>0.0</speed>
  <fix>3d</fix>
</trkpt>
<trkpt lat="33.810313" lon="-118.393867">
  <ele>0.0</ele>
  <time>2026-09-01T01:17:36Z</time>
  <course>184.89</course>
  <speed>0.0</speed>
  <fix>3d</fix>
</trkpt>
<trkpt lat="33.810313" lon="-118.393867">
  <ele>-0.13</ele>
  <time>2026-09-01T01:17:36Z</time>
  <course>0.0</course>
  <speed>0.0</speed>
  <fix>3d</fix>
</trkpt>
<trkpt lat="33.810313" lon="-118.393867">
  <ele>0.0</ele>
  <time>2026-09-01T01:17:36Z</time>
  <course>185.07</course>
  <speed>0.0</speed>
  <fix>3d</fix>
</trkpt>
<trkpt lat="33.810313" lon="-118.393867">
  <ele>-0.14</ele>
  <time>2026-09-01T01:17:36Z</time>
  <course>0.0</course>
  <speed>0.0</speed>
  <fix>3d</fix>
</trkpt>
<trkpt lat="33.810313" lon="-118.393867">
  <ele>0.0</ele>
  <time>2026-09-01T01:17:36Z</time>
  <course>185.24</course>
  <speed>0.0</speed>
  <fix>3d</fix>
</trkpt>
<trkpt lat="33.810313" lon="-118.393867">
  <ele>-0.14</ele>
  <time>2026-09-01T01:17:36Z</time>
  <course>0.0</course>
  <speed>0.0</speed>
  <fix>3d</fix>
</trkpt>
<trkpt lat="33.810313" lon="-118.393867">
  <ele>0.0</ele>
  <time>2026-09-01T01:17:36Z</time>
  <course>185.41</course>
  <speed>0.0</speed>
  <fix>3d</fix>
</trkpt>
<trkpt lat="33.810313" lon="-118.393867">
  <ele>-0.13</ele>
  <time>2026-09-01T01:17:36Z</time>
  <course>0.0</course>
  <speed>0.0</speed>
  <fix>3d</fix>
</trkpt>
<trkpt lat="33.810313" lon="-118.393867">
  <ele>0.0</ele>
  <time>2026-09-01T01:17:36Z</time>
  <course>185.56</course>
  <speed>0.0</speed>
  <fix>3d</fix>
</trkpt>
<trkpt lat="33.810313" lon="-118.393867">
  <ele>-0.13</ele>
  <time>2026-09-01T01:17:36Z</time>
  <course>0.0</course>
  <speed>0.0</speed>
  <fix>3d</fix>
</trkpt>
<trkpt lat="33.810313" lon="-118.393867">
  <ele>0.0</ele>
  <time>2026-09-01T01:17:36Z</time>
  <course>185.72</course>
  <speed>0.0</speed>
  <fix>3d</fix>
</trkpt>
<trkpt lat="33.810313" lon="-118.393867">
  <ele>-0.13</ele>
  <time>2026-09-01T01:17:36Z</time>
  <course>0.0</course>
  <speed>0.0</speed>
  <fix>3d</fix>
</trkpt>
<trkpt lat="33.810313" lon="-118.393867">
  <ele>0.0</ele>
  <time>2026-09-01T01:17:36Z</time>
  <course>185.86</course>
  <speed>0.0</speed>
  <fix>3d</fix>
</trkpt>
<trkpt lat="33.810313" lon="-118.393867">
  <ele>-0.13</ele>
  <time>2026-09-01T01:17:36Z</time>
  <course>0.0</course>
  <speed>0.0</speed>
  <fix>3d</fix>
</trkpt>
<trkpt lat="33.810313" lon="-118.393867">
  <ele>0.0</ele>
  <time>2026-09-01T01:17:36Z</time>
  <course>186.0</course>
  <speed>0.0</speed>
  <fix>3d</fix>
</trkpt>
<trkpt lat="33.810313" lon="-118.393867">
  <ele>-0.12</ele>
  <time>2026-09-01T01:17:36Z</time>
  <course>0.0</course>
  <speed>0.0</speed>
  <fix>3d</fix>
</trkpt>
<trkpt lat="33.810313" lon="-118.393867">
  <ele>0.0</ele>
  <time>2026-09-01T01:17:36Z</time>
  <course>186.13</course>
  <speed>0.0</speed>
  <fix>3d</fix>
</trkpt>
<trkpt lat="33.810313" lon="-118.393867">
  <ele>-0.12</ele>
  <time>2026-09-01T01:17:36Z</time>
  <course>0.0</course>
  <speed>0.0</speed>
  <fix>3d</fix>
</trkpt>
<trkpt lat="33.810313" lon="-118.393867">
  <ele>0.0</ele>
  <time>2026-09-01T01:17:36Z</time>
  <course>186.26</course>
  <speed>0.0</speed>
  <fix>3d</fix>
</trkpt>
<trkpt lat="33.810313" lon="-118.393867">
  <ele>-0.12</ele>
  <time>2026-09-01T01:17:36Z</time>
  <course>0.0</course>
  <speed>0.0</speed>
  <fix>3d</fix>
</trkpt>
<trkpt lat="33.810313" lon="-118.393867">
  <ele>0.0</ele>
  <time>2026-09-01T01:17:36Z</time>
  <course>186.38</course>
  <speed>0.0</speed>
  <fix>3d</fix>
</trkpt>
<trkpt lat="33.810313" lon="-118.393867">
  <ele>-0.12</ele>
  <time>2026-09-01T01:17:36Z</time>
  <course>0.0</course>
  <speed>0.0</speed>
  <fix>3d</fix>
</trkpt>
<trkpt lat="33.810313" lon="-118.393867">
  <ele>0.0</ele>
  <time>2026-09-01T01:17:36Z</time>
  <course>186.49</course>
  <speed>0.0</speed>
  <fix>3d</fix>
</trkpt>
<trkpt lat="33.810313" lon="-118.393867">
  <ele>-0.12</ele>
  <time>2026-09-01T01:17:36Z</time>
  <course>0.0</course>
  <speed>0.0</speed>
  <fix>3d</fix>
</trkpt>
<trkpt lat="33.810313" lon="-118.393867">
  <ele>0.0</ele>
  <time>2026-09-01T01:17:36Z</time>
  <course>186.6</course>
  <speed>0.0</speed>
  <fix>3d</fix>
</trkpt>
<trkpt lat="33.810313" lon="-118.393867">
  <ele>-0.12</ele>
  <time>2026-09-01T01:17:36Z</time>
  <course>0.0</course>
  <speed>0.0</speed>
  <fix>3d</fix>
</trkpt>
<trkpt lat="33.810313" lon="-118.393867">
  <ele>0.0</ele>
  <time>2026-09-01T01:17:36Z</time>
  <course>186.71</course>
  <speed>0.0</speed>
  <fix>3d</fix>
</trkpt>
<trkpt lat="33.810313" lon="-118.393867">
  <ele>-0.12</ele>
  <time>2026-09-01T01:17:36Z</time>
  <course>0.0</course>
  <speed>0.0</speed>
  <fix>3d</fix>
</trkpt>
<trkpt lat="33.810313" lon="-118.393867">
  <ele>0.0</ele>
  <time>2026-09-01T01:17:36Z</time>
  <course>186.81</course>
  <speed>0.0</speed>
  <fix>3d</fix>
</trkpt>
<trkpt lat="33.810313" lon="-118.393867">
  <ele>-0.12</ele>
  <time>2026-09-01T01:17:36Z</time>
  <course>0.0</course>
  <speed>0.0</speed>
  <fix>3d</fix>
</trkpt>
<trkpt lat="33.810313" lon="-118.393867">
  <ele>0.0</ele>
  <time>2026-09-01T01:17:36Z</time>
  <course>186.9</course>
  <speed>0.0</speed>
  <fix>3d</fix>
</trkpt>
<trkpt lat="33.810313" lon="-118.393867">
  <ele>-0.12</ele>
  <time>2026-09-01T01:17:36Z</time>
  <course>0.0</course>
  <speed>0.0</speed>
  <fix>3d</fix>
</trkpt>
<trkpt lat="33.810313" lon="-118.393867">
  <ele>0.0</ele>
  <time>2026-09-01T01:17:36Z</time>
  <course>187.0</course>
  <speed>0.0</speed>
  <fix>3d</fix>
</trkpt>
<trkpt lat="33.810313" lon="-118.393867">
  <ele>-0.12</ele>
  <time>2026-09-01T01:17:36Z</time>
  <course>0.0</course>
  <speed>0.0</speed>
  <fix>3d</fix>
</trkpt>
<trkpt lat="33.810313" lon="-118.393867">
  <ele>0.0</ele>
  <time>2026-09-01T01:17:36Z</time>
  <course>187.08</course>
  <speed>0.0</speed>
  <fix>3d</fix>
</trkpt>
<trkpt lat="33.810313" lon="-118.393867">
  <ele>-0.13</ele>
  <time>2026-09-01T01:17:36Z</time>
  <course>0.0</course>
  <speed>0.0</speed>
  <fix>3d</fix>
</trkpt>
<trkpt lat="33.810313" lon="-118.393867">
  <ele>0.0</ele>
  <time>2026-09-01T01:17:36Z</time>
  <course>187.17</course>
  <speed>0.0</speed>
  <fix>3d</fix>
</trkpt>
<trkpt lat="33.810313" lon="-118.393867">
  <ele>-0.13</ele>
  <time>2026-09-01T01:17:36Z</time>
  <course>0.0</course>
  <speed>0.0</speed>
  <fix>3d</fix>
</trkpt>
<trkpt lat="33.810313" lon="-118.393867">
  <ele>0.0</ele>
  <time>2026-09-01T01:17:36Z</time>
  <course>187.25</course>
  <speed>0.0</speed>
  <fix>3d</fix>
</trkpt>
<trkpt lat="33.810313" lon="-118.393867">
  <ele>-0.13</ele>
  <time>2026-09-01T01:17:36Z</time>
  <course>0.0</course>
  <speed>0.0</speed>
  <fix>3d</fix>
</trkpt>
<trkpt lat="33.810313" lon="-118.393867">
  <ele>0.0</ele>
  <time>2026-09-01T01:17:36Z</time>
  <course>187.32</course>
  <speed>0.0</speed>
  <fix>3d</fix>
</trkpt>
<trkpt lat="33.810313" lon="-118.393867">
  <ele>-0.13</ele>
  <time>2026-09-01T01:17:36Z</time>
  <course>0.0</course>
  <speed>0.0</speed>
  <fix>3d</fix>
</trkpt>
<trkpt lat="33.810313" lon="-118.393867">
  <ele>0.0</ele>
  <time>2026-09-01T01:17:36Z</time>
  <course>187.39</course>
  <speed>0.0</speed>
  <fix>3d</fix>
</trkpt>
<trkpt lat="33.810313" lon="-118.393867">
  <ele>-0.13</ele>
  <time>2026-09-01T01:17:36Z</time>
  <course>0.0</course>
  <speed>0.0</speed>
  <fix>3d</fix>
</trkpt>
<trkpt lat="33.810313" lon="-118.393867">
  <ele>0.0</ele>
  <time>2026-09-01T01:17:36Z</time>
  <course>187.46</course>
  <speed>0.0</speed>
  <fix>3d</fix>
</trkpt>
<trkpt lat="33.810313" lon="-118.393867">
  <ele>-0.13</ele>
  <time>2026-09-01T01:17:36Z</time>
  <course>0.0</course>
  <speed>0.0</speed>
  <fix>3d</fix>
</trkpt>
<trkpt lat="33.810313" lon="-118.393867">
  <ele>0.0</ele>
  <time>2026-09-01T01:17:36Z</time>
  <course>187.53</course>
  <speed>0.0</speed>
  <fix>3d</fix>
</trkpt>
<trkpt lat="33.810313" lon="-118.393867">
  <ele>-0.13</ele>
  <time>2026-09-01T01:17:36Z</time>
  <course>0.0</course>
  <speed>0.0</speed>
  <fix>3d</fix>
</trkpt>
<trkpt lat="33.810313" lon="-118.393867">
  <ele>0.0</ele>
  <time>2026-09-01T01:17:36Z</time>
  <course>187.59</course>
  <speed>0.0</speed>
  <fix>3d</fix>
</trkpt>
<trkpt lat="33.810313" lon="-118.393867">
  <ele>-0.13</ele>
  <time>2026-09-01T01:17:36Z</time>
  <course>0.0</course>
  <speed>0.0</speed>
  <fix>3d</fix>
</trkpt>
<trkpt lat="33.810313" lon="-118.393867">
  <ele>0.0</ele>
  <time>2026-09-01T01:17:36Z</time>
  <course>187.65</course>
  <speed>0.0</speed>
  <fix>3d</fix>
</trkpt>
<trkpt lat="33.810313" lon="-118.393867">
  <ele>-0.12</ele>
  <time>2026-09-01T01:17:36Z</time>
  <course>0.0</course>
  <speed>0.0</speed>
  <fix>3d</fix>
</trkpt>
<trkpt lat="33.810313" lon="-118.393867">
  <ele>0.0</ele>
  <time>2026-09-01T01:17:36Z</time>
  <course>187.7</course>
  <speed>0.0</speed>
  <fix>3d</fix>
</trkpt>
<trkpt lat="33.810313" lon="-118.393867">
  <ele>-0.12</ele>
  <time>2026-09-01T01:17:36Z</time>
  <course>0.0</course>
  <speed>0.0</speed>
  <fix>3d</fix>
</trkpt>
<trkpt lat="33.810313" lon="-118.393867">
  <ele>0.0</ele>
  <time>2026-09-01T01:17:36Z</time>
  <course>187.76</course>
  <speed>0.0</speed>
  <fix>3d</fix>
</trkpt>
<trkpt lat="33.810313" lon="-118.393867">
  <ele>-0.12</ele>
  <time>2026-09-01T01:17:36Z</time>
  <course>0.0</course>
  <speed>0.0</speed>
  <fix>3d</fix>
</trkpt>
<trkpt lat="33.810313" lon="-118.393867">
  <ele>0.0</ele>
  <time>2026-09-01T01:17:36Z</time>
  <course>187.81</course>
  <speed>0.0</speed>
  <fix>3d</fix>
</trkpt>
<trkpt lat="33.810313" lon="-118.393867">
  <ele>-0.12</ele>
  <time>2026-09-01T01:17:36Z</time>
  <course>0.0</course>
  <speed>0.0</speed>
  <fix>3d</fix>
</trkpt>
<trkpt lat="33.810313" lon="-118.393867">
  <ele>0.0</ele>
  <time>2026-09-01T01:17:36Z</time>
  <course>187.86</course>
  <speed>0.0</speed>
  <fix>3d</fix>
</trkpt>
<trkpt lat="33.810313" lon="-118.393867">
  <ele>-0.12</ele>
  <time>2026-09-01T01:17:36Z</time>
  <course>0.0</course>
  <speed>0.0</speed>
  <fix>3d</fix>
</trkpt>
<trkpt lat="33.810313" lon="-118.393867">
  <ele>0.0</ele>
  <time>2026-09-01T01:17:36Z</time>
  <course>187.9</course>
  <speed>0.0</speed>
  <fix>3d</fix>
</trkpt>
<trkpt lat="33.810313" lon="-118.393867">
  <ele>-0.12</ele>
  <time>2026-09-01T01:17:36Z</time>
  <course>0.0</course>
  <speed>0.0</speed>
  <fix>3d</fix>
</trkpt>
<trkpt lat="33.810313" lon="-118.393867">
  <ele>0.0</ele>
  <time>2026-09-01T01:17:36Z</time>
  <course>187.95</course>
  <speed>0.0</speed>
  <fix>3d</fix>
</trkpt>
<trkpt lat="33.810313" lon="-118.393867">
  <ele>-0.12</ele>
  <time>2026-09-01T01:17:36Z</time>
  <course>0.0</course>
  <speed>0.0</speed>
  <fix>3d</fix>
</trkpt>
<trkpt lat="33.810313" lon="-118.393867">
  <ele>0.0</ele>
  <time>2026-09-01T01:17:36Z</time>
  <course>187.99</course>
  <speed>0.0</speed>
  <fix>3d</fix>
</trkpt>
<trkpt lat="33.810313" lon="-118.393867">
  <ele>-0.12</ele>
  <time>2026-09-01T01:17:36Z</time>
  <course>0.0</course>
  <speed>0.0</speed>
  <fix>3d</fix>
</trkpt>
<trkpt lat="33.810313" lon="-118.393867">
  <ele>0.0</ele>
  <time>2026-09-01T01:17:36Z</time>
  <course>188.03</course>
  <speed>0.0</speed>
  <fix>3d</fix>
</trkpt>
<trkpt lat="33.810313" lon="-118.393867">
  <ele>-0.12</ele>
  <time>2026-09-01T01:17:36Z</time>
  <course>0.0</course>
  <speed>0.0</speed>
  <fix>3d</fix>
</trkpt>
<trkpt lat="33.810313" lon="-118.393867">
  <ele>0.0</ele>
  <time>2026-09-01T01:17:36Z</time>
  <course>188.06</course>
  <speed>0.0</speed>
  <fix>3d</fix>
</trkpt>
<trkpt lat="33.810313" lon="-118.393867">
  <ele>-0.12</ele>
  <time>2026-09-01T01:17:36Z</time>
  <course>0.0</course>
  <speed>0.0</speed>
  <fix>3d</fix>
</trkpt>
<trkpt lat="33.810313" lon="-118.393867">
  <ele>0.0</ele>
  <time>2026-09-01T01:17:36Z</time>
  <course>188.1</course>
  <speed>0.0</speed>
  <fix>3d</fix>
</trkpt>
<trkpt lat="33.810313" lon="-118.393867">
  <ele>-0.13</ele>
  <time>2026-09-01T01:17:36Z</time>
  <course>0.0</course>
  <speed>0.0</speed>
  <fix>3d</fix>
</trkpt>
<trkpt lat="33.810313" lon="-118.393867">
  <ele>0.0</ele>
  <time>2026-09-01T01:17:36Z</time>
  <course>188.13</course>
  <speed>0.0</speed>
  <fix>3d</fix>
</trkpt>
<trkpt lat="33.810313" lon="-118.393867">
  <ele>-0.13</ele>
  <time>2026-09-01T01:17:36Z</time>
  <course>0.0</course>
  <speed>0.0</speed>
  <fix>3d</fix>
</trkpt>
<trkpt lat="33.810313" lon="-118.393867">
  <ele>0.0</ele>
  <time>2026-09-01T01:17:36Z</time>
  <course>188.16</course>
  <speed>0.0</speed>
  <fix>3d</fix>
</trkpt>
<trkpt lat="33.810313" lon="-118.393867">
  <ele>-0.13</ele>
  <time>2026-09-01T01:17:36Z</time>
  <course>0.0</course>
  <speed>0.0</speed>
  <fix>3d</fix>
</trkpt>
<trkpt lat="33.810313" lon="-118.393867">
  <ele>0.0</ele>
  <time>2026-09-01T01:17:36Z</time>
  <course>188.19</course>
  <speed>0.0</speed>
  <fix>3d</fix>
</trkpt>
<trkpt lat="33.810313" lon="-118.393867">
  <ele>-0.13</ele>
  <time>2026-09-01T01:17:36Z</time>
  <course>0.0</course>
  <speed>0.0</speed>
  <fix>3d</fix>
</trkpt>
<trkpt lat="33.810313" lon="-118.393867">
  <ele>0.0</ele>
  <time>2026-09-01T01:17:36Z</time>
  <course>188.22</course>
  <speed>0.0</speed>
  <fix>3d</fix>
</trkpt>
<trkpt lat="33.810313" lon="-118.393867">
  <ele>-0.13</ele>
  <time>2026-09-01T01:17:36Z</time>
  <course>0.0</course>
  <speed>0.0</speed>
  <fix>3d</fix>
</trkpt>
<trkpt lat="33.810313" lon="-118.393867">
  <ele>0.0</ele>
  <time>2026-09-01T01:17:36Z</time>
  <course>188.25</course>
  <speed>0.0</speed>
  <fix>3d</fix>
</trkpt>
<trkpt lat="33.810313" lon="-118.393867">
  <ele>-0.13</ele>
  <time>2026-09-01T01:17:36Z</time>
  <course>0.0</course>
  <speed>0.0</speed>
  <fix>3d</fix>
</trkpt>
<trkpt lat="33.810313" lon="-118.393867">
  <ele>0.0</ele>
  <time>2026-09-01T01:17:36Z</time>
  <course>188.27</course>
  <speed>0.0</speed>
  <fix>3d</fix>
</trkpt>
<trkpt lat="33.810313" lon="-118.393867">
  <ele>-0.12</ele>
  <time>2026-09-01T01:17:36Z</time>
  <course>0.0</course>
  <speed>0.0</speed>
  <fix>3d</fix>
</trkpt>
<trkpt lat="33.810313" lon="-118.393867">
  <ele>0.0</ele>
  <time>2026-09-01T01:17:36Z</time>
  <course>188.29</course>
  <speed>0.0</speed>
  <fix>3d</fix>
</trkpt>
<trkpt lat="33.810313" lon="-118.393867">
  <ele>-0.12</ele>
  <time>2026-09-01T01:17:36Z</time>
  <course>0.0</course>
  <speed>0.0</speed>
  <fix>3d</fix>
</trkpt>
<trkpt lat="33.810313" lon="-118.393867">
  <ele>0.0</ele>
  <time>2026-09-01T01:17:36Z</time>
  <course>188.32</course>
  <speed>0.0</speed>
  <fix>3d</fix>
</trkpt>
<trkpt lat="33.810313" lon="-118.393867">
  <ele>-0.12</ele>
  <time>2026-09-01T01:17:36Z</time>
  <course>0.0</course>
  <speed>0.0</speed>
  <fix>3d</fix>
</trkpt>
<trkpt lat="33.810313" lon="-118.393867">
  <ele>0.0</ele>
  <time>2026-09-01T01:17:36Z</time>
  <course>188.34</course>
  <speed>0.0</speed>
  <fix>3d</fix>
</trkpt>
<trkpt lat="33.810313" lon="-118.393867">
  <ele>-0.12</ele>
  <time>2026-09-01T01:17:36Z</time>
  <course>0.0</course>
  <speed>0.0</speed>
  <fix>3d</fix>
</trkpt>
<trkpt lat="33.810313" lon="-118.393867">
  <ele>0.0</ele>
  <time>2026-09-01T01:17:36Z</time>
  <course>188.36</course>
  <speed>0.0</speed>
  <fix>3d</fix>
</trkpt>
<trkpt lat="33.810313" lon="-118.393867">
  <ele>-0.12</ele>
  <time>2026-09-01T01:17:36Z</time>
  <course>0.0</course>
  <speed>0.0</speed>
  <fix>3d</fix>
</trkpt>
<trkpt lat="33.810313" lon="-118.393867">
  <ele>0.0</ele>
  <time>2026-09-01T01:17:36Z</time>
  <course>188.38</course>
  <speed>0.0</speed>
  <fix>3d</fix>
</trkpt>
<trkpt lat="33.810313" lon="-118.393867">
  <ele>-0.12</ele>
  <time>2026-09-01T01:17:36Z</time>
  <course>0.0</course>
  <speed>0.0</speed>
  <fix>3d</fix>
</trkpt>
<trkpt lat="33.810313" lon="-118.393867">
  <ele>0.0</ele>
  <time>2026-09-01T01:17:36Z</time>
  <course>188.39</course>
  <speed>0.0</speed>
  <fix>3d</fix>
</trkpt>
<trkpt lat="33.810313" lon="-118.393867">
  <ele>-0.12</ele>
  <time>2026-09-01T01:17:36Z</time>
  <course>0.0</course>
  <speed>0.0</speed>
  <fix>3d</fix>
</trkpt>
<trkpt lat="33.810313" lon="-118.393867">
  <ele>0.0</ele>
  <time>2026-09-01T01:17:36Z</time>
  <course>188.41</course>
  <speed>0.0</speed>
  <fix>3d</fix>
</trkpt>
<trkpt lat="33.810313" lon="-118.393867">
  <ele>-0.12</ele>
  <time>2026-09-01T01:17:36Z</time>
  <course>0.0</course>
  <speed>0.0</speed>
  <fix>3d</fix>
</trkpt>
<trkpt lat="33.810313" lon="-118.393867">
  <ele>0.0</ele>
  <time>2026-09-01T01:17:36Z</time>
  <course>188.42</course>
  <speed>0.0</speed>
  <fix>3d</fix>
</trkpt>
<trkpt lat="33.810313" lon="-118.393867">
  <ele>-0.12</ele>
  <time>2026-09-01T01:17:36Z</time>
  <course>0.0</course>
  <speed>0.0</speed>
  <fix>3d</fix>
</trkpt>
<trkpt lat="33.810313" lon="-118.393867">
  <ele>0.0</ele>
  <time>2026-09-01T01:17:36Z</time>
  <course>188.44</course>
  <speed>0.0</speed>
  <fix>3d</fix>
</trkpt>
<trkpt lat="33.810313" lon="-118.393867">
  <ele>-0.12</ele>
  <time>2026-09-01T01:17:36Z</time>
  <course>0.0</course>
  <speed>0.0</speed>
  <fix>3d</fix>
</trkpt>
<trkpt lat="33.810313" lon="-118.393867">
  <ele>0.0</ele>
  <time>2026-09-01T01:17:36Z</time>
  <course>188.45</course>
  <speed>0.0</speed>
  <fix>3d</fix>
</trkpt>
<trkpt lat="33.810313" lon="-118.393867">
  <ele>-0.13</ele>
  <time>2026-09-01T01:17:36Z</time>
  <course>0.0</course>
  <speed>0.0</speed>
  <fix>3d</fix>
</trkpt>
<trkpt lat="33.810313" lon="-118.393867">
  <ele>0.0</ele>
  <time>2026-09-01T01:17:36Z</time>
  <course>188.46</course>
  <speed>0.0</speed>
  <fix>3d</fix>
</trkpt>
<trkpt lat="33.810313" lon="-118.393867">
  <ele>-0.13</ele>
  <time>2026-09-01T01:17:36Z</time>
  <course>0.0</course>
  <speed>0.0</speed>
  <fix>3d</fix>
</trkpt>
<trkpt lat="33.810313" lon="-118.393867">
  <ele>0.0</ele>
  <time>2026-09-01T01:17:36Z</time>
  <course>188.47</course>
  <speed>0.0</speed>
  <fix>3d</fix>
</trkpt>
<trkpt lat="33.810313" lon="-118.393867">
  <ele>-0.13</ele>
  <time>2026-09-01T01:17:36Z</time>
  <course>0.0</course>
  <speed>0.0</speed>
  <fix>3d</fix>
</trkpt>
<trkpt lat="33.810313" lon="-118.393867">
  <ele>0.0</ele>
  <time>2026-09-01T01:17:36Z</time>
  <course>188.48</course>
  <speed>0.0</speed>
  <fix>3d</fix>
</trkpt>
<trkpt lat="33.810313" lon="-118.393867">
  <ele>-0.13</ele>
  <time>2026-09-01T01:17:36Z</time>
  <course>0.0</course>
  <speed>0.0</speed>
  <fix>3d</fix>
</trkpt>
<trkpt lat="33.810313" lon="-118.393867">
  <ele>0.0</ele>
  <time>2026-09-01T01:17:36Z</time>
  <course>188.49</course>
  <speed>0.0</speed>
  <fix>3d</fix>
</trkpt>
<trkpt lat="33.810313" lon="-118.393867">
  <ele>-0.13</ele>
  <time>2026-09-01T01:17:36Z</time>
  <course>0.0</course>
  <speed>0.0</speed>
  <fix>3d</fix>
</trkpt>
<trkpt lat="33.810313" lon="-118.393867">
  <ele>0.0</ele>
  <time>2026-09-01T01:17:36Z</time>
  <course>188.5</course>
  <speed>0.0</speed>
  <fix>3d</fix>
</trkpt>
<trkpt lat="33.810313" lon="-118.393867">
  <ele>-0.13</ele>
  <time>2026-09-01T01:17:36Z</time>
  <course>0.0</course>
  <speed>0.0</speed>
  <fix>3d</fix>
</trkpt>
<trkpt lat="33.810313" lon="-118.393867">
  <ele>0.0</ele>
  <time>2026-09-01T01:17:36Z</time>
  <course>188.51</course>
  <speed>0.0</speed>
  <fix>3d</fix>
</trkpt>
<trkpt lat="33.810313" lon="-118.393867">
  <ele>-0.12</ele>
  <time>2026-09-01T01:17:36Z</time>
  <course>0.0</course>
  <speed>0.0</speed>
  <fix>3d</fix>
</trkpt>
<trkpt lat="33.810313" lon="-118.393867">
  <ele>0.0</ele>
  <time>2026-09-01T01:17:36Z</time>
  <course>188.52</course>
  <speed>0.0</speed>
  <fix>3d</fix>
</trkpt>
<trkpt lat="33.810313" lon="-118.393867">
  <ele>-0.12</ele>
  <time>2026-09-01T01:17:36Z</time>
  <course>0.0</course>
  <speed>0.0</speed>
  <fix>3d</fix>
</trkpt>
<trkpt lat="33.810313" lon="-118.393867">
  <ele>0.0</ele>
  <time>2026-09-01T01:17:36Z</time>
  <course>188.53</course>
  <speed>0.0</speed>
  <fix>3d</fix>
</trkpt>
<trkpt lat="33.810313" lon="-118.393867">
  <ele>-0.12</ele>
  <time>2026-09-01T01:17:36Z</time>
  <course>0.0</course>
  <speed>0.0</speed>
  <fix>3d</fix>
</trkpt>
<trkpt lat="33.810313" lon="-118.393867">
  <ele>0.0</ele>
  <time>2026-09-01T01:17:36Z</time>
  <course>188.53</course>
  <speed>0.0</speed>
  <fix>3d</fix>
</trkpt>
<trkpt lat="33.810313" lon="-118.393867">
  <ele>-0.12</ele>
  <time>2026-09-01T01:17:36Z</time>
  <course>0.0</course>
  <speed>0.0</speed>
  <fix>3d</fix>
</trkpt>
<trkpt lat="33.810313" lon="-118.393867">
  <ele>0.0</ele>
  <time>2026-09-01T01:17:36Z</time>
  <course>188.54</course>
  <speed>0.0</speed>
  <fix>3d</fix>
</trkpt>
<trkpt lat="33.810313" lon="-118.393867">
  <ele>-0.12</ele>
  <time>2026-09-01T01:17:36Z</time>
  <course>0.0</course>
  <speed>0.0</speed>
  <fix>3d</fix>
</trkpt>
<trkpt lat="33.810313" lon="-118.393867">
  <ele>0.0</ele>
  <time>2026-09-01T01:17:36Z</time>
  <course>188.54</course>
  <speed>0.0</speed>
  <fix>3d</fix>
</trkpt>
<trkpt lat="33.810313" lon="-118.393867">
  <ele>-0.12</ele>
  <time>2026-09-01T01:17:36Z</time>
  <course>0.0</course>
  <speed>0.0</speed>
  <fix>3d</fix>
</trkpt>
<trkpt lat="33.810313" lon="-118.393867">
  <ele>0.0</ele>
  <time>2026-09-01T01:17:36Z</time>
  <course>188.54</course>
  <speed>0.0</speed>
  <fix>3d</fix>
</trkpt>
<trkpt lat="33.810313" lon="-118.393867">
  <ele>-0.12</ele>
  <time>2026-09-01T01:17:36Z</time>
  <course>0.0</course>
  <speed>0.0</speed>
  <fix>3d</fix>
</trkpt>
<trkpt lat="33.810313" lon="-118.393867">
  <ele>0.0</ele>
  <time>2026-09-01T01:17:36Z</time>
  <course>188.55</course>
  <speed>0.0</speed>
  <fix>3d</fix>
</trkpt>
<trkpt lat="33.810313" lon="-118.393867">
  <ele>-0.12</ele>
  <time>2026-09-01T01:17:36Z</time>
  <course>0.0</course>
  <speed>0.0</speed>
  <fix>3d</fix>
</trkpt>
<trkpt lat="33.810313" lon="-118.393867">
  <ele>0.0</ele>
  <time>2026-09-01T01:17:36Z</time>
  <course>188.55</course>
  <speed>0.0</speed>
  <fix>3d</fix>
</trkpt>
<trkpt lat="33.810313" lon="-118.393867">
  <ele>-0.12</ele>
  <time>2026-09-01T01:17:36Z</time>
  <course>0.0</course>
  <speed>0.0</speed>
  <fix>3d</fix>
</trkpt>
<trkpt lat="33.810313" lon="-118.393867">
  <ele>0.0</ele>
  <time>2026-09-01T01:17:36Z</time>
  <course>188.55</course>
  <speed>0.0</speed>
  <fix>3d</fix>
</trkpt>
<trkpt lat="33.810313" lon="-118.393867">
  <ele>-0.12</ele>
  <time>2026-09-01T01:17:36Z</time>
  <course>0.0</course>
  <speed>0.0</speed>
  <fix>3d</fix>
</trkpt>
<trkpt lat="33.810313" lon="-118.393867">
  <ele>-0.126</ele>
  <time>2026-09-01T01:17:36Z</time>
  <course>188.55</course>
  <speed>0.0</speed>
  <fix>3d</fix>
</trkpt>
<trkpt lat="33.810313" lon="-118.393867">
  <ele>-0.13</ele>
  <time>2026-09-01T01:17:36Z</time>
  <course>0.0</course>
  <speed>0.0</speed>
  <fix>3d</fix>
</trkpt>
<trkpt lat="33.810313" lon="-118.393867">
  <ele>-0.126</ele>
  <time>2026-09-01T01:17:36Z</time>
  <course>188.56</course>
  <speed>0.0</speed>
  <fix>3d</fix>
</trkpt>
<trkpt lat="33.810313" lon="-118.393867">
  <ele>-0.13</ele>
  <time>2026-09-01T01:17:36Z</time>
  <course>0.0</course>
  <speed>0.0</speed>
  <fix>3d</fix>
</trkpt>
<trkpt lat="33.810313" lon="-118.393867">
  <ele>-0.125</ele>
  <time>2026-09-01T01:17:36Z</time>
  <course>188.56</course>
  <speed>0.0</speed>
  <fix>3d</fix>
</trkpt>
<trkpt lat="33.810313" lon="-118.393867">
  <ele>-0.13</ele>
  <time>2026-09-01T01:17:36Z</time>
  <course>0.0</course>
  <speed>0.0</speed>
  <fix>3d</fix>
</trkpt>
<trkpt lat="33.810313" lon="-118.393867">
  <ele>-0.123</ele>
  <time>2026-09-01T01:17:36Z</time>
  <course>188.56</course>
  <speed>0.0</speed>
  <fix>3d</fix>
</trkpt>
<trkpt lat="33.810313" lon="-118.393867">
  <ele>-0.13</ele>
  <time>2026-09-01T01:17:36Z</time>
  <course>0.0</course>
  <speed>0.0</speed>
  <fix>3d</fix>
</trkpt>
<trkpt lat="33.810313" lon="-118.393867">
  <ele>-0.121</ele>
  <time>2026-09-01T01:17:36Z</time>
  <course>188.56</course>
  <speed>0.0</speed>
  <fix>3d</fix>
</trkpt>
<trkpt lat="33.810313" lon="-118.393867">
  <ele>-0.12</ele>
  <time>2026-09-01T01:17:36Z</time>
  <course>0.0</course>
  <speed>0.0</speed>
  <fix>3d</fix>
</trkpt>
<trkpt lat="33.810313" lon="-118.393867">
  <ele>-0.12</ele>
  <time>2026-09-01T01:17:36Z</time>
  <course>188.56</course>
  <speed>0.0</speed>
  <fix>3d</fix>
</trkpt>
<trkpt lat="33.810313" lon="-118.393867">
  <ele>-0.12</ele>
  <time>2026-09-01T01:17:36Z</time>
  <course>0.0</course>
  <speed>0.0</speed>
  <fix>3d</fix>
</trkpt>
<trkpt lat="33.810313" lon="-118.393867">
  <ele>-0.119</ele>
  <time>2026-09-01T01:17:36Z</time>
  <course>188.56</course>
  <speed>0.0</speed>
  <fix>3d</fix>
</trkpt>
<trkpt lat="33.810313" lon="-118.393867">
  <ele>-0.12</ele>
  <time>2026-09-01T01:17:36Z</time>
  <course>0.0</course>
  <speed>0.0</speed>
  <fix>3d</fix>
</trkpt>
<trkpt lat="33.810313" lon="-118.393867">
  <ele>-0.12</ele>
  <time>2026-09-01T01:17:36Z</time>
  <course>188.56</course>
  <speed>0.0</speed>
  <fix>3d</fix>
</trkpt>
<trkpt lat="33.810313" lon="-118.393867">
  <ele>-0.12</ele>
  <time>2026-09-01T01:17:36Z</time>
  <course>0.0</course>
  <speed>0.0</speed>
  <fix>3d</fix>
</trkpt>
<trkpt lat="33.810313" lon="-118.393867">
  <ele>-0.123</ele>
  <time>2026-09-01T01:17:36Z</time>
  <course>188.55</course>
  <speed>0.0</speed>
  <fix>3d</fix>
</trkpt>
<trkpt lat="33.810313" lon="-118.393867">
  <ele>-0.12</ele>
  <time>2026-09-01T01:17:36Z</time>
  <course>0.0</course>
  <speed>0.0</speed>
  <fix>3d</fix>
</trkpt>
<trkpt lat="33.810313" lon="-118.393867">
  <ele>-0.127</ele>
  <time>2026-09-01T01:17:36Z</time>
  <course>188.55</course>
  <speed>0.0</speed>
  <fix>3d</fix>
</trkpt>
<trkpt lat="33.810313" lon="-118.393867">
  <ele>-0.12</ele>
  <time>2026-09-01T01:17:36Z</time>
  <course>0.0</course>
  <speed>0.0</speed>
  <fix>3d</fix>
</trkpt>
<trkpt lat="33.810313" lon="-118.393867">
  <ele>-0.13</ele>
  <time>2026-09-01T01:17:36Z</time>
  <course>188.55</course>
  <speed>0.0</speed>
  <fix>3d</fix>
</trkpt>
<trkpt lat="33.810313" lon="-118.393867">
  <ele>-0.12</ele>
  <time>2026-09-01T01:17:36Z</time>
  <course>0.0</course>
  <speed>0.0</speed>
  <fix>3d</fix>
</trkpt>
<trkpt lat="33.810313" lon="-118.393867">
  <ele>-0.131</ele>
  <time>2026-09-01T01:17:36Z</time>
  <course>188.55</course>
  <speed>0.0</speed>
  <fix>3d</fix>
</trkpt>
<trkpt lat="33.810313" lon="-118.393867">
  <ele>-0.12</ele>
  <time>2026-09-01T01:17:36Z</time>
  <course>0.0</course>
  <speed>0.0</speed>
  <fix>3d</fix>
</trkpt>
<trkpt lat="33.810313" lon="-118.393867">
  <ele>-0.132</ele>
  <time>2026-09-01T01:17:36Z</time>
  <course>188.55</course>
  <speed>0.0</speed>
  <fix>3d</fix>
</trkpt>
<trkpt lat="33.810313" lon="-118.393867">
  <ele>-0.12</ele>
  <time>2026-09-01T01:17:36Z</time>
  <course>0.0</course>
  <speed>0.0</speed>
  <fix>3d</fix>
</trkpt>
<trkpt lat="33.810313" lon="-118.393867">
  <ele>-0.132</ele>
  <time>2026-09-01T01:17:36Z</time>
  <course>188.55</course>
  <speed>0.0</speed>
  <fix>3d</fix>
</trkpt>
<trkpt lat="33.810313" lon="-118.393867">
  <ele>-0.12</ele>
  <time>2026-09-01T01:17:36Z</time>
  <course>0.0</course>
  <speed>0.0</speed>
  <fix>3d</fix>
</trkpt>
<trkpt lat="33.810313" lon="-118.393867">
  <ele>-0.132</ele>
  <time>2026-09-01T01:17:36Z</time>
  <course>188.55</course>
  <speed>0.0</speed>
  <fix>3d</fix>
</trkpt>
<trkpt lat="33.810313" lon="-118.393867">
  <ele>-0.12</ele>
  <time>2026-09-01T01:17:36Z</time>
  <course>0.0</course>
  <speed>0.0</speed>
  <fix>3d</fix>
</trkpt>
<trkpt lat="33.810313" lon="-118.393867">
  <ele>-0.131</ele>
  <time>2026-09-01T01:17:36Z</time>
  <course>188.55</course>
  <speed>0.0</speed>
  <fix>3d</fix>
</trkpt>
<trkpt lat="33.810313" lon="-118.393867">
  <ele>-0.12</ele>
  <time>2026-09-01T01:17:36Z</time>
  <course>0.0</course>
  <speed>0.0</speed>
  <fix>3d</fix>
</trkpt>
<trkpt lat="33.810313" lon="-118.393867">
  <ele>-0.129</ele>
  <time>2026-09-01T01:17:36Z</time>
  <course>188.54</course>
  <speed>0.0</speed>
  <fix>3d</fix>
</trkpt>
<trkpt lat="33.810313" lon="-118.393867">
  <ele>-0.13</ele>
  <time>2026-09-01T01:17:36Z</time>
  <course>0.0</course>
  <speed>0.0</speed>
  <fix>3d</fix>
</trkpt>
<trkpt lat="33.810313" lon="-118.393867">
  <ele>-0.128</ele>
  <time>2026-09-01T01:17:36Z</time>
  <course>188.54</course>
  <speed>0.0</speed>
  <fix>3d</fix>
</trkpt>
<trkpt lat="33.810313" lon="-118.393867">
  <ele>-0.13</ele>
  <time>2026-09-01T01:17:36Z</time>
  <course>0.0</course>
  <speed>0.0</speed>
  <fix>3d</fix>
</trkpt>
<trkpt lat="33.810313" lon="-118.393867">
  <ele>-0.125</ele>
  <time>2026-09-01T01:17:36Z</time>
  <course>188.53</course>
  <speed>0.0</speed>
  <fix>3d</fix>
</trkpt>
<trkpt lat="33.810313" lon="-118.393867">
  <ele>-0.12</ele>
  <time>2026-09-01T01:17:36Z</time>
  <course>0.0</course>
  <speed>0.0</speed>
  <fix>3d</fix>
</trkpt>
<trkpt lat="33.810313" lon="-118.393867">
  <ele>-0.123</ele>
  <time>2026-09-01T01:17:36Z</time>
  <course>188.53</course>
  <speed>0.0</speed>
  <fix>3d</fix>
</trkpt>
<trkpt lat="33.810313" lon="-118.393867">
  <ele>-0.12</ele>
  <time>2026-09-01T01:17:36Z</time>
  <course>0.0</course>
  <speed>0.0</speed>
  <fix>3d</fix>
</trkpt>
<trkpt lat="33.4368002" lon="-117.0859339">
  <ele>-0.11</ele>
  <time>2026-09-01T01:17:37Z</time>
  <course>0.0</course>
  <speed>0.0</speed>
  <fix>3d</fix>
</trkpt>
<trkpt lat="33.4368002" lon="-117.0859339">
  <ele>-0.11</ele>
  <time>2026-09-01T01:17:37Z</time>
  <course>0.0</course>
  <speed>0.0</speed>
  <fix>3d</fix>
</trkpt>
<trkpt lat="33.810313" lon="-118.393867">
  <ele>0.0</ele>
  <time>2026-09-01T01:17:37Z</time>
  <course>173.5</course>
  <speed>0.0</speed>
  <fix>3d</fix>
</trkpt>
<trkpt lat="33.810313" lon="-118.393867">
  <ele>-0.11</ele>
  <time>2026-09-01T01:17:37Z</time>
  <course>0.0</course>
  <speed>0.0</speed>
  <fix>3d</fix>
</trkpt>
<trkpt lat="33.4368002" lon="-117.0859339">
  <ele>-0.11</ele>
  <time>2026-09-01T01:17:37Z</time>
  <course>0.0</course>
  <speed>0.0</speed>
  <fix>3d</fix>
</trkpt>
<trkpt lat="33.4368002" lon="-117.0859339">
  <ele>-0.11</ele>
  <time>2026-09-01T01:17:37Z</time>
  <course>0.0</course>
  <speed>0.0</speed>
  <fix>3d</fix>
</trkpt>
<trkpt lat="33.810313" lon="-118.393867">
  <ele>0.0</ele>
  <time>2026-09-01T01:17:37Z</time>
  <course>173.5</course>
  <speed>0.0</speed>
  <fix>3d</fix>
</trkpt>
<trkpt lat="33.810313" lon="-118.393867">
  <ele>-0.11</ele>
  <time>2026-09-01T01:17:37Z</time>
  <course>0.0</course>
  <speed>0.0</speed>
  <fix>3d</fix>
</trkpt>
<trkpt lat="33.810313" lon="-118.393867">
  <ele>0.0</ele>
  <time>2026-09-01T01:17:37Z</time>
  <course>173.61</course>
  <speed>0.0</speed>
  <fix>3d</fix>
</trkpt>
<trkpt lat="33.810313" lon="-118.393867">
  <ele>-0.11</ele>
  <time>2026-09-01T01:17:37Z</time>
  <course>0.0</course>
  <speed>0.0</speed>
  <fix>3d</fix>
</trkpt>
<trkpt lat="33.810313" lon="-118.393867">
  <ele>0.0</ele>
  <time>2026-09-01T01:17:37Z</time>
  <course>173.98</course>
  <speed>0.0</speed>
  <fix>3d</fix>
</trkpt>
<trkpt lat="33.810313" lon="-118.393867">
  <ele>-0.11</ele>
  <time>2026-09-01T01:17:37Z</time>
  <course>0.0</course>
  <speed>0.0</speed>
  <fix>3d</fix>
</trkpt>
<trkpt lat="33.810313" lon="-118.393867">
  <ele>0.0</ele>
  <time>2026-09-01T01:17:37Z</time>
  <course>174.51</course>
  <speed>0.0</speed>
  <fix>3d</fix>
</trkpt>
<trkpt lat="33.810313" lon="-118.393867">
  <ele>-0.11</ele>
  <time>2026-09-01T01:17:37Z</time>
  <course>0.0</course>
  <speed>0.0</speed>
  <fix>3d</fix>
</trkpt>
<trkpt lat="33.810313" lon="-118.393867">
  <ele>0.0</ele>
  <time>2026-09-01T01:17:37Z</time>
  <course>175.07</course>
  <speed>0.0</speed>
  <fix>3d</fix>
</trkpt>
<trkpt lat="33.810313" lon="-118.393867">
  <ele>-0.12</ele>
  <time>2026-09-01T01:17:37Z</time>
  <course>0.0</course>
  <speed>0.0</speed>
  <fix>3d</fix>
</trkpt>
<trkpt lat="33.810313" lon="-118.393867">
  <ele>0.0</ele>
  <time>2026-09-01T01:17:37Z</time>
  <course>175.61</course>
  <speed>0.0</speed>
  <fix>3d</fix>
</trkpt>
<trkpt lat="33.810313" lon="-118.393867">
  <ele>-0.12</ele>
  <time>2026-09-01T01:17:37Z</time>
  <course>0.0</course>
  <speed>0.0</speed>
  <fix>3d</fix>
</trkpt>
<trkpt lat="33.810313" lon="-118.393867">
  <ele>0.0</ele>
  <time>2026-09-01T01:17:37Z</time>
  <course>176.12</course>
  <speed>0.0</speed>
  <fix>3d</fix>
</trkpt>
<trkpt lat="33.810313" lon="-118.393867">
  <ele>-0.13</ele>
  <time>2026-09-01T01:17:37Z</time>
  <course>0.0</course>
  <speed>0.0</speed>
  <fix>3d</fix>
</trkpt>
<trkpt lat="33.810313" lon="-118.393867">
  <ele>0.0</ele>
  <time>2026-09-01T01:17:37Z</time>
  <course>176.6</course>
  <speed>0.0</speed>
  <fix>3d</fix>
</trkpt>
<trkpt lat="33.810313" lon="-118.393867">
  <ele>-0.13</ele>
  <time>2026-09-01T01:17:37Z</time>
  <course>0.0</course>
  <speed>0.0</speed>
  <fix>3d</fix>
</trkpt>
<trkpt lat="33.810313" lon="-118.393867">
  <ele>0.0</ele>
  <time>2026-09-01T01:17:37Z</time>
  <course>177.07</course>
  <speed>0.0</speed>
  <fix>3d</fix>
</trkpt>
<trkpt lat="33.810313" lon="-118.393867">
  <ele>-0.13</ele>
  <time>2026-09-01T01:17:37Z</time>
  <course>0.0</course>
  <speed>0.0</speed>
  <fix>3d</fix>
</trkpt>
<trkpt lat="33.810313" lon="-118.393867">
  <ele>0.0</ele>
  <time>2026-09-01T01:17:37Z</time>
  <course>177.53</course>
  <speed>0.0</speed>
  <fix>3d</fix>
</trkpt>
<trkpt lat="33.810313" lon="-118.393867">
  <ele>-0.13</ele>
  <time>2026-09-01T01:17:37Z</time>
  <course>0.0</course>
  <speed>0.0</speed>
  <fix>3d</fix>
</trkpt>
<trkpt lat="33.810313" lon="-118.393867">
  <ele>0.0</ele>
  <time>2026-09-01T01:17:37Z</time>
  <course>177.97</course>
  <speed>0.0</speed>
  <fix>3d</fix>
</trkpt>
<trkpt lat="33.810313" lon="-118.393867">
  <ele>-0.14</ele>
  <time>2026-09-01T01:17:37Z</time>
  <course>0.0</course>
  <speed>0.0</speed>
  <fix>3d</fix>
</trkpt>
<trkpt lat="33.810313" lon="-118.393867">
  <ele>0.0</ele>
  <time>2026-09-01T01:17:37Z</time>
  <course>178.4</course>
  <speed>0.0</speed>
  <fix>3d</fix>
</trkpt>
<trkpt lat="33.810313" lon="-118.393867">
  <ele>-0.14</ele>
  <time>2026-09-01T01:17:37Z</time>
  <course>0.0</course>
  <speed>0.0</speed>
  <fix>3d</fix>
</trkpt>
<trkpt lat="33.810313" lon="-118.393867">
  <ele>0.0</ele>
  <time>2026-09-01T01:17:37Z</time>
  <course>178.83</course>
  <speed>0.0</speed>
  <fix>3d</fix>
</trkpt>
<trkpt lat="33.810313" lon="-118.393867">
  <ele>-0.14</ele>
  <time>2026-09-01T01:17:37Z</time>
  <course>0.0</course>
  <speed>0.0</speed>
  <fix>3d</fix>
</trkpt>
<trkpt lat="33.810313" lon="-118.393867">
  <ele>0.0</ele>
  <time>2026-09-01T01:17:37Z</time>
  <course>179.23</course>
  <speed>0.0</speed>
  <fix>3d</fix>
</trkpt>
<trkpt lat="33.810313" lon="-118.393867">
  <ele>-0.14</ele>
  <time>2026-09-01T01:17:37Z</time>
  <course>0.0</course>
  <speed>0.0</speed>
  <fix>3d</fix>
</trkpt>
<trkpt lat="33.810313" lon="-118.393867">
  <ele>0.0</ele>
  <time>2026-09-01T01:17:37Z</time>
  <course>179.62</course>
  <speed>0.0</speed>
  <fix>3d</fix>
</trkpt>
<trkpt lat="33.810313" lon="-118.393867">
  <ele>-0.14</ele>
  <time>2026-09-01T01:17:37Z</time>
  <course>0.0</course>
  <speed>0.0</speed>
  <fix>3d</fix>
</trkpt>
<trkpt lat="33.810313" lon="-118.393867">
  <ele>0.0</ele>
  <time>2026-09-01T01:17:37Z</time>
  <course>180.01</course>
  <speed>0.0</speed>
  <fix>3d</fix>
</trkpt>
<trkpt lat="33.810313" lon="-118.393867">
  <ele>-0.14</ele>
  <time>2026-09-01T01:17:37Z</time>
  <course>0.0</course>
  <speed>0.0</speed>
  <fix>3d</fix>
</trkpt>
<trkpt lat="33.810313" lon="-118.393867">
  <ele>0.0</ele>
  <time>2026-09-01T01:17:37Z</time>
  <course>180.37</course>
  <speed>0.0</speed>
  <fix>3d</fix>
</trkpt>
<trkpt lat="33.810313" lon="-118.393867">
  <ele>-0.14</ele>
  <time>2026-09-01T01:17:37Z</time>
  <course>0.0</course>
  <speed>0.0</speed>
  <fix>3d</fix>
</trkpt>
<trkpt lat="33.810313" lon="-118.393867">
  <ele>0.0</ele>
  <time>2026-09-01T01:17:37Z</time>
  <course>180.73</course>
  <speed>0.0</speed>
  <fix>3d</fix>
</trkpt>
<trkpt lat="33.810313" lon="-118.393867">
  <ele>-0.14</ele>
  <time>2026-09-01T01:17:37Z</time>
  <course>0.0</course>
  <speed>0.0</speed>
  <fix>3d</fix>
</trkpt>
<trkpt lat="33.810313" lon="-118.393867">
  <ele>0.0</ele>
  <time>2026-09-01T01:17:37Z</time>
  <course>181.07</course>
  <speed>0.0</speed>
  <fix>3d</fix>
</trkpt>
<trkpt lat="33.810313" lon="-118.393867">
  <ele>-0.13</ele>
  <time>2026-09-01T01:17:37Z</time>
  <course>0.0</course>
  <speed>0.0</speed>
  <fix>3d</fix>
</trkpt>
<trkpt lat="33.810313" lon="-118.393867">
  <ele>0.0</ele>
  <time>2026-09-01T01:17:37Z</time>
  <course>181.4</course>
  <speed>0.0</speed>
  <fix>3d</fix>
</trkpt>
<trkpt lat="33.810313" lon="-118.393867">
  <ele>-0.13</ele>
  <time>2026-09-01T01:17:37Z</time>
  <course>0.0</course>
  <speed>0.0</speed>
  <fix>3d</fix>
</trkpt>
<trkpt lat="33.810313" lon="-118.393867">
  <ele>0.0</ele>
  <time>2026-09-01T01:17:37Z</time>
  <course>181.72</course>
  <speed>0.0</speed>
  <fix>3d</fix>
</trkpt>
<trkpt lat="33.810313" lon="-118.393867">
  <ele>-0.12</ele>
  <time>2026-09-01T01:17:37Z</time>
  <course>0.0</course>
  <speed>0.0</speed>
  <fix>3d</fix>
</trkpt>
<trkpt lat="33.810313" lon="-118.393867">
  <ele>0.0</ele>
  <time>2026-09-01T01:17:37Z</time>
  <course>182.02</course>
  <speed>0.0</speed>
  <fix>3d</fix>
</trkpt>
<trkpt lat="33.810313" lon="-118.393867">
  <ele>-0.12</ele>
  <time>2026-09-01T01:17:37Z</time>
  <course>0.0</course>
  <speed>0.0</speed>
  <fix>3d</fix>
</trkpt>
<trkpt lat="33.810313" lon="-118.393867">
  <ele>0.0</ele>
  <time>2026-09-01T01:17:37Z</time>
  <course>182.32</course>
  <speed>0.0</speed>
  <fix>3d</fix>
</trkpt>
<trkpt lat="33.810313" lon="-118.393867">
  <ele>-0.12</ele>
  <time>2026-09-01T01:17:37Z</time>
  <course>0.0</course>
  <speed>0.0</speed>
  <fix>3d</fix>
</trkpt>
<trkpt lat="33.810313" lon="-118.393867">
  <ele>0.0</ele>
  <time>2026-09-01T01:17:37Z</time>
  <course>182.6</course>
  <speed>0.0</speed>
  <fix>3d</fix>
</trkpt>
<trkpt lat="33.810313" lon="-118.393867">
  <ele>-0.12</ele>
  <time>2026-09-01T01:17:37Z</time>
  <course>0.0</course>
  <speed>0.0</speed>
  <fix>3d</fix>
</trkpt>
<trkpt lat="33.810313" lon="-118.393867">
  <ele>0.0</ele>
  <time>2026-09-01T01:17:37Z</time>
  <course>182.87</course>
  <speed>0.0</speed>
  <fix>3d</fix>
</trkpt>
<trkpt lat="33.810313" lon="-118.393867">
  <ele>-0.11</ele>
  <time>2026-09-01T01:17:37Z</time>
  <course>0.0</course>
  <speed>0.0</speed>
  <fix>3d</fix>
</trkpt>
<trkpt lat="33.810313" lon="-118.393867">
  <ele>0.0</ele>
  <time>2026-09-01T01:17:37Z</time>
  <course>183.14</course>
  <speed>0.0</speed>
  <fix>3d</fix>
</trkpt>
<trkpt lat="33.810313" lon="-118.393867">
  <ele>-0.11</ele>
  <time>2026-09-01T01:17:37Z</time>
  <course>0.0</course>
  <speed>0.0</speed>
  <fix>3d</fix>
</trkpt>
<trkpt lat="33.810313" lon="-118.393867">
  <ele>0.0</ele>
  <time>2026-09-01T01:17:37Z</time>
  <course>183.39</course>
  <speed>0.0</speed>
  <fix>3d</fix>
</trkpt>
<trkpt lat="33.810313" lon="-118.393867">
  <ele>-0.11</ele>
  <time>2026-09-01T01:17:37Z</time>
  <course>0.0</course>
  <speed>0.0</speed>
  <fix>3d</fix>
</trkpt>
<trkpt lat="33.810313" lon="-118.393867">
  <ele>0.0</ele>
  <time>2026-09-01T01:17:37Z</time>
  <course>183.63</course>
  <speed>0.0</speed>
  <fix>3d</fix>
</trkpt>
<trkpt lat="33.810313" lon="-118.393867">
  <ele>-0.11</ele>
  <time>2026-09-01T01:17:37Z</time>
  <course>0.0</course>
  <speed>0.0</speed>
  <fix>3d</fix>
</trkpt>
<trkpt lat="33.810313" lon="-118.393867">
  <ele>0.0</ele>
  <time>2026-09-01T01:17:37Z</time>
  <course>183.86</course>
  <speed>0.0</speed>
  <fix>3d</fix>
</trkpt>
<trkpt lat="33.810313" lon="-118.393867">
  <ele>-0.12</ele>
  <time>2026-09-01T01:17:37Z</time>
  <course>0.0</course>
  <speed>0.0</speed>
  <fix>3d</fix>
</trkpt>
<trkpt lat="33.810313" lon="-118.393867">
  <ele>0.0</ele>
  <time>2026-09-01T01:17:37Z</time>
  <course>184.08</course>
  <speed>0.0</speed>
  <fix>3d</fix>
</trkpt>
<trkpt lat="33.810313" lon="-118.393867">
  <ele>-0.12</ele>
  <time>2026-09-01T01:17:37Z</time>
  <course>0.0</course>
  <speed>0.0</speed>
  <fix>3d</fix>
</trkpt>
<trkpt lat="33.810313" lon="-118.393867">
  <ele>0.0</ele>
  <time>2026-09-01T01:17:37Z</time>
  <course>184.3</course>
  <speed>0.0</speed>
  <fix>3d</fix>
</trkpt>
<trkpt lat="33.810313" lon="-118.393867">
  <ele>-0.13</ele>
  <time>2026-09-01T01:17:37Z</time>
  <course>0.0</course>
  <speed>0.0</speed>
  <fix>3d</fix>
</trkpt>
<trkpt lat="33.810313" lon="-118.393867">
  <ele>0.0</ele>
  <time>2026-09-01T01:17:37Z</time>
  <course>184.5</course>
  <speed>0.0</speed>
  <fix>3d</fix>
</trkpt>
<trkpt lat="33.810313" lon="-118.393867">
  <ele>-0.13</ele>
  <time>2026-09-01T01:17:37Z</time>
  <course>0.0</course>
  <speed>0.0</speed>
  <fix>3d</fix>
</trkpt>
<trkpt lat="33.810313" lon="-118.393867">
  <ele>0.0</ele>
  <time>2026-09-01T01:17:37Z</time>
  <course>184.7</course>
  <speed>0.0</speed>
  <fix>3d</fix>
</trkpt>
<trkpt lat="33.810313" lon="-118.393867">
  <ele>-0.13</ele>
  <time>2026-09-01T01:17:37Z</time>
  <course>0.0</course>
  <speed>0.0</speed>
  <fix>3d</fix>
</trkpt>
<trkpt lat="33.810313" lon="-118.393867">
  <ele>0.0</ele>
  <time>2026-09-01T01:17:37Z</time>
  <course>184.89</course>
  <speed>0.0</speed>
  <fix>3d</fix>
</trkpt>
<trkpt lat="33.810313" lon="-118.393867">
  <ele>-0.13</ele>
  <time>2026-09-01T01:17:37Z</time>
  <course>0.0</course>
  <speed>0.0</speed>
  <fix>3d</fix>
</trkpt>
<trkpt lat="33.810313" lon="-118.393867">
  <ele>0.0</ele>
  <time>2026-09-01T01:17:37Z</time>
  <course>185.07</course>
  <speed>0.0</speed>
  <fix>3d</fix>
</trkpt>
<trkpt lat="33.810313" lon="-118.393867">
  <ele>-0.14</ele>
  <time>2026-09-01T01:17:37Z</time>
  <course>0.0</course>
  <speed>0.0</speed>
  <fix>3d</fix>
</trkpt>
<trkpt lat="33.810313" lon="-118.393867">
  <ele>0.0</ele>
  <time>2026-09-01T01:17:37Z</time>
  <course>185.24</course>
  <speed>0.0</speed>
  <fix>3d</fix>
</trkpt>
<trkpt lat="33.810313" lon="-118.393867">
  <ele>-0.14</ele>
  <time>2026-09-01T01:17:37Z</time>
  <course>0.0</course>
  <speed>0.0</speed>
  <fix>3d</fix>
</trkpt>
<trkpt lat="33.810313" lon="-118.393867">
  <ele>0.0</ele>
  <time>2026-09-01T01:17:37Z</time>
  <course>185.41</course>
  <speed>0.0</speed>
  <fix>3d</fix>
</trkpt>
<trkpt lat="33.810313" lon="-118.393867">
  <ele>-0.13</ele>
  <time>2026-09-01T01:17:37Z</time>
  <course>0.0</course>
  <speed>0.0</speed>
  <fix>3d</fix>
</trkpt>
<trkpt lat="33.810313" lon="-118.393867">
  <ele>0.0</ele>
  <time>2026-09-01T01:17:37Z</time>
  <course>185.56</course>
  <speed>0.0</speed>
  <fix>3d</fix>
</trkpt>
<trkpt lat="33.810313" lon="-118.393867">
  <ele>-0.13</ele>
  <time>2026-09-01T01:17:37Z</time>
  <course>0.0</course>
  <speed>0.0</speed>
  <fix>3d</fix>
</trkpt>
<trkpt lat="33.810313" lon="-118.393867">
  <ele>0.0</ele>
  <time>2026-09-01T01:17:37Z</time>
  <course>185.72</course>
  <speed>0.0</speed>
  <fix>3d</fix>
</trkpt>
<trkpt lat="33.810313" lon="-118.393867">
  <ele>-0.13</ele>
  <time>2026-09-01T01:17:37Z</time>
  <course>0.0</course>
  <speed>0.0</speed>
  <fix>3d</fix>
</trkpt>
<trkpt lat="33.810313" lon="-118.393867">
  <ele>0.0</ele>
  <time>2026-09-01T01:17:37Z</time>
  <course>185.86</course>
  <speed>0.0</speed>
  <fix>3d</fix>
</trkpt>
<trkpt lat="33.810313" lon="-118.393867">
  <ele>-0.13</ele>
  <time>2026-09-01T01:17:37Z</time>
  <course>0.0</course>
  <speed>0.0</speed>
  <fix>3d</fix>
</trkpt>
<trkpt lat="33.810313" lon="-118.393867">
  <ele>0.0</ele>
  <time>2026-09-01T01:17:37Z</time>
  <course>186.0</course>
  <speed>0.0</speed>
  <fix>3d</fix>
</trkpt>
<trkpt lat="33.810313" lon="-118.393867">
  <ele>-0.12</ele>
  <time>2026-09-01T01:17:37Z</time>
  <course>0.0</course>
  <speed>0.0</speed>
  <fix>3d</fix>
</trkpt>
<trkpt lat="33.810313" lon="-118.393867">
  <ele>0.0</ele>
  <time>2026-09-01T01:17:37Z</time>
  <course>186.13</course>
  <speed>0.0</speed>
  <fix>3d</fix>
</trkpt>
<trkpt lat="33.810313" lon="-118.393867">
  <ele>-0.12</ele>
  <time>2026-09-01T01:17:37Z</time>
  <course>0.0</course>
  <speed>0.0</speed>
  <fix>3d</fix>
</trkpt>
<trkpt lat="33.810313" lon="-118.393867">
  <ele>0.0</ele>
  <time>2026-09-01T01:17:37Z</time>
  <course>186.26</course>
  <speed>0.0</speed>
  <fix>3d</fix>
</trkpt>
<trkpt lat="33.810313" lon="-118.393867">
  <ele>-0.12</ele>
  <time>2026-09-01T01:17:37Z</time>
  <course>0.0</course>
  <speed>0.0</speed>
  <fix>3d</fix>
</trkpt>
<trkpt lat="33.810313" lon="-118.393867">
  <ele>0.0</ele>
  <time>2026-09-01T01:17:37Z</time>
  <course>186.38</course>
  <speed>0.0</speed>
  <fix>3d</fix>
</trkpt>
<trkpt lat="33.810313" lon="-118.393867">
  <ele>-0.12</ele>
  <time>2026-09-01T01:17:37Z</time>
  <course>0.0</course>
  <speed>0.0</speed>
  <fix>3d</fix>
</trkpt>
<trkpt lat="33.810313" lon="-118.393867">
  <ele>0.0</ele>
  <time>2026-09-01T01:17:37Z</time>
  <course>186.49</course>
  <speed>0.0</speed>
  <fix>3d</fix>
</trkpt>
<trkpt lat="33.810313" lon="-118.393867">
  <ele>-0.12</ele>
  <time>2026-09-01T01:17:37Z</time>
  <course>0.0</course>
  <speed>0.0</speed>
  <fix>3d</fix>
</trkpt>
<trkpt lat="33.810313" lon="-118.393867">
  <ele>0.0</ele>
  <time>2026-09-01T01:17:37Z</time>
  <course>186.6</course>
  <speed>0.0</speed>
  <fix>3d</fix>
</trkpt>
<trkpt lat="33.810313" lon="-118.393867">
  <ele>-0.12</ele>
  <time>2026-09-01T01:17:37Z</time>
  <course>0.0</course>
  <speed>0.0</speed>
  <fix>3d</fix>
</trkpt>
<trkpt lat="33.810313" lon="-118.393867">
  <ele>0.0</ele>
  <time>2026-09-01T01:17:37Z</time>
  <course>186.71</course>
  <speed>0.0</speed>
  <fix>3d</fix>
</trkpt>
<trkpt lat="33.810313" lon="-118.393867">
  <ele>-0.12</ele>
  <time>2026-09-01T01:17:37Z</time>
  <course>0.0</course>
  <speed>0.0</speed>
  <fix>3d</fix>
</trkpt>
<trkpt lat="33.810313" lon="-118.393867">
  <ele>0.0</ele>
  <time>2026-09-01T01:17:37Z</time>
  <course>186.81</course>
  <speed>0.0</speed>
  <fix>3d</fix>
</trkpt>
<trkpt lat="33.810313" lon="-118.393867">
  <ele>-0.12</ele>
  <time>2026-09-01T01:17:37Z</time>
  <course>0.0</course>
  <speed>0.0</speed>
  <fix>3d</fix>
</trkpt>
<trkpt lat="33.810313" lon="-118.393867">
  <ele>0.0</ele>
  <time>2026-09-01T01:17:37Z</time>
  <course>186.9</course>
  <speed>0.0</speed>
  <fix>3d</fix>
</trkpt>
<trkpt lat="33.810313" lon="-118.393867">
  <ele>-0.12</ele>
  <time>2026-09-01T01:17:37Z</time>
  <course>0.0</course>
  <speed>0.0</speed>
  <fix>3d</fix>
</trkpt>
<trkpt lat="33.810313" lon="-118.393867">
  <ele>0.0</ele>
  <time>2026-09-01T01:17:37Z</time>
  <course>187.0</course>
  <speed>0.0</speed>
  <fix>3d</fix>
</trkpt>
<trkpt lat="33.810313" lon="-118.393867">
  <ele>-0.12</ele>
  <time>2026-09-01T01:17:37Z</time>
  <course>0.0</course>
  <speed>0.0</speed>
  <fix>3d</fix>
</trkpt>
<trkpt lat="33.810313" lon="-118.393867">
  <ele>0.0</ele>
  <time>2026-09-01T01:17:37Z</time>
  <course>187.08</course>
  <speed>0.0</speed>
  <fix>3d</fix>
</trkpt>
<trkpt lat="33.810313" lon="-118.393867">
  <ele>-0.13</ele>
  <time>2026-09-01T01:17:37Z</time>
  <course>0.0</course>
  <speed>0.0</speed>
  <fix>3d</fix>
</trkpt>
<trkpt lat="33.810313" lon="-118.393867">
  <ele>0.0</ele>
  <time>2026-09-01T01:17:37Z</time>
  <course>187.17</course>
  <speed>0.0</speed>
  <fix>3d</fix>
</trkpt>
<trkpt lat="33.810313" lon="-118.393867">
  <ele>-0.13</ele>
  <time>2026-09-01T01:17:37Z</time>
  <course>0.0</course>
  <speed>0.0</speed>
  <fix>3d</fix>
</trkpt>
<trkpt lat="33.810313" lon="-118.393867">
  <ele>0.0</ele>
  <time>2026-09-01T01:17:37Z</time>
  <course>187.24</course>
  <speed>0.0</speed>
  <fix>3d</fix>
</trkpt>
<trkpt lat="33.810313" lon="-118.393867">
  <ele>-0.13</ele>
  <time>2026-09-01T01:17:37Z</time>
  <course>0.0</course>
  <speed>0.0</speed>
  <fix>3d</fix>
</trkpt>
<trkpt lat="33.810313" lon="-118.393867">
  <ele>0.0</ele>
  <time>2026-09-01T01:17:37Z</time>
  <course>187.32</course>
  <speed>0.0</speed>
  <fix>3d</fix>
</trkpt>
<trkpt lat="33.810313" lon="-118.393867">
  <ele>-0.13</ele>
  <time>2026-09-01T01:17:37Z</time>
  <course>0.0</course>
  <speed>0.0</speed>
  <fix>3d</fix>
</trkpt>
<trkpt lat="33.810313" lon="-118.393867">
  <ele>0.0</ele>
  <time>2026-09-01T01:17:37Z</time>
  <course>187.39</course>
  <speed>0.0</speed>
  <fix>3d</fix>
</trkpt>
<trkpt lat="33.810313" lon="-118.393867">
  <ele>-0.13</ele>
  <time>2026-09-01T01:17:37Z</time>
  <course>0.0</course>
  <speed>0.0</speed>
  <fix>3d</fix>
</trkpt>
<trkpt lat="33.810313" lon="-118.393867">
  <ele>0.0</ele>
  <time>2026-09-01T01:17:37Z</time>
  <course>187.46</course>
  <speed>0.0</speed>
  <fix>3d</fix>
</trkpt>
<trkpt lat="33.810313" lon="-118.393867">
  <ele>-0.13</ele>
  <time>2026-09-01T01:17:37Z</time>
  <course>0.0</course>
  <speed>0.0</speed>
  <fix>3d</fix>
</trkpt>
<trkpt lat="33.810313" lon="-118.393867">
  <ele>0.0</ele>
  <time>2026-09-01T01:17:37Z</time>
  <course>187.53</course>
  <speed>0.0</speed>
  <fix>3d</fix>
</trkpt>
<trkpt lat="33.810313" lon="-118.393867">
  <ele>-0.13</ele>
  <time>2026-09-01T01:17:37Z</time>
  <course>0.0</course>
  <speed>0.0</speed>
  <fix>3d</fix>
</trkpt>
<trkpt lat="33.810313" lon="-118.393867">
  <ele>0.0</ele>
  <time>2026-09-01T01:17:37Z</time>
  <course>187.59</course>
  <speed>0.0</speed>
  <fix>3d</fix>
</trkpt>
<trkpt lat="33.810313" lon="-118.393867">
  <ele>-0.13</ele>
  <time>2026-09-01T01:17:37Z</time>
  <course>0.0</course>
  <speed>0.0</speed>
  <fix>3d</fix>
</trkpt>
<trkpt lat="33.810313" lon="-118.393867">
  <ele>0.0</ele>
  <time>2026-09-01T01:17:37Z</time>
  <course>187.65</course>
  <speed>0.0</speed>
  <fix>3d</fix>
</trkpt>
<trkpt lat="33.810313" lon="-118.393867">
  <ele>-0.12</ele>
  <time>2026-09-01T01:17:37Z</time>
  <course>0.0</course>
  <speed>0.0</speed>
  <fix>3d</fix>
</trkpt>
<trkpt lat="33.810313" lon="-118.393867">
  <ele>0.0</ele>
  <time>2026-09-01T01:17:37Z</time>
  <course>187.7</course>
  <speed>0.0</speed>
  <fix>3d</fix>
</trkpt>
<trkpt lat="33.810313" lon="-118.393867">
  <ele>-0.12</ele>
  <time>2026-09-01T01:17:37Z</time>
  <course>0.0</course>
  <speed>0.0</speed>
  <fix>3d</fix>
</trkpt>
<trkpt lat="33.810313" lon="-118.393867">
  <ele>0.0</ele>
  <time>2026-09-01T01:17:37Z</time>
  <course>187.76</course>
  <speed>0.0</speed>
  <fix>3d</fix>
</trkpt>
<trkpt lat="33.810313" lon="-118.393867">
  <ele>-0.12</ele>
  <time>2026-09-01T01:17:37Z</time>
  <course>0.0</course>
  <speed>0.0</speed>
  <fix>3d</fix>
</trkpt>
<trkpt lat="33.810313" lon="-118.393867">
  <ele>0.0</ele>
  <time>2026-09-01T01:17:37Z</time>
  <course>187.81</course>
  <speed>0.0</speed>
  <fix>3d</fix>
</trkpt>
<trkpt lat="33.810313" lon="-118.393867">
  <ele>-0.12</ele>
  <time>2026-09-01T01:17:37Z</time>
  <course>0.0</course>
  <speed>0.0</speed>
  <fix>3d</fix>
</trkpt>
<trkpt lat="33.810313" lon="-118.393867">
  <ele>0.0</ele>
  <time>2026-09-01T01:17:37Z</time>
  <course>187.86</course>
  <speed>0.0</speed>
  <fix>3d</fix>
</trkpt>
<trkpt lat="33.810313" lon="-118.393867">
  <ele>-0.12</ele>
  <time>2026-09-01T01:17:37Z</time>
  <course>0.0</course>
  <speed>0.0</speed>
  <fix>3d</fix>
</trkpt>
<trkpt lat="33.810313" lon="-118.393867">
  <ele>0.0</ele>
  <time>2026-09-01T01:17:37Z</time>
  <course>187.9</course>
  <speed>0.0</speed>
  <fix>3d</fix>
</trkpt>
<trkpt lat="33.810313" lon="-118.393867">
  <ele>-0.12</ele>
  <time>2026-09-01T01:17:37Z</time>
  <course>0.0</course>
  <speed>0.0</speed>
  <fix>3d</fix>
</trkpt>
<trkpt lat="33.810313" lon="-118.393867">
  <ele>0.0</ele>
  <time>2026-09-01T01:17:37Z</time>
  <course>187.94</course>
  <speed>0.0</speed>
  <fix>3d</fix>
</trkpt>
<trkpt lat="33.810313" lon="-118.393867">
  <ele>-0.12</ele>
  <time>2026-09-01T01:17:37Z</time>
  <course>0.0</course>
  <speed>0.0</speed>
  <fix>3d</fix>
</trkpt>
<trkpt lat="33.810313" lon="-118.393867">
  <ele>0.0</ele>
  <time>2026-09-01T01:17:38Z</time>
  <course>187.99</course>
  <speed>0.0</speed>
  <fix>3d</fix>
</trkpt>
<trkpt lat="33.810313" lon="-118.393867">
  <ele>-0.12</ele>
  <time>2026-09-01T01:17:38Z</time>
  <course>0.0</course>
  <speed>0.0</speed>
  <fix>3d</fix>
</trkpt>
<trkpt lat="33.810313" lon="-118.393867">
  <ele>0.0</ele>
  <time>2026-09-01T01:17:38Z</time>
  <course>188.02</course>
  <speed>0.0</speed>
  <fix>3d</fix>
</trkpt>
<trkpt lat="33.810313" lon="-118.393867">
  <ele>-0.12</ele>
  <time>2026-09-01T01:17:38Z</time>
  <course>0.0</course>
  <speed>0.0</speed>
  <fix>3d</fix>
</trkpt>
<trkpt lat="33.810313" lon="-118.393867">
  <ele>0.0</ele>
  <time>2026-09-01T01:17:38Z</time>
  <course>188.06</course>
  <speed>0.0</speed>
  <fix>3d</fix>
</trkpt>
<trkpt lat="33.810313" lon="-118.393867">
  <ele>-0.12</ele>
  <time>2026-09-01T01:17:38Z</time>
  <course>0.0</course>
  <speed>0.0</speed>
  <fix>3d</fix>
</trkpt>
<trkpt lat="33.810313" lon="-118.393867">
  <ele>0.0</ele>
  <time>2026-09-01T01:17:38Z</time>
  <course>188.1</course>
  <speed>0.0</speed>
  <fix>3d</fix>
</trkpt>
<trkpt lat="33.810313" lon="-118.393867">
  <ele>-0.13</ele>
  <time>2026-09-01T01:17:38Z</time>
  <course>0.0</course>
  <speed>0.0</speed>
  <fix>3d</fix>
</trkpt>
<trkpt lat="33.810313" lon="-118.393867">
  <ele>0.0</ele>
  <time>2026-09-01T01:17:38Z</time>
  <course>188.13</course>
  <speed>0.0</speed>
  <fix>3d</fix>
</trkpt>
<trkpt lat="33.810313" lon="-118.393867">
  <ele>-0.13</ele>
  <time>2026-09-01T01:17:38Z</time>
  <course>0.0</course>
  <speed>0.0</speed>
  <fix>3d</fix>
</trkpt>
<trkpt lat="33.810313" lon="-118.393867">
  <ele>0.0</ele>
  <time>2026-09-01T01:17:38Z</time>
  <course>188.16</course>
  <speed>0.0</speed>
  <fix>3d</fix>
</trkpt>
<trkpt lat="33.810313" lon="-118.393867">
  <ele>-0.13</ele>
  <time>2026-09-01T01:17:38Z</time>
  <course>0.0</course>
  <speed>0.0</speed>
  <fix>3d</fix>
</trkpt>
<trkpt lat="33.810313" lon="-118.393867">
  <ele>0.0</ele>
  <time>2026-09-01T01:17:38Z</time>
  <course>188.19</course>
  <speed>0.0</speed>
  <fix>3d</fix>
</trkpt>
<trkpt lat="33.810313" lon="-118.393867">
  <ele>-0.13</ele>
  <time>2026-09-01T01:17:38Z</time>
  <course>0.0</course>
  <speed>0.0</speed>
  <fix>3d</fix>
</trkpt>
<trkpt lat="33.810313" lon="-118.393867">
  <ele>0.0</ele>
  <time>2026-09-01T01:17:38Z</time>
  <course>188.22</course>
  <speed>0.0</speed>
  <fix>3d</fix>
</trkpt>
<trkpt lat="33.810313" lon="-118.393867">
  <ele>-0.13</ele>
  <time>2026-09-01T01:17:38Z</time>
  <course>0.0</course>
  <speed>0.0</speed>
  <fix>3d</fix>
</trkpt>
<trkpt lat="33.810313" lon="-118.393867">
  <ele>0.0</ele>
  <time>2026-09-01T01:17:38Z</time>
  <course>188.24</course>
  <speed>0.0</speed>
  <fix>3d</fix>
</trkpt>
<trkpt lat="33.810313" lon="-118.393867">
  <ele>-0.13</ele>
  <time>2026-09-01T01:17:38Z</time>
  <course>0.0</course>
  <speed>0.0</speed>
  <fix>3d</fix>
</trkpt>
<trkpt lat="33.810313" lon="-118.393867">
  <ele>0.0</ele>
  <time>2026-09-01T01:17:38Z</time>
  <course>188.27</course>
  <speed>0.0</speed>
  <fix>3d</fix>
</trkpt>
<trkpt lat="33.810313" lon="-118.393867">
  <ele>-0.12</ele>
  <time>2026-09-01T01:17:38Z</time>
  <course>0.0</course>
  <speed>0.0</speed>
  <fix>3d</fix>
</trkpt>
<trkpt lat="33.810313" lon="-118.393867">
  <ele>0.0</ele>
  <time>2026-09-01T01:17:38Z</time>
  <course>188.29</course>
  <speed>0.0</speed>
  <fix>3d</fix>
</trkpt>
<trkpt lat="33.810313" lon="-118.393867">
  <ele>-0.12</ele>
  <time>2026-09-01T01:17:38Z</time>
  <course>0.0</course>
  <speed>0.0</speed>
  <fix>3d</fix>
</trkpt>
<trkpt lat="33.810313" lon="-118.393867">
  <ele>0.0</ele>
  <time>2026-09-01T01:17:38Z</time>
  <course>188.32</course>
  <speed>0.0</speed>
  <fix>3d</fix>
</trkpt>
<trkpt lat="33.810313" lon="-118.393867">
  <ele>-0.12</ele>
  <time>2026-09-01T01:17:38Z</time>
  <course>0.0</course>
  <speed>0.0</speed>
  <fix>3d</fix>
</trkpt>
<trkpt lat="33.810313" lon="-118.393867">
  <ele>0.0</ele>
  <time>2026-09-01T01:17:38Z</time>
  <course>188.34</course>
  <speed>0.0</speed>
  <fix>3d</fix>
</trkpt>
<trkpt lat="33.810313" lon="-118.393867">
  <ele>-0.12</ele>
  <time>2026-09-01T01:17:38Z</time>
  <course>0.0</course>
  <speed>0.0</speed>
  <fix>3d</fix>
</trkpt>
<trkpt lat="33.810313" lon="-118.393867">
  <ele>0.0</ele>
  <time>2026-09-01T01:17:38Z</time>
  <course>188.36</course>
  <speed>0.0</speed>
  <fix>3d</fix>
</trkpt>
<trkpt lat="33.810313" lon="-118.393867">
  <ele>-0.12</ele>
  <time>2026-09-01T01:17:38Z</time>
  <course>0.0</course>
  <speed>0.0</speed>
  <fix>3d</fix>
</trkpt>
<trkpt lat="33.810313" lon="-118.393867">
  <ele>0.0</ele>
  <time>2026-09-01T01:17:38Z</time>
  <course>188.38</course>
  <speed>0.0</speed>
  <fix>3d</fix>
</trkpt>
<trkpt lat="33.810313" lon="-118.393867">
  <ele>-0.12</ele>
  <time>2026-09-01T01:17:38Z</time>
  <course>0.0</course>
  <speed>0.0</speed>
  <fix>3d</fix>
</trkpt>
<trkpt lat="33.810313" lon="-118.393867">
  <ele>0.0</ele>
  <time>2026-09-01T01:17:38Z</time>
  <course>188.39</course>
  <speed>0.0</speed>
  <fix>3d</fix>
</trkpt>
<trkpt lat="33.810313" lon="-118.393867">
  <ele>-0.12</ele>
  <time>2026-09-01T01:17:38Z</time>
  <course>0.0</course>
  <speed>0.0</speed>
  <fix>3d</fix>
</trkpt>
<trkpt lat="33.810313" lon="-118.393867">
  <ele>0.0</ele>
  <time>2026-09-01T01:17:38Z</time>
  <course>188.41</course>
  <speed>0.0</speed>
  <fix>3d</fix>
</trkpt>
<trkpt lat="33.810313" lon="-118.393867">
  <ele>-0.12</ele>
  <time>2026-09-01T01:17:38Z</time>
  <course>0.0</course>
  <speed>0.0</speed>
  <fix>3d</fix>
</trkpt>
<trkpt lat="33.810313" lon="-118.393867">
  <ele>0.0</ele>
  <time>2026-09-01T01:17:38Z</time>
  <course>188.42</course>
  <speed>0.0</speed>
  <fix>3d</fix>
</trkpt>
<trkpt lat="33.810313" lon="-118.393867">
  <ele>-0.12</ele>
  <time>2026-09-01T01:17:38Z</time>
  <course>0.0</course>
  <speed>0.0</speed>
  <fix>3d</fix>
</trkpt>
<trkpt lat="33.810313" lon="-118.393867">
  <ele>0.0</ele>
  <time>2026-09-01T01:17:38Z</time>
  <course>188.44</course>
  <speed>0.0</speed>
  <fix>3d</fix>
</trkpt>
<trkpt lat="33.810313" lon="-118.393867">
  <ele>-0.12</ele>
  <time>2026-09-01T01:17:38Z</time>
  <course>0.0</course>
  <speed>0.0</speed>
  <fix>3d</fix>
</trkpt>
<trkpt lat="33.810313" lon="-118.393867">
  <ele>0.0</ele>
  <time>2026-09-01T01:17:38Z</time>
  <course>188.45</course>
  <speed>0.0</speed>
  <fix>3d</fix>
</trkpt>
<trkpt lat="33.810313" lon="-118.393867">
  <ele>-0.13</ele>
  <time>2026-09-01T01:17:38Z</time>
  <course>0.0</course>
  <speed>0.0</speed>
  <fix>3d</fix>
</trkpt>
<trkpt lat="33.810313" lon="-118.393867">
  <ele>0.0</ele>
  <time>2026-09-01T01:17:38Z</time>
  <course>188.46</course>
  <speed>0.0</speed>
  <fix>3d</fix>
</trkpt>
<trkpt lat="33.810313" lon="-118.393867">
  <ele>-0.13</ele>
  <time>2026-09-01T01:17:38Z</time>
  <course>0.0</course>
  <speed>0.0</speed>
  <fix>3d</fix>
</trkpt>
<trkpt lat="33.810313" lon="-118.393867">
  <ele>0.0</ele>
  <time>2026-09-01T01:17:38Z</time>
  <course>188.47</course>
  <speed>0.0</speed>
  <fix>3d</fix>
</trkpt>
<trkpt lat="33.810313" lon="-118.393867">
  <ele>-0.13</ele>
  <time>2026-09-01T01:17:38Z</time>
  <course>0.0</course>
  <speed>0.0</speed>
  <fix>3d</fix>
</trkpt>
<trkpt lat="33.810313" lon="-118.393867">
  <ele>0.0</ele>
  <time>2026-09-01T01:17:38Z</time>
  <course>188.48</course>
  <speed>0.0</speed>
  <fix>3d</fix>
</trkpt>
<trkpt lat="33.810313" lon="-118.393867">
  <ele>-0.13</ele>
  <time>2026-09-01T01:17:38Z</time>
  <course>0.0</course>
  <speed>0.0</speed>
  <fix>3d</fix>
</trkpt>
<trkpt lat="33.810313" lon="-118.393867">
  <ele>0.0</ele>
  <time>2026-09-01T01:17:38Z</time>
  <course>188.49</course>
  <speed>0.0</speed>
  <fix>3d</fix>
</trkpt>
<trkpt lat="33.810313" lon="-118.393867">
  <ele>-0.13</ele>
  <time>2026-09-01T01:17:38Z</time>
  <course>0.0</course>
  <speed>0.0</speed>
  <fix>3d</fix>
</trkpt>
<trkpt lat="33.810313" lon="-118.393867">
  <ele>0.0</ele>
  <time>2026-09-01T01:17:38Z</time>
  <course>188.5</course>
  <speed>0.0</speed>
  <fix>3d</fix>
</trkpt>
<trkpt lat="33.810313" lon="-118.393867">
  <ele>-0.13</ele>
  <time>2026-09-01T01:17:38Z</time>
  <course>0.0</course>
  <speed>0.0</speed>
  <fix>3d</fix>
</trkpt>
<trkpt lat="33.810313" lon="-118.393867">
  <ele>0.0</ele>
  <time>2026-09-01T01:17:38Z</time>
  <course>188.51</course>
  <speed>0.0</speed>
  <fix>3d</fix>
</trkpt>
<trkpt lat="33.810313" lon="-118.393867">
  <ele>-0.12</ele>
  <time>2026-09-01T01:17:38Z</time>
  <course>0.0</course>
  <speed>0.0</speed>
  <fix>3d</fix>
</trkpt>
<trkpt lat="33.810313" lon="-118.393867">
  <ele>0.0</ele>
  <time>2026-09-01T01:17:38Z</time>
  <course>188.52</course>
  <speed>0.0</speed>
  <fix>3d</fix>
</trkpt>
<trkpt lat="33.810313" lon="-118.393867">
  <ele>-0.12</ele>
  <time>2026-09-01T01:17:38Z</time>
  <course>0.0</course>
  <speed>0.0</speed>
  <fix>3d</fix>
</trkpt>
<trkpt lat="33.810313" lon="-118.393867">
  <ele>0.0</ele>
  <time>2026-09-01T01:17:38Z</time>
  <course>188.53</course>
  <speed>0.0</speed>
  <fix>3d</fix>
</trkpt>
<trkpt lat="33.810313" lon="-118.393867">
  <ele>-0.12</ele>
  <time>2026-09-01T01:17:38Z</time>
  <course>0.0</course>
  <speed>0.0</speed>
  <fix>3d</fix>
</trkpt>
<trkpt lat="33.810313" lon="-118.393867">
  <ele>0.0</ele>
  <time>2026-09-01T01:17:38Z</time>
  <course>188.53</course>
  <speed>0.0</speed>
  <fix>3d</fix>
</trkpt>
<trkpt lat="33.810313" lon="-118.393867">
  <ele>-0.12</ele>
  <time>2026-09-01T01:17:38Z</time>
  <course>0.0</course>
  <speed>0.0</speed>
  <fix>3d</fix>
</trkpt>
<trkpt lat="33.810313" lon="-118.393867">
  <ele>0.0</ele>
  <time>2026-09-01T01:17:38Z</time>
  <course>188.54</course>
  <speed>0.0</speed>
  <fix>3d</fix>
</trkpt>
<trkpt lat="33.810313" lon="-118.393867">
  <ele>-0.12</ele>
  <time>2026-09-01T01:17:38Z</time>
  <course>0.0</course>
  <speed>0.0</speed>
  <fix>3d</fix>
</trkpt>
<trkpt lat="33.810313" lon="-118.393867">
  <ele>0.0</ele>
  <time>2026-09-01T01:17:38Z</time>
  <course>188.54</course>
  <speed>0.0</speed>
  <fix>3d</fix>
</trkpt>
<trkpt lat="33.810313" lon="-118.393867">
  <ele>-0.12</ele>
  <time>2026-09-01T01:17:38Z</time>
  <course>0.0</course>
  <speed>0.0</speed>
  <fix>3d</fix>
</trkpt>
<trkpt lat="33.810313" lon="-118.393867">
  <ele>0.0</ele>
  <time>2026-09-01T01:17:38Z</time>
  <course>188.54</course>
  <speed>0.0</speed>
  <fix>3d</fix>
</trkpt>
<trkpt lat="33.810313" lon="-118.393867">
  <ele>-0.12</ele>
  <time>2026-09-01T01:17:38Z</time>
  <course>0.0</course>
  <speed>0.0</speed>
  <fix>3d</fix>
</trkpt>
<trkpt lat="33.810313" lon="-118.393867">
  <ele>0.0</ele>
  <time>2026-09-01T01:17:38Z</time>
  <course>188.55</course>
  <speed>0.0</speed>
  <fix>3d</fix>
</trkpt>
<trkpt lat="33.810313" lon="-118.393867">
  <ele>-0.12</ele>
  <time>2026-09-01T01:17:38Z</time>
  <course>0.0</course>
  <speed>0.0</speed>
  <fix>3d</fix>
</trkpt>
<trkpt lat="33.810313" lon="-118.393867">
  <ele>0.0</ele>
  <time>2026-09-01T01:17:38Z</time>
  <course>188.55</course>
  <speed>0.0</speed>
  <fix>3d</fix>
</trkpt>
<trkpt lat="33.810313" lon="-118.393867">
  <ele>-0.12</ele>
  <time>2026-09-01T01:17:38Z</time>
  <course>0.0</course>
  <speed>0.0</speed>
  <fix>3d</fix>
</trkpt>
<trkpt lat="33.810313" lon="-118.393867">
  <ele>0.0</ele>
  <time>2026-09-01T01:17:38Z</time>
  <course>188.55</course>
  <speed>0.0</speed>
  <fix>3d</fix>
</trkpt>
<trkpt lat="33.810313" lon="-118.393867">
  <ele>-0.12</ele>
  <time>2026-09-01T01:17:38Z</time>
  <course>0.0</course>
  <speed>0.0</speed>
  <fix>3d</fix>
</trkpt>
<trkpt lat="33.810313" lon="-118.393867">
  <ele>-0.126</ele>
  <time>2026-09-01T01:17:38Z</time>
  <course>188.55</course>
  <speed>0.0</speed>
  <fix>3d</fix>
</trkpt>
<trkpt lat="33.810313" lon="-118.393867">
  <ele>-0.13</ele>
  <time>2026-09-01T01:17:38Z</time>
  <course>0.0</course>
  <speed>0.0</speed>
  <fix>3d</fix>
</trkpt>
<trkpt lat="33.810313" lon="-118.393867">
  <ele>-0.126</ele>
  <time>2026-09-01T01:17:38Z</time>
  <course>188.56</course>
  <speed>0.0</speed>
  <fix>3d</fix>
</trkpt>
<trkpt lat="33.810313" lon="-118.393867">
  <ele>-0.13</ele>
  <time>2026-09-01T01:17:38Z</time>
  <course>0.0</course>
  <speed>0.0</speed>
  <fix>3d</fix>
</trkpt>
<trkpt lat="33.810313" lon="-118.393867">
  <ele>-0.125</ele>
  <time>2026-09-01T01:17:38Z</time>
  <course>188.56</course>
  <speed>0.0</speed>
  <fix>3d</fix>
</trkpt>
<trkpt lat="33.810313" lon="-118.393867">
  <ele>-0.13</ele>
  <time>2026-09-01T01:17:38Z</time>
  <course>0.0</course>
  <speed>0.0</speed>
  <fix>3d</fix>
</trkpt>
<trkpt lat="33.810313" lon="-118.393867">
  <ele>-0.123</ele>
  <time>2026-09-01T01:17:38Z</time>
  <course>188.56</course>
  <speed>0.0</speed>
  <fix>3d</fix>
</trkpt>
<trkpt lat="33.810313" lon="-118.393867">
  <ele>-0.13</ele>
  <time>2026-09-01T01:17:38Z</time>
  <course>0.0</course>
  <speed>0.0</speed>
  <fix>3d</fix>
</trkpt>
<trkpt lat="33.810313" lon="-118.393867">
  <ele>-0.121</ele>
  <time>2026-09-01T01:17:38Z</time>
  <course>188.56</course>
  <speed>0.0</speed>
  <fix>3d</fix>
</trkpt>
<trkpt lat="33.810313" lon="-118.393867">
  <ele>-0.12</ele>
  <time>2026-09-01T01:17:38Z</time>
  <course>0.0</course>
  <speed>0.0</speed>
  <fix>3d</fix>
</trkpt>
<trkpt lat="33.810313" lon="-118.393867">
  <ele>-0.12</ele>
  <time>2026-09-01T01:17:38Z</time>
  <course>188.56</course>
  <speed>0.0</speed>
  <fix>3d</fix>
</trkpt>
<trkpt lat="33.810313" lon="-118.393867">
  <ele>-0.12</ele>
  <time>2026-09-01T01:17:38Z</time>
  <course>0.0</course>
  <speed>0.0</speed>
  <fix>3d</fix>
</trkpt>
<trkpt lat="33.810313" lon="-118.393867">
  <ele>-0.119</ele>
  <time>2026-09-01T01:17:38Z</time>
  <course>188.56</course>
  <speed>0.0</speed>
  <fix>3d</fix>
</trkpt>
<trkpt lat="33.810313" lon="-118.393867">
  <ele>-0.12</ele>
  <time>2026-09-01T01:17:38Z</time>
  <course>0.0</course>
  <speed>0.0</speed>
  <fix>3d</fix>
</trkpt>
<trkpt lat="33.810313" lon="-118.393867">
  <ele>-0.12</ele>
  <time>2026-09-01T01:17:38Z</time>
  <course>188.56</course>
  <speed>0.0</speed>
  <fix>3d</fix>
</trkpt>
<trkpt lat="33.810313" lon="-118.393867">
  <ele>-0.12</ele>
  <time>2026-09-01T01:17:38Z</time>
  <course>0.0</course>
  <speed>0.0</speed>
  <fix>3d</fix>
</trkpt>
<trkpt lat="33.810313" lon="-118.393867">
  <ele>-0.123</ele>
  <time>2026-09-01T01:17:38Z</time>
  <course>188.55</course>
  <speed>0.0</speed>
  <fix>3d</fix>
</trkpt>
<trkpt lat="33.810313" lon="-118.393867">
  <ele>-0.12</ele>
  <time>2026-09-01T01:17:38Z</time>
  <course>0.0</course>
  <speed>0.0</speed>
  <fix>3d</fix>
</trkpt>
<trkpt lat="33.810313" lon="-118.393867">
  <ele>-0.127</ele>
  <time>2026-09-01T01:17:38Z</time>
  <course>188.55</course>
  <speed>0.0</speed>
  <fix>3d</fix>
</trkpt>
<trkpt lat="33.810313" lon="-118.393867">
  <ele>-0.12</ele>
  <time>2026-09-01T01:17:38Z</time>
  <course>0.0</course>
  <speed>0.0</speed>
  <fix>3d</fix>
</trkpt>
<trkpt lat="33.810313" lon="-118.393867">
  <ele>-0.13</ele>
  <time>2026-09-01T01:17:38Z</time>
  <course>188.55</course>
  <speed>0.0</speed>
  <fix>3d</fix>
</trkpt>
<trkpt lat="33.810313" lon="-118.393867">
  <ele>-0.12</ele>
  <time>2026-09-01T01:17:38Z</time>
  <course>0.0</course>
  <speed>0.0</speed>
  <fix>3d</fix>
</trkpt>
<trkpt lat="33.810313" lon="-118.393867">
  <ele>-0.132</ele>
  <time>2026-09-01T01:17:38Z</time>
  <course>188.55</course>
  <speed>0.0</speed>
  <fix>3d</fix>
</trkpt>
<trkpt lat="33.810313" lon="-118.393867">
  <ele>-0.12</ele>
  <time>2026-09-01T01:17:38Z</time>
  <course>0.0</course>
  <speed>0.0</speed>
  <fix>3d</fix>
</trkpt>
<trkpt lat="33.810313" lon="-118.393867">
  <ele>-0.132</ele>
  <time>2026-09-01T01:17:38Z</time>
  <course>188.55</course>
  <speed>0.0</speed>
  <fix>3d</fix>
</trkpt>
<trkpt lat="33.810313" lon="-118.393867">
  <ele>-0.12</ele>
  <time>2026-09-01T01:17:38Z</time>
  <course>0.0</course>
  <speed>0.0</speed>
  <fix>3d</fix>
</trkpt>
<trkpt lat="33.810313" lon="-118.393867">
  <ele>-0.132</ele>
  <time>2026-09-01T01:17:38Z</time>
  <course>188.55</course>
  <speed>0.0</speed>
  <fix>3d</fix>
</trkpt>
<trkpt lat="33.810313" lon="-118.393867">
  <ele>-0.12</ele>
  <time>2026-09-01T01:17:38Z</time>
  <course>0.0</course>
  <speed>0.0</speed>
  <fix>3d</fix>
</trkpt>
<trkpt lat="33.810313" lon="-118.393867">
  <ele>-0.132</ele>
  <time>2026-09-01T01:17:38Z</time>
  <course>188.55</course>
  <speed>0.0</speed>
  <fix>3d</fix>
</trkpt>
<trkpt lat="33.810313" lon="-118.393867">
  <ele>-0.12</ele>
  <time>2026-09-01T01:17:38Z</time>
  <course>0.0</course>
  <speed>0.0</speed>
  <fix>3d</fix>
</trkpt>
<trkpt lat="33.810313" lon="-118.393867">
  <ele>-0.131</ele>
  <time>2026-09-01T01:17:38Z</time>
  <course>188.55</course>
  <speed>0.0</speed>
  <fix>3d</fix>
</trkpt>
<trkpt lat="33.810313" lon="-118.393867">
  <ele>-0.12</ele>
  <time>2026-09-01T01:17:38Z</time>
  <course>0.0</course>
  <speed>0.0</speed>
  <fix>3d</fix>
</trkpt>
<trkpt lat="33.810313" lon="-118.393867">
  <ele>-0.129</ele>
  <time>2026-09-01T01:17:38Z</time>
  <course>188.54</course>
  <speed>0.0</speed>
  <fix>3d</fix>
</trkpt>
<trkpt lat="33.810313" lon="-118.393867">
  <ele>-0.13</ele>
  <time>2026-09-01T01:17:38Z</time>
  <course>0.0</course>
  <speed>0.0</speed>
  <fix>3d</fix>
</trkpt>
<trkpt lat="33.810313" lon="-118.393867">
  <ele>-0.128</ele>
  <time>2026-09-01T01:17:38Z</time>
  <course>188.54</course>
  <speed>0.0</speed>
  <fix>3d</fix>
</trkpt>
<trkpt lat="33.810313" lon="-118.393867">
  <ele>-0.13</ele>
  <time>2026-09-01T01:17:38Z</time>
  <course>0.0</course>
  <speed>0.0</speed>
  <fix>3d</fix>
</trkpt>
<trkpt lat="33.810313" lon="-118.393867">
  <ele>-0.125</ele>
  <time>2026-09-01T01:17:38Z</time>
  <course>188.53</course>
  <speed>0.0</speed>
  <fix>3d</fix>
</trkpt>
<trkpt lat="33.810313" lon="-118.393867">
  <ele>-0.12</ele>
  <time>2026-09-01T01:17:38Z</time>
  <course>0.0</course>
  <speed>0.0</speed>
  <fix>3d</fix>
</trkpt>
<trkpt lat="33.810313" lon="-118.393867">
  <ele>-0.123</ele>
  <time>2026-09-01T01:17:38Z</time>
  <course>188.53</course>
  <speed>0.0</speed>
  <fix>3d</fix>
</trkpt>
<trkpt lat="33.810313" lon="-118.393867">
  <ele>-0.12</ele>
  <time>2026-09-01T01:17:38Z</time>
  <course>0.0</course>
  <speed>0.0</speed>
  <fix>3d</fix>
</trkpt>
<trkpt lat="33.810313" lon="-118.393867">
  <ele>-0.121</ele>
  <time>2026-09-01T01:17:38Z</time>
  <course>188.52</course>
  <speed>0.0</speed>
  <fix>3d</fix>
</trkpt>
<trkpt lat="33.810313" lon="-118.393867">
  <ele>-0.12</ele>
  <time>2026-09-01T01:17:38Z</time>
  <course>0.0</course>
  <speed>0.0</speed>
  <fix>3d</fix>
</trkpt>
<trkpt lat="33.810313" lon="-118.393867">
  <ele>-0.121</ele>
  <time>2026-09-01T01:17:38Z</time>
  <course>188.52</course>
  <speed>0.0</speed>
  <fix>3d</fix>
</trkpt>
<trkpt lat="33.810313" lon="-118.393867">
  <ele>-0.12</ele>
  <time>2026-09-01T01:17:38Z</time>
  <course>0.0</course>
  <speed>0.0</speed>
  <fix>3d</fix>
</trkpt>
<trkpt lat="33.810313" lon="-118.393867">
  <ele>-0.121</ele>
  <time>2026-09-01T01:17:38Z</time>
  <course>188.51</course>
  <speed>0.0</speed>
  <fix>3d</fix>
</trkpt>
<trkpt lat="33.810313" lon="-118.393867">
  <ele>-0.12</ele>
  <time>2026-09-01T01:17:38Z</time>
  <course>0.0</course>
  <speed>0.0</speed>
  <fix>3d</fix>
</trkpt>
<trkpt lat="33.810313" lon="-118.393867">
  <ele>-0.123</ele>
  <time>2026-09-01T01:17:38Z</time>
  <course>188.51</course>
  <speed>0.0</speed>
  <fix>3d</fix>
</trkpt>
<trkpt lat="33.810313" lon="-118.393867">
  <ele>-0.12</ele>
  <time>2026-09-01T01:17:38Z</time>
  <course>0.0</course>
  <speed>0.0</speed>
  <fix>3d</fix>
</trkpt>
<trkpt lat="33.810313" lon="-118.393867">
  <ele>-0.126</ele>
  <time>2026-09-01T01:17:38Z</time>
  <course>188.5</course>
  <speed>0.0</speed>
  <fix>3d</fix>
</trkpt>
<trkpt lat="33.810313" lon="-118.393867">
  <ele>-0.12</ele>
  <time>2026-09-01T01:17:38Z</time>
  <course>0.0</course>
  <speed>0.0</speed>
  <fix>3d</fix>
</trkpt>
<trkpt lat="33.810313" lon="-118.393867">
  <ele>-0.127</ele>
  <time>2026-09-01T01:17:38Z</time>
  <course>188.5</course>
  <speed>0.0</speed>
  <fix>3d</fix>
</trkpt>
<trkpt lat="33.810313" lon="-118.393867">
  <ele>-0.12</ele>
  <time>2026-09-01T01:17:38Z</time>
  <course>0.0</course>
  <speed>0.0</speed>
  <fix>3d</fix>
</trkpt>
<trkpt lat="33.810313" lon="-118.393867">
  <ele>-0.128</ele>
  <time>2026-09-01T01:17:38Z</time>
  <course>188.49</course>
  <speed>0.0</speed>
  <fix>3d</fix>
</trkpt>
<trkpt lat="33.810313" lon="-118.393867">
  <ele>-0.12</ele>
  <time>2026-09-01T01:17:38Z</time>
  <course>0.0</course>
  <speed>0.0</speed>
  <fix>3d</fix>
</trkpt>
<trkpt lat="33.810313" lon="-118.393867">
  <ele>-0.127</ele>
  <time>2026-09-01T01:17:38Z</time>
  <course>188.49</course>
  <speed>0.0</speed>
  <fix>3d</fix>
</trkpt>
<trkpt lat="33.810313" lon="-118.393867">
  <ele>-0.12</ele>
  <time>2026-09-01T01:17:38Z</time>
  <course>0.0</course>
  <speed>0.0</speed>
  <fix>3d</fix>
</trkpt>
<trkpt lat="33.810313" lon="-118.393867">
  <ele>-0.127</ele>
  <time>2026-09-01T01:17:38Z</time>
  <course>188.48</course>
  <speed>0.0</speed>
  <fix>3d</fix>
</trkpt>
<trkpt lat="33.810313" lon="-118.393867">
  <ele>-0.12</ele>
  <time>2026-09-01T01:17:38Z</time>
  <course>0.0</course>
  <speed>0.0</speed>
  <fix>3d</fix>
</trkpt>
<trkpt lat="33.810313" lon="-118.393867">
  <ele>-0.127</ele>
  <time>2026-09-01T01:17:38Z</time>
  <course>188.47</course>
  <speed>0.01</speed>
  <fix>3d</fix>
</trkpt>
<trkpt lat="33.810313" lon="-118.393867">
  <ele>-0.12</ele>
  <time>2026-09-01T01:17:38Z</time>
  <course>0.0</course>
  <speed>0.0</speed>
  <fix>3d</fix>
</trkpt>
<trkpt lat="33.810313" lon="-118.393867">
  <ele>-0.127</ele>
  <time>2026-09-01T01:17:38Z</time>
  <course>188.47</course>
  <speed>0.01</speed>
  <fix>3d</fix>
</trkpt>
<trkpt lat="33.810313" lon="-118.393867">
  <ele>-0.12</ele>
  <time>2026-09-01T01:17:38Z</time>
  <course>0.0</course>
  <speed>0.0</speed>
  <fix>3d</fix>
</trkpt>
<trkpt lat="33.810313" lon="-118.393867">
  <ele>-0.127</ele>
  <time>2026-09-01T01:17:38Z</time>
  <course>188.46</course>
  <speed>0.01</speed>
  <fix>3d</fix>
</trkpt>
<trkpt lat="33.810313" lon="-118.393867">
  <ele>-0.12</ele>
  <time>2026-09-01T01:17:38Z</time>
  <course>0.0</course>
  <speed>0.0</speed>
  <fix>3d</fix>
</trkpt>
<trkpt lat="33.810313" lon="-118.393867">
  <ele>-0.126</ele>
  <time>2026-09-01T01:17:38Z</time>
  <course>188.45</course>
  <speed>0.01</speed>
  <fix>3d</fix>
</trkpt>
<trkpt lat="33.810313" lon="-118.393867">
  <ele>-0.12</ele>
  <time>2026-09-01T01:17:38Z</time>
  <course>0.0</course>
  <speed>0.0</speed>
  <fix>3d</fix>
</trkpt>
<trkpt lat="33.810313" lon="-118.393867">
  <ele>-0.126</ele>
  <time>2026-09-01T01:17:38Z</time>
  <course>188.45</course>
  <speed>0.01</speed>
  <fix>3d</fix>
</trkpt>
<trkpt lat="33.810313" lon="-118.393867">
  <ele>-0.12</ele>
  <time>2026-09-01T01:17:38Z</time>
  <course>0.0</course>
  <speed>0.0</speed>
  <fix>3d</fix>
</trkpt>
<trkpt lat="33.810313" lon="-118.393867">
  <ele>-0.125</ele>
  <time>2026-09-01T01:17:38Z</time>
  <course>188.44</course>
  <speed>0.01</speed>
  <fix>3d</fix>
</trkpt>
<trkpt lat="33.810313" lon="-118.393867">
  <ele>-0.12</ele>
  <time>2026-09-01T01:17:38Z</time>
  <course>0.0</course>
  <speed>0.0</speed>
  <fix>3d</fix>
</trkpt>
<trkpt lat="33.810313" lon="-118.393867">
  <ele>-0.126</ele>
  <time>2026-09-01T01:17:38Z</time>
  <course>188.43</course>
  <speed>0.01</speed>
  <fix>3d</fix>
</trkpt>
<trkpt lat="33.810313" lon="-118.393867">
  <ele>-0.12</ele>
  <time>2026-09-01T01:17:38Z</time>
  <course>0.0</course>
  <speed>0.0</speed>
  <fix>3d</fix>
</trkpt>
<trkpt lat="33.810313" lon="-118.393867">
  <ele>-0.127</ele>
  <time>2026-09-01T01:17:38Z</time>
  <course>188.42</course>
  <speed>0.01</speed>
  <fix>3d</fix>
</trkpt>
<trkpt lat="33.810313" lon="-118.393867">
  <ele>-0.12</ele>
  <time>2026-09-01T01:17:38Z</time>
  <course>0.0</course>
  <speed>0.0</speed>
  <fix>3d</fix>
</trkpt>
<trkpt lat="33.810313" lon="-118.393867">
  <ele>-0.128</ele>
  <time>2026-09-01T01:17:38Z</time>
  <course>188.42</course>
  <speed>0.01</speed>
  <fix>3d</fix>
</trkpt>
<trkpt lat="33.810313" lon="-118.393867">
  <ele>-0.12</ele>
  <time>2026-09-01T01:17:38Z</time>
  <course>0.0</course>
  <speed>0.0</speed>
  <fix>3d</fix>
</trkpt>
<trkpt lat="33.810313" lon="-118.393867">
  <ele>-0.129</ele>
  <time>2026-09-01T01:17:38Z</time>
  <course>188.41</course>
  <speed>0.01</speed>
  <fix>3d</fix>
</trkpt>
<trkpt lat="33.810313" lon="-118.393867">
  <ele>-0.12</ele>
  <time>2026-09-01T01:17:38Z</time>
  <course>0.0</course>
  <speed>0.0</speed>
  <fix>3d</fix>
</trkpt>
<trkpt lat="33.810313" lon="-118.393867">
  <ele>-0.129</ele>
  <time>2026-09-01T01:17:38Z</time>
  <course>188.4</course>
  <speed>0.01</speed>
  <fix>3d</fix>
</trkpt>
<trkpt lat="33.810313" lon="-118.393867">
  <ele>-0.12</ele>
  <time>2026-09-01T01:17:38Z</time>
  <course>0.0</course>
  <speed>0.0</speed>
  <fix>3d</fix>
</trkpt>
<trkpt lat="33.810313" lon="-118.393867">
  <ele>-0.13</ele>
  <time>2026-09-01T01:17:38Z</time>
  <course>188.4</course>
  <speed>0.01414213562373095</speed>
  <fix>3d</fix>
</trkpt>
<trkpt lat="33.810313" lon="-118.393867">
  <ele>-0.12</ele>
  <time>2026-09-01T01:17:38Z</time>
  <course>0.0</course>
  <speed>0.0</speed>
  <fix>3d</fix>
</trkpt>
<trkpt lat="33.810313" lon="-118.393867">
  <ele>-0.13</ele>
  <time>2026-09-01T01:17:38Z</time>
  <course>188.39</course>
  <speed>0.01414213562373095</speed>
  <fix>3d</fix>
</trkpt>
<trkpt lat="33.810313" lon="-118.393867">
  <ele>-0.12</ele>
  <time>2026-09-01T01:17:38Z</time>
  <course>0.0</course>
  <speed>0.0</speed>
  <fix>3d</fix>
</trkpt>
<trkpt lat="33.810313" lon="-118.393867">
  <ele>-0.13</ele>
  <time>2026-09-01T01:17:38Z</time>
  <course>188.38</course>
  <speed>0.01414213562373095</speed>
  <fix>3d</fix>
</trkpt>
<trkpt lat="33.810313" lon="-118.393867">
  <ele>-0.12</ele>
  <time>2026-09-01T01:17:38Z</time>
  <course>0.0</course>
  <speed>0.0</speed>
  <fix>3d</fix>
</trkpt>
<trkpt lat="33.810313" lon="-118.393867">
  <ele>-0.129</ele>
  <time>2026-09-01T01:17:38Z</time>
  <course>188.37</course>
  <speed>0.01414213562373095</speed>
  <fix>3d</fix>
</trkpt>
<trkpt lat="33.810313" lon="-118.393867">
  <ele>-0.12</ele>
  <time>2026-09-01T01:17:38Z</time>
  <course>0.0</course>
  <speed>0.0</speed>
  <fix>3d</fix>
</trkpt>
<trkpt lat="33.810313" lon="-118.393867">
  <ele>-0.128</ele>
  <time>2026-09-01T01:17:38Z</time>
  <course>188.37</course>
  <speed>0.01414213562373095</speed>
  <fix>3d</fix>
</trkpt>
<trkpt lat="33.810313" lon="-118.393867">
  <ele>-0.12</ele>
  <time>2026-09-01T01:17:38Z</time>
  <course>0.0</course>
  <speed>0.0</speed>
  <fix>3d</fix>
</trkpt>
<trkpt lat="33.810313" lon="-118.393867">
  <ele>-0.126</ele>
  <time>2026-09-01T01:17:38Z</time>
  <course>188.36</course>
  <speed>0.01414213562373095</speed>
  <fix>3d</fix>
</trkpt>
<trkpt lat="33.810313" lon="-118.393867">
  <ele>-0.12</ele>
  <time>2026-09-01T01:17:38Z</time>
  <course>0.0</course>
  <speed>0.0</speed>
  <fix>3d</fix>
</trkpt>
<trkpt lat="33.810313" lon="-118.393867">
  <ele>-0.124</ele>
  <time>2026-09-01T01:17:38Z</time>
  <course>188.35</course>
  <speed>0.01414213562373095</speed>
  <fix>3d</fix>
</trkpt>
<trkpt lat="33.810313" lon="-118.393867">
  <ele>-0.12</ele>
  <time>2026-09-01T01:17:38Z</time>
  <course>0.0</course>
  <speed>0.0</speed>
  <fix>3d</fix>
</trkpt>
<trkpt lat="33.810313" lon="-118.393867">
  <ele>-0.122</ele>
  <time>2026-09-01T01:17:38Z</time>
  <course>188.34</course>
  <speed>0.01414213562373095</speed>
  <fix>3d</fix>
</trkpt>
<trkpt lat="33.810313" lon="-118.393867">
  <ele>-0.12</ele>
  <time>2026-09-01T01:17:38Z</time>
  <course>0.0</course>
  <speed>0.0</speed>
  <fix>3d</fix>
</trkpt>
<trkpt lat="33.810313" lon="-118.393867">
  <ele>-0.123</ele>
  <time>2026-09-01T01:17:38Z</time>
  <course>188.34</course>
  <speed>0.01414213562373095</speed>
  <fix>3d</fix>
</trkpt>
<trkpt lat="33.810313" lon="-118.393867">
  <ele>-0.12</ele>
  <time>2026-09-01T01:17:38Z</time>
  <course>0.0</course>
  <speed>0.0</speed>
  <fix>3d</fix>
</trkpt>
<trkpt lat="33.810313" lon="-118.393867">
  <ele>-0.125</ele>
  <time>2026-09-01T01:17:38Z</time>
  <course>188.33</course>
  <speed>0.01414213562373095</speed>
  <fix>3d</fix>
</trkpt>
<trkpt lat="33.810313" lon="-118.393867">
  <ele>-0.12</ele>
  <time>2026-09-01T01:17:38Z</time>
  <course>0.0</course>
  <speed>0.0</speed>
  <fix>3d</fix>
</trkpt>
<trkpt lat="33.810313" lon="-118.393867">
  <ele>-0.128</ele>
  <time>2026-09-01T01:17:38Z</time>
  <course>188.32</course>
  <speed>0.01414213562373095</speed>
  <fix>3d</fix>
</trkpt>
<trkpt lat="33.810313" lon="-118.393867">
  <ele>-0.12</ele>
  <time>2026-09-01T01:17:38Z</time>
  <course>0.0</course>
  <speed>0.0</speed>
  <fix>3d</fix>
</trkpt>
<trkpt lat="33.810313" lon="-118.393867">
  <ele>-0.131</ele>
  <time>2026-09-01T01:17:38Z</time>
  <course>188.31</course>
  <speed>0.01414213562373095</speed>
  <fix>3d</fix>
</trkpt>
<trkpt lat="33.810313" lon="-118.393867">
  <ele>-0.12</ele>
  <time>2026-09-01T01:17:38Z</time>
  <course>0.0</course>
  <speed>0.0</speed>
  <fix>3d</fix>
</trkpt>
<trkpt lat="33.810313" lon="-118.393867">
  <ele>-0.134</ele>
  <time>2026-09-01T01:17:38Z</time>
  <course>188.3</course>
  <speed>0.01414213562373095</speed>
  <fix>3d</fix>
</trkpt>
<trkpt lat="33.810313" lon="-118.393867">
  <ele>-0.12</ele>
  <time>2026-09-01T01:17:38Z</time>
  <course>0.0</course>
  <speed>0.0</speed>
  <fix>3d</fix>
</trkpt>
<trkpt lat="33.810313" lon="-118.393867">
  <ele>-0.135</ele>
  <time>2026-09-01T01:17:38Z</time>
  <course>188.3</course>
  <speed>0.01414213562373095</speed>
  <fix>3d</fix>
</trkpt>
<trkpt lat="33.810313" lon="-118.393867">
  <ele>-0.12</ele>
  <time>2026-09-01T01:17:38Z</time>
  <course>0.0</course>
  <speed>0.0</speed>
  <fix>3d</fix>
</trkpt>
<trkpt lat="33.810313" lon="-118.393867">
  <ele>-0.134</ele>
  <time>2026-09-01T01:17:38Z</time>
  <course>188.29</course>
  <speed>0.01414213562373095</speed>
  <fix>3d</fix>
</trkpt>
<trkpt lat="33.810313" lon="-118.393867">
  <ele>-0.12</ele>
  <time>2026-09-01T01:17:38Z</time>
  <course>0.0</course>
  <speed>0.0</speed>
  <fix>3d</fix>
</trkpt>
<trkpt lat="33.810313" lon="-118.393867">
  <ele>-0.132</ele>
  <time>2026-09-01T01:17:38Z</time>
  <course>188.28</course>
  <speed>0.01414213562373095</speed>
  <fix>3d</fix>
</trkpt>
<trkpt lat="33.810313" lon="-118.393867">
  <ele>-0.12</ele>
  <time>2026-09-01T01:17:38Z</time>
  <course>0.0</course>
  <speed>0.0</speed>
  <fix>3d</fix>
</trkpt>
<trkpt lat="33.810313" lon="-118.393867">
  <ele>-0.13</ele>
  <time>2026-09-01T01:17:38Z</time>
  <course>188.27</course>
  <speed>0.01414213562373095</speed>
  <fix>3d</fix>
</trkpt>
<trkpt lat="33.810313" lon="-118.393867">
  <ele>-0.12</ele>
  <time>2026-09-01T01:17:38Z</time>
  <course>0.0</course>
  <speed>0.0</speed>
  <fix>3d</fix>
</trkpt>
<trkpt lat="33.810313" lon="-118.393867">
  <ele>-0.127</ele>
  <time>2026-09-01T01:17:38Z</time>
  <course>188.26</course>
  <speed>0.01414213562373095</speed>
  <fix>3d</fix>
</trkpt>
<trkpt lat="33.810313" lon="-118.393867">
  <ele>-0.12</ele>
  <time>2026-09-01T01:17:38Z</time>
  <course>0.0</course>
  <speed>0.0</speed>
  <fix>3d</fix>
</trkpt>
<trkpt lat="33.810313" lon="-118.393867">
  <ele>-0.125</ele>
  <time>2026-09-01T01:17:38Z</time>
  <course>188.25</course>
  <speed>0.01414213562373095</speed>
  <fix>3d</fix>
</trkpt>
<trkpt lat="33.810313" lon="-118.393867">
  <ele>-0.12</ele>
  <time>2026-09-01T01:17:38Z</time>
  <course>0.0</course>
  <speed>0.0</speed>
  <fix>3d</fix>
</trkpt>
<trkpt lat="33.810313" lon="-118.393867">
  <ele>-0.123</ele>
  <time>2026-09-01T01:17:38Z</time>
  <course>188.25</course>
  <speed>0.01414213562373095</speed>
  <fix>3d</fix>
</trkpt>
<trkpt lat="33.810313" lon="-118.393867">
  <ele>-0.12</ele>
  <time>2026-09-01T01:17:38Z</time>
  <course>0.0</course>
  <speed>0.0</speed>
  <fix>3d</fix>
</trkpt>
<trkpt lat="33.810313" lon="-118.393867">
  <ele>-0.124</ele>
  <time>2026-09-01T01:17:38Z</time>
  <course>188.24</course>
  <speed>0.01414213562373095</speed>
  <fix>3d</fix>
</trkpt>
<trkpt lat="33.810313" lon="-118.393867">
  <ele>-0.12</ele>
  <time>2026-09-01T01:17:38Z</time>
  <course>0.0</course>
  <speed>0.0</speed>
  <fix>3d</fix>
</trkpt>
<trkpt lat="33.810313" lon="-118.393867">
  <ele>-0.125</ele>
  <time>2026-09-01T01:17:38Z</time>
  <course>188.23</course>
  <speed>0.01414213562373095</speed>
  <fix>3d</fix>
</trkpt>
<trkpt lat="33.810313" lon="-118.393867">
  <ele>-0.12</ele>
  <time>2026-09-01T01:17:38Z</time>
  <course>0.0</course>
  <speed>0.0</speed>
  <fix>3d</fix>
</trkpt>
<trkpt lat="33.810313" lon="-118.393867">
  <ele>-0.127</ele>
  <time>2026-09-01T01:17:38Z</time>
  <course>188.22</course>
  <speed>0.01414213562373095</speed>
  <fix>3d</fix>
</trkpt>
<trkpt lat="33.810313" lon="-118.393867">
  <ele>-0.12</ele>
  <time>2026-09-01T01:17:38Z</time>
  <course>0.0</course>
  <speed>0.0</speed>
  <fix>3d</fix>
</trkpt>
<trkpt lat="33.810313" lon="-118.393867">
  <ele>-0.128</ele>
  <time>2026-09-01T01:17:38Z</time>
  <course>188.21</course>
  <speed>0.01414213562373095</speed>
  <fix>3d</fix>
</trkpt>
<trkpt lat="33.810313" lon="-118.393867">
  <ele>-0.12</ele>
  <time>2026-09-01T01:17:38Z</time>
  <course>0.0</course>
  <speed>0.0</speed>
  <fix>3d</fix>
</trkpt>
<trkpt lat="33.810313" lon="-118.393867">
  <ele>-0.129</ele>
  <time>2026-09-01T01:17:38Z</time>
  <course>188.21</course>
  <speed>0.01414213562373095</speed>
  <fix>3d</fix>
</trkpt>
<trkpt lat="33.810313" lon="-118.393867">
  <ele>-0.12</ele>
  <time>2026-09-01T01:17:38Z</time>
  <course>0.0</course>
  <speed>0.0</speed>
  <fix>3d</fix>
</trkpt>
<trkpt lat="33.810313" lon="-118.393867">
  <ele>-0.129</ele>
  <time>2026-09-01T01:17:38Z</time>
  <course>188.2</course>
  <speed>0.01414213562373095</speed>
  <fix>3d</fix>
</trkpt>
<trkpt lat="33.810313" lon="-118.393867">
  <ele>-0.12</ele>
  <time>2026-09-01T01:17:38Z</time>
  <course>0.0</course>
  <speed>0.0</speed>
  <fix>3d</fix>
</trkpt>
<trkpt lat="33.810313" lon="-118.393867">
  <ele>-0.128</ele>
  <time>2026-09-01T01:17:38Z</time>
  <course>188.19</course>
  <speed>0.01414213562373095</speed>
  <fix>3d</fix>
</trkpt>
<trkpt lat="33.810313" lon="-118.393867">
  <ele>-0.12</ele>
  <time>2026-09-01T01:17:38Z</time>
  <course>0.0</course>
  <speed>0.0</speed>
  <fix>3d</fix>
</trkpt>
<trkpt lat="33.810313" lon="-118.393867">
  <ele>-0.128</ele>
  <time>2026-09-01T01:17:38Z</time>
  <course>188.18</course>
  <speed>0.01414213562373095</speed>
  <fix>3d</fix>
</trkpt>
<trkpt lat="33.810313" lon="-118.393867">
  <ele>-0.12</ele>
  <time>2026-09-01T01:17:38Z</time>
  <course>0.0</course>
  <speed>0.0</speed>
  <fix>3d</fix>
</trkpt>
<trkpt lat="33.810313" lon="-118.393867">
  <ele>-0.127</ele>
  <time>2026-09-01T01:17:38Z</time>
  <course>188.17</course>
  <speed>0.01414213562373095</speed>
  <fix>3d</fix>
</trkpt>
<trkpt lat="33.810313" lon="-118.393867">
  <ele>-0.12</ele>
  <time>2026-09-01T01:17:38Z</time>
  <course>0.0</course>
  <speed>0.0</speed>
  <fix>3d</fix>
</trkpt>
<trkpt lat="33.810313" lon="-118.393867">
  <ele>-0.127</ele>
  <time>2026-09-01T01:17:38Z</time>
  <course>188.16</course>
  <speed>0.01414213562373095</speed>
  <fix>3d</fix>
</trkpt>
<trkpt lat="33.810313" lon="-118.393867">
  <ele>-0.12</ele>
  <time>2026-09-01T01:17:38Z</time>
  <course>0.0</course>
  <speed>0.0</speed>
  <fix>3d</fix>
</trkpt>
<trkpt lat="33.810313" lon="-118.393867">
  <ele>-0.128</ele>
  <time>2026-09-01T01:17:38Z</time>
  <course>188.16</course>
  <speed>0.01414213562373095</speed>
  <fix>3d</fix>
</trkpt>
<trkpt lat="33.810313" lon="-118.393867">
  <ele>-0.12</ele>
  <time>2026-09-01T01:17:38Z</time>
  <course>0.0</course>
  <speed>0.0</speed>
  <fix>3d</fix>
</trkpt>
<trkpt lat="33.810313" lon="-118.393867">
  <ele>-0.129</ele>
  <time>2026-09-01T01:17:38Z</time>
  <course>188.15</course>
  <speed>0.01414213562373095</speed>
  <fix>3d</fix>
</trkpt>
<trkpt lat="33.810313" lon="-118.393867">
  <ele>-0.12</ele>
  <time>2026-09-01T01:17:38Z</time>
  <course>0.0</course>
  <speed>0.0</speed>
  <fix>3d</fix>
</trkpt>
<trkpt lat="33.810313" lon="-118.393867">
  <ele>-0.131</ele>
  <time>2026-09-01T01:17:38Z</time>
  <course>188.14</course>
  <speed>0.01414213562373095</speed>
  <fix>3d</fix>
</trkpt>
<trkpt lat="33.810313" lon="-118.393867">
  <ele>-0.12</ele>
  <time>2026-09-01T01:17:38Z</time>
  <course>0.0</course>
  <speed>0.0</speed>
  <fix>3d</fix>
</trkpt>
<trkpt lat="33.810313" lon="-118.393867">
  <ele>-0.133</ele>
  <time>2026-09-01T01:17:38Z</time>
  <course>188.13</course>
  <speed>0.01414213562373095</speed>
  <fix>3d</fix>
</trkpt>
<trkpt lat="33.810313" lon="-118.393867">
  <ele>-0.12</ele>
  <time>2026-09-01T01:17:38Z</time>
  <course>0.0</course>
  <speed>0.0</speed>
  <fix>3d</fix>
</trkpt>
<trkpt lat="33.810313" lon="-118.393867">
  <ele>-0.135</ele>
  <time>2026-09-01T01:17:38Z</time>
  <course>188.12</course>
  <speed>0.01414213562373095</speed>
  <fix>3d</fix>
</trkpt>
<trkpt lat="33.810313" lon="-118.393867">
  <ele>-0.12</ele>
  <time>2026-09-01T01:17:38Z</time>
  <course>0.0</course>
  <speed>0.0</speed>
  <fix>3d</fix>
</trkpt>
<trkpt lat="33.810313" lon="-118.393867">
  <ele>-0.136</ele>
  <time>2026-09-01T01:17:38Z</time>
  <course>188.12</course>
  <speed>0.01414213562373095</speed>
  <fix>3d</fix>
</trkpt>
<trkpt lat="33.810313" lon="-118.393867">
  <ele>-0.12</ele>
  <time>2026-09-01T01:17:38Z</time>
  <course>0.0</course>
  <speed>0.0</speed>
  <fix>3d</fix>
</trkpt>
<trkpt lat="33.810313" lon="-118.393867">
  <ele>-0.136</ele>
  <time>2026-09-01T01:17:38Z</time>
  <course>188.11</course>
  <speed>0.01414213562373095</speed>
  <fix>3d</fix>
</trkpt>
<trkpt lat="33.810313" lon="-118.393867">
  <ele>-0.12</ele>
  <time>2026-09-01T01:17:38Z</time>
  <course>0.0</course>
  <speed>0.0</speed>
  <fix>3d</fix>
</trkpt>
<trkpt lat="33.810313" lon="-118.393867">
  <ele>-0.136</ele>
  <time>2026-09-01T01:17:38Z</time>
  <course>188.1</course>
  <speed>0.01414213562373095</speed>
  <fix>3d</fix>
</trkpt>
<trkpt lat="33.810313" lon="-118.393867">
  <ele>-0.12</ele>
  <time>2026-09-01T01:17:38Z</time>
  <course>0.0</course>
  <speed>0.0</speed>
  <fix>3d</fix>
</trkpt>
<trkpt lat="33.810313" lon="-118.393867">
  <ele>-0.135</ele>
  <time>2026-09-01T01:17:38Z</time>
  <course>188.09</course>
  <speed>0.01414213562373095</speed>
  <fix>3d</fix>
</trkpt>
<trkpt lat="33.810313" lon="-118.393867">
  <ele>-0.12</ele>
  <time>2026-09-01T01:17:38Z</time>
  <course>0.0</course>
  <speed>0.0</speed>
  <fix>3d</fix>
</trkpt>
<trkpt lat="33.810313" lon="-118.393867">
  <ele>-0.134</ele>
  <time>2026-09-01T01:17:38Z</time>
  <course>188.08</course>
  <speed>0.01414213562373095</speed>
  <fix>3d</fix>
</trkpt>
<trkpt lat="33.810313" lon="-118.393867">
  <ele>-0.12</ele>
  <time>2026-09-01T01:17:38Z</time>
  <course>0.0</course>
  <speed>0.0</speed>
  <fix>3d</fix>
</trkpt>
<trkpt lat="33.810313" lon="-118.393867">
  <ele>-0.131</ele>
  <time>2026-09-01T01:17:38Z</time>
  <course>188.07</course>
  <speed>0.022360679774997897</speed>
  <fix>3d</fix>
</trkpt>
<trkpt lat="33.810313" lon="-118.393867">
  <ele>-0.12</ele>
  <time>2026-09-01T01:17:38Z</time>
  <course>0.0</course>
  <speed>0.0</speed>
  <fix>3d</fix>
</trkpt>
<trkpt lat="33.810313" lon="-118.393867">
  <ele>-0.128</ele>
  <time>2026-09-01T01:17:38Z</time>
  <course>188.07</course>
  <speed>0.022360679774997897</speed>
  <fix>3d</fix>
</trkpt>
<trkpt lat="33.810313" lon="-118.393867">
  <ele>-0.12</ele>
  <time>2026-09-01T01:17:38Z</time>
  <course>0.0</course>
  <speed>0.0</speed>
  <fix>3d</fix>
</trkpt>
<trkpt lat="33.810313" lon="-118.393867">
  <ele>-0.127</ele>
  <time>2026-09-01T01:17:38Z</time>
  <course>188.06</course>
  <speed>0.022360679774997897</speed>
  <fix>3d</fix>
</trkpt>
<trkpt lat="33.810313" lon="-118.393867">
  <ele>-0.12</ele>
  <time>2026-09-01T01:17:38Z</time>
  <course>0.0</course>
  <speed>0.0</speed>
  <fix>3d</fix>
</trkpt>
<trkpt lat="33.810313" lon="-118.393867">
  <ele>-0.126</ele>
  <time>2026-09-01T01:17:38Z</time>
  <course>188.05</course>
  <speed>0.022360679774997897</speed>
  <fix>3d</fix>
</trkpt>
<trkpt lat="33.810313" lon="-118.393867">
  <ele>-0.12</ele>
  <time>2026-09-01T01:17:38Z</time>
  <course>0.0</course>
  <speed>0.0</speed>
  <fix>3d</fix>
</trkpt>
<trkpt lat="33.810313" lon="-118.393867">
  <ele>-0.126</ele>
  <time>2026-09-01T01:17:38Z</time>
  <course>188.04</course>
  <speed>0.022360679774997897</speed>
  <fix>3d</fix>
</trkpt>
<trkpt lat="33.810313" lon="-118.393867">
  <ele>-0.12</ele>
  <time>2026-09-01T01:17:38Z</time>
  <course>0.0</course>
  <speed>0.0</speed>
  <fix>3d</fix>
</trkpt>
<trkpt lat="33.810313" lon="-118.393867">
  <ele>-0.127</ele>
  <time>2026-09-01T01:17:38Z</time>
  <course>188.03</course>
  <speed>0.022360679774997897</speed>
  <fix>3d</fix>
</trkpt>
<trkpt lat="33.810313" lon="-118.393867">
  <ele>-0.12</ele>
  <time>2026-09-01T01:17:38Z</time>
  <course>0.0</course>
  <speed>0.0</speed>
  <fix>3d</fix>
</trkpt>
<trkpt lat="33.810313" lon="-118.393867">
  <ele>-0.127</ele>
  <time>2026-09-01T01:17:38Z</time>
  <course>188.03</course>
  <speed>0.022360679774997897</speed>
  <fix>3d</fix>
</trkpt>
<trkpt lat="33.810313" lon="-118.393867">
  <ele>-0.12</ele>
  <time>2026-09-01T01:17:38Z</time>
  <course>0.0</course>
  <speed>0.0</speed>
  <fix>3d</fix>
</trkpt>
<trkpt lat="33.810313" lon="-118.393867">
  <ele>-0.127</ele>
  <time>2026-09-01T01:17:38Z</time>
  <course>188.02</course>
  <speed>0.022360679774997897</speed>
  <fix>3d</fix>
</trkpt>
<trkpt lat="33.810313" lon="-118.393867">
  <ele>-0.12</ele>
  <time>2026-09-01T01:17:38Z</time>
  <course>0.0</course>
  <speed>0.0</speed>
  <fix>3d</fix>
</trkpt>
<trkpt lat="33.810313" lon="-118.393867">
  <ele>-0.128</ele>
  <time>2026-09-01T01:17:38Z</time>
  <course>188.01</course>
  <speed>0.022360679774997897</speed>
  <fix>3d</fix>
</trkpt>
<trkpt lat="33.810313" lon="-118.393867">
  <ele>-0.12</ele>
  <time>2026-09-01T01:17:38Z</time>
  <course>0.0</course>
  <speed>0.0</speed>
  <fix>3d</fix>
</trkpt>
<trkpt lat="33.810313" lon="-118.393867">
  <ele>-0.128</ele>
  <time>2026-09-01T01:17:38Z</time>
  <course>188.0</course>
  <speed>0.022360679774997897</speed>
  <fix>3d</fix>
</trkpt>
<trkpt lat="33.810313" lon="-118.393867">
  <ele>-0.12</ele>
  <time>2026-09-01T01:17:38Z</time>
  <course>0.0</course>
  <speed>0.0</speed>
  <fix>3d</fix>
</trkpt>
<trkpt lat="33.810313" lon="-118.393867">
  <ele>-0.128</ele>
  <time>2026-09-01T01:17:38Z</time>
  <course>187.99</course>
  <speed>0.022360679774997897</speed>
  <fix>3d</fix>
</trkpt>
<trkpt lat="33.810313" lon="-118.393867">
  <ele>-0.12</ele>
  <time>2026-09-01T01:17:38Z</time>
  <course>0.0</course>
  <speed>0.0</speed>
  <fix>3d</fix>
</trkpt>
<trkpt lat="33.810313" lon="-118.393867">
  <ele>-0.126</ele>
  <time>2026-09-01T01:17:38Z</time>
  <course>187.99</course>
  <speed>0.022360679774997897</speed>
  <fix>3d</fix>
</trkpt>
<trkpt lat="33.810313" lon="-118.393867">
  <ele>-0.12</ele>
  <time>2026-09-01T01:17:38Z</time>
  <course>0.0</course>
  <speed>0.0</speed>
  <fix>3d</fix>
</trkpt>
<trkpt lat="33.810313" lon="-118.393867">
  <ele>-0.124</ele>
  <time>2026-09-01T01:17:38Z</time>
  <course>187.98</course>
  <speed>0.022360679774997897</speed>
  <fix>3d</fix>
</trkpt>
<trkpt lat="33.810313" lon="-118.393867">
  <ele>-0.12</ele>
  <time>2026-09-01T01:17:38Z</time>
  <course>0.0</course>
  <speed>0.0</speed>
  <fix>3d</fix>
</trkpt>
<trkpt lat="33.810313" lon="-118.393867">
  <ele>-0.122</ele>
  <time>2026-09-01T01:17:38Z</time>
  <course>187.97</course>
  <speed>0.022360679774997897</speed>
  <fix>3d</fix>
</trkpt>
<trkpt lat="33.810313" lon="-118.393867">
  <ele>-0.12</ele>
  <time>2026-09-01T01:17:38Z</time>
  <course>0.0</course>
  <speed>0.0</speed>
  <fix>3d</fix>
</trkpt>
<trkpt lat="33.810313" lon="-118.393867">
  <ele>-0.12</ele>
  <time>2026-09-01T01:17:38Z</time>
  <course>187.96</course>
  <speed>0.022360679774997897</speed>
  <fix>3d</fix>
</trkpt>
<trkpt lat="33.810313" lon="-118.393867">
  <ele>-0.12</ele>
  <time>2026-09-01T01:17:38Z</time>
  <course>0.0</course>
  <speed>0.0</speed>
  <fix>3d</fix>
</trkpt>
<trkpt lat="33.810313" lon="-118.393867">
  <ele>-0.12</ele>
  <time>2026-09-01T01:17:38Z</time>
  <course>187.95</course>
  <speed>0.022360679774997897</speed>
  <fix>3d</fix>
</trkpt>
<trkpt lat="33.810313" lon="-118.393867">
  <ele>-0.12</ele>
  <time>2026-09-01T01:17:38Z</time>
  <course>0.0</course>
  <speed>0.0</speed>
  <fix>3d</fix>
</trkpt>
<trkpt lat="33.810313" lon="-118.393867">
  <ele>-0.122</ele>
  <time>2026-09-01T01:17:38Z</time>
  <course>187.94</course>
  <speed>0.022360679774997897</speed>
  <fix>3d</fix>
</trkpt>
<trkpt lat="33.810313" lon="-118.393867">
  <ele>-0.12</ele>
  <time>2026-09-01T01:17:38Z</time>
  <course>0.0</course>
  <speed>0.0</speed>
  <fix>3d</fix>
</trkpt>
<trkpt lat="33.810313" lon="-118.393867">
  <ele>-0.125</ele>
  <time>2026-09-01T01:17:38Z</time>
  <course>187.94</course>
  <speed>0.022360679774997897</speed>
  <fix>3d</fix>
</trkpt>
<trkpt lat="33.810313" lon="-118.393867">
  <ele>-0.12</ele>
  <time>2026-09-01T01:17:38Z</time>
  <course>0.0</course>
  <speed>0.0</speed>
  <fix>3d</fix>
</trkpt>
<trkpt lat="33.810313" lon="-118.393867">
  <ele>-0.128</ele>
  <time>2026-09-01T01:17:38Z</time>
  <course>187.93</course>
  <speed>0.022360679774997897</speed>
  <fix>3d</fix>
</trkpt>
<trkpt lat="33.810313" lon="-118.393867">
  <ele>-0.12</ele>
  <time>2026-09-01T01:17:38Z</time>
  <course>0.0</course>
  <speed>0.0</speed>
  <fix>3d</fix>
</trkpt>
<trkpt lat="33.810313" lon="-118.393867">
  <ele>-0.131</ele>
  <time>2026-09-01T01:17:38Z</time>
  <course>187.92</course>
  <speed>0.022360679774997897</speed>
  <fix>3d</fix>
</trkpt>
<trkpt lat="33.810313" lon="-118.393867">
  <ele>-0.12</ele>
  <time>2026-09-01T01:17:38Z</time>
  <course>0.0</course>
  <speed>0.0</speed>
  <fix>3d</fix>
</trkpt>
<trkpt lat="33.810313" lon="-118.393867">
  <ele>-0.132</ele>
  <time>2026-09-01T01:17:38Z</time>
  <course>187.91</course>
  <speed>0.022360679774997897</speed>
  <fix>3d</fix>
</trkpt>
<trkpt lat="33.810313" lon="-118.393867">
  <ele>-0.12</ele>
  <time>2026-09-01T01:17:38Z</time>
  <course>0.0</course>
  <speed>0.0</speed>
  <fix>3d</fix>
</trkpt>
<trkpt lat="33.810313" lon="-118.393867">
  <ele>-0.132</ele>
  <time>2026-09-01T01:17:38Z</time>
  <course>187.91</course>
  <speed>0.022360679774997897</speed>
  <fix>3d</fix>
</trkpt>
<trkpt lat="33.810313" lon="-118.393867">
  <ele>-0.12</ele>
  <time>2026-09-01T01:17:38Z</time>
  <course>0.0</course>
  <speed>0.0</speed>
  <fix>3d</fix>
</trkpt>
<trkpt lat="33.810313" lon="-118.393867">
  <ele>-0.132</ele>
  <time>2026-09-01T01:17:38Z</time>
  <course>187.9</course>
  <speed>0.022360679774997897</speed>
  <fix>3d</fix>
</trkpt>
<trkpt lat="33.810313" lon="-118.393867">
  <ele>-0.12</ele>
  <time>2026-09-01T01:17:38Z</time>
  <course>0.0</course>
  <speed>0.0</speed>
  <fix>3d</fix>
</trkpt>
<trkpt lat="33.810313" lon="-118.393867">
  <ele>-0.13</ele>
  <time>2026-09-01T01:17:38Z</time>
  <course>187.89</course>
  <speed>0.022360679774997897</speed>
  <fix>3d</fix>
</trkpt>
<trkpt lat="33.810313" lon="-118.393867">
  <ele>-0.12</ele>
  <time>2026-09-01T01:17:38Z</time>
  <course>0.0</course>
  <speed>0.0</speed>
  <fix>3d</fix>
</trkpt>
<trkpt lat="33.810313" lon="-118.393867">
  <ele>-0.127</ele>
  <time>2026-09-01T01:17:38Z</time>
  <course>187.88</course>
  <speed>0.022360679774997897</speed>
  <fix>3d</fix>
</trkpt>
<trkpt lat="33.810313" lon="-118.393867">
  <ele>-0.12</ele>
  <time>2026-09-01T01:17:38Z</time>
  <course>0.0</course>
  <speed>0.0</speed>
  <fix>3d</fix>
</trkpt>
<trkpt lat="33.810313" lon="-118.393867">
  <ele>-0.123</ele>
  <time>2026-09-01T01:17:38Z</time>
  <course>187.87</course>
  <speed>0.022360679774997897</speed>
  <fix>3d</fix>
</trkpt>
<trkpt lat="33.810313" lon="-118.393867">
  <ele>-0.12</ele>
  <time>2026-09-01T01:17:38Z</time>
  <course>0.0</course>
  <speed>0.0</speed>
  <fix>3d</fix>
</trkpt>
<trkpt lat="33.810313" lon="-118.393867">
  <ele>-0.121</ele>
  <time>2026-09-01T01:17:38Z</time>
  <course>187.87</course>
  <speed>0.022360679774997897</speed>
  <fix>3d</fix>
</trkpt>
<trkpt lat="33.810313" lon="-118.393867">
  <ele>-0.12</ele>
  <time>2026-09-01T01:17:38Z</time>
  <course>0.0</course>
  <speed>0.0</speed>
  <fix>3d</fix>
</trkpt>
<trkpt lat="33.810313" lon="-118.393867">
  <ele>-0.121</ele>
  <time>2026-09-01T01:17:38Z</time>
  <course>187.86</course>
  <speed>0.022360679774997897</speed>
  <fix>3d</fix>
</trkpt>
<trkpt lat="33.810313" lon="-118.393867">
  <ele>-0.12</ele>
  <time>2026-09-01T01:17:38Z</time>
  <course>0.0</course>
  <speed>0.0</speed>
  <fix>3d</fix>
</trkpt>
<trkpt lat="33.810313" lon="-118.393867">
  <ele>-0.123</ele>
  <time>2026-09-01T01:17:38Z</time>
  <course>187.85</course>
  <speed>0.022360679774997897</speed>
  <fix>3d</fix>
</trkpt>
<trkpt lat="33.810313" lon="-118.393867">
  <ele>-0.12</ele>
  <time>2026-09-01T01:17:38Z</time>
  <course>0.0</course>
  <speed>0.0</speed>
  <fix>3d</fix>
</trkpt>
<trkpt lat="33.810313" lon="-118.393867">
  <ele>-0.124</ele>
  <time>2026-09-01T01:17:38Z</time>
  <course>187.84</course>
  <speed>0.022360679774997897</speed>
  <fix>3d</fix>
</trkpt>
<trkpt lat="33.810313" lon="-118.393867">
  <ele>-0.12</ele>
  <time>2026-09-01T01:17:38Z</time>
  <course>0.0</course>
  <speed>0.0</speed>
  <fix>3d</fix>
</trkpt>
<trkpt lat="33.810313" lon="-118.393867">
  <ele>-0.126</ele>
  <time>2026-09-01T01:17:38Z</time>
  <course>187.83</course>
  <speed>0.022360679774997897</speed>
  <fix>3d</fix>
</trkpt>
<trkpt lat="33.810313" lon="-118.393867">
  <ele>-0.12</ele>
  <time>2026-09-01T01:17:38Z</time>
  <course>0.0</course>
  <speed>0.0</speed>
  <fix>3d</fix>
</trkpt>
<trkpt lat="33.810313" lon="-118.393867">
  <ele>-0.127</ele>
  <time>2026-09-01T01:17:38Z</time>
  <course>187.83</course>
  <speed>0.022360679774997897</speed>
  <fix>3d</fix>
</trkpt>
<trkpt lat="33.810313" lon="-118.393867">
  <ele>-0.12</ele>
  <time>2026-09-01T01:17:38Z</time>
  <course>0.0</course>
  <speed>0.0</speed>
  <fix>3d</fix>
</trkpt>
<trkpt lat="33.810313" lon="-118.393867">
  <ele>-0.127</ele>
  <time>2026-09-01T01:17:38Z</time>
  <course>187.82</course>
  <speed>0.022360679774997897</speed>
  <fix>3d</fix>
</trkpt>
<trkpt lat="33.810313" lon="-118.393867">
  <ele>-0.12</ele>
  <time>2026-09-01T01:17:38Z</time>
  <course>0.0</course>
  <speed>0.0</speed>
  <fix>3d</fix>
</trkpt>
<trkpt lat="33.810313" lon="-118.393867">
  <ele>-0.127</ele>
  <time>2026-09-01T01:17:38Z</time>
  <course>187.81</course>
  <speed>0.022360679774997897</speed>
  <fix>3d</fix>
</trkpt>
<trkpt lat="33.810313" lon="-118.393867">
  <ele>-0.12</ele>
  <time>2026-09-01T01:17:38Z</time>
  <course>0.0</course>
  <speed>0.0</speed>
  <fix>3d</fix>
</trkpt>
<trkpt lat="33.810313" lon="-118.393867">
  <ele>-0.126</ele>
  <time>2026-09-01T01:17:38Z</time>
  <course>187.8</course>
  <speed>0.022360679774997897</speed>
  <fix>3d</fix>
</trkpt>
<trkpt lat="33.810313" lon="-118.393867">
  <ele>-0.12</ele>
  <time>2026-09-01T01:17:38Z</time>
  <course>0.0</course>
  <speed>0.0</speed>
  <fix>3d</fix>
</trkpt>
<trkpt lat="33.810313" lon="-118.393867">
  <ele>-0.124</ele>
  <time>2026-09-01T01:17:38Z</time>
  <course>187.8</course>
  <speed>0.022360679774997897</speed>
  <fix>3d</fix>
</trkpt>
<trkpt lat="33.810313" lon="-118.393867">
  <ele>-0.12</ele>
  <time>2026-09-01T01:17:38Z</time>
  <course>0.0</course>
  <speed>0.0</speed>
  <fix>3d</fix>
</trkpt>
<trkpt lat="33.810313" lon="-118.393867">
  <ele>-0.121</ele>
  <time>2026-09-01T01:17:38Z</time>
  <course>187.79</course>
  <speed>0.022360679774997897</speed>
  <fix>3d</fix>
</trkpt>
<trkpt lat="33.810313" lon="-118.393867">
  <ele>-0.12</ele>
  <time>2026-09-01T01:17:38Z</time>
  <course>0.0</course>
  <speed>0.0</speed>
  <fix>3d</fix>
</trkpt>
<trkpt lat="33.810313" lon="-118.393867">
  <ele>-0.119</ele>
  <time>2026-09-01T01:17:38Z</time>
  <course>187.78</course>
  <speed>0.022360679774997897</speed>
  <fix>3d</fix>
</trkpt>
<trkpt lat="33.810313" lon="-118.393867">
  <ele>-0.12</ele>
  <time>2026-09-01T01:17:38Z</time>
  <course>0.0</course>
  <speed>0.0</speed>
  <fix>3d</fix>
</trkpt>
<trkpt lat="33.810313" lon="-118.393867">
  <ele>-0.118</ele>
  <time>2026-09-01T01:17:38Z</time>
  <course>187.77</course>
  <speed>0.022360679774997897</speed>
  <fix>3d</fix>
</trkpt>
<trkpt lat="33.810313" lon="-118.393867">
  <ele>-0.12</ele>
  <time>2026-09-01T01:17:38Z</time>
  <course>0.0</course>
  <speed>0.0</speed>
  <fix>3d</fix>
</trkpt>
<trkpt lat="33.810313" lon="-118.393867">
  <ele>-0.118</ele>
  <time>2026-09-01T01:17:38Z</time>
  <course>187.77</course>
  <speed>0.022360679774997897</speed>
  <fix>3d</fix>
</trkpt>
<trkpt lat="33.810313" lon="-118.393867">
  <ele>-0.12</ele>
  <time>2026-09-01T01:17:38Z</time>
  <course>0.0</course>
  <speed>0.0</speed>
  <fix>3d</fix>
</trkpt>
<trkpt lat="33.810313" lon="-118.393867">
  <ele>-0.119</ele>
  <time>2026-09-01T01:17:38Z</time>
  <course>187.76</course>
  <speed>0.022360679774997897</speed>
  <fix>3d</fix>
</trkpt>
<trkpt lat="33.810313" lon="-118.393867">
  <ele>-0.12</ele>
  <time>2026-09-01T01:17:38Z</time>
  <course>0.0</course>
  <speed>0.0</speed>
  <fix>3d</fix>
</trkpt>
<trkpt lat="33.810313" lon="-118.393867">
  <ele>-0.12</ele>
  <time>2026-09-01T01:17:38Z</time>
  <course>187.75</course>
  <speed>0.022360679774997897</speed>
  <fix>3d</fix>
</trkpt>
<trkpt lat="33.810313" lon="-118.393867">
  <ele>-0.12</ele>
  <time>2026-09-01T01:17:38Z</time>
  <course>0.0</course>
  <speed>0.0</speed>
  <fix>3d</fix>
</trkpt>
<trkpt lat="33.810313" lon="-118.393867">
  <ele>-0.12</ele>
  <time>2026-09-01T01:17:38Z</time>
  <course>187.74</course>
  <speed>0.0282842712474619</speed>
  <fix>3d</fix>
</trkpt>
<trkpt lat="33.810313" lon="-118.393867">
  <ele>-0.12</ele>
  <time>2026-09-01T01:17:38Z</time>
  <course>0.0</course>
  <speed>0.0</speed>
  <fix>3d</fix>
</trkpt>
<trkpt lat="33.810313" lon="-118.393867">
  <ele>-0.12</ele>
  <time>2026-09-01T01:17:38Z</time>
  <course>187.74</course>
  <speed>0.0282842712474619</speed>
  <fix>3d</fix>
</trkpt>
<trkpt lat="33.810313" lon="-118.393867">
  <ele>-0.12</ele>
  <time>2026-09-01T01:17:38Z</time>
  <course>0.0</course>
  <speed>0.0</speed>
  <fix>3d</fix>
</trkpt>
<trkpt lat="33.810313" lon="-118.393867">
  <ele>-0.119</ele>
  <time>2026-09-01T01:17:38Z</time>
  <course>187.73</course>
  <speed>0.0282842712474619</speed>
  <fix>3d</fix>
</trkpt>
<trkpt lat="33.810313" lon="-118.393867">
  <ele>-0.12</ele>
  <time>2026-09-01T01:17:38Z</time>
  <course>0.0</course>
  <speed>0.0</speed>
  <fix>3d</fix>
</trkpt>
<trkpt lat="33.810313" lon="-118.393867">
  <ele>-0.118</ele>
  <time>2026-09-01T01:17:38Z</time>
  <course>187.72</course>
  <speed>0.0282842712474619</speed>
  <fix>3d</fix>
</trkpt>
<trkpt lat="33.810313" lon="-118.393867">
  <ele>-0.12</ele>
  <time>2026-09-01T01:17:38Z</time>
  <course>0.0</course>
  <speed>0.0</speed>
  <fix>3d</fix>
</trkpt>
<trkpt lat="33.810313" lon="-118.393867">
  <ele>-0.116</ele>
  <time>2026-09-01T01:17:38Z</time>
  <course>187.71</course>
  <speed>0.0282842712474619</speed>
  <fix>3d</fix>
</trkpt>
<trkpt lat="33.810313" lon="-118.393867">
  <ele>-0.12</ele>
  <time>2026-09-01T01:17:38Z</time>
  <course>0.0</course>
  <speed>0.0</speed>
  <fix>3d</fix>
</trkpt>
<trkpt lat="33.810313" lon="-118.393867">
  <ele>-0.114</ele>
  <time>2026-09-01T01:17:38Z</time>
  <course>187.71</course>
  <speed>0.0282842712474619</speed>
  <fix>3d</fix>
</trkpt>
<trkpt lat="33.810313" lon="-118.393867">
  <ele>-0.12</ele>
  <time>2026-09-01T01:17:38Z</time>
  <course>0.0</course>
  <speed>0.0</speed>
  <fix>3d</fix>
</trkpt>
<trkpt lat="33.810313" lon="-118.393867">
  <ele>-0.112</ele>
  <time>2026-09-01T01:17:38Z</time>
  <course>187.7</course>
  <speed>0.0282842712474619</speed>
  <fix>3d</fix>
</trkpt>
<trkpt lat="33.810313" lon="-118.393867">
  <ele>-0.12</ele>
  <time>2026-09-01T01:17:38Z</time>
  <course>0.0</course>
  <speed>0.0</speed>
  <fix>3d</fix>
</trkpt>
<trkpt lat="33.810313" lon="-118.393867">
  <ele>-0.113</ele>
  <time>2026-09-01T01:17:38Z</time>
  <course>187.69</course>
  <speed>0.0282842712474619</speed>
  <fix>3d</fix>
</trkpt>
<trkpt lat="33.810313" lon="-118.393867">
  <ele>-0.12</ele>
  <time>2026-09-01T01:17:38Z</time>
  <course>0.0</course>
  <speed>0.0</speed>
  <fix>3d</fix>
</trkpt>
<trkpt lat="33.810313" lon="-118.393867">
  <ele>-0.115</ele>
  <time>2026-09-01T01:17:38Z</time>
  <course>187.69</course>
  <speed>0.0282842712474619</speed>
  <fix>3d</fix>
</trkpt>
<trkpt lat="33.810313" lon="-118.393867">
  <ele>-0.12</ele>
  <time>2026-09-01T01:17:38Z</time>
  <course>0.0</course>
  <speed>0.0</speed>
  <fix>3d</fix>
</trkpt>
<trkpt lat="33.810313" lon="-118.393867">
  <ele>-0.119</ele>
  <time>2026-09-01T01:17:38Z</time>
  <course>187.68</course>
  <speed>0.0282842712474619</speed>
  <fix>3d</fix>
</trkpt>
<trkpt lat="33.810313" lon="-118.393867">
  <ele>-0.12</ele>
  <time>2026-09-01T01:17:38Z</time>
  <course>0.0</course>
  <speed>0.0</speed>
  <fix>3d</fix>
</trkpt>
<trkpt lat="33.810313" lon="-118.393867">
  <ele>-0.123</ele>
  <time>2026-09-01T01:17:38Z</time>
  <course>187.67</course>
  <speed>0.0282842712474619</speed>
  <fix>3d</fix>
</trkpt>
<trkpt lat="33.810313" lon="-118.393867">
  <ele>-0.12</ele>
  <time>2026-09-01T01:17:38Z</time>
  <course>0.0</course>
  <speed>0.0</speed>
  <fix>3d</fix>
</trkpt>
<trkpt lat="33.810313" lon="-118.393867">
  <ele>-0.128</ele>
  <time>2026-09-01T01:17:38Z</time>
  <course>187.66</course>
  <speed>0.0282842712474619</speed>
  <fix>3d</fix>
</trkpt>
<trkpt lat="33.810313" lon="-118.393867">
  <ele>-0.12</ele>
  <time>2026-09-01T01:17:38Z</time>
  <course>0.0</course>
  <speed>0.0</speed>
  <fix>3d</fix>
</trkpt>
<trkpt lat="33.810313" lon="-118.393867">
  <ele>-0.132</ele>
  <time>2026-09-01T01:17:38Z</time>
  <course>187.66</course>
  <speed>0.0282842712474619</speed>
  <fix>3d</fix>
</trkpt>
<trkpt lat="33.810313" lon="-118.393867">
  <ele>-0.12</ele>
  <time>2026-09-01T01:17:38Z</time>
  <course>0.0</course>
  <speed>0.0</speed>
  <fix>3d</fix>
</trkpt>
<trkpt lat="33.810313" lon="-118.393867">
  <ele>-0.134</ele>
  <time>2026-09-01T01:17:38Z</time>
  <course>187.65</course>
  <speed>0.0282842712474619</speed>
  <fix>3d</fix>
</trkpt>
<trkpt lat="33.810313" lon="-118.393867">
  <ele>-0.12</ele>
  <time>2026-09-01T01:17:38Z</time>
  <course>0.0</course>
  <speed>0.0</speed>
  <fix>3d</fix>
</trkpt>
<trkpt lat="33.810313" lon="-118.393867">
  <ele>-0.135</ele>
  <time>2026-09-01T01:17:38Z</time>
  <course>187.64</course>
  <speed>0.0282842712474619</speed>
  <fix>3d</fix>
</trkpt>
<trkpt lat="33.810313" lon="-118.393867">
  <ele>-0.12</ele>
  <time>2026-09-01T01:17:38Z</time>
  <course>0.0</course>
  <speed>0.0</speed>
  <fix>3d</fix>
</trkpt>
<trkpt lat="33.810313" lon="-118.393867">
  <ele>-0.135</ele>
  <time>2026-09-01T01:17:38Z</time>
  <course>187.64</course>
  <speed>0.0282842712474619</speed>
  <fix>3d</fix>
</trkpt>
<trkpt lat="33.810313" lon="-118.393867">
  <ele>-0.12</ele>
  <time>2026-09-01T01:17:38Z</time>
  <course>0.0</course>
  <speed>0.0</speed>
  <fix>3d</fix>
</trkpt>
<trkpt lat="33.810313" lon="-118.393867">
  <ele>-0.133</ele>
  <time>2026-09-01T01:17:38Z</time>
  <course>187.63</course>
  <speed>0.0282842712474619</speed>
  <fix>3d</fix>
</trkpt>
<trkpt lat="33.810313" lon="-118.393867">
  <ele>-0.12</ele>
  <time>2026-09-01T01:17:38Z</time>
  <course>0.0</course>
  <speed>0.0</speed>
  <fix>3d</fix>
</trkpt>
<trkpt lat="33.810313" lon="-118.393867">
  <ele>-0.132</ele>
  <time>2026-09-01T01:17:38Z</time>
  <course>187.63</course>
  <speed>0.0282842712474619</speed>
  <fix>3d</fix>
</trkpt>
<trkpt lat="33.810313" lon="-118.393867">
  <ele>-0.12</ele>
  <time>2026-09-01T01:17:38Z</time>
  <course>0.0</course>
  <speed>0.0</speed>
  <fix>3d</fix>
</trkpt>
<trkpt lat="33.810313" lon="-118.393867">
  <ele>-0.132</ele>
  <time>2026-09-01T01:17:38Z</time>
  <course>187.62</course>
  <speed>0.03605551275463989</speed>
  <fix>3d</fix>
</trkpt>
<trkpt lat="33.810313" lon="-118.393867">
  <ele>-0.12</ele>
  <time>2026-09-01T01:17:38Z</time>
  <course>0.0</course>
  <speed>0.0</speed>
  <fix>3d</fix>
</trkpt>
<trkpt lat="33.810313" lon="-118.393867">
  <ele>-0.132</ele>
  <time>2026-09-01T01:17:38Z</time>
  <course>187.61</course>
  <speed>0.03605551275463989</speed>
  <fix>3d</fix>
</trkpt>
<trkpt lat="33.810313" lon="-118.393867">
  <ele>-0.12</ele>
  <time>2026-09-01T01:17:38Z</time>
  <course>0.0</course>
  <speed>0.0</speed>
  <fix>3d</fix>
</trkpt>
<trkpt lat="33.810313" lon="-118.393867">
  <ele>-0.133</ele>
  <time>2026-09-01T01:17:38Z</time>
  <course>187.61</course>
  <speed>0.03605551275463989</speed>
  <fix>3d</fix>
</trkpt>
<trkpt lat="33.810313" lon="-118.393867">
  <ele>-0.12</ele>
  <time>2026-09-01T01:17:38Z</time>
  <course>0.0</course>
  <speed>0.0</speed>
  <fix>3d</fix>
</trkpt>
<trkpt lat="33.810313" lon="-118.393867">
  <ele>-0.134</ele>
  <time>2026-09-01T01:17:38Z</time>
  <course>187.6</course>
  <speed>0.03605551275463989</speed>
  <fix>3d</fix>
</trkpt>
<trkpt lat="33.810313" lon="-118.393867">
  <ele>-0.12</ele>
  <time>2026-09-01T01:17:38Z</time>
  <course>0.0</course>
  <speed>0.0</speed>
  <fix>3d</fix>
</trkpt>
<trkpt lat="33.810313" lon="-118.393867">
  <ele>-0.133</ele>
  <time>2026-09-01T01:17:38Z</time>
  <course>187.59</course>
  <speed>0.03605551275463989</speed>
  <fix>3d</fix>
</trkpt>
<trkpt lat="33.810313" lon="-118.393867">
  <ele>-0.12</ele>
  <time>2026-09-01T01:17:38Z</time>
  <course>0.0</course>
  <speed>0.0</speed>
  <fix>3d</fix>
</trkpt>
<trkpt lat="33.810313" lon="-118.393867">
  <ele>-0.132</ele>
  <time>2026-09-01T01:17:38Z</time>
  <course>187.59</course>
  <speed>0.03605551275463989</speed>
  <fix>3d</fix>
</trkpt>
<trkpt lat="33.810313" lon="-118.393867">
  <ele>-0.12</ele>
  <time>2026-09-01T01:17:38Z</time>
  <course>0.0</course>
  <speed>0.0</speed>
  <fix>3d</fix>
</trkpt>
<trkpt lat="33.810313" lon="-118.393867">
  <ele>-0.13</ele>
  <time>2026-09-01T01:17:38Z</time>
  <course>187.58</course>
  <speed>0.03605551275463989</speed>
  <fix>3d</fix>
</trkpt>
<trkpt lat="33.810313" lon="-118.393867">
  <ele>-0.12</ele>
  <time>2026-09-01T01:17:38Z</time>
  <course>0.0</course>
  <speed>0.0</speed>
  <fix>3d</fix>
</trkpt>
<trkpt lat="33.810313" lon="-118.393867">
  <ele>-0.127</ele>
  <time>2026-09-01T01:17:38Z</time>
  <course>187.57</course>
  <speed>0.03605551275463989</speed>
  <fix>3d</fix>
</trkpt>
<trkpt lat="33.810313" lon="-118.393867">
  <ele>-0.12</ele>
  <time>2026-09-01T01:17:38Z</time>
  <course>0.0</course>
  <speed>0.0</speed>
  <fix>3d</fix>
</trkpt>
<trkpt lat="33.810313" lon="-118.393867">
  <ele>-0.125</ele>
  <time>2026-09-01T01:17:38Z</time>
  <course>187.57</course>
  <speed>0.03605551275463989</speed>
  <fix>3d</fix>
</trkpt>
<trkpt lat="33.810313" lon="-118.393867">
  <ele>-0.12</ele>
  <time>2026-09-01T01:17:38Z</time>
  <course>0.0</course>
  <speed>0.0</speed>
  <fix>3d</fix>
</trkpt>
<trkpt lat="33.810313" lon="-118.393867">
  <ele>-0.122</ele>
  <time>2026-09-01T01:17:38Z</time>
  <course>187.56</course>
  <speed>0.03605551275463989</speed>
  <fix>3d</fix>
</trkpt>
<trkpt lat="33.810313" lon="-118.393867">
  <ele>-0.12</ele>
  <time>2026-09-01T01:17:38Z</time>
  <course>0.0</course>
  <speed>0.0</speed>
  <fix>3d</fix>
</trkpt>
<trkpt lat="33.810313" lon="-118.393867">
  <ele>-0.119</ele>
  <time>2026-09-01T01:17:38Z</time>
  <course>187.55</course>
  <speed>0.03605551275463989</speed>
  <fix>3d</fix>
</trkpt>
<trkpt lat="33.810313" lon="-118.393867">
  <ele>-0.12</ele>
  <time>2026-09-01T01:17:38Z</time>
  <course>0.0</course>
  <speed>0.0</speed>
  <fix>3d</fix>
</trkpt>
<trkpt lat="33.810313" lon="-118.393867">
  <ele>-0.117</ele>
  <time>2026-09-01T01:17:38Z</time>
  <course>187.55</course>
  <speed>0.03605551275463989</speed>
  <fix>3d</fix>
</trkpt>
<trkpt lat="33.810313" lon="-118.393867">
  <ele>-0.12</ele>
  <time>2026-09-01T01:17:38Z</time>
  <course>0.0</course>
  <speed>0.0</speed>
  <fix>3d</fix>
</trkpt>
<trkpt lat="33.810313" lon="-118.393867">
  <ele>-0.117</ele>
  <time>2026-09-01T01:17:38Z</time>
  <course>187.54</course>
  <speed>0.03605551275463989</speed>
  <fix>3d</fix>
</trkpt>
<trkpt lat="33.810313" lon="-118.393867">
  <ele>-0.12</ele>
  <time>2026-09-01T01:17:38Z</time>
  <course>0.0</course>
  <speed>0.0</speed>
  <fix>3d</fix>
</trkpt>
<trkpt lat="33.810313" lon="-118.393867">
  <ele>-0.118</ele>
  <time>2026-09-01T01:17:38Z</time>
  <course>187.53</course>
  <speed>0.03605551275463989</speed>
  <fix>3d</fix>
</trkpt>
<trkpt lat="33.810313" lon="-118.393867">
  <ele>-0.12</ele>
  <time>2026-09-01T01:17:38Z</time>
  <course>0.0</course>
  <speed>0.0</speed>
  <fix>3d</fix>
</trkpt>
<trkpt lat="33.810313" lon="-118.393867">
  <ele>-0.119</ele>
  <time>2026-09-01T01:17:38Z</time>
  <course>187.53</course>
  <speed>0.03605551275463989</speed>
  <fix>3d</fix>
</trkpt>
<trkpt lat="33.810313" lon="-118.393867">
  <ele>-0.12</ele>
  <time>2026-09-01T01:17:38Z</time>
  <course>0.0</course>
  <speed>0.0</speed>
  <fix>3d</fix>
</trkpt>
<trkpt lat="33.810313" lon="-118.393867">
  <ele>-0.12</ele>
  <time>2026-09-01T01:17:38Z</time>
  <course>187.52</course>
  <speed>0.03605551275463989</speed>
  <fix>3d</fix>
</trkpt>
<trkpt lat="33.810313" lon="-118.393867">
  <ele>-0.12</ele>
  <time>2026-09-01T01:17:38Z</time>
  <course>0.0</course>
  <speed>0.0</speed>
  <fix>3d</fix>
</trkpt>
<trkpt lat="33.810313" lon="-118.393867">
  <ele>-0.121</ele>
  <time>2026-09-01T01:17:38Z</time>
  <course>187.51</course>
  <speed>0.03605551275463989</speed>
  <fix>3d</fix>
</trkpt>
<trkpt lat="33.810313" lon="-118.393867">
  <ele>-0.12</ele>
  <time>2026-09-01T01:17:38Z</time>
  <course>0.0</course>
  <speed>0.0</speed>
  <fix>3d</fix>
</trkpt>
<trkpt lat="33.810313" lon="-118.393867">
  <ele>-0.121</ele>
  <time>2026-09-01T01:17:38Z</time>
  <course>187.51</course>
  <speed>0.03605551275463989</speed>
  <fix>3d</fix>
</trkpt>
<trkpt lat="33.810313" lon="-118.393867">
  <ele>-0.12</ele>
  <time>2026-09-01T01:17:38Z</time>
  <course>0.0</course>
  <speed>0.0</speed>
  <fix>3d</fix>
</trkpt>
<trkpt lat="33.810313" lon="-118.393867">
  <ele>-0.121</ele>
  <time>2026-09-01T01:17:38Z</time>
  <course>187.5</course>
  <speed>0.03605551275463989</speed>
  <fix>3d</fix>
</trkpt>
<trkpt lat="33.810313" lon="-118.393867">
  <ele>-0.12</ele>
  <time>2026-09-01T01:17:38Z</time>
  <course>0.0</course>
  <speed>0.0</speed>
  <fix>3d</fix>
</trkpt>
<trkpt lat="33.810313" lon="-118.393867">
  <ele>-0.121</ele>
  <time>2026-09-01T01:17:38Z</time>
  <course>187.49</course>
  <speed>0.03605551275463989</speed>
  <fix>3d</fix>
</trkpt>
<trkpt lat="33.810313" lon="-118.393867">
  <ele>-0.12</ele>
  <time>2026-09-01T01:17:38Z</time>
  <course>0.0</course>
  <speed>0.0</speed>
  <fix>3d</fix>
</trkpt>
<trkpt lat="33.810313" lon="-118.393867">
  <ele>-0.121</ele>
  <time>2026-09-01T01:17:38Z</time>
  <course>187.49</course>
  <speed>0.03605551275463989</speed>
  <fix>3d</fix>
</trkpt>
<trkpt lat="33.810313" lon="-118.393867">
  <ele>-0.12</ele>
  <time>2026-09-01T01:17:38Z</time>
  <course>0.0</course>
  <speed>0.0</speed>
  <fix>3d</fix>
</trkpt>
<trkpt lat="33.810313" lon="-118.393867">
  <ele>-0.121</ele>
  <time>2026-09-01T01:17:38Z</time>
  <course>187.48</course>
  <speed>0.03605551275463989</speed>
  <fix>3d</fix>
</trkpt>
<trkpt lat="33.810313" lon="-118.393867">
  <ele>-0.12</ele>
  <time>2026-09-01T01:17:38Z</time>
  <course>0.0</course>
  <speed>0.0</speed>
  <fix>3d</fix>
</trkpt>
<trkpt lat="33.810313" lon="-118.393867">
  <ele>-0.122</ele>
  <time>2026-09-01T01:17:38Z</time>
  <course>187.47</course>
  <speed>0.03605551275463989</speed>
  <fix>3d</fix>
</trkpt>
<trkpt lat="33.810313" lon="-118.393867">
  <ele>-0.12</ele>
  <time>2026-09-01T01:17:38Z</time>
  <course>0.0</course>
  <speed>0.0</speed>
  <fix>3d</fix>
</trkpt>
<trkpt lat="33.810313" lon="-118.393867">
  <ele>-0.124</ele>
  <time>2026-09-01T01:17:38Z</time>
  <course>187.47</course>
  <speed>0.03605551275463989</speed>
  <fix>3d</fix>
</trkpt>
<trkpt lat="33.810313" lon="-118.393867">
  <ele>-0.12</ele>
  <time>2026-09-01T01:17:38Z</time>
  <course>0.0</course>
  <speed>0.0</speed>
  <fix>3d</fix>
</trkpt>
<trkpt lat="33.810313" lon="-118.393867">
  <ele>-0.127</ele>
  <time>2026-09-01T01:17:38Z</time>
  <course>187.46</course>
  <speed>0.03605551275463989</speed>
  <fix>3d</fix>
</trkpt>
<trkpt lat="33.810313" lon="-118.393867">
  <ele>-0.12</ele>
  <time>2026-09-01T01:17:38Z</time>
  <course>0.0</course>
  <speed>0.0</speed>
  <fix>3d</fix>
</trkpt>
<trkpt lat="33.810313" lon="-118.393867">
  <ele>-0.129</ele>
  <time>2026-09-01T01:17:38Z</time>
  <course>187.46</course>
  <speed>0.03605551275463989</speed>
  <fix>3d</fix>
</trkpt>
<trkpt lat="33.810313" lon="-118.393867">
  <ele>-0.12</ele>
  <time>2026-09-01T01:17:38Z</time>
  <course>0.0</course>
  <speed>0.0</speed>
  <fix>3d</fix>
</trkpt>
<trkpt lat="33.810313" lon="-118.393867">
  <ele>-0.131</ele>
  <time>2026-09-01T01:17:38Z</time>
  <course>187.45</course>
  <speed>0.03605551275463989</speed>
  <fix>3d</fix>
</trkpt>
<trkpt lat="33.810313" lon="-118.393867">
  <ele>-0.12</ele>
  <time>2026-09-01T01:17:38Z</time>
  <course>0.0</course>
  <speed>0.0</speed>
  <fix>3d</fix>
</trkpt>
<trkpt lat="33.810313" lon="-118.393867">
  <ele>-0.132</ele>
  <time>2026-09-01T01:17:38Z</time>
  <course>187.44</course>
  <speed>0.03605551275463989</speed>
  <fix>3d</fix>
</trkpt>
<trkpt lat="33.810313" lon="-118.393867">
  <ele>-0.12</ele>
  <time>2026-09-01T01:17:38Z</time>
  <course>0.0</course>
  <speed>0.0</speed>
  <fix>3d</fix>
</trkpt>
<trkpt lat="33.810313" lon="-118.393867">
  <ele>-0.132</ele>
  <time>2026-09-01T01:17:38Z</time>
  <course>187.44</course>
  <speed>0.03605551275463989</speed>
  <fix>3d</fix>
</trkpt>
<trkpt lat="33.810313" lon="-118.393867">
  <ele>-0.12</ele>
  <time>2026-09-01T01:17:38Z</time>
  <course>0.0</course>
  <speed>0.0</speed>
  <fix>3d</fix>
</trkpt>
<trkpt lat="33.810313" lon="-118.393867">
  <ele>-0.132</ele>
  <time>2026-09-01T01:17:38Z</time>
  <course>187.43</course>
  <speed>0.03605551275463989</speed>
  <fix>3d</fix>
</trkpt>
<trkpt lat="33.810313" lon="-118.393867">
  <ele>-0.12</ele>
  <time>2026-09-01T01:17:38Z</time>
  <course>0.0</course>
  <speed>0.0</speed>
  <fix>3d</fix>
</trkpt>
<trkpt lat="33.810313" lon="-118.393867">
  <ele>-0.132</ele>
  <time>2026-09-01T01:17:38Z</time>
  <course>187.42</course>
  <speed>0.03605551275463989</speed>
  <fix>3d</fix>
</trkpt>
<trkpt lat="33.810313" lon="-118.393867">
  <ele>-0.12</ele>
  <time>2026-09-01T01:17:38Z</time>
  <course>0.0</course>
  <speed>0.0</speed>
  <fix>3d</fix>
</trkpt>
<trkpt lat="33.810313" lon="-118.393867">
  <ele>-0.131</ele>
  <time>2026-09-01T01:17:38Z</time>
  <course>187.42</course>
  <speed>0.03605551275463989</speed>
  <fix>3d</fix>
</trkpt>
<trkpt lat="33.810313" lon="-118.393867">
  <ele>-0.12</ele>
  <time>2026-09-01T01:17:38Z</time>
  <course>0.0</course>
  <speed>0.0</speed>
  <fix>3d</fix>
</trkpt>
<trkpt lat="33.810313" lon="-118.393867">
  <ele>-0.131</ele>
  <time>2026-09-01T01:17:38Z</time>
  <course>187.41</course>
  <speed>0.03605551275463989</speed>
  <fix>3d</fix>
</trkpt>
<trkpt lat="33.810313" lon="-118.393867">
  <ele>-0.12</ele>
  <time>2026-09-01T01:17:38Z</time>
  <course>0.0</course>
  <speed>0.0</speed>
  <fix>3d</fix>
</trkpt>
<trkpt lat="33.810313" lon="-118.393867">
  <ele>-0.132</ele>
  <time>2026-09-01T01:17:38Z</time>
  <course>187.41</course>
  <speed>0.03605551275463989</speed>
  <fix>3d</fix>
</trkpt>
<trkpt lat="33.810313" lon="-118.393867">
  <ele>-0.12</ele>
  <time>2026-09-01T01:17:38Z</time>
  <course>0.0</course>
  <speed>0.0</speed>
  <fix>3d</fix>
</trkpt>
<trkpt lat="33.810313" lon="-118.393867">
  <ele>-0.134</ele>
  <time>2026-09-01T01:17:38Z</time>
  <course>187.4</course>
  <speed>0.03605551275463989</speed>
  <fix>3d</fix>
</trkpt>
<trkpt lat="33.810313" lon="-118.393867">
  <ele>-0.12</ele>
  <time>2026-09-01T01:17:38Z</time>
  <course>0.0</course>
  <speed>0.0</speed>
  <fix>3d</fix>
</trkpt>
<trkpt lat="33.810313" lon="-118.393867">
  <ele>-0.137</ele>
  <time>2026-09-01T01:17:38Z</time>
  <course>187.39</course>
  <speed>0.03605551275463989</speed>
  <fix>3d</fix>
</trkpt>
<trkpt lat="33.810313" lon="-118.393867">
  <ele>-0.12</ele>
  <time>2026-09-01T01:17:38Z</time>
  <course>0.0</course>
  <speed>0.0</speed>
  <fix>3d</fix>
</trkpt>
<trkpt lat="33.810313" lon="-118.393867">
  <ele>-0.139</ele>
  <time>2026-09-01T01:17:38Z</time>
  <course>187.39</course>
  <speed>0.03605551275463989</speed>
  <fix>3d</fix>
</trkpt>
<trkpt lat="33.810313" lon="-118.393867">
  <ele>-0.12</ele>
  <time>2026-09-01T01:17:38Z</time>
  <course>0.0</course>
  <speed>0.0</speed>
  <fix>3d</fix>
</trkpt>
<trkpt lat="33.810313" lon="-118.393867">
  <ele>-0.141</ele>
  <time>2026-09-01T01:17:38Z</time>
  <course>187.38</course>
  <speed>0.03605551275463989</speed>
  <fix>3d</fix>
</trkpt>
<trkpt lat="33.810313" lon="-118.393867">
  <ele>-0.12</ele>
  <time>2026-09-01T01:17:38Z</time>
  <course>0.0</course>
  <speed>0.0</speed>
  <fix>3d</fix>
</trkpt>
<trkpt lat="33.810313" lon="-118.393867">
  <ele>-0.141</ele>
  <time>2026-09-01T01:17:38Z</time>
  <course>187.38</course>
  <speed>0.03605551275463989</speed>
  <fix>3d</fix>
</trkpt>
<trkpt lat="33.810313" lon="-118.393867">
  <ele>-0.12</ele>
  <time>2026-09-01T01:17:38Z</time>
  <course>0.0</course>
  <speed>0.0</speed>
  <fix>3d</fix>
</trkpt>
<trkpt lat="33.810313" lon="-118.393867">
  <ele>-0.139</ele>
  <time>2026-09-01T01:17:38Z</time>
  <course>187.37</course>
  <speed>0.03605551275463989</speed>
  <fix>3d</fix>
</trkpt>
<trkpt lat="33.810313" lon="-118.393867">
  <ele>-0.12</ele>
  <time>2026-09-01T01:17:38Z</time>
  <course>0.0</course>
  <speed>0.0</speed>
  <fix>3d</fix>
</trkpt>
<trkpt lat="33.810313" lon="-118.393867">
  <ele>-0.136</ele>
  <time>2026-09-01T01:17:38Z</time>
  <course>187.36</course>
  <speed>0.03605551275463989</speed>
  <fix>3d</fix>
</trkpt>
<trkpt lat="33.810313" lon="-118.393867">
  <ele>-0.12</ele>
  <time>2026-09-01T01:17:38Z</time>
  <course>0.0</course>
  <speed>0.0</speed>
  <fix>3d</fix>
</trkpt>
<trkpt lat="33.810313" lon="-118.393867">
  <ele>-0.133</ele>
  <time>2026-09-01T01:17:38Z</time>
  <course>187.36</course>
  <speed>0.03605551275463989</speed>
  <fix>3d</fix>
</trkpt>
<trkpt lat="33.810313" lon="-118.393867">
  <ele>-0.12</ele>
  <time>2026-09-01T01:17:38Z</time>
  <course>0.0</course>
  <speed>0.0</speed>
  <fix>3d</fix>
</trkpt>
<trkpt lat="33.810313" lon="-118.393867">
  <ele>-0.129</ele>
  <time>2026-09-01T01:17:38Z</time>
  <course>187.35</course>
  <speed>0.03605551275463989</speed>
  <fix>3d</fix>
</trkpt>
<trkpt lat="33.810313" lon="-118.393867">
  <ele>-0.12</ele>
  <time>2026-09-01T01:17:38Z</time>
  <course>0.0</course>
  <speed>0.0</speed>
  <fix>3d</fix>
</trkpt>
<trkpt lat="33.810313" lon="-118.393867">
  <ele>-0.127</ele>
  <time>2026-09-01T01:17:38Z</time>
  <course>187.35</course>
  <speed>0.03605551275463989</speed>
  <fix>3d</fix>
</trkpt>
<trkpt lat="33.810313" lon="-118.393867">
  <ele>-0.12</ele>
  <time>2026-09-01T01:17:38Z</time>
  <course>0.0</course>
  <speed>0.0</speed>
  <fix>3d</fix>
</trkpt>
<trkpt lat="33.810313" lon="-118.393867">
  <ele>-0.127</ele>
  <time>2026-09-01T01:17:38Z</time>
  <course>187.34</course>
  <speed>0.03605551275463989</speed>
  <fix>3d</fix>
</trkpt>
<trkpt lat="33.810313" lon="-118.393867">
  <ele>-0.12</ele>
  <time>2026-09-01T01:17:38Z</time>
  <course>0.0</course>
  <speed>0.0</speed>
  <fix>3d</fix>
</trkpt>
<trkpt lat="33.810313" lon="-118.393867">
  <ele>-0.126</ele>
  <time>2026-09-01T01:17:38Z</time>
  <course>187.34</course>
  <speed>0.03605551275463989</speed>
  <fix>3d</fix>
</trkpt>
<trkpt lat="33.810313" lon="-118.393867">
  <ele>-0.12</ele>
  <time>2026-09-01T01:17:38Z</time>
  <course>0.0</course>
  <speed>0.0</speed>
  <fix>3d</fix>
</trkpt>
<trkpt lat="33.810313" lon="-118.393867">
  <ele>-0.126</ele>
  <time>2026-09-01T01:17:38Z</time>
  <course>187.33</course>
  <speed>0.03605551275463989</speed>
  <fix>3d</fix>
</trkpt>
<trkpt lat="33.810313" lon="-118.393867">
  <ele>-0.12</ele>
  <time>2026-09-01T01:17:38Z</time>
  <course>0.0</course>
  <speed>0.0</speed>
  <fix>3d</fix>
</trkpt>
<trkpt lat="33.810313" lon="-118.393867">
  <ele>-0.126</ele>
  <time>2026-09-01T01:17:38Z</time>
  <course>187.32</course>
  <speed>0.03605551275463989</speed>
  <fix>3d</fix>
</trkpt>
<trkpt lat="33.810313" lon="-118.393867">
  <ele>-0.12</ele>
  <time>2026-09-01T01:17:38Z</time>
  <course>0.0</course>
  <speed>0.0</speed>
  <fix>3d</fix>
</trkpt>
<trkpt lat="33.810313" lon="-118.393867">
  <ele>-0.126</ele>
  <time>2026-09-01T01:17:38Z</time>
  <course>187.32</course>
  <speed>0.03605551275463989</speed>
  <fix>3d</fix>
</trkpt>
<trkpt lat="33.810313" lon="-118.393867">
  <ele>-0.12</ele>
  <time>2026-09-01T01:17:38Z</time>
  <course>0.0</course>
  <speed>0.0</speed>
  <fix>3d</fix>
</trkpt>
<trkpt lat="33.810313" lon="-118.393867">
  <ele>-0.125</ele>
  <time>2026-09-01T01:17:38Z</time>
  <course>187.31</course>
  <speed>0.03605551275463989</speed>
  <fix>3d</fix>
</trkpt>
<trkpt lat="33.810313" lon="-118.393867">
  <ele>-0.12</ele>
  <time>2026-09-01T01:17:38Z</time>
  <course>0.0</course>
  <speed>0.0</speed>
  <fix>3d</fix>
</trkpt>
<trkpt lat="33.810313" lon="-118.393867">
  <ele>-0.124</ele>
  <time>2026-09-01T01:17:38Z</time>
  <course>187.31</course>
  <speed>0.03605551275463989</speed>
  <fix>3d</fix>
</trkpt>
<trkpt lat="33.810313" lon="-118.393867">
  <ele>-0.12</ele>
  <time>2026-09-01T01:17:38Z</time>
  <course>0.0</course>
  <speed>0.0</speed>
  <fix>3d</fix>
</trkpt>
<trkpt lat="33.810313" lon="-118.393867">
  <ele>-0.122</ele>
  <time>2026-09-01T01:17:38Z</time>
  <course>187.3</course>
  <speed>0.03605551275463989</speed>
  <fix>3d</fix>
</trkpt>
<trkpt lat="33.810313" lon="-118.393867">
  <ele>-0.12</ele>
  <time>2026-09-01T01:17:38Z</time>
  <course>0.0</course>
  <speed>0.0</speed>
  <fix>3d</fix>
</trkpt>
<trkpt lat="33.810313" lon="-118.393867">
  <ele>-0.121</ele>
  <time>2026-09-01T01:17:38Z</time>
  <course>187.3</course>
  <speed>0.03605551275463989</speed>
  <fix>3d</fix>
</trkpt>
<trkpt lat="33.810313" lon="-118.393867">
  <ele>-0.12</ele>
  <time>2026-09-01T01:17:39Z</time>
  <course>0.0</course>
  <speed>0.0</speed>
  <fix>3d</fix>
</trkpt>
<trkpt lat="33.810313" lon="-118.393867">
  <ele>-0.122</ele>
  <time>2026-09-01T01:17:39Z</time>
  <course>187.29</course>
  <speed>0.03605551275463989</speed>
  <fix>3d</fix>
</trkpt>
<trkpt lat="33.810313" lon="-118.393867">
  <ele>-0.12</ele>
  <time>2026-09-01T01:17:39Z</time>
  <course>0.0</course>
  <speed>0.0</speed>
  <fix>3d</fix>
</trkpt>
<trkpt lat="33.810313" lon="-118.393867">
  <ele>-0.124</ele>
  <time>2026-09-01T01:17:39Z</time>
  <course>187.28</course>
  <speed>0.03605551275463989</speed>
  <fix>3d</fix>
</trkpt>
<trkpt lat="33.810313" lon="-118.393867">
  <ele>-0.12</ele>
  <time>2026-09-01T01:17:39Z</time>
  <course>0.0</course>
  <speed>0.0</speed>
  <fix>3d</fix>
</trkpt>
<trkpt lat="33.810313" lon="-118.393867">
  <ele>-0.127</ele>
  <time>2026-09-01T01:17:39Z</time>
  <course>187.28</course>
  <speed>0.03605551275463989</speed>
  <fix>3d</fix>
</trkpt>
<trkpt lat="33.810313" lon="-118.393867">
  <ele>-0.12</ele>
  <time>2026-09-01T01:17:39Z</time>
  <course>0.0</course>
  <speed>0.0</speed>
  <fix>3d</fix>
</trkpt>
<trkpt lat="33.810313" lon="-118.393867">
  <ele>-0.13</ele>
  <time>2026-09-01T01:17:39Z</time>
  <course>187.27</course>
  <speed>0.03605551275463989</speed>
  <fix>3d</fix>
</trkpt>
<trkpt lat="33.810313" lon="-118.393867">
  <ele>-0.12</ele>
  <time>2026-09-01T01:17:39Z</time>
  <course>0.0</course>
  <speed>0.0</speed>
  <fix>3d</fix>
</trkpt>
<trkpt lat="33.810313" lon="-118.393867">
  <ele>-0.132</ele>
  <time>2026-09-01T01:17:39Z</time>
  <course>187.27</course>
  <speed>0.03605551275463989</speed>
  <fix>3d</fix>
</trkpt>
<trkpt lat="33.810313" lon="-118.393867">
  <ele>-0.12</ele>
  <time>2026-09-01T01:17:39Z</time>
  <course>0.0</course>
  <speed>0.0</speed>
  <fix>3d</fix>
</trkpt>
<trkpt lat="33.810313" lon="-118.393867">
  <ele>-0.134</ele>
  <time>2026-09-01T01:17:39Z</time>
  <course>187.26</course>
  <speed>0.03605551275463989</speed>
  <fix>3d</fix>
</trkpt>
<trkpt lat="33.810313" lon="-118.393867">
  <ele>-0.12</ele>
  <time>2026-09-01T01:17:39Z</time>
  <course>0.0</course>
  <speed>0.0</speed>
  <fix>3d</fix>
</trkpt>
<trkpt lat="33.810313" lon="-118.393867">
  <ele>-0.136</ele>
  <time>2026-09-01T01:17:39Z</time>
  <course>187.26</course>
  <speed>0.03605551275463989</speed>
  <fix>3d</fix>
</trkpt>
<trkpt lat="33.810313" lon="-118.393867">
  <ele>-0.12</ele>
  <time>2026-09-01T01:17:39Z</time>
  <course>0.0</course>
  <speed>0.0</speed>
  <fix>3d</fix>
</trkpt>
<trkpt lat="33.810313" lon="-118.393867">
  <ele>-0.136</ele>
  <time>2026-09-01T01:17:39Z</time>
  <course>187.25</course>
  <speed>0.03605551275463989</speed>
  <fix>3d</fix>
</trkpt>
<trkpt lat="33.810313" lon="-118.393867">
  <ele>-0.12</ele>
  <time>2026-09-01T01:17:39Z</time>
  <course>0.0</course>
  <speed>0.0</speed>
  <fix>3d</fix>
</trkpt>
<trkpt lat="33.810313" lon="-118.393867">
  <ele>-0.135</ele>
  <time>2026-09-01T01:17:39Z</time>
  <course>187.25</course>
  <speed>0.03605551275463989</speed>
  <fix>3d</fix>
</trkpt>
<trkpt lat="33.810313" lon="-118.393867">
  <ele>-0.12</ele>
  <time>2026-09-01T01:17:39Z</time>
  <course>0.0</course>
  <speed>0.0</speed>
  <fix>3d</fix>
</trkpt>
<trkpt lat="33.810313" lon="-118.393867">
  <ele>-0.134</ele>
  <time>2026-09-01T01:17:39Z</time>
  <course>187.24</course>
  <speed>0.03605551275463989</speed>
  <fix>3d</fix>
</trkpt>
<trkpt lat="33.810313" lon="-118.393867">
  <ele>-0.12</ele>
  <time>2026-09-01T01:17:39Z</time>
  <course>0.0</course>
  <speed>0.0</speed>
  <fix>3d</fix>
</trkpt>
<trkpt lat="33.810313" lon="-118.393867">
  <ele>-0.132</ele>
  <time>2026-09-01T01:17:39Z</time>
  <course>187.24</course>
  <speed>0.03605551275463989</speed>
  <fix>3d</fix>
</trkpt>
<trkpt lat="33.810313" lon="-118.393867">
  <ele>-0.12</ele>
  <time>2026-09-01T01:17:39Z</time>
  <course>0.0</course>
  <speed>0.0</speed>
  <fix>3d</fix>
</trkpt>
<trkpt lat="33.810313" lon="-118.393867">
  <ele>-0.131</ele>
  <time>2026-09-01T01:17:39Z</time>
  <course>187.23</course>
  <speed>0.03605551275463989</speed>
  <fix>3d</fix>
</trkpt>
<trkpt lat="33.810313" lon="-118.393867">
  <ele>-0.12</ele>
  <time>2026-09-01T01:17:39Z</time>
  <course>0.0</course>
  <speed>0.0</speed>
  <fix>3d</fix>
</trkpt>
<trkpt lat="33.810313" lon="-118.393867">
  <ele>-0.131</ele>
  <time>2026-09-01T01:17:39Z</time>
  <course>187.23</course>
  <speed>0.03605551275463989</speed>
  <fix>3d</fix>
</trkpt>
<trkpt lat="33.810313" lon="-118.393867">
  <ele>-0.12</ele>
  <time>2026-09-01T01:17:39Z</time>
  <course>0.0</course>
  <speed>0.0</speed>
  <fix>3d</fix>
</trkpt>
<trkpt lat="33.810313" lon="-118.393867">
  <ele>-0.132</ele>
  <time>2026-09-01T01:17:39Z</time>
  <course>187.22</course>
  <speed>0.03605551275463989</speed>
  <fix>3d</fix>
</trkpt>
<trkpt lat="33.810313" lon="-118.393867">
  <ele>-0.12</ele>
  <time>2026-09-01T01:17:39Z</time>
  <course>0.0</course>
  <speed>0.0</speed>
  <fix>3d</fix>
</trkpt>
<trkpt lat="33.810313" lon="-118.393867">
  <ele>-0.132</ele>
  <time>2026-09-01T01:17:39Z</time>
  <course>187.21</course>
  <speed>0.03605551275463989</speed>
  <fix>3d</fix>
</trkpt>
<trkpt lat="33.810313" lon="-118.393867">
  <ele>-0.12</ele>
  <time>2026-09-01T01:17:39Z</time>
  <course>0.0</course>
  <speed>0.0</speed>
  <fix>3d</fix>
</trkpt>
<trkpt lat="33.810313" lon="-118.393867">
  <ele>-0.133</ele>
  <time>2026-09-01T01:17:39Z</time>
  <course>187.21</course>
  <speed>0.03605551275463989</speed>
  <fix>3d</fix>
</trkpt>
<trkpt lat="33.810313" lon="-118.393867">
  <ele>-0.12</ele>
  <time>2026-09-01T01:17:39Z</time>
  <course>0.0</course>
  <speed>0.0</speed>
  <fix>3d</fix>
</trkpt>
<trkpt lat="33.810313" lon="-118.393867">
  <ele>-0.132</ele>
  <time>2026-09-01T01:17:39Z</time>
  <course>187.2</course>
  <speed>0.03605551275463989</speed>
  <fix>3d</fix>
</trkpt>
<trkpt lat="33.810313" lon="-118.393867">
  <ele>-0.12</ele>
  <time>2026-09-01T01:17:39Z</time>
  <course>0.0</course>
  <speed>0.0</speed>
  <fix>3d</fix>
</trkpt>
<trkpt lat="33.810313" lon="-118.393867">
  <ele>-0.131</ele>
  <time>2026-09-01T01:17:39Z</time>
  <course>187.2</course>
  <speed>0.03605551275463989</speed>
  <fix>3d</fix>
</trkpt>
<trkpt lat="33.810313" lon="-118.393867">
  <ele>-0.12</ele>
  <time>2026-09-01T01:17:39Z</time>
  <course>0.0</course>
  <speed>0.0</speed>
  <fix>3d</fix>
</trkpt>
<trkpt lat="33.810313" lon="-118.393867">
  <ele>-0.129</ele>
  <time>2026-09-01T01:17:39Z</time>
  <course>187.19</course>
  <speed>0.03605551275463989</speed>
  <fix>3d</fix>
</trkpt>
<trkpt lat="33.810313" lon="-118.393867">
  <ele>-0.12</ele>
  <time>2026-09-01T01:17:39Z</time>
  <course>0.0</course>
  <speed>0.0</speed>
  <fix>3d</fix>
</trkpt>
<trkpt lat="33.810313" lon="-118.393867">
  <ele>-0.126</ele>
  <time>2026-09-01T01:17:39Z</time>
  <course>187.19</course>
  <speed>0.03605551275463989</speed>
  <fix>3d</fix>
</trkpt>
<trkpt lat="33.810313" lon="-118.393867">
  <ele>-0.12</ele>
  <time>2026-09-01T01:17:39Z</time>
  <course>0.0</course>
  <speed>0.0</speed>
  <fix>3d</fix>
</trkpt>
<trkpt lat="33.810313" lon="-118.393867">
  <ele>-0.124</ele>
  <time>2026-09-01T01:17:39Z</time>
  <course>187.18</course>
  <speed>0.03605551275463989</speed>
  <fix>3d</fix>
</trkpt>
<trkpt lat="33.810313" lon="-118.393867">
  <ele>-0.12</ele>
  <time>2026-09-01T01:17:39Z</time>
  <course>0.0</course>
  <speed>0.0</speed>
  <fix>3d</fix>
</trkpt>
<trkpt lat="33.810313" lon="-118.393867">
  <ele>-0.123</ele>
  <time>2026-09-01T01:17:39Z</time>
  <course>187.18</course>
  <speed>0.03605551275463989</speed>
  <fix>3d</fix>
</trkpt>
<trkpt lat="33.810313" lon="-118.393867">
  <ele>-0.12</ele>
  <time>2026-09-01T01:17:39Z</time>
  <course>0.0</course>
  <speed>0.0</speed>
  <fix>3d</fix>
</trkpt>
<trkpt lat="33.810313" lon="-118.393867">
  <ele>-0.123</ele>
  <time>2026-09-01T01:17:39Z</time>
  <course>187.17</course>
  <speed>0.03605551275463989</speed>
  <fix>3d</fix>
</trkpt>
<trkpt lat="33.810313" lon="-118.393867">
  <ele>-0.12</ele>
  <time>2026-09-01T01:17:39Z</time>
  <course>0.0</course>
  <speed>0.0</speed>
  <fix>3d</fix>
</trkpt>
<trkpt lat="33.810313" lon="-118.393867">
  <ele>-0.122</ele>
  <time>2026-09-01T01:17:39Z</time>
  <course>187.17</course>
  <speed>0.0</speed>
  <fix>3d</fix>
</trkpt>
<trkpt lat="33.810313" lon="-118.393867">
  <ele>-0.12</ele>
  <time>2026-09-01T01:17:39Z</time>
  <course>0.0</course>
  <speed>0.0</speed>
  <fix>3d</fix>
</trkpt>
<trkpt lat="33.810313" lon="-118.393867">
  <ele>-0.121</ele>
  <time>2026-09-01T01:17:39Z</time>
  <course>187.16</course>
  <speed>0.0</speed>
  <fix>3d</fix>
</trkpt>
<trkpt lat="33.810313" lon="-118.393867">
  <ele>-0.12</ele>
  <time>2026-09-01T01:17:39Z</time>
  <course>0.0</course>
  <speed>0.0</speed>
  <fix>3d</fix>
</trkpt>
<trkpt lat="33.810313" lon="-118.393867">
  <ele>-0.121</ele>
  <time>2026-09-01T01:17:39Z</time>
  <course>187.16</course>
  <speed>0.0</speed>
  <fix>3d</fix>
</trkpt>
<trkpt lat="33.810313" lon="-118.393867">
  <ele>-0.12</ele>
  <time>2026-09-01T01:17:39Z</time>
  <course>0.0</course>
  <speed>0.0</speed>
  <fix>3d</fix>
</trkpt>
<trkpt lat="33.810313" lon="-118.393867">
  <ele>-0.119</ele>
  <time>2026-09-01T01:17:39Z</time>
  <course>187.15</course>
  <speed>0.0</speed>
  <fix>3d</fix>
</trkpt>
<trkpt lat="33.810313" lon="-118.393867">
  <ele>-0.12</ele>
  <time>2026-09-01T01:17:39Z</time>
  <course>0.0</course>
  <speed>0.0</speed>
  <fix>3d</fix>
</trkpt>
<trkpt lat="33.810313" lon="-118.393867">
  <ele>-0.116</ele>
  <time>2026-09-01T01:17:39Z</time>
  <course>187.15</course>
  <speed>0.0</speed>
  <fix>3d</fix>
</trkpt>
<trkpt lat="33.810313" lon="-118.393867">
  <ele>-0.12</ele>
  <time>2026-09-01T01:17:39Z</time>
  <course>0.0</course>
  <speed>0.0</speed>
  <fix>3d</fix>
</trkpt>
<trkpt lat="33.810313" lon="-118.393867">
  <ele>-0.114</ele>
  <time>2026-09-01T01:17:39Z</time>
  <course>187.14</course>
  <speed>0.0</speed>
  <fix>3d</fix>
</trkpt>
<trkpt lat="33.810313" lon="-118.393867">
  <ele>-0.12</ele>
  <time>2026-09-01T01:17:39Z</time>
  <course>0.0</course>
  <speed>0.0</speed>
  <fix>3d</fix>
</trkpt>
<trkpt lat="33.810313" lon="-118.393867">
  <ele>-0.113</ele>
  <time>2026-09-01T01:17:39Z</time>
  <course>187.14</course>
  <speed>0.0</speed>
  <fix>3d</fix>
</trkpt>
<trkpt lat="33.810313" lon="-118.393867">
  <ele>-0.12</ele>
  <time>2026-09-01T01:17:39Z</time>
  <course>0.0</course>
  <speed>0.0</speed>
  <fix>3d</fix>
</trkpt>
<trkpt lat="33.810313" lon="-118.393867">
  <ele>-0.112</ele>
  <time>2026-09-01T01:17:39Z</time>
  <course>187.13</course>
  <speed>0.0</speed>
  <fix>3d</fix>
</trkpt>
<trkpt lat="33.810313" lon="-118.393867">
  <ele>-0.12</ele>
  <time>2026-09-01T01:17:39Z</time>
  <course>0.0</course>
  <speed>0.0</speed>
  <fix>3d</fix>
</trkpt>
<trkpt lat="33.810313" lon="-118.393867">
  <ele>-0.113</ele>
  <time>2026-09-01T01:17:39Z</time>
  <course>187.13</course>
  <speed>0.0</speed>
  <fix>3d</fix>
</trkpt>
<trkpt lat="33.810313" lon="-118.393867">
  <ele>-0.12</ele>
  <time>2026-09-01T01:17:39Z</time>
  <course>0.0</course>
  <speed>0.0</speed>
  <fix>3d</fix>
</trkpt>
<trkpt lat="33.810313" lon="-118.393867">
  <ele>-0.114</ele>
  <time>2026-09-01T01:17:39Z</time>
  <course>187.12</course>
  <speed>0.0</speed>
  <fix>3d</fix>
</trkpt>
<trkpt lat="33.810313" lon="-118.393867">
  <ele>-0.12</ele>
  <time>2026-09-01T01:17:39Z</time>
  <course>0.0</course>
  <speed>0.0</speed>
  <fix>3d</fix>
</trkpt>
<trkpt lat="33.810313" lon="-118.393867">
  <ele>-0.116</ele>
  <time>2026-09-01T01:17:39Z</time>
  <course>187.12</course>
  <speed>0.0</speed>
  <fix>3d</fix>
</trkpt>
<trkpt lat="33.810313" lon="-118.393867">
  <ele>-0.12</ele>
  <time>2026-09-01T01:17:39Z</time>
  <course>0.0</course>
  <speed>0.0</speed>
  <fix>3d</fix>
</trkpt>
<trkpt lat="33.810313" lon="-118.393867">
  <ele>-0.119</ele>
  <time>2026-09-01T01:17:39Z</time>
  <course>187.11</course>
  <speed>0.01</speed>
  <fix>3d</fix>
</trkpt>
<trkpt lat="33.810313" lon="-118.393867">
  <ele>-0.12</ele>
  <time>2026-09-01T01:17:39Z</time>
  <course>0.0</course>
  <speed>0.0</speed>
  <fix>3d</fix>
</trkpt>
<trkpt lat="33.810313" lon="-118.393867">
  <ele>-0.12</ele>
  <time>2026-09-01T01:17:39Z</time>
  <course>187.11</course>
  <speed>0.01</speed>
  <fix>3d</fix>
</trkpt>
<trkpt lat="33.810313" lon="-118.393867">
  <ele>-0.12</ele>
  <time>2026-09-01T01:17:39Z</time>
  <course>0.0</course>
  <speed>0.0</speed>
  <fix>3d</fix>
</trkpt>
<trkpt lat="33.810313" lon="-118.393867">
  <ele>-0.121</ele>
  <time>2026-09-01T01:17:39Z</time>
  <course>187.1</course>
  <speed>0.01</speed>
  <fix>3d</fix>
</trkpt>
<trkpt lat="33.810313" lon="-118.393867">
  <ele>-0.12</ele>
  <time>2026-09-01T01:17:39Z</time>
  <course>0.0</course>
  <speed>0.0</speed>
  <fix>3d</fix>
</trkpt>
<trkpt lat="33.810313" lon="-118.393867">
  <ele>-0.122</ele>
  <time>2026-09-01T01:17:39Z</time>
  <course>187.1</course>
  <speed>0.01414213562373095</speed>
  <fix>3d</fix>
</trkpt>
<trkpt lat="33.810313" lon="-118.393867">
  <ele>-0.12</ele>
  <time>2026-09-01T01:17:39Z</time>
  <course>0.0</course>
  <speed>0.0</speed>
  <fix>3d</fix>
</trkpt>
<trkpt lat="33.810313" lon="-118.393867">
  <ele>-0.122</ele>
  <time>2026-09-01T01:17:39Z</time>
  <course>187.1</course>
  <speed>0.01414213562373095</speed>
  <fix>3d</fix>
</trkpt>
<trkpt lat="33.810313" lon="-118.393867">
  <ele>-0.12</ele>
  <time>2026-09-01T01:17:39Z</time>
  <course>0.0</course>
  <speed>0.0</speed>
  <fix>3d</fix>
</trkpt>
<trkpt lat="33.810313" lon="-118.393867">
  <ele>-0.123</ele>
  <time>2026-09-01T01:17:39Z</time>
  <course>187.09</course>
  <speed>0.01414213562373095</speed>
  <fix>3d</fix>
</trkpt>
<trkpt lat="33.810313" lon="-118.393867">
  <ele>-0.12</ele>
  <time>2026-09-01T01:17:39Z</time>
  <course>0.0</course>
  <speed>0.0</speed>
  <fix>3d</fix>
</trkpt>
<trkpt lat="33.810313" lon="-118.393867">
  <ele>-0.124</ele>
  <time>2026-09-01T01:17:39Z</time>
  <course>187.09</course>
  <speed>0.01414213562373095</speed>
  <fix>3d</fix>
</trkpt>
<trkpt lat="33.810313" lon="-118.393867">
  <ele>-0.12</ele>
  <time>2026-09-01T01:17:39Z</time>
  <course>0.0</course>
  <speed>0.0</speed>
  <fix>3d</fix>
</trkpt>
<trkpt lat="33.810313" lon="-118.393867">
  <ele>-0.126</ele>
  <time>2026-09-01T01:17:39Z</time>
  <course>187.08</course>
  <speed>0.01414213562373095</speed>
  <fix>3d</fix>
</trkpt>
<trkpt lat="33.810313" lon="-118.393867">
  <ele>-0.12</ele>
  <time>2026-09-01T01:17:39Z</time>
  <course>0.0</course>
  <speed>0.0</speed>
  <fix>3d</fix>
</trkpt>
<trkpt lat="33.810313" lon="-118.393867">
  <ele>-0.128</ele>
  <time>2026-09-01T01:17:39Z</time>
  <course>187.08</course>
  <speed>0.01414213562373095</speed>
  <fix>3d</fix>
</trkpt>
<trkpt lat="33.810313" lon="-118.393867">
  <ele>-0.12</ele>
  <time>2026-09-01T01:17:39Z</time>
  <course>0.0</course>
  <speed>0.0</speed>
  <fix>3d</fix>
</trkpt>
<trkpt lat="33.810313" lon="-118.393867">
  <ele>-0.13</ele>
  <time>2026-09-01T01:17:39Z</time>
  <course>187.07</course>
  <speed>0.01414213562373095</speed>
  <fix>3d</fix>
</trkpt>
<trkpt lat="33.810313" lon="-118.393867">
  <ele>-0.12</ele>
  <time>2026-09-01T01:17:39Z</time>
  <course>0.0</course>
  <speed>0.0</speed>
  <fix>3d</fix>
</trkpt>
<trkpt lat="33.810313" lon="-118.393867">
  <ele>-0.134</ele>
  <time>2026-09-01T01:17:39Z</time>
  <course>187.07</course>
  <speed>0.01414213562373095</speed>
  <fix>3d</fix>
</trkpt>
<trkpt lat="33.810313" lon="-118.393867">
  <ele>-0.12</ele>
  <time>2026-09-01T01:17:39Z</time>
  <course>0.0</course>
  <speed>0.0</speed>
  <fix>3d</fix>
</trkpt>
<trkpt lat="33.810313" lon="-118.393867">
  <ele>-0.136</ele>
  <time>2026-09-01T01:17:39Z</time>
  <course>187.06</course>
  <speed>0.01414213562373095</speed>
  <fix>3d</fix>
</trkpt>
<trkpt lat="33.810313" lon="-118.393867">
  <ele>-0.12</ele>
  <time>2026-09-01T01:17:39Z</time>
  <course>0.0</course>
  <speed>0.0</speed>
  <fix>3d</fix>
</trkpt>
<trkpt lat="33.810313" lon="-118.393867">
  <ele>-0.137</ele>
  <time>2026-09-01T01:17:39Z</time>
  <course>187.06</course>
  <speed>0.01414213562373095</speed>
  <fix>3d</fix>
</trkpt>
<trkpt lat="33.810313" lon="-118.393867">
  <ele>-0.12</ele>
  <time>2026-09-01T01:17:39Z</time>
  <course>0.0</course>
  <speed>0.0</speed>
  <fix>3d</fix>
</trkpt>
<trkpt lat="33.810313" lon="-118.393867">
  <ele>-0.137</ele>
  <time>2026-09-01T01:17:39Z</time>
  <course>187.05</course>
  <speed>0.01414213562373095</speed>
  <fix>3d</fix>
</trkpt>
<trkpt lat="33.810313" lon="-118.393867">
  <ele>-0.12</ele>
  <time>2026-09-01T01:17:39Z</time>
  <course>0.0</course>
  <speed>0.0</speed>
  <fix>3d</fix>
</trkpt>
<trkpt lat="33.810313" lon="-118.393867">
  <ele>-0.144</ele>
  <time>2026-09-01T01:17:39Z</time>
  <course>187.05</course>
  <speed>0.01414213562373095</speed>
  <fix>3d</fix>
</trkpt>
<trkpt lat="33.810313" lon="-118.393867">
  <ele>-0.12</ele>
  <time>2026-09-01T01:17:39Z</time>
  <course>0.0</course>
  <speed>0.0</speed>
  <fix>3d</fix>
</trkpt>
<trkpt lat="33.810313" lon="-118.393867">
  <ele>-0.215</ele>
  <time>2026-09-01T01:17:39Z</time>
  <course>187.04</course>
  <speed>0.01414213562373095</speed>
  <fix>3d</fix>
</trkpt>
<trkpt lat="33.810313" lon="-118.393867">
  <ele>-0.13</ele>
  <time>2026-09-01T01:17:39Z</time>
  <course>275.0</course>
  <speed>0.0</speed>
  <fix>3d</fix>
</trkpt>
<trkpt lat="33.810313" lon="-118.393867">
  <ele>-0.325</ele>
  <time>2026-09-01T01:17:39Z</time>
  <course>187.04</course>
  <speed>0.01</speed>
  <fix>3d</fix>
</trkpt>
<trkpt lat="33.810313" lon="-118.393867">
  <ele>-0.13</ele>
  <time>2026-09-01T01:17:39Z</time>
  <course>275.0</course>
  <speed>0.0</speed>
  <fix>3d</fix>
</trkpt>
<trkpt lat="33.810313" lon="-118.393867">
  <ele>-0.448</ele>
  <time>2026-09-01T01:17:39Z</time>
  <course>187.03</course>
  <speed>0.01</speed>
  <fix>3d</fix>
</trkpt>
<trkpt lat="33.810313" lon="-118.393867">
  <ele>-0.25</ele>
  <time>2026-09-01T01:17:39Z</time>
  <course>275.0</course>
  <speed>0.0</speed>
  <fix>3d</fix>
</trkpt>
<trkpt lat="33.810313" lon="-118.393867">
  <ele>-0.451</ele>
  <time>2026-09-01T01:17:39Z</time>
  <course>187.03</course>
  <speed>0.01</speed>
  <fix>3d</fix>
</trkpt>
<trkpt lat="33.810313" lon="-118.393867">
  <ele>-0.575</ele>
  <time>2026-09-01T01:17:39Z</time>
  <course>187.03</course>
  <speed>0.01</speed>
  <fix>3d</fix>
</trkpt>
<trkpt lat="33.810313" lon="-118.393867">
  <ele>-0.25</ele>
  <time>2026-09-01T01:17:39Z</time>
  <course>275.0</course>
  <speed>0.0</speed>
  <fix>3d</fix>
</trkpt>
<trkpt lat="33.810313" lon="-118.393867">
  <ele>-0.578</ele>
  <time>2026-09-01T01:17:39Z</time>
  <course>187.03</course>
  <speed>0.01</speed>
  <fix>3d</fix>
</trkpt>
<trkpt lat="33.810313" lon="-118.393867">
  <ele>-0.705</ele>
  <time>2026-09-01T01:17:39Z</time>
  <course>187.02</course>
  <speed>0.01</speed>
  <fix>3d</fix>
</trkpt>
<trkpt lat="33.810313" lon="-118.393867">
  <ele>-0.46</ele>
  <time>2026-09-01T01:17:39Z</time>
  <course>275.0</course>
  <speed>0.0</speed>
  <fix>3d</fix>
</trkpt>
<trkpt lat="33.810313" lon="-118.393867">
  <ele>-0.753</ele>
  <time>2026-09-01T01:17:39Z</time>
  <course>187.02</course>
  <speed>0.01</speed>
  <fix>3d</fix>
</trkpt>
<trkpt lat="33.810313" lon="-118.393867">
  <ele>-0.836</ele>
  <time>2026-09-01T01:17:39Z</time>
  <course>184.83</course>
  <speed>0.01</speed>
  <fix>3d</fix>
</trkpt>
<trkpt lat="33.810313" lon="-118.393867">
  <ele>-0.46</ele>
  <time>2026-09-01T01:17:39Z</time>
  <course>275.0</course>
  <speed>0.0</speed>
  <fix>3d</fix>
</trkpt>
<trkpt lat="33.810313" lon="-118.393867">
  <ele>-0.839</ele>
  <time>2026-09-01T01:17:39Z</time>
  <course>184.83</course>
  <speed>0.01</speed>
  <fix>3d</fix>
</trkpt>
<trkpt lat="33.810313" lon="-118.393867">
  <ele>-0.969</ele>
  <time>2026-09-01T01:17:39Z</time>
  <course>184.82</course>
  <speed>0.0</speed>
  <fix>3d</fix>
</trkpt>
<trkpt lat="33.810313" lon="-118.393867">
  <ele>-0.71</ele>
  <time>2026-09-01T01:17:39Z</time>
  <course>275.0</course>
  <speed>0.0</speed>
  <fix>3d</fix>
</trkpt>
<trkpt lat="33.810313" lon="-118.393867">
  <ele>-0.972</ele>
  <time>2026-09-01T01:17:39Z</time>
  <course>184.82</course>
  <speed>0.0</speed>
  <fix>3d</fix>
</trkpt>
<trkpt lat="33.810313" lon="-118.393867">
  <ele>-1.103</ele>
  <time>2026-09-01T01:17:39Z</time>
  <course>184.82</course>
  <speed>0.0</speed>
  <fix>3d</fix>
</trkpt>
<trkpt lat="33.810313" lon="-118.393867">
  <ele>-0.71</ele>
  <time>2026-09-01T01:17:39Z</time>
  <course>275.0</course>
  <speed>0.0</speed>
  <fix>3d</fix>
</trkpt>
<trkpt lat="33.810313" lon="-118.393867">
  <ele>-1.105</ele>
  <time>2026-09-01T01:17:39Z</time>
  <course>184.82</course>
  <speed>0.0</speed>
  <fix>3d</fix>
</trkpt>
<trkpt lat="33.810313" lon="-118.393867">
  <ele>-1.236</ele>
  <time>2026-09-01T01:17:39Z</time>
  <course>184.82</course>
  <speed>0.0</speed>
  <fix>3d</fix>
</trkpt>
<trkpt lat="33.810313" lon="-118.393867">
  <ele>-0.96</ele>
  <time>2026-09-01T01:17:39Z</time>
  <course>275.0</course>
  <speed>0.0</speed>
  <fix>3d</fix>
</trkpt>
<trkpt lat="33.810313" lon="-118.393867">
  <ele>-1.238</ele>
  <time>2026-09-01T01:17:39Z</time>
  <course>184.82</course>
  <speed>0.0</speed>
  <fix>3d</fix>
</trkpt>
<trkpt lat="33.810313" lon="-118.393867">
  <ele>-1.369</ele>
  <time>2026-09-01T01:17:39Z</time>
  <course>184.82</course>
  <speed>0.0</speed>
  <fix>3d</fix>
</trkpt>
<trkpt lat="33.810313" lon="-118.393867">
  <ele>-0.96</ele>
  <time>2026-09-01T01:17:39Z</time>
  <course>275.0</course>
  <speed>0.0</speed>
  <fix>3d</fix>
</trkpt>
<trkpt lat="33.810313" lon="-118.393867">
  <ele>-1.372</ele>
  <time>2026-09-01T01:17:39Z</time>
  <course>184.82</course>
  <speed>0.0</speed>
  <fix>3d</fix>
</trkpt>
<trkpt lat="33.810313" lon="-118.393867">
  <ele>-1.501</ele>
  <time>2026-09-01T01:17:39Z</time>
  <course>184.81</course>
  <speed>0.0</speed>
  <fix>3d</fix>
</trkpt>
<trkpt lat="33.810313" lon="-118.393867">
  <ele>-1.2</ele>
  <time>2026-09-01T01:17:39Z</time>
  <course>275.0</course>
  <speed>0.0</speed>
  <fix>3d</fix>
</trkpt>
<trkpt lat="33.810313" lon="-118.393867">
  <ele>-1.503</ele>
  <time>2026-09-01T01:17:39Z</time>
  <course>184.81</course>
  <speed>0.0</speed>
  <fix>3d</fix>
</trkpt>
<trkpt lat="33.810313" lon="-118.393867">
  <ele>-1.632</ele>
  <time>2026-09-01T01:17:39Z</time>
  <course>184.81</course>
  <speed>0.0</speed>
  <fix>3d</fix>
</trkpt>
<trkpt lat="33.810313" lon="-118.393867">
  <ele>-1.2</ele>
  <time>2026-09-01T01:17:39Z</time>
  <course>275.0</course>
  <speed>0.0</speed>
  <fix>3d</fix>
</trkpt>
<trkpt lat="33.810313" lon="-118.393867">
  <ele>-1.634</ele>
  <time>2026-09-01T01:17:39Z</time>
  <course>184.81</course>
  <speed>0.0</speed>
  <fix>3d</fix>
</trkpt>
<trkpt lat="33.810313" lon="-118.393867">
  <ele>-1.763</ele>
  <time>2026-09-01T01:17:39Z</time>
  <course>184.81</course>
  <speed>0.0</speed>
  <fix>3d</fix>
</trkpt>
<trkpt lat="33.810313" lon="-118.393867">
  <ele>-1.44</ele>
  <time>2026-09-01T01:17:39Z</time>
  <course>275.0</course>
  <speed>0.0</speed>
  <fix>3d</fix>
</trkpt>
<trkpt lat="33.810313" lon="-118.393867">
  <ele>-1.766</ele>
  <time>2026-09-01T01:17:39Z</time>
  <course>184.81</course>
  <speed>0.0</speed>
  <fix>3d</fix>
</trkpt>
<trkpt lat="33.810313" lon="-118.393867">
  <ele>-1.893</ele>
  <time>2026-09-01T01:17:39Z</time>
  <course>184.8</course>
  <speed>0.0</speed>
  <fix>3d</fix>
</trkpt>
<trkpt lat="33.810313" lon="-118.393867">
  <ele>-1.44</ele>
  <time>2026-09-01T01:17:39Z</time>
  <course>275.0</course>
  <speed>0.0</speed>
  <fix>3d</fix>
</trkpt>
<trkpt lat="33.810313" lon="-118.393867">
  <ele>-1.896</ele>
  <time>2026-09-01T01:17:39Z</time>
  <course>184.81</course>
  <speed>0.0</speed>
  <fix>3d</fix>
</trkpt>
<trkpt lat="33.810313" lon="-118.393867">
  <ele>-2.022</ele>
  <time>2026-09-01T01:17:39Z</time>
  <course>184.82</course>
  <speed>0.0</speed>
  <fix>3d</fix>
</trkpt>
<trkpt lat="33.810313" lon="-118.393867">
  <ele>-1.68</ele>
  <time>2026-09-01T01:17:39Z</time>
  <course>275.0</course>
  <speed>0.0</speed>
  <fix>3d</fix>
</trkpt>
<trkpt lat="33.810313" lon="-118.393867">
  <ele>-2.026</ele>
  <time>2026-09-01T01:17:39Z</time>
  <course>184.82</course>
  <speed>0.0</speed>
  <fix>3d</fix>
</trkpt>
<trkpt lat="33.810313" lon="-118.393867">
  <ele>-2.151</ele>
  <time>2026-09-01T01:17:39Z</time>
  <course>184.83</course>
  <speed>0.0</speed>
  <fix>3d</fix>
</trkpt>
<trkpt lat="33.810313" lon="-118.393867">
  <ele>-1.68</ele>
  <time>2026-09-01T01:17:39Z</time>
  <course>275.0</course>
  <speed>0.0</speed>
  <fix>3d</fix>
</trkpt>
<trkpt lat="33.810313" lon="-118.393867">
  <ele>-2.189</ele>
  <time>2026-09-01T01:17:39Z</time>
  <course>184.83</course>
  <speed>0.0</speed>
  <fix>3d</fix>
</trkpt>
<trkpt lat="33.810313" lon="-118.393867">
  <ele>-2.278</ele>
  <time>2026-09-01T01:17:39Z</time>
  <course>184.83</course>
  <speed>0.0</speed>
  <fix>3d</fix>
</trkpt>
<trkpt lat="33.810313" lon="-118.393867">
  <ele>-1.93</ele>
  <time>2026-09-01T01:17:39Z</time>
  <course>275.0</course>
  <speed>0.0</speed>
  <fix>3d</fix>
</trkpt>
<trkpt lat="33.810313" lon="-118.393867">
  <ele>-2.315</ele>
  <time>2026-09-01T01:17:39Z</time>
  <course>184.84</course>
  <speed>0.0</speed>
  <fix>3d</fix>
</trkpt>
<trkpt lat="33.810313" lon="-118.393867">
  <ele>-2.403</ele>
  <time>2026-09-01T01:17:39Z</time>
  <course>184.84</course>
  <speed>0.0</speed>
  <fix>3d</fix>
</trkpt>
<trkpt lat="33.810313" lon="-118.393867">
  <ele>-1.93</ele>
  <time>2026-09-01T01:17:39Z</time>
  <course>275.0</course>
  <speed>0.0</speed>
  <fix>3d</fix>
</trkpt>
<trkpt lat="33.810313" lon="-118.393867">
  <ele>-2.446</ele>
  <time>2026-09-01T01:17:39Z</time>
  <course>184.85</course>
  <speed>0.0</speed>
  <fix>3d</fix>
</trkpt>
<trkpt lat="33.810313" lon="-118.393867">
  <ele>-2.527</ele>
  <time>2026-09-01T01:17:39Z</time>
  <course>184.86</course>
  <speed>0.0</speed>
  <fix>3d</fix>
</trkpt>
<trkpt lat="33.810313" lon="-118.393867">
  <ele>-2.17</ele>
  <time>2026-09-01T01:17:39Z</time>
  <course>275.0</course>
  <speed>0.0</speed>
  <fix>3d</fix>
</trkpt>
<trkpt lat="33.810313" lon="-118.393867">
  <ele>-2.564</ele>
  <time>2026-09-01T01:17:39Z</time>
  <course>184.86</course>
  <speed>0.0</speed>
  <fix>3d</fix>
</trkpt>
<trkpt lat="33.810313" lon="-118.393867">
  <ele>-2.65</ele>
  <time>2026-09-01T01:17:39Z</time>
  <course>184.87</course>
  <speed>0.0</speed>
  <fix>3d</fix>
</trkpt>
<trkpt lat="33.810313" lon="-118.393867">
  <ele>-2.17</ele>
  <time>2026-09-01T01:17:39Z</time>
  <course>275.0</course>
  <speed>0.0</speed>
  <fix>3d</fix>
</trkpt>
<trkpt lat="33.810313" lon="-118.393867">
  <ele>-2.681</ele>
  <time>2026-09-01T01:17:39Z</time>
  <course>184.87</course>
  <speed>0.0</speed>
  <fix>3d</fix>
</trkpt>
<trkpt lat="33.810313" lon="-118.393867">
  <ele>-2.775</ele>
  <time>2026-09-01T01:17:39Z</time>
  <course>184.88</course>
  <speed>0.0</speed>
  <fix>3d</fix>
</trkpt>
<trkpt lat="33.810313" lon="-118.393867">
  <ele>-2.42</ele>
  <time>2026-09-01T01:17:39Z</time>
  <course>275.0</course>
  <speed>0.0</speed>
  <fix>3d</fix>
</trkpt>
<trkpt lat="33.810313" lon="-118.393867">
  <ele>-2.819</ele>
  <time>2026-09-01T01:17:39Z</time>
  <course>184.88</course>
  <speed>0.0</speed>
  <fix>3d</fix>
</trkpt>
<trkpt lat="33.810313" lon="-118.393867">
  <ele>-2.899</ele>
  <time>2026-09-01T01:17:39Z</time>
  <course>184.89</course>
  <speed>0.0</speed>
  <fix>3d</fix>
</trkpt>
<trkpt lat="33.810313" lon="-118.393867">
  <ele>-2.42</ele>
  <time>2026-09-01T01:17:39Z</time>
  <course>275.0</course>
  <speed>0.0</speed>
  <fix>3d</fix>
</trkpt>
<trkpt lat="33.810313" lon="-118.393867">
  <ele>-2.936</ele>
  <time>2026-09-01T01:17:39Z</time>
  <course>184.89</course>
  <speed>0.0</speed>
  <fix>3d</fix>
</trkpt>
<trkpt lat="33.810313" lon="-118.393867">
  <ele>-3.022</ele>
  <time>2026-09-01T01:17:39Z</time>
  <course>184.9</course>
  <speed>0.0</speed>
  <fix>3d</fix>
</trkpt>
<trkpt lat="33.810313" lon="-118.393867">
  <ele>-2.65</ele>
  <time>2026-09-01T01:17:39Z</time>
  <course>275.0</course>
  <speed>0.0</speed>
  <fix>3d</fix>
</trkpt>
<trkpt lat="33.810313" lon="-118.393867">
  <ele>-3.061</ele>
  <time>2026-09-01T01:17:39Z</time>
  <course>184.9</course>
  <speed>0.0</speed>
  <fix>3d</fix>
</trkpt>
<trkpt lat="33.810313" lon="-118.393867">
  <ele>-3.143</ele>
  <time>2026-09-01T01:17:39Z</time>
  <course>184.91</course>
  <speed>0.0</speed>
  <fix>3d</fix>
</trkpt>
<trkpt lat="33.810313" lon="-118.393867">
  <ele>-2.65</ele>
  <time>2026-09-01T01:17:39Z</time>
  <course>275.0</course>
  <speed>0.0</speed>
  <fix>3d</fix>
</trkpt>
<trkpt lat="33.810313" lon="-118.393867">
  <ele>-3.179</ele>
  <time>2026-09-01T01:17:39Z</time>
  <course>184.91</course>
  <speed>0.0</speed>
  <fix>3d</fix>
</trkpt>
<trkpt lat="33.810313" lon="-118.393867">
  <ele>-3.265</ele>
  <time>2026-09-01T01:17:39Z</time>
  <course>184.92</course>
  <speed>0.0</speed>
  <fix>3d</fix>
</trkpt>
<trkpt lat="33.810313" lon="-118.393867">
  <ele>-2.9</ele>
  <time>2026-09-01T01:17:39Z</time>
  <course>275.0</course>
  <speed>0.0</speed>
  <fix>3d</fix>
</trkpt>
<trkpt lat="33.810313" lon="-118.393867">
  <ele>-3.268</ele>
  <time>2026-09-01T01:17:39Z</time>
  <course>184.92</course>
  <speed>0.0</speed>
  <fix>3d</fix>
</trkpt>
<trkpt lat="33.810313" lon="-118.393867">
  <ele>-3.387</ele>
  <time>2026-09-01T01:17:39Z</time>
  <course>184.93</course>
  <speed>0.0</speed>
  <fix>3d</fix>
</trkpt>
<trkpt lat="33.810313" lon="-118.393867">
  <ele>-2.9</ele>
  <time>2026-09-01T01:17:39Z</time>
  <course>275.0</course>
  <speed>0.0</speed>
  <fix>3d</fix>
</trkpt>
<trkpt lat="33.810313" lon="-118.393867">
  <ele>-3.39</ele>
  <time>2026-09-01T01:17:39Z</time>
  <course>184.93</course>
  <speed>0.0</speed>
  <fix>3d</fix>
</trkpt>
<trkpt lat="33.810313" lon="-118.393867">
  <ele>-3.51</ele>
  <time>2026-09-01T01:17:39Z</time>
  <course>184.94</course>
  <speed>0.0</speed>
  <fix>3d</fix>
</trkpt>
<trkpt lat="33.810313" lon="-118.393867">
  <ele>-3.14</ele>
  <time>2026-09-01T01:17:39Z</time>
  <course>275.0</course>
  <speed>0.0</speed>
  <fix>3d</fix>
</trkpt>
<trkpt lat="33.810313" lon="-118.393867">
  <ele>-3.513</ele>
  <time>2026-09-01T01:17:39Z</time>
  <course>184.94</course>
  <speed>0.0</speed>
  <fix>3d</fix>
</trkpt>
<trkpt lat="33.810313" lon="-118.393867">
  <ele>-3.632</ele>
  <time>2026-09-01T01:17:39Z</time>
  <course>184.95</course>
  <speed>0.0</speed>
  <fix>3d</fix>
</trkpt>
<trkpt lat="33.810313" lon="-118.393867">
  <ele>-3.14</ele>
  <time>2026-09-01T01:17:39Z</time>
  <course>275.0</course>
  <speed>0.0</speed>
  <fix>3d</fix>
</trkpt>
<trkpt lat="33.810313" lon="-118.393867">
  <ele>-3.669</ele>
  <time>2026-09-01T01:17:39Z</time>
  <course>184.95</course>
  <speed>0.0</speed>
  <fix>3d</fix>
</trkpt>
<trkpt lat="33.810313" lon="-118.393867">
  <ele>-3.755</ele>
  <time>2026-09-01T01:17:39Z</time>
  <course>184.96</course>
  <speed>0.0</speed>
  <fix>3d</fix>
</trkpt>
<trkpt lat="33.810313" lon="-118.393867">
  <ele>-3.38</ele>
  <time>2026-09-01T01:17:39Z</time>
  <course>275.0</course>
  <speed>0.0</speed>
  <fix>3d</fix>
</trkpt>
<trkpt lat="33.810313" lon="-118.393867">
  <ele>-3.794</ele>
  <time>2026-09-01T01:17:39Z</time>
  <course>184.96</course>
  <speed>0.0</speed>
  <fix>3d</fix>
</trkpt>
<trkpt lat="33.810313" lon="-118.393867">
  <ele>-3.878</ele>
  <time>2026-09-01T01:17:39Z</time>
  <course>184.97</course>
  <speed>0.0</speed>
  <fix>3d</fix>
</trkpt>
<trkpt lat="33.810313" lon="-118.393867">
  <ele>-3.38</ele>
  <time>2026-09-01T01:17:39Z</time>
  <course>275.0</course>
  <speed>0.0</speed>
  <fix>3d</fix>
</trkpt>
<trkpt lat="33.810313" lon="-118.393867">
  <ele>-3.915</ele>
  <time>2026-09-01T01:17:39Z</time>
  <course>184.97</course>
  <speed>0.0</speed>
  <fix>3d</fix>
</trkpt>
<trkpt lat="33.810313" lon="-118.393867">
  <ele>-4.001</ele>
  <time>2026-09-01T01:17:39Z</time>
  <course>184.98</course>
  <speed>0.0</speed>
  <fix>3d</fix>
</trkpt>
<trkpt lat="33.810313" lon="-118.393867">
  <ele>-3.63</ele>
  <time>2026-09-01T01:17:39Z</time>
  <course>275.0</course>
  <speed>0.0</speed>
  <fix>3d</fix>
</trkpt>
<trkpt lat="33.810313" lon="-118.393867">
  <ele>-4.038</ele>
  <time>2026-09-01T01:17:39Z</time>
  <course>184.98</course>
  <speed>0.0</speed>
  <fix>3d</fix>
</trkpt>
<trkpt lat="33.810313" lon="-118.393867">
  <ele>-4.125</ele>
  <time>2026-09-01T01:17:39Z</time>
  <course>184.99</course>
  <speed>0.0</speed>
  <fix>3d</fix>
</trkpt>
<trkpt lat="33.810313" lon="-118.393867">
  <ele>-3.63</ele>
  <time>2026-09-01T01:17:39Z</time>
  <course>275.0</course>
  <speed>0.0</speed>
  <fix>3d</fix>
</trkpt>
<trkpt lat="33.810313" lon="-118.393867">
  <ele>-4.17</ele>
  <time>2026-09-01T01:17:39Z</time>
  <course>185.0</course>
  <speed>0.0</speed>
  <fix>3d</fix>
</trkpt>
<trkpt lat="33.810313" lon="-118.393867">
  <ele>-4.248</ele>
  <time>2026-09-01T01:17:39Z</time>
  <course>185.0</course>
  <speed>0.0</speed>
  <fix>3d</fix>
</trkpt>
<trkpt lat="33.810313" lon="-118.393867">
  <ele>-3.87</ele>
  <time>2026-09-01T01:17:39Z</time>
  <course>275.0</course>
  <speed>0.0</speed>
  <fix>3d</fix>
</trkpt>
<trkpt lat="33.810313" lon="-118.393867">
  <ele>-4.287</ele>
  <time>2026-09-01T01:17:39Z</time>
  <course>185.01</course>
  <speed>0.0</speed>
  <fix>3d</fix>
</trkpt>
<trkpt lat="33.810313" lon="-118.393867">
  <ele>-4.37</ele>
  <time>2026-09-01T01:17:39Z</time>
  <course>185.01</course>
  <speed>0.0</speed>
  <fix>3d</fix>
</trkpt>
<trkpt lat="33.810313" lon="-118.393867">
  <ele>-3.87</ele>
  <time>2026-09-01T01:17:39Z</time>
  <course>275.0</course>
  <speed>0.0</speed>
  <fix>3d</fix>
</trkpt>
<trkpt lat="33.810313" lon="-118.393867">
  <ele>-4.413</ele>
  <time>2026-09-01T01:17:39Z</time>
  <course>185.02</course>
  <speed>0.0</speed>
  <fix>3d</fix>
</trkpt>
<trkpt lat="33.810313" lon="-118.393867">
  <ele>-4.492</ele>
  <time>2026-09-01T01:17:39Z</time>
  <course>185.02</course>
  <speed>0.0</speed>
  <fix>3d</fix>
</trkpt>
<trkpt lat="33.810313" lon="-118.393867">
  <ele>-4.12</ele>
  <time>2026-09-01T01:17:39Z</time>
  <course>275.0</course>
  <speed>0.0</speed>
  <fix>3d</fix>
</trkpt>
<trkpt lat="33.810313" lon="-118.393867">
  <ele>-4.529</ele>
  <time>2026-09-01T01:17:39Z</time>
  <course>185.03</course>
  <speed>0.0</speed>
  <fix>3d</fix>
</trkpt>
<trkpt lat="33.810313" lon="-118.393867">
  <ele>-4.615</ele>
  <time>2026-09-01T01:17:39Z</time>
  <course>185.03</course>
  <speed>0.0</speed>
  <fix>3d</fix>
</trkpt>
<trkpt lat="33.810313" lon="-118.393867">
  <ele>-4.12</ele>
  <time>2026-09-01T01:17:39Z</time>
  <course>275.0</course>
  <speed>0.0</speed>
  <fix>3d</fix>
</trkpt>
<trkpt lat="33.810313" lon="-118.393867">
  <ele>-4.654</ele>
  <time>2026-09-01T01:17:39Z</time>
  <course>185.04</course>
  <speed>0.01</speed>
  <fix>3d</fix>
</trkpt>
<trkpt lat="33.810313" lon="-118.393867">
  <ele>-4.738</ele>
  <time>2026-09-01T01:17:39Z</time>
  <course>185.04</course>
  <speed>0.01</speed>
  <fix>3d</fix>
</trkpt>
<trkpt lat="33.810313" lon="-118.393867">
  <ele>-4.35</ele>
  <time>2026-09-01T01:17:39Z</time>
  <course>275.0</course>
  <speed>0.0</speed>
  <fix>3d</fix>
</trkpt>
<trkpt lat="33.810313" lon="-118.393867">
  <ele>-4.741</ele>
  <time>2026-09-01T01:17:39Z</time>
  <course>185.04</course>
  <speed>0.01</speed>
  <fix>3d</fix>
</trkpt>
<trkpt lat="33.810313" lon="-118.393867">
  <ele>-4.862</ele>
  <time>2026-09-01T01:17:39Z</time>
  <course>185.05</course>
  <speed>0.01</speed>
  <fix>3d</fix>
</trkpt>
<trkpt lat="33.810313" lon="-118.393867">
  <ele>-4.35</ele>
  <time>2026-09-01T01:17:39Z</time>
  <course>275.0</course>
  <speed>0.0</speed>
  <fix>3d</fix>
</trkpt>
<trkpt lat="33.810313" lon="-118.393867">
  <ele>-4.899</ele>
  <time>2026-09-01T01:17:39Z</time>
  <course>185.06</course>
  <speed>0.01</speed>
  <fix>3d</fix>
</trkpt>
<trkpt lat="33.810313" lon="-118.393867">
  <ele>-4.986</ele>
  <time>2026-09-01T01:17:39Z</time>
  <course>185.06</course>
  <speed>0.01</speed>
  <fix>3d</fix>
</trkpt>
<trkpt lat="33.810313" lon="-118.393867">
  <ele>-4.6</ele>
  <time>2026-09-01T01:17:39Z</time>
  <course>275.0</course>
  <speed>0.0</speed>
  <fix>3d</fix>
</trkpt>
<trkpt lat="33.810313" lon="-118.393867">
  <ele>-5.03</ele>
  <time>2026-09-01T01:17:39Z</time>
  <course>185.07</course>
  <speed>0.01</speed>
  <fix>3d</fix>
</trkpt>
<trkpt lat="33.810313" lon="-118.393867">
  <ele>-5.111</ele>
  <time>2026-09-01T01:17:39Z</time>
  <course>185.07</course>
  <speed>0.01</speed>
  <fix>3d</fix>
</trkpt>
<trkpt lat="33.810313" lon="-118.393867">
  <ele>-4.6</ele>
  <time>2026-09-01T01:17:39Z</time>
  <course>275.0</course>
  <speed>0.0</speed>
  <fix>3d</fix>
</trkpt>
<trkpt lat="33.810313" lon="-118.393867">
  <ele>-5.148</ele>
  <time>2026-09-01T01:17:39Z</time>
  <course>185.08</course>
  <speed>0.01</speed>
  <fix>3d</fix>
</trkpt>
<trkpt lat="33.810313" lon="-118.393867">
  <ele>-5.236</ele>
  <time>2026-09-01T01:17:39Z</time>
  <course>185.08</course>
  <speed>0.01</speed>
  <fix>3d</fix>
</trkpt>
<trkpt lat="33.810313" lon="-118.393867">
  <ele>-4.85</ele>
  <time>2026-09-01T01:17:39Z</time>
  <course>275.0</course>
  <speed>0.0</speed>
  <fix>3d</fix>
</trkpt>
<trkpt lat="33.810313" lon="-118.393867">
  <ele>-5.277</ele>
  <time>2026-09-01T01:17:39Z</time>
  <course>185.09</course>
  <speed>0.01</speed>
  <fix>3d</fix>
</trkpt>
<trkpt lat="33.810313" lon="-118.393867">
  <ele>-5.362</ele>
  <time>2026-09-01T01:17:39Z</time>
  <course>185.09</course>
  <speed>0.01</speed>
  <fix>3d</fix>
</trkpt>
<trkpt lat="33.810313" lon="-118.393867">
  <ele>-4.85</ele>
  <time>2026-09-01T01:17:39Z</time>
  <course>275.0</course>
  <speed>0.0</speed>
  <fix>3d</fix>
</trkpt>
<trkpt lat="33.810313" lon="-118.393867">
  <ele>-5.4</ele>
  <time>2026-09-01T01:17:39Z</time>
  <course>185.1</course>
  <speed>0.01</speed>
  <fix>3d</fix>
</trkpt>
<trkpt lat="33.810313" lon="-118.393867">
  <ele>-5.489</ele>
  <time>2026-09-01T01:17:39Z</time>
  <course>185.1</course>
  <speed>0.01414213562373095</speed>
  <fix>3d</fix>
</trkpt>
<trkpt lat="33.810313" lon="-118.393867">
  <ele>-5.09</ele>
  <time>2026-09-01T01:17:39Z</time>
  <course>275.0</course>
  <speed>0.0</speed>
  <fix>3d</fix>
</trkpt>
<trkpt lat="33.810313" lon="-118.393867">
  <ele>-5.53</ele>
  <time>2026-09-01T01:17:39Z</time>
  <course>185.11</course>
  <speed>0.01414213562373095</speed>
  <fix>3d</fix>
</trkpt>
<trkpt lat="33.810313" lon="-118.393867">
  <ele>-5.616</ele>
  <time>2026-09-01T01:17:39Z</time>
  <course>185.12</course>
  <speed>0.01414213562373095</speed>
  <fix>3d</fix>
</trkpt>
<trkpt lat="33.810313" lon="-118.393867">
  <ele>-5.09</ele>
  <time>2026-09-01T01:17:39Z</time>
  <course>275.0</course>
  <speed>0.0</speed>
  <fix>3d</fix>
</trkpt>
<trkpt lat="33.810313" lon="-118.393867">
  <ele>-5.658</ele>
  <time>2026-09-01T01:17:39Z</time>
  <course>185.12</course>
  <speed>0.01414213562373095</speed>
  <fix>3d</fix>
</trkpt>
<trkpt lat="33.810313" lon="-118.393867">
  <ele>-5.744</ele>
  <time>2026-09-01T01:17:39Z</time>
  <course>185.13</course>
  <speed>0.01414213562373095</speed>
  <fix>3d</fix>
</trkpt>
<trkpt lat="33.810313" lon="-118.393867">
  <ele>-5.33</ele>
  <time>2026-09-01T01:17:39Z</time>
  <course>275.0</course>
  <speed>0.0</speed>
  <fix>3d</fix>
</trkpt>
<trkpt lat="33.810313" lon="-118.393867">
  <ele>-5.785</ele>
  <time>2026-09-01T01:17:39Z</time>
  <course>185.13</course>
  <speed>0.01414213562373095</speed>
  <fix>3d</fix>
</trkpt>
<trkpt lat="33.810313" lon="-118.393867">
  <ele>-5.871</ele>
  <time>2026-09-01T01:17:39Z</time>
  <course>185.14</course>
  <speed>0.01414213562373095</speed>
  <fix>3d</fix>
</trkpt>
<trkpt lat="33.810313" lon="-118.393867">
  <ele>-5.33</ele>
  <time>2026-09-01T01:17:39Z</time>
  <course>275.0</course>
  <speed>0.0</speed>
  <fix>3d</fix>
</trkpt>
<trkpt lat="33.810313" lon="-118.393867">
  <ele>-5.91</ele>
  <time>2026-09-01T01:17:39Z</time>
  <course>185.14</course>
  <speed>0.01414213562373095</speed>
  <fix>3d</fix>
</trkpt>
<trkpt lat="33.810313" lon="-118.393867">
  <ele>-6.0</ele>
  <time>2026-09-01T01:17:39Z</time>
  <course>185.15</course>
  <speed>0.01414213562373095</speed>
  <fix>3d</fix>
</trkpt>
<trkpt lat="33.810313" lon="-118.393867">
  <ele>-5.58</ele>
  <time>2026-09-01T01:17:39Z</time>
  <course>275.0</course>
  <speed>0.0</speed>
  <fix>3d</fix>
</trkpt>
<trkpt lat="33.810313" lon="-118.393867">
  <ele>-6.041</ele>
  <time>2026-09-01T01:17:39Z</time>
  <course>185.15</course>
  <speed>0.01414213562373095</speed>
  <fix>3d</fix>
</trkpt>
<trkpt lat="33.810313" lon="-118.393867">
  <ele>-6.128</ele>
  <time>2026-09-01T01:17:39Z</time>
  <course>185.16</course>
  <speed>0.01414213562373095</speed>
  <fix>3d</fix>
</trkpt>
<trkpt lat="33.810313" lon="-118.393867">
  <ele>-5.58</ele>
  <time>2026-09-01T01:17:39Z</time>
  <course>275.0</course>
  <speed>0.0</speed>
  <fix>3d</fix>
</trkpt>
<trkpt lat="33.810313" lon="-118.393867">
  <ele>-6.131</ele>
  <time>2026-09-01T01:17:39Z</time>
  <course>185.16</course>
  <speed>0.01414213562373095</speed>
  <fix>3d</fix>
</trkpt>
<trkpt lat="33.810313" lon="-118.393867">
  <ele>-6.256</ele>
  <time>2026-09-01T01:17:39Z</time>
  <course>185.17</course>
  <speed>0.01414213562373095</speed>
  <fix>3d</fix>
</trkpt>
<trkpt lat="33.810313" lon="-118.393867">
  <ele>-5.81</ele>
  <time>2026-09-01T01:17:39Z</time>
  <course>275.0</course>
  <speed>0.0</speed>
  <fix>3d</fix>
</trkpt>
<trkpt lat="33.810313" lon="-118.393867">
  <ele>-6.3</ele>
  <time>2026-09-01T01:17:39Z</time>
  <course>185.17</course>
  <speed>0.01414213562373095</speed>
  <fix>3d</fix>
</trkpt>
<trkpt lat="33.810313" lon="-118.393867">
  <ele>-6.383</ele>
  <time>2026-09-01T01:17:39Z</time>
  <course>185.18</course>
  <speed>0.01414213562373095</speed>
  <fix>3d</fix>
</trkpt>
<trkpt lat="33.810313" lon="-118.393867">
  <ele>-5.81</ele>
  <time>2026-09-01T01:17:39Z</time>
  <course>275.0</course>
  <speed>0.0</speed>
  <fix>3d</fix>
</trkpt>
<trkpt lat="33.810313" lon="-118.393867">
  <ele>-6.423</ele>
  <time>2026-09-01T01:17:39Z</time>
  <course>185.18</course>
  <speed>0.01414213562373095</speed>
  <fix>3d</fix>
</trkpt>
<trkpt lat="33.810313" lon="-118.393867">
  <ele>-6.509</ele>
  <time>2026-09-01T01:17:39Z</time>
  <course>185.19</course>
  <speed>0.01414213562373095</speed>
  <fix>3d</fix>
</trkpt>
<trkpt lat="33.810313" lon="-118.393867">
  <ele>-6.06</ele>
  <time>2026-09-01T01:17:39Z</time>
  <course>275.0</course>
  <speed>0.0</speed>
  <fix>3d</fix>
</trkpt>
<trkpt lat="33.810313" lon="-118.393867">
  <ele>-6.546</ele>
  <time>2026-09-01T01:17:39Z</time>
  <course>185.19</course>
  <speed>0.01414213562373095</speed>
  <fix>3d</fix>
</trkpt>
<trkpt lat="33.810313" lon="-118.393867">
  <ele>-6.635</ele>
  <time>2026-09-01T01:17:39Z</time>
  <course>185.2</course>
  <speed>0.01414213562373095</speed>
  <fix>3d</fix>
</trkpt>
<trkpt lat="33.810313" lon="-118.393867">
  <ele>-6.06</ele>
  <time>2026-09-01T01:17:39Z</time>
  <course>275.0</course>
  <speed>0.0</speed>
  <fix>3d</fix>
</trkpt>
<trkpt lat="33.810313" lon="-118.393867">
  <ele>-6.674</ele>
  <time>2026-09-01T01:17:39Z</time>
  <course>185.2</course>
  <speed>0.01414213562373095</speed>
  <fix>3d</fix>
</trkpt>
<trkpt lat="33.810313" lon="-118.393867">
  <ele>-6.76</ele>
  <time>2026-09-01T01:17:39Z</time>
  <course>185.21</course>
  <speed>0.01414213562373095</speed>
  <fix>3d</fix>
</trkpt>
<trkpt lat="33.810313" lon="-118.393867">
  <ele>-6.31</ele>
  <time>2026-09-01T01:17:39Z</time>
  <course>275.0</course>
  <speed>0.0</speed>
  <fix>3d</fix>
</trkpt>
<trkpt lat="33.810313" lon="-118.393867">
  <ele>-6.8</ele>
  <time>2026-09-01T01:17:39Z</time>
  <course>185.21</course>
  <speed>0.01414213562373095</speed>
  <fix>3d</fix>
</trkpt>
<trkpt lat="33.810313" lon="-118.393867">
  <ele>-6.885</ele>
  <time>2026-09-01T01:17:39Z</time>
  <course>185.22</course>
  <speed>0.01414213562373095</speed>
  <fix>3d</fix>
</trkpt>
<trkpt lat="33.810313" lon="-118.393867">
  <ele>-6.31</ele>
  <time>2026-09-01T01:17:39Z</time>
  <course>275.0</course>
  <speed>0.0</speed>
  <fix>3d</fix>
</trkpt>
<trkpt lat="33.810313" lon="-118.393867">
  <ele>-6.922</ele>
  <time>2026-09-01T01:17:39Z</time>
  <course>185.22</course>
  <speed>0.01414213562373095</speed>
  <fix>3d</fix>
</trkpt>
<trkpt lat="33.810313" lon="-118.393867">
  <ele>-7.01</ele>
  <time>2026-09-01T01:17:39Z</time>
  <course>185.23</course>
  <speed>0.01414213562373095</speed>
  <fix>3d</fix>
</trkpt>
<trkpt lat="33.810313" lon="-118.393867">
  <ele>-6.55</ele>
  <time>2026-09-01T01:17:39Z</time>
  <course>275.0</course>
  <speed>0.0</speed>
  <fix>3d</fix>
</trkpt>
<trkpt lat="33.810313" lon="-118.393867">
  <ele>-7.06</ele>
  <time>2026-09-01T01:17:39Z</time>
  <course>185.23</course>
  <speed>0.01414213562373095</speed>
  <fix>3d</fix>
</trkpt>
<trkpt lat="33.810313" lon="-118.393867">
  <ele>-7.134</ele>
  <time>2026-09-01T01:17:39Z</time>
  <course>185.24</course>
  <speed>0.01414213562373095</speed>
  <fix>3d</fix>
</trkpt>
<trkpt lat="33.810313" lon="-118.393867">
  <ele>-6.55</ele>
  <time>2026-09-01T01:17:39Z</time>
  <course>275.0</course>
  <speed>0.0</speed>
  <fix>3d</fix>
</trkpt>
<trkpt lat="33.810313" lon="-118.393867">
  <ele>-7.172</ele>
  <time>2026-09-01T01:17:39Z</time>
  <course>185.24</course>
  <speed>0.01414213562373095</speed>
  <fix>3d</fix>
</trkpt>
<trkpt lat="33.810313" lon="-118.393867">
  <ele>-7.258</ele>
  <time>2026-09-01T01:17:39Z</time>
  <course>185.25</course>
  <speed>0.01414213562373095</speed>
  <fix>3d</fix>
</trkpt>
<trkpt lat="33.810313" lon="-118.393867">
  <ele>-6.79</ele>
  <time>2026-09-01T01:17:39Z</time>
  <course>275.0</course>
  <speed>0.0</speed>
  <fix>3d</fix>
</trkpt>
<trkpt lat="33.810313" lon="-118.393867">
  <ele>-7.299</ele>
  <time>2026-09-01T01:17:39Z</time>
  <course>185.25</course>
  <speed>0.01414213562373095</speed>
  <fix>3d</fix>
</trkpt>
<trkpt lat="33.810313" lon="-118.393867">
  <ele>-7.382</ele>
  <time>2026-09-01T01:17:39Z</time>
  <course>185.26</course>
  <speed>0.01414213562373095</speed>
  <fix>3d</fix>
</trkpt>
<trkpt lat="33.810313" lon="-118.393867">
  <ele>-6.79</ele>
  <time>2026-09-01T01:17:39Z</time>
  <course>275.0</course>
  <speed>0.0</speed>
  <fix>3d</fix>
</trkpt>
<trkpt lat="33.810313" lon="-118.393867">
  <ele>-7.422</ele>
  <time>2026-09-01T01:17:39Z</time>
  <course>185.26</course>
  <speed>0.01414213562373095</speed>
  <fix>3d</fix>
</trkpt>
<trkpt lat="33.810313" lon="-118.3938671">
  <ele>-7.505</ele>
  <time>2026-09-01T01:17:39Z</time>
  <course>185.27</course>
  <speed>0.01414213562373095</speed>
  <fix>3d</fix>
</trkpt>
<trkpt lat="33.810313" lon="-118.393867">
  <ele>-7.04</ele>
  <time>2026-09-01T01:17:39Z</time>
  <course>275.0</course>
  <speed>0.0</speed>
  <fix>3d</fix>
</trkpt>
<trkpt lat="33.810313" lon="-118.3938671">
  <ele>-7.508</ele>
  <time>2026-09-01T01:17:39Z</time>
  <course>185.27</course>
  <speed>0.01414213562373095</speed>
  <fix>3d</fix>
</trkpt>
<trkpt lat="33.810313" lon="-118.3938671">
  <ele>-7.63</ele>
  <time>2026-09-01T01:17:39Z</time>
  <course>185.28</course>
  <speed>0.01414213562373095</speed>
  <fix>3d</fix>
</trkpt>
<trkpt lat="33.810313" lon="-118.393867">
  <ele>-7.04</ele>
  <time>2026-09-01T01:17:39Z</time>
  <course>275.0</course>
  <speed>0.0</speed>
  <fix>3d</fix>
</trkpt>
<trkpt lat="33.810313" lon="-118.3938671">
  <ele>-7.673</ele>
  <time>2026-09-01T01:17:39Z</time>
  <course>185.28</course>
  <speed>0.01414213562373095</speed>
  <fix>3d</fix>
</trkpt>
<trkpt lat="33.810313" lon="-118.3938671">
  <ele>-7.754</ele>
  <time>2026-09-01T01:17:39Z</time>
  <course>185.29</course>
  <speed>0.01414213562373095</speed>
  <fix>3d</fix>
</trkpt>
<trkpt lat="33.810313" lon="-118.393867">
  <ele>-7.27</ele>
  <time>2026-09-01T01:17:39Z</time>
  <course>275.0</course>
  <speed>0.0</speed>
  <fix>3d</fix>
</trkpt>
<trkpt lat="33.8103131" lon="-118.3938671">
  <ele>-7.795</ele>
  <time>2026-09-01T01:17:39Z</time>
  <course>185.29</course>
  <speed>0.01414213562373095</speed>
  <fix>3d</fix>
</trkpt>
<trkpt lat="33.8103131" lon="-118.3938671">
  <ele>-7.879</ele>
  <time>2026-09-01T01:17:39Z</time>
  <course>185.3</course>
  <speed>0.01414213562373095</speed>
  <fix>3d</fix>
</trkpt>
<trkpt lat="33.810313" lon="-118.393867">
  <ele>-7.27</ele>
  <time>2026-09-01T01:17:39Z</time>
  <course>275.0</course>
  <speed>0.0</speed>
  <fix>3d</fix>
</trkpt>
<trkpt lat="33.8103131" lon="-118.3938671">
  <ele>-7.92</ele>
  <time>2026-09-01T01:17:39Z</time>
  <course>185.3</course>
  <speed>0.01414213562373095</speed>
  <fix>3d</fix>
</trkpt>
<trkpt lat="33.8103131" lon="-118.3938671">
  <ele>-8.005</ele>
  <time>2026-09-01T01:17:39Z</time>
  <course>185.31</course>
  <speed>0.01414213562373095</speed>
  <fix>3d</fix>
</trkpt>
<trkpt lat="33.810313" lon="-118.3938671">
  <ele>-7.52</ele>
  <time>2026-09-01T01:17:39Z</time>
  <course>275.0</course>
  <speed>0.0</speed>
  <fix>3d</fix>
</trkpt>
<trkpt lat="33.8103131" lon="-118.3938671">
  <ele>-8.045</ele>
  <time>2026-09-01T01:17:39Z</time>
  <course>185.31</course>
  <speed>0.01414213562373095</speed>
  <fix>3d</fix>
</trkpt>
<trkpt lat="33.8103131" lon="-118.3938671">
  <ele>-8.129</ele>
  <time>2026-09-01T01:17:39Z</time>
  <course>185.32</course>
  <speed>0.01414213562373095</speed>
  <fix>3d</fix>
</trkpt>
<trkpt lat="33.810313" lon="-118.3938671">
  <ele>-7.52</ele>
  <time>2026-09-01T01:17:39Z</time>
  <course>275.0</course>
  <speed>0.0</speed>
  <fix>3d</fix>
</trkpt>
<trkpt lat="33.8103131" lon="-118.3938671">
  <ele>-8.169</ele>
  <time>2026-09-01T01:17:39Z</time>
  <course>185.32</course>
  <speed>0.01414213562373095</speed>
  <fix>3d</fix>
</trkpt>
<trkpt lat="33.8103131" lon="-118.3938671">
  <ele>-8.252</ele>
  <time>2026-09-01T01:17:39Z</time>
  <course>185.33</course>
  <speed>0.01414213562373095</speed>
  <fix>3d</fix>
</trkpt>
<trkpt lat="33.810313" lon="-118.3938671">
  <ele>-7.77</ele>
  <time>2026-09-01T01:17:39Z</time>
  <course>275.0</course>
  <speed>0.0</speed>
  <fix>3d</fix>
</trkpt>
<trkpt lat="33.8103131" lon="-118.3938671">
  <ele>-8.293</ele>
  <time>2026-09-01T01:17:39Z</time>
  <course>185.33</course>
  <speed>0.01414213562373095</speed>
  <fix>3d</fix>
</trkpt>
<trkpt lat="33.8103131" lon="-118.3938671">
  <ele>-8.376</ele>
  <time>2026-09-01T01:17:39Z</time>
  <course>185.34</course>
  <speed>0.01414213562373095</speed>
  <fix>3d</fix>
</trkpt>
<trkpt lat="33.810313" lon="-118.3938671">
  <ele>-7.77</ele>
  <time>2026-09-01T01:17:39Z</time>
  <course>275.0</course>
  <speed>0.0</speed>
  <fix>3d</fix>
</trkpt>
<trkpt lat="33.8103131" lon="-118.3938671">
  <ele>-8.379</ele>
  <time>2026-09-01T01:17:39Z</time>
  <course>185.34</course>
  <speed>0.01414213562373095</speed>
  <fix>3d</fix>
</trkpt>
<trkpt lat="33.8103131" lon="-118.3938671">
  <ele>-8.5</ele>
  <time>2026-09-01T01:17:39Z</time>
  <course>185.35</course>
  <speed>0.01414213562373095</speed>
  <fix>3d</fix>
</trkpt>
<trkpt lat="33.810313" lon="-118.3938671">
  <ele>-8.01</ele>
  <time>2026-09-01T01:17:39Z</time>
  <course>275.0</course>
  <speed>0.0</speed>
  <fix>3d</fix>
</trkpt>
<trkpt lat="33.8103131" lon="-118.3938671">
  <ele>-8.503</ele>
  <time>2026-09-01T01:17:39Z</time>
  <course>185.35</course>
  <speed>0.01414213562373095</speed>
  <fix>3d</fix>
</trkpt>
<trkpt lat="33.8103131" lon="-118.3938671">
  <ele>-8.625</ele>
  <time>2026-09-01T01:17:39Z</time>
  <course>185.36</course>
  <speed>0.022360679774997897</speed>
  <fix>3d</fix>
</trkpt>
<trkpt lat="33.810313" lon="-118.3938671">
  <ele>-8.01</ele>
  <time>2026-09-01T01:17:39Z</time>
  <course>275.0</course>
  <speed>0.0</speed>
  <fix>3d</fix>
</trkpt>
<trkpt lat="33.8103131" lon="-118.3938671">
  <ele>-8.671</ele>
  <time>2026-09-01T01:17:39Z</time>
  <course>185.37</course>
  <speed>0.022360679774997897</speed>
  <fix>3d</fix>
</trkpt>
<trkpt lat="33.8103131" lon="-118.3938671">
  <ele>-8.749</ele>
  <time>2026-09-01T01:17:39Z</time>
  <course>185.37</course>
  <speed>0.022360679774997897</speed>
  <fix>3d</fix>
</trkpt>
<trkpt lat="33.810313" lon="-118.3938671">
  <ele>-8.25</ele>
  <time>2026-09-01T01:17:39Z</time>
  <course>275.0</course>
  <speed>0.0</speed>
  <fix>3d</fix>
</trkpt>
<trkpt lat="33.8103131" lon="-118.3938671">
  <ele>-8.79</ele>
  <time>2026-09-01T01:17:39Z</time>
  <course>185.37</course>
  <speed>0.022360679774997897</speed>
  <fix>3d</fix>
</trkpt>
<trkpt lat="33.8103131" lon="-118.3938671">
  <ele>-8.874</ele>
  <time>2026-09-01T01:17:39Z</time>
  <course>185.38</course>
  <speed>0.022360679774997897</speed>
  <fix>3d</fix>
</trkpt>
<trkpt lat="33.810313" lon="-118.3938671">
  <ele>-8.25</ele>
  <time>2026-09-01T01:17:39Z</time>
  <course>275.0</course>
  <speed>0.0</speed>
  <fix>3d</fix>
</trkpt>
<trkpt lat="33.8103131" lon="-118.3938671">
  <ele>-8.877</ele>
  <time>2026-09-01T01:17:39Z</time>
  <course>185.38</course>
  <speed>0.022360679774997897</speed>
  <fix>3d</fix>
</trkpt>
<trkpt lat="33.8103131" lon="-118.3938671">
  <ele>-8.999</ele>
  <time>2026-09-01T01:17:39Z</time>
  <course>185.39</course>
  <speed>0.022360679774997897</speed>
  <fix>3d</fix>
</trkpt>
<trkpt lat="33.810313" lon="-118.3938671">
  <ele>-8.5</ele>
  <time>2026-09-01T01:17:39Z</time>
  <course>275.0</course>
  <speed>0.0</speed>
  <fix>3d</fix>
</trkpt>
<trkpt lat="33.8103131" lon="-118.3938671">
  <ele>-9.036</ele>
  <time>2026-09-01T01:17:39Z</time>
  <course>185.4</course>
  <speed>0.022360679774997897</speed>
  <fix>3d</fix>
</trkpt>
<trkpt lat="33.8103131" lon="-118.3938672">
  <ele>-9.12</ele>
  <time>2026-09-01T01:17:39Z</time>
  <course>185.4</course>
  <speed>0.022360679774997897</speed>
  <fix>3d</fix>
</trkpt>
<trkpt lat="33.810313" lon="-118.3938671">
  <ele>-8.5</ele>
  <time>2026-09-01T01:17:39Z</time>
  <course>275.0</course>
  <speed>0.0</speed>
  <fix>3d</fix>
</trkpt>
<trkpt lat="33.8103131" lon="-118.3938672">
  <ele>-9.2</ele>
  <time>2026-09-01T01:17:39Z</time>
  <course>185.41</course>
  <speed>0.0282842712474619</speed>
  <fix>3d</fix>
</trkpt>
<trkpt lat="33.810313" lon="-118.3938671">
  <ele>-8.73</ele>
  <time>2026-09-01T01:17:39Z</time>
  <course>275.0</course>
  <speed>0.0</speed>
  <fix>3d</fix>
</trkpt>
<trkpt lat="33.8103131" lon="-118.3938672">
  <ele>-9.252</ele>
  <time>2026-09-01T01:17:39Z</time>
  <course>185.42</course>
  <speed>0.0282842712474619</speed>
  <fix>3d</fix>
</trkpt>
<trkpt lat="33.810313" lon="-118.3938671">
  <ele>-8.73</ele>
  <time>2026-09-01T01:17:39Z</time>
  <course>275.0</course>
  <speed>0.0</speed>
  <fix>3d</fix>
</trkpt>
<trkpt lat="33.8103131" lon="-118.3938672">
  <ele>-9.29</ele>
  <time>2026-09-01T01:17:39Z</time>
  <course>185.43</course>
  <speed>0.0282842712474619</speed>
  <fix>3d</fix>
</trkpt>
<trkpt lat="33.810313" lon="-118.3938671">
  <ele>-8.9</ele>
  <time>2026-09-01T01:17:39Z</time>
  <course>275.0</course>
  <speed>0.0</speed>
  <fix>3d</fix>
</trkpt>
<trkpt lat="33.8103131" lon="-118.3938672">
  <ele>-9.317</ele>
  <time>2026-09-01T01:17:39Z</time>
  <course>185.44</course>
  <speed>0.0282842712474619</speed>
  <fix>3d</fix>
</trkpt>
<trkpt lat="33.810313" lon="-118.3938671">
  <ele>-8.9</ele>
  <time>2026-09-01T01:17:39Z</time>
  <course>275.0</course>
  <speed>0.0</speed>
  <fix>3d</fix>
</trkpt>
<trkpt lat="33.8103131" lon="-118.3938672">
  <ele>-9.339</ele>
  <time>2026-09-01T01:17:39Z</time>
  <course>185.46</course>
  <speed>0.0282842712474619</speed>
  <fix>3d</fix>
</trkpt>
<trkpt lat="33.810313" lon="-118.3938671">
  <ele>-8.99</ele>
  <time>2026-09-01T01:17:39Z</time>
  <course>94.98</course>
  <speed>0.0</speed>
  <fix>3d</fix>
</trkpt>
<trkpt lat="33.8103131" lon="-118.3938672">
  <ele>-9.354</ele>
  <time>2026-09-01T01:17:39Z</time>
  <course>185.47</course>
  <speed>0.0282842712474619</speed>
  <fix>3d</fix>
</trkpt>
<trkpt lat="33.810313" lon="-118.3938671">
  <ele>-8.99</ele>
  <time>2026-09-01T01:17:39Z</time>
  <course>94.98</course>
  <speed>0.0</speed>
  <fix>3d</fix>
</trkpt>
<trkpt lat="33.8103131" lon="-118.3938672">
  <ele>-9.365</ele>
  <time>2026-09-01T01:17:39Z</time>
  <course>185.48</course>
  <speed>0.0282842712474619</speed>
  <fix>3d</fix>
</trkpt>
<trkpt lat="33.810313" lon="-118.3938671">
  <ele>-9.04</ele>
  <time>2026-09-01T01:17:39Z</time>
  <course>275.0</course>
  <speed>0.0</speed>
  <fix>3d</fix>
</trkpt>
<trkpt lat="33.8103131" lon="-118.3938672">
  <ele>-9.379</ele>
  <time>2026-09-01T01:17:39Z</time>
  <course>185.49</course>
  <speed>0.0282842712474619</speed>
  <fix>3d</fix>
</trkpt>
<trkpt lat="33.810313" lon="-118.3938671">
  <ele>-9.04</ele>
  <time>2026-09-01T01:17:39Z</time>
  <course>275.0</course>
  <speed>0.0</speed>
  <fix>3d</fix>
</trkpt>
<trkpt lat="33.8103131" lon="-118.3938672">
  <ele>-9.396</ele>
  <time>2026-09-01T01:17:39Z</time>
  <course>185.5</course>
  <speed>0.0282842712474619</speed>
  <fix>3d</fix>
</trkpt>
<trkpt lat="33.810313" lon="-118.3938671">
  <ele>-9.08</ele>
  <time>2026-09-01T01:17:39Z</time>
  <course>275.0</course>
  <speed>0.0</speed>
  <fix>3d</fix>
</trkpt>
<trkpt lat="33.8103131" lon="-118.3938672">
  <ele>-9.418</ele>
  <time>2026-09-01T01:17:39Z</time>
  <course>185.51</course>
  <speed>0.0282842712474619</speed>
  <fix>3d</fix>
</trkpt>
<trkpt lat="33.810313" lon="-118.3938671">
  <ele>-9.08</ele>
  <time>2026-09-01T01:17:39Z</time>
  <course>275.0</course>
  <speed>0.0</speed>
  <fix>3d</fix>
</trkpt>
<trkpt lat="33.8103131" lon="-118.3938672">
  <ele>-9.439</ele>
  <time>2026-09-01T01:17:39Z</time>
  <course>185.52</course>
  <speed>0.0282842712474619</speed>
  <fix>3d</fix>
</trkpt>
<trkpt lat="33.810313" lon="-118.3938671">
  <ele>-9.11</ele>
  <time>2026-09-01T01:17:39Z</time>
  <course>275.0</course>
  <speed>0.0</speed>
  <fix>3d</fix>
</trkpt>
<trkpt lat="33.8103131" lon="-118.3938672">
  <ele>-9.462</ele>
  <time>2026-09-01T01:17:39Z</time>
  <course>185.53</course>
  <speed>0.0282842712474619</speed>
  <fix>3d</fix>
</trkpt>
<trkpt lat="33.810313" lon="-118.3938671">
  <ele>-9.11</ele>
  <time>2026-09-01T01:17:39Z</time>
  <course>275.0</course>
  <speed>0.0</speed>
  <fix>3d</fix>
</trkpt>
<trkpt lat="33.8103131" lon="-118.3938672">
  <ele>-9.494</ele>
  <time>2026-09-01T01:17:39Z</time>
  <course>185.54</course>
  <speed>0.0282842712474619</speed>
  <fix>3d</fix>
</trkpt>
<trkpt lat="33.810313" lon="-118.3938671">
  <ele>-9.13</ele>
  <time>2026-09-01T01:17:39Z</time>
  <course>275.0</course>
  <speed>0.0</speed>
  <fix>3d</fix>
</trkpt>
<trkpt lat="33.8103132" lon="-118.3938672">
  <ele>-9.53</ele>
  <time>2026-09-01T01:17:39Z</time>
  <course>185.55</course>
  <speed>0.0282842712474619</speed>
  <fix>3d</fix>
</trkpt>
<trkpt lat="33.810313" lon="-118.3938671">
  <ele>-9.13</ele>
  <time>2026-09-01T01:17:39Z</time>
  <course>275.0</course>
  <speed>0.0</speed>
  <fix>3d</fix>
</trkpt>
<trkpt lat="33.8103132" lon="-118.3938673">
  <ele>-9.562</ele>
  <time>2026-09-01T01:17:39Z</time>
  <course>185.56</course>
  <speed>0.0282842712474619</speed>
  <fix>3d</fix>
</trkpt>
<trkpt lat="33.810313" lon="-118.3938671">
  <ele>-9.15</ele>
  <time>2026-09-01T01:17:39Z</time>
  <course>275.0</course>
  <speed>0.0</speed>
  <fix>3d</fix>
</trkpt>
<trkpt lat="33.8103132" lon="-118.3938673">
  <ele>-9.591</ele>
  <time>2026-09-01T01:17:39Z</time>
  <course>185.57</course>
  <speed>0.0282842712474619</speed>
  <fix>3d</fix>
</trkpt>
<trkpt lat="33.810313" lon="-118.3938671">
  <ele>-9.15</ele>
  <time>2026-09-01T01:17:39Z</time>
  <course>275.0</course>
  <speed>0.0</speed>
  <fix>3d</fix>
</trkpt>
<trkpt lat="33.8103132" lon="-118.3938673">
  <ele>-9.618</ele>
  <time>2026-09-01T01:17:39Z</time>
  <course>185.58</course>
  <speed>0.0282842712474619</speed>
  <fix>3d</fix>
</trkpt>
<trkpt lat="33.810313" lon="-118.3938671">
  <ele>-9.16</ele>
  <time>2026-09-01T01:17:39Z</time>
  <course>275.0</course>
  <speed>0.0</speed>
  <fix>3d</fix>
</trkpt>
<trkpt lat="33.8103132" lon="-118.3938673">
  <ele>-9.635</ele>
  <time>2026-09-01T01:17:39Z</time>
  <course>185.59</course>
  <speed>0.0282842712474619</speed>
  <fix>3d</fix>
</trkpt>
<trkpt lat="33.810313" lon="-118.3938671">
  <ele>-9.16</ele>
  <time>2026-09-01T01:17:39Z</time>
  <course>275.0</course>
  <speed>0.0</speed>
  <fix>3d</fix>
</trkpt>
<trkpt lat="33.8103132" lon="-118.3938673">
  <ele>-9.647</ele>
  <time>2026-09-01T01:17:39Z</time>
  <course>185.6</course>
  <speed>0.0282842712474619</speed>
  <fix>3d</fix>
</trkpt>
<trkpt lat="33.810313" lon="-118.3938671">
  <ele>-9.17</ele>
  <time>2026-09-01T01:17:39Z</time>
  <course>275.0</course>
  <speed>0.0</speed>
  <fix>3d</fix>
</trkpt>
<trkpt lat="33.8103132" lon="-118.3938673">
  <ele>-9.653</ele>
  <time>2026-09-01T01:17:39Z</time>
  <course>185.62</course>
  <speed>0.0282842712474619</speed>
  <fix>3d</fix>
</trkpt>
<trkpt lat="33.810313" lon="-118.3938671">
  <ele>-9.17</ele>
  <time>2026-09-01T01:17:39Z</time>
  <course>275.0</course>
  <speed>0.0</speed>
  <fix>3d</fix>
</trkpt>
<trkpt lat="33.8103132" lon="-118.3938673">
  <ele>-9.648</ele>
  <time>2026-09-01T01:17:39Z</time>
  <course>185.63</course>
  <speed>0.0282842712474619</speed>
  <fix>3d</fix>
</trkpt>
<trkpt lat="33.810313" lon="-118.3938671">
  <ele>-9.17</ele>
  <time>2026-09-01T01:17:39Z</time>
  <course>275.0</course>
  <speed>0.0</speed>
  <fix>3d</fix>
</trkpt>
<trkpt lat="33.8103132" lon="-118.3938673">
  <ele>-9.635</ele>
  <time>2026-09-01T01:17:39Z</time>
  <course>185.64</course>
  <speed>0.0282842712474619</speed>
  <fix>3d</fix>
</trkpt>
<trkpt lat="33.810313" lon="-118.3938671">
  <ele>-9.17</ele>
  <time>2026-09-01T01:17:39Z</time>
  <course>275.0</course>
  <speed>0.0</speed>
  <fix>3d</fix>
</trkpt>
<trkpt lat="33.8103132" lon="-118.3938673">
  <ele>-9.62</ele>
  <time>2026-09-01T01:17:39Z</time>
  <course>185.65</course>
  <speed>0.0282842712474619</speed>
  <fix>3d</fix>
</trkpt>
<trkpt lat="33.810313" lon="-118.3938671">
  <ele>-9.18</ele>
  <time>2026-09-01T01:17:39Z</time>
  <course>275.0</course>
  <speed>0.0</speed>
  <fix>3d</fix>
</trkpt>
<trkpt lat="33.8103132" lon="-118.3938673">
  <ele>-9.605</ele>
  <time>2026-09-01T01:17:39Z</time>
  <course>185.66</course>
  <speed>0.0282842712474619</speed>
  <fix>3d</fix>
</trkpt>
<trkpt lat="33.810313" lon="-118.3938671">
  <ele>-9.18</ele>
  <time>2026-09-01T01:17:39Z</time>
  <course>275.0</course>
  <speed>0.0</speed>
  <fix>3d</fix>
</trkpt>
<trkpt lat="33.8103132" lon="-118.3938673">
  <ele>-9.594</ele>
  <time>2026-09-01T01:17:39Z</time>
  <course>185.67</course>
  <speed>0.0282842712474619</speed>
  <fix>3d</fix>
</trkpt>
<trkpt lat="33.810313" lon="-118.3938671">
  <ele>-9.18</ele>
  <time>2026-09-01T01:17:39Z</time>
  <course>275.0</course>
  <speed>0.0</speed>
  <fix>3d</fix>
</trkpt>
<trkpt lat="33.8103132" lon="-118.3938673">
  <ele>-9.59</ele>
  <time>2026-09-01T01:17:39Z</time>
  <course>185.68</course>
  <speed>0.0282842712474619</speed>
  <fix>3d</fix>
</trkpt>
<trkpt lat="33.810313" lon="-118.3938671">
  <ele>-9.18</ele>
  <time>2026-09-01T01:17:39Z</time>
  <course>275.0</course>
  <speed>0.0</speed>
  <fix>3d</fix>
</trkpt>
<trkpt lat="33.8103132" lon="-118.3938673">
  <ele>-9.582</ele>
  <time>2026-09-01T01:17:40Z</time>
  <course>185.69</course>
  <speed>0.0282842712474619</speed>
  <fix>3d</fix>
</trkpt>
<trkpt lat="33.810313" lon="-118.3938671">
  <ele>-9.18</ele>
  <time>2026-09-01T01:17:40Z</time>
  <course>275.0</course>
  <speed>0.0</speed>
  <fix>3d</fix>
</trkpt>
<trkpt lat="33.8103132" lon="-118.3938673">
  <ele>-9.574</ele>
  <time>2026-09-01T01:17:40Z</time>
  <course>185.7</course>
  <speed>0.0282842712474619</speed>
  <fix>3d</fix>
</trkpt>
<trkpt lat="33.810313" lon="-118.3938671">
  <ele>-9.18</ele>
  <time>2026-09-01T01:17:40Z</time>
  <course>275.0</course>
  <speed>0.0</speed>
  <fix>3d</fix>
</trkpt>
<trkpt lat="33.8103132" lon="-118.3938673">
  <ele>-9.562</ele>
  <time>2026-09-01T01:17:40Z</time>
  <course>185.71</course>
  <speed>0.0282842712474619</speed>
  <fix>3d</fix>
</trkpt>
<trkpt lat="33.810313" lon="-118.3938671">
  <ele>-9.18</ele>
  <time>2026-09-01T01:17:40Z</time>
  <course>275.0</course>
  <speed>0.0</speed>
  <fix>3d</fix>
</trkpt>
<trkpt lat="33.8103132" lon="-118.3938673">
  <ele>-9.545</ele>
  <time>2026-09-01T01:17:40Z</time>
  <course>185.72</course>
  <speed>0.0282842712474619</speed>
  <fix>3d</fix>
</trkpt>
<trkpt lat="33.810313" lon="-118.3938671">
  <ele>-9.18</ele>
  <time>2026-09-01T01:17:40Z</time>
  <course>275.0</course>
  <speed>0.0</speed>
  <fix>3d</fix>
</trkpt>
<trkpt lat="33.8103132" lon="-118.3938673">
  <ele>-9.528</ele>
  <time>2026-09-01T01:17:40Z</time>
  <course>185.73</course>
  <speed>0.0282842712474619</speed>
  <fix>3d</fix>
</trkpt>
<trkpt lat="33.810313" lon="-118.3938671">
  <ele>-9.17</ele>
  <time>2026-09-01T01:17:40Z</time>
  <course>275.0</course>
  <speed>0.0</speed>
  <fix>3d</fix>
</trkpt>
<trkpt lat="33.8103132" lon="-118.3938673">
  <ele>-9.519</ele>
  <time>2026-09-01T01:17:40Z</time>
  <course>185.74</course>
  <speed>0.0282842712474619</speed>
  <fix>3d</fix>
</trkpt>
<trkpt lat="33.810313" lon="-118.3938671">
  <ele>-9.17</ele>
  <time>2026-09-01T01:17:40Z</time>
  <course>275.0</course>
  <speed>0.0</speed>
  <fix>3d</fix>
</trkpt>
<trkpt lat="33.8103132" lon="-118.3938673">
  <ele>-9.512</ele>
  <time>2026-09-01T01:17:40Z</time>
  <course>185.75</course>
  <speed>0.0282842712474619</speed>
  <fix>3d</fix>
</trkpt>
<trkpt lat="33.810313" lon="-118.3938671">
  <ele>-9.16</ele>
  <time>2026-09-01T01:17:40Z</time>
  <course>275.0</course>
  <speed>0.0</speed>
  <fix>3d</fix>
</trkpt>
<trkpt lat="33.8103132" lon="-118.3938673">
  <ele>-9.505</ele>
  <time>2026-09-01T01:17:40Z</time>
  <course>185.76</course>
  <speed>0.0282842712474619</speed>
  <fix>3d</fix>
</trkpt>
<trkpt lat="33.810313" lon="-118.3938671">
  <ele>-9.16</ele>
  <time>2026-09-01T01:17:40Z</time>
  <course>275.0</course>
  <speed>0.0</speed>
  <fix>3d</fix>
</trkpt>
<trkpt lat="33.8103132" lon="-118.3938673">
  <ele>-9.497</ele>
  <time>2026-09-01T01:17:40Z</time>
  <course>185.77</course>
  <speed>0.0282842712474619</speed>
  <fix>3d</fix>
</trkpt>
<trkpt lat="33.810313" lon="-118.3938671">
  <ele>-9.15</ele>
  <time>2026-09-01T01:17:40Z</time>
  <course>275.0</course>
  <speed>0.0</speed>
  <fix>3d</fix>
</trkpt>
<trkpt lat="33.8103132" lon="-118.3938673">
  <ele>-9.49</ele>
  <time>2026-09-01T01:17:40Z</time>
  <course>185.78</course>
  <speed>0.0282842712474619</speed>
  <fix>3d</fix>
</trkpt>
<trkpt lat="33.810313" lon="-118.3938671">
  <ele>-9.15</ele>
  <time>2026-09-01T01:17:40Z</time>
  <course>275.0</course>
  <speed>0.0</speed>
  <fix>3d</fix>
</trkpt>
<trkpt lat="33.8103132" lon="-118.3938673">
  <ele>-9.498</ele>
  <time>2026-09-01T01:17:40Z</time>
  <course>185.78</course>
  <speed>0.03605551275463989</speed>
  <fix>3d</fix>
</trkpt>
<trkpt lat="33.810313" lon="-118.3938671">
  <ele>-9.14</ele>
  <time>2026-09-01T01:17:40Z</time>
  <course>275.0</course>
  <speed>0.0</speed>
  <fix>3d</fix>
</trkpt>
<trkpt lat="33.8103132" lon="-118.3938673">
  <ele>-9.5</ele>
  <time>2026-09-01T01:17:40Z</time>
  <course>185.79</course>
  <speed>0.03605551275463989</speed>
  <fix>3d</fix>
</trkpt>
<trkpt lat="33.810313" lon="-118.3938671">
  <ele>-9.14</ele>
  <time>2026-09-01T01:17:40Z</time>
  <course>275.0</course>
  <speed>0.0</speed>
  <fix>3d</fix>
</trkpt>
<trkpt lat="33.8103132" lon="-118.3938673">
  <ele>-9.502</ele>
  <time>2026-09-01T01:17:40Z</time>
  <course>185.8</course>
  <speed>0.03605551275463989</speed>
  <fix>3d</fix>
</trkpt>
<trkpt lat="33.810313" lon="-118.3938671">
  <ele>-9.13</ele>
  <time>2026-09-01T01:17:40Z</time>
  <course>275.0</course>
  <speed>0.0</speed>
  <fix>3d</fix>
</trkpt>
<trkpt lat="33.8103132" lon="-118.3938673">
  <ele>-9.507</ele>
  <time>2026-09-01T01:17:40Z</time>
  <course>185.81</course>
  <speed>0.03605551275463989</speed>
  <fix>3d</fix>
</trkpt>
<trkpt lat="33.810313" lon="-118.3938671">
  <ele>-9.13</ele>
  <time>2026-09-01T01:17:40Z</time>
  <course>275.0</course>
  <speed>0.0</speed>
  <fix>3d</fix>
</trkpt>
<trkpt lat="33.8103132" lon="-118.3938673">
  <ele>-9.517</ele>
  <time>2026-09-01T01:17:40Z</time>
  <course>185.82</course>
  <speed>0.03605551275463989</speed>
  <fix>3d</fix>
</trkpt>
<trkpt lat="33.810313" lon="-118.3938671">
  <ele>-9.12</ele>
  <time>2026-09-01T01:17:40Z</time>
  <course>275.0</course>
  <speed>0.0</speed>
  <fix>3d</fix>
</trkpt>
<trkpt lat="33.8103132" lon="-118.3938673">
  <ele>-9.531</ele>
  <time>2026-09-01T01:17:40Z</time>
  <course>185.83</course>
  <speed>0.03605551275463989</speed>
  <fix>3d</fix>
</trkpt>
<trkpt lat="33.810313" lon="-118.3938671">
  <ele>-9.12</ele>
  <time>2026-09-01T01:17:40Z</time>
  <course>275.0</course>
  <speed>0.0</speed>
  <fix>3d</fix>
</trkpt>
<trkpt lat="33.8103132" lon="-118.3938673">
  <ele>-9.542</ele>
  <time>2026-09-01T01:17:40Z</time>
  <course>185.84</course>
  <speed>0.03605551275463989</speed>
  <fix>3d</fix>
</trkpt>
<trkpt lat="33.810313" lon="-118.3938671">
  <ele>-9.1</ele>
  <time>2026-09-01T01:17:40Z</time>
  <course>275.0</course>
  <speed>0.0</speed>
  <fix>3d</fix>
</trkpt>
<trkpt lat="33.8103132" lon="-118.3938673">
  <ele>-9.549</ele>
  <time>2026-09-01T01:17:40Z</time>
  <course>185.85</course>
  <speed>0.03605551275463989</speed>
  <fix>3d</fix>
</trkpt>
<trkpt lat="33.810313" lon="-118.3938671">
  <ele>-9.1</ele>
  <time>2026-09-01T01:17:40Z</time>
  <course>275.0</course>
  <speed>0.0</speed>
  <fix>3d</fix>
</trkpt>
<trkpt lat="33.8103132" lon="-118.3938673">
  <ele>-9.548</ele>
  <time>2026-09-01T01:17:40Z</time>
  <course>185.86</course>
  <speed>0.03605551275463989</speed>
  <fix>3d</fix>
</trkpt>
<trkpt lat="33.810313" lon="-118.3938671">
  <ele>-9.09</ele>
  <time>2026-09-01T01:17:40Z</time>
  <course>275.0</course>
  <speed>0.0</speed>
  <fix>3d</fix>
</trkpt>
<trkpt lat="33.8103132" lon="-118.3938673">
  <ele>-9.54</ele>
  <time>2026-09-01T01:17:40Z</time>
  <course>185.87</course>
  <speed>0.03605551275463989</speed>
  <fix>3d</fix>
</trkpt>
<trkpt lat="33.810313" lon="-118.3938671">
  <ele>-9.09</ele>
  <time>2026-09-01T01:17:40Z</time>
  <course>275.0</course>
  <speed>0.0</speed>
  <fix>3d</fix>
</trkpt>
<trkpt lat="33.8103132" lon="-118.3938673">
  <ele>-9.529</ele>
  <time>2026-09-01T01:17:40Z</time>
  <course>185.88</course>
  <speed>0.0282842712474619</speed>
  <fix>3d</fix>
</trkpt>
<trkpt lat="33.810313" lon="-118.3938671">
  <ele>-9.07</ele>
  <time>2026-09-01T01:17:40Z</time>
  <course>275.0</course>
  <speed>0.0</speed>
  <fix>3d</fix>
</trkpt>
<trkpt lat="33.8103132" lon="-118.3938673">
  <ele>-9.516</ele>
  <time>2026-09-01T01:17:40Z</time>
  <course>185.89</course>
  <speed>0.0282842712474619</speed>
  <fix>3d</fix>
</trkpt>
<trkpt lat="33.810313" lon="-118.3938671">
  <ele>-9.07</ele>
  <time>2026-09-01T01:17:40Z</time>
  <course>275.0</course>
  <speed>0.0</speed>
  <fix>3d</fix>
</trkpt>
<trkpt lat="33.8103132" lon="-118.3938673">
  <ele>-9.503</ele>
  <time>2026-09-01T01:17:40Z</time>
  <course>185.9</course>
  <speed>0.0282842712474619</speed>
  <fix>3d</fix>
</trkpt>
<trkpt lat="33.810313" lon="-118.3938671">
  <ele>-9.05</ele>
  <time>2026-09-01T01:17:40Z</time>
  <course>275.0</course>
  <speed>0.0</speed>
  <fix>3d</fix>
</trkpt>
<trkpt lat="33.8103132" lon="-118.3938673">
  <ele>-9.497</ele>
  <time>2026-09-01T01:17:40Z</time>
  <course>185.91</course>
  <speed>0.0282842712474619</speed>
  <fix>3d</fix>
</trkpt>
<trkpt lat="33.810313" lon="-118.3938671">
  <ele>-9.05</ele>
  <time>2026-09-01T01:17:40Z</time>
  <course>275.0</course>
  <speed>0.0</speed>
  <fix>3d</fix>
</trkpt>
<trkpt lat="33.8103132" lon="-118.3938673">
  <ele>-9.485</ele>
  <time>2026-09-01T01:17:40Z</time>
  <course>185.92</course>
  <speed>0.0282842712474619</speed>
  <fix>3d</fix>
</trkpt>
<trkpt lat="33.810313" lon="-118.3938671">
  <ele>-9.04</ele>
  <time>2026-09-01T01:17:40Z</time>
  <course>275.0</course>
  <speed>0.0</speed>
  <fix>3d</fix>
</trkpt>
<trkpt lat="33.8103132" lon="-118.3938673">
  <ele>-9.471</ele>
  <time>2026-09-01T01:17:40Z</time>
  <course>185.93</course>
  <speed>0.0282842712474619</speed>
  <fix>3d</fix>
</trkpt>
<trkpt lat="33.810313" lon="-118.3938671">
  <ele>-9.04</ele>
  <time>2026-09-01T01:17:40Z</time>
  <course>275.0</course>
  <speed>0.0</speed>
  <fix>3d</fix>
</trkpt>
<trkpt lat="33.8103132" lon="-118.3938673">
  <ele>-9.459</ele>
  <time>2026-09-01T01:17:40Z</time>
  <course>185.94</course>
  <speed>0.0282842712474619</speed>
  <fix>3d</fix>
</trkpt>
<trkpt lat="33.810313" lon="-118.3938671">
  <ele>-9.02</ele>
  <time>2026-09-01T01:17:40Z</time>
  <course>275.0</course>
  <speed>0.0</speed>
  <fix>3d</fix>
</trkpt>
<trkpt lat="33.8103132" lon="-118.3938673">
  <ele>-9.443</ele>
  <time>2026-09-01T01:17:40Z</time>
  <course>185.95</course>
  <speed>0.0282842712474619</speed>
  <fix>3d</fix>
</trkpt>
<trkpt lat="33.810313" lon="-118.3938671">
  <ele>-9.02</ele>
  <time>2026-09-01T01:17:40Z</time>
  <course>275.0</course>
  <speed>0.0</speed>
  <fix>3d</fix>
</trkpt>
<trkpt lat="33.8103132" lon="-118.3938673">
  <ele>-9.427</ele>
  <time>2026-09-01T01:17:40Z</time>
  <course>185.95</course>
  <speed>0.022360679774997897</speed>
  <fix>3d</fix>
</trkpt>
<trkpt lat="33.810313" lon="-118.3938671">
  <ele>-9.0</ele>
  <time>2026-09-01T01:17:40Z</time>
  <course>275.0</course>
  <speed>0.0</speed>
  <fix>3d</fix>
</trkpt>
<trkpt lat="33.8103132" lon="-118.3938673">
  <ele>-9.413</ele>
  <time>2026-09-01T01:17:40Z</time>
  <course>185.96</course>
  <speed>0.022360679774997897</speed>
  <fix>3d</fix>
</trkpt>
<trkpt lat="33.810313" lon="-118.3938671">
  <ele>-9.0</ele>
  <time>2026-09-01T01:17:40Z</time>
  <course>275.0</course>
  <speed>0.0</speed>
  <fix>3d</fix>
</trkpt>
<trkpt lat="33.8103132" lon="-118.3938673">
  <ele>-9.402</ele>
  <time>2026-09-01T01:17:40Z</time>
  <course>185.97</course>
  <speed>0.022360679774997897</speed>
  <fix>3d</fix>
</trkpt>
<trkpt lat="33.810313" lon="-118.3938671">
  <ele>-8.98</ele>
  <time>2026-09-01T01:17:40Z</time>
  <course>275.0</course>
  <speed>0.0</speed>
  <fix>3d</fix>
</trkpt>
<trkpt lat="33.8103132" lon="-118.3938673">
  <ele>-9.397</ele>
  <time>2026-09-01T01:17:40Z</time>
  <course>185.98</course>
  <speed>0.022360679774997897</speed>
  <fix>3d</fix>
</trkpt>
<trkpt lat="33.810313" lon="-118.3938671">
  <ele>-8.98</ele>
  <time>2026-09-01T01:17:40Z</time>
  <course>275.0</course>
  <speed>0.0</speed>
  <fix>3d</fix>
</trkpt>
<trkpt lat="33.8103132" lon="-118.3938673">
  <ele>-9.39</ele>
  <time>2026-09-01T01:17:40Z</time>
  <course>185.99</course>
  <speed>0.022360679774997897</speed>
  <fix>3d</fix>
</trkpt>
<trkpt lat="33.810313" lon="-118.3938671">
  <ele>-8.96</ele>
  <time>2026-09-01T01:17:40Z</time>
  <course>275.0</course>
  <speed>0.0</speed>
  <fix>3d</fix>
</trkpt>
<trkpt lat="33.8103132" lon="-118.3938673">
  <ele>-9.371</ele>
  <time>2026-09-01T01:17:40Z</time>
  <course>186.0</course>
  <speed>0.022360679774997897</speed>
  <fix>3d</fix>
</trkpt>
<trkpt lat="33.810313" lon="-118.3938671">
  <ele>-8.96</ele>
  <time>2026-09-01T01:17:40Z</time>
  <course>275.0</course>
  <speed>0.0</speed>
  <fix>3d</fix>
</trkpt>
<trkpt lat="33.8103132" lon="-118.3938673">
  <ele>-9.359</ele>
  <time>2026-09-01T01:17:40Z</time>
  <course>186.01</course>
  <speed>0.022360679774997897</speed>
  <fix>3d</fix>
</trkpt>
<trkpt lat="33.810313" lon="-118.3938671">
  <ele>-8.94</ele>
  <time>2026-09-01T01:17:40Z</time>
  <course>275.0</course>
  <speed>0.0</speed>
  <fix>3d</fix>
</trkpt>
<trkpt lat="33.8103132" lon="-118.3938673">
  <ele>-9.359</ele>
  <time>2026-09-01T01:17:40Z</time>
  <course>186.01</course>
  <speed>0.022360679774997897</speed>
  <fix>3d</fix>
</trkpt>
<trkpt lat="33.8103132" lon="-118.3938673">
  <ele>-9.348</ele>
  <time>2026-09-01T01:17:40Z</time>
  <course>186.02</course>
  <speed>0.022360679774997897</speed>
  <fix>3d</fix>
</trkpt>
<trkpt lat="33.810313" lon="-118.3938671">
  <ele>-8.94</ele>
  <time>2026-09-01T01:17:40Z</time>
  <course>275.0</course>
  <speed>0.0</speed>
  <fix>3d</fix>
</trkpt>
<trkpt lat="33.8103132" lon="-118.3938673">
  <ele>-9.348</ele>
  <time>2026-09-01T01:17:40Z</time>
  <course>186.02</course>
  <speed>0.022360679774997897</speed>
  <fix>3d</fix>
</trkpt>
<trkpt lat="33.8103132" lon="-118.3938673">
  <ele>-9.336</ele>
  <time>2026-09-01T01:17:40Z</time>
  <course>186.02</course>
  <speed>0.022360679774997897</speed>
  <fix>3d</fix>
</trkpt>
<trkpt lat="33.810313" lon="-118.3938671">
  <ele>-8.92</ele>
  <time>2026-09-01T01:17:40Z</time>
  <course>275.0</course>
  <speed>0.0</speed>
  <fix>3d</fix>
</trkpt>
<trkpt lat="33.8103132" lon="-118.3938673">
  <ele>-9.334</ele>
  <time>2026-09-01T01:17:40Z</time>
  <course>186.02</course>
  <speed>0.022360679774997897</speed>
  <fix>3d</fix>
</trkpt>
<trkpt lat="33.8103132" lon="-118.3938673">
  <ele>-9.331</ele>
  <time>2026-09-01T01:17:40Z</time>
  <course>186.03</course>
  <speed>0.022360679774997897</speed>
  <fix>3d</fix>
</trkpt>
<trkpt lat="33.810313" lon="-118.3938671">
  <ele>-8.92</ele>
  <time>2026-09-01T01:17:40Z</time>
  <course>275.0</course>
  <speed>0.0</speed>
  <fix>3d</fix>
</trkpt>
<trkpt lat="33.8103132" lon="-118.3938673">
  <ele>-9.33</ele>
  <time>2026-09-01T01:17:40Z</time>
  <course>186.03</course>
  <speed>0.022360679774997897</speed>
  <fix>3d</fix>
</trkpt>
<trkpt lat="33.8103132" lon="-118.3938673">
  <ele>-9.331</ele>
  <time>2026-09-01T01:17:40Z</time>
  <course>186.04</course>
  <speed>0.022360679774997897</speed>
  <fix>3d</fix>
</trkpt>
<trkpt lat="33.810313" lon="-118.3938671">
  <ele>-8.9</ele>
  <time>2026-09-01T01:17:40Z</time>
  <course>275.0</course>
  <speed>0.0</speed>
  <fix>3d</fix>
</trkpt>
<trkpt lat="33.8103132" lon="-118.3938673">
  <ele>-9.331</ele>
  <time>2026-09-01T01:17:40Z</time>
  <course>186.04</course>
  <speed>0.022360679774997897</speed>
  <fix>3d</fix>
</trkpt>
<trkpt lat="33.8103132" lon="-118.3938673">
  <ele>-9.327</ele>
  <time>2026-09-01T01:17:40Z</time>
  <course>186.05</course>
  <speed>0.022360679774997897</speed>
  <fix>3d</fix>
</trkpt>
<trkpt lat="33.810313" lon="-118.3938671">
  <ele>-8.9</ele>
  <time>2026-09-01T01:17:40Z</time>
  <course>275.0</course>
  <speed>0.0</speed>
  <fix>3d</fix>
</trkpt>
<trkpt lat="33.8103132" lon="-118.3938673">
  <ele>-9.326</ele>
  <time>2026-09-01T01:17:40Z</time>
  <course>186.05</course>
  <speed>0.022360679774997897</speed>
  <fix>3d</fix>
</trkpt>
<trkpt lat="33.8103132" lon="-118.3938673">
  <ele>-9.318</ele>
  <time>2026-09-01T01:17:41Z</time>
  <course>186.05</course>
  <speed>0.022360679774997897</speed>
  <fix>3d</fix>
</trkpt>
<trkpt lat="33.810313" lon="-118.3938671">
  <ele>-8.87</ele>
  <time>2026-09-01T01:17:41Z</time>
  <course>275.0</course>
  <speed>0.0</speed>
  <fix>3d</fix>
</trkpt>
<trkpt lat="33.8103132" lon="-118.3938673">
  <ele>-9.317</ele>
  <time>2026-09-01T01:17:41Z</time>
  <course>186.06</course>
  <speed>0.022360679774997897</speed>
  <fix>3d</fix>
</trkpt>
<trkpt lat="33.8103132" lon="-118.3938673">
  <ele>-9.308</ele>
  <time>2026-09-01T01:17:41Z</time>
  <course>186.07</course>
  <speed>0.022360679774997897</speed>
  <fix>3d</fix>
</trkpt>
<trkpt lat="33.810313" lon="-118.3938671">
  <ele>-8.87</ele>
  <time>2026-09-01T01:17:41Z</time>
  <course>275.0</course>
  <speed>0.0</speed>
  <fix>3d</fix>
</trkpt>
<trkpt lat="33.8103132" lon="-118.3938673">
  <ele>-9.305</ele>
  <time>2026-09-01T01:17:41Z</time>
  <course>186.08</course>
  <speed>0.022360679774997897</speed>
  <fix>3d</fix>
</trkpt>
<trkpt lat="33.8103132" lon="-118.3938673">
  <ele>-9.296</ele>
  <time>2026-09-01T01:17:41Z</time>
  <course>186.1</course>
  <speed>0.022360679774997897</speed>
  <fix>3d</fix>
</trkpt>
<trkpt lat="33.810313" lon="-118.3938671">
  <ele>-8.85</ele>
  <time>2026-09-01T01:17:41Z</time>
  <course>275.0</course>
  <speed>0.0</speed>
  <fix>3d</fix>
</trkpt>
<trkpt lat="33.8103132" lon="-118.3938673">
  <ele>-9.293</ele>
  <time>2026-09-01T01:17:41Z</time>
  <course>186.11</course>
  <speed>0.022360679774997897</speed>
  <fix>3d</fix>
</trkpt>
<trkpt lat="33.8103132" lon="-118.3938673">
  <ele>-9.281</ele>
  <time>2026-09-01T01:17:41Z</time>
  <course>186.13</course>
  <speed>0.022360679774997897</speed>
  <fix>3d</fix>
</trkpt>
<trkpt lat="33.810313" lon="-118.3938671">
  <ele>-8.85</ele>
  <time>2026-09-01T01:17:41Z</time>
  <course>275.0</course>
  <speed>0.0</speed>
  <fix>3d</fix>
</trkpt>
<trkpt lat="33.8103132" lon="-118.3938673">
  <ele>-9.277</ele>
  <time>2026-09-01T01:17:41Z</time>
  <course>186.13</course>
  <speed>0.022360679774997897</speed>
  <fix>3d</fix>
</trkpt>
<trkpt lat="33.8103132" lon="-118.3938673">
  <ele>-9.264</ele>
  <time>2026-09-01T01:17:41Z</time>
  <course>186.16</course>
  <speed>0.022360679774997897</speed>
  <fix>3d</fix>
</trkpt>
<trkpt lat="33.810313" lon="-118.3938671">
  <ele>-8.82</ele>
  <time>2026-09-01T01:17:41Z</time>
  <course>275.01</course>
  <speed>0.0</speed>
  <fix>3d</fix>
</trkpt>
<trkpt lat="33.8103132" lon="-118.3938673">
  <ele>-9.258</ele>
  <time>2026-09-01T01:17:41Z</time>
  <course>186.17</course>
  <speed>0.022360679774997897</speed>
  <fix>3d</fix>
</trkpt>
<trkpt lat="33.8103132" lon="-118.3938673">
  <ele>-9.238</ele>
  <time>2026-09-01T01:17:41Z</time>
  <course>186.2</course>
  <speed>0.022360679774997897</speed>
  <fix>3d</fix>
</trkpt>
<trkpt lat="33.810313" lon="-118.3938671">
  <ele>-8.82</ele>
  <time>2026-09-01T01:17:41Z</time>
  <course>275.01</course>
  <speed>0.0</speed>
  <fix>3d</fix>
</trkpt>
<trkpt lat="33.8103132" lon="-118.3938673">
  <ele>-9.237</ele>
  <time>2026-09-01T01:17:41Z</time>
  <course>186.2</course>
  <speed>0.022360679774997897</speed>
  <fix>3d</fix>
</trkpt>
<trkpt lat="33.8103132" lon="-118.3938673">
  <ele>-9.204</ele>
  <time>2026-09-01T01:17:41Z</time>
  <course>186.25</course>
  <speed>0.022360679774997897</speed>
  <fix>3d</fix>
</trkpt>
<trkpt lat="33.810313" lon="-118.3938671">
  <ele>-8.79</ele>
  <time>2026-09-01T01:17:41Z</time>
  <course>275.02</course>
  <speed>0.0</speed>
  <fix>3d</fix>
</trkpt>
<trkpt lat="33.8103132" lon="-118.3938673">
  <ele>-9.204</ele>
  <time>2026-09-01T01:17:41Z</time>
  <course>186.25</course>
  <speed>0.022360679774997897</speed>
  <fix>3d</fix>
</trkpt>
<trkpt lat="33.8103132" lon="-118.3938673">
  <ele>-9.168</ele>
  <time>2026-09-01T01:17:41Z</time>
  <course>186.3</course>
  <speed>0.022360679774997897</speed>
  <fix>3d</fix>
</trkpt>
<trkpt lat="33.810313" lon="-118.3938671">
  <ele>-8.79</ele>
  <time>2026-09-01T01:17:41Z</time>
  <course>275.02</course>
  <speed>0.0</speed>
  <fix>3d</fix>
</trkpt>
<trkpt lat="33.8103132" lon="-118.3938673">
  <ele>-9.163</ele>
  <time>2026-09-01T01:17:41Z</time>
  <course>186.31</course>
  <speed>0.022360679774997897</speed>
  <fix>3d</fix>
</trkpt>
<trkpt lat="33.8103132" lon="-118.3938673">
  <ele>-9.137</ele>
  <time>2026-09-01T01:17:41Z</time>
  <course>186.35</course>
  <speed>0.022360679774997897</speed>
  <fix>3d</fix>
</trkpt>
<trkpt lat="33.810313" lon="-118.3938671">
  <ele>-8.76</ele>
  <time>2026-09-01T01:17:41Z</time>
  <course>275.03</course>
  <speed>0.0</speed>
  <fix>3d</fix>
</trkpt>
<trkpt lat="33.8103132" lon="-118.3938673">
  <ele>-9.134</ele>
  <time>2026-09-01T01:17:41Z</time>
  <course>186.36</course>
  <speed>0.022360679774997897</speed>
  <fix>3d</fix>
</trkpt>
<trkpt lat="33.8103132" lon="-118.3938673">
  <ele>-9.108</ele>
  <time>2026-09-01T01:17:41Z</time>
  <course>186.42</course>
  <speed>0.022360679774997897</speed>
  <fix>3d</fix>
</trkpt>
<trkpt lat="33.810313" lon="-118.3938671">
  <ele>-8.76</ele>
  <time>2026-09-01T01:17:41Z</time>
  <course>275.03</course>
  <speed>0.0</speed>
  <fix>3d</fix>
</trkpt>
<trkpt lat="33.8103132" lon="-118.3938673">
  <ele>-9.104</ele>
  <time>2026-09-01T01:17:41Z</time>
  <course>186.43</course>
  <speed>0.022360679774997897</speed>
  <fix>3d</fix>
</trkpt>
<trkpt lat="33.8103132" lon="-118.3938673">
  <ele>-9.075</ele>
  <time>2026-09-01T01:17:41Z</time>
  <course>186.49</course>
  <speed>0.022360679774997897</speed>
  <fix>3d</fix>
</trkpt>
<trkpt lat="33.810313" lon="-118.3938671">
  <ele>-8.73</ele>
  <time>2026-09-01T01:17:41Z</time>
  <course>275.06</course>
  <speed>0.0</speed>
  <fix>3d</fix>
</trkpt>
<trkpt lat="33.8103132" lon="-118.3938673">
  <ele>-9.072</ele>
  <time>2026-09-01T01:17:41Z</time>
  <course>186.5</course>
  <speed>0.022360679774997897</speed>
  <fix>3d</fix>
</trkpt>
<trkpt lat="33.8103132" lon="-118.3938673">
  <ele>-9.042</ele>
  <time>2026-09-01T01:17:41Z</time>
  <course>186.58</course>
  <speed>0.022360679774997897</speed>
  <fix>3d</fix>
</trkpt>
<trkpt lat="33.810313" lon="-118.3938671">
  <ele>-8.73</ele>
  <time>2026-09-01T01:17:41Z</time>
  <course>275.06</course>
  <speed>0.0</speed>
  <fix>3d</fix>
</trkpt>
<trkpt lat="33.8103132" lon="-118.3938673">
  <ele>-9.038</ele>
  <time>2026-09-01T01:17:41Z</time>
  <course>186.58</course>
  <speed>0.022360679774997897</speed>
  <fix>3d</fix>
</trkpt>
<trkpt lat="33.8103132" lon="-118.3938673">
  <ele>-9.013</ele>
  <time>2026-09-01T01:17:41Z</time>
  <course>186.66</course>
  <speed>0.022360679774997897</speed>
  <fix>3d</fix>
</trkpt>
<trkpt lat="33.810313" lon="-118.3938671">
  <ele>-8.69</ele>
  <time>2026-09-01T01:17:41Z</time>
  <course>275.1</course>
  <speed>0.0</speed>
  <fix>3d</fix>
</trkpt>
<trkpt lat="33.8103132" lon="-118.3938673">
  <ele>-9.011</ele>
  <time>2026-09-01T01:17:41Z</time>
  <course>186.67</course>
  <speed>0.022360679774997897</speed>
  <fix>3d</fix>
</trkpt>
<trkpt lat="33.8103132" lon="-118.3938673">
  <ele>-8.994</ele>
  <time>2026-09-01T01:17:41Z</time>
  <course>186.75</course>
  <speed>0.022360679774997897</speed>
  <fix>3d</fix>
</trkpt>
<trkpt lat="33.810313" lon="-118.3938671">
  <ele>-8.69</ele>
  <time>2026-09-01T01:17:41Z</time>
  <course>275.1</course>
  <speed>0.0</speed>
  <fix>3d</fix>
</trkpt>
<trkpt lat="33.8103132" lon="-118.3938673">
  <ele>-8.994</ele>
  <time>2026-09-01T01:17:41Z</time>
  <course>186.75</course>
  <speed>0.022360679774997897</speed>
  <fix>3d</fix>
</trkpt>
<trkpt lat="33.8103132" lon="-118.3938673">
  <ele>-8.981</ele>
  <time>2026-09-01T01:17:41Z</time>
  <course>186.84</course>
  <speed>0.022360679774997897</speed>
  <fix>3d</fix>
</trkpt>
<trkpt lat="33.810313" lon="-118.3938671">
  <ele>-8.66</ele>
  <time>2026-09-01T01:17:41Z</time>
  <course>275.16</course>
  <speed>0.0</speed>
  <fix>3d</fix>
</trkpt>
<trkpt lat="33.8103132" lon="-118.3938673">
  <ele>-8.978</ele>
  <time>2026-09-01T01:17:41Z</time>
  <course>186.86</course>
  <speed>0.022360679774997897</speed>
  <fix>3d</fix>
</trkpt>
<trkpt lat="33.8103132" lon="-118.3938673">
  <ele>-8.969</ele>
  <time>2026-09-01T01:17:41Z</time>
  <course>186.94</course>
  <speed>0.022360679774997897</speed>
  <fix>3d</fix>
</trkpt>
<trkpt lat="33.810313" lon="-118.3938671">
  <ele>-8.66</ele>
  <time>2026-09-01T01:17:41Z</time>
  <course>275.16</course>
  <speed>0.0</speed>
  <fix>3d</fix>
</trkpt>
<trkpt lat="33.8103132" lon="-118.3938673">
  <ele>-8.968</ele>
  <time>2026-09-01T01:17:41Z</time>
  <course>186.96</course>
  <speed>0.022360679774997897</speed>
  <fix>3d</fix>
</trkpt>
<trkpt lat="33.8103132" lon="-118.3938673">
  <ele>-8.963</ele>
  <time>2026-09-01T01:17:41Z</time>
  <course>187.05</course>
  <speed>0.022360679774997897</speed>
  <fix>3d</fix>
</trkpt>
<trkpt lat="33.810313" lon="-118.3938671">
  <ele>-8.63</ele>
  <time>2026-09-01T01:17:41Z</time>
  <course>275.22</course>
  <speed>0.0</speed>
  <fix>3d</fix>
</trkpt>
<trkpt lat="33.8103132" lon="-118.3938673">
  <ele>-8.964</ele>
  <time>2026-09-01T01:17:41Z</time>
  <course>187.06</course>
  <speed>0.022360679774997897</speed>
  <fix>3d</fix>
</trkpt>
<trkpt lat="33.8103132" lon="-118.3938673">
  <ele>-8.955</ele>
  <time>2026-09-01T01:17:41Z</time>
  <course>187.16</course>
  <speed>0.022360679774997897</speed>
  <fix>3d</fix>
</trkpt>
<trkpt lat="33.810313" lon="-118.3938671">
  <ele>-8.63</ele>
  <time>2026-09-01T01:17:41Z</time>
  <course>275.22</course>
  <speed>0.0</speed>
  <fix>3d</fix>
</trkpt>
<trkpt lat="33.8103132" lon="-118.3938673">
  <ele>-8.954</ele>
  <time>2026-09-01T01:17:41Z</time>
  <course>187.16</course>
  <speed>0.022360679774997897</speed>
  <fix>3d</fix>
</trkpt>
<trkpt lat="33.8103132" lon="-118.3938673">
  <ele>-8.933</ele>
  <time>2026-09-01T01:17:41Z</time>
  <course>187.28</course>
  <speed>0.022360679774997897</speed>
  <fix>3d</fix>
</trkpt>
<trkpt lat="33.810313" lon="-118.3938671">
  <ele>-8.6</ele>
  <time>2026-09-01T01:17:41Z</time>
  <course>275.3</course>
  <speed>0.0</speed>
  <fix>3d</fix>
</trkpt>
<trkpt lat="33.8103132" lon="-118.3938673">
  <ele>-8.933</ele>
  <time>2026-09-01T01:17:41Z</time>
  <course>187.28</course>
  <speed>0.022360679774997897</speed>
  <fix>3d</fix>
</trkpt>
<trkpt lat="33.8103132" lon="-118.3938673">
  <ele>-8.907</ele>
  <time>2026-09-01T01:17:41Z</time>
  <course>187.41</course>
  <speed>0.022360679774997897</speed>
  <fix>3d</fix>
</trkpt>
<trkpt lat="33.810313" lon="-118.3938671">
  <ele>-8.6</ele>
  <time>2026-09-01T01:17:41Z</time>
  <course>275.3</course>
  <speed>0.0</speed>
  <fix>3d</fix>
</trkpt>
<trkpt lat="33.8103132" lon="-118.3938673">
  <ele>-8.901</ele>
  <time>2026-09-01T01:17:41Z</time>
  <course>187.43</course>
  <speed>0.022360679774997897</speed>
  <fix>3d</fix>
</trkpt>
<trkpt lat="33.8103132" lon="-118.3938673">
  <ele>-8.879</ele>
  <time>2026-09-01T01:17:41Z</time>
  <course>187.54</course>
  <speed>0.022360679774997897</speed>
  <fix>3d</fix>
</trkpt>
<trkpt lat="33.810313" lon="-118.3938671">
  <ele>-8.57</ele>
  <time>2026-09-01T01:17:41Z</time>
  <course>275.38</course>
  <speed>0.0</speed>
  <fix>3d</fix>
</trkpt>
<trkpt lat="33.8103132" lon="-118.3938673">
  <ele>-8.875</ele>
  <time>2026-09-01T01:17:41Z</time>
  <course>187.56</course>
  <speed>0.022360679774997897</speed>
  <fix>3d</fix>
</trkpt>
<trkpt lat="33.8103132" lon="-118.3938673">
  <ele>-8.855</ele>
  <time>2026-09-01T01:17:41Z</time>
  <course>187.68</course>
  <speed>0.022360679774997897</speed>
  <fix>3d</fix>
</trkpt>
<trkpt lat="33.810313" lon="-118.3938671">
  <ele>-8.57</ele>
  <time>2026-09-01T01:17:41Z</time>
  <course>275.38</course>
  <speed>0.0</speed>
  <fix>3d</fix>
</trkpt>
<trkpt lat="33.8103132" lon="-118.3938673">
  <ele>-8.851</ele>
  <time>2026-09-01T01:17:41Z</time>
  <course>187.7</course>
  <speed>0.022360679774997897</speed>
  <fix>3d</fix>
</trkpt>
<trkpt lat="33.8103132" lon="-118.3938673">
  <ele>-8.832</ele>
  <time>2026-09-01T01:17:41Z</time>
  <course>187.82</course>
  <speed>0.022360679774997897</speed>
  <fix>3d</fix>
</trkpt>
<trkpt lat="33.810313" lon="-118.3938671">
  <ele>-8.54</ele>
  <time>2026-09-01T01:17:41Z</time>
  <course>275.47</course>
  <speed>0.0</speed>
  <fix>3d</fix>
</trkpt>
<trkpt lat="33.8103132" lon="-118.3938673">
  <ele>-8.829</ele>
  <time>2026-09-01T01:17:41Z</time>
  <course>187.84</course>
  <speed>0.022360679774997897</speed>
  <fix>3d</fix>
</trkpt>
<trkpt lat="33.8103132" lon="-118.3938673">
  <ele>-8.813</ele>
  <time>2026-09-01T01:17:41Z</time>
  <course>187.96</course>
  <speed>0.022360679774997897</speed>
  <fix>3d</fix>
</trkpt>
<trkpt lat="33.810313" lon="-118.3938671">
  <ele>-8.54</ele>
  <time>2026-09-01T01:17:41Z</time>
  <course>275.47</course>
  <speed>0.0</speed>
  <fix>3d</fix>
</trkpt>
<trkpt lat="33.8103132" lon="-118.3938673">
  <ele>-8.81</ele>
  <time>2026-09-01T01:17:41Z</time>
  <course>187.98</course>
  <speed>0.022360679774997897</speed>
  <fix>3d</fix>
</trkpt>
<trkpt lat="33.8103132" lon="-118.3938673">
  <ele>-8.789</ele>
  <time>2026-09-01T01:17:41Z</time>
  <course>188.11</course>
  <speed>0.022360679774997897</speed>
  <fix>3d</fix>
</trkpt>
<trkpt lat="33.810313" lon="-118.3938671">
  <ele>-8.51</ele>
  <time>2026-09-01T01:17:41Z</time>
  <course>275.57</course>
  <speed>0.0</speed>
  <fix>3d</fix>
</trkpt>
<trkpt lat="33.8103132" lon="-118.3938673">
  <ele>-8.788</ele>
  <time>2026-09-01T01:17:41Z</time>
  <course>188.11</course>
  <speed>0.022360679774997897</speed>
  <fix>3d</fix>
</trkpt>
<trkpt lat="33.8103132" lon="-118.3938673">
  <ele>-8.77</ele>
  <time>2026-09-01T01:17:41Z</time>
  <course>188.26</course>
  <speed>0.022360679774997897</speed>
  <fix>3d</fix>
</trkpt>
<trkpt lat="33.810313" lon="-118.3938671">
  <ele>-8.51</ele>
  <time>2026-09-01T01:17:41Z</time>
  <course>275.57</course>
  <speed>0.0</speed>
  <fix>3d</fix>
</trkpt>
<trkpt lat="33.8103132" lon="-118.3938673">
  <ele>-8.769</ele>
  <time>2026-09-01T01:17:41Z</time>
  <course>188.27</course>
  <speed>0.022360679774997897</speed>
  <fix>3d</fix>
</trkpt>
<trkpt lat="33.8103132" lon="-118.3938673">
  <ele>-8.753</ele>
  <time>2026-09-01T01:17:41Z</time>
  <course>188.42</course>
  <speed>0.022360679774997897</speed>
  <fix>3d</fix>
</trkpt>
<trkpt lat="33.810313" lon="-118.3938671">
  <ele>-8.47</ele>
  <time>2026-09-01T01:17:41Z</time>
  <course>275.69</course>
  <speed>0.0</speed>
  <fix>3d</fix>
</trkpt>
<trkpt lat="33.8103132" lon="-118.3938673">
  <ele>-8.748</ele>
  <time>2026-09-01T01:17:41Z</time>
  <course>188.46</course>
  <speed>0.022360679774997897</speed>
  <fix>3d</fix>
</trkpt>
<trkpt lat="33.8103132" lon="-118.3938673">
  <ele>-8.733</ele>
  <time>2026-09-01T01:17:41Z</time>
  <course>188.59</course>
  <speed>0.022360679774997897</speed>
  <fix>3d</fix>
</trkpt>
<trkpt lat="33.810313" lon="-118.3938671">
  <ele>-8.47</ele>
  <time>2026-09-01T01:17:41Z</time>
  <course>275.69</course>
  <speed>0.0</speed>
  <fix>3d</fix>
</trkpt>
<trkpt lat="33.8103132" lon="-118.3938673">
  <ele>-8.732</ele>
  <time>2026-09-01T01:17:41Z</time>
  <course>188.59</course>
  <speed>0.022360679774997897</speed>
  <fix>3d</fix>
</trkpt>
<trkpt lat="33.8103132" lon="-118.3938673">
  <ele>-8.72</ele>
  <time>2026-09-01T01:17:41Z</time>
  <course>188.76</course>
  <speed>0.022360679774997897</speed>
  <fix>3d</fix>
</trkpt>
<trkpt lat="33.810313" lon="-118.3938671">
  <ele>-8.44</ele>
  <time>2026-09-01T01:17:41Z</time>
  <course>275.81</course>
  <speed>0.0</speed>
  <fix>3d</fix>
</trkpt>
<trkpt lat="33.8103132" lon="-118.3938673">
  <ele>-8.72</ele>
  <time>2026-09-01T01:17:41Z</time>
  <course>188.77</course>
  <speed>0.022360679774997897</speed>
  <fix>3d</fix>
</trkpt>
<trkpt lat="33.8103132" lon="-118.3938673">
  <ele>-8.707</ele>
  <time>2026-09-01T01:17:41Z</time>
  <course>188.94</course>
  <speed>0.022360679774997897</speed>
  <fix>3d</fix>
</trkpt>
<trkpt lat="33.810313" lon="-118.3938671">
  <ele>-8.44</ele>
  <time>2026-09-01T01:17:41Z</time>
  <course>275.81</course>
  <speed>0.0</speed>
  <fix>3d</fix>
</trkpt>
<trkpt lat="33.8103132" lon="-118.3938673">
  <ele>-8.706</ele>
  <time>2026-09-01T01:17:41Z</time>
  <course>188.95</course>
  <speed>0.022360679774997897</speed>
  <fix>3d</fix>
</trkpt>
<trkpt lat="33.8103132" lon="-118.3938673">
  <ele>-8.692</ele>
  <time>2026-09-01T01:17:41Z</time>
  <course>189.12</course>
  <speed>0.022360679774997897</speed>
  <fix>3d</fix>
</trkpt>
<trkpt lat="33.810313" lon="-118.3938671">
  <ele>-8.41</ele>
  <time>2026-09-01T01:17:41Z</time>
  <course>275.93</course>
  <speed>0.0</speed>
  <fix>3d</fix>
</trkpt>
<trkpt lat="33.8103132" lon="-118.3938673">
  <ele>-8.691</ele>
  <time>2026-09-01T01:17:41Z</time>
  <course>189.14</course>
  <speed>0.022360679774997897</speed>
  <fix>3d</fix>
</trkpt>
<trkpt lat="33.8103132" lon="-118.3938673">
  <ele>-8.681</ele>
  <time>2026-09-01T01:17:41Z</time>
  <course>189.3</course>
  <speed>0.022360679774997897</speed>
  <fix>3d</fix>
</trkpt>
<trkpt lat="33.810313" lon="-118.3938671">
  <ele>-8.41</ele>
  <time>2026-09-01T01:17:41Z</time>
  <course>275.93</course>
  <speed>0.0</speed>
  <fix>3d</fix>
</trkpt>
<trkpt lat="33.8103132" lon="-118.3938673">
  <ele>-8.68</ele>
  <time>2026-09-01T01:17:41Z</time>
  <course>189.32</course>
  <speed>0.022360679774997897</speed>
  <fix>3d</fix>
</trkpt>
<trkpt lat="33.8103132" lon="-118.3938673">
  <ele>-8.673</ele>
  <time>2026-09-01T01:17:41Z</time>
  <course>189.5</course>
  <speed>0.022360679774997897</speed>
  <fix>3d</fix>
</trkpt>
<trkpt lat="33.810313" lon="-118.3938671">
  <ele>-8.38</ele>
  <time>2026-09-01T01:17:41Z</time>
  <course>276.06</course>
  <speed>0.0</speed>
  <fix>3d</fix>
</trkpt>
<trkpt lat="33.8103132" lon="-118.3938673">
  <ele>-8.674</ele>
  <time>2026-09-01T01:17:41Z</time>
  <course>189.5</course>
  <speed>0.022360679774997897</speed>
  <fix>3d</fix>
</trkpt>
<trkpt lat="33.8103132" lon="-118.3938673">
  <ele>-8.671</ele>
  <time>2026-09-01T01:17:41Z</time>
  <course>189.7</course>
  <speed>0.022360679774997897</speed>
  <fix>3d</fix>
</trkpt>
<trkpt lat="33.810313" lon="-118.3938671">
  <ele>-8.38</ele>
  <time>2026-09-01T01:17:41Z</time>
  <course>276.06</course>
  <speed>0.0</speed>
  <fix>3d</fix>
</trkpt>
<trkpt lat="33.8103132" lon="-118.3938673">
  <ele>-8.671</ele>
  <time>2026-09-01T01:17:41Z</time>
  <course>189.75</course>
  <speed>0.022360679774997897</speed>
  <fix>3d</fix>
</trkpt>
<trkpt lat="33.8103132" lon="-118.3938673">
  <ele>-8.677</ele>
  <time>2026-09-01T01:17:41Z</time>
  <course>189.9</course>
  <speed>0.022360679774997897</speed>
  <fix>3d</fix>
</trkpt>
<trkpt lat="33.810313" lon="-118.3938671">
  <ele>-8.35</ele>
  <time>2026-09-01T01:17:41Z</time>
  <course>276.19</course>
  <speed>0.0</speed>
  <fix>3d</fix>
</trkpt>
<trkpt lat="33.8103132" lon="-118.3938673">
  <ele>-8.68</ele>
  <time>2026-09-01T01:17:41Z</time>
  <course>189.94</course>
  <speed>0.022360679774997897</speed>
  <fix>3d</fix>
</trkpt>
<trkpt lat="33.8103132" lon="-118.3938673">
  <ele>-8.688</ele>
  <time>2026-09-01T01:17:41Z</time>
  <course>190.1</course>
  <speed>0.022360679774997897</speed>
  <fix>3d</fix>
</trkpt>
<trkpt lat="33.810313" lon="-118.3938671">
  <ele>-8.35</ele>
  <time>2026-09-01T01:17:41Z</time>
  <course>276.19</course>
  <speed>0.0</speed>
  <fix>3d</fix>
</trkpt>
<trkpt lat="33.8103132" lon="-118.3938673">
  <ele>-8.688</ele>
  <time>2026-09-01T01:17:41Z</time>
  <course>190.11</course>
  <speed>0.022360679774997897</speed>
  <fix>3d</fix>
</trkpt>
<trkpt lat="33.8103132" lon="-118.3938673">
  <ele>-8.691</ele>
  <time>2026-09-01T01:17:41Z</time>
  <course>190.31</course>
  <speed>0.022360679774997897</speed>
  <fix>3d</fix>
</trkpt>
<trkpt lat="33.810313" lon="-118.3938671">
  <ele>-8.32</ele>
  <time>2026-09-01T01:17:41Z</time>
  <course>276.33</course>
  <speed>0.0</speed>
  <fix>3d</fix>
</trkpt>
<trkpt lat="33.8103132" lon="-118.3938673">
  <ele>-8.691</ele>
  <time>2026-09-01T01:17:41Z</time>
  <course>190.32</course>
  <speed>0.022360679774997897</speed>
  <fix>3d</fix>
</trkpt>
<trkpt lat="33.8103132" lon="-118.3938673">
  <ele>-8.683</ele>
  <time>2026-09-01T01:17:41Z</time>
  <course>190.53</course>
  <speed>0.022360679774997897</speed>
  <fix>3d</fix>
</trkpt>
<trkpt lat="33.810313" lon="-118.3938671">
  <ele>-8.32</ele>
  <time>2026-09-01T01:17:41Z</time>
  <course>276.33</course>
  <speed>0.0</speed>
  <fix>3d</fix>
</trkpt>
<trkpt lat="33.8103132" lon="-118.3938673">
  <ele>-8.682</ele>
  <time>2026-09-01T01:17:41Z</time>
  <course>190.53</course>
  <speed>0.022360679774997897</speed>
  <fix>3d</fix>
</trkpt>
<trkpt lat="33.8103132" lon="-118.3938673">
  <ele>-8.675</ele>
  <time>2026-09-01T01:17:41Z</time>
  <course>190.75</course>
  <speed>0.022360679774997897</speed>
  <fix>3d</fix>
</trkpt>
<trkpt lat="33.810313" lon="-118.3938671">
  <ele>-8.28</ele>
  <time>2026-09-01T01:17:41Z</time>
  <course>276.49</course>
  <speed>0.0</speed>
  <fix>3d</fix>
</trkpt>
<trkpt lat="33.8103132" lon="-118.3938673">
  <ele>-8.674</ele>
  <time>2026-09-01T01:17:41Z</time>
  <course>190.76</course>
  <speed>0.022360679774997897</speed>
  <fix>3d</fix>
</trkpt>
<trkpt lat="33.8103132" lon="-118.3938673">
  <ele>-8.667</ele>
  <time>2026-09-01T01:17:41Z</time>
  <course>190.98</course>
  <speed>0.022360679774997897</speed>
  <fix>3d</fix>
</trkpt>
<trkpt lat="33.810313" lon="-118.3938671">
  <ele>-8.28</ele>
  <time>2026-09-01T01:17:41Z</time>
  <course>276.49</course>
  <speed>0.0</speed>
  <fix>3d</fix>
</trkpt>
<trkpt lat="33.8103132" lon="-118.3938673">
  <ele>-8.667</ele>
  <time>2026-09-01T01:17:41Z</time>
  <course>190.98</course>
  <speed>0.022360679774997897</speed>
  <fix>3d</fix>
</trkpt>
<trkpt lat="33.8103132" lon="-118.3938673">
  <ele>-8.656</ele>
  <time>2026-09-01T01:17:42Z</time>
  <course>191.21</course>
  <speed>0.022360679774997897</speed>
  <fix>3d</fix>
</trkpt>
<trkpt lat="33.810313" lon="-118.3938672">
  <ele>-8.25</ele>
  <time>2026-09-01T01:17:42Z</time>
  <course>276.65</course>
  <speed>0.0</speed>
  <fix>3d</fix>
</trkpt>
<trkpt lat="33.8103132" lon="-118.3938673">
  <ele>-8.653</ele>
  <time>2026-09-01T01:17:42Z</time>
  <course>191.26</course>
  <speed>0.022360679774997897</speed>
  <fix>3d</fix>
</trkpt>
<trkpt lat="33.8103132" lon="-118.3938673">
  <ele>-8.636</ele>
  <time>2026-09-01T01:17:42Z</time>
  <course>191.44</course>
  <speed>0.022360679774997897</speed>
  <fix>3d</fix>
</trkpt>
<trkpt lat="33.810313" lon="-118.3938672">
  <ele>-8.25</ele>
  <time>2026-09-01T01:17:42Z</time>
  <course>276.65</course>
  <speed>0.0</speed>
  <fix>3d</fix>
</trkpt>
<trkpt lat="33.8103132" lon="-118.3938673">
  <ele>-8.631</ele>
  <time>2026-09-01T01:17:42Z</time>
  <course>191.49</course>
  <speed>0.022360679774997897</speed>
  <fix>3d</fix>
</trkpt>
<trkpt lat="33.8103132" lon="-118.3938673">
  <ele>-8.618</ele>
  <time>2026-09-01T01:17:42Z</time>
  <course>191.67</course>
  <speed>0.022360679774997897</speed>
  <fix>3d</fix>
</trkpt>
<trkpt lat="33.810313" lon="-118.3938672">
  <ele>-8.22</ele>
  <time>2026-09-01T01:17:42Z</time>
  <course>276.82</course>
  <speed>0.0</speed>
  <fix>3d</fix>
</trkpt>
<trkpt lat="33.8103132" lon="-118.3938673">
  <ele>-8.614</ele>
  <time>2026-09-01T01:17:42Z</time>
  <course>191.74</course>
  <speed>0.022360679774997897</speed>
  <fix>3d</fix>
</trkpt>
<trkpt lat="33.8103132" lon="-118.3938673">
  <ele>-8.602</ele>
  <time>2026-09-01T01:17:42Z</time>
  <course>191.92</course>
  <speed>0.022360679774997897</speed>
  <fix>3d</fix>
</trkpt>
<trkpt lat="33.810313" lon="-118.3938672">
  <ele>-8.22</ele>
  <time>2026-09-01T01:17:42Z</time>
  <course>276.82</course>
  <speed>0.0</speed>
  <fix>3d</fix>
</trkpt>
<trkpt lat="33.8103132" lon="-118.3938673">
  <ele>-8.599</ele>
  <time>2026-09-01T01:17:42Z</time>
  <course>191.98</course>
  <speed>0.022360679774997897</speed>
  <fix>3d</fix>
</trkpt>
<trkpt lat="33.8103132" lon="-118.3938673">
  <ele>-8.584</ele>
  <time>2026-09-01T01:17:42Z</time>
  <course>192.16</course>
  <speed>0.022360679774997897</speed>
  <fix>3d</fix>
</trkpt>
<trkpt lat="33.810313" lon="-118.3938672">
  <ele>-8.19</ele>
  <time>2026-09-01T01:17:42Z</time>
  <course>276.99</course>
  <speed>0.0</speed>
  <fix>3d</fix>
</trkpt>
<trkpt lat="33.8103132" lon="-118.3938673">
  <ele>-8.579</ele>
  <time>2026-09-01T01:17:42Z</time>
  <course>192.23</course>
  <speed>0.022360679774997897</speed>
  <fix>3d</fix>
</trkpt>
<trkpt lat="33.8103132" lon="-118.3938673">
  <ele>-8.566</ele>
  <time>2026-09-01T01:17:42Z</time>
  <course>192.41</course>
  <speed>0.022360679774997897</speed>
  <fix>3d</fix>
</trkpt>
<trkpt lat="33.810313" lon="-118.3938672">
  <ele>-8.19</ele>
  <time>2026-09-01T01:17:42Z</time>
  <course>276.99</course>
  <speed>0.0</speed>
  <fix>3d</fix>
</trkpt>
<trkpt lat="33.8103132" lon="-118.3938673">
  <ele>-8.563</ele>
  <time>2026-09-01T01:17:42Z</time>
  <course>192.47</course>
  <speed>0.022360679774997897</speed>
  <fix>3d</fix>
</trkpt>
<trkpt lat="33.8103132" lon="-118.3938673">
  <ele>-8.556</ele>
  <time>2026-09-01T01:17:42Z</time>
  <course>192.67</course>
  <speed>0.022360679774997897</speed>
  <fix>3d</fix>
</trkpt>
<trkpt lat="33.810313" lon="-118.3938672">
  <ele>-8.16</ele>
  <time>2026-09-01T01:17:42Z</time>
  <course>277.16</course>
  <speed>0.0</speed>
  <fix>3d</fix>
</trkpt>
<trkpt lat="33.8103132" lon="-118.3938673">
  <ele>-8.556</ele>
  <time>2026-09-01T01:17:42Z</time>
  <course>192.67</course>
  <speed>0.022360679774997897</speed>
  <fix>3d</fix>
</trkpt>
<trkpt lat="33.8103132" lon="-118.3938673">
  <ele>-8.551</ele>
  <time>2026-09-01T01:17:42Z</time>
  <course>192.93</course>
  <speed>0.022360679774997897</speed>
  <fix>3d</fix>
</trkpt>
<trkpt lat="33.810313" lon="-118.3938672">
  <ele>-8.16</ele>
  <time>2026-09-01T01:17:42Z</time>
  <course>277.16</course>
  <speed>0.0</speed>
  <fix>3d</fix>
</trkpt>
<trkpt lat="33.8103132" lon="-118.3938673">
  <ele>-8.551</ele>
  <time>2026-09-01T01:17:42Z</time>
  <course>192.93</course>
  <speed>0.022360679774997897</speed>
  <fix>3d</fix>
</trkpt>
<trkpt lat="33.8103132" lon="-118.3938673">
  <ele>-8.538</ele>
  <time>2026-09-01T01:17:42Z</time>
  <course>193.19</course>
  <speed>0.022360679774997897</speed>
  <fix>3d</fix>
</trkpt>
<trkpt lat="33.810313" lon="-118.3938672">
  <ele>-8.12</ele>
  <time>2026-09-01T01:17:42Z</time>
  <course>277.35</course>
  <speed>0.0</speed>
  <fix>3d</fix>
</trkpt>
<trkpt lat="33.8103132" lon="-118.3938673">
  <ele>-8.538</ele>
  <time>2026-09-01T01:17:42Z</time>
  <course>193.2</course>
  <speed>0.022360679774997897</speed>
  <fix>3d</fix>
</trkpt>
<trkpt lat="33.8103132" lon="-118.3938673">
  <ele>-8.516</ele>
  <time>2026-09-01T01:17:42Z</time>
  <course>193.46</course>
  <speed>0.022360679774997897</speed>
  <fix>3d</fix>
</trkpt>
<trkpt lat="33.810313" lon="-118.3938672">
  <ele>-8.12</ele>
  <time>2026-09-01T01:17:42Z</time>
  <course>277.35</course>
  <speed>0.0</speed>
  <fix>3d</fix>
</trkpt>
<trkpt lat="33.8103132" lon="-118.3938673">
  <ele>-8.514</ele>
  <time>2026-09-01T01:17:42Z</time>
  <course>193.47</course>
  <speed>0.022360679774997897</speed>
  <fix>3d</fix>
</trkpt>
<trkpt lat="33.8103132" lon="-118.3938673">
  <ele>-8.49</ele>
  <time>2026-09-01T01:17:42Z</time>
  <course>193.73</course>
  <speed>0.022360679774997897</speed>
  <fix>3d</fix>
</trkpt>
<trkpt lat="33.810313" lon="-118.3938672">
  <ele>-8.09</ele>
  <time>2026-09-01T01:17:42Z</time>
  <course>277.55</course>
  <speed>0.0</speed>
  <fix>3d</fix>
</trkpt>
<trkpt lat="33.8103132" lon="-118.3938673">
  <ele>-8.488</ele>
  <time>2026-09-01T01:17:42Z</time>
  <course>193.74</course>
  <speed>0.022360679774997897</speed>
  <fix>3d</fix>
</trkpt>
<trkpt lat="33.8103132" lon="-118.3938673">
  <ele>-8.458</ele>
  <time>2026-09-01T01:17:42Z</time>
  <course>194.0</course>
  <speed>0.022360679774997897</speed>
  <fix>3d</fix>
</trkpt>
<trkpt lat="33.810313" lon="-118.3938672">
  <ele>-8.09</ele>
  <time>2026-09-01T01:17:42Z</time>
  <course>277.55</course>
  <speed>0.0</speed>
  <fix>3d</fix>
</trkpt>
<trkpt lat="33.8103132" lon="-118.3938673">
  <ele>-8.456</ele>
  <time>2026-09-01T01:17:42Z</time>
  <course>194.01</course>
  <speed>0.022360679774997897</speed>
  <fix>3d</fix>
</trkpt>
<trkpt lat="33.8103132" lon="-118.3938673">
  <ele>-8.42</ele>
  <time>2026-09-01T01:17:42Z</time>
  <course>194.28</course>
  <speed>0.022360679774997897</speed>
  <fix>3d</fix>
</trkpt>
<trkpt lat="33.810313" lon="-118.3938672">
  <ele>-8.06</ele>
  <time>2026-09-01T01:17:42Z</time>
  <course>277.74</course>
  <speed>0.0</speed>
  <fix>3d</fix>
</trkpt>
<trkpt lat="33.8103132" lon="-118.3938673">
  <ele>-8.417</ele>
  <time>2026-09-01T01:17:42Z</time>
  <course>194.29</course>
  <speed>0.022360679774997897</speed>
  <fix>3d</fix>
</trkpt>
<trkpt lat="33.8103132" lon="-118.3938673">
  <ele>-8.383</ele>
  <time>2026-09-01T01:17:42Z</time>
  <course>194.56</course>
  <speed>0.022360679774997897</speed>
  <fix>3d</fix>
</trkpt>
<trkpt lat="33.810313" lon="-118.3938672">
  <ele>-8.06</ele>
  <time>2026-09-01T01:17:42Z</time>
  <course>277.74</course>
  <speed>0.0</speed>
  <fix>3d</fix>
</trkpt>
<trkpt lat="33.8103132" lon="-118.3938673">
  <ele>-8.38</ele>
  <time>2026-09-01T01:17:42Z</time>
  <course>194.58</course>
  <speed>0.022360679774997897</speed>
  <fix>3d</fix>
</trkpt>
<trkpt lat="33.8103132" lon="-118.3938673">
  <ele>-8.358</ele>
  <time>2026-09-01T01:17:42Z</time>
  <course>194.84</course>
  <speed>0.022360679774997897</speed>
  <fix>3d</fix>
</trkpt>
<trkpt lat="33.810313" lon="-118.3938672">
  <ele>-8.03</ele>
  <time>2026-09-01T01:17:42Z</time>
  <course>277.94</course>
  <speed>0.0</speed>
  <fix>3d</fix>
</trkpt>
<trkpt lat="33.8103132" lon="-118.3938673">
  <ele>-8.357</ele>
  <time>2026-09-01T01:17:42Z</time>
  <course>194.87</course>
  <speed>0.022360679774997897</speed>
  <fix>3d</fix>
</trkpt>
<trkpt lat="33.8103132" lon="-118.3938673">
  <ele>-8.344</ele>
  <time>2026-09-01T01:17:42Z</time>
  <course>195.13</course>
  <speed>0.022360679774997897</speed>
  <fix>3d</fix>
</trkpt>
<trkpt lat="33.810313" lon="-118.3938672">
  <ele>-8.03</ele>
  <time>2026-09-01T01:17:42Z</time>
  <course>277.94</course>
  <speed>0.0</speed>
  <fix>3d</fix>
</trkpt>
<trkpt lat="33.8103132" lon="-118.3938673">
  <ele>-8.344</ele>
  <time>2026-09-01T01:17:42Z</time>
  <course>195.15</course>
  <speed>0.022360679774997897</speed>
  <fix>3d</fix>
</trkpt>
<trkpt lat="33.8103132" lon="-118.3938673">
  <ele>-8.333</ele>
  <time>2026-09-01T01:17:42Z</time>
  <course>195.42</course>
  <speed>0.022360679774997897</speed>
  <fix>3d</fix>
</trkpt>
<trkpt lat="33.810313" lon="-118.3938672">
  <ele>-8.0</ele>
  <time>2026-09-01T01:17:42Z</time>
  <course>278.14</course>
  <speed>0.0</speed>
  <fix>3d</fix>
</trkpt>
<trkpt lat="33.8103132" lon="-118.3938673">
  <ele>-8.333</ele>
  <time>2026-09-01T01:17:42Z</time>
  <course>195.44</course>
  <speed>0.022360679774997897</speed>
  <fix>3d</fix>
</trkpt>
<trkpt lat="33.8103132" lon="-118.3938673">
  <ele>-8.318</ele>
  <time>2026-09-01T01:17:42Z</time>
  <course>195.72</course>
  <speed>0.022360679774997897</speed>
  <fix>3d</fix>
</trkpt>
<trkpt lat="33.810313" lon="-118.3938672">
  <ele>-8.0</ele>
  <time>2026-09-01T01:17:42Z</time>
  <course>278.14</course>
  <speed>0.0</speed>
  <fix>3d</fix>
</trkpt>
<trkpt lat="33.8103132" lon="-118.3938673">
  <ele>-8.317</ele>
  <time>2026-09-01T01:17:42Z</time>
  <course>195.74</course>
  <speed>0.022360679774997897</speed>
  <fix>3d</fix>
</trkpt>
<trkpt lat="33.8103132" lon="-118.3938673">
  <ele>-8.292</ele>
  <time>2026-09-01T01:17:42Z</time>
  <course>196.02</course>
  <speed>0.022360679774997897</speed>
  <fix>3d</fix>
</trkpt>
<trkpt lat="33.810313" lon="-118.3938672">
  <ele>-7.97</ele>
  <time>2026-09-01T01:17:42Z</time>
  <course>278.35</course>
  <speed>0.0</speed>
  <fix>3d</fix>
</trkpt>
<trkpt lat="33.8103132" lon="-118.3938673">
  <ele>-8.291</ele>
  <time>2026-09-01T01:17:42Z</time>
  <course>196.03</course>
  <speed>0.022360679774997897</speed>
  <fix>3d</fix>
</trkpt>
<trkpt lat="33.8103132" lon="-118.3938673">
  <ele>-8.267</ele>
  <time>2026-09-01T01:17:42Z</time>
  <course>196.32</course>
  <speed>0.022360679774997897</speed>
  <fix>3d</fix>
</trkpt>
<trkpt lat="33.810313" lon="-118.3938672">
  <ele>-7.97</ele>
  <time>2026-09-01T01:17:42Z</time>
  <course>278.35</course>
  <speed>0.0</speed>
  <fix>3d</fix>
</trkpt>
<trkpt lat="33.8103132" lon="-118.3938673">
  <ele>-8.265</ele>
  <time>2026-09-01T01:17:42Z</time>
  <course>196.34</course>
  <speed>0.022360679774997897</speed>
  <fix>3d</fix>
</trkpt>
<trkpt lat="33.8103132" lon="-118.3938673">
  <ele>-8.246</ele>
  <time>2026-09-01T01:17:42Z</time>
  <course>196.62</course>
  <speed>0.022360679774997897</speed>
  <fix>3d</fix>
</trkpt>
<trkpt lat="33.810313" lon="-118.3938672">
  <ele>-7.93</ele>
  <time>2026-09-01T01:17:42Z</time>
  <course>278.58</course>
  <speed>0.0</speed>
  <fix>3d</fix>
</trkpt>
<trkpt lat="33.8103132" lon="-118.3938673">
  <ele>-8.244</ele>
  <time>2026-09-01T01:17:42Z</time>
  <course>196.65</course>
  <speed>0.022360679774997897</speed>
  <fix>3d</fix>
</trkpt>
<trkpt lat="33.8103132" lon="-118.3938673">
  <ele>-8.228</ele>
  <time>2026-09-01T01:17:42Z</time>
  <course>196.93</course>
  <speed>0.022360679774997897</speed>
  <fix>3d</fix>
</trkpt>
<trkpt lat="33.810313" lon="-118.3938672">
  <ele>-7.93</ele>
  <time>2026-09-01T01:17:42Z</time>
  <course>278.58</course>
  <speed>0.0</speed>
  <fix>3d</fix>
</trkpt>
<trkpt lat="33.8103132" lon="-118.3938673">
  <ele>-8.227</ele>
  <time>2026-09-01T01:17:42Z</time>
  <course>196.94</course>
  <speed>0.022360679774997897</speed>
  <fix>3d</fix>
</trkpt>
<trkpt lat="33.8103132" lon="-118.3938673">
  <ele>-8.215</ele>
  <time>2026-09-01T01:17:42Z</time>
  <course>197.24</course>
  <speed>0.022360679774997897</speed>
  <fix>3d</fix>
</trkpt>
<trkpt lat="33.810313" lon="-118.3938673">
  <ele>-7.9</ele>
  <time>2026-09-01T01:17:42Z</time>
  <course>278.8</course>
  <speed>0.0</speed>
  <fix>3d</fix>
</trkpt>
<trkpt lat="33.8103132" lon="-118.3938673">
  <ele>-8.215</ele>
  <time>2026-09-01T01:17:42Z</time>
  <course>197.27</course>
  <speed>0.022360679774997897</speed>
  <fix>3d</fix>
</trkpt>
<trkpt lat="33.8103132" lon="-118.3938673">
  <ele>-8.204</ele>
  <time>2026-09-01T01:17:42Z</time>
  <course>197.55</course>
  <speed>0.022360679774997897</speed>
  <fix>3d</fix>
</trkpt>
<trkpt lat="33.810313" lon="-118.3938673">
  <ele>-7.9</ele>
  <time>2026-09-01T01:17:42Z</time>
  <course>278.8</course>
  <speed>0.0</speed>
  <fix>3d</fix>
</trkpt>
<trkpt lat="33.8103132" lon="-118.3938673">
  <ele>-8.201</ele>
  <time>2026-09-01T01:17:42Z</time>
  <course>197.63</course>
  <speed>0.022360679774997897</speed>
  <fix>3d</fix>
</trkpt>
<trkpt lat="33.8103132" lon="-118.3938674">
  <ele>-8.192</ele>
  <time>2026-09-01T01:17:42Z</time>
  <course>197.87</course>
  <speed>0.0282842712474619</speed>
  <fix>3d</fix>
</trkpt>
<trkpt lat="33.810313" lon="-118.3938673">
  <ele>-7.87</ele>
  <time>2026-09-01T01:17:42Z</time>
  <course>279.02</course>
  <speed>0.0</speed>
  <fix>3d</fix>
</trkpt>
<trkpt lat="33.8103132" lon="-118.3938674">
  <ele>-8.191</ele>
  <time>2026-09-01T01:17:42Z</time>
  <course>197.9</course>
  <speed>0.0282842712474619</speed>
  <fix>3d</fix>
</trkpt>
<trkpt lat="33.8103132" lon="-118.3938674">
  <ele>-8.18</ele>
  <time>2026-09-01T01:17:42Z</time>
  <course>198.19</course>
  <speed>0.0282842712474619</speed>
  <fix>3d</fix>
</trkpt>
<trkpt lat="33.810313" lon="-118.3938673">
  <ele>-7.87</ele>
  <time>2026-09-01T01:17:42Z</time>
  <course>279.02</course>
  <speed>0.0</speed>
  <fix>3d</fix>
</trkpt>
<trkpt lat="33.8103132" lon="-118.3938674">
  <ele>-8.177</ele>
  <time>2026-09-01T01:17:42Z</time>
  <course>198.26</course>
  <speed>0.0282842712474619</speed>
  <fix>3d</fix>
</trkpt>
<trkpt lat="33.8103132" lon="-118.3938674">
  <ele>-8.165</ele>
  <time>2026-09-01T01:17:42Z</time>
  <course>198.51</course>
  <speed>0.0282842712474619</speed>
  <fix>3d</fix>
</trkpt>
<trkpt lat="33.810313" lon="-118.3938673">
  <ele>-7.84</ele>
  <time>2026-09-01T01:17:42Z</time>
  <course>279.25</course>
  <speed>0.0</speed>
  <fix>3d</fix>
</trkpt>
<trkpt lat="33.8103132" lon="-118.3938674">
  <ele>-8.164</ele>
  <time>2026-09-01T01:17:42Z</time>
  <course>198.53</course>
  <speed>0.0282842712474619</speed>
  <fix>3d</fix>
</trkpt>
<trkpt lat="33.8103132" lon="-118.3938674">
  <ele>-8.154</ele>
  <time>2026-09-01T01:17:42Z</time>
  <course>198.83</course>
  <speed>0.0282842712474619</speed>
  <fix>3d</fix>
</trkpt>
<trkpt lat="33.810313" lon="-118.3938673">
  <ele>-7.84</ele>
  <time>2026-09-01T01:17:42Z</time>
  <course>279.25</course>
  <speed>0.0</speed>
  <fix>3d</fix>
</trkpt>
<trkpt lat="33.8103132" lon="-118.3938674">
  <ele>-8.153</ele>
  <time>2026-09-01T01:17:42Z</time>
  <course>198.88</course>
  <speed>0.0282842712474619</speed>
  <fix>3d</fix>
</trkpt>
<trkpt lat="33.8103132" lon="-118.3938674">
  <ele>-8.143</ele>
  <time>2026-09-01T01:17:42Z</time>
  <course>199.16</course>
  <speed>0.0282842712474619</speed>
  <fix>3d</fix>
</trkpt>
<trkpt lat="33.810313" lon="-118.3938673">
  <ele>-7.81</ele>
  <time>2026-09-01T01:17:42Z</time>
  <course>279.49</course>
  <speed>0.0</speed>
  <fix>3d</fix>
</trkpt>
<trkpt lat="33.8103132" lon="-118.3938674">
  <ele>-8.139</ele>
  <time>2026-09-01T01:17:42Z</time>
  <course>199.24</course>
  <speed>0.0282842712474619</speed>
  <fix>3d</fix>
</trkpt>
<trkpt lat="33.8103132" lon="-118.3938674">
  <ele>-8.126</ele>
  <time>2026-09-01T01:17:42Z</time>
  <course>199.5</course>
  <speed>0.0282842712474619</speed>
  <fix>3d</fix>
</trkpt>
<trkpt lat="33.810313" lon="-118.3938673">
  <ele>-7.81</ele>
  <time>2026-09-01T01:17:42Z</time>
  <course>279.49</course>
  <speed>0.0</speed>
  <fix>3d</fix>
</trkpt>
<trkpt lat="33.8103132" lon="-118.3938674">
  <ele>-8.126</ele>
  <time>2026-09-01T01:17:42Z</time>
  <course>199.51</course>
  <speed>0.0282842712474619</speed>
  <fix>3d</fix>
</trkpt>
<trkpt lat="33.8103132" lon="-118.3938674">
  <ele>-8.117</ele>
  <time>2026-09-01T01:17:42Z</time>
  <course>199.83</course>
  <speed>0.0282842712474619</speed>
  <fix>3d</fix>
</trkpt>
<trkpt lat="33.810313" lon="-118.3938673">
  <ele>-7.77</ele>
  <time>2026-09-01T01:17:42Z</time>
  <course>279.74</course>
  <speed>0.0</speed>
  <fix>3d</fix>
</trkpt>
<trkpt lat="33.8103132" lon="-118.3938674">
  <ele>-8.116</ele>
  <time>2026-09-01T01:17:42Z</time>
  <course>199.88</course>
  <speed>0.0282842712474619</speed>
  <fix>3d</fix>
</trkpt>
<trkpt lat="33.8103132" lon="-118.3938674">
  <ele>-8.117</ele>
  <time>2026-09-01T01:17:42Z</time>
  <course>200.16</course>
  <speed>0.0282842712474619</speed>
  <fix>3d</fix>
</trkpt>
<trkpt lat="33.810313" lon="-118.3938673">
  <ele>-7.77</ele>
  <time>2026-09-01T01:17:42Z</time>
  <course>279.74</course>
  <speed>0.0</speed>
  <fix>3d</fix>
</trkpt>
<trkpt lat="33.8103132" lon="-118.3938674">
  <ele>-8.116</ele>
  <time>2026-09-01T01:17:42Z</time>
  <course>200.17</course>
  <speed>0.0282842712474619</speed>
  <fix>3d</fix>
</trkpt>
<trkpt lat="33.8103132" lon="-118.3938674">
  <ele>-8.121</ele>
  <time>2026-09-01T01:17:42Z</time>
  <course>200.5</course>
  <speed>0.0282842712474619</speed>
  <fix>3d</fix>
</trkpt>
<trkpt lat="33.810313" lon="-118.3938673">
  <ele>-7.74</ele>
  <time>2026-09-01T01:17:42Z</time>
  <course>279.99</course>
  <speed>0.0</speed>
  <fix>3d</fix>
</trkpt>
<trkpt lat="33.8103132" lon="-118.3938674">
  <ele>-8.119</ele>
  <time>2026-09-01T01:17:42Z</time>
  <course>200.53</course>
  <speed>0.0282842712474619</speed>
  <fix>3d</fix>
</trkpt>
<trkpt lat="33.8103132" lon="-118.3938674">
  <ele>-8.124</ele>
  <time>2026-09-01T01:17:42Z</time>
  <course>200.84</course>
  <speed>0.0282842712474619</speed>
  <fix>3d</fix>
</trkpt>
<trkpt lat="33.810313" lon="-118.3938673">
  <ele>-7.74</ele>
  <time>2026-09-01T01:17:42Z</time>
  <course>279.99</course>
  <speed>0.0</speed>
  <fix>3d</fix>
</trkpt>
<trkpt lat="33.8103132" lon="-118.3938674">
  <ele>-8.123</ele>
  <time>2026-09-01T01:17:42Z</time>
  <course>200.88</course>
  <speed>0.0282842712474619</speed>
  <fix>3d</fix>
</trkpt>
<trkpt lat="33.8103132" lon="-118.3938674">
  <ele>-8.119</ele>
  <time>2026-09-01T01:17:42Z</time>
  <course>201.19</course>
  <speed>0.0282842712474619</speed>
  <fix>3d</fix>
</trkpt>
<trkpt lat="33.810313" lon="-118.3938673">
  <ele>-7.71</ele>
  <time>2026-09-01T01:17:42Z</time>
  <course>280.23</course>
  <speed>0.0</speed>
  <fix>3d</fix>
</trkpt>
<trkpt lat="33.8103132" lon="-118.3938674">
  <ele>-8.118</ele>
  <time>2026-09-01T01:17:42Z</time>
  <course>201.24</course>
  <speed>0.0282842712474619</speed>
  <fix>3d</fix>
</trkpt>
<trkpt lat="33.8103132" lon="-118.3938674">
  <ele>-8.11</ele>
  <time>2026-09-01T01:17:42Z</time>
  <course>201.53</course>
  <speed>0.0282842712474619</speed>
  <fix>3d</fix>
</trkpt>
<trkpt lat="33.810313" lon="-118.3938673">
  <ele>-7.71</ele>
  <time>2026-09-01T01:17:42Z</time>
  <course>280.23</course>
  <speed>0.0</speed>
  <fix>3d</fix>
</trkpt>
<trkpt lat="33.8103132" lon="-118.3938674">
  <ele>-8.108</ele>
  <time>2026-09-01T01:17:42Z</time>
  <course>201.59</course>
  <speed>0.0282842712474619</speed>
  <fix>3d</fix>
</trkpt>
<trkpt lat="33.8103132" lon="-118.3938674">
  <ele>-8.094</ele>
  <time>2026-09-01T01:17:42Z</time>
  <course>201.88</course>
  <speed>0.0282842712474619</speed>
  <fix>3d</fix>
</trkpt>
<trkpt lat="33.810313" lon="-118.3938673">
  <ele>-7.68</ele>
  <time>2026-09-01T01:17:42Z</time>
  <course>280.47</course>
  <speed>0.0</speed>
  <fix>3d</fix>
</trkpt>
<trkpt lat="33.8103132" lon="-118.3938674">
  <ele>-8.089</ele>
  <time>2026-09-01T01:17:42Z</time>
  <course>201.95</course>
  <speed>0.0282842712474619</speed>
  <fix>3d</fix>
</trkpt>
<trkpt lat="33.8103132" lon="-118.3938675">
  <ele>-8.076</ele>
  <time>2026-09-01T01:17:42Z</time>
  <course>202.23</course>
  <speed>0.0282842712474619</speed>
  <fix>3d</fix>
</trkpt>
<trkpt lat="33.810313" lon="-118.3938673">
  <ele>-7.68</ele>
  <time>2026-09-01T01:17:42Z</time>
  <course>280.47</course>
  <speed>0.0</speed>
  <fix>3d</fix>
</trkpt>
<trkpt lat="33.8103132" lon="-118.3938675">
  <ele>-8.072</ele>
  <time>2026-09-01T01:17:42Z</time>
  <course>202.31</course>
  <speed>0.0282842712474619</speed>
  <fix>3d</fix>
</trkpt>
<trkpt lat="33.8103132" lon="-118.3938675">
  <ele>-8.055</ele>
  <time>2026-09-01T01:17:42Z</time>
  <course>202.58</course>
  <speed>0.0282842712474619</speed>
  <fix>3d</fix>
</trkpt>
<trkpt lat="33.810313" lon="-118.3938674">
  <ele>-7.64</ele>
  <time>2026-09-01T01:17:42Z</time>
  <course>280.72</course>
  <speed>0.0</speed>
  <fix>3d</fix>
</trkpt>
<trkpt lat="33.8103132" lon="-118.3938675">
  <ele>-8.048</ele>
  <time>2026-09-01T01:17:42Z</time>
  <course>202.66</course>
  <speed>0.0282842712474619</speed>
  <fix>3d</fix>
</trkpt>
<trkpt lat="33.8103132" lon="-118.3938675">
  <ele>-8.026</ele>
  <time>2026-09-01T01:17:42Z</time>
  <course>202.94</course>
  <speed>0.0282842712474619</speed>
  <fix>3d</fix>
</trkpt>
<trkpt lat="33.810313" lon="-118.3938674">
  <ele>-7.64</ele>
  <time>2026-09-01T01:17:42Z</time>
  <course>280.72</course>
  <speed>0.0</speed>
  <fix>3d</fix>
</trkpt>
<trkpt lat="33.8103132" lon="-118.3938675">
  <ele>-8.019</ele>
  <time>2026-09-01T01:17:43Z</time>
  <course>203.02</course>
  <speed>0.0282842712474619</speed>
  <fix>3d</fix>
</trkpt>
<trkpt lat="33.8103132" lon="-118.3938675">
  <ele>-7.994</ele>
  <time>2026-09-01T01:17:43Z</time>
  <course>203.3</course>
  <speed>0.0282842712474619</speed>
  <fix>3d</fix>
</trkpt>
<trkpt lat="33.810313" lon="-118.3938674">
  <ele>-7.61</ele>
  <time>2026-09-01T01:17:43Z</time>
  <course>280.99</course>
  <speed>0.0</speed>
  <fix>3d</fix>
</trkpt>
<trkpt lat="33.8103132" lon="-118.3938675">
  <ele>-7.986</ele>
  <time>2026-09-01T01:17:43Z</time>
  <course>203.37</course>
  <speed>0.0282842712474619</speed>
  <fix>3d</fix>
</trkpt>
<trkpt lat="33.8103132" lon="-118.3938675">
  <ele>-7.958</ele>
  <time>2026-09-01T01:17:43Z</time>
  <course>203.66</course>
  <speed>0.0282842712474619</speed>
  <fix>3d</fix>
</trkpt>
<trkpt lat="33.810313" lon="-118.3938674">
  <ele>-7.61</ele>
  <time>2026-09-01T01:17:43Z</time>
  <course>280.99</course>
  <speed>0.0</speed>
  <fix>3d</fix>
</trkpt>
<trkpt lat="33.8103132" lon="-118.3938675">
  <ele>-7.949</ele>
  <time>2026-09-01T01:17:43Z</time>
  <course>203.73</course>
  <speed>0.0282842712474619</speed>
  <fix>3d</fix>
</trkpt>
<trkpt lat="33.8103132" lon="-118.3938675">
  <ele>-7.915</ele>
  <time>2026-09-01T01:17:43Z</time>
  <course>204.03</course>
  <speed>0.0282842712474619</speed>
  <fix>3d</fix>
</trkpt>
<trkpt lat="33.810313" lon="-118.3938674">
  <ele>-7.58</ele>
  <time>2026-09-01T01:17:43Z</time>
  <course>281.27</course>
  <speed>0.0</speed>
  <fix>3d</fix>
</trkpt>
<trkpt lat="33.8103132" lon="-118.3938675">
  <ele>-7.915</ele>
  <time>2026-09-01T01:17:43Z</time>
  <course>204.03</course>
  <speed>0.0282842712474619</speed>
  <fix>3d</fix>
</trkpt>
<trkpt lat="33.8103132" lon="-118.3938675">
  <ele>-7.882</ele>
  <time>2026-09-01T01:17:43Z</time>
  <course>204.39</course>
  <speed>0.0282842712474619</speed>
  <fix>3d</fix>
</trkpt>
<trkpt lat="33.810313" lon="-118.3938674">
  <ele>-7.58</ele>
  <time>2026-09-01T01:17:43Z</time>
  <course>281.27</course>
  <speed>0.0</speed>
  <fix>3d</fix>
</trkpt>
<trkpt lat="33.8103132" lon="-118.3938675">
  <ele>-7.875</ele>
  <time>2026-09-01T01:17:43Z</time>
  <course>204.48</course>
  <speed>0.0282842712474619</speed>
  <fix>3d</fix>
</trkpt>
<trkpt lat="33.8103132" lon="-118.3938675">
  <ele>-7.855</ele>
  <time>2026-09-01T01:17:43Z</time>
  <course>204.76</course>
  <speed>0.0282842712474619</speed>
  <fix>3d</fix>
</trkpt>
<trkpt lat="33.810313" lon="-118.3938674">
  <ele>-7.55</ele>
  <time>2026-09-01T01:17:43Z</time>
  <course>281.54</course>
  <speed>0.0</speed>
  <fix>3d</fix>
</trkpt>
<trkpt lat="33.8103132" lon="-118.3938675">
  <ele>-7.849</ele>
  <time>2026-09-01T01:17:43Z</time>
  <course>204.84</course>
  <speed>0.0282842712474619</speed>
  <fix>3d</fix>
</trkpt>
<trkpt lat="33.8103132" lon="-118.3938675">
  <ele>-7.832</ele>
  <time>2026-09-01T01:17:43Z</time>
  <course>205.13</course>
  <speed>0.0282842712474619</speed>
  <fix>3d</fix>
</trkpt>
<trkpt lat="33.810313" lon="-118.3938674">
  <ele>-7.55</ele>
  <time>2026-09-01T01:17:43Z</time>
  <course>281.54</course>
  <speed>0.0</speed>
  <fix>3d</fix>
</trkpt>
<trkpt lat="33.8103132" lon="-118.3938675">
  <ele>-7.827</ele>
  <time>2026-09-01T01:17:43Z</time>
  <course>205.21</course>
  <speed>0.0282842712474619</speed>
  <fix>3d</fix>
</trkpt>
<trkpt lat="33.8103132" lon="-118.3938675">
  <ele>-7.81</ele>
  <time>2026-09-01T01:17:43Z</time>
  <course>205.51</course>
  <speed>0.0282842712474619</speed>
  <fix>3d</fix>
</trkpt>
<trkpt lat="33.810313" lon="-118.3938674">
  <ele>-7.52</ele>
  <time>2026-09-01T01:17:43Z</time>
  <course>281.8</course>
  <speed>0.0</speed>
  <fix>3d</fix>
</trkpt>
<trkpt lat="33.8103132" lon="-118.3938675">
  <ele>-7.806</ele>
  <time>2026-09-01T01:17:43Z</time>
  <course>205.57</course>
  <speed>0.0282842712474619</speed>
  <fix>3d</fix>
</trkpt>
<trkpt lat="33.8103132" lon="-118.3938675">
  <ele>-7.789</ele>
  <time>2026-09-01T01:17:43Z</time>
  <course>205.88</course>
  <speed>0.0282842712474619</speed>
  <fix>3d</fix>
</trkpt>
<trkpt lat="33.810313" lon="-118.3938674">
  <ele>-7.52</ele>
  <time>2026-09-01T01:17:43Z</time>
  <course>281.8</course>
  <speed>0.0</speed>
  <fix>3d</fix>
</trkpt>
<trkpt lat="33.8103132" lon="-118.3938675">
  <ele>-7.787</ele>
  <time>2026-09-01T01:17:43Z</time>
  <course>205.94</course>
  <speed>0.0282842712474619</speed>
  <fix>3d</fix>
</trkpt>
<trkpt lat="33.8103132" lon="-118.3938675">
  <ele>-7.772</ele>
  <time>2026-09-01T01:17:43Z</time>
  <course>206.26</course>
  <speed>0.0282842712474619</speed>
  <fix>3d</fix>
</trkpt>
<trkpt lat="33.810313" lon="-118.3938674">
  <ele>-7.48</ele>
  <time>2026-09-01T01:17:43Z</time>
  <course>282.07</course>
  <speed>0.0</speed>
  <fix>3d</fix>
</trkpt>
<trkpt lat="33.8103132" lon="-118.3938675">
  <ele>-7.77</ele>
  <time>2026-09-01T01:17:43Z</time>
  <course>206.31</course>
  <speed>0.0282842712474619</speed>
  <fix>3d</fix>
</trkpt>
<trkpt lat="33.8103132" lon="-118.3938675">
  <ele>-7.754</ele>
  <time>2026-09-01T01:17:43Z</time>
  <course>206.64</course>
  <speed>0.0282842712474619</speed>
  <fix>3d</fix>
</trkpt>
<trkpt lat="33.810313" lon="-118.3938674">
  <ele>-7.48</ele>
  <time>2026-09-01T01:17:43Z</time>
  <course>282.07</course>
  <speed>0.0</speed>
  <fix>3d</fix>
</trkpt>
<trkpt lat="33.8103132" lon="-118.3938675">
  <ele>-7.753</ele>
  <time>2026-09-01T01:17:43Z</time>
  <course>206.67</course>
  <speed>0.0282842712474619</speed>
  <fix>3d</fix>
</trkpt>
<trkpt lat="33.8103132" lon="-118.3938676">
  <ele>-7.736</ele>
  <time>2026-09-01T01:17:43Z</time>
  <course>207.03</course>
  <speed>0.0282842712474619</speed>
  <fix>3d</fix>
</trkpt>
<trkpt lat="33.810313" lon="-118.3938675">
  <ele>-7.45</ele>
  <time>2026-09-01T01:17:43Z</time>
  <course>282.35</course>
  <speed>0.0</speed>
  <fix>3d</fix>
</trkpt>
<trkpt lat="33.8103132" lon="-118.3938676">
  <ele>-7.736</ele>
  <time>2026-09-01T01:17:43Z</time>
  <course>207.05</course>
  <speed>0.0282842712474619</speed>
  <fix>3d</fix>
</trkpt>
<trkpt lat="33.8103132" lon="-118.3938676">
  <ele>-7.725</ele>
  <time>2026-09-01T01:17:43Z</time>
  <course>207.42</course>
  <speed>0.0282842712474619</speed>
  <fix>3d</fix>
</trkpt>
<trkpt lat="33.810313" lon="-118.3938675">
  <ele>-7.45</ele>
  <time>2026-09-01T01:17:43Z</time>
  <course>282.35</course>
  <speed>0.0</speed>
  <fix>3d</fix>
</trkpt>
<trkpt lat="33.8103132" lon="-118.3938676">
  <ele>-7.725</ele>
  <time>2026-09-01T01:17:43Z</time>
  <course>207.43</course>
  <speed>0.0282842712474619</speed>
  <fix>3d</fix>
</trkpt>
<trkpt lat="33.8103132" lon="-118.3938676">
  <ele>-7.722</ele>
  <time>2026-09-01T01:17:43Z</time>
  <course>207.81</course>
  <speed>0.0282842712474619</speed>
  <fix>3d</fix>
</trkpt>
<trkpt lat="33.810313" lon="-118.3938675">
  <ele>-7.42</ele>
  <time>2026-09-01T01:17:43Z</time>
  <course>282.65</course>
  <speed>0.0</speed>
  <fix>3d</fix>
</trkpt>
<trkpt lat="33.8103132" lon="-118.3938676">
  <ele>-7.721</ele>
  <time>2026-09-01T01:17:43Z</time>
  <course>207.82</course>
  <speed>0.0282842712474619</speed>
  <fix>3d</fix>
</trkpt>
<trkpt lat="33.8103132" lon="-118.3938676">
  <ele>-7.71</ele>
  <time>2026-09-01T01:17:43Z</time>
  <course>208.2</course>
  <speed>0.0282842712474619</speed>
  <fix>3d</fix>
</trkpt>
<trkpt lat="33.810313" lon="-118.3938675">
  <ele>-7.42</ele>
  <time>2026-09-01T01:17:43Z</time>
  <course>282.65</course>
  <speed>0.0</speed>
  <fix>3d</fix>
</trkpt>
<trkpt lat="33.8103132" lon="-118.3938676">
  <ele>-7.709</ele>
  <time>2026-09-01T01:17:43Z</time>
  <course>208.23</course>
  <speed>0.0282842712474619</speed>
  <fix>3d</fix>
</trkpt>
<trkpt lat="33.8103132" lon="-118.3938676">
  <ele>-7.691</ele>
  <time>2026-09-01T01:17:43Z</time>
  <course>208.59</course>
  <speed>0.0282842712474619</speed>
  <fix>3d</fix>
</trkpt>
<trkpt lat="33.810313" lon="-118.3938675">
  <ele>-7.39</ele>
  <time>2026-09-01T01:17:43Z</time>
  <course>282.96</course>
  <speed>0.0</speed>
  <fix>3d</fix>
</trkpt>
<trkpt lat="33.8103132" lon="-118.3938676">
  <ele>-7.69</ele>
  <time>2026-09-01T01:17:43Z</time>
  <course>208.61</course>
  <speed>0.0282842712474619</speed>
  <fix>3d</fix>
</trkpt>
<trkpt lat="33.8103132" lon="-118.3938676">
  <ele>-7.671</ele>
  <time>2026-09-01T01:17:43Z</time>
  <course>208.99</course>
  <speed>0.0282842712474619</speed>
  <fix>3d</fix>
</trkpt>
<trkpt lat="33.810313" lon="-118.3938675">
  <ele>-7.39</ele>
  <time>2026-09-01T01:17:43Z</time>
  <course>282.96</course>
  <speed>0.0</speed>
  <fix>3d</fix>
</trkpt>
<trkpt lat="33.8103132" lon="-118.3938676">
  <ele>-7.667</ele>
  <time>2026-09-01T01:17:43Z</time>
  <course>209.09</course>
  <speed>0.0282842712474619</speed>
  <fix>3d</fix>
</trkpt>
<trkpt lat="33.8103132" lon="-118.3938676">
  <ele>-7.65</ele>
  <time>2026-09-01T01:17:43Z</time>
  <course>209.39</course>
  <speed>0.0282842712474619</speed>
  <fix>3d</fix>
</trkpt>
<trkpt lat="33.810313" lon="-118.3938675">
  <ele>-7.35</ele>
  <time>2026-09-01T01:17:43Z</time>
  <course>283.27</course>
  <speed>0.0</speed>
  <fix>3d</fix>
</trkpt>
<trkpt lat="33.8103132" lon="-118.3938676">
  <ele>-7.645</ele>
  <time>2026-09-01T01:17:43Z</time>
  <course>209.48</course>
  <speed>0.0282842712474619</speed>
  <fix>3d</fix>
</trkpt>
<trkpt lat="33.8103132" lon="-118.3938676">
  <ele>-7.626</ele>
  <time>2026-09-01T01:17:43Z</time>
  <course>209.79</course>
  <speed>0.0282842712474619</speed>
  <fix>3d</fix>
</trkpt>
<trkpt lat="33.810313" lon="-118.3938675">
  <ele>-7.35</ele>
  <time>2026-09-01T01:17:43Z</time>
  <course>283.27</course>
  <speed>0.0</speed>
  <fix>3d</fix>
</trkpt>
<trkpt lat="33.8103132" lon="-118.3938676">
  <ele>-7.622</ele>
  <time>2026-09-01T01:17:43Z</time>
  <course>209.86</course>
  <speed>0.0282842712474619</speed>
  <fix>3d</fix>
</trkpt>
<trkpt lat="33.8103132" lon="-118.3938676">
  <ele>-7.601</ele>
  <time>2026-09-01T01:17:43Z</time>
  <course>210.2</course>
  <speed>0.0282842712474619</speed>
  <fix>3d</fix>
</trkpt>
<trkpt lat="33.810313" lon="-118.3938675">
  <ele>-7.32</ele>
  <time>2026-09-01T01:17:43Z</time>
  <course>283.59</course>
  <speed>0.0</speed>
  <fix>3d</fix>
</trkpt>
<trkpt lat="33.8103132" lon="-118.3938676">
  <ele>-7.597</ele>
  <time>2026-09-01T01:17:43Z</time>
  <course>210.26</course>
  <speed>0.0282842712474619</speed>
  <fix>3d</fix>
</trkpt>
<trkpt lat="33.8103132" lon="-118.3938676">
  <ele>-7.574</ele>
  <time>2026-09-01T01:17:43Z</time>
  <course>210.6</course>
  <speed>0.0282842712474619</speed>
  <fix>3d</fix>
</trkpt>
<trkpt lat="33.810313" lon="-118.3938675">
  <ele>-7.32</ele>
  <time>2026-09-01T01:17:43Z</time>
  <course>283.59</course>
  <speed>0.0</speed>
  <fix>3d</fix>
</trkpt>
<trkpt lat="33.8103132" lon="-118.3938677">
  <ele>-7.572</ele>
  <time>2026-09-01T01:17:43Z</time>
  <course>210.64</course>
  <speed>0.0282842712474619</speed>
  <fix>3d</fix>
</trkpt>
<trkpt lat="33.8103132" lon="-118.3938677">
  <ele>-7.547</ele>
  <time>2026-09-01T01:17:43Z</time>
  <course>211.01</course>
  <speed>0.0282842712474619</speed>
  <fix>3d</fix>
</trkpt>
<trkpt lat="33.810313" lon="-118.3938675">
  <ele>-7.29</ele>
  <time>2026-09-01T01:17:43Z</time>
  <course>283.93</course>
  <speed>0.0</speed>
  <fix>3d</fix>
</trkpt>
<trkpt lat="33.8103132" lon="-118.3938677">
  <ele>-7.543</ele>
  <time>2026-09-01T01:17:43Z</time>
  <course>211.07</course>
  <speed>0.0282842712474619</speed>
  <fix>3d</fix>
</trkpt>
<trkpt lat="33.8103132" lon="-118.3938677">
  <ele>-7.526</ele>
  <time>2026-09-01T01:17:43Z</time>
  <course>211.42</course>
  <speed>0.0282842712474619</speed>
  <fix>3d</fix>
</trkpt>
<trkpt lat="33.810313" lon="-118.3938675">
  <ele>-7.29</ele>
  <time>2026-09-01T01:17:43Z</time>
  <course>283.93</course>
  <speed>0.0</speed>
  <fix>3d</fix>
</trkpt>
<trkpt lat="33.8103132" lon="-118.3938677">
  <ele>-7.523</ele>
  <time>2026-09-01T01:17:43Z</time>
  <course>211.47</course>
  <speed>0.0282842712474619</speed>
  <fix>3d</fix>
</trkpt>
<trkpt lat="33.8103132" lon="-118.3938677">
  <ele>-7.507</ele>
  <time>2026-09-01T01:17:43Z</time>
  <course>211.83</course>
  <speed>0.0282842712474619</speed>
  <fix>3d</fix>
</trkpt>
<trkpt lat="33.810313" lon="-118.3938676">
  <ele>-7.26</ele>
  <time>2026-09-01T01:17:43Z</time>
  <course>284.29</course>
  <speed>0.0</speed>
  <fix>3d</fix>
</trkpt>
<trkpt lat="33.8103132" lon="-118.3938677">
  <ele>-7.506</ele>
  <time>2026-09-01T01:17:43Z</time>
  <course>211.87</course>
  <speed>0.0282842712474619</speed>
  <fix>3d</fix>
</trkpt>
<trkpt lat="33.8103132" lon="-118.3938677">
  <ele>-7.488</ele>
  <time>2026-09-01T01:17:43Z</time>
  <course>212.25</course>
  <speed>0.0282842712474619</speed>
  <fix>3d</fix>
</trkpt>
<trkpt lat="33.810313" lon="-118.3938676">
  <ele>-7.26</ele>
  <time>2026-09-01T01:17:43Z</time>
  <course>284.29</course>
  <speed>0.0</speed>
  <fix>3d</fix>
</trkpt>
<trkpt lat="33.8103132" lon="-118.3938677">
  <ele>-7.487</ele>
  <time>2026-09-01T01:17:43Z</time>
  <course>212.26</course>
  <speed>0.0282842712474619</speed>
  <fix>3d</fix>
</trkpt>
<trkpt lat="33.8103132" lon="-118.3938677">
  <ele>-7.473</ele>
  <time>2026-09-01T01:17:43Z</time>
  <course>212.67</course>
  <speed>0.0282842712474619</speed>
  <fix>3d</fix>
</trkpt>
<trkpt lat="33.810313" lon="-118.3938676">
  <ele>-7.22</ele>
  <time>2026-09-01T01:17:43Z</time>
  <course>284.68</course>
  <speed>0.0</speed>
  <fix>3d</fix>
</trkpt>
<trkpt lat="33.8103132" lon="-118.3938677">
  <ele>-7.472</ele>
  <time>2026-09-01T01:17:43Z</time>
  <course>212.71</course>
  <speed>0.0282842712474619</speed>
  <fix>3d</fix>
</trkpt>
<trkpt lat="33.8103132" lon="-118.3938677">
  <ele>-7.47</ele>
  <time>2026-09-01T01:17:43Z</time>
  <course>213.09</course>
  <speed>0.0282842712474619</speed>
  <fix>3d</fix>
</trkpt>
<trkpt lat="33.810313" lon="-118.3938676">
  <ele>-7.22</ele>
  <time>2026-09-01T01:17:43Z</time>
  <course>284.68</course>
  <speed>0.0</speed>
  <fix>3d</fix>
</trkpt>
<trkpt lat="33.8103132" lon="-118.3938677">
  <ele>-7.471</ele>
  <time>2026-09-01T01:17:43Z</time>
  <course>213.12</course>
  <speed>0.0282842712474619</speed>
  <fix>3d</fix>
</trkpt>
<trkpt lat="33.8103132" lon="-118.3938677">
  <ele>-7.479</ele>
  <time>2026-09-01T01:17:43Z</time>
  <course>213.51</course>
  <speed>0.0282842712474619</speed>
  <fix>3d</fix>
</trkpt>
<trkpt lat="33.810313" lon="-118.3938676">
  <ele>-7.19</ele>
  <time>2026-09-01T01:17:43Z</time>
  <course>285.11</course>
  <speed>0.0</speed>
  <fix>3d</fix>
</trkpt>
<trkpt lat="33.8103132" lon="-118.3938677">
  <ele>-7.478</ele>
  <time>2026-09-01T01:17:43Z</time>
  <course>213.54</course>
  <speed>0.0282842712474619</speed>
  <fix>3d</fix>
</trkpt>
<trkpt lat="33.8103132" lon="-118.3938677">
  <ele>-7.483</ele>
  <time>2026-09-01T01:17:43Z</time>
  <course>213.93</course>
  <speed>0.0282842712474619</speed>
  <fix>3d</fix>
</trkpt>
<trkpt lat="33.810313" lon="-118.3938676">
  <ele>-7.19</ele>
  <time>2026-09-01T01:17:43Z</time>
  <course>285.11</course>
  <speed>0.0</speed>
  <fix>3d</fix>
</trkpt>
<trkpt lat="33.8103132" lon="-118.3938677">
  <ele>-7.483</ele>
  <time>2026-09-01T01:17:43Z</time>
  <course>214.05</course>
  <speed>0.0282842712474619</speed>
  <fix>3d</fix>
</trkpt>
<trkpt lat="33.8103132" lon="-118.3938677">
  <ele>-7.482</ele>
  <time>2026-09-01T01:17:43Z</time>
  <course>214.36</course>
  <speed>0.0282842712474619</speed>
  <fix>3d</fix>
</trkpt>
<trkpt lat="33.810313" lon="-118.3938676">
  <ele>-7.16</ele>
  <time>2026-09-01T01:17:43Z</time>
  <course>285.55</course>
  <speed>0.0</speed>
  <fix>3d</fix>
</trkpt>
<trkpt lat="33.8103132" lon="-118.3938677">
  <ele>-7.481</ele>
  <time>2026-09-01T01:17:43Z</time>
  <course>214.46</course>
  <speed>0.0282842712474619</speed>
  <fix>3d</fix>
</trkpt>
<trkpt lat="33.8103132" lon="-118.3938678">
  <ele>-7.478</ele>
  <time>2026-09-01T01:17:43Z</time>
  <course>214.8</course>
  <speed>0.0282842712474619</speed>
  <fix>3d</fix>
</trkpt>
<trkpt lat="33.810313" lon="-118.3938676">
  <ele>-7.16</ele>
  <time>2026-09-01T01:17:43Z</time>
  <course>285.55</course>
  <speed>0.0</speed>
  <fix>3d</fix>
</trkpt>
<trkpt lat="33.8103132" lon="-118.3938678">
  <ele>-7.478</ele>
  <time>2026-09-01T01:17:43Z</time>
  <course>214.88</course>
  <speed>0.0282842712474619</speed>
  <fix>3d</fix>
</trkpt>
<trkpt lat="33.8103132" lon="-118.3938678">
  <ele>-7.473</ele>
  <time>2026-09-01T01:17:43Z</time>
  <course>215.23</course>
  <speed>0.0282842712474619</speed>
  <fix>3d</fix>
</trkpt>
<trkpt lat="33.810313" lon="-118.3938676">
  <ele>-7.13</ele>
  <time>2026-09-01T01:17:43Z</time>
  <course>285.97</course>
  <speed>0.01</speed>
  <fix>3d</fix>
</trkpt>
<trkpt lat="33.8103132" lon="-118.3938678">
  <ele>-7.472</ele>
  <time>2026-09-01T01:17:43Z</time>
  <course>215.32</course>
  <speed>0.0282842712474619</speed>
  <fix>3d</fix>
</trkpt>
<trkpt lat="33.8103132" lon="-118.3938678">
  <ele>-7.468</ele>
  <time>2026-09-01T01:17:43Z</time>
  <course>215.67</course>
  <speed>0.0282842712474619</speed>
  <fix>3d</fix>
</trkpt>
<trkpt lat="33.810313" lon="-118.3938676">
  <ele>-7.13</ele>
  <time>2026-09-01T01:17:43Z</time>
  <course>285.97</course>
  <speed>0.01</speed>
  <fix>3d</fix>
</trkpt>
<trkpt lat="33.8103132" lon="-118.3938678">
  <ele>-7.466</ele>
  <time>2026-09-01T01:17:43Z</time>
  <course>215.75</course>
  <speed>0.0282842712474619</speed>
  <fix>3d</fix>
</trkpt>
<trkpt lat="33.8103132" lon="-118.3938678">
  <ele>-7.453</ele>
  <time>2026-09-01T01:17:43Z</time>
  <course>216.11</course>
  <speed>0.0282842712474619</speed>
  <fix>3d</fix>
</trkpt>
<trkpt lat="33.8103131" lon="-118.3938677">
  <ele>-7.1</ele>
  <time>2026-09-01T01:17:43Z</time>
  <course>286.36</course>
  <speed>0.01</speed>
  <fix>3d</fix>
</trkpt>
<trkpt lat="33.8103132" lon="-118.3938678">
  <ele>-7.45</ele>
  <time>2026-09-01T01:17:43Z</time>
  <course>216.17</course>
  <speed>0.0282842712474619</speed>
  <fix>3d</fix>
</trkpt>
<trkpt lat="33.8103132" lon="-118.3938678">
  <ele>-7.434</ele>
  <time>2026-09-01T01:17:43Z</time>
  <course>216.55</course>
  <speed>0.0282842712474619</speed>
  <fix>3d</fix>
</trkpt>
<trkpt lat="33.8103131" lon="-118.3938677">
  <ele>-7.1</ele>
  <time>2026-09-01T01:17:43Z</time>
  <course>286.36</course>
  <speed>0.01</speed>
  <fix>3d</fix>
</trkpt>
<trkpt lat="33.8103132" lon="-118.3938678">
  <ele>-7.434</ele>
  <time>2026-09-01T01:17:43Z</time>
  <course>216.56</course>
  <speed>0.0282842712474619</speed>
  <fix>3d</fix>
</trkpt>
<trkpt lat="33.8103132" lon="-118.3938678">
  <ele>-7.418</ele>
  <time>2026-09-01T01:17:43Z</time>
  <course>217.0</course>
  <speed>0.0282842712474619</speed>
  <fix>3d</fix>
</trkpt>
<trkpt lat="33.8103131" lon="-118.3938677">
  <ele>-7.07</ele>
  <time>2026-09-01T01:17:43Z</time>
  <course>286.75</course>
  <speed>0.01</speed>
  <fix>3d</fix>
</trkpt>
<trkpt lat="33.8103132" lon="-118.3938678">
  <ele>-7.415</ele>
  <time>2026-09-01T01:17:43Z</time>
  <course>217.07</course>
  <speed>0.0282842712474619</speed>
  <fix>3d</fix>
</trkpt>
<trkpt lat="33.8103132" lon="-118.3938678">
  <ele>-7.406</ele>
  <time>2026-09-01T01:17:43Z</time>
  <course>217.44</course>
  <speed>0.0282842712474619</speed>
  <fix>3d</fix>
</trkpt>
<trkpt lat="33.8103131" lon="-118.3938677">
  <ele>-7.07</ele>
  <time>2026-09-01T01:17:43Z</time>
  <course>286.75</course>
  <speed>0.01</speed>
  <fix>3d</fix>
</trkpt>
<trkpt lat="33.8103132" lon="-118.3938678">
  <ele>-7.404</ele>
  <time>2026-09-01T01:17:43Z</time>
  <course>217.5</course>
  <speed>0.0282842712474619</speed>
  <fix>3d</fix>
</trkpt>
<trkpt lat="33.8103132" lon="-118.3938678">
  <ele>-7.396</ele>
  <time>2026-09-01T01:17:43Z</time>
  <course>217.89</course>
  <speed>0.0282842712474619</speed>
  <fix>3d</fix>
</trkpt>
<trkpt lat="33.8103131" lon="-118.3938677">
  <ele>-7.04</ele>
  <time>2026-09-01T01:17:43Z</time>
  <course>287.13</course>
  <speed>0.01</speed>
  <fix>3d</fix>
</trkpt>
<trkpt lat="33.8103132" lon="-118.3938678">
  <ele>-7.395</ele>
  <time>2026-09-01T01:17:43Z</time>
  <course>217.94</course>
  <speed>0.0282842712474619</speed>
  <fix>3d</fix>
</trkpt>
<trkpt lat="33.8103132" lon="-118.3938678">
  <ele>-7.391</ele>
  <time>2026-09-01T01:17:43Z</time>
  <course>218.34</course>
  <speed>0.0282842712474619</speed>
  <fix>3d</fix>
</trkpt>
<trkpt lat="33.8103131" lon="-118.3938677">
  <ele>-7.04</ele>
  <time>2026-09-01T01:17:43Z</time>
  <course>287.13</course>
  <speed>0.01</speed>
  <fix>3d</fix>
</trkpt>
<trkpt lat="33.8103132" lon="-118.3938678">
  <ele>-7.391</ele>
  <time>2026-09-01T01:17:43Z</time>
  <course>218.37</course>
  <speed>0.0282842712474619</speed>
  <fix>3d</fix>
</trkpt>
<trkpt lat="33.8103132" lon="-118.3938678">
  <ele>-7.391</ele>
  <time>2026-09-01T01:17:43Z</time>
  <course>218.79</course>
  <speed>0.0282842712474619</speed>
  <fix>3d</fix>
</trkpt>
<trkpt lat="33.8103131" lon="-118.3938677">
  <ele>-7.0</ele>
  <time>2026-09-01T01:17:43Z</time>
  <course>287.49</course>
  <speed>0.01</speed>
  <fix>3d</fix>
</trkpt>
<trkpt lat="33.8103132" lon="-118.3938678">
  <ele>-7.391</ele>
  <time>2026-09-01T01:17:43Z</time>
  <course>218.8</course>
  <speed>0.0282842712474619</speed>
  <fix>3d</fix>
</trkpt>
<trkpt lat="33.8103132" lon="-118.3938679">
  <ele>-7.392</ele>
  <time>2026-09-01T01:17:43Z</time>
  <course>219.24</course>
  <speed>0.0282842712474619</speed>
  <fix>3d</fix>
</trkpt>
<trkpt lat="33.8103131" lon="-118.3938677">
  <ele>-7.0</ele>
  <time>2026-09-01T01:17:43Z</time>
  <course>287.49</course>
  <speed>0.01</speed>
  <fix>3d</fix>
</trkpt>
<trkpt lat="33.8103132" lon="-118.3938679">
  <ele>-7.391</ele>
  <time>2026-09-01T01:17:43Z</time>
  <course>219.27</course>
  <speed>0.0282842712474619</speed>
  <fix>3d</fix>
</trkpt>
<trkpt lat="33.8103132" lon="-118.3938679">
  <ele>-7.393</ele>
  <time>2026-09-01T01:17:44Z</time>
  <course>219.69</course>
  <speed>0.0282842712474619</speed>
  <fix>3d</fix>
</trkpt>
<trkpt lat="33.8103131" lon="-118.3938678">
  <ele>-6.97</ele>
  <time>2026-09-01T01:17:44Z</time>
  <course>287.85</course>
  <speed>0.01</speed>
  <fix>3d</fix>
</trkpt>
<trkpt lat="33.8103132" lon="-118.3938679">
  <ele>-7.393</ele>
  <time>2026-09-01T01:17:44Z</time>
  <course>219.72</course>
  <speed>0.0282842712474619</speed>
  <fix>3d</fix>
</trkpt>
<trkpt lat="33.8103132" lon="-118.3938679">
  <ele>-7.395</ele>
  <time>2026-09-01T01:17:44Z</time>
  <course>220.15</course>
  <speed>0.0282842712474619</speed>
  <fix>3d</fix>
</trkpt>
<trkpt lat="33.8103131" lon="-118.3938678">
  <ele>-6.97</ele>
  <time>2026-09-01T01:17:44Z</time>
  <course>287.85</course>
  <speed>0.01</speed>
  <fix>3d</fix>
</trkpt>
<trkpt lat="33.8103132" lon="-118.3938679">
  <ele>-7.395</ele>
  <time>2026-09-01T01:17:44Z</time>
  <course>220.27</course>
  <speed>0.0282842712474619</speed>
  <fix>3d</fix>
</trkpt>
<trkpt lat="33.8103132" lon="-118.3938679">
  <ele>-7.389</ele>
  <time>2026-09-01T01:17:44Z</time>
  <course>220.61</course>
  <speed>0.0282842712474619</speed>
  <fix>3d</fix>
</trkpt>
<trkpt lat="33.8103131" lon="-118.3938678">
  <ele>-6.94</ele>
  <time>2026-09-01T01:17:44Z</time>
  <course>288.18</course>
  <speed>0.01</speed>
  <fix>3d</fix>
</trkpt>
<trkpt lat="33.8103132" lon="-118.3938679">
  <ele>-7.387</ele>
  <time>2026-09-01T01:17:44Z</time>
  <course>220.71</course>
  <speed>0.0282842712474619</speed>
  <fix>3d</fix>
</trkpt>
<trkpt lat="33.8103132" lon="-118.3938679">
  <ele>-7.375</ele>
  <time>2026-09-01T01:17:44Z</time>
  <course>221.07</course>
  <speed>0.0282842712474619</speed>
  <fix>3d</fix>
</trkpt>
<trkpt lat="33.8103131" lon="-118.3938678">
  <ele>-6.94</ele>
  <time>2026-09-01T01:17:44Z</time>
  <course>288.18</course>
  <speed>0.01</speed>
  <fix>3d</fix>
</trkpt>
<trkpt lat="33.8103132" lon="-118.3938679">
  <ele>-7.373</ele>
  <time>2026-09-01T01:17:44Z</time>
  <course>221.15</course>
  <speed>0.0282842712474619</speed>
  <fix>3d</fix>
</trkpt>
<trkpt lat="33.8103132" lon="-118.3938679">
  <ele>-7.355</ele>
  <time>2026-09-01T01:17:44Z</time>
  <course>221.53</course>
  <speed>0.0282842712474619</speed>
  <fix>3d</fix>
</trkpt>
<trkpt lat="33.8103131" lon="-118.3938678">
  <ele>-6.91</ele>
  <time>2026-09-01T01:17:44Z</time>
  <course>288.52</course>
  <speed>0.01</speed>
  <fix>3d</fix>
</trkpt>
<trkpt lat="33.8103132" lon="-118.3938679">
  <ele>-7.353</ele>
  <time>2026-09-01T01:17:44Z</time>
  <course>221.56</course>
  <speed>0.0282842712474619</speed>
  <fix>3d</fix>
</trkpt>
<trkpt lat="33.8103132" lon="-118.3938679">
  <ele>-7.328</ele>
  <time>2026-09-01T01:17:44Z</time>
  <course>222.0</course>
  <speed>0.0282842712474619</speed>
  <fix>3d</fix>
</trkpt>
<trkpt lat="33.8103131" lon="-118.3938678">
  <ele>-6.91</ele>
  <time>2026-09-01T01:17:44Z</time>
  <course>288.52</course>
  <speed>0.01</speed>
  <fix>3d</fix>
</trkpt>
<trkpt lat="33.8103132" lon="-118.3938679">
  <ele>-7.321</ele>
  <time>2026-09-01T01:17:44Z</time>
  <course>222.1</course>
  <speed>0.0282842712474619</speed>
  <fix>3d</fix>
</trkpt>
<trkpt lat="33.8103133" lon="-118.3938679">
  <ele>-7.297</ele>
  <time>2026-09-01T01:17:44Z</time>
  <course>222.47</course>
  <speed>0.0282842712474619</speed>
  <fix>3d</fix>
</trkpt>
<trkpt lat="33.8103131" lon="-118.3938678">
  <ele>-6.88</ele>
  <time>2026-09-01T01:17:44Z</time>
  <course>288.89</course>
  <speed>0.01</speed>
  <fix>3d</fix>
</trkpt>
<trkpt lat="33.8103133" lon="-118.3938679">
  <ele>-7.289</ele>
  <time>2026-09-01T01:17:44Z</time>
  <course>222.56</course>
  <speed>0.0282842712474619</speed>
  <fix>3d</fix>
</trkpt>
<trkpt lat="33.8103133" lon="-118.3938679">
  <ele>-7.265</ele>
  <time>2026-09-01T01:17:44Z</time>
  <course>222.94</course>
  <speed>0.0282842712474619</speed>
  <fix>3d</fix>
</trkpt>
<trkpt lat="33.8103131" lon="-118.3938678">
  <ele>-6.88</ele>
  <time>2026-09-01T01:17:44Z</time>
  <course>288.89</course>
  <speed>0.01</speed>
  <fix>3d</fix>
</trkpt>
<trkpt lat="33.8103133" lon="-118.3938679">
  <ele>-7.263</ele>
  <time>2026-09-01T01:17:44Z</time>
  <course>222.95</course>
  <speed>0.0282842712474619</speed>
  <fix>3d</fix>
</trkpt>
<trkpt lat="33.8103133" lon="-118.393868">
  <ele>-7.234</ele>
  <time>2026-09-01T01:17:44Z</time>
  <course>223.41</course>
  <speed>0.0282842712474619</speed>
  <fix>3d</fix>
</trkpt>
<trkpt lat="33.8103131" lon="-118.3938678">
  <ele>-6.85</ele>
  <time>2026-09-01T01:17:44Z</time>
  <course>289.25</course>
  <speed>0.01</speed>
  <fix>3d</fix>
</trkpt>
<trkpt lat="33.8103133" lon="-118.393868">
  <ele>-7.231</ele>
  <time>2026-09-01T01:17:44Z</time>
  <course>223.42</course>
  <speed>0.0282842712474619</speed>
  <fix>3d</fix>
</trkpt>
<trkpt lat="33.8103133" lon="-118.393868">
  <ele>-7.196</ele>
  <time>2026-09-01T01:17:44Z</time>
  <course>223.88</course>
  <speed>0.03605551275463989</speed>
  <fix>3d</fix>
</trkpt>
<trkpt lat="33.8103131" lon="-118.3938678">
  <ele>-6.85</ele>
  <time>2026-09-01T01:17:44Z</time>
  <course>289.25</course>
  <speed>0.01</speed>
  <fix>3d</fix>
</trkpt>
<trkpt lat="33.8103133" lon="-118.393868">
  <ele>-7.192</ele>
  <time>2026-09-01T01:17:44Z</time>
  <course>223.91</course>
  <speed>0.03605551275463989</speed>
  <fix>3d</fix>
</trkpt>
<trkpt lat="33.8103133" lon="-118.393868">
  <ele>-7.154</ele>
  <time>2026-09-01T01:17:44Z</time>
  <course>224.36</course>
  <speed>0.03605551275463989</speed>
  <fix>3d</fix>
</trkpt>
<trkpt lat="33.8103131" lon="-118.3938679">
  <ele>-6.82</ele>
  <time>2026-09-01T01:17:44Z</time>
  <course>289.6</course>
  <speed>0.01</speed>
  <fix>3d</fix>
</trkpt>
<trkpt lat="33.8103133" lon="-118.393868">
  <ele>-7.15</ele>
  <time>2026-09-01T01:17:44Z</time>
  <course>224.37</course>
  <speed>0.03605551275463989</speed>
  <fix>3d</fix>
</trkpt>
<trkpt lat="33.8103133" lon="-118.393868">
  <ele>-7.114</ele>
  <time>2026-09-01T01:17:44Z</time>
  <course>224.83</course>
  <speed>0.03605551275463989</speed>
  <fix>3d</fix>
</trkpt>
<trkpt lat="33.8103131" lon="-118.3938679">
  <ele>-6.82</ele>
  <time>2026-09-01T01:17:44Z</time>
  <course>289.6</course>
  <speed>0.01</speed>
  <fix>3d</fix>
</trkpt>
<trkpt lat="33.8103133" lon="-118.393868">
  <ele>-7.107</ele>
  <time>2026-09-01T01:17:44Z</time>
  <course>224.95</course>
  <speed>0.03605551275463989</speed>
  <fix>3d</fix>
</trkpt>
<trkpt lat="33.8103133" lon="-118.393868">
  <ele>-7.091</ele>
  <time>2026-09-01T01:17:44Z</time>
  <course>225.32</course>
  <speed>0.03605551275463989</speed>
  <fix>3d</fix>
</trkpt>
<trkpt lat="33.8103131" lon="-118.3938679">
  <ele>-6.78</ele>
  <time>2026-09-01T01:17:44Z</time>
  <course>289.96</course>
  <speed>0.01</speed>
  <fix>3d</fix>
</trkpt>
<trkpt lat="33.8103133" lon="-118.393868">
  <ele>-7.087</ele>
  <time>2026-09-01T01:17:44Z</time>
  <course>225.42</course>
  <speed>0.03605551275463989</speed>
  <fix>3d</fix>
</trkpt>
<trkpt lat="33.8103133" lon="-118.393868">
  <ele>-7.076</ele>
  <time>2026-09-01T01:17:44Z</time>
  <course>225.8</course>
  <speed>0.03605551275463989</speed>
  <fix>3d</fix>
</trkpt>
<trkpt lat="33.8103131" lon="-118.3938679">
  <ele>-6.78</ele>
  <time>2026-09-01T01:17:44Z</time>
  <course>289.96</course>
  <speed>0.01</speed>
  <fix>3d</fix>
</trkpt>
<trkpt lat="33.8103133" lon="-118.393868">
  <ele>-7.073</ele>
  <time>2026-09-01T01:17:44Z</time>
  <course>225.88</course>
  <speed>0.03605551275463989</speed>
  <fix>3d</fix>
</trkpt>
<trkpt lat="33.8103133" lon="-118.393868">
  <ele>-7.067</ele>
  <time>2026-09-01T01:17:44Z</time>
  <course>226.28</course>
  <speed>0.03605551275463989</speed>
  <fix>3d</fix>
</trkpt>
<trkpt lat="33.8103131" lon="-118.3938679">
  <ele>-6.75</ele>
  <time>2026-09-01T01:17:44Z</time>
  <course>290.34</course>
  <speed>0.01</speed>
  <fix>3d</fix>
</trkpt>
<trkpt lat="33.8103133" lon="-118.393868">
  <ele>-7.066</ele>
  <time>2026-09-01T01:17:44Z</time>
  <course>226.29</course>
  <speed>0.03605551275463989</speed>
  <fix>3d</fix>
</trkpt>
<trkpt lat="33.8103133" lon="-118.393868">
  <ele>-7.062</ele>
  <time>2026-09-01T01:17:44Z</time>
  <course>226.76</course>
  <speed>0.03605551275463989</speed>
  <fix>3d</fix>
</trkpt>
<trkpt lat="33.8103131" lon="-118.3938679">
  <ele>-6.75</ele>
  <time>2026-09-01T01:17:44Z</time>
  <course>290.34</course>
  <speed>0.01</speed>
  <fix>3d</fix>
</trkpt>
<trkpt lat="33.8103133" lon="-118.393868">
  <ele>-7.06</ele>
  <time>2026-09-01T01:17:44Z</time>
  <course>226.86</course>
  <speed>0.03605551275463989</speed>
  <fix>3d</fix>
</trkpt>
<trkpt lat="33.8103133" lon="-118.393868">
  <ele>-7.057</ele>
  <time>2026-09-01T01:17:44Z</time>
  <course>227.25</course>
  <speed>0.03605551275463989</speed>
  <fix>3d</fix>
</trkpt>
<trkpt lat="33.8103131" lon="-118.3938679">
  <ele>-6.72</ele>
  <time>2026-09-01T01:17:44Z</time>
  <course>290.73</course>
  <speed>0.01</speed>
  <fix>3d</fix>
</trkpt>
<trkpt lat="33.8103133" lon="-118.393868">
  <ele>-7.056</ele>
  <time>2026-09-01T01:17:44Z</time>
  <course>227.32</course>
  <speed>0.03605551275463989</speed>
  <fix>3d</fix>
</trkpt>
<trkpt lat="33.8103133" lon="-118.393868">
  <ele>-7.047</ele>
  <time>2026-09-01T01:17:44Z</time>
  <course>227.73</course>
  <speed>0.03605551275463989</speed>
  <fix>3d</fix>
</trkpt>
<trkpt lat="33.8103131" lon="-118.3938679">
  <ele>-6.72</ele>
  <time>2026-09-01T01:17:44Z</time>
  <course>290.73</course>
  <speed>0.01</speed>
  <fix>3d</fix>
</trkpt>
<trkpt lat="33.8103133" lon="-118.393868">
  <ele>-7.047</ele>
  <time>2026-09-01T01:17:44Z</time>
  <course>227.74</course>
  <speed>0.03605551275463989</speed>
  <fix>3d</fix>
</trkpt>
<trkpt lat="33.8103133" lon="-118.3938681">
  <ele>-7.039</ele>
  <time>2026-09-01T01:17:44Z</time>
  <course>228.22</course>
  <speed>0.03605551275463989</speed>
  <fix>3d</fix>
</trkpt>
<trkpt lat="33.8103131" lon="-118.393868">
  <ele>-6.69</ele>
  <time>2026-09-01T01:17:44Z</time>
  <course>291.12</course>
  <speed>0.01</speed>
  <fix>3d</fix>
</trkpt>
<trkpt lat="33.8103133" lon="-118.3938681">
  <ele>-7.039</ele>
  <time>2026-09-01T01:17:44Z</time>
  <course>228.24</course>
  <speed>0.03605551275463989</speed>
  <fix>3d</fix>
</trkpt>
<trkpt lat="33.8103133" lon="-118.3938681">
  <ele>-7.034</ele>
  <time>2026-09-01T01:17:44Z</time>
  <course>228.71</course>
  <speed>0.03605551275463989</speed>
  <fix>3d</fix>
</trkpt>
<trkpt lat="33.8103131" lon="-118.393868">
  <ele>-6.69</ele>
  <time>2026-09-01T01:17:44Z</time>
  <course>291.12</course>
  <speed>0.01</speed>
  <fix>3d</fix>
</trkpt>
<trkpt lat="33.8103133" lon="-118.3938681">
  <ele>-7.033</ele>
  <time>2026-09-01T01:17:44Z</time>
  <course>228.81</course>
  <speed>0.03605551275463989</speed>
  <fix>3d</fix>
</trkpt>
<trkpt lat="33.8103133" lon="-118.3938681">
  <ele>-7.027</ele>
  <time>2026-09-01T01:17:44Z</time>
  <course>229.2</course>
  <speed>0.03605551275463989</speed>
  <fix>3d</fix>
</trkpt>
<trkpt lat="33.8103131" lon="-118.393868">
  <ele>-6.66</ele>
  <time>2026-09-01T01:17:44Z</time>
  <course>291.5</course>
  <speed>0.01</speed>
  <fix>3d</fix>
</trkpt>
<trkpt lat="33.8103133" lon="-118.3938681">
  <ele>-7.025</ele>
  <time>2026-09-01T01:17:44Z</time>
  <course>229.29</course>
  <speed>0.03605551275463989</speed>
  <fix>3d</fix>
</trkpt>
<trkpt lat="33.8103133" lon="-118.3938681">
  <ele>-7.013</ele>
  <time>2026-09-01T01:17:44Z</time>
  <course>229.69</course>
  <speed>0.03605551275463989</speed>
  <fix>3d</fix>
</trkpt>
<trkpt lat="33.8103131" lon="-118.393868">
  <ele>-6.66</ele>
  <time>2026-09-01T01:17:44Z</time>
  <course>291.5</course>
  <speed>0.01</speed>
  <fix>3d</fix>
</trkpt>
<trkpt lat="33.8103133" lon="-118.3938681">
  <ele>-7.011</ele>
  <time>2026-09-01T01:17:44Z</time>
  <course>229.76</course>
  <speed>0.03605551275463989</speed>
  <fix>3d</fix>
</trkpt>
<trkpt lat="33.8103133" lon="-118.3938681">
  <ele>-7.0</ele>
  <time>2026-09-01T01:17:44Z</time>
  <course>230.19</course>
  <speed>0.03605551275463989</speed>
  <fix>3d</fix>
</trkpt>
<trkpt lat="33.8103131" lon="-118.393868">
  <ele>-6.63</ele>
  <time>2026-09-01T01:17:44Z</time>
  <course>291.88</course>
  <speed>0.01</speed>
  <fix>3d</fix>
</trkpt>
<trkpt lat="33.8103133" lon="-118.3938681">
  <ele>-6.999</ele>
  <time>2026-09-01T01:17:44Z</time>
  <course>230.24</course>
  <speed>0.03605551275463989</speed>
  <fix>3d</fix>
</trkpt>
<trkpt lat="33.8103133" lon="-118.3938681">
  <ele>-6.991</ele>
  <time>2026-09-01T01:17:44Z</time>
  <course>230.68</course>
  <speed>0.03605551275463989</speed>
  <fix>3d</fix>
</trkpt>
<trkpt lat="33.8103131" lon="-118.393868">
  <ele>-6.63</ele>
  <time>2026-09-01T01:17:44Z</time>
  <course>291.88</course>
  <speed>0.01</speed>
  <fix>3d</fix>
</trkpt>
<trkpt lat="33.8103133" lon="-118.3938681">
  <ele>-6.991</ele>
  <time>2026-09-01T01:17:44Z</time>
  <course>230.71</course>
  <speed>0.03605551275463989</speed>
  <fix>3d</fix>
</trkpt>
<trkpt lat="33.8103133" lon="-118.3938681">
  <ele>-6.982</ele>
  <time>2026-09-01T01:17:44Z</time>
  <course>231.18</course>
  <speed>0.03605551275463989</speed>
  <fix>3d</fix>
</trkpt>
<trkpt lat="33.8103131" lon="-118.393868">
  <ele>-6.59</ele>
  <time>2026-09-01T01:17:44Z</time>
  <course>292.28</course>
  <speed>0.01</speed>
  <fix>3d</fix>
</trkpt>
<trkpt lat="33.8103133" lon="-118.3938681">
  <ele>-6.98</ele>
  <time>2026-09-01T01:17:44Z</time>
  <course>231.31</course>
  <speed>0.03605551275463989</speed>
  <fix>3d</fix>
</trkpt>
<trkpt lat="33.8103133" lon="-118.3938681">
  <ele>-6.975</ele>
  <time>2026-09-01T01:17:44Z</time>
  <course>231.68</course>
  <speed>0.03605551275463989</speed>
  <fix>3d</fix>
</trkpt>
<trkpt lat="33.8103131" lon="-118.393868">
  <ele>-6.59</ele>
  <time>2026-09-01T01:17:44Z</time>
  <course>292.28</course>
  <speed>0.01</speed>
  <fix>3d</fix>
</trkpt>
<trkpt lat="33.8103133" lon="-118.3938681">
  <ele>-6.975</ele>
  <time>2026-09-01T01:17:44Z</time>
  <course>231.7</course>
  <speed>0.03605551275463989</speed>
  <fix>3d</fix>
</trkpt>
<trkpt lat="33.8103133" lon="-118.3938681">
  <ele>-6.964</ele>
  <time>2026-09-01T01:17:44Z</time>
  <course>232.2</course>
  <speed>0.03605551275463989</speed>
  <fix>3d</fix>
</trkpt>
<trkpt lat="33.8103131" lon="-118.3938681">
  <ele>-6.56</ele>
  <time>2026-09-01T01:17:44Z</time>
  <course>292.7</course>
  <speed>0.01</speed>
  <fix>3d</fix>
</trkpt>
<trkpt lat="33.8103133" lon="-118.3938681">
  <ele>-6.963</ele>
  <time>2026-09-01T01:17:44Z</time>
  <course>232.21</course>
  <speed>0.03605551275463989</speed>
  <fix>3d</fix>
</trkpt>
<trkpt lat="33.8103133" lon="-118.3938682">
  <ele>-6.936</ele>
  <time>2026-09-01T01:17:44Z</time>
  <course>232.7</course>
  <speed>0.03605551275463989</speed>
  <fix>3d</fix>
</trkpt>
<trkpt lat="33.8103131" lon="-118.3938681">
  <ele>-6.56</ele>
  <time>2026-09-01T01:17:44Z</time>
  <course>292.7</course>
  <speed>0.01</speed>
  <fix>3d</fix>
</trkpt>
<trkpt lat="33.8103133" lon="-118.3938682">
  <ele>-6.932</ele>
  <time>2026-09-01T01:17:44Z</time>
  <course>232.73</course>
  <speed>0.03605551275463989</speed>
  <fix>3d</fix>
</trkpt>
<trkpt lat="33.8103133" lon="-118.3938682">
  <ele>-6.902</ele>
  <time>2026-09-01T01:17:44Z</time>
  <course>233.2</course>
  <speed>0.03605551275463989</speed>
  <fix>3d</fix>
</trkpt>
<trkpt lat="33.8103131" lon="-118.3938681">
  <ele>-6.53</ele>
  <time>2026-09-01T01:17:44Z</time>
  <course>293.12</course>
  <speed>0.01</speed>
  <fix>3d</fix>
</trkpt>
<trkpt lat="33.8103133" lon="-118.3938682">
  <ele>-6.901</ele>
  <time>2026-09-01T01:17:44Z</time>
  <course>233.22</course>
  <speed>0.03605551275463989</speed>
  <fix>3d</fix>
</trkpt>
<trkpt lat="33.8103133" lon="-118.3938682">
  <ele>-6.867</ele>
  <time>2026-09-01T01:17:44Z</time>
  <course>233.71</course>
  <speed>0.03605551275463989</speed>
  <fix>3d</fix>
</trkpt>
<trkpt lat="33.8103131" lon="-118.3938681">
  <ele>-6.53</ele>
  <time>2026-09-01T01:17:44Z</time>
  <course>293.12</course>
  <speed>0.01</speed>
  <fix>3d</fix>
</trkpt>
<trkpt lat="33.8103133" lon="-118.3938682">
  <ele>-6.867</ele>
  <time>2026-09-01T01:17:44Z</time>
  <course>233.72</course>
  <speed>0.03605551275463989</speed>
  <fix>3d</fix>
</trkpt>
<trkpt lat="33.8103133" lon="-118.3938682">
  <ele>-6.828</ele>
  <time>2026-09-01T01:17:44Z</time>
  <course>234.22</course>
  <speed>0.03605551275463989</speed>
  <fix>3d</fix>
</trkpt>
<trkpt lat="33.8103131" lon="-118.3938681">
  <ele>-6.5</ele>
  <time>2026-09-01T01:17:44Z</time>
  <course>293.53</course>
  <speed>0.01</speed>
  <fix>3d</fix>
</trkpt>
<trkpt lat="33.8103133" lon="-118.3938682">
  <ele>-6.824</ele>
  <time>2026-09-01T01:17:44Z</time>
  <course>234.24</course>
  <speed>0.03605551275463989</speed>
  <fix>3d</fix>
</trkpt>
<trkpt lat="33.8103133" lon="-118.3938682">
  <ele>-6.789</ele>
  <time>2026-09-01T01:17:44Z</time>
  <course>234.73</course>
  <speed>0.03605551275463989</speed>
  <fix>3d</fix>
</trkpt>
<trkpt lat="33.8103131" lon="-118.3938681">
  <ele>-6.5</ele>
  <time>2026-09-01T01:17:44Z</time>
  <course>293.53</course>
  <speed>0.01</speed>
  <fix>3d</fix>
</trkpt>
<trkpt lat="33.8103133" lon="-118.3938682">
  <ele>-6.78</ele>
  <time>2026-09-01T01:17:44Z</time>
  <course>234.85</course>
  <speed>0.03605551275463989</speed>
  <fix>3d</fix>
</trkpt>
<trkpt lat="33.8103133" lon="-118.3938682">
  <ele>-6.756</ele>
  <time>2026-09-01T01:17:44Z</time>
  <course>235.24</course>
  <speed>0.0316227766016838</speed>
  <fix>3d</fix>
</trkpt>
<trkpt lat="33.8103131" lon="-118.3938681">
  <ele>-6.46</ele>
  <time>2026-09-01T01:17:44Z</time>
  <course>293.93</course>
  <speed>0.01</speed>
  <fix>3d</fix>
</trkpt>
<trkpt lat="33.8103133" lon="-118.3938682">
  <ele>-6.75</ele>
  <time>2026-09-01T01:17:44Z</time>
  <course>235.34</course>
  <speed>0.0316227766016838</speed>
  <fix>3d</fix>
</trkpt>
<trkpt lat="33.8103133" lon="-118.3938682">
  <ele>-6.73</ele>
  <time>2026-09-01T01:17:44Z</time>
  <course>235.76</course>
  <speed>0.0316227766016838</speed>
  <fix>3d</fix>
</trkpt>
<trkpt lat="33.8103131" lon="-118.3938681">
  <ele>-6.46</ele>
  <time>2026-09-01T01:17:44Z</time>
  <course>293.93</course>
  <speed>0.01</speed>
  <fix>3d</fix>
</trkpt>
<trkpt lat="33.8103133" lon="-118.3938682">
  <ele>-6.728</ele>
  <time>2026-09-01T01:17:44Z</time>
  <course>235.83</course>
  <speed>0.0316227766016838</speed>
  <fix>3d</fix>
</trkpt>
<trkpt lat="33.8103133" lon="-118.3938682">
  <ele>-6.71</ele>
  <time>2026-09-01T01:17:44Z</time>
  <course>236.27</course>
  <speed>0.0316227766016838</speed>
  <fix>3d</fix>
</trkpt>
<trkpt lat="33.8103131" lon="-118.3938682">
  <ele>-6.43</ele>
  <time>2026-09-01T01:17:44Z</time>
  <course>294.36</course>
  <speed>0.01</speed>
  <fix>3d</fix>
</trkpt>
<trkpt lat="33.8103133" lon="-118.3938682">
  <ele>-6.707</ele>
  <time>2026-09-01T01:17:44Z</time>
  <course>236.33</course>
  <speed>0.0316227766016838</speed>
  <fix>3d</fix>
</trkpt>
<trkpt lat="33.8103133" lon="-118.3938682">
  <ele>-6.694</ele>
  <time>2026-09-01T01:17:44Z</time>
  <course>236.78</course>
  <speed>0.0316227766016838</speed>
  <fix>3d</fix>
</trkpt>
<trkpt lat="33.8103131" lon="-118.3938682">
  <ele>-6.43</ele>
  <time>2026-09-01T01:17:44Z</time>
  <course>294.36</course>
  <speed>0.01</speed>
  <fix>3d</fix>
</trkpt>
<trkpt lat="33.8103133" lon="-118.3938682">
  <ele>-6.694</ele>
  <time>2026-09-01T01:17:44Z</time>
  <course>236.8</course>
  <speed>0.0316227766016838</speed>
  <fix>3d</fix>
</trkpt>
<trkpt lat="33.8103133" lon="-118.3938682">
  <ele>-6.68</ele>
  <time>2026-09-01T01:17:44Z</time>
  <course>237.3</course>
  <speed>0.0316227766016838</speed>
  <fix>3d</fix>
</trkpt>
<trkpt lat="33.8103131" lon="-118.3938682">
  <ele>-6.4</ele>
  <time>2026-09-01T01:17:44Z</time>
  <course>294.81</course>
  <speed>0.01</speed>
  <fix>3d</fix>
</trkpt>
<trkpt lat="33.8103133" lon="-118.3938682">
  <ele>-6.677</ele>
  <time>2026-09-01T01:17:44Z</time>
  <course>237.38</course>
  <speed>0.0316227766016838</speed>
  <fix>3d</fix>
</trkpt>
<trkpt lat="33.8103133" lon="-118.3938683">
  <ele>-6.656</ele>
  <time>2026-09-01T01:17:44Z</time>
  <course>237.82</course>
  <speed>0.0316227766016838</speed>
  <fix>3d</fix>
</trkpt>
<trkpt lat="33.8103131" lon="-118.3938682">
  <ele>-6.4</ele>
  <time>2026-09-01T01:17:44Z</time>
  <course>294.81</course>
  <speed>0.01</speed>
  <fix>3d</fix>
</trkpt>
<trkpt lat="33.8103133" lon="-118.3938683">
  <ele>-6.653</ele>
  <time>2026-09-01T01:17:44Z</time>
  <course>237.87</course>
  <speed>0.0316227766016838</speed>
  <fix>3d</fix>
</trkpt>
<trkpt lat="33.8103133" lon="-118.3938683">
  <ele>-6.63</ele>
  <time>2026-09-01T01:17:44Z</time>
  <course>238.34</course>
  <speed>0.0316227766016838</speed>
  <fix>3d</fix>
</trkpt>
<trkpt lat="33.8103131" lon="-118.3938682">
  <ele>-6.37</ele>
  <time>2026-09-01T01:17:44Z</time>
  <course>295.28</course>
  <speed>0.01</speed>
  <fix>3d</fix>
</trkpt>
<trkpt lat="33.8103133" lon="-118.3938683">
  <ele>-6.628</ele>
  <time>2026-09-01T01:17:44Z</time>
  <course>238.37</course>
  <speed>0.0316227766016838</speed>
  <fix>3d</fix>
</trkpt>
<trkpt lat="33.8103133" lon="-118.3938683">
  <ele>-6.604</ele>
  <time>2026-09-01T01:17:44Z</time>
  <course>238.86</course>
  <speed>0.0316227766016838</speed>
  <fix>3d</fix>
</trkpt>
<trkpt lat="33.8103131" lon="-118.3938682">
  <ele>-6.37</ele>
  <time>2026-09-01T01:17:44Z</time>
  <course>295.28</course>
  <speed>0.01</speed>
  <fix>3d</fix>
</trkpt>
<trkpt lat="33.8103133" lon="-118.3938683">
  <ele>-6.601</ele>
  <time>2026-09-01T01:17:44Z</time>
  <course>238.88</course>
  <speed>0.0316227766016838</speed>
  <fix>3d</fix>
</trkpt>
<trkpt lat="33.8103133" lon="-118.3938683">
  <ele>-6.577</ele>
  <time>2026-09-01T01:17:45Z</time>
  <course>239.38</course>
  <speed>0.0316227766016838</speed>
  <fix>3d</fix>
</trkpt>
<trkpt lat="33.8103131" lon="-118.3938682">
  <ele>-6.33</ele>
  <time>2026-09-01T01:17:45Z</time>
  <course>295.74</course>
  <speed>0.01</speed>
  <fix>3d</fix>
</trkpt>
<trkpt lat="33.8103133" lon="-118.3938683">
  <ele>-6.572</ele>
  <time>2026-09-01T01:17:45Z</time>
  <course>239.51</course>
  <speed>0.0316227766016838</speed>
  <fix>3d</fix>
</trkpt>
<trkpt lat="33.8103133" lon="-118.3938683">
  <ele>-6.555</ele>
  <time>2026-09-01T01:17:45Z</time>
  <course>239.9</course>
  <speed>0.0316227766016838</speed>
  <fix>3d</fix>
</trkpt>
<trkpt lat="33.8103131" lon="-118.3938682">
  <ele>-6.33</ele>
  <time>2026-09-01T01:17:45Z</time>
  <course>295.74</course>
  <speed>0.01</speed>
  <fix>3d</fix>
</trkpt>
<trkpt lat="33.8103133" lon="-118.3938683">
  <ele>-6.551</ele>
  <time>2026-09-01T01:17:45Z</time>
  <course>239.98</course>
  <speed>0.0316227766016838</speed>
  <fix>3d</fix>
</trkpt>
<trkpt lat="33.8103133" lon="-118.3938683">
  <ele>-6.532</ele>
  <time>2026-09-01T01:17:45Z</time>
  <course>240.43</course>
  <speed>0.0316227766016838</speed>
  <fix>3d</fix>
</trkpt>
<trkpt lat="33.8103132" lon="-118.3938683">
  <ele>-6.3</ele>
  <time>2026-09-01T01:17:45Z</time>
  <course>296.18</course>
  <speed>0.01</speed>
  <fix>3d</fix>
</trkpt>
<trkpt lat="33.8103133" lon="-118.3938683">
  <ele>-6.527</ele>
  <time>2026-09-01T01:17:45Z</time>
  <course>240.56</course>
  <speed>0.0316227766016838</speed>
  <fix>3d</fix>
</trkpt>
<trkpt lat="33.8103133" lon="-118.3938683">
  <ele>-6.516</ele>
  <time>2026-09-01T01:17:45Z</time>
  <course>240.95</course>
  <speed>0.0316227766016838</speed>
  <fix>3d</fix>
</trkpt>
<trkpt lat="33.8103132" lon="-118.3938683">
  <ele>-6.3</ele>
  <time>2026-09-01T01:17:45Z</time>
  <course>296.18</course>
  <speed>0.01</speed>
  <fix>3d</fix>
</trkpt>
<trkpt lat="33.8103133" lon="-118.3938683">
  <ele>-6.514</ele>
  <time>2026-09-01T01:17:45Z</time>
  <course>241.06</course>
  <speed>0.0316227766016838</speed>
  <fix>3d</fix>
</trkpt>
<trkpt lat="33.8103133" lon="-118.3938683">
  <ele>-6.501</ele>
  <time>2026-09-01T01:17:45Z</time>
  <course>241.48</course>
  <speed>0.0316227766016838</speed>
  <fix>3d</fix>
</trkpt>
<trkpt lat="33.8103133" lon="-118.3938683">
  <ele>-6.27</ele>
  <time>2026-09-01T01:17:45Z</time>
  <course>296.64</course>
  <speed>0.01</speed>
  <fix>3d</fix>
</trkpt>
<trkpt lat="33.8103133" lon="-118.3938683">
  <ele>-6.498</ele>
  <time>2026-09-01T01:17:45Z</time>
  <course>241.57</course>
  <speed>0.0316227766016838</speed>
  <fix>3d</fix>
</trkpt>
<trkpt lat="33.8103134" lon="-118.3938683">
  <ele>-6.483</ele>
  <time>2026-09-01T01:17:45Z</time>
  <course>242.01</course>
  <speed>0.0316227766016838</speed>
  <fix>3d</fix>
</trkpt>
<trkpt lat="33.8103133" lon="-118.3938683">
  <ele>-6.27</ele>
  <time>2026-09-01T01:17:45Z</time>
  <course>296.64</course>
  <speed>0.01</speed>
  <fix>3d</fix>
</trkpt>
<trkpt lat="33.8103134" lon="-118.3938683">
  <ele>-6.482</ele>
  <time>2026-09-01T01:17:45Z</time>
  <course>242.09</course>
  <speed>0.0316227766016838</speed>
  <fix>3d</fix>
</trkpt>
<trkpt lat="33.8103134" lon="-118.3938684">
  <ele>-6.471</ele>
  <time>2026-09-01T01:17:45Z</time>
  <course>242.54</course>
  <speed>0.0316227766016838</speed>
  <fix>3d</fix>
</trkpt>
<trkpt lat="33.8103133" lon="-118.3938683">
  <ele>-6.24</ele>
  <time>2026-09-01T01:17:45Z</time>
  <course>297.13</course>
  <speed>0.01</speed>
  <fix>3d</fix>
</trkpt>
<trkpt lat="33.8103134" lon="-118.3938684">
  <ele>-6.471</ele>
  <time>2026-09-01T01:17:45Z</time>
  <course>242.55</course>
  <speed>0.0316227766016838</speed>
  <fix>3d</fix>
</trkpt>
<trkpt lat="33.8103134" lon="-118.3938684">
  <ele>-6.46</ele>
  <time>2026-09-01T01:17:45Z</time>
  <course>243.07</course>
  <speed>0.0316227766016838</speed>
  <fix>3d</fix>
</trkpt>
<trkpt lat="33.8103133" lon="-118.3938683">
  <ele>-6.24</ele>
  <time>2026-09-01T01:17:45Z</time>
  <course>297.13</course>
  <speed>0.01</speed>
  <fix>3d</fix>
</trkpt>
<trkpt lat="33.8103134" lon="-118.3938684">
  <ele>-6.459</ele>
  <time>2026-09-01T01:17:45Z</time>
  <course>243.15</course>
  <speed>0.0316227766016838</speed>
  <fix>3d</fix>
</trkpt>
<trkpt lat="33.8103134" lon="-118.3938684">
  <ele>-6.448</ele>
  <time>2026-09-01T01:17:45Z</time>
  <course>243.6</course>
  <speed>0.0316227766016838</speed>
  <fix>3d</fix>
</trkpt>
<trkpt lat="33.8103133" lon="-118.3938683">
  <ele>-6.2</ele>
  <time>2026-09-01T01:17:45Z</time>
  <course>297.65</course>
  <speed>0.01</speed>
  <fix>3d</fix>
</trkpt>
<trkpt lat="33.8103134" lon="-118.3938684">
  <ele>-6.446</ele>
  <time>2026-09-01T01:17:45Z</time>
  <course>243.67</course>
  <speed>0.0316227766016838</speed>
  <fix>3d</fix>
</trkpt>
<trkpt lat="33.8103134" lon="-118.3938684">
  <ele>-6.433</ele>
  <time>2026-09-01T01:17:45Z</time>
  <course>244.14</course>
  <speed>0.0316227766016838</speed>
  <fix>3d</fix>
</trkpt>
<trkpt lat="33.8103133" lon="-118.3938683">
  <ele>-6.2</ele>
  <time>2026-09-01T01:17:45Z</time>
  <course>297.65</course>
  <speed>0.01</speed>
  <fix>3d</fix>
</trkpt>
<trkpt lat="33.8103134" lon="-118.3938684">
  <ele>-6.431</ele>
  <time>2026-09-01T01:17:45Z</time>
  <course>244.19</course>
  <speed>0.0316227766016838</speed>
  <fix>3d</fix>
</trkpt>
<trkpt lat="33.8103134" lon="-118.3938684">
  <ele>-6.413</ele>
  <time>2026-09-01T01:17:45Z</time>
  <course>244.67</course>
  <speed>0.0316227766016838</speed>
  <fix>3d</fix>
</trkpt>
<trkpt lat="33.8103133" lon="-118.3938684">
  <ele>-6.17</ele>
  <time>2026-09-01T01:17:45Z</time>
  <course>298.15</course>
  <speed>0.01</speed>
  <fix>3d</fix>
</trkpt>
<trkpt lat="33.8103134" lon="-118.3938684">
  <ele>-6.411</ele>
  <time>2026-09-01T01:17:45Z</time>
  <course>244.71</course>
  <speed>0.0316227766016838</speed>
  <fix>3d</fix>
</trkpt>
<trkpt lat="33.8103134" lon="-118.3938684">
  <ele>-6.386</ele>
  <time>2026-09-01T01:17:45Z</time>
  <course>245.21</course>
  <speed>0.0316227766016838</speed>
  <fix>3d</fix>
</trkpt>
<trkpt lat="33.8103133" lon="-118.3938684">
  <ele>-6.17</ele>
  <time>2026-09-01T01:17:45Z</time>
  <course>298.15</course>
  <speed>0.01</speed>
  <fix>3d</fix>
</trkpt>
<trkpt lat="33.8103134" lon="-118.3938684">
  <ele>-6.384</ele>
  <time>2026-09-01T01:17:45Z</time>
  <course>245.22</course>
  <speed>0.0316227766016838</speed>
  <fix>3d</fix>
</trkpt>
<trkpt lat="33.8103134" lon="-118.3938684">
  <ele>-6.356</ele>
  <time>2026-09-01T01:17:45Z</time>
  <course>245.74</course>
  <speed>0.0316227766016838</speed>
  <fix>3d</fix>
</trkpt>
<trkpt lat="33.8103133" lon="-118.3938684">
  <ele>-6.14</ele>
  <time>2026-09-01T01:17:45Z</time>
  <course>298.65</course>
  <speed>0.01</speed>
  <fix>3d</fix>
</trkpt>
<trkpt lat="33.8103134" lon="-118.3938684">
  <ele>-6.35</ele>
  <time>2026-09-01T01:17:45Z</time>
  <course>245.86</course>
  <speed>0.0316227766016838</speed>
  <fix>3d</fix>
</trkpt>
<trkpt lat="33.8103135" lon="-118.3938684">
  <ele>-6.335</ele>
  <time>2026-09-01T01:17:45Z</time>
  <course>246.28</course>
  <speed>0.0316227766016838</speed>
  <fix>3d</fix>
</trkpt>
<trkpt lat="33.8103133" lon="-118.3938684">
  <ele>-6.14</ele>
  <time>2026-09-01T01:17:45Z</time>
  <course>298.65</course>
  <speed>0.01</speed>
  <fix>3d</fix>
</trkpt>
<trkpt lat="33.8103135" lon="-118.3938684">
  <ele>-6.334</ele>
  <time>2026-09-01T01:17:45Z</time>
  <course>246.38</course>
  <speed>0.0316227766016838</speed>
  <fix>3d</fix>
</trkpt>
<trkpt lat="33.8103135" lon="-118.3938684">
  <ele>-6.322</ele>
  <time>2026-09-01T01:17:45Z</time>
  <course>246.83</course>
  <speed>0.0316227766016838</speed>
  <fix>3d</fix>
</trkpt>
<trkpt lat="33.8103133" lon="-118.3938684">
  <ele>-6.1</ele>
  <time>2026-09-01T01:17:45Z</time>
  <course>299.15</course>
  <speed>0.01</speed>
  <fix>3d</fix>
</trkpt>
<trkpt lat="33.8103135" lon="-118.3938684">
  <ele>-6.32</ele>
  <time>2026-09-01T01:17:45Z</time>
  <course>246.91</course>
  <speed>0.0316227766016838</speed>
  <fix>3d</fix>
</trkpt>
<trkpt lat="33.8103135" lon="-118.3938684">
  <ele>-6.309</ele>
  <time>2026-09-01T01:17:45Z</time>
  <course>247.36</course>
  <speed>0.0316227766016838</speed>
  <fix>3d</fix>
</trkpt>
<trkpt lat="33.8103133" lon="-118.3938684">
  <ele>-6.1</ele>
  <time>2026-09-01T01:17:45Z</time>
  <course>299.15</course>
  <speed>0.01</speed>
  <fix>3d</fix>
</trkpt>
<trkpt lat="33.8103135" lon="-118.3938684">
  <ele>-6.308</ele>
  <time>2026-09-01T01:17:45Z</time>
  <course>247.45</course>
  <speed>0.0316227766016838</speed>
  <fix>3d</fix>
</trkpt>
<trkpt lat="33.8103135" lon="-118.3938685">
  <ele>-6.298</ele>
  <time>2026-09-01T01:17:45Z</time>
  <course>247.91</course>
  <speed>0.0316227766016838</speed>
  <fix>3d</fix>
</trkpt>
<trkpt lat="33.8103133" lon="-118.3938684">
  <ele>-6.07</ele>
  <time>2026-09-01T01:17:45Z</time>
  <course>299.68</course>
  <speed>0.01</speed>
  <fix>3d</fix>
</trkpt>
<trkpt lat="33.8103135" lon="-118.3938685">
  <ele>-6.297</ele>
  <time>2026-09-01T01:17:45Z</time>
  <course>247.92</course>
  <speed>0.0316227766016838</speed>
  <fix>3d</fix>
</trkpt>
<trkpt lat="33.8103135" lon="-118.3938685">
  <ele>-6.281</ele>
  <time>2026-09-01T01:17:45Z</time>
  <course>248.45</course>
  <speed>0.0316227766016838</speed>
  <fix>3d</fix>
</trkpt>
<trkpt lat="33.8103133" lon="-118.3938684">
  <ele>-6.07</ele>
  <time>2026-09-01T01:17:45Z</time>
  <course>299.68</course>
  <speed>0.01</speed>
  <fix>3d</fix>
</trkpt>
<trkpt lat="33.8103135" lon="-118.3938685">
  <ele>-6.277</ele>
  <time>2026-09-01T01:17:45Z</time>
  <course>248.57</course>
  <speed>0.0316227766016838</speed>
  <fix>3d</fix>
</trkpt>
<trkpt lat="33.8103135" lon="-118.3938685">
  <ele>-6.26</ele>
  <time>2026-09-01T01:17:45Z</time>
  <course>248.99</course>
  <speed>0.0316227766016838</speed>
  <fix>3d</fix>
</trkpt>
<trkpt lat="33.8103133" lon="-118.3938685">
  <ele>-6.04</ele>
  <time>2026-09-01T01:17:45Z</time>
  <course>300.25</course>
  <speed>0.01</speed>
  <fix>3d</fix>
</trkpt>
<trkpt lat="33.8103135" lon="-118.3938685">
  <ele>-6.256</ele>
  <time>2026-09-01T01:17:45Z</time>
  <course>249.1</course>
  <speed>0.0316227766016838</speed>
  <fix>3d</fix>
</trkpt>
<trkpt lat="33.8103135" lon="-118.3938685">
  <ele>-6.241</ele>
  <time>2026-09-01T01:17:45Z</time>
  <course>249.54</course>
  <speed>0.0316227766016838</speed>
  <fix>3d</fix>
</trkpt>
<trkpt lat="33.8103133" lon="-118.3938685">
  <ele>-6.04</ele>
  <time>2026-09-01T01:17:45Z</time>
  <course>300.25</course>
  <speed>0.01</speed>
  <fix>3d</fix>
</trkpt>
<trkpt lat="33.8103135" lon="-118.3938685">
  <ele>-6.238</ele>
  <time>2026-09-01T01:17:45Z</time>
  <course>249.62</course>
  <speed>0.0316227766016838</speed>
  <fix>3d</fix>
</trkpt>
<trkpt lat="33.8103135" lon="-118.3938685">
  <ele>-6.23</ele>
  <time>2026-09-01T01:17:45Z</time>
  <course>250.08</course>
  <speed>0.0316227766016838</speed>
  <fix>3d</fix>
</trkpt>
<trkpt lat="33.8103133" lon="-118.3938685">
  <ele>-6.0</ele>
  <time>2026-09-01T01:17:45Z</time>
  <course>300.81</course>
  <speed>0.01</speed>
  <fix>3d</fix>
</trkpt>
<trkpt lat="33.8103135" lon="-118.3938685">
  <ele>-6.229</ele>
  <time>2026-09-01T01:17:45Z</time>
  <course>250.15</course>
  <speed>0.0316227766016838</speed>
  <fix>3d</fix>
</trkpt>
<trkpt lat="33.8103135" lon="-118.3938685">
  <ele>-6.217</ele>
  <time>2026-09-01T01:17:45Z</time>
  <course>250.63</course>
  <speed>0.0316227766016838</speed>
  <fix>3d</fix>
</trkpt>
<trkpt lat="33.8103133" lon="-118.3938685">
  <ele>-6.0</ele>
  <time>2026-09-01T01:17:45Z</time>
  <course>300.81</course>
  <speed>0.01</speed>
  <fix>3d</fix>
</trkpt>
<trkpt lat="33.8103135" lon="-118.3938685">
  <ele>-6.216</ele>
  <time>2026-09-01T01:17:45Z</time>
  <course>250.67</course>
  <speed>0.0316227766016838</speed>
  <fix>3d</fix>
</trkpt>
<trkpt lat="33.8103135" lon="-118.3938685">
  <ele>-6.205</ele>
  <time>2026-09-01T01:17:45Z</time>
  <course>251.18</course>
  <speed>0.0316227766016838</speed>
  <fix>3d</fix>
</trkpt>
<trkpt lat="33.8103134" lon="-118.3938685">
  <ele>-5.97</ele>
  <time>2026-09-01T01:17:45Z</time>
  <course>301.35</course>
  <speed>0.01</speed>
  <fix>3d</fix>
</trkpt>
<trkpt lat="33.8103135" lon="-118.3938685">
  <ele>-6.204</ele>
  <time>2026-09-01T01:17:45Z</time>
  <course>251.2</course>
  <speed>0.0316227766016838</speed>
  <fix>3d</fix>
</trkpt>
<trkpt lat="33.8103135" lon="-118.3938685">
  <ele>-6.202</ele>
  <time>2026-09-01T01:17:45Z</time>
  <course>251.72</course>
  <speed>0.0316227766016838</speed>
  <fix>3d</fix>
</trkpt>
<trkpt lat="33.8103134" lon="-118.3938685">
  <ele>-5.97</ele>
  <time>2026-09-01T01:17:45Z</time>
  <course>301.35</course>
  <speed>0.01</speed>
  <fix>3d</fix>
</trkpt>
<trkpt lat="33.8103135" lon="-118.3938685">
  <ele>-6.202</ele>
  <time>2026-09-01T01:17:45Z</time>
  <course>251.86</course>
  <speed>0.0316227766016838</speed>
  <fix>3d</fix>
</trkpt>
<trkpt lat="33.8103135" lon="-118.3938685">
  <ele>-6.197</ele>
  <time>2026-09-01T01:17:45Z</time>
  <course>252.27</course>
  <speed>0.0316227766016838</speed>
  <fix>3d</fix>
</trkpt>
<trkpt lat="33.8103134" lon="-118.3938685">
  <ele>-5.94</ele>
  <time>2026-09-01T01:17:45Z</time>
  <course>301.91</course>
  <speed>0.01</speed>
  <fix>3d</fix>
</trkpt>
<trkpt lat="33.8103135" lon="-118.3938685">
  <ele>-6.194</ele>
  <time>2026-09-01T01:17:45Z</time>
  <course>252.39</course>
  <speed>0.0316227766016838</speed>
  <fix>3d</fix>
</trkpt>
<trkpt lat="33.8103136" lon="-118.3938686">
  <ele>-6.186</ele>
  <time>2026-09-01T01:17:45Z</time>
  <course>252.82</course>
  <speed>0.0316227766016838</speed>
  <fix>3d</fix>
</trkpt>
<trkpt lat="33.8103134" lon="-118.3938685">
  <ele>-5.94</ele>
  <time>2026-09-01T01:17:45Z</time>
  <course>301.91</course>
  <speed>0.01</speed>
  <fix>3d</fix>
</trkpt>
<trkpt lat="33.8103136" lon="-118.3938686">
  <ele>-6.183</ele>
  <time>2026-09-01T01:17:45Z</time>
  <course>252.92</course>
  <speed>0.0316227766016838</speed>
  <fix>3d</fix>
</trkpt>
<trkpt lat="33.8103136" lon="-118.3938686">
  <ele>-6.174</ele>
  <time>2026-09-01T01:17:45Z</time>
  <course>253.38</course>
  <speed>0.0316227766016838</speed>
  <fix>3d</fix>
</trkpt>
<trkpt lat="33.8103134" lon="-118.3938686">
  <ele>-5.9</ele>
  <time>2026-09-01T01:17:45Z</time>
  <course>302.48</course>
  <speed>0.01</speed>
  <fix>3d</fix>
</trkpt>
<trkpt lat="33.8103136" lon="-118.3938686">
  <ele>-6.173</ele>
  <time>2026-09-01T01:17:45Z</time>
  <course>253.39</course>
  <speed>0.0316227766016838</speed>
  <fix>3d</fix>
</trkpt>
<trkpt lat="33.8103136" lon="-118.3938686">
  <ele>-6.159</ele>
  <time>2026-09-01T01:17:45Z</time>
  <course>253.93</course>
  <speed>0.0316227766016838</speed>
  <fix>3d</fix>
</trkpt>
<trkpt lat="33.8103134" lon="-118.3938686">
  <ele>-5.9</ele>
  <time>2026-09-01T01:17:45Z</time>
  <course>302.48</course>
  <speed>0.01</speed>
  <fix>3d</fix>
</trkpt>
<trkpt lat="33.8103136" lon="-118.3938686">
  <ele>-6.159</ele>
  <time>2026-09-01T01:17:45Z</time>
  <course>253.94</course>
  <speed>0.0316227766016838</speed>
  <fix>3d</fix>
</trkpt>
<trkpt lat="33.8103136" lon="-118.3938686">
  <ele>-6.141</ele>
  <time>2026-09-01T01:17:45Z</time>
  <course>254.48</course>
  <speed>0.0316227766016838</speed>
  <fix>3d</fix>
</trkpt>
<trkpt lat="33.8103134" lon="-118.3938686">
  <ele>-5.87</ele>
  <time>2026-09-01T01:17:45Z</time>
  <course>303.1</course>
  <speed>0.01</speed>
  <fix>3d</fix>
</trkpt>
<trkpt lat="33.8103136" lon="-118.3938686">
  <ele>-6.141</ele>
  <time>2026-09-01T01:17:45Z</time>
  <course>254.5</course>
  <speed>0.0316227766016838</speed>
  <fix>3d</fix>
</trkpt>
<trkpt lat="33.8103136" lon="-118.3938686">
  <ele>-6.122</ele>
  <time>2026-09-01T01:17:45Z</time>
  <course>255.04</course>
  <speed>0.0316227766016838</speed>
  <fix>3d</fix>
</trkpt>
<trkpt lat="33.8103134" lon="-118.3938686">
  <ele>-5.87</ele>
  <time>2026-09-01T01:17:45Z</time>
  <course>303.1</course>
  <speed>0.01</speed>
  <fix>3d</fix>
</trkpt>
<trkpt lat="33.8103136" lon="-118.3938686">
  <ele>-6.121</ele>
  <time>2026-09-01T01:17:45Z</time>
  <course>255.09</course>
  <speed>0.0316227766016838</speed>
  <fix>3d</fix>
</trkpt>
<trkpt lat="33.8103136" lon="-118.3938686">
  <ele>-6.103</ele>
  <time>2026-09-01T01:17:45Z</time>
  <course>255.59</course>
  <speed>0.0316227766016838</speed>
  <fix>3d</fix>
</trkpt>
<trkpt lat="33.8103134" lon="-118.3938686">
  <ele>-5.84</ele>
  <time>2026-09-01T01:17:45Z</time>
  <course>303.71</course>
  <speed>0.01</speed>
  <fix>3d</fix>
</trkpt>
<trkpt lat="33.8103136" lon="-118.3938686">
  <ele>-6.102</ele>
  <time>2026-09-01T01:17:45Z</time>
  <course>255.63</course>
  <speed>0.0316227766016838</speed>
  <fix>3d</fix>
</trkpt>
<trkpt lat="33.8103136" lon="-118.3938686">
  <ele>-6.089</ele>
  <time>2026-09-01T01:17:45Z</time>
  <course>256.15</course>
  <speed>0.0316227766016838</speed>
  <fix>3d</fix>
</trkpt>
<trkpt lat="33.8103134" lon="-118.3938686">
  <ele>-5.84</ele>
  <time>2026-09-01T01:17:45Z</time>
  <course>303.71</course>
  <speed>0.01</speed>
  <fix>3d</fix>
</trkpt>
<trkpt lat="33.8103136" lon="-118.3938686">
  <ele>-6.088</ele>
  <time>2026-09-01T01:17:45Z</time>
  <course>256.17</course>
  <speed>0.0316227766016838</speed>
  <fix>3d</fix>
</trkpt>
<trkpt lat="33.8103136" lon="-118.3938686">
  <ele>-6.084</ele>
  <time>2026-09-01T01:17:45Z</time>
  <course>256.71</course>
  <speed>0.0316227766016838</speed>
  <fix>3d</fix>
</trkpt>
<trkpt lat="33.8103134" lon="-118.3938687">
  <ele>-5.8</ele>
  <time>2026-09-01T01:17:45Z</time>
  <course>304.32</course>
  <speed>0.01</speed>
  <fix>3d</fix>
</trkpt>
<trkpt lat="33.8103136" lon="-118.3938686">
  <ele>-6.083</ele>
  <time>2026-09-01T01:17:45Z</time>
  <course>256.84</course>
  <speed>0.0316227766016838</speed>
  <fix>3d</fix>
</trkpt>
<trkpt lat="33.8103136" lon="-118.3938686">
  <ele>-6.08</ele>
  <time>2026-09-01T01:17:45Z</time>
  <course>257.26</course>
  <speed>0.0316227766016838</speed>
  <fix>3d</fix>
</trkpt>
<trkpt lat="33.8103134" lon="-118.3938687">
  <ele>-5.8</ele>
  <time>2026-09-01T01:17:45Z</time>
  <course>304.32</course>
  <speed>0.01</speed>
  <fix>3d</fix>
</trkpt>
<trkpt lat="33.8103136" lon="-118.3938686">
  <ele>-6.078</ele>
  <time>2026-09-01T01:17:45Z</time>
  <course>257.37</course>
  <speed>0.0316227766016838</speed>
  <fix>3d</fix>
</trkpt>
<trkpt lat="33.8103136" lon="-118.3938687">
  <ele>-6.07</ele>
  <time>2026-09-01T01:17:45Z</time>
  <course>257.83</course>
  <speed>0.0316227766016838</speed>
  <fix>3d</fix>
</trkpt>
<trkpt lat="33.8103134" lon="-118.3938687">
  <ele>-5.77</ele>
  <time>2026-09-01T01:17:45Z</time>
  <course>304.92</course>
  <speed>0.01</speed>
  <fix>3d</fix>
</trkpt>
<trkpt lat="33.8103136" lon="-118.3938687">
  <ele>-6.068</ele>
  <time>2026-09-01T01:17:45Z</time>
  <course>257.91</course>
  <speed>0.0316227766016838</speed>
  <fix>3d</fix>
</trkpt>
<trkpt lat="33.8103136" lon="-118.3938687">
  <ele>-6.063</ele>
  <time>2026-09-01T01:17:45Z</time>
  <course>258.38</course>
  <speed>0.0316227766016838</speed>
  <fix>3d</fix>
</trkpt>
<trkpt lat="33.8103134" lon="-118.3938687">
  <ele>-5.77</ele>
  <time>2026-09-01T01:17:45Z</time>
  <course>304.92</course>
  <speed>0.01</speed>
  <fix>3d</fix>
</trkpt>
<trkpt lat="33.8103136" lon="-118.3938687">
  <ele>-6.062</ele>
  <time>2026-09-01T01:17:45Z</time>
  <course>258.46</course>
  <speed>0.0316227766016838</speed>
  <fix>3d</fix>
</trkpt>
<trkpt lat="33.8103136" lon="-118.3938687">
  <ele>-6.059</ele>
  <time>2026-09-01T01:17:45Z</time>
  <course>258.95</course>
  <speed>0.0316227766016838</speed>
  <fix>3d</fix>
</trkpt>
<trkpt lat="33.8103135" lon="-118.3938687">
  <ele>-5.73</ele>
  <time>2026-09-01T01:17:45Z</time>
  <course>305.55</course>
  <speed>0.01</speed>
  <fix>3d</fix>
</trkpt>
<trkpt lat="33.8103136" lon="-118.3938687">
  <ele>-6.058</ele>
  <time>2026-09-01T01:17:45Z</time>
  <course>259.0</course>
  <speed>0.0316227766016838</speed>
  <fix>3d</fix>
</trkpt>
<trkpt lat="33.8103136" lon="-118.3938687">
  <ele>-6.057</ele>
  <time>2026-09-01T01:17:45Z</time>
  <course>259.51</course>
  <speed>0.0316227766016838</speed>
  <fix>3d</fix>
</trkpt>
<trkpt lat="33.8103135" lon="-118.3938687">
  <ele>-5.73</ele>
  <time>2026-09-01T01:17:45Z</time>
  <course>305.55</course>
  <speed>0.01</speed>
  <fix>3d</fix>
</trkpt>
<trkpt lat="33.8103136" lon="-118.3938687">
  <ele>-6.057</ele>
  <time>2026-09-01T01:17:45Z</time>
  <course>259.52</course>
  <speed>0.0316227766016838</speed>
  <fix>3d</fix>
</trkpt>
<trkpt lat="33.8103137" lon="-118.3938687">
  <ele>-6.047</ele>
  <time>2026-09-01T01:17:45Z</time>
  <course>260.07</course>
  <speed>0.0316227766016838</speed>
  <fix>3d</fix>
</trkpt>
<trkpt lat="33.8103135" lon="-118.3938687">
  <ele>-5.7</ele>
  <time>2026-09-01T01:17:45Z</time>
  <course>306.21</course>
  <speed>0.01</speed>
  <fix>3d</fix>
</trkpt>
<trkpt lat="33.8103137" lon="-118.3938687">
  <ele>-6.046</ele>
  <time>2026-09-01T01:17:45Z</time>
  <course>260.09</course>
  <speed>0.0316227766016838</speed>
  <fix>3d</fix>
</trkpt>
<trkpt lat="33.8103137" lon="-118.3938687">
  <ele>-6.031</ele>
  <time>2026-09-01T01:17:45Z</time>
  <course>260.63</course>
  <speed>0.0316227766016838</speed>
  <fix>3d</fix>
</trkpt>
<trkpt lat="33.8103135" lon="-118.3938687">
  <ele>-5.7</ele>
  <time>2026-09-01T01:17:45Z</time>
  <course>306.21</course>
  <speed>0.01</speed>
  <fix>3d</fix>
</trkpt>
<trkpt lat="33.8103137" lon="-118.3938687">
  <ele>-6.029</ele>
  <time>2026-09-01T01:17:45Z</time>
  <course>260.71</course>
  <speed>0.0316227766016838</speed>
  <fix>3d</fix>
</trkpt>
<trkpt lat="33.8103137" lon="-118.3938687">
  <ele>-6.008</ele>
  <time>2026-09-01T01:17:46Z</time>
  <course>261.2</course>
  <speed>0.0316227766016838</speed>
  <fix>3d</fix>
</trkpt>
<trkpt lat="33.8103135" lon="-118.3938688">
  <ele>-5.67</ele>
  <time>2026-09-01T01:17:46Z</time>
  <course>306.89</course>
  <speed>0.01</speed>
  <fix>3d</fix>
</trkpt>
<trkpt lat="33.8103137" lon="-118.3938687">
  <ele>-6.005</ele>
  <time>2026-09-01T01:17:46Z</time>
  <course>261.27</course>
  <speed>0.0316227766016838</speed>
  <fix>3d</fix>
</trkpt>
<trkpt lat="33.8103137" lon="-118.3938687">
  <ele>-5.988</ele>
  <time>2026-09-01T01:17:46Z</time>
  <course>261.77</course>
  <speed>0.03</speed>
  <fix>3d</fix>
</trkpt>
<trkpt lat="33.8103135" lon="-118.3938688">
  <ele>-5.67</ele>
  <time>2026-09-01T01:17:46Z</time>
  <course>306.89</course>
  <speed>0.01</speed>
  <fix>3d</fix>
</trkpt>
<trkpt lat="33.8103137" lon="-118.3938687">
  <ele>-5.984</ele>
  <time>2026-09-01T01:17:46Z</time>
  <course>261.89</course>
  <speed>0.03</speed>
  <fix>3d</fix>
</trkpt>
<trkpt lat="33.8103137" lon="-118.3938687">
  <ele>-5.973</ele>
  <time>2026-09-01T01:17:46Z</time>
  <course>262.34</course>
  <speed>0.03</speed>
  <fix>3d</fix>
</trkpt>
<trkpt lat="33.8103135" lon="-118.3938688">
  <ele>-5.63</ele>
  <time>2026-09-01T01:17:46Z</time>
  <course>307.55</course>
  <speed>0.01</speed>
  <fix>3d</fix>
</trkpt>
<trkpt lat="33.8103137" lon="-118.3938687">
  <ele>-5.97</ele>
  <time>2026-09-01T01:17:46Z</time>
  <course>262.45</course>
  <speed>0.03</speed>
  <fix>3d</fix>
</trkpt>
<trkpt lat="33.8103137" lon="-118.3938688">
  <ele>-5.961</ele>
  <time>2026-09-01T01:17:46Z</time>
  <course>262.9</course>
  <speed>0.03</speed>
  <fix>3d</fix>
</trkpt>
<trkpt lat="33.8103135" lon="-118.3938688">
  <ele>-5.63</ele>
  <time>2026-09-01T01:17:46Z</time>
  <course>307.55</course>
  <speed>0.01</speed>
  <fix>3d</fix>
</trkpt>
<trkpt lat="33.8103137" lon="-118.3938688">
  <ele>-5.96</ele>
  <time>2026-09-01T01:17:46Z</time>
  <course>262.99</course>
  <speed>0.03</speed>
  <fix>3d</fix>
</trkpt>
<trkpt lat="33.8103137" lon="-118.3938688">
  <ele>-5.942</ele>
  <time>2026-09-01T01:17:46Z</time>
  <course>263.47</course>
  <speed>0.03</speed>
  <fix>3d</fix>
</trkpt>
<trkpt lat="33.8103135" lon="-118.3938688">
  <ele>-5.6</ele>
  <time>2026-09-01T01:17:46Z</time>
  <course>308.21</course>
  <speed>0.01</speed>
  <fix>3d</fix>
</trkpt>
<trkpt lat="33.8103137" lon="-118.3938688">
  <ele>-5.94</ele>
  <time>2026-09-01T01:17:46Z</time>
  <course>263.54</course>
  <speed>0.03</speed>
  <fix>3d</fix>
</trkpt>
<trkpt lat="33.8103137" lon="-118.3938688">
  <ele>-5.913</ele>
  <time>2026-09-01T01:17:46Z</time>
  <course>264.04</course>
  <speed>0.03</speed>
  <fix>3d</fix>
</trkpt>
<trkpt lat="33.8103135" lon="-118.3938688">
  <ele>-5.6</ele>
  <time>2026-09-01T01:17:46Z</time>
  <course>308.21</course>
  <speed>0.01</speed>
  <fix>3d</fix>
</trkpt>
<trkpt lat="33.8103137" lon="-118.3938688">
  <ele>-5.912</ele>
  <time>2026-09-01T01:17:46Z</time>
  <course>264.09</course>
  <speed>0.03</speed>
  <fix>3d</fix>
</trkpt>
<trkpt lat="33.8103137" lon="-118.3938688">
  <ele>-5.889</ele>
  <time>2026-09-01T01:17:46Z</time>
  <course>264.61</course>
  <speed>0.03</speed>
  <fix>3d</fix>
</trkpt>
<trkpt lat="33.8103135" lon="-118.3938688">
  <ele>-5.56</ele>
  <time>2026-09-01T01:17:46Z</time>
  <course>308.88</course>
  <speed>0.01</speed>
  <fix>3d</fix>
</trkpt>
<trkpt lat="33.8103137" lon="-118.3938688">
  <ele>-5.889</ele>
  <time>2026-09-01T01:17:46Z</time>
  <course>264.64</course>
  <speed>0.03</speed>
  <fix>3d</fix>
</trkpt>
<trkpt lat="33.8103137" lon="-118.3938688">
  <ele>-5.868</ele>
  <time>2026-09-01T01:17:46Z</time>
  <course>265.18</course>
  <speed>0.03</speed>
  <fix>3d</fix>
</trkpt>
<trkpt lat="33.8103135" lon="-118.3938688">
  <ele>-5.56</ele>
  <time>2026-09-01T01:17:46Z</time>
  <course>308.88</course>
  <speed>0.01</speed>
  <fix>3d</fix>
</trkpt>
<trkpt lat="33.8103137" lon="-118.3938688">
  <ele>-5.867</ele>
  <time>2026-09-01T01:17:46Z</time>
  <course>265.19</course>
  <speed>0.03</speed>
  <fix>3d</fix>
</trkpt>
<trkpt lat="33.8103137" lon="-118.3938688">
  <ele>-5.838</ele>
  <time>2026-09-01T01:17:46Z</time>
  <course>265.75</course>
  <speed>0.03</speed>
  <fix>3d</fix>
</trkpt>
<trkpt lat="33.8103136" lon="-118.3938689">
  <ele>-5.53</ele>
  <time>2026-09-01T01:17:46Z</time>
  <course>309.59</course>
  <speed>0.01</speed>
  <fix>3d</fix>
</trkpt>
<trkpt lat="33.8103137" lon="-118.3938688">
  <ele>-5.837</ele>
  <time>2026-09-01T01:17:46Z</time>
  <course>265.76</course>
  <speed>0.03</speed>
  <fix>3d</fix>
</trkpt>
<trkpt lat="33.8103137" lon="-118.3938688">
  <ele>-5.801</ele>
  <time>2026-09-01T01:17:46Z</time>
  <course>266.32</course>
  <speed>0.03</speed>
  <fix>3d</fix>
</trkpt>
<trkpt lat="33.8103136" lon="-118.3938689">
  <ele>-5.53</ele>
  <time>2026-09-01T01:17:46Z</time>
  <course>309.59</course>
  <speed>0.01</speed>
  <fix>3d</fix>
</trkpt>
<trkpt lat="33.8103137" lon="-118.3938688">
  <ele>-5.8</ele>
  <time>2026-09-01T01:17:46Z</time>
  <course>266.34</course>
  <speed>0.03</speed>
  <fix>3d</fix>
</trkpt>
<trkpt lat="33.8103138" lon="-118.3938688">
  <ele>-5.761</ele>
  <time>2026-09-01T01:17:46Z</time>
  <course>266.9</course>
  <speed>0.03</speed>
  <fix>3d</fix>
</trkpt>
<trkpt lat="33.8103136" lon="-118.3938689">
  <ele>-5.49</ele>
  <time>2026-09-01T01:17:46Z</time>
  <course>310.33</course>
  <speed>0.01</speed>
  <fix>3d</fix>
</trkpt>
<trkpt lat="33.8103138" lon="-118.3938688">
  <ele>-5.754</ele>
  <time>2026-09-01T01:17:46Z</time>
  <course>267.02</course>
  <speed>0.03</speed>
  <fix>3d</fix>
</trkpt>
<trkpt lat="33.8103138" lon="-118.3938688">
  <ele>-5.722</ele>
  <time>2026-09-01T01:17:46Z</time>
  <course>267.47</course>
  <speed>0.03</speed>
  <fix>3d</fix>
</trkpt>
<trkpt lat="33.8103136" lon="-118.3938689">
  <ele>-5.49</ele>
  <time>2026-09-01T01:17:46Z</time>
  <course>310.33</course>
  <speed>0.01</speed>
  <fix>3d</fix>
</trkpt>
<trkpt lat="33.8103138" lon="-118.3938688">
  <ele>-5.721</ele>
  <time>2026-09-01T01:17:46Z</time>
  <course>267.51</course>
  <speed>0.03</speed>
  <fix>3d</fix>
</trkpt>
<trkpt lat="33.8103138" lon="-118.3938688">
  <ele>-5.682</ele>
  <time>2026-09-01T01:17:46Z</time>
  <course>268.04</course>
  <speed>0.03</speed>
  <fix>3d</fix>
</trkpt>
<trkpt lat="33.8103136" lon="-118.3938689">
  <ele>-5.46</ele>
  <time>2026-09-01T01:17:46Z</time>
  <course>311.06</course>
  <speed>0.01</speed>
  <fix>3d</fix>
</trkpt>
<trkpt lat="33.8103138" lon="-118.3938688">
  <ele>-5.675</ele>
  <time>2026-09-01T01:17:46Z</time>
  <course>268.16</course>
  <speed>0.03</speed>
  <fix>3d</fix>
</trkpt>
<trkpt lat="33.8103138" lon="-118.3938688">
  <ele>-5.647</ele>
  <time>2026-09-01T01:17:46Z</time>
  <course>268.62</course>
  <speed>0.03</speed>
  <fix>3d</fix>
</trkpt>
<trkpt lat="33.8103136" lon="-118.3938689">
  <ele>-5.46</ele>
  <time>2026-09-01T01:17:46Z</time>
  <course>311.06</course>
  <speed>0.01</speed>
  <fix>3d</fix>
</trkpt>
<trkpt lat="33.8103138" lon="-118.3938688">
  <ele>-5.642</ele>
  <time>2026-09-01T01:17:46Z</time>
  <course>268.72</course>
  <speed>0.03</speed>
  <fix>3d</fix>
</trkpt>
<trkpt lat="33.8103138" lon="-118.3938689">
  <ele>-5.619</ele>
  <time>2026-09-01T01:17:46Z</time>
  <course>269.2</course>
  <speed>0.03</speed>
  <fix>3d</fix>
</trkpt>
<trkpt lat="33.8103136" lon="-118.3938689">
  <ele>-5.43</ele>
  <time>2026-09-01T01:17:46Z</time>
  <course>311.77</course>
  <speed>0.01</speed>
  <fix>3d</fix>
</trkpt>
<trkpt lat="33.8103138" lon="-118.3938689">
  <ele>-5.615</ele>
  <time>2026-09-01T01:17:46Z</time>
  <course>269.28</course>
  <speed>0.03</speed>
  <fix>3d</fix>
</trkpt>
<trkpt lat="33.8103138" lon="-118.3938689">
  <ele>-5.599</ele>
  <time>2026-09-01T01:17:46Z</time>
  <course>269.78</course>
  <speed>0.03</speed>
  <fix>3d</fix>
</trkpt>
<trkpt lat="33.8103136" lon="-118.3938689">
  <ele>-5.43</ele>
  <time>2026-09-01T01:17:46Z</time>
  <course>311.77</course>
  <speed>0.01</speed>
  <fix>3d</fix>
</trkpt>
<trkpt lat="33.8103138" lon="-118.3938689">
  <ele>-5.598</ele>
  <time>2026-09-01T01:17:46Z</time>
  <course>269.84</course>
  <speed>0.03</speed>
  <fix>3d</fix>
</trkpt>
<trkpt lat="33.8103138" lon="-118.3938689">
  <ele>-5.58</ele>
  <time>2026-09-01T01:17:46Z</time>
  <course>270.36</course>
  <speed>0.03</speed>
  <fix>3d</fix>
</trkpt>
<trkpt lat="33.8103136" lon="-118.393869">
  <ele>-5.39</ele>
  <time>2026-09-01T01:17:46Z</time>
  <course>312.5</course>
  <speed>0.01</speed>
  <fix>3d</fix>
</trkpt>
<trkpt lat="33.8103138" lon="-118.3938689">
  <ele>-5.578</ele>
  <time>2026-09-01T01:17:46Z</time>
  <course>270.4</course>
  <speed>0.03</speed>
  <fix>3d</fix>
</trkpt>
<trkpt lat="33.8103138" lon="-118.3938689">
  <ele>-5.554</ele>
  <time>2026-09-01T01:17:46Z</time>
  <course>270.93</course>
  <speed>0.03</speed>
  <fix>3d</fix>
</trkpt>
<trkpt lat="33.8103136" lon="-118.393869">
  <ele>-5.39</ele>
  <time>2026-09-01T01:17:46Z</time>
  <course>312.5</course>
  <speed>0.01</speed>
  <fix>3d</fix>
</trkpt>
<trkpt lat="33.8103138" lon="-118.3938689">
  <ele>-5.553</ele>
  <time>2026-09-01T01:17:46Z</time>
  <course>270.96</course>
  <speed>0.03</speed>
  <fix>3d</fix>
</trkpt>
<trkpt lat="33.8103138" lon="-118.3938689">
  <ele>-5.53</ele>
  <time>2026-09-01T01:17:46Z</time>
  <course>271.52</course>
  <speed>0.03</speed>
  <fix>3d</fix>
</trkpt>
<trkpt lat="33.8103136" lon="-118.393869">
  <ele>-5.36</ele>
  <time>2026-09-01T01:17:46Z</time>
  <course>313.25</course>
  <speed>0.01</speed>
  <fix>3d</fix>
</trkpt>
<trkpt lat="33.8103138" lon="-118.3938689">
  <ele>-5.529</ele>
  <time>2026-09-01T01:17:46Z</time>
  <course>271.53</course>
  <speed>0.03</speed>
  <fix>3d</fix>
</trkpt>
<trkpt lat="33.8103138" lon="-118.3938689">
  <ele>-5.517</ele>
  <time>2026-09-01T01:17:46Z</time>
  <course>272.09</course>
  <speed>0.03</speed>
  <fix>3d</fix>
</trkpt>
<trkpt lat="33.8103136" lon="-118.393869">
  <ele>-5.36</ele>
  <time>2026-09-01T01:17:46Z</time>
  <course>313.25</course>
  <speed>0.01</speed>
  <fix>3d</fix>
</trkpt>
<trkpt lat="33.8103138" lon="-118.3938689">
  <ele>-5.515</ele>
  <time>2026-09-01T01:17:46Z</time>
  <course>272.14</course>
  <speed>0.03</speed>
  <fix>3d</fix>
</trkpt>
<trkpt lat="33.8103138" lon="-118.3938689">
  <ele>-5.512</ele>
  <time>2026-09-01T01:17:46Z</time>
  <course>272.68</course>
  <speed>0.03</speed>
  <fix>3d</fix>
</trkpt>
<trkpt lat="33.8103137" lon="-118.393869">
  <ele>-5.32</ele>
  <time>2026-09-01T01:17:46Z</time>
  <course>314.04</course>
  <speed>0.01</speed>
  <fix>3d</fix>
</trkpt>
<trkpt lat="33.8103138" lon="-118.3938689">
  <ele>-5.511</ele>
  <time>2026-09-01T01:17:46Z</time>
  <course>272.7</course>
  <speed>0.03</speed>
  <fix>3d</fix>
</trkpt>
<trkpt lat="33.8103138" lon="-118.3938689">
  <ele>-5.503</ele>
  <time>2026-09-01T01:17:46Z</time>
  <course>273.26</course>
  <speed>0.03</speed>
  <fix>3d</fix>
</trkpt>
<trkpt lat="33.8103137" lon="-118.393869">
  <ele>-5.32</ele>
  <time>2026-09-01T01:17:46Z</time>
  <course>314.04</course>
  <speed>0.01</speed>
  <fix>3d</fix>
</trkpt>
<trkpt lat="33.8103139" lon="-118.3938689">
  <ele>-5.5</ele>
  <time>2026-09-01T01:17:46Z</time>
  <course>273.4</course>
  <speed>0.03</speed>
  <fix>3d</fix>
</trkpt>
<trkpt lat="33.8103139" lon="-118.3938689">
  <ele>-5.497</ele>
  <time>2026-09-01T01:17:46Z</time>
  <course>273.84</course>
  <speed>0.03</speed>
  <fix>3d</fix>
</trkpt>
<trkpt lat="33.8103137" lon="-118.393869">
  <ele>-5.29</ele>
  <time>2026-09-01T01:17:46Z</time>
  <course>314.82</course>
  <speed>0.01</speed>
  <fix>3d</fix>
</trkpt>
<trkpt lat="33.8103139" lon="-118.3938689">
  <ele>-5.497</ele>
  <time>2026-09-01T01:17:46Z</time>
  <course>273.97</course>
  <speed>0.03</speed>
  <fix>3d</fix>
</trkpt>
<trkpt lat="33.8103139" lon="-118.3938689">
  <ele>-5.494</ele>
  <time>2026-09-01T01:17:46Z</time>
  <course>274.43</course>
  <speed>0.03</speed>
  <fix>3d</fix>
</trkpt>
<trkpt lat="33.8103137" lon="-118.393869">
  <ele>-5.29</ele>
  <time>2026-09-01T01:17:46Z</time>
  <course>314.82</course>
  <speed>0.01</speed>
  <fix>3d</fix>
</trkpt>
<trkpt lat="33.8103139" lon="-118.393869">
  <ele>-5.492</ele>
  <time>2026-09-01T01:17:46Z</time>
  <course>274.54</course>
  <speed>0.03</speed>
  <fix>3d</fix>
</trkpt>
<trkpt lat="33.8103139" lon="-118.393869">
  <ele>-5.483</ele>
  <time>2026-09-01T01:17:46Z</time>
  <course>275.01</course>
  <speed>0.03</speed>
  <fix>3d</fix>
</trkpt>
<trkpt lat="33.8103137" lon="-118.393869">
  <ele>-5.25</ele>
  <time>2026-09-01T01:17:46Z</time>
  <course>315.58</course>
  <speed>0.01</speed>
  <fix>3d</fix>
</trkpt>
<trkpt lat="33.8103139" lon="-118.393869">
  <ele>-5.481</ele>
  <time>2026-09-01T01:17:46Z</time>
  <course>275.1</course>
  <speed>0.03</speed>
  <fix>3d</fix>
</trkpt>
<trkpt lat="33.8103139" lon="-118.393869">
  <ele>-5.469</ele>
  <time>2026-09-01T01:17:46Z</time>
  <course>275.59</course>
  <speed>0.03</speed>
  <fix>3d</fix>
</trkpt>
<trkpt lat="33.8103137" lon="-118.393869">
  <ele>-5.25</ele>
  <time>2026-09-01T01:17:46Z</time>
  <course>315.58</course>
  <speed>0.01</speed>
  <fix>3d</fix>
</trkpt>
<trkpt lat="33.8103139" lon="-118.393869">
  <ele>-5.469</ele>
  <time>2026-09-01T01:17:46Z</time>
  <course>275.6</course>
  <speed>0.03</speed>
  <fix>3d</fix>
</trkpt>
<trkpt lat="33.8103139" lon="-118.393869">
  <ele>-5.46</ele>
  <time>2026-09-01T01:17:46Z</time>
  <course>276.18</course>
  <speed>0.03</speed>
  <fix>3d</fix>
</trkpt>
<trkpt lat="33.8103137" lon="-118.3938691">
  <ele>-5.22</ele>
  <time>2026-09-01T01:17:46Z</time>
  <course>316.36</course>
  <speed>0.01</speed>
  <fix>3d</fix>
</trkpt>
<trkpt lat="33.8103139" lon="-118.393869">
  <ele>-5.46</ele>
  <time>2026-09-01T01:17:46Z</time>
  <course>276.25</course>
  <speed>0.03</speed>
  <fix>3d</fix>
</trkpt>
<trkpt lat="33.8103139" lon="-118.393869">
  <ele>-5.453</ele>
  <time>2026-09-01T01:17:46Z</time>
  <course>276.77</course>
  <speed>0.03</speed>
  <fix>3d</fix>
</trkpt>
<trkpt lat="33.8103137" lon="-118.3938691">
  <ele>-5.22</ele>
  <time>2026-09-01T01:17:46Z</time>
  <course>316.36</course>
  <speed>0.01</speed>
  <fix>3d</fix>
</trkpt>
<trkpt lat="33.8103139" lon="-118.393869">
  <ele>-5.452</ele>
  <time>2026-09-01T01:17:46Z</time>
  <course>276.78</course>
  <speed>0.03</speed>
  <fix>3d</fix>
</trkpt>
<trkpt lat="33.8103139" lon="-118.393869">
  <ele>-5.449</ele>
  <time>2026-09-01T01:17:46Z</time>
  <course>277.35</course>
  <speed>0.03</speed>
  <fix>3d</fix>
</trkpt>
<trkpt lat="33.8103137" lon="-118.3938691">
  <ele>-5.18</ele>
  <time>2026-09-01T01:17:46Z</time>
  <course>317.15</course>
  <speed>0.01</speed>
  <fix>3d</fix>
</trkpt>
<trkpt lat="33.8103139" lon="-118.393869">
  <ele>-5.449</ele>
  <time>2026-09-01T01:17:46Z</time>
  <course>277.37</course>
  <speed>0.03</speed>
  <fix>3d</fix>
</trkpt>
<trkpt lat="33.8103139" lon="-118.393869">
  <ele>-5.443</ele>
  <time>2026-09-01T01:17:46Z</time>
  <course>277.94</course>
  <speed>0.03</speed>
  <fix>3d</fix>
</trkpt>
<trkpt lat="33.8103137" lon="-118.3938691">
  <ele>-5.18</ele>
  <time>2026-09-01T01:17:46Z</time>
  <course>317.15</course>
  <speed>0.01</speed>
  <fix>3d</fix>
</trkpt>
<trkpt lat="33.8103139" lon="-118.393869">
  <ele>-5.443</ele>
  <time>2026-09-01T01:17:46Z</time>
  <course>277.95</course>
  <speed>0.03</speed>
  <fix>3d</fix>
</trkpt>
<trkpt lat="33.8103139" lon="-118.393869">
  <ele>-5.438</ele>
  <time>2026-09-01T01:17:46Z</time>
  <course>278.53</course>
  <speed>0.03</speed>
  <fix>3d</fix>
</trkpt>
<trkpt lat="33.8103137" lon="-118.3938691">
  <ele>-5.15</ele>
  <time>2026-09-01T01:17:46Z</time>
  <course>317.99</course>
  <speed>0.01</speed>
  <fix>3d</fix>
</trkpt>
<trkpt lat="33.8103139" lon="-118.393869">
  <ele>-5.437</ele>
  <time>2026-09-01T01:17:46Z</time>
  <course>278.68</course>
  <speed>0.03</speed>
  <fix>3d</fix>
</trkpt>
<trkpt lat="33.8103139" lon="-118.393869">
  <ele>-5.433</ele>
  <time>2026-09-01T01:17:46Z</time>
  <course>279.12</course>
  <speed>0.03</speed>
  <fix>3d</fix>
</trkpt>
<trkpt lat="33.8103137" lon="-118.3938691">
  <ele>-5.15</ele>
  <time>2026-09-01T01:17:46Z</time>
  <course>317.99</course>
  <speed>0.01</speed>
  <fix>3d</fix>
</trkpt>
<trkpt lat="33.8103139" lon="-118.393869">
  <ele>-5.431</ele>
  <time>2026-09-01T01:17:46Z</time>
  <course>279.24</course>
  <speed>0.03</speed>
  <fix>3d</fix>
</trkpt>
<trkpt lat="33.8103139" lon="-118.393869">
  <ele>-5.426</ele>
  <time>2026-09-01T01:17:46Z</time>
  <course>279.71</course>
  <speed>0.03</speed>
  <fix>3d</fix>
</trkpt>
<trkpt lat="33.8103137" lon="-118.3938691">
  <ele>-5.11</ele>
  <time>2026-09-01T01:17:46Z</time>
  <course>318.83</course>
  <speed>0.01</speed>
  <fix>3d</fix>
</trkpt>
<trkpt lat="33.8103139" lon="-118.393869">
  <ele>-5.424</ele>
  <time>2026-09-01T01:17:46Z</time>
  <course>279.81</course>
  <speed>0.03</speed>
  <fix>3d</fix>
</trkpt>
<trkpt lat="33.8103139" lon="-118.393869">
  <ele>-5.408</ele>
  <time>2026-09-01T01:17:46Z</time>
  <course>280.3</course>
  <speed>0.03</speed>
  <fix>3d</fix>
</trkpt>
<trkpt lat="33.8103137" lon="-118.3938691">
  <ele>-5.11</ele>
  <time>2026-09-01T01:17:46Z</time>
  <course>318.83</course>
  <speed>0.01</speed>
  <fix>3d</fix>
</trkpt>
<trkpt lat="33.8103139" lon="-118.393869">
  <ele>-5.405</ele>
  <time>2026-09-01T01:17:46Z</time>
  <course>280.37</course>
  <speed>0.03</speed>
  <fix>3d</fix>
</trkpt>
<trkpt lat="33.8103139" lon="-118.393869">
  <ele>-5.391</ele>
  <time>2026-09-01T01:17:46Z</time>
  <course>280.89</course>
  <speed>0.03</speed>
  <fix>3d</fix>
</trkpt>
<trkpt lat="33.8103137" lon="-118.3938692">
  <ele>-5.08</ele>
  <time>2026-09-01T01:17:46Z</time>
  <course>319.65</course>
  <speed>0.01</speed>
  <fix>3d</fix>
</trkpt>
<trkpt lat="33.8103139" lon="-118.393869">
  <ele>-5.39</ele>
  <time>2026-09-01T01:17:46Z</time>
  <course>280.95</course>
  <speed>0.03</speed>
  <fix>3d</fix>
</trkpt>
<trkpt lat="33.8103139" lon="-118.3938691">
  <ele>-5.379</ele>
  <time>2026-09-01T01:17:46Z</time>
  <course>281.48</course>
  <speed>0.03</speed>
  <fix>3d</fix>
</trkpt>
<trkpt lat="33.8103137" lon="-118.3938692">
  <ele>-5.08</ele>
  <time>2026-09-01T01:17:46Z</time>
  <course>319.65</course>
  <speed>0.01</speed>
  <fix>3d</fix>
</trkpt>
<trkpt lat="33.8103139" lon="-118.3938691">
  <ele>-5.378</ele>
  <time>2026-09-01T01:17:46Z</time>
  <course>281.51</course>
  <speed>0.03</speed>
  <fix>3d</fix>
</trkpt>
<trkpt lat="33.8103139" lon="-118.3938691">
  <ele>-5.367</ele>
  <time>2026-09-01T01:17:46Z</time>
  <course>282.07</course>
  <speed>0.03</speed>
  <fix>3d</fix>
</trkpt>
<trkpt lat="33.8103137" lon="-118.3938692">
  <ele>-5.04</ele>
  <time>2026-09-01T01:17:46Z</time>
  <course>320.47</course>
  <speed>0.01</speed>
  <fix>3d</fix>
</trkpt>
<trkpt lat="33.8103139" lon="-118.3938691">
  <ele>-5.367</ele>
  <time>2026-09-01T01:17:46Z</time>
  <course>282.12</course>
  <speed>0.03</speed>
  <fix>3d</fix>
</trkpt>
<trkpt lat="33.8103139" lon="-118.3938691">
  <ele>-5.347</ele>
  <time>2026-09-01T01:17:46Z</time>
  <course>282.67</course>
  <speed>0.03</speed>
  <fix>3d</fix>
</trkpt>
<trkpt lat="33.8103137" lon="-118.3938692">
  <ele>-5.04</ele>
  <time>2026-09-01T01:17:46Z</time>
  <course>320.47</course>
  <speed>0.01</speed>
  <fix>3d</fix>
</trkpt>
<trkpt lat="33.810314" lon="-118.3938691">
  <ele>-5.34</ele>
  <time>2026-09-01T01:17:46Z</time>
  <course>282.82</course>
  <speed>0.03</speed>
  <fix>3d</fix>
</trkpt>
<trkpt lat="33.810314" lon="-118.3938691">
  <ele>-5.323</ele>
  <time>2026-09-01T01:17:46Z</time>
  <course>283.26</course>
  <speed>0.03</speed>
  <fix>3d</fix>
</trkpt>
<trkpt lat="33.8103138" lon="-118.3938692">
  <ele>-5.01</ele>
  <time>2026-09-01T01:17:46Z</time>
  <course>321.32</course>
  <speed>0.01</speed>
  <fix>3d</fix>
</trkpt>
<trkpt lat="33.810314" lon="-118.3938691">
  <ele>-5.317</ele>
  <time>2026-09-01T01:17:46Z</time>
  <course>283.39</course>
  <speed>0.03</speed>
  <fix>3d</fix>
</trkpt>
<trkpt lat="33.810314" lon="-118.3938691">
  <ele>-5.296</ele>
  <time>2026-09-01T01:17:46Z</time>
  <course>283.85</course>
  <speed>0.03</speed>
  <fix>3d</fix>
</trkpt>
<trkpt lat="33.8103138" lon="-118.3938692">
  <ele>-5.01</ele>
  <time>2026-09-01T01:17:46Z</time>
  <course>321.32</course>
  <speed>0.01</speed>
  <fix>3d</fix>
</trkpt>
<trkpt lat="33.810314" lon="-118.3938691">
  <ele>-5.296</ele>
  <time>2026-09-01T01:17:46Z</time>
  <course>283.87</course>
  <speed>0.03</speed>
  <fix>3d</fix>
</trkpt>
<trkpt lat="33.810314" lon="-118.3938691">
  <ele>-5.262</ele>
  <time>2026-09-01T01:17:47Z</time>
  <course>284.45</course>
  <speed>0.03</speed>
  <fix>3d</fix>
</trkpt>
<trkpt lat="33.8103139" lon="-118.3938692">
  <ele>-4.97</ele>
  <time>2026-09-01T01:17:47Z</time>
  <course>322.19</course>
  <speed>0.01</speed>
  <fix>3d</fix>
</trkpt>
<trkpt lat="33.810314" lon="-118.3938691">
  <ele>-5.254</ele>
  <time>2026-09-01T01:17:47Z</time>
  <course>284.6</course>
  <speed>0.03</speed>
  <fix>3d</fix>
</trkpt>
<trkpt lat="33.810314" lon="-118.3938691">
  <ele>-5.225</ele>
  <time>2026-09-01T01:17:47Z</time>
  <course>285.04</course>
  <speed>0.03</speed>
  <fix>3d</fix>
</trkpt>
<trkpt lat="33.8103139" lon="-118.3938692">
  <ele>-4.97</ele>
  <time>2026-09-01T01:17:47Z</time>
  <course>322.19</course>
  <speed>0.01</speed>
  <fix>3d</fix>
</trkpt>
<trkpt lat="33.810314" lon="-118.3938691">
  <ele>-5.215</ele>
  <time>2026-09-01T01:17:47Z</time>
  <course>285.18</course>
  <speed>0.03</speed>
  <fix>3d</fix>
</trkpt>
<trkpt lat="33.810314" lon="-118.3938691">
  <ele>-5.188</ele>
  <time>2026-09-01T01:17:47Z</time>
  <course>285.64</course>
  <speed>0.03</speed>
  <fix>3d</fix>
</trkpt>
<trkpt lat="33.8103139" lon="-118.3938692">
  <ele>-4.94</ele>
  <time>2026-09-01T01:17:47Z</time>
  <course>323.09</course>
  <speed>0.01</speed>
  <fix>3d</fix>
</trkpt>
<trkpt lat="33.810314" lon="-118.3938691">
  <ele>-5.183</ele>
  <time>2026-09-01T01:17:47Z</time>
  <course>285.74</course>
  <speed>0.03</speed>
  <fix>3d</fix>
</trkpt>
<trkpt lat="33.810314" lon="-118.3938691">
  <ele>-5.157</ele>
  <time>2026-09-01T01:17:47Z</time>
  <course>286.24</course>
  <speed>0.03</speed>
  <fix>3d</fix>
</trkpt>
<trkpt lat="33.8103139" lon="-118.3938692">
  <ele>-4.94</ele>
  <time>2026-09-01T01:17:47Z</time>
  <course>323.09</course>
  <speed>0.01</speed>
  <fix>3d</fix>
</trkpt>
<trkpt lat="33.810314" lon="-118.3938691">
  <ele>-5.153</ele>
  <time>2026-09-01T01:17:47Z</time>
  <course>286.32</course>
  <speed>0.03</speed>
  <fix>3d</fix>
</trkpt>
<trkpt lat="33.810314" lon="-118.3938691">
  <ele>-5.131</ele>
  <time>2026-09-01T01:17:47Z</time>
  <course>286.83</course>
  <speed>0.03</speed>
  <fix>3d</fix>
</trkpt>
<trkpt lat="33.8103139" lon="-118.3938693">
  <ele>-4.9</ele>
  <time>2026-09-01T01:17:47Z</time>
  <course>323.97</course>
  <speed>0.01</speed>
  <fix>3d</fix>
</trkpt>
<trkpt lat="33.810314" lon="-118.3938691">
  <ele>-5.128</ele>
  <time>2026-09-01T01:17:47Z</time>
  <course>286.9</course>
  <speed>0.03</speed>
  <fix>3d</fix>
</trkpt>
<trkpt lat="33.810314" lon="-118.3938691">
  <ele>-5.11</ele>
  <time>2026-09-01T01:17:47Z</time>
  <course>287.43</course>
  <speed>0.03</speed>
  <fix>3d</fix>
</trkpt>
<trkpt lat="33.8103139" lon="-118.3938693">
  <ele>-4.9</ele>
  <time>2026-09-01T01:17:47Z</time>
  <course>323.97</course>
  <speed>0.01</speed>
  <fix>3d</fix>
</trkpt>
<trkpt lat="33.810314" lon="-118.3938691">
  <ele>-5.107</ele>
  <time>2026-09-01T01:17:47Z</time>
  <course>287.49</course>
  <speed>0.03</speed>
  <fix>3d</fix>
</trkpt>
<trkpt lat="33.810314" lon="-118.3938691">
  <ele>-5.091</ele>
  <time>2026-09-01T01:17:47Z</time>
  <course>288.03</course>
  <speed>0.03</speed>
  <fix>3d</fix>
</trkpt>
<trkpt lat="33.8103139" lon="-118.3938693">
  <ele>-4.86</ele>
  <time>2026-09-01T01:17:47Z</time>
  <course>324.83</course>
  <speed>0.01</speed>
  <fix>3d</fix>
</trkpt>
<trkpt lat="33.810314" lon="-118.3938691">
  <ele>-5.09</ele>
  <time>2026-09-01T01:17:47Z</time>
  <course>288.06</course>
  <speed>0.03</speed>
  <fix>3d</fix>
</trkpt>
<trkpt lat="33.8103141" lon="-118.3938691">
  <ele>-5.072</ele>
  <time>2026-09-01T01:17:47Z</time>
  <course>288.63</course>
  <speed>0.03</speed>
  <fix>3d</fix>
</trkpt>
<trkpt lat="33.8103139" lon="-118.3938693">
  <ele>-4.86</ele>
  <time>2026-09-01T01:17:47Z</time>
  <course>324.83</course>
  <speed>0.01</speed>
  <fix>3d</fix>
</trkpt>
<trkpt lat="33.8103141" lon="-118.3938691">
  <ele>-5.071</ele>
  <time>2026-09-01T01:17:47Z</time>
  <course>288.66</course>
  <speed>0.03</speed>
  <fix>3d</fix>
</trkpt>
<trkpt lat="33.8103141" lon="-118.3938692">
  <ele>-5.052</ele>
  <time>2026-09-01T01:17:47Z</time>
  <course>289.22</course>
  <speed>0.03</speed>
  <fix>3d</fix>
</trkpt>
<trkpt lat="33.810314" lon="-118.3938693">
  <ele>-4.83</ele>
  <time>2026-09-01T01:17:47Z</time>
  <course>325.71</course>
  <speed>0.01</speed>
  <fix>3d</fix>
</trkpt>
<trkpt lat="33.8103141" lon="-118.3938692">
  <ele>-5.051</ele>
  <time>2026-09-01T01:17:47Z</time>
  <course>289.24</course>
  <speed>0.03</speed>
  <fix>3d</fix>
</trkpt>
<trkpt lat="33.8103141" lon="-118.3938692">
  <ele>-5.03</ele>
  <time>2026-09-01T01:17:47Z</time>
  <course>289.82</course>
  <speed>0.03</speed>
  <fix>3d</fix>
</trkpt>
<trkpt lat="33.810314" lon="-118.3938693">
  <ele>-4.83</ele>
  <time>2026-09-01T01:17:47Z</time>
  <course>325.71</course>
  <speed>0.01</speed>
  <fix>3d</fix>
</trkpt>
<trkpt lat="33.8103141" lon="-118.3938692">
  <ele>-5.029</ele>
  <time>2026-09-01T01:17:47Z</time>
  <course>289.86</course>
  <speed>0.03</speed>
  <fix>3d</fix>
</trkpt>
<trkpt lat="33.8103141" lon="-118.3938692">
  <ele>-5.008</ele>
  <time>2026-09-01T01:17:47Z</time>
  <course>290.42</course>
  <speed>0.03</speed>
  <fix>3d</fix>
</trkpt>
<trkpt lat="33.810314" lon="-118.3938693">
  <ele>-4.79</ele>
  <time>2026-09-01T01:17:47Z</time>
  <course>326.62</course>
  <speed>0.01</speed>
  <fix>3d</fix>
</trkpt>
<trkpt lat="33.8103141" lon="-118.3938692">
  <ele>-5.008</ele>
  <time>2026-09-01T01:17:47Z</time>
  <course>290.44</course>
  <speed>0.03</speed>
  <fix>3d</fix>
</trkpt>
<trkpt lat="33.8103141" lon="-118.3938692">
  <ele>-4.992</ele>
  <time>2026-09-01T01:17:47Z</time>
  <course>291.03</course>
  <speed>0.03</speed>
  <fix>3d</fix>
</trkpt>
<trkpt lat="33.810314" lon="-118.3938693">
  <ele>-4.79</ele>
  <time>2026-09-01T01:17:47Z</time>
  <course>326.62</course>
  <speed>0.01</speed>
  <fix>3d</fix>
</trkpt>
<trkpt lat="33.8103141" lon="-118.3938692">
  <ele>-4.988</ele>
  <time>2026-09-01T01:17:47Z</time>
  <course>291.15</course>
  <speed>0.03</speed>
  <fix>3d</fix>
</trkpt>
<trkpt lat="33.8103141" lon="-118.3938692">
  <ele>-4.97</ele>
  <time>2026-09-01T01:17:47Z</time>
  <course>291.63</course>
  <speed>0.03</speed>
  <fix>3d</fix>
</trkpt>
<trkpt lat="33.810314" lon="-118.3938693">
  <ele>-4.76</ele>
  <time>2026-09-01T01:17:47Z</time>
  <course>327.57</course>
  <speed>0.01</speed>
  <fix>3d</fix>
</trkpt>
<trkpt lat="33.8103141" lon="-118.3938692">
  <ele>-4.967</ele>
  <time>2026-09-01T01:17:47Z</time>
  <course>291.73</course>
  <speed>0.03</speed>
  <fix>3d</fix>
</trkpt>
<trkpt lat="33.8103141" lon="-118.3938692">
  <ele>-4.948</ele>
  <time>2026-09-01T01:17:47Z</time>
  <course>292.23</course>
  <speed>0.03</speed>
  <fix>3d</fix>
</trkpt>
<trkpt lat="33.810314" lon="-118.3938693">
  <ele>-4.76</ele>
  <time>2026-09-01T01:17:47Z</time>
  <course>327.57</course>
  <speed>0.01</speed>
  <fix>3d</fix>
</trkpt>
<trkpt lat="33.8103141" lon="-118.3938692">
  <ele>-4.945</ele>
  <time>2026-09-01T01:17:47Z</time>
  <course>292.32</course>
  <speed>0.03</speed>
  <fix>3d</fix>
</trkpt>
<trkpt lat="33.8103141" lon="-118.3938692">
  <ele>-4.927</ele>
  <time>2026-09-01T01:17:47Z</time>
  <course>292.83</course>
  <speed>0.03</speed>
  <fix>3d</fix>
</trkpt>
<trkpt lat="33.810314" lon="-118.3938694">
  <ele>-4.72</ele>
  <time>2026-09-01T01:17:47Z</time>
  <course>328.5</course>
  <speed>0.01</speed>
  <fix>3d</fix>
</trkpt>
<trkpt lat="33.8103141" lon="-118.3938692">
  <ele>-4.925</ele>
  <time>2026-09-01T01:17:47Z</time>
  <course>292.92</course>
  <speed>0.03</speed>
  <fix>3d</fix>
</trkpt>
<trkpt lat="33.8103142" lon="-118.3938692">
  <ele>-4.91</ele>
  <time>2026-09-01T01:17:47Z</time>
  <course>293.44</course>
  <speed>0.03</speed>
  <fix>3d</fix>
</trkpt>
<trkpt lat="33.810314" lon="-118.3938694">
  <ele>-4.72</ele>
  <time>2026-09-01T01:17:47Z</time>
  <course>328.5</course>
  <speed>0.01</speed>
  <fix>3d</fix>
</trkpt>
<trkpt lat="33.8103142" lon="-118.3938692">
  <ele>-4.908</ele>
  <time>2026-09-01T01:17:47Z</time>
  <course>293.51</course>
  <speed>0.03</speed>
  <fix>3d</fix>
</trkpt>
<trkpt lat="33.8103142" lon="-118.3938692">
  <ele>-4.892</ele>
  <time>2026-09-01T01:17:47Z</time>
  <course>294.04</course>
  <speed>0.03</speed>
  <fix>3d</fix>
</trkpt>
<trkpt lat="33.810314" lon="-118.3938694">
  <ele>-4.68</ele>
  <time>2026-09-01T01:17:47Z</time>
  <course>329.4</course>
  <speed>0.01</speed>
  <fix>3d</fix>
</trkpt>
<trkpt lat="33.8103142" lon="-118.3938692">
  <ele>-4.889</ele>
  <time>2026-09-01T01:17:47Z</time>
  <course>294.13</course>
  <speed>0.03</speed>
  <fix>3d</fix>
</trkpt>
<trkpt lat="33.8103142" lon="-118.3938692">
  <ele>-4.874</ele>
  <time>2026-09-01T01:17:47Z</time>
  <course>294.65</course>
  <speed>0.03</speed>
  <fix>3d</fix>
</trkpt>
<trkpt lat="33.810314" lon="-118.3938694">
  <ele>-4.68</ele>
  <time>2026-09-01T01:17:47Z</time>
  <course>329.4</course>
  <speed>0.01</speed>
  <fix>3d</fix>
</trkpt>
<trkpt lat="33.8103142" lon="-118.3938692">
  <ele>-4.873</ele>
  <time>2026-09-01T01:17:47Z</time>
  <course>294.71</course>
  <speed>0.03</speed>
  <fix>3d</fix>
</trkpt>
<trkpt lat="33.8103142" lon="-118.3938692">
  <ele>-4.863</ele>
  <time>2026-09-01T01:17:47Z</time>
  <course>295.25</course>
  <speed>0.03</speed>
  <fix>3d</fix>
</trkpt>
<trkpt lat="33.8103141" lon="-118.3938694">
  <ele>-4.65</ele>
  <time>2026-09-01T01:17:47Z</time>
  <course>330.32</course>
  <speed>0.01</speed>
  <fix>3d</fix>
</trkpt>
<trkpt lat="33.8103142" lon="-118.3938692">
  <ele>-4.863</ele>
  <time>2026-09-01T01:17:47Z</time>
  <course>295.3</course>
  <speed>0.03</speed>
  <fix>3d</fix>
</trkpt>
<trkpt lat="33.8103142" lon="-118.3938692">
  <ele>-4.854</ele>
  <time>2026-09-01T01:17:47Z</time>
  <course>295.86</course>
  <speed>0.03</speed>
  <fix>3d</fix>
</trkpt>
<trkpt lat="33.8103141" lon="-118.3938694">
  <ele>-4.65</ele>
  <time>2026-09-01T01:17:47Z</time>
  <course>330.32</course>
  <speed>0.01</speed>
  <fix>3d</fix>
</trkpt>
<trkpt lat="33.8103142" lon="-118.3938692">
  <ele>-4.854</ele>
  <time>2026-09-01T01:17:47Z</time>
  <course>295.9</course>
  <speed>0.03</speed>
  <fix>3d</fix>
</trkpt>
<trkpt lat="33.8103142" lon="-118.3938692">
  <ele>-4.845</ele>
  <time>2026-09-01T01:17:47Z</time>
  <course>296.46</course>
  <speed>0.03</speed>
  <fix>3d</fix>
</trkpt>
<trkpt lat="33.8103141" lon="-118.3938694">
  <ele>-4.61</ele>
  <time>2026-09-01T01:17:47Z</time>
  <course>331.27</course>
  <speed>0.01</speed>
  <fix>3d</fix>
</trkpt>
<trkpt lat="33.8103142" lon="-118.3938692">
  <ele>-4.844</ele>
  <time>2026-09-01T01:17:47Z</time>
  <course>296.48</course>
  <speed>0.03</speed>
  <fix>3d</fix>
</trkpt>
<trkpt lat="33.8103142" lon="-118.3938692">
  <ele>-4.831</ele>
  <time>2026-09-01T01:17:47Z</time>
  <course>297.07</course>
  <speed>0.03</speed>
  <fix>3d</fix>
</trkpt>
<trkpt lat="33.8103141" lon="-118.3938694">
  <ele>-4.61</ele>
  <time>2026-09-01T01:17:47Z</time>
  <course>331.27</course>
  <speed>0.01</speed>
  <fix>3d</fix>
</trkpt>
<trkpt lat="33.8103142" lon="-118.3938692">
  <ele>-4.83</ele>
  <time>2026-09-01T01:17:47Z</time>
  <course>297.13</course>
  <speed>0.03</speed>
  <fix>3d</fix>
</trkpt>
<trkpt lat="33.8103142" lon="-118.3938692">
  <ele>-4.82</ele>
  <time>2026-09-01T01:17:47Z</time>
  <course>297.67</course>
  <speed>0.03</speed>
  <fix>3d</fix>
</trkpt>
<trkpt lat="33.8103141" lon="-118.3938694">
  <ele>-4.58</ele>
  <time>2026-09-01T01:17:47Z</time>
  <course>332.26</course>
  <speed>0.01</speed>
  <fix>3d</fix>
</trkpt>
<trkpt lat="33.8103142" lon="-118.3938692">
  <ele>-4.821</ele>
  <time>2026-09-01T01:17:47Z</time>
  <course>297.72</course>
  <speed>0.03</speed>
  <fix>3d</fix>
</trkpt>
<trkpt lat="33.8103143" lon="-118.3938692">
  <ele>-4.819</ele>
  <time>2026-09-01T01:17:47Z</time>
  <course>298.28</course>
  <speed>0.03</speed>
  <fix>3d</fix>
</trkpt>
<trkpt lat="33.8103141" lon="-118.3938694">
  <ele>-4.58</ele>
  <time>2026-09-01T01:17:47Z</time>
  <course>332.26</course>
  <speed>0.01</speed>
  <fix>3d</fix>
</trkpt>
<trkpt lat="33.8103142" lon="-118.3938692">
  <ele>-4.82</ele>
  <time>2026-09-01T01:17:47Z</time>
  <course>298.31</course>
  <speed>0.03</speed>
  <fix>3d</fix>
</trkpt>
<trkpt lat="33.8103143" lon="-118.3938692">
  <ele>-4.818</ele>
  <time>2026-09-01T01:17:47Z</time>
  <course>298.89</course>
  <speed>0.03</speed>
  <fix>3d</fix>
</trkpt>
<trkpt lat="33.8103141" lon="-118.3938694">
  <ele>-4.54</ele>
  <time>2026-09-01T01:17:47Z</time>
  <course>333.24</course>
  <speed>0.01</speed>
  <fix>3d</fix>
</trkpt>
<trkpt lat="33.8103143" lon="-118.3938692">
  <ele>-4.818</ele>
  <time>2026-09-01T01:17:47Z</time>
  <course>298.9</course>
  <speed>0.03</speed>
  <fix>3d</fix>
</trkpt>
<trkpt lat="33.8103143" lon="-118.3938693">
  <ele>-4.81</ele>
  <time>2026-09-01T01:17:47Z</time>
  <course>299.5</course>
  <speed>0.03</speed>
  <fix>3d</fix>
</trkpt>
<trkpt lat="33.8103141" lon="-118.3938694">
  <ele>-4.54</ele>
  <time>2026-09-01T01:17:47Z</time>
  <course>333.24</course>
  <speed>0.01</speed>
  <fix>3d</fix>
</trkpt>
<trkpt lat="33.8103143" lon="-118.3938693">
  <ele>-4.809</ele>
  <time>2026-09-01T01:17:47Z</time>
  <course>299.53</course>
  <speed>0.03</speed>
  <fix>3d</fix>
</trkpt>
<trkpt lat="33.8103143" lon="-118.3938693">
  <ele>-4.794</ele>
  <time>2026-09-01T01:17:47Z</time>
  <course>300.1</course>
  <speed>0.0316227766016838</speed>
  <fix>3d</fix>
</trkpt>
<trkpt lat="33.8103142" lon="-118.3938695">
  <ele>-4.5</ele>
  <time>2026-09-01T01:17:47Z</time>
  <course>334.18</course>
  <speed>0.01</speed>
  <fix>3d</fix>
</trkpt>
<trkpt lat="33.8103143" lon="-118.3938693">
  <ele>-4.793</ele>
  <time>2026-09-01T01:17:47Z</time>
  <course>300.13</course>
  <speed>0.0316227766016838</speed>
  <fix>3d</fix>
</trkpt>
<trkpt lat="33.8103143" lon="-118.3938693">
  <ele>-4.777</ele>
  <time>2026-09-01T01:17:47Z</time>
  <course>300.71</course>
  <speed>0.0316227766016838</speed>
  <fix>3d</fix>
</trkpt>
<trkpt lat="33.8103142" lon="-118.3938695">
  <ele>-4.5</ele>
  <time>2026-09-01T01:17:47Z</time>
  <course>334.18</course>
  <speed>0.01</speed>
  <fix>3d</fix>
</trkpt>
<trkpt lat="33.8103143" lon="-118.3938693">
  <ele>-4.773</ele>
  <time>2026-09-01T01:17:47Z</time>
  <course>300.86</course>
  <speed>0.0316227766016838</speed>
  <fix>3d</fix>
</trkpt>
<trkpt lat="33.8103143" lon="-118.3938693">
  <ele>-4.757</ele>
  <time>2026-09-01T01:17:47Z</time>
  <course>301.32</course>
  <speed>0.0316227766016838</speed>
  <fix>3d</fix>
</trkpt>
<trkpt lat="33.8103142" lon="-118.3938695">
  <ele>-4.47</ele>
  <time>2026-09-01T01:17:47Z</time>
  <course>335.14</course>
  <speed>0.01</speed>
  <fix>3d</fix>
</trkpt>
<trkpt lat="33.8103143" lon="-118.3938693">
  <ele>-4.75</ele>
  <time>2026-09-01T01:17:47Z</time>
  <course>301.47</course>
  <speed>0.0316227766016838</speed>
  <fix>3d</fix>
</trkpt>
<trkpt lat="33.8103143" lon="-118.3938693">
  <ele>-4.727</ele>
  <time>2026-09-01T01:17:47Z</time>
  <course>301.93</course>
  <speed>0.0316227766016838</speed>
  <fix>3d</fix>
</trkpt>
<trkpt lat="33.8103142" lon="-118.3938695">
  <ele>-4.47</ele>
  <time>2026-09-01T01:17:47Z</time>
  <course>335.14</course>
  <speed>0.01</speed>
  <fix>3d</fix>
</trkpt>
<trkpt lat="33.8103143" lon="-118.3938693">
  <ele>-4.718</ele>
  <time>2026-09-01T01:17:47Z</time>
  <course>302.07</course>
  <speed>0.0316227766016838</speed>
  <fix>3d</fix>
</trkpt>
<trkpt lat="33.8103143" lon="-118.3938693">
  <ele>-4.694</ele>
  <time>2026-09-01T01:17:47Z</time>
  <course>302.54</course>
  <speed>0.0316227766016838</speed>
  <fix>3d</fix>
</trkpt>
<trkpt lat="33.8103142" lon="-118.3938695">
  <ele>-4.43</ele>
  <time>2026-09-01T01:17:47Z</time>
  <course>336.11</course>
  <speed>0.01</speed>
  <fix>3d</fix>
</trkpt>
<trkpt lat="33.8103143" lon="-118.3938693">
  <ele>-4.688</ele>
  <time>2026-09-01T01:17:47Z</time>
  <course>302.66</course>
  <speed>0.0316227766016838</speed>
  <fix>3d</fix>
</trkpt>
<trkpt lat="33.8103143" lon="-118.3938693">
  <ele>-4.666</ele>
  <time>2026-09-01T01:17:47Z</time>
  <course>303.15</course>
  <speed>0.0316227766016838</speed>
  <fix>3d</fix>
</trkpt>
<trkpt lat="33.8103142" lon="-118.3938695">
  <ele>-4.43</ele>
  <time>2026-09-01T01:17:47Z</time>
  <course>336.11</course>
  <speed>0.01</speed>
  <fix>3d</fix>
</trkpt>
<trkpt lat="33.8103143" lon="-118.3938693">
  <ele>-4.665</ele>
  <time>2026-09-01T01:17:47Z</time>
  <course>303.16</course>
  <speed>0.0316227766016838</speed>
  <fix>3d</fix>
</trkpt>
<trkpt lat="33.8103144" lon="-118.3938693">
  <ele>-4.638</ele>
  <time>2026-09-01T01:17:47Z</time>
  <course>303.76</course>
  <speed>0.022360679774997897</speed>
  <fix>3d</fix>
</trkpt>
<trkpt lat="33.8103143" lon="-118.3938695">
  <ele>-4.39</ele>
  <time>2026-09-01T01:17:47Z</time>
  <course>337.12</course>
  <speed>0.01</speed>
  <fix>3d</fix>
</trkpt>
<trkpt lat="33.8103144" lon="-118.3938693">
  <ele>-4.633</ele>
  <time>2026-09-01T01:17:47Z</time>
  <course>303.87</course>
  <speed>0.022360679774997897</speed>
  <fix>3d</fix>
</trkpt>
<trkpt lat="33.8103144" lon="-118.3938693">
  <ele>-4.612</ele>
  <time>2026-09-01T01:17:47Z</time>
  <course>304.37</course>
  <speed>0.022360679774997897</speed>
  <fix>3d</fix>
</trkpt>
<trkpt lat="33.8103143" lon="-118.3938695">
  <ele>-4.39</ele>
  <time>2026-09-01T01:17:47Z</time>
  <course>337.12</course>
  <speed>0.01</speed>
  <fix>3d</fix>
</trkpt>
<trkpt lat="33.8103144" lon="-118.3938693">
  <ele>-4.609</ele>
  <time>2026-09-01T01:17:47Z</time>
  <course>304.45</course>
  <speed>0.022360679774997897</speed>
  <fix>3d</fix>
</trkpt>
<trkpt lat="33.8103144" lon="-118.3938693">
  <ele>-4.583</ele>
  <time>2026-09-01T01:17:47Z</time>
  <course>304.98</course>
  <speed>0.022360679774997897</speed>
  <fix>3d</fix>
</trkpt>
<trkpt lat="33.8103143" lon="-118.3938695">
  <ele>-4.36</ele>
  <time>2026-09-01T01:17:47Z</time>
  <course>338.14</course>
  <speed>0.01</speed>
  <fix>3d</fix>
</trkpt>
<trkpt lat="33.8103144" lon="-118.3938693">
  <ele>-4.58</ele>
  <time>2026-09-01T01:17:47Z</time>
  <course>305.05</course>
  <speed>0.022360679774997897</speed>
  <fix>3d</fix>
</trkpt>
<trkpt lat="33.8103144" lon="-118.3938693">
  <ele>-4.554</ele>
  <time>2026-09-01T01:17:47Z</time>
  <course>305.6</course>
  <speed>0.022360679774997897</speed>
  <fix>3d</fix>
</trkpt>
<trkpt lat="33.8103143" lon="-118.3938695">
  <ele>-4.36</ele>
  <time>2026-09-01T01:17:47Z</time>
  <course>338.14</course>
  <speed>0.01</speed>
  <fix>3d</fix>
</trkpt>
<trkpt lat="33.8103144" lon="-118.3938693">
  <ele>-4.552</ele>
  <time>2026-09-01T01:17:47Z</time>
  <course>305.64</course>
  <speed>0.022360679774997897</speed>
  <fix>3d</fix>
</trkpt>
<trkpt lat="33.8103144" lon="-118.3938693">
  <ele>-4.533</ele>
  <time>2026-09-01T01:17:47Z</time>
  <course>306.21</course>
  <speed>0.022360679774997897</speed>
  <fix>3d</fix>
</trkpt>
<trkpt lat="33.8103143" lon="-118.3938695">
  <ele>-4.32</ele>
  <time>2026-09-01T01:17:47Z</time>
  <course>339.13</course>
  <speed>0.01</speed>
  <fix>3d</fix>
</trkpt>
<trkpt lat="33.8103144" lon="-118.3938693">
  <ele>-4.533</ele>
  <time>2026-09-01T01:17:47Z</time>
  <course>306.24</course>
  <speed>0.022360679774997897</speed>
  <fix>3d</fix>
</trkpt>
<trkpt lat="33.8103144" lon="-118.3938693">
  <ele>-4.523</ele>
  <time>2026-09-01T01:17:47Z</time>
  <course>306.82</course>
  <speed>0.022360679774997897</speed>
  <fix>3d</fix>
</trkpt>
<trkpt lat="33.8103143" lon="-118.3938695">
  <ele>-4.32</ele>
  <time>2026-09-01T01:17:47Z</time>
  <course>339.13</course>
  <speed>0.01</speed>
  <fix>3d</fix>
</trkpt>
<trkpt lat="33.8103144" lon="-118.3938693">
  <ele>-4.522</ele>
  <time>2026-09-01T01:17:47Z</time>
  <course>306.84</course>
  <speed>0.022360679774997897</speed>
  <fix>3d</fix>
</trkpt>
<trkpt lat="33.8103144" lon="-118.3938693">
  <ele>-4.518</ele>
  <time>2026-09-01T01:17:47Z</time>
  <course>307.44</course>
  <speed>0.022360679774997897</speed>
  <fix>3d</fix>
</trkpt>
<trkpt lat="33.8103143" lon="-118.3938695">
  <ele>-4.28</ele>
  <time>2026-09-01T01:17:47Z</time>
  <course>340.12</course>
  <speed>0.01</speed>
  <fix>3d</fix>
</trkpt>
<trkpt lat="33.8103144" lon="-118.3938693">
  <ele>-4.517</ele>
  <time>2026-09-01T01:17:47Z</time>
  <course>307.46</course>
  <speed>0.022360679774997897</speed>
  <fix>3d</fix>
</trkpt>
<trkpt lat="33.8103144" lon="-118.3938693">
  <ele>-4.513</ele>
  <time>2026-09-01T01:17:47Z</time>
  <course>308.06</course>
  <speed>0.022360679774997897</speed>
  <fix>3d</fix>
</trkpt>
<trkpt lat="33.8103143" lon="-118.3938695">
  <ele>-4.28</ele>
  <time>2026-09-01T01:17:47Z</time>
  <course>340.12</course>
  <speed>0.01</speed>
  <fix>3d</fix>
</trkpt>
<trkpt lat="33.8103144" lon="-118.3938693">
  <ele>-4.515</ele>
  <time>2026-09-01T01:17:47Z</time>
  <course>308.09</course>
  <speed>0.022360679774997897</speed>
  <fix>3d</fix>
</trkpt>
<trkpt lat="33.8103145" lon="-118.3938693">
  <ele>-4.507</ele>
  <time>2026-09-01T01:17:48Z</time>
  <course>308.67</course>
  <speed>0.022360679774997897</speed>
  <fix>3d</fix>
</trkpt>
<trkpt lat="33.8103143" lon="-118.3938695">
  <ele>-4.25</ele>
  <time>2026-09-01T01:17:48Z</time>
  <course>341.13</course>
  <speed>0.01</speed>
  <fix>3d</fix>
</trkpt>
<trkpt lat="33.8103145" lon="-118.3938693">
  <ele>-4.504</ele>
  <time>2026-09-01T01:17:48Z</time>
  <course>308.83</course>
  <speed>0.022360679774997897</speed>
  <fix>3d</fix>
</trkpt>
<trkpt lat="33.8103145" lon="-118.3938693">
  <ele>-4.494</ele>
  <time>2026-09-01T01:17:48Z</time>
  <course>309.29</course>
  <speed>0.022360679774997897</speed>
  <fix>3d</fix>
</trkpt>
<trkpt lat="33.8103143" lon="-118.3938695">
  <ele>-4.25</ele>
  <time>2026-09-01T01:17:48Z</time>
  <course>341.13</course>
  <speed>0.01</speed>
  <fix>3d</fix>
</trkpt>
<trkpt lat="33.8103145" lon="-118.3938693">
  <ele>-4.494</ele>
  <time>2026-09-01T01:17:48Z</time>
  <course>309.3</course>
  <speed>0.022360679774997897</speed>
  <fix>3d</fix>
</trkpt>
<trkpt lat="33.8103145" lon="-118.3938693">
  <ele>-4.481</ele>
  <time>2026-09-01T01:17:48Z</time>
  <course>309.9</course>
  <speed>0.022360679774997897</speed>
  <fix>3d</fix>
</trkpt>
<trkpt lat="33.8103143" lon="-118.3938695">
  <ele>-4.21</ele>
  <time>2026-09-01T01:17:48Z</time>
  <course>342.17</course>
  <speed>0.01</speed>
  <fix>3d</fix>
</trkpt>
<trkpt lat="33.8103145" lon="-118.3938693">
  <ele>-4.48</ele>
  <time>2026-09-01T01:17:48Z</time>
  <course>309.95</course>
  <speed>0.022360679774997897</speed>
  <fix>3d</fix>
</trkpt>
<trkpt lat="33.8103145" lon="-118.3938693">
  <ele>-4.46</ele>
  <time>2026-09-01T01:17:48Z</time>
  <course>310.52</course>
  <speed>0.022360679774997897</speed>
  <fix>3d</fix>
</trkpt>
<trkpt lat="33.8103143" lon="-118.3938695">
  <ele>-4.21</ele>
  <time>2026-09-01T01:17:48Z</time>
  <course>342.17</course>
  <speed>0.01</speed>
  <fix>3d</fix>
</trkpt>
<trkpt lat="33.8103145" lon="-118.3938693">
  <ele>-4.458</ele>
  <time>2026-09-01T01:17:48Z</time>
  <course>310.55</course>
  <speed>0.022360679774997897</speed>
  <fix>3d</fix>
</trkpt>
<trkpt lat="33.8103145" lon="-118.3938693">
  <ele>-4.432</ele>
  <time>2026-09-01T01:17:48Z</time>
  <course>311.13</course>
  <speed>0.022360679774997897</speed>
  <fix>3d</fix>
</trkpt>
<trkpt lat="33.8103143" lon="-118.3938695">
  <ele>-4.17</ele>
  <time>2026-09-01T01:17:48Z</time>
  <course>343.23</course>
  <speed>0.01</speed>
  <fix>3d</fix>
</trkpt>
<trkpt lat="33.8103145" lon="-118.3938693">
  <ele>-4.425</ele>
  <time>2026-09-01T01:17:48Z</time>
  <course>311.29</course>
  <speed>0.022360679774997897</speed>
  <fix>3d</fix>
</trkpt>
<trkpt lat="33.8103145" lon="-118.3938693">
  <ele>-4.409</ele>
  <time>2026-09-01T01:17:48Z</time>
  <course>311.75</course>
  <speed>0.022360679774997897</speed>
  <fix>3d</fix>
</trkpt>
<trkpt lat="33.8103143" lon="-118.3938695">
  <ele>-4.17</ele>
  <time>2026-09-01T01:17:48Z</time>
  <course>343.23</course>
  <speed>0.01</speed>
  <fix>3d</fix>
</trkpt>
<trkpt lat="33.8103145" lon="-118.3938693">
  <ele>-4.405</ele>
  <time>2026-09-01T01:17:48Z</time>
  <course>311.89</course>
  <speed>0.022360679774997897</speed>
  <fix>3d</fix>
</trkpt>
<trkpt lat="33.8103145" lon="-118.3938693">
  <ele>-4.393</ele>
  <time>2026-09-01T01:17:48Z</time>
  <course>312.36</course>
  <speed>0.022360679774997897</speed>
  <fix>3d</fix>
</trkpt>
<trkpt lat="33.8103144" lon="-118.3938695">
  <ele>-4.14</ele>
  <time>2026-09-01T01:17:48Z</time>
  <course>344.27</course>
  <speed>0.01</speed>
  <fix>3d</fix>
</trkpt>
<trkpt lat="33.8103145" lon="-118.3938693">
  <ele>-4.393</ele>
  <time>2026-09-01T01:17:48Z</time>
  <course>312.41</course>
  <speed>0.022360679774997897</speed>
  <fix>3d</fix>
</trkpt>
<trkpt lat="33.8103145" lon="-118.3938693">
  <ele>-4.382</ele>
  <time>2026-09-01T01:17:48Z</time>
  <course>312.98</course>
  <speed>0.022360679774997897</speed>
  <fix>3d</fix>
</trkpt>
<trkpt lat="33.8103144" lon="-118.3938695">
  <ele>-4.14</ele>
  <time>2026-09-01T01:17:48Z</time>
  <course>344.27</course>
  <speed>0.01</speed>
  <fix>3d</fix>
</trkpt>
<trkpt lat="33.8103145" lon="-118.3938693">
  <ele>-4.38</ele>
  <time>2026-09-01T01:17:48Z</time>
  <course>313.11</course>
  <speed>0.022360679774997897</speed>
  <fix>3d</fix>
</trkpt>
<trkpt lat="33.8103145" lon="-118.3938693">
  <ele>-4.368</ele>
  <time>2026-09-01T01:17:48Z</time>
  <course>313.6</course>
  <speed>0.022360679774997897</speed>
  <fix>3d</fix>
</trkpt>
<trkpt lat="33.8103144" lon="-118.3938695">
  <ele>-4.1</ele>
  <time>2026-09-01T01:17:48Z</time>
  <course>345.28</course>
  <speed>0.01</speed>
  <fix>3d</fix>
</trkpt>
<trkpt lat="33.8103145" lon="-118.3938693">
  <ele>-4.364</ele>
  <time>2026-09-01T01:17:48Z</time>
  <course>313.7</course>
  <speed>0.022360679774997897</speed>
  <fix>3d</fix>
</trkpt>
<trkpt lat="33.8103145" lon="-118.3938693">
  <ele>-4.343</ele>
  <time>2026-09-01T01:17:48Z</time>
  <course>314.22</course>
  <speed>0.022360679774997897</speed>
  <fix>3d</fix>
</trkpt>
<trkpt lat="33.8103144" lon="-118.3938695">
  <ele>-4.1</ele>
  <time>2026-09-01T01:17:48Z</time>
  <course>345.28</course>
  <speed>0.01</speed>
  <fix>3d</fix>
</trkpt>
<trkpt lat="33.8103145" lon="-118.3938693">
  <ele>-4.339</ele>
  <time>2026-09-01T01:17:48Z</time>
  <course>314.31</course>
  <speed>0.022360679774997897</speed>
  <fix>3d</fix>
</trkpt>
<trkpt lat="33.8103145" lon="-118.3938693">
  <ele>-4.32</ele>
  <time>2026-09-01T01:17:48Z</time>
  <course>314.84</course>
  <speed>0.022360679774997897</speed>
  <fix>3d</fix>
</trkpt>
<trkpt lat="33.8103144" lon="-118.3938695">
  <ele>-4.06</ele>
  <time>2026-09-01T01:17:48Z</time>
  <course>346.31</course>
  <speed>0.01</speed>
  <fix>3d</fix>
</trkpt>
<trkpt lat="33.8103145" lon="-118.3938693">
  <ele>-4.318</ele>
  <time>2026-09-01T01:17:48Z</time>
  <course>314.91</course>
  <speed>0.022360679774997897</speed>
  <fix>3d</fix>
</trkpt>
<trkpt lat="33.8103145" lon="-118.3938693">
  <ele>-4.3</ele>
  <time>2026-09-01T01:17:48Z</time>
  <course>315.45</course>
  <speed>0.022360679774997897</speed>
  <fix>3d</fix>
</trkpt>
<trkpt lat="33.8103144" lon="-118.3938695">
  <ele>-4.06</ele>
  <time>2026-09-01T01:17:48Z</time>
  <course>346.31</course>
  <speed>0.01</speed>
  <fix>3d</fix>
</trkpt>
<trkpt lat="33.8103145" lon="-118.3938693">
  <ele>-4.297</ele>
  <time>2026-09-01T01:17:48Z</time>
  <course>315.52</course>
  <speed>0.022360679774997897</speed>
  <fix>3d</fix>
</trkpt>
<trkpt lat="33.8103145" lon="-118.3938693">
  <ele>-4.276</ele>
  <time>2026-09-01T01:17:48Z</time>
  <course>316.07</course>
  <speed>0.0282842712474619</speed>
  <fix>3d</fix>
</trkpt>
<trkpt lat="33.8103145" lon="-118.3938695">
  <ele>-4.02</ele>
  <time>2026-09-01T01:17:48Z</time>
  <course>347.37</course>
  <speed>0.01</speed>
  <fix>3d</fix>
</trkpt>
<trkpt lat="33.8103145" lon="-118.3938693">
  <ele>-4.276</ele>
  <time>2026-09-01T01:17:48Z</time>
  <course>316.09</course>
  <speed>0.0282842712474619</speed>
  <fix>3d</fix>
</trkpt>
<trkpt lat="33.8103146" lon="-118.3938693">
  <ele>-4.259</ele>
  <time>2026-09-01T01:17:48Z</time>
  <course>316.69</course>
  <speed>0.0282842712474619</speed>
  <fix>3d</fix>
</trkpt>
<trkpt lat="33.8103145" lon="-118.3938695">
  <ele>-4.02</ele>
  <time>2026-09-01T01:17:48Z</time>
  <course>347.37</course>
  <speed>0.01</speed>
  <fix>3d</fix>
</trkpt>
<trkpt lat="33.8103146" lon="-118.3938693">
  <ele>-4.258</ele>
  <time>2026-09-01T01:17:48Z</time>
  <course>316.77</course>
  <speed>0.0282842712474619</speed>
  <fix>3d</fix>
</trkpt>
<trkpt lat="33.8103146" lon="-118.3938693">
  <ele>-4.249</ele>
  <time>2026-09-01T01:17:48Z</time>
  <course>317.31</course>
  <speed>0.0282842712474619</speed>
  <fix>3d</fix>
</trkpt>
<trkpt lat="33.8103146" lon="-118.3938695">
  <ele>-3.99</ele>
  <time>2026-09-01T01:17:48Z</time>
  <course>348.47</course>
  <speed>0.01</speed>
  <fix>3d</fix>
</trkpt>
<trkpt lat="33.8103146" lon="-118.3938693">
  <ele>-4.249</ele>
  <time>2026-09-01T01:17:48Z</time>
  <course>317.37</course>
  <speed>0.0282842712474619</speed>
  <fix>3d</fix>
</trkpt>
<trkpt lat="33.8103146" lon="-118.3938693">
  <ele>-4.242</ele>
  <time>2026-09-01T01:17:48Z</time>
  <course>317.93</course>
  <speed>0.0282842712474619</speed>
  <fix>3d</fix>
</trkpt>
<trkpt lat="33.8103146" lon="-118.3938695">
  <ele>-3.99</ele>
  <time>2026-09-01T01:17:48Z</time>
  <course>348.47</course>
  <speed>0.01</speed>
  <fix>3d</fix>
</trkpt>
<trkpt lat="33.8103146" lon="-118.3938693">
  <ele>-4.242</ele>
  <time>2026-09-01T01:17:48Z</time>
  <course>317.98</course>
  <speed>0.0282842712474619</speed>
  <fix>3d</fix>
</trkpt>
<trkpt lat="33.8103146" lon="-118.3938693">
  <ele>-4.228</ele>
  <time>2026-09-01T01:17:48Z</time>
  <course>318.56</course>
  <speed>0.0282842712474619</speed>
  <fix>3d</fix>
</trkpt>
<trkpt lat="33.8103146" lon="-118.3938695">
  <ele>-3.95</ele>
  <time>2026-09-01T01:17:48Z</time>
  <course>349.54</course>
  <speed>0.01</speed>
  <fix>3d</fix>
</trkpt>
<trkpt lat="33.8103146" lon="-118.3938693">
  <ele>-4.227</ele>
  <time>2026-09-01T01:17:48Z</time>
  <course>318.57</course>
  <speed>0.0282842712474619</speed>
  <fix>3d</fix>
</trkpt>
<trkpt lat="33.8103146" lon="-118.3938693">
  <ele>-4.202</ele>
  <time>2026-09-01T01:17:48Z</time>
  <course>319.17</course>
  <speed>0.0282842712474619</speed>
  <fix>3d</fix>
</trkpt>
<trkpt lat="33.8103146" lon="-118.3938695">
  <ele>-3.95</ele>
  <time>2026-09-01T01:17:48Z</time>
  <course>349.54</course>
  <speed>0.01</speed>
  <fix>3d</fix>
</trkpt>
<trkpt lat="33.8103146" lon="-118.3938693">
  <ele>-4.2</ele>
  <time>2026-09-01T01:17:48Z</time>
  <course>319.2</course>
  <speed>0.0282842712474619</speed>
  <fix>3d</fix>
</trkpt>
<trkpt lat="33.8103146" lon="-118.3938693">
  <ele>-4.176</ele>
  <time>2026-09-01T01:17:48Z</time>
  <course>319.8</course>
  <speed>0.0282842712474619</speed>
  <fix>3d</fix>
</trkpt>
<trkpt lat="33.8103146" lon="-118.3938695">
  <ele>-3.91</ele>
  <time>2026-09-01T01:17:48Z</time>
  <course>350.58</course>
  <speed>0.01</speed>
  <fix>3d</fix>
</trkpt>
<trkpt lat="33.8103146" lon="-118.3938693">
  <ele>-4.174</ele>
  <time>2026-09-01T01:17:48Z</time>
  <course>319.82</course>
  <speed>0.0282842712474619</speed>
  <fix>3d</fix>
</trkpt>
<trkpt lat="33.8103147" lon="-118.3938693">
  <ele>-4.155</ele>
  <time>2026-09-01T01:17:48Z</time>
  <course>320.42</course>
  <speed>0.0282842712474619</speed>
  <fix>3d</fix>
</trkpt>
<trkpt lat="33.8103146" lon="-118.3938695">
  <ele>-3.91</ele>
  <time>2026-09-01T01:17:48Z</time>
  <course>350.58</course>
  <speed>0.01</speed>
  <fix>3d</fix>
</trkpt>
<trkpt lat="33.8103147" lon="-118.3938693">
  <ele>-4.154</ele>
  <time>2026-09-01T01:17:48Z</time>
  <course>320.44</course>
  <speed>0.0282842712474619</speed>
  <fix>3d</fix>
</trkpt>
<trkpt lat="33.8103147" lon="-118.3938693">
  <ele>-4.14</ele>
  <time>2026-09-01T01:17:48Z</time>
  <course>321.04</course>
  <speed>0.0282842712474619</speed>
  <fix>3d</fix>
</trkpt>
<trkpt lat="33.8103146" lon="-118.3938695">
  <ele>-3.87</ele>
  <time>2026-09-01T01:17:48Z</time>
  <course>351.63</course>
  <speed>0.01</speed>
  <fix>3d</fix>
</trkpt>
<trkpt lat="33.8103147" lon="-118.3938693">
  <ele>-4.138</ele>
  <time>2026-09-01T01:17:48Z</time>
  <course>321.14</course>
  <speed>0.0282842712474619</speed>
  <fix>3d</fix>
</trkpt>
<trkpt lat="33.8103147" lon="-118.3938693">
  <ele>-4.122</ele>
  <time>2026-09-01T01:17:48Z</time>
  <course>321.67</course>
  <speed>0.0282842712474619</speed>
  <fix>3d</fix>
</trkpt>
<trkpt lat="33.8103146" lon="-118.3938695">
  <ele>-3.87</ele>
  <time>2026-09-01T01:17:48Z</time>
  <course>351.63</course>
  <speed>0.01</speed>
  <fix>3d</fix>
</trkpt>
<trkpt lat="33.8103147" lon="-118.3938693">
  <ele>-4.119</ele>
  <time>2026-09-01T01:17:48Z</time>
  <course>321.74</course>
  <speed>0.0282842712474619</speed>
  <fix>3d</fix>
</trkpt>
<trkpt lat="33.8103147" lon="-118.3938693">
  <ele>-4.099</ele>
  <time>2026-09-01T01:17:48Z</time>
  <course>322.29</course>
  <speed>0.0282842712474619</speed>
  <fix>3d</fix>
</trkpt>
<trkpt lat="33.8103147" lon="-118.3938695">
  <ele>-3.84</ele>
  <time>2026-09-01T01:17:48Z</time>
  <course>352.71</course>
  <speed>0.01</speed>
  <fix>3d</fix>
</trkpt>
<trkpt lat="33.8103147" lon="-118.3938693">
  <ele>-4.099</ele>
  <time>2026-09-01T01:17:48Z</time>
  <course>322.3</course>
  <speed>0.0282842712474619</speed>
  <fix>3d</fix>
</trkpt>
<trkpt lat="33.8103147" lon="-118.3938693">
  <ele>-4.078</ele>
  <time>2026-09-01T01:17:48Z</time>
  <course>322.91</course>
  <speed>0.0282842712474619</speed>
  <fix>3d</fix>
</trkpt>
<trkpt lat="33.8103147" lon="-118.3938695">
  <ele>-3.84</ele>
  <time>2026-09-01T01:17:48Z</time>
  <course>352.71</course>
  <speed>0.01</speed>
  <fix>3d</fix>
</trkpt>
<trkpt lat="33.8103147" lon="-118.3938693">
  <ele>-4.073</ele>
  <time>2026-09-01T01:17:48Z</time>
  <course>323.02</course>
  <speed>0.0282842712474619</speed>
  <fix>3d</fix>
</trkpt>
<trkpt lat="33.8103147" lon="-118.3938693">
  <ele>-4.05</ele>
  <time>2026-09-01T01:17:48Z</time>
  <course>323.53</course>
  <speed>0.0282842712474619</speed>
  <fix>3d</fix>
</trkpt>
<trkpt lat="33.8103147" lon="-118.3938696">
  <ele>-3.8</ele>
  <time>2026-09-01T01:17:48Z</time>
  <course>353.83</course>
  <speed>0.01</speed>
  <fix>3d</fix>
</trkpt>
<trkpt lat="33.8103147" lon="-118.3938693">
  <ele>-4.046</ele>
  <time>2026-09-01T01:17:48Z</time>
  <course>323.61</course>
  <speed>0.0282842712474619</speed>
  <fix>3d</fix>
</trkpt>
<trkpt lat="33.8103147" lon="-118.3938693">
  <ele>-4.018</ele>
  <time>2026-09-01T01:17:48Z</time>
  <course>324.16</course>
  <speed>0.0282842712474619</speed>
  <fix>3d</fix>
</trkpt>
<trkpt lat="33.8103147" lon="-118.3938696">
  <ele>-3.8</ele>
  <time>2026-09-01T01:17:48Z</time>
  <course>353.83</course>
  <speed>0.01</speed>
  <fix>3d</fix>
</trkpt>
<trkpt lat="33.8103147" lon="-118.3938693">
  <ele>-4.015</ele>
  <time>2026-09-01T01:17:48Z</time>
  <course>324.22</course>
  <speed>0.0282842712474619</speed>
  <fix>3d</fix>
</trkpt>
<trkpt lat="33.8103148" lon="-118.3938693">
  <ele>-3.985</ele>
  <time>2026-09-01T01:17:48Z</time>
  <course>324.78</course>
  <speed>0.0282842712474619</speed>
  <fix>3d</fix>
</trkpt>
<trkpt lat="33.8103147" lon="-118.3938697">
  <ele>-3.76</ele>
  <time>2026-09-01T01:17:48Z</time>
  <course>354.93</course>
  <speed>0.01</speed>
  <fix>3d</fix>
</trkpt>
<trkpt lat="33.8103148" lon="-118.3938693">
  <ele>-3.981</ele>
  <time>2026-09-01T01:17:48Z</time>
  <course>324.82</course>
  <speed>0.0282842712474619</speed>
  <fix>3d</fix>
</trkpt>
<trkpt lat="33.8103148" lon="-118.3938693">
  <ele>-3.952</ele>
  <time>2026-09-01T01:17:48Z</time>
  <course>325.4</course>
  <speed>0.0282842712474619</speed>
  <fix>3d</fix>
</trkpt>
<trkpt lat="33.8103147" lon="-118.3938697">
  <ele>-3.76</ele>
  <time>2026-09-01T01:17:48Z</time>
  <course>354.93</course>
  <speed>0.01</speed>
  <fix>3d</fix>
</trkpt>
<trkpt lat="33.8103148" lon="-118.3938693">
  <ele>-3.951</ele>
  <time>2026-09-01T01:17:48Z</time>
  <course>325.41</course>
  <speed>0.0282842712474619</speed>
  <fix>3d</fix>
</trkpt>
<trkpt lat="33.8103148" lon="-118.3938693">
  <ele>-3.924</ele>
  <time>2026-09-01T01:17:48Z</time>
  <course>326.03</course>
  <speed>0.0282842712474619</speed>
  <fix>3d</fix>
</trkpt>
<trkpt lat="33.8103147" lon="-118.3938697">
  <ele>-3.72</ele>
  <time>2026-09-01T01:17:48Z</time>
  <course>356.0</course>
  <speed>0.01</speed>
  <fix>3d</fix>
</trkpt>
<trkpt lat="33.8103148" lon="-118.3938693">
  <ele>-3.923</ele>
  <time>2026-09-01T01:17:48Z</time>
  <course>326.04</course>
  <speed>0.0282842712474619</speed>
  <fix>3d</fix>
</trkpt>
<trkpt lat="33.8103148" lon="-118.3938693">
  <ele>-3.899</ele>
  <time>2026-09-01T01:17:48Z</time>
  <course>326.65</course>
  <speed>0.0282842712474619</speed>
  <fix>3d</fix>
</trkpt>
<trkpt lat="33.8103147" lon="-118.3938697">
  <ele>-3.72</ele>
  <time>2026-09-01T01:17:48Z</time>
  <course>356.0</course>
  <speed>0.01</speed>
  <fix>3d</fix>
</trkpt>
<trkpt lat="33.8103148" lon="-118.3938693">
  <ele>-3.898</ele>
  <time>2026-09-01T01:17:48Z</time>
  <course>326.69</course>
  <speed>0.0282842712474619</speed>
  <fix>3d</fix>
</trkpt>
<trkpt lat="33.8103148" lon="-118.3938693">
  <ele>-3.882</ele>
  <time>2026-09-01T01:17:48Z</time>
  <course>327.27</course>
  <speed>0.0282842712474619</speed>
  <fix>3d</fix>
</trkpt>
<trkpt lat="33.8103148" lon="-118.3938697">
  <ele>-3.69</ele>
  <time>2026-09-01T01:17:48Z</time>
  <course>357.08</course>
  <speed>0.01</speed>
  <fix>3d</fix>
</trkpt>
<trkpt lat="33.8103148" lon="-118.3938693">
  <ele>-3.881</ele>
  <time>2026-09-01T01:17:48Z</time>
  <course>327.31</course>
  <speed>0.0282842712474619</speed>
  <fix>3d</fix>
</trkpt>
<trkpt lat="33.8103148" lon="-118.3938693">
  <ele>-3.861</ele>
  <time>2026-09-01T01:17:48Z</time>
  <course>327.9</course>
  <speed>0.0282842712474619</speed>
  <fix>3d</fix>
</trkpt>
<trkpt lat="33.8103148" lon="-118.3938697">
  <ele>-3.69</ele>
  <time>2026-09-01T01:17:48Z</time>
  <course>357.08</course>
  <speed>0.01</speed>
  <fix>3d</fix>
</trkpt>
<trkpt lat="33.8103148" lon="-118.3938693">
  <ele>-3.859</ele>
  <time>2026-09-01T01:17:48Z</time>
  <course>327.93</course>
  <speed>0.0282842712474619</speed>
  <fix>3d</fix>
</trkpt>
<trkpt lat="33.8103148" lon="-118.3938693">
  <ele>-3.834</ele>
  <time>2026-09-01T01:17:48Z</time>
  <course>328.53</course>
  <speed>0.0282842712474619</speed>
  <fix>3d</fix>
</trkpt>
<trkpt lat="33.8103148" lon="-118.3938697">
  <ele>-3.65</ele>
  <time>2026-09-01T01:17:48Z</time>
  <course>358.17</course>
  <speed>0.01</speed>
  <fix>3d</fix>
</trkpt>
<trkpt lat="33.8103148" lon="-118.3938693">
  <ele>-3.832</ele>
  <time>2026-09-01T01:17:48Z</time>
  <course>328.54</course>
  <speed>0.0282842712474619</speed>
  <fix>3d</fix>
</trkpt>
<trkpt lat="33.8103148" lon="-118.3938693">
  <ele>-3.803</ele>
  <time>2026-09-01T01:17:48Z</time>
  <course>329.15</course>
  <speed>0.0282842712474619</speed>
  <fix>3d</fix>
</trkpt>
<trkpt lat="33.8103148" lon="-118.3938697">
  <ele>-3.65</ele>
  <time>2026-09-01T01:17:48Z</time>
  <course>358.17</course>
  <speed>0.01</speed>
  <fix>3d</fix>
</trkpt>
<trkpt lat="33.8103148" lon="-118.3938693">
  <ele>-3.801</ele>
  <time>2026-09-01T01:17:48Z</time>
  <course>329.17</course>
  <speed>0.0282842712474619</speed>
  <fix>3d</fix>
</trkpt>
<trkpt lat="33.8103149" lon="-118.3938693">
  <ele>-3.772</ele>
  <time>2026-09-01T01:17:48Z</time>
  <course>329.78</course>
  <speed>0.0282842712474619</speed>
  <fix>3d</fix>
</trkpt>
<trkpt lat="33.8103148" lon="-118.3938697">
  <ele>-3.61</ele>
  <time>2026-09-01T01:17:48Z</time>
  <course>359.3</course>
  <speed>0.01</speed>
  <fix>3d</fix>
</trkpt>
<trkpt lat="33.8103149" lon="-118.3938693">
  <ele>-3.767</ele>
  <time>2026-09-01T01:17:48Z</time>
  <course>329.87</course>
  <speed>0.0282842712474619</speed>
  <fix>3d</fix>
</trkpt>
<trkpt lat="33.8103149" lon="-118.3938693">
  <ele>-3.743</ele>
  <time>2026-09-01T01:17:48Z</time>
  <course>330.4</course>
  <speed>0.0282842712474619</speed>
  <fix>3d</fix>
</trkpt>
<trkpt lat="33.8103148" lon="-118.3938697">
  <ele>-3.61</ele>
  <time>2026-09-01T01:17:48Z</time>
  <course>359.3</course>
  <speed>0.01</speed>
  <fix>3d</fix>
</trkpt>
<trkpt lat="33.8103149" lon="-118.3938693">
  <ele>-3.739</ele>
  <time>2026-09-01T01:17:48Z</time>
  <course>330.48</course>
  <speed>0.0282842712474619</speed>
  <fix>3d</fix>
</trkpt>
<trkpt lat="33.8103149" lon="-118.3938693">
  <ele>-3.711</ele>
  <time>2026-09-01T01:17:48Z</time>
  <course>331.03</course>
  <speed>0.022360679774997897</speed>
  <fix>3d</fix>
</trkpt>
<trkpt lat="33.8103149" lon="-118.3938697">
  <ele>-3.57</ele>
  <time>2026-09-01T01:17:48Z</time>
  <course>0.44</course>
  <speed>0.01</speed>
  <fix>3d</fix>
</trkpt>
<trkpt lat="33.8103149" lon="-118.3938693">
  <ele>-3.707</ele>
  <time>2026-09-01T01:17:48Z</time>
  <course>331.09</course>
  <speed>0.022360679774997897</speed>
  <fix>3d</fix>
</trkpt>
<trkpt lat="33.8103149" lon="-118.3938693">
  <ele>-3.685</ele>
  <time>2026-09-01T01:17:48Z</time>
  <course>331.66</course>
  <speed>0.022360679774997897</speed>
  <fix>3d</fix>
</trkpt>
<trkpt lat="33.8103149" lon="-118.3938697">
  <ele>-3.57</ele>
  <time>2026-09-01T01:17:48Z</time>
  <course>0.44</course>
  <speed>0.01</speed>
  <fix>3d</fix>
</trkpt>
<trkpt lat="33.8103149" lon="-118.3938693">
  <ele>-3.684</ele>
  <time>2026-09-01T01:17:48Z</time>
  <course>331.71</course>
  <speed>0.022360679774997897</speed>
  <fix>3d</fix>
</trkpt>
<trkpt lat="33.8103149" lon="-118.3938693">
  <ele>-3.669</ele>
  <time>2026-09-01T01:17:48Z</time>
  <course>332.29</course>
  <speed>0.022360679774997897</speed>
  <fix>3d</fix>
</trkpt>
<trkpt lat="33.8103149" lon="-118.3938697">
  <ele>-3.53</ele>
  <time>2026-09-01T01:17:48Z</time>
  <course>1.55</course>
  <speed>0.01</speed>
  <fix>3d</fix>
</trkpt>
<trkpt lat="33.8103149" lon="-118.3938693">
  <ele>-3.669</ele>
  <time>2026-09-01T01:17:48Z</time>
  <course>332.3</course>
  <speed>0.022360679774997897</speed>
  <fix>3d</fix>
</trkpt>
<trkpt lat="33.8103149" lon="-118.3938694">
  <ele>-3.655</ele>
  <time>2026-09-01T01:17:48Z</time>
  <course>332.92</course>
  <speed>0.022360679774997897</speed>
  <fix>3d</fix>
</trkpt>
<trkpt lat="33.8103149" lon="-118.3938697">
  <ele>-3.53</ele>
  <time>2026-09-01T01:17:48Z</time>
  <course>1.55</course>
  <speed>0.01</speed>
  <fix>3d</fix>
</trkpt>
<trkpt lat="33.8103149" lon="-118.3938694">
  <ele>-3.653</ele>
  <time>2026-09-01T01:17:48Z</time>
  <course>332.97</course>
  <speed>0.022360679774997897</speed>
  <fix>3d</fix>
</trkpt>
<trkpt lat="33.8103149" lon="-118.3938694">
  <ele>-3.647</ele>
  <time>2026-09-01T01:17:49Z</time>
  <course>333.55</course>
  <speed>0.022360679774997897</speed>
  <fix>3d</fix>
</trkpt>
<trkpt lat="33.8103149" lon="-118.3938697">
  <ele>-3.5</ele>
  <time>2026-09-01T01:17:49Z</time>
  <course>2.64</course>
  <speed>0.01</speed>
  <fix>3d</fix>
</trkpt>
<trkpt lat="33.8103149" lon="-118.3938694">
  <ele>-3.646</ele>
  <time>2026-09-01T01:17:49Z</time>
  <course>333.58</course>
  <speed>0.022360679774997897</speed>
  <fix>3d</fix>
</trkpt>
<trkpt lat="33.8103149" lon="-118.3938694">
  <ele>-3.639</ele>
  <time>2026-09-01T01:17:49Z</time>
  <course>334.18</course>
  <speed>0.022360679774997897</speed>
  <fix>3d</fix>
</trkpt>
<trkpt lat="33.8103149" lon="-118.3938697">
  <ele>-3.5</ele>
  <time>2026-09-01T01:17:49Z</time>
  <course>2.64</course>
  <speed>0.01</speed>
  <fix>3d</fix>
</trkpt>
<trkpt lat="33.8103149" lon="-118.3938694">
  <ele>-3.636</ele>
  <time>2026-09-01T01:17:49Z</time>
  <course>334.34</course>
  <speed>0.022360679774997897</speed>
  <fix>3d</fix>
</trkpt>
<trkpt lat="33.810315" lon="-118.3938694">
  <ele>-3.626</ele>
  <time>2026-09-01T01:17:49Z</time>
  <course>334.81</course>
  <speed>0.022360679774997897</speed>
  <fix>3d</fix>
</trkpt>
<trkpt lat="33.8103149" lon="-118.3938697">
  <ele>-3.46</ele>
  <time>2026-09-01T01:17:49Z</time>
  <course>3.75</course>
  <speed>0.01</speed>
  <fix>3d</fix>
</trkpt>
<trkpt lat="33.810315" lon="-118.3938694">
  <ele>-3.622</ele>
  <time>2026-09-01T01:17:49Z</time>
  <course>334.95</course>
  <speed>0.022360679774997897</speed>
  <fix>3d</fix>
</trkpt>
<trkpt lat="33.810315" lon="-118.3938694">
  <ele>-3.617</ele>
  <time>2026-09-01T01:17:49Z</time>
  <course>335.44</course>
  <speed>0.022360679774997897</speed>
  <fix>3d</fix>
</trkpt>
<trkpt lat="33.8103149" lon="-118.3938697">
  <ele>-3.46</ele>
  <time>2026-09-01T01:17:49Z</time>
  <course>3.75</course>
  <speed>0.01</speed>
  <fix>3d</fix>
</trkpt>
<trkpt lat="33.810315" lon="-118.3938694">
  <ele>-3.616</ele>
  <time>2026-09-01T01:17:49Z</time>
  <course>335.45</course>
  <speed>0.022360679774997897</speed>
  <fix>3d</fix>
</trkpt>
<trkpt lat="33.810315" lon="-118.3938694">
  <ele>-3.603</ele>
  <time>2026-09-01T01:17:49Z</time>
  <course>336.07</course>
  <speed>0.022360679774997897</speed>
  <fix>3d</fix>
</trkpt>
<trkpt lat="33.8103149" lon="-118.3938697">
  <ele>-3.42</ele>
  <time>2026-09-01T01:17:49Z</time>
  <course>4.88</course>
  <speed>0.01</speed>
  <fix>3d</fix>
</trkpt>
<trkpt lat="33.810315" lon="-118.3938694">
  <ele>-3.6</ele>
  <time>2026-09-01T01:17:49Z</time>
  <course>336.19</course>
  <speed>0.022360679774997897</speed>
  <fix>3d</fix>
</trkpt>
<trkpt lat="33.810315" lon="-118.3938694">
  <ele>-3.587</ele>
  <time>2026-09-01T01:17:49Z</time>
  <course>336.7</course>
  <speed>0.022360679774997897</speed>
  <fix>3d</fix>
</trkpt>
<trkpt lat="33.8103149" lon="-118.3938697">
  <ele>-3.42</ele>
  <time>2026-09-01T01:17:49Z</time>
  <course>4.88</course>
  <speed>0.01</speed>
  <fix>3d</fix>
</trkpt>
<trkpt lat="33.810315" lon="-118.3938694">
  <ele>-3.584</ele>
  <time>2026-09-01T01:17:49Z</time>
  <course>336.79</course>
  <speed>0.022360679774997897</speed>
  <fix>3d</fix>
</trkpt>
<trkpt lat="33.810315" lon="-118.3938694">
  <ele>-3.564</ele>
  <time>2026-09-01T01:17:49Z</time>
  <course>337.33</course>
  <speed>0.022360679774997897</speed>
  <fix>3d</fix>
</trkpt>
<trkpt lat="33.8103149" lon="-118.3938697">
  <ele>-3.38</ele>
  <time>2026-09-01T01:17:49Z</time>
  <course>6.05</course>
  <speed>0.01</speed>
  <fix>3d</fix>
</trkpt>
<trkpt lat="33.810315" lon="-118.3938694">
  <ele>-3.56</ele>
  <time>2026-09-01T01:17:49Z</time>
  <course>337.4</course>
  <speed>0.022360679774997897</speed>
  <fix>3d</fix>
</trkpt>
<trkpt lat="33.810315" lon="-118.3938694">
  <ele>-3.544</ele>
  <time>2026-09-01T01:17:49Z</time>
  <course>337.95</course>
  <speed>0.022360679774997897</speed>
  <fix>3d</fix>
</trkpt>
<trkpt lat="33.8103149" lon="-118.3938697">
  <ele>-3.38</ele>
  <time>2026-09-01T01:17:49Z</time>
  <course>6.05</course>
  <speed>0.01</speed>
  <fix>3d</fix>
</trkpt>
<trkpt lat="33.810315" lon="-118.3938694">
  <ele>-3.542</ele>
  <time>2026-09-01T01:17:49Z</time>
  <course>338.0</course>
  <speed>0.022360679774997897</speed>
  <fix>3d</fix>
</trkpt>
<trkpt lat="33.810315" lon="-118.3938694">
  <ele>-3.533</ele>
  <time>2026-09-01T01:17:49Z</time>
  <course>338.58</course>
  <speed>0.022360679774997897</speed>
  <fix>3d</fix>
</trkpt>
<trkpt lat="33.810315" lon="-118.3938697">
  <ele>-3.34</ele>
  <time>2026-09-01T01:17:49Z</time>
  <course>7.18</course>
  <speed>0.01</speed>
  <fix>3d</fix>
</trkpt>
<trkpt lat="33.810315" lon="-118.3938694">
  <ele>-3.533</ele>
  <time>2026-09-01T01:17:49Z</time>
  <course>338.59</course>
  <speed>0.022360679774997897</speed>
  <fix>3d</fix>
</trkpt>
<trkpt lat="33.810315" lon="-118.3938694">
  <ele>-3.52</ele>
  <time>2026-09-01T01:17:49Z</time>
  <course>339.22</course>
  <speed>0.022360679774997897</speed>
  <fix>3d</fix>
</trkpt>
<trkpt lat="33.810315" lon="-118.3938697">
  <ele>-3.34</ele>
  <time>2026-09-01T01:17:49Z</time>
  <course>7.18</course>
  <speed>0.01</speed>
  <fix>3d</fix>
</trkpt>
<trkpt lat="33.810315" lon="-118.3938694">
  <ele>-3.518</ele>
  <time>2026-09-01T01:17:49Z</time>
  <course>339.28</course>
  <speed>0.022360679774997897</speed>
  <fix>3d</fix>
</trkpt>
<trkpt lat="33.810315" lon="-118.3938694">
  <ele>-3.508</ele>
  <time>2026-09-01T01:17:49Z</time>
  <course>339.85</course>
  <speed>0.022360679774997897</speed>
  <fix>3d</fix>
</trkpt>
<trkpt lat="33.810315" lon="-118.3938697">
  <ele>-3.3</ele>
  <time>2026-09-01T01:17:49Z</time>
  <course>8.29</course>
  <speed>0.01</speed>
  <fix>3d</fix>
</trkpt>
<trkpt lat="33.810315" lon="-118.3938694">
  <ele>-3.507</ele>
  <time>2026-09-01T01:17:49Z</time>
  <course>339.89</course>
  <speed>0.022360679774997897</speed>
  <fix>3d</fix>
</trkpt>
<trkpt lat="33.810315" lon="-118.3938694">
  <ele>-3.499</ele>
  <time>2026-09-01T01:17:49Z</time>
  <course>340.48</course>
  <speed>0.022360679774997897</speed>
  <fix>3d</fix>
</trkpt>
<trkpt lat="33.810315" lon="-118.3938697">
  <ele>-3.3</ele>
  <time>2026-09-01T01:17:49Z</time>
  <course>8.29</course>
  <speed>0.01</speed>
  <fix>3d</fix>
</trkpt>
<trkpt lat="33.810315" lon="-118.3938694">
  <ele>-3.498</ele>
  <time>2026-09-01T01:17:49Z</time>
  <course>340.51</course>
  <speed>0.022360679774997897</speed>
  <fix>3d</fix>
</trkpt>
<trkpt lat="33.810315" lon="-118.3938694">
  <ele>-3.481</ele>
  <time>2026-09-01T01:17:49Z</time>
  <course>341.11</course>
  <speed>0.022360679774997897</speed>
  <fix>3d</fix>
</trkpt>
<trkpt lat="33.810315" lon="-118.3938697">
  <ele>-3.26</ele>
  <time>2026-09-01T01:17:49Z</time>
  <course>9.41</course>
  <speed>0.01</speed>
  <fix>3d</fix>
</trkpt>
<trkpt lat="33.810315" lon="-118.3938694">
  <ele>-3.475</ele>
  <time>2026-09-01T01:17:49Z</time>
  <course>341.27</course>
  <speed>0.022360679774997897</speed>
  <fix>3d</fix>
</trkpt>
<trkpt lat="33.810315" lon="-118.3938694">
  <ele>-3.46</ele>
  <time>2026-09-01T01:17:49Z</time>
  <course>341.74</course>
  <speed>0.022360679774997897</speed>
  <fix>3d</fix>
</trkpt>
<trkpt lat="33.810315" lon="-118.3938697">
  <ele>-3.26</ele>
  <time>2026-09-01T01:17:49Z</time>
  <course>9.41</course>
  <speed>0.01</speed>
  <fix>3d</fix>
</trkpt>
<trkpt lat="33.810315" lon="-118.3938694">
  <ele>-3.456</ele>
  <time>2026-09-01T01:17:49Z</time>
  <course>341.87</course>
  <speed>0.022360679774997897</speed>
  <fix>3d</fix>
</trkpt>
<trkpt lat="33.8103151" lon="-118.3938694">
  <ele>-3.436</ele>
  <time>2026-09-01T01:17:49Z</time>
  <course>342.37</course>
  <speed>0.022360679774997897</speed>
  <fix>3d</fix>
</trkpt>
<trkpt lat="33.810315" lon="-118.3938697">
  <ele>-3.23</ele>
  <time>2026-09-01T01:17:49Z</time>
  <course>10.55</course>
  <speed>0.01</speed>
  <fix>3d</fix>
</trkpt>
<trkpt lat="33.8103151" lon="-118.3938694">
  <ele>-3.436</ele>
  <time>2026-09-01T01:17:49Z</time>
  <course>342.39</course>
  <speed>0.022360679774997897</speed>
  <fix>3d</fix>
</trkpt>
<trkpt lat="33.8103151" lon="-118.3938694">
  <ele>-3.419</ele>
  <time>2026-09-01T01:17:49Z</time>
  <course>343.0</course>
  <speed>0.022360679774997897</speed>
  <fix>3d</fix>
</trkpt>
<trkpt lat="33.810315" lon="-118.3938697">
  <ele>-3.23</ele>
  <time>2026-09-01T01:17:49Z</time>
  <course>10.55</course>
  <speed>0.01</speed>
  <fix>3d</fix>
</trkpt>
<trkpt lat="33.8103151" lon="-118.3938694">
  <ele>-3.416</ele>
  <time>2026-09-01T01:17:49Z</time>
  <course>343.16</course>
  <speed>0.022360679774997897</speed>
  <fix>3d</fix>
</trkpt>
<trkpt lat="33.8103151" lon="-118.3938694">
  <ele>-3.406</ele>
  <time>2026-09-01T01:17:49Z</time>
  <course>343.64</course>
  <speed>0.022360679774997897</speed>
  <fix>3d</fix>
</trkpt>
<trkpt lat="33.8103151" lon="-118.3938697">
  <ele>-3.19</ele>
  <time>2026-09-01T01:17:49Z</time>
  <course>11.74</course>
  <speed>0.01</speed>
  <fix>3d</fix>
</trkpt>
<trkpt lat="33.8103151" lon="-118.3938694">
  <ele>-3.404</ele>
  <time>2026-09-01T01:17:49Z</time>
  <course>343.7</course>
  <speed>0.022360679774997897</speed>
  <fix>3d</fix>
</trkpt>
<trkpt lat="33.8103151" lon="-118.3938694">
  <ele>-3.394</ele>
  <time>2026-09-01T01:17:49Z</time>
  <course>344.27</course>
  <speed>0.022360679774997897</speed>
  <fix>3d</fix>
</trkpt>
<trkpt lat="33.8103151" lon="-118.3938697">
  <ele>-3.19</ele>
  <time>2026-09-01T01:17:49Z</time>
  <course>11.74</course>
  <speed>0.01</speed>
  <fix>3d</fix>
</trkpt>
<trkpt lat="33.8103151" lon="-118.3938694">
  <ele>-3.393</ele>
  <time>2026-09-01T01:17:49Z</time>
  <course>344.3</course>
  <speed>0.022360679774997897</speed>
  <fix>3d</fix>
</trkpt>
<trkpt lat="33.8103151" lon="-118.3938694">
  <ele>-3.374</ele>
  <time>2026-09-01T01:17:49Z</time>
  <course>344.9</course>
  <speed>0.022360679774997897</speed>
  <fix>3d</fix>
</trkpt>
<trkpt lat="33.8103152" lon="-118.3938697">
  <ele>-3.15</ele>
  <time>2026-09-01T01:17:49Z</time>
  <course>12.91</course>
  <speed>0.01</speed>
  <fix>3d</fix>
</trkpt>
<trkpt lat="33.8103151" lon="-118.3938694">
  <ele>-3.374</ele>
  <time>2026-09-01T01:17:49Z</time>
  <course>344.92</course>
  <speed>0.022360679774997897</speed>
  <fix>3d</fix>
</trkpt>
<trkpt lat="33.8103151" lon="-118.3938694">
  <ele>-3.348</ele>
  <time>2026-09-01T01:17:49Z</time>
  <course>345.54</course>
  <speed>0.022360679774997897</speed>
  <fix>3d</fix>
</trkpt>
<trkpt lat="33.8103152" lon="-118.3938697">
  <ele>-3.15</ele>
  <time>2026-09-01T01:17:49Z</time>
  <course>12.91</course>
  <speed>0.01</speed>
  <fix>3d</fix>
</trkpt>
<trkpt lat="33.8103151" lon="-118.3938694">
  <ele>-3.348</ele>
  <time>2026-09-01T01:17:49Z</time>
  <course>345.55</course>
  <speed>0.022360679774997897</speed>
  <fix>3d</fix>
</trkpt>
<trkpt lat="33.8103151" lon="-118.3938694">
  <ele>-3.315</ele>
  <time>2026-09-01T01:17:49Z</time>
  <course>346.18</course>
  <speed>0.022360679774997897</speed>
  <fix>3d</fix>
</trkpt>
<trkpt lat="33.8103152" lon="-118.3938697">
  <ele>-3.11</ele>
  <time>2026-09-01T01:17:49Z</time>
  <course>14.03</course>
  <speed>0.01</speed>
  <fix>3d</fix>
</trkpt>
<trkpt lat="33.8103151" lon="-118.3938694">
  <ele>-3.307</ele>
  <time>2026-09-01T01:17:49Z</time>
  <course>346.32</course>
  <speed>0.022360679774997897</speed>
  <fix>3d</fix>
</trkpt>
<trkpt lat="33.8103151" lon="-118.3938694">
  <ele>-3.285</ele>
  <time>2026-09-01T01:17:49Z</time>
  <course>346.81</course>
  <speed>0.022360679774997897</speed>
  <fix>3d</fix>
</trkpt>
<trkpt lat="33.8103152" lon="-118.3938697">
  <ele>-3.11</ele>
  <time>2026-09-01T01:17:49Z</time>
  <course>14.03</course>
  <speed>0.01</speed>
  <fix>3d</fix>
</trkpt>
<trkpt lat="33.8103151" lon="-118.3938694">
  <ele>-3.28</ele>
  <time>2026-09-01T01:17:49Z</time>
  <course>346.94</course>
  <speed>0.022360679774997897</speed>
  <fix>3d</fix>
</trkpt>
<trkpt lat="33.8103151" lon="-118.3938694">
  <ele>-3.257</ele>
  <time>2026-09-01T01:17:49Z</time>
  <course>347.44</course>
  <speed>0.022360679774997897</speed>
  <fix>3d</fix>
</trkpt>
<trkpt lat="33.8103152" lon="-118.3938697">
  <ele>-3.07</ele>
  <time>2026-09-01T01:17:49Z</time>
  <course>15.16</course>
  <speed>0.01</speed>
  <fix>3d</fix>
</trkpt>
<trkpt lat="33.8103151" lon="-118.3938694">
  <ele>-3.254</ele>
  <time>2026-09-01T01:17:49Z</time>
  <course>347.54</course>
  <speed>0.022360679774997897</speed>
  <fix>3d</fix>
</trkpt>
<trkpt lat="33.8103152" lon="-118.3938694">
  <ele>-3.229</ele>
  <time>2026-09-01T01:17:49Z</time>
  <course>348.08</course>
  <speed>0.022360679774997897</speed>
  <fix>3d</fix>
</trkpt>
<trkpt lat="33.8103152" lon="-118.3938697">
  <ele>-3.07</ele>
  <time>2026-09-01T01:17:49Z</time>
  <course>15.16</course>
  <speed>0.01</speed>
  <fix>3d</fix>
</trkpt>
<trkpt lat="33.8103152" lon="-118.3938694">
  <ele>-3.225</ele>
  <time>2026-09-01T01:17:49Z</time>
  <course>348.16</course>
  <speed>0.022360679774997897</speed>
  <fix>3d</fix>
</trkpt>
<trkpt lat="33.8103152" lon="-118.3938694">
  <ele>-3.203</ele>
  <time>2026-09-01T01:17:49Z</time>
  <course>348.71</course>
  <speed>0.02</speed>
  <fix>3d</fix>
</trkpt>
<trkpt lat="33.8103153" lon="-118.3938697">
  <ele>-3.03</ele>
  <time>2026-09-01T01:17:49Z</time>
  <course>16.31</course>
  <speed>0.01</speed>
  <fix>3d</fix>
</trkpt>
<trkpt lat="33.8103152" lon="-118.3938694">
  <ele>-3.202</ele>
  <time>2026-09-01T01:17:49Z</time>
  <course>348.73</course>
  <speed>0.02</speed>
  <fix>3d</fix>
</trkpt>
<trkpt lat="33.8103152" lon="-118.3938694">
  <ele>-3.178</ele>
  <time>2026-09-01T01:17:49Z</time>
  <course>349.35</course>
  <speed>0.02</speed>
  <fix>3d</fix>
</trkpt>
<trkpt lat="33.8103153" lon="-118.3938697">
  <ele>-3.03</ele>
  <time>2026-09-01T01:17:49Z</time>
  <course>16.31</course>
  <speed>0.01</speed>
  <fix>3d</fix>
</trkpt>
<trkpt lat="33.8103152" lon="-118.3938694">
  <ele>-3.177</ele>
  <time>2026-09-01T01:17:49Z</time>
  <course>349.36</course>
  <speed>0.02</speed>
  <fix>3d</fix>
</trkpt>
<trkpt lat="33.8103152" lon="-118.3938694">
  <ele>-3.152</ele>
  <time>2026-09-01T01:17:49Z</time>
  <course>349.98</course>
  <speed>0.02</speed>
  <fix>3d</fix>
</trkpt>
<trkpt lat="33.8103153" lon="-118.3938697">
  <ele>-2.99</ele>
  <time>2026-09-01T01:17:49Z</time>
  <course>17.49</course>
  <speed>0.01</speed>
  <fix>3d</fix>
</trkpt>
<trkpt lat="33.8103152" lon="-118.3938694">
  <ele>-3.149</ele>
  <time>2026-09-01T01:17:49Z</time>
  <course>350.08</course>
  <speed>0.02</speed>
  <fix>3d</fix>
</trkpt>
<trkpt lat="33.8103152" lon="-118.3938694">
  <ele>-3.127</ele>
  <time>2026-09-01T01:17:49Z</time>
  <course>350.62</course>
  <speed>0.02</speed>
  <fix>3d</fix>
</trkpt>
<trkpt lat="33.8103153" lon="-118.3938697">
  <ele>-2.99</ele>
  <time>2026-09-01T01:17:49Z</time>
  <course>17.49</course>
  <speed>0.01</speed>
  <fix>3d</fix>
</trkpt>
<trkpt lat="33.8103152" lon="-118.3938694">
  <ele>-3.124</ele>
  <time>2026-09-01T01:17:49Z</time>
  <course>350.68</course>
  <speed>0.02</speed>
  <fix>3d</fix>
</trkpt>
<trkpt lat="33.8103152" lon="-118.3938694">
  <ele>-3.106</ele>
  <time>2026-09-01T01:17:49Z</time>
  <course>351.25</course>
  <speed>0.02</speed>
  <fix>3d</fix>
</trkpt>
<trkpt lat="33.8103153" lon="-118.3938697">
  <ele>-2.95</ele>
  <time>2026-09-01T01:17:49Z</time>
  <course>18.67</course>
  <speed>0.01</speed>
  <fix>3d</fix>
</trkpt>
<trkpt lat="33.8103152" lon="-118.3938694">
  <ele>-3.106</ele>
  <time>2026-09-01T01:17:49Z</time>
  <course>351.26</course>
  <speed>0.02</speed>
  <fix>3d</fix>
</trkpt>
<trkpt lat="33.8103152" lon="-118.3938694">
  <ele>-3.089</ele>
  <time>2026-09-01T01:17:49Z</time>
  <course>351.89</course>
  <speed>0.02</speed>
  <fix>3d</fix>
</trkpt>
<trkpt lat="33.8103153" lon="-118.3938697">
  <ele>-2.95</ele>
  <time>2026-09-01T01:17:49Z</time>
  <course>18.67</course>
  <speed>0.01</speed>
  <fix>3d</fix>
</trkpt>
<trkpt lat="33.8103152" lon="-118.3938694">
  <ele>-3.088</ele>
  <time>2026-09-01T01:17:49Z</time>
  <course>351.9</course>
  <speed>0.02</speed>
  <fix>3d</fix>
</trkpt>
<trkpt lat="33.8103153" lon="-118.3938694">
  <ele>-3.076</ele>
  <time>2026-09-01T01:17:49Z</time>
  <course>352.52</course>
  <speed>0.02</speed>
  <fix>3d</fix>
</trkpt>
<trkpt lat="33.8103153" lon="-118.3938697">
  <ele>-2.91</ele>
  <time>2026-09-01T01:17:49Z</time>
  <course>19.82</course>
  <speed>0.01</speed>
  <fix>3d</fix>
</trkpt>
<trkpt lat="33.8103153" lon="-118.3938694">
  <ele>-3.074</ele>
  <time>2026-09-01T01:17:49Z</time>
  <course>352.62</course>
  <speed>0.02</speed>
  <fix>3d</fix>
</trkpt>
<trkpt lat="33.8103153" lon="-118.3938694">
  <ele>-3.062</ele>
  <time>2026-09-01T01:17:49Z</time>
  <course>353.16</course>
  <speed>0.02</speed>
  <fix>3d</fix>
</trkpt>
<trkpt lat="33.8103153" lon="-118.3938697">
  <ele>-2.91</ele>
  <time>2026-09-01T01:17:49Z</time>
  <course>19.82</course>
  <speed>0.01</speed>
  <fix>3d</fix>
</trkpt>
<trkpt lat="33.8103153" lon="-118.3938694">
  <ele>-3.06</ele>
  <time>2026-09-01T01:17:49Z</time>
  <course>353.23</course>
  <speed>0.02</speed>
  <fix>3d</fix>
</trkpt>
<trkpt lat="33.8103153" lon="-118.3938694">
  <ele>-3.049</ele>
  <time>2026-09-01T01:17:49Z</time>
  <course>353.8</course>
  <speed>0.02</speed>
  <fix>3d</fix>
</trkpt>
<trkpt lat="33.8103154" lon="-118.3938696">
  <ele>-2.87</ele>
  <time>2026-09-01T01:17:49Z</time>
  <course>20.96</course>
  <speed>0.01</speed>
  <fix>3d</fix>
</trkpt>
<trkpt lat="33.8103153" lon="-118.3938694">
  <ele>-3.048</ele>
  <time>2026-09-01T01:17:49Z</time>
  <course>353.89</course>
  <speed>0.02</speed>
  <fix>3d</fix>
</trkpt>
<trkpt lat="33.8103153" lon="-118.3938694">
  <ele>-3.037</ele>
  <time>2026-09-01T01:17:49Z</time>
  <course>354.43</course>
  <speed>0.02</speed>
  <fix>3d</fix>
</trkpt>
<trkpt lat="33.8103154" lon="-118.3938696">
  <ele>-2.87</ele>
  <time>2026-09-01T01:17:49Z</time>
  <course>20.96</course>
  <speed>0.01</speed>
  <fix>3d</fix>
</trkpt>
<trkpt lat="33.8103153" lon="-118.3938694">
  <ele>-3.035</ele>
  <time>2026-09-01T01:17:49Z</time>
  <course>354.5</course>
  <speed>0.02</speed>
  <fix>3d</fix>
</trkpt>
<trkpt lat="33.8103153" lon="-118.3938694">
  <ele>-3.017</ele>
  <time>2026-09-01T01:17:49Z</time>
  <course>355.07</course>
  <speed>0.02</speed>
  <fix>3d</fix>
</trkpt>
<trkpt lat="33.8103154" lon="-118.3938695">
  <ele>-2.83</ele>
  <time>2026-09-01T01:17:49Z</time>
  <course>22.12</course>
  <speed>0.01</speed>
  <fix>3d</fix>
</trkpt>
<trkpt lat="33.8103153" lon="-118.3938694">
  <ele>-3.016</ele>
  <time>2026-09-01T01:17:49Z</time>
  <course>355.12</course>
  <speed>0.02</speed>
  <fix>3d</fix>
</trkpt>
<trkpt lat="33.8103153" lon="-118.3938694">
  <ele>-2.99</ele>
  <time>2026-09-01T01:17:49Z</time>
  <course>355.71</course>
  <speed>0.02</speed>
  <fix>3d</fix>
</trkpt>
<trkpt lat="33.8103154" lon="-118.3938695">
  <ele>-2.83</ele>
  <time>2026-09-01T01:17:49Z</time>
  <course>22.12</course>
  <speed>0.01</speed>
  <fix>3d</fix>
</trkpt>
<trkpt lat="33.8103153" lon="-118.3938694">
  <ele>-2.989</ele>
  <time>2026-09-01T01:17:49Z</time>
  <course>355.72</course>
  <speed>0.02</speed>
  <fix>3d</fix>
</trkpt>
<trkpt lat="33.8103153" lon="-118.3938694">
  <ele>-2.967</ele>
  <time>2026-09-01T01:17:49Z</time>
  <course>356.34</course>
  <speed>0.02</speed>
  <fix>3d</fix>
</trkpt>
<trkpt lat="33.8103154" lon="-118.3938695">
  <ele>-2.79</ele>
  <time>2026-09-01T01:17:49Z</time>
  <course>23.3</course>
  <speed>0.01</speed>
  <fix>3d</fix>
</trkpt>
<trkpt lat="33.8103153" lon="-118.3938694">
  <ele>-2.965</ele>
  <time>2026-09-01T01:17:49Z</time>
  <course>356.39</course>
  <speed>0.02</speed>
  <fix>3d</fix>
</trkpt>
<trkpt lat="33.8103153" lon="-118.3938694">
  <ele>-2.946</ele>
  <time>2026-09-01T01:17:49Z</time>
  <course>356.98</course>
  <speed>0.02</speed>
  <fix>3d</fix>
</trkpt>
<trkpt lat="33.8103154" lon="-118.3938695">
  <ele>-2.79</ele>
  <time>2026-09-01T01:17:49Z</time>
  <course>23.3</course>
  <speed>0.01</speed>
  <fix>3d</fix>
</trkpt>
<trkpt lat="33.8103153" lon="-118.3938694">
  <ele>-2.945</ele>
  <time>2026-09-01T01:17:49Z</time>
  <course>357.0</course>
  <speed>0.02</speed>
  <fix>3d</fix>
</trkpt>
<trkpt lat="33.8103154" lon="-118.3938694">
  <ele>-2.919</ele>
  <time>2026-09-01T01:17:49Z</time>
  <course>357.62</course>
  <speed>0.03</speed>
  <fix>3d</fix>
</trkpt>
<trkpt lat="33.8103154" lon="-118.3938695">
  <ele>-2.75</ele>
  <time>2026-09-01T01:17:49Z</time>
  <course>24.52</course>
  <speed>0.01</speed>
  <fix>3d</fix>
</trkpt>
<trkpt lat="33.8103154" lon="-118.3938694">
  <ele>-2.919</ele>
  <time>2026-09-01T01:17:49Z</time>
  <course>357.64</course>
  <speed>0.03</speed>
  <fix>3d</fix>
</trkpt>
<trkpt lat="33.8103154" lon="-118.3938694">
  <ele>-2.887</ele>
  <time>2026-09-01T01:17:49Z</time>
  <course>358.26</course>
  <speed>0.03</speed>
  <fix>3d</fix>
</trkpt>
<trkpt lat="33.8103154" lon="-118.3938695">
  <ele>-2.75</ele>
  <time>2026-09-01T01:17:49Z</time>
  <course>24.52</course>
  <speed>0.01</speed>
  <fix>3d</fix>
</trkpt>
<trkpt lat="33.8103154" lon="-118.3938694">
  <ele>-2.879</ele>
  <time>2026-09-01T01:17:49Z</time>
  <course>358.4</course>
  <speed>0.03</speed>
  <fix>3d</fix>
</trkpt>
<trkpt lat="33.8103154" lon="-118.3938694">
  <ele>-2.856</ele>
  <time>2026-09-01T01:17:50Z</time>
  <course>358.9</course>
  <speed>0.03</speed>
  <fix>3d</fix>
</trkpt>
<trkpt lat="33.8103155" lon="-118.3938695">
  <ele>-2.71</ele>
  <time>2026-09-01T01:17:50Z</time>
  <course>25.69</course>
  <speed>0.01</speed>
  <fix>3d</fix>
</trkpt>
<trkpt lat="33.8103154" lon="-118.3938694">
  <ele>-2.85</ele>
  <time>2026-09-01T01:17:50Z</time>
  <course>359.02</course>
  <speed>0.03</speed>
  <fix>3d</fix>
</trkpt>
<trkpt lat="33.8103154" lon="-118.3938693">
  <ele>-2.836</ele>
  <time>2026-09-01T01:17:50Z</time>
  <course>359.54</course>
  <speed>0.03</speed>
  <fix>3d</fix>
</trkpt>
<trkpt lat="33.8103155" lon="-118.3938695">
  <ele>-2.71</ele>
  <time>2026-09-01T01:17:50Z</time>
  <course>25.69</course>
  <speed>0.01</speed>
  <fix>3d</fix>
</trkpt>
<trkpt lat="33.8103154" lon="-118.3938693">
  <ele>-2.835</ele>
  <time>2026-09-01T01:17:50Z</time>
  <course>359.57</course>
  <speed>0.03</speed>
  <fix>3d</fix>
</trkpt>
<trkpt lat="33.8103154" lon="-118.3938693">
  <ele>-2.817</ele>
  <time>2026-09-01T01:17:50Z</time>
  <course>0.17</course>
  <speed>0.03</speed>
  <fix>3d</fix>
</trkpt>
<trkpt lat="33.8103155" lon="-118.3938695">
  <ele>-2.67</ele>
  <time>2026-09-01T01:17:50Z</time>
  <course>26.84</course>
  <speed>0.01</speed>
  <fix>3d</fix>
</trkpt>
<trkpt lat="33.8103154" lon="-118.3938693">
  <ele>-2.816</ele>
  <time>2026-09-01T01:17:50Z</time>
  <course>0.19</course>
  <speed>0.03</speed>
  <fix>3d</fix>
</trkpt>
<trkpt lat="33.8103154" lon="-118.3938693">
  <ele>-2.79</ele>
  <time>2026-09-01T01:17:50Z</time>
  <course>0.81</course>
  <speed>0.03</speed>
  <fix>3d</fix>
</trkpt>
<trkpt lat="33.8103155" lon="-118.3938695">
  <ele>-2.67</ele>
  <time>2026-09-01T01:17:50Z</time>
  <course>26.84</course>
  <speed>0.01</speed>
  <fix>3d</fix>
</trkpt>
<trkpt lat="33.8103154" lon="-118.3938693">
  <ele>-2.785</ele>
  <time>2026-09-01T01:17:50Z</time>
  <course>0.92</course>
  <speed>0.03</speed>
  <fix>3d</fix>
</trkpt>
<trkpt lat="33.8103154" lon="-118.3938693">
  <ele>-2.762</ele>
  <time>2026-09-01T01:17:50Z</time>
  <course>1.45</course>
  <speed>0.03</speed>
  <fix>3d</fix>
</trkpt>
<trkpt lat="33.8103155" lon="-118.3938695">
  <ele>-2.63</ele>
  <time>2026-09-01T01:17:50Z</time>
  <course>28.0</course>
  <speed>0.01</speed>
  <fix>3d</fix>
</trkpt>
<trkpt lat="33.8103154" lon="-118.3938693">
  <ele>-2.759</ele>
  <time>2026-09-01T01:17:50Z</time>
  <course>1.53</course>
  <speed>0.03</speed>
  <fix>3d</fix>
</trkpt>
<trkpt lat="33.8103154" lon="-118.3938693">
  <ele>-2.732</ele>
  <time>2026-09-01T01:17:50Z</time>
  <course>2.09</course>
  <speed>0.03</speed>
  <fix>3d</fix>
</trkpt>
<trkpt lat="33.8103155" lon="-118.3938695">
  <ele>-2.63</ele>
  <time>2026-09-01T01:17:50Z</time>
  <course>28.0</course>
  <speed>0.01</speed>
  <fix>3d</fix>
</trkpt>
<trkpt lat="33.8103154" lon="-118.3938693">
  <ele>-2.731</ele>
  <time>2026-09-01T01:17:50Z</time>
  <course>2.14</course>
  <speed>0.03</speed>
  <fix>3d</fix>
</trkpt>
<trkpt lat="33.8103154" lon="-118.3938693">
  <ele>-2.707</ele>
  <time>2026-09-01T01:17:50Z</time>
  <course>2.73</course>
  <speed>0.03</speed>
  <fix>3d</fix>
</trkpt>
<trkpt lat="33.8103155" lon="-118.3938695">
  <ele>-2.59</ele>
  <time>2026-09-01T01:17:50Z</time>
  <course>29.17</course>
  <speed>0.01</speed>
  <fix>3d</fix>
</trkpt>
<trkpt lat="33.8103154" lon="-118.3938693">
  <ele>-2.706</ele>
  <time>2026-09-01T01:17:50Z</time>
  <course>2.74</course>
  <speed>0.03</speed>
  <fix>3d</fix>
</trkpt>
<trkpt lat="33.8103154" lon="-118.3938693">
  <ele>-2.682</ele>
  <time>2026-09-01T01:17:50Z</time>
  <course>3.37</course>
  <speed>0.03</speed>
  <fix>3d</fix>
</trkpt>
<trkpt lat="33.8103155" lon="-118.3938695">
  <ele>-2.59</ele>
  <time>2026-09-01T01:17:50Z</time>
  <course>29.17</course>
  <speed>0.01</speed>
  <fix>3d</fix>
</trkpt>
<trkpt lat="33.8103154" lon="-118.3938693">
  <ele>-2.68</ele>
  <time>2026-09-01T01:17:50Z</time>
  <course>3.43</course>
  <speed>0.03</speed>
  <fix>3d</fix>
</trkpt>
<trkpt lat="33.8103155" lon="-118.3938693">
  <ele>-2.662</ele>
  <time>2026-09-01T01:17:50Z</time>
  <course>4.01</course>
  <speed>0.03</speed>
  <fix>3d</fix>
</trkpt>
<trkpt lat="33.8103155" lon="-118.3938695">
  <ele>-2.55</ele>
  <time>2026-09-01T01:17:50Z</time>
  <course>30.4</course>
  <speed>0.01</speed>
  <fix>3d</fix>
</trkpt>
<trkpt lat="33.8103155" lon="-118.3938693">
  <ele>-2.661</ele>
  <time>2026-09-01T01:17:50Z</time>
  <course>4.04</course>
  <speed>0.03</speed>
  <fix>3d</fix>
</trkpt>
<trkpt lat="33.8103155" lon="-118.3938693">
  <ele>-2.653</ele>
  <time>2026-09-01T01:17:50Z</time>
  <course>4.65</course>
  <speed>0.03</speed>
  <fix>3d</fix>
</trkpt>
<trkpt lat="33.8103155" lon="-118.3938695">
  <ele>-2.55</ele>
  <time>2026-09-01T01:17:50Z</time>
  <course>30.4</course>
  <speed>0.01</speed>
  <fix>3d</fix>
</trkpt>
<trkpt lat="33.8103155" lon="-118.3938692">
  <ele>-2.652</ele>
  <time>2026-09-01T01:17:50Z</time>
  <course>4.81</course>
  <speed>0.03</speed>
  <fix>3d</fix>
</trkpt>
<trkpt lat="33.8103155" lon="-118.3938692">
  <ele>-2.645</ele>
  <time>2026-09-01T01:17:50Z</time>
  <course>5.29</course>
  <speed>0.03</speed>
  <fix>3d</fix>
</trkpt>
<trkpt lat="33.8103155" lon="-118.3938695">
  <ele>-2.51</ele>
  <time>2026-09-01T01:17:50Z</time>
  <course>31.59</course>
  <speed>0.01</speed>
  <fix>3d</fix>
</trkpt>
<trkpt lat="33.8103155" lon="-118.3938692">
  <ele>-2.643</ele>
  <time>2026-09-01T01:17:50Z</time>
  <course>5.43</course>
  <speed>0.03</speed>
  <fix>3d</fix>
</trkpt>
<trkpt lat="33.8103155" lon="-118.3938692">
  <ele>-2.636</ele>
  <time>2026-09-01T01:17:50Z</time>
  <course>5.93</course>
  <speed>0.03</speed>
  <fix>3d</fix>
</trkpt>
<trkpt lat="33.8103155" lon="-118.3938695">
  <ele>-2.51</ele>
  <time>2026-09-01T01:17:50Z</time>
  <course>31.59</course>
  <speed>0.01</speed>
  <fix>3d</fix>
</trkpt>
<trkpt lat="33.8103155" lon="-118.3938692">
  <ele>-2.633</ele>
  <time>2026-09-01T01:17:50Z</time>
  <course>6.06</course>
  <speed>0.03</speed>
  <fix>3d</fix>
</trkpt>
<trkpt lat="33.8103155" lon="-118.3938692">
  <ele>-2.628</ele>
  <time>2026-09-01T01:17:50Z</time>
  <course>6.57</course>
  <speed>0.03</speed>
  <fix>3d</fix>
</trkpt>
<trkpt lat="33.8103155" lon="-118.3938695">
  <ele>-2.47</ele>
  <time>2026-09-01T01:17:50Z</time>
  <course>32.74</course>
  <speed>0.01</speed>
  <fix>3d</fix>
</trkpt>
<trkpt lat="33.8103155" lon="-118.3938692">
  <ele>-2.627</ele>
  <time>2026-09-01T01:17:50Z</time>
  <course>6.67</course>
  <speed>0.03</speed>
  <fix>3d</fix>
</trkpt>
<trkpt lat="33.8103155" lon="-118.3938692">
  <ele>-2.627</ele>
  <time>2026-09-01T01:17:50Z</time>
  <course>7.21</course>
  <speed>0.03</speed>
  <fix>3d</fix>
</trkpt>
<trkpt lat="33.8103155" lon="-118.3938695">
  <ele>-2.47</ele>
  <time>2026-09-01T01:17:50Z</time>
  <course>32.74</course>
  <speed>0.01</speed>
  <fix>3d</fix>
</trkpt>
<trkpt lat="33.8103155" lon="-118.3938692">
  <ele>-2.628</ele>
  <time>2026-09-01T01:17:50Z</time>
  <course>7.28</course>
  <speed>0.03</speed>
  <fix>3d</fix>
</trkpt>
<trkpt lat="33.8103155" lon="-118.3938692">
  <ele>-2.619</ele>
  <time>2026-09-01T01:17:50Z</time>
  <course>7.85</course>
  <speed>0.03</speed>
  <fix>3d</fix>
</trkpt>
<trkpt lat="33.8103156" lon="-118.3938695">
  <ele>-2.43</ele>
  <time>2026-09-01T01:17:50Z</time>
  <course>33.9</course>
  <speed>0.01</speed>
  <fix>3d</fix>
</trkpt>
<trkpt lat="33.8103155" lon="-118.3938692">
  <ele>-2.616</ele>
  <time>2026-09-01T01:17:50Z</time>
  <course>7.98</course>
  <speed>0.03</speed>
  <fix>3d</fix>
</trkpt>
<trkpt lat="33.8103155" lon="-118.3938692">
  <ele>-2.607</ele>
  <time>2026-09-01T01:17:50Z</time>
  <course>8.49</course>
  <speed>0.03</speed>
  <fix>3d</fix>
</trkpt>
<trkpt lat="33.8103156" lon="-118.3938695">
  <ele>-2.43</ele>
  <time>2026-09-01T01:17:50Z</time>
  <course>33.9</course>
  <speed>0.01</speed>
  <fix>3d</fix>
</trkpt>
<trkpt lat="33.8103155" lon="-118.3938692">
  <ele>-2.604</ele>
  <time>2026-09-01T01:17:50Z</time>
  <course>8.61</course>
  <speed>0.03</speed>
  <fix>3d</fix>
</trkpt>
<trkpt lat="33.8103155" lon="-118.3938692">
  <ele>-2.589</ele>
  <time>2026-09-01T01:17:50Z</time>
  <course>9.13</course>
  <speed>0.03</speed>
  <fix>3d</fix>
</trkpt>
<trkpt lat="33.8103156" lon="-118.3938694">
  <ele>-2.38</ele>
  <time>2026-09-01T01:17:50Z</time>
  <course>35.07</course>
  <speed>0.01</speed>
  <fix>3d</fix>
</trkpt>
<trkpt lat="33.8103155" lon="-118.3938692">
  <ele>-2.585</ele>
  <time>2026-09-01T01:17:50Z</time>
  <course>9.25</course>
  <speed>0.03</speed>
  <fix>3d</fix>
</trkpt>
<trkpt lat="33.8103155" lon="-118.3938692">
  <ele>-2.57</ele>
  <time>2026-09-01T01:17:50Z</time>
  <course>9.78</course>
  <speed>0.03</speed>
  <fix>3d</fix>
</trkpt>
<trkpt lat="33.8103156" lon="-118.3938694">
  <ele>-2.38</ele>
  <time>2026-09-01T01:17:50Z</time>
  <course>35.07</course>
  <speed>0.01</speed>
  <fix>3d</fix>
</trkpt>
<trkpt lat="33.8103155" lon="-118.3938692">
  <ele>-2.569</ele>
  <time>2026-09-01T01:17:50Z</time>
  <course>9.79</course>
  <speed>0.03</speed>
  <fix>3d</fix>
</trkpt>
<trkpt lat="33.8103155" lon="-118.3938692">
  <ele>-2.552</ele>
  <time>2026-09-01T01:17:50Z</time>
  <course>10.42</course>
  <speed>0.03</speed>
  <fix>3d</fix>
</trkpt>
<trkpt lat="33.8103156" lon="-118.3938694">
  <ele>-2.35</ele>
  <time>2026-09-01T01:17:50Z</time>
  <course>36.29</course>
  <speed>0.01</speed>
  <fix>3d</fix>
</trkpt>
<trkpt lat="33.8103155" lon="-118.3938692">
  <ele>-2.551</ele>
  <time>2026-09-01T01:17:50Z</time>
  <course>10.44</course>
  <speed>0.03</speed>
  <fix>3d</fix>
</trkpt>
<trkpt lat="33.8103155" lon="-118.3938692">
  <ele>-2.54</ele>
  <time>2026-09-01T01:17:50Z</time>
  <course>11.06</course>
  <speed>0.03</speed>
  <fix>3d</fix>
</trkpt>
<trkpt lat="33.8103156" lon="-118.3938694">
  <ele>-2.35</ele>
  <time>2026-09-01T01:17:50Z</time>
  <course>36.29</course>
  <speed>0.01</speed>
  <fix>3d</fix>
</trkpt>
<trkpt lat="33.8103155" lon="-118.3938692">
  <ele>-2.539</ele>
  <time>2026-09-01T01:17:50Z</time>
  <course>11.08</course>
  <speed>0.03</speed>
  <fix>3d</fix>
</trkpt>
<trkpt lat="33.8103155" lon="-118.3938692">
  <ele>-2.523</ele>
  <time>2026-09-01T01:17:50Z</time>
  <course>11.71</course>
  <speed>0.03</speed>
  <fix>3d</fix>
</trkpt>
<trkpt lat="33.8103156" lon="-118.3938694">
  <ele>-2.31</ele>
  <time>2026-09-01T01:17:50Z</time>
  <course>37.5</course>
  <speed>0.01</speed>
  <fix>3d</fix>
</trkpt>
<trkpt lat="33.8103155" lon="-118.3938692">
  <ele>-2.518</ele>
  <time>2026-09-01T01:17:50Z</time>
  <course>11.87</course>
  <speed>0.03</speed>
  <fix>3d</fix>
</trkpt>
<trkpt lat="33.8103155" lon="-118.3938692">
  <ele>-2.506</ele>
  <time>2026-09-01T01:17:50Z</time>
  <course>12.35</course>
  <speed>0.03</speed>
  <fix>3d</fix>
</trkpt>
<trkpt lat="33.8103156" lon="-118.3938694">
  <ele>-2.31</ele>
  <time>2026-09-01T01:17:50Z</time>
  <course>37.5</course>
  <speed>0.01</speed>
  <fix>3d</fix>
</trkpt>
<trkpt lat="33.8103155" lon="-118.3938692">
  <ele>-2.502</ele>
  <time>2026-09-01T01:17:50Z</time>
  <course>12.5</course>
  <speed>0.03</speed>
  <fix>3d</fix>
</trkpt>
<trkpt lat="33.8103155" lon="-118.3938692">
  <ele>-2.492</ele>
  <time>2026-09-01T01:17:50Z</time>
  <course>13.0</course>
  <speed>0.03</speed>
  <fix>3d</fix>
</trkpt>
<trkpt lat="33.8103157" lon="-118.3938694">
  <ele>-2.27</ele>
  <time>2026-09-01T01:17:50Z</time>
  <course>38.67</course>
  <speed>0.01</speed>
  <fix>3d</fix>
</trkpt>
<trkpt lat="33.8103155" lon="-118.3938692">
  <ele>-2.488</ele>
  <time>2026-09-01T01:17:50Z</time>
  <course>13.16</course>
  <speed>0.03</speed>
  <fix>3d</fix>
</trkpt>
<trkpt lat="33.8103155" lon="-118.3938691">
  <ele>-2.474</ele>
  <time>2026-09-01T01:17:50Z</time>
  <course>13.64</course>
  <speed>0.03</speed>
  <fix>3d</fix>
</trkpt>
<trkpt lat="33.8103157" lon="-118.3938694">
  <ele>-2.27</ele>
  <time>2026-09-01T01:17:50Z</time>
  <course>38.67</course>
  <speed>0.01</speed>
  <fix>3d</fix>
</trkpt>
<trkpt lat="33.8103155" lon="-118.3938691">
  <ele>-2.469</ele>
  <time>2026-09-01T01:17:50Z</time>
  <course>13.8</course>
  <speed>0.03</speed>
  <fix>3d</fix>
</trkpt>
<trkpt lat="33.8103155" lon="-118.3938691">
  <ele>-2.448</ele>
  <time>2026-09-01T01:17:50Z</time>
  <course>14.28</course>
  <speed>0.03</speed>
  <fix>3d</fix>
</trkpt>
<trkpt lat="33.8103158" lon="-118.3938694">
  <ele>-2.23</ele>
  <time>2026-09-01T01:17:50Z</time>
  <course>39.84</course>
  <speed>0.01</speed>
  <fix>3d</fix>
</trkpt>
<trkpt lat="33.8103155" lon="-118.3938691">
  <ele>-2.441</ele>
  <time>2026-09-01T01:17:50Z</time>
  <course>14.45</course>
  <speed>0.03</speed>
  <fix>3d</fix>
</trkpt>
<trkpt lat="33.8103156" lon="-118.3938691">
  <ele>-2.415</ele>
  <time>2026-09-01T01:17:50Z</time>
  <course>14.93</course>
  <speed>0.03</speed>
  <fix>3d</fix>
</trkpt>
<trkpt lat="33.8103158" lon="-118.3938694">
  <ele>-2.23</ele>
  <time>2026-09-01T01:17:50Z</time>
  <course>39.84</course>
  <speed>0.01</speed>
  <fix>3d</fix>
</trkpt>
<trkpt lat="33.8103156" lon="-118.3938691">
  <ele>-2.405</ele>
  <time>2026-09-01T01:17:50Z</time>
  <course>15.09</course>
  <speed>0.03</speed>
  <fix>3d</fix>
</trkpt>
<trkpt lat="33.8103156" lon="-118.3938691">
  <ele>-2.379</ele>
  <time>2026-09-01T01:17:50Z</time>
  <course>15.57</course>
  <speed>0.03</speed>
  <fix>3d</fix>
</trkpt>
<trkpt lat="33.8103158" lon="-118.3938693">
  <ele>-2.19</ele>
  <time>2026-09-01T01:17:50Z</time>
  <course>41.01</course>
  <speed>0.01</speed>
  <fix>3d</fix>
</trkpt>
<trkpt lat="33.8103156" lon="-118.3938691">
  <ele>-2.372</ele>
  <time>2026-09-01T01:17:50Z</time>
  <course>15.72</course>
  <speed>0.03</speed>
  <fix>3d</fix>
</trkpt>
<trkpt lat="33.8103156" lon="-118.3938691">
  <ele>-2.349</ele>
  <time>2026-09-01T01:17:50Z</time>
  <course>16.21</course>
  <speed>0.03</speed>
  <fix>3d</fix>
</trkpt>
<trkpt lat="33.8103158" lon="-118.3938693">
  <ele>-2.19</ele>
  <time>2026-09-01T01:17:50Z</time>
  <course>41.01</course>
  <speed>0.01</speed>
  <fix>3d</fix>
</trkpt>
<trkpt lat="33.8103156" lon="-118.3938691">
  <ele>-2.342</ele>
  <time>2026-09-01T01:17:50Z</time>
  <course>16.36</course>
  <speed>0.03</speed>
  <fix>3d</fix>
</trkpt>
<trkpt lat="33.8103156" lon="-118.3938691">
  <ele>-2.325</ele>
  <time>2026-09-01T01:17:50Z</time>
  <course>16.86</course>
  <speed>0.03</speed>
  <fix>3d</fix>
</trkpt>
<trkpt lat="33.8103158" lon="-118.3938693">
  <ele>-2.15</ele>
  <time>2026-09-01T01:17:50Z</time>
  <course>42.22</course>
  <speed>0.01</speed>
  <fix>3d</fix>
</trkpt>
<trkpt lat="33.8103156" lon="-118.3938691">
  <ele>-2.325</ele>
  <time>2026-09-01T01:17:50Z</time>
  <course>16.87</course>
  <speed>0.03</speed>
  <fix>3d</fix>
</trkpt>
<trkpt lat="33.8103156" lon="-118.3938691">
  <ele>-2.31</ele>
  <time>2026-09-01T01:17:50Z</time>
  <course>17.51</course>
  <speed>0.03</speed>
  <fix>3d</fix>
</trkpt>
<trkpt lat="33.8103158" lon="-118.3938693">
  <ele>-2.15</ele>
  <time>2026-09-01T01:17:50Z</time>
  <course>42.22</course>
  <speed>0.01</speed>
  <fix>3d</fix>
</trkpt>
<trkpt lat="33.8103156" lon="-118.3938691">
  <ele>-2.309</ele>
  <time>2026-09-01T01:17:50Z</time>
  <course>17.52</course>
  <speed>0.03</speed>
  <fix>3d</fix>
</trkpt>
<trkpt lat="33.8103156" lon="-118.3938691">
  <ele>-2.298</ele>
  <time>2026-09-01T01:17:50Z</time>
  <course>18.15</course>
  <speed>0.03</speed>
  <fix>3d</fix>
</trkpt>
<trkpt lat="33.8103158" lon="-118.3938693">
  <ele>-2.11</ele>
  <time>2026-09-01T01:17:50Z</time>
  <course>43.45</course>
  <speed>0.01</speed>
  <fix>3d</fix>
</trkpt>
<trkpt lat="33.8103156" lon="-118.3938691">
  <ele>-2.295</ele>
  <time>2026-09-01T01:17:50Z</time>
  <course>18.32</course>
  <speed>0.03</speed>
  <fix>3d</fix>
</trkpt>
<trkpt lat="33.8103156" lon="-118.3938691">
  <ele>-2.291</ele>
  <time>2026-09-01T01:17:50Z</time>
  <course>18.8</course>
  <speed>0.03</speed>
  <fix>3d</fix>
</trkpt>
<trkpt lat="33.8103158" lon="-118.3938693">
  <ele>-2.11</ele>
  <time>2026-09-01T01:17:50Z</time>
  <course>43.45</course>
  <speed>0.01</speed>
  <fix>3d</fix>
</trkpt>
<trkpt lat="33.8103156" lon="-118.3938691">
  <ele>-2.291</ele>
  <time>2026-09-01T01:17:50Z</time>
  <course>18.81</course>
  <speed>0.03</speed>
  <fix>3d</fix>
</trkpt>
<trkpt lat="33.8103156" lon="-118.3938691">
  <ele>-2.285</ele>
  <time>2026-09-01T01:17:50Z</time>
  <course>19.44</course>
  <speed>0.03</speed>
  <fix>3d</fix>
</trkpt>
<trkpt lat="33.8103158" lon="-118.3938693">
  <ele>-2.07</ele>
  <time>2026-09-01T01:17:50Z</time>
  <course>44.63</course>
  <speed>0.01</speed>
  <fix>3d</fix>
</trkpt>
<trkpt lat="33.8103156" lon="-118.3938691">
  <ele>-2.281</ele>
  <time>2026-09-01T01:17:50Z</time>
  <course>19.6</course>
  <speed>0.03</speed>
  <fix>3d</fix>
</trkpt>
<trkpt lat="33.8103156" lon="-118.3938691">
  <ele>-2.272</ele>
  <time>2026-09-01T01:17:50Z</time>
  <course>20.09</course>
  <speed>0.03</speed>
  <fix>3d</fix>
</trkpt>
<trkpt lat="33.8103158" lon="-118.3938693">
  <ele>-2.07</ele>
  <time>2026-09-01T01:17:50Z</time>
  <course>44.63</course>
  <speed>0.01</speed>
  <fix>3d</fix>
</trkpt>
<trkpt lat="33.8103156" lon="-118.3938691">
  <ele>-2.269</ele>
  <time>2026-09-01T01:17:50Z</time>
  <course>20.26</course>
  <speed>0.03</speed>
  <fix>3d</fix>
</trkpt>
<trkpt lat="33.8103157" lon="-118.393869">
  <ele>-2.261</ele>
  <time>2026-09-01T01:17:50Z</time>
  <course>20.73</course>
  <speed>0.03</speed>
  <fix>3d</fix>
</trkpt>
<trkpt lat="33.8103159" lon="-118.3938693">
  <ele>-2.03</ele>
  <time>2026-09-01T01:17:50Z</time>
  <course>45.8</course>
  <speed>0.01</speed>
  <fix>3d</fix>
</trkpt>
<trkpt lat="33.8103157" lon="-118.393869">
  <ele>-2.258</ele>
  <time>2026-09-01T01:17:50Z</time>
  <course>20.91</course>
  <speed>0.03</speed>
  <fix>3d</fix>
</trkpt>
<trkpt lat="33.8103157" lon="-118.393869">
  <ele>-2.251</ele>
  <time>2026-09-01T01:17:50Z</time>
  <course>21.38</course>
  <speed>0.03</speed>
  <fix>3d</fix>
</trkpt>
<trkpt lat="33.8103159" lon="-118.3938693">
  <ele>-2.03</ele>
  <time>2026-09-01T01:17:50Z</time>
  <course>45.8</course>
  <speed>0.01</speed>
  <fix>3d</fix>
</trkpt>
<trkpt lat="33.8103157" lon="-118.393869">
  <ele>-2.25</ele>
  <time>2026-09-01T01:17:50Z</time>
  <course>21.54</course>
  <speed>0.03</speed>
  <fix>3d</fix>
</trkpt>
<trkpt lat="33.8103157" lon="-118.393869">
  <ele>-2.245</ele>
  <time>2026-09-01T01:17:50Z</time>
  <course>22.03</course>
  <speed>0.03</speed>
  <fix>3d</fix>
</trkpt>
<trkpt lat="33.8103159" lon="-118.3938692">
  <ele>-1.99</ele>
  <time>2026-09-01T01:17:50Z</time>
  <course>46.97</course>
  <speed>0.01</speed>
  <fix>3d</fix>
</trkpt>
<trkpt lat="33.8103157" lon="-118.393869">
  <ele>-2.243</ele>
  <time>2026-09-01T01:17:50Z</time>
  <course>22.17</course>
  <speed>0.03</speed>
  <fix>3d</fix>
</trkpt>
<trkpt lat="33.8103157" lon="-118.393869">
  <ele>-2.236</ele>
  <time>2026-09-01T01:17:50Z</time>
  <course>22.67</course>
  <speed>0.03</speed>
  <fix>3d</fix>
</trkpt>
<trkpt lat="33.8103159" lon="-118.3938692">
  <ele>-1.99</ele>
  <time>2026-09-01T01:17:50Z</time>
  <course>46.97</course>
  <speed>0.01</speed>
  <fix>3d</fix>
</trkpt>
<trkpt lat="33.8103157" lon="-118.393869">
  <ele>-2.233</ele>
  <time>2026-09-01T01:17:50Z</time>
  <course>22.79</course>
  <speed>0.03</speed>
  <fix>3d</fix>
</trkpt>
<trkpt lat="33.8103157" lon="-118.393869">
  <ele>-2.219</ele>
  <time>2026-09-01T01:17:50Z</time>
  <course>23.32</course>
  <speed>0.03</speed>
  <fix>3d</fix>
</trkpt>
<trkpt lat="33.8103159" lon="-118.3938692">
  <ele>-1.94</ele>
  <time>2026-09-01T01:17:50Z</time>
  <course>48.17</course>
  <speed>0.01</speed>
  <fix>3d</fix>
</trkpt>
<trkpt lat="33.8103157" lon="-118.393869">
  <ele>-2.216</ele>
  <time>2026-09-01T01:17:50Z</time>
  <course>23.41</course>
  <speed>0.03</speed>
  <fix>3d</fix>
</trkpt>
<trkpt lat="33.8103157" lon="-118.393869">
  <ele>-2.192</ele>
  <time>2026-09-01T01:17:50Z</time>
  <course>23.96</course>
  <speed>0.03</speed>
  <fix>3d</fix>
</trkpt>
<trkpt lat="33.8103159" lon="-118.3938692">
  <ele>-1.94</ele>
  <time>2026-09-01T01:17:50Z</time>
  <course>48.17</course>
  <speed>0.01</speed>
  <fix>3d</fix>
</trkpt>
<trkpt lat="33.8103157" lon="-118.393869">
  <ele>-2.192</ele>
  <time>2026-09-01T01:17:50Z</time>
  <course>23.98</course>
  <speed>0.03</speed>
  <fix>3d</fix>
</trkpt>
<trkpt lat="33.8103157" lon="-118.393869">
  <ele>-2.159</ele>
  <time>2026-09-01T01:17:51Z</time>
  <course>24.61</course>
  <speed>0.03</speed>
  <fix>3d</fix>
</trkpt>
<trkpt lat="33.8103159" lon="-118.3938692">
  <ele>-1.9</ele>
  <time>2026-09-01T01:17:51Z</time>
  <course>49.42</course>
  <speed>0.01</speed>
  <fix>3d</fix>
</trkpt>
<trkpt lat="33.8103157" lon="-118.393869">
  <ele>-2.151</ele>
  <time>2026-09-01T01:17:51Z</time>
  <course>24.75</course>
  <speed>0.03</speed>
  <fix>3d</fix>
</trkpt>
<trkpt lat="33.8103157" lon="-118.393869">
  <ele>-2.129</ele>
  <time>2026-09-01T01:17:51Z</time>
  <course>25.25</course>
  <speed>0.03</speed>
  <fix>3d</fix>
</trkpt>
<trkpt lat="33.8103159" lon="-118.3938692">
  <ele>-1.9</ele>
  <time>2026-09-01T01:17:51Z</time>
  <course>49.42</course>
  <speed>0.01</speed>
  <fix>3d</fix>
</trkpt>
<trkpt lat="33.8103157" lon="-118.393869">
  <ele>-2.125</ele>
  <time>2026-09-01T01:17:51Z</time>
  <course>25.37</course>
  <speed>0.03</speed>
  <fix>3d</fix>
</trkpt>
<trkpt lat="33.8103157" lon="-118.393869">
  <ele>-2.108</ele>
  <time>2026-09-01T01:17:51Z</time>
  <course>25.9</course>
  <speed>0.0316227766016838</speed>
  <fix>3d</fix>
</trkpt>
<trkpt lat="33.8103159" lon="-118.3938692">
  <ele>-1.86</ele>
  <time>2026-09-01T01:17:51Z</time>
  <course>50.61</course>
  <speed>0.01</speed>
  <fix>3d</fix>
</trkpt>
<trkpt lat="33.8103157" lon="-118.393869">
  <ele>-2.106</ele>
  <time>2026-09-01T01:17:51Z</time>
  <course>25.99</course>
  <speed>0.0316227766016838</speed>
  <fix>3d</fix>
</trkpt>
<trkpt lat="33.8103157" lon="-118.393869">
  <ele>-2.088</ele>
  <time>2026-09-01T01:17:51Z</time>
  <course>26.56</course>
  <speed>0.0316227766016838</speed>
  <fix>3d</fix>
</trkpt>
<trkpt lat="33.8103159" lon="-118.3938692">
  <ele>-1.86</ele>
  <time>2026-09-01T01:17:51Z</time>
  <course>50.61</course>
  <speed>0.01</speed>
  <fix>3d</fix>
</trkpt>
<trkpt lat="33.8103157" lon="-118.393869">
  <ele>-2.085</ele>
  <time>2026-09-01T01:17:51Z</time>
  <course>26.62</course>
  <speed>0.0316227766016838</speed>
  <fix>3d</fix>
</trkpt>
<trkpt lat="33.8103157" lon="-118.393869">
  <ele>-2.064</ele>
  <time>2026-09-01T01:17:51Z</time>
  <course>27.21</course>
  <speed>0.0316227766016838</speed>
  <fix>3d</fix>
</trkpt>
<trkpt lat="33.8103159" lon="-118.3938691">
  <ele>-1.81</ele>
  <time>2026-09-01T01:17:51Z</time>
  <course>51.77</course>
  <speed>0.01</speed>
  <fix>3d</fix>
</trkpt>
<trkpt lat="33.8103157" lon="-118.393869">
  <ele>-2.062</ele>
  <time>2026-09-01T01:17:51Z</time>
  <course>27.24</course>
  <speed>0.022360679774997897</speed>
  <fix>3d</fix>
</trkpt>
<trkpt lat="33.8103157" lon="-118.3938689">
  <ele>-2.033</ele>
  <time>2026-09-01T01:17:51Z</time>
  <course>27.85</course>
  <speed>0.022360679774997897</speed>
  <fix>3d</fix>
</trkpt>
<trkpt lat="33.8103159" lon="-118.3938691">
  <ele>-1.81</ele>
  <time>2026-09-01T01:17:51Z</time>
  <course>51.77</course>
  <speed>0.01</speed>
  <fix>3d</fix>
</trkpt>
<trkpt lat="33.8103157" lon="-118.3938689">
  <ele>-2.023</ele>
  <time>2026-09-01T01:17:51Z</time>
  <course>28.01</course>
  <speed>0.022360679774997897</speed>
  <fix>3d</fix>
</trkpt>
<trkpt lat="33.8103158" lon="-118.3938689">
  <ele>-1.998</ele>
  <time>2026-09-01T01:17:51Z</time>
  <course>28.5</course>
  <speed>0.022360679774997897</speed>
  <fix>3d</fix>
</trkpt>
<trkpt lat="33.810316" lon="-118.3938691">
  <ele>-1.78</ele>
  <time>2026-09-01T01:17:51Z</time>
  <course>52.95</course>
  <speed>0.01</speed>
  <fix>3d</fix>
</trkpt>
<trkpt lat="33.8103158" lon="-118.3938689">
  <ele>-1.992</ele>
  <time>2026-09-01T01:17:51Z</time>
  <course>28.65</course>
  <speed>0.022360679774997897</speed>
  <fix>3d</fix>
</trkpt>
<trkpt lat="33.8103158" lon="-118.3938689">
  <ele>-1.971</ele>
  <time>2026-09-01T01:17:51Z</time>
  <course>29.15</course>
  <speed>0.022360679774997897</speed>
  <fix>3d</fix>
</trkpt>
<trkpt lat="33.810316" lon="-118.3938691">
  <ele>-1.78</ele>
  <time>2026-09-01T01:17:51Z</time>
  <course>52.95</course>
  <speed>0.01</speed>
  <fix>3d</fix>
</trkpt>
<trkpt lat="33.8103158" lon="-118.3938689">
  <ele>-1.965</ele>
  <time>2026-09-01T01:17:51Z</time>
  <course>29.28</course>
  <speed>0.022360679774997897</speed>
  <fix>3d</fix>
</trkpt>
<trkpt lat="33.8103158" lon="-118.3938689">
  <ele>-1.94</ele>
  <time>2026-09-01T01:17:51Z</time>
  <course>29.79</course>
  <speed>0.022360679774997897</speed>
  <fix>3d</fix>
</trkpt>
<trkpt lat="33.810316" lon="-118.3938691">
  <ele>-1.74</ele>
  <time>2026-09-01T01:17:51Z</time>
  <course>54.13</course>
  <speed>0.01</speed>
  <fix>3d</fix>
</trkpt>
<trkpt lat="33.8103158" lon="-118.3938689">
  <ele>-1.933</ele>
  <time>2026-09-01T01:17:51Z</time>
  <course>29.91</course>
  <speed>0.022360679774997897</speed>
  <fix>3d</fix>
</trkpt>
<trkpt lat="33.8103158" lon="-118.3938689">
  <ele>-1.91</ele>
  <time>2026-09-01T01:17:51Z</time>
  <course>30.44</course>
  <speed>0.022360679774997897</speed>
  <fix>3d</fix>
</trkpt>
<trkpt lat="33.810316" lon="-118.3938691">
  <ele>-1.74</ele>
  <time>2026-09-01T01:17:51Z</time>
  <course>54.13</course>
  <speed>0.01</speed>
  <fix>3d</fix>
</trkpt>
<trkpt lat="33.8103158" lon="-118.3938689">
  <ele>-1.907</ele>
  <time>2026-09-01T01:17:51Z</time>
  <course>30.52</course>
  <speed>0.022360679774997897</speed>
  <fix>3d</fix>
</trkpt>
<trkpt lat="33.8103158" lon="-118.3938689">
  <ele>-1.891</ele>
  <time>2026-09-01T01:17:51Z</time>
  <course>31.09</course>
  <speed>0.022360679774997897</speed>
  <fix>3d</fix>
</trkpt>
<trkpt lat="33.810316" lon="-118.393869">
  <ele>-1.7</ele>
  <time>2026-09-01T01:17:51Z</time>
  <course>55.37</course>
  <speed>0.01</speed>
  <fix>3d</fix>
</trkpt>
<trkpt lat="33.8103158" lon="-118.3938689">
  <ele>-1.891</ele>
  <time>2026-09-01T01:17:51Z</time>
  <course>31.11</course>
  <speed>0.022360679774997897</speed>
  <fix>3d</fix>
</trkpt>
<trkpt lat="33.8103158" lon="-118.3938689">
  <ele>-1.878</ele>
  <time>2026-09-01T01:17:51Z</time>
  <course>31.74</course>
  <speed>0.022360679774997897</speed>
  <fix>3d</fix>
</trkpt>
<trkpt lat="33.810316" lon="-118.393869">
  <ele>-1.7</ele>
  <time>2026-09-01T01:17:51Z</time>
  <course>55.37</course>
  <speed>0.01</speed>
  <fix>3d</fix>
</trkpt>
<trkpt lat="33.8103158" lon="-118.3938689">
  <ele>-1.876</ele>
  <time>2026-09-01T01:17:51Z</time>
  <course>31.81</course>
  <speed>0.022360679774997897</speed>
  <fix>3d</fix>
</trkpt>
<trkpt lat="33.8103158" lon="-118.3938689">
  <ele>-1.861</ele>
  <time>2026-09-01T01:17:51Z</time>
  <course>32.39</course>
  <speed>0.022360679774997897</speed>
  <fix>3d</fix>
</trkpt>
<trkpt lat="33.810316" lon="-118.393869">
  <ele>-1.65</ele>
  <time>2026-09-01T01:17:51Z</time>
  <course>56.58</course>
  <speed>0.01</speed>
  <fix>3d</fix>
</trkpt>
<trkpt lat="33.8103158" lon="-118.3938689">
  <ele>-1.859</ele>
  <time>2026-09-01T01:17:51Z</time>
  <course>32.49</course>
  <speed>0.022360679774997897</speed>
  <fix>3d</fix>
</trkpt>
<trkpt lat="33.8103158" lon="-118.3938688">
  <ele>-1.845</ele>
  <time>2026-09-01T01:17:51Z</time>
  <course>33.04</course>
  <speed>0.022360679774997897</speed>
  <fix>3d</fix>
</trkpt>
<trkpt lat="33.810316" lon="-118.393869">
  <ele>-1.65</ele>
  <time>2026-09-01T01:17:51Z</time>
  <course>56.58</course>
  <speed>0.01</speed>
  <fix>3d</fix>
</trkpt>
<trkpt lat="33.8103158" lon="-118.3938688">
  <ele>-1.843</ele>
  <time>2026-09-01T01:17:51Z</time>
  <course>33.12</course>
  <speed>0.022360679774997897</speed>
  <fix>3d</fix>
</trkpt>
<trkpt lat="33.8103158" lon="-118.3938688">
  <ele>-1.831</ele>
  <time>2026-09-01T01:17:51Z</time>
  <course>33.69</course>
  <speed>0.022360679774997897</speed>
  <fix>3d</fix>
</trkpt>
<trkpt lat="33.810316" lon="-118.393869">
  <ele>-1.61</ele>
  <time>2026-09-01T01:17:51Z</time>
  <course>57.74</course>
  <speed>0.01</speed>
  <fix>3d</fix>
</trkpt>
<trkpt lat="33.8103158" lon="-118.3938688">
  <ele>-1.83</ele>
  <time>2026-09-01T01:17:51Z</time>
  <course>33.73</course>
  <speed>0.022360679774997897</speed>
  <fix>3d</fix>
</trkpt>
<trkpt lat="33.8103158" lon="-118.3938688">
  <ele>-1.821</ele>
  <time>2026-09-01T01:17:51Z</time>
  <course>34.34</course>
  <speed>0.022360679774997897</speed>
  <fix>3d</fix>
</trkpt>
<trkpt lat="33.810316" lon="-118.393869">
  <ele>-1.61</ele>
  <time>2026-09-01T01:17:51Z</time>
  <course>57.74</course>
  <speed>0.01</speed>
  <fix>3d</fix>
</trkpt>
<trkpt lat="33.8103158" lon="-118.3938688">
  <ele>-1.821</ele>
  <time>2026-09-01T01:17:51Z</time>
  <course>34.36</course>
  <speed>0.022360679774997897</speed>
  <fix>3d</fix>
</trkpt>
<trkpt lat="33.8103158" lon="-118.3938688">
  <ele>-1.816</ele>
  <time>2026-09-01T01:17:51Z</time>
  <course>34.99</course>
  <speed>0.022360679774997897</speed>
  <fix>3d</fix>
</trkpt>
<trkpt lat="33.810316" lon="-118.393869">
  <ele>-1.56</ele>
  <time>2026-09-01T01:17:51Z</time>
  <course>58.91</course>
  <speed>0.01</speed>
  <fix>3d</fix>
</trkpt>
<trkpt lat="33.8103158" lon="-118.3938688">
  <ele>-1.816</ele>
  <time>2026-09-01T01:17:51Z</time>
  <course>35.14</course>
  <speed>0.022360679774997897</speed>
  <fix>3d</fix>
</trkpt>
<trkpt lat="33.8103158" lon="-118.3938688">
  <ele>-1.811</ele>
  <time>2026-09-01T01:17:51Z</time>
  <course>35.64</course>
  <speed>0.022360679774997897</speed>
  <fix>3d</fix>
</trkpt>
<trkpt lat="33.810316" lon="-118.393869">
  <ele>-1.56</ele>
  <time>2026-09-01T01:17:51Z</time>
  <course>58.91</course>
  <speed>0.01</speed>
  <fix>3d</fix>
</trkpt>
<trkpt lat="33.8103158" lon="-118.3938688">
  <ele>-1.809</ele>
  <time>2026-09-01T01:17:51Z</time>
  <course>35.77</course>
  <speed>0.022360679774997897</speed>
  <fix>3d</fix>
</trkpt>
<trkpt lat="33.8103158" lon="-118.3938688">
  <ele>-1.802</ele>
  <time>2026-09-01T01:17:51Z</time>
  <course>36.29</course>
  <speed>0.022360679774997897</speed>
  <fix>3d</fix>
</trkpt>
<trkpt lat="33.8103161" lon="-118.3938689">
  <ele>-1.53</ele>
  <time>2026-09-01T01:17:51Z</time>
  <course>60.09</course>
  <speed>0.01</speed>
  <fix>3d</fix>
</trkpt>
<trkpt lat="33.8103158" lon="-118.3938688">
  <ele>-1.801</ele>
  <time>2026-09-01T01:17:51Z</time>
  <course>36.41</course>
  <speed>0.022360679774997897</speed>
  <fix>3d</fix>
</trkpt>
<trkpt lat="33.8103159" lon="-118.3938688">
  <ele>-1.789</ele>
  <time>2026-09-01T01:17:51Z</time>
  <course>36.94</course>
  <speed>0.022360679774997897</speed>
  <fix>3d</fix>
</trkpt>
<trkpt lat="33.8103161" lon="-118.3938689">
  <ele>-1.53</ele>
  <time>2026-09-01T01:17:51Z</time>
  <course>60.09</course>
  <speed>0.01</speed>
  <fix>3d</fix>
</trkpt>
<trkpt lat="33.8103159" lon="-118.3938688">
  <ele>-1.787</ele>
  <time>2026-09-01T01:17:51Z</time>
  <course>37.02</course>
  <speed>0.022360679774997897</speed>
  <fix>3d</fix>
</trkpt>
<trkpt lat="33.8103159" lon="-118.3938688">
  <ele>-1.766</ele>
  <time>2026-09-01T01:17:51Z</time>
  <course>37.59</course>
  <speed>0.022360679774997897</speed>
  <fix>3d</fix>
</trkpt>
<trkpt lat="33.8103161" lon="-118.3938689">
  <ele>-1.49</ele>
  <time>2026-09-01T01:17:51Z</time>
  <course>61.31</course>
  <speed>0.01</speed>
  <fix>3d</fix>
</trkpt>
<trkpt lat="33.8103159" lon="-118.3938688">
  <ele>-1.762</ele>
  <time>2026-09-01T01:17:51Z</time>
  <course>37.66</course>
  <speed>0.022360679774997897</speed>
  <fix>3d</fix>
</trkpt>
<trkpt lat="33.8103159" lon="-118.3938687">
  <ele>-1.734</ele>
  <time>2026-09-01T01:17:51Z</time>
  <course>38.24</course>
  <speed>0.022360679774997897</speed>
  <fix>3d</fix>
</trkpt>
<trkpt lat="33.8103161" lon="-118.3938689">
  <ele>-1.49</ele>
  <time>2026-09-01T01:17:51Z</time>
  <course>61.31</course>
  <speed>0.01</speed>
  <fix>3d</fix>
</trkpt>
<trkpt lat="33.8103159" lon="-118.3938687">
  <ele>-1.733</ele>
  <time>2026-09-01T01:17:51Z</time>
  <course>38.25</course>
  <speed>0.022360679774997897</speed>
  <fix>3d</fix>
</trkpt>
<trkpt lat="33.8103159" lon="-118.3938687">
  <ele>-1.705</ele>
  <time>2026-09-01T01:17:51Z</time>
  <course>38.89</course>
  <speed>0.022360679774997897</speed>
  <fix>3d</fix>
</trkpt>
<trkpt lat="33.8103161" lon="-118.3938689">
  <ele>-1.44</ele>
  <time>2026-09-01T01:17:51Z</time>
  <course>62.55</course>
  <speed>0.01</speed>
  <fix>3d</fix>
</trkpt>
<trkpt lat="33.8103159" lon="-118.3938687">
  <ele>-1.702</ele>
  <time>2026-09-01T01:17:51Z</time>
  <course>38.94</course>
  <speed>0.022360679774997897</speed>
  <fix>3d</fix>
</trkpt>
<trkpt lat="33.8103159" lon="-118.3938687">
  <ele>-1.676</ele>
  <time>2026-09-01T01:17:51Z</time>
  <course>39.54</course>
  <speed>0.022360679774997897</speed>
  <fix>3d</fix>
</trkpt>
<trkpt lat="33.8103161" lon="-118.3938689">
  <ele>-1.44</ele>
  <time>2026-09-01T01:17:51Z</time>
  <course>62.55</course>
  <speed>0.01</speed>
  <fix>3d</fix>
</trkpt>
<trkpt lat="33.8103159" lon="-118.3938687">
  <ele>-1.675</ele>
  <time>2026-09-01T01:17:51Z</time>
  <course>39.56</course>
  <speed>0.022360679774997897</speed>
  <fix>3d</fix>
</trkpt>
<trkpt lat="33.8103159" lon="-118.3938687">
  <ele>-1.647</ele>
  <time>2026-09-01T01:17:51Z</time>
  <course>40.19</course>
  <speed>0.022360679774997897</speed>
  <fix>3d</fix>
</trkpt>
<trkpt lat="33.8103161" lon="-118.3938689">
  <ele>-1.4</ele>
  <time>2026-09-01T01:17:51Z</time>
  <course>63.74</course>
  <speed>0.01</speed>
  <fix>3d</fix>
</trkpt>
<trkpt lat="33.8103159" lon="-118.3938687">
  <ele>-1.647</ele>
  <time>2026-09-01T01:17:51Z</time>
  <course>40.21</course>
  <speed>0.022360679774997897</speed>
  <fix>3d</fix>
</trkpt>
<trkpt lat="33.8103159" lon="-118.3938687">
  <ele>-1.621</ele>
  <time>2026-09-01T01:17:51Z</time>
  <course>40.84</course>
  <speed>0.022360679774997897</speed>
  <fix>3d</fix>
</trkpt>
<trkpt lat="33.8103161" lon="-118.3938689">
  <ele>-1.4</ele>
  <time>2026-09-01T01:17:51Z</time>
  <course>63.74</course>
  <speed>0.01</speed>
  <fix>3d</fix>
</trkpt>
<trkpt lat="33.8103159" lon="-118.3938687">
  <ele>-1.616</ele>
  <time>2026-09-01T01:17:51Z</time>
  <course>41.01</course>
  <speed>0.022360679774997897</speed>
  <fix>3d</fix>
</trkpt>
<trkpt lat="33.8103159" lon="-118.3938687">
  <ele>-1.601</ele>
  <time>2026-09-01T01:17:51Z</time>
  <course>41.49</course>
  <speed>0.022360679774997897</speed>
  <fix>3d</fix>
</trkpt>
<trkpt lat="33.8103161" lon="-118.3938688">
  <ele>-1.36</ele>
  <time>2026-09-01T01:17:51Z</time>
  <course>64.91</course>
  <speed>0.01</speed>
  <fix>3d</fix>
</trkpt>
<trkpt lat="33.8103159" lon="-118.3938687">
  <ele>-1.596</ele>
  <time>2026-09-01T01:17:51Z</time>
  <course>41.64</course>
  <speed>0.022360679774997897</speed>
  <fix>3d</fix>
</trkpt>
<trkpt lat="33.8103159" lon="-118.3938687">
  <ele>-1.579</ele>
  <time>2026-09-01T01:17:51Z</time>
  <course>42.15</course>
  <speed>0.022360679774997897</speed>
  <fix>3d</fix>
</trkpt>
<trkpt lat="33.8103161" lon="-118.3938688">
  <ele>-1.36</ele>
  <time>2026-09-01T01:17:51Z</time>
  <course>64.91</course>
  <speed>0.01</speed>
  <fix>3d</fix>
</trkpt>
<trkpt lat="33.8103159" lon="-118.3938687">
  <ele>-1.575</ele>
  <time>2026-09-01T01:17:51Z</time>
  <course>42.27</course>
  <speed>0.022360679774997897</speed>
  <fix>3d</fix>
</trkpt>
<trkpt lat="33.8103159" lon="-118.3938687">
  <ele>-1.559</ele>
  <time>2026-09-01T01:17:51Z</time>
  <course>42.8</course>
  <speed>0.022360679774997897</speed>
  <fix>3d</fix>
</trkpt>
<trkpt lat="33.8103161" lon="-118.3938688">
  <ele>-1.31</ele>
  <time>2026-09-01T01:17:51Z</time>
  <course>66.08</course>
  <speed>0.01</speed>
  <fix>3d</fix>
</trkpt>
<trkpt lat="33.8103159" lon="-118.3938687">
  <ele>-1.557</ele>
  <time>2026-09-01T01:17:51Z</time>
  <course>42.9</course>
  <speed>0.022360679774997897</speed>
  <fix>3d</fix>
</trkpt>
<trkpt lat="33.8103159" lon="-118.3938687">
  <ele>-1.542</ele>
  <time>2026-09-01T01:17:51Z</time>
  <course>43.45</course>
  <speed>0.022360679774997897</speed>
  <fix>3d</fix>
</trkpt>
<trkpt lat="33.8103161" lon="-118.3938688">
  <ele>-1.31</ele>
  <time>2026-09-01T01:17:51Z</time>
  <course>66.08</course>
  <speed>0.01</speed>
  <fix>3d</fix>
</trkpt>
<trkpt lat="33.8103159" lon="-118.3938687">
  <ele>-1.54</ele>
  <time>2026-09-01T01:17:51Z</time>
  <course>43.52</course>
  <speed>0.022360679774997897</speed>
  <fix>3d</fix>
</trkpt>
<trkpt lat="33.8103159" lon="-118.3938686">
  <ele>-1.523</ele>
  <time>2026-09-01T01:17:51Z</time>
  <course>44.1</course>
  <speed>0.022360679774997897</speed>
  <fix>3d</fix>
</trkpt>
<trkpt lat="33.8103161" lon="-118.3938688">
  <ele>-1.28</ele>
  <time>2026-09-01T01:17:51Z</time>
  <course>67.27</course>
  <speed>0.01</speed>
  <fix>3d</fix>
</trkpt>
<trkpt lat="33.8103159" lon="-118.3938686">
  <ele>-1.522</ele>
  <time>2026-09-01T01:17:51Z</time>
  <course>44.16</course>
  <speed>0.022360679774997897</speed>
  <fix>3d</fix>
</trkpt>
<trkpt lat="33.8103159" lon="-118.3938686">
  <ele>-1.498</ele>
  <time>2026-09-01T01:17:51Z</time>
  <course>44.76</course>
  <speed>0.022360679774997897</speed>
  <fix>3d</fix>
</trkpt>
<trkpt lat="33.8103161" lon="-118.3938688">
  <ele>-1.28</ele>
  <time>2026-09-01T01:17:51Z</time>
  <course>67.27</course>
  <speed>0.01</speed>
  <fix>3d</fix>
</trkpt>
<trkpt lat="33.8103159" lon="-118.3938686">
  <ele>-1.496</ele>
  <time>2026-09-01T01:17:51Z</time>
  <course>44.8</course>
  <speed>0.022360679774997897</speed>
  <fix>3d</fix>
</trkpt>
<trkpt lat="33.8103159" lon="-118.3938686">
  <ele>-1.468</ele>
  <time>2026-09-01T01:17:51Z</time>
  <course>45.41</course>
  <speed>0.0282842712474619</speed>
  <fix>3d</fix>
</trkpt>
<trkpt lat="33.8103161" lon="-118.3938687">
  <ele>-1.23</ele>
  <time>2026-09-01T01:17:51Z</time>
  <course>68.52</course>
  <speed>0.01</speed>
  <fix>3d</fix>
</trkpt>
<trkpt lat="33.8103159" lon="-118.3938686">
  <ele>-1.467</ele>
  <time>2026-09-01T01:17:51Z</time>
  <course>45.43</course>
  <speed>0.0282842712474619</speed>
  <fix>3d</fix>
</trkpt>
<trkpt lat="33.8103159" lon="-118.3938686">
  <ele>-1.445</ele>
  <time>2026-09-01T01:17:51Z</time>
  <course>46.06</course>
  <speed>0.0282842712474619</speed>
  <fix>3d</fix>
</trkpt>
<trkpt lat="33.8103161" lon="-118.3938687">
  <ele>-1.23</ele>
  <time>2026-09-01T01:17:51Z</time>
  <course>68.52</course>
  <speed>0.01</speed>
  <fix>3d</fix>
</trkpt>
<trkpt lat="33.8103159" lon="-118.3938686">
  <ele>-1.443</ele>
  <time>2026-09-01T01:17:51Z</time>
  <course>46.12</course>
  <speed>0.0282842712474619</speed>
  <fix>3d</fix>
</trkpt>
<trkpt lat="33.8103159" lon="-118.3938686">
  <ele>-1.42</ele>
  <time>2026-09-01T01:17:51Z</time>
  <course>46.72</course>
  <speed>0.0282842712474619</speed>
  <fix>3d</fix>
</trkpt>
<trkpt lat="33.8103161" lon="-118.3938687">
  <ele>-1.19</ele>
  <time>2026-09-01T01:17:51Z</time>
  <course>69.72</course>
  <speed>0.01</speed>
  <fix>3d</fix>
</trkpt>
<trkpt lat="33.8103159" lon="-118.3938686">
  <ele>-1.419</ele>
  <time>2026-09-01T01:17:51Z</time>
  <course>46.75</course>
  <speed>0.0282842712474619</speed>
  <fix>3d</fix>
</trkpt>
<trkpt lat="33.8103159" lon="-118.3938686">
  <ele>-1.391</ele>
  <time>2026-09-01T01:17:51Z</time>
  <course>47.37</course>
  <speed>0.0282842712474619</speed>
  <fix>3d</fix>
</trkpt>
<trkpt lat="33.8103161" lon="-118.3938687">
  <ele>-1.19</ele>
  <time>2026-09-01T01:17:51Z</time>
  <course>69.72</course>
  <speed>0.01</speed>
  <fix>3d</fix>
</trkpt>
<trkpt lat="33.8103159" lon="-118.3938686">
  <ele>-1.382</ele>
  <time>2026-09-01T01:17:51Z</time>
  <course>47.53</course>
  <speed>0.0282842712474619</speed>
  <fix>3d</fix>
</trkpt>
<trkpt lat="33.8103159" lon="-118.3938686">
  <ele>-1.359</ele>
  <time>2026-09-01T01:17:51Z</time>
  <course>48.02</course>
  <speed>0.0282842712474619</speed>
  <fix>3d</fix>
</trkpt>
<trkpt lat="33.8103161" lon="-118.3938687">
  <ele>-1.15</ele>
  <time>2026-09-01T01:17:51Z</time>
  <course>70.87</course>
  <speed>0.01</speed>
  <fix>3d</fix>
</trkpt>
<trkpt lat="33.8103159" lon="-118.3938686">
  <ele>-1.358</ele>
  <time>2026-09-01T01:17:51Z</time>
  <course>48.04</course>
  <speed>0.0282842712474619</speed>
  <fix>3d</fix>
</trkpt>
<trkpt lat="33.8103159" lon="-118.3938686">
  <ele>-1.33</ele>
  <time>2026-09-01T01:17:51Z</time>
  <course>48.67</course>
  <speed>0.0282842712474619</speed>
  <fix>3d</fix>
</trkpt>
<trkpt lat="33.8103161" lon="-118.3938687">
  <ele>-1.15</ele>
  <time>2026-09-01T01:17:51Z</time>
  <course>70.87</course>
  <speed>0.01</speed>
  <fix>3d</fix>
</trkpt>
<trkpt lat="33.8103159" lon="-118.3938686">
  <ele>-1.324</ele>
  <time>2026-09-01T01:17:51Z</time>
  <course>48.81</course>
  <speed>0.0282842712474619</speed>
  <fix>3d</fix>
</trkpt>
<trkpt lat="33.8103159" lon="-118.3938685">
  <ele>-1.304</ele>
  <time>2026-09-01T01:17:51Z</time>
  <course>49.32</course>
  <speed>0.0282842712474619</speed>
  <fix>3d</fix>
</trkpt>
<trkpt lat="33.8103161" lon="-118.3938686">
  <ele>-1.1</ele>
  <time>2026-09-01T01:17:51Z</time>
  <course>72.03</course>
  <speed>0.01</speed>
  <fix>3d</fix>
</trkpt>
<trkpt lat="33.8103159" lon="-118.3938685">
  <ele>-1.3</ele>
  <time>2026-09-01T01:17:51Z</time>
  <course>49.44</course>
  <speed>0.0282842712474619</speed>
  <fix>3d</fix>
</trkpt>
<trkpt lat="33.8103159" lon="-118.3938685">
  <ele>-1.281</ele>
  <time>2026-09-01T01:17:51Z</time>
  <course>49.98</course>
  <speed>0.0282842712474619</speed>
  <fix>3d</fix>
</trkpt>
<trkpt lat="33.8103161" lon="-118.3938686">
  <ele>-1.1</ele>
  <time>2026-09-01T01:17:51Z</time>
  <course>72.03</course>
  <speed>0.01</speed>
  <fix>3d</fix>
</trkpt>
<trkpt lat="33.8103159" lon="-118.3938685">
  <ele>-1.278</ele>
  <time>2026-09-01T01:17:51Z</time>
  <course>50.06</course>
  <speed>0.0282842712474619</speed>
  <fix>3d</fix>
</trkpt>
<trkpt lat="33.8103159" lon="-118.3938685">
  <ele>-1.251</ele>
  <time>2026-09-01T01:17:52Z</time>
  <course>50.63</course>
  <speed>0.0282842712474619</speed>
  <fix>3d</fix>
</trkpt>
<trkpt lat="33.8103161" lon="-118.3938686">
  <ele>-1.06</ele>
  <time>2026-09-01T01:17:52Z</time>
  <course>73.21</course>
  <speed>0.01</speed>
  <fix>3d</fix>
</trkpt>
<trkpt lat="33.8103159" lon="-118.3938685">
  <ele>-1.247</ele>
  <time>2026-09-01T01:17:52Z</time>
  <course>50.7</course>
  <speed>0.0282842712474619</speed>
  <fix>3d</fix>
</trkpt>
<trkpt lat="33.8103159" lon="-118.3938685">
  <ele>-1.221</ele>
  <time>2026-09-01T01:17:52Z</time>
  <course>51.28</course>
  <speed>0.0282842712474619</speed>
  <fix>3d</fix>
</trkpt>
<trkpt lat="33.8103161" lon="-118.3938686">
  <ele>-1.06</ele>
  <time>2026-09-01T01:17:52Z</time>
  <course>73.21</course>
  <speed>0.01</speed>
  <fix>3d</fix>
</trkpt>
<trkpt lat="33.8103159" lon="-118.3938685">
  <ele>-1.22</ele>
  <time>2026-09-01T01:17:52Z</time>
  <course>51.31</course>
  <speed>0.0282842712474619</speed>
  <fix>3d</fix>
</trkpt>
<trkpt lat="33.8103159" lon="-118.3938685">
  <ele>-1.195</ele>
  <time>2026-09-01T01:17:52Z</time>
  <course>51.93</course>
  <speed>0.0282842712474619</speed>
  <fix>3d</fix>
</trkpt>
<trkpt lat="33.8103161" lon="-118.3938686">
  <ele>-1.02</ele>
  <time>2026-09-01T01:17:52Z</time>
  <course>74.44</course>
  <speed>0.01</speed>
  <fix>3d</fix>
</trkpt>
<trkpt lat="33.8103159" lon="-118.3938685">
  <ele>-1.188</ele>
  <time>2026-09-01T01:17:52Z</time>
  <course>52.1</course>
  <speed>0.0282842712474619</speed>
  <fix>3d</fix>
</trkpt>
<trkpt lat="33.8103159" lon="-118.3938685">
  <ele>-1.173</ele>
  <time>2026-09-01T01:17:52Z</time>
  <course>52.59</course>
  <speed>0.0282842712474619</speed>
  <fix>3d</fix>
</trkpt>
<trkpt lat="33.8103161" lon="-118.3938686">
  <ele>-1.02</ele>
  <time>2026-09-01T01:17:52Z</time>
  <course>74.44</course>
  <speed>0.01</speed>
  <fix>3d</fix>
</trkpt>
<trkpt lat="33.8103159" lon="-118.3938685">
  <ele>-1.173</ele>
  <time>2026-09-01T01:17:52Z</time>
  <course>52.61</course>
  <speed>0.0282842712474619</speed>
  <fix>3d</fix>
</trkpt>
<trkpt lat="33.8103159" lon="-118.3938685">
  <ele>-1.157</ele>
  <time>2026-09-01T01:17:52Z</time>
  <course>53.25</course>
  <speed>0.0282842712474619</speed>
  <fix>3d</fix>
</trkpt>
<trkpt lat="33.8103161" lon="-118.3938686">
  <ele>-0.98</ele>
  <time>2026-09-01T01:17:52Z</time>
  <course>75.65</course>
  <speed>0.01</speed>
  <fix>3d</fix>
</trkpt>
<trkpt lat="33.8103159" lon="-118.3938685">
  <ele>-1.154</ele>
  <time>2026-09-01T01:17:52Z</time>
  <course>53.39</course>
  <speed>0.0282842712474619</speed>
  <fix>3d</fix>
</trkpt>
<trkpt lat="33.8103159" lon="-118.3938685">
  <ele>-1.144</ele>
  <time>2026-09-01T01:17:52Z</time>
  <course>53.9</course>
  <speed>0.0282842712474619</speed>
  <fix>3d</fix>
</trkpt>
<trkpt lat="33.8103161" lon="-118.3938686">
  <ele>-0.98</ele>
  <time>2026-09-01T01:17:52Z</time>
  <course>75.65</course>
  <speed>0.01</speed>
  <fix>3d</fix>
</trkpt>
<trkpt lat="33.8103159" lon="-118.3938685">
  <ele>-1.141</ele>
  <time>2026-09-01T01:17:52Z</time>
  <course>54.03</course>
  <speed>0.0282842712474619</speed>
  <fix>3d</fix>
</trkpt>
<trkpt lat="33.8103159" lon="-118.3938684">
  <ele>-1.126</ele>
  <time>2026-09-01T01:17:52Z</time>
  <course>54.56</course>
  <speed>0.0282842712474619</speed>
  <fix>3d</fix>
</trkpt>
<trkpt lat="33.8103161" lon="-118.3938685">
  <ele>-0.93</ele>
  <time>2026-09-01T01:17:52Z</time>
  <course>76.81</course>
  <speed>0.01</speed>
  <fix>3d</fix>
</trkpt>
<trkpt lat="33.8103159" lon="-118.3938684">
  <ele>-1.122</ele>
  <time>2026-09-01T01:17:52Z</time>
  <course>54.66</course>
  <speed>0.0282842712474619</speed>
  <fix>3d</fix>
</trkpt>
<trkpt lat="33.8103159" lon="-118.3938684">
  <ele>-1.098</ele>
  <time>2026-09-01T01:17:52Z</time>
  <course>55.21</course>
  <speed>0.0282842712474619</speed>
  <fix>3d</fix>
</trkpt>
<trkpt lat="33.8103161" lon="-118.3938685">
  <ele>-0.93</ele>
  <time>2026-09-01T01:17:52Z</time>
  <course>76.81</course>
  <speed>0.01</speed>
  <fix>3d</fix>
</trkpt>
<trkpt lat="33.8103159" lon="-118.3938684">
  <ele>-1.095</ele>
  <time>2026-09-01T01:17:52Z</time>
  <course>55.29</course>
  <speed>0.0282842712474619</speed>
  <fix>3d</fix>
</trkpt>
<trkpt lat="33.8103159" lon="-118.3938684">
  <ele>-1.061</ele>
  <time>2026-09-01T01:17:52Z</time>
  <course>55.87</course>
  <speed>0.0282842712474619</speed>
  <fix>3d</fix>
</trkpt>
<trkpt lat="33.8103161" lon="-118.3938685">
  <ele>-0.89</ele>
  <time>2026-09-01T01:17:52Z</time>
  <course>77.98</course>
  <speed>0.01</speed>
  <fix>3d</fix>
</trkpt>
<trkpt lat="33.8103159" lon="-118.3938684">
  <ele>-1.058</ele>
  <time>2026-09-01T01:17:52Z</time>
  <course>55.9</course>
  <speed>0.0282842712474619</speed>
  <fix>3d</fix>
</trkpt>
<trkpt lat="33.8103159" lon="-118.3938684">
  <ele>-1.018</ele>
  <time>2026-09-01T01:17:52Z</time>
  <course>56.52</course>
  <speed>0.0282842712474619</speed>
  <fix>3d</fix>
</trkpt>
<trkpt lat="33.8103161" lon="-118.3938685">
  <ele>-0.89</ele>
  <time>2026-09-01T01:17:52Z</time>
  <course>77.98</course>
  <speed>0.01</speed>
  <fix>3d</fix>
</trkpt>
<trkpt lat="33.8103159" lon="-118.3938684">
  <ele>-1.015</ele>
  <time>2026-09-01T01:17:52Z</time>
  <course>56.54</course>
  <speed>0.0282842712474619</speed>
  <fix>3d</fix>
</trkpt>
<trkpt lat="33.8103159" lon="-118.3938684">
  <ele>-0.977</ele>
  <time>2026-09-01T01:17:52Z</time>
  <course>57.17</course>
  <speed>0.0282842712474619</speed>
  <fix>3d</fix>
</trkpt>
<trkpt lat="33.8103161" lon="-118.3938685">
  <ele>-0.85</ele>
  <time>2026-09-01T01:17:52Z</time>
  <course>79.15</course>
  <speed>0.01</speed>
  <fix>3d</fix>
</trkpt>
<trkpt lat="33.8103159" lon="-118.3938684">
  <ele>-0.974</ele>
  <time>2026-09-01T01:17:52Z</time>
  <course>57.24</course>
  <speed>0.0282842712474619</speed>
  <fix>3d</fix>
</trkpt>
<trkpt lat="33.8103159" lon="-118.3938684">
  <ele>-0.951</ele>
  <time>2026-09-01T01:17:52Z</time>
  <course>57.83</course>
  <speed>0.022360679774997897</speed>
  <fix>3d</fix>
</trkpt>
<trkpt lat="33.8103161" lon="-118.3938685">
  <ele>-0.85</ele>
  <time>2026-09-01T01:17:52Z</time>
  <course>79.15</course>
  <speed>0.01</speed>
  <fix>3d</fix>
</trkpt>
<trkpt lat="33.8103159" lon="-118.3938684">
  <ele>-0.925</ele>
  <time>2026-09-01T01:17:52Z</time>
  <course>58.49</course>
  <speed>0.022360679774997897</speed>
  <fix>3d</fix>
</trkpt>
<trkpt lat="33.8103161" lon="-118.3938684">
  <ele>-0.8</ele>
  <time>2026-09-01T01:17:52Z</time>
  <course>80.35</course>
  <speed>0.01</speed>
  <fix>3d</fix>
</trkpt>
<trkpt lat="33.8103159" lon="-118.3938684">
  <ele>-0.902</ele>
  <time>2026-09-01T01:17:52Z</time>
  <course>59.09</course>
  <speed>0.0316227766016838</speed>
  <fix>3d</fix>
</trkpt>
<trkpt lat="33.8103161" lon="-118.3938684">
  <ele>-0.8</ele>
  <time>2026-09-01T01:17:52Z</time>
  <course>80.35</course>
  <speed>0.01</speed>
  <fix>3d</fix>
</trkpt>
<trkpt lat="33.8103159" lon="-118.3938684">
  <ele>-0.88</ele>
  <time>2026-09-01T01:17:52Z</time>
  <course>59.56</course>
  <speed>0.03605551275463989</speed>
  <fix>3d</fix>
</trkpt>
<trkpt lat="33.8103161" lon="-118.3938684">
  <ele>-0.76</ele>
  <time>2026-09-01T01:17:52Z</time>
  <course>86.61</course>
  <speed>0.01</speed>
  <fix>3d</fix>
</trkpt>
<trkpt lat="33.8103159" lon="-118.3938683">
  <ele>-0.861</ele>
  <time>2026-09-01T01:17:52Z</time>
  <course>59.94</course>
  <speed>0.03605551275463989</speed>
  <fix>3d</fix>
</trkpt>
<trkpt lat="33.8103161" lon="-118.3938684">
  <ele>-0.76</ele>
  <time>2026-09-01T01:17:52Z</time>
  <course>86.61</course>
  <speed>0.01</speed>
  <fix>3d</fix>
</trkpt>
<trkpt lat="33.8103159" lon="-118.3938683">
  <ele>-0.855</ele>
  <time>2026-09-01T01:17:52Z</time>
  <course>60.27</course>
  <speed>0.03605551275463989</speed>
  <fix>3d</fix>
</trkpt>
<trkpt lat="33.8103161" lon="-118.3938684">
  <ele>-0.72</ele>
  <time>2026-09-01T01:17:52Z</time>
  <course>95.66</course>
  <speed>0.01</speed>
  <fix>3d</fix>
</trkpt>
<trkpt lat="33.8103159" lon="-118.3938683">
  <ele>-0.847</ele>
  <time>2026-09-01T01:17:52Z</time>
  <course>60.55</course>
  <speed>0.0316227766016838</speed>
  <fix>3d</fix>
</trkpt>
<trkpt lat="33.8103161" lon="-118.3938684">
  <ele>-0.72</ele>
  <time>2026-09-01T01:17:52Z</time>
  <course>95.66</course>
  <speed>0.01</speed>
  <fix>3d</fix>
</trkpt>
<trkpt lat="33.8103159" lon="-118.3938683">
  <ele>-0.832</ele>
  <time>2026-09-01T01:17:52Z</time>
  <course>60.81</course>
  <speed>0.0316227766016838</speed>
  <fix>3d</fix>
</trkpt>
<trkpt lat="33.8103161" lon="-118.3938683">
  <ele>-0.69</ele>
  <time>2026-09-01T01:17:52Z</time>
  <course>100.45</course>
  <speed>0.01</speed>
  <fix>3d</fix>
</trkpt>
<trkpt lat="33.8103159" lon="-118.3938683">
  <ele>-0.824</ele>
  <time>2026-09-01T01:17:52Z</time>
  <course>61.03</course>
  <speed>0.0316227766016838</speed>
  <fix>3d</fix>
</trkpt>
<trkpt lat="33.8103161" lon="-118.3938683">
  <ele>-0.69</ele>
  <time>2026-09-01T01:17:52Z</time>
  <course>100.45</course>
  <speed>0.01</speed>
  <fix>3d</fix>
</trkpt>
<trkpt lat="33.8103159" lon="-118.3938683">
  <ele>-0.82</ele>
  <time>2026-09-01T01:17:52Z</time>
  <course>61.24</course>
  <speed>0.0316227766016838</speed>
  <fix>3d</fix>
</trkpt>
<trkpt lat="33.8103161" lon="-118.3938683">
  <ele>-0.66</ele>
  <time>2026-09-01T01:17:52Z</time>
  <course>101.72</course>
  <speed>0.01</speed>
  <fix>3d</fix>
</trkpt>
<trkpt lat="33.8103159" lon="-118.3938683">
  <ele>-0.811</ele>
  <time>2026-09-01T01:17:52Z</time>
  <course>61.43</course>
  <speed>0.0316227766016838</speed>
  <fix>3d</fix>
</trkpt>
<trkpt lat="33.8103161" lon="-118.3938683">
  <ele>-0.66</ele>
  <time>2026-09-01T01:17:52Z</time>
  <course>101.72</course>
  <speed>0.01</speed>
  <fix>3d</fix>
</trkpt>
<trkpt lat="33.8103159" lon="-118.3938682">
  <ele>-0.802</ele>
  <time>2026-09-01T01:17:52Z</time>
  <course>61.6</course>
  <speed>0.0316227766016838</speed>
  <fix>3d</fix>
</trkpt>
<trkpt lat="33.8103161" lon="-118.3938683">
  <ele>-0.63</ele>
  <time>2026-09-01T01:17:52Z</time>
  <course>101.47</course>
  <speed>0.01</speed>
  <fix>3d</fix>
</trkpt>
<trkpt lat="33.8103159" lon="-118.3938682">
  <ele>-0.797</ele>
  <time>2026-09-01T01:17:52Z</time>
  <course>61.76</course>
  <speed>0.0316227766016838</speed>
  <fix>3d</fix>
</trkpt>
<trkpt lat="33.8103161" lon="-118.3938683">
  <ele>-0.63</ele>
  <time>2026-09-01T01:17:52Z</time>
  <course>101.47</course>
  <speed>0.01</speed>
  <fix>3d</fix>
</trkpt>
<trkpt lat="33.8103159" lon="-118.3938682">
  <ele>-0.786</ele>
  <time>2026-09-01T01:17:52Z</time>
  <course>61.91</course>
  <speed>0.0316227766016838</speed>
  <fix>3d</fix>
</trkpt>
<trkpt lat="33.8103161" lon="-118.3938682">
  <ele>-0.61</ele>
  <time>2026-09-01T01:17:52Z</time>
  <course>100.69</course>
  <speed>0.01</speed>
  <fix>3d</fix>
</trkpt>
<trkpt lat="33.8103159" lon="-118.3938682">
  <ele>-0.763</ele>
  <time>2026-09-01T01:17:52Z</time>
  <course>62.06</course>
  <speed>0.0316227766016838</speed>
  <fix>3d</fix>
</trkpt>
<trkpt lat="33.8103161" lon="-118.3938682">
  <ele>-0.61</ele>
  <time>2026-09-01T01:17:52Z</time>
  <course>100.69</course>
  <speed>0.01</speed>
  <fix>3d</fix>
</trkpt>
<trkpt lat="33.8103159" lon="-118.3938682">
  <ele>-0.747</ele>
  <time>2026-09-01T01:17:52Z</time>
  <course>62.19</course>
  <speed>0.0316227766016838</speed>
  <fix>3d</fix>
</trkpt>
<trkpt lat="33.8103161" lon="-118.3938682">
  <ele>-0.59</ele>
  <time>2026-09-01T01:17:52Z</time>
  <course>100.06</course>
  <speed>0.01</speed>
  <fix>3d</fix>
</trkpt>
<trkpt lat="33.8103158" lon="-118.3938682">
  <ele>-0.735</ele>
  <time>2026-09-01T01:17:52Z</time>
  <course>62.31</course>
  <speed>0.0316227766016838</speed>
  <fix>3d</fix>
</trkpt>
<trkpt lat="33.8103161" lon="-118.3938682">
  <ele>-0.59</ele>
  <time>2026-09-01T01:17:52Z</time>
  <course>100.06</course>
  <speed>0.01</speed>
  <fix>3d</fix>
</trkpt>
<trkpt lat="33.8103158" lon="-118.3938682">
  <ele>-0.718</ele>
  <time>2026-09-01T01:17:52Z</time>
  <course>62.43</course>
  <speed>0.0316227766016838</speed>
  <fix>3d</fix>
</trkpt>
<trkpt lat="33.8103161" lon="-118.3938682">
  <ele>-0.57</ele>
  <time>2026-09-01T01:17:52Z</time>
  <course>99.92</course>
  <speed>0.01</speed>
  <fix>3d</fix>
</trkpt>
<trkpt lat="33.8103158" lon="-118.3938682">
  <ele>-0.697</ele>
  <time>2026-09-01T01:17:52Z</time>
  <course>62.55</course>
  <speed>0.0316227766016838</speed>
  <fix>3d</fix>
</trkpt>
<trkpt lat="33.8103161" lon="-118.3938682">
  <ele>-0.57</ele>
  <time>2026-09-01T01:17:52Z</time>
  <course>99.92</course>
  <speed>0.01</speed>
  <fix>3d</fix>
</trkpt>
<trkpt lat="33.8103158" lon="-118.3938682">
  <ele>-0.679</ele>
  <time>2026-09-01T01:17:52Z</time>
  <course>62.65</course>
  <speed>0.0316227766016838</speed>
  <fix>3d</fix>
</trkpt>
<trkpt lat="33.8103161" lon="-118.3938681">
  <ele>-0.55</ele>
  <time>2026-09-01T01:17:52Z</time>
  <course>100.17</course>
  <speed>0.01</speed>
  <fix>3d</fix>
</trkpt>
<trkpt lat="33.8103158" lon="-118.3938681">
  <ele>-0.658</ele>
  <time>2026-09-01T01:17:52Z</time>
  <course>62.76</course>
  <speed>0.0316227766016838</speed>
  <fix>3d</fix>
</trkpt>
<trkpt lat="33.8103161" lon="-118.3938681">
  <ele>-0.55</ele>
  <time>2026-09-01T01:17:52Z</time>
  <course>100.17</course>
  <speed>0.01</speed>
  <fix>3d</fix>
</trkpt>
<trkpt lat="33.8103158" lon="-118.3938681">
  <ele>-0.631</ele>
  <time>2026-09-01T01:17:52Z</time>
  <course>62.85</course>
  <speed>0.0316227766016838</speed>
  <fix>3d</fix>
</trkpt>
<trkpt lat="33.8103161" lon="-118.3938681">
  <ele>-0.52</ele>
  <time>2026-09-01T01:17:52Z</time>
  <course>100.54</course>
  <speed>0.01</speed>
  <fix>3d</fix>
</trkpt>
<trkpt lat="33.8103158" lon="-118.3938681">
  <ele>-0.602</ele>
  <time>2026-09-01T01:17:52Z</time>
  <course>62.95</course>
  <speed>0.0316227766016838</speed>
  <fix>3d</fix>
</trkpt>
<trkpt lat="33.8103161" lon="-118.3938681">
  <ele>-0.52</ele>
  <time>2026-09-01T01:17:52Z</time>
  <course>100.54</course>
  <speed>0.01</speed>
  <fix>3d</fix>
</trkpt>
<trkpt lat="33.8103158" lon="-118.3938681">
  <ele>-0.571</ele>
  <time>2026-09-01T01:17:52Z</time>
  <course>63.04</course>
  <speed>0.03</speed>
  <fix>3d</fix>
</trkpt>
<trkpt lat="33.8103161" lon="-118.3938681">
  <ele>-0.5</ele>
  <time>2026-09-01T01:17:52Z</time>
  <course>100.73</course>
  <speed>0.01</speed>
  <fix>3d</fix>
</trkpt>
<trkpt lat="33.8103158" lon="-118.3938681">
  <ele>-0.54</ele>
  <time>2026-09-01T01:17:52Z</time>
  <course>63.13</course>
  <speed>0.03</speed>
  <fix>3d</fix>
</trkpt>
<trkpt lat="33.8103161" lon="-118.3938681">
  <ele>-0.5</ele>
  <time>2026-09-01T01:17:52Z</time>
  <course>100.73</course>
  <speed>0.01</speed>
  <fix>3d</fix>
</trkpt>
<trkpt lat="33.8103158" lon="-118.3938681">
  <ele>-0.51</ele>
  <time>2026-09-01T01:17:52Z</time>
  <course>63.21</course>
  <speed>0.03</speed>
  <fix>3d</fix>
</trkpt>
<trkpt lat="33.8103161" lon="-118.393868">
  <ele>-0.48</ele>
  <time>2026-09-01T01:17:52Z</time>
  <course>100.65</course>
  <speed>0.01</speed>
  <fix>3d</fix>
</trkpt>
<trkpt lat="33.8103158" lon="-118.3938681">
  <ele>-0.482</ele>
  <time>2026-09-01T01:17:52Z</time>
  <course>63.29</course>
  <speed>0.03</speed>
  <fix>3d</fix>
</trkpt>
<trkpt lat="33.8103161" lon="-118.393868">
  <ele>-0.48</ele>
  <time>2026-09-01T01:17:52Z</time>
  <course>100.65</course>
  <speed>0.01</speed>
  <fix>3d</fix>
</trkpt>
<trkpt lat="33.8103159" lon="-118.3938681">
  <ele>-0.456</ele>
  <time>2026-09-01T01:17:52Z</time>
  <course>63.37</course>
  <speed>0.03</speed>
  <fix>3d</fix>
</trkpt>
<trkpt lat="33.8103161" lon="-118.393868">
  <ele>-0.45</ele>
  <time>2026-09-01T01:17:52Z</time>
  <course>100.39</course>
  <speed>0.01</speed>
  <fix>3d</fix>
</trkpt>
<trkpt lat="33.8103159" lon="-118.393868">
  <ele>-0.433</ele>
  <time>2026-09-01T01:17:52Z</time>
  <course>63.44</course>
  <speed>0.03</speed>
  <fix>3d</fix>
</trkpt>
<trkpt lat="33.8103161" lon="-118.393868">
  <ele>-0.45</ele>
  <time>2026-09-01T01:17:52Z</time>
  <course>100.39</course>
  <speed>0.01</speed>
  <fix>3d</fix>
</trkpt>
<trkpt lat="33.810313" lon="-118.3938669">
  <ele>0.0</ele>
  <time>2026-09-01T01:17:53Z</time>
  <course>0.0</course>
  <speed>0.0</speed>
  <fix>3d</fix>
</trkpt>
<trkpt lat="33.810313" lon="-118.3938669">
  <ele>0.0</ele>
  <time>2026-09-01T01:17:53Z</time>
  <course>0.0</course>
  <speed>0.0</speed>
  <fix>3d</fix>
</trkpt>
<trkpt lat="33.810313" lon="-118.3938669">
  <ele>0.0</ele>
  <time>2026-09-01T01:17:53Z</time>
  <course>173.5</course>
  <speed>0.0</speed>
  <fix>3d</fix>
</trkpt>
<trkpt lat="33.810313" lon="-118.3938669">
  <ele>0.15</ele>
  <time>2026-09-01T01:17:53Z</time>
  <course>0.0</course>
  <speed>0.0</speed>
  <fix>3d</fix>
</trkpt>
<trkpt lat="33.810313" lon="-118.3938669">
  <ele>0.0</ele>
  <time>2026-09-01T01:17:53Z</time>
  <course>173.5</course>
  <speed>0.0</speed>
  <fix>3d</fix>
</trkpt>
<trkpt lat="33.810313" lon="-118.3938669">
  <ele>0.15</ele>
  <time>2026-09-01T01:17:53Z</time>
  <course>0.0</course>
  <speed>0.0</speed>
  <fix>3d</fix>
</trkpt>
<trkpt lat="33.810313" lon="-118.3938669">
  <ele>0.0</ele>
  <time>2026-09-01T01:17:53Z</time>
  <course>173.5</course>
  <speed>0.0</speed>
  <fix>3d</fix>
</trkpt>
<trkpt lat="33.810313" lon="-118.3938669">
  <ele>0.14</ele>
  <time>2026-09-01T01:17:53Z</time>
  <course>0.0</course>
  <speed>0.0</speed>
  <fix>3d</fix>
</trkpt>
<trkpt lat="33.810313" lon="-118.3938669">
  <ele>0.0</ele>
  <time>2026-09-01T01:17:53Z</time>
  <course>173.5</course>
  <speed>0.0</speed>
  <fix>3d</fix>
</trkpt>
<trkpt lat="33.810313" lon="-118.3938669">
  <ele>0.14</ele>
  <time>2026-09-01T01:17:53Z</time>
  <course>0.0</course>
  <speed>0.0</speed>
  <fix>3d</fix>
</trkpt>
<trkpt lat="33.810313" lon="-118.3938669">
  <ele>0.0</ele>
  <time>2026-09-01T01:17:53Z</time>
  <course>173.5</course>
  <speed>0.0</speed>
  <fix>3d</fix>
</trkpt>
<trkpt lat="33.810313" lon="-118.3938669">
  <ele>0.13</ele>
  <time>2026-09-01T01:17:53Z</time>
  <course>0.0</course>
  <speed>0.0</speed>
  <fix>3d</fix>
</trkpt>
<trkpt lat="33.810313" lon="-118.3938669">
  <ele>0.0</ele>
  <time>2026-09-01T01:17:53Z</time>
  <course>173.5</course>
  <speed>0.0</speed>
  <fix>3d</fix>
</trkpt>
<trkpt lat="33.810313" lon="-118.3938669">
  <ele>0.13</ele>
  <time>2026-09-01T01:17:53Z</time>
  <course>0.0</course>
  <speed>0.0</speed>
  <fix>3d</fix>
</trkpt>
<trkpt lat="33.810313" lon="-118.3938669">
  <ele>0.0</ele>
  <time>2026-09-01T01:17:53Z</time>
  <course>173.5</course>
  <speed>0.0</speed>
  <fix>3d</fix>
</trkpt>
<trkpt lat="33.810313" lon="-118.3938669">
  <ele>0.12</ele>
  <time>2026-09-01T01:17:53Z</time>
  <course>0.0</course>
  <speed>0.0</speed>
  <fix>3d</fix>
</trkpt>
<trkpt lat="33.810313" lon="-118.3938669">
  <ele>0.0</ele>
  <time>2026-09-01T01:17:53Z</time>
  <course>173.5</course>
  <speed>0.0</speed>
  <fix>3d</fix>
</trkpt>
<trkpt lat="33.810313" lon="-118.3938669">
  <ele>0.12</ele>
  <time>2026-09-01T01:17:53Z</time>
  <course>0.0</course>
  <speed>0.0</speed>
  <fix>3d</fix>
</trkpt>
<trkpt lat="33.810313" lon="-118.3938669">
  <ele>0.0</ele>
  <time>2026-09-01T01:17:53Z</time>
  <course>173.5</course>
  <speed>0.0</speed>
  <fix>3d</fix>
</trkpt>
<trkpt lat="33.810313" lon="-118.3938669">
  <ele>0.11</ele>
  <time>2026-09-01T01:17:53Z</time>
  <course>0.0</course>
  <speed>0.0</speed>
  <fix>3d</fix>
</trkpt>
<trkpt lat="33.810313" lon="-118.3938669">
  <ele>0.0</ele>
  <time>2026-09-01T01:17:53Z</time>
  <course>173.5</course>
  <speed>0.0</speed>
  <fix>3d</fix>
</trkpt>
<trkpt lat="33.810313" lon="-118.3938669">
  <ele>0.35</ele>
  <time>2026-09-01T01:17:53Z</time>
  <course>0.0</course>
  <speed>0.0</speed>
  <fix>3d</fix>
</trkpt>
<trkpt lat="33.810313" lon="-118.3938669">
  <ele>0.0</ele>
  <time>2026-09-01T01:17:53Z</time>
  <course>176.36</course>
  <speed>0.0</speed>
  <fix>3d</fix>
</trkpt>
<trkpt lat="33.810313" lon="-118.3938669">
  <ele>0.36</ele>
  <time>2026-09-01T01:17:53Z</time>
  <course>0.0</course>
  <speed>0.0</speed>
  <fix>3d</fix>
</trkpt>
<trkpt lat="33.810313" lon="-118.3938669">
  <ele>0.0</ele>
  <time>2026-09-01T01:17:53Z</time>
  <course>178.57</course>
  <speed>0.0</speed>
  <fix>3d</fix>
</trkpt>
<trkpt lat="33.810313" lon="-118.3938669">
  <ele>0.0</ele>
  <time>2026-09-01T01:17:53Z</time>
  <course>180.17</course>
  <speed>0.0</speed>
  <fix>3d</fix>
</trkpt>
<trkpt lat="33.810313" lon="-118.3938669">
  <ele>0.36</ele>
  <time>2026-09-01T01:17:53Z</time>
  <course>0.0</course>
  <speed>0.0</speed>
  <fix>3d</fix>
</trkpt>
<trkpt lat="33.810313" lon="-118.3938669">
  <ele>0.0</ele>
  <time>2026-09-01T01:17:53Z</time>
  <course>181.4</course>
  <speed>0.0</speed>
  <fix>3d</fix>
</trkpt>
<trkpt lat="33.810313" lon="-118.3938669">
  <ele>0.34</ele>
  <time>2026-09-01T01:17:53Z</time>
  <course>0.0</course>
  <speed>0.0</speed>
  <fix>3d</fix>
</trkpt>
<trkpt lat="33.810313" lon="-118.3938669">
  <ele>0.0</ele>
  <time>2026-09-01T01:17:53Z</time>
  <course>182.33</course>
  <speed>0.0</speed>
  <fix>3d</fix>
</trkpt>
<trkpt lat="33.810313" lon="-118.3938669">
  <ele>0.0</ele>
  <time>2026-09-01T01:17:53Z</time>
  <course>0.0</course>
  <speed>0.0</speed>
  <fix>3d</fix>
</trkpt>
<trkpt lat="33.810313" lon="-118.3938669">
  <ele>0.31</ele>
  <time>2026-09-01T01:17:53Z</time>
  <course>0.0</course>
  <speed>0.0</speed>
  <fix>3d</fix>
</trkpt>
<trkpt lat="33.810313" lon="-118.3938669">
  <ele>0.0</ele>
  <time>2026-09-01T01:17:53Z</time>
  <course>0.0</course>
  <speed>0.0</speed>
  <fix>3d</fix>
</trkpt>
<trkpt lat="33.810313" lon="-118.3938669">
  <ele>0.29</ele>
  <time>2026-09-01T01:17:53Z</time>
  <course>0.0</course>
  <speed>0.0</speed>
  <fix>3d</fix>
</trkpt>
<trkpt lat="33.810313" lon="-118.3938669">
  <ele>0.0</ele>
  <time>2026-09-01T01:17:53Z</time>
  <course>0.0</course>
  <speed>0.0</speed>
  <fix>3d</fix>
</trkpt>
<trkpt lat="33.810313" lon="-118.3938669">
  <ele>0.0</ele>
  <time>2026-09-01T01:17:53Z</time>
  <course>0.0</course>
  <speed>0.0</speed>
  <fix>3d</fix>
</trkpt>
<trkpt lat="33.810313" lon="-118.3938669">
  <ele>0.24</ele>
  <time>2026-09-01T01:17:53Z</time>
  <course>0.0</course>
  <speed>0.0</speed>
  <fix>3d</fix>
</trkpt>
<trkpt lat="33.810313" lon="-118.3938669">
  <ele>0.0</ele>
  <time>2026-09-01T01:17:53Z</time>
  <course>0.0</course>
  <speed>0.0</speed>
  <fix>3d</fix>
</trkpt>
<trkpt lat="33.810313" lon="-118.3938669">
  <ele>0.22</ele>
  <time>2026-09-01T01:17:53Z</time>
  <course>0.0</course>
  <speed>0.0</speed>
  <fix>3d</fix>
</trkpt>
<trkpt lat="33.810313" lon="-118.3938669">
  <ele>0.0</ele>
  <time>2026-09-01T01:17:53Z</time>
  <course>0.0</course>
  <speed>0.0</speed>
  <fix>3d</fix>
</trkpt>
<trkpt lat="33.810313" lon="-118.3938669">
  <ele>0.22</ele>
  <time>2026-09-01T01:17:53Z</time>
  <course>0.0</course>
  <speed>0.0</speed>
  <fix>3d</fix>
</trkpt>
<trkpt lat="33.810313" lon="-118.3938669">
  <ele>0.0</ele>
  <time>2026-09-01T01:17:53Z</time>
  <course>0.0</course>
  <speed>0.0</speed>
  <fix>3d</fix>
</trkpt>
<trkpt lat="33.810313" lon="-118.3938669">
  <ele>0.2</ele>
  <time>2026-09-01T01:17:53Z</time>
  <course>0.0</course>
  <speed>0.0</speed>
  <fix>3d</fix>
</trkpt>
<trkpt lat="33.810313" lon="-118.3938669">
  <ele>0.0</ele>
  <time>2026-09-01T01:17:53Z</time>
  <course>0.0</course>
  <speed>0.0</speed>
  <fix>3d</fix>
</trkpt>
<trkpt lat="33.810313" lon="-118.3938669">
  <ele>0.2</ele>
  <time>2026-09-01T01:17:53Z</time>
  <course>0.0</course>
  <speed>0.0</speed>
  <fix>3d</fix>
</trkpt>
<trkpt lat="33.810313" lon="-118.3938669">
  <ele>0.0</ele>
  <time>2026-09-01T01:17:53Z</time>
  <course>0.0</course>
  <speed>0.0</speed>
  <fix>3d</fix>
</trkpt>
<trkpt lat="33.810313" lon="-118.3938669">
  <ele>0.18</ele>
  <time>2026-09-01T01:17:53Z</time>
  <course>0.0</course>
  <speed>0.0</speed>
  <fix>3d</fix>
</trkpt>
<trkpt lat="33.810313" lon="-118.3938669">
  <ele>0.0</ele>
  <time>2026-09-01T01:17:53Z</time>
  <course>0.0</course>
  <speed>0.0</speed>
  <fix>3d</fix>
</trkpt>
<trkpt lat="33.810313" lon="-118.3938669">
  <ele>0.18</ele>
  <time>2026-09-01T01:17:53Z</time>
  <course>0.0</course>
  <speed>0.0</speed>
  <fix>3d</fix>
</trkpt>
<trkpt lat="33.810313" lon="-118.3938669">
  <ele>0.0</ele>
  <time>2026-09-01T01:17:53Z</time>
  <course>215.01</course>
  <speed>0.0</speed>
  <fix>3d</fix>
</trkpt>
<trkpt lat="33.810313" lon="-118.3938669">
  <ele>0.17</ele>
  <time>2026-09-01T01:17:53Z</time>
  <course>0.0</course>
  <speed>0.0</speed>
  <fix>3d</fix>
</trkpt>
<trkpt lat="33.810313" lon="-118.3938669">
  <ele>0.0</ele>
  <time>2026-09-01T01:17:53Z</time>
  <course>215.01</course>
  <speed>0.0</speed>
  <fix>3d</fix>
</trkpt>
<trkpt lat="33.810313" lon="-118.3938669">
  <ele>0.17</ele>
  <time>2026-09-01T01:17:53Z</time>
  <course>0.0</course>
  <speed>0.0</speed>
  <fix>3d</fix>
</trkpt>
<trkpt lat="33.810313" lon="-118.3938669">
  <ele>0.0</ele>
  <time>2026-09-01T01:17:53Z</time>
  <course>215.01</course>
  <speed>0.0</speed>
  <fix>3d</fix>
</trkpt>
<trkpt lat="33.810313" lon="-118.3938669">
  <ele>0.15</ele>
  <time>2026-09-01T01:17:53Z</time>
  <course>0.0</course>
  <speed>0.0</speed>
  <fix>3d</fix>
</trkpt>
<trkpt lat="33.810313" lon="-118.3938669">
  <ele>0.0</ele>
  <time>2026-09-01T01:17:53Z</time>
  <course>215.01</course>
  <speed>0.0</speed>
  <fix>3d</fix>
</trkpt>
<trkpt lat="33.810313" lon="-118.3938669">
  <ele>0.15</ele>
  <time>2026-09-01T01:17:53Z</time>
  <course>0.0</course>
  <speed>0.0</speed>
  <fix>3d</fix>
</trkpt>
<trkpt lat="33.810313" lon="-118.3938669">
  <ele>0.0</ele>
  <time>2026-09-01T01:17:53Z</time>
  <course>215.01</course>
  <speed>0.0</speed>
  <fix>3d</fix>
</trkpt>
<trkpt lat="33.810313" lon="-118.3938669">
  <ele>0.13</ele>
  <time>2026-09-01T01:17:53Z</time>
  <course>0.0</course>
  <speed>0.0</speed>
  <fix>3d</fix>
</trkpt>
<trkpt lat="33.810313" lon="-118.3938669">
  <ele>0.0</ele>
  <time>2026-09-01T01:17:53Z</time>
  <course>215.01</course>
  <speed>0.0</speed>
  <fix>3d</fix>
</trkpt>
<trkpt lat="33.810313" lon="-118.3938669">
  <ele>0.13</ele>
  <time>2026-09-01T01:17:53Z</time>
  <course>0.0</course>
  <speed>0.0</speed>
  <fix>3d</fix>
</trkpt>
<trkpt lat="33.810313" lon="-118.3938669">
  <ele>0.0</ele>
  <time>2026-09-01T01:17:53Z</time>
  <course>215.01</course>
  <speed>0.0</speed>
  <fix>3d</fix>
</trkpt>
<trkpt lat="33.810313" lon="-118.3938669">
  <ele>0.11</ele>
  <time>2026-09-01T01:17:53Z</time>
  <course>0.0</course>
  <speed>0.0</speed>
  <fix>3d</fix>
</trkpt>
<trkpt lat="33.810313" lon="-118.3938669">
  <ele>0.0</ele>
  <time>2026-09-01T01:17:53Z</time>
  <course>215.01</course>
  <speed>0.0</speed>
  <fix>3d</fix>
</trkpt>
<trkpt lat="33.810313" lon="-118.3938669">
  <ele>0.11</ele>
  <time>2026-09-01T01:17:53Z</time>
  <course>0.0</course>
  <speed>0.0</speed>
  <fix>3d</fix>
</trkpt>
<trkpt lat="33.810313" lon="-118.3938669">
  <ele>0.0</ele>
  <time>2026-09-01T01:17:53Z</time>
  <course>215.01</course>
  <speed>0.0</speed>
  <fix>3d</fix>
</trkpt>
<trkpt lat="33.810313" lon="-118.3938669">
  <ele>0.11</ele>
  <time>2026-09-01T01:17:53Z</time>
  <course>0.0</course>
  <speed>0.0</speed>
  <fix>3d</fix>
</trkpt>
<trkpt lat="33.810313" lon="-118.3938669">
  <ele>0.0</ele>
  <time>2026-09-01T01:17:53Z</time>
  <course>215.01</course>
  <speed>0.0</speed>
  <fix>3d</fix>
</trkpt>
<trkpt lat="33.810313" lon="-118.3938669">
  <ele>0.11</ele>
  <time>2026-09-01T01:17:53Z</time>
  <course>0.0</course>
  <speed>0.0</speed>
  <fix>3d</fix>
</trkpt>
<trkpt lat="33.810313" lon="-118.3938669">
  <ele>0.0</ele>
  <time>2026-09-01T01:17:53Z</time>
  <course>215.01</course>
  <speed>0.0</speed>
  <fix>3d</fix>
</trkpt>
<trkpt lat="33.810313" lon="-118.3938669">
  <ele>0.12</ele>
  <time>2026-09-01T01:17:53Z</time>
  <course>0.0</course>
  <speed>0.0</speed>
  <fix>3d</fix>
</trkpt>
<trkpt lat="33.810313" lon="-118.3938669">
  <ele>0.0</ele>
  <time>2026-09-01T01:17:53Z</time>
  <course>215.01</course>
  <speed>0.0</speed>
  <fix>3d</fix>
</trkpt>
<trkpt lat="33.810313" lon="-118.3938669">
  <ele>0.12</ele>
  <time>2026-09-01T01:17:53Z</time>
  <course>0.0</course>
  <speed>0.0</speed>
  <fix>3d</fix>
</trkpt>
<trkpt lat="33.810313" lon="-118.3938669">
  <ele>0.0</ele>
  <time>2026-09-01T01:17:53Z</time>
  <course>215.01</course>
  <speed>0.0</speed>
  <fix>3d</fix>
</trkpt>
<trkpt lat="33.810313" lon="-118.3938669">
  <ele>0.13</ele>
  <time>2026-09-01T01:17:53Z</time>
  <course>0.0</course>
  <speed>0.0</speed>
  <fix>3d</fix>
</trkpt>
<trkpt lat="33.810313" lon="-118.3938669">
  <ele>0.0</ele>
  <time>2026-09-01T01:17:53Z</time>
  <course>215.01</course>
  <speed>0.0</speed>
  <fix>3d</fix>
</trkpt>
<trkpt lat="33.810313" lon="-118.3938669">
  <ele>0.13</ele>
  <time>2026-09-01T01:17:53Z</time>
  <course>0.0</course>
  <speed>0.0</speed>
  <fix>3d</fix>
</trkpt>
<trkpt lat="33.810313" lon="-118.3938669">
  <ele>0.0</ele>
  <time>2026-09-01T01:17:53Z</time>
  <course>215.01</course>
  <speed>0.0</speed>
  <fix>3d</fix>
</trkpt>
<trkpt lat="33.810313" lon="-118.3938669">
  <ele>0.14</ele>
  <time>2026-09-01T01:17:53Z</time>
  <course>0.0</course>
  <speed>0.0</speed>
  <fix>3d</fix>
</trkpt>
<trkpt lat="33.810313" lon="-118.3938669">
  <ele>0.0</ele>
  <time>2026-09-01T01:17:53Z</time>
  <course>215.01</course>
  <speed>0.0</speed>
  <fix>3d</fix>
</trkpt>
<trkpt lat="33.810313" lon="-118.3938669">
  <ele>0.14</ele>
  <time>2026-09-01T01:17:53Z</time>
  <course>0.0</course>
  <speed>0.0</speed>
  <fix>3d</fix>
</trkpt>
<trkpt lat="33.810313" lon="-118.3938669">
  <ele>0.0</ele>
  <time>2026-09-01T01:17:53Z</time>
  <course>215.01</course>
  <speed>0.0</speed>
  <fix>3d</fix>
</trkpt>
<trkpt lat="33.810313" lon="-118.3938669">
  <ele>0.15</ele>
  <time>2026-09-01T01:17:53Z</time>
  <course>0.0</course>
  <speed>0.0</speed>
  <fix>3d</fix>
</trkpt>
<trkpt lat="33.810313" lon="-118.3938669">
  <ele>0.0</ele>
  <time>2026-09-01T01:17:53Z</time>
  <course>215.01</course>
  <speed>0.0</speed>
  <fix>3d</fix>
</trkpt>
<trkpt lat="33.810313" lon="-118.3938669">
  <ele>0.15</ele>
  <time>2026-09-01T01:17:53Z</time>
  <course>0.0</course>
  <speed>0.0</speed>
  <fix>3d</fix>
</trkpt>
<trkpt lat="33.810313" lon="-118.3938669">
  <ele>0.0</ele>
  <time>2026-09-01T01:17:53Z</time>
  <course>215.01</course>
  <speed>0.0</speed>
  <fix>3d</fix>
</trkpt>
<trkpt lat="33.810313" lon="-118.3938669">
  <ele>0.16</ele>
  <time>2026-09-01T01:17:53Z</time>
  <course>0.0</course>
  <speed>0.0</speed>
  <fix>3d</fix>
</trkpt>
<trkpt lat="33.810313" lon="-118.3938669">
  <ele>0.0</ele>
  <time>2026-09-01T01:17:53Z</time>
  <course>215.01</course>
  <speed>0.0</speed>
  <fix>3d</fix>
</trkpt>
<trkpt lat="33.810313" lon="-118.3938669">
  <ele>0.16</ele>
  <time>2026-09-01T01:17:53Z</time>
  <course>0.0</course>
  <speed>0.0</speed>
  <fix>3d</fix>
</trkpt>
<trkpt lat="33.810313" lon="-118.3938669">
  <ele>0.0</ele>
  <time>2026-09-01T01:17:53Z</time>
  <course>215.01</course>
  <speed>0.0</speed>
  <fix>3d</fix>
</trkpt>
<trkpt lat="33.810313" lon="-118.3938669">
  <ele>0.16</ele>
  <time>2026-09-01T01:17:53Z</time>
  <course>0.0</course>
  <speed>0.0</speed>
  <fix>3d</fix>
</trkpt>
<trkpt lat="33.810313" lon="-118.3938669">
  <ele>0.0</ele>
  <time>2026-09-01T01:17:53Z</time>
  <course>215.01</course>
  <speed>0.0</speed>
  <fix>3d</fix>
</trkpt>
<trkpt lat="33.810313" lon="-118.3938669">
  <ele>0.16</ele>
  <time>2026-09-01T01:17:53Z</time>
  <course>0.0</course>
  <speed>0.0</speed>
  <fix>3d</fix>
</trkpt>
<trkpt lat="33.810313" lon="-118.3938669">
  <ele>0.0</ele>
  <time>2026-09-01T01:17:53Z</time>
  <course>215.01</course>
  <speed>0.0</speed>
  <fix>3d</fix>
</trkpt>
<trkpt lat="33.810313" lon="-118.3938669">
  <ele>0.16</ele>
  <time>2026-09-01T01:17:53Z</time>
  <course>0.0</course>
  <speed>0.0</speed>
  <fix>3d</fix>
</trkpt>
<trkpt lat="33.810313" lon="-118.3938669">
  <ele>0.0</ele>
  <time>2026-09-01T01:17:53Z</time>
  <course>215.01</course>
  <speed>0.0</speed>
  <fix>3d</fix>
</trkpt>
<trkpt lat="33.810313" lon="-118.3938669">
  <ele>0.16</ele>
  <time>2026-09-01T01:17:53Z</time>
  <course>0.0</course>
  <speed>0.0</speed>
  <fix>3d</fix>
</trkpt>
<trkpt lat="33.810313" lon="-118.3938669">
  <ele>0.0</ele>
  <time>2026-09-01T01:17:53Z</time>
  <course>215.01</course>
  <speed>0.0</speed>
  <fix>3d</fix>
</trkpt>
<trkpt lat="33.810313" lon="-118.3938669">
  <ele>0.16</ele>
  <time>2026-09-01T01:17:53Z</time>
  <course>0.0</course>
  <speed>0.0</speed>
  <fix>3d</fix>
</trkpt>
<trkpt lat="33.810313" lon="-118.3938669">
  <ele>0.0</ele>
  <time>2026-09-01T01:17:53Z</time>
  <course>215.01</course>
  <speed>0.0</speed>
  <fix>3d</fix>
</trkpt>
<trkpt lat="33.810313" lon="-118.3938669">
  <ele>0.16</ele>
  <time>2026-09-01T01:17:53Z</time>
  <course>0.0</course>
  <speed>0.0</speed>
  <fix>3d</fix>
</trkpt>
<trkpt lat="33.810313" lon="-118.3938669">
  <ele>0.0</ele>
  <time>2026-09-01T01:17:53Z</time>
  <course>215.01</course>
  <speed>0.0</speed>
  <fix>3d</fix>
</trkpt>
<trkpt lat="33.810313" lon="-118.3938669">
  <ele>0.15</ele>
  <time>2026-09-01T01:17:53Z</time>
  <course>0.0</course>
  <speed>0.0</speed>
  <fix>3d</fix>
</trkpt>
<trkpt lat="33.810313" lon="-118.3938669">
  <ele>0.0</ele>
  <time>2026-09-01T01:17:53Z</time>
  <course>215.01</course>
  <speed>0.0</speed>
  <fix>3d</fix>
</trkpt>
<trkpt lat="33.810313" lon="-118.3938669">
  <ele>0.15</ele>
  <time>2026-09-01T01:17:53Z</time>
  <course>0.0</course>
  <speed>0.0</speed>
  <fix>3d</fix>
</trkpt>
<trkpt lat="33.810313" lon="-118.3938669">
  <ele>0.0</ele>
  <time>2026-09-01T01:17:53Z</time>
  <course>215.01</course>
  <speed>0.0</speed>
  <fix>3d</fix>
</trkpt>
<trkpt lat="33.810313" lon="-118.3938669">
  <ele>0.15</ele>
  <time>2026-09-01T01:17:53Z</time>
  <course>0.0</course>
  <speed>0.0</speed>
  <fix>3d</fix>
</trkpt>
<trkpt lat="33.810313" lon="-118.3938669">
  <ele>0.0</ele>
  <time>2026-09-01T01:17:53Z</time>
  <course>215.01</course>
  <speed>0.0</speed>
  <fix>3d</fix>
</trkpt>
<trkpt lat="33.810313" lon="-118.3938669">
  <ele>0.15</ele>
  <time>2026-09-01T01:17:53Z</time>
  <course>0.0</course>
  <speed>0.0</speed>
  <fix>3d</fix>
</trkpt>
<trkpt lat="33.810313" lon="-118.3938669">
  <ele>0.0</ele>
  <time>2026-09-01T01:17:53Z</time>
  <course>215.01</course>
  <speed>0.0</speed>
  <fix>3d</fix>
</trkpt>
<trkpt lat="33.810313" lon="-118.3938669">
  <ele>0.14</ele>
  <time>2026-09-01T01:17:53Z</time>
  <course>0.0</course>
  <speed>0.0</speed>
  <fix>3d</fix>
</trkpt>
<trkpt lat="33.810313" lon="-118.3938669">
  <ele>0.0</ele>
  <time>2026-09-01T01:17:53Z</time>
  <course>215.01</course>
  <speed>0.0</speed>
  <fix>3d</fix>
</trkpt>
<trkpt lat="33.810313" lon="-118.3938669">
  <ele>0.14</ele>
  <time>2026-09-01T01:17:53Z</time>
  <course>0.0</course>
  <speed>0.0</speed>
  <fix>3d</fix>
</trkpt>
<trkpt lat="33.810313" lon="-118.3938669">
  <ele>0.0</ele>
  <time>2026-09-01T01:17:53Z</time>
  <course>215.01</course>
  <speed>0.0</speed>
  <fix>3d</fix>
</trkpt>
<trkpt lat="33.810313" lon="-118.3938669">
  <ele>0.13</ele>
  <time>2026-09-01T01:17:53Z</time>
  <course>0.0</course>
  <speed>0.0</speed>
  <fix>3d</fix>
</trkpt>
<trkpt lat="33.810313" lon="-118.3938669">
  <ele>0.0</ele>
  <time>2026-09-01T01:17:53Z</time>
  <course>215.01</course>
  <speed>0.0</speed>
  <fix>3d</fix>
</trkpt>
<trkpt lat="33.810313" lon="-118.3938669">
  <ele>0.13</ele>
  <time>2026-09-01T01:17:53Z</time>
  <course>0.0</course>
  <speed>0.0</speed>
  <fix>3d</fix>
</trkpt>
<trkpt lat="33.810313" lon="-118.3938669">
  <ele>0.0</ele>
  <time>2026-09-01T01:17:53Z</time>
  <course>215.01</course>
  <speed>0.0</speed>
  <fix>3d</fix>
</trkpt>
<trkpt lat="33.810313" lon="-118.3938669">
  <ele>0.12</ele>
  <time>2026-09-01T01:17:53Z</time>
  <course>0.0</course>
  <speed>0.0</speed>
  <fix>3d</fix>
</trkpt>
<trkpt lat="33.810313" lon="-118.3938669">
  <ele>0.0</ele>
  <time>2026-09-01T01:17:53Z</time>
  <course>215.01</course>
  <speed>0.0</speed>
  <fix>3d</fix>
</trkpt>
<trkpt lat="33.810313" lon="-118.3938669">
  <ele>0.12</ele>
  <time>2026-09-01T01:17:53Z</time>
  <course>0.0</course>
  <speed>0.0</speed>
  <fix>3d</fix>
</trkpt>
<trkpt lat="33.810313" lon="-118.3938669">
  <ele>0.0</ele>
  <time>2026-09-01T01:17:53Z</time>
  <course>215.01</course>
  <speed>0.0</speed>
  <fix>3d</fix>
</trkpt>
<trkpt lat="33.810313" lon="-118.3938669">
  <ele>0.11</ele>
  <time>2026-09-01T01:17:53Z</time>
  <course>0.0</course>
  <speed>0.0</speed>
  <fix>3d</fix>
</trkpt>
<trkpt lat="33.810313" lon="-118.3938669">
  <ele>0.0</ele>
  <time>2026-09-01T01:17:53Z</time>
  <course>215.01</course>
  <speed>0.0</speed>
  <fix>3d</fix>
</trkpt>
<trkpt lat="33.810313" lon="-118.3938669">
  <ele>0.11</ele>
  <time>2026-09-01T01:17:53Z</time>
  <course>0.0</course>
  <speed>0.0</speed>
  <fix>3d</fix>
</trkpt>
<trkpt lat="33.810313" lon="-118.3938669">
  <ele>0.0</ele>
  <time>2026-09-01T01:17:53Z</time>
  <course>215.01</course>
  <speed>0.0</speed>
  <fix>3d</fix>
</trkpt>
<trkpt lat="33.810313" lon="-118.3938669">
  <ele>0.11</ele>
  <time>2026-09-01T01:17:53Z</time>
  <course>0.0</course>
  <speed>0.0</speed>
  <fix>3d</fix>
</trkpt>
<trkpt lat="33.810313" lon="-118.3938669">
  <ele>0.0</ele>
  <time>2026-09-01T01:17:53Z</time>
  <course>215.01</course>
  <speed>0.0</speed>
  <fix>3d</fix>
</trkpt>
<trkpt lat="33.810313" lon="-118.3938669">
  <ele>0.11</ele>
  <time>2026-09-01T01:17:53Z</time>
  <course>0.0</course>
  <speed>0.0</speed>
  <fix>3d</fix>
</trkpt>
<trkpt lat="33.810313" lon="-118.3938669">
  <ele>0.0</ele>
  <time>2026-09-01T01:17:53Z</time>
  <course>215.01</course>
  <speed>0.0</speed>
  <fix>3d</fix>
</trkpt>
<trkpt lat="33.810313" lon="-118.3938669">
  <ele>0.12</ele>
  <time>2026-09-01T01:17:53Z</time>
  <course>0.0</course>
  <speed>0.0</speed>
  <fix>3d</fix>
</trkpt>
<trkpt lat="33.810313" lon="-118.3938669">
  <ele>0.0</ele>
  <time>2026-09-01T01:17:53Z</time>
  <course>215.01</course>
  <speed>0.0</speed>
  <fix>3d</fix>
</trkpt>
<trkpt lat="33.810313" lon="-118.3938669">
  <ele>0.12</ele>
  <time>2026-09-01T01:17:53Z</time>
  <course>0.0</course>
  <speed>0.0</speed>
  <fix>3d</fix>
</trkpt>
<trkpt lat="33.810313" lon="-118.3938669">
  <ele>0.0</ele>
  <time>2026-09-01T01:17:53Z</time>
  <course>215.01</course>
  <speed>0.0</speed>
  <fix>3d</fix>
</trkpt>
<trkpt lat="33.810313" lon="-118.3938669">
  <ele>0.13</ele>
  <time>2026-09-01T01:17:53Z</time>
  <course>0.0</course>
  <speed>0.0</speed>
  <fix>3d</fix>
</trkpt>
<trkpt lat="33.810313" lon="-118.3938669">
  <ele>0.0</ele>
  <time>2026-09-01T01:17:53Z</time>
  <course>215.01</course>
  <speed>0.0</speed>
  <fix>3d</fix>
</trkpt>
<trkpt lat="33.810313" lon="-118.3938669">
  <ele>0.13</ele>
  <time>2026-09-01T01:17:53Z</time>
  <course>0.0</course>
  <speed>0.0</speed>
  <fix>3d</fix>
</trkpt>
<trkpt lat="33.810313" lon="-118.3938669">
  <ele>0.0</ele>
  <time>2026-09-01T01:17:53Z</time>
  <course>215.01</course>
  <speed>0.0</speed>
  <fix>3d</fix>
</trkpt>
<trkpt lat="33.810313" lon="-118.3938669">
  <ele>0.14</ele>
  <time>2026-09-01T01:17:53Z</time>
  <course>0.0</course>
  <speed>0.0</speed>
  <fix>3d</fix>
</trkpt>
<trkpt lat="33.810313" lon="-118.3938669">
  <ele>0.0</ele>
  <time>2026-09-01T01:17:53Z</time>
  <course>215.01</course>
  <speed>0.0</speed>
  <fix>3d</fix>
</trkpt>
<trkpt lat="33.810313" lon="-118.3938669">
  <ele>0.14</ele>
  <time>2026-09-01T01:17:53Z</time>
  <course>0.0</course>
  <speed>0.0</speed>
  <fix>3d</fix>
</trkpt>
<trkpt lat="33.810313" lon="-118.3938669">
  <ele>0.0</ele>
  <time>2026-09-01T01:17:53Z</time>
  <course>215.01</course>
  <speed>0.0</speed>
  <fix>3d</fix>
</trkpt>
<trkpt lat="33.810313" lon="-118.3938669">
  <ele>0.14</ele>
  <time>2026-09-01T01:17:53Z</time>
  <course>0.0</course>
  <speed>0.0</speed>
  <fix>3d</fix>
</trkpt>
<trkpt lat="33.810313" lon="-118.3938669">
  <ele>0.0</ele>
  <time>2026-09-01T01:17:53Z</time>
  <course>215.01</course>
  <speed>0.0</speed>
  <fix>3d</fix>
</trkpt>
<trkpt lat="33.810313" lon="-118.3938669">
  <ele>0.14</ele>
  <time>2026-09-01T01:17:53Z</time>
  <course>0.0</course>
  <speed>0.0</speed>
  <fix>3d</fix>
</trkpt>
<trkpt lat="33.810313" lon="-118.3938669">
  <ele>0.0</ele>
  <time>2026-09-01T01:17:53Z</time>
  <course>215.01</course>
  <speed>0.0</speed>
  <fix>3d</fix>
</trkpt>
<trkpt lat="33.810313" lon="-118.3938669">
  <ele>0.14</ele>
  <time>2026-09-01T01:17:53Z</time>
  <course>0.0</course>
  <speed>0.0</speed>
  <fix>3d</fix>
</trkpt>
<trkpt lat="33.810313" lon="-118.3938669">
  <ele>0.0</ele>
  <time>2026-09-01T01:17:53Z</time>
  <course>215.01</course>
  <speed>0.0</speed>
  <fix>3d</fix>
</trkpt>
<trkpt lat="33.810313" lon="-118.3938669">
  <ele>0.14</ele>
  <time>2026-09-01T01:17:53Z</time>
  <course>0.0</course>
  <speed>0.0</speed>
  <fix>3d</fix>
</trkpt>
<trkpt lat="33.810313" lon="-118.3938669">
  <ele>0.0</ele>
  <time>2026-09-01T01:17:53Z</time>
  <course>215.01</course>
  <speed>0.0</speed>
  <fix>3d</fix>
</trkpt>
<trkpt lat="33.810313" lon="-118.3938669">
  <ele>0.14</ele>
  <time>2026-09-01T01:17:53Z</time>
  <course>0.0</course>
  <speed>0.0</speed>
  <fix>3d</fix>
</trkpt>
<trkpt lat="33.810313" lon="-118.3938669">
  <ele>0.0</ele>
  <time>2026-09-01T01:17:53Z</time>
  <course>215.01</course>
  <speed>0.0</speed>
  <fix>3d</fix>
</trkpt>
<trkpt lat="33.810313" lon="-118.3938669">
  <ele>0.14</ele>
  <time>2026-09-01T01:17:53Z</time>
  <course>0.0</course>
  <speed>0.0</speed>
  <fix>3d</fix>
</trkpt>
<trkpt lat="33.810313" lon="-118.3938669">
  <ele>0.0</ele>
  <time>2026-09-01T01:17:53Z</time>
  <course>215.01</course>
  <speed>0.0</speed>
  <fix>3d</fix>
</trkpt>
<trkpt lat="33.810313" lon="-118.3938669">
  <ele>0.14</ele>
  <time>2026-09-01T01:17:53Z</time>
  <course>0.0</course>
  <speed>0.0</speed>
  <fix>3d</fix>
</trkpt>
<trkpt lat="33.810313" lon="-118.3938669">
  <ele>0.0</ele>
  <time>2026-09-01T01:17:53Z</time>
  <course>215.01</course>
  <speed>0.0</speed>
  <fix>3d</fix>
</trkpt>
<trkpt lat="33.810313" lon="-118.3938669">
  <ele>0.14</ele>
  <time>2026-09-01T01:17:53Z</time>
  <course>0.0</course>
  <speed>0.0</speed>
  <fix>3d</fix>
</trkpt>
<trkpt lat="33.810313" lon="-118.3938669">
  <ele>0.0</ele>
  <time>2026-09-01T01:17:53Z</time>
  <course>215.01</course>
  <speed>0.0</speed>
  <fix>3d</fix>
</trkpt>
<trkpt lat="33.810313" lon="-118.3938669">
  <ele>0.13</ele>
  <time>2026-09-01T01:17:53Z</time>
  <course>0.0</course>
  <speed>0.0</speed>
  <fix>3d</fix>
</trkpt>
<trkpt lat="33.810313" lon="-118.3938669">
  <ele>0.0</ele>
  <time>2026-09-01T01:17:53Z</time>
  <course>215.01</course>
  <speed>0.0</speed>
  <fix>3d</fix>
</trkpt>
<trkpt lat="33.810313" lon="-118.3938669">
  <ele>0.13</ele>
  <time>2026-09-01T01:17:53Z</time>
  <course>0.0</course>
  <speed>0.0</speed>
  <fix>3d</fix>
</trkpt>
<trkpt lat="33.810313" lon="-118.3938669">
  <ele>0.0</ele>
  <time>2026-09-01T01:17:53Z</time>
  <course>215.01</course>
  <speed>0.0</speed>
  <fix>3d</fix>
</trkpt>
<trkpt lat="33.810313" lon="-118.3938669">
  <ele>0.12</ele>
  <time>2026-09-01T01:17:53Z</time>
  <course>0.0</course>
  <speed>0.0</speed>
  <fix>3d</fix>
</trkpt>
<trkpt lat="33.810313" lon="-118.3938669">
  <ele>0.0</ele>
  <time>2026-09-01T01:17:53Z</time>
  <course>215.01</course>
  <speed>0.0</speed>
  <fix>3d</fix>
</trkpt>
<trkpt lat="33.810313" lon="-118.3938669">
  <ele>0.12</ele>
  <time>2026-09-01T01:17:53Z</time>
  <course>0.0</course>
  <speed>0.0</speed>
  <fix>3d</fix>
</trkpt>
<trkpt lat="33.810313" lon="-118.3938669">
  <ele>0.0</ele>
  <time>2026-09-01T01:17:53Z</time>
  <course>215.01</course>
  <speed>0.0</speed>
  <fix>3d</fix>
</trkpt>
<trkpt lat="33.810313" lon="-118.3938669">
  <ele>0.11</ele>
  <time>2026-09-01T01:17:53Z</time>
  <course>0.0</course>
  <speed>0.0</speed>
  <fix>3d</fix>
</trkpt>
<trkpt lat="33.810313" lon="-118.3938669">
  <ele>0.0</ele>
  <time>2026-09-01T01:17:53Z</time>
  <course>215.01</course>
  <speed>0.0</speed>
  <fix>3d</fix>
</trkpt>
<trkpt lat="33.810313" lon="-118.3938669">
  <ele>0.11</ele>
  <time>2026-09-01T01:17:53Z</time>
  <course>0.0</course>
  <speed>0.0</speed>
  <fix>3d</fix>
</trkpt>
<trkpt lat="33.810313" lon="-118.3938669">
  <ele>0.0</ele>
  <time>2026-09-01T01:17:53Z</time>
  <course>215.01</course>
  <speed>0.0</speed>
  <fix>3d</fix>
</trkpt>
<trkpt lat="33.810313" lon="-118.3938669">
  <ele>0.11</ele>
  <time>2026-09-01T01:17:53Z</time>
  <course>0.0</course>
  <speed>0.0</speed>
  <fix>3d</fix>
</trkpt>
<trkpt lat="33.810313" lon="-118.3938669">
  <ele>0.0</ele>
  <time>2026-09-01T01:17:53Z</time>
  <course>215.01</course>
  <speed>0.0</speed>
  <fix>3d</fix>
</trkpt>
<trkpt lat="33.810313" lon="-118.3938669">
  <ele>0.11</ele>
  <time>2026-09-01T01:17:53Z</time>
  <course>0.0</course>
  <speed>0.0</speed>
  <fix>3d</fix>
</trkpt>
<trkpt lat="33.810313" lon="-118.3938669">
  <ele>0.0</ele>
  <time>2026-09-01T01:17:53Z</time>
  <course>215.01</course>
  <speed>0.0</speed>
  <fix>3d</fix>
</trkpt>
<trkpt lat="33.810313" lon="-118.3938669">
  <ele>0.12</ele>
  <time>2026-09-01T01:17:53Z</time>
  <course>0.0</course>
  <speed>0.0</speed>
  <fix>3d</fix>
</trkpt>
<trkpt lat="33.810313" lon="-118.3938669">
  <ele>0.0</ele>
  <time>2026-09-01T01:17:53Z</time>
  <course>215.01</course>
  <speed>0.0</speed>
  <fix>3d</fix>
</trkpt>
<trkpt lat="33.810313" lon="-118.3938669">
  <ele>0.12</ele>
  <time>2026-09-01T01:17:53Z</time>
  <course>0.0</course>
  <speed>0.0</speed>
  <fix>3d</fix>
</trkpt>
<trkpt lat="33.810313" lon="-118.3938669">
  <ele>0.0</ele>
  <time>2026-09-01T01:17:53Z</time>
  <course>215.01</course>
  <speed>0.0</speed>
  <fix>3d</fix>
</trkpt>
<trkpt lat="33.810313" lon="-118.3938669">
  <ele>0.13</ele>
  <time>2026-09-01T01:17:53Z</time>
  <course>0.0</course>
  <speed>0.0</speed>
  <fix>3d</fix>
</trkpt>
<trkpt lat="33.810313" lon="-118.3938669">
  <ele>0.0</ele>
  <time>2026-09-01T01:17:53Z</time>
  <course>215.01</course>
  <speed>0.0</speed>
  <fix>3d</fix>
</trkpt>
<trkpt lat="33.810313" lon="-118.3938669">
  <ele>0.13</ele>
  <time>2026-09-01T01:17:53Z</time>
  <course>0.0</course>
  <speed>0.0</speed>
  <fix>3d</fix>
</trkpt>
<trkpt lat="33.810313" lon="-118.3938669">
  <ele>0.0</ele>
  <time>2026-09-01T01:17:53Z</time>
  <course>215.01</course>
  <speed>0.0</speed>
  <fix>3d</fix>
</trkpt>
<trkpt lat="33.810313" lon="-118.3938669">
  <ele>0.13</ele>
  <time>2026-09-01T01:17:53Z</time>
  <course>0.0</course>
  <speed>0.0</speed>
  <fix>3d</fix>
</trkpt>
<trkpt lat="33.810313" lon="-118.3938669">
  <ele>0.0</ele>
  <time>2026-09-01T01:17:53Z</time>
  <course>215.01</course>
  <speed>0.0</speed>
  <fix>3d</fix>
</trkpt>
<trkpt lat="33.810313" lon="-118.3938669">
  <ele>0.13</ele>
  <time>2026-09-01T01:17:53Z</time>
  <course>0.0</course>
  <speed>0.0</speed>
  <fix>3d</fix>
</trkpt>
<trkpt lat="33.810313" lon="-118.3938669">
  <ele>0.0</ele>
  <time>2026-09-01T01:17:53Z</time>
  <course>215.01</course>
  <speed>0.0</speed>
  <fix>3d</fix>
</trkpt>
<trkpt lat="33.810313" lon="-118.3938669">
  <ele>0.14</ele>
  <time>2026-09-01T01:17:53Z</time>
  <course>0.0</course>
  <speed>0.0</speed>
  <fix>3d</fix>
</trkpt>
<trkpt lat="33.810313" lon="-118.3938669">
  <ele>0.0</ele>
  <time>2026-09-01T01:17:53Z</time>
  <course>215.01</course>
  <speed>0.0</speed>
  <fix>3d</fix>
</trkpt>
<trkpt lat="33.810313" lon="-118.3938669">
  <ele>0.14</ele>
  <time>2026-09-01T01:17:53Z</time>
  <course>0.0</course>
  <speed>0.0</speed>
  <fix>3d</fix>
</trkpt>
<trkpt lat="33.810313" lon="-118.3938669">
  <ele>0.0</ele>
  <time>2026-09-01T01:17:53Z</time>
  <course>215.01</course>
  <speed>0.0</speed>
  <fix>3d</fix>
</trkpt>
<trkpt lat="33.810313" lon="-118.3938669">
  <ele>0.14</ele>
  <time>2026-09-01T01:17:53Z</time>
  <course>0.0</course>
  <speed>0.0</speed>
  <fix>3d</fix>
</trkpt>
<trkpt lat="33.810313" lon="-118.3938669">
  <ele>0.0</ele>
  <time>2026-09-01T01:17:53Z</time>
  <course>215.01</course>
  <speed>0.0</speed>
  <fix>3d</fix>
</trkpt>
<trkpt lat="33.810313" lon="-118.3938669">
  <ele>0.14</ele>
  <time>2026-09-01T01:17:53Z</time>
  <course>0.0</course>
  <speed>0.0</speed>
  <fix>3d</fix>
</trkpt>
<trkpt lat="33.810313" lon="-118.3938669">
  <ele>0.0</ele>
  <time>2026-09-01T01:17:53Z</time>
  <course>215.01</course>
  <speed>0.0</speed>
  <fix>3d</fix>
</trkpt>
<trkpt lat="33.810313" lon="-118.3938669">
  <ele>0.13</ele>
  <time>2026-09-01T01:17:53Z</time>
  <course>0.0</course>
  <speed>0.0</speed>
  <fix>3d</fix>
</trkpt>
<trkpt lat="33.810313" lon="-118.3938669">
  <ele>0.0</ele>
  <time>2026-09-01T01:17:53Z</time>
  <course>215.01</course>
  <speed>0.0</speed>
  <fix>3d</fix>
</trkpt>
<trkpt lat="33.810313" lon="-118.3938669">
  <ele>0.13</ele>
  <time>2026-09-01T01:17:53Z</time>
  <course>0.0</course>
  <speed>0.0</speed>
  <fix>3d</fix>
</trkpt>
<trkpt lat="33.810313" lon="-118.3938669">
  <ele>0.0</ele>
  <time>2026-09-01T01:17:53Z</time>
  <course>215.01</course>
  <speed>0.0</speed>
  <fix>3d</fix>
</trkpt>
<trkpt lat="33.810313" lon="-118.3938669">
  <ele>0.13</ele>
  <time>2026-09-01T01:17:53Z</time>
  <course>0.0</course>
  <speed>0.0</speed>
  <fix>3d</fix>
</trkpt>
<trkpt lat="33.810313" lon="-118.3938669">
  <ele>0.0</ele>
  <time>2026-09-01T01:17:53Z</time>
  <course>215.01</course>
  <speed>0.0</speed>
  <fix>3d</fix>
</trkpt>
<trkpt lat="33.810313" lon="-118.3938669">
  <ele>0.13</ele>
  <time>2026-09-01T01:17:53Z</time>
  <course>0.0</course>
  <speed>0.0</speed>
  <fix>3d</fix>
</trkpt>
<trkpt lat="33.810313" lon="-118.3938669">
  <ele>0.0</ele>
  <time>2026-09-01T01:17:53Z</time>
  <course>215.01</course>
  <speed>0.0</speed>
  <fix>3d</fix>
</trkpt>
<trkpt lat="33.810313" lon="-118.3938669">
  <ele>0.12</ele>
  <time>2026-09-01T01:17:53Z</time>
  <course>0.0</course>
  <speed>0.0</speed>
  <fix>3d</fix>
</trkpt>
<trkpt lat="33.810313" lon="-118.3938669">
  <ele>0.0</ele>
  <time>2026-09-01T01:17:53Z</time>
  <course>215.01</course>
  <speed>0.0</speed>
  <fix>3d</fix>
</trkpt>
<trkpt lat="33.810313" lon="-118.3938669">
  <ele>0.12</ele>
  <time>2026-09-01T01:17:53Z</time>
  <course>0.0</course>
  <speed>0.0</speed>
  <fix>3d</fix>
</trkpt>
<trkpt lat="33.810313" lon="-118.3938669">
  <ele>0.0</ele>
  <time>2026-09-01T01:17:53Z</time>
  <course>215.01</course>
  <speed>0.0</speed>
  <fix>3d</fix>
</trkpt>
<trkpt lat="33.810313" lon="-118.3938669">
  <ele>0.11</ele>
  <time>2026-09-01T01:17:53Z</time>
  <course>0.0</course>
  <speed>0.0</speed>
  <fix>3d</fix>
</trkpt>
<trkpt lat="33.810313" lon="-118.3938669">
  <ele>0.0</ele>
  <time>2026-09-01T01:17:53Z</time>
  <course>215.01</course>
  <speed>0.0</speed>
  <fix>3d</fix>
</trkpt>
<trkpt lat="33.810313" lon="-118.3938669">
  <ele>0.11</ele>
  <time>2026-09-01T01:17:53Z</time>
  <course>0.0</course>
  <speed>0.0</speed>
  <fix>3d</fix>
</trkpt>
<trkpt lat="33.810313" lon="-118.3938669">
  <ele>0.1</ele>
  <time>2026-09-01T01:17:53Z</time>
  <course>215.01</course>
  <speed>0.0</speed>
  <fix>3d</fix>
</trkpt>
<trkpt lat="33.810313" lon="-118.3938669">
  <ele>0.11</ele>
  <time>2026-09-01T01:17:53Z</time>
  <course>0.0</course>
  <speed>0.0</speed>
  <fix>3d</fix>
</trkpt>
<trkpt lat="33.810313" lon="-118.3938669">
  <ele>0.097</ele>
  <time>2026-09-01T01:17:53Z</time>
  <course>215.01</course>
  <speed>0.0</speed>
  <fix>3d</fix>
</trkpt>
<trkpt lat="33.810313" lon="-118.3938669">
  <ele>0.11</ele>
  <time>2026-09-01T01:17:53Z</time>
  <course>0.0</course>
  <speed>0.0</speed>
  <fix>3d</fix>
</trkpt>
<trkpt lat="33.810313" lon="-118.3938669">
  <ele>0.093</ele>
  <time>2026-09-01T01:17:53Z</time>
  <course>215.01</course>
  <speed>0.0</speed>
  <fix>3d</fix>
</trkpt>
<trkpt lat="33.810313" lon="-118.3938669">
  <ele>0.12</ele>
  <time>2026-09-01T01:17:53Z</time>
  <course>0.0</course>
  <speed>0.0</speed>
  <fix>3d</fix>
</trkpt>
<trkpt lat="33.810313" lon="-118.3938669">
  <ele>0.09</ele>
  <time>2026-09-01T01:17:53Z</time>
  <course>215.01</course>
  <speed>0.0</speed>
  <fix>3d</fix>
</trkpt>
<trkpt lat="33.810313" lon="-118.3938669">
  <ele>0.12</ele>
  <time>2026-09-01T01:17:53Z</time>
  <course>0.0</course>
  <speed>0.0</speed>
  <fix>3d</fix>
</trkpt>
<trkpt lat="33.810313" lon="-118.3938669">
  <ele>0.088</ele>
  <time>2026-09-01T01:17:53Z</time>
  <course>215.02</course>
  <speed>0.0</speed>
  <fix>3d</fix>
</trkpt>
<trkpt lat="33.810313" lon="-118.3938669">
  <ele>0.13</ele>
  <time>2026-09-01T01:17:53Z</time>
  <course>0.0</course>
  <speed>0.0</speed>
  <fix>3d</fix>
</trkpt>
<trkpt lat="33.810313" lon="-118.3938669">
  <ele>0.087</ele>
  <time>2026-09-01T01:17:53Z</time>
  <course>215.02</course>
  <speed>0.0</speed>
  <fix>3d</fix>
</trkpt>
<trkpt lat="33.810313" lon="-118.3938669">
  <ele>0.13</ele>
  <time>2026-09-01T01:17:53Z</time>
  <course>0.0</course>
  <speed>0.0</speed>
  <fix>3d</fix>
</trkpt>
<trkpt lat="33.810313" lon="-118.3938669">
  <ele>0.087</ele>
  <time>2026-09-01T01:17:53Z</time>
  <course>215.02</course>
  <speed>0.0</speed>
  <fix>3d</fix>
</trkpt>
<trkpt lat="33.810313" lon="-118.3938669">
  <ele>0.13</ele>
  <time>2026-09-01T01:17:53Z</time>
  <course>0.0</course>
  <speed>0.0</speed>
  <fix>3d</fix>
</trkpt>
<trkpt lat="33.810313" lon="-118.3938669">
  <ele>0.089</ele>
  <time>2026-09-01T01:17:53Z</time>
  <course>215.02</course>
  <speed>0.0</speed>
  <fix>3d</fix>
</trkpt>
<trkpt lat="33.810313" lon="-118.3938669">
  <ele>0.13</ele>
  <time>2026-09-01T01:17:53Z</time>
  <course>0.0</course>
  <speed>0.0</speed>
  <fix>3d</fix>
</trkpt>
<trkpt lat="33.810313" lon="-118.3938669">
  <ele>0.092</ele>
  <time>2026-09-01T01:17:53Z</time>
  <course>215.02</course>
  <speed>0.0</speed>
  <fix>3d</fix>
</trkpt>
<trkpt lat="33.810313" lon="-118.3938669">
  <ele>0.13</ele>
  <time>2026-09-01T01:17:53Z</time>
  <course>0.0</course>
  <speed>0.0</speed>
  <fix>3d</fix>
</trkpt>
<trkpt lat="33.810313" lon="-118.3938669">
  <ele>0.096</ele>
  <time>2026-09-01T01:17:53Z</time>
  <course>215.02</course>
  <speed>0.0</speed>
  <fix>3d</fix>
</trkpt>
<trkpt lat="33.810313" lon="-118.3938669">
  <ele>0.13</ele>
  <time>2026-09-01T01:17:53Z</time>
  <course>0.0</course>
  <speed>0.0</speed>
  <fix>3d</fix>
</trkpt>
<trkpt lat="33.810313" lon="-118.3938669">
  <ele>0.1</ele>
  <time>2026-09-01T01:17:53Z</time>
  <course>215.02</course>
  <speed>0.0</speed>
  <fix>3d</fix>
</trkpt>
<trkpt lat="33.810313" lon="-118.3938669">
  <ele>0.13</ele>
  <time>2026-09-01T01:17:53Z</time>
  <course>0.0</course>
  <speed>0.0</speed>
  <fix>3d</fix>
</trkpt>
<trkpt lat="33.810313" lon="-118.3938669">
  <ele>0.103</ele>
  <time>2026-09-01T01:17:53Z</time>
  <course>215.02</course>
  <speed>0.0</speed>
  <fix>3d</fix>
</trkpt>
<trkpt lat="33.810313" lon="-118.3938669">
  <ele>0.13</ele>
  <time>2026-09-01T01:17:53Z</time>
  <course>0.0</course>
  <speed>0.0</speed>
  <fix>3d</fix>
</trkpt>
<trkpt lat="33.810313" lon="-118.3938669">
  <ele>0.108</ele>
  <time>2026-09-01T01:17:53Z</time>
  <course>215.02</course>
  <speed>0.0</speed>
  <fix>3d</fix>
</trkpt>
<trkpt lat="33.810313" lon="-118.3938669">
  <ele>0.13</ele>
  <time>2026-09-01T01:17:53Z</time>
  <course>0.0</course>
  <speed>0.0</speed>
  <fix>3d</fix>
</trkpt>
<trkpt lat="33.810313" lon="-118.3938669">
  <ele>0.114</ele>
  <time>2026-09-01T01:17:53Z</time>
  <course>215.02</course>
  <speed>0.0</speed>
  <fix>3d</fix>
</trkpt>
<trkpt lat="33.810313" lon="-118.3938669">
  <ele>0.13</ele>
  <time>2026-09-01T01:17:53Z</time>
  <course>0.0</course>
  <speed>0.0</speed>
  <fix>3d</fix>
</trkpt>
<trkpt lat="33.810313" lon="-118.3938669">
  <ele>0.118</ele>
  <time>2026-09-01T01:17:53Z</time>
  <course>215.02</course>
  <speed>0.0</speed>
  <fix>3d</fix>
</trkpt>
<trkpt lat="33.810313" lon="-118.3938669">
  <ele>0.12</ele>
  <time>2026-09-01T01:17:53Z</time>
  <course>0.0</course>
  <speed>0.0</speed>
  <fix>3d</fix>
</trkpt>
<trkpt lat="33.810313" lon="-118.3938669">
  <ele>0.121</ele>
  <time>2026-09-01T01:17:53Z</time>
  <course>215.02</course>
  <speed>0.0</speed>
  <fix>3d</fix>
</trkpt>
<trkpt lat="33.810313" lon="-118.3938669">
  <ele>0.12</ele>
  <time>2026-09-01T01:17:53Z</time>
  <course>0.0</course>
  <speed>0.0</speed>
  <fix>3d</fix>
</trkpt>
<trkpt lat="33.810313" lon="-118.3938669">
  <ele>0.121</ele>
  <time>2026-09-01T01:17:53Z</time>
  <course>215.02</course>
  <speed>0.0</speed>
  <fix>3d</fix>
</trkpt>
<trkpt lat="33.810313" lon="-118.3938669">
  <ele>0.11</ele>
  <time>2026-09-01T01:17:53Z</time>
  <course>0.0</course>
  <speed>0.0</speed>
  <fix>3d</fix>
</trkpt>
<trkpt lat="33.810313" lon="-118.3938669">
  <ele>0.119</ele>
  <time>2026-09-01T01:17:53Z</time>
  <course>215.02</course>
  <speed>0.0</speed>
  <fix>3d</fix>
</trkpt>
<trkpt lat="33.810313" lon="-118.3938669">
  <ele>0.11</ele>
  <time>2026-09-01T01:17:53Z</time>
  <course>0.0</course>
  <speed>0.0</speed>
  <fix>3d</fix>
</trkpt>
<trkpt lat="33.810313" lon="-118.3938669">
  <ele>0.115</ele>
  <time>2026-09-01T01:17:53Z</time>
  <course>215.02</course>
  <speed>0.0</speed>
  <fix>3d</fix>
</trkpt>
<trkpt lat="33.810313" lon="-118.3938669">
  <ele>0.11</ele>
  <time>2026-09-01T01:17:53Z</time>
  <course>0.0</course>
  <speed>0.0</speed>
  <fix>3d</fix>
</trkpt>
<trkpt lat="33.810313" lon="-118.3938669">
  <ele>0.11</ele>
  <time>2026-09-01T01:17:53Z</time>
  <course>215.02</course>
  <speed>0.0</speed>
  <fix>3d</fix>
</trkpt>
<trkpt lat="33.810313" lon="-118.3938669">
  <ele>0.11</ele>
  <time>2026-09-01T01:17:53Z</time>
  <course>0.0</course>
  <speed>0.0</speed>
  <fix>3d</fix>
</trkpt>
<trkpt lat="33.810313" lon="-118.3938669">
  <ele>0.105</ele>
  <time>2026-09-01T01:17:53Z</time>
  <course>215.02</course>
  <speed>0.0</speed>
  <fix>3d</fix>
</trkpt>
<trkpt lat="33.810313" lon="-118.3938669">
  <ele>0.12</ele>
  <time>2026-09-01T01:17:53Z</time>
  <course>0.0</course>
  <speed>0.0</speed>
  <fix>3d</fix>
</trkpt>
<trkpt lat="33.810313" lon="-118.3938669">
  <ele>0.101</ele>
  <time>2026-09-01T01:17:53Z</time>
  <course>215.02</course>
  <speed>0.0</speed>
  <fix>3d</fix>
</trkpt>
<trkpt lat="33.810313" lon="-118.3938669">
  <ele>0.12</ele>
  <time>2026-09-01T01:17:53Z</time>
  <course>0.0</course>
  <speed>0.0</speed>
  <fix>3d</fix>
</trkpt>
<trkpt lat="33.810313" lon="-118.3938669">
  <ele>0.097</ele>
  <time>2026-09-01T01:17:53Z</time>
  <course>215.02</course>
  <speed>0.0</speed>
  <fix>3d</fix>
</trkpt>
<trkpt lat="33.810313" lon="-118.3938669">
  <ele>0.13</ele>
  <time>2026-09-01T01:17:53Z</time>
  <course>0.0</course>
  <speed>0.0</speed>
  <fix>3d</fix>
</trkpt>
<trkpt lat="33.810313" lon="-118.3938669">
  <ele>0.094</ele>
  <time>2026-09-01T01:17:53Z</time>
  <course>215.02</course>
  <speed>0.0</speed>
  <fix>3d</fix>
</trkpt>
<trkpt lat="33.810313" lon="-118.3938669">
  <ele>0.13</ele>
  <time>2026-09-01T01:17:53Z</time>
  <course>0.0</course>
  <speed>0.0</speed>
  <fix>3d</fix>
</trkpt>
<trkpt lat="33.810313" lon="-118.3938669">
  <ele>0.093</ele>
  <time>2026-09-01T01:17:53Z</time>
  <course>215.02</course>
  <speed>0.0</speed>
  <fix>3d</fix>
</trkpt>
<trkpt lat="33.810313" lon="-118.3938669">
  <ele>0.13</ele>
  <time>2026-09-01T01:17:53Z</time>
  <course>0.0</course>
  <speed>0.0</speed>
  <fix>3d</fix>
</trkpt>
<trkpt lat="33.810313" lon="-118.3938669">
  <ele>0.093</ele>
  <time>2026-09-01T01:17:53Z</time>
  <course>215.02</course>
  <speed>0.0</speed>
  <fix>3d</fix>
</trkpt>
<trkpt lat="33.810313" lon="-118.3938669">
  <ele>0.13</ele>
  <time>2026-09-01T01:17:53Z</time>
  <course>0.0</course>
  <speed>0.0</speed>
  <fix>3d</fix>
</trkpt>
<trkpt lat="33.810313" lon="-118.3938669">
  <ele>0.093</ele>
  <time>2026-09-01T01:17:53Z</time>
  <course>215.02</course>
  <speed>0.0</speed>
  <fix>3d</fix>
</trkpt>
<trkpt lat="33.810313" lon="-118.3938669">
  <ele>0.13</ele>
  <time>2026-09-01T01:17:53Z</time>
  <course>0.0</course>
  <speed>0.0</speed>
  <fix>3d</fix>
</trkpt>
<trkpt lat="33.810313" lon="-118.3938669">
  <ele>0.094</ele>
  <time>2026-09-01T01:17:53Z</time>
  <course>215.02</course>
  <speed>0.0</speed>
  <fix>3d</fix>
</trkpt>
<trkpt lat="33.810313" lon="-118.3938669">
  <ele>0.13</ele>
  <time>2026-09-01T01:17:53Z</time>
  <course>0.0</course>
  <speed>0.0</speed>
  <fix>3d</fix>
</trkpt>
<trkpt lat="33.810313" lon="-118.3938669">
  <ele>0.097</ele>
  <time>2026-09-01T01:17:53Z</time>
  <course>215.02</course>
  <speed>0.0</speed>
  <fix>3d</fix>
</trkpt>
<trkpt lat="33.810313" lon="-118.3938669">
  <ele>0.13</ele>
  <time>2026-09-01T01:17:53Z</time>
  <course>0.0</course>
  <speed>0.0</speed>
  <fix>3d</fix>
</trkpt>
<trkpt lat="33.810313" lon="-118.3938669">
  <ele>0.1</ele>
  <time>2026-09-01T01:17:53Z</time>
  <course>215.02</course>
  <speed>0.0</speed>
  <fix>3d</fix>
</trkpt>
<trkpt lat="33.810313" lon="-118.3938669">
  <ele>0.13</ele>
  <time>2026-09-01T01:17:53Z</time>
  <course>0.0</course>
  <speed>0.0</speed>
  <fix>3d</fix>
</trkpt>
<trkpt lat="33.810313" lon="-118.3938669">
  <ele>0.102</ele>
  <time>2026-09-01T01:17:54Z</time>
  <course>215.02</course>
  <speed>0.0</speed>
  <fix>3d</fix>
</trkpt>
<trkpt lat="33.810313" lon="-118.3938669">
  <ele>0.12</ele>
  <time>2026-09-01T01:17:54Z</time>
  <course>0.0</course>
  <speed>0.0</speed>
  <fix>3d</fix>
</trkpt>
<trkpt lat="33.810313" lon="-118.3938669">
  <ele>0.104</ele>
  <time>2026-09-01T01:17:54Z</time>
  <course>215.02</course>
  <speed>0.0</speed>
  <fix>3d</fix>
</trkpt>
<trkpt lat="33.810313" lon="-118.3938669">
  <ele>0.12</ele>
  <time>2026-09-01T01:17:54Z</time>
  <course>0.0</course>
  <speed>0.0</speed>
  <fix>3d</fix>
</trkpt>
<trkpt lat="33.810313" lon="-118.3938669">
  <ele>0.103</ele>
  <time>2026-09-01T01:17:54Z</time>
  <course>215.02</course>
  <speed>0.0</speed>
  <fix>3d</fix>
</trkpt>
<trkpt lat="33.810313" lon="-118.3938669">
  <ele>0.12</ele>
  <time>2026-09-01T01:17:54Z</time>
  <course>0.0</course>
  <speed>0.0</speed>
  <fix>3d</fix>
</trkpt>
<trkpt lat="33.810313" lon="-118.3938669">
  <ele>0.101</ele>
  <time>2026-09-01T01:17:54Z</time>
  <course>215.02</course>
  <speed>0.0</speed>
  <fix>3d</fix>
</trkpt>
<trkpt lat="33.810313" lon="-118.3938669">
  <ele>0.12</ele>
  <time>2026-09-01T01:17:54Z</time>
  <course>0.0</course>
  <speed>0.0</speed>
  <fix>3d</fix>
</trkpt>
<trkpt lat="33.810313" lon="-118.3938669">
  <ele>0.097</ele>
  <time>2026-09-01T01:17:54Z</time>
  <course>215.02</course>
  <speed>0.0</speed>
  <fix>3d</fix>
</trkpt>
<trkpt lat="33.810313" lon="-118.3938669">
  <ele>0.12</ele>
  <time>2026-09-01T01:17:54Z</time>
  <course>0.0</course>
  <speed>0.0</speed>
  <fix>3d</fix>
</trkpt>
<trkpt lat="33.810313" lon="-118.3938669">
  <ele>0.095</ele>
  <time>2026-09-01T01:17:54Z</time>
  <course>215.02</course>
  <speed>0.0</speed>
  <fix>3d</fix>
</trkpt>
<trkpt lat="33.810313" lon="-118.3938669">
  <ele>0.12</ele>
  <time>2026-09-01T01:17:54Z</time>
  <course>0.0</course>
  <speed>0.0</speed>
  <fix>3d</fix>
</trkpt>
<trkpt lat="33.810313" lon="-118.3938669">
  <ele>0.092</ele>
  <time>2026-09-01T01:17:54Z</time>
  <course>215.02</course>
  <speed>0.0</speed>
  <fix>3d</fix>
</trkpt>
<trkpt lat="33.810313" lon="-118.3938669">
  <ele>0.12</ele>
  <time>2026-09-01T01:17:54Z</time>
  <course>0.0</course>
  <speed>0.0</speed>
  <fix>3d</fix>
</trkpt>
<trkpt lat="33.810313" lon="-118.3938669">
  <ele>0.09</ele>
  <time>2026-09-01T01:17:54Z</time>
  <course>215.02</course>
  <speed>0.0</speed>
  <fix>3d</fix>
</trkpt>
<trkpt lat="33.810313" lon="-118.3938669">
  <ele>0.12</ele>
  <time>2026-09-01T01:17:54Z</time>
  <course>0.0</course>
  <speed>0.0</speed>
  <fix>3d</fix>
</trkpt>
<trkpt lat="33.810313" lon="-118.3938669">
  <ele>0.089</ele>
  <time>2026-09-01T01:17:54Z</time>
  <course>215.02</course>
  <speed>0.0</speed>
  <fix>3d</fix>
</trkpt>
<trkpt lat="33.810313" lon="-118.3938669">
  <ele>0.12</ele>
  <time>2026-09-01T01:17:54Z</time>
  <course>0.0</course>
  <speed>0.0</speed>
  <fix>3d</fix>
</trkpt>
<trkpt lat="33.810313" lon="-118.3938669">
  <ele>0.088</ele>
  <time>2026-09-01T01:17:54Z</time>
  <course>215.02</course>
  <speed>0.0</speed>
  <fix>3d</fix>
</trkpt>
<trkpt lat="33.810313" lon="-118.3938669">
  <ele>0.12</ele>
  <time>2026-09-01T01:17:54Z</time>
  <course>0.0</course>
  <speed>0.0</speed>
  <fix>3d</fix>
</trkpt>
<trkpt lat="33.810313" lon="-118.3938669">
  <ele>0.087</ele>
  <time>2026-09-01T01:17:54Z</time>
  <course>215.02</course>
  <speed>0.0</speed>
  <fix>3d</fix>
</trkpt>
<trkpt lat="33.810313" lon="-118.3938669">
  <ele>0.13</ele>
  <time>2026-09-01T01:17:54Z</time>
  <course>0.0</course>
  <speed>0.0</speed>
  <fix>3d</fix>
</trkpt>
<trkpt lat="33.810313" lon="-118.3938669">
  <ele>0.086</ele>
  <time>2026-09-01T01:17:54Z</time>
  <course>215.02</course>
  <speed>0.0</speed>
  <fix>3d</fix>
</trkpt>
<trkpt lat="33.810313" lon="-118.3938669">
  <ele>0.13</ele>
  <time>2026-09-01T01:17:54Z</time>
  <course>0.0</course>
  <speed>0.0</speed>
  <fix>3d</fix>
</trkpt>
<trkpt lat="33.810313" lon="-118.3938669">
  <ele>0.087</ele>
  <time>2026-09-01T01:17:54Z</time>
  <course>215.02</course>
  <speed>0.0</speed>
  <fix>3d</fix>
</trkpt>
<trkpt lat="33.810313" lon="-118.3938669">
  <ele>0.13</ele>
  <time>2026-09-01T01:17:54Z</time>
  <course>0.0</course>
  <speed>0.0</speed>
  <fix>3d</fix>
</trkpt>
<trkpt lat="33.810313" lon="-118.3938669">
  <ele>0.09</ele>
  <time>2026-09-01T01:17:54Z</time>
  <course>215.02</course>
  <speed>0.0</speed>
  <fix>3d</fix>
</trkpt>
<trkpt lat="33.810313" lon="-118.3938669">
  <ele>0.13</ele>
  <time>2026-09-01T01:17:54Z</time>
  <course>0.0</course>
  <speed>0.0</speed>
  <fix>3d</fix>
</trkpt>
<trkpt lat="33.810313" lon="-118.3938669">
  <ele>0.094</ele>
  <time>2026-09-01T01:17:54Z</time>
  <course>215.02</course>
  <speed>0.0</speed>
  <fix>3d</fix>
</trkpt>
<trkpt lat="33.810313" lon="-118.3938669">
  <ele>0.12</ele>
  <time>2026-09-01T01:17:54Z</time>
  <course>0.0</course>
  <speed>0.0</speed>
  <fix>3d</fix>
</trkpt>
<trkpt lat="33.810313" lon="-118.3938669">
  <ele>0.098</ele>
  <time>2026-09-01T01:17:54Z</time>
  <course>215.02</course>
  <speed>0.0</speed>
  <fix>3d</fix>
</trkpt>
<trkpt lat="33.810313" lon="-118.3938669">
  <ele>0.12</ele>
  <time>2026-09-01T01:17:54Z</time>
  <course>0.0</course>
  <speed>0.0</speed>
  <fix>3d</fix>
</trkpt>
<trkpt lat="33.810313" lon="-118.3938669">
  <ele>0.103</ele>
  <time>2026-09-01T01:17:54Z</time>
  <course>215.02</course>
  <speed>0.0</speed>
  <fix>3d</fix>
</trkpt>
<trkpt lat="33.810313" lon="-118.3938669">
  <ele>0.12</ele>
  <time>2026-09-01T01:17:54Z</time>
  <course>0.0</course>
  <speed>0.0</speed>
  <fix>3d</fix>
</trkpt>
<trkpt lat="33.810313" lon="-118.3938669">
  <ele>0.106</ele>
  <time>2026-09-01T01:17:54Z</time>
  <course>215.02</course>
  <speed>0.0</speed>
  <fix>3d</fix>
</trkpt>
<trkpt lat="33.810313" lon="-118.3938669">
  <ele>0.12</ele>
  <time>2026-09-01T01:17:54Z</time>
  <course>0.0</course>
  <speed>0.0</speed>
  <fix>3d</fix>
</trkpt>
<trkpt lat="33.810313" lon="-118.3938669">
  <ele>0.106</ele>
  <time>2026-09-01T01:17:54Z</time>
  <course>215.02</course>
  <speed>0.0</speed>
  <fix>3d</fix>
</trkpt>
<trkpt lat="33.810313" lon="-118.3938669">
  <ele>0.12</ele>
  <time>2026-09-01T01:17:54Z</time>
  <course>0.0</course>
  <speed>0.0</speed>
  <fix>3d</fix>
</trkpt>
<trkpt lat="33.810313" lon="-118.3938669">
  <ele>0.105</ele>
  <time>2026-09-01T01:17:54Z</time>
  <course>215.02</course>
  <speed>0.0</speed>
  <fix>3d</fix>
</trkpt>
<trkpt lat="33.810313" lon="-118.3938669">
  <ele>0.12</ele>
  <time>2026-09-01T01:17:54Z</time>
  <course>0.0</course>
  <speed>0.0</speed>
  <fix>3d</fix>
</trkpt>
<trkpt lat="33.810313" lon="-118.3938669">
  <ele>0.103</ele>
  <time>2026-09-01T01:17:54Z</time>
  <course>215.03</course>
  <speed>0.0</speed>
  <fix>3d</fix>
</trkpt>
<trkpt lat="33.810313" lon="-118.3938669">
  <ele>0.12</ele>
  <time>2026-09-01T01:17:54Z</time>
  <course>0.0</course>
  <speed>0.0</speed>
  <fix>3d</fix>
</trkpt>
<trkpt lat="33.810313" lon="-118.3938669">
  <ele>0.101</ele>
  <time>2026-09-01T01:17:54Z</time>
  <course>215.03</course>
  <speed>0.0</speed>
  <fix>3d</fix>
</trkpt>
<trkpt lat="33.810313" lon="-118.3938669">
  <ele>0.12</ele>
  <time>2026-09-01T01:17:54Z</time>
  <course>0.0</course>
  <speed>0.0</speed>
  <fix>3d</fix>
</trkpt>
<trkpt lat="33.810313" lon="-118.3938669">
  <ele>0.1</ele>
  <time>2026-09-01T01:17:54Z</time>
  <course>215.03</course>
  <speed>0.0</speed>
  <fix>3d</fix>
</trkpt>
<trkpt lat="33.810313" lon="-118.3938669">
  <ele>0.12</ele>
  <time>2026-09-01T01:17:54Z</time>
  <course>0.0</course>
  <speed>0.0</speed>
  <fix>3d</fix>
</trkpt>
<trkpt lat="33.810313" lon="-118.3938669">
  <ele>0.101</ele>
  <time>2026-09-01T01:17:54Z</time>
  <course>215.03</course>
  <speed>0.0</speed>
  <fix>3d</fix>
</trkpt>
<trkpt lat="33.810313" lon="-118.3938669">
  <ele>0.12</ele>
  <time>2026-09-01T01:17:54Z</time>
  <course>0.0</course>
  <speed>0.0</speed>
  <fix>3d</fix>
</trkpt>
<trkpt lat="33.810313" lon="-118.3938669">
  <ele>0.102</ele>
  <time>2026-09-01T01:17:54Z</time>
  <course>215.03</course>
  <speed>0.0</speed>
  <fix>3d</fix>
</trkpt>
<trkpt lat="33.810313" lon="-118.3938669">
  <ele>0.12</ele>
  <time>2026-09-01T01:17:54Z</time>
  <course>0.0</course>
  <speed>0.0</speed>
  <fix>3d</fix>
</trkpt>
<trkpt lat="33.810313" lon="-118.3938669">
  <ele>0.102</ele>
  <time>2026-09-01T01:17:54Z</time>
  <course>215.03</course>
  <speed>0.0</speed>
  <fix>3d</fix>
</trkpt>
<trkpt lat="33.810313" lon="-118.3938669">
  <ele>0.12</ele>
  <time>2026-09-01T01:17:54Z</time>
  <course>0.0</course>
  <speed>0.0</speed>
  <fix>3d</fix>
</trkpt>
<trkpt lat="33.810313" lon="-118.3938669">
  <ele>0.103</ele>
  <time>2026-09-01T01:17:54Z</time>
  <course>215.03</course>
  <speed>0.0</speed>
  <fix>3d</fix>
</trkpt>
<trkpt lat="33.810313" lon="-118.3938669">
  <ele>0.13</ele>
  <time>2026-09-01T01:17:54Z</time>
  <course>0.0</course>
  <speed>0.0</speed>
  <fix>3d</fix>
</trkpt>
<trkpt lat="33.810313" lon="-118.3938669">
  <ele>0.103</ele>
  <time>2026-09-01T01:17:54Z</time>
  <course>215.03</course>
  <speed>0.0</speed>
  <fix>3d</fix>
</trkpt>
<trkpt lat="33.810313" lon="-118.3938669">
  <ele>0.13</ele>
  <time>2026-09-01T01:17:54Z</time>
  <course>0.0</course>
  <speed>0.0</speed>
  <fix>3d</fix>
</trkpt>
<trkpt lat="33.810313" lon="-118.3938669">
  <ele>0.103</ele>
  <time>2026-09-01T01:17:54Z</time>
  <course>215.03</course>
  <speed>0.0</speed>
  <fix>3d</fix>
</trkpt>
<trkpt lat="33.810313" lon="-118.3938669">
  <ele>0.12</ele>
  <time>2026-09-01T01:17:54Z</time>
  <course>0.0</course>
  <speed>0.0</speed>
  <fix>3d</fix>
</trkpt>
<trkpt lat="33.810313" lon="-118.3938669">
  <ele>0.103</ele>
  <time>2026-09-01T01:17:54Z</time>
  <course>215.03</course>
  <speed>0.0</speed>
  <fix>3d</fix>
</trkpt>
<trkpt lat="33.810313" lon="-118.3938669">
  <ele>0.12</ele>
  <time>2026-09-01T01:17:54Z</time>
  <course>0.0</course>
  <speed>0.0</speed>
  <fix>3d</fix>
</trkpt>
<trkpt lat="33.810313" lon="-118.3938669">
  <ele>0.104</ele>
  <time>2026-09-01T01:17:54Z</time>
  <course>215.03</course>
  <speed>0.0</speed>
  <fix>3d</fix>
</trkpt>
<trkpt lat="33.810313" lon="-118.3938669">
  <ele>0.12</ele>
  <time>2026-09-01T01:17:54Z</time>
  <course>0.0</course>
  <speed>0.0</speed>
  <fix>3d</fix>
</trkpt>
<trkpt lat="33.810313" lon="-118.3938669">
  <ele>0.104</ele>
  <time>2026-09-01T01:17:54Z</time>
  <course>215.03</course>
  <speed>0.0</speed>
  <fix>3d</fix>
</trkpt>
<trkpt lat="33.810313" lon="-118.3938669">
  <ele>0.12</ele>
  <time>2026-09-01T01:17:54Z</time>
  <course>0.0</course>
  <speed>0.0</speed>
  <fix>3d</fix>
</trkpt>
<trkpt lat="33.810313" lon="-118.3938669">
  <ele>0.103</ele>
  <time>2026-09-01T01:17:54Z</time>
  <course>215.03</course>
  <speed>0.0</speed>
  <fix>3d</fix>
</trkpt>
<trkpt lat="33.810313" lon="-118.3938669">
  <ele>0.12</ele>
  <time>2026-09-01T01:17:54Z</time>
  <course>0.0</course>
  <speed>0.0</speed>
  <fix>3d</fix>
</trkpt>
<trkpt lat="33.810313" lon="-118.3938669">
  <ele>0.101</ele>
  <time>2026-09-01T01:17:54Z</time>
  <course>215.03</course>
  <speed>0.0</speed>
  <fix>3d</fix>
</trkpt>
<trkpt lat="33.810313" lon="-118.3938669">
  <ele>0.12</ele>
  <time>2026-09-01T01:17:54Z</time>
  <course>0.0</course>
  <speed>0.0</speed>
  <fix>3d</fix>
</trkpt>
<trkpt lat="33.810313" lon="-118.3938669">
  <ele>0.098</ele>
  <time>2026-09-01T01:17:54Z</time>
  <course>215.03</course>
  <speed>0.0</speed>
  <fix>3d</fix>
</trkpt>
<trkpt lat="33.810313" lon="-118.3938669">
  <ele>0.12</ele>
  <time>2026-09-01T01:17:54Z</time>
  <course>0.0</course>
  <speed>0.0</speed>
  <fix>3d</fix>
</trkpt>
<trkpt lat="33.810313" lon="-118.3938669">
  <ele>0.094</ele>
  <time>2026-09-01T01:17:54Z</time>
  <course>215.03</course>
  <speed>0.0</speed>
  <fix>3d</fix>
</trkpt>
<trkpt lat="33.810313" lon="-118.3938669">
  <ele>0.12</ele>
  <time>2026-09-01T01:17:54Z</time>
  <course>0.0</course>
  <speed>0.0</speed>
  <fix>3d</fix>
</trkpt>
<trkpt lat="33.810313" lon="-118.3938669">
  <ele>0.093</ele>
  <time>2026-09-01T01:17:54Z</time>
  <course>215.03</course>
  <speed>0.0</speed>
  <fix>3d</fix>
</trkpt>
<trkpt lat="33.810313" lon="-118.3938669">
  <ele>0.12</ele>
  <time>2026-09-01T01:17:54Z</time>
  <course>0.0</course>
  <speed>0.0</speed>
  <fix>3d</fix>
</trkpt>
<trkpt lat="33.810313" lon="-118.3938669">
  <ele>0.093</ele>
  <time>2026-09-01T01:17:54Z</time>
  <course>215.03</course>
  <speed>0.0</speed>
  <fix>3d</fix>
</trkpt>
<trkpt lat="33.810313" lon="-118.3938669">
  <ele>0.12</ele>
  <time>2026-09-01T01:17:54Z</time>
  <course>0.0</course>
  <speed>0.0</speed>
  <fix>3d</fix>
</trkpt>
<trkpt lat="33.810313" lon="-118.3938669">
  <ele>0.093</ele>
  <time>2026-09-01T01:17:54Z</time>
  <course>215.03</course>
  <speed>0.0</speed>
  <fix>3d</fix>
</trkpt>
<trkpt lat="33.810313" lon="-118.3938669">
  <ele>0.12</ele>
  <time>2026-09-01T01:17:54Z</time>
  <course>0.0</course>
  <speed>0.0</speed>
  <fix>3d</fix>
</trkpt>
<trkpt lat="33.810313" lon="-118.3938669">
  <ele>0.096</ele>
  <time>2026-09-01T01:17:54Z</time>
  <course>215.03</course>
  <speed>0.0</speed>
  <fix>3d</fix>
</trkpt>
<trkpt lat="33.810313" lon="-118.3938669">
  <ele>0.12</ele>
  <time>2026-09-01T01:17:54Z</time>
  <course>0.0</course>
  <speed>0.0</speed>
  <fix>3d</fix>
</trkpt>
<trkpt lat="33.810313" lon="-118.3938669">
  <ele>0.097</ele>
  <time>2026-09-01T01:17:54Z</time>
  <course>215.03</course>
  <speed>0.01</speed>
  <fix>3d</fix>
</trkpt>
<trkpt lat="33.810313" lon="-118.3938669">
  <ele>0.13</ele>
  <time>2026-09-01T01:17:54Z</time>
  <course>0.0</course>
  <speed>0.0</speed>
  <fix>3d</fix>
</trkpt>
<trkpt lat="33.810313" lon="-118.3938669">
  <ele>0.1</ele>
  <time>2026-09-01T01:17:54Z</time>
  <course>215.03</course>
  <speed>0.01</speed>
  <fix>3d</fix>
</trkpt>
<trkpt lat="33.810313" lon="-118.3938669">
  <ele>0.13</ele>
  <time>2026-09-01T01:17:54Z</time>
  <course>0.0</course>
  <speed>0.0</speed>
  <fix>3d</fix>
</trkpt>
<trkpt lat="33.810313" lon="-118.3938669">
  <ele>0.103</ele>
  <time>2026-09-01T01:17:54Z</time>
  <course>215.03</course>
  <speed>0.01</speed>
  <fix>3d</fix>
</trkpt>
<trkpt lat="33.810313" lon="-118.3938669">
  <ele>0.12</ele>
  <time>2026-09-01T01:17:54Z</time>
  <course>0.0</course>
  <speed>0.0</speed>
  <fix>3d</fix>
</trkpt>
<trkpt lat="33.810313" lon="-118.3938669">
  <ele>0.107</ele>
  <time>2026-09-01T01:17:54Z</time>
  <course>215.03</course>
  <speed>0.01</speed>
  <fix>3d</fix>
</trkpt>
<trkpt lat="33.810313" lon="-118.3938669">
  <ele>0.12</ele>
  <time>2026-09-01T01:17:54Z</time>
  <course>0.0</course>
  <speed>0.0</speed>
  <fix>3d</fix>
</trkpt>
<trkpt lat="33.810313" lon="-118.3938669">
  <ele>0.111</ele>
  <time>2026-09-01T01:17:54Z</time>
  <course>215.03</course>
  <speed>0.01</speed>
  <fix>3d</fix>
</trkpt>
<trkpt lat="33.810313" lon="-118.3938669">
  <ele>0.12</ele>
  <time>2026-09-01T01:17:54Z</time>
  <course>0.0</course>
  <speed>0.0</speed>
  <fix>3d</fix>
</trkpt>
<trkpt lat="33.810313" lon="-118.3938669">
  <ele>0.114</ele>
  <time>2026-09-01T01:17:54Z</time>
  <course>215.03</course>
  <speed>0.01</speed>
  <fix>3d</fix>
</trkpt>
<trkpt lat="33.810313" lon="-118.3938669">
  <ele>0.12</ele>
  <time>2026-09-01T01:17:54Z</time>
  <course>0.0</course>
  <speed>0.0</speed>
  <fix>3d</fix>
</trkpt>
<trkpt lat="33.810313" lon="-118.3938669">
  <ele>0.115</ele>
  <time>2026-09-01T01:17:54Z</time>
  <course>215.03</course>
  <speed>0.01</speed>
  <fix>3d</fix>
</trkpt>
<trkpt lat="33.810313" lon="-118.3938669">
  <ele>0.12</ele>
  <time>2026-09-01T01:17:54Z</time>
  <course>0.0</course>
  <speed>0.0</speed>
  <fix>3d</fix>
</trkpt>
<trkpt lat="33.810313" lon="-118.3938669">
  <ele>0.114</ele>
  <time>2026-09-01T01:17:54Z</time>
  <course>215.03</course>
  <speed>0.01</speed>
  <fix>3d</fix>
</trkpt>
<trkpt lat="33.810313" lon="-118.3938669">
  <ele>0.12</ele>
  <time>2026-09-01T01:17:54Z</time>
  <course>0.0</course>
  <speed>0.0</speed>
  <fix>3d</fix>
</trkpt>
<trkpt lat="33.810313" lon="-118.3938669">
  <ele>0.112</ele>
  <time>2026-09-01T01:17:54Z</time>
  <course>215.03</course>
  <speed>0.01</speed>
  <fix>3d</fix>
</trkpt>
<trkpt lat="33.810313" lon="-118.3938669">
  <ele>0.12</ele>
  <time>2026-09-01T01:17:54Z</time>
  <course>0.0</course>
  <speed>0.0</speed>
  <fix>3d</fix>
</trkpt>
<trkpt lat="33.810313" lon="-118.3938669">
  <ele>0.108</ele>
  <time>2026-09-01T01:17:54Z</time>
  <course>215.03</course>
  <speed>0.01</speed>
  <fix>3d</fix>
</trkpt>
<trkpt lat="33.810313" lon="-118.3938669">
  <ele>0.12</ele>
  <time>2026-09-01T01:17:54Z</time>
  <course>0.0</course>
  <speed>0.0</speed>
  <fix>3d</fix>
</trkpt>
<trkpt lat="33.810313" lon="-118.3938669">
  <ele>0.106</ele>
  <time>2026-09-01T01:17:54Z</time>
  <course>215.03</course>
  <speed>0.01</speed>
  <fix>3d</fix>
</trkpt>
<trkpt lat="33.810313" lon="-118.3938669">
  <ele>0.12</ele>
  <time>2026-09-01T01:17:54Z</time>
  <course>0.0</course>
  <speed>0.0</speed>
  <fix>3d</fix>
</trkpt>
<trkpt lat="33.810313" lon="-118.3938669">
  <ele>0.104</ele>
  <time>2026-09-01T01:17:54Z</time>
  <course>215.03</course>
  <speed>0.01</speed>
  <fix>3d</fix>
</trkpt>
<trkpt lat="33.810313" lon="-118.3938669">
  <ele>0.12</ele>
  <time>2026-09-01T01:17:54Z</time>
  <course>0.0</course>
  <speed>0.0</speed>
  <fix>3d</fix>
</trkpt>
<trkpt lat="33.810313" lon="-118.3938669">
  <ele>0.103</ele>
  <time>2026-09-01T01:17:54Z</time>
  <course>215.03</course>
  <speed>0.01</speed>
  <fix>3d</fix>
</trkpt>
<trkpt lat="33.810313" lon="-118.3938669">
  <ele>0.12</ele>
  <time>2026-09-01T01:17:54Z</time>
  <course>0.0</course>
  <speed>0.0</speed>
  <fix>3d</fix>
</trkpt>
<trkpt lat="33.810313" lon="-118.3938669">
  <ele>0.102</ele>
  <time>2026-09-01T01:17:54Z</time>
  <course>215.03</course>
  <speed>0.01</speed>
  <fix>3d</fix>
</trkpt>
<trkpt lat="33.810313" lon="-118.3938669">
  <ele>0.12</ele>
  <time>2026-09-01T01:17:54Z</time>
  <course>0.0</course>
  <speed>0.0</speed>
  <fix>3d</fix>
</trkpt>
<trkpt lat="33.810313" lon="-118.3938669">
  <ele>0.101</ele>
  <time>2026-09-01T01:17:54Z</time>
  <course>215.03</course>
  <speed>0.01</speed>
  <fix>3d</fix>
</trkpt>
<trkpt lat="33.810313" lon="-118.3938669">
  <ele>0.13</ele>
  <time>2026-09-01T01:17:54Z</time>
  <course>0.0</course>
  <speed>0.0</speed>
  <fix>3d</fix>
</trkpt>
<trkpt lat="33.810313" lon="-118.3938669">
  <ele>0.1</ele>
  <time>2026-09-01T01:17:54Z</time>
  <course>215.03</course>
  <speed>0.01</speed>
  <fix>3d</fix>
</trkpt>
<trkpt lat="33.810313" lon="-118.3938669">
  <ele>0.13</ele>
  <time>2026-09-01T01:17:54Z</time>
  <course>0.0</course>
  <speed>0.0</speed>
  <fix>3d</fix>
</trkpt>
<trkpt lat="33.810313" lon="-118.3938669">
  <ele>0.1</ele>
  <time>2026-09-01T01:17:54Z</time>
  <course>215.03</course>
  <speed>0.01</speed>
  <fix>3d</fix>
</trkpt>
<trkpt lat="33.810313" lon="-118.3938669">
  <ele>0.12</ele>
  <time>2026-09-01T01:17:54Z</time>
  <course>0.0</course>
  <speed>0.0</speed>
  <fix>3d</fix>
</trkpt>
<trkpt lat="33.810313" lon="-118.3938669">
  <ele>0.102</ele>
  <time>2026-09-01T01:17:54Z</time>
  <course>215.03</course>
  <speed>0.01</speed>
  <fix>3d</fix>
</trkpt>
<trkpt lat="33.810313" lon="-118.3938669">
  <ele>0.12</ele>
  <time>2026-09-01T01:17:54Z</time>
  <course>0.0</course>
  <speed>0.0</speed>
  <fix>3d</fix>
</trkpt>
<trkpt lat="33.810313" lon="-118.3938669">
  <ele>0.102</ele>
  <time>2026-09-01T01:17:54Z</time>
  <course>215.03</course>
  <speed>0.01</speed>
  <fix>3d</fix>
</trkpt>
<trkpt lat="33.810313" lon="-118.3938669">
  <ele>0.12</ele>
  <time>2026-09-01T01:17:54Z</time>
  <course>0.0</course>
  <speed>0.0</speed>
  <fix>3d</fix>
</trkpt>
<trkpt lat="33.810313" lon="-118.3938669">
  <ele>0.101</ele>
  <time>2026-09-01T01:17:54Z</time>
  <course>215.03</course>
  <speed>0.01</speed>
  <fix>3d</fix>
</trkpt>
<trkpt lat="33.810313" lon="-118.3938669">
  <ele>0.12</ele>
  <time>2026-09-01T01:17:54Z</time>
  <course>0.0</course>
  <speed>0.0</speed>
  <fix>3d</fix>
</trkpt>
<trkpt lat="33.810313" lon="-118.3938669">
  <ele>0.099</ele>
  <time>2026-09-01T01:17:54Z</time>
  <course>215.03</course>
  <speed>0.01</speed>
  <fix>3d</fix>
</trkpt>
<trkpt lat="33.810313" lon="-118.3938669">
  <ele>0.12</ele>
  <time>2026-09-01T01:17:54Z</time>
  <course>0.0</course>
  <speed>0.0</speed>
  <fix>3d</fix>
</trkpt>
<trkpt lat="33.810313" lon="-118.3938669">
  <ele>0.095</ele>
  <time>2026-09-01T01:17:54Z</time>
  <course>215.03</course>
  <speed>0.01</speed>
  <fix>3d</fix>
</trkpt>
<trkpt lat="33.810313" lon="-118.3938669">
  <ele>0.12</ele>
  <time>2026-09-01T01:17:54Z</time>
  <course>0.0</course>
  <speed>0.0</speed>
  <fix>3d</fix>
</trkpt>
<trkpt lat="33.810313" lon="-118.3938669">
  <ele>0.091</ele>
  <time>2026-09-01T01:17:54Z</time>
  <course>215.03</course>
  <speed>0.01</speed>
  <fix>3d</fix>
</trkpt>
<trkpt lat="33.810313" lon="-118.3938669">
  <ele>0.12</ele>
  <time>2026-09-01T01:17:54Z</time>
  <course>0.0</course>
  <speed>0.0</speed>
  <fix>3d</fix>
</trkpt>
<trkpt lat="33.810313" lon="-118.3938669">
  <ele>0.088</ele>
  <time>2026-09-01T01:17:54Z</time>
  <course>215.03</course>
  <speed>0.01</speed>
  <fix>3d</fix>
</trkpt>
<trkpt lat="33.810313" lon="-118.3938669">
  <ele>0.12</ele>
  <time>2026-09-01T01:17:54Z</time>
  <course>0.0</course>
  <speed>0.0</speed>
  <fix>3d</fix>
</trkpt>
<trkpt lat="33.810313" lon="-118.3938669">
  <ele>0.087</ele>
  <time>2026-09-01T01:17:54Z</time>
  <course>215.03</course>
  <speed>0.01</speed>
  <fix>3d</fix>
</trkpt>
<trkpt lat="33.810313" lon="-118.3938669">
  <ele>0.12</ele>
  <time>2026-09-01T01:17:54Z</time>
  <course>0.0</course>
  <speed>0.0</speed>
  <fix>3d</fix>
</trkpt>
<trkpt lat="33.810313" lon="-118.3938669">
  <ele>0.087</ele>
  <time>2026-09-01T01:17:54Z</time>
  <course>215.03</course>
  <speed>0.01</speed>
  <fix>3d</fix>
</trkpt>
<trkpt lat="33.810313" lon="-118.3938669">
  <ele>0.12</ele>
  <time>2026-09-01T01:17:54Z</time>
  <course>0.0</course>
  <speed>0.0</speed>
  <fix>3d</fix>
</trkpt>
<trkpt lat="33.810313" lon="-118.3938669">
  <ele>0.087</ele>
  <time>2026-09-01T01:17:54Z</time>
  <course>215.03</course>
  <speed>0.01</speed>
  <fix>3d</fix>
</trkpt>
<trkpt lat="33.810313" lon="-118.3938669">
  <ele>0.12</ele>
  <time>2026-09-01T01:17:54Z</time>
  <course>0.0</course>
  <speed>0.0</speed>
  <fix>3d</fix>
</trkpt>
<trkpt lat="33.810313" lon="-118.3938669">
  <ele>0.088</ele>
  <time>2026-09-01T01:17:54Z</time>
  <course>215.03</course>
  <speed>0.01</speed>
  <fix>3d</fix>
</trkpt>
<trkpt lat="33.810313" lon="-118.3938669">
  <ele>0.12</ele>
  <time>2026-09-01T01:17:54Z</time>
  <course>0.0</course>
  <speed>0.0</speed>
  <fix>3d</fix>
</trkpt>
<trkpt lat="33.810313" lon="-118.3938669">
  <ele>0.091</ele>
  <time>2026-09-01T01:17:54Z</time>
  <course>215.03</course>
  <speed>0.01</speed>
  <fix>3d</fix>
</trkpt>
<trkpt lat="33.810313" lon="-118.3938669">
  <ele>0.12</ele>
  <time>2026-09-01T01:17:54Z</time>
  <course>0.0</course>
  <speed>0.0</speed>
  <fix>3d</fix>
</trkpt>
<trkpt lat="33.810313" lon="-118.3938669">
  <ele>0.094</ele>
  <time>2026-09-01T01:17:54Z</time>
  <course>215.03</course>
  <speed>0.01</speed>
  <fix>3d</fix>
</trkpt>
<trkpt lat="33.810313" lon="-118.3938669">
  <ele>0.12</ele>
  <time>2026-09-01T01:17:54Z</time>
  <course>0.0</course>
  <speed>0.0</speed>
  <fix>3d</fix>
</trkpt>
<trkpt lat="33.810313" lon="-118.3938669">
  <ele>0.097</ele>
  <time>2026-09-01T01:17:54Z</time>
  <course>215.04</course>
  <speed>0.01</speed>
  <fix>3d</fix>
</trkpt>
<trkpt lat="33.810313" lon="-118.3938669">
  <ele>0.12</ele>
  <time>2026-09-01T01:17:54Z</time>
  <course>0.0</course>
  <speed>0.0</speed>
  <fix>3d</fix>
</trkpt>
<trkpt lat="33.810313" lon="-118.3938669">
  <ele>0.1</ele>
  <time>2026-09-01T01:17:54Z</time>
  <course>215.04</course>
  <speed>0.01</speed>
  <fix>3d</fix>
</trkpt>
<trkpt lat="33.810313" lon="-118.3938669">
  <ele>0.12</ele>
  <time>2026-09-01T01:17:54Z</time>
  <course>0.0</course>
  <speed>0.0</speed>
  <fix>3d</fix>
</trkpt>
<trkpt lat="33.810313" lon="-118.3938669">
  <ele>0.102</ele>
  <time>2026-09-01T01:17:54Z</time>
  <course>215.04</course>
  <speed>0.01</speed>
  <fix>3d</fix>
</trkpt>
<trkpt lat="33.810313" lon="-118.3938669">
  <ele>0.12</ele>
  <time>2026-09-01T01:17:54Z</time>
  <course>0.0</course>
  <speed>0.0</speed>
  <fix>3d</fix>
</trkpt>
<trkpt lat="33.810313" lon="-118.3938669">
  <ele>0.103</ele>
  <time>2026-09-01T01:17:54Z</time>
  <course>215.04</course>
  <speed>0.01</speed>
  <fix>3d</fix>
</trkpt>
<trkpt lat="33.810313" lon="-118.3938669">
  <ele>0.12</ele>
  <time>2026-09-01T01:17:54Z</time>
  <course>0.0</course>
  <speed>0.0</speed>
  <fix>3d</fix>
</trkpt>
<trkpt lat="33.810313" lon="-118.3938669">
  <ele>0.103</ele>
  <time>2026-09-01T01:17:54Z</time>
  <course>215.04</course>
  <speed>0.01</speed>
  <fix>3d</fix>
</trkpt>
<trkpt lat="33.810313" lon="-118.3938669">
  <ele>0.12</ele>
  <time>2026-09-01T01:17:54Z</time>
  <course>0.0</course>
  <speed>0.0</speed>
  <fix>3d</fix>
</trkpt>
<trkpt lat="33.810313" lon="-118.3938669">
  <ele>0.102</ele>
  <time>2026-09-01T01:17:54Z</time>
  <course>215.04</course>
  <speed>0.01</speed>
  <fix>3d</fix>
</trkpt>
<trkpt lat="33.810313" lon="-118.3938669">
  <ele>0.12</ele>
  <time>2026-09-01T01:17:54Z</time>
  <course>0.0</course>
  <speed>0.0</speed>
  <fix>3d</fix>
</trkpt>
<trkpt lat="33.810313" lon="-118.3938669">
  <ele>0.102</ele>
  <time>2026-09-01T01:17:54Z</time>
  <course>215.04</course>
  <speed>0.01</speed>
  <fix>3d</fix>
</trkpt>
<trkpt lat="33.810313" lon="-118.3938669">
  <ele>0.12</ele>
  <time>2026-09-01T01:17:54Z</time>
  <course>0.0</course>
  <speed>0.0</speed>
  <fix>3d</fix>
</trkpt>
<trkpt lat="33.810313" lon="-118.3938669">
  <ele>0.102</ele>
  <time>2026-09-01T01:17:54Z</time>
  <course>215.04</course>
  <speed>0.01</speed>
  <fix>3d</fix>
</trkpt>
<trkpt lat="33.810313" lon="-118.3938669">
  <ele>0.12</ele>
  <time>2026-09-01T01:17:54Z</time>
  <course>0.0</course>
  <speed>0.0</speed>
  <fix>3d</fix>
</trkpt>
<trkpt lat="33.810313" lon="-118.3938669">
  <ele>0.102</ele>
  <time>2026-09-01T01:17:54Z</time>
  <course>215.04</course>
  <speed>0.01</speed>
  <fix>3d</fix>
</trkpt>
<trkpt lat="33.810313" lon="-118.3938669">
  <ele>0.12</ele>
  <time>2026-09-01T01:17:54Z</time>
  <course>0.0</course>
  <speed>0.0</speed>
  <fix>3d</fix>
</trkpt>
<trkpt lat="33.810313" lon="-118.3938669">
  <ele>0.103</ele>
  <time>2026-09-01T01:17:54Z</time>
  <course>215.04</course>
  <speed>0.01</speed>
  <fix>3d</fix>
</trkpt>
<trkpt lat="33.810313" lon="-118.3938669">
  <ele>0.12</ele>
  <time>2026-09-01T01:17:54Z</time>
  <course>0.0</course>
  <speed>0.0</speed>
  <fix>3d</fix>
</trkpt>
<trkpt lat="33.810313" lon="-118.3938669">
  <ele>0.104</ele>
  <time>2026-09-01T01:17:54Z</time>
  <course>215.04</course>
  <speed>0.01</speed>
  <fix>3d</fix>
</trkpt>
<trkpt lat="33.810313" lon="-118.3938669">
  <ele>0.12</ele>
  <time>2026-09-01T01:17:54Z</time>
  <course>0.0</course>
  <speed>0.0</speed>
  <fix>3d</fix>
</trkpt>
<trkpt lat="33.810313" lon="-118.3938669">
  <ele>0.106</ele>
  <time>2026-09-01T01:17:54Z</time>
  <course>215.04</course>
  <speed>0.01</speed>
  <fix>3d</fix>
</trkpt>
<trkpt lat="33.810313" lon="-118.3938669">
  <ele>0.12</ele>
  <time>2026-09-01T01:17:54Z</time>
  <course>0.0</course>
  <speed>0.0</speed>
  <fix>3d</fix>
</trkpt>
<trkpt lat="33.810313" lon="-118.3938669">
  <ele>0.108</ele>
  <time>2026-09-01T01:17:54Z</time>
  <course>215.04</course>
  <speed>0.01</speed>
  <fix>3d</fix>
</trkpt>
<trkpt lat="33.810313" lon="-118.3938669">
  <ele>0.12</ele>
  <time>2026-09-01T01:17:54Z</time>
  <course>0.0</course>
  <speed>0.0</speed>
  <fix>3d</fix>
</trkpt>
<trkpt lat="33.810313" lon="-118.3938669">
  <ele>0.111</ele>
  <time>2026-09-01T01:17:54Z</time>
  <course>215.04</course>
  <speed>0.01</speed>
  <fix>3d</fix>
</trkpt>
<trkpt lat="33.810313" lon="-118.3938669">
  <ele>0.12</ele>
  <time>2026-09-01T01:17:54Z</time>
  <course>0.0</course>
  <speed>0.0</speed>
  <fix>3d</fix>
</trkpt>
<trkpt lat="33.810313" lon="-118.3938669">
  <ele>0.114</ele>
  <time>2026-09-01T01:17:54Z</time>
  <course>215.04</course>
  <speed>0.01</speed>
  <fix>3d</fix>
</trkpt>
<trkpt lat="33.810313" lon="-118.3938669">
  <ele>0.12</ele>
  <time>2026-09-01T01:17:54Z</time>
  <course>0.0</course>
  <speed>0.0</speed>
  <fix>3d</fix>
</trkpt>
<trkpt lat="33.810313" lon="-118.3938669">
  <ele>0.115</ele>
  <time>2026-09-01T01:17:54Z</time>
  <course>215.04</course>
  <speed>0.02</speed>
  <fix>3d</fix>
</trkpt>
<trkpt lat="33.810313" lon="-118.3938669">
  <ele>0.12</ele>
  <time>2026-09-01T01:17:54Z</time>
  <course>0.0</course>
  <speed>0.0</speed>
  <fix>3d</fix>
</trkpt>
<trkpt lat="33.810313" lon="-118.3938669">
  <ele>0.114</ele>
  <time>2026-09-01T01:17:54Z</time>
  <course>215.04</course>
  <speed>0.02</speed>
  <fix>3d</fix>
</trkpt>
<trkpt lat="33.810313" lon="-118.3938669">
  <ele>0.12</ele>
  <time>2026-09-01T01:17:54Z</time>
  <course>0.0</course>
  <speed>0.0</speed>
  <fix>3d</fix>
</trkpt>
<trkpt lat="33.810313" lon="-118.3938669">
  <ele>0.113</ele>
  <time>2026-09-01T01:17:54Z</time>
  <course>215.04</course>
  <speed>0.02</speed>
  <fix>3d</fix>
</trkpt>
<trkpt lat="33.810313" lon="-118.3938669">
  <ele>0.12</ele>
  <time>2026-09-01T01:17:54Z</time>
  <course>0.0</course>
  <speed>0.0</speed>
  <fix>3d</fix>
</trkpt>
<trkpt lat="33.810313" lon="-118.3938669">
  <ele>0.111</ele>
  <time>2026-09-01T01:17:54Z</time>
  <course>215.04</course>
  <speed>0.02</speed>
  <fix>3d</fix>
</trkpt>
<trkpt lat="33.810313" lon="-118.3938669">
  <ele>0.12</ele>
  <time>2026-09-01T01:17:54Z</time>
  <course>0.0</course>
  <speed>0.0</speed>
  <fix>3d</fix>
</trkpt>
<trkpt lat="33.810313" lon="-118.3938669">
  <ele>0.11</ele>
  <time>2026-09-01T01:17:54Z</time>
  <course>215.04</course>
  <speed>0.02</speed>
  <fix>3d</fix>
</trkpt>
<trkpt lat="33.810313" lon="-118.3938669">
  <ele>0.12</ele>
  <time>2026-09-01T01:17:54Z</time>
  <course>0.0</course>
  <speed>0.0</speed>
  <fix>3d</fix>
</trkpt>
<trkpt lat="33.810313" lon="-118.3938669">
  <ele>0.108</ele>
  <time>2026-09-01T01:17:54Z</time>
  <course>215.04</course>
  <speed>0.02</speed>
  <fix>3d</fix>
</trkpt>
<trkpt lat="33.810313" lon="-118.3938669">
  <ele>0.12</ele>
  <time>2026-09-01T01:17:54Z</time>
  <course>0.0</course>
  <speed>0.0</speed>
  <fix>3d</fix>
</trkpt>
<trkpt lat="33.810313" lon="-118.3938669">
  <ele>0.107</ele>
  <time>2026-09-01T01:17:54Z</time>
  <course>215.04</course>
  <speed>0.02</speed>
  <fix>3d</fix>
</trkpt>
<trkpt lat="33.810313" lon="-118.3938669">
  <ele>0.12</ele>
  <time>2026-09-01T01:17:54Z</time>
  <course>0.0</course>
  <speed>0.0</speed>
  <fix>3d</fix>
</trkpt>
<trkpt lat="33.810313" lon="-118.3938669">
  <ele>0.107</ele>
  <time>2026-09-01T01:17:54Z</time>
  <course>215.04</course>
  <speed>0.02</speed>
  <fix>3d</fix>
</trkpt>
<trkpt lat="33.810313" lon="-118.3938669">
  <ele>0.12</ele>
  <time>2026-09-01T01:17:54Z</time>
  <course>0.0</course>
  <speed>0.0</speed>
  <fix>3d</fix>
</trkpt>
<trkpt lat="33.810313" lon="-118.3938669">
  <ele>0.107</ele>
  <time>2026-09-01T01:17:54Z</time>
  <course>215.04</course>
  <speed>0.02</speed>
  <fix>3d</fix>
</trkpt>
<trkpt lat="33.810313" lon="-118.3938669">
  <ele>0.12</ele>
  <time>2026-09-01T01:17:54Z</time>
  <course>0.0</course>
  <speed>0.0</speed>
  <fix>3d</fix>
</trkpt>
<trkpt lat="33.810313" lon="-118.3938669">
  <ele>0.108</ele>
  <time>2026-09-01T01:17:54Z</time>
  <course>215.04</course>
  <speed>0.02</speed>
  <fix>3d</fix>
</trkpt>
<trkpt lat="33.810313" lon="-118.3938669">
  <ele>0.12</ele>
  <time>2026-09-01T01:17:54Z</time>
  <course>0.0</course>
  <speed>0.0</speed>
  <fix>3d</fix>
</trkpt>
<trkpt lat="33.810313" lon="-118.3938669">
  <ele>0.11</ele>
  <time>2026-09-01T01:17:54Z</time>
  <course>215.04</course>
  <speed>0.02</speed>
  <fix>3d</fix>
</trkpt>
<trkpt lat="33.810313" lon="-118.3938669">
  <ele>0.12</ele>
  <time>2026-09-01T01:17:54Z</time>
  <course>0.0</course>
  <speed>0.0</speed>
  <fix>3d</fix>
</trkpt>
<trkpt lat="33.810313" lon="-118.3938669">
  <ele>0.11</ele>
  <time>2026-09-01T01:17:54Z</time>
  <course>215.04</course>
  <speed>0.02</speed>
  <fix>3d</fix>
</trkpt>
<trkpt lat="33.810313" lon="-118.3938669">
  <ele>0.12</ele>
  <time>2026-09-01T01:17:54Z</time>
  <course>0.0</course>
  <speed>0.0</speed>
  <fix>3d</fix>
</trkpt>
<trkpt lat="33.810313" lon="-118.3938669">
  <ele>0.109</ele>
  <time>2026-09-01T01:17:54Z</time>
  <course>215.04</course>
  <speed>0.02</speed>
  <fix>3d</fix>
</trkpt>
<trkpt lat="33.810313" lon="-118.3938669">
  <ele>0.12</ele>
  <time>2026-09-01T01:17:54Z</time>
  <course>0.0</course>
  <speed>0.0</speed>
  <fix>3d</fix>
</trkpt>
<trkpt lat="33.810313" lon="-118.3938669">
  <ele>0.106</ele>
  <time>2026-09-01T01:17:54Z</time>
  <course>215.04</course>
  <speed>0.02</speed>
  <fix>3d</fix>
</trkpt>
<trkpt lat="33.810313" lon="-118.3938669">
  <ele>0.12</ele>
  <time>2026-09-01T01:17:54Z</time>
  <course>0.0</course>
  <speed>0.0</speed>
  <fix>3d</fix>
</trkpt>
<trkpt lat="33.810313" lon="-118.3938669">
  <ele>0.102</ele>
  <time>2026-09-01T01:17:54Z</time>
  <course>215.04</course>
  <speed>0.02</speed>
  <fix>3d</fix>
</trkpt>
<trkpt lat="33.810313" lon="-118.3938669">
  <ele>0.12</ele>
  <time>2026-09-01T01:17:54Z</time>
  <course>0.0</course>
  <speed>0.0</speed>
  <fix>3d</fix>
</trkpt>
<trkpt lat="33.810313" lon="-118.3938669">
  <ele>0.1</ele>
  <time>2026-09-01T01:17:54Z</time>
  <course>215.04</course>
  <speed>0.02</speed>
  <fix>3d</fix>
</trkpt>
<trkpt lat="33.810313" lon="-118.3938669">
  <ele>0.12</ele>
  <time>2026-09-01T01:17:54Z</time>
  <course>0.0</course>
  <speed>0.0</speed>
  <fix>3d</fix>
</trkpt>
<trkpt lat="33.810313" lon="-118.3938669">
  <ele>0.098</ele>
  <time>2026-09-01T01:17:54Z</time>
  <course>215.04</course>
  <speed>0.02</speed>
  <fix>3d</fix>
</trkpt>
<trkpt lat="33.810313" lon="-118.3938669">
  <ele>0.12</ele>
  <time>2026-09-01T01:17:54Z</time>
  <course>0.0</course>
  <speed>0.0</speed>
  <fix>3d</fix>
</trkpt>
<trkpt lat="33.810313" lon="-118.3938669">
  <ele>0.097</ele>
  <time>2026-09-01T01:17:54Z</time>
  <course>215.04</course>
  <speed>0.02</speed>
  <fix>3d</fix>
</trkpt>
<trkpt lat="33.810313" lon="-118.3938669">
  <ele>0.12</ele>
  <time>2026-09-01T01:17:54Z</time>
  <course>0.0</course>
  <speed>0.0</speed>
  <fix>3d</fix>
</trkpt>
<trkpt lat="33.810313" lon="-118.3938669">
  <ele>0.096</ele>
  <time>2026-09-01T01:17:54Z</time>
  <course>215.04</course>
  <speed>0.02</speed>
  <fix>3d</fix>
</trkpt>
<trkpt lat="33.810313" lon="-118.3938669">
  <ele>0.12</ele>
  <time>2026-09-01T01:17:54Z</time>
  <course>0.0</course>
  <speed>0.0</speed>
  <fix>3d</fix>
</trkpt>
<trkpt lat="33.810313" lon="-118.3938669">
  <ele>0.096</ele>
  <time>2026-09-01T01:17:54Z</time>
  <course>215.04</course>
  <speed>0.02</speed>
  <fix>3d</fix>
</trkpt>
<trkpt lat="33.810313" lon="-118.3938669">
  <ele>0.12</ele>
  <time>2026-09-01T01:17:54Z</time>
  <course>0.0</course>
  <speed>0.0</speed>
  <fix>3d</fix>
</trkpt>
<trkpt lat="33.810313" lon="-118.3938669">
  <ele>0.096</ele>
  <time>2026-09-01T01:17:54Z</time>
  <course>215.04</course>
  <speed>0.02</speed>
  <fix>3d</fix>
</trkpt>
<trkpt lat="33.810313" lon="-118.3938669">
  <ele>0.12</ele>
  <time>2026-09-01T01:17:54Z</time>
  <course>0.0</course>
  <speed>0.0</speed>
  <fix>3d</fix>
</trkpt>
<trkpt lat="33.810313" lon="-118.3938669">
  <ele>0.097</ele>
  <time>2026-09-01T01:17:54Z</time>
  <course>215.05</course>
  <speed>0.02</speed>
  <fix>3d</fix>
</trkpt>
<trkpt lat="33.810313" lon="-118.3938669">
  <ele>0.12</ele>
  <time>2026-09-01T01:17:54Z</time>
  <course>0.0</course>
  <speed>0.0</speed>
  <fix>3d</fix>
</trkpt>
<trkpt lat="33.810313" lon="-118.3938669">
  <ele>0.098</ele>
  <time>2026-09-01T01:17:54Z</time>
  <course>215.05</course>
  <speed>0.02</speed>
  <fix>3d</fix>
</trkpt>
<trkpt lat="33.810313" lon="-118.3938669">
  <ele>0.12</ele>
  <time>2026-09-01T01:17:54Z</time>
  <course>0.0</course>
  <speed>0.0</speed>
  <fix>3d</fix>
</trkpt>
<trkpt lat="33.810313" lon="-118.3938669">
  <ele>0.098</ele>
  <time>2026-09-01T01:17:54Z</time>
  <course>215.05</course>
  <speed>0.02</speed>
  <fix>3d</fix>
</trkpt>
<trkpt lat="33.810313" lon="-118.3938669">
  <ele>0.12</ele>
  <time>2026-09-01T01:17:54Z</time>
  <course>0.0</course>
  <speed>0.0</speed>
  <fix>3d</fix>
</trkpt>
<trkpt lat="33.810313" lon="-118.3938669">
  <ele>0.098</ele>
  <time>2026-09-01T01:17:54Z</time>
  <course>215.05</course>
  <speed>0.02</speed>
  <fix>3d</fix>
</trkpt>
<trkpt lat="33.810313" lon="-118.3938669">
  <ele>0.12</ele>
  <time>2026-09-01T01:17:54Z</time>
  <course>0.0</course>
  <speed>0.0</speed>
  <fix>3d</fix>
</trkpt>
<trkpt lat="33.810313" lon="-118.3938669">
  <ele>0.097</ele>
  <time>2026-09-01T01:17:54Z</time>
  <course>215.05</course>
  <speed>0.02</speed>
  <fix>3d</fix>
</trkpt>
<trkpt lat="33.810313" lon="-118.3938669">
  <ele>0.12</ele>
  <time>2026-09-01T01:17:54Z</time>
  <course>0.0</course>
  <speed>0.0</speed>
  <fix>3d</fix>
</trkpt>
<trkpt lat="33.810313" lon="-118.3938669">
  <ele>0.095</ele>
  <time>2026-09-01T01:17:54Z</time>
  <course>215.05</course>
  <speed>0.02</speed>
  <fix>3d</fix>
</trkpt>
<trkpt lat="33.810313" lon="-118.3938669">
  <ele>0.12</ele>
  <time>2026-09-01T01:17:54Z</time>
  <course>0.0</course>
  <speed>0.0</speed>
  <fix>3d</fix>
</trkpt>
<trkpt lat="33.810313" lon="-118.3938669">
  <ele>0.094</ele>
  <time>2026-09-01T01:17:54Z</time>
  <course>215.05</course>
  <speed>0.02</speed>
  <fix>3d</fix>
</trkpt>
<trkpt lat="33.810313" lon="-118.3938669">
  <ele>0.12</ele>
  <time>2026-09-01T01:17:54Z</time>
  <course>0.0</course>
  <speed>0.0</speed>
  <fix>3d</fix>
</trkpt>
<trkpt lat="33.810313" lon="-118.3938669">
  <ele>0.093</ele>
  <time>2026-09-01T01:17:54Z</time>
  <course>215.05</course>
  <speed>0.02</speed>
  <fix>3d</fix>
</trkpt>
<trkpt lat="33.810313" lon="-118.3938669">
  <ele>0.12</ele>
  <time>2026-09-01T01:17:54Z</time>
  <course>0.0</course>
  <speed>0.0</speed>
  <fix>3d</fix>
</trkpt>
<trkpt lat="33.810313" lon="-118.3938669">
  <ele>0.094</ele>
  <time>2026-09-01T01:17:54Z</time>
  <course>215.05</course>
  <speed>0.0</speed>
  <fix>3d</fix>
</trkpt>
<trkpt lat="33.810313" lon="-118.3938669">
  <ele>0.12</ele>
  <time>2026-09-01T01:17:54Z</time>
  <course>0.0</course>
  <speed>0.0</speed>
  <fix>3d</fix>
</trkpt>
<trkpt lat="33.810313" lon="-118.3938669">
  <ele>0.095</ele>
  <time>2026-09-01T01:17:54Z</time>
  <course>215.05</course>
  <speed>0.0</speed>
  <fix>3d</fix>
</trkpt>
<trkpt lat="33.810313" lon="-118.3938669">
  <ele>0.12</ele>
  <time>2026-09-01T01:17:54Z</time>
  <course>0.0</course>
  <speed>0.0</speed>
  <fix>3d</fix>
</trkpt>
<trkpt lat="33.810313" lon="-118.3938669">
  <ele>0.096</ele>
  <time>2026-09-01T01:17:54Z</time>
  <course>215.05</course>
  <speed>0.0</speed>
  <fix>3d</fix>
</trkpt>
<trkpt lat="33.810313" lon="-118.3938669">
  <ele>0.12</ele>
  <time>2026-09-01T01:17:54Z</time>
  <course>0.0</course>
  <speed>0.0</speed>
  <fix>3d</fix>
</trkpt>
<trkpt lat="33.810313" lon="-118.3938669">
  <ele>0.098</ele>
  <time>2026-09-01T01:17:54Z</time>
  <course>215.05</course>
  <speed>0.0</speed>
  <fix>3d</fix>
</trkpt>
<trkpt lat="33.810313" lon="-118.3938669">
  <ele>0.12</ele>
  <time>2026-09-01T01:17:54Z</time>
  <course>0.0</course>
  <speed>0.0</speed>
  <fix>3d</fix>
</trkpt>
<trkpt lat="33.810313" lon="-118.3938669">
  <ele>0.1</ele>
  <time>2026-09-01T01:17:54Z</time>
  <course>215.05</course>
  <speed>0.0</speed>
  <fix>3d</fix>
</trkpt>
<trkpt lat="33.810313" lon="-118.3938669">
  <ele>0.12</ele>
  <time>2026-09-01T01:17:54Z</time>
  <course>0.0</course>
  <speed>0.0</speed>
  <fix>3d</fix>
</trkpt>
<trkpt lat="33.810313" lon="-118.3938669">
  <ele>0.103</ele>
  <time>2026-09-01T01:17:54Z</time>
  <course>215.05</course>
  <speed>0.0</speed>
  <fix>3d</fix>
</trkpt>
<trkpt lat="33.810313" lon="-118.3938669">
  <ele>0.12</ele>
  <time>2026-09-01T01:17:54Z</time>
  <course>0.0</course>
  <speed>0.0</speed>
  <fix>3d</fix>
</trkpt>
<trkpt lat="33.810313" lon="-118.3938669">
  <ele>0.105</ele>
  <time>2026-09-01T01:17:54Z</time>
  <course>215.05</course>
  <speed>0.0</speed>
  <fix>3d</fix>
</trkpt>
<trkpt lat="33.810313" lon="-118.3938669">
  <ele>0.12</ele>
  <time>2026-09-01T01:17:54Z</time>
  <course>0.0</course>
  <speed>0.0</speed>
  <fix>3d</fix>
</trkpt>
<trkpt lat="33.810313" lon="-118.3938669">
  <ele>0.107</ele>
  <time>2026-09-01T01:17:54Z</time>
  <course>215.05</course>
  <speed>0.0</speed>
  <fix>3d</fix>
</trkpt>
<trkpt lat="33.810313" lon="-118.3938669">
  <ele>0.12</ele>
  <time>2026-09-01T01:17:54Z</time>
  <course>0.0</course>
  <speed>0.0</speed>
  <fix>3d</fix>
</trkpt>
<trkpt lat="33.810313" lon="-118.3938669">
  <ele>0.108</ele>
  <time>2026-09-01T01:17:54Z</time>
  <course>215.05</course>
  <speed>0.0</speed>
  <fix>3d</fix>
</trkpt>
<trkpt lat="33.810313" lon="-118.3938669">
  <ele>0.12</ele>
  <time>2026-09-01T01:17:54Z</time>
  <course>0.0</course>
  <speed>0.0</speed>
  <fix>3d</fix>
</trkpt>
<trkpt lat="33.810313" lon="-118.3938669">
  <ele>0.108</ele>
  <time>2026-09-01T01:17:54Z</time>
  <course>215.05</course>
  <speed>0.0</speed>
  <fix>3d</fix>
</trkpt>
<trkpt lat="33.810313" lon="-118.3938669">
  <ele>0.12</ele>
  <time>2026-09-01T01:17:54Z</time>
  <course>0.0</course>
  <speed>0.0</speed>
  <fix>3d</fix>
</trkpt>
<trkpt lat="33.810313" lon="-118.3938669">
  <ele>0.107</ele>
  <time>2026-09-01T01:17:54Z</time>
  <course>215.05</course>
  <speed>0.0</speed>
  <fix>3d</fix>
</trkpt>
<trkpt lat="33.810313" lon="-118.3938669">
  <ele>0.12</ele>
  <time>2026-09-01T01:17:54Z</time>
  <course>0.0</course>
  <speed>0.0</speed>
  <fix>3d</fix>
</trkpt>
<trkpt lat="33.810313" lon="-118.3938669">
  <ele>0.106</ele>
  <time>2026-09-01T01:17:54Z</time>
  <course>215.05</course>
  <speed>0.01</speed>
  <fix>3d</fix>
</trkpt>
<trkpt lat="33.810313" lon="-118.3938669">
  <ele>0.12</ele>
  <time>2026-09-01T01:17:54Z</time>
  <course>0.0</course>
  <speed>0.0</speed>
  <fix>3d</fix>
</trkpt>
<trkpt lat="33.810313" lon="-118.3938669">
  <ele>0.105</ele>
  <time>2026-09-01T01:17:54Z</time>
  <course>215.05</course>
  <speed>0.01</speed>
  <fix>3d</fix>
</trkpt>
<trkpt lat="33.810313" lon="-118.3938669">
  <ele>0.12</ele>
  <time>2026-09-01T01:17:54Z</time>
  <course>0.0</course>
  <speed>0.0</speed>
  <fix>3d</fix>
</trkpt>
<trkpt lat="33.810313" lon="-118.3938669">
  <ele>0.105</ele>
  <time>2026-09-01T01:17:54Z</time>
  <course>215.05</course>
  <speed>0.01</speed>
  <fix>3d</fix>
</trkpt>
<trkpt lat="33.810313" lon="-118.3938669">
  <ele>0.12</ele>
  <time>2026-09-01T01:17:54Z</time>
  <course>0.0</course>
  <speed>0.0</speed>
  <fix>3d</fix>
</trkpt>
<trkpt lat="33.810313" lon="-118.3938669">
  <ele>0.106</ele>
  <time>2026-09-01T01:17:54Z</time>
  <course>215.05</course>
  <speed>0.01</speed>
  <fix>3d</fix>
</trkpt>
<trkpt lat="33.810313" lon="-118.3938669">
  <ele>0.12</ele>
  <time>2026-09-01T01:17:54Z</time>
  <course>0.0</course>
  <speed>0.0</speed>
  <fix>3d</fix>
</trkpt>
<trkpt lat="33.810313" lon="-118.3938669">
  <ele>0.107</ele>
  <time>2026-09-01T01:17:54Z</time>
  <course>215.05</course>
  <speed>0.01</speed>
  <fix>3d</fix>
</trkpt>
<trkpt lat="33.810313" lon="-118.3938669">
  <ele>0.12</ele>
  <time>2026-09-01T01:17:54Z</time>
  <course>0.0</course>
  <speed>0.0</speed>
  <fix>3d</fix>
</trkpt>
<trkpt lat="33.810313" lon="-118.3938669">
  <ele>0.109</ele>
  <time>2026-09-01T01:17:54Z</time>
  <course>215.05</course>
  <speed>0.01</speed>
  <fix>3d</fix>
</trkpt>
<trkpt lat="33.810313" lon="-118.3938669">
  <ele>0.12</ele>
  <time>2026-09-01T01:17:54Z</time>
  <course>0.0</course>
  <speed>0.0</speed>
  <fix>3d</fix>
</trkpt>
<trkpt lat="33.810313" lon="-118.3938669">
  <ele>0.11</ele>
  <time>2026-09-01T01:17:54Z</time>
  <course>215.05</course>
  <speed>0.01</speed>
  <fix>3d</fix>
</trkpt>
<trkpt lat="33.810313" lon="-118.3938669">
  <ele>0.12</ele>
  <time>2026-09-01T01:17:54Z</time>
  <course>0.0</course>
  <speed>0.0</speed>
  <fix>3d</fix>
</trkpt>
<trkpt lat="33.810313" lon="-118.3938669">
  <ele>0.111</ele>
  <time>2026-09-01T01:17:54Z</time>
  <course>215.05</course>
  <speed>0.01</speed>
  <fix>3d</fix>
</trkpt>
<trkpt lat="33.810313" lon="-118.3938669">
  <ele>0.12</ele>
  <time>2026-09-01T01:17:54Z</time>
  <course>0.0</course>
  <speed>0.0</speed>
  <fix>3d</fix>
</trkpt>
<trkpt lat="33.810313" lon="-118.3938669">
  <ele>0.11</ele>
  <time>2026-09-01T01:17:54Z</time>
  <course>215.05</course>
  <speed>0.01</speed>
  <fix>3d</fix>
</trkpt>
<trkpt lat="33.810313" lon="-118.3938669">
  <ele>0.12</ele>
  <time>2026-09-01T01:17:54Z</time>
  <course>0.0</course>
  <speed>0.0</speed>
  <fix>3d</fix>
</trkpt>
<trkpt lat="33.810313" lon="-118.3938669">
  <ele>0.108</ele>
  <time>2026-09-01T01:17:54Z</time>
  <course>215.05</course>
  <speed>0.01</speed>
  <fix>3d</fix>
</trkpt>
<trkpt lat="33.810313" lon="-118.3938669">
  <ele>0.12</ele>
  <time>2026-09-01T01:17:54Z</time>
  <course>0.0</course>
  <speed>0.0</speed>
  <fix>3d</fix>
</trkpt>
<trkpt lat="33.810313" lon="-118.3938669">
  <ele>0.105</ele>
  <time>2026-09-01T01:17:54Z</time>
  <course>184.89</course>
  <speed>0.01</speed>
  <fix>3d</fix>
</trkpt>
<trkpt lat="33.810313" lon="-118.3938669">
  <ele>0.12</ele>
  <time>2026-09-01T01:17:54Z</time>
  <course>0.0</course>
  <speed>0.0</speed>
  <fix>3d</fix>
</trkpt>
<trkpt lat="33.810313" lon="-118.3938669">
  <ele>0.103</ele>
  <time>2026-09-01T01:17:54Z</time>
  <course>184.89</course>
  <speed>0.01</speed>
  <fix>3d</fix>
</trkpt>
<trkpt lat="33.810313" lon="-118.3938669">
  <ele>0.12</ele>
  <time>2026-09-01T01:17:54Z</time>
  <course>0.0</course>
  <speed>0.0</speed>
  <fix>3d</fix>
</trkpt>
<trkpt lat="33.810313" lon="-118.3938669">
  <ele>0.101</ele>
  <time>2026-09-01T01:17:54Z</time>
  <course>184.89</course>
  <speed>0.01</speed>
  <fix>3d</fix>
</trkpt>
<trkpt lat="33.810313" lon="-118.3938669">
  <ele>0.12</ele>
  <time>2026-09-01T01:17:54Z</time>
  <course>0.0</course>
  <speed>0.0</speed>
  <fix>3d</fix>
</trkpt>
<trkpt lat="33.8103131" lon="-118.3938669">
  <ele>0.101</ele>
  <time>2026-09-01T01:17:54Z</time>
  <course>184.89</course>
  <speed>0.01</speed>
  <fix>3d</fix>
</trkpt>
<trkpt lat="33.810313" lon="-118.3938669">
  <ele>0.12</ele>
  <time>2026-09-01T01:17:54Z</time>
  <course>0.0</course>
  <speed>0.0</speed>
  <fix>3d</fix>
</trkpt>
<trkpt lat="33.8103131" lon="-118.3938669">
  <ele>0.103</ele>
  <time>2026-09-01T01:17:54Z</time>
  <course>184.89</course>
  <speed>0.02</speed>
  <fix>3d</fix>
</trkpt>
<trkpt lat="33.810313" lon="-118.3938669">
  <ele>0.12</ele>
  <time>2026-09-01T01:17:54Z</time>
  <course>0.0</course>
  <speed>0.0</speed>
  <fix>3d</fix>
</trkpt>
<trkpt lat="33.8103131" lon="-118.3938669">
  <ele>0.105</ele>
  <time>2026-09-01T01:17:54Z</time>
  <course>184.89</course>
  <speed>0.02</speed>
  <fix>3d</fix>
</trkpt>
<trkpt lat="33.810313" lon="-118.3938669">
  <ele>0.12</ele>
  <time>2026-09-01T01:17:54Z</time>
  <course>0.0</course>
  <speed>0.0</speed>
  <fix>3d</fix>
</trkpt>
<trkpt lat="33.8103131" lon="-118.3938669">
  <ele>0.109</ele>
  <time>2026-09-01T01:17:54Z</time>
  <course>184.89</course>
  <speed>0.022360679774997897</speed>
  <fix>3d</fix>
</trkpt>
<trkpt lat="33.810313" lon="-118.3938669">
  <ele>0.12</ele>
  <time>2026-09-01T01:17:54Z</time>
  <course>0.0</course>
  <speed>0.0</speed>
  <fix>3d</fix>
</trkpt>
<trkpt lat="33.8103131" lon="-118.3938669">
  <ele>0.112</ele>
  <time>2026-09-01T01:17:54Z</time>
  <course>184.89</course>
  <speed>0.022360679774997897</speed>
  <fix>3d</fix>
</trkpt>
<trkpt lat="33.810313" lon="-118.3938669">
  <ele>0.12</ele>
  <time>2026-09-01T01:17:54Z</time>
  <course>0.0</course>
  <speed>0.0</speed>
  <fix>3d</fix>
</trkpt>
<trkpt lat="33.8103132" lon="-118.3938669">
  <ele>0.114</ele>
  <time>2026-09-01T01:17:54Z</time>
  <course>184.89</course>
  <speed>0.022360679774997897</speed>
  <fix>3d</fix>
</trkpt>
<trkpt lat="33.810313" lon="-118.3938669">
  <ele>0.12</ele>
  <time>2026-09-01T01:17:54Z</time>
  <course>0.0</course>
  <speed>0.0</speed>
  <fix>3d</fix>
</trkpt>
<trkpt lat="33.8103132" lon="-118.393867">
  <ele>0.114</ele>
  <time>2026-09-01T01:17:54Z</time>
  <course>184.89</course>
  <speed>0.022360679774997897</speed>
  <fix>3d</fix>
</trkpt>
<trkpt lat="33.810313" lon="-118.3938669">
  <ele>0.12</ele>
  <time>2026-09-01T01:17:54Z</time>
  <course>0.0</course>
  <speed>0.0</speed>
  <fix>3d</fix>
</trkpt>
<trkpt lat="33.4368002" lon="-117.0859339">
  <ele>-0.11</ele>
  <time>2026-09-01T01:17:55Z</time>
  <course>0.0</course>
  <speed>0.0</speed>
  <fix>3d</fix>
</trkpt>
<trkpt lat="33.4368002" lon="-117.0859339">
  <ele>-0.11</ele>
  <time>2026-09-01T01:17:55Z</time>
  <course>0.0</course>
  <speed>0.0</speed>
  <fix>3d</fix>
</trkpt>
<trkpt lat="33.810313" lon="-118.393867">
  <ele>0.0</ele>
  <time>2026-09-01T01:17:55Z</time>
  <course>173.5</course>
  <speed>0.0</speed>
  <fix>3d</fix>
</trkpt>
<trkpt lat="33.810313" lon="-118.393867">
  <ele>-0.11</ele>
  <time>2026-09-01T01:17:55Z</time>
  <course>0.0</course>
  <speed>0.0</speed>
  <fix>3d</fix>
</trkpt>
<trkpt lat="33.810313" lon="-118.393867">
  <ele>0.0</ele>
  <time>2026-09-01T01:17:55Z</time>
  <course>173.61</course>
  <speed>0.0</speed>
  <fix>3d</fix>
</trkpt>
<trkpt lat="33.810313" lon="-118.393867">
  <ele>-0.11</ele>
  <time>2026-09-01T01:17:55Z</time>
  <course>0.0</course>
  <speed>0.0</speed>
  <fix>3d</fix>
</trkpt>
<trkpt lat="33.810313" lon="-118.393867">
  <ele>0.0</ele>
  <time>2026-09-01T01:17:55Z</time>
  <course>173.99</course>
  <speed>0.0</speed>
  <fix>3d</fix>
</trkpt>
<trkpt lat="33.810313" lon="-118.393867">
  <ele>-0.11</ele>
  <time>2026-09-01T01:17:55Z</time>
  <course>0.0</course>
  <speed>0.0</speed>
  <fix>3d</fix>
</trkpt>
<trkpt lat="33.810313" lon="-118.393867">
  <ele>0.0</ele>
  <time>2026-09-01T01:17:55Z</time>
  <course>174.51</course>
  <speed>0.0</speed>
  <fix>3d</fix>
</trkpt>
<trkpt lat="33.810313" lon="-118.393867">
  <ele>-0.11</ele>
  <time>2026-09-01T01:17:55Z</time>
  <course>0.0</course>
  <speed>0.0</speed>
  <fix>3d</fix>
</trkpt>
<trkpt lat="33.810313" lon="-118.393867">
  <ele>0.0</ele>
  <time>2026-09-01T01:17:55Z</time>
  <course>175.07</course>
  <speed>0.0</speed>
  <fix>3d</fix>
</trkpt>
<trkpt lat="33.810313" lon="-118.393867">
  <ele>-0.12</ele>
  <time>2026-09-01T01:17:55Z</time>
  <course>0.0</course>
  <speed>0.0</speed>
  <fix>3d</fix>
</trkpt>
<trkpt lat="33.810313" lon="-118.393867">
  <ele>0.0</ele>
  <time>2026-09-01T01:17:55Z</time>
  <course>175.61</course>
  <speed>0.0</speed>
  <fix>3d</fix>
</trkpt>
<trkpt lat="33.810313" lon="-118.393867">
  <ele>-0.12</ele>
  <time>2026-09-01T01:17:55Z</time>
  <course>0.0</course>
  <speed>0.0</speed>
  <fix>3d</fix>
</trkpt>
<trkpt lat="33.810313" lon="-118.393867">
  <ele>0.0</ele>
  <time>2026-09-01T01:17:55Z</time>
  <course>176.12</course>
  <speed>0.0</speed>
  <fix>3d</fix>
</trkpt>
<trkpt lat="33.810313" lon="-118.393867">
  <ele>-0.13</ele>
  <time>2026-09-01T01:17:55Z</time>
  <course>0.0</course>
  <speed>0.0</speed>
  <fix>3d</fix>
</trkpt>
<trkpt lat="33.810313" lon="-118.393867">
  <ele>0.0</ele>
  <time>2026-09-01T01:17:55Z</time>
  <course>176.6</course>
  <speed>0.0</speed>
  <fix>3d</fix>
</trkpt>
<trkpt lat="33.810313" lon="-118.393867">
  <ele>-0.13</ele>
  <time>2026-09-01T01:17:55Z</time>
  <course>0.0</course>
  <speed>0.0</speed>
  <fix>3d</fix>
</trkpt>
<trkpt lat="33.810313" lon="-118.393867">
  <ele>0.0</ele>
  <time>2026-09-01T01:17:55Z</time>
  <course>177.07</course>
  <speed>0.0</speed>
  <fix>3d</fix>
</trkpt>
<trkpt lat="33.810313" lon="-118.393867">
  <ele>-0.13</ele>
  <time>2026-09-01T01:17:55Z</time>
  <course>0.0</course>
  <speed>0.0</speed>
  <fix>3d</fix>
</trkpt>
<trkpt lat="33.810313" lon="-118.393867">
  <ele>0.0</ele>
  <time>2026-09-01T01:17:55Z</time>
  <course>177.53</course>
  <speed>0.0</speed>
  <fix>3d</fix>
</trkpt>
<trkpt lat="33.810313" lon="-118.393867">
  <ele>-0.13</ele>
  <time>2026-09-01T01:17:55Z</time>
  <course>0.0</course>
  <speed>0.0</speed>
  <fix>3d</fix>
</trkpt>
<trkpt lat="33.810313" lon="-118.393867">
  <ele>0.0</ele>
  <time>2026-09-01T01:17:55Z</time>
  <course>177.97</course>
  <speed>0.0</speed>
  <fix>3d</fix>
</trkpt>
<trkpt lat="33.810313" lon="-118.393867">
  <ele>-0.14</ele>
  <time>2026-09-01T01:17:55Z</time>
  <course>0.0</course>
  <speed>0.0</speed>
  <fix>3d</fix>
</trkpt>
<trkpt lat="33.810313" lon="-118.393867">
  <ele>0.0</ele>
  <time>2026-09-01T01:17:55Z</time>
  <course>178.4</course>
  <speed>0.0</speed>
  <fix>3d</fix>
</trkpt>
<trkpt lat="33.810313" lon="-118.393867">
  <ele>-0.14</ele>
  <time>2026-09-01T01:17:55Z</time>
  <course>0.0</course>
  <speed>0.0</speed>
  <fix>3d</fix>
</trkpt>
<trkpt lat="33.810313" lon="-118.393867">
  <ele>0.0</ele>
  <time>2026-09-01T01:17:55Z</time>
  <course>178.82</course>
  <speed>0.0</speed>
  <fix>3d</fix>
</trkpt>
<trkpt lat="33.810313" lon="-118.393867">
  <ele>-0.14</ele>
  <time>2026-09-01T01:17:55Z</time>
  <course>0.0</course>
  <speed>0.0</speed>
  <fix>3d</fix>
</trkpt>
<trkpt lat="33.810313" lon="-118.393867">
  <ele>0.0</ele>
  <time>2026-09-01T01:17:55Z</time>
  <course>179.23</course>
  <speed>0.0</speed>
  <fix>3d</fix>
</trkpt>
<trkpt lat="33.810313" lon="-118.393867">
  <ele>-0.14</ele>
  <time>2026-09-01T01:17:55Z</time>
  <course>0.0</course>
  <speed>0.0</speed>
  <fix>3d</fix>
</trkpt>
<trkpt lat="33.810313" lon="-118.393867">
  <ele>0.0</ele>
  <time>2026-09-01T01:17:55Z</time>
  <course>179.62</course>
  <speed>0.0</speed>
  <fix>3d</fix>
</trkpt>
<trkpt lat="33.810313" lon="-118.393867">
  <ele>-0.14</ele>
  <time>2026-09-01T01:17:55Z</time>
  <course>0.0</course>
  <speed>0.0</speed>
  <fix>3d</fix>
</trkpt>
<trkpt lat="33.810313" lon="-118.393867">
  <ele>0.0</ele>
  <time>2026-09-01T01:17:55Z</time>
  <course>180.01</course>
  <speed>0.0</speed>
  <fix>3d</fix>
</trkpt>
<trkpt lat="33.810313" lon="-118.393867">
  <ele>-0.14</ele>
  <time>2026-09-01T01:17:55Z</time>
  <course>0.0</course>
  <speed>0.0</speed>
  <fix>3d</fix>
</trkpt>
<trkpt lat="33.810313" lon="-118.393867">
  <ele>0.0</ele>
  <time>2026-09-01T01:17:55Z</time>
  <course>180.37</course>
  <speed>0.0</speed>
  <fix>3d</fix>
</trkpt>
<trkpt lat="33.810313" lon="-118.393867">
  <ele>-0.14</ele>
  <time>2026-09-01T01:17:55Z</time>
  <course>0.0</course>
  <speed>0.0</speed>
  <fix>3d</fix>
</trkpt>
<trkpt lat="33.810313" lon="-118.393867">
  <ele>0.0</ele>
  <time>2026-09-01T01:17:55Z</time>
  <course>180.73</course>
  <speed>0.0</speed>
  <fix>3d</fix>
</trkpt>
<trkpt lat="33.810313" lon="-118.393867">
  <ele>-0.14</ele>
  <time>2026-09-01T01:17:55Z</time>
  <course>0.0</course>
  <speed>0.0</speed>
  <fix>3d</fix>
</trkpt>
<trkpt lat="33.810313" lon="-118.393867">
  <ele>0.0</ele>
  <time>2026-09-01T01:17:55Z</time>
  <course>181.07</course>
  <speed>0.0</speed>
  <fix>3d</fix>
</trkpt>
<trkpt lat="33.810313" lon="-118.393867">
  <ele>-0.13</ele>
  <time>2026-09-01T01:17:55Z</time>
  <course>0.0</course>
  <speed>0.0</speed>
  <fix>3d</fix>
</trkpt>
<trkpt lat="33.810313" lon="-118.393867">
  <ele>0.0</ele>
  <time>2026-09-01T01:17:55Z</time>
  <course>181.4</course>
  <speed>0.0</speed>
  <fix>3d</fix>
</trkpt>
<trkpt lat="33.810313" lon="-118.393867">
  <ele>-0.13</ele>
  <time>2026-09-01T01:17:55Z</time>
  <course>0.0</course>
  <speed>0.0</speed>
  <fix>3d</fix>
</trkpt>
<trkpt lat="33.810313" lon="-118.393867">
  <ele>0.0</ele>
  <time>2026-09-01T01:17:55Z</time>
  <course>181.71</course>
  <speed>0.0</speed>
  <fix>3d</fix>
</trkpt>
<trkpt lat="33.810313" lon="-118.393867">
  <ele>-0.12</ele>
  <time>2026-09-01T01:17:55Z</time>
  <course>0.0</course>
  <speed>0.0</speed>
  <fix>3d</fix>
</trkpt>
<trkpt lat="33.810313" lon="-118.393867">
  <ele>0.0</ele>
  <time>2026-09-01T01:17:55Z</time>
  <course>182.02</course>
  <speed>0.0</speed>
  <fix>3d</fix>
</trkpt>
<trkpt lat="33.810313" lon="-118.393867">
  <ele>-0.12</ele>
  <time>2026-09-01T01:17:55Z</time>
  <course>0.0</course>
  <speed>0.0</speed>
  <fix>3d</fix>
</trkpt>
<trkpt lat="33.810313" lon="-118.393867">
  <ele>0.0</ele>
  <time>2026-09-01T01:17:56Z</time>
  <course>182.31</course>
  <speed>0.0</speed>
  <fix>3d</fix>
</trkpt>
<trkpt lat="33.810313" lon="-118.393867">
  <ele>-0.12</ele>
  <time>2026-09-01T01:17:56Z</time>
  <course>0.0</course>
  <speed>0.0</speed>
  <fix>3d</fix>
</trkpt>
<trkpt lat="33.810313" lon="-118.393867">
  <ele>0.0</ele>
  <time>2026-09-01T01:17:56Z</time>
  <course>182.6</course>
  <speed>0.0</speed>
  <fix>3d</fix>
</trkpt>
<trkpt lat="33.810313" lon="-118.393867">
  <ele>-0.12</ele>
  <time>2026-09-01T01:17:56Z</time>
  <course>0.0</course>
  <speed>0.0</speed>
  <fix>3d</fix>
</trkpt>
<trkpt lat="33.810313" lon="-118.393867">
  <ele>0.0</ele>
  <time>2026-09-01T01:17:56Z</time>
  <course>182.87</course>
  <speed>0.0</speed>
  <fix>3d</fix>
</trkpt>
<trkpt lat="33.810313" lon="-118.393867">
  <ele>-0.11</ele>
  <time>2026-09-01T01:17:56Z</time>
  <course>0.0</course>
  <speed>0.0</speed>
  <fix>3d</fix>
</trkpt>
<trkpt lat="33.810313" lon="-118.393867">
  <ele>0.0</ele>
  <time>2026-09-01T01:17:56Z</time>
  <course>183.13</course>
  <speed>0.0</speed>
  <fix>3d</fix>
</trkpt>
<trkpt lat="33.810313" lon="-118.393867">
  <ele>-0.11</ele>
  <time>2026-09-01T01:17:56Z</time>
  <course>0.0</course>
  <speed>0.0</speed>
  <fix>3d</fix>
</trkpt>
<trkpt lat="33.810313" lon="-118.393867">
  <ele>0.0</ele>
  <time>2026-09-01T01:17:56Z</time>
  <course>183.38</course>
  <speed>0.0</speed>
  <fix>3d</fix>
</trkpt>
<trkpt lat="33.810313" lon="-118.393867">
  <ele>-0.11</ele>
  <time>2026-09-01T01:17:56Z</time>
  <course>0.0</course>
  <speed>0.0</speed>
  <fix>3d</fix>
</trkpt>
<trkpt lat="33.810313" lon="-118.393867">
  <ele>0.0</ele>
  <time>2026-09-01T01:17:56Z</time>
  <course>183.63</course>
  <speed>0.0</speed>
  <fix>3d</fix>
</trkpt>
<trkpt lat="33.810313" lon="-118.393867">
  <ele>-0.11</ele>
  <time>2026-09-01T01:17:56Z</time>
  <course>0.0</course>
  <speed>0.0</speed>
  <fix>3d</fix>
</trkpt>
<trkpt lat="33.810313" lon="-118.393867">
  <ele>0.0</ele>
  <time>2026-09-01T01:17:56Z</time>
  <course>183.86</course>
  <speed>0.0</speed>
  <fix>3d</fix>
</trkpt>
<trkpt lat="33.810313" lon="-118.393867">
  <ele>-0.12</ele>
  <time>2026-09-01T01:17:56Z</time>
  <course>0.0</course>
  <speed>0.0</speed>
  <fix>3d</fix>
</trkpt>
<trkpt lat="33.810313" lon="-118.393867">
  <ele>0.0</ele>
  <time>2026-09-01T01:17:56Z</time>
  <course>184.08</course>
  <speed>0.0</speed>
  <fix>3d</fix>
</trkpt>
<trkpt lat="33.810313" lon="-118.393867">
  <ele>-0.12</ele>
  <time>2026-09-01T01:17:56Z</time>
  <course>0.0</course>
  <speed>0.0</speed>
  <fix>3d</fix>
</trkpt>
<trkpt lat="33.810313" lon="-118.393867">
  <ele>0.0</ele>
  <time>2026-09-01T01:17:56Z</time>
  <course>184.3</course>
  <speed>0.0</speed>
  <fix>3d</fix>
</trkpt>
<trkpt lat="33.810313" lon="-118.393867">
  <ele>-0.13</ele>
  <time>2026-09-01T01:17:56Z</time>
  <course>0.0</course>
  <speed>0.0</speed>
  <fix>3d</fix>
</trkpt>
<trkpt lat="33.810313" lon="-118.393867">
  <ele>0.0</ele>
  <time>2026-09-01T01:17:56Z</time>
  <course>184.5</course>
  <speed>0.0</speed>
  <fix>3d</fix>
</trkpt>
<trkpt lat="33.810313" lon="-118.393867">
  <ele>-0.13</ele>
  <time>2026-09-01T01:17:56Z</time>
  <course>0.0</course>
  <speed>0.0</speed>
  <fix>3d</fix>
</trkpt>
<trkpt lat="33.810313" lon="-118.393867">
  <ele>0.0</ele>
  <time>2026-09-01T01:17:56Z</time>
  <course>184.7</course>
  <speed>0.0</speed>
  <fix>3d</fix>
</trkpt>
<trkpt lat="33.810313" lon="-118.393867">
  <ele>-0.13</ele>
  <time>2026-09-01T01:17:56Z</time>
  <course>0.0</course>
  <speed>0.0</speed>
  <fix>3d</fix>
</trkpt>
<trkpt lat="33.810313" lon="-118.393867">
  <ele>0.0</ele>
  <time>2026-09-01T01:17:56Z</time>
  <course>184.89</course>
  <speed>0.0</speed>
  <fix>3d</fix>
</trkpt>
<trkpt lat="33.810313" lon="-118.393867">
  <ele>-0.13</ele>
  <time>2026-09-01T01:17:56Z</time>
  <course>0.0</course>
  <speed>0.0</speed>
  <fix>3d</fix>
</trkpt>
<trkpt lat="33.810313" lon="-118.393867">
  <ele>0.0</ele>
  <time>2026-09-01T01:17:56Z</time>
  <course>185.07</course>
  <speed>0.0</speed>
  <fix>3d</fix>
</trkpt>
<trkpt lat="33.810313" lon="-118.393867">
  <ele>-0.14</ele>
  <time>2026-09-01T01:17:56Z</time>
  <course>0.0</course>
  <speed>0.0</speed>
  <fix>3d</fix>
</trkpt>
<trkpt lat="33.810313" lon="-118.393867">
  <ele>0.0</ele>
  <time>2026-09-01T01:17:56Z</time>
  <course>185.24</course>
  <speed>0.0</speed>
  <fix>3d</fix>
</trkpt>
<trkpt lat="33.810313" lon="-118.393867">
  <ele>-0.14</ele>
  <time>2026-09-01T01:17:56Z</time>
  <course>0.0</course>
  <speed>0.0</speed>
  <fix>3d</fix>
</trkpt>
<trkpt lat="33.810313" lon="-118.393867">
  <ele>0.0</ele>
  <time>2026-09-01T01:17:56Z</time>
  <course>185.4</course>
  <speed>0.0</speed>
  <fix>3d</fix>
</trkpt>
<trkpt lat="33.810313" lon="-118.393867">
  <ele>-0.13</ele>
  <time>2026-09-01T01:17:56Z</time>
  <course>0.0</course>
  <speed>0.0</speed>
  <fix>3d</fix>
</trkpt>
<trkpt lat="33.810313" lon="-118.393867">
  <ele>0.0</ele>
  <time>2026-09-01T01:17:56Z</time>
  <course>185.56</course>
  <speed>0.0</speed>
  <fix>3d</fix>
</trkpt>
<trkpt lat="33.810313" lon="-118.393867">
  <ele>-0.13</ele>
  <time>2026-09-01T01:17:56Z</time>
  <course>0.0</course>
  <speed>0.0</speed>
  <fix>3d</fix>
</trkpt>
<trkpt lat="33.810313" lon="-118.393867">
  <ele>0.0</ele>
  <time>2026-09-01T01:17:56Z</time>
  <course>185.71</course>
  <speed>0.0</speed>
  <fix>3d</fix>
</trkpt>
<trkpt lat="33.810313" lon="-118.393867">
  <ele>-0.13</ele>
  <time>2026-09-01T01:17:56Z</time>
  <course>0.0</course>
  <speed>0.0</speed>
  <fix>3d</fix>
</trkpt>
<trkpt lat="33.810313" lon="-118.393867">
  <ele>0.0</ele>
  <time>2026-09-01T01:17:56Z</time>
  <course>185.86</course>
  <speed>0.0</speed>
  <fix>3d</fix>
</trkpt>
<trkpt lat="33.810313" lon="-118.393867">
  <ele>-0.13</ele>
  <time>2026-09-01T01:17:56Z</time>
  <course>0.0</course>
  <speed>0.0</speed>
  <fix>3d</fix>
</trkpt>
<trkpt lat="33.810313" lon="-118.393867">
  <ele>0.0</ele>
  <time>2026-09-01T01:17:56Z</time>
  <course>186.0</course>
  <speed>0.0</speed>
  <fix>3d</fix>
</trkpt>
<trkpt lat="33.810313" lon="-118.393867">
  <ele>-0.12</ele>
  <time>2026-09-01T01:17:56Z</time>
  <course>0.0</course>
  <speed>0.0</speed>
  <fix>3d</fix>
</trkpt>
<trkpt lat="33.810313" lon="-118.393867">
  <ele>0.0</ele>
  <time>2026-09-01T01:17:56Z</time>
  <course>186.13</course>
  <speed>0.0</speed>
  <fix>3d</fix>
</trkpt>
<trkpt lat="33.810313" lon="-118.393867">
  <ele>-0.12</ele>
  <time>2026-09-01T01:17:56Z</time>
  <course>0.0</course>
  <speed>0.0</speed>
  <fix>3d</fix>
</trkpt>
<trkpt lat="33.810313" lon="-118.393867">
  <ele>0.0</ele>
  <time>2026-09-01T01:17:56Z</time>
  <course>186.26</course>
  <speed>0.0</speed>
  <fix>3d</fix>
</trkpt>
<trkpt lat="33.810313" lon="-118.393867">
  <ele>-0.12</ele>
  <time>2026-09-01T01:17:56Z</time>
  <course>0.0</course>
  <speed>0.0</speed>
  <fix>3d</fix>
</trkpt>
<trkpt lat="33.810313" lon="-118.393867">
  <ele>0.0</ele>
  <time>2026-09-01T01:17:56Z</time>
  <course>186.38</course>
  <speed>0.0</speed>
  <fix>3d</fix>
</trkpt>
<trkpt lat="33.810313" lon="-118.393867">
  <ele>-0.12</ele>
  <time>2026-09-01T01:17:56Z</time>
  <course>0.0</course>
  <speed>0.0</speed>
  <fix>3d</fix>
</trkpt>
<trkpt lat="33.810313" lon="-118.393867">
  <ele>0.0</ele>
  <time>2026-09-01T01:17:56Z</time>
  <course>186.49</course>
  <speed>0.0</speed>
  <fix>3d</fix>
</trkpt>
<trkpt lat="33.810313" lon="-118.393867">
  <ele>-0.12</ele>
  <time>2026-09-01T01:17:56Z</time>
  <course>0.0</course>
  <speed>0.0</speed>
  <fix>3d</fix>
</trkpt>
<trkpt lat="33.810313" lon="-118.393867">
  <ele>0.0</ele>
  <time>2026-09-01T01:17:56Z</time>
  <course>186.6</course>
  <speed>0.0</speed>
  <fix>3d</fix>
</trkpt>
<trkpt lat="33.810313" lon="-118.393867">
  <ele>-0.12</ele>
  <time>2026-09-01T01:17:56Z</time>
  <course>0.0</course>
  <speed>0.0</speed>
  <fix>3d</fix>
</trkpt>
<trkpt lat="33.810313" lon="-118.393867">
  <ele>0.0</ele>
  <time>2026-09-01T01:17:56Z</time>
  <course>186.71</course>
  <speed>0.0</speed>
  <fix>3d</fix>
</trkpt>
<trkpt lat="33.810313" lon="-118.393867">
  <ele>-0.12</ele>
  <time>2026-09-01T01:17:56Z</time>
  <course>0.0</course>
  <speed>0.0</speed>
  <fix>3d</fix>
</trkpt>
<trkpt lat="33.810313" lon="-118.393867">
  <ele>0.0</ele>
  <time>2026-09-01T01:17:56Z</time>
  <course>186.81</course>
  <speed>0.0</speed>
  <fix>3d</fix>
</trkpt>
<trkpt lat="33.810313" lon="-118.393867">
  <ele>-0.12</ele>
  <time>2026-09-01T01:17:56Z</time>
  <course>0.0</course>
  <speed>0.0</speed>
  <fix>3d</fix>
</trkpt>
<trkpt lat="33.810313" lon="-118.393867">
  <ele>0.0</ele>
  <time>2026-09-01T01:17:56Z</time>
  <course>186.9</course>
  <speed>0.0</speed>
  <fix>3d</fix>
</trkpt>
<trkpt lat="33.810313" lon="-118.393867">
  <ele>-0.12</ele>
  <time>2026-09-01T01:17:56Z</time>
  <course>0.0</course>
  <speed>0.0</speed>
  <fix>3d</fix>
</trkpt>
<trkpt lat="33.810313" lon="-118.393867">
  <ele>0.0</ele>
  <time>2026-09-01T01:17:56Z</time>
  <course>187.0</course>
  <speed>0.0</speed>
  <fix>3d</fix>
</trkpt>
<trkpt lat="33.810313" lon="-118.393867">
  <ele>-0.12</ele>
  <time>2026-09-01T01:17:56Z</time>
  <course>0.0</course>
  <speed>0.0</speed>
  <fix>3d</fix>
</trkpt>
<trkpt lat="33.810313" lon="-118.393867">
  <ele>0.0</ele>
  <time>2026-09-01T01:17:56Z</time>
  <course>187.08</course>
  <speed>0.0</speed>
  <fix>3d</fix>
</trkpt>
<trkpt lat="33.810313" lon="-118.393867">
  <ele>-0.13</ele>
  <time>2026-09-01T01:17:56Z</time>
  <course>0.0</course>
  <speed>0.0</speed>
  <fix>3d</fix>
</trkpt>
<trkpt lat="33.810313" lon="-118.393867">
  <ele>0.0</ele>
  <time>2026-09-01T01:17:56Z</time>
  <course>187.17</course>
  <speed>0.0</speed>
  <fix>3d</fix>
</trkpt>
<trkpt lat="33.810313" lon="-118.393867">
  <ele>-0.13</ele>
  <time>2026-09-01T01:17:56Z</time>
  <course>0.0</course>
  <speed>0.0</speed>
  <fix>3d</fix>
</trkpt>
<trkpt lat="33.810313" lon="-118.393867">
  <ele>0.0</ele>
  <time>2026-09-01T01:17:56Z</time>
  <course>187.24</course>
  <speed>0.0</speed>
  <fix>3d</fix>
</trkpt>
<trkpt lat="33.810313" lon="-118.393867">
  <ele>-0.13</ele>
  <time>2026-09-01T01:17:56Z</time>
  <course>0.0</course>
  <speed>0.0</speed>
  <fix>3d</fix>
</trkpt>
<trkpt lat="33.810313" lon="-118.393867">
  <ele>0.0</ele>
  <time>2026-09-01T01:17:56Z</time>
  <course>187.32</course>
  <speed>0.0</speed>
  <fix>3d</fix>
</trkpt>
<trkpt lat="33.810313" lon="-118.393867">
  <ele>-0.13</ele>
  <time>2026-09-01T01:17:56Z</time>
  <course>0.0</course>
  <speed>0.0</speed>
  <fix>3d</fix>
</trkpt>
<trkpt lat="33.810313" lon="-118.393867">
  <ele>0.0</ele>
  <time>2026-09-01T01:17:56Z</time>
  <course>187.39</course>
  <speed>0.0</speed>
  <fix>3d</fix>
</trkpt>
<trkpt lat="33.810313" lon="-118.393867">
  <ele>-0.13</ele>
  <time>2026-09-01T01:17:56Z</time>
  <course>0.0</course>
  <speed>0.0</speed>
  <fix>3d</fix>
</trkpt>
<trkpt lat="33.810313" lon="-118.393867">
  <ele>0.0</ele>
  <time>2026-09-01T01:17:56Z</time>
  <course>187.46</course>
  <speed>0.0</speed>
  <fix>3d</fix>
</trkpt>
<trkpt lat="33.810313" lon="-118.393867">
  <ele>-0.13</ele>
  <time>2026-09-01T01:17:56Z</time>
  <course>0.0</course>
  <speed>0.0</speed>
  <fix>3d</fix>
</trkpt>
<trkpt lat="33.810313" lon="-118.393867">
  <ele>0.0</ele>
  <time>2026-09-01T01:17:56Z</time>
  <course>187.53</course>
  <speed>0.0</speed>
  <fix>3d</fix>
</trkpt>
<trkpt lat="33.810313" lon="-118.393867">
  <ele>-0.13</ele>
  <time>2026-09-01T01:17:56Z</time>
  <course>0.0</course>
  <speed>0.0</speed>
  <fix>3d</fix>
</trkpt>
<trkpt lat="33.810313" lon="-118.393867">
  <ele>0.0</ele>
  <time>2026-09-01T01:17:56Z</time>
  <course>187.59</course>
  <speed>0.0</speed>
  <fix>3d</fix>
</trkpt>
<trkpt lat="33.810313" lon="-118.393867">
  <ele>-0.13</ele>
  <time>2026-09-01T01:17:56Z</time>
  <course>0.0</course>
  <speed>0.0</speed>
  <fix>3d</fix>
</trkpt>
<trkpt lat="33.810313" lon="-118.393867">
  <ele>0.0</ele>
  <time>2026-09-01T01:17:56Z</time>
  <course>187.65</course>
  <speed>0.0</speed>
  <fix>3d</fix>
</trkpt>
<trkpt lat="33.810313" lon="-118.393867">
  <ele>-0.12</ele>
  <time>2026-09-01T01:17:56Z</time>
  <course>0.0</course>
  <speed>0.0</speed>
  <fix>3d</fix>
</trkpt>
<trkpt lat="33.810313" lon="-118.393867">
  <ele>0.0</ele>
  <time>2026-09-01T01:17:56Z</time>
  <course>187.7</course>
  <speed>0.0</speed>
  <fix>3d</fix>
</trkpt>
<trkpt lat="33.810313" lon="-118.393867">
  <ele>-0.12</ele>
  <time>2026-09-01T01:17:56Z</time>
  <course>0.0</course>
  <speed>0.0</speed>
  <fix>3d</fix>
</trkpt>
<trkpt lat="33.810313" lon="-118.393867">
  <ele>0.0</ele>
  <time>2026-09-01T01:17:56Z</time>
  <course>187.76</course>
  <speed>0.0</speed>
  <fix>3d</fix>
</trkpt>
<trkpt lat="33.810313" lon="-118.393867">
  <ele>-0.12</ele>
  <time>2026-09-01T01:17:56Z</time>
  <course>0.0</course>
  <speed>0.0</speed>
  <fix>3d</fix>
</trkpt>
<trkpt lat="33.810313" lon="-118.393867">
  <ele>0.0</ele>
  <time>2026-09-01T01:17:56Z</time>
  <course>187.81</course>
  <speed>0.0</speed>
  <fix>3d</fix>
</trkpt>
<trkpt lat="33.810313" lon="-118.393867">
  <ele>-0.12</ele>
  <time>2026-09-01T01:17:56Z</time>
  <course>0.0</course>
  <speed>0.0</speed>
  <fix>3d</fix>
</trkpt>
<trkpt lat="33.810313" lon="-118.393867">
  <ele>0.0</ele>
  <time>2026-09-01T01:17:56Z</time>
  <course>187.86</course>
  <speed>0.0</speed>
  <fix>3d</fix>
</trkpt>
<trkpt lat="33.810313" lon="-118.393867">
  <ele>-0.12</ele>
  <time>2026-09-01T01:17:56Z</time>
  <course>0.0</course>
  <speed>0.0</speed>
  <fix>3d</fix>
</trkpt>
<trkpt lat="33.810313" lon="-118.393867">
  <ele>0.0</ele>
  <time>2026-09-01T01:17:56Z</time>
  <course>187.9</course>
  <speed>0.0</speed>
  <fix>3d</fix>
</trkpt>
<trkpt lat="33.810313" lon="-118.393867">
  <ele>-0.12</ele>
  <time>2026-09-01T01:17:56Z</time>
  <course>0.0</course>
  <speed>0.0</speed>
  <fix>3d</fix>
</trkpt>
<trkpt lat="33.810313" lon="-118.393867">
  <ele>0.0</ele>
  <time>2026-09-01T01:17:56Z</time>
  <course>187.95</course>
  <speed>0.0</speed>
  <fix>3d</fix>
</trkpt>
<trkpt lat="33.810313" lon="-118.393867">
  <ele>-0.12</ele>
  <time>2026-09-01T01:17:56Z</time>
  <course>0.0</course>
  <speed>0.0</speed>
  <fix>3d</fix>
</trkpt>
<trkpt lat="33.810313" lon="-118.393867">
  <ele>0.0</ele>
  <time>2026-09-01T01:17:56Z</time>
  <course>187.99</course>
  <speed>0.0</speed>
  <fix>3d</fix>
</trkpt>
<trkpt lat="33.810313" lon="-118.393867">
  <ele>-0.12</ele>
  <time>2026-09-01T01:17:56Z</time>
  <course>0.0</course>
  <speed>0.0</speed>
  <fix>3d</fix>
</trkpt>
<trkpt lat="33.810313" lon="-118.393867">
  <ele>0.0</ele>
  <time>2026-09-01T01:17:56Z</time>
  <course>188.02</course>
  <speed>0.0</speed>
  <fix>3d</fix>
</trkpt>
<trkpt lat="33.810313" lon="-118.393867">
  <ele>-0.12</ele>
  <time>2026-09-01T01:17:56Z</time>
  <course>0.0</course>
  <speed>0.0</speed>
  <fix>3d</fix>
</trkpt>
<trkpt lat="33.810313" lon="-118.393867">
  <ele>0.0</ele>
  <time>2026-09-01T01:17:56Z</time>
  <course>188.06</course>
  <speed>0.0</speed>
  <fix>3d</fix>
</trkpt>
<trkpt lat="33.810313" lon="-118.393867">
  <ele>-0.12</ele>
  <time>2026-09-01T01:17:56Z</time>
  <course>0.0</course>
  <speed>0.0</speed>
  <fix>3d</fix>
</trkpt>
<trkpt lat="33.810313" lon="-118.393867">
  <ele>0.0</ele>
  <time>2026-09-01T01:17:56Z</time>
  <course>188.1</course>
  <speed>0.0</speed>
  <fix>3d</fix>
</trkpt>
<trkpt lat="33.810313" lon="-118.393867">
  <ele>-0.13</ele>
  <time>2026-09-01T01:17:56Z</time>
  <course>0.0</course>
  <speed>0.0</speed>
  <fix>3d</fix>
</trkpt>
<trkpt lat="33.810313" lon="-118.393867">
  <ele>0.0</ele>
  <time>2026-09-01T01:17:56Z</time>
  <course>188.13</course>
  <speed>0.0</speed>
  <fix>3d</fix>
</trkpt>
<trkpt lat="33.810313" lon="-118.393867">
  <ele>-0.13</ele>
  <time>2026-09-01T01:17:56Z</time>
  <course>0.0</course>
  <speed>0.0</speed>
  <fix>3d</fix>
</trkpt>
<trkpt lat="33.810313" lon="-118.393867">
  <ele>0.0</ele>
  <time>2026-09-01T01:17:56Z</time>
  <course>188.16</course>
  <speed>0.0</speed>
  <fix>3d</fix>
</trkpt>
<trkpt lat="33.810313" lon="-118.393867">
  <ele>-0.13</ele>
  <time>2026-09-01T01:17:56Z</time>
  <course>0.0</course>
  <speed>0.0</speed>
  <fix>3d</fix>
</trkpt>
<trkpt lat="33.810313" lon="-118.393867">
  <ele>0.0</ele>
  <time>2026-09-01T01:17:56Z</time>
  <course>188.19</course>
  <speed>0.0</speed>
  <fix>3d</fix>
</trkpt>
<trkpt lat="33.810313" lon="-118.393867">
  <ele>-0.13</ele>
  <time>2026-09-01T01:17:56Z</time>
  <course>0.0</course>
  <speed>0.0</speed>
  <fix>3d</fix>
</trkpt>
<trkpt lat="33.810313" lon="-118.393867">
  <ele>0.0</ele>
  <time>2026-09-01T01:17:56Z</time>
  <course>188.22</course>
  <speed>0.0</speed>
  <fix>3d</fix>
</trkpt>
<trkpt lat="33.810313" lon="-118.393867">
  <ele>-0.13</ele>
  <time>2026-09-01T01:17:56Z</time>
  <course>0.0</course>
  <speed>0.0</speed>
  <fix>3d</fix>
</trkpt>
<trkpt lat="33.810313" lon="-118.393867">
  <ele>0.0</ele>
  <time>2026-09-01T01:17:56Z</time>
  <course>188.25</course>
  <speed>0.0</speed>
  <fix>3d</fix>
</trkpt>
<trkpt lat="33.810313" lon="-118.393867">
  <ele>-0.13</ele>
  <time>2026-09-01T01:17:56Z</time>
  <course>0.0</course>
  <speed>0.0</speed>
  <fix>3d</fix>
</trkpt>
<trkpt lat="33.810313" lon="-118.393867">
  <ele>0.0</ele>
  <time>2026-09-01T01:17:56Z</time>
  <course>188.27</course>
  <speed>0.0</speed>
  <fix>3d</fix>
</trkpt>
<trkpt lat="33.810313" lon="-118.393867">
  <ele>-0.12</ele>
  <time>2026-09-01T01:17:56Z</time>
  <course>0.0</course>
  <speed>0.0</speed>
  <fix>3d</fix>
</trkpt>
<trkpt lat="33.810313" lon="-118.393867">
  <ele>0.0</ele>
  <time>2026-09-01T01:17:56Z</time>
  <course>188.29</course>
  <speed>0.0</speed>
  <fix>3d</fix>
</trkpt>
<trkpt lat="33.810313" lon="-118.393867">
  <ele>-0.12</ele>
  <time>2026-09-01T01:17:56Z</time>
  <course>0.0</course>
  <speed>0.0</speed>
  <fix>3d</fix>
</trkpt>
<trkpt lat="33.810313" lon="-118.393867">
  <ele>0.0</ele>
  <time>2026-09-01T01:17:56Z</time>
  <course>188.32</course>
  <speed>0.0</speed>
  <fix>3d</fix>
</trkpt>
<trkpt lat="33.810313" lon="-118.393867">
  <ele>-0.12</ele>
  <time>2026-09-01T01:17:56Z</time>
  <course>0.0</course>
  <speed>0.0</speed>
  <fix>3d</fix>
</trkpt>
<trkpt lat="33.810313" lon="-118.393867">
  <ele>0.0</ele>
  <time>2026-09-01T01:17:56Z</time>
  <course>188.34</course>
  <speed>0.0</speed>
  <fix>3d</fix>
</trkpt>
<trkpt lat="33.810313" lon="-118.393867">
  <ele>-0.12</ele>
  <time>2026-09-01T01:17:56Z</time>
  <course>0.0</course>
  <speed>0.0</speed>
  <fix>3d</fix>
</trkpt>
<trkpt lat="33.810313" lon="-118.393867">
  <ele>0.0</ele>
  <time>2026-09-01T01:17:56Z</time>
  <course>188.36</course>
  <speed>0.0</speed>
  <fix>3d</fix>
</trkpt>
<trkpt lat="33.810313" lon="-118.393867">
  <ele>-0.12</ele>
  <time>2026-09-01T01:17:56Z</time>
  <course>0.0</course>
  <speed>0.0</speed>
  <fix>3d</fix>
</trkpt>
<trkpt lat="33.810313" lon="-118.393867">
  <ele>0.0</ele>
  <time>2026-09-01T01:17:56Z</time>
  <course>188.38</course>
  <speed>0.0</speed>
  <fix>3d</fix>
</trkpt>
<trkpt lat="33.810313" lon="-118.393867">
  <ele>-0.12</ele>
  <time>2026-09-01T01:17:56Z</time>
  <course>0.0</course>
  <speed>0.0</speed>
  <fix>3d</fix>
</trkpt>
<trkpt lat="33.810313" lon="-118.393867">
  <ele>0.0</ele>
  <time>2026-09-01T01:17:56Z</time>
  <course>188.39</course>
  <speed>0.0</speed>
  <fix>3d</fix>
</trkpt>
<trkpt lat="33.810313" lon="-118.393867">
  <ele>-0.12</ele>
  <time>2026-09-01T01:17:56Z</time>
  <course>0.0</course>
  <speed>0.0</speed>
  <fix>3d</fix>
</trkpt>
<trkpt lat="33.810313" lon="-118.393867">
  <ele>0.0</ele>
  <time>2026-09-01T01:17:56Z</time>
  <course>188.41</course>
  <speed>0.0</speed>
  <fix>3d</fix>
</trkpt>
<trkpt lat="33.810313" lon="-118.393867">
  <ele>-0.12</ele>
  <time>2026-09-01T01:17:56Z</time>
  <course>0.0</course>
  <speed>0.0</speed>
  <fix>3d</fix>
</trkpt>
<trkpt lat="33.810313" lon="-118.393867">
  <ele>0.0</ele>
  <time>2026-09-01T01:17:56Z</time>
  <course>188.42</course>
  <speed>0.0</speed>
  <fix>3d</fix>
</trkpt>
<trkpt lat="33.810313" lon="-118.393867">
  <ele>-0.12</ele>
  <time>2026-09-01T01:17:56Z</time>
  <course>0.0</course>
  <speed>0.0</speed>
  <fix>3d</fix>
</trkpt>
<trkpt lat="33.810313" lon="-118.393867">
  <ele>0.0</ele>
  <time>2026-09-01T01:17:56Z</time>
  <course>188.44</course>
  <speed>0.0</speed>
  <fix>3d</fix>
</trkpt>
<trkpt lat="33.810313" lon="-118.393867">
  <ele>-0.12</ele>
  <time>2026-09-01T01:17:56Z</time>
  <course>0.0</course>
  <speed>0.0</speed>
  <fix>3d</fix>
</trkpt>
<trkpt lat="33.810313" lon="-118.393867">
  <ele>0.0</ele>
  <time>2026-09-01T01:17:56Z</time>
  <course>188.45</course>
  <speed>0.0</speed>
  <fix>3d</fix>
</trkpt>
<trkpt lat="33.810313" lon="-118.393867">
  <ele>-0.13</ele>
  <time>2026-09-01T01:17:56Z</time>
  <course>0.0</course>
  <speed>0.0</speed>
  <fix>3d</fix>
</trkpt>
<trkpt lat="33.810313" lon="-118.393867">
  <ele>0.0</ele>
  <time>2026-09-01T01:17:56Z</time>
  <course>188.46</course>
  <speed>0.0</speed>
  <fix>3d</fix>
</trkpt>
<trkpt lat="33.810313" lon="-118.393867">
  <ele>-0.13</ele>
  <time>2026-09-01T01:17:56Z</time>
  <course>0.0</course>
  <speed>0.0</speed>
  <fix>3d</fix>
</trkpt>
<trkpt lat="33.810313" lon="-118.393867">
  <ele>0.0</ele>
  <time>2026-09-01T01:17:56Z</time>
  <course>188.47</course>
  <speed>0.0</speed>
  <fix>3d</fix>
</trkpt>
<trkpt lat="33.810313" lon="-118.393867">
  <ele>-0.13</ele>
  <time>2026-09-01T01:17:56Z</time>
  <course>0.0</course>
  <speed>0.0</speed>
  <fix>3d</fix>
</trkpt>
<trkpt lat="33.810313" lon="-118.393867">
  <ele>0.0</ele>
  <time>2026-09-01T01:17:56Z</time>
  <course>188.48</course>
  <speed>0.0</speed>
  <fix>3d</fix>
</trkpt>
<trkpt lat="33.810313" lon="-118.393867">
  <ele>-0.13</ele>
  <time>2026-09-01T01:17:56Z</time>
  <course>0.0</course>
  <speed>0.0</speed>
  <fix>3d</fix>
</trkpt>
<trkpt lat="33.810313" lon="-118.393867">
  <ele>0.0</ele>
  <time>2026-09-01T01:17:56Z</time>
  <course>188.49</course>
  <speed>0.0</speed>
  <fix>3d</fix>
</trkpt>
<trkpt lat="33.810313" lon="-118.393867">
  <ele>-0.13</ele>
  <time>2026-09-01T01:17:56Z</time>
  <course>0.0</course>
  <speed>0.0</speed>
  <fix>3d</fix>
</trkpt>
<trkpt lat="33.810313" lon="-118.393867">
  <ele>0.0</ele>
  <time>2026-09-01T01:17:56Z</time>
  <course>188.5</course>
  <speed>0.0</speed>
  <fix>3d</fix>
</trkpt>
<trkpt lat="33.810313" lon="-118.393867">
  <ele>-0.13</ele>
  <time>2026-09-01T01:17:56Z</time>
  <course>0.0</course>
  <speed>0.0</speed>
  <fix>3d</fix>
</trkpt>
<trkpt lat="33.810313" lon="-118.393867">
  <ele>0.0</ele>
  <time>2026-09-01T01:17:56Z</time>
  <course>188.51</course>
  <speed>0.0</speed>
  <fix>3d</fix>
</trkpt>
<trkpt lat="33.810313" lon="-118.393867">
  <ele>-0.12</ele>
  <time>2026-09-01T01:17:56Z</time>
  <course>0.0</course>
  <speed>0.0</speed>
  <fix>3d</fix>
</trkpt>
<trkpt lat="33.810313" lon="-118.393867">
  <ele>0.0</ele>
  <time>2026-09-01T01:17:56Z</time>
  <course>188.52</course>
  <speed>0.0</speed>
  <fix>3d</fix>
</trkpt>
<trkpt lat="33.810313" lon="-118.393867">
  <ele>-0.12</ele>
  <time>2026-09-01T01:17:56Z</time>
  <course>0.0</course>
  <speed>0.0</speed>
  <fix>3d</fix>
</trkpt>
<trkpt lat="33.810313" lon="-118.393867">
  <ele>0.0</ele>
  <time>2026-09-01T01:17:56Z</time>
  <course>188.53</course>
  <speed>0.0</speed>
  <fix>3d</fix>
</trkpt>
<trkpt lat="33.810313" lon="-118.393867">
  <ele>-0.12</ele>
  <time>2026-09-01T01:17:56Z</time>
  <course>0.0</course>
  <speed>0.0</speed>
  <fix>3d</fix>
</trkpt>
<trkpt lat="33.810313" lon="-118.393867">
  <ele>0.0</ele>
  <time>2026-09-01T01:17:56Z</time>
  <course>188.53</course>
  <speed>0.0</speed>
  <fix>3d</fix>
</trkpt>
<trkpt lat="33.810313" lon="-118.393867">
  <ele>-0.12</ele>
  <time>2026-09-01T01:17:56Z</time>
  <course>0.0</course>
  <speed>0.0</speed>
  <fix>3d</fix>
</trkpt>
<trkpt lat="33.810313" lon="-118.393867">
  <ele>0.0</ele>
  <time>2026-09-01T01:17:56Z</time>
  <course>188.54</course>
  <speed>0.0</speed>
  <fix>3d</fix>
</trkpt>
<trkpt lat="33.810313" lon="-118.393867">
  <ele>-0.12</ele>
  <time>2026-09-01T01:17:56Z</time>
  <course>0.0</course>
  <speed>0.0</speed>
  <fix>3d</fix>
</trkpt>
<trkpt lat="33.810313" lon="-118.393867">
  <ele>0.0</ele>
  <time>2026-09-01T01:17:56Z</time>
  <course>188.54</course>
  <speed>0.0</speed>
  <fix>3d</fix>
</trkpt>
<trkpt lat="33.810313" lon="-118.393867">
  <ele>-0.12</ele>
  <time>2026-09-01T01:17:56Z</time>
  <course>0.0</course>
  <speed>0.0</speed>
  <fix>3d</fix>
</trkpt>
<trkpt lat="33.810313" lon="-118.393867">
  <ele>0.0</ele>
  <time>2026-09-01T01:17:56Z</time>
  <course>188.54</course>
  <speed>0.0</speed>
  <fix>3d</fix>
</trkpt>
<trkpt lat="33.810313" lon="-118.393867">
  <ele>-0.12</ele>
  <time>2026-09-01T01:17:56Z</time>
  <course>0.0</course>
  <speed>0.0</speed>
  <fix>3d</fix>
</trkpt>
<trkpt lat="33.810313" lon="-118.393867">
  <ele>0.0</ele>
  <time>2026-09-01T01:17:56Z</time>
  <course>188.55</course>
  <speed>0.0</speed>
  <fix>3d</fix>
</trkpt>
<trkpt lat="33.810313" lon="-118.393867">
  <ele>-0.12</ele>
  <time>2026-09-01T01:17:56Z</time>
  <course>0.0</course>
  <speed>0.0</speed>
  <fix>3d</fix>
</trkpt>
<trkpt lat="33.810313" lon="-118.393867">
  <ele>0.0</ele>
  <time>2026-09-01T01:17:56Z</time>
  <course>188.55</course>
  <speed>0.0</speed>
  <fix>3d</fix>
</trkpt>
<trkpt lat="33.810313" lon="-118.393867">
  <ele>-0.12</ele>
  <time>2026-09-01T01:17:56Z</time>
  <course>0.0</course>
  <speed>0.0</speed>
  <fix>3d</fix>
</trkpt>
<trkpt lat="33.810313" lon="-118.393867">
  <ele>0.0</ele>
  <time>2026-09-01T01:17:56Z</time>
  <course>188.55</course>
  <speed>0.0</speed>
  <fix>3d</fix>
</trkpt>
<trkpt lat="33.810313" lon="-118.393867">
  <ele>-0.12</ele>
  <time>2026-09-01T01:17:56Z</time>
  <course>0.0</course>
  <speed>0.0</speed>
  <fix>3d</fix>
</trkpt>
<trkpt lat="33.810313" lon="-118.393867">
  <ele>-0.127</ele>
  <time>2026-09-01T01:17:56Z</time>
  <course>188.55</course>
  <speed>0.0</speed>
  <fix>3d</fix>
</trkpt>
<trkpt lat="33.810313" lon="-118.393867">
  <ele>-0.13</ele>
  <time>2026-09-01T01:17:56Z</time>
  <course>0.0</course>
  <speed>0.0</speed>
  <fix>3d</fix>
</trkpt>
<trkpt lat="33.810313" lon="-118.393867">
  <ele>-0.126</ele>
  <time>2026-09-01T01:17:56Z</time>
  <course>188.56</course>
  <speed>0.0</speed>
  <fix>3d</fix>
</trkpt>
<trkpt lat="33.810313" lon="-118.393867">
  <ele>-0.13</ele>
  <time>2026-09-01T01:17:56Z</time>
  <course>0.0</course>
  <speed>0.0</speed>
  <fix>3d</fix>
</trkpt>
<trkpt lat="33.810313" lon="-118.393867">
  <ele>-0.126</ele>
  <time>2026-09-01T01:17:56Z</time>
  <course>188.56</course>
  <speed>0.0</speed>
  <fix>3d</fix>
</trkpt>
<trkpt lat="33.810313" lon="-118.393867">
  <ele>-0.13</ele>
  <time>2026-09-01T01:17:56Z</time>
  <course>0.0</course>
  <speed>0.0</speed>
  <fix>3d</fix>
</trkpt>
<trkpt lat="33.810313" lon="-118.393867">
  <ele>-0.125</ele>
  <time>2026-09-01T01:17:56Z</time>
  <course>188.56</course>
  <speed>0.0</speed>
  <fix>3d</fix>
</trkpt>
<trkpt lat="33.810313" lon="-118.393867">
  <ele>-0.13</ele>
  <time>2026-09-01T01:17:56Z</time>
  <course>0.0</course>
  <speed>0.0</speed>
  <fix>3d</fix>
</trkpt>
<trkpt lat="33.810313" lon="-118.393867">
  <ele>-0.124</ele>
  <time>2026-09-01T01:17:56Z</time>
  <course>188.56</course>
  <speed>0.0</speed>
  <fix>3d</fix>
</trkpt>
<trkpt lat="33.810313" lon="-118.393867">
  <ele>-0.12</ele>
  <time>2026-09-01T01:17:56Z</time>
  <course>0.0</course>
  <speed>0.0</speed>
  <fix>3d</fix>
</trkpt>
<trkpt lat="33.810313" lon="-118.393867">
  <ele>-0.122</ele>
  <time>2026-09-01T01:17:56Z</time>
  <course>188.56</course>
  <speed>0.0</speed>
  <fix>3d</fix>
</trkpt>
<trkpt lat="33.810313" lon="-118.393867">
  <ele>-0.12</ele>
  <time>2026-09-01T01:17:56Z</time>
  <course>0.0</course>
  <speed>0.0</speed>
  <fix>3d</fix>
</trkpt>
<trkpt lat="33.810313" lon="-118.393867">
  <ele>-0.121</ele>
  <time>2026-09-01T01:17:56Z</time>
  <course>188.56</course>
  <speed>0.0</speed>
  <fix>3d</fix>
</trkpt>
<trkpt lat="33.810313" lon="-118.393867">
  <ele>-0.12</ele>
  <time>2026-09-01T01:17:56Z</time>
  <course>0.0</course>
  <speed>0.0</speed>
  <fix>3d</fix>
</trkpt>
<trkpt lat="33.810313" lon="-118.393867">
  <ele>-0.123</ele>
  <time>2026-09-01T01:17:56Z</time>
  <course>188.56</course>
  <speed>0.0</speed>
  <fix>3d</fix>
</trkpt>
<trkpt lat="33.810313" lon="-118.393867">
  <ele>-0.12</ele>
  <time>2026-09-01T01:17:56Z</time>
  <course>0.0</course>
  <speed>0.0</speed>
  <fix>3d</fix>
</trkpt>
<trkpt lat="33.810313" lon="-118.393867">
  <ele>-0.126</ele>
  <time>2026-09-01T01:17:56Z</time>
  <course>188.55</course>
  <speed>0.0</speed>
  <fix>3d</fix>
</trkpt>
<trkpt lat="33.810313" lon="-118.393867">
  <ele>-0.12</ele>
  <time>2026-09-01T01:17:56Z</time>
  <course>0.0</course>
  <speed>0.0</speed>
  <fix>3d</fix>
</trkpt>
<trkpt lat="33.810313" lon="-118.393867">
  <ele>-0.13</ele>
  <time>2026-09-01T01:17:56Z</time>
  <course>188.55</course>
  <speed>0.0</speed>
  <fix>3d</fix>
</trkpt>
<trkpt lat="33.810313" lon="-118.393867">
  <ele>-0.12</ele>
  <time>2026-09-01T01:17:56Z</time>
  <course>0.0</course>
  <speed>0.0</speed>
  <fix>3d</fix>
</trkpt>
<trkpt lat="33.810313" lon="-118.393867">
  <ele>-0.132</ele>
  <time>2026-09-01T01:17:56Z</time>
  <course>188.55</course>
  <speed>0.0</speed>
  <fix>3d</fix>
</trkpt>
<trkpt lat="33.810313" lon="-118.393867">
  <ele>-0.12</ele>
  <time>2026-09-01T01:17:56Z</time>
  <course>0.0</course>
  <speed>0.0</speed>
  <fix>3d</fix>
</trkpt>
<trkpt lat="33.810313" lon="-118.393867">
  <ele>-0.133</ele>
  <time>2026-09-01T01:17:56Z</time>
  <course>188.55</course>
  <speed>0.0</speed>
  <fix>3d</fix>
</trkpt>
<trkpt lat="33.810313" lon="-118.393867">
  <ele>-0.12</ele>
  <time>2026-09-01T01:17:56Z</time>
  <course>0.0</course>
  <speed>0.0</speed>
  <fix>3d</fix>
</trkpt>
<trkpt lat="33.810313" lon="-118.393867">
  <ele>-0.134</ele>
  <time>2026-09-01T01:17:56Z</time>
  <course>188.55</course>
  <speed>0.0</speed>
  <fix>3d</fix>
</trkpt>
<trkpt lat="33.810313" lon="-118.393867">
  <ele>-0.12</ele>
  <time>2026-09-01T01:17:56Z</time>
  <course>0.0</course>
  <speed>0.0</speed>
  <fix>3d</fix>
</trkpt>
<trkpt lat="33.810313" lon="-118.393867">
  <ele>-0.135</ele>
  <time>2026-09-01T01:17:56Z</time>
  <course>188.55</course>
  <speed>0.0</speed>
  <fix>3d</fix>
</trkpt>
<trkpt lat="33.810313" lon="-118.393867">
  <ele>-0.12</ele>
  <time>2026-09-01T01:17:56Z</time>
  <course>0.0</course>
  <speed>0.0</speed>
  <fix>3d</fix>
</trkpt>
<trkpt lat="33.810313" lon="-118.393867">
  <ele>-0.135</ele>
  <time>2026-09-01T01:17:56Z</time>
  <course>188.55</course>
  <speed>0.0</speed>
  <fix>3d</fix>
</trkpt>
<trkpt lat="33.810313" lon="-118.393867">
  <ele>-0.12</ele>
  <time>2026-09-01T01:17:56Z</time>
  <course>0.0</course>
  <speed>0.0</speed>
  <fix>3d</fix>
</trkpt>
<trkpt lat="33.810313" lon="-118.393867">
  <ele>-0.134</ele>
  <time>2026-09-01T01:17:56Z</time>
  <course>188.55</course>
  <speed>0.0</speed>
  <fix>3d</fix>
</trkpt>
<trkpt lat="33.810313" lon="-118.393867">
  <ele>-0.12</ele>
  <time>2026-09-01T01:17:56Z</time>
  <course>0.0</course>
  <speed>0.0</speed>
  <fix>3d</fix>
</trkpt>
<trkpt lat="33.810313" lon="-118.393867">
  <ele>-0.132</ele>
  <time>2026-09-01T01:17:56Z</time>
  <course>188.54</course>
  <speed>0.0</speed>
  <fix>3d</fix>
</trkpt>
<trkpt lat="33.810313" lon="-118.393867">
  <ele>-0.13</ele>
  <time>2026-09-01T01:17:56Z</time>
  <course>0.0</course>
  <speed>0.0</speed>
  <fix>3d</fix>
</trkpt>
<trkpt lat="33.810313" lon="-118.393867">
  <ele>-0.129</ele>
  <time>2026-09-01T01:17:56Z</time>
  <course>188.54</course>
  <speed>0.0</speed>
  <fix>3d</fix>
</trkpt>
<trkpt lat="33.810313" lon="-118.393867">
  <ele>-0.13</ele>
  <time>2026-09-01T01:17:56Z</time>
  <course>0.0</course>
  <speed>0.0</speed>
  <fix>3d</fix>
</trkpt>
<trkpt lat="33.810313" lon="-118.393867">
  <ele>-0.126</ele>
  <time>2026-09-01T01:17:56Z</time>
  <course>188.53</course>
  <speed>0.0</speed>
  <fix>3d</fix>
</trkpt>
<trkpt lat="33.810313" lon="-118.393867">
  <ele>-0.12</ele>
  <time>2026-09-01T01:17:56Z</time>
  <course>0.0</course>
  <speed>0.0</speed>
  <fix>3d</fix>
</trkpt>
<trkpt lat="33.810313" lon="-118.393867">
  <ele>-0.124</ele>
  <time>2026-09-01T01:17:56Z</time>
  <course>188.53</course>
  <speed>0.0</speed>
  <fix>3d</fix>
</trkpt>
<trkpt lat="33.810313" lon="-118.393867">
  <ele>-0.12</ele>
  <time>2026-09-01T01:17:56Z</time>
  <course>0.0</course>
  <speed>0.0</speed>
  <fix>3d</fix>
</trkpt>
<trkpt lat="33.810313" lon="-118.393867">
  <ele>-0.122</ele>
  <time>2026-09-01T01:17:56Z</time>
  <course>188.53</course>
  <speed>0.0</speed>
  <fix>3d</fix>
</trkpt>
<trkpt lat="33.810313" lon="-118.393867">
  <ele>-0.12</ele>
  <time>2026-09-01T01:17:56Z</time>
  <course>0.0</course>
  <speed>0.0</speed>
  <fix>3d</fix>
</trkpt>
<trkpt lat="33.810313" lon="-118.393867">
  <ele>-0.12</ele>
  <time>2026-09-01T01:17:56Z</time>
  <course>188.52</course>
  <speed>0.0</speed>
  <fix>3d</fix>
</trkpt>
<trkpt lat="33.810313" lon="-118.393867">
  <ele>-0.12</ele>
  <time>2026-09-01T01:17:56Z</time>
  <course>0.0</course>
  <speed>0.0</speed>
  <fix>3d</fix>
</trkpt>
<trkpt lat="33.810313" lon="-118.393867">
  <ele>-0.119</ele>
  <time>2026-09-01T01:17:56Z</time>
  <course>188.52</course>
  <speed>0.0</speed>
  <fix>3d</fix>
</trkpt>
<trkpt lat="33.810313" lon="-118.393867">
  <ele>-0.12</ele>
  <time>2026-09-01T01:17:56Z</time>
  <course>0.0</course>
  <speed>0.0</speed>
  <fix>3d</fix>
</trkpt>
<trkpt lat="33.810313" lon="-118.393867">
  <ele>-0.119</ele>
  <time>2026-09-01T01:17:56Z</time>
  <course>188.51</course>
  <speed>0.0</speed>
  <fix>3d</fix>
</trkpt>
<trkpt lat="33.810313" lon="-118.393867">
  <ele>-0.12</ele>
  <time>2026-09-01T01:17:56Z</time>
  <course>0.0</course>
  <speed>0.0</speed>
  <fix>3d</fix>
</trkpt>
<trkpt lat="33.810313" lon="-118.393867">
  <ele>-0.119</ele>
  <time>2026-09-01T01:17:56Z</time>
  <course>188.5</course>
  <speed>0.0</speed>
  <fix>3d</fix>
</trkpt>
<trkpt lat="33.810313" lon="-118.393867">
  <ele>-0.12</ele>
  <time>2026-09-01T01:17:56Z</time>
  <course>0.0</course>
  <speed>0.0</speed>
  <fix>3d</fix>
</trkpt>
<trkpt lat="33.810313" lon="-118.393867">
  <ele>-0.119</ele>
  <time>2026-09-01T01:17:56Z</time>
  <course>188.5</course>
  <speed>0.0</speed>
  <fix>3d</fix>
</trkpt>
<trkpt lat="33.810313" lon="-118.393867">
  <ele>-0.12</ele>
  <time>2026-09-01T01:17:56Z</time>
  <course>0.0</course>
  <speed>0.0</speed>
  <fix>3d</fix>
</trkpt>
<trkpt lat="33.810313" lon="-118.393867">
  <ele>-0.117</ele>
  <time>2026-09-01T01:17:56Z</time>
  <course>188.49</course>
  <speed>0.0</speed>
  <fix>3d</fix>
</trkpt>
<trkpt lat="33.810313" lon="-118.393867">
  <ele>-0.12</ele>
  <time>2026-09-01T01:17:56Z</time>
  <course>0.0</course>
  <speed>0.0</speed>
  <fix>3d</fix>
</trkpt>
<trkpt lat="33.810313" lon="-118.393867">
  <ele>-0.116</ele>
  <time>2026-09-01T01:17:56Z</time>
  <course>188.49</course>
  <speed>0.0</speed>
  <fix>3d</fix>
</trkpt>
<trkpt lat="33.810313" lon="-118.393867">
  <ele>-0.12</ele>
  <time>2026-09-01T01:17:56Z</time>
  <course>0.0</course>
  <speed>0.0</speed>
  <fix>3d</fix>
</trkpt>
<trkpt lat="33.810313" lon="-118.393867">
  <ele>-0.115</ele>
  <time>2026-09-01T01:17:56Z</time>
  <course>188.48</course>
  <speed>0.01</speed>
  <fix>3d</fix>
</trkpt>
<trkpt lat="33.810313" lon="-118.393867">
  <ele>-0.12</ele>
  <time>2026-09-01T01:17:56Z</time>
  <course>0.0</course>
  <speed>0.0</speed>
  <fix>3d</fix>
</trkpt>
<trkpt lat="33.810313" lon="-118.393867">
  <ele>-0.114</ele>
  <time>2026-09-01T01:17:56Z</time>
  <course>188.47</course>
  <speed>0.01</speed>
  <fix>3d</fix>
</trkpt>
<trkpt lat="33.810313" lon="-118.393867">
  <ele>-0.12</ele>
  <time>2026-09-01T01:17:56Z</time>
  <course>0.0</course>
  <speed>0.0</speed>
  <fix>3d</fix>
</trkpt>
<trkpt lat="33.810313" lon="-118.393867">
  <ele>-0.114</ele>
  <time>2026-09-01T01:17:56Z</time>
  <course>188.47</course>
  <speed>0.01</speed>
  <fix>3d</fix>
</trkpt>
<trkpt lat="33.810313" lon="-118.393867">
  <ele>-0.12</ele>
  <time>2026-09-01T01:17:56Z</time>
  <course>0.0</course>
  <speed>0.0</speed>
  <fix>3d</fix>
</trkpt>
<trkpt lat="33.810313" lon="-118.393867">
  <ele>-0.112</ele>
  <time>2026-09-01T01:17:56Z</time>
  <course>188.46</course>
  <speed>0.01</speed>
  <fix>3d</fix>
</trkpt>
<trkpt lat="33.810313" lon="-118.393867">
  <ele>-0.12</ele>
  <time>2026-09-01T01:17:56Z</time>
  <course>0.0</course>
  <speed>0.0</speed>
  <fix>3d</fix>
</trkpt>
<trkpt lat="33.810313" lon="-118.393867">
  <ele>-0.109</ele>
  <time>2026-09-01T01:17:56Z</time>
  <course>188.45</course>
  <speed>0.01</speed>
  <fix>3d</fix>
</trkpt>
<trkpt lat="33.810313" lon="-118.393867">
  <ele>-0.12</ele>
  <time>2026-09-01T01:17:56Z</time>
  <course>0.0</course>
  <speed>0.0</speed>
  <fix>3d</fix>
</trkpt>
<trkpt lat="33.810313" lon="-118.393867">
  <ele>-0.108</ele>
  <time>2026-09-01T01:17:56Z</time>
  <course>188.45</course>
  <speed>0.01</speed>
  <fix>3d</fix>
</trkpt>
<trkpt lat="33.810313" lon="-118.393867">
  <ele>-0.12</ele>
  <time>2026-09-01T01:17:56Z</time>
  <course>0.0</course>
  <speed>0.0</speed>
  <fix>3d</fix>
</trkpt>
<trkpt lat="33.810313" lon="-118.393867">
  <ele>-0.109</ele>
  <time>2026-09-01T01:17:56Z</time>
  <course>188.44</course>
  <speed>0.01</speed>
  <fix>3d</fix>
</trkpt>
<trkpt lat="33.810313" lon="-118.393867">
  <ele>-0.12</ele>
  <time>2026-09-01T01:17:56Z</time>
  <course>0.0</course>
  <speed>0.0</speed>
  <fix>3d</fix>
</trkpt>
<trkpt lat="33.810313" lon="-118.393867">
  <ele>-0.112</ele>
  <time>2026-09-01T01:17:56Z</time>
  <course>188.43</course>
  <speed>0.01</speed>
  <fix>3d</fix>
</trkpt>
<trkpt lat="33.810313" lon="-118.393867">
  <ele>-0.12</ele>
  <time>2026-09-01T01:17:56Z</time>
  <course>0.0</course>
  <speed>0.0</speed>
  <fix>3d</fix>
</trkpt>
<trkpt lat="33.810313" lon="-118.393867">
  <ele>-0.115</ele>
  <time>2026-09-01T01:17:56Z</time>
  <course>188.43</course>
  <speed>0.01</speed>
  <fix>3d</fix>
</trkpt>
<trkpt lat="33.810313" lon="-118.393867">
  <ele>-0.12</ele>
  <time>2026-09-01T01:17:56Z</time>
  <course>0.0</course>
  <speed>0.0</speed>
  <fix>3d</fix>
</trkpt>
<trkpt lat="33.810313" lon="-118.393867">
  <ele>-0.118</ele>
  <time>2026-09-01T01:17:56Z</time>
  <course>188.42</course>
  <speed>0.01</speed>
  <fix>3d</fix>
</trkpt>
<trkpt lat="33.810313" lon="-118.393867">
  <ele>-0.12</ele>
  <time>2026-09-01T01:17:56Z</time>
  <course>0.0</course>
  <speed>0.0</speed>
  <fix>3d</fix>
</trkpt>
<trkpt lat="33.810313" lon="-118.393867">
  <ele>-0.118</ele>
  <time>2026-09-01T01:17:56Z</time>
  <course>188.41</course>
  <speed>0.01</speed>
  <fix>3d</fix>
</trkpt>
<trkpt lat="33.810313" lon="-118.393867">
  <ele>-0.12</ele>
  <time>2026-09-01T01:17:56Z</time>
  <course>0.0</course>
  <speed>0.0</speed>
  <fix>3d</fix>
</trkpt>
<trkpt lat="33.810313" lon="-118.393867">
  <ele>-0.118</ele>
  <time>2026-09-01T01:17:56Z</time>
  <course>188.41</course>
  <speed>0.01</speed>
  <fix>3d</fix>
</trkpt>
<trkpt lat="33.810313" lon="-118.393867">
  <ele>-0.12</ele>
  <time>2026-09-01T01:17:56Z</time>
  <course>0.0</course>
  <speed>0.0</speed>
  <fix>3d</fix>
</trkpt>
<trkpt lat="33.810313" lon="-118.393867">
  <ele>-0.118</ele>
  <time>2026-09-01T01:17:56Z</time>
  <course>188.4</course>
  <speed>0.01</speed>
  <fix>3d</fix>
</trkpt>
<trkpt lat="33.810313" lon="-118.393867">
  <ele>-0.12</ele>
  <time>2026-09-01T01:17:56Z</time>
  <course>0.0</course>
  <speed>0.0</speed>
  <fix>3d</fix>
</trkpt>
<trkpt lat="33.810313" lon="-118.393867">
  <ele>-0.119</ele>
  <time>2026-09-01T01:17:56Z</time>
  <course>188.39</course>
  <speed>0.01</speed>
  <fix>3d</fix>
</trkpt>
<trkpt lat="33.810313" lon="-118.393867">
  <ele>-0.12</ele>
  <time>2026-09-01T01:17:56Z</time>
  <course>0.0</course>
  <speed>0.0</speed>
  <fix>3d</fix>
</trkpt>
<trkpt lat="33.810313" lon="-118.393867">
  <ele>-0.119</ele>
  <time>2026-09-01T01:17:56Z</time>
  <course>188.38</course>
  <speed>0.01414213562373095</speed>
  <fix>3d</fix>
</trkpt>
<trkpt lat="33.810313" lon="-118.393867">
  <ele>-0.12</ele>
  <time>2026-09-01T01:17:56Z</time>
  <course>0.0</course>
  <speed>0.0</speed>
  <fix>3d</fix>
</trkpt>
<trkpt lat="33.810313" lon="-118.393867">
  <ele>-0.117</ele>
  <time>2026-09-01T01:17:56Z</time>
  <course>188.38</course>
  <speed>0.01414213562373095</speed>
  <fix>3d</fix>
</trkpt>
<trkpt lat="33.810313" lon="-118.393867">
  <ele>-0.12</ele>
  <time>2026-09-01T01:17:56Z</time>
  <course>0.0</course>
  <speed>0.0</speed>
  <fix>3d</fix>
</trkpt>
<trkpt lat="33.810313" lon="-118.393867">
  <ele>-0.115</ele>
  <time>2026-09-01T01:17:56Z</time>
  <course>188.37</course>
  <speed>0.01414213562373095</speed>
  <fix>3d</fix>
</trkpt>
<trkpt lat="33.810313" lon="-118.393867">
  <ele>-0.12</ele>
  <time>2026-09-01T01:17:56Z</time>
  <course>0.0</course>
  <speed>0.0</speed>
  <fix>3d</fix>
</trkpt>
<trkpt lat="33.810313" lon="-118.393867">
  <ele>-0.113</ele>
  <time>2026-09-01T01:17:56Z</time>
  <course>188.36</course>
  <speed>0.01414213562373095</speed>
  <fix>3d</fix>
</trkpt>
<trkpt lat="33.810313" lon="-118.393867">
  <ele>-0.12</ele>
  <time>2026-09-01T01:17:56Z</time>
  <course>0.0</course>
  <speed>0.0</speed>
  <fix>3d</fix>
</trkpt>
<trkpt lat="33.810313" lon="-118.393867">
  <ele>-0.112</ele>
  <time>2026-09-01T01:17:56Z</time>
  <course>188.35</course>
  <speed>0.01414213562373095</speed>
  <fix>3d</fix>
</trkpt>
<trkpt lat="33.810313" lon="-118.393867">
  <ele>-0.12</ele>
  <time>2026-09-01T01:17:56Z</time>
  <course>0.0</course>
  <speed>0.0</speed>
  <fix>3d</fix>
</trkpt>
<trkpt lat="33.810313" lon="-118.393867">
  <ele>-0.113</ele>
  <time>2026-09-01T01:17:56Z</time>
  <course>188.34</course>
  <speed>0.01414213562373095</speed>
  <fix>3d</fix>
</trkpt>
<trkpt lat="33.810313" lon="-118.393867">
  <ele>-0.12</ele>
  <time>2026-09-01T01:17:56Z</time>
  <course>0.0</course>
  <speed>0.0</speed>
  <fix>3d</fix>
</trkpt>
<trkpt lat="33.810313" lon="-118.393867">
  <ele>-0.115</ele>
  <time>2026-09-01T01:17:56Z</time>
  <course>188.34</course>
  <speed>0.01414213562373095</speed>
  <fix>3d</fix>
</trkpt>
<trkpt lat="33.810313" lon="-118.393867">
  <ele>-0.12</ele>
  <time>2026-09-01T01:17:56Z</time>
  <course>0.0</course>
  <speed>0.0</speed>
  <fix>3d</fix>
</trkpt>
<trkpt lat="33.810313" lon="-118.393867">
  <ele>-0.118</ele>
  <time>2026-09-01T01:17:56Z</time>
  <course>188.33</course>
  <speed>0.01414213562373095</speed>
  <fix>3d</fix>
</trkpt>
<trkpt lat="33.810313" lon="-118.393867">
  <ele>-0.12</ele>
  <time>2026-09-01T01:17:56Z</time>
  <course>0.0</course>
  <speed>0.0</speed>
  <fix>3d</fix>
</trkpt>
<trkpt lat="33.810313" lon="-118.393867">
  <ele>-0.121</ele>
  <time>2026-09-01T01:17:56Z</time>
  <course>188.32</course>
  <speed>0.01414213562373095</speed>
  <fix>3d</fix>
</trkpt>
<trkpt lat="33.810313" lon="-118.393867">
  <ele>-0.12</ele>
  <time>2026-09-01T01:17:56Z</time>
  <course>0.0</course>
  <speed>0.0</speed>
  <fix>3d</fix>
</trkpt>
<trkpt lat="33.810313" lon="-118.393867">
  <ele>-0.124</ele>
  <time>2026-09-01T01:17:56Z</time>
  <course>188.31</course>
  <speed>0.01414213562373095</speed>
  <fix>3d</fix>
</trkpt>
<trkpt lat="33.810313" lon="-118.393867">
  <ele>-0.12</ele>
  <time>2026-09-01T01:17:56Z</time>
  <course>0.0</course>
  <speed>0.0</speed>
  <fix>3d</fix>
</trkpt>
<trkpt lat="33.810313" lon="-118.393867">
  <ele>-0.124</ele>
  <time>2026-09-01T01:17:56Z</time>
  <course>188.31</course>
  <speed>0.01414213562373095</speed>
  <fix>3d</fix>
</trkpt>
<trkpt lat="33.810313" lon="-118.393867">
  <ele>-0.12</ele>
  <time>2026-09-01T01:17:56Z</time>
  <course>0.0</course>
  <speed>0.0</speed>
  <fix>3d</fix>
</trkpt>
<trkpt lat="33.810313" lon="-118.393867">
  <ele>-0.123</ele>
  <time>2026-09-01T01:17:56Z</time>
  <course>188.3</course>
  <speed>0.01414213562373095</speed>
  <fix>3d</fix>
</trkpt>
<trkpt lat="33.810313" lon="-118.393867">
  <ele>-0.12</ele>
  <time>2026-09-01T01:17:56Z</time>
  <course>0.0</course>
  <speed>0.0</speed>
  <fix>3d</fix>
</trkpt>
<trkpt lat="33.810313" lon="-118.393867">
  <ele>-0.121</ele>
  <time>2026-09-01T01:17:56Z</time>
  <course>188.29</course>
  <speed>0.01414213562373095</speed>
  <fix>3d</fix>
</trkpt>
<trkpt lat="33.810313" lon="-118.393867">
  <ele>-0.12</ele>
  <time>2026-09-01T01:17:56Z</time>
  <course>0.0</course>
  <speed>0.0</speed>
  <fix>3d</fix>
</trkpt>
<trkpt lat="33.810313" lon="-118.393867">
  <ele>-0.119</ele>
  <time>2026-09-01T01:17:56Z</time>
  <course>188.28</course>
  <speed>0.01414213562373095</speed>
  <fix>3d</fix>
</trkpt>
<trkpt lat="33.810313" lon="-118.393867">
  <ele>-0.12</ele>
  <time>2026-09-01T01:17:56Z</time>
  <course>0.0</course>
  <speed>0.0</speed>
  <fix>3d</fix>
</trkpt>
<trkpt lat="33.810313" lon="-118.393867">
  <ele>-0.117</ele>
  <time>2026-09-01T01:17:56Z</time>
  <course>188.27</course>
  <speed>0.01414213562373095</speed>
  <fix>3d</fix>
</trkpt>
<trkpt lat="33.810313" lon="-118.393867">
  <ele>-0.12</ele>
  <time>2026-09-01T01:17:56Z</time>
  <course>0.0</course>
  <speed>0.0</speed>
  <fix>3d</fix>
</trkpt>
<trkpt lat="33.810313" lon="-118.393867">
  <ele>-0.115</ele>
  <time>2026-09-01T01:17:56Z</time>
  <course>188.26</course>
  <speed>0.01414213562373095</speed>
  <fix>3d</fix>
</trkpt>
<trkpt lat="33.810313" lon="-118.393867">
  <ele>-0.12</ele>
  <time>2026-09-01T01:17:56Z</time>
  <course>0.0</course>
  <speed>0.0</speed>
  <fix>3d</fix>
</trkpt>
<trkpt lat="33.810313" lon="-118.393867">
  <ele>-0.113</ele>
  <time>2026-09-01T01:17:56Z</time>
  <course>188.26</course>
  <speed>0.01414213562373095</speed>
  <fix>3d</fix>
</trkpt>
<trkpt lat="33.810313" lon="-118.393867">
  <ele>-0.12</ele>
  <time>2026-09-01T01:17:56Z</time>
  <course>0.0</course>
  <speed>0.0</speed>
  <fix>3d</fix>
</trkpt>
<trkpt lat="33.810313" lon="-118.393867">
  <ele>-0.113</ele>
  <time>2026-09-01T01:17:56Z</time>
  <course>188.25</course>
  <speed>0.01414213562373095</speed>
  <fix>3d</fix>
</trkpt>
<trkpt lat="33.810313" lon="-118.393867">
  <ele>-0.12</ele>
  <time>2026-09-01T01:17:56Z</time>
  <course>0.0</course>
  <speed>0.0</speed>
  <fix>3d</fix>
</trkpt>
<trkpt lat="33.810313" lon="-118.393867">
  <ele>-0.114</ele>
  <time>2026-09-01T01:17:56Z</time>
  <course>188.24</course>
  <speed>0.01414213562373095</speed>
  <fix>3d</fix>
</trkpt>
<trkpt lat="33.810313" lon="-118.393867">
  <ele>-0.12</ele>
  <time>2026-09-01T01:17:56Z</time>
  <course>0.0</course>
  <speed>0.0</speed>
  <fix>3d</fix>
</trkpt>
<trkpt lat="33.810313" lon="-118.393867">
  <ele>-0.117</ele>
  <time>2026-09-01T01:17:56Z</time>
  <course>188.23</course>
  <speed>0.01414213562373095</speed>
  <fix>3d</fix>
</trkpt>
<trkpt lat="33.810313" lon="-118.393867">
  <ele>-0.12</ele>
  <time>2026-09-01T01:17:56Z</time>
  <course>0.0</course>
  <speed>0.0</speed>
  <fix>3d</fix>
</trkpt>
<trkpt lat="33.810313" lon="-118.393867">
  <ele>-0.121</ele>
  <time>2026-09-01T01:17:56Z</time>
  <course>188.22</course>
  <speed>0.01414213562373095</speed>
  <fix>3d</fix>
</trkpt>
<trkpt lat="33.810313" lon="-118.393867">
  <ele>-0.12</ele>
  <time>2026-09-01T01:17:56Z</time>
  <course>0.0</course>
  <speed>0.0</speed>
  <fix>3d</fix>
</trkpt>
<trkpt lat="33.810313" lon="-118.393867">
  <ele>-0.125</ele>
  <time>2026-09-01T01:17:56Z</time>
  <course>188.22</course>
  <speed>0.01414213562373095</speed>
  <fix>3d</fix>
</trkpt>
<trkpt lat="33.810313" lon="-118.393867">
  <ele>-0.12</ele>
  <time>2026-09-01T01:17:56Z</time>
  <course>0.0</course>
  <speed>0.0</speed>
  <fix>3d</fix>
</trkpt>
<trkpt lat="33.810313" lon="-118.393867">
  <ele>-0.127</ele>
  <time>2026-09-01T01:17:56Z</time>
  <course>188.21</course>
  <speed>0.01414213562373095</speed>
  <fix>3d</fix>
</trkpt>
<trkpt lat="33.810313" lon="-118.393867">
  <ele>-0.12</ele>
  <time>2026-09-01T01:17:56Z</time>
  <course>0.0</course>
  <speed>0.0</speed>
  <fix>3d</fix>
</trkpt>
<trkpt lat="33.810313" lon="-118.393867">
  <ele>-0.128</ele>
  <time>2026-09-01T01:17:56Z</time>
  <course>188.2</course>
  <speed>0.01414213562373095</speed>
  <fix>3d</fix>
</trkpt>
<trkpt lat="33.810313" lon="-118.393867">
  <ele>-0.12</ele>
  <time>2026-09-01T01:17:56Z</time>
  <course>0.0</course>
  <speed>0.0</speed>
  <fix>3d</fix>
</trkpt>
<trkpt lat="33.810313" lon="-118.393867">
  <ele>-0.129</ele>
  <time>2026-09-01T01:17:56Z</time>
  <course>188.19</course>
  <speed>0.01414213562373095</speed>
  <fix>3d</fix>
</trkpt>
<trkpt lat="33.810313" lon="-118.393867">
  <ele>-0.12</ele>
  <time>2026-09-01T01:17:56Z</time>
  <course>0.0</course>
  <speed>0.0</speed>
  <fix>3d</fix>
</trkpt>
<trkpt lat="33.810313" lon="-118.393867">
  <ele>-0.129</ele>
  <time>2026-09-01T01:17:56Z</time>
  <course>188.18</course>
  <speed>0.01414213562373095</speed>
  <fix>3d</fix>
</trkpt>
<trkpt lat="33.810313" lon="-118.393867">
  <ele>-0.12</ele>
  <time>2026-09-01T01:17:56Z</time>
  <course>0.0</course>
  <speed>0.0</speed>
  <fix>3d</fix>
</trkpt>
<trkpt lat="33.810313" lon="-118.393867">
  <ele>-0.129</ele>
  <time>2026-09-01T01:17:56Z</time>
  <course>188.17</course>
  <speed>0.01414213562373095</speed>
  <fix>3d</fix>
</trkpt>
<trkpt lat="33.810313" lon="-118.393867">
  <ele>-0.12</ele>
  <time>2026-09-01T01:17:56Z</time>
  <course>0.0</course>
  <speed>0.0</speed>
  <fix>3d</fix>
</trkpt>
<trkpt lat="33.810313" lon="-118.393867">
  <ele>-0.128</ele>
  <time>2026-09-01T01:17:56Z</time>
  <course>188.17</course>
  <speed>0.01414213562373095</speed>
  <fix>3d</fix>
</trkpt>
<trkpt lat="33.810313" lon="-118.393867">
  <ele>-0.12</ele>
  <time>2026-09-01T01:17:56Z</time>
  <course>0.0</course>
  <speed>0.0</speed>
  <fix>3d</fix>
</trkpt>
<trkpt lat="33.810313" lon="-118.393867">
  <ele>-0.127</ele>
  <time>2026-09-01T01:17:56Z</time>
  <course>188.16</course>
  <speed>0.01414213562373095</speed>
  <fix>3d</fix>
</trkpt>
<trkpt lat="33.810313" lon="-118.393867">
  <ele>-0.12</ele>
  <time>2026-09-01T01:17:56Z</time>
  <course>0.0</course>
  <speed>0.0</speed>
  <fix>3d</fix>
</trkpt>
<trkpt lat="33.810313" lon="-118.393867">
  <ele>-0.126</ele>
  <time>2026-09-01T01:17:56Z</time>
  <course>188.15</course>
  <speed>0.01414213562373095</speed>
  <fix>3d</fix>
</trkpt>
<trkpt lat="33.810313" lon="-118.393867">
  <ele>-0.12</ele>
  <time>2026-09-01T01:17:56Z</time>
  <course>0.0</course>
  <speed>0.0</speed>
  <fix>3d</fix>
</trkpt>
<trkpt lat="33.810313" lon="-118.393867">
  <ele>-0.125</ele>
  <time>2026-09-01T01:17:56Z</time>
  <course>188.14</course>
  <speed>0.01414213562373095</speed>
  <fix>3d</fix>
</trkpt>
<trkpt lat="33.810313" lon="-118.393867">
  <ele>-0.12</ele>
  <time>2026-09-01T01:17:56Z</time>
  <course>0.0</course>
  <speed>0.0</speed>
  <fix>3d</fix>
</trkpt>
<trkpt lat="33.810313" lon="-118.393867">
  <ele>-0.126</ele>
  <time>2026-09-01T01:17:56Z</time>
  <course>188.13</course>
  <speed>0.01414213562373095</speed>
  <fix>3d</fix>
</trkpt>
<trkpt lat="33.810313" lon="-118.393867">
  <ele>-0.12</ele>
  <time>2026-09-01T01:17:56Z</time>
  <course>0.0</course>
  <speed>0.0</speed>
  <fix>3d</fix>
</trkpt>
<trkpt lat="33.810313" lon="-118.393867">
  <ele>-0.127</ele>
  <time>2026-09-01T01:17:56Z</time>
  <course>188.12</course>
  <speed>0.01414213562373095</speed>
  <fix>3d</fix>
</trkpt>
<trkpt lat="33.810313" lon="-118.393867">
  <ele>-0.12</ele>
  <time>2026-09-01T01:17:56Z</time>
  <course>0.0</course>
  <speed>0.0</speed>
  <fix>3d</fix>
</trkpt>
<trkpt lat="33.810313" lon="-118.393867">
  <ele>-0.129</ele>
  <time>2026-09-01T01:17:56Z</time>
  <course>188.12</course>
  <speed>0.01414213562373095</speed>
  <fix>3d</fix>
</trkpt>
<trkpt lat="33.810313" lon="-118.393867">
  <ele>-0.12</ele>
  <time>2026-09-01T01:17:56Z</time>
  <course>0.0</course>
  <speed>0.0</speed>
  <fix>3d</fix>
</trkpt>
<trkpt lat="33.810313" lon="-118.393867">
  <ele>-0.131</ele>
  <time>2026-09-01T01:17:56Z</time>
  <course>188.11</course>
  <speed>0.01414213562373095</speed>
  <fix>3d</fix>
</trkpt>
<trkpt lat="33.810313" lon="-118.393867">
  <ele>-0.12</ele>
  <time>2026-09-01T01:17:56Z</time>
  <course>0.0</course>
  <speed>0.0</speed>
  <fix>3d</fix>
</trkpt>
<trkpt lat="33.810313" lon="-118.393867">
  <ele>-0.132</ele>
  <time>2026-09-01T01:17:56Z</time>
  <course>188.1</course>
  <speed>0.01414213562373095</speed>
  <fix>3d</fix>
</trkpt>
<trkpt lat="33.810313" lon="-118.393867">
  <ele>-0.12</ele>
  <time>2026-09-01T01:17:56Z</time>
  <course>0.0</course>
  <speed>0.0</speed>
  <fix>3d</fix>
</trkpt>
<trkpt lat="33.810313" lon="-118.393867">
  <ele>-0.132</ele>
  <time>2026-09-01T01:17:56Z</time>
  <course>188.09</course>
  <speed>0.01414213562373095</speed>
  <fix>3d</fix>
</trkpt>
<trkpt lat="33.810313" lon="-118.393867">
  <ele>-0.12</ele>
  <time>2026-09-01T01:17:56Z</time>
  <course>0.0</course>
  <speed>0.0</speed>
  <fix>3d</fix>
</trkpt>
<trkpt lat="33.810313" lon="-118.393867">
  <ele>-0.132</ele>
  <time>2026-09-01T01:17:56Z</time>
  <course>188.08</course>
  <speed>0.01414213562373095</speed>
  <fix>3d</fix>
</trkpt>
<trkpt lat="33.810313" lon="-118.393867">
  <ele>-0.12</ele>
  <time>2026-09-01T01:17:56Z</time>
  <course>0.0</course>
  <speed>0.0</speed>
  <fix>3d</fix>
</trkpt>
<trkpt lat="33.810313" lon="-118.393867">
  <ele>-0.13</ele>
  <time>2026-09-01T01:17:56Z</time>
  <course>188.08</course>
  <speed>0.01414213562373095</speed>
  <fix>3d</fix>
</trkpt>
<trkpt lat="33.810313" lon="-118.393867">
  <ele>-0.12</ele>
  <time>2026-09-01T01:17:56Z</time>
  <course>0.0</course>
  <speed>0.0</speed>
  <fix>3d</fix>
</trkpt>
<trkpt lat="33.810313" lon="-118.393867">
  <ele>-0.126</ele>
  <time>2026-09-01T01:17:56Z</time>
  <course>188.07</course>
  <speed>0.01414213562373095</speed>
  <fix>3d</fix>
</trkpt>
<trkpt lat="33.810313" lon="-118.393867">
  <ele>-0.12</ele>
  <time>2026-09-01T01:17:56Z</time>
  <course>0.0</course>
  <speed>0.0</speed>
  <fix>3d</fix>
</trkpt>
<trkpt lat="33.810313" lon="-118.393867">
  <ele>-0.123</ele>
  <time>2026-09-01T01:17:56Z</time>
  <course>188.06</course>
  <speed>0.01414213562373095</speed>
  <fix>3d</fix>
</trkpt>
<trkpt lat="33.810313" lon="-118.393867">
  <ele>-0.12</ele>
  <time>2026-09-01T01:17:56Z</time>
  <course>0.0</course>
  <speed>0.0</speed>
  <fix>3d</fix>
</trkpt>
<trkpt lat="33.810313" lon="-118.393867">
  <ele>-0.119</ele>
  <time>2026-09-01T01:17:56Z</time>
  <course>188.05</course>
  <speed>0.01414213562373095</speed>
  <fix>3d</fix>
</trkpt>
<trkpt lat="33.810313" lon="-118.393867">
  <ele>-0.12</ele>
  <time>2026-09-01T01:17:56Z</time>
  <course>0.0</course>
  <speed>0.0</speed>
  <fix>3d</fix>
</trkpt>
<trkpt lat="33.810313" lon="-118.393867">
  <ele>-0.116</ele>
  <time>2026-09-01T01:17:56Z</time>
  <course>188.04</course>
  <speed>0.022360679774997897</speed>
  <fix>3d</fix>
</trkpt>
<trkpt lat="33.810313" lon="-118.393867">
  <ele>-0.12</ele>
  <time>2026-09-01T01:17:56Z</time>
  <course>0.0</course>
  <speed>0.0</speed>
  <fix>3d</fix>
</trkpt>
<trkpt lat="33.810313" lon="-118.393867">
  <ele>-0.116</ele>
  <time>2026-09-01T01:17:56Z</time>
  <course>188.03</course>
  <speed>0.022360679774997897</speed>
  <fix>3d</fix>
</trkpt>
<trkpt lat="33.810313" lon="-118.393867">
  <ele>-0.12</ele>
  <time>2026-09-01T01:17:56Z</time>
  <course>0.0</course>
  <speed>0.0</speed>
  <fix>3d</fix>
</trkpt>
<trkpt lat="33.810313" lon="-118.393867">
  <ele>-0.116</ele>
  <time>2026-09-01T01:17:56Z</time>
  <course>188.03</course>
  <speed>0.022360679774997897</speed>
  <fix>3d</fix>
</trkpt>
<trkpt lat="33.810313" lon="-118.393867">
  <ele>-0.12</ele>
  <time>2026-09-01T01:17:56Z</time>
  <course>0.0</course>
  <speed>0.0</speed>
  <fix>3d</fix>
</trkpt>
<trkpt lat="33.810313" lon="-118.393867">
  <ele>-0.116</ele>
  <time>2026-09-01T01:17:56Z</time>
  <course>188.02</course>
  <speed>0.022360679774997897</speed>
  <fix>3d</fix>
</trkpt>
<trkpt lat="33.810313" lon="-118.393867">
  <ele>-0.12</ele>
  <time>2026-09-01T01:17:56Z</time>
  <course>0.0</course>
  <speed>0.0</speed>
  <fix>3d</fix>
</trkpt>
<trkpt lat="33.810313" lon="-118.393867">
  <ele>-0.115</ele>
  <time>2026-09-01T01:17:56Z</time>
  <course>188.01</course>
  <speed>0.022360679774997897</speed>
  <fix>3d</fix>
</trkpt>
<trkpt lat="33.810313" lon="-118.393867">
  <ele>-0.12</ele>
  <time>2026-09-01T01:17:56Z</time>
  <course>0.0</course>
  <speed>0.0</speed>
  <fix>3d</fix>
</trkpt>
<trkpt lat="33.810313" lon="-118.393867">
  <ele>-0.114</ele>
  <time>2026-09-01T01:17:56Z</time>
  <course>188.0</course>
  <speed>0.022360679774997897</speed>
  <fix>3d</fix>
</trkpt>
<trkpt lat="33.810313" lon="-118.393867">
  <ele>-0.12</ele>
  <time>2026-09-01T01:17:56Z</time>
  <course>0.0</course>
  <speed>0.0</speed>
  <fix>3d</fix>
</trkpt>
<trkpt lat="33.810313" lon="-118.393867">
  <ele>-0.112</ele>
  <time>2026-09-01T01:17:56Z</time>
  <course>187.99</course>
  <speed>0.022360679774997897</speed>
  <fix>3d</fix>
</trkpt>
<trkpt lat="33.810313" lon="-118.393867">
  <ele>-0.12</ele>
  <time>2026-09-01T01:17:56Z</time>
  <course>0.0</course>
  <speed>0.0</speed>
  <fix>3d</fix>
</trkpt>
<trkpt lat="33.810313" lon="-118.393867">
  <ele>-0.11</ele>
  <time>2026-09-01T01:17:56Z</time>
  <course>187.99</course>
  <speed>0.022360679774997897</speed>
  <fix>3d</fix>
</trkpt>
<trkpt lat="33.810313" lon="-118.393867">
  <ele>-0.12</ele>
  <time>2026-09-01T01:17:56Z</time>
  <course>0.0</course>
  <speed>0.0</speed>
  <fix>3d</fix>
</trkpt>
<trkpt lat="33.810313" lon="-118.393867">
  <ele>-0.107</ele>
  <time>2026-09-01T01:17:56Z</time>
  <course>187.98</course>
  <speed>0.022360679774997897</speed>
  <fix>3d</fix>
</trkpt>
<trkpt lat="33.810313" lon="-118.393867">
  <ele>-0.12</ele>
  <time>2026-09-01T01:17:56Z</time>
  <course>0.0</course>
  <speed>0.0</speed>
  <fix>3d</fix>
</trkpt>
<trkpt lat="33.810313" lon="-118.393867">
  <ele>-0.106</ele>
  <time>2026-09-01T01:17:56Z</time>
  <course>187.97</course>
  <speed>0.022360679774997897</speed>
  <fix>3d</fix>
</trkpt>
<trkpt lat="33.810313" lon="-118.393867">
  <ele>-0.12</ele>
  <time>2026-09-01T01:17:56Z</time>
  <course>0.0</course>
  <speed>0.0</speed>
  <fix>3d</fix>
</trkpt>
<trkpt lat="33.810313" lon="-118.393867">
  <ele>-0.106</ele>
  <time>2026-09-01T01:17:56Z</time>
  <course>187.96</course>
  <speed>0.022360679774997897</speed>
  <fix>3d</fix>
</trkpt>
<trkpt lat="33.810313" lon="-118.393867">
  <ele>-0.12</ele>
  <time>2026-09-01T01:17:56Z</time>
  <course>0.0</course>
  <speed>0.0</speed>
  <fix>3d</fix>
</trkpt>
<trkpt lat="33.810313" lon="-118.393867">
  <ele>-0.107</ele>
  <time>2026-09-01T01:17:56Z</time>
  <course>187.95</course>
  <speed>0.022360679774997897</speed>
  <fix>3d</fix>
</trkpt>
<trkpt lat="33.810313" lon="-118.393867">
  <ele>-0.12</ele>
  <time>2026-09-01T01:17:56Z</time>
  <course>0.0</course>
  <speed>0.0</speed>
  <fix>3d</fix>
</trkpt>
<trkpt lat="33.810313" lon="-118.393867">
  <ele>-0.109</ele>
  <time>2026-09-01T01:17:56Z</time>
  <course>187.94</course>
  <speed>0.022360679774997897</speed>
  <fix>3d</fix>
</trkpt>
<trkpt lat="33.810313" lon="-118.393867">
  <ele>-0.12</ele>
  <time>2026-09-01T01:17:56Z</time>
  <course>0.0</course>
  <speed>0.0</speed>
  <fix>3d</fix>
</trkpt>
<trkpt lat="33.810313" lon="-118.393867">
  <ele>-0.113</ele>
  <time>2026-09-01T01:17:56Z</time>
  <course>187.94</course>
  <speed>0.022360679774997897</speed>
  <fix>3d</fix>
</trkpt>
<trkpt lat="33.810313" lon="-118.393867">
  <ele>-0.12</ele>
  <time>2026-09-01T01:17:56Z</time>
  <course>0.0</course>
  <speed>0.0</speed>
  <fix>3d</fix>
</trkpt>
<trkpt lat="33.810313" lon="-118.393867">
  <ele>-0.116</ele>
  <time>2026-09-01T01:17:56Z</time>
  <course>187.93</course>
  <speed>0.022360679774997897</speed>
  <fix>3d</fix>
</trkpt>
<trkpt lat="33.810313" lon="-118.393867">
  <ele>-0.12</ele>
  <time>2026-09-01T01:17:56Z</time>
  <course>0.0</course>
  <speed>0.0</speed>
  <fix>3d</fix>
</trkpt>
<trkpt lat="33.810313" lon="-118.393867">
  <ele>-0.119</ele>
  <time>2026-09-01T01:17:56Z</time>
  <course>187.92</course>
  <speed>0.022360679774997897</speed>
  <fix>3d</fix>
</trkpt>
<trkpt lat="33.810313" lon="-118.393867">
  <ele>-0.12</ele>
  <time>2026-09-01T01:17:56Z</time>
  <course>0.0</course>
  <speed>0.0</speed>
  <fix>3d</fix>
</trkpt>
<trkpt lat="33.810313" lon="-118.393867">
  <ele>-0.122</ele>
  <time>2026-09-01T01:17:56Z</time>
  <course>187.91</course>
  <speed>0.022360679774997897</speed>
  <fix>3d</fix>
</trkpt>
<trkpt lat="33.810313" lon="-118.393867">
  <ele>-0.12</ele>
  <time>2026-09-01T01:17:56Z</time>
  <course>0.0</course>
  <speed>0.0</speed>
  <fix>3d</fix>
</trkpt>
<trkpt lat="33.810313" lon="-118.393867">
  <ele>-0.124</ele>
  <time>2026-09-01T01:17:56Z</time>
  <course>187.9</course>
  <speed>0.022360679774997897</speed>
  <fix>3d</fix>
</trkpt>
<trkpt lat="33.810313" lon="-118.393867">
  <ele>-0.12</ele>
  <time>2026-09-01T01:17:56Z</time>
  <course>0.0</course>
  <speed>0.0</speed>
  <fix>3d</fix>
</trkpt>
<trkpt lat="33.810313" lon="-118.393867">
  <ele>-0.124</ele>
  <time>2026-09-01T01:17:56Z</time>
  <course>187.9</course>
  <speed>0.022360679774997897</speed>
  <fix>3d</fix>
</trkpt>
<trkpt lat="33.810313" lon="-118.393867">
  <ele>-0.12</ele>
  <time>2026-09-01T01:17:56Z</time>
  <course>0.0</course>
  <speed>0.0</speed>
  <fix>3d</fix>
</trkpt>
<trkpt lat="33.810313" lon="-118.393867">
  <ele>-0.123</ele>
  <time>2026-09-01T01:17:56Z</time>
  <course>187.89</course>
  <speed>0.022360679774997897</speed>
  <fix>3d</fix>
</trkpt>
<trkpt lat="33.810313" lon="-118.393867">
  <ele>-0.12</ele>
  <time>2026-09-01T01:17:56Z</time>
  <course>0.0</course>
  <speed>0.0</speed>
  <fix>3d</fix>
</trkpt>
<trkpt lat="33.810313" lon="-118.393867">
  <ele>-0.12</ele>
  <time>2026-09-01T01:17:56Z</time>
  <course>187.88</course>
  <speed>0.022360679774997897</speed>
  <fix>3d</fix>
</trkpt>
<trkpt lat="33.810313" lon="-118.393867">
  <ele>-0.12</ele>
  <time>2026-09-01T01:17:56Z</time>
  <course>0.0</course>
  <speed>0.0</speed>
  <fix>3d</fix>
</trkpt>
<trkpt lat="33.810313" lon="-118.393867">
  <ele>-0.118</ele>
  <time>2026-09-01T01:17:56Z</time>
  <course>187.87</course>
  <speed>0.022360679774997897</speed>
  <fix>3d</fix>
</trkpt>
<trkpt lat="33.810313" lon="-118.393867">
  <ele>-0.12</ele>
  <time>2026-09-01T01:17:56Z</time>
  <course>0.0</course>
  <speed>0.0</speed>
  <fix>3d</fix>
</trkpt>
<trkpt lat="33.810313" lon="-118.393867">
  <ele>-0.117</ele>
  <time>2026-09-01T01:17:56Z</time>
  <course>187.87</course>
  <speed>0.022360679774997897</speed>
  <fix>3d</fix>
</trkpt>
<trkpt lat="33.810313" lon="-118.393867">
  <ele>-0.12</ele>
  <time>2026-09-01T01:17:56Z</time>
  <course>0.0</course>
  <speed>0.0</speed>
  <fix>3d</fix>
</trkpt>
<trkpt lat="33.810313" lon="-118.393867">
  <ele>-0.118</ele>
  <time>2026-09-01T01:17:56Z</time>
  <course>187.86</course>
  <speed>0.022360679774997897</speed>
  <fix>3d</fix>
</trkpt>
<trkpt lat="33.810313" lon="-118.393867">
  <ele>-0.12</ele>
  <time>2026-09-01T01:17:56Z</time>
  <course>0.0</course>
  <speed>0.0</speed>
  <fix>3d</fix>
</trkpt>
<trkpt lat="33.810313" lon="-118.393867">
  <ele>-0.12</ele>
  <time>2026-09-01T01:17:56Z</time>
  <course>187.85</course>
  <speed>0.022360679774997897</speed>
  <fix>3d</fix>
</trkpt>
<trkpt lat="33.810313" lon="-118.393867">
  <ele>-0.12</ele>
  <time>2026-09-01T01:17:56Z</time>
  <course>0.0</course>
  <speed>0.0</speed>
  <fix>3d</fix>
</trkpt>
<trkpt lat="33.810313" lon="-118.393867">
  <ele>-0.123</ele>
  <time>2026-09-01T01:17:56Z</time>
  <course>187.84</course>
  <speed>0.022360679774997897</speed>
  <fix>3d</fix>
</trkpt>
<trkpt lat="33.810313" lon="-118.393867">
  <ele>-0.12</ele>
  <time>2026-09-01T01:17:56Z</time>
  <course>0.0</course>
  <speed>0.0</speed>
  <fix>3d</fix>
</trkpt>
<trkpt lat="33.810313" lon="-118.393867">
  <ele>-0.126</ele>
  <time>2026-09-01T01:17:56Z</time>
  <course>187.83</course>
  <speed>0.022360679774997897</speed>
  <fix>3d</fix>
</trkpt>
<trkpt lat="33.810313" lon="-118.393867">
  <ele>-0.12</ele>
  <time>2026-09-01T01:17:56Z</time>
  <course>0.0</course>
  <speed>0.0</speed>
  <fix>3d</fix>
</trkpt>
<trkpt lat="33.810313" lon="-118.393867">
  <ele>-0.129</ele>
  <time>2026-09-01T01:17:56Z</time>
  <course>187.83</course>
  <speed>0.022360679774997897</speed>
  <fix>3d</fix>
</trkpt>
<trkpt lat="33.810313" lon="-118.393867">
  <ele>-0.12</ele>
  <time>2026-09-01T01:17:56Z</time>
  <course>0.0</course>
  <speed>0.0</speed>
  <fix>3d</fix>
</trkpt>
<trkpt lat="33.810313" lon="-118.393867">
  <ele>-0.13</ele>
  <time>2026-09-01T01:17:56Z</time>
  <course>187.82</course>
  <speed>0.022360679774997897</speed>
  <fix>3d</fix>
</trkpt>
<trkpt lat="33.810313" lon="-118.393867">
  <ele>-0.12</ele>
  <time>2026-09-01T01:17:56Z</time>
  <course>0.0</course>
  <speed>0.0</speed>
  <fix>3d</fix>
</trkpt>
<trkpt lat="33.810313" lon="-118.393867">
  <ele>-0.13</ele>
  <time>2026-09-01T01:17:56Z</time>
  <course>187.81</course>
  <speed>0.022360679774997897</speed>
  <fix>3d</fix>
</trkpt>
<trkpt lat="33.810313" lon="-118.393867">
  <ele>-0.12</ele>
  <time>2026-09-01T01:17:56Z</time>
  <course>0.0</course>
  <speed>0.0</speed>
  <fix>3d</fix>
</trkpt>
<trkpt lat="33.810313" lon="-118.393867">
  <ele>-0.128</ele>
  <time>2026-09-01T01:17:56Z</time>
  <course>187.8</course>
  <speed>0.022360679774997897</speed>
  <fix>3d</fix>
</trkpt>
<trkpt lat="33.810313" lon="-118.393867">
  <ele>-0.12</ele>
  <time>2026-09-01T01:17:56Z</time>
  <course>0.0</course>
  <speed>0.0</speed>
  <fix>3d</fix>
</trkpt>
<trkpt lat="33.810313" lon="-118.393867">
  <ele>-0.127</ele>
  <time>2026-09-01T01:17:56Z</time>
  <course>187.8</course>
  <speed>0.022360679774997897</speed>
  <fix>3d</fix>
</trkpt>
<trkpt lat="33.810313" lon="-118.393867">
  <ele>-0.12</ele>
  <time>2026-09-01T01:17:56Z</time>
  <course>0.0</course>
  <speed>0.0</speed>
  <fix>3d</fix>
</trkpt>
<trkpt lat="33.810313" lon="-118.393867">
  <ele>-0.124</ele>
  <time>2026-09-01T01:17:56Z</time>
  <course>187.79</course>
  <speed>0.022360679774997897</speed>
  <fix>3d</fix>
</trkpt>
<trkpt lat="33.810313" lon="-118.393867">
  <ele>-0.12</ele>
  <time>2026-09-01T01:17:56Z</time>
  <course>0.0</course>
  <speed>0.0</speed>
  <fix>3d</fix>
</trkpt>
<trkpt lat="33.810313" lon="-118.393867">
  <ele>-0.122</ele>
  <time>2026-09-01T01:17:56Z</time>
  <course>187.78</course>
  <speed>0.022360679774997897</speed>
  <fix>3d</fix>
</trkpt>
<trkpt lat="33.810313" lon="-118.393867">
  <ele>-0.12</ele>
  <time>2026-09-01T01:17:56Z</time>
  <course>0.0</course>
  <speed>0.0</speed>
  <fix>3d</fix>
</trkpt>
<trkpt lat="33.810313" lon="-118.393867">
  <ele>-0.121</ele>
  <time>2026-09-01T01:17:56Z</time>
  <course>187.77</course>
  <speed>0.022360679774997897</speed>
  <fix>3d</fix>
</trkpt>
<trkpt lat="33.810313" lon="-118.393867">
  <ele>-0.12</ele>
  <time>2026-09-01T01:17:56Z</time>
  <course>0.0</course>
  <speed>0.0</speed>
  <fix>3d</fix>
</trkpt>
<trkpt lat="33.810313" lon="-118.393867">
  <ele>-0.12</ele>
  <time>2026-09-01T01:17:56Z</time>
  <course>187.77</course>
  <speed>0.022360679774997897</speed>
  <fix>3d</fix>
</trkpt>
<trkpt lat="33.810313" lon="-118.393867">
  <ele>-0.12</ele>
  <time>2026-09-01T01:17:56Z</time>
  <course>0.0</course>
  <speed>0.0</speed>
  <fix>3d</fix>
</trkpt>
<trkpt lat="33.810313" lon="-118.393867">
  <ele>-0.12</ele>
  <time>2026-09-01T01:17:56Z</time>
  <course>187.76</course>
  <speed>0.022360679774997897</speed>
  <fix>3d</fix>
</trkpt>
<trkpt lat="33.810313" lon="-118.393867">
  <ele>-0.12</ele>
  <time>2026-09-01T01:17:56Z</time>
  <course>0.0</course>
  <speed>0.0</speed>
  <fix>3d</fix>
</trkpt>
<trkpt lat="33.810313" lon="-118.393867">
  <ele>-0.121</ele>
  <time>2026-09-01T01:17:56Z</time>
  <course>187.75</course>
  <speed>0.022360679774997897</speed>
  <fix>3d</fix>
</trkpt>
<trkpt lat="33.810313" lon="-118.393867">
  <ele>-0.12</ele>
  <time>2026-09-01T01:17:56Z</time>
  <course>0.0</course>
  <speed>0.0</speed>
  <fix>3d</fix>
</trkpt>
<trkpt lat="33.810313" lon="-118.393867">
  <ele>-0.121</ele>
  <time>2026-09-01T01:17:56Z</time>
  <course>187.74</course>
  <speed>0.022360679774997897</speed>
  <fix>3d</fix>
</trkpt>
<trkpt lat="33.810313" lon="-118.393867">
  <ele>-0.12</ele>
  <time>2026-09-01T01:17:56Z</time>
  <course>0.0</course>
  <speed>0.0</speed>
  <fix>3d</fix>
</trkpt>
<trkpt lat="33.810313" lon="-118.393867">
  <ele>-0.121</ele>
  <time>2026-09-01T01:17:56Z</time>
  <course>187.74</course>
  <speed>0.0282842712474619</speed>
  <fix>3d</fix>
</trkpt>
<trkpt lat="33.810313" lon="-118.393867">
  <ele>-0.12</ele>
  <time>2026-09-01T01:17:56Z</time>
  <course>0.0</course>
  <speed>0.0</speed>
  <fix>3d</fix>
</trkpt>
<trkpt lat="33.810313" lon="-118.393867">
  <ele>-0.119</ele>
  <time>2026-09-01T01:17:56Z</time>
  <course>187.73</course>
  <speed>0.0282842712474619</speed>
  <fix>3d</fix>
</trkpt>
<trkpt lat="33.810313" lon="-118.393867">
  <ele>-0.12</ele>
  <time>2026-09-01T01:17:56Z</time>
  <course>0.0</course>
  <speed>0.0</speed>
  <fix>3d</fix>
</trkpt>
<trkpt lat="33.810313" lon="-118.393867">
  <ele>-0.117</ele>
  <time>2026-09-01T01:17:56Z</time>
  <course>187.72</course>
  <speed>0.0282842712474619</speed>
  <fix>3d</fix>
</trkpt>
<trkpt lat="33.810313" lon="-118.393867">
  <ele>-0.12</ele>
  <time>2026-09-01T01:17:56Z</time>
  <course>0.0</course>
  <speed>0.0</speed>
  <fix>3d</fix>
</trkpt>
<trkpt lat="33.810313" lon="-118.393867">
  <ele>-0.114</ele>
  <time>2026-09-01T01:17:56Z</time>
  <course>187.71</course>
  <speed>0.0282842712474619</speed>
  <fix>3d</fix>
</trkpt>
<trkpt lat="33.810313" lon="-118.393867">
  <ele>-0.12</ele>
  <time>2026-09-01T01:17:56Z</time>
  <course>0.0</course>
  <speed>0.0</speed>
  <fix>3d</fix>
</trkpt>
<trkpt lat="33.810313" lon="-118.393867">
  <ele>-0.112</ele>
  <time>2026-09-01T01:17:56Z</time>
  <course>187.71</course>
  <speed>0.0282842712474619</speed>
  <fix>3d</fix>
</trkpt>
<trkpt lat="33.810313" lon="-118.393867">
  <ele>-0.12</ele>
  <time>2026-09-01T01:17:56Z</time>
  <course>0.0</course>
  <speed>0.0</speed>
  <fix>3d</fix>
</trkpt>
<trkpt lat="33.810313" lon="-118.393867">
  <ele>-0.111</ele>
  <time>2026-09-01T01:17:56Z</time>
  <course>187.7</course>
  <speed>0.0282842712474619</speed>
  <fix>3d</fix>
</trkpt>
<trkpt lat="33.810313" lon="-118.393867">
  <ele>-0.12</ele>
  <time>2026-09-01T01:17:56Z</time>
  <course>0.0</course>
  <speed>0.0</speed>
  <fix>3d</fix>
</trkpt>
<trkpt lat="33.810313" lon="-118.393867">
  <ele>-0.111</ele>
  <time>2026-09-01T01:17:56Z</time>
  <course>187.69</course>
  <speed>0.0282842712474619</speed>
  <fix>3d</fix>
</trkpt>
<trkpt lat="33.810313" lon="-118.393867">
  <ele>-0.12</ele>
  <time>2026-09-01T01:17:56Z</time>
  <course>0.0</course>
  <speed>0.0</speed>
  <fix>3d</fix>
</trkpt>
<trkpt lat="33.810313" lon="-118.393867">
  <ele>-0.113</ele>
  <time>2026-09-01T01:17:56Z</time>
  <course>187.69</course>
  <speed>0.0282842712474619</speed>
  <fix>3d</fix>
</trkpt>
<trkpt lat="33.810313" lon="-118.393867">
  <ele>-0.12</ele>
  <time>2026-09-01T01:17:56Z</time>
  <course>0.0</course>
  <speed>0.0</speed>
  <fix>3d</fix>
</trkpt>
<trkpt lat="33.810313" lon="-118.393867">
  <ele>-0.114</ele>
  <time>2026-09-01T01:17:56Z</time>
  <course>187.68</course>
  <speed>0.0282842712474619</speed>
  <fix>3d</fix>
</trkpt>
<trkpt lat="33.810313" lon="-118.393867">
  <ele>-0.12</ele>
  <time>2026-09-01T01:17:56Z</time>
  <course>0.0</course>
  <speed>0.0</speed>
  <fix>3d</fix>
</trkpt>
<trkpt lat="33.810313" lon="-118.393867">
  <ele>-0.115</ele>
  <time>2026-09-01T01:17:56Z</time>
  <course>187.67</course>
  <speed>0.0282842712474619</speed>
  <fix>3d</fix>
</trkpt>
<trkpt lat="33.810313" lon="-118.393867">
  <ele>-0.12</ele>
  <time>2026-09-01T01:17:56Z</time>
  <course>0.0</course>
  <speed>0.0</speed>
  <fix>3d</fix>
</trkpt>
<trkpt lat="33.810313" lon="-118.393867">
  <ele>-0.116</ele>
  <time>2026-09-01T01:17:56Z</time>
  <course>187.66</course>
  <speed>0.0282842712474619</speed>
  <fix>3d</fix>
</trkpt>
<trkpt lat="33.810313" lon="-118.393867">
  <ele>-0.12</ele>
  <time>2026-09-01T01:17:56Z</time>
  <course>0.0</course>
  <speed>0.0</speed>
  <fix>3d</fix>
</trkpt>
<trkpt lat="33.810313" lon="-118.393867">
  <ele>-0.116</ele>
  <time>2026-09-01T01:17:56Z</time>
  <course>187.66</course>
  <speed>0.0282842712474619</speed>
  <fix>3d</fix>
</trkpt>
<trkpt lat="33.810313" lon="-118.393867">
  <ele>-0.12</ele>
  <time>2026-09-01T01:17:56Z</time>
  <course>0.0</course>
  <speed>0.0</speed>
  <fix>3d</fix>
</trkpt>
<trkpt lat="33.810313" lon="-118.393867">
  <ele>-0.116</ele>
  <time>2026-09-01T01:17:56Z</time>
  <course>187.65</course>
  <speed>0.0282842712474619</speed>
  <fix>3d</fix>
</trkpt>
<trkpt lat="33.810313" lon="-118.393867">
  <ele>-0.12</ele>
  <time>2026-09-01T01:17:56Z</time>
  <course>0.0</course>
  <speed>0.0</speed>
  <fix>3d</fix>
</trkpt>
<trkpt lat="33.810313" lon="-118.393867">
  <ele>-0.115</ele>
  <time>2026-09-01T01:17:56Z</time>
  <course>187.64</course>
  <speed>0.0282842712474619</speed>
  <fix>3d</fix>
</trkpt>
<trkpt lat="33.810313" lon="-118.393867">
  <ele>-0.12</ele>
  <time>2026-09-01T01:17:56Z</time>
  <course>0.0</course>
  <speed>0.0</speed>
  <fix>3d</fix>
</trkpt>
<trkpt lat="33.810313" lon="-118.393867">
  <ele>-0.113</ele>
  <time>2026-09-01T01:17:56Z</time>
  <course>187.64</course>
  <speed>0.0282842712474619</speed>
  <fix>3d</fix>
</trkpt>
<trkpt lat="33.810313" lon="-118.393867">
  <ele>-0.12</ele>
  <time>2026-09-01T01:17:56Z</time>
  <course>0.0</course>
  <speed>0.0</speed>
  <fix>3d</fix>
</trkpt>
<trkpt lat="33.810313" lon="-118.393867">
  <ele>-0.111</ele>
  <time>2026-09-01T01:17:56Z</time>
  <course>187.63</course>
  <speed>0.0282842712474619</speed>
  <fix>3d</fix>
</trkpt>
<trkpt lat="33.810313" lon="-118.393867">
  <ele>-0.12</ele>
  <time>2026-09-01T01:17:56Z</time>
  <course>0.0</course>
  <speed>0.0</speed>
  <fix>3d</fix>
</trkpt>
<trkpt lat="33.810313" lon="-118.393867">
  <ele>-0.111</ele>
  <time>2026-09-01T01:17:56Z</time>
  <course>187.63</course>
  <speed>0.0282842712474619</speed>
  <fix>3d</fix>
</trkpt>
<trkpt lat="33.810313" lon="-118.393867">
  <ele>-0.12</ele>
  <time>2026-09-01T01:17:56Z</time>
  <course>0.0</course>
  <speed>0.0</speed>
  <fix>3d</fix>
</trkpt>
<trkpt lat="33.810313" lon="-118.393867">
  <ele>-0.113</ele>
  <time>2026-09-01T01:17:56Z</time>
  <course>187.62</course>
  <speed>0.0282842712474619</speed>
  <fix>3d</fix>
</trkpt>
<trkpt lat="33.810313" lon="-118.393867">
  <ele>-0.12</ele>
  <time>2026-09-01T01:17:56Z</time>
  <course>0.0</course>
  <speed>0.0</speed>
  <fix>3d</fix>
</trkpt>
<trkpt lat="33.810313" lon="-118.393867">
  <ele>-0.115</ele>
  <time>2026-09-01T01:17:56Z</time>
  <course>187.61</course>
  <speed>0.03605551275463989</speed>
  <fix>3d</fix>
</trkpt>
<trkpt lat="33.810313" lon="-118.393867">
  <ele>-0.12</ele>
  <time>2026-09-01T01:17:56Z</time>
  <course>0.0</course>
  <speed>0.0</speed>
  <fix>3d</fix>
</trkpt>
<trkpt lat="33.810313" lon="-118.393867">
  <ele>-0.117</ele>
  <time>2026-09-01T01:17:56Z</time>
  <course>187.61</course>
  <speed>0.03605551275463989</speed>
  <fix>3d</fix>
</trkpt>
<trkpt lat="33.810313" lon="-118.393867">
  <ele>-0.12</ele>
  <time>2026-09-01T01:17:56Z</time>
  <course>0.0</course>
  <speed>0.0</speed>
  <fix>3d</fix>
</trkpt>
<trkpt lat="33.810313" lon="-118.393867">
  <ele>-0.119</ele>
  <time>2026-09-01T01:17:56Z</time>
  <course>187.6</course>
  <speed>0.03605551275463989</speed>
  <fix>3d</fix>
</trkpt>
<trkpt lat="33.810313" lon="-118.393867">
  <ele>-0.12</ele>
  <time>2026-09-01T01:17:56Z</time>
  <course>0.0</course>
  <speed>0.0</speed>
  <fix>3d</fix>
</trkpt>
<trkpt lat="33.810313" lon="-118.393867">
  <ele>-0.121</ele>
  <time>2026-09-01T01:17:57Z</time>
  <course>187.59</course>
  <speed>0.03605551275463989</speed>
  <fix>3d</fix>
</trkpt>
<trkpt lat="33.810313" lon="-118.393867">
  <ele>-0.12</ele>
  <time>2026-09-01T01:17:57Z</time>
  <course>0.0</course>
  <speed>0.0</speed>
  <fix>3d</fix>
</trkpt>
<trkpt lat="33.810313" lon="-118.393867">
  <ele>-0.123</ele>
  <time>2026-09-01T01:17:57Z</time>
  <course>187.59</course>
  <speed>0.03605551275463989</speed>
  <fix>3d</fix>
</trkpt>
<trkpt lat="33.810313" lon="-118.393867">
  <ele>-0.12</ele>
  <time>2026-09-01T01:17:57Z</time>
  <course>0.0</course>
  <speed>0.0</speed>
  <fix>3d</fix>
</trkpt>
<trkpt lat="33.810313" lon="-118.393867">
  <ele>-0.125</ele>
  <time>2026-09-01T01:17:57Z</time>
  <course>187.58</course>
  <speed>0.03605551275463989</speed>
  <fix>3d</fix>
</trkpt>
<trkpt lat="33.810313" lon="-118.393867">
  <ele>-0.12</ele>
  <time>2026-09-01T01:17:57Z</time>
  <course>0.0</course>
  <speed>0.0</speed>
  <fix>3d</fix>
</trkpt>
<trkpt lat="33.810313" lon="-118.393867">
  <ele>-0.125</ele>
  <time>2026-09-01T01:17:57Z</time>
  <course>187.57</course>
  <speed>0.03605551275463989</speed>
  <fix>3d</fix>
</trkpt>
<trkpt lat="33.810313" lon="-118.393867">
  <ele>-0.12</ele>
  <time>2026-09-01T01:17:57Z</time>
  <course>0.0</course>
  <speed>0.0</speed>
  <fix>3d</fix>
</trkpt>
<trkpt lat="33.810313" lon="-118.393867">
  <ele>-0.123</ele>
  <time>2026-09-01T01:17:57Z</time>
  <course>187.57</course>
  <speed>0.03605551275463989</speed>
  <fix>3d</fix>
</trkpt>
<trkpt lat="33.810313" lon="-118.393867">
  <ele>-0.12</ele>
  <time>2026-09-01T01:17:57Z</time>
  <course>0.0</course>
  <speed>0.0</speed>
  <fix>3d</fix>
</trkpt>
<trkpt lat="33.810313" lon="-118.393867">
  <ele>-0.121</ele>
  <time>2026-09-01T01:17:57Z</time>
  <course>187.56</course>
  <speed>0.03605551275463989</speed>
  <fix>3d</fix>
</trkpt>
<trkpt lat="33.810313" lon="-118.393867">
  <ele>-0.12</ele>
  <time>2026-09-01T01:17:57Z</time>
  <course>0.0</course>
  <speed>0.0</speed>
  <fix>3d</fix>
</trkpt>
<trkpt lat="33.810313" lon="-118.393867">
  <ele>-0.12</ele>
  <time>2026-09-01T01:17:57Z</time>
  <course>187.55</course>
  <speed>0.03605551275463989</speed>
  <fix>3d</fix>
</trkpt>
<trkpt lat="33.810313" lon="-118.393867">
  <ele>-0.12</ele>
  <time>2026-09-01T01:17:57Z</time>
  <course>0.0</course>
  <speed>0.0</speed>
  <fix>3d</fix>
</trkpt>
<trkpt lat="33.810313" lon="-118.393867">
  <ele>-0.12</ele>
  <time>2026-09-01T01:17:57Z</time>
  <course>187.55</course>
  <speed>0.03605551275463989</speed>
  <fix>3d</fix>
</trkpt>
<trkpt lat="33.810313" lon="-118.393867">
  <ele>-0.12</ele>
  <time>2026-09-01T01:17:57Z</time>
  <course>0.0</course>
  <speed>0.0</speed>
  <fix>3d</fix>
</trkpt>
<trkpt lat="33.810313" lon="-118.393867">
  <ele>-0.121</ele>
  <time>2026-09-01T01:17:57Z</time>
  <course>187.54</course>
  <speed>0.03605551275463989</speed>
  <fix>3d</fix>
</trkpt>
<trkpt lat="33.810313" lon="-118.393867">
  <ele>-0.12</ele>
  <time>2026-09-01T01:17:57Z</time>
  <course>0.0</course>
  <speed>0.0</speed>
  <fix>3d</fix>
</trkpt>
<trkpt lat="33.810313" lon="-118.393867">
  <ele>-0.122</ele>
  <time>2026-09-01T01:17:57Z</time>
  <course>187.53</course>
  <speed>0.03605551275463989</speed>
  <fix>3d</fix>
</trkpt>
<trkpt lat="33.810313" lon="-118.393867">
  <ele>-0.12</ele>
  <time>2026-09-01T01:17:57Z</time>
  <course>0.0</course>
  <speed>0.0</speed>
  <fix>3d</fix>
</trkpt>
<trkpt lat="33.810313" lon="-118.393867">
  <ele>-0.124</ele>
  <time>2026-09-01T01:17:57Z</time>
  <course>187.53</course>
  <speed>0.03605551275463989</speed>
  <fix>3d</fix>
</trkpt>
<trkpt lat="33.810313" lon="-118.393867">
  <ele>-0.12</ele>
  <time>2026-09-01T01:17:57Z</time>
  <course>0.0</course>
  <speed>0.0</speed>
  <fix>3d</fix>
</trkpt>
<trkpt lat="33.810313" lon="-118.393867">
  <ele>-0.124</ele>
  <time>2026-09-01T01:17:57Z</time>
  <course>187.52</course>
  <speed>0.03605551275463989</speed>
  <fix>3d</fix>
</trkpt>
<trkpt lat="33.810313" lon="-118.393867">
  <ele>-0.12</ele>
  <time>2026-09-01T01:17:57Z</time>
  <course>0.0</course>
  <speed>0.0</speed>
  <fix>3d</fix>
</trkpt>
<trkpt lat="33.810313" lon="-118.393867">
  <ele>-0.123</ele>
  <time>2026-09-01T01:17:57Z</time>
  <course>187.51</course>
  <speed>0.03605551275463989</speed>
  <fix>3d</fix>
</trkpt>
<trkpt lat="33.810313" lon="-118.393867">
  <ele>-0.12</ele>
  <time>2026-09-01T01:17:57Z</time>
  <course>0.0</course>
  <speed>0.0</speed>
  <fix>3d</fix>
</trkpt>
<trkpt lat="33.810313" lon="-118.393867">
  <ele>-0.122</ele>
  <time>2026-09-01T01:17:57Z</time>
  <course>187.51</course>
  <speed>0.03605551275463989</speed>
  <fix>3d</fix>
</trkpt>
<trkpt lat="33.810313" lon="-118.393867">
  <ele>-0.12</ele>
  <time>2026-09-01T01:17:57Z</time>
  <course>0.0</course>
  <speed>0.0</speed>
  <fix>3d</fix>
</trkpt>
<trkpt lat="33.810313" lon="-118.393867">
  <ele>-0.119</ele>
  <time>2026-09-01T01:17:57Z</time>
  <course>187.5</course>
  <speed>0.03605551275463989</speed>
  <fix>3d</fix>
</trkpt>
<trkpt lat="33.810313" lon="-118.393867">
  <ele>-0.12</ele>
  <time>2026-09-01T01:17:57Z</time>
  <course>0.0</course>
  <speed>0.0</speed>
  <fix>3d</fix>
</trkpt>
<trkpt lat="33.810313" lon="-118.393867">
  <ele>-0.116</ele>
  <time>2026-09-01T01:17:57Z</time>
  <course>187.49</course>
  <speed>0.03605551275463989</speed>
  <fix>3d</fix>
</trkpt>
<trkpt lat="33.810313" lon="-118.393867">
  <ele>-0.12</ele>
  <time>2026-09-01T01:17:57Z</time>
  <course>0.0</course>
  <speed>0.0</speed>
  <fix>3d</fix>
</trkpt>
<trkpt lat="33.810313" lon="-118.393867">
  <ele>-0.113</ele>
  <time>2026-09-01T01:17:57Z</time>
  <course>187.49</course>
  <speed>0.03605551275463989</speed>
  <fix>3d</fix>
</trkpt>
<trkpt lat="33.810313" lon="-118.393867">
  <ele>-0.12</ele>
  <time>2026-09-01T01:17:57Z</time>
  <course>0.0</course>
  <speed>0.0</speed>
  <fix>3d</fix>
</trkpt>
<trkpt lat="33.810313" lon="-118.393867">
  <ele>-0.112</ele>
  <time>2026-09-01T01:17:57Z</time>
  <course>187.48</course>
  <speed>0.03605551275463989</speed>
  <fix>3d</fix>
</trkpt>
<trkpt lat="33.810313" lon="-118.393867">
  <ele>-0.12</ele>
  <time>2026-09-01T01:17:57Z</time>
  <course>0.0</course>
  <speed>0.0</speed>
  <fix>3d</fix>
</trkpt>
<trkpt lat="33.810313" lon="-118.393867">
  <ele>-0.112</ele>
  <time>2026-09-01T01:17:57Z</time>
  <course>187.47</course>
  <speed>0.03605551275463989</speed>
  <fix>3d</fix>
</trkpt>
<trkpt lat="33.810313" lon="-118.393867">
  <ele>-0.12</ele>
  <time>2026-09-01T01:17:57Z</time>
  <course>0.0</course>
  <speed>0.0</speed>
  <fix>3d</fix>
</trkpt>
<trkpt lat="33.810313" lon="-118.393867">
  <ele>-0.113</ele>
  <time>2026-09-01T01:17:57Z</time>
  <course>187.47</course>
  <speed>0.03605551275463989</speed>
  <fix>3d</fix>
</trkpt>
<trkpt lat="33.810313" lon="-118.393867">
  <ele>-0.12</ele>
  <time>2026-09-01T01:17:57Z</time>
  <course>0.0</course>
  <speed>0.0</speed>
  <fix>3d</fix>
</trkpt>
<trkpt lat="33.810313" lon="-118.393867">
  <ele>-0.115</ele>
  <time>2026-09-01T01:17:57Z</time>
  <course>187.46</course>
  <speed>0.03605551275463989</speed>
  <fix>3d</fix>
</trkpt>
<trkpt lat="33.810313" lon="-118.393867">
  <ele>-0.12</ele>
  <time>2026-09-01T01:17:57Z</time>
  <course>0.0</course>
  <speed>0.0</speed>
  <fix>3d</fix>
</trkpt>
<trkpt lat="33.810313" lon="-118.393867">
  <ele>-0.117</ele>
  <time>2026-09-01T01:17:57Z</time>
  <course>187.46</course>
  <speed>0.03605551275463989</speed>
  <fix>3d</fix>
</trkpt>
<trkpt lat="33.810313" lon="-118.393867">
  <ele>-0.12</ele>
  <time>2026-09-01T01:17:57Z</time>
  <course>0.0</course>
  <speed>0.0</speed>
  <fix>3d</fix>
</trkpt>
<trkpt lat="33.810313" lon="-118.393867">
  <ele>-0.119</ele>
  <time>2026-09-01T01:17:57Z</time>
  <course>187.45</course>
  <speed>0.03605551275463989</speed>
  <fix>3d</fix>
</trkpt>
<trkpt lat="33.810313" lon="-118.393867">
  <ele>-0.12</ele>
  <time>2026-09-01T01:17:57Z</time>
  <course>0.0</course>
  <speed>0.0</speed>
  <fix>3d</fix>
</trkpt>
<trkpt lat="33.810313" lon="-118.393867">
  <ele>-0.119</ele>
  <time>2026-09-01T01:17:57Z</time>
  <course>187.44</course>
  <speed>0.03605551275463989</speed>
  <fix>3d</fix>
</trkpt>
<trkpt lat="33.810313" lon="-118.393867">
  <ele>-0.12</ele>
  <time>2026-09-01T01:17:57Z</time>
  <course>0.0</course>
  <speed>0.0</speed>
  <fix>3d</fix>
</trkpt>
<trkpt lat="33.810313" lon="-118.393867">
  <ele>-0.12</ele>
  <time>2026-09-01T01:17:57Z</time>
  <course>187.44</course>
  <speed>0.03605551275463989</speed>
  <fix>3d</fix>
</trkpt>
<trkpt lat="33.810313" lon="-118.393867">
  <ele>-0.12</ele>
  <time>2026-09-01T01:17:57Z</time>
  <course>0.0</course>
  <speed>0.0</speed>
  <fix>3d</fix>
</trkpt>
<trkpt lat="33.810313" lon="-118.393867">
  <ele>-0.12</ele>
  <time>2026-09-01T01:17:57Z</time>
  <course>187.43</course>
  <speed>0.03605551275463989</speed>
  <fix>3d</fix>
</trkpt>
<trkpt lat="33.810313" lon="-118.393867">
  <ele>-0.12</ele>
  <time>2026-09-01T01:17:57Z</time>
  <course>0.0</course>
  <speed>0.0</speed>
  <fix>3d</fix>
</trkpt>
<trkpt lat="33.810313" lon="-118.393867">
  <ele>-0.119</ele>
  <time>2026-09-01T01:17:57Z</time>
  <course>187.42</course>
  <speed>0.03605551275463989</speed>
  <fix>3d</fix>
</trkpt>
<trkpt lat="33.810313" lon="-118.393867">
  <ele>-0.12</ele>
  <time>2026-09-01T01:17:57Z</time>
  <course>0.0</course>
  <speed>0.0</speed>
  <fix>3d</fix>
</trkpt>
<trkpt lat="33.810313" lon="-118.393867">
  <ele>-0.119</ele>
  <time>2026-09-01T01:17:57Z</time>
  <course>187.42</course>
  <speed>0.03605551275463989</speed>
  <fix>3d</fix>
</trkpt>
<trkpt lat="33.810313" lon="-118.393867">
  <ele>-0.12</ele>
  <time>2026-09-01T01:17:57Z</time>
  <course>0.0</course>
  <speed>0.0</speed>
  <fix>3d</fix>
</trkpt>
<trkpt lat="33.810313" lon="-118.393867">
  <ele>-0.119</ele>
  <time>2026-09-01T01:17:57Z</time>
  <course>187.41</course>
  <speed>0.03605551275463989</speed>
  <fix>3d</fix>
</trkpt>
<trkpt lat="33.810313" lon="-118.393867">
  <ele>-0.12</ele>
  <time>2026-09-01T01:17:57Z</time>
  <course>0.0</course>
  <speed>0.0</speed>
  <fix>3d</fix>
</trkpt>
<trkpt lat="33.810313" lon="-118.393867">
  <ele>-0.12</ele>
  <time>2026-09-01T01:17:57Z</time>
  <course>187.41</course>
  <speed>0.03605551275463989</speed>
  <fix>3d</fix>
</trkpt>
<trkpt lat="33.810313" lon="-118.393867">
  <ele>-0.12</ele>
  <time>2026-09-01T01:17:57Z</time>
  <course>0.0</course>
  <speed>0.0</speed>
  <fix>3d</fix>
</trkpt>
<trkpt lat="33.810313" lon="-118.393867">
  <ele>-0.12</ele>
  <time>2026-09-01T01:17:57Z</time>
  <course>187.4</course>
  <speed>0.03605551275463989</speed>
  <fix>3d</fix>
</trkpt>
<trkpt lat="33.810313" lon="-118.393867">
  <ele>-0.12</ele>
  <time>2026-09-01T01:17:57Z</time>
  <course>0.0</course>
  <speed>0.0</speed>
  <fix>3d</fix>
</trkpt>
<trkpt lat="33.810313" lon="-118.393867">
  <ele>-0.122</ele>
  <time>2026-09-01T01:17:57Z</time>
  <course>187.39</course>
  <speed>0.03605551275463989</speed>
  <fix>3d</fix>
</trkpt>
<trkpt lat="33.810313" lon="-118.393867">
  <ele>-0.12</ele>
  <time>2026-09-01T01:17:57Z</time>
  <course>0.0</course>
  <speed>0.0</speed>
  <fix>3d</fix>
</trkpt>
<trkpt lat="33.810313" lon="-118.393867">
  <ele>-0.123</ele>
  <time>2026-09-01T01:17:57Z</time>
  <course>187.39</course>
  <speed>0.03605551275463989</speed>
  <fix>3d</fix>
</trkpt>
<trkpt lat="33.810313" lon="-118.393867">
  <ele>-0.12</ele>
  <time>2026-09-01T01:17:57Z</time>
  <course>0.0</course>
  <speed>0.0</speed>
  <fix>3d</fix>
</trkpt>
<trkpt lat="33.810313" lon="-118.393867">
  <ele>-0.124</ele>
  <time>2026-09-01T01:17:57Z</time>
  <course>187.38</course>
  <speed>0.03605551275463989</speed>
  <fix>3d</fix>
</trkpt>
<trkpt lat="33.810313" lon="-118.393867">
  <ele>-0.12</ele>
  <time>2026-09-01T01:17:57Z</time>
  <course>0.0</course>
  <speed>0.0</speed>
  <fix>3d</fix>
</trkpt>
<trkpt lat="33.810313" lon="-118.393867">
  <ele>-0.125</ele>
  <time>2026-09-01T01:17:57Z</time>
  <course>187.38</course>
  <speed>0.03605551275463989</speed>
  <fix>3d</fix>
</trkpt>
<trkpt lat="33.810313" lon="-118.393867">
  <ele>-0.12</ele>
  <time>2026-09-01T01:17:57Z</time>
  <course>0.0</course>
  <speed>0.0</speed>
  <fix>3d</fix>
</trkpt>
<trkpt lat="33.810313" lon="-118.393867">
  <ele>-0.125</ele>
  <time>2026-09-01T01:17:57Z</time>
  <course>187.37</course>
  <speed>0.03605551275463989</speed>
  <fix>3d</fix>
</trkpt>
<trkpt lat="33.810313" lon="-118.393867">
  <ele>-0.12</ele>
  <time>2026-09-01T01:17:57Z</time>
  <course>0.0</course>
  <speed>0.0</speed>
  <fix>3d</fix>
</trkpt>
<trkpt lat="33.810313" lon="-118.393867">
  <ele>-0.125</ele>
  <time>2026-09-01T01:17:57Z</time>
  <course>187.36</course>
  <speed>0.03605551275463989</speed>
  <fix>3d</fix>
</trkpt>
<trkpt lat="33.810313" lon="-118.393867">
  <ele>-0.12</ele>
  <time>2026-09-01T01:17:57Z</time>
  <course>0.0</course>
  <speed>0.0</speed>
  <fix>3d</fix>
</trkpt>
<trkpt lat="33.810313" lon="-118.393867">
  <ele>-0.125</ele>
  <time>2026-09-01T01:17:57Z</time>
  <course>187.36</course>
  <speed>0.03605551275463989</speed>
  <fix>3d</fix>
</trkpt>
<trkpt lat="33.810313" lon="-118.393867">
  <ele>-0.12</ele>
  <time>2026-09-01T01:17:57Z</time>
  <course>0.0</course>
  <speed>0.0</speed>
  <fix>3d</fix>
</trkpt>
<trkpt lat="33.810313" lon="-118.393867">
  <ele>-0.125</ele>
  <time>2026-09-01T01:17:57Z</time>
  <course>187.35</course>
  <speed>0.03605551275463989</speed>
  <fix>3d</fix>
</trkpt>
<trkpt lat="33.810313" lon="-118.393867">
  <ele>-0.12</ele>
  <time>2026-09-01T01:17:57Z</time>
  <course>0.0</course>
  <speed>0.0</speed>
  <fix>3d</fix>
</trkpt>
<trkpt lat="33.810313" lon="-118.393867">
  <ele>-0.124</ele>
  <time>2026-09-01T01:17:57Z</time>
  <course>187.35</course>
  <speed>0.03605551275463989</speed>
  <fix>3d</fix>
</trkpt>
<trkpt lat="33.810313" lon="-118.393867">
  <ele>-0.12</ele>
  <time>2026-09-01T01:17:57Z</time>
  <course>0.0</course>
  <speed>0.0</speed>
  <fix>3d</fix>
</trkpt>
<trkpt lat="33.810313" lon="-118.393867">
  <ele>-0.125</ele>
  <time>2026-09-01T01:17:57Z</time>
  <course>187.34</course>
  <speed>0.03605551275463989</speed>
  <fix>3d</fix>
</trkpt>
<trkpt lat="33.810313" lon="-118.393867">
  <ele>-0.12</ele>
  <time>2026-09-01T01:17:57Z</time>
  <course>0.0</course>
  <speed>0.0</speed>
  <fix>3d</fix>
</trkpt>
<trkpt lat="33.810313" lon="-118.393867">
  <ele>-0.125</ele>
  <time>2026-09-01T01:17:57Z</time>
  <course>187.33</course>
  <speed>0.03605551275463989</speed>
  <fix>3d</fix>
</trkpt>
<trkpt lat="33.810313" lon="-118.393867">
  <ele>-0.12</ele>
  <time>2026-09-01T01:17:57Z</time>
  <course>0.0</course>
  <speed>0.0</speed>
  <fix>3d</fix>
</trkpt>
<trkpt lat="33.810313" lon="-118.393867">
  <ele>-0.126</ele>
  <time>2026-09-01T01:17:57Z</time>
  <course>187.33</course>
  <speed>0.03605551275463989</speed>
  <fix>3d</fix>
</trkpt>
<trkpt lat="33.810313" lon="-118.393867">
  <ele>-0.12</ele>
  <time>2026-09-01T01:17:57Z</time>
  <course>0.0</course>
  <speed>0.0</speed>
  <fix>3d</fix>
</trkpt>
<trkpt lat="33.810313" lon="-118.393867">
  <ele>-0.125</ele>
  <time>2026-09-01T01:17:57Z</time>
  <course>187.32</course>
  <speed>0.03605551275463989</speed>
  <fix>3d</fix>
</trkpt>
<trkpt lat="33.810313" lon="-118.393867">
  <ele>-0.12</ele>
  <time>2026-09-01T01:17:57Z</time>
  <course>0.0</course>
  <speed>0.0</speed>
  <fix>3d</fix>
</trkpt>
<trkpt lat="33.810313" lon="-118.393867">
  <ele>-0.125</ele>
  <time>2026-09-01T01:17:57Z</time>
  <course>187.32</course>
  <speed>0.03605551275463989</speed>
  <fix>3d</fix>
</trkpt>
<trkpt lat="33.810313" lon="-118.393867">
  <ele>-0.12</ele>
  <time>2026-09-01T01:17:57Z</time>
  <course>0.0</course>
  <speed>0.0</speed>
  <fix>3d</fix>
</trkpt>
<trkpt lat="33.810313" lon="-118.393867">
  <ele>-0.124</ele>
  <time>2026-09-01T01:17:57Z</time>
  <course>187.31</course>
  <speed>0.03605551275463989</speed>
  <fix>3d</fix>
</trkpt>
<trkpt lat="33.810313" lon="-118.393867">
  <ele>-0.12</ele>
  <time>2026-09-01T01:17:57Z</time>
  <course>0.0</course>
  <speed>0.0</speed>
  <fix>3d</fix>
</trkpt>
<trkpt lat="33.810313" lon="-118.393867">
  <ele>-0.123</ele>
  <time>2026-09-01T01:17:57Z</time>
  <course>187.31</course>
  <speed>0.03605551275463989</speed>
  <fix>3d</fix>
</trkpt>
<trkpt lat="33.810313" lon="-118.393867">
  <ele>-0.12</ele>
  <time>2026-09-01T01:17:57Z</time>
  <course>0.0</course>
  <speed>0.0</speed>
  <fix>3d</fix>
</trkpt>
<trkpt lat="33.810313" lon="-118.393867">
  <ele>-0.122</ele>
  <time>2026-09-01T01:17:57Z</time>
  <course>187.3</course>
  <speed>0.03605551275463989</speed>
  <fix>3d</fix>
</trkpt>
<trkpt lat="33.810313" lon="-118.393867">
  <ele>-0.12</ele>
  <time>2026-09-01T01:17:57Z</time>
  <course>0.0</course>
  <speed>0.0</speed>
  <fix>3d</fix>
</trkpt>
<trkpt lat="33.810313" lon="-118.393867">
  <ele>-0.121</ele>
  <time>2026-09-01T01:17:57Z</time>
  <course>187.29</course>
  <speed>0.03605551275463989</speed>
  <fix>3d</fix>
</trkpt>
<trkpt lat="33.810313" lon="-118.393867">
  <ele>-0.12</ele>
  <time>2026-09-01T01:17:57Z</time>
  <course>0.0</course>
  <speed>0.0</speed>
  <fix>3d</fix>
</trkpt>
<trkpt lat="33.810313" lon="-118.393867">
  <ele>-0.12</ele>
  <time>2026-09-01T01:17:57Z</time>
  <course>187.29</course>
  <speed>0.03605551275463989</speed>
  <fix>3d</fix>
</trkpt>
<trkpt lat="33.810313" lon="-118.393867">
  <ele>-0.12</ele>
  <time>2026-09-01T01:17:57Z</time>
  <course>0.0</course>
  <speed>0.0</speed>
  <fix>3d</fix>
</trkpt>
<trkpt lat="33.810313" lon="-118.393867">
  <ele>-0.121</ele>
  <time>2026-09-01T01:17:57Z</time>
  <course>187.28</course>
  <speed>0.03605551275463989</speed>
  <fix>3d</fix>
</trkpt>
<trkpt lat="33.810313" lon="-118.393867">
  <ele>-0.12</ele>
  <time>2026-09-01T01:17:57Z</time>
  <course>0.0</course>
  <speed>0.0</speed>
  <fix>3d</fix>
</trkpt>
<trkpt lat="33.810313" lon="-118.393867">
  <ele>-0.122</ele>
  <time>2026-09-01T01:17:57Z</time>
  <course>187.28</course>
  <speed>0.03605551275463989</speed>
  <fix>3d</fix>
</trkpt>
<trkpt lat="33.810313" lon="-118.393867">
  <ele>-0.12</ele>
  <time>2026-09-01T01:17:57Z</time>
  <course>0.0</course>
  <speed>0.0</speed>
  <fix>3d</fix>
</trkpt>
<trkpt lat="33.810313" lon="-118.393867">
  <ele>-0.123</ele>
  <time>2026-09-01T01:17:57Z</time>
  <course>187.27</course>
  <speed>0.03605551275463989</speed>
  <fix>3d</fix>
</trkpt>
<trkpt lat="33.810313" lon="-118.393867">
  <ele>-0.12</ele>
  <time>2026-09-01T01:17:57Z</time>
  <course>0.0</course>
  <speed>0.0</speed>
  <fix>3d</fix>
</trkpt>
<trkpt lat="33.810313" lon="-118.393867">
  <ele>-0.125</ele>
  <time>2026-09-01T01:17:57Z</time>
  <course>187.27</course>
  <speed>0.03605551275463989</speed>
  <fix>3d</fix>
</trkpt>
<trkpt lat="33.810313" lon="-118.393867">
  <ele>-0.12</ele>
  <time>2026-09-01T01:17:57Z</time>
  <course>0.0</course>
  <speed>0.0</speed>
  <fix>3d</fix>
</trkpt>
<trkpt lat="33.810313" lon="-118.393867">
  <ele>-0.126</ele>
  <time>2026-09-01T01:17:57Z</time>
  <course>187.26</course>
  <speed>0.03605551275463989</speed>
  <fix>3d</fix>
</trkpt>
<trkpt lat="33.810313" lon="-118.393867">
  <ele>-0.12</ele>
  <time>2026-09-01T01:17:57Z</time>
  <course>0.0</course>
  <speed>0.0</speed>
  <fix>3d</fix>
</trkpt>
<trkpt lat="33.810313" lon="-118.393867">
  <ele>-0.126</ele>
  <time>2026-09-01T01:17:57Z</time>
  <course>187.26</course>
  <speed>0.03605551275463989</speed>
  <fix>3d</fix>
</trkpt>
<trkpt lat="33.810313" lon="-118.393867">
  <ele>-0.12</ele>
  <time>2026-09-01T01:17:57Z</time>
  <course>0.0</course>
  <speed>0.0</speed>
  <fix>3d</fix>
</trkpt>
<trkpt lat="33.810313" lon="-118.393867">
  <ele>-0.125</ele>
  <time>2026-09-01T01:17:57Z</time>
  <course>187.25</course>
  <speed>0.03605551275463989</speed>
  <fix>3d</fix>
</trkpt>
<trkpt lat="33.810313" lon="-118.393867">
  <ele>-0.12</ele>
  <time>2026-09-01T01:17:57Z</time>
  <course>0.0</course>
  <speed>0.0</speed>
  <fix>3d</fix>
</trkpt>
<trkpt lat="33.810313" lon="-118.393867">
  <ele>-0.124</ele>
  <time>2026-09-01T01:17:57Z</time>
  <course>187.25</course>
  <speed>0.03605551275463989</speed>
  <fix>3d</fix>
</trkpt>
<trkpt lat="33.810313" lon="-118.393867">
  <ele>-0.12</ele>
  <time>2026-09-01T01:17:57Z</time>
  <course>0.0</course>
  <speed>0.0</speed>
  <fix>3d</fix>
</trkpt>
<trkpt lat="33.810313" lon="-118.393867">
  <ele>-0.122</ele>
  <time>2026-09-01T01:17:57Z</time>
  <course>187.24</course>
  <speed>0.03605551275463989</speed>
  <fix>3d</fix>
</trkpt>
<trkpt lat="33.810313" lon="-118.393867">
  <ele>-0.12</ele>
  <time>2026-09-01T01:17:57Z</time>
  <course>0.0</course>
  <speed>0.0</speed>
  <fix>3d</fix>
</trkpt>
<trkpt lat="33.810313" lon="-118.393867">
  <ele>-0.12</ele>
  <time>2026-09-01T01:17:57Z</time>
  <course>187.23</course>
  <speed>0.03605551275463989</speed>
  <fix>3d</fix>
</trkpt>
<trkpt lat="33.810313" lon="-118.393867">
  <ele>-0.12</ele>
  <time>2026-09-01T01:17:57Z</time>
  <course>0.0</course>
  <speed>0.0</speed>
  <fix>3d</fix>
</trkpt>
<trkpt lat="33.810313" lon="-118.393867">
  <ele>-0.119</ele>
  <time>2026-09-01T01:17:57Z</time>
  <course>187.23</course>
  <speed>0.03605551275463989</speed>
  <fix>3d</fix>
</trkpt>
<trkpt lat="33.810313" lon="-118.393867">
  <ele>-0.12</ele>
  <time>2026-09-01T01:17:57Z</time>
  <course>0.0</course>
  <speed>0.0</speed>
  <fix>3d</fix>
</trkpt>
<trkpt lat="33.810313" lon="-118.393867">
  <ele>-0.118</ele>
  <time>2026-09-01T01:17:57Z</time>
  <course>187.22</course>
  <speed>0.03605551275463989</speed>
  <fix>3d</fix>
</trkpt>
<trkpt lat="33.810313" lon="-118.393867">
  <ele>-0.12</ele>
  <time>2026-09-01T01:17:57Z</time>
  <course>0.0</course>
  <speed>0.0</speed>
  <fix>3d</fix>
</trkpt>
<trkpt lat="33.810313" lon="-118.393867">
  <ele>-0.118</ele>
  <time>2026-09-01T01:17:57Z</time>
  <course>187.22</course>
  <speed>0.03605551275463989</speed>
  <fix>3d</fix>
</trkpt>
<trkpt lat="33.810313" lon="-118.393867">
  <ele>-0.12</ele>
  <time>2026-09-01T01:17:57Z</time>
  <course>0.0</course>
  <speed>0.0</speed>
  <fix>3d</fix>
</trkpt>
<trkpt lat="33.810313" lon="-118.393867">
  <ele>-0.118</ele>
  <time>2026-09-01T01:17:57Z</time>
  <course>187.21</course>
  <speed>0.03605551275463989</speed>
  <fix>3d</fix>
</trkpt>
<trkpt lat="33.810313" lon="-118.393867">
  <ele>-0.12</ele>
  <time>2026-09-01T01:17:57Z</time>
  <course>0.0</course>
  <speed>0.0</speed>
  <fix>3d</fix>
</trkpt>
<trkpt lat="33.810313" lon="-118.393867">
  <ele>-0.118</ele>
  <time>2026-09-01T01:17:57Z</time>
  <course>187.21</course>
  <speed>0.03605551275463989</speed>
  <fix>3d</fix>
</trkpt>
<trkpt lat="33.810313" lon="-118.393867">
  <ele>-0.12</ele>
  <time>2026-09-01T01:17:57Z</time>
  <course>0.0</course>
  <speed>0.0</speed>
  <fix>3d</fix>
</trkpt>
<trkpt lat="33.810313" lon="-118.393867">
  <ele>-0.116</ele>
  <time>2026-09-01T01:17:57Z</time>
  <course>187.2</course>
  <speed>0.03605551275463989</speed>
  <fix>3d</fix>
</trkpt>
<trkpt lat="33.810313" lon="-118.393867">
  <ele>-0.12</ele>
  <time>2026-09-01T01:17:57Z</time>
  <course>0.0</course>
  <speed>0.0</speed>
  <fix>3d</fix>
</trkpt>
<trkpt lat="33.810313" lon="-118.393867">
  <ele>-0.114</ele>
  <time>2026-09-01T01:17:57Z</time>
  <course>187.2</course>
  <speed>0.03605551275463989</speed>
  <fix>3d</fix>
</trkpt>
<trkpt lat="33.810313" lon="-118.393867">
  <ele>-0.12</ele>
  <time>2026-09-01T01:17:57Z</time>
  <course>0.0</course>
  <speed>0.0</speed>
  <fix>3d</fix>
</trkpt>
<trkpt lat="33.810313" lon="-118.393867">
  <ele>-0.111</ele>
  <time>2026-09-01T01:17:57Z</time>
  <course>187.19</course>
  <speed>0.03605551275463989</speed>
  <fix>3d</fix>
</trkpt>
<trkpt lat="33.810313" lon="-118.393867">
  <ele>-0.12</ele>
  <time>2026-09-01T01:17:57Z</time>
  <course>0.0</course>
  <speed>0.0</speed>
  <fix>3d</fix>
</trkpt>
<trkpt lat="33.810313" lon="-118.393867">
  <ele>-0.109</ele>
  <time>2026-09-01T01:17:57Z</time>
  <course>187.19</course>
  <speed>0.03605551275463989</speed>
  <fix>3d</fix>
</trkpt>
<trkpt lat="33.810313" lon="-118.393867">
  <ele>-0.12</ele>
  <time>2026-09-01T01:17:57Z</time>
  <course>0.0</course>
  <speed>0.0</speed>
  <fix>3d</fix>
</trkpt>
<trkpt lat="33.810313" lon="-118.393867">
  <ele>-0.108</ele>
  <time>2026-09-01T01:17:57Z</time>
  <course>187.18</course>
  <speed>0.03605551275463989</speed>
  <fix>3d</fix>
</trkpt>
<trkpt lat="33.810313" lon="-118.393867">
  <ele>-0.12</ele>
  <time>2026-09-01T01:17:57Z</time>
  <course>0.0</course>
  <speed>0.0</speed>
  <fix>3d</fix>
</trkpt>
<trkpt lat="33.810313" lon="-118.393867">
  <ele>-0.11</ele>
  <time>2026-09-01T01:17:57Z</time>
  <course>187.18</course>
  <speed>0.03605551275463989</speed>
  <fix>3d</fix>
</trkpt>
<trkpt lat="33.810313" lon="-118.393867">
  <ele>-0.12</ele>
  <time>2026-09-01T01:17:57Z</time>
  <course>0.0</course>
  <speed>0.0</speed>
  <fix>3d</fix>
</trkpt>
<trkpt lat="33.810313" lon="-118.393867">
  <ele>-0.112</ele>
  <time>2026-09-01T01:17:57Z</time>
  <course>187.17</course>
  <speed>0.03605551275463989</speed>
  <fix>3d</fix>
</trkpt>
<trkpt lat="33.810313" lon="-118.393867">
  <ele>-0.12</ele>
  <time>2026-09-01T01:17:57Z</time>
  <course>0.0</course>
  <speed>0.0</speed>
  <fix>3d</fix>
</trkpt>
<trkpt lat="33.810313" lon="-118.393867">
  <ele>-0.114</ele>
  <time>2026-09-01T01:17:57Z</time>
  <course>187.17</course>
  <speed>0.0</speed>
  <fix>3d</fix>
</trkpt>
<trkpt lat="33.810313" lon="-118.393867">
  <ele>-0.12</ele>
  <time>2026-09-01T01:17:57Z</time>
  <course>0.0</course>
  <speed>0.0</speed>
  <fix>3d</fix>
</trkpt>
<trkpt lat="33.810313" lon="-118.393867">
  <ele>-0.116</ele>
  <time>2026-09-01T01:17:57Z</time>
  <course>187.16</course>
  <speed>0.0</speed>
  <fix>3d</fix>
</trkpt>
<trkpt lat="33.810313" lon="-118.393867">
  <ele>-0.12</ele>
  <time>2026-09-01T01:17:57Z</time>
  <course>0.0</course>
  <speed>0.0</speed>
  <fix>3d</fix>
</trkpt>
<trkpt lat="33.810313" lon="-118.393867">
  <ele>-0.118</ele>
  <time>2026-09-01T01:17:57Z</time>
  <course>187.16</course>
  <speed>0.0</speed>
  <fix>3d</fix>
</trkpt>
<trkpt lat="33.810313" lon="-118.393867">
  <ele>-0.12</ele>
  <time>2026-09-01T01:17:57Z</time>
  <course>0.0</course>
  <speed>0.0</speed>
  <fix>3d</fix>
</trkpt>
<trkpt lat="33.810313" lon="-118.393867">
  <ele>-0.119</ele>
  <time>2026-09-01T01:17:57Z</time>
  <course>187.15</course>
  <speed>0.0</speed>
  <fix>3d</fix>
</trkpt>
<trkpt lat="33.810313" lon="-118.393867">
  <ele>-0.12</ele>
  <time>2026-09-01T01:17:57Z</time>
  <course>0.0</course>
  <speed>0.0</speed>
  <fix>3d</fix>
</trkpt>
<trkpt lat="33.810313" lon="-118.393867">
  <ele>-0.12</ele>
  <time>2026-09-01T01:17:57Z</time>
  <course>187.15</course>
  <speed>0.0</speed>
  <fix>3d</fix>
</trkpt>
<trkpt lat="33.810313" lon="-118.393867">
  <ele>-0.12</ele>
  <time>2026-09-01T01:17:57Z</time>
  <course>0.0</course>
  <speed>0.0</speed>
  <fix>3d</fix>
</trkpt>
<trkpt lat="33.810313" lon="-118.393867">
  <ele>-0.12</ele>
  <time>2026-09-01T01:17:57Z</time>
  <course>187.14</course>
  <speed>0.0</speed>
  <fix>3d</fix>
</trkpt>
<trkpt lat="33.810313" lon="-118.393867">
  <ele>-0.12</ele>
  <time>2026-09-01T01:17:57Z</time>
  <course>0.0</course>
  <speed>0.0</speed>
  <fix>3d</fix>
</trkpt>
<trkpt lat="33.810313" lon="-118.393867">
  <ele>-0.12</ele>
  <time>2026-09-01T01:17:57Z</time>
  <course>187.14</course>
  <speed>0.0</speed>
  <fix>3d</fix>
</trkpt>
<trkpt lat="33.810313" lon="-118.393867">
  <ele>-0.12</ele>
  <time>2026-09-01T01:17:57Z</time>
  <course>0.0</course>
  <speed>0.0</speed>
  <fix>3d</fix>
</trkpt>
<trkpt lat="33.810313" lon="-118.393867">
  <ele>-0.12</ele>
  <time>2026-09-01T01:17:57Z</time>
  <course>187.13</course>
  <speed>0.0</speed>
  <fix>3d</fix>
</trkpt>
<trkpt lat="33.810313" lon="-118.393867">
  <ele>-0.12</ele>
  <time>2026-09-01T01:17:57Z</time>
  <course>0.0</course>
  <speed>0.0</speed>
  <fix>3d</fix>
</trkpt>
<trkpt lat="33.810313" lon="-118.393867">
  <ele>-0.121</ele>
  <time>2026-09-01T01:17:57Z</time>
  <course>187.13</course>
  <speed>0.0</speed>
  <fix>3d</fix>
</trkpt>
<trkpt lat="33.810313" lon="-118.393867">
  <ele>-0.12</ele>
  <time>2026-09-01T01:17:57Z</time>
  <course>0.0</course>
  <speed>0.0</speed>
  <fix>3d</fix>
</trkpt>
<trkpt lat="33.810313" lon="-118.393867">
  <ele>-0.123</ele>
  <time>2026-09-01T01:17:57Z</time>
  <course>187.12</course>
  <speed>0.0</speed>
  <fix>3d</fix>
</trkpt>
<trkpt lat="33.810313" lon="-118.393867">
  <ele>-0.12</ele>
  <time>2026-09-01T01:17:57Z</time>
  <course>0.0</course>
  <speed>0.0</speed>
  <fix>3d</fix>
</trkpt>
<trkpt lat="33.810313" lon="-118.393867">
  <ele>-0.125</ele>
  <time>2026-09-01T01:17:57Z</time>
  <course>187.12</course>
  <speed>0.0</speed>
  <fix>3d</fix>
</trkpt>
<trkpt lat="33.810313" lon="-118.393867">
  <ele>-0.12</ele>
  <time>2026-09-01T01:17:57Z</time>
  <course>0.0</course>
  <speed>0.0</speed>
  <fix>3d</fix>
</trkpt>
<trkpt lat="33.810313" lon="-118.393867">
  <ele>-0.127</ele>
  <time>2026-09-01T01:17:57Z</time>
  <course>187.11</course>
  <speed>0.01</speed>
  <fix>3d</fix>
</trkpt>
<trkpt lat="33.810313" lon="-118.393867">
  <ele>-0.12</ele>
  <time>2026-09-01T01:17:57Z</time>
  <course>0.0</course>
  <speed>0.0</speed>
  <fix>3d</fix>
</trkpt>
<trkpt lat="33.810313" lon="-118.393867">
  <ele>-0.129</ele>
  <time>2026-09-01T01:17:57Z</time>
  <course>187.11</course>
  <speed>0.01</speed>
  <fix>3d</fix>
</trkpt>
<trkpt lat="33.810313" lon="-118.393867">
  <ele>-0.12</ele>
  <time>2026-09-01T01:17:57Z</time>
  <course>0.0</course>
  <speed>0.0</speed>
  <fix>3d</fix>
</trkpt>
<trkpt lat="33.810313" lon="-118.393867">
  <ele>-0.131</ele>
  <time>2026-09-01T01:17:57Z</time>
  <course>187.1</course>
  <speed>0.01</speed>
  <fix>3d</fix>
</trkpt>
<trkpt lat="33.810313" lon="-118.393867">
  <ele>-0.12</ele>
  <time>2026-09-01T01:17:57Z</time>
  <course>0.0</course>
  <speed>0.0</speed>
  <fix>3d</fix>
</trkpt>
<trkpt lat="33.810313" lon="-118.393867">
  <ele>-0.131</ele>
  <time>2026-09-01T01:17:57Z</time>
  <course>187.1</course>
  <speed>0.01414213562373095</speed>
  <fix>3d</fix>
</trkpt>
<trkpt lat="33.810313" lon="-118.393867">
  <ele>-0.12</ele>
  <time>2026-09-01T01:17:57Z</time>
  <course>0.0</course>
  <speed>0.0</speed>
  <fix>3d</fix>
</trkpt>
<trkpt lat="33.810313" lon="-118.393867">
  <ele>-0.13</ele>
  <time>2026-09-01T01:17:57Z</time>
  <course>187.09</course>
  <speed>0.01414213562373095</speed>
  <fix>3d</fix>
</trkpt>
<trkpt lat="33.810313" lon="-118.393867">
  <ele>-0.12</ele>
  <time>2026-09-01T01:17:57Z</time>
  <course>0.0</course>
  <speed>0.0</speed>
  <fix>3d</fix>
</trkpt>
<trkpt lat="33.810313" lon="-118.393867">
  <ele>-0.129</ele>
  <time>2026-09-01T01:17:57Z</time>
  <course>187.09</course>
  <speed>0.01414213562373095</speed>
  <fix>3d</fix>
</trkpt>
<trkpt lat="33.810313" lon="-118.393867">
  <ele>-0.12</ele>
  <time>2026-09-01T01:17:57Z</time>
  <course>0.0</course>
  <speed>0.0</speed>
  <fix>3d</fix>
</trkpt>
<trkpt lat="33.810313" lon="-118.393867">
  <ele>-0.127</ele>
  <time>2026-09-01T01:17:57Z</time>
  <course>187.08</course>
  <speed>0.01414213562373095</speed>
  <fix>3d</fix>
</trkpt>
<trkpt lat="33.810313" lon="-118.393867">
  <ele>-0.12</ele>
  <time>2026-09-01T01:17:57Z</time>
  <course>0.0</course>
  <speed>0.0</speed>
  <fix>3d</fix>
</trkpt>
<trkpt lat="33.810313" lon="-118.393867">
  <ele>-0.126</ele>
  <time>2026-09-01T01:17:57Z</time>
  <course>187.08</course>
  <speed>0.01414213562373095</speed>
  <fix>3d</fix>
</trkpt>
<trkpt lat="33.810313" lon="-118.393867">
  <ele>-0.12</ele>
  <time>2026-09-01T01:17:57Z</time>
  <course>0.0</course>
  <speed>0.0</speed>
  <fix>3d</fix>
</trkpt>
<trkpt lat="33.810313" lon="-118.393867">
  <ele>-0.125</ele>
  <time>2026-09-01T01:17:57Z</time>
  <course>187.07</course>
  <speed>0.01414213562373095</speed>
  <fix>3d</fix>
</trkpt>
<trkpt lat="33.810313" lon="-118.393867">
  <ele>-0.12</ele>
  <time>2026-09-01T01:17:57Z</time>
  <course>0.0</course>
  <speed>0.0</speed>
  <fix>3d</fix>
</trkpt>
<trkpt lat="33.810313" lon="-118.393867">
  <ele>-0.126</ele>
  <time>2026-09-01T01:17:57Z</time>
  <course>187.07</course>
  <speed>0.01414213562373095</speed>
  <fix>3d</fix>
</trkpt>
<trkpt lat="33.810313" lon="-118.393867">
  <ele>-0.12</ele>
  <time>2026-09-01T01:17:57Z</time>
  <course>0.0</course>
  <speed>0.0</speed>
  <fix>3d</fix>
</trkpt>
<trkpt lat="33.810313" lon="-118.393867">
  <ele>-0.128</ele>
  <time>2026-09-01T01:17:57Z</time>
  <course>187.06</course>
  <speed>0.01414213562373095</speed>
  <fix>3d</fix>
</trkpt>
<trkpt lat="33.810313" lon="-118.393867">
  <ele>-0.12</ele>
  <time>2026-09-01T01:17:57Z</time>
  <course>0.0</course>
  <speed>0.0</speed>
  <fix>3d</fix>
</trkpt>
<trkpt lat="33.810313" lon="-118.393867">
  <ele>-0.129</ele>
  <time>2026-09-01T01:17:57Z</time>
  <course>187.06</course>
  <speed>0.01414213562373095</speed>
  <fix>3d</fix>
</trkpt>
<trkpt lat="33.810313" lon="-118.393867">
  <ele>-0.12</ele>
  <time>2026-09-01T01:17:57Z</time>
  <course>0.0</course>
  <speed>0.0</speed>
  <fix>3d</fix>
</trkpt>
<trkpt lat="33.810313" lon="-118.393867">
  <ele>-0.129</ele>
  <time>2026-09-01T01:17:57Z</time>
  <course>187.05</course>
  <speed>0.01414213562373095</speed>
  <fix>3d</fix>
</trkpt>
<trkpt lat="33.810313" lon="-118.393867">
  <ele>-0.12</ele>
  <time>2026-09-01T01:17:57Z</time>
  <course>0.0</course>
  <speed>0.0</speed>
  <fix>3d</fix>
</trkpt>
<trkpt lat="33.810313" lon="-118.393867">
  <ele>-0.129</ele>
  <time>2026-09-01T01:17:57Z</time>
  <course>187.05</course>
  <speed>0.01414213562373095</speed>
  <fix>3d</fix>
</trkpt>
<trkpt lat="33.810313" lon="-118.393867">
  <ele>-0.12</ele>
  <time>2026-09-01T01:17:57Z</time>
  <course>0.0</course>
  <speed>0.0</speed>
  <fix>3d</fix>
</trkpt>
<trkpt lat="33.810313" lon="-118.393867">
  <ele>-0.128</ele>
  <time>2026-09-01T01:17:57Z</time>
  <course>187.04</course>
  <speed>0.01414213562373095</speed>
  <fix>3d</fix>
</trkpt>
<trkpt lat="33.810313" lon="-118.393867">
  <ele>-0.12</ele>
  <time>2026-09-01T01:17:57Z</time>
  <course>0.0</course>
  <speed>0.0</speed>
  <fix>3d</fix>
</trkpt>
<trkpt lat="33.810313" lon="-118.393867">
  <ele>-0.127</ele>
  <time>2026-09-01T01:17:57Z</time>
  <course>187.04</course>
  <speed>0.01414213562373095</speed>
  <fix>3d</fix>
</trkpt>
<trkpt lat="33.810313" lon="-118.393867">
  <ele>-0.12</ele>
  <time>2026-09-01T01:17:57Z</time>
  <course>0.0</course>
  <speed>0.0</speed>
  <fix>3d</fix>
</trkpt>
<trkpt lat="33.810313" lon="-118.393867">
  <ele>-0.125</ele>
  <time>2026-09-01T01:17:57Z</time>
  <course>187.03</course>
  <speed>0.01414213562373095</speed>
  <fix>3d</fix>
</trkpt>
<trkpt lat="33.810313" lon="-118.393867">
  <ele>-0.12</ele>
  <time>2026-09-01T01:17:57Z</time>
  <course>0.0</course>
  <speed>0.0</speed>
  <fix>3d</fix>
</trkpt>
<trkpt lat="33.810313" lon="-118.393867">
  <ele>-0.125</ele>
  <time>2026-09-01T01:17:57Z</time>
  <course>187.03</course>
  <speed>0.01414213562373095</speed>
  <fix>3d</fix>
</trkpt>
<trkpt lat="33.810313" lon="-118.393867">
  <ele>-0.12</ele>
  <time>2026-09-01T01:17:57Z</time>
  <course>0.0</course>
  <speed>0.0</speed>
  <fix>3d</fix>
</trkpt>
<trkpt lat="33.810313" lon="-118.393867">
  <ele>-0.124</ele>
  <time>2026-09-01T01:17:57Z</time>
  <course>187.03</course>
  <speed>0.01414213562373095</speed>
  <fix>3d</fix>
</trkpt>
<trkpt lat="33.810313" lon="-118.393867">
  <ele>-0.12</ele>
  <time>2026-09-01T01:17:57Z</time>
  <course>0.0</course>
  <speed>0.0</speed>
  <fix>3d</fix>
</trkpt>
<trkpt lat="33.810313" lon="-118.393867">
  <ele>-0.123</ele>
  <time>2026-09-01T01:17:57Z</time>
  <course>187.02</course>
  <speed>0.01</speed>
  <fix>3d</fix>
</trkpt>
<trkpt lat="33.810313" lon="-118.393867">
  <ele>-0.12</ele>
  <time>2026-09-01T01:17:57Z</time>
  <course>0.0</course>
  <speed>0.0</speed>
  <fix>3d</fix>
</trkpt>
<trkpt lat="33.810313" lon="-118.393867">
  <ele>-0.124</ele>
  <time>2026-09-01T01:17:57Z</time>
  <course>187.02</course>
  <speed>0.01</speed>
  <fix>3d</fix>
</trkpt>
<trkpt lat="33.810313" lon="-118.393867">
  <ele>-0.12</ele>
  <time>2026-09-01T01:17:57Z</time>
  <course>0.0</course>
  <speed>0.0</speed>
  <fix>3d</fix>
</trkpt>
<trkpt lat="33.810313" lon="-118.393867">
  <ele>-0.124</ele>
  <time>2026-09-01T01:17:57Z</time>
  <course>187.01</course>
  <speed>0.01</speed>
  <fix>3d</fix>
</trkpt>
<trkpt lat="33.810313" lon="-118.393867">
  <ele>-0.12</ele>
  <time>2026-09-01T01:17:57Z</time>
  <course>0.0</course>
  <speed>0.0</speed>
  <fix>3d</fix>
</trkpt>
<trkpt lat="33.810313" lon="-118.393867">
  <ele>-0.125</ele>
  <time>2026-09-01T01:17:57Z</time>
  <course>187.01</course>
  <speed>0.01</speed>
  <fix>3d</fix>
</trkpt>
<trkpt lat="33.810313" lon="-118.393867">
  <ele>-0.12</ele>
  <time>2026-09-01T01:17:57Z</time>
  <course>0.0</course>
  <speed>0.0</speed>
  <fix>3d</fix>
</trkpt>
<trkpt lat="33.810313" lon="-118.393867">
  <ele>-0.126</ele>
  <time>2026-09-01T01:17:57Z</time>
  <course>187.0</course>
  <speed>0.01</speed>
  <fix>3d</fix>
</trkpt>
<trkpt lat="33.810313" lon="-118.393867">
  <ele>-0.12</ele>
  <time>2026-09-01T01:17:57Z</time>
  <course>0.0</course>
  <speed>0.0</speed>
  <fix>3d</fix>
</trkpt>
<trkpt lat="33.810313" lon="-118.393867">
  <ele>-0.124</ele>
  <time>2026-09-01T01:17:57Z</time>
  <course>187.0</course>
  <speed>0.0</speed>
  <fix>3d</fix>
</trkpt>
<trkpt lat="33.810313" lon="-118.393867">
  <ele>-0.12</ele>
  <time>2026-09-01T01:17:57Z</time>
  <course>0.0</course>
  <speed>0.0</speed>
  <fix>3d</fix>
</trkpt>
<trkpt lat="33.810313" lon="-118.393867">
  <ele>-0.123</ele>
  <time>2026-09-01T01:17:57Z</time>
  <course>186.99</course>
  <speed>0.0</speed>
  <fix>3d</fix>
</trkpt>
<trkpt lat="33.810313" lon="-118.393867">
  <ele>-0.12</ele>
  <time>2026-09-01T01:17:57Z</time>
  <course>0.0</course>
  <speed>0.0</speed>
  <fix>3d</fix>
</trkpt>
<trkpt lat="33.810313" lon="-118.393867">
  <ele>-0.122</ele>
  <time>2026-09-01T01:17:57Z</time>
  <course>186.99</course>
  <speed>0.0</speed>
  <fix>3d</fix>
</trkpt>
<trkpt lat="33.810313" lon="-118.393867">
  <ele>-0.12</ele>
  <time>2026-09-01T01:17:57Z</time>
  <course>0.0</course>
  <speed>0.0</speed>
  <fix>3d</fix>
</trkpt>
<trkpt lat="33.810313" lon="-118.393867">
  <ele>-0.121</ele>
  <time>2026-09-01T01:17:57Z</time>
  <course>186.98</course>
  <speed>0.0</speed>
  <fix>3d</fix>
</trkpt>
<trkpt lat="33.810313" lon="-118.393867">
  <ele>-0.12</ele>
  <time>2026-09-01T01:17:57Z</time>
  <course>0.0</course>
  <speed>0.0</speed>
  <fix>3d</fix>
</trkpt>
<trkpt lat="33.810313" lon="-118.393867">
  <ele>-0.121</ele>
  <time>2026-09-01T01:17:57Z</time>
  <course>186.98</course>
  <speed>0.0</speed>
  <fix>3d</fix>
</trkpt>
<trkpt lat="33.810313" lon="-118.393867">
  <ele>-0.12</ele>
  <time>2026-09-01T01:17:57Z</time>
  <course>0.0</course>
  <speed>0.0</speed>
  <fix>3d</fix>
</trkpt>
<trkpt lat="33.810313" lon="-118.393867">
  <ele>-0.122</ele>
  <time>2026-09-01T01:17:57Z</time>
  <course>186.97</course>
  <speed>0.0</speed>
  <fix>3d</fix>
</trkpt>
<trkpt lat="33.810313" lon="-118.393867">
  <ele>-0.12</ele>
  <time>2026-09-01T01:17:57Z</time>
  <course>0.0</course>
  <speed>0.0</speed>
  <fix>3d</fix>
</trkpt>
<trkpt lat="33.810313" lon="-118.393867">
  <ele>-0.124</ele>
  <time>2026-09-01T01:17:57Z</time>
  <course>186.97</course>
  <speed>0.0</speed>
  <fix>3d</fix>
</trkpt>
<trkpt lat="33.810313" lon="-118.393867">
  <ele>-0.12</ele>
  <time>2026-09-01T01:17:57Z</time>
  <course>0.0</course>
  <speed>0.0</speed>
  <fix>3d</fix>
</trkpt>
<trkpt lat="33.810313" lon="-118.393867">
  <ele>-0.125</ele>
  <time>2026-09-01T01:17:57Z</time>
  <course>186.96</course>
  <speed>0.0</speed>
  <fix>3d</fix>
</trkpt>
<trkpt lat="33.810313" lon="-118.393867">
  <ele>-0.12</ele>
  <time>2026-09-01T01:17:57Z</time>
  <course>0.0</course>
  <speed>0.0</speed>
  <fix>3d</fix>
</trkpt>
<trkpt lat="33.810313" lon="-118.393867">
  <ele>-0.124</ele>
  <time>2026-09-01T01:17:57Z</time>
  <course>186.96</course>
  <speed>0.0</speed>
  <fix>3d</fix>
</trkpt>
<trkpt lat="33.810313" lon="-118.393867">
  <ele>-0.12</ele>
  <time>2026-09-01T01:17:57Z</time>
  <course>0.0</course>
  <speed>0.0</speed>
  <fix>3d</fix>
</trkpt>
<trkpt lat="33.810313" lon="-118.393867">
  <ele>-0.122</ele>
  <time>2026-09-01T01:17:57Z</time>
  <course>186.95</course>
  <speed>0.0</speed>
  <fix>3d</fix>
</trkpt>
<trkpt lat="33.810313" lon="-118.393867">
  <ele>-0.12</ele>
  <time>2026-09-01T01:17:57Z</time>
  <course>0.0</course>
  <speed>0.0</speed>
  <fix>3d</fix>
</trkpt>
<trkpt lat="33.810313" lon="-118.393867">
  <ele>-0.121</ele>
  <time>2026-09-01T01:17:57Z</time>
  <course>186.95</course>
  <speed>0.0</speed>
  <fix>3d</fix>
</trkpt>
<trkpt lat="33.810313" lon="-118.393867">
  <ele>-0.12</ele>
  <time>2026-09-01T01:17:57Z</time>
  <course>0.0</course>
  <speed>0.0</speed>
  <fix>3d</fix>
</trkpt>
<trkpt lat="33.810313" lon="-118.393867">
  <ele>-0.119</ele>
  <time>2026-09-01T01:17:57Z</time>
  <course>186.94</course>
  <speed>0.0</speed>
  <fix>3d</fix>
</trkpt>
<trkpt lat="33.810313" lon="-118.393867">
  <ele>-0.12</ele>
  <time>2026-09-01T01:17:57Z</time>
  <course>0.0</course>
  <speed>0.0</speed>
  <fix>3d</fix>
</trkpt>
<trkpt lat="33.810313" lon="-118.393867">
  <ele>-0.117</ele>
  <time>2026-09-01T01:17:57Z</time>
  <course>186.94</course>
  <speed>0.0</speed>
  <fix>3d</fix>
</trkpt>
<trkpt lat="33.810313" lon="-118.393867">
  <ele>-0.12</ele>
  <time>2026-09-01T01:17:57Z</time>
  <course>0.0</course>
  <speed>0.0</speed>
  <fix>3d</fix>
</trkpt>
<trkpt lat="33.810313" lon="-118.393867">
  <ele>-0.116</ele>
  <time>2026-09-01T01:17:57Z</time>
  <course>186.93</course>
  <speed>0.0</speed>
  <fix>3d</fix>
</trkpt>
<trkpt lat="33.810313" lon="-118.393867">
  <ele>-0.12</ele>
  <time>2026-09-01T01:17:57Z</time>
  <course>0.0</course>
  <speed>0.0</speed>
  <fix>3d</fix>
</trkpt>
<trkpt lat="33.810313" lon="-118.393867">
  <ele>-0.116</ele>
  <time>2026-09-01T01:17:57Z</time>
  <course>186.93</course>
  <speed>0.0</speed>
  <fix>3d</fix>
</trkpt>
<trkpt lat="33.810313" lon="-118.393867">
  <ele>-0.12</ele>
  <time>2026-09-01T01:17:57Z</time>
  <course>0.0</course>
  <speed>0.0</speed>
  <fix>3d</fix>
</trkpt>
<trkpt lat="33.810313" lon="-118.393867">
  <ele>-0.116</ele>
  <time>2026-09-01T01:17:57Z</time>
  <course>186.92</course>
  <speed>0.0</speed>
  <fix>3d</fix>
</trkpt>
<trkpt lat="33.810313" lon="-118.393867">
  <ele>-0.12</ele>
  <time>2026-09-01T01:17:57Z</time>
  <course>0.0</course>
  <speed>0.0</speed>
  <fix>3d</fix>
</trkpt>
<trkpt lat="33.810313" lon="-118.393867">
  <ele>-0.116</ele>
  <time>2026-09-01T01:17:57Z</time>
  <course>186.92</course>
  <speed>0.0</speed>
  <fix>3d</fix>
</trkpt>
<trkpt lat="33.810313" lon="-118.393867">
  <ele>-0.12</ele>
  <time>2026-09-01T01:17:57Z</time>
  <course>0.0</course>
  <speed>0.0</speed>
  <fix>3d</fix>
</trkpt>
<trkpt lat="33.810313" lon="-118.393867">
  <ele>-0.116</ele>
  <time>2026-09-01T01:17:57Z</time>
  <course>186.91</course>
  <speed>0.0</speed>
  <fix>3d</fix>
</trkpt>
<trkpt lat="33.810313" lon="-118.393867">
  <ele>-0.12</ele>
  <time>2026-09-01T01:17:57Z</time>
  <course>0.0</course>
  <speed>0.0</speed>
  <fix>3d</fix>
</trkpt>
<trkpt lat="33.810313" lon="-118.393867">
  <ele>-0.116</ele>
  <time>2026-09-01T01:17:57Z</time>
  <course>186.91</course>
  <speed>0.0</speed>
  <fix>3d</fix>
</trkpt>
<trkpt lat="33.810313" lon="-118.393867">
  <ele>-0.12</ele>
  <time>2026-09-01T01:17:57Z</time>
  <course>0.0</course>
  <speed>0.0</speed>
  <fix>3d</fix>
</trkpt>
<trkpt lat="33.810313" lon="-118.393867">
  <ele>-0.115</ele>
  <time>2026-09-01T01:17:57Z</time>
  <course>186.9</course>
  <speed>0.0</speed>
  <fix>3d</fix>
</trkpt>
<trkpt lat="33.810313" lon="-118.393867">
  <ele>-0.12</ele>
  <time>2026-09-01T01:17:57Z</time>
  <course>0.0</course>
  <speed>0.0</speed>
  <fix>3d</fix>
</trkpt>
<trkpt lat="33.810313" lon="-118.393867">
  <ele>-0.114</ele>
  <time>2026-09-01T01:17:57Z</time>
  <course>186.9</course>
  <speed>0.0</speed>
  <fix>3d</fix>
</trkpt>
<trkpt lat="33.810313" lon="-118.393867">
  <ele>-0.12</ele>
  <time>2026-09-01T01:17:57Z</time>
  <course>0.0</course>
  <speed>0.0</speed>
  <fix>3d</fix>
</trkpt>
<trkpt lat="33.810313" lon="-118.393867">
  <ele>-0.113</ele>
  <time>2026-09-01T01:17:57Z</time>
  <course>186.89</course>
  <speed>0.0</speed>
  <fix>3d</fix>
</trkpt>
<trkpt lat="33.810313" lon="-118.393867">
  <ele>-0.12</ele>
  <time>2026-09-01T01:17:57Z</time>
  <course>0.0</course>
  <speed>0.0</speed>
  <fix>3d</fix>
</trkpt>
<trkpt lat="33.810313" lon="-118.393867">
  <ele>-0.111</ele>
  <time>2026-09-01T01:17:57Z</time>
  <course>186.89</course>
  <speed>0.0</speed>
  <fix>3d</fix>
</trkpt>
<trkpt lat="33.810313" lon="-118.393867">
  <ele>-0.12</ele>
  <time>2026-09-01T01:17:57Z</time>
  <course>0.0</course>
  <speed>0.0</speed>
  <fix>3d</fix>
</trkpt>
<trkpt lat="33.810313" lon="-118.393867">
  <ele>-0.112</ele>
  <time>2026-09-01T01:17:57Z</time>
  <course>186.88</course>
  <speed>0.0</speed>
  <fix>3d</fix>
</trkpt>
<trkpt lat="33.810313" lon="-118.393867">
  <ele>-0.12</ele>
  <time>2026-09-01T01:17:57Z</time>
  <course>0.0</course>
  <speed>0.0</speed>
  <fix>3d</fix>
</trkpt>
<trkpt lat="33.810313" lon="-118.393867">
  <ele>-0.113</ele>
  <time>2026-09-01T01:17:57Z</time>
  <course>186.88</course>
  <speed>0.0</speed>
  <fix>3d</fix>
</trkpt>
<trkpt lat="33.810313" lon="-118.393867">
  <ele>-0.12</ele>
  <time>2026-09-01T01:17:57Z</time>
  <course>0.0</course>
  <speed>0.0</speed>
  <fix>3d</fix>
</trkpt>
<trkpt lat="33.810313" lon="-118.393867">
  <ele>-0.114</ele>
  <time>2026-09-01T01:17:57Z</time>
  <course>186.87</course>
  <speed>0.01</speed>
  <fix>3d</fix>
</trkpt>
<trkpt lat="33.810313" lon="-118.393867">
  <ele>-0.12</ele>
  <time>2026-09-01T01:17:57Z</time>
  <course>0.0</course>
  <speed>0.0</speed>
  <fix>3d</fix>
</trkpt>
<trkpt lat="33.810313" lon="-118.393867">
  <ele>-0.116</ele>
  <time>2026-09-01T01:17:57Z</time>
  <course>186.87</course>
  <speed>0.01</speed>
  <fix>3d</fix>
</trkpt>
<trkpt lat="33.810313" lon="-118.393867">
  <ele>-0.12</ele>
  <time>2026-09-01T01:17:57Z</time>
  <course>0.0</course>
  <speed>0.0</speed>
  <fix>3d</fix>
</trkpt>
<trkpt lat="33.810313" lon="-118.393867">
  <ele>-0.117</ele>
  <time>2026-09-01T01:17:57Z</time>
  <course>186.86</course>
  <speed>0.01</speed>
  <fix>3d</fix>
</trkpt>
<trkpt lat="33.810313" lon="-118.393867">
  <ele>-0.12</ele>
  <time>2026-09-01T01:17:57Z</time>
  <course>0.0</course>
  <speed>0.0</speed>
  <fix>3d</fix>
</trkpt>
<trkpt lat="33.810313" lon="-118.393867">
  <ele>-0.117</ele>
  <time>2026-09-01T01:17:57Z</time>
  <course>186.86</course>
  <speed>0.01</speed>
  <fix>3d</fix>
</trkpt>
<trkpt lat="33.810313" lon="-118.393867">
  <ele>-0.12</ele>
  <time>2026-09-01T01:17:57Z</time>
  <course>0.0</course>
  <speed>0.0</speed>
  <fix>3d</fix>
</trkpt>
<trkpt lat="33.810313" lon="-118.393867">
  <ele>-0.115</ele>
  <time>2026-09-01T01:17:57Z</time>
  <course>186.85</course>
  <speed>0.01</speed>
  <fix>3d</fix>
</trkpt>
<trkpt lat="33.810313" lon="-118.393867">
  <ele>-0.12</ele>
  <time>2026-09-01T01:17:57Z</time>
  <course>0.0</course>
  <speed>0.0</speed>
  <fix>3d</fix>
</trkpt>
<trkpt lat="33.810313" lon="-118.393867">
  <ele>-0.114</ele>
  <time>2026-09-01T01:17:57Z</time>
  <course>186.85</course>
  <speed>0.01</speed>
  <fix>3d</fix>
</trkpt>
<trkpt lat="33.810313" lon="-118.393867">
  <ele>-0.12</ele>
  <time>2026-09-01T01:17:57Z</time>
  <course>0.0</course>
  <speed>0.0</speed>
  <fix>3d</fix>
</trkpt>
<trkpt lat="33.810313" lon="-118.393867">
  <ele>-0.113</ele>
  <time>2026-09-01T01:17:57Z</time>
  <course>186.84</course>
  <speed>0.01</speed>
  <fix>3d</fix>
</trkpt>
<trkpt lat="33.810313" lon="-118.393867">
  <ele>-0.12</ele>
  <time>2026-09-01T01:17:57Z</time>
  <course>0.0</course>
  <speed>0.0</speed>
  <fix>3d</fix>
</trkpt>
<trkpt lat="33.810313" lon="-118.393867">
  <ele>-0.113</ele>
  <time>2026-09-01T01:17:57Z</time>
  <course>186.84</course>
  <speed>0.01</speed>
  <fix>3d</fix>
</trkpt>
<trkpt lat="33.810313" lon="-118.393867">
  <ele>-0.12</ele>
  <time>2026-09-01T01:17:57Z</time>
  <course>0.0</course>
  <speed>0.0</speed>
  <fix>3d</fix>
</trkpt>
<trkpt lat="33.810313" lon="-118.393867">
  <ele>-0.113</ele>
  <time>2026-09-01T01:17:57Z</time>
  <course>186.84</course>
  <speed>0.01414213562373095</speed>
  <fix>3d</fix>
</trkpt>
<trkpt lat="33.810313" lon="-118.393867">
  <ele>-0.12</ele>
  <time>2026-09-01T01:17:57Z</time>
  <course>0.0</course>
  <speed>0.0</speed>
  <fix>3d</fix>
</trkpt>
<trkpt lat="33.810313" lon="-118.393867">
  <ele>-0.112</ele>
  <time>2026-09-01T01:17:57Z</time>
  <course>186.83</course>
  <speed>0.01414213562373095</speed>
  <fix>3d</fix>
</trkpt>
<trkpt lat="33.810313" lon="-118.393867">
  <ele>-0.12</ele>
  <time>2026-09-01T01:17:57Z</time>
  <course>0.0</course>
  <speed>0.0</speed>
  <fix>3d</fix>
</trkpt>
<trkpt lat="33.810313" lon="-118.393867">
  <ele>-0.112</ele>
  <time>2026-09-01T01:17:57Z</time>
  <course>186.83</course>
  <speed>0.01414213562373095</speed>
  <fix>3d</fix>
</trkpt>
<trkpt lat="33.810313" lon="-118.393867">
  <ele>-0.12</ele>
  <time>2026-09-01T01:17:57Z</time>
  <course>0.0</course>
  <speed>0.0</speed>
  <fix>3d</fix>
</trkpt>
<trkpt lat="33.810313" lon="-118.393867">
  <ele>-0.113</ele>
  <time>2026-09-01T01:17:57Z</time>
  <course>186.82</course>
  <speed>0.01414213562373095</speed>
  <fix>3d</fix>
</trkpt>
<trkpt lat="33.810313" lon="-118.393867">
  <ele>-0.12</ele>
  <time>2026-09-01T01:17:57Z</time>
  <course>0.0</course>
  <speed>0.0</speed>
  <fix>3d</fix>
</trkpt>
<trkpt lat="33.810313" lon="-118.393867">
  <ele>-0.113</ele>
  <time>2026-09-01T01:17:57Z</time>
  <course>186.82</course>
  <speed>0.01414213562373095</speed>
  <fix>3d</fix>
</trkpt>
<trkpt lat="33.810313" lon="-118.393867">
  <ele>-0.12</ele>
  <time>2026-09-01T01:17:57Z</time>
  <course>0.0</course>
  <speed>0.0</speed>
  <fix>3d</fix>
</trkpt>
<trkpt lat="33.810313" lon="-118.393867">
  <ele>-0.113</ele>
  <time>2026-09-01T01:17:57Z</time>
  <course>186.81</course>
  <speed>0.01414213562373095</speed>
  <fix>3d</fix>
</trkpt>
<trkpt lat="33.810313" lon="-118.393867">
  <ele>-0.12</ele>
  <time>2026-09-01T01:17:57Z</time>
  <course>0.0</course>
  <speed>0.0</speed>
  <fix>3d</fix>
</trkpt>
<trkpt lat="33.810313" lon="-118.393867">
  <ele>-0.112</ele>
  <time>2026-09-01T01:17:57Z</time>
  <course>186.81</course>
  <speed>0.01414213562373095</speed>
  <fix>3d</fix>
</trkpt>
<trkpt lat="33.810313" lon="-118.393867">
  <ele>-0.12</ele>
  <time>2026-09-01T01:17:57Z</time>
  <course>0.0</course>
  <speed>0.0</speed>
  <fix>3d</fix>
</trkpt>
<trkpt lat="33.810313" lon="-118.393867">
  <ele>-0.112</ele>
  <time>2026-09-01T01:17:57Z</time>
  <course>186.8</course>
  <speed>0.01414213562373095</speed>
  <fix>3d</fix>
</trkpt>
<trkpt lat="33.810313" lon="-118.393867">
  <ele>-0.12</ele>
  <time>2026-09-01T01:17:57Z</time>
  <course>0.0</course>
  <speed>0.0</speed>
  <fix>3d</fix>
</trkpt>
<trkpt lat="33.810313" lon="-118.393867">
  <ele>-0.111</ele>
  <time>2026-09-01T01:17:57Z</time>
  <course>186.8</course>
  <speed>0.01414213562373095</speed>
  <fix>3d</fix>
</trkpt>
<trkpt lat="33.810313" lon="-118.393867">
  <ele>-0.12</ele>
  <time>2026-09-01T01:17:57Z</time>
  <course>0.0</course>
  <speed>0.0</speed>
  <fix>3d</fix>
</trkpt>
<trkpt lat="33.810313" lon="-118.393867">
  <ele>-0.112</ele>
  <time>2026-09-01T01:17:57Z</time>
  <course>186.79</course>
  <speed>0.01414213562373095</speed>
  <fix>3d</fix>
</trkpt>
<trkpt lat="33.810313" lon="-118.393867">
  <ele>-0.12</ele>
  <time>2026-09-01T01:17:57Z</time>
  <course>0.0</course>
  <speed>0.0</speed>
  <fix>3d</fix>
</trkpt>
<trkpt lat="33.810313" lon="-118.393867">
  <ele>-0.114</ele>
  <time>2026-09-01T01:17:57Z</time>
  <course>186.79</course>
  <speed>0.01414213562373095</speed>
  <fix>3d</fix>
</trkpt>
<trkpt lat="33.810313" lon="-118.393867">
  <ele>-0.12</ele>
  <time>2026-09-01T01:17:57Z</time>
  <course>0.0</course>
  <speed>0.0</speed>
  <fix>3d</fix>
</trkpt>
<trkpt lat="33.8103131" lon="-118.393867">
  <ele>-0.117</ele>
  <time>2026-09-01T01:17:57Z</time>
  <course>186.78</course>
  <speed>0.01414213562373095</speed>
  <fix>3d</fix>
</trkpt>
<trkpt lat="33.810313" lon="-118.393867">
  <ele>-0.12</ele>
  <time>2026-09-01T01:17:57Z</time>
  <course>0.0</course>
  <speed>0.0</speed>
  <fix>3d</fix>
</trkpt>
<trkpt lat="33.8103131" lon="-118.393867">
  <ele>-0.12</ele>
  <time>2026-09-01T01:17:57Z</time>
  <course>186.78</course>
  <speed>0.01414213562373095</speed>
  <fix>3d</fix>
</trkpt>
<trkpt lat="33.810313" lon="-118.393867">
  <ele>-0.12</ele>
  <time>2026-09-01T01:17:57Z</time>
  <course>0.0</course>
  <speed>0.0</speed>
  <fix>3d</fix>
</trkpt>
<trkpt lat="33.8103131" lon="-118.3938671">
  <ele>-0.123</ele>
  <time>2026-09-01T01:17:57Z</time>
  <course>186.77</course>
  <speed>0.01414213562373095</speed>
  <fix>3d</fix>
</trkpt>
<trkpt lat="33.810313" lon="-118.393867">
  <ele>-0.12</ele>
  <time>2026-09-01T01:17:57Z</time>
  <course>0.0</course>
  <speed>0.0</speed>
  <fix>3d</fix>
</trkpt>
<trkpt lat="33.8103131" lon="-118.3938671">
  <ele>-0.125</ele>
  <time>2026-09-01T01:17:57Z</time>
  <course>186.77</course>
  <speed>0.01414213562373095</speed>
  <fix>3d</fix>
</trkpt>
<trkpt lat="33.810313" lon="-118.393867">
  <ele>-0.12</ele>
  <time>2026-09-01T01:17:57Z</time>
  <course>0.0</course>
  <speed>0.0</speed>
  <fix>3d</fix>
</trkpt>
<trkpt lat="33.8103131" lon="-118.3938671">
  <ele>-0.125</ele>
  <time>2026-09-01T01:17:57Z</time>
  <course>186.76</course>
  <speed>0.01414213562373095</speed>
  <fix>3d</fix>
</trkpt>
<trkpt lat="33.810313" lon="-118.393867">
  <ele>-0.12</ele>
  <time>2026-09-01T01:17:57Z</time>
  <course>0.0</course>
  <speed>0.0</speed>
  <fix>3d</fix>
</trkpt>
<trkpt lat="33.8103131" lon="-118.3938671">
  <ele>-0.124</ele>
  <time>2026-09-01T01:17:57Z</time>
  <course>186.76</course>
  <speed>0.01414213562373095</speed>
  <fix>3d</fix>
</trkpt>
<trkpt lat="33.810313" lon="-118.393867">
  <ele>-0.12</ele>
  <time>2026-09-01T01:17:57Z</time>
  <course>0.0</course>
  <speed>0.0</speed>
  <fix>3d</fix>
</trkpt>
<trkpt lat="33.8103131" lon="-118.3938671">
  <ele>-0.124</ele>
  <time>2026-09-01T01:17:57Z</time>
  <course>186.75</course>
  <speed>0.022360679774997897</speed>
  <fix>3d</fix>
</trkpt>
<trkpt lat="33.810313" lon="-118.393867">
  <ele>-0.12</ele>
  <time>2026-09-01T01:17:57Z</time>
  <course>0.0</course>
  <speed>0.0</speed>
  <fix>3d</fix>
</trkpt>
<trkpt lat="33.8103131" lon="-118.3938671">
  <ele>-0.124</ele>
  <time>2026-09-01T01:17:57Z</time>
  <course>186.75</course>
  <speed>0.022360679774997897</speed>
  <fix>3d</fix>
</trkpt>
<trkpt lat="33.810313" lon="-118.393867">
  <ele>-0.12</ele>
  <time>2026-09-01T01:17:57Z</time>
  <course>0.0</course>
  <speed>0.0</speed>
  <fix>3d</fix>
</trkpt>
<trkpt lat="33.8103131" lon="-118.3938671">
  <ele>-0.125</ele>
  <time>2026-09-01T01:17:57Z</time>
  <course>186.74</course>
  <speed>0.022360679774997897</speed>
  <fix>3d</fix>
</trkpt>
<trkpt lat="33.810313" lon="-118.393867">
  <ele>-0.12</ele>
  <time>2026-09-01T01:17:57Z</time>
  <course>0.0</course>
  <speed>0.0</speed>
  <fix>3d</fix>
</trkpt>
<trkpt lat="33.8103131" lon="-118.3938671">
  <ele>-0.124</ele>
  <time>2026-09-01T01:17:57Z</time>
  <course>186.74</course>
  <speed>0.022360679774997897</speed>
  <fix>3d</fix>
</trkpt>
<trkpt lat="33.810313" lon="-118.393867">
  <ele>-0.12</ele>
  <time>2026-09-01T01:17:57Z</time>
  <course>0.0</course>
  <speed>0.0</speed>
  <fix>3d</fix>
</trkpt>
<trkpt lat="33.8103131" lon="-118.3938671">
  <ele>-0.124</ele>
  <time>2026-09-01T01:17:57Z</time>
  <course>186.74</course>
  <speed>0.022360679774997897</speed>
  <fix>3d</fix>
</trkpt>
<trkpt lat="33.810313" lon="-118.393867">
  <ele>-0.12</ele>
  <time>2026-09-01T01:17:57Z</time>
  <course>0.0</course>
  <speed>0.0</speed>
  <fix>3d</fix>
</trkpt>
<trkpt lat="33.8103131" lon="-118.3938671">
  <ele>-0.124</ele>
  <time>2026-09-01T01:17:57Z</time>
  <course>186.73</course>
  <speed>0.022360679774997897</speed>
  <fix>3d</fix>
</trkpt>
<trkpt lat="33.810313" lon="-118.393867">
  <ele>-0.12</ele>
  <time>2026-09-01T01:17:57Z</time>
  <course>0.0</course>
  <speed>0.0</speed>
  <fix>3d</fix>
</trkpt>
<trkpt lat="33.8103131" lon="-118.3938671">
  <ele>-0.125</ele>
  <time>2026-09-01T01:17:57Z</time>
  <course>186.73</course>
  <speed>0.022360679774997897</speed>
  <fix>3d</fix>
</trkpt>
<trkpt lat="33.810313" lon="-118.393867">
  <ele>-0.12</ele>
  <time>2026-09-01T01:17:57Z</time>
  <course>0.0</course>
  <speed>0.0</speed>
  <fix>3d</fix>
</trkpt>
<trkpt lat="33.8103131" lon="-118.3938671">
  <ele>-0.127</ele>
  <time>2026-09-01T01:17:57Z</time>
  <course>186.72</course>
  <speed>0.022360679774997897</speed>
  <fix>3d</fix>
</trkpt>
<trkpt lat="33.810313" lon="-118.393867">
  <ele>-0.12</ele>
  <time>2026-09-01T01:17:57Z</time>
  <course>0.0</course>
  <speed>0.0</speed>
  <fix>3d</fix>
</trkpt>
<trkpt lat="33.8103131" lon="-118.3938671">
  <ele>-0.128</ele>
  <time>2026-09-01T01:17:57Z</time>
  <course>186.72</course>
  <speed>0.022360679774997897</speed>
  <fix>3d</fix>
</trkpt>
<trkpt lat="33.810313" lon="-118.393867">
  <ele>-0.12</ele>
  <time>2026-09-01T01:17:57Z</time>
  <course>0.0</course>
  <speed>0.0</speed>
  <fix>3d</fix>
</trkpt>
<trkpt lat="33.8103131" lon="-118.3938671">
  <ele>-0.128</ele>
  <time>2026-09-01T01:17:57Z</time>
  <course>186.71</course>
  <speed>0.022360679774997897</speed>
  <fix>3d</fix>
</trkpt>
<trkpt lat="33.810313" lon="-118.393867">
  <ele>-0.12</ele>
  <time>2026-09-01T01:17:57Z</time>
  <course>0.0</course>
  <speed>0.0</speed>
  <fix>3d</fix>
</trkpt>
<trkpt lat="33.8103131" lon="-118.3938671">
  <ele>-0.127</ele>
  <time>2026-09-01T01:17:57Z</time>
  <course>186.71</course>
  <speed>0.022360679774997897</speed>
  <fix>3d</fix>
</trkpt>
<trkpt lat="33.810313" lon="-118.393867">
  <ele>-0.12</ele>
  <time>2026-09-01T01:17:57Z</time>
  <course>0.0</course>
  <speed>0.0</speed>
  <fix>3d</fix>
</trkpt>
<trkpt lat="33.8103131" lon="-118.3938671">
  <ele>-0.125</ele>
  <time>2026-09-01T01:17:57Z</time>
  <course>186.7</course>
  <speed>0.022360679774997897</speed>
  <fix>3d</fix>
</trkpt>
<trkpt lat="33.810313" lon="-118.393867">
  <ele>-0.12</ele>
  <time>2026-09-01T01:17:57Z</time>
  <course>0.0</course>
  <speed>0.0</speed>
  <fix>3d</fix>
</trkpt>
<trkpt lat="33.8103131" lon="-118.3938671">
  <ele>-0.124</ele>
  <time>2026-09-01T01:17:57Z</time>
  <course>186.7</course>
  <speed>0.022360679774997897</speed>
  <fix>3d</fix>
</trkpt>
<trkpt lat="33.810313" lon="-118.393867">
  <ele>-0.12</ele>
  <time>2026-09-01T01:17:57Z</time>
  <course>0.0</course>
  <speed>0.0</speed>
  <fix>3d</fix>
</trkpt>
<trkpt lat="33.8103131" lon="-118.3938671">
  <ele>-0.123</ele>
  <time>2026-09-01T01:17:57Z</time>
  <course>186.69</course>
  <speed>0.022360679774997897</speed>
  <fix>3d</fix>
</trkpt>
<trkpt lat="33.810313" lon="-118.393867">
  <ele>-0.12</ele>
  <time>2026-09-01T01:17:57Z</time>
  <course>0.0</course>
  <speed>0.0</speed>
  <fix>3d</fix>
</trkpt>
<trkpt lat="33.8103131" lon="-118.3938671">
  <ele>-0.122</ele>
  <time>2026-09-01T01:17:57Z</time>
  <course>186.69</course>
  <speed>0.022360679774997897</speed>
  <fix>3d</fix>
</trkpt>
<trkpt lat="33.810313" lon="-118.393867">
  <ele>-0.12</ele>
  <time>2026-09-01T01:17:57Z</time>
  <course>0.0</course>
  <speed>0.0</speed>
  <fix>3d</fix>
</trkpt>
<trkpt lat="33.8103131" lon="-118.3938671">
  <ele>-0.121</ele>
  <time>2026-09-01T01:17:57Z</time>
  <course>186.69</course>
  <speed>0.0282842712474619</speed>
  <fix>3d</fix>
</trkpt>
<trkpt lat="33.810313" lon="-118.393867">
  <ele>-0.12</ele>
  <time>2026-09-01T01:17:57Z</time>
  <course>0.0</course>
  <speed>0.0</speed>
  <fix>3d</fix>
</trkpt>
<trkpt lat="33.8103131" lon="-118.3938671">
  <ele>-0.12</ele>
  <time>2026-09-01T01:17:57Z</time>
  <course>186.68</course>
  <speed>0.0282842712474619</speed>
  <fix>3d</fix>
</trkpt>
<trkpt lat="33.810313" lon="-118.393867">
  <ele>-0.12</ele>
  <time>2026-09-01T01:17:57Z</time>
  <course>0.0</course>
  <speed>0.0</speed>
  <fix>3d</fix>
</trkpt>
<trkpt lat="33.8103131" lon="-118.3938671">
  <ele>-0.119</ele>
  <time>2026-09-01T01:17:57Z</time>
  <course>186.68</course>
  <speed>0.0282842712474619</speed>
  <fix>3d</fix>
</trkpt>
<trkpt lat="33.810313" lon="-118.393867">
  <ele>-0.12</ele>
  <time>2026-09-01T01:17:57Z</time>
  <course>0.0</course>
  <speed>0.0</speed>
  <fix>3d</fix>
</trkpt>
<trkpt lat="33.8103131" lon="-118.3938671">
  <ele>-0.118</ele>
  <time>2026-09-01T01:17:57Z</time>
  <course>186.67</course>
  <speed>0.0282842712474619</speed>
  <fix>3d</fix>
</trkpt>
<trkpt lat="33.810313" lon="-118.393867">
  <ele>-0.12</ele>
  <time>2026-09-01T01:17:57Z</time>
  <course>0.0</course>
  <speed>0.0</speed>
  <fix>3d</fix>
</trkpt>
<trkpt lat="33.8103131" lon="-118.3938671">
  <ele>-0.116</ele>
  <time>2026-09-01T01:17:57Z</time>
  <course>186.67</course>
  <speed>0.0282842712474619</speed>
  <fix>3d</fix>
</trkpt>
<trkpt lat="33.810313" lon="-118.393867">
  <ele>-0.12</ele>
  <time>2026-09-01T01:17:57Z</time>
  <course>0.0</course>
  <speed>0.0</speed>
  <fix>3d</fix>
</trkpt>
<trkpt lat="33.8103132" lon="-118.3938671">
  <ele>-0.114</ele>
  <time>2026-09-01T01:17:57Z</time>
  <course>186.66</course>
  <speed>0.0282842712474619</speed>
  <fix>3d</fix>
</trkpt>
<trkpt lat="33.810313" lon="-118.393867">
  <ele>-0.12</ele>
  <time>2026-09-01T01:17:57Z</time>
  <course>0.0</course>
  <speed>0.0</speed>
  <fix>3d</fix>
</trkpt>
<trkpt lat="33.8103132" lon="-118.3938671">
  <ele>-0.112</ele>
  <time>2026-09-01T01:17:57Z</time>
  <course>186.66</course>
  <speed>0.0282842712474619</speed>
  <fix>3d</fix>
</trkpt>
<trkpt lat="33.810313" lon="-118.393867">
  <ele>-0.12</ele>
  <time>2026-09-01T01:17:57Z</time>
  <course>0.0</course>
  <speed>0.0</speed>
  <fix>3d</fix>
</trkpt>
<trkpt lat="33.8103132" lon="-118.3938671">
  <ele>-0.111</ele>
  <time>2026-09-01T01:17:57Z</time>
  <course>186.65</course>
  <speed>0.0282842712474619</speed>
  <fix>3d</fix>
</trkpt>
<trkpt lat="33.810313" lon="-118.393867">
  <ele>-0.12</ele>
  <time>2026-09-01T01:17:57Z</time>
  <course>0.0</course>
  <speed>0.0</speed>
  <fix>3d</fix>
</trkpt>
<trkpt lat="33.8103132" lon="-118.3938671">
  <ele>-0.11</ele>
  <time>2026-09-01T01:17:57Z</time>
  <course>186.65</course>
  <speed>0.0282842712474619</speed>
  <fix>3d</fix>
</trkpt>
<trkpt lat="33.810313" lon="-118.393867">
  <ele>-0.12</ele>
  <time>2026-09-01T01:17:57Z</time>
  <course>0.0</course>
  <speed>0.0</speed>
  <fix>3d</fix>
</trkpt>
<trkpt lat="33.8103132" lon="-118.3938672">
  <ele>-0.11</ele>
  <time>2026-09-01T01:17:57Z</time>
  <course>186.65</course>
  <speed>0.0282842712474619</speed>
  <fix>3d</fix>
</trkpt>
<trkpt lat="33.810313" lon="-118.393867">
  <ele>-0.12</ele>
  <time>2026-09-01T01:17:57Z</time>
  <course>0.0</course>
  <speed>0.0</speed>
  <fix>3d</fix>
</trkpt>
<trkpt lat="33.8103132" lon="-118.3938672">
  <ele>-0.112</ele>
  <time>2026-09-01T01:17:57Z</time>
  <course>186.64</course>
  <speed>0.0282842712474619</speed>
  <fix>3d</fix>
</trkpt>
<trkpt lat="33.810313" lon="-118.393867">
  <ele>-0.12</ele>
  <time>2026-09-01T01:17:57Z</time>
  <course>0.0</course>
  <speed>0.0</speed>
  <fix>3d</fix>
</trkpt>
<trkpt lat="33.8103132" lon="-118.3938672">
  <ele>-0.115</ele>
  <time>2026-09-01T01:17:57Z</time>
  <course>186.64</course>
  <speed>0.0282842712474619</speed>
  <fix>3d</fix>
</trkpt>
<trkpt lat="33.810313" lon="-118.393867">
  <ele>-0.12</ele>
  <time>2026-09-01T01:17:57Z</time>
  <course>0.0</course>
  <speed>0.0</speed>
  <fix>3d</fix>
</trkpt>
<trkpt lat="33.8103132" lon="-118.3938672">
  <ele>-0.118</ele>
  <time>2026-09-01T01:17:57Z</time>
  <course>186.63</course>
  <speed>0.0282842712474619</speed>
  <fix>3d</fix>
</trkpt>
<trkpt lat="33.810313" lon="-118.393867">
  <ele>-0.12</ele>
  <time>2026-09-01T01:17:57Z</time>
  <course>0.0</course>
  <speed>0.0</speed>
  <fix>3d</fix>
</trkpt>
<trkpt lat="33.8103132" lon="-118.3938672">
  <ele>-0.119</ele>
  <time>2026-09-01T01:17:57Z</time>
  <course>186.63</course>
  <speed>0.0282842712474619</speed>
  <fix>3d</fix>
</trkpt>
<trkpt lat="33.810313" lon="-118.393867">
  <ele>-0.12</ele>
  <time>2026-09-01T01:17:57Z</time>
  <course>0.0</course>
  <speed>0.0</speed>
  <fix>3d</fix>
</trkpt>
<trkpt lat="33.8103132" lon="-118.3938672">
  <ele>-0.12</ele>
  <time>2026-09-01T01:17:57Z</time>
  <course>186.62</course>
  <speed>0.0282842712474619</speed>
  <fix>3d</fix>
</trkpt>
<trkpt lat="33.810313" lon="-118.393867">
  <ele>-0.12</ele>
  <time>2026-09-01T01:17:57Z</time>
  <course>0.0</course>
  <speed>0.0</speed>
  <fix>3d</fix>
</trkpt>
<trkpt lat="33.8103132" lon="-118.3938672">
  <ele>-0.121</ele>
  <time>2026-09-01T01:17:57Z</time>
  <course>186.62</course>
  <speed>0.0282842712474619</speed>
  <fix>3d</fix>
</trkpt>
<trkpt lat="33.810313" lon="-118.393867">
  <ele>-0.12</ele>
  <time>2026-09-01T01:17:57Z</time>
  <course>0.0</course>
  <speed>0.0</speed>
  <fix>3d</fix>
</trkpt>
<trkpt lat="33.8103132" lon="-118.3938672">
  <ele>-0.12</ele>
  <time>2026-09-01T01:17:57Z</time>
  <course>186.62</course>
  <speed>0.0282842712474619</speed>
  <fix>3d</fix>
</trkpt>
<trkpt lat="33.810313" lon="-118.393867">
  <ele>-0.12</ele>
  <time>2026-09-01T01:17:57Z</time>
  <course>0.0</course>
  <speed>0.0</speed>
  <fix>3d</fix>
</trkpt>
<trkpt lat="33.8103132" lon="-118.3938672">
  <ele>-0.119</ele>
  <time>2026-09-01T01:17:57Z</time>
  <course>186.61</course>
  <speed>0.0282842712474619</speed>
  <fix>3d</fix>
</trkpt>
<trkpt lat="33.810313" lon="-118.393867">
  <ele>-0.12</ele>
  <time>2026-09-01T01:17:57Z</time>
  <course>0.0</course>
  <speed>0.0</speed>
  <fix>3d</fix>
</trkpt>
<trkpt lat="33.8103132" lon="-118.3938672">
  <ele>-0.118</ele>
  <time>2026-09-01T01:17:57Z</time>
  <course>186.61</course>
  <speed>0.0282842712474619</speed>
  <fix>3d</fix>
</trkpt>
<trkpt lat="33.810313" lon="-118.393867">
  <ele>-0.12</ele>
  <time>2026-09-01T01:17:57Z</time>
  <course>0.0</course>
  <speed>0.0</speed>
  <fix>3d</fix>
</trkpt>
<trkpt lat="33.8103132" lon="-118.3938672">
  <ele>-0.119</ele>
  <time>2026-09-01T01:17:57Z</time>
  <course>186.6</course>
  <speed>0.0282842712474619</speed>
  <fix>3d</fix>
</trkpt>
<trkpt lat="33.810313" lon="-118.393867">
  <ele>-0.12</ele>
  <time>2026-09-01T01:17:57Z</time>
  <course>0.0</course>
  <speed>0.0</speed>
  <fix>3d</fix>
</trkpt>
<trkpt lat="33.8103132" lon="-118.3938672">
  <ele>-0.12</ele>
  <time>2026-09-01T01:17:57Z</time>
  <course>186.6</course>
  <speed>0.0282842712474619</speed>
  <fix>3d</fix>
</trkpt>
<trkpt lat="33.810313" lon="-118.393867">
  <ele>-0.12</ele>
  <time>2026-09-01T01:17:57Z</time>
  <course>0.0</course>
  <speed>0.0</speed>
  <fix>3d</fix>
</trkpt>
<trkpt lat="33.8103132" lon="-118.3938672">
  <ele>-0.121</ele>
  <time>2026-09-01T01:17:57Z</time>
  <course>186.6</course>
  <speed>0.0282842712474619</speed>
  <fix>3d</fix>
</trkpt>
<trkpt lat="33.810313" lon="-118.393867">
  <ele>-0.12</ele>
  <time>2026-09-01T01:17:57Z</time>
  <course>0.0</course>
  <speed>0.0</speed>
  <fix>3d</fix>
</trkpt>
<trkpt lat="33.8103132" lon="-118.3938672">
  <ele>-0.122</ele>
  <time>2026-09-01T01:17:57Z</time>
  <course>186.59</course>
  <speed>0.0282842712474619</speed>
  <fix>3d</fix>
</trkpt>
<trkpt lat="33.810313" lon="-118.393867">
  <ele>-0.12</ele>
  <time>2026-09-01T01:17:57Z</time>
  <course>0.0</course>
  <speed>0.0</speed>
  <fix>3d</fix>
</trkpt>
<trkpt lat="33.8103132" lon="-118.3938672">
  <ele>-0.122</ele>
  <time>2026-09-01T01:17:57Z</time>
  <course>186.59</course>
  <speed>0.0282842712474619</speed>
  <fix>3d</fix>
</trkpt>
<trkpt lat="33.810313" lon="-118.393867">
  <ele>-0.12</ele>
  <time>2026-09-01T01:17:57Z</time>
  <course>0.0</course>
  <speed>0.0</speed>
  <fix>3d</fix>
</trkpt>
<trkpt lat="33.8103132" lon="-118.3938672">
  <ele>-0.122</ele>
  <time>2026-09-01T01:17:57Z</time>
  <course>186.59</course>
  <speed>0.0282842712474619</speed>
  <fix>3d</fix>
</trkpt>
<trkpt lat="33.810313" lon="-118.393867">
  <ele>-0.12</ele>
  <time>2026-09-01T01:17:57Z</time>
  <course>0.0</course>
  <speed>0.0</speed>
  <fix>3d</fix>
</trkpt>
<trkpt lat="33.8103132" lon="-118.3938672">
  <ele>-0.121</ele>
  <time>2026-09-01T01:17:57Z</time>
  <course>186.58</course>
  <speed>0.0282842712474619</speed>
  <fix>3d</fix>
</trkpt>
<trkpt lat="33.810313" lon="-118.393867">
  <ele>-0.12</ele>
  <time>2026-09-01T01:17:57Z</time>
  <course>0.0</course>
  <speed>0.0</speed>
  <fix>3d</fix>
</trkpt>
<trkpt lat="33.8103132" lon="-118.3938672">
  <ele>-0.121</ele>
  <time>2026-09-01T01:17:57Z</time>
  <course>186.58</course>
  <speed>0.0282842712474619</speed>
  <fix>3d</fix>
</trkpt>
<trkpt lat="33.810313" lon="-118.393867">
  <ele>-0.12</ele>
  <time>2026-09-01T01:17:57Z</time>
  <course>0.0</course>
  <speed>0.0</speed>
  <fix>3d</fix>
</trkpt>
<trkpt lat="33.8103132" lon="-118.3938672">
  <ele>-0.121</ele>
  <time>2026-09-01T01:17:57Z</time>
  <course>186.57</course>
  <speed>0.0282842712474619</speed>
  <fix>3d</fix>
</trkpt>
<trkpt lat="33.810313" lon="-118.393867">
  <ele>-0.12</ele>
  <time>2026-09-01T01:17:57Z</time>
  <course>0.0</course>
  <speed>0.0</speed>
  <fix>3d</fix>
</trkpt>
<trkpt lat="33.8103132" lon="-118.3938672">
  <ele>-0.121</ele>
  <time>2026-09-01T01:17:57Z</time>
  <course>186.57</course>
  <speed>0.0282842712474619</speed>
  <fix>3d</fix>
</trkpt>
<trkpt lat="33.810313" lon="-118.393867">
  <ele>-0.12</ele>
  <time>2026-09-01T01:17:57Z</time>
  <course>0.0</course>
  <speed>0.0</speed>
  <fix>3d</fix>
</trkpt>
<trkpt lat="33.8103132" lon="-118.3938672">
  <ele>-0.121</ele>
  <time>2026-09-01T01:17:57Z</time>
  <course>186.57</course>
  <speed>0.0282842712474619</speed>
  <fix>3d</fix>
</trkpt>
<trkpt lat="33.810313" lon="-118.393867">
  <ele>-0.12</ele>
  <time>2026-09-01T01:17:57Z</time>
  <course>0.0</course>
  <speed>0.0</speed>
  <fix>3d</fix>
</trkpt>
<trkpt lat="33.8103132" lon="-118.3938672">
  <ele>-0.122</ele>
  <time>2026-09-01T01:17:57Z</time>
  <course>186.56</course>
  <speed>0.0282842712474619</speed>
  <fix>3d</fix>
</trkpt>
<trkpt lat="33.810313" lon="-118.393867">
  <ele>-0.12</ele>
  <time>2026-09-01T01:17:57Z</time>
  <course>0.0</course>
  <speed>0.0</speed>
  <fix>3d</fix>
</trkpt>
<trkpt lat="33.8103132" lon="-118.3938672">
  <ele>-0.124</ele>
  <time>2026-09-01T01:17:57Z</time>
  <course>186.56</course>
  <speed>0.0282842712474619</speed>
  <fix>3d</fix>
</trkpt>
<trkpt lat="33.810313" lon="-118.393867">
  <ele>-0.12</ele>
  <time>2026-09-01T01:17:57Z</time>
  <course>0.0</course>
  <speed>0.0</speed>
  <fix>3d</fix>
</trkpt>
<trkpt lat="33.8103132" lon="-118.3938672">
  <ele>-0.125</ele>
  <time>2026-09-01T01:17:57Z</time>
  <course>186.56</course>
  <speed>0.0282842712474619</speed>
  <fix>3d</fix>
</trkpt>
<trkpt lat="33.810313" lon="-118.393867">
  <ele>-0.12</ele>
  <time>2026-09-01T01:17:57Z</time>
  <course>0.0</course>
  <speed>0.0</speed>
  <fix>3d</fix>
</trkpt>
<trkpt lat="33.8103132" lon="-118.3938672">
  <ele>-0.126</ele>
  <time>2026-09-01T01:17:57Z</time>
  <course>186.55</course>
  <speed>0.0282842712474619</speed>
  <fix>3d</fix>
</trkpt>
<trkpt lat="33.810313" lon="-118.393867">
  <ele>-0.12</ele>
  <time>2026-09-01T01:17:57Z</time>
  <course>0.0</course>
  <speed>0.0</speed>
  <fix>3d</fix>
</trkpt>
<trkpt lat="33.8103132" lon="-118.3938672">
  <ele>-0.126</ele>
  <time>2026-09-01T01:17:57Z</time>
  <course>186.55</course>
  <speed>0.0282842712474619</speed>
  <fix>3d</fix>
</trkpt>
<trkpt lat="33.810313" lon="-118.393867">
  <ele>-0.12</ele>
  <time>2026-09-01T01:17:57Z</time>
  <course>0.0</course>
  <speed>0.0</speed>
  <fix>3d</fix>
</trkpt>
<trkpt lat="33.8103132" lon="-118.3938672">
  <ele>-0.126</ele>
  <time>2026-09-01T01:17:57Z</time>
  <course>186.55</course>
  <speed>0.0282842712474619</speed>
  <fix>3d</fix>
</trkpt>
<trkpt lat="33.810313" lon="-118.393867">
  <ele>-0.12</ele>
  <time>2026-09-01T01:17:57Z</time>
  <course>0.0</course>
  <speed>0.0</speed>
  <fix>3d</fix>
</trkpt>
<trkpt lat="33.8103132" lon="-118.3938672">
  <ele>-0.125</ele>
  <time>2026-09-01T01:17:57Z</time>
  <course>186.54</course>
  <speed>0.0282842712474619</speed>
  <fix>3d</fix>
</trkpt>
<trkpt lat="33.810313" lon="-118.393867">
  <ele>-0.12</ele>
  <time>2026-09-01T01:17:57Z</time>
  <course>0.0</course>
  <speed>0.0</speed>
  <fix>3d</fix>
</trkpt>
<trkpt lat="33.8103132" lon="-118.3938672">
  <ele>-0.125</ele>
  <time>2026-09-01T01:17:57Z</time>
  <course>186.54</course>
  <speed>0.0282842712474619</speed>
  <fix>3d</fix>
</trkpt>
<trkpt lat="33.810313" lon="-118.393867">
  <ele>-0.12</ele>
  <time>2026-09-01T01:17:57Z</time>
  <course>0.0</course>
  <speed>0.0</speed>
  <fix>3d</fix>
</trkpt>
<trkpt lat="33.8103132" lon="-118.3938672">
  <ele>-0.125</ele>
  <time>2026-09-01T01:17:57Z</time>
  <course>186.54</course>
  <speed>0.0282842712474619</speed>
  <fix>3d</fix>
</trkpt>
<trkpt lat="33.810313" lon="-118.393867">
  <ele>-0.12</ele>
  <time>2026-09-01T01:17:57Z</time>
  <course>0.0</course>
  <speed>0.0</speed>
  <fix>3d</fix>
</trkpt>
<trkpt lat="33.8103132" lon="-118.3938672">
  <ele>-0.125</ele>
  <time>2026-09-01T01:17:57Z</time>
  <course>186.53</course>
  <speed>0.0282842712474619</speed>
  <fix>3d</fix>
</trkpt>
<trkpt lat="33.810313" lon="-118.393867">
  <ele>-0.12</ele>
  <time>2026-09-01T01:17:57Z</time>
  <course>0.0</course>
  <speed>0.0</speed>
  <fix>3d</fix>
</trkpt>
<trkpt lat="33.8103132" lon="-118.3938672">
  <ele>-0.126</ele>
  <time>2026-09-01T01:17:57Z</time>
  <course>186.53</course>
  <speed>0.0282842712474619</speed>
  <fix>3d</fix>
</trkpt>
<trkpt lat="33.810313" lon="-118.393867">
  <ele>-0.12</ele>
  <time>2026-09-01T01:17:57Z</time>
  <course>0.0</course>
  <speed>0.0</speed>
  <fix>3d</fix>
</trkpt>
<trkpt lat="33.8103132" lon="-118.3938672">
  <ele>-0.127</ele>
  <time>2026-09-01T01:17:57Z</time>
  <course>186.53</course>
  <speed>0.0282842712474619</speed>
  <fix>3d</fix>
</trkpt>
<trkpt lat="33.810313" lon="-118.393867">
  <ele>-0.12</ele>
  <time>2026-09-01T01:17:57Z</time>
  <course>0.0</course>
  <speed>0.0</speed>
  <fix>3d</fix>
</trkpt>
<trkpt lat="33.8103132" lon="-118.3938672">
  <ele>-0.128</ele>
  <time>2026-09-01T01:17:57Z</time>
  <course>186.52</course>
  <speed>0.0282842712474619</speed>
  <fix>3d</fix>
</trkpt>
<trkpt lat="33.810313" lon="-118.393867">
  <ele>-0.12</ele>
  <time>2026-09-01T01:17:57Z</time>
  <course>0.0</course>
  <speed>0.0</speed>
  <fix>3d</fix>
</trkpt>
<trkpt lat="33.8103132" lon="-118.3938672">
  <ele>-0.128</ele>
  <time>2026-09-01T01:17:57Z</time>
  <course>186.52</course>
  <speed>0.0282842712474619</speed>
  <fix>3d</fix>
</trkpt>
<trkpt lat="33.810313" lon="-118.393867">
  <ele>-0.12</ele>
  <time>2026-09-01T01:17:57Z</time>
  <course>0.0</course>
  <speed>0.0</speed>
  <fix>3d</fix>
</trkpt>
<trkpt lat="33.8103132" lon="-118.3938672">
  <ele>-0.127</ele>
  <time>2026-09-01T01:17:57Z</time>
  <course>186.52</course>
  <speed>0.0282842712474619</speed>
  <fix>3d</fix>
</trkpt>
<trkpt lat="33.810313" lon="-118.393867">
  <ele>-0.12</ele>
  <time>2026-09-01T01:17:57Z</time>
  <course>0.0</course>
  <speed>0.0</speed>
  <fix>3d</fix>
</trkpt>
<trkpt lat="33.8103132" lon="-118.3938672">
  <ele>-0.126</ele>
  <time>2026-09-01T01:17:57Z</time>
  <course>186.51</course>
  <speed>0.0282842712474619</speed>
  <fix>3d</fix>
</trkpt>
<trkpt lat="33.810313" lon="-118.393867">
  <ele>-0.12</ele>
  <time>2026-09-01T01:17:57Z</time>
  <course>0.0</course>
  <speed>0.0</speed>
  <fix>3d</fix>
</trkpt>
<trkpt lat="33.8103132" lon="-118.3938672">
  <ele>-0.125</ele>
  <time>2026-09-01T01:17:57Z</time>
  <course>186.51</course>
  <speed>0.0282842712474619</speed>
  <fix>3d</fix>
</trkpt>
<trkpt lat="33.810313" lon="-118.393867">
  <ele>-0.12</ele>
  <time>2026-09-01T01:17:57Z</time>
  <course>0.0</course>
  <speed>0.0</speed>
  <fix>3d</fix>
</trkpt>
<trkpt lat="33.8103132" lon="-118.3938672">
  <ele>-0.124</ele>
  <time>2026-09-01T01:17:57Z</time>
  <course>186.51</course>
  <speed>0.0282842712474619</speed>
  <fix>3d</fix>
</trkpt>
<trkpt lat="33.810313" lon="-118.393867">
  <ele>-0.12</ele>
  <time>2026-09-01T01:17:57Z</time>
  <course>0.0</course>
  <speed>0.0</speed>
  <fix>3d</fix>
</trkpt>
<trkpt lat="33.8103132" lon="-118.3938672">
  <ele>-0.122</ele>
  <time>2026-09-01T01:17:57Z</time>
  <course>186.51</course>
  <speed>0.0282842712474619</speed>
  <fix>3d</fix>
</trkpt>
<trkpt lat="33.810313" lon="-118.393867">
  <ele>-0.12</ele>
  <time>2026-09-01T01:17:57Z</time>
  <course>0.0</course>
  <speed>0.0</speed>
  <fix>3d</fix>
</trkpt>
<trkpt lat="33.8103132" lon="-118.3938672">
  <ele>-0.121</ele>
  <time>2026-09-01T01:17:57Z</time>
  <course>186.5</course>
  <speed>0.0282842712474619</speed>
  <fix>3d</fix>
</trkpt>
<trkpt lat="33.810313" lon="-118.393867">
  <ele>-0.12</ele>
  <time>2026-09-01T01:17:57Z</time>
  <course>0.0</course>
  <speed>0.0</speed>
  <fix>3d</fix>
</trkpt>
<trkpt lat="33.8103132" lon="-118.3938672">
  <ele>-0.12</ele>
  <time>2026-09-01T01:17:58Z</time>
  <course>186.5</course>
  <speed>0.0282842712474619</speed>
  <fix>3d</fix>
</trkpt>
<trkpt lat="33.810313" lon="-118.393867">
  <ele>-0.12</ele>
  <time>2026-09-01T01:17:58Z</time>
  <course>0.0</course>
  <speed>0.0</speed>
  <fix>3d</fix>
</trkpt>
<trkpt lat="33.8103132" lon="-118.3938672">
  <ele>-0.119</ele>
  <time>2026-09-01T01:17:58Z</time>
  <course>186.5</course>
  <speed>0.0282842712474619</speed>
  <fix>3d</fix>
</trkpt>
<trkpt lat="33.810313" lon="-118.393867">
  <ele>-0.12</ele>
  <time>2026-09-01T01:17:58Z</time>
  <course>0.0</course>
  <speed>0.0</speed>
  <fix>3d</fix>
</trkpt>
<trkpt lat="33.8103132" lon="-118.3938672">
  <ele>-0.119</ele>
  <time>2026-09-01T01:17:58Z</time>
  <course>186.49</course>
  <speed>0.0282842712474619</speed>
  <fix>3d</fix>
</trkpt>
<trkpt lat="33.810313" lon="-118.393867">
  <ele>-0.12</ele>
  <time>2026-09-01T01:17:58Z</time>
  <course>0.0</course>
  <speed>0.0</speed>
  <fix>3d</fix>
</trkpt>
<trkpt lat="33.8103132" lon="-118.3938672">
  <ele>-0.119</ele>
  <time>2026-09-01T01:17:58Z</time>
  <course>186.49</course>
  <speed>0.0282842712474619</speed>
  <fix>3d</fix>
</trkpt>
<trkpt lat="33.810313" lon="-118.393867">
  <ele>-0.12</ele>
  <time>2026-09-01T01:17:58Z</time>
  <course>0.0</course>
  <speed>0.0</speed>
  <fix>3d</fix>
</trkpt>
<trkpt lat="33.8103132" lon="-118.3938672">
  <ele>-0.12</ele>
  <time>2026-09-01T01:17:58Z</time>
  <course>186.49</course>
  <speed>0.0282842712474619</speed>
  <fix>3d</fix>
</trkpt>
<trkpt lat="33.810313" lon="-118.393867">
  <ele>-0.12</ele>
  <time>2026-09-01T01:17:58Z</time>
  <course>0.0</course>
  <speed>0.0</speed>
  <fix>3d</fix>
</trkpt>
<trkpt lat="33.8103132" lon="-118.3938672">
  <ele>-0.121</ele>
  <time>2026-09-01T01:17:58Z</time>
  <course>186.49</course>
  <speed>0.0282842712474619</speed>
  <fix>3d</fix>
</trkpt>
<trkpt lat="33.810313" lon="-118.393867">
  <ele>-0.12</ele>
  <time>2026-09-01T01:17:58Z</time>
  <course>0.0</course>
  <speed>0.0</speed>
  <fix>3d</fix>
</trkpt>
<trkpt lat="33.8103132" lon="-118.3938672">
  <ele>-0.121</ele>
  <time>2026-09-01T01:17:58Z</time>
  <course>186.48</course>
  <speed>0.0282842712474619</speed>
  <fix>3d</fix>
</trkpt>
<trkpt lat="33.810313" lon="-118.393867">
  <ele>-0.12</ele>
  <time>2026-09-01T01:17:58Z</time>
  <course>0.0</course>
  <speed>0.0</speed>
  <fix>3d</fix>
</trkpt>
<trkpt lat="33.8103132" lon="-118.3938672">
  <ele>-0.121</ele>
  <time>2026-09-01T01:17:58Z</time>
  <course>186.48</course>
  <speed>0.0282842712474619</speed>
  <fix>3d</fix>
</trkpt>
<trkpt lat="33.810313" lon="-118.393867">
  <ele>-0.12</ele>
  <time>2026-09-01T01:17:58Z</time>
  <course>0.0</course>
  <speed>0.0</speed>
  <fix>3d</fix>
</trkpt>
<trkpt lat="33.8103132" lon="-118.3938672">
  <ele>-0.122</ele>
  <time>2026-09-01T01:17:58Z</time>
  <course>186.48</course>
  <speed>0.0282842712474619</speed>
  <fix>3d</fix>
</trkpt>
<trkpt lat="33.810313" lon="-118.393867">
  <ele>-0.12</ele>
  <time>2026-09-01T01:17:58Z</time>
  <course>0.0</course>
  <speed>0.0</speed>
  <fix>3d</fix>
</trkpt>
<trkpt lat="33.8103132" lon="-118.3938672">
  <ele>-0.122</ele>
  <time>2026-09-01T01:17:58Z</time>
  <course>186.47</course>
  <speed>0.0282842712474619</speed>
  <fix>3d</fix>
</trkpt>
<trkpt lat="33.810313" lon="-118.393867">
  <ele>-0.12</ele>
  <time>2026-09-01T01:17:58Z</time>
  <course>0.0</course>
  <speed>0.0</speed>
  <fix>3d</fix>
</trkpt>
<trkpt lat="33.8103132" lon="-118.3938672">
  <ele>-0.123</ele>
  <time>2026-09-01T01:17:58Z</time>
  <course>186.47</course>
  <speed>0.0282842712474619</speed>
  <fix>3d</fix>
</trkpt>
<trkpt lat="33.810313" lon="-118.393867">
  <ele>-0.12</ele>
  <time>2026-09-01T01:17:58Z</time>
  <course>0.0</course>
  <speed>0.0</speed>
  <fix>3d</fix>
</trkpt>
<trkpt lat="33.8103132" lon="-118.3938672">
  <ele>-0.124</ele>
  <time>2026-09-01T01:17:58Z</time>
  <course>186.47</course>
  <speed>0.0282842712474619</speed>
  <fix>3d</fix>
</trkpt>
<trkpt lat="33.810313" lon="-118.393867">
  <ele>-0.12</ele>
  <time>2026-09-01T01:17:58Z</time>
  <course>0.0</course>
  <speed>0.0</speed>
  <fix>3d</fix>
</trkpt>
<trkpt lat="33.8103132" lon="-118.3938672">
  <ele>-0.124</ele>
  <time>2026-09-01T01:17:58Z</time>
  <course>186.47</course>
  <speed>0.0282842712474619</speed>
  <fix>3d</fix>
</trkpt>
<trkpt lat="33.810313" lon="-118.393867">
  <ele>-0.12</ele>
  <time>2026-09-01T01:17:58Z</time>
  <course>0.0</course>
  <speed>0.0</speed>
  <fix>3d</fix>
</trkpt>
<trkpt lat="33.8103132" lon="-118.3938672">
  <ele>-0.123</ele>
  <time>2026-09-01T01:17:58Z</time>
  <course>186.46</course>
  <speed>0.0282842712474619</speed>
  <fix>3d</fix>
</trkpt>
<trkpt lat="33.810313" lon="-118.393867">
  <ele>-0.12</ele>
  <time>2026-09-01T01:17:58Z</time>
  <course>0.0</course>
  <speed>0.0</speed>
  <fix>3d</fix>
</trkpt>
<trkpt lat="33.8103132" lon="-118.3938672">
  <ele>-0.122</ele>
  <time>2026-09-01T01:17:58Z</time>
  <course>186.46</course>
  <speed>0.0282842712474619</speed>
  <fix>3d</fix>
</trkpt>
<trkpt lat="33.810313" lon="-118.393867">
  <ele>-0.12</ele>
  <time>2026-09-01T01:17:58Z</time>
  <course>0.0</course>
  <speed>0.0</speed>
  <fix>3d</fix>
</trkpt>
<trkpt lat="33.8103132" lon="-118.3938672">
  <ele>-0.12</ele>
  <time>2026-09-01T01:17:58Z</time>
  <course>186.46</course>
  <speed>0.0282842712474619</speed>
  <fix>3d</fix>
</trkpt>
<trkpt lat="33.810313" lon="-118.393867">
  <ele>-0.12</ele>
  <time>2026-09-01T01:17:58Z</time>
  <course>0.0</course>
  <speed>0.0</speed>
  <fix>3d</fix>
</trkpt>
<trkpt lat="33.8103132" lon="-118.3938672">
  <ele>-0.119</ele>
  <time>2026-09-01T01:17:58Z</time>
  <course>186.46</course>
  <speed>0.0282842712474619</speed>
  <fix>3d</fix>
</trkpt>
<trkpt lat="33.810313" lon="-118.393867">
  <ele>-0.12</ele>
  <time>2026-09-01T01:17:58Z</time>
  <course>0.0</course>
  <speed>0.0</speed>
  <fix>3d</fix>
</trkpt>
<trkpt lat="33.8103132" lon="-118.3938672">
  <ele>-0.118</ele>
  <time>2026-09-01T01:17:58Z</time>
  <course>186.45</course>
  <speed>0.0282842712474619</speed>
  <fix>3d</fix>
</trkpt>
<trkpt lat="33.810313" lon="-118.393867">
  <ele>-0.12</ele>
  <time>2026-09-01T01:17:58Z</time>
  <course>0.0</course>
  <speed>0.0</speed>
  <fix>3d</fix>
</trkpt>
<trkpt lat="33.8103132" lon="-118.3938672">
  <ele>-0.117</ele>
  <time>2026-09-01T01:17:58Z</time>
  <course>186.45</course>
  <speed>0.0282842712474619</speed>
  <fix>3d</fix>
</trkpt>
<trkpt lat="33.810313" lon="-118.393867">
  <ele>-0.12</ele>
  <time>2026-09-01T01:17:58Z</time>
  <course>0.0</course>
  <speed>0.0</speed>
  <fix>3d</fix>
</trkpt>
<trkpt lat="33.8103132" lon="-118.3938672">
  <ele>-0.117</ele>
  <time>2026-09-01T01:17:58Z</time>
  <course>186.45</course>
  <speed>0.0282842712474619</speed>
  <fix>3d</fix>
</trkpt>
<trkpt lat="33.810313" lon="-118.393867">
  <ele>-0.12</ele>
  <time>2026-09-01T01:17:58Z</time>
  <course>0.0</course>
  <speed>0.0</speed>
  <fix>3d</fix>
</trkpt>
<trkpt lat="33.8103132" lon="-118.3938672">
  <ele>-0.119</ele>
  <time>2026-09-01T01:17:58Z</time>
  <course>186.45</course>
  <speed>0.0282842712474619</speed>
  <fix>3d</fix>
</trkpt>
<trkpt lat="33.810313" lon="-118.393867">
  <ele>-0.12</ele>
  <time>2026-09-01T01:17:58Z</time>
  <course>0.0</course>
  <speed>0.0</speed>
  <fix>3d</fix>
</trkpt>
<trkpt lat="33.8103132" lon="-118.3938672">
  <ele>-0.12</ele>
  <time>2026-09-01T01:17:58Z</time>
  <course>186.45</course>
  <speed>0.0282842712474619</speed>
  <fix>3d</fix>
</trkpt>
<trkpt lat="33.810313" lon="-118.393867">
  <ele>-0.12</ele>
  <time>2026-09-01T01:17:58Z</time>
  <course>0.0</course>
  <speed>0.0</speed>
  <fix>3d</fix>
</trkpt>
<trkpt lat="33.8103132" lon="-118.3938672">
  <ele>-0.121</ele>
  <time>2026-09-01T01:17:58Z</time>
  <course>186.44</course>
  <speed>0.0282842712474619</speed>
  <fix>3d</fix>
</trkpt>
<trkpt lat="33.810313" lon="-118.393867">
  <ele>-0.12</ele>
  <time>2026-09-01T01:17:58Z</time>
  <course>0.0</course>
  <speed>0.0</speed>
  <fix>3d</fix>
</trkpt>
<trkpt lat="33.8103132" lon="-118.3938672">
  <ele>-0.121</ele>
  <time>2026-09-01T01:17:58Z</time>
  <course>186.44</course>
  <speed>0.0282842712474619</speed>
  <fix>3d</fix>
</trkpt>
<trkpt lat="33.810313" lon="-118.393867">
  <ele>-0.12</ele>
  <time>2026-09-01T01:17:58Z</time>
  <course>0.0</course>
  <speed>0.0</speed>
  <fix>3d</fix>
</trkpt>
<trkpt lat="33.8103132" lon="-118.3938672">
  <ele>-0.119</ele>
  <time>2026-09-01T01:17:58Z</time>
  <course>186.44</course>
  <speed>0.0282842712474619</speed>
  <fix>3d</fix>
</trkpt>
<trkpt lat="33.810313" lon="-118.393867">
  <ele>-0.12</ele>
  <time>2026-09-01T01:17:58Z</time>
  <course>0.0</course>
  <speed>0.0</speed>
  <fix>3d</fix>
</trkpt>
<trkpt lat="33.8103132" lon="-118.3938672">
  <ele>-0.117</ele>
  <time>2026-09-01T01:17:58Z</time>
  <course>186.44</course>
  <speed>0.0282842712474619</speed>
  <fix>3d</fix>
</trkpt>
<trkpt lat="33.810313" lon="-118.393867">
  <ele>-0.12</ele>
  <time>2026-09-01T01:17:58Z</time>
  <course>0.0</course>
  <speed>0.0</speed>
  <fix>3d</fix>
</trkpt>
<trkpt lat="33.8103132" lon="-118.3938672">
  <ele>-0.115</ele>
  <time>2026-09-01T01:17:58Z</time>
  <course>186.43</course>
  <speed>0.0282842712474619</speed>
  <fix>3d</fix>
</trkpt>
<trkpt lat="33.810313" lon="-118.393867">
  <ele>-0.12</ele>
  <time>2026-09-01T01:17:58Z</time>
  <course>0.0</course>
  <speed>0.0</speed>
  <fix>3d</fix>
</trkpt>
<trkpt lat="33.8103132" lon="-118.3938672">
  <ele>-0.114</ele>
  <time>2026-09-01T01:17:58Z</time>
  <course>186.43</course>
  <speed>0.0282842712474619</speed>
  <fix>3d</fix>
</trkpt>
<trkpt lat="33.810313" lon="-118.393867">
  <ele>-0.12</ele>
  <time>2026-09-01T01:17:58Z</time>
  <course>0.0</course>
  <speed>0.0</speed>
  <fix>3d</fix>
</trkpt>
<trkpt lat="33.8103132" lon="-118.3938672">
  <ele>-0.112</ele>
  <time>2026-09-01T01:17:58Z</time>
  <course>186.43</course>
  <speed>0.0282842712474619</speed>
  <fix>3d</fix>
</trkpt>
<trkpt lat="33.810313" lon="-118.393867">
  <ele>-0.12</ele>
  <time>2026-09-01T01:17:58Z</time>
  <course>0.0</course>
  <speed>0.0</speed>
  <fix>3d</fix>
</trkpt>
<trkpt lat="33.8103132" lon="-118.3938672">
  <ele>-0.112</ele>
  <time>2026-09-01T01:17:58Z</time>
  <course>186.43</course>
  <speed>0.0282842712474619</speed>
  <fix>3d</fix>
</trkpt>
<trkpt lat="33.810313" lon="-118.393867">
  <ele>-0.12</ele>
  <time>2026-09-01T01:17:58Z</time>
  <course>0.0</course>
  <speed>0.0</speed>
  <fix>3d</fix>
</trkpt>
<trkpt lat="33.8103132" lon="-118.3938672">
  <ele>-0.113</ele>
  <time>2026-09-01T01:17:58Z</time>
  <course>186.42</course>
  <speed>0.0282842712474619</speed>
  <fix>3d</fix>
</trkpt>
<trkpt lat="33.810313" lon="-118.393867">
  <ele>-0.12</ele>
  <time>2026-09-01T01:17:58Z</time>
  <course>0.0</course>
  <speed>0.0</speed>
  <fix>3d</fix>
</trkpt>
<trkpt lat="33.8103132" lon="-118.3938672">
  <ele>-0.115</ele>
  <time>2026-09-01T01:17:58Z</time>
  <course>186.42</course>
  <speed>0.0282842712474619</speed>
  <fix>3d</fix>
</trkpt>
<trkpt lat="33.810313" lon="-118.393867">
  <ele>-0.12</ele>
  <time>2026-09-01T01:17:58Z</time>
  <course>0.0</course>
  <speed>0.0</speed>
  <fix>3d</fix>
</trkpt>
<trkpt lat="33.8103132" lon="-118.3938672">
  <ele>-0.117</ele>
  <time>2026-09-01T01:17:58Z</time>
  <course>186.42</course>
  <speed>0.0282842712474619</speed>
  <fix>3d</fix>
</trkpt>
<trkpt lat="33.810313" lon="-118.393867">
  <ele>-0.12</ele>
  <time>2026-09-01T01:17:58Z</time>
  <course>0.0</course>
  <speed>0.0</speed>
  <fix>3d</fix>
</trkpt>
<trkpt lat="33.8103132" lon="-118.3938672">
  <ele>-0.118</ele>
  <time>2026-09-01T01:17:58Z</time>
  <course>186.42</course>
  <speed>0.0282842712474619</speed>
  <fix>3d</fix>
</trkpt>
<trkpt lat="33.810313" lon="-118.393867">
  <ele>-0.12</ele>
  <time>2026-09-01T01:17:58Z</time>
  <course>0.0</course>
  <speed>0.0</speed>
  <fix>3d</fix>
</trkpt>
<trkpt lat="33.8103132" lon="-118.3938672">
  <ele>-0.12</ele>
  <time>2026-09-01T01:17:58Z</time>
  <course>186.42</course>
  <speed>0.0282842712474619</speed>
  <fix>3d</fix>
</trkpt>
<trkpt lat="33.810313" lon="-118.393867">
  <ele>-0.12</ele>
  <time>2026-09-01T01:17:58Z</time>
  <course>0.0</course>
  <speed>0.0</speed>
  <fix>3d</fix>
</trkpt>
<trkpt lat="33.8103132" lon="-118.3938672">
  <ele>-0.121</ele>
  <time>2026-09-01T01:17:58Z</time>
  <course>186.41</course>
  <speed>0.0282842712474619</speed>
  <fix>3d</fix>
</trkpt>
<trkpt lat="33.810313" lon="-118.393867">
  <ele>-0.12</ele>
  <time>2026-09-01T01:17:58Z</time>
  <course>0.0</course>
  <speed>0.0</speed>
  <fix>3d</fix>
</trkpt>
<trkpt lat="33.8103132" lon="-118.3938672">
  <ele>-0.122</ele>
  <time>2026-09-01T01:17:58Z</time>
  <course>186.41</course>
  <speed>0.0282842712474619</speed>
  <fix>3d</fix>
</trkpt>
<trkpt lat="33.810313" lon="-118.393867">
  <ele>-0.12</ele>
  <time>2026-09-01T01:17:58Z</time>
  <course>0.0</course>
  <speed>0.0</speed>
  <fix>3d</fix>
</trkpt>
<trkpt lat="33.8103132" lon="-118.3938672">
  <ele>-0.122</ele>
  <time>2026-09-01T01:17:58Z</time>
  <course>186.41</course>
  <speed>0.0282842712474619</speed>
  <fix>3d</fix>
</trkpt>
<trkpt lat="33.810313" lon="-118.393867">
  <ele>-0.12</ele>
  <time>2026-09-01T01:17:58Z</time>
  <course>0.0</course>
  <speed>0.0</speed>
  <fix>3d</fix>
</trkpt>
<trkpt lat="33.8103132" lon="-118.3938672">
  <ele>-0.121</ele>
  <time>2026-09-01T01:17:58Z</time>
  <course>186.41</course>
  <speed>0.022360679774997897</speed>
  <fix>3d</fix>
</trkpt>
<trkpt lat="33.810313" lon="-118.393867">
  <ele>-0.12</ele>
  <time>2026-09-01T01:17:58Z</time>
  <course>0.0</course>
  <speed>0.0</speed>
  <fix>3d</fix>
</trkpt>
<trkpt lat="33.8103132" lon="-118.3938672">
  <ele>-0.121</ele>
  <time>2026-09-01T01:17:58Z</time>
  <course>186.41</course>
  <speed>0.022360679774997897</speed>
  <fix>3d</fix>
</trkpt>
<trkpt lat="33.810313" lon="-118.393867">
  <ele>-0.12</ele>
  <time>2026-09-01T01:17:58Z</time>
  <course>0.0</course>
  <speed>0.0</speed>
  <fix>3d</fix>
</trkpt>
<trkpt lat="33.8103132" lon="-118.3938672">
  <ele>-0.122</ele>
  <time>2026-09-01T01:17:58Z</time>
  <course>186.4</course>
  <speed>0.022360679774997897</speed>
  <fix>3d</fix>
</trkpt>
<trkpt lat="33.810313" lon="-118.393867">
  <ele>-0.12</ele>
  <time>2026-09-01T01:17:58Z</time>
  <course>0.0</course>
  <speed>0.0</speed>
  <fix>3d</fix>
</trkpt>
<trkpt lat="33.8103132" lon="-118.3938672">
  <ele>-0.124</ele>
  <time>2026-09-01T01:17:58Z</time>
  <course>186.4</course>
  <speed>0.022360679774997897</speed>
  <fix>3d</fix>
</trkpt>
<trkpt lat="33.810313" lon="-118.393867">
  <ele>-0.12</ele>
  <time>2026-09-01T01:17:58Z</time>
  <course>0.0</course>
  <speed>0.0</speed>
  <fix>3d</fix>
</trkpt>
<trkpt lat="33.8103132" lon="-118.3938672">
  <ele>-0.126</ele>
  <time>2026-09-01T01:17:58Z</time>
  <course>186.4</course>
  <speed>0.022360679774997897</speed>
  <fix>3d</fix>
</trkpt>
<trkpt lat="33.810313" lon="-118.393867">
  <ele>-0.12</ele>
  <time>2026-09-01T01:17:58Z</time>
  <course>0.0</course>
  <speed>0.0</speed>
  <fix>3d</fix>
</trkpt>
<trkpt lat="33.8103132" lon="-118.3938672">
  <ele>-0.128</ele>
  <time>2026-09-01T01:17:58Z</time>
  <course>186.4</course>
  <speed>0.022360679774997897</speed>
  <fix>3d</fix>
</trkpt>
<trkpt lat="33.810313" lon="-118.393867">
  <ele>-0.12</ele>
  <time>2026-09-01T01:17:58Z</time>
  <course>0.0</course>
  <speed>0.0</speed>
  <fix>3d</fix>
</trkpt>
<trkpt lat="33.8103132" lon="-118.3938672">
  <ele>-0.128</ele>
  <time>2026-09-01T01:17:58Z</time>
  <course>186.4</course>
  <speed>0.022360679774997897</speed>
  <fix>3d</fix>
</trkpt>
<trkpt lat="33.810313" lon="-118.393867">
  <ele>-0.12</ele>
  <time>2026-09-01T01:17:58Z</time>
  <course>0.0</course>
  <speed>0.0</speed>
  <fix>3d</fix>
</trkpt>
<trkpt lat="33.8103132" lon="-118.3938672">
  <ele>-0.127</ele>
  <time>2026-09-01T01:17:58Z</time>
  <course>186.4</course>
  <speed>0.022360679774997897</speed>
  <fix>3d</fix>
</trkpt>
<trkpt lat="33.810313" lon="-118.393867">
  <ele>-0.12</ele>
  <time>2026-09-01T01:17:58Z</time>
  <course>0.0</course>
  <speed>0.0</speed>
  <fix>3d</fix>
</trkpt>
<trkpt lat="33.8103132" lon="-118.3938672">
  <ele>-0.126</ele>
  <time>2026-09-01T01:17:58Z</time>
  <course>186.39</course>
  <speed>0.022360679774997897</speed>
  <fix>3d</fix>
</trkpt>
<trkpt lat="33.810313" lon="-118.393867">
  <ele>-0.12</ele>
  <time>2026-09-01T01:17:58Z</time>
  <course>0.0</course>
  <speed>0.0</speed>
  <fix>3d</fix>
</trkpt>
<trkpt lat="33.8103132" lon="-118.3938672">
  <ele>-0.125</ele>
  <time>2026-09-01T01:17:58Z</time>
  <course>186.39</course>
  <speed>0.022360679774997897</speed>
  <fix>3d</fix>
</trkpt>
<trkpt lat="33.810313" lon="-118.393867">
  <ele>-0.12</ele>
  <time>2026-09-01T01:17:58Z</time>
  <course>0.0</course>
  <speed>0.0</speed>
  <fix>3d</fix>
</trkpt>
<trkpt lat="33.8103132" lon="-118.3938672">
  <ele>-0.123</ele>
  <time>2026-09-01T01:17:58Z</time>
  <course>186.39</course>
  <speed>0.022360679774997897</speed>
  <fix>3d</fix>
</trkpt>
<trkpt lat="33.810313" lon="-118.393867">
  <ele>-0.12</ele>
  <time>2026-09-01T01:17:58Z</time>
  <course>0.0</course>
  <speed>0.0</speed>
  <fix>3d</fix>
</trkpt>
<trkpt lat="33.8103132" lon="-118.3938672">
  <ele>-0.124</ele>
  <time>2026-09-01T01:17:58Z</time>
  <course>186.39</course>
  <speed>0.022360679774997897</speed>
  <fix>3d</fix>
</trkpt>
<trkpt lat="33.810313" lon="-118.393867">
  <ele>-0.12</ele>
  <time>2026-09-01T01:17:58Z</time>
  <course>0.0</course>
  <speed>0.0</speed>
  <fix>3d</fix>
</trkpt>
<trkpt lat="33.8103132" lon="-118.3938672">
  <ele>-0.125</ele>
  <time>2026-09-01T01:17:58Z</time>
  <course>186.39</course>
  <speed>0.022360679774997897</speed>
  <fix>3d</fix>
</trkpt>
<trkpt lat="33.810313" lon="-118.393867">
  <ele>-0.12</ele>
  <time>2026-09-01T01:17:58Z</time>
  <course>0.0</course>
  <speed>0.0</speed>
  <fix>3d</fix>
</trkpt>
<trkpt lat="33.8103132" lon="-118.3938672">
  <ele>-0.125</ele>
  <time>2026-09-01T01:17:58Z</time>
  <course>186.39</course>
  <speed>0.022360679774997897</speed>
  <fix>3d</fix>
</trkpt>
<trkpt lat="33.810313" lon="-118.393867">
  <ele>-0.12</ele>
  <time>2026-09-01T01:17:58Z</time>
  <course>0.0</course>
  <speed>0.0</speed>
  <fix>3d</fix>
</trkpt>
<trkpt lat="33.8103132" lon="-118.3938672">
  <ele>-0.125</ele>
  <time>2026-09-01T01:17:58Z</time>
  <course>186.38</course>
  <speed>0.022360679774997897</speed>
  <fix>3d</fix>
</trkpt>
<trkpt lat="33.810313" lon="-118.393867">
  <ele>-0.12</ele>
  <time>2026-09-01T01:17:58Z</time>
  <course>0.0</course>
  <speed>0.0</speed>
  <fix>3d</fix>
</trkpt>
<trkpt lat="33.8103132" lon="-118.3938672">
  <ele>-0.124</ele>
  <time>2026-09-01T01:17:58Z</time>
  <course>186.38</course>
  <speed>0.022360679774997897</speed>
  <fix>3d</fix>
</trkpt>
<trkpt lat="33.810313" lon="-118.393867">
  <ele>-0.12</ele>
  <time>2026-09-01T01:17:58Z</time>
  <course>0.0</course>
  <speed>0.0</speed>
  <fix>3d</fix>
</trkpt>
<trkpt lat="33.8103132" lon="-118.3938672">
  <ele>-0.124</ele>
  <time>2026-09-01T01:17:58Z</time>
  <course>186.38</course>
  <speed>0.022360679774997897</speed>
  <fix>3d</fix>
</trkpt>
<trkpt lat="33.810313" lon="-118.393867">
  <ele>-0.12</ele>
  <time>2026-09-01T01:17:58Z</time>
  <course>0.0</course>
  <speed>0.0</speed>
  <fix>3d</fix>
</trkpt>
<trkpt lat="33.8103132" lon="-118.3938672">
  <ele>-0.124</ele>
  <time>2026-09-01T01:17:58Z</time>
  <course>186.38</course>
  <speed>0.022360679774997897</speed>
  <fix>3d</fix>
</trkpt>
<trkpt lat="33.810313" lon="-118.393867">
  <ele>-0.12</ele>
  <time>2026-09-01T01:17:58Z</time>
  <course>0.0</course>
  <speed>0.0</speed>
  <fix>3d</fix>
</trkpt>
<trkpt lat="33.8103132" lon="-118.3938672">
  <ele>-0.124</ele>
  <time>2026-09-01T01:17:58Z</time>
  <course>186.38</course>
  <speed>0.022360679774997897</speed>
  <fix>3d</fix>
</trkpt>
<trkpt lat="33.810313" lon="-118.393867">
  <ele>-0.12</ele>
  <time>2026-09-01T01:17:58Z</time>
  <course>0.0</course>
  <speed>0.0</speed>
  <fix>3d</fix>
</trkpt>
<trkpt lat="33.8103132" lon="-118.3938672">
  <ele>-0.123</ele>
  <time>2026-09-01T01:17:58Z</time>
  <course>186.38</course>
  <speed>0.022360679774997897</speed>
  <fix>3d</fix>
</trkpt>
<trkpt lat="33.810313" lon="-118.393867">
  <ele>-0.12</ele>
  <time>2026-09-01T01:17:58Z</time>
  <course>0.0</course>
  <speed>0.0</speed>
  <fix>3d</fix>
</trkpt>
<trkpt lat="33.8103132" lon="-118.3938672">
  <ele>-0.122</ele>
  <time>2026-09-01T01:17:58Z</time>
  <course>186.37</course>
  <speed>0.022360679774997897</speed>
  <fix>3d</fix>
</trkpt>
<trkpt lat="33.810313" lon="-118.393867">
  <ele>-0.12</ele>
  <time>2026-09-01T01:17:58Z</time>
  <course>0.0</course>
  <speed>0.0</speed>
  <fix>3d</fix>
</trkpt>
<trkpt lat="33.8103132" lon="-118.3938672">
  <ele>-0.122</ele>
  <time>2026-09-01T01:17:58Z</time>
  <course>186.37</course>
  <speed>0.022360679774997897</speed>
  <fix>3d</fix>
</trkpt>
<trkpt lat="33.810313" lon="-118.393867">
  <ele>-0.12</ele>
  <time>2026-09-01T01:17:58Z</time>
  <course>0.0</course>
  <speed>0.0</speed>
  <fix>3d</fix>
</trkpt>
<trkpt lat="33.8103132" lon="-118.3938672">
  <ele>-0.122</ele>
  <time>2026-09-01T01:17:58Z</time>
  <course>186.37</course>
  <speed>0.022360679774997897</speed>
  <fix>3d</fix>
</trkpt>
<trkpt lat="33.810313" lon="-118.393867">
  <ele>-0.12</ele>
  <time>2026-09-01T01:17:58Z</time>
  <course>0.0</course>
  <speed>0.0</speed>
  <fix>3d</fix>
</trkpt>
<trkpt lat="33.8103132" lon="-118.3938672">
  <ele>-0.122</ele>
  <time>2026-09-01T01:17:58Z</time>
  <course>186.37</course>
  <speed>0.022360679774997897</speed>
  <fix>3d</fix>
</trkpt>
<trkpt lat="33.810313" lon="-118.393867">
  <ele>-0.12</ele>
  <time>2026-09-01T01:17:58Z</time>
  <course>0.0</course>
  <speed>0.0</speed>
  <fix>3d</fix>
</trkpt>
<trkpt lat="33.8103132" lon="-118.3938672">
  <ele>-0.121</ele>
  <time>2026-09-01T01:17:58Z</time>
  <course>186.37</course>
  <speed>0.022360679774997897</speed>
  <fix>3d</fix>
</trkpt>
<trkpt lat="33.810313" lon="-118.393867">
  <ele>-0.12</ele>
  <time>2026-09-01T01:17:58Z</time>
  <course>0.0</course>
  <speed>0.0</speed>
  <fix>3d</fix>
</trkpt>
<trkpt lat="33.8103132" lon="-118.3938672">
  <ele>-0.119</ele>
  <time>2026-09-01T01:17:58Z</time>
  <course>186.37</course>
  <speed>0.022360679774997897</speed>
  <fix>3d</fix>
</trkpt>
<trkpt lat="33.810313" lon="-118.393867">
  <ele>-0.12</ele>
  <time>2026-09-01T01:17:58Z</time>
  <course>0.0</course>
  <speed>0.0</speed>
  <fix>3d</fix>
</trkpt>
<trkpt lat="33.8103132" lon="-118.3938672">
  <ele>-0.117</ele>
  <time>2026-09-01T01:17:58Z</time>
  <course>186.37</course>
  <speed>0.022360679774997897</speed>
  <fix>3d</fix>
</trkpt>
<trkpt lat="33.810313" lon="-118.393867">
  <ele>-0.12</ele>
  <time>2026-09-01T01:17:58Z</time>
  <course>0.0</course>
  <speed>0.0</speed>
  <fix>3d</fix>
</trkpt>
<trkpt lat="33.8103132" lon="-118.3938672">
  <ele>-0.116</ele>
  <time>2026-09-01T01:17:58Z</time>
  <course>186.36</course>
  <speed>0.022360679774997897</speed>
  <fix>3d</fix>
</trkpt>
<trkpt lat="33.810313" lon="-118.393867">
  <ele>-0.12</ele>
  <time>2026-09-01T01:17:58Z</time>
  <course>0.0</course>
  <speed>0.0</speed>
  <fix>3d</fix>
</trkpt>
<trkpt lat="33.8103132" lon="-118.3938672">
  <ele>-0.115</ele>
  <time>2026-09-01T01:17:58Z</time>
  <course>186.36</course>
  <speed>0.022360679774997897</speed>
  <fix>3d</fix>
</trkpt>
<trkpt lat="33.810313" lon="-118.393867">
  <ele>-0.12</ele>
  <time>2026-09-01T01:17:58Z</time>
  <course>0.0</course>
  <speed>0.0</speed>
  <fix>3d</fix>
</trkpt>
<trkpt lat="33.8103132" lon="-118.3938672">
  <ele>-0.113</ele>
  <time>2026-09-01T01:17:58Z</time>
  <course>186.36</course>
  <speed>0.022360679774997897</speed>
  <fix>3d</fix>
</trkpt>
<trkpt lat="33.810313" lon="-118.393867">
  <ele>-0.12</ele>
  <time>2026-09-01T01:17:58Z</time>
  <course>0.0</course>
  <speed>0.0</speed>
  <fix>3d</fix>
</trkpt>
<trkpt lat="33.8103132" lon="-118.3938672">
  <ele>-0.113</ele>
  <time>2026-09-01T01:17:58Z</time>
  <course>186.36</course>
  <speed>0.022360679774997897</speed>
  <fix>3d</fix>
</trkpt>
<trkpt lat="33.810313" lon="-118.393867">
  <ele>-0.12</ele>
  <time>2026-09-01T01:17:58Z</time>
  <course>0.0</course>
  <speed>0.0</speed>
  <fix>3d</fix>
</trkpt>
<trkpt lat="33.8103132" lon="-118.3938672">
  <ele>-0.113</ele>
  <time>2026-09-01T01:17:58Z</time>
  <course>186.36</course>
  <speed>0.022360679774997897</speed>
  <fix>3d</fix>
</trkpt>
<trkpt lat="33.810313" lon="-118.393867">
  <ele>-0.12</ele>
  <time>2026-09-01T01:17:58Z</time>
  <course>0.0</course>
  <speed>0.0</speed>
  <fix>3d</fix>
</trkpt>
<trkpt lat="33.8103132" lon="-118.3938672">
  <ele>-0.113</ele>
  <time>2026-09-01T01:17:58Z</time>
  <course>186.36</course>
  <speed>0.022360679774997897</speed>
  <fix>3d</fix>
</trkpt>
<trkpt lat="33.810313" lon="-118.393867">
  <ele>-0.12</ele>
  <time>2026-09-01T01:17:58Z</time>
  <course>0.0</course>
  <speed>0.0</speed>
  <fix>3d</fix>
</trkpt>
<trkpt lat="33.8103132" lon="-118.3938672">
  <ele>-0.114</ele>
  <time>2026-09-01T01:17:58Z</time>
  <course>186.36</course>
  <speed>0.022360679774997897</speed>
  <fix>3d</fix>
</trkpt>
<trkpt lat="33.810313" lon="-118.393867">
  <ele>-0.12</ele>
  <time>2026-09-01T01:17:58Z</time>
  <course>0.0</course>
  <speed>0.0</speed>
  <fix>3d</fix>
</trkpt>
<trkpt lat="33.8103132" lon="-118.3938672">
  <ele>-0.114</ele>
  <time>2026-09-01T01:17:58Z</time>
  <course>186.35</course>
  <speed>0.022360679774997897</speed>
  <fix>3d</fix>
</trkpt>
<trkpt lat="33.810313" lon="-118.393867">
  <ele>-0.12</ele>
  <time>2026-09-01T01:17:58Z</time>
  <course>0.0</course>
  <speed>0.0</speed>
  <fix>3d</fix>
</trkpt>
<trkpt lat="33.8103132" lon="-118.3938672">
  <ele>-0.115</ele>
  <time>2026-09-01T01:17:58Z</time>
  <course>186.35</course>
  <speed>0.022360679774997897</speed>
  <fix>3d</fix>
</trkpt>
<trkpt lat="33.810313" lon="-118.393867">
  <ele>-0.12</ele>
  <time>2026-09-01T01:17:58Z</time>
  <course>0.0</course>
  <speed>0.0</speed>
  <fix>3d</fix>
</trkpt>
<trkpt lat="33.8103132" lon="-118.3938672">
  <ele>-0.116</ele>
  <time>2026-09-01T01:17:58Z</time>
  <course>186.35</course>
  <speed>0.022360679774997897</speed>
  <fix>3d</fix>
</trkpt>
<trkpt lat="33.810313" lon="-118.393867">
  <ele>-0.12</ele>
  <time>2026-09-01T01:17:58Z</time>
  <course>0.0</course>
  <speed>0.0</speed>
  <fix>3d</fix>
</trkpt>
<trkpt lat="33.8103132" lon="-118.3938672">
  <ele>-0.118</ele>
  <time>2026-09-01T01:17:58Z</time>
  <course>186.35</course>
  <speed>0.022360679774997897</speed>
  <fix>3d</fix>
</trkpt>
<trkpt lat="33.810313" lon="-118.393867">
  <ele>-0.12</ele>
  <time>2026-09-01T01:17:58Z</time>
  <course>0.0</course>
  <speed>0.0</speed>
  <fix>3d</fix>
</trkpt>
<trkpt lat="33.8103132" lon="-118.3938672">
  <ele>-0.119</ele>
  <time>2026-09-01T01:17:58Z</time>
  <course>186.35</course>
  <speed>0.022360679774997897</speed>
  <fix>3d</fix>
</trkpt>
<trkpt lat="33.810313" lon="-118.393867">
  <ele>-0.12</ele>
  <time>2026-09-01T01:17:58Z</time>
  <course>0.0</course>
  <speed>0.0</speed>
  <fix>3d</fix>
</trkpt>
<trkpt lat="33.8103132" lon="-118.3938672">
  <ele>-0.119</ele>
  <time>2026-09-01T01:17:58Z</time>
  <course>186.35</course>
  <speed>0.022360679774997897</speed>
  <fix>3d</fix>
</trkpt>
<trkpt lat="33.810313" lon="-118.393867">
  <ele>-0.12</ele>
  <time>2026-09-01T01:17:58Z</time>
  <course>0.0</course>
  <speed>0.0</speed>
  <fix>3d</fix>
</trkpt>
<trkpt lat="33.8103132" lon="-118.3938672">
  <ele>-0.119</ele>
  <time>2026-09-01T01:17:58Z</time>
  <course>186.35</course>
  <speed>0.022360679774997897</speed>
  <fix>3d</fix>
</trkpt>
<trkpt lat="33.810313" lon="-118.393867">
  <ele>-0.12</ele>
  <time>2026-09-01T01:17:58Z</time>
  <course>0.0</course>
  <speed>0.0</speed>
  <fix>3d</fix>
</trkpt>
<trkpt lat="33.8103132" lon="-118.3938672">
  <ele>-0.119</ele>
  <time>2026-09-01T01:17:58Z</time>
  <course>186.35</course>
  <speed>0.022360679774997897</speed>
  <fix>3d</fix>
</trkpt>
<trkpt lat="33.810313" lon="-118.393867">
  <ele>-0.12</ele>
  <time>2026-09-01T01:17:58Z</time>
  <course>0.0</course>
  <speed>0.0</speed>
  <fix>3d</fix>
</trkpt>
<trkpt lat="33.8103132" lon="-118.3938672">
  <ele>-0.12</ele>
  <time>2026-09-01T01:17:58Z</time>
  <course>186.34</course>
  <speed>0.022360679774997897</speed>
  <fix>3d</fix>
</trkpt>
<trkpt lat="33.810313" lon="-118.393867">
  <ele>-0.12</ele>
  <time>2026-09-01T01:17:58Z</time>
  <course>0.0</course>
  <speed>0.0</speed>
  <fix>3d</fix>
</trkpt>
<trkpt lat="33.8103132" lon="-118.3938672">
  <ele>-0.121</ele>
  <time>2026-09-01T01:17:58Z</time>
  <course>186.34</course>
  <speed>0.022360679774997897</speed>
  <fix>3d</fix>
</trkpt>
<trkpt lat="33.810313" lon="-118.393867">
  <ele>-0.12</ele>
  <time>2026-09-01T01:17:58Z</time>
  <course>0.0</course>
  <speed>0.0</speed>
  <fix>3d</fix>
</trkpt>
<trkpt lat="33.8103132" lon="-118.3938672">
  <ele>-0.121</ele>
  <time>2026-09-01T01:17:58Z</time>
  <course>186.34</course>
  <speed>0.022360679774997897</speed>
  <fix>3d</fix>
</trkpt>
<trkpt lat="33.810313" lon="-118.393867">
  <ele>-0.12</ele>
  <time>2026-09-01T01:17:58Z</time>
  <course>0.0</course>
  <speed>0.0</speed>
  <fix>3d</fix>
</trkpt>
<trkpt lat="33.8103132" lon="-118.3938672">
  <ele>-0.122</ele>
  <time>2026-09-01T01:17:58Z</time>
  <course>186.34</course>
  <speed>0.022360679774997897</speed>
  <fix>3d</fix>
</trkpt>
<trkpt lat="33.810313" lon="-118.393867">
  <ele>-0.12</ele>
  <time>2026-09-01T01:17:58Z</time>
  <course>0.0</course>
  <speed>0.0</speed>
  <fix>3d</fix>
</trkpt>
<trkpt lat="33.8103132" lon="-118.3938672">
  <ele>-0.124</ele>
  <time>2026-09-01T01:17:58Z</time>
  <course>186.34</course>
  <speed>0.022360679774997897</speed>
  <fix>3d</fix>
</trkpt>
<trkpt lat="33.810313" lon="-118.393867">
  <ele>-0.12</ele>
  <time>2026-09-01T01:17:58Z</time>
  <course>0.0</course>
  <speed>0.0</speed>
  <fix>3d</fix>
</trkpt>
<trkpt lat="33.8103132" lon="-118.3938672">
  <ele>-0.124</ele>
  <time>2026-09-01T01:17:58Z</time>
  <course>186.34</course>
  <speed>0.022360679774997897</speed>
  <fix>3d</fix>
</trkpt>
<trkpt lat="33.810313" lon="-118.393867">
  <ele>-0.12</ele>
  <time>2026-09-01T01:17:58Z</time>
  <course>0.0</course>
  <speed>0.0</speed>
  <fix>3d</fix>
</trkpt>
<trkpt lat="33.8103132" lon="-118.3938672">
  <ele>-0.123</ele>
  <time>2026-09-01T01:17:58Z</time>
  <course>186.34</course>
  <speed>0.01414213562373095</speed>
  <fix>3d</fix>
</trkpt>
<trkpt lat="33.810313" lon="-118.393867">
  <ele>-0.12</ele>
  <time>2026-09-01T01:17:58Z</time>
  <course>0.0</course>
  <speed>0.0</speed>
  <fix>3d</fix>
</trkpt>
<trkpt lat="33.8103132" lon="-118.3938672">
  <ele>-0.121</ele>
  <time>2026-09-01T01:17:58Z</time>
  <course>186.34</course>
  <speed>0.01414213562373095</speed>
  <fix>3d</fix>
</trkpt>
<trkpt lat="33.810313" lon="-118.393867">
  <ele>-0.12</ele>
  <time>2026-09-01T01:17:58Z</time>
  <course>0.0</course>
  <speed>0.0</speed>
  <fix>3d</fix>
</trkpt>
<trkpt lat="33.8103132" lon="-118.3938672">
  <ele>-0.119</ele>
  <time>2026-09-01T01:17:58Z</time>
  <course>186.33</course>
  <speed>0.01414213562373095</speed>
  <fix>3d</fix>
</trkpt>
<trkpt lat="33.810313" lon="-118.393867">
  <ele>-0.12</ele>
  <time>2026-09-01T01:17:58Z</time>
  <course>0.0</course>
  <speed>0.0</speed>
  <fix>3d</fix>
</trkpt>
<trkpt lat="33.8103132" lon="-118.3938672">
  <ele>-0.118</ele>
  <time>2026-09-01T01:17:58Z</time>
  <course>186.33</course>
  <speed>0.01414213562373095</speed>
  <fix>3d</fix>
</trkpt>
<trkpt lat="33.810313" lon="-118.393867">
  <ele>-0.12</ele>
  <time>2026-09-01T01:17:58Z</time>
  <course>0.0</course>
  <speed>0.0</speed>
  <fix>3d</fix>
</trkpt>
<trkpt lat="33.8103132" lon="-118.3938672">
  <ele>-0.118</ele>
  <time>2026-09-01T01:17:58Z</time>
  <course>186.33</course>
  <speed>0.01414213562373095</speed>
  <fix>3d</fix>
</trkpt>
<trkpt lat="33.810313" lon="-118.393867">
  <ele>-0.12</ele>
  <time>2026-09-01T01:17:58Z</time>
  <course>0.0</course>
  <speed>0.0</speed>
  <fix>3d</fix>
</trkpt>
<trkpt lat="33.8103132" lon="-118.3938672">
  <ele>-0.119</ele>
  <time>2026-09-01T01:17:58Z</time>
  <course>186.33</course>
  <speed>0.01414213562373095</speed>
  <fix>3d</fix>
</trkpt>
<trkpt lat="33.810313" lon="-118.393867">
  <ele>-0.12</ele>
  <time>2026-09-01T01:17:58Z</time>
  <course>0.0</course>
  <speed>0.0</speed>
  <fix>3d</fix>
</trkpt>
<trkpt lat="33.8103132" lon="-118.3938672">
  <ele>-0.12</ele>
  <time>2026-09-01T01:17:58Z</time>
  <course>186.33</course>
  <speed>0.01414213562373095</speed>
  <fix>3d</fix>
</trkpt>
<trkpt lat="33.810313" lon="-118.393867">
  <ele>-0.12</ele>
  <time>2026-09-01T01:17:58Z</time>
  <course>0.0</course>
  <speed>0.0</speed>
  <fix>3d</fix>
</trkpt>
<trkpt lat="33.8103132" lon="-118.3938672">
  <ele>-0.122</ele>
  <time>2026-09-01T01:17:58Z</time>
  <course>186.33</course>
  <speed>0.01414213562373095</speed>
  <fix>3d</fix>
</trkpt>
<trkpt lat="33.810313" lon="-118.393867">
  <ele>-0.12</ele>
  <time>2026-09-01T01:17:58Z</time>
  <course>0.0</course>
  <speed>0.0</speed>
  <fix>3d</fix>
</trkpt>
<trkpt lat="33.8103132" lon="-118.3938672">
  <ele>-0.124</ele>
  <time>2026-09-01T01:17:58Z</time>
  <course>186.33</course>
  <speed>0.01414213562373095</speed>
  <fix>3d</fix>
</trkpt>
<trkpt lat="33.810313" lon="-118.393867">
  <ele>-0.12</ele>
  <time>2026-09-01T01:17:58Z</time>
  <course>0.0</course>
  <speed>0.0</speed>
  <fix>3d</fix>
</trkpt>
<trkpt lat="33.8103132" lon="-118.3938672">
  <ele>-0.126</ele>
  <time>2026-09-01T01:17:58Z</time>
  <course>186.33</course>
  <speed>0.01414213562373095</speed>
  <fix>3d</fix>
</trkpt>
<trkpt lat="33.810313" lon="-118.393867">
  <ele>-0.12</ele>
  <time>2026-09-01T01:17:58Z</time>
  <course>0.0</course>
  <speed>0.0</speed>
  <fix>3d</fix>
</trkpt>
<trkpt lat="33.8103132" lon="-118.3938672">
  <ele>-0.126</ele>
  <time>2026-09-01T01:17:58Z</time>
  <course>186.33</course>
  <speed>0.01414213562373095</speed>
  <fix>3d</fix>
</trkpt>
<trkpt lat="33.810313" lon="-118.393867">
  <ele>-0.12</ele>
  <time>2026-09-01T01:17:58Z</time>
  <course>0.0</course>
  <speed>0.0</speed>
  <fix>3d</fix>
</trkpt>
<trkpt lat="33.8103132" lon="-118.3938672">
  <ele>-0.125</ele>
  <time>2026-09-01T01:17:58Z</time>
  <course>186.33</course>
  <speed>0.01414213562373095</speed>
  <fix>3d</fix>
</trkpt>
<trkpt lat="33.810313" lon="-118.393867">
  <ele>-0.12</ele>
  <time>2026-09-01T01:17:58Z</time>
  <course>0.0</course>
  <speed>0.0</speed>
  <fix>3d</fix>
</trkpt>
<trkpt lat="33.8103132" lon="-118.3938672">
  <ele>-0.124</ele>
  <time>2026-09-01T01:17:58Z</time>
  <course>186.32</course>
  <speed>0.01</speed>
  <fix>3d</fix>
</trkpt>
<trkpt lat="33.810313" lon="-118.393867">
  <ele>-0.12</ele>
  <time>2026-09-01T01:17:58Z</time>
  <course>0.0</course>
  <speed>0.0</speed>
  <fix>3d</fix>
</trkpt>
<trkpt lat="33.8103132" lon="-118.3938672">
  <ele>-0.123</ele>
  <time>2026-09-01T01:17:58Z</time>
  <course>186.32</course>
  <speed>0.01</speed>
  <fix>3d</fix>
</trkpt>
<trkpt lat="33.810313" lon="-118.393867">
  <ele>-0.12</ele>
  <time>2026-09-01T01:17:58Z</time>
  <course>0.0</course>
  <speed>0.0</speed>
  <fix>3d</fix>
</trkpt>
<trkpt lat="33.8103132" lon="-118.3938672">
  <ele>-0.123</ele>
  <time>2026-09-01T01:17:58Z</time>
  <course>186.32</course>
  <speed>0.01</speed>
  <fix>3d</fix>
</trkpt>
<trkpt lat="33.810313" lon="-118.393867">
  <ele>-0.12</ele>
  <time>2026-09-01T01:17:58Z</time>
  <course>0.0</course>
  <speed>0.0</speed>
  <fix>3d</fix>
</trkpt>
<trkpt lat="33.8103132" lon="-118.3938672">
  <ele>-0.122</ele>
  <time>2026-09-01T01:17:58Z</time>
  <course>186.32</course>
  <speed>0.01</speed>
  <fix>3d</fix>
</trkpt>
<trkpt lat="33.810313" lon="-118.393867">
  <ele>-0.12</ele>
  <time>2026-09-01T01:17:58Z</time>
  <course>0.0</course>
  <speed>0.0</speed>
  <fix>3d</fix>
</trkpt>
<trkpt lat="33.8103132" lon="-118.3938671">
  <ele>-0.123</ele>
  <time>2026-09-01T01:17:58Z</time>
  <course>186.32</course>
  <speed>0.01</speed>
  <fix>3d</fix>
</trkpt>
<trkpt lat="33.810313" lon="-118.393867">
  <ele>-0.12</ele>
  <time>2026-09-01T01:17:58Z</time>
  <course>0.0</course>
  <speed>0.0</speed>
  <fix>3d</fix>
</trkpt>
<trkpt lat="33.8103131" lon="-118.3938671">
  <ele>-0.123</ele>
  <time>2026-09-01T01:17:58Z</time>
  <course>186.32</course>
  <speed>0.01</speed>
  <fix>3d</fix>
</trkpt>
<trkpt lat="33.810313" lon="-118.393867">
  <ele>-0.12</ele>
  <time>2026-09-01T01:17:58Z</time>
  <course>0.0</course>
  <speed>0.0</speed>
  <fix>3d</fix>
</trkpt>
<trkpt lat="33.4361815" lon="-117.0837675">
  <ele>-0.11</ele>
  <time>2026-09-01T01:18:00Z</time>
  <course>0.0</course>
  <speed>0.0</speed>
  <fix>3d</fix>
</trkpt>
<trkpt lat="33.4361815" lon="-117.0837675">
  <ele>-0.11</ele>
  <time>2026-09-01T01:18:00Z</time>
  <course>0.0</course>
  <speed>0.0</speed>
  <fix>3d</fix>
</trkpt>
<trkpt lat="33.810313" lon="-118.393867">
  <ele>0.0</ele>
  <time>2026-09-01T01:18:00Z</time>
  <course>185.01</course>
  <speed>0.0</speed>
  <fix>3d</fix>
</trkpt>
<trkpt lat="33.810313" lon="-118.393867">
  <ele>-0.11</ele>
  <time>2026-09-01T01:18:00Z</time>
  <course>0.0</course>
  <speed>0.0</speed>
  <fix>3d</fix>
</trkpt>
<trkpt lat="33.810313" lon="-118.393867">
  <ele>0.0</ele>
  <time>2026-09-01T01:18:00Z</time>
  <course>185.01</course>
  <speed>0.0</speed>
  <fix>3d</fix>
</trkpt>
<trkpt lat="33.810313" lon="-118.393867">
  <ele>-0.11</ele>
  <time>2026-09-01T01:18:00Z</time>
  <course>0.0</course>
  <speed>0.0</speed>
  <fix>3d</fix>
</trkpt>
<trkpt lat="33.810313" lon="-118.393867">
  <ele>0.0</ele>
  <time>2026-09-01T01:18:00Z</time>
  <course>185.01</course>
  <speed>0.0</speed>
  <fix>3d</fix>
</trkpt>
<trkpt lat="33.810313" lon="-118.393867">
  <ele>-0.11</ele>
  <time>2026-09-01T01:18:00Z</time>
  <course>0.0</course>
  <speed>0.0</speed>
  <fix>3d</fix>
</trkpt>
<trkpt lat="33.810313" lon="-118.393867">
  <ele>0.0</ele>
  <time>2026-09-01T01:18:00Z</time>
  <course>185.01</course>
  <speed>0.0</speed>
  <fix>3d</fix>
</trkpt>
<trkpt lat="33.810313" lon="-118.393867">
  <ele>-0.11</ele>
  <time>2026-09-01T01:18:00Z</time>
  <course>0.0</course>
  <speed>0.0</speed>
  <fix>3d</fix>
</trkpt>
<trkpt lat="33.810313" lon="-118.393867">
  <ele>0.0</ele>
  <time>2026-09-01T01:18:00Z</time>
  <course>185.01</course>
  <speed>0.0</speed>
  <fix>3d</fix>
</trkpt>
<trkpt lat="33.810313" lon="-118.393867">
  <ele>-0.11</ele>
  <time>2026-09-01T01:18:00Z</time>
  <course>0.0</course>
  <speed>0.0</speed>
  <fix>3d</fix>
</trkpt>
<trkpt lat="33.810313" lon="-118.393867">
  <ele>0.0</ele>
  <time>2026-09-01T01:18:00Z</time>
  <course>185.01</course>
  <speed>0.0</speed>
  <fix>3d</fix>
</trkpt>
<trkpt lat="33.810313" lon="-118.393867">
  <ele>-0.11</ele>
  <time>2026-09-01T01:18:00Z</time>
  <course>0.0</course>
  <speed>0.0</speed>
  <fix>3d</fix>
</trkpt>
<trkpt lat="33.810313" lon="-118.393867">
  <ele>0.0</ele>
  <time>2026-09-01T01:18:00Z</time>
  <course>185.01</course>
  <speed>0.0</speed>
  <fix>3d</fix>
</trkpt>
<trkpt lat="33.810313" lon="-118.393867">
  <ele>-0.12</ele>
  <time>2026-09-01T01:18:00Z</time>
  <course>0.0</course>
  <speed>0.0</speed>
  <fix>3d</fix>
</trkpt>
<trkpt lat="33.810313" lon="-118.393867">
  <ele>0.0</ele>
  <time>2026-09-01T01:18:00Z</time>
  <course>185.01</course>
  <speed>0.0</speed>
  <fix>3d</fix>
</trkpt>
<trkpt lat="33.810313" lon="-118.393867">
  <ele>-0.12</ele>
  <time>2026-09-01T01:18:00Z</time>
  <course>0.0</course>
  <speed>0.0</speed>
  <fix>3d</fix>
</trkpt>
<trkpt lat="33.810313" lon="-118.393867">
  <ele>0.0</ele>
  <time>2026-09-01T01:18:00Z</time>
  <course>185.01</course>
  <speed>0.0</speed>
  <fix>3d</fix>
</trkpt>
<trkpt lat="33.810313" lon="-118.393867">
  <ele>-0.13</ele>
  <time>2026-09-01T01:18:00Z</time>
  <course>0.0</course>
  <speed>0.0</speed>
  <fix>3d</fix>
</trkpt>
<trkpt lat="33.810313" lon="-118.393867">
  <ele>0.0</ele>
  <time>2026-09-01T01:18:00Z</time>
  <course>185.01</course>
  <speed>0.0</speed>
  <fix>3d</fix>
</trkpt>
<trkpt lat="33.810313" lon="-118.393867">
  <ele>-0.13</ele>
  <time>2026-09-01T01:18:00Z</time>
  <course>0.0</course>
  <speed>0.0</speed>
  <fix>3d</fix>
</trkpt>
<trkpt lat="33.810313" lon="-118.393867">
  <ele>0.0</ele>
  <time>2026-09-01T01:18:00Z</time>
  <course>185.01</course>
  <speed>0.0</speed>
  <fix>3d</fix>
</trkpt>
<trkpt lat="33.810313" lon="-118.393867">
  <ele>-0.14</ele>
  <time>2026-09-01T01:18:00Z</time>
  <course>0.0</course>
  <speed>0.0</speed>
  <fix>3d</fix>
</trkpt>
<trkpt lat="33.810313" lon="-118.393867">
  <ele>0.0</ele>
  <time>2026-09-01T01:18:00Z</time>
  <course>185.01</course>
  <speed>0.0</speed>
  <fix>3d</fix>
</trkpt>
<trkpt lat="33.810313" lon="-118.393867">
  <ele>-0.14</ele>
  <time>2026-09-01T01:18:00Z</time>
  <course>0.0</course>
  <speed>0.0</speed>
  <fix>3d</fix>
</trkpt>
<trkpt lat="33.810313" lon="-118.393867">
  <ele>0.0</ele>
  <time>2026-09-01T01:18:00Z</time>
  <course>185.01</course>
  <speed>0.0</speed>
  <fix>3d</fix>
</trkpt>
<trkpt lat="33.810313" lon="-118.393867">
  <ele>-0.14</ele>
  <time>2026-09-01T01:18:00Z</time>
  <course>0.0</course>
  <speed>0.0</speed>
  <fix>3d</fix>
</trkpt>
<trkpt lat="33.810313" lon="-118.393867">
  <ele>0.0</ele>
  <time>2026-09-01T01:18:00Z</time>
  <course>185.01</course>
  <speed>0.0</speed>
  <fix>3d</fix>
</trkpt>
<trkpt lat="33.810313" lon="-118.393867">
  <ele>-0.14</ele>
  <time>2026-09-01T01:18:00Z</time>
  <course>0.0</course>
  <speed>0.0</speed>
  <fix>3d</fix>
</trkpt>
<trkpt lat="33.810313" lon="-118.393867">
  <ele>0.0</ele>
  <time>2026-09-01T01:18:00Z</time>
  <course>185.01</course>
  <speed>0.0</speed>
  <fix>3d</fix>
</trkpt>
<trkpt lat="33.810313" lon="-118.393867">
  <ele>-0.14</ele>
  <time>2026-09-01T01:18:00Z</time>
  <course>0.0</course>
  <speed>0.0</speed>
  <fix>3d</fix>
</trkpt>
<trkpt lat="33.810313" lon="-118.393867">
  <ele>0.0</ele>
  <time>2026-09-01T01:18:00Z</time>
  <course>185.01</course>
  <speed>0.0</speed>
  <fix>3d</fix>
</trkpt>
<trkpt lat="33.810313" lon="-118.393867">
  <ele>-0.14</ele>
  <time>2026-09-01T01:18:00Z</time>
  <course>0.0</course>
  <speed>0.0</speed>
  <fix>3d</fix>
</trkpt>
<trkpt lat="33.810313" lon="-118.393867">
  <ele>0.0</ele>
  <time>2026-09-01T01:18:00Z</time>
  <course>185.01</course>
  <speed>0.0</speed>
  <fix>3d</fix>
</trkpt>
<trkpt lat="33.810313" lon="-118.393867">
  <ele>-0.14</ele>
  <time>2026-09-01T01:18:00Z</time>
  <course>0.0</course>
  <speed>0.0</speed>
  <fix>3d</fix>
</trkpt>
<trkpt lat="33.810313" lon="-118.393867">
  <ele>0.0</ele>
  <time>2026-09-01T01:18:00Z</time>
  <course>185.01</course>
  <speed>0.0</speed>
  <fix>3d</fix>
</trkpt>
<trkpt lat="33.810313" lon="-118.393867">
  <ele>-0.14</ele>
  <time>2026-09-01T01:18:00Z</time>
  <course>0.0</course>
  <speed>0.0</speed>
  <fix>3d</fix>
</trkpt>
<trkpt lat="33.810313" lon="-118.393867">
  <ele>0.0</ele>
  <time>2026-09-01T01:18:00Z</time>
  <course>185.01</course>
  <speed>0.0</speed>
  <fix>3d</fix>
</trkpt>
<trkpt lat="33.810313" lon="-118.393867">
  <ele>-0.13</ele>
  <time>2026-09-01T01:18:00Z</time>
  <course>0.0</course>
  <speed>0.0</speed>
  <fix>3d</fix>
</trkpt>
<trkpt lat="33.810313" lon="-118.393867">
  <ele>0.0</ele>
  <time>2026-09-01T01:18:00Z</time>
  <course>185.01</course>
  <speed>0.0</speed>
  <fix>3d</fix>
</trkpt>
<trkpt lat="33.810313" lon="-118.393867">
  <ele>-0.13</ele>
  <time>2026-09-01T01:18:00Z</time>
  <course>0.0</course>
  <speed>0.0</speed>
  <fix>3d</fix>
</trkpt>
<trkpt lat="33.810313" lon="-118.393867">
  <ele>0.0</ele>
  <time>2026-09-01T01:18:00Z</time>
  <course>185.01</course>
  <speed>0.0</speed>
  <fix>3d</fix>
</trkpt>
<trkpt lat="33.810313" lon="-118.393867">
  <ele>-0.13</ele>
  <time>2026-09-01T01:18:00Z</time>
  <course>0.0</course>
  <speed>0.0</speed>
  <fix>3d</fix>
</trkpt>
<trkpt lat="33.810313" lon="-118.393867">
  <ele>0.0</ele>
  <time>2026-09-01T01:18:00Z</time>
  <course>185.01</course>
  <speed>0.0</speed>
  <fix>3d</fix>
</trkpt>
<trkpt lat="33.810313" lon="-118.393867">
  <ele>-0.13</ele>
  <time>2026-09-01T01:18:00Z</time>
  <course>0.0</course>
  <speed>0.0</speed>
  <fix>3d</fix>
</trkpt>
<trkpt lat="33.810313" lon="-118.393867">
  <ele>0.0</ele>
  <time>2026-09-01T01:18:00Z</time>
  <course>185.01</course>
  <speed>0.0</speed>
  <fix>3d</fix>
</trkpt>
<trkpt lat="33.810313" lon="-118.393867">
  <ele>-0.12</ele>
  <time>2026-09-01T01:18:00Z</time>
  <course>0.0</course>
  <speed>0.0</speed>
  <fix>3d</fix>
</trkpt>
<trkpt lat="33.810313" lon="-118.393867">
  <ele>0.0</ele>
  <time>2026-09-01T01:18:00Z</time>
  <course>185.01</course>
  <speed>0.0</speed>
  <fix>3d</fix>
</trkpt>
<trkpt lat="33.810313" lon="-118.393867">
  <ele>-0.12</ele>
  <time>2026-09-01T01:18:00Z</time>
  <course>0.0</course>
  <speed>0.0</speed>
  <fix>3d</fix>
</trkpt>
<trkpt lat="33.810313" lon="-118.393867">
  <ele>0.0</ele>
  <time>2026-09-01T01:18:00Z</time>
  <course>185.01</course>
  <speed>0.0</speed>
  <fix>3d</fix>
</trkpt>
<trkpt lat="33.810313" lon="-118.393867">
  <ele>-0.11</ele>
  <time>2026-09-01T01:18:00Z</time>
  <course>0.0</course>
  <speed>0.0</speed>
  <fix>3d</fix>
</trkpt>
<trkpt lat="33.810313" lon="-118.393867">
  <ele>0.0</ele>
  <time>2026-09-01T01:18:00Z</time>
  <course>185.01</course>
  <speed>0.0</speed>
  <fix>3d</fix>
</trkpt>
<trkpt lat="33.810313" lon="-118.393867">
  <ele>-0.11</ele>
  <time>2026-09-01T01:18:00Z</time>
  <course>0.0</course>
  <speed>0.0</speed>
  <fix>3d</fix>
</trkpt>
<trkpt lat="33.810313" lon="-118.393867">
  <ele>0.0</ele>
  <time>2026-09-01T01:18:00Z</time>
  <course>185.01</course>
  <speed>0.0</speed>
  <fix>3d</fix>
</trkpt>
<trkpt lat="33.810313" lon="-118.393867">
  <ele>-0.11</ele>
  <time>2026-09-01T01:18:00Z</time>
  <course>0.0</course>
  <speed>0.0</speed>
  <fix>3d</fix>
</trkpt>
<trkpt lat="33.810313" lon="-118.393867">
  <ele>0.0</ele>
  <time>2026-09-01T01:18:00Z</time>
  <course>185.01</course>
  <speed>0.0</speed>
  <fix>3d</fix>
</trkpt>
<trkpt lat="33.810313" lon="-118.393867">
  <ele>-0.11</ele>
  <time>2026-09-01T01:18:00Z</time>
  <course>0.0</course>
  <speed>0.0</speed>
  <fix>3d</fix>
</trkpt>
<trkpt lat="33.810313" lon="-118.393867">
  <ele>0.0</ele>
  <time>2026-09-01T01:18:00Z</time>
  <course>185.01</course>
  <speed>0.0</speed>
  <fix>3d</fix>
</trkpt>
<trkpt lat="33.810313" lon="-118.393867">
  <ele>-0.12</ele>
  <time>2026-09-01T01:18:00Z</time>
  <course>0.0</course>
  <speed>0.0</speed>
  <fix>3d</fix>
</trkpt>
<trkpt lat="33.810313" lon="-118.393867">
  <ele>0.0</ele>
  <time>2026-09-01T01:18:00Z</time>
  <course>185.01</course>
  <speed>0.0</speed>
  <fix>3d</fix>
</trkpt>
<trkpt lat="33.810313" lon="-118.393867">
  <ele>-0.12</ele>
  <time>2026-09-01T01:18:00Z</time>
  <course>0.0</course>
  <speed>0.0</speed>
  <fix>3d</fix>
</trkpt>
<trkpt lat="33.810313" lon="-118.393867">
  <ele>0.0</ele>
  <time>2026-09-01T01:18:00Z</time>
  <course>185.01</course>
  <speed>0.0</speed>
  <fix>3d</fix>
</trkpt>
<trkpt lat="33.810313" lon="-118.393867">
  <ele>-0.13</ele>
  <time>2026-09-01T01:18:00Z</time>
  <course>0.0</course>
  <speed>0.0</speed>
  <fix>3d</fix>
</trkpt>
<trkpt lat="33.810313" lon="-118.393867">
  <ele>0.0</ele>
  <time>2026-09-01T01:18:00Z</time>
  <course>185.01</course>
  <speed>0.0</speed>
  <fix>3d</fix>
</trkpt>
<trkpt lat="33.810313" lon="-118.393867">
  <ele>-0.13</ele>
  <time>2026-09-01T01:18:00Z</time>
  <course>0.0</course>
  <speed>0.0</speed>
  <fix>3d</fix>
</trkpt>
<trkpt lat="33.810313" lon="-118.393867">
  <ele>0.0</ele>
  <time>2026-09-01T01:18:00Z</time>
  <course>185.01</course>
  <speed>0.0</speed>
  <fix>3d</fix>
</trkpt>
<trkpt lat="33.810313" lon="-118.393867">
  <ele>-0.13</ele>
  <time>2026-09-01T01:18:00Z</time>
  <course>0.0</course>
  <speed>0.0</speed>
  <fix>3d</fix>
</trkpt>
<trkpt lat="33.810313" lon="-118.393867">
  <ele>0.0</ele>
  <time>2026-09-01T01:18:00Z</time>
  <course>185.01</course>
  <speed>0.0</speed>
  <fix>3d</fix>
</trkpt>
<trkpt lat="33.810313" lon="-118.393867">
  <ele>-0.13</ele>
  <time>2026-09-01T01:18:00Z</time>
  <course>0.0</course>
  <speed>0.0</speed>
  <fix>3d</fix>
</trkpt>
<trkpt lat="33.810313" lon="-118.393867">
  <ele>0.0</ele>
  <time>2026-09-01T01:18:00Z</time>
  <course>185.01</course>
  <speed>0.0</speed>
  <fix>3d</fix>
</trkpt>
<trkpt lat="33.810313" lon="-118.393867">
  <ele>-0.14</ele>
  <time>2026-09-01T01:18:00Z</time>
  <course>0.0</course>
  <speed>0.0</speed>
  <fix>3d</fix>
</trkpt>
<trkpt lat="33.810313" lon="-118.393867">
  <ele>0.0</ele>
  <time>2026-09-01T01:18:00Z</time>
  <course>185.01</course>
  <speed>0.0</speed>
  <fix>3d</fix>
</trkpt>
<trkpt lat="33.810313" lon="-118.393867">
  <ele>-0.14</ele>
  <time>2026-09-01T01:18:00Z</time>
  <course>0.0</course>
  <speed>0.0</speed>
  <fix>3d</fix>
</trkpt>
<trkpt lat="33.810313" lon="-118.393867">
  <ele>0.0</ele>
  <time>2026-09-01T01:18:00Z</time>
  <course>185.01</course>
  <speed>0.0</speed>
  <fix>3d</fix>
</trkpt>
<trkpt lat="33.810313" lon="-118.393867">
  <ele>-0.13</ele>
  <time>2026-09-01T01:18:00Z</time>
  <course>0.0</course>
  <speed>0.0</speed>
  <fix>3d</fix>
</trkpt>
<trkpt lat="33.810313" lon="-118.393867">
  <ele>0.0</ele>
  <time>2026-09-01T01:18:00Z</time>
  <course>185.01</course>
  <speed>0.0</speed>
  <fix>3d</fix>
</trkpt>
<trkpt lat="33.810313" lon="-118.393867">
  <ele>-0.13</ele>
  <time>2026-09-01T01:18:00Z</time>
  <course>0.0</course>
  <speed>0.0</speed>
  <fix>3d</fix>
</trkpt>
<trkpt lat="33.810313" lon="-118.393867">
  <ele>0.0</ele>
  <time>2026-09-01T01:18:00Z</time>
  <course>185.01</course>
  <speed>0.0</speed>
  <fix>3d</fix>
</trkpt>
<trkpt lat="33.810313" lon="-118.393867">
  <ele>-0.13</ele>
  <time>2026-09-01T01:18:00Z</time>
  <course>0.0</course>
  <speed>0.0</speed>
  <fix>3d</fix>
</trkpt>
<trkpt lat="33.810313" lon="-118.393867">
  <ele>0.0</ele>
  <time>2026-09-01T01:18:00Z</time>
  <course>185.01</course>
  <speed>0.0</speed>
  <fix>3d</fix>
</trkpt>
<trkpt lat="33.810313" lon="-118.393867">
  <ele>-0.13</ele>
  <time>2026-09-01T01:18:00Z</time>
  <course>0.0</course>
  <speed>0.0</speed>
  <fix>3d</fix>
</trkpt>
<trkpt lat="33.810313" lon="-118.393867">
  <ele>0.0</ele>
  <time>2026-09-01T01:18:00Z</time>
  <course>185.01</course>
  <speed>0.0</speed>
  <fix>3d</fix>
</trkpt>
<trkpt lat="33.810313" lon="-118.393867">
  <ele>-0.12</ele>
  <time>2026-09-01T01:18:00Z</time>
  <course>0.0</course>
  <speed>0.0</speed>
  <fix>3d</fix>
</trkpt>
<trkpt lat="33.810313" lon="-118.393867">
  <ele>0.0</ele>
  <time>2026-09-01T01:18:00Z</time>
  <course>185.01</course>
  <speed>0.0</speed>
  <fix>3d</fix>
</trkpt>
<trkpt lat="33.810313" lon="-118.393867">
  <ele>-0.12</ele>
  <time>2026-09-01T01:18:00Z</time>
  <course>0.0</course>
  <speed>0.0</speed>
  <fix>3d</fix>
</trkpt>
<trkpt lat="33.810313" lon="-118.393867">
  <ele>0.0</ele>
  <time>2026-09-01T01:18:00Z</time>
  <course>185.01</course>
  <speed>0.0</speed>
  <fix>3d</fix>
</trkpt>
<trkpt lat="33.810313" lon="-118.393867">
  <ele>-0.12</ele>
  <time>2026-09-01T01:18:00Z</time>
  <course>0.0</course>
  <speed>0.0</speed>
  <fix>3d</fix>
</trkpt>
<trkpt lat="33.810313" lon="-118.393867">
  <ele>0.0</ele>
  <time>2026-09-01T01:18:00Z</time>
  <course>185.01</course>
  <speed>0.0</speed>
  <fix>3d</fix>
</trkpt>
<trkpt lat="33.810313" lon="-118.393867">
  <ele>-0.12</ele>
  <time>2026-09-01T01:18:00Z</time>
  <course>0.0</course>
  <speed>0.0</speed>
  <fix>3d</fix>
</trkpt>
<trkpt lat="33.810313" lon="-118.393867">
  <ele>0.0</ele>
  <time>2026-09-01T01:18:00Z</time>
  <course>185.01</course>
  <speed>0.0</speed>
  <fix>3d</fix>
</trkpt>
<trkpt lat="33.810313" lon="-118.393867">
  <ele>-0.11</ele>
  <time>2026-09-01T01:18:00Z</time>
  <course>0.0</course>
  <speed>0.0</speed>
  <fix>3d</fix>
</trkpt>
<trkpt lat="33.810313" lon="-118.393867">
  <ele>0.0</ele>
  <time>2026-09-01T01:18:00Z</time>
  <course>185.01</course>
  <speed>0.0</speed>
  <fix>3d</fix>
</trkpt>
<trkpt lat="33.810313" lon="-118.393867">
  <ele>-0.11</ele>
  <time>2026-09-01T01:18:00Z</time>
  <course>0.0</course>
  <speed>0.0</speed>
  <fix>3d</fix>
</trkpt>
<trkpt lat="33.810313" lon="-118.393867">
  <ele>0.0</ele>
  <time>2026-09-01T01:18:00Z</time>
  <course>185.01</course>
  <speed>0.0</speed>
  <fix>3d</fix>
</trkpt>
<trkpt lat="33.810313" lon="-118.393867">
  <ele>-0.11</ele>
  <time>2026-09-01T01:18:00Z</time>
  <course>0.0</course>
  <speed>0.0</speed>
  <fix>3d</fix>
</trkpt>
<trkpt lat="33.810313" lon="-118.393867">
  <ele>0.0</ele>
  <time>2026-09-01T01:18:00Z</time>
  <course>185.01</course>
  <speed>0.0</speed>
  <fix>3d</fix>
</trkpt>
<trkpt lat="33.810313" lon="-118.393867">
  <ele>-0.11</ele>
  <time>2026-09-01T01:18:00Z</time>
  <course>0.0</course>
  <speed>0.0</speed>
  <fix>3d</fix>
</trkpt>
<trkpt lat="33.810313" lon="-118.393867">
  <ele>0.0</ele>
  <time>2026-09-01T01:18:00Z</time>
  <course>185.01</course>
  <speed>0.0</speed>
  <fix>3d</fix>
</trkpt>
<trkpt lat="33.810313" lon="-118.393867">
  <ele>-0.12</ele>
  <time>2026-09-01T01:18:00Z</time>
  <course>0.0</course>
  <speed>0.0</speed>
  <fix>3d</fix>
</trkpt>
<trkpt lat="33.810313" lon="-118.393867">
  <ele>0.0</ele>
  <time>2026-09-01T01:18:00Z</time>
  <course>185.01</course>
  <speed>0.0</speed>
  <fix>3d</fix>
</trkpt>
<trkpt lat="33.810313" lon="-118.393867">
  <ele>-0.12</ele>
  <time>2026-09-01T01:18:00Z</time>
  <course>0.0</course>
  <speed>0.0</speed>
  <fix>3d</fix>
</trkpt>
<trkpt lat="33.810313" lon="-118.393867">
  <ele>0.0</ele>
  <time>2026-09-01T01:18:00Z</time>
  <course>185.01</course>
  <speed>0.0</speed>
  <fix>3d</fix>
</trkpt>
<trkpt lat="33.810313" lon="-118.393867">
  <ele>-0.13</ele>
  <time>2026-09-01T01:18:00Z</time>
  <course>0.0</course>
  <speed>0.0</speed>
  <fix>3d</fix>
</trkpt>
<trkpt lat="33.810313" lon="-118.393867">
  <ele>0.0</ele>
  <time>2026-09-01T01:18:00Z</time>
  <course>185.01</course>
  <speed>0.0</speed>
  <fix>3d</fix>
</trkpt>
<trkpt lat="33.810313" lon="-118.393867">
  <ele>-0.13</ele>
  <time>2026-09-01T01:18:00Z</time>
  <course>0.0</course>
  <speed>0.0</speed>
  <fix>3d</fix>
</trkpt>
<trkpt lat="33.810313" lon="-118.393867">
  <ele>0.0</ele>
  <time>2026-09-01T01:18:00Z</time>
  <course>185.01</course>
  <speed>0.0</speed>
  <fix>3d</fix>
</trkpt>
<trkpt lat="33.810313" lon="-118.393867">
  <ele>-0.13</ele>
  <time>2026-09-01T01:18:00Z</time>
  <course>0.0</course>
  <speed>0.0</speed>
  <fix>3d</fix>
</trkpt>
<trkpt lat="33.810313" lon="-118.393867">
  <ele>0.0</ele>
  <time>2026-09-01T01:18:00Z</time>
  <course>185.01</course>
  <speed>0.0</speed>
  <fix>3d</fix>
</trkpt>
<trkpt lat="33.810313" lon="-118.393867">
  <ele>-0.13</ele>
  <time>2026-09-01T01:18:00Z</time>
  <course>0.0</course>
  <speed>0.0</speed>
  <fix>3d</fix>
</trkpt>
<trkpt lat="33.810313" lon="-118.393867">
  <ele>0.0</ele>
  <time>2026-09-01T01:18:00Z</time>
  <course>185.01</course>
  <speed>0.0</speed>
  <fix>3d</fix>
</trkpt>
<trkpt lat="33.810313" lon="-118.393867">
  <ele>-0.13</ele>
  <time>2026-09-01T01:18:00Z</time>
  <course>0.0</course>
  <speed>0.0</speed>
  <fix>3d</fix>
</trkpt>
<trkpt lat="33.810313" lon="-118.393867">
  <ele>0.0</ele>
  <time>2026-09-01T01:18:00Z</time>
  <course>185.01</course>
  <speed>0.0</speed>
  <fix>3d</fix>
</trkpt>
<trkpt lat="33.810313" lon="-118.393867">
  <ele>-0.13</ele>
  <time>2026-09-01T01:18:00Z</time>
  <course>0.0</course>
  <speed>0.0</speed>
  <fix>3d</fix>
</trkpt>
<trkpt lat="33.810313" lon="-118.393867">
  <ele>0.0</ele>
  <time>2026-09-01T01:18:00Z</time>
  <course>185.01</course>
  <speed>0.0</speed>
  <fix>3d</fix>
</trkpt>
<trkpt lat="33.810313" lon="-118.393867">
  <ele>-0.13</ele>
  <time>2026-09-01T01:18:00Z</time>
  <course>0.0</course>
  <speed>0.0</speed>
  <fix>3d</fix>
</trkpt>
<trkpt lat="33.810313" lon="-118.393867">
  <ele>0.0</ele>
  <time>2026-09-01T01:18:00Z</time>
  <course>185.01</course>
  <speed>0.0</speed>
  <fix>3d</fix>
</trkpt>
<trkpt lat="33.810313" lon="-118.393867">
  <ele>-0.13</ele>
  <time>2026-09-01T01:18:00Z</time>
  <course>0.0</course>
  <speed>0.0</speed>
  <fix>3d</fix>
</trkpt>
<trkpt lat="33.810313" lon="-118.393867">
  <ele>0.0</ele>
  <time>2026-09-01T01:18:00Z</time>
  <course>185.01</course>
  <speed>0.0</speed>
  <fix>3d</fix>
</trkpt>
<trkpt lat="33.810313" lon="-118.393867">
  <ele>-0.12</ele>
  <time>2026-09-01T01:18:00Z</time>
  <course>0.0</course>
  <speed>0.0</speed>
  <fix>3d</fix>
</trkpt>
<trkpt lat="33.810313" lon="-118.393867">
  <ele>0.0</ele>
  <time>2026-09-01T01:18:00Z</time>
  <course>185.01</course>
  <speed>0.0</speed>
  <fix>3d</fix>
</trkpt>
<trkpt lat="33.810313" lon="-118.393867">
  <ele>-0.12</ele>
  <time>2026-09-01T01:18:00Z</time>
  <course>0.0</course>
  <speed>0.0</speed>
  <fix>3d</fix>
</trkpt>
<trkpt lat="33.810313" lon="-118.393867">
  <ele>0.0</ele>
  <time>2026-09-01T01:18:00Z</time>
  <course>185.01</course>
  <speed>0.0</speed>
  <fix>3d</fix>
</trkpt>
<trkpt lat="33.810313" lon="-118.393867">
  <ele>-0.12</ele>
  <time>2026-09-01T01:18:00Z</time>
  <course>0.0</course>
  <speed>0.0</speed>
  <fix>3d</fix>
</trkpt>
<trkpt lat="33.810313" lon="-118.393867">
  <ele>0.0</ele>
  <time>2026-09-01T01:18:00Z</time>
  <course>185.01</course>
  <speed>0.0</speed>
  <fix>3d</fix>
</trkpt>
<trkpt lat="33.810313" lon="-118.393867">
  <ele>-0.12</ele>
  <time>2026-09-01T01:18:00Z</time>
  <course>0.0</course>
  <speed>0.0</speed>
  <fix>3d</fix>
</trkpt>
<trkpt lat="33.810313" lon="-118.393867">
  <ele>0.0</ele>
  <time>2026-09-01T01:18:00Z</time>
  <course>185.01</course>
  <speed>0.0</speed>
  <fix>3d</fix>
</trkpt>
<trkpt lat="33.810313" lon="-118.393867">
  <ele>-0.12</ele>
  <time>2026-09-01T01:18:00Z</time>
  <course>0.0</course>
  <speed>0.0</speed>
  <fix>3d</fix>
</trkpt>
<trkpt lat="33.810313" lon="-118.393867">
  <ele>0.0</ele>
  <time>2026-09-01T01:18:00Z</time>
  <course>185.01</course>
  <speed>0.0</speed>
  <fix>3d</fix>
</trkpt>
<trkpt lat="33.810313" lon="-118.393867">
  <ele>-0.12</ele>
  <time>2026-09-01T01:18:00Z</time>
  <course>0.0</course>
  <speed>0.0</speed>
  <fix>3d</fix>
</trkpt>
<trkpt lat="33.810313" lon="-118.393867">
  <ele>0.0</ele>
  <time>2026-09-01T01:18:00Z</time>
  <course>185.01</course>
  <speed>0.0</speed>
  <fix>3d</fix>
</trkpt>
<trkpt lat="33.810313" lon="-118.393867">
  <ele>-0.12</ele>
  <time>2026-09-01T01:18:00Z</time>
  <course>0.0</course>
  <speed>0.0</speed>
  <fix>3d</fix>
</trkpt>
<trkpt lat="33.810313" lon="-118.393867">
  <ele>0.0</ele>
  <time>2026-09-01T01:18:00Z</time>
  <course>185.01</course>
  <speed>0.0</speed>
  <fix>3d</fix>
</trkpt>
<trkpt lat="33.810313" lon="-118.393867">
  <ele>-0.12</ele>
  <time>2026-09-01T01:18:00Z</time>
  <course>0.0</course>
  <speed>0.0</speed>
  <fix>3d</fix>
</trkpt>
<trkpt lat="33.810313" lon="-118.393867">
  <ele>0.0</ele>
  <time>2026-09-01T01:18:00Z</time>
  <course>185.01</course>
  <speed>0.0</speed>
  <fix>3d</fix>
</trkpt>
<trkpt lat="33.810313" lon="-118.393867">
  <ele>-0.12</ele>
  <time>2026-09-01T01:18:00Z</time>
  <course>0.0</course>
  <speed>0.0</speed>
  <fix>3d</fix>
</trkpt>
<trkpt lat="33.810313" lon="-118.393867">
  <ele>0.0</ele>
  <time>2026-09-01T01:18:00Z</time>
  <course>185.01</course>
  <speed>0.0</speed>
  <fix>3d</fix>
</trkpt>
<trkpt lat="33.810313" lon="-118.393867">
  <ele>-0.12</ele>
  <time>2026-09-01T01:18:00Z</time>
  <course>0.0</course>
  <speed>0.0</speed>
  <fix>3d</fix>
</trkpt>
<trkpt lat="33.810313" lon="-118.393867">
  <ele>0.0</ele>
  <time>2026-09-01T01:18:00Z</time>
  <course>185.01</course>
  <speed>0.0</speed>
  <fix>3d</fix>
</trkpt>
<trkpt lat="33.810313" lon="-118.393867">
  <ele>-0.13</ele>
  <time>2026-09-01T01:18:00Z</time>
  <course>0.0</course>
  <speed>0.0</speed>
  <fix>3d</fix>
</trkpt>
<trkpt lat="33.810313" lon="-118.393867">
  <ele>0.0</ele>
  <time>2026-09-01T01:18:00Z</time>
  <course>185.01</course>
  <speed>0.0</speed>
  <fix>3d</fix>
</trkpt>
<trkpt lat="33.810313" lon="-118.393867">
  <ele>-0.13</ele>
  <time>2026-09-01T01:18:00Z</time>
  <course>0.0</course>
  <speed>0.0</speed>
  <fix>3d</fix>
</trkpt>
<trkpt lat="33.810313" lon="-118.393867">
  <ele>0.0</ele>
  <time>2026-09-01T01:18:00Z</time>
  <course>185.01</course>
  <speed>0.0</speed>
  <fix>3d</fix>
</trkpt>
<trkpt lat="33.810313" lon="-118.393867">
  <ele>-0.13</ele>
  <time>2026-09-01T01:18:00Z</time>
  <course>0.0</course>
  <speed>0.0</speed>
  <fix>3d</fix>
</trkpt>
<trkpt lat="33.810313" lon="-118.393867">
  <ele>0.0</ele>
  <time>2026-09-01T01:18:00Z</time>
  <course>185.01</course>
  <speed>0.0</speed>
  <fix>3d</fix>
</trkpt>
<trkpt lat="33.810313" lon="-118.393867">
  <ele>-0.13</ele>
  <time>2026-09-01T01:18:00Z</time>
  <course>0.0</course>
  <speed>0.0</speed>
  <fix>3d</fix>
</trkpt>
<trkpt lat="33.810313" lon="-118.393867">
  <ele>0.0</ele>
  <time>2026-09-01T01:18:00Z</time>
  <course>185.01</course>
  <speed>0.0</speed>
  <fix>3d</fix>
</trkpt>
<trkpt lat="33.810313" lon="-118.393867">
  <ele>-0.13</ele>
  <time>2026-09-01T01:18:00Z</time>
  <course>0.0</course>
  <speed>0.0</speed>
  <fix>3d</fix>
</trkpt>
<trkpt lat="33.810313" lon="-118.393867">
  <ele>0.0</ele>
  <time>2026-09-01T01:18:00Z</time>
  <course>185.02</course>
  <speed>0.0</speed>
  <fix>3d</fix>
</trkpt>
<trkpt lat="33.810313" lon="-118.393867">
  <ele>-0.13</ele>
  <time>2026-09-01T01:18:00Z</time>
  <course>0.0</course>
  <speed>0.0</speed>
  <fix>3d</fix>
</trkpt>
<trkpt lat="33.810313" lon="-118.393867">
  <ele>0.0</ele>
  <time>2026-09-01T01:18:00Z</time>
  <course>185.02</course>
  <speed>0.0</speed>
  <fix>3d</fix>
</trkpt>
<trkpt lat="33.810313" lon="-118.393867">
  <ele>-0.12</ele>
  <time>2026-09-01T01:18:00Z</time>
  <course>0.0</course>
  <speed>0.0</speed>
  <fix>3d</fix>
</trkpt>
<trkpt lat="33.810313" lon="-118.393867">
  <ele>0.0</ele>
  <time>2026-09-01T01:18:00Z</time>
  <course>185.02</course>
  <speed>0.0</speed>
  <fix>3d</fix>
</trkpt>
<trkpt lat="33.810313" lon="-118.393867">
  <ele>-0.12</ele>
  <time>2026-09-01T01:18:00Z</time>
  <course>0.0</course>
  <speed>0.0</speed>
  <fix>3d</fix>
</trkpt>
<trkpt lat="33.810313" lon="-118.393867">
  <ele>0.0</ele>
  <time>2026-09-01T01:18:00Z</time>
  <course>185.02</course>
  <speed>0.0</speed>
  <fix>3d</fix>
</trkpt>
<trkpt lat="33.810313" lon="-118.393867">
  <ele>-0.12</ele>
  <time>2026-09-01T01:18:00Z</time>
  <course>0.0</course>
  <speed>0.0</speed>
  <fix>3d</fix>
</trkpt>
<trkpt lat="33.810313" lon="-118.393867">
  <ele>0.0</ele>
  <time>2026-09-01T01:18:00Z</time>
  <course>185.02</course>
  <speed>0.0</speed>
  <fix>3d</fix>
</trkpt>
<trkpt lat="33.810313" lon="-118.393867">
  <ele>-0.12</ele>
  <time>2026-09-01T01:18:00Z</time>
  <course>0.0</course>
  <speed>0.0</speed>
  <fix>3d</fix>
</trkpt>
<trkpt lat="33.810313" lon="-118.393867">
  <ele>0.0</ele>
  <time>2026-09-01T01:18:00Z</time>
  <course>185.02</course>
  <speed>0.0</speed>
  <fix>3d</fix>
</trkpt>
<trkpt lat="33.810313" lon="-118.393867">
  <ele>-0.12</ele>
  <time>2026-09-01T01:18:00Z</time>
  <course>0.0</course>
  <speed>0.0</speed>
  <fix>3d</fix>
</trkpt>
<trkpt lat="33.810313" lon="-118.393867">
  <ele>0.0</ele>
  <time>2026-09-01T01:18:00Z</time>
  <course>185.02</course>
  <speed>0.0</speed>
  <fix>3d</fix>
</trkpt>
<trkpt lat="33.810313" lon="-118.393867">
  <ele>-0.12</ele>
  <time>2026-09-01T01:18:00Z</time>
  <course>0.0</course>
  <speed>0.0</speed>
  <fix>3d</fix>
</trkpt>
<trkpt lat="33.810313" lon="-118.393867">
  <ele>0.0</ele>
  <time>2026-09-01T01:18:00Z</time>
  <course>185.02</course>
  <speed>0.0</speed>
  <fix>3d</fix>
</trkpt>
<trkpt lat="33.810313" lon="-118.393867">
  <ele>-0.12</ele>
  <time>2026-09-01T01:18:00Z</time>
  <course>0.0</course>
  <speed>0.0</speed>
  <fix>3d</fix>
</trkpt>
<trkpt lat="33.810313" lon="-118.393867">
  <ele>0.0</ele>
  <time>2026-09-01T01:18:00Z</time>
  <course>185.02</course>
  <speed>0.0</speed>
  <fix>3d</fix>
</trkpt>
<trkpt lat="33.810313" lon="-118.393867">
  <ele>-0.12</ele>
  <time>2026-09-01T01:18:00Z</time>
  <course>0.0</course>
  <speed>0.0</speed>
  <fix>3d</fix>
</trkpt>
<trkpt lat="33.810313" lon="-118.393867">
  <ele>0.0</ele>
  <time>2026-09-01T01:18:00Z</time>
  <course>185.02</course>
  <speed>0.0</speed>
  <fix>3d</fix>
</trkpt>
<trkpt lat="33.810313" lon="-118.393867">
  <ele>-0.12</ele>
  <time>2026-09-01T01:18:00Z</time>
  <course>0.0</course>
  <speed>0.0</speed>
  <fix>3d</fix>
</trkpt>
<trkpt lat="33.810313" lon="-118.393867">
  <ele>0.0</ele>
  <time>2026-09-01T01:18:00Z</time>
  <course>185.02</course>
  <speed>0.0</speed>
  <fix>3d</fix>
</trkpt>
<trkpt lat="33.810313" lon="-118.393867">
  <ele>-0.12</ele>
  <time>2026-09-01T01:18:00Z</time>
  <course>0.0</course>
  <speed>0.0</speed>
  <fix>3d</fix>
</trkpt>
<trkpt lat="33.810313" lon="-118.393867">
  <ele>0.0</ele>
  <time>2026-09-01T01:18:00Z</time>
  <course>185.02</course>
  <speed>0.0</speed>
  <fix>3d</fix>
</trkpt>
<trkpt lat="33.810313" lon="-118.393867">
  <ele>-0.13</ele>
  <time>2026-09-01T01:18:00Z</time>
  <course>0.0</course>
  <speed>0.0</speed>
  <fix>3d</fix>
</trkpt>
<trkpt lat="33.810313" lon="-118.393867">
  <ele>0.0</ele>
  <time>2026-09-01T01:18:00Z</time>
  <course>185.02</course>
  <speed>0.0</speed>
  <fix>3d</fix>
</trkpt>
<trkpt lat="33.810313" lon="-118.393867">
  <ele>-0.13</ele>
  <time>2026-09-01T01:18:00Z</time>
  <course>0.0</course>
  <speed>0.0</speed>
  <fix>3d</fix>
</trkpt>
<trkpt lat="33.810313" lon="-118.393867">
  <ele>0.0</ele>
  <time>2026-09-01T01:18:00Z</time>
  <course>185.02</course>
  <speed>0.0</speed>
  <fix>3d</fix>
</trkpt>
<trkpt lat="33.810313" lon="-118.393867">
  <ele>-0.13</ele>
  <time>2026-09-01T01:18:00Z</time>
  <course>0.0</course>
  <speed>0.0</speed>
  <fix>3d</fix>
</trkpt>
<trkpt lat="33.810313" lon="-118.393867">
  <ele>0.0</ele>
  <time>2026-09-01T01:18:00Z</time>
  <course>185.02</course>
  <speed>0.0</speed>
  <fix>3d</fix>
</trkpt>
<trkpt lat="33.810313" lon="-118.393867">
  <ele>-0.13</ele>
  <time>2026-09-01T01:18:00Z</time>
  <course>0.0</course>
  <speed>0.0</speed>
  <fix>3d</fix>
</trkpt>
<trkpt lat="33.810313" lon="-118.393867">
  <ele>0.0</ele>
  <time>2026-09-01T01:18:00Z</time>
  <course>185.02</course>
  <speed>0.0</speed>
  <fix>3d</fix>
</trkpt>
<trkpt lat="33.810313" lon="-118.393867">
  <ele>-0.13</ele>
  <time>2026-09-01T01:18:00Z</time>
  <course>0.0</course>
  <speed>0.0</speed>
  <fix>3d</fix>
</trkpt>
<trkpt lat="33.810313" lon="-118.393867">
  <ele>0.0</ele>
  <time>2026-09-01T01:18:00Z</time>
  <course>185.02</course>
  <speed>0.0</speed>
  <fix>3d</fix>
</trkpt>
<trkpt lat="33.810313" lon="-118.393867">
  <ele>-0.13</ele>
  <time>2026-09-01T01:18:00Z</time>
  <course>0.0</course>
  <speed>0.0</speed>
  <fix>3d</fix>
</trkpt>
<trkpt lat="33.810313" lon="-118.393867">
  <ele>0.0</ele>
  <time>2026-09-01T01:18:00Z</time>
  <course>185.02</course>
  <speed>0.0</speed>
  <fix>3d</fix>
</trkpt>
<trkpt lat="33.810313" lon="-118.393867">
  <ele>-0.12</ele>
  <time>2026-09-01T01:18:00Z</time>
  <course>0.0</course>
  <speed>0.0</speed>
  <fix>3d</fix>
</trkpt>
<trkpt lat="33.810313" lon="-118.393867">
  <ele>0.0</ele>
  <time>2026-09-01T01:18:00Z</time>
  <course>185.02</course>
  <speed>0.0</speed>
  <fix>3d</fix>
</trkpt>
<trkpt lat="33.810313" lon="-118.393867">
  <ele>-0.12</ele>
  <time>2026-09-01T01:18:00Z</time>
  <course>0.0</course>
  <speed>0.0</speed>
  <fix>3d</fix>
</trkpt>
<trkpt lat="33.810313" lon="-118.393867">
  <ele>0.0</ele>
  <time>2026-09-01T01:18:00Z</time>
  <course>185.02</course>
  <speed>0.0</speed>
  <fix>3d</fix>
</trkpt>
<trkpt lat="33.810313" lon="-118.393867">
  <ele>-0.12</ele>
  <time>2026-09-01T01:18:00Z</time>
  <course>0.0</course>
  <speed>0.0</speed>
  <fix>3d</fix>
</trkpt>
<trkpt lat="33.810313" lon="-118.393867">
  <ele>0.0</ele>
  <time>2026-09-01T01:18:00Z</time>
  <course>185.02</course>
  <speed>0.0</speed>
  <fix>3d</fix>
</trkpt>
<trkpt lat="33.810313" lon="-118.393867">
  <ele>-0.12</ele>
  <time>2026-09-01T01:18:00Z</time>
  <course>0.0</course>
  <speed>0.0</speed>
  <fix>3d</fix>
</trkpt>
<trkpt lat="33.810313" lon="-118.393867">
  <ele>0.0</ele>
  <time>2026-09-01T01:18:00Z</time>
  <course>185.02</course>
  <speed>0.0</speed>
  <fix>3d</fix>
</trkpt>
<trkpt lat="33.810313" lon="-118.393867">
  <ele>-0.12</ele>
  <time>2026-09-01T01:18:00Z</time>
  <course>0.0</course>
  <speed>0.0</speed>
  <fix>3d</fix>
</trkpt>
<trkpt lat="33.810313" lon="-118.393867">
  <ele>0.0</ele>
  <time>2026-09-01T01:18:00Z</time>
  <course>185.02</course>
  <speed>0.0</speed>
  <fix>3d</fix>
</trkpt>
<trkpt lat="33.810313" lon="-118.393867">
  <ele>-0.12</ele>
  <time>2026-09-01T01:18:00Z</time>
  <course>0.0</course>
  <speed>0.0</speed>
  <fix>3d</fix>
</trkpt>
<trkpt lat="33.810313" lon="-118.393867">
  <ele>0.0</ele>
  <time>2026-09-01T01:18:00Z</time>
  <course>185.02</course>
  <speed>0.0</speed>
  <fix>3d</fix>
</trkpt>
<trkpt lat="33.810313" lon="-118.393867">
  <ele>-0.12</ele>
  <time>2026-09-01T01:18:00Z</time>
  <course>0.0</course>
  <speed>0.0</speed>
  <fix>3d</fix>
</trkpt>
<trkpt lat="33.810313" lon="-118.393867">
  <ele>0.0</ele>
  <time>2026-09-01T01:18:00Z</time>
  <course>185.02</course>
  <speed>0.0</speed>
  <fix>3d</fix>
</trkpt>
<trkpt lat="33.810313" lon="-118.393867">
  <ele>-0.12</ele>
  <time>2026-09-01T01:18:00Z</time>
  <course>0.0</course>
  <speed>0.0</speed>
  <fix>3d</fix>
</trkpt>
<trkpt lat="33.810313" lon="-118.393867">
  <ele>0.0</ele>
  <time>2026-09-01T01:18:00Z</time>
  <course>185.02</course>
  <speed>0.0</speed>
  <fix>3d</fix>
</trkpt>
<trkpt lat="33.810313" lon="-118.393867">
  <ele>-0.12</ele>
  <time>2026-09-01T01:18:00Z</time>
  <course>0.0</course>
  <speed>0.0</speed>
  <fix>3d</fix>
</trkpt>
<trkpt lat="33.810313" lon="-118.393867">
  <ele>0.0</ele>
  <time>2026-09-01T01:18:00Z</time>
  <course>185.02</course>
  <speed>0.0</speed>
  <fix>3d</fix>
</trkpt>
<trkpt lat="33.810313" lon="-118.393867">
  <ele>-0.12</ele>
  <time>2026-09-01T01:18:00Z</time>
  <course>0.0</course>
  <speed>0.0</speed>
  <fix>3d</fix>
</trkpt>
<trkpt lat="33.810313" lon="-118.393867">
  <ele>0.0</ele>
  <time>2026-09-01T01:18:00Z</time>
  <course>185.02</course>
  <speed>0.0</speed>
  <fix>3d</fix>
</trkpt>
<trkpt lat="33.810313" lon="-118.393867">
  <ele>-0.13</ele>
  <time>2026-09-01T01:18:00Z</time>
  <course>0.0</course>
  <speed>0.0</speed>
  <fix>3d</fix>
</trkpt>
<trkpt lat="33.810313" lon="-118.393867">
  <ele>0.0</ele>
  <time>2026-09-01T01:18:00Z</time>
  <course>185.02</course>
  <speed>0.0</speed>
  <fix>3d</fix>
</trkpt>
<trkpt lat="33.810313" lon="-118.393867">
  <ele>-0.13</ele>
  <time>2026-09-01T01:18:00Z</time>
  <course>0.0</course>
  <speed>0.0</speed>
  <fix>3d</fix>
</trkpt>
<trkpt lat="33.810313" lon="-118.393867">
  <ele>-0.123</ele>
  <time>2026-09-01T01:18:00Z</time>
  <course>185.02</course>
  <speed>0.0</speed>
  <fix>3d</fix>
</trkpt>
<trkpt lat="33.810313" lon="-118.393867">
  <ele>-0.13</ele>
  <time>2026-09-01T01:18:00Z</time>
  <course>0.0</course>
  <speed>0.0</speed>
  <fix>3d</fix>
</trkpt>
<trkpt lat="33.810313" lon="-118.393867">
  <ele>-0.12</ele>
  <time>2026-09-01T01:18:00Z</time>
  <course>185.02</course>
  <speed>0.0</speed>
  <fix>3d</fix>
</trkpt>
<trkpt lat="33.810313" lon="-118.393867">
  <ele>-0.13</ele>
  <time>2026-09-01T01:18:00Z</time>
  <course>0.0</course>
  <speed>0.0</speed>
  <fix>3d</fix>
</trkpt>
<trkpt lat="33.810313" lon="-118.393867">
  <ele>-0.117</ele>
  <time>2026-09-01T01:18:00Z</time>
  <course>185.02</course>
  <speed>0.0</speed>
  <fix>3d</fix>
</trkpt>
<trkpt lat="33.810313" lon="-118.393867">
  <ele>-0.12</ele>
  <time>2026-09-01T01:18:00Z</time>
  <course>0.0</course>
  <speed>0.0</speed>
  <fix>3d</fix>
</trkpt>
<trkpt lat="33.810313" lon="-118.393867">
  <ele>-0.113</ele>
  <time>2026-09-01T01:18:00Z</time>
  <course>185.02</course>
  <speed>0.0</speed>
  <fix>3d</fix>
</trkpt>
<trkpt lat="33.810313" lon="-118.393867">
  <ele>-0.12</ele>
  <time>2026-09-01T01:18:00Z</time>
  <course>0.0</course>
  <speed>0.0</speed>
  <fix>3d</fix>
</trkpt>
<trkpt lat="33.810313" lon="-118.393867">
  <ele>-0.11</ele>
  <time>2026-09-01T01:18:00Z</time>
  <course>185.02</course>
  <speed>0.0</speed>
  <fix>3d</fix>
</trkpt>
<trkpt lat="33.810313" lon="-118.393867">
  <ele>-0.12</ele>
  <time>2026-09-01T01:18:00Z</time>
  <course>0.0</course>
  <speed>0.0</speed>
  <fix>3d</fix>
</trkpt>
<trkpt lat="33.810313" lon="-118.393867">
  <ele>-0.111</ele>
  <time>2026-09-01T01:18:00Z</time>
  <course>185.02</course>
  <speed>0.0</speed>
  <fix>3d</fix>
</trkpt>
<trkpt lat="33.810313" lon="-118.393867">
  <ele>-0.12</ele>
  <time>2026-09-01T01:18:00Z</time>
  <course>0.0</course>
  <speed>0.0</speed>
  <fix>3d</fix>
</trkpt>
<trkpt lat="33.810313" lon="-118.393867">
  <ele>-0.113</ele>
  <time>2026-09-01T01:18:00Z</time>
  <course>185.02</course>
  <speed>0.0</speed>
  <fix>3d</fix>
</trkpt>
<trkpt lat="33.810313" lon="-118.393867">
  <ele>-0.12</ele>
  <time>2026-09-01T01:18:00Z</time>
  <course>0.0</course>
  <speed>0.0</speed>
  <fix>3d</fix>
</trkpt>
<trkpt lat="33.810313" lon="-118.393867">
  <ele>-0.117</ele>
  <time>2026-09-01T01:18:00Z</time>
  <course>185.02</course>
  <speed>0.0</speed>
  <fix>3d</fix>
</trkpt>
<trkpt lat="33.810313" lon="-118.393867">
  <ele>-0.12</ele>
  <time>2026-09-01T01:18:00Z</time>
  <course>0.0</course>
  <speed>0.0</speed>
  <fix>3d</fix>
</trkpt>
<trkpt lat="33.810313" lon="-118.393867">
  <ele>-0.121</ele>
  <time>2026-09-01T01:18:00Z</time>
  <course>185.02</course>
  <speed>0.0</speed>
  <fix>3d</fix>
</trkpt>
<trkpt lat="33.810313" lon="-118.393867">
  <ele>-0.12</ele>
  <time>2026-09-01T01:18:00Z</time>
  <course>0.0</course>
  <speed>0.0</speed>
  <fix>3d</fix>
</trkpt>
<trkpt lat="33.810313" lon="-118.393867">
  <ele>-0.122</ele>
  <time>2026-09-01T01:18:00Z</time>
  <course>185.02</course>
  <speed>0.0</speed>
  <fix>3d</fix>
</trkpt>
<trkpt lat="33.810313" lon="-118.393867">
  <ele>-0.12</ele>
  <time>2026-09-01T01:18:00Z</time>
  <course>0.0</course>
  <speed>0.0</speed>
  <fix>3d</fix>
</trkpt>
<trkpt lat="33.810313" lon="-118.393867">
  <ele>-0.123</ele>
  <time>2026-09-01T01:18:00Z</time>
  <course>185.02</course>
  <speed>0.0</speed>
  <fix>3d</fix>
</trkpt>
<trkpt lat="33.810313" lon="-118.393867">
  <ele>-0.12</ele>
  <time>2026-09-01T01:18:00Z</time>
  <course>0.0</course>
  <speed>0.0</speed>
  <fix>3d</fix>
</trkpt>
<trkpt lat="33.810313" lon="-118.393867">
  <ele>-0.122</ele>
  <time>2026-09-01T01:18:00Z</time>
  <course>185.03</course>
  <speed>0.0</speed>
  <fix>3d</fix>
</trkpt>
<trkpt lat="33.810313" lon="-118.393867">
  <ele>-0.12</ele>
  <time>2026-09-01T01:18:00Z</time>
  <course>0.0</course>
  <speed>0.0</speed>
  <fix>3d</fix>
</trkpt>
<trkpt lat="33.810313" lon="-118.393867">
  <ele>-0.122</ele>
  <time>2026-09-01T01:18:00Z</time>
  <course>185.03</course>
  <speed>0.0</speed>
  <fix>3d</fix>
</trkpt>
<trkpt lat="33.810313" lon="-118.393867">
  <ele>-0.12</ele>
  <time>2026-09-01T01:18:00Z</time>
  <course>0.0</course>
  <speed>0.0</speed>
  <fix>3d</fix>
</trkpt>
<trkpt lat="33.810313" lon="-118.393867">
  <ele>-0.12</ele>
  <time>2026-09-01T01:18:00Z</time>
  <course>185.03</course>
  <speed>0.0</speed>
  <fix>3d</fix>
</trkpt>
<trkpt lat="33.810313" lon="-118.393867">
  <ele>-0.12</ele>
  <time>2026-09-01T01:18:00Z</time>
  <course>0.0</course>
  <speed>0.0</speed>
  <fix>3d</fix>
</trkpt>
<trkpt lat="33.810313" lon="-118.393867">
  <ele>-0.119</ele>
  <time>2026-09-01T01:18:00Z</time>
  <course>185.03</course>
  <speed>0.0</speed>
  <fix>3d</fix>
</trkpt>
<trkpt lat="33.810313" lon="-118.393867">
  <ele>-0.13</ele>
  <time>2026-09-01T01:18:00Z</time>
  <course>0.0</course>
  <speed>0.0</speed>
  <fix>3d</fix>
</trkpt>
<trkpt lat="33.810313" lon="-118.393867">
  <ele>-0.118</ele>
  <time>2026-09-01T01:18:00Z</time>
  <course>185.03</course>
  <speed>0.0</speed>
  <fix>3d</fix>
</trkpt>
<trkpt lat="33.810313" lon="-118.393867">
  <ele>-0.13</ele>
  <time>2026-09-01T01:18:00Z</time>
  <course>0.0</course>
  <speed>0.0</speed>
  <fix>3d</fix>
</trkpt>
<trkpt lat="33.810313" lon="-118.393867">
  <ele>-0.115</ele>
  <time>2026-09-01T01:18:00Z</time>
  <course>185.03</course>
  <speed>0.0</speed>
  <fix>3d</fix>
</trkpt>
<trkpt lat="33.810313" lon="-118.393867">
  <ele>-0.12</ele>
  <time>2026-09-01T01:18:00Z</time>
  <course>0.0</course>
  <speed>0.0</speed>
  <fix>3d</fix>
</trkpt>
<trkpt lat="33.810313" lon="-118.393867">
  <ele>-0.113</ele>
  <time>2026-09-01T01:18:00Z</time>
  <course>185.03</course>
  <speed>0.0</speed>
  <fix>3d</fix>
</trkpt>
<trkpt lat="33.810313" lon="-118.393867">
  <ele>-0.12</ele>
  <time>2026-09-01T01:18:00Z</time>
  <course>0.0</course>
  <speed>0.0</speed>
  <fix>3d</fix>
</trkpt>
<trkpt lat="33.810313" lon="-118.393867">
  <ele>-0.112</ele>
  <time>2026-09-01T01:18:00Z</time>
  <course>185.03</course>
  <speed>0.0</speed>
  <fix>3d</fix>
</trkpt>
<trkpt lat="33.810313" lon="-118.393867">
  <ele>-0.12</ele>
  <time>2026-09-01T01:18:00Z</time>
  <course>0.0</course>
  <speed>0.0</speed>
  <fix>3d</fix>
</trkpt>
<trkpt lat="33.810313" lon="-118.393867">
  <ele>-0.114</ele>
  <time>2026-09-01T01:18:00Z</time>
  <course>185.03</course>
  <speed>0.0</speed>
  <fix>3d</fix>
</trkpt>
<trkpt lat="33.810313" lon="-118.393867">
  <ele>-0.12</ele>
  <time>2026-09-01T01:18:00Z</time>
  <course>0.0</course>
  <speed>0.0</speed>
  <fix>3d</fix>
</trkpt>
<trkpt lat="33.810313" lon="-118.393867">
  <ele>-0.116</ele>
  <time>2026-09-01T01:18:00Z</time>
  <course>185.03</course>
  <speed>0.0</speed>
  <fix>3d</fix>
</trkpt>
<trkpt lat="33.810313" lon="-118.393867">
  <ele>-0.12</ele>
  <time>2026-09-01T01:18:00Z</time>
  <course>0.0</course>
  <speed>0.0</speed>
  <fix>3d</fix>
</trkpt>
<trkpt lat="33.810313" lon="-118.393867">
  <ele>-0.119</ele>
  <time>2026-09-01T01:18:00Z</time>
  <course>185.03</course>
  <speed>0.0</speed>
  <fix>3d</fix>
</trkpt>
<trkpt lat="33.810313" lon="-118.393867">
  <ele>-0.12</ele>
  <time>2026-09-01T01:18:00Z</time>
  <course>0.0</course>
  <speed>0.0</speed>
  <fix>3d</fix>
</trkpt>
<trkpt lat="33.810313" lon="-118.393867">
  <ele>-0.121</ele>
  <time>2026-09-01T01:18:00Z</time>
  <course>185.03</course>
  <speed>0.0</speed>
  <fix>3d</fix>
</trkpt>
<trkpt lat="33.810313" lon="-118.393867">
  <ele>-0.12</ele>
  <time>2026-09-01T01:18:00Z</time>
  <course>0.0</course>
  <speed>0.0</speed>
  <fix>3d</fix>
</trkpt>
<trkpt lat="33.810313" lon="-118.393867">
  <ele>-0.124</ele>
  <time>2026-09-01T01:18:00Z</time>
  <course>185.03</course>
  <speed>0.0</speed>
  <fix>3d</fix>
</trkpt>
<trkpt lat="33.810313" lon="-118.393867">
  <ele>-0.12</ele>
  <time>2026-09-01T01:18:00Z</time>
  <course>0.0</course>
  <speed>0.0</speed>
  <fix>3d</fix>
</trkpt>
<trkpt lat="33.810313" lon="-118.393867">
  <ele>-0.125</ele>
  <time>2026-09-01T01:18:00Z</time>
  <course>185.03</course>
  <speed>0.0</speed>
  <fix>3d</fix>
</trkpt>
<trkpt lat="33.810313" lon="-118.393867">
  <ele>-0.12</ele>
  <time>2026-09-01T01:18:00Z</time>
  <course>0.0</course>
  <speed>0.0</speed>
  <fix>3d</fix>
</trkpt>
<trkpt lat="33.810313" lon="-118.393867">
  <ele>-0.126</ele>
  <time>2026-09-01T01:18:00Z</time>
  <course>185.03</course>
  <speed>0.0</speed>
  <fix>3d</fix>
</trkpt>
<trkpt lat="33.810313" lon="-118.393867">
  <ele>-0.12</ele>
  <time>2026-09-01T01:18:00Z</time>
  <course>0.0</course>
  <speed>0.0</speed>
  <fix>3d</fix>
</trkpt>
<trkpt lat="33.810313" lon="-118.393867">
  <ele>-0.127</ele>
  <time>2026-09-01T01:18:00Z</time>
  <course>185.03</course>
  <speed>0.0</speed>
  <fix>3d</fix>
</trkpt>
<trkpt lat="33.810313" lon="-118.393867">
  <ele>-0.12</ele>
  <time>2026-09-01T01:18:00Z</time>
  <course>0.0</course>
  <speed>0.0</speed>
  <fix>3d</fix>
</trkpt>
<trkpt lat="33.810313" lon="-118.393867">
  <ele>-0.126</ele>
  <time>2026-09-01T01:18:00Z</time>
  <course>185.03</course>
  <speed>0.0</speed>
  <fix>3d</fix>
</trkpt>
<trkpt lat="33.810313" lon="-118.393867">
  <ele>-0.12</ele>
  <time>2026-09-01T01:18:00Z</time>
  <course>0.0</course>
  <speed>0.0</speed>
  <fix>3d</fix>
</trkpt>
<trkpt lat="33.810313" lon="-118.393867">
  <ele>-0.126</ele>
  <time>2026-09-01T01:18:00Z</time>
  <course>185.03</course>
  <speed>0.0</speed>
  <fix>3d</fix>
</trkpt>
<trkpt lat="33.810313" lon="-118.393867">
  <ele>-0.12</ele>
  <time>2026-09-01T01:18:00Z</time>
  <course>0.0</course>
  <speed>0.0</speed>
  <fix>3d</fix>
</trkpt>
<trkpt lat="33.810313" lon="-118.393867">
  <ele>-0.124</ele>
  <time>2026-09-01T01:18:00Z</time>
  <course>185.03</course>
  <speed>0.0</speed>
  <fix>3d</fix>
</trkpt>
<trkpt lat="33.810313" lon="-118.393867">
  <ele>-0.12</ele>
  <time>2026-09-01T01:18:00Z</time>
  <course>0.0</course>
  <speed>0.0</speed>
  <fix>3d</fix>
</trkpt>
<trkpt lat="33.810313" lon="-118.393867">
  <ele>-0.12</ele>
  <time>2026-09-01T01:18:00Z</time>
  <course>185.03</course>
  <speed>0.0</speed>
  <fix>3d</fix>
</trkpt>
<trkpt lat="33.810313" lon="-118.393867">
  <ele>-0.12</ele>
  <time>2026-09-01T01:18:00Z</time>
  <course>0.0</course>
  <speed>0.0</speed>
  <fix>3d</fix>
</trkpt>
<trkpt lat="33.810313" lon="-118.393867">
  <ele>-0.118</ele>
  <time>2026-09-01T01:18:00Z</time>
  <course>186.37</course>
  <speed>0.0</speed>
  <fix>3d</fix>
</trkpt>
<trkpt lat="33.810313" lon="-118.393867">
  <ele>-0.12</ele>
  <time>2026-09-01T01:18:00Z</time>
  <course>0.0</course>
  <speed>0.0</speed>
  <fix>3d</fix>
</trkpt>
<trkpt lat="33.810313" lon="-118.393867">
  <ele>-0.117</ele>
  <time>2026-09-01T01:18:00Z</time>
  <course>188.84</course>
  <speed>0.0</speed>
  <fix>3d</fix>
</trkpt>
<trkpt lat="33.810313" lon="-118.393867">
  <ele>-0.12</ele>
  <time>2026-09-01T01:18:00Z</time>
  <course>95.4</course>
  <speed>0.0</speed>
  <fix>3d</fix>
</trkpt>
<trkpt lat="33.810313" lon="-118.393867">
  <ele>-0.118</ele>
  <time>2026-09-01T01:18:00Z</time>
  <course>191.43</course>
  <speed>0.0</speed>
  <fix>3d</fix>
</trkpt>
<trkpt lat="33.810313" lon="-118.393867">
  <ele>-0.12</ele>
  <time>2026-09-01T01:18:00Z</time>
  <course>95.4</course>
  <speed>0.0</speed>
  <fix>3d</fix>
</trkpt>
<trkpt lat="33.810313" lon="-118.393867">
  <ele>-0.119</ele>
  <time>2026-09-01T01:18:00Z</time>
  <course>194.09</course>
  <speed>0.0</speed>
  <fix>3d</fix>
</trkpt>
<trkpt lat="33.810313" lon="-118.393867">
  <ele>-0.12</ele>
  <time>2026-09-01T01:18:00Z</time>
  <course>92.56</course>
  <speed>0.0</speed>
  <fix>3d</fix>
</trkpt>
<trkpt lat="33.810313" lon="-118.393867">
  <ele>-0.121</ele>
  <time>2026-09-01T01:18:00Z</time>
  <course>196.79</course>
  <speed>0.0</speed>
  <fix>3d</fix>
</trkpt>
<trkpt lat="33.810313" lon="-118.393867">
  <ele>-0.12</ele>
  <time>2026-09-01T01:18:00Z</time>
  <course>92.56</course>
  <speed>0.0</speed>
  <fix>3d</fix>
</trkpt>
<trkpt lat="33.810313" lon="-118.393867">
  <ele>-0.124</ele>
  <time>2026-09-01T01:18:00Z</time>
  <course>199.57</course>
  <speed>0.0</speed>
  <fix>3d</fix>
</trkpt>
<trkpt lat="33.810313" lon="-118.393867">
  <ele>-0.12</ele>
  <time>2026-09-01T01:18:00Z</time>
  <course>291.84</course>
  <speed>0.0</speed>
  <fix>3d</fix>
</trkpt>
<trkpt lat="33.810313" lon="-118.393867">
  <ele>-0.125</ele>
  <time>2026-09-01T01:18:00Z</time>
  <course>202.41</course>
  <speed>0.0</speed>
  <fix>3d</fix>
</trkpt>
<trkpt lat="33.810313" lon="-118.393867">
  <ele>-0.12</ele>
  <time>2026-09-01T01:18:00Z</time>
  <course>291.84</course>
  <speed>0.0</speed>
  <fix>3d</fix>
</trkpt>
<trkpt lat="33.810313" lon="-118.393867">
  <ele>-0.125</ele>
  <time>2026-09-01T01:18:00Z</time>
  <course>205.29</course>
  <speed>0.0</speed>
  <fix>3d</fix>
</trkpt>
<trkpt lat="33.810313" lon="-118.393867">
  <ele>-0.12</ele>
  <time>2026-09-01T01:18:00Z</time>
  <course>288.01</course>
  <speed>0.0</speed>
  <fix>3d</fix>
</trkpt>
<trkpt lat="33.810313" lon="-118.393867">
  <ele>-0.125</ele>
  <time>2026-09-01T01:18:00Z</time>
  <course>208.23</course>
  <speed>0.0</speed>
  <fix>3d</fix>
</trkpt>
<trkpt lat="33.810313" lon="-118.393867">
  <ele>-0.12</ele>
  <time>2026-09-01T01:18:00Z</time>
  <course>288.01</course>
  <speed>0.0</speed>
  <fix>3d</fix>
</trkpt>
<trkpt lat="33.810313" lon="-118.393867">
  <ele>-0.124</ele>
  <time>2026-09-01T01:18:00Z</time>
  <course>211.2</course>
  <speed>0.0</speed>
  <fix>3d</fix>
</trkpt>
<trkpt lat="33.810313" lon="-118.393867">
  <ele>-0.12</ele>
  <time>2026-09-01T01:18:00Z</time>
  <course>288.06</course>
  <speed>0.0</speed>
  <fix>3d</fix>
</trkpt>
<trkpt lat="33.810313" lon="-118.393867">
  <ele>-0.123</ele>
  <time>2026-09-01T01:18:00Z</time>
  <course>214.2</course>
  <speed>0.0</speed>
  <fix>3d</fix>
</trkpt>
<trkpt lat="33.810313" lon="-118.393867">
  <ele>-0.12</ele>
  <time>2026-09-01T01:18:00Z</time>
  <course>288.06</course>
  <speed>0.0</speed>
  <fix>3d</fix>
</trkpt>
<trkpt lat="33.810313" lon="-118.393867">
  <ele>-0.121</ele>
  <time>2026-09-01T01:18:00Z</time>
  <course>217.22</course>
  <speed>0.0</speed>
  <fix>3d</fix>
</trkpt>
<trkpt lat="33.810313" lon="-118.393867">
  <ele>-0.12</ele>
  <time>2026-09-01T01:18:00Z</time>
  <course>288.06</course>
  <speed>0.0</speed>
  <fix>3d</fix>
</trkpt>
<trkpt lat="33.810313" lon="-118.393867">
  <ele>-0.119</ele>
  <time>2026-09-01T01:18:00Z</time>
  <course>220.28</course>
  <speed>0.0</speed>
  <fix>3d</fix>
</trkpt>
<trkpt lat="33.810313" lon="-118.393867">
  <ele>-0.12</ele>
  <time>2026-09-01T01:18:00Z</time>
  <course>288.06</course>
  <speed>0.0</speed>
  <fix>3d</fix>
</trkpt>
<trkpt lat="33.810313" lon="-118.393867">
  <ele>-0.117</ele>
  <time>2026-09-01T01:18:00Z</time>
  <course>223.37</course>
  <speed>0.0</speed>
  <fix>3d</fix>
</trkpt>
<trkpt lat="33.810313" lon="-118.393867">
  <ele>-0.12</ele>
  <time>2026-09-01T01:18:00Z</time>
  <course>290.15</course>
  <speed>0.0</speed>
  <fix>3d</fix>
</trkpt>
<trkpt lat="33.810313" lon="-118.393867">
  <ele>-0.116</ele>
  <time>2026-09-01T01:18:00Z</time>
  <course>226.48</course>
  <speed>0.0</speed>
  <fix>3d</fix>
</trkpt>
<trkpt lat="33.810313" lon="-118.393867">
  <ele>-0.12</ele>
  <time>2026-09-01T01:18:00Z</time>
  <course>290.15</course>
  <speed>0.0</speed>
  <fix>3d</fix>
</trkpt>
<trkpt lat="33.810313" lon="-118.393867">
  <ele>-0.117</ele>
  <time>2026-09-01T01:18:00Z</time>
  <course>229.62</course>
  <speed>0.0</speed>
  <fix>3d</fix>
</trkpt>
<trkpt lat="33.810313" lon="-118.393867">
  <ele>-0.12</ele>
  <time>2026-09-01T01:18:00Z</time>
  <course>298.03</course>
  <speed>0.0</speed>
  <fix>3d</fix>
</trkpt>
<trkpt lat="33.810313" lon="-118.393867">
  <ele>-0.119</ele>
  <time>2026-09-01T01:18:00Z</time>
  <course>232.79</course>
  <speed>0.0</speed>
  <fix>3d</fix>
</trkpt>
<trkpt lat="33.810313" lon="-118.393867">
  <ele>-0.12</ele>
  <time>2026-09-01T01:18:00Z</time>
  <course>298.03</course>
  <speed>0.0</speed>
  <fix>3d</fix>
</trkpt>
<trkpt lat="33.810313" lon="-118.393867">
  <ele>-0.122</ele>
  <time>2026-09-01T01:18:00Z</time>
  <course>235.97</course>
  <speed>0.0</speed>
  <fix>3d</fix>
</trkpt>
<trkpt lat="33.810313" lon="-118.393867">
  <ele>-0.12</ele>
  <time>2026-09-01T01:18:00Z</time>
  <course>301.46</course>
  <speed>0.0</speed>
  <fix>3d</fix>
</trkpt>
<trkpt lat="33.810313" lon="-118.393867">
  <ele>-0.123</ele>
  <time>2026-09-01T01:18:00Z</time>
  <course>239.17</course>
  <speed>0.0</speed>
  <fix>3d</fix>
</trkpt>
<trkpt lat="33.810313" lon="-118.393867">
  <ele>-0.12</ele>
  <time>2026-09-01T01:18:00Z</time>
  <course>301.46</course>
  <speed>0.0</speed>
  <fix>3d</fix>
</trkpt>
<trkpt lat="33.810313" lon="-118.393867">
  <ele>-0.124</ele>
  <time>2026-09-01T01:18:00Z</time>
  <course>242.39</course>
  <speed>0.0</speed>
  <fix>3d</fix>
</trkpt>
<trkpt lat="33.810313" lon="-118.393867">
  <ele>-0.12</ele>
  <time>2026-09-01T01:18:00Z</time>
  <course>301.46</course>
  <speed>0.0</speed>
  <fix>3d</fix>
</trkpt>
<trkpt lat="33.810313" lon="-118.393867">
  <ele>-0.125</ele>
  <time>2026-09-01T01:18:00Z</time>
  <course>245.61</course>
  <speed>0.0</speed>
  <fix>3d</fix>
</trkpt>
<trkpt lat="33.810313" lon="-118.393867">
  <ele>-0.12</ele>
  <time>2026-09-01T01:18:00Z</time>
  <course>301.46</course>
  <speed>0.0</speed>
  <fix>3d</fix>
</trkpt>
<trkpt lat="33.810313" lon="-118.393867">
  <ele>-0.124</ele>
  <time>2026-09-01T01:18:00Z</time>
  <course>248.89</course>
  <speed>0.0</speed>
  <fix>3d</fix>
</trkpt>
<trkpt lat="33.810313" lon="-118.393867">
  <ele>-0.12</ele>
  <time>2026-09-01T01:18:00Z</time>
  <course>301.46</course>
  <speed>0.0</speed>
  <fix>3d</fix>
</trkpt>
<trkpt lat="33.810313" lon="-118.393867">
  <ele>-0.123</ele>
  <time>2026-09-01T01:18:01Z</time>
  <course>252.15</course>
  <speed>0.0</speed>
  <fix>3d</fix>
</trkpt>
<trkpt lat="33.810313" lon="-118.393867">
  <ele>-0.12</ele>
  <time>2026-09-01T01:18:01Z</time>
  <course>301.46</course>
  <speed>0.0</speed>
  <fix>3d</fix>
</trkpt>
<trkpt lat="33.810313" lon="-118.393867">
  <ele>-0.122</ele>
  <time>2026-09-01T01:18:01Z</time>
  <course>255.42</course>
  <speed>0.0</speed>
  <fix>3d</fix>
</trkpt>
<trkpt lat="33.810313" lon="-118.393867">
  <ele>-0.12</ele>
  <time>2026-09-01T01:18:01Z</time>
  <course>300.67</course>
  <speed>0.0</speed>
  <fix>3d</fix>
</trkpt>
<trkpt lat="33.810313" lon="-118.393867">
  <ele>-0.121</ele>
  <time>2026-09-01T01:18:01Z</time>
  <course>258.72</course>
  <speed>0.0</speed>
  <fix>3d</fix>
</trkpt>
<trkpt lat="33.810313" lon="-118.393867">
  <ele>-0.12</ele>
  <time>2026-09-01T01:18:01Z</time>
  <course>300.67</course>
  <speed>0.0</speed>
  <fix>3d</fix>
</trkpt>
<trkpt lat="33.810313" lon="-118.393867">
  <ele>-0.118</ele>
  <time>2026-09-01T01:18:01Z</time>
  <course>261.99</course>
  <speed>0.0</speed>
  <fix>3d</fix>
</trkpt>
<trkpt lat="33.810313" lon="-118.393867">
  <ele>-0.12</ele>
  <time>2026-09-01T01:18:01Z</time>
  <course>281.41</course>
  <speed>0.0</speed>
  <fix>3d</fix>
</trkpt>
<trkpt lat="33.810313" lon="-118.393867">
  <ele>-0.117</ele>
  <time>2026-09-01T01:18:01Z</time>
  <course>265.29</course>
  <speed>0.0</speed>
  <fix>3d</fix>
</trkpt>
<trkpt lat="33.810313" lon="-118.393867">
  <ele>-0.12</ele>
  <time>2026-09-01T01:18:01Z</time>
  <course>281.41</course>
  <speed>0.0</speed>
  <fix>3d</fix>
</trkpt>
<trkpt lat="33.810313" lon="-118.393867">
  <ele>-0.118</ele>
  <time>2026-09-01T01:18:01Z</time>
  <course>268.61</course>
  <speed>0.0</speed>
  <fix>3d</fix>
</trkpt>
<trkpt lat="33.810313" lon="-118.393867">
  <ele>-0.12</ele>
  <time>2026-09-01T01:18:01Z</time>
  <course>229.66</course>
  <speed>0.0</speed>
  <fix>3d</fix>
</trkpt>
<trkpt lat="33.810313" lon="-118.393867">
  <ele>-0.12</ele>
  <time>2026-09-01T01:18:01Z</time>
  <course>271.95</course>
  <speed>0.0</speed>
  <fix>3d</fix>
</trkpt>
<trkpt lat="33.810313" lon="-118.393867">
  <ele>-0.12</ele>
  <time>2026-09-01T01:18:01Z</time>
  <course>229.66</course>
  <speed>0.0</speed>
  <fix>3d</fix>
</trkpt>
<trkpt lat="33.810313" lon="-118.393867">
  <ele>-0.123</ele>
  <time>2026-09-01T01:18:01Z</time>
  <course>275.32</course>
  <speed>0.0</speed>
  <fix>3d</fix>
</trkpt>
<trkpt lat="33.810313" lon="-118.393867">
  <ele>-0.12</ele>
  <time>2026-09-01T01:18:01Z</time>
  <course>204.82</course>
  <speed>0.0</speed>
  <fix>3d</fix>
</trkpt>
<trkpt lat="33.810313" lon="-118.393867">
  <ele>-0.126</ele>
  <time>2026-09-01T01:18:01Z</time>
  <course>278.65</course>
  <speed>0.0</speed>
  <fix>3d</fix>
</trkpt>
<trkpt lat="33.810313" lon="-118.393867">
  <ele>-0.12</ele>
  <time>2026-09-01T01:18:01Z</time>
  <course>204.82</course>
  <speed>0.0</speed>
  <fix>3d</fix>
</trkpt>
<trkpt lat="33.810313" lon="-118.393867">
  <ele>-0.128</ele>
  <time>2026-09-01T01:18:01Z</time>
  <course>281.99</course>
  <speed>0.0</speed>
  <fix>3d</fix>
</trkpt>
<trkpt lat="33.810313" lon="-118.393867">
  <ele>-0.12</ele>
  <time>2026-09-01T01:18:01Z</time>
  <course>197.41</course>
  <speed>0.0</speed>
  <fix>3d</fix>
</trkpt>
<trkpt lat="33.810313" lon="-118.393867">
  <ele>-0.128</ele>
  <time>2026-09-01T01:18:01Z</time>
  <course>285.32</course>
  <speed>0.0</speed>
  <fix>3d</fix>
</trkpt>
<trkpt lat="33.810313" lon="-118.393867">
  <ele>-0.12</ele>
  <time>2026-09-01T01:18:01Z</time>
  <course>197.41</course>
  <speed>0.0</speed>
  <fix>3d</fix>
</trkpt>
<trkpt lat="33.810313" lon="-118.393867">
  <ele>-0.128</ele>
  <time>2026-09-01T01:18:01Z</time>
  <course>288.67</course>
  <speed>0.0</speed>
  <fix>3d</fix>
</trkpt>
<trkpt lat="33.810313" lon="-118.393867">
  <ele>-0.12</ele>
  <time>2026-09-01T01:18:01Z</time>
  <course>195.45</course>
  <speed>0.0</speed>
  <fix>3d</fix>
</trkpt>
<trkpt lat="33.810313" lon="-118.393867">
  <ele>-0.126</ele>
  <time>2026-09-01T01:18:01Z</time>
  <course>292.02</course>
  <speed>0.0</speed>
  <fix>3d</fix>
</trkpt>
<trkpt lat="33.810313" lon="-118.393867">
  <ele>-0.12</ele>
  <time>2026-09-01T01:18:01Z</time>
  <course>195.45</course>
  <speed>0.0</speed>
  <fix>3d</fix>
</trkpt>
<trkpt lat="33.810313" lon="-118.393867">
  <ele>-0.123</ele>
  <time>2026-09-01T01:18:01Z</time>
  <course>295.39</course>
  <speed>0.0</speed>
  <fix>3d</fix>
</trkpt>
<trkpt lat="33.810313" lon="-118.393867">
  <ele>-0.12</ele>
  <time>2026-09-01T01:18:01Z</time>
  <course>195.28</course>
  <speed>0.0</speed>
  <fix>3d</fix>
</trkpt>
<trkpt lat="33.810313" lon="-118.393867">
  <ele>-0.119</ele>
  <time>2026-09-01T01:18:01Z</time>
  <course>298.76</course>
  <speed>0.0</speed>
  <fix>3d</fix>
</trkpt>
<trkpt lat="33.810313" lon="-118.393867">
  <ele>-0.12</ele>
  <time>2026-09-01T01:18:01Z</time>
  <course>195.28</course>
  <speed>0.0</speed>
  <fix>3d</fix>
</trkpt>
<trkpt lat="33.810313" lon="-118.393867">
  <ele>-0.115</ele>
  <time>2026-09-01T01:18:01Z</time>
  <course>302.14</course>
  <speed>0.0</speed>
  <fix>3d</fix>
</trkpt>
<trkpt lat="33.810313" lon="-118.393867">
  <ele>-0.12</ele>
  <time>2026-09-01T01:18:01Z</time>
  <course>195.38</course>
  <speed>0.0</speed>
  <fix>3d</fix>
</trkpt>
<trkpt lat="33.810313" lon="-118.393867">
  <ele>-0.112</ele>
  <time>2026-09-01T01:18:01Z</time>
  <course>305.52</course>
  <speed>0.0</speed>
  <fix>3d</fix>
</trkpt>
<trkpt lat="33.810313" lon="-118.393867">
  <ele>-0.12</ele>
  <time>2026-09-01T01:18:01Z</time>
  <course>195.38</course>
  <speed>0.0</speed>
  <fix>3d</fix>
</trkpt>
<trkpt lat="33.810313" lon="-118.393867">
  <ele>-0.111</ele>
  <time>2026-09-01T01:18:01Z</time>
  <course>308.9</course>
  <speed>0.0</speed>
  <fix>3d</fix>
</trkpt>
<trkpt lat="33.810313" lon="-118.393867">
  <ele>-0.12</ele>
  <time>2026-09-01T01:18:01Z</time>
  <course>195.38</course>
  <speed>0.0</speed>
  <fix>3d</fix>
</trkpt>
<trkpt lat="33.810313" lon="-118.393867">
  <ele>-0.112</ele>
  <time>2026-09-01T01:18:01Z</time>
  <course>312.29</course>
  <speed>0.0</speed>
  <fix>3d</fix>
</trkpt>
<trkpt lat="33.810313" lon="-118.393867">
  <ele>-0.12</ele>
  <time>2026-09-01T01:18:01Z</time>
  <course>195.38</course>
  <speed>0.0</speed>
  <fix>3d</fix>
</trkpt>
<trkpt lat="33.810313" lon="-118.393867">
  <ele>-0.114</ele>
  <time>2026-09-01T01:18:01Z</time>
  <course>315.67</course>
  <speed>0.0</speed>
  <fix>3d</fix>
</trkpt>
<trkpt lat="33.810313" lon="-118.393867">
  <ele>-0.12</ele>
  <time>2026-09-01T01:18:01Z</time>
  <course>195.38</course>
  <speed>0.0</speed>
  <fix>3d</fix>
</trkpt>
<trkpt lat="33.810313" lon="-118.393867">
  <ele>-0.115</ele>
  <time>2026-09-01T01:18:01Z</time>
  <course>319.07</course>
  <speed>0.0</speed>
  <fix>3d</fix>
</trkpt>
<trkpt lat="33.810313" lon="-118.393867">
  <ele>-0.12</ele>
  <time>2026-09-01T01:18:01Z</time>
  <course>195.38</course>
  <speed>0.0</speed>
  <fix>3d</fix>
</trkpt>
<trkpt lat="33.810313" lon="-118.393867">
  <ele>-0.116</ele>
  <time>2026-09-01T01:18:01Z</time>
  <course>322.45</course>
  <speed>0.0</speed>
  <fix>3d</fix>
</trkpt>
<trkpt lat="33.810313" lon="-118.393867">
  <ele>-0.12</ele>
  <time>2026-09-01T01:18:01Z</time>
  <course>195.38</course>
  <speed>0.0</speed>
  <fix>3d</fix>
</trkpt>
<trkpt lat="33.810313" lon="-118.393867">
  <ele>-0.116</ele>
  <time>2026-09-01T01:18:01Z</time>
  <course>325.82</course>
  <speed>0.0</speed>
  <fix>3d</fix>
</trkpt>
<trkpt lat="33.810313" lon="-118.393867">
  <ele>-0.12</ele>
  <time>2026-09-01T01:18:01Z</time>
  <course>195.38</course>
  <speed>0.0</speed>
  <fix>3d</fix>
</trkpt>
<trkpt lat="33.810313" lon="-118.393867">
  <ele>-0.116</ele>
  <time>2026-09-01T01:18:01Z</time>
  <course>329.21</course>
  <speed>0.01</speed>
  <fix>3d</fix>
</trkpt>
<trkpt lat="33.810313" lon="-118.393867">
  <ele>-0.12</ele>
  <time>2026-09-01T01:18:01Z</time>
  <course>195.38</course>
  <speed>0.0</speed>
  <fix>3d</fix>
</trkpt>
<trkpt lat="33.810313" lon="-118.393867">
  <ele>-0.116</ele>
  <time>2026-09-01T01:18:01Z</time>
  <course>332.57</course>
  <speed>0.01</speed>
  <fix>3d</fix>
</trkpt>
<trkpt lat="33.810313" lon="-118.393867">
  <ele>-0.12</ele>
  <time>2026-09-01T01:18:01Z</time>
  <course>195.38</course>
  <speed>0.0</speed>
  <fix>3d</fix>
</trkpt>
<trkpt lat="33.810313" lon="-118.393867">
  <ele>-0.115</ele>
  <time>2026-09-01T01:18:01Z</time>
  <course>335.96</course>
  <speed>0.01</speed>
  <fix>3d</fix>
</trkpt>
<trkpt lat="33.810313" lon="-118.393867">
  <ele>-0.12</ele>
  <time>2026-09-01T01:18:01Z</time>
  <course>195.38</course>
  <speed>0.0</speed>
  <fix>3d</fix>
</trkpt>
<trkpt lat="33.810313" lon="-118.393867">
  <ele>-0.114</ele>
  <time>2026-09-01T01:18:01Z</time>
  <course>339.35</course>
  <speed>0.0</speed>
  <fix>3d</fix>
</trkpt>
<trkpt lat="33.810313" lon="-118.393867">
  <ele>-0.12</ele>
  <time>2026-09-01T01:18:01Z</time>
  <course>195.38</course>
  <speed>0.0</speed>
  <fix>3d</fix>
</trkpt>
<trkpt lat="33.810313" lon="-118.393867">
  <ele>-0.112</ele>
  <time>2026-09-01T01:18:01Z</time>
  <course>342.73</course>
  <speed>0.0</speed>
  <fix>3d</fix>
</trkpt>
<trkpt lat="33.810313" lon="-118.393867">
  <ele>-0.12</ele>
  <time>2026-09-01T01:18:01Z</time>
  <course>195.51</course>
  <speed>0.0</speed>
  <fix>3d</fix>
</trkpt>
<trkpt lat="33.810313" lon="-118.393867">
  <ele>-0.11</ele>
  <time>2026-09-01T01:18:01Z</time>
  <course>346.13</course>
  <speed>0.0</speed>
  <fix>3d</fix>
</trkpt>
<trkpt lat="33.810313" lon="-118.393867">
  <ele>-0.12</ele>
  <time>2026-09-01T01:18:01Z</time>
  <course>195.51</course>
  <speed>0.0</speed>
  <fix>3d</fix>
</trkpt>
<trkpt lat="33.810313" lon="-118.393867">
  <ele>-0.109</ele>
  <time>2026-09-01T01:18:01Z</time>
  <course>349.5</course>
  <speed>0.0</speed>
  <fix>3d</fix>
</trkpt>
<trkpt lat="33.810313" lon="-118.393867">
  <ele>-0.12</ele>
  <time>2026-09-01T01:18:01Z</time>
  <course>197.92</course>
  <speed>0.0</speed>
  <fix>3d</fix>
</trkpt>
<trkpt lat="33.810313" lon="-118.393867">
  <ele>-0.11</ele>
  <time>2026-09-01T01:18:01Z</time>
  <course>352.85</course>
  <speed>0.0</speed>
  <fix>3d</fix>
</trkpt>
<trkpt lat="33.810313" lon="-118.393867">
  <ele>-0.12</ele>
  <time>2026-09-01T01:18:01Z</time>
  <course>197.92</course>
  <speed>0.0</speed>
  <fix>3d</fix>
</trkpt>
<trkpt lat="33.810313" lon="-118.393867">
  <ele>-0.112</ele>
  <time>2026-09-01T01:18:01Z</time>
  <course>356.21</course>
  <speed>0.0</speed>
  <fix>3d</fix>
</trkpt>
<trkpt lat="33.810313" lon="-118.393867">
  <ele>-0.12</ele>
  <time>2026-09-01T01:18:01Z</time>
  <course>203.6</course>
  <speed>0.0</speed>
  <fix>3d</fix>
</trkpt>
<trkpt lat="33.810313" lon="-118.393867">
  <ele>-0.114</ele>
  <time>2026-09-01T01:18:01Z</time>
  <course>359.56</course>
  <speed>0.0</speed>
  <fix>3d</fix>
</trkpt>
<trkpt lat="33.810313" lon="-118.393867">
  <ele>-0.12</ele>
  <time>2026-09-01T01:18:01Z</time>
  <course>203.6</course>
  <speed>0.0</speed>
  <fix>3d</fix>
</trkpt>
<trkpt lat="33.810313" lon="-118.393867">
  <ele>-0.117</ele>
  <time>2026-09-01T01:18:01Z</time>
  <course>2.91</course>
  <speed>0.0</speed>
  <fix>3d</fix>
</trkpt>
<trkpt lat="33.810313" lon="-118.393867">
  <ele>-0.12</ele>
  <time>2026-09-01T01:18:01Z</time>
  <course>211.31</course>
  <speed>0.0</speed>
  <fix>3d</fix>
</trkpt>
<trkpt lat="33.810313" lon="-118.393867">
  <ele>-0.118</ele>
  <time>2026-09-01T01:18:01Z</time>
  <course>6.25</course>
  <speed>0.0</speed>
  <fix>3d</fix>
</trkpt>
<trkpt lat="33.810313" lon="-118.393867">
  <ele>-0.12</ele>
  <time>2026-09-01T01:18:01Z</time>
  <course>211.31</course>
  <speed>0.0</speed>
  <fix>3d</fix>
</trkpt>
<trkpt lat="33.810313" lon="-118.393867">
  <ele>-0.119</ele>
  <time>2026-09-01T01:18:01Z</time>
  <course>9.6</course>
  <speed>0.0</speed>
  <fix>3d</fix>
</trkpt>
<trkpt lat="33.810313" lon="-118.393867">
  <ele>-0.12</ele>
  <time>2026-09-01T01:18:01Z</time>
  <course>219.5</course>
  <speed>0.0</speed>
  <fix>3d</fix>
</trkpt>
<trkpt lat="33.810313" lon="-118.393867">
  <ele>-0.118</ele>
  <time>2026-09-01T01:18:01Z</time>
  <course>12.94</course>
  <speed>0.0</speed>
  <fix>3d</fix>
</trkpt>
<trkpt lat="33.810313" lon="-118.393867">
  <ele>-0.12</ele>
  <time>2026-09-01T01:18:01Z</time>
  <course>219.5</course>
  <speed>0.0</speed>
  <fix>3d</fix>
</trkpt>
<trkpt lat="33.810313" lon="-118.393867">
  <ele>-0.116</ele>
  <time>2026-09-01T01:18:01Z</time>
  <course>16.28</course>
  <speed>0.0</speed>
  <fix>3d</fix>
</trkpt>
<trkpt lat="33.810313" lon="-118.393867">
  <ele>-0.12</ele>
  <time>2026-09-01T01:18:01Z</time>
  <course>227.02</course>
  <speed>0.0</speed>
  <fix>3d</fix>
</trkpt>
<trkpt lat="33.810313" lon="-118.393867">
  <ele>-0.113</ele>
  <time>2026-09-01T01:18:01Z</time>
  <course>19.63</course>
  <speed>0.0</speed>
  <fix>3d</fix>
</trkpt>
<trkpt lat="33.810313" lon="-118.393867">
  <ele>-0.12</ele>
  <time>2026-09-01T01:18:01Z</time>
  <course>227.02</course>
  <speed>0.0</speed>
  <fix>3d</fix>
</trkpt>
<trkpt lat="33.810313" lon="-118.393867">
  <ele>-0.11</ele>
  <time>2026-09-01T01:18:01Z</time>
  <course>22.98</course>
  <speed>0.0</speed>
  <fix>3d</fix>
</trkpt>
<trkpt lat="33.810313" lon="-118.393867">
  <ele>-0.12</ele>
  <time>2026-09-01T01:18:01Z</time>
  <course>233.84</course>
  <speed>0.0</speed>
  <fix>3d</fix>
</trkpt>
<trkpt lat="33.810313" lon="-118.393867">
  <ele>-0.109</ele>
  <time>2026-09-01T01:18:01Z</time>
  <course>26.32</course>
  <speed>0.0</speed>
  <fix>3d</fix>
</trkpt>
<trkpt lat="33.810313" lon="-118.393867">
  <ele>-0.12</ele>
  <time>2026-09-01T01:18:01Z</time>
  <course>233.84</course>
  <speed>0.0</speed>
  <fix>3d</fix>
</trkpt>
<trkpt lat="33.810313" lon="-118.393867">
  <ele>-0.109</ele>
  <time>2026-09-01T01:18:01Z</time>
  <course>29.7</course>
  <speed>0.0</speed>
  <fix>3d</fix>
</trkpt>
<trkpt lat="33.810313" lon="-118.393867">
  <ele>-0.12</ele>
  <time>2026-09-01T01:18:01Z</time>
  <course>240.11</course>
  <speed>0.0</speed>
  <fix>3d</fix>
</trkpt>
<trkpt lat="33.810313" lon="-118.393867">
  <ele>-0.111</ele>
  <time>2026-09-01T01:18:01Z</time>
  <course>33.04</course>
  <speed>0.0</speed>
  <fix>3d</fix>
</trkpt>
<trkpt lat="33.810313" lon="-118.393867">
  <ele>-0.12</ele>
  <time>2026-09-01T01:18:01Z</time>
  <course>240.11</course>
  <speed>0.0</speed>
  <fix>3d</fix>
</trkpt>
<trkpt lat="33.810313" lon="-118.393867">
  <ele>-0.113</ele>
  <time>2026-09-01T01:18:01Z</time>
  <course>36.38</course>
  <speed>0.0</speed>
  <fix>3d</fix>
</trkpt>
<trkpt lat="33.810313" lon="-118.393867">
  <ele>-0.12</ele>
  <time>2026-09-01T01:18:01Z</time>
  <course>245.97</course>
  <speed>0.0</speed>
  <fix>3d</fix>
</trkpt>
<trkpt lat="33.810313" lon="-118.393867">
  <ele>-0.115</ele>
  <time>2026-09-01T01:18:01Z</time>
  <course>39.7</course>
  <speed>0.0</speed>
  <fix>3d</fix>
</trkpt>
<trkpt lat="33.810313" lon="-118.393867">
  <ele>-0.12</ele>
  <time>2026-09-01T01:18:01Z</time>
  <course>245.97</course>
  <speed>0.0</speed>
  <fix>3d</fix>
</trkpt>
<trkpt lat="33.810313" lon="-118.393867">
  <ele>-0.116</ele>
  <time>2026-09-01T01:18:01Z</time>
  <course>42.99</course>
  <speed>0.0</speed>
  <fix>3d</fix>
</trkpt>
<trkpt lat="33.810313" lon="-118.393867">
  <ele>-0.12</ele>
  <time>2026-09-01T01:18:01Z</time>
  <course>251.5</course>
  <speed>0.0</speed>
  <fix>3d</fix>
</trkpt>
<trkpt lat="33.810313" lon="-118.393867">
  <ele>-0.115</ele>
  <time>2026-09-01T01:18:01Z</time>
  <course>46.31</course>
  <speed>0.0</speed>
  <fix>3d</fix>
</trkpt>
<trkpt lat="33.810313" lon="-118.393867">
  <ele>-0.12</ele>
  <time>2026-09-01T01:18:01Z</time>
  <course>251.5</course>
  <speed>0.0</speed>
  <fix>3d</fix>
</trkpt>
<trkpt lat="33.810313" lon="-118.393867">
  <ele>-0.114</ele>
  <time>2026-09-01T01:18:01Z</time>
  <course>49.62</course>
  <speed>0.0</speed>
  <fix>3d</fix>
</trkpt>
<trkpt lat="33.810313" lon="-118.393867">
  <ele>-0.12</ele>
  <time>2026-09-01T01:18:01Z</time>
  <course>256.76</course>
  <speed>0.0</speed>
  <fix>3d</fix>
</trkpt>
<trkpt lat="33.810313" lon="-118.393867">
  <ele>-0.113</ele>
  <time>2026-09-01T01:18:01Z</time>
  <course>52.93</course>
  <speed>0.0</speed>
  <fix>3d</fix>
</trkpt>
<trkpt lat="33.810313" lon="-118.393867">
  <ele>-0.12</ele>
  <time>2026-09-01T01:18:01Z</time>
  <course>256.76</course>
  <speed>0.0</speed>
  <fix>3d</fix>
</trkpt>
<trkpt lat="33.810313" lon="-118.393867">
  <ele>-0.112</ele>
  <time>2026-09-01T01:18:01Z</time>
  <course>56.26</course>
  <speed>0.0</speed>
  <fix>3d</fix>
</trkpt>
<trkpt lat="33.810313" lon="-118.393867">
  <ele>-0.12</ele>
  <time>2026-09-01T01:18:01Z</time>
  <course>261.81</course>
  <speed>0.0</speed>
  <fix>3d</fix>
</trkpt>
<trkpt lat="33.810313" lon="-118.393867">
  <ele>-0.111</ele>
  <time>2026-09-01T01:18:01Z</time>
  <course>59.56</course>
  <speed>0.0</speed>
  <fix>3d</fix>
</trkpt>
<trkpt lat="33.810313" lon="-118.393867">
  <ele>-0.12</ele>
  <time>2026-09-01T01:18:01Z</time>
  <course>261.81</course>
  <speed>0.0</speed>
  <fix>3d</fix>
</trkpt>
<trkpt lat="33.810313" lon="-118.393867">
  <ele>-0.111</ele>
  <time>2026-09-01T01:18:01Z</time>
  <course>62.87</course>
  <speed>0.0</speed>
  <fix>3d</fix>
</trkpt>
<trkpt lat="33.810313" lon="-118.393867">
  <ele>-0.12</ele>
  <time>2026-09-01T01:18:01Z</time>
  <course>266.69</course>
  <speed>0.0</speed>
  <fix>3d</fix>
</trkpt>
<trkpt lat="33.810313" lon="-118.393867">
  <ele>-0.113</ele>
  <time>2026-09-01T01:18:01Z</time>
  <course>66.18</course>
  <speed>0.0</speed>
  <fix>3d</fix>
</trkpt>
<trkpt lat="33.810313" lon="-118.393867">
  <ele>-0.12</ele>
  <time>2026-09-01T01:18:01Z</time>
  <course>266.69</course>
  <speed>0.0</speed>
  <fix>3d</fix>
</trkpt>
<trkpt lat="33.810313" lon="-118.393867">
  <ele>-0.115</ele>
  <time>2026-09-01T01:18:01Z</time>
  <course>69.49</course>
  <speed>0.0</speed>
  <fix>3d</fix>
</trkpt>
<trkpt lat="33.810313" lon="-118.393867">
  <ele>-0.12</ele>
  <time>2026-09-01T01:18:01Z</time>
  <course>271.43</course>
  <speed>0.0</speed>
  <fix>3d</fix>
</trkpt>
<trkpt lat="33.810313" lon="-118.393867">
  <ele>-0.119</ele>
  <time>2026-09-01T01:18:01Z</time>
  <course>72.8</course>
  <speed>0.0</speed>
  <fix>3d</fix>
</trkpt>
<trkpt lat="33.810313" lon="-118.393867">
  <ele>-0.12</ele>
  <time>2026-09-01T01:18:01Z</time>
  <course>271.43</course>
  <speed>0.0</speed>
  <fix>3d</fix>
</trkpt>
<trkpt lat="33.810313" lon="-118.393867">
  <ele>-0.123</ele>
  <time>2026-09-01T01:18:01Z</time>
  <course>76.11</course>
  <speed>0.0</speed>
  <fix>3d</fix>
</trkpt>
<trkpt lat="33.810313" lon="-118.393867">
  <ele>-0.12</ele>
  <time>2026-09-01T01:18:01Z</time>
  <course>276.05</course>
  <speed>0.0</speed>
  <fix>3d</fix>
</trkpt>
<trkpt lat="33.810313" lon="-118.393867">
  <ele>-0.126</ele>
  <time>2026-09-01T01:18:01Z</time>
  <course>79.41</course>
  <speed>0.0</speed>
  <fix>3d</fix>
</trkpt>
<trkpt lat="33.810313" lon="-118.393867">
  <ele>-0.12</ele>
  <time>2026-09-01T01:18:01Z</time>
  <course>276.05</course>
  <speed>0.0</speed>
  <fix>3d</fix>
</trkpt>
<trkpt lat="33.810313" lon="-118.393867">
  <ele>-0.127</ele>
  <time>2026-09-01T01:18:01Z</time>
  <course>82.71</course>
  <speed>0.0</speed>
  <fix>3d</fix>
</trkpt>
<trkpt lat="33.810313" lon="-118.393867">
  <ele>-0.12</ele>
  <time>2026-09-01T01:18:01Z</time>
  <course>280.59</course>
  <speed>0.0</speed>
  <fix>3d</fix>
</trkpt>
<trkpt lat="33.810313" lon="-118.393867">
  <ele>-0.126</ele>
  <time>2026-09-01T01:18:01Z</time>
  <course>86.01</course>
  <speed>0.0</speed>
  <fix>3d</fix>
</trkpt>
<trkpt lat="33.810313" lon="-118.393867">
  <ele>-0.12</ele>
  <time>2026-09-01T01:18:01Z</time>
  <course>280.59</course>
  <speed>0.0</speed>
  <fix>3d</fix>
</trkpt>
<trkpt lat="33.810313" lon="-118.393867">
  <ele>-0.126</ele>
  <time>2026-09-01T01:18:01Z</time>
  <course>89.07</course>
  <speed>0.0</speed>
  <fix>3d</fix>
</trkpt>
<trkpt lat="33.810313" lon="-118.393867">
  <ele>-0.12</ele>
  <time>2026-09-01T01:18:01Z</time>
  <course>284.17</course>
  <speed>0.0</speed>
  <fix>3d</fix>
</trkpt>
<trkpt lat="33.810313" lon="-118.393867">
  <ele>-0.125</ele>
  <time>2026-09-01T01:18:01Z</time>
  <course>91.28</course>
  <speed>0.0</speed>
  <fix>3d</fix>
</trkpt>
<trkpt lat="33.810313" lon="-118.393867">
  <ele>-0.12</ele>
  <time>2026-09-01T01:18:01Z</time>
  <course>284.17</course>
  <speed>0.0</speed>
  <fix>3d</fix>
</trkpt>
<trkpt lat="33.810313" lon="-118.393867">
  <ele>-0.122</ele>
  <time>2026-09-01T01:18:01Z</time>
  <course>92.98</course>
  <speed>0.0</speed>
  <fix>3d</fix>
</trkpt>
<trkpt lat="33.810313" lon="-118.393867">
  <ele>-0.12</ele>
  <time>2026-09-01T01:18:01Z</time>
  <course>285.55</course>
  <speed>0.0</speed>
  <fix>3d</fix>
</trkpt>
<trkpt lat="33.810313" lon="-118.393867">
  <ele>-0.12</ele>
  <time>2026-09-01T01:18:01Z</time>
  <course>94.24</course>
  <speed>0.0</speed>
  <fix>3d</fix>
</trkpt>
<trkpt lat="33.810313" lon="-118.393867">
  <ele>-0.12</ele>
  <time>2026-09-01T01:18:01Z</time>
  <course>285.55</course>
  <speed>0.0</speed>
  <fix>3d</fix>
</trkpt>
<trkpt lat="33.810313" lon="-118.393867">
  <ele>-0.119</ele>
  <time>2026-09-01T01:18:01Z</time>
  <course>95.05</course>
  <speed>0.0</speed>
  <fix>3d</fix>
</trkpt>
<trkpt lat="33.810313" lon="-118.393867">
  <ele>-0.12</ele>
  <time>2026-09-01T01:18:01Z</time>
  <course>285.42</course>
  <speed>0.0</speed>
  <fix>3d</fix>
</trkpt>
<trkpt lat="33.810313" lon="-118.393867">
  <ele>-0.119</ele>
  <time>2026-09-01T01:18:01Z</time>
  <course>95.64</course>
  <speed>0.0</speed>
  <fix>3d</fix>
</trkpt>
<trkpt lat="33.810313" lon="-118.393867">
  <ele>-0.12</ele>
  <time>2026-09-01T01:18:01Z</time>
  <course>285.42</course>
  <speed>0.0</speed>
  <fix>3d</fix>
</trkpt>
<trkpt lat="33.810313" lon="-118.393867">
  <ele>-0.12</ele>
  <time>2026-09-01T01:18:01Z</time>
  <course>96.11</course>
  <speed>0.0</speed>
  <fix>3d</fix>
</trkpt>
<trkpt lat="33.810313" lon="-118.393867">
  <ele>-0.12</ele>
  <time>2026-09-01T01:18:01Z</time>
  <course>285.26</course>
  <speed>0.0</speed>
  <fix>3d</fix>
</trkpt>
<trkpt lat="33.810313" lon="-118.393867">
  <ele>-0.121</ele>
  <time>2026-09-01T01:18:01Z</time>
  <course>96.49</course>
  <speed>0.0</speed>
  <fix>3d</fix>
</trkpt>
<trkpt lat="33.810313" lon="-118.393867">
  <ele>-0.12</ele>
  <time>2026-09-01T01:18:01Z</time>
  <course>285.26</course>
  <speed>0.0</speed>
  <fix>3d</fix>
</trkpt>
<trkpt lat="33.810313" lon="-118.393867">
  <ele>-0.121</ele>
  <time>2026-09-01T01:18:01Z</time>
  <course>96.81</course>
  <speed>0.0</speed>
  <fix>3d</fix>
</trkpt>
<trkpt lat="33.810313" lon="-118.393867">
  <ele>-0.12</ele>
  <time>2026-09-01T01:18:01Z</time>
  <course>285.26</course>
  <speed>0.0</speed>
  <fix>3d</fix>
</trkpt>
<trkpt lat="33.810313" lon="-118.393867">
  <ele>-0.122</ele>
  <time>2026-09-01T01:18:01Z</time>
  <course>97.09</course>
  <speed>0.0</speed>
  <fix>3d</fix>
</trkpt>
<trkpt lat="33.810313" lon="-118.393867">
  <ele>-0.12</ele>
  <time>2026-09-01T01:18:01Z</time>
  <course>285.26</course>
  <speed>0.0</speed>
  <fix>3d</fix>
</trkpt>
<trkpt lat="33.810313" lon="-118.393867">
  <ele>-0.122</ele>
  <time>2026-09-01T01:18:01Z</time>
  <course>97.35</course>
  <speed>0.0</speed>
  <fix>3d</fix>
</trkpt>
<trkpt lat="33.810313" lon="-118.393867">
  <ele>-0.12</ele>
  <time>2026-09-01T01:18:01Z</time>
  <course>285.26</course>
  <speed>0.0</speed>
  <fix>3d</fix>
</trkpt>
<trkpt lat="33.810313" lon="-118.393867">
  <ele>-0.122</ele>
  <time>2026-09-01T01:18:01Z</time>
  <course>97.57</course>
  <speed>0.0</speed>
  <fix>3d</fix>
</trkpt>
<trkpt lat="33.810313" lon="-118.393867">
  <ele>-0.12</ele>
  <time>2026-09-01T01:18:01Z</time>
  <course>285.26</course>
  <speed>0.0</speed>
  <fix>3d</fix>
</trkpt>
<trkpt lat="33.810313" lon="-118.393867">
  <ele>-0.12</ele>
  <time>2026-09-01T01:18:01Z</time>
  <course>97.77</course>
  <speed>0.0</speed>
  <fix>3d</fix>
</trkpt>
<trkpt lat="33.810313" lon="-118.393867">
  <ele>-0.12</ele>
  <time>2026-09-01T01:18:01Z</time>
  <course>285.26</course>
  <speed>0.0</speed>
  <fix>3d</fix>
</trkpt>
<trkpt lat="33.810313" lon="-118.393867">
  <ele>-0.118</ele>
  <time>2026-09-01T01:18:01Z</time>
  <course>97.96</course>
  <speed>0.0</speed>
  <fix>3d</fix>
</trkpt>
<trkpt lat="33.810313" lon="-118.393867">
  <ele>-0.12</ele>
  <time>2026-09-01T01:18:01Z</time>
  <course>285.26</course>
  <speed>0.0</speed>
  <fix>3d</fix>
</trkpt>
<trkpt lat="33.810313" lon="-118.393867">
  <ele>-0.116</ele>
  <time>2026-09-01T01:18:01Z</time>
  <course>98.13</course>
  <speed>0.0</speed>
  <fix>3d</fix>
</trkpt>
<trkpt lat="33.810313" lon="-118.393867">
  <ele>-0.12</ele>
  <time>2026-09-01T01:18:01Z</time>
  <course>285.26</course>
  <speed>0.0</speed>
  <fix>3d</fix>
</trkpt>
<trkpt lat="33.810313" lon="-118.393867">
  <ele>-0.115</ele>
  <time>2026-09-01T01:18:01Z</time>
  <course>98.29</course>
  <speed>0.0</speed>
  <fix>3d</fix>
</trkpt>
<trkpt lat="33.810313" lon="-118.393867">
  <ele>-0.12</ele>
  <time>2026-09-01T01:18:01Z</time>
  <course>285.26</course>
  <speed>0.0</speed>
  <fix>3d</fix>
</trkpt>
<trkpt lat="33.810313" lon="-118.393867">
  <ele>-0.115</ele>
  <time>2026-09-01T01:18:01Z</time>
  <course>98.44</course>
  <speed>0.0</speed>
  <fix>3d</fix>
</trkpt>
<trkpt lat="33.810313" lon="-118.393867">
  <ele>-0.12</ele>
  <time>2026-09-01T01:18:01Z</time>
  <course>285.26</course>
  <speed>0.0</speed>
  <fix>3d</fix>
</trkpt>
<trkpt lat="33.810313" lon="-118.393867">
  <ele>-0.117</ele>
  <time>2026-09-01T01:18:01Z</time>
  <course>98.58</course>
  <speed>0.0</speed>
  <fix>3d</fix>
</trkpt>
<trkpt lat="33.810313" lon="-118.393867">
  <ele>-0.12</ele>
  <time>2026-09-01T01:18:01Z</time>
  <course>285.26</course>
  <speed>0.0</speed>
  <fix>3d</fix>
</trkpt>
<trkpt lat="33.810313" lon="-118.393867">
  <ele>-0.12</ele>
  <time>2026-09-01T01:18:01Z</time>
  <course>98.71</course>
  <speed>0.0</speed>
  <fix>3d</fix>
</trkpt>
<trkpt lat="33.810313" lon="-118.393867">
  <ele>-0.12</ele>
  <time>2026-09-01T01:18:01Z</time>
  <course>285.26</course>
  <speed>0.0</speed>
  <fix>3d</fix>
</trkpt>
<trkpt lat="33.810313" lon="-118.393867">
  <ele>-0.122</ele>
  <time>2026-09-01T01:18:01Z</time>
  <course>98.83</course>
  <speed>0.0</speed>
  <fix>3d</fix>
</trkpt>
<trkpt lat="33.810313" lon="-118.393867">
  <ele>-0.12</ele>
  <time>2026-09-01T01:18:01Z</time>
  <course>285.26</course>
  <speed>0.0</speed>
  <fix>3d</fix>
</trkpt>
<trkpt lat="33.810313" lon="-118.393867">
  <ele>-0.122</ele>
  <time>2026-09-01T01:18:01Z</time>
  <course>98.95</course>
  <speed>0.0</speed>
  <fix>3d</fix>
</trkpt>
<trkpt lat="33.810313" lon="-118.393867">
  <ele>-0.12</ele>
  <time>2026-09-01T01:18:01Z</time>
  <course>285.26</course>
  <speed>0.0</speed>
  <fix>3d</fix>
</trkpt>
<trkpt lat="33.810313" lon="-118.393867">
  <ele>-0.121</ele>
  <time>2026-09-01T01:18:01Z</time>
  <course>99.06</course>
  <speed>0.0</speed>
  <fix>3d</fix>
</trkpt>
<trkpt lat="33.810313" lon="-118.393867">
  <ele>-0.12</ele>
  <time>2026-09-01T01:18:01Z</time>
  <course>285.26</course>
  <speed>0.0</speed>
  <fix>3d</fix>
</trkpt>
<trkpt lat="33.810313" lon="-118.393867">
  <ele>-0.119</ele>
  <time>2026-09-01T01:18:01Z</time>
  <course>99.16</course>
  <speed>0.0</speed>
  <fix>3d</fix>
</trkpt>
<trkpt lat="33.810313" lon="-118.393867">
  <ele>-0.12</ele>
  <time>2026-09-01T01:18:01Z</time>
  <course>285.26</course>
  <speed>0.0</speed>
  <fix>3d</fix>
</trkpt>
<trkpt lat="33.810313" lon="-118.393867">
  <ele>-0.118</ele>
  <time>2026-09-01T01:18:01Z</time>
  <course>99.26</course>
  <speed>0.0</speed>
  <fix>3d</fix>
</trkpt>
<trkpt lat="33.810313" lon="-118.393867">
  <ele>-0.12</ele>
  <time>2026-09-01T01:18:01Z</time>
  <course>285.26</course>
  <speed>0.0</speed>
  <fix>3d</fix>
</trkpt>
<trkpt lat="33.810313" lon="-118.393867">
  <ele>-0.117</ele>
  <time>2026-09-01T01:18:01Z</time>
  <course>99.36</course>
  <speed>0.0</speed>
  <fix>3d</fix>
</trkpt>
<trkpt lat="33.810313" lon="-118.393867">
  <ele>-0.12</ele>
  <time>2026-09-01T01:18:01Z</time>
  <course>285.26</course>
  <speed>0.0</speed>
  <fix>3d</fix>
</trkpt>
<trkpt lat="33.810313" lon="-118.393867">
  <ele>-0.117</ele>
  <time>2026-09-01T01:18:01Z</time>
  <course>99.45</course>
  <speed>0.0</speed>
  <fix>3d</fix>
</trkpt>
<trkpt lat="33.810313" lon="-118.393867">
  <ele>-0.12</ele>
  <time>2026-09-01T01:18:01Z</time>
  <course>285.26</course>
  <speed>0.0</speed>
  <fix>3d</fix>
</trkpt>
<trkpt lat="33.810313" lon="-118.393867">
  <ele>-0.117</ele>
  <time>2026-09-01T01:18:01Z</time>
  <course>99.54</course>
  <speed>0.0</speed>
  <fix>3d</fix>
</trkpt>
<trkpt lat="33.810313" lon="-118.393867">
  <ele>-0.12</ele>
  <time>2026-09-01T01:18:01Z</time>
  <course>285.26</course>
  <speed>0.0</speed>
  <fix>3d</fix>
</trkpt>
<trkpt lat="33.810313" lon="-118.393867">
  <ele>-0.118</ele>
  <time>2026-09-01T01:18:01Z</time>
  <course>99.62</course>
  <speed>0.0</speed>
  <fix>3d</fix>
</trkpt>
<trkpt lat="33.810313" lon="-118.393867">
  <ele>-0.12</ele>
  <time>2026-09-01T01:18:01Z</time>
  <course>285.26</course>
  <speed>0.0</speed>
  <fix>3d</fix>
</trkpt>
<trkpt lat="33.810313" lon="-118.393867">
  <ele>-0.119</ele>
  <time>2026-09-01T01:18:01Z</time>
  <course>99.7</course>
  <speed>0.0</speed>
  <fix>3d</fix>
</trkpt>
<trkpt lat="33.810313" lon="-118.393867">
  <ele>-0.12</ele>
  <time>2026-09-01T01:18:01Z</time>
  <course>285.26</course>
  <speed>0.0</speed>
  <fix>3d</fix>
</trkpt>
<trkpt lat="33.810313" lon="-118.393867">
  <ele>-0.12</ele>
  <time>2026-09-01T01:18:01Z</time>
  <course>99.77</course>
  <speed>0.0</speed>
  <fix>3d</fix>
</trkpt>
<trkpt lat="33.810313" lon="-118.393867">
  <ele>-0.12</ele>
  <time>2026-09-01T01:18:01Z</time>
  <course>285.26</course>
  <speed>0.0</speed>
  <fix>3d</fix>
</trkpt>
<trkpt lat="33.810313" lon="-118.393867">
  <ele>-0.12</ele>
  <time>2026-09-01T01:18:01Z</time>
  <course>99.84</course>
  <speed>0.0</speed>
  <fix>3d</fix>
</trkpt>
<trkpt lat="33.810313" lon="-118.393867">
  <ele>-0.12</ele>
  <time>2026-09-01T01:18:01Z</time>
  <course>285.26</course>
  <speed>0.0</speed>
  <fix>3d</fix>
</trkpt>
<trkpt lat="33.810313" lon="-118.393867">
  <ele>-0.121</ele>
  <time>2026-09-01T01:18:01Z</time>
  <course>99.91</course>
  <speed>0.0</speed>
  <fix>3d</fix>
</trkpt>
<trkpt lat="33.810313" lon="-118.393867">
  <ele>-0.12</ele>
  <time>2026-09-01T01:18:01Z</time>
  <course>285.26</course>
  <speed>0.0</speed>
  <fix>3d</fix>
</trkpt>
<trkpt lat="33.810313" lon="-118.393867">
  <ele>-0.121</ele>
  <time>2026-09-01T01:18:01Z</time>
  <course>99.98</course>
  <speed>0.0</speed>
  <fix>3d</fix>
</trkpt>
<trkpt lat="33.810313" lon="-118.393867">
  <ele>-0.12</ele>
  <time>2026-09-01T01:18:01Z</time>
  <course>285.26</course>
  <speed>0.0</speed>
  <fix>3d</fix>
</trkpt>
<trkpt lat="33.810313" lon="-118.393867">
  <ele>-0.12</ele>
  <time>2026-09-01T01:18:01Z</time>
  <course>100.05</course>
  <speed>0.0</speed>
  <fix>3d</fix>
</trkpt>
<trkpt lat="33.810313" lon="-118.393867">
  <ele>-0.12</ele>
  <time>2026-09-01T01:18:01Z</time>
  <course>285.26</course>
  <speed>0.0</speed>
  <fix>3d</fix>
</trkpt>
<trkpt lat="33.810313" lon="-118.393867">
  <ele>-0.119</ele>
  <time>2026-09-01T01:18:01Z</time>
  <course>100.11</course>
  <speed>0.0</speed>
  <fix>3d</fix>
</trkpt>
<trkpt lat="33.810313" lon="-118.393867">
  <ele>-0.12</ele>
  <time>2026-09-01T01:18:01Z</time>
  <course>285.26</course>
  <speed>0.0</speed>
  <fix>3d</fix>
</trkpt>
<trkpt lat="33.810313" lon="-118.393867">
  <ele>-0.118</ele>
  <time>2026-09-01T01:18:01Z</time>
  <course>100.18</course>
  <speed>0.0</speed>
  <fix>3d</fix>
</trkpt>
<trkpt lat="33.810313" lon="-118.393867">
  <ele>-0.12</ele>
  <time>2026-09-01T01:18:01Z</time>
  <course>285.26</course>
  <speed>0.0</speed>
  <fix>3d</fix>
</trkpt>
<trkpt lat="33.810313" lon="-118.393867">
  <ele>-0.117</ele>
  <time>2026-09-01T01:18:01Z</time>
  <course>100.25</course>
  <speed>0.0</speed>
  <fix>3d</fix>
</trkpt>
<trkpt lat="33.810313" lon="-118.393867">
  <ele>-0.12</ele>
  <time>2026-09-01T01:18:01Z</time>
  <course>285.26</course>
  <speed>0.0</speed>
  <fix>3d</fix>
</trkpt>
<trkpt lat="33.810313" lon="-118.393867">
  <ele>-0.116</ele>
  <time>2026-09-01T01:18:01Z</time>
  <course>100.31</course>
  <speed>0.0</speed>
  <fix>3d</fix>
</trkpt>
<trkpt lat="33.810313" lon="-118.393867">
  <ele>-0.12</ele>
  <time>2026-09-01T01:18:01Z</time>
  <course>285.26</course>
  <speed>0.0</speed>
  <fix>3d</fix>
</trkpt>
<trkpt lat="33.810313" lon="-118.393867">
  <ele>-0.117</ele>
  <time>2026-09-01T01:18:01Z</time>
  <course>100.37</course>
  <speed>0.0</speed>
  <fix>3d</fix>
</trkpt>
<trkpt lat="33.810313" lon="-118.393867">
  <ele>-0.12</ele>
  <time>2026-09-01T01:18:01Z</time>
  <course>285.26</course>
  <speed>0.0</speed>
  <fix>3d</fix>
</trkpt>
<trkpt lat="33.810313" lon="-118.393867">
  <ele>-0.119</ele>
  <time>2026-09-01T01:18:01Z</time>
  <course>100.43</course>
  <speed>0.0</speed>
  <fix>3d</fix>
</trkpt>
<trkpt lat="33.810313" lon="-118.393867">
  <ele>-0.12</ele>
  <time>2026-09-01T01:18:01Z</time>
  <course>285.26</course>
  <speed>0.0</speed>
  <fix>3d</fix>
</trkpt>
<trkpt lat="33.810313" lon="-118.393867">
  <ele>-0.12</ele>
  <time>2026-09-01T01:18:01Z</time>
  <course>100.48</course>
  <speed>0.0</speed>
  <fix>3d</fix>
</trkpt>
<trkpt lat="33.810313" lon="-118.393867">
  <ele>-0.12</ele>
  <time>2026-09-01T01:18:01Z</time>
  <course>285.26</course>
  <speed>0.0</speed>
  <fix>3d</fix>
</trkpt>
<trkpt lat="33.810313" lon="-118.393867">
  <ele>-0.122</ele>
  <time>2026-09-01T01:18:01Z</time>
  <course>100.54</course>
  <speed>0.0</speed>
  <fix>3d</fix>
</trkpt>
<trkpt lat="33.810313" lon="-118.393867">
  <ele>-0.12</ele>
  <time>2026-09-01T01:18:01Z</time>
  <course>285.26</course>
  <speed>0.0</speed>
  <fix>3d</fix>
</trkpt>
<trkpt lat="33.810313" lon="-118.393867">
  <ele>-0.122</ele>
  <time>2026-09-01T01:18:01Z</time>
  <course>100.6</course>
  <speed>0.0</speed>
  <fix>3d</fix>
</trkpt>
<trkpt lat="33.810313" lon="-118.393867">
  <ele>-0.12</ele>
  <time>2026-09-01T01:18:01Z</time>
  <course>285.26</course>
  <speed>0.0</speed>
  <fix>3d</fix>
</trkpt>
<trkpt lat="33.810313" lon="-118.393867">
  <ele>-0.121</ele>
  <time>2026-09-01T01:18:01Z</time>
  <course>100.65</course>
  <speed>0.0</speed>
  <fix>3d</fix>
</trkpt>
<trkpt lat="33.810313" lon="-118.393867">
  <ele>-0.12</ele>
  <time>2026-09-01T01:18:01Z</time>
  <course>285.26</course>
  <speed>0.0</speed>
  <fix>3d</fix>
</trkpt>
<trkpt lat="33.810313" lon="-118.393867">
  <ele>-0.12</ele>
  <time>2026-09-01T01:18:01Z</time>
  <course>100.7</course>
  <speed>0.0</speed>
  <fix>3d</fix>
</trkpt>
<trkpt lat="33.810313" lon="-118.393867">
  <ele>-0.12</ele>
  <time>2026-09-01T01:18:01Z</time>
  <course>285.26</course>
  <speed>0.0</speed>
  <fix>3d</fix>
</trkpt>
<trkpt lat="33.810313" lon="-118.393867">
  <ele>-0.118</ele>
  <time>2026-09-01T01:18:01Z</time>
  <course>100.75</course>
  <speed>0.0</speed>
  <fix>3d</fix>
</trkpt>
<trkpt lat="33.810313" lon="-118.393867">
  <ele>-0.12</ele>
  <time>2026-09-01T01:18:01Z</time>
  <course>285.26</course>
  <speed>0.0</speed>
  <fix>3d</fix>
</trkpt>
<trkpt lat="33.810313" lon="-118.393867">
  <ele>-0.116</ele>
  <time>2026-09-01T01:18:01Z</time>
  <course>100.8</course>
  <speed>0.0</speed>
  <fix>3d</fix>
</trkpt>
<trkpt lat="33.810313" lon="-118.393867">
  <ele>-0.12</ele>
  <time>2026-09-01T01:18:01Z</time>
  <course>285.26</course>
  <speed>0.0</speed>
  <fix>3d</fix>
</trkpt>
<trkpt lat="33.810313" lon="-118.393867">
  <ele>-0.115</ele>
  <time>2026-09-01T01:18:01Z</time>
  <course>100.85</course>
  <speed>0.0</speed>
  <fix>3d</fix>
</trkpt>
<trkpt lat="33.810313" lon="-118.393867">
  <ele>-0.12</ele>
  <time>2026-09-01T01:18:01Z</time>
  <course>285.26</course>
  <speed>0.0</speed>
  <fix>3d</fix>
</trkpt>
<trkpt lat="33.810313" lon="-118.393867">
  <ele>-0.115</ele>
  <time>2026-09-01T01:18:01Z</time>
  <course>100.9</course>
  <speed>0.0</speed>
  <fix>3d</fix>
</trkpt>
<trkpt lat="33.810313" lon="-118.393867">
  <ele>-0.12</ele>
  <time>2026-09-01T01:18:01Z</time>
  <course>285.26</course>
  <speed>0.0</speed>
  <fix>3d</fix>
</trkpt>
<trkpt lat="33.810313" lon="-118.393867">
  <ele>-0.117</ele>
  <time>2026-09-01T01:18:01Z</time>
  <course>100.95</course>
  <speed>0.0</speed>
  <fix>3d</fix>
</trkpt>
<trkpt lat="33.810313" lon="-118.393867">
  <ele>-0.12</ele>
  <time>2026-09-01T01:18:01Z</time>
  <course>285.26</course>
  <speed>0.0</speed>
  <fix>3d</fix>
</trkpt>
<trkpt lat="33.810313" lon="-118.393867">
  <ele>-0.119</ele>
  <time>2026-09-01T01:18:01Z</time>
  <course>100.99</course>
  <speed>0.0</speed>
  <fix>3d</fix>
</trkpt>
<trkpt lat="33.810313" lon="-118.393867">
  <ele>-0.12</ele>
  <time>2026-09-01T01:18:01Z</time>
  <course>285.26</course>
  <speed>0.0</speed>
  <fix>3d</fix>
</trkpt>
<trkpt lat="33.810313" lon="-118.393867">
  <ele>-0.121</ele>
  <time>2026-09-01T01:18:01Z</time>
  <course>101.04</course>
  <speed>0.0</speed>
  <fix>3d</fix>
</trkpt>
<trkpt lat="33.810313" lon="-118.393867">
  <ele>-0.12</ele>
  <time>2026-09-01T01:18:01Z</time>
  <course>285.26</course>
  <speed>0.0</speed>
  <fix>3d</fix>
</trkpt>
<trkpt lat="33.810313" lon="-118.393867">
  <ele>-0.122</ele>
  <time>2026-09-01T01:18:01Z</time>
  <course>101.08</course>
  <speed>0.0</speed>
  <fix>3d</fix>
</trkpt>
<trkpt lat="33.810313" lon="-118.393867">
  <ele>-0.12</ele>
  <time>2026-09-01T01:18:01Z</time>
  <course>285.26</course>
  <speed>0.0</speed>
  <fix>3d</fix>
</trkpt>
<trkpt lat="33.810313" lon="-118.393867">
  <ele>-0.122</ele>
  <time>2026-09-01T01:18:01Z</time>
  <course>101.13</course>
  <speed>0.0</speed>
  <fix>3d</fix>
</trkpt>
<trkpt lat="33.810313" lon="-118.393867">
  <ele>-0.12</ele>
  <time>2026-09-01T01:18:01Z</time>
  <course>285.26</course>
  <speed>0.0</speed>
  <fix>3d</fix>
</trkpt>
<trkpt lat="33.810313" lon="-118.393867">
  <ele>-0.12</ele>
  <time>2026-09-01T01:18:01Z</time>
  <course>101.17</course>
  <speed>0.0</speed>
  <fix>3d</fix>
</trkpt>
<trkpt lat="33.810313" lon="-118.393867">
  <ele>-0.12</ele>
  <time>2026-09-01T01:18:01Z</time>
  <course>285.26</course>
  <speed>0.0</speed>
  <fix>3d</fix>
</trkpt>
<trkpt lat="33.810313" lon="-118.393867">
  <ele>-0.119</ele>
  <time>2026-09-01T01:18:01Z</time>
  <course>101.21</course>
  <speed>0.0</speed>
  <fix>3d</fix>
</trkpt>
<trkpt lat="33.810313" lon="-118.393867">
  <ele>-0.12</ele>
  <time>2026-09-01T01:18:01Z</time>
  <course>285.26</course>
  <speed>0.0</speed>
  <fix>3d</fix>
</trkpt>
<trkpt lat="33.810313" lon="-118.393867">
  <ele>-0.117</ele>
  <time>2026-09-01T01:18:01Z</time>
  <course>101.25</course>
  <speed>0.0</speed>
  <fix>3d</fix>
</trkpt>
<trkpt lat="33.810313" lon="-118.393867">
  <ele>-0.12</ele>
  <time>2026-09-01T01:18:01Z</time>
  <course>285.26</course>
  <speed>0.0</speed>
  <fix>3d</fix>
</trkpt>
<trkpt lat="33.810313" lon="-118.393867">
  <ele>-0.116</ele>
  <time>2026-09-01T01:18:01Z</time>
  <course>101.29</course>
  <speed>0.0</speed>
  <fix>3d</fix>
</trkpt>
<trkpt lat="33.810313" lon="-118.393867">
  <ele>-0.12</ele>
  <time>2026-09-01T01:18:01Z</time>
  <course>285.26</course>
  <speed>0.0</speed>
  <fix>3d</fix>
</trkpt>
<trkpt lat="33.810313" lon="-118.393867">
  <ele>-0.116</ele>
  <time>2026-09-01T01:18:01Z</time>
  <course>101.33</course>
  <speed>0.0</speed>
  <fix>3d</fix>
</trkpt>
<trkpt lat="33.810313" lon="-118.393867">
  <ele>-0.12</ele>
  <time>2026-09-01T01:18:01Z</time>
  <course>285.26</course>
  <speed>0.0</speed>
  <fix>3d</fix>
</trkpt>
<trkpt lat="33.810313" lon="-118.393867">
  <ele>-0.118</ele>
  <time>2026-09-01T01:18:01Z</time>
  <course>101.37</course>
  <speed>0.0</speed>
  <fix>3d</fix>
</trkpt>
<trkpt lat="33.810313" lon="-118.393867">
  <ele>-0.12</ele>
  <time>2026-09-01T01:18:01Z</time>
  <course>285.26</course>
  <speed>0.0</speed>
  <fix>3d</fix>
</trkpt>
<trkpt lat="33.810313" lon="-118.393867">
  <ele>-0.12</ele>
  <time>2026-09-01T01:18:01Z</time>
  <course>101.41</course>
  <speed>0.0</speed>
  <fix>3d</fix>
</trkpt>
<trkpt lat="33.810313" lon="-118.393867">
  <ele>-0.12</ele>
  <time>2026-09-01T01:18:01Z</time>
  <course>285.26</course>
  <speed>0.0</speed>
  <fix>3d</fix>
</trkpt>
<trkpt lat="33.810313" lon="-118.393867">
  <ele>-0.123</ele>
  <time>2026-09-01T01:18:01Z</time>
  <course>101.45</course>
  <speed>0.0</speed>
  <fix>3d</fix>
</trkpt>
<trkpt lat="33.810313" lon="-118.393867">
  <ele>-0.12</ele>
  <time>2026-09-01T01:18:01Z</time>
  <course>285.26</course>
  <speed>0.0</speed>
  <fix>3d</fix>
</trkpt>
<trkpt lat="33.810313" lon="-118.393867">
  <ele>-0.126</ele>
  <time>2026-09-01T01:18:01Z</time>
  <course>101.49</course>
  <speed>0.0</speed>
  <fix>3d</fix>
</trkpt>
<trkpt lat="33.810313" lon="-118.393867">
  <ele>-0.12</ele>
  <time>2026-09-01T01:18:01Z</time>
  <course>285.26</course>
  <speed>0.0</speed>
  <fix>3d</fix>
</trkpt>
<trkpt lat="33.810313" lon="-118.393867">
  <ele>-0.128</ele>
  <time>2026-09-01T01:18:01Z</time>
  <course>111.11</course>
  <speed>0.0</speed>
  <fix>3d</fix>
</trkpt>
<trkpt lat="33.810313" lon="-118.393867">
  <ele>-0.12</ele>
  <time>2026-09-01T01:18:01Z</time>
  <course>285.26</course>
  <speed>0.0</speed>
  <fix>3d</fix>
</trkpt>
<trkpt lat="33.810313" lon="-118.393867">
  <ele>-0.129</ele>
  <time>2026-09-01T01:18:01Z</time>
  <course>124.82</course>
  <speed>0.0</speed>
  <fix>3d</fix>
</trkpt>
<trkpt lat="33.810313" lon="-118.393867">
  <ele>-0.12</ele>
  <time>2026-09-01T01:18:01Z</time>
  <course>285.26</course>
  <speed>0.0</speed>
  <fix>3d</fix>
</trkpt>
<trkpt lat="33.810313" lon="-118.393867">
  <ele>-0.128</ele>
  <time>2026-09-01T01:18:01Z</time>
  <course>134.24</course>
  <speed>0.0</speed>
  <fix>3d</fix>
</trkpt>
<trkpt lat="33.810313" lon="-118.393867">
  <ele>-0.12</ele>
  <time>2026-09-01T01:18:01Z</time>
  <course>285.26</course>
  <speed>0.0</speed>
  <fix>3d</fix>
</trkpt>
<trkpt lat="33.810313" lon="-118.393867">
  <ele>-0.126</ele>
  <time>2026-09-01T01:18:01Z</time>
  <course>139.98</course>
  <speed>0.0</speed>
  <fix>3d</fix>
</trkpt>
<trkpt lat="33.810313" lon="-118.393867">
  <ele>-0.12</ele>
  <time>2026-09-01T01:18:01Z</time>
  <course>285.26</course>
  <speed>0.0</speed>
  <fix>3d</fix>
</trkpt>
<trkpt lat="33.810313" lon="-118.393867">
  <ele>-0.124</ele>
  <time>2026-09-01T01:18:01Z</time>
  <course>143.72</course>
  <speed>0.0</speed>
  <fix>3d</fix>
</trkpt>
<trkpt lat="33.810313" lon="-118.393867">
  <ele>-0.12</ele>
  <time>2026-09-01T01:18:01Z</time>
  <course>285.26</course>
  <speed>0.0</speed>
  <fix>3d</fix>
</trkpt>
<trkpt lat="33.810313" lon="-118.393867">
  <ele>-0.122</ele>
  <time>2026-09-01T01:18:01Z</time>
  <course>145.69</course>
  <speed>0.0</speed>
  <fix>3d</fix>
</trkpt>
<trkpt lat="33.810313" lon="-118.393867">
  <ele>-0.12</ele>
  <time>2026-09-01T01:18:01Z</time>
  <course>285.26</course>
  <speed>0.0</speed>
  <fix>3d</fix>
</trkpt>
<trkpt lat="33.810313" lon="-118.393867">
  <ele>-0.122</ele>
  <time>2026-09-01T01:18:01Z</time>
  <course>146.94</course>
  <speed>0.0</speed>
  <fix>3d</fix>
</trkpt>
<trkpt lat="33.810313" lon="-118.393867">
  <ele>-0.12</ele>
  <time>2026-09-01T01:18:01Z</time>
  <course>285.26</course>
  <speed>0.0</speed>
  <fix>3d</fix>
</trkpt>
<trkpt lat="33.810313" lon="-118.393867">
  <ele>-0.122</ele>
  <time>2026-09-01T01:18:01Z</time>
  <course>147.96</course>
  <speed>0.0</speed>
  <fix>3d</fix>
</trkpt>
<trkpt lat="33.810313" lon="-118.393867">
  <ele>-0.12</ele>
  <time>2026-09-01T01:18:01Z</time>
  <course>285.26</course>
  <speed>0.0</speed>
  <fix>3d</fix>
</trkpt>
<trkpt lat="33.810313" lon="-118.393867">
  <ele>-0.122</ele>
  <time>2026-09-01T01:18:01Z</time>
  <course>148.41</course>
  <speed>0.0</speed>
  <fix>3d</fix>
</trkpt>
<trkpt lat="33.810313" lon="-118.393867">
  <ele>-0.12</ele>
  <time>2026-09-01T01:18:01Z</time>
  <course>285.26</course>
  <speed>0.0</speed>
  <fix>3d</fix>
</trkpt>
<trkpt lat="33.810313" lon="-118.393867">
  <ele>-0.122</ele>
  <time>2026-09-01T01:18:01Z</time>
  <course>148.49</course>
  <speed>0.0</speed>
  <fix>3d</fix>
</trkpt>
<trkpt lat="33.810313" lon="-118.393867">
  <ele>-0.12</ele>
  <time>2026-09-01T01:18:01Z</time>
  <course>285.26</course>
  <speed>0.0</speed>
  <fix>3d</fix>
</trkpt>
<trkpt lat="33.810313" lon="-118.393867">
  <ele>-0.122</ele>
  <time>2026-09-01T01:18:01Z</time>
  <course>148.45</course>
  <speed>0.0</speed>
  <fix>3d</fix>
</trkpt>
<trkpt lat="33.810313" lon="-118.393867">
  <ele>-0.12</ele>
  <time>2026-09-01T01:18:01Z</time>
  <course>285.26</course>
  <speed>0.0</speed>
  <fix>3d</fix>
</trkpt>
<trkpt lat="33.810313" lon="-118.393867">
  <ele>-0.12</ele>
  <time>2026-09-01T01:18:01Z</time>
  <course>148.43</course>
  <speed>0.0</speed>
  <fix>3d</fix>
</trkpt>
<trkpt lat="33.810313" lon="-118.393867">
  <ele>-0.12</ele>
  <time>2026-09-01T01:18:01Z</time>
  <course>285.26</course>
  <speed>0.0</speed>
  <fix>3d</fix>
</trkpt>
<trkpt lat="33.810313" lon="-118.393867">
  <ele>-0.119</ele>
  <time>2026-09-01T01:18:01Z</time>
  <course>148.44</course>
  <speed>0.0</speed>
  <fix>3d</fix>
</trkpt>
<trkpt lat="33.810313" lon="-118.393867">
  <ele>-0.12</ele>
  <time>2026-09-01T01:18:01Z</time>
  <course>285.26</course>
  <speed>0.0</speed>
  <fix>3d</fix>
</trkpt>
<trkpt lat="33.810313" lon="-118.393867">
  <ele>-0.116</ele>
  <time>2026-09-01T01:18:01Z</time>
  <course>148.47</course>
  <speed>0.0</speed>
  <fix>3d</fix>
</trkpt>
<trkpt lat="33.810313" lon="-118.393867">
  <ele>-0.12</ele>
  <time>2026-09-01T01:18:01Z</time>
  <course>285.26</course>
  <speed>0.0</speed>
  <fix>3d</fix>
</trkpt>
<trkpt lat="33.810313" lon="-118.393867">
  <ele>-0.114</ele>
  <time>2026-09-01T01:18:01Z</time>
  <course>148.5</course>
  <speed>0.0</speed>
  <fix>3d</fix>
</trkpt>
<trkpt lat="33.810313" lon="-118.393867">
  <ele>-0.12</ele>
  <time>2026-09-01T01:18:01Z</time>
  <course>285.26</course>
  <speed>0.0</speed>
  <fix>3d</fix>
</trkpt>
<trkpt lat="33.810313" lon="-118.393867">
  <ele>-0.113</ele>
  <time>2026-09-01T01:18:01Z</time>
  <course>148.54</course>
  <speed>0.0</speed>
  <fix>3d</fix>
</trkpt>
<trkpt lat="33.810313" lon="-118.393867">
  <ele>-0.12</ele>
  <time>2026-09-01T01:18:01Z</time>
  <course>285.26</course>
  <speed>0.0</speed>
  <fix>3d</fix>
</trkpt>
<trkpt lat="33.810313" lon="-118.393867">
  <ele>-0.114</ele>
  <time>2026-09-01T01:18:01Z</time>
  <course>148.57</course>
  <speed>0.0</speed>
  <fix>3d</fix>
</trkpt>
<trkpt lat="33.810313" lon="-118.393867">
  <ele>-0.12</ele>
  <time>2026-09-01T01:18:01Z</time>
  <course>285.26</course>
  <speed>0.0</speed>
  <fix>3d</fix>
</trkpt>
<trkpt lat="33.810313" lon="-118.393867">
  <ele>-0.115</ele>
  <time>2026-09-01T01:18:01Z</time>
  <course>148.6</course>
  <speed>0.0</speed>
  <fix>3d</fix>
</trkpt>
<trkpt lat="33.810313" lon="-118.393867">
  <ele>-0.12</ele>
  <time>2026-09-01T01:18:01Z</time>
  <course>285.26</course>
  <speed>0.0</speed>
  <fix>3d</fix>
</trkpt>
<trkpt lat="33.810313" lon="-118.393867">
  <ele>-0.117</ele>
  <time>2026-09-01T01:18:01Z</time>
  <course>148.63</course>
  <speed>0.0</speed>
  <fix>3d</fix>
</trkpt>
<trkpt lat="33.810313" lon="-118.393867">
  <ele>-0.12</ele>
  <time>2026-09-01T01:18:01Z</time>
  <course>285.26</course>
  <speed>0.0</speed>
  <fix>3d</fix>
</trkpt>
<trkpt lat="33.810313" lon="-118.393867">
  <ele>-0.118</ele>
  <time>2026-09-01T01:18:01Z</time>
  <course>148.66</course>
  <speed>0.0</speed>
  <fix>3d</fix>
</trkpt>
<trkpt lat="33.810313" lon="-118.393867">
  <ele>-0.12</ele>
  <time>2026-09-01T01:18:01Z</time>
  <course>285.26</course>
  <speed>0.0</speed>
  <fix>3d</fix>
</trkpt>
<trkpt lat="33.810313" lon="-118.393867">
  <ele>-0.119</ele>
  <time>2026-09-01T01:18:01Z</time>
  <course>148.69</course>
  <speed>0.0</speed>
  <fix>3d</fix>
</trkpt>
<trkpt lat="33.810313" lon="-118.393867">
  <ele>-0.12</ele>
  <time>2026-09-01T01:18:01Z</time>
  <course>285.26</course>
  <speed>0.0</speed>
  <fix>3d</fix>
</trkpt>
<trkpt lat="33.810313" lon="-118.393867">
  <ele>-0.119</ele>
  <time>2026-09-01T01:18:01Z</time>
  <course>148.72</course>
  <speed>0.0</speed>
  <fix>3d</fix>
</trkpt>
<trkpt lat="33.810313" lon="-118.393867">
  <ele>-0.12</ele>
  <time>2026-09-01T01:18:01Z</time>
  <course>285.26</course>
  <speed>0.0</speed>
  <fix>3d</fix>
</trkpt>
<trkpt lat="33.810313" lon="-118.393867">
  <ele>-0.119</ele>
  <time>2026-09-01T01:18:01Z</time>
  <course>148.75</course>
  <speed>0.0</speed>
  <fix>3d</fix>
</trkpt>
<trkpt lat="33.810313" lon="-118.393867">
  <ele>-0.12</ele>
  <time>2026-09-01T01:18:01Z</time>
  <course>285.26</course>
  <speed>0.0</speed>
  <fix>3d</fix>
</trkpt>
<trkpt lat="33.810313" lon="-118.393867">
  <ele>-0.119</ele>
  <time>2026-09-01T01:18:01Z</time>
  <course>148.78</course>
  <speed>0.0</speed>
  <fix>3d</fix>
</trkpt>
<trkpt lat="33.810313" lon="-118.393867">
  <ele>-0.12</ele>
  <time>2026-09-01T01:18:01Z</time>
  <course>285.26</course>
  <speed>0.0</speed>
  <fix>3d</fix>
</trkpt>
<trkpt lat="33.810313" lon="-118.393867">
  <ele>-0.118</ele>
  <time>2026-09-01T01:18:01Z</time>
  <course>148.81</course>
  <speed>0.0</speed>
  <fix>3d</fix>
</trkpt>
<trkpt lat="33.810313" lon="-118.393867">
  <ele>-0.12</ele>
  <time>2026-09-01T01:18:01Z</time>
  <course>285.26</course>
  <speed>0.0</speed>
  <fix>3d</fix>
</trkpt>
<trkpt lat="33.810313" lon="-118.393867">
  <ele>-0.117</ele>
  <time>2026-09-01T01:18:01Z</time>
  <course>148.83</course>
  <speed>0.0</speed>
  <fix>3d</fix>
</trkpt>
<trkpt lat="33.810313" lon="-118.393867">
  <ele>-0.12</ele>
  <time>2026-09-01T01:18:01Z</time>
  <course>285.26</course>
  <speed>0.0</speed>
  <fix>3d</fix>
</trkpt>
<trkpt lat="33.810313" lon="-118.393867">
  <ele>-0.117</ele>
  <time>2026-09-01T01:18:01Z</time>
  <course>148.86</course>
  <speed>0.0</speed>
  <fix>3d</fix>
</trkpt>
<trkpt lat="33.810313" lon="-118.393867">
  <ele>-0.12</ele>
  <time>2026-09-01T01:18:01Z</time>
  <course>285.26</course>
  <speed>0.0</speed>
  <fix>3d</fix>
</trkpt>
<trkpt lat="33.810313" lon="-118.393867">
  <ele>-0.118</ele>
  <time>2026-09-01T01:18:01Z</time>
  <course>148.89</course>
  <speed>0.0</speed>
  <fix>3d</fix>
</trkpt>
<trkpt lat="33.810313" lon="-118.393867">
  <ele>-0.12</ele>
  <time>2026-09-01T01:18:01Z</time>
  <course>285.26</course>
  <speed>0.0</speed>
  <fix>3d</fix>
</trkpt>
<trkpt lat="33.810313" lon="-118.393867">
  <ele>-0.12</ele>
  <time>2026-09-01T01:18:01Z</time>
  <course>148.92</course>
  <speed>0.0</speed>
  <fix>3d</fix>
</trkpt>
<trkpt lat="33.810313" lon="-118.393867">
  <ele>-0.12</ele>
  <time>2026-09-01T01:18:01Z</time>
  <course>285.26</course>
  <speed>0.0</speed>
  <fix>3d</fix>
</trkpt>
<trkpt lat="33.810313" lon="-118.393867">
  <ele>-0.121</ele>
  <time>2026-09-01T01:18:01Z</time>
  <course>148.94</course>
  <speed>0.0</speed>
  <fix>3d</fix>
</trkpt>
<trkpt lat="33.810313" lon="-118.393867">
  <ele>-0.12</ele>
  <time>2026-09-01T01:18:01Z</time>
  <course>285.26</course>
  <speed>0.0</speed>
  <fix>3d</fix>
</trkpt>
<trkpt lat="33.810313" lon="-118.393867">
  <ele>-0.122</ele>
  <time>2026-09-01T01:18:01Z</time>
  <course>142.99</course>
  <speed>0.0</speed>
  <fix>3d</fix>
</trkpt>
<trkpt lat="33.810313" lon="-118.393867">
  <ele>-0.12</ele>
  <time>2026-09-01T01:18:01Z</time>
  <course>285.26</course>
  <speed>0.0</speed>
  <fix>3d</fix>
</trkpt>
<trkpt lat="33.810313" lon="-118.393867">
  <ele>-0.122</ele>
  <time>2026-09-01T01:18:01Z</time>
  <course>129.71</course>
  <speed>0.0</speed>
  <fix>3d</fix>
</trkpt>
<trkpt lat="33.810313" lon="-118.393867">
  <ele>-0.12</ele>
  <time>2026-09-01T01:18:01Z</time>
  <course>285.26</course>
  <speed>0.0</speed>
  <fix>3d</fix>
</trkpt>
<trkpt lat="33.810313" lon="-118.393867">
  <ele>-0.121</ele>
  <time>2026-09-01T01:18:01Z</time>
  <course>119.35</course>
  <speed>0.0</speed>
  <fix>3d</fix>
</trkpt>
<trkpt lat="33.810313" lon="-118.393867">
  <ele>-0.12</ele>
  <time>2026-09-01T01:18:01Z</time>
  <course>285.26</course>
  <speed>0.0</speed>
  <fix>3d</fix>
</trkpt>
<trkpt lat="33.810313" lon="-118.393867">
  <ele>-0.12</ele>
  <time>2026-09-01T01:18:01Z</time>
  <course>112.97</course>
  <speed>0.0</speed>
  <fix>3d</fix>
</trkpt>
<trkpt lat="33.810313" lon="-118.393867">
  <ele>-0.12</ele>
  <time>2026-09-01T01:18:01Z</time>
  <course>285.26</course>
  <speed>0.0</speed>
  <fix>3d</fix>
</trkpt>
<trkpt lat="33.810313" lon="-118.393867">
  <ele>-0.118</ele>
  <time>2026-09-01T01:18:01Z</time>
  <course>109.08</course>
  <speed>0.0</speed>
  <fix>3d</fix>
</trkpt>
<trkpt lat="33.810313" lon="-118.393867">
  <ele>-0.12</ele>
  <time>2026-09-01T01:18:01Z</time>
  <course>285.26</course>
  <speed>0.0</speed>
  <fix>3d</fix>
</trkpt>
<trkpt lat="33.810313" lon="-118.393867">
  <ele>-0.116</ele>
  <time>2026-09-01T01:18:01Z</time>
  <course>107.26</course>
  <speed>0.0</speed>
  <fix>3d</fix>
</trkpt>
<trkpt lat="33.810313" lon="-118.393867">
  <ele>-0.12</ele>
  <time>2026-09-01T01:18:01Z</time>
  <course>285.26</course>
  <speed>0.0</speed>
  <fix>3d</fix>
</trkpt>
<trkpt lat="33.810313" lon="-118.393867">
  <ele>-0.114</ele>
  <time>2026-09-01T01:18:01Z</time>
  <course>106.17</course>
  <speed>0.0</speed>
  <fix>3d</fix>
</trkpt>
<trkpt lat="33.810313" lon="-118.393867">
  <ele>-0.12</ele>
  <time>2026-09-01T01:18:01Z</time>
  <course>285.26</course>
  <speed>0.0</speed>
  <fix>3d</fix>
</trkpt>
<trkpt lat="33.810313" lon="-118.393867">
  <ele>-0.113</ele>
  <time>2026-09-01T01:18:01Z</time>
  <course>105.53</course>
  <speed>0.0</speed>
  <fix>3d</fix>
</trkpt>
<trkpt lat="33.810313" lon="-118.393867">
  <ele>-0.12</ele>
  <time>2026-09-01T01:18:01Z</time>
  <course>285.26</course>
  <speed>0.0</speed>
  <fix>3d</fix>
</trkpt>
<trkpt lat="33.810313" lon="-118.393867">
  <ele>-0.115</ele>
  <time>2026-09-01T01:18:01Z</time>
  <course>104.97</course>
  <speed>0.0</speed>
  <fix>3d</fix>
</trkpt>
<trkpt lat="33.810313" lon="-118.393867">
  <ele>-0.12</ele>
  <time>2026-09-01T01:18:01Z</time>
  <course>285.26</course>
  <speed>0.0</speed>
  <fix>3d</fix>
</trkpt>
<trkpt lat="33.810313" lon="-118.393867">
  <ele>-0.116</ele>
  <time>2026-09-01T01:18:01Z</time>
  <course>104.48</course>
  <speed>0.0</speed>
  <fix>3d</fix>
</trkpt>
<trkpt lat="33.810313" lon="-118.393867">
  <ele>-0.12</ele>
  <time>2026-09-01T01:18:01Z</time>
  <course>285.26</course>
  <speed>0.0</speed>
  <fix>3d</fix>
</trkpt>
<trkpt lat="33.810313" lon="-118.393867">
  <ele>-0.118</ele>
  <time>2026-09-01T01:18:01Z</time>
  <course>104.05</course>
  <speed>0.0</speed>
  <fix>3d</fix>
</trkpt>
<trkpt lat="33.810313" lon="-118.393867">
  <ele>-0.12</ele>
  <time>2026-09-01T01:18:01Z</time>
  <course>285.26</course>
  <speed>0.0</speed>
  <fix>3d</fix>
</trkpt>
<trkpt lat="33.810313" lon="-118.393867">
  <ele>-0.119</ele>
  <time>2026-09-01T01:18:01Z</time>
  <course>103.72</course>
  <speed>0.0</speed>
  <fix>3d</fix>
</trkpt>
<trkpt lat="33.810313" lon="-118.393867">
  <ele>-0.12</ele>
  <time>2026-09-01T01:18:01Z</time>
  <course>285.26</course>
  <speed>0.0</speed>
  <fix>3d</fix>
</trkpt>
<trkpt lat="33.810313" lon="-118.393867">
  <ele>-0.12</ele>
  <time>2026-09-01T01:18:01Z</time>
  <course>103.46</course>
  <speed>0.0</speed>
  <fix>3d</fix>
</trkpt>
<trkpt lat="33.810313" lon="-118.393867">
  <ele>-0.12</ele>
  <time>2026-09-01T01:18:01Z</time>
  <course>285.26</course>
  <speed>0.0</speed>
  <fix>3d</fix>
</trkpt>
<trkpt lat="33.810313" lon="-118.393867">
  <ele>-0.12</ele>
  <time>2026-09-01T01:18:01Z</time>
  <course>103.28</course>
  <speed>0.0</speed>
  <fix>3d</fix>
</trkpt>
<trkpt lat="33.810313" lon="-118.393867">
  <ele>-0.12</ele>
  <time>2026-09-01T01:18:01Z</time>
  <course>285.26</course>
  <speed>0.0</speed>
  <fix>3d</fix>
</trkpt>
<trkpt lat="33.810313" lon="-118.393867">
  <ele>-0.118</ele>
  <time>2026-09-01T01:18:01Z</time>
  <course>103.15</course>
  <speed>0.0</speed>
  <fix>3d</fix>
</trkpt>
<trkpt lat="33.810313" lon="-118.393867">
  <ele>-0.12</ele>
  <time>2026-09-01T01:18:01Z</time>
  <course>285.26</course>
  <speed>0.0</speed>
  <fix>3d</fix>
</trkpt>
<trkpt lat="33.810313" lon="-118.393867">
  <ele>-0.117</ele>
  <time>2026-09-01T01:18:01Z</time>
  <course>103.07</course>
  <speed>0.0</speed>
  <fix>3d</fix>
</trkpt>
<trkpt lat="33.810313" lon="-118.393867">
  <ele>-0.12</ele>
  <time>2026-09-01T01:18:01Z</time>
  <course>285.26</course>
  <speed>0.0</speed>
  <fix>3d</fix>
</trkpt>
<trkpt lat="33.810313" lon="-118.393867">
  <ele>-0.115</ele>
  <time>2026-09-01T01:18:01Z</time>
  <course>103.0</course>
  <speed>0.0</speed>
  <fix>3d</fix>
</trkpt>
<trkpt lat="33.810313" lon="-118.393867">
  <ele>-0.12</ele>
  <time>2026-09-01T01:18:01Z</time>
  <course>285.26</course>
  <speed>0.0</speed>
  <fix>3d</fix>
</trkpt>
<trkpt lat="33.810313" lon="-118.393867">
  <ele>-0.114</ele>
  <time>2026-09-01T01:18:01Z</time>
  <course>102.94</course>
  <speed>0.0</speed>
  <fix>3d</fix>
</trkpt>
<trkpt lat="33.810313" lon="-118.393867">
  <ele>-0.12</ele>
  <time>2026-09-01T01:18:01Z</time>
  <course>285.26</course>
  <speed>0.0</speed>
  <fix>3d</fix>
</trkpt>
<trkpt lat="33.810313" lon="-118.393867">
  <ele>-0.115</ele>
  <time>2026-09-01T01:18:01Z</time>
  <course>102.89</course>
  <speed>0.0</speed>
  <fix>3d</fix>
</trkpt>
<trkpt lat="33.810313" lon="-118.393867">
  <ele>-0.12</ele>
  <time>2026-09-01T01:18:01Z</time>
  <course>285.26</course>
  <speed>0.0</speed>
  <fix>3d</fix>
</trkpt>
<trkpt lat="33.810313" lon="-118.393867">
  <ele>-0.115</ele>
  <time>2026-09-01T01:18:01Z</time>
  <course>102.87</course>
  <speed>0.0</speed>
  <fix>3d</fix>
</trkpt>
<trkpt lat="33.810313" lon="-118.393867">
  <ele>-0.12</ele>
  <time>2026-09-01T01:18:01Z</time>
  <course>285.26</course>
  <speed>0.0</speed>
  <fix>3d</fix>
</trkpt>
<trkpt lat="33.810313" lon="-118.393867">
  <ele>-0.116</ele>
  <time>2026-09-01T01:18:01Z</time>
  <course>102.85</course>
  <speed>0.0</speed>
  <fix>3d</fix>
</trkpt>
<trkpt lat="33.810313" lon="-118.393867">
  <ele>-0.12</ele>
  <time>2026-09-01T01:18:01Z</time>
  <course>285.26</course>
  <speed>0.0</speed>
  <fix>3d</fix>
</trkpt>
<trkpt lat="33.810313" lon="-118.393867">
  <ele>-0.116</ele>
  <time>2026-09-01T01:18:01Z</time>
  <course>102.84</course>
  <speed>0.0</speed>
  <fix>3d</fix>
</trkpt>
<trkpt lat="33.810313" lon="-118.393867">
  <ele>-0.12</ele>
  <time>2026-09-01T01:18:01Z</time>
  <course>285.26</course>
  <speed>0.0</speed>
  <fix>3d</fix>
</trkpt>
<trkpt lat="33.810313" lon="-118.393867">
  <ele>-0.116</ele>
  <time>2026-09-01T01:18:01Z</time>
  <course>102.84</course>
  <speed>0.0</speed>
  <fix>3d</fix>
</trkpt>
<trkpt lat="33.810313" lon="-118.393867">
  <ele>-0.12</ele>
  <time>2026-09-01T01:18:01Z</time>
  <course>285.26</course>
  <speed>0.0</speed>
  <fix>3d</fix>
</trkpt>
<trkpt lat="33.810313" lon="-118.393867">
  <ele>-0.115</ele>
  <time>2026-09-01T01:18:01Z</time>
  <course>102.84</course>
  <speed>0.0</speed>
  <fix>3d</fix>
</trkpt>
<trkpt lat="33.810313" lon="-118.393867">
  <ele>-0.12</ele>
  <time>2026-09-01T01:18:01Z</time>
  <course>285.26</course>
  <speed>0.0</speed>
  <fix>3d</fix>
</trkpt>
<trkpt lat="33.810313" lon="-118.393867">
  <ele>-0.114</ele>
  <time>2026-09-01T01:18:01Z</time>
  <course>102.84</course>
  <speed>0.0</speed>
  <fix>3d</fix>
</trkpt>
<trkpt lat="33.810313" lon="-118.393867">
  <ele>-0.12</ele>
  <time>2026-09-01T01:18:01Z</time>
  <course>285.26</course>
  <speed>0.0</speed>
  <fix>3d</fix>
</trkpt>
<trkpt lat="33.810313" lon="-118.393867">
  <ele>-0.112</ele>
  <time>2026-09-01T01:18:01Z</time>
  <course>102.85</course>
  <speed>0.0</speed>
  <fix>3d</fix>
</trkpt>
<trkpt lat="33.810313" lon="-118.393867">
  <ele>-0.12</ele>
  <time>2026-09-01T01:18:01Z</time>
  <course>285.26</course>
  <speed>0.0</speed>
  <fix>3d</fix>
</trkpt>
<trkpt lat="33.810313" lon="-118.393867">
  <ele>-0.112</ele>
  <time>2026-09-01T01:18:01Z</time>
  <course>102.86</course>
  <speed>0.0</speed>
  <fix>3d</fix>
</trkpt>
<trkpt lat="33.810313" lon="-118.393867">
  <ele>-0.12</ele>
  <time>2026-09-01T01:18:01Z</time>
  <course>285.26</course>
  <speed>0.0</speed>
  <fix>3d</fix>
</trkpt>
<trkpt lat="33.810313" lon="-118.393867">
  <ele>-0.111</ele>
  <time>2026-09-01T01:18:01Z</time>
  <course>102.87</course>
  <speed>0.0</speed>
  <fix>3d</fix>
</trkpt>
<trkpt lat="33.810313" lon="-118.393867">
  <ele>-0.12</ele>
  <time>2026-09-01T01:18:01Z</time>
  <course>285.26</course>
  <speed>0.0</speed>
  <fix>3d</fix>
</trkpt>
<trkpt lat="33.810313" lon="-118.393867">
  <ele>-0.111</ele>
  <time>2026-09-01T01:18:01Z</time>
  <course>102.89</course>
  <speed>0.0</speed>
  <fix>3d</fix>
</trkpt>
<trkpt lat="33.810313" lon="-118.393867">
  <ele>-0.12</ele>
  <time>2026-09-01T01:18:01Z</time>
  <course>285.26</course>
  <speed>0.0</speed>
  <fix>3d</fix>
</trkpt>
<trkpt lat="33.810313" lon="-118.393867">
  <ele>-0.112</ele>
  <time>2026-09-01T01:18:01Z</time>
  <course>102.9</course>
  <speed>0.0</speed>
  <fix>3d</fix>
</trkpt>
<trkpt lat="33.810313" lon="-118.393867">
  <ele>-0.12</ele>
  <time>2026-09-01T01:18:01Z</time>
  <course>285.26</course>
  <speed>0.0</speed>
  <fix>3d</fix>
</trkpt>
<trkpt lat="33.810313" lon="-118.393867">
  <ele>-0.114</ele>
  <time>2026-09-01T01:18:01Z</time>
  <course>102.92</course>
  <speed>0.0</speed>
  <fix>3d</fix>
</trkpt>
<trkpt lat="33.810313" lon="-118.393867">
  <ele>-0.12</ele>
  <time>2026-09-01T01:18:01Z</time>
  <course>285.26</course>
  <speed>0.0</speed>
  <fix>3d</fix>
</trkpt>
<trkpt lat="33.810313" lon="-118.393867">
  <ele>-0.115</ele>
  <time>2026-09-01T01:18:01Z</time>
  <course>102.94</course>
  <speed>0.0</speed>
  <fix>3d</fix>
</trkpt>
<trkpt lat="33.810313" lon="-118.393867">
  <ele>-0.12</ele>
  <time>2026-09-01T01:18:01Z</time>
  <course>285.26</course>
  <speed>0.0</speed>
  <fix>3d</fix>
</trkpt>
<trkpt lat="33.810313" lon="-118.393867">
  <ele>-0.115</ele>
  <time>2026-09-01T01:18:01Z</time>
  <course>102.95</course>
  <speed>0.0</speed>
  <fix>3d</fix>
</trkpt>
<trkpt lat="33.810313" lon="-118.393867">
  <ele>-0.12</ele>
  <time>2026-09-01T01:18:01Z</time>
  <course>285.26</course>
  <speed>0.0</speed>
  <fix>3d</fix>
</trkpt>
<trkpt lat="33.810313" lon="-118.393867">
  <ele>-0.115</ele>
  <time>2026-09-01T01:18:01Z</time>
  <course>102.92</course>
  <speed>0.0</speed>
  <fix>3d</fix>
</trkpt>
<trkpt lat="33.810313" lon="-118.393867">
  <ele>-0.12</ele>
  <time>2026-09-01T01:18:01Z</time>
  <course>285.26</course>
  <speed>0.0</speed>
  <fix>3d</fix>
</trkpt>
<trkpt lat="33.810313" lon="-118.393867">
  <ele>-0.116</ele>
  <time>2026-09-01T01:18:01Z</time>
  <course>102.94</course>
  <speed>0.0</speed>
  <fix>3d</fix>
</trkpt>
<trkpt lat="33.810313" lon="-118.393867">
  <ele>-0.12</ele>
  <time>2026-09-01T01:18:01Z</time>
  <course>285.26</course>
  <speed>0.0</speed>
  <fix>3d</fix>
</trkpt>
<trkpt lat="33.810313" lon="-118.393867">
  <ele>-0.115</ele>
  <time>2026-09-01T01:18:01Z</time>
  <course>102.96</course>
  <speed>0.0</speed>
  <fix>3d</fix>
</trkpt>
<trkpt lat="33.810313" lon="-118.393867">
  <ele>-0.12</ele>
  <time>2026-09-01T01:18:01Z</time>
  <course>285.26</course>
  <speed>0.0</speed>
  <fix>3d</fix>
</trkpt>
<trkpt lat="33.810313" lon="-118.393867">
  <ele>-0.115</ele>
  <time>2026-09-01T01:18:01Z</time>
  <course>102.98</course>
  <speed>0.0</speed>
  <fix>3d</fix>
</trkpt>
<trkpt lat="33.810313" lon="-118.393867">
  <ele>-0.12</ele>
  <time>2026-09-01T01:18:01Z</time>
  <course>285.26</course>
  <speed>0.0</speed>
  <fix>3d</fix>
</trkpt>
<trkpt lat="33.810313" lon="-118.393867">
  <ele>-0.116</ele>
  <time>2026-09-01T01:18:01Z</time>
  <course>103.0</course>
  <speed>0.0</speed>
  <fix>3d</fix>
</trkpt>
<trkpt lat="33.810313" lon="-118.393867">
  <ele>-0.12</ele>
  <time>2026-09-01T01:18:01Z</time>
  <course>285.26</course>
  <speed>0.0</speed>
  <fix>3d</fix>
</trkpt>
<trkpt lat="33.810313" lon="-118.393867">
  <ele>-0.118</ele>
  <time>2026-09-01T01:18:01Z</time>
  <course>103.01</course>
  <speed>0.0</speed>
  <fix>3d</fix>
</trkpt>
<trkpt lat="33.810313" lon="-118.393867">
  <ele>-0.12</ele>
  <time>2026-09-01T01:18:01Z</time>
  <course>285.26</course>
  <speed>0.0</speed>
  <fix>3d</fix>
</trkpt>
<trkpt lat="33.810313" lon="-118.393867">
  <ele>-0.121</ele>
  <time>2026-09-01T01:18:01Z</time>
  <course>103.03</course>
  <speed>0.0</speed>
  <fix>3d</fix>
</trkpt>
<trkpt lat="33.810313" lon="-118.393867">
  <ele>-0.12</ele>
  <time>2026-09-01T01:18:01Z</time>
  <course>285.26</course>
  <speed>0.0</speed>
  <fix>3d</fix>
</trkpt>
<trkpt lat="33.810313" lon="-118.393867">
  <ele>-0.125</ele>
  <time>2026-09-01T01:18:01Z</time>
  <course>103.05</course>
  <speed>0.0</speed>
  <fix>3d</fix>
</trkpt>
<trkpt lat="33.810313" lon="-118.393867">
  <ele>-0.12</ele>
  <time>2026-09-01T01:18:01Z</time>
  <course>285.26</course>
  <speed>0.0</speed>
  <fix>3d</fix>
</trkpt>
<trkpt lat="33.810313" lon="-118.393867">
  <ele>-0.128</ele>
  <time>2026-09-01T01:18:01Z</time>
  <course>103.06</course>
  <speed>0.0</speed>
  <fix>3d</fix>
</trkpt>
<trkpt lat="33.810313" lon="-118.393867">
  <ele>-0.12</ele>
  <time>2026-09-01T01:18:01Z</time>
  <course>285.26</course>
  <speed>0.0</speed>
  <fix>3d</fix>
</trkpt>
<trkpt lat="33.810313" lon="-118.393867">
  <ele>-0.13</ele>
  <time>2026-09-01T01:18:01Z</time>
  <course>103.08</course>
  <speed>0.0</speed>
  <fix>3d</fix>
</trkpt>
<trkpt lat="33.810313" lon="-118.393867">
  <ele>-0.12</ele>
  <time>2026-09-01T01:18:01Z</time>
  <course>285.26</course>
  <speed>0.0</speed>
  <fix>3d</fix>
</trkpt>
<trkpt lat="33.4368002" lon="-117.0859339">
  <ele>-0.11</ele>
  <time>2026-09-01T01:18:03Z</time>
  <course>0.0</course>
  <speed>0.0</speed>
  <fix>3d</fix>
</trkpt>
<trkpt lat="33.4368002" lon="-117.0859339">
  <ele>-0.11</ele>
  <time>2026-09-01T01:18:03Z</time>
  <course>0.0</course>
  <speed>0.0</speed>
  <fix>3d</fix>
</trkpt>
<trkpt lat="33.810313" lon="-118.393867">
  <ele>0.0</ele>
  <time>2026-09-01T01:18:03Z</time>
  <course>173.5</course>
  <speed>0.0</speed>
  <fix>3d</fix>
</trkpt>
<trkpt lat="33.810313" lon="-118.393867">
  <ele>-0.11</ele>
  <time>2026-09-01T01:18:03Z</time>
  <course>0.0</course>
  <speed>0.0</speed>
  <fix>3d</fix>
</trkpt>
<trkpt lat="33.810313" lon="-118.393867">
  <ele>0.0</ele>
  <time>2026-09-01T01:18:03Z</time>
  <course>173.64</course>
  <speed>0.0</speed>
  <fix>3d</fix>
</trkpt>
<trkpt lat="33.810313" lon="-118.393867">
  <ele>-0.11</ele>
  <time>2026-09-01T01:18:03Z</time>
  <course>0.0</course>
  <speed>0.0</speed>
  <fix>3d</fix>
</trkpt>
<trkpt lat="33.810313" lon="-118.393867">
  <ele>0.0</ele>
  <time>2026-09-01T01:18:03Z</time>
  <course>174.03</course>
  <speed>0.0</speed>
  <fix>3d</fix>
</trkpt>
<trkpt lat="33.810313" lon="-118.393867">
  <ele>-0.11</ele>
  <time>2026-09-01T01:18:03Z</time>
  <course>0.0</course>
  <speed>0.0</speed>
  <fix>3d</fix>
</trkpt>
<trkpt lat="33.810313" lon="-118.393867">
  <ele>0.0</ele>
  <time>2026-09-01T01:18:03Z</time>
  <course>174.57</course>
  <speed>0.0</speed>
  <fix>3d</fix>
</trkpt>
<trkpt lat="33.810313" lon="-118.393867">
  <ele>-0.11</ele>
  <time>2026-09-01T01:18:03Z</time>
  <course>0.0</course>
  <speed>0.0</speed>
  <fix>3d</fix>
</trkpt>
<trkpt lat="33.810313" lon="-118.393867">
  <ele>0.0</ele>
  <time>2026-09-01T01:18:03Z</time>
  <course>175.13</course>
  <speed>0.0</speed>
  <fix>3d</fix>
</trkpt>
<trkpt lat="33.810313" lon="-118.393867">
  <ele>-0.12</ele>
  <time>2026-09-01T01:18:03Z</time>
  <course>0.0</course>
  <speed>0.0</speed>
  <fix>3d</fix>
</trkpt>
<trkpt lat="33.810313" lon="-118.393867">
  <ele>0.0</ele>
  <time>2026-09-01T01:18:03Z</time>
  <course>175.67</course>
  <speed>0.0</speed>
  <fix>3d</fix>
</trkpt>
<trkpt lat="33.810313" lon="-118.393867">
  <ele>-0.12</ele>
  <time>2026-09-01T01:18:03Z</time>
  <course>0.0</course>
  <speed>0.0</speed>
  <fix>3d</fix>
</trkpt>
<trkpt lat="33.810313" lon="-118.393867">
  <ele>0.0</ele>
  <time>2026-09-01T01:18:03Z</time>
  <course>176.17</course>
  <speed>0.0</speed>
  <fix>3d</fix>
</trkpt>
<trkpt lat="33.810313" lon="-118.393867">
  <ele>-0.13</ele>
  <time>2026-09-01T01:18:03Z</time>
  <course>0.0</course>
  <speed>0.0</speed>
  <fix>3d</fix>
</trkpt>
<trkpt lat="33.810313" lon="-118.393867">
  <ele>0.0</ele>
  <time>2026-09-01T01:18:03Z</time>
  <course>176.65</course>
  <speed>0.0</speed>
  <fix>3d</fix>
</trkpt>
<trkpt lat="33.810313" lon="-118.393867">
  <ele>-0.13</ele>
  <time>2026-09-01T01:18:03Z</time>
  <course>0.0</course>
  <speed>0.0</speed>
  <fix>3d</fix>
</trkpt>
<trkpt lat="33.810313" lon="-118.393867">
  <ele>0.0</ele>
  <time>2026-09-01T01:18:03Z</time>
  <course>177.12</course>
  <speed>0.0</speed>
  <fix>3d</fix>
</trkpt>
<trkpt lat="33.810313" lon="-118.393867">
  <ele>-0.13</ele>
  <time>2026-09-01T01:18:03Z</time>
  <course>0.0</course>
  <speed>0.0</speed>
  <fix>3d</fix>
</trkpt>
<trkpt lat="33.810313" lon="-118.393867">
  <ele>0.0</ele>
  <time>2026-09-01T01:18:03Z</time>
  <course>177.57</course>
  <speed>0.0</speed>
  <fix>3d</fix>
</trkpt>
<trkpt lat="33.810313" lon="-118.393867">
  <ele>-0.13</ele>
  <time>2026-09-01T01:18:03Z</time>
  <course>0.0</course>
  <speed>0.0</speed>
  <fix>3d</fix>
</trkpt>
<trkpt lat="33.810313" lon="-118.393867">
  <ele>0.0</ele>
  <time>2026-09-01T01:18:03Z</time>
  <course>178.02</course>
  <speed>0.0</speed>
  <fix>3d</fix>
</trkpt>
<trkpt lat="33.810313" lon="-118.393867">
  <ele>-0.14</ele>
  <time>2026-09-01T01:18:03Z</time>
  <course>0.0</course>
  <speed>0.0</speed>
  <fix>3d</fix>
</trkpt>
<trkpt lat="33.810313" lon="-118.393867">
  <ele>0.0</ele>
  <time>2026-09-01T01:18:03Z</time>
  <course>178.45</course>
  <speed>0.0</speed>
  <fix>3d</fix>
</trkpt>
<trkpt lat="33.810313" lon="-118.393867">
  <ele>-0.14</ele>
  <time>2026-09-01T01:18:03Z</time>
  <course>0.0</course>
  <speed>0.0</speed>
  <fix>3d</fix>
</trkpt>
<trkpt lat="33.810313" lon="-118.393867">
  <ele>0.0</ele>
  <time>2026-09-01T01:18:03Z</time>
  <course>178.87</course>
  <speed>0.0</speed>
  <fix>3d</fix>
</trkpt>
<trkpt lat="33.810313" lon="-118.393867">
  <ele>-0.14</ele>
  <time>2026-09-01T01:18:03Z</time>
  <course>0.0</course>
  <speed>0.0</speed>
  <fix>3d</fix>
</trkpt>
<trkpt lat="33.810313" lon="-118.393867">
  <ele>0.0</ele>
  <time>2026-09-01T01:18:03Z</time>
  <course>179.27</course>
  <speed>0.0</speed>
  <fix>3d</fix>
</trkpt>
<trkpt lat="33.810313" lon="-118.393867">
  <ele>-0.14</ele>
  <time>2026-09-01T01:18:03Z</time>
  <course>0.0</course>
  <speed>0.0</speed>
  <fix>3d</fix>
</trkpt>
<trkpt lat="33.810313" lon="-118.393867">
  <ele>0.0</ele>
  <time>2026-09-01T01:18:03Z</time>
  <course>179.66</course>
  <speed>0.0</speed>
  <fix>3d</fix>
</trkpt>
<trkpt lat="33.810313" lon="-118.393867">
  <ele>-0.14</ele>
  <time>2026-09-01T01:18:03Z</time>
  <course>0.0</course>
  <speed>0.0</speed>
  <fix>3d</fix>
</trkpt>
<trkpt lat="33.810313" lon="-118.393867">
  <ele>0.0</ele>
  <time>2026-09-01T01:18:03Z</time>
  <course>180.05</course>
  <speed>0.0</speed>
  <fix>3d</fix>
</trkpt>
<trkpt lat="33.810313" lon="-118.393867">
  <ele>-0.14</ele>
  <time>2026-09-01T01:18:03Z</time>
  <course>0.0</course>
  <speed>0.0</speed>
  <fix>3d</fix>
</trkpt>
<trkpt lat="33.810313" lon="-118.393867">
  <ele>0.0</ele>
  <time>2026-09-01T01:18:03Z</time>
  <course>180.41</course>
  <speed>0.0</speed>
  <fix>3d</fix>
</trkpt>
<trkpt lat="33.810313" lon="-118.393867">
  <ele>-0.14</ele>
  <time>2026-09-01T01:18:03Z</time>
  <course>0.0</course>
  <speed>0.0</speed>
  <fix>3d</fix>
</trkpt>
<trkpt lat="33.810313" lon="-118.393867">
  <ele>0.0</ele>
  <time>2026-09-01T01:18:03Z</time>
  <course>180.76</course>
  <speed>0.0</speed>
  <fix>3d</fix>
</trkpt>
<trkpt lat="33.810313" lon="-118.393867">
  <ele>-0.14</ele>
  <time>2026-09-01T01:18:03Z</time>
  <course>0.0</course>
  <speed>0.0</speed>
  <fix>3d</fix>
</trkpt>
<trkpt lat="33.810313" lon="-118.393867">
  <ele>0.0</ele>
  <time>2026-09-01T01:18:03Z</time>
  <course>181.1</course>
  <speed>0.0</speed>
  <fix>3d</fix>
</trkpt>
<trkpt lat="33.810313" lon="-118.393867">
  <ele>-0.13</ele>
  <time>2026-09-01T01:18:03Z</time>
  <course>0.0</course>
  <speed>0.0</speed>
  <fix>3d</fix>
</trkpt>
<trkpt lat="33.810313" lon="-118.393867">
  <ele>0.0</ele>
  <time>2026-09-01T01:18:03Z</time>
  <course>181.43</course>
  <speed>0.0</speed>
  <fix>3d</fix>
</trkpt>
<trkpt lat="33.810313" lon="-118.393867">
  <ele>-0.13</ele>
  <time>2026-09-01T01:18:03Z</time>
  <course>0.0</course>
  <speed>0.0</speed>
  <fix>3d</fix>
</trkpt>
<trkpt lat="33.810313" lon="-118.393867">
  <ele>0.0</ele>
  <time>2026-09-01T01:18:03Z</time>
  <course>181.75</course>
  <speed>0.0</speed>
  <fix>3d</fix>
</trkpt>
<trkpt lat="33.810313" lon="-118.393867">
  <ele>-0.12</ele>
  <time>2026-09-01T01:18:03Z</time>
  <course>0.0</course>
  <speed>0.0</speed>
  <fix>3d</fix>
</trkpt>
<trkpt lat="33.810313" lon="-118.393867">
  <ele>0.0</ele>
  <time>2026-09-01T01:18:03Z</time>
  <course>182.05</course>
  <speed>0.0</speed>
  <fix>3d</fix>
</trkpt>
<trkpt lat="33.810313" lon="-118.393867">
  <ele>-0.12</ele>
  <time>2026-09-01T01:18:03Z</time>
  <course>0.0</course>
  <speed>0.0</speed>
  <fix>3d</fix>
</trkpt>
<trkpt lat="33.810313" lon="-118.393867">
  <ele>0.0</ele>
  <time>2026-09-01T01:18:03Z</time>
  <course>182.35</course>
  <speed>0.0</speed>
  <fix>3d</fix>
</trkpt>
<trkpt lat="33.810313" lon="-118.393867">
  <ele>-0.12</ele>
  <time>2026-09-01T01:18:03Z</time>
  <course>0.0</course>
  <speed>0.0</speed>
  <fix>3d</fix>
</trkpt>
<trkpt lat="33.810313" lon="-118.393867">
  <ele>0.0</ele>
  <time>2026-09-01T01:18:03Z</time>
  <course>182.63</course>
  <speed>0.0</speed>
  <fix>3d</fix>
</trkpt>
<trkpt lat="33.810313" lon="-118.393867">
  <ele>-0.12</ele>
  <time>2026-09-01T01:18:03Z</time>
  <course>0.0</course>
  <speed>0.0</speed>
  <fix>3d</fix>
</trkpt>
<trkpt lat="33.810313" lon="-118.393867">
  <ele>0.0</ele>
  <time>2026-09-01T01:18:03Z</time>
  <course>182.9</course>
  <speed>0.0</speed>
  <fix>3d</fix>
</trkpt>
<trkpt lat="33.810313" lon="-118.393867">
  <ele>-0.11</ele>
  <time>2026-09-01T01:18:03Z</time>
  <course>0.0</course>
  <speed>0.0</speed>
  <fix>3d</fix>
</trkpt>
<trkpt lat="33.810313" lon="-118.393867">
  <ele>0.0</ele>
  <time>2026-09-01T01:18:03Z</time>
  <course>183.16</course>
  <speed>0.0</speed>
  <fix>3d</fix>
</trkpt>
<trkpt lat="33.810313" lon="-118.393867">
  <ele>-0.11</ele>
  <time>2026-09-01T01:18:03Z</time>
  <course>0.0</course>
  <speed>0.0</speed>
  <fix>3d</fix>
</trkpt>
<trkpt lat="33.810313" lon="-118.393867">
  <ele>0.0</ele>
  <time>2026-09-01T01:18:03Z</time>
  <course>183.41</course>
  <speed>0.0</speed>
  <fix>3d</fix>
</trkpt>
<trkpt lat="33.810313" lon="-118.393867">
  <ele>-0.11</ele>
  <time>2026-09-01T01:18:03Z</time>
  <course>0.0</course>
  <speed>0.0</speed>
  <fix>3d</fix>
</trkpt>
<trkpt lat="33.810313" lon="-118.393867">
  <ele>0.0</ele>
  <time>2026-09-01T01:18:03Z</time>
  <course>183.65</course>
  <speed>0.0</speed>
  <fix>3d</fix>
</trkpt>
<trkpt lat="33.810313" lon="-118.393867">
  <ele>-0.11</ele>
  <time>2026-09-01T01:18:03Z</time>
  <course>0.0</course>
  <speed>0.0</speed>
  <fix>3d</fix>
</trkpt>
<trkpt lat="33.810313" lon="-118.393867">
  <ele>0.0</ele>
  <time>2026-09-01T01:18:03Z</time>
  <course>183.88</course>
  <speed>0.0</speed>
  <fix>3d</fix>
</trkpt>
<trkpt lat="33.810313" lon="-118.393867">
  <ele>-0.12</ele>
  <time>2026-09-01T01:18:03Z</time>
  <course>0.0</course>
  <speed>0.0</speed>
  <fix>3d</fix>
</trkpt>
<trkpt lat="33.810313" lon="-118.393867">
  <ele>0.0</ele>
  <time>2026-09-01T01:18:03Z</time>
  <course>184.11</course>
  <speed>0.0</speed>
  <fix>3d</fix>
</trkpt>
<trkpt lat="33.810313" lon="-118.393867">
  <ele>-0.12</ele>
  <time>2026-09-01T01:18:03Z</time>
  <course>0.0</course>
  <speed>0.0</speed>
  <fix>3d</fix>
</trkpt>
<trkpt lat="33.810313" lon="-118.393867">
  <ele>0.0</ele>
  <time>2026-09-01T01:18:03Z</time>
  <course>184.32</course>
  <speed>0.0</speed>
  <fix>3d</fix>
</trkpt>
<trkpt lat="33.810313" lon="-118.393867">
  <ele>-0.13</ele>
  <time>2026-09-01T01:18:03Z</time>
  <course>0.0</course>
  <speed>0.0</speed>
  <fix>3d</fix>
</trkpt>
<trkpt lat="33.810313" lon="-118.393867">
  <ele>0.0</ele>
  <time>2026-09-01T01:18:03Z</time>
  <course>184.52</course>
  <speed>0.0</speed>
  <fix>3d</fix>
</trkpt>
<trkpt lat="33.810313" lon="-118.393867">
  <ele>-0.13</ele>
  <time>2026-09-01T01:18:03Z</time>
  <course>0.0</course>
  <speed>0.0</speed>
  <fix>3d</fix>
</trkpt>
<trkpt lat="33.810313" lon="-118.393867">
  <ele>0.0</ele>
  <time>2026-09-01T01:18:03Z</time>
  <course>184.72</course>
  <speed>0.0</speed>
  <fix>3d</fix>
</trkpt>
<trkpt lat="33.810313" lon="-118.393867">
  <ele>-0.13</ele>
  <time>2026-09-01T01:18:03Z</time>
  <course>0.0</course>
  <speed>0.0</speed>
  <fix>3d</fix>
</trkpt>
<trkpt lat="33.810313" lon="-118.393867">
  <ele>0.0</ele>
  <time>2026-09-01T01:18:03Z</time>
  <course>184.91</course>
  <speed>0.0</speed>
  <fix>3d</fix>
</trkpt>
<trkpt lat="33.810313" lon="-118.393867">
  <ele>-0.13</ele>
  <time>2026-09-01T01:18:03Z</time>
  <course>0.0</course>
  <speed>0.0</speed>
  <fix>3d</fix>
</trkpt>
<trkpt lat="33.810313" lon="-118.393867">
  <ele>0.0</ele>
  <time>2026-09-01T01:18:03Z</time>
  <course>185.09</course>
  <speed>0.0</speed>
  <fix>3d</fix>
</trkpt>
<trkpt lat="33.810313" lon="-118.393867">
  <ele>-0.14</ele>
  <time>2026-09-01T01:18:03Z</time>
  <course>0.0</course>
  <speed>0.0</speed>
  <fix>3d</fix>
</trkpt>
<trkpt lat="33.810313" lon="-118.393867">
  <ele>0.0</ele>
  <time>2026-09-01T01:18:03Z</time>
  <course>185.26</course>
  <speed>0.0</speed>
  <fix>3d</fix>
</trkpt>
<trkpt lat="33.810313" lon="-118.393867">
  <ele>-0.14</ele>
  <time>2026-09-01T01:18:03Z</time>
  <course>0.0</course>
  <speed>0.0</speed>
  <fix>3d</fix>
</trkpt>
<trkpt lat="33.810313" lon="-118.393867">
  <ele>0.0</ele>
  <time>2026-09-01T01:18:03Z</time>
  <course>185.42</course>
  <speed>0.0</speed>
  <fix>3d</fix>
</trkpt>
<trkpt lat="33.810313" lon="-118.393867">
  <ele>-0.13</ele>
  <time>2026-09-01T01:18:03Z</time>
  <course>0.0</course>
  <speed>0.0</speed>
  <fix>3d</fix>
</trkpt>
<trkpt lat="33.810313" lon="-118.393867">
  <ele>0.0</ele>
  <time>2026-09-01T01:18:03Z</time>
  <course>185.58</course>
  <speed>0.0</speed>
  <fix>3d</fix>
</trkpt>
<trkpt lat="33.810313" lon="-118.393867">
  <ele>-0.13</ele>
  <time>2026-09-01T01:18:03Z</time>
  <course>0.0</course>
  <speed>0.0</speed>
  <fix>3d</fix>
</trkpt>
<trkpt lat="33.810313" lon="-118.393867">
  <ele>0.0</ele>
  <time>2026-09-01T01:18:03Z</time>
  <course>185.73</course>
  <speed>0.0</speed>
  <fix>3d</fix>
</trkpt>
<trkpt lat="33.810313" lon="-118.393867">
  <ele>-0.13</ele>
  <time>2026-09-01T01:18:03Z</time>
  <course>0.0</course>
  <speed>0.0</speed>
  <fix>3d</fix>
</trkpt>
<trkpt lat="33.810313" lon="-118.393867">
  <ele>0.0</ele>
  <time>2026-09-01T01:18:03Z</time>
  <course>185.87</course>
  <speed>0.0</speed>
  <fix>3d</fix>
</trkpt>
<trkpt lat="33.810313" lon="-118.393867">
  <ele>-0.13</ele>
  <time>2026-09-01T01:18:03Z</time>
  <course>0.0</course>
  <speed>0.0</speed>
  <fix>3d</fix>
</trkpt>
<trkpt lat="33.810313" lon="-118.393867">
  <ele>0.0</ele>
  <time>2026-09-01T01:18:03Z</time>
  <course>186.01</course>
  <speed>0.0</speed>
  <fix>3d</fix>
</trkpt>
<trkpt lat="33.810313" lon="-118.393867">
  <ele>-0.12</ele>
  <time>2026-09-01T01:18:03Z</time>
  <course>0.0</course>
  <speed>0.0</speed>
  <fix>3d</fix>
</trkpt>
<trkpt lat="33.810313" lon="-118.393867">
  <ele>0.0</ele>
  <time>2026-09-01T01:18:03Z</time>
  <course>186.14</course>
  <speed>0.0</speed>
  <fix>3d</fix>
</trkpt>
<trkpt lat="33.810313" lon="-118.393867">
  <ele>-0.12</ele>
  <time>2026-09-01T01:18:03Z</time>
  <course>0.0</course>
  <speed>0.0</speed>
  <fix>3d</fix>
</trkpt>
<trkpt lat="33.810313" lon="-118.393867">
  <ele>0.0</ele>
  <time>2026-09-01T01:18:03Z</time>
  <course>186.27</course>
  <speed>0.0</speed>
  <fix>3d</fix>
</trkpt>
<trkpt lat="33.810313" lon="-118.393867">
  <ele>-0.12</ele>
  <time>2026-09-01T01:18:03Z</time>
  <course>0.0</course>
  <speed>0.0</speed>
  <fix>3d</fix>
</trkpt>
<trkpt lat="33.810313" lon="-118.393867">
  <ele>0.0</ele>
  <time>2026-09-01T01:18:03Z</time>
  <course>186.39</course>
  <speed>0.0</speed>
  <fix>3d</fix>
</trkpt>
<trkpt lat="33.810313" lon="-118.393867">
  <ele>-0.12</ele>
  <time>2026-09-01T01:18:03Z</time>
  <course>0.0</course>
  <speed>0.0</speed>
  <fix>3d</fix>
</trkpt>
<trkpt lat="33.810313" lon="-118.393867">
  <ele>0.0</ele>
  <time>2026-09-01T01:18:03Z</time>
  <course>186.5</course>
  <speed>0.0</speed>
  <fix>3d</fix>
</trkpt>
<trkpt lat="33.810313" lon="-118.393867">
  <ele>-0.12</ele>
  <time>2026-09-01T01:18:03Z</time>
  <course>0.0</course>
  <speed>0.0</speed>
  <fix>3d</fix>
</trkpt>
<trkpt lat="33.810313" lon="-118.393867">
  <ele>0.0</ele>
  <time>2026-09-01T01:18:03Z</time>
  <course>186.61</course>
  <speed>0.0</speed>
  <fix>3d</fix>
</trkpt>
<trkpt lat="33.810313" lon="-118.393867">
  <ele>-0.12</ele>
  <time>2026-09-01T01:18:03Z</time>
  <course>0.0</course>
  <speed>0.0</speed>
  <fix>3d</fix>
</trkpt>
<trkpt lat="33.810313" lon="-118.393867">
  <ele>0.0</ele>
  <time>2026-09-01T01:18:03Z</time>
  <course>186.72</course>
  <speed>0.0</speed>
  <fix>3d</fix>
</trkpt>
<trkpt lat="33.810313" lon="-118.393867">
  <ele>-0.12</ele>
  <time>2026-09-01T01:18:03Z</time>
  <course>0.0</course>
  <speed>0.0</speed>
  <fix>3d</fix>
</trkpt>
<trkpt lat="33.810313" lon="-118.393867">
  <ele>0.0</ele>
  <time>2026-09-01T01:18:03Z</time>
  <course>186.82</course>
  <speed>0.0</speed>
  <fix>3d</fix>
</trkpt>
<trkpt lat="33.810313" lon="-118.393867">
  <ele>-0.12</ele>
  <time>2026-09-01T01:18:03Z</time>
  <course>0.0</course>
  <speed>0.0</speed>
  <fix>3d</fix>
</trkpt>
<trkpt lat="33.810313" lon="-118.393867">
  <ele>0.0</ele>
  <time>2026-09-01T01:18:03Z</time>
  <course>186.91</course>
  <speed>0.0</speed>
  <fix>3d</fix>
</trkpt>
<trkpt lat="33.810313" lon="-118.393867">
  <ele>-0.12</ele>
  <time>2026-09-01T01:18:03Z</time>
  <course>0.0</course>
  <speed>0.0</speed>
  <fix>3d</fix>
</trkpt>
<trkpt lat="33.810313" lon="-118.393867">
  <ele>0.0</ele>
  <time>2026-09-01T01:18:03Z</time>
  <course>187.0</course>
  <speed>0.0</speed>
  <fix>3d</fix>
</trkpt>
<trkpt lat="33.810313" lon="-118.393867">
  <ele>-0.12</ele>
  <time>2026-09-01T01:18:03Z</time>
  <course>0.0</course>
  <speed>0.0</speed>
  <fix>3d</fix>
</trkpt>
<trkpt lat="33.810313" lon="-118.393867">
  <ele>0.0</ele>
  <time>2026-09-01T01:18:03Z</time>
  <course>187.09</course>
  <speed>0.0</speed>
  <fix>3d</fix>
</trkpt>
<trkpt lat="33.810313" lon="-118.393867">
  <ele>-0.13</ele>
  <time>2026-09-01T01:18:03Z</time>
  <course>0.0</course>
  <speed>0.0</speed>
  <fix>3d</fix>
</trkpt>
<trkpt lat="33.810313" lon="-118.393867">
  <ele>0.0</ele>
  <time>2026-09-01T01:18:03Z</time>
  <course>187.17</course>
  <speed>0.0</speed>
  <fix>3d</fix>
</trkpt>
<trkpt lat="33.810313" lon="-118.393867">
  <ele>-0.13</ele>
  <time>2026-09-01T01:18:03Z</time>
  <course>0.0</course>
  <speed>0.0</speed>
  <fix>3d</fix>
</trkpt>
<trkpt lat="33.810313" lon="-118.393867">
  <ele>0.0</ele>
  <time>2026-09-01T01:18:03Z</time>
  <course>187.25</course>
  <speed>0.0</speed>
  <fix>3d</fix>
</trkpt>
<trkpt lat="33.810313" lon="-118.393867">
  <ele>-0.13</ele>
  <time>2026-09-01T01:18:03Z</time>
  <course>0.0</course>
  <speed>0.0</speed>
  <fix>3d</fix>
</trkpt>
<trkpt lat="33.810313" lon="-118.393867">
  <ele>0.0</ele>
  <time>2026-09-01T01:18:03Z</time>
  <course>187.33</course>
  <speed>0.0</speed>
  <fix>3d</fix>
</trkpt>
<trkpt lat="33.810313" lon="-118.393867">
  <ele>-0.13</ele>
  <time>2026-09-01T01:18:03Z</time>
  <course>0.0</course>
  <speed>0.0</speed>
  <fix>3d</fix>
</trkpt>
<trkpt lat="33.810313" lon="-118.393867">
  <ele>0.0</ele>
  <time>2026-09-01T01:18:03Z</time>
  <course>187.4</course>
  <speed>0.0</speed>
  <fix>3d</fix>
</trkpt>
<trkpt lat="33.810313" lon="-118.393867">
  <ele>-0.13</ele>
  <time>2026-09-01T01:18:03Z</time>
  <course>0.0</course>
  <speed>0.0</speed>
  <fix>3d</fix>
</trkpt>
<trkpt lat="33.810313" lon="-118.393867">
  <ele>0.0</ele>
  <time>2026-09-01T01:18:03Z</time>
  <course>187.47</course>
  <speed>0.0</speed>
  <fix>3d</fix>
</trkpt>
<trkpt lat="33.810313" lon="-118.393867">
  <ele>-0.13</ele>
  <time>2026-09-01T01:18:03Z</time>
  <course>0.0</course>
  <speed>0.0</speed>
  <fix>3d</fix>
</trkpt>
<trkpt lat="33.810313" lon="-118.393867">
  <ele>0.0</ele>
  <time>2026-09-01T01:18:03Z</time>
  <course>187.53</course>
  <speed>0.0</speed>
  <fix>3d</fix>
</trkpt>
<trkpt lat="33.810313" lon="-118.393867">
  <ele>-0.13</ele>
  <time>2026-09-01T01:18:03Z</time>
  <course>0.0</course>
  <speed>0.0</speed>
  <fix>3d</fix>
</trkpt>
<trkpt lat="33.810313" lon="-118.393867">
  <ele>0.0</ele>
  <time>2026-09-01T01:18:03Z</time>
  <course>187.59</course>
  <speed>0.0</speed>
  <fix>3d</fix>
</trkpt>
<trkpt lat="33.810313" lon="-118.393867">
  <ele>-0.13</ele>
  <time>2026-09-01T01:18:03Z</time>
  <course>0.0</course>
  <speed>0.0</speed>
  <fix>3d</fix>
</trkpt>
<trkpt lat="33.810313" lon="-118.393867">
  <ele>0.0</ele>
  <time>2026-09-01T01:18:03Z</time>
  <course>187.65</course>
  <speed>0.0</speed>
  <fix>3d</fix>
</trkpt>
<trkpt lat="33.810313" lon="-118.393867">
  <ele>-0.12</ele>
  <time>2026-09-01T01:18:03Z</time>
  <course>0.0</course>
  <speed>0.0</speed>
  <fix>3d</fix>
</trkpt>
<trkpt lat="33.810313" lon="-118.393867">
  <ele>0.0</ele>
  <time>2026-09-01T01:18:03Z</time>
  <course>187.71</course>
  <speed>0.0</speed>
  <fix>3d</fix>
</trkpt>
<trkpt lat="33.810313" lon="-118.393867">
  <ele>-0.12</ele>
  <time>2026-09-01T01:18:03Z</time>
  <course>0.0</course>
  <speed>0.0</speed>
  <fix>3d</fix>
</trkpt>
<trkpt lat="33.810313" lon="-118.393867">
  <ele>0.0</ele>
  <time>2026-09-01T01:18:03Z</time>
  <course>187.76</course>
  <speed>0.0</speed>
  <fix>3d</fix>
</trkpt>
<trkpt lat="33.810313" lon="-118.393867">
  <ele>-0.12</ele>
  <time>2026-09-01T01:18:03Z</time>
  <course>0.0</course>
  <speed>0.0</speed>
  <fix>3d</fix>
</trkpt>
<trkpt lat="33.810313" lon="-118.393867">
  <ele>0.0</ele>
  <time>2026-09-01T01:18:03Z</time>
  <course>187.81</course>
  <speed>0.0</speed>
  <fix>3d</fix>
</trkpt>
<trkpt lat="33.810313" lon="-118.393867">
  <ele>-0.12</ele>
  <time>2026-09-01T01:18:03Z</time>
  <course>0.0</course>
  <speed>0.0</speed>
  <fix>3d</fix>
</trkpt>
<trkpt lat="33.810313" lon="-118.393867">
  <ele>0.0</ele>
  <time>2026-09-01T01:18:03Z</time>
  <course>187.86</course>
  <speed>0.0</speed>
  <fix>3d</fix>
</trkpt>
<trkpt lat="33.810313" lon="-118.393867">
  <ele>-0.12</ele>
  <time>2026-09-01T01:18:03Z</time>
  <course>0.0</course>
  <speed>0.0</speed>
  <fix>3d</fix>
</trkpt>
<trkpt lat="33.810313" lon="-118.393867">
  <ele>0.0</ele>
  <time>2026-09-01T01:18:03Z</time>
  <course>187.91</course>
  <speed>0.0</speed>
  <fix>3d</fix>
</trkpt>
<trkpt lat="33.810313" lon="-118.393867">
  <ele>-0.12</ele>
  <time>2026-09-01T01:18:03Z</time>
  <course>0.0</course>
  <speed>0.0</speed>
  <fix>3d</fix>
</trkpt>
<trkpt lat="33.810313" lon="-118.393867">
  <ele>0.0</ele>
  <time>2026-09-01T01:18:03Z</time>
  <course>187.95</course>
  <speed>0.0</speed>
  <fix>3d</fix>
</trkpt>
<trkpt lat="33.810313" lon="-118.393867">
  <ele>-0.12</ele>
  <time>2026-09-01T01:18:03Z</time>
  <course>0.0</course>
  <speed>0.0</speed>
  <fix>3d</fix>
</trkpt>
<trkpt lat="33.810313" lon="-118.393867">
  <ele>0.0</ele>
  <time>2026-09-01T01:18:03Z</time>
  <course>187.99</course>
  <speed>0.0</speed>
  <fix>3d</fix>
</trkpt>
<trkpt lat="33.810313" lon="-118.393867">
  <ele>-0.12</ele>
  <time>2026-09-01T01:18:03Z</time>
  <course>0.0</course>
  <speed>0.0</speed>
  <fix>3d</fix>
</trkpt>
<trkpt lat="33.810313" lon="-118.393867">
  <ele>0.0</ele>
  <time>2026-09-01T01:18:03Z</time>
  <course>188.03</course>
  <speed>0.0</speed>
  <fix>3d</fix>
</trkpt>
<trkpt lat="33.810313" lon="-118.393867">
  <ele>-0.12</ele>
  <time>2026-09-01T01:18:03Z</time>
  <course>0.0</course>
  <speed>0.0</speed>
  <fix>3d</fix>
</trkpt>
<trkpt lat="33.810313" lon="-118.393867">
  <ele>0.0</ele>
  <time>2026-09-01T01:18:03Z</time>
  <course>188.07</course>
  <speed>0.0</speed>
  <fix>3d</fix>
</trkpt>
<trkpt lat="33.810313" lon="-118.393867">
  <ele>-0.12</ele>
  <time>2026-09-01T01:18:03Z</time>
  <course>0.0</course>
  <speed>0.0</speed>
  <fix>3d</fix>
</trkpt>
<trkpt lat="33.810313" lon="-118.393867">
  <ele>0.0</ele>
  <time>2026-09-01T01:18:03Z</time>
  <course>188.1</course>
  <speed>0.0</speed>
  <fix>3d</fix>
</trkpt>
<trkpt lat="33.810313" lon="-118.393867">
  <ele>-0.13</ele>
  <time>2026-09-01T01:18:03Z</time>
  <course>0.0</course>
  <speed>0.0</speed>
  <fix>3d</fix>
</trkpt>
<trkpt lat="33.810313" lon="-118.393867">
  <ele>0.0</ele>
  <time>2026-09-01T01:18:03Z</time>
  <course>188.13</course>
  <speed>0.0</speed>
  <fix>3d</fix>
</trkpt>
<trkpt lat="33.810313" lon="-118.393867">
  <ele>-0.13</ele>
  <time>2026-09-01T01:18:03Z</time>
  <course>0.0</course>
  <speed>0.0</speed>
  <fix>3d</fix>
</trkpt>
<trkpt lat="33.810313" lon="-118.393867">
  <ele>0.0</ele>
  <time>2026-09-01T01:18:03Z</time>
  <course>188.17</course>
  <speed>0.0</speed>
  <fix>3d</fix>
</trkpt>
<trkpt lat="33.810313" lon="-118.393867">
  <ele>-0.13</ele>
  <time>2026-09-01T01:18:03Z</time>
  <course>0.0</course>
  <speed>0.0</speed>
  <fix>3d</fix>
</trkpt>
<trkpt lat="33.810313" lon="-118.393867">
  <ele>0.0</ele>
  <time>2026-09-01T01:18:03Z</time>
  <course>188.19</course>
  <speed>0.0</speed>
  <fix>3d</fix>
</trkpt>
<trkpt lat="33.810313" lon="-118.393867">
  <ele>-0.13</ele>
  <time>2026-09-01T01:18:03Z</time>
  <course>0.0</course>
  <speed>0.0</speed>
  <fix>3d</fix>
</trkpt>
<trkpt lat="33.810313" lon="-118.393867">
  <ele>0.0</ele>
  <time>2026-09-01T01:18:03Z</time>
  <course>188.22</course>
  <speed>0.0</speed>
  <fix>3d</fix>
</trkpt>
<trkpt lat="33.810313" lon="-118.393867">
  <ele>-0.13</ele>
  <time>2026-09-01T01:18:03Z</time>
  <course>0.0</course>
  <speed>0.0</speed>
  <fix>3d</fix>
</trkpt>
<trkpt lat="33.810313" lon="-118.393867">
  <ele>0.0</ele>
  <time>2026-09-01T01:18:03Z</time>
  <course>188.25</course>
  <speed>0.0</speed>
  <fix>3d</fix>
</trkpt>
<trkpt lat="33.810313" lon="-118.393867">
  <ele>-0.13</ele>
  <time>2026-09-01T01:18:03Z</time>
  <course>0.0</course>
  <speed>0.0</speed>
  <fix>3d</fix>
</trkpt>
<trkpt lat="33.810313" lon="-118.393867">
  <ele>0.0</ele>
  <time>2026-09-01T01:18:03Z</time>
  <course>188.27</course>
  <speed>0.0</speed>
  <fix>3d</fix>
</trkpt>
<trkpt lat="33.810313" lon="-118.393867">
  <ele>-0.12</ele>
  <time>2026-09-01T01:18:03Z</time>
  <course>0.0</course>
  <speed>0.0</speed>
  <fix>3d</fix>
</trkpt>
<trkpt lat="33.810313" lon="-118.393867">
  <ele>0.0</ele>
  <time>2026-09-01T01:18:03Z</time>
  <course>188.3</course>
  <speed>0.0</speed>
  <fix>3d</fix>
</trkpt>
<trkpt lat="33.810313" lon="-118.393867">
  <ele>-0.12</ele>
  <time>2026-09-01T01:18:03Z</time>
  <course>0.0</course>
  <speed>0.0</speed>
  <fix>3d</fix>
</trkpt>
<trkpt lat="33.810313" lon="-118.393867">
  <ele>0.0</ele>
  <time>2026-09-01T01:18:03Z</time>
  <course>188.32</course>
  <speed>0.0</speed>
  <fix>3d</fix>
</trkpt>
<trkpt lat="33.810313" lon="-118.393867">
  <ele>-0.12</ele>
  <time>2026-09-01T01:18:03Z</time>
  <course>0.0</course>
  <speed>0.0</speed>
  <fix>3d</fix>
</trkpt>
<trkpt lat="33.810313" lon="-118.393867">
  <ele>0.0</ele>
  <time>2026-09-01T01:18:03Z</time>
  <course>188.34</course>
  <speed>0.0</speed>
  <fix>3d</fix>
</trkpt>
<trkpt lat="33.810313" lon="-118.393867">
  <ele>-0.12</ele>
  <time>2026-09-01T01:18:03Z</time>
  <course>0.0</course>
  <speed>0.0</speed>
  <fix>3d</fix>
</trkpt>
<trkpt lat="33.810313" lon="-118.393867">
  <ele>0.0</ele>
  <time>2026-09-01T01:18:03Z</time>
  <course>188.36</course>
  <speed>0.0</speed>
  <fix>3d</fix>
</trkpt>
<trkpt lat="33.810313" lon="-118.393867">
  <ele>-0.12</ele>
  <time>2026-09-01T01:18:03Z</time>
  <course>0.0</course>
  <speed>0.0</speed>
  <fix>3d</fix>
</trkpt>
<trkpt lat="33.810313" lon="-118.393867">
  <ele>0.0</ele>
  <time>2026-09-01T01:18:03Z</time>
  <course>188.38</course>
  <speed>0.0</speed>
  <fix>3d</fix>
</trkpt>
<trkpt lat="33.810313" lon="-118.393867">
  <ele>-0.12</ele>
  <time>2026-09-01T01:18:03Z</time>
  <course>0.0</course>
  <speed>0.0</speed>
  <fix>3d</fix>
</trkpt>
<trkpt lat="33.810313" lon="-118.393867">
  <ele>0.0</ele>
  <time>2026-09-01T01:18:03Z</time>
  <course>188.39</course>
  <speed>0.0</speed>
  <fix>3d</fix>
</trkpt>
<trkpt lat="33.810313" lon="-118.393867">
  <ele>-0.12</ele>
  <time>2026-09-01T01:18:03Z</time>
  <course>0.0</course>
  <speed>0.0</speed>
  <fix>3d</fix>
</trkpt>
<trkpt lat="33.810313" lon="-118.393867">
  <ele>0.0</ele>
  <time>2026-09-01T01:18:03Z</time>
  <course>188.41</course>
  <speed>0.0</speed>
  <fix>3d</fix>
</trkpt>
<trkpt lat="33.810313" lon="-118.393867">
  <ele>-0.12</ele>
  <time>2026-09-01T01:18:03Z</time>
  <course>0.0</course>
  <speed>0.0</speed>
  <fix>3d</fix>
</trkpt>
<trkpt lat="33.810313" lon="-118.393867">
  <ele>0.0</ele>
  <time>2026-09-01T01:18:03Z</time>
  <course>188.43</course>
  <speed>0.0</speed>
  <fix>3d</fix>
</trkpt>
<trkpt lat="33.810313" lon="-118.393867">
  <ele>-0.12</ele>
  <time>2026-09-01T01:18:03Z</time>
  <course>0.0</course>
  <speed>0.0</speed>
  <fix>3d</fix>
</trkpt>
<trkpt lat="33.810313" lon="-118.393867">
  <ele>0.0</ele>
  <time>2026-09-01T01:18:03Z</time>
  <course>188.44</course>
  <speed>0.0</speed>
  <fix>3d</fix>
</trkpt>
<trkpt lat="33.810313" lon="-118.393867">
  <ele>-0.12</ele>
  <time>2026-09-01T01:18:03Z</time>
  <course>0.0</course>
  <speed>0.0</speed>
  <fix>3d</fix>
</trkpt>
<trkpt lat="33.810313" lon="-118.393867">
  <ele>0.0</ele>
  <time>2026-09-01T01:18:03Z</time>
  <course>188.45</course>
  <speed>0.0</speed>
  <fix>3d</fix>
</trkpt>
<trkpt lat="33.810313" lon="-118.393867">
  <ele>-0.13</ele>
  <time>2026-09-01T01:18:03Z</time>
  <course>0.0</course>
  <speed>0.0</speed>
  <fix>3d</fix>
</trkpt>
<trkpt lat="33.810313" lon="-118.393867">
  <ele>0.0</ele>
  <time>2026-09-01T01:18:03Z</time>
  <course>188.46</course>
  <speed>0.0</speed>
  <fix>3d</fix>
</trkpt>
<trkpt lat="33.810313" lon="-118.393867">
  <ele>-0.13</ele>
  <time>2026-09-01T01:18:03Z</time>
  <course>0.0</course>
  <speed>0.0</speed>
  <fix>3d</fix>
</trkpt>
<trkpt lat="33.810313" lon="-118.393867">
  <ele>0.0</ele>
  <time>2026-09-01T01:18:03Z</time>
  <course>188.48</course>
  <speed>0.0</speed>
  <fix>3d</fix>
</trkpt>
<trkpt lat="33.810313" lon="-118.393867">
  <ele>-0.13</ele>
  <time>2026-09-01T01:18:03Z</time>
  <course>0.0</course>
  <speed>0.0</speed>
  <fix>3d</fix>
</trkpt>
<trkpt lat="33.810313" lon="-118.393867">
  <ele>0.0</ele>
  <time>2026-09-01T01:18:03Z</time>
  <course>188.49</course>
  <speed>0.0</speed>
  <fix>3d</fix>
</trkpt>
<trkpt lat="33.810313" lon="-118.393867">
  <ele>-0.13</ele>
  <time>2026-09-01T01:18:03Z</time>
  <course>0.0</course>
  <speed>0.0</speed>
  <fix>3d</fix>
</trkpt>
<trkpt lat="33.810313" lon="-118.393867">
  <ele>0.0</ele>
  <time>2026-09-01T01:18:03Z</time>
  <course>188.49</course>
  <speed>0.0</speed>
  <fix>3d</fix>
</trkpt>
<trkpt lat="33.810313" lon="-118.393867">
  <ele>-0.13</ele>
  <time>2026-09-01T01:18:03Z</time>
  <course>0.0</course>
  <speed>0.0</speed>
  <fix>3d</fix>
</trkpt>
<trkpt lat="33.810313" lon="-118.393867">
  <ele>0.0</ele>
  <time>2026-09-01T01:18:03Z</time>
  <course>188.5</course>
  <speed>0.0</speed>
  <fix>3d</fix>
</trkpt>
<trkpt lat="33.810313" lon="-118.393867">
  <ele>-0.13</ele>
  <time>2026-09-01T01:18:03Z</time>
  <course>0.0</course>
  <speed>0.0</speed>
  <fix>3d</fix>
</trkpt>
<trkpt lat="33.810313" lon="-118.393867">
  <ele>0.0</ele>
  <time>2026-09-01T01:18:03Z</time>
  <course>188.51</course>
  <speed>0.0</speed>
  <fix>3d</fix>
</trkpt>
<trkpt lat="33.810313" lon="-118.393867">
  <ele>-0.12</ele>
  <time>2026-09-01T01:18:03Z</time>
  <course>0.0</course>
  <speed>0.0</speed>
  <fix>3d</fix>
</trkpt>
<trkpt lat="33.810313" lon="-118.393867">
  <ele>0.0</ele>
  <time>2026-09-01T01:18:03Z</time>
  <course>188.52</course>
  <speed>0.0</speed>
  <fix>3d</fix>
</trkpt>
<trkpt lat="33.810313" lon="-118.393867">
  <ele>-0.12</ele>
  <time>2026-09-01T01:18:03Z</time>
  <course>0.0</course>
  <speed>0.0</speed>
  <fix>3d</fix>
</trkpt>
<trkpt lat="33.810313" lon="-118.393867">
  <ele>0.0</ele>
  <time>2026-09-01T01:18:03Z</time>
  <course>188.53</course>
  <speed>0.0</speed>
  <fix>3d</fix>
</trkpt>
<trkpt lat="33.810313" lon="-118.393867">
  <ele>-0.12</ele>
  <time>2026-09-01T01:18:03Z</time>
  <course>0.0</course>
  <speed>0.0</speed>
  <fix>3d</fix>
</trkpt>
<trkpt lat="33.810313" lon="-118.393867">
  <ele>0.0</ele>
  <time>2026-09-01T01:18:03Z</time>
  <course>188.53</course>
  <speed>0.0</speed>
  <fix>3d</fix>
</trkpt>
<trkpt lat="33.810313" lon="-118.393867">
  <ele>-0.12</ele>
  <time>2026-09-01T01:18:03Z</time>
  <course>0.0</course>
  <speed>0.0</speed>
  <fix>3d</fix>
</trkpt>
<trkpt lat="33.810313" lon="-118.393867">
  <ele>0.0</ele>
  <time>2026-09-01T01:18:03Z</time>
  <course>188.54</course>
  <speed>0.0</speed>
  <fix>3d</fix>
</trkpt>
<trkpt lat="33.810313" lon="-118.393867">
  <ele>-0.12</ele>
  <time>2026-09-01T01:18:03Z</time>
  <course>0.0</course>
  <speed>0.0</speed>
  <fix>3d</fix>
</trkpt>
<trkpt lat="33.810313" lon="-118.393867">
  <ele>0.0</ele>
  <time>2026-09-01T01:18:03Z</time>
  <course>188.54</course>
  <speed>0.0</speed>
  <fix>3d</fix>
</trkpt>
<trkpt lat="33.810313" lon="-118.393867">
  <ele>-0.12</ele>
  <time>2026-09-01T01:18:03Z</time>
  <course>0.0</course>
  <speed>0.0</speed>
  <fix>3d</fix>
</trkpt>
<trkpt lat="33.810313" lon="-118.393867">
  <ele>0.0</ele>
  <time>2026-09-01T01:18:03Z</time>
  <course>188.54</course>
  <speed>0.0</speed>
  <fix>3d</fix>
</trkpt>
<trkpt lat="33.810313" lon="-118.393867">
  <ele>-0.12</ele>
  <time>2026-09-01T01:18:03Z</time>
  <course>0.0</course>
  <speed>0.0</speed>
  <fix>3d</fix>
</trkpt>
<trkpt lat="33.810313" lon="-118.393867">
  <ele>0.0</ele>
  <time>2026-09-01T01:18:03Z</time>
  <course>188.55</course>
  <speed>0.0</speed>
  <fix>3d</fix>
</trkpt>
<trkpt lat="33.810313" lon="-118.393867">
  <ele>-0.12</ele>
  <time>2026-09-01T01:18:03Z</time>
  <course>0.0</course>
  <speed>0.0</speed>
  <fix>3d</fix>
</trkpt>
<trkpt lat="33.810313" lon="-118.393867">
  <ele>0.0</ele>
  <time>2026-09-01T01:18:03Z</time>
  <course>188.55</course>
  <speed>0.0</speed>
  <fix>3d</fix>
</trkpt>
<trkpt lat="33.810313" lon="-118.393867">
  <ele>-0.12</ele>
  <time>2026-09-01T01:18:03Z</time>
  <course>0.0</course>
  <speed>0.0</speed>
  <fix>3d</fix>
</trkpt>
<trkpt lat="33.810313" lon="-118.393867">
  <ele>0.0</ele>
  <time>2026-09-01T01:18:03Z</time>
  <course>188.55</course>
  <speed>0.0</speed>
  <fix>3d</fix>
</trkpt>
<trkpt lat="33.810313" lon="-118.393867">
  <ele>-0.12</ele>
  <time>2026-09-01T01:18:03Z</time>
  <course>0.0</course>
  <speed>0.0</speed>
  <fix>3d</fix>
</trkpt>
<trkpt lat="33.810313" lon="-118.393867">
  <ele>-0.126</ele>
  <time>2026-09-01T01:18:03Z</time>
  <course>188.55</course>
  <speed>0.0</speed>
  <fix>3d</fix>
</trkpt>
<trkpt lat="33.810313" lon="-118.393867">
  <ele>-0.13</ele>
  <time>2026-09-01T01:18:03Z</time>
  <course>0.0</course>
  <speed>0.0</speed>
  <fix>3d</fix>
</trkpt>
<trkpt lat="33.810313" lon="-118.393867">
  <ele>-0.126</ele>
  <time>2026-09-01T01:18:03Z</time>
  <course>188.56</course>
  <speed>0.0</speed>
  <fix>3d</fix>
</trkpt>
<trkpt lat="33.810313" lon="-118.393867">
  <ele>-0.13</ele>
  <time>2026-09-01T01:18:03Z</time>
  <course>0.0</course>
  <speed>0.0</speed>
  <fix>3d</fix>
</trkpt>
<trkpt lat="33.810313" lon="-118.393867">
  <ele>-0.124</ele>
  <time>2026-09-01T01:18:03Z</time>
  <course>188.56</course>
  <speed>0.0</speed>
  <fix>3d</fix>
</trkpt>
<trkpt lat="33.810313" lon="-118.393867">
  <ele>-0.13</ele>
  <time>2026-09-01T01:18:03Z</time>
  <course>0.0</course>
  <speed>0.0</speed>
  <fix>3d</fix>
</trkpt>
<trkpt lat="33.810313" lon="-118.393867">
  <ele>-0.123</ele>
  <time>2026-09-01T01:18:03Z</time>
  <course>188.56</course>
  <speed>0.0</speed>
  <fix>3d</fix>
</trkpt>
<trkpt lat="33.810313" lon="-118.393867">
  <ele>-0.13</ele>
  <time>2026-09-01T01:18:03Z</time>
  <course>0.0</course>
  <speed>0.0</speed>
  <fix>3d</fix>
</trkpt>
<trkpt lat="33.810313" lon="-118.393867">
  <ele>-0.121</ele>
  <time>2026-09-01T01:18:03Z</time>
  <course>188.56</course>
  <speed>0.0</speed>
  <fix>3d</fix>
</trkpt>
<trkpt lat="33.810313" lon="-118.393867">
  <ele>-0.12</ele>
  <time>2026-09-01T01:18:03Z</time>
  <course>0.0</course>
  <speed>0.0</speed>
  <fix>3d</fix>
</trkpt>
<trkpt lat="33.810313" lon="-118.393867">
  <ele>-0.12</ele>
  <time>2026-09-01T01:18:03Z</time>
  <course>188.56</course>
  <speed>0.0</speed>
  <fix>3d</fix>
</trkpt>
<trkpt lat="33.810313" lon="-118.393867">
  <ele>-0.12</ele>
  <time>2026-09-01T01:18:03Z</time>
  <course>0.0</course>
  <speed>0.0</speed>
  <fix>3d</fix>
</trkpt>
<trkpt lat="33.810313" lon="-118.393867">
  <ele>-0.119</ele>
  <time>2026-09-01T01:18:03Z</time>
  <course>188.56</course>
  <speed>0.0</speed>
  <fix>3d</fix>
</trkpt>
<trkpt lat="33.810313" lon="-118.393867">
  <ele>-0.12</ele>
  <time>2026-09-01T01:18:03Z</time>
  <course>0.0</course>
  <speed>0.0</speed>
  <fix>3d</fix>
</trkpt>
<trkpt lat="33.810313" lon="-118.393867">
  <ele>-0.12</ele>
  <time>2026-09-01T01:18:03Z</time>
  <course>188.56</course>
  <speed>0.0</speed>
  <fix>3d</fix>
</trkpt>
<trkpt lat="33.810313" lon="-118.393867">
  <ele>-0.12</ele>
  <time>2026-09-01T01:18:03Z</time>
  <course>0.0</course>
  <speed>0.0</speed>
  <fix>3d</fix>
</trkpt>
<trkpt lat="33.810313" lon="-118.393867">
  <ele>-0.124</ele>
  <time>2026-09-01T01:18:03Z</time>
  <course>188.55</course>
  <speed>0.0</speed>
  <fix>3d</fix>
</trkpt>
<trkpt lat="33.810313" lon="-118.393867">
  <ele>-0.12</ele>
  <time>2026-09-01T01:18:03Z</time>
  <course>0.0</course>
  <speed>0.0</speed>
  <fix>3d</fix>
</trkpt>
<trkpt lat="33.810313" lon="-118.393867">
  <ele>-0.127</ele>
  <time>2026-09-01T01:18:03Z</time>
  <course>188.55</course>
  <speed>0.0</speed>
  <fix>3d</fix>
</trkpt>
<trkpt lat="33.810313" lon="-118.393867">
  <ele>-0.12</ele>
  <time>2026-09-01T01:18:03Z</time>
  <course>0.0</course>
  <speed>0.0</speed>
  <fix>3d</fix>
</trkpt>
<trkpt lat="33.810313" lon="-118.393867">
  <ele>-0.13</ele>
  <time>2026-09-01T01:18:03Z</time>
  <course>188.55</course>
  <speed>0.0</speed>
  <fix>3d</fix>
</trkpt>
<trkpt lat="33.810313" lon="-118.393867">
  <ele>-0.12</ele>
  <time>2026-09-01T01:18:03Z</time>
  <course>0.0</course>
  <speed>0.0</speed>
  <fix>3d</fix>
</trkpt>
<trkpt lat="33.810313" lon="-118.393867">
  <ele>-0.132</ele>
  <time>2026-09-01T01:18:03Z</time>
  <course>188.55</course>
  <speed>0.0</speed>
  <fix>3d</fix>
</trkpt>
<trkpt lat="33.810313" lon="-118.393867">
  <ele>-0.12</ele>
  <time>2026-09-01T01:18:03Z</time>
  <course>0.0</course>
  <speed>0.0</speed>
  <fix>3d</fix>
</trkpt>
<trkpt lat="33.810313" lon="-118.393867">
  <ele>-0.132</ele>
  <time>2026-09-01T01:18:03Z</time>
  <course>188.55</course>
  <speed>0.0</speed>
  <fix>3d</fix>
</trkpt>
<trkpt lat="33.810313" lon="-118.393867">
  <ele>-0.12</ele>
  <time>2026-09-01T01:18:03Z</time>
  <course>0.0</course>
  <speed>0.0</speed>
  <fix>3d</fix>
</trkpt>
<trkpt lat="33.810313" lon="-118.393867">
  <ele>-0.132</ele>
  <time>2026-09-01T01:18:03Z</time>
  <course>188.55</course>
  <speed>0.0</speed>
  <fix>3d</fix>
</trkpt>
<trkpt lat="33.810313" lon="-118.393867">
  <ele>-0.12</ele>
  <time>2026-09-01T01:18:03Z</time>
  <course>0.0</course>
  <speed>0.0</speed>
  <fix>3d</fix>
</trkpt>
<trkpt lat="33.810313" lon="-118.393867">
  <ele>-0.132</ele>
  <time>2026-09-01T01:18:03Z</time>
  <course>188.55</course>
  <speed>0.0</speed>
  <fix>3d</fix>
</trkpt>
<trkpt lat="33.810313" lon="-118.393867">
  <ele>-0.12</ele>
  <time>2026-09-01T01:18:03Z</time>
  <course>0.0</course>
  <speed>0.0</speed>
  <fix>3d</fix>
</trkpt>
<trkpt lat="33.810313" lon="-118.393867">
  <ele>-0.131</ele>
  <time>2026-09-01T01:18:03Z</time>
  <course>188.55</course>
  <speed>0.0</speed>
  <fix>3d</fix>
</trkpt>
<trkpt lat="33.810313" lon="-118.393867">
  <ele>-0.12</ele>
  <time>2026-09-01T01:18:03Z</time>
  <course>0.0</course>
  <speed>0.0</speed>
  <fix>3d</fix>
</trkpt>
<trkpt lat="33.810313" lon="-118.393867">
  <ele>-0.129</ele>
  <time>2026-09-01T01:18:03Z</time>
  <course>188.54</course>
  <speed>0.0</speed>
  <fix>3d</fix>
</trkpt>
<trkpt lat="33.810313" lon="-118.393867">
  <ele>-0.13</ele>
  <time>2026-09-01T01:18:03Z</time>
  <course>0.0</course>
  <speed>0.0</speed>
  <fix>3d</fix>
</trkpt>
<trkpt lat="33.810313" lon="-118.393867">
  <ele>-0.128</ele>
  <time>2026-09-01T01:18:03Z</time>
  <course>188.54</course>
  <speed>0.0</speed>
  <fix>3d</fix>
</trkpt>
<trkpt lat="33.810313" lon="-118.393867">
  <ele>-0.13</ele>
  <time>2026-09-01T01:18:03Z</time>
  <course>0.0</course>
  <speed>0.0</speed>
  <fix>3d</fix>
</trkpt>
<trkpt lat="33.810313" lon="-118.393867">
  <ele>-0.125</ele>
  <time>2026-09-01T01:18:03Z</time>
  <course>188.53</course>
  <speed>0.0</speed>
  <fix>3d</fix>
</trkpt>
<trkpt lat="33.810313" lon="-118.393867">
  <ele>-0.12</ele>
  <time>2026-09-01T01:18:03Z</time>
  <course>0.0</course>
  <speed>0.0</speed>
  <fix>3d</fix>
</trkpt>
<trkpt lat="33.810313" lon="-118.393867">
  <ele>-0.123</ele>
  <time>2026-09-01T01:18:03Z</time>
  <course>188.53</course>
  <speed>0.0</speed>
  <fix>3d</fix>
</trkpt>
<trkpt lat="33.810313" lon="-118.393867">
  <ele>-0.12</ele>
  <time>2026-09-01T01:18:03Z</time>
  <course>0.0</course>
  <speed>0.0</speed>
  <fix>3d</fix>
</trkpt>
<trkpt lat="33.810313" lon="-118.393867">
  <ele>-0.121</ele>
  <time>2026-09-01T01:18:03Z</time>
  <course>188.52</course>
  <speed>0.0</speed>
  <fix>3d</fix>
</trkpt>
<trkpt lat="33.810313" lon="-118.393867">
  <ele>-0.12</ele>
  <time>2026-09-01T01:18:03Z</time>
  <course>0.0</course>
  <speed>0.0</speed>
  <fix>3d</fix>
</trkpt>
<trkpt lat="33.810313" lon="-118.393867">
  <ele>-0.121</ele>
  <time>2026-09-01T01:18:03Z</time>
  <course>188.52</course>
  <speed>0.0</speed>
  <fix>3d</fix>
</trkpt>
<trkpt lat="33.810313" lon="-118.393867">
  <ele>-0.12</ele>
  <time>2026-09-01T01:18:03Z</time>
  <course>0.0</course>
  <speed>0.0</speed>
  <fix>3d</fix>
</trkpt>
<trkpt lat="33.810313" lon="-118.393867">
  <ele>-0.122</ele>
  <time>2026-09-01T01:18:03Z</time>
  <course>188.51</course>
  <speed>0.0</speed>
  <fix>3d</fix>
</trkpt>
<trkpt lat="33.810313" lon="-118.393867">
  <ele>-0.12</ele>
  <time>2026-09-01T01:18:03Z</time>
  <course>0.0</course>
  <speed>0.0</speed>
  <fix>3d</fix>
</trkpt>
<trkpt lat="33.810313" lon="-118.393867">
  <ele>-0.123</ele>
  <time>2026-09-01T01:18:03Z</time>
  <course>188.51</course>
  <speed>0.0</speed>
  <fix>3d</fix>
</trkpt>
<trkpt lat="33.810313" lon="-118.393867">
  <ele>-0.12</ele>
  <time>2026-09-01T01:18:03Z</time>
  <course>0.0</course>
  <speed>0.0</speed>
  <fix>3d</fix>
</trkpt>
<trkpt lat="33.810313" lon="-118.393867">
  <ele>-0.126</ele>
  <time>2026-09-01T01:18:03Z</time>
  <course>188.5</course>
  <speed>0.0</speed>
  <fix>3d</fix>
</trkpt>
<trkpt lat="33.810313" lon="-118.393867">
  <ele>-0.12</ele>
  <time>2026-09-01T01:18:03Z</time>
  <course>0.0</course>
  <speed>0.0</speed>
  <fix>3d</fix>
</trkpt>
<trkpt lat="33.810313" lon="-118.393867">
  <ele>-0.127</ele>
  <time>2026-09-01T01:18:03Z</time>
  <course>188.5</course>
  <speed>0.0</speed>
  <fix>3d</fix>
</trkpt>
<trkpt lat="33.810313" lon="-118.393867">
  <ele>-0.12</ele>
  <time>2026-09-01T01:18:03Z</time>
  <course>0.0</course>
  <speed>0.0</speed>
  <fix>3d</fix>
</trkpt>
<trkpt lat="33.810313" lon="-118.393867">
  <ele>-0.128</ele>
  <time>2026-09-01T01:18:03Z</time>
  <course>188.49</course>
  <speed>0.0</speed>
  <fix>3d</fix>
</trkpt>
<trkpt lat="33.810313" lon="-118.393867">
  <ele>-0.12</ele>
  <time>2026-09-01T01:18:03Z</time>
  <course>0.0</course>
  <speed>0.0</speed>
  <fix>3d</fix>
</trkpt>
<trkpt lat="33.810313" lon="-118.393867">
  <ele>-0.127</ele>
  <time>2026-09-01T01:18:03Z</time>
  <course>188.48</course>
  <speed>0.0</speed>
  <fix>3d</fix>
</trkpt>
<trkpt lat="33.810313" lon="-118.393867">
  <ele>-0.12</ele>
  <time>2026-09-01T01:18:03Z</time>
  <course>0.0</course>
  <speed>0.0</speed>
  <fix>3d</fix>
</trkpt>
<trkpt lat="33.810313" lon="-118.393867">
  <ele>-0.127</ele>
  <time>2026-09-01T01:18:03Z</time>
  <course>188.48</course>
  <speed>0.0</speed>
  <fix>3d</fix>
</trkpt>
<trkpt lat="33.810313" lon="-118.393867">
  <ele>-0.12</ele>
  <time>2026-09-01T01:18:03Z</time>
  <course>0.0</course>
  <speed>0.0</speed>
  <fix>3d</fix>
</trkpt>
<trkpt lat="33.810313" lon="-118.393867">
  <ele>-0.127</ele>
  <time>2026-09-01T01:18:03Z</time>
  <course>188.47</course>
  <speed>0.01</speed>
  <fix>3d</fix>
</trkpt>
<trkpt lat="33.810313" lon="-118.393867">
  <ele>-0.12</ele>
  <time>2026-09-01T01:18:03Z</time>
  <course>0.0</course>
  <speed>0.0</speed>
  <fix>3d</fix>
</trkpt>
<trkpt lat="33.810313" lon="-118.393867">
  <ele>-0.127</ele>
  <time>2026-09-01T01:18:03Z</time>
  <course>188.47</course>
  <speed>0.01</speed>
  <fix>3d</fix>
</trkpt>
<trkpt lat="33.810313" lon="-118.393867">
  <ele>-0.12</ele>
  <time>2026-09-01T01:18:03Z</time>
  <course>0.0</course>
  <speed>0.0</speed>
  <fix>3d</fix>
</trkpt>
<trkpt lat="33.810313" lon="-118.393867">
  <ele>-0.126</ele>
  <time>2026-09-01T01:18:03Z</time>
  <course>188.46</course>
  <speed>0.01</speed>
  <fix>3d</fix>
</trkpt>
<trkpt lat="33.810313" lon="-118.393867">
  <ele>-0.12</ele>
  <time>2026-09-01T01:18:03Z</time>
  <course>0.0</course>
  <speed>0.0</speed>
  <fix>3d</fix>
</trkpt>
<trkpt lat="33.810313" lon="-118.393867">
  <ele>-0.126</ele>
  <time>2026-09-01T01:18:03Z</time>
  <course>188.45</course>
  <speed>0.01</speed>
  <fix>3d</fix>
</trkpt>
<trkpt lat="33.810313" lon="-118.393867">
  <ele>-0.12</ele>
  <time>2026-09-01T01:18:03Z</time>
  <course>0.0</course>
  <speed>0.0</speed>
  <fix>3d</fix>
</trkpt>
<trkpt lat="33.810313" lon="-118.393867">
  <ele>-0.126</ele>
  <time>2026-09-01T01:18:03Z</time>
  <course>188.45</course>
  <speed>0.01</speed>
  <fix>3d</fix>
</trkpt>
<trkpt lat="33.810313" lon="-118.393867">
  <ele>-0.12</ele>
  <time>2026-09-01T01:18:03Z</time>
  <course>0.0</course>
  <speed>0.0</speed>
  <fix>3d</fix>
</trkpt>
<trkpt lat="33.810313" lon="-118.393867">
  <ele>-0.125</ele>
  <time>2026-09-01T01:18:03Z</time>
  <course>188.44</course>
  <speed>0.01</speed>
  <fix>3d</fix>
</trkpt>
<trkpt lat="33.810313" lon="-118.393867">
  <ele>-0.12</ele>
  <time>2026-09-01T01:18:03Z</time>
  <course>0.0</course>
  <speed>0.0</speed>
  <fix>3d</fix>
</trkpt>
<trkpt lat="33.810313" lon="-118.393867">
  <ele>-0.126</ele>
  <time>2026-09-01T01:18:03Z</time>
  <course>188.43</course>
  <speed>0.01</speed>
  <fix>3d</fix>
</trkpt>
<trkpt lat="33.810313" lon="-118.393867">
  <ele>-0.12</ele>
  <time>2026-09-01T01:18:03Z</time>
  <course>0.0</course>
  <speed>0.0</speed>
  <fix>3d</fix>
</trkpt>
<trkpt lat="33.810313" lon="-118.393867">
  <ele>-0.127</ele>
  <time>2026-09-01T01:18:03Z</time>
  <course>188.42</course>
  <speed>0.01</speed>
  <fix>3d</fix>
</trkpt>
<trkpt lat="33.810313" lon="-118.393867">
  <ele>-0.12</ele>
  <time>2026-09-01T01:18:03Z</time>
  <course>0.0</course>
  <speed>0.0</speed>
  <fix>3d</fix>
</trkpt>
<trkpt lat="33.810313" lon="-118.393867">
  <ele>-0.128</ele>
  <time>2026-09-01T01:18:03Z</time>
  <course>188.42</course>
  <speed>0.01</speed>
  <fix>3d</fix>
</trkpt>
<trkpt lat="33.810313" lon="-118.393867">
  <ele>-0.12</ele>
  <time>2026-09-01T01:18:03Z</time>
  <course>0.0</course>
  <speed>0.0</speed>
  <fix>3d</fix>
</trkpt>
<trkpt lat="33.810313" lon="-118.393867">
  <ele>-0.129</ele>
  <time>2026-09-01T01:18:03Z</time>
  <course>188.41</course>
  <speed>0.01</speed>
  <fix>3d</fix>
</trkpt>
<trkpt lat="33.810313" lon="-118.393867">
  <ele>-0.12</ele>
  <time>2026-09-01T01:18:03Z</time>
  <course>0.0</course>
  <speed>0.0</speed>
  <fix>3d</fix>
</trkpt>
<trkpt lat="33.810313" lon="-118.393867">
  <ele>-0.129</ele>
  <time>2026-09-01T01:18:03Z</time>
  <course>188.4</course>
  <speed>0.01</speed>
  <fix>3d</fix>
</trkpt>
<trkpt lat="33.810313" lon="-118.393867">
  <ele>-0.12</ele>
  <time>2026-09-01T01:18:03Z</time>
  <course>0.0</course>
  <speed>0.0</speed>
  <fix>3d</fix>
</trkpt>
<trkpt lat="33.810313" lon="-118.393867">
  <ele>-0.13</ele>
  <time>2026-09-01T01:18:03Z</time>
  <course>188.4</course>
  <speed>0.01414213562373095</speed>
  <fix>3d</fix>
</trkpt>
<trkpt lat="33.810313" lon="-118.393867">
  <ele>-0.12</ele>
  <time>2026-09-01T01:18:03Z</time>
  <course>0.0</course>
  <speed>0.0</speed>
  <fix>3d</fix>
</trkpt>
<trkpt lat="33.810313" lon="-118.393867">
  <ele>-0.13</ele>
  <time>2026-09-01T01:18:03Z</time>
  <course>188.39</course>
  <speed>0.01414213562373095</speed>
  <fix>3d</fix>
</trkpt>
<trkpt lat="33.810313" lon="-118.393867">
  <ele>-0.12</ele>
  <time>2026-09-01T01:18:03Z</time>
  <course>0.0</course>
  <speed>0.0</speed>
  <fix>3d</fix>
</trkpt>
<trkpt lat="33.810313" lon="-118.393867">
  <ele>-0.13</ele>
  <time>2026-09-01T01:18:03Z</time>
  <course>188.38</course>
  <speed>0.01414213562373095</speed>
  <fix>3d</fix>
</trkpt>
<trkpt lat="33.810313" lon="-118.393867">
  <ele>-0.12</ele>
  <time>2026-09-01T01:18:03Z</time>
  <course>0.0</course>
  <speed>0.0</speed>
  <fix>3d</fix>
</trkpt>
<trkpt lat="33.810313" lon="-118.393867">
  <ele>-0.129</ele>
  <time>2026-09-01T01:18:03Z</time>
  <course>188.37</course>
  <speed>0.01414213562373095</speed>
  <fix>3d</fix>
</trkpt>
<trkpt lat="33.810313" lon="-118.393867">
  <ele>-0.12</ele>
  <time>2026-09-01T01:18:03Z</time>
  <course>0.0</course>
  <speed>0.0</speed>
  <fix>3d</fix>
</trkpt>
<trkpt lat="33.810313" lon="-118.393867">
  <ele>-0.128</ele>
  <time>2026-09-01T01:18:03Z</time>
  <course>188.37</course>
  <speed>0.01414213562373095</speed>
  <fix>3d</fix>
</trkpt>
<trkpt lat="33.810313" lon="-118.393867">
  <ele>-0.12</ele>
  <time>2026-09-01T01:18:03Z</time>
  <course>0.0</course>
  <speed>0.0</speed>
  <fix>3d</fix>
</trkpt>
<trkpt lat="33.810313" lon="-118.393867">
  <ele>-0.126</ele>
  <time>2026-09-01T01:18:03Z</time>
  <course>188.36</course>
  <speed>0.01414213562373095</speed>
  <fix>3d</fix>
</trkpt>
<trkpt lat="33.810313" lon="-118.393867">
  <ele>-0.12</ele>
  <time>2026-09-01T01:18:03Z</time>
  <course>0.0</course>
  <speed>0.0</speed>
  <fix>3d</fix>
</trkpt>
<trkpt lat="33.810313" lon="-118.393867">
  <ele>-0.124</ele>
  <time>2026-09-01T01:18:03Z</time>
  <course>188.35</course>
  <speed>0.01414213562373095</speed>
  <fix>3d</fix>
</trkpt>
<trkpt lat="33.810313" lon="-118.393867">
  <ele>-0.12</ele>
  <time>2026-09-01T01:18:03Z</time>
  <course>0.0</course>
  <speed>0.0</speed>
  <fix>3d</fix>
</trkpt>
<trkpt lat="33.810313" lon="-118.393867">
  <ele>-0.122</ele>
  <time>2026-09-01T01:18:03Z</time>
  <course>188.34</course>
  <speed>0.01414213562373095</speed>
  <fix>3d</fix>
</trkpt>
<trkpt lat="33.810313" lon="-118.393867">
  <ele>-0.12</ele>
  <time>2026-09-01T01:18:03Z</time>
  <course>0.0</course>
  <speed>0.0</speed>
  <fix>3d</fix>
</trkpt>
<trkpt lat="33.810313" lon="-118.393867">
  <ele>-0.123</ele>
  <time>2026-09-01T01:18:03Z</time>
  <course>188.33</course>
  <speed>0.01414213562373095</speed>
  <fix>3d</fix>
</trkpt>
<trkpt lat="33.810313" lon="-118.393867">
  <ele>-0.12</ele>
  <time>2026-09-01T01:18:03Z</time>
  <course>0.0</course>
  <speed>0.0</speed>
  <fix>3d</fix>
</trkpt>
<trkpt lat="33.810313" lon="-118.393867">
  <ele>-0.125</ele>
  <time>2026-09-01T01:18:03Z</time>
  <course>188.33</course>
  <speed>0.01414213562373095</speed>
  <fix>3d</fix>
</trkpt>
<trkpt lat="33.810313" lon="-118.393867">
  <ele>-0.12</ele>
  <time>2026-09-01T01:18:03Z</time>
  <course>0.0</course>
  <speed>0.0</speed>
  <fix>3d</fix>
</trkpt>
<trkpt lat="33.810313" lon="-118.393867">
  <ele>-0.128</ele>
  <time>2026-09-01T01:18:03Z</time>
  <course>188.32</course>
  <speed>0.01414213562373095</speed>
  <fix>3d</fix>
</trkpt>
<trkpt lat="33.810313" lon="-118.393867">
  <ele>-0.12</ele>
  <time>2026-09-01T01:18:03Z</time>
  <course>0.0</course>
  <speed>0.0</speed>
  <fix>3d</fix>
</trkpt>
<trkpt lat="33.810313" lon="-118.393867">
  <ele>-0.132</ele>
  <time>2026-09-01T01:18:03Z</time>
  <course>188.31</course>
  <speed>0.01414213562373095</speed>
  <fix>3d</fix>
</trkpt>
<trkpt lat="33.810313" lon="-118.393867">
  <ele>-0.12</ele>
  <time>2026-09-01T01:18:03Z</time>
  <course>0.0</course>
  <speed>0.0</speed>
  <fix>3d</fix>
</trkpt>
<trkpt lat="33.810313" lon="-118.393867">
  <ele>-0.135</ele>
  <time>2026-09-01T01:18:03Z</time>
  <course>188.3</course>
  <speed>0.01414213562373095</speed>
  <fix>3d</fix>
</trkpt>
<trkpt lat="33.810313" lon="-118.393867">
  <ele>-0.12</ele>
  <time>2026-09-01T01:18:03Z</time>
  <course>0.0</course>
  <speed>0.0</speed>
  <fix>3d</fix>
</trkpt>
<trkpt lat="33.810313" lon="-118.393867">
  <ele>-0.135</ele>
  <time>2026-09-01T01:18:03Z</time>
  <course>188.3</course>
  <speed>0.01414213562373095</speed>
  <fix>3d</fix>
</trkpt>
<trkpt lat="33.810313" lon="-118.393867">
  <ele>-0.12</ele>
  <time>2026-09-01T01:18:03Z</time>
  <course>0.0</course>
  <speed>0.0</speed>
  <fix>3d</fix>
</trkpt>
<trkpt lat="33.810313" lon="-118.393867">
  <ele>-0.134</ele>
  <time>2026-09-01T01:18:03Z</time>
  <course>188.29</course>
  <speed>0.01414213562373095</speed>
  <fix>3d</fix>
</trkpt>
<trkpt lat="33.810313" lon="-118.393867">
  <ele>-0.12</ele>
  <time>2026-09-01T01:18:03Z</time>
  <course>0.0</course>
  <speed>0.0</speed>
  <fix>3d</fix>
</trkpt>
<trkpt lat="33.810313" lon="-118.393867">
  <ele>-0.132</ele>
  <time>2026-09-01T01:18:03Z</time>
  <course>188.28</course>
  <speed>0.01414213562373095</speed>
  <fix>3d</fix>
</trkpt>
<trkpt lat="33.810313" lon="-118.393867">
  <ele>-0.12</ele>
  <time>2026-09-01T01:18:03Z</time>
  <course>0.0</course>
  <speed>0.0</speed>
  <fix>3d</fix>
</trkpt>
<trkpt lat="33.810313" lon="-118.393867">
  <ele>-0.129</ele>
  <time>2026-09-01T01:18:03Z</time>
  <course>188.27</course>
  <speed>0.01414213562373095</speed>
  <fix>3d</fix>
</trkpt>
<trkpt lat="33.810313" lon="-118.393867">
  <ele>-0.12</ele>
  <time>2026-09-01T01:18:03Z</time>
  <course>0.0</course>
  <speed>0.0</speed>
  <fix>3d</fix>
</trkpt>
<trkpt lat="33.810313" lon="-118.393867">
  <ele>-0.127</ele>
  <time>2026-09-01T01:18:03Z</time>
  <course>188.26</course>
  <speed>0.01414213562373095</speed>
  <fix>3d</fix>
</trkpt>
<trkpt lat="33.810313" lon="-118.393867">
  <ele>-0.12</ele>
  <time>2026-09-01T01:18:03Z</time>
  <course>0.0</course>
  <speed>0.0</speed>
  <fix>3d</fix>
</trkpt>
<trkpt lat="33.810313" lon="-118.393867">
  <ele>-0.124</ele>
  <time>2026-09-01T01:18:03Z</time>
  <course>188.25</course>
  <speed>0.01414213562373095</speed>
  <fix>3d</fix>
</trkpt>
<trkpt lat="33.810313" lon="-118.393867">
  <ele>-0.12</ele>
  <time>2026-09-01T01:18:03Z</time>
  <course>0.0</course>
  <speed>0.0</speed>
  <fix>3d</fix>
</trkpt>
<trkpt lat="33.810313" lon="-118.393867">
  <ele>-0.123</ele>
  <time>2026-09-01T01:18:03Z</time>
  <course>188.25</course>
  <speed>0.01414213562373095</speed>
  <fix>3d</fix>
</trkpt>
<trkpt lat="33.810313" lon="-118.393867">
  <ele>-0.12</ele>
  <time>2026-09-01T01:18:03Z</time>
  <course>0.0</course>
  <speed>0.0</speed>
  <fix>3d</fix>
</trkpt>
<trkpt lat="33.810313" lon="-118.393867">
  <ele>-0.124</ele>
  <time>2026-09-01T01:18:03Z</time>
  <course>188.24</course>
  <speed>0.01414213562373095</speed>
  <fix>3d</fix>
</trkpt>
<trkpt lat="33.810313" lon="-118.393867">
  <ele>-0.12</ele>
  <time>2026-09-01T01:18:03Z</time>
  <course>0.0</course>
  <speed>0.0</speed>
  <fix>3d</fix>
</trkpt>
<trkpt lat="33.810313" lon="-118.393867">
  <ele>-0.126</ele>
  <time>2026-09-01T01:18:03Z</time>
  <course>188.23</course>
  <speed>0.01414213562373095</speed>
  <fix>3d</fix>
</trkpt>
<trkpt lat="33.810313" lon="-118.393867">
  <ele>-0.12</ele>
  <time>2026-09-01T01:18:03Z</time>
  <course>0.0</course>
  <speed>0.0</speed>
  <fix>3d</fix>
</trkpt>
<trkpt lat="33.810313" lon="-118.393867">
  <ele>-0.127</ele>
  <time>2026-09-01T01:18:03Z</time>
  <course>188.22</course>
  <speed>0.01414213562373095</speed>
  <fix>3d</fix>
</trkpt>
<trkpt lat="33.810313" lon="-118.393867">
  <ele>-0.12</ele>
  <time>2026-09-01T01:18:03Z</time>
  <course>0.0</course>
  <speed>0.0</speed>
  <fix>3d</fix>
</trkpt>
<trkpt lat="33.810313" lon="-118.393867">
  <ele>-0.129</ele>
  <time>2026-09-01T01:18:03Z</time>
  <course>188.21</course>
  <speed>0.01414213562373095</speed>
  <fix>3d</fix>
</trkpt>
<trkpt lat="33.810313" lon="-118.393867">
  <ele>-0.12</ele>
  <time>2026-09-01T01:18:03Z</time>
  <course>0.0</course>
  <speed>0.0</speed>
  <fix>3d</fix>
</trkpt>
<trkpt lat="33.810313" lon="-118.393867">
  <ele>-0.129</ele>
  <time>2026-09-01T01:18:03Z</time>
  <course>188.21</course>
  <speed>0.01414213562373095</speed>
  <fix>3d</fix>
</trkpt>
<trkpt lat="33.810313" lon="-118.393867">
  <ele>-0.12</ele>
  <time>2026-09-01T01:18:03Z</time>
  <course>0.0</course>
  <speed>0.0</speed>
  <fix>3d</fix>
</trkpt>
<trkpt lat="33.810313" lon="-118.393867">
  <ele>-0.129</ele>
  <time>2026-09-01T01:18:03Z</time>
  <course>188.2</course>
  <speed>0.01414213562373095</speed>
  <fix>3d</fix>
</trkpt>
<trkpt lat="33.810313" lon="-118.393867">
  <ele>-0.12</ele>
  <time>2026-09-01T01:18:03Z</time>
  <course>0.0</course>
  <speed>0.0</speed>
  <fix>3d</fix>
</trkpt>
<trkpt lat="33.810313" lon="-118.393867">
  <ele>-0.128</ele>
  <time>2026-09-01T01:18:03Z</time>
  <course>188.19</course>
  <speed>0.01414213562373095</speed>
  <fix>3d</fix>
</trkpt>
<trkpt lat="33.810313" lon="-118.393867">
  <ele>-0.12</ele>
  <time>2026-09-01T01:18:03Z</time>
  <course>0.0</course>
  <speed>0.0</speed>
  <fix>3d</fix>
</trkpt>
<trkpt lat="33.810313" lon="-118.393867">
  <ele>-0.128</ele>
  <time>2026-09-01T01:18:03Z</time>
  <course>188.18</course>
  <speed>0.01414213562373095</speed>
  <fix>3d</fix>
</trkpt>
<trkpt lat="33.810313" lon="-118.393867">
  <ele>-0.12</ele>
  <time>2026-09-01T01:18:03Z</time>
  <course>0.0</course>
  <speed>0.0</speed>
  <fix>3d</fix>
</trkpt>
<trkpt lat="33.810313" lon="-118.393867">
  <ele>-0.127</ele>
  <time>2026-09-01T01:18:03Z</time>
  <course>188.17</course>
  <speed>0.01414213562373095</speed>
  <fix>3d</fix>
</trkpt>
<trkpt lat="33.810313" lon="-118.393867">
  <ele>-0.12</ele>
  <time>2026-09-01T01:18:03Z</time>
  <course>0.0</course>
  <speed>0.0</speed>
  <fix>3d</fix>
</trkpt>
<trkpt lat="33.810313" lon="-118.393867">
  <ele>-0.127</ele>
  <time>2026-09-01T01:18:03Z</time>
  <course>188.16</course>
  <speed>0.01414213562373095</speed>
  <fix>3d</fix>
</trkpt>
<trkpt lat="33.810313" lon="-118.393867">
  <ele>-0.12</ele>
  <time>2026-09-01T01:18:03Z</time>
  <course>0.0</course>
  <speed>0.0</speed>
  <fix>3d</fix>
</trkpt>
<trkpt lat="33.810313" lon="-118.393867">
  <ele>-0.128</ele>
  <time>2026-09-01T01:18:03Z</time>
  <course>188.16</course>
  <speed>0.01414213562373095</speed>
  <fix>3d</fix>
</trkpt>
<trkpt lat="33.810313" lon="-118.393867">
  <ele>-0.12</ele>
  <time>2026-09-01T01:18:03Z</time>
  <course>0.0</course>
  <speed>0.0</speed>
  <fix>3d</fix>
</trkpt>
<trkpt lat="33.810313" lon="-118.393867">
  <ele>-0.129</ele>
  <time>2026-09-01T01:18:03Z</time>
  <course>188.15</course>
  <speed>0.01414213562373095</speed>
  <fix>3d</fix>
</trkpt>
<trkpt lat="33.810313" lon="-118.393867">
  <ele>-0.12</ele>
  <time>2026-09-01T01:18:03Z</time>
  <course>0.0</course>
  <speed>0.0</speed>
  <fix>3d</fix>
</trkpt>
<trkpt lat="33.810313" lon="-118.393867">
  <ele>-0.131</ele>
  <time>2026-09-01T01:18:03Z</time>
  <course>188.14</course>
  <speed>0.01414213562373095</speed>
  <fix>3d</fix>
</trkpt>
<trkpt lat="33.810313" lon="-118.393867">
  <ele>-0.12</ele>
  <time>2026-09-01T01:18:03Z</time>
  <course>0.0</course>
  <speed>0.0</speed>
  <fix>3d</fix>
</trkpt>
<trkpt lat="33.810313" lon="-118.393867">
  <ele>-0.133</ele>
  <time>2026-09-01T01:18:03Z</time>
  <course>188.13</course>
  <speed>0.01414213562373095</speed>
  <fix>3d</fix>
</trkpt>
<trkpt lat="33.810313" lon="-118.393867">
  <ele>-0.12</ele>
  <time>2026-09-01T01:18:03Z</time>
  <course>0.0</course>
  <speed>0.0</speed>
  <fix>3d</fix>
</trkpt>
<trkpt lat="33.810313" lon="-118.393867">
  <ele>-0.135</ele>
  <time>2026-09-01T01:18:03Z</time>
  <course>188.12</course>
  <speed>0.01414213562373095</speed>
  <fix>3d</fix>
</trkpt>
<trkpt lat="33.810313" lon="-118.393867">
  <ele>-0.12</ele>
  <time>2026-09-01T01:18:03Z</time>
  <course>0.0</course>
  <speed>0.0</speed>
  <fix>3d</fix>
</trkpt>
<trkpt lat="33.810313" lon="-118.393867">
  <ele>-0.136</ele>
  <time>2026-09-01T01:18:03Z</time>
  <course>188.12</course>
  <speed>0.01414213562373095</speed>
  <fix>3d</fix>
</trkpt>
<trkpt lat="33.810313" lon="-118.393867">
  <ele>-0.12</ele>
  <time>2026-09-01T01:18:03Z</time>
  <course>0.0</course>
  <speed>0.0</speed>
  <fix>3d</fix>
</trkpt>
<trkpt lat="33.810313" lon="-118.393867">
  <ele>-0.136</ele>
  <time>2026-09-01T01:18:03Z</time>
  <course>188.11</course>
  <speed>0.01414213562373095</speed>
  <fix>3d</fix>
</trkpt>
<trkpt lat="33.810313" lon="-118.393867">
  <ele>-0.12</ele>
  <time>2026-09-01T01:18:03Z</time>
  <course>0.0</course>
  <speed>0.0</speed>
  <fix>3d</fix>
</trkpt>
<trkpt lat="33.810313" lon="-118.393867">
  <ele>-0.136</ele>
  <time>2026-09-01T01:18:03Z</time>
  <course>188.1</course>
  <speed>0.01414213562373095</speed>
  <fix>3d</fix>
</trkpt>
<trkpt lat="33.810313" lon="-118.393867">
  <ele>-0.12</ele>
  <time>2026-09-01T01:18:03Z</time>
  <course>0.0</course>
  <speed>0.0</speed>
  <fix>3d</fix>
</trkpt>
<trkpt lat="33.810313" lon="-118.393867">
  <ele>-0.135</ele>
  <time>2026-09-01T01:18:03Z</time>
  <course>188.09</course>
  <speed>0.01414213562373095</speed>
  <fix>3d</fix>
</trkpt>
<trkpt lat="33.810313" lon="-118.393867">
  <ele>-0.12</ele>
  <time>2026-09-01T01:18:03Z</time>
  <course>0.0</course>
  <speed>0.0</speed>
  <fix>3d</fix>
</trkpt>
<trkpt lat="33.810313" lon="-118.393867">
  <ele>-0.134</ele>
  <time>2026-09-01T01:18:03Z</time>
  <course>188.08</course>
  <speed>0.01414213562373095</speed>
  <fix>3d</fix>
</trkpt>
<trkpt lat="33.810313" lon="-118.393867">
  <ele>-0.12</ele>
  <time>2026-09-01T01:18:03Z</time>
  <course>0.0</course>
  <speed>0.0</speed>
  <fix>3d</fix>
</trkpt>
<trkpt lat="33.810313" lon="-118.393867">
  <ele>-0.131</ele>
  <time>2026-09-01T01:18:03Z</time>
  <course>188.07</course>
  <speed>0.022360679774997897</speed>
  <fix>3d</fix>
</trkpt>
<trkpt lat="33.810313" lon="-118.393867">
  <ele>-0.12</ele>
  <time>2026-09-01T01:18:03Z</time>
  <course>0.0</course>
  <speed>0.0</speed>
  <fix>3d</fix>
</trkpt>
<trkpt lat="33.810313" lon="-118.393867">
  <ele>-0.128</ele>
  <time>2026-09-01T01:18:03Z</time>
  <course>188.07</course>
  <speed>0.022360679774997897</speed>
  <fix>3d</fix>
</trkpt>
<trkpt lat="33.810313" lon="-118.393867">
  <ele>-0.12</ele>
  <time>2026-09-01T01:18:03Z</time>
  <course>0.0</course>
  <speed>0.0</speed>
  <fix>3d</fix>
</trkpt>
<trkpt lat="33.810313" lon="-118.393867">
  <ele>-0.126</ele>
  <time>2026-09-01T01:18:03Z</time>
  <course>188.06</course>
  <speed>0.022360679774997897</speed>
  <fix>3d</fix>
</trkpt>
<trkpt lat="33.810313" lon="-118.393867">
  <ele>-0.12</ele>
  <time>2026-09-01T01:18:03Z</time>
  <course>0.0</course>
  <speed>0.0</speed>
  <fix>3d</fix>
</trkpt>
<trkpt lat="33.810313" lon="-118.393867">
  <ele>-0.126</ele>
  <time>2026-09-01T01:18:03Z</time>
  <course>188.05</course>
  <speed>0.022360679774997897</speed>
  <fix>3d</fix>
</trkpt>
<trkpt lat="33.810313" lon="-118.393867">
  <ele>-0.12</ele>
  <time>2026-09-01T01:18:03Z</time>
  <course>0.0</course>
  <speed>0.0</speed>
  <fix>3d</fix>
</trkpt>
<trkpt lat="33.810313" lon="-118.393867">
  <ele>-0.126</ele>
  <time>2026-09-01T01:18:03Z</time>
  <course>188.04</course>
  <speed>0.022360679774997897</speed>
  <fix>3d</fix>
</trkpt>
<trkpt lat="33.810313" lon="-118.393867">
  <ele>-0.12</ele>
  <time>2026-09-01T01:18:03Z</time>
  <course>0.0</course>
  <speed>0.0</speed>
  <fix>3d</fix>
</trkpt>
<trkpt lat="33.810313" lon="-118.393867">
  <ele>-0.127</ele>
  <time>2026-09-01T01:18:03Z</time>
  <course>188.03</course>
  <speed>0.022360679774997897</speed>
  <fix>3d</fix>
</trkpt>
<trkpt lat="33.810313" lon="-118.393867">
  <ele>-0.12</ele>
  <time>2026-09-01T01:18:03Z</time>
  <course>0.0</course>
  <speed>0.0</speed>
  <fix>3d</fix>
</trkpt>
<trkpt lat="33.810313" lon="-118.393867">
  <ele>-0.127</ele>
  <time>2026-09-01T01:18:03Z</time>
  <course>188.03</course>
  <speed>0.022360679774997897</speed>
  <fix>3d</fix>
</trkpt>
<trkpt lat="33.810313" lon="-118.393867">
  <ele>-0.12</ele>
  <time>2026-09-01T01:18:03Z</time>
  <course>0.0</course>
  <speed>0.0</speed>
  <fix>3d</fix>
</trkpt>
<trkpt lat="33.810313" lon="-118.393867">
  <ele>-0.127</ele>
  <time>2026-09-01T01:18:03Z</time>
  <course>188.02</course>
  <speed>0.022360679774997897</speed>
  <fix>3d</fix>
</trkpt>
<trkpt lat="33.810313" lon="-118.393867">
  <ele>-0.12</ele>
  <time>2026-09-01T01:18:03Z</time>
  <course>0.0</course>
  <speed>0.0</speed>
  <fix>3d</fix>
</trkpt>
<trkpt lat="33.810313" lon="-118.393867">
  <ele>-0.128</ele>
  <time>2026-09-01T01:18:03Z</time>
  <course>188.01</course>
  <speed>0.022360679774997897</speed>
  <fix>3d</fix>
</trkpt>
<trkpt lat="33.810313" lon="-118.393867">
  <ele>-0.12</ele>
  <time>2026-09-01T01:18:03Z</time>
  <course>0.0</course>
  <speed>0.0</speed>
  <fix>3d</fix>
</trkpt>
<trkpt lat="33.810313" lon="-118.393867">
  <ele>-0.128</ele>
  <time>2026-09-01T01:18:03Z</time>
  <course>188.0</course>
  <speed>0.022360679774997897</speed>
  <fix>3d</fix>
</trkpt>
<trkpt lat="33.810313" lon="-118.393867">
  <ele>-0.12</ele>
  <time>2026-09-01T01:18:03Z</time>
  <course>0.0</course>
  <speed>0.0</speed>
  <fix>3d</fix>
</trkpt>
<trkpt lat="33.810313" lon="-118.393867">
  <ele>-0.127</ele>
  <time>2026-09-01T01:18:03Z</time>
  <course>187.99</course>
  <speed>0.022360679774997897</speed>
  <fix>3d</fix>
</trkpt>
<trkpt lat="33.810313" lon="-118.393867">
  <ele>-0.12</ele>
  <time>2026-09-01T01:18:03Z</time>
  <course>0.0</course>
  <speed>0.0</speed>
  <fix>3d</fix>
</trkpt>
<trkpt lat="33.810313" lon="-118.393867">
  <ele>-0.126</ele>
  <time>2026-09-01T01:18:03Z</time>
  <course>187.98</course>
  <speed>0.022360679774997897</speed>
  <fix>3d</fix>
</trkpt>
<trkpt lat="33.810313" lon="-118.393867">
  <ele>-0.12</ele>
  <time>2026-09-01T01:18:03Z</time>
  <course>0.0</course>
  <speed>0.0</speed>
  <fix>3d</fix>
</trkpt>
<trkpt lat="33.810313" lon="-118.393867">
  <ele>-0.123</ele>
  <time>2026-09-01T01:18:03Z</time>
  <course>187.98</course>
  <speed>0.022360679774997897</speed>
  <fix>3d</fix>
</trkpt>
<trkpt lat="33.810313" lon="-118.393867">
  <ele>-0.12</ele>
  <time>2026-09-01T01:18:03Z</time>
  <course>0.0</course>
  <speed>0.0</speed>
  <fix>3d</fix>
</trkpt>
<trkpt lat="33.810313" lon="-118.393867">
  <ele>-0.121</ele>
  <time>2026-09-01T01:18:03Z</time>
  <course>187.97</course>
  <speed>0.022360679774997897</speed>
  <fix>3d</fix>
</trkpt>
<trkpt lat="33.810313" lon="-118.393867">
  <ele>-0.12</ele>
  <time>2026-09-01T01:18:03Z</time>
  <course>0.0</course>
  <speed>0.0</speed>
  <fix>3d</fix>
</trkpt>
<trkpt lat="33.810313" lon="-118.393867">
  <ele>-0.12</ele>
  <time>2026-09-01T01:18:03Z</time>
  <course>187.96</course>
  <speed>0.022360679774997897</speed>
  <fix>3d</fix>
</trkpt>
<trkpt lat="33.810313" lon="-118.393867">
  <ele>-0.12</ele>
  <time>2026-09-01T01:18:03Z</time>
  <course>0.0</course>
  <speed>0.0</speed>
  <fix>3d</fix>
</trkpt>
<trkpt lat="33.810313" lon="-118.393867">
  <ele>-0.12</ele>
  <time>2026-09-01T01:18:03Z</time>
  <course>187.95</course>
  <speed>0.022360679774997897</speed>
  <fix>3d</fix>
</trkpt>
<trkpt lat="33.810313" lon="-118.393867">
  <ele>-0.12</ele>
  <time>2026-09-01T01:18:03Z</time>
  <course>0.0</course>
  <speed>0.0</speed>
  <fix>3d</fix>
</trkpt>
<trkpt lat="33.810313" lon="-118.393867">
  <ele>-0.122</ele>
  <time>2026-09-01T01:18:03Z</time>
  <course>187.94</course>
  <speed>0.022360679774997897</speed>
  <fix>3d</fix>
</trkpt>
<trkpt lat="33.810313" lon="-118.393867">
  <ele>-0.12</ele>
  <time>2026-09-01T01:18:03Z</time>
  <course>0.0</course>
  <speed>0.0</speed>
  <fix>3d</fix>
</trkpt>
<trkpt lat="33.810313" lon="-118.393867">
  <ele>-0.125</ele>
  <time>2026-09-01T01:18:03Z</time>
  <course>187.94</course>
  <speed>0.022360679774997897</speed>
  <fix>3d</fix>
</trkpt>
<trkpt lat="33.810313" lon="-118.393867">
  <ele>-0.12</ele>
  <time>2026-09-01T01:18:03Z</time>
  <course>0.0</course>
  <speed>0.0</speed>
  <fix>3d</fix>
</trkpt>
<trkpt lat="33.810313" lon="-118.393867">
  <ele>-0.129</ele>
  <time>2026-09-01T01:18:03Z</time>
  <course>187.93</course>
  <speed>0.022360679774997897</speed>
  <fix>3d</fix>
</trkpt>
<trkpt lat="33.810313" lon="-118.393867">
  <ele>-0.12</ele>
  <time>2026-09-01T01:18:03Z</time>
  <course>0.0</course>
  <speed>0.0</speed>
  <fix>3d</fix>
</trkpt>
<trkpt lat="33.810313" lon="-118.393867">
  <ele>-0.131</ele>
  <time>2026-09-01T01:18:03Z</time>
  <course>187.92</course>
  <speed>0.022360679774997897</speed>
  <fix>3d</fix>
</trkpt>
<trkpt lat="33.810313" lon="-118.393867">
  <ele>-0.12</ele>
  <time>2026-09-01T01:18:03Z</time>
  <course>0.0</course>
  <speed>0.0</speed>
  <fix>3d</fix>
</trkpt>
<trkpt lat="33.810313" lon="-118.393867">
  <ele>-0.132</ele>
  <time>2026-09-01T01:18:03Z</time>
  <course>187.91</course>
  <speed>0.022360679774997897</speed>
  <fix>3d</fix>
</trkpt>
<trkpt lat="33.810313" lon="-118.393867">
  <ele>-0.12</ele>
  <time>2026-09-01T01:18:03Z</time>
  <course>0.0</course>
  <speed>0.0</speed>
  <fix>3d</fix>
</trkpt>
<trkpt lat="33.810313" lon="-118.393867">
  <ele>-0.132</ele>
  <time>2026-09-01T01:18:04Z</time>
  <course>187.9</course>
  <speed>0.022360679774997897</speed>
  <fix>3d</fix>
</trkpt>
<trkpt lat="33.810313" lon="-118.393867">
  <ele>-0.12</ele>
  <time>2026-09-01T01:18:04Z</time>
  <course>0.0</course>
  <speed>0.0</speed>
  <fix>3d</fix>
</trkpt>
<trkpt lat="33.810313" lon="-118.393867">
  <ele>-0.132</ele>
  <time>2026-09-01T01:18:04Z</time>
  <course>187.9</course>
  <speed>0.022360679774997897</speed>
  <fix>3d</fix>
</trkpt>
<trkpt lat="33.810313" lon="-118.393867">
  <ele>-0.12</ele>
  <time>2026-09-01T01:18:04Z</time>
  <course>0.0</course>
  <speed>0.0</speed>
  <fix>3d</fix>
</trkpt>
<trkpt lat="33.810313" lon="-118.393867">
  <ele>-0.13</ele>
  <time>2026-09-01T01:18:04Z</time>
  <course>187.89</course>
  <speed>0.022360679774997897</speed>
  <fix>3d</fix>
</trkpt>
<trkpt lat="33.810313" lon="-118.393867">
  <ele>-0.12</ele>
  <time>2026-09-01T01:18:04Z</time>
  <course>0.0</course>
  <speed>0.0</speed>
  <fix>3d</fix>
</trkpt>
<trkpt lat="33.810313" lon="-118.393867">
  <ele>-0.127</ele>
  <time>2026-09-01T01:18:04Z</time>
  <course>187.88</course>
  <speed>0.022360679774997897</speed>
  <fix>3d</fix>
</trkpt>
<trkpt lat="33.810313" lon="-118.393867">
  <ele>-0.12</ele>
  <time>2026-09-01T01:18:04Z</time>
  <course>0.0</course>
  <speed>0.0</speed>
  <fix>3d</fix>
</trkpt>
<trkpt lat="33.810313" lon="-118.393867">
  <ele>-0.123</ele>
  <time>2026-09-01T01:18:04Z</time>
  <course>187.87</course>
  <speed>0.022360679774997897</speed>
  <fix>3d</fix>
</trkpt>
<trkpt lat="33.810313" lon="-118.393867">
  <ele>-0.12</ele>
  <time>2026-09-01T01:18:04Z</time>
  <course>0.0</course>
  <speed>0.0</speed>
  <fix>3d</fix>
</trkpt>
<trkpt lat="33.810313" lon="-118.393867">
  <ele>-0.121</ele>
  <time>2026-09-01T01:18:04Z</time>
  <course>187.87</course>
  <speed>0.022360679774997897</speed>
  <fix>3d</fix>
</trkpt>
<trkpt lat="33.810313" lon="-118.393867">
  <ele>-0.12</ele>
  <time>2026-09-01T01:18:04Z</time>
  <course>0.0</course>
  <speed>0.0</speed>
  <fix>3d</fix>
</trkpt>
<trkpt lat="33.810313" lon="-118.393867">
  <ele>-0.121</ele>
  <time>2026-09-01T01:18:04Z</time>
  <course>187.86</course>
  <speed>0.022360679774997897</speed>
  <fix>3d</fix>
</trkpt>
<trkpt lat="33.810313" lon="-118.393867">
  <ele>-0.12</ele>
  <time>2026-09-01T01:18:04Z</time>
  <course>0.0</course>
  <speed>0.0</speed>
  <fix>3d</fix>
</trkpt>
<trkpt lat="33.810313" lon="-118.393867">
  <ele>-0.123</ele>
  <time>2026-09-01T01:18:04Z</time>
  <course>187.85</course>
  <speed>0.022360679774997897</speed>
  <fix>3d</fix>
</trkpt>
<trkpt lat="33.810313" lon="-118.393867">
  <ele>-0.12</ele>
  <time>2026-09-01T01:18:04Z</time>
  <course>0.0</course>
  <speed>0.0</speed>
  <fix>3d</fix>
</trkpt>
<trkpt lat="33.810313" lon="-118.393867">
  <ele>-0.124</ele>
  <time>2026-09-01T01:18:04Z</time>
  <course>187.84</course>
  <speed>0.022360679774997897</speed>
  <fix>3d</fix>
</trkpt>
<trkpt lat="33.810313" lon="-118.393867">
  <ele>-0.12</ele>
  <time>2026-09-01T01:18:04Z</time>
  <course>0.0</course>
  <speed>0.0</speed>
  <fix>3d</fix>
</trkpt>
<trkpt lat="33.810313" lon="-118.393867">
  <ele>-0.126</ele>
  <time>2026-09-01T01:18:04Z</time>
  <course>187.83</course>
  <speed>0.022360679774997897</speed>
  <fix>3d</fix>
</trkpt>
<trkpt lat="33.810313" lon="-118.393867">
  <ele>-0.12</ele>
  <time>2026-09-01T01:18:04Z</time>
  <course>0.0</course>
  <speed>0.0</speed>
  <fix>3d</fix>
</trkpt>
<trkpt lat="33.810313" lon="-118.393867">
  <ele>-0.127</ele>
  <time>2026-09-01T01:18:04Z</time>
  <course>187.83</course>
  <speed>0.022360679774997897</speed>
  <fix>3d</fix>
</trkpt>
<trkpt lat="33.810313" lon="-118.393867">
  <ele>-0.12</ele>
  <time>2026-09-01T01:18:04Z</time>
  <course>0.0</course>
  <speed>0.0</speed>
  <fix>3d</fix>
</trkpt>
<trkpt lat="33.810313" lon="-118.393867">
  <ele>-0.127</ele>
  <time>2026-09-01T01:18:04Z</time>
  <course>187.82</course>
  <speed>0.022360679774997897</speed>
  <fix>3d</fix>
</trkpt>
<trkpt lat="33.810313" lon="-118.393867">
  <ele>-0.12</ele>
  <time>2026-09-01T01:18:04Z</time>
  <course>0.0</course>
  <speed>0.0</speed>
  <fix>3d</fix>
</trkpt>
<trkpt lat="33.810313" lon="-118.393867">
  <ele>-0.127</ele>
  <time>2026-09-01T01:18:04Z</time>
  <course>187.81</course>
  <speed>0.022360679774997897</speed>
  <fix>3d</fix>
</trkpt>
<trkpt lat="33.810313" lon="-118.393867">
  <ele>-0.12</ele>
  <time>2026-09-01T01:18:04Z</time>
  <course>0.0</course>
  <speed>0.0</speed>
  <fix>3d</fix>
</trkpt>
<trkpt lat="33.810313" lon="-118.393867">
  <ele>-0.126</ele>
  <time>2026-09-01T01:18:04Z</time>
  <course>187.8</course>
  <speed>0.022360679774997897</speed>
  <fix>3d</fix>
</trkpt>
<trkpt lat="33.810313" lon="-118.393867">
  <ele>-0.12</ele>
  <time>2026-09-01T01:18:04Z</time>
  <course>0.0</course>
  <speed>0.0</speed>
  <fix>3d</fix>
</trkpt>
<trkpt lat="33.810313" lon="-118.393867">
  <ele>-0.124</ele>
  <time>2026-09-01T01:18:04Z</time>
  <course>187.8</course>
  <speed>0.022360679774997897</speed>
  <fix>3d</fix>
</trkpt>
<trkpt lat="33.810313" lon="-118.393867">
  <ele>-0.12</ele>
  <time>2026-09-01T01:18:04Z</time>
  <course>0.0</course>
  <speed>0.0</speed>
  <fix>3d</fix>
</trkpt>
<trkpt lat="33.810313" lon="-118.393867">
  <ele>-0.121</ele>
  <time>2026-09-01T01:18:04Z</time>
  <course>187.79</course>
  <speed>0.022360679774997897</speed>
  <fix>3d</fix>
</trkpt>
<trkpt lat="33.810313" lon="-118.393867">
  <ele>-0.12</ele>
  <time>2026-09-01T01:18:04Z</time>
  <course>0.0</course>
  <speed>0.0</speed>
  <fix>3d</fix>
</trkpt>
<trkpt lat="33.810313" lon="-118.393867">
  <ele>-0.119</ele>
  <time>2026-09-01T01:18:04Z</time>
  <course>187.78</course>
  <speed>0.022360679774997897</speed>
  <fix>3d</fix>
</trkpt>
<trkpt lat="33.810313" lon="-118.393867">
  <ele>-0.12</ele>
  <time>2026-09-01T01:18:04Z</time>
  <course>0.0</course>
  <speed>0.0</speed>
  <fix>3d</fix>
</trkpt>
<trkpt lat="33.810313" lon="-118.393867">
  <ele>-0.118</ele>
  <time>2026-09-01T01:18:04Z</time>
  <course>187.77</course>
  <speed>0.022360679774997897</speed>
  <fix>3d</fix>
</trkpt>
<trkpt lat="33.810313" lon="-118.393867">
  <ele>-0.12</ele>
  <time>2026-09-01T01:18:04Z</time>
  <course>0.0</course>
  <speed>0.0</speed>
  <fix>3d</fix>
</trkpt>
<trkpt lat="33.810313" lon="-118.393867">
  <ele>-0.118</ele>
  <time>2026-09-01T01:18:04Z</time>
  <course>187.76</course>
  <speed>0.022360679774997897</speed>
  <fix>3d</fix>
</trkpt>
<trkpt lat="33.810313" lon="-118.393867">
  <ele>-0.12</ele>
  <time>2026-09-01T01:18:04Z</time>
  <course>0.0</course>
  <speed>0.0</speed>
  <fix>3d</fix>
</trkpt>
<trkpt lat="33.810313" lon="-118.393867">
  <ele>-0.119</ele>
  <time>2026-09-01T01:18:04Z</time>
  <course>187.76</course>
  <speed>0.022360679774997897</speed>
  <fix>3d</fix>
</trkpt>
<trkpt lat="33.810313" lon="-118.393867">
  <ele>-0.12</ele>
  <time>2026-09-01T01:18:04Z</time>
  <course>0.0</course>
  <speed>0.0</speed>
  <fix>3d</fix>
</trkpt>
<trkpt lat="33.810313" lon="-118.393867">
  <ele>-0.12</ele>
  <time>2026-09-01T01:18:04Z</time>
  <course>187.75</course>
  <speed>0.022360679774997897</speed>
  <fix>3d</fix>
</trkpt>
<trkpt lat="33.810313" lon="-118.393867">
  <ele>-0.12</ele>
  <time>2026-09-01T01:18:04Z</time>
  <course>0.0</course>
  <speed>0.0</speed>
  <fix>3d</fix>
</trkpt>
<trkpt lat="33.810313" lon="-118.393867">
  <ele>-0.12</ele>
  <time>2026-09-01T01:18:04Z</time>
  <course>187.74</course>
  <speed>0.0282842712474619</speed>
  <fix>3d</fix>
</trkpt>
<trkpt lat="33.810313" lon="-118.393867">
  <ele>-0.12</ele>
  <time>2026-09-01T01:18:04Z</time>
  <course>0.0</course>
  <speed>0.0</speed>
  <fix>3d</fix>
</trkpt>
<trkpt lat="33.810313" lon="-118.393867">
  <ele>-0.12</ele>
  <time>2026-09-01T01:18:04Z</time>
  <course>187.74</course>
  <speed>0.0282842712474619</speed>
  <fix>3d</fix>
</trkpt>
<trkpt lat="33.810313" lon="-118.393867">
  <ele>-0.12</ele>
  <time>2026-09-01T01:18:04Z</time>
  <course>0.0</course>
  <speed>0.0</speed>
  <fix>3d</fix>
</trkpt>
<trkpt lat="33.810313" lon="-118.393867">
  <ele>-0.119</ele>
  <time>2026-09-01T01:18:04Z</time>
  <course>187.73</course>
  <speed>0.0282842712474619</speed>
  <fix>3d</fix>
</trkpt>
<trkpt lat="33.810313" lon="-118.393867">
  <ele>-0.12</ele>
  <time>2026-09-01T01:18:04Z</time>
  <course>0.0</course>
  <speed>0.0</speed>
  <fix>3d</fix>
</trkpt>
<trkpt lat="33.810313" lon="-118.393867">
  <ele>-0.118</ele>
  <time>2026-09-01T01:18:04Z</time>
  <course>187.72</course>
  <speed>0.0282842712474619</speed>
  <fix>3d</fix>
</trkpt>
<trkpt lat="33.810313" lon="-118.393867">
  <ele>-0.12</ele>
  <time>2026-09-01T01:18:04Z</time>
  <course>0.0</course>
  <speed>0.0</speed>
  <fix>3d</fix>
</trkpt>
<trkpt lat="33.810313" lon="-118.393867">
  <ele>-0.116</ele>
  <time>2026-09-01T01:18:04Z</time>
  <course>187.71</course>
  <speed>0.0282842712474619</speed>
  <fix>3d</fix>
</trkpt>
<trkpt lat="33.810313" lon="-118.393867">
  <ele>-0.12</ele>
  <time>2026-09-01T01:18:04Z</time>
  <course>0.0</course>
  <speed>0.0</speed>
  <fix>3d</fix>
</trkpt>
<trkpt lat="33.810313" lon="-118.393867">
  <ele>-0.113</ele>
  <time>2026-09-01T01:18:04Z</time>
  <course>187.71</course>
  <speed>0.0282842712474619</speed>
  <fix>3d</fix>
</trkpt>
<trkpt lat="33.810313" lon="-118.393867">
  <ele>-0.12</ele>
  <time>2026-09-01T01:18:04Z</time>
  <course>0.0</course>
  <speed>0.0</speed>
  <fix>3d</fix>
</trkpt>
<trkpt lat="33.810313" lon="-118.393867">
  <ele>-0.112</ele>
  <time>2026-09-01T01:18:04Z</time>
  <course>187.7</course>
  <speed>0.0282842712474619</speed>
  <fix>3d</fix>
</trkpt>
<trkpt lat="33.810313" lon="-118.393867">
  <ele>-0.12</ele>
  <time>2026-09-01T01:18:04Z</time>
  <course>0.0</course>
  <speed>0.0</speed>
  <fix>3d</fix>
</trkpt>
<trkpt lat="33.810313" lon="-118.393867">
  <ele>-0.113</ele>
  <time>2026-09-01T01:18:04Z</time>
  <course>187.69</course>
  <speed>0.0282842712474619</speed>
  <fix>3d</fix>
</trkpt>
<trkpt lat="33.810313" lon="-118.393867">
  <ele>-0.12</ele>
  <time>2026-09-01T01:18:04Z</time>
  <course>0.0</course>
  <speed>0.0</speed>
  <fix>3d</fix>
</trkpt>
<trkpt lat="33.810313" lon="-118.393867">
  <ele>-0.115</ele>
  <time>2026-09-01T01:18:04Z</time>
  <course>187.68</course>
  <speed>0.0282842712474619</speed>
  <fix>3d</fix>
</trkpt>
<trkpt lat="33.810313" lon="-118.393867">
  <ele>-0.12</ele>
  <time>2026-09-01T01:18:04Z</time>
  <course>0.0</course>
  <speed>0.0</speed>
  <fix>3d</fix>
</trkpt>
<trkpt lat="33.810313" lon="-118.393867">
  <ele>-0.119</ele>
  <time>2026-09-01T01:18:04Z</time>
  <course>187.68</course>
  <speed>0.0282842712474619</speed>
  <fix>3d</fix>
</trkpt>
<trkpt lat="33.810313" lon="-118.393867">
  <ele>-0.12</ele>
  <time>2026-09-01T01:18:04Z</time>
  <course>0.0</course>
  <speed>0.0</speed>
  <fix>3d</fix>
</trkpt>
<trkpt lat="33.810313" lon="-118.393867">
  <ele>-0.124</ele>
  <time>2026-09-01T01:18:04Z</time>
  <course>187.67</course>
  <speed>0.0282842712474619</speed>
  <fix>3d</fix>
</trkpt>
<trkpt lat="33.810313" lon="-118.393867">
  <ele>-0.12</ele>
  <time>2026-09-01T01:18:04Z</time>
  <course>0.0</course>
  <speed>0.0</speed>
  <fix>3d</fix>
</trkpt>
<trkpt lat="33.810313" lon="-118.393867">
  <ele>-0.129</ele>
  <time>2026-09-01T01:18:04Z</time>
  <course>187.66</course>
  <speed>0.0282842712474619</speed>
  <fix>3d</fix>
</trkpt>
<trkpt lat="33.810313" lon="-118.393867">
  <ele>-0.12</ele>
  <time>2026-09-01T01:18:04Z</time>
  <course>0.0</course>
  <speed>0.0</speed>
  <fix>3d</fix>
</trkpt>
<trkpt lat="33.810313" lon="-118.393867">
  <ele>-0.133</ele>
  <time>2026-09-01T01:18:04Z</time>
  <course>187.66</course>
  <speed>0.0282842712474619</speed>
  <fix>3d</fix>
</trkpt>
<trkpt lat="33.810313" lon="-118.393867">
  <ele>-0.12</ele>
  <time>2026-09-01T01:18:04Z</time>
  <course>0.0</course>
  <speed>0.0</speed>
  <fix>3d</fix>
</trkpt>
<trkpt lat="33.810313" lon="-118.393867">
  <ele>-0.135</ele>
  <time>2026-09-01T01:18:04Z</time>
  <course>187.65</course>
  <speed>0.0282842712474619</speed>
  <fix>3d</fix>
</trkpt>
<trkpt lat="33.810313" lon="-118.393867">
  <ele>-0.12</ele>
  <time>2026-09-01T01:18:04Z</time>
  <course>0.0</course>
  <speed>0.0</speed>
  <fix>3d</fix>
</trkpt>
<trkpt lat="33.810313" lon="-118.393867">
  <ele>-0.135</ele>
  <time>2026-09-01T01:18:04Z</time>
  <course>187.64</course>
  <speed>0.0282842712474619</speed>
  <fix>3d</fix>
</trkpt>
<trkpt lat="33.810313" lon="-118.393867">
  <ele>-0.12</ele>
  <time>2026-09-01T01:18:04Z</time>
  <course>0.0</course>
  <speed>0.0</speed>
  <fix>3d</fix>
</trkpt>
<trkpt lat="33.810313" lon="-118.393867">
  <ele>-0.135</ele>
  <time>2026-09-01T01:18:04Z</time>
  <course>187.64</course>
  <speed>0.0282842712474619</speed>
  <fix>3d</fix>
</trkpt>
<trkpt lat="33.810313" lon="-118.393867">
  <ele>-0.12</ele>
  <time>2026-09-01T01:18:04Z</time>
  <course>0.0</course>
  <speed>0.0</speed>
  <fix>3d</fix>
</trkpt>
<trkpt lat="33.810313" lon="-118.393867">
  <ele>-0.133</ele>
  <time>2026-09-01T01:18:04Z</time>
  <course>187.63</course>
  <speed>0.0282842712474619</speed>
  <fix>3d</fix>
</trkpt>
<trkpt lat="33.810313" lon="-118.393867">
  <ele>-0.12</ele>
  <time>2026-09-01T01:18:04Z</time>
  <course>0.0</course>
  <speed>0.0</speed>
  <fix>3d</fix>
</trkpt>
<trkpt lat="33.810313" lon="-118.393867">
  <ele>-0.132</ele>
  <time>2026-09-01T01:18:04Z</time>
  <course>187.63</course>
  <speed>0.03605551275463989</speed>
  <fix>3d</fix>
</trkpt>
<trkpt lat="33.810313" lon="-118.393867">
  <ele>-0.12</ele>
  <time>2026-09-01T01:18:04Z</time>
  <course>0.0</course>
  <speed>0.0</speed>
  <fix>3d</fix>
</trkpt>
<trkpt lat="33.810313" lon="-118.393867">
  <ele>-0.132</ele>
  <time>2026-09-01T01:18:04Z</time>
  <course>187.62</course>
  <speed>0.03605551275463989</speed>
  <fix>3d</fix>
</trkpt>
<trkpt lat="33.810313" lon="-118.393867">
  <ele>-0.12</ele>
  <time>2026-09-01T01:18:04Z</time>
  <course>0.0</course>
  <speed>0.0</speed>
  <fix>3d</fix>
</trkpt>
<trkpt lat="33.810313" lon="-118.393867">
  <ele>-0.133</ele>
  <time>2026-09-01T01:18:04Z</time>
  <course>187.61</course>
  <speed>0.03605551275463989</speed>
  <fix>3d</fix>
</trkpt>
<trkpt lat="33.810313" lon="-118.393867">
  <ele>-0.12</ele>
  <time>2026-09-01T01:18:04Z</time>
  <course>0.0</course>
  <speed>0.0</speed>
  <fix>3d</fix>
</trkpt>
<trkpt lat="33.810313" lon="-118.393867">
  <ele>-0.134</ele>
  <time>2026-09-01T01:18:04Z</time>
  <course>187.6</course>
  <speed>0.03605551275463989</speed>
  <fix>3d</fix>
</trkpt>
<trkpt lat="33.810313" lon="-118.393867">
  <ele>-0.12</ele>
  <time>2026-09-01T01:18:04Z</time>
  <course>0.0</course>
  <speed>0.0</speed>
  <fix>3d</fix>
</trkpt>
<trkpt lat="33.810313" lon="-118.393867">
  <ele>-0.134</ele>
  <time>2026-09-01T01:18:04Z</time>
  <course>187.6</course>
  <speed>0.03605551275463989</speed>
  <fix>3d</fix>
</trkpt>
<trkpt lat="33.810313" lon="-118.393867">
  <ele>-0.12</ele>
  <time>2026-09-01T01:18:04Z</time>
  <course>0.0</course>
  <speed>0.0</speed>
  <fix>3d</fix>
</trkpt>
<trkpt lat="33.810313" lon="-118.393867">
  <ele>-0.134</ele>
  <time>2026-09-01T01:18:04Z</time>
  <course>187.59</course>
  <speed>0.03605551275463989</speed>
  <fix>3d</fix>
</trkpt>
<trkpt lat="33.810313" lon="-118.393867">
  <ele>-0.12</ele>
  <time>2026-09-01T01:18:04Z</time>
  <course>0.0</course>
  <speed>0.0</speed>
  <fix>3d</fix>
</trkpt>
<trkpt lat="33.810313" lon="-118.393867">
  <ele>-0.132</ele>
  <time>2026-09-01T01:18:04Z</time>
  <course>187.58</course>
  <speed>0.03605551275463989</speed>
  <fix>3d</fix>
</trkpt>
<trkpt lat="33.810313" lon="-118.393867">
  <ele>-0.12</ele>
  <time>2026-09-01T01:18:04Z</time>
  <course>0.0</course>
  <speed>0.0</speed>
  <fix>3d</fix>
</trkpt>
<trkpt lat="33.810313" lon="-118.393867">
  <ele>-0.129</ele>
  <time>2026-09-01T01:18:04Z</time>
  <course>187.58</course>
  <speed>0.03605551275463989</speed>
  <fix>3d</fix>
</trkpt>
<trkpt lat="33.810313" lon="-118.393867">
  <ele>-0.12</ele>
  <time>2026-09-01T01:18:04Z</time>
  <course>0.0</course>
  <speed>0.0</speed>
  <fix>3d</fix>
</trkpt>
<trkpt lat="33.810313" lon="-118.393867">
  <ele>-0.127</ele>
  <time>2026-09-01T01:18:04Z</time>
  <course>187.57</course>
  <speed>0.03605551275463989</speed>
  <fix>3d</fix>
</trkpt>
<trkpt lat="33.810313" lon="-118.393867">
  <ele>-0.12</ele>
  <time>2026-09-01T01:18:04Z</time>
  <course>0.0</course>
  <speed>0.0</speed>
  <fix>3d</fix>
</trkpt>
<trkpt lat="33.810313" lon="-118.393867">
  <ele>-0.125</ele>
  <time>2026-09-01T01:18:04Z</time>
  <course>187.56</course>
  <speed>0.03605551275463989</speed>
  <fix>3d</fix>
</trkpt>
<trkpt lat="33.810313" lon="-118.393867">
  <ele>-0.12</ele>
  <time>2026-09-01T01:18:04Z</time>
  <course>0.0</course>
  <speed>0.0</speed>
  <fix>3d</fix>
</trkpt>
<trkpt lat="33.810313" lon="-118.393867">
  <ele>-0.122</ele>
  <time>2026-09-01T01:18:04Z</time>
  <course>187.56</course>
  <speed>0.03605551275463989</speed>
  <fix>3d</fix>
</trkpt>
<trkpt lat="33.810313" lon="-118.393867">
  <ele>-0.12</ele>
  <time>2026-09-01T01:18:04Z</time>
  <course>0.0</course>
  <speed>0.0</speed>
  <fix>3d</fix>
</trkpt>
<trkpt lat="33.810313" lon="-118.393867">
  <ele>-0.119</ele>
  <time>2026-09-01T01:18:04Z</time>
  <course>187.55</course>
  <speed>0.03605551275463989</speed>
  <fix>3d</fix>
</trkpt>
<trkpt lat="33.810313" lon="-118.393867">
  <ele>-0.12</ele>
  <time>2026-09-01T01:18:04Z</time>
  <course>0.0</course>
  <speed>0.0</speed>
  <fix>3d</fix>
</trkpt>
<trkpt lat="33.810313" lon="-118.393867">
  <ele>-0.117</ele>
  <time>2026-09-01T01:18:04Z</time>
  <course>187.54</course>
  <speed>0.03605551275463989</speed>
  <fix>3d</fix>
</trkpt>
<trkpt lat="33.810313" lon="-118.393867">
  <ele>-0.12</ele>
  <time>2026-09-01T01:18:04Z</time>
  <course>0.0</course>
  <speed>0.0</speed>
  <fix>3d</fix>
</trkpt>
<trkpt lat="33.810313" lon="-118.393867">
  <ele>-0.117</ele>
  <time>2026-09-01T01:18:04Z</time>
  <course>187.54</course>
  <speed>0.03605551275463989</speed>
  <fix>3d</fix>
</trkpt>
<trkpt lat="33.810313" lon="-118.393867">
  <ele>-0.12</ele>
  <time>2026-09-01T01:18:04Z</time>
  <course>0.0</course>
  <speed>0.0</speed>
  <fix>3d</fix>
</trkpt>
<trkpt lat="33.810313" lon="-118.393867">
  <ele>-0.118</ele>
  <time>2026-09-01T01:18:04Z</time>
  <course>187.53</course>
  <speed>0.03605551275463989</speed>
  <fix>3d</fix>
</trkpt>
<trkpt lat="33.810313" lon="-118.393867">
  <ele>-0.12</ele>
  <time>2026-09-01T01:18:04Z</time>
  <course>0.0</course>
  <speed>0.0</speed>
  <fix>3d</fix>
</trkpt>
<trkpt lat="33.810313" lon="-118.393867">
  <ele>-0.119</ele>
  <time>2026-09-01T01:18:04Z</time>
  <course>187.52</course>
  <speed>0.03605551275463989</speed>
  <fix>3d</fix>
</trkpt>
<trkpt lat="33.810313" lon="-118.393867">
  <ele>-0.12</ele>
  <time>2026-09-01T01:18:04Z</time>
  <course>0.0</course>
  <speed>0.0</speed>
  <fix>3d</fix>
</trkpt>
<trkpt lat="33.810313" lon="-118.393867">
  <ele>-0.12</ele>
  <time>2026-09-01T01:18:04Z</time>
  <course>187.52</course>
  <speed>0.03605551275463989</speed>
  <fix>3d</fix>
</trkpt>
<trkpt lat="33.810313" lon="-118.393867">
  <ele>-0.12</ele>
  <time>2026-09-01T01:18:04Z</time>
  <course>0.0</course>
  <speed>0.0</speed>
  <fix>3d</fix>
</trkpt>
<trkpt lat="33.810313" lon="-118.393867">
  <ele>-0.121</ele>
  <time>2026-09-01T01:18:04Z</time>
  <course>187.51</course>
  <speed>0.03605551275463989</speed>
  <fix>3d</fix>
</trkpt>
<trkpt lat="33.810313" lon="-118.393867">
  <ele>-0.12</ele>
  <time>2026-09-01T01:18:04Z</time>
  <course>0.0</course>
  <speed>0.0</speed>
  <fix>3d</fix>
</trkpt>
<trkpt lat="33.810313" lon="-118.393867">
  <ele>-0.121</ele>
  <time>2026-09-01T01:18:04Z</time>
  <course>187.51</course>
  <speed>0.03605551275463989</speed>
  <fix>3d</fix>
</trkpt>
<trkpt lat="33.810313" lon="-118.393867">
  <ele>-0.12</ele>
  <time>2026-09-01T01:18:04Z</time>
  <course>0.0</course>
  <speed>0.0</speed>
  <fix>3d</fix>
</trkpt>
<trkpt lat="33.810313" lon="-118.393867">
  <ele>-0.121</ele>
  <time>2026-09-01T01:18:04Z</time>
  <course>187.5</course>
  <speed>0.03605551275463989</speed>
  <fix>3d</fix>
</trkpt>
<trkpt lat="33.810313" lon="-118.393867">
  <ele>-0.12</ele>
  <time>2026-09-01T01:18:04Z</time>
  <course>0.0</course>
  <speed>0.0</speed>
  <fix>3d</fix>
</trkpt>
<trkpt lat="33.810313" lon="-118.393867">
  <ele>-0.121</ele>
  <time>2026-09-01T01:18:04Z</time>
  <course>187.49</course>
  <speed>0.03605551275463989</speed>
  <fix>3d</fix>
</trkpt>
<trkpt lat="33.810313" lon="-118.393867">
  <ele>-0.12</ele>
  <time>2026-09-01T01:18:04Z</time>
  <course>0.0</course>
  <speed>0.0</speed>
  <fix>3d</fix>
</trkpt>
<trkpt lat="33.810313" lon="-118.393867">
  <ele>-0.121</ele>
  <time>2026-09-01T01:18:04Z</time>
  <course>187.49</course>
  <speed>0.03605551275463989</speed>
  <fix>3d</fix>
</trkpt>
<trkpt lat="33.810313" lon="-118.393867">
  <ele>-0.12</ele>
  <time>2026-09-01T01:18:04Z</time>
  <course>0.0</course>
  <speed>0.0</speed>
  <fix>3d</fix>
</trkpt>
<trkpt lat="33.810313" lon="-118.393867">
  <ele>-0.121</ele>
  <time>2026-09-01T01:18:04Z</time>
  <course>187.48</course>
  <speed>0.03605551275463989</speed>
  <fix>3d</fix>
</trkpt>
<trkpt lat="33.810313" lon="-118.393867">
  <ele>-0.12</ele>
  <time>2026-09-01T01:18:04Z</time>
  <course>0.0</course>
  <speed>0.0</speed>
  <fix>3d</fix>
</trkpt>
<trkpt lat="33.810313" lon="-118.393867">
  <ele>-0.122</ele>
  <time>2026-09-01T01:18:04Z</time>
  <course>187.47</course>
  <speed>0.03605551275463989</speed>
  <fix>3d</fix>
</trkpt>
<trkpt lat="33.810313" lon="-118.393867">
  <ele>-0.12</ele>
  <time>2026-09-01T01:18:04Z</time>
  <course>0.0</course>
  <speed>0.0</speed>
  <fix>3d</fix>
</trkpt>
<trkpt lat="33.810313" lon="-118.393867">
  <ele>-0.124</ele>
  <time>2026-09-01T01:18:04Z</time>
  <course>187.47</course>
  <speed>0.03605551275463989</speed>
  <fix>3d</fix>
</trkpt>
<trkpt lat="33.810313" lon="-118.393867">
  <ele>-0.12</ele>
  <time>2026-09-01T01:18:04Z</time>
  <course>0.0</course>
  <speed>0.0</speed>
  <fix>3d</fix>
</trkpt>
<trkpt lat="33.810313" lon="-118.393867">
  <ele>-0.127</ele>
  <time>2026-09-01T01:18:04Z</time>
  <course>187.46</course>
  <speed>0.03605551275463989</speed>
  <fix>3d</fix>
</trkpt>
<trkpt lat="33.810313" lon="-118.393867">
  <ele>-0.12</ele>
  <time>2026-09-01T01:18:04Z</time>
  <course>0.0</course>
  <speed>0.0</speed>
  <fix>3d</fix>
</trkpt>
<trkpt lat="33.810313" lon="-118.393867">
  <ele>-0.129</ele>
  <time>2026-09-01T01:18:04Z</time>
  <course>187.45</course>
  <speed>0.03605551275463989</speed>
  <fix>3d</fix>
</trkpt>
<trkpt lat="33.810313" lon="-118.393867">
  <ele>-0.12</ele>
  <time>2026-09-01T01:18:04Z</time>
  <course>0.0</course>
  <speed>0.0</speed>
  <fix>3d</fix>
</trkpt>
<trkpt lat="33.810313" lon="-118.393867">
  <ele>-0.131</ele>
  <time>2026-09-01T01:18:04Z</time>
  <course>187.45</course>
  <speed>0.03605551275463989</speed>
  <fix>3d</fix>
</trkpt>
<trkpt lat="33.810313" lon="-118.393867">
  <ele>-0.12</ele>
  <time>2026-09-01T01:18:04Z</time>
  <course>0.0</course>
  <speed>0.0</speed>
  <fix>3d</fix>
</trkpt>
<trkpt lat="33.810313" lon="-118.393867">
  <ele>-0.132</ele>
  <time>2026-09-01T01:18:04Z</time>
  <course>187.44</course>
  <speed>0.03605551275463989</speed>
  <fix>3d</fix>
</trkpt>
<trkpt lat="33.810313" lon="-118.393867">
  <ele>-0.12</ele>
  <time>2026-09-01T01:18:04Z</time>
  <course>0.0</course>
  <speed>0.0</speed>
  <fix>3d</fix>
</trkpt>
<trkpt lat="33.810313" lon="-118.393867">
  <ele>-0.132</ele>
  <time>2026-09-01T01:18:04Z</time>
  <course>187.44</course>
  <speed>0.03605551275463989</speed>
  <fix>3d</fix>
</trkpt>
<trkpt lat="33.810313" lon="-118.393867">
  <ele>-0.12</ele>
  <time>2026-09-01T01:18:04Z</time>
  <course>0.0</course>
  <speed>0.0</speed>
  <fix>3d</fix>
</trkpt>
<trkpt lat="33.810313" lon="-118.393867">
  <ele>-0.132</ele>
  <time>2026-09-01T01:18:04Z</time>
  <course>187.43</course>
  <speed>0.03605551275463989</speed>
  <fix>3d</fix>
</trkpt>
<trkpt lat="33.810313" lon="-118.393867">
  <ele>-0.12</ele>
  <time>2026-09-01T01:18:04Z</time>
  <course>0.0</course>
  <speed>0.0</speed>
  <fix>3d</fix>
</trkpt>
<trkpt lat="33.810313" lon="-118.393867">
  <ele>-0.132</ele>
  <time>2026-09-01T01:18:04Z</time>
  <course>187.42</course>
  <speed>0.03605551275463989</speed>
  <fix>3d</fix>
</trkpt>
<trkpt lat="33.810313" lon="-118.393867">
  <ele>-0.12</ele>
  <time>2026-09-01T01:18:04Z</time>
  <course>0.0</course>
  <speed>0.0</speed>
  <fix>3d</fix>
</trkpt>
<trkpt lat="33.810313" lon="-118.393867">
  <ele>-0.131</ele>
  <time>2026-09-01T01:18:04Z</time>
  <course>187.42</course>
  <speed>0.03605551275463989</speed>
  <fix>3d</fix>
</trkpt>
<trkpt lat="33.810313" lon="-118.393867">
  <ele>-0.12</ele>
  <time>2026-09-01T01:18:04Z</time>
  <course>0.0</course>
  <speed>0.0</speed>
  <fix>3d</fix>
</trkpt>
<trkpt lat="33.810313" lon="-118.393867">
  <ele>-0.131</ele>
  <time>2026-09-01T01:18:04Z</time>
  <course>187.41</course>
  <speed>0.03605551275463989</speed>
  <fix>3d</fix>
</trkpt>
<trkpt lat="33.810313" lon="-118.393867">
  <ele>-0.12</ele>
  <time>2026-09-01T01:18:04Z</time>
  <course>0.0</course>
  <speed>0.0</speed>
  <fix>3d</fix>
</trkpt>
<trkpt lat="33.810313" lon="-118.393867">
  <ele>-0.132</ele>
  <time>2026-09-01T01:18:04Z</time>
  <course>187.41</course>
  <speed>0.03605551275463989</speed>
  <fix>3d</fix>
</trkpt>
<trkpt lat="33.810313" lon="-118.393867">
  <ele>-0.12</ele>
  <time>2026-09-01T01:18:04Z</time>
  <course>0.0</course>
  <speed>0.0</speed>
  <fix>3d</fix>
</trkpt>
<trkpt lat="33.810313" lon="-118.393867">
  <ele>-0.134</ele>
  <time>2026-09-01T01:18:04Z</time>
  <course>187.4</course>
  <speed>0.03605551275463989</speed>
  <fix>3d</fix>
</trkpt>
<trkpt lat="33.810313" lon="-118.393867">
  <ele>-0.12</ele>
  <time>2026-09-01T01:18:04Z</time>
  <course>0.0</course>
  <speed>0.0</speed>
  <fix>3d</fix>
</trkpt>
<trkpt lat="33.810313" lon="-118.393867">
  <ele>-0.137</ele>
  <time>2026-09-01T01:18:04Z</time>
  <course>187.39</course>
  <speed>0.03605551275463989</speed>
  <fix>3d</fix>
</trkpt>
<trkpt lat="33.810313" lon="-118.393867">
  <ele>-0.12</ele>
  <time>2026-09-01T01:18:04Z</time>
  <course>0.0</course>
  <speed>0.0</speed>
  <fix>3d</fix>
</trkpt>
<trkpt lat="33.810313" lon="-118.393867">
  <ele>-0.139</ele>
  <time>2026-09-01T01:18:04Z</time>
  <course>187.39</course>
  <speed>0.03605551275463989</speed>
  <fix>3d</fix>
</trkpt>
<trkpt lat="33.810313" lon="-118.393867">
  <ele>-0.12</ele>
  <time>2026-09-01T01:18:04Z</time>
  <course>0.0</course>
  <speed>0.0</speed>
  <fix>3d</fix>
</trkpt>
<trkpt lat="33.810313" lon="-118.393867">
  <ele>-0.141</ele>
  <time>2026-09-01T01:18:04Z</time>
  <course>187.38</course>
  <speed>0.03605551275463989</speed>
  <fix>3d</fix>
</trkpt>
<trkpt lat="33.810313" lon="-118.393867">
  <ele>-0.12</ele>
  <time>2026-09-01T01:18:04Z</time>
  <course>0.0</course>
  <speed>0.0</speed>
  <fix>3d</fix>
</trkpt>
<trkpt lat="33.810313" lon="-118.393867">
  <ele>-0.141</ele>
  <time>2026-09-01T01:18:04Z</time>
  <course>187.38</course>
  <speed>0.03605551275463989</speed>
  <fix>3d</fix>
</trkpt>
<trkpt lat="33.810313" lon="-118.393867">
  <ele>-0.12</ele>
  <time>2026-09-01T01:18:04Z</time>
  <course>0.0</course>
  <speed>0.0</speed>
  <fix>3d</fix>
</trkpt>
<trkpt lat="33.810313" lon="-118.393867">
  <ele>-0.139</ele>
  <time>2026-09-01T01:18:04Z</time>
  <course>187.37</course>
  <speed>0.03605551275463989</speed>
  <fix>3d</fix>
</trkpt>
<trkpt lat="33.810313" lon="-118.393867">
  <ele>-0.12</ele>
  <time>2026-09-01T01:18:04Z</time>
  <course>0.0</course>
  <speed>0.0</speed>
  <fix>3d</fix>
</trkpt>
<trkpt lat="33.810313" lon="-118.393867">
  <ele>-0.136</ele>
  <time>2026-09-01T01:18:04Z</time>
  <course>187.36</course>
  <speed>0.03605551275463989</speed>
  <fix>3d</fix>
</trkpt>
<trkpt lat="33.810313" lon="-118.393867">
  <ele>-0.12</ele>
  <time>2026-09-01T01:18:04Z</time>
  <course>0.0</course>
  <speed>0.0</speed>
  <fix>3d</fix>
</trkpt>
<trkpt lat="33.810313" lon="-118.393867">
  <ele>-0.132</ele>
  <time>2026-09-01T01:18:04Z</time>
  <course>187.36</course>
  <speed>0.03605551275463989</speed>
  <fix>3d</fix>
</trkpt>
<trkpt lat="33.810313" lon="-118.393867">
  <ele>-0.12</ele>
  <time>2026-09-01T01:18:04Z</time>
  <course>0.0</course>
  <speed>0.0</speed>
  <fix>3d</fix>
</trkpt>
<trkpt lat="33.810313" lon="-118.393867">
  <ele>-0.129</ele>
  <time>2026-09-01T01:18:04Z</time>
  <course>187.35</course>
  <speed>0.03605551275463989</speed>
  <fix>3d</fix>
</trkpt>
<trkpt lat="33.810313" lon="-118.393867">
  <ele>-0.12</ele>
  <time>2026-09-01T01:18:04Z</time>
  <course>0.0</course>
  <speed>0.0</speed>
  <fix>3d</fix>
</trkpt>
<trkpt lat="33.810313" lon="-118.393867">
  <ele>-0.127</ele>
  <time>2026-09-01T01:18:04Z</time>
  <course>187.35</course>
  <speed>0.03605551275463989</speed>
  <fix>3d</fix>
</trkpt>
<trkpt lat="33.810313" lon="-118.393867">
  <ele>-0.12</ele>
  <time>2026-09-01T01:18:04Z</time>
  <course>0.0</course>
  <speed>0.0</speed>
  <fix>3d</fix>
</trkpt>
<trkpt lat="33.810313" lon="-118.393867">
  <ele>-0.126</ele>
  <time>2026-09-01T01:18:04Z</time>
  <course>187.34</course>
  <speed>0.03605551275463989</speed>
  <fix>3d</fix>
</trkpt>
<trkpt lat="33.810313" lon="-118.393867">
  <ele>-0.12</ele>
  <time>2026-09-01T01:18:04Z</time>
  <course>0.0</course>
  <speed>0.0</speed>
  <fix>3d</fix>
</trkpt>
<trkpt lat="33.810313" lon="-118.393867">
  <ele>-0.126</ele>
  <time>2026-09-01T01:18:04Z</time>
  <course>187.33</course>
  <speed>0.03605551275463989</speed>
  <fix>3d</fix>
</trkpt>
<trkpt lat="33.810313" lon="-118.393867">
  <ele>-0.12</ele>
  <time>2026-09-01T01:18:04Z</time>
  <course>0.0</course>
  <speed>0.0</speed>
  <fix>3d</fix>
</trkpt>
<trkpt lat="33.810313" lon="-118.393867">
  <ele>-0.127</ele>
  <time>2026-09-01T01:18:04Z</time>
  <course>187.33</course>
  <speed>0.03605551275463989</speed>
  <fix>3d</fix>
</trkpt>
<trkpt lat="33.810313" lon="-118.393867">
  <ele>-0.12</ele>
  <time>2026-09-01T01:18:04Z</time>
  <course>0.0</course>
  <speed>0.0</speed>
  <fix>3d</fix>
</trkpt>
<trkpt lat="33.810313" lon="-118.393867">
  <ele>-0.126</ele>
  <time>2026-09-01T01:18:04Z</time>
  <course>187.32</course>
  <speed>0.03605551275463989</speed>
  <fix>3d</fix>
</trkpt>
<trkpt lat="33.810313" lon="-118.393867">
  <ele>-0.12</ele>
  <time>2026-09-01T01:18:04Z</time>
  <course>0.0</course>
  <speed>0.0</speed>
  <fix>3d</fix>
</trkpt>
<trkpt lat="33.810313" lon="-118.393867">
  <ele>-0.126</ele>
  <time>2026-09-01T01:18:04Z</time>
  <course>187.32</course>
  <speed>0.03605551275463989</speed>
  <fix>3d</fix>
</trkpt>
<trkpt lat="33.810313" lon="-118.393867">
  <ele>-0.12</ele>
  <time>2026-09-01T01:18:04Z</time>
  <course>0.0</course>
  <speed>0.0</speed>
  <fix>3d</fix>
</trkpt>
<trkpt lat="33.810313" lon="-118.393867">
  <ele>-0.125</ele>
  <time>2026-09-01T01:18:04Z</time>
  <course>187.31</course>
  <speed>0.03605551275463989</speed>
  <fix>3d</fix>
</trkpt>
<trkpt lat="33.810313" lon="-118.393867">
  <ele>-0.12</ele>
  <time>2026-09-01T01:18:04Z</time>
  <course>0.0</course>
  <speed>0.0</speed>
  <fix>3d</fix>
</trkpt>
<trkpt lat="33.810313" lon="-118.393867">
  <ele>-0.124</ele>
  <time>2026-09-01T01:18:04Z</time>
  <course>187.31</course>
  <speed>0.03605551275463989</speed>
  <fix>3d</fix>
</trkpt>
<trkpt lat="33.810313" lon="-118.393867">
  <ele>-0.12</ele>
  <time>2026-09-01T01:18:04Z</time>
  <course>0.0</course>
  <speed>0.0</speed>
  <fix>3d</fix>
</trkpt>
<trkpt lat="33.810313" lon="-118.393867">
  <ele>-0.122</ele>
  <time>2026-09-01T01:18:04Z</time>
  <course>187.3</course>
  <speed>0.03605551275463989</speed>
  <fix>3d</fix>
</trkpt>
<trkpt lat="33.810313" lon="-118.393867">
  <ele>-0.12</ele>
  <time>2026-09-01T01:18:04Z</time>
  <course>0.0</course>
  <speed>0.0</speed>
  <fix>3d</fix>
</trkpt>
<trkpt lat="33.810313" lon="-118.393867">
  <ele>-0.121</ele>
  <time>2026-09-01T01:18:04Z</time>
  <course>187.29</course>
  <speed>0.03605551275463989</speed>
  <fix>3d</fix>
</trkpt>
<trkpt lat="33.810313" lon="-118.393867">
  <ele>-0.12</ele>
  <time>2026-09-01T01:18:04Z</time>
  <course>0.0</course>
  <speed>0.0</speed>
  <fix>3d</fix>
</trkpt>
<trkpt lat="33.810313" lon="-118.393867">
  <ele>-0.122</ele>
  <time>2026-09-01T01:18:04Z</time>
  <course>187.29</course>
  <speed>0.03605551275463989</speed>
  <fix>3d</fix>
</trkpt>
<trkpt lat="33.810313" lon="-118.393867">
  <ele>-0.12</ele>
  <time>2026-09-01T01:18:04Z</time>
  <course>0.0</course>
  <speed>0.0</speed>
  <fix>3d</fix>
</trkpt>
<trkpt lat="33.810313" lon="-118.393867">
  <ele>-0.124</ele>
  <time>2026-09-01T01:18:04Z</time>
  <course>187.28</course>
  <speed>0.03605551275463989</speed>
  <fix>3d</fix>
</trkpt>
<trkpt lat="33.810313" lon="-118.393867">
  <ele>-0.12</ele>
  <time>2026-09-01T01:18:04Z</time>
  <course>0.0</course>
  <speed>0.0</speed>
  <fix>3d</fix>
</trkpt>
<trkpt lat="33.810313" lon="-118.393867">
  <ele>-0.128</ele>
  <time>2026-09-01T01:18:04Z</time>
  <course>187.28</course>
  <speed>0.03605551275463989</speed>
  <fix>3d</fix>
</trkpt>
<trkpt lat="33.810313" lon="-118.393867">
  <ele>-0.12</ele>
  <time>2026-09-01T01:18:04Z</time>
  <course>0.0</course>
  <speed>0.0</speed>
  <fix>3d</fix>
</trkpt>
<trkpt lat="33.810313" lon="-118.393867">
  <ele>-0.13</ele>
  <time>2026-09-01T01:18:04Z</time>
  <course>187.27</course>
  <speed>0.03605551275463989</speed>
  <fix>3d</fix>
</trkpt>
<trkpt lat="33.810313" lon="-118.393867">
  <ele>-0.12</ele>
  <time>2026-09-01T01:18:04Z</time>
  <course>0.0</course>
  <speed>0.0</speed>
  <fix>3d</fix>
</trkpt>
<trkpt lat="33.810313" lon="-118.393867">
  <ele>-0.133</ele>
  <time>2026-09-01T01:18:04Z</time>
  <course>187.27</course>
  <speed>0.03605551275463989</speed>
  <fix>3d</fix>
</trkpt>
<trkpt lat="33.810313" lon="-118.393867">
  <ele>-0.12</ele>
  <time>2026-09-01T01:18:04Z</time>
  <course>0.0</course>
  <speed>0.0</speed>
  <fix>3d</fix>
</trkpt>
<trkpt lat="33.810313" lon="-118.393867">
  <ele>-0.135</ele>
  <time>2026-09-01T01:18:04Z</time>
  <course>187.26</course>
  <speed>0.03605551275463989</speed>
  <fix>3d</fix>
</trkpt>
<trkpt lat="33.810313" lon="-118.393867">
  <ele>-0.12</ele>
  <time>2026-09-01T01:18:04Z</time>
  <course>0.0</course>
  <speed>0.0</speed>
  <fix>3d</fix>
</trkpt>
<trkpt lat="33.810313" lon="-118.393867">
  <ele>-0.136</ele>
  <time>2026-09-01T01:18:04Z</time>
  <course>187.26</course>
  <speed>0.03605551275463989</speed>
  <fix>3d</fix>
</trkpt>
<trkpt lat="33.810313" lon="-118.393867">
  <ele>-0.12</ele>
  <time>2026-09-01T01:18:04Z</time>
  <course>0.0</course>
  <speed>0.0</speed>
  <fix>3d</fix>
</trkpt>
<trkpt lat="33.810313" lon="-118.393867">
  <ele>-0.136</ele>
  <time>2026-09-01T01:18:04Z</time>
  <course>187.25</course>
  <speed>0.03605551275463989</speed>
  <fix>3d</fix>
</trkpt>
<trkpt lat="33.810313" lon="-118.393867">
  <ele>-0.12</ele>
  <time>2026-09-01T01:18:04Z</time>
  <course>0.0</course>
  <speed>0.0</speed>
  <fix>3d</fix>
</trkpt>
<trkpt lat="33.810313" lon="-118.393867">
  <ele>-0.135</ele>
  <time>2026-09-01T01:18:04Z</time>
  <course>187.25</course>
  <speed>0.03605551275463989</speed>
  <fix>3d</fix>
</trkpt>
<trkpt lat="33.810313" lon="-118.393867">
  <ele>-0.12</ele>
  <time>2026-09-01T01:18:04Z</time>
  <course>0.0</course>
  <speed>0.0</speed>
  <fix>3d</fix>
</trkpt>
<trkpt lat="33.810313" lon="-118.393867">
  <ele>-0.134</ele>
  <time>2026-09-01T01:18:04Z</time>
  <course>187.24</course>
  <speed>0.03605551275463989</speed>
  <fix>3d</fix>
</trkpt>
<trkpt lat="33.810313" lon="-118.393867">
  <ele>-0.12</ele>
  <time>2026-09-01T01:18:04Z</time>
  <course>0.0</course>
  <speed>0.0</speed>
  <fix>3d</fix>
</trkpt>
<trkpt lat="33.810313" lon="-118.393867">
  <ele>-0.132</ele>
  <time>2026-09-01T01:18:04Z</time>
  <course>187.24</course>
  <speed>0.03605551275463989</speed>
  <fix>3d</fix>
</trkpt>
<trkpt lat="33.810313" lon="-118.393867">
  <ele>-0.12</ele>
  <time>2026-09-01T01:18:04Z</time>
  <course>0.0</course>
  <speed>0.0</speed>
  <fix>3d</fix>
</trkpt>
<trkpt lat="33.810313" lon="-118.393867">
  <ele>-0.131</ele>
  <time>2026-09-01T01:18:04Z</time>
  <course>187.23</course>
  <speed>0.03605551275463989</speed>
  <fix>3d</fix>
</trkpt>
<trkpt lat="33.810313" lon="-118.393867">
  <ele>-0.12</ele>
  <time>2026-09-01T01:18:04Z</time>
  <course>0.0</course>
  <speed>0.0</speed>
  <fix>3d</fix>
</trkpt>
<trkpt lat="33.810313" lon="-118.393867">
  <ele>-0.131</ele>
  <time>2026-09-01T01:18:04Z</time>
  <course>187.22</course>
  <speed>0.03605551275463989</speed>
  <fix>3d</fix>
</trkpt>
<trkpt lat="33.810313" lon="-118.393867">
  <ele>-0.12</ele>
  <time>2026-09-01T01:18:04Z</time>
  <course>0.0</course>
  <speed>0.0</speed>
  <fix>3d</fix>
</trkpt>
<trkpt lat="33.810313" lon="-118.393867">
  <ele>-0.132</ele>
  <time>2026-09-01T01:18:04Z</time>
  <course>187.22</course>
  <speed>0.03605551275463989</speed>
  <fix>3d</fix>
</trkpt>
<trkpt lat="33.810313" lon="-118.393867">
  <ele>-0.12</ele>
  <time>2026-09-01T01:18:04Z</time>
  <course>0.0</course>
  <speed>0.0</speed>
  <fix>3d</fix>
</trkpt>
<trkpt lat="33.810313" lon="-118.393867">
  <ele>-0.132</ele>
  <time>2026-09-01T01:18:04Z</time>
  <course>187.21</course>
  <speed>0.03605551275463989</speed>
  <fix>3d</fix>
</trkpt>
<trkpt lat="33.810313" lon="-118.393867">
  <ele>-0.12</ele>
  <time>2026-09-01T01:18:04Z</time>
  <course>0.0</course>
  <speed>0.0</speed>
  <fix>3d</fix>
</trkpt>
<trkpt lat="33.810313" lon="-118.393867">
  <ele>-0.133</ele>
  <time>2026-09-01T01:18:04Z</time>
  <course>187.21</course>
  <speed>0.03605551275463989</speed>
  <fix>3d</fix>
</trkpt>
<trkpt lat="33.810313" lon="-118.393867">
  <ele>-0.12</ele>
  <time>2026-09-01T01:18:04Z</time>
  <course>0.0</course>
  <speed>0.0</speed>
  <fix>3d</fix>
</trkpt>
<trkpt lat="33.810313" lon="-118.393867">
  <ele>-0.132</ele>
  <time>2026-09-01T01:18:04Z</time>
  <course>187.2</course>
  <speed>0.03605551275463989</speed>
  <fix>3d</fix>
</trkpt>
<trkpt lat="33.810313" lon="-118.393867">
  <ele>-0.12</ele>
  <time>2026-09-01T01:18:04Z</time>
  <course>0.0</course>
  <speed>0.0</speed>
  <fix>3d</fix>
</trkpt>
<trkpt lat="33.810313" lon="-118.393867">
  <ele>-0.131</ele>
  <time>2026-09-01T01:18:04Z</time>
  <course>187.2</course>
  <speed>0.03605551275463989</speed>
  <fix>3d</fix>
</trkpt>
<trkpt lat="33.810313" lon="-118.393867">
  <ele>-0.12</ele>
  <time>2026-09-01T01:18:04Z</time>
  <course>0.0</course>
  <speed>0.0</speed>
  <fix>3d</fix>
</trkpt>
<trkpt lat="33.810313" lon="-118.393867">
  <ele>-0.129</ele>
  <time>2026-09-01T01:18:04Z</time>
  <course>187.19</course>
  <speed>0.03605551275463989</speed>
  <fix>3d</fix>
</trkpt>
<trkpt lat="33.810313" lon="-118.393867">
  <ele>-0.12</ele>
  <time>2026-09-01T01:18:04Z</time>
  <course>0.0</course>
  <speed>0.0</speed>
  <fix>3d</fix>
</trkpt>
<trkpt lat="33.810313" lon="-118.393867">
  <ele>-0.126</ele>
  <time>2026-09-01T01:18:04Z</time>
  <course>187.19</course>
  <speed>0.03605551275463989</speed>
  <fix>3d</fix>
</trkpt>
<trkpt lat="33.810313" lon="-118.393867">
  <ele>-0.12</ele>
  <time>2026-09-01T01:18:04Z</time>
  <course>0.0</course>
  <speed>0.0</speed>
  <fix>3d</fix>
</trkpt>
<trkpt lat="33.810313" lon="-118.393867">
  <ele>-0.124</ele>
  <time>2026-09-01T01:18:04Z</time>
  <course>187.18</course>
  <speed>0.03605551275463989</speed>
  <fix>3d</fix>
</trkpt>
<trkpt lat="33.810313" lon="-118.393867">
  <ele>-0.12</ele>
  <time>2026-09-01T01:18:04Z</time>
  <course>0.0</course>
  <speed>0.0</speed>
  <fix>3d</fix>
</trkpt>
<trkpt lat="33.810313" lon="-118.393867">
  <ele>-0.123</ele>
  <time>2026-09-01T01:18:04Z</time>
  <course>187.18</course>
  <speed>0.03605551275463989</speed>
  <fix>3d</fix>
</trkpt>
<trkpt lat="33.810313" lon="-118.393867">
  <ele>-0.12</ele>
  <time>2026-09-01T01:18:04Z</time>
  <course>0.0</course>
  <speed>0.0</speed>
  <fix>3d</fix>
</trkpt>
<trkpt lat="33.810313" lon="-118.393867">
  <ele>-0.123</ele>
  <time>2026-09-01T01:18:04Z</time>
  <course>187.17</course>
  <speed>0.03605551275463989</speed>
  <fix>3d</fix>
</trkpt>
<trkpt lat="33.810313" lon="-118.393867">
  <ele>-0.12</ele>
  <time>2026-09-01T01:18:04Z</time>
  <course>0.0</course>
  <speed>0.0</speed>
  <fix>3d</fix>
</trkpt>
<trkpt lat="33.810313" lon="-118.393867">
  <ele>-0.122</ele>
  <time>2026-09-01T01:18:04Z</time>
  <course>187.17</course>
  <speed>0.0</speed>
  <fix>3d</fix>
</trkpt>
<trkpt lat="33.810313" lon="-118.393867">
  <ele>-0.12</ele>
  <time>2026-09-01T01:18:04Z</time>
  <course>0.0</course>
  <speed>0.0</speed>
  <fix>3d</fix>
</trkpt>
<trkpt lat="33.810313" lon="-118.393867">
  <ele>-0.121</ele>
  <time>2026-09-01T01:18:04Z</time>
  <course>187.16</course>
  <speed>0.0</speed>
  <fix>3d</fix>
</trkpt>
<trkpt lat="33.810313" lon="-118.393867">
  <ele>-0.12</ele>
  <time>2026-09-01T01:18:04Z</time>
  <course>0.0</course>
  <speed>0.0</speed>
  <fix>3d</fix>
</trkpt>
<trkpt lat="33.810313" lon="-118.393867">
  <ele>-0.12</ele>
  <time>2026-09-01T01:18:04Z</time>
  <course>187.16</course>
  <speed>0.0</speed>
  <fix>3d</fix>
</trkpt>
<trkpt lat="33.810313" lon="-118.393867">
  <ele>-0.12</ele>
  <time>2026-09-01T01:18:04Z</time>
  <course>0.0</course>
  <speed>0.0</speed>
  <fix>3d</fix>
</trkpt>
<trkpt lat="33.810313" lon="-118.393867">
  <ele>-0.119</ele>
  <time>2026-09-01T01:18:04Z</time>
  <course>187.15</course>
  <speed>0.0</speed>
  <fix>3d</fix>
</trkpt>
<trkpt lat="33.810313" lon="-118.393867">
  <ele>-0.12</ele>
  <time>2026-09-01T01:18:04Z</time>
  <course>0.0</course>
  <speed>0.0</speed>
  <fix>3d</fix>
</trkpt>
<trkpt lat="33.810313" lon="-118.393867">
  <ele>-0.116</ele>
  <time>2026-09-01T01:18:04Z</time>
  <course>187.15</course>
  <speed>0.0</speed>
  <fix>3d</fix>
</trkpt>
<trkpt lat="33.810313" lon="-118.393867">
  <ele>-0.12</ele>
  <time>2026-09-01T01:18:04Z</time>
  <course>0.0</course>
  <speed>0.0</speed>
  <fix>3d</fix>
</trkpt>
<trkpt lat="33.810313" lon="-118.393867">
  <ele>-0.114</ele>
  <time>2026-09-01T01:18:04Z</time>
  <course>187.14</course>
  <speed>0.0</speed>
  <fix>3d</fix>
</trkpt>
<trkpt lat="33.810313" lon="-118.393867">
  <ele>-0.12</ele>
  <time>2026-09-01T01:18:04Z</time>
  <course>0.0</course>
  <speed>0.0</speed>
  <fix>3d</fix>
</trkpt>
<trkpt lat="33.810313" lon="-118.393867">
  <ele>-0.113</ele>
  <time>2026-09-01T01:18:04Z</time>
  <course>187.14</course>
  <speed>0.0</speed>
  <fix>3d</fix>
</trkpt>
<trkpt lat="33.810313" lon="-118.393867">
  <ele>-0.12</ele>
  <time>2026-09-01T01:18:04Z</time>
  <course>0.0</course>
  <speed>0.0</speed>
  <fix>3d</fix>
</trkpt>
<trkpt lat="33.810313" lon="-118.393867">
  <ele>-0.112</ele>
  <time>2026-09-01T01:18:04Z</time>
  <course>187.13</course>
  <speed>0.0</speed>
  <fix>3d</fix>
</trkpt>
<trkpt lat="33.810313" lon="-118.393867">
  <ele>-0.12</ele>
  <time>2026-09-01T01:18:04Z</time>
  <course>0.0</course>
  <speed>0.0</speed>
  <fix>3d</fix>
</trkpt>
<trkpt lat="33.810313" lon="-118.393867">
  <ele>-0.113</ele>
  <time>2026-09-01T01:18:04Z</time>
  <course>187.13</course>
  <speed>0.0</speed>
  <fix>3d</fix>
</trkpt>
<trkpt lat="33.810313" lon="-118.393867">
  <ele>-0.12</ele>
  <time>2026-09-01T01:18:04Z</time>
  <course>0.0</course>
  <speed>0.0</speed>
  <fix>3d</fix>
</trkpt>
<trkpt lat="33.810313" lon="-118.393867">
  <ele>-0.114</ele>
  <time>2026-09-01T01:18:04Z</time>
  <course>187.12</course>
  <speed>0.0</speed>
  <fix>3d</fix>
</trkpt>
<trkpt lat="33.810313" lon="-118.393867">
  <ele>-0.12</ele>
  <time>2026-09-01T01:18:04Z</time>
  <course>0.0</course>
  <speed>0.0</speed>
  <fix>3d</fix>
</trkpt>
<trkpt lat="33.810313" lon="-118.393867">
  <ele>-0.117</ele>
  <time>2026-09-01T01:18:04Z</time>
  <course>187.12</course>
  <speed>0.0</speed>
  <fix>3d</fix>
</trkpt>
<trkpt lat="33.810313" lon="-118.393867">
  <ele>-0.12</ele>
  <time>2026-09-01T01:18:04Z</time>
  <course>0.0</course>
  <speed>0.0</speed>
  <fix>3d</fix>
</trkpt>
<trkpt lat="33.810313" lon="-118.393867">
  <ele>-0.119</ele>
  <time>2026-09-01T01:18:04Z</time>
  <course>187.11</course>
  <speed>0.01</speed>
  <fix>3d</fix>
</trkpt>
<trkpt lat="33.810313" lon="-118.393867">
  <ele>-0.12</ele>
  <time>2026-09-01T01:18:04Z</time>
  <course>0.0</course>
  <speed>0.0</speed>
  <fix>3d</fix>
</trkpt>
<trkpt lat="33.810313" lon="-118.393867">
  <ele>-0.12</ele>
  <time>2026-09-01T01:18:04Z</time>
  <course>187.11</course>
  <speed>0.01</speed>
  <fix>3d</fix>
</trkpt>
<trkpt lat="33.810313" lon="-118.393867">
  <ele>-0.12</ele>
  <time>2026-09-01T01:18:04Z</time>
  <course>0.0</course>
  <speed>0.0</speed>
  <fix>3d</fix>
</trkpt>
<trkpt lat="33.810313" lon="-118.393867">
  <ele>-0.121</ele>
  <time>2026-09-01T01:18:04Z</time>
  <course>187.1</course>
  <speed>0.01</speed>
  <fix>3d</fix>
</trkpt>
<trkpt lat="33.810313" lon="-118.393867">
  <ele>-0.12</ele>
  <time>2026-09-01T01:18:04Z</time>
  <course>0.0</course>
  <speed>0.0</speed>
  <fix>3d</fix>
</trkpt>
<trkpt lat="33.810313" lon="-118.393867">
  <ele>-0.122</ele>
  <time>2026-09-01T01:18:04Z</time>
  <course>187.1</course>
  <speed>0.01414213562373095</speed>
  <fix>3d</fix>
</trkpt>
<trkpt lat="33.810313" lon="-118.393867">
  <ele>-0.12</ele>
  <time>2026-09-01T01:18:04Z</time>
  <course>0.0</course>
  <speed>0.0</speed>
  <fix>3d</fix>
</trkpt>
<trkpt lat="33.810313" lon="-118.393867">
  <ele>-0.122</ele>
  <time>2026-09-01T01:18:04Z</time>
  <course>187.09</course>
  <speed>0.01414213562373095</speed>
  <fix>3d</fix>
</trkpt>
<trkpt lat="33.810313" lon="-118.393867">
  <ele>-0.12</ele>
  <time>2026-09-01T01:18:04Z</time>
  <course>0.0</course>
  <speed>0.0</speed>
  <fix>3d</fix>
</trkpt>
<trkpt lat="33.810313" lon="-118.393867">
  <ele>-0.123</ele>
  <time>2026-09-01T01:18:04Z</time>
  <course>187.09</course>
  <speed>0.01414213562373095</speed>
  <fix>3d</fix>
</trkpt>
<trkpt lat="33.810313" lon="-118.393867">
  <ele>-0.12</ele>
  <time>2026-09-01T01:18:04Z</time>
  <course>0.0</course>
  <speed>0.0</speed>
  <fix>3d</fix>
</trkpt>
<trkpt lat="33.810313" lon="-118.393867">
  <ele>-0.124</ele>
  <time>2026-09-01T01:18:04Z</time>
  <course>187.08</course>
  <speed>0.01414213562373095</speed>
  <fix>3d</fix>
</trkpt>
<trkpt lat="33.810313" lon="-118.393867">
  <ele>-0.12</ele>
  <time>2026-09-01T01:18:04Z</time>
  <course>0.0</course>
  <speed>0.0</speed>
  <fix>3d</fix>
</trkpt>
<trkpt lat="33.810313" lon="-118.393867">
  <ele>-0.126</ele>
  <time>2026-09-01T01:18:04Z</time>
  <course>187.08</course>
  <speed>0.01414213562373095</speed>
  <fix>3d</fix>
</trkpt>
<trkpt lat="33.810313" lon="-118.393867">
  <ele>-0.12</ele>
  <time>2026-09-01T01:18:04Z</time>
  <course>0.0</course>
  <speed>0.0</speed>
  <fix>3d</fix>
</trkpt>
<trkpt lat="33.810313" lon="-118.393867">
  <ele>-0.128</ele>
  <time>2026-09-01T01:18:04Z</time>
  <course>187.07</course>
  <speed>0.01414213562373095</speed>
  <fix>3d</fix>
</trkpt>
<trkpt lat="33.810313" lon="-118.393867">
  <ele>-0.12</ele>
  <time>2026-09-01T01:18:04Z</time>
  <course>0.0</course>
  <speed>0.0</speed>
  <fix>3d</fix>
</trkpt>
<trkpt lat="33.810313" lon="-118.393867">
  <ele>-0.131</ele>
  <time>2026-09-01T01:18:04Z</time>
  <course>187.07</course>
  <speed>0.01414213562373095</speed>
  <fix>3d</fix>
</trkpt>
<trkpt lat="33.810313" lon="-118.393867">
  <ele>-0.12</ele>
  <time>2026-09-01T01:18:04Z</time>
  <course>0.0</course>
  <speed>0.0</speed>
  <fix>3d</fix>
</trkpt>
<trkpt lat="33.810313" lon="-118.393867">
  <ele>-0.134</ele>
  <time>2026-09-01T01:18:04Z</time>
  <course>187.06</course>
  <speed>0.022360679774997897</speed>
  <fix>3d</fix>
</trkpt>
<trkpt lat="33.810313" lon="-118.393867">
  <ele>-0.12</ele>
  <time>2026-09-01T01:18:04Z</time>
  <course>0.0</course>
  <speed>0.0</speed>
  <fix>3d</fix>
</trkpt>
<trkpt lat="33.810313" lon="-118.393867">
  <ele>-0.135</ele>
  <time>2026-09-01T01:18:04Z</time>
  <course>187.05</course>
  <speed>0.022360679774997897</speed>
  <fix>3d</fix>
</trkpt>
<trkpt lat="33.810313" lon="-118.393867">
  <ele>-0.12</ele>
  <time>2026-09-01T01:18:04Z</time>
  <course>0.0</course>
  <speed>0.0</speed>
  <fix>3d</fix>
</trkpt>
<trkpt lat="33.8103131" lon="-118.3938671">
  <ele>-0.129</ele>
  <time>2026-09-01T01:18:04Z</time>
  <course>187.03</course>
  <speed>0.0282842712474619</speed>
  <fix>3d</fix>
</trkpt>
<trkpt lat="33.810313" lon="-118.393867">
  <ele>-0.12</ele>
  <time>2026-09-01T01:18:04Z</time>
  <course>0.0</course>
  <speed>0.0</speed>
  <fix>3d</fix>
</trkpt>
<trkpt lat="33.8103131" lon="-118.3938671">
  <ele>-0.129</ele>
  <time>2026-09-01T01:18:04Z</time>
  <course>187.03</course>
  <speed>0.0282842712474619</speed>
  <fix>3d</fix>
</trkpt>
<trkpt lat="33.810313" lon="-118.393867">
  <ele>-0.12</ele>
  <time>2026-09-01T01:18:04Z</time>
  <course>0.0</course>
  <speed>0.0</speed>
  <fix>3d</fix>
</trkpt>
<trkpt lat="33.8103131" lon="-118.3938671">
  <ele>-0.128</ele>
  <time>2026-09-01T01:18:04Z</time>
  <course>187.02</course>
  <speed>0.0282842712474619</speed>
  <fix>3d</fix>
</trkpt>
<trkpt lat="33.810313" lon="-118.393867">
  <ele>-0.12</ele>
  <time>2026-09-01T01:18:04Z</time>
  <course>0.0</course>
  <speed>0.0</speed>
  <fix>3d</fix>
</trkpt>
<trkpt lat="33.8103131" lon="-118.3938671">
  <ele>-0.129</ele>
  <time>2026-09-01T01:18:04Z</time>
  <course>187.02</course>
  <speed>0.0282842712474619</speed>
  <fix>3d</fix>
</trkpt>
<trkpt lat="33.810313" lon="-118.393867">
  <ele>-0.12</ele>
  <time>2026-09-01T01:18:04Z</time>
  <course>0.0</course>
  <speed>0.0</speed>
  <fix>3d</fix>
</trkpt>
<trkpt lat="33.8103131" lon="-118.3938671">
  <ele>-0.13</ele>
  <time>2026-09-01T01:18:04Z</time>
  <course>187.01</course>
  <speed>0.0282842712474619</speed>
  <fix>3d</fix>
</trkpt>
<trkpt lat="33.810313" lon="-118.393867">
  <ele>-0.12</ele>
  <time>2026-09-01T01:18:04Z</time>
  <course>0.0</course>
  <speed>0.0</speed>
  <fix>3d</fix>
</trkpt>
<trkpt lat="33.8103131" lon="-118.3938671">
  <ele>-0.131</ele>
  <time>2026-09-01T01:18:04Z</time>
  <course>187.01</course>
  <speed>0.0282842712474619</speed>
  <fix>3d</fix>
</trkpt>
<trkpt lat="33.810313" lon="-118.393867">
  <ele>-0.12</ele>
  <time>2026-09-01T01:18:04Z</time>
  <course>0.0</course>
  <speed>0.0</speed>
  <fix>3d</fix>
</trkpt>
<trkpt lat="33.8103131" lon="-118.3938671">
  <ele>-0.13</ele>
  <time>2026-09-01T01:18:04Z</time>
  <course>187.0</course>
  <speed>0.0282842712474619</speed>
  <fix>3d</fix>
</trkpt>
<trkpt lat="33.810313" lon="-118.393867">
  <ele>-0.12</ele>
  <time>2026-09-01T01:18:04Z</time>
  <course>0.0</course>
  <speed>0.0</speed>
  <fix>3d</fix>
</trkpt>
<trkpt lat="33.8103131" lon="-118.3938671">
  <ele>-0.13</ele>
  <time>2026-09-01T01:18:04Z</time>
  <course>187.0</course>
  <speed>0.0282842712474619</speed>
  <fix>3d</fix>
</trkpt>
<trkpt lat="33.810313" lon="-118.393867">
  <ele>-0.12</ele>
  <time>2026-09-01T01:18:04Z</time>
  <course>0.0</course>
  <speed>0.0</speed>
  <fix>3d</fix>
</trkpt>
<trkpt lat="33.8103131" lon="-118.3938671">
  <ele>-0.129</ele>
  <time>2026-09-01T01:18:04Z</time>
  <course>186.99</course>
  <speed>0.0282842712474619</speed>
  <fix>3d</fix>
</trkpt>
<trkpt lat="33.810313" lon="-118.393867">
  <ele>-0.12</ele>
  <time>2026-09-01T01:18:04Z</time>
  <course>0.0</course>
  <speed>0.0</speed>
  <fix>3d</fix>
</trkpt>
<trkpt lat="33.8103131" lon="-118.3938671">
  <ele>-0.128</ele>
  <time>2026-09-01T01:18:04Z</time>
  <course>186.99</course>
  <speed>0.03605551275463989</speed>
  <fix>3d</fix>
</trkpt>
<trkpt lat="33.810313" lon="-118.393867">
  <ele>-0.12</ele>
  <time>2026-09-01T01:18:04Z</time>
  <course>0.0</course>
  <speed>0.0</speed>
  <fix>3d</fix>
</trkpt>
<trkpt lat="33.8103131" lon="-118.3938671">
  <ele>-0.128</ele>
  <time>2026-09-01T01:18:04Z</time>
  <course>186.99</course>
  <speed>0.03605551275463989</speed>
  <fix>3d</fix>
</trkpt>
<trkpt lat="33.810313" lon="-118.393867">
  <ele>-0.12</ele>
  <time>2026-09-01T01:18:04Z</time>
  <course>0.0</course>
  <speed>0.0</speed>
  <fix>3d</fix>
</trkpt>
<trkpt lat="33.8103131" lon="-118.3938671">
  <ele>-0.128</ele>
  <time>2026-09-01T01:18:04Z</time>
  <course>186.98</course>
  <speed>0.03605551275463989</speed>
  <fix>3d</fix>
</trkpt>
<trkpt lat="33.810313" lon="-118.393867">
  <ele>-0.12</ele>
  <time>2026-09-01T01:18:04Z</time>
  <course>0.0</course>
  <speed>0.0</speed>
  <fix>3d</fix>
</trkpt>
<trkpt lat="33.8103131" lon="-118.3938671">
  <ele>-0.129</ele>
  <time>2026-09-01T01:18:04Z</time>
  <course>186.98</course>
  <speed>0.03605551275463989</speed>
  <fix>3d</fix>
</trkpt>
<trkpt lat="33.810313" lon="-118.393867">
  <ele>-0.12</ele>
  <time>2026-09-01T01:18:04Z</time>
  <course>0.0</course>
  <speed>0.0</speed>
  <fix>3d</fix>
</trkpt>
<trkpt lat="33.8103131" lon="-118.3938671">
  <ele>-0.132</ele>
  <time>2026-09-01T01:18:04Z</time>
  <course>186.97</course>
  <speed>0.03605551275463989</speed>
  <fix>3d</fix>
</trkpt>
<trkpt lat="33.810313" lon="-118.393867">
  <ele>-0.12</ele>
  <time>2026-09-01T01:18:04Z</time>
  <course>0.0</course>
  <speed>0.0</speed>
  <fix>3d</fix>
</trkpt>
<trkpt lat="33.8103131" lon="-118.3938671">
  <ele>-0.133</ele>
  <time>2026-09-01T01:18:04Z</time>
  <course>186.97</course>
  <speed>0.03605551275463989</speed>
  <fix>3d</fix>
</trkpt>
<trkpt lat="33.810313" lon="-118.393867">
  <ele>-0.12</ele>
  <time>2026-09-01T01:18:04Z</time>
  <course>0.0</course>
  <speed>0.0</speed>
  <fix>3d</fix>
</trkpt>
<trkpt lat="33.8103132" lon="-118.3938671">
  <ele>-0.134</ele>
  <time>2026-09-01T01:18:04Z</time>
  <course>186.96</course>
  <speed>0.03605551275463989</speed>
  <fix>3d</fix>
</trkpt>
<trkpt lat="33.810313" lon="-118.393867">
  <ele>-0.12</ele>
  <time>2026-09-01T01:18:04Z</time>
  <course>0.0</course>
  <speed>0.0</speed>
  <fix>3d</fix>
</trkpt>
<trkpt lat="33.8103132" lon="-118.3938671">
  <ele>-0.132</ele>
  <time>2026-09-01T01:18:04Z</time>
  <course>186.96</course>
  <speed>0.03605551275463989</speed>
  <fix>3d</fix>
</trkpt>
<trkpt lat="33.810313" lon="-118.393867">
  <ele>-0.12</ele>
  <time>2026-09-01T01:18:04Z</time>
  <course>0.0</course>
  <speed>0.0</speed>
  <fix>3d</fix>
</trkpt>
<trkpt lat="33.8103132" lon="-118.3938671">
  <ele>-0.131</ele>
  <time>2026-09-01T01:18:04Z</time>
  <course>186.96</course>
  <speed>0.03605551275463989</speed>
  <fix>3d</fix>
</trkpt>
<trkpt lat="33.810313" lon="-118.393867">
  <ele>-0.12</ele>
  <time>2026-09-01T01:18:04Z</time>
  <course>0.0</course>
  <speed>0.0</speed>
  <fix>3d</fix>
</trkpt>
<trkpt lat="33.8103132" lon="-118.3938671">
  <ele>-0.13</ele>
  <time>2026-09-01T01:18:04Z</time>
  <course>186.95</course>
  <speed>0.03605551275463989</speed>
  <fix>3d</fix>
</trkpt>
<trkpt lat="33.810313" lon="-118.393867">
  <ele>-0.12</ele>
  <time>2026-09-01T01:18:04Z</time>
  <course>0.0</course>
  <speed>0.0</speed>
  <fix>3d</fix>
</trkpt>
<trkpt lat="33.8103132" lon="-118.3938672">
  <ele>-0.129</ele>
  <time>2026-09-01T01:18:04Z</time>
  <course>186.95</course>
  <speed>0.03605551275463989</speed>
  <fix>3d</fix>
</trkpt>
<trkpt lat="33.810313" lon="-118.393867">
  <ele>-0.12</ele>
  <time>2026-09-01T01:18:04Z</time>
  <course>0.0</course>
  <speed>0.0</speed>
  <fix>3d</fix>
</trkpt>
<trkpt lat="33.8103132" lon="-118.3938672">
  <ele>-0.128</ele>
  <time>2026-09-01T01:18:04Z</time>
  <course>186.94</course>
  <speed>0.0282842712474619</speed>
  <fix>3d</fix>
</trkpt>
<trkpt lat="33.810313" lon="-118.393867">
  <ele>-0.12</ele>
  <time>2026-09-01T01:18:04Z</time>
  <course>0.0</course>
  <speed>0.0</speed>
  <fix>3d</fix>
</trkpt>
<trkpt lat="33.8103132" lon="-118.3938672">
  <ele>-0.128</ele>
  <time>2026-09-01T01:18:04Z</time>
  <course>186.94</course>
  <speed>0.0282842712474619</speed>
  <fix>3d</fix>
</trkpt>
<trkpt lat="33.810313" lon="-118.393867">
  <ele>-0.12</ele>
  <time>2026-09-01T01:18:04Z</time>
  <course>0.0</course>
  <speed>0.0</speed>
  <fix>3d</fix>
</trkpt>
<trkpt lat="33.8103132" lon="-118.3938672">
  <ele>-0.127</ele>
  <time>2026-09-01T01:18:04Z</time>
  <course>186.93</course>
  <speed>0.0282842712474619</speed>
  <fix>3d</fix>
</trkpt>
<trkpt lat="33.810313" lon="-118.393867">
  <ele>-0.12</ele>
  <time>2026-09-01T01:18:04Z</time>
  <course>0.0</course>
  <speed>0.0</speed>
  <fix>3d</fix>
</trkpt>
<trkpt lat="33.8103132" lon="-118.3938672">
  <ele>-0.128</ele>
  <time>2026-09-01T01:18:04Z</time>
  <course>186.93</course>
  <speed>0.0282842712474619</speed>
  <fix>3d</fix>
</trkpt>
<trkpt lat="33.810313" lon="-118.393867">
  <ele>-0.12</ele>
  <time>2026-09-01T01:18:04Z</time>
  <course>0.0</course>
  <speed>0.0</speed>
  <fix>3d</fix>
</trkpt>
<trkpt lat="33.8103132" lon="-118.3938672">
  <ele>-0.128</ele>
  <time>2026-09-01T01:18:04Z</time>
  <course>186.93</course>
  <speed>0.0282842712474619</speed>
  <fix>3d</fix>
</trkpt>
<trkpt lat="33.810313" lon="-118.393867">
  <ele>-0.12</ele>
  <time>2026-09-01T01:18:04Z</time>
  <course>0.0</course>
  <speed>0.0</speed>
  <fix>3d</fix>
</trkpt>
<trkpt lat="33.8103132" lon="-118.3938672">
  <ele>-0.127</ele>
  <time>2026-09-01T01:18:04Z</time>
  <course>186.92</course>
  <speed>0.0282842712474619</speed>
  <fix>3d</fix>
</trkpt>
<trkpt lat="33.810313" lon="-118.393867">
  <ele>-0.12</ele>
  <time>2026-09-01T01:18:04Z</time>
  <course>0.0</course>
  <speed>0.0</speed>
  <fix>3d</fix>
</trkpt>
<trkpt lat="33.8103132" lon="-118.3938671">
  <ele>-0.126</ele>
  <time>2026-09-01T01:18:04Z</time>
  <course>186.92</course>
  <speed>0.0282842712474619</speed>
  <fix>3d</fix>
</trkpt>
<trkpt lat="33.810313" lon="-118.393867">
  <ele>-0.12</ele>
  <time>2026-09-01T01:18:04Z</time>
  <course>0.0</course>
  <speed>0.0</speed>
  <fix>3d</fix>
</trkpt>
<trkpt lat="33.8103132" lon="-118.3938671">
  <ele>-0.125</ele>
  <time>2026-09-01T01:18:04Z</time>
  <course>186.92</course>
  <speed>0.0282842712474619</speed>
  <fix>3d</fix>
</trkpt>
<trkpt lat="33.810313" lon="-118.393867">
  <ele>-0.12</ele>
  <time>2026-09-01T01:18:04Z</time>
  <course>0.0</course>
  <speed>0.0</speed>
  <fix>3d</fix>
</trkpt>
<trkpt lat="33.8103132" lon="-118.3938671">
  <ele>-0.124</ele>
  <time>2026-09-01T01:18:04Z</time>
  <course>186.91</course>
  <speed>0.0282842712474619</speed>
  <fix>3d</fix>
</trkpt>
<trkpt lat="33.810313" lon="-118.393867">
  <ele>-0.12</ele>
  <time>2026-09-01T01:18:04Z</time>
  <course>0.0</course>
  <speed>0.0</speed>
  <fix>3d</fix>
</trkpt>
<trkpt lat="33.8103132" lon="-118.3938671">
  <ele>-0.122</ele>
  <time>2026-09-01T01:18:04Z</time>
  <course>186.91</course>
  <speed>0.0282842712474619</speed>
  <fix>3d</fix>
</trkpt>
<trkpt lat="33.810313" lon="-118.393867">
  <ele>-0.12</ele>
  <time>2026-09-01T01:18:04Z</time>
  <course>0.0</course>
  <speed>0.0</speed>
  <fix>3d</fix>
</trkpt>
<trkpt lat="33.8103132" lon="-118.3938671">
  <ele>-0.121</ele>
  <time>2026-09-01T01:18:04Z</time>
  <course>186.91</course>
  <speed>0.0282842712474619</speed>
  <fix>3d</fix>
</trkpt>
<trkpt lat="33.810313" lon="-118.393867">
  <ele>-0.12</ele>
  <time>2026-09-01T01:18:04Z</time>
  <course>0.0</course>
  <speed>0.0</speed>
  <fix>3d</fix>
</trkpt>
<trkpt lat="33.8103132" lon="-118.3938671">
  <ele>-0.12</ele>
  <time>2026-09-01T01:18:04Z</time>
  <course>186.9</course>
  <speed>0.0282842712474619</speed>
  <fix>3d</fix>
</trkpt>
<trkpt lat="33.810313" lon="-118.393867">
  <ele>-0.12</ele>
  <time>2026-09-01T01:18:04Z</time>
  <course>0.0</course>
  <speed>0.0</speed>
  <fix>3d</fix>
</trkpt>
<trkpt lat="33.8103132" lon="-118.3938671">
  <ele>-0.119</ele>
  <time>2026-09-01T01:18:04Z</time>
  <course>186.9</course>
  <speed>0.022360679774997897</speed>
  <fix>3d</fix>
</trkpt>
<trkpt lat="33.810313" lon="-118.393867">
  <ele>-0.12</ele>
  <time>2026-09-01T01:18:04Z</time>
  <course>0.0</course>
  <speed>0.0</speed>
  <fix>3d</fix>
</trkpt>
<trkpt lat="33.8103131" lon="-118.3938671">
  <ele>-0.118</ele>
  <time>2026-09-01T01:18:04Z</time>
  <course>186.89</course>
  <speed>0.022360679774997897</speed>
  <fix>3d</fix>
</trkpt>
<trkpt lat="33.810313" lon="-118.393867">
  <ele>-0.12</ele>
  <time>2026-09-01T01:18:04Z</time>
  <course>0.0</course>
  <speed>0.0</speed>
  <fix>3d</fix>
</trkpt>
<trkpt lat="33.8103131" lon="-118.3938671">
  <ele>-0.119</ele>
  <time>2026-09-01T01:18:04Z</time>
  <course>186.89</course>
  <speed>0.022360679774997897</speed>
  <fix>3d</fix>
</trkpt>
<trkpt lat="33.810313" lon="-118.393867">
  <ele>-0.12</ele>
  <time>2026-09-01T01:18:04Z</time>
  <course>0.0</course>
  <speed>0.0</speed>
  <fix>3d</fix>
</trkpt>
<trkpt lat="33.8103131" lon="-118.3938671">
  <ele>-0.119</ele>
  <time>2026-09-01T01:18:04Z</time>
  <course>186.89</course>
  <speed>0.022360679774997897</speed>
  <fix>3d</fix>
</trkpt>
<trkpt lat="33.810313" lon="-118.393867">
  <ele>-0.12</ele>
  <time>2026-09-01T01:18:04Z</time>
  <course>0.0</course>
  <speed>0.0</speed>
  <fix>3d</fix>
</trkpt>
<trkpt lat="33.8103131" lon="-118.3938671">
  <ele>-0.119</ele>
  <time>2026-09-01T01:18:04Z</time>
  <course>187.51</course>
  <speed>0.0316227766016838</speed>
  <fix>3d</fix>
</trkpt>
<trkpt lat="33.810313" lon="-118.393867">
  <ele>-0.12</ele>
  <time>2026-09-01T01:18:04Z</time>
  <course>339.35</course>
  <speed>0.0</speed>
  <fix>3d</fix>
</trkpt>
<trkpt lat="33.8103132" lon="-118.3938671">
  <ele>-0.119</ele>
  <time>2026-09-01T01:18:04Z</time>
  <course>189.82</course>
  <speed>0.044721359549995794</speed>
  <fix>3d</fix>
</trkpt>
<trkpt lat="33.810313" lon="-118.393867">
  <ele>-0.12</ele>
  <time>2026-09-01T01:18:04Z</time>
  <course>339.35</course>
  <speed>0.0</speed>
  <fix>3d</fix>
</trkpt>
<trkpt lat="33.8103132" lon="-118.3938671">
  <ele>-0.119</ele>
  <time>2026-09-01T01:18:04Z</time>
  <course>192.93</course>
  <speed>0.07071067811865475</speed>
  <fix>3d</fix>
</trkpt>
<trkpt lat="33.810313" lon="-118.393867">
  <ele>-0.12</ele>
  <time>2026-09-01T01:18:04Z</time>
  <course>352.12</course>
  <speed>0.01</speed>
  <fix>3d</fix>
</trkpt>
<trkpt lat="33.8103132" lon="-118.3938671">
  <ele>-0.121</ele>
  <time>2026-09-01T01:18:04Z</time>
  <course>196.38</course>
  <speed>0.1118033988749895</speed>
  <fix>3d</fix>
</trkpt>
<trkpt lat="33.810313" lon="-118.393867">
  <ele>-0.12</ele>
  <time>2026-09-01T01:18:04Z</time>
  <course>352.12</course>
  <speed>0.01</speed>
  <fix>3d</fix>
</trkpt>
<trkpt lat="33.8103133" lon="-118.3938671">
  <ele>-0.124</ele>
  <time>2026-09-01T01:18:05Z</time>
  <course>200.16</course>
  <speed>0.15132745950421556</speed>
  <fix>3d</fix>
</trkpt>
<trkpt lat="33.810313" lon="-118.393867">
  <ele>-0.12</ele>
  <time>2026-09-01T01:18:05Z</time>
  <course>354.14</course>
  <speed>0.06</speed>
  <fix>3d</fix>
</trkpt>
<trkpt lat="33.8103135" lon="-118.3938671">
  <ele>-0.128</ele>
  <time>2026-09-01T01:18:05Z</time>
  <course>204.16</course>
  <speed>0.2009975124224178</speed>
  <fix>3d</fix>
</trkpt>
<trkpt lat="33.810313" lon="-118.393867">
  <ele>-0.12</ele>
  <time>2026-09-01T01:18:05Z</time>
  <course>354.14</course>
  <speed>0.06</speed>
  <fix>3d</fix>
</trkpt>
<trkpt lat="33.8103137" lon="-118.3938671">
  <ele>-0.131</ele>
  <time>2026-09-01T01:18:05Z</time>
  <course>208.46</course>
  <speed>0.260768096208106</speed>
  <fix>3d</fix>
</trkpt>
<trkpt lat="33.8103132" lon="-118.393867">
  <ele>-0.12</ele>
  <time>2026-09-01T01:18:05Z</time>
  <course>355.38</course>
  <speed>0.15</speed>
  <fix>3d</fix>
</trkpt>
<trkpt lat="33.8103139" lon="-118.3938671">
  <ele>-0.135</ele>
  <time>2026-09-01T01:18:05Z</time>
  <course>212.85</course>
  <speed>0.3306055050963308</speed>
  <fix>3d</fix>
</trkpt>
<trkpt lat="33.8103132" lon="-118.393867">
  <ele>-0.12</ele>
  <time>2026-09-01T01:18:05Z</time>
  <course>355.38</course>
  <speed>0.15</speed>
  <fix>3d</fix>
</trkpt>
<trkpt lat="33.8103142" lon="-118.3938671">
  <ele>-0.142</ele>
  <time>2026-09-01T01:18:05Z</time>
  <course>217.43</course>
  <speed>0.4001249804748511</speed>
  <fix>3d</fix>
</trkpt>
<trkpt lat="33.8103136" lon="-118.393867">
  <ele>-0.12</ele>
  <time>2026-09-01T01:18:05Z</time>
  <course>356.19</course>
  <speed>0.27</speed>
  <fix>3d</fix>
</trkpt>
<trkpt lat="33.8103146" lon="-118.3938671">
  <ele>-0.15</ele>
  <time>2026-09-01T01:18:05Z</time>
  <course>222.21</course>
  <speed>0.4801041553663121</speed>
  <fix>3d</fix>
</trkpt>
<trkpt lat="33.8103136" lon="-118.393867">
  <ele>-0.12</ele>
  <time>2026-09-01T01:18:05Z</time>
  <course>356.19</course>
  <speed>0.27</speed>
  <fix>3d</fix>
</trkpt>
<trkpt lat="33.810315" lon="-118.3938671">
  <ele>-0.159</ele>
  <time>2026-09-01T01:18:05Z</time>
  <course>227.18</course>
  <speed>0.5500909015790026</speed>
  <fix>3d</fix>
</trkpt>
<trkpt lat="33.8103141" lon="-118.393867">
  <ele>-0.13</ele>
  <time>2026-09-01T01:18:05Z</time>
  <course>357.09</course>
  <speed>0.42</speed>
  <fix>3d</fix>
</trkpt>
<trkpt lat="33.8103155" lon="-118.3938671">
  <ele>-0.169</ele>
  <time>2026-09-01T01:18:05Z</time>
  <course>232.34</course>
  <speed>0.62</speed>
  <fix>3d</fix>
</trkpt>
<trkpt lat="33.8103141" lon="-118.393867">
  <ele>-0.13</ele>
  <time>2026-09-01T01:18:05Z</time>
  <course>357.09</course>
  <speed>0.42</speed>
  <fix>3d</fix>
</trkpt>
<trkpt lat="33.810316" lon="-118.3938671">
  <ele>-0.181</ele>
  <time>2026-09-01T01:18:05Z</time>
  <course>237.77</course>
  <speed>0.67</speed>
  <fix>3d</fix>
</trkpt>
<trkpt lat="33.810315" lon="-118.3938671">
  <ele>-0.15</ele>
  <time>2026-09-01T01:18:05Z</time>
  <course>358.23</course>
  <speed>0.57</speed>
  <fix>3d</fix>
</trkpt>
<trkpt lat="33.8103165" lon="-118.3938671">
  <ele>-0.193</ele>
  <time>2026-09-01T01:18:05Z</time>
  <course>240.75</course>
  <speed>0.5208646657242167</speed>
  <fix>3d</fix>
</trkpt>
<trkpt lat="33.810315" lon="-118.3938671">
  <ele>-0.15</ele>
  <time>2026-09-01T01:18:05Z</time>
  <course>358.23</course>
  <speed>0.57</speed>
  <fix>3d</fix>
</trkpt>
<trkpt lat="33.8103169" lon="-118.3938671">
  <ele>-0.205</ele>
  <time>2026-09-01T01:18:05Z</time>
  <course>241.95</course>
  <speed>0.4119465984809196</speed>
  <fix>3d</fix>
</trkpt>
<trkpt lat="33.8103161" lon="-118.3938671">
  <ele>-0.17</ele>
  <time>2026-09-01T01:18:05Z</time>
  <course>0.98</course>
  <speed>0.57</speed>
  <fix>3d</fix>
</trkpt>
<trkpt lat="33.8103172" lon="-118.3938671">
  <ele>-0.214</ele>
  <time>2026-09-01T01:18:05Z</time>
  <course>242.73</course>
  <speed>0.3423448553724738</speed>
  <fix>3d</fix>
</trkpt>
<trkpt lat="33.8103161" lon="-118.3938671">
  <ele>-0.17</ele>
  <time>2026-09-01T01:18:05Z</time>
  <course>0.98</course>
  <speed>0.57</speed>
  <fix>3d</fix>
</trkpt>
<trkpt lat="33.8103175" lon="-118.393867">
  <ele>-0.223</ele>
  <time>2026-09-01T01:18:05Z</time>
  <course>243.29</course>
  <speed>0.29274562336608895</speed>
  <fix>3d</fix>
</trkpt>
<trkpt lat="33.8103171" lon="-118.393867">
  <ele>-0.19</ele>
  <time>2026-09-01T01:18:05Z</time>
  <course>5.73</course>
  <speed>0.43</speed>
  <fix>3d</fix>
</trkpt>
<trkpt lat="33.8103178" lon="-118.393867">
  <ele>-0.23</ele>
  <time>2026-09-01T01:18:05Z</time>
  <course>243.73</course>
  <speed>0.25317977802344327</speed>
  <fix>3d</fix>
</trkpt>
<trkpt lat="33.8103171" lon="-118.393867">
  <ele>-0.19</ele>
  <time>2026-09-01T01:18:05Z</time>
  <course>5.73</course>
  <speed>0.43</speed>
  <fix>3d</fix>
</trkpt>
<trkpt lat="33.810318" lon="-118.3938669">
  <ele>-0.235</ele>
  <time>2026-09-01T01:18:05Z</time>
  <course>244.1</course>
  <speed>0.223606797749979</speed>
  <fix>3d</fix>
</trkpt>
<trkpt lat="33.8103177" lon="-118.393867">
  <ele>-0.2</ele>
  <time>2026-09-01T01:18:05Z</time>
  <course>9.95</course>
  <speed>0.32</speed>
  <fix>3d</fix>
</trkpt>
<trkpt lat="33.8103182" lon="-118.3938669">
  <ele>-0.24</ele>
  <time>2026-09-01T01:18:05Z</time>
  <course>244.41</course>
  <speed>0.20223748416156684</speed>
  <fix>3d</fix>
</trkpt>
<trkpt lat="33.8103177" lon="-118.393867">
  <ele>-0.2</ele>
  <time>2026-09-01T01:18:05Z</time>
  <course>9.95</course>
  <speed>0.32</speed>
  <fix>3d</fix>
</trkpt>
<trkpt lat="33.8103184" lon="-118.3938668">
  <ele>-0.243</ele>
  <time>2026-09-01T01:18:05Z</time>
  <course>244.69</course>
  <speed>0.1824828759089466</speed>
  <fix>3d</fix>
</trkpt>
<trkpt lat="33.8103183" lon="-118.3938669">
  <ele>-0.21</ele>
  <time>2026-09-01T01:18:05Z</time>
  <course>12.69</course>
  <speed>0.25</speed>
  <fix>3d</fix>
</trkpt>
<trkpt lat="33.8103186" lon="-118.3938668">
  <ele>-0.247</ele>
  <time>2026-09-01T01:18:05Z</time>
  <course>244.93</course>
  <speed>0.16278820596099705</speed>
  <fix>3d</fix>
</trkpt>
<trkpt lat="33.8103183" lon="-118.3938669">
  <ele>-0.21</ele>
  <time>2026-09-01T01:18:05Z</time>
  <course>12.69</course>
  <speed>0.25</speed>
  <fix>3d</fix>
</trkpt>
<trkpt lat="33.8103187" lon="-118.3938668">
  <ele>-0.25</ele>
  <time>2026-09-01T01:18:05Z</time>
  <course>245.14</course>
  <speed>0.15132745950421556</speed>
  <fix>3d</fix>
</trkpt>
<trkpt lat="33.8103186" lon="-118.3938667">
  <ele>-0.22</ele>
  <time>2026-09-01T01:18:05Z</time>
  <course>14.65</course>
  <speed>0.21</speed>
  <fix>3d</fix>
</trkpt>
<trkpt lat="33.8103189" lon="-118.3938667">
  <ele>-0.252</ele>
  <time>2026-09-01T01:18:05Z</time>
  <course>245.34</course>
  <speed>0.1414213562373095</speed>
  <fix>3d</fix>
</trkpt>
<trkpt lat="33.8103186" lon="-118.3938667">
  <ele>-0.22</ele>
  <time>2026-09-01T01:18:05Z</time>
  <course>14.65</course>
  <speed>0.21</speed>
  <fix>3d</fix>
</trkpt>
<trkpt lat="33.810319" lon="-118.3938667">
  <ele>-0.254</ele>
  <time>2026-09-01T01:18:05Z</time>
  <course>245.52</course>
  <speed>0.13152946437965907</speed>
  <fix>3d</fix>
</trkpt>
<trkpt lat="33.810319" lon="-118.3938666">
  <ele>-0.23</ele>
  <time>2026-09-01T01:18:05Z</time>
  <course>16.12</course>
  <speed>0.18</speed>
  <fix>3d</fix>
</trkpt>
<trkpt lat="33.8103192" lon="-118.3938667">
  <ele>-0.255</ele>
  <time>2026-09-01T01:18:05Z</time>
  <course>245.68</course>
  <speed>0.12041594578792296</speed>
  <fix>3d</fix>
</trkpt>
<trkpt lat="33.810319" lon="-118.3938666">
  <ele>-0.23</ele>
  <time>2026-09-01T01:18:05Z</time>
  <course>16.12</course>
  <speed>0.18</speed>
  <fix>3d</fix>
</trkpt>
<trkpt lat="33.8103193" lon="-118.3938666">
  <ele>-0.254</ele>
  <time>2026-09-01T01:18:05Z</time>
  <course>245.83</course>
  <speed>0.11045361017187261</speed>
  <fix>3d</fix>
</trkpt>
<trkpt lat="33.8103193" lon="-118.3938665">
  <ele>-0.24</ele>
  <time>2026-09-01T01:18:05Z</time>
  <course>17.29</course>
  <speed>0.16</speed>
  <fix>3d</fix>
</trkpt>
<trkpt lat="33.8103194" lon="-118.3938666">
  <ele>-0.253</ele>
  <time>2026-09-01T01:18:05Z</time>
  <course>245.98</course>
  <speed>0.11045361017187261</speed>
  <fix>3d</fix>
</trkpt>
<trkpt lat="33.8103193" lon="-118.3938665">
  <ele>-0.24</ele>
  <time>2026-09-01T01:18:05Z</time>
  <course>17.29</course>
  <speed>0.16</speed>
  <fix>3d</fix>
</trkpt>
<trkpt lat="33.8103195" lon="-118.3938665">
  <ele>-0.251</ele>
  <time>2026-09-01T01:18:05Z</time>
  <course>246.11</course>
  <speed>0.1004987562112089</speed>
  <fix>3d</fix>
</trkpt>
<trkpt lat="33.8103196" lon="-118.3938664">
  <ele>-0.24</ele>
  <time>2026-09-01T01:18:05Z</time>
  <course>18.23</course>
  <speed>0.14</speed>
  <fix>3d</fix>
</trkpt>
<trkpt lat="33.8103196" lon="-118.3938665">
  <ele>-0.249</ele>
  <time>2026-09-01T01:18:05Z</time>
  <course>246.23</course>
  <speed>0.1004987562112089</speed>
  <fix>3d</fix>
</trkpt>
<trkpt lat="33.8103196" lon="-118.3938664">
  <ele>-0.24</ele>
  <time>2026-09-01T01:18:05Z</time>
  <course>18.23</course>
  <speed>0.14</speed>
  <fix>3d</fix>
</trkpt>
<trkpt lat="33.8103198" lon="-118.3938665">
  <ele>-0.246</ele>
  <time>2026-09-01T01:18:05Z</time>
  <course>246.35</course>
  <speed>0.09</speed>
  <fix>3d</fix>
</trkpt>
<trkpt lat="33.8103198" lon="-118.3938663">
  <ele>-0.24</ele>
  <time>2026-09-01T01:18:05Z</time>
  <course>19.02</course>
  <speed>0.13</speed>
  <fix>3d</fix>
</trkpt>
<trkpt lat="33.8103199" lon="-118.3938664">
  <ele>-0.244</ele>
  <time>2026-09-01T01:18:05Z</time>
  <course>246.46</course>
  <speed>0.09</speed>
  <fix>3d</fix>
</trkpt>
<trkpt lat="33.8103198" lon="-118.3938663">
  <ele>-0.24</ele>
  <time>2026-09-01T01:18:05Z</time>
  <course>19.02</course>
  <speed>0.13</speed>
  <fix>3d</fix>
</trkpt>
<trkpt lat="33.81032" lon="-118.3938664">
  <ele>-0.24</ele>
  <time>2026-09-01T01:18:05Z</time>
  <course>246.57</course>
  <speed>0.08</speed>
  <fix>3d</fix>
</trkpt>
<trkpt lat="33.8103201" lon="-118.3938663">
  <ele>-0.24</ele>
  <time>2026-09-01T01:18:05Z</time>
  <course>19.69</course>
  <speed>0.11</speed>
  <fix>3d</fix>
</trkpt>
<trkpt lat="33.8103201" lon="-118.3938664">
  <ele>-0.236</ele>
  <time>2026-09-01T01:18:05Z</time>
  <course>246.67</course>
  <speed>0.08</speed>
  <fix>3d</fix>
</trkpt>
<trkpt lat="33.8103201" lon="-118.3938663">
  <ele>-0.24</ele>
  <time>2026-09-01T01:18:05Z</time>
  <course>19.69</course>
  <speed>0.11</speed>
  <fix>3d</fix>
</trkpt>
<trkpt lat="33.8103202" lon="-118.3938664">
  <ele>-0.231</ele>
  <time>2026-09-01T01:18:05Z</time>
  <course>246.76</course>
  <speed>0.08</speed>
  <fix>3d</fix>
</trkpt>
<trkpt lat="33.8103202" lon="-118.3938662">
  <ele>-0.23</ele>
  <time>2026-09-01T01:18:05Z</time>
  <course>20.27</course>
  <speed>0.1</speed>
  <fix>3d</fix>
</trkpt>
<trkpt lat="33.8103202" lon="-118.3938663">
  <ele>-0.227</ele>
  <time>2026-09-01T01:18:05Z</time>
  <course>246.85</course>
  <speed>0.08</speed>
  <fix>3d</fix>
</trkpt>
<trkpt lat="33.8103202" lon="-118.3938662">
  <ele>-0.23</ele>
  <time>2026-09-01T01:18:05Z</time>
  <course>20.27</course>
  <speed>0.1</speed>
  <fix>3d</fix>
</trkpt>
<trkpt lat="33.8103203" lon="-118.3938663">
  <ele>-0.222</ele>
  <time>2026-09-01T01:18:05Z</time>
  <course>246.94</course>
  <speed>0.07</speed>
  <fix>3d</fix>
</trkpt>
<trkpt lat="33.8103203" lon="-118.3938661">
  <ele>-0.22</ele>
  <time>2026-09-01T01:18:05Z</time>
  <course>20.78</course>
  <speed>0.1</speed>
  <fix>3d</fix>
</trkpt>
<trkpt lat="33.8103204" lon="-118.3938663">
  <ele>-0.218</ele>
  <time>2026-09-01T01:18:05Z</time>
  <course>247.02</course>
  <speed>0.07</speed>
  <fix>3d</fix>
</trkpt>
<trkpt lat="33.8103203" lon="-118.3938661">
  <ele>-0.22</ele>
  <time>2026-09-01T01:18:05Z</time>
  <course>20.78</course>
  <speed>0.1</speed>
  <fix>3d</fix>
</trkpt>
<trkpt lat="33.8103207" lon="-118.3938662">
  <ele>-0.194</ele>
  <time>2026-09-01T01:18:05Z</time>
  <course>247.32</course>
  <speed>0.06</speed>
  <fix>3d</fix>
</trkpt>
<trkpt lat="33.8103207" lon="-118.393866">
  <ele>-0.2</ele>
  <time>2026-09-01T01:18:05Z</time>
  <course>21.65</course>
  <speed>0.08</speed>
  <fix>3d</fix>
</trkpt>
<trkpt lat="33.8103209" lon="-118.3938661">
  <ele>-0.168</ele>
  <time>2026-09-01T01:18:05Z</time>
  <course>247.52</course>
  <speed>0.06</speed>
  <fix>3d</fix>
</trkpt>
<trkpt lat="33.810321" lon="-118.3938658">
  <ele>-0.17</ele>
  <time>2026-09-01T01:18:05Z</time>
  <course>22.34</course>
  <speed>0.07</speed>
  <fix>3d</fix>
</trkpt>
<trkpt lat="33.810321" lon="-118.3938661">
  <ele>-0.159</ele>
  <time>2026-09-01T01:18:05Z</time>
  <course>247.59</course>
  <speed>0.06</speed>
  <fix>3d</fix>
</trkpt>
<trkpt lat="33.810321" lon="-118.3938658">
  <ele>-0.17</ele>
  <time>2026-09-01T01:18:05Z</time>
  <course>22.34</course>
  <speed>0.07</speed>
  <fix>3d</fix>
</trkpt>
<trkpt lat="33.8103211" lon="-118.393866">
  <ele>-0.138</ele>
  <time>2026-09-01T01:18:05Z</time>
  <course>247.71</course>
  <speed>0.06</speed>
  <fix>3d</fix>
</trkpt>
<trkpt lat="33.8103211" lon="-118.3938658">
  <ele>-0.16</ele>
  <time>2026-09-01T01:18:05Z</time>
  <course>22.64</course>
  <speed>0.07</speed>
  <fix>3d</fix>
</trkpt>
<trkpt lat="33.8103212" lon="-118.393866">
  <ele>-0.128</ele>
  <time>2026-09-01T01:18:05Z</time>
  <course>247.76</course>
  <speed>0.06</speed>
  <fix>3d</fix>
</trkpt>
<trkpt lat="33.8103212" lon="-118.3938657">
  <ele>-0.15</ele>
  <time>2026-09-01T01:18:05Z</time>
  <course>22.92</course>
  <speed>0.06</speed>
  <fix>3d</fix>
</trkpt>
<trkpt lat="33.8103213" lon="-118.393866">
  <ele>-0.119</ele>
  <time>2026-09-01T01:18:05Z</time>
  <course>247.82</course>
  <speed>0.06</speed>
  <fix>3d</fix>
</trkpt>
<trkpt lat="33.8103212" lon="-118.3938657">
  <ele>-0.15</ele>
  <time>2026-09-01T01:18:05Z</time>
  <course>22.92</course>
  <speed>0.06</speed>
  <fix>3d</fix>
</trkpt>
<trkpt lat="33.8103213" lon="-118.393866">
  <ele>-0.11</ele>
  <time>2026-09-01T01:18:05Z</time>
  <course>247.87</course>
  <speed>0.06</speed>
  <fix>3d</fix>
</trkpt>
<trkpt lat="33.8103213" lon="-118.3938656">
  <ele>-0.13</ele>
  <time>2026-09-01T01:18:05Z</time>
  <course>23.18</course>
  <speed>0.06</speed>
  <fix>3d</fix>
</trkpt>
<trkpt lat="33.8103214" lon="-118.3938659">
  <ele>-0.102</ele>
  <time>2026-09-01T01:18:05Z</time>
  <course>247.93</course>
  <speed>0.06</speed>
  <fix>3d</fix>
</trkpt>
<trkpt lat="33.8103213" lon="-118.3938656">
  <ele>-0.13</ele>
  <time>2026-09-01T01:18:05Z</time>
  <course>23.18</course>
  <speed>0.06</speed>
  <fix>3d</fix>
</trkpt>
<trkpt lat="33.8103214" lon="-118.3938659">
  <ele>-0.1</ele>
  <time>2026-09-01T01:18:05Z</time>
  <course>247.98</course>
  <speed>0.05</speed>
  <fix>3d</fix>
</trkpt>
<trkpt lat="33.8103214" lon="-118.3938656">
  <ele>-0.11</ele>
  <time>2026-09-01T01:18:05Z</time>
  <course>23.42</course>
  <speed>0.06</speed>
  <fix>3d</fix>
</trkpt>
<trkpt lat="33.8103215" lon="-118.3938659">
  <ele>-0.103</ele>
  <time>2026-09-01T01:18:05Z</time>
  <course>248.03</course>
  <speed>0.05</speed>
  <fix>3d</fix>
</trkpt>
<trkpt lat="33.8103214" lon="-118.3938656">
  <ele>-0.11</ele>
  <time>2026-09-01T01:18:05Z</time>
  <course>23.42</course>
  <speed>0.06</speed>
  <fix>3d</fix>
</trkpt>
<trkpt lat="33.8103215" lon="-118.3938658">
  <ele>-0.11</ele>
  <time>2026-09-01T01:18:05Z</time>
  <course>248.08</course>
  <speed>0.05</speed>
  <fix>3d</fix>
</trkpt>
<trkpt lat="33.8103215" lon="-118.3938655">
  <ele>-0.11</ele>
  <time>2026-09-01T01:18:05Z</time>
  <course>23.65</course>
  <speed>0.06</speed>
  <fix>3d</fix>
</trkpt>
<trkpt lat="33.8103216" lon="-118.3938658">
  <ele>-0.12</ele>
  <time>2026-09-01T01:18:05Z</time>
  <course>248.13</course>
  <speed>0.05</speed>
  <fix>3d</fix>
</trkpt>
<trkpt lat="33.8103215" lon="-118.3938655">
  <ele>-0.11</ele>
  <time>2026-09-01T01:18:05Z</time>
  <course>23.65</course>
  <speed>0.06</speed>
  <fix>3d</fix>
</trkpt>
<trkpt lat="33.8103216" lon="-118.3938658">
  <ele>-0.129</ele>
  <time>2026-09-01T01:18:05Z</time>
  <course>248.17</course>
  <speed>0.05</speed>
  <fix>3d</fix>
</trkpt>
<trkpt lat="33.8103216" lon="-118.3938655">
  <ele>-0.12</ele>
  <time>2026-09-01T01:18:05Z</time>
  <course>23.85</course>
  <speed>0.05</speed>
  <fix>3d</fix>
</trkpt>
<trkpt lat="33.8103217" lon="-118.3938657">
  <ele>-0.137</ele>
  <time>2026-09-01T01:18:05Z</time>
  <course>248.22</course>
  <speed>0.05</speed>
  <fix>3d</fix>
</trkpt>
<trkpt lat="33.8103216" lon="-118.3938655">
  <ele>-0.12</ele>
  <time>2026-09-01T01:18:05Z</time>
  <course>23.85</course>
  <speed>0.05</speed>
  <fix>3d</fix>
</trkpt>
<trkpt lat="33.4365946" lon="-117.0852142">
  <ele>-0.11</ele>
  <time>2026-09-01T01:18:06Z</time>
  <course>0.0</course>
  <speed>0.0</speed>
  <fix>3d</fix>
</trkpt>
<trkpt lat="33.4365946" lon="-117.0852142">
  <ele>-0.11</ele>
  <time>2026-09-01T01:18:06Z</time>
  <course>0.0</course>
  <speed>0.0</speed>
  <fix>3d</fix>
</trkpt>
<trkpt lat="33.810313" lon="-118.393867">
  <ele>0.0</ele>
  <time>2026-09-01T01:18:06Z</time>
  <course>173.5</course>
  <speed>0.0</speed>
  <fix>3d</fix>
</trkpt>
<trkpt lat="33.810313" lon="-118.393867">
  <ele>-0.11</ele>
  <time>2026-09-01T01:18:06Z</time>
  <course>0.0</course>
  <speed>0.0</speed>
  <fix>3d</fix>
</trkpt>
<trkpt lat="33.810313" lon="-118.393867">
  <ele>0.0</ele>
  <time>2026-09-01T01:18:06Z</time>
  <course>173.64</course>
  <speed>0.0</speed>
  <fix>3d</fix>
</trkpt>
<trkpt lat="33.810313" lon="-118.393867">
  <ele>-0.11</ele>
  <time>2026-09-01T01:18:06Z</time>
  <course>0.0</course>
  <speed>0.0</speed>
  <fix>3d</fix>
</trkpt>
<trkpt lat="33.810313" lon="-118.393867">
  <ele>0.0</ele>
  <time>2026-09-01T01:18:06Z</time>
  <course>174.03</course>
  <speed>0.0</speed>
  <fix>3d</fix>
</trkpt>
<trkpt lat="33.810313" lon="-118.393867">
  <ele>-0.11</ele>
  <time>2026-09-01T01:18:06Z</time>
  <course>0.0</course>
  <speed>0.0</speed>
  <fix>3d</fix>
</trkpt>
<trkpt lat="33.810313" lon="-118.393867">
  <ele>0.0</ele>
  <time>2026-09-01T01:18:06Z</time>
  <course>174.57</course>
  <speed>0.0</speed>
  <fix>3d</fix>
</trkpt>
<trkpt lat="33.810313" lon="-118.393867">
  <ele>-0.11</ele>
  <time>2026-09-01T01:18:06Z</time>
  <course>0.0</course>
  <speed>0.0</speed>
  <fix>3d</fix>
</trkpt>
<trkpt lat="33.810313" lon="-118.393867">
  <ele>0.0</ele>
  <time>2026-09-01T01:18:06Z</time>
  <course>175.13</course>
  <speed>0.0</speed>
  <fix>3d</fix>
</trkpt>
<trkpt lat="33.810313" lon="-118.393867">
  <ele>-0.12</ele>
  <time>2026-09-01T01:18:06Z</time>
  <course>0.0</course>
  <speed>0.0</speed>
  <fix>3d</fix>
</trkpt>
<trkpt lat="33.810313" lon="-118.393867">
  <ele>0.0</ele>
  <time>2026-09-01T01:18:06Z</time>
  <course>175.67</course>
  <speed>0.0</speed>
  <fix>3d</fix>
</trkpt>
<trkpt lat="33.810313" lon="-118.393867">
  <ele>-0.12</ele>
  <time>2026-09-01T01:18:06Z</time>
  <course>0.0</course>
  <speed>0.0</speed>
  <fix>3d</fix>
</trkpt>
<trkpt lat="33.810313" lon="-118.393867">
  <ele>0.0</ele>
  <time>2026-09-01T01:18:06Z</time>
  <course>176.17</course>
  <speed>0.0</speed>
  <fix>3d</fix>
</trkpt>
<trkpt lat="33.810313" lon="-118.393867">
  <ele>-0.13</ele>
  <time>2026-09-01T01:18:06Z</time>
  <course>0.0</course>
  <speed>0.0</speed>
  <fix>3d</fix>
</trkpt>
<trkpt lat="33.810313" lon="-118.393867">
  <ele>0.0</ele>
  <time>2026-09-01T01:18:06Z</time>
  <course>176.65</course>
  <speed>0.0</speed>
  <fix>3d</fix>
</trkpt>
<trkpt lat="33.810313" lon="-118.393867">
  <ele>-0.13</ele>
  <time>2026-09-01T01:18:06Z</time>
  <course>0.0</course>
  <speed>0.0</speed>
  <fix>3d</fix>
</trkpt>
<trkpt lat="33.810313" lon="-118.393867">
  <ele>0.0</ele>
  <time>2026-09-01T01:18:06Z</time>
  <course>177.12</course>
  <speed>0.0</speed>
  <fix>3d</fix>
</trkpt>
<trkpt lat="33.810313" lon="-118.393867">
  <ele>-0.13</ele>
  <time>2026-09-01T01:18:06Z</time>
  <course>0.0</course>
  <speed>0.0</speed>
  <fix>3d</fix>
</trkpt>
<trkpt lat="33.810313" lon="-118.393867">
  <ele>0.0</ele>
  <time>2026-09-01T01:18:06Z</time>
  <course>177.57</course>
  <speed>0.0</speed>
  <fix>3d</fix>
</trkpt>
<trkpt lat="33.810313" lon="-118.393867">
  <ele>-0.13</ele>
  <time>2026-09-01T01:18:06Z</time>
  <course>0.0</course>
  <speed>0.0</speed>
  <fix>3d</fix>
</trkpt>
<trkpt lat="33.810313" lon="-118.393867">
  <ele>0.0</ele>
  <time>2026-09-01T01:18:06Z</time>
  <course>178.02</course>
  <speed>0.0</speed>
  <fix>3d</fix>
</trkpt>
<trkpt lat="33.810313" lon="-118.393867">
  <ele>-0.14</ele>
  <time>2026-09-01T01:18:06Z</time>
  <course>0.0</course>
  <speed>0.0</speed>
  <fix>3d</fix>
</trkpt>
<trkpt lat="33.810313" lon="-118.393867">
  <ele>0.0</ele>
  <time>2026-09-01T01:18:06Z</time>
  <course>178.45</course>
  <speed>0.0</speed>
  <fix>3d</fix>
</trkpt>
<trkpt lat="33.810313" lon="-118.393867">
  <ele>-0.14</ele>
  <time>2026-09-01T01:18:06Z</time>
  <course>0.0</course>
  <speed>0.0</speed>
  <fix>3d</fix>
</trkpt>
<trkpt lat="33.810313" lon="-118.393867">
  <ele>0.0</ele>
  <time>2026-09-01T01:18:06Z</time>
  <course>178.87</course>
  <speed>0.0</speed>
  <fix>3d</fix>
</trkpt>
<trkpt lat="33.810313" lon="-118.393867">
  <ele>-0.14</ele>
  <time>2026-09-01T01:18:06Z</time>
  <course>0.0</course>
  <speed>0.0</speed>
  <fix>3d</fix>
</trkpt>
<trkpt lat="33.810313" lon="-118.393867">
  <ele>0.0</ele>
  <time>2026-09-01T01:18:06Z</time>
  <course>179.27</course>
  <speed>0.0</speed>
  <fix>3d</fix>
</trkpt>
<trkpt lat="33.810313" lon="-118.393867">
  <ele>-0.14</ele>
  <time>2026-09-01T01:18:06Z</time>
  <course>0.0</course>
  <speed>0.0</speed>
  <fix>3d</fix>
</trkpt>
<trkpt lat="33.810313" lon="-118.393867">
  <ele>0.0</ele>
  <time>2026-09-01T01:18:06Z</time>
  <course>179.66</course>
  <speed>0.0</speed>
  <fix>3d</fix>
</trkpt>
<trkpt lat="33.810313" lon="-118.393867">
  <ele>-0.14</ele>
  <time>2026-09-01T01:18:06Z</time>
  <course>0.0</course>
  <speed>0.0</speed>
  <fix>3d</fix>
</trkpt>
<trkpt lat="33.810313" lon="-118.393867">
  <ele>0.0</ele>
  <time>2026-09-01T01:18:06Z</time>
  <course>180.05</course>
  <speed>0.0</speed>
  <fix>3d</fix>
</trkpt>
<trkpt lat="33.810313" lon="-118.393867">
  <ele>-0.14</ele>
  <time>2026-09-01T01:18:06Z</time>
  <course>0.0</course>
  <speed>0.0</speed>
  <fix>3d</fix>
</trkpt>
<trkpt lat="33.810313" lon="-118.393867">
  <ele>0.0</ele>
  <time>2026-09-01T01:18:06Z</time>
  <course>180.41</course>
  <speed>0.0</speed>
  <fix>3d</fix>
</trkpt>
<trkpt lat="33.810313" lon="-118.393867">
  <ele>-0.14</ele>
  <time>2026-09-01T01:18:06Z</time>
  <course>0.0</course>
  <speed>0.0</speed>
  <fix>3d</fix>
</trkpt>
<trkpt lat="33.810313" lon="-118.393867">
  <ele>0.0</ele>
  <time>2026-09-01T01:18:06Z</time>
  <course>180.76</course>
  <speed>0.0</speed>
  <fix>3d</fix>
</trkpt>
<trkpt lat="33.810313" lon="-118.393867">
  <ele>-0.14</ele>
  <time>2026-09-01T01:18:06Z</time>
  <course>0.0</course>
  <speed>0.0</speed>
  <fix>3d</fix>
</trkpt>
<trkpt lat="33.810313" lon="-118.393867">
  <ele>0.0</ele>
  <time>2026-09-01T01:18:06Z</time>
  <course>181.1</course>
  <speed>0.0</speed>
  <fix>3d</fix>
</trkpt>
<trkpt lat="33.810313" lon="-118.393867">
  <ele>-0.13</ele>
  <time>2026-09-01T01:18:06Z</time>
  <course>0.0</course>
  <speed>0.0</speed>
  <fix>3d</fix>
</trkpt>
<trkpt lat="33.810313" lon="-118.393867">
  <ele>0.0</ele>
  <time>2026-09-01T01:18:06Z</time>
  <course>181.43</course>
  <speed>0.0</speed>
  <fix>3d</fix>
</trkpt>
<trkpt lat="33.810313" lon="-118.393867">
  <ele>-0.13</ele>
  <time>2026-09-01T01:18:06Z</time>
  <course>0.0</course>
  <speed>0.0</speed>
  <fix>3d</fix>
</trkpt>
<trkpt lat="33.810313" lon="-118.393867">
  <ele>0.0</ele>
  <time>2026-09-01T01:18:06Z</time>
  <course>181.75</course>
  <speed>0.0</speed>
  <fix>3d</fix>
</trkpt>
<trkpt lat="33.810313" lon="-118.393867">
  <ele>-0.12</ele>
  <time>2026-09-01T01:18:06Z</time>
  <course>0.0</course>
  <speed>0.0</speed>
  <fix>3d</fix>
</trkpt>
<trkpt lat="33.810313" lon="-118.393867">
  <ele>0.0</ele>
  <time>2026-09-01T01:18:06Z</time>
  <course>182.05</course>
  <speed>0.0</speed>
  <fix>3d</fix>
</trkpt>
<trkpt lat="33.810313" lon="-118.393867">
  <ele>-0.12</ele>
  <time>2026-09-01T01:18:06Z</time>
  <course>0.0</course>
  <speed>0.0</speed>
  <fix>3d</fix>
</trkpt>
<trkpt lat="33.810313" lon="-118.393867">
  <ele>0.0</ele>
  <time>2026-09-01T01:18:06Z</time>
  <course>182.35</course>
  <speed>0.0</speed>
  <fix>3d</fix>
</trkpt>
<trkpt lat="33.810313" lon="-118.393867">
  <ele>-0.12</ele>
  <time>2026-09-01T01:18:06Z</time>
  <course>0.0</course>
  <speed>0.0</speed>
  <fix>3d</fix>
</trkpt>
<trkpt lat="33.810313" lon="-118.393867">
  <ele>0.0</ele>
  <time>2026-09-01T01:18:06Z</time>
  <course>182.63</course>
  <speed>0.0</speed>
  <fix>3d</fix>
</trkpt>
<trkpt lat="33.810313" lon="-118.393867">
  <ele>-0.12</ele>
  <time>2026-09-01T01:18:06Z</time>
  <course>0.0</course>
  <speed>0.0</speed>
  <fix>3d</fix>
</trkpt>
<trkpt lat="33.810313" lon="-118.393867">
  <ele>0.0</ele>
  <time>2026-09-01T01:18:06Z</time>
  <course>182.9</course>
  <speed>0.0</speed>
  <fix>3d</fix>
</trkpt>
<trkpt lat="33.810313" lon="-118.393867">
  <ele>-0.11</ele>
  <time>2026-09-01T01:18:06Z</time>
  <course>0.0</course>
  <speed>0.0</speed>
  <fix>3d</fix>
</trkpt>
<trkpt lat="33.810313" lon="-118.393867">
  <ele>0.0</ele>
  <time>2026-09-01T01:18:06Z</time>
  <course>183.16</course>
  <speed>0.0</speed>
  <fix>3d</fix>
</trkpt>
<trkpt lat="33.810313" lon="-118.393867">
  <ele>-0.11</ele>
  <time>2026-09-01T01:18:06Z</time>
  <course>0.0</course>
  <speed>0.0</speed>
  <fix>3d</fix>
</trkpt>
<trkpt lat="33.810313" lon="-118.393867">
  <ele>0.0</ele>
  <time>2026-09-01T01:18:06Z</time>
  <course>183.41</course>
  <speed>0.0</speed>
  <fix>3d</fix>
</trkpt>
<trkpt lat="33.810313" lon="-118.393867">
  <ele>-0.11</ele>
  <time>2026-09-01T01:18:06Z</time>
  <course>0.0</course>
  <speed>0.0</speed>
  <fix>3d</fix>
</trkpt>
<trkpt lat="33.810313" lon="-118.393867">
  <ele>0.0</ele>
  <time>2026-09-01T01:18:06Z</time>
  <course>183.65</course>
  <speed>0.0</speed>
  <fix>3d</fix>
</trkpt>
<trkpt lat="33.810313" lon="-118.393867">
  <ele>-0.11</ele>
  <time>2026-09-01T01:18:06Z</time>
  <course>0.0</course>
  <speed>0.0</speed>
  <fix>3d</fix>
</trkpt>
<trkpt lat="33.810313" lon="-118.393867">
  <ele>0.0</ele>
  <time>2026-09-01T01:18:06Z</time>
  <course>183.88</course>
  <speed>0.0</speed>
  <fix>3d</fix>
</trkpt>
<trkpt lat="33.810313" lon="-118.393867">
  <ele>-0.12</ele>
  <time>2026-09-01T01:18:06Z</time>
  <course>0.0</course>
  <speed>0.0</speed>
  <fix>3d</fix>
</trkpt>
<trkpt lat="33.810313" lon="-118.393867">
  <ele>0.0</ele>
  <time>2026-09-01T01:18:06Z</time>
  <course>184.11</course>
  <speed>0.0</speed>
  <fix>3d</fix>
</trkpt>
<trkpt lat="33.810313" lon="-118.393867">
  <ele>-0.12</ele>
  <time>2026-09-01T01:18:06Z</time>
  <course>0.0</course>
  <speed>0.0</speed>
  <fix>3d</fix>
</trkpt>
<trkpt lat="33.810313" lon="-118.393867">
  <ele>0.0</ele>
  <time>2026-09-01T01:18:06Z</time>
  <course>184.32</course>
  <speed>0.0</speed>
  <fix>3d</fix>
</trkpt>
<trkpt lat="33.810313" lon="-118.393867">
  <ele>-0.13</ele>
  <time>2026-09-01T01:18:06Z</time>
  <course>0.0</course>
  <speed>0.0</speed>
  <fix>3d</fix>
</trkpt>
<trkpt lat="33.810313" lon="-118.393867">
  <ele>0.0</ele>
  <time>2026-09-01T01:18:06Z</time>
  <course>184.53</course>
  <speed>0.0</speed>
  <fix>3d</fix>
</trkpt>
<trkpt lat="33.810313" lon="-118.393867">
  <ele>-0.13</ele>
  <time>2026-09-01T01:18:06Z</time>
  <course>0.0</course>
  <speed>0.0</speed>
  <fix>3d</fix>
</trkpt>
<trkpt lat="33.810313" lon="-118.393867">
  <ele>0.0</ele>
  <time>2026-09-01T01:18:06Z</time>
  <course>184.72</course>
  <speed>0.0</speed>
  <fix>3d</fix>
</trkpt>
<trkpt lat="33.810313" lon="-118.393867">
  <ele>-0.13</ele>
  <time>2026-09-01T01:18:06Z</time>
  <course>0.0</course>
  <speed>0.0</speed>
  <fix>3d</fix>
</trkpt>
<trkpt lat="33.810313" lon="-118.393867">
  <ele>0.0</ele>
  <time>2026-09-01T01:18:06Z</time>
  <course>184.91</course>
  <speed>0.0</speed>
  <fix>3d</fix>
</trkpt>
<trkpt lat="33.810313" lon="-118.393867">
  <ele>-0.13</ele>
  <time>2026-09-01T01:18:06Z</time>
  <course>0.0</course>
  <speed>0.0</speed>
  <fix>3d</fix>
</trkpt>
<trkpt lat="33.810313" lon="-118.393867">
  <ele>0.0</ele>
  <time>2026-09-01T01:18:06Z</time>
  <course>185.09</course>
  <speed>0.0</speed>
  <fix>3d</fix>
</trkpt>
<trkpt lat="33.810313" lon="-118.393867">
  <ele>-0.14</ele>
  <time>2026-09-01T01:18:06Z</time>
  <course>0.0</course>
  <speed>0.0</speed>
  <fix>3d</fix>
</trkpt>
<trkpt lat="33.810313" lon="-118.393867">
  <ele>0.0</ele>
  <time>2026-09-01T01:18:06Z</time>
  <course>185.26</course>
  <speed>0.0</speed>
  <fix>3d</fix>
</trkpt>
<trkpt lat="33.810313" lon="-118.393867">
  <ele>-0.14</ele>
  <time>2026-09-01T01:18:06Z</time>
  <course>0.0</course>
  <speed>0.0</speed>
  <fix>3d</fix>
</trkpt>
<trkpt lat="33.810313" lon="-118.393867">
  <ele>0.0</ele>
  <time>2026-09-01T01:18:06Z</time>
  <course>185.42</course>
  <speed>0.0</speed>
  <fix>3d</fix>
</trkpt>
<trkpt lat="33.810313" lon="-118.393867">
  <ele>-0.13</ele>
  <time>2026-09-01T01:18:06Z</time>
  <course>0.0</course>
  <speed>0.0</speed>
  <fix>3d</fix>
</trkpt>
<trkpt lat="33.810313" lon="-118.393867">
  <ele>0.0</ele>
  <time>2026-09-01T01:18:06Z</time>
  <course>185.58</course>
  <speed>0.0</speed>
  <fix>3d</fix>
</trkpt>
<trkpt lat="33.810313" lon="-118.393867">
  <ele>-0.13</ele>
  <time>2026-09-01T01:18:06Z</time>
  <course>0.0</course>
  <speed>0.0</speed>
  <fix>3d</fix>
</trkpt>
<trkpt lat="33.810313" lon="-118.393867">
  <ele>0.0</ele>
  <time>2026-09-01T01:18:06Z</time>
  <course>185.73</course>
  <speed>0.0</speed>
  <fix>3d</fix>
</trkpt>
<trkpt lat="33.810313" lon="-118.393867">
  <ele>-0.13</ele>
  <time>2026-09-01T01:18:06Z</time>
  <course>0.0</course>
  <speed>0.0</speed>
  <fix>3d</fix>
</trkpt>
<trkpt lat="33.810313" lon="-118.393867">
  <ele>0.0</ele>
  <time>2026-09-01T01:18:06Z</time>
  <course>185.88</course>
  <speed>0.0</speed>
  <fix>3d</fix>
</trkpt>
<trkpt lat="33.810313" lon="-118.393867">
  <ele>-0.13</ele>
  <time>2026-09-01T01:18:06Z</time>
  <course>0.0</course>
  <speed>0.0</speed>
  <fix>3d</fix>
</trkpt>
<trkpt lat="33.810313" lon="-118.393867">
  <ele>0.0</ele>
  <time>2026-09-01T01:18:06Z</time>
  <course>186.01</course>
  <speed>0.0</speed>
  <fix>3d</fix>
</trkpt>
<trkpt lat="33.810313" lon="-118.393867">
  <ele>-0.12</ele>
  <time>2026-09-01T01:18:06Z</time>
  <course>0.0</course>
  <speed>0.0</speed>
  <fix>3d</fix>
</trkpt>
<trkpt lat="33.810313" lon="-118.393867">
  <ele>0.0</ele>
  <time>2026-09-01T01:18:06Z</time>
  <course>186.15</course>
  <speed>0.0</speed>
  <fix>3d</fix>
</trkpt>
<trkpt lat="33.810313" lon="-118.393867">
  <ele>-0.12</ele>
  <time>2026-09-01T01:18:06Z</time>
  <course>0.0</course>
  <speed>0.0</speed>
  <fix>3d</fix>
</trkpt>
<trkpt lat="33.810313" lon="-118.393867">
  <ele>0.0</ele>
  <time>2026-09-01T01:18:06Z</time>
  <course>186.27</course>
  <speed>0.0</speed>
  <fix>3d</fix>
</trkpt>
<trkpt lat="33.810313" lon="-118.393867">
  <ele>-0.12</ele>
  <time>2026-09-01T01:18:06Z</time>
  <course>0.0</course>
  <speed>0.0</speed>
  <fix>3d</fix>
</trkpt>
<trkpt lat="33.810313" lon="-118.393867">
  <ele>0.0</ele>
  <time>2026-09-01T01:18:06Z</time>
  <course>186.39</course>
  <speed>0.0</speed>
  <fix>3d</fix>
</trkpt>
<trkpt lat="33.810313" lon="-118.393867">
  <ele>-0.12</ele>
  <time>2026-09-01T01:18:06Z</time>
  <course>0.0</course>
  <speed>0.0</speed>
  <fix>3d</fix>
</trkpt>
<trkpt lat="33.810313" lon="-118.393867">
  <ele>0.0</ele>
  <time>2026-09-01T01:18:06Z</time>
  <course>186.51</course>
  <speed>0.0</speed>
  <fix>3d</fix>
</trkpt>
<trkpt lat="33.810313" lon="-118.393867">
  <ele>-0.11</ele>
  <time>2026-09-01T01:18:06Z</time>
  <course>0.0</course>
  <speed>0.0</speed>
  <fix>3d</fix>
</trkpt>
<trkpt lat="33.810313" lon="-118.393867">
  <ele>0.0</ele>
  <time>2026-09-01T01:18:06Z</time>
  <course>186.62</course>
  <speed>0.0</speed>
  <fix>3d</fix>
</trkpt>
<trkpt lat="33.810313" lon="-118.393867">
  <ele>-0.11</ele>
  <time>2026-09-01T01:18:06Z</time>
  <course>0.0</course>
  <speed>0.0</speed>
  <fix>3d</fix>
</trkpt>
<trkpt lat="33.810313" lon="-118.393867">
  <ele>0.0</ele>
  <time>2026-09-01T01:18:06Z</time>
  <course>186.72</course>
  <speed>0.0</speed>
  <fix>3d</fix>
</trkpt>
<trkpt lat="33.810313" lon="-118.393867">
  <ele>-0.11</ele>
  <time>2026-09-01T01:18:06Z</time>
  <course>0.0</course>
  <speed>0.0</speed>
  <fix>3d</fix>
</trkpt>
<trkpt lat="33.810313" lon="-118.393867">
  <ele>0.0</ele>
  <time>2026-09-01T01:18:06Z</time>
  <course>186.82</course>
  <speed>0.0</speed>
  <fix>3d</fix>
</trkpt>
<trkpt lat="33.810313" lon="-118.393867">
  <ele>-0.11</ele>
  <time>2026-09-01T01:18:06Z</time>
  <course>0.0</course>
  <speed>0.0</speed>
  <fix>3d</fix>
</trkpt>
<trkpt lat="33.810313" lon="-118.393867">
  <ele>0.0</ele>
  <time>2026-09-01T01:18:06Z</time>
  <course>186.92</course>
  <speed>0.0</speed>
  <fix>3d</fix>
</trkpt>
<trkpt lat="33.810313" lon="-118.393867">
  <ele>-0.12</ele>
  <time>2026-09-01T01:18:06Z</time>
  <course>0.0</course>
  <speed>0.0</speed>
  <fix>3d</fix>
</trkpt>
<trkpt lat="33.810313" lon="-118.393867">
  <ele>0.0</ele>
  <time>2026-09-01T01:18:06Z</time>
  <course>187.01</course>
  <speed>0.0</speed>
  <fix>3d</fix>
</trkpt>
<trkpt lat="33.810313" lon="-118.393867">
  <ele>-0.12</ele>
  <time>2026-09-01T01:18:06Z</time>
  <course>0.0</course>
  <speed>0.0</speed>
  <fix>3d</fix>
</trkpt>
<trkpt lat="33.810313" lon="-118.393867">
  <ele>0.0</ele>
  <time>2026-09-01T01:18:06Z</time>
  <course>187.09</course>
  <speed>0.0</speed>
  <fix>3d</fix>
</trkpt>
<trkpt lat="33.810313" lon="-118.393867">
  <ele>-0.13</ele>
  <time>2026-09-01T01:18:06Z</time>
  <course>0.0</course>
  <speed>0.0</speed>
  <fix>3d</fix>
</trkpt>
<trkpt lat="33.810313" lon="-118.393867">
  <ele>0.0</ele>
  <time>2026-09-01T01:18:06Z</time>
  <course>187.18</course>
  <speed>0.0</speed>
  <fix>3d</fix>
</trkpt>
<trkpt lat="33.810313" lon="-118.393867">
  <ele>-0.13</ele>
  <time>2026-09-01T01:18:06Z</time>
  <course>0.0</course>
  <speed>0.0</speed>
  <fix>3d</fix>
</trkpt>
<trkpt lat="33.810313" lon="-118.393867">
  <ele>0.0</ele>
  <time>2026-09-01T01:18:06Z</time>
  <course>187.26</course>
  <speed>0.0</speed>
  <fix>3d</fix>
</trkpt>
<trkpt lat="33.810313" lon="-118.393867">
  <ele>-0.13</ele>
  <time>2026-09-01T01:18:06Z</time>
  <course>0.0</course>
  <speed>0.0</speed>
  <fix>3d</fix>
</trkpt>
<trkpt lat="33.810313" lon="-118.393867">
  <ele>0.0</ele>
  <time>2026-09-01T01:18:06Z</time>
  <course>187.33</course>
  <speed>0.0</speed>
  <fix>3d</fix>
</trkpt>
<trkpt lat="33.810313" lon="-118.393867">
  <ele>-0.13</ele>
  <time>2026-09-01T01:18:06Z</time>
  <course>0.0</course>
  <speed>0.0</speed>
  <fix>3d</fix>
</trkpt>
<trkpt lat="33.810313" lon="-118.393867">
  <ele>0.0</ele>
  <time>2026-09-01T01:18:06Z</time>
  <course>187.4</course>
  <speed>0.0</speed>
  <fix>3d</fix>
</trkpt>
<trkpt lat="33.810313" lon="-118.393867">
  <ele>-0.13</ele>
  <time>2026-09-01T01:18:06Z</time>
  <course>0.0</course>
  <speed>0.0</speed>
  <fix>3d</fix>
</trkpt>
<trkpt lat="33.810313" lon="-118.393867">
  <ele>0.0</ele>
  <time>2026-09-01T01:18:06Z</time>
  <course>187.47</course>
  <speed>0.0</speed>
  <fix>3d</fix>
</trkpt>
<trkpt lat="33.810313" lon="-118.393867">
  <ele>-0.13</ele>
  <time>2026-09-01T01:18:06Z</time>
  <course>0.0</course>
  <speed>0.0</speed>
  <fix>3d</fix>
</trkpt>
<trkpt lat="33.810313" lon="-118.393867">
  <ele>0.0</ele>
  <time>2026-09-01T01:18:06Z</time>
  <course>187.53</course>
  <speed>0.0</speed>
  <fix>3d</fix>
</trkpt>
<trkpt lat="33.810313" lon="-118.393867">
  <ele>-0.13</ele>
  <time>2026-09-01T01:18:06Z</time>
  <course>0.0</course>
  <speed>0.0</speed>
  <fix>3d</fix>
</trkpt>
<trkpt lat="33.810313" lon="-118.393867">
  <ele>0.0</ele>
  <time>2026-09-01T01:18:06Z</time>
  <course>187.6</course>
  <speed>0.0</speed>
  <fix>3d</fix>
</trkpt>
<trkpt lat="33.810313" lon="-118.393867">
  <ele>-0.13</ele>
  <time>2026-09-01T01:18:06Z</time>
  <course>0.0</course>
  <speed>0.0</speed>
  <fix>3d</fix>
</trkpt>
<trkpt lat="33.810313" lon="-118.393867">
  <ele>0.0</ele>
  <time>2026-09-01T01:18:06Z</time>
  <course>187.66</course>
  <speed>0.0</speed>
  <fix>3d</fix>
</trkpt>
<trkpt lat="33.810313" lon="-118.393867">
  <ele>-0.12</ele>
  <time>2026-09-01T01:18:06Z</time>
  <course>0.0</course>
  <speed>0.0</speed>
  <fix>3d</fix>
</trkpt>
<trkpt lat="33.810313" lon="-118.393867">
  <ele>0.0</ele>
  <time>2026-09-01T01:18:06Z</time>
  <course>187.71</course>
  <speed>0.0</speed>
  <fix>3d</fix>
</trkpt>
<trkpt lat="33.810313" lon="-118.393867">
  <ele>-0.12</ele>
  <time>2026-09-01T01:18:06Z</time>
  <course>0.0</course>
  <speed>0.0</speed>
  <fix>3d</fix>
</trkpt>
<trkpt lat="33.810313" lon="-118.393867">
  <ele>0.0</ele>
  <time>2026-09-01T01:18:06Z</time>
  <course>187.76</course>
  <speed>0.0</speed>
  <fix>3d</fix>
</trkpt>
<trkpt lat="33.810313" lon="-118.393867">
  <ele>-0.12</ele>
  <time>2026-09-01T01:18:06Z</time>
  <course>0.0</course>
  <speed>0.0</speed>
  <fix>3d</fix>
</trkpt>
<trkpt lat="33.810313" lon="-118.393867">
  <ele>0.0</ele>
  <time>2026-09-01T01:18:06Z</time>
  <course>187.82</course>
  <speed>0.0</speed>
  <fix>3d</fix>
</trkpt>
<trkpt lat="33.810313" lon="-118.393867">
  <ele>-0.12</ele>
  <time>2026-09-01T01:18:06Z</time>
  <course>0.0</course>
  <speed>0.0</speed>
  <fix>3d</fix>
</trkpt>
<trkpt lat="33.810313" lon="-118.393867">
  <ele>0.0</ele>
  <time>2026-09-01T01:18:06Z</time>
  <course>187.86</course>
  <speed>0.0</speed>
  <fix>3d</fix>
</trkpt>
<trkpt lat="33.810313" lon="-118.393867">
  <ele>-0.12</ele>
  <time>2026-09-01T01:18:06Z</time>
  <course>0.0</course>
  <speed>0.0</speed>
  <fix>3d</fix>
</trkpt>
<trkpt lat="33.810313" lon="-118.393867">
  <ele>0.0</ele>
  <time>2026-09-01T01:18:06Z</time>
  <course>187.91</course>
  <speed>0.0</speed>
  <fix>3d</fix>
</trkpt>
<trkpt lat="33.810313" lon="-118.393867">
  <ele>-0.12</ele>
  <time>2026-09-01T01:18:06Z</time>
  <course>0.0</course>
  <speed>0.0</speed>
  <fix>3d</fix>
</trkpt>
<trkpt lat="33.810313" lon="-118.393867">
  <ele>0.0</ele>
  <time>2026-09-01T01:18:06Z</time>
  <course>187.95</course>
  <speed>0.0</speed>
  <fix>3d</fix>
</trkpt>
<trkpt lat="33.810313" lon="-118.393867">
  <ele>-0.12</ele>
  <time>2026-09-01T01:18:06Z</time>
  <course>0.0</course>
  <speed>0.0</speed>
  <fix>3d</fix>
</trkpt>
<trkpt lat="33.810313" lon="-118.393867">
  <ele>0.0</ele>
  <time>2026-09-01T01:18:06Z</time>
  <course>187.99</course>
  <speed>0.0</speed>
  <fix>3d</fix>
</trkpt>
<trkpt lat="33.810313" lon="-118.393867">
  <ele>-0.12</ele>
  <time>2026-09-01T01:18:06Z</time>
  <course>0.0</course>
  <speed>0.0</speed>
  <fix>3d</fix>
</trkpt>
<trkpt lat="33.810313" lon="-118.393867">
  <ele>0.0</ele>
  <time>2026-09-01T01:18:06Z</time>
  <course>188.03</course>
  <speed>0.0</speed>
  <fix>3d</fix>
</trkpt>
<trkpt lat="33.810313" lon="-118.393867">
  <ele>-0.12</ele>
  <time>2026-09-01T01:18:06Z</time>
  <course>0.0</course>
  <speed>0.0</speed>
  <fix>3d</fix>
</trkpt>
<trkpt lat="33.810313" lon="-118.393867">
  <ele>0.0</ele>
  <time>2026-09-01T01:18:06Z</time>
  <course>188.07</course>
  <speed>0.0</speed>
  <fix>3d</fix>
</trkpt>
<trkpt lat="33.810313" lon="-118.393867">
  <ele>-0.12</ele>
  <time>2026-09-01T01:18:06Z</time>
  <course>0.0</course>
  <speed>0.0</speed>
  <fix>3d</fix>
</trkpt>
<trkpt lat="33.810313" lon="-118.393867">
  <ele>0.0</ele>
  <time>2026-09-01T01:18:06Z</time>
  <course>188.1</course>
  <speed>0.0</speed>
  <fix>3d</fix>
</trkpt>
<trkpt lat="33.810313" lon="-118.393867">
  <ele>-0.13</ele>
  <time>2026-09-01T01:18:06Z</time>
  <course>0.0</course>
  <speed>0.0</speed>
  <fix>3d</fix>
</trkpt>
<trkpt lat="33.810313" lon="-118.393867">
  <ele>0.0</ele>
  <time>2026-09-01T01:18:06Z</time>
  <course>188.14</course>
  <speed>0.0</speed>
  <fix>3d</fix>
</trkpt>
<trkpt lat="33.810313" lon="-118.393867">
  <ele>-0.13</ele>
  <time>2026-09-01T01:18:06Z</time>
  <course>0.0</course>
  <speed>0.0</speed>
  <fix>3d</fix>
</trkpt>
<trkpt lat="33.810313" lon="-118.393867">
  <ele>0.0</ele>
  <time>2026-09-01T01:18:06Z</time>
  <course>188.17</course>
  <speed>0.0</speed>
  <fix>3d</fix>
</trkpt>
<trkpt lat="33.810313" lon="-118.393867">
  <ele>-0.13</ele>
  <time>2026-09-01T01:18:06Z</time>
  <course>0.0</course>
  <speed>0.0</speed>
  <fix>3d</fix>
</trkpt>
<trkpt lat="33.810313" lon="-118.393867">
  <ele>0.0</ele>
  <time>2026-09-01T01:18:06Z</time>
  <course>188.2</course>
  <speed>0.0</speed>
  <fix>3d</fix>
</trkpt>
<trkpt lat="33.810313" lon="-118.393867">
  <ele>-0.13</ele>
  <time>2026-09-01T01:18:06Z</time>
  <course>0.0</course>
  <speed>0.0</speed>
  <fix>3d</fix>
</trkpt>
<trkpt lat="33.810313" lon="-118.393867">
  <ele>0.0</ele>
  <time>2026-09-01T01:18:06Z</time>
  <course>188.22</course>
  <speed>0.0</speed>
  <fix>3d</fix>
</trkpt>
<trkpt lat="33.810313" lon="-118.393867">
  <ele>-0.13</ele>
  <time>2026-09-01T01:18:06Z</time>
  <course>0.0</course>
  <speed>0.0</speed>
  <fix>3d</fix>
</trkpt>
<trkpt lat="33.810313" lon="-118.393867">
  <ele>0.0</ele>
  <time>2026-09-01T01:18:06Z</time>
  <course>188.25</course>
  <speed>0.0</speed>
  <fix>3d</fix>
</trkpt>
<trkpt lat="33.810313" lon="-118.393867">
  <ele>-0.13</ele>
  <time>2026-09-01T01:18:06Z</time>
  <course>0.0</course>
  <speed>0.0</speed>
  <fix>3d</fix>
</trkpt>
<trkpt lat="33.810313" lon="-118.393867">
  <ele>0.0</ele>
  <time>2026-09-01T01:18:06Z</time>
  <course>188.27</course>
  <speed>0.0</speed>
  <fix>3d</fix>
</trkpt>
<trkpt lat="33.810313" lon="-118.393867">
  <ele>-0.12</ele>
  <time>2026-09-01T01:18:06Z</time>
  <course>0.0</course>
  <speed>0.0</speed>
  <fix>3d</fix>
</trkpt>
<trkpt lat="33.810313" lon="-118.393867">
  <ele>0.0</ele>
  <time>2026-09-01T01:18:06Z</time>
  <course>188.3</course>
  <speed>0.0</speed>
  <fix>3d</fix>
</trkpt>
<trkpt lat="33.810313" lon="-118.393867">
  <ele>-0.12</ele>
  <time>2026-09-01T01:18:06Z</time>
  <course>0.0</course>
  <speed>0.0</speed>
  <fix>3d</fix>
</trkpt>
<trkpt lat="33.810313" lon="-118.393867">
  <ele>0.0</ele>
  <time>2026-09-01T01:18:06Z</time>
  <course>188.32</course>
  <speed>0.0</speed>
  <fix>3d</fix>
</trkpt>
<trkpt lat="33.810313" lon="-118.393867">
  <ele>-0.12</ele>
  <time>2026-09-01T01:18:06Z</time>
  <course>0.0</course>
  <speed>0.0</speed>
  <fix>3d</fix>
</trkpt>
<trkpt lat="33.810313" lon="-118.393867">
  <ele>0.0</ele>
  <time>2026-09-01T01:18:06Z</time>
  <course>188.34</course>
  <speed>0.0</speed>
  <fix>3d</fix>
</trkpt>
<trkpt lat="33.810313" lon="-118.393867">
  <ele>-0.12</ele>
  <time>2026-09-01T01:18:06Z</time>
  <course>0.0</course>
  <speed>0.0</speed>
  <fix>3d</fix>
</trkpt>
<trkpt lat="33.810313" lon="-118.393867">
  <ele>0.0</ele>
  <time>2026-09-01T01:18:06Z</time>
  <course>188.36</course>
  <speed>0.0</speed>
  <fix>3d</fix>
</trkpt>
<trkpt lat="33.810313" lon="-118.393867">
  <ele>-0.12</ele>
  <time>2026-09-01T01:18:06Z</time>
  <course>0.0</course>
  <speed>0.0</speed>
  <fix>3d</fix>
</trkpt>
<trkpt lat="33.810313" lon="-118.393867">
  <ele>0.0</ele>
  <time>2026-09-01T01:18:06Z</time>
  <course>188.38</course>
  <speed>0.0</speed>
  <fix>3d</fix>
</trkpt>
<trkpt lat="33.810313" lon="-118.393867">
  <ele>-0.12</ele>
  <time>2026-09-01T01:18:06Z</time>
  <course>0.0</course>
  <speed>0.0</speed>
  <fix>3d</fix>
</trkpt>
<trkpt lat="33.810313" lon="-118.393867">
  <ele>0.0</ele>
  <time>2026-09-01T01:18:06Z</time>
  <course>188.4</course>
  <speed>0.0</speed>
  <fix>3d</fix>
</trkpt>
<trkpt lat="33.810313" lon="-118.393867">
  <ele>-0.12</ele>
  <time>2026-09-01T01:18:06Z</time>
  <course>0.0</course>
  <speed>0.0</speed>
  <fix>3d</fix>
</trkpt>
<trkpt lat="33.810313" lon="-118.393867">
  <ele>0.0</ele>
  <time>2026-09-01T01:18:06Z</time>
  <course>188.41</course>
  <speed>0.0</speed>
  <fix>3d</fix>
</trkpt>
<trkpt lat="33.810313" lon="-118.393867">
  <ele>-0.12</ele>
  <time>2026-09-01T01:18:06Z</time>
  <course>0.0</course>
  <speed>0.0</speed>
  <fix>3d</fix>
</trkpt>
<trkpt lat="33.810313" lon="-118.393867">
  <ele>0.0</ele>
  <time>2026-09-01T01:18:06Z</time>
  <course>188.43</course>
  <speed>0.0</speed>
  <fix>3d</fix>
</trkpt>
<trkpt lat="33.810313" lon="-118.393867">
  <ele>-0.12</ele>
  <time>2026-09-01T01:18:06Z</time>
  <course>0.0</course>
  <speed>0.0</speed>
  <fix>3d</fix>
</trkpt>
<trkpt lat="33.810313" lon="-118.393867">
  <ele>0.0</ele>
  <time>2026-09-01T01:18:06Z</time>
  <course>188.44</course>
  <speed>0.0</speed>
  <fix>3d</fix>
</trkpt>
<trkpt lat="33.810313" lon="-118.393867">
  <ele>-0.12</ele>
  <time>2026-09-01T01:18:06Z</time>
  <course>0.0</course>
  <speed>0.0</speed>
  <fix>3d</fix>
</trkpt>
<trkpt lat="33.810313" lon="-118.393867">
  <ele>0.0</ele>
  <time>2026-09-01T01:18:06Z</time>
  <course>188.45</course>
  <speed>0.0</speed>
  <fix>3d</fix>
</trkpt>
<trkpt lat="33.810313" lon="-118.393867">
  <ele>-0.13</ele>
  <time>2026-09-01T01:18:06Z</time>
  <course>0.0</course>
  <speed>0.0</speed>
  <fix>3d</fix>
</trkpt>
<trkpt lat="33.810313" lon="-118.393867">
  <ele>0.0</ele>
  <time>2026-09-01T01:18:06Z</time>
  <course>188.47</course>
  <speed>0.0</speed>
  <fix>3d</fix>
</trkpt>
<trkpt lat="33.810313" lon="-118.393867">
  <ele>-0.13</ele>
  <time>2026-09-01T01:18:06Z</time>
  <course>0.0</course>
  <speed>0.0</speed>
  <fix>3d</fix>
</trkpt>
<trkpt lat="33.810313" lon="-118.393867">
  <ele>0.0</ele>
  <time>2026-09-01T01:18:06Z</time>
  <course>188.48</course>
  <speed>0.0</speed>
  <fix>3d</fix>
</trkpt>
<trkpt lat="33.810313" lon="-118.393867">
  <ele>-0.13</ele>
  <time>2026-09-01T01:18:06Z</time>
  <course>0.0</course>
  <speed>0.0</speed>
  <fix>3d</fix>
</trkpt>
<trkpt lat="33.810313" lon="-118.393867">
  <ele>0.0</ele>
  <time>2026-09-01T01:18:06Z</time>
  <course>188.49</course>
  <speed>0.0</speed>
  <fix>3d</fix>
</trkpt>
<trkpt lat="33.810313" lon="-118.393867">
  <ele>-0.13</ele>
  <time>2026-09-01T01:18:06Z</time>
  <course>0.0</course>
  <speed>0.0</speed>
  <fix>3d</fix>
</trkpt>
<trkpt lat="33.810313" lon="-118.393867">
  <ele>0.0</ele>
  <time>2026-09-01T01:18:06Z</time>
  <course>188.5</course>
  <speed>0.0</speed>
  <fix>3d</fix>
</trkpt>
<trkpt lat="33.810313" lon="-118.393867">
  <ele>-0.13</ele>
  <time>2026-09-01T01:18:06Z</time>
  <course>0.0</course>
  <speed>0.0</speed>
  <fix>3d</fix>
</trkpt>
<trkpt lat="33.810313" lon="-118.393867">
  <ele>0.0</ele>
  <time>2026-09-01T01:18:06Z</time>
  <course>188.5</course>
  <speed>0.0</speed>
  <fix>3d</fix>
</trkpt>
<trkpt lat="33.810313" lon="-118.393867">
  <ele>-0.13</ele>
  <time>2026-09-01T01:18:06Z</time>
  <course>0.0</course>
  <speed>0.0</speed>
  <fix>3d</fix>
</trkpt>
<trkpt lat="33.810313" lon="-118.393867">
  <ele>0.0</ele>
  <time>2026-09-01T01:18:06Z</time>
  <course>188.51</course>
  <speed>0.0</speed>
  <fix>3d</fix>
</trkpt>
<trkpt lat="33.810313" lon="-118.393867">
  <ele>-0.12</ele>
  <time>2026-09-01T01:18:06Z</time>
  <course>0.0</course>
  <speed>0.0</speed>
  <fix>3d</fix>
</trkpt>
<trkpt lat="33.810313" lon="-118.393867">
  <ele>0.0</ele>
  <time>2026-09-01T01:18:06Z</time>
  <course>188.52</course>
  <speed>0.0</speed>
  <fix>3d</fix>
</trkpt>
<trkpt lat="33.810313" lon="-118.393867">
  <ele>-0.12</ele>
  <time>2026-09-01T01:18:06Z</time>
  <course>0.0</course>
  <speed>0.0</speed>
  <fix>3d</fix>
</trkpt>
<trkpt lat="33.810313" lon="-118.393867">
  <ele>0.0</ele>
  <time>2026-09-01T01:18:06Z</time>
  <course>188.53</course>
  <speed>0.0</speed>
  <fix>3d</fix>
</trkpt>
<trkpt lat="33.810313" lon="-118.393867">
  <ele>-0.12</ele>
  <time>2026-09-01T01:18:06Z</time>
  <course>0.0</course>
  <speed>0.0</speed>
  <fix>3d</fix>
</trkpt>
<trkpt lat="33.810313" lon="-118.393867">
  <ele>0.0</ele>
  <time>2026-09-01T01:18:06Z</time>
  <course>188.53</course>
  <speed>0.0</speed>
  <fix>3d</fix>
</trkpt>
<trkpt lat="33.810313" lon="-118.393867">
  <ele>-0.12</ele>
  <time>2026-09-01T01:18:06Z</time>
  <course>0.0</course>
  <speed>0.0</speed>
  <fix>3d</fix>
</trkpt>
<trkpt lat="33.810313" lon="-118.393867">
  <ele>0.0</ele>
  <time>2026-09-01T01:18:06Z</time>
  <course>188.54</course>
  <speed>0.0</speed>
  <fix>3d</fix>
</trkpt>
<trkpt lat="33.810313" lon="-118.393867">
  <ele>-0.12</ele>
  <time>2026-09-01T01:18:06Z</time>
  <course>0.0</course>
  <speed>0.0</speed>
  <fix>3d</fix>
</trkpt>
<trkpt lat="33.810313" lon="-118.393867">
  <ele>0.0</ele>
  <time>2026-09-01T01:18:06Z</time>
  <course>188.54</course>
  <speed>0.0</speed>
  <fix>3d</fix>
</trkpt>
<trkpt lat="33.810313" lon="-118.393867">
  <ele>-0.12</ele>
  <time>2026-09-01T01:18:06Z</time>
  <course>0.0</course>
  <speed>0.0</speed>
  <fix>3d</fix>
</trkpt>
<trkpt lat="33.810313" lon="-118.393867">
  <ele>0.0</ele>
  <time>2026-09-01T01:18:06Z</time>
  <course>188.54</course>
  <speed>0.0</speed>
  <fix>3d</fix>
</trkpt>
<trkpt lat="33.810313" lon="-118.393867">
  <ele>-0.12</ele>
  <time>2026-09-01T01:18:06Z</time>
  <course>0.0</course>
  <speed>0.0</speed>
  <fix>3d</fix>
</trkpt>
<trkpt lat="33.810313" lon="-118.393867">
  <ele>0.0</ele>
  <time>2026-09-01T01:18:06Z</time>
  <course>188.55</course>
  <speed>0.0</speed>
  <fix>3d</fix>
</trkpt>
<trkpt lat="33.810313" lon="-118.393867">
  <ele>-0.12</ele>
  <time>2026-09-01T01:18:06Z</time>
  <course>0.0</course>
  <speed>0.0</speed>
  <fix>3d</fix>
</trkpt>
<trkpt lat="33.810313" lon="-118.393867">
  <ele>0.0</ele>
  <time>2026-09-01T01:18:06Z</time>
  <course>188.55</course>
  <speed>0.0</speed>
  <fix>3d</fix>
</trkpt>
<trkpt lat="33.810313" lon="-118.393867">
  <ele>-0.12</ele>
  <time>2026-09-01T01:18:06Z</time>
  <course>0.0</course>
  <speed>0.0</speed>
  <fix>3d</fix>
</trkpt>
<trkpt lat="33.810313" lon="-118.393867">
  <ele>0.0</ele>
  <time>2026-09-01T01:18:06Z</time>
  <course>188.55</course>
  <speed>0.0</speed>
  <fix>3d</fix>
</trkpt>
<trkpt lat="33.810313" lon="-118.393867">
  <ele>-0.12</ele>
  <time>2026-09-01T01:18:06Z</time>
  <course>0.0</course>
  <speed>0.0</speed>
  <fix>3d</fix>
</trkpt>
<trkpt lat="33.810313" lon="-118.393867">
  <ele>-0.129</ele>
  <time>2026-09-01T01:18:06Z</time>
  <course>188.55</course>
  <speed>0.0</speed>
  <fix>3d</fix>
</trkpt>
<trkpt lat="33.810313" lon="-118.393867">
  <ele>-0.13</ele>
  <time>2026-09-01T01:18:06Z</time>
  <course>0.0</course>
  <speed>0.0</speed>
  <fix>3d</fix>
</trkpt>
<trkpt lat="33.810313" lon="-118.393867">
  <ele>-0.13</ele>
  <time>2026-09-01T01:18:06Z</time>
  <course>188.55</course>
  <speed>0.0</speed>
  <fix>3d</fix>
</trkpt>
<trkpt lat="33.810313" lon="-118.393867">
  <ele>-0.13</ele>
  <time>2026-09-01T01:18:06Z</time>
  <course>0.0</course>
  <speed>0.0</speed>
  <fix>3d</fix>
</trkpt>
<trkpt lat="33.810313" lon="-118.393867">
  <ele>-0.13</ele>
  <time>2026-09-01T01:18:06Z</time>
  <course>188.56</course>
  <speed>0.0</speed>
  <fix>3d</fix>
</trkpt>
<trkpt lat="33.810313" lon="-118.393867">
  <ele>-0.13</ele>
  <time>2026-09-01T01:18:06Z</time>
  <course>0.0</course>
  <speed>0.0</speed>
  <fix>3d</fix>
</trkpt>
<trkpt lat="33.810313" lon="-118.393867">
  <ele>-0.128</ele>
  <time>2026-09-01T01:18:07Z</time>
  <course>188.56</course>
  <speed>0.0</speed>
  <fix>3d</fix>
</trkpt>
<trkpt lat="33.810313" lon="-118.393867">
  <ele>-0.13</ele>
  <time>2026-09-01T01:18:07Z</time>
  <course>0.0</course>
  <speed>0.0</speed>
  <fix>3d</fix>
</trkpt>
<trkpt lat="33.810313" lon="-118.393867">
  <ele>-0.125</ele>
  <time>2026-09-01T01:18:07Z</time>
  <course>188.56</course>
  <speed>0.0</speed>
  <fix>3d</fix>
</trkpt>
<trkpt lat="33.810313" lon="-118.393867">
  <ele>-0.12</ele>
  <time>2026-09-01T01:18:07Z</time>
  <course>0.0</course>
  <speed>0.0</speed>
  <fix>3d</fix>
</trkpt>
<trkpt lat="33.810313" lon="-118.393867">
  <ele>-0.121</ele>
  <time>2026-09-01T01:18:07Z</time>
  <course>188.56</course>
  <speed>0.0</speed>
  <fix>3d</fix>
</trkpt>
<trkpt lat="33.810313" lon="-118.393867">
  <ele>-0.12</ele>
  <time>2026-09-01T01:18:07Z</time>
  <course>0.0</course>
  <speed>0.0</speed>
  <fix>3d</fix>
</trkpt>
<trkpt lat="33.810313" lon="-118.393867">
  <ele>-0.118</ele>
  <time>2026-09-01T01:18:07Z</time>
  <course>188.56</course>
  <speed>0.0</speed>
  <fix>3d</fix>
</trkpt>
<trkpt lat="33.810313" lon="-118.393867">
  <ele>-0.12</ele>
  <time>2026-09-01T01:18:07Z</time>
  <course>0.0</course>
  <speed>0.0</speed>
  <fix>3d</fix>
</trkpt>
<trkpt lat="33.810313" lon="-118.393867">
  <ele>-0.117</ele>
  <time>2026-09-01T01:18:07Z</time>
  <course>188.55</course>
  <speed>0.0</speed>
  <fix>3d</fix>
</trkpt>
<trkpt lat="33.810313" lon="-118.393867">
  <ele>-0.12</ele>
  <time>2026-09-01T01:18:07Z</time>
  <course>0.0</course>
  <speed>0.0</speed>
  <fix>3d</fix>
</trkpt>
<trkpt lat="33.810313" lon="-118.393867">
  <ele>-0.119</ele>
  <time>2026-09-01T01:18:07Z</time>
  <course>188.55</course>
  <speed>0.0</speed>
  <fix>3d</fix>
</trkpt>
<trkpt lat="33.810313" lon="-118.393867">
  <ele>-0.12</ele>
  <time>2026-09-01T01:18:07Z</time>
  <course>0.0</course>
  <speed>0.0</speed>
  <fix>3d</fix>
</trkpt>
<trkpt lat="33.810313" lon="-118.393867">
  <ele>-0.122</ele>
  <time>2026-09-01T01:18:07Z</time>
  <course>188.55</course>
  <speed>0.0</speed>
  <fix>3d</fix>
</trkpt>
<trkpt lat="33.810313" lon="-118.393867">
  <ele>-0.12</ele>
  <time>2026-09-01T01:18:07Z</time>
  <course>0.0</course>
  <speed>0.0</speed>
  <fix>3d</fix>
</trkpt>
<trkpt lat="33.810313" lon="-118.393867">
  <ele>-0.125</ele>
  <time>2026-09-01T01:18:07Z</time>
  <course>188.55</course>
  <speed>0.0</speed>
  <fix>3d</fix>
</trkpt>
<trkpt lat="33.810313" lon="-118.393867">
  <ele>-0.12</ele>
  <time>2026-09-01T01:18:07Z</time>
  <course>0.0</course>
  <speed>0.0</speed>
  <fix>3d</fix>
</trkpt>
<trkpt lat="33.810313" lon="-118.393867">
  <ele>-0.127</ele>
  <time>2026-09-01T01:18:07Z</time>
  <course>188.55</course>
  <speed>0.0</speed>
  <fix>3d</fix>
</trkpt>
<trkpt lat="33.810313" lon="-118.393867">
  <ele>-0.12</ele>
  <time>2026-09-01T01:18:07Z</time>
  <course>0.0</course>
  <speed>0.0</speed>
  <fix>3d</fix>
</trkpt>
<trkpt lat="33.810313" lon="-118.393867">
  <ele>-0.127</ele>
  <time>2026-09-01T01:18:07Z</time>
  <course>188.55</course>
  <speed>0.0</speed>
  <fix>3d</fix>
</trkpt>
<trkpt lat="33.810313" lon="-118.393867">
  <ele>-0.12</ele>
  <time>2026-09-01T01:18:07Z</time>
  <course>0.0</course>
  <speed>0.0</speed>
  <fix>3d</fix>
</trkpt>
<trkpt lat="33.810313" lon="-118.393867">
  <ele>-0.128</ele>
  <time>2026-09-01T01:18:07Z</time>
  <course>188.55</course>
  <speed>0.0</speed>
  <fix>3d</fix>
</trkpt>
<trkpt lat="33.810313" lon="-118.393867">
  <ele>-0.12</ele>
  <time>2026-09-01T01:18:07Z</time>
  <course>0.0</course>
  <speed>0.0</speed>
  <fix>3d</fix>
</trkpt>
<trkpt lat="33.810313" lon="-118.393867">
  <ele>-0.128</ele>
  <time>2026-09-01T01:18:07Z</time>
  <course>188.55</course>
  <speed>0.0</speed>
  <fix>3d</fix>
</trkpt>
<trkpt lat="33.810313" lon="-118.393867">
  <ele>-0.12</ele>
  <time>2026-09-01T01:18:07Z</time>
  <course>0.0</course>
  <speed>0.0</speed>
  <fix>3d</fix>
</trkpt>
<trkpt lat="33.810313" lon="-118.393867">
  <ele>-0.127</ele>
  <time>2026-09-01T01:18:07Z</time>
  <course>188.55</course>
  <speed>0.0</speed>
  <fix>3d</fix>
</trkpt>
<trkpt lat="33.810313" lon="-118.393867">
  <ele>-0.12</ele>
  <time>2026-09-01T01:18:07Z</time>
  <course>0.0</course>
  <speed>0.0</speed>
  <fix>3d</fix>
</trkpt>
<trkpt lat="33.810313" lon="-118.393867">
  <ele>-0.127</ele>
  <time>2026-09-01T01:18:07Z</time>
  <course>188.54</course>
  <speed>0.0</speed>
  <fix>3d</fix>
</trkpt>
<trkpt lat="33.810313" lon="-118.393867">
  <ele>-0.13</ele>
  <time>2026-09-01T01:18:07Z</time>
  <course>0.0</course>
  <speed>0.0</speed>
  <fix>3d</fix>
</trkpt>
<trkpt lat="33.810313" lon="-118.393867">
  <ele>-0.126</ele>
  <time>2026-09-01T01:18:07Z</time>
  <course>188.54</course>
  <speed>0.0</speed>
  <fix>3d</fix>
</trkpt>
<trkpt lat="33.810313" lon="-118.393867">
  <ele>-0.13</ele>
  <time>2026-09-01T01:18:07Z</time>
  <course>0.0</course>
  <speed>0.0</speed>
  <fix>3d</fix>
</trkpt>
<trkpt lat="33.810313" lon="-118.393867">
  <ele>-0.125</ele>
  <time>2026-09-01T01:18:07Z</time>
  <course>188.53</course>
  <speed>0.0</speed>
  <fix>3d</fix>
</trkpt>
<trkpt lat="33.810313" lon="-118.393867">
  <ele>-0.12</ele>
  <time>2026-09-01T01:18:07Z</time>
  <course>0.0</course>
  <speed>0.0</speed>
  <fix>3d</fix>
</trkpt>
<trkpt lat="33.810313" lon="-118.393867">
  <ele>-0.124</ele>
  <time>2026-09-01T01:18:07Z</time>
  <course>188.53</course>
  <speed>0.0</speed>
  <fix>3d</fix>
</trkpt>
<trkpt lat="33.810313" lon="-118.393867">
  <ele>-0.12</ele>
  <time>2026-09-01T01:18:07Z</time>
  <course>0.0</course>
  <speed>0.0</speed>
  <fix>3d</fix>
</trkpt>
<trkpt lat="33.810313" lon="-118.393867">
  <ele>-0.122</ele>
  <time>2026-09-01T01:18:07Z</time>
  <course>188.52</course>
  <speed>0.0</speed>
  <fix>3d</fix>
</trkpt>
<trkpt lat="33.810313" lon="-118.393867">
  <ele>-0.12</ele>
  <time>2026-09-01T01:18:07Z</time>
  <course>0.0</course>
  <speed>0.0</speed>
  <fix>3d</fix>
</trkpt>
<trkpt lat="33.810313" lon="-118.393867">
  <ele>-0.121</ele>
  <time>2026-09-01T01:18:07Z</time>
  <course>188.52</course>
  <speed>0.0</speed>
  <fix>3d</fix>
</trkpt>
<trkpt lat="33.810313" lon="-118.393867">
  <ele>-0.12</ele>
  <time>2026-09-01T01:18:07Z</time>
  <course>0.0</course>
  <speed>0.0</speed>
  <fix>3d</fix>
</trkpt>
<trkpt lat="33.810313" lon="-118.393867">
  <ele>-0.121</ele>
  <time>2026-09-01T01:18:07Z</time>
  <course>188.51</course>
  <speed>0.0</speed>
  <fix>3d</fix>
</trkpt>
<trkpt lat="33.810313" lon="-118.393867">
  <ele>-0.12</ele>
  <time>2026-09-01T01:18:07Z</time>
  <course>0.0</course>
  <speed>0.0</speed>
  <fix>3d</fix>
</trkpt>
<trkpt lat="33.810313" lon="-118.393867">
  <ele>-0.122</ele>
  <time>2026-09-01T01:18:07Z</time>
  <course>188.51</course>
  <speed>0.0</speed>
  <fix>3d</fix>
</trkpt>
<trkpt lat="33.810313" lon="-118.393867">
  <ele>-0.12</ele>
  <time>2026-09-01T01:18:07Z</time>
  <course>0.0</course>
  <speed>0.0</speed>
  <fix>3d</fix>
</trkpt>
<trkpt lat="33.810313" lon="-118.393867">
  <ele>-0.123</ele>
  <time>2026-09-01T01:18:07Z</time>
  <course>188.5</course>
  <speed>0.0</speed>
  <fix>3d</fix>
</trkpt>
<trkpt lat="33.810313" lon="-118.393867">
  <ele>-0.12</ele>
  <time>2026-09-01T01:18:07Z</time>
  <course>0.0</course>
  <speed>0.0</speed>
  <fix>3d</fix>
</trkpt>
<trkpt lat="33.810313" lon="-118.393867">
  <ele>-0.124</ele>
  <time>2026-09-01T01:18:07Z</time>
  <course>188.5</course>
  <speed>0.0</speed>
  <fix>3d</fix>
</trkpt>
<trkpt lat="33.810313" lon="-118.393867">
  <ele>-0.12</ele>
  <time>2026-09-01T01:18:07Z</time>
  <course>0.0</course>
  <speed>0.0</speed>
  <fix>3d</fix>
</trkpt>
<trkpt lat="33.810313" lon="-118.393867">
  <ele>-0.124</ele>
  <time>2026-09-01T01:18:07Z</time>
  <course>188.49</course>
  <speed>0.0</speed>
  <fix>3d</fix>
</trkpt>
<trkpt lat="33.810313" lon="-118.393867">
  <ele>-0.12</ele>
  <time>2026-09-01T01:18:07Z</time>
  <course>0.0</course>
  <speed>0.0</speed>
  <fix>3d</fix>
</trkpt>
<trkpt lat="33.810313" lon="-118.393867">
  <ele>-0.124</ele>
  <time>2026-09-01T01:18:07Z</time>
  <course>188.48</course>
  <speed>0.01</speed>
  <fix>3d</fix>
</trkpt>
<trkpt lat="33.810313" lon="-118.393867">
  <ele>-0.12</ele>
  <time>2026-09-01T01:18:07Z</time>
  <course>0.0</course>
  <speed>0.0</speed>
  <fix>3d</fix>
</trkpt>
<trkpt lat="33.810313" lon="-118.393867">
  <ele>-0.123</ele>
  <time>2026-09-01T01:18:07Z</time>
  <course>188.48</course>
  <speed>0.01</speed>
  <fix>3d</fix>
</trkpt>
<trkpt lat="33.810313" lon="-118.393867">
  <ele>-0.12</ele>
  <time>2026-09-01T01:18:07Z</time>
  <course>0.0</course>
  <speed>0.0</speed>
  <fix>3d</fix>
</trkpt>
<trkpt lat="33.810313" lon="-118.393867">
  <ele>-0.122</ele>
  <time>2026-09-01T01:18:07Z</time>
  <course>188.47</course>
  <speed>0.01</speed>
  <fix>3d</fix>
</trkpt>
<trkpt lat="33.810313" lon="-118.393867">
  <ele>-0.12</ele>
  <time>2026-09-01T01:18:07Z</time>
  <course>0.0</course>
  <speed>0.0</speed>
  <fix>3d</fix>
</trkpt>
<trkpt lat="33.810313" lon="-118.393867">
  <ele>-0.121</ele>
  <time>2026-09-01T01:18:07Z</time>
  <course>188.46</course>
  <speed>0.01</speed>
  <fix>3d</fix>
</trkpt>
<trkpt lat="33.810313" lon="-118.393867">
  <ele>-0.12</ele>
  <time>2026-09-01T01:18:07Z</time>
  <course>0.0</course>
  <speed>0.0</speed>
  <fix>3d</fix>
</trkpt>
<trkpt lat="33.810313" lon="-118.393867">
  <ele>-0.12</ele>
  <time>2026-09-01T01:18:07Z</time>
  <course>188.46</course>
  <speed>0.01</speed>
  <fix>3d</fix>
</trkpt>
<trkpt lat="33.810313" lon="-118.393867">
  <ele>-0.12</ele>
  <time>2026-09-01T01:18:07Z</time>
  <course>0.0</course>
  <speed>0.0</speed>
  <fix>3d</fix>
</trkpt>
<trkpt lat="33.810313" lon="-118.393867">
  <ele>-0.118</ele>
  <time>2026-09-01T01:18:07Z</time>
  <course>188.45</course>
  <speed>0.01</speed>
  <fix>3d</fix>
</trkpt>
<trkpt lat="33.810313" lon="-118.393867">
  <ele>-0.12</ele>
  <time>2026-09-01T01:18:07Z</time>
  <course>0.0</course>
  <speed>0.0</speed>
  <fix>3d</fix>
</trkpt>
<trkpt lat="33.810313" lon="-118.393867">
  <ele>-0.117</ele>
  <time>2026-09-01T01:18:07Z</time>
  <course>188.44</course>
  <speed>0.01</speed>
  <fix>3d</fix>
</trkpt>
<trkpt lat="33.810313" lon="-118.393867">
  <ele>-0.12</ele>
  <time>2026-09-01T01:18:07Z</time>
  <course>0.0</course>
  <speed>0.0</speed>
  <fix>3d</fix>
</trkpt>
<trkpt lat="33.810313" lon="-118.393867">
  <ele>-0.118</ele>
  <time>2026-09-01T01:18:07Z</time>
  <course>188.44</course>
  <speed>0.01</speed>
  <fix>3d</fix>
</trkpt>
<trkpt lat="33.810313" lon="-118.393867">
  <ele>-0.12</ele>
  <time>2026-09-01T01:18:07Z</time>
  <course>0.0</course>
  <speed>0.0</speed>
  <fix>3d</fix>
</trkpt>
<trkpt lat="33.810313" lon="-118.393867">
  <ele>-0.12</ele>
  <time>2026-09-01T01:18:07Z</time>
  <course>188.43</course>
  <speed>0.01</speed>
  <fix>3d</fix>
</trkpt>
<trkpt lat="33.810313" lon="-118.393867">
  <ele>-0.12</ele>
  <time>2026-09-01T01:18:07Z</time>
  <course>0.0</course>
  <speed>0.0</speed>
  <fix>3d</fix>
</trkpt>
<trkpt lat="33.810313" lon="-118.393867">
  <ele>-0.123</ele>
  <time>2026-09-01T01:18:07Z</time>
  <course>188.42</course>
  <speed>0.01</speed>
  <fix>3d</fix>
</trkpt>
<trkpt lat="33.810313" lon="-118.393867">
  <ele>-0.12</ele>
  <time>2026-09-01T01:18:07Z</time>
  <course>0.0</course>
  <speed>0.0</speed>
  <fix>3d</fix>
</trkpt>
<trkpt lat="33.810313" lon="-118.393867">
  <ele>-0.127</ele>
  <time>2026-09-01T01:18:07Z</time>
  <course>188.42</course>
  <speed>0.01</speed>
  <fix>3d</fix>
</trkpt>
<trkpt lat="33.810313" lon="-118.393867">
  <ele>-0.12</ele>
  <time>2026-09-01T01:18:07Z</time>
  <course>0.0</course>
  <speed>0.0</speed>
  <fix>3d</fix>
</trkpt>
<trkpt lat="33.810313" lon="-118.393867">
  <ele>-0.13</ele>
  <time>2026-09-01T01:18:07Z</time>
  <course>188.41</course>
  <speed>0.01</speed>
  <fix>3d</fix>
</trkpt>
<trkpt lat="33.810313" lon="-118.393867">
  <ele>-0.12</ele>
  <time>2026-09-01T01:18:07Z</time>
  <course>0.0</course>
  <speed>0.0</speed>
  <fix>3d</fix>
</trkpt>
<trkpt lat="33.810313" lon="-118.393867">
  <ele>-0.131</ele>
  <time>2026-09-01T01:18:07Z</time>
  <course>188.4</course>
  <speed>0.01</speed>
  <fix>3d</fix>
</trkpt>
<trkpt lat="33.810313" lon="-118.393867">
  <ele>-0.12</ele>
  <time>2026-09-01T01:18:07Z</time>
  <course>0.0</course>
  <speed>0.0</speed>
  <fix>3d</fix>
</trkpt>
<trkpt lat="33.810313" lon="-118.393867">
  <ele>-0.13</ele>
  <time>2026-09-01T01:18:07Z</time>
  <course>188.4</course>
  <speed>0.01414213562373095</speed>
  <fix>3d</fix>
</trkpt>
<trkpt lat="33.810313" lon="-118.393867">
  <ele>-0.12</ele>
  <time>2026-09-01T01:18:07Z</time>
  <course>0.0</course>
  <speed>0.0</speed>
  <fix>3d</fix>
</trkpt>
<trkpt lat="33.810313" lon="-118.393867">
  <ele>-0.13</ele>
  <time>2026-09-01T01:18:07Z</time>
  <course>188.39</course>
  <speed>0.01414213562373095</speed>
  <fix>3d</fix>
</trkpt>
<trkpt lat="33.810313" lon="-118.393867">
  <ele>-0.12</ele>
  <time>2026-09-01T01:18:07Z</time>
  <course>0.0</course>
  <speed>0.0</speed>
  <fix>3d</fix>
</trkpt>
<trkpt lat="33.810313" lon="-118.393867">
  <ele>-0.129</ele>
  <time>2026-09-01T01:18:07Z</time>
  <course>188.38</course>
  <speed>0.01414213562373095</speed>
  <fix>3d</fix>
</trkpt>
<trkpt lat="33.810313" lon="-118.393867">
  <ele>-0.12</ele>
  <time>2026-09-01T01:18:07Z</time>
  <course>0.0</course>
  <speed>0.0</speed>
  <fix>3d</fix>
</trkpt>
<trkpt lat="33.810313" lon="-118.393867">
  <ele>-0.127</ele>
  <time>2026-09-01T01:18:07Z</time>
  <course>188.37</course>
  <speed>0.01414213562373095</speed>
  <fix>3d</fix>
</trkpt>
<trkpt lat="33.810313" lon="-118.393867">
  <ele>-0.12</ele>
  <time>2026-09-01T01:18:07Z</time>
  <course>0.0</course>
  <speed>0.0</speed>
  <fix>3d</fix>
</trkpt>
<trkpt lat="33.810313" lon="-118.393867">
  <ele>-0.123</ele>
  <time>2026-09-01T01:18:07Z</time>
  <course>188.37</course>
  <speed>0.01414213562373095</speed>
  <fix>3d</fix>
</trkpt>
<trkpt lat="33.810313" lon="-118.393867">
  <ele>-0.12</ele>
  <time>2026-09-01T01:18:07Z</time>
  <course>0.0</course>
  <speed>0.0</speed>
  <fix>3d</fix>
</trkpt>
<trkpt lat="33.810313" lon="-118.393867">
  <ele>-0.119</ele>
  <time>2026-09-01T01:18:07Z</time>
  <course>188.36</course>
  <speed>0.01414213562373095</speed>
  <fix>3d</fix>
</trkpt>
<trkpt lat="33.810313" lon="-118.393867">
  <ele>-0.12</ele>
  <time>2026-09-01T01:18:07Z</time>
  <course>0.0</course>
  <speed>0.0</speed>
  <fix>3d</fix>
</trkpt>
<trkpt lat="33.810313" lon="-118.393867">
  <ele>-0.115</ele>
  <time>2026-09-01T01:18:07Z</time>
  <course>188.35</course>
  <speed>0.01414213562373095</speed>
  <fix>3d</fix>
</trkpt>
<trkpt lat="33.810313" lon="-118.393867">
  <ele>-0.12</ele>
  <time>2026-09-01T01:18:07Z</time>
  <course>0.0</course>
  <speed>0.0</speed>
  <fix>3d</fix>
</trkpt>
<trkpt lat="33.810313" lon="-118.393867">
  <ele>-0.113</ele>
  <time>2026-09-01T01:18:07Z</time>
  <course>188.34</course>
  <speed>0.01414213562373095</speed>
  <fix>3d</fix>
</trkpt>
<trkpt lat="33.810313" lon="-118.393867">
  <ele>-0.12</ele>
  <time>2026-09-01T01:18:07Z</time>
  <course>0.0</course>
  <speed>0.0</speed>
  <fix>3d</fix>
</trkpt>
<trkpt lat="33.810313" lon="-118.393867">
  <ele>-0.113</ele>
  <time>2026-09-01T01:18:07Z</time>
  <course>188.33</course>
  <speed>0.01414213562373095</speed>
  <fix>3d</fix>
</trkpt>
<trkpt lat="33.810313" lon="-118.393867">
  <ele>-0.12</ele>
  <time>2026-09-01T01:18:07Z</time>
  <course>0.0</course>
  <speed>0.0</speed>
  <fix>3d</fix>
</trkpt>
<trkpt lat="33.810313" lon="-118.393867">
  <ele>-0.114</ele>
  <time>2026-09-01T01:18:07Z</time>
  <course>188.33</course>
  <speed>0.01414213562373095</speed>
  <fix>3d</fix>
</trkpt>
<trkpt lat="33.810313" lon="-118.393867">
  <ele>-0.12</ele>
  <time>2026-09-01T01:18:07Z</time>
  <course>0.0</course>
  <speed>0.0</speed>
  <fix>3d</fix>
</trkpt>
<trkpt lat="33.810313" lon="-118.393867">
  <ele>-0.116</ele>
  <time>2026-09-01T01:18:07Z</time>
  <course>188.32</course>
  <speed>0.01414213562373095</speed>
  <fix>3d</fix>
</trkpt>
<trkpt lat="33.810313" lon="-118.393867">
  <ele>-0.12</ele>
  <time>2026-09-01T01:18:07Z</time>
  <course>0.0</course>
  <speed>0.0</speed>
  <fix>3d</fix>
</trkpt>
<trkpt lat="33.810313" lon="-118.393867">
  <ele>-0.116</ele>
  <time>2026-09-01T01:18:07Z</time>
  <course>188.31</course>
  <speed>0.01414213562373095</speed>
  <fix>3d</fix>
</trkpt>
<trkpt lat="33.810313" lon="-118.393867">
  <ele>-0.12</ele>
  <time>2026-09-01T01:18:07Z</time>
  <course>0.0</course>
  <speed>0.0</speed>
  <fix>3d</fix>
</trkpt>
<trkpt lat="33.810313" lon="-118.393867">
  <ele>-0.116</ele>
  <time>2026-09-01T01:18:07Z</time>
  <course>188.3</course>
  <speed>0.01414213562373095</speed>
  <fix>3d</fix>
</trkpt>
<trkpt lat="33.810313" lon="-118.393867">
  <ele>-0.12</ele>
  <time>2026-09-01T01:18:07Z</time>
  <course>0.0</course>
  <speed>0.0</speed>
  <fix>3d</fix>
</trkpt>
<trkpt lat="33.810313" lon="-118.393867">
  <ele>-0.117</ele>
  <time>2026-09-01T01:18:07Z</time>
  <course>188.3</course>
  <speed>0.01414213562373095</speed>
  <fix>3d</fix>
</trkpt>
<trkpt lat="33.810313" lon="-118.393867">
  <ele>-0.12</ele>
  <time>2026-09-01T01:18:07Z</time>
  <course>0.0</course>
  <speed>0.0</speed>
  <fix>3d</fix>
</trkpt>
<trkpt lat="33.810313" lon="-118.393867">
  <ele>-0.117</ele>
  <time>2026-09-01T01:18:07Z</time>
  <course>188.29</course>
  <speed>0.01414213562373095</speed>
  <fix>3d</fix>
</trkpt>
<trkpt lat="33.810313" lon="-118.393867">
  <ele>-0.12</ele>
  <time>2026-09-01T01:18:07Z</time>
  <course>0.0</course>
  <speed>0.0</speed>
  <fix>3d</fix>
</trkpt>
<trkpt lat="33.810313" lon="-118.393867">
  <ele>-0.117</ele>
  <time>2026-09-01T01:18:07Z</time>
  <course>188.28</course>
  <speed>0.01414213562373095</speed>
  <fix>3d</fix>
</trkpt>
<trkpt lat="33.810313" lon="-118.393867">
  <ele>-0.12</ele>
  <time>2026-09-01T01:18:07Z</time>
  <course>0.0</course>
  <speed>0.0</speed>
  <fix>3d</fix>
</trkpt>
<trkpt lat="33.810313" lon="-118.393867">
  <ele>-0.116</ele>
  <time>2026-09-01T01:18:07Z</time>
  <course>188.27</course>
  <speed>0.01414213562373095</speed>
  <fix>3d</fix>
</trkpt>
<trkpt lat="33.810313" lon="-118.393867">
  <ele>-0.12</ele>
  <time>2026-09-01T01:18:07Z</time>
  <course>0.0</course>
  <speed>0.0</speed>
  <fix>3d</fix>
</trkpt>
<trkpt lat="33.810313" lon="-118.393867">
  <ele>-0.114</ele>
  <time>2026-09-01T01:18:07Z</time>
  <course>188.26</course>
  <speed>0.01414213562373095</speed>
  <fix>3d</fix>
</trkpt>
<trkpt lat="33.810313" lon="-118.393867">
  <ele>-0.12</ele>
  <time>2026-09-01T01:18:07Z</time>
  <course>0.0</course>
  <speed>0.0</speed>
  <fix>3d</fix>
</trkpt>
<trkpt lat="33.810313" lon="-118.393867">
  <ele>-0.111</ele>
  <time>2026-09-01T01:18:07Z</time>
  <course>188.25</course>
  <speed>0.01414213562373095</speed>
  <fix>3d</fix>
</trkpt>
<trkpt lat="33.810313" lon="-118.393867">
  <ele>-0.12</ele>
  <time>2026-09-01T01:18:07Z</time>
  <course>0.0</course>
  <speed>0.0</speed>
  <fix>3d</fix>
</trkpt>
<trkpt lat="33.810313" lon="-118.393867">
  <ele>-0.109</ele>
  <time>2026-09-01T01:18:07Z</time>
  <course>188.25</course>
  <speed>0.01414213562373095</speed>
  <fix>3d</fix>
</trkpt>
<trkpt lat="33.810313" lon="-118.393867">
  <ele>-0.12</ele>
  <time>2026-09-01T01:18:07Z</time>
  <course>0.0</course>
  <speed>0.0</speed>
  <fix>3d</fix>
</trkpt>
<trkpt lat="33.810313" lon="-118.393867">
  <ele>-0.108</ele>
  <time>2026-09-01T01:18:07Z</time>
  <course>188.24</course>
  <speed>0.01414213562373095</speed>
  <fix>3d</fix>
</trkpt>
<trkpt lat="33.810313" lon="-118.393867">
  <ele>-0.12</ele>
  <time>2026-09-01T01:18:07Z</time>
  <course>0.0</course>
  <speed>0.0</speed>
  <fix>3d</fix>
</trkpt>
<trkpt lat="33.810313" lon="-118.393867">
  <ele>-0.109</ele>
  <time>2026-09-01T01:18:07Z</time>
  <course>188.23</course>
  <speed>0.01414213562373095</speed>
  <fix>3d</fix>
</trkpt>
<trkpt lat="33.810313" lon="-118.393867">
  <ele>-0.12</ele>
  <time>2026-09-01T01:18:07Z</time>
  <course>0.0</course>
  <speed>0.0</speed>
  <fix>3d</fix>
</trkpt>
<trkpt lat="33.810313" lon="-118.393867">
  <ele>-0.11</ele>
  <time>2026-09-01T01:18:07Z</time>
  <course>188.22</course>
  <speed>0.01414213562373095</speed>
  <fix>3d</fix>
</trkpt>
<trkpt lat="33.810313" lon="-118.393867">
  <ele>-0.12</ele>
  <time>2026-09-01T01:18:07Z</time>
  <course>0.0</course>
  <speed>0.0</speed>
  <fix>3d</fix>
</trkpt>
<trkpt lat="33.810313" lon="-118.393867">
  <ele>-0.112</ele>
  <time>2026-09-01T01:18:07Z</time>
  <course>188.21</course>
  <speed>0.01414213562373095</speed>
  <fix>3d</fix>
</trkpt>
<trkpt lat="33.810313" lon="-118.393867">
  <ele>-0.12</ele>
  <time>2026-09-01T01:18:07Z</time>
  <course>0.0</course>
  <speed>0.0</speed>
  <fix>3d</fix>
</trkpt>
<trkpt lat="33.810313" lon="-118.393867">
  <ele>-0.114</ele>
  <time>2026-09-01T01:18:07Z</time>
  <course>188.21</course>
  <speed>0.01414213562373095</speed>
  <fix>3d</fix>
</trkpt>
<trkpt lat="33.810313" lon="-118.393867">
  <ele>-0.12</ele>
  <time>2026-09-01T01:18:07Z</time>
  <course>0.0</course>
  <speed>0.0</speed>
  <fix>3d</fix>
</trkpt>
<trkpt lat="33.810313" lon="-118.393867">
  <ele>-0.114</ele>
  <time>2026-09-01T01:18:07Z</time>
  <course>188.2</course>
  <speed>0.01414213562373095</speed>
  <fix>3d</fix>
</trkpt>
<trkpt lat="33.810313" lon="-118.393867">
  <ele>-0.12</ele>
  <time>2026-09-01T01:18:07Z</time>
  <course>0.0</course>
  <speed>0.0</speed>
  <fix>3d</fix>
</trkpt>
<trkpt lat="33.810313" lon="-118.393867">
  <ele>-0.115</ele>
  <time>2026-09-01T01:18:07Z</time>
  <course>188.19</course>
  <speed>0.01414213562373095</speed>
  <fix>3d</fix>
</trkpt>
<trkpt lat="33.810313" lon="-118.393867">
  <ele>-0.12</ele>
  <time>2026-09-01T01:18:07Z</time>
  <course>0.0</course>
  <speed>0.0</speed>
  <fix>3d</fix>
</trkpt>
<trkpt lat="33.810313" lon="-118.393867">
  <ele>-0.114</ele>
  <time>2026-09-01T01:18:07Z</time>
  <course>188.18</course>
  <speed>0.01414213562373095</speed>
  <fix>3d</fix>
</trkpt>
<trkpt lat="33.810313" lon="-118.393867">
  <ele>-0.12</ele>
  <time>2026-09-01T01:18:07Z</time>
  <course>0.0</course>
  <speed>0.0</speed>
  <fix>3d</fix>
</trkpt>
<trkpt lat="33.810313" lon="-118.393867">
  <ele>-0.112</ele>
  <time>2026-09-01T01:18:07Z</time>
  <course>188.17</course>
  <speed>0.01414213562373095</speed>
  <fix>3d</fix>
</trkpt>
<trkpt lat="33.810313" lon="-118.393867">
  <ele>-0.12</ele>
  <time>2026-09-01T01:18:07Z</time>
  <course>0.0</course>
  <speed>0.0</speed>
  <fix>3d</fix>
</trkpt>
<trkpt lat="33.810313" lon="-118.393867">
  <ele>-0.111</ele>
  <time>2026-09-01T01:18:07Z</time>
  <course>188.16</course>
  <speed>0.01414213562373095</speed>
  <fix>3d</fix>
</trkpt>
<trkpt lat="33.810313" lon="-118.393867">
  <ele>-0.12</ele>
  <time>2026-09-01T01:18:07Z</time>
  <course>0.0</course>
  <speed>0.0</speed>
  <fix>3d</fix>
</trkpt>
<trkpt lat="33.810313" lon="-118.393867">
  <ele>-0.109</ele>
  <time>2026-09-01T01:18:07Z</time>
  <course>188.16</course>
  <speed>0.01414213562373095</speed>
  <fix>3d</fix>
</trkpt>
<trkpt lat="33.810313" lon="-118.393867">
  <ele>-0.12</ele>
  <time>2026-09-01T01:18:07Z</time>
  <course>0.0</course>
  <speed>0.0</speed>
  <fix>3d</fix>
</trkpt>
<trkpt lat="33.810313" lon="-118.393867">
  <ele>-0.109</ele>
  <time>2026-09-01T01:18:07Z</time>
  <course>188.15</course>
  <speed>0.01414213562373095</speed>
  <fix>3d</fix>
</trkpt>
<trkpt lat="33.810313" lon="-118.393867">
  <ele>-0.12</ele>
  <time>2026-09-01T01:18:07Z</time>
  <course>0.0</course>
  <speed>0.0</speed>
  <fix>3d</fix>
</trkpt>
<trkpt lat="33.810313" lon="-118.393867">
  <ele>-0.109</ele>
  <time>2026-09-01T01:18:07Z</time>
  <course>188.14</course>
  <speed>0.01414213562373095</speed>
  <fix>3d</fix>
</trkpt>
<trkpt lat="33.810313" lon="-118.393867">
  <ele>-0.12</ele>
  <time>2026-09-01T01:18:07Z</time>
  <course>0.0</course>
  <speed>0.0</speed>
  <fix>3d</fix>
</trkpt>
<trkpt lat="33.810313" lon="-118.393867">
  <ele>-0.111</ele>
  <time>2026-09-01T01:18:07Z</time>
  <course>188.13</course>
  <speed>0.01414213562373095</speed>
  <fix>3d</fix>
</trkpt>
<trkpt lat="33.810313" lon="-118.393867">
  <ele>-0.12</ele>
  <time>2026-09-01T01:18:07Z</time>
  <course>0.0</course>
  <speed>0.0</speed>
  <fix>3d</fix>
</trkpt>
<trkpt lat="33.810313" lon="-118.393867">
  <ele>-0.114</ele>
  <time>2026-09-01T01:18:07Z</time>
  <course>188.12</course>
  <speed>0.01414213562373095</speed>
  <fix>3d</fix>
</trkpt>
<trkpt lat="33.810313" lon="-118.393867">
  <ele>-0.12</ele>
  <time>2026-09-01T01:18:07Z</time>
  <course>0.0</course>
  <speed>0.0</speed>
  <fix>3d</fix>
</trkpt>
<trkpt lat="33.810313" lon="-118.393867">
  <ele>-0.117</ele>
  <time>2026-09-01T01:18:07Z</time>
  <course>188.12</course>
  <speed>0.01414213562373095</speed>
  <fix>3d</fix>
</trkpt>
<trkpt lat="33.810313" lon="-118.393867">
  <ele>-0.12</ele>
  <time>2026-09-01T01:18:07Z</time>
  <course>0.0</course>
  <speed>0.0</speed>
  <fix>3d</fix>
</trkpt>
<trkpt lat="33.810313" lon="-118.393867">
  <ele>-0.118</ele>
  <time>2026-09-01T01:18:07Z</time>
  <course>188.11</course>
  <speed>0.01414213562373095</speed>
  <fix>3d</fix>
</trkpt>
<trkpt lat="33.810313" lon="-118.393867">
  <ele>-0.12</ele>
  <time>2026-09-01T01:18:07Z</time>
  <course>0.0</course>
  <speed>0.0</speed>
  <fix>3d</fix>
</trkpt>
<trkpt lat="33.810313" lon="-118.393867">
  <ele>-0.12</ele>
  <time>2026-09-01T01:18:07Z</time>
  <course>188.1</course>
  <speed>0.01414213562373095</speed>
  <fix>3d</fix>
</trkpt>
<trkpt lat="33.810313" lon="-118.393867">
  <ele>-0.12</ele>
  <time>2026-09-01T01:18:07Z</time>
  <course>0.0</course>
  <speed>0.0</speed>
  <fix>3d</fix>
</trkpt>
<trkpt lat="33.810313" lon="-118.393867">
  <ele>-0.12</ele>
  <time>2026-09-01T01:18:07Z</time>
  <course>188.09</course>
  <speed>0.01414213562373095</speed>
  <fix>3d</fix>
</trkpt>
<trkpt lat="33.810313" lon="-118.393867">
  <ele>-0.12</ele>
  <time>2026-09-01T01:18:07Z</time>
  <course>0.0</course>
  <speed>0.0</speed>
  <fix>3d</fix>
</trkpt>
<trkpt lat="33.810313" lon="-118.393867">
  <ele>-0.12</ele>
  <time>2026-09-01T01:18:07Z</time>
  <course>188.08</course>
  <speed>0.01414213562373095</speed>
  <fix>3d</fix>
</trkpt>
<trkpt lat="33.810313" lon="-118.393867">
  <ele>-0.12</ele>
  <time>2026-09-01T01:18:07Z</time>
  <course>0.0</course>
  <speed>0.0</speed>
  <fix>3d</fix>
</trkpt>
<trkpt lat="33.810313" lon="-118.393867">
  <ele>-0.119</ele>
  <time>2026-09-01T01:18:07Z</time>
  <course>188.07</course>
  <speed>0.022360679774997897</speed>
  <fix>3d</fix>
</trkpt>
<trkpt lat="33.810313" lon="-118.393867">
  <ele>-0.12</ele>
  <time>2026-09-01T01:18:07Z</time>
  <course>0.0</course>
  <speed>0.0</speed>
  <fix>3d</fix>
</trkpt>
<trkpt lat="33.810313" lon="-118.393867">
  <ele>-0.117</ele>
  <time>2026-09-01T01:18:07Z</time>
  <course>188.06</course>
  <speed>0.022360679774997897</speed>
  <fix>3d</fix>
</trkpt>
<trkpt lat="33.810313" lon="-118.393867">
  <ele>-0.12</ele>
  <time>2026-09-01T01:18:07Z</time>
  <course>0.0</course>
  <speed>0.0</speed>
  <fix>3d</fix>
</trkpt>
<trkpt lat="33.810313" lon="-118.393867">
  <ele>-0.114</ele>
  <time>2026-09-01T01:18:07Z</time>
  <course>188.06</course>
  <speed>0.022360679774997897</speed>
  <fix>3d</fix>
</trkpt>
<trkpt lat="33.810313" lon="-118.393867">
  <ele>-0.12</ele>
  <time>2026-09-01T01:18:07Z</time>
  <course>0.0</course>
  <speed>0.0</speed>
  <fix>3d</fix>
</trkpt>
<trkpt lat="33.810313" lon="-118.393867">
  <ele>-0.112</ele>
  <time>2026-09-01T01:18:07Z</time>
  <course>188.05</course>
  <speed>0.022360679774997897</speed>
  <fix>3d</fix>
</trkpt>
<trkpt lat="33.810313" lon="-118.393867">
  <ele>-0.12</ele>
  <time>2026-09-01T01:18:07Z</time>
  <course>0.0</course>
  <speed>0.0</speed>
  <fix>3d</fix>
</trkpt>
<trkpt lat="33.810313" lon="-118.393867">
  <ele>-0.112</ele>
  <time>2026-09-01T01:18:07Z</time>
  <course>188.04</course>
  <speed>0.022360679774997897</speed>
  <fix>3d</fix>
</trkpt>
<trkpt lat="33.810313" lon="-118.393867">
  <ele>-0.12</ele>
  <time>2026-09-01T01:18:07Z</time>
  <course>0.0</course>
  <speed>0.0</speed>
  <fix>3d</fix>
</trkpt>
<trkpt lat="33.810313" lon="-118.393867">
  <ele>-0.113</ele>
  <time>2026-09-01T01:18:07Z</time>
  <course>188.03</course>
  <speed>0.022360679774997897</speed>
  <fix>3d</fix>
</trkpt>
<trkpt lat="33.810313" lon="-118.393867">
  <ele>-0.12</ele>
  <time>2026-09-01T01:18:07Z</time>
  <course>0.0</course>
  <speed>0.0</speed>
  <fix>3d</fix>
</trkpt>
<trkpt lat="33.810313" lon="-118.393867">
  <ele>-0.115</ele>
  <time>2026-09-01T01:18:07Z</time>
  <course>188.02</course>
  <speed>0.022360679774997897</speed>
  <fix>3d</fix>
</trkpt>
<trkpt lat="33.810313" lon="-118.393867">
  <ele>-0.12</ele>
  <time>2026-09-01T01:18:07Z</time>
  <course>0.0</course>
  <speed>0.0</speed>
  <fix>3d</fix>
</trkpt>
<trkpt lat="33.810313" lon="-118.393867">
  <ele>-0.117</ele>
  <time>2026-09-01T01:18:07Z</time>
  <course>188.02</course>
  <speed>0.022360679774997897</speed>
  <fix>3d</fix>
</trkpt>
<trkpt lat="33.810313" lon="-118.393867">
  <ele>-0.12</ele>
  <time>2026-09-01T01:18:07Z</time>
  <course>0.0</course>
  <speed>0.0</speed>
  <fix>3d</fix>
</trkpt>
<trkpt lat="33.810313" lon="-118.393867">
  <ele>-0.118</ele>
  <time>2026-09-01T01:18:07Z</time>
  <course>188.01</course>
  <speed>0.022360679774997897</speed>
  <fix>3d</fix>
</trkpt>
<trkpt lat="33.810313" lon="-118.393867">
  <ele>-0.12</ele>
  <time>2026-09-01T01:18:07Z</time>
  <course>0.0</course>
  <speed>0.0</speed>
  <fix>3d</fix>
</trkpt>
<trkpt lat="33.810313" lon="-118.393867">
  <ele>-0.118</ele>
  <time>2026-09-01T01:18:07Z</time>
  <course>188.0</course>
  <speed>0.022360679774997897</speed>
  <fix>3d</fix>
</trkpt>
<trkpt lat="33.810313" lon="-118.393867">
  <ele>-0.12</ele>
  <time>2026-09-01T01:18:07Z</time>
  <course>0.0</course>
  <speed>0.0</speed>
  <fix>3d</fix>
</trkpt>
<trkpt lat="33.810313" lon="-118.393867">
  <ele>-0.117</ele>
  <time>2026-09-01T01:18:07Z</time>
  <course>187.99</course>
  <speed>0.022360679774997897</speed>
  <fix>3d</fix>
</trkpt>
<trkpt lat="33.810313" lon="-118.393867">
  <ele>-0.12</ele>
  <time>2026-09-01T01:18:07Z</time>
  <course>0.0</course>
  <speed>0.0</speed>
  <fix>3d</fix>
</trkpt>
<trkpt lat="33.810313" lon="-118.393867">
  <ele>-0.115</ele>
  <time>2026-09-01T01:18:07Z</time>
  <course>187.98</course>
  <speed>0.022360679774997897</speed>
  <fix>3d</fix>
</trkpt>
<trkpt lat="33.810313" lon="-118.393867">
  <ele>-0.12</ele>
  <time>2026-09-01T01:18:07Z</time>
  <course>0.0</course>
  <speed>0.0</speed>
  <fix>3d</fix>
</trkpt>
<trkpt lat="33.810313" lon="-118.393867">
  <ele>-0.112</ele>
  <time>2026-09-01T01:18:07Z</time>
  <course>187.98</course>
  <speed>0.022360679774997897</speed>
  <fix>3d</fix>
</trkpt>
<trkpt lat="33.810313" lon="-118.393867">
  <ele>-0.12</ele>
  <time>2026-09-01T01:18:07Z</time>
  <course>0.0</course>
  <speed>0.0</speed>
  <fix>3d</fix>
</trkpt>
<trkpt lat="33.810313" lon="-118.393867">
  <ele>-0.109</ele>
  <time>2026-09-01T01:18:07Z</time>
  <course>187.97</course>
  <speed>0.022360679774997897</speed>
  <fix>3d</fix>
</trkpt>
<trkpt lat="33.810313" lon="-118.393867">
  <ele>-0.12</ele>
  <time>2026-09-01T01:18:07Z</time>
  <course>0.0</course>
  <speed>0.0</speed>
  <fix>3d</fix>
</trkpt>
<trkpt lat="33.810313" lon="-118.393867">
  <ele>-0.107</ele>
  <time>2026-09-01T01:18:07Z</time>
  <course>187.96</course>
  <speed>0.022360679774997897</speed>
  <fix>3d</fix>
</trkpt>
<trkpt lat="33.810313" lon="-118.393867">
  <ele>-0.12</ele>
  <time>2026-09-01T01:18:07Z</time>
  <course>0.0</course>
  <speed>0.0</speed>
  <fix>3d</fix>
</trkpt>
<trkpt lat="33.810313" lon="-118.393867">
  <ele>-0.107</ele>
  <time>2026-09-01T01:18:07Z</time>
  <course>187.95</course>
  <speed>0.022360679774997897</speed>
  <fix>3d</fix>
</trkpt>
<trkpt lat="33.810313" lon="-118.393867">
  <ele>-0.12</ele>
  <time>2026-09-01T01:18:07Z</time>
  <course>0.0</course>
  <speed>0.0</speed>
  <fix>3d</fix>
</trkpt>
<trkpt lat="33.810313" lon="-118.393867">
  <ele>-0.108</ele>
  <time>2026-09-01T01:18:07Z</time>
  <course>187.94</course>
  <speed>0.022360679774997897</speed>
  <fix>3d</fix>
</trkpt>
<trkpt lat="33.810313" lon="-118.393867">
  <ele>-0.12</ele>
  <time>2026-09-01T01:18:07Z</time>
  <course>0.0</course>
  <speed>0.0</speed>
  <fix>3d</fix>
</trkpt>
<trkpt lat="33.810313" lon="-118.393867">
  <ele>-0.111</ele>
  <time>2026-09-01T01:18:07Z</time>
  <course>187.93</course>
  <speed>0.022360679774997897</speed>
  <fix>3d</fix>
</trkpt>
<trkpt lat="33.810313" lon="-118.393867">
  <ele>-0.12</ele>
  <time>2026-09-01T01:18:07Z</time>
  <course>0.0</course>
  <speed>0.0</speed>
  <fix>3d</fix>
</trkpt>
<trkpt lat="33.810313" lon="-118.393867">
  <ele>-0.114</ele>
  <time>2026-09-01T01:18:07Z</time>
  <course>187.93</course>
  <speed>0.022360679774997897</speed>
  <fix>3d</fix>
</trkpt>
<trkpt lat="33.810313" lon="-118.393867">
  <ele>-0.12</ele>
  <time>2026-09-01T01:18:07Z</time>
  <course>0.0</course>
  <speed>0.0</speed>
  <fix>3d</fix>
</trkpt>
<trkpt lat="33.810313" lon="-118.393867">
  <ele>-0.116</ele>
  <time>2026-09-01T01:18:07Z</time>
  <course>187.92</course>
  <speed>0.022360679774997897</speed>
  <fix>3d</fix>
</trkpt>
<trkpt lat="33.810313" lon="-118.393867">
  <ele>-0.12</ele>
  <time>2026-09-01T01:18:07Z</time>
  <course>0.0</course>
  <speed>0.0</speed>
  <fix>3d</fix>
</trkpt>
<trkpt lat="33.810313" lon="-118.393867">
  <ele>-0.118</ele>
  <time>2026-09-01T01:18:07Z</time>
  <course>187.91</course>
  <speed>0.022360679774997897</speed>
  <fix>3d</fix>
</trkpt>
<trkpt lat="33.810313" lon="-118.393867">
  <ele>-0.12</ele>
  <time>2026-09-01T01:18:07Z</time>
  <course>0.0</course>
  <speed>0.0</speed>
  <fix>3d</fix>
</trkpt>
<trkpt lat="33.810313" lon="-118.393867">
  <ele>-0.119</ele>
  <time>2026-09-01T01:18:07Z</time>
  <course>187.9</course>
  <speed>0.022360679774997897</speed>
  <fix>3d</fix>
</trkpt>
<trkpt lat="33.810313" lon="-118.393867">
  <ele>-0.12</ele>
  <time>2026-09-01T01:18:07Z</time>
  <course>0.0</course>
  <speed>0.0</speed>
  <fix>3d</fix>
</trkpt>
<trkpt lat="33.810313" lon="-118.393867">
  <ele>-0.119</ele>
  <time>2026-09-01T01:18:07Z</time>
  <course>187.89</course>
  <speed>0.022360679774997897</speed>
  <fix>3d</fix>
</trkpt>
<trkpt lat="33.810313" lon="-118.393867">
  <ele>-0.12</ele>
  <time>2026-09-01T01:18:07Z</time>
  <course>0.0</course>
  <speed>0.0</speed>
  <fix>3d</fix>
</trkpt>
<trkpt lat="33.810313" lon="-118.393867">
  <ele>-0.118</ele>
  <time>2026-09-01T01:18:07Z</time>
  <course>187.89</course>
  <speed>0.022360679774997897</speed>
  <fix>3d</fix>
</trkpt>
<trkpt lat="33.810313" lon="-118.393867">
  <ele>-0.12</ele>
  <time>2026-09-01T01:18:07Z</time>
  <course>0.0</course>
  <speed>0.0</speed>
  <fix>3d</fix>
</trkpt>
<trkpt lat="33.810313" lon="-118.393867">
  <ele>-0.116</ele>
  <time>2026-09-01T01:18:07Z</time>
  <course>187.88</course>
  <speed>0.022360679774997897</speed>
  <fix>3d</fix>
</trkpt>
<trkpt lat="33.810313" lon="-118.393867">
  <ele>-0.12</ele>
  <time>2026-09-01T01:18:07Z</time>
  <course>0.0</course>
  <speed>0.0</speed>
  <fix>3d</fix>
</trkpt>
<trkpt lat="33.810313" lon="-118.393867">
  <ele>-0.115</ele>
  <time>2026-09-01T01:18:07Z</time>
  <course>187.87</course>
  <speed>0.022360679774997897</speed>
  <fix>3d</fix>
</trkpt>
<trkpt lat="33.810313" lon="-118.393867">
  <ele>-0.12</ele>
  <time>2026-09-01T01:18:07Z</time>
  <course>0.0</course>
  <speed>0.0</speed>
  <fix>3d</fix>
</trkpt>
<trkpt lat="33.810313" lon="-118.393867">
  <ele>-0.114</ele>
  <time>2026-09-01T01:18:07Z</time>
  <course>187.86</course>
  <speed>0.022360679774997897</speed>
  <fix>3d</fix>
</trkpt>
<trkpt lat="33.810313" lon="-118.393867">
  <ele>-0.12</ele>
  <time>2026-09-01T01:18:07Z</time>
  <course>0.0</course>
  <speed>0.0</speed>
  <fix>3d</fix>
</trkpt>
<trkpt lat="33.810313" lon="-118.393867">
  <ele>-0.114</ele>
  <time>2026-09-01T01:18:07Z</time>
  <course>187.86</course>
  <speed>0.022360679774997897</speed>
  <fix>3d</fix>
</trkpt>
<trkpt lat="33.810313" lon="-118.393867">
  <ele>-0.12</ele>
  <time>2026-09-01T01:18:07Z</time>
  <course>0.0</course>
  <speed>0.0</speed>
  <fix>3d</fix>
</trkpt>
<trkpt lat="33.810313" lon="-118.393867">
  <ele>-0.114</ele>
  <time>2026-09-01T01:18:07Z</time>
  <course>187.85</course>
  <speed>0.022360679774997897</speed>
  <fix>3d</fix>
</trkpt>
<trkpt lat="33.810313" lon="-118.393867">
  <ele>-0.12</ele>
  <time>2026-09-01T01:18:07Z</time>
  <course>0.0</course>
  <speed>0.0</speed>
  <fix>3d</fix>
</trkpt>
<trkpt lat="33.810313" lon="-118.393867">
  <ele>-0.114</ele>
  <time>2026-09-01T01:18:07Z</time>
  <course>187.84</course>
  <speed>0.022360679774997897</speed>
  <fix>3d</fix>
</trkpt>
<trkpt lat="33.810313" lon="-118.393867">
  <ele>-0.12</ele>
  <time>2026-09-01T01:18:07Z</time>
  <course>0.0</course>
  <speed>0.0</speed>
  <fix>3d</fix>
</trkpt>
<trkpt lat="33.810313" lon="-118.393867">
  <ele>-0.115</ele>
  <time>2026-09-01T01:18:07Z</time>
  <course>187.83</course>
  <speed>0.022360679774997897</speed>
  <fix>3d</fix>
</trkpt>
<trkpt lat="33.810313" lon="-118.393867">
  <ele>-0.12</ele>
  <time>2026-09-01T01:18:07Z</time>
  <course>0.0</course>
  <speed>0.0</speed>
  <fix>3d</fix>
</trkpt>
<trkpt lat="33.810313" lon="-118.393867">
  <ele>-0.117</ele>
  <time>2026-09-01T01:18:07Z</time>
  <course>187.83</course>
  <speed>0.022360679774997897</speed>
  <fix>3d</fix>
</trkpt>
<trkpt lat="33.810313" lon="-118.393867">
  <ele>-0.12</ele>
  <time>2026-09-01T01:18:07Z</time>
  <course>0.0</course>
  <speed>0.0</speed>
  <fix>3d</fix>
</trkpt>
<trkpt lat="33.810313" lon="-118.393867">
  <ele>-0.118</ele>
  <time>2026-09-01T01:18:07Z</time>
  <course>187.82</course>
  <speed>0.022360679774997897</speed>
  <fix>3d</fix>
</trkpt>
<trkpt lat="33.810313" lon="-118.393867">
  <ele>-0.12</ele>
  <time>2026-09-01T01:18:07Z</time>
  <course>0.0</course>
  <speed>0.0</speed>
  <fix>3d</fix>
</trkpt>
<trkpt lat="33.810313" lon="-118.393867">
  <ele>-0.118</ele>
  <time>2026-09-01T01:18:07Z</time>
  <course>187.81</course>
  <speed>0.022360679774997897</speed>
  <fix>3d</fix>
</trkpt>
<trkpt lat="33.810313" lon="-118.393867">
  <ele>-0.12</ele>
  <time>2026-09-01T01:18:07Z</time>
  <course>0.0</course>
  <speed>0.0</speed>
  <fix>3d</fix>
</trkpt>
<trkpt lat="33.810313" lon="-118.393867">
  <ele>-0.117</ele>
  <time>2026-09-01T01:18:07Z</time>
  <course>187.8</course>
  <speed>0.022360679774997897</speed>
  <fix>3d</fix>
</trkpt>
<trkpt lat="33.810313" lon="-118.393867">
  <ele>-0.12</ele>
  <time>2026-09-01T01:18:07Z</time>
  <course>0.0</course>
  <speed>0.0</speed>
  <fix>3d</fix>
</trkpt>
<trkpt lat="33.810313" lon="-118.393867">
  <ele>-0.116</ele>
  <time>2026-09-01T01:18:07Z</time>
  <course>187.79</course>
  <speed>0.022360679774997897</speed>
  <fix>3d</fix>
</trkpt>
<trkpt lat="33.810313" lon="-118.393867">
  <ele>-0.12</ele>
  <time>2026-09-01T01:18:07Z</time>
  <course>0.0</course>
  <speed>0.0</speed>
  <fix>3d</fix>
</trkpt>
<trkpt lat="33.810313" lon="-118.393867">
  <ele>-0.114</ele>
  <time>2026-09-01T01:18:07Z</time>
  <course>187.79</course>
  <speed>0.022360679774997897</speed>
  <fix>3d</fix>
</trkpt>
<trkpt lat="33.810313" lon="-118.393867">
  <ele>-0.12</ele>
  <time>2026-09-01T01:18:07Z</time>
  <course>0.0</course>
  <speed>0.0</speed>
  <fix>3d</fix>
</trkpt>
<trkpt lat="33.810313" lon="-118.393867">
  <ele>-0.114</ele>
  <time>2026-09-01T01:18:07Z</time>
  <course>187.78</course>
  <speed>0.022360679774997897</speed>
  <fix>3d</fix>
</trkpt>
<trkpt lat="33.810313" lon="-118.393867">
  <ele>-0.12</ele>
  <time>2026-09-01T01:18:07Z</time>
  <course>0.0</course>
  <speed>0.0</speed>
  <fix>3d</fix>
</trkpt>
<trkpt lat="33.810313" lon="-118.393867">
  <ele>-0.114</ele>
  <time>2026-09-01T01:18:07Z</time>
  <course>187.77</course>
  <speed>0.022360679774997897</speed>
  <fix>3d</fix>
</trkpt>
<trkpt lat="33.810313" lon="-118.393867">
  <ele>-0.12</ele>
  <time>2026-09-01T01:18:07Z</time>
  <course>0.0</course>
  <speed>0.0</speed>
  <fix>3d</fix>
</trkpt>
<trkpt lat="33.810313" lon="-118.393867">
  <ele>-0.114</ele>
  <time>2026-09-01T01:18:07Z</time>
  <course>187.76</course>
  <speed>0.022360679774997897</speed>
  <fix>3d</fix>
</trkpt>
<trkpt lat="33.810313" lon="-118.393867">
  <ele>-0.12</ele>
  <time>2026-09-01T01:18:07Z</time>
  <course>0.0</course>
  <speed>0.0</speed>
  <fix>3d</fix>
</trkpt>
<trkpt lat="33.810313" lon="-118.393867">
  <ele>-0.115</ele>
  <time>2026-09-01T01:18:07Z</time>
  <course>187.76</course>
  <speed>0.022360679774997897</speed>
  <fix>3d</fix>
</trkpt>
<trkpt lat="33.810313" lon="-118.393867">
  <ele>-0.12</ele>
  <time>2026-09-01T01:18:07Z</time>
  <course>0.0</course>
  <speed>0.0</speed>
  <fix>3d</fix>
</trkpt>
<trkpt lat="33.810313" lon="-118.393867">
  <ele>-0.116</ele>
  <time>2026-09-01T01:18:07Z</time>
  <course>187.75</course>
  <speed>0.022360679774997897</speed>
  <fix>3d</fix>
</trkpt>
<trkpt lat="33.810313" lon="-118.393867">
  <ele>-0.12</ele>
  <time>2026-09-01T01:18:07Z</time>
  <course>0.0</course>
  <speed>0.0</speed>
  <fix>3d</fix>
</trkpt>
<trkpt lat="33.810313" lon="-118.393867">
  <ele>-0.117</ele>
  <time>2026-09-01T01:18:07Z</time>
  <course>187.74</course>
  <speed>0.0282842712474619</speed>
  <fix>3d</fix>
</trkpt>
<trkpt lat="33.810313" lon="-118.393867">
  <ele>-0.12</ele>
  <time>2026-09-01T01:18:07Z</time>
  <course>0.0</course>
  <speed>0.0</speed>
  <fix>3d</fix>
</trkpt>
<trkpt lat="33.810313" lon="-118.393867">
  <ele>-0.117</ele>
  <time>2026-09-01T01:18:07Z</time>
  <course>187.73</course>
  <speed>0.0282842712474619</speed>
  <fix>3d</fix>
</trkpt>
<trkpt lat="33.810313" lon="-118.393867">
  <ele>-0.12</ele>
  <time>2026-09-01T01:18:07Z</time>
  <course>0.0</course>
  <speed>0.0</speed>
  <fix>3d</fix>
</trkpt>
<trkpt lat="33.810313" lon="-118.393867">
  <ele>-0.116</ele>
  <time>2026-09-01T01:18:07Z</time>
  <course>187.73</course>
  <speed>0.0282842712474619</speed>
  <fix>3d</fix>
</trkpt>
<trkpt lat="33.810313" lon="-118.393867">
  <ele>-0.12</ele>
  <time>2026-09-01T01:18:07Z</time>
  <course>0.0</course>
  <speed>0.0</speed>
  <fix>3d</fix>
</trkpt>
<trkpt lat="33.810313" lon="-118.393867">
  <ele>-0.116</ele>
  <time>2026-09-01T01:18:07Z</time>
  <course>187.72</course>
  <speed>0.0282842712474619</speed>
  <fix>3d</fix>
</trkpt>
<trkpt lat="33.810313" lon="-118.393867">
  <ele>-0.12</ele>
  <time>2026-09-01T01:18:07Z</time>
  <course>0.0</course>
  <speed>0.0</speed>
  <fix>3d</fix>
</trkpt>
<trkpt lat="33.810313" lon="-118.393867">
  <ele>-0.114</ele>
  <time>2026-09-01T01:18:07Z</time>
  <course>187.71</course>
  <speed>0.0282842712474619</speed>
  <fix>3d</fix>
</trkpt>
<trkpt lat="33.810313" lon="-118.393867">
  <ele>-0.12</ele>
  <time>2026-09-01T01:18:07Z</time>
  <course>0.0</course>
  <speed>0.0</speed>
  <fix>3d</fix>
</trkpt>
<trkpt lat="33.810313" lon="-118.393867">
  <ele>-0.111</ele>
  <time>2026-09-01T01:18:07Z</time>
  <course>187.71</course>
  <speed>0.0282842712474619</speed>
  <fix>3d</fix>
</trkpt>
<trkpt lat="33.810313" lon="-118.393867">
  <ele>-0.12</ele>
  <time>2026-09-01T01:18:07Z</time>
  <course>0.0</course>
  <speed>0.0</speed>
  <fix>3d</fix>
</trkpt>
<trkpt lat="33.810313" lon="-118.393867">
  <ele>-0.109</ele>
  <time>2026-09-01T01:18:07Z</time>
  <course>187.7</course>
  <speed>0.0282842712474619</speed>
  <fix>3d</fix>
</trkpt>
<trkpt lat="33.810313" lon="-118.393867">
  <ele>-0.12</ele>
  <time>2026-09-01T01:18:07Z</time>
  <course>0.0</course>
  <speed>0.0</speed>
  <fix>3d</fix>
</trkpt>
<trkpt lat="33.810313" lon="-118.393867">
  <ele>-0.108</ele>
  <time>2026-09-01T01:18:07Z</time>
  <course>187.69</course>
  <speed>0.0282842712474619</speed>
  <fix>3d</fix>
</trkpt>
<trkpt lat="33.810313" lon="-118.393867">
  <ele>-0.12</ele>
  <time>2026-09-01T01:18:07Z</time>
  <course>0.0</course>
  <speed>0.0</speed>
  <fix>3d</fix>
</trkpt>
<trkpt lat="33.810313" lon="-118.393867">
  <ele>-0.109</ele>
  <time>2026-09-01T01:18:07Z</time>
  <course>187.68</course>
  <speed>0.0282842712474619</speed>
  <fix>3d</fix>
</trkpt>
<trkpt lat="33.810313" lon="-118.393867">
  <ele>-0.12</ele>
  <time>2026-09-01T01:18:07Z</time>
  <course>0.0</course>
  <speed>0.0</speed>
  <fix>3d</fix>
</trkpt>
<trkpt lat="33.810313" lon="-118.393867">
  <ele>-0.111</ele>
  <time>2026-09-01T01:18:07Z</time>
  <course>187.68</course>
  <speed>0.0282842712474619</speed>
  <fix>3d</fix>
</trkpt>
<trkpt lat="33.810313" lon="-118.393867">
  <ele>-0.12</ele>
  <time>2026-09-01T01:18:07Z</time>
  <course>0.0</course>
  <speed>0.0</speed>
  <fix>3d</fix>
</trkpt>
<trkpt lat="33.810313" lon="-118.393867">
  <ele>-0.113</ele>
  <time>2026-09-01T01:18:07Z</time>
  <course>187.67</course>
  <speed>0.0282842712474619</speed>
  <fix>3d</fix>
</trkpt>
<trkpt lat="33.810313" lon="-118.393867">
  <ele>-0.12</ele>
  <time>2026-09-01T01:18:07Z</time>
  <course>0.0</course>
  <speed>0.0</speed>
  <fix>3d</fix>
</trkpt>
<trkpt lat="33.810313" lon="-118.393867">
  <ele>-0.114</ele>
  <time>2026-09-01T01:18:07Z</time>
  <course>187.66</course>
  <speed>0.0282842712474619</speed>
  <fix>3d</fix>
</trkpt>
<trkpt lat="33.810313" lon="-118.393867">
  <ele>-0.12</ele>
  <time>2026-09-01T01:18:07Z</time>
  <course>0.0</course>
  <speed>0.0</speed>
  <fix>3d</fix>
</trkpt>
<trkpt lat="33.810313" lon="-118.393867">
  <ele>-0.113</ele>
  <time>2026-09-01T01:18:07Z</time>
  <course>187.66</course>
  <speed>0.0282842712474619</speed>
  <fix>3d</fix>
</trkpt>
<trkpt lat="33.810313" lon="-118.393867">
  <ele>-0.12</ele>
  <time>2026-09-01T01:18:07Z</time>
  <course>0.0</course>
  <speed>0.0</speed>
  <fix>3d</fix>
</trkpt>
<trkpt lat="33.810313" lon="-118.393867">
  <ele>-0.112</ele>
  <time>2026-09-01T01:18:07Z</time>
  <course>187.65</course>
  <speed>0.0282842712474619</speed>
  <fix>3d</fix>
</trkpt>
<trkpt lat="33.810313" lon="-118.393867">
  <ele>-0.12</ele>
  <time>2026-09-01T01:18:07Z</time>
  <course>0.0</course>
  <speed>0.0</speed>
  <fix>3d</fix>
</trkpt>
<trkpt lat="33.810313" lon="-118.393867">
  <ele>-0.11</ele>
  <time>2026-09-01T01:18:07Z</time>
  <course>187.64</course>
  <speed>0.0282842712474619</speed>
  <fix>3d</fix>
</trkpt>
<trkpt lat="33.810313" lon="-118.393867">
  <ele>-0.12</ele>
  <time>2026-09-01T01:18:07Z</time>
  <course>0.0</course>
  <speed>0.0</speed>
  <fix>3d</fix>
</trkpt>
<trkpt lat="33.810313" lon="-118.393867">
  <ele>-0.108</ele>
  <time>2026-09-01T01:18:07Z</time>
  <course>187.64</course>
  <speed>0.0282842712474619</speed>
  <fix>3d</fix>
</trkpt>
<trkpt lat="33.810313" lon="-118.393867">
  <ele>-0.12</ele>
  <time>2026-09-01T01:18:07Z</time>
  <course>0.0</course>
  <speed>0.0</speed>
  <fix>3d</fix>
</trkpt>
<trkpt lat="33.810313" lon="-118.393867">
  <ele>-0.107</ele>
  <time>2026-09-01T01:18:07Z</time>
  <course>187.63</course>
  <speed>0.03605551275463989</speed>
  <fix>3d</fix>
</trkpt>
<trkpt lat="33.810313" lon="-118.393867">
  <ele>-0.12</ele>
  <time>2026-09-01T01:18:07Z</time>
  <course>0.0</course>
  <speed>0.0</speed>
  <fix>3d</fix>
</trkpt>
<trkpt lat="33.810313" lon="-118.393867">
  <ele>-0.105</ele>
  <time>2026-09-01T01:18:07Z</time>
  <course>187.62</course>
  <speed>0.03605551275463989</speed>
  <fix>3d</fix>
</trkpt>
<trkpt lat="33.810313" lon="-118.393867">
  <ele>-0.12</ele>
  <time>2026-09-01T01:18:07Z</time>
  <course>0.0</course>
  <speed>0.0</speed>
  <fix>3d</fix>
</trkpt>
<trkpt lat="33.810313" lon="-118.393867">
  <ele>-0.105</ele>
  <time>2026-09-01T01:18:07Z</time>
  <course>187.62</course>
  <speed>0.03605551275463989</speed>
  <fix>3d</fix>
</trkpt>
<trkpt lat="33.810313" lon="-118.393867">
  <ele>-0.12</ele>
  <time>2026-09-01T01:18:07Z</time>
  <course>0.0</course>
  <speed>0.0</speed>
  <fix>3d</fix>
</trkpt>
<trkpt lat="33.810313" lon="-118.393867">
  <ele>-0.107</ele>
  <time>2026-09-01T01:18:07Z</time>
  <course>187.61</course>
  <speed>0.03605551275463989</speed>
  <fix>3d</fix>
</trkpt>
<trkpt lat="33.810313" lon="-118.393867">
  <ele>-0.12</ele>
  <time>2026-09-01T01:18:07Z</time>
  <course>0.0</course>
  <speed>0.0</speed>
  <fix>3d</fix>
</trkpt>
<trkpt lat="33.810313" lon="-118.393867">
  <ele>-0.112</ele>
  <time>2026-09-01T01:18:07Z</time>
  <course>187.6</course>
  <speed>0.03605551275463989</speed>
  <fix>3d</fix>
</trkpt>
<trkpt lat="33.810313" lon="-118.393867">
  <ele>-0.12</ele>
  <time>2026-09-01T01:18:07Z</time>
  <course>0.0</course>
  <speed>0.0</speed>
  <fix>3d</fix>
</trkpt>
<trkpt lat="33.810313" lon="-118.393867">
  <ele>-0.116</ele>
  <time>2026-09-01T01:18:07Z</time>
  <course>187.6</course>
  <speed>0.03605551275463989</speed>
  <fix>3d</fix>
</trkpt>
<trkpt lat="33.810313" lon="-118.393867">
  <ele>-0.12</ele>
  <time>2026-09-01T01:18:07Z</time>
  <course>0.0</course>
  <speed>0.0</speed>
  <fix>3d</fix>
</trkpt>
<trkpt lat="33.810313" lon="-118.393867">
  <ele>-0.12</ele>
  <time>2026-09-01T01:18:07Z</time>
  <course>187.59</course>
  <speed>0.03605551275463989</speed>
  <fix>3d</fix>
</trkpt>
<trkpt lat="33.810313" lon="-118.393867">
  <ele>-0.12</ele>
  <time>2026-09-01T01:18:07Z</time>
  <course>0.0</course>
  <speed>0.0</speed>
  <fix>3d</fix>
</trkpt>
<trkpt lat="33.810313" lon="-118.393867">
  <ele>-0.123</ele>
  <time>2026-09-01T01:18:07Z</time>
  <course>187.58</course>
  <speed>0.03605551275463989</speed>
  <fix>3d</fix>
</trkpt>
<trkpt lat="33.810313" lon="-118.393867">
  <ele>-0.12</ele>
  <time>2026-09-01T01:18:07Z</time>
  <course>0.0</course>
  <speed>0.0</speed>
  <fix>3d</fix>
</trkpt>
<trkpt lat="33.810313" lon="-118.393867">
  <ele>-0.125</ele>
  <time>2026-09-01T01:18:07Z</time>
  <course>187.58</course>
  <speed>0.03605551275463989</speed>
  <fix>3d</fix>
</trkpt>
<trkpt lat="33.810313" lon="-118.393867">
  <ele>-0.12</ele>
  <time>2026-09-01T01:18:07Z</time>
  <course>0.0</course>
  <speed>0.0</speed>
  <fix>3d</fix>
</trkpt>
<trkpt lat="33.810313" lon="-118.393867">
  <ele>-0.125</ele>
  <time>2026-09-01T01:18:07Z</time>
  <course>187.57</course>
  <speed>0.03605551275463989</speed>
  <fix>3d</fix>
</trkpt>
<trkpt lat="33.810313" lon="-118.393867">
  <ele>-0.12</ele>
  <time>2026-09-01T01:18:07Z</time>
  <course>0.0</course>
  <speed>0.0</speed>
  <fix>3d</fix>
</trkpt>
<trkpt lat="33.810313" lon="-118.393867">
  <ele>-0.124</ele>
  <time>2026-09-01T01:18:07Z</time>
  <course>187.56</course>
  <speed>0.03605551275463989</speed>
  <fix>3d</fix>
</trkpt>
<trkpt lat="33.810313" lon="-118.393867">
  <ele>-0.12</ele>
  <time>2026-09-01T01:18:07Z</time>
  <course>0.0</course>
  <speed>0.0</speed>
  <fix>3d</fix>
</trkpt>
<trkpt lat="33.810313" lon="-118.393867">
  <ele>-0.122</ele>
  <time>2026-09-01T01:18:07Z</time>
  <course>187.56</course>
  <speed>0.03605551275463989</speed>
  <fix>3d</fix>
</trkpt>
<trkpt lat="33.810313" lon="-118.393867">
  <ele>-0.12</ele>
  <time>2026-09-01T01:18:07Z</time>
  <course>0.0</course>
  <speed>0.0</speed>
  <fix>3d</fix>
</trkpt>
<trkpt lat="33.810313" lon="-118.393867">
  <ele>-0.119</ele>
  <time>2026-09-01T01:18:07Z</time>
  <course>187.55</course>
  <speed>0.03605551275463989</speed>
  <fix>3d</fix>
</trkpt>
<trkpt lat="33.810313" lon="-118.393867">
  <ele>-0.12</ele>
  <time>2026-09-01T01:18:07Z</time>
  <course>0.0</course>
  <speed>0.0</speed>
  <fix>3d</fix>
</trkpt>
<trkpt lat="33.810313" lon="-118.393867">
  <ele>-0.118</ele>
  <time>2026-09-01T01:18:07Z</time>
  <course>187.54</course>
  <speed>0.03605551275463989</speed>
  <fix>3d</fix>
</trkpt>
<trkpt lat="33.810313" lon="-118.393867">
  <ele>-0.12</ele>
  <time>2026-09-01T01:18:07Z</time>
  <course>0.0</course>
  <speed>0.0</speed>
  <fix>3d</fix>
</trkpt>
<trkpt lat="33.810313" lon="-118.393867">
  <ele>-0.118</ele>
  <time>2026-09-01T01:18:07Z</time>
  <course>187.54</course>
  <speed>0.03605551275463989</speed>
  <fix>3d</fix>
</trkpt>
<trkpt lat="33.810313" lon="-118.393867">
  <ele>-0.12</ele>
  <time>2026-09-01T01:18:07Z</time>
  <course>0.0</course>
  <speed>0.0</speed>
  <fix>3d</fix>
</trkpt>
<trkpt lat="33.810313" lon="-118.393867">
  <ele>-0.118</ele>
  <time>2026-09-01T01:18:07Z</time>
  <course>187.53</course>
  <speed>0.03605551275463989</speed>
  <fix>3d</fix>
</trkpt>
<trkpt lat="33.810313" lon="-118.393867">
  <ele>-0.12</ele>
  <time>2026-09-01T01:18:07Z</time>
  <course>0.0</course>
  <speed>0.0</speed>
  <fix>3d</fix>
</trkpt>
<trkpt lat="33.810313" lon="-118.393867">
  <ele>-0.118</ele>
  <time>2026-09-01T01:18:07Z</time>
  <course>187.52</course>
  <speed>0.03605551275463989</speed>
  <fix>3d</fix>
</trkpt>
<trkpt lat="33.810313" lon="-118.393867">
  <ele>-0.12</ele>
  <time>2026-09-01T01:18:07Z</time>
  <course>0.0</course>
  <speed>0.0</speed>
  <fix>3d</fix>
</trkpt>
<trkpt lat="33.810313" lon="-118.393867">
  <ele>-0.118</ele>
  <time>2026-09-01T01:18:07Z</time>
  <course>187.52</course>
  <speed>0.03605551275463989</speed>
  <fix>3d</fix>
</trkpt>
<trkpt lat="33.810313" lon="-118.393867">
  <ele>-0.12</ele>
  <time>2026-09-01T01:18:07Z</time>
  <course>0.0</course>
  <speed>0.0</speed>
  <fix>3d</fix>
</trkpt>
<trkpt lat="33.810313" lon="-118.393867">
  <ele>-0.118</ele>
  <time>2026-09-01T01:18:07Z</time>
  <course>187.51</course>
  <speed>0.03605551275463989</speed>
  <fix>3d</fix>
</trkpt>
<trkpt lat="33.810313" lon="-118.393867">
  <ele>-0.12</ele>
  <time>2026-09-01T01:18:07Z</time>
  <course>0.0</course>
  <speed>0.0</speed>
  <fix>3d</fix>
</trkpt>
<trkpt lat="33.810313" lon="-118.393867">
  <ele>-0.117</ele>
  <time>2026-09-01T01:18:07Z</time>
  <course>187.51</course>
  <speed>0.03605551275463989</speed>
  <fix>3d</fix>
</trkpt>
<trkpt lat="33.810313" lon="-118.393867">
  <ele>-0.12</ele>
  <time>2026-09-01T01:18:07Z</time>
  <course>0.0</course>
  <speed>0.0</speed>
  <fix>3d</fix>
</trkpt>
<trkpt lat="33.810313" lon="-118.393867">
  <ele>-0.116</ele>
  <time>2026-09-01T01:18:07Z</time>
  <course>187.5</course>
  <speed>0.03605551275463989</speed>
  <fix>3d</fix>
</trkpt>
<trkpt lat="33.810313" lon="-118.393867">
  <ele>-0.12</ele>
  <time>2026-09-01T01:18:07Z</time>
  <course>0.0</course>
  <speed>0.0</speed>
  <fix>3d</fix>
</trkpt>
<trkpt lat="33.810313" lon="-118.393867">
  <ele>-0.114</ele>
  <time>2026-09-01T01:18:07Z</time>
  <course>187.49</course>
  <speed>0.03605551275463989</speed>
  <fix>3d</fix>
</trkpt>
<trkpt lat="33.810313" lon="-118.393867">
  <ele>-0.12</ele>
  <time>2026-09-01T01:18:07Z</time>
  <course>0.0</course>
  <speed>0.0</speed>
  <fix>3d</fix>
</trkpt>
<trkpt lat="33.810313" lon="-118.393867">
  <ele>-0.113</ele>
  <time>2026-09-01T01:18:07Z</time>
  <course>187.49</course>
  <speed>0.03605551275463989</speed>
  <fix>3d</fix>
</trkpt>
<trkpt lat="33.810313" lon="-118.393867">
  <ele>-0.12</ele>
  <time>2026-09-01T01:18:07Z</time>
  <course>0.0</course>
  <speed>0.0</speed>
  <fix>3d</fix>
</trkpt>
<trkpt lat="33.810313" lon="-118.393867">
  <ele>-0.113</ele>
  <time>2026-09-01T01:18:07Z</time>
  <course>187.48</course>
  <speed>0.03605551275463989</speed>
  <fix>3d</fix>
</trkpt>
<trkpt lat="33.810313" lon="-118.393867">
  <ele>-0.12</ele>
  <time>2026-09-01T01:18:07Z</time>
  <course>0.0</course>
  <speed>0.0</speed>
  <fix>3d</fix>
</trkpt>
<trkpt lat="33.810313" lon="-118.393867">
  <ele>-0.112</ele>
  <time>2026-09-01T01:18:07Z</time>
  <course>187.47</course>
  <speed>0.03605551275463989</speed>
  <fix>3d</fix>
</trkpt>
<trkpt lat="33.810313" lon="-118.393867">
  <ele>-0.12</ele>
  <time>2026-09-01T01:18:07Z</time>
  <course>0.0</course>
  <speed>0.0</speed>
  <fix>3d</fix>
</trkpt>
<trkpt lat="33.810313" lon="-118.393867">
  <ele>-0.113</ele>
  <time>2026-09-01T01:18:07Z</time>
  <course>187.47</course>
  <speed>0.03605551275463989</speed>
  <fix>3d</fix>
</trkpt>
<trkpt lat="33.810313" lon="-118.393867">
  <ele>-0.12</ele>
  <time>2026-09-01T01:18:07Z</time>
  <course>0.0</course>
  <speed>0.0</speed>
  <fix>3d</fix>
</trkpt>
<trkpt lat="33.810313" lon="-118.393867">
  <ele>-0.113</ele>
  <time>2026-09-01T01:18:07Z</time>
  <course>187.46</course>
  <speed>0.03605551275463989</speed>
  <fix>3d</fix>
</trkpt>
<trkpt lat="33.810313" lon="-118.393867">
  <ele>-0.12</ele>
  <time>2026-09-01T01:18:07Z</time>
  <course>0.0</course>
  <speed>0.0</speed>
  <fix>3d</fix>
</trkpt>
<trkpt lat="33.810313" lon="-118.393867">
  <ele>-0.114</ele>
  <time>2026-09-01T01:18:07Z</time>
  <course>187.45</course>
  <speed>0.03605551275463989</speed>
  <fix>3d</fix>
</trkpt>
<trkpt lat="33.810313" lon="-118.393867">
  <ele>-0.12</ele>
  <time>2026-09-01T01:18:07Z</time>
  <course>0.0</course>
  <speed>0.0</speed>
  <fix>3d</fix>
</trkpt>
<trkpt lat="33.810313" lon="-118.393867">
  <ele>-0.113</ele>
  <time>2026-09-01T01:18:07Z</time>
  <course>187.45</course>
  <speed>0.03605551275463989</speed>
  <fix>3d</fix>
</trkpt>
<trkpt lat="33.810313" lon="-118.393867">
  <ele>-0.12</ele>
  <time>2026-09-01T01:18:07Z</time>
  <course>0.0</course>
  <speed>0.0</speed>
  <fix>3d</fix>
</trkpt>
<trkpt lat="33.810313" lon="-118.393867">
  <ele>-0.112</ele>
  <time>2026-09-01T01:18:07Z</time>
  <course>187.44</course>
  <speed>0.03605551275463989</speed>
  <fix>3d</fix>
</trkpt>
<trkpt lat="33.810313" lon="-118.393867">
  <ele>-0.12</ele>
  <time>2026-09-01T01:18:07Z</time>
  <course>0.0</course>
  <speed>0.0</speed>
  <fix>3d</fix>
</trkpt>
<trkpt lat="33.810313" lon="-118.393867">
  <ele>-0.111</ele>
  <time>2026-09-01T01:18:07Z</time>
  <course>187.44</course>
  <speed>0.03605551275463989</speed>
  <fix>3d</fix>
</trkpt>
<trkpt lat="33.810313" lon="-118.393867">
  <ele>-0.12</ele>
  <time>2026-09-01T01:18:07Z</time>
  <course>0.0</course>
  <speed>0.0</speed>
  <fix>3d</fix>
</trkpt>
<trkpt lat="33.810313" lon="-118.393867">
  <ele>-0.11</ele>
  <time>2026-09-01T01:18:07Z</time>
  <course>187.43</course>
  <speed>0.03605551275463989</speed>
  <fix>3d</fix>
</trkpt>
<trkpt lat="33.810313" lon="-118.393867">
  <ele>-0.12</ele>
  <time>2026-09-01T01:18:07Z</time>
  <course>0.0</course>
  <speed>0.0</speed>
  <fix>3d</fix>
</trkpt>
<trkpt lat="33.810313" lon="-118.393867">
  <ele>-0.108</ele>
  <time>2026-09-01T01:18:07Z</time>
  <course>187.42</course>
  <speed>0.03605551275463989</speed>
  <fix>3d</fix>
</trkpt>
<trkpt lat="33.810313" lon="-118.393867">
  <ele>-0.12</ele>
  <time>2026-09-01T01:18:07Z</time>
  <course>0.0</course>
  <speed>0.0</speed>
  <fix>3d</fix>
</trkpt>
<trkpt lat="33.810313" lon="-118.393867">
  <ele>-0.106</ele>
  <time>2026-09-01T01:18:07Z</time>
  <course>187.42</course>
  <speed>0.03605551275463989</speed>
  <fix>3d</fix>
</trkpt>
<trkpt lat="33.810313" lon="-118.393867">
  <ele>-0.12</ele>
  <time>2026-09-01T01:18:07Z</time>
  <course>0.0</course>
  <speed>0.0</speed>
  <fix>3d</fix>
</trkpt>
<trkpt lat="33.810313" lon="-118.393867">
  <ele>-0.106</ele>
  <time>2026-09-01T01:18:07Z</time>
  <course>187.41</course>
  <speed>0.03605551275463989</speed>
  <fix>3d</fix>
</trkpt>
<trkpt lat="33.810313" lon="-118.393867">
  <ele>-0.12</ele>
  <time>2026-09-01T01:18:07Z</time>
  <course>0.0</course>
  <speed>0.0</speed>
  <fix>3d</fix>
</trkpt>
<trkpt lat="33.810313" lon="-118.393867">
  <ele>-0.106</ele>
  <time>2026-09-01T01:18:07Z</time>
  <course>187.41</course>
  <speed>0.03605551275463989</speed>
  <fix>3d</fix>
</trkpt>
<trkpt lat="33.810313" lon="-118.393867">
  <ele>-0.12</ele>
  <time>2026-09-01T01:18:07Z</time>
  <course>0.0</course>
  <speed>0.0</speed>
  <fix>3d</fix>
</trkpt>
<trkpt lat="33.810313" lon="-118.393867">
  <ele>-0.106</ele>
  <time>2026-09-01T01:18:07Z</time>
  <course>187.4</course>
  <speed>0.03605551275463989</speed>
  <fix>3d</fix>
</trkpt>
<trkpt lat="33.810313" lon="-118.393867">
  <ele>-0.12</ele>
  <time>2026-09-01T01:18:07Z</time>
  <course>0.0</course>
  <speed>0.0</speed>
  <fix>3d</fix>
</trkpt>
<trkpt lat="33.810313" lon="-118.393867">
  <ele>-0.107</ele>
  <time>2026-09-01T01:18:07Z</time>
  <course>187.39</course>
  <speed>0.03605551275463989</speed>
  <fix>3d</fix>
</trkpt>
<trkpt lat="33.810313" lon="-118.393867">
  <ele>-0.12</ele>
  <time>2026-09-01T01:18:07Z</time>
  <course>0.0</course>
  <speed>0.0</speed>
  <fix>3d</fix>
</trkpt>
<trkpt lat="33.810313" lon="-118.393867">
  <ele>-0.108</ele>
  <time>2026-09-01T01:18:07Z</time>
  <course>187.39</course>
  <speed>0.03605551275463989</speed>
  <fix>3d</fix>
</trkpt>
<trkpt lat="33.810313" lon="-118.393867">
  <ele>-0.12</ele>
  <time>2026-09-01T01:18:07Z</time>
  <course>0.0</course>
  <speed>0.0</speed>
  <fix>3d</fix>
</trkpt>
<trkpt lat="33.810313" lon="-118.393867">
  <ele>-0.108</ele>
  <time>2026-09-01T01:18:07Z</time>
  <course>187.38</course>
  <speed>0.03605551275463989</speed>
  <fix>3d</fix>
</trkpt>
<trkpt lat="33.810313" lon="-118.393867">
  <ele>-0.12</ele>
  <time>2026-09-01T01:18:07Z</time>
  <course>0.0</course>
  <speed>0.0</speed>
  <fix>3d</fix>
</trkpt>
<trkpt lat="33.810313" lon="-118.393867">
  <ele>-0.107</ele>
  <time>2026-09-01T01:18:07Z</time>
  <course>187.38</course>
  <speed>0.03605551275463989</speed>
  <fix>3d</fix>
</trkpt>
<trkpt lat="33.810313" lon="-118.393867">
  <ele>-0.12</ele>
  <time>2026-09-01T01:18:07Z</time>
  <course>0.0</course>
  <speed>0.0</speed>
  <fix>3d</fix>
</trkpt>
<trkpt lat="33.810313" lon="-118.393867">
  <ele>-0.107</ele>
  <time>2026-09-01T01:18:07Z</time>
  <course>187.37</course>
  <speed>0.03605551275463989</speed>
  <fix>3d</fix>
</trkpt>
<trkpt lat="33.810313" lon="-118.393867">
  <ele>-0.12</ele>
  <time>2026-09-01T01:18:07Z</time>
  <course>0.0</course>
  <speed>0.0</speed>
  <fix>3d</fix>
</trkpt>
<trkpt lat="33.810313" lon="-118.393867">
  <ele>-0.107</ele>
  <time>2026-09-01T01:18:07Z</time>
  <course>187.36</course>
  <speed>0.03605551275463989</speed>
  <fix>3d</fix>
</trkpt>
<trkpt lat="33.810313" lon="-118.393867">
  <ele>-0.12</ele>
  <time>2026-09-01T01:18:07Z</time>
  <course>0.0</course>
  <speed>0.0</speed>
  <fix>3d</fix>
</trkpt>
<trkpt lat="33.810313" lon="-118.393867">
  <ele>-0.108</ele>
  <time>2026-09-01T01:18:07Z</time>
  <course>187.36</course>
  <speed>0.03605551275463989</speed>
  <fix>3d</fix>
</trkpt>
<trkpt lat="33.810313" lon="-118.393867">
  <ele>-0.12</ele>
  <time>2026-09-01T01:18:07Z</time>
  <course>0.0</course>
  <speed>0.0</speed>
  <fix>3d</fix>
</trkpt>
<trkpt lat="33.810313" lon="-118.393867">
  <ele>-0.11</ele>
  <time>2026-09-01T01:18:07Z</time>
  <course>187.35</course>
  <speed>0.03605551275463989</speed>
  <fix>3d</fix>
</trkpt>
<trkpt lat="33.810313" lon="-118.393867">
  <ele>-0.12</ele>
  <time>2026-09-01T01:18:07Z</time>
  <course>0.0</course>
  <speed>0.0</speed>
  <fix>3d</fix>
</trkpt>
<trkpt lat="33.810313" lon="-118.393867">
  <ele>-0.113</ele>
  <time>2026-09-01T01:18:07Z</time>
  <course>187.35</course>
  <speed>0.03605551275463989</speed>
  <fix>3d</fix>
</trkpt>
<trkpt lat="33.810313" lon="-118.393867">
  <ele>-0.12</ele>
  <time>2026-09-01T01:18:07Z</time>
  <course>0.0</course>
  <speed>0.0</speed>
  <fix>3d</fix>
</trkpt>
<trkpt lat="33.810313" lon="-118.393867">
  <ele>-0.117</ele>
  <time>2026-09-01T01:18:07Z</time>
  <course>187.34</course>
  <speed>0.03605551275463989</speed>
  <fix>3d</fix>
</trkpt>
<trkpt lat="33.810313" lon="-118.393867">
  <ele>-0.12</ele>
  <time>2026-09-01T01:18:07Z</time>
  <course>0.0</course>
  <speed>0.0</speed>
  <fix>3d</fix>
</trkpt>
<trkpt lat="33.810313" lon="-118.393867">
  <ele>-0.121</ele>
  <time>2026-09-01T01:18:07Z</time>
  <course>187.34</course>
  <speed>0.03605551275463989</speed>
  <fix>3d</fix>
</trkpt>
<trkpt lat="33.810313" lon="-118.393867">
  <ele>-0.12</ele>
  <time>2026-09-01T01:18:07Z</time>
  <course>0.0</course>
  <speed>0.0</speed>
  <fix>3d</fix>
</trkpt>
<trkpt lat="33.810313" lon="-118.393867">
  <ele>-0.124</ele>
  <time>2026-09-01T01:18:07Z</time>
  <course>187.33</course>
  <speed>0.03605551275463989</speed>
  <fix>3d</fix>
</trkpt>
<trkpt lat="33.810313" lon="-118.393867">
  <ele>-0.12</ele>
  <time>2026-09-01T01:18:07Z</time>
  <course>0.0</course>
  <speed>0.0</speed>
  <fix>3d</fix>
</trkpt>
<trkpt lat="33.810313" lon="-118.393867">
  <ele>-0.126</ele>
  <time>2026-09-01T01:18:07Z</time>
  <course>187.32</course>
  <speed>0.03605551275463989</speed>
  <fix>3d</fix>
</trkpt>
<trkpt lat="33.810313" lon="-118.393867">
  <ele>-0.12</ele>
  <time>2026-09-01T01:18:07Z</time>
  <course>0.0</course>
  <speed>0.0</speed>
  <fix>3d</fix>
</trkpt>
<trkpt lat="33.810313" lon="-118.393867">
  <ele>-0.127</ele>
  <time>2026-09-01T01:18:07Z</time>
  <course>187.32</course>
  <speed>0.03605551275463989</speed>
  <fix>3d</fix>
</trkpt>
<trkpt lat="33.810313" lon="-118.393867">
  <ele>-0.12</ele>
  <time>2026-09-01T01:18:07Z</time>
  <course>0.0</course>
  <speed>0.0</speed>
  <fix>3d</fix>
</trkpt>
<trkpt lat="33.810313" lon="-118.393867">
  <ele>-0.126</ele>
  <time>2026-09-01T01:18:07Z</time>
  <course>187.31</course>
  <speed>0.03605551275463989</speed>
  <fix>3d</fix>
</trkpt>
<trkpt lat="33.810313" lon="-118.393867">
  <ele>-0.12</ele>
  <time>2026-09-01T01:18:07Z</time>
  <course>0.0</course>
  <speed>0.0</speed>
  <fix>3d</fix>
</trkpt>
<trkpt lat="33.810313" lon="-118.393867">
  <ele>-0.125</ele>
  <time>2026-09-01T01:18:07Z</time>
  <course>187.31</course>
  <speed>0.03605551275463989</speed>
  <fix>3d</fix>
</trkpt>
<trkpt lat="33.810313" lon="-118.393867">
  <ele>-0.12</ele>
  <time>2026-09-01T01:18:07Z</time>
  <course>0.0</course>
  <speed>0.0</speed>
  <fix>3d</fix>
</trkpt>
<trkpt lat="33.810313" lon="-118.393867">
  <ele>-0.123</ele>
  <time>2026-09-01T01:18:07Z</time>
  <course>187.3</course>
  <speed>0.03605551275463989</speed>
  <fix>3d</fix>
</trkpt>
<trkpt lat="33.810313" lon="-118.393867">
  <ele>-0.12</ele>
  <time>2026-09-01T01:18:07Z</time>
  <course>0.0</course>
  <speed>0.0</speed>
  <fix>3d</fix>
</trkpt>
<trkpt lat="33.810313" lon="-118.393867">
  <ele>-0.121</ele>
  <time>2026-09-01T01:18:07Z</time>
  <course>187.3</course>
  <speed>0.03605551275463989</speed>
  <fix>3d</fix>
</trkpt>
<trkpt lat="33.810313" lon="-118.393867">
  <ele>-0.12</ele>
  <time>2026-09-01T01:18:07Z</time>
  <course>0.0</course>
  <speed>0.0</speed>
  <fix>3d</fix>
</trkpt>
<trkpt lat="33.810313" lon="-118.393867">
  <ele>-0.119</ele>
  <time>2026-09-01T01:18:07Z</time>
  <course>187.29</course>
  <speed>0.03605551275463989</speed>
  <fix>3d</fix>
</trkpt>
<trkpt lat="33.810313" lon="-118.393867">
  <ele>-0.12</ele>
  <time>2026-09-01T01:18:07Z</time>
  <course>0.0</course>
  <speed>0.0</speed>
  <fix>3d</fix>
</trkpt>
<trkpt lat="33.810313" lon="-118.393867">
  <ele>-0.12</ele>
  <time>2026-09-01T01:18:07Z</time>
  <course>187.28</course>
  <speed>0.03605551275463989</speed>
  <fix>3d</fix>
</trkpt>
<trkpt lat="33.810313" lon="-118.393867">
  <ele>-0.12</ele>
  <time>2026-09-01T01:18:07Z</time>
  <course>0.0</course>
  <speed>0.0</speed>
  <fix>3d</fix>
</trkpt>
<trkpt lat="33.810313" lon="-118.393867">
  <ele>-0.12</ele>
  <time>2026-09-01T01:18:07Z</time>
  <course>187.28</course>
  <speed>0.03605551275463989</speed>
  <fix>3d</fix>
</trkpt>
<trkpt lat="33.810313" lon="-118.393867">
  <ele>-0.12</ele>
  <time>2026-09-01T01:18:07Z</time>
  <course>0.0</course>
  <speed>0.0</speed>
  <fix>3d</fix>
</trkpt>
<trkpt lat="33.810313" lon="-118.393867">
  <ele>-0.122</ele>
  <time>2026-09-01T01:18:07Z</time>
  <course>187.27</course>
  <speed>0.03605551275463989</speed>
  <fix>3d</fix>
</trkpt>
<trkpt lat="33.810313" lon="-118.393867">
  <ele>-0.12</ele>
  <time>2026-09-01T01:18:07Z</time>
  <course>0.0</course>
  <speed>0.0</speed>
  <fix>3d</fix>
</trkpt>
<trkpt lat="33.810313" lon="-118.393867">
  <ele>-0.122</ele>
  <time>2026-09-01T01:18:07Z</time>
  <course>187.27</course>
  <speed>0.03605551275463989</speed>
  <fix>3d</fix>
</trkpt>
<trkpt lat="33.810313" lon="-118.393867">
  <ele>-0.12</ele>
  <time>2026-09-01T01:18:07Z</time>
  <course>0.0</course>
  <speed>0.0</speed>
  <fix>3d</fix>
</trkpt>
<trkpt lat="33.810313" lon="-118.393867">
  <ele>-0.122</ele>
  <time>2026-09-01T01:18:07Z</time>
  <course>187.26</course>
  <speed>0.03605551275463989</speed>
  <fix>3d</fix>
</trkpt>
<trkpt lat="33.810313" lon="-118.393867">
  <ele>-0.12</ele>
  <time>2026-09-01T01:18:07Z</time>
  <course>0.0</course>
  <speed>0.0</speed>
  <fix>3d</fix>
</trkpt>
<trkpt lat="33.810313" lon="-118.393867">
  <ele>-0.12</ele>
  <time>2026-09-01T01:18:07Z</time>
  <course>187.26</course>
  <speed>0.03605551275463989</speed>
  <fix>3d</fix>
</trkpt>
<trkpt lat="33.810313" lon="-118.393867">
  <ele>-0.12</ele>
  <time>2026-09-01T01:18:07Z</time>
  <course>0.0</course>
  <speed>0.0</speed>
  <fix>3d</fix>
</trkpt>
<trkpt lat="33.810313" lon="-118.393867">
  <ele>-0.12</ele>
  <time>2026-09-01T01:18:07Z</time>
  <course>187.25</course>
  <speed>0.03605551275463989</speed>
  <fix>3d</fix>
</trkpt>
<trkpt lat="33.810313" lon="-118.393867">
  <ele>-0.12</ele>
  <time>2026-09-01T01:18:07Z</time>
  <course>0.0</course>
  <speed>0.0</speed>
  <fix>3d</fix>
</trkpt>
<trkpt lat="33.810313" lon="-118.393867">
  <ele>-0.119</ele>
  <time>2026-09-01T01:18:07Z</time>
  <course>187.25</course>
  <speed>0.03605551275463989</speed>
  <fix>3d</fix>
</trkpt>
<trkpt lat="33.810313" lon="-118.393867">
  <ele>-0.12</ele>
  <time>2026-09-01T01:18:07Z</time>
  <course>0.0</course>
  <speed>0.0</speed>
  <fix>3d</fix>
</trkpt>
<trkpt lat="33.810313" lon="-118.393867">
  <ele>-0.119</ele>
  <time>2026-09-01T01:18:07Z</time>
  <course>187.24</course>
  <speed>0.03605551275463989</speed>
  <fix>3d</fix>
</trkpt>
<trkpt lat="33.810313" lon="-118.393867">
  <ele>-0.12</ele>
  <time>2026-09-01T01:18:07Z</time>
  <course>0.0</course>
  <speed>0.0</speed>
  <fix>3d</fix>
</trkpt>
<trkpt lat="33.810313" lon="-118.393867">
  <ele>-0.118</ele>
  <time>2026-09-01T01:18:07Z</time>
  <course>187.24</course>
  <speed>0.03605551275463989</speed>
  <fix>3d</fix>
</trkpt>
<trkpt lat="33.810313" lon="-118.393867">
  <ele>-0.12</ele>
  <time>2026-09-01T01:18:07Z</time>
  <course>0.0</course>
  <speed>0.0</speed>
  <fix>3d</fix>
</trkpt>
<trkpt lat="33.810313" lon="-118.393867">
  <ele>-0.117</ele>
  <time>2026-09-01T01:18:07Z</time>
  <course>187.23</course>
  <speed>0.03605551275463989</speed>
  <fix>3d</fix>
</trkpt>
<trkpt lat="33.810313" lon="-118.393867">
  <ele>-0.12</ele>
  <time>2026-09-01T01:18:07Z</time>
  <course>0.0</course>
  <speed>0.0</speed>
  <fix>3d</fix>
</trkpt>
<trkpt lat="33.810313" lon="-118.393867">
  <ele>-0.117</ele>
  <time>2026-09-01T01:18:07Z</time>
  <course>187.23</course>
  <speed>0.03605551275463989</speed>
  <fix>3d</fix>
</trkpt>
<trkpt lat="33.810313" lon="-118.393867">
  <ele>-0.12</ele>
  <time>2026-09-01T01:18:07Z</time>
  <course>0.0</course>
  <speed>0.0</speed>
  <fix>3d</fix>
</trkpt>
<trkpt lat="33.810313" lon="-118.393867">
  <ele>-0.117</ele>
  <time>2026-09-01T01:18:07Z</time>
  <course>187.22</course>
  <speed>0.03605551275463989</speed>
  <fix>3d</fix>
</trkpt>
<trkpt lat="33.810313" lon="-118.393867">
  <ele>-0.12</ele>
  <time>2026-09-01T01:18:07Z</time>
  <course>0.0</course>
  <speed>0.0</speed>
  <fix>3d</fix>
</trkpt>
<trkpt lat="33.810313" lon="-118.393867">
  <ele>-0.118</ele>
  <time>2026-09-01T01:18:07Z</time>
  <course>187.21</course>
  <speed>0.03605551275463989</speed>
  <fix>3d</fix>
</trkpt>
<trkpt lat="33.810313" lon="-118.393867">
  <ele>-0.12</ele>
  <time>2026-09-01T01:18:07Z</time>
  <course>0.0</course>
  <speed>0.0</speed>
  <fix>3d</fix>
</trkpt>
<trkpt lat="33.810313" lon="-118.393867">
  <ele>-0.119</ele>
  <time>2026-09-01T01:18:07Z</time>
  <course>187.21</course>
  <speed>0.03605551275463989</speed>
  <fix>3d</fix>
</trkpt>
<trkpt lat="33.810313" lon="-118.393867">
  <ele>-0.12</ele>
  <time>2026-09-01T01:18:07Z</time>
  <course>0.0</course>
  <speed>0.0</speed>
  <fix>3d</fix>
</trkpt>
<trkpt lat="33.810313" lon="-118.393867">
  <ele>-0.12</ele>
  <time>2026-09-01T01:18:07Z</time>
  <course>187.2</course>
  <speed>0.03605551275463989</speed>
  <fix>3d</fix>
</trkpt>
<trkpt lat="33.810313" lon="-118.393867">
  <ele>-0.12</ele>
  <time>2026-09-01T01:18:07Z</time>
  <course>0.0</course>
  <speed>0.0</speed>
  <fix>3d</fix>
</trkpt>
<trkpt lat="33.810313" lon="-118.393867">
  <ele>-0.12</ele>
  <time>2026-09-01T01:18:07Z</time>
  <course>187.2</course>
  <speed>0.03605551275463989</speed>
  <fix>3d</fix>
</trkpt>
<trkpt lat="33.810313" lon="-118.393867">
  <ele>-0.12</ele>
  <time>2026-09-01T01:18:07Z</time>
  <course>0.0</course>
  <speed>0.0</speed>
  <fix>3d</fix>
</trkpt>
<trkpt lat="33.810313" lon="-118.393867">
  <ele>-0.119</ele>
  <time>2026-09-01T01:18:07Z</time>
  <course>187.19</course>
  <speed>0.03605551275463989</speed>
  <fix>3d</fix>
</trkpt>
<trkpt lat="33.810313" lon="-118.393867">
  <ele>-0.12</ele>
  <time>2026-09-01T01:18:07Z</time>
  <course>0.0</course>
  <speed>0.0</speed>
  <fix>3d</fix>
</trkpt>
<trkpt lat="33.810313" lon="-118.393867">
  <ele>-0.118</ele>
  <time>2026-09-01T01:18:07Z</time>
  <course>187.19</course>
  <speed>0.03605551275463989</speed>
  <fix>3d</fix>
</trkpt>
<trkpt lat="33.810313" lon="-118.393867">
  <ele>-0.12</ele>
  <time>2026-09-01T01:18:07Z</time>
  <course>0.0</course>
  <speed>0.0</speed>
  <fix>3d</fix>
</trkpt>
<trkpt lat="33.810313" lon="-118.393867">
  <ele>-0.117</ele>
  <time>2026-09-01T01:18:07Z</time>
  <course>187.18</course>
  <speed>0.03605551275463989</speed>
  <fix>3d</fix>
</trkpt>
<trkpt lat="33.810313" lon="-118.393867">
  <ele>-0.12</ele>
  <time>2026-09-01T01:18:07Z</time>
  <course>0.0</course>
  <speed>0.0</speed>
  <fix>3d</fix>
</trkpt>
<trkpt lat="33.810313" lon="-118.393867">
  <ele>-0.118</ele>
  <time>2026-09-01T01:18:07Z</time>
  <course>187.18</course>
  <speed>0.03605551275463989</speed>
  <fix>3d</fix>
</trkpt>
<trkpt lat="33.810313" lon="-118.393867">
  <ele>-0.12</ele>
  <time>2026-09-01T01:18:07Z</time>
  <course>0.0</course>
  <speed>0.0</speed>
  <fix>3d</fix>
</trkpt>
<trkpt lat="33.810313" lon="-118.393867">
  <ele>-0.119</ele>
  <time>2026-09-01T01:18:07Z</time>
  <course>187.17</course>
  <speed>0.03605551275463989</speed>
  <fix>3d</fix>
</trkpt>
<trkpt lat="33.810313" lon="-118.393867">
  <ele>-0.12</ele>
  <time>2026-09-01T01:18:07Z</time>
  <course>0.0</course>
  <speed>0.0</speed>
  <fix>3d</fix>
</trkpt>
<trkpt lat="33.810313" lon="-118.393867">
  <ele>-0.12</ele>
  <time>2026-09-01T01:18:07Z</time>
  <course>187.17</course>
  <speed>0.0</speed>
  <fix>3d</fix>
</trkpt>
<trkpt lat="33.810313" lon="-118.393867">
  <ele>-0.12</ele>
  <time>2026-09-01T01:18:07Z</time>
  <course>0.0</course>
  <speed>0.0</speed>
  <fix>3d</fix>
</trkpt>
<trkpt lat="33.810313" lon="-118.393867">
  <ele>-0.121</ele>
  <time>2026-09-01T01:18:07Z</time>
  <course>187.16</course>
  <speed>0.0</speed>
  <fix>3d</fix>
</trkpt>
<trkpt lat="33.810313" lon="-118.393867">
  <ele>-0.12</ele>
  <time>2026-09-01T01:18:07Z</time>
  <course>0.0</course>
  <speed>0.0</speed>
  <fix>3d</fix>
</trkpt>
<trkpt lat="33.810313" lon="-118.393867">
  <ele>-0.121</ele>
  <time>2026-09-01T01:18:07Z</time>
  <course>187.16</course>
  <speed>0.0</speed>
  <fix>3d</fix>
</trkpt>
<trkpt lat="33.810313" lon="-118.393867">
  <ele>-0.12</ele>
  <time>2026-09-01T01:18:07Z</time>
  <course>0.0</course>
  <speed>0.0</speed>
  <fix>3d</fix>
</trkpt>
<trkpt lat="33.810313" lon="-118.393867">
  <ele>-0.121</ele>
  <time>2026-09-01T01:18:07Z</time>
  <course>187.15</course>
  <speed>0.0</speed>
  <fix>3d</fix>
</trkpt>
<trkpt lat="33.810313" lon="-118.393867">
  <ele>-0.12</ele>
  <time>2026-09-01T01:18:07Z</time>
  <course>0.0</course>
  <speed>0.0</speed>
  <fix>3d</fix>
</trkpt>
<trkpt lat="33.810313" lon="-118.393867">
  <ele>-0.12</ele>
  <time>2026-09-01T01:18:07Z</time>
  <course>187.15</course>
  <speed>0.0</speed>
  <fix>3d</fix>
</trkpt>
<trkpt lat="33.810313" lon="-118.393867">
  <ele>-0.12</ele>
  <time>2026-09-01T01:18:07Z</time>
  <course>0.0</course>
  <speed>0.0</speed>
  <fix>3d</fix>
</trkpt>
<trkpt lat="33.810313" lon="-118.393867">
  <ele>-0.118</ele>
  <time>2026-09-01T01:18:07Z</time>
  <course>187.14</course>
  <speed>0.0</speed>
  <fix>3d</fix>
</trkpt>
<trkpt lat="33.810313" lon="-118.393867">
  <ele>-0.12</ele>
  <time>2026-09-01T01:18:07Z</time>
  <course>0.0</course>
  <speed>0.0</speed>
  <fix>3d</fix>
</trkpt>
<trkpt lat="33.810313" lon="-118.393867">
  <ele>-0.117</ele>
  <time>2026-09-01T01:18:07Z</time>
  <course>187.14</course>
  <speed>0.0</speed>
  <fix>3d</fix>
</trkpt>
<trkpt lat="33.810313" lon="-118.393867">
  <ele>-0.12</ele>
  <time>2026-09-01T01:18:07Z</time>
  <course>0.0</course>
  <speed>0.0</speed>
  <fix>3d</fix>
</trkpt>
<trkpt lat="33.810313" lon="-118.393867">
  <ele>-0.115</ele>
  <time>2026-09-01T01:18:07Z</time>
  <course>187.13</course>
  <speed>0.0</speed>
  <fix>3d</fix>
</trkpt>
<trkpt lat="33.810313" lon="-118.393867">
  <ele>-0.12</ele>
  <time>2026-09-01T01:18:07Z</time>
  <course>0.0</course>
  <speed>0.0</speed>
  <fix>3d</fix>
</trkpt>
<trkpt lat="33.810313" lon="-118.393867">
  <ele>-0.115</ele>
  <time>2026-09-01T01:18:07Z</time>
  <course>187.13</course>
  <speed>0.0</speed>
  <fix>3d</fix>
</trkpt>
<trkpt lat="33.810313" lon="-118.393867">
  <ele>-0.12</ele>
  <time>2026-09-01T01:18:07Z</time>
  <course>0.0</course>
  <speed>0.0</speed>
  <fix>3d</fix>
</trkpt>
<trkpt lat="33.810313" lon="-118.393867">
  <ele>-0.115</ele>
  <time>2026-09-01T01:18:07Z</time>
  <course>187.12</course>
  <speed>0.0</speed>
  <fix>3d</fix>
</trkpt>
<trkpt lat="33.810313" lon="-118.393867">
  <ele>-0.12</ele>
  <time>2026-09-01T01:18:07Z</time>
  <course>0.0</course>
  <speed>0.0</speed>
  <fix>3d</fix>
</trkpt>
<trkpt lat="33.810313" lon="-118.393867">
  <ele>-0.115</ele>
  <time>2026-09-01T01:18:08Z</time>
  <course>187.12</course>
  <speed>0.0</speed>
  <fix>3d</fix>
</trkpt>
<trkpt lat="33.810313" lon="-118.393867">
  <ele>-0.12</ele>
  <time>2026-09-01T01:18:08Z</time>
  <course>0.0</course>
  <speed>0.0</speed>
  <fix>3d</fix>
</trkpt>
<trkpt lat="33.810313" lon="-118.393867">
  <ele>-0.115</ele>
  <time>2026-09-01T01:18:08Z</time>
  <course>187.11</course>
  <speed>0.01</speed>
  <fix>3d</fix>
</trkpt>
<trkpt lat="33.810313" lon="-118.393867">
  <ele>-0.12</ele>
  <time>2026-09-01T01:18:08Z</time>
  <course>0.0</course>
  <speed>0.0</speed>
  <fix>3d</fix>
</trkpt>
<trkpt lat="33.810313" lon="-118.393867">
  <ele>-0.114</ele>
  <time>2026-09-01T01:18:08Z</time>
  <course>187.11</course>
  <speed>0.01</speed>
  <fix>3d</fix>
</trkpt>
<trkpt lat="33.810313" lon="-118.393867">
  <ele>-0.12</ele>
  <time>2026-09-01T01:18:08Z</time>
  <course>0.0</course>
  <speed>0.0</speed>
  <fix>3d</fix>
</trkpt>
<trkpt lat="33.810313" lon="-118.393867">
  <ele>-0.114</ele>
  <time>2026-09-01T01:18:08Z</time>
  <course>187.1</course>
  <speed>0.01</speed>
  <fix>3d</fix>
</trkpt>
<trkpt lat="33.810313" lon="-118.393867">
  <ele>-0.12</ele>
  <time>2026-09-01T01:18:08Z</time>
  <course>0.0</course>
  <speed>0.0</speed>
  <fix>3d</fix>
</trkpt>
<trkpt lat="33.810313" lon="-118.393867">
  <ele>-0.114</ele>
  <time>2026-09-01T01:18:08Z</time>
  <course>187.1</course>
  <speed>0.01414213562373095</speed>
  <fix>3d</fix>
</trkpt>
<trkpt lat="33.810313" lon="-118.393867">
  <ele>-0.12</ele>
  <time>2026-09-01T01:18:08Z</time>
  <course>0.0</course>
  <speed>0.0</speed>
  <fix>3d</fix>
</trkpt>
<trkpt lat="33.810313" lon="-118.393867">
  <ele>-0.115</ele>
  <time>2026-09-01T01:18:08Z</time>
  <course>187.09</course>
  <speed>0.01414213562373095</speed>
  <fix>3d</fix>
</trkpt>
<trkpt lat="33.810313" lon="-118.393867">
  <ele>-0.12</ele>
  <time>2026-09-01T01:18:08Z</time>
  <course>0.0</course>
  <speed>0.0</speed>
  <fix>3d</fix>
</trkpt>
<trkpt lat="33.810313" lon="-118.393867">
  <ele>-0.121</ele>
  <time>2026-09-01T01:18:08Z</time>
  <course>187.09</course>
  <speed>0.01414213562373095</speed>
  <fix>3d</fix>
</trkpt>
<trkpt lat="33.810313" lon="-118.393867">
  <ele>-0.12</ele>
  <time>2026-09-01T01:18:08Z</time>
  <course>315.92</course>
  <speed>0.0</speed>
  <fix>3d</fix>
</trkpt>
<trkpt lat="33.810313" lon="-118.393867">
  <ele>-0.134</ele>
  <time>2026-09-01T01:18:08Z</time>
  <course>187.08</course>
  <speed>0.01414213562373095</speed>
  <fix>3d</fix>
</trkpt>
<trkpt lat="33.810313" lon="-118.393867">
  <ele>-0.12</ele>
  <time>2026-09-01T01:18:08Z</time>
  <course>315.92</course>
  <speed>0.0</speed>
  <fix>3d</fix>
</trkpt>
<trkpt lat="33.810313" lon="-118.393867">
  <ele>-0.15</ele>
  <time>2026-09-01T01:18:08Z</time>
  <course>187.08</course>
  <speed>0.01414213562373095</speed>
  <fix>3d</fix>
</trkpt>
<trkpt lat="33.810313" lon="-118.393867">
  <ele>-0.13</ele>
  <time>2026-09-01T01:18:08Z</time>
  <course>317.29</course>
  <speed>0.0</speed>
  <fix>3d</fix>
</trkpt>
<trkpt lat="33.810313" lon="-118.393867">
  <ele>-0.166</ele>
  <time>2026-09-01T01:18:08Z</time>
  <course>187.07</course>
  <speed>0.01414213562373095</speed>
  <fix>3d</fix>
</trkpt>
<trkpt lat="33.810313" lon="-118.393867">
  <ele>-0.13</ele>
  <time>2026-09-01T01:18:08Z</time>
  <course>317.29</course>
  <speed>0.0</speed>
  <fix>3d</fix>
</trkpt>
<trkpt lat="33.810313" lon="-118.393867">
  <ele>-0.181</ele>
  <time>2026-09-01T01:18:08Z</time>
  <course>187.07</course>
  <speed>0.01414213562373095</speed>
  <fix>3d</fix>
</trkpt>
<trkpt lat="33.810313" lon="-118.393867">
  <ele>-0.15</ele>
  <time>2026-09-01T01:18:08Z</time>
  <course>317.38</course>
  <speed>0.0</speed>
  <fix>3d</fix>
</trkpt>
<trkpt lat="33.810313" lon="-118.393867">
  <ele>-0.195</ele>
  <time>2026-09-01T01:18:08Z</time>
  <course>187.06</course>
  <speed>0.01414213562373095</speed>
  <fix>3d</fix>
</trkpt>
<trkpt lat="33.810313" lon="-118.393867">
  <ele>-0.15</ele>
  <time>2026-09-01T01:18:08Z</time>
  <course>317.38</course>
  <speed>0.0</speed>
  <fix>3d</fix>
</trkpt>
<trkpt lat="33.810313" lon="-118.393867">
  <ele>-0.209</ele>
  <time>2026-09-01T01:18:08Z</time>
  <course>187.06</course>
  <speed>0.01414213562373095</speed>
  <fix>3d</fix>
</trkpt>
<trkpt lat="33.810313" lon="-118.393867">
  <ele>-0.18</ele>
  <time>2026-09-01T01:18:08Z</time>
  <course>317.3</course>
  <speed>0.0</speed>
  <fix>3d</fix>
</trkpt>
<trkpt lat="33.810313" lon="-118.393867">
  <ele>-0.22</ele>
  <time>2026-09-01T01:18:08Z</time>
  <course>187.05</course>
  <speed>0.01414213562373095</speed>
  <fix>3d</fix>
</trkpt>
<trkpt lat="33.810313" lon="-118.393867">
  <ele>-0.18</ele>
  <time>2026-09-01T01:18:08Z</time>
  <course>317.3</course>
  <speed>0.0</speed>
  <fix>3d</fix>
</trkpt>
<trkpt lat="33.810313" lon="-118.393867">
  <ele>-0.23</ele>
  <time>2026-09-01T01:18:08Z</time>
  <course>187.05</course>
  <speed>0.01414213562373095</speed>
  <fix>3d</fix>
</trkpt>
<trkpt lat="33.810313" lon="-118.393867">
  <ele>-0.21</ele>
  <time>2026-09-01T01:18:08Z</time>
  <course>317.09</course>
  <speed>0.0</speed>
  <fix>3d</fix>
</trkpt>
<trkpt lat="33.810313" lon="-118.393867">
  <ele>-0.235</ele>
  <time>2026-09-01T01:18:08Z</time>
  <course>187.83</course>
  <speed>0.01414213562373095</speed>
  <fix>3d</fix>
</trkpt>
<trkpt lat="33.810313" lon="-118.393867">
  <ele>-0.21</ele>
  <time>2026-09-01T01:18:08Z</time>
  <course>317.09</course>
  <speed>0.0</speed>
  <fix>3d</fix>
</trkpt>
<trkpt lat="33.810313" lon="-118.393867">
  <ele>-0.236</ele>
  <time>2026-09-01T01:18:08Z</time>
  <course>190.85</course>
  <speed>0.022360679774997897</speed>
  <fix>3d</fix>
</trkpt>
<trkpt lat="33.810313" lon="-118.393867">
  <ele>-0.22</ele>
  <time>2026-09-01T01:18:08Z</time>
  <course>282.62</course>
  <speed>0.0</speed>
  <fix>3d</fix>
</trkpt>
<trkpt lat="33.810313" lon="-118.393867">
  <ele>-0.234</ele>
  <time>2026-09-01T01:18:08Z</time>
  <course>195.43</course>
  <speed>0.022360679774997897</speed>
  <fix>3d</fix>
</trkpt>
<trkpt lat="33.810313" lon="-118.393867">
  <ele>-0.22</ele>
  <time>2026-09-01T01:18:08Z</time>
  <course>282.62</course>
  <speed>0.0</speed>
  <fix>3d</fix>
</trkpt>
<trkpt lat="33.810313" lon="-118.393867">
  <ele>-0.231</ele>
  <time>2026-09-01T01:18:08Z</time>
  <course>200.2</course>
  <speed>0.022360679774997897</speed>
  <fix>3d</fix>
</trkpt>
<trkpt lat="33.810313" lon="-118.393867">
  <ele>-0.23</ele>
  <time>2026-09-01T01:18:08Z</time>
  <course>284.66</course>
  <speed>0.0</speed>
  <fix>3d</fix>
</trkpt>
<trkpt lat="33.810313" lon="-118.393867">
  <ele>-0.229</ele>
  <time>2026-09-01T01:18:08Z</time>
  <course>204.94</course>
  <speed>0.01414213562373095</speed>
  <fix>3d</fix>
</trkpt>
<trkpt lat="33.810313" lon="-118.393867">
  <ele>-0.23</ele>
  <time>2026-09-01T01:18:08Z</time>
  <course>284.66</course>
  <speed>0.0</speed>
  <fix>3d</fix>
</trkpt>
<trkpt lat="33.810313" lon="-118.393867">
  <ele>-0.226</ele>
  <time>2026-09-01T01:18:08Z</time>
  <course>209.78</course>
  <speed>0.01</speed>
  <fix>3d</fix>
</trkpt>
<trkpt lat="33.810313" lon="-118.393867">
  <ele>-0.22</ele>
  <time>2026-09-01T01:18:08Z</time>
  <course>280.9</course>
  <speed>0.0</speed>
  <fix>3d</fix>
</trkpt>
<trkpt lat="33.810313" lon="-118.393867">
  <ele>-0.224</ele>
  <time>2026-09-01T01:18:08Z</time>
  <course>214.73</course>
  <speed>0.0</speed>
  <fix>3d</fix>
</trkpt>
<trkpt lat="33.810313" lon="-118.393867">
  <ele>-0.22</ele>
  <time>2026-09-01T01:18:08Z</time>
  <course>280.9</course>
  <speed>0.0</speed>
  <fix>3d</fix>
</trkpt>
<trkpt lat="33.810313" lon="-118.393867">
  <ele>-0.222</ele>
  <time>2026-09-01T01:18:08Z</time>
  <course>219.83</course>
  <speed>0.01</speed>
  <fix>3d</fix>
</trkpt>
<trkpt lat="33.810313" lon="-118.393867">
  <ele>-0.22</ele>
  <time>2026-09-01T01:18:08Z</time>
  <course>171.92</course>
  <speed>0.0</speed>
  <fix>3d</fix>
</trkpt>
<trkpt lat="33.810313" lon="-118.393867">
  <ele>-0.221</ele>
  <time>2026-09-01T01:18:08Z</time>
  <course>225.05</course>
  <speed>0.022360679774997897</speed>
  <fix>3d</fix>
</trkpt>
<trkpt lat="33.810313" lon="-118.393867">
  <ele>-0.22</ele>
  <time>2026-09-01T01:18:08Z</time>
  <course>171.92</course>
  <speed>0.0</speed>
  <fix>3d</fix>
</trkpt>
<trkpt lat="33.810313" lon="-118.393867">
  <ele>-0.22</ele>
  <time>2026-09-01T01:18:08Z</time>
  <course>230.39</course>
  <speed>0.0316227766016838</speed>
  <fix>3d</fix>
</trkpt>
<trkpt lat="33.810313" lon="-118.393867">
  <ele>-0.22</ele>
  <time>2026-09-01T01:18:08Z</time>
  <course>142.43</course>
  <speed>0.02</speed>
  <fix>3d</fix>
</trkpt>
<trkpt lat="33.810313" lon="-118.393867">
  <ele>-0.22</ele>
  <time>2026-09-01T01:18:08Z</time>
  <course>235.81</course>
  <speed>0.053851648071345036</speed>
  <fix>3d</fix>
</trkpt>
<trkpt lat="33.810313" lon="-118.393867">
  <ele>-0.22</ele>
  <time>2026-09-01T01:18:08Z</time>
  <course>142.43</course>
  <speed>0.02</speed>
  <fix>3d</fix>
</trkpt>
<trkpt lat="33.8103129" lon="-118.393867">
  <ele>-0.222</ele>
  <time>2026-09-01T01:18:08Z</time>
  <course>241.31</course>
  <speed>0.0632455532033676</speed>
  <fix>3d</fix>
</trkpt>
<trkpt lat="33.8103129" lon="-118.393867">
  <ele>-0.22</ele>
  <time>2026-09-01T01:18:08Z</time>
  <course>143.6</course>
  <speed>0.05</speed>
  <fix>3d</fix>
</trkpt>
<trkpt lat="33.8103129" lon="-118.393867">
  <ele>-0.226</ele>
  <time>2026-09-01T01:18:08Z</time>
  <course>246.88</course>
  <speed>0.06082762530298219</speed>
  <fix>3d</fix>
</trkpt>
<trkpt lat="33.8103129" lon="-118.393867">
  <ele>-0.22</ele>
  <time>2026-09-01T01:18:08Z</time>
  <course>143.6</course>
  <speed>0.05</speed>
  <fix>3d</fix>
</trkpt>
<trkpt lat="33.8103128" lon="-118.393867">
  <ele>-0.23</ele>
  <time>2026-09-01T01:18:08Z</time>
  <course>252.5</course>
  <speed>0.06082762530298219</speed>
  <fix>3d</fix>
</trkpt>
<trkpt lat="33.8103128" lon="-118.3938669">
  <ele>-0.23</ele>
  <time>2026-09-01T01:18:08Z</time>
  <course>146.89</course>
  <speed>0.07</speed>
  <fix>3d</fix>
</trkpt>
<trkpt lat="33.8103127" lon="-118.393867">
  <ele>-0.235</ele>
  <time>2026-09-01T01:18:08Z</time>
  <course>258.17</course>
  <speed>0.06082762530298219</speed>
  <fix>3d</fix>
</trkpt>
<trkpt lat="33.8103128" lon="-118.3938669">
  <ele>-0.23</ele>
  <time>2026-09-01T01:18:08Z</time>
  <course>146.89</course>
  <speed>0.07</speed>
  <fix>3d</fix>
</trkpt>
<trkpt lat="33.8103127" lon="-118.393867">
  <ele>-0.24</ele>
  <time>2026-09-01T01:18:08Z</time>
  <course>263.89</course>
  <speed>0.06</speed>
  <fix>3d</fix>
</trkpt>
<trkpt lat="33.8103127" lon="-118.3938668">
  <ele>-0.23</ele>
  <time>2026-09-01T01:18:08Z</time>
  <course>148.49</course>
  <speed>0.07</speed>
  <fix>3d</fix>
</trkpt>
<trkpt lat="33.8103126" lon="-118.3938669">
  <ele>-0.243</ele>
  <time>2026-09-01T01:18:08Z</time>
  <course>269.65</course>
  <speed>0.05</speed>
  <fix>3d</fix>
</trkpt>
<trkpt lat="33.8103127" lon="-118.3938668">
  <ele>-0.23</ele>
  <time>2026-09-01T01:18:08Z</time>
  <course>148.49</course>
  <speed>0.07</speed>
  <fix>3d</fix>
</trkpt>
<trkpt lat="33.8103126" lon="-118.3938669">
  <ele>-0.244</ele>
  <time>2026-09-01T01:18:08Z</time>
  <course>275.44</course>
  <speed>0.04</speed>
  <fix>3d</fix>
</trkpt>
<trkpt lat="33.8103126" lon="-118.3938667">
  <ele>-0.24</ele>
  <time>2026-09-01T01:18:08Z</time>
  <course>145.52</course>
  <speed>0.07</speed>
  <fix>3d</fix>
</trkpt>
<trkpt lat="33.8103126" lon="-118.3938669">
  <ele>-0.242</ele>
  <time>2026-09-01T01:18:08Z</time>
  <course>281.27</course>
  <speed>0.03</speed>
  <fix>3d</fix>
</trkpt>
<trkpt lat="33.8103126" lon="-118.3938667">
  <ele>-0.24</ele>
  <time>2026-09-01T01:18:08Z</time>
  <course>145.52</course>
  <speed>0.07</speed>
  <fix>3d</fix>
</trkpt>
<trkpt lat="33.8103125" lon="-118.3938669">
  <ele>-0.239</ele>
  <time>2026-09-01T01:18:08Z</time>
  <course>287.14</course>
  <speed>0.03</speed>
  <fix>3d</fix>
</trkpt>
<trkpt lat="33.8103125" lon="-118.3938666">
  <ele>-0.24</ele>
  <time>2026-09-01T01:18:08Z</time>
  <course>137.63</course>
  <speed>0.06</speed>
  <fix>3d</fix>
</trkpt>
<trkpt lat="33.8103125" lon="-118.3938668">
  <ele>-0.235</ele>
  <time>2026-09-01T01:18:08Z</time>
  <course>293.03</course>
  <speed>0.04</speed>
  <fix>3d</fix>
</trkpt>
<trkpt lat="33.8103125" lon="-118.3938666">
  <ele>-0.24</ele>
  <time>2026-09-01T01:18:08Z</time>
  <course>137.63</course>
  <speed>0.06</speed>
  <fix>3d</fix>
</trkpt>
<trkpt lat="33.8103125" lon="-118.3938668">
  <ele>-0.232</ele>
  <time>2026-09-01T01:18:08Z</time>
  <course>299.01</course>
  <speed>0.0412310562561766</speed>
  <fix>3d</fix>
</trkpt>
<trkpt lat="33.8103125" lon="-118.3938666">
  <ele>-0.23</ele>
  <time>2026-09-01T01:18:08Z</time>
  <course>136.52</course>
  <speed>0.05</speed>
  <fix>3d</fix>
</trkpt>
<trkpt lat="33.8103124" lon="-118.3938668">
  <ele>-0.23</ele>
  <time>2026-09-01T01:18:08Z</time>
  <course>304.96</course>
  <speed>0.053851648071345036</speed>
  <fix>3d</fix>
</trkpt>
<trkpt lat="33.8103125" lon="-118.3938666">
  <ele>-0.23</ele>
  <time>2026-09-01T01:18:08Z</time>
  <course>136.52</course>
  <speed>0.05</speed>
  <fix>3d</fix>
</trkpt>
<trkpt lat="33.8103124" lon="-118.3938668">
  <ele>-0.229</ele>
  <time>2026-09-01T01:18:08Z</time>
  <course>310.94</course>
  <speed>0.06403124237432849</speed>
  <fix>3d</fix>
</trkpt>
<trkpt lat="33.8103124" lon="-118.3938665">
  <ele>-0.23</ele>
  <time>2026-09-01T01:18:08Z</time>
  <course>151.77</course>
  <speed>0.05</speed>
  <fix>3d</fix>
</trkpt>
<trkpt lat="33.8103123" lon="-118.3938668">
  <ele>-0.229</ele>
  <time>2026-09-01T01:18:08Z</time>
  <course>316.94</course>
  <speed>0.07810249675906654</speed>
  <fix>3d</fix>
</trkpt>
<trkpt lat="33.8103124" lon="-118.3938665">
  <ele>-0.23</ele>
  <time>2026-09-01T01:18:08Z</time>
  <course>151.77</course>
  <speed>0.05</speed>
  <fix>3d</fix>
</trkpt>
<trkpt lat="33.8103123" lon="-118.3938668">
  <ele>-0.23</ele>
  <time>2026-09-01T01:18:08Z</time>
  <course>322.96</course>
  <speed>0.0848528137423857</speed>
  <fix>3d</fix>
</trkpt>
<trkpt lat="33.8103123" lon="-118.3938665">
  <ele>-0.23</ele>
  <time>2026-09-01T01:18:08Z</time>
  <course>171.78</course>
  <speed>0.06</speed>
  <fix>3d</fix>
</trkpt>
<trkpt lat="33.8103122" lon="-118.3938668">
  <ele>-0.229</ele>
  <time>2026-09-01T01:18:08Z</time>
  <course>329.0</course>
  <speed>0.09219544457292887</speed>
  <fix>3d</fix>
</trkpt>
<trkpt lat="33.8103123" lon="-118.3938665">
  <ele>-0.23</ele>
  <time>2026-09-01T01:18:08Z</time>
  <course>171.78</course>
  <speed>0.06</speed>
  <fix>3d</fix>
</trkpt>
<trkpt lat="33.8103122" lon="-118.3938668">
  <ele>-0.23</ele>
  <time>2026-09-01T01:18:08Z</time>
  <course>334.91</course>
  <speed>0.09219544457292887</speed>
  <fix>3d</fix>
</trkpt>
<trkpt lat="33.8103122" lon="-118.3938665">
  <ele>-0.23</ele>
  <time>2026-09-01T01:18:08Z</time>
  <course>186.26</course>
  <speed>0.06</speed>
  <fix>3d</fix>
</trkpt>
<trkpt lat="33.8103121" lon="-118.3938668">
  <ele>-0.23</ele>
  <time>2026-09-01T01:18:08Z</time>
  <course>339.73</course>
  <speed>0.09433981132056603</speed>
  <fix>3d</fix>
</trkpt>
<trkpt lat="33.8103122" lon="-118.3938665">
  <ele>-0.23</ele>
  <time>2026-09-01T01:18:08Z</time>
  <course>186.26</course>
  <speed>0.06</speed>
  <fix>3d</fix>
</trkpt>
<trkpt lat="33.8103121" lon="-118.3938669">
  <ele>-0.232</ele>
  <time>2026-09-01T01:18:08Z</time>
  <course>342.02</course>
  <speed>0.10295630140987001</speed>
  <fix>3d</fix>
</trkpt>
<trkpt lat="33.810312" lon="-118.3938665">
  <ele>-0.23</ele>
  <time>2026-09-01T01:18:08Z</time>
  <course>195.32</course>
  <speed>0.07</speed>
  <fix>3d</fix>
</trkpt>
<trkpt lat="33.810312" lon="-118.3938669">
  <ele>-0.232</ele>
  <time>2026-09-01T01:18:08Z</time>
  <course>343.11</course>
  <speed>0.10295630140987001</speed>
  <fix>3d</fix>
</trkpt>
<trkpt lat="33.810312" lon="-118.3938665">
  <ele>-0.23</ele>
  <time>2026-09-01T01:18:08Z</time>
  <course>195.32</course>
  <speed>0.07</speed>
  <fix>3d</fix>
</trkpt>
<trkpt lat="33.810312" lon="-118.393867">
  <ele>-0.232</ele>
  <time>2026-09-01T01:18:08Z</time>
  <course>345.13</course>
  <speed>0.1118033988749895</speed>
  <fix>3d</fix>
</trkpt>
<trkpt lat="33.8103119" lon="-118.3938665">
  <ele>-0.23</ele>
  <time>2026-09-01T01:18:08Z</time>
  <course>203.58</course>
  <speed>0.07</speed>
  <fix>3d</fix>
</trkpt>
<trkpt lat="33.8103119" lon="-118.393867">
  <ele>-0.232</ele>
  <time>2026-09-01T01:18:08Z</time>
  <course>347.66</course>
  <speed>0.10770329614269007</speed>
  <fix>3d</fix>
</trkpt>
<trkpt lat="33.8103119" lon="-118.3938665">
  <ele>-0.23</ele>
  <time>2026-09-01T01:18:08Z</time>
  <course>203.58</course>
  <speed>0.07</speed>
  <fix>3d</fix>
</trkpt>
<trkpt lat="33.8103118" lon="-118.3938671">
  <ele>-0.232</ele>
  <time>2026-09-01T01:18:08Z</time>
  <course>350.08</course>
  <speed>0.10770329614269007</speed>
  <fix>3d</fix>
</trkpt>
<trkpt lat="33.8103118" lon="-118.3938665">
  <ele>-0.23</ele>
  <time>2026-09-01T01:18:08Z</time>
  <course>209.08</course>
  <speed>0.07</speed>
  <fix>3d</fix>
</trkpt>
<trkpt lat="33.8103118" lon="-118.3938671">
  <ele>-0.231</ele>
  <time>2026-09-01T01:18:08Z</time>
  <course>352.29</course>
  <speed>0.10770329614269007</speed>
  <fix>3d</fix>
</trkpt>
<trkpt lat="33.8103118" lon="-118.3938665">
  <ele>-0.23</ele>
  <time>2026-09-01T01:18:08Z</time>
  <course>209.08</course>
  <speed>0.07</speed>
  <fix>3d</fix>
</trkpt>
<trkpt lat="33.8103117" lon="-118.3938671">
  <ele>-0.228</ele>
  <time>2026-09-01T01:18:08Z</time>
  <course>354.27</course>
  <speed>0.09848857801796104</speed>
  <fix>3d</fix>
</trkpt>
<trkpt lat="33.8103117" lon="-118.3938666">
  <ele>-0.23</ele>
  <time>2026-09-01T01:18:08Z</time>
  <course>210.17</course>
  <speed>0.07</speed>
  <fix>3d</fix>
</trkpt>
<trkpt lat="33.8103117" lon="-118.3938672">
  <ele>-0.226</ele>
  <time>2026-09-01T01:18:08Z</time>
  <course>356.04</course>
  <speed>0.09848857801796104</speed>
  <fix>3d</fix>
</trkpt>
<trkpt lat="33.8103117" lon="-118.3938666">
  <ele>-0.23</ele>
  <time>2026-09-01T01:18:08Z</time>
  <course>210.17</course>
  <speed>0.07</speed>
  <fix>3d</fix>
</trkpt>
<trkpt lat="33.8103116" lon="-118.3938672">
  <ele>-0.223</ele>
  <time>2026-09-01T01:18:08Z</time>
  <course>357.59</course>
  <speed>0.09848857801796104</speed>
  <fix>3d</fix>
</trkpt>
<trkpt lat="33.8103115" lon="-118.3938667">
  <ele>-0.23</ele>
  <time>2026-09-01T01:18:08Z</time>
  <course>210.56</course>
  <speed>0.06</speed>
  <fix>3d</fix>
</trkpt>
<trkpt lat="33.8103116" lon="-118.3938672">
  <ele>-0.222</ele>
  <time>2026-09-01T01:18:08Z</time>
  <course>358.87</course>
  <speed>0.09848857801796104</speed>
  <fix>3d</fix>
</trkpt>
<trkpt lat="33.8103115" lon="-118.3938667">
  <ele>-0.23</ele>
  <time>2026-09-01T01:18:08Z</time>
  <course>210.56</course>
  <speed>0.06</speed>
  <fix>3d</fix>
</trkpt>
<trkpt lat="33.8103115" lon="-118.3938673">
  <ele>-0.22</ele>
  <time>2026-09-01T01:18:08Z</time>
  <course>359.76</course>
  <speed>0.09486832980505139</speed>
  <fix>3d</fix>
</trkpt>
<trkpt lat="33.8103114" lon="-118.3938667">
  <ele>-0.23</ele>
  <time>2026-09-01T01:18:08Z</time>
  <course>210.94</course>
  <speed>0.06</speed>
  <fix>3d</fix>
</trkpt>
<trkpt lat="33.8103115" lon="-118.3938673">
  <ele>-0.219</ele>
  <time>2026-09-01T01:18:08Z</time>
  <course>0.37</course>
  <speed>0.09486832980505139</speed>
  <fix>3d</fix>
</trkpt>
<trkpt lat="33.8103114" lon="-118.3938667">
  <ele>-0.23</ele>
  <time>2026-09-01T01:18:08Z</time>
  <course>210.94</course>
  <speed>0.06</speed>
  <fix>3d</fix>
</trkpt>
<trkpt lat="33.8103114" lon="-118.3938673">
  <ele>-0.217</ele>
  <time>2026-09-01T01:18:08Z</time>
  <course>0.85</course>
  <speed>0.0854400374531753</speed>
  <fix>3d</fix>
</trkpt>
<trkpt lat="33.8103113" lon="-118.3938668">
  <ele>-0.23</ele>
  <time>2026-09-01T01:18:08Z</time>
  <course>211.27</course>
  <speed>0.06</speed>
  <fix>3d</fix>
</trkpt>
<trkpt lat="33.8103114" lon="-118.3938674">
  <ele>-0.216</ele>
  <time>2026-09-01T01:18:08Z</time>
  <course>1.24</course>
  <speed>0.0854400374531753</speed>
  <fix>3d</fix>
</trkpt>
<trkpt lat="33.8103113" lon="-118.3938668">
  <ele>-0.23</ele>
  <time>2026-09-01T01:18:08Z</time>
  <course>211.27</course>
  <speed>0.06</speed>
  <fix>3d</fix>
</trkpt>
<trkpt lat="33.8103113" lon="-118.3938674">
  <ele>-0.214</ele>
  <time>2026-09-01T01:18:08Z</time>
  <course>1.56</course>
  <speed>0.0854400374531753</speed>
  <fix>3d</fix>
</trkpt>
<trkpt lat="33.8103112" lon="-118.3938669">
  <ele>-0.22</ele>
  <time>2026-09-01T01:18:08Z</time>
  <course>211.61</course>
  <speed>0.05</speed>
  <fix>3d</fix>
</trkpt>
<trkpt lat="33.8103113" lon="-118.3938674">
  <ele>-0.211</ele>
  <time>2026-09-01T01:18:08Z</time>
  <course>1.83</course>
  <speed>0.0854400374531753</speed>
  <fix>3d</fix>
</trkpt>
<trkpt lat="33.8103112" lon="-118.3938669">
  <ele>-0.22</ele>
  <time>2026-09-01T01:18:08Z</time>
  <course>211.61</course>
  <speed>0.05</speed>
  <fix>3d</fix>
</trkpt>
<trkpt lat="33.8103112" lon="-118.3938674">
  <ele>-0.208</ele>
  <time>2026-09-01T01:18:08Z</time>
  <course>2.07</course>
  <speed>0.0854400374531753</speed>
  <fix>3d</fix>
</trkpt>
<trkpt lat="33.8103112" lon="-118.393867">
  <ele>-0.22</ele>
  <time>2026-09-01T01:18:08Z</time>
  <course>212.03</course>
  <speed>0.05</speed>
  <fix>3d</fix>
</trkpt>
<trkpt lat="33.8103112" lon="-118.3938675">
  <ele>-0.206</ele>
  <time>2026-09-01T01:18:08Z</time>
  <course>2.29</course>
  <speed>0.0854400374531753</speed>
  <fix>3d</fix>
</trkpt>
<trkpt lat="33.8103112" lon="-118.393867">
  <ele>-0.22</ele>
  <time>2026-09-01T01:18:08Z</time>
  <course>212.03</course>
  <speed>0.05</speed>
  <fix>3d</fix>
</trkpt>
<trkpt lat="33.8103112" lon="-118.3938675">
  <ele>-0.205</ele>
  <time>2026-09-01T01:18:08Z</time>
  <course>2.48</course>
  <speed>0.07615773105863909</speed>
  <fix>3d</fix>
</trkpt>
<trkpt lat="33.8103111" lon="-118.393867">
  <ele>-0.22</ele>
  <time>2026-09-01T01:18:08Z</time>
  <course>212.53</course>
  <speed>0.05</speed>
  <fix>3d</fix>
</trkpt>
<trkpt lat="33.8103111" lon="-118.3938675">
  <ele>-0.205</ele>
  <time>2026-09-01T01:18:08Z</time>
  <course>2.66</course>
  <speed>0.07615773105863909</speed>
  <fix>3d</fix>
</trkpt>
<trkpt lat="33.8103111" lon="-118.393867">
  <ele>-0.22</ele>
  <time>2026-09-01T01:18:08Z</time>
  <course>212.53</course>
  <speed>0.05</speed>
  <fix>3d</fix>
</trkpt>
<trkpt lat="33.8103111" lon="-118.3938675">
  <ele>-0.207</ele>
  <time>2026-09-01T01:18:08Z</time>
  <course>2.82</course>
  <speed>0.07615773105863909</speed>
  <fix>3d</fix>
</trkpt>
<trkpt lat="33.810311" lon="-118.3938671">
  <ele>-0.22</ele>
  <time>2026-09-01T01:18:08Z</time>
  <course>213.16</course>
  <speed>0.05</speed>
  <fix>3d</fix>
</trkpt>
<trkpt lat="33.810311" lon="-118.3938675">
  <ele>-0.209</ele>
  <time>2026-09-01T01:18:08Z</time>
  <course>2.97</course>
  <speed>0.07615773105863909</speed>
  <fix>3d</fix>
</trkpt>
<trkpt lat="33.810311" lon="-118.3938671">
  <ele>-0.22</ele>
  <time>2026-09-01T01:18:08Z</time>
  <course>213.16</course>
  <speed>0.05</speed>
  <fix>3d</fix>
</trkpt>
<trkpt lat="33.810311" lon="-118.3938676">
  <ele>-0.211</ele>
  <time>2026-09-01T01:18:08Z</time>
  <course>3.11</course>
  <speed>0.07615773105863909</speed>
  <fix>3d</fix>
</trkpt>
<trkpt lat="33.8103109" lon="-118.3938671">
  <ele>-0.22</ele>
  <time>2026-09-01T01:18:08Z</time>
  <course>213.8</course>
  <speed>0.04</speed>
  <fix>3d</fix>
</trkpt>
<trkpt lat="33.810311" lon="-118.3938676">
  <ele>-0.212</ele>
  <time>2026-09-01T01:18:08Z</time>
  <course>3.24</course>
  <speed>0.0670820393249937</speed>
  <fix>3d</fix>
</trkpt>
<trkpt lat="33.8103109" lon="-118.3938671">
  <ele>-0.22</ele>
  <time>2026-09-01T01:18:08Z</time>
  <course>213.8</course>
  <speed>0.04</speed>
  <fix>3d</fix>
</trkpt>
<trkpt lat="33.8103109" lon="-118.3938676">
  <ele>-0.213</ele>
  <time>2026-09-01T01:18:08Z</time>
  <course>3.36</course>
  <speed>0.0670820393249937</speed>
  <fix>3d</fix>
</trkpt>
<trkpt lat="33.8103109" lon="-118.3938672">
  <ele>-0.22</ele>
  <time>2026-09-01T01:18:08Z</time>
  <course>214.32</course>
  <speed>0.04</speed>
  <fix>3d</fix>
</trkpt>
<trkpt lat="33.8103109" lon="-118.3938676">
  <ele>-0.214</ele>
  <time>2026-09-01T01:18:08Z</time>
  <course>3.48</course>
  <speed>0.0670820393249937</speed>
  <fix>3d</fix>
</trkpt>
<trkpt lat="33.8103109" lon="-118.3938672">
  <ele>-0.22</ele>
  <time>2026-09-01T01:18:08Z</time>
  <course>214.32</course>
  <speed>0.04</speed>
  <fix>3d</fix>
</trkpt>
<trkpt lat="33.8103109" lon="-118.3938676">
  <ele>-0.215</ele>
  <time>2026-09-01T01:18:08Z</time>
  <course>3.59</course>
  <speed>0.0670820393249937</speed>
  <fix>3d</fix>
</trkpt>
<trkpt lat="33.8103108" lon="-118.3938673">
  <ele>-0.22</ele>
  <time>2026-09-01T01:18:08Z</time>
  <course>214.72</course>
  <speed>0.04</speed>
  <fix>3d</fix>
</trkpt>
<trkpt lat="33.8103108" lon="-118.3938676">
  <ele>-0.217</ele>
  <time>2026-09-01T01:18:08Z</time>
  <course>3.69</course>
  <speed>0.053851648071345036</speed>
  <fix>3d</fix>
</trkpt>
<trkpt lat="33.8103108" lon="-118.3938673">
  <ele>-0.22</ele>
  <time>2026-09-01T01:18:08Z</time>
  <course>214.72</course>
  <speed>0.04</speed>
  <fix>3d</fix>
</trkpt>
<trkpt lat="33.8103108" lon="-118.3938676">
  <ele>-0.222</ele>
  <time>2026-09-01T01:18:08Z</time>
  <course>3.74</course>
  <speed>0.053851648071345036</speed>
  <fix>3d</fix>
</trkpt>
<trkpt lat="33.8103107" lon="-118.3938673">
  <ele>-0.22</ele>
  <time>2026-09-01T01:18:08Z</time>
  <course>215.5</course>
  <speed>0.04</speed>
  <fix>3d</fix>
</trkpt>
<trkpt lat="33.8103108" lon="-118.3938677">
  <ele>-0.227</ele>
  <time>2026-09-01T01:18:08Z</time>
  <course>3.47</course>
  <speed>0.053851648071345036</speed>
  <fix>3d</fix>
</trkpt>
<trkpt lat="33.8103107" lon="-118.3938673">
  <ele>-0.22</ele>
  <time>2026-09-01T01:18:08Z</time>
  <course>215.5</course>
  <speed>0.04</speed>
  <fix>3d</fix>
</trkpt>
<trkpt lat="33.8103107" lon="-118.3938677">
  <ele>-0.231</ele>
  <time>2026-09-01T01:18:08Z</time>
  <course>2.77</course>
  <speed>0.044721359549995794</speed>
  <fix>3d</fix>
</trkpt>
<trkpt lat="33.8103106" lon="-118.3938674">
  <ele>-0.22</ele>
  <time>2026-09-01T01:18:08Z</time>
  <course>215.55</course>
  <speed>0.04</speed>
  <fix>3d</fix>
</trkpt>
<trkpt lat="33.8103107" lon="-118.3938677">
  <ele>-0.235</ele>
  <time>2026-09-01T01:18:08Z</time>
  <course>1.9</course>
  <speed>0.03605551275463989</speed>
  <fix>3d</fix>
</trkpt>
<trkpt lat="33.8103106" lon="-118.3938674">
  <ele>-0.22</ele>
  <time>2026-09-01T01:18:08Z</time>
  <course>215.55</course>
  <speed>0.04</speed>
  <fix>3d</fix>
</trkpt>
<trkpt lat="33.8103107" lon="-118.3938677">
  <ele>-0.238</ele>
  <time>2026-09-01T01:18:08Z</time>
  <course>1.32</course>
  <speed>0.0282842712474619</speed>
  <fix>3d</fix>
</trkpt>
<trkpt lat="33.8103106" lon="-118.3938674">
  <ele>-0.23</ele>
  <time>2026-09-01T01:18:08Z</time>
  <course>206.24</course>
  <speed>0.03</speed>
  <fix>3d</fix>
</trkpt>
<trkpt lat="33.8103106" lon="-118.3938676">
  <ele>-0.239</ele>
  <time>2026-09-01T01:18:08Z</time>
  <course>1.11</course>
  <speed>0.022360679774997897</speed>
  <fix>3d</fix>
</trkpt>
<trkpt lat="33.8103106" lon="-118.3938674">
  <ele>-0.23</ele>
  <time>2026-09-01T01:18:08Z</time>
  <course>206.24</course>
  <speed>0.03</speed>
  <fix>3d</fix>
</trkpt>
<trkpt lat="33.8103106" lon="-118.3938676">
  <ele>-0.241</ele>
  <time>2026-09-01T01:18:08Z</time>
  <course>1.05</course>
  <speed>0.02</speed>
  <fix>3d</fix>
</trkpt>
<trkpt lat="33.8103106" lon="-118.3938675">
  <ele>-0.24</ele>
  <time>2026-09-01T01:18:08Z</time>
  <course>178.43</course>
  <speed>0.03</speed>
  <fix>3d</fix>
</trkpt>
<trkpt lat="33.8103106" lon="-118.3938676">
  <ele>-0.24</ele>
  <time>2026-09-01T01:18:08Z</time>
  <course>1.03</course>
  <speed>0.02</speed>
  <fix>3d</fix>
</trkpt>
<trkpt lat="33.8103106" lon="-118.3938675">
  <ele>-0.24</ele>
  <time>2026-09-01T01:18:08Z</time>
  <course>178.43</course>
  <speed>0.03</speed>
  <fix>3d</fix>
</trkpt>
<trkpt lat="33.8103106" lon="-118.3938676">
  <ele>-0.238</ele>
  <time>2026-09-01T01:18:08Z</time>
  <course>1.02</course>
  <speed>0.02</speed>
  <fix>3d</fix>
</trkpt>
<trkpt lat="33.8103105" lon="-118.3938674">
  <ele>-0.24</ele>
  <time>2026-09-01T01:18:08Z</time>
  <course>154.61</course>
  <speed>0.03</speed>
  <fix>3d</fix>
</trkpt>
<trkpt lat="33.8103105" lon="-118.3938676">
  <ele>-0.235</ele>
  <time>2026-09-01T01:18:08Z</time>
  <course>1.01</course>
  <speed>0.022360679774997897</speed>
  <fix>3d</fix>
</trkpt>
<trkpt lat="33.8103105" lon="-118.3938674">
  <ele>-0.24</ele>
  <time>2026-09-01T01:18:08Z</time>
  <course>154.61</course>
  <speed>0.03</speed>
  <fix>3d</fix>
</trkpt>
<trkpt lat="33.8103105" lon="-118.3938676">
  <ele>-0.232</ele>
  <time>2026-09-01T01:18:08Z</time>
  <course>0.99</course>
  <speed>0.044721359549995794</speed>
  <fix>3d</fix>
</trkpt>
<trkpt lat="33.8103104" lon="-118.3938674">
  <ele>-0.24</ele>
  <time>2026-09-01T01:18:08Z</time>
  <course>162.22</course>
  <speed>0.03</speed>
  <fix>3d</fix>
</trkpt>
<trkpt lat="33.8103105" lon="-118.3938676">
  <ele>-0.23</ele>
  <time>2026-09-01T01:18:08Z</time>
  <course>0.98</course>
  <speed>0.08062257748298549</speed>
  <fix>3d</fix>
</trkpt>
<trkpt lat="33.8103104" lon="-118.3938674">
  <ele>-0.24</ele>
  <time>2026-09-01T01:18:08Z</time>
  <course>162.22</course>
  <speed>0.03</speed>
  <fix>3d</fix>
</trkpt>
<trkpt lat="33.8103105" lon="-118.3938677">
  <ele>-0.228</ele>
  <time>2026-09-01T01:18:08Z</time>
  <course>0.96</course>
  <speed>0.12041594578792296</speed>
  <fix>3d</fix>
</trkpt>
<trkpt lat="33.8103104" lon="-118.3938674">
  <ele>-0.24</ele>
  <time>2026-09-01T01:18:08Z</time>
  <course>229.13</course>
  <speed>0.04</speed>
  <fix>3d</fix>
</trkpt>
<trkpt lat="33.8103104" lon="-118.3938678">
  <ele>-0.226</ele>
  <time>2026-09-01T01:18:08Z</time>
  <course>0.94</course>
  <speed>0.18027756377319945</speed>
  <fix>3d</fix>
</trkpt>
<trkpt lat="33.8103104" lon="-118.3938674">
  <ele>-0.24</ele>
  <time>2026-09-01T01:18:08Z</time>
  <course>229.13</course>
  <speed>0.04</speed>
  <fix>3d</fix>
</trkpt>
<trkpt lat="33.8103104" lon="-118.393868">
  <ele>-0.223</ele>
  <time>2026-09-01T01:18:08Z</time>
  <course>0.91</course>
  <speed>0.23021728866442676</speed>
  <fix>3d</fix>
</trkpt>
<trkpt lat="33.8103103" lon="-118.3938676">
  <ele>-0.23</ele>
  <time>2026-09-01T01:18:08Z</time>
  <course>256.24</course>
  <speed>0.12</speed>
  <fix>3d</fix>
</trkpt>
<trkpt lat="33.8103104" lon="-118.3938683">
  <ele>-0.22</ele>
  <time>2026-09-01T01:18:08Z</time>
  <course>0.89</course>
  <speed>0.28</speed>
  <fix>3d</fix>
</trkpt>
<trkpt lat="33.8103103" lon="-118.3938676">
  <ele>-0.23</ele>
  <time>2026-09-01T01:18:08Z</time>
  <course>256.24</course>
  <speed>0.12</speed>
  <fix>3d</fix>
</trkpt>
<trkpt lat="33.8103104" lon="-118.3938686">
  <ele>-0.216</ele>
  <time>2026-09-01T01:18:08Z</time>
  <course>0.87</course>
  <speed>0.32</speed>
  <fix>3d</fix>
</trkpt>
<trkpt lat="33.8103103" lon="-118.3938679">
  <ele>-0.23</ele>
  <time>2026-09-01T01:18:08Z</time>
  <course>262.36</course>
  <speed>0.22</speed>
  <fix>3d</fix>
</trkpt>
<trkpt lat="33.8103104" lon="-118.3938689">
  <ele>-0.212</ele>
  <time>2026-09-01T01:18:08Z</time>
  <course>0.85</course>
  <speed>0.37</speed>
  <fix>3d</fix>
</trkpt>
<trkpt lat="33.8103103" lon="-118.3938679">
  <ele>-0.23</ele>
  <time>2026-09-01T01:18:08Z</time>
  <course>262.36</course>
  <speed>0.22</speed>
  <fix>3d</fix>
</trkpt>
<trkpt lat="33.8103104" lon="-118.3938693">
  <ele>-0.208</ele>
  <time>2026-09-01T01:18:08Z</time>
  <course>0.84</course>
  <speed>0.41</speed>
  <fix>3d</fix>
</trkpt>
<trkpt lat="33.8103102" lon="-118.3938685">
  <ele>-0.22</ele>
  <time>2026-09-01T01:18:08Z</time>
  <course>264.57</course>
  <speed>0.31</speed>
  <fix>3d</fix>
</trkpt>
<trkpt lat="33.8103103" lon="-118.3938697">
  <ele>-0.204</ele>
  <time>2026-09-01T01:18:08Z</time>
  <course>0.82</course>
  <speed>0.44</speed>
  <fix>3d</fix>
</trkpt>
<trkpt lat="33.8103102" lon="-118.3938685">
  <ele>-0.22</ele>
  <time>2026-09-01T01:18:08Z</time>
  <course>264.57</course>
  <speed>0.31</speed>
  <fix>3d</fix>
</trkpt>
<trkpt lat="33.8103103" lon="-118.3938702">
  <ele>-0.198</ele>
  <time>2026-09-01T01:18:08Z</time>
  <course>0.79</course>
  <speed>0.47</speed>
  <fix>3d</fix>
</trkpt>
<trkpt lat="33.8103101" lon="-118.3938693">
  <ele>-0.21</ele>
  <time>2026-09-01T01:18:08Z</time>
  <course>265.63</course>
  <speed>0.39</speed>
  <fix>3d</fix>
</trkpt>
<trkpt lat="33.8103103" lon="-118.3938707">
  <ele>-0.192</ele>
  <time>2026-09-01T01:18:08Z</time>
  <course>0.78</course>
  <speed>0.5</speed>
  <fix>3d</fix>
</trkpt>
<trkpt lat="33.8103101" lon="-118.3938693">
  <ele>-0.21</ele>
  <time>2026-09-01T01:18:08Z</time>
  <course>265.63</course>
  <speed>0.39</speed>
  <fix>3d</fix>
</trkpt>
<trkpt lat="33.8103103" lon="-118.3938712">
  <ele>-0.186</ele>
  <time>2026-09-01T01:18:08Z</time>
  <course>0.77</course>
  <speed>0.5300943312279428</speed>
  <fix>3d</fix>
</trkpt>
<trkpt lat="33.8103101" lon="-118.3938702">
  <ele>-0.2</ele>
  <time>2026-09-01T01:18:08Z</time>
  <course>266.24</course>
  <speed>0.46</speed>
  <fix>3d</fix>
</trkpt>
<trkpt lat="33.8103103" lon="-118.3938718">
  <ele>-0.18</ele>
  <time>2026-09-01T01:18:08Z</time>
  <course>0.77</course>
  <speed>0.5500909015790026</speed>
  <fix>3d</fix>
</trkpt>
<trkpt lat="33.8103101" lon="-118.3938702">
  <ele>-0.2</ele>
  <time>2026-09-01T01:18:08Z</time>
  <course>266.24</course>
  <speed>0.46</speed>
  <fix>3d</fix>
</trkpt>
<trkpt lat="33.8103103" lon="-118.3938723">
  <ele>-0.174</ele>
  <time>2026-09-01T01:18:08Z</time>
  <course>0.77</course>
  <speed>0.5800862004909271</speed>
  <fix>3d</fix>
</trkpt>
<trkpt lat="33.81031" lon="-118.3938712">
  <ele>-0.19</ele>
  <time>2026-09-01T01:18:08Z</time>
  <course>266.64</course>
  <speed>0.51</speed>
  <fix>3d</fix>
</trkpt>
<trkpt lat="33.8103103" lon="-118.3938729">
  <ele>-0.168</ele>
  <time>2026-09-01T01:18:08Z</time>
  <course>0.78</course>
  <speed>0.5900847396772771</speed>
  <fix>3d</fix>
</trkpt>
<trkpt lat="33.81031" lon="-118.3938712">
  <ele>-0.19</ele>
  <time>2026-09-01T01:18:08Z</time>
  <course>266.64</course>
  <speed>0.51</speed>
  <fix>3d</fix>
</trkpt>
<trkpt lat="33.8103103" lon="-118.3938736">
  <ele>-0.161</ele>
  <time>2026-09-01T01:18:08Z</time>
  <course>0.76</course>
  <speed>0.6003332407921453</speed>
  <fix>3d</fix>
</trkpt>
<trkpt lat="33.81031" lon="-118.3938724">
  <ele>-0.18</ele>
  <time>2026-09-01T01:18:08Z</time>
  <course>266.9</course>
  <speed>0.56</speed>
  <fix>3d</fix>
</trkpt>
<trkpt lat="33.8103102" lon="-118.3938742">
  <ele>-0.154</ele>
  <time>2026-09-01T01:18:08Z</time>
  <course>0.74</course>
  <speed>0.6003332407921453</speed>
  <fix>3d</fix>
</trkpt>
<trkpt lat="33.81031" lon="-118.3938724">
  <ele>-0.18</ele>
  <time>2026-09-01T01:18:08Z</time>
  <course>266.9</course>
  <speed>0.56</speed>
  <fix>3d</fix>
</trkpt>
<trkpt lat="33.8103102" lon="-118.3938748">
  <ele>-0.147</ele>
  <time>2026-09-01T01:18:08Z</time>
  <course>0.7</course>
  <speed>0.6103277807866851</speed>
  <fix>3d</fix>
</trkpt>
<trkpt lat="33.81031" lon="-118.3938737">
  <ele>-0.16</ele>
  <time>2026-09-01T01:18:08Z</time>
  <course>267.04</course>
  <speed>0.58</speed>
  <fix>3d</fix>
</trkpt>
<trkpt lat="33.8103102" lon="-118.3938755">
  <ele>-0.139</ele>
  <time>2026-09-01T01:18:08Z</time>
  <course>0.67</course>
  <speed>0.630317380372777</speed>
  <fix>3d</fix>
</trkpt>
<trkpt lat="33.81031" lon="-118.3938737">
  <ele>-0.16</ele>
  <time>2026-09-01T01:18:08Z</time>
  <course>267.04</course>
  <speed>0.58</speed>
  <fix>3d</fix>
</trkpt>
<trkpt lat="33.8103102" lon="-118.3938761">
  <ele>-0.13</ele>
  <time>2026-09-01T01:18:08Z</time>
  <course>0.63</course>
  <speed>0.6506919393998976</speed>
  <fix>3d</fix>
</trkpt>
<trkpt lat="33.8103099" lon="-118.3938749">
  <ele>-0.15</ele>
  <time>2026-09-01T01:18:08Z</time>
  <course>267.17</course>
  <speed>0.6</speed>
  <fix>3d</fix>
</trkpt>
<trkpt lat="33.8103102" lon="-118.3938768">
  <ele>-0.121</ele>
  <time>2026-09-01T01:18:08Z</time>
  <course>0.72</course>
  <speed>0.6606814663663572</speed>
  <fix>3d</fix>
</trkpt>
<trkpt lat="33.8103099" lon="-118.3938749">
  <ele>-0.15</ele>
  <time>2026-09-01T01:18:08Z</time>
  <course>267.17</course>
  <speed>0.6</speed>
  <fix>3d</fix>
</trkpt>
<trkpt lat="33.8103102" lon="-118.3938776">
  <ele>-0.111</ele>
  <time>2026-09-01T01:18:08Z</time>
  <course>1.64</course>
  <speed>0.840535543567314</speed>
  <fix>3d</fix>
</trkpt>
<trkpt lat="33.8103099" lon="-118.3938762">
  <ele>-0.13</ele>
  <time>2026-09-01T01:18:08Z</time>
  <course>267.31</course>
  <speed>0.63</speed>
  <fix>3d</fix>
</trkpt>
<trkpt lat="33.8103102" lon="-118.3938786">
  <ele>-0.109</ele>
  <time>2026-09-01T01:18:08Z</time>
  <course>3.39</course>
  <speed>0.9908077512817509</speed>
  <fix>3d</fix>
</trkpt>
<trkpt lat="33.8103099" lon="-118.3938762">
  <ele>-0.13</ele>
  <time>2026-09-01T01:18:08Z</time>
  <course>267.31</course>
  <speed>0.63</speed>
  <fix>3d</fix>
</trkpt>
<trkpt lat="33.8103102" lon="-118.3938796">
  <ele>-0.113</ele>
  <time>2026-09-01T01:18:08Z</time>
  <course>5.05</course>
  <speed>0.9204890004774636</speed>
  <fix>3d</fix>
</trkpt>
<trkpt lat="33.8103098" lon="-118.3938779">
  <ele>-0.12</ele>
  <time>2026-09-01T01:18:08Z</time>
  <course>267.75</course>
  <speed>0.81</speed>
  <fix>3d</fix>
</trkpt>
<trkpt lat="33.8103102" lon="-118.3938805">
  <ele>-0.128</ele>
  <time>2026-09-01T01:18:08Z</time>
  <course>5.74</course>
  <speed>0.8605230967266364</speed>
  <fix>3d</fix>
</trkpt>
<trkpt lat="33.8103098" lon="-118.3938779">
  <ele>-0.12</ele>
  <time>2026-09-01T01:18:08Z</time>
  <course>267.75</course>
  <speed>0.81</speed>
  <fix>3d</fix>
</trkpt>
<trkpt lat="33.8103102" lon="-118.3938813">
  <ele>-0.158</ele>
  <time>2026-09-01T01:18:08Z</time>
  <course>5.46</course>
  <speed>0.7502666192761077</speed>
  <fix>3d</fix>
</trkpt>
<trkpt lat="33.8103097" lon="-118.3938798">
  <ele>-0.13</ele>
  <time>2026-09-01T01:18:08Z</time>
  <course>267.62</course>
  <speed>0.9</speed>
  <fix>3d</fix>
</trkpt>
<trkpt lat="33.8103101" lon="-118.393882">
  <ele>-0.191</ele>
  <time>2026-09-01T01:18:08Z</time>
  <course>4.93</course>
  <speed>0.5900847396772771</speed>
  <fix>3d</fix>
</trkpt>
<trkpt lat="33.8103097" lon="-118.3938798">
  <ele>-0.13</ele>
  <time>2026-09-01T01:18:08Z</time>
  <course>267.62</course>
  <speed>0.9</speed>
  <fix>3d</fix>
</trkpt>
<trkpt lat="33.8103101" lon="-118.3938825">
  <ele>-0.221</ele>
  <time>2026-09-01T01:18:08Z</time>
  <course>4.46</course>
  <speed>0.46010868281309364</speed>
  <fix>3d</fix>
</trkpt>
<trkpt lat="33.8103097" lon="-118.3938815">
  <ele>-0.17</ele>
  <time>2026-09-01T01:18:08Z</time>
  <course>266.11</course>
  <speed>0.69</speed>
  <fix>3d</fix>
</trkpt>
<trkpt lat="33.81031" lon="-118.393883">
  <ele>-0.246</ele>
  <time>2026-09-01T01:18:08Z</time>
  <course>4.06</course>
  <speed>0.37013511046643494</speed>
  <fix>3d</fix>
</trkpt>
<trkpt lat="33.8103097" lon="-118.3938815">
  <ele>-0.17</ele>
  <time>2026-09-01T01:18:08Z</time>
  <course>266.11</course>
  <speed>0.69</speed>
  <fix>3d</fix>
</trkpt>
<trkpt lat="33.81031" lon="-118.3938833">
  <ele>-0.267</ele>
  <time>2026-09-01T01:18:08Z</time>
  <course>3.73</course>
  <speed>0.3101612483854165</speed>
  <fix>3d</fix>
</trkpt>
<trkpt lat="33.8103096" lon="-118.3938828">
  <ele>-0.22</ele>
  <time>2026-09-01T01:18:08Z</time>
  <course>262.96</course>
  <speed>0.45</speed>
  <fix>3d</fix>
</trkpt>
<trkpt lat="33.81031" lon="-118.3938836">
  <ele>-0.282</ele>
  <time>2026-09-01T01:18:08Z</time>
  <course>3.42</course>
  <speed>0.2601922366251538</speed>
  <fix>3d</fix>
</trkpt>
<trkpt lat="33.8103096" lon="-118.3938828">
  <ele>-0.22</ele>
  <time>2026-09-01T01:18:08Z</time>
  <course>262.96</course>
  <speed>0.45</speed>
  <fix>3d</fix>
</trkpt>
<trkpt lat="33.8103099" lon="-118.3938839">
  <ele>-0.294</ele>
  <time>2026-09-01T01:18:08Z</time>
  <course>3.16</course>
  <speed>0.23021728866442676</speed>
  <fix>3d</fix>
</trkpt>
<trkpt lat="33.8103095" lon="-118.3938836">
  <ele>-0.26</ele>
  <time>2026-09-01T01:18:08Z</time>
  <course>259.07</course>
  <speed>0.31</speed>
  <fix>3d</fix>
</trkpt>
<trkpt lat="33.8103099" lon="-118.3938842">
  <ele>-0.304</ele>
  <time>2026-09-01T01:18:08Z</time>
  <course>2.92</course>
  <speed>0.2002498439450079</speed>
  <fix>3d</fix>
</trkpt>
<trkpt lat="33.8103095" lon="-118.3938836">
  <ele>-0.26</ele>
  <time>2026-09-01T01:18:08Z</time>
  <course>259.07</course>
  <speed>0.31</speed>
  <fix>3d</fix>
</trkpt>
<trkpt lat="33.8103098" lon="-118.3938844">
  <ele>-0.31</ele>
  <time>2026-09-01T01:18:08Z</time>
  <course>2.72</course>
  <speed>0.17029386365926402</speed>
  <fix>3d</fix>
</trkpt>
<trkpt lat="33.8103093" lon="-118.3938841">
  <ele>-0.28</ele>
  <time>2026-09-01T01:18:08Z</time>
  <course>255.53</course>
  <speed>0.23</speed>
  <fix>3d</fix>
</trkpt>
<trkpt lat="33.8103098" lon="-118.3938846">
  <ele>-0.312</ele>
  <time>2026-09-01T01:18:08Z</time>
  <course>2.53</course>
  <speed>0.16031219541881397</speed>
  <fix>3d</fix>
</trkpt>
<trkpt lat="33.8103093" lon="-118.3938841">
  <ele>-0.28</ele>
  <time>2026-09-01T01:18:08Z</time>
  <course>255.53</course>
  <speed>0.23</speed>
  <fix>3d</fix>
</trkpt>
<trkpt lat="33.8103097" lon="-118.3938847">
  <ele>-0.311</ele>
  <time>2026-09-01T01:18:08Z</time>
  <course>2.35</course>
  <speed>0.140356688476182</speed>
  <fix>3d</fix>
</trkpt>
<trkpt lat="33.8103092" lon="-118.3938846">
  <ele>-0.29</ele>
  <time>2026-09-01T01:18:08Z</time>
  <course>252.38</course>
  <speed>0.18</speed>
  <fix>3d</fix>
</trkpt>
<trkpt lat="33.8103097" lon="-118.3938849">
  <ele>-0.305</ele>
  <time>2026-09-01T01:18:08Z</time>
  <course>2.17</course>
  <speed>0.130384048104053</speed>
  <fix>3d</fix>
</trkpt>
<trkpt lat="33.8103092" lon="-118.3938846">
  <ele>-0.29</ele>
  <time>2026-09-01T01:18:08Z</time>
  <course>252.38</course>
  <speed>0.18</speed>
  <fix>3d</fix>
</trkpt>
<trkpt lat="33.8103097" lon="-118.393885">
  <ele>-0.298</ele>
  <time>2026-09-01T01:18:08Z</time>
  <course>2.0</course>
  <speed>0.12165525060596438</speed>
  <fix>3d</fix>
</trkpt>
<trkpt lat="33.8103091" lon="-118.3938849">
  <ele>-0.29</ele>
  <time>2026-09-01T01:18:08Z</time>
  <course>249.65</course>
  <speed>0.15</speed>
  <fix>3d</fix>
</trkpt>
<trkpt lat="33.8103095" lon="-118.3938851">
  <ele>-0.289</ele>
  <time>2026-09-01T01:18:08Z</time>
  <course>1.85</course>
  <speed>0.1118033988749895</speed>
  <fix>3d</fix>
</trkpt>
<trkpt lat="33.8103091" lon="-118.3938849">
  <ele>-0.29</ele>
  <time>2026-09-01T01:18:08Z</time>
  <course>249.65</course>
  <speed>0.15</speed>
  <fix>3d</fix>
</trkpt>
<trkpt lat="33.8103095" lon="-118.3938853">
  <ele>-0.28</ele>
  <time>2026-09-01T01:18:08Z</time>
  <course>1.7</course>
  <speed>0.1019803902718557</speed>
  <fix>3d</fix>
</trkpt>
<trkpt lat="33.810309" lon="-118.3938852">
  <ele>-0.28</ele>
  <time>2026-09-01T01:18:08Z</time>
  <course>247.34</course>
  <speed>0.13</speed>
  <fix>3d</fix>
</trkpt>
<trkpt lat="33.8103095" lon="-118.3938854">
  <ele>-0.27</ele>
  <time>2026-09-01T01:18:08Z</time>
  <course>1.56</course>
  <speed>0.09219544457292887</speed>
  <fix>3d</fix>
</trkpt>
<trkpt lat="33.810309" lon="-118.3938852">
  <ele>-0.28</ele>
  <time>2026-09-01T01:18:08Z</time>
  <course>247.34</course>
  <speed>0.13</speed>
  <fix>3d</fix>
</trkpt>
<trkpt lat="33.8103095" lon="-118.3938855">
  <ele>-0.26</ele>
  <time>2026-09-01T01:18:08Z</time>
  <course>1.44</course>
  <speed>0.0824621125123532</speed>
  <fix>3d</fix>
</trkpt>
<trkpt lat="33.8103089" lon="-118.3938854">
  <ele>-0.26</ele>
  <time>2026-09-01T01:18:08Z</time>
  <course>245.39</course>
  <speed>0.11</speed>
  <fix>3d</fix>
</trkpt>
<trkpt lat="33.8103094" lon="-118.3938856">
  <ele>-0.249</ele>
  <time>2026-09-01T01:18:08Z</time>
  <course>1.31</course>
  <speed>0.07280109889280519</speed>
  <fix>3d</fix>
</trkpt>
<trkpt lat="33.8103089" lon="-118.3938854">
  <ele>-0.26</ele>
  <time>2026-09-01T01:18:08Z</time>
  <course>245.39</course>
  <speed>0.11</speed>
  <fix>3d</fix>
</trkpt>
<trkpt lat="33.8103094" lon="-118.3938857">
  <ele>-0.238</ele>
  <time>2026-09-01T01:18:08Z</time>
  <course>1.2</course>
  <speed>0.07280109889280519</speed>
  <fix>3d</fix>
</trkpt>
<trkpt lat="33.8103089" lon="-118.3938857">
  <ele>-0.25</ele>
  <time>2026-09-01T01:18:08Z</time>
  <course>243.7</course>
  <speed>0.1</speed>
  <fix>3d</fix>
</trkpt>
<trkpt lat="33.8103093" lon="-118.3938858">
  <ele>-0.228</ele>
  <time>2026-09-01T01:18:08Z</time>
  <course>1.09</course>
  <speed>0.06082762530298219</speed>
  <fix>3d</fix>
</trkpt>
<trkpt lat="33.8103089" lon="-118.3938857">
  <ele>-0.25</ele>
  <time>2026-09-01T01:18:08Z</time>
  <course>243.7</course>
  <speed>0.1</speed>
  <fix>3d</fix>
</trkpt>
<trkpt lat="33.8103093" lon="-118.3938858">
  <ele>-0.219</ele>
  <time>2026-09-01T01:18:08Z</time>
  <course>0.99</course>
  <speed>0.06082762530298219</speed>
  <fix>3d</fix>
</trkpt>
<trkpt lat="33.8103088" lon="-118.3938858">
  <ele>-0.22</ele>
  <time>2026-09-01T01:18:08Z</time>
  <course>242.21</course>
  <speed>0.09</speed>
  <fix>3d</fix>
</trkpt>
<trkpt lat="33.8103092" lon="-118.3938859">
  <ele>-0.212</ele>
  <time>2026-09-01T01:18:08Z</time>
  <course>0.89</course>
  <speed>0.05099019513592785</speed>
  <fix>3d</fix>
</trkpt>
<trkpt lat="33.8103088" lon="-118.3938858">
  <ele>-0.22</ele>
  <time>2026-09-01T01:18:08Z</time>
  <course>242.21</course>
  <speed>0.09</speed>
  <fix>3d</fix>
</trkpt>
<trkpt lat="33.8103092" lon="-118.393886">
  <ele>-0.206</ele>
  <time>2026-09-01T01:18:08Z</time>
  <course>0.79</course>
  <speed>0.05099019513592785</speed>
  <fix>3d</fix>
</trkpt>
<trkpt lat="33.8103087" lon="-118.3938861">
  <ele>-0.21</ele>
  <time>2026-09-01T01:18:08Z</time>
  <course>240.97</course>
  <speed>0.08</speed>
  <fix>3d</fix>
</trkpt>
<trkpt lat="33.8103091" lon="-118.3938861">
  <ele>-0.204</ele>
  <time>2026-09-01T01:18:08Z</time>
  <course>0.7</course>
  <speed>0.05099019513592785</speed>
  <fix>3d</fix>
</trkpt>
<trkpt lat="33.8103087" lon="-118.3938861">
  <ele>-0.21</ele>
  <time>2026-09-01T01:18:08Z</time>
  <course>240.97</course>
  <speed>0.08</speed>
  <fix>3d</fix>
</trkpt>
<trkpt lat="33.8103091" lon="-118.3938861">
  <ele>-0.204</ele>
  <time>2026-09-01T01:18:08Z</time>
  <course>0.61</course>
  <speed>0.0412310562561766</speed>
  <fix>3d</fix>
</trkpt>
<trkpt lat="33.8103086" lon="-118.3938862">
  <ele>-0.21</ele>
  <time>2026-09-01T01:18:08Z</time>
  <course>239.98</course>
  <speed>0.08</speed>
  <fix>3d</fix>
</trkpt>
<trkpt lat="33.8103091" lon="-118.3938862">
  <ele>-0.205</ele>
  <time>2026-09-01T01:18:08Z</time>
  <course>0.53</course>
  <speed>0.0412310562561766</speed>
  <fix>3d</fix>
</trkpt>
<trkpt lat="33.8103086" lon="-118.3938862">
  <ele>-0.21</ele>
  <time>2026-09-01T01:18:08Z</time>
  <course>239.98</course>
  <speed>0.08</speed>
  <fix>3d</fix>
</trkpt>
<trkpt lat="33.810309" lon="-118.3938862">
  <ele>-0.208</ele>
  <time>2026-09-01T01:18:08Z</time>
  <course>0.45</course>
  <speed>0.0412310562561766</speed>
  <fix>3d</fix>
</trkpt>
<trkpt lat="33.8103086" lon="-118.3938863">
  <ele>-0.21</ele>
  <time>2026-09-01T01:18:08Z</time>
  <course>239.15</course>
  <speed>0.07</speed>
  <fix>3d</fix>
</trkpt>
<trkpt lat="33.810309" lon="-118.3938863">
  <ele>-0.212</ele>
  <time>2026-09-01T01:18:08Z</time>
  <course>0.37</course>
  <speed>0.0316227766016838</speed>
  <fix>3d</fix>
</trkpt>
<trkpt lat="33.8103086" lon="-118.3938863">
  <ele>-0.21</ele>
  <time>2026-09-01T01:18:08Z</time>
  <course>239.15</course>
  <speed>0.07</speed>
  <fix>3d</fix>
</trkpt>
<trkpt lat="33.8103089" lon="-118.3938864">
  <ele>-0.219</ele>
  <time>2026-09-01T01:18:08Z</time>
  <course>0.29</course>
  <speed>0.0316227766016838</speed>
  <fix>3d</fix>
</trkpt>
<trkpt lat="33.8103085" lon="-118.3938865">
  <ele>-0.21</ele>
  <time>2026-09-01T01:18:08Z</time>
  <course>238.35</course>
  <speed>0.07</speed>
  <fix>3d</fix>
</trkpt>
<trkpt lat="33.8103089" lon="-118.3938864">
  <ele>-0.23</ele>
  <time>2026-09-01T01:18:08Z</time>
  <course>0.21</course>
  <speed>0.0316227766016838</speed>
  <fix>3d</fix>
</trkpt>
<trkpt lat="33.8103085" lon="-118.3938865">
  <ele>-0.21</ele>
  <time>2026-09-01T01:18:08Z</time>
  <course>238.35</course>
  <speed>0.07</speed>
  <fix>3d</fix>
</trkpt>
<trkpt lat="33.8103089" lon="-118.3938865">
  <ele>-0.242</ele>
  <time>2026-09-01T01:18:08Z</time>
  <course>0.13</course>
  <speed>0.022360679774997897</speed>
  <fix>3d</fix>
</trkpt>
<trkpt lat="33.8103084" lon="-118.3938866">
  <ele>-0.22</ele>
  <time>2026-09-01T01:18:08Z</time>
  <course>237.76</course>
  <speed>0.06</speed>
  <fix>3d</fix>
</trkpt>
<trkpt lat="33.8103088" lon="-118.3938865">
  <ele>-0.251</ele>
  <time>2026-09-01T01:18:08Z</time>
  <course>0.06</course>
  <speed>0.01</speed>
  <fix>3d</fix>
</trkpt>
<trkpt lat="33.8103084" lon="-118.3938866">
  <ele>-0.22</ele>
  <time>2026-09-01T01:18:08Z</time>
  <course>237.76</course>
  <speed>0.06</speed>
  <fix>3d</fix>
</trkpt>
<trkpt lat="33.8103088" lon="-118.3938865">
  <ele>-0.258</ele>
  <time>2026-09-01T01:18:08Z</time>
  <course>0.06</course>
  <speed>0.0</speed>
  <fix>3d</fix>
</trkpt>
<trkpt lat="33.8103083" lon="-118.3938867">
  <ele>-0.25</ele>
  <time>2026-09-01T01:18:08Z</time>
  <course>232.32</course>
  <speed>0.05</speed>
  <fix>3d</fix>
</trkpt>
<trkpt lat="33.8103087" lon="-118.3938866">
  <ele>-0.262</ele>
  <time>2026-09-01T01:18:08Z</time>
  <course>0.12</course>
  <speed>0.04</speed>
  <fix>3d</fix>
</trkpt>
<trkpt lat="33.8103083" lon="-118.3938867">
  <ele>-0.25</ele>
  <time>2026-09-01T01:18:08Z</time>
  <course>232.32</course>
  <speed>0.05</speed>
  <fix>3d</fix>
</trkpt>
<trkpt lat="33.8103087" lon="-118.3938866">
  <ele>-0.264</ele>
  <time>2026-09-01T01:18:08Z</time>
  <course>0.24</course>
  <speed>0.09</speed>
  <fix>3d</fix>
</trkpt>
<trkpt lat="33.8103083" lon="-118.3938868">
  <ele>-0.26</ele>
  <time>2026-09-01T01:18:08Z</time>
  <course>182.87</course>
  <speed>0.03</speed>
  <fix>3d</fix>
</trkpt>
<trkpt lat="33.8103086" lon="-118.3938864">
  <ele>-0.264</ele>
  <time>2026-09-01T01:18:08Z</time>
  <course>0.32</course>
  <speed>0.14</speed>
  <fix>3d</fix>
</trkpt>
<trkpt lat="33.8103083" lon="-118.3938868">
  <ele>-0.26</ele>
  <time>2026-09-01T01:18:08Z</time>
  <course>182.87</course>
  <speed>0.03</speed>
  <fix>3d</fix>
</trkpt>
<trkpt lat="33.8103086" lon="-118.3938863">
  <ele>-0.262</ele>
  <time>2026-09-01T01:18:08Z</time>
  <course>0.39</course>
  <speed>0.18</speed>
  <fix>3d</fix>
</trkpt>
<trkpt lat="33.8103082" lon="-118.3938868">
  <ele>-0.26</ele>
  <time>2026-09-01T01:18:08Z</time>
  <course>111.16</course>
  <speed>0.08</speed>
  <fix>3d</fix>
</trkpt>
<trkpt lat="33.8103086" lon="-118.3938861">
  <ele>-0.26</ele>
  <time>2026-09-01T01:18:08Z</time>
  <course>0.45</course>
  <speed>0.2</speed>
  <fix>3d</fix>
</trkpt>
<trkpt lat="33.8103082" lon="-118.3938868">
  <ele>-0.26</ele>
  <time>2026-09-01T01:18:08Z</time>
  <course>111.16</course>
  <speed>0.08</speed>
  <fix>3d</fix>
</trkpt>
<trkpt lat="33.8103085" lon="-118.3938859">
  <ele>-0.259</ele>
  <time>2026-09-01T01:18:08Z</time>
  <course>0.48</course>
  <speed>0.21</speed>
  <fix>3d</fix>
</trkpt>
<trkpt lat="33.8103082" lon="-118.3938866">
  <ele>-0.26</ele>
  <time>2026-09-01T01:18:08Z</time>
  <course>100.63</course>
  <speed>0.16</speed>
  <fix>3d</fix>
</trkpt>
<trkpt lat="33.8103085" lon="-118.3938857">
  <ele>-0.258</ele>
  <time>2026-09-01T01:18:08Z</time>
  <course>0.51</course>
  <speed>0.21</speed>
  <fix>3d</fix>
</trkpt>
<trkpt lat="33.8103082" lon="-118.3938866">
  <ele>-0.26</ele>
  <time>2026-09-01T01:18:08Z</time>
  <course>100.63</course>
  <speed>0.16</speed>
  <fix>3d</fix>
</trkpt>
<trkpt lat="33.8103084" lon="-118.3938855">
  <ele>-0.257</ele>
  <time>2026-09-01T01:18:08Z</time>
  <course>0.53</course>
  <speed>0.21</speed>
  <fix>3d</fix>
</trkpt>
<trkpt lat="33.8103081" lon="-118.3938862">
  <ele>-0.25</ele>
  <time>2026-09-01T01:18:08Z</time>
  <course>98.44</course>
  <speed>0.19</speed>
  <fix>3d</fix>
</trkpt>
<trkpt lat="33.8103084" lon="-118.3938853">
  <ele>-0.256</ele>
  <time>2026-09-01T01:18:08Z</time>
  <course>0.55</course>
  <speed>0.21</speed>
  <fix>3d</fix>
</trkpt>
<trkpt lat="33.8103081" lon="-118.3938862">
  <ele>-0.25</ele>
  <time>2026-09-01T01:18:08Z</time>
  <course>98.44</course>
  <speed>0.19</speed>
  <fix>3d</fix>
</trkpt>
<trkpt lat="33.8103084" lon="-118.3938851">
  <ele>-0.254</ele>
  <time>2026-09-01T01:18:08Z</time>
  <course>0.57</course>
  <speed>0.21</speed>
  <fix>3d</fix>
</trkpt>
<trkpt lat="33.8103081" lon="-118.3938857">
  <ele>-0.25</ele>
  <time>2026-09-01T01:18:08Z</time>
  <course>97.82</course>
  <speed>0.2</speed>
  <fix>3d</fix>
</trkpt>
<trkpt lat="33.8103083" lon="-118.3938849">
  <ele>-0.254</ele>
  <time>2026-09-01T01:18:08Z</time>
  <course>0.59</course>
  <speed>0.2</speed>
  <fix>3d</fix>
</trkpt>
<trkpt lat="33.8103081" lon="-118.3938857">
  <ele>-0.25</ele>
  <time>2026-09-01T01:18:08Z</time>
  <course>97.82</course>
  <speed>0.2</speed>
  <fix>3d</fix>
</trkpt>
<trkpt lat="33.8103083" lon="-118.3938847">
  <ele>-0.252</ele>
  <time>2026-09-01T01:18:08Z</time>
  <course>0.6</course>
  <speed>0.2</speed>
  <fix>3d</fix>
</trkpt>
<trkpt lat="33.810308" lon="-118.3938853">
  <ele>-0.25</ele>
  <time>2026-09-01T01:18:08Z</time>
  <course>97.55</course>
  <speed>0.2</speed>
  <fix>3d</fix>
</trkpt>
<trkpt lat="33.8103083" lon="-118.3938846">
  <ele>-0.251</ele>
  <time>2026-09-01T01:18:08Z</time>
  <course>0.61</course>
  <speed>0.19</speed>
  <fix>3d</fix>
</trkpt>
<trkpt lat="33.810308" lon="-118.3938853">
  <ele>-0.25</ele>
  <time>2026-09-01T01:18:08Z</time>
  <course>97.55</course>
  <speed>0.2</speed>
  <fix>3d</fix>
</trkpt>
<trkpt lat="33.8103083" lon="-118.3938844">
  <ele>-0.249</ele>
  <time>2026-09-01T01:18:08Z</time>
  <course>0.63</course>
  <speed>0.18</speed>
  <fix>3d</fix>
</trkpt>
<trkpt lat="33.810308" lon="-118.3938849">
  <ele>-0.25</ele>
  <time>2026-09-01T01:18:08Z</time>
  <course>97.56</course>
  <speed>0.19</speed>
  <fix>3d</fix>
</trkpt>
<trkpt lat="33.8103082" lon="-118.3938842">
  <ele>-0.246</ele>
  <time>2026-09-01T01:18:08Z</time>
  <course>0.64</course>
  <speed>0.16</speed>
  <fix>3d</fix>
</trkpt>
<trkpt lat="33.810308" lon="-118.3938849">
  <ele>-0.25</ele>
  <time>2026-09-01T01:18:08Z</time>
  <course>97.56</course>
  <speed>0.19</speed>
  <fix>3d</fix>
</trkpt>
<trkpt lat="33.8103082" lon="-118.3938841">
  <ele>-0.242</ele>
  <time>2026-09-01T01:18:08Z</time>
  <course>0.66</course>
  <speed>0.12</speed>
  <fix>3d</fix>
</trkpt>
<trkpt lat="33.810308" lon="-118.3938845">
  <ele>-0.25</ele>
  <time>2026-09-01T01:18:08Z</time>
  <course>98.28</course>
  <speed>0.17</speed>
  <fix>3d</fix>
</trkpt>
<trkpt lat="33.8103082" lon="-118.393884">
  <ele>-0.237</ele>
  <time>2026-09-01T01:18:08Z</time>
  <course>0.68</course>
  <speed>0.07</speed>
  <fix>3d</fix>
</trkpt>
<trkpt lat="33.810308" lon="-118.3938845">
  <ele>-0.25</ele>
  <time>2026-09-01T01:18:08Z</time>
  <course>98.28</course>
  <speed>0.17</speed>
  <fix>3d</fix>
</trkpt>
<trkpt lat="33.8103082" lon="-118.393884">
  <ele>-0.228</ele>
  <time>2026-09-01T01:18:08Z</time>
  <course>0.69</course>
  <speed>0.02</speed>
  <fix>3d</fix>
</trkpt>
<trkpt lat="33.8103079" lon="-118.3938841">
  <ele>-0.24</ele>
  <time>2026-09-01T01:18:08Z</time>
  <course>103.04</course>
  <speed>0.11</speed>
  <fix>3d</fix>
</trkpt>
<trkpt lat="33.8103082" lon="-118.3938841">
  <ele>-0.211</ele>
  <time>2026-09-01T01:18:08Z</time>
  <course>0.7</course>
  <speed>0.16</speed>
  <fix>3d</fix>
</trkpt>
<trkpt lat="33.8103079" lon="-118.3938841">
  <ele>-0.24</ele>
  <time>2026-09-01T01:18:08Z</time>
  <course>103.04</course>
  <speed>0.11</speed>
  <fix>3d</fix>
</trkpt>
<trkpt lat="33.8103081" lon="-118.3938843">
  <ele>-0.186</ele>
  <time>2026-09-01T01:18:08Z</time>
  <course>0.7</course>
  <speed>0.29017236257093815</speed>
  <fix>3d</fix>
</trkpt>
<trkpt lat="33.8103079" lon="-118.393884">
  <ele>-0.22</ele>
  <time>2026-09-01T01:18:08Z</time>
  <course>247.23</course>
  <speed>0.06</speed>
  <fix>3d</fix>
</trkpt>
<trkpt lat="33.8103081" lon="-118.3938846">
  <ele>-0.152</ele>
  <time>2026-09-01T01:18:08Z</time>
  <course>0.71</course>
  <speed>0.44011362169330775</speed>
  <fix>3d</fix>
</trkpt>
<trkpt lat="33.8103079" lon="-118.393884">
  <ele>-0.22</ele>
  <time>2026-09-01T01:18:08Z</time>
  <course>247.23</course>
  <speed>0.06</speed>
  <fix>3d</fix>
</trkpt>
<trkpt lat="33.8103081" lon="-118.3938852">
  <ele>-0.107</ele>
  <time>2026-09-01T01:18:08Z</time>
  <course>0.73</course>
  <speed>0.6800735254367721</speed>
  <fix>3d</fix>
</trkpt>
<trkpt lat="33.8103078" lon="-118.3938844">
  <ele>-0.18</ele>
  <time>2026-09-01T01:18:08Z</time>
  <course>264.94</course>
  <speed>0.33</speed>
  <fix>3d</fix>
</trkpt>
<trkpt lat="33.8103081" lon="-118.3938862">
  <ele>-0.045</ele>
  <time>2026-09-01T01:18:08Z</time>
  <course>0.74</course>
  <speed>1.0700467279516348</speed>
  <fix>3d</fix>
</trkpt>
<trkpt lat="33.8103078" lon="-118.3938844">
  <ele>-0.18</ele>
  <time>2026-09-01T01:18:08Z</time>
  <course>264.94</course>
  <speed>0.33</speed>
  <fix>3d</fix>
</trkpt>
<trkpt lat="33.8103081" lon="-118.3938875">
  <ele>0.019</ele>
  <time>2026-09-01T01:18:08Z</time>
  <course>0.72</course>
  <speed>1.3900359707575916</speed>
  <fix>3d</fix>
</trkpt>
<trkpt lat="33.8103077" lon="-118.3938855">
  <ele>-0.09</ele>
  <time>2026-09-01T01:18:08Z</time>
  <course>267.53</course>
  <speed>0.82</speed>
  <fix>3d</fix>
</trkpt>
<trkpt lat="33.810308" lon="-118.393889">
  <ele>0.056</ele>
  <time>2026-09-01T01:18:08Z</time>
  <course>0.73</course>
  <speed>1.38</speed>
  <fix>3d</fix>
</trkpt>
<trkpt lat="33.8103077" lon="-118.3938855">
  <ele>-0.09</ele>
  <time>2026-09-01T01:18:08Z</time>
  <course>267.53</course>
  <speed>0.82</speed>
  <fix>3d</fix>
</trkpt>
<trkpt lat="33.810308" lon="-118.3938903">
  <ele>0.053</ele>
  <time>2026-09-01T01:18:08Z</time>
  <course>0.76</course>
  <speed>1.15</speed>
  <fix>3d</fix>
</trkpt>
<trkpt lat="33.8103076" lon="-118.3938879">
  <ele>0.0</ele>
  <time>2026-09-01T01:18:08Z</time>
  <course>267.99</course>
  <speed>1.24</speed>
  <fix>3d</fix>
</trkpt>
<trkpt lat="33.8103079" lon="-118.3938914">
  <ele>0.016</ele>
  <time>2026-09-01T01:18:08Z</time>
  <course>0.84</course>
  <speed>0.9200543462209175</speed>
  <fix>3d</fix>
</trkpt>
<trkpt lat="33.8103076" lon="-118.3938879">
  <ele>0.0</ele>
  <time>2026-09-01T01:18:08Z</time>
  <course>267.99</course>
  <speed>1.24</speed>
  <fix>3d</fix>
</trkpt>
<trkpt lat="33.8103079" lon="-118.3938923">
  <ele>-0.035</ele>
  <time>2026-09-01T01:18:08Z</time>
  <course>0.96</course>
  <speed>0.7800640999302557</speed>
  <fix>3d</fix>
</trkpt>
<trkpt lat="33.8103076" lon="-118.3938905">
  <ele>0.01</ele>
  <time>2026-09-01T01:18:08Z</time>
  <course>267.15</course>
  <speed>1.1</speed>
  <fix>3d</fix>
</trkpt>
<trkpt lat="33.8103079" lon="-118.3938931">
  <ele>-0.088</ele>
  <time>2026-09-01T01:18:08Z</time>
  <course>1.07</course>
  <speed>0.7100704190430693</speed>
  <fix>3d</fix>
</trkpt>
<trkpt lat="33.8103076" lon="-118.3938905">
  <ele>0.01</ele>
  <time>2026-09-01T01:18:08Z</time>
  <course>267.15</course>
  <speed>1.1</speed>
  <fix>3d</fix>
</trkpt>
<trkpt lat="33.8103078" lon="-118.3938938">
  <ele>-0.134</ele>
  <time>2026-09-01T01:18:08Z</time>
  <course>1.09</course>
  <speed>0.6700746227100381</speed>
  <fix>3d</fix>
</trkpt>
<trkpt lat="33.8103075" lon="-118.3938925">
  <ele>-0.05</ele>
  <time>2026-09-01T01:18:08Z</time>
  <course>265.06</course>
  <speed>0.79</speed>
  <fix>3d</fix>
</trkpt>
<trkpt lat="33.8103078" lon="-118.3938946">
  <ele>-0.166</ele>
  <time>2026-09-01T01:18:08Z</time>
  <course>0.8</course>
  <speed>0.8300602387778854</speed>
  <fix>3d</fix>
</trkpt>
<trkpt lat="33.8103075" lon="-118.3938925">
  <ele>-0.05</ele>
  <time>2026-09-01T01:18:08Z</time>
  <course>265.06</course>
  <speed>0.79</speed>
  <fix>3d</fix>
</trkpt>
<trkpt lat="33.8103077" lon="-118.3938956">
  <ele>-0.179</ele>
  <time>2026-09-01T01:18:08Z</time>
  <course>0.08</course>
  <speed>0.9800510190801294</speed>
  <fix>3d</fix>
</trkpt>
<trkpt lat="33.8103073" lon="-118.3938941">
  <ele>-0.1</ele>
  <time>2026-09-01T01:18:08Z</time>
  <course>264.46</course>
  <speed>0.8</speed>
  <fix>3d</fix>
</trkpt>
<trkpt lat="33.8103077" lon="-118.3938966">
  <ele>-0.189</ele>
  <time>2026-09-01T01:18:08Z</time>
  <course>359.03</course>
  <speed>0.83</speed>
  <fix>3d</fix>
</trkpt>
<trkpt lat="33.8103073" lon="-118.3938941">
  <ele>-0.1</ele>
  <time>2026-09-01T01:18:08Z</time>
  <course>264.46</course>
  <speed>0.8</speed>
  <fix>3d</fix>
</trkpt>
<trkpt lat="33.8103077" lon="-118.3938975">
  <ele>-0.2</ele>
  <time>2026-09-01T01:18:08Z</time>
  <course>358.3</course>
  <speed>0.77</speed>
  <fix>3d</fix>
</trkpt>
<trkpt lat="33.8103072" lon="-118.3938959">
  <ele>-0.11</ele>
  <time>2026-09-01T01:18:08Z</time>
  <course>264.71</course>
  <speed>0.85</speed>
  <fix>3d</fix>
</trkpt>
<trkpt lat="33.8103076" lon="-118.3938983">
  <ele>-0.215</ele>
  <time>2026-09-01T01:18:08Z</time>
  <course>358.07</course>
  <speed>0.75</speed>
  <fix>3d</fix>
</trkpt>
<trkpt lat="33.8103072" lon="-118.3938959">
  <ele>-0.11</ele>
  <time>2026-09-01T01:18:08Z</time>
  <course>264.71</course>
  <speed>0.85</speed>
  <fix>3d</fix>
</trkpt>
<trkpt lat="33.8103076" lon="-118.393899">
  <ele>-0.235</ele>
  <time>2026-09-01T01:18:08Z</time>
  <course>358.09</course>
  <speed>0.66</speed>
  <fix>3d</fix>
</trkpt>
<trkpt lat="33.8103071" lon="-118.3938977">
  <ele>-0.11</ele>
  <time>2026-09-01T01:18:08Z</time>
  <course>264.55</course>
  <speed>0.75</speed>
  <fix>3d</fix>
</trkpt>
<trkpt lat="33.8103075" lon="-118.3938997">
  <ele>-0.255</ele>
  <time>2026-09-01T01:18:08Z</time>
  <course>358.28</course>
  <speed>0.5300943312279428</speed>
  <fix>3d</fix>
</trkpt>
<trkpt lat="33.8103071" lon="-118.3938977">
  <ele>-0.11</ele>
  <time>2026-09-01T01:18:08Z</time>
  <course>264.55</course>
  <speed>0.75</speed>
  <fix>3d</fix>
</trkpt>
<trkpt lat="33.8103075" lon="-118.3939002">
  <ele>-0.271</ele>
  <time>2026-09-01T01:18:08Z</time>
  <course>358.52</course>
  <speed>0.4201190307520001</speed>
  <fix>3d</fix>
</trkpt>
<trkpt lat="33.8103069" lon="-118.3938991">
  <ele>-0.13</ele>
  <time>2026-09-01T01:18:08Z</time>
  <course>264.11</course>
  <speed>0.6</speed>
  <fix>3d</fix>
</trkpt>
<trkpt lat="33.8103074" lon="-118.3939005">
  <ele>-0.282</ele>
  <time>2026-09-01T01:18:08Z</time>
  <course>358.75</course>
  <speed>0.3301514803843835</speed>
  <fix>3d</fix>
</trkpt>
<trkpt lat="33.8103069" lon="-118.3938991">
  <ele>-0.13</ele>
  <time>2026-09-01T01:18:08Z</time>
  <course>264.11</course>
  <speed>0.6</speed>
  <fix>3d</fix>
</trkpt>
<trkpt lat="33.8103074" lon="-118.3939009">
  <ele>-0.287</ele>
  <time>2026-09-01T01:18:08Z</time>
  <course>358.93</course>
  <speed>0.280713376952364</speed>
  <fix>3d</fix>
</trkpt>
<trkpt lat="33.8103068" lon="-118.3939002">
  <ele>-0.14</ele>
  <time>2026-09-01T01:18:08Z</time>
  <course>262.68</course>
  <speed>0.4</speed>
  <fix>3d</fix>
</trkpt>
<trkpt lat="33.8103073" lon="-118.3939011">
  <ele>-0.288</ele>
  <time>2026-09-01T01:18:08Z</time>
  <course>359.09</course>
  <speed>0.2308679276123039</speed>
  <fix>3d</fix>
</trkpt>
<trkpt lat="33.8103068" lon="-118.3939002">
  <ele>-0.14</ele>
  <time>2026-09-01T01:18:08Z</time>
  <course>262.68</course>
  <speed>0.4</speed>
  <fix>3d</fix>
</trkpt>
<trkpt lat="33.8103073" lon="-118.3939014">
  <ele>-0.286</ele>
  <time>2026-09-01T01:18:08Z</time>
  <course>359.23</course>
  <speed>0.2009975124224178</speed>
  <fix>3d</fix>
</trkpt>
<trkpt lat="33.8103067" lon="-118.393901">
  <ele>-0.15</ele>
  <time>2026-09-01T01:18:08Z</time>
  <course>260.52</course>
  <speed>0.27</speed>
  <fix>3d</fix>
</trkpt>
<trkpt lat="33.8103072" lon="-118.3939016">
  <ele>-0.282</ele>
  <time>2026-09-01T01:18:08Z</time>
  <course>359.37</course>
  <speed>0.18110770276274835</speed>
  <fix>3d</fix>
</trkpt>
<trkpt lat="33.8103067" lon="-118.393901">
  <ele>-0.15</ele>
  <time>2026-09-01T01:18:08Z</time>
  <course>260.52</course>
  <speed>0.27</speed>
  <fix>3d</fix>
</trkpt>
<trkpt lat="33.8103072" lon="-118.3939017">
  <ele>-0.278</ele>
  <time>2026-09-01T01:18:08Z</time>
  <course>359.5</course>
  <speed>0.16124515496597097</speed>
  <fix>3d</fix>
</trkpt>
<trkpt lat="33.8103067" lon="-118.3939015">
  <ele>-0.15</ele>
  <time>2026-09-01T01:18:08Z</time>
  <course>258.33</course>
  <speed>0.2</speed>
  <fix>3d</fix>
</trkpt>
<trkpt lat="33.8103071" lon="-118.3939019">
  <ele>-0.273</ele>
  <time>2026-09-01T01:18:08Z</time>
  <course>359.63</course>
  <speed>0.1414213562373095</speed>
  <fix>3d</fix>
</trkpt>
<trkpt lat="33.8103067" lon="-118.3939015">
  <ele>-0.15</ele>
  <time>2026-09-01T01:18:08Z</time>
  <course>258.33</course>
  <speed>0.2</speed>
  <fix>3d</fix>
</trkpt>
<trkpt lat="33.8103071" lon="-118.393902">
  <ele>-0.267</ele>
  <time>2026-09-01T01:18:08Z</time>
  <course>359.74</course>
  <speed>0.12165525060596438</speed>
  <fix>3d</fix>
</trkpt>
<trkpt lat="33.8103066" lon="-118.3939018">
  <ele>-0.14</ele>
  <time>2026-09-01T01:18:08Z</time>
  <course>256.34</course>
  <speed>0.16</speed>
  <fix>3d</fix>
</trkpt>
<trkpt lat="33.8103071" lon="-118.3939022">
  <ele>-0.26</ele>
  <time>2026-09-01T01:18:08Z</time>
  <course>359.85</course>
  <speed>0.1118033988749895</speed>
  <fix>3d</fix>
</trkpt>
<trkpt lat="33.8103066" lon="-118.3939018">
  <ele>-0.14</ele>
  <time>2026-09-01T01:18:08Z</time>
  <course>256.34</course>
  <speed>0.16</speed>
  <fix>3d</fix>
</trkpt>
<trkpt lat="33.810307" lon="-118.3939023">
  <ele>-0.251</ele>
  <time>2026-09-01T01:18:08Z</time>
  <course>359.95</course>
  <speed>0.1019803902718557</speed>
  <fix>3d</fix>
</trkpt>
<trkpt lat="33.8103065" lon="-118.3939021">
  <ele>-0.13</ele>
  <time>2026-09-01T01:18:08Z</time>
  <course>254.5</course>
  <speed>0.14</speed>
  <fix>3d</fix>
</trkpt>
<trkpt lat="33.810307" lon="-118.3939024">
  <ele>-0.243</ele>
  <time>2026-09-01T01:18:08Z</time>
  <course>0.03</course>
  <speed>0.09219544457292887</speed>
  <fix>3d</fix>
</trkpt>
<trkpt lat="33.8103065" lon="-118.3939021">
  <ele>-0.13</ele>
  <time>2026-09-01T01:18:08Z</time>
  <course>254.5</course>
  <speed>0.14</speed>
  <fix>3d</fix>
</trkpt>
<trkpt lat="33.8103069" lon="-118.3939025">
  <ele>-0.237</ele>
  <time>2026-09-01T01:18:08Z</time>
  <course>0.13</course>
  <speed>0.08062257748298549</speed>
  <fix>3d</fix>
</trkpt>
<trkpt lat="33.8103064" lon="-118.3939024">
  <ele>-0.12</ele>
  <time>2026-09-01T01:18:08Z</time>
  <course>252.79</course>
  <speed>0.12</speed>
  <fix>3d</fix>
</trkpt>
<trkpt lat="33.8103069" lon="-118.3939026">
  <ele>-0.232</ele>
  <time>2026-09-01T01:18:08Z</time>
  <course>0.22</course>
  <speed>0.07071067811865475</speed>
  <fix>3d</fix>
</trkpt>
<trkpt lat="33.8103064" lon="-118.3939024">
  <ele>-0.12</ele>
  <time>2026-09-01T01:18:08Z</time>
  <course>252.79</course>
  <speed>0.12</speed>
  <fix>3d</fix>
</trkpt>
<trkpt lat="33.8103069" lon="-118.3939027">
  <ele>-0.23</ele>
  <time>2026-09-01T01:18:08Z</time>
  <course>0.3</course>
  <speed>0.07071067811865475</speed>
  <fix>3d</fix>
</trkpt>
<trkpt lat="33.8103064" lon="-118.3939026">
  <ele>-0.11</ele>
  <time>2026-09-01T01:18:08Z</time>
  <course>251.2</course>
  <speed>0.1</speed>
  <fix>3d</fix>
</trkpt>
<trkpt lat="33.8103068" lon="-118.3939028">
  <ele>-0.23</ele>
  <time>2026-09-01T01:18:08Z</time>
  <course>0.39</course>
  <speed>0.06082762530298219</speed>
  <fix>3d</fix>
</trkpt>
<trkpt lat="33.8103064" lon="-118.3939026">
  <ele>-0.11</ele>
  <time>2026-09-01T01:18:08Z</time>
  <course>251.2</course>
  <speed>0.1</speed>
  <fix>3d</fix>
</trkpt>
<trkpt lat="33.8103068" lon="-118.3939028">
  <ele>-0.231</ele>
  <time>2026-09-01T01:18:08Z</time>
  <course>0.47</course>
  <speed>0.05099019513592785</speed>
  <fix>3d</fix>
</trkpt>
<trkpt lat="33.8103063" lon="-118.3939029">
  <ele>-0.11</ele>
  <time>2026-09-01T01:18:08Z</time>
  <course>249.71</course>
  <speed>0.09</speed>
  <fix>3d</fix>
</trkpt>
<trkpt lat="33.8103067" lon="-118.3939029">
  <ele>-0.231</ele>
  <time>2026-09-01T01:18:08Z</time>
  <course>0.55</course>
  <speed>0.05099019513592785</speed>
  <fix>3d</fix>
</trkpt>
<trkpt lat="33.8103063" lon="-118.3939029">
  <ele>-0.11</ele>
  <time>2026-09-01T01:18:08Z</time>
  <course>249.71</course>
  <speed>0.09</speed>
  <fix>3d</fix>
</trkpt>
<trkpt lat="33.8103067" lon="-118.393903">
  <ele>-0.231</ele>
  <time>2026-09-01T01:18:09Z</time>
  <course>0.62</course>
  <speed>0.0412310562561766</speed>
  <fix>3d</fix>
</trkpt>
<trkpt lat="33.8103063" lon="-118.3939031">
  <ele>-0.12</ele>
  <time>2026-09-01T01:18:09Z</time>
  <course>248.33</course>
  <speed>0.08</speed>
  <fix>3d</fix>
</trkpt>
<trkpt lat="33.8103067" lon="-118.393903">
  <ele>-0.232</ele>
  <time>2026-09-01T01:18:09Z</time>
  <course>0.7</course>
  <speed>0.0412310562561766</speed>
  <fix>3d</fix>
</trkpt>
<trkpt lat="33.8103063" lon="-118.3939031">
  <ele>-0.12</ele>
  <time>2026-09-01T01:18:09Z</time>
  <course>248.33</course>
  <speed>0.08</speed>
  <fix>3d</fix>
</trkpt>
<trkpt lat="33.8103066" lon="-118.3939031">
  <ele>-0.235</ele>
  <time>2026-09-01T01:18:09Z</time>
  <course>0.78</course>
  <speed>0.0316227766016838</speed>
  <fix>3d</fix>
</trkpt>
<trkpt lat="33.8103062" lon="-118.3939032">
  <ele>-0.13</ele>
  <time>2026-09-01T01:18:09Z</time>
  <course>247.06</course>
  <speed>0.08</speed>
  <fix>3d</fix>
</trkpt>
<trkpt lat="33.8103066" lon="-118.3939032">
  <ele>-0.237</ele>
  <time>2026-09-01T01:18:09Z</time>
  <course>0.85</course>
  <speed>0.03</speed>
  <fix>3d</fix>
</trkpt>
<trkpt lat="33.8103062" lon="-118.3939032">
  <ele>-0.13</ele>
  <time>2026-09-01T01:18:09Z</time>
  <course>247.06</course>
  <speed>0.08</speed>
  <fix>3d</fix>
</trkpt>
<trkpt lat="33.8103066" lon="-118.3939032">
  <ele>-0.238</ele>
  <time>2026-09-01T01:18:09Z</time>
  <course>0.92</course>
  <speed>0.03</speed>
  <fix>3d</fix>
</trkpt>
<trkpt lat="33.8103062" lon="-118.3939034">
  <ele>-0.14</ele>
  <time>2026-09-01T01:18:09Z</time>
  <course>245.88</course>
  <speed>0.07</speed>
  <fix>3d</fix>
</trkpt>
<trkpt lat="33.8103065" lon="-118.3939033">
  <ele>-0.239</ele>
  <time>2026-09-01T01:18:09Z</time>
  <course>0.98</course>
  <speed>0.02</speed>
  <fix>3d</fix>
</trkpt>
<trkpt lat="33.8103062" lon="-118.3939034">
  <ele>-0.14</ele>
  <time>2026-09-01T01:18:09Z</time>
  <course>245.88</course>
  <speed>0.07</speed>
  <fix>3d</fix>
</trkpt>
<trkpt lat="33.8103065" lon="-118.3939033">
  <ele>-0.24</ele>
  <time>2026-09-01T01:18:09Z</time>
  <course>1.05</course>
  <speed>0.02</speed>
  <fix>3d</fix>
</trkpt>
<trkpt lat="33.8103061" lon="-118.3939035">
  <ele>-0.14</ele>
  <time>2026-09-01T01:18:09Z</time>
  <course>244.78</course>
  <speed>0.07</speed>
  <fix>3d</fix>
</trkpt>
<trkpt lat="33.8103065" lon="-118.3939034">
  <ele>-0.24</ele>
  <time>2026-09-01T01:18:09Z</time>
  <course>1.11</course>
  <speed>0.02</speed>
  <fix>3d</fix>
</trkpt>
<trkpt lat="33.8103061" lon="-118.3939035">
  <ele>-0.14</ele>
  <time>2026-09-01T01:18:09Z</time>
  <course>244.78</course>
  <speed>0.07</speed>
  <fix>3d</fix>
</trkpt>
<trkpt lat="33.8103064" lon="-118.3939034">
  <ele>-0.239</ele>
  <time>2026-09-01T01:18:09Z</time>
  <course>1.18</course>
  <speed>0.01</speed>
  <fix>3d</fix>
</trkpt>
<trkpt lat="33.8103061" lon="-118.3939037">
  <ele>-0.15</ele>
  <time>2026-09-01T01:18:09Z</time>
  <course>243.76</course>
  <speed>0.06</speed>
  <fix>3d</fix>
</trkpt>
<trkpt lat="33.8103064" lon="-118.3939035">
  <ele>-0.24</ele>
  <time>2026-09-01T01:18:09Z</time>
  <course>1.24</course>
  <speed>0.01</speed>
  <fix>3d</fix>
</trkpt>
<trkpt lat="33.8103061" lon="-118.3939037">
  <ele>-0.15</ele>
  <time>2026-09-01T01:18:09Z</time>
  <course>243.76</course>
  <speed>0.06</speed>
  <fix>3d</fix>
</trkpt>
<trkpt lat="33.8103064" lon="-118.3939035">
  <ele>-0.246</ele>
  <time>2026-09-01T01:18:09Z</time>
  <course>1.28</course>
  <speed>0.01</speed>
  <fix>3d</fix>
</trkpt>
<trkpt lat="33.810306" lon="-118.3939038">
  <ele>-0.15</ele>
  <time>2026-09-01T01:18:09Z</time>
  <course>242.84</course>
  <speed>0.06</speed>
  <fix>3d</fix>
</trkpt>
<trkpt lat="33.8103063" lon="-118.3939036">
  <ele>-0.254</ele>
  <time>2026-09-01T01:18:09Z</time>
  <course>1.2</course>
  <speed>0.01</speed>
  <fix>3d</fix>
</trkpt>
<trkpt lat="33.810306" lon="-118.3939038">
  <ele>-0.15</ele>
  <time>2026-09-01T01:18:09Z</time>
  <course>242.84</course>
  <speed>0.06</speed>
  <fix>3d</fix>
</trkpt>
<trkpt lat="33.8103063" lon="-118.3939036">
  <ele>-0.262</ele>
  <time>2026-09-01T01:18:09Z</time>
  <course>0.87</course>
  <speed>0.0</speed>
  <fix>3d</fix>
</trkpt>
<trkpt lat="33.810306" lon="-118.3939039">
  <ele>-0.16</ele>
  <time>2026-09-01T01:18:09Z</time>
  <course>241.68</course>
  <speed>0.05</speed>
  <fix>3d</fix>
</trkpt>
<trkpt lat="33.8103062" lon="-118.3939036">
  <ele>-0.268</ele>
  <time>2026-09-01T01:18:09Z</time>
  <course>0.3</course>
  <speed>0.01</speed>
  <fix>3d</fix>
</trkpt>
<trkpt lat="33.810306" lon="-118.3939039">
  <ele>-0.16</ele>
  <time>2026-09-01T01:18:09Z</time>
  <course>241.68</course>
  <speed>0.05</speed>
  <fix>3d</fix>
</trkpt>
<trkpt lat="33.8103062" lon="-118.3939036">
  <ele>-0.272</ele>
  <time>2026-09-01T01:18:09Z</time>
  <course>359.57</course>
  <speed>0.04</speed>
  <fix>3d</fix>
</trkpt>
<trkpt lat="33.8103059" lon="-118.393904">
  <ele>-0.17</ele>
  <time>2026-09-01T01:18:09Z</time>
  <course>232.37</course>
  <speed>0.04</speed>
  <fix>3d</fix>
</trkpt>
<trkpt lat="33.8103062" lon="-118.3939037">
  <ele>-0.274</ele>
  <time>2026-09-01T01:18:09Z</time>
  <course>358.11</course>
  <speed>0.07</speed>
  <fix>3d</fix>
</trkpt>
<trkpt lat="33.8103059" lon="-118.393904">
  <ele>-0.17</ele>
  <time>2026-09-01T01:18:09Z</time>
  <course>232.37</course>
  <speed>0.04</speed>
  <fix>3d</fix>
</trkpt>
<trkpt lat="33.8103061" lon="-118.3939037">
  <ele>-0.274</ele>
  <time>2026-09-01T01:18:09Z</time>
  <course>356.02</course>
  <speed>0.1</speed>
  <fix>3d</fix>
</trkpt>
<trkpt lat="33.8103058" lon="-118.3939041">
  <ele>-0.18</ele>
  <time>2026-09-01T01:18:09Z</time>
  <course>155.53</course>
  <speed>0.02</speed>
  <fix>3d</fix>
</trkpt>
<trkpt lat="33.8103061" lon="-118.3939036">
  <ele>-0.274</ele>
  <time>2026-09-01T01:18:09Z</time>
  <course>353.87</course>
  <speed>0.14</speed>
  <fix>3d</fix>
</trkpt>
<trkpt lat="33.8103058" lon="-118.3939041">
  <ele>-0.18</ele>
  <time>2026-09-01T01:18:09Z</time>
  <course>155.53</course>
  <speed>0.02</speed>
  <fix>3d</fix>
</trkpt>
<trkpt lat="33.8103061" lon="-118.3939034">
  <ele>-0.276</ele>
  <time>2026-09-01T01:18:09Z</time>
  <course>352.27</course>
  <speed>0.2</speed>
  <fix>3d</fix>
</trkpt>
<trkpt lat="33.8103058" lon="-118.393904">
  <ele>-0.19</ele>
  <time>2026-09-01T01:18:09Z</time>
  <course>103.34</course>
  <speed>0.07</speed>
  <fix>3d</fix>
</trkpt>
<trkpt lat="33.8103061" lon="-118.3939032">
  <ele>-0.285</ele>
  <time>2026-09-01T01:18:09Z</time>
  <course>351.35</course>
  <speed>0.3605551275463989</speed>
  <fix>3d</fix>
</trkpt>
<trkpt lat="33.8103058" lon="-118.393904">
  <ele>-0.19</ele>
  <time>2026-09-01T01:18:09Z</time>
  <course>103.34</course>
  <speed>0.07</speed>
  <fix>3d</fix>
</trkpt>
<trkpt lat="33.8103061" lon="-118.3939027">
  <ele>-0.316</ele>
  <time>2026-09-01T01:18:09Z</time>
  <course>350.93</course>
  <speed>0.5414794548272354</speed>
  <fix>3d</fix>
</trkpt>
<trkpt lat="33.8103058" lon="-118.3939037">
  <ele>-0.19</ele>
  <time>2026-09-01T01:18:09Z</time>
  <course>89.3</course>
  <speed>0.24</speed>
  <fix>3d</fix>
</trkpt>
<trkpt lat="33.8103061" lon="-118.3939021">
  <ele>-0.373</ele>
  <time>2026-09-01T01:18:09Z</time>
  <course>351.31</course>
  <speed>0.5821511831131153</speed>
  <fix>3d</fix>
</trkpt>
<trkpt lat="33.8103058" lon="-118.3939037">
  <ele>-0.19</ele>
  <time>2026-09-01T01:18:09Z</time>
  <course>89.3</course>
  <speed>0.24</speed>
  <fix>3d</fix>
</trkpt>
<trkpt lat="33.8103061" lon="-118.3939016">
  <ele>-0.443</ele>
  <time>2026-09-01T01:18:09Z</time>
  <course>352.25</course>
  <speed>0.5315072906367324</speed>
  <fix>3d</fix>
</trkpt>
<trkpt lat="33.8103058" lon="-118.3939029">
  <ele>-0.24</ele>
  <time>2026-09-01T01:18:09Z</time>
  <course>85.78</course>
  <speed>0.46</speed>
  <fix>3d</fix>
</trkpt>
<trkpt lat="33.8103061" lon="-118.3939011">
  <ele>-0.517</ele>
  <time>2026-09-01T01:18:09Z</time>
  <course>353.25</course>
  <speed>0.4509988913511872</speed>
  <fix>3d</fix>
</trkpt>
<trkpt lat="33.8103058" lon="-118.3939029">
  <ele>-0.24</ele>
  <time>2026-09-01T01:18:09Z</time>
  <course>85.78</course>
  <speed>0.46</speed>
  <fix>3d</fix>
</trkpt>
<trkpt lat="33.8103061" lon="-118.3939007">
  <ele>-0.589</ele>
  <time>2026-09-01T01:18:09Z</time>
  <course>354.04</course>
  <speed>0.3705401462729781</speed>
  <fix>3d</fix>
</trkpt>
<trkpt lat="33.8103058" lon="-118.3939019">
  <ele>-0.36</ele>
  <time>2026-09-01T01:18:09Z</time>
  <course>85.51</course>
  <speed>0.47</speed>
  <fix>3d</fix>
</trkpt>
<trkpt lat="33.8103061" lon="-118.3939004">
  <ele>-0.665</ele>
  <time>2026-09-01T01:18:09Z</time>
  <course>354.62</course>
  <speed>0.30016662039607267</speed>
  <fix>3d</fix>
</trkpt>
<trkpt lat="33.8103058" lon="-118.3939019">
  <ele>-0.36</ele>
  <time>2026-09-01T01:18:09Z</time>
  <course>85.51</course>
  <speed>0.47</speed>
  <fix>3d</fix>
</trkpt>
<trkpt lat="33.8103061" lon="-118.3939001">
  <ele>-0.751</ele>
  <time>2026-09-01T01:18:09Z</time>
  <course>354.31</course>
  <speed>0.24020824298928628</speed>
  <fix>3d</fix>
</trkpt>
<trkpt lat="33.8103058" lon="-118.393901">
  <ele>-0.5</ele>
  <time>2026-09-01T01:18:09Z</time>
  <course>86.58</course>
  <speed>0.34</speed>
  <fix>3d</fix>
</trkpt>
<trkpt lat="33.8103061" lon="-118.3938999">
  <ele>-0.851</ele>
  <time>2026-09-01T01:18:09Z</time>
  <course>354.78</course>
  <speed>0.18</speed>
  <fix>3d</fix>
</trkpt>
<trkpt lat="33.8103058" lon="-118.393901">
  <ele>-0.5</ele>
  <time>2026-09-01T01:18:09Z</time>
  <course>86.58</course>
  <speed>0.34</speed>
  <fix>3d</fix>
</trkpt>
<trkpt lat="33.8103061" lon="-118.3938998">
  <ele>-0.967</ele>
  <time>2026-09-01T01:18:09Z</time>
  <course>355.22</course>
  <speed>0.13</speed>
  <fix>3d</fix>
</trkpt>
<trkpt lat="33.8103058" lon="-118.3939004">
  <ele>-0.66</ele>
  <time>2026-09-01T01:18:09Z</time>
  <course>87.97</course>
  <speed>0.21</speed>
  <fix>3d</fix>
</trkpt>
<trkpt lat="33.8103061" lon="-118.3938997">
  <ele>-1.103</ele>
  <time>2026-09-01T01:18:09Z</time>
  <course>355.58</course>
  <speed>0.08</speed>
  <fix>3d</fix>
</trkpt>
<trkpt lat="33.8103058" lon="-118.3939004">
  <ele>-0.66</ele>
  <time>2026-09-01T01:18:09Z</time>
  <course>87.97</course>
  <speed>0.21</speed>
  <fix>3d</fix>
</trkpt>
<trkpt lat="33.8103061" lon="-118.3938997">
  <ele>-1.263</ele>
  <time>2026-09-01T01:18:09Z</time>
  <course>355.89</course>
  <speed>0.04</speed>
  <fix>3d</fix>
</trkpt>
<trkpt lat="33.8103058" lon="-118.3939">
  <ele>-0.88</ele>
  <time>2026-09-01T01:18:09Z</time>
  <course>90.6</course>
  <speed>0.11</speed>
  <fix>3d</fix>
</trkpt>
<trkpt lat="33.810306" lon="-118.3938996">
  <ele>-1.431</ele>
  <time>2026-09-01T01:18:09Z</time>
  <course>356.15</course>
  <speed>0.03</speed>
  <fix>3d</fix>
</trkpt>
<trkpt lat="33.8103058" lon="-118.3939">
  <ele>-0.88</ele>
  <time>2026-09-01T01:18:09Z</time>
  <course>90.6</course>
  <speed>0.11</speed>
  <fix>3d</fix>
</trkpt>
<trkpt lat="33.810306" lon="-118.3938996">
  <ele>-1.594</ele>
  <time>2026-09-01T01:18:09Z</time>
  <course>356.39</course>
  <speed>0.02</speed>
  <fix>3d</fix>
</trkpt>
<trkpt lat="33.8103058" lon="-118.3938999">
  <ele>-1.16</ele>
  <time>2026-09-01T01:18:09Z</time>
  <course>98.59</course>
  <speed>0.04</speed>
  <fix>3d</fix>
</trkpt>
<trkpt lat="33.810306" lon="-118.3938996">
  <ele>-1.752</ele>
  <time>2026-09-01T01:18:09Z</time>
  <course>356.6</course>
  <speed>0.01</speed>
  <fix>3d</fix>
</trkpt>
<trkpt lat="33.8103058" lon="-118.3938999">
  <ele>-1.16</ele>
  <time>2026-09-01T01:18:09Z</time>
  <course>98.59</course>
  <speed>0.04</speed>
  <fix>3d</fix>
</trkpt>
<trkpt lat="33.810306" lon="-118.3938996">
  <ele>-1.908</ele>
  <time>2026-09-01T01:18:09Z</time>
  <course>356.75</course>
  <speed>0.0</speed>
  <fix>3d</fix>
</trkpt>
<trkpt lat="33.8103058" lon="-118.3938999">
  <ele>-1.47</ele>
  <time>2026-09-01T01:18:09Z</time>
  <course>127.53</course>
  <speed>0.01</speed>
  <fix>3d</fix>
</trkpt>
<trkpt lat="33.810306" lon="-118.3938996">
  <ele>-2.061</ele>
  <time>2026-09-01T01:18:09Z</time>
  <course>356.9</course>
  <speed>0.0</speed>
  <fix>3d</fix>
</trkpt>
<trkpt lat="33.8103058" lon="-118.3938999">
  <ele>-1.47</ele>
  <time>2026-09-01T01:18:09Z</time>
  <course>127.53</course>
  <speed>0.01</speed>
  <fix>3d</fix>
</trkpt>
<trkpt lat="33.8103059" lon="-118.3938996">
  <ele>-2.212</ele>
  <time>2026-09-01T01:18:09Z</time>
  <course>357.06</course>
  <speed>0.0</speed>
  <fix>3d</fix>
</trkpt>
<trkpt lat="33.8103058" lon="-118.3938999">
  <ele>-1.76</ele>
  <time>2026-09-01T01:18:09Z</time>
  <course>210.0</course>
  <speed>0.01</speed>
  <fix>3d</fix>
</trkpt>
<trkpt lat="33.8103059" lon="-118.3938996">
  <ele>-2.36</ele>
  <time>2026-09-01T01:18:09Z</time>
  <course>357.2</course>
  <speed>0.01</speed>
  <fix>3d</fix>
</trkpt>
<trkpt lat="33.8103058" lon="-118.3938999">
  <ele>-1.76</ele>
  <time>2026-09-01T01:18:09Z</time>
  <course>210.0</course>
  <speed>0.01</speed>
  <fix>3d</fix>
</trkpt>
<trkpt lat="33.8103059" lon="-118.3938997">
  <ele>-2.507</ele>
  <time>2026-09-01T01:18:09Z</time>
  <course>357.32</course>
  <speed>0.02</speed>
  <fix>3d</fix>
</trkpt>
<trkpt lat="33.8103058" lon="-118.3938999">
  <ele>-2.05</ele>
  <time>2026-09-01T01:18:09Z</time>
  <course>240.42</course>
  <speed>0.02</speed>
  <fix>3d</fix>
</trkpt>
<trkpt lat="33.8103059" lon="-118.3938997">
  <ele>-2.655</ele>
  <time>2026-09-01T01:18:09Z</time>
  <course>357.41</course>
  <speed>0.02</speed>
  <fix>3d</fix>
</trkpt>
<trkpt lat="33.8103058" lon="-118.3938999">
  <ele>-2.05</ele>
  <time>2026-09-01T01:18:09Z</time>
  <course>240.42</course>
  <speed>0.02</speed>
  <fix>3d</fix>
</trkpt>
<trkpt lat="33.8103059" lon="-118.3938998">
  <ele>-2.801</ele>
  <time>2026-09-01T01:18:09Z</time>
  <course>357.51</course>
  <speed>0.03</speed>
  <fix>3d</fix>
</trkpt>
<trkpt lat="33.8103058" lon="-118.3938999">
  <ele>-2.32</ele>
  <time>2026-09-01T01:18:09Z</time>
  <course>248.94</course>
  <speed>0.02</speed>
  <fix>3d</fix>
</trkpt>
<trkpt lat="33.8103059" lon="-118.3938998">
  <ele>-2.948</ele>
  <time>2026-09-01T01:18:09Z</time>
  <course>357.62</course>
  <speed>0.03</speed>
  <fix>3d</fix>
</trkpt>
<trkpt lat="33.8103058" lon="-118.3938999">
  <ele>-2.32</ele>
  <time>2026-09-01T01:18:09Z</time>
  <course>248.94</course>
  <speed>0.02</speed>
  <fix>3d</fix>
</trkpt>
<trkpt lat="33.8103059" lon="-118.3938999">
  <ele>-3.094</ele>
  <time>2026-09-01T01:18:09Z</time>
  <course>357.73</course>
  <speed>0.03</speed>
  <fix>3d</fix>
</trkpt>
<trkpt lat="33.8103058" lon="-118.3938999">
  <ele>-2.6</ele>
  <time>2026-09-01T01:18:09Z</time>
  <course>253.25</course>
  <speed>0.03</speed>
  <fix>3d</fix>
</trkpt>
<trkpt lat="33.8103059" lon="-118.3938999">
  <ele>-3.237</ele>
  <time>2026-09-01T01:18:09Z</time>
  <course>357.8</course>
  <speed>0.04</speed>
  <fix>3d</fix>
</trkpt>
<trkpt lat="33.8103058" lon="-118.3938999">
  <ele>-2.6</ele>
  <time>2026-09-01T01:18:09Z</time>
  <course>253.25</course>
  <speed>0.03</speed>
  <fix>3d</fix>
</trkpt>
<trkpt lat="33.8103059" lon="-118.3939">
  <ele>-3.379</ele>
  <time>2026-09-01T01:18:09Z</time>
  <course>357.85</course>
  <speed>0.04</speed>
  <fix>3d</fix>
</trkpt>
<trkpt lat="33.8103058" lon="-118.3938999">
  <ele>-2.88</ele>
  <time>2026-09-01T01:18:09Z</time>
  <course>255.56</course>
  <speed>0.04</speed>
  <fix>3d</fix>
</trkpt>
<trkpt lat="33.8103059" lon="-118.3939">
  <ele>-3.522</ele>
  <time>2026-09-01T01:18:09Z</time>
  <course>357.92</course>
  <speed>0.04</speed>
  <fix>3d</fix>
</trkpt>
<trkpt lat="33.8103058" lon="-118.3938999">
  <ele>-2.88</ele>
  <time>2026-09-01T01:18:09Z</time>
  <course>255.56</course>
  <speed>0.04</speed>
  <fix>3d</fix>
</trkpt>
<trkpt lat="33.8103059" lon="-118.3939001">
  <ele>-3.665</ele>
  <time>2026-09-01T01:18:09Z</time>
  <course>358.01</course>
  <speed>0.04</speed>
  <fix>3d</fix>
</trkpt>
<trkpt lat="33.8103058" lon="-118.3939">
  <ele>-3.15</ele>
  <time>2026-09-01T01:18:09Z</time>
  <course>257.0</course>
  <speed>0.04</speed>
  <fix>3d</fix>
</trkpt>
<trkpt lat="33.8103059" lon="-118.3939001">
  <ele>-3.807</ele>
  <time>2026-09-01T01:18:09Z</time>
  <course>358.07</course>
  <speed>0.05</speed>
  <fix>3d</fix>
</trkpt>
<trkpt lat="33.8103058" lon="-118.3939">
  <ele>-3.15</ele>
  <time>2026-09-01T01:18:09Z</time>
  <course>257.0</course>
  <speed>0.04</speed>
  <fix>3d</fix>
</trkpt>
<trkpt lat="33.8103059" lon="-118.3939002">
  <ele>-3.952</ele>
  <time>2026-09-01T01:18:09Z</time>
  <course>358.14</course>
  <speed>0.05</speed>
  <fix>3d</fix>
</trkpt>
<trkpt lat="33.8103058" lon="-118.3939001">
  <ele>-3.44</ele>
  <time>2026-09-01T01:18:09Z</time>
  <course>258.01</course>
  <speed>0.04</speed>
  <fix>3d</fix>
</trkpt>
<trkpt lat="33.8103059" lon="-118.3939002">
  <ele>-4.094</ele>
  <time>2026-09-01T01:18:09Z</time>
  <course>358.2</course>
  <speed>0.05</speed>
  <fix>3d</fix>
</trkpt>
<trkpt lat="33.8103058" lon="-118.3939001">
  <ele>-3.44</ele>
  <time>2026-09-01T01:18:09Z</time>
  <course>258.01</course>
  <speed>0.04</speed>
  <fix>3d</fix>
</trkpt>
<trkpt lat="33.8103059" lon="-118.3939003">
  <ele>-4.234</ele>
  <time>2026-09-01T01:18:09Z</time>
  <course>358.26</course>
  <speed>0.05</speed>
  <fix>3d</fix>
</trkpt>
<trkpt lat="33.8103058" lon="-118.3939002">
  <ele>-3.71</ele>
  <time>2026-09-01T01:18:09Z</time>
  <course>258.58</course>
  <speed>0.05</speed>
  <fix>3d</fix>
</trkpt>
<trkpt lat="33.8103059" lon="-118.3939003">
  <ele>-4.373</ele>
  <time>2026-09-01T01:18:09Z</time>
  <course>358.28</course>
  <speed>0.05</speed>
  <fix>3d</fix>
</trkpt>
<trkpt lat="33.8103058" lon="-118.3939002">
  <ele>-3.71</ele>
  <time>2026-09-01T01:18:09Z</time>
  <course>258.58</course>
  <speed>0.05</speed>
  <fix>3d</fix>
</trkpt>
<trkpt lat="33.8103059" lon="-118.3939004">
  <ele>-4.512</ele>
  <time>2026-09-01T01:18:09Z</time>
  <course>358.3</course>
  <speed>0.05</speed>
  <fix>3d</fix>
</trkpt>
<trkpt lat="33.8103058" lon="-118.3939003">
  <ele>-4.0</ele>
  <time>2026-09-01T01:18:09Z</time>
  <course>259.0</course>
  <speed>0.05</speed>
  <fix>3d</fix>
</trkpt>
<trkpt lat="33.8103059" lon="-118.3939004">
  <ele>-4.651</ele>
  <time>2026-09-01T01:18:09Z</time>
  <course>358.32</course>
  <speed>0.05099019513592785</speed>
  <fix>3d</fix>
</trkpt>
<trkpt lat="33.8103058" lon="-118.3939003">
  <ele>-4.0</ele>
  <time>2026-09-01T01:18:09Z</time>
  <course>259.0</course>
  <speed>0.05</speed>
  <fix>3d</fix>
</trkpt>
<trkpt lat="33.8103059" lon="-118.3939005">
  <ele>-4.791</ele>
  <time>2026-09-01T01:18:09Z</time>
  <course>358.37</course>
  <speed>0.05099019513592785</speed>
  <fix>3d</fix>
</trkpt>
<trkpt lat="33.8103058" lon="-118.3939005">
  <ele>-4.27</ele>
  <time>2026-09-01T01:18:09Z</time>
  <course>259.47</course>
  <speed>0.05</speed>
  <fix>3d</fix>
</trkpt>
<trkpt lat="33.8103059" lon="-118.3939005">
  <ele>-4.931</ele>
  <time>2026-09-01T01:18:09Z</time>
  <course>358.41</course>
  <speed>0.05099019513592785</speed>
  <fix>3d</fix>
</trkpt>
<trkpt lat="33.8103058" lon="-118.3939005">
  <ele>-4.27</ele>
  <time>2026-09-01T01:18:09Z</time>
  <course>259.47</course>
  <speed>0.05</speed>
  <fix>3d</fix>
</trkpt>
<trkpt lat="33.8103059" lon="-118.3939006">
  <ele>-5.07</ele>
  <time>2026-09-01T01:18:09Z</time>
  <course>358.41</course>
  <speed>0.05099019513592785</speed>
  <fix>3d</fix>
</trkpt>
<trkpt lat="33.8103058" lon="-118.3939006">
  <ele>-4.56</ele>
  <time>2026-09-01T01:18:09Z</time>
  <course>259.9</course>
  <speed>0.05</speed>
  <fix>3d</fix>
</trkpt>
<trkpt lat="33.8103059" lon="-118.3939007">
  <ele>-5.208</ele>
  <time>2026-09-01T01:18:09Z</time>
  <course>358.42</course>
  <speed>0.05099019513592785</speed>
  <fix>3d</fix>
</trkpt>
<trkpt lat="33.8103058" lon="-118.3939006">
  <ele>-4.56</ele>
  <time>2026-09-01T01:18:09Z</time>
  <course>259.9</course>
  <speed>0.05</speed>
  <fix>3d</fix>
</trkpt>
<trkpt lat="33.8103059" lon="-118.3939007">
  <ele>-5.346</ele>
  <time>2026-09-01T01:18:09Z</time>
  <course>358.5</course>
  <speed>0.05099019513592785</speed>
  <fix>3d</fix>
</trkpt>
<trkpt lat="33.8103058" lon="-118.3939007">
  <ele>-4.84</ele>
  <time>2026-09-01T01:18:09Z</time>
  <course>260.11</course>
  <speed>0.05</speed>
  <fix>3d</fix>
</trkpt>
<trkpt lat="33.8103059" lon="-118.3939008">
  <ele>-5.481</ele>
  <time>2026-09-01T01:18:09Z</time>
  <course>358.63</course>
  <speed>0.0412310562561766</speed>
  <fix>3d</fix>
</trkpt>
<trkpt lat="33.8103058" lon="-118.3939007">
  <ele>-4.84</ele>
  <time>2026-09-01T01:18:09Z</time>
  <course>260.11</course>
  <speed>0.05</speed>
  <fix>3d</fix>
</trkpt>
<trkpt lat="33.8103059" lon="-118.3939009">
  <ele>-5.605</ele>
  <time>2026-09-01T01:18:09Z</time>
  <course>358.86</course>
  <speed>0.08062257748298549</speed>
  <fix>3d</fix>
</trkpt>
<trkpt lat="33.8103058" lon="-118.3939008">
  <ele>-5.11</ele>
  <time>2026-09-01T01:18:09Z</time>
  <course>259.73</course>
  <speed>0.05</speed>
  <fix>3d</fix>
</trkpt>
<trkpt lat="33.8103059" lon="-118.393901">
  <ele>-5.72</ele>
  <time>2026-09-01T01:18:09Z</time>
  <course>359.24</course>
  <speed>0.16031219541881397</speed>
  <fix>3d</fix>
</trkpt>
<trkpt lat="33.8103058" lon="-118.3939008">
  <ele>-5.11</ele>
  <time>2026-09-01T01:18:09Z</time>
  <course>259.73</course>
  <speed>0.05</speed>
  <fix>3d</fix>
</trkpt>
<trkpt lat="33.8103059" lon="-118.3939013">
  <ele>-5.825</ele>
  <time>2026-09-01T01:18:09Z</time>
  <course>359.81</course>
  <speed>0.36013886210738216</speed>
  <fix>3d</fix>
</trkpt>
<trkpt lat="33.8103057" lon="-118.393901">
  <ele>-5.36</ele>
  <time>2026-09-01T01:18:09Z</time>
  <course>264.61</course>
  <speed>0.12</speed>
  <fix>3d</fix>
</trkpt>
<trkpt lat="33.8103059" lon="-118.3939018">
  <ele>-5.927</ele>
  <time>2026-09-01T01:18:09Z</time>
  <course>0.45</course>
  <speed>0.6400781202322103</speed>
  <fix>3d</fix>
</trkpt>
<trkpt lat="33.8103057" lon="-118.393901">
  <ele>-5.36</ele>
  <time>2026-09-01T01:18:09Z</time>
  <course>264.61</course>
  <speed>0.12</speed>
  <fix>3d</fix>
</trkpt>
<trkpt lat="33.8103059" lon="-118.3939026">
  <ele>-6.02</ele>
  <time>2026-09-01T01:18:09Z</time>
  <course>1.81</course>
  <speed>0.8200609733428362</speed>
  <fix>3d</fix>
</trkpt>
<trkpt lat="33.8103057" lon="-118.3939016">
  <ele>-5.58</ele>
  <time>2026-09-01T01:18:09Z</time>
  <course>268.72</course>
  <speed>0.44</speed>
  <fix>3d</fix>
</trkpt>
<trkpt lat="33.8103058" lon="-118.3939035">
  <ele>-6.094</ele>
  <time>2026-09-01T01:18:09Z</time>
  <course>3.94</course>
  <speed>0.970051545022222</speed>
  <fix>3d</fix>
</trkpt>
<trkpt lat="33.8103057" lon="-118.3939016">
  <ele>-5.58</ele>
  <time>2026-09-01T01:18:09Z</time>
  <course>268.72</course>
  <speed>0.44</speed>
  <fix>3d</fix>
</trkpt>
<trkpt lat="33.8103058" lon="-118.3939046">
  <ele>-6.148</ele>
  <time>2026-09-01T01:18:09Z</time>
  <course>6.37</course>
  <speed>1.0901834707974616</speed>
  <fix>3d</fix>
</trkpt>
<trkpt lat="33.8103057" lon="-118.393903">
  <ele>-5.77</ele>
  <time>2026-09-01T01:18:09Z</time>
  <course>269.84</course>
  <speed>0.86</speed>
  <fix>3d</fix>
</trkpt>
<trkpt lat="33.8103058" lon="-118.3939058">
  <ele>-6.177</ele>
  <time>2026-09-01T01:18:09Z</time>
  <course>8.42</course>
  <speed>1.1703845521878697</speed>
  <fix>3d</fix>
</trkpt>
<trkpt lat="33.8103057" lon="-118.393903">
  <ele>-5.77</ele>
  <time>2026-09-01T01:18:09Z</time>
  <course>269.84</course>
  <speed>0.86</speed>
  <fix>3d</fix>
</trkpt>
<trkpt lat="33.8103058" lon="-118.3939071">
  <ele>-6.179</ele>
  <time>2026-09-01T01:18:09Z</time>
  <course>9.8</course>
  <speed>1.1806777714516352</speed>
  <fix>3d</fix>
</trkpt>
<trkpt lat="33.8103057" lon="-118.3939052">
  <ele>-5.89</ele>
  <time>2026-09-01T01:18:09Z</time>
  <course>270.71</course>
  <speed>1.11</speed>
  <fix>3d</fix>
</trkpt>
<trkpt lat="33.8103058" lon="-118.3939083">
  <ele>-6.155</ele>
  <time>2026-09-01T01:18:09Z</time>
  <course>10.53</course>
  <speed>1.120714058089752</speed>
  <fix>3d</fix>
</trkpt>
<trkpt lat="33.8103057" lon="-118.3939052">
  <ele>-5.89</ele>
  <time>2026-09-01T01:18:09Z</time>
  <course>270.71</course>
  <speed>1.11</speed>
  <fix>3d</fix>
</trkpt>
<trkpt lat="33.8103058" lon="-118.3939095">
  <ele>-6.105</ele>
  <time>2026-09-01T01:18:09Z</time>
  <course>10.54</course>
  <speed>1.0104454463255303</speed>
  <fix>3d</fix>
</trkpt>
<trkpt lat="33.8103057" lon="-118.3939078">
  <ele>-5.91</ele>
  <time>2026-09-01T01:18:09Z</time>
  <course>271.41</course>
  <speed>1.18</speed>
  <fix>3d</fix>
</trkpt>
<trkpt lat="33.8103058" lon="-118.3939105">
  <ele>-6.036</ele>
  <time>2026-09-01T01:18:09Z</time>
  <course>9.52</course>
  <speed>0.8100617260431454</speed>
  <fix>3d</fix>
</trkpt>
<trkpt lat="33.8103057" lon="-118.3939078">
  <ele>-5.91</ele>
  <time>2026-09-01T01:18:09Z</time>
  <course>271.41</course>
  <speed>1.18</speed>
  <fix>3d</fix>
</trkpt>
<trkpt lat="33.8103058" lon="-118.3939112">
  <ele>-5.963</ele>
  <time>2026-09-01T01:18:09Z</time>
  <course>8.11</course>
  <speed>0.6</speed>
  <fix>3d</fix>
</trkpt>
<trkpt lat="33.8103057" lon="-118.3939101">
  <ele>-5.83</ele>
  <time>2026-09-01T01:18:09Z</time>
  <course>270.72</course>
  <speed>0.97</speed>
  <fix>3d</fix>
</trkpt>
<trkpt lat="33.8103058" lon="-118.3939118">
  <ele>-5.895</ele>
  <time>2026-09-01T01:18:09Z</time>
  <course>6.75</course>
  <speed>0.45044422518220834</speed>
  <fix>3d</fix>
</trkpt>
<trkpt lat="33.8103057" lon="-118.3939101">
  <ele>-5.83</ele>
  <time>2026-09-01T01:18:09Z</time>
  <course>270.72</course>
  <speed>0.97</speed>
  <fix>3d</fix>
</trkpt>
<trkpt lat="33.8103058" lon="-118.3939123">
  <ele>-5.835</ele>
  <time>2026-09-01T01:18:09Z</time>
  <course>5.55</course>
  <speed>0.34132096331752027</speed>
  <fix>3d</fix>
</trkpt>
<trkpt lat="33.8103057" lon="-118.3939119">
  <ele>-5.71</ele>
  <time>2026-09-01T01:18:09Z</time>
  <course>267.72</course>
  <speed>0.64</speed>
  <fix>3d</fix>
</trkpt>
<trkpt lat="33.8103058" lon="-118.3939126">
  <ele>-5.781</ele>
  <time>2026-09-01T01:18:09Z</time>
  <course>4.56</course>
  <speed>0.261725046566048</speed>
  <fix>3d</fix>
</trkpt>
<trkpt lat="33.8103057" lon="-118.3939119">
  <ele>-5.71</ele>
  <time>2026-09-01T01:18:09Z</time>
  <course>267.72</course>
  <speed>0.64</speed>
  <fix>3d</fix>
</trkpt>
<trkpt lat="33.8103057" lon="-118.3939129">
  <ele>-5.733</ele>
  <time>2026-09-01T01:18:09Z</time>
  <course>3.87</course>
  <speed>0.21213203435596426</speed>
  <fix>3d</fix>
</trkpt>
<trkpt lat="33.8103057" lon="-118.393913">
  <ele>-5.6</ele>
  <time>2026-09-01T01:18:09Z</time>
  <course>262.83</course>
  <speed>0.39</speed>
  <fix>3d</fix>
</trkpt>
<trkpt lat="33.8103057" lon="-118.3939132">
  <ele>-5.692</ele>
  <time>2026-09-01T01:18:09Z</time>
  <course>3.37</course>
  <speed>0.17262676501632068</speed>
  <fix>3d</fix>
</trkpt>
<trkpt lat="33.8103057" lon="-118.393913">
  <ele>-5.6</ele>
  <time>2026-09-01T01:18:09Z</time>
  <course>262.83</course>
  <speed>0.39</speed>
  <fix>3d</fix>
</trkpt>
<trkpt lat="33.8103057" lon="-118.3939135">
  <ele>-5.657</ele>
  <time>2026-09-01T01:18:09Z</time>
  <course>3.0</course>
  <speed>0.14317821063276354</speed>
  <fix>3d</fix>
</trkpt>
<trkpt lat="33.8103056" lon="-118.3939136">
  <ele>-5.51</ele>
  <time>2026-09-01T01:18:09Z</time>
  <course>258.12</course>
  <speed>0.27</speed>
  <fix>3d</fix>
</trkpt>
<trkpt lat="33.8103056" lon="-118.3939137">
  <ele>-5.627</ele>
  <time>2026-09-01T01:18:09Z</time>
  <course>2.68</course>
  <speed>0.12369316876852982</speed>
  <fix>3d</fix>
</trkpt>
<trkpt lat="33.8103056" lon="-118.3939136">
  <ele>-5.51</ele>
  <time>2026-09-01T01:18:09Z</time>
  <course>258.12</course>
  <speed>0.27</speed>
  <fix>3d</fix>
</trkpt>
<trkpt lat="33.8103056" lon="-118.3939139">
  <ele>-5.603</ele>
  <time>2026-09-01T01:18:09Z</time>
  <course>2.41</course>
  <speed>0.11704699910719625</speed>
  <fix>3d</fix>
</trkpt>
<trkpt lat="33.8103055" lon="-118.3939142">
  <ele>-5.45</ele>
  <time>2026-09-01T01:18:09Z</time>
  <course>254.32</course>
  <speed>0.2</speed>
  <fix>3d</fix>
</trkpt>
<trkpt lat="33.8103055" lon="-118.393914">
  <ele>-5.583</ele>
  <time>2026-09-01T01:18:09Z</time>
  <course>2.18</course>
  <speed>0.10770329614269007</speed>
  <fix>3d</fix>
</trkpt>
<trkpt lat="33.8103055" lon="-118.3939142">
  <ele>-5.45</ele>
  <time>2026-09-01T01:18:09Z</time>
  <course>254.32</course>
  <speed>0.2</speed>
  <fix>3d</fix>
</trkpt>
<trkpt lat="33.8103055" lon="-118.3939142">
  <ele>-5.57</ele>
  <time>2026-09-01T01:18:09Z</time>
  <course>1.97</course>
  <speed>0.09848857801796104</speed>
  <fix>3d</fix>
</trkpt>
<trkpt lat="33.8103054" lon="-118.3939145">
  <ele>-5.41</ele>
  <time>2026-09-01T01:18:09Z</time>
  <course>251.55</course>
  <speed>0.17</speed>
  <fix>3d</fix>
</trkpt>
<trkpt lat="33.8103054" lon="-118.3939144">
  <ele>-5.561</ele>
  <time>2026-09-01T01:18:09Z</time>
  <course>1.79</course>
  <speed>0.08944271909999159</speed>
  <fix>3d</fix>
</trkpt>
<trkpt lat="33.8103054" lon="-118.3939145">
  <ele>-5.41</ele>
  <time>2026-09-01T01:18:09Z</time>
  <course>251.55</course>
  <speed>0.17</speed>
  <fix>3d</fix>
</trkpt>
<trkpt lat="33.8103054" lon="-118.3939145">
  <ele>-5.558</ele>
  <time>2026-09-01T01:18:09Z</time>
  <course>1.62</course>
  <speed>0.08944271909999159</speed>
  <fix>3d</fix>
</trkpt>
<trkpt lat="33.8103053" lon="-118.3939149">
  <ele>-5.38</ele>
  <time>2026-09-01T01:18:09Z</time>
  <course>249.75</course>
  <speed>0.14</speed>
  <fix>3d</fix>
</trkpt>
<trkpt lat="33.8103053" lon="-118.3939146">
  <ele>-5.558</ele>
  <time>2026-09-01T01:18:09Z</time>
  <course>1.47</course>
  <speed>0.08062257748298549</speed>
  <fix>3d</fix>
</trkpt>
<trkpt lat="33.8103053" lon="-118.3939149">
  <ele>-5.38</ele>
  <time>2026-09-01T01:18:09Z</time>
  <course>249.75</course>
  <speed>0.14</speed>
  <fix>3d</fix>
</trkpt>
<trkpt lat="33.8103053" lon="-118.3939148">
  <ele>-5.561</ele>
  <time>2026-09-01T01:18:09Z</time>
  <course>1.32</course>
  <speed>0.08062257748298549</speed>
  <fix>3d</fix>
</trkpt>
<trkpt lat="33.8103052" lon="-118.3939152">
  <ele>-5.37</ele>
  <time>2026-09-01T01:18:09Z</time>
  <course>248.68</course>
  <speed>0.13</speed>
  <fix>3d</fix>
</trkpt>
<trkpt lat="33.8103052" lon="-118.3939149">
  <ele>-5.567</ele>
  <time>2026-09-01T01:18:09Z</time>
  <course>1.18</course>
  <speed>0.07211102550927978</speed>
  <fix>3d</fix>
</trkpt>
<trkpt lat="33.8103052" lon="-118.3939152">
  <ele>-5.37</ele>
  <time>2026-09-01T01:18:09Z</time>
  <course>248.68</course>
  <speed>0.13</speed>
  <fix>3d</fix>
</trkpt>
<trkpt lat="33.8103052" lon="-118.3939151">
  <ele>-5.574</ele>
  <time>2026-09-01T01:18:09Z</time>
  <course>1.05</course>
  <speed>0.07211102550927978</speed>
  <fix>3d</fix>
</trkpt>
<trkpt lat="33.8103051" lon="-118.3939154">
  <ele>-5.37</ele>
  <time>2026-09-01T01:18:09Z</time>
  <course>247.79</course>
  <speed>0.12</speed>
  <fix>3d</fix>
</trkpt>
<trkpt lat="33.8103051" lon="-118.3939152">
  <ele>-5.583</ele>
  <time>2026-09-01T01:18:09Z</time>
  <course>0.94</course>
  <speed>0.07211102550927978</speed>
  <fix>3d</fix>
</trkpt>
<trkpt lat="33.8103051" lon="-118.3939154">
  <ele>-5.37</ele>
  <time>2026-09-01T01:18:09Z</time>
  <course>247.79</course>
  <speed>0.12</speed>
  <fix>3d</fix>
</trkpt>
<trkpt lat="33.8103051" lon="-118.3939153">
  <ele>-5.594</ele>
  <time>2026-09-01T01:18:09Z</time>
  <course>0.83</course>
  <speed>0.06403124237432849</speed>
  <fix>3d</fix>
</trkpt>
<trkpt lat="33.810305" lon="-118.3939157">
  <ele>-5.39</ele>
  <time>2026-09-01T01:18:09Z</time>
  <course>246.8</course>
  <speed>0.11</speed>
  <fix>3d</fix>
</trkpt>
<trkpt lat="33.810305" lon="-118.3939154">
  <ele>-5.606</ele>
  <time>2026-09-01T01:18:09Z</time>
  <course>0.73</course>
  <speed>0.06403124237432849</speed>
  <fix>3d</fix>
</trkpt>
<trkpt lat="33.810305" lon="-118.3939157">
  <ele>-5.39</ele>
  <time>2026-09-01T01:18:09Z</time>
  <course>246.8</course>
  <speed>0.11</speed>
  <fix>3d</fix>
</trkpt>
<trkpt lat="33.810305" lon="-118.3939155">
  <ele>-5.616</ele>
  <time>2026-09-01T01:18:09Z</time>
  <course>0.63</course>
  <speed>0.06403124237432849</speed>
  <fix>3d</fix>
</trkpt>
<trkpt lat="33.810305" lon="-118.3939159">
  <ele>-5.4</ele>
  <time>2026-09-01T01:18:09Z</time>
  <course>245.73</course>
  <speed>0.1</speed>
  <fix>3d</fix>
</trkpt>
<trkpt lat="33.8103049" lon="-118.3939156">
  <ele>-5.626</ele>
  <time>2026-09-01T01:18:09Z</time>
  <course>0.53</course>
  <speed>0.0565685424949238</speed>
  <fix>3d</fix>
</trkpt>
<trkpt lat="33.810305" lon="-118.3939159">
  <ele>-5.4</ele>
  <time>2026-09-01T01:18:09Z</time>
  <course>245.73</course>
  <speed>0.1</speed>
  <fix>3d</fix>
</trkpt>
<trkpt lat="33.8103049" lon="-118.3939157">
  <ele>-5.632</ele>
  <time>2026-09-01T01:18:09Z</time>
  <course>0.44</course>
  <speed>0.0565685424949238</speed>
  <fix>3d</fix>
</trkpt>
<trkpt lat="33.8103049" lon="-118.393916">
  <ele>-5.42</ele>
  <time>2026-09-01T01:18:09Z</time>
  <course>244.43</course>
  <speed>0.09</speed>
  <fix>3d</fix>
</trkpt>
<trkpt lat="33.8103048" lon="-118.3939158">
  <ele>-5.636</ele>
  <time>2026-09-01T01:18:09Z</time>
  <course>0.35</course>
  <speed>0.0565685424949238</speed>
  <fix>3d</fix>
</trkpt>
<trkpt lat="33.8103049" lon="-118.393916">
  <ele>-5.42</ele>
  <time>2026-09-01T01:18:09Z</time>
  <course>244.43</course>
  <speed>0.09</speed>
  <fix>3d</fix>
</trkpt>
<trkpt lat="33.8103048" lon="-118.3939159">
  <ele>-5.639</ele>
  <time>2026-09-01T01:18:09Z</time>
  <course>0.26</course>
  <speed>0.05830951894845301</speed>
  <fix>3d</fix>
</trkpt>
<trkpt lat="33.8103048" lon="-118.3939163">
  <ele>-5.43</ele>
  <time>2026-09-01T01:18:09Z</time>
  <course>242.84</course>
  <speed>0.08</speed>
  <fix>3d</fix>
</trkpt>
<trkpt lat="33.8103048" lon="-118.393916">
  <ele>-5.64</ele>
  <time>2026-09-01T01:18:09Z</time>
  <course>0.18</course>
  <speed>0.05830951894845301</speed>
  <fix>3d</fix>
</trkpt>
<trkpt lat="33.8103048" lon="-118.3939163">
  <ele>-5.43</ele>
  <time>2026-09-01T01:18:09Z</time>
  <course>242.84</course>
  <speed>0.08</speed>
  <fix>3d</fix>
</trkpt>
<trkpt lat="33.8103047" lon="-118.3939161">
  <ele>-5.638</ele>
  <time>2026-09-01T01:18:09Z</time>
  <course>0.1</course>
  <speed>0.05830951894845301</speed>
  <fix>3d</fix>
</trkpt>
<trkpt lat="33.8103047" lon="-118.3939164">
  <ele>-5.43</ele>
  <time>2026-09-01T01:18:09Z</time>
  <course>241.19</course>
  <speed>0.08</speed>
  <fix>3d</fix>
</trkpt>
<trkpt lat="33.8103047" lon="-118.3939162">
  <ele>-5.635</ele>
  <time>2026-09-01T01:18:09Z</time>
  <course>0.02</course>
  <speed>0.05830951894845301</speed>
  <fix>3d</fix>
</trkpt>
<trkpt lat="33.8103047" lon="-118.3939164">
  <ele>-5.43</ele>
  <time>2026-09-01T01:18:09Z</time>
  <course>241.19</course>
  <speed>0.08</speed>
  <fix>3d</fix>
</trkpt>
<trkpt lat="33.8103046" lon="-118.3939162">
  <ele>-5.631</ele>
  <time>2026-09-01T01:18:09Z</time>
  <course>359.95</course>
  <speed>0.05830951894845301</speed>
  <fix>3d</fix>
</trkpt>
<trkpt lat="33.8103046" lon="-118.3939165">
  <ele>-5.42</ele>
  <time>2026-09-01T01:18:09Z</time>
  <course>239.68</course>
  <speed>0.07</speed>
  <fix>3d</fix>
</trkpt>
<trkpt lat="33.8103046" lon="-118.3939163">
  <ele>-5.627</ele>
  <time>2026-09-01T01:18:09Z</time>
  <course>359.88</course>
  <speed>0.053851648071345036</speed>
  <fix>3d</fix>
</trkpt>
<trkpt lat="33.8103046" lon="-118.3939165">
  <ele>-5.42</ele>
  <time>2026-09-01T01:18:09Z</time>
  <course>239.68</course>
  <speed>0.07</speed>
  <fix>3d</fix>
</trkpt>
<trkpt lat="33.8103045" lon="-118.3939164">
  <ele>-5.622</ele>
  <time>2026-09-01T01:18:09Z</time>
  <course>359.81</course>
  <speed>0.053851648071345036</speed>
  <fix>3d</fix>
</trkpt>
<trkpt lat="33.8103046" lon="-118.3939167">
  <ele>-5.41</ele>
  <time>2026-09-01T01:18:09Z</time>
  <course>238.47</course>
  <speed>0.06</speed>
  <fix>3d</fix>
</trkpt>
<trkpt lat="33.8103045" lon="-118.3939164">
  <ele>-5.618</ele>
  <time>2026-09-01T01:18:09Z</time>
  <course>359.75</course>
  <speed>0.053851648071345036</speed>
  <fix>3d</fix>
</trkpt>
<trkpt lat="33.8103046" lon="-118.3939167">
  <ele>-5.41</ele>
  <time>2026-09-01T01:18:09Z</time>
  <course>238.47</course>
  <speed>0.06</speed>
  <fix>3d</fix>
</trkpt>
<trkpt lat="33.8103044" lon="-118.3939165">
  <ele>-5.613</ele>
  <time>2026-09-01T01:18:09Z</time>
  <course>359.68</course>
  <speed>0.053851648071345036</speed>
  <fix>3d</fix>
</trkpt>
<trkpt lat="33.8103045" lon="-118.3939168">
  <ele>-5.39</ele>
  <time>2026-09-01T01:18:09Z</time>
  <course>237.7</course>
  <speed>0.06</speed>
  <fix>3d</fix>
</trkpt>
<trkpt lat="33.8103044" lon="-118.3939166">
  <ele>-5.61</ele>
  <time>2026-09-01T01:18:09Z</time>
  <course>359.62</course>
  <speed>0.053851648071345036</speed>
  <fix>3d</fix>
</trkpt>
<trkpt lat="33.8103045" lon="-118.3939168">
  <ele>-5.39</ele>
  <time>2026-09-01T01:18:09Z</time>
  <course>237.7</course>
  <speed>0.06</speed>
  <fix>3d</fix>
</trkpt>
<trkpt lat="33.8103044" lon="-118.3939166">
  <ele>-5.608</ele>
  <time>2026-09-01T01:18:09Z</time>
  <course>359.56</course>
  <speed>0.053851648071345036</speed>
  <fix>3d</fix>
</trkpt>
<trkpt lat="33.8103045" lon="-118.3939169">
  <ele>-5.38</ele>
  <time>2026-09-01T01:18:09Z</time>
  <course>237.22</course>
  <speed>0.06</speed>
  <fix>3d</fix>
</trkpt>
<trkpt lat="33.8103043" lon="-118.3939167">
  <ele>-5.605</ele>
  <time>2026-09-01T01:18:09Z</time>
  <course>359.5</course>
  <speed>0.0632455532033676</speed>
  <fix>3d</fix>
</trkpt>
<trkpt lat="33.8103045" lon="-118.3939169">
  <ele>-5.38</ele>
  <time>2026-09-01T01:18:09Z</time>
  <course>237.22</course>
  <speed>0.06</speed>
  <fix>3d</fix>
</trkpt>
<trkpt lat="33.8103043" lon="-118.3939168">
  <ele>-5.602</ele>
  <time>2026-09-01T01:18:09Z</time>
  <course>359.44</course>
  <speed>0.0632455532033676</speed>
  <fix>3d</fix>
</trkpt>
<trkpt lat="33.8103044" lon="-118.393917">
  <ele>-5.38</ele>
  <time>2026-09-01T01:18:09Z</time>
  <course>236.81</course>
  <speed>0.06</speed>
  <fix>3d</fix>
</trkpt>
<trkpt lat="33.8103042" lon="-118.3939168">
  <ele>-5.6</ele>
  <time>2026-09-01T01:18:09Z</time>
  <course>359.39</course>
  <speed>0.0632455532033676</speed>
  <fix>3d</fix>
</trkpt>
<trkpt lat="33.8103044" lon="-118.393917">
  <ele>-5.38</ele>
  <time>2026-09-01T01:18:09Z</time>
  <course>236.81</course>
  <speed>0.06</speed>
  <fix>3d</fix>
</trkpt>
<trkpt lat="33.8103042" lon="-118.3939169">
  <ele>-5.597</ele>
  <time>2026-09-01T01:18:09Z</time>
  <course>359.33</course>
  <speed>0.0632455532033676</speed>
  <fix>3d</fix>
</trkpt>
<trkpt lat="33.8103044" lon="-118.3939171">
  <ele>-5.37</ele>
  <time>2026-09-01T01:18:09Z</time>
  <course>236.25</course>
  <speed>0.05</speed>
  <fix>3d</fix>
</trkpt>
<trkpt lat="33.8103042" lon="-118.3939169">
  <ele>-5.592</ele>
  <time>2026-09-01T01:18:09Z</time>
  <course>359.28</course>
  <speed>0.0632455532033676</speed>
  <fix>3d</fix>
</trkpt>
<trkpt lat="33.8103044" lon="-118.3939171">
  <ele>-5.37</ele>
  <time>2026-09-01T01:18:09Z</time>
  <course>236.25</course>
  <speed>0.05</speed>
  <fix>3d</fix>
</trkpt>
<trkpt lat="33.8103041" lon="-118.393917">
  <ele>-5.587</ele>
  <time>2026-09-01T01:18:09Z</time>
  <course>359.24</course>
  <speed>0.0632455532033676</speed>
  <fix>3d</fix>
</trkpt>
<trkpt lat="33.8103043" lon="-118.3939172">
  <ele>-5.36</ele>
  <time>2026-09-01T01:18:09Z</time>
  <course>235.6</course>
  <speed>0.05</speed>
  <fix>3d</fix>
</trkpt>
<trkpt lat="33.8103041" lon="-118.393917">
  <ele>-5.581</ele>
  <time>2026-09-01T01:18:09Z</time>
  <course>359.19</course>
  <speed>0.06082762530298219</speed>
  <fix>3d</fix>
</trkpt>
<trkpt lat="33.8103043" lon="-118.3939172">
  <ele>-5.36</ele>
  <time>2026-09-01T01:18:09Z</time>
  <course>235.6</course>
  <speed>0.05</speed>
  <fix>3d</fix>
</trkpt>
<trkpt lat="33.810304" lon="-118.3939171">
  <ele>-5.573</ele>
  <time>2026-09-01T01:18:09Z</time>
  <course>359.14</course>
  <speed>0.06082762530298219</speed>
  <fix>3d</fix>
</trkpt>
<trkpt lat="33.8103043" lon="-118.3939173">
  <ele>-5.35</ele>
  <time>2026-09-01T01:18:09Z</time>
  <course>235.02</course>
  <speed>0.05</speed>
  <fix>3d</fix>
</trkpt>
<trkpt lat="33.810304" lon="-118.3939171">
  <ele>-5.566</ele>
  <time>2026-09-01T01:18:09Z</time>
  <course>359.1</course>
  <speed>0.06082762530298219</speed>
  <fix>3d</fix>
</trkpt>
<trkpt lat="33.8103043" lon="-118.3939173">
  <ele>-5.35</ele>
  <time>2026-09-01T01:18:09Z</time>
  <course>235.02</course>
  <speed>0.05</speed>
  <fix>3d</fix>
</trkpt>
<trkpt lat="33.810304" lon="-118.3939172">
  <ele>-5.559</ele>
  <time>2026-09-01T01:18:09Z</time>
  <course>359.05</course>
  <speed>0.06082762530298219</speed>
  <fix>3d</fix>
</trkpt>
<trkpt lat="33.8103042" lon="-118.3939174">
  <ele>-5.34</ele>
  <time>2026-09-01T01:18:09Z</time>
  <course>234.45</course>
  <speed>0.05</speed>
  <fix>3d</fix>
</trkpt>
<trkpt lat="33.8103039" lon="-118.3939172">
  <ele>-5.551</ele>
  <time>2026-09-01T01:18:09Z</time>
  <course>359.01</course>
  <speed>0.06082762530298219</speed>
  <fix>3d</fix>
</trkpt>
<trkpt lat="33.8103042" lon="-118.3939174">
  <ele>-5.34</ele>
  <time>2026-09-01T01:18:09Z</time>
  <course>234.45</course>
  <speed>0.05</speed>
  <fix>3d</fix>
</trkpt>
<trkpt lat="33.8103039" lon="-118.3939173">
  <ele>-5.542</ele>
  <time>2026-09-01T01:18:09Z</time>
  <course>358.97</course>
  <speed>0.06082762530298219</speed>
  <fix>3d</fix>
</trkpt>
<trkpt lat="33.8103042" lon="-118.3939175">
  <ele>-5.33</ele>
  <time>2026-09-01T01:18:09Z</time>
  <course>233.85</course>
  <speed>0.04</speed>
  <fix>3d</fix>
</trkpt>
<trkpt lat="33.8103039" lon="-118.3939173">
  <ele>-5.534</ele>
  <time>2026-09-01T01:18:09Z</time>
  <course>358.92</course>
  <speed>0.06082762530298219</speed>
  <fix>3d</fix>
</trkpt>
<trkpt lat="33.8103042" lon="-118.3939175">
  <ele>-5.33</ele>
  <time>2026-09-01T01:18:09Z</time>
  <course>233.85</course>
  <speed>0.04</speed>
  <fix>3d</fix>
</trkpt>
<trkpt lat="33.8103038" lon="-118.3939173">
  <ele>-5.526</ele>
  <time>2026-09-01T01:18:09Z</time>
  <course>358.88</course>
  <speed>0.07071067811865475</speed>
  <fix>3d</fix>
</trkpt>
<trkpt lat="33.8103041" lon="-118.3939176">
  <ele>-5.31</ele>
  <time>2026-09-01T01:18:09Z</time>
  <course>233.24</course>
  <speed>0.04</speed>
  <fix>3d</fix>
</trkpt>
<trkpt lat="33.8103038" lon="-118.3939174">
  <ele>-5.518</ele>
  <time>2026-09-01T01:18:09Z</time>
  <course>358.84</course>
  <speed>0.07071067811865475</speed>
  <fix>3d</fix>
</trkpt>
<trkpt lat="33.8103041" lon="-118.3939176">
  <ele>-5.31</ele>
  <time>2026-09-01T01:18:09Z</time>
  <course>233.24</course>
  <speed>0.04</speed>
  <fix>3d</fix>
</trkpt>
<trkpt lat="33.8103038" lon="-118.3939174">
  <ele>-5.51</ele>
  <time>2026-09-01T01:18:09Z</time>
  <course>358.81</course>
  <speed>0.07071067811865475</speed>
  <fix>3d</fix>
</trkpt>
<trkpt lat="33.810304" lon="-118.3939177">
  <ele>-5.3</ele>
  <time>2026-09-01T01:18:09Z</time>
  <course>232.69</course>
  <speed>0.04</speed>
  <fix>3d</fix>
</trkpt>
<trkpt lat="33.8103037" lon="-118.3939175">
  <ele>-5.503</ele>
  <time>2026-09-01T01:18:09Z</time>
  <course>358.77</course>
  <speed>0.07071067811865475</speed>
  <fix>3d</fix>
</trkpt>
<trkpt lat="33.810304" lon="-118.3939177">
  <ele>-5.3</ele>
  <time>2026-09-01T01:18:09Z</time>
  <course>232.69</course>
  <speed>0.04</speed>
  <fix>3d</fix>
</trkpt>
<trkpt lat="33.8103037" lon="-118.3939175">
  <ele>-5.494</ele>
  <time>2026-09-01T01:18:09Z</time>
  <course>358.73</course>
  <speed>0.07071067811865475</speed>
  <fix>3d</fix>
</trkpt>
<trkpt lat="33.810304" lon="-118.3939178">
  <ele>-5.28</ele>
  <time>2026-09-01T01:18:09Z</time>
  <course>232.2</course>
  <speed>0.04</speed>
  <fix>3d</fix>
</trkpt>
<trkpt lat="33.8103037" lon="-118.3939175">
  <ele>-5.485</ele>
  <time>2026-09-01T01:18:09Z</time>
  <course>358.7</course>
  <speed>0.07</speed>
  <fix>3d</fix>
</trkpt>
<trkpt lat="33.810304" lon="-118.3939178">
  <ele>-5.28</ele>
  <time>2026-09-01T01:18:09Z</time>
  <course>232.2</course>
  <speed>0.04</speed>
  <fix>3d</fix>
</trkpt>
<trkpt lat="33.8103036" lon="-118.3939176">
  <ele>-5.475</ele>
  <time>2026-09-01T01:18:09Z</time>
  <course>358.67</course>
  <speed>0.07</speed>
  <fix>3d</fix>
</trkpt>
<trkpt lat="33.8103039" lon="-118.3939178">
  <ele>-5.27</ele>
  <time>2026-09-01T01:18:09Z</time>
  <course>231.78</course>
  <speed>0.04</speed>
  <fix>3d</fix>
</trkpt>
<trkpt lat="33.8103036" lon="-118.3939176">
  <ele>-5.464</ele>
  <time>2026-09-01T01:18:09Z</time>
  <course>358.63</course>
  <speed>0.07</speed>
  <fix>3d</fix>
</trkpt>
<trkpt lat="33.8103039" lon="-118.3939178">
  <ele>-5.27</ele>
  <time>2026-09-01T01:18:09Z</time>
  <course>231.78</course>
  <speed>0.04</speed>
  <fix>3d</fix>
</trkpt>
<trkpt lat="33.8103036" lon="-118.3939176">
  <ele>-5.453</ele>
  <time>2026-09-01T01:18:09Z</time>
  <course>358.6</course>
  <speed>0.07</speed>
  <fix>3d</fix>
</trkpt>
<trkpt lat="33.8103039" lon="-118.3939179">
  <ele>-5.25</ele>
  <time>2026-09-01T01:18:09Z</time>
  <course>231.38</course>
  <speed>0.04</speed>
  <fix>3d</fix>
</trkpt>
<trkpt lat="33.8103035" lon="-118.3939177">
  <ele>-5.442</ele>
  <time>2026-09-01T01:18:09Z</time>
  <course>358.57</course>
  <speed>0.07</speed>
  <fix>3d</fix>
</trkpt>
<trkpt lat="33.8103039" lon="-118.3939179">
  <ele>-5.25</ele>
  <time>2026-09-01T01:18:09Z</time>
  <course>231.38</course>
  <speed>0.04</speed>
  <fix>3d</fix>
</trkpt>
<trkpt lat="33.8103035" lon="-118.3939177">
  <ele>-5.432</ele>
  <time>2026-09-01T01:18:09Z</time>
  <course>358.54</course>
  <speed>0.07</speed>
  <fix>3d</fix>
</trkpt>
<trkpt lat="33.8103039" lon="-118.393918">
  <ele>-5.23</ele>
  <time>2026-09-01T01:18:09Z</time>
  <course>230.96</course>
  <speed>0.03</speed>
  <fix>3d</fix>
</trkpt>
<trkpt lat="33.8103035" lon="-118.3939177">
  <ele>-5.422</ele>
  <time>2026-09-01T01:18:09Z</time>
  <course>358.51</course>
  <speed>0.07</speed>
  <fix>3d</fix>
</trkpt>
<trkpt lat="33.8103039" lon="-118.393918">
  <ele>-5.23</ele>
  <time>2026-09-01T01:18:09Z</time>
  <course>230.96</course>
  <speed>0.03</speed>
  <fix>3d</fix>
</trkpt>
<trkpt lat="33.8103035" lon="-118.3939178">
  <ele>-5.413</ele>
  <time>2026-09-01T01:18:09Z</time>
  <course>358.48</course>
  <speed>0.07</speed>
  <fix>3d</fix>
</trkpt>
<trkpt lat="33.8103038" lon="-118.3939181">
  <ele>-5.22</ele>
  <time>2026-09-01T01:18:09Z</time>
  <course>230.53</course>
  <speed>0.03</speed>
  <fix>3d</fix>
</trkpt>
<trkpt lat="33.8103034" lon="-118.3939178">
  <ele>-5.403</ele>
  <time>2026-09-01T01:18:09Z</time>
  <course>358.45</course>
  <speed>0.07</speed>
  <fix>3d</fix>
</trkpt>
<trkpt lat="33.8103038" lon="-118.3939181">
  <ele>-5.22</ele>
  <time>2026-09-01T01:18:09Z</time>
  <course>230.53</course>
  <speed>0.03</speed>
  <fix>3d</fix>
</trkpt>
<trkpt lat="33.8103034" lon="-118.3939178">
  <ele>-5.394</ele>
  <time>2026-09-01T01:18:09Z</time>
  <course>358.42</course>
  <speed>0.07</speed>
  <fix>3d</fix>
</trkpt>
<trkpt lat="33.8103038" lon="-118.3939181">
  <ele>-5.2</ele>
  <time>2026-09-01T01:18:09Z</time>
  <course>230.12</course>
  <speed>0.03</speed>
  <fix>3d</fix>
</trkpt>
<trkpt lat="33.4368002" lon="-117.0859339">
  <ele>-0.11</ele>
  <time>2026-09-01T01:18:10Z</time>
  <course>0.0</course>
  <speed>0.0</speed>
  <fix>3d</fix>
</trkpt>
<trkpt lat="33.4368002" lon="-117.0859339">
  <ele>-0.11</ele>
  <time>2026-09-01T01:18:10Z</time>
  <course>0.0</course>
  <speed>0.0</speed>
  <fix>3d</fix>
</trkpt>
<trkpt lat="33.810313" lon="-118.393867">
  <ele>0.0</ele>
  <time>2026-09-01T01:18:10Z</time>
  <course>173.5</course>
  <speed>0.0</speed>
  <fix>3d</fix>
</trkpt>
<trkpt lat="33.810313" lon="-118.393867">
  <ele>-0.11</ele>
  <time>2026-09-01T01:18:10Z</time>
  <course>0.0</course>
  <speed>0.0</speed>
  <fix>3d</fix>
</trkpt>
<trkpt lat="33.810313" lon="-118.393867">
  <ele>0.0</ele>
  <time>2026-09-01T01:18:10Z</time>
  <course>173.61</course>
  <speed>0.0</speed>
  <fix>3d</fix>
</trkpt>
<trkpt lat="33.810313" lon="-118.393867">
  <ele>-0.11</ele>
  <time>2026-09-01T01:18:10Z</time>
  <course>0.0</course>
  <speed>0.0</speed>
  <fix>3d</fix>
</trkpt>
<trkpt lat="33.810313" lon="-118.393867">
  <ele>0.0</ele>
  <time>2026-09-01T01:18:10Z</time>
  <course>173.98</course>
  <speed>0.0</speed>
  <fix>3d</fix>
</trkpt>
<trkpt lat="33.810313" lon="-118.393867">
  <ele>-0.11</ele>
  <time>2026-09-01T01:18:10Z</time>
  <course>0.0</course>
  <speed>0.0</speed>
  <fix>3d</fix>
</trkpt>
<trkpt lat="33.810313" lon="-118.393867">
  <ele>0.0</ele>
  <time>2026-09-01T01:18:10Z</time>
  <course>174.51</course>
  <speed>0.0</speed>
  <fix>3d</fix>
</trkpt>
<trkpt lat="33.810313" lon="-118.393867">
  <ele>-0.11</ele>
  <time>2026-09-01T01:18:10Z</time>
  <course>0.0</course>
  <speed>0.0</speed>
  <fix>3d</fix>
</trkpt>
<trkpt lat="33.810313" lon="-118.393867">
  <ele>0.0</ele>
  <time>2026-09-01T01:18:10Z</time>
  <course>175.07</course>
  <speed>0.0</speed>
  <fix>3d</fix>
</trkpt>
<trkpt lat="33.810313" lon="-118.393867">
  <ele>-0.12</ele>
  <time>2026-09-01T01:18:10Z</time>
  <course>0.0</course>
  <speed>0.0</speed>
  <fix>3d</fix>
</trkpt>
<trkpt lat="33.810313" lon="-118.393867">
  <ele>0.0</ele>
  <time>2026-09-01T01:18:10Z</time>
  <course>175.61</course>
  <speed>0.0</speed>
  <fix>3d</fix>
</trkpt>
<trkpt lat="33.810313" lon="-118.393867">
  <ele>-0.12</ele>
  <time>2026-09-01T01:18:10Z</time>
  <course>0.0</course>
  <speed>0.0</speed>
  <fix>3d</fix>
</trkpt>
<trkpt lat="33.810313" lon="-118.393867">
  <ele>0.0</ele>
  <time>2026-09-01T01:18:10Z</time>
  <course>176.12</course>
  <speed>0.0</speed>
  <fix>3d</fix>
</trkpt>
<trkpt lat="33.810313" lon="-118.393867">
  <ele>-0.13</ele>
  <time>2026-09-01T01:18:10Z</time>
  <course>0.0</course>
  <speed>0.0</speed>
  <fix>3d</fix>
</trkpt>
<trkpt lat="33.810313" lon="-118.393867">
  <ele>0.0</ele>
  <time>2026-09-01T01:18:10Z</time>
  <course>176.6</course>
  <speed>0.0</speed>
  <fix>3d</fix>
</trkpt>
<trkpt lat="33.810313" lon="-118.393867">
  <ele>-0.13</ele>
  <time>2026-09-01T01:18:10Z</time>
  <course>0.0</course>
  <speed>0.0</speed>
  <fix>3d</fix>
</trkpt>
<trkpt lat="33.810313" lon="-118.393867">
  <ele>0.0</ele>
  <time>2026-09-01T01:18:10Z</time>
  <course>177.07</course>
  <speed>0.0</speed>
  <fix>3d</fix>
</trkpt>
<trkpt lat="33.810313" lon="-118.393867">
  <ele>-0.13</ele>
  <time>2026-09-01T01:18:10Z</time>
  <course>0.0</course>
  <speed>0.0</speed>
  <fix>3d</fix>
</trkpt>
<trkpt lat="33.810313" lon="-118.393867">
  <ele>0.0</ele>
  <time>2026-09-01T01:18:10Z</time>
  <course>177.53</course>
  <speed>0.0</speed>
  <fix>3d</fix>
</trkpt>
<trkpt lat="33.810313" lon="-118.393867">
  <ele>-0.13</ele>
  <time>2026-09-01T01:18:10Z</time>
  <course>0.0</course>
  <speed>0.0</speed>
  <fix>3d</fix>
</trkpt>
<trkpt lat="33.810313" lon="-118.393867">
  <ele>0.0</ele>
  <time>2026-09-01T01:18:10Z</time>
  <course>177.97</course>
  <speed>0.0</speed>
  <fix>3d</fix>
</trkpt>
<trkpt lat="33.810313" lon="-118.393867">
  <ele>-0.14</ele>
  <time>2026-09-01T01:18:10Z</time>
  <course>0.0</course>
  <speed>0.0</speed>
  <fix>3d</fix>
</trkpt>
<trkpt lat="33.810313" lon="-118.393867">
  <ele>0.0</ele>
  <time>2026-09-01T01:18:10Z</time>
  <course>178.4</course>
  <speed>0.0</speed>
  <fix>3d</fix>
</trkpt>
<trkpt lat="33.810313" lon="-118.393867">
  <ele>-0.14</ele>
  <time>2026-09-01T01:18:10Z</time>
  <course>0.0</course>
  <speed>0.0</speed>
  <fix>3d</fix>
</trkpt>
<trkpt lat="33.810313" lon="-118.393867">
  <ele>0.0</ele>
  <time>2026-09-01T01:18:10Z</time>
  <course>178.82</course>
  <speed>0.0</speed>
  <fix>3d</fix>
</trkpt>
<trkpt lat="33.810313" lon="-118.393867">
  <ele>-0.14</ele>
  <time>2026-09-01T01:18:10Z</time>
  <course>0.0</course>
  <speed>0.0</speed>
  <fix>3d</fix>
</trkpt>
<trkpt lat="33.810313" lon="-118.393867">
  <ele>0.0</ele>
  <time>2026-09-01T01:18:10Z</time>
  <course>179.23</course>
  <speed>0.0</speed>
  <fix>3d</fix>
</trkpt>
<trkpt lat="33.810313" lon="-118.393867">
  <ele>-0.14</ele>
  <time>2026-09-01T01:18:10Z</time>
  <course>0.0</course>
  <speed>0.0</speed>
  <fix>3d</fix>
</trkpt>
<trkpt lat="33.810313" lon="-118.393867">
  <ele>0.0</ele>
  <time>2026-09-01T01:18:10Z</time>
  <course>179.62</course>
  <speed>0.0</speed>
  <fix>3d</fix>
</trkpt>
<trkpt lat="33.810313" lon="-118.393867">
  <ele>-0.14</ele>
  <time>2026-09-01T01:18:10Z</time>
  <course>0.0</course>
  <speed>0.0</speed>
  <fix>3d</fix>
</trkpt>
<trkpt lat="33.810313" lon="-118.393867">
  <ele>0.0</ele>
  <time>2026-09-01T01:18:10Z</time>
  <course>180.01</course>
  <speed>0.0</speed>
  <fix>3d</fix>
</trkpt>
<trkpt lat="33.810313" lon="-118.393867">
  <ele>-0.14</ele>
  <time>2026-09-01T01:18:10Z</time>
  <course>0.0</course>
  <speed>0.0</speed>
  <fix>3d</fix>
</trkpt>
<trkpt lat="33.810313" lon="-118.393867">
  <ele>0.0</ele>
  <time>2026-09-01T01:18:10Z</time>
  <course>180.37</course>
  <speed>0.0</speed>
  <fix>3d</fix>
</trkpt>
<trkpt lat="33.810313" lon="-118.393867">
  <ele>-0.14</ele>
  <time>2026-09-01T01:18:10Z</time>
  <course>0.0</course>
  <speed>0.0</speed>
  <fix>3d</fix>
</trkpt>
<trkpt lat="33.810313" lon="-118.393867">
  <ele>0.0</ele>
  <time>2026-09-01T01:18:10Z</time>
  <course>180.73</course>
  <speed>0.0</speed>
  <fix>3d</fix>
</trkpt>
<trkpt lat="33.810313" lon="-118.393867">
  <ele>-0.14</ele>
  <time>2026-09-01T01:18:10Z</time>
  <course>0.0</course>
  <speed>0.0</speed>
  <fix>3d</fix>
</trkpt>
<trkpt lat="33.810313" lon="-118.393867">
  <ele>0.0</ele>
  <time>2026-09-01T01:18:10Z</time>
  <course>181.07</course>
  <speed>0.0</speed>
  <fix>3d</fix>
</trkpt>
<trkpt lat="33.810313" lon="-118.393867">
  <ele>-0.13</ele>
  <time>2026-09-01T01:18:10Z</time>
  <course>0.0</course>
  <speed>0.0</speed>
  <fix>3d</fix>
</trkpt>
<trkpt lat="33.810313" lon="-118.393867">
  <ele>0.0</ele>
  <time>2026-09-01T01:18:10Z</time>
  <course>181.4</course>
  <speed>0.0</speed>
  <fix>3d</fix>
</trkpt>
<trkpt lat="33.810313" lon="-118.393867">
  <ele>-0.13</ele>
  <time>2026-09-01T01:18:10Z</time>
  <course>0.0</course>
  <speed>0.0</speed>
  <fix>3d</fix>
</trkpt>
<trkpt lat="33.810313" lon="-118.393867">
  <ele>0.0</ele>
  <time>2026-09-01T01:18:10Z</time>
  <course>181.72</course>
  <speed>0.0</speed>
  <fix>3d</fix>
</trkpt>
<trkpt lat="33.810313" lon="-118.393867">
  <ele>-0.12</ele>
  <time>2026-09-01T01:18:10Z</time>
  <course>0.0</course>
  <speed>0.0</speed>
  <fix>3d</fix>
</trkpt>
<trkpt lat="33.810313" lon="-118.393867">
  <ele>0.0</ele>
  <time>2026-09-01T01:18:10Z</time>
  <course>182.02</course>
  <speed>0.0</speed>
  <fix>3d</fix>
</trkpt>
<trkpt lat="33.810313" lon="-118.393867">
  <ele>-0.12</ele>
  <time>2026-09-01T01:18:10Z</time>
  <course>0.0</course>
  <speed>0.0</speed>
  <fix>3d</fix>
</trkpt>
<trkpt lat="33.810313" lon="-118.393867">
  <ele>0.0</ele>
  <time>2026-09-01T01:18:10Z</time>
  <course>182.32</course>
  <speed>0.0</speed>
  <fix>3d</fix>
</trkpt>
<trkpt lat="33.810313" lon="-118.393867">
  <ele>-0.12</ele>
  <time>2026-09-01T01:18:10Z</time>
  <course>0.0</course>
  <speed>0.0</speed>
  <fix>3d</fix>
</trkpt>
<trkpt lat="33.810313" lon="-118.393867">
  <ele>0.0</ele>
  <time>2026-09-01T01:18:10Z</time>
  <course>182.6</course>
  <speed>0.0</speed>
  <fix>3d</fix>
</trkpt>
<trkpt lat="33.810313" lon="-118.393867">
  <ele>-0.12</ele>
  <time>2026-09-01T01:18:10Z</time>
  <course>0.0</course>
  <speed>0.0</speed>
  <fix>3d</fix>
</trkpt>
<trkpt lat="33.810313" lon="-118.393867">
  <ele>0.0</ele>
  <time>2026-09-01T01:18:10Z</time>
  <course>182.87</course>
  <speed>0.0</speed>
  <fix>3d</fix>
</trkpt>
<trkpt lat="33.810313" lon="-118.393867">
  <ele>-0.11</ele>
  <time>2026-09-01T01:18:10Z</time>
  <course>0.0</course>
  <speed>0.0</speed>
  <fix>3d</fix>
</trkpt>
<trkpt lat="33.810313" lon="-118.393867">
  <ele>0.0</ele>
  <time>2026-09-01T01:18:10Z</time>
  <course>183.13</course>
  <speed>0.0</speed>
  <fix>3d</fix>
</trkpt>
<trkpt lat="33.810313" lon="-118.393867">
  <ele>-0.11</ele>
  <time>2026-09-01T01:18:10Z</time>
  <course>0.0</course>
  <speed>0.0</speed>
  <fix>3d</fix>
</trkpt>
<trkpt lat="33.810313" lon="-118.393867">
  <ele>0.0</ele>
  <time>2026-09-01T01:18:10Z</time>
  <course>183.39</course>
  <speed>0.0</speed>
  <fix>3d</fix>
</trkpt>
<trkpt lat="33.810313" lon="-118.393867">
  <ele>-0.11</ele>
  <time>2026-09-01T01:18:10Z</time>
  <course>0.0</course>
  <speed>0.0</speed>
  <fix>3d</fix>
</trkpt>
<trkpt lat="33.810313" lon="-118.393867">
  <ele>0.0</ele>
  <time>2026-09-01T01:18:10Z</time>
  <course>183.63</course>
  <speed>0.0</speed>
  <fix>3d</fix>
</trkpt>
<trkpt lat="33.810313" lon="-118.393867">
  <ele>-0.11</ele>
  <time>2026-09-01T01:18:10Z</time>
  <course>0.0</course>
  <speed>0.0</speed>
  <fix>3d</fix>
</trkpt>
<trkpt lat="33.810313" lon="-118.393867">
  <ele>0.0</ele>
  <time>2026-09-01T01:18:10Z</time>
  <course>183.86</course>
  <speed>0.0</speed>
  <fix>3d</fix>
</trkpt>
<trkpt lat="33.810313" lon="-118.393867">
  <ele>-0.12</ele>
  <time>2026-09-01T01:18:10Z</time>
  <course>0.0</course>
  <speed>0.0</speed>
  <fix>3d</fix>
</trkpt>
<trkpt lat="33.810313" lon="-118.393867">
  <ele>0.0</ele>
  <time>2026-09-01T01:18:10Z</time>
  <course>184.08</course>
  <speed>0.0</speed>
  <fix>3d</fix>
</trkpt>
<trkpt lat="33.810313" lon="-118.393867">
  <ele>-0.12</ele>
  <time>2026-09-01T01:18:10Z</time>
  <course>0.0</course>
  <speed>0.0</speed>
  <fix>3d</fix>
</trkpt>
<trkpt lat="33.810313" lon="-118.393867">
  <ele>0.0</ele>
  <time>2026-09-01T01:18:10Z</time>
  <course>184.3</course>
  <speed>0.0</speed>
  <fix>3d</fix>
</trkpt>
<trkpt lat="33.810313" lon="-118.393867">
  <ele>-0.13</ele>
  <time>2026-09-01T01:18:10Z</time>
  <course>0.0</course>
  <speed>0.0</speed>
  <fix>3d</fix>
</trkpt>
<trkpt lat="33.810313" lon="-118.393867">
  <ele>0.0</ele>
  <time>2026-09-01T01:18:10Z</time>
  <course>184.5</course>
  <speed>0.0</speed>
  <fix>3d</fix>
</trkpt>
<trkpt lat="33.810313" lon="-118.393867">
  <ele>-0.13</ele>
  <time>2026-09-01T01:18:10Z</time>
  <course>0.0</course>
  <speed>0.0</speed>
  <fix>3d</fix>
</trkpt>
<trkpt lat="33.810313" lon="-118.393867">
  <ele>0.0</ele>
  <time>2026-09-01T01:18:10Z</time>
  <course>184.7</course>
  <speed>0.0</speed>
  <fix>3d</fix>
</trkpt>
<trkpt lat="33.810313" lon="-118.393867">
  <ele>-0.13</ele>
  <time>2026-09-01T01:18:10Z</time>
  <course>0.0</course>
  <speed>0.0</speed>
  <fix>3d</fix>
</trkpt>
<trkpt lat="33.810313" lon="-118.393867">
  <ele>0.0</ele>
  <time>2026-09-01T01:18:10Z</time>
  <course>184.89</course>
  <speed>0.0</speed>
  <fix>3d</fix>
</trkpt>
<trkpt lat="33.810313" lon="-118.393867">
  <ele>-0.13</ele>
  <time>2026-09-01T01:18:10Z</time>
  <course>0.0</course>
  <speed>0.0</speed>
  <fix>3d</fix>
</trkpt>
<trkpt lat="33.810313" lon="-118.393867">
  <ele>0.0</ele>
  <time>2026-09-01T01:18:10Z</time>
  <course>185.07</course>
  <speed>0.0</speed>
  <fix>3d</fix>
</trkpt>
<trkpt lat="33.810313" lon="-118.393867">
  <ele>-0.14</ele>
  <time>2026-09-01T01:18:10Z</time>
  <course>0.0</course>
  <speed>0.0</speed>
  <fix>3d</fix>
</trkpt>
<trkpt lat="33.810313" lon="-118.393867">
  <ele>0.0</ele>
  <time>2026-09-01T01:18:10Z</time>
  <course>185.24</course>
  <speed>0.0</speed>
  <fix>3d</fix>
</trkpt>
<trkpt lat="33.810313" lon="-118.393867">
  <ele>-0.14</ele>
  <time>2026-09-01T01:18:10Z</time>
  <course>0.0</course>
  <speed>0.0</speed>
  <fix>3d</fix>
</trkpt>
<trkpt lat="33.810313" lon="-118.393867">
  <ele>0.0</ele>
  <time>2026-09-01T01:18:10Z</time>
  <course>185.41</course>
  <speed>0.0</speed>
  <fix>3d</fix>
</trkpt>
<trkpt lat="33.810313" lon="-118.393867">
  <ele>-0.13</ele>
  <time>2026-09-01T01:18:10Z</time>
  <course>0.0</course>
  <speed>0.0</speed>
  <fix>3d</fix>
</trkpt>
<trkpt lat="33.810313" lon="-118.393867">
  <ele>0.0</ele>
  <time>2026-09-01T01:18:10Z</time>
  <course>185.57</course>
  <speed>0.0</speed>
  <fix>3d</fix>
</trkpt>
<trkpt lat="33.810313" lon="-118.393867">
  <ele>-0.13</ele>
  <time>2026-09-01T01:18:10Z</time>
  <course>0.0</course>
  <speed>0.0</speed>
  <fix>3d</fix>
</trkpt>
<trkpt lat="33.810313" lon="-118.393867">
  <ele>0.0</ele>
  <time>2026-09-01T01:18:10Z</time>
  <course>185.72</course>
  <speed>0.0</speed>
  <fix>3d</fix>
</trkpt>
<trkpt lat="33.810313" lon="-118.393867">
  <ele>-0.13</ele>
  <time>2026-09-01T01:18:10Z</time>
  <course>0.0</course>
  <speed>0.0</speed>
  <fix>3d</fix>
</trkpt>
<trkpt lat="33.810313" lon="-118.393867">
  <ele>0.0</ele>
  <time>2026-09-01T01:18:10Z</time>
  <course>185.86</course>
  <speed>0.0</speed>
  <fix>3d</fix>
</trkpt>
<trkpt lat="33.810313" lon="-118.393867">
  <ele>-0.13</ele>
  <time>2026-09-01T01:18:10Z</time>
  <course>0.0</course>
  <speed>0.0</speed>
  <fix>3d</fix>
</trkpt>
<trkpt lat="33.810313" lon="-118.393867">
  <ele>0.0</ele>
  <time>2026-09-01T01:18:10Z</time>
  <course>186.0</course>
  <speed>0.0</speed>
  <fix>3d</fix>
</trkpt>
<trkpt lat="33.810313" lon="-118.393867">
  <ele>-0.12</ele>
  <time>2026-09-01T01:18:10Z</time>
  <course>0.0</course>
  <speed>0.0</speed>
  <fix>3d</fix>
</trkpt>
<trkpt lat="33.810313" lon="-118.393867">
  <ele>0.0</ele>
  <time>2026-09-01T01:18:10Z</time>
  <course>186.13</course>
  <speed>0.0</speed>
  <fix>3d</fix>
</trkpt>
<trkpt lat="33.810313" lon="-118.393867">
  <ele>-0.12</ele>
  <time>2026-09-01T01:18:10Z</time>
  <course>0.0</course>
  <speed>0.0</speed>
  <fix>3d</fix>
</trkpt>
<trkpt lat="33.810313" lon="-118.393867">
  <ele>0.0</ele>
  <time>2026-09-01T01:18:10Z</time>
  <course>186.26</course>
  <speed>0.0</speed>
  <fix>3d</fix>
</trkpt>
<trkpt lat="33.810313" lon="-118.393867">
  <ele>-0.12</ele>
  <time>2026-09-01T01:18:10Z</time>
  <course>0.0</course>
  <speed>0.0</speed>
  <fix>3d</fix>
</trkpt>
<trkpt lat="33.810313" lon="-118.393867">
  <ele>0.0</ele>
  <time>2026-09-01T01:18:10Z</time>
  <course>186.38</course>
  <speed>0.0</speed>
  <fix>3d</fix>
</trkpt>
<trkpt lat="33.810313" lon="-118.393867">
  <ele>-0.12</ele>
  <time>2026-09-01T01:18:10Z</time>
  <course>0.0</course>
  <speed>0.0</speed>
  <fix>3d</fix>
</trkpt>
<trkpt lat="33.810313" lon="-118.393867">
  <ele>0.0</ele>
  <time>2026-09-01T01:18:10Z</time>
  <course>186.49</course>
  <speed>0.0</speed>
  <fix>3d</fix>
</trkpt>
<trkpt lat="33.810313" lon="-118.393867">
  <ele>-0.12</ele>
  <time>2026-09-01T01:18:10Z</time>
  <course>0.0</course>
  <speed>0.0</speed>
  <fix>3d</fix>
</trkpt>
<trkpt lat="33.810313" lon="-118.393867">
  <ele>0.0</ele>
  <time>2026-09-01T01:18:10Z</time>
  <course>186.6</course>
  <speed>0.0</speed>
  <fix>3d</fix>
</trkpt>
<trkpt lat="33.810313" lon="-118.393867">
  <ele>-0.12</ele>
  <time>2026-09-01T01:18:10Z</time>
  <course>0.0</course>
  <speed>0.0</speed>
  <fix>3d</fix>
</trkpt>
<trkpt lat="33.810313" lon="-118.393867">
  <ele>0.0</ele>
  <time>2026-09-01T01:18:10Z</time>
  <course>186.71</course>
  <speed>0.0</speed>
  <fix>3d</fix>
</trkpt>
<trkpt lat="33.810313" lon="-118.393867">
  <ele>-0.12</ele>
  <time>2026-09-01T01:18:10Z</time>
  <course>0.0</course>
  <speed>0.0</speed>
  <fix>3d</fix>
</trkpt>
<trkpt lat="33.810313" lon="-118.393867">
  <ele>0.0</ele>
  <time>2026-09-01T01:18:10Z</time>
  <course>186.81</course>
  <speed>0.0</speed>
  <fix>3d</fix>
</trkpt>
<trkpt lat="33.810313" lon="-118.393867">
  <ele>-0.12</ele>
  <time>2026-09-01T01:18:10Z</time>
  <course>0.0</course>
  <speed>0.0</speed>
  <fix>3d</fix>
</trkpt>
<trkpt lat="33.810313" lon="-118.393867">
  <ele>0.0</ele>
  <time>2026-09-01T01:18:10Z</time>
  <course>186.91</course>
  <speed>0.0</speed>
  <fix>3d</fix>
</trkpt>
<trkpt lat="33.810313" lon="-118.393867">
  <ele>-0.12</ele>
  <time>2026-09-01T01:18:10Z</time>
  <course>0.0</course>
  <speed>0.0</speed>
  <fix>3d</fix>
</trkpt>
<trkpt lat="33.810313" lon="-118.393867">
  <ele>0.0</ele>
  <time>2026-09-01T01:18:11Z</time>
  <course>187.0</course>
  <speed>0.0</speed>
  <fix>3d</fix>
</trkpt>
<trkpt lat="33.810313" lon="-118.393867">
  <ele>-0.12</ele>
  <time>2026-09-01T01:18:11Z</time>
  <course>0.0</course>
  <speed>0.0</speed>
  <fix>3d</fix>
</trkpt>
<trkpt lat="33.810313" lon="-118.393867">
  <ele>0.0</ele>
  <time>2026-09-01T01:18:11Z</time>
  <course>187.08</course>
  <speed>0.0</speed>
  <fix>3d</fix>
</trkpt>
<trkpt lat="33.810313" lon="-118.393867">
  <ele>-0.13</ele>
  <time>2026-09-01T01:18:11Z</time>
  <course>0.0</course>
  <speed>0.0</speed>
  <fix>3d</fix>
</trkpt>
<trkpt lat="33.810313" lon="-118.393867">
  <ele>0.0</ele>
  <time>2026-09-01T01:18:11Z</time>
  <course>187.17</course>
  <speed>0.0</speed>
  <fix>3d</fix>
</trkpt>
<trkpt lat="33.810313" lon="-118.393867">
  <ele>-0.13</ele>
  <time>2026-09-01T01:18:11Z</time>
  <course>0.0</course>
  <speed>0.0</speed>
  <fix>3d</fix>
</trkpt>
<trkpt lat="33.810313" lon="-118.393867">
  <ele>0.0</ele>
  <time>2026-09-01T01:18:11Z</time>
  <course>187.25</course>
  <speed>0.0</speed>
  <fix>3d</fix>
</trkpt>
<trkpt lat="33.810313" lon="-118.393867">
  <ele>-0.13</ele>
  <time>2026-09-01T01:18:11Z</time>
  <course>0.0</course>
  <speed>0.0</speed>
  <fix>3d</fix>
</trkpt>
<trkpt lat="33.810313" lon="-118.393867">
  <ele>0.0</ele>
  <time>2026-09-01T01:18:11Z</time>
  <course>187.32</course>
  <speed>0.0</speed>
  <fix>3d</fix>
</trkpt>
<trkpt lat="33.810313" lon="-118.393867">
  <ele>-0.13</ele>
  <time>2026-09-01T01:18:11Z</time>
  <course>0.0</course>
  <speed>0.0</speed>
  <fix>3d</fix>
</trkpt>
<trkpt lat="33.810313" lon="-118.393867">
  <ele>0.0</ele>
  <time>2026-09-01T01:18:11Z</time>
  <course>187.39</course>
  <speed>0.0</speed>
  <fix>3d</fix>
</trkpt>
<trkpt lat="33.810313" lon="-118.393867">
  <ele>-0.13</ele>
  <time>2026-09-01T01:18:11Z</time>
  <course>0.0</course>
  <speed>0.0</speed>
  <fix>3d</fix>
</trkpt>
<trkpt lat="33.810313" lon="-118.393867">
  <ele>0.0</ele>
  <time>2026-09-01T01:18:11Z</time>
  <course>187.46</course>
  <speed>0.0</speed>
  <fix>3d</fix>
</trkpt>
<trkpt lat="33.810313" lon="-118.393867">
  <ele>-0.13</ele>
  <time>2026-09-01T01:18:11Z</time>
  <course>0.0</course>
  <speed>0.0</speed>
  <fix>3d</fix>
</trkpt>
<trkpt lat="33.810313" lon="-118.393867">
  <ele>0.0</ele>
  <time>2026-09-01T01:18:11Z</time>
  <course>187.53</course>
  <speed>0.0</speed>
  <fix>3d</fix>
</trkpt>
<trkpt lat="33.810313" lon="-118.393867">
  <ele>-0.13</ele>
  <time>2026-09-01T01:18:11Z</time>
  <course>0.0</course>
  <speed>0.0</speed>
  <fix>3d</fix>
</trkpt>
<trkpt lat="33.810313" lon="-118.393867">
  <ele>0.0</ele>
  <time>2026-09-01T01:18:11Z</time>
  <course>187.59</course>
  <speed>0.0</speed>
  <fix>3d</fix>
</trkpt>
<trkpt lat="33.810313" lon="-118.393867">
  <ele>-0.13</ele>
  <time>2026-09-01T01:18:11Z</time>
  <course>0.0</course>
  <speed>0.0</speed>
  <fix>3d</fix>
</trkpt>
<trkpt lat="33.810313" lon="-118.393867">
  <ele>0.0</ele>
  <time>2026-09-01T01:18:11Z</time>
  <course>187.65</course>
  <speed>0.0</speed>
  <fix>3d</fix>
</trkpt>
<trkpt lat="33.810313" lon="-118.393867">
  <ele>-0.12</ele>
  <time>2026-09-01T01:18:11Z</time>
  <course>0.0</course>
  <speed>0.0</speed>
  <fix>3d</fix>
</trkpt>
<trkpt lat="33.810313" lon="-118.393867">
  <ele>0.0</ele>
  <time>2026-09-01T01:18:11Z</time>
  <course>187.7</course>
  <speed>0.0</speed>
  <fix>3d</fix>
</trkpt>
<trkpt lat="33.810313" lon="-118.393867">
  <ele>-0.12</ele>
  <time>2026-09-01T01:18:11Z</time>
  <course>0.0</course>
  <speed>0.0</speed>
  <fix>3d</fix>
</trkpt>
<trkpt lat="33.810313" lon="-118.393867">
  <ele>0.0</ele>
  <time>2026-09-01T01:18:11Z</time>
  <course>187.76</course>
  <speed>0.0</speed>
  <fix>3d</fix>
</trkpt>
<trkpt lat="33.810313" lon="-118.393867">
  <ele>-0.12</ele>
  <time>2026-09-01T01:18:11Z</time>
  <course>0.0</course>
  <speed>0.0</speed>
  <fix>3d</fix>
</trkpt>
<trkpt lat="33.810313" lon="-118.393867">
  <ele>0.0</ele>
  <time>2026-09-01T01:18:11Z</time>
  <course>187.81</course>
  <speed>0.0</speed>
  <fix>3d</fix>
</trkpt>
<trkpt lat="33.810313" lon="-118.393867">
  <ele>-0.12</ele>
  <time>2026-09-01T01:18:11Z</time>
  <course>0.0</course>
  <speed>0.0</speed>
  <fix>3d</fix>
</trkpt>
<trkpt lat="33.810313" lon="-118.393867">
  <ele>0.0</ele>
  <time>2026-09-01T01:18:11Z</time>
  <course>187.86</course>
  <speed>0.0</speed>
  <fix>3d</fix>
</trkpt>
<trkpt lat="33.810313" lon="-118.393867">
  <ele>-0.12</ele>
  <time>2026-09-01T01:18:11Z</time>
  <course>0.0</course>
  <speed>0.0</speed>
  <fix>3d</fix>
</trkpt>
<trkpt lat="33.810313" lon="-118.393867">
  <ele>0.0</ele>
  <time>2026-09-01T01:18:11Z</time>
  <course>187.9</course>
  <speed>0.0</speed>
  <fix>3d</fix>
</trkpt>
<trkpt lat="33.810313" lon="-118.393867">
  <ele>-0.12</ele>
  <time>2026-09-01T01:18:11Z</time>
  <course>0.0</course>
  <speed>0.0</speed>
  <fix>3d</fix>
</trkpt>
<trkpt lat="33.810313" lon="-118.393867">
  <ele>0.0</ele>
  <time>2026-09-01T01:18:11Z</time>
  <course>187.95</course>
  <speed>0.0</speed>
  <fix>3d</fix>
</trkpt>
<trkpt lat="33.810313" lon="-118.393867">
  <ele>-0.12</ele>
  <time>2026-09-01T01:18:11Z</time>
  <course>0.0</course>
  <speed>0.0</speed>
  <fix>3d</fix>
</trkpt>
<trkpt lat="33.810313" lon="-118.393867">
  <ele>0.0</ele>
  <time>2026-09-01T01:18:11Z</time>
  <course>187.99</course>
  <speed>0.0</speed>
  <fix>3d</fix>
</trkpt>
<trkpt lat="33.810313" lon="-118.393867">
  <ele>-0.12</ele>
  <time>2026-09-01T01:18:11Z</time>
  <course>0.0</course>
  <speed>0.0</speed>
  <fix>3d</fix>
</trkpt>
<trkpt lat="33.810313" lon="-118.393867">
  <ele>0.0</ele>
  <time>2026-09-01T01:18:11Z</time>
  <course>188.03</course>
  <speed>0.0</speed>
  <fix>3d</fix>
</trkpt>
<trkpt lat="33.810313" lon="-118.393867">
  <ele>-0.12</ele>
  <time>2026-09-01T01:18:11Z</time>
  <course>0.0</course>
  <speed>0.0</speed>
  <fix>3d</fix>
</trkpt>
<trkpt lat="33.810313" lon="-118.393867">
  <ele>0.0</ele>
  <time>2026-09-01T01:18:11Z</time>
  <course>188.06</course>
  <speed>0.0</speed>
  <fix>3d</fix>
</trkpt>
<trkpt lat="33.810313" lon="-118.393867">
  <ele>-0.12</ele>
  <time>2026-09-01T01:18:11Z</time>
  <course>0.0</course>
  <speed>0.0</speed>
  <fix>3d</fix>
</trkpt>
<trkpt lat="33.810313" lon="-118.393867">
  <ele>0.0</ele>
  <time>2026-09-01T01:18:11Z</time>
  <course>188.1</course>
  <speed>0.0</speed>
  <fix>3d</fix>
</trkpt>
<trkpt lat="33.810313" lon="-118.393867">
  <ele>-0.13</ele>
  <time>2026-09-01T01:18:11Z</time>
  <course>0.0</course>
  <speed>0.0</speed>
  <fix>3d</fix>
</trkpt>
<trkpt lat="33.810313" lon="-118.393867">
  <ele>0.0</ele>
  <time>2026-09-01T01:18:11Z</time>
  <course>188.13</course>
  <speed>0.0</speed>
  <fix>3d</fix>
</trkpt>
<trkpt lat="33.810313" lon="-118.393867">
  <ele>-0.13</ele>
  <time>2026-09-01T01:18:11Z</time>
  <course>0.0</course>
  <speed>0.0</speed>
  <fix>3d</fix>
</trkpt>
<trkpt lat="33.810313" lon="-118.393867">
  <ele>0.0</ele>
  <time>2026-09-01T01:18:11Z</time>
  <course>188.16</course>
  <speed>0.0</speed>
  <fix>3d</fix>
</trkpt>
<trkpt lat="33.810313" lon="-118.393867">
  <ele>-0.13</ele>
  <time>2026-09-01T01:18:11Z</time>
  <course>0.0</course>
  <speed>0.0</speed>
  <fix>3d</fix>
</trkpt>
<trkpt lat="33.810313" lon="-118.393867">
  <ele>0.0</ele>
  <time>2026-09-01T01:18:11Z</time>
  <course>188.19</course>
  <speed>0.0</speed>
  <fix>3d</fix>
</trkpt>
<trkpt lat="33.810313" lon="-118.393867">
  <ele>-0.13</ele>
  <time>2026-09-01T01:18:11Z</time>
  <course>0.0</course>
  <speed>0.0</speed>
  <fix>3d</fix>
</trkpt>
<trkpt lat="33.810313" lon="-118.393867">
  <ele>0.0</ele>
  <time>2026-09-01T01:18:11Z</time>
  <course>188.22</course>
  <speed>0.0</speed>
  <fix>3d</fix>
</trkpt>
<trkpt lat="33.810313" lon="-118.393867">
  <ele>-0.13</ele>
  <time>2026-09-01T01:18:11Z</time>
  <course>0.0</course>
  <speed>0.0</speed>
  <fix>3d</fix>
</trkpt>
<trkpt lat="33.810313" lon="-118.393867">
  <ele>0.0</ele>
  <time>2026-09-01T01:18:11Z</time>
  <course>188.25</course>
  <speed>0.0</speed>
  <fix>3d</fix>
</trkpt>
<trkpt lat="33.810313" lon="-118.393867">
  <ele>-0.13</ele>
  <time>2026-09-01T01:18:11Z</time>
  <course>0.0</course>
  <speed>0.0</speed>
  <fix>3d</fix>
</trkpt>
<trkpt lat="33.810313" lon="-118.393867">
  <ele>0.0</ele>
  <time>2026-09-01T01:18:11Z</time>
  <course>188.27</course>
  <speed>0.0</speed>
  <fix>3d</fix>
</trkpt>
<trkpt lat="33.810313" lon="-118.393867">
  <ele>-0.12</ele>
  <time>2026-09-01T01:18:11Z</time>
  <course>0.0</course>
  <speed>0.0</speed>
  <fix>3d</fix>
</trkpt>
<trkpt lat="33.810313" lon="-118.393867">
  <ele>0.0</ele>
  <time>2026-09-01T01:18:11Z</time>
  <course>188.29</course>
  <speed>0.0</speed>
  <fix>3d</fix>
</trkpt>
<trkpt lat="33.810313" lon="-118.393867">
  <ele>-0.12</ele>
  <time>2026-09-01T01:18:11Z</time>
  <course>0.0</course>
  <speed>0.0</speed>
  <fix>3d</fix>
</trkpt>
<trkpt lat="33.810313" lon="-118.393867">
  <ele>0.0</ele>
  <time>2026-09-01T01:18:11Z</time>
  <course>188.32</course>
  <speed>0.0</speed>
  <fix>3d</fix>
</trkpt>
<trkpt lat="33.810313" lon="-118.393867">
  <ele>-0.12</ele>
  <time>2026-09-01T01:18:11Z</time>
  <course>0.0</course>
  <speed>0.0</speed>
  <fix>3d</fix>
</trkpt>
<trkpt lat="33.810313" lon="-118.393867">
  <ele>0.0</ele>
  <time>2026-09-01T01:18:11Z</time>
  <course>188.34</course>
  <speed>0.0</speed>
  <fix>3d</fix>
</trkpt>
<trkpt lat="33.810313" lon="-118.393867">
  <ele>-0.12</ele>
  <time>2026-09-01T01:18:11Z</time>
  <course>0.0</course>
  <speed>0.0</speed>
  <fix>3d</fix>
</trkpt>
<trkpt lat="33.810313" lon="-118.393867">
  <ele>0.0</ele>
  <time>2026-09-01T01:18:11Z</time>
  <course>188.36</course>
  <speed>0.0</speed>
  <fix>3d</fix>
</trkpt>
<trkpt lat="33.810313" lon="-118.393867">
  <ele>-0.12</ele>
  <time>2026-09-01T01:18:11Z</time>
  <course>0.0</course>
  <speed>0.0</speed>
  <fix>3d</fix>
</trkpt>
<trkpt lat="33.810313" lon="-118.393867">
  <ele>0.0</ele>
  <time>2026-09-01T01:18:11Z</time>
  <course>188.38</course>
  <speed>0.0</speed>
  <fix>3d</fix>
</trkpt>
<trkpt lat="33.810313" lon="-118.393867">
  <ele>-0.12</ele>
  <time>2026-09-01T01:18:11Z</time>
  <course>0.0</course>
  <speed>0.0</speed>
  <fix>3d</fix>
</trkpt>
<trkpt lat="33.810313" lon="-118.393867">
  <ele>0.0</ele>
  <time>2026-09-01T01:18:11Z</time>
  <course>188.39</course>
  <speed>0.0</speed>
  <fix>3d</fix>
</trkpt>
<trkpt lat="33.810313" lon="-118.393867">
  <ele>-0.12</ele>
  <time>2026-09-01T01:18:11Z</time>
  <course>0.0</course>
  <speed>0.0</speed>
  <fix>3d</fix>
</trkpt>
<trkpt lat="33.810313" lon="-118.393867">
  <ele>0.0</ele>
  <time>2026-09-01T01:18:11Z</time>
  <course>188.41</course>
  <speed>0.0</speed>
  <fix>3d</fix>
</trkpt>
<trkpt lat="33.810313" lon="-118.393867">
  <ele>-0.12</ele>
  <time>2026-09-01T01:18:11Z</time>
  <course>0.0</course>
  <speed>0.0</speed>
  <fix>3d</fix>
</trkpt>
<trkpt lat="33.810313" lon="-118.393867">
  <ele>0.0</ele>
  <time>2026-09-01T01:18:11Z</time>
  <course>188.42</course>
  <speed>0.0</speed>
  <fix>3d</fix>
</trkpt>
<trkpt lat="33.810313" lon="-118.393867">
  <ele>-0.12</ele>
  <time>2026-09-01T01:18:11Z</time>
  <course>0.0</course>
  <speed>0.0</speed>
  <fix>3d</fix>
</trkpt>
<trkpt lat="33.810313" lon="-118.393867">
  <ele>0.0</ele>
  <time>2026-09-01T01:18:11Z</time>
  <course>188.44</course>
  <speed>0.0</speed>
  <fix>3d</fix>
</trkpt>
<trkpt lat="33.810313" lon="-118.393867">
  <ele>-0.12</ele>
  <time>2026-09-01T01:18:11Z</time>
  <course>0.0</course>
  <speed>0.0</speed>
  <fix>3d</fix>
</trkpt>
<trkpt lat="33.810313" lon="-118.393867">
  <ele>0.0</ele>
  <time>2026-09-01T01:18:11Z</time>
  <course>188.45</course>
  <speed>0.0</speed>
  <fix>3d</fix>
</trkpt>
<trkpt lat="33.810313" lon="-118.393867">
  <ele>-0.13</ele>
  <time>2026-09-01T01:18:11Z</time>
  <course>0.0</course>
  <speed>0.0</speed>
  <fix>3d</fix>
</trkpt>
<trkpt lat="33.810313" lon="-118.393867">
  <ele>0.0</ele>
  <time>2026-09-01T01:18:11Z</time>
  <course>188.46</course>
  <speed>0.0</speed>
  <fix>3d</fix>
</trkpt>
<trkpt lat="33.810313" lon="-118.393867">
  <ele>-0.13</ele>
  <time>2026-09-01T01:18:11Z</time>
  <course>0.0</course>
  <speed>0.0</speed>
  <fix>3d</fix>
</trkpt>
<trkpt lat="33.810313" lon="-118.393867">
  <ele>0.0</ele>
  <time>2026-09-01T01:18:11Z</time>
  <course>188.47</course>
  <speed>0.0</speed>
  <fix>3d</fix>
</trkpt>
<trkpt lat="33.810313" lon="-118.393867">
  <ele>-0.13</ele>
  <time>2026-09-01T01:18:11Z</time>
  <course>0.0</course>
  <speed>0.0</speed>
  <fix>3d</fix>
</trkpt>
<trkpt lat="33.810313" lon="-118.393867">
  <ele>0.0</ele>
  <time>2026-09-01T01:18:11Z</time>
  <course>188.48</course>
  <speed>0.0</speed>
  <fix>3d</fix>
</trkpt>
<trkpt lat="33.810313" lon="-118.393867">
  <ele>-0.13</ele>
  <time>2026-09-01T01:18:11Z</time>
  <course>0.0</course>
  <speed>0.0</speed>
  <fix>3d</fix>
</trkpt>
<trkpt lat="33.810313" lon="-118.393867">
  <ele>0.0</ele>
  <time>2026-09-01T01:18:11Z</time>
  <course>188.49</course>
  <speed>0.0</speed>
  <fix>3d</fix>
</trkpt>
<trkpt lat="33.810313" lon="-118.393867">
  <ele>-0.13</ele>
  <time>2026-09-01T01:18:11Z</time>
  <course>0.0</course>
  <speed>0.0</speed>
  <fix>3d</fix>
</trkpt>
<trkpt lat="33.810313" lon="-118.393867">
  <ele>0.0</ele>
  <time>2026-09-01T01:18:11Z</time>
  <course>188.5</course>
  <speed>0.0</speed>
  <fix>3d</fix>
</trkpt>
<trkpt lat="33.810313" lon="-118.393867">
  <ele>-0.13</ele>
  <time>2026-09-01T01:18:11Z</time>
  <course>0.0</course>
  <speed>0.0</speed>
  <fix>3d</fix>
</trkpt>
<trkpt lat="33.810313" lon="-118.393867">
  <ele>0.0</ele>
  <time>2026-09-01T01:18:11Z</time>
  <course>188.51</course>
  <speed>0.0</speed>
  <fix>3d</fix>
</trkpt>
<trkpt lat="33.810313" lon="-118.393867">
  <ele>-0.12</ele>
  <time>2026-09-01T01:18:11Z</time>
  <course>0.0</course>
  <speed>0.0</speed>
  <fix>3d</fix>
</trkpt>
<trkpt lat="33.810313" lon="-118.393867">
  <ele>0.0</ele>
  <time>2026-09-01T01:18:11Z</time>
  <course>188.52</course>
  <speed>0.0</speed>
  <fix>3d</fix>
</trkpt>
<trkpt lat="33.810313" lon="-118.393867">
  <ele>-0.12</ele>
  <time>2026-09-01T01:18:11Z</time>
  <course>0.0</course>
  <speed>0.0</speed>
  <fix>3d</fix>
</trkpt>
<trkpt lat="33.810313" lon="-118.393867">
  <ele>0.0</ele>
  <time>2026-09-01T01:18:11Z</time>
  <course>188.53</course>
  <speed>0.0</speed>
  <fix>3d</fix>
</trkpt>
<trkpt lat="33.810313" lon="-118.393867">
  <ele>-0.12</ele>
  <time>2026-09-01T01:18:11Z</time>
  <course>0.0</course>
  <speed>0.0</speed>
  <fix>3d</fix>
</trkpt>
<trkpt lat="33.810313" lon="-118.393867">
  <ele>0.0</ele>
  <time>2026-09-01T01:18:11Z</time>
  <course>188.53</course>
  <speed>0.0</speed>
  <fix>3d</fix>
</trkpt>
<trkpt lat="33.810313" lon="-118.393867">
  <ele>-0.12</ele>
  <time>2026-09-01T01:18:11Z</time>
  <course>0.0</course>
  <speed>0.0</speed>
  <fix>3d</fix>
</trkpt>
<trkpt lat="33.810313" lon="-118.393867">
  <ele>0.0</ele>
  <time>2026-09-01T01:18:11Z</time>
  <course>188.54</course>
  <speed>0.0</speed>
  <fix>3d</fix>
</trkpt>
<trkpt lat="33.810313" lon="-118.393867">
  <ele>-0.12</ele>
  <time>2026-09-01T01:18:11Z</time>
  <course>0.0</course>
  <speed>0.0</speed>
  <fix>3d</fix>
</trkpt>
<trkpt lat="33.810313" lon="-118.393867">
  <ele>0.0</ele>
  <time>2026-09-01T01:18:11Z</time>
  <course>188.54</course>
  <speed>0.0</speed>
  <fix>3d</fix>
</trkpt>
<trkpt lat="33.810313" lon="-118.393867">
  <ele>-0.12</ele>
  <time>2026-09-01T01:18:11Z</time>
  <course>0.0</course>
  <speed>0.0</speed>
  <fix>3d</fix>
</trkpt>
<trkpt lat="33.810313" lon="-118.393867">
  <ele>0.0</ele>
  <time>2026-09-01T01:18:11Z</time>
  <course>188.54</course>
  <speed>0.0</speed>
  <fix>3d</fix>
</trkpt>
<trkpt lat="33.810313" lon="-118.393867">
  <ele>-0.12</ele>
  <time>2026-09-01T01:18:11Z</time>
  <course>0.0</course>
  <speed>0.0</speed>
  <fix>3d</fix>
</trkpt>
<trkpt lat="33.810313" lon="-118.393867">
  <ele>0.0</ele>
  <time>2026-09-01T01:18:11Z</time>
  <course>188.55</course>
  <speed>0.0</speed>
  <fix>3d</fix>
</trkpt>
<trkpt lat="33.810313" lon="-118.393867">
  <ele>-0.12</ele>
  <time>2026-09-01T01:18:11Z</time>
  <course>0.0</course>
  <speed>0.0</speed>
  <fix>3d</fix>
</trkpt>
<trkpt lat="33.810313" lon="-118.393867">
  <ele>0.0</ele>
  <time>2026-09-01T01:18:11Z</time>
  <course>188.55</course>
  <speed>0.0</speed>
  <fix>3d</fix>
</trkpt>
<trkpt lat="33.810313" lon="-118.393867">
  <ele>-0.12</ele>
  <time>2026-09-01T01:18:11Z</time>
  <course>0.0</course>
  <speed>0.0</speed>
  <fix>3d</fix>
</trkpt>
<trkpt lat="33.810313" lon="-118.393867">
  <ele>0.0</ele>
  <time>2026-09-01T01:18:11Z</time>
  <course>188.55</course>
  <speed>0.0</speed>
  <fix>3d</fix>
</trkpt>
<trkpt lat="33.810313" lon="-118.393867">
  <ele>-0.12</ele>
  <time>2026-09-01T01:18:11Z</time>
  <course>0.0</course>
  <speed>0.0</speed>
  <fix>3d</fix>
</trkpt>
<trkpt lat="33.810313" lon="-118.393867">
  <ele>-0.124</ele>
  <time>2026-09-01T01:18:11Z</time>
  <course>188.55</course>
  <speed>0.0</speed>
  <fix>3d</fix>
</trkpt>
<trkpt lat="33.810313" lon="-118.393867">
  <ele>-0.13</ele>
  <time>2026-09-01T01:18:11Z</time>
  <course>0.0</course>
  <speed>0.0</speed>
  <fix>3d</fix>
</trkpt>
<trkpt lat="33.810313" lon="-118.393867">
  <ele>-0.124</ele>
  <time>2026-09-01T01:18:11Z</time>
  <course>188.56</course>
  <speed>0.0</speed>
  <fix>3d</fix>
</trkpt>
<trkpt lat="33.810313" lon="-118.393867">
  <ele>-0.13</ele>
  <time>2026-09-01T01:18:11Z</time>
  <course>0.0</course>
  <speed>0.0</speed>
  <fix>3d</fix>
</trkpt>
<trkpt lat="33.810313" lon="-118.393867">
  <ele>-0.123</ele>
  <time>2026-09-01T01:18:11Z</time>
  <course>188.56</course>
  <speed>0.0</speed>
  <fix>3d</fix>
</trkpt>
<trkpt lat="33.810313" lon="-118.393867">
  <ele>-0.13</ele>
  <time>2026-09-01T01:18:11Z</time>
  <course>0.0</course>
  <speed>0.0</speed>
  <fix>3d</fix>
</trkpt>
<trkpt lat="33.810313" lon="-118.393867">
  <ele>-0.122</ele>
  <time>2026-09-01T01:18:11Z</time>
  <course>188.56</course>
  <speed>0.0</speed>
  <fix>3d</fix>
</trkpt>
<trkpt lat="33.810313" lon="-118.393867">
  <ele>-0.13</ele>
  <time>2026-09-01T01:18:11Z</time>
  <course>0.0</course>
  <speed>0.0</speed>
  <fix>3d</fix>
</trkpt>
<trkpt lat="33.810313" lon="-118.393867">
  <ele>-0.121</ele>
  <time>2026-09-01T01:18:11Z</time>
  <course>188.56</course>
  <speed>0.0</speed>
  <fix>3d</fix>
</trkpt>
<trkpt lat="33.810313" lon="-118.393867">
  <ele>-0.12</ele>
  <time>2026-09-01T01:18:11Z</time>
  <course>0.0</course>
  <speed>0.0</speed>
  <fix>3d</fix>
</trkpt>
<trkpt lat="33.810313" lon="-118.393867">
  <ele>-0.118</ele>
  <time>2026-09-01T01:18:11Z</time>
  <course>188.56</course>
  <speed>0.0</speed>
  <fix>3d</fix>
</trkpt>
<trkpt lat="33.810313" lon="-118.393867">
  <ele>-0.12</ele>
  <time>2026-09-01T01:18:11Z</time>
  <course>0.0</course>
  <speed>0.0</speed>
  <fix>3d</fix>
</trkpt>
<trkpt lat="33.810313" lon="-118.393867">
  <ele>-0.117</ele>
  <time>2026-09-01T01:18:11Z</time>
  <course>188.56</course>
  <speed>0.0</speed>
  <fix>3d</fix>
</trkpt>
<trkpt lat="33.810313" lon="-118.393867">
  <ele>-0.12</ele>
  <time>2026-09-01T01:18:11Z</time>
  <course>0.0</course>
  <speed>0.0</speed>
  <fix>3d</fix>
</trkpt>
<trkpt lat="33.810313" lon="-118.393867">
  <ele>-0.115</ele>
  <time>2026-09-01T01:18:11Z</time>
  <course>188.56</course>
  <speed>0.0</speed>
  <fix>3d</fix>
</trkpt>
<trkpt lat="33.810313" lon="-118.393867">
  <ele>-0.12</ele>
  <time>2026-09-01T01:18:11Z</time>
  <course>0.0</course>
  <speed>0.0</speed>
  <fix>3d</fix>
</trkpt>
<trkpt lat="33.810313" lon="-118.393867">
  <ele>-0.116</ele>
  <time>2026-09-01T01:18:11Z</time>
  <course>188.55</course>
  <speed>0.0</speed>
  <fix>3d</fix>
</trkpt>
<trkpt lat="33.810313" lon="-118.393867">
  <ele>-0.12</ele>
  <time>2026-09-01T01:18:11Z</time>
  <course>0.0</course>
  <speed>0.0</speed>
  <fix>3d</fix>
</trkpt>
<trkpt lat="33.810313" lon="-118.393867">
  <ele>-0.118</ele>
  <time>2026-09-01T01:18:11Z</time>
  <course>188.55</course>
  <speed>0.0</speed>
  <fix>3d</fix>
</trkpt>
<trkpt lat="33.810313" lon="-118.393867">
  <ele>-0.12</ele>
  <time>2026-09-01T01:18:11Z</time>
  <course>0.0</course>
  <speed>0.0</speed>
  <fix>3d</fix>
</trkpt>
<trkpt lat="33.810313" lon="-118.393867">
  <ele>-0.12</ele>
  <time>2026-09-01T01:18:11Z</time>
  <course>188.55</course>
  <speed>0.0</speed>
  <fix>3d</fix>
</trkpt>
<trkpt lat="33.810313" lon="-118.393867">
  <ele>-0.12</ele>
  <time>2026-09-01T01:18:11Z</time>
  <course>0.0</course>
  <speed>0.0</speed>
  <fix>3d</fix>
</trkpt>
<trkpt lat="33.810313" lon="-118.393867">
  <ele>-0.122</ele>
  <time>2026-09-01T01:18:11Z</time>
  <course>188.55</course>
  <speed>0.0</speed>
  <fix>3d</fix>
</trkpt>
<trkpt lat="33.810313" lon="-118.393867">
  <ele>-0.12</ele>
  <time>2026-09-01T01:18:11Z</time>
  <course>0.0</course>
  <speed>0.0</speed>
  <fix>3d</fix>
</trkpt>
<trkpt lat="33.810313" lon="-118.393867">
  <ele>-0.124</ele>
  <time>2026-09-01T01:18:11Z</time>
  <course>188.55</course>
  <speed>0.0</speed>
  <fix>3d</fix>
</trkpt>
<trkpt lat="33.810313" lon="-118.393867">
  <ele>-0.12</ele>
  <time>2026-09-01T01:18:11Z</time>
  <course>0.0</course>
  <speed>0.0</speed>
  <fix>3d</fix>
</trkpt>
<trkpt lat="33.810313" lon="-118.393867">
  <ele>-0.125</ele>
  <time>2026-09-01T01:18:11Z</time>
  <course>188.55</course>
  <speed>0.0</speed>
  <fix>3d</fix>
</trkpt>
<trkpt lat="33.810313" lon="-118.393867">
  <ele>-0.12</ele>
  <time>2026-09-01T01:18:11Z</time>
  <course>0.0</course>
  <speed>0.0</speed>
  <fix>3d</fix>
</trkpt>
<trkpt lat="33.810313" lon="-118.393867">
  <ele>-0.126</ele>
  <time>2026-09-01T01:18:11Z</time>
  <course>188.55</course>
  <speed>0.0</speed>
  <fix>3d</fix>
</trkpt>
<trkpt lat="33.810313" lon="-118.393867">
  <ele>-0.12</ele>
  <time>2026-09-01T01:18:11Z</time>
  <course>0.0</course>
  <speed>0.0</speed>
  <fix>3d</fix>
</trkpt>
<trkpt lat="33.810313" lon="-118.393867">
  <ele>-0.126</ele>
  <time>2026-09-01T01:18:11Z</time>
  <course>188.55</course>
  <speed>0.0</speed>
  <fix>3d</fix>
</trkpt>
<trkpt lat="33.810313" lon="-118.393867">
  <ele>-0.12</ele>
  <time>2026-09-01T01:18:11Z</time>
  <course>0.0</course>
  <speed>0.0</speed>
  <fix>3d</fix>
</trkpt>
<trkpt lat="33.810313" lon="-118.393867">
  <ele>-0.127</ele>
  <time>2026-09-01T01:18:11Z</time>
  <course>188.54</course>
  <speed>0.0</speed>
  <fix>3d</fix>
</trkpt>
<trkpt lat="33.810313" lon="-118.393867">
  <ele>-0.13</ele>
  <time>2026-09-01T01:18:11Z</time>
  <course>0.0</course>
  <speed>0.0</speed>
  <fix>3d</fix>
</trkpt>
<trkpt lat="33.810313" lon="-118.393867">
  <ele>-0.126</ele>
  <time>2026-09-01T01:18:11Z</time>
  <course>188.54</course>
  <speed>0.0</speed>
  <fix>3d</fix>
</trkpt>
<trkpt lat="33.810313" lon="-118.393867">
  <ele>-0.13</ele>
  <time>2026-09-01T01:18:11Z</time>
  <course>0.0</course>
  <speed>0.0</speed>
  <fix>3d</fix>
</trkpt>
<trkpt lat="33.810313" lon="-118.393867">
  <ele>-0.125</ele>
  <time>2026-09-01T01:18:11Z</time>
  <course>188.53</course>
  <speed>0.0</speed>
  <fix>3d</fix>
</trkpt>
<trkpt lat="33.810313" lon="-118.393867">
  <ele>-0.12</ele>
  <time>2026-09-01T01:18:11Z</time>
  <course>0.0</course>
  <speed>0.0</speed>
  <fix>3d</fix>
</trkpt>
<trkpt lat="33.810313" lon="-118.393867">
  <ele>-0.122</ele>
  <time>2026-09-01T01:18:11Z</time>
  <course>188.53</course>
  <speed>0.0</speed>
  <fix>3d</fix>
</trkpt>
<trkpt lat="33.810313" lon="-118.393867">
  <ele>-0.12</ele>
  <time>2026-09-01T01:18:11Z</time>
  <course>0.0</course>
  <speed>0.0</speed>
  <fix>3d</fix>
</trkpt>
<trkpt lat="33.810313" lon="-118.393867">
  <ele>-0.12</ele>
  <time>2026-09-01T01:18:11Z</time>
  <course>188.53</course>
  <speed>0.0</speed>
  <fix>3d</fix>
</trkpt>
<trkpt lat="33.810313" lon="-118.393867">
  <ele>-0.12</ele>
  <time>2026-09-01T01:18:11Z</time>
  <course>0.0</course>
  <speed>0.0</speed>
  <fix>3d</fix>
</trkpt>
<trkpt lat="33.810313" lon="-118.393867">
  <ele>-0.118</ele>
  <time>2026-09-01T01:18:11Z</time>
  <course>188.52</course>
  <speed>0.0</speed>
  <fix>3d</fix>
</trkpt>
<trkpt lat="33.810313" lon="-118.393867">
  <ele>-0.12</ele>
  <time>2026-09-01T01:18:11Z</time>
  <course>0.0</course>
  <speed>0.0</speed>
  <fix>3d</fix>
</trkpt>
<trkpt lat="33.810313" lon="-118.393867">
  <ele>-0.118</ele>
  <time>2026-09-01T01:18:11Z</time>
  <course>188.52</course>
  <speed>0.0</speed>
  <fix>3d</fix>
</trkpt>
<trkpt lat="33.810313" lon="-118.393867">
  <ele>-0.12</ele>
  <time>2026-09-01T01:18:11Z</time>
  <course>0.0</course>
  <speed>0.0</speed>
  <fix>3d</fix>
</trkpt>
<trkpt lat="33.810313" lon="-118.393867">
  <ele>-0.12</ele>
  <time>2026-09-01T01:18:11Z</time>
  <course>188.51</course>
  <speed>0.0</speed>
  <fix>3d</fix>
</trkpt>
<trkpt lat="33.810313" lon="-118.393867">
  <ele>-0.12</ele>
  <time>2026-09-01T01:18:11Z</time>
  <course>0.0</course>
  <speed>0.0</speed>
  <fix>3d</fix>
</trkpt>
<trkpt lat="33.810313" lon="-118.393867">
  <ele>-0.121</ele>
  <time>2026-09-01T01:18:11Z</time>
  <course>188.5</course>
  <speed>0.0</speed>
  <fix>3d</fix>
</trkpt>
<trkpt lat="33.810313" lon="-118.393867">
  <ele>-0.12</ele>
  <time>2026-09-01T01:18:11Z</time>
  <course>0.0</course>
  <speed>0.0</speed>
  <fix>3d</fix>
</trkpt>
<trkpt lat="33.810313" lon="-118.393867">
  <ele>-0.122</ele>
  <time>2026-09-01T01:18:11Z</time>
  <course>188.5</course>
  <speed>0.0</speed>
  <fix>3d</fix>
</trkpt>
<trkpt lat="33.810313" lon="-118.393867">
  <ele>-0.12</ele>
  <time>2026-09-01T01:18:11Z</time>
  <course>0.0</course>
  <speed>0.0</speed>
  <fix>3d</fix>
</trkpt>
<trkpt lat="33.810313" lon="-118.393867">
  <ele>-0.121</ele>
  <time>2026-09-01T01:18:11Z</time>
  <course>188.49</course>
  <speed>0.0</speed>
  <fix>3d</fix>
</trkpt>
<trkpt lat="33.810313" lon="-118.393867">
  <ele>-0.12</ele>
  <time>2026-09-01T01:18:11Z</time>
  <course>0.0</course>
  <speed>0.0</speed>
  <fix>3d</fix>
</trkpt>
<trkpt lat="33.810313" lon="-118.393867">
  <ele>-0.12</ele>
  <time>2026-09-01T01:18:11Z</time>
  <course>188.49</course>
  <speed>0.0</speed>
  <fix>3d</fix>
</trkpt>
<trkpt lat="33.810313" lon="-118.393867">
  <ele>-0.12</ele>
  <time>2026-09-01T01:18:11Z</time>
  <course>0.0</course>
  <speed>0.0</speed>
  <fix>3d</fix>
</trkpt>
<trkpt lat="33.810313" lon="-118.393867">
  <ele>-0.118</ele>
  <time>2026-09-01T01:18:11Z</time>
  <course>188.48</course>
  <speed>0.0</speed>
  <fix>3d</fix>
</trkpt>
<trkpt lat="33.810313" lon="-118.393867">
  <ele>-0.12</ele>
  <time>2026-09-01T01:18:11Z</time>
  <course>0.0</course>
  <speed>0.0</speed>
  <fix>3d</fix>
</trkpt>
<trkpt lat="33.810313" lon="-118.393867">
  <ele>-0.117</ele>
  <time>2026-09-01T01:18:11Z</time>
  <course>188.47</course>
  <speed>0.0</speed>
  <fix>3d</fix>
</trkpt>
<trkpt lat="33.810313" lon="-118.393867">
  <ele>-0.12</ele>
  <time>2026-09-01T01:18:11Z</time>
  <course>0.0</course>
  <speed>0.0</speed>
  <fix>3d</fix>
</trkpt>
<trkpt lat="33.810313" lon="-118.393867">
  <ele>-0.115</ele>
  <time>2026-09-01T01:18:11Z</time>
  <course>188.47</course>
  <speed>0.01</speed>
  <fix>3d</fix>
</trkpt>
<trkpt lat="33.810313" lon="-118.393867">
  <ele>-0.12</ele>
  <time>2026-09-01T01:18:11Z</time>
  <course>0.0</course>
  <speed>0.0</speed>
  <fix>3d</fix>
</trkpt>
<trkpt lat="33.810313" lon="-118.393867">
  <ele>-0.112</ele>
  <time>2026-09-01T01:18:11Z</time>
  <course>188.46</course>
  <speed>0.01</speed>
  <fix>3d</fix>
</trkpt>
<trkpt lat="33.810313" lon="-118.393867">
  <ele>-0.12</ele>
  <time>2026-09-01T01:18:11Z</time>
  <course>0.0</course>
  <speed>0.0</speed>
  <fix>3d</fix>
</trkpt>
<trkpt lat="33.810313" lon="-118.393867">
  <ele>-0.108</ele>
  <time>2026-09-01T01:18:11Z</time>
  <course>188.45</course>
  <speed>0.01</speed>
  <fix>3d</fix>
</trkpt>
<trkpt lat="33.810313" lon="-118.393867">
  <ele>-0.12</ele>
  <time>2026-09-01T01:18:11Z</time>
  <course>0.0</course>
  <speed>0.0</speed>
  <fix>3d</fix>
</trkpt>
<trkpt lat="33.810313" lon="-118.393867">
  <ele>-0.105</ele>
  <time>2026-09-01T01:18:11Z</time>
  <course>188.45</course>
  <speed>0.01</speed>
  <fix>3d</fix>
</trkpt>
<trkpt lat="33.810313" lon="-118.393867">
  <ele>-0.12</ele>
  <time>2026-09-01T01:18:11Z</time>
  <course>0.0</course>
  <speed>0.0</speed>
  <fix>3d</fix>
</trkpt>
<trkpt lat="33.810313" lon="-118.393867">
  <ele>-0.103</ele>
  <time>2026-09-01T01:18:11Z</time>
  <course>188.44</course>
  <speed>0.01</speed>
  <fix>3d</fix>
</trkpt>
<trkpt lat="33.810313" lon="-118.393867">
  <ele>-0.12</ele>
  <time>2026-09-01T01:18:11Z</time>
  <course>0.0</course>
  <speed>0.0</speed>
  <fix>3d</fix>
</trkpt>
<trkpt lat="33.810313" lon="-118.393867">
  <ele>-0.103</ele>
  <time>2026-09-01T01:18:11Z</time>
  <course>188.43</course>
  <speed>0.01</speed>
  <fix>3d</fix>
</trkpt>
<trkpt lat="33.810313" lon="-118.393867">
  <ele>-0.12</ele>
  <time>2026-09-01T01:18:11Z</time>
  <course>0.0</course>
  <speed>0.0</speed>
  <fix>3d</fix>
</trkpt>
<trkpt lat="33.810313" lon="-118.393867">
  <ele>-0.105</ele>
  <time>2026-09-01T01:18:11Z</time>
  <course>188.43</course>
  <speed>0.01</speed>
  <fix>3d</fix>
</trkpt>
<trkpt lat="33.810313" lon="-118.393867">
  <ele>-0.12</ele>
  <time>2026-09-01T01:18:11Z</time>
  <course>0.0</course>
  <speed>0.0</speed>
  <fix>3d</fix>
</trkpt>
<trkpt lat="33.810313" lon="-118.393867">
  <ele>-0.108</ele>
  <time>2026-09-01T01:18:11Z</time>
  <course>188.42</course>
  <speed>0.01</speed>
  <fix>3d</fix>
</trkpt>
<trkpt lat="33.810313" lon="-118.393867">
  <ele>-0.12</ele>
  <time>2026-09-01T01:18:11Z</time>
  <course>0.0</course>
  <speed>0.0</speed>
  <fix>3d</fix>
</trkpt>
<trkpt lat="33.810313" lon="-118.393867">
  <ele>-0.11</ele>
  <time>2026-09-01T01:18:11Z</time>
  <course>188.41</course>
  <speed>0.01</speed>
  <fix>3d</fix>
</trkpt>
<trkpt lat="33.810313" lon="-118.393867">
  <ele>-0.12</ele>
  <time>2026-09-01T01:18:11Z</time>
  <course>0.0</course>
  <speed>0.0</speed>
  <fix>3d</fix>
</trkpt>
<trkpt lat="33.810313" lon="-118.393867">
  <ele>-0.112</ele>
  <time>2026-09-01T01:18:11Z</time>
  <course>188.4</course>
  <speed>0.01</speed>
  <fix>3d</fix>
</trkpt>
<trkpt lat="33.810313" lon="-118.393867">
  <ele>-0.12</ele>
  <time>2026-09-01T01:18:11Z</time>
  <course>0.0</course>
  <speed>0.0</speed>
  <fix>3d</fix>
</trkpt>
<trkpt lat="33.810313" lon="-118.393867">
  <ele>-0.114</ele>
  <time>2026-09-01T01:18:11Z</time>
  <course>188.4</course>
  <speed>0.01</speed>
  <fix>3d</fix>
</trkpt>
<trkpt lat="33.810313" lon="-118.393867">
  <ele>-0.12</ele>
  <time>2026-09-01T01:18:11Z</time>
  <course>0.0</course>
  <speed>0.0</speed>
  <fix>3d</fix>
</trkpt>
<trkpt lat="33.810313" lon="-118.393867">
  <ele>-0.113</ele>
  <time>2026-09-01T01:18:11Z</time>
  <course>188.39</course>
  <speed>0.01414213562373095</speed>
  <fix>3d</fix>
</trkpt>
<trkpt lat="33.810313" lon="-118.393867">
  <ele>-0.12</ele>
  <time>2026-09-01T01:18:11Z</time>
  <course>0.0</course>
  <speed>0.0</speed>
  <fix>3d</fix>
</trkpt>
<trkpt lat="33.810313" lon="-118.393867">
  <ele>-0.112</ele>
  <time>2026-09-01T01:18:11Z</time>
  <course>188.38</course>
  <speed>0.01414213562373095</speed>
  <fix>3d</fix>
</trkpt>
<trkpt lat="33.810313" lon="-118.393867">
  <ele>-0.12</ele>
  <time>2026-09-01T01:18:11Z</time>
  <course>0.0</course>
  <speed>0.0</speed>
  <fix>3d</fix>
</trkpt>
<trkpt lat="33.810313" lon="-118.393867">
  <ele>-0.11</ele>
  <time>2026-09-01T01:18:11Z</time>
  <course>188.37</course>
  <speed>0.01414213562373095</speed>
  <fix>3d</fix>
</trkpt>
<trkpt lat="33.810313" lon="-118.393867">
  <ele>-0.12</ele>
  <time>2026-09-01T01:18:11Z</time>
  <course>0.0</course>
  <speed>0.0</speed>
  <fix>3d</fix>
</trkpt>
<trkpt lat="33.810313" lon="-118.393867">
  <ele>-0.108</ele>
  <time>2026-09-01T01:18:11Z</time>
  <course>188.37</course>
  <speed>0.01414213562373095</speed>
  <fix>3d</fix>
</trkpt>
<trkpt lat="33.810313" lon="-118.393867">
  <ele>-0.12</ele>
  <time>2026-09-01T01:18:11Z</time>
  <course>0.0</course>
  <speed>0.0</speed>
  <fix>3d</fix>
</trkpt>
<trkpt lat="33.810313" lon="-118.393867">
  <ele>-0.107</ele>
  <time>2026-09-01T01:18:11Z</time>
  <course>188.36</course>
  <speed>0.01414213562373095</speed>
  <fix>3d</fix>
</trkpt>
<trkpt lat="33.810313" lon="-118.393867">
  <ele>-0.12</ele>
  <time>2026-09-01T01:18:11Z</time>
  <course>0.0</course>
  <speed>0.0</speed>
  <fix>3d</fix>
</trkpt>
<trkpt lat="33.810313" lon="-118.393867">
  <ele>-0.106</ele>
  <time>2026-09-01T01:18:11Z</time>
  <course>188.35</course>
  <speed>0.01414213562373095</speed>
  <fix>3d</fix>
</trkpt>
<trkpt lat="33.810313" lon="-118.393867">
  <ele>-0.12</ele>
  <time>2026-09-01T01:18:11Z</time>
  <course>0.0</course>
  <speed>0.0</speed>
  <fix>3d</fix>
</trkpt>
<trkpt lat="33.810313" lon="-118.393867">
  <ele>-0.107</ele>
  <time>2026-09-01T01:18:11Z</time>
  <course>188.34</course>
  <speed>0.01414213562373095</speed>
  <fix>3d</fix>
</trkpt>
<trkpt lat="33.810313" lon="-118.393867">
  <ele>-0.12</ele>
  <time>2026-09-01T01:18:11Z</time>
  <course>0.0</course>
  <speed>0.0</speed>
  <fix>3d</fix>
</trkpt>
<trkpt lat="33.810313" lon="-118.393867">
  <ele>-0.109</ele>
  <time>2026-09-01T01:18:11Z</time>
  <course>188.34</course>
  <speed>0.01414213562373095</speed>
  <fix>3d</fix>
</trkpt>
<trkpt lat="33.810313" lon="-118.393867">
  <ele>-0.12</ele>
  <time>2026-09-01T01:18:11Z</time>
  <course>0.0</course>
  <speed>0.0</speed>
  <fix>3d</fix>
</trkpt>
<trkpt lat="33.810313" lon="-118.393867">
  <ele>-0.112</ele>
  <time>2026-09-01T01:18:11Z</time>
  <course>188.33</course>
  <speed>0.01414213562373095</speed>
  <fix>3d</fix>
</trkpt>
<trkpt lat="33.810313" lon="-118.393867">
  <ele>-0.12</ele>
  <time>2026-09-01T01:18:11Z</time>
  <course>0.0</course>
  <speed>0.0</speed>
  <fix>3d</fix>
</trkpt>
<trkpt lat="33.810313" lon="-118.393867">
  <ele>-0.115</ele>
  <time>2026-09-01T01:18:11Z</time>
  <course>188.32</course>
  <speed>0.01414213562373095</speed>
  <fix>3d</fix>
</trkpt>
<trkpt lat="33.810313" lon="-118.393867">
  <ele>-0.12</ele>
  <time>2026-09-01T01:18:11Z</time>
  <course>0.0</course>
  <speed>0.0</speed>
  <fix>3d</fix>
</trkpt>
<trkpt lat="33.810313" lon="-118.393867">
  <ele>-0.118</ele>
  <time>2026-09-01T01:18:11Z</time>
  <course>188.31</course>
  <speed>0.01414213562373095</speed>
  <fix>3d</fix>
</trkpt>
<trkpt lat="33.810313" lon="-118.393867">
  <ele>-0.12</ele>
  <time>2026-09-01T01:18:11Z</time>
  <course>0.0</course>
  <speed>0.0</speed>
  <fix>3d</fix>
</trkpt>
<trkpt lat="33.810313" lon="-118.393867">
  <ele>-0.12</ele>
  <time>2026-09-01T01:18:11Z</time>
  <course>188.3</course>
  <speed>0.01414213562373095</speed>
  <fix>3d</fix>
</trkpt>
<trkpt lat="33.810313" lon="-118.393867">
  <ele>-0.12</ele>
  <time>2026-09-01T01:18:11Z</time>
  <course>0.0</course>
  <speed>0.0</speed>
  <fix>3d</fix>
</trkpt>
<trkpt lat="33.810313" lon="-118.393867">
  <ele>-0.121</ele>
  <time>2026-09-01T01:18:11Z</time>
  <course>188.3</course>
  <speed>0.01414213562373095</speed>
  <fix>3d</fix>
</trkpt>
<trkpt lat="33.810313" lon="-118.393867">
  <ele>-0.12</ele>
  <time>2026-09-01T01:18:11Z</time>
  <course>0.0</course>
  <speed>0.0</speed>
  <fix>3d</fix>
</trkpt>
<trkpt lat="33.810313" lon="-118.393867">
  <ele>-0.122</ele>
  <time>2026-09-01T01:18:11Z</time>
  <course>188.29</course>
  <speed>0.01414213562373095</speed>
  <fix>3d</fix>
</trkpt>
<trkpt lat="33.810313" lon="-118.393867">
  <ele>-0.12</ele>
  <time>2026-09-01T01:18:11Z</time>
  <course>0.0</course>
  <speed>0.0</speed>
  <fix>3d</fix>
</trkpt>
<trkpt lat="33.810313" lon="-118.393867">
  <ele>-0.121</ele>
  <time>2026-09-01T01:18:11Z</time>
  <course>188.28</course>
  <speed>0.01414213562373095</speed>
  <fix>3d</fix>
</trkpt>
<trkpt lat="33.810313" lon="-118.393867">
  <ele>-0.12</ele>
  <time>2026-09-01T01:18:11Z</time>
  <course>0.0</course>
  <speed>0.0</speed>
  <fix>3d</fix>
</trkpt>
<trkpt lat="33.810313" lon="-118.393867">
  <ele>-0.118</ele>
  <time>2026-09-01T01:18:11Z</time>
  <course>188.27</course>
  <speed>0.01414213562373095</speed>
  <fix>3d</fix>
</trkpt>
<trkpt lat="33.810313" lon="-118.393867">
  <ele>-0.12</ele>
  <time>2026-09-01T01:18:11Z</time>
  <course>0.0</course>
  <speed>0.0</speed>
  <fix>3d</fix>
</trkpt>
<trkpt lat="33.810313" lon="-118.393867">
  <ele>-0.115</ele>
  <time>2026-09-01T01:18:11Z</time>
  <course>188.26</course>
  <speed>0.01414213562373095</speed>
  <fix>3d</fix>
</trkpt>
<trkpt lat="33.810313" lon="-118.393867">
  <ele>-0.12</ele>
  <time>2026-09-01T01:18:11Z</time>
  <course>0.0</course>
  <speed>0.0</speed>
  <fix>3d</fix>
</trkpt>
<trkpt lat="33.810313" lon="-118.393867">
  <ele>-0.112</ele>
  <time>2026-09-01T01:18:11Z</time>
  <course>188.26</course>
  <speed>0.01414213562373095</speed>
  <fix>3d</fix>
</trkpt>
<trkpt lat="33.810313" lon="-118.393867">
  <ele>-0.12</ele>
  <time>2026-09-01T01:18:11Z</time>
  <course>0.0</course>
  <speed>0.0</speed>
  <fix>3d</fix>
</trkpt>
<trkpt lat="33.810313" lon="-118.393867">
  <ele>-0.11</ele>
  <time>2026-09-01T01:18:11Z</time>
  <course>188.25</course>
  <speed>0.01414213562373095</speed>
  <fix>3d</fix>
</trkpt>
<trkpt lat="33.810313" lon="-118.393867">
  <ele>-0.12</ele>
  <time>2026-09-01T01:18:11Z</time>
  <course>0.0</course>
  <speed>0.0</speed>
  <fix>3d</fix>
</trkpt>
<trkpt lat="33.810313" lon="-118.393867">
  <ele>-0.11</ele>
  <time>2026-09-01T01:18:11Z</time>
  <course>188.24</course>
  <speed>0.01414213562373095</speed>
  <fix>3d</fix>
</trkpt>
<trkpt lat="33.810313" lon="-118.393867">
  <ele>-0.12</ele>
  <time>2026-09-01T01:18:11Z</time>
  <course>0.0</course>
  <speed>0.0</speed>
  <fix>3d</fix>
</trkpt>
<trkpt lat="33.810313" lon="-118.393867">
  <ele>-0.11</ele>
  <time>2026-09-01T01:18:11Z</time>
  <course>188.23</course>
  <speed>0.01414213562373095</speed>
  <fix>3d</fix>
</trkpt>
<trkpt lat="33.810313" lon="-118.393867">
  <ele>-0.12</ele>
  <time>2026-09-01T01:18:11Z</time>
  <course>0.0</course>
  <speed>0.0</speed>
  <fix>3d</fix>
</trkpt>
<trkpt lat="33.810313" lon="-118.393867">
  <ele>-0.112</ele>
  <time>2026-09-01T01:18:11Z</time>
  <course>188.22</course>
  <speed>0.01414213562373095</speed>
  <fix>3d</fix>
</trkpt>
<trkpt lat="33.810313" lon="-118.393867">
  <ele>-0.12</ele>
  <time>2026-09-01T01:18:11Z</time>
  <course>0.0</course>
  <speed>0.0</speed>
  <fix>3d</fix>
</trkpt>
<trkpt lat="33.810313" lon="-118.393867">
  <ele>-0.116</ele>
  <time>2026-09-01T01:18:11Z</time>
  <course>188.21</course>
  <speed>0.01414213562373095</speed>
  <fix>3d</fix>
</trkpt>
<trkpt lat="33.810313" lon="-118.393867">
  <ele>-0.12</ele>
  <time>2026-09-01T01:18:11Z</time>
  <course>0.0</course>
  <speed>0.0</speed>
  <fix>3d</fix>
</trkpt>
<trkpt lat="33.810313" lon="-118.393867">
  <ele>-0.119</ele>
  <time>2026-09-01T01:18:11Z</time>
  <course>188.21</course>
  <speed>0.01414213562373095</speed>
  <fix>3d</fix>
</trkpt>
<trkpt lat="33.810313" lon="-118.393867">
  <ele>-0.12</ele>
  <time>2026-09-01T01:18:11Z</time>
  <course>0.0</course>
  <speed>0.0</speed>
  <fix>3d</fix>
</trkpt>
<trkpt lat="33.810313" lon="-118.393867">
  <ele>-0.12</ele>
  <time>2026-09-01T01:18:11Z</time>
  <course>188.2</course>
  <speed>0.01414213562373095</speed>
  <fix>3d</fix>
</trkpt>
<trkpt lat="33.810313" lon="-118.393867">
  <ele>-0.12</ele>
  <time>2026-09-01T01:18:11Z</time>
  <course>0.0</course>
  <speed>0.0</speed>
  <fix>3d</fix>
</trkpt>
<trkpt lat="33.810313" lon="-118.393867">
  <ele>-0.119</ele>
  <time>2026-09-01T01:18:11Z</time>
  <course>188.19</course>
  <speed>0.01414213562373095</speed>
  <fix>3d</fix>
</trkpt>
<trkpt lat="33.810313" lon="-118.393867">
  <ele>-0.12</ele>
  <time>2026-09-01T01:18:11Z</time>
  <course>0.0</course>
  <speed>0.0</speed>
  <fix>3d</fix>
</trkpt>
<trkpt lat="33.810313" lon="-118.393867">
  <ele>-0.118</ele>
  <time>2026-09-01T01:18:11Z</time>
  <course>188.18</course>
  <speed>0.01414213562373095</speed>
  <fix>3d</fix>
</trkpt>
<trkpt lat="33.810313" lon="-118.393867">
  <ele>-0.12</ele>
  <time>2026-09-01T01:18:11Z</time>
  <course>0.0</course>
  <speed>0.0</speed>
  <fix>3d</fix>
</trkpt>
<trkpt lat="33.810313" lon="-118.393867">
  <ele>-0.117</ele>
  <time>2026-09-01T01:18:11Z</time>
  <course>188.17</course>
  <speed>0.01414213562373095</speed>
  <fix>3d</fix>
</trkpt>
<trkpt lat="33.810313" lon="-118.393867">
  <ele>-0.12</ele>
  <time>2026-09-01T01:18:11Z</time>
  <course>0.0</course>
  <speed>0.0</speed>
  <fix>3d</fix>
</trkpt>
<trkpt lat="33.810313" lon="-118.393867">
  <ele>-0.116</ele>
  <time>2026-09-01T01:18:11Z</time>
  <course>188.16</course>
  <speed>0.01414213562373095</speed>
  <fix>3d</fix>
</trkpt>
<trkpt lat="33.810313" lon="-118.393867">
  <ele>-0.12</ele>
  <time>2026-09-01T01:18:11Z</time>
  <course>0.0</course>
  <speed>0.0</speed>
  <fix>3d</fix>
</trkpt>
<trkpt lat="33.810313" lon="-118.393867">
  <ele>-0.114</ele>
  <time>2026-09-01T01:18:11Z</time>
  <course>188.16</course>
  <speed>0.01414213562373095</speed>
  <fix>3d</fix>
</trkpt>
<trkpt lat="33.810313" lon="-118.393867">
  <ele>-0.12</ele>
  <time>2026-09-01T01:18:11Z</time>
  <course>0.0</course>
  <speed>0.0</speed>
  <fix>3d</fix>
</trkpt>
<trkpt lat="33.810313" lon="-118.393867">
  <ele>-0.114</ele>
  <time>2026-09-01T01:18:11Z</time>
  <course>188.15</course>
  <speed>0.01414213562373095</speed>
  <fix>3d</fix>
</trkpt>
<trkpt lat="33.810313" lon="-118.393867">
  <ele>-0.12</ele>
  <time>2026-09-01T01:18:11Z</time>
  <course>0.0</course>
  <speed>0.0</speed>
  <fix>3d</fix>
</trkpt>
<trkpt lat="33.810313" lon="-118.393867">
  <ele>-0.115</ele>
  <time>2026-09-01T01:18:11Z</time>
  <course>188.14</course>
  <speed>0.01414213562373095</speed>
  <fix>3d</fix>
</trkpt>
<trkpt lat="33.810313" lon="-118.393867">
  <ele>-0.12</ele>
  <time>2026-09-01T01:18:11Z</time>
  <course>0.0</course>
  <speed>0.0</speed>
  <fix>3d</fix>
</trkpt>
<trkpt lat="33.810313" lon="-118.393867">
  <ele>-0.118</ele>
  <time>2026-09-01T01:18:11Z</time>
  <course>188.13</course>
  <speed>0.01414213562373095</speed>
  <fix>3d</fix>
</trkpt>
<trkpt lat="33.810313" lon="-118.393867">
  <ele>-0.12</ele>
  <time>2026-09-01T01:18:11Z</time>
  <course>0.0</course>
  <speed>0.0</speed>
  <fix>3d</fix>
</trkpt>
<trkpt lat="33.810313" lon="-118.393867">
  <ele>-0.12</ele>
  <time>2026-09-01T01:18:11Z</time>
  <course>188.12</course>
  <speed>0.01414213562373095</speed>
  <fix>3d</fix>
</trkpt>
<trkpt lat="33.810313" lon="-118.393867">
  <ele>-0.12</ele>
  <time>2026-09-01T01:18:11Z</time>
  <course>0.0</course>
  <speed>0.0</speed>
  <fix>3d</fix>
</trkpt>
<trkpt lat="33.810313" lon="-118.393867">
  <ele>-0.122</ele>
  <time>2026-09-01T01:18:11Z</time>
  <course>188.12</course>
  <speed>0.01414213562373095</speed>
  <fix>3d</fix>
</trkpt>
<trkpt lat="33.810313" lon="-118.393867">
  <ele>-0.12</ele>
  <time>2026-09-01T01:18:11Z</time>
  <course>0.0</course>
  <speed>0.0</speed>
  <fix>3d</fix>
</trkpt>
<trkpt lat="33.810313" lon="-118.393867">
  <ele>-0.122</ele>
  <time>2026-09-01T01:18:11Z</time>
  <course>188.11</course>
  <speed>0.01414213562373095</speed>
  <fix>3d</fix>
</trkpt>
<trkpt lat="33.810313" lon="-118.393867">
  <ele>-0.12</ele>
  <time>2026-09-01T01:18:11Z</time>
  <course>0.0</course>
  <speed>0.0</speed>
  <fix>3d</fix>
</trkpt>
<trkpt lat="33.810313" lon="-118.393867">
  <ele>-0.121</ele>
  <time>2026-09-01T01:18:11Z</time>
  <course>188.1</course>
  <speed>0.01414213562373095</speed>
  <fix>3d</fix>
</trkpt>
<trkpt lat="33.810313" lon="-118.393867">
  <ele>-0.12</ele>
  <time>2026-09-01T01:18:11Z</time>
  <course>0.0</course>
  <speed>0.0</speed>
  <fix>3d</fix>
</trkpt>
<trkpt lat="33.810313" lon="-118.393867">
  <ele>-0.12</ele>
  <time>2026-09-01T01:18:11Z</time>
  <course>188.09</course>
  <speed>0.01414213562373095</speed>
  <fix>3d</fix>
</trkpt>
<trkpt lat="33.810313" lon="-118.393867">
  <ele>-0.12</ele>
  <time>2026-09-01T01:18:11Z</time>
  <course>0.0</course>
  <speed>0.0</speed>
  <fix>3d</fix>
</trkpt>
<trkpt lat="33.810313" lon="-118.393867">
  <ele>-0.118</ele>
  <time>2026-09-01T01:18:11Z</time>
  <course>188.08</course>
  <speed>0.01414213562373095</speed>
  <fix>3d</fix>
</trkpt>
<trkpt lat="33.810313" lon="-118.393867">
  <ele>-0.12</ele>
  <time>2026-09-01T01:18:11Z</time>
  <course>0.0</course>
  <speed>0.0</speed>
  <fix>3d</fix>
</trkpt>
<trkpt lat="33.810313" lon="-118.393867">
  <ele>-0.115</ele>
  <time>2026-09-01T01:18:11Z</time>
  <course>188.07</course>
  <speed>0.01414213562373095</speed>
  <fix>3d</fix>
</trkpt>
<trkpt lat="33.810313" lon="-118.393867">
  <ele>-0.12</ele>
  <time>2026-09-01T01:18:11Z</time>
  <course>0.0</course>
  <speed>0.0</speed>
  <fix>3d</fix>
</trkpt>
<trkpt lat="33.810313" lon="-118.393867">
  <ele>-0.113</ele>
  <time>2026-09-01T01:18:11Z</time>
  <course>188.07</course>
  <speed>0.01414213562373095</speed>
  <fix>3d</fix>
</trkpt>
<trkpt lat="33.810313" lon="-118.393867">
  <ele>-0.12</ele>
  <time>2026-09-01T01:18:11Z</time>
  <course>0.0</course>
  <speed>0.0</speed>
  <fix>3d</fix>
</trkpt>
<trkpt lat="33.810313" lon="-118.393867">
  <ele>-0.111</ele>
  <time>2026-09-01T01:18:11Z</time>
  <course>188.06</course>
  <speed>0.01414213562373095</speed>
  <fix>3d</fix>
</trkpt>
<trkpt lat="33.810313" lon="-118.393867">
  <ele>-0.12</ele>
  <time>2026-09-01T01:18:11Z</time>
  <course>0.0</course>
  <speed>0.0</speed>
  <fix>3d</fix>
</trkpt>
<trkpt lat="33.810313" lon="-118.393867">
  <ele>-0.111</ele>
  <time>2026-09-01T01:18:11Z</time>
  <course>188.05</course>
  <speed>0.022360679774997897</speed>
  <fix>3d</fix>
</trkpt>
<trkpt lat="33.810313" lon="-118.393867">
  <ele>-0.12</ele>
  <time>2026-09-01T01:18:11Z</time>
  <course>0.0</course>
  <speed>0.0</speed>
  <fix>3d</fix>
</trkpt>
<trkpt lat="33.810313" lon="-118.393867">
  <ele>-0.113</ele>
  <time>2026-09-01T01:18:11Z</time>
  <course>188.04</course>
  <speed>0.022360679774997897</speed>
  <fix>3d</fix>
</trkpt>
<trkpt lat="33.810313" lon="-118.393867">
  <ele>-0.12</ele>
  <time>2026-09-01T01:18:11Z</time>
  <course>0.0</course>
  <speed>0.0</speed>
  <fix>3d</fix>
</trkpt>
<trkpt lat="33.810313" lon="-118.393867">
  <ele>-0.114</ele>
  <time>2026-09-01T01:18:11Z</time>
  <course>188.03</course>
  <speed>0.022360679774997897</speed>
  <fix>3d</fix>
</trkpt>
<trkpt lat="33.810313" lon="-118.393867">
  <ele>-0.12</ele>
  <time>2026-09-01T01:18:11Z</time>
  <course>0.0</course>
  <speed>0.0</speed>
  <fix>3d</fix>
</trkpt>
<trkpt lat="33.810313" lon="-118.393867">
  <ele>-0.117</ele>
  <time>2026-09-01T01:18:11Z</time>
  <course>188.02</course>
  <speed>0.022360679774997897</speed>
  <fix>3d</fix>
</trkpt>
<trkpt lat="33.810313" lon="-118.393867">
  <ele>-0.12</ele>
  <time>2026-09-01T01:18:11Z</time>
  <course>0.0</course>
  <speed>0.0</speed>
  <fix>3d</fix>
</trkpt>
<trkpt lat="33.810313" lon="-118.393867">
  <ele>-0.119</ele>
  <time>2026-09-01T01:18:11Z</time>
  <course>188.02</course>
  <speed>0.022360679774997897</speed>
  <fix>3d</fix>
</trkpt>
<trkpt lat="33.810313" lon="-118.393867">
  <ele>-0.12</ele>
  <time>2026-09-01T01:18:11Z</time>
  <course>0.0</course>
  <speed>0.0</speed>
  <fix>3d</fix>
</trkpt>
<trkpt lat="33.810313" lon="-118.393867">
  <ele>-0.121</ele>
  <time>2026-09-01T01:18:11Z</time>
  <course>188.01</course>
  <speed>0.022360679774997897</speed>
  <fix>3d</fix>
</trkpt>
<trkpt lat="33.810313" lon="-118.393867">
  <ele>-0.12</ele>
  <time>2026-09-01T01:18:11Z</time>
  <course>0.0</course>
  <speed>0.0</speed>
  <fix>3d</fix>
</trkpt>
<trkpt lat="33.810313" lon="-118.393867">
  <ele>-0.121</ele>
  <time>2026-09-01T01:18:11Z</time>
  <course>188.0</course>
  <speed>0.022360679774997897</speed>
  <fix>3d</fix>
</trkpt>
<trkpt lat="33.810313" lon="-118.393867">
  <ele>-0.12</ele>
  <time>2026-09-01T01:18:11Z</time>
  <course>0.0</course>
  <speed>0.0</speed>
  <fix>3d</fix>
</trkpt>
<trkpt lat="33.810313" lon="-118.393867">
  <ele>-0.12</ele>
  <time>2026-09-01T01:18:11Z</time>
  <course>187.99</course>
  <speed>0.022360679774997897</speed>
  <fix>3d</fix>
</trkpt>
<trkpt lat="33.810313" lon="-118.393867">
  <ele>-0.12</ele>
  <time>2026-09-01T01:18:11Z</time>
  <course>0.0</course>
  <speed>0.0</speed>
  <fix>3d</fix>
</trkpt>
<trkpt lat="33.810313" lon="-118.393867">
  <ele>-0.118</ele>
  <time>2026-09-01T01:18:11Z</time>
  <course>187.98</course>
  <speed>0.022360679774997897</speed>
  <fix>3d</fix>
</trkpt>
<trkpt lat="33.810313" lon="-118.393867">
  <ele>-0.12</ele>
  <time>2026-09-01T01:18:11Z</time>
  <course>0.0</course>
  <speed>0.0</speed>
  <fix>3d</fix>
</trkpt>
<trkpt lat="33.810313" lon="-118.393867">
  <ele>-0.114</ele>
  <time>2026-09-01T01:18:11Z</time>
  <course>187.98</course>
  <speed>0.022360679774997897</speed>
  <fix>3d</fix>
</trkpt>
<trkpt lat="33.810313" lon="-118.393867">
  <ele>-0.12</ele>
  <time>2026-09-01T01:18:11Z</time>
  <course>0.0</course>
  <speed>0.0</speed>
  <fix>3d</fix>
</trkpt>
<trkpt lat="33.810313" lon="-118.393867">
  <ele>-0.11</ele>
  <time>2026-09-01T01:18:11Z</time>
  <course>187.97</course>
  <speed>0.022360679774997897</speed>
  <fix>3d</fix>
</trkpt>
<trkpt lat="33.810313" lon="-118.393867">
  <ele>-0.12</ele>
  <time>2026-09-01T01:18:11Z</time>
  <course>0.0</course>
  <speed>0.0</speed>
  <fix>3d</fix>
</trkpt>
<trkpt lat="33.810313" lon="-118.393867">
  <ele>-0.107</ele>
  <time>2026-09-01T01:18:11Z</time>
  <course>187.96</course>
  <speed>0.022360679774997897</speed>
  <fix>3d</fix>
</trkpt>
<trkpt lat="33.810313" lon="-118.393867">
  <ele>-0.12</ele>
  <time>2026-09-01T01:18:11Z</time>
  <course>0.0</course>
  <speed>0.0</speed>
  <fix>3d</fix>
</trkpt>
<trkpt lat="33.810313" lon="-118.393867">
  <ele>-0.106</ele>
  <time>2026-09-01T01:18:11Z</time>
  <course>187.95</course>
  <speed>0.022360679774997897</speed>
  <fix>3d</fix>
</trkpt>
<trkpt lat="33.810313" lon="-118.393867">
  <ele>-0.12</ele>
  <time>2026-09-01T01:18:11Z</time>
  <course>0.0</course>
  <speed>0.0</speed>
  <fix>3d</fix>
</trkpt>
<trkpt lat="33.810313" lon="-118.393867">
  <ele>-0.107</ele>
  <time>2026-09-01T01:18:11Z</time>
  <course>187.94</course>
  <speed>0.022360679774997897</speed>
  <fix>3d</fix>
</trkpt>
<trkpt lat="33.810313" lon="-118.393867">
  <ele>-0.12</ele>
  <time>2026-09-01T01:18:11Z</time>
  <course>0.0</course>
  <speed>0.0</speed>
  <fix>3d</fix>
</trkpt>
<trkpt lat="33.810313" lon="-118.393867">
  <ele>-0.109</ele>
  <time>2026-09-01T01:18:11Z</time>
  <course>187.93</course>
  <speed>0.022360679774997897</speed>
  <fix>3d</fix>
</trkpt>
<trkpt lat="33.810313" lon="-118.393867">
  <ele>-0.12</ele>
  <time>2026-09-01T01:18:11Z</time>
  <course>0.0</course>
  <speed>0.0</speed>
  <fix>3d</fix>
</trkpt>
<trkpt lat="33.810313" lon="-118.393867">
  <ele>-0.112</ele>
  <time>2026-09-01T01:18:11Z</time>
  <course>187.93</course>
  <speed>0.022360679774997897</speed>
  <fix>3d</fix>
</trkpt>
<trkpt lat="33.810313" lon="-118.393867">
  <ele>-0.12</ele>
  <time>2026-09-01T01:18:11Z</time>
  <course>0.0</course>
  <speed>0.0</speed>
  <fix>3d</fix>
</trkpt>
<trkpt lat="33.810313" lon="-118.393867">
  <ele>-0.113</ele>
  <time>2026-09-01T01:18:11Z</time>
  <course>187.92</course>
  <speed>0.022360679774997897</speed>
  <fix>3d</fix>
</trkpt>
<trkpt lat="33.810313" lon="-118.393867">
  <ele>-0.12</ele>
  <time>2026-09-01T01:18:11Z</time>
  <course>0.0</course>
  <speed>0.0</speed>
  <fix>3d</fix>
</trkpt>
<trkpt lat="33.810313" lon="-118.393867">
  <ele>-0.113</ele>
  <time>2026-09-01T01:18:11Z</time>
  <course>187.91</course>
  <speed>0.022360679774997897</speed>
  <fix>3d</fix>
</trkpt>
<trkpt lat="33.810313" lon="-118.393867">
  <ele>-0.12</ele>
  <time>2026-09-01T01:18:11Z</time>
  <course>0.0</course>
  <speed>0.0</speed>
  <fix>3d</fix>
</trkpt>
<trkpt lat="33.810313" lon="-118.393867">
  <ele>-0.113</ele>
  <time>2026-09-01T01:18:11Z</time>
  <course>187.9</course>
  <speed>0.022360679774997897</speed>
  <fix>3d</fix>
</trkpt>
<trkpt lat="33.810313" lon="-118.393867">
  <ele>-0.12</ele>
  <time>2026-09-01T01:18:11Z</time>
  <course>0.0</course>
  <speed>0.0</speed>
  <fix>3d</fix>
</trkpt>
<trkpt lat="33.810313" lon="-118.393867">
  <ele>-0.113</ele>
  <time>2026-09-01T01:18:11Z</time>
  <course>187.9</course>
  <speed>0.022360679774997897</speed>
  <fix>3d</fix>
</trkpt>
<trkpt lat="33.810313" lon="-118.393867">
  <ele>-0.12</ele>
  <time>2026-09-01T01:18:11Z</time>
  <course>0.0</course>
  <speed>0.0</speed>
  <fix>3d</fix>
</trkpt>
<trkpt lat="33.810313" lon="-118.393867">
  <ele>-0.112</ele>
  <time>2026-09-01T01:18:11Z</time>
  <course>187.89</course>
  <speed>0.022360679774997897</speed>
  <fix>3d</fix>
</trkpt>
<trkpt lat="33.810313" lon="-118.393867">
  <ele>-0.12</ele>
  <time>2026-09-01T01:18:11Z</time>
  <course>0.0</course>
  <speed>0.0</speed>
  <fix>3d</fix>
</trkpt>
<trkpt lat="33.810313" lon="-118.393867">
  <ele>-0.112</ele>
  <time>2026-09-01T01:18:11Z</time>
  <course>187.88</course>
  <speed>0.022360679774997897</speed>
  <fix>3d</fix>
</trkpt>
<trkpt lat="33.810313" lon="-118.393867">
  <ele>-0.12</ele>
  <time>2026-09-01T01:18:11Z</time>
  <course>0.0</course>
  <speed>0.0</speed>
  <fix>3d</fix>
</trkpt>
<trkpt lat="33.810313" lon="-118.393867">
  <ele>-0.112</ele>
  <time>2026-09-01T01:18:11Z</time>
  <course>187.87</course>
  <speed>0.022360679774997897</speed>
  <fix>3d</fix>
</trkpt>
<trkpt lat="33.810313" lon="-118.393867">
  <ele>-0.12</ele>
  <time>2026-09-01T01:18:11Z</time>
  <course>0.0</course>
  <speed>0.0</speed>
  <fix>3d</fix>
</trkpt>
<trkpt lat="33.810313" lon="-118.393867">
  <ele>-0.114</ele>
  <time>2026-09-01T01:18:11Z</time>
  <course>187.86</course>
  <speed>0.022360679774997897</speed>
  <fix>3d</fix>
</trkpt>
<trkpt lat="33.810313" lon="-118.393867">
  <ele>-0.12</ele>
  <time>2026-09-01T01:18:11Z</time>
  <course>0.0</course>
  <speed>0.0</speed>
  <fix>3d</fix>
</trkpt>
<trkpt lat="33.810313" lon="-118.393867">
  <ele>-0.115</ele>
  <time>2026-09-01T01:18:11Z</time>
  <course>187.86</course>
  <speed>0.022360679774997897</speed>
  <fix>3d</fix>
</trkpt>
<trkpt lat="33.810313" lon="-118.393867">
  <ele>-0.12</ele>
  <time>2026-09-01T01:18:11Z</time>
  <course>0.0</course>
  <speed>0.0</speed>
  <fix>3d</fix>
</trkpt>
<trkpt lat="33.810313" lon="-118.393867">
  <ele>-0.117</ele>
  <time>2026-09-01T01:18:11Z</time>
  <course>187.85</course>
  <speed>0.022360679774997897</speed>
  <fix>3d</fix>
</trkpt>
<trkpt lat="33.810313" lon="-118.393867">
  <ele>-0.12</ele>
  <time>2026-09-01T01:18:11Z</time>
  <course>0.0</course>
  <speed>0.0</speed>
  <fix>3d</fix>
</trkpt>
<trkpt lat="33.810313" lon="-118.393867">
  <ele>-0.119</ele>
  <time>2026-09-01T01:18:11Z</time>
  <course>187.84</course>
  <speed>0.022360679774997897</speed>
  <fix>3d</fix>
</trkpt>
<trkpt lat="33.810313" lon="-118.393867">
  <ele>-0.12</ele>
  <time>2026-09-01T01:18:11Z</time>
  <course>0.0</course>
  <speed>0.0</speed>
  <fix>3d</fix>
</trkpt>
<trkpt lat="33.810313" lon="-118.393867">
  <ele>-0.121</ele>
  <time>2026-09-01T01:18:11Z</time>
  <course>187.83</course>
  <speed>0.022360679774997897</speed>
  <fix>3d</fix>
</trkpt>
<trkpt lat="33.810313" lon="-118.393867">
  <ele>-0.12</ele>
  <time>2026-09-01T01:18:11Z</time>
  <course>0.0</course>
  <speed>0.0</speed>
  <fix>3d</fix>
</trkpt>
<trkpt lat="33.810313" lon="-118.393867">
  <ele>-0.122</ele>
  <time>2026-09-01T01:18:11Z</time>
  <course>187.83</course>
  <speed>0.022360679774997897</speed>
  <fix>3d</fix>
</trkpt>
<trkpt lat="33.810313" lon="-118.393867">
  <ele>-0.12</ele>
  <time>2026-09-01T01:18:11Z</time>
  <course>0.0</course>
  <speed>0.0</speed>
  <fix>3d</fix>
</trkpt>
<trkpt lat="33.810313" lon="-118.393867">
  <ele>-0.122</ele>
  <time>2026-09-01T01:18:11Z</time>
  <course>187.82</course>
  <speed>0.022360679774997897</speed>
  <fix>3d</fix>
</trkpt>
<trkpt lat="33.810313" lon="-118.393867">
  <ele>-0.12</ele>
  <time>2026-09-01T01:18:11Z</time>
  <course>0.0</course>
  <speed>0.0</speed>
  <fix>3d</fix>
</trkpt>
<trkpt lat="33.810313" lon="-118.393867">
  <ele>-0.121</ele>
  <time>2026-09-01T01:18:11Z</time>
  <course>187.81</course>
  <speed>0.022360679774997897</speed>
  <fix>3d</fix>
</trkpt>
<trkpt lat="33.810313" lon="-118.393867">
  <ele>-0.12</ele>
  <time>2026-09-01T01:18:11Z</time>
  <course>0.0</course>
  <speed>0.0</speed>
  <fix>3d</fix>
</trkpt>
<trkpt lat="33.810313" lon="-118.393867">
  <ele>-0.12</ele>
  <time>2026-09-01T01:18:11Z</time>
  <course>187.8</course>
  <speed>0.022360679774997897</speed>
  <fix>3d</fix>
</trkpt>
<trkpt lat="33.810313" lon="-118.393867">
  <ele>-0.12</ele>
  <time>2026-09-01T01:18:11Z</time>
  <course>0.0</course>
  <speed>0.0</speed>
  <fix>3d</fix>
</trkpt>
<trkpt lat="33.810313" lon="-118.393867">
  <ele>-0.119</ele>
  <time>2026-09-01T01:18:11Z</time>
  <course>187.8</course>
  <speed>0.022360679774997897</speed>
  <fix>3d</fix>
</trkpt>
<trkpt lat="33.810313" lon="-118.393867">
  <ele>-0.12</ele>
  <time>2026-09-01T01:18:11Z</time>
  <course>0.0</course>
  <speed>0.0</speed>
  <fix>3d</fix>
</trkpt>
<trkpt lat="33.810313" lon="-118.393867">
  <ele>-0.116</ele>
  <time>2026-09-01T01:18:11Z</time>
  <course>187.79</course>
  <speed>0.022360679774997897</speed>
  <fix>3d</fix>
</trkpt>
<trkpt lat="33.810313" lon="-118.393867">
  <ele>-0.12</ele>
  <time>2026-09-01T01:18:11Z</time>
  <course>0.0</course>
  <speed>0.0</speed>
  <fix>3d</fix>
</trkpt>
<trkpt lat="33.810313" lon="-118.393867">
  <ele>-0.113</ele>
  <time>2026-09-01T01:18:11Z</time>
  <course>187.78</course>
  <speed>0.022360679774997897</speed>
  <fix>3d</fix>
</trkpt>
<trkpt lat="33.810313" lon="-118.393867">
  <ele>-0.12</ele>
  <time>2026-09-01T01:18:11Z</time>
  <course>0.0</course>
  <speed>0.0</speed>
  <fix>3d</fix>
</trkpt>
<trkpt lat="33.810313" lon="-118.393867">
  <ele>-0.112</ele>
  <time>2026-09-01T01:18:11Z</time>
  <course>187.77</course>
  <speed>0.022360679774997897</speed>
  <fix>3d</fix>
</trkpt>
<trkpt lat="33.810313" lon="-118.393867">
  <ele>-0.12</ele>
  <time>2026-09-01T01:18:11Z</time>
  <course>0.0</course>
  <speed>0.0</speed>
  <fix>3d</fix>
</trkpt>
<trkpt lat="33.810313" lon="-118.393867">
  <ele>-0.113</ele>
  <time>2026-09-01T01:18:11Z</time>
  <course>187.76</course>
  <speed>0.022360679774997897</speed>
  <fix>3d</fix>
</trkpt>
<trkpt lat="33.810313" lon="-118.393867">
  <ele>-0.12</ele>
  <time>2026-09-01T01:18:11Z</time>
  <course>0.0</course>
  <speed>0.0</speed>
  <fix>3d</fix>
</trkpt>
<trkpt lat="33.810313" lon="-118.393867">
  <ele>-0.115</ele>
  <time>2026-09-01T01:18:11Z</time>
  <course>187.76</course>
  <speed>0.022360679774997897</speed>
  <fix>3d</fix>
</trkpt>
<trkpt lat="33.810313" lon="-118.393867">
  <ele>-0.12</ele>
  <time>2026-09-01T01:18:11Z</time>
  <course>0.0</course>
  <speed>0.0</speed>
  <fix>3d</fix>
</trkpt>
<trkpt lat="33.810313" lon="-118.393867">
  <ele>-0.117</ele>
  <time>2026-09-01T01:18:11Z</time>
  <course>187.75</course>
  <speed>0.0282842712474619</speed>
  <fix>3d</fix>
</trkpt>
<trkpt lat="33.810313" lon="-118.393867">
  <ele>-0.12</ele>
  <time>2026-09-01T01:18:11Z</time>
  <course>0.0</course>
  <speed>0.0</speed>
  <fix>3d</fix>
</trkpt>
<trkpt lat="33.810313" lon="-118.393867">
  <ele>-0.119</ele>
  <time>2026-09-01T01:18:11Z</time>
  <course>187.74</course>
  <speed>0.0282842712474619</speed>
  <fix>3d</fix>
</trkpt>
<trkpt lat="33.810313" lon="-118.393867">
  <ele>-0.12</ele>
  <time>2026-09-01T01:18:11Z</time>
  <course>0.0</course>
  <speed>0.0</speed>
  <fix>3d</fix>
</trkpt>
<trkpt lat="33.810313" lon="-118.393867">
  <ele>-0.121</ele>
  <time>2026-09-01T01:18:11Z</time>
  <course>187.73</course>
  <speed>0.0282842712474619</speed>
  <fix>3d</fix>
</trkpt>
<trkpt lat="33.810313" lon="-118.393867">
  <ele>-0.12</ele>
  <time>2026-09-01T01:18:11Z</time>
  <course>0.0</course>
  <speed>0.0</speed>
  <fix>3d</fix>
</trkpt>
<trkpt lat="33.810313" lon="-118.393867">
  <ele>-0.122</ele>
  <time>2026-09-01T01:18:11Z</time>
  <course>187.73</course>
  <speed>0.0282842712474619</speed>
  <fix>3d</fix>
</trkpt>
<trkpt lat="33.810313" lon="-118.393867">
  <ele>-0.12</ele>
  <time>2026-09-01T01:18:11Z</time>
  <course>0.0</course>
  <speed>0.0</speed>
  <fix>3d</fix>
</trkpt>
<trkpt lat="33.810313" lon="-118.393867">
  <ele>-0.122</ele>
  <time>2026-09-01T01:18:11Z</time>
  <course>187.72</course>
  <speed>0.0282842712474619</speed>
  <fix>3d</fix>
</trkpt>
<trkpt lat="33.810313" lon="-118.393867">
  <ele>-0.12</ele>
  <time>2026-09-01T01:18:11Z</time>
  <course>0.0</course>
  <speed>0.0</speed>
  <fix>3d</fix>
</trkpt>
<trkpt lat="33.810313" lon="-118.393867">
  <ele>-0.121</ele>
  <time>2026-09-01T01:18:11Z</time>
  <course>187.71</course>
  <speed>0.0282842712474619</speed>
  <fix>3d</fix>
</trkpt>
<trkpt lat="33.810313" lon="-118.393867">
  <ele>-0.12</ele>
  <time>2026-09-01T01:18:11Z</time>
  <course>0.0</course>
  <speed>0.0</speed>
  <fix>3d</fix>
</trkpt>
<trkpt lat="33.810313" lon="-118.393867">
  <ele>-0.12</ele>
  <time>2026-09-01T01:18:11Z</time>
  <course>187.71</course>
  <speed>0.0282842712474619</speed>
  <fix>3d</fix>
</trkpt>
<trkpt lat="33.810313" lon="-118.393867">
  <ele>-0.12</ele>
  <time>2026-09-01T01:18:11Z</time>
  <course>0.0</course>
  <speed>0.0</speed>
  <fix>3d</fix>
</trkpt>
<trkpt lat="33.810313" lon="-118.393867">
  <ele>-0.12</ele>
  <time>2026-09-01T01:18:11Z</time>
  <course>187.7</course>
  <speed>0.0282842712474619</speed>
  <fix>3d</fix>
</trkpt>
<trkpt lat="33.810313" lon="-118.393867">
  <ele>-0.12</ele>
  <time>2026-09-01T01:18:11Z</time>
  <course>0.0</course>
  <speed>0.0</speed>
  <fix>3d</fix>
</trkpt>
<trkpt lat="33.810313" lon="-118.393867">
  <ele>-0.121</ele>
  <time>2026-09-01T01:18:11Z</time>
  <course>187.69</course>
  <speed>0.0282842712474619</speed>
  <fix>3d</fix>
</trkpt>
<trkpt lat="33.810313" lon="-118.393867">
  <ele>-0.12</ele>
  <time>2026-09-01T01:18:11Z</time>
  <course>0.0</course>
  <speed>0.0</speed>
  <fix>3d</fix>
</trkpt>
<trkpt lat="33.810313" lon="-118.393867">
  <ele>-0.122</ele>
  <time>2026-09-01T01:18:11Z</time>
  <course>187.68</course>
  <speed>0.0282842712474619</speed>
  <fix>3d</fix>
</trkpt>
<trkpt lat="33.810313" lon="-118.393867">
  <ele>-0.12</ele>
  <time>2026-09-01T01:18:11Z</time>
  <course>0.0</course>
  <speed>0.0</speed>
  <fix>3d</fix>
</trkpt>
<trkpt lat="33.810313" lon="-118.393867">
  <ele>-0.124</ele>
  <time>2026-09-01T01:18:11Z</time>
  <course>187.68</course>
  <speed>0.0282842712474619</speed>
  <fix>3d</fix>
</trkpt>
<trkpt lat="33.810313" lon="-118.393867">
  <ele>-0.12</ele>
  <time>2026-09-01T01:18:11Z</time>
  <course>0.0</course>
  <speed>0.0</speed>
  <fix>3d</fix>
</trkpt>
<trkpt lat="33.810313" lon="-118.393867">
  <ele>-0.125</ele>
  <time>2026-09-01T01:18:11Z</time>
  <course>187.67</course>
  <speed>0.0282842712474619</speed>
  <fix>3d</fix>
</trkpt>
<trkpt lat="33.810313" lon="-118.393867">
  <ele>-0.12</ele>
  <time>2026-09-01T01:18:11Z</time>
  <course>0.0</course>
  <speed>0.0</speed>
  <fix>3d</fix>
</trkpt>
<trkpt lat="33.810313" lon="-118.393867">
  <ele>-0.126</ele>
  <time>2026-09-01T01:18:11Z</time>
  <course>187.66</course>
  <speed>0.0282842712474619</speed>
  <fix>3d</fix>
</trkpt>
<trkpt lat="33.810313" lon="-118.393867">
  <ele>-0.12</ele>
  <time>2026-09-01T01:18:11Z</time>
  <course>0.0</course>
  <speed>0.0</speed>
  <fix>3d</fix>
</trkpt>
<trkpt lat="33.810313" lon="-118.393867">
  <ele>-0.127</ele>
  <time>2026-09-01T01:18:11Z</time>
  <course>187.66</course>
  <speed>0.0282842712474619</speed>
  <fix>3d</fix>
</trkpt>
<trkpt lat="33.810313" lon="-118.393867">
  <ele>-0.12</ele>
  <time>2026-09-01T01:18:11Z</time>
  <course>0.0</course>
  <speed>0.0</speed>
  <fix>3d</fix>
</trkpt>
<trkpt lat="33.810313" lon="-118.393867">
  <ele>-0.127</ele>
  <time>2026-09-01T01:18:11Z</time>
  <course>187.65</course>
  <speed>0.0282842712474619</speed>
  <fix>3d</fix>
</trkpt>
<trkpt lat="33.810313" lon="-118.393867">
  <ele>-0.12</ele>
  <time>2026-09-01T01:18:11Z</time>
  <course>0.0</course>
  <speed>0.0</speed>
  <fix>3d</fix>
</trkpt>
<trkpt lat="33.810313" lon="-118.393867">
  <ele>-0.126</ele>
  <time>2026-09-01T01:18:11Z</time>
  <course>187.64</course>
  <speed>0.0282842712474619</speed>
  <fix>3d</fix>
</trkpt>
<trkpt lat="33.810313" lon="-118.393867">
  <ele>-0.12</ele>
  <time>2026-09-01T01:18:11Z</time>
  <course>0.0</course>
  <speed>0.0</speed>
  <fix>3d</fix>
</trkpt>
<trkpt lat="33.810313" lon="-118.393867">
  <ele>-0.124</ele>
  <time>2026-09-01T01:18:11Z</time>
  <course>187.64</course>
  <speed>0.0282842712474619</speed>
  <fix>3d</fix>
</trkpt>
<trkpt lat="33.810313" lon="-118.393867">
  <ele>-0.12</ele>
  <time>2026-09-01T01:18:11Z</time>
  <course>0.0</course>
  <speed>0.0</speed>
  <fix>3d</fix>
</trkpt>
<trkpt lat="33.810313" lon="-118.393867">
  <ele>-0.122</ele>
  <time>2026-09-01T01:18:11Z</time>
  <course>187.63</course>
  <speed>0.0282842712474619</speed>
  <fix>3d</fix>
</trkpt>
<trkpt lat="33.810313" lon="-118.393867">
  <ele>-0.12</ele>
  <time>2026-09-01T01:18:11Z</time>
  <course>0.0</course>
  <speed>0.0</speed>
  <fix>3d</fix>
</trkpt>
<trkpt lat="33.810313" lon="-118.393867">
  <ele>-0.12</ele>
  <time>2026-09-01T01:18:11Z</time>
  <course>187.63</course>
  <speed>0.03605551275463989</speed>
  <fix>3d</fix>
</trkpt>
<trkpt lat="33.810313" lon="-118.393867">
  <ele>-0.12</ele>
  <time>2026-09-01T01:18:11Z</time>
  <course>0.0</course>
  <speed>0.0</speed>
  <fix>3d</fix>
</trkpt>
<trkpt lat="33.810313" lon="-118.393867">
  <ele>-0.119</ele>
  <time>2026-09-01T01:18:11Z</time>
  <course>187.62</course>
  <speed>0.03605551275463989</speed>
  <fix>3d</fix>
</trkpt>
<trkpt lat="33.810313" lon="-118.393867">
  <ele>-0.12</ele>
  <time>2026-09-01T01:18:11Z</time>
  <course>0.0</course>
  <speed>0.0</speed>
  <fix>3d</fix>
</trkpt>
<trkpt lat="33.810313" lon="-118.393867">
  <ele>-0.118</ele>
  <time>2026-09-01T01:18:11Z</time>
  <course>187.61</course>
  <speed>0.03605551275463989</speed>
  <fix>3d</fix>
</trkpt>
<trkpt lat="33.810313" lon="-118.393867">
  <ele>-0.12</ele>
  <time>2026-09-01T01:18:11Z</time>
  <course>0.0</course>
  <speed>0.0</speed>
  <fix>3d</fix>
</trkpt>
<trkpt lat="33.810313" lon="-118.393867">
  <ele>-0.119</ele>
  <time>2026-09-01T01:18:11Z</time>
  <course>187.61</course>
  <speed>0.03605551275463989</speed>
  <fix>3d</fix>
</trkpt>
<trkpt lat="33.810313" lon="-118.393867">
  <ele>-0.12</ele>
  <time>2026-09-01T01:18:11Z</time>
  <course>0.0</course>
  <speed>0.0</speed>
  <fix>3d</fix>
</trkpt>
<trkpt lat="33.810313" lon="-118.393867">
  <ele>-0.119</ele>
  <time>2026-09-01T01:18:11Z</time>
  <course>187.6</course>
  <speed>0.03605551275463989</speed>
  <fix>3d</fix>
</trkpt>
<trkpt lat="33.810313" lon="-118.393867">
  <ele>-0.12</ele>
  <time>2026-09-01T01:18:11Z</time>
  <course>0.0</course>
  <speed>0.0</speed>
  <fix>3d</fix>
</trkpt>
<trkpt lat="33.810313" lon="-118.393867">
  <ele>-0.119</ele>
  <time>2026-09-01T01:18:11Z</time>
  <course>187.59</course>
  <speed>0.03605551275463989</speed>
  <fix>3d</fix>
</trkpt>
<trkpt lat="33.810313" lon="-118.393867">
  <ele>-0.12</ele>
  <time>2026-09-01T01:18:11Z</time>
  <course>0.0</course>
  <speed>0.0</speed>
  <fix>3d</fix>
</trkpt>
<trkpt lat="33.810313" lon="-118.393867">
  <ele>-0.12</ele>
  <time>2026-09-01T01:18:11Z</time>
  <course>187.58</course>
  <speed>0.03605551275463989</speed>
  <fix>3d</fix>
</trkpt>
<trkpt lat="33.810313" lon="-118.393867">
  <ele>-0.12</ele>
  <time>2026-09-01T01:18:11Z</time>
  <course>0.0</course>
  <speed>0.0</speed>
  <fix>3d</fix>
</trkpt>
<trkpt lat="33.810313" lon="-118.393867">
  <ele>-0.119</ele>
  <time>2026-09-01T01:18:11Z</time>
  <course>187.58</course>
  <speed>0.03605551275463989</speed>
  <fix>3d</fix>
</trkpt>
<trkpt lat="33.810313" lon="-118.393867">
  <ele>-0.12</ele>
  <time>2026-09-01T01:18:11Z</time>
  <course>0.0</course>
  <speed>0.0</speed>
  <fix>3d</fix>
</trkpt>
<trkpt lat="33.810313" lon="-118.393867">
  <ele>-0.117</ele>
  <time>2026-09-01T01:18:11Z</time>
  <course>187.57</course>
  <speed>0.03605551275463989</speed>
  <fix>3d</fix>
</trkpt>
<trkpt lat="33.810313" lon="-118.393867">
  <ele>-0.12</ele>
  <time>2026-09-01T01:18:11Z</time>
  <course>0.0</course>
  <speed>0.0</speed>
  <fix>3d</fix>
</trkpt>
<trkpt lat="33.810313" lon="-118.393867">
  <ele>-0.115</ele>
  <time>2026-09-01T01:18:11Z</time>
  <course>187.56</course>
  <speed>0.03605551275463989</speed>
  <fix>3d</fix>
</trkpt>
<trkpt lat="33.810313" lon="-118.393867">
  <ele>-0.12</ele>
  <time>2026-09-01T01:18:11Z</time>
  <course>0.0</course>
  <speed>0.0</speed>
  <fix>3d</fix>
</trkpt>
<trkpt lat="33.810313" lon="-118.393867">
  <ele>-0.113</ele>
  <time>2026-09-01T01:18:11Z</time>
  <course>187.56</course>
  <speed>0.03605551275463989</speed>
  <fix>3d</fix>
</trkpt>
<trkpt lat="33.810313" lon="-118.393867">
  <ele>-0.12</ele>
  <time>2026-09-01T01:18:11Z</time>
  <course>0.0</course>
  <speed>0.0</speed>
  <fix>3d</fix>
</trkpt>
<trkpt lat="33.810313" lon="-118.393867">
  <ele>-0.112</ele>
  <time>2026-09-01T01:18:11Z</time>
  <course>187.55</course>
  <speed>0.03605551275463989</speed>
  <fix>3d</fix>
</trkpt>
<trkpt lat="33.810313" lon="-118.393867">
  <ele>-0.12</ele>
  <time>2026-09-01T01:18:11Z</time>
  <course>0.0</course>
  <speed>0.0</speed>
  <fix>3d</fix>
</trkpt>
<trkpt lat="33.810313" lon="-118.393867">
  <ele>-0.113</ele>
  <time>2026-09-01T01:18:11Z</time>
  <course>187.54</course>
  <speed>0.03605551275463989</speed>
  <fix>3d</fix>
</trkpt>
<trkpt lat="33.810313" lon="-118.393867">
  <ele>-0.12</ele>
  <time>2026-09-01T01:18:11Z</time>
  <course>0.0</course>
  <speed>0.0</speed>
  <fix>3d</fix>
</trkpt>
<trkpt lat="33.810313" lon="-118.393867">
  <ele>-0.115</ele>
  <time>2026-09-01T01:18:11Z</time>
  <course>187.54</course>
  <speed>0.03605551275463989</speed>
  <fix>3d</fix>
</trkpt>
<trkpt lat="33.810313" lon="-118.393867">
  <ele>-0.12</ele>
  <time>2026-09-01T01:18:11Z</time>
  <course>0.0</course>
  <speed>0.0</speed>
  <fix>3d</fix>
</trkpt>
<trkpt lat="33.810313" lon="-118.393867">
  <ele>-0.116</ele>
  <time>2026-09-01T01:18:11Z</time>
  <course>187.53</course>
  <speed>0.03605551275463989</speed>
  <fix>3d</fix>
</trkpt>
<trkpt lat="33.810313" lon="-118.393867">
  <ele>-0.12</ele>
  <time>2026-09-01T01:18:11Z</time>
  <course>0.0</course>
  <speed>0.0</speed>
  <fix>3d</fix>
</trkpt>
<trkpt lat="33.810313" lon="-118.393867">
  <ele>-0.118</ele>
  <time>2026-09-01T01:18:11Z</time>
  <course>187.53</course>
  <speed>0.03605551275463989</speed>
  <fix>3d</fix>
</trkpt>
<trkpt lat="33.810313" lon="-118.393867">
  <ele>-0.12</ele>
  <time>2026-09-01T01:18:11Z</time>
  <course>0.0</course>
  <speed>0.0</speed>
  <fix>3d</fix>
</trkpt>
<trkpt lat="33.810313" lon="-118.393867">
  <ele>-0.119</ele>
  <time>2026-09-01T01:18:11Z</time>
  <course>187.52</course>
  <speed>0.03605551275463989</speed>
  <fix>3d</fix>
</trkpt>
<trkpt lat="33.810313" lon="-118.393867">
  <ele>-0.12</ele>
  <time>2026-09-01T01:18:11Z</time>
  <course>0.0</course>
  <speed>0.0</speed>
  <fix>3d</fix>
</trkpt>
<trkpt lat="33.810313" lon="-118.393867">
  <ele>-0.119</ele>
  <time>2026-09-01T01:18:11Z</time>
  <course>187.51</course>
  <speed>0.03605551275463989</speed>
  <fix>3d</fix>
</trkpt>
<trkpt lat="33.810313" lon="-118.393867">
  <ele>-0.12</ele>
  <time>2026-09-01T01:18:11Z</time>
  <course>0.0</course>
  <speed>0.0</speed>
  <fix>3d</fix>
</trkpt>
<trkpt lat="33.810313" lon="-118.393867">
  <ele>-0.119</ele>
  <time>2026-09-01T01:18:11Z</time>
  <course>187.51</course>
  <speed>0.03605551275463989</speed>
  <fix>3d</fix>
</trkpt>
<trkpt lat="33.810313" lon="-118.393867">
  <ele>-0.12</ele>
  <time>2026-09-01T01:18:11Z</time>
  <course>0.0</course>
  <speed>0.0</speed>
  <fix>3d</fix>
</trkpt>
<trkpt lat="33.810313" lon="-118.393867">
  <ele>-0.118</ele>
  <time>2026-09-01T01:18:11Z</time>
  <course>187.5</course>
  <speed>0.03605551275463989</speed>
  <fix>3d</fix>
</trkpt>
<trkpt lat="33.810313" lon="-118.393867">
  <ele>-0.12</ele>
  <time>2026-09-01T01:18:11Z</time>
  <course>0.0</course>
  <speed>0.0</speed>
  <fix>3d</fix>
</trkpt>
<trkpt lat="33.810313" lon="-118.393867">
  <ele>-0.117</ele>
  <time>2026-09-01T01:18:11Z</time>
  <course>187.49</course>
  <speed>0.03605551275463989</speed>
  <fix>3d</fix>
</trkpt>
<trkpt lat="33.810313" lon="-118.393867">
  <ele>-0.12</ele>
  <time>2026-09-01T01:18:11Z</time>
  <course>0.0</course>
  <speed>0.0</speed>
  <fix>3d</fix>
</trkpt>
<trkpt lat="33.810313" lon="-118.393867">
  <ele>-0.116</ele>
  <time>2026-09-01T01:18:11Z</time>
  <course>187.49</course>
  <speed>0.03605551275463989</speed>
  <fix>3d</fix>
</trkpt>
<trkpt lat="33.810313" lon="-118.393867">
  <ele>-0.12</ele>
  <time>2026-09-01T01:18:11Z</time>
  <course>0.0</course>
  <speed>0.0</speed>
  <fix>3d</fix>
</trkpt>
<trkpt lat="33.810313" lon="-118.393867">
  <ele>-0.116</ele>
  <time>2026-09-01T01:18:11Z</time>
  <course>187.48</course>
  <speed>0.03605551275463989</speed>
  <fix>3d</fix>
</trkpt>
<trkpt lat="33.810313" lon="-118.393867">
  <ele>-0.12</ele>
  <time>2026-09-01T01:18:11Z</time>
  <course>0.0</course>
  <speed>0.0</speed>
  <fix>3d</fix>
</trkpt>
<trkpt lat="33.810313" lon="-118.393867">
  <ele>-0.116</ele>
  <time>2026-09-01T01:18:11Z</time>
  <course>187.47</course>
  <speed>0.03605551275463989</speed>
  <fix>3d</fix>
</trkpt>
<trkpt lat="33.810313" lon="-118.393867">
  <ele>-0.12</ele>
  <time>2026-09-01T01:18:11Z</time>
  <course>0.0</course>
  <speed>0.0</speed>
  <fix>3d</fix>
</trkpt>
<trkpt lat="33.810313" lon="-118.393867">
  <ele>-0.118</ele>
  <time>2026-09-01T01:18:11Z</time>
  <course>187.47</course>
  <speed>0.03605551275463989</speed>
  <fix>3d</fix>
</trkpt>
<trkpt lat="33.810313" lon="-118.393867">
  <ele>-0.12</ele>
  <time>2026-09-01T01:18:11Z</time>
  <course>0.0</course>
  <speed>0.0</speed>
  <fix>3d</fix>
</trkpt>
<trkpt lat="33.810313" lon="-118.393867">
  <ele>-0.12</ele>
  <time>2026-09-01T01:18:12Z</time>
  <course>187.46</course>
  <speed>0.03605551275463989</speed>
  <fix>3d</fix>
</trkpt>
<trkpt lat="33.810313" lon="-118.393867">
  <ele>-0.12</ele>
  <time>2026-09-01T01:18:12Z</time>
  <course>0.0</course>
  <speed>0.0</speed>
  <fix>3d</fix>
</trkpt>
<trkpt lat="33.810313" lon="-118.393867">
  <ele>-0.122</ele>
  <time>2026-09-01T01:18:12Z</time>
  <course>187.46</course>
  <speed>0.03605551275463989</speed>
  <fix>3d</fix>
</trkpt>
<trkpt lat="33.810313" lon="-118.393867">
  <ele>-0.12</ele>
  <time>2026-09-01T01:18:12Z</time>
  <course>0.0</course>
  <speed>0.0</speed>
  <fix>3d</fix>
</trkpt>
<trkpt lat="33.810313" lon="-118.393867">
  <ele>-0.125</ele>
  <time>2026-09-01T01:18:12Z</time>
  <course>187.45</course>
  <speed>0.03605551275463989</speed>
  <fix>3d</fix>
</trkpt>
<trkpt lat="33.810313" lon="-118.393867">
  <ele>-0.12</ele>
  <time>2026-09-01T01:18:12Z</time>
  <course>0.0</course>
  <speed>0.0</speed>
  <fix>3d</fix>
</trkpt>
<trkpt lat="33.810313" lon="-118.393867">
  <ele>-0.126</ele>
  <time>2026-09-01T01:18:12Z</time>
  <course>187.44</course>
  <speed>0.03605551275463989</speed>
  <fix>3d</fix>
</trkpt>
<trkpt lat="33.810313" lon="-118.393867">
  <ele>-0.12</ele>
  <time>2026-09-01T01:18:12Z</time>
  <course>0.0</course>
  <speed>0.0</speed>
  <fix>3d</fix>
</trkpt>
<trkpt lat="33.810313" lon="-118.393867">
  <ele>-0.125</ele>
  <time>2026-09-01T01:18:12Z</time>
  <course>187.44</course>
  <speed>0.03605551275463989</speed>
  <fix>3d</fix>
</trkpt>
<trkpt lat="33.810313" lon="-118.393867">
  <ele>-0.12</ele>
  <time>2026-09-01T01:18:12Z</time>
  <course>0.0</course>
  <speed>0.0</speed>
  <fix>3d</fix>
</trkpt>
<trkpt lat="33.810313" lon="-118.393867">
  <ele>-0.123</ele>
  <time>2026-09-01T01:18:12Z</time>
  <course>187.43</course>
  <speed>0.03605551275463989</speed>
  <fix>3d</fix>
</trkpt>
<trkpt lat="33.810313" lon="-118.393867">
  <ele>-0.12</ele>
  <time>2026-09-01T01:18:12Z</time>
  <course>0.0</course>
  <speed>0.0</speed>
  <fix>3d</fix>
</trkpt>
<trkpt lat="33.810313" lon="-118.393867">
  <ele>-0.121</ele>
  <time>2026-09-01T01:18:12Z</time>
  <course>187.43</course>
  <speed>0.03605551275463989</speed>
  <fix>3d</fix>
</trkpt>
<trkpt lat="33.810313" lon="-118.393867">
  <ele>-0.12</ele>
  <time>2026-09-01T01:18:12Z</time>
  <course>0.0</course>
  <speed>0.0</speed>
  <fix>3d</fix>
</trkpt>
<trkpt lat="33.810313" lon="-118.393867">
  <ele>-0.119</ele>
  <time>2026-09-01T01:18:12Z</time>
  <course>187.42</course>
  <speed>0.03605551275463989</speed>
  <fix>3d</fix>
</trkpt>
<trkpt lat="33.810313" lon="-118.393867">
  <ele>-0.12</ele>
  <time>2026-09-01T01:18:12Z</time>
  <course>0.0</course>
  <speed>0.0</speed>
  <fix>3d</fix>
</trkpt>
<trkpt lat="33.810313" lon="-118.393867">
  <ele>-0.118</ele>
  <time>2026-09-01T01:18:12Z</time>
  <course>187.41</course>
  <speed>0.03605551275463989</speed>
  <fix>3d</fix>
</trkpt>
<trkpt lat="33.810313" lon="-118.393867">
  <ele>-0.12</ele>
  <time>2026-09-01T01:18:12Z</time>
  <course>0.0</course>
  <speed>0.0</speed>
  <fix>3d</fix>
</trkpt>
<trkpt lat="33.810313" lon="-118.393867">
  <ele>-0.118</ele>
  <time>2026-09-01T01:18:12Z</time>
  <course>187.41</course>
  <speed>0.03605551275463989</speed>
  <fix>3d</fix>
</trkpt>
<trkpt lat="33.810313" lon="-118.393867">
  <ele>-0.12</ele>
  <time>2026-09-01T01:18:12Z</time>
  <course>0.0</course>
  <speed>0.0</speed>
  <fix>3d</fix>
</trkpt>
<trkpt lat="33.810313" lon="-118.393867">
  <ele>-0.119</ele>
  <time>2026-09-01T01:18:12Z</time>
  <course>187.4</course>
  <speed>0.03605551275463989</speed>
  <fix>3d</fix>
</trkpt>
<trkpt lat="33.810313" lon="-118.393867">
  <ele>-0.12</ele>
  <time>2026-09-01T01:18:12Z</time>
  <course>0.0</course>
  <speed>0.0</speed>
  <fix>3d</fix>
</trkpt>
<trkpt lat="33.810313" lon="-118.393867">
  <ele>-0.121</ele>
  <time>2026-09-01T01:18:12Z</time>
  <course>187.39</course>
  <speed>0.03605551275463989</speed>
  <fix>3d</fix>
</trkpt>
<trkpt lat="33.810313" lon="-118.393867">
  <ele>-0.12</ele>
  <time>2026-09-01T01:18:12Z</time>
  <course>0.0</course>
  <speed>0.0</speed>
  <fix>3d</fix>
</trkpt>
<trkpt lat="33.810313" lon="-118.393867">
  <ele>-0.121</ele>
  <time>2026-09-01T01:18:12Z</time>
  <course>187.39</course>
  <speed>0.03605551275463989</speed>
  <fix>3d</fix>
</trkpt>
<trkpt lat="33.810313" lon="-118.393867">
  <ele>-0.12</ele>
  <time>2026-09-01T01:18:12Z</time>
  <course>0.0</course>
  <speed>0.0</speed>
  <fix>3d</fix>
</trkpt>
<trkpt lat="33.810313" lon="-118.393867">
  <ele>-0.12</ele>
  <time>2026-09-01T01:18:12Z</time>
  <course>187.38</course>
  <speed>0.03605551275463989</speed>
  <fix>3d</fix>
</trkpt>
<trkpt lat="33.810313" lon="-118.393867">
  <ele>-0.12</ele>
  <time>2026-09-01T01:18:12Z</time>
  <course>0.0</course>
  <speed>0.0</speed>
  <fix>3d</fix>
</trkpt>
<trkpt lat="33.810313" lon="-118.393867">
  <ele>-0.118</ele>
  <time>2026-09-01T01:18:12Z</time>
  <course>187.38</course>
  <speed>0.03605551275463989</speed>
  <fix>3d</fix>
</trkpt>
<trkpt lat="33.810313" lon="-118.393867">
  <ele>-0.12</ele>
  <time>2026-09-01T01:18:12Z</time>
  <course>0.0</course>
  <speed>0.0</speed>
  <fix>3d</fix>
</trkpt>
<trkpt lat="33.810313" lon="-118.393867">
  <ele>-0.116</ele>
  <time>2026-09-01T01:18:12Z</time>
  <course>187.37</course>
  <speed>0.03605551275463989</speed>
  <fix>3d</fix>
</trkpt>
<trkpt lat="33.810313" lon="-118.393867">
  <ele>-0.12</ele>
  <time>2026-09-01T01:18:12Z</time>
  <course>0.0</course>
  <speed>0.0</speed>
  <fix>3d</fix>
</trkpt>
<trkpt lat="33.810313" lon="-118.393867">
  <ele>-0.115</ele>
  <time>2026-09-01T01:18:12Z</time>
  <course>187.36</course>
  <speed>0.03605551275463989</speed>
  <fix>3d</fix>
</trkpt>
<trkpt lat="33.810313" lon="-118.393867">
  <ele>-0.12</ele>
  <time>2026-09-01T01:18:12Z</time>
  <course>0.0</course>
  <speed>0.0</speed>
  <fix>3d</fix>
</trkpt>
<trkpt lat="33.810313" lon="-118.393867">
  <ele>-0.114</ele>
  <time>2026-09-01T01:18:12Z</time>
  <course>187.36</course>
  <speed>0.03605551275463989</speed>
  <fix>3d</fix>
</trkpt>
<trkpt lat="33.810313" lon="-118.393867">
  <ele>-0.12</ele>
  <time>2026-09-01T01:18:12Z</time>
  <course>0.0</course>
  <speed>0.0</speed>
  <fix>3d</fix>
</trkpt>
<trkpt lat="33.810313" lon="-118.393867">
  <ele>-0.113</ele>
  <time>2026-09-01T01:18:12Z</time>
  <course>187.35</course>
  <speed>0.03605551275463989</speed>
  <fix>3d</fix>
</trkpt>
<trkpt lat="33.810313" lon="-118.393867">
  <ele>-0.12</ele>
  <time>2026-09-01T01:18:12Z</time>
  <course>0.0</course>
  <speed>0.0</speed>
  <fix>3d</fix>
</trkpt>
<trkpt lat="33.810313" lon="-118.393867">
  <ele>-0.112</ele>
  <time>2026-09-01T01:18:12Z</time>
  <course>187.35</course>
  <speed>0.03605551275463989</speed>
  <fix>3d</fix>
</trkpt>
<trkpt lat="33.810313" lon="-118.393867">
  <ele>-0.12</ele>
  <time>2026-09-01T01:18:12Z</time>
  <course>0.0</course>
  <speed>0.0</speed>
  <fix>3d</fix>
</trkpt>
<trkpt lat="33.810313" lon="-118.393867">
  <ele>-0.111</ele>
  <time>2026-09-01T01:18:12Z</time>
  <course>187.34</course>
  <speed>0.03605551275463989</speed>
  <fix>3d</fix>
</trkpt>
<trkpt lat="33.810313" lon="-118.393867">
  <ele>-0.12</ele>
  <time>2026-09-01T01:18:12Z</time>
  <course>0.0</course>
  <speed>0.0</speed>
  <fix>3d</fix>
</trkpt>
<trkpt lat="33.810313" lon="-118.393867">
  <ele>-0.111</ele>
  <time>2026-09-01T01:18:12Z</time>
  <course>187.34</course>
  <speed>0.03605551275463989</speed>
  <fix>3d</fix>
</trkpt>
<trkpt lat="33.810313" lon="-118.393867">
  <ele>-0.12</ele>
  <time>2026-09-01T01:18:12Z</time>
  <course>0.0</course>
  <speed>0.0</speed>
  <fix>3d</fix>
</trkpt>
<trkpt lat="33.810313" lon="-118.393867">
  <ele>-0.111</ele>
  <time>2026-09-01T01:18:12Z</time>
  <course>187.33</course>
  <speed>0.03605551275463989</speed>
  <fix>3d</fix>
</trkpt>
<trkpt lat="33.810313" lon="-118.393867">
  <ele>-0.12</ele>
  <time>2026-09-01T01:18:12Z</time>
  <course>0.0</course>
  <speed>0.0</speed>
  <fix>3d</fix>
</trkpt>
<trkpt lat="33.810313" lon="-118.393867">
  <ele>-0.11</ele>
  <time>2026-09-01T01:18:12Z</time>
  <course>187.33</course>
  <speed>0.03605551275463989</speed>
  <fix>3d</fix>
</trkpt>
<trkpt lat="33.810313" lon="-118.393867">
  <ele>-0.12</ele>
  <time>2026-09-01T01:18:12Z</time>
  <course>0.0</course>
  <speed>0.0</speed>
  <fix>3d</fix>
</trkpt>
<trkpt lat="33.810313" lon="-118.393867">
  <ele>-0.11</ele>
  <time>2026-09-01T01:18:12Z</time>
  <course>187.32</course>
  <speed>0.03605551275463989</speed>
  <fix>3d</fix>
</trkpt>
<trkpt lat="33.810313" lon="-118.393867">
  <ele>-0.12</ele>
  <time>2026-09-01T01:18:12Z</time>
  <course>0.0</course>
  <speed>0.0</speed>
  <fix>3d</fix>
</trkpt>
<trkpt lat="33.810313" lon="-118.393867">
  <ele>-0.109</ele>
  <time>2026-09-01T01:18:12Z</time>
  <course>187.31</course>
  <speed>0.03605551275463989</speed>
  <fix>3d</fix>
</trkpt>
<trkpt lat="33.810313" lon="-118.393867">
  <ele>-0.12</ele>
  <time>2026-09-01T01:18:12Z</time>
  <course>0.0</course>
  <speed>0.0</speed>
  <fix>3d</fix>
</trkpt>
<trkpt lat="33.810313" lon="-118.393867">
  <ele>-0.106</ele>
  <time>2026-09-01T01:18:12Z</time>
  <course>187.31</course>
  <speed>0.03605551275463989</speed>
  <fix>3d</fix>
</trkpt>
<trkpt lat="33.810313" lon="-118.393867">
  <ele>-0.12</ele>
  <time>2026-09-01T01:18:12Z</time>
  <course>0.0</course>
  <speed>0.0</speed>
  <fix>3d</fix>
</trkpt>
<trkpt lat="33.810313" lon="-118.393867">
  <ele>-0.104</ele>
  <time>2026-09-01T01:18:12Z</time>
  <course>187.3</course>
  <speed>0.03605551275463989</speed>
  <fix>3d</fix>
</trkpt>
<trkpt lat="33.810313" lon="-118.393867">
  <ele>-0.12</ele>
  <time>2026-09-01T01:18:12Z</time>
  <course>0.0</course>
  <speed>0.0</speed>
  <fix>3d</fix>
</trkpt>
<trkpt lat="33.810313" lon="-118.393867">
  <ele>-0.103</ele>
  <time>2026-09-01T01:18:12Z</time>
  <course>187.3</course>
  <speed>0.03605551275463989</speed>
  <fix>3d</fix>
</trkpt>
<trkpt lat="33.810313" lon="-118.393867">
  <ele>-0.12</ele>
  <time>2026-09-01T01:18:12Z</time>
  <course>0.0</course>
  <speed>0.0</speed>
  <fix>3d</fix>
</trkpt>
<trkpt lat="33.810313" lon="-118.393867">
  <ele>-0.102</ele>
  <time>2026-09-01T01:18:12Z</time>
  <course>187.29</course>
  <speed>0.03605551275463989</speed>
  <fix>3d</fix>
</trkpt>
<trkpt lat="33.810313" lon="-118.393867">
  <ele>-0.12</ele>
  <time>2026-09-01T01:18:12Z</time>
  <course>0.0</course>
  <speed>0.0</speed>
  <fix>3d</fix>
</trkpt>
<trkpt lat="33.810313" lon="-118.393867">
  <ele>-0.104</ele>
  <time>2026-09-01T01:18:12Z</time>
  <course>187.29</course>
  <speed>0.03605551275463989</speed>
  <fix>3d</fix>
</trkpt>
<trkpt lat="33.810313" lon="-118.393867">
  <ele>-0.12</ele>
  <time>2026-09-01T01:18:12Z</time>
  <course>0.0</course>
  <speed>0.0</speed>
  <fix>3d</fix>
</trkpt>
<trkpt lat="33.810313" lon="-118.393867">
  <ele>-0.105</ele>
  <time>2026-09-01T01:18:12Z</time>
  <course>187.28</course>
  <speed>0.03605551275463989</speed>
  <fix>3d</fix>
</trkpt>
<trkpt lat="33.810313" lon="-118.393867">
  <ele>-0.12</ele>
  <time>2026-09-01T01:18:12Z</time>
  <course>0.0</course>
  <speed>0.0</speed>
  <fix>3d</fix>
</trkpt>
<trkpt lat="33.810313" lon="-118.393867">
  <ele>-0.107</ele>
  <time>2026-09-01T01:18:12Z</time>
  <course>187.28</course>
  <speed>0.03605551275463989</speed>
  <fix>3d</fix>
</trkpt>
<trkpt lat="33.810313" lon="-118.393867">
  <ele>-0.12</ele>
  <time>2026-09-01T01:18:12Z</time>
  <course>0.0</course>
  <speed>0.0</speed>
  <fix>3d</fix>
</trkpt>
<trkpt lat="33.810313" lon="-118.393867">
  <ele>-0.107</ele>
  <time>2026-09-01T01:18:12Z</time>
  <course>187.27</course>
  <speed>0.03605551275463989</speed>
  <fix>3d</fix>
</trkpt>
<trkpt lat="33.810313" lon="-118.393867">
  <ele>-0.12</ele>
  <time>2026-09-01T01:18:12Z</time>
  <course>0.0</course>
  <speed>0.0</speed>
  <fix>3d</fix>
</trkpt>
<trkpt lat="33.810313" lon="-118.393867">
  <ele>-0.108</ele>
  <time>2026-09-01T01:18:12Z</time>
  <course>187.26</course>
  <speed>0.03605551275463989</speed>
  <fix>3d</fix>
</trkpt>
<trkpt lat="33.810313" lon="-118.393867">
  <ele>-0.12</ele>
  <time>2026-09-01T01:18:12Z</time>
  <course>0.0</course>
  <speed>0.0</speed>
  <fix>3d</fix>
</trkpt>
<trkpt lat="33.810313" lon="-118.393867">
  <ele>-0.109</ele>
  <time>2026-09-01T01:18:12Z</time>
  <course>187.26</course>
  <speed>0.03605551275463989</speed>
  <fix>3d</fix>
</trkpt>
<trkpt lat="33.810313" lon="-118.393867">
  <ele>-0.12</ele>
  <time>2026-09-01T01:18:12Z</time>
  <course>0.0</course>
  <speed>0.0</speed>
  <fix>3d</fix>
</trkpt>
<trkpt lat="33.810313" lon="-118.393867">
  <ele>-0.109</ele>
  <time>2026-09-01T01:18:12Z</time>
  <course>187.25</course>
  <speed>0.03605551275463989</speed>
  <fix>3d</fix>
</trkpt>
<trkpt lat="33.810313" lon="-118.393867">
  <ele>-0.12</ele>
  <time>2026-09-01T01:18:12Z</time>
  <course>0.0</course>
  <speed>0.0</speed>
  <fix>3d</fix>
</trkpt>
<trkpt lat="33.810313" lon="-118.393867">
  <ele>-0.109</ele>
  <time>2026-09-01T01:18:12Z</time>
  <course>187.25</course>
  <speed>0.03605551275463989</speed>
  <fix>3d</fix>
</trkpt>
<trkpt lat="33.810313" lon="-118.393867">
  <ele>-0.12</ele>
  <time>2026-09-01T01:18:12Z</time>
  <course>0.0</course>
  <speed>0.0</speed>
  <fix>3d</fix>
</trkpt>
<trkpt lat="33.810313" lon="-118.393867">
  <ele>-0.108</ele>
  <time>2026-09-01T01:18:12Z</time>
  <course>187.24</course>
  <speed>0.03605551275463989</speed>
  <fix>3d</fix>
</trkpt>
<trkpt lat="33.810313" lon="-118.393867">
  <ele>-0.12</ele>
  <time>2026-09-01T01:18:12Z</time>
  <course>0.0</course>
  <speed>0.0</speed>
  <fix>3d</fix>
</trkpt>
<trkpt lat="33.810313" lon="-118.393867">
  <ele>-0.109</ele>
  <time>2026-09-01T01:18:12Z</time>
  <course>187.24</course>
  <speed>0.03605551275463989</speed>
  <fix>3d</fix>
</trkpt>
<trkpt lat="33.810313" lon="-118.393867">
  <ele>-0.12</ele>
  <time>2026-09-01T01:18:12Z</time>
  <course>0.0</course>
  <speed>0.0</speed>
  <fix>3d</fix>
</trkpt>
<trkpt lat="33.810313" lon="-118.393867">
  <ele>-0.11</ele>
  <time>2026-09-01T01:18:12Z</time>
  <course>187.23</course>
  <speed>0.03605551275463989</speed>
  <fix>3d</fix>
</trkpt>
<trkpt lat="33.810313" lon="-118.393867">
  <ele>-0.12</ele>
  <time>2026-09-01T01:18:12Z</time>
  <course>0.0</course>
  <speed>0.0</speed>
  <fix>3d</fix>
</trkpt>
<trkpt lat="33.810313" lon="-118.393867">
  <ele>-0.111</ele>
  <time>2026-09-01T01:18:12Z</time>
  <course>187.23</course>
  <speed>0.03605551275463989</speed>
  <fix>3d</fix>
</trkpt>
<trkpt lat="33.810313" lon="-118.393867">
  <ele>-0.12</ele>
  <time>2026-09-01T01:18:12Z</time>
  <course>0.0</course>
  <speed>0.0</speed>
  <fix>3d</fix>
</trkpt>
<trkpt lat="33.810313" lon="-118.393867">
  <ele>-0.114</ele>
  <time>2026-09-01T01:18:12Z</time>
  <course>187.22</course>
  <speed>0.03605551275463989</speed>
  <fix>3d</fix>
</trkpt>
<trkpt lat="33.810313" lon="-118.393867">
  <ele>-0.12</ele>
  <time>2026-09-01T01:18:12Z</time>
  <course>0.0</course>
  <speed>0.0</speed>
  <fix>3d</fix>
</trkpt>
<trkpt lat="33.810313" lon="-118.393867">
  <ele>-0.116</ele>
  <time>2026-09-01T01:18:12Z</time>
  <course>187.22</course>
  <speed>0.03605551275463989</speed>
  <fix>3d</fix>
</trkpt>
<trkpt lat="33.810313" lon="-118.393867">
  <ele>-0.12</ele>
  <time>2026-09-01T01:18:12Z</time>
  <course>0.0</course>
  <speed>0.0</speed>
  <fix>3d</fix>
</trkpt>
<trkpt lat="33.810313" lon="-118.393867">
  <ele>-0.117</ele>
  <time>2026-09-01T01:18:12Z</time>
  <course>187.21</course>
  <speed>0.03605551275463989</speed>
  <fix>3d</fix>
</trkpt>
<trkpt lat="33.810313" lon="-118.393867">
  <ele>-0.12</ele>
  <time>2026-09-01T01:18:12Z</time>
  <course>0.0</course>
  <speed>0.0</speed>
  <fix>3d</fix>
</trkpt>
<trkpt lat="33.810313" lon="-118.393867">
  <ele>-0.118</ele>
  <time>2026-09-01T01:18:12Z</time>
  <course>187.21</course>
  <speed>0.03605551275463989</speed>
  <fix>3d</fix>
</trkpt>
<trkpt lat="33.810313" lon="-118.393867">
  <ele>-0.12</ele>
  <time>2026-09-01T01:18:12Z</time>
  <course>0.0</course>
  <speed>0.0</speed>
  <fix>3d</fix>
</trkpt>
<trkpt lat="33.810313" lon="-118.393867">
  <ele>-0.118</ele>
  <time>2026-09-01T01:18:12Z</time>
  <course>187.2</course>
  <speed>0.03605551275463989</speed>
  <fix>3d</fix>
</trkpt>
<trkpt lat="33.810313" lon="-118.393867">
  <ele>-0.12</ele>
  <time>2026-09-01T01:18:12Z</time>
  <course>0.0</course>
  <speed>0.0</speed>
  <fix>3d</fix>
</trkpt>
<trkpt lat="33.810313" lon="-118.393867">
  <ele>-0.117</ele>
  <time>2026-09-01T01:18:12Z</time>
  <course>187.2</course>
  <speed>0.03605551275463989</speed>
  <fix>3d</fix>
</trkpt>
<trkpt lat="33.810313" lon="-118.393867">
  <ele>-0.12</ele>
  <time>2026-09-01T01:18:12Z</time>
  <course>0.0</course>
  <speed>0.0</speed>
  <fix>3d</fix>
</trkpt>
<trkpt lat="33.810313" lon="-118.393867">
  <ele>-0.115</ele>
  <time>2026-09-01T01:18:12Z</time>
  <course>187.19</course>
  <speed>0.03605551275463989</speed>
  <fix>3d</fix>
</trkpt>
<trkpt lat="33.810313" lon="-118.393867">
  <ele>-0.12</ele>
  <time>2026-09-01T01:18:12Z</time>
  <course>0.0</course>
  <speed>0.0</speed>
  <fix>3d</fix>
</trkpt>
<trkpt lat="33.810313" lon="-118.393867">
  <ele>-0.114</ele>
  <time>2026-09-01T01:18:12Z</time>
  <course>187.19</course>
  <speed>0.03605551275463989</speed>
  <fix>3d</fix>
</trkpt>
<trkpt lat="33.810313" lon="-118.393867">
  <ele>-0.12</ele>
  <time>2026-09-01T01:18:12Z</time>
  <course>0.0</course>
  <speed>0.0</speed>
  <fix>3d</fix>
</trkpt>
<trkpt lat="33.810313" lon="-118.393867">
  <ele>-0.114</ele>
  <time>2026-09-01T01:18:12Z</time>
  <course>187.18</course>
  <speed>0.03605551275463989</speed>
  <fix>3d</fix>
</trkpt>
<trkpt lat="33.810313" lon="-118.393867">
  <ele>-0.12</ele>
  <time>2026-09-01T01:18:12Z</time>
  <course>0.0</course>
  <speed>0.0</speed>
  <fix>3d</fix>
</trkpt>
<trkpt lat="33.810313" lon="-118.393867">
  <ele>-0.114</ele>
  <time>2026-09-01T01:18:12Z</time>
  <course>187.18</course>
  <speed>0.03605551275463989</speed>
  <fix>3d</fix>
</trkpt>
<trkpt lat="33.810313" lon="-118.393867">
  <ele>-0.12</ele>
  <time>2026-09-01T01:18:12Z</time>
  <course>0.0</course>
  <speed>0.0</speed>
  <fix>3d</fix>
</trkpt>
<trkpt lat="33.810313" lon="-118.393867">
  <ele>-0.115</ele>
  <time>2026-09-01T01:18:12Z</time>
  <course>187.17</course>
  <speed>0.0</speed>
  <fix>3d</fix>
</trkpt>
<trkpt lat="33.810313" lon="-118.393867">
  <ele>-0.12</ele>
  <time>2026-09-01T01:18:12Z</time>
  <course>0.0</course>
  <speed>0.0</speed>
  <fix>3d</fix>
</trkpt>
<trkpt lat="33.810313" lon="-118.393867">
  <ele>-0.117</ele>
  <time>2026-09-01T01:18:12Z</time>
  <course>187.17</course>
  <speed>0.0</speed>
  <fix>3d</fix>
</trkpt>
<trkpt lat="33.810313" lon="-118.393867">
  <ele>-0.12</ele>
  <time>2026-09-01T01:18:12Z</time>
  <course>0.0</course>
  <speed>0.0</speed>
  <fix>3d</fix>
</trkpt>
<trkpt lat="33.810313" lon="-118.393867">
  <ele>-0.117</ele>
  <time>2026-09-01T01:18:12Z</time>
  <course>187.16</course>
  <speed>0.0</speed>
  <fix>3d</fix>
</trkpt>
<trkpt lat="33.810313" lon="-118.393867">
  <ele>-0.12</ele>
  <time>2026-09-01T01:18:12Z</time>
  <course>0.0</course>
  <speed>0.0</speed>
  <fix>3d</fix>
</trkpt>
<trkpt lat="33.810313" lon="-118.393867">
  <ele>-0.117</ele>
  <time>2026-09-01T01:18:12Z</time>
  <course>187.16</course>
  <speed>0.0</speed>
  <fix>3d</fix>
</trkpt>
<trkpt lat="33.810313" lon="-118.393867">
  <ele>-0.12</ele>
  <time>2026-09-01T01:18:12Z</time>
  <course>0.0</course>
  <speed>0.0</speed>
  <fix>3d</fix>
</trkpt>
<trkpt lat="33.810313" lon="-118.393867">
  <ele>-0.117</ele>
  <time>2026-09-01T01:18:12Z</time>
  <course>187.15</course>
  <speed>0.0</speed>
  <fix>3d</fix>
</trkpt>
<trkpt lat="33.810313" lon="-118.393867">
  <ele>-0.12</ele>
  <time>2026-09-01T01:18:12Z</time>
  <course>0.0</course>
  <speed>0.0</speed>
  <fix>3d</fix>
</trkpt>
<trkpt lat="33.810313" lon="-118.393867">
  <ele>-0.115</ele>
  <time>2026-09-01T01:18:12Z</time>
  <course>187.15</course>
  <speed>0.0</speed>
  <fix>3d</fix>
</trkpt>
<trkpt lat="33.810313" lon="-118.393867">
  <ele>-0.12</ele>
  <time>2026-09-01T01:18:12Z</time>
  <course>0.0</course>
  <speed>0.0</speed>
  <fix>3d</fix>
</trkpt>
<trkpt lat="33.810313" lon="-118.393867">
  <ele>-0.114</ele>
  <time>2026-09-01T01:18:12Z</time>
  <course>187.14</course>
  <speed>0.0</speed>
  <fix>3d</fix>
</trkpt>
<trkpt lat="33.810313" lon="-118.393867">
  <ele>-0.12</ele>
  <time>2026-09-01T01:18:12Z</time>
  <course>0.0</course>
  <speed>0.0</speed>
  <fix>3d</fix>
</trkpt>
<trkpt lat="33.810313" lon="-118.393867">
  <ele>-0.113</ele>
  <time>2026-09-01T01:18:12Z</time>
  <course>187.14</course>
  <speed>0.0</speed>
  <fix>3d</fix>
</trkpt>
<trkpt lat="33.810313" lon="-118.393867">
  <ele>-0.12</ele>
  <time>2026-09-01T01:18:12Z</time>
  <course>0.0</course>
  <speed>0.0</speed>
  <fix>3d</fix>
</trkpt>
<trkpt lat="33.810313" lon="-118.393867">
  <ele>-0.113</ele>
  <time>2026-09-01T01:18:12Z</time>
  <course>187.13</course>
  <speed>0.0</speed>
  <fix>3d</fix>
</trkpt>
<trkpt lat="33.810313" lon="-118.393867">
  <ele>-0.12</ele>
  <time>2026-09-01T01:18:12Z</time>
  <course>0.0</course>
  <speed>0.0</speed>
  <fix>3d</fix>
</trkpt>
<trkpt lat="33.810313" lon="-118.393867">
  <ele>-0.113</ele>
  <time>2026-09-01T01:18:12Z</time>
  <course>187.13</course>
  <speed>0.0</speed>
  <fix>3d</fix>
</trkpt>
<trkpt lat="33.810313" lon="-118.393867">
  <ele>-0.12</ele>
  <time>2026-09-01T01:18:12Z</time>
  <course>0.0</course>
  <speed>0.0</speed>
  <fix>3d</fix>
</trkpt>
<trkpt lat="33.810313" lon="-118.393867">
  <ele>-0.115</ele>
  <time>2026-09-01T01:18:12Z</time>
  <course>187.12</course>
  <speed>0.0</speed>
  <fix>3d</fix>
</trkpt>
<trkpt lat="33.810313" lon="-118.393867">
  <ele>-0.12</ele>
  <time>2026-09-01T01:18:12Z</time>
  <course>0.0</course>
  <speed>0.0</speed>
  <fix>3d</fix>
</trkpt>
<trkpt lat="33.810313" lon="-118.393867">
  <ele>-0.116</ele>
  <time>2026-09-01T01:18:12Z</time>
  <course>187.12</course>
  <speed>0.01</speed>
  <fix>3d</fix>
</trkpt>
<trkpt lat="33.810313" lon="-118.393867">
  <ele>-0.12</ele>
  <time>2026-09-01T01:18:12Z</time>
  <course>0.0</course>
  <speed>0.0</speed>
  <fix>3d</fix>
</trkpt>
<trkpt lat="33.810313" lon="-118.393867">
  <ele>-0.118</ele>
  <time>2026-09-01T01:18:12Z</time>
  <course>187.11</course>
  <speed>0.01</speed>
  <fix>3d</fix>
</trkpt>
<trkpt lat="33.810313" lon="-118.393867">
  <ele>-0.12</ele>
  <time>2026-09-01T01:18:12Z</time>
  <course>0.0</course>
  <speed>0.0</speed>
  <fix>3d</fix>
</trkpt>
<trkpt lat="33.810313" lon="-118.393867">
  <ele>-0.119</ele>
  <time>2026-09-01T01:18:12Z</time>
  <course>187.11</course>
  <speed>0.01</speed>
  <fix>3d</fix>
</trkpt>
<trkpt lat="33.810313" lon="-118.393867">
  <ele>-0.12</ele>
  <time>2026-09-01T01:18:12Z</time>
  <course>0.0</course>
  <speed>0.0</speed>
  <fix>3d</fix>
</trkpt>
<trkpt lat="33.810313" lon="-118.393867">
  <ele>-0.12</ele>
  <time>2026-09-01T01:18:12Z</time>
  <course>187.1</course>
  <speed>0.01414213562373095</speed>
  <fix>3d</fix>
</trkpt>
<trkpt lat="33.810313" lon="-118.393867">
  <ele>-0.12</ele>
  <time>2026-09-01T01:18:12Z</time>
  <course>0.0</course>
  <speed>0.0</speed>
  <fix>3d</fix>
</trkpt>
<trkpt lat="33.810313" lon="-118.393867">
  <ele>-0.118</ele>
  <time>2026-09-01T01:18:12Z</time>
  <course>187.1</course>
  <speed>0.01414213562373095</speed>
  <fix>3d</fix>
</trkpt>
<trkpt lat="33.810313" lon="-118.393867">
  <ele>-0.12</ele>
  <time>2026-09-01T01:18:12Z</time>
  <course>0.0</course>
  <speed>0.0</speed>
  <fix>3d</fix>
</trkpt>
<trkpt lat="33.810313" lon="-118.393867">
  <ele>-0.117</ele>
  <time>2026-09-01T01:18:12Z</time>
  <course>187.09</course>
  <speed>0.01414213562373095</speed>
  <fix>3d</fix>
</trkpt>
<trkpt lat="33.810313" lon="-118.393867">
  <ele>-0.12</ele>
  <time>2026-09-01T01:18:12Z</time>
  <course>0.0</course>
  <speed>0.0</speed>
  <fix>3d</fix>
</trkpt>
<trkpt lat="33.810313" lon="-118.393867">
  <ele>-0.115</ele>
  <time>2026-09-01T01:18:12Z</time>
  <course>187.09</course>
  <speed>0.01414213562373095</speed>
  <fix>3d</fix>
</trkpt>
<trkpt lat="33.810313" lon="-118.393867">
  <ele>-0.12</ele>
  <time>2026-09-01T01:18:12Z</time>
  <course>0.0</course>
  <speed>0.0</speed>
  <fix>3d</fix>
</trkpt>
<trkpt lat="33.810313" lon="-118.393867">
  <ele>-0.115</ele>
  <time>2026-09-01T01:18:12Z</time>
  <course>187.08</course>
  <speed>0.01414213562373095</speed>
  <fix>3d</fix>
</trkpt>
<trkpt lat="33.810313" lon="-118.393867">
  <ele>-0.12</ele>
  <time>2026-09-01T01:18:12Z</time>
  <course>0.0</course>
  <speed>0.0</speed>
  <fix>3d</fix>
</trkpt>
<trkpt lat="33.810313" lon="-118.393867">
  <ele>-0.116</ele>
  <time>2026-09-01T01:18:12Z</time>
  <course>187.08</course>
  <speed>0.01414213562373095</speed>
  <fix>3d</fix>
</trkpt>
<trkpt lat="33.810313" lon="-118.393867">
  <ele>-0.12</ele>
  <time>2026-09-01T01:18:12Z</time>
  <course>0.0</course>
  <speed>0.0</speed>
  <fix>3d</fix>
</trkpt>
<trkpt lat="33.810313" lon="-118.393867">
  <ele>-0.117</ele>
  <time>2026-09-01T01:18:12Z</time>
  <course>187.07</course>
  <speed>0.01414213562373095</speed>
  <fix>3d</fix>
</trkpt>
<trkpt lat="33.810313" lon="-118.393867">
  <ele>-0.12</ele>
  <time>2026-09-01T01:18:12Z</time>
  <course>0.0</course>
  <speed>0.0</speed>
  <fix>3d</fix>
</trkpt>
<trkpt lat="33.810313" lon="-118.393867">
  <ele>-0.119</ele>
  <time>2026-09-01T01:18:12Z</time>
  <course>187.07</course>
  <speed>0.022360679774997897</speed>
  <fix>3d</fix>
</trkpt>
<trkpt lat="33.810313" lon="-118.393867">
  <ele>-0.12</ele>
  <time>2026-09-01T01:18:12Z</time>
  <course>0.0</course>
  <speed>0.0</speed>
  <fix>3d</fix>
</trkpt>
<trkpt lat="33.810313" lon="-118.393867">
  <ele>-0.121</ele>
  <time>2026-09-01T01:18:12Z</time>
  <course>187.06</course>
  <speed>0.022360679774997897</speed>
  <fix>3d</fix>
</trkpt>
<trkpt lat="33.810313" lon="-118.393867">
  <ele>-0.12</ele>
  <time>2026-09-01T01:18:12Z</time>
  <course>0.0</course>
  <speed>0.0</speed>
  <fix>3d</fix>
</trkpt>
<trkpt lat="33.810313" lon="-118.393867">
  <ele>-0.122</ele>
  <time>2026-09-01T01:18:12Z</time>
  <course>187.06</course>
  <speed>0.022360679774997897</speed>
  <fix>3d</fix>
</trkpt>
<trkpt lat="33.810313" lon="-118.393867">
  <ele>-0.12</ele>
  <time>2026-09-01T01:18:12Z</time>
  <course>0.0</course>
  <speed>0.0</speed>
  <fix>3d</fix>
</trkpt>
<trkpt lat="33.810313" lon="-118.393867">
  <ele>-0.122</ele>
  <time>2026-09-01T01:18:12Z</time>
  <course>187.05</course>
  <speed>0.022360679774997897</speed>
  <fix>3d</fix>
</trkpt>
<trkpt lat="33.810313" lon="-118.393867">
  <ele>-0.12</ele>
  <time>2026-09-01T01:18:12Z</time>
  <course>0.0</course>
  <speed>0.0</speed>
  <fix>3d</fix>
</trkpt>
<trkpt lat="33.810313" lon="-118.393867">
  <ele>-0.12</ele>
  <time>2026-09-01T01:18:12Z</time>
  <course>187.05</course>
  <speed>0.022360679774997897</speed>
  <fix>3d</fix>
</trkpt>
<trkpt lat="33.810313" lon="-118.393867">
  <ele>-0.12</ele>
  <time>2026-09-01T01:18:12Z</time>
  <course>0.0</course>
  <speed>0.0</speed>
  <fix>3d</fix>
</trkpt>
<trkpt lat="33.8103131" lon="-118.393867">
  <ele>-0.119</ele>
  <time>2026-09-01T01:18:12Z</time>
  <course>187.04</course>
  <speed>0.022360679774997897</speed>
  <fix>3d</fix>
</trkpt>
<trkpt lat="33.810313" lon="-118.393867">
  <ele>-0.12</ele>
  <time>2026-09-01T01:18:12Z</time>
  <course>0.0</course>
  <speed>0.0</speed>
  <fix>3d</fix>
</trkpt>
<trkpt lat="33.8103131" lon="-118.3938671">
  <ele>-0.119</ele>
  <time>2026-09-01T01:18:12Z</time>
  <course>187.04</course>
  <speed>0.022360679774997897</speed>
  <fix>3d</fix>
</trkpt>
<trkpt lat="33.810313" lon="-118.393867">
  <ele>-0.12</ele>
  <time>2026-09-01T01:18:12Z</time>
  <course>0.0</course>
  <speed>0.0</speed>
  <fix>3d</fix>
</trkpt>
<trkpt lat="33.8103131" lon="-118.3938671">
  <ele>-0.12</ele>
  <time>2026-09-01T01:18:12Z</time>
  <course>187.03</course>
  <speed>0.0282842712474619</speed>
  <fix>3d</fix>
</trkpt>
<trkpt lat="33.810313" lon="-118.393867">
  <ele>-0.12</ele>
  <time>2026-09-01T01:18:12Z</time>
  <course>0.0</course>
  <speed>0.0</speed>
  <fix>3d</fix>
</trkpt>
<trkpt lat="33.8103131" lon="-118.3938671">
  <ele>-0.121</ele>
  <time>2026-09-01T01:18:12Z</time>
  <course>187.03</course>
  <speed>0.0282842712474619</speed>
  <fix>3d</fix>
</trkpt>
<trkpt lat="33.810313" lon="-118.393867">
  <ele>-0.12</ele>
  <time>2026-09-01T01:18:12Z</time>
  <course>0.0</course>
  <speed>0.0</speed>
  <fix>3d</fix>
</trkpt>
<trkpt lat="33.8103131" lon="-118.3938671">
  <ele>-0.122</ele>
  <time>2026-09-01T01:18:12Z</time>
  <course>187.02</course>
  <speed>0.0282842712474619</speed>
  <fix>3d</fix>
</trkpt>
<trkpt lat="33.810313" lon="-118.393867">
  <ele>-0.12</ele>
  <time>2026-09-01T01:18:12Z</time>
  <course>0.0</course>
  <speed>0.0</speed>
  <fix>3d</fix>
</trkpt>
<trkpt lat="33.8103131" lon="-118.3938671">
  <ele>-0.123</ele>
  <time>2026-09-01T01:18:12Z</time>
  <course>187.02</course>
  <speed>0.0282842712474619</speed>
  <fix>3d</fix>
</trkpt>
<trkpt lat="33.810313" lon="-118.393867">
  <ele>-0.12</ele>
  <time>2026-09-01T01:18:12Z</time>
  <course>0.0</course>
  <speed>0.0</speed>
  <fix>3d</fix>
</trkpt>
<trkpt lat="33.8103131" lon="-118.3938671">
  <ele>-0.123</ele>
  <time>2026-09-01T01:18:12Z</time>
  <course>187.01</course>
  <speed>0.0282842712474619</speed>
  <fix>3d</fix>
</trkpt>
<trkpt lat="33.810313" lon="-118.393867">
  <ele>-0.12</ele>
  <time>2026-09-01T01:18:12Z</time>
  <course>0.0</course>
  <speed>0.0</speed>
  <fix>3d</fix>
</trkpt>
<trkpt lat="33.8103131" lon="-118.3938671">
  <ele>-0.123</ele>
  <time>2026-09-01T01:18:12Z</time>
  <course>187.01</course>
  <speed>0.0282842712474619</speed>
  <fix>3d</fix>
</trkpt>
<trkpt lat="33.810313" lon="-118.393867">
  <ele>-0.12</ele>
  <time>2026-09-01T01:18:12Z</time>
  <course>0.0</course>
  <speed>0.0</speed>
  <fix>3d</fix>
</trkpt>
<trkpt lat="33.8103131" lon="-118.3938671">
  <ele>-0.122</ele>
  <time>2026-09-01T01:18:12Z</time>
  <course>187.0</course>
  <speed>0.0282842712474619</speed>
  <fix>3d</fix>
</trkpt>
<trkpt lat="33.810313" lon="-118.393867">
  <ele>-0.12</ele>
  <time>2026-09-01T01:18:12Z</time>
  <course>0.0</course>
  <speed>0.0</speed>
  <fix>3d</fix>
</trkpt>
<trkpt lat="33.8103131" lon="-118.3938671">
  <ele>-0.12</ele>
  <time>2026-09-01T01:18:12Z</time>
  <course>187.0</course>
  <speed>0.0282842712474619</speed>
  <fix>3d</fix>
</trkpt>
<trkpt lat="33.810313" lon="-118.393867">
  <ele>-0.12</ele>
  <time>2026-09-01T01:18:12Z</time>
  <course>0.0</course>
  <speed>0.0</speed>
  <fix>3d</fix>
</trkpt>
<trkpt lat="33.8103131" lon="-118.3938671">
  <ele>-0.119</ele>
  <time>2026-09-01T01:18:12Z</time>
  <course>186.99</course>
  <speed>0.03605551275463989</speed>
  <fix>3d</fix>
</trkpt>
<trkpt lat="33.810313" lon="-118.393867">
  <ele>-0.12</ele>
  <time>2026-09-01T01:18:12Z</time>
  <course>0.0</course>
  <speed>0.0</speed>
  <fix>3d</fix>
</trkpt>
<trkpt lat="33.8103131" lon="-118.3938671">
  <ele>-0.116</ele>
  <time>2026-09-01T01:18:12Z</time>
  <course>186.99</course>
  <speed>0.03605551275463989</speed>
  <fix>3d</fix>
</trkpt>
<trkpt lat="33.810313" lon="-118.393867">
  <ele>-0.12</ele>
  <time>2026-09-01T01:18:12Z</time>
  <course>0.0</course>
  <speed>0.0</speed>
  <fix>3d</fix>
</trkpt>
<trkpt lat="33.8103131" lon="-118.3938671">
  <ele>-0.115</ele>
  <time>2026-09-01T01:18:12Z</time>
  <course>186.99</course>
  <speed>0.03605551275463989</speed>
  <fix>3d</fix>
</trkpt>
<trkpt lat="33.810313" lon="-118.393867">
  <ele>-0.12</ele>
  <time>2026-09-01T01:18:12Z</time>
  <course>0.0</course>
  <speed>0.0</speed>
  <fix>3d</fix>
</trkpt>
<trkpt lat="33.8103131" lon="-118.3938671">
  <ele>-0.115</ele>
  <time>2026-09-01T01:18:12Z</time>
  <course>186.98</course>
  <speed>0.03605551275463989</speed>
  <fix>3d</fix>
</trkpt>
<trkpt lat="33.810313" lon="-118.393867">
  <ele>-0.12</ele>
  <time>2026-09-01T01:18:12Z</time>
  <course>0.0</course>
  <speed>0.0</speed>
  <fix>3d</fix>
</trkpt>
<trkpt lat="33.8103131" lon="-118.3938671">
  <ele>-0.116</ele>
  <time>2026-09-01T01:18:12Z</time>
  <course>186.98</course>
  <speed>0.03605551275463989</speed>
  <fix>3d</fix>
</trkpt>
<trkpt lat="33.810313" lon="-118.393867">
  <ele>-0.12</ele>
  <time>2026-09-01T01:18:12Z</time>
  <course>0.0</course>
  <speed>0.0</speed>
  <fix>3d</fix>
</trkpt>
<trkpt lat="33.8103131" lon="-118.3938671">
  <ele>-0.118</ele>
  <time>2026-09-01T01:18:12Z</time>
  <course>186.97</course>
  <speed>0.03605551275463989</speed>
  <fix>3d</fix>
</trkpt>
<trkpt lat="33.810313" lon="-118.393867">
  <ele>-0.12</ele>
  <time>2026-09-01T01:18:12Z</time>
  <course>0.0</course>
  <speed>0.0</speed>
  <fix>3d</fix>
</trkpt>
<trkpt lat="33.8103132" lon="-118.3938671">
  <ele>-0.12</ele>
  <time>2026-09-01T01:18:12Z</time>
  <course>186.97</course>
  <speed>0.03605551275463989</speed>
  <fix>3d</fix>
</trkpt>
<trkpt lat="33.810313" lon="-118.393867">
  <ele>-0.12</ele>
  <time>2026-09-01T01:18:12Z</time>
  <course>0.0</course>
  <speed>0.0</speed>
  <fix>3d</fix>
</trkpt>
<trkpt lat="33.8103132" lon="-118.3938671">
  <ele>-0.119</ele>
  <time>2026-09-01T01:18:12Z</time>
  <course>186.96</course>
  <speed>0.03605551275463989</speed>
  <fix>3d</fix>
</trkpt>
<trkpt lat="33.810313" lon="-118.393867">
  <ele>-0.12</ele>
  <time>2026-09-01T01:18:12Z</time>
  <course>0.0</course>
  <speed>0.0</speed>
  <fix>3d</fix>
</trkpt>
<trkpt lat="33.8103132" lon="-118.3938671">
  <ele>-0.118</ele>
  <time>2026-09-01T01:18:12Z</time>
  <course>186.96</course>
  <speed>0.03605551275463989</speed>
  <fix>3d</fix>
</trkpt>
<trkpt lat="33.810313" lon="-118.393867">
  <ele>-0.12</ele>
  <time>2026-09-01T01:18:12Z</time>
  <course>0.0</course>
  <speed>0.0</speed>
  <fix>3d</fix>
</trkpt>
<trkpt lat="33.8103132" lon="-118.3938671">
  <ele>-0.115</ele>
  <time>2026-09-01T01:18:12Z</time>
  <course>186.96</course>
  <speed>0.03605551275463989</speed>
  <fix>3d</fix>
</trkpt>
<trkpt lat="33.810313" lon="-118.393867">
  <ele>-0.12</ele>
  <time>2026-09-01T01:18:12Z</time>
  <course>0.0</course>
  <speed>0.0</speed>
  <fix>3d</fix>
</trkpt>
<trkpt lat="33.8103132" lon="-118.3938672">
  <ele>-0.112</ele>
  <time>2026-09-01T01:18:12Z</time>
  <course>186.95</course>
  <speed>0.03605551275463989</speed>
  <fix>3d</fix>
</trkpt>
<trkpt lat="33.810313" lon="-118.393867">
  <ele>-0.12</ele>
  <time>2026-09-01T01:18:12Z</time>
  <course>0.0</course>
  <speed>0.0</speed>
  <fix>3d</fix>
</trkpt>
<trkpt lat="33.8103132" lon="-118.3938672">
  <ele>-0.109</ele>
  <time>2026-09-01T01:18:12Z</time>
  <course>186.95</course>
  <speed>0.03605551275463989</speed>
  <fix>3d</fix>
</trkpt>
<trkpt lat="33.810313" lon="-118.393867">
  <ele>-0.12</ele>
  <time>2026-09-01T01:18:12Z</time>
  <course>0.0</course>
  <speed>0.0</speed>
  <fix>3d</fix>
</trkpt>
<trkpt lat="33.8103132" lon="-118.3938672">
  <ele>-0.108</ele>
  <time>2026-09-01T01:18:12Z</time>
  <course>186.94</course>
  <speed>0.03605551275463989</speed>
  <fix>3d</fix>
</trkpt>
<trkpt lat="33.810313" lon="-118.393867">
  <ele>-0.12</ele>
  <time>2026-09-01T01:18:12Z</time>
  <course>0.0</course>
  <speed>0.0</speed>
  <fix>3d</fix>
</trkpt>
<trkpt lat="33.8103132" lon="-118.3938672">
  <ele>-0.108</ele>
  <time>2026-09-01T01:18:12Z</time>
  <course>186.94</course>
  <speed>0.0282842712474619</speed>
  <fix>3d</fix>
</trkpt>
<trkpt lat="33.810313" lon="-118.393867">
  <ele>-0.12</ele>
  <time>2026-09-01T01:18:12Z</time>
  <course>0.0</course>
  <speed>0.0</speed>
  <fix>3d</fix>
</trkpt>
<trkpt lat="33.8103132" lon="-118.3938672">
  <ele>-0.109</ele>
  <time>2026-09-01T01:18:12Z</time>
  <course>186.93</course>
  <speed>0.0282842712474619</speed>
  <fix>3d</fix>
</trkpt>
<trkpt lat="33.810313" lon="-118.393867">
  <ele>-0.12</ele>
  <time>2026-09-01T01:18:12Z</time>
  <course>0.0</course>
  <speed>0.0</speed>
  <fix>3d</fix>
</trkpt>
<trkpt lat="33.8103132" lon="-118.3938672">
  <ele>-0.11</ele>
  <time>2026-09-01T01:18:12Z</time>
  <course>186.93</course>
  <speed>0.0282842712474619</speed>
  <fix>3d</fix>
</trkpt>
<trkpt lat="33.810313" lon="-118.393867">
  <ele>-0.12</ele>
  <time>2026-09-01T01:18:12Z</time>
  <course>0.0</course>
  <speed>0.0</speed>
  <fix>3d</fix>
</trkpt>
<trkpt lat="33.8103132" lon="-118.3938672">
  <ele>-0.111</ele>
  <time>2026-09-01T01:18:12Z</time>
  <course>186.93</course>
  <speed>0.0282842712474619</speed>
  <fix>3d</fix>
</trkpt>
<trkpt lat="33.810313" lon="-118.393867">
  <ele>-0.12</ele>
  <time>2026-09-01T01:18:12Z</time>
  <course>0.0</course>
  <speed>0.0</speed>
  <fix>3d</fix>
</trkpt>
<trkpt lat="33.8103132" lon="-118.3938672">
  <ele>-0.112</ele>
  <time>2026-09-01T01:18:12Z</time>
  <course>186.92</course>
  <speed>0.0282842712474619</speed>
  <fix>3d</fix>
</trkpt>
<trkpt lat="33.810313" lon="-118.393867">
  <ele>-0.12</ele>
  <time>2026-09-01T01:18:12Z</time>
  <course>0.0</course>
  <speed>0.0</speed>
  <fix>3d</fix>
</trkpt>
<trkpt lat="33.8103132" lon="-118.3938672">
  <ele>-0.114</ele>
  <time>2026-09-01T01:18:12Z</time>
  <course>186.92</course>
  <speed>0.0282842712474619</speed>
  <fix>3d</fix>
</trkpt>
<trkpt lat="33.810313" lon="-118.393867">
  <ele>-0.12</ele>
  <time>2026-09-01T01:18:12Z</time>
  <course>0.0</course>
  <speed>0.0</speed>
  <fix>3d</fix>
</trkpt>
<trkpt lat="33.8103132" lon="-118.3938672">
  <ele>-0.115</ele>
  <time>2026-09-01T01:18:12Z</time>
  <course>186.92</course>
  <speed>0.0282842712474619</speed>
  <fix>3d</fix>
</trkpt>
<trkpt lat="33.810313" lon="-118.393867">
  <ele>-0.12</ele>
  <time>2026-09-01T01:18:12Z</time>
  <course>0.0</course>
  <speed>0.0</speed>
  <fix>3d</fix>
</trkpt>
<trkpt lat="33.8103132" lon="-118.3938672">
  <ele>-0.117</ele>
  <time>2026-09-01T01:18:12Z</time>
  <course>186.91</course>
  <speed>0.0282842712474619</speed>
  <fix>3d</fix>
</trkpt>
<trkpt lat="33.810313" lon="-118.393867">
  <ele>-0.12</ele>
  <time>2026-09-01T01:18:12Z</time>
  <course>0.0</course>
  <speed>0.0</speed>
  <fix>3d</fix>
</trkpt>
<trkpt lat="33.8103132" lon="-118.3938671">
  <ele>-0.118</ele>
  <time>2026-09-01T01:18:12Z</time>
  <course>186.91</course>
  <speed>0.0282842712474619</speed>
  <fix>3d</fix>
</trkpt>
<trkpt lat="33.810313" lon="-118.393867">
  <ele>-0.12</ele>
  <time>2026-09-01T01:18:12Z</time>
  <course>0.0</course>
  <speed>0.0</speed>
  <fix>3d</fix>
</trkpt>
<trkpt lat="33.8103132" lon="-118.3938671">
  <ele>-0.12</ele>
  <time>2026-09-01T01:18:12Z</time>
  <course>186.91</course>
  <speed>0.0282842712474619</speed>
  <fix>3d</fix>
</trkpt>
<trkpt lat="33.810313" lon="-118.393867">
  <ele>-0.12</ele>
  <time>2026-09-01T01:18:12Z</time>
  <course>0.0</course>
  <speed>0.0</speed>
  <fix>3d</fix>
</trkpt>
<trkpt lat="33.8103132" lon="-118.3938671">
  <ele>-0.121</ele>
  <time>2026-09-01T01:18:12Z</time>
  <course>186.9</course>
  <speed>0.0282842712474619</speed>
  <fix>3d</fix>
</trkpt>
<trkpt lat="33.810313" lon="-118.393867">
  <ele>-0.12</ele>
  <time>2026-09-01T01:18:12Z</time>
  <course>0.0</course>
  <speed>0.0</speed>
  <fix>3d</fix>
</trkpt>
<trkpt lat="33.8103132" lon="-118.3938671">
  <ele>-0.123</ele>
  <time>2026-09-01T01:18:12Z</time>
  <course>186.9</course>
  <speed>0.0282842712474619</speed>
  <fix>3d</fix>
</trkpt>
<trkpt lat="33.810313" lon="-118.393867">
  <ele>-0.12</ele>
  <time>2026-09-01T01:18:12Z</time>
  <course>0.0</course>
  <speed>0.0</speed>
  <fix>3d</fix>
</trkpt>
<trkpt lat="33.8103132" lon="-118.3938671">
  <ele>-0.126</ele>
  <time>2026-09-01T01:18:12Z</time>
  <course>186.89</course>
  <speed>0.0282842712474619</speed>
  <fix>3d</fix>
</trkpt>
<trkpt lat="33.810313" lon="-118.393867">
  <ele>-0.12</ele>
  <time>2026-09-01T01:18:12Z</time>
  <course>0.0</course>
  <speed>0.0</speed>
  <fix>3d</fix>
</trkpt>
<trkpt lat="33.8103131" lon="-118.3938671">
  <ele>-0.128</ele>
  <time>2026-09-01T01:18:12Z</time>
  <course>186.89</course>
  <speed>0.0282842712474619</speed>
  <fix>3d</fix>
</trkpt>
<trkpt lat="33.810313" lon="-118.393867">
  <ele>-0.12</ele>
  <time>2026-09-01T01:18:12Z</time>
  <course>0.0</course>
  <speed>0.0</speed>
  <fix>3d</fix>
</trkpt>
<trkpt lat="33.8103131" lon="-118.3938671">
  <ele>-0.129</ele>
  <time>2026-09-01T01:18:12Z</time>
  <course>186.89</course>
  <speed>0.022360679774997897</speed>
  <fix>3d</fix>
</trkpt>
<trkpt lat="33.810313" lon="-118.393867">
  <ele>-0.12</ele>
  <time>2026-09-01T01:18:12Z</time>
  <course>0.0</course>
  <speed>0.0</speed>
  <fix>3d</fix>
</trkpt>
<trkpt lat="33.8103131" lon="-118.3938671">
  <ele>-0.129</ele>
  <time>2026-09-01T01:18:12Z</time>
  <course>186.88</course>
  <speed>0.022360679774997897</speed>
  <fix>3d</fix>
</trkpt>
<trkpt lat="33.810313" lon="-118.393867">
  <ele>-0.12</ele>
  <time>2026-09-01T01:18:12Z</time>
  <course>0.0</course>
  <speed>0.0</speed>
  <fix>3d</fix>
</trkpt>
<trkpt lat="33.8103131" lon="-118.3938671">
  <ele>-0.128</ele>
  <time>2026-09-01T01:18:12Z</time>
  <course>186.88</course>
  <speed>0.022360679774997897</speed>
  <fix>3d</fix>
</trkpt>
<trkpt lat="33.810313" lon="-118.393867">
  <ele>-0.12</ele>
  <time>2026-09-01T01:18:12Z</time>
  <course>0.0</course>
  <speed>0.0</speed>
  <fix>3d</fix>
</trkpt>
<trkpt lat="33.8103131" lon="-118.3938671">
  <ele>-0.126</ele>
  <time>2026-09-01T01:18:12Z</time>
  <course>186.88</course>
  <speed>0.022360679774997897</speed>
  <fix>3d</fix>
</trkpt>
<trkpt lat="33.810313" lon="-118.393867">
  <ele>-0.12</ele>
  <time>2026-09-01T01:18:12Z</time>
  <course>0.0</course>
  <speed>0.0</speed>
  <fix>3d</fix>
</trkpt>
<trkpt lat="33.8103131" lon="-118.3938671">
  <ele>-0.124</ele>
  <time>2026-09-01T01:18:12Z</time>
  <course>186.87</course>
  <speed>0.022360679774997897</speed>
  <fix>3d</fix>
</trkpt>
<trkpt lat="33.810313" lon="-118.393867">
  <ele>-0.12</ele>
  <time>2026-09-01T01:18:12Z</time>
  <course>0.0</course>
  <speed>0.0</speed>
  <fix>3d</fix>
</trkpt>
<trkpt lat="33.8103131" lon="-118.3938671">
  <ele>-0.123</ele>
  <time>2026-09-01T01:18:12Z</time>
  <course>186.87</course>
  <speed>0.022360679774997897</speed>
  <fix>3d</fix>
</trkpt>
<trkpt lat="33.810313" lon="-118.393867">
  <ele>-0.12</ele>
  <time>2026-09-01T01:18:12Z</time>
  <course>0.0</course>
  <speed>0.0</speed>
  <fix>3d</fix>
</trkpt>
<trkpt lat="33.8103131" lon="-118.3938671">
  <ele>-0.122</ele>
  <time>2026-09-01T01:18:12Z</time>
  <course>186.87</course>
  <speed>0.022360679774997897</speed>
  <fix>3d</fix>
</trkpt>
<trkpt lat="33.810313" lon="-118.393867">
  <ele>-0.12</ele>
  <time>2026-09-01T01:18:12Z</time>
  <course>0.0</course>
  <speed>0.0</speed>
  <fix>3d</fix>
</trkpt>
<trkpt lat="33.8103131" lon="-118.3938671">
  <ele>-0.12</ele>
  <time>2026-09-01T01:18:12Z</time>
  <course>186.87</course>
  <speed>0.022360679774997897</speed>
  <fix>3d</fix>
</trkpt>
<trkpt lat="33.810313" lon="-118.393867">
  <ele>-0.12</ele>
  <time>2026-09-01T01:18:12Z</time>
  <course>0.0</course>
  <speed>0.0</speed>
  <fix>3d</fix>
</trkpt>
<trkpt lat="33.8103131" lon="-118.3938671">
  <ele>-0.118</ele>
  <time>2026-09-01T01:18:12Z</time>
  <course>186.86</course>
  <speed>0.022360679774997897</speed>
  <fix>3d</fix>
</trkpt>
<trkpt lat="33.810313" lon="-118.393867">
  <ele>-0.12</ele>
  <time>2026-09-01T01:18:12Z</time>
  <course>0.0</course>
  <speed>0.0</speed>
  <fix>3d</fix>
</trkpt>
<trkpt lat="33.8103131" lon="-118.3938671">
  <ele>-0.117</ele>
  <time>2026-09-01T01:18:12Z</time>
  <course>186.86</course>
  <speed>0.022360679774997897</speed>
  <fix>3d</fix>
</trkpt>
<trkpt lat="33.810313" lon="-118.393867">
  <ele>-0.12</ele>
  <time>2026-09-01T01:18:12Z</time>
  <course>0.0</course>
  <speed>0.0</speed>
  <fix>3d</fix>
</trkpt>
<trkpt lat="33.8103131" lon="-118.3938671">
  <ele>-0.116</ele>
  <time>2026-09-01T01:18:12Z</time>
  <course>186.86</course>
  <speed>0.022360679774997897</speed>
  <fix>3d</fix>
</trkpt>
<trkpt lat="33.810313" lon="-118.393867">
  <ele>-0.12</ele>
  <time>2026-09-01T01:18:12Z</time>
  <course>0.0</course>
  <speed>0.0</speed>
  <fix>3d</fix>
</trkpt>
<trkpt lat="33.8103131" lon="-118.3938671">
  <ele>-0.114</ele>
  <time>2026-09-01T01:18:12Z</time>
  <course>186.85</course>
  <speed>0.022360679774997897</speed>
  <fix>3d</fix>
</trkpt>
<trkpt lat="33.810313" lon="-118.393867">
  <ele>-0.12</ele>
  <time>2026-09-01T01:18:12Z</time>
  <course>0.0</course>
  <speed>0.0</speed>
  <fix>3d</fix>
</trkpt>
<trkpt lat="33.8103131" lon="-118.3938671">
  <ele>-0.112</ele>
  <time>2026-09-01T01:18:12Z</time>
  <course>186.85</course>
  <speed>0.022360679774997897</speed>
  <fix>3d</fix>
</trkpt>
<trkpt lat="33.810313" lon="-118.393867">
  <ele>-0.12</ele>
  <time>2026-09-01T01:18:12Z</time>
  <course>0.0</course>
  <speed>0.0</speed>
  <fix>3d</fix>
</trkpt>
<trkpt lat="33.8103131" lon="-118.3938671">
  <ele>-0.11</ele>
  <time>2026-09-01T01:18:12Z</time>
  <course>186.85</course>
  <speed>0.022360679774997897</speed>
  <fix>3d</fix>
</trkpt>
<trkpt lat="33.810313" lon="-118.393867">
  <ele>-0.12</ele>
  <time>2026-09-01T01:18:12Z</time>
  <course>0.0</course>
  <speed>0.0</speed>
  <fix>3d</fix>
</trkpt>
<trkpt lat="33.8103131" lon="-118.3938671">
  <ele>-0.108</ele>
  <time>2026-09-01T01:18:12Z</time>
  <course>186.84</course>
  <speed>0.022360679774997897</speed>
  <fix>3d</fix>
</trkpt>
<trkpt lat="33.810313" lon="-118.393867">
  <ele>-0.12</ele>
  <time>2026-09-01T01:18:12Z</time>
  <course>0.0</course>
  <speed>0.0</speed>
  <fix>3d</fix>
</trkpt>
<trkpt lat="33.8103131" lon="-118.3938671">
  <ele>-0.107</ele>
  <time>2026-09-01T01:18:12Z</time>
  <course>186.84</course>
  <speed>0.022360679774997897</speed>
  <fix>3d</fix>
</trkpt>
<trkpt lat="33.810313" lon="-118.393867">
  <ele>-0.12</ele>
  <time>2026-09-01T01:18:12Z</time>
  <course>0.0</course>
  <speed>0.0</speed>
  <fix>3d</fix>
</trkpt>
<trkpt lat="33.8103131" lon="-118.3938671">
  <ele>-0.107</ele>
  <time>2026-09-01T01:18:12Z</time>
  <course>186.84</course>
  <speed>0.022360679774997897</speed>
  <fix>3d</fix>
</trkpt>
<trkpt lat="33.810313" lon="-118.393867">
  <ele>-0.12</ele>
  <time>2026-09-01T01:18:12Z</time>
  <course>0.0</course>
  <speed>0.0</speed>
  <fix>3d</fix>
</trkpt>
<trkpt lat="33.8103131" lon="-118.3938671">
  <ele>-0.107</ele>
  <time>2026-09-01T01:18:12Z</time>
  <course>186.83</course>
  <speed>0.022360679774997897</speed>
  <fix>3d</fix>
</trkpt>
<trkpt lat="33.810313" lon="-118.393867">
  <ele>-0.12</ele>
  <time>2026-09-01T01:18:12Z</time>
  <course>0.0</course>
  <speed>0.0</speed>
  <fix>3d</fix>
</trkpt>
<trkpt lat="33.8103131" lon="-118.3938671">
  <ele>-0.109</ele>
  <time>2026-09-01T01:18:12Z</time>
  <course>186.83</course>
  <speed>0.022360679774997897</speed>
  <fix>3d</fix>
</trkpt>
<trkpt lat="33.810313" lon="-118.393867">
  <ele>-0.12</ele>
  <time>2026-09-01T01:18:12Z</time>
  <course>0.0</course>
  <speed>0.0</speed>
  <fix>3d</fix>
</trkpt>
<trkpt lat="33.8103131" lon="-118.3938671">
  <ele>-0.111</ele>
  <time>2026-09-01T01:18:12Z</time>
  <course>186.83</course>
  <speed>0.022360679774997897</speed>
  <fix>3d</fix>
</trkpt>
<trkpt lat="33.810313" lon="-118.393867">
  <ele>-0.12</ele>
  <time>2026-09-01T01:18:12Z</time>
  <course>0.0</course>
  <speed>0.0</speed>
  <fix>3d</fix>
</trkpt>
<trkpt lat="33.8103131" lon="-118.3938671">
  <ele>-0.112</ele>
  <time>2026-09-01T01:18:12Z</time>
  <course>186.82</course>
  <speed>0.022360679774997897</speed>
  <fix>3d</fix>
</trkpt>
<trkpt lat="33.810313" lon="-118.393867">
  <ele>-0.12</ele>
  <time>2026-09-01T01:18:12Z</time>
  <course>0.0</course>
  <speed>0.0</speed>
  <fix>3d</fix>
</trkpt>
<trkpt lat="33.8103131" lon="-118.3938671">
  <ele>-0.112</ele>
  <time>2026-09-01T01:18:12Z</time>
  <course>186.82</course>
  <speed>0.022360679774997897</speed>
  <fix>3d</fix>
</trkpt>
<trkpt lat="33.810313" lon="-118.393867">
  <ele>-0.12</ele>
  <time>2026-09-01T01:18:12Z</time>
  <course>0.0</course>
  <speed>0.0</speed>
  <fix>3d</fix>
</trkpt>
<trkpt lat="33.8103131" lon="-118.3938671">
  <ele>-0.111</ele>
  <time>2026-09-01T01:18:12Z</time>
  <course>186.82</course>
  <speed>0.022360679774997897</speed>
  <fix>3d</fix>
</trkpt>
<trkpt lat="33.810313" lon="-118.393867">
  <ele>-0.12</ele>
  <time>2026-09-01T01:18:12Z</time>
  <course>0.0</course>
  <speed>0.0</speed>
  <fix>3d</fix>
</trkpt>
<trkpt lat="33.8103131" lon="-118.3938671">
  <ele>-0.111</ele>
  <time>2026-09-01T01:18:12Z</time>
  <course>186.81</course>
  <speed>0.022360679774997897</speed>
  <fix>3d</fix>
</trkpt>
<trkpt lat="33.810313" lon="-118.393867">
  <ele>-0.12</ele>
  <time>2026-09-01T01:18:12Z</time>
  <course>0.0</course>
  <speed>0.0</speed>
  <fix>3d</fix>
</trkpt>
<trkpt lat="33.8103131" lon="-118.3938671">
  <ele>-0.11</ele>
  <time>2026-09-01T01:18:12Z</time>
  <course>186.81</course>
  <speed>0.01414213562373095</speed>
  <fix>3d</fix>
</trkpt>
<trkpt lat="33.810313" lon="-118.393867">
  <ele>-0.12</ele>
  <time>2026-09-01T01:18:12Z</time>
  <course>0.0</course>
  <speed>0.0</speed>
  <fix>3d</fix>
</trkpt>
<trkpt lat="33.8103131" lon="-118.3938671">
  <ele>-0.111</ele>
  <time>2026-09-01T01:18:12Z</time>
  <course>186.81</course>
  <speed>0.01414213562373095</speed>
  <fix>3d</fix>
</trkpt>
<trkpt lat="33.810313" lon="-118.393867">
  <ele>-0.12</ele>
  <time>2026-09-01T01:18:12Z</time>
  <course>0.0</course>
  <speed>0.0</speed>
  <fix>3d</fix>
</trkpt>
<trkpt lat="33.8103131" lon="-118.3938671">
  <ele>-0.112</ele>
  <time>2026-09-01T01:18:12Z</time>
  <course>186.81</course>
  <speed>0.01414213562373095</speed>
  <fix>3d</fix>
</trkpt>
<trkpt lat="33.810313" lon="-118.393867">
  <ele>-0.12</ele>
  <time>2026-09-01T01:18:12Z</time>
  <course>0.0</course>
  <speed>0.0</speed>
  <fix>3d</fix>
</trkpt>
<trkpt lat="33.8103131" lon="-118.3938671">
  <ele>-0.114</ele>
  <time>2026-09-01T01:18:12Z</time>
  <course>186.8</course>
  <speed>0.01414213562373095</speed>
  <fix>3d</fix>
</trkpt>
<trkpt lat="33.810313" lon="-118.393867">
  <ele>-0.12</ele>
  <time>2026-09-01T01:18:12Z</time>
  <course>0.0</course>
  <speed>0.0</speed>
  <fix>3d</fix>
</trkpt>
<trkpt lat="33.8103131" lon="-118.3938671">
  <ele>-0.116</ele>
  <time>2026-09-01T01:18:12Z</time>
  <course>186.8</course>
  <speed>0.01414213562373095</speed>
  <fix>3d</fix>
</trkpt>
<trkpt lat="33.810313" lon="-118.393867">
  <ele>-0.12</ele>
  <time>2026-09-01T01:18:12Z</time>
  <course>0.0</course>
  <speed>0.0</speed>
  <fix>3d</fix>
</trkpt>
<trkpt lat="33.8103131" lon="-118.3938671">
  <ele>-0.117</ele>
  <time>2026-09-01T01:18:12Z</time>
  <course>186.8</course>
  <speed>0.01414213562373095</speed>
  <fix>3d</fix>
</trkpt>
<trkpt lat="33.810313" lon="-118.393867">
  <ele>-0.12</ele>
  <time>2026-09-01T01:18:12Z</time>
  <course>0.0</course>
  <speed>0.0</speed>
  <fix>3d</fix>
</trkpt>
<trkpt lat="33.8103131" lon="-118.3938671">
  <ele>-0.118</ele>
  <time>2026-09-01T01:18:12Z</time>
  <course>186.79</course>
  <speed>0.01414213562373095</speed>
  <fix>3d</fix>
</trkpt>
<trkpt lat="33.810313" lon="-118.393867">
  <ele>-0.12</ele>
  <time>2026-09-01T01:18:12Z</time>
  <course>0.0</course>
  <speed>0.0</speed>
  <fix>3d</fix>
</trkpt>
<trkpt lat="33.8103131" lon="-118.3938671">
  <ele>-0.119</ele>
  <time>2026-09-01T01:18:12Z</time>
  <course>186.79</course>
  <speed>0.01414213562373095</speed>
  <fix>3d</fix>
</trkpt>
<trkpt lat="33.810313" lon="-118.393867">
  <ele>-0.12</ele>
  <time>2026-09-01T01:18:12Z</time>
  <course>0.0</course>
  <speed>0.0</speed>
  <fix>3d</fix>
</trkpt>
<trkpt lat="33.8103131" lon="-118.3938671">
  <ele>-0.12</ele>
  <time>2026-09-01T01:18:12Z</time>
  <course>186.79</course>
  <speed>0.01414213562373095</speed>
  <fix>3d</fix>
</trkpt>
<trkpt lat="33.810313" lon="-118.393867">
  <ele>-0.12</ele>
  <time>2026-09-01T01:18:12Z</time>
  <course>0.0</course>
  <speed>0.0</speed>
  <fix>3d</fix>
</trkpt>
<trkpt lat="33.8103131" lon="-118.3938671">
  <ele>-0.121</ele>
  <time>2026-09-01T01:18:12Z</time>
  <course>186.79</course>
  <speed>0.01414213562373095</speed>
  <fix>3d</fix>
</trkpt>
<trkpt lat="33.810313" lon="-118.393867">
  <ele>-0.12</ele>
  <time>2026-09-01T01:18:12Z</time>
  <course>0.0</course>
  <speed>0.0</speed>
  <fix>3d</fix>
</trkpt>
<trkpt lat="33.8103131" lon="-118.3938671">
  <ele>-0.121</ele>
  <time>2026-09-01T01:18:12Z</time>
  <course>186.78</course>
  <speed>0.01414213562373095</speed>
  <fix>3d</fix>
</trkpt>
<trkpt lat="33.810313" lon="-118.393867">
  <ele>-0.12</ele>
  <time>2026-09-01T01:18:12Z</time>
  <course>0.0</course>
  <speed>0.0</speed>
  <fix>3d</fix>
</trkpt>
<trkpt lat="33.8103131" lon="-118.3938671">
  <ele>-0.121</ele>
  <time>2026-09-01T01:18:12Z</time>
  <course>186.78</course>
  <speed>0.01414213562373095</speed>
  <fix>3d</fix>
</trkpt>
<trkpt lat="33.810313" lon="-118.393867">
  <ele>-0.12</ele>
  <time>2026-09-01T01:18:12Z</time>
  <course>0.0</course>
  <speed>0.0</speed>
  <fix>3d</fix>
</trkpt>
<trkpt lat="33.8103131" lon="-118.3938671">
  <ele>-0.121</ele>
  <time>2026-09-01T01:18:12Z</time>
  <course>186.78</course>
  <speed>0.022360679774997897</speed>
  <fix>3d</fix>
</trkpt>
<trkpt lat="33.810313" lon="-118.393867">
  <ele>-0.12</ele>
  <time>2026-09-01T01:18:12Z</time>
  <course>0.0</course>
  <speed>0.0</speed>
  <fix>3d</fix>
</trkpt>
<trkpt lat="33.8103131" lon="-118.3938671">
  <ele>-0.122</ele>
  <time>2026-09-01T01:18:12Z</time>
  <course>186.77</course>
  <speed>0.022360679774997897</speed>
  <fix>3d</fix>
</trkpt>
<trkpt lat="33.810313" lon="-118.393867">
  <ele>-0.12</ele>
  <time>2026-09-01T01:18:12Z</time>
  <course>0.0</course>
  <speed>0.0</speed>
  <fix>3d</fix>
</trkpt>
<trkpt lat="33.8103131" lon="-118.3938671">
  <ele>-0.122</ele>
  <time>2026-09-01T01:18:12Z</time>
  <course>186.77</course>
  <speed>0.022360679774997897</speed>
  <fix>3d</fix>
</trkpt>
<trkpt lat="33.810313" lon="-118.393867">
  <ele>-0.12</ele>
  <time>2026-09-01T01:18:12Z</time>
  <course>0.0</course>
  <speed>0.0</speed>
  <fix>3d</fix>
</trkpt>
<trkpt lat="33.8103131" lon="-118.3938671">
  <ele>-0.122</ele>
  <time>2026-09-01T01:18:12Z</time>
  <course>186.77</course>
  <speed>0.022360679774997897</speed>
  <fix>3d</fix>
</trkpt>
<trkpt lat="33.810313" lon="-118.393867">
  <ele>-0.12</ele>
  <time>2026-09-01T01:18:12Z</time>
  <course>0.0</course>
  <speed>0.0</speed>
  <fix>3d</fix>
</trkpt>
<trkpt lat="33.8103131" lon="-118.3938671">
  <ele>-0.121</ele>
  <time>2026-09-01T01:18:12Z</time>
  <course>186.77</course>
  <speed>0.022360679774997897</speed>
  <fix>3d</fix>
</trkpt>
<trkpt lat="33.810313" lon="-118.393867">
  <ele>-0.12</ele>
  <time>2026-09-01T01:18:12Z</time>
  <course>0.0</course>
  <speed>0.0</speed>
  <fix>3d</fix>
</trkpt>
<trkpt lat="33.8103131" lon="-118.3938671">
  <ele>-0.119</ele>
  <time>2026-09-01T01:18:12Z</time>
  <course>186.76</course>
  <speed>0.022360679774997897</speed>
  <fix>3d</fix>
</trkpt>
<trkpt lat="33.810313" lon="-118.393867">
  <ele>-0.12</ele>
  <time>2026-09-01T01:18:12Z</time>
  <course>0.0</course>
  <speed>0.0</speed>
  <fix>3d</fix>
</trkpt>
<trkpt lat="33.8103131" lon="-118.3938671">
  <ele>-0.117</ele>
  <time>2026-09-01T01:18:12Z</time>
  <course>186.76</course>
  <speed>0.022360679774997897</speed>
  <fix>3d</fix>
</trkpt>
<trkpt lat="33.810313" lon="-118.393867">
  <ele>-0.12</ele>
  <time>2026-09-01T01:18:12Z</time>
  <course>0.0</course>
  <speed>0.0</speed>
  <fix>3d</fix>
</trkpt>
<trkpt lat="33.8103131" lon="-118.3938671">
  <ele>-0.115</ele>
  <time>2026-09-01T01:18:12Z</time>
  <course>186.76</course>
  <speed>0.022360679774997897</speed>
  <fix>3d</fix>
</trkpt>
<trkpt lat="33.810313" lon="-118.393867">
  <ele>-0.12</ele>
  <time>2026-09-01T01:18:12Z</time>
  <course>0.0</course>
  <speed>0.0</speed>
  <fix>3d</fix>
</trkpt>
<trkpt lat="33.8103131" lon="-118.3938671">
  <ele>-0.114</ele>
  <time>2026-09-01T01:18:12Z</time>
  <course>186.75</course>
  <speed>0.022360679774997897</speed>
  <fix>3d</fix>
</trkpt>
<trkpt lat="33.810313" lon="-118.393867">
  <ele>-0.12</ele>
  <time>2026-09-01T01:18:12Z</time>
  <course>0.0</course>
  <speed>0.0</speed>
  <fix>3d</fix>
</trkpt>
<trkpt lat="33.8103131" lon="-118.3938671">
  <ele>-0.114</ele>
  <time>2026-09-01T01:18:12Z</time>
  <course>186.75</course>
  <speed>0.022360679774997897</speed>
  <fix>3d</fix>
</trkpt>
<trkpt lat="33.810313" lon="-118.393867">
  <ele>-0.12</ele>
  <time>2026-09-01T01:18:12Z</time>
  <course>0.0</course>
  <speed>0.0</speed>
  <fix>3d</fix>
</trkpt>
<trkpt lat="33.8103131" lon="-118.3938671">
  <ele>-0.115</ele>
  <time>2026-09-01T01:18:12Z</time>
  <course>186.75</course>
  <speed>0.022360679774997897</speed>
  <fix>3d</fix>
</trkpt>
<trkpt lat="33.810313" lon="-118.393867">
  <ele>-0.12</ele>
  <time>2026-09-01T01:18:12Z</time>
  <course>0.0</course>
  <speed>0.0</speed>
  <fix>3d</fix>
</trkpt>
<trkpt lat="33.8103131" lon="-118.3938671">
  <ele>-0.117</ele>
  <time>2026-09-01T01:18:12Z</time>
  <course>186.75</course>
  <speed>0.022360679774997897</speed>
  <fix>3d</fix>
</trkpt>
<trkpt lat="33.810313" lon="-118.393867">
  <ele>-0.12</ele>
  <time>2026-09-01T01:18:12Z</time>
  <course>0.0</course>
  <speed>0.0</speed>
  <fix>3d</fix>
</trkpt>
<trkpt lat="33.8103131" lon="-118.3938671">
  <ele>-0.118</ele>
  <time>2026-09-01T01:18:12Z</time>
  <course>186.74</course>
  <speed>0.022360679774997897</speed>
  <fix>3d</fix>
</trkpt>
<trkpt lat="33.810313" lon="-118.393867">
  <ele>-0.12</ele>
  <time>2026-09-01T01:18:12Z</time>
  <course>0.0</course>
  <speed>0.0</speed>
  <fix>3d</fix>
</trkpt>
<trkpt lat="33.8103131" lon="-118.3938671">
  <ele>-0.119</ele>
  <time>2026-09-01T01:18:12Z</time>
  <course>186.74</course>
  <speed>0.022360679774997897</speed>
  <fix>3d</fix>
</trkpt>
<trkpt lat="33.810313" lon="-118.393867">
  <ele>-0.12</ele>
  <time>2026-09-01T01:18:12Z</time>
  <course>0.0</course>
  <speed>0.0</speed>
  <fix>3d</fix>
</trkpt>
<trkpt lat="33.8103131" lon="-118.3938671">
  <ele>-0.12</ele>
  <time>2026-09-01T01:18:12Z</time>
  <course>186.74</course>
  <speed>0.022360679774997897</speed>
  <fix>3d</fix>
</trkpt>
<trkpt lat="33.810313" lon="-118.393867">
  <ele>-0.12</ele>
  <time>2026-09-01T01:18:12Z</time>
  <course>0.0</course>
  <speed>0.0</speed>
  <fix>3d</fix>
</trkpt>
<trkpt lat="33.8103131" lon="-118.3938671">
  <ele>-0.121</ele>
  <time>2026-09-01T01:18:12Z</time>
  <course>186.74</course>
  <speed>0.022360679774997897</speed>
  <fix>3d</fix>
</trkpt>
<trkpt lat="33.810313" lon="-118.393867">
  <ele>-0.12</ele>
  <time>2026-09-01T01:18:12Z</time>
  <course>0.0</course>
  <speed>0.0</speed>
  <fix>3d</fix>
</trkpt>
<trkpt lat="33.8103131" lon="-118.3938671">
  <ele>-0.121</ele>
  <time>2026-09-01T01:18:12Z</time>
  <course>186.73</course>
  <speed>0.022360679774997897</speed>
  <fix>3d</fix>
</trkpt>
<trkpt lat="33.810313" lon="-118.393867">
  <ele>-0.12</ele>
  <time>2026-09-01T01:18:12Z</time>
  <course>0.0</course>
  <speed>0.0</speed>
  <fix>3d</fix>
</trkpt>
<trkpt lat="33.8103131" lon="-118.3938671">
  <ele>-0.121</ele>
  <time>2026-09-01T01:18:12Z</time>
  <course>186.73</course>
  <speed>0.022360679774997897</speed>
  <fix>3d</fix>
</trkpt>
<trkpt lat="33.810313" lon="-118.393867">
  <ele>-0.12</ele>
  <time>2026-09-01T01:18:12Z</time>
  <course>0.0</course>
  <speed>0.0</speed>
  <fix>3d</fix>
</trkpt>
<trkpt lat="33.8103131" lon="-118.3938671">
  <ele>-0.119</ele>
  <time>2026-09-01T01:18:12Z</time>
  <course>186.73</course>
  <speed>0.022360679774997897</speed>
  <fix>3d</fix>
</trkpt>
<trkpt lat="33.810313" lon="-118.393867">
  <ele>-0.12</ele>
  <time>2026-09-01T01:18:12Z</time>
  <course>0.0</course>
  <speed>0.0</speed>
  <fix>3d</fix>
</trkpt>
<trkpt lat="33.8103131" lon="-118.3938671">
  <ele>-0.117</ele>
  <time>2026-09-01T01:18:12Z</time>
  <course>186.73</course>
  <speed>0.022360679774997897</speed>
  <fix>3d</fix>
</trkpt>
<trkpt lat="33.810313" lon="-118.393867">
  <ele>-0.12</ele>
  <time>2026-09-01T01:18:12Z</time>
  <course>0.0</course>
  <speed>0.0</speed>
  <fix>3d</fix>
</trkpt>
<trkpt lat="33.8103131" lon="-118.3938671">
  <ele>-0.116</ele>
  <time>2026-09-01T01:18:12Z</time>
  <course>186.72</course>
  <speed>0.022360679774997897</speed>
  <fix>3d</fix>
</trkpt>
<trkpt lat="33.810313" lon="-118.393867">
  <ele>-0.12</ele>
  <time>2026-09-01T01:18:12Z</time>
  <course>0.0</course>
  <speed>0.0</speed>
  <fix>3d</fix>
</trkpt>
<trkpt lat="33.8103131" lon="-118.3938671">
  <ele>-0.116</ele>
  <time>2026-09-01T01:18:12Z</time>
  <course>186.72</course>
  <speed>0.022360679774997897</speed>
  <fix>3d</fix>
</trkpt>
<trkpt lat="33.810313" lon="-118.393867">
  <ele>-0.12</ele>
  <time>2026-09-01T01:18:12Z</time>
  <course>0.0</course>
  <speed>0.0</speed>
  <fix>3d</fix>
</trkpt>
<trkpt lat="33.8103131" lon="-118.3938671">
  <ele>-0.116</ele>
  <time>2026-09-01T01:18:12Z</time>
  <course>186.72</course>
  <speed>0.022360679774997897</speed>
  <fix>3d</fix>
</trkpt>
<trkpt lat="33.810313" lon="-118.393867">
  <ele>-0.12</ele>
  <time>2026-09-01T01:18:12Z</time>
  <course>0.0</course>
  <speed>0.0</speed>
  <fix>3d</fix>
</trkpt>
<trkpt lat="33.8103131" lon="-118.3938671">
  <ele>-0.116</ele>
  <time>2026-09-01T01:18:12Z</time>
  <course>186.72</course>
  <speed>0.022360679774997897</speed>
  <fix>3d</fix>
</trkpt>
<trkpt lat="33.810313" lon="-118.393867">
  <ele>-0.12</ele>
  <time>2026-09-01T01:18:12Z</time>
  <course>0.0</course>
  <speed>0.0</speed>
  <fix>3d</fix>
</trkpt>
<trkpt lat="33.8103131" lon="-118.3938671">
  <ele>-0.116</ele>
  <time>2026-09-01T01:18:12Z</time>
  <course>186.71</course>
  <speed>0.022360679774997897</speed>
  <fix>3d</fix>
</trkpt>
<trkpt lat="33.810313" lon="-118.393867">
  <ele>-0.12</ele>
  <time>2026-09-01T01:18:12Z</time>
  <course>0.0</course>
  <speed>0.0</speed>
  <fix>3d</fix>
</trkpt>
<trkpt lat="33.8103131" lon="-118.3938671">
  <ele>-0.115</ele>
  <time>2026-09-01T01:18:12Z</time>
  <course>186.71</course>
  <speed>0.022360679774997897</speed>
  <fix>3d</fix>
</trkpt>
<trkpt lat="33.810313" lon="-118.393867">
  <ele>-0.12</ele>
  <time>2026-09-01T01:18:12Z</time>
  <course>0.0</course>
  <speed>0.0</speed>
  <fix>3d</fix>
</trkpt>
<trkpt lat="33.8103131" lon="-118.3938671">
  <ele>-0.114</ele>
  <time>2026-09-01T01:18:12Z</time>
  <course>186.71</course>
  <speed>0.022360679774997897</speed>
  <fix>3d</fix>
</trkpt>
<trkpt lat="33.810313" lon="-118.393867">
  <ele>-0.12</ele>
  <time>2026-09-01T01:18:12Z</time>
  <course>0.0</course>
  <speed>0.0</speed>
  <fix>3d</fix>
</trkpt>
<trkpt lat="33.8103131" lon="-118.3938671">
  <ele>-0.113</ele>
  <time>2026-09-01T01:18:12Z</time>
  <course>186.71</course>
  <speed>0.022360679774997897</speed>
  <fix>3d</fix>
</trkpt>
<trkpt lat="33.810313" lon="-118.393867">
  <ele>-0.12</ele>
  <time>2026-09-01T01:18:12Z</time>
  <course>0.0</course>
  <speed>0.0</speed>
  <fix>3d</fix>
</trkpt>
<trkpt lat="33.8103131" lon="-118.3938671">
  <ele>-0.112</ele>
  <time>2026-09-01T01:18:12Z</time>
  <course>186.7</course>
  <speed>0.022360679774997897</speed>
  <fix>3d</fix>
</trkpt>
<trkpt lat="33.810313" lon="-118.393867">
  <ele>-0.12</ele>
  <time>2026-09-01T01:18:12Z</time>
  <course>0.0</course>
  <speed>0.0</speed>
  <fix>3d</fix>
</trkpt>
<trkpt lat="33.8103131" lon="-118.3938671">
  <ele>-0.112</ele>
  <time>2026-09-01T01:18:12Z</time>
  <course>186.7</course>
  <speed>0.022360679774997897</speed>
  <fix>3d</fix>
</trkpt>
<trkpt lat="33.810313" lon="-118.393867">
  <ele>-0.12</ele>
  <time>2026-09-01T01:18:12Z</time>
  <course>0.0</course>
  <speed>0.0</speed>
  <fix>3d</fix>
</trkpt>
<trkpt lat="33.8103131" lon="-118.3938671">
  <ele>-0.112</ele>
  <time>2026-09-01T01:18:12Z</time>
  <course>186.7</course>
  <speed>0.022360679774997897</speed>
  <fix>3d</fix>
</trkpt>
<trkpt lat="33.810313" lon="-118.393867">
  <ele>-0.12</ele>
  <time>2026-09-01T01:18:12Z</time>
  <course>0.0</course>
  <speed>0.0</speed>
  <fix>3d</fix>
</trkpt>
<trkpt lat="33.8103131" lon="-118.3938671">
  <ele>-0.113</ele>
  <time>2026-09-01T01:18:12Z</time>
  <course>186.69</course>
  <speed>0.022360679774997897</speed>
  <fix>3d</fix>
</trkpt>
<trkpt lat="33.810313" lon="-118.393867">
  <ele>-0.12</ele>
  <time>2026-09-01T01:18:12Z</time>
  <course>0.0</course>
  <speed>0.0</speed>
  <fix>3d</fix>
</trkpt>
<trkpt lat="33.8103131" lon="-118.3938671">
  <ele>-0.113</ele>
  <time>2026-09-01T01:18:12Z</time>
  <course>186.69</course>
  <speed>0.022360679774997897</speed>
  <fix>3d</fix>
</trkpt>
<trkpt lat="33.810313" lon="-118.393867">
  <ele>-0.12</ele>
  <time>2026-09-01T01:18:12Z</time>
  <course>0.0</course>
  <speed>0.0</speed>
  <fix>3d</fix>
</trkpt>
<trkpt lat="33.8103131" lon="-118.3938671">
  <ele>-0.114</ele>
  <time>2026-09-01T01:18:12Z</time>
  <course>186.69</course>
  <speed>0.022360679774997897</speed>
  <fix>3d</fix>
</trkpt>
<trkpt lat="33.810313" lon="-118.393867">
  <ele>-0.12</ele>
  <time>2026-09-01T01:18:12Z</time>
  <course>0.0</course>
  <speed>0.0</speed>
  <fix>3d</fix>
</trkpt>
<trkpt lat="33.8103131" lon="-118.3938671">
  <ele>-0.115</ele>
  <time>2026-09-01T01:18:12Z</time>
  <course>186.69</course>
  <speed>0.022360679774997897</speed>
  <fix>3d</fix>
</trkpt>
<trkpt lat="33.810313" lon="-118.393867">
  <ele>-0.12</ele>
  <time>2026-09-01T01:18:12Z</time>
  <course>0.0</course>
  <speed>0.0</speed>
  <fix>3d</fix>
</trkpt>
<trkpt lat="33.8103131" lon="-118.3938671">
  <ele>-0.116</ele>
  <time>2026-09-01T01:18:12Z</time>
  <course>186.68</course>
  <speed>0.022360679774997897</speed>
  <fix>3d</fix>
</trkpt>
<trkpt lat="33.810313" lon="-118.393867">
  <ele>-0.12</ele>
  <time>2026-09-01T01:18:12Z</time>
  <course>0.0</course>
  <speed>0.0</speed>
  <fix>3d</fix>
</trkpt>
<trkpt lat="33.8103131" lon="-118.3938671">
  <ele>-0.116</ele>
  <time>2026-09-01T01:18:12Z</time>
  <course>186.68</course>
  <speed>0.022360679774997897</speed>
  <fix>3d</fix>
</trkpt>
<trkpt lat="33.810313" lon="-118.393867">
  <ele>-0.12</ele>
  <time>2026-09-01T01:18:12Z</time>
  <course>0.0</course>
  <speed>0.0</speed>
  <fix>3d</fix>
</trkpt>
<trkpt lat="33.8103131" lon="-118.3938671">
  <ele>-0.116</ele>
  <time>2026-09-01T01:18:12Z</time>
  <course>186.68</course>
  <speed>0.022360679774997897</speed>
  <fix>3d</fix>
</trkpt>
<trkpt lat="33.810313" lon="-118.393867">
  <ele>-0.12</ele>
  <time>2026-09-01T01:18:12Z</time>
  <course>0.0</course>
  <speed>0.0</speed>
  <fix>3d</fix>
</trkpt>
<trkpt lat="33.8103131" lon="-118.3938671">
  <ele>-0.115</ele>
  <time>2026-09-01T01:18:12Z</time>
  <course>186.68</course>
  <speed>0.022360679774997897</speed>
  <fix>3d</fix>
</trkpt>
<trkpt lat="33.810313" lon="-118.393867">
  <ele>-0.12</ele>
  <time>2026-09-01T01:18:12Z</time>
  <course>0.0</course>
  <speed>0.0</speed>
  <fix>3d</fix>
</trkpt>
<trkpt lat="33.8103131" lon="-118.3938671">
  <ele>-0.115</ele>
  <time>2026-09-01T01:18:12Z</time>
  <course>186.68</course>
  <speed>0.022360679774997897</speed>
  <fix>3d</fix>
</trkpt>
<trkpt lat="33.810313" lon="-118.393867">
  <ele>-0.12</ele>
  <time>2026-09-01T01:18:12Z</time>
  <course>0.0</course>
  <speed>0.0</speed>
  <fix>3d</fix>
</trkpt>
<trkpt lat="33.8103131" lon="-118.3938671">
  <ele>-0.116</ele>
  <time>2026-09-01T01:18:12Z</time>
  <course>186.67</course>
  <speed>0.022360679774997897</speed>
  <fix>3d</fix>
</trkpt>
<trkpt lat="33.810313" lon="-118.393867">
  <ele>-0.12</ele>
  <time>2026-09-01T01:18:12Z</time>
  <course>0.0</course>
  <speed>0.0</speed>
  <fix>3d</fix>
</trkpt>
<trkpt lat="33.8103131" lon="-118.3938671">
  <ele>-0.117</ele>
  <time>2026-09-01T01:18:12Z</time>
  <course>186.67</course>
  <speed>0.022360679774997897</speed>
  <fix>3d</fix>
</trkpt>
<trkpt lat="33.810313" lon="-118.393867">
  <ele>-0.12</ele>
  <time>2026-09-01T01:18:12Z</time>
  <course>0.0</course>
  <speed>0.0</speed>
  <fix>3d</fix>
</trkpt>
<trkpt lat="33.8103131" lon="-118.3938671">
  <ele>-0.118</ele>
  <time>2026-09-01T01:18:12Z</time>
  <course>186.67</course>
  <speed>0.022360679774997897</speed>
  <fix>3d</fix>
</trkpt>
<trkpt lat="33.810313" lon="-118.393867">
  <ele>-0.12</ele>
  <time>2026-09-01T01:18:12Z</time>
  <course>0.0</course>
  <speed>0.0</speed>
  <fix>3d</fix>
</trkpt>
<trkpt lat="33.8103131" lon="-118.3938671">
  <ele>-0.118</ele>
  <time>2026-09-01T01:18:12Z</time>
  <course>186.67</course>
  <speed>0.022360679774997897</speed>
  <fix>3d</fix>
</trkpt>
<trkpt lat="33.810313" lon="-118.393867">
  <ele>-0.12</ele>
  <time>2026-09-01T01:18:12Z</time>
  <course>0.0</course>
  <speed>0.0</speed>
  <fix>3d</fix>
</trkpt>
<trkpt lat="33.8103131" lon="-118.3938671">
  <ele>-0.118</ele>
  <time>2026-09-01T01:18:12Z</time>
  <course>186.66</course>
  <speed>0.022360679774997897</speed>
  <fix>3d</fix>
</trkpt>
<trkpt lat="33.810313" lon="-118.393867">
  <ele>-0.12</ele>
  <time>2026-09-01T01:18:12Z</time>
  <course>0.0</course>
  <speed>0.0</speed>
  <fix>3d</fix>
</trkpt>
<trkpt lat="33.8103131" lon="-118.3938671">
  <ele>-0.118</ele>
  <time>2026-09-01T01:18:12Z</time>
  <course>186.66</course>
  <speed>0.022360679774997897</speed>
  <fix>3d</fix>
</trkpt>
<trkpt lat="33.810313" lon="-118.393867">
  <ele>-0.12</ele>
  <time>2026-09-01T01:18:12Z</time>
  <course>0.0</course>
  <speed>0.0</speed>
  <fix>3d</fix>
</trkpt>
<trkpt lat="33.8103131" lon="-118.3938671">
  <ele>-0.118</ele>
  <time>2026-09-01T01:18:12Z</time>
  <course>186.66</course>
  <speed>0.022360679774997897</speed>
  <fix>3d</fix>
</trkpt>
<trkpt lat="33.810313" lon="-118.393867">
  <ele>-0.12</ele>
  <time>2026-09-01T01:18:12Z</time>
  <course>0.0</course>
  <speed>0.0</speed>
  <fix>3d</fix>
</trkpt>
<trkpt lat="33.8103131" lon="-118.3938671">
  <ele>-0.117</ele>
  <time>2026-09-01T01:18:12Z</time>
  <course>186.66</course>
  <speed>0.022360679774997897</speed>
  <fix>3d</fix>
</trkpt>
<trkpt lat="33.810313" lon="-118.393867">
  <ele>-0.12</ele>
  <time>2026-09-01T01:18:12Z</time>
  <course>0.0</course>
  <speed>0.0</speed>
  <fix>3d</fix>
</trkpt>
<trkpt lat="33.8103131" lon="-118.3938671">
  <ele>-0.117</ele>
  <time>2026-09-01T01:18:12Z</time>
  <course>186.65</course>
  <speed>0.022360679774997897</speed>
  <fix>3d</fix>
</trkpt>
<trkpt lat="33.810313" lon="-118.393867">
  <ele>-0.12</ele>
  <time>2026-09-01T01:18:12Z</time>
  <course>0.0</course>
  <speed>0.0</speed>
  <fix>3d</fix>
</trkpt>
<trkpt lat="33.8103131" lon="-118.3938671">
  <ele>-0.116</ele>
  <time>2026-09-01T01:18:12Z</time>
  <course>186.65</course>
  <speed>0.022360679774997897</speed>
  <fix>3d</fix>
</trkpt>
<trkpt lat="33.810313" lon="-118.393867">
  <ele>-0.12</ele>
  <time>2026-09-01T01:18:12Z</time>
  <course>0.0</course>
  <speed>0.0</speed>
  <fix>3d</fix>
</trkpt>
<trkpt lat="33.8103131" lon="-118.3938671">
  <ele>-0.135</ele>
  <time>2026-09-01T01:18:12Z</time>
  <course>186.65</course>
  <speed>0.022360679774997897</speed>
  <fix>3d</fix>
</trkpt>
<trkpt lat="33.810313" lon="-118.393867">
  <ele>-0.12</ele>
  <time>2026-09-01T01:18:12Z</time>
  <course>0.0</course>
  <speed>0.0</speed>
  <fix>3d</fix>
</trkpt>
<trkpt lat="33.8103131" lon="-118.3938671">
  <ele>-0.161</ele>
  <time>2026-09-01T01:18:12Z</time>
  <course>186.65</course>
  <speed>0.022360679774997897</speed>
  <fix>3d</fix>
</trkpt>
<trkpt lat="33.810313" lon="-118.393867">
  <ele>-0.13</ele>
  <time>2026-09-01T01:18:12Z</time>
  <course>95.0</course>
  <speed>0.0</speed>
  <fix>3d</fix>
</trkpt>
<trkpt lat="33.8103131" lon="-118.3938671">
  <ele>-0.184</ele>
  <time>2026-09-01T01:18:12Z</time>
  <course>186.64</course>
  <speed>0.01414213562373095</speed>
  <fix>3d</fix>
</trkpt>
<trkpt lat="33.810313" lon="-118.393867">
  <ele>-0.13</ele>
  <time>2026-09-01T01:18:12Z</time>
  <course>95.0</course>
  <speed>0.0</speed>
  <fix>3d</fix>
</trkpt>
<trkpt lat="33.8103131" lon="-118.3938671">
  <ele>-0.205</ele>
  <time>2026-09-01T01:18:12Z</time>
  <course>186.64</course>
  <speed>0.01414213562373095</speed>
  <fix>3d</fix>
</trkpt>
<trkpt lat="33.810313" lon="-118.393867">
  <ele>-0.17</ele>
  <time>2026-09-01T01:18:12Z</time>
  <course>95.0</course>
  <speed>0.0</speed>
  <fix>3d</fix>
</trkpt>
<trkpt lat="33.8103131" lon="-118.3938671">
  <ele>-0.205</ele>
  <time>2026-09-01T01:18:12Z</time>
  <course>186.64</course>
  <speed>0.01414213562373095</speed>
  <fix>3d</fix>
</trkpt>
<trkpt lat="33.8103131" lon="-118.3938671">
  <ele>-0.221</ele>
  <time>2026-09-01T01:18:12Z</time>
  <course>186.64</course>
  <speed>0.01414213562373095</speed>
  <fix>3d</fix>
</trkpt>
<trkpt lat="33.810313" lon="-118.393867">
  <ele>-0.17</ele>
  <time>2026-09-01T01:18:12Z</time>
  <course>95.0</course>
  <speed>0.0</speed>
  <fix>3d</fix>
</trkpt>
<trkpt lat="33.8103131" lon="-118.3938671">
  <ele>-0.233</ele>
  <time>2026-09-01T01:18:12Z</time>
  <course>186.64</course>
  <speed>0.01414213562373095</speed>
  <fix>3d</fix>
</trkpt>
<trkpt lat="33.810313" lon="-118.393867">
  <ele>-0.2</ele>
  <time>2026-09-01T01:18:12Z</time>
  <course>95.0</course>
  <speed>0.0</speed>
  <fix>3d</fix>
</trkpt>
<trkpt lat="33.8103131" lon="-118.3938671">
  <ele>-0.248</ele>
  <time>2026-09-01T01:18:12Z</time>
  <course>186.64</course>
  <speed>0.01414213562373095</speed>
  <fix>3d</fix>
</trkpt>
<trkpt lat="33.810313" lon="-118.393867">
  <ele>-0.2</ele>
  <time>2026-09-01T01:18:12Z</time>
  <course>95.0</course>
  <speed>0.0</speed>
  <fix>3d</fix>
</trkpt>
<trkpt lat="33.8103131" lon="-118.3938671">
  <ele>-0.28</ele>
  <time>2026-09-01T01:18:12Z</time>
  <course>186.63</course>
  <speed>0.01</speed>
  <fix>3d</fix>
</trkpt>
<trkpt lat="33.810313" lon="-118.393867">
  <ele>-0.23</ele>
  <time>2026-09-01T01:18:12Z</time>
  <course>95.0</course>
  <speed>0.0</speed>
  <fix>3d</fix>
</trkpt>
<trkpt lat="33.8103131" lon="-118.3938671">
  <ele>-0.281</ele>
  <time>2026-09-01T01:18:12Z</time>
  <course>186.63</course>
  <speed>0.01</speed>
  <fix>3d</fix>
</trkpt>
<trkpt lat="33.8103131" lon="-118.3938671">
  <ele>-0.333</ele>
  <time>2026-09-01T01:18:12Z</time>
  <course>186.63</course>
  <speed>0.01</speed>
  <fix>3d</fix>
</trkpt>
<trkpt lat="33.810313" lon="-118.393867">
  <ele>-0.23</ele>
  <time>2026-09-01T01:18:12Z</time>
  <course>95.0</course>
  <speed>0.0</speed>
  <fix>3d</fix>
</trkpt>
<trkpt lat="33.8103131" lon="-118.3938671">
  <ele>-0.336</ele>
  <time>2026-09-01T01:18:12Z</time>
  <course>186.63</course>
  <speed>0.01</speed>
  <fix>3d</fix>
</trkpt>
<trkpt lat="33.8103131" lon="-118.3938671">
  <ele>-0.4</ele>
  <time>2026-09-01T01:18:12Z</time>
  <course>186.63</course>
  <speed>0.0</speed>
  <fix>3d</fix>
</trkpt>
<trkpt lat="33.810313" lon="-118.393867">
  <ele>-0.29</ele>
  <time>2026-09-01T01:18:12Z</time>
  <course>275.0</course>
  <speed>0.0</speed>
  <fix>3d</fix>
</trkpt>
<trkpt lat="33.8103131" lon="-118.3938671">
  <ele>-0.404</ele>
  <time>2026-09-01T01:18:12Z</time>
  <course>186.63</course>
  <speed>0.0</speed>
  <fix>3d</fix>
</trkpt>
<trkpt lat="33.8103131" lon="-118.3938671">
  <ele>-0.476</ele>
  <time>2026-09-01T01:18:12Z</time>
  <course>186.63</course>
  <speed>0.0</speed>
  <fix>3d</fix>
</trkpt>
<trkpt lat="33.810313" lon="-118.393867">
  <ele>-0.29</ele>
  <time>2026-09-01T01:18:12Z</time>
  <course>275.0</course>
  <speed>0.0</speed>
  <fix>3d</fix>
</trkpt>
<trkpt lat="33.8103131" lon="-118.3938671">
  <ele>-0.505</ele>
  <time>2026-09-01T01:18:12Z</time>
  <course>186.63</course>
  <speed>0.0</speed>
  <fix>3d</fix>
</trkpt>
<trkpt lat="33.8103131" lon="-118.3938671">
  <ele>-0.56</ele>
  <time>2026-09-01T01:18:12Z</time>
  <course>186.62</course>
  <speed>0.0</speed>
  <fix>3d</fix>
</trkpt>
<trkpt lat="33.810313" lon="-118.393867">
  <ele>-0.41</ele>
  <time>2026-09-01T01:18:12Z</time>
  <course>275.0</course>
  <speed>0.0</speed>
  <fix>3d</fix>
</trkpt>
<trkpt lat="33.8103131" lon="-118.3938671">
  <ele>-0.587</ele>
  <time>2026-09-01T01:18:12Z</time>
  <course>186.62</course>
  <speed>0.0</speed>
  <fix>3d</fix>
</trkpt>
<trkpt lat="33.8103131" lon="-118.3938671">
  <ele>-0.649</ele>
  <time>2026-09-01T01:18:12Z</time>
  <course>186.62</course>
  <speed>0.0</speed>
  <fix>3d</fix>
</trkpt>
<trkpt lat="33.810313" lon="-118.393867">
  <ele>-0.41</ele>
  <time>2026-09-01T01:18:12Z</time>
  <course>275.0</course>
  <speed>0.0</speed>
  <fix>3d</fix>
</trkpt>
<trkpt lat="33.8103131" lon="-118.3938671">
  <ele>-0.677</ele>
  <time>2026-09-01T01:18:12Z</time>
  <course>186.62</course>
  <speed>0.0</speed>
  <fix>3d</fix>
</trkpt>
<trkpt lat="33.8103131" lon="-118.3938671">
  <ele>-0.742</ele>
  <time>2026-09-01T01:18:12Z</time>
  <course>184.88</course>
  <speed>0.0</speed>
  <fix>3d</fix>
</trkpt>
<trkpt lat="33.810313" lon="-118.393867">
  <ele>-0.56</ele>
  <time>2026-09-01T01:18:12Z</time>
  <course>275.0</course>
  <speed>0.0</speed>
  <fix>3d</fix>
</trkpt>
<trkpt lat="33.8103131" lon="-118.3938671">
  <ele>-0.743</ele>
  <time>2026-09-01T01:18:12Z</time>
  <course>184.88</course>
  <speed>0.0</speed>
  <fix>3d</fix>
</trkpt>
<trkpt lat="33.8103131" lon="-118.3938671">
  <ele>-0.837</ele>
  <time>2026-09-01T01:18:12Z</time>
  <course>184.89</course>
  <speed>0.0</speed>
  <fix>3d</fix>
</trkpt>
<trkpt lat="33.810313" lon="-118.393867">
  <ele>-0.56</ele>
  <time>2026-09-01T01:18:12Z</time>
  <course>275.0</course>
  <speed>0.0</speed>
  <fix>3d</fix>
</trkpt>
<trkpt lat="33.8103131" lon="-118.3938671">
  <ele>-0.863</ele>
  <time>2026-09-01T01:18:12Z</time>
  <course>184.89</course>
  <speed>0.0</speed>
  <fix>3d</fix>
</trkpt>
<trkpt lat="33.8103131" lon="-118.3938671">
  <ele>-0.933</ele>
  <time>2026-09-01T01:18:12Z</time>
  <course>184.89</course>
  <speed>0.0</speed>
  <fix>3d</fix>
</trkpt>
<trkpt lat="33.810313" lon="-118.393867">
  <ele>-0.73</ele>
  <time>2026-09-01T01:18:12Z</time>
  <course>275.0</course>
  <speed>0.0</speed>
  <fix>3d</fix>
</trkpt>
<trkpt lat="33.8103131" lon="-118.3938671">
  <ele>-0.959</ele>
  <time>2026-09-01T01:18:12Z</time>
  <course>184.89</course>
  <speed>0.0</speed>
  <fix>3d</fix>
</trkpt>
<trkpt lat="33.8103131" lon="-118.3938671">
  <ele>-1.03</ele>
  <time>2026-09-01T01:18:12Z</time>
  <course>184.9</course>
  <speed>0.0</speed>
  <fix>3d</fix>
</trkpt>
<trkpt lat="33.810313" lon="-118.393867">
  <ele>-0.73</ele>
  <time>2026-09-01T01:18:12Z</time>
  <course>275.0</course>
  <speed>0.0</speed>
  <fix>3d</fix>
</trkpt>
<trkpt lat="33.8103131" lon="-118.3938671">
  <ele>-1.061</ele>
  <time>2026-09-01T01:18:12Z</time>
  <course>184.9</course>
  <speed>0.0</speed>
  <fix>3d</fix>
</trkpt>
<trkpt lat="33.8103131" lon="-118.3938671">
  <ele>-1.127</ele>
  <time>2026-09-01T01:18:12Z</time>
  <course>184.9</course>
  <speed>0.0</speed>
  <fix>3d</fix>
</trkpt>
<trkpt lat="33.810313" lon="-118.393867">
  <ele>-0.9</ele>
  <time>2026-09-01T01:18:12Z</time>
  <course>275.0</course>
  <speed>0.0</speed>
  <fix>3d</fix>
</trkpt>
<trkpt lat="33.8103131" lon="-118.3938671">
  <ele>-1.151</ele>
  <time>2026-09-01T01:18:12Z</time>
  <course>184.91</course>
  <speed>0.0</speed>
  <fix>3d</fix>
</trkpt>
<trkpt lat="33.8103131" lon="-118.3938671">
  <ele>-1.224</ele>
  <time>2026-09-01T01:18:12Z</time>
  <course>184.91</course>
  <speed>0.0</speed>
  <fix>3d</fix>
</trkpt>
<trkpt lat="33.810313" lon="-118.393867">
  <ele>-0.9</ele>
  <time>2026-09-01T01:18:12Z</time>
  <course>275.0</course>
  <speed>0.0</speed>
  <fix>3d</fix>
</trkpt>
<trkpt lat="33.8103131" lon="-118.3938671">
  <ele>-1.253</ele>
  <time>2026-09-01T01:18:12Z</time>
  <course>184.91</course>
  <speed>0.0</speed>
  <fix>3d</fix>
</trkpt>
<trkpt lat="33.8103131" lon="-118.3938671">
  <ele>-1.32</ele>
  <time>2026-09-01T01:18:12Z</time>
  <course>184.92</course>
  <speed>0.0</speed>
  <fix>3d</fix>
</trkpt>
<trkpt lat="33.810313" lon="-118.393867">
  <ele>-1.08</ele>
  <time>2026-09-01T01:18:12Z</time>
  <course>275.0</course>
  <speed>0.0</speed>
  <fix>3d</fix>
</trkpt>
<trkpt lat="33.8103131" lon="-118.3938671">
  <ele>-1.323</ele>
  <time>2026-09-01T01:18:12Z</time>
  <course>184.92</course>
  <speed>0.0</speed>
  <fix>3d</fix>
</trkpt>
<trkpt lat="33.8103131" lon="-118.3938671">
  <ele>-1.416</ele>
  <time>2026-09-01T01:18:13Z</time>
  <course>184.92</course>
  <speed>0.0</speed>
  <fix>3d</fix>
</trkpt>
<trkpt lat="33.810313" lon="-118.393867">
  <ele>-1.08</ele>
  <time>2026-09-01T01:18:13Z</time>
  <course>275.0</course>
  <speed>0.0</speed>
  <fix>3d</fix>
</trkpt>
<trkpt lat="33.8103131" lon="-118.3938671">
  <ele>-1.438</ele>
  <time>2026-09-01T01:18:13Z</time>
  <course>184.93</course>
  <speed>0.0</speed>
  <fix>3d</fix>
</trkpt>
<trkpt lat="33.8103131" lon="-118.3938671">
  <ele>-1.512</ele>
  <time>2026-09-01T01:18:13Z</time>
  <course>184.93</course>
  <speed>0.0</speed>
  <fix>3d</fix>
</trkpt>
<trkpt lat="33.810313" lon="-118.393867">
  <ele>-1.27</ele>
  <time>2026-09-01T01:18:13Z</time>
  <course>275.0</course>
  <speed>0.0</speed>
  <fix>3d</fix>
</trkpt>
<trkpt lat="33.8103131" lon="-118.3938671">
  <ele>-1.52</ele>
  <time>2026-09-01T01:18:13Z</time>
  <course>184.93</course>
  <speed>0.0</speed>
  <fix>3d</fix>
</trkpt>
<trkpt lat="33.8103131" lon="-118.3938671">
  <ele>-1.61</ele>
  <time>2026-09-01T01:18:13Z</time>
  <course>184.94</course>
  <speed>0.0</speed>
  <fix>3d</fix>
</trkpt>
<trkpt lat="33.810313" lon="-118.393867">
  <ele>-1.27</ele>
  <time>2026-09-01T01:18:13Z</time>
  <course>275.0</course>
  <speed>0.0</speed>
  <fix>3d</fix>
</trkpt>
<trkpt lat="33.8103131" lon="-118.3938671">
  <ele>-1.641</ele>
  <time>2026-09-01T01:18:13Z</time>
  <course>184.94</course>
  <speed>0.0</speed>
  <fix>3d</fix>
</trkpt>
<trkpt lat="33.8103131" lon="-118.3938671">
  <ele>-1.707</ele>
  <time>2026-09-01T01:18:13Z</time>
  <course>184.94</course>
  <speed>0.0</speed>
  <fix>3d</fix>
</trkpt>
<trkpt lat="33.810313" lon="-118.393867">
  <ele>-1.46</ele>
  <time>2026-09-01T01:18:13Z</time>
  <course>275.0</course>
  <speed>0.0</speed>
  <fix>3d</fix>
</trkpt>
<trkpt lat="33.8103131" lon="-118.3938671">
  <ele>-1.736</ele>
  <time>2026-09-01T01:18:13Z</time>
  <course>184.95</course>
  <speed>0.0</speed>
  <fix>3d</fix>
</trkpt>
<trkpt lat="33.810313" lon="-118.3938671">
  <ele>-1.805</ele>
  <time>2026-09-01T01:18:13Z</time>
  <course>184.95</course>
  <speed>0.0</speed>
  <fix>3d</fix>
</trkpt>
<trkpt lat="33.810313" lon="-118.393867">
  <ele>-1.46</ele>
  <time>2026-09-01T01:18:13Z</time>
  <course>275.0</course>
  <speed>0.0</speed>
  <fix>3d</fix>
</trkpt>
<trkpt lat="33.810313" lon="-118.3938671">
  <ele>-1.836</ele>
  <time>2026-09-01T01:18:13Z</time>
  <course>184.95</course>
  <speed>0.0</speed>
  <fix>3d</fix>
</trkpt>
<trkpt lat="33.810313" lon="-118.393867">
  <ele>-1.903</ele>
  <time>2026-09-01T01:18:13Z</time>
  <course>184.96</course>
  <speed>0.0</speed>
  <fix>3d</fix>
</trkpt>
<trkpt lat="33.810313" lon="-118.393867">
  <ele>-1.65</ele>
  <time>2026-09-01T01:18:13Z</time>
  <course>275.0</course>
  <speed>0.0</speed>
  <fix>3d</fix>
</trkpt>
<trkpt lat="33.810313" lon="-118.393867">
  <ele>-1.933</ele>
  <time>2026-09-01T01:18:13Z</time>
  <course>184.96</course>
  <speed>0.0</speed>
  <fix>3d</fix>
</trkpt>
<trkpt lat="33.810313" lon="-118.393867">
  <ele>-2.001</ele>
  <time>2026-09-01T01:18:13Z</time>
  <course>184.96</course>
  <speed>0.0</speed>
  <fix>3d</fix>
</trkpt>
<trkpt lat="33.810313" lon="-118.393867">
  <ele>-1.65</ele>
  <time>2026-09-01T01:18:13Z</time>
  <course>275.0</course>
  <speed>0.0</speed>
  <fix>3d</fix>
</trkpt>
<trkpt lat="33.810313" lon="-118.393867">
  <ele>-2.033</ele>
  <time>2026-09-01T01:18:13Z</time>
  <course>184.96</course>
  <speed>0.0</speed>
  <fix>3d</fix>
</trkpt>
<trkpt lat="33.810313" lon="-118.393867">
  <ele>-2.1</ele>
  <time>2026-09-01T01:18:13Z</time>
  <course>184.97</course>
  <speed>0.0</speed>
  <fix>3d</fix>
</trkpt>
<trkpt lat="33.810313" lon="-118.393867">
  <ele>-1.84</ele>
  <time>2026-09-01T01:18:13Z</time>
  <course>275.0</course>
  <speed>0.0</speed>
  <fix>3d</fix>
</trkpt>
<trkpt lat="33.810313" lon="-118.393867">
  <ele>-2.13</ele>
  <time>2026-09-01T01:18:13Z</time>
  <course>184.97</course>
  <speed>0.0</speed>
  <fix>3d</fix>
</trkpt>
<trkpt lat="33.810313" lon="-118.393867">
  <ele>-2.199</ele>
  <time>2026-09-01T01:18:13Z</time>
  <course>184.97</course>
  <speed>0.0</speed>
  <fix>3d</fix>
</trkpt>
<trkpt lat="33.810313" lon="-118.393867">
  <ele>-1.84</ele>
  <time>2026-09-01T01:18:13Z</time>
  <course>275.0</course>
  <speed>0.0</speed>
  <fix>3d</fix>
</trkpt>
<trkpt lat="33.810313" lon="-118.393867">
  <ele>-2.229</ele>
  <time>2026-09-01T01:18:13Z</time>
  <course>184.98</course>
  <speed>0.0</speed>
  <fix>3d</fix>
</trkpt>
<trkpt lat="33.810313" lon="-118.393867">
  <ele>-2.299</ele>
  <time>2026-09-01T01:18:13Z</time>
  <course>184.98</course>
  <speed>0.0</speed>
  <fix>3d</fix>
</trkpt>
<trkpt lat="33.810313" lon="-118.393867">
  <ele>-2.03</ele>
  <time>2026-09-01T01:18:13Z</time>
  <course>275.0</course>
  <speed>0.0</speed>
  <fix>3d</fix>
</trkpt>
<trkpt lat="33.810313" lon="-118.393867">
  <ele>-2.329</ele>
  <time>2026-09-01T01:18:13Z</time>
  <course>184.98</course>
  <speed>0.0</speed>
  <fix>3d</fix>
</trkpt>
<trkpt lat="33.810313" lon="-118.393867">
  <ele>-2.397</ele>
  <time>2026-09-01T01:18:13Z</time>
  <course>184.99</course>
  <speed>0.0</speed>
  <fix>3d</fix>
</trkpt>
<trkpt lat="33.810313" lon="-118.393867">
  <ele>-2.03</ele>
  <time>2026-09-01T01:18:13Z</time>
  <course>275.0</course>
  <speed>0.0</speed>
  <fix>3d</fix>
</trkpt>
<trkpt lat="33.810313" lon="-118.393867">
  <ele>-2.399</ele>
  <time>2026-09-01T01:18:13Z</time>
  <course>184.99</course>
  <speed>0.0</speed>
  <fix>3d</fix>
</trkpt>
<trkpt lat="33.810313" lon="-118.393867">
  <ele>-2.494</ele>
  <time>2026-09-01T01:18:13Z</time>
  <course>184.99</course>
  <speed>0.0</speed>
  <fix>3d</fix>
</trkpt>
<trkpt lat="33.810313" lon="-118.393867">
  <ele>-2.22</ele>
  <time>2026-09-01T01:18:13Z</time>
  <course>275.0</course>
  <speed>0.0</speed>
  <fix>3d</fix>
</trkpt>
<trkpt lat="33.810313" lon="-118.393867">
  <ele>-2.496</ele>
  <time>2026-09-01T01:18:13Z</time>
  <course>184.99</course>
  <speed>0.0</speed>
  <fix>3d</fix>
</trkpt>
<trkpt lat="33.810313" lon="-118.393867">
  <ele>-2.592</ele>
  <time>2026-09-01T01:18:13Z</time>
  <course>185.0</course>
  <speed>0.0</speed>
  <fix>3d</fix>
</trkpt>
<trkpt lat="33.810313" lon="-118.393867">
  <ele>-2.22</ele>
  <time>2026-09-01T01:18:13Z</time>
  <course>275.0</course>
  <speed>0.0</speed>
  <fix>3d</fix>
</trkpt>
<trkpt lat="33.810313" lon="-118.393867">
  <ele>-2.622</ele>
  <time>2026-09-01T01:18:13Z</time>
  <course>185.0</course>
  <speed>0.0</speed>
  <fix>3d</fix>
</trkpt>
<trkpt lat="33.810313" lon="-118.393867">
  <ele>-2.69</ele>
  <time>2026-09-01T01:18:13Z</time>
  <course>185.01</course>
  <speed>0.0</speed>
  <fix>3d</fix>
</trkpt>
<trkpt lat="33.810313" lon="-118.393867">
  <ele>-2.41</ele>
  <time>2026-09-01T01:18:13Z</time>
  <course>275.0</course>
  <speed>0.0</speed>
  <fix>3d</fix>
</trkpt>
<trkpt lat="33.810313" lon="-118.393867">
  <ele>-2.691</ele>
  <time>2026-09-01T01:18:13Z</time>
  <course>185.01</course>
  <speed>0.0</speed>
  <fix>3d</fix>
</trkpt>
<trkpt lat="33.810313" lon="-118.393867">
  <ele>-2.787</ele>
  <time>2026-09-01T01:18:13Z</time>
  <course>185.01</course>
  <speed>0.0</speed>
  <fix>3d</fix>
</trkpt>
<trkpt lat="33.810313" lon="-118.393867">
  <ele>-2.41</ele>
  <time>2026-09-01T01:18:13Z</time>
  <course>275.0</course>
  <speed>0.0</speed>
  <fix>3d</fix>
</trkpt>
<trkpt lat="33.810313" lon="-118.393867">
  <ele>-2.817</ele>
  <time>2026-09-01T01:18:13Z</time>
  <course>185.01</course>
  <speed>0.0</speed>
  <fix>3d</fix>
</trkpt>
<trkpt lat="33.810313" lon="-118.393867">
  <ele>-2.885</ele>
  <time>2026-09-01T01:18:13Z</time>
  <course>185.02</course>
  <speed>0.0</speed>
  <fix>3d</fix>
</trkpt>
<trkpt lat="33.810313" lon="-118.393867">
  <ele>-2.6</ele>
  <time>2026-09-01T01:18:13Z</time>
  <course>275.0</course>
  <speed>0.0</speed>
  <fix>3d</fix>
</trkpt>
<trkpt lat="33.810313" lon="-118.393867">
  <ele>-2.915</ele>
  <time>2026-09-01T01:18:13Z</time>
  <course>185.02</course>
  <speed>0.0</speed>
  <fix>3d</fix>
</trkpt>
<trkpt lat="33.810313" lon="-118.393867">
  <ele>-2.984</ele>
  <time>2026-09-01T01:18:13Z</time>
  <course>185.02</course>
  <speed>0.0</speed>
  <fix>3d</fix>
</trkpt>
<trkpt lat="33.810313" lon="-118.393867">
  <ele>-2.6</ele>
  <time>2026-09-01T01:18:13Z</time>
  <course>275.0</course>
  <speed>0.0</speed>
  <fix>3d</fix>
</trkpt>
<trkpt lat="33.810313" lon="-118.393867">
  <ele>-2.986</ele>
  <time>2026-09-01T01:18:13Z</time>
  <course>185.03</course>
  <speed>0.0</speed>
  <fix>3d</fix>
</trkpt>
<trkpt lat="33.810313" lon="-118.3938671">
  <ele>-3.082</ele>
  <time>2026-09-01T01:18:13Z</time>
  <course>185.03</course>
  <speed>0.0</speed>
  <fix>3d</fix>
</trkpt>
<trkpt lat="33.810313" lon="-118.393867">
  <ele>-2.8</ele>
  <time>2026-09-01T01:18:13Z</time>
  <course>275.0</course>
  <speed>0.0</speed>
  <fix>3d</fix>
</trkpt>
<trkpt lat="33.810313" lon="-118.3938671">
  <ele>-3.109</ele>
  <time>2026-09-01T01:18:13Z</time>
  <course>185.03</course>
  <speed>0.0</speed>
  <fix>3d</fix>
</trkpt>
<trkpt lat="33.810313" lon="-118.3938671">
  <ele>-3.181</ele>
  <time>2026-09-01T01:18:13Z</time>
  <course>185.04</course>
  <speed>0.0</speed>
  <fix>3d</fix>
</trkpt>
<trkpt lat="33.810313" lon="-118.393867">
  <ele>-2.8</ele>
  <time>2026-09-01T01:18:13Z</time>
  <course>275.0</course>
  <speed>0.0</speed>
  <fix>3d</fix>
</trkpt>
<trkpt lat="33.810313" lon="-118.3938671">
  <ele>-3.213</ele>
  <time>2026-09-01T01:18:13Z</time>
  <course>185.04</course>
  <speed>0.0</speed>
  <fix>3d</fix>
</trkpt>
<trkpt lat="33.810313" lon="-118.3938671">
  <ele>-3.279</ele>
  <time>2026-09-01T01:18:13Z</time>
  <course>185.04</course>
  <speed>0.0</speed>
  <fix>3d</fix>
</trkpt>
<trkpt lat="33.810313" lon="-118.393867">
  <ele>-2.99</ele>
  <time>2026-09-01T01:18:13Z</time>
  <course>275.0</course>
  <speed>0.0</speed>
  <fix>3d</fix>
</trkpt>
<trkpt lat="33.810313" lon="-118.3938671">
  <ele>-3.308</ele>
  <time>2026-09-01T01:18:13Z</time>
  <course>185.05</course>
  <speed>0.0</speed>
  <fix>3d</fix>
</trkpt>
<trkpt lat="33.810313" lon="-118.3938671">
  <ele>-3.376</ele>
  <time>2026-09-01T01:18:13Z</time>
  <course>185.05</course>
  <speed>0.0</speed>
  <fix>3d</fix>
</trkpt>
<trkpt lat="33.810313" lon="-118.393867">
  <ele>-2.99</ele>
  <time>2026-09-01T01:18:13Z</time>
  <course>275.0</course>
  <speed>0.0</speed>
  <fix>3d</fix>
</trkpt>
<trkpt lat="33.810313" lon="-118.3938671">
  <ele>-3.407</ele>
  <time>2026-09-01T01:18:13Z</time>
  <course>185.05</course>
  <speed>0.0</speed>
  <fix>3d</fix>
</trkpt>
<trkpt lat="33.810313" lon="-118.3938671">
  <ele>-3.472</ele>
  <time>2026-09-01T01:18:13Z</time>
  <course>185.06</course>
  <speed>0.0</speed>
  <fix>3d</fix>
</trkpt>
<trkpt lat="33.810313" lon="-118.393867">
  <ele>-3.18</ele>
  <time>2026-09-01T01:18:13Z</time>
  <course>275.0</course>
  <speed>0.0</speed>
  <fix>3d</fix>
</trkpt>
<trkpt lat="33.810313" lon="-118.3938671">
  <ele>-3.475</ele>
  <time>2026-09-01T01:18:13Z</time>
  <course>185.06</course>
  <speed>0.0</speed>
  <fix>3d</fix>
</trkpt>
<trkpt lat="33.8103131" lon="-118.3938671">
  <ele>-3.569</ele>
  <time>2026-09-01T01:18:13Z</time>
  <course>185.06</course>
  <speed>0.0</speed>
  <fix>3d</fix>
</trkpt>
<trkpt lat="33.810313" lon="-118.393867">
  <ele>-3.18</ele>
  <time>2026-09-01T01:18:13Z</time>
  <course>275.0</course>
  <speed>0.0</speed>
  <fix>3d</fix>
</trkpt>
<trkpt lat="33.8103131" lon="-118.3938671">
  <ele>-3.571</ele>
  <time>2026-09-01T01:18:13Z</time>
  <course>185.06</course>
  <speed>0.0</speed>
  <fix>3d</fix>
</trkpt>
<trkpt lat="33.8103131" lon="-118.3938671">
  <ele>-3.667</ele>
  <time>2026-09-01T01:18:13Z</time>
  <course>185.07</course>
  <speed>0.0</speed>
  <fix>3d</fix>
</trkpt>
<trkpt lat="33.810313" lon="-118.393867">
  <ele>-3.37</ele>
  <time>2026-09-01T01:18:13Z</time>
  <course>275.0</course>
  <speed>0.0</speed>
  <fix>3d</fix>
</trkpt>
<trkpt lat="33.8103131" lon="-118.3938671">
  <ele>-3.669</ele>
  <time>2026-09-01T01:18:13Z</time>
  <course>185.07</course>
  <speed>0.0</speed>
  <fix>3d</fix>
</trkpt>
<trkpt lat="33.8103131" lon="-118.3938671">
  <ele>-3.766</ele>
  <time>2026-09-01T01:18:13Z</time>
  <course>185.07</course>
  <speed>0.0</speed>
  <fix>3d</fix>
</trkpt>
<trkpt lat="33.810313" lon="-118.393867">
  <ele>-3.37</ele>
  <time>2026-09-01T01:18:13Z</time>
  <course>275.0</course>
  <speed>0.0</speed>
  <fix>3d</fix>
</trkpt>
<trkpt lat="33.8103131" lon="-118.3938671">
  <ele>-3.799</ele>
  <time>2026-09-01T01:18:13Z</time>
  <course>185.08</course>
  <speed>0.0</speed>
  <fix>3d</fix>
</trkpt>
<trkpt lat="33.8103131" lon="-118.3938671">
  <ele>-3.865</ele>
  <time>2026-09-01T01:18:13Z</time>
  <course>185.08</course>
  <speed>0.0</speed>
  <fix>3d</fix>
</trkpt>
<trkpt lat="33.810313" lon="-118.393867">
  <ele>-3.57</ele>
  <time>2026-09-01T01:18:13Z</time>
  <course>275.0</course>
  <speed>0.0</speed>
  <fix>3d</fix>
</trkpt>
<trkpt lat="33.8103131" lon="-118.3938671">
  <ele>-3.895</ele>
  <time>2026-09-01T01:18:13Z</time>
  <course>185.08</course>
  <speed>0.0</speed>
  <fix>3d</fix>
</trkpt>
<trkpt lat="33.8103131" lon="-118.3938671">
  <ele>-3.964</ele>
  <time>2026-09-01T01:18:13Z</time>
  <course>185.09</course>
  <speed>0.0</speed>
  <fix>3d</fix>
</trkpt>
<trkpt lat="33.810313" lon="-118.393867">
  <ele>-3.57</ele>
  <time>2026-09-01T01:18:13Z</time>
  <course>275.0</course>
  <speed>0.0</speed>
  <fix>3d</fix>
</trkpt>
<trkpt lat="33.8103131" lon="-118.3938671">
  <ele>-3.993</ele>
  <time>2026-09-01T01:18:13Z</time>
  <course>185.09</course>
  <speed>0.0</speed>
  <fix>3d</fix>
</trkpt>
<trkpt lat="33.8103131" lon="-118.3938671">
  <ele>-4.063</ele>
  <time>2026-09-01T01:18:13Z</time>
  <course>185.09</course>
  <speed>0.0</speed>
  <fix>3d</fix>
</trkpt>
<trkpt lat="33.810313" lon="-118.393867">
  <ele>-3.76</ele>
  <time>2026-09-01T01:18:13Z</time>
  <course>275.0</course>
  <speed>0.0</speed>
  <fix>3d</fix>
</trkpt>
<trkpt lat="33.8103131" lon="-118.3938671">
  <ele>-4.093</ele>
  <time>2026-09-01T01:18:13Z</time>
  <course>185.09</course>
  <speed>0.0</speed>
  <fix>3d</fix>
</trkpt>
<trkpt lat="33.8103131" lon="-118.3938671">
  <ele>-4.161</ele>
  <time>2026-09-01T01:18:13Z</time>
  <course>185.1</course>
  <speed>0.0</speed>
  <fix>3d</fix>
</trkpt>
<trkpt lat="33.810313" lon="-118.393867">
  <ele>-3.76</ele>
  <time>2026-09-01T01:18:13Z</time>
  <course>275.0</course>
  <speed>0.0</speed>
  <fix>3d</fix>
</trkpt>
<trkpt lat="33.8103131" lon="-118.3938671">
  <ele>-4.193</ele>
  <time>2026-09-01T01:18:13Z</time>
  <course>185.1</course>
  <speed>0.0</speed>
  <fix>3d</fix>
</trkpt>
<trkpt lat="33.8103131" lon="-118.3938671">
  <ele>-4.259</ele>
  <time>2026-09-01T01:18:13Z</time>
  <course>185.11</course>
  <speed>0.0</speed>
  <fix>3d</fix>
</trkpt>
<trkpt lat="33.810313" lon="-118.393867">
  <ele>-3.95</ele>
  <time>2026-09-01T01:18:13Z</time>
  <course>275.0</course>
  <speed>0.0</speed>
  <fix>3d</fix>
</trkpt>
<trkpt lat="33.8103131" lon="-118.3938671">
  <ele>-4.28</ele>
  <time>2026-09-01T01:18:13Z</time>
  <course>185.11</course>
  <speed>0.0</speed>
  <fix>3d</fix>
</trkpt>
<trkpt lat="33.8103131" lon="-118.3938671">
  <ele>-4.356</ele>
  <time>2026-09-01T01:18:13Z</time>
  <course>185.11</course>
  <speed>0.0</speed>
  <fix>3d</fix>
</trkpt>
<trkpt lat="33.810313" lon="-118.393867">
  <ele>-3.95</ele>
  <time>2026-09-01T01:18:13Z</time>
  <course>275.0</course>
  <speed>0.0</speed>
  <fix>3d</fix>
</trkpt>
<trkpt lat="33.8103131" lon="-118.3938671">
  <ele>-4.385</ele>
  <time>2026-09-01T01:18:13Z</time>
  <course>185.11</course>
  <speed>0.0</speed>
  <fix>3d</fix>
</trkpt>
<trkpt lat="33.8103131" lon="-118.3938671">
  <ele>-4.453</ele>
  <time>2026-09-01T01:18:13Z</time>
  <course>185.12</course>
  <speed>0.0</speed>
  <fix>3d</fix>
</trkpt>
<trkpt lat="33.810313" lon="-118.393867">
  <ele>-4.14</ele>
  <time>2026-09-01T01:18:13Z</time>
  <course>275.0</course>
  <speed>0.0</speed>
  <fix>3d</fix>
</trkpt>
<trkpt lat="33.8103131" lon="-118.3938671">
  <ele>-4.454</ele>
  <time>2026-09-01T01:18:13Z</time>
  <course>185.12</course>
  <speed>0.0</speed>
  <fix>3d</fix>
</trkpt>
<trkpt lat="33.8103131" lon="-118.3938671">
  <ele>-4.55</ele>
  <time>2026-09-01T01:18:13Z</time>
  <course>185.12</course>
  <speed>0.0</speed>
  <fix>3d</fix>
</trkpt>
<trkpt lat="33.810313" lon="-118.393867">
  <ele>-4.14</ele>
  <time>2026-09-01T01:18:13Z</time>
  <course>275.0</course>
  <speed>0.0</speed>
  <fix>3d</fix>
</trkpt>
<trkpt lat="33.8103131" lon="-118.3938671">
  <ele>-4.552</ele>
  <time>2026-09-01T01:18:13Z</time>
  <course>185.12</course>
  <speed>0.0</speed>
  <fix>3d</fix>
</trkpt>
<trkpt lat="33.8103131" lon="-118.3938671">
  <ele>-4.649</ele>
  <time>2026-09-01T01:18:13Z</time>
  <course>185.13</course>
  <speed>0.01</speed>
  <fix>3d</fix>
</trkpt>
<trkpt lat="33.810313" lon="-118.393867">
  <ele>-4.33</ele>
  <time>2026-09-01T01:18:13Z</time>
  <course>275.0</course>
  <speed>0.0</speed>
  <fix>3d</fix>
</trkpt>
<trkpt lat="33.8103131" lon="-118.3938671">
  <ele>-4.65</ele>
  <time>2026-09-01T01:18:13Z</time>
  <course>185.13</course>
  <speed>0.01</speed>
  <fix>3d</fix>
</trkpt>
<trkpt lat="33.8103131" lon="-118.3938671">
  <ele>-4.747</ele>
  <time>2026-09-01T01:18:13Z</time>
  <course>185.14</course>
  <speed>0.01</speed>
  <fix>3d</fix>
</trkpt>
<trkpt lat="33.810313" lon="-118.393867">
  <ele>-4.33</ele>
  <time>2026-09-01T01:18:13Z</time>
  <course>275.0</course>
  <speed>0.0</speed>
  <fix>3d</fix>
</trkpt>
<trkpt lat="33.8103131" lon="-118.3938671">
  <ele>-4.776</ele>
  <time>2026-09-01T01:18:13Z</time>
  <course>185.14</course>
  <speed>0.01</speed>
  <fix>3d</fix>
</trkpt>
<trkpt lat="33.8103131" lon="-118.3938671">
  <ele>-4.844</ele>
  <time>2026-09-01T01:18:13Z</time>
  <course>185.14</course>
  <speed>0.01</speed>
  <fix>3d</fix>
</trkpt>
<trkpt lat="33.810313" lon="-118.393867">
  <ele>-4.52</ele>
  <time>2026-09-01T01:18:13Z</time>
  <course>275.0</course>
  <speed>0.0</speed>
  <fix>3d</fix>
</trkpt>
<trkpt lat="33.8103131" lon="-118.3938671">
  <ele>-4.878</ele>
  <time>2026-09-01T01:18:13Z</time>
  <course>185.15</course>
  <speed>0.01</speed>
  <fix>3d</fix>
</trkpt>
<trkpt lat="33.8103131" lon="-118.3938671">
  <ele>-4.941</ele>
  <time>2026-09-01T01:18:13Z</time>
  <course>185.15</course>
  <speed>0.01414213562373095</speed>
  <fix>3d</fix>
</trkpt>
<trkpt lat="33.810313" lon="-118.393867">
  <ele>-4.52</ele>
  <time>2026-09-01T01:18:13Z</time>
  <course>275.0</course>
  <speed>0.0</speed>
  <fix>3d</fix>
</trkpt>
<trkpt lat="33.8103131" lon="-118.3938671">
  <ele>-4.946</ele>
  <time>2026-09-01T01:18:13Z</time>
  <course>185.15</course>
  <speed>0.01414213562373095</speed>
  <fix>3d</fix>
</trkpt>
<trkpt lat="33.8103131" lon="-118.3938671">
  <ele>-5.04</ele>
  <time>2026-09-01T01:18:13Z</time>
  <course>185.16</course>
  <speed>0.01414213562373095</speed>
  <fix>3d</fix>
</trkpt>
<trkpt lat="33.810313" lon="-118.393867">
  <ele>-4.72</ele>
  <time>2026-09-01T01:18:13Z</time>
  <course>275.0</course>
  <speed>0.0</speed>
  <fix>3d</fix>
</trkpt>
<trkpt lat="33.8103131" lon="-118.3938671">
  <ele>-5.07</ele>
  <time>2026-09-01T01:18:13Z</time>
  <course>185.16</course>
  <speed>0.01414213562373095</speed>
  <fix>3d</fix>
</trkpt>
<trkpt lat="33.8103131" lon="-118.3938671">
  <ele>-5.139</ele>
  <time>2026-09-01T01:18:13Z</time>
  <course>185.16</course>
  <speed>0.01414213562373095</speed>
  <fix>3d</fix>
</trkpt>
<trkpt lat="33.810313" lon="-118.393867">
  <ele>-4.72</ele>
  <time>2026-09-01T01:18:13Z</time>
  <course>275.0</course>
  <speed>0.0</speed>
  <fix>3d</fix>
</trkpt>
<trkpt lat="33.8103131" lon="-118.3938671">
  <ele>-5.168</ele>
  <time>2026-09-01T01:18:13Z</time>
  <course>185.16</course>
  <speed>0.01414213562373095</speed>
  <fix>3d</fix>
</trkpt>
<trkpt lat="33.8103131" lon="-118.3938671">
  <ele>-5.237</ele>
  <time>2026-09-01T01:18:13Z</time>
  <course>185.17</course>
  <speed>0.01414213562373095</speed>
  <fix>3d</fix>
</trkpt>
<trkpt lat="33.810313" lon="-118.393867">
  <ele>-4.91</ele>
  <time>2026-09-01T01:18:13Z</time>
  <course>275.0</course>
  <speed>0.0</speed>
  <fix>3d</fix>
</trkpt>
<trkpt lat="33.8103131" lon="-118.3938671">
  <ele>-5.273</ele>
  <time>2026-09-01T01:18:13Z</time>
  <course>185.17</course>
  <speed>0.01414213562373095</speed>
  <fix>3d</fix>
</trkpt>
<trkpt lat="33.8103131" lon="-118.3938671">
  <ele>-5.334</ele>
  <time>2026-09-01T01:18:13Z</time>
  <course>185.17</course>
  <speed>0.01414213562373095</speed>
  <fix>3d</fix>
</trkpt>
<trkpt lat="33.810313" lon="-118.393867">
  <ele>-4.91</ele>
  <time>2026-09-01T01:18:13Z</time>
  <course>275.0</course>
  <speed>0.0</speed>
  <fix>3d</fix>
</trkpt>
<trkpt lat="33.8103131" lon="-118.3938671">
  <ele>-5.363</ele>
  <time>2026-09-01T01:18:13Z</time>
  <course>185.18</course>
  <speed>0.01414213562373095</speed>
  <fix>3d</fix>
</trkpt>
<trkpt lat="33.8103131" lon="-118.3938671">
  <ele>-5.432</ele>
  <time>2026-09-01T01:18:13Z</time>
  <course>185.18</course>
  <speed>0.01414213562373095</speed>
  <fix>3d</fix>
</trkpt>
<trkpt lat="33.810313" lon="-118.393867">
  <ele>-5.1</ele>
  <time>2026-09-01T01:18:13Z</time>
  <course>275.0</course>
  <speed>0.0</speed>
  <fix>3d</fix>
</trkpt>
<trkpt lat="33.8103131" lon="-118.3938671">
  <ele>-5.434</ele>
  <time>2026-09-01T01:18:13Z</time>
  <course>185.18</course>
  <speed>0.01414213562373095</speed>
  <fix>3d</fix>
</trkpt>
<trkpt lat="33.8103131" lon="-118.3938671">
  <ele>-5.529</ele>
  <time>2026-09-01T01:18:13Z</time>
  <course>185.19</course>
  <speed>0.01414213562373095</speed>
  <fix>3d</fix>
</trkpt>
<trkpt lat="33.810313" lon="-118.393867">
  <ele>-5.1</ele>
  <time>2026-09-01T01:18:13Z</time>
  <course>275.0</course>
  <speed>0.0</speed>
  <fix>3d</fix>
</trkpt>
<trkpt lat="33.8103131" lon="-118.3938671">
  <ele>-5.558</ele>
  <time>2026-09-01T01:18:13Z</time>
  <course>185.19</course>
  <speed>0.01414213562373095</speed>
  <fix>3d</fix>
</trkpt>
<trkpt lat="33.8103131" lon="-118.3938671">
  <ele>-5.627</ele>
  <time>2026-09-01T01:18:13Z</time>
  <course>185.19</course>
  <speed>0.01414213562373095</speed>
  <fix>3d</fix>
</trkpt>
<trkpt lat="33.810313" lon="-118.393867">
  <ele>-5.29</ele>
  <time>2026-09-01T01:18:13Z</time>
  <course>275.0</course>
  <speed>0.0</speed>
  <fix>3d</fix>
</trkpt>
<trkpt lat="33.8103131" lon="-118.3938671">
  <ele>-5.629</ele>
  <time>2026-09-01T01:18:13Z</time>
  <course>185.19</course>
  <speed>0.01414213562373095</speed>
  <fix>3d</fix>
</trkpt>
<trkpt lat="33.8103131" lon="-118.3938671">
  <ele>-5.726</ele>
  <time>2026-09-01T01:18:13Z</time>
  <course>185.2</course>
  <speed>0.01414213562373095</speed>
  <fix>3d</fix>
</trkpt>
<trkpt lat="33.810313" lon="-118.393867">
  <ele>-5.29</ele>
  <time>2026-09-01T01:18:13Z</time>
  <course>275.0</course>
  <speed>0.0</speed>
  <fix>3d</fix>
</trkpt>
<trkpt lat="33.8103131" lon="-118.3938671">
  <ele>-5.758</ele>
  <time>2026-09-01T01:18:13Z</time>
  <course>185.2</course>
  <speed>0.01414213562373095</speed>
  <fix>3d</fix>
</trkpt>
<trkpt lat="33.8103131" lon="-118.3938671">
  <ele>-5.825</ele>
  <time>2026-09-01T01:18:13Z</time>
  <course>185.21</course>
  <speed>0.01414213562373095</speed>
  <fix>3d</fix>
</trkpt>
<trkpt lat="33.810313" lon="-118.393867">
  <ele>-5.48</ele>
  <time>2026-09-01T01:18:13Z</time>
  <course>275.0</course>
  <speed>0.0</speed>
  <fix>3d</fix>
</trkpt>
<trkpt lat="33.8103131" lon="-118.3938671">
  <ele>-5.853</ele>
  <time>2026-09-01T01:18:13Z</time>
  <course>185.21</course>
  <speed>0.01414213562373095</speed>
  <fix>3d</fix>
</trkpt>
<trkpt lat="33.8103131" lon="-118.3938671">
  <ele>-5.924</ele>
  <time>2026-09-01T01:18:13Z</time>
  <course>185.21</course>
  <speed>0.01414213562373095</speed>
  <fix>3d</fix>
</trkpt>
<trkpt lat="33.810313" lon="-118.393867">
  <ele>-5.48</ele>
  <time>2026-09-01T01:18:13Z</time>
  <course>275.0</course>
  <speed>0.0</speed>
  <fix>3d</fix>
</trkpt>
<trkpt lat="33.8103131" lon="-118.3938671">
  <ele>-5.927</ele>
  <time>2026-09-01T01:18:13Z</time>
  <course>185.21</course>
  <speed>0.01414213562373095</speed>
  <fix>3d</fix>
</trkpt>
<trkpt lat="33.8103131" lon="-118.3938671">
  <ele>-6.023</ele>
  <time>2026-09-01T01:18:13Z</time>
  <course>185.22</course>
  <speed>0.01414213562373095</speed>
  <fix>3d</fix>
</trkpt>
<trkpt lat="33.810313" lon="-118.393867">
  <ele>-5.67</ele>
  <time>2026-09-01T01:18:13Z</time>
  <course>275.0</course>
  <speed>0.0</speed>
  <fix>3d</fix>
</trkpt>
<trkpt lat="33.8103131" lon="-118.3938671">
  <ele>-6.052</ele>
  <time>2026-09-01T01:18:13Z</time>
  <course>185.22</course>
  <speed>0.01414213562373095</speed>
  <fix>3d</fix>
</trkpt>
<trkpt lat="33.8103131" lon="-118.3938671">
  <ele>-6.121</ele>
  <time>2026-09-01T01:18:13Z</time>
  <course>185.23</course>
  <speed>0.01414213562373095</speed>
  <fix>3d</fix>
</trkpt>
<trkpt lat="33.810313" lon="-118.393867">
  <ele>-5.67</ele>
  <time>2026-09-01T01:18:13Z</time>
  <course>275.0</course>
  <speed>0.0</speed>
  <fix>3d</fix>
</trkpt>
<trkpt lat="33.8103131" lon="-118.3938671">
  <ele>-6.123</ele>
  <time>2026-09-01T01:18:13Z</time>
  <course>185.23</course>
  <speed>0.01414213562373095</speed>
  <fix>3d</fix>
</trkpt>
<trkpt lat="33.8103131" lon="-118.3938671">
  <ele>-6.219</ele>
  <time>2026-09-01T01:18:13Z</time>
  <course>185.23</course>
  <speed>0.01414213562373095</speed>
  <fix>3d</fix>
</trkpt>
<trkpt lat="33.810313" lon="-118.393867">
  <ele>-5.86</ele>
  <time>2026-09-01T01:18:13Z</time>
  <course>275.0</course>
  <speed>0.0</speed>
  <fix>3d</fix>
</trkpt>
<trkpt lat="33.8103131" lon="-118.3938671">
  <ele>-6.221</ele>
  <time>2026-09-01T01:18:13Z</time>
  <course>185.23</course>
  <speed>0.01414213562373095</speed>
  <fix>3d</fix>
</trkpt>
<trkpt lat="33.8103131" lon="-118.3938671">
  <ele>-6.317</ele>
  <time>2026-09-01T01:18:13Z</time>
  <course>185.24</course>
  <speed>0.01414213562373095</speed>
  <fix>3d</fix>
</trkpt>
<trkpt lat="33.810313" lon="-118.393867">
  <ele>-5.86</ele>
  <time>2026-09-01T01:18:13Z</time>
  <course>275.0</course>
  <speed>0.0</speed>
  <fix>3d</fix>
</trkpt>
<trkpt lat="33.8103131" lon="-118.3938671">
  <ele>-6.347</ele>
  <time>2026-09-01T01:18:13Z</time>
  <course>185.24</course>
  <speed>0.022360679774997897</speed>
  <fix>3d</fix>
</trkpt>
<trkpt lat="33.8103131" lon="-118.3938671">
  <ele>-6.415</ele>
  <time>2026-09-01T01:18:13Z</time>
  <course>185.25</course>
  <speed>0.022360679774997897</speed>
  <fix>3d</fix>
</trkpt>
<trkpt lat="33.810313" lon="-118.393867">
  <ele>-6.05</ele>
  <time>2026-09-01T01:18:13Z</time>
  <course>275.0</course>
  <speed>0.0</speed>
  <fix>3d</fix>
</trkpt>
<trkpt lat="33.8103131" lon="-118.3938671">
  <ele>-6.417</ele>
  <time>2026-09-01T01:18:13Z</time>
  <course>185.25</course>
  <speed>0.022360679774997897</speed>
  <fix>3d</fix>
</trkpt>
<trkpt lat="33.8103131" lon="-118.3938671">
  <ele>-6.511</ele>
  <time>2026-09-01T01:18:13Z</time>
  <course>185.25</course>
  <speed>0.022360679774997897</speed>
  <fix>3d</fix>
</trkpt>
<trkpt lat="33.810313" lon="-118.393867">
  <ele>-6.05</ele>
  <time>2026-09-01T01:18:13Z</time>
  <course>275.0</course>
  <speed>0.0</speed>
  <fix>3d</fix>
</trkpt>
<trkpt lat="33.8103131" lon="-118.3938671">
  <ele>-6.54</ele>
  <time>2026-09-01T01:18:13Z</time>
  <course>185.25</course>
  <speed>0.022360679774997897</speed>
  <fix>3d</fix>
</trkpt>
<trkpt lat="33.8103131" lon="-118.3938671">
  <ele>-6.608</ele>
  <time>2026-09-01T01:18:13Z</time>
  <course>185.26</course>
  <speed>0.022360679774997897</speed>
  <fix>3d</fix>
</trkpt>
<trkpt lat="33.810313" lon="-118.393867">
  <ele>-6.24</ele>
  <time>2026-09-01T01:18:13Z</time>
  <course>275.0</course>
  <speed>0.0</speed>
  <fix>3d</fix>
</trkpt>
<trkpt lat="33.8103131" lon="-118.3938671">
  <ele>-6.637</ele>
  <time>2026-09-01T01:18:13Z</time>
  <course>185.26</course>
  <speed>0.022360679774997897</speed>
  <fix>3d</fix>
</trkpt>
<trkpt lat="33.8103131" lon="-118.3938671">
  <ele>-6.705</ele>
  <time>2026-09-01T01:18:13Z</time>
  <course>185.27</course>
  <speed>0.022360679774997897</speed>
  <fix>3d</fix>
</trkpt>
<trkpt lat="33.810313" lon="-118.393867">
  <ele>-6.24</ele>
  <time>2026-09-01T01:18:13Z</time>
  <course>275.0</course>
  <speed>0.0</speed>
  <fix>3d</fix>
</trkpt>
<trkpt lat="33.8103131" lon="-118.3938671">
  <ele>-6.706</ele>
  <time>2026-09-01T01:18:13Z</time>
  <course>185.27</course>
  <speed>0.022360679774997897</speed>
  <fix>3d</fix>
</trkpt>
<trkpt lat="33.8103131" lon="-118.3938671">
  <ele>-6.802</ele>
  <time>2026-09-01T01:18:13Z</time>
  <course>185.27</course>
  <speed>0.022360679774997897</speed>
  <fix>3d</fix>
</trkpt>
<trkpt lat="33.810313" lon="-118.393867">
  <ele>-6.42</ele>
  <time>2026-09-01T01:18:13Z</time>
  <course>275.0</course>
  <speed>0.0</speed>
  <fix>3d</fix>
</trkpt>
<trkpt lat="33.8103131" lon="-118.3938671">
  <ele>-6.838</ele>
  <time>2026-09-01T01:18:13Z</time>
  <course>185.28</course>
  <speed>0.022360679774997897</speed>
  <fix>3d</fix>
</trkpt>
<trkpt lat="33.8103131" lon="-118.3938671">
  <ele>-6.9</ele>
  <time>2026-09-01T01:18:13Z</time>
  <course>185.28</course>
  <speed>0.022360679774997897</speed>
  <fix>3d</fix>
</trkpt>
<trkpt lat="33.810313" lon="-118.393867">
  <ele>-6.42</ele>
  <time>2026-09-01T01:18:13Z</time>
  <course>275.0</course>
  <speed>0.0</speed>
  <fix>3d</fix>
</trkpt>
<trkpt lat="33.8103131" lon="-118.3938671">
  <ele>-6.902</ele>
  <time>2026-09-01T01:18:13Z</time>
  <course>185.28</course>
  <speed>0.022360679774997897</speed>
  <fix>3d</fix>
</trkpt>
<trkpt lat="33.8103131" lon="-118.3938671">
  <ele>-6.997</ele>
  <time>2026-09-01T01:18:13Z</time>
  <course>185.29</course>
  <speed>0.022360679774997897</speed>
  <fix>3d</fix>
</trkpt>
<trkpt lat="33.810313" lon="-118.393867">
  <ele>-6.61</ele>
  <time>2026-09-01T01:18:13Z</time>
  <course>275.0</course>
  <speed>0.0</speed>
  <fix>3d</fix>
</trkpt>
<trkpt lat="33.8103131" lon="-118.3938671">
  <ele>-7.026</ele>
  <time>2026-09-01T01:18:13Z</time>
  <course>185.29</course>
  <speed>0.022360679774997897</speed>
  <fix>3d</fix>
</trkpt>
<trkpt lat="33.8103131" lon="-118.3938671">
  <ele>-7.092</ele>
  <time>2026-09-01T01:18:13Z</time>
  <course>185.29</course>
  <speed>0.022360679774997897</speed>
  <fix>3d</fix>
</trkpt>
<trkpt lat="33.810313" lon="-118.393867">
  <ele>-6.61</ele>
  <time>2026-09-01T01:18:13Z</time>
  <course>275.0</course>
  <speed>0.0</speed>
  <fix>3d</fix>
</trkpt>
<trkpt lat="33.8103131" lon="-118.3938671">
  <ele>-7.121</ele>
  <time>2026-09-01T01:18:13Z</time>
  <course>185.3</course>
  <speed>0.022360679774997897</speed>
  <fix>3d</fix>
</trkpt>
<trkpt lat="33.8103131" lon="-118.3938671">
  <ele>-7.188</ele>
  <time>2026-09-01T01:18:13Z</time>
  <course>185.3</course>
  <speed>0.022360679774997897</speed>
  <fix>3d</fix>
</trkpt>
<trkpt lat="33.810313" lon="-118.393867">
  <ele>-6.8</ele>
  <time>2026-09-01T01:18:13Z</time>
  <course>275.0</course>
  <speed>0.0</speed>
  <fix>3d</fix>
</trkpt>
<trkpt lat="33.8103131" lon="-118.3938671">
  <ele>-7.217</ele>
  <time>2026-09-01T01:18:13Z</time>
  <course>185.3</course>
  <speed>0.022360679774997897</speed>
  <fix>3d</fix>
</trkpt>
<trkpt lat="33.8103131" lon="-118.3938671">
  <ele>-7.285</ele>
  <time>2026-09-01T01:18:13Z</time>
  <course>185.31</course>
  <speed>0.0282842712474619</speed>
  <fix>3d</fix>
</trkpt>
<trkpt lat="33.810313" lon="-118.393867">
  <ele>-6.8</ele>
  <time>2026-09-01T01:18:13Z</time>
  <course>275.0</course>
  <speed>0.0</speed>
  <fix>3d</fix>
</trkpt>
<trkpt lat="33.8103131" lon="-118.3938671">
  <ele>-7.319</ele>
  <time>2026-09-01T01:18:13Z</time>
  <course>185.31</course>
  <speed>0.0282842712474619</speed>
  <fix>3d</fix>
</trkpt>
<trkpt lat="33.8103131" lon="-118.3938671">
  <ele>-7.381</ele>
  <time>2026-09-01T01:18:13Z</time>
  <course>185.31</course>
  <speed>0.0282842712474619</speed>
  <fix>3d</fix>
</trkpt>
<trkpt lat="33.810313" lon="-118.393867">
  <ele>-6.98</ele>
  <time>2026-09-01T01:18:13Z</time>
  <course>275.0</course>
  <speed>0.0</speed>
  <fix>3d</fix>
</trkpt>
<trkpt lat="33.8103131" lon="-118.3938671">
  <ele>-7.383</ele>
  <time>2026-09-01T01:18:13Z</time>
  <course>185.31</course>
  <speed>0.0282842712474619</speed>
  <fix>3d</fix>
</trkpt>
<trkpt lat="33.8103131" lon="-118.3938671">
  <ele>-7.479</ele>
  <time>2026-09-01T01:18:13Z</time>
  <course>185.32</course>
  <speed>0.0282842712474619</speed>
  <fix>3d</fix>
</trkpt>
<trkpt lat="33.810313" lon="-118.393867">
  <ele>-6.98</ele>
  <time>2026-09-01T01:18:13Z</time>
  <course>275.0</course>
  <speed>0.0</speed>
  <fix>3d</fix>
</trkpt>
<trkpt lat="33.8103131" lon="-118.3938671">
  <ele>-7.506</ele>
  <time>2026-09-01T01:18:13Z</time>
  <course>185.32</course>
  <speed>0.0282842712474619</speed>
  <fix>3d</fix>
</trkpt>
<trkpt lat="33.8103131" lon="-118.3938671">
  <ele>-7.576</ele>
  <time>2026-09-01T01:18:13Z</time>
  <course>185.33</course>
  <speed>0.0282842712474619</speed>
  <fix>3d</fix>
</trkpt>
<trkpt lat="33.810313" lon="-118.3938671">
  <ele>-7.17</ele>
  <time>2026-09-01T01:18:13Z</time>
  <course>275.0</course>
  <speed>0.0</speed>
  <fix>3d</fix>
</trkpt>
<trkpt lat="33.8103131" lon="-118.3938671">
  <ele>-7.608</ele>
  <time>2026-09-01T01:18:13Z</time>
  <course>185.33</course>
  <speed>0.0282842712474619</speed>
  <fix>3d</fix>
</trkpt>
<trkpt lat="33.8103131" lon="-118.3938671">
  <ele>-7.674</ele>
  <time>2026-09-01T01:18:13Z</time>
  <course>185.33</course>
  <speed>0.0282842712474619</speed>
  <fix>3d</fix>
</trkpt>
<trkpt lat="33.810313" lon="-118.3938671">
  <ele>-7.17</ele>
  <time>2026-09-01T01:18:13Z</time>
  <course>275.0</course>
  <speed>0.0</speed>
  <fix>3d</fix>
</trkpt>
<trkpt lat="33.8103131" lon="-118.3938671">
  <ele>-7.706</ele>
  <time>2026-09-01T01:18:13Z</time>
  <course>185.34</course>
  <speed>0.0282842712474619</speed>
  <fix>3d</fix>
</trkpt>
<trkpt lat="33.8103131" lon="-118.3938671">
  <ele>-7.772</ele>
  <time>2026-09-01T01:18:13Z</time>
  <course>185.34</course>
  <speed>0.0282842712474619</speed>
  <fix>3d</fix>
</trkpt>
<trkpt lat="33.810313" lon="-118.3938671">
  <ele>-7.37</ele>
  <time>2026-09-01T01:18:13Z</time>
  <course>275.0</course>
  <speed>0.0</speed>
  <fix>3d</fix>
</trkpt>
<trkpt lat="33.8103131" lon="-118.3938671">
  <ele>-7.774</ele>
  <time>2026-09-01T01:18:13Z</time>
  <course>185.34</course>
  <speed>0.0282842712474619</speed>
  <fix>3d</fix>
</trkpt>
<trkpt lat="33.8103131" lon="-118.3938672">
  <ele>-7.87</ele>
  <time>2026-09-01T01:18:13Z</time>
  <course>185.35</course>
  <speed>0.0282842712474619</speed>
  <fix>3d</fix>
</trkpt>
<trkpt lat="33.810313" lon="-118.3938671">
  <ele>-7.37</ele>
  <time>2026-09-01T01:18:13Z</time>
  <course>275.0</course>
  <speed>0.0</speed>
  <fix>3d</fix>
</trkpt>
<trkpt lat="33.8103131" lon="-118.3938672">
  <ele>-7.872</ele>
  <time>2026-09-01T01:18:13Z</time>
  <course>185.35</course>
  <speed>0.0282842712474619</speed>
  <fix>3d</fix>
</trkpt>
<trkpt lat="33.8103131" lon="-118.3938672">
  <ele>-7.968</ele>
  <time>2026-09-01T01:18:13Z</time>
  <course>185.35</course>
  <speed>0.0282842712474619</speed>
  <fix>3d</fix>
</trkpt>
<trkpt lat="33.810313" lon="-118.3938671">
  <ele>-7.56</ele>
  <time>2026-09-01T01:18:13Z</time>
  <course>275.0</course>
  <speed>0.0</speed>
  <fix>3d</fix>
</trkpt>
<trkpt lat="33.8103131" lon="-118.3938672">
  <ele>-7.997</ele>
  <time>2026-09-01T01:18:13Z</time>
  <course>185.36</course>
  <speed>0.0282842712474619</speed>
  <fix>3d</fix>
</trkpt>
<trkpt lat="33.8103131" lon="-118.3938672">
  <ele>-8.065</ele>
  <time>2026-09-01T01:18:13Z</time>
  <course>185.36</course>
  <speed>0.0282842712474619</speed>
  <fix>3d</fix>
</trkpt>
<trkpt lat="33.810313" lon="-118.3938671">
  <ele>-7.56</ele>
  <time>2026-09-01T01:18:13Z</time>
  <course>275.0</course>
  <speed>0.0</speed>
  <fix>3d</fix>
</trkpt>
<trkpt lat="33.8103131" lon="-118.3938672">
  <ele>-8.092</ele>
  <time>2026-09-01T01:18:13Z</time>
  <course>185.36</course>
  <speed>0.0282842712474619</speed>
  <fix>3d</fix>
</trkpt>
<trkpt lat="33.8103132" lon="-118.3938672">
  <ele>-8.163</ele>
  <time>2026-09-01T01:18:13Z</time>
  <course>185.37</course>
  <speed>0.0282842712474619</speed>
  <fix>3d</fix>
</trkpt>
<trkpt lat="33.810313" lon="-118.3938671">
  <ele>-7.75</ele>
  <time>2026-09-01T01:18:13Z</time>
  <course>275.0</course>
  <speed>0.0</speed>
  <fix>3d</fix>
</trkpt>
<trkpt lat="33.8103131" lon="-118.3938672">
  <ele>-8.198</ele>
  <time>2026-09-01T01:18:13Z</time>
  <course>185.37</course>
  <speed>0.0282842712474619</speed>
  <fix>3d</fix>
</trkpt>
<trkpt lat="33.8103132" lon="-118.3938672">
  <ele>-8.263</ele>
  <time>2026-09-01T01:18:13Z</time>
  <course>185.38</course>
  <speed>0.0282842712474619</speed>
  <fix>3d</fix>
</trkpt>
<trkpt lat="33.810313" lon="-118.3938671">
  <ele>-7.75</ele>
  <time>2026-09-01T01:18:13Z</time>
  <course>275.0</course>
  <speed>0.0</speed>
  <fix>3d</fix>
</trkpt>
<trkpt lat="33.8103132" lon="-118.3938672">
  <ele>-8.293</ele>
  <time>2026-09-01T01:18:13Z</time>
  <course>185.38</course>
  <speed>0.0282842712474619</speed>
  <fix>3d</fix>
</trkpt>
<trkpt lat="33.8103132" lon="-118.3938672">
  <ele>-8.362</ele>
  <time>2026-09-01T01:18:13Z</time>
  <course>185.38</course>
  <speed>0.0282842712474619</speed>
  <fix>3d</fix>
</trkpt>
<trkpt lat="33.810313" lon="-118.3938671">
  <ele>-7.94</ele>
  <time>2026-09-01T01:18:13Z</time>
  <course>275.0</course>
  <speed>0.0</speed>
  <fix>3d</fix>
</trkpt>
<trkpt lat="33.8103132" lon="-118.3938672">
  <ele>-8.364</ele>
  <time>2026-09-01T01:18:13Z</time>
  <course>185.38</course>
  <speed>0.0282842712474619</speed>
  <fix>3d</fix>
</trkpt>
<trkpt lat="33.8103132" lon="-118.3938672">
  <ele>-8.46</ele>
  <time>2026-09-01T01:18:13Z</time>
  <course>185.39</course>
  <speed>0.0282842712474619</speed>
  <fix>3d</fix>
</trkpt>
<trkpt lat="33.810313" lon="-118.3938671">
  <ele>-7.94</ele>
  <time>2026-09-01T01:18:13Z</time>
  <course>275.0</course>
  <speed>0.0</speed>
  <fix>3d</fix>
</trkpt>
<trkpt lat="33.8103132" lon="-118.3938672">
  <ele>-8.489</ele>
  <time>2026-09-01T01:18:13Z</time>
  <course>185.39</course>
  <speed>0.0282842712474619</speed>
  <fix>3d</fix>
</trkpt>
<trkpt lat="33.8103132" lon="-118.3938672">
  <ele>-8.558</ele>
  <time>2026-09-01T01:18:13Z</time>
  <course>185.4</course>
  <speed>0.0282842712474619</speed>
  <fix>3d</fix>
</trkpt>
<trkpt lat="33.810313" lon="-118.3938671">
  <ele>-8.13</ele>
  <time>2026-09-01T01:18:13Z</time>
  <course>275.0</course>
  <speed>0.0</speed>
  <fix>3d</fix>
</trkpt>
<trkpt lat="33.8103132" lon="-118.3938672">
  <ele>-8.592</ele>
  <time>2026-09-01T01:18:13Z</time>
  <course>185.4</course>
  <speed>0.0282842712474619</speed>
  <fix>3d</fix>
</trkpt>
<trkpt lat="33.8103132" lon="-118.3938672">
  <ele>-8.656</ele>
  <time>2026-09-01T01:18:13Z</time>
  <course>185.4</course>
  <speed>0.0282842712474619</speed>
  <fix>3d</fix>
</trkpt>
<trkpt lat="33.810313" lon="-118.3938671">
  <ele>-8.13</ele>
  <time>2026-09-01T01:18:13Z</time>
  <course>275.0</course>
  <speed>0.0</speed>
  <fix>3d</fix>
</trkpt>
<trkpt lat="33.8103132" lon="-118.3938672">
  <ele>-8.686</ele>
  <time>2026-09-01T01:18:13Z</time>
  <course>185.41</course>
  <speed>0.0282842712474619</speed>
  <fix>3d</fix>
</trkpt>
<trkpt lat="33.8103132" lon="-118.3938672">
  <ele>-8.755</ele>
  <time>2026-09-01T01:18:13Z</time>
  <course>185.41</course>
  <speed>0.0282842712474619</speed>
  <fix>3d</fix>
</trkpt>
<trkpt lat="33.810313" lon="-118.3938671">
  <ele>-8.32</ele>
  <time>2026-09-01T01:18:13Z</time>
  <course>275.0</course>
  <speed>0.0</speed>
  <fix>3d</fix>
</trkpt>
<trkpt lat="33.8103132" lon="-118.3938672">
  <ele>-8.791</ele>
  <time>2026-09-01T01:18:13Z</time>
  <course>185.41</course>
  <speed>0.0282842712474619</speed>
  <fix>3d</fix>
</trkpt>
<trkpt lat="33.8103132" lon="-118.3938673">
  <ele>-8.852</ele>
  <time>2026-09-01T01:18:13Z</time>
  <course>185.42</course>
  <speed>0.03605551275463989</speed>
  <fix>3d</fix>
</trkpt>
<trkpt lat="33.810313" lon="-118.3938671">
  <ele>-8.32</ele>
  <time>2026-09-01T01:18:13Z</time>
  <course>275.0</course>
  <speed>0.0</speed>
  <fix>3d</fix>
</trkpt>
<trkpt lat="33.8103132" lon="-118.3938673">
  <ele>-8.854</ele>
  <time>2026-09-01T01:18:13Z</time>
  <course>185.42</course>
  <speed>0.03605551275463989</speed>
  <fix>3d</fix>
</trkpt>
<trkpt lat="33.8103132" lon="-118.3938673">
  <ele>-8.95</ele>
  <time>2026-09-01T01:18:13Z</time>
  <course>185.43</course>
  <speed>0.03605551275463989</speed>
  <fix>3d</fix>
</trkpt>
<trkpt lat="33.810313" lon="-118.3938671">
  <ele>-8.51</ele>
  <time>2026-09-01T01:18:13Z</time>
  <course>275.0</course>
  <speed>0.0</speed>
  <fix>3d</fix>
</trkpt>
<trkpt lat="33.8103132" lon="-118.3938673">
  <ele>-8.982</ele>
  <time>2026-09-01T01:18:13Z</time>
  <course>185.43</course>
  <speed>0.03605551275463989</speed>
  <fix>3d</fix>
</trkpt>
<trkpt lat="33.8103132" lon="-118.3938673">
  <ele>-9.048</ele>
  <time>2026-09-01T01:18:13Z</time>
  <course>185.43</course>
  <speed>0.03605551275463989</speed>
  <fix>3d</fix>
</trkpt>
<trkpt lat="33.810313" lon="-118.3938671">
  <ele>-8.51</ele>
  <time>2026-09-01T01:18:13Z</time>
  <course>275.0</course>
  <speed>0.0</speed>
  <fix>3d</fix>
</trkpt>
<trkpt lat="33.8103132" lon="-118.3938673">
  <ele>-9.075</ele>
  <time>2026-09-01T01:18:13Z</time>
  <course>185.44</course>
  <speed>0.03605551275463989</speed>
  <fix>3d</fix>
</trkpt>
<trkpt lat="33.8103132" lon="-118.3938673">
  <ele>-9.145</ele>
  <time>2026-09-01T01:18:13Z</time>
  <course>185.44</course>
  <speed>0.03605551275463989</speed>
  <fix>3d</fix>
</trkpt>
<trkpt lat="33.810313" lon="-118.3938671">
  <ele>-8.7</ele>
  <time>2026-09-01T01:18:13Z</time>
  <course>275.0</course>
  <speed>0.0</speed>
  <fix>3d</fix>
</trkpt>
<trkpt lat="33.8103132" lon="-118.3938673">
  <ele>-9.176</ele>
  <time>2026-09-01T01:18:13Z</time>
  <course>185.44</course>
  <speed>0.03605551275463989</speed>
  <fix>3d</fix>
</trkpt>
<trkpt lat="33.8103132" lon="-118.3938673">
  <ele>-9.242</ele>
  <time>2026-09-01T01:18:13Z</time>
  <course>185.45</course>
  <speed>0.03605551275463989</speed>
  <fix>3d</fix>
</trkpt>
<trkpt lat="33.810313" lon="-118.3938671">
  <ele>-8.7</ele>
  <time>2026-09-01T01:18:13Z</time>
  <course>275.0</course>
  <speed>0.0</speed>
  <fix>3d</fix>
</trkpt>
<trkpt lat="33.8103132" lon="-118.3938673">
  <ele>-9.271</ele>
  <time>2026-09-01T01:18:13Z</time>
  <course>185.45</course>
  <speed>0.03605551275463989</speed>
  <fix>3d</fix>
</trkpt>
<trkpt lat="33.8103132" lon="-118.3938673">
  <ele>-9.338</ele>
  <time>2026-09-01T01:18:13Z</time>
  <course>185.46</course>
  <speed>0.03605551275463989</speed>
  <fix>3d</fix>
</trkpt>
<trkpt lat="33.810313" lon="-118.3938671">
  <ele>-8.89</ele>
  <time>2026-09-01T01:18:13Z</time>
  <course>275.0</course>
  <speed>0.0</speed>
  <fix>3d</fix>
</trkpt>
<trkpt lat="33.8103132" lon="-118.3938673">
  <ele>-9.34</ele>
  <time>2026-09-01T01:18:13Z</time>
  <course>185.46</course>
  <speed>0.03605551275463989</speed>
  <fix>3d</fix>
</trkpt>
<trkpt lat="33.8103132" lon="-118.3938673">
  <ele>-9.435</ele>
  <time>2026-09-01T01:18:13Z</time>
  <course>185.46</course>
  <speed>0.03605551275463989</speed>
  <fix>3d</fix>
</trkpt>
<trkpt lat="33.810313" lon="-118.3938671">
  <ele>-8.89</ele>
  <time>2026-09-01T01:18:13Z</time>
  <course>275.0</course>
  <speed>0.0</speed>
  <fix>3d</fix>
</trkpt>
<trkpt lat="33.8103132" lon="-118.3938673">
  <ele>-9.462</ele>
  <time>2026-09-01T01:18:13Z</time>
  <course>185.47</course>
  <speed>0.03605551275463989</speed>
  <fix>3d</fix>
</trkpt>
<trkpt lat="33.8103132" lon="-118.3938673">
  <ele>-9.533</ele>
  <time>2026-09-01T01:18:13Z</time>
  <course>185.47</course>
  <speed>0.03605551275463989</speed>
  <fix>3d</fix>
</trkpt>
<trkpt lat="33.810313" lon="-118.3938671">
  <ele>-9.08</ele>
  <time>2026-09-01T01:18:13Z</time>
  <course>275.0</course>
  <speed>0.0</speed>
  <fix>3d</fix>
</trkpt>
<trkpt lat="33.8103132" lon="-118.3938673">
  <ele>-9.565</ele>
  <time>2026-09-01T01:18:13Z</time>
  <course>185.47</course>
  <speed>0.03605551275463989</speed>
  <fix>3d</fix>
</trkpt>
<trkpt lat="33.8103132" lon="-118.3938673">
  <ele>-9.631</ele>
  <time>2026-09-01T01:18:13Z</time>
  <course>185.48</course>
  <speed>0.03605551275463989</speed>
  <fix>3d</fix>
</trkpt>
<trkpt lat="33.810313" lon="-118.3938671">
  <ele>-9.08</ele>
  <time>2026-09-01T01:18:13Z</time>
  <course>275.0</course>
  <speed>0.0</speed>
  <fix>3d</fix>
</trkpt>
<trkpt lat="33.8103132" lon="-118.3938673">
  <ele>-9.66</ele>
  <time>2026-09-01T01:18:13Z</time>
  <course>185.48</course>
  <speed>0.03605551275463989</speed>
  <fix>3d</fix>
</trkpt>
<trkpt lat="33.8103132" lon="-118.3938673">
  <ele>-9.728</ele>
  <time>2026-09-01T01:18:13Z</time>
  <course>185.49</course>
  <speed>0.03605551275463989</speed>
  <fix>3d</fix>
</trkpt>
<trkpt lat="33.810313" lon="-118.3938671">
  <ele>-9.27</ele>
  <time>2026-09-01T01:18:13Z</time>
  <course>275.0</course>
  <speed>0.0</speed>
  <fix>3d</fix>
</trkpt>
<trkpt lat="33.8103132" lon="-118.3938673">
  <ele>-9.76</ele>
  <time>2026-09-01T01:18:13Z</time>
  <course>185.49</course>
  <speed>0.03605551275463989</speed>
  <fix>3d</fix>
</trkpt>
<trkpt lat="33.8103132" lon="-118.3938673">
  <ele>-9.826</ele>
  <time>2026-09-01T01:18:13Z</time>
  <course>185.5</course>
  <speed>0.03605551275463989</speed>
  <fix>3d</fix>
</trkpt>
<trkpt lat="33.810313" lon="-118.3938671">
  <ele>-9.27</ele>
  <time>2026-09-01T01:18:13Z</time>
  <course>275.0</course>
  <speed>0.0</speed>
  <fix>3d</fix>
</trkpt>
<trkpt lat="33.8103132" lon="-118.3938673">
  <ele>-9.828</ele>
  <time>2026-09-01T01:18:13Z</time>
  <course>185.5</course>
  <speed>0.03605551275463989</speed>
  <fix>3d</fix>
</trkpt>
<trkpt lat="33.8103132" lon="-118.3938673">
  <ele>-9.923</ele>
  <time>2026-09-01T01:18:13Z</time>
  <course>185.5</course>
  <speed>0.03605551275463989</speed>
  <fix>3d</fix>
</trkpt>
<trkpt lat="33.810313" lon="-118.3938671">
  <ele>-9.46</ele>
  <time>2026-09-01T01:18:13Z</time>
  <course>275.0</course>
  <speed>0.0</speed>
  <fix>3d</fix>
</trkpt>
<trkpt lat="33.8103132" lon="-118.3938673">
  <ele>-9.959</ele>
  <time>2026-09-01T01:18:13Z</time>
  <course>185.51</course>
  <speed>0.03605551275463989</speed>
  <fix>3d</fix>
</trkpt>
<trkpt lat="33.8103132" lon="-118.3938673">
  <ele>-10.018</ele>
  <time>2026-09-01T01:18:13Z</time>
  <course>185.51</course>
  <speed>0.03605551275463989</speed>
  <fix>3d</fix>
</trkpt>
<trkpt lat="33.810313" lon="-118.3938671">
  <ele>-9.46</ele>
  <time>2026-09-01T01:18:13Z</time>
  <course>275.0</course>
  <speed>0.0</speed>
  <fix>3d</fix>
</trkpt>
<trkpt lat="33.8103132" lon="-118.3938673">
  <ele>-10.047</ele>
  <time>2026-09-01T01:18:13Z</time>
  <course>185.51</course>
  <speed>0.03605551275463989</speed>
  <fix>3d</fix>
</trkpt>
<trkpt lat="33.8103132" lon="-118.3938673">
  <ele>-10.114</ele>
  <time>2026-09-01T01:18:13Z</time>
  <course>185.52</course>
  <speed>0.03605551275463989</speed>
  <fix>3d</fix>
</trkpt>
<trkpt lat="33.810313" lon="-118.3938671">
  <ele>-9.66</ele>
  <time>2026-09-01T01:18:13Z</time>
  <course>275.0</course>
  <speed>0.0</speed>
  <fix>3d</fix>
</trkpt>
<trkpt lat="33.8103132" lon="-118.3938673">
  <ele>-10.147</ele>
  <time>2026-09-01T01:18:13Z</time>
  <course>185.52</course>
  <speed>0.03605551275463989</speed>
  <fix>3d</fix>
</trkpt>
<trkpt lat="33.8103132" lon="-118.3938673">
  <ele>-10.209</ele>
  <time>2026-09-01T01:18:13Z</time>
  <course>185.53</course>
  <speed>0.03605551275463989</speed>
  <fix>3d</fix>
</trkpt>
<trkpt lat="33.810313" lon="-118.3938671">
  <ele>-9.66</ele>
  <time>2026-09-01T01:18:13Z</time>
  <course>275.0</course>
  <speed>0.0</speed>
  <fix>3d</fix>
</trkpt>
<trkpt lat="33.8103132" lon="-118.3938673">
  <ele>-10.238</ele>
  <time>2026-09-01T01:18:13Z</time>
  <course>185.53</course>
  <speed>0.03605551275463989</speed>
  <fix>3d</fix>
</trkpt>
<trkpt lat="33.8103132" lon="-118.3938673">
  <ele>-10.306</ele>
  <time>2026-09-01T01:18:13Z</time>
  <course>185.53</course>
  <speed>0.03605551275463989</speed>
  <fix>3d</fix>
</trkpt>
<trkpt lat="33.810313" lon="-118.3938671">
  <ele>-9.85</ele>
  <time>2026-09-01T01:18:13Z</time>
  <course>275.0</course>
  <speed>0.0</speed>
  <fix>3d</fix>
</trkpt>
<trkpt lat="33.8103132" lon="-118.3938673">
  <ele>-10.308</ele>
  <time>2026-09-01T01:18:13Z</time>
  <course>185.53</course>
  <speed>0.03605551275463989</speed>
  <fix>3d</fix>
</trkpt>
<trkpt lat="33.8103132" lon="-118.3938673">
  <ele>-10.404</ele>
  <time>2026-09-01T01:18:13Z</time>
  <course>185.54</course>
  <speed>0.03605551275463989</speed>
  <fix>3d</fix>
</trkpt>
<trkpt lat="33.810313" lon="-118.3938671">
  <ele>-9.85</ele>
  <time>2026-09-01T01:18:13Z</time>
  <course>275.0</course>
  <speed>0.0</speed>
  <fix>3d</fix>
</trkpt>
<trkpt lat="33.8103132" lon="-118.3938673">
  <ele>-10.434</ele>
  <time>2026-09-01T01:18:13Z</time>
  <course>185.54</course>
  <speed>0.03605551275463989</speed>
  <fix>3d</fix>
</trkpt>
<trkpt lat="33.8103132" lon="-118.3938673">
  <ele>-10.504</ele>
  <time>2026-09-01T01:18:13Z</time>
  <course>185.55</course>
  <speed>0.03605551275463989</speed>
  <fix>3d</fix>
</trkpt>
<trkpt lat="33.810313" lon="-118.3938671">
  <ele>-10.04</ele>
  <time>2026-09-01T01:18:13Z</time>
  <course>275.0</course>
  <speed>0.0</speed>
  <fix>3d</fix>
</trkpt>
<trkpt lat="33.8103132" lon="-118.3938673">
  <ele>-10.538</ele>
  <time>2026-09-01T01:18:13Z</time>
  <course>185.55</course>
  <speed>0.03605551275463989</speed>
  <fix>3d</fix>
</trkpt>
<trkpt lat="33.8103132" lon="-118.3938673">
  <ele>-10.603</ele>
  <time>2026-09-01T01:18:13Z</time>
  <course>185.56</course>
  <speed>0.03605551275463989</speed>
  <fix>3d</fix>
</trkpt>
<trkpt lat="33.810313" lon="-118.3938671">
  <ele>-10.04</ele>
  <time>2026-09-01T01:18:13Z</time>
  <course>275.0</course>
  <speed>0.0</speed>
  <fix>3d</fix>
</trkpt>
<trkpt lat="33.8103132" lon="-118.3938673">
  <ele>-10.633</ele>
  <time>2026-09-01T01:18:13Z</time>
  <course>185.56</course>
  <speed>0.03605551275463989</speed>
  <fix>3d</fix>
</trkpt>
<trkpt lat="33.8103132" lon="-118.3938673">
  <ele>-10.702</ele>
  <time>2026-09-01T01:18:13Z</time>
  <course>185.57</course>
  <speed>0.03605551275463989</speed>
  <fix>3d</fix>
</trkpt>
<trkpt lat="33.810313" lon="-118.3938671">
  <ele>-10.24</ele>
  <time>2026-09-01T01:18:13Z</time>
  <course>275.0</course>
  <speed>0.0</speed>
  <fix>3d</fix>
</trkpt>
<trkpt lat="33.8103132" lon="-118.3938673">
  <ele>-10.732</ele>
  <time>2026-09-01T01:18:13Z</time>
  <course>185.57</course>
  <speed>0.03605551275463989</speed>
  <fix>3d</fix>
</trkpt>
<trkpt lat="33.8103132" lon="-118.3938673">
  <ele>-10.801</ele>
  <time>2026-09-01T01:18:13Z</time>
  <course>185.57</course>
  <speed>0.03605551275463989</speed>
  <fix>3d</fix>
</trkpt>
<trkpt lat="33.810313" lon="-118.3938671">
  <ele>-10.24</ele>
  <time>2026-09-01T01:18:13Z</time>
  <course>275.0</course>
  <speed>0.0</speed>
  <fix>3d</fix>
</trkpt>
<trkpt lat="33.8103132" lon="-118.3938673">
  <ele>-10.802</ele>
  <time>2026-09-01T01:18:13Z</time>
  <course>185.57</course>
  <speed>0.03605551275463989</speed>
  <fix>3d</fix>
</trkpt>
<trkpt lat="33.8103132" lon="-118.3938673">
  <ele>-10.9</ele>
  <time>2026-09-01T01:18:13Z</time>
  <course>185.58</course>
  <speed>0.03605551275463989</speed>
  <fix>3d</fix>
</trkpt>
<trkpt lat="33.810313" lon="-118.3938671">
  <ele>-10.44</ele>
  <time>2026-09-01T01:18:13Z</time>
  <course>275.0</course>
  <speed>0.0</speed>
  <fix>3d</fix>
</trkpt>
<trkpt lat="33.8103132" lon="-118.3938673">
  <ele>-10.905</ele>
  <time>2026-09-01T01:18:13Z</time>
  <course>185.58</course>
  <speed>0.03605551275463989</speed>
  <fix>3d</fix>
</trkpt>
<trkpt lat="33.8103132" lon="-118.3938673">
  <ele>-11.0</ele>
  <time>2026-09-01T01:18:13Z</time>
  <course>185.59</course>
  <speed>0.03605551275463989</speed>
  <fix>3d</fix>
</trkpt>
<trkpt lat="33.810313" lon="-118.3938671">
  <ele>-10.44</ele>
  <time>2026-09-01T01:18:13Z</time>
  <course>275.0</course>
  <speed>0.0</speed>
  <fix>3d</fix>
</trkpt>
<trkpt lat="33.8103132" lon="-118.3938673">
  <ele>-11.002</ele>
  <time>2026-09-01T01:18:13Z</time>
  <course>185.59</course>
  <speed>0.03605551275463989</speed>
  <fix>3d</fix>
</trkpt>
<trkpt lat="33.8103132" lon="-118.3938673">
  <ele>-11.099</ele>
  <time>2026-09-01T01:18:13Z</time>
  <course>185.6</course>
  <speed>0.03605551275463989</speed>
  <fix>3d</fix>
</trkpt>
<trkpt lat="33.810313" lon="-118.3938671">
  <ele>-10.63</ele>
  <time>2026-09-01T01:18:13Z</time>
  <course>275.0</course>
  <speed>0.0</speed>
  <fix>3d</fix>
</trkpt>
<trkpt lat="33.8103132" lon="-118.3938673">
  <ele>-11.134</ele>
  <time>2026-09-01T01:18:13Z</time>
  <course>185.6</course>
  <speed>0.03605551275463989</speed>
  <fix>3d</fix>
</trkpt>
<trkpt lat="33.8103132" lon="-118.3938673">
  <ele>-11.198</ele>
  <time>2026-09-01T01:18:13Z</time>
  <course>185.61</course>
  <speed>0.03605551275463989</speed>
  <fix>3d</fix>
</trkpt>
<trkpt lat="33.810313" lon="-118.3938671">
  <ele>-10.63</ele>
  <time>2026-09-01T01:18:13Z</time>
  <course>275.0</course>
  <speed>0.0</speed>
  <fix>3d</fix>
</trkpt>
<trkpt lat="33.8103132" lon="-118.3938673">
  <ele>-11.228</ele>
  <time>2026-09-01T01:18:13Z</time>
  <course>185.61</course>
  <speed>0.03605551275463989</speed>
  <fix>3d</fix>
</trkpt>
<trkpt lat="33.8103132" lon="-118.3938673">
  <ele>-11.297</ele>
  <time>2026-09-01T01:18:13Z</time>
  <course>185.61</course>
  <speed>0.03605551275463989</speed>
  <fix>3d</fix>
</trkpt>
<trkpt lat="33.810313" lon="-118.3938671">
  <ele>-10.83</ele>
  <time>2026-09-01T01:18:13Z</time>
  <course>275.0</course>
  <speed>0.0</speed>
  <fix>3d</fix>
</trkpt>
<trkpt lat="33.8103132" lon="-118.3938673">
  <ele>-11.3</ele>
  <time>2026-09-01T01:18:13Z</time>
  <course>185.61</course>
  <speed>0.03605551275463989</speed>
  <fix>3d</fix>
</trkpt>
<trkpt lat="33.8103132" lon="-118.3938673">
  <ele>-11.395</ele>
  <time>2026-09-01T01:18:13Z</time>
  <course>185.62</course>
  <speed>0.03605551275463989</speed>
  <fix>3d</fix>
</trkpt>
<trkpt lat="33.810313" lon="-118.3938671">
  <ele>-10.83</ele>
  <time>2026-09-01T01:18:13Z</time>
  <course>275.0</course>
  <speed>0.0</speed>
  <fix>3d</fix>
</trkpt>
<trkpt lat="33.8103132" lon="-118.3938673">
  <ele>-11.424</ele>
  <time>2026-09-01T01:18:13Z</time>
  <course>185.62</course>
  <speed>0.03605551275463989</speed>
  <fix>3d</fix>
</trkpt>
<trkpt lat="33.8103132" lon="-118.3938673">
  <ele>-11.492</ele>
  <time>2026-09-01T01:18:13Z</time>
  <course>185.63</course>
  <speed>0.03605551275463989</speed>
  <fix>3d</fix>
</trkpt>
<trkpt lat="33.810313" lon="-118.3938672">
  <ele>-11.02</ele>
  <time>2026-09-01T01:18:13Z</time>
  <course>275.0</course>
  <speed>0.0</speed>
  <fix>3d</fix>
</trkpt>
<trkpt lat="33.8103132" lon="-118.3938673">
  <ele>-11.521</ele>
  <time>2026-09-01T01:18:13Z</time>
  <course>185.63</course>
  <speed>0.03605551275463989</speed>
  <fix>3d</fix>
</trkpt>
<trkpt lat="33.8103132" lon="-118.3938673">
  <ele>-11.589</ele>
  <time>2026-09-01T01:18:13Z</time>
  <course>185.64</course>
  <speed>0.03605551275463989</speed>
  <fix>3d</fix>
</trkpt>
<trkpt lat="33.810313" lon="-118.3938672">
  <ele>-11.02</ele>
  <time>2026-09-01T01:18:13Z</time>
  <course>275.0</course>
  <speed>0.0</speed>
  <fix>3d</fix>
</trkpt>
<trkpt lat="33.8103132" lon="-118.3938673">
  <ele>-11.618</ele>
  <time>2026-09-01T01:18:13Z</time>
  <course>185.64</course>
  <speed>0.03605551275463989</speed>
  <fix>3d</fix>
</trkpt>
<trkpt lat="33.8103132" lon="-118.3938673">
  <ele>-11.686</ele>
  <time>2026-09-01T01:18:13Z</time>
  <course>185.64</course>
  <speed>0.03605551275463989</speed>
  <fix>3d</fix>
</trkpt>
<trkpt lat="33.810313" lon="-118.3938672">
  <ele>-11.21</ele>
  <time>2026-09-01T01:18:13Z</time>
  <course>275.0</course>
  <speed>0.0</speed>
  <fix>3d</fix>
</trkpt>
<trkpt lat="33.8103132" lon="-118.3938673">
  <ele>-11.718</ele>
  <time>2026-09-01T01:18:13Z</time>
  <course>185.64</course>
  <speed>0.03605551275463989</speed>
  <fix>3d</fix>
</trkpt>
<trkpt lat="33.8103132" lon="-118.3938673">
  <ele>-11.785</ele>
  <time>2026-09-01T01:18:13Z</time>
  <course>185.65</course>
  <speed>0.03605551275463989</speed>
  <fix>3d</fix>
</trkpt>
<trkpt lat="33.810313" lon="-118.3938672">
  <ele>-11.21</ele>
  <time>2026-09-01T01:18:13Z</time>
  <course>275.0</course>
  <speed>0.0</speed>
  <fix>3d</fix>
</trkpt>
<trkpt lat="33.8103132" lon="-118.3938673">
  <ele>-11.787</ele>
  <time>2026-09-01T01:18:13Z</time>
  <course>185.65</course>
  <speed>0.03605551275463989</speed>
  <fix>3d</fix>
</trkpt>
<trkpt lat="33.8103132" lon="-118.3938673">
  <ele>-11.882</ele>
  <time>2026-09-01T01:18:13Z</time>
  <course>185.66</course>
  <speed>0.03605551275463989</speed>
  <fix>3d</fix>
</trkpt>
<trkpt lat="33.810313" lon="-118.3938672">
  <ele>-11.4</ele>
  <time>2026-09-01T01:18:13Z</time>
  <course>275.0</course>
  <speed>0.0</speed>
  <fix>3d</fix>
</trkpt>
<trkpt lat="33.8103132" lon="-118.3938673">
  <ele>-11.885</ele>
  <time>2026-09-01T01:18:13Z</time>
  <course>185.66</course>
  <speed>0.03605551275463989</speed>
  <fix>3d</fix>
</trkpt>
<trkpt lat="33.8103132" lon="-118.3938673">
  <ele>-11.979</ele>
  <time>2026-09-01T01:18:13Z</time>
  <course>185.66</course>
  <speed>0.03605551275463989</speed>
  <fix>3d</fix>
</trkpt>
<trkpt lat="33.810313" lon="-118.3938672">
  <ele>-11.4</ele>
  <time>2026-09-01T01:18:13Z</time>
  <course>275.0</course>
  <speed>0.0</speed>
  <fix>3d</fix>
</trkpt>
<trkpt lat="33.8103132" lon="-118.3938673">
  <ele>-12.008</ele>
  <time>2026-09-01T01:18:13Z</time>
  <course>185.67</course>
  <speed>0.03605551275463989</speed>
  <fix>3d</fix>
</trkpt>
<trkpt lat="33.8103132" lon="-118.3938673">
  <ele>-12.076</ele>
  <time>2026-09-01T01:18:13Z</time>
  <course>185.67</course>
  <speed>0.03605551275463989</speed>
  <fix>3d</fix>
</trkpt>
<trkpt lat="33.810313" lon="-118.3938672">
  <ele>-11.59</ele>
  <time>2026-09-01T01:18:13Z</time>
  <course>275.0</course>
  <speed>0.0</speed>
  <fix>3d</fix>
</trkpt>
<trkpt lat="33.8103132" lon="-118.3938673">
  <ele>-12.083</ele>
  <time>2026-09-01T01:18:13Z</time>
  <course>185.67</course>
  <speed>0.03605551275463989</speed>
  <fix>3d</fix>
</trkpt>
<trkpt lat="33.8103132" lon="-118.3938673">
  <ele>-12.173</ele>
  <time>2026-09-01T01:18:13Z</time>
  <course>185.68</course>
  <speed>0.03605551275463989</speed>
  <fix>3d</fix>
</trkpt>
<trkpt lat="33.810313" lon="-118.3938672">
  <ele>-11.59</ele>
  <time>2026-09-01T01:18:13Z</time>
  <course>275.0</course>
  <speed>0.0</speed>
  <fix>3d</fix>
</trkpt>
<trkpt lat="33.8103132" lon="-118.3938674">
  <ele>-12.197</ele>
  <time>2026-09-01T01:18:13Z</time>
  <course>185.68</course>
  <speed>0.03605551275463989</speed>
  <fix>3d</fix>
</trkpt>
<trkpt lat="33.8103132" lon="-118.3938674">
  <ele>-12.27</ele>
  <time>2026-09-01T01:18:13Z</time>
  <course>185.69</course>
  <speed>0.03605551275463989</speed>
  <fix>3d</fix>
</trkpt>
<trkpt lat="33.810313" lon="-118.3938672">
  <ele>-11.78</ele>
  <time>2026-09-01T01:18:13Z</time>
  <course>275.0</course>
  <speed>0.0</speed>
  <fix>3d</fix>
</trkpt>
<trkpt lat="33.8103132" lon="-118.3938674">
  <ele>-12.272</ele>
  <time>2026-09-01T01:18:13Z</time>
  <course>185.69</course>
  <speed>0.03605551275463989</speed>
  <fix>3d</fix>
</trkpt>
<trkpt lat="33.8103132" lon="-118.3938674">
  <ele>-12.368</ele>
  <time>2026-09-01T01:18:13Z</time>
  <course>185.69</course>
  <speed>0.03605551275463989</speed>
  <fix>3d</fix>
</trkpt>
<trkpt lat="33.810313" lon="-118.3938672">
  <ele>-11.78</ele>
  <time>2026-09-01T01:18:13Z</time>
  <course>275.0</course>
  <speed>0.0</speed>
  <fix>3d</fix>
</trkpt>
<trkpt lat="33.8103132" lon="-118.3938674">
  <ele>-12.4</ele>
  <time>2026-09-01T01:18:13Z</time>
  <course>185.7</course>
  <speed>0.03605551275463989</speed>
  <fix>3d</fix>
</trkpt>
<trkpt lat="33.8103132" lon="-118.3938674">
  <ele>-12.467</ele>
  <time>2026-09-01T01:18:13Z</time>
  <course>185.7</course>
  <speed>0.03605551275463989</speed>
  <fix>3d</fix>
</trkpt>
<trkpt lat="33.810313" lon="-118.3938672">
  <ele>-11.97</ele>
  <time>2026-09-01T01:18:13Z</time>
  <course>275.0</course>
  <speed>0.0</speed>
  <fix>3d</fix>
</trkpt>
<trkpt lat="33.8103132" lon="-118.3938674">
  <ele>-12.496</ele>
  <time>2026-09-01T01:18:13Z</time>
  <course>185.7</course>
  <speed>0.03605551275463989</speed>
  <fix>3d</fix>
</trkpt>
<trkpt lat="33.8103132" lon="-118.3938674">
  <ele>-12.565</ele>
  <time>2026-09-01T01:18:13Z</time>
  <course>185.71</course>
  <speed>0.03605551275463989</speed>
  <fix>3d</fix>
</trkpt>
<trkpt lat="33.810313" lon="-118.3938672">
  <ele>-11.97</ele>
  <time>2026-09-01T01:18:13Z</time>
  <course>275.0</course>
  <speed>0.0</speed>
  <fix>3d</fix>
</trkpt>
<trkpt lat="33.8103132" lon="-118.3938674">
  <ele>-12.598</ele>
  <time>2026-09-01T01:18:13Z</time>
  <course>185.71</course>
  <speed>0.03605551275463989</speed>
  <fix>3d</fix>
</trkpt>
<trkpt lat="33.8103132" lon="-118.3938674">
  <ele>-12.662</ele>
  <time>2026-09-01T01:18:13Z</time>
  <course>185.71</course>
  <speed>0.0282842712474619</speed>
  <fix>3d</fix>
</trkpt>
<trkpt lat="33.810313" lon="-118.3938672">
  <ele>-12.16</ele>
  <time>2026-09-01T01:18:13Z</time>
  <course>275.0</course>
  <speed>0.0</speed>
  <fix>3d</fix>
</trkpt>
<trkpt lat="33.8103132" lon="-118.3938674">
  <ele>-12.691</ele>
  <time>2026-09-01T01:18:13Z</time>
  <course>185.72</course>
  <speed>0.0282842712474619</speed>
  <fix>3d</fix>
</trkpt>
<trkpt lat="33.8103132" lon="-118.3938674">
  <ele>-12.76</ele>
  <time>2026-09-01T01:18:13Z</time>
  <course>185.72</course>
  <speed>0.0282842712474619</speed>
  <fix>3d</fix>
</trkpt>
<trkpt lat="33.810313" lon="-118.3938672">
  <ele>-12.16</ele>
  <time>2026-09-01T01:18:13Z</time>
  <course>275.0</course>
  <speed>0.0</speed>
  <fix>3d</fix>
</trkpt>
<trkpt lat="33.8103132" lon="-118.3938674">
  <ele>-12.791</ele>
  <time>2026-09-01T01:18:13Z</time>
  <course>185.72</course>
  <speed>0.0282842712474619</speed>
  <fix>3d</fix>
</trkpt>
<trkpt lat="33.8103132" lon="-118.3938674">
  <ele>-12.858</ele>
  <time>2026-09-01T01:18:13Z</time>
  <course>185.73</course>
  <speed>0.0282842712474619</speed>
  <fix>3d</fix>
</trkpt>
<trkpt lat="33.810313" lon="-118.3938672">
  <ele>-12.35</ele>
  <time>2026-09-01T01:18:13Z</time>
  <course>275.0</course>
  <speed>0.0</speed>
  <fix>3d</fix>
</trkpt>
<trkpt lat="33.8103132" lon="-118.3938674">
  <ele>-12.887</ele>
  <time>2026-09-01T01:18:13Z</time>
  <course>185.73</course>
  <speed>0.0282842712474619</speed>
  <fix>3d</fix>
</trkpt>
<trkpt lat="33.8103132" lon="-118.3938674">
  <ele>-12.955</ele>
  <time>2026-09-01T01:18:13Z</time>
  <course>185.74</course>
  <speed>0.0282842712474619</speed>
  <fix>3d</fix>
</trkpt>
<trkpt lat="33.810313" lon="-118.3938672">
  <ele>-12.35</ele>
  <time>2026-09-01T01:18:13Z</time>
  <course>275.0</course>
  <speed>0.0</speed>
  <fix>3d</fix>
</trkpt>
<trkpt lat="33.8103132" lon="-118.3938674">
  <ele>-12.958</ele>
  <time>2026-09-01T01:18:13Z</time>
  <course>185.74</course>
  <speed>0.0282842712474619</speed>
  <fix>3d</fix>
</trkpt>
<trkpt lat="33.8103132" lon="-118.3938674">
  <ele>-13.052</ele>
  <time>2026-09-01T01:18:13Z</time>
  <course>185.74</course>
  <speed>0.0282842712474619</speed>
  <fix>3d</fix>
</trkpt>
<trkpt lat="33.810313" lon="-118.3938672">
  <ele>-12.54</ele>
  <time>2026-09-01T01:18:13Z</time>
  <course>275.0</course>
  <speed>0.0</speed>
  <fix>3d</fix>
</trkpt>
<trkpt lat="33.8103132" lon="-118.3938674">
  <ele>-13.081</ele>
  <time>2026-09-01T01:18:13Z</time>
  <course>185.75</course>
  <speed>0.0282842712474619</speed>
  <fix>3d</fix>
</trkpt>
<trkpt lat="33.8103132" lon="-118.3938674">
  <ele>-13.149</ele>
  <time>2026-09-01T01:18:13Z</time>
  <course>185.75</course>
  <speed>0.0282842712474619</speed>
  <fix>3d</fix>
</trkpt>
<trkpt lat="33.810313" lon="-118.3938672">
  <ele>-12.54</ele>
  <time>2026-09-01T01:18:13Z</time>
  <course>275.0</course>
  <speed>0.0</speed>
  <fix>3d</fix>
</trkpt>
<trkpt lat="33.8103132" lon="-118.3938674">
  <ele>-13.181</ele>
  <time>2026-09-01T01:18:13Z</time>
  <course>185.75</course>
  <speed>0.0282842712474619</speed>
  <fix>3d</fix>
</trkpt>
<trkpt lat="33.8103132" lon="-118.3938674">
  <ele>-13.246</ele>
  <time>2026-09-01T01:18:13Z</time>
  <course>185.76</course>
  <speed>0.0282842712474619</speed>
  <fix>3d</fix>
</trkpt>
<trkpt lat="33.810313" lon="-118.3938672">
  <ele>-12.73</ele>
  <time>2026-09-01T01:18:13Z</time>
  <course>275.0</course>
  <speed>0.0</speed>
  <fix>3d</fix>
</trkpt>
<trkpt lat="33.8103132" lon="-118.3938674">
  <ele>-13.248</ele>
  <time>2026-09-01T01:18:13Z</time>
  <course>185.76</course>
  <speed>0.0282842712474619</speed>
  <fix>3d</fix>
</trkpt>
<trkpt lat="33.8103132" lon="-118.3938674">
  <ele>-13.343</ele>
  <time>2026-09-01T01:18:13Z</time>
  <course>185.77</course>
  <speed>0.0282842712474619</speed>
  <fix>3d</fix>
</trkpt>
<trkpt lat="33.810313" lon="-118.3938672">
  <ele>-12.73</ele>
  <time>2026-09-01T01:18:13Z</time>
  <course>275.0</course>
  <speed>0.0</speed>
  <fix>3d</fix>
</trkpt>
<trkpt lat="33.8103132" lon="-118.3938674">
  <ele>-13.345</ele>
  <time>2026-09-01T01:18:13Z</time>
  <course>185.77</course>
  <speed>0.0282842712474619</speed>
  <fix>3d</fix>
</trkpt>
<trkpt lat="33.8103132" lon="-118.3938674">
  <ele>-13.441</ele>
  <time>2026-09-01T01:18:13Z</time>
  <course>185.77</course>
  <speed>0.0282842712474619</speed>
  <fix>3d</fix>
</trkpt>
<trkpt lat="33.810313" lon="-118.3938672">
  <ele>-12.92</ele>
  <time>2026-09-01T01:18:13Z</time>
  <course>275.0</course>
  <speed>0.0</speed>
  <fix>3d</fix>
</trkpt>
<trkpt lat="33.8103132" lon="-118.3938674">
  <ele>-13.443</ele>
  <time>2026-09-01T01:18:13Z</time>
  <course>185.77</course>
  <speed>0.0282842712474619</speed>
  <fix>3d</fix>
</trkpt>
<trkpt lat="33.8103132" lon="-118.3938674">
  <ele>-13.538</ele>
  <time>2026-09-01T01:18:13Z</time>
  <course>185.78</course>
  <speed>0.0282842712474619</speed>
  <fix>3d</fix>
</trkpt>
<trkpt lat="33.810313" lon="-118.3938672">
  <ele>-12.92</ele>
  <time>2026-09-01T01:18:13Z</time>
  <course>275.0</course>
  <speed>0.0</speed>
  <fix>3d</fix>
</trkpt>
<trkpt lat="33.8103132" lon="-118.3938674">
  <ele>-13.567</ele>
  <time>2026-09-01T01:18:13Z</time>
  <course>185.78</course>
  <speed>0.0282842712474619</speed>
  <fix>3d</fix>
</trkpt>
<trkpt lat="33.8103132" lon="-118.3938674">
  <ele>-13.635</ele>
  <time>2026-09-01T01:18:13Z</time>
  <course>185.79</course>
  <speed>0.0282842712474619</speed>
  <fix>3d</fix>
</trkpt>
<trkpt lat="33.810313" lon="-118.3938672">
  <ele>-13.12</ele>
  <time>2026-09-01T01:18:13Z</time>
  <course>275.0</course>
  <speed>0.0</speed>
  <fix>3d</fix>
</trkpt>
<trkpt lat="33.8103132" lon="-118.3938674">
  <ele>-13.668</ele>
  <time>2026-09-01T01:18:13Z</time>
  <course>185.79</course>
  <speed>0.0282842712474619</speed>
  <fix>3d</fix>
</trkpt>
<trkpt lat="33.8103132" lon="-118.3938674">
  <ele>-13.732</ele>
  <time>2026-09-01T01:18:13Z</time>
  <course>185.79</course>
  <speed>0.0282842712474619</speed>
  <fix>3d</fix>
</trkpt>
<trkpt lat="33.810313" lon="-118.3938672">
  <ele>-13.12</ele>
  <time>2026-09-01T01:18:13Z</time>
  <course>275.0</course>
  <speed>0.0</speed>
  <fix>3d</fix>
</trkpt>
<trkpt lat="33.8103132" lon="-118.3938674">
  <ele>-13.761</ele>
  <time>2026-09-01T01:18:13Z</time>
  <course>185.8</course>
  <speed>0.0282842712474619</speed>
  <fix>3d</fix>
</trkpt>
<trkpt lat="33.8103132" lon="-118.3938674">
  <ele>-13.83</ele>
  <time>2026-09-01T01:18:13Z</time>
  <course>185.8</course>
  <speed>0.0282842712474619</speed>
  <fix>3d</fix>
</trkpt>
<trkpt lat="33.810313" lon="-118.3938672">
  <ele>-13.31</ele>
  <time>2026-09-01T01:18:13Z</time>
  <course>275.0</course>
  <speed>0.0</speed>
  <fix>3d</fix>
</trkpt>
<trkpt lat="33.8103132" lon="-118.3938674">
  <ele>-13.862</ele>
  <time>2026-09-01T01:18:13Z</time>
  <course>185.8</course>
  <speed>0.0282842712474619</speed>
  <fix>3d</fix>
</trkpt>
<trkpt lat="33.8103132" lon="-118.3938674">
  <ele>-13.928</ele>
  <time>2026-09-01T01:18:13Z</time>
  <course>185.81</course>
  <speed>0.0282842712474619</speed>
  <fix>3d</fix>
</trkpt>
<trkpt lat="33.810313" lon="-118.3938672">
  <ele>-13.31</ele>
  <time>2026-09-01T01:18:13Z</time>
  <course>275.0</course>
  <speed>0.0</speed>
  <fix>3d</fix>
</trkpt>
<trkpt lat="33.8103132" lon="-118.3938674">
  <ele>-13.931</ele>
  <time>2026-09-01T01:18:13Z</time>
  <course>185.81</course>
  <speed>0.0282842712474619</speed>
  <fix>3d</fix>
</trkpt>
<trkpt lat="33.8103132" lon="-118.3938674">
  <ele>-14.028</ele>
  <time>2026-09-01T01:18:13Z</time>
  <course>185.81</course>
  <speed>0.0282842712474619</speed>
  <fix>3d</fix>
</trkpt>
<trkpt lat="33.810313" lon="-118.3938672">
  <ele>-13.5</ele>
  <time>2026-09-01T01:18:13Z</time>
  <course>275.0</course>
  <speed>0.0</speed>
  <fix>3d</fix>
</trkpt>
<trkpt lat="33.8103132" lon="-118.3938674">
  <ele>-14.06</ele>
  <time>2026-09-01T01:18:13Z</time>
  <course>185.82</course>
  <speed>0.0282842712474619</speed>
  <fix>3d</fix>
</trkpt>
<trkpt lat="33.8103132" lon="-118.3938674">
  <ele>-14.127</ele>
  <time>2026-09-01T01:18:13Z</time>
  <course>185.82</course>
  <speed>0.0282842712474619</speed>
  <fix>3d</fix>
</trkpt>
<trkpt lat="33.810313" lon="-118.3938672">
  <ele>-13.5</ele>
  <time>2026-09-01T01:18:13Z</time>
  <course>275.0</course>
  <speed>0.0</speed>
  <fix>3d</fix>
</trkpt>
<trkpt lat="33.8103132" lon="-118.3938674">
  <ele>-14.159</ele>
  <time>2026-09-01T01:18:13Z</time>
  <course>185.82</course>
  <speed>0.0282842712474619</speed>
  <fix>3d</fix>
</trkpt>
<trkpt lat="33.8103132" lon="-118.3938674">
  <ele>-14.225</ele>
  <time>2026-09-01T01:18:13Z</time>
  <course>185.83</course>
  <speed>0.0282842712474619</speed>
  <fix>3d</fix>
</trkpt>
<trkpt lat="33.810313" lon="-118.3938672">
  <ele>-13.69</ele>
  <time>2026-09-01T01:18:13Z</time>
  <course>275.0</course>
  <speed>0.0</speed>
  <fix>3d</fix>
</trkpt>
<trkpt lat="33.8103132" lon="-118.3938674">
  <ele>-14.254</ele>
  <time>2026-09-01T01:18:13Z</time>
  <course>185.83</course>
  <speed>0.0282842712474619</speed>
  <fix>3d</fix>
</trkpt>
<trkpt lat="33.8103132" lon="-118.3938674">
  <ele>-14.323</ele>
  <time>2026-09-01T01:18:13Z</time>
  <course>185.83</course>
  <speed>0.0282842712474619</speed>
  <fix>3d</fix>
</trkpt>
<trkpt lat="33.810313" lon="-118.3938672">
  <ele>-13.69</ele>
  <time>2026-09-01T01:18:13Z</time>
  <course>275.0</course>
  <speed>0.0</speed>
  <fix>3d</fix>
</trkpt>
<trkpt lat="33.8103132" lon="-118.3938674">
  <ele>-14.354</ele>
  <time>2026-09-01T01:18:13Z</time>
  <course>185.84</course>
  <speed>0.0282842712474619</speed>
  <fix>3d</fix>
</trkpt>
<trkpt lat="33.8103132" lon="-118.3938674">
  <ele>-14.42</ele>
  <time>2026-09-01T01:18:13Z</time>
  <course>185.84</course>
  <speed>0.0282842712474619</speed>
  <fix>3d</fix>
</trkpt>
<trkpt lat="33.810313" lon="-118.3938672">
  <ele>-13.88</ele>
  <time>2026-09-01T01:18:13Z</time>
  <course>275.0</course>
  <speed>0.0</speed>
  <fix>3d</fix>
</trkpt>
<trkpt lat="33.8103132" lon="-118.3938674">
  <ele>-14.45</ele>
  <time>2026-09-01T01:18:13Z</time>
  <course>185.84</course>
  <speed>0.0282842712474619</speed>
  <fix>3d</fix>
</trkpt>
<trkpt lat="33.8103132" lon="-118.3938674">
  <ele>-14.519</ele>
  <time>2026-09-01T01:18:13Z</time>
  <course>185.85</course>
  <speed>0.0282842712474619</speed>
  <fix>3d</fix>
</trkpt>
<trkpt lat="33.810313" lon="-118.3938672">
  <ele>-13.88</ele>
  <time>2026-09-01T01:18:13Z</time>
  <course>275.0</course>
  <speed>0.0</speed>
  <fix>3d</fix>
</trkpt>
<trkpt lat="33.8103132" lon="-118.3938674">
  <ele>-14.521</ele>
  <time>2026-09-01T01:18:13Z</time>
  <course>185.85</course>
  <speed>0.0282842712474619</speed>
  <fix>3d</fix>
</trkpt>
<trkpt lat="33.8103132" lon="-118.3938674">
  <ele>-14.617</ele>
  <time>2026-09-01T01:18:13Z</time>
  <course>185.85</course>
  <speed>0.0282842712474619</speed>
  <fix>3d</fix>
</trkpt>
<trkpt lat="33.810313" lon="-118.3938673">
  <ele>-14.07</ele>
  <time>2026-09-01T01:18:13Z</time>
  <course>275.0</course>
  <speed>0.0</speed>
  <fix>3d</fix>
</trkpt>
<trkpt lat="33.8103132" lon="-118.3938674">
  <ele>-14.647</ele>
  <time>2026-09-01T01:18:13Z</time>
  <course>185.86</course>
  <speed>0.022360679774997897</speed>
  <fix>3d</fix>
</trkpt>
<trkpt lat="33.8103132" lon="-118.3938674">
  <ele>-14.715</ele>
  <time>2026-09-01T01:18:13Z</time>
  <course>185.86</course>
  <speed>0.022360679774997897</speed>
  <fix>3d</fix>
</trkpt>
<trkpt lat="33.810313" lon="-118.3938673">
  <ele>-14.07</ele>
  <time>2026-09-01T01:18:13Z</time>
  <course>275.0</course>
  <speed>0.0</speed>
  <fix>3d</fix>
</trkpt>
<trkpt lat="33.8103132" lon="-118.3938674">
  <ele>-14.746</ele>
  <time>2026-09-01T01:18:13Z</time>
  <course>185.86</course>
  <speed>0.0282842712474619</speed>
  <fix>3d</fix>
</trkpt>
<trkpt lat="33.8103132" lon="-118.3938674">
  <ele>-14.813</ele>
  <time>2026-09-01T01:18:13Z</time>
  <course>185.87</course>
  <speed>0.0282842712474619</speed>
  <fix>3d</fix>
</trkpt>
<trkpt lat="33.810313" lon="-118.3938673">
  <ele>-14.26</ele>
  <time>2026-09-01T01:18:13Z</time>
  <course>275.0</course>
  <speed>0.0</speed>
  <fix>3d</fix>
</trkpt>
<trkpt lat="33.8103132" lon="-118.3938674">
  <ele>-14.842</ele>
  <time>2026-09-01T01:18:13Z</time>
  <course>185.87</course>
  <speed>0.022360679774997897</speed>
  <fix>3d</fix>
</trkpt>
<trkpt lat="33.8103132" lon="-118.3938674">
  <ele>-14.91</ele>
  <time>2026-09-01T01:18:13Z</time>
  <course>185.87</course>
  <speed>0.0282842712474619</speed>
  <fix>3d</fix>
</trkpt>
<trkpt lat="33.810313" lon="-118.3938673">
  <ele>-14.26</ele>
  <time>2026-09-01T01:18:13Z</time>
  <course>275.0</course>
  <speed>0.0</speed>
  <fix>3d</fix>
</trkpt>
<trkpt lat="33.8103132" lon="-118.3938674">
  <ele>-14.946</ele>
  <time>2026-09-01T01:18:13Z</time>
  <course>185.87</course>
  <speed>0.0282842712474619</speed>
  <fix>3d</fix>
</trkpt>
<trkpt lat="33.8103132" lon="-118.3938674">
  <ele>-15.008</ele>
  <time>2026-09-01T01:18:13Z</time>
  <course>185.88</course>
  <speed>0.0282842712474619</speed>
  <fix>3d</fix>
</trkpt>
<trkpt lat="33.810313" lon="-118.3938673">
  <ele>-14.45</ele>
  <time>2026-09-01T01:18:13Z</time>
  <course>275.0</course>
  <speed>0.0</speed>
  <fix>3d</fix>
</trkpt>
<trkpt lat="33.8103132" lon="-118.3938674">
  <ele>-15.01</ele>
  <time>2026-09-01T01:18:13Z</time>
  <course>185.88</course>
  <speed>0.0282842712474619</speed>
  <fix>3d</fix>
</trkpt>
<trkpt lat="33.8103132" lon="-118.3938674">
  <ele>-15.106</ele>
  <time>2026-09-01T01:18:13Z</time>
  <course>185.88</course>
  <speed>0.0282842712474619</speed>
  <fix>3d</fix>
</trkpt>
<trkpt lat="33.810313" lon="-118.3938673">
  <ele>-14.45</ele>
  <time>2026-09-01T01:18:13Z</time>
  <course>275.0</course>
  <speed>0.0</speed>
  <fix>3d</fix>
</trkpt>
<trkpt lat="33.8103132" lon="-118.3938674">
  <ele>-15.199</ele>
  <time>2026-09-01T01:18:13Z</time>
  <course>185.89</course>
  <speed>0.0282842712474619</speed>
  <fix>3d</fix>
</trkpt>
<trkpt lat="33.810313" lon="-118.3938673">
  <ele>-14.64</ele>
  <time>2026-09-01T01:18:13Z</time>
  <course>275.0</course>
  <speed>0.0</speed>
  <fix>3d</fix>
</trkpt>
<trkpt lat="33.8103132" lon="-118.3938674">
  <ele>-15.28</ele>
  <time>2026-09-01T01:18:13Z</time>
  <course>185.9</course>
  <speed>0.0282842712474619</speed>
  <fix>3d</fix>
</trkpt>
<trkpt lat="33.810313" lon="-118.3938673">
  <ele>-14.64</ele>
  <time>2026-09-01T01:18:13Z</time>
  <course>275.0</course>
  <speed>0.0</speed>
  <fix>3d</fix>
</trkpt>
<trkpt lat="33.8103132" lon="-118.3938674">
  <ele>-15.345</ele>
  <time>2026-09-01T01:18:13Z</time>
  <course>185.9</course>
  <speed>0.0282842712474619</speed>
  <fix>3d</fix>
</trkpt>
<trkpt lat="33.810313" lon="-118.3938673">
  <ele>-14.82</ele>
  <time>2026-09-01T01:18:13Z</time>
  <course>275.0</course>
  <speed>0.0</speed>
  <fix>3d</fix>
</trkpt>
<trkpt lat="33.8103132" lon="-118.3938674">
  <ele>-15.395</ele>
  <time>2026-09-01T01:18:13Z</time>
  <course>185.91</course>
  <speed>0.0282842712474619</speed>
  <fix>3d</fix>
</trkpt>
<trkpt lat="33.810313" lon="-118.3938673">
  <ele>-14.82</ele>
  <time>2026-09-01T01:18:13Z</time>
  <course>275.0</course>
  <speed>0.0</speed>
  <fix>3d</fix>
</trkpt>
<trkpt lat="33.8103132" lon="-118.3938674">
  <ele>-15.433</ele>
  <time>2026-09-01T01:18:13Z</time>
  <course>185.91</course>
  <speed>0.0282842712474619</speed>
  <fix>3d</fix>
</trkpt>
<trkpt lat="33.810313" lon="-118.3938673">
  <ele>-14.95</ele>
  <time>2026-09-01T01:18:13Z</time>
  <course>275.0</course>
  <speed>0.0</speed>
  <fix>3d</fix>
</trkpt>
<trkpt lat="33.8103132" lon="-118.3938674">
  <ele>-15.459</ele>
  <time>2026-09-01T01:18:13Z</time>
  <course>185.92</course>
  <speed>0.022360679774997897</speed>
  <fix>3d</fix>
</trkpt>
<trkpt lat="33.810313" lon="-118.3938673">
  <ele>-14.95</ele>
  <time>2026-09-01T01:18:13Z</time>
  <course>275.0</course>
  <speed>0.0</speed>
  <fix>3d</fix>
</trkpt>
<trkpt lat="33.8103132" lon="-118.3938674">
  <ele>-15.474</ele>
  <time>2026-09-01T01:18:13Z</time>
  <course>185.93</course>
  <speed>0.022360679774997897</speed>
  <fix>3d</fix>
</trkpt>
<trkpt lat="33.810313" lon="-118.3938673">
  <ele>-15.02</ele>
  <time>2026-09-01T01:18:13Z</time>
  <course>275.0</course>
  <speed>0.0</speed>
  <fix>3d</fix>
</trkpt>
<trkpt lat="33.8103132" lon="-118.3938674">
  <ele>-15.48</ele>
  <time>2026-09-01T01:18:13Z</time>
  <course>185.93</course>
  <speed>0.022360679774997897</speed>
  <fix>3d</fix>
</trkpt>
<trkpt lat="33.810313" lon="-118.3938673">
  <ele>-15.02</ele>
  <time>2026-09-01T01:18:13Z</time>
  <course>275.0</course>
  <speed>0.0</speed>
  <fix>3d</fix>
</trkpt>
<trkpt lat="33.8103132" lon="-118.3938674">
  <ele>-15.48</ele>
  <time>2026-09-01T01:18:13Z</time>
  <course>185.94</course>
  <speed>0.022360679774997897</speed>
  <fix>3d</fix>
</trkpt>
<trkpt lat="33.810313" lon="-118.3938673">
  <ele>-15.05</ele>
  <time>2026-09-01T01:18:13Z</time>
  <course>275.0</course>
  <speed>0.0</speed>
  <fix>3d</fix>
</trkpt>
<trkpt lat="33.8103132" lon="-118.3938674">
  <ele>-15.477</ele>
  <time>2026-09-01T01:18:13Z</time>
  <course>185.94</course>
  <speed>0.022360679774997897</speed>
  <fix>3d</fix>
</trkpt>
<trkpt lat="33.810313" lon="-118.3938673">
  <ele>-15.05</ele>
  <time>2026-09-01T01:18:13Z</time>
  <course>275.0</course>
  <speed>0.0</speed>
  <fix>3d</fix>
</trkpt>
<trkpt lat="33.8103132" lon="-118.3938674">
  <ele>-15.472</ele>
  <time>2026-09-01T01:18:13Z</time>
  <course>185.95</course>
  <speed>0.022360679774997897</speed>
  <fix>3d</fix>
</trkpt>
<trkpt lat="33.810313" lon="-118.3938673">
  <ele>-15.07</ele>
  <time>2026-09-01T01:18:13Z</time>
  <course>275.0</course>
  <speed>0.0</speed>
  <fix>3d</fix>
</trkpt>
<trkpt lat="33.8103132" lon="-118.3938674">
  <ele>-15.466</ele>
  <time>2026-09-01T01:18:13Z</time>
  <course>185.96</course>
  <speed>0.022360679774997897</speed>
  <fix>3d</fix>
</trkpt>
<trkpt lat="33.810313" lon="-118.3938673">
  <ele>-15.07</ele>
  <time>2026-09-01T01:18:13Z</time>
  <course>275.0</course>
  <speed>0.0</speed>
  <fix>3d</fix>
</trkpt>
<trkpt lat="33.8103132" lon="-118.3938674">
  <ele>-15.46</ele>
  <time>2026-09-01T01:18:13Z</time>
  <course>185.96</course>
  <speed>0.022360679774997897</speed>
  <fix>3d</fix>
</trkpt>
<trkpt lat="33.810313" lon="-118.3938673">
  <ele>-15.07</ele>
  <time>2026-09-01T01:18:13Z</time>
  <course>274.99</course>
  <speed>0.0</speed>
  <fix>3d</fix>
</trkpt>
<trkpt lat="33.8103132" lon="-118.3938674">
  <ele>-15.455</ele>
  <time>2026-09-01T01:18:13Z</time>
  <course>185.97</course>
  <speed>0.022360679774997897</speed>
  <fix>3d</fix>
</trkpt>
<trkpt lat="33.810313" lon="-118.3938673">
  <ele>-15.07</ele>
  <time>2026-09-01T01:18:13Z</time>
  <course>274.99</course>
  <speed>0.0</speed>
  <fix>3d</fix>
</trkpt>
<trkpt lat="33.8103132" lon="-118.3938674">
  <ele>-15.452</ele>
  <time>2026-09-01T01:18:13Z</time>
  <course>185.97</course>
  <speed>0.022360679774997897</speed>
  <fix>3d</fix>
</trkpt>
<trkpt lat="33.810313" lon="-118.3938673">
  <ele>-15.07</ele>
  <time>2026-09-01T01:18:13Z</time>
  <course>274.99</course>
  <speed>0.0</speed>
  <fix>3d</fix>
</trkpt>
<trkpt lat="33.8103132" lon="-118.3938674">
  <ele>-15.451</ele>
  <time>2026-09-01T01:18:13Z</time>
  <course>185.98</course>
  <speed>0.022360679774997897</speed>
  <fix>3d</fix>
</trkpt>
<trkpt lat="33.810313" lon="-118.3938673">
  <ele>-15.07</ele>
  <time>2026-09-01T01:18:13Z</time>
  <course>274.99</course>
  <speed>0.0</speed>
  <fix>3d</fix>
</trkpt>
<trkpt lat="33.8103132" lon="-118.3938674">
  <ele>-15.452</ele>
  <time>2026-09-01T01:18:13Z</time>
  <course>185.99</course>
  <speed>0.022360679774997897</speed>
  <fix>3d</fix>
</trkpt>
<trkpt lat="33.810313" lon="-118.3938673">
  <ele>-15.07</ele>
  <time>2026-09-01T01:18:13Z</time>
  <course>274.99</course>
  <speed>0.0</speed>
  <fix>3d</fix>
</trkpt>
<trkpt lat="33.8103132" lon="-118.3938674">
  <ele>-15.455</ele>
  <time>2026-09-01T01:18:13Z</time>
  <course>185.99</course>
  <speed>0.022360679774997897</speed>
  <fix>3d</fix>
</trkpt>
<trkpt lat="33.810313" lon="-118.3938673">
  <ele>-15.07</ele>
  <time>2026-09-01T01:18:13Z</time>
  <course>274.99</course>
  <speed>0.0</speed>
  <fix>3d</fix>
</trkpt>
<trkpt lat="33.8103132" lon="-118.3938674">
  <ele>-15.459</ele>
  <time>2026-09-01T01:18:13Z</time>
  <course>186.0</course>
  <speed>0.022360679774997897</speed>
  <fix>3d</fix>
</trkpt>
<trkpt lat="33.810313" lon="-118.3938673">
  <ele>-15.08</ele>
  <time>2026-09-01T01:18:13Z</time>
  <course>274.99</course>
  <speed>0.0</speed>
  <fix>3d</fix>
</trkpt>
<trkpt lat="33.8103132" lon="-118.3938674">
  <ele>-15.462</ele>
  <time>2026-09-01T01:18:13Z</time>
  <course>186.0</course>
  <speed>0.022360679774997897</speed>
  <fix>3d</fix>
</trkpt>
<trkpt lat="33.810313" lon="-118.3938673">
  <ele>-15.08</ele>
  <time>2026-09-01T01:18:13Z</time>
  <course>274.99</course>
  <speed>0.0</speed>
  <fix>3d</fix>
</trkpt>
<trkpt lat="33.8103132" lon="-118.3938674">
  <ele>-15.464</ele>
  <time>2026-09-01T01:18:13Z</time>
  <course>186.01</course>
  <speed>0.022360679774997897</speed>
  <fix>3d</fix>
</trkpt>
<trkpt lat="33.810313" lon="-118.3938673">
  <ele>-15.09</ele>
  <time>2026-09-01T01:18:13Z</time>
  <course>274.99</course>
  <speed>0.0</speed>
  <fix>3d</fix>
</trkpt>
<trkpt lat="33.8103132" lon="-118.3938674">
  <ele>-15.465</ele>
  <time>2026-09-01T01:18:13Z</time>
  <course>186.01</course>
  <speed>0.022360679774997897</speed>
  <fix>3d</fix>
</trkpt>
<trkpt lat="33.810313" lon="-118.3938673">
  <ele>-15.09</ele>
  <time>2026-09-01T01:18:13Z</time>
  <course>274.99</course>
  <speed>0.0</speed>
  <fix>3d</fix>
</trkpt>
<trkpt lat="33.8103132" lon="-118.3938674">
  <ele>-15.466</ele>
  <time>2026-09-01T01:18:13Z</time>
  <course>186.02</course>
  <speed>0.022360679774997897</speed>
  <fix>3d</fix>
</trkpt>
<trkpt lat="33.810313" lon="-118.3938673">
  <ele>-15.1</ele>
  <time>2026-09-01T01:18:13Z</time>
  <course>274.99</course>
  <speed>0.0</speed>
  <fix>3d</fix>
</trkpt>
<trkpt lat="33.8103132" lon="-118.3938674">
  <ele>-15.467</ele>
  <time>2026-09-01T01:18:13Z</time>
  <course>186.03</course>
  <speed>0.022360679774997897</speed>
  <fix>3d</fix>
</trkpt>
<trkpt lat="33.810313" lon="-118.3938673">
  <ele>-15.1</ele>
  <time>2026-09-01T01:18:13Z</time>
  <course>274.99</course>
  <speed>0.0</speed>
  <fix>3d</fix>
</trkpt>
<trkpt lat="33.8103132" lon="-118.3938674">
  <ele>-15.467</ele>
  <time>2026-09-01T01:18:13Z</time>
  <course>186.03</course>
  <speed>0.022360679774997897</speed>
  <fix>3d</fix>
</trkpt>
<trkpt lat="33.810313" lon="-118.3938673">
  <ele>-15.11</ele>
  <time>2026-09-01T01:18:13Z</time>
  <course>274.99</course>
  <speed>0.0</speed>
  <fix>3d</fix>
</trkpt>
<trkpt lat="33.8103132" lon="-118.3938674">
  <ele>-15.468</ele>
  <time>2026-09-01T01:18:13Z</time>
  <course>186.04</course>
  <speed>0.022360679774997897</speed>
  <fix>3d</fix>
</trkpt>
<trkpt lat="33.810313" lon="-118.3938673">
  <ele>-15.11</ele>
  <time>2026-09-01T01:18:13Z</time>
  <course>274.99</course>
  <speed>0.0</speed>
  <fix>3d</fix>
</trkpt>
<trkpt lat="33.8103132" lon="-118.3938674">
  <ele>-15.469</ele>
  <time>2026-09-01T01:18:13Z</time>
  <course>186.04</course>
  <speed>0.022360679774997897</speed>
  <fix>3d</fix>
</trkpt>
<trkpt lat="33.810313" lon="-118.3938673">
  <ele>-15.11</ele>
  <time>2026-09-01T01:18:13Z</time>
  <course>274.99</course>
  <speed>0.0</speed>
  <fix>3d</fix>
</trkpt>
<trkpt lat="33.8103132" lon="-118.3938674">
  <ele>-15.47</ele>
  <time>2026-09-01T01:18:13Z</time>
  <course>186.05</course>
  <speed>0.022360679774997897</speed>
  <fix>3d</fix>
</trkpt>
<trkpt lat="33.810313" lon="-118.3938673">
  <ele>-15.11</ele>
  <time>2026-09-01T01:18:13Z</time>
  <course>274.99</course>
  <speed>0.0</speed>
  <fix>3d</fix>
</trkpt>
<trkpt lat="33.8103132" lon="-118.3938674">
  <ele>-15.47</ele>
  <time>2026-09-01T01:18:13Z</time>
  <course>186.05</course>
  <speed>0.022360679774997897</speed>
  <fix>3d</fix>
</trkpt>
<trkpt lat="33.810313" lon="-118.3938673">
  <ele>-15.12</ele>
  <time>2026-09-01T01:18:13Z</time>
  <course>275.0</course>
  <speed>0.0</speed>
  <fix>3d</fix>
</trkpt>
<trkpt lat="33.8103132" lon="-118.3938674">
  <ele>-15.47</ele>
  <time>2026-09-01T01:18:13Z</time>
  <course>186.06</course>
  <speed>0.022360679774997897</speed>
  <fix>3d</fix>
</trkpt>
<trkpt lat="33.810313" lon="-118.3938673">
  <ele>-15.12</ele>
  <time>2026-09-01T01:18:13Z</time>
  <course>275.0</course>
  <speed>0.0</speed>
  <fix>3d</fix>
</trkpt>
<trkpt lat="33.8103132" lon="-118.3938674">
  <ele>-15.471</ele>
  <time>2026-09-01T01:18:13Z</time>
  <course>186.06</course>
  <speed>0.022360679774997897</speed>
  <fix>3d</fix>
</trkpt>
<trkpt lat="33.810313" lon="-118.3938673">
  <ele>-15.12</ele>
  <time>2026-09-01T01:18:13Z</time>
  <course>275.0</course>
  <speed>0.0</speed>
  <fix>3d</fix>
</trkpt>
<trkpt lat="33.8103132" lon="-118.3938674">
  <ele>-15.471</ele>
  <time>2026-09-01T01:18:13Z</time>
  <course>186.07</course>
  <speed>0.022360679774997897</speed>
  <fix>3d</fix>
</trkpt>
<trkpt lat="33.810313" lon="-118.3938673">
  <ele>-15.12</ele>
  <time>2026-09-01T01:18:13Z</time>
  <course>275.0</course>
  <speed>0.0</speed>
  <fix>3d</fix>
</trkpt>
<trkpt lat="33.8103132" lon="-118.3938674">
  <ele>-15.472</ele>
  <time>2026-09-01T01:18:13Z</time>
  <course>186.07</course>
  <speed>0.022360679774997897</speed>
  <fix>3d</fix>
</trkpt>
<trkpt lat="33.810313" lon="-118.3938673">
  <ele>-15.12</ele>
  <time>2026-09-01T01:18:13Z</time>
  <course>275.0</course>
  <speed>0.0</speed>
  <fix>3d</fix>
</trkpt>
<trkpt lat="33.8103132" lon="-118.3938674">
  <ele>-15.472</ele>
  <time>2026-09-01T01:18:13Z</time>
  <course>186.08</course>
  <speed>0.022360679774997897</speed>
  <fix>3d</fix>
</trkpt>
<trkpt lat="33.810313" lon="-118.3938673">
  <ele>-15.12</ele>
  <time>2026-09-01T01:18:13Z</time>
  <course>275.0</course>
  <speed>0.0</speed>
  <fix>3d</fix>
</trkpt>
<trkpt lat="33.8103132" lon="-118.3938674">
  <ele>-15.473</ele>
  <time>2026-09-01T01:18:13Z</time>
  <course>186.08</course>
  <speed>0.022360679774997897</speed>
  <fix>3d</fix>
</trkpt>
<trkpt lat="33.810313" lon="-118.3938673">
  <ele>-15.12</ele>
  <time>2026-09-01T01:18:13Z</time>
  <course>275.0</course>
  <speed>0.0</speed>
  <fix>3d</fix>
</trkpt>
<trkpt lat="33.8103132" lon="-118.3938674">
  <ele>-15.473</ele>
  <time>2026-09-01T01:18:13Z</time>
  <course>186.09</course>
  <speed>0.022360679774997897</speed>
  <fix>3d</fix>
</trkpt>
<trkpt lat="33.810313" lon="-118.3938673">
  <ele>-15.12</ele>
  <time>2026-09-01T01:18:13Z</time>
  <course>275.0</course>
  <speed>0.0</speed>
  <fix>3d</fix>
</trkpt>
<trkpt lat="33.8103132" lon="-118.3938674">
  <ele>-15.472</ele>
  <time>2026-09-01T01:18:13Z</time>
  <course>186.09</course>
  <speed>0.022360679774997897</speed>
  <fix>3d</fix>
</trkpt>
<trkpt lat="33.810313" lon="-118.3938673">
  <ele>-15.11</ele>
  <time>2026-09-01T01:18:13Z</time>
  <course>275.0</course>
  <speed>0.0</speed>
  <fix>3d</fix>
</trkpt>
<trkpt lat="33.8103132" lon="-118.3938674">
  <ele>-15.471</ele>
  <time>2026-09-01T01:18:13Z</time>
  <course>186.1</course>
  <speed>0.022360679774997897</speed>
  <fix>3d</fix>
</trkpt>
<trkpt lat="33.810313" lon="-118.3938673">
  <ele>-15.11</ele>
  <time>2026-09-01T01:18:13Z</time>
  <course>275.0</course>
  <speed>0.0</speed>
  <fix>3d</fix>
</trkpt>
<trkpt lat="33.8103132" lon="-118.3938674">
  <ele>-15.469</ele>
  <time>2026-09-01T01:18:13Z</time>
  <course>186.1</course>
  <speed>0.022360679774997897</speed>
  <fix>3d</fix>
</trkpt>
<trkpt lat="33.810313" lon="-118.3938674">
  <ele>-15.11</ele>
  <time>2026-09-01T01:18:13Z</time>
  <course>275.0</course>
  <speed>0.0</speed>
  <fix>3d</fix>
</trkpt>
<trkpt lat="33.8103132" lon="-118.3938674">
  <ele>-15.468</ele>
  <time>2026-09-01T01:18:13Z</time>
  <course>186.1</course>
  <speed>0.022360679774997897</speed>
  <fix>3d</fix>
</trkpt>
<trkpt lat="33.810313" lon="-118.3938674">
  <ele>-15.11</ele>
  <time>2026-09-01T01:18:13Z</time>
  <course>275.0</course>
  <speed>0.0</speed>
  <fix>3d</fix>
</trkpt>
<trkpt lat="33.8103132" lon="-118.3938674">
  <ele>-15.467</ele>
  <time>2026-09-01T01:18:13Z</time>
  <course>186.11</course>
  <speed>0.022360679774997897</speed>
  <fix>3d</fix>
</trkpt>
<trkpt lat="33.810313" lon="-118.3938674">
  <ele>-15.11</ele>
  <time>2026-09-01T01:18:13Z</time>
  <course>275.0</course>
  <speed>0.0</speed>
  <fix>3d</fix>
</trkpt>
<trkpt lat="33.8103132" lon="-118.3938674">
  <ele>-15.467</ele>
  <time>2026-09-01T01:18:13Z</time>
  <course>186.11</course>
  <speed>0.022360679774997897</speed>
  <fix>3d</fix>
</trkpt>
<trkpt lat="33.810313" lon="-118.3938674">
  <ele>-15.11</ele>
  <time>2026-09-01T01:18:13Z</time>
  <course>275.0</course>
  <speed>0.0</speed>
  <fix>3d</fix>
</trkpt>
<trkpt lat="33.8103132" lon="-118.3938674">
  <ele>-15.467</ele>
  <time>2026-09-01T01:18:13Z</time>
  <course>186.12</course>
  <speed>0.022360679774997897</speed>
  <fix>3d</fix>
</trkpt>
<trkpt lat="33.810313" lon="-118.3938674">
  <ele>-15.1</ele>
  <time>2026-09-01T01:18:13Z</time>
  <course>275.0</course>
  <speed>0.0</speed>
  <fix>3d</fix>
</trkpt>
<trkpt lat="33.8103132" lon="-118.3938674">
  <ele>-15.467</ele>
  <time>2026-09-01T01:18:13Z</time>
  <course>186.12</course>
  <speed>0.022360679774997897</speed>
  <fix>3d</fix>
</trkpt>
<trkpt lat="33.810313" lon="-118.3938674">
  <ele>-15.1</ele>
  <time>2026-09-01T01:18:13Z</time>
  <course>275.0</course>
  <speed>0.0</speed>
  <fix>3d</fix>
</trkpt>
<trkpt lat="33.8103132" lon="-118.3938674">
  <ele>-15.466</ele>
  <time>2026-09-01T01:18:13Z</time>
  <course>186.12</course>
  <speed>0.022360679774997897</speed>
  <fix>3d</fix>
</trkpt>
<trkpt lat="33.810313" lon="-118.3938674">
  <ele>-15.1</ele>
  <time>2026-09-01T01:18:13Z</time>
  <course>275.0</course>
  <speed>0.0</speed>
  <fix>3d</fix>
</trkpt>
<trkpt lat="33.8103132" lon="-118.3938674">
  <ele>-15.466</ele>
  <time>2026-09-01T01:18:13Z</time>
  <course>186.13</course>
  <speed>0.022360679774997897</speed>
  <fix>3d</fix>
</trkpt>
<trkpt lat="33.810313" lon="-118.3938674">
  <ele>-15.1</ele>
  <time>2026-09-01T01:18:13Z</time>
  <course>275.0</course>
  <speed>0.0</speed>
  <fix>3d</fix>
</trkpt>
<trkpt lat="33.8103132" lon="-118.3938674">
  <ele>-15.467</ele>
  <time>2026-09-01T01:18:13Z</time>
  <course>186.13</course>
  <speed>0.022360679774997897</speed>
  <fix>3d</fix>
</trkpt>
<trkpt lat="33.810313" lon="-118.3938674">
  <ele>-15.1</ele>
  <time>2026-09-01T01:18:13Z</time>
  <course>275.0</course>
  <speed>0.0</speed>
  <fix>3d</fix>
</trkpt>
<trkpt lat="33.8103132" lon="-118.3938674">
  <ele>-15.467</ele>
  <time>2026-09-01T01:18:13Z</time>
  <course>186.14</course>
  <speed>0.022360679774997897</speed>
  <fix>3d</fix>
</trkpt>
<trkpt lat="33.810313" lon="-118.3938674">
  <ele>-15.1</ele>
  <time>2026-09-01T01:18:13Z</time>
  <course>275.0</course>
  <speed>0.0</speed>
  <fix>3d</fix>
</trkpt>
<trkpt lat="33.8103132" lon="-118.3938674">
  <ele>-15.466</ele>
  <time>2026-09-01T01:18:13Z</time>
  <course>186.14</course>
  <speed>0.022360679774997897</speed>
  <fix>3d</fix>
</trkpt>
<trkpt lat="33.810313" lon="-118.3938674">
  <ele>-15.1</ele>
  <time>2026-09-01T01:18:13Z</time>
  <course>275.0</course>
  <speed>0.0</speed>
  <fix>3d</fix>
</trkpt>
<trkpt lat="33.8103132" lon="-118.3938674">
  <ele>-15.465</ele>
  <time>2026-09-01T01:18:13Z</time>
  <course>186.14</course>
  <speed>0.022360679774997897</speed>
  <fix>3d</fix>
</trkpt>
<trkpt lat="33.810313" lon="-118.3938674">
  <ele>-15.1</ele>
  <time>2026-09-01T01:18:13Z</time>
  <course>275.0</course>
  <speed>0.0</speed>
  <fix>3d</fix>
</trkpt>
<trkpt lat="33.8103132" lon="-118.3938675">
  <ele>-15.464</ele>
  <time>2026-09-01T01:18:13Z</time>
  <course>186.15</course>
  <speed>0.022360679774997897</speed>
  <fix>3d</fix>
</trkpt>
<trkpt lat="33.810313" lon="-118.3938674">
  <ele>-15.1</ele>
  <time>2026-09-01T01:18:13Z</time>
  <course>275.0</course>
  <speed>0.0</speed>
  <fix>3d</fix>
</trkpt>
<trkpt lat="33.8103132" lon="-118.3938675">
  <ele>-15.464</ele>
  <time>2026-09-01T01:18:13Z</time>
  <course>186.15</course>
  <speed>0.022360679774997897</speed>
  <fix>3d</fix>
</trkpt>
<trkpt lat="33.810313" lon="-118.3938674">
  <ele>-15.1</ele>
  <time>2026-09-01T01:18:13Z</time>
  <course>275.0</course>
  <speed>0.0</speed>
  <fix>3d</fix>
</trkpt>
<trkpt lat="33.8103132" lon="-118.3938675">
  <ele>-15.465</ele>
  <time>2026-09-01T01:18:13Z</time>
  <course>186.16</course>
  <speed>0.022360679774997897</speed>
  <fix>3d</fix>
</trkpt>
<trkpt lat="33.810313" lon="-118.3938674">
  <ele>-15.1</ele>
  <time>2026-09-01T01:18:13Z</time>
  <course>275.0</course>
  <speed>0.0</speed>
  <fix>3d</fix>
</trkpt>
<trkpt lat="33.8103132" lon="-118.3938675">
  <ele>-15.465</ele>
  <time>2026-09-01T01:18:13Z</time>
  <course>186.16</course>
  <speed>0.022360679774997897</speed>
  <fix>3d</fix>
</trkpt>
<trkpt lat="33.810313" lon="-118.3938674">
  <ele>-15.1</ele>
  <time>2026-09-01T01:18:13Z</time>
  <course>275.0</course>
  <speed>0.0</speed>
  <fix>3d</fix>
</trkpt>
<trkpt lat="33.8103132" lon="-118.3938675">
  <ele>-15.465</ele>
  <time>2026-09-01T01:18:13Z</time>
  <course>186.16</course>
  <speed>0.022360679774997897</speed>
  <fix>3d</fix>
</trkpt>
<trkpt lat="33.810313" lon="-118.3938674">
  <ele>-15.1</ele>
  <time>2026-09-01T01:18:13Z</time>
  <course>275.0</course>
  <speed>0.0</speed>
  <fix>3d</fix>
</trkpt>
<trkpt lat="33.8103132" lon="-118.3938675">
  <ele>-15.465</ele>
  <time>2026-09-01T01:18:13Z</time>
  <course>186.17</course>
  <speed>0.022360679774997897</speed>
  <fix>3d</fix>
</trkpt>
<trkpt lat="33.810313" lon="-118.3938674">
  <ele>-15.1</ele>
  <time>2026-09-01T01:18:13Z</time>
  <course>275.0</course>
  <speed>0.0</speed>
  <fix>3d</fix>
</trkpt>
<trkpt lat="33.8103132" lon="-118.3938675">
  <ele>-15.465</ele>
  <time>2026-09-01T01:18:13Z</time>
  <course>186.17</course>
  <speed>0.022360679774997897</speed>
  <fix>3d</fix>
</trkpt>
<trkpt lat="33.810313" lon="-118.3938674">
  <ele>-15.1</ele>
  <time>2026-09-01T01:18:13Z</time>
  <course>275.0</course>
  <speed>0.0</speed>
  <fix>3d</fix>
</trkpt>
<trkpt lat="33.8103132" lon="-118.3938675">
  <ele>-15.465</ele>
  <time>2026-09-01T01:18:13Z</time>
  <course>186.18</course>
  <speed>0.022360679774997897</speed>
  <fix>3d</fix>
</trkpt>
<trkpt lat="33.810313" lon="-118.3938674">
  <ele>-15.1</ele>
  <time>2026-09-01T01:18:13Z</time>
  <course>275.0</course>
  <speed>0.0</speed>
  <fix>3d</fix>
</trkpt>
<trkpt lat="33.8103132" lon="-118.3938675">
  <ele>-15.466</ele>
  <time>2026-09-01T01:18:13Z</time>
  <course>186.18</course>
  <speed>0.022360679774997897</speed>
  <fix>3d</fix>
</trkpt>
<trkpt lat="33.810313" lon="-118.3938674">
  <ele>-15.1</ele>
  <time>2026-09-01T01:18:13Z</time>
  <course>275.0</course>
  <speed>0.0</speed>
  <fix>3d</fix>
</trkpt>
<trkpt lat="33.8103132" lon="-118.3938675">
  <ele>-15.466</ele>
  <time>2026-09-01T01:18:13Z</time>
  <course>186.18</course>
  <speed>0.022360679774997897</speed>
  <fix>3d</fix>
</trkpt>
<trkpt lat="33.810313" lon="-118.3938674">
  <ele>-15.1</ele>
  <time>2026-09-01T01:18:13Z</time>
  <course>275.0</course>
  <speed>0.0</speed>
  <fix>3d</fix>
</trkpt>
<trkpt lat="33.8103132" lon="-118.3938675">
  <ele>-15.465</ele>
  <time>2026-09-01T01:18:13Z</time>
  <course>186.19</course>
  <speed>0.022360679774997897</speed>
  <fix>3d</fix>
</trkpt>
<trkpt lat="33.810313" lon="-118.3938674">
  <ele>-15.1</ele>
  <time>2026-09-01T01:18:13Z</time>
  <course>275.0</course>
  <speed>0.0</speed>
  <fix>3d</fix>
</trkpt>
<trkpt lat="33.8103132" lon="-118.3938675">
  <ele>-15.464</ele>
  <time>2026-09-01T01:18:13Z</time>
  <course>186.19</course>
  <speed>0.022360679774997897</speed>
  <fix>3d</fix>
</trkpt>
<trkpt lat="33.810313" lon="-118.3938674">
  <ele>-15.1</ele>
  <time>2026-09-01T01:18:13Z</time>
  <course>275.0</course>
  <speed>0.0</speed>
  <fix>3d</fix>
</trkpt>
<trkpt lat="33.8103132" lon="-118.3938675">
  <ele>-15.463</ele>
  <time>2026-09-01T01:18:13Z</time>
  <course>186.19</course>
  <speed>0.022360679774997897</speed>
  <fix>3d</fix>
</trkpt>
<trkpt lat="33.810313" lon="-118.3938674">
  <ele>-15.1</ele>
  <time>2026-09-01T01:18:13Z</time>
  <course>275.0</course>
  <speed>0.0</speed>
  <fix>3d</fix>
</trkpt>
<trkpt lat="33.8103132" lon="-118.3938675">
  <ele>-15.462</ele>
  <time>2026-09-01T01:18:13Z</time>
  <course>186.2</course>
  <speed>0.022360679774997897</speed>
  <fix>3d</fix>
</trkpt>
<trkpt lat="33.810313" lon="-118.3938674">
  <ele>-15.1</ele>
  <time>2026-09-01T01:18:13Z</time>
  <course>275.0</course>
  <speed>0.0</speed>
  <fix>3d</fix>
</trkpt>
<trkpt lat="33.8103132" lon="-118.3938675">
  <ele>-15.461</ele>
  <time>2026-09-01T01:18:13Z</time>
  <course>186.2</course>
  <speed>0.022360679774997897</speed>
  <fix>3d</fix>
</trkpt>
<trkpt lat="33.810313" lon="-118.3938674">
  <ele>-15.1</ele>
  <time>2026-09-01T01:18:13Z</time>
  <course>275.0</course>
  <speed>0.0</speed>
  <fix>3d</fix>
</trkpt>
<trkpt lat="33.8103132" lon="-118.3938675">
  <ele>-15.461</ele>
  <time>2026-09-01T01:18:13Z</time>
  <course>186.2</course>
  <speed>0.022360679774997897</speed>
  <fix>3d</fix>
</trkpt>
<trkpt lat="33.810313" lon="-118.3938674">
  <ele>-15.1</ele>
  <time>2026-09-01T01:18:13Z</time>
  <course>275.0</course>
  <speed>0.0</speed>
  <fix>3d</fix>
</trkpt>
<trkpt lat="33.8103132" lon="-118.3938675">
  <ele>-15.461</ele>
  <time>2026-09-01T01:18:13Z</time>
  <course>186.21</course>
  <speed>0.022360679774997897</speed>
  <fix>3d</fix>
</trkpt>
<trkpt lat="33.810313" lon="-118.3938674">
  <ele>-15.1</ele>
  <time>2026-09-01T01:18:13Z</time>
  <course>275.0</course>
  <speed>0.0</speed>
  <fix>3d</fix>
</trkpt>
<trkpt lat="33.8103132" lon="-118.3938675">
  <ele>-15.462</ele>
  <time>2026-09-01T01:18:13Z</time>
  <course>186.21</course>
  <speed>0.022360679774997897</speed>
  <fix>3d</fix>
</trkpt>
<trkpt lat="33.810313" lon="-118.3938674">
  <ele>-15.1</ele>
  <time>2026-09-01T01:18:13Z</time>
  <course>275.0</course>
  <speed>0.0</speed>
  <fix>3d</fix>
</trkpt>
<trkpt lat="33.8103132" lon="-118.3938675">
  <ele>-15.464</ele>
  <time>2026-09-01T01:18:13Z</time>
  <course>186.21</course>
  <speed>0.022360679774997897</speed>
  <fix>3d</fix>
</trkpt>
<trkpt lat="33.810313" lon="-118.3938674">
  <ele>-15.11</ele>
  <time>2026-09-01T01:18:13Z</time>
  <course>275.0</course>
  <speed>0.0</speed>
  <fix>3d</fix>
</trkpt>
<trkpt lat="33.8103132" lon="-118.3938675">
  <ele>-15.465</ele>
  <time>2026-09-01T01:18:13Z</time>
  <course>186.22</course>
  <speed>0.022360679774997897</speed>
  <fix>3d</fix>
</trkpt>
<trkpt lat="33.810313" lon="-118.3938674">
  <ele>-15.11</ele>
  <time>2026-09-01T01:18:13Z</time>
  <course>275.0</course>
  <speed>0.0</speed>
  <fix>3d</fix>
</trkpt>
<trkpt lat="33.8103132" lon="-118.3938675">
  <ele>-15.466</ele>
  <time>2026-09-01T01:18:13Z</time>
  <course>186.22</course>
  <speed>0.022360679774997897</speed>
  <fix>3d</fix>
</trkpt>
<trkpt lat="33.810313" lon="-118.3938674">
  <ele>-15.11</ele>
  <time>2026-09-01T01:18:13Z</time>
  <course>275.0</course>
  <speed>0.0</speed>
  <fix>3d</fix>
</trkpt>
<trkpt lat="33.8103132" lon="-118.3938675">
  <ele>-15.466</ele>
  <time>2026-09-01T01:18:13Z</time>
  <course>186.22</course>
  <speed>0.022360679774997897</speed>
  <fix>3d</fix>
</trkpt>
<trkpt lat="33.810313" lon="-118.3938674">
  <ele>-15.11</ele>
  <time>2026-09-01T01:18:13Z</time>
  <course>275.0</course>
  <speed>0.0</speed>
  <fix>3d</fix>
</trkpt>
<trkpt lat="33.8103132" lon="-118.3938675">
  <ele>-15.467</ele>
  <time>2026-09-01T01:18:13Z</time>
  <course>186.23</course>
  <speed>0.022360679774997897</speed>
  <fix>3d</fix>
</trkpt>
<trkpt lat="33.810313" lon="-118.3938674">
  <ele>-15.11</ele>
  <time>2026-09-01T01:18:13Z</time>
  <course>275.0</course>
  <speed>0.0</speed>
  <fix>3d</fix>
</trkpt>
<trkpt lat="33.8103132" lon="-118.3938675">
  <ele>-15.469</ele>
  <time>2026-09-01T01:18:13Z</time>
  <course>186.23</course>
  <speed>0.022360679774997897</speed>
  <fix>3d</fix>
</trkpt>
<trkpt lat="33.810313" lon="-118.3938674">
  <ele>-15.11</ele>
  <time>2026-09-01T01:18:13Z</time>
  <course>275.0</course>
  <speed>0.0</speed>
  <fix>3d</fix>
</trkpt>
<trkpt lat="33.8103132" lon="-118.3938675">
  <ele>-15.47</ele>
  <time>2026-09-01T01:18:13Z</time>
  <course>186.23</course>
  <speed>0.022360679774997897</speed>
  <fix>3d</fix>
</trkpt>
<trkpt lat="33.810313" lon="-118.3938674">
  <ele>-15.11</ele>
  <time>2026-09-01T01:18:13Z</time>
  <course>275.0</course>
  <speed>0.0</speed>
  <fix>3d</fix>
</trkpt>
<trkpt lat="33.8103132" lon="-118.3938675">
  <ele>-15.47</ele>
  <time>2026-09-01T01:18:13Z</time>
  <course>186.23</course>
  <speed>0.022360679774997897</speed>
  <fix>3d</fix>
</trkpt>
<trkpt lat="33.810313" lon="-118.3938674">
  <ele>-15.11</ele>
  <time>2026-09-01T01:18:13Z</time>
  <course>275.0</course>
  <speed>0.0</speed>
  <fix>3d</fix>
</trkpt>
<trkpt lat="33.8103132" lon="-118.3938675">
  <ele>-15.471</ele>
  <time>2026-09-01T01:18:13Z</time>
  <course>186.24</course>
  <speed>0.022360679774997897</speed>
  <fix>3d</fix>
</trkpt>
<trkpt lat="33.810313" lon="-118.3938674">
  <ele>-15.11</ele>
  <time>2026-09-01T01:18:13Z</time>
  <course>275.0</course>
  <speed>0.0</speed>
  <fix>3d</fix>
</trkpt>
<trkpt lat="33.8103132" lon="-118.3938675">
  <ele>-15.471</ele>
  <time>2026-09-01T01:18:13Z</time>
  <course>186.24</course>
  <speed>0.022360679774997897</speed>
  <fix>3d</fix>
</trkpt>
<trkpt lat="33.810313" lon="-118.3938674">
  <ele>-15.11</ele>
  <time>2026-09-01T01:18:13Z</time>
  <course>275.0</course>
  <speed>0.0</speed>
  <fix>3d</fix>
</trkpt>
<trkpt lat="33.8103132" lon="-118.3938675">
  <ele>-15.47</ele>
  <time>2026-09-01T01:18:13Z</time>
  <course>186.24</course>
  <speed>0.022360679774997897</speed>
  <fix>3d</fix>
</trkpt>
<trkpt lat="33.810313" lon="-118.3938674">
  <ele>-15.11</ele>
  <time>2026-09-01T01:18:13Z</time>
  <course>275.0</course>
  <speed>0.0</speed>
  <fix>3d</fix>
</trkpt>
<trkpt lat="33.8103132" lon="-118.3938675">
  <ele>-15.469</ele>
  <time>2026-09-01T01:18:13Z</time>
  <course>186.25</course>
  <speed>0.022360679774997897</speed>
  <fix>3d</fix>
</trkpt>
<trkpt lat="33.810313" lon="-118.3938674">
  <ele>-15.11</ele>
  <time>2026-09-01T01:18:13Z</time>
  <course>275.0</course>
  <speed>0.0</speed>
  <fix>3d</fix>
</trkpt>
<trkpt lat="33.8103132" lon="-118.3938675">
  <ele>-15.469</ele>
  <time>2026-09-01T01:18:13Z</time>
  <course>186.25</course>
  <speed>0.022360679774997897</speed>
  <fix>3d</fix>
</trkpt>
<trkpt lat="33.810313" lon="-118.3938674">
  <ele>-15.1</ele>
  <time>2026-09-01T01:18:13Z</time>
  <course>275.0</course>
  <speed>0.0</speed>
  <fix>3d</fix>
</trkpt>
<trkpt lat="33.8103132" lon="-118.3938675">
  <ele>-15.468</ele>
  <time>2026-09-01T01:18:14Z</time>
  <course>186.25</course>
  <speed>0.022360679774997897</speed>
  <fix>3d</fix>
</trkpt>
<trkpt lat="33.810313" lon="-118.3938674">
  <ele>-15.1</ele>
  <time>2026-09-01T01:18:14Z</time>
  <course>275.0</course>
  <speed>0.0</speed>
  <fix>3d</fix>
</trkpt>
<trkpt lat="33.8103132" lon="-118.3938675">
  <ele>-15.466</ele>
  <time>2026-09-01T01:18:14Z</time>
  <course>186.25</course>
  <speed>0.022360679774997897</speed>
  <fix>3d</fix>
</trkpt>
<trkpt lat="33.810313" lon="-118.3938674">
  <ele>-15.1</ele>
  <time>2026-09-01T01:18:14Z</time>
  <course>275.0</course>
  <speed>0.0</speed>
  <fix>3d</fix>
</trkpt>
<trkpt lat="33.8103132" lon="-118.3938675">
  <ele>-15.465</ele>
  <time>2026-09-01T01:18:14Z</time>
  <course>186.26</course>
  <speed>0.022360679774997897</speed>
  <fix>3d</fix>
</trkpt>
<trkpt lat="33.810313" lon="-118.3938674">
  <ele>-15.1</ele>
  <time>2026-09-01T01:18:14Z</time>
  <course>275.0</course>
  <speed>0.0</speed>
  <fix>3d</fix>
</trkpt>
<trkpt lat="33.8103132" lon="-118.3938675">
  <ele>-15.466</ele>
  <time>2026-09-01T01:18:14Z</time>
  <course>186.26</course>
  <speed>0.022360679774997897</speed>
  <fix>3d</fix>
</trkpt>
<trkpt lat="33.810313" lon="-118.3938675">
  <ele>-15.1</ele>
  <time>2026-09-01T01:18:14Z</time>
  <course>275.0</course>
  <speed>0.0</speed>
  <fix>3d</fix>
</trkpt>
<trkpt lat="33.8103132" lon="-118.3938675">
  <ele>-15.467</ele>
  <time>2026-09-01T01:18:14Z</time>
  <course>186.26</course>
  <speed>0.022360679774997897</speed>
  <fix>3d</fix>
</trkpt>
<trkpt lat="33.810313" lon="-118.3938675">
  <ele>-15.1</ele>
  <time>2026-09-01T01:18:14Z</time>
  <course>275.0</course>
  <speed>0.0</speed>
  <fix>3d</fix>
</trkpt>
<trkpt lat="33.8103132" lon="-118.3938675">
  <ele>-15.467</ele>
  <time>2026-09-01T01:18:14Z</time>
  <course>186.26</course>
  <speed>0.022360679774997897</speed>
  <fix>3d</fix>
</trkpt>
<trkpt lat="33.810313" lon="-118.3938675">
  <ele>-15.1</ele>
  <time>2026-09-01T01:18:14Z</time>
  <course>274.99</course>
  <speed>0.0</speed>
  <fix>3d</fix>
</trkpt>
<trkpt lat="33.8103132" lon="-118.3938675">
  <ele>-15.468</ele>
  <time>2026-09-01T01:18:14Z</time>
  <course>186.26</course>
  <speed>0.022360679774997897</speed>
  <fix>3d</fix>
</trkpt>
<trkpt lat="33.810313" lon="-118.3938675">
  <ele>-15.1</ele>
  <time>2026-09-01T01:18:14Z</time>
  <course>274.99</course>
  <speed>0.0</speed>
  <fix>3d</fix>
</trkpt>
<trkpt lat="33.8103132" lon="-118.3938675">
  <ele>-15.469</ele>
  <time>2026-09-01T01:18:14Z</time>
  <course>186.27</course>
  <speed>0.022360679774997897</speed>
  <fix>3d</fix>
</trkpt>
<trkpt lat="33.810313" lon="-118.3938675">
  <ele>-15.1</ele>
  <time>2026-09-01T01:18:14Z</time>
  <course>274.99</course>
  <speed>0.0</speed>
  <fix>3d</fix>
</trkpt>
<trkpt lat="33.8103132" lon="-118.3938675">
  <ele>-15.47</ele>
  <time>2026-09-01T01:18:14Z</time>
  <course>186.27</course>
  <speed>0.022360679774997897</speed>
  <fix>3d</fix>
</trkpt>
<trkpt lat="33.810313" lon="-118.3938675">
  <ele>-15.1</ele>
  <time>2026-09-01T01:18:14Z</time>
  <course>274.99</course>
  <speed>0.0</speed>
  <fix>3d</fix>
</trkpt>
<trkpt lat="33.8103132" lon="-118.3938675">
  <ele>-15.469</ele>
  <time>2026-09-01T01:18:14Z</time>
  <course>186.27</course>
  <speed>0.022360679774997897</speed>
  <fix>3d</fix>
</trkpt>
<trkpt lat="33.810313" lon="-118.3938675">
  <ele>-15.09</ele>
  <time>2026-09-01T01:18:14Z</time>
  <course>275.0</course>
  <speed>0.0</speed>
  <fix>3d</fix>
</trkpt>
<trkpt lat="33.8103132" lon="-118.3938675">
  <ele>-15.468</ele>
  <time>2026-09-01T01:18:14Z</time>
  <course>186.27</course>
  <speed>0.022360679774997897</speed>
  <fix>3d</fix>
</trkpt>
<trkpt lat="33.810313" lon="-118.3938675">
  <ele>-15.09</ele>
  <time>2026-09-01T01:18:14Z</time>
  <course>275.0</course>
  <speed>0.0</speed>
  <fix>3d</fix>
</trkpt>
<trkpt lat="33.8103132" lon="-118.3938675">
  <ele>-15.466</ele>
  <time>2026-09-01T01:18:14Z</time>
  <course>186.27</course>
  <speed>0.022360679774997897</speed>
  <fix>3d</fix>
</trkpt>
<trkpt lat="33.810313" lon="-118.3938675">
  <ele>-15.09</ele>
  <time>2026-09-01T01:18:14Z</time>
  <course>275.0</course>
  <speed>0.0</speed>
  <fix>3d</fix>
</trkpt>
<trkpt lat="33.8103132" lon="-118.3938675">
  <ele>-15.464</ele>
  <time>2026-09-01T01:18:14Z</time>
  <course>186.28</course>
  <speed>0.022360679774997897</speed>
  <fix>3d</fix>
</trkpt>
<trkpt lat="33.810313" lon="-118.3938675">
  <ele>-15.09</ele>
  <time>2026-09-01T01:18:14Z</time>
  <course>275.0</course>
  <speed>0.0</speed>
  <fix>3d</fix>
</trkpt>
<trkpt lat="33.8103132" lon="-118.3938676">
  <ele>-15.464</ele>
  <time>2026-09-01T01:18:14Z</time>
  <course>186.28</course>
  <speed>0.022360679774997897</speed>
  <fix>3d</fix>
</trkpt>
<trkpt lat="33.810313" lon="-118.3938675">
  <ele>-15.08</ele>
  <time>2026-09-01T01:18:14Z</time>
  <course>274.99</course>
  <speed>0.0</speed>
  <fix>3d</fix>
</trkpt>
<trkpt lat="33.8103132" lon="-118.3938676">
  <ele>-15.462</ele>
  <time>2026-09-01T01:18:14Z</time>
  <course>186.28</course>
  <speed>0.022360679774997897</speed>
  <fix>3d</fix>
</trkpt>
<trkpt lat="33.810313" lon="-118.3938675">
  <ele>-15.08</ele>
  <time>2026-09-01T01:18:14Z</time>
  <course>274.99</course>
  <speed>0.0</speed>
  <fix>3d</fix>
</trkpt>
<trkpt lat="33.8103132" lon="-118.3938676">
  <ele>-15.46</ele>
  <time>2026-09-01T01:18:14Z</time>
  <course>186.28</course>
  <speed>0.022360679774997897</speed>
  <fix>3d</fix>
</trkpt>
<trkpt lat="33.810313" lon="-118.3938675">
  <ele>-15.08</ele>
  <time>2026-09-01T01:18:14Z</time>
  <course>274.99</course>
  <speed>0.0</speed>
  <fix>3d</fix>
</trkpt>
<trkpt lat="33.8103132" lon="-118.3938676">
  <ele>-15.458</ele>
  <time>2026-09-01T01:18:14Z</time>
  <course>186.28</course>
  <speed>0.022360679774997897</speed>
  <fix>3d</fix>
</trkpt>
<trkpt lat="33.810313" lon="-118.3938675">
  <ele>-15.08</ele>
  <time>2026-09-01T01:18:14Z</time>
  <course>274.99</course>
  <speed>0.0</speed>
  <fix>3d</fix>
</trkpt>
<trkpt lat="33.8103132" lon="-118.3938676">
  <ele>-15.457</ele>
  <time>2026-09-01T01:18:14Z</time>
  <course>186.29</course>
  <speed>0.022360679774997897</speed>
  <fix>3d</fix>
</trkpt>
<trkpt lat="33.810313" lon="-118.3938675">
  <ele>-15.08</ele>
  <time>2026-09-01T01:18:14Z</time>
  <course>274.99</course>
  <speed>0.0</speed>
  <fix>3d</fix>
</trkpt>
<trkpt lat="33.8103132" lon="-118.3938676">
  <ele>-15.456</ele>
  <time>2026-09-01T01:18:14Z</time>
  <course>186.29</course>
  <speed>0.022360679774997897</speed>
  <fix>3d</fix>
</trkpt>
<trkpt lat="33.810313" lon="-118.3938675">
  <ele>-15.08</ele>
  <time>2026-09-01T01:18:14Z</time>
  <course>274.99</course>
  <speed>0.0</speed>
  <fix>3d</fix>
</trkpt>
<trkpt lat="33.8103132" lon="-118.3938676">
  <ele>-15.456</ele>
  <time>2026-09-01T01:18:14Z</time>
  <course>186.29</course>
  <speed>0.022360679774997897</speed>
  <fix>3d</fix>
</trkpt>
<trkpt lat="33.810313" lon="-118.3938675">
  <ele>-15.08</ele>
  <time>2026-09-01T01:18:14Z</time>
  <course>274.99</course>
  <speed>0.0</speed>
  <fix>3d</fix>
</trkpt>
<trkpt lat="33.8103132" lon="-118.3938676">
  <ele>-15.456</ele>
  <time>2026-09-01T01:18:14Z</time>
  <course>186.29</course>
  <speed>0.022360679774997897</speed>
  <fix>3d</fix>
</trkpt>
<trkpt lat="33.810313" lon="-118.3938675">
  <ele>-15.08</ele>
  <time>2026-09-01T01:18:14Z</time>
  <course>274.99</course>
  <speed>0.0</speed>
  <fix>3d</fix>
</trkpt>
<trkpt lat="33.8103132" lon="-118.3938676">
  <ele>-15.457</ele>
  <time>2026-09-01T01:18:14Z</time>
  <course>186.29</course>
  <speed>0.022360679774997897</speed>
  <fix>3d</fix>
</trkpt>
<trkpt lat="33.810313" lon="-118.3938675">
  <ele>-15.09</ele>
  <time>2026-09-01T01:18:14Z</time>
  <course>275.0</course>
  <speed>0.0</speed>
  <fix>3d</fix>
</trkpt>
<trkpt lat="33.8103132" lon="-118.3938676">
  <ele>-15.459</ele>
  <time>2026-09-01T01:18:14Z</time>
  <course>186.29</course>
  <speed>0.022360679774997897</speed>
  <fix>3d</fix>
</trkpt>
<trkpt lat="33.810313" lon="-118.3938675">
  <ele>-15.09</ele>
  <time>2026-09-01T01:18:14Z</time>
  <course>275.0</course>
  <speed>0.0</speed>
  <fix>3d</fix>
</trkpt>
<trkpt lat="33.8103132" lon="-118.3938676">
  <ele>-15.461</ele>
  <time>2026-09-01T01:18:14Z</time>
  <course>186.3</course>
  <speed>0.022360679774997897</speed>
  <fix>3d</fix>
</trkpt>
<trkpt lat="33.810313" lon="-118.3938675">
  <ele>-15.09</ele>
  <time>2026-09-01T01:18:14Z</time>
  <course>275.0</course>
  <speed>0.0</speed>
  <fix>3d</fix>
</trkpt>
<trkpt lat="33.8103132" lon="-118.3938676">
  <ele>-15.463</ele>
  <time>2026-09-01T01:18:14Z</time>
  <course>186.3</course>
  <speed>0.022360679774997897</speed>
  <fix>3d</fix>
</trkpt>
<trkpt lat="33.810313" lon="-118.3938675">
  <ele>-15.09</ele>
  <time>2026-09-01T01:18:14Z</time>
  <course>275.0</course>
  <speed>0.0</speed>
  <fix>3d</fix>
</trkpt>
<trkpt lat="33.8103132" lon="-118.3938676">
  <ele>-15.466</ele>
  <time>2026-09-01T01:18:14Z</time>
  <course>186.3</course>
  <speed>0.022360679774997897</speed>
  <fix>3d</fix>
</trkpt>
<trkpt lat="33.810313" lon="-118.3938675">
  <ele>-15.1</ele>
  <time>2026-09-01T01:18:14Z</time>
  <course>275.0</course>
  <speed>0.0</speed>
  <fix>3d</fix>
</trkpt>
<trkpt lat="33.8103132" lon="-118.3938676">
  <ele>-15.468</ele>
  <time>2026-09-01T01:18:14Z</time>
  <course>186.3</course>
  <speed>0.022360679774997897</speed>
  <fix>3d</fix>
</trkpt>
<trkpt lat="33.810313" lon="-118.3938675">
  <ele>-15.1</ele>
  <time>2026-09-01T01:18:14Z</time>
  <course>275.0</course>
  <speed>0.0</speed>
  <fix>3d</fix>
</trkpt>
<trkpt lat="33.8103132" lon="-118.3938676">
  <ele>-15.468</ele>
  <time>2026-09-01T01:18:14Z</time>
  <course>186.3</course>
  <speed>0.022360679774997897</speed>
  <fix>3d</fix>
</trkpt>
<trkpt lat="33.810313" lon="-118.3938675">
  <ele>-15.1</ele>
  <time>2026-09-01T01:18:14Z</time>
  <course>274.99</course>
  <speed>0.0</speed>
  <fix>3d</fix>
</trkpt>
<trkpt lat="33.8103132" lon="-118.3938676">
  <ele>-15.469</ele>
  <time>2026-09-01T01:18:14Z</time>
  <course>186.3</course>
  <speed>0.022360679774997897</speed>
  <fix>3d</fix>
</trkpt>
<trkpt lat="33.810313" lon="-118.3938675">
  <ele>-15.1</ele>
  <time>2026-09-01T01:18:14Z</time>
  <course>274.99</course>
  <speed>0.0</speed>
  <fix>3d</fix>
</trkpt>
<trkpt lat="33.8103132" lon="-118.3938676">
  <ele>-15.468</ele>
  <time>2026-09-01T01:18:14Z</time>
  <course>186.3</course>
  <speed>0.022360679774997897</speed>
  <fix>3d</fix>
</trkpt>
<trkpt lat="33.810313" lon="-118.3938675">
  <ele>-15.1</ele>
  <time>2026-09-01T01:18:14Z</time>
  <course>274.99</course>
  <speed>0.0</speed>
  <fix>3d</fix>
</trkpt>
<trkpt lat="33.8103132" lon="-118.3938676">
  <ele>-15.468</ele>
  <time>2026-09-01T01:18:14Z</time>
  <course>186.3</course>
  <speed>0.022360679774997897</speed>
  <fix>3d</fix>
</trkpt>
<trkpt lat="33.810313" lon="-118.3938675">
  <ele>-15.1</ele>
  <time>2026-09-01T01:18:14Z</time>
  <course>274.99</course>
  <speed>0.0</speed>
  <fix>3d</fix>
</trkpt>
<trkpt lat="33.8103132" lon="-118.3938676">
  <ele>-15.466</ele>
  <time>2026-09-01T01:18:14Z</time>
  <course>186.31</course>
  <speed>0.022360679774997897</speed>
  <fix>3d</fix>
</trkpt>
<trkpt lat="33.810313" lon="-118.3938675">
  <ele>-15.1</ele>
  <time>2026-09-01T01:18:14Z</time>
  <course>274.99</course>
  <speed>0.0</speed>
  <fix>3d</fix>
</trkpt>
<trkpt lat="33.8103132" lon="-118.3938676">
  <ele>-15.465</ele>
  <time>2026-09-01T01:18:14Z</time>
  <course>186.31</course>
  <speed>0.022360679774997897</speed>
  <fix>3d</fix>
</trkpt>
<trkpt lat="33.810313" lon="-118.3938675">
  <ele>-15.1</ele>
  <time>2026-09-01T01:18:14Z</time>
  <course>274.99</course>
  <speed>0.0</speed>
  <fix>3d</fix>
</trkpt>
<trkpt lat="33.8103132" lon="-118.3938676">
  <ele>-15.464</ele>
  <time>2026-09-01T01:18:14Z</time>
  <course>186.31</course>
  <speed>0.022360679774997897</speed>
  <fix>3d</fix>
</trkpt>
<trkpt lat="33.810313" lon="-118.3938675">
  <ele>-15.1</ele>
  <time>2026-09-01T01:18:14Z</time>
  <course>274.99</course>
  <speed>0.0</speed>
  <fix>3d</fix>
</trkpt>
<trkpt lat="33.8103132" lon="-118.3938676">
  <ele>-15.463</ele>
  <time>2026-09-01T01:18:14Z</time>
  <course>186.31</course>
  <speed>0.022360679774997897</speed>
  <fix>3d</fix>
</trkpt>
<trkpt lat="33.810313" lon="-118.3938675">
  <ele>-15.1</ele>
  <time>2026-09-01T01:18:14Z</time>
  <course>274.99</course>
  <speed>0.0</speed>
  <fix>3d</fix>
</trkpt>
<trkpt lat="33.8103132" lon="-118.3938676">
  <ele>-15.462</ele>
  <time>2026-09-01T01:18:14Z</time>
  <course>186.31</course>
  <speed>0.022360679774997897</speed>
  <fix>3d</fix>
</trkpt>
<trkpt lat="33.810313" lon="-118.3938675">
  <ele>-15.1</ele>
  <time>2026-09-01T01:18:14Z</time>
  <course>274.99</course>
  <speed>0.0</speed>
  <fix>3d</fix>
</trkpt>
<trkpt lat="33.8103132" lon="-118.3938676">
  <ele>-15.462</ele>
  <time>2026-09-01T01:18:14Z</time>
  <course>186.31</course>
  <speed>0.022360679774997897</speed>
  <fix>3d</fix>
</trkpt>
<trkpt lat="33.810313" lon="-118.3938675">
  <ele>-15.1</ele>
  <time>2026-09-01T01:18:14Z</time>
  <course>274.99</course>
  <speed>0.0</speed>
  <fix>3d</fix>
</trkpt>
<trkpt lat="33.8103132" lon="-118.3938676">
  <ele>-15.463</ele>
  <time>2026-09-01T01:18:14Z</time>
  <course>186.31</course>
  <speed>0.022360679774997897</speed>
  <fix>3d</fix>
</trkpt>
<trkpt lat="33.810313" lon="-118.3938675">
  <ele>-15.1</ele>
  <time>2026-09-01T01:18:14Z</time>
  <course>274.99</course>
  <speed>0.0</speed>
  <fix>3d</fix>
</trkpt>
<trkpt lat="33.8103132" lon="-118.3938676">
  <ele>-15.464</ele>
  <time>2026-09-01T01:18:14Z</time>
  <course>186.31</course>
  <speed>0.022360679774997897</speed>
  <fix>3d</fix>
</trkpt>
<trkpt lat="33.810313" lon="-118.3938675">
  <ele>-15.1</ele>
  <time>2026-09-01T01:18:14Z</time>
  <course>274.99</course>
  <speed>0.0</speed>
  <fix>3d</fix>
</trkpt>
<trkpt lat="33.8103132" lon="-118.3938676">
  <ele>-15.466</ele>
  <time>2026-09-01T01:18:14Z</time>
  <course>186.31</course>
  <speed>0.022360679774997897</speed>
  <fix>3d</fix>
</trkpt>
<trkpt lat="33.810313" lon="-118.3938675">
  <ele>-15.1</ele>
  <time>2026-09-01T01:18:14Z</time>
  <course>274.99</course>
  <speed>0.0</speed>
  <fix>3d</fix>
</trkpt>
<trkpt lat="33.8103132" lon="-118.3938676">
  <ele>-15.467</ele>
  <time>2026-09-01T01:18:14Z</time>
  <course>186.32</course>
  <speed>0.022360679774997897</speed>
  <fix>3d</fix>
</trkpt>
<trkpt lat="33.810313" lon="-118.3938675">
  <ele>-15.1</ele>
  <time>2026-09-01T01:18:14Z</time>
  <course>274.99</course>
  <speed>0.0</speed>
  <fix>3d</fix>
</trkpt>
<trkpt lat="33.8103132" lon="-118.3938676">
  <ele>-15.468</ele>
  <time>2026-09-01T01:18:14Z</time>
  <course>186.32</course>
  <speed>0.022360679774997897</speed>
  <fix>3d</fix>
</trkpt>
<trkpt lat="33.810313" lon="-118.3938675">
  <ele>-15.1</ele>
  <time>2026-09-01T01:18:14Z</time>
  <course>274.99</course>
  <speed>0.0</speed>
  <fix>3d</fix>
</trkpt>
<trkpt lat="33.8103132" lon="-118.3938676">
  <ele>-15.468</ele>
  <time>2026-09-01T01:18:14Z</time>
  <course>186.32</course>
  <speed>0.022360679774997897</speed>
  <fix>3d</fix>
</trkpt>
<trkpt lat="33.810313" lon="-118.3938675">
  <ele>-15.1</ele>
  <time>2026-09-01T01:18:14Z</time>
  <course>274.99</course>
  <speed>0.0</speed>
  <fix>3d</fix>
</trkpt>
<trkpt lat="33.8103132" lon="-118.3938676">
  <ele>-15.468</ele>
  <time>2026-09-01T01:18:14Z</time>
  <course>186.32</course>
  <speed>0.022360679774997897</speed>
  <fix>3d</fix>
</trkpt>
<trkpt lat="33.810313" lon="-118.3938676">
  <ele>-15.1</ele>
  <time>2026-09-01T01:18:14Z</time>
  <course>274.99</course>
  <speed>0.0</speed>
  <fix>3d</fix>
</trkpt>
<trkpt lat="33.8103132" lon="-118.3938676">
  <ele>-15.468</ele>
  <time>2026-09-01T01:18:14Z</time>
  <course>186.36</course>
  <speed>0.022360679774997897</speed>
  <fix>3d</fix>
</trkpt>
<trkpt lat="33.810313" lon="-118.3938676">
  <ele>-15.1</ele>
  <time>2026-09-01T01:18:14Z</time>
  <course>274.99</course>
  <speed>0.0</speed>
  <fix>3d</fix>
</trkpt>
<trkpt lat="33.8103132" lon="-118.3938676">
  <ele>-15.468</ele>
  <time>2026-09-01T01:18:14Z</time>
  <course>186.66</course>
  <speed>0.01414213562373095</speed>
  <fix>3d</fix>
</trkpt>
<trkpt lat="33.810313" lon="-118.3938676">
  <ele>-15.1</ele>
  <time>2026-09-01T01:18:14Z</time>
  <course>231.83</course>
  <speed>0.0</speed>
  <fix>3d</fix>
</trkpt>
<trkpt lat="33.8103132" lon="-118.3938676">
  <ele>-15.467</ele>
  <time>2026-09-01T01:18:14Z</time>
  <course>187.29</course>
  <speed>0.01</speed>
  <fix>3d</fix>
</trkpt>
<trkpt lat="33.810313" lon="-118.3938676">
  <ele>-15.1</ele>
  <time>2026-09-01T01:18:14Z</time>
  <course>231.83</course>
  <speed>0.0</speed>
  <fix>3d</fix>
</trkpt>
<trkpt lat="33.8103132" lon="-118.3938676">
  <ele>-15.466</ele>
  <time>2026-09-01T01:18:14Z</time>
  <course>188.04</course>
  <speed>0.022360679774997897</speed>
  <fix>3d</fix>
</trkpt>
<trkpt lat="33.810313" lon="-118.3938676">
  <ele>-15.09</ele>
  <time>2026-09-01T01:18:14Z</time>
  <course>183.01</course>
  <speed>0.01</speed>
  <fix>3d</fix>
</trkpt>
<trkpt lat="33.8103131" lon="-118.3938676">
  <ele>-15.464</ele>
  <time>2026-09-01T01:18:14Z</time>
  <course>188.64</course>
  <speed>0.05</speed>
  <fix>3d</fix>
</trkpt>
<trkpt lat="33.810313" lon="-118.3938676">
  <ele>-15.09</ele>
  <time>2026-09-01T01:18:14Z</time>
  <course>183.01</course>
  <speed>0.01</speed>
  <fix>3d</fix>
</trkpt>
<trkpt lat="33.8103131" lon="-118.3938676">
  <ele>-15.463</ele>
  <time>2026-09-01T01:18:14Z</time>
  <course>189.0</course>
  <speed>0.1</speed>
  <fix>3d</fix>
</trkpt>
<trkpt lat="33.810313" lon="-118.3938676">
  <ele>-15.09</ele>
  <time>2026-09-01T01:18:14Z</time>
  <course>175.91</course>
  <speed>0.06</speed>
  <fix>3d</fix>
</trkpt>
<trkpt lat="33.8103129" lon="-118.3938676">
  <ele>-15.462</ele>
  <time>2026-09-01T01:18:14Z</time>
  <course>189.14</course>
  <speed>0.15</speed>
  <fix>3d</fix>
</trkpt>
<trkpt lat="33.810313" lon="-118.3938676">
  <ele>-15.09</ele>
  <time>2026-09-01T01:18:14Z</time>
  <course>175.91</course>
  <speed>0.06</speed>
  <fix>3d</fix>
</trkpt>
<trkpt lat="33.8103128" lon="-118.3938676">
  <ele>-15.461</ele>
  <time>2026-09-01T01:18:14Z</time>
  <course>189.13</course>
  <speed>0.2</speed>
  <fix>3d</fix>
</trkpt>
<trkpt lat="33.8103128" lon="-118.3938675">
  <ele>-15.09</ele>
  <time>2026-09-01T01:18:14Z</time>
  <course>175.58</course>
  <speed>0.14</speed>
  <fix>3d</fix>
</trkpt>
<trkpt lat="33.8103125" lon="-118.3938676">
  <ele>-15.46</ele>
  <time>2026-09-01T01:18:14Z</time>
  <course>189.06</course>
  <speed>0.24</speed>
  <fix>3d</fix>
</trkpt>
<trkpt lat="33.8103128" lon="-118.3938675">
  <ele>-15.09</ele>
  <time>2026-09-01T01:18:14Z</time>
  <course>175.58</course>
  <speed>0.14</speed>
  <fix>3d</fix>
</trkpt>
<trkpt lat="33.8103123" lon="-118.3938676">
  <ele>-15.46</ele>
  <time>2026-09-01T01:18:14Z</time>
  <course>188.99</course>
  <speed>0.28</speed>
  <fix>3d</fix>
</trkpt>
<trkpt lat="33.8103124" lon="-118.3938675">
  <ele>-15.09</ele>
  <time>2026-09-01T01:18:14Z</time>
  <course>176.2</course>
  <speed>0.23</speed>
  <fix>3d</fix>
</trkpt>
<trkpt lat="33.810312" lon="-118.3938676">
  <ele>-15.459</ele>
  <time>2026-09-01T01:18:14Z</time>
  <course>188.94</course>
  <speed>0.31</speed>
  <fix>3d</fix>
</trkpt>
<trkpt lat="33.8103124" lon="-118.3938675">
  <ele>-15.09</ele>
  <time>2026-09-01T01:18:14Z</time>
  <course>176.2</course>
  <speed>0.23</speed>
  <fix>3d</fix>
</trkpt>
<trkpt lat="33.8103117" lon="-118.3938676">
  <ele>-15.457</ele>
  <time>2026-09-01T01:18:14Z</time>
  <course>188.91</course>
  <speed>0.34</speed>
  <fix>3d</fix>
</trkpt>
<trkpt lat="33.8103119" lon="-118.3938675">
  <ele>-15.08</ele>
  <time>2026-09-01T01:18:14Z</time>
  <course>176.87</course>
  <speed>0.32</speed>
  <fix>3d</fix>
</trkpt>
<trkpt lat="33.8103114" lon="-118.3938676">
  <ele>-15.455</ele>
  <time>2026-09-01T01:18:14Z</time>
  <course>188.88</course>
  <speed>0.36</speed>
  <fix>3d</fix>
</trkpt>
<trkpt lat="33.8103119" lon="-118.3938675">
  <ele>-15.08</ele>
  <time>2026-09-01T01:18:14Z</time>
  <course>176.87</course>
  <speed>0.32</speed>
  <fix>3d</fix>
</trkpt>
<trkpt lat="33.810311" lon="-118.3938676">
  <ele>-15.454</ele>
  <time>2026-09-01T01:18:14Z</time>
  <course>188.86</course>
  <speed>0.37</speed>
  <fix>3d</fix>
</trkpt>
<trkpt lat="33.8103113" lon="-118.3938675">
  <ele>-15.08</ele>
  <time>2026-09-01T01:18:14Z</time>
  <course>177.44</course>
  <speed>0.37</speed>
  <fix>3d</fix>
</trkpt>
<trkpt lat="33.8103107" lon="-118.3938676">
  <ele>-15.453</ele>
  <time>2026-09-01T01:18:14Z</time>
  <course>188.84</course>
  <speed>0.37</speed>
  <fix>3d</fix>
</trkpt>
<trkpt lat="33.8103113" lon="-118.3938675">
  <ele>-15.08</ele>
  <time>2026-09-01T01:18:14Z</time>
  <course>177.44</course>
  <speed>0.37</speed>
  <fix>3d</fix>
</trkpt>
<trkpt lat="33.8103103" lon="-118.3938676">
  <ele>-15.452</ele>
  <time>2026-09-01T01:18:14Z</time>
  <course>188.82</course>
  <speed>0.37</speed>
  <fix>3d</fix>
</trkpt>
<trkpt lat="33.8103106" lon="-118.3938675">
  <ele>-15.08</ele>
  <time>2026-09-01T01:18:14Z</time>
  <course>177.93</course>
  <speed>0.39</speed>
  <fix>3d</fix>
</trkpt>
<trkpt lat="33.81031" lon="-118.3938676">
  <ele>-15.452</ele>
  <time>2026-09-01T01:18:14Z</time>
  <course>188.8</course>
  <speed>0.37</speed>
  <fix>3d</fix>
</trkpt>
<trkpt lat="33.8103106" lon="-118.3938675">
  <ele>-15.08</ele>
  <time>2026-09-01T01:18:14Z</time>
  <course>177.93</course>
  <speed>0.39</speed>
  <fix>3d</fix>
</trkpt>
<trkpt lat="33.8103096" lon="-118.3938676">
  <ele>-15.451</ele>
  <time>2026-09-01T01:18:14Z</time>
  <course>188.78</course>
  <speed>0.38013155617496425</speed>
  <fix>3d</fix>
</trkpt>
<trkpt lat="33.8103099" lon="-118.3938675">
  <ele>-15.08</ele>
  <time>2026-09-01T01:18:14Z</time>
  <course>178.34</course>
  <speed>0.4</speed>
  <fix>3d</fix>
</trkpt>
<trkpt lat="33.8103092" lon="-118.3938676">
  <ele>-15.451</ele>
  <time>2026-09-01T01:18:14Z</time>
  <course>188.76</course>
  <speed>0.38013155617496425</speed>
  <fix>3d</fix>
</trkpt>
<trkpt lat="33.8103099" lon="-118.3938675">
  <ele>-15.08</ele>
  <time>2026-09-01T01:18:14Z</time>
  <course>178.34</course>
  <speed>0.4</speed>
  <fix>3d</fix>
</trkpt>
<trkpt lat="33.8103089" lon="-118.3938676">
  <ele>-15.452</ele>
  <time>2026-09-01T01:18:14Z</time>
  <course>188.74</course>
  <speed>0.38013155617496425</speed>
  <fix>3d</fix>
</trkpt>
<trkpt lat="33.8103092" lon="-118.3938674">
  <ele>-15.09</ele>
  <time>2026-09-01T01:18:14Z</time>
  <course>178.66</course>
  <speed>0.4</speed>
  <fix>3d</fix>
</trkpt>
<trkpt lat="33.8103085" lon="-118.3938676">
  <ele>-15.452</ele>
  <time>2026-09-01T01:18:14Z</time>
  <course>188.71</course>
  <speed>0.38013155617496425</speed>
  <fix>3d</fix>
</trkpt>
<trkpt lat="33.8103092" lon="-118.3938674">
  <ele>-15.09</ele>
  <time>2026-09-01T01:18:14Z</time>
  <course>178.66</course>
  <speed>0.4</speed>
  <fix>3d</fix>
</trkpt>
<trkpt lat="33.8103082" lon="-118.3938676">
  <ele>-15.453</ele>
  <time>2026-09-01T01:18:14Z</time>
  <course>188.7</course>
  <speed>0.38013155617496425</speed>
  <fix>3d</fix>
</trkpt>
<trkpt lat="33.8103085" lon="-118.3938674">
  <ele>-15.09</ele>
  <time>2026-09-01T01:18:14Z</time>
  <course>178.93</course>
  <speed>0.41</speed>
  <fix>3d</fix>
</trkpt>
<trkpt lat="33.8103078" lon="-118.3938676">
  <ele>-15.453</ele>
  <time>2026-09-01T01:18:14Z</time>
  <course>188.68</course>
  <speed>0.38013155617496425</speed>
  <fix>3d</fix>
</trkpt>
<trkpt lat="33.8103085" lon="-118.3938674">
  <ele>-15.09</ele>
  <time>2026-09-01T01:18:14Z</time>
  <course>178.93</course>
  <speed>0.41</speed>
  <fix>3d</fix>
</trkpt>
<trkpt lat="33.8103074" lon="-118.3938676">
  <ele>-15.454</ele>
  <time>2026-09-01T01:18:14Z</time>
  <course>188.66</course>
  <speed>0.3901281840626232</speed>
  <fix>3d</fix>
</trkpt>
<trkpt lat="33.8103077" lon="-118.3938674">
  <ele>-15.09</ele>
  <time>2026-09-01T01:18:14Z</time>
  <course>179.22</course>
  <speed>0.41</speed>
  <fix>3d</fix>
</trkpt>
<trkpt lat="33.8103071" lon="-118.3938676">
  <ele>-15.455</ele>
  <time>2026-09-01T01:18:14Z</time>
  <course>188.64</course>
  <speed>0.38013155617496425</speed>
  <fix>3d</fix>
</trkpt>
<trkpt lat="33.8103077" lon="-118.3938674">
  <ele>-15.09</ele>
  <time>2026-09-01T01:18:14Z</time>
  <course>179.22</course>
  <speed>0.41</speed>
  <fix>3d</fix>
</trkpt>
<trkpt lat="33.8103067" lon="-118.3938676">
  <ele>-15.454</ele>
  <time>2026-09-01T01:18:14Z</time>
  <course>188.62</course>
  <speed>0.38013155617496425</speed>
  <fix>3d</fix>
</trkpt>
<trkpt lat="33.8103069" lon="-118.3938674">
  <ele>-15.09</ele>
  <time>2026-09-01T01:18:14Z</time>
  <course>179.47</course>
  <speed>0.41</speed>
  <fix>3d</fix>
</trkpt>
<trkpt lat="33.8103063" lon="-118.3938676">
  <ele>-15.453</ele>
  <time>2026-09-01T01:18:14Z</time>
  <course>188.6</course>
  <speed>0.38013155617496425</speed>
  <fix>3d</fix>
</trkpt>
<trkpt lat="33.8103069" lon="-118.3938674">
  <ele>-15.09</ele>
  <time>2026-09-01T01:18:14Z</time>
  <course>179.47</course>
  <speed>0.41</speed>
  <fix>3d</fix>
</trkpt>
<trkpt lat="33.8103059" lon="-118.3938676">
  <ele>-15.453</ele>
  <time>2026-09-01T01:18:14Z</time>
  <course>188.59</course>
  <speed>0.38013155617496425</speed>
  <fix>3d</fix>
</trkpt>
<trkpt lat="33.8103062" lon="-118.3938674">
  <ele>-15.09</ele>
  <time>2026-09-01T01:18:14Z</time>
  <course>179.67</course>
  <speed>0.41</speed>
  <fix>3d</fix>
</trkpt>
<trkpt lat="33.8103056" lon="-118.3938675">
  <ele>-15.452</ele>
  <time>2026-09-01T01:18:14Z</time>
  <course>188.57</course>
  <speed>0.38013155617496425</speed>
  <fix>3d</fix>
</trkpt>
<trkpt lat="33.8103062" lon="-118.3938674">
  <ele>-15.09</ele>
  <time>2026-09-01T01:18:14Z</time>
  <course>179.67</course>
  <speed>0.41</speed>
  <fix>3d</fix>
</trkpt>
<trkpt lat="33.8103052" lon="-118.3938675">
  <ele>-15.451</ele>
  <time>2026-09-01T01:18:14Z</time>
  <course>188.55</course>
  <speed>0.38013155617496425</speed>
  <fix>3d</fix>
</trkpt>
<trkpt lat="33.8103055" lon="-118.3938674">
  <ele>-15.08</ele>
  <time>2026-09-01T01:18:14Z</time>
  <course>179.84</course>
  <speed>0.41</speed>
  <fix>3d</fix>
</trkpt>
<trkpt lat="33.8103048" lon="-118.3938675">
  <ele>-15.449</ele>
  <time>2026-09-01T01:18:14Z</time>
  <course>188.53</course>
  <speed>0.38013155617496425</speed>
  <fix>3d</fix>
</trkpt>
<trkpt lat="33.8103055" lon="-118.3938674">
  <ele>-15.08</ele>
  <time>2026-09-01T01:18:14Z</time>
  <course>179.84</course>
  <speed>0.41</speed>
  <fix>3d</fix>
</trkpt>
<trkpt lat="33.8103045" lon="-118.3938675">
  <ele>-15.448</ele>
  <time>2026-09-01T01:18:14Z</time>
  <course>188.52</course>
  <speed>0.38013155617496425</speed>
  <fix>3d</fix>
</trkpt>
<trkpt lat="33.8103047" lon="-118.3938674">
  <ele>-15.08</ele>
  <time>2026-09-01T01:18:14Z</time>
  <course>179.96</course>
  <speed>0.41</speed>
  <fix>3d</fix>
</trkpt>
<trkpt lat="33.8103041" lon="-118.3938675">
  <ele>-15.448</ele>
  <time>2026-09-01T01:18:14Z</time>
  <course>188.5</course>
  <speed>0.37013511046643494</speed>
  <fix>3d</fix>
</trkpt>
<trkpt lat="33.8103047" lon="-118.3938674">
  <ele>-15.08</ele>
  <time>2026-09-01T01:18:14Z</time>
  <course>179.96</course>
  <speed>0.41</speed>
  <fix>3d</fix>
</trkpt>
<trkpt lat="33.8103038" lon="-118.3938675">
  <ele>-15.448</ele>
  <time>2026-09-01T01:18:14Z</time>
  <course>188.48</course>
  <speed>0.37013511046643494</speed>
  <fix>3d</fix>
</trkpt>
<trkpt lat="33.810304" lon="-118.3938674">
  <ele>-15.08</ele>
  <time>2026-09-01T01:18:14Z</time>
  <course>180.04</course>
  <speed>0.4</speed>
  <fix>3d</fix>
</trkpt>
<trkpt lat="33.8103034" lon="-118.3938675">
  <ele>-15.448</ele>
  <time>2026-09-01T01:18:14Z</time>
  <course>188.47</course>
  <speed>0.37013511046643494</speed>
  <fix>3d</fix>
</trkpt>
<trkpt lat="33.810304" lon="-118.3938674">
  <ele>-15.08</ele>
  <time>2026-09-01T01:18:14Z</time>
  <course>180.04</course>
  <speed>0.4</speed>
  <fix>3d</fix>
</trkpt>
<trkpt lat="33.810303" lon="-118.3938675">
  <ele>-15.448</ele>
  <time>2026-09-01T01:18:14Z</time>
  <course>188.45</course>
  <speed>0.37013511046643494</speed>
  <fix>3d</fix>
</trkpt>
<trkpt lat="33.8103032" lon="-118.3938674">
  <ele>-15.08</ele>
  <time>2026-09-01T01:18:14Z</time>
  <course>180.11</course>
  <speed>0.4</speed>
  <fix>3d</fix>
</trkpt>
<trkpt lat="33.8103027" lon="-118.3938675">
  <ele>-15.448</ele>
  <time>2026-09-01T01:18:14Z</time>
  <course>188.43</course>
  <speed>0.37013511046643494</speed>
  <fix>3d</fix>
</trkpt>
<trkpt lat="33.8103032" lon="-118.3938674">
  <ele>-15.08</ele>
  <time>2026-09-01T01:18:14Z</time>
  <course>180.11</course>
  <speed>0.4</speed>
  <fix>3d</fix>
</trkpt>
<trkpt lat="33.8103023" lon="-118.3938675">
  <ele>-15.448</ele>
  <time>2026-09-01T01:18:14Z</time>
  <course>188.42</course>
  <speed>0.37013511046643494</speed>
  <fix>3d</fix>
</trkpt>
<trkpt lat="33.8103025" lon="-118.3938674">
  <ele>-15.07</ele>
  <time>2026-09-01T01:18:14Z</time>
  <course>180.17</course>
  <speed>0.4</speed>
  <fix>3d</fix>
</trkpt>
<trkpt lat="33.810302" lon="-118.3938675">
  <ele>-15.446</ele>
  <time>2026-09-01T01:18:14Z</time>
  <course>188.4</course>
  <speed>0.36013886210738216</speed>
  <fix>3d</fix>
</trkpt>
<trkpt lat="33.8103025" lon="-118.3938674">
  <ele>-15.07</ele>
  <time>2026-09-01T01:18:14Z</time>
  <course>180.17</course>
  <speed>0.4</speed>
  <fix>3d</fix>
</trkpt>
<trkpt lat="33.8103016" lon="-118.3938675">
  <ele>-15.443</ele>
  <time>2026-09-01T01:18:14Z</time>
  <course>188.39</course>
  <speed>0.36013886210738216</speed>
  <fix>3d</fix>
</trkpt>
<trkpt lat="33.8103018" lon="-118.3938674">
  <ele>-15.07</ele>
  <time>2026-09-01T01:18:14Z</time>
  <course>180.26</course>
  <speed>0.39</speed>
  <fix>3d</fix>
</trkpt>
<trkpt lat="33.8103012" lon="-118.3938675">
  <ele>-15.441</ele>
  <time>2026-09-01T01:18:14Z</time>
  <course>188.37</course>
  <speed>0.36013886210738216</speed>
  <fix>3d</fix>
</trkpt>
<trkpt lat="33.8103018" lon="-118.3938674">
  <ele>-15.07</ele>
  <time>2026-09-01T01:18:14Z</time>
  <course>180.26</course>
  <speed>0.39</speed>
  <fix>3d</fix>
</trkpt>
<trkpt lat="33.8103009" lon="-118.3938675">
  <ele>-15.438</ele>
  <time>2026-09-01T01:18:14Z</time>
  <course>188.36</course>
  <speed>0.36013886210738216</speed>
  <fix>3d</fix>
</trkpt>
<trkpt lat="33.8103011" lon="-118.3938674">
  <ele>-15.07</ele>
  <time>2026-09-01T01:18:14Z</time>
  <course>180.35</course>
  <speed>0.39</speed>
  <fix>3d</fix>
</trkpt>
<trkpt lat="33.8103005" lon="-118.3938675">
  <ele>-15.436</ele>
  <time>2026-09-01T01:18:14Z</time>
  <course>188.34</course>
  <speed>0.36013886210738216</speed>
  <fix>3d</fix>
</trkpt>
<trkpt lat="33.8103011" lon="-118.3938674">
  <ele>-15.07</ele>
  <time>2026-09-01T01:18:14Z</time>
  <course>180.35</course>
  <speed>0.39</speed>
  <fix>3d</fix>
</trkpt>
<trkpt lat="33.8103002" lon="-118.3938675">
  <ele>-15.436</ele>
  <time>2026-09-01T01:18:14Z</time>
  <course>188.33</course>
  <speed>0.36013886210738216</speed>
  <fix>3d</fix>
</trkpt>
<trkpt lat="33.8103003" lon="-118.3938674">
  <ele>-15.06</ele>
  <time>2026-09-01T01:18:14Z</time>
  <course>180.4</course>
  <speed>0.39</speed>
  <fix>3d</fix>
</trkpt>
<trkpt lat="33.8102998" lon="-118.3938675">
  <ele>-15.435</ele>
  <time>2026-09-01T01:18:14Z</time>
  <course>188.31</course>
  <speed>0.36013886210738216</speed>
  <fix>3d</fix>
</trkpt>
<trkpt lat="33.8103003" lon="-118.3938674">
  <ele>-15.06</ele>
  <time>2026-09-01T01:18:14Z</time>
  <course>180.4</course>
  <speed>0.39</speed>
  <fix>3d</fix>
</trkpt>
<trkpt lat="33.8102995" lon="-118.3938675">
  <ele>-15.435</ele>
  <time>2026-09-01T01:18:14Z</time>
  <course>188.29</course>
  <speed>0.36013886210738216</speed>
  <fix>3d</fix>
</trkpt>
<trkpt lat="33.8102996" lon="-118.3938674">
  <ele>-15.06</ele>
  <time>2026-09-01T01:18:14Z</time>
  <course>180.46</course>
  <speed>0.39</speed>
  <fix>3d</fix>
</trkpt>
<trkpt lat="33.8102991" lon="-118.3938675">
  <ele>-15.435</ele>
  <time>2026-09-01T01:18:14Z</time>
  <course>188.28</course>
  <speed>0.36013886210738216</speed>
  <fix>3d</fix>
</trkpt>
<trkpt lat="33.8102996" lon="-118.3938674">
  <ele>-15.06</ele>
  <time>2026-09-01T01:18:14Z</time>
  <course>180.46</course>
  <speed>0.39</speed>
  <fix>3d</fix>
</trkpt>
<trkpt lat="33.8102988" lon="-118.3938675">
  <ele>-15.435</ele>
  <time>2026-09-01T01:18:14Z</time>
  <course>188.26</course>
  <speed>0.36013886210738216</speed>
  <fix>3d</fix>
</trkpt>
<trkpt lat="33.8102989" lon="-118.3938674">
  <ele>-15.06</ele>
  <time>2026-09-01T01:18:14Z</time>
  <course>180.54</course>
  <speed>0.39</speed>
  <fix>3d</fix>
</trkpt>
<trkpt lat="33.8102984" lon="-118.3938675">
  <ele>-15.435</ele>
  <time>2026-09-01T01:18:14Z</time>
  <course>188.25</course>
  <speed>0.36013886210738216</speed>
  <fix>3d</fix>
</trkpt>
<trkpt lat="33.8102989" lon="-118.3938674">
  <ele>-15.06</ele>
  <time>2026-09-01T01:18:14Z</time>
  <course>180.54</course>
  <speed>0.39</speed>
  <fix>3d</fix>
</trkpt>
<trkpt lat="33.810298" lon="-118.3938675">
  <ele>-15.435</ele>
  <time>2026-09-01T01:18:14Z</time>
  <course>188.23</course>
  <speed>0.36013886210738216</speed>
  <fix>3d</fix>
</trkpt>
<trkpt lat="33.8102982" lon="-118.3938674">
  <ele>-15.07</ele>
  <time>2026-09-01T01:18:14Z</time>
  <course>180.6</course>
  <speed>0.38</speed>
  <fix>3d</fix>
</trkpt>
<trkpt lat="33.8102977" lon="-118.3938675">
  <ele>-15.434</ele>
  <time>2026-09-01T01:18:14Z</time>
  <course>188.22</course>
  <speed>0.36013886210738216</speed>
  <fix>3d</fix>
</trkpt>
<trkpt lat="33.8102982" lon="-118.3938674">
  <ele>-15.07</ele>
  <time>2026-09-01T01:18:14Z</time>
  <course>180.6</course>
  <speed>0.38</speed>
  <fix>3d</fix>
</trkpt>
<trkpt lat="33.8102973" lon="-118.3938675">
  <ele>-15.433</ele>
  <time>2026-09-01T01:18:14Z</time>
  <course>188.2</course>
  <speed>0.36013886210738216</speed>
  <fix>3d</fix>
</trkpt>
<trkpt lat="33.8102975" lon="-118.3938674">
  <ele>-15.07</ele>
  <time>2026-09-01T01:18:14Z</time>
  <course>180.65</course>
  <speed>0.38</speed>
  <fix>3d</fix>
</trkpt>
<trkpt lat="33.810297" lon="-118.3938675">
  <ele>-15.432</ele>
  <time>2026-09-01T01:18:14Z</time>
  <course>188.19</course>
  <speed>0.36013886210738216</speed>
  <fix>3d</fix>
</trkpt>
<trkpt lat="33.8102975" lon="-118.3938674">
  <ele>-15.07</ele>
  <time>2026-09-01T01:18:14Z</time>
  <course>180.65</course>
  <speed>0.38</speed>
  <fix>3d</fix>
</trkpt>
<trkpt lat="33.8102966" lon="-118.3938675">
  <ele>-15.433</ele>
  <time>2026-09-01T01:18:14Z</time>
  <course>188.17</course>
  <speed>0.36013886210738216</speed>
  <fix>3d</fix>
</trkpt>
<trkpt lat="33.8102968" lon="-118.3938674">
  <ele>-15.07</ele>
  <time>2026-09-01T01:18:14Z</time>
  <course>180.71</course>
  <speed>0.38</speed>
  <fix>3d</fix>
</trkpt>
<trkpt lat="33.8102963" lon="-118.3938675">
  <ele>-15.434</ele>
  <time>2026-09-01T01:18:14Z</time>
  <course>188.16</course>
  <speed>0.36013886210738216</speed>
  <fix>3d</fix>
</trkpt>
<trkpt lat="33.8102968" lon="-118.3938674">
  <ele>-15.07</ele>
  <time>2026-09-01T01:18:14Z</time>
  <course>180.71</course>
  <speed>0.38</speed>
  <fix>3d</fix>
</trkpt>
<trkpt lat="33.8102959" lon="-118.3938675">
  <ele>-15.434</ele>
  <time>2026-09-01T01:18:14Z</time>
  <course>188.14</course>
  <speed>0.36013886210738216</speed>
  <fix>3d</fix>
</trkpt>
<trkpt lat="33.8102961" lon="-118.3938674">
  <ele>-15.07</ele>
  <time>2026-09-01T01:18:14Z</time>
  <course>180.77</course>
  <speed>0.38</speed>
  <fix>3d</fix>
</trkpt>
<trkpt lat="33.8102956" lon="-118.3938675">
  <ele>-15.434</ele>
  <time>2026-09-01T01:18:14Z</time>
  <course>188.13</course>
  <speed>0.36013886210738216</speed>
  <fix>3d</fix>
</trkpt>
<trkpt lat="33.8102961" lon="-118.3938674">
  <ele>-15.07</ele>
  <time>2026-09-01T01:18:14Z</time>
  <course>180.77</course>
  <speed>0.38</speed>
  <fix>3d</fix>
</trkpt>
<trkpt lat="33.8102952" lon="-118.3938675">
  <ele>-15.433</ele>
  <time>2026-09-01T01:18:14Z</time>
  <course>188.12</course>
  <speed>0.36013886210738216</speed>
  <fix>3d</fix>
</trkpt>
<trkpt lat="33.8102954" lon="-118.3938674">
  <ele>-15.07</ele>
  <time>2026-09-01T01:18:14Z</time>
  <course>180.82</course>
  <speed>0.38</speed>
  <fix>3d</fix>
</trkpt>
<trkpt lat="33.8102949" lon="-118.3938675">
  <ele>-15.433</ele>
  <time>2026-09-01T01:18:14Z</time>
  <course>188.1</course>
  <speed>0.36013886210738216</speed>
  <fix>3d</fix>
</trkpt>
<trkpt lat="33.8102954" lon="-118.3938674">
  <ele>-15.07</ele>
  <time>2026-09-01T01:18:14Z</time>
  <course>180.82</course>
  <speed>0.38</speed>
  <fix>3d</fix>
</trkpt>
<trkpt lat="33.8102945" lon="-118.3938675">
  <ele>-15.433</ele>
  <time>2026-09-01T01:18:14Z</time>
  <course>188.09</course>
  <speed>0.36013886210738216</speed>
  <fix>3d</fix>
</trkpt>
<trkpt lat="33.8102947" lon="-118.3938674">
  <ele>-15.07</ele>
  <time>2026-09-01T01:18:14Z</time>
  <course>180.88</course>
  <speed>0.39</speed>
  <fix>3d</fix>
</trkpt>
<trkpt lat="33.8102942" lon="-118.3938675">
  <ele>-15.433</ele>
  <time>2026-09-01T01:18:14Z</time>
  <course>188.07</course>
  <speed>0.36013886210738216</speed>
  <fix>3d</fix>
</trkpt>
<trkpt lat="33.8102947" lon="-118.3938674">
  <ele>-15.07</ele>
  <time>2026-09-01T01:18:14Z</time>
  <course>180.88</course>
  <speed>0.39</speed>
  <fix>3d</fix>
</trkpt>
<trkpt lat="33.8102938" lon="-118.3938675">
  <ele>-15.434</ele>
  <time>2026-09-01T01:18:14Z</time>
  <course>188.06</course>
  <speed>0.36013886210738216</speed>
  <fix>3d</fix>
</trkpt>
<trkpt lat="33.810294" lon="-118.3938674">
  <ele>-15.07</ele>
  <time>2026-09-01T01:18:14Z</time>
  <course>180.96</course>
  <speed>0.39</speed>
  <fix>3d</fix>
</trkpt>
<trkpt lat="33.8102935" lon="-118.3938675">
  <ele>-15.433</ele>
  <time>2026-09-01T01:18:14Z</time>
  <course>188.05</course>
  <speed>0.36013886210738216</speed>
  <fix>3d</fix>
</trkpt>
<trkpt lat="33.810294" lon="-118.3938674">
  <ele>-15.07</ele>
  <time>2026-09-01T01:18:14Z</time>
  <course>180.96</course>
  <speed>0.39</speed>
  <fix>3d</fix>
</trkpt>
<trkpt lat="33.8102931" lon="-118.3938675">
  <ele>-15.432</ele>
  <time>2026-09-01T01:18:14Z</time>
  <course>188.03</course>
  <speed>0.37013511046643494</speed>
  <fix>3d</fix>
</trkpt>
<trkpt lat="33.8102933" lon="-118.3938674">
  <ele>-15.07</ele>
  <time>2026-09-01T01:18:14Z</time>
  <course>181.02</course>
  <speed>0.39</speed>
  <fix>3d</fix>
</trkpt>
<trkpt lat="33.8102928" lon="-118.3938675">
  <ele>-15.432</ele>
  <time>2026-09-01T01:18:14Z</time>
  <course>188.02</course>
  <speed>0.37013511046643494</speed>
  <fix>3d</fix>
</trkpt>
<trkpt lat="33.8102933" lon="-118.3938674">
  <ele>-15.07</ele>
  <time>2026-09-01T01:18:14Z</time>
  <course>181.02</course>
  <speed>0.39</speed>
  <fix>3d</fix>
</trkpt>
<trkpt lat="33.8102924" lon="-118.3938675">
  <ele>-15.43</ele>
  <time>2026-09-01T01:18:14Z</time>
  <course>188.01</course>
  <speed>0.37013511046643494</speed>
  <fix>3d</fix>
</trkpt>
<trkpt lat="33.8102926" lon="-118.3938674">
  <ele>-15.06</ele>
  <time>2026-09-01T01:18:14Z</time>
  <course>181.05</course>
  <speed>0.39</speed>
  <fix>3d</fix>
</trkpt>
<trkpt lat="33.810292" lon="-118.3938675">
  <ele>-15.429</ele>
  <time>2026-09-01T01:18:14Z</time>
  <course>187.99</course>
  <speed>0.37013511046643494</speed>
  <fix>3d</fix>
</trkpt>
<trkpt lat="33.8102926" lon="-118.3938674">
  <ele>-15.06</ele>
  <time>2026-09-01T01:18:14Z</time>
  <course>181.05</course>
  <speed>0.39</speed>
  <fix>3d</fix>
</trkpt>
<trkpt lat="33.8102917" lon="-118.3938675">
  <ele>-15.428</ele>
  <time>2026-09-01T01:18:14Z</time>
  <course>187.98</course>
  <speed>0.37013511046643494</speed>
  <fix>3d</fix>
</trkpt>
<trkpt lat="33.8102919" lon="-118.3938674">
  <ele>-15.06</ele>
  <time>2026-09-01T01:18:14Z</time>
  <course>181.11</course>
  <speed>0.39</speed>
  <fix>3d</fix>
</trkpt>
<trkpt lat="33.8102913" lon="-118.3938675">
  <ele>-15.427</ele>
  <time>2026-09-01T01:18:14Z</time>
  <course>187.97</course>
  <speed>0.37013511046643494</speed>
  <fix>3d</fix>
</trkpt>
<trkpt lat="33.8102919" lon="-118.3938674">
  <ele>-15.06</ele>
  <time>2026-09-01T01:18:14Z</time>
  <course>181.11</course>
  <speed>0.39</speed>
  <fix>3d</fix>
</trkpt>
<trkpt lat="33.810291" lon="-118.3938675">
  <ele>-15.426</ele>
  <time>2026-09-01T01:18:14Z</time>
  <course>187.95</course>
  <speed>0.37013511046643494</speed>
  <fix>3d</fix>
</trkpt>
<trkpt lat="33.8102912" lon="-118.3938675">
  <ele>-15.06</ele>
  <time>2026-09-01T01:18:14Z</time>
  <course>181.16</course>
  <speed>0.39</speed>
  <fix>3d</fix>
</trkpt>
<trkpt lat="33.8102906" lon="-118.3938675">
  <ele>-15.424</ele>
  <time>2026-09-01T01:18:14Z</time>
  <course>187.94</course>
  <speed>0.37013511046643494</speed>
  <fix>3d</fix>
</trkpt>
<trkpt lat="33.8102912" lon="-118.3938675">
  <ele>-15.06</ele>
  <time>2026-09-01T01:18:14Z</time>
  <course>181.16</course>
  <speed>0.39</speed>
  <fix>3d</fix>
</trkpt>
<trkpt lat="33.8102903" lon="-118.3938675">
  <ele>-15.422</ele>
  <time>2026-09-01T01:18:14Z</time>
  <course>187.92</course>
  <speed>0.37013511046643494</speed>
  <fix>3d</fix>
</trkpt>
<trkpt lat="33.8102905" lon="-118.3938675">
  <ele>-15.05</ele>
  <time>2026-09-01T01:18:14Z</time>
  <course>181.12</course>
  <speed>0.39</speed>
  <fix>3d</fix>
</trkpt>
<trkpt lat="33.8102899" lon="-118.3938675">
  <ele>-15.418</ele>
  <time>2026-09-01T01:18:14Z</time>
  <course>187.91</course>
  <speed>0.37013511046643494</speed>
  <fix>3d</fix>
</trkpt>
<trkpt lat="33.8102905" lon="-118.3938675">
  <ele>-15.05</ele>
  <time>2026-09-01T01:18:14Z</time>
  <course>181.12</course>
  <speed>0.39</speed>
  <fix>3d</fix>
</trkpt>
<trkpt lat="33.8102895" lon="-118.3938675">
  <ele>-15.415</ele>
  <time>2026-09-01T01:18:14Z</time>
  <course>187.9</course>
  <speed>0.37013511046643494</speed>
  <fix>3d</fix>
</trkpt>
<trkpt lat="33.8102898" lon="-118.3938675">
  <ele>-15.05</ele>
  <time>2026-09-01T01:18:14Z</time>
  <course>180.96</course>
  <speed>0.4</speed>
  <fix>3d</fix>
</trkpt>
<trkpt lat="33.8102892" lon="-118.3938675">
  <ele>-15.414</ele>
  <time>2026-09-01T01:18:14Z</time>
  <course>187.89</course>
  <speed>0.38013155617496425</speed>
  <fix>3d</fix>
</trkpt>
<trkpt lat="33.8102898" lon="-118.3938675">
  <ele>-15.05</ele>
  <time>2026-09-01T01:18:14Z</time>
  <course>180.96</course>
  <speed>0.4</speed>
  <fix>3d</fix>
</trkpt>
<trkpt lat="33.8102888" lon="-118.3938675">
  <ele>-15.415</ele>
  <time>2026-09-01T01:18:14Z</time>
  <course>187.87</course>
  <speed>0.38013155617496425</speed>
  <fix>3d</fix>
</trkpt>
<trkpt lat="33.8102891" lon="-118.3938675">
  <ele>-15.05</ele>
  <time>2026-09-01T01:18:14Z</time>
  <course>180.79</course>
  <speed>0.4</speed>
  <fix>3d</fix>
</trkpt>
<trkpt lat="33.8102885" lon="-118.3938675">
  <ele>-15.416</ele>
  <time>2026-09-01T01:18:14Z</time>
  <course>187.86</course>
  <speed>0.38013155617496425</speed>
  <fix>3d</fix>
</trkpt>
<trkpt lat="33.8102891" lon="-118.3938675">
  <ele>-15.05</ele>
  <time>2026-09-01T01:18:14Z</time>
  <course>180.79</course>
  <speed>0.4</speed>
  <fix>3d</fix>
</trkpt>
<trkpt lat="33.8102881" lon="-118.3938675">
  <ele>-15.418</ele>
  <time>2026-09-01T01:18:14Z</time>
  <course>187.85</course>
  <speed>0.38013155617496425</speed>
  <fix>3d</fix>
</trkpt>
<trkpt lat="33.8102883" lon="-118.3938675">
  <ele>-15.05</ele>
  <time>2026-09-01T01:18:14Z</time>
  <course>180.63</course>
  <speed>0.4</speed>
  <fix>3d</fix>
</trkpt>
<trkpt lat="33.8102877" lon="-118.3938675">
  <ele>-15.421</ele>
  <time>2026-09-01T01:18:14Z</time>
  <course>187.84</course>
  <speed>0.38013155617496425</speed>
  <fix>3d</fix>
</trkpt>
<trkpt lat="33.8102883" lon="-118.3938675">
  <ele>-15.05</ele>
  <time>2026-09-01T01:18:14Z</time>
  <course>180.63</course>
  <speed>0.4</speed>
  <fix>3d</fix>
</trkpt>
<trkpt lat="33.8102874" lon="-118.3938676">
  <ele>-15.423</ele>
  <time>2026-09-01T01:18:14Z</time>
  <course>187.83</course>
  <speed>0.38013155617496425</speed>
  <fix>3d</fix>
</trkpt>
<trkpt lat="33.8102876" lon="-118.3938675">
  <ele>-15.06</ele>
  <time>2026-09-01T01:18:14Z</time>
  <course>180.51</course>
  <speed>0.4</speed>
  <fix>3d</fix>
</trkpt>
<trkpt lat="33.810287" lon="-118.3938676">
  <ele>-15.424</ele>
  <time>2026-09-01T01:18:14Z</time>
  <course>187.82</course>
  <speed>0.38013155617496425</speed>
  <fix>3d</fix>
</trkpt>
<trkpt lat="33.8102876" lon="-118.3938675">
  <ele>-15.06</ele>
  <time>2026-09-01T01:18:14Z</time>
  <course>180.51</course>
  <speed>0.4</speed>
  <fix>3d</fix>
</trkpt>
<trkpt lat="33.8102866" lon="-118.3938676">
  <ele>-15.423</ele>
  <time>2026-09-01T01:18:14Z</time>
  <course>187.8</course>
  <speed>0.38013155617496425</speed>
  <fix>3d</fix>
</trkpt>
<trkpt lat="33.8102868" lon="-118.3938675">
  <ele>-15.06</ele>
  <time>2026-09-01T01:18:14Z</time>
  <course>180.46</course>
  <speed>0.4</speed>
  <fix>3d</fix>
</trkpt>
<trkpt lat="33.8102863" lon="-118.3938676">
  <ele>-15.422</ele>
  <time>2026-09-01T01:18:14Z</time>
  <course>187.79</course>
  <speed>0.38013155617496425</speed>
  <fix>3d</fix>
</trkpt>
<trkpt lat="33.8102868" lon="-118.3938675">
  <ele>-15.06</ele>
  <time>2026-09-01T01:18:14Z</time>
  <course>180.46</course>
  <speed>0.4</speed>
  <fix>3d</fix>
</trkpt>
<trkpt lat="33.8102859" lon="-118.3938676">
  <ele>-15.421</ele>
  <time>2026-09-01T01:18:14Z</time>
  <course>187.78</course>
  <speed>0.38013155617496425</speed>
  <fix>3d</fix>
</trkpt>
<trkpt lat="33.8102861" lon="-118.3938675">
  <ele>-15.06</ele>
  <time>2026-09-01T01:18:14Z</time>
  <course>180.45</course>
  <speed>0.4</speed>
  <fix>3d</fix>
</trkpt>
<trkpt lat="33.8102855" lon="-118.3938676">
  <ele>-15.418</ele>
  <time>2026-09-01T01:18:14Z</time>
  <course>187.77</course>
  <speed>0.38013155617496425</speed>
  <fix>3d</fix>
</trkpt>
<trkpt lat="33.8102861" lon="-118.3938675">
  <ele>-15.06</ele>
  <time>2026-09-01T01:18:14Z</time>
  <course>180.45</course>
  <speed>0.4</speed>
  <fix>3d</fix>
</trkpt>
<trkpt lat="33.8102852" lon="-118.3938676">
  <ele>-15.415</ele>
  <time>2026-09-01T01:18:14Z</time>
  <course>187.76</course>
  <speed>0.38013155617496425</speed>
  <fix>3d</fix>
</trkpt>
<trkpt lat="33.8102854" lon="-118.3938675">
  <ele>-15.06</ele>
  <time>2026-09-01T01:18:14Z</time>
  <course>180.44</course>
  <speed>0.4</speed>
  <fix>3d</fix>
</trkpt>
<trkpt lat="33.8102848" lon="-118.3938676">
  <ele>-15.411</ele>
  <time>2026-09-01T01:18:14Z</time>
  <course>187.74</course>
  <speed>0.38013155617496425</speed>
  <fix>3d</fix>
</trkpt>
<trkpt lat="33.8102854" lon="-118.3938675">
  <ele>-15.06</ele>
  <time>2026-09-01T01:18:14Z</time>
  <course>180.44</course>
  <speed>0.4</speed>
  <fix>3d</fix>
</trkpt>
<trkpt lat="33.8102844" lon="-118.3938676">
  <ele>-15.409</ele>
  <time>2026-09-01T01:18:14Z</time>
  <course>187.73</course>
  <speed>0.38013155617496425</speed>
  <fix>3d</fix>
</trkpt>
<trkpt lat="33.8102846" lon="-118.3938676">
  <ele>-15.05</ele>
  <time>2026-09-01T01:18:14Z</time>
  <course>180.43</course>
  <speed>0.4</speed>
  <fix>3d</fix>
</trkpt>
<trkpt lat="33.8102841" lon="-118.3938676">
  <ele>-15.407</ele>
  <time>2026-09-01T01:18:14Z</time>
  <course>187.72</course>
  <speed>0.38</speed>
  <fix>3d</fix>
</trkpt>
<trkpt lat="33.8102846" lon="-118.3938676">
  <ele>-15.05</ele>
  <time>2026-09-01T01:18:14Z</time>
  <course>180.43</course>
  <speed>0.4</speed>
  <fix>3d</fix>
</trkpt>
<trkpt lat="33.8102837" lon="-118.3938676">
  <ele>-15.407</ele>
  <time>2026-09-01T01:18:14Z</time>
  <course>187.71</course>
  <speed>0.38</speed>
  <fix>3d</fix>
</trkpt>
<trkpt lat="33.8102839" lon="-118.3938676">
  <ele>-15.05</ele>
  <time>2026-09-01T01:18:14Z</time>
  <course>180.34</course>
  <speed>0.4</speed>
  <fix>3d</fix>
</trkpt>
<trkpt lat="33.8102833" lon="-118.3938676">
  <ele>-15.408</ele>
  <time>2026-09-01T01:18:14Z</time>
  <course>187.7</course>
  <speed>0.38</speed>
  <fix>3d</fix>
</trkpt>
<trkpt lat="33.8102839" lon="-118.3938676">
  <ele>-15.05</ele>
  <time>2026-09-01T01:18:14Z</time>
  <course>180.34</course>
  <speed>0.4</speed>
  <fix>3d</fix>
</trkpt>
<trkpt lat="33.8102829" lon="-118.3938676">
  <ele>-15.411</ele>
  <time>2026-09-01T01:18:14Z</time>
  <course>187.69</course>
  <speed>0.38</speed>
  <fix>3d</fix>
</trkpt>
<trkpt lat="33.8102832" lon="-118.3938676">
  <ele>-15.05</ele>
  <time>2026-09-01T01:18:14Z</time>
  <course>180.14</course>
  <speed>0.41</speed>
  <fix>3d</fix>
</trkpt>
<trkpt lat="33.8102826" lon="-118.3938676">
  <ele>-15.414</ele>
  <time>2026-09-01T01:18:14Z</time>
  <course>187.68</course>
  <speed>0.39</speed>
  <fix>3d</fix>
</trkpt>
<trkpt lat="33.8102832" lon="-118.3938676">
  <ele>-15.05</ele>
  <time>2026-09-01T01:18:14Z</time>
  <course>180.14</course>
  <speed>0.41</speed>
  <fix>3d</fix>
</trkpt>
<trkpt lat="33.8102822" lon="-118.3938676">
  <ele>-15.417</ele>
  <time>2026-09-01T01:18:14Z</time>
  <course>187.67</course>
  <speed>0.39</speed>
  <fix>3d</fix>
</trkpt>
<trkpt lat="33.8102825" lon="-118.3938676">
  <ele>-15.06</ele>
  <time>2026-09-01T01:18:14Z</time>
  <course>179.88</course>
  <speed>0.41</speed>
  <fix>3d</fix>
</trkpt>
<trkpt lat="33.8102818" lon="-118.3938676">
  <ele>-15.42</ele>
  <time>2026-09-01T01:18:14Z</time>
  <course>187.66</course>
  <speed>0.39</speed>
  <fix>3d</fix>
</trkpt>
<trkpt lat="33.8102825" lon="-118.3938676">
  <ele>-15.06</ele>
  <time>2026-09-01T01:18:14Z</time>
  <course>179.88</course>
  <speed>0.41</speed>
  <fix>3d</fix>
</trkpt>
<trkpt lat="33.8102815" lon="-118.3938676">
  <ele>-15.422</ele>
  <time>2026-09-01T01:18:14Z</time>
  <course>187.65</course>
  <speed>0.39</speed>
  <fix>3d</fix>
</trkpt>
<trkpt lat="33.8102817" lon="-118.3938676">
  <ele>-15.06</ele>
  <time>2026-09-01T01:18:14Z</time>
  <course>179.64</course>
  <speed>0.41</speed>
  <fix>3d</fix>
</trkpt>
<trkpt lat="33.8102811" lon="-118.3938676">
  <ele>-15.422</ele>
  <time>2026-09-01T01:18:14Z</time>
  <course>187.64</course>
  <speed>0.39</speed>
  <fix>3d</fix>
</trkpt>
<trkpt lat="33.8102817" lon="-118.3938676">
  <ele>-15.06</ele>
  <time>2026-09-01T01:18:14Z</time>
  <course>179.64</course>
  <speed>0.41</speed>
  <fix>3d</fix>
</trkpt>
<trkpt lat="33.8102807" lon="-118.3938676">
  <ele>-15.421</ele>
  <time>2026-09-01T01:18:14Z</time>
  <course>187.63</course>
  <speed>0.39</speed>
  <fix>3d</fix>
</trkpt>
<trkpt lat="33.810281" lon="-118.3938676">
  <ele>-15.06</ele>
  <time>2026-09-01T01:18:14Z</time>
  <course>179.45</course>
  <speed>0.41</speed>
  <fix>3d</fix>
</trkpt>
<trkpt lat="33.8102803" lon="-118.3938676">
  <ele>-15.418</ele>
  <time>2026-09-01T01:18:14Z</time>
  <course>187.62</course>
  <speed>0.39</speed>
  <fix>3d</fix>
</trkpt>
<trkpt lat="33.810281" lon="-118.3938676">
  <ele>-15.06</ele>
  <time>2026-09-01T01:18:14Z</time>
  <course>179.45</course>
  <speed>0.41</speed>
  <fix>3d</fix>
</trkpt>
<trkpt lat="33.81028" lon="-118.3938676">
  <ele>-15.414</ele>
  <time>2026-09-01T01:18:14Z</time>
  <course>187.61</course>
  <speed>0.39</speed>
  <fix>3d</fix>
</trkpt>
<trkpt lat="33.8102802" lon="-118.3938676">
  <ele>-15.05</ele>
  <time>2026-09-01T01:18:14Z</time>
  <course>179.31</course>
  <speed>0.41</speed>
  <fix>3d</fix>
</trkpt>
<trkpt lat="33.8102796" lon="-118.3938676">
  <ele>-15.41</ele>
  <time>2026-09-01T01:18:14Z</time>
  <course>187.6</course>
  <speed>0.39</speed>
  <fix>3d</fix>
</trkpt>
<trkpt lat="33.8102802" lon="-118.3938676">
  <ele>-15.05</ele>
  <time>2026-09-01T01:18:14Z</time>
  <course>179.31</course>
  <speed>0.41</speed>
  <fix>3d</fix>
</trkpt>
<trkpt lat="33.8102792" lon="-118.3938676">
  <ele>-15.405</ele>
  <time>2026-09-01T01:18:14Z</time>
  <course>187.59</course>
  <speed>0.39</speed>
  <fix>3d</fix>
</trkpt>
<trkpt lat="33.8102794" lon="-118.3938676">
  <ele>-15.04</ele>
  <time>2026-09-01T01:18:14Z</time>
  <course>179.23</course>
  <speed>0.42</speed>
  <fix>3d</fix>
</trkpt>
<trkpt lat="33.8102788" lon="-118.3938676">
  <ele>-15.401</ele>
  <time>2026-09-01T01:18:14Z</time>
  <course>187.58</course>
  <speed>0.39</speed>
  <fix>3d</fix>
</trkpt>
<trkpt lat="33.8102794" lon="-118.3938676">
  <ele>-15.04</ele>
  <time>2026-09-01T01:18:14Z</time>
  <course>179.23</course>
  <speed>0.42</speed>
  <fix>3d</fix>
</trkpt>
<trkpt lat="33.8102785" lon="-118.3938676">
  <ele>-15.397</ele>
  <time>2026-09-01T01:18:14Z</time>
  <course>187.57</course>
  <speed>0.39</speed>
  <fix>3d</fix>
</trkpt>
<trkpt lat="33.8102787" lon="-118.3938676">
  <ele>-15.03</ele>
  <time>2026-09-01T01:18:14Z</time>
  <course>179.17</course>
  <speed>0.42</speed>
  <fix>3d</fix>
</trkpt>
<trkpt lat="33.8102781" lon="-118.3938676">
  <ele>-15.396</ele>
  <time>2026-09-01T01:18:14Z</time>
  <course>187.56</course>
  <speed>0.39</speed>
  <fix>3d</fix>
</trkpt>
<trkpt lat="33.8102787" lon="-118.3938676">
  <ele>-15.03</ele>
  <time>2026-09-01T01:18:14Z</time>
  <course>179.17</course>
  <speed>0.42</speed>
  <fix>3d</fix>
</trkpt>
<trkpt lat="33.8102777" lon="-118.3938676">
  <ele>-15.395</ele>
  <time>2026-09-01T01:18:14Z</time>
  <course>187.55</course>
  <speed>0.4</speed>
  <fix>3d</fix>
</trkpt>
<trkpt lat="33.8102779" lon="-118.3938676">
  <ele>-15.03</ele>
  <time>2026-09-01T01:18:14Z</time>
  <course>179.14</course>
  <speed>0.42</speed>
  <fix>3d</fix>
</trkpt>
<trkpt lat="33.8102773" lon="-118.3938676">
  <ele>-15.395</ele>
  <time>2026-09-01T01:18:14Z</time>
  <course>187.54</course>
  <speed>0.4</speed>
  <fix>3d</fix>
</trkpt>
<trkpt lat="33.8102779" lon="-118.3938676">
  <ele>-15.03</ele>
  <time>2026-09-01T01:18:14Z</time>
  <course>179.14</course>
  <speed>0.42</speed>
  <fix>3d</fix>
</trkpt>
<trkpt lat="33.8102769" lon="-118.3938676">
  <ele>-15.395</ele>
  <time>2026-09-01T01:18:14Z</time>
  <course>187.53</course>
  <speed>0.4</speed>
  <fix>3d</fix>
</trkpt>
<trkpt lat="33.8102772" lon="-118.3938676">
  <ele>-15.03</ele>
  <time>2026-09-01T01:18:14Z</time>
  <course>179.1</course>
  <speed>0.42</speed>
  <fix>3d</fix>
</trkpt>
<trkpt lat="33.8102765" lon="-118.3938676">
  <ele>-15.396</ele>
  <time>2026-09-01T01:18:14Z</time>
  <course>187.52</course>
  <speed>0.4</speed>
  <fix>3d</fix>
</trkpt>
<trkpt lat="33.8102772" lon="-118.3938676">
  <ele>-15.03</ele>
  <time>2026-09-01T01:18:14Z</time>
  <course>179.1</course>
  <speed>0.42</speed>
  <fix>3d</fix>
</trkpt>
<trkpt lat="33.8102762" lon="-118.3938676">
  <ele>-15.397</ele>
  <time>2026-09-01T01:18:14Z</time>
  <course>187.52</course>
  <speed>0.4</speed>
  <fix>3d</fix>
</trkpt>
<trkpt lat="33.8102764" lon="-118.3938676">
  <ele>-15.04</ele>
  <time>2026-09-01T01:18:14Z</time>
  <course>179.06</course>
  <speed>0.42</speed>
  <fix>3d</fix>
</trkpt>
<trkpt lat="33.8102758" lon="-118.3938676">
  <ele>-15.399</ele>
  <time>2026-09-01T01:18:14Z</time>
  <course>187.51</course>
  <speed>0.4</speed>
  <fix>3d</fix>
</trkpt>
<trkpt lat="33.8102764" lon="-118.3938676">
  <ele>-15.04</ele>
  <time>2026-09-01T01:18:14Z</time>
  <course>179.06</course>
  <speed>0.42</speed>
  <fix>3d</fix>
</trkpt>
<trkpt lat="33.8102754" lon="-118.3938676">
  <ele>-15.4</ele>
  <time>2026-09-01T01:18:14Z</time>
  <course>187.5</course>
  <speed>0.4</speed>
  <fix>3d</fix>
</trkpt>
<trkpt lat="33.8102757" lon="-118.3938676">
  <ele>-15.04</ele>
  <time>2026-09-01T01:18:14Z</time>
  <course>179.02</course>
  <speed>0.42</speed>
  <fix>3d</fix>
</trkpt>
<trkpt lat="33.810275" lon="-118.3938676">
  <ele>-15.401</ele>
  <time>2026-09-01T01:18:14Z</time>
  <course>187.49</course>
  <speed>0.4</speed>
  <fix>3d</fix>
</trkpt>
<trkpt lat="33.8102757" lon="-118.3938676">
  <ele>-15.04</ele>
  <time>2026-09-01T01:18:14Z</time>
  <course>179.02</course>
  <speed>0.42</speed>
  <fix>3d</fix>
</trkpt>
<trkpt lat="33.8102746" lon="-118.3938676">
  <ele>-15.402</ele>
  <time>2026-09-01T01:18:14Z</time>
  <course>187.48</course>
  <speed>0.4</speed>
  <fix>3d</fix>
</trkpt>
<trkpt lat="33.8102749" lon="-118.3938675">
  <ele>-15.04</ele>
  <time>2026-09-01T01:18:14Z</time>
  <course>178.94</course>
  <speed>0.42</speed>
  <fix>3d</fix>
</trkpt>
<trkpt lat="33.8102743" lon="-118.3938676">
  <ele>-15.403</ele>
  <time>2026-09-01T01:18:14Z</time>
  <course>187.48</course>
  <speed>0.4</speed>
  <fix>3d</fix>
</trkpt>
<trkpt lat="33.8102749" lon="-118.3938675">
  <ele>-15.04</ele>
  <time>2026-09-01T01:18:14Z</time>
  <course>178.94</course>
  <speed>0.42</speed>
  <fix>3d</fix>
</trkpt>
<trkpt lat="33.8102739" lon="-118.3938676">
  <ele>-15.403</ele>
  <time>2026-09-01T01:18:14Z</time>
  <course>187.47</course>
  <speed>0.4</speed>
  <fix>3d</fix>
</trkpt>
<trkpt lat="33.8102741" lon="-118.3938675">
  <ele>-15.04</ele>
  <time>2026-09-01T01:18:14Z</time>
  <course>178.95</course>
  <speed>0.42</speed>
  <fix>3d</fix>
</trkpt>
<trkpt lat="33.8102735" lon="-118.3938676">
  <ele>-15.402</ele>
  <time>2026-09-01T01:18:14Z</time>
  <course>187.46</course>
  <speed>0.4</speed>
  <fix>3d</fix>
</trkpt>
<trkpt lat="33.8102741" lon="-118.3938675">
  <ele>-15.04</ele>
  <time>2026-09-01T01:18:14Z</time>
  <course>178.95</course>
  <speed>0.42</speed>
  <fix>3d</fix>
</trkpt>
<trkpt lat="33.8102731" lon="-118.3938676">
  <ele>-15.4</ele>
  <time>2026-09-01T01:18:14Z</time>
  <course>187.45</course>
  <speed>0.4</speed>
  <fix>3d</fix>
</trkpt>
<trkpt lat="33.8102734" lon="-118.3938675">
  <ele>-15.04</ele>
  <time>2026-09-01T01:18:14Z</time>
  <course>179.08</course>
  <speed>0.43</speed>
  <fix>3d</fix>
</trkpt>
<trkpt lat="33.8102727" lon="-118.3938676">
  <ele>-15.398</ele>
  <time>2026-09-01T01:18:14Z</time>
  <course>187.44</course>
  <speed>0.4001249804748511</speed>
  <fix>3d</fix>
</trkpt>
<trkpt lat="33.8102734" lon="-118.3938675">
  <ele>-15.04</ele>
  <time>2026-09-01T01:18:14Z</time>
  <course>179.08</course>
  <speed>0.43</speed>
  <fix>3d</fix>
</trkpt>
<trkpt lat="33.8102723" lon="-118.3938676">
  <ele>-15.395</ele>
  <time>2026-09-01T01:18:14Z</time>
  <course>187.43</course>
  <speed>0.41012193308819755</speed>
  <fix>3d</fix>
</trkpt>
<trkpt lat="33.8102726" lon="-118.3938675">
  <ele>-15.03</ele>
  <time>2026-09-01T01:18:14Z</time>
  <course>179.25</course>
  <speed>0.43</speed>
  <fix>3d</fix>
</trkpt>
<trkpt lat="33.8102719" lon="-118.3938676">
  <ele>-15.392</ele>
  <time>2026-09-01T01:18:14Z</time>
  <course>187.43</course>
  <speed>0.41012193308819755</speed>
  <fix>3d</fix>
</trkpt>
<trkpt lat="33.8102726" lon="-118.3938675">
  <ele>-15.03</ele>
  <time>2026-09-01T01:18:14Z</time>
  <course>179.25</course>
  <speed>0.43</speed>
  <fix>3d</fix>
</trkpt>
<trkpt lat="33.8102715" lon="-118.3938676">
  <ele>-15.391</ele>
  <time>2026-09-01T01:18:14Z</time>
  <course>187.42</course>
  <speed>0.41012193308819755</speed>
  <fix>3d</fix>
</trkpt>
<trkpt lat="33.8102718" lon="-118.3938675">
  <ele>-15.03</ele>
  <time>2026-09-01T01:18:14Z</time>
  <course>179.41</course>
  <speed>0.43</speed>
  <fix>3d</fix>
</trkpt>
<trkpt lat="33.8102712" lon="-118.3938676">
  <ele>-15.39</ele>
  <time>2026-09-01T01:18:14Z</time>
  <course>187.41</course>
  <speed>0.41012193308819755</speed>
  <fix>3d</fix>
</trkpt>
<trkpt lat="33.8102718" lon="-118.3938675">
  <ele>-15.03</ele>
  <time>2026-09-01T01:18:14Z</time>
  <course>179.41</course>
  <speed>0.43</speed>
  <fix>3d</fix>
</trkpt>
<trkpt lat="33.8102708" lon="-118.3938676">
  <ele>-15.391</ele>
  <time>2026-09-01T01:18:14Z</time>
  <course>187.4</course>
  <speed>0.41012193308819755</speed>
  <fix>3d</fix>
</trkpt>
<trkpt lat="33.810271" lon="-118.3938675">
  <ele>-15.03</ele>
  <time>2026-09-01T01:18:14Z</time>
  <course>179.5</course>
  <speed>0.43</speed>
  <fix>3d</fix>
</trkpt>
<trkpt lat="33.8102704" lon="-118.3938676">
  <ele>-15.391</ele>
  <time>2026-09-01T01:18:14Z</time>
  <course>187.39</course>
  <speed>0.41012193308819755</speed>
  <fix>3d</fix>
</trkpt>
<trkpt lat="33.810271" lon="-118.3938675">
  <ele>-15.03</ele>
  <time>2026-09-01T01:18:14Z</time>
  <course>179.5</course>
  <speed>0.43</speed>
  <fix>3d</fix>
</trkpt>
<trkpt lat="33.81027" lon="-118.3938676">
  <ele>-15.39</ele>
  <time>2026-09-01T01:18:14Z</time>
  <course>187.38</course>
  <speed>0.41012193308819755</speed>
  <fix>3d</fix>
</trkpt>
<trkpt lat="33.8102703" lon="-118.3938675">
  <ele>-15.02</ele>
  <time>2026-09-01T01:18:14Z</time>
  <course>179.55</course>
  <speed>0.43</speed>
  <fix>3d</fix>
</trkpt>
<trkpt lat="33.8102696" lon="-118.3938676">
  <ele>-15.389</ele>
  <time>2026-09-01T01:18:14Z</time>
  <course>187.37</course>
  <speed>0.41012193308819755</speed>
  <fix>3d</fix>
</trkpt>
<trkpt lat="33.8102703" lon="-118.3938675">
  <ele>-15.02</ele>
  <time>2026-09-01T01:18:14Z</time>
  <course>179.55</course>
  <speed>0.43</speed>
  <fix>3d</fix>
</trkpt>
<trkpt lat="33.8102692" lon="-118.3938676">
  <ele>-15.387</ele>
  <time>2026-09-01T01:18:14Z</time>
  <course>187.37</course>
  <speed>0.41012193308819755</speed>
  <fix>3d</fix>
</trkpt>
<trkpt lat="33.8102695" lon="-118.3938675">
  <ele>-15.02</ele>
  <time>2026-09-01T01:18:14Z</time>
  <course>179.54</course>
  <speed>0.43</speed>
  <fix>3d</fix>
</trkpt>
<trkpt lat="33.8102688" lon="-118.3938676">
  <ele>-15.386</ele>
  <time>2026-09-01T01:18:14Z</time>
  <course>187.36</course>
  <speed>0.41012193308819755</speed>
  <fix>3d</fix>
</trkpt>
<trkpt lat="33.8102695" lon="-118.3938675">
  <ele>-15.02</ele>
  <time>2026-09-01T01:18:14Z</time>
  <course>179.54</course>
  <speed>0.43</speed>
  <fix>3d</fix>
</trkpt>
<trkpt lat="33.8102684" lon="-118.3938676">
  <ele>-15.385</ele>
  <time>2026-09-01T01:18:14Z</time>
  <course>187.36</course>
  <speed>0.41012193308819755</speed>
  <fix>3d</fix>
</trkpt>
<trkpt lat="33.8102686" lon="-118.3938675">
  <ele>-15.02</ele>
  <time>2026-09-01T01:18:14Z</time>
  <course>179.52</course>
  <speed>0.43</speed>
  <fix>3d</fix>
</trkpt>
<trkpt lat="33.810268" lon="-118.3938676">
  <ele>-15.385</ele>
  <time>2026-09-01T01:18:14Z</time>
  <course>187.35</course>
  <speed>0.41012193308819755</speed>
  <fix>3d</fix>
</trkpt>
<trkpt lat="33.8102686" lon="-118.3938675">
  <ele>-15.02</ele>
  <time>2026-09-01T01:18:14Z</time>
  <course>179.52</course>
  <speed>0.43</speed>
  <fix>3d</fix>
</trkpt>
<trkpt lat="33.8102676" lon="-118.3938676">
  <ele>-15.385</ele>
  <time>2026-09-01T01:18:14Z</time>
  <course>187.34</course>
  <speed>0.41012193308819755</speed>
  <fix>3d</fix>
</trkpt>
<trkpt lat="33.8102679" lon="-118.3938674">
  <ele>-15.02</ele>
  <time>2026-09-01T01:18:14Z</time>
  <course>179.5</course>
  <speed>0.43</speed>
  <fix>3d</fix>
</trkpt>
<trkpt lat="33.8102672" lon="-118.3938676">
  <ele>-15.386</ele>
  <time>2026-09-01T01:18:14Z</time>
  <course>187.34</course>
  <speed>0.41012193308819755</speed>
  <fix>3d</fix>
</trkpt>
<trkpt lat="33.8102679" lon="-118.3938674">
  <ele>-15.02</ele>
  <time>2026-09-01T01:18:14Z</time>
  <course>179.5</course>
  <speed>0.43</speed>
  <fix>3d</fix>
</trkpt>
<trkpt lat="33.8102668" lon="-118.3938676">
  <ele>-15.386</ele>
  <time>2026-09-01T01:18:14Z</time>
  <course>187.33</course>
  <speed>0.41012193308819755</speed>
  <fix>3d</fix>
</trkpt>
<trkpt lat="33.8102671" lon="-118.3938674">
  <ele>-15.02</ele>
  <time>2026-09-01T01:18:14Z</time>
  <course>179.58</course>
  <speed>0.43</speed>
  <fix>3d</fix>
</trkpt>
<trkpt lat="33.8102664" lon="-118.3938676">
  <ele>-15.386</ele>
  <time>2026-09-01T01:18:14Z</time>
  <course>187.32</course>
  <speed>0.41012193308819755</speed>
  <fix>3d</fix>
</trkpt>
<trkpt lat="33.8102671" lon="-118.3938674">
  <ele>-15.02</ele>
  <time>2026-09-01T01:18:14Z</time>
  <course>179.58</course>
  <speed>0.43</speed>
  <fix>3d</fix>
</trkpt>
<trkpt lat="33.810266" lon="-118.3938676">
  <ele>-15.386</ele>
  <time>2026-09-01T01:18:14Z</time>
  <course>187.31</course>
  <speed>0.41012193308819755</speed>
  <fix>3d</fix>
</trkpt>
<trkpt lat="33.8102663" lon="-118.3938674">
  <ele>-15.02</ele>
  <time>2026-09-01T01:18:14Z</time>
  <course>179.76</course>
  <speed>0.43</speed>
  <fix>3d</fix>
</trkpt>
<trkpt lat="33.8102657" lon="-118.3938676">
  <ele>-15.385</ele>
  <time>2026-09-01T01:18:14Z</time>
  <course>187.31</course>
  <speed>0.41012193308819755</speed>
  <fix>3d</fix>
</trkpt>
<trkpt lat="33.8102663" lon="-118.3938674">
  <ele>-15.02</ele>
  <time>2026-09-01T01:18:14Z</time>
  <course>179.76</course>
  <speed>0.43</speed>
  <fix>3d</fix>
</trkpt>
<trkpt lat="33.8102653" lon="-118.3938676">
  <ele>-15.386</ele>
  <time>2026-09-01T01:18:14Z</time>
  <course>187.3</course>
  <speed>0.41012193308819755</speed>
  <fix>3d</fix>
</trkpt>
<trkpt lat="33.8102655" lon="-118.3938674">
  <ele>-15.02</ele>
  <time>2026-09-01T01:18:14Z</time>
  <course>179.95</course>
  <speed>0.43</speed>
  <fix>3d</fix>
</trkpt>
<trkpt lat="33.8102649" lon="-118.3938676">
  <ele>-15.386</ele>
  <time>2026-09-01T01:18:14Z</time>
  <course>187.3</course>
  <speed>0.41012193308819755</speed>
  <fix>3d</fix>
</trkpt>
<trkpt lat="33.8102655" lon="-118.3938674">
  <ele>-15.02</ele>
  <time>2026-09-01T01:18:14Z</time>
  <course>179.95</course>
  <speed>0.43</speed>
  <fix>3d</fix>
</trkpt>
<trkpt lat="33.8102645" lon="-118.3938676">
  <ele>-15.385</ele>
  <time>2026-09-01T01:18:14Z</time>
  <course>187.29</course>
  <speed>0.41012193308819755</speed>
  <fix>3d</fix>
</trkpt>
<trkpt lat="33.8102648" lon="-118.3938674">
  <ele>-15.02</ele>
  <time>2026-09-01T01:18:14Z</time>
  <course>180.12</course>
  <speed>0.44</speed>
  <fix>3d</fix>
</trkpt>
<trkpt lat="33.8102641" lon="-118.3938676">
  <ele>-15.385</ele>
  <time>2026-09-01T01:18:14Z</time>
  <course>187.28</course>
  <speed>0.41012193308819755</speed>
  <fix>3d</fix>
</trkpt>
<trkpt lat="33.8102648" lon="-118.3938674">
  <ele>-15.02</ele>
  <time>2026-09-01T01:18:14Z</time>
  <course>180.12</course>
  <speed>0.44</speed>
  <fix>3d</fix>
</trkpt>
<trkpt lat="33.8102637" lon="-118.3938676">
  <ele>-15.384</ele>
  <time>2026-09-01T01:18:14Z</time>
  <course>187.28</course>
  <speed>0.4201190307520001</speed>
  <fix>3d</fix>
</trkpt>
<trkpt lat="33.810264" lon="-118.3938674">
  <ele>-15.02</ele>
  <time>2026-09-01T01:18:14Z</time>
  <course>180.26</course>
  <speed>0.44</speed>
  <fix>3d</fix>
</trkpt>
<trkpt lat="33.8102633" lon="-118.3938676">
  <ele>-15.384</ele>
  <time>2026-09-01T01:18:14Z</time>
  <course>187.27</course>
  <speed>0.4201190307520001</speed>
  <fix>3d</fix>
</trkpt>
<trkpt lat="33.810264" lon="-118.3938674">
  <ele>-15.02</ele>
  <time>2026-09-01T01:18:14Z</time>
  <course>180.26</course>
  <speed>0.44</speed>
  <fix>3d</fix>
</trkpt>
<trkpt lat="33.8102629" lon="-118.3938676">
  <ele>-15.383</ele>
  <time>2026-09-01T01:18:14Z</time>
  <course>187.26</course>
  <speed>0.4201190307520001</speed>
  <fix>3d</fix>
</trkpt>
<trkpt lat="33.8102631" lon="-118.3938674">
  <ele>-15.01</ele>
  <time>2026-09-01T01:18:14Z</time>
  <course>180.35</course>
  <speed>0.44</speed>
  <fix>3d</fix>
</trkpt>
<trkpt lat="33.8102625" lon="-118.3938676">
  <ele>-15.38</ele>
  <time>2026-09-01T01:18:14Z</time>
  <course>187.26</course>
  <speed>0.4201190307520001</speed>
  <fix>3d</fix>
</trkpt>
<trkpt lat="33.8102631" lon="-118.3938674">
  <ele>-15.01</ele>
  <time>2026-09-01T01:18:14Z</time>
  <course>180.35</course>
  <speed>0.44</speed>
  <fix>3d</fix>
</trkpt>
<trkpt lat="33.8102621" lon="-118.3938676">
  <ele>-15.378</ele>
  <time>2026-09-01T01:18:14Z</time>
  <course>187.25</course>
  <speed>0.4201190307520001</speed>
  <fix>3d</fix>
</trkpt>
<trkpt lat="33.8102624" lon="-118.3938674">
  <ele>-15.01</ele>
  <time>2026-09-01T01:18:14Z</time>
  <course>180.4</course>
  <speed>0.44</speed>
  <fix>3d</fix>
</trkpt>
<trkpt lat="33.8102617" lon="-118.3938676">
  <ele>-15.375</ele>
  <time>2026-09-01T01:18:14Z</time>
  <course>187.25</course>
  <speed>0.4201190307520001</speed>
  <fix>3d</fix>
</trkpt>
<trkpt lat="33.8102624" lon="-118.3938674">
  <ele>-15.01</ele>
  <time>2026-09-01T01:18:14Z</time>
  <course>180.4</course>
  <speed>0.44</speed>
  <fix>3d</fix>
</trkpt>
<trkpt lat="33.8102613" lon="-118.3938676">
  <ele>-15.373</ele>
  <time>2026-09-01T01:18:14Z</time>
  <course>187.24</course>
  <speed>0.4201190307520001</speed>
  <fix>3d</fix>
</trkpt>
<trkpt lat="33.8102616" lon="-118.3938674">
  <ele>-15.0</ele>
  <time>2026-09-01T01:18:14Z</time>
  <course>180.43</course>
  <speed>0.44</speed>
  <fix>3d</fix>
</trkpt>
<trkpt lat="33.8102609" lon="-118.3938676">
  <ele>-15.371</ele>
  <time>2026-09-01T01:18:14Z</time>
  <course>187.23</course>
  <speed>0.4201190307520001</speed>
  <fix>3d</fix>
</trkpt>
<trkpt lat="33.8102616" lon="-118.3938674">
  <ele>-15.0</ele>
  <time>2026-09-01T01:18:14Z</time>
  <course>180.43</course>
  <speed>0.44</speed>
  <fix>3d</fix>
</trkpt>
<trkpt lat="33.8102605" lon="-118.3938676">
  <ele>-15.37</ele>
  <time>2026-09-01T01:18:15Z</time>
  <course>187.23</course>
  <speed>0.4201190307520001</speed>
  <fix>3d</fix>
</trkpt>
<trkpt lat="33.8102607" lon="-118.3938674">
  <ele>-15.0</ele>
  <time>2026-09-01T01:18:15Z</time>
  <course>180.47</course>
  <speed>0.44</speed>
  <fix>3d</fix>
</trkpt>
<trkpt lat="33.8102601" lon="-118.3938676">
  <ele>-15.37</ele>
  <time>2026-09-01T01:18:15Z</time>
  <course>187.22</course>
  <speed>0.4201190307520001</speed>
  <fix>3d</fix>
</trkpt>
<trkpt lat="33.8102607" lon="-118.3938674">
  <ele>-15.0</ele>
  <time>2026-09-01T01:18:15Z</time>
  <course>180.47</course>
  <speed>0.44</speed>
  <fix>3d</fix>
</trkpt>
<trkpt lat="33.8102597" lon="-118.3938676">
  <ele>-15.37</ele>
  <time>2026-09-01T01:18:15Z</time>
  <course>187.21</course>
  <speed>0.4201190307520001</speed>
  <fix>3d</fix>
</trkpt>
<trkpt lat="33.81026" lon="-118.3938674">
  <ele>-15.0</ele>
  <time>2026-09-01T01:18:15Z</time>
  <course>180.51</course>
  <speed>0.44</speed>
  <fix>3d</fix>
</trkpt>
<trkpt lat="33.8102593" lon="-118.3938676">
  <ele>-15.371</ele>
  <time>2026-09-01T01:18:15Z</time>
  <course>187.21</course>
  <speed>0.4201190307520001</speed>
  <fix>3d</fix>
</trkpt>
<trkpt lat="33.81026" lon="-118.3938674">
  <ele>-15.0</ele>
  <time>2026-09-01T01:18:15Z</time>
  <course>180.51</course>
  <speed>0.44</speed>
  <fix>3d</fix>
</trkpt>
<trkpt lat="33.8102589" lon="-118.3938676">
  <ele>-15.372</ele>
  <time>2026-09-01T01:18:15Z</time>
  <course>187.2</course>
  <speed>0.4201190307520001</speed>
  <fix>3d</fix>
</trkpt>
<trkpt lat="33.8102592" lon="-118.3938674">
  <ele>-15.0</ele>
  <time>2026-09-01T01:18:15Z</time>
  <course>180.54</course>
  <speed>0.44</speed>
  <fix>3d</fix>
</trkpt>
<trkpt lat="33.8102585" lon="-118.3938676">
  <ele>-15.373</ele>
  <time>2026-09-01T01:18:15Z</time>
  <course>187.2</course>
  <speed>0.4201190307520001</speed>
  <fix>3d</fix>
</trkpt>
<trkpt lat="33.8102592" lon="-118.3938674">
  <ele>-15.0</ele>
  <time>2026-09-01T01:18:15Z</time>
  <course>180.54</course>
  <speed>0.44</speed>
  <fix>3d</fix>
</trkpt>
<trkpt lat="33.8102581" lon="-118.3938676">
  <ele>-15.373</ele>
  <time>2026-09-01T01:18:15Z</time>
  <course>187.19</course>
  <speed>0.4201190307520001</speed>
  <fix>3d</fix>
</trkpt>
<trkpt lat="33.8102583" lon="-118.3938674">
  <ele>-15.01</ele>
  <time>2026-09-01T01:18:15Z</time>
  <course>180.55</course>
  <speed>0.45</speed>
  <fix>3d</fix>
</trkpt>
<trkpt lat="33.8102576" lon="-118.3938676">
  <ele>-15.373</ele>
  <time>2026-09-01T01:18:15Z</time>
  <course>187.19</course>
  <speed>0.4201190307520001</speed>
  <fix>3d</fix>
</trkpt>
<trkpt lat="33.8102583" lon="-118.3938674">
  <ele>-15.01</ele>
  <time>2026-09-01T01:18:15Z</time>
  <course>180.55</course>
  <speed>0.45</speed>
  <fix>3d</fix>
</trkpt>
<trkpt lat="33.8102572" lon="-118.3938676">
  <ele>-15.373</ele>
  <time>2026-09-01T01:18:15Z</time>
  <course>187.18</course>
  <speed>0.4201190307520001</speed>
  <fix>3d</fix>
</trkpt>
<trkpt lat="33.8102575" lon="-118.3938674">
  <ele>-15.0</ele>
  <time>2026-09-01T01:18:15Z</time>
  <course>180.55</course>
  <speed>0.45</speed>
  <fix>3d</fix>
</trkpt>
<trkpt lat="33.8102568" lon="-118.3938676">
  <ele>-15.372</ele>
  <time>2026-09-01T01:18:15Z</time>
  <course>187.18</course>
  <speed>0.4201190307520001</speed>
  <fix>3d</fix>
</trkpt>
<trkpt lat="33.8102575" lon="-118.3938674">
  <ele>-15.0</ele>
  <time>2026-09-01T01:18:15Z</time>
  <course>180.55</course>
  <speed>0.45</speed>
  <fix>3d</fix>
</trkpt>
<trkpt lat="33.8102564" lon="-118.3938676">
  <ele>-15.371</ele>
  <time>2026-09-01T01:18:15Z</time>
  <course>187.17</course>
  <speed>0.4201190307520001</speed>
  <fix>3d</fix>
</trkpt>
<trkpt lat="33.8102566" lon="-118.3938674">
  <ele>-15.0</ele>
  <time>2026-09-01T01:18:15Z</time>
  <course>180.58</course>
  <speed>0.45</speed>
  <fix>3d</fix>
</trkpt>
<trkpt lat="33.810256" lon="-118.3938676">
  <ele>-15.371</ele>
  <time>2026-09-01T01:18:15Z</time>
  <course>187.17</course>
  <speed>0.4201190307520001</speed>
  <fix>3d</fix>
</trkpt>
<trkpt lat="33.8102566" lon="-118.3938674">
  <ele>-15.0</ele>
  <time>2026-09-01T01:18:15Z</time>
  <course>180.58</course>
  <speed>0.45</speed>
  <fix>3d</fix>
</trkpt>
<trkpt lat="33.8102556" lon="-118.3938676">
  <ele>-15.37</ele>
  <time>2026-09-01T01:18:15Z</time>
  <course>187.16</course>
  <speed>0.4201190307520001</speed>
  <fix>3d</fix>
</trkpt>
<trkpt lat="33.8102559" lon="-118.3938674">
  <ele>-15.0</ele>
  <time>2026-09-01T01:18:15Z</time>
  <course>180.63</course>
  <speed>0.45</speed>
  <fix>3d</fix>
</trkpt>
<trkpt lat="33.8102552" lon="-118.3938676">
  <ele>-15.368</ele>
  <time>2026-09-01T01:18:15Z</time>
  <course>187.15</course>
  <speed>0.4201190307520001</speed>
  <fix>3d</fix>
</trkpt>
<trkpt lat="33.8102559" lon="-118.3938674">
  <ele>-15.0</ele>
  <time>2026-09-01T01:18:15Z</time>
  <course>180.63</course>
  <speed>0.45</speed>
  <fix>3d</fix>
</trkpt>
<trkpt lat="33.8102548" lon="-118.3938676">
  <ele>-15.366</ele>
  <time>2026-09-01T01:18:15Z</time>
  <course>187.15</course>
  <speed>0.4201190307520001</speed>
  <fix>3d</fix>
</trkpt>
<trkpt lat="33.8102551" lon="-118.3938674">
  <ele>-15.0</ele>
  <time>2026-09-01T01:18:15Z</time>
  <course>180.67</course>
  <speed>0.45</speed>
  <fix>3d</fix>
</trkpt>
<trkpt lat="33.8102544" lon="-118.3938676">
  <ele>-15.362</ele>
  <time>2026-09-01T01:18:15Z</time>
  <course>187.15</course>
  <speed>0.4201190307520001</speed>
  <fix>3d</fix>
</trkpt>
<trkpt lat="33.8102551" lon="-118.3938674">
  <ele>-15.0</ele>
  <time>2026-09-01T01:18:15Z</time>
  <course>180.67</course>
  <speed>0.45</speed>
  <fix>3d</fix>
</trkpt>
<trkpt lat="33.810254" lon="-118.3938676">
  <ele>-15.359</ele>
  <time>2026-09-01T01:18:15Z</time>
  <course>187.14</course>
  <speed>0.4201190307520001</speed>
  <fix>3d</fix>
</trkpt>
<trkpt lat="33.8102542" lon="-118.3938674">
  <ele>-14.99</ele>
  <time>2026-09-01T01:18:15Z</time>
  <course>180.71</course>
  <speed>0.45</speed>
  <fix>3d</fix>
</trkpt>
<trkpt lat="33.8102536" lon="-118.3938676">
  <ele>-15.356</ele>
  <time>2026-09-01T01:18:15Z</time>
  <course>187.14</course>
  <speed>0.4201190307520001</speed>
  <fix>3d</fix>
</trkpt>
<trkpt lat="33.8102542" lon="-118.3938674">
  <ele>-14.99</ele>
  <time>2026-09-01T01:18:15Z</time>
  <course>180.71</course>
  <speed>0.45</speed>
  <fix>3d</fix>
</trkpt>
<trkpt lat="33.8102532" lon="-118.3938676">
  <ele>-15.354</ele>
  <time>2026-09-01T01:18:15Z</time>
  <course>187.13</course>
  <speed>0.4301162633521314</speed>
  <fix>3d</fix>
</trkpt>
<trkpt lat="33.8102535" lon="-118.3938674">
  <ele>-14.99</ele>
  <time>2026-09-01T01:18:15Z</time>
  <course>180.76</course>
  <speed>0.45</speed>
  <fix>3d</fix>
</trkpt>
<trkpt lat="33.8102527" lon="-118.3938676">
  <ele>-15.353</ele>
  <time>2026-09-01T01:18:15Z</time>
  <course>187.13</course>
  <speed>0.4301162633521314</speed>
  <fix>3d</fix>
</trkpt>
<trkpt lat="33.8102535" lon="-118.3938674">
  <ele>-14.99</ele>
  <time>2026-09-01T01:18:15Z</time>
  <course>180.76</course>
  <speed>0.45</speed>
  <fix>3d</fix>
</trkpt>
<trkpt lat="33.8102523" lon="-118.3938676">
  <ele>-15.353</ele>
  <time>2026-09-01T01:18:15Z</time>
  <course>187.12</course>
  <speed>0.4301162633521314</speed>
  <fix>3d</fix>
</trkpt>
<trkpt lat="33.8102527" lon="-118.3938675">
  <ele>-14.99</ele>
  <time>2026-09-01T01:18:15Z</time>
  <course>180.8</course>
  <speed>0.45</speed>
  <fix>3d</fix>
</trkpt>
<trkpt lat="33.8102519" lon="-118.3938676">
  <ele>-15.353</ele>
  <time>2026-09-01T01:18:15Z</time>
  <course>187.12</course>
  <speed>0.4301162633521314</speed>
  <fix>3d</fix>
</trkpt>
<trkpt lat="33.8102527" lon="-118.3938675">
  <ele>-14.99</ele>
  <time>2026-09-01T01:18:15Z</time>
  <course>180.8</course>
  <speed>0.45</speed>
  <fix>3d</fix>
</trkpt>
<trkpt lat="33.8102515" lon="-118.3938676">
  <ele>-15.355</ele>
  <time>2026-09-01T01:18:15Z</time>
  <course>187.11</course>
  <speed>0.4301162633521314</speed>
  <fix>3d</fix>
</trkpt>
<trkpt lat="33.8102518" lon="-118.3938675">
  <ele>-14.99</ele>
  <time>2026-09-01T01:18:15Z</time>
  <course>180.74</course>
  <speed>0.45</speed>
  <fix>3d</fix>
</trkpt>
<trkpt lat="33.8102511" lon="-118.3938676">
  <ele>-15.357</ele>
  <time>2026-09-01T01:18:15Z</time>
  <course>187.1</course>
  <speed>0.4301162633521314</speed>
  <fix>3d</fix>
</trkpt>
<trkpt lat="33.8102518" lon="-118.3938675">
  <ele>-14.99</ele>
  <time>2026-09-01T01:18:15Z</time>
  <course>180.74</course>
  <speed>0.45</speed>
  <fix>3d</fix>
</trkpt>
<trkpt lat="33.8102507" lon="-118.3938676">
  <ele>-15.36</ele>
  <time>2026-09-01T01:18:15Z</time>
  <course>187.1</course>
  <speed>0.4301162633521314</speed>
  <fix>3d</fix>
</trkpt>
<trkpt lat="33.8102509" lon="-118.3938675">
  <ele>-15.0</ele>
  <time>2026-09-01T01:18:15Z</time>
  <course>180.55</course>
  <speed>0.45</speed>
  <fix>3d</fix>
</trkpt>
<trkpt lat="33.8102503" lon="-118.3938676">
  <ele>-15.362</ele>
  <time>2026-09-01T01:18:15Z</time>
  <course>187.1</course>
  <speed>0.4301162633521314</speed>
  <fix>3d</fix>
</trkpt>
<trkpt lat="33.8102509" lon="-118.3938675">
  <ele>-15.0</ele>
  <time>2026-09-01T01:18:15Z</time>
  <course>180.55</course>
  <speed>0.45</speed>
  <fix>3d</fix>
</trkpt>
<trkpt lat="33.8102499" lon="-118.3938676">
  <ele>-15.363</ele>
  <time>2026-09-01T01:18:15Z</time>
  <course>187.09</course>
  <speed>0.4301162633521314</speed>
  <fix>3d</fix>
</trkpt>
<trkpt lat="33.8102502" lon="-118.3938675">
  <ele>-15.01</ele>
  <time>2026-09-01T01:18:15Z</time>
  <course>180.34</course>
  <speed>0.45</speed>
  <fix>3d</fix>
</trkpt>
<trkpt lat="33.8102495" lon="-118.3938676">
  <ele>-15.364</ele>
  <time>2026-09-01T01:18:15Z</time>
  <course>187.09</course>
  <speed>0.4301162633521314</speed>
  <fix>3d</fix>
</trkpt>
<trkpt lat="33.8102502" lon="-118.3938675">
  <ele>-15.01</ele>
  <time>2026-09-01T01:18:15Z</time>
  <course>180.34</course>
  <speed>0.45</speed>
  <fix>3d</fix>
</trkpt>
<trkpt lat="33.810249" lon="-118.3938676">
  <ele>-15.365</ele>
  <time>2026-09-01T01:18:15Z</time>
  <course>187.08</course>
  <speed>0.4301162633521314</speed>
  <fix>3d</fix>
</trkpt>
<trkpt lat="33.8102494" lon="-118.3938675">
  <ele>-15.01</ele>
  <time>2026-09-01T01:18:15Z</time>
  <course>180.19</course>
  <speed>0.45</speed>
  <fix>3d</fix>
</trkpt>
<trkpt lat="33.8102486" lon="-118.3938676">
  <ele>-15.366</ele>
  <time>2026-09-01T01:18:15Z</time>
  <course>187.08</course>
  <speed>0.4301162633521314</speed>
  <fix>3d</fix>
</trkpt>
<trkpt lat="33.8102494" lon="-118.3938675">
  <ele>-15.01</ele>
  <time>2026-09-01T01:18:15Z</time>
  <course>180.19</course>
  <speed>0.45</speed>
  <fix>3d</fix>
</trkpt>
<trkpt lat="33.8102482" lon="-118.3938676">
  <ele>-15.367</ele>
  <time>2026-09-01T01:18:15Z</time>
  <course>187.08</course>
  <speed>0.4301162633521314</speed>
  <fix>3d</fix>
</trkpt>
<trkpt lat="33.8102485" lon="-118.3938675">
  <ele>-15.01</ele>
  <time>2026-09-01T01:18:15Z</time>
  <course>180.08</course>
  <speed>0.45</speed>
  <fix>3d</fix>
</trkpt>
<trkpt lat="33.8102478" lon="-118.3938676">
  <ele>-15.367</ele>
  <time>2026-09-01T01:18:15Z</time>
  <course>187.07</course>
  <speed>0.4301162633521314</speed>
  <fix>3d</fix>
</trkpt>
<trkpt lat="33.8102485" lon="-118.3938675">
  <ele>-15.01</ele>
  <time>2026-09-01T01:18:15Z</time>
  <course>180.08</course>
  <speed>0.45</speed>
  <fix>3d</fix>
</trkpt>
<trkpt lat="33.8102474" lon="-118.3938676">
  <ele>-15.366</ele>
  <time>2026-09-01T01:18:15Z</time>
  <course>187.07</course>
  <speed>0.4301162633521314</speed>
  <fix>3d</fix>
</trkpt>
<trkpt lat="33.8102477" lon="-118.3938675">
  <ele>-15.0</ele>
  <time>2026-09-01T01:18:15Z</time>
  <course>180.02</course>
  <speed>0.45</speed>
  <fix>3d</fix>
</trkpt>
<trkpt lat="33.810247" lon="-118.3938676">
  <ele>-15.365</ele>
  <time>2026-09-01T01:18:15Z</time>
  <course>187.06</course>
  <speed>0.4301162633521314</speed>
  <fix>3d</fix>
</trkpt>
<trkpt lat="33.8102477" lon="-118.3938675">
  <ele>-15.0</ele>
  <time>2026-09-01T01:18:15Z</time>
  <course>180.02</course>
  <speed>0.45</speed>
  <fix>3d</fix>
</trkpt>
<trkpt lat="33.8102466" lon="-118.3938676">
  <ele>-15.362</ele>
  <time>2026-09-01T01:18:15Z</time>
  <course>187.06</course>
  <speed>0.4301162633521314</speed>
  <fix>3d</fix>
</trkpt>
<trkpt lat="33.8102468" lon="-118.3938675">
  <ele>-15.0</ele>
  <time>2026-09-01T01:18:15Z</time>
  <course>179.98</course>
  <speed>0.46</speed>
  <fix>3d</fix>
</trkpt>
<trkpt lat="33.8102461" lon="-118.3938676">
  <ele>-15.357</ele>
  <time>2026-09-01T01:18:15Z</time>
  <course>187.06</course>
  <speed>0.4301162633521314</speed>
  <fix>3d</fix>
</trkpt>
<trkpt lat="33.8102468" lon="-118.3938675">
  <ele>-15.0</ele>
  <time>2026-09-01T01:18:15Z</time>
  <course>179.98</course>
  <speed>0.46</speed>
  <fix>3d</fix>
</trkpt>
<trkpt lat="33.8102457" lon="-118.3938676">
  <ele>-15.351</ele>
  <time>2026-09-01T01:18:15Z</time>
  <course>187.05</course>
  <speed>0.4301162633521314</speed>
  <fix>3d</fix>
</trkpt>
<trkpt lat="33.8102461" lon="-118.3938675">
  <ele>-14.99</ele>
  <time>2026-09-01T01:18:15Z</time>
  <course>179.97</course>
  <speed>0.46</speed>
  <fix>3d</fix>
</trkpt>
<trkpt lat="33.8102453" lon="-118.3938676">
  <ele>-15.346</ele>
  <time>2026-09-01T01:18:15Z</time>
  <course>187.05</course>
  <speed>0.4301162633521314</speed>
  <fix>3d</fix>
</trkpt>
<trkpt lat="33.8102461" lon="-118.3938675">
  <ele>-14.99</ele>
  <time>2026-09-01T01:18:15Z</time>
  <course>179.97</course>
  <speed>0.46</speed>
  <fix>3d</fix>
</trkpt>
<trkpt lat="33.8102449" lon="-118.3938676">
  <ele>-15.342</ele>
  <time>2026-09-01T01:18:15Z</time>
  <course>187.04</course>
  <speed>0.44011362169330775</speed>
  <fix>3d</fix>
</trkpt>
<trkpt lat="33.8102452" lon="-118.3938675">
  <ele>-14.98</ele>
  <time>2026-09-01T01:18:15Z</time>
  <course>179.95</course>
  <speed>0.46</speed>
  <fix>3d</fix>
</trkpt>
<trkpt lat="33.8102445" lon="-118.3938676">
  <ele>-15.341</ele>
  <time>2026-09-01T01:18:15Z</time>
  <course>187.04</course>
  <speed>0.44011362169330775</speed>
  <fix>3d</fix>
</trkpt>
<trkpt lat="33.8102452" lon="-118.3938675">
  <ele>-14.98</ele>
  <time>2026-09-01T01:18:15Z</time>
  <course>179.95</course>
  <speed>0.46</speed>
  <fix>3d</fix>
</trkpt>
<trkpt lat="33.8102441" lon="-118.3938676">
  <ele>-15.341</ele>
  <time>2026-09-01T01:18:15Z</time>
  <course>187.03</course>
  <speed>0.44011362169330775</speed>
  <fix>3d</fix>
</trkpt>
<trkpt lat="33.8102444" lon="-118.3938675">
  <ele>-14.98</ele>
  <time>2026-09-01T01:18:15Z</time>
  <course>179.93</course>
  <speed>0.46</speed>
  <fix>3d</fix>
</trkpt>
<trkpt lat="33.8102436" lon="-118.3938676">
  <ele>-15.342</ele>
  <time>2026-09-01T01:18:15Z</time>
  <course>187.03</course>
  <speed>0.44011362169330775</speed>
  <fix>3d</fix>
</trkpt>
<trkpt lat="33.8102444" lon="-118.3938675">
  <ele>-14.98</ele>
  <time>2026-09-01T01:18:15Z</time>
  <course>179.93</course>
  <speed>0.46</speed>
  <fix>3d</fix>
</trkpt>
<trkpt lat="33.8102432" lon="-118.3938676">
  <ele>-15.344</ele>
  <time>2026-09-01T01:18:15Z</time>
  <course>187.03</course>
  <speed>0.44011362169330775</speed>
  <fix>3d</fix>
</trkpt>
<trkpt lat="33.8102435" lon="-118.3938675">
  <ele>-14.98</ele>
  <time>2026-09-01T01:18:15Z</time>
  <course>179.93</course>
  <speed>0.46</speed>
  <fix>3d</fix>
</trkpt>
<trkpt lat="33.8102428" lon="-118.3938676">
  <ele>-15.345</ele>
  <time>2026-09-01T01:18:15Z</time>
  <course>187.03</course>
  <speed>0.44011362169330775</speed>
  <fix>3d</fix>
</trkpt>
<trkpt lat="33.8102435" lon="-118.3938675">
  <ele>-14.98</ele>
  <time>2026-09-01T01:18:15Z</time>
  <course>179.93</course>
  <speed>0.46</speed>
  <fix>3d</fix>
</trkpt>
<trkpt lat="33.8102424" lon="-118.3938676">
  <ele>-15.345</ele>
  <time>2026-09-01T01:18:15Z</time>
  <course>187.03</course>
  <speed>0.44011362169330775</speed>
  <fix>3d</fix>
</trkpt>
<trkpt lat="33.8102427" lon="-118.3938675">
  <ele>-14.98</ele>
  <time>2026-09-01T01:18:15Z</time>
  <course>179.91</course>
  <speed>0.46</speed>
  <fix>3d</fix>
</trkpt>
<trkpt lat="33.810242" lon="-118.3938676">
  <ele>-15.344</ele>
  <time>2026-09-01T01:18:15Z</time>
  <course>187.02</course>
  <speed>0.44011362169330775</speed>
  <fix>3d</fix>
</trkpt>
<trkpt lat="33.8102427" lon="-118.3938675">
  <ele>-14.98</ele>
  <time>2026-09-01T01:18:15Z</time>
  <course>179.91</course>
  <speed>0.46</speed>
  <fix>3d</fix>
</trkpt>
<trkpt lat="33.8102415" lon="-118.3938676">
  <ele>-15.345</ele>
  <time>2026-09-01T01:18:15Z</time>
  <course>187.01</course>
  <speed>0.44011362169330775</speed>
  <fix>3d</fix>
</trkpt>
<trkpt lat="33.8102418" lon="-118.3938675">
  <ele>-14.98</ele>
  <time>2026-09-01T01:18:15Z</time>
  <course>179.87</course>
  <speed>0.46</speed>
  <fix>3d</fix>
</trkpt>
<trkpt lat="33.8102411" lon="-118.3938676">
  <ele>-15.346</ele>
  <time>2026-09-01T01:18:15Z</time>
  <course>187.01</course>
  <speed>0.44011362169330775</speed>
  <fix>3d</fix>
</trkpt>
<trkpt lat="33.8102418" lon="-118.3938675">
  <ele>-14.98</ele>
  <time>2026-09-01T01:18:15Z</time>
  <course>179.87</course>
  <speed>0.46</speed>
  <fix>3d</fix>
</trkpt>
<trkpt lat="33.8102407" lon="-118.3938676">
  <ele>-15.346</ele>
  <time>2026-09-01T01:18:15Z</time>
  <course>187.01</course>
  <speed>0.44011362169330775</speed>
  <fix>3d</fix>
</trkpt>
<trkpt lat="33.8102411" lon="-118.3938675">
  <ele>-14.98</ele>
  <time>2026-09-01T01:18:15Z</time>
  <course>179.84</course>
  <speed>0.46</speed>
  <fix>3d</fix>
</trkpt>
<trkpt lat="33.8102403" lon="-118.3938676">
  <ele>-15.345</ele>
  <time>2026-09-01T01:18:15Z</time>
  <course>187.0</course>
  <speed>0.44011362169330775</speed>
  <fix>3d</fix>
</trkpt>
<trkpt lat="33.8102411" lon="-118.3938675">
  <ele>-14.98</ele>
  <time>2026-09-01T01:18:15Z</time>
  <course>179.84</course>
  <speed>0.46</speed>
  <fix>3d</fix>
</trkpt>
<trkpt lat="33.8102399" lon="-118.3938676">
  <ele>-15.342</ele>
  <time>2026-09-01T01:18:15Z</time>
  <course>187.0</course>
  <speed>0.44011362169330775</speed>
  <fix>3d</fix>
</trkpt>
<trkpt lat="33.8102402" lon="-118.3938675">
  <ele>-14.98</ele>
  <time>2026-09-01T01:18:15Z</time>
  <course>179.8</course>
  <speed>0.46</speed>
  <fix>3d</fix>
</trkpt>
<trkpt lat="33.8102395" lon="-118.3938676">
  <ele>-15.339</ele>
  <time>2026-09-01T01:18:15Z</time>
  <course>187.0</course>
  <speed>0.44011362169330775</speed>
  <fix>3d</fix>
</trkpt>
<trkpt lat="33.8102402" lon="-118.3938675">
  <ele>-14.98</ele>
  <time>2026-09-01T01:18:15Z</time>
  <course>179.8</course>
  <speed>0.46</speed>
  <fix>3d</fix>
</trkpt>
<trkpt lat="33.810239" lon="-118.3938676">
  <ele>-15.337</ele>
  <time>2026-09-01T01:18:15Z</time>
  <course>186.99</course>
  <speed>0.44011362169330775</speed>
  <fix>3d</fix>
</trkpt>
<trkpt lat="33.8102394" lon="-118.3938675">
  <ele>-14.97</ele>
  <time>2026-09-01T01:18:15Z</time>
  <course>179.77</course>
  <speed>0.46</speed>
  <fix>3d</fix>
</trkpt>
<trkpt lat="33.8102386" lon="-118.3938676">
  <ele>-15.336</ele>
  <time>2026-09-01T01:18:15Z</time>
  <course>186.99</course>
  <speed>0.44011362169330775</speed>
  <fix>3d</fix>
</trkpt>
<trkpt lat="33.8102394" lon="-118.3938675">
  <ele>-14.97</ele>
  <time>2026-09-01T01:18:15Z</time>
  <course>179.77</course>
  <speed>0.46</speed>
  <fix>3d</fix>
</trkpt>
<trkpt lat="33.8102382" lon="-118.3938676">
  <ele>-15.335</ele>
  <time>2026-09-01T01:18:15Z</time>
  <course>186.98</course>
  <speed>0.450111097397076</speed>
  <fix>3d</fix>
</trkpt>
<trkpt lat="33.8102385" lon="-118.3938675">
  <ele>-14.97</ele>
  <time>2026-09-01T01:18:15Z</time>
  <course>179.75</course>
  <speed>0.47</speed>
  <fix>3d</fix>
</trkpt>
<trkpt lat="33.8102378" lon="-118.3938676">
  <ele>-15.336</ele>
  <time>2026-09-01T01:18:15Z</time>
  <course>186.98</course>
  <speed>0.450111097397076</speed>
  <fix>3d</fix>
</trkpt>
<trkpt lat="33.8102385" lon="-118.3938675">
  <ele>-14.97</ele>
  <time>2026-09-01T01:18:15Z</time>
  <course>179.75</course>
  <speed>0.47</speed>
  <fix>3d</fix>
</trkpt>
<trkpt lat="33.8102374" lon="-118.3938676">
  <ele>-15.337</ele>
  <time>2026-09-01T01:18:15Z</time>
  <course>186.97</course>
  <speed>0.450111097397076</speed>
  <fix>3d</fix>
</trkpt>
<trkpt lat="33.8102377" lon="-118.3938675">
  <ele>-14.97</ele>
  <time>2026-09-01T01:18:15Z</time>
  <course>179.73</course>
  <speed>0.47</speed>
  <fix>3d</fix>
</trkpt>
<trkpt lat="33.8102369" lon="-118.3938676">
  <ele>-15.336</ele>
  <time>2026-09-01T01:18:15Z</time>
  <course>186.97</course>
  <speed>0.450111097397076</speed>
  <fix>3d</fix>
</trkpt>
<trkpt lat="33.8102377" lon="-118.3938675">
  <ele>-14.97</ele>
  <time>2026-09-01T01:18:15Z</time>
  <course>179.73</course>
  <speed>0.47</speed>
  <fix>3d</fix>
</trkpt>
<trkpt lat="33.8102365" lon="-118.3938676">
  <ele>-15.335</ele>
  <time>2026-09-01T01:18:15Z</time>
  <course>186.97</course>
  <speed>0.450111097397076</speed>
  <fix>3d</fix>
</trkpt>
<trkpt lat="33.8102368" lon="-118.3938675">
  <ele>-14.97</ele>
  <time>2026-09-01T01:18:15Z</time>
  <course>179.73</course>
  <speed>0.47</speed>
  <fix>3d</fix>
</trkpt>
<trkpt lat="33.8102361" lon="-118.3938676">
  <ele>-15.333</ele>
  <time>2026-09-01T01:18:15Z</time>
  <course>186.97</course>
  <speed>0.450111097397076</speed>
  <fix>3d</fix>
</trkpt>
<trkpt lat="33.8102368" lon="-118.3938675">
  <ele>-14.97</ele>
  <time>2026-09-01T01:18:15Z</time>
  <course>179.73</course>
  <speed>0.47</speed>
  <fix>3d</fix>
</trkpt>
<trkpt lat="33.8102357" lon="-118.3938676">
  <ele>-15.332</ele>
  <time>2026-09-01T01:18:15Z</time>
  <course>186.97</course>
  <speed>0.450111097397076</speed>
  <fix>3d</fix>
</trkpt>
<trkpt lat="33.810236" lon="-118.3938675">
  <ele>-14.97</ele>
  <time>2026-09-01T01:18:15Z</time>
  <course>179.73</course>
  <speed>0.47</speed>
  <fix>3d</fix>
</trkpt>
<trkpt lat="33.8102352" lon="-118.3938676">
  <ele>-15.331</ele>
  <time>2026-09-01T01:18:15Z</time>
  <course>186.97</course>
  <speed>0.450111097397076</speed>
  <fix>3d</fix>
</trkpt>
<trkpt lat="33.810236" lon="-118.3938675">
  <ele>-14.97</ele>
  <time>2026-09-01T01:18:15Z</time>
  <course>179.73</course>
  <speed>0.47</speed>
  <fix>3d</fix>
</trkpt>
<trkpt lat="33.8102348" lon="-118.3938676">
  <ele>-15.332</ele>
  <time>2026-09-01T01:18:15Z</time>
  <course>186.97</course>
  <speed>0.450111097397076</speed>
  <fix>3d</fix>
</trkpt>
<trkpt lat="33.8102351" lon="-118.3938675">
  <ele>-14.97</ele>
  <time>2026-09-01T01:18:15Z</time>
  <course>179.71</course>
  <speed>0.47</speed>
  <fix>3d</fix>
</trkpt>
<trkpt lat="33.8102344" lon="-118.3938676">
  <ele>-15.333</ele>
  <time>2026-09-01T01:18:15Z</time>
  <course>186.96</course>
  <speed>0.450111097397076</speed>
  <fix>3d</fix>
</trkpt>
<trkpt lat="33.8102351" lon="-118.3938675">
  <ele>-14.97</ele>
  <time>2026-09-01T01:18:15Z</time>
  <course>179.71</course>
  <speed>0.47</speed>
  <fix>3d</fix>
</trkpt>
<trkpt lat="33.810234" lon="-118.3938676">
  <ele>-15.332</ele>
  <time>2026-09-01T01:18:15Z</time>
  <course>186.96</course>
  <speed>0.450111097397076</speed>
  <fix>3d</fix>
</trkpt>
<trkpt lat="33.8102343" lon="-118.3938675">
  <ele>-14.97</ele>
  <time>2026-09-01T01:18:15Z</time>
  <course>179.69</course>
  <speed>0.47</speed>
  <fix>3d</fix>
</trkpt>
<trkpt lat="33.8102335" lon="-118.3938676">
  <ele>-15.331</ele>
  <time>2026-09-01T01:18:15Z</time>
  <course>186.95</course>
  <speed>0.450111097397076</speed>
  <fix>3d</fix>
</trkpt>
<trkpt lat="33.8102343" lon="-118.3938675">
  <ele>-14.97</ele>
  <time>2026-09-01T01:18:15Z</time>
  <course>179.69</course>
  <speed>0.47</speed>
  <fix>3d</fix>
</trkpt>
<trkpt lat="33.8102331" lon="-118.3938676">
  <ele>-15.331</ele>
  <time>2026-09-01T01:18:15Z</time>
  <course>186.94</course>
  <speed>0.450111097397076</speed>
  <fix>3d</fix>
</trkpt>
<trkpt lat="33.8102334" lon="-118.3938675">
  <ele>-14.97</ele>
  <time>2026-09-01T01:18:15Z</time>
  <course>179.67</course>
  <speed>0.47</speed>
  <fix>3d</fix>
</trkpt>
<trkpt lat="33.8102327" lon="-118.3938676">
  <ele>-15.331</ele>
  <time>2026-09-01T01:18:15Z</time>
  <course>186.94</course>
  <speed>0.450111097397076</speed>
  <fix>3d</fix>
</trkpt>
<trkpt lat="33.8102334" lon="-118.3938675">
  <ele>-14.97</ele>
  <time>2026-09-01T01:18:15Z</time>
  <course>179.67</course>
  <speed>0.47</speed>
  <fix>3d</fix>
</trkpt>
<trkpt lat="33.8102323" lon="-118.3938676">
  <ele>-15.331</ele>
  <time>2026-09-01T01:18:15Z</time>
  <course>186.94</course>
  <speed>0.450111097397076</speed>
  <fix>3d</fix>
</trkpt>
<trkpt lat="33.8102325" lon="-118.3938675">
  <ele>-14.97</ele>
  <time>2026-09-01T01:18:15Z</time>
  <course>179.64</course>
  <speed>0.47</speed>
  <fix>3d</fix>
</trkpt>
<trkpt lat="33.8102318" lon="-118.3938676">
  <ele>-15.331</ele>
  <time>2026-09-01T01:18:15Z</time>
  <course>186.94</course>
  <speed>0.450111097397076</speed>
  <fix>3d</fix>
</trkpt>
<trkpt lat="33.8102325" lon="-118.3938675">
  <ele>-14.97</ele>
  <time>2026-09-01T01:18:15Z</time>
  <course>179.64</course>
  <speed>0.47</speed>
  <fix>3d</fix>
</trkpt>
<trkpt lat="33.8102314" lon="-118.3938676">
  <ele>-15.33</ele>
  <time>2026-09-01T01:18:15Z</time>
  <course>186.93</course>
  <speed>0.450111097397076</speed>
  <fix>3d</fix>
</trkpt>
<trkpt lat="33.8102317" lon="-118.3938675">
  <ele>-14.97</ele>
  <time>2026-09-01T01:18:15Z</time>
  <course>179.62</course>
  <speed>0.47</speed>
  <fix>3d</fix>
</trkpt>
<trkpt lat="33.810231" lon="-118.3938676">
  <ele>-15.328</ele>
  <time>2026-09-01T01:18:15Z</time>
  <course>186.93</course>
  <speed>0.450111097397076</speed>
  <fix>3d</fix>
</trkpt>
<trkpt lat="33.8102317" lon="-118.3938675">
  <ele>-14.97</ele>
  <time>2026-09-01T01:18:15Z</time>
  <course>179.62</course>
  <speed>0.47</speed>
  <fix>3d</fix>
</trkpt>
<trkpt lat="33.8102305" lon="-118.3938676">
  <ele>-15.326</ele>
  <time>2026-09-01T01:18:15Z</time>
  <course>186.93</course>
  <speed>0.450111097397076</speed>
  <fix>3d</fix>
</trkpt>
<trkpt lat="33.8102308" lon="-118.3938675">
  <ele>-14.96</ele>
  <time>2026-09-01T01:18:15Z</time>
  <course>179.58</course>
  <speed>0.47</speed>
  <fix>3d</fix>
</trkpt>
<trkpt lat="33.8102301" lon="-118.3938676">
  <ele>-15.324</ele>
  <time>2026-09-01T01:18:15Z</time>
  <course>186.92</course>
  <speed>0.450111097397076</speed>
  <fix>3d</fix>
</trkpt>
<trkpt lat="33.8102308" lon="-118.3938675">
  <ele>-14.96</ele>
  <time>2026-09-01T01:18:15Z</time>
  <course>179.58</course>
  <speed>0.47</speed>
  <fix>3d</fix>
</trkpt>
<trkpt lat="33.8102297" lon="-118.3938676">
  <ele>-15.322</ele>
  <time>2026-09-01T01:18:15Z</time>
  <course>186.92</course>
  <speed>0.450111097397076</speed>
  <fix>3d</fix>
</trkpt>
<trkpt lat="33.81023" lon="-118.3938675">
  <ele>-14.96</ele>
  <time>2026-09-01T01:18:15Z</time>
  <course>179.56</course>
  <speed>0.47</speed>
  <fix>3d</fix>
</trkpt>
<trkpt lat="33.8102293" lon="-118.3938676">
  <ele>-15.321</ele>
  <time>2026-09-01T01:18:15Z</time>
  <course>186.92</course>
  <speed>0.450111097397076</speed>
  <fix>3d</fix>
</trkpt>
<trkpt lat="33.81023" lon="-118.3938675">
  <ele>-14.96</ele>
  <time>2026-09-01T01:18:15Z</time>
  <course>179.56</course>
  <speed>0.47</speed>
  <fix>3d</fix>
</trkpt>
<trkpt lat="33.8102288" lon="-118.3938676">
  <ele>-15.32</ele>
  <time>2026-09-01T01:18:15Z</time>
  <course>186.92</course>
  <speed>0.450111097397076</speed>
  <fix>3d</fix>
</trkpt>
<trkpt lat="33.8102291" lon="-118.3938675">
  <ele>-14.96</ele>
  <time>2026-09-01T01:18:15Z</time>
  <course>179.55</course>
  <speed>0.47</speed>
  <fix>3d</fix>
</trkpt>
<trkpt lat="33.8102284" lon="-118.3938676">
  <ele>-15.32</ele>
  <time>2026-09-01T01:18:15Z</time>
  <course>186.92</course>
  <speed>0.450111097397076</speed>
  <fix>3d</fix>
</trkpt>
<trkpt lat="33.8102291" lon="-118.3938675">
  <ele>-14.96</ele>
  <time>2026-09-01T01:18:15Z</time>
  <course>179.55</course>
  <speed>0.47</speed>
  <fix>3d</fix>
</trkpt>
<trkpt lat="33.810228" lon="-118.3938676">
  <ele>-15.32</ele>
  <time>2026-09-01T01:18:15Z</time>
  <course>186.91</course>
  <speed>0.450111097397076</speed>
  <fix>3d</fix>
</trkpt>
<trkpt lat="33.8102283" lon="-118.3938675">
  <ele>-14.96</ele>
  <time>2026-09-01T01:18:15Z</time>
  <course>179.53</course>
  <speed>0.47</speed>
  <fix>3d</fix>
</trkpt>
<trkpt lat="33.8102275" lon="-118.3938676">
  <ele>-15.321</ele>
  <time>2026-09-01T01:18:15Z</time>
  <course>186.91</course>
  <speed>0.450111097397076</speed>
  <fix>3d</fix>
</trkpt>
<trkpt lat="33.8102283" lon="-118.3938675">
  <ele>-14.96</ele>
  <time>2026-09-01T01:18:15Z</time>
  <course>179.53</course>
  <speed>0.47</speed>
  <fix>3d</fix>
</trkpt>
<trkpt lat="33.8102271" lon="-118.3938676">
  <ele>-15.321</ele>
  <time>2026-09-01T01:18:15Z</time>
  <course>186.91</course>
  <speed>0.450111097397076</speed>
  <fix>3d</fix>
</trkpt>
<trkpt lat="33.8102274" lon="-118.3938675">
  <ele>-14.96</ele>
  <time>2026-09-01T01:18:15Z</time>
  <course>179.5</course>
  <speed>0.47</speed>
  <fix>3d</fix>
</trkpt>
<trkpt lat="33.8102267" lon="-118.3938676">
  <ele>-15.321</ele>
  <time>2026-09-01T01:18:15Z</time>
  <course>186.91</course>
  <speed>0.450111097397076</speed>
  <fix>3d</fix>
</trkpt>
<trkpt lat="33.8102274" lon="-118.3938675">
  <ele>-14.96</ele>
  <time>2026-09-01T01:18:15Z</time>
  <course>179.5</course>
  <speed>0.47</speed>
  <fix>3d</fix>
</trkpt>
<trkpt lat="33.8102263" lon="-118.3938676">
  <ele>-15.321</ele>
  <time>2026-09-01T01:18:15Z</time>
  <course>186.91</course>
  <speed>0.450111097397076</speed>
  <fix>3d</fix>
</trkpt>
<trkpt lat="33.8102265" lon="-118.3938675">
  <ele>-14.96</ele>
  <time>2026-09-01T01:18:15Z</time>
  <course>179.46</course>
  <speed>0.47</speed>
  <fix>3d</fix>
</trkpt>
<trkpt lat="33.8102258" lon="-118.3938676">
  <ele>-15.322</ele>
  <time>2026-09-01T01:18:15Z</time>
  <course>186.9</course>
  <speed>0.450111097397076</speed>
  <fix>3d</fix>
</trkpt>
<trkpt lat="33.8102265" lon="-118.3938675">
  <ele>-14.96</ele>
  <time>2026-09-01T01:18:15Z</time>
  <course>179.46</course>
  <speed>0.47</speed>
  <fix>3d</fix>
</trkpt>
<trkpt lat="33.8102254" lon="-118.3938676">
  <ele>-15.322</ele>
  <time>2026-09-01T01:18:15Z</time>
  <course>186.9</course>
  <speed>0.450111097397076</speed>
  <fix>3d</fix>
</trkpt>
<trkpt lat="33.8102257" lon="-118.3938675">
  <ele>-14.96</ele>
  <time>2026-09-01T01:18:15Z</time>
  <course>179.43</course>
  <speed>0.47</speed>
  <fix>3d</fix>
</trkpt>
<trkpt lat="33.810225" lon="-118.3938676">
  <ele>-15.322</ele>
  <time>2026-09-01T01:18:15Z</time>
  <course>186.9</course>
  <speed>0.450111097397076</speed>
  <fix>3d</fix>
</trkpt>
<trkpt lat="33.8102257" lon="-118.3938675">
  <ele>-14.96</ele>
  <time>2026-09-01T01:18:15Z</time>
  <course>179.43</course>
  <speed>0.47</speed>
  <fix>3d</fix>
</trkpt>
<trkpt lat="33.8102245" lon="-118.3938676">
  <ele>-15.321</ele>
  <time>2026-09-01T01:18:15Z</time>
  <course>186.89</course>
  <speed>0.450111097397076</speed>
  <fix>3d</fix>
</trkpt>
<trkpt lat="33.8102248" lon="-118.3938675">
  <ele>-14.96</ele>
  <time>2026-09-01T01:18:15Z</time>
  <course>179.42</course>
  <speed>0.47</speed>
  <fix>3d</fix>
</trkpt>
<trkpt lat="33.8102241" lon="-118.3938676">
  <ele>-15.32</ele>
  <time>2026-09-01T01:18:15Z</time>
  <course>186.89</course>
  <speed>0.450111097397076</speed>
  <fix>3d</fix>
</trkpt>
<trkpt lat="33.8102248" lon="-118.3938675">
  <ele>-14.96</ele>
  <time>2026-09-01T01:18:15Z</time>
  <course>179.42</course>
  <speed>0.47</speed>
  <fix>3d</fix>
</trkpt>
<trkpt lat="33.8102237" lon="-118.3938676">
  <ele>-15.317</ele>
  <time>2026-09-01T01:18:15Z</time>
  <course>186.89</course>
  <speed>0.450111097397076</speed>
  <fix>3d</fix>
</trkpt>
<trkpt lat="33.810224" lon="-118.3938674">
  <ele>-14.95</ele>
  <time>2026-09-01T01:18:15Z</time>
  <course>179.39</course>
  <speed>0.47</speed>
  <fix>3d</fix>
</trkpt>
<trkpt lat="33.8102232" lon="-118.3938676">
  <ele>-15.315</ele>
  <time>2026-09-01T01:18:15Z</time>
  <course>186.89</course>
  <speed>0.450111097397076</speed>
  <fix>3d</fix>
</trkpt>
<trkpt lat="33.810224" lon="-118.3938674">
  <ele>-14.95</ele>
  <time>2026-09-01T01:18:15Z</time>
  <course>179.39</course>
  <speed>0.47</speed>
  <fix>3d</fix>
</trkpt>
<trkpt lat="33.8102228" lon="-118.3938676">
  <ele>-15.313</ele>
  <time>2026-09-01T01:18:15Z</time>
  <course>186.88</course>
  <speed>0.450111097397076</speed>
  <fix>3d</fix>
</trkpt>
<trkpt lat="33.8102231" lon="-118.3938674">
  <ele>-14.95</ele>
  <time>2026-09-01T01:18:15Z</time>
  <course>179.47</course>
  <speed>0.48</speed>
  <fix>3d</fix>
</trkpt>
<trkpt lat="33.8102224" lon="-118.3938676">
  <ele>-15.311</ele>
  <time>2026-09-01T01:18:15Z</time>
  <course>186.88</course>
  <speed>0.450111097397076</speed>
  <fix>3d</fix>
</trkpt>
<trkpt lat="33.8102231" lon="-118.3938674">
  <ele>-14.95</ele>
  <time>2026-09-01T01:18:15Z</time>
  <course>179.47</course>
  <speed>0.48</speed>
  <fix>3d</fix>
</trkpt>
<trkpt lat="33.8102219" lon="-118.3938676">
  <ele>-15.31</ele>
  <time>2026-09-01T01:18:15Z</time>
  <course>186.88</course>
  <speed>0.450111097397076</speed>
  <fix>3d</fix>
</trkpt>
<trkpt lat="33.8102222" lon="-118.3938674">
  <ele>-14.95</ele>
  <time>2026-09-01T01:18:15Z</time>
  <course>179.64</course>
  <speed>0.48</speed>
  <fix>3d</fix>
</trkpt>
<trkpt lat="33.8102215" lon="-118.3938676">
  <ele>-15.311</ele>
  <time>2026-09-01T01:18:15Z</time>
  <course>186.88</course>
  <speed>0.450111097397076</speed>
  <fix>3d</fix>
</trkpt>
<trkpt lat="33.8102222" lon="-118.3938674">
  <ele>-14.95</ele>
  <time>2026-09-01T01:18:15Z</time>
  <course>179.64</course>
  <speed>0.48</speed>
  <fix>3d</fix>
</trkpt>
<trkpt lat="33.8102211" lon="-118.3938676">
  <ele>-15.312</ele>
  <time>2026-09-01T01:18:15Z</time>
  <course>186.88</course>
  <speed>0.450111097397076</speed>
  <fix>3d</fix>
</trkpt>
<trkpt lat="33.8102214" lon="-118.3938674">
  <ele>-14.95</ele>
  <time>2026-09-01T01:18:15Z</time>
  <course>179.82</course>
  <speed>0.48</speed>
  <fix>3d</fix>
</trkpt>
<trkpt lat="33.8102206" lon="-118.3938676">
  <ele>-15.314</ele>
  <time>2026-09-01T01:18:15Z</time>
  <course>186.87</course>
  <speed>0.450111097397076</speed>
  <fix>3d</fix>
</trkpt>
<trkpt lat="33.8102214" lon="-118.3938674">
  <ele>-14.95</ele>
  <time>2026-09-01T01:18:15Z</time>
  <course>179.82</course>
  <speed>0.48</speed>
  <fix>3d</fix>
</trkpt>
<trkpt lat="33.8102202" lon="-118.3938676">
  <ele>-15.314</ele>
  <time>2026-09-01T01:18:15Z</time>
  <course>186.87</course>
  <speed>0.450111097397076</speed>
  <fix>3d</fix>
</trkpt>
<trkpt lat="33.8102205" lon="-118.3938674">
  <ele>-14.94</ele>
  <time>2026-09-01T01:18:15Z</time>
  <course>179.96</course>
  <speed>0.48</speed>
  <fix>3d</fix>
</trkpt>
<trkpt lat="33.8102198" lon="-118.3938676">
  <ele>-15.312</ele>
  <time>2026-09-01T01:18:15Z</time>
  <course>186.87</course>
  <speed>0.450111097397076</speed>
  <fix>3d</fix>
</trkpt>
<trkpt lat="33.8102205" lon="-118.3938674">
  <ele>-14.94</ele>
  <time>2026-09-01T01:18:15Z</time>
  <course>179.96</course>
  <speed>0.48</speed>
  <fix>3d</fix>
</trkpt>
<trkpt lat="33.8102193" lon="-118.3938676">
  <ele>-15.309</ele>
  <time>2026-09-01T01:18:15Z</time>
  <course>186.87</course>
  <speed>0.450111097397076</speed>
  <fix>3d</fix>
</trkpt>
<trkpt lat="33.8102196" lon="-118.3938674">
  <ele>-14.94</ele>
  <time>2026-09-01T01:18:15Z</time>
  <course>180.06</course>
  <speed>0.48</speed>
  <fix>3d</fix>
</trkpt>
<trkpt lat="33.8102189" lon="-118.3938676">
  <ele>-15.306</ele>
  <time>2026-09-01T01:18:15Z</time>
  <course>186.86</course>
  <speed>0.450111097397076</speed>
  <fix>3d</fix>
</trkpt>
<trkpt lat="33.8102196" lon="-118.3938674">
  <ele>-14.94</ele>
  <time>2026-09-01T01:18:15Z</time>
  <course>180.06</course>
  <speed>0.48</speed>
  <fix>3d</fix>
</trkpt>
<trkpt lat="33.8102185" lon="-118.3938676">
  <ele>-15.302</ele>
  <time>2026-09-01T01:18:15Z</time>
  <course>186.86</course>
  <speed>0.450111097397076</speed>
  <fix>3d</fix>
</trkpt>
<trkpt lat="33.8102188" lon="-118.3938674">
  <ele>-14.94</ele>
  <time>2026-09-01T01:18:15Z</time>
  <course>180.15</course>
  <speed>0.48</speed>
  <fix>3d</fix>
</trkpt>
<trkpt lat="33.810218" lon="-118.3938676">
  <ele>-15.3</ele>
  <time>2026-09-01T01:18:15Z</time>
  <course>186.86</course>
  <speed>0.450111097397076</speed>
  <fix>3d</fix>
</trkpt>
<trkpt lat="33.8102188" lon="-118.3938674">
  <ele>-14.94</ele>
  <time>2026-09-01T01:18:15Z</time>
  <course>180.15</course>
  <speed>0.48</speed>
  <fix>3d</fix>
</trkpt>
<trkpt lat="33.8102176" lon="-118.3938676">
  <ele>-15.3</ele>
  <time>2026-09-01T01:18:15Z</time>
  <course>186.86</course>
  <speed>0.450111097397076</speed>
  <fix>3d</fix>
</trkpt>
<trkpt lat="33.8102179" lon="-118.3938674">
  <ele>-14.93</ele>
  <time>2026-09-01T01:18:15Z</time>
  <course>180.21</course>
  <speed>0.48</speed>
  <fix>3d</fix>
</trkpt>
<trkpt lat="33.8102172" lon="-118.3938676">
  <ele>-15.301</ele>
  <time>2026-09-01T01:18:15Z</time>
  <course>186.85</course>
  <speed>0.450111097397076</speed>
  <fix>3d</fix>
</trkpt>
<trkpt lat="33.8102179" lon="-118.3938674">
  <ele>-14.93</ele>
  <time>2026-09-01T01:18:15Z</time>
  <course>180.21</course>
  <speed>0.48</speed>
  <fix>3d</fix>
</trkpt>
<trkpt lat="33.8102167" lon="-118.3938676">
  <ele>-15.303</ele>
  <time>2026-09-01T01:18:15Z</time>
  <course>186.85</course>
  <speed>0.46010868281309364</speed>
  <fix>3d</fix>
</trkpt>
<trkpt lat="33.810217" lon="-118.3938674">
  <ele>-14.93</ele>
  <time>2026-09-01T01:18:15Z</time>
  <course>180.24</course>
  <speed>0.48</speed>
  <fix>3d</fix>
</trkpt>
<trkpt lat="33.8102163" lon="-118.3938676">
  <ele>-15.305</ele>
  <time>2026-09-01T01:18:15Z</time>
  <course>186.85</course>
  <speed>0.450111097397076</speed>
  <fix>3d</fix>
</trkpt>
<trkpt lat="33.810217" lon="-118.3938674">
  <ele>-14.93</ele>
  <time>2026-09-01T01:18:15Z</time>
  <course>180.24</course>
  <speed>0.48</speed>
  <fix>3d</fix>
</trkpt>
<trkpt lat="33.8102159" lon="-118.3938676">
  <ele>-15.306</ele>
  <time>2026-09-01T01:18:15Z</time>
  <course>186.85</course>
  <speed>0.46010868281309364</speed>
  <fix>3d</fix>
</trkpt>
<trkpt lat="33.8102162" lon="-118.3938674">
  <ele>-14.94</ele>
  <time>2026-09-01T01:18:15Z</time>
  <course>180.27</course>
  <speed>0.48</speed>
  <fix>3d</fix>
</trkpt>
<trkpt lat="33.8102154" lon="-118.3938676">
  <ele>-15.306</ele>
  <time>2026-09-01T01:18:15Z</time>
  <course>186.85</course>
  <speed>0.46010868281309364</speed>
  <fix>3d</fix>
</trkpt>
<trkpt lat="33.8102162" lon="-118.3938674">
  <ele>-14.94</ele>
  <time>2026-09-01T01:18:15Z</time>
  <course>180.27</course>
  <speed>0.48</speed>
  <fix>3d</fix>
</trkpt>
<trkpt lat="33.810215" lon="-118.3938676">
  <ele>-15.305</ele>
  <time>2026-09-01T01:18:15Z</time>
  <course>186.85</course>
  <speed>0.46010868281309364</speed>
  <fix>3d</fix>
</trkpt>
<trkpt lat="33.8102153" lon="-118.3938674">
  <ele>-14.94</ele>
  <time>2026-09-01T01:18:15Z</time>
  <course>180.29</course>
  <speed>0.48</speed>
  <fix>3d</fix>
</trkpt>
<trkpt lat="33.8102145" lon="-118.3938676">
  <ele>-15.303</ele>
  <time>2026-09-01T01:18:15Z</time>
  <course>186.85</course>
  <speed>0.46010868281309364</speed>
  <fix>3d</fix>
</trkpt>
<trkpt lat="33.8102153" lon="-118.3938674">
  <ele>-14.94</ele>
  <time>2026-09-01T01:18:15Z</time>
  <course>180.29</course>
  <speed>0.48</speed>
  <fix>3d</fix>
</trkpt>
<trkpt lat="33.8102141" lon="-118.3938676">
  <ele>-15.3</ele>
  <time>2026-09-01T01:18:15Z</time>
  <course>186.85</course>
  <speed>0.46010868281309364</speed>
  <fix>3d</fix>
</trkpt>
<trkpt lat="33.8102144" lon="-118.3938674">
  <ele>-14.93</ele>
  <time>2026-09-01T01:18:15Z</time>
  <course>180.31</course>
  <speed>0.48</speed>
  <fix>3d</fix>
</trkpt>
<trkpt lat="33.8102137" lon="-118.3938676">
  <ele>-15.297</ele>
  <time>2026-09-01T01:18:15Z</time>
  <course>186.84</course>
  <speed>0.46010868281309364</speed>
  <fix>3d</fix>
</trkpt>
<trkpt lat="33.8102144" lon="-118.3938674">
  <ele>-14.93</ele>
  <time>2026-09-01T01:18:15Z</time>
  <course>180.31</course>
  <speed>0.48</speed>
  <fix>3d</fix>
</trkpt>
<trkpt lat="33.8102132" lon="-118.3938676">
  <ele>-15.292</ele>
  <time>2026-09-01T01:18:15Z</time>
  <course>186.84</course>
  <speed>0.46010868281309364</speed>
  <fix>3d</fix>
</trkpt>
<trkpt lat="33.8102135" lon="-118.3938674">
  <ele>-14.93</ele>
  <time>2026-09-01T01:18:15Z</time>
  <course>180.32</course>
  <speed>0.48</speed>
  <fix>3d</fix>
</trkpt>
<trkpt lat="33.8102128" lon="-118.3938676">
  <ele>-15.289</ele>
  <time>2026-09-01T01:18:15Z</time>
  <course>186.84</course>
  <speed>0.46010868281309364</speed>
  <fix>3d</fix>
</trkpt>
<trkpt lat="33.8102135" lon="-118.3938674">
  <ele>-14.93</ele>
  <time>2026-09-01T01:18:15Z</time>
  <course>180.32</course>
  <speed>0.48</speed>
  <fix>3d</fix>
</trkpt>
<trkpt lat="33.8102124" lon="-118.3938676">
  <ele>-15.288</ele>
  <time>2026-09-01T01:18:15Z</time>
  <course>186.84</course>
  <speed>0.46010868281309364</speed>
  <fix>3d</fix>
</trkpt>
<trkpt lat="33.8102126" lon="-118.3938674">
  <ele>-14.92</ele>
  <time>2026-09-01T01:18:15Z</time>
  <course>180.34</course>
  <speed>0.48</speed>
  <fix>3d</fix>
</trkpt>
<trkpt lat="33.8102119" lon="-118.3938676">
  <ele>-15.288</ele>
  <time>2026-09-01T01:18:15Z</time>
  <course>186.83</course>
  <speed>0.46010868281309364</speed>
  <fix>3d</fix>
</trkpt>
<trkpt lat="33.8102126" lon="-118.3938674">
  <ele>-14.92</ele>
  <time>2026-09-01T01:18:15Z</time>
  <course>180.34</course>
  <speed>0.48</speed>
  <fix>3d</fix>
</trkpt>
<trkpt lat="33.8102115" lon="-118.3938676">
  <ele>-15.289</ele>
  <time>2026-09-01T01:18:15Z</time>
  <course>186.83</course>
  <speed>0.46010868281309364</speed>
  <fix>3d</fix>
</trkpt>
<trkpt lat="33.8102118" lon="-118.3938674">
  <ele>-14.92</ele>
  <time>2026-09-01T01:18:15Z</time>
  <course>180.36</course>
  <speed>0.48</speed>
  <fix>3d</fix>
</trkpt>
<trkpt lat="33.810211" lon="-118.3938676">
  <ele>-15.29</ele>
  <time>2026-09-01T01:18:15Z</time>
  <course>186.83</course>
  <speed>0.46010868281309364</speed>
  <fix>3d</fix>
</trkpt>
<trkpt lat="33.8102118" lon="-118.3938674">
  <ele>-14.92</ele>
  <time>2026-09-01T01:18:15Z</time>
  <course>180.36</course>
  <speed>0.48</speed>
  <fix>3d</fix>
</trkpt>
<trkpt lat="33.8102106" lon="-118.3938676">
  <ele>-15.292</ele>
  <time>2026-09-01T01:18:15Z</time>
  <course>186.83</course>
  <speed>0.46010868281309364</speed>
  <fix>3d</fix>
</trkpt>
<trkpt lat="33.8102109" lon="-118.3938674">
  <ele>-14.93</ele>
  <time>2026-09-01T01:18:15Z</time>
  <course>180.39</course>
  <speed>0.48</speed>
  <fix>3d</fix>
</trkpt>
<trkpt lat="33.8102102" lon="-118.3938676">
  <ele>-15.292</ele>
  <time>2026-09-01T01:18:15Z</time>
  <course>186.82</course>
  <speed>0.46010868281309364</speed>
  <fix>3d</fix>
</trkpt>
<trkpt lat="33.8102109" lon="-118.3938674">
  <ele>-14.93</ele>
  <time>2026-09-01T01:18:15Z</time>
  <course>180.39</course>
  <speed>0.48</speed>
  <fix>3d</fix>
</trkpt>
<trkpt lat="33.8102097" lon="-118.3938676">
  <ele>-15.292</ele>
  <time>2026-09-01T01:18:15Z</time>
  <course>186.82</course>
  <speed>0.46010868281309364</speed>
  <fix>3d</fix>
</trkpt>
<trkpt lat="33.81021" lon="-118.3938674">
  <ele>-14.93</ele>
  <time>2026-09-01T01:18:15Z</time>
  <course>180.43</course>
  <speed>0.48</speed>
  <fix>3d</fix>
</trkpt>
<trkpt lat="33.8102093" lon="-118.3938676">
  <ele>-15.293</ele>
  <time>2026-09-01T01:18:15Z</time>
  <course>186.82</course>
  <speed>0.46010868281309364</speed>
  <fix>3d</fix>
</trkpt>
<trkpt lat="33.81021" lon="-118.3938674">
  <ele>-14.93</ele>
  <time>2026-09-01T01:18:15Z</time>
  <course>180.43</course>
  <speed>0.48</speed>
  <fix>3d</fix>
</trkpt>
<trkpt lat="33.8102088" lon="-118.3938676">
  <ele>-15.293</ele>
  <time>2026-09-01T01:18:15Z</time>
  <course>186.81</course>
  <speed>0.46010868281309364</speed>
  <fix>3d</fix>
</trkpt>
<trkpt lat="33.8102092" lon="-118.3938674">
  <ele>-14.93</ele>
  <time>2026-09-01T01:18:15Z</time>
  <course>180.45</course>
  <speed>0.48</speed>
  <fix>3d</fix>
</trkpt>
<trkpt lat="33.8102084" lon="-118.3938676">
  <ele>-15.294</ele>
  <time>2026-09-01T01:18:15Z</time>
  <course>186.81</course>
  <speed>0.46010868281309364</speed>
  <fix>3d</fix>
</trkpt>
<trkpt lat="33.8102092" lon="-118.3938674">
  <ele>-14.93</ele>
  <time>2026-09-01T01:18:15Z</time>
  <course>180.45</course>
  <speed>0.48</speed>
  <fix>3d</fix>
</trkpt>
<trkpt lat="33.810208" lon="-118.3938676">
  <ele>-15.293</ele>
  <time>2026-09-01T01:18:15Z</time>
  <course>186.81</course>
  <speed>0.46010868281309364</speed>
  <fix>3d</fix>
</trkpt>
<trkpt lat="33.8102083" lon="-118.3938674">
  <ele>-14.93</ele>
  <time>2026-09-01T01:18:15Z</time>
  <course>180.44</course>
  <speed>0.48</speed>
  <fix>3d</fix>
</trkpt>
<trkpt lat="33.8102075" lon="-118.3938676">
  <ele>-15.292</ele>
  <time>2026-09-01T01:18:15Z</time>
  <course>186.81</course>
  <speed>0.46010868281309364</speed>
  <fix>3d</fix>
</trkpt>
<trkpt lat="33.8102083" lon="-118.3938674">
  <ele>-14.93</ele>
  <time>2026-09-01T01:18:15Z</time>
  <course>180.44</course>
  <speed>0.48</speed>
  <fix>3d</fix>
</trkpt>
<trkpt lat="33.8102071" lon="-118.3938676">
  <ele>-15.291</ele>
  <time>2026-09-01T01:18:15Z</time>
  <course>186.81</course>
  <speed>0.46010868281309364</speed>
  <fix>3d</fix>
</trkpt>
<trkpt lat="33.8102074" lon="-118.3938674">
  <ele>-14.93</ele>
  <time>2026-09-01T01:18:15Z</time>
  <course>180.43</course>
  <speed>0.48</speed>
  <fix>3d</fix>
</trkpt>
<trkpt lat="33.8102067" lon="-118.3938676">
  <ele>-15.289</ele>
  <time>2026-09-01T01:18:15Z</time>
  <course>186.81</course>
  <speed>0.46010868281309364</speed>
  <fix>3d</fix>
</trkpt>
<trkpt lat="33.8102074" lon="-118.3938674">
  <ele>-14.93</ele>
  <time>2026-09-01T01:18:15Z</time>
  <course>180.43</course>
  <speed>0.48</speed>
  <fix>3d</fix>
</trkpt>
<trkpt lat="33.8102062" lon="-118.3938676">
  <ele>-15.288</ele>
  <time>2026-09-01T01:18:15Z</time>
  <course>186.81</course>
  <speed>0.46010868281309364</speed>
  <fix>3d</fix>
</trkpt>
<trkpt lat="33.8102065" lon="-118.3938674">
  <ele>-14.93</ele>
  <time>2026-09-01T01:18:15Z</time>
  <course>180.44</course>
  <speed>0.48</speed>
  <fix>3d</fix>
</trkpt>
<trkpt lat="33.8102058" lon="-118.3938676">
  <ele>-15.285</ele>
  <time>2026-09-01T01:18:15Z</time>
  <course>186.81</course>
  <speed>0.46010868281309364</speed>
  <fix>3d</fix>
</trkpt>
<trkpt lat="33.8102065" lon="-118.3938674">
  <ele>-14.93</ele>
  <time>2026-09-01T01:18:15Z</time>
  <course>180.44</course>
  <speed>0.48</speed>
  <fix>3d</fix>
</trkpt>
<trkpt lat="33.8102053" lon="-118.3938676">
  <ele>-15.282</ele>
  <time>2026-09-01T01:18:15Z</time>
  <course>186.81</course>
  <speed>0.46010868281309364</speed>
  <fix>3d</fix>
</trkpt>
<trkpt lat="33.8102057" lon="-118.3938674">
  <ele>-14.92</ele>
  <time>2026-09-01T01:18:15Z</time>
  <course>180.45</course>
  <speed>0.48</speed>
  <fix>3d</fix>
</trkpt>
<trkpt lat="33.8102049" lon="-118.3938676">
  <ele>-15.28</ele>
  <time>2026-09-01T01:18:15Z</time>
  <course>186.81</course>
  <speed>0.46010868281309364</speed>
  <fix>3d</fix>
</trkpt>
<trkpt lat="33.8102057" lon="-118.3938674">
  <ele>-14.92</ele>
  <time>2026-09-01T01:18:15Z</time>
  <course>180.45</course>
  <speed>0.48</speed>
  <fix>3d</fix>
</trkpt>
<trkpt lat="33.8102044" lon="-118.3938676">
  <ele>-15.278</ele>
  <time>2026-09-01T01:18:15Z</time>
  <course>186.8</course>
  <speed>0.46010868281309364</speed>
  <fix>3d</fix>
</trkpt>
<trkpt lat="33.8102048" lon="-118.3938674">
  <ele>-14.92</ele>
  <time>2026-09-01T01:18:15Z</time>
  <course>180.49</course>
  <speed>0.48</speed>
  <fix>3d</fix>
</trkpt>
<trkpt lat="33.810204" lon="-118.3938676">
  <ele>-15.278</ele>
  <time>2026-09-01T01:18:15Z</time>
  <course>186.8</course>
  <speed>0.46010868281309364</speed>
  <fix>3d</fix>
</trkpt>
<trkpt lat="33.8102048" lon="-118.3938674">
  <ele>-14.92</ele>
  <time>2026-09-01T01:18:15Z</time>
  <course>180.49</course>
  <speed>0.48</speed>
  <fix>3d</fix>
</trkpt>
<trkpt lat="33.8102036" lon="-118.3938676">
  <ele>-15.278</ele>
  <time>2026-09-01T01:18:15Z</time>
  <course>186.8</course>
  <speed>0.46010868281309364</speed>
  <fix>3d</fix>
</trkpt>
<trkpt lat="33.8102039" lon="-118.3938674">
  <ele>-14.92</ele>
  <time>2026-09-01T01:18:15Z</time>
  <course>180.53</course>
  <speed>0.49</speed>
  <fix>3d</fix>
</trkpt>
<trkpt lat="33.8102031" lon="-118.3938676">
  <ele>-15.278</ele>
  <time>2026-09-01T01:18:15Z</time>
  <course>186.8</course>
  <speed>0.46010868281309364</speed>
  <fix>3d</fix>
</trkpt>
<trkpt lat="33.8102039" lon="-118.3938674">
  <ele>-14.92</ele>
  <time>2026-09-01T01:18:15Z</time>
  <course>180.53</course>
  <speed>0.49</speed>
  <fix>3d</fix>
</trkpt>
<trkpt lat="33.8102027" lon="-118.3938676">
  <ele>-15.278</ele>
  <time>2026-09-01T01:18:15Z</time>
  <course>186.8</course>
  <speed>0.47010637094172636</speed>
  <fix>3d</fix>
</trkpt>
<trkpt lat="33.810203" lon="-118.3938674">
  <ele>-14.92</ele>
  <time>2026-09-01T01:18:15Z</time>
  <course>180.55</course>
  <speed>0.49</speed>
  <fix>3d</fix>
</trkpt>
<trkpt lat="33.8102022" lon="-118.3938676">
  <ele>-15.279</ele>
  <time>2026-09-01T01:18:15Z</time>
  <course>186.8</course>
  <speed>0.46010868281309364</speed>
  <fix>3d</fix>
</trkpt>
<trkpt lat="33.810203" lon="-118.3938674">
  <ele>-14.92</ele>
  <time>2026-09-01T01:18:15Z</time>
  <course>180.55</course>
  <speed>0.49</speed>
  <fix>3d</fix>
</trkpt>
<trkpt lat="33.8102018" lon="-118.3938676">
  <ele>-15.279</ele>
  <time>2026-09-01T01:18:15Z</time>
  <course>186.8</course>
  <speed>0.47010637094172636</speed>
  <fix>3d</fix>
</trkpt>
<trkpt lat="33.8102021" lon="-118.3938675">
  <ele>-14.92</ele>
  <time>2026-09-01T01:18:15Z</time>
  <course>180.54</course>
  <speed>0.49</speed>
  <fix>3d</fix>
</trkpt>
<trkpt lat="33.8102013" lon="-118.3938676">
  <ele>-15.28</ele>
  <time>2026-09-01T01:18:15Z</time>
  <course>186.8</course>
  <speed>0.46010868281309364</speed>
  <fix>3d</fix>
</trkpt>
<trkpt lat="33.8102021" lon="-118.3938675">
  <ele>-14.92</ele>
  <time>2026-09-01T01:18:15Z</time>
  <course>180.54</course>
  <speed>0.49</speed>
  <fix>3d</fix>
</trkpt>
<trkpt lat="33.8102009" lon="-118.3938676">
  <ele>-15.28</ele>
  <time>2026-09-01T01:18:15Z</time>
  <course>186.79</course>
  <speed>0.47010637094172636</speed>
  <fix>3d</fix>
</trkpt>
<trkpt lat="33.8102013" lon="-118.3938675">
  <ele>-14.93</ele>
  <time>2026-09-01T01:18:15Z</time>
  <course>180.47</course>
  <speed>0.49</speed>
  <fix>3d</fix>
</trkpt>
<trkpt lat="33.8102005" lon="-118.3938676">
  <ele>-15.279</ele>
  <time>2026-09-01T01:18:15Z</time>
  <course>186.79</course>
  <speed>0.47010637094172636</speed>
  <fix>3d</fix>
</trkpt>
<trkpt lat="33.8102013" lon="-118.3938675">
  <ele>-14.93</ele>
  <time>2026-09-01T01:18:15Z</time>
  <course>180.47</course>
  <speed>0.49</speed>
  <fix>3d</fix>
</trkpt>
<trkpt lat="33.8102" lon="-118.3938676">
  <ele>-15.278</ele>
  <time>2026-09-01T01:18:15Z</time>
  <course>186.79</course>
  <speed>0.47010637094172636</speed>
  <fix>3d</fix>
</trkpt>
<trkpt lat="33.8102004" lon="-118.3938675">
  <ele>-14.93</ele>
  <time>2026-09-01T01:18:15Z</time>
  <course>180.32</course>
  <speed>0.49</speed>
  <fix>3d</fix>
</trkpt>
<trkpt lat="33.8101996" lon="-118.3938676">
  <ele>-15.277</ele>
  <time>2026-09-01T01:18:15Z</time>
  <course>186.79</course>
  <speed>0.47010637094172636</speed>
  <fix>3d</fix>
</trkpt>
<trkpt lat="33.8102004" lon="-118.3938675">
  <ele>-14.93</ele>
  <time>2026-09-01T01:18:15Z</time>
  <course>180.32</course>
  <speed>0.49</speed>
  <fix>3d</fix>
</trkpt>
<trkpt lat="33.8101991" lon="-118.3938676">
  <ele>-15.277</ele>
  <time>2026-09-01T01:18:15Z</time>
  <course>186.79</course>
  <speed>0.47010637094172636</speed>
  <fix>3d</fix>
</trkpt>
<trkpt lat="33.8101995" lon="-118.3938675">
  <ele>-14.92</ele>
  <time>2026-09-01T01:18:15Z</time>
  <course>180.13</course>
  <speed>0.49</speed>
  <fix>3d</fix>
</trkpt>
<trkpt lat="33.8101987" lon="-118.3938676">
  <ele>-15.277</ele>
  <time>2026-09-01T01:18:15Z</time>
  <course>186.79</course>
  <speed>0.47010637094172636</speed>
  <fix>3d</fix>
</trkpt>
<trkpt lat="33.8101995" lon="-118.3938675">
  <ele>-14.92</ele>
  <time>2026-09-01T01:18:15Z</time>
  <course>180.13</course>
  <speed>0.49</speed>
  <fix>3d</fix>
</trkpt>
<trkpt lat="33.8101983" lon="-118.3938676">
  <ele>-15.276</ele>
  <time>2026-09-01T01:18:15Z</time>
  <course>186.78</course>
  <speed>0.47010637094172636</speed>
  <fix>3d</fix>
</trkpt>
<trkpt lat="33.8101986" lon="-118.3938675">
  <ele>-14.92</ele>
  <time>2026-09-01T01:18:15Z</time>
  <course>179.96</course>
  <speed>0.49</speed>
  <fix>3d</fix>
</trkpt>
<trkpt lat="33.8101978" lon="-118.3938676">
  <ele>-15.275</ele>
  <time>2026-09-01T01:18:15Z</time>
  <course>186.78</course>
  <speed>0.47010637094172636</speed>
  <fix>3d</fix>
</trkpt>
<trkpt lat="33.8101986" lon="-118.3938675">
  <ele>-14.92</ele>
  <time>2026-09-01T01:18:15Z</time>
  <course>179.96</course>
  <speed>0.49</speed>
  <fix>3d</fix>
</trkpt>
<trkpt lat="33.8101974" lon="-118.3938676">
  <ele>-15.274</ele>
  <time>2026-09-01T01:18:15Z</time>
  <course>186.78</course>
  <speed>0.47010637094172636</speed>
  <fix>3d</fix>
</trkpt>
<trkpt lat="33.8101977" lon="-118.3938675">
  <ele>-14.92</ele>
  <time>2026-09-01T01:18:15Z</time>
  <course>179.82</course>
  <speed>0.49</speed>
  <fix>3d</fix>
</trkpt>
<trkpt lat="33.8101969" lon="-118.3938676">
  <ele>-15.272</ele>
  <time>2026-09-01T01:18:15Z</time>
  <course>186.78</course>
  <speed>0.47010637094172636</speed>
  <fix>3d</fix>
</trkpt>
<trkpt lat="33.8101977" lon="-118.3938675">
  <ele>-14.92</ele>
  <time>2026-09-01T01:18:15Z</time>
  <course>179.82</course>
  <speed>0.49</speed>
  <fix>3d</fix>
</trkpt>
<trkpt lat="33.8101965" lon="-118.3938676">
  <ele>-15.271</ele>
  <time>2026-09-01T01:18:15Z</time>
  <course>186.78</course>
  <speed>0.47010637094172636</speed>
  <fix>3d</fix>
</trkpt>
<trkpt lat="33.8101968" lon="-118.3938675">
  <ele>-14.92</ele>
  <time>2026-09-01T01:18:15Z</time>
  <course>179.73</course>
  <speed>0.49</speed>
  <fix>3d</fix>
</trkpt>
<trkpt lat="33.810196" lon="-118.3938676">
  <ele>-15.272</ele>
  <time>2026-09-01T01:18:15Z</time>
  <course>186.78</course>
  <speed>0.47010637094172636</speed>
  <fix>3d</fix>
</trkpt>
<trkpt lat="33.8101968" lon="-118.3938675">
  <ele>-14.92</ele>
  <time>2026-09-01T01:18:15Z</time>
  <course>179.73</course>
  <speed>0.49</speed>
  <fix>3d</fix>
</trkpt>
<trkpt lat="33.8101956" lon="-118.3938676">
  <ele>-15.272</ele>
  <time>2026-09-01T01:18:15Z</time>
  <course>186.77</course>
  <speed>0.47010637094172636</speed>
  <fix>3d</fix>
</trkpt>
<trkpt lat="33.8101959" lon="-118.3938675">
  <ele>-14.91</ele>
  <time>2026-09-01T01:18:15Z</time>
  <course>179.69</course>
  <speed>0.49</speed>
  <fix>3d</fix>
</trkpt>
<trkpt lat="33.8101951" lon="-118.3938676">
  <ele>-15.271</ele>
  <time>2026-09-01T01:18:15Z</time>
  <course>186.77</course>
  <speed>0.47010637094172636</speed>
  <fix>3d</fix>
</trkpt>
<trkpt lat="33.8101959" lon="-118.3938675">
  <ele>-14.91</ele>
  <time>2026-09-01T01:18:15Z</time>
  <course>179.69</course>
  <speed>0.49</speed>
  <fix>3d</fix>
</trkpt>
<trkpt lat="33.8101947" lon="-118.3938676">
  <ele>-15.27</ele>
  <time>2026-09-01T01:18:15Z</time>
  <course>186.77</course>
  <speed>0.47010637094172636</speed>
  <fix>3d</fix>
</trkpt>
<trkpt lat="33.810195" lon="-118.3938675">
  <ele>-14.91</ele>
  <time>2026-09-01T01:18:15Z</time>
  <course>179.66</course>
  <speed>0.49</speed>
  <fix>3d</fix>
</trkpt>
<trkpt lat="33.8101942" lon="-118.3938676">
  <ele>-15.268</ele>
  <time>2026-09-01T01:18:15Z</time>
  <course>186.77</course>
  <speed>0.47010637094172636</speed>
  <fix>3d</fix>
</trkpt>
<trkpt lat="33.810195" lon="-118.3938675">
  <ele>-14.91</ele>
  <time>2026-09-01T01:18:15Z</time>
  <course>179.66</course>
  <speed>0.49</speed>
  <fix>3d</fix>
</trkpt>
<trkpt lat="33.8101938" lon="-118.3938676">
  <ele>-15.265</ele>
  <time>2026-09-01T01:18:15Z</time>
  <course>186.77</course>
  <speed>0.47010637094172636</speed>
  <fix>3d</fix>
</trkpt>
<trkpt lat="33.8101941" lon="-118.3938675">
  <ele>-14.91</ele>
  <time>2026-09-01T01:18:15Z</time>
  <course>179.64</course>
  <speed>0.49</speed>
  <fix>3d</fix>
</trkpt>
<trkpt lat="33.8101933" lon="-118.3938676">
  <ele>-15.262</ele>
  <time>2026-09-01T01:18:15Z</time>
  <course>186.77</course>
  <speed>0.47010637094172636</speed>
  <fix>3d</fix>
</trkpt>
<trkpt lat="33.8101941" lon="-118.3938675">
  <ele>-14.91</ele>
  <time>2026-09-01T01:18:15Z</time>
  <course>179.64</course>
  <speed>0.49</speed>
  <fix>3d</fix>
</trkpt>
<trkpt lat="33.8101929" lon="-118.3938676">
  <ele>-15.262</ele>
  <time>2026-09-01T01:18:15Z</time>
  <course>186.77</course>
  <speed>0.47010637094172636</speed>
  <fix>3d</fix>
</trkpt>
<trkpt lat="33.8101932" lon="-118.3938675">
  <ele>-14.91</ele>
  <time>2026-09-01T01:18:15Z</time>
  <course>179.64</course>
  <speed>0.49</speed>
  <fix>3d</fix>
</trkpt>
<trkpt lat="33.8101924" lon="-118.3938676">
  <ele>-15.263</ele>
  <time>2026-09-01T01:18:15Z</time>
  <course>186.77</course>
  <speed>0.47010637094172636</speed>
  <fix>3d</fix>
</trkpt>
<trkpt lat="33.8101932" lon="-118.3938675">
  <ele>-14.91</ele>
  <time>2026-09-01T01:18:15Z</time>
  <course>179.64</course>
  <speed>0.49</speed>
  <fix>3d</fix>
</trkpt>
<trkpt lat="33.810192" lon="-118.3938676">
  <ele>-15.264</ele>
  <time>2026-09-01T01:18:15Z</time>
  <course>186.77</course>
  <speed>0.47010637094172636</speed>
  <fix>3d</fix>
</trkpt>
<trkpt lat="33.8101924" lon="-118.3938675">
  <ele>-14.91</ele>
  <time>2026-09-01T01:18:15Z</time>
  <course>179.63</course>
  <speed>0.49</speed>
  <fix>3d</fix>
</trkpt>
<trkpt lat="33.8101916" lon="-118.3938676">
  <ele>-15.265</ele>
  <time>2026-09-01T01:18:15Z</time>
  <course>186.77</course>
  <speed>0.47010637094172636</speed>
  <fix>3d</fix>
</trkpt>
<trkpt lat="33.8101924" lon="-118.3938675">
  <ele>-14.91</ele>
  <time>2026-09-01T01:18:15Z</time>
  <course>179.63</course>
  <speed>0.49</speed>
  <fix>3d</fix>
</trkpt>
<trkpt lat="33.8101911" lon="-118.3938676">
  <ele>-15.267</ele>
  <time>2026-09-01T01:18:15Z</time>
  <course>186.77</course>
  <speed>0.47010637094172636</speed>
  <fix>3d</fix>
</trkpt>
<trkpt lat="33.8101915" lon="-118.3938675">
  <ele>-14.91</ele>
  <time>2026-09-01T01:18:15Z</time>
  <course>179.6</course>
  <speed>0.49</speed>
  <fix>3d</fix>
</trkpt>
<trkpt lat="33.8101907" lon="-118.3938676">
  <ele>-15.267</ele>
  <time>2026-09-01T01:18:15Z</time>
  <course>186.76</course>
  <speed>0.47010637094172636</speed>
  <fix>3d</fix>
</trkpt>
<trkpt lat="33.8101915" lon="-118.3938675">
  <ele>-14.91</ele>
  <time>2026-09-01T01:18:15Z</time>
  <course>179.6</course>
  <speed>0.49</speed>
  <fix>3d</fix>
</trkpt>
<trkpt lat="33.8101902" lon="-118.3938676">
  <ele>-15.265</ele>
  <time>2026-09-01T01:18:15Z</time>
  <course>186.76</course>
  <speed>0.47010637094172636</speed>
  <fix>3d</fix>
</trkpt>
<trkpt lat="33.8101906" lon="-118.3938675">
  <ele>-14.9</ele>
  <time>2026-09-01T01:18:15Z</time>
  <course>179.54</course>
  <speed>0.49</speed>
  <fix>3d</fix>
</trkpt>
<trkpt lat="33.8101898" lon="-118.3938676">
  <ele>-15.264</ele>
  <time>2026-09-01T01:18:15Z</time>
  <course>186.76</course>
  <speed>0.47010637094172636</speed>
  <fix>3d</fix>
</trkpt>
<trkpt lat="33.8101906" lon="-118.3938675">
  <ele>-14.9</ele>
  <time>2026-09-01T01:18:15Z</time>
  <course>179.54</course>
  <speed>0.49</speed>
  <fix>3d</fix>
</trkpt>
<trkpt lat="33.8101893" lon="-118.3938676">
  <ele>-15.262</ele>
  <time>2026-09-01T01:18:15Z</time>
  <course>186.76</course>
  <speed>0.47010637094172636</speed>
  <fix>3d</fix>
</trkpt>
<trkpt lat="33.8101897" lon="-118.3938675">
  <ele>-14.9</ele>
  <time>2026-09-01T01:18:15Z</time>
  <course>179.49</course>
  <speed>0.49</speed>
  <fix>3d</fix>
</trkpt>
<trkpt lat="33.8101889" lon="-118.3938676">
  <ele>-15.26</ele>
  <time>2026-09-01T01:18:15Z</time>
  <course>186.76</course>
  <speed>0.47010637094172636</speed>
  <fix>3d</fix>
</trkpt>
<trkpt lat="33.8101897" lon="-118.3938675">
  <ele>-14.9</ele>
  <time>2026-09-01T01:18:15Z</time>
  <course>179.49</course>
  <speed>0.49</speed>
  <fix>3d</fix>
</trkpt>
<trkpt lat="33.8101884" lon="-118.3938676">
  <ele>-15.257</ele>
  <time>2026-09-01T01:18:15Z</time>
  <course>186.76</course>
  <speed>0.47010637094172636</speed>
  <fix>3d</fix>
</trkpt>
<trkpt lat="33.8101888" lon="-118.3938675">
  <ele>-14.89</ele>
  <time>2026-09-01T01:18:15Z</time>
  <course>179.47</course>
  <speed>0.49</speed>
  <fix>3d</fix>
</trkpt>
<trkpt lat="33.810188" lon="-118.3938676">
  <ele>-15.254</ele>
  <time>2026-09-01T01:18:15Z</time>
  <course>186.76</course>
  <speed>0.47010637094172636</speed>
  <fix>3d</fix>
</trkpt>
<trkpt lat="33.8101888" lon="-118.3938675">
  <ele>-14.89</ele>
  <time>2026-09-01T01:18:15Z</time>
  <course>179.47</course>
  <speed>0.49</speed>
  <fix>3d</fix>
</trkpt>
<trkpt lat="33.8101875" lon="-118.3938676">
  <ele>-15.251</ele>
  <time>2026-09-01T01:18:15Z</time>
  <course>186.76</course>
  <speed>0.47010637094172636</speed>
  <fix>3d</fix>
</trkpt>
<trkpt lat="33.8101879" lon="-118.3938675">
  <ele>-14.89</ele>
  <time>2026-09-01T01:18:15Z</time>
  <course>179.45</course>
  <speed>0.49</speed>
  <fix>3d</fix>
</trkpt>
<trkpt lat="33.8101871" lon="-118.3938676">
  <ele>-15.249</ele>
  <time>2026-09-01T01:18:15Z</time>
  <course>186.76</course>
  <speed>0.47010637094172636</speed>
  <fix>3d</fix>
</trkpt>
<trkpt lat="33.8101879" lon="-118.3938675">
  <ele>-14.89</ele>
  <time>2026-09-01T01:18:15Z</time>
  <course>179.45</course>
  <speed>0.49</speed>
  <fix>3d</fix>
</trkpt>
<trkpt lat="33.8101866" lon="-118.3938676">
  <ele>-15.248</ele>
  <time>2026-09-01T01:18:15Z</time>
  <course>186.76</course>
  <speed>0.47010637094172636</speed>
  <fix>3d</fix>
</trkpt>
<trkpt lat="33.810187" lon="-118.3938675">
  <ele>-14.89</ele>
  <time>2026-09-01T01:18:15Z</time>
  <course>179.43</course>
  <speed>0.49</speed>
  <fix>3d</fix>
</trkpt>
<trkpt lat="33.8101862" lon="-118.3938676">
  <ele>-15.247</ele>
  <time>2026-09-01T01:18:15Z</time>
  <course>186.75</course>
  <speed>0.47010637094172636</speed>
  <fix>3d</fix>
</trkpt>
<trkpt lat="33.810187" lon="-118.3938675">
  <ele>-14.89</ele>
  <time>2026-09-01T01:18:15Z</time>
  <course>179.43</course>
  <speed>0.49</speed>
  <fix>3d</fix>
</trkpt>
<trkpt lat="33.8101858" lon="-118.3938676">
  <ele>-15.248</ele>
  <time>2026-09-01T01:18:15Z</time>
  <course>186.75</course>
  <speed>0.47010637094172636</speed>
  <fix>3d</fix>
</trkpt>
<trkpt lat="33.8101861" lon="-118.3938675">
  <ele>-14.89</ele>
  <time>2026-09-01T01:18:15Z</time>
  <course>179.4</course>
  <speed>0.49</speed>
  <fix>3d</fix>
</trkpt>
<trkpt lat="33.8101853" lon="-118.3938676">
  <ele>-15.249</ele>
  <time>2026-09-01T01:18:15Z</time>
  <course>186.75</course>
  <speed>0.47010637094172636</speed>
  <fix>3d</fix>
</trkpt>
<trkpt lat="33.8101861" lon="-118.3938675">
  <ele>-14.89</ele>
  <time>2026-09-01T01:18:15Z</time>
  <course>179.4</course>
  <speed>0.49</speed>
  <fix>3d</fix>
</trkpt>
<trkpt lat="33.8101849" lon="-118.3938676">
  <ele>-15.251</ele>
  <time>2026-09-01T01:18:15Z</time>
  <course>186.75</course>
  <speed>0.47010637094172636</speed>
  <fix>3d</fix>
</trkpt>
<trkpt lat="33.8101852" lon="-118.3938675">
  <ele>-14.89</ele>
  <time>2026-09-01T01:18:15Z</time>
  <course>179.37</course>
  <speed>0.49</speed>
  <fix>3d</fix>
</trkpt>
<trkpt lat="33.8101844" lon="-118.3938676">
  <ele>-15.253</ele>
  <time>2026-09-01T01:18:15Z</time>
  <course>186.75</course>
  <speed>0.47010637094172636</speed>
  <fix>3d</fix>
</trkpt>
<trkpt lat="33.8101852" lon="-118.3938675">
  <ele>-14.89</ele>
  <time>2026-09-01T01:18:15Z</time>
  <course>179.37</course>
  <speed>0.49</speed>
  <fix>3d</fix>
</trkpt>
<trkpt lat="33.810184" lon="-118.3938676">
  <ele>-15.254</ele>
  <time>2026-09-01T01:18:15Z</time>
  <course>186.75</course>
  <speed>0.47010637094172636</speed>
  <fix>3d</fix>
</trkpt>
<trkpt lat="33.8101843" lon="-118.3938674">
  <ele>-14.89</ele>
  <time>2026-09-01T01:18:15Z</time>
  <course>179.35</course>
  <speed>0.5</speed>
  <fix>3d</fix>
</trkpt>
<trkpt lat="33.8101835" lon="-118.3938676">
  <ele>-15.254</ele>
  <time>2026-09-01T01:18:15Z</time>
  <course>186.75</course>
  <speed>0.47010637094172636</speed>
  <fix>3d</fix>
</trkpt>
<trkpt lat="33.8101843" lon="-118.3938674">
  <ele>-14.89</ele>
  <time>2026-09-01T01:18:15Z</time>
  <course>179.35</course>
  <speed>0.5</speed>
  <fix>3d</fix>
</trkpt>
<trkpt lat="33.8101831" lon="-118.3938676">
  <ele>-15.254</ele>
  <time>2026-09-01T01:18:15Z</time>
  <course>186.75</course>
  <speed>0.47010637094172636</speed>
  <fix>3d</fix>
</trkpt>
<trkpt lat="33.8101834" lon="-118.3938674">
  <ele>-14.89</ele>
  <time>2026-09-01T01:18:15Z</time>
  <course>179.38</course>
  <speed>0.5</speed>
  <fix>3d</fix>
</trkpt>
<trkpt lat="33.8101826" lon="-118.3938676">
  <ele>-15.252</ele>
  <time>2026-09-01T01:18:15Z</time>
  <course>186.75</course>
  <speed>0.47010637094172636</speed>
  <fix>3d</fix>
</trkpt>
<trkpt lat="33.8101834" lon="-118.3938674">
  <ele>-14.89</ele>
  <time>2026-09-01T01:18:15Z</time>
  <course>179.38</course>
  <speed>0.5</speed>
  <fix>3d</fix>
</trkpt>
<trkpt lat="33.8101822" lon="-118.3938676">
  <ele>-15.25</ele>
  <time>2026-09-01T01:18:15Z</time>
  <course>186.75</course>
  <speed>0.47010637094172636</speed>
  <fix>3d</fix>
</trkpt>
<trkpt lat="33.8101825" lon="-118.3938674">
  <ele>-14.89</ele>
  <time>2026-09-01T01:18:15Z</time>
  <course>179.54</course>
  <speed>0.5</speed>
  <fix>3d</fix>
</trkpt>
<trkpt lat="33.8101817" lon="-118.3938676">
  <ele>-15.248</ele>
  <time>2026-09-01T01:18:15Z</time>
  <course>186.75</course>
  <speed>0.47010637094172636</speed>
  <fix>3d</fix>
</trkpt>
<trkpt lat="33.8101825" lon="-118.3938674">
  <ele>-14.89</ele>
  <time>2026-09-01T01:18:15Z</time>
  <course>179.54</course>
  <speed>0.5</speed>
  <fix>3d</fix>
</trkpt>
<trkpt lat="33.8101813" lon="-118.3938676">
  <ele>-15.245</ele>
  <time>2026-09-01T01:18:15Z</time>
  <course>186.74</course>
  <speed>0.47010637094172636</speed>
  <fix>3d</fix>
</trkpt>
<trkpt lat="33.8101816" lon="-118.3938674">
  <ele>-14.88</ele>
  <time>2026-09-01T01:18:15Z</time>
  <course>179.73</course>
  <speed>0.5</speed>
  <fix>3d</fix>
</trkpt>
<trkpt lat="33.8101808" lon="-118.3938676">
  <ele>-15.242</ele>
  <time>2026-09-01T01:18:15Z</time>
  <course>186.74</course>
  <speed>0.47010637094172636</speed>
  <fix>3d</fix>
</trkpt>
<trkpt lat="33.8101816" lon="-118.3938674">
  <ele>-14.88</ele>
  <time>2026-09-01T01:18:15Z</time>
  <course>179.73</course>
  <speed>0.5</speed>
  <fix>3d</fix>
</trkpt>
<trkpt lat="33.8101804" lon="-118.3938676">
  <ele>-15.239</ele>
  <time>2026-09-01T01:18:15Z</time>
  <course>186.74</course>
  <speed>0.47010637094172636</speed>
  <fix>3d</fix>
</trkpt>
<trkpt lat="33.8101807" lon="-118.3938674">
  <ele>-14.88</ele>
  <time>2026-09-01T01:18:15Z</time>
  <course>179.87</course>
  <speed>0.5</speed>
  <fix>3d</fix>
</trkpt>
<trkpt lat="33.8101799" lon="-118.3938676">
  <ele>-15.239</ele>
  <time>2026-09-01T01:18:15Z</time>
  <course>186.74</course>
  <speed>0.47010637094172636</speed>
  <fix>3d</fix>
</trkpt>
<trkpt lat="33.8101807" lon="-118.3938674">
  <ele>-14.88</ele>
  <time>2026-09-01T01:18:15Z</time>
  <course>179.87</course>
  <speed>0.5</speed>
  <fix>3d</fix>
</trkpt>
<trkpt lat="33.8101795" lon="-118.3938676">
  <ele>-15.239</ele>
  <time>2026-09-01T01:18:15Z</time>
  <course>186.74</course>
  <speed>0.47010637094172636</speed>
  <fix>3d</fix>
</trkpt>
<trkpt lat="33.8101798" lon="-118.3938674">
  <ele>-14.88</ele>
  <time>2026-09-01T01:18:15Z</time>
  <course>179.97</course>
  <speed>0.5</speed>
  <fix>3d</fix>
</trkpt>
<trkpt lat="33.810179" lon="-118.3938676">
  <ele>-15.238</ele>
  <time>2026-09-01T01:18:15Z</time>
  <course>186.74</course>
  <speed>0.47010637094172636</speed>
  <fix>3d</fix>
</trkpt>
<trkpt lat="33.8101798" lon="-118.3938674">
  <ele>-14.88</ele>
  <time>2026-09-01T01:18:15Z</time>
  <course>179.97</course>
  <speed>0.5</speed>
  <fix>3d</fix>
</trkpt>
<trkpt lat="33.8101786" lon="-118.3938676">
  <ele>-15.239</ele>
  <time>2026-09-01T01:18:15Z</time>
  <course>186.74</course>
  <speed>0.47010637094172636</speed>
  <fix>3d</fix>
</trkpt>
<trkpt lat="33.8101789" lon="-118.3938674">
  <ele>-14.88</ele>
  <time>2026-09-01T01:18:15Z</time>
  <course>180.03</course>
  <speed>0.5</speed>
  <fix>3d</fix>
</trkpt>
<trkpt lat="33.8101781" lon="-118.3938676">
  <ele>-15.239</ele>
  <time>2026-09-01T01:18:15Z</time>
  <course>186.74</course>
  <speed>0.47010637094172636</speed>
  <fix>3d</fix>
</trkpt>
<trkpt lat="33.8101789" lon="-118.3938674">
  <ele>-14.88</ele>
  <time>2026-09-01T01:18:15Z</time>
  <course>180.03</course>
  <speed>0.5</speed>
  <fix>3d</fix>
</trkpt>
<trkpt lat="33.8101777" lon="-118.3938676">
  <ele>-15.239</ele>
  <time>2026-09-01T01:18:15Z</time>
  <course>186.74</course>
  <speed>0.47010637094172636</speed>
  <fix>3d</fix>
</trkpt>
<trkpt lat="33.810178" lon="-118.3938674">
  <ele>-14.88</ele>
  <time>2026-09-01T01:18:15Z</time>
  <course>180.06</course>
  <speed>0.5</speed>
  <fix>3d</fix>
</trkpt>
<trkpt lat="33.8101772" lon="-118.3938676">
  <ele>-15.239</ele>
  <time>2026-09-01T01:18:15Z</time>
  <course>186.74</course>
  <speed>0.47010637094172636</speed>
  <fix>3d</fix>
</trkpt>
<trkpt lat="33.810178" lon="-118.3938674">
  <ele>-14.88</ele>
  <time>2026-09-01T01:18:15Z</time>
  <course>180.06</course>
  <speed>0.5</speed>
  <fix>3d</fix>
</trkpt>
<trkpt lat="33.8101768" lon="-118.3938676">
  <ele>-15.238</ele>
  <time>2026-09-01T01:18:15Z</time>
  <course>186.73</course>
  <speed>0.47010637094172636</speed>
  <fix>3d</fix>
</trkpt>
<trkpt lat="33.8101771" lon="-118.3938674">
  <ele>-14.88</ele>
  <time>2026-09-01T01:18:15Z</time>
  <course>180.08</course>
  <speed>0.5</speed>
  <fix>3d</fix>
</trkpt>
<trkpt lat="33.8101763" lon="-118.3938676">
  <ele>-15.237</ele>
  <time>2026-09-01T01:18:15Z</time>
  <course>186.73</course>
  <speed>0.47010637094172636</speed>
  <fix>3d</fix>
</trkpt>
<trkpt lat="33.8101771" lon="-118.3938674">
  <ele>-14.88</ele>
  <time>2026-09-01T01:18:15Z</time>
  <course>180.08</course>
  <speed>0.5</speed>
  <fix>3d</fix>
</trkpt>
<trkpt lat="33.8101759" lon="-118.3938676">
  <ele>-15.238</ele>
  <time>2026-09-01T01:18:15Z</time>
  <course>186.73</course>
  <speed>0.47010637094172636</speed>
  <fix>3d</fix>
</trkpt>
<trkpt lat="33.8101762" lon="-118.3938674">
  <ele>-14.88</ele>
  <time>2026-09-01T01:18:15Z</time>
  <course>180.1</course>
  <speed>0.5</speed>
  <fix>3d</fix>
</trkpt>
<trkpt lat="33.8101754" lon="-118.3938676">
  <ele>-15.237</ele>
  <time>2026-09-01T01:18:15Z</time>
  <course>186.73</course>
  <speed>0.47010637094172636</speed>
  <fix>3d</fix>
</trkpt>
<trkpt lat="33.8101762" lon="-118.3938674">
  <ele>-14.88</ele>
  <time>2026-09-01T01:18:15Z</time>
  <course>180.1</course>
  <speed>0.5</speed>
  <fix>3d</fix>
</trkpt>
<trkpt lat="33.810175" lon="-118.3938676">
  <ele>-15.236</ele>
  <time>2026-09-01T01:18:15Z</time>
  <course>186.73</course>
  <speed>0.47010637094172636</speed>
  <fix>3d</fix>
</trkpt>
<trkpt lat="33.8101753" lon="-118.3938674">
  <ele>-14.87</ele>
  <time>2026-09-01T01:18:15Z</time>
  <course>180.12</course>
  <speed>0.5</speed>
  <fix>3d</fix>
</trkpt>
<trkpt lat="33.8101745" lon="-118.3938676">
  <ele>-15.235</ele>
  <time>2026-09-01T01:18:16Z</time>
  <course>186.73</course>
  <speed>0.47010637094172636</speed>
  <fix>3d</fix>
</trkpt>
<trkpt lat="33.8101753" lon="-118.3938674">
  <ele>-14.87</ele>
  <time>2026-09-01T01:18:16Z</time>
  <course>180.12</course>
  <speed>0.5</speed>
  <fix>3d</fix>
</trkpt>
<trkpt lat="33.8101741" lon="-118.3938676">
  <ele>-15.235</ele>
  <time>2026-09-01T01:18:16Z</time>
  <course>186.73</course>
  <speed>0.47010637094172636</speed>
  <fix>3d</fix>
</trkpt>
<trkpt lat="33.8101744" lon="-118.3938674">
  <ele>-14.87</ele>
  <time>2026-09-01T01:18:16Z</time>
  <course>180.13</course>
  <speed>0.5</speed>
  <fix>3d</fix>
</trkpt>
<trkpt lat="33.8101736" lon="-118.3938676">
  <ele>-15.234</ele>
  <time>2026-09-01T01:18:16Z</time>
  <course>186.73</course>
  <speed>0.47010637094172636</speed>
  <fix>3d</fix>
</trkpt>
<trkpt lat="33.8101744" lon="-118.3938674">
  <ele>-14.87</ele>
  <time>2026-09-01T01:18:16Z</time>
  <course>180.13</course>
  <speed>0.5</speed>
  <fix>3d</fix>
</trkpt>
<trkpt lat="33.8101732" lon="-118.3938676">
  <ele>-15.232</ele>
  <time>2026-09-01T01:18:16Z</time>
  <course>186.73</course>
  <speed>0.47010637094172636</speed>
  <fix>3d</fix>
</trkpt>
<trkpt lat="33.8101735" lon="-118.3938674">
  <ele>-14.87</ele>
  <time>2026-09-01T01:18:16Z</time>
  <course>180.15</course>
  <speed>0.5</speed>
  <fix>3d</fix>
</trkpt>
<trkpt lat="33.8101727" lon="-118.3938676">
  <ele>-15.23</ele>
  <time>2026-09-01T01:18:16Z</time>
  <course>186.73</course>
  <speed>0.47010637094172636</speed>
  <fix>3d</fix>
</trkpt>
<trkpt lat="33.8101735" lon="-118.3938674">
  <ele>-14.87</ele>
  <time>2026-09-01T01:18:16Z</time>
  <course>180.15</course>
  <speed>0.5</speed>
  <fix>3d</fix>
</trkpt>
<trkpt lat="33.8101723" lon="-118.3938676">
  <ele>-15.229</ele>
  <time>2026-09-01T01:18:16Z</time>
  <course>186.73</course>
  <speed>0.47010637094172636</speed>
  <fix>3d</fix>
</trkpt>
<trkpt lat="33.8101726" lon="-118.3938674">
  <ele>-14.87</ele>
  <time>2026-09-01T01:18:16Z</time>
  <course>180.15</course>
  <speed>0.5</speed>
  <fix>3d</fix>
</trkpt>
<trkpt lat="33.8101718" lon="-118.3938676">
  <ele>-15.229</ele>
  <time>2026-09-01T01:18:16Z</time>
  <course>186.73</course>
  <speed>0.47010637094172636</speed>
  <fix>3d</fix>
</trkpt>
<trkpt lat="33.8101726" lon="-118.3938674">
  <ele>-14.87</ele>
  <time>2026-09-01T01:18:16Z</time>
  <course>180.15</course>
  <speed>0.5</speed>
  <fix>3d</fix>
</trkpt>
<trkpt lat="33.8101714" lon="-118.3938676">
  <ele>-15.229</ele>
  <time>2026-09-01T01:18:16Z</time>
  <course>186.73</course>
  <speed>0.47010637094172636</speed>
  <fix>3d</fix>
</trkpt>
<trkpt lat="33.8101717" lon="-118.3938674">
  <ele>-14.87</ele>
  <time>2026-09-01T01:18:16Z</time>
  <course>180.16</course>
  <speed>0.5</speed>
  <fix>3d</fix>
</trkpt>
<trkpt lat="33.8101709" lon="-118.3938676">
  <ele>-15.229</ele>
  <time>2026-09-01T01:18:16Z</time>
  <course>186.72</course>
  <speed>0.47010637094172636</speed>
  <fix>3d</fix>
</trkpt>
<trkpt lat="33.8101717" lon="-118.3938674">
  <ele>-14.87</ele>
  <time>2026-09-01T01:18:16Z</time>
  <course>180.16</course>
  <speed>0.5</speed>
  <fix>3d</fix>
</trkpt>
<trkpt lat="33.8101705" lon="-118.3938676">
  <ele>-15.228</ele>
  <time>2026-09-01T01:18:16Z</time>
  <course>186.72</course>
  <speed>0.47010637094172636</speed>
  <fix>3d</fix>
</trkpt>
<trkpt lat="33.8101708" lon="-118.3938674">
  <ele>-14.87</ele>
  <time>2026-09-01T01:18:16Z</time>
  <course>180.18</course>
  <speed>0.5</speed>
  <fix>3d</fix>
</trkpt>
<trkpt lat="33.81017" lon="-118.3938676">
  <ele>-15.227</ele>
  <time>2026-09-01T01:18:16Z</time>
  <course>186.72</course>
  <speed>0.47010637094172636</speed>
  <fix>3d</fix>
</trkpt>
<trkpt lat="33.8101708" lon="-118.3938674">
  <ele>-14.87</ele>
  <time>2026-09-01T01:18:16Z</time>
  <course>180.18</course>
  <speed>0.5</speed>
  <fix>3d</fix>
</trkpt>
<trkpt lat="33.8101696" lon="-118.3938676">
  <ele>-15.225</ele>
  <time>2026-09-01T01:18:16Z</time>
  <course>186.72</course>
  <speed>0.47010637094172636</speed>
  <fix>3d</fix>
</trkpt>
<trkpt lat="33.8101699" lon="-118.3938674">
  <ele>-14.86</ele>
  <time>2026-09-01T01:18:16Z</time>
  <course>180.2</course>
  <speed>0.5</speed>
  <fix>3d</fix>
</trkpt>
<trkpt lat="33.8101691" lon="-118.3938676">
  <ele>-15.224</ele>
  <time>2026-09-01T01:18:16Z</time>
  <course>186.72</course>
  <speed>0.47010637094172636</speed>
  <fix>3d</fix>
</trkpt>
<trkpt lat="33.8101699" lon="-118.3938674">
  <ele>-14.86</ele>
  <time>2026-09-01T01:18:16Z</time>
  <course>180.2</course>
  <speed>0.5</speed>
  <fix>3d</fix>
</trkpt>
<trkpt lat="33.8101687" lon="-118.3938676">
  <ele>-15.223</ele>
  <time>2026-09-01T01:18:16Z</time>
  <course>186.72</course>
  <speed>0.47010637094172636</speed>
  <fix>3d</fix>
</trkpt>
<trkpt lat="33.810169" lon="-118.3938674">
  <ele>-14.86</ele>
  <time>2026-09-01T01:18:16Z</time>
  <course>180.22</course>
  <speed>0.5</speed>
  <fix>3d</fix>
</trkpt>
<trkpt lat="33.8101682" lon="-118.3938676">
  <ele>-15.223</ele>
  <time>2026-09-01T01:18:16Z</time>
  <course>186.72</course>
  <speed>0.47010637094172636</speed>
  <fix>3d</fix>
</trkpt>
<trkpt lat="33.810169" lon="-118.3938674">
  <ele>-14.86</ele>
  <time>2026-09-01T01:18:16Z</time>
  <course>180.22</course>
  <speed>0.5</speed>
  <fix>3d</fix>
</trkpt>
<trkpt lat="33.8101678" lon="-118.3938676">
  <ele>-15.223</ele>
  <time>2026-09-01T01:18:16Z</time>
  <course>186.72</course>
  <speed>0.47010637094172636</speed>
  <fix>3d</fix>
</trkpt>
<trkpt lat="33.8101681" lon="-118.3938674">
  <ele>-14.86</ele>
  <time>2026-09-01T01:18:16Z</time>
  <course>180.24</course>
  <speed>0.5</speed>
  <fix>3d</fix>
</trkpt>
<trkpt lat="33.8101673" lon="-118.3938676">
  <ele>-15.222</ele>
  <time>2026-09-01T01:18:16Z</time>
  <course>186.72</course>
  <speed>0.47010637094172636</speed>
  <fix>3d</fix>
</trkpt>
<trkpt lat="33.8101681" lon="-118.3938674">
  <ele>-14.86</ele>
  <time>2026-09-01T01:18:16Z</time>
  <course>180.24</course>
  <speed>0.5</speed>
  <fix>3d</fix>
</trkpt>
<trkpt lat="33.8101669" lon="-118.3938676">
  <ele>-15.221</ele>
  <time>2026-09-01T01:18:16Z</time>
  <course>186.72</course>
  <speed>0.47010637094172636</speed>
  <fix>3d</fix>
</trkpt>
<trkpt lat="33.8101672" lon="-118.3938674">
  <ele>-14.86</ele>
  <time>2026-09-01T01:18:16Z</time>
  <course>180.25</course>
  <speed>0.5</speed>
  <fix>3d</fix>
</trkpt>
<trkpt lat="33.8101664" lon="-118.3938676">
  <ele>-15.219</ele>
  <time>2026-09-01T01:18:16Z</time>
  <course>186.72</course>
  <speed>0.47010637094172636</speed>
  <fix>3d</fix>
</trkpt>
<trkpt lat="33.8101672" lon="-118.3938674">
  <ele>-14.86</ele>
  <time>2026-09-01T01:18:16Z</time>
  <course>180.25</course>
  <speed>0.5</speed>
  <fix>3d</fix>
</trkpt>
<trkpt lat="33.810166" lon="-118.3938676">
  <ele>-15.218</ele>
  <time>2026-09-01T01:18:16Z</time>
  <course>186.72</course>
  <speed>0.47010637094172636</speed>
  <fix>3d</fix>
</trkpt>
<trkpt lat="33.8101663" lon="-118.3938674">
  <ele>-14.86</ele>
  <time>2026-09-01T01:18:16Z</time>
  <course>180.26</course>
  <speed>0.5</speed>
  <fix>3d</fix>
</trkpt>
<trkpt lat="33.8101655" lon="-118.3938676">
  <ele>-15.218</ele>
  <time>2026-09-01T01:18:16Z</time>
  <course>186.72</course>
  <speed>0.47010637094172636</speed>
  <fix>3d</fix>
</trkpt>
<trkpt lat="33.8101663" lon="-118.3938674">
  <ele>-14.86</ele>
  <time>2026-09-01T01:18:16Z</time>
  <course>180.26</course>
  <speed>0.5</speed>
  <fix>3d</fix>
</trkpt>
<trkpt lat="33.8101651" lon="-118.3938676">
  <ele>-15.217</ele>
  <time>2026-09-01T01:18:16Z</time>
  <course>186.72</course>
  <speed>0.47010637094172636</speed>
  <fix>3d</fix>
</trkpt>
<trkpt lat="33.8101654" lon="-118.3938674">
  <ele>-14.86</ele>
  <time>2026-09-01T01:18:16Z</time>
  <course>180.27</course>
  <speed>0.5</speed>
  <fix>3d</fix>
</trkpt>
<trkpt lat="33.8101646" lon="-118.3938676">
  <ele>-15.217</ele>
  <time>2026-09-01T01:18:16Z</time>
  <course>186.72</course>
  <speed>0.47010637094172636</speed>
  <fix>3d</fix>
</trkpt>
<trkpt lat="33.8101654" lon="-118.3938674">
  <ele>-14.86</ele>
  <time>2026-09-01T01:18:16Z</time>
  <course>180.27</course>
  <speed>0.5</speed>
  <fix>3d</fix>
</trkpt>
<trkpt lat="33.8101642" lon="-118.3938676">
  <ele>-15.219</ele>
  <time>2026-09-01T01:18:16Z</time>
  <course>186.72</course>
  <speed>0.47010637094172636</speed>
  <fix>3d</fix>
</trkpt>
<trkpt lat="33.8101645" lon="-118.3938674">
  <ele>-14.86</ele>
  <time>2026-09-01T01:18:16Z</time>
  <course>180.27</course>
  <speed>0.5</speed>
  <fix>3d</fix>
</trkpt>
<trkpt lat="33.8101637" lon="-118.3938676">
  <ele>-15.219</ele>
  <time>2026-09-01T01:18:16Z</time>
  <course>186.72</course>
  <speed>0.47010637094172636</speed>
  <fix>3d</fix>
</trkpt>
<trkpt lat="33.8101645" lon="-118.3938674">
  <ele>-14.86</ele>
  <time>2026-09-01T01:18:16Z</time>
  <course>180.27</course>
  <speed>0.5</speed>
  <fix>3d</fix>
</trkpt>
<trkpt lat="33.8101633" lon="-118.3938676">
  <ele>-15.219</ele>
  <time>2026-09-01T01:18:16Z</time>
  <course>186.72</course>
  <speed>0.47010637094172636</speed>
  <fix>3d</fix>
</trkpt>
<trkpt lat="33.8101636" lon="-118.3938674">
  <ele>-14.86</ele>
  <time>2026-09-01T01:18:16Z</time>
  <course>180.28</course>
  <speed>0.5</speed>
  <fix>3d</fix>
</trkpt>
<trkpt lat="33.8101628" lon="-118.3938676">
  <ele>-15.218</ele>
  <time>2026-09-01T01:18:16Z</time>
  <course>186.72</course>
  <speed>0.47010637094172636</speed>
  <fix>3d</fix>
</trkpt>
<trkpt lat="33.8101636" lon="-118.3938674">
  <ele>-14.86</ele>
  <time>2026-09-01T01:18:16Z</time>
  <course>180.28</course>
  <speed>0.5</speed>
  <fix>3d</fix>
</trkpt>
<trkpt lat="33.8101624" lon="-118.3938676">
  <ele>-15.216</ele>
  <time>2026-09-01T01:18:16Z</time>
  <course>186.72</course>
  <speed>0.47010637094172636</speed>
  <fix>3d</fix>
</trkpt>
<trkpt lat="33.8101627" lon="-118.3938674">
  <ele>-14.86</ele>
  <time>2026-09-01T01:18:16Z</time>
  <course>180.28</course>
  <speed>0.49</speed>
  <fix>3d</fix>
</trkpt>
<trkpt lat="33.8101619" lon="-118.3938676">
  <ele>-15.216</ele>
  <time>2026-09-01T01:18:16Z</time>
  <course>186.71</course>
  <speed>0.47010637094172636</speed>
  <fix>3d</fix>
</trkpt>
<trkpt lat="33.8101627" lon="-118.3938674">
  <ele>-14.86</ele>
  <time>2026-09-01T01:18:16Z</time>
  <course>180.28</course>
  <speed>0.49</speed>
  <fix>3d</fix>
</trkpt>
<trkpt lat="33.8101615" lon="-118.3938676">
  <ele>-15.214</ele>
  <time>2026-09-01T01:18:16Z</time>
  <course>186.71</course>
  <speed>0.47010637094172636</speed>
  <fix>3d</fix>
</trkpt>
<trkpt lat="33.8101618" lon="-118.3938674">
  <ele>-14.85</ele>
  <time>2026-09-01T01:18:16Z</time>
  <course>180.3</course>
  <speed>0.49</speed>
  <fix>3d</fix>
</trkpt>
<trkpt lat="33.810161" lon="-118.3938676">
  <ele>-15.212</ele>
  <time>2026-09-01T01:18:16Z</time>
  <course>186.71</course>
  <speed>0.47010637094172636</speed>
  <fix>3d</fix>
</trkpt>
<trkpt lat="33.8101618" lon="-118.3938674">
  <ele>-14.85</ele>
  <time>2026-09-01T01:18:16Z</time>
  <course>180.3</course>
  <speed>0.49</speed>
  <fix>3d</fix>
</trkpt>
<trkpt lat="33.8101606" lon="-118.3938676">
  <ele>-15.21</ele>
  <time>2026-09-01T01:18:16Z</time>
  <course>186.71</course>
  <speed>0.47010637094172636</speed>
  <fix>3d</fix>
</trkpt>
<trkpt lat="33.8101609" lon="-118.3938674">
  <ele>-14.85</ele>
  <time>2026-09-01T01:18:16Z</time>
  <course>180.31</course>
  <speed>0.49</speed>
  <fix>3d</fix>
</trkpt>
<trkpt lat="33.8101602" lon="-118.3938676">
  <ele>-15.209</ele>
  <time>2026-09-01T01:18:16Z</time>
  <course>186.71</course>
  <speed>0.47010637094172636</speed>
  <fix>3d</fix>
</trkpt>
<trkpt lat="33.8101609" lon="-118.3938674">
  <ele>-14.85</ele>
  <time>2026-09-01T01:18:16Z</time>
  <course>180.31</course>
  <speed>0.49</speed>
  <fix>3d</fix>
</trkpt>
<trkpt lat="33.8101597" lon="-118.3938676">
  <ele>-15.208</ele>
  <time>2026-09-01T01:18:16Z</time>
  <course>186.71</course>
  <speed>0.47010637094172636</speed>
  <fix>3d</fix>
</trkpt>
<trkpt lat="33.81016" lon="-118.3938674">
  <ele>-14.85</ele>
  <time>2026-09-01T01:18:16Z</time>
  <course>180.32</course>
  <speed>0.49</speed>
  <fix>3d</fix>
</trkpt>
<trkpt lat="33.8101592" lon="-118.3938676">
  <ele>-15.208</ele>
  <time>2026-09-01T01:18:16Z</time>
  <course>186.71</course>
  <speed>0.47010637094172636</speed>
  <fix>3d</fix>
</trkpt>
<trkpt lat="33.81016" lon="-118.3938674">
  <ele>-14.85</ele>
  <time>2026-09-01T01:18:16Z</time>
  <course>180.32</course>
  <speed>0.49</speed>
  <fix>3d</fix>
</trkpt>
<trkpt lat="33.8101588" lon="-118.3938676">
  <ele>-15.207</ele>
  <time>2026-09-01T01:18:16Z</time>
  <course>186.71</course>
  <speed>0.47010637094172636</speed>
  <fix>3d</fix>
</trkpt>
<trkpt lat="33.8101591" lon="-118.3938674">
  <ele>-14.85</ele>
  <time>2026-09-01T01:18:16Z</time>
  <course>180.35</course>
  <speed>0.49</speed>
  <fix>3d</fix>
</trkpt>
<trkpt lat="33.8101583" lon="-118.3938676">
  <ele>-15.208</ele>
  <time>2026-09-01T01:18:16Z</time>
  <course>186.71</course>
  <speed>0.47010637094172636</speed>
  <fix>3d</fix>
</trkpt>
<trkpt lat="33.8101591" lon="-118.3938674">
  <ele>-14.85</ele>
  <time>2026-09-01T01:18:16Z</time>
  <course>180.35</course>
  <speed>0.49</speed>
  <fix>3d</fix>
</trkpt>
<trkpt lat="33.8101579" lon="-118.3938676">
  <ele>-15.208</ele>
  <time>2026-09-01T01:18:16Z</time>
  <course>186.71</course>
  <speed>0.47010637094172636</speed>
  <fix>3d</fix>
</trkpt>
<trkpt lat="33.8101582" lon="-118.3938674">
  <ele>-14.85</ele>
  <time>2026-09-01T01:18:16Z</time>
  <course>180.37</course>
  <speed>0.49</speed>
  <fix>3d</fix>
</trkpt>
<trkpt lat="33.8101574" lon="-118.3938676">
  <ele>-15.208</ele>
  <time>2026-09-01T01:18:16Z</time>
  <course>186.71</course>
  <speed>0.47010637094172636</speed>
  <fix>3d</fix>
</trkpt>
<trkpt lat="33.8101582" lon="-118.3938674">
  <ele>-14.85</ele>
  <time>2026-09-01T01:18:16Z</time>
  <course>180.37</course>
  <speed>0.49</speed>
  <fix>3d</fix>
</trkpt>
<trkpt lat="33.810157" lon="-118.3938676">
  <ele>-15.209</ele>
  <time>2026-09-01T01:18:16Z</time>
  <course>186.71</course>
  <speed>0.47010637094172636</speed>
  <fix>3d</fix>
</trkpt>
<trkpt lat="33.8101573" lon="-118.3938674">
  <ele>-14.85</ele>
  <time>2026-09-01T01:18:16Z</time>
  <course>180.39</course>
  <speed>0.49</speed>
  <fix>3d</fix>
</trkpt>
<trkpt lat="33.8101565" lon="-118.3938676">
  <ele>-15.209</ele>
  <time>2026-09-01T01:18:16Z</time>
  <course>186.71</course>
  <speed>0.47010637094172636</speed>
  <fix>3d</fix>
</trkpt>
<trkpt lat="33.8101573" lon="-118.3938674">
  <ele>-14.85</ele>
  <time>2026-09-01T01:18:16Z</time>
  <course>180.39</course>
  <speed>0.49</speed>
  <fix>3d</fix>
</trkpt>
<trkpt lat="33.8101561" lon="-118.3938676">
  <ele>-15.208</ele>
  <time>2026-09-01T01:18:16Z</time>
  <course>186.71</course>
  <speed>0.47010637094172636</speed>
  <fix>3d</fix>
</trkpt>
<trkpt lat="33.8101564" lon="-118.3938674">
  <ele>-14.85</ele>
  <time>2026-09-01T01:18:16Z</time>
  <course>180.4</course>
  <speed>0.49</speed>
  <fix>3d</fix>
</trkpt>
<trkpt lat="33.8101556" lon="-118.3938676">
  <ele>-15.206</ele>
  <time>2026-09-01T01:18:16Z</time>
  <course>186.7</course>
  <speed>0.47010637094172636</speed>
  <fix>3d</fix>
</trkpt>
<trkpt lat="33.8101564" lon="-118.3938674">
  <ele>-14.85</ele>
  <time>2026-09-01T01:18:16Z</time>
  <course>180.4</course>
  <speed>0.49</speed>
  <fix>3d</fix>
</trkpt>
<trkpt lat="33.8101552" lon="-118.3938676">
  <ele>-15.204</ele>
  <time>2026-09-01T01:18:16Z</time>
  <course>186.7</course>
  <speed>0.47010637094172636</speed>
  <fix>3d</fix>
</trkpt>
<trkpt lat="33.8101555" lon="-118.3938674">
  <ele>-14.84</ele>
  <time>2026-09-01T01:18:16Z</time>
  <course>180.4</course>
  <speed>0.49</speed>
  <fix>3d</fix>
</trkpt>
<trkpt lat="33.8101547" lon="-118.3938676">
  <ele>-15.201</ele>
  <time>2026-09-01T01:18:16Z</time>
  <course>186.7</course>
  <speed>0.47010637094172636</speed>
  <fix>3d</fix>
</trkpt>
<trkpt lat="33.8101555" lon="-118.3938674">
  <ele>-14.84</ele>
  <time>2026-09-01T01:18:16Z</time>
  <course>180.4</course>
  <speed>0.49</speed>
  <fix>3d</fix>
</trkpt>
<trkpt lat="33.8101543" lon="-118.3938676">
  <ele>-15.199</ele>
  <time>2026-09-01T01:18:16Z</time>
  <course>186.7</course>
  <speed>0.47010637094172636</speed>
  <fix>3d</fix>
</trkpt>
<trkpt lat="33.8101546" lon="-118.3938674">
  <ele>-14.84</ele>
  <time>2026-09-01T01:18:16Z</time>
  <course>180.4</course>
  <speed>0.49</speed>
  <fix>3d</fix>
</trkpt>
<trkpt lat="33.8101538" lon="-118.3938676">
  <ele>-15.197</ele>
  <time>2026-09-01T01:18:16Z</time>
  <course>186.7</course>
  <speed>0.47010637094172636</speed>
  <fix>3d</fix>
</trkpt>
<trkpt lat="33.8101546" lon="-118.3938674">
  <ele>-14.84</ele>
  <time>2026-09-01T01:18:16Z</time>
  <course>180.4</course>
  <speed>0.49</speed>
  <fix>3d</fix>
</trkpt>
<trkpt lat="33.8101534" lon="-118.3938676">
  <ele>-15.196</ele>
  <time>2026-09-01T01:18:16Z</time>
  <course>186.7</course>
  <speed>0.47010637094172636</speed>
  <fix>3d</fix>
</trkpt>
<trkpt lat="33.8101537" lon="-118.3938674">
  <ele>-14.84</ele>
  <time>2026-09-01T01:18:16Z</time>
  <course>180.42</course>
  <speed>0.49</speed>
  <fix>3d</fix>
</trkpt>
<trkpt lat="33.810153" lon="-118.3938676">
  <ele>-15.197</ele>
  <time>2026-09-01T01:18:16Z</time>
  <course>186.7</course>
  <speed>0.47010637094172636</speed>
  <fix>3d</fix>
</trkpt>
<trkpt lat="33.8101537" lon="-118.3938674">
  <ele>-14.84</ele>
  <time>2026-09-01T01:18:16Z</time>
  <course>180.42</course>
  <speed>0.49</speed>
  <fix>3d</fix>
</trkpt>
<trkpt lat="33.8101525" lon="-118.3938676">
  <ele>-15.198</ele>
  <time>2026-09-01T01:18:16Z</time>
  <course>186.7</course>
  <speed>0.47010637094172636</speed>
  <fix>3d</fix>
</trkpt>
<trkpt lat="33.8101529" lon="-118.3938674">
  <ele>-14.84</ele>
  <time>2026-09-01T01:18:16Z</time>
  <course>180.44</course>
  <speed>0.49</speed>
  <fix>3d</fix>
</trkpt>
<trkpt lat="33.8101521" lon="-118.3938676">
  <ele>-15.2</ele>
  <time>2026-09-01T01:18:16Z</time>
  <course>186.7</course>
  <speed>0.47010637094172636</speed>
  <fix>3d</fix>
</trkpt>
<trkpt lat="33.8101529" lon="-118.3938674">
  <ele>-14.84</ele>
  <time>2026-09-01T01:18:16Z</time>
  <course>180.44</course>
  <speed>0.49</speed>
  <fix>3d</fix>
</trkpt>
<trkpt lat="33.8101516" lon="-118.3938676">
  <ele>-15.201</ele>
  <time>2026-09-01T01:18:16Z</time>
  <course>186.7</course>
  <speed>0.47010637094172636</speed>
  <fix>3d</fix>
</trkpt>
<trkpt lat="33.810152" lon="-118.3938675">
  <ele>-14.84</ele>
  <time>2026-09-01T01:18:16Z</time>
  <course>180.44</course>
  <speed>0.49</speed>
  <fix>3d</fix>
</trkpt>
<trkpt lat="33.8101512" lon="-118.3938676">
  <ele>-15.201</ele>
  <time>2026-09-01T01:18:16Z</time>
  <course>186.7</course>
  <speed>0.47010637094172636</speed>
  <fix>3d</fix>
</trkpt>
<trkpt lat="33.810152" lon="-118.3938675">
  <ele>-14.84</ele>
  <time>2026-09-01T01:18:16Z</time>
  <course>180.44</course>
  <speed>0.49</speed>
  <fix>3d</fix>
</trkpt>
<trkpt lat="33.8101507" lon="-118.3938676">
  <ele>-15.2</ele>
  <time>2026-09-01T01:18:16Z</time>
  <course>186.7</course>
  <speed>0.47010637094172636</speed>
  <fix>3d</fix>
</trkpt>
<trkpt lat="33.8101511" lon="-118.3938675">
  <ele>-14.84</ele>
  <time>2026-09-01T01:18:16Z</time>
  <course>180.37</course>
  <speed>0.49</speed>
  <fix>3d</fix>
</trkpt>
<trkpt lat="33.8101503" lon="-118.3938676">
  <ele>-15.197</ele>
  <time>2026-09-01T01:18:16Z</time>
  <course>186.7</course>
  <speed>0.47010637094172636</speed>
  <fix>3d</fix>
</trkpt>
<trkpt lat="33.8101511" lon="-118.3938675">
  <ele>-14.84</ele>
  <time>2026-09-01T01:18:16Z</time>
  <course>180.37</course>
  <speed>0.49</speed>
  <fix>3d</fix>
</trkpt>
<trkpt lat="33.8101498" lon="-118.3938676">
  <ele>-15.193</ele>
  <time>2026-09-01T01:18:16Z</time>
  <course>186.7</course>
  <speed>0.47010637094172636</speed>
  <fix>3d</fix>
</trkpt>
<trkpt lat="33.8101502" lon="-118.3938675">
  <ele>-14.83</ele>
  <time>2026-09-01T01:18:16Z</time>
  <course>180.19</course>
  <speed>0.5</speed>
  <fix>3d</fix>
</trkpt>
<trkpt lat="33.8101494" lon="-118.3938676">
  <ele>-15.189</ele>
  <time>2026-09-01T01:18:16Z</time>
  <course>186.7</course>
  <speed>0.47010637094172636</speed>
  <fix>3d</fix>
</trkpt>
<trkpt lat="33.8101502" lon="-118.3938675">
  <ele>-14.83</ele>
  <time>2026-09-01T01:18:16Z</time>
  <course>180.19</course>
  <speed>0.5</speed>
  <fix>3d</fix>
</trkpt>
<trkpt lat="33.8101489" lon="-118.3938676">
  <ele>-15.188</ele>
  <time>2026-09-01T01:18:16Z</time>
  <course>186.7</course>
  <speed>0.47010637094172636</speed>
  <fix>3d</fix>
</trkpt>
<trkpt lat="33.8101493" lon="-118.3938675">
  <ele>-14.83</ele>
  <time>2026-09-01T01:18:16Z</time>
  <course>179.99</course>
  <speed>0.5</speed>
  <fix>3d</fix>
</trkpt>
<trkpt lat="33.8101485" lon="-118.3938676">
  <ele>-15.188</ele>
  <time>2026-09-01T01:18:16Z</time>
  <course>186.7</course>
  <speed>0.47010637094172636</speed>
  <fix>3d</fix>
</trkpt>
<trkpt lat="33.8101493" lon="-118.3938675">
  <ele>-14.83</ele>
  <time>2026-09-01T01:18:16Z</time>
  <course>179.99</course>
  <speed>0.5</speed>
  <fix>3d</fix>
</trkpt>
<trkpt lat="33.810148" lon="-118.3938676">
  <ele>-15.188</ele>
  <time>2026-09-01T01:18:16Z</time>
  <course>186.7</course>
  <speed>0.47010637094172636</speed>
  <fix>3d</fix>
</trkpt>
<trkpt lat="33.8101484" lon="-118.3938675">
  <ele>-14.83</ele>
  <time>2026-09-01T01:18:16Z</time>
  <course>179.83</course>
  <speed>0.5</speed>
  <fix>3d</fix>
</trkpt>
<trkpt lat="33.8101476" lon="-118.3938676">
  <ele>-15.189</ele>
  <time>2026-09-01T01:18:16Z</time>
  <course>186.7</course>
  <speed>0.47010637094172636</speed>
  <fix>3d</fix>
</trkpt>
<trkpt lat="33.8101484" lon="-118.3938675">
  <ele>-14.83</ele>
  <time>2026-09-01T01:18:16Z</time>
  <course>179.83</course>
  <speed>0.5</speed>
  <fix>3d</fix>
</trkpt>
<trkpt lat="33.8101471" lon="-118.3938676">
  <ele>-15.191</ele>
  <time>2026-09-01T01:18:16Z</time>
  <course>186.7</course>
  <speed>0.47010637094172636</speed>
  <fix>3d</fix>
</trkpt>
<trkpt lat="33.8101475" lon="-118.3938675">
  <ele>-14.83</ele>
  <time>2026-09-01T01:18:16Z</time>
  <course>179.72</course>
  <speed>0.5</speed>
  <fix>3d</fix>
</trkpt>
<trkpt lat="33.8101467" lon="-118.3938676">
  <ele>-15.192</ele>
  <time>2026-09-01T01:18:16Z</time>
  <course>186.7</course>
  <speed>0.47010637094172636</speed>
  <fix>3d</fix>
</trkpt>
<trkpt lat="33.8101475" lon="-118.3938675">
  <ele>-14.83</ele>
  <time>2026-09-01T01:18:16Z</time>
  <course>179.72</course>
  <speed>0.5</speed>
  <fix>3d</fix>
</trkpt>
<trkpt lat="33.8101462" lon="-118.3938676">
  <ele>-15.192</ele>
  <time>2026-09-01T01:18:16Z</time>
  <course>186.7</course>
  <speed>0.47010637094172636</speed>
  <fix>3d</fix>
</trkpt>
<trkpt lat="33.8101466" lon="-118.3938675">
  <ele>-14.83</ele>
  <time>2026-09-01T01:18:16Z</time>
  <course>179.66</course>
  <speed>0.5</speed>
  <fix>3d</fix>
</trkpt>
<trkpt lat="33.8101458" lon="-118.3938676">
  <ele>-15.192</ele>
  <time>2026-09-01T01:18:16Z</time>
  <course>186.7</course>
  <speed>0.47010637094172636</speed>
  <fix>3d</fix>
</trkpt>
<trkpt lat="33.8101466" lon="-118.3938675">
  <ele>-14.83</ele>
  <time>2026-09-01T01:18:16Z</time>
  <course>179.66</course>
  <speed>0.5</speed>
  <fix>3d</fix>
</trkpt>
<trkpt lat="33.8101453" lon="-118.3938676">
  <ele>-15.19</ele>
  <time>2026-09-01T01:18:16Z</time>
  <course>186.7</course>
  <speed>0.47010637094172636</speed>
  <fix>3d</fix>
</trkpt>
<trkpt lat="33.8101457" lon="-118.3938675">
  <ele>-14.82</ele>
  <time>2026-09-01T01:18:16Z</time>
  <course>179.6</course>
  <speed>0.5</speed>
  <fix>3d</fix>
</trkpt>
<trkpt lat="33.8101449" lon="-118.3938676">
  <ele>-15.187</ele>
  <time>2026-09-01T01:18:16Z</time>
  <course>186.7</course>
  <speed>0.47010637094172636</speed>
  <fix>3d</fix>
</trkpt>
<trkpt lat="33.8101457" lon="-118.3938675">
  <ele>-14.82</ele>
  <time>2026-09-01T01:18:16Z</time>
  <course>179.6</course>
  <speed>0.5</speed>
  <fix>3d</fix>
</trkpt>
<trkpt lat="33.8101444" lon="-118.3938676">
  <ele>-15.184</ele>
  <time>2026-09-01T01:18:16Z</time>
  <course>186.69</course>
  <speed>0.47010637094172636</speed>
  <fix>3d</fix>
</trkpt>
<trkpt lat="33.8101448" lon="-118.3938675">
  <ele>-14.82</ele>
  <time>2026-09-01T01:18:16Z</time>
  <course>179.56</course>
  <speed>0.5</speed>
  <fix>3d</fix>
</trkpt>
<trkpt lat="33.810144" lon="-118.3938676">
  <ele>-15.182</ele>
  <time>2026-09-01T01:18:16Z</time>
  <course>186.69</course>
  <speed>0.47010637094172636</speed>
  <fix>3d</fix>
</trkpt>
<trkpt lat="33.8101448" lon="-118.3938675">
  <ele>-14.82</ele>
  <time>2026-09-01T01:18:16Z</time>
  <course>179.56</course>
  <speed>0.5</speed>
  <fix>3d</fix>
</trkpt>
<trkpt lat="33.8101435" lon="-118.3938676">
  <ele>-15.181</ele>
  <time>2026-09-01T01:18:16Z</time>
  <course>186.69</course>
  <speed>0.47010637094172636</speed>
  <fix>3d</fix>
</trkpt>
<trkpt lat="33.8101439" lon="-118.3938675">
  <ele>-14.82</ele>
  <time>2026-09-01T01:18:16Z</time>
  <course>179.53</course>
  <speed>0.5</speed>
  <fix>3d</fix>
</trkpt>
<trkpt lat="33.8101431" lon="-118.3938676">
  <ele>-15.18</ele>
  <time>2026-09-01T01:18:16Z</time>
  <course>186.69</course>
  <speed>0.47010637094172636</speed>
  <fix>3d</fix>
</trkpt>
<trkpt lat="33.8101439" lon="-118.3938675">
  <ele>-14.82</ele>
  <time>2026-09-01T01:18:16Z</time>
  <course>179.53</course>
  <speed>0.5</speed>
  <fix>3d</fix>
</trkpt>
<trkpt lat="33.8101426" lon="-118.3938676">
  <ele>-15.178</ele>
  <time>2026-09-01T01:18:16Z</time>
  <course>186.69</course>
  <speed>0.47010637094172636</speed>
  <fix>3d</fix>
</trkpt>
<trkpt lat="33.8101429" lon="-118.3938675">
  <ele>-14.81</ele>
  <time>2026-09-01T01:18:16Z</time>
  <course>179.5</course>
  <speed>0.5</speed>
  <fix>3d</fix>
</trkpt>
<trkpt lat="33.8101422" lon="-118.3938676">
  <ele>-15.176</ele>
  <time>2026-09-01T01:18:16Z</time>
  <course>186.69</course>
  <speed>0.47010637094172636</speed>
  <fix>3d</fix>
</trkpt>
<trkpt lat="33.8101429" lon="-118.3938675">
  <ele>-14.81</ele>
  <time>2026-09-01T01:18:16Z</time>
  <course>179.5</course>
  <speed>0.5</speed>
  <fix>3d</fix>
</trkpt>
<trkpt lat="33.8101417" lon="-118.3938676">
  <ele>-15.176</ele>
  <time>2026-09-01T01:18:16Z</time>
  <course>186.69</course>
  <speed>0.47010637094172636</speed>
  <fix>3d</fix>
</trkpt>
<trkpt lat="33.810142" lon="-118.3938675">
  <ele>-14.81</ele>
  <time>2026-09-01T01:18:16Z</time>
  <course>179.48</course>
  <speed>0.5</speed>
  <fix>3d</fix>
</trkpt>
<trkpt lat="33.8101413" lon="-118.3938676">
  <ele>-15.175</ele>
  <time>2026-09-01T01:18:16Z</time>
  <course>186.69</course>
  <speed>0.47010637094172636</speed>
  <fix>3d</fix>
</trkpt>
<trkpt lat="33.810142" lon="-118.3938675">
  <ele>-14.81</ele>
  <time>2026-09-01T01:18:16Z</time>
  <course>179.48</course>
  <speed>0.5</speed>
  <fix>3d</fix>
</trkpt>
<trkpt lat="33.8101408" lon="-118.3938676">
  <ele>-15.174</ele>
  <time>2026-09-01T01:18:16Z</time>
  <course>186.69</course>
  <speed>0.47010637094172636</speed>
  <fix>3d</fix>
</trkpt>
<trkpt lat="33.8101411" lon="-118.3938675">
  <ele>-14.81</ele>
  <time>2026-09-01T01:18:16Z</time>
  <course>179.47</course>
  <speed>0.5</speed>
  <fix>3d</fix>
</trkpt>
<trkpt lat="33.8101404" lon="-118.3938676">
  <ele>-15.174</ele>
  <time>2026-09-01T01:18:16Z</time>
  <course>186.69</course>
  <speed>0.47010637094172636</speed>
  <fix>3d</fix>
</trkpt>
<trkpt lat="33.8101411" lon="-118.3938675">
  <ele>-14.81</ele>
  <time>2026-09-01T01:18:16Z</time>
  <course>179.47</course>
  <speed>0.5</speed>
  <fix>3d</fix>
</trkpt>
<trkpt lat="33.8101399" lon="-118.3938676">
  <ele>-15.174</ele>
  <time>2026-09-01T01:18:16Z</time>
  <course>186.69</course>
  <speed>0.47010637094172636</speed>
  <fix>3d</fix>
</trkpt>
<trkpt lat="33.8101402" lon="-118.3938675">
  <ele>-14.82</ele>
  <time>2026-09-01T01:18:16Z</time>
  <course>179.42</course>
  <speed>0.49</speed>
  <fix>3d</fix>
</trkpt>
<trkpt lat="33.8101395" lon="-118.3938676">
  <ele>-15.175</ele>
  <time>2026-09-01T01:18:16Z</time>
  <course>186.69</course>
  <speed>0.47010637094172636</speed>
  <fix>3d</fix>
</trkpt>
<trkpt lat="33.8101402" lon="-118.3938675">
  <ele>-14.82</ele>
  <time>2026-09-01T01:18:16Z</time>
  <course>179.42</course>
  <speed>0.49</speed>
  <fix>3d</fix>
</trkpt>
<trkpt lat="33.810139" lon="-118.3938676">
  <ele>-15.177</ele>
  <time>2026-09-01T01:18:16Z</time>
  <course>186.69</course>
  <speed>0.47010637094172636</speed>
  <fix>3d</fix>
</trkpt>
<trkpt lat="33.8101394" lon="-118.3938675">
  <ele>-14.82</ele>
  <time>2026-09-01T01:18:16Z</time>
  <course>179.38</course>
  <speed>0.49</speed>
  <fix>3d</fix>
</trkpt>
<trkpt lat="33.8101386" lon="-118.3938676">
  <ele>-15.177</ele>
  <time>2026-09-01T01:18:16Z</time>
  <course>186.69</course>
  <speed>0.47010637094172636</speed>
  <fix>3d</fix>
</trkpt>
<trkpt lat="33.8101394" lon="-118.3938675">
  <ele>-14.82</ele>
  <time>2026-09-01T01:18:16Z</time>
  <course>179.38</course>
  <speed>0.49</speed>
  <fix>3d</fix>
</trkpt>
<trkpt lat="33.8101381" lon="-118.3938676">
  <ele>-15.176</ele>
  <time>2026-09-01T01:18:16Z</time>
  <course>186.69</course>
  <speed>0.47010637094172636</speed>
  <fix>3d</fix>
</trkpt>
<trkpt lat="33.8101385" lon="-118.3938675">
  <ele>-14.82</ele>
  <time>2026-09-01T01:18:16Z</time>
  <course>179.33</course>
  <speed>0.49</speed>
  <fix>3d</fix>
</trkpt>
<trkpt lat="33.8101377" lon="-118.3938676">
  <ele>-15.176</ele>
  <time>2026-09-01T01:18:16Z</time>
  <course>186.69</course>
  <speed>0.47010637094172636</speed>
  <fix>3d</fix>
</trkpt>
<trkpt lat="33.8101385" lon="-118.3938675">
  <ele>-14.82</ele>
  <time>2026-09-01T01:18:16Z</time>
  <course>179.33</course>
  <speed>0.49</speed>
  <fix>3d</fix>
</trkpt>
<trkpt lat="33.8101372" lon="-118.3938676">
  <ele>-15.175</ele>
  <time>2026-09-01T01:18:16Z</time>
  <course>186.69</course>
  <speed>0.47010637094172636</speed>
  <fix>3d</fix>
</trkpt>
<trkpt lat="33.8101376" lon="-118.3938675">
  <ele>-14.82</ele>
  <time>2026-09-01T01:18:16Z</time>
  <course>179.28</course>
  <speed>0.49</speed>
  <fix>3d</fix>
</trkpt>
<trkpt lat="33.8101368" lon="-118.3938676">
  <ele>-15.174</ele>
  <time>2026-09-01T01:18:16Z</time>
  <course>186.69</course>
  <speed>0.47010637094172636</speed>
  <fix>3d</fix>
</trkpt>
<trkpt lat="33.8101376" lon="-118.3938675">
  <ele>-14.82</ele>
  <time>2026-09-01T01:18:16Z</time>
  <course>179.28</course>
  <speed>0.49</speed>
  <fix>3d</fix>
</trkpt>
<trkpt lat="33.8101363" lon="-118.3938676">
  <ele>-15.174</ele>
  <time>2026-09-01T01:18:16Z</time>
  <course>186.69</course>
  <speed>0.47010637094172636</speed>
  <fix>3d</fix>
</trkpt>
<trkpt lat="33.8101367" lon="-118.3938674">
  <ele>-14.82</ele>
  <time>2026-09-01T01:18:16Z</time>
  <course>179.25</course>
  <speed>0.49</speed>
  <fix>3d</fix>
</trkpt>
<trkpt lat="33.8101359" lon="-118.3938676">
  <ele>-15.173</ele>
  <time>2026-09-01T01:18:16Z</time>
  <course>186.69</course>
  <speed>0.47010637094172636</speed>
  <fix>3d</fix>
</trkpt>
<trkpt lat="33.8101367" lon="-118.3938674">
  <ele>-14.82</ele>
  <time>2026-09-01T01:18:16Z</time>
  <course>179.25</course>
  <speed>0.49</speed>
  <fix>3d</fix>
</trkpt>
<trkpt lat="33.8101354" lon="-118.3938676">
  <ele>-15.172</ele>
  <time>2026-09-01T01:18:16Z</time>
  <course>186.69</course>
  <speed>0.47010637094172636</speed>
  <fix>3d</fix>
</trkpt>
<trkpt lat="33.8101358" lon="-118.3938674">
  <ele>-14.81</ele>
  <time>2026-09-01T01:18:16Z</time>
  <course>179.28</course>
  <speed>0.5</speed>
  <fix>3d</fix>
</trkpt>
<trkpt lat="33.810135" lon="-118.3938676">
  <ele>-15.17</ele>
  <time>2026-09-01T01:18:16Z</time>
  <course>186.69</course>
  <speed>0.47010637094172636</speed>
  <fix>3d</fix>
</trkpt>
<trkpt lat="33.8101358" lon="-118.3938674">
  <ele>-14.81</ele>
  <time>2026-09-01T01:18:16Z</time>
  <course>179.28</course>
  <speed>0.5</speed>
  <fix>3d</fix>
</trkpt>
<trkpt lat="33.8101345" lon="-118.3938676">
  <ele>-15.168</ele>
  <time>2026-09-01T01:18:16Z</time>
  <course>186.69</course>
  <speed>0.47010637094172636</speed>
  <fix>3d</fix>
</trkpt>
<trkpt lat="33.8101349" lon="-118.3938674">
  <ele>-14.81</ele>
  <time>2026-09-01T01:18:16Z</time>
  <course>179.4</course>
  <speed>0.5</speed>
  <fix>3d</fix>
</trkpt>
<trkpt lat="33.8101341" lon="-118.3938676">
  <ele>-15.166</ele>
  <time>2026-09-01T01:18:16Z</time>
  <course>186.69</course>
  <speed>0.47010637094172636</speed>
  <fix>3d</fix>
</trkpt>
<trkpt lat="33.8101349" lon="-118.3938674">
  <ele>-14.81</ele>
  <time>2026-09-01T01:18:16Z</time>
  <course>179.4</course>
  <speed>0.5</speed>
  <fix>3d</fix>
</trkpt>
<trkpt lat="33.8101336" lon="-118.3938676">
  <ele>-15.164</ele>
  <time>2026-09-01T01:18:16Z</time>
  <course>186.69</course>
  <speed>0.47010637094172636</speed>
  <fix>3d</fix>
</trkpt>
<trkpt lat="33.810134" lon="-118.3938674">
  <ele>-14.81</ele>
  <time>2026-09-01T01:18:16Z</time>
  <course>179.58</course>
  <speed>0.5</speed>
  <fix>3d</fix>
</trkpt>
<trkpt lat="33.8101332" lon="-118.3938676">
  <ele>-15.164</ele>
  <time>2026-09-01T01:18:16Z</time>
  <course>186.69</course>
  <speed>0.47010637094172636</speed>
  <fix>3d</fix>
</trkpt>
<trkpt lat="33.810134" lon="-118.3938674">
  <ele>-14.81</ele>
  <time>2026-09-01T01:18:16Z</time>
  <course>179.58</course>
  <speed>0.5</speed>
  <fix>3d</fix>
</trkpt>
<trkpt lat="33.8101327" lon="-118.3938676">
  <ele>-15.165</ele>
  <time>2026-09-01T01:18:16Z</time>
  <course>186.69</course>
  <speed>0.47010637094172636</speed>
  <fix>3d</fix>
</trkpt>
<trkpt lat="33.8101331" lon="-118.3938674">
  <ele>-14.81</ele>
  <time>2026-09-01T01:18:16Z</time>
  <course>179.73</course>
  <speed>0.5</speed>
  <fix>3d</fix>
</trkpt>
<trkpt lat="33.8101323" lon="-118.3938676">
  <ele>-15.166</ele>
  <time>2026-09-01T01:18:16Z</time>
  <course>186.69</course>
  <speed>0.47010637094172636</speed>
  <fix>3d</fix>
</trkpt>
<trkpt lat="33.8101331" lon="-118.3938674">
  <ele>-14.81</ele>
  <time>2026-09-01T01:18:16Z</time>
  <course>179.73</course>
  <speed>0.5</speed>
  <fix>3d</fix>
</trkpt>
<trkpt lat="33.8101318" lon="-118.3938676">
  <ele>-15.168</ele>
  <time>2026-09-01T01:18:16Z</time>
  <course>186.68</course>
  <speed>0.47010637094172636</speed>
  <fix>3d</fix>
</trkpt>
<trkpt lat="33.8101322" lon="-118.3938674">
  <ele>-14.81</ele>
  <time>2026-09-01T01:18:16Z</time>
  <course>179.81</course>
  <speed>0.5</speed>
  <fix>3d</fix>
</trkpt>
<trkpt lat="33.8101314" lon="-118.3938676">
  <ele>-15.17</ele>
  <time>2026-09-01T01:18:16Z</time>
  <course>186.68</course>
  <speed>0.47010637094172636</speed>
  <fix>3d</fix>
</trkpt>
<trkpt lat="33.8101322" lon="-118.3938674">
  <ele>-14.81</ele>
  <time>2026-09-01T01:18:16Z</time>
  <course>179.81</course>
  <speed>0.5</speed>
  <fix>3d</fix>
</trkpt>
<trkpt lat="33.8101309" lon="-118.3938676">
  <ele>-15.169</ele>
  <time>2026-09-01T01:18:16Z</time>
  <course>186.68</course>
  <speed>0.47010637094172636</speed>
  <fix>3d</fix>
</trkpt>
<trkpt lat="33.8101313" lon="-118.3938674">
  <ele>-14.81</ele>
  <time>2026-09-01T01:18:16Z</time>
  <course>179.84</course>
  <speed>0.5</speed>
  <fix>3d</fix>
</trkpt>
<trkpt lat="33.8101305" lon="-118.3938676">
  <ele>-15.168</ele>
  <time>2026-09-01T01:18:16Z</time>
  <course>186.68</course>
  <speed>0.47010637094172636</speed>
  <fix>3d</fix>
</trkpt>
<trkpt lat="33.8101313" lon="-118.3938674">
  <ele>-14.81</ele>
  <time>2026-09-01T01:18:16Z</time>
  <course>179.84</course>
  <speed>0.5</speed>
  <fix>3d</fix>
</trkpt>
<trkpt lat="33.81013" lon="-118.3938676">
  <ele>-15.165</ele>
  <time>2026-09-01T01:18:16Z</time>
  <course>186.68</course>
  <speed>0.47010637094172636</speed>
  <fix>3d</fix>
</trkpt>
<trkpt lat="33.8101304" lon="-118.3938674">
  <ele>-14.81</ele>
  <time>2026-09-01T01:18:16Z</time>
  <course>179.84</course>
  <speed>0.5</speed>
  <fix>3d</fix>
</trkpt>
<trkpt lat="33.8101296" lon="-118.3938676">
  <ele>-15.163</ele>
  <time>2026-09-01T01:18:16Z</time>
  <course>186.68</course>
  <speed>0.47010637094172636</speed>
  <fix>3d</fix>
</trkpt>
<trkpt lat="33.8101304" lon="-118.3938674">
  <ele>-14.81</ele>
  <time>2026-09-01T01:18:16Z</time>
  <course>179.84</course>
  <speed>0.5</speed>
  <fix>3d</fix>
</trkpt>
<trkpt lat="33.8101291" lon="-118.3938676">
  <ele>-15.161</ele>
  <time>2026-09-01T01:18:16Z</time>
  <course>186.68</course>
  <speed>0.47010637094172636</speed>
  <fix>3d</fix>
</trkpt>
<trkpt lat="33.8101295" lon="-118.3938674">
  <ele>-14.8</ele>
  <time>2026-09-01T01:18:16Z</time>
  <course>179.84</course>
  <speed>0.5</speed>
  <fix>3d</fix>
</trkpt>
<trkpt lat="33.8101287" lon="-118.3938676">
  <ele>-15.16</ele>
  <time>2026-09-01T01:18:16Z</time>
  <course>186.68</course>
  <speed>0.47010637094172636</speed>
  <fix>3d</fix>
</trkpt>
<trkpt lat="33.8101295" lon="-118.3938674">
  <ele>-14.8</ele>
  <time>2026-09-01T01:18:16Z</time>
  <course>179.84</course>
  <speed>0.5</speed>
  <fix>3d</fix>
</trkpt>
<trkpt lat="33.8101283" lon="-118.3938676">
  <ele>-15.159</ele>
  <time>2026-09-01T01:18:16Z</time>
  <course>186.68</course>
  <speed>0.47010637094172636</speed>
  <fix>3d</fix>
</trkpt>
<trkpt lat="33.8101286" lon="-118.3938674">
  <ele>-14.8</ele>
  <time>2026-09-01T01:18:16Z</time>
  <course>179.84</course>
  <speed>0.5</speed>
  <fix>3d</fix>
</trkpt>
<trkpt lat="33.8101278" lon="-118.3938676">
  <ele>-15.158</ele>
  <time>2026-09-01T01:18:16Z</time>
  <course>186.68</course>
  <speed>0.47010637094172636</speed>
  <fix>3d</fix>
</trkpt>
<trkpt lat="33.8101286" lon="-118.3938674">
  <ele>-14.8</ele>
  <time>2026-09-01T01:18:16Z</time>
  <course>179.84</course>
  <speed>0.5</speed>
  <fix>3d</fix>
</trkpt>
<trkpt lat="33.8101274" lon="-118.3938676">
  <ele>-15.157</ele>
  <time>2026-09-01T01:18:16Z</time>
  <course>186.68</course>
  <speed>0.47010637094172636</speed>
  <fix>3d</fix>
</trkpt>
<trkpt lat="33.8101277" lon="-118.3938674">
  <ele>-14.79</ele>
  <time>2026-09-01T01:18:16Z</time>
  <course>179.85</course>
  <speed>0.5</speed>
  <fix>3d</fix>
</trkpt>
<trkpt lat="33.8101269" lon="-118.3938676">
  <ele>-15.155</ele>
  <time>2026-09-01T01:18:16Z</time>
  <course>186.68</course>
  <speed>0.47010637094172636</speed>
  <fix>3d</fix>
</trkpt>
<trkpt lat="33.8101277" lon="-118.3938674">
  <ele>-14.79</ele>
  <time>2026-09-01T01:18:16Z</time>
  <course>179.85</course>
  <speed>0.5</speed>
  <fix>3d</fix>
</trkpt>
<trkpt lat="33.8101265" lon="-118.3938676">
  <ele>-15.154</ele>
  <time>2026-09-01T01:18:16Z</time>
  <course>186.68</course>
  <speed>0.47010637094172636</speed>
  <fix>3d</fix>
</trkpt>
<trkpt lat="33.8101268" lon="-118.3938674">
  <ele>-14.79</ele>
  <time>2026-09-01T01:18:16Z</time>
  <course>179.86</course>
  <speed>0.5</speed>
  <fix>3d</fix>
</trkpt>
<trkpt lat="33.810126" lon="-118.3938676">
  <ele>-15.152</ele>
  <time>2026-09-01T01:18:16Z</time>
  <course>186.68</course>
  <speed>0.47010637094172636</speed>
  <fix>3d</fix>
</trkpt>
<trkpt lat="33.8101268" lon="-118.3938674">
  <ele>-14.79</ele>
  <time>2026-09-01T01:18:16Z</time>
  <course>179.86</course>
  <speed>0.5</speed>
  <fix>3d</fix>
</trkpt>
<trkpt lat="33.8101256" lon="-118.3938676">
  <ele>-15.152</ele>
  <time>2026-09-01T01:18:16Z</time>
  <course>186.68</course>
  <speed>0.47010637094172636</speed>
  <fix>3d</fix>
</trkpt>
<trkpt lat="33.8101259" lon="-118.3938674">
  <ele>-14.79</ele>
  <time>2026-09-01T01:18:16Z</time>
  <course>179.88</course>
  <speed>0.5</speed>
  <fix>3d</fix>
</trkpt>
<trkpt lat="33.8101251" lon="-118.3938676">
  <ele>-15.152</ele>
  <time>2026-09-01T01:18:16Z</time>
  <course>186.68</course>
  <speed>0.47010637094172636</speed>
  <fix>3d</fix>
</trkpt>
<trkpt lat="33.8101259" lon="-118.3938674">
  <ele>-14.79</ele>
  <time>2026-09-01T01:18:16Z</time>
  <course>179.88</course>
  <speed>0.5</speed>
  <fix>3d</fix>
</trkpt>
<trkpt lat="33.8101247" lon="-118.3938676">
  <ele>-15.152</ele>
  <time>2026-09-01T01:18:16Z</time>
  <course>186.68</course>
  <speed>0.47010637094172636</speed>
  <fix>3d</fix>
</trkpt>
<trkpt lat="33.810125" lon="-118.3938674">
  <ele>-14.79</ele>
  <time>2026-09-01T01:18:16Z</time>
  <course>179.89</course>
  <speed>0.5</speed>
  <fix>3d</fix>
</trkpt>
<trkpt lat="33.8101242" lon="-118.3938676">
  <ele>-15.152</ele>
  <time>2026-09-01T01:18:16Z</time>
  <course>186.68</course>
  <speed>0.47010637094172636</speed>
  <fix>3d</fix>
</trkpt>
<trkpt lat="33.810125" lon="-118.3938674">
  <ele>-14.79</ele>
  <time>2026-09-01T01:18:16Z</time>
  <course>179.89</course>
  <speed>0.5</speed>
  <fix>3d</fix>
</trkpt>
<trkpt lat="33.8101238" lon="-118.3938676">
  <ele>-15.152</ele>
  <time>2026-09-01T01:18:16Z</time>
  <course>186.68</course>
  <speed>0.47010637094172636</speed>
  <fix>3d</fix>
</trkpt>
<trkpt lat="33.8101241" lon="-118.3938674">
  <ele>-14.79</ele>
  <time>2026-09-01T01:18:16Z</time>
  <course>179.89</course>
  <speed>0.5</speed>
  <fix>3d</fix>
</trkpt>
<trkpt lat="33.8101233" lon="-118.3938676">
  <ele>-15.151</ele>
  <time>2026-09-01T01:18:16Z</time>
  <course>186.68</course>
  <speed>0.47010637094172636</speed>
  <fix>3d</fix>
</trkpt>
<trkpt lat="33.8101241" lon="-118.3938674">
  <ele>-14.79</ele>
  <time>2026-09-01T01:18:16Z</time>
  <course>179.89</course>
  <speed>0.5</speed>
  <fix>3d</fix>
</trkpt>
<trkpt lat="33.8101229" lon="-118.3938676">
  <ele>-15.15</ele>
  <time>2026-09-01T01:18:16Z</time>
  <course>186.68</course>
  <speed>0.47010637094172636</speed>
  <fix>3d</fix>
</trkpt>
<trkpt lat="33.8101232" lon="-118.3938674">
  <ele>-14.79</ele>
  <time>2026-09-01T01:18:16Z</time>
  <course>179.89</course>
  <speed>0.5</speed>
  <fix>3d</fix>
</trkpt>
<trkpt lat="33.8101224" lon="-118.3938676">
  <ele>-15.149</ele>
  <time>2026-09-01T01:18:16Z</time>
  <course>186.68</course>
  <speed>0.47010637094172636</speed>
  <fix>3d</fix>
</trkpt>
<trkpt lat="33.8101232" lon="-118.3938674">
  <ele>-14.79</ele>
  <time>2026-09-01T01:18:16Z</time>
  <course>179.89</course>
  <speed>0.5</speed>
  <fix>3d</fix>
</trkpt>
<trkpt lat="33.810122" lon="-118.3938676">
  <ele>-15.149</ele>
  <time>2026-09-01T01:18:16Z</time>
  <course>186.68</course>
  <speed>0.47010637094172636</speed>
  <fix>3d</fix>
</trkpt>
<trkpt lat="33.8101223" lon="-118.3938674">
  <ele>-14.78</ele>
  <time>2026-09-01T01:18:16Z</time>
  <course>179.9</course>
  <speed>0.5</speed>
  <fix>3d</fix>
</trkpt>
<trkpt lat="33.8101215" lon="-118.3938676">
  <ele>-15.147</ele>
  <time>2026-09-01T01:18:16Z</time>
  <course>186.68</course>
  <speed>0.47010637094172636</speed>
  <fix>3d</fix>
</trkpt>
<trkpt lat="33.8101223" lon="-118.3938674">
  <ele>-14.78</ele>
  <time>2026-09-01T01:18:16Z</time>
  <course>179.9</course>
  <speed>0.5</speed>
  <fix>3d</fix>
</trkpt>
<trkpt lat="33.8101211" lon="-118.3938676">
  <ele>-15.145</ele>
  <time>2026-09-01T01:18:16Z</time>
  <course>186.68</course>
  <speed>0.47010637094172636</speed>
  <fix>3d</fix>
</trkpt>
<trkpt lat="33.8101214" lon="-118.3938674">
  <ele>-14.78</ele>
  <time>2026-09-01T01:18:16Z</time>
  <course>179.91</course>
  <speed>0.49</speed>
  <fix>3d</fix>
</trkpt>
<trkpt lat="33.8101206" lon="-118.3938676">
  <ele>-15.143</ele>
  <time>2026-09-01T01:18:16Z</time>
  <course>186.68</course>
  <speed>0.47010637094172636</speed>
  <fix>3d</fix>
</trkpt>
<trkpt lat="33.8101214" lon="-118.3938674">
  <ele>-14.78</ele>
  <time>2026-09-01T01:18:16Z</time>
  <course>179.91</course>
  <speed>0.49</speed>
  <fix>3d</fix>
</trkpt>
<trkpt lat="33.8101202" lon="-118.3938676">
  <ele>-15.14</ele>
  <time>2026-09-01T01:18:16Z</time>
  <course>186.68</course>
  <speed>0.47010637094172636</speed>
  <fix>3d</fix>
</trkpt>
<trkpt lat="33.8101205" lon="-118.3938674">
  <ele>-14.78</ele>
  <time>2026-09-01T01:18:16Z</time>
  <course>179.91</course>
  <speed>0.5</speed>
  <fix>3d</fix>
</trkpt>
<trkpt lat="33.8101197" lon="-118.3938676">
  <ele>-15.139</ele>
  <time>2026-09-01T01:18:16Z</time>
  <course>186.68</course>
  <speed>0.47010637094172636</speed>
  <fix>3d</fix>
</trkpt>
<trkpt lat="33.8101205" lon="-118.3938674">
  <ele>-14.78</ele>
  <time>2026-09-01T01:18:16Z</time>
  <course>179.91</course>
  <speed>0.5</speed>
  <fix>3d</fix>
</trkpt>
<trkpt lat="33.8101193" lon="-118.3938676">
  <ele>-15.138</ele>
  <time>2026-09-01T01:18:16Z</time>
  <course>186.68</course>
  <speed>0.47010637094172636</speed>
  <fix>3d</fix>
</trkpt>
<trkpt lat="33.8101196" lon="-118.3938674">
  <ele>-14.78</ele>
  <time>2026-09-01T01:18:16Z</time>
  <course>179.88</course>
  <speed>0.5</speed>
  <fix>3d</fix>
</trkpt>
<trkpt lat="33.8101188" lon="-118.3938676">
  <ele>-15.138</ele>
  <time>2026-09-01T01:18:16Z</time>
  <course>186.68</course>
  <speed>0.47010637094172636</speed>
  <fix>3d</fix>
</trkpt>
<trkpt lat="33.8101196" lon="-118.3938674">
  <ele>-14.78</ele>
  <time>2026-09-01T01:18:16Z</time>
  <course>179.88</course>
  <speed>0.5</speed>
  <fix>3d</fix>
</trkpt>
<trkpt lat="33.8101184" lon="-118.3938676">
  <ele>-15.137</ele>
  <time>2026-09-01T01:18:16Z</time>
  <course>186.68</course>
  <speed>0.47010637094172636</speed>
  <fix>3d</fix>
</trkpt>
<trkpt lat="33.8101187" lon="-118.3938674">
  <ele>-14.78</ele>
  <time>2026-09-01T01:18:16Z</time>
  <course>179.89</course>
  <speed>0.5</speed>
  <fix>3d</fix>
</trkpt>
<trkpt lat="33.8101179" lon="-118.3938676">
  <ele>-15.138</ele>
  <time>2026-09-01T01:18:16Z</time>
  <course>186.68</course>
  <speed>0.47010637094172636</speed>
  <fix>3d</fix>
</trkpt>
<trkpt lat="33.8101187" lon="-118.3938674">
  <ele>-14.78</ele>
  <time>2026-09-01T01:18:16Z</time>
  <course>179.89</course>
  <speed>0.5</speed>
  <fix>3d</fix>
</trkpt>
<trkpt lat="33.8101175" lon="-118.3938676">
  <ele>-15.14</ele>
  <time>2026-09-01T01:18:16Z</time>
  <course>186.68</course>
  <speed>0.47010637094172636</speed>
  <fix>3d</fix>
</trkpt>
<trkpt lat="33.8101178" lon="-118.3938674">
  <ele>-14.78</ele>
  <time>2026-09-01T01:18:16Z</time>
  <course>179.92</course>
  <speed>0.5</speed>
  <fix>3d</fix>
</trkpt>
<trkpt lat="33.810117" lon="-118.3938676">
  <ele>-15.141</ele>
  <time>2026-09-01T01:18:16Z</time>
  <course>186.68</course>
  <speed>0.47010637094172636</speed>
  <fix>3d</fix>
</trkpt>
<trkpt lat="33.8101178" lon="-118.3938674">
  <ele>-14.78</ele>
  <time>2026-09-01T01:18:16Z</time>
  <course>179.92</course>
  <speed>0.5</speed>
  <fix>3d</fix>
</trkpt>
<trkpt lat="33.8101166" lon="-118.3938676">
  <ele>-15.142</ele>
  <time>2026-09-01T01:18:16Z</time>
  <course>186.68</course>
  <speed>0.47010637094172636</speed>
  <fix>3d</fix>
</trkpt>
<trkpt lat="33.8101169" lon="-118.3938674">
  <ele>-14.78</ele>
  <time>2026-09-01T01:18:16Z</time>
  <course>179.94</course>
  <speed>0.5</speed>
  <fix>3d</fix>
</trkpt>
<trkpt lat="33.8101161" lon="-118.3938676">
  <ele>-15.143</ele>
  <time>2026-09-01T01:18:16Z</time>
  <course>186.68</course>
  <speed>0.47010637094172636</speed>
  <fix>3d</fix>
</trkpt>
<trkpt lat="33.8101169" lon="-118.3938674">
  <ele>-14.78</ele>
  <time>2026-09-01T01:18:16Z</time>
  <course>179.94</course>
  <speed>0.5</speed>
  <fix>3d</fix>
</trkpt>
<trkpt lat="33.8101157" lon="-118.3938676">
  <ele>-15.143</ele>
  <time>2026-09-01T01:18:16Z</time>
  <course>186.68</course>
  <speed>0.47010637094172636</speed>
  <fix>3d</fix>
</trkpt>
<trkpt lat="33.810116" lon="-118.3938674">
  <ele>-14.79</ele>
  <time>2026-09-01T01:18:16Z</time>
  <course>179.96</course>
  <speed>0.5</speed>
  <fix>3d</fix>
</trkpt>
<trkpt lat="33.8101152" lon="-118.3938676">
  <ele>-15.143</ele>
  <time>2026-09-01T01:18:16Z</time>
  <course>186.68</course>
  <speed>0.47010637094172636</speed>
  <fix>3d</fix>
</trkpt>
<trkpt lat="33.810116" lon="-118.3938674">
  <ele>-14.79</ele>
  <time>2026-09-01T01:18:16Z</time>
  <course>179.96</course>
  <speed>0.5</speed>
  <fix>3d</fix>
</trkpt>
<trkpt lat="33.8101148" lon="-118.3938676">
  <ele>-15.142</ele>
  <time>2026-09-01T01:18:16Z</time>
  <course>186.68</course>
  <speed>0.47010637094172636</speed>
  <fix>3d</fix>
</trkpt>
<trkpt lat="33.8101151" lon="-118.3938674">
  <ele>-14.78</ele>
  <time>2026-09-01T01:18:16Z</time>
  <course>179.97</course>
  <speed>0.5</speed>
  <fix>3d</fix>
</trkpt>
<trkpt lat="33.8101143" lon="-118.3938676">
  <ele>-15.139</ele>
  <time>2026-09-01T01:18:16Z</time>
  <course>186.68</course>
  <speed>0.47010637094172636</speed>
  <fix>3d</fix>
</trkpt>
<trkpt lat="33.8101151" lon="-118.3938674">
  <ele>-14.78</ele>
  <time>2026-09-01T01:18:16Z</time>
  <course>179.97</course>
  <speed>0.5</speed>
  <fix>3d</fix>
</trkpt>
<trkpt lat="33.8101139" lon="-118.3938676">
  <ele>-15.137</ele>
  <time>2026-09-01T01:18:16Z</time>
  <course>186.68</course>
  <speed>0.47010637094172636</speed>
  <fix>3d</fix>
</trkpt>
<trkpt lat="33.8101142" lon="-118.3938674">
  <ele>-14.78</ele>
  <time>2026-09-01T01:18:16Z</time>
  <course>179.98</course>
  <speed>0.5</speed>
  <fix>3d</fix>
</trkpt>
<trkpt lat="33.8101134" lon="-118.3938676">
  <ele>-15.135</ele>
  <time>2026-09-01T01:18:16Z</time>
  <course>186.68</course>
  <speed>0.47010637094172636</speed>
  <fix>3d</fix>
</trkpt>
<trkpt lat="33.8101142" lon="-118.3938674">
  <ele>-14.78</ele>
  <time>2026-09-01T01:18:16Z</time>
  <course>179.98</course>
  <speed>0.5</speed>
  <fix>3d</fix>
</trkpt>
<trkpt lat="33.810113" lon="-118.3938676">
  <ele>-15.133</ele>
  <time>2026-09-01T01:18:16Z</time>
  <course>186.68</course>
  <speed>0.47010637094172636</speed>
  <fix>3d</fix>
</trkpt>
<trkpt lat="33.8101133" lon="-118.3938674">
  <ele>-14.77</ele>
  <time>2026-09-01T01:18:16Z</time>
  <course>179.98</course>
  <speed>0.5</speed>
  <fix>3d</fix>
</trkpt>
<trkpt lat="33.8101125" lon="-118.3938676">
  <ele>-15.131</ele>
  <time>2026-09-01T01:18:16Z</time>
  <course>186.67</course>
  <speed>0.47010637094172636</speed>
  <fix>3d</fix>
</trkpt>
<trkpt lat="33.8101133" lon="-118.3938674">
  <ele>-14.77</ele>
  <time>2026-09-01T01:18:16Z</time>
  <course>179.98</course>
  <speed>0.5</speed>
  <fix>3d</fix>
</trkpt>
<trkpt lat="33.8101121" lon="-118.3938676">
  <ele>-15.129</ele>
  <time>2026-09-01T01:18:16Z</time>
  <course>186.67</course>
  <speed>0.47010637094172636</speed>
  <fix>3d</fix>
</trkpt>
<trkpt lat="33.8101124" lon="-118.3938674">
  <ele>-14.77</ele>
  <time>2026-09-01T01:18:16Z</time>
  <course>179.99</course>
  <speed>0.5</speed>
  <fix>3d</fix>
</trkpt>
<trkpt lat="33.8101116" lon="-118.3938676">
  <ele>-15.128</ele>
  <time>2026-09-01T01:18:16Z</time>
  <course>186.67</course>
  <speed>0.47010637094172636</speed>
  <fix>3d</fix>
</trkpt>
<trkpt lat="33.8101124" lon="-118.3938674">
  <ele>-14.77</ele>
  <time>2026-09-01T01:18:16Z</time>
  <course>179.99</course>
  <speed>0.5</speed>
  <fix>3d</fix>
</trkpt>
<trkpt lat="33.8101112" lon="-118.3938676">
  <ele>-15.127</ele>
  <time>2026-09-01T01:18:16Z</time>
  <course>186.67</course>
  <speed>0.47010637094172636</speed>
  <fix>3d</fix>
</trkpt>
<trkpt lat="33.8101115" lon="-118.3938674">
  <ele>-14.77</ele>
  <time>2026-09-01T01:18:16Z</time>
  <course>179.99</course>
  <speed>0.5</speed>
  <fix>3d</fix>
</trkpt>
<trkpt lat="33.8101107" lon="-118.3938676">
  <ele>-15.125</ele>
  <time>2026-09-01T01:18:16Z</time>
  <course>186.67</course>
  <speed>0.47010637094172636</speed>
  <fix>3d</fix>
</trkpt>
<trkpt lat="33.8101115" lon="-118.3938674">
  <ele>-14.77</ele>
  <time>2026-09-01T01:18:16Z</time>
  <course>179.99</course>
  <speed>0.5</speed>
  <fix>3d</fix>
</trkpt>
<trkpt lat="33.8101103" lon="-118.3938676">
  <ele>-15.124</ele>
  <time>2026-09-01T01:18:16Z</time>
  <course>186.67</course>
  <speed>0.47010637094172636</speed>
  <fix>3d</fix>
</trkpt>
<trkpt lat="33.8101106" lon="-118.3938674">
  <ele>-14.77</ele>
  <time>2026-09-01T01:18:16Z</time>
  <course>180.0</course>
  <speed>0.5</speed>
  <fix>3d</fix>
</trkpt>
<trkpt lat="33.8101098" lon="-118.3938676">
  <ele>-15.123</ele>
  <time>2026-09-01T01:18:16Z</time>
  <course>186.67</course>
  <speed>0.47010637094172636</speed>
  <fix>3d</fix>
</trkpt>
<trkpt lat="33.8101106" lon="-118.3938674">
  <ele>-14.77</ele>
  <time>2026-09-01T01:18:16Z</time>
  <course>180.0</course>
  <speed>0.5</speed>
  <fix>3d</fix>
</trkpt>
<trkpt lat="33.8101094" lon="-118.3938676">
  <ele>-15.123</ele>
  <time>2026-09-01T01:18:16Z</time>
  <course>186.67</course>
  <speed>0.47010637094172636</speed>
  <fix>3d</fix>
</trkpt>
<trkpt lat="33.8101097" lon="-118.3938674">
  <ele>-14.77</ele>
  <time>2026-09-01T01:18:16Z</time>
  <course>180.0</course>
  <speed>0.5</speed>
  <fix>3d</fix>
</trkpt>
<trkpt lat="33.8101089" lon="-118.3938676">
  <ele>-15.124</ele>
  <time>2026-09-01T01:18:16Z</time>
  <course>186.67</course>
  <speed>0.47010637094172636</speed>
  <fix>3d</fix>
</trkpt>
<trkpt lat="33.8101097" lon="-118.3938674">
  <ele>-14.77</ele>
  <time>2026-09-01T01:18:16Z</time>
  <course>180.0</course>
  <speed>0.5</speed>
  <fix>3d</fix>
</trkpt>
<trkpt lat="33.8101085" lon="-118.3938676">
  <ele>-15.126</ele>
  <time>2026-09-01T01:18:16Z</time>
  <course>186.67</course>
  <speed>0.47010637094172636</speed>
  <fix>3d</fix>
</trkpt>
<trkpt lat="33.8101088" lon="-118.3938674">
  <ele>-14.77</ele>
  <time>2026-09-01T01:18:16Z</time>
  <course>180.0</course>
  <speed>0.5</speed>
  <fix>3d</fix>
</trkpt>
<trkpt lat="33.810108" lon="-118.3938676">
  <ele>-15.126</ele>
  <time>2026-09-01T01:18:16Z</time>
  <course>186.67</course>
  <speed>0.47010637094172636</speed>
  <fix>3d</fix>
</trkpt>
<trkpt lat="33.8101088" lon="-118.3938674">
  <ele>-14.77</ele>
  <time>2026-09-01T01:18:16Z</time>
  <course>180.0</course>
  <speed>0.5</speed>
  <fix>3d</fix>
</trkpt>
<trkpt lat="33.8101076" lon="-118.3938676">
  <ele>-15.125</ele>
  <time>2026-09-01T01:18:16Z</time>
  <course>186.67</course>
  <speed>0.47010637094172636</speed>
  <fix>3d</fix>
</trkpt>
<trkpt lat="33.8101079" lon="-118.3938674">
  <ele>-14.77</ele>
  <time>2026-09-01T01:18:16Z</time>
  <course>180.02</course>
  <speed>0.5</speed>
  <fix>3d</fix>
</trkpt>
<trkpt lat="33.8101071" lon="-118.3938676">
  <ele>-15.124</ele>
  <time>2026-09-01T01:18:16Z</time>
  <course>186.67</course>
  <speed>0.47010637094172636</speed>
  <fix>3d</fix>
</trkpt>
<trkpt lat="33.8101079" lon="-118.3938674">
  <ele>-14.77</ele>
  <time>2026-09-01T01:18:16Z</time>
  <course>180.02</course>
  <speed>0.5</speed>
  <fix>3d</fix>
</trkpt>
<trkpt lat="33.8101067" lon="-118.3938676">
  <ele>-15.123</ele>
  <time>2026-09-01T01:18:16Z</time>
  <course>186.67</course>
  <speed>0.47010637094172636</speed>
  <fix>3d</fix>
</trkpt>
<trkpt lat="33.810107" lon="-118.3938674">
  <ele>-14.77</ele>
  <time>2026-09-01T01:18:16Z</time>
  <course>180.03</course>
  <speed>0.5</speed>
  <fix>3d</fix>
</trkpt>
<trkpt lat="33.8101062" lon="-118.3938676">
  <ele>-15.122</ele>
  <time>2026-09-01T01:18:16Z</time>
  <course>186.67</course>
  <speed>0.47010637094172636</speed>
  <fix>3d</fix>
</trkpt>
<trkpt lat="33.810107" lon="-118.3938674">
  <ele>-14.77</ele>
  <time>2026-09-01T01:18:16Z</time>
  <course>180.03</course>
  <speed>0.5</speed>
  <fix>3d</fix>
</trkpt>
<trkpt lat="33.8101058" lon="-118.3938676">
  <ele>-15.122</ele>
  <time>2026-09-01T01:18:16Z</time>
  <course>186.67</course>
  <speed>0.47010637094172636</speed>
  <fix>3d</fix>
</trkpt>
<trkpt lat="33.8101061" lon="-118.3938674">
  <ele>-14.77</ele>
  <time>2026-09-01T01:18:16Z</time>
  <course>180.03</course>
  <speed>0.5</speed>
  <fix>3d</fix>
</trkpt>
<trkpt lat="33.8101053" lon="-118.3938676">
  <ele>-15.122</ele>
  <time>2026-09-01T01:18:16Z</time>
  <course>186.67</course>
  <speed>0.47010637094172636</speed>
  <fix>3d</fix>
</trkpt>
<trkpt lat="33.8101061" lon="-118.3938674">
  <ele>-14.77</ele>
  <time>2026-09-01T01:18:16Z</time>
  <course>180.03</course>
  <speed>0.5</speed>
  <fix>3d</fix>
</trkpt>
<trkpt lat="33.8101049" lon="-118.3938676">
  <ele>-15.122</ele>
  <time>2026-09-01T01:18:16Z</time>
  <course>186.67</course>
  <speed>0.47010637094172636</speed>
  <fix>3d</fix>
</trkpt>
<trkpt lat="33.8101052" lon="-118.3938674">
  <ele>-14.77</ele>
  <time>2026-09-01T01:18:16Z</time>
  <course>180.02</course>
  <speed>0.5</speed>
  <fix>3d</fix>
</trkpt>
<trkpt lat="33.8101044" lon="-118.3938676">
  <ele>-15.121</ele>
  <time>2026-09-01T01:18:16Z</time>
  <course>186.67</course>
  <speed>0.47010637094172636</speed>
  <fix>3d</fix>
</trkpt>
<trkpt lat="33.8101052" lon="-118.3938674">
  <ele>-14.77</ele>
  <time>2026-09-01T01:18:16Z</time>
  <course>180.02</course>
  <speed>0.5</speed>
  <fix>3d</fix>
</trkpt>
<trkpt lat="33.810104" lon="-118.3938676">
  <ele>-15.121</ele>
  <time>2026-09-01T01:18:16Z</time>
  <course>186.67</course>
  <speed>0.47010637094172636</speed>
  <fix>3d</fix>
</trkpt>
<trkpt lat="33.8101043" lon="-118.3938674">
  <ele>-14.77</ele>
  <time>2026-09-01T01:18:16Z</time>
  <course>180.03</course>
  <speed>0.5</speed>
  <fix>3d</fix>
</trkpt>
<trkpt lat="33.8101035" lon="-118.3938676">
  <ele>-15.121</ele>
  <time>2026-09-01T01:18:16Z</time>
  <course>186.67</course>
  <speed>0.47010637094172636</speed>
  <fix>3d</fix>
</trkpt>
<trkpt lat="33.8101043" lon="-118.3938674">
  <ele>-14.77</ele>
  <time>2026-09-01T01:18:16Z</time>
  <course>180.03</course>
  <speed>0.5</speed>
  <fix>3d</fix>
</trkpt>
<trkpt lat="33.8101031" lon="-118.3938676">
  <ele>-15.12</ele>
  <time>2026-09-01T01:18:16Z</time>
  <course>186.67</course>
  <speed>0.47010637094172636</speed>
  <fix>3d</fix>
</trkpt>
<trkpt lat="33.8101034" lon="-118.3938674">
  <ele>-14.77</ele>
  <time>2026-09-01T01:18:16Z</time>
  <course>180.03</course>
  <speed>0.5</speed>
  <fix>3d</fix>
</trkpt>
<trkpt lat="33.8101026" lon="-118.3938676">
  <ele>-15.119</ele>
  <time>2026-09-01T01:18:16Z</time>
  <course>186.67</course>
  <speed>0.47010637094172636</speed>
  <fix>3d</fix>
</trkpt>
<trkpt lat="33.8101034" lon="-118.3938674">
  <ele>-14.77</ele>
  <time>2026-09-01T01:18:16Z</time>
  <course>180.03</course>
  <speed>0.5</speed>
  <fix>3d</fix>
</trkpt>
<trkpt lat="33.8101022" lon="-118.3938676">
  <ele>-15.119</ele>
  <time>2026-09-01T01:18:16Z</time>
  <course>186.67</course>
  <speed>0.47010637094172636</speed>
  <fix>3d</fix>
</trkpt>
<trkpt lat="33.8101025" lon="-118.3938674">
  <ele>-14.76</ele>
  <time>2026-09-01T01:18:16Z</time>
  <course>180.04</course>
  <speed>0.5</speed>
  <fix>3d</fix>
</trkpt>
<trkpt lat="33.8101017" lon="-118.3938676">
  <ele>-15.119</ele>
  <time>2026-09-01T01:18:16Z</time>
  <course>186.67</course>
  <speed>0.47010637094172636</speed>
  <fix>3d</fix>
</trkpt>
<trkpt lat="33.8101025" lon="-118.3938674">
  <ele>-14.76</ele>
  <time>2026-09-01T01:18:16Z</time>
  <course>180.04</course>
  <speed>0.5</speed>
  <fix>3d</fix>
</trkpt>
<trkpt lat="33.8101013" lon="-118.3938676">
  <ele>-15.119</ele>
  <time>2026-09-01T01:18:16Z</time>
  <course>186.67</course>
  <speed>0.47010637094172636</speed>
  <fix>3d</fix>
</trkpt>
<trkpt lat="33.8101016" lon="-118.3938674">
  <ele>-14.76</ele>
  <time>2026-09-01T01:18:16Z</time>
  <course>180.03</course>
  <speed>0.5</speed>
  <fix>3d</fix>
</trkpt>
<trkpt lat="33.8101008" lon="-118.3938676">
  <ele>-15.117</ele>
  <time>2026-09-01T01:18:16Z</time>
  <course>186.67</course>
  <speed>0.47010637094172636</speed>
  <fix>3d</fix>
</trkpt>
<trkpt lat="33.8101016" lon="-118.3938674">
  <ele>-14.76</ele>
  <time>2026-09-01T01:18:16Z</time>
  <course>180.03</course>
  <speed>0.5</speed>
  <fix>3d</fix>
</trkpt>
<trkpt lat="33.8101004" lon="-118.3938676">
  <ele>-15.116</ele>
  <time>2026-09-01T01:18:16Z</time>
  <course>186.67</course>
  <speed>0.47010637094172636</speed>
  <fix>3d</fix>
</trkpt>
<trkpt lat="33.8101007" lon="-118.3938674">
  <ele>-14.76</ele>
  <time>2026-09-01T01:18:16Z</time>
  <course>180.04</course>
  <speed>0.5</speed>
  <fix>3d</fix>
</trkpt>
<trkpt lat="33.8100999" lon="-118.3938676">
  <ele>-15.114</ele>
  <time>2026-09-01T01:18:16Z</time>
  <course>186.67</course>
  <speed>0.47010637094172636</speed>
  <fix>3d</fix>
</trkpt>
<trkpt lat="33.8101007" lon="-118.3938674">
  <ele>-14.76</ele>
  <time>2026-09-01T01:18:16Z</time>
  <course>180.04</course>
  <speed>0.5</speed>
  <fix>3d</fix>
</trkpt>
<trkpt lat="33.8100995" lon="-118.3938676">
  <ele>-15.112</ele>
  <time>2026-09-01T01:18:16Z</time>
  <course>186.67</course>
  <speed>0.47010637094172636</speed>
  <fix>3d</fix>
</trkpt>
<trkpt lat="33.8100998" lon="-118.3938674">
  <ele>-14.75</ele>
  <time>2026-09-01T01:18:16Z</time>
  <course>180.05</course>
  <speed>0.49</speed>
  <fix>3d</fix>
</trkpt>
<trkpt lat="33.810099" lon="-118.3938676">
  <ele>-15.11</ele>
  <time>2026-09-01T01:18:16Z</time>
  <course>186.67</course>
  <speed>0.47010637094172636</speed>
  <fix>3d</fix>
</trkpt>
<trkpt lat="33.8100998" lon="-118.3938674">
  <ele>-14.75</ele>
  <time>2026-09-01T01:18:16Z</time>
  <course>180.05</course>
  <speed>0.49</speed>
  <fix>3d</fix>
</trkpt>
<trkpt lat="33.8100986" lon="-118.3938676">
  <ele>-15.107</ele>
  <time>2026-09-01T01:18:16Z</time>
  <course>186.67</course>
  <speed>0.47010637094172636</speed>
  <fix>3d</fix>
</trkpt>
<trkpt lat="33.8100989" lon="-118.3938674">
  <ele>-14.75</ele>
  <time>2026-09-01T01:18:16Z</time>
  <course>180.07</course>
  <speed>0.49</speed>
  <fix>3d</fix>
</trkpt>
<trkpt lat="33.8100981" lon="-118.3938676">
  <ele>-15.105</ele>
  <time>2026-09-01T01:18:16Z</time>
  <course>186.67</course>
  <speed>0.47010637094172636</speed>
  <fix>3d</fix>
</trkpt>
<trkpt lat="33.8100989" lon="-118.3938674">
  <ele>-14.75</ele>
  <time>2026-09-01T01:18:16Z</time>
  <course>180.07</course>
  <speed>0.49</speed>
  <fix>3d</fix>
</trkpt>
<trkpt lat="33.8100977" lon="-118.3938676">
  <ele>-15.104</ele>
  <time>2026-09-01T01:18:16Z</time>
  <course>186.67</course>
  <speed>0.47010637094172636</speed>
  <fix>3d</fix>
</trkpt>
<trkpt lat="33.810098" lon="-118.3938674">
  <ele>-14.75</ele>
  <time>2026-09-01T01:18:16Z</time>
  <course>180.07</course>
  <speed>0.49</speed>
  <fix>3d</fix>
</trkpt>
<trkpt lat="33.8100972" lon="-118.3938676">
  <ele>-15.105</ele>
  <time>2026-09-01T01:18:16Z</time>
  <course>186.67</course>
  <speed>0.47010637094172636</speed>
  <fix>3d</fix>
</trkpt>
<trkpt lat="33.810098" lon="-118.3938674">
  <ele>-14.75</ele>
  <time>2026-09-01T01:18:16Z</time>
  <course>180.07</course>
  <speed>0.49</speed>
  <fix>3d</fix>
</trkpt>
<trkpt lat="33.8100968" lon="-118.3938676">
  <ele>-15.105</ele>
  <time>2026-09-01T01:18:16Z</time>
  <course>186.67</course>
  <speed>0.47010637094172636</speed>
  <fix>3d</fix>
</trkpt>
<trkpt lat="33.8100971" lon="-118.3938674">
  <ele>-14.75</ele>
  <time>2026-09-01T01:18:16Z</time>
  <course>180.1</course>
  <speed>0.49</speed>
  <fix>3d</fix>
</trkpt>
<trkpt lat="33.8100963" lon="-118.3938676">
  <ele>-15.106</ele>
  <time>2026-09-01T01:18:16Z</time>
  <course>186.67</course>
  <speed>0.47010637094172636</speed>
  <fix>3d</fix>
</trkpt>
<trkpt lat="33.8100971" lon="-118.3938674">
  <ele>-14.75</ele>
  <time>2026-09-01T01:18:16Z</time>
  <course>180.1</course>
  <speed>0.49</speed>
  <fix>3d</fix>
</trkpt>
<trkpt lat="33.8100959" lon="-118.3938676">
  <ele>-15.107</ele>
  <time>2026-09-01T01:18:16Z</time>
  <course>186.67</course>
  <speed>0.47010637094172636</speed>
  <fix>3d</fix>
</trkpt>
<trkpt lat="33.8100962" lon="-118.3938674">
  <ele>-14.75</ele>
  <time>2026-09-01T01:18:16Z</time>
  <course>180.12</course>
  <speed>0.49</speed>
  <fix>3d</fix>
</trkpt>
<trkpt lat="33.8100954" lon="-118.3938676">
  <ele>-15.107</ele>
  <time>2026-09-01T01:18:16Z</time>
  <course>186.67</course>
  <speed>0.47010637094172636</speed>
  <fix>3d</fix>
</trkpt>
<trkpt lat="33.8100962" lon="-118.3938674">
  <ele>-14.75</ele>
  <time>2026-09-01T01:18:16Z</time>
  <course>180.12</course>
  <speed>0.49</speed>
  <fix>3d</fix>
</trkpt>
<trkpt lat="33.810095" lon="-118.3938676">
  <ele>-15.107</ele>
  <time>2026-09-01T01:18:16Z</time>
  <course>186.67</course>
  <speed>0.47010637094172636</speed>
  <fix>3d</fix>
</trkpt>
<trkpt lat="33.8100953" lon="-118.3938674">
  <ele>-14.75</ele>
  <time>2026-09-01T01:18:16Z</time>
  <course>180.12</course>
  <speed>0.49</speed>
  <fix>3d</fix>
</trkpt>
<trkpt lat="33.8100945" lon="-118.3938676">
  <ele>-15.107</ele>
  <time>2026-09-01T01:18:16Z</time>
  <course>186.67</course>
  <speed>0.47010637094172636</speed>
  <fix>3d</fix>
</trkpt>
<trkpt lat="33.8100953" lon="-118.3938674">
  <ele>-14.75</ele>
  <time>2026-09-01T01:18:16Z</time>
  <course>180.12</course>
  <speed>0.49</speed>
  <fix>3d</fix>
</trkpt>
<trkpt lat="33.8100941" lon="-118.3938676">
  <ele>-15.106</ele>
  <time>2026-09-01T01:18:16Z</time>
  <course>186.67</course>
  <speed>0.47010637094172636</speed>
  <fix>3d</fix>
</trkpt>
<trkpt lat="33.8100944" lon="-118.3938674">
  <ele>-14.74</ele>
  <time>2026-09-01T01:18:16Z</time>
  <course>180.1</course>
  <speed>0.49</speed>
  <fix>3d</fix>
</trkpt>
<trkpt lat="33.8100936" lon="-118.3938676">
  <ele>-15.105</ele>
  <time>2026-09-01T01:18:16Z</time>
  <course>186.67</course>
  <speed>0.47010637094172636</speed>
  <fix>3d</fix>
</trkpt>
<trkpt lat="33.8100944" lon="-118.3938674">
  <ele>-14.74</ele>
  <time>2026-09-01T01:18:16Z</time>
  <course>180.1</course>
  <speed>0.49</speed>
  <fix>3d</fix>
</trkpt>
<trkpt lat="33.8100932" lon="-118.3938676">
  <ele>-15.103</ele>
  <time>2026-09-01T01:18:16Z</time>
  <course>186.67</course>
  <speed>0.47010637094172636</speed>
  <fix>3d</fix>
</trkpt>
<trkpt lat="33.8100935" lon="-118.3938674">
  <ele>-14.74</ele>
  <time>2026-09-01T01:18:16Z</time>
  <course>180.09</course>
  <speed>0.49</speed>
  <fix>3d</fix>
</trkpt>
<trkpt lat="33.8100927" lon="-118.3938676">
  <ele>-15.101</ele>
  <time>2026-09-01T01:18:16Z</time>
  <course>186.67</course>
  <speed>0.47010637094172636</speed>
  <fix>3d</fix>
</trkpt>
<trkpt lat="33.8100935" lon="-118.3938674">
  <ele>-14.74</ele>
  <time>2026-09-01T01:18:16Z</time>
  <course>180.09</course>
  <speed>0.49</speed>
  <fix>3d</fix>
</trkpt>
<trkpt lat="33.8100923" lon="-118.3938676">
  <ele>-15.099</ele>
  <time>2026-09-01T01:18:16Z</time>
  <course>186.67</course>
  <speed>0.47010637094172636</speed>
  <fix>3d</fix>
</trkpt>
<trkpt lat="33.8100926" lon="-118.3938674">
  <ele>-14.73</ele>
  <time>2026-09-01T01:18:16Z</time>
  <course>180.09</course>
  <speed>0.49</speed>
  <fix>3d</fix>
</trkpt>
<trkpt lat="33.8100918" lon="-118.3938676">
  <ele>-15.096</ele>
  <time>2026-09-01T01:18:16Z</time>
  <course>186.67</course>
  <speed>0.47010637094172636</speed>
  <fix>3d</fix>
</trkpt>
<trkpt lat="33.8100926" lon="-118.3938674">
  <ele>-14.73</ele>
  <time>2026-09-01T01:18:16Z</time>
  <course>180.09</course>
  <speed>0.49</speed>
  <fix>3d</fix>
</trkpt>
<trkpt lat="33.8100914" lon="-118.3938676">
  <ele>-15.094</ele>
  <time>2026-09-01T01:18:17Z</time>
  <course>186.67</course>
  <speed>0.47010637094172636</speed>
  <fix>3d</fix>
</trkpt>
<trkpt lat="33.8100917" lon="-118.3938674">
  <ele>-14.73</ele>
  <time>2026-09-01T01:18:17Z</time>
  <course>180.1</course>
  <speed>0.49</speed>
  <fix>3d</fix>
</trkpt>
<trkpt lat="33.8100909" lon="-118.3938676">
  <ele>-15.093</ele>
  <time>2026-09-01T01:18:17Z</time>
  <course>186.67</course>
  <speed>0.47010637094172636</speed>
  <fix>3d</fix>
</trkpt>
<trkpt lat="33.8100917" lon="-118.3938674">
  <ele>-14.73</ele>
  <time>2026-09-01T01:18:17Z</time>
  <course>180.1</course>
  <speed>0.49</speed>
  <fix>3d</fix>
</trkpt>
<trkpt lat="33.8100905" lon="-118.3938676">
  <ele>-15.092</ele>
  <time>2026-09-01T01:18:17Z</time>
  <course>186.67</course>
  <speed>0.47010637094172636</speed>
  <fix>3d</fix>
</trkpt>
<trkpt lat="33.8100908" lon="-118.3938674">
  <ele>-14.73</ele>
  <time>2026-09-01T01:18:17Z</time>
  <course>180.12</course>
  <speed>0.49</speed>
  <fix>3d</fix>
</trkpt>
<trkpt lat="33.81009" lon="-118.3938676">
  <ele>-15.091</ele>
  <time>2026-09-01T01:18:17Z</time>
  <course>186.67</course>
  <speed>0.47010637094172636</speed>
  <fix>3d</fix>
</trkpt>
<trkpt lat="33.8100908" lon="-118.3938674">
  <ele>-14.73</ele>
  <time>2026-09-01T01:18:17Z</time>
  <course>180.12</course>
  <speed>0.49</speed>
  <fix>3d</fix>
</trkpt>
<trkpt lat="33.8100896" lon="-118.3938676">
  <ele>-15.091</ele>
  <time>2026-09-01T01:18:17Z</time>
  <course>186.66</course>
  <speed>0.47010637094172636</speed>
  <fix>3d</fix>
</trkpt>
<trkpt lat="33.8100899" lon="-118.3938674">
  <ele>-14.73</ele>
  <time>2026-09-01T01:18:17Z</time>
  <course>180.13</course>
  <speed>0.49</speed>
  <fix>3d</fix>
</trkpt>
<trkpt lat="33.8100891" lon="-118.3938676">
  <ele>-15.091</ele>
  <time>2026-09-01T01:18:17Z</time>
  <course>186.66</course>
  <speed>0.47010637094172636</speed>
  <fix>3d</fix>
</trkpt>
<trkpt lat="33.8100899" lon="-118.3938674">
  <ele>-14.73</ele>
  <time>2026-09-01T01:18:17Z</time>
  <course>180.13</course>
  <speed>0.49</speed>
  <fix>3d</fix>
</trkpt>
<trkpt lat="33.8100887" lon="-118.3938676">
  <ele>-15.091</ele>
  <time>2026-09-01T01:18:17Z</time>
  <course>186.66</course>
  <speed>0.47010637094172636</speed>
  <fix>3d</fix>
</trkpt>
<trkpt lat="33.810089" lon="-118.3938674">
  <ele>-14.73</ele>
  <time>2026-09-01T01:18:17Z</time>
  <course>180.14</course>
  <speed>0.49</speed>
  <fix>3d</fix>
</trkpt>
<trkpt lat="33.8100883" lon="-118.3938676">
  <ele>-15.09</ele>
  <time>2026-09-01T01:18:17Z</time>
  <course>186.66</course>
  <speed>0.47010637094172636</speed>
  <fix>3d</fix>
</trkpt>
<trkpt lat="33.810089" lon="-118.3938674">
  <ele>-14.73</ele>
  <time>2026-09-01T01:18:17Z</time>
  <course>180.14</course>
  <speed>0.49</speed>
  <fix>3d</fix>
</trkpt>
<trkpt lat="33.8100878" lon="-118.3938676">
  <ele>-15.088</ele>
  <time>2026-09-01T01:18:17Z</time>
  <course>186.66</course>
  <speed>0.47010637094172636</speed>
  <fix>3d</fix>
</trkpt>
<trkpt lat="33.8100881" lon="-118.3938674">
  <ele>-14.73</ele>
  <time>2026-09-01T01:18:17Z</time>
  <course>180.15</course>
  <speed>0.49</speed>
  <fix>3d</fix>
</trkpt>
<trkpt lat="33.8100874" lon="-118.3938676">
  <ele>-15.087</ele>
  <time>2026-09-01T01:18:17Z</time>
  <course>186.67</course>
  <speed>0.47010637094172636</speed>
  <fix>3d</fix>
</trkpt>
<trkpt lat="33.8100881" lon="-118.3938674">
  <ele>-14.73</ele>
  <time>2026-09-01T01:18:17Z</time>
  <course>180.15</course>
  <speed>0.49</speed>
  <fix>3d</fix>
</trkpt>
<trkpt lat="33.8100869" lon="-118.3938676">
  <ele>-15.086</ele>
  <time>2026-09-01T01:18:17Z</time>
  <course>186.67</course>
  <speed>0.47010637094172636</speed>
  <fix>3d</fix>
</trkpt>
<trkpt lat="33.8100872" lon="-118.3938674">
  <ele>-14.73</ele>
  <time>2026-09-01T01:18:17Z</time>
  <course>180.14</course>
  <speed>0.49</speed>
  <fix>3d</fix>
</trkpt>
<trkpt lat="33.8100865" lon="-118.3938676">
  <ele>-15.086</ele>
  <time>2026-09-01T01:18:17Z</time>
  <course>186.67</course>
  <speed>0.47010637094172636</speed>
  <fix>3d</fix>
</trkpt>
<trkpt lat="33.8100872" lon="-118.3938674">
  <ele>-14.73</ele>
  <time>2026-09-01T01:18:17Z</time>
  <course>180.14</course>
  <speed>0.49</speed>
  <fix>3d</fix>
</trkpt>
<trkpt lat="33.810086" lon="-118.3938676">
  <ele>-15.087</ele>
  <time>2026-09-01T01:18:17Z</time>
  <course>186.67</course>
  <speed>0.47010637094172636</speed>
  <fix>3d</fix>
</trkpt>
<trkpt lat="33.8100863" lon="-118.3938674">
  <ele>-14.73</ele>
  <time>2026-09-01T01:18:17Z</time>
  <course>180.14</course>
  <speed>0.49</speed>
  <fix>3d</fix>
</trkpt>
<trkpt lat="33.8100856" lon="-118.3938676">
  <ele>-15.088</ele>
  <time>2026-09-01T01:18:17Z</time>
  <course>186.67</course>
  <speed>0.47010637094172636</speed>
  <fix>3d</fix>
</trkpt>
<trkpt lat="33.8100863" lon="-118.3938674">
  <ele>-14.73</ele>
  <time>2026-09-01T01:18:17Z</time>
  <course>180.14</course>
  <speed>0.49</speed>
  <fix>3d</fix>
</trkpt>
<trkpt lat="33.8100851" lon="-118.3938676">
  <ele>-15.09</ele>
  <time>2026-09-01T01:18:17Z</time>
  <course>186.67</course>
  <speed>0.47010637094172636</speed>
  <fix>3d</fix>
</trkpt>
<trkpt lat="33.8100854" lon="-118.3938674">
  <ele>-14.73</ele>
  <time>2026-09-01T01:18:17Z</time>
  <course>180.13</course>
  <speed>0.49</speed>
  <fix>3d</fix>
</trkpt>
<trkpt lat="33.8100847" lon="-118.3938676">
  <ele>-15.092</ele>
  <time>2026-09-01T01:18:17Z</time>
  <course>186.67</course>
  <speed>0.47010637094172636</speed>
  <fix>3d</fix>
</trkpt>
<trkpt lat="33.8100854" lon="-118.3938674">
  <ele>-14.73</ele>
  <time>2026-09-01T01:18:17Z</time>
  <course>180.13</course>
  <speed>0.49</speed>
  <fix>3d</fix>
</trkpt>
<trkpt lat="33.8100842" lon="-118.3938676">
  <ele>-15.094</ele>
  <time>2026-09-01T01:18:17Z</time>
  <course>186.67</course>
  <speed>0.47010637094172636</speed>
  <fix>3d</fix>
</trkpt>
<trkpt lat="33.8100845" lon="-118.3938674">
  <ele>-14.74</ele>
  <time>2026-09-01T01:18:17Z</time>
  <course>180.12</course>
  <speed>0.49</speed>
  <fix>3d</fix>
</trkpt>
<trkpt lat="33.8100838" lon="-118.3938676">
  <ele>-15.094</ele>
  <time>2026-09-01T01:18:17Z</time>
  <course>186.67</course>
  <speed>0.47010637094172636</speed>
  <fix>3d</fix>
</trkpt>
<trkpt lat="33.8100845" lon="-118.3938674">
  <ele>-14.74</ele>
  <time>2026-09-01T01:18:17Z</time>
  <course>180.12</course>
  <speed>0.49</speed>
  <fix>3d</fix>
</trkpt>
<trkpt lat="33.8100833" lon="-118.3938676">
  <ele>-15.093</ele>
  <time>2026-09-01T01:18:17Z</time>
  <course>186.67</course>
  <speed>0.47010637094172636</speed>
  <fix>3d</fix>
</trkpt>
<trkpt lat="33.8100836" lon="-118.3938674">
  <ele>-14.73</ele>
  <time>2026-09-01T01:18:17Z</time>
  <course>180.11</course>
  <speed>0.49</speed>
  <fix>3d</fix>
</trkpt>
<trkpt lat="33.8100829" lon="-118.3938676">
  <ele>-15.091</ele>
  <time>2026-09-01T01:18:17Z</time>
  <course>186.67</course>
  <speed>0.47010637094172636</speed>
  <fix>3d</fix>
</trkpt>
<trkpt lat="33.8100836" lon="-118.3938674">
  <ele>-14.73</ele>
  <time>2026-09-01T01:18:17Z</time>
  <course>180.11</course>
  <speed>0.49</speed>
  <fix>3d</fix>
</trkpt>
<trkpt lat="33.8100824" lon="-118.3938676">
  <ele>-15.089</ele>
  <time>2026-09-01T01:18:17Z</time>
  <course>186.67</course>
  <speed>0.47010637094172636</speed>
  <fix>3d</fix>
</trkpt>
<trkpt lat="33.8100828" lon="-118.3938674">
  <ele>-14.73</ele>
  <time>2026-09-01T01:18:17Z</time>
  <course>180.11</course>
  <speed>0.49</speed>
  <fix>3d</fix>
</trkpt>
<trkpt lat="33.810082" lon="-118.3938676">
  <ele>-15.085</ele>
  <time>2026-09-01T01:18:17Z</time>
  <course>186.66</course>
  <speed>0.47010637094172636</speed>
  <fix>3d</fix>
</trkpt>
<trkpt lat="33.8100828" lon="-118.3938674">
  <ele>-14.73</ele>
  <time>2026-09-01T01:18:17Z</time>
  <course>180.11</course>
  <speed>0.49</speed>
  <fix>3d</fix>
</trkpt>
<trkpt lat="33.8100815" lon="-118.3938676">
  <ele>-15.081</ele>
  <time>2026-09-01T01:18:17Z</time>
  <course>186.66</course>
  <speed>0.47010637094172636</speed>
  <fix>3d</fix>
</trkpt>
<trkpt lat="33.8100819" lon="-118.3938674">
  <ele>-14.72</ele>
  <time>2026-09-01T01:18:17Z</time>
  <course>180.11</course>
  <speed>0.49</speed>
  <fix>3d</fix>
</trkpt>
<trkpt lat="33.8100811" lon="-118.3938676">
  <ele>-15.077</ele>
  <time>2026-09-01T01:18:17Z</time>
  <course>186.66</course>
  <speed>0.47010637094172636</speed>
  <fix>3d</fix>
</trkpt>
<trkpt lat="33.8100819" lon="-118.3938674">
  <ele>-14.72</ele>
  <time>2026-09-01T01:18:17Z</time>
  <course>180.11</course>
  <speed>0.49</speed>
  <fix>3d</fix>
</trkpt>
<trkpt lat="33.8100806" lon="-118.3938676">
  <ele>-15.073</ele>
  <time>2026-09-01T01:18:17Z</time>
  <course>186.67</course>
  <speed>0.47010637094172636</speed>
  <fix>3d</fix>
</trkpt>
<trkpt lat="33.810081" lon="-118.3938674">
  <ele>-14.72</ele>
  <time>2026-09-01T01:18:17Z</time>
  <course>180.11</course>
  <speed>0.49</speed>
  <fix>3d</fix>
</trkpt>
<trkpt lat="33.8100802" lon="-118.3938676">
  <ele>-15.071</ele>
  <time>2026-09-01T01:18:17Z</time>
  <course>186.67</course>
  <speed>0.47010637094172636</speed>
  <fix>3d</fix>
</trkpt>
<trkpt lat="33.810081" lon="-118.3938674">
  <ele>-14.72</ele>
  <time>2026-09-01T01:18:17Z</time>
  <course>180.11</course>
  <speed>0.49</speed>
  <fix>3d</fix>
</trkpt>
<trkpt lat="33.8100797" lon="-118.3938676">
  <ele>-15.07</ele>
  <time>2026-09-01T01:18:17Z</time>
  <course>186.67</course>
  <speed>0.47010637094172636</speed>
  <fix>3d</fix>
</trkpt>
<trkpt lat="33.8100801" lon="-118.3938674">
  <ele>-14.72</ele>
  <time>2026-09-01T01:18:17Z</time>
  <course>180.13</course>
  <speed>0.49</speed>
  <fix>3d</fix>
</trkpt>
<trkpt lat="33.8100793" lon="-118.3938676">
  <ele>-15.07</ele>
  <time>2026-09-01T01:18:17Z</time>
  <course>186.67</course>
  <speed>0.47010637094172636</speed>
  <fix>3d</fix>
</trkpt>
<trkpt lat="33.8100801" lon="-118.3938674">
  <ele>-14.72</ele>
  <time>2026-09-01T01:18:17Z</time>
  <course>180.13</course>
  <speed>0.49</speed>
  <fix>3d</fix>
</trkpt>
<trkpt lat="33.8100788" lon="-118.3938676">
  <ele>-15.071</ele>
  <time>2026-09-01T01:18:17Z</time>
  <course>186.66</course>
  <speed>0.47010637094172636</speed>
  <fix>3d</fix>
</trkpt>
<trkpt lat="33.8100792" lon="-118.3938674">
  <ele>-14.72</ele>
  <time>2026-09-01T01:18:17Z</time>
  <course>180.11</course>
  <speed>0.49</speed>
  <fix>3d</fix>
</trkpt>
<trkpt lat="33.8100784" lon="-118.3938676">
  <ele>-15.072</ele>
  <time>2026-09-01T01:18:17Z</time>
  <course>186.66</course>
  <speed>0.47010637094172636</speed>
  <fix>3d</fix>
</trkpt>
<trkpt lat="33.8100792" lon="-118.3938674">
  <ele>-14.72</ele>
  <time>2026-09-01T01:18:17Z</time>
  <course>180.11</course>
  <speed>0.49</speed>
  <fix>3d</fix>
</trkpt>
<trkpt lat="33.8100779" lon="-118.3938676">
  <ele>-15.074</ele>
  <time>2026-09-01T01:18:17Z</time>
  <course>186.67</course>
  <speed>0.47010637094172636</speed>
  <fix>3d</fix>
</trkpt>
<trkpt lat="33.8100783" lon="-118.3938674">
  <ele>-14.72</ele>
  <time>2026-09-01T01:18:17Z</time>
  <course>180.1</course>
  <speed>0.49</speed>
  <fix>3d</fix>
</trkpt>
<trkpt lat="33.8100775" lon="-118.3938676">
  <ele>-15.075</ele>
  <time>2026-09-01T01:18:17Z</time>
  <course>186.67</course>
  <speed>0.47010637094172636</speed>
  <fix>3d</fix>
</trkpt>
<trkpt lat="33.8100783" lon="-118.3938674">
  <ele>-14.72</ele>
  <time>2026-09-01T01:18:17Z</time>
  <course>180.1</course>
  <speed>0.49</speed>
  <fix>3d</fix>
</trkpt>
<trkpt lat="33.810077" lon="-118.3938676">
  <ele>-15.076</ele>
  <time>2026-09-01T01:18:17Z</time>
  <course>186.67</course>
  <speed>0.47010637094172636</speed>
  <fix>3d</fix>
</trkpt>
<trkpt lat="33.8100774" lon="-118.3938674">
  <ele>-14.72</ele>
  <time>2026-09-01T01:18:17Z</time>
  <course>180.09</course>
  <speed>0.49</speed>
  <fix>3d</fix>
</trkpt>
<trkpt lat="33.8100766" lon="-118.3938676">
  <ele>-15.077</ele>
  <time>2026-09-01T01:18:17Z</time>
  <course>186.67</course>
  <speed>0.47010637094172636</speed>
  <fix>3d</fix>
</trkpt>
<trkpt lat="33.8100774" lon="-118.3938674">
  <ele>-14.72</ele>
  <time>2026-09-01T01:18:17Z</time>
  <course>180.09</course>
  <speed>0.49</speed>
  <fix>3d</fix>
</trkpt>
<trkpt lat="33.8100761" lon="-118.3938676">
  <ele>-15.076</ele>
  <time>2026-09-01T01:18:17Z</time>
  <course>186.67</course>
  <speed>0.47010637094172636</speed>
  <fix>3d</fix>
</trkpt>
<trkpt lat="33.8100765" lon="-118.3938674">
  <ele>-14.73</ele>
  <time>2026-09-01T01:18:17Z</time>
  <course>180.08</course>
  <speed>0.5</speed>
  <fix>3d</fix>
</trkpt>
<trkpt lat="33.8100757" lon="-118.3938676">
  <ele>-15.076</ele>
  <time>2026-09-01T01:18:17Z</time>
  <course>186.66</course>
  <speed>0.47010637094172636</speed>
  <fix>3d</fix>
</trkpt>
<trkpt lat="33.8100765" lon="-118.3938674">
  <ele>-14.73</ele>
  <time>2026-09-01T01:18:17Z</time>
  <course>180.08</course>
  <speed>0.5</speed>
  <fix>3d</fix>
</trkpt>
<trkpt lat="33.8100752" lon="-118.3938676">
  <ele>-15.076</ele>
  <time>2026-09-01T01:18:17Z</time>
  <course>186.66</course>
  <speed>0.47010637094172636</speed>
  <fix>3d</fix>
</trkpt>
<trkpt lat="33.8100756" lon="-118.3938674">
  <ele>-14.72</ele>
  <time>2026-09-01T01:18:17Z</time>
  <course>180.06</course>
  <speed>0.5</speed>
  <fix>3d</fix>
</trkpt>
<trkpt lat="33.8100748" lon="-118.3938676">
  <ele>-15.074</ele>
  <time>2026-09-01T01:18:17Z</time>
  <course>186.66</course>
  <speed>0.47010637094172636</speed>
  <fix>3d</fix>
</trkpt>
<trkpt lat="33.8100756" lon="-118.3938674">
  <ele>-14.72</ele>
  <time>2026-09-01T01:18:17Z</time>
  <course>180.06</course>
  <speed>0.5</speed>
  <fix>3d</fix>
</trkpt>
<trkpt lat="33.8100743" lon="-118.3938676">
  <ele>-15.071</ele>
  <time>2026-09-01T01:18:17Z</time>
  <course>186.66</course>
  <speed>0.47010637094172636</speed>
  <fix>3d</fix>
</trkpt>
<trkpt lat="33.8100747" lon="-118.3938674">
  <ele>-14.72</ele>
  <time>2026-09-01T01:18:17Z</time>
  <course>180.06</course>
  <speed>0.5</speed>
  <fix>3d</fix>
</trkpt>
<trkpt lat="33.8100739" lon="-118.3938676">
  <ele>-15.069</ele>
  <time>2026-09-01T01:18:17Z</time>
  <course>186.66</course>
  <speed>0.47010637094172636</speed>
  <fix>3d</fix>
</trkpt>
<trkpt lat="33.8100747" lon="-118.3938674">
  <ele>-14.72</ele>
  <time>2026-09-01T01:18:17Z</time>
  <course>180.06</course>
  <speed>0.5</speed>
  <fix>3d</fix>
</trkpt>
<trkpt lat="33.8100734" lon="-118.3938676">
  <ele>-15.067</ele>
  <time>2026-09-01T01:18:17Z</time>
  <course>186.66</course>
  <speed>0.47010637094172636</speed>
  <fix>3d</fix>
</trkpt>
<trkpt lat="33.8100738" lon="-118.3938674">
  <ele>-14.72</ele>
  <time>2026-09-01T01:18:17Z</time>
  <course>180.07</course>
  <speed>0.5</speed>
  <fix>3d</fix>
</trkpt>
<trkpt lat="33.810073" lon="-118.3938676">
  <ele>-15.065</ele>
  <time>2026-09-01T01:18:17Z</time>
  <course>186.67</course>
  <speed>0.47010637094172636</speed>
  <fix>3d</fix>
</trkpt>
<trkpt lat="33.8100738" lon="-118.3938674">
  <ele>-14.72</ele>
  <time>2026-09-01T01:18:17Z</time>
  <course>180.07</course>
  <speed>0.5</speed>
  <fix>3d</fix>
</trkpt>
<trkpt lat="33.8100725" lon="-118.3938676">
  <ele>-15.064</ele>
  <time>2026-09-01T01:18:17Z</time>
  <course>186.67</course>
  <speed>0.47010637094172636</speed>
  <fix>3d</fix>
</trkpt>
<trkpt lat="33.8100729" lon="-118.3938674">
  <ele>-14.71</ele>
  <time>2026-09-01T01:18:17Z</time>
  <course>180.09</course>
  <speed>0.49</speed>
  <fix>3d</fix>
</trkpt>
<trkpt lat="33.8100721" lon="-118.3938676">
  <ele>-15.064</ele>
  <time>2026-09-01T01:18:17Z</time>
  <course>186.67</course>
  <speed>0.47010637094172636</speed>
  <fix>3d</fix>
</trkpt>
<trkpt lat="33.8100729" lon="-118.3938674">
  <ele>-14.71</ele>
  <time>2026-09-01T01:18:17Z</time>
  <course>180.09</course>
  <speed>0.49</speed>
  <fix>3d</fix>
</trkpt>
<trkpt lat="33.8100716" lon="-118.3938676">
  <ele>-15.065</ele>
  <time>2026-09-01T01:18:17Z</time>
  <course>186.67</course>
  <speed>0.47010637094172636</speed>
  <fix>3d</fix>
</trkpt>
<trkpt lat="33.810072" lon="-118.3938674">
  <ele>-14.71</ele>
  <time>2026-09-01T01:18:17Z</time>
  <course>180.1</course>
  <speed>0.49</speed>
  <fix>3d</fix>
</trkpt>
<trkpt lat="33.8100712" lon="-118.3938676">
  <ele>-15.067</ele>
  <time>2026-09-01T01:18:17Z</time>
  <course>186.67</course>
  <speed>0.47010637094172636</speed>
  <fix>3d</fix>
</trkpt>
<trkpt lat="33.810072" lon="-118.3938674">
  <ele>-14.71</ele>
  <time>2026-09-01T01:18:17Z</time>
  <course>180.1</course>
  <speed>0.49</speed>
  <fix>3d</fix>
</trkpt>
<trkpt lat="33.8100707" lon="-118.3938676">
  <ele>-15.068</ele>
  <time>2026-09-01T01:18:17Z</time>
  <course>186.66</course>
  <speed>0.47010637094172636</speed>
  <fix>3d</fix>
</trkpt>
<trkpt lat="33.8100711" lon="-118.3938674">
  <ele>-14.71</ele>
  <time>2026-09-01T01:18:17Z</time>
  <course>180.09</course>
  <speed>0.49</speed>
  <fix>3d</fix>
</trkpt>
<trkpt lat="33.8100703" lon="-118.3938676">
  <ele>-15.067</ele>
  <time>2026-09-01T01:18:17Z</time>
  <course>186.66</course>
  <speed>0.47010637094172636</speed>
  <fix>3d</fix>
</trkpt>
<trkpt lat="33.8100711" lon="-118.3938674">
  <ele>-14.71</ele>
  <time>2026-09-01T01:18:17Z</time>
  <course>180.09</course>
  <speed>0.49</speed>
  <fix>3d</fix>
</trkpt>
<trkpt lat="33.8100699" lon="-118.3938676">
  <ele>-15.064</ele>
  <time>2026-09-01T01:18:17Z</time>
  <course>186.66</course>
  <speed>0.47010637094172636</speed>
  <fix>3d</fix>
</trkpt>
<trkpt lat="33.8100702" lon="-118.3938674">
  <ele>-14.71</ele>
  <time>2026-09-01T01:18:17Z</time>
  <course>180.09</course>
  <speed>0.49</speed>
  <fix>3d</fix>
</trkpt>
<trkpt lat="33.8100694" lon="-118.3938676">
  <ele>-15.061</ele>
  <time>2026-09-01T01:18:17Z</time>
  <course>186.66</course>
  <speed>0.47010637094172636</speed>
  <fix>3d</fix>
</trkpt>
<trkpt lat="33.8100702" lon="-118.3938674">
  <ele>-14.71</ele>
  <time>2026-09-01T01:18:17Z</time>
  <course>180.09</course>
  <speed>0.49</speed>
  <fix>3d</fix>
</trkpt>
<trkpt lat="33.810069" lon="-118.3938676">
  <ele>-15.059</ele>
  <time>2026-09-01T01:18:17Z</time>
  <course>186.66</course>
  <speed>0.47010637094172636</speed>
  <fix>3d</fix>
</trkpt>
<trkpt lat="33.8100693" lon="-118.3938674">
  <ele>-14.71</ele>
  <time>2026-09-01T01:18:17Z</time>
  <course>180.07</course>
  <speed>0.49</speed>
  <fix>3d</fix>
</trkpt>
<trkpt lat="33.8100685" lon="-118.3938676">
  <ele>-15.058</ele>
  <time>2026-09-01T01:18:17Z</time>
  <course>186.66</course>
  <speed>0.47010637094172636</speed>
  <fix>3d</fix>
</trkpt>
<trkpt lat="33.8100693" lon="-118.3938674">
  <ele>-14.71</ele>
  <time>2026-09-01T01:18:17Z</time>
  <course>180.07</course>
  <speed>0.49</speed>
  <fix>3d</fix>
</trkpt>
<trkpt lat="33.8100681" lon="-118.3938676">
  <ele>-15.058</ele>
  <time>2026-09-01T01:18:17Z</time>
  <course>186.67</course>
  <speed>0.47010637094172636</speed>
  <fix>3d</fix>
</trkpt>
<trkpt lat="33.8100684" lon="-118.3938674">
  <ele>-14.71</ele>
  <time>2026-09-01T01:18:17Z</time>
  <course>180.05</course>
  <speed>0.49</speed>
  <fix>3d</fix>
</trkpt>
<trkpt lat="33.8100676" lon="-118.3938676">
  <ele>-15.059</ele>
  <time>2026-09-01T01:18:17Z</time>
  <course>186.67</course>
  <speed>0.47010637094172636</speed>
  <fix>3d</fix>
</trkpt>
<trkpt lat="33.8100684" lon="-118.3938674">
  <ele>-14.71</ele>
  <time>2026-09-01T01:18:17Z</time>
  <course>180.05</course>
  <speed>0.49</speed>
  <fix>3d</fix>
</trkpt>
<trkpt lat="33.8100672" lon="-118.3938676">
  <ele>-15.06</ele>
  <time>2026-09-01T01:18:17Z</time>
  <course>186.66</course>
  <speed>0.47010637094172636</speed>
  <fix>3d</fix>
</trkpt>
<trkpt lat="33.8100675" lon="-118.3938674">
  <ele>-14.71</ele>
  <time>2026-09-01T01:18:17Z</time>
  <course>180.04</course>
  <speed>0.49</speed>
  <fix>3d</fix>
</trkpt>
<trkpt lat="33.8100667" lon="-118.3938676">
  <ele>-15.061</ele>
  <time>2026-09-01T01:18:17Z</time>
  <course>186.66</course>
  <speed>0.47010637094172636</speed>
  <fix>3d</fix>
</trkpt>
<trkpt lat="33.8100675" lon="-118.3938674">
  <ele>-14.71</ele>
  <time>2026-09-01T01:18:17Z</time>
  <course>180.04</course>
  <speed>0.49</speed>
  <fix>3d</fix>
</trkpt>
<trkpt lat="33.8100663" lon="-118.3938676">
  <ele>-15.062</ele>
  <time>2026-09-01T01:18:17Z</time>
  <course>186.66</course>
  <speed>0.47010637094172636</speed>
  <fix>3d</fix>
</trkpt>
<trkpt lat="33.8100666" lon="-118.3938674">
  <ele>-14.71</ele>
  <time>2026-09-01T01:18:17Z</time>
  <course>180.02</course>
  <speed>0.49</speed>
  <fix>3d</fix>
</trkpt>
<trkpt lat="33.8100658" lon="-118.3938676">
  <ele>-15.063</ele>
  <time>2026-09-01T01:18:17Z</time>
  <course>186.66</course>
  <speed>0.47010637094172636</speed>
  <fix>3d</fix>
</trkpt>
<trkpt lat="33.8100666" lon="-118.3938674">
  <ele>-14.71</ele>
  <time>2026-09-01T01:18:17Z</time>
  <course>180.02</course>
  <speed>0.49</speed>
  <fix>3d</fix>
</trkpt>
<trkpt lat="33.8100654" lon="-118.3938676">
  <ele>-15.062</ele>
  <time>2026-09-01T01:18:17Z</time>
  <course>186.66</course>
  <speed>0.47010637094172636</speed>
  <fix>3d</fix>
</trkpt>
<trkpt lat="33.8100657" lon="-118.3938674">
  <ele>-14.7</ele>
  <time>2026-09-01T01:18:17Z</time>
  <course>179.99</course>
  <speed>0.49</speed>
  <fix>3d</fix>
</trkpt>
<trkpt lat="33.8100649" lon="-118.3938676">
  <ele>-15.061</ele>
  <time>2026-09-01T01:18:17Z</time>
  <course>186.66</course>
  <speed>0.47010637094172636</speed>
  <fix>3d</fix>
</trkpt>
<trkpt lat="33.8100657" lon="-118.3938674">
  <ele>-14.7</ele>
  <time>2026-09-01T01:18:17Z</time>
  <course>179.99</course>
  <speed>0.49</speed>
  <fix>3d</fix>
</trkpt>
<trkpt lat="33.8100645" lon="-118.3938676">
  <ele>-15.059</ele>
  <time>2026-09-01T01:18:17Z</time>
  <course>186.66</course>
  <speed>0.47010637094172636</speed>
  <fix>3d</fix>
</trkpt>
<trkpt lat="33.8100648" lon="-118.3938674">
  <ele>-14.7</ele>
  <time>2026-09-01T01:18:17Z</time>
  <course>179.97</course>
  <speed>0.49</speed>
  <fix>3d</fix>
</trkpt>
<trkpt lat="33.810064" lon="-118.3938676">
  <ele>-15.056</ele>
  <time>2026-09-01T01:18:17Z</time>
  <course>186.66</course>
  <speed>0.47010637094172636</speed>
  <fix>3d</fix>
</trkpt>
<trkpt lat="33.8100648" lon="-118.3938674">
  <ele>-14.7</ele>
  <time>2026-09-01T01:18:17Z</time>
  <course>179.97</course>
  <speed>0.49</speed>
  <fix>3d</fix>
</trkpt>
<trkpt lat="33.8100636" lon="-118.3938676">
  <ele>-15.053</ele>
  <time>2026-09-01T01:18:17Z</time>
  <course>186.67</course>
  <speed>0.47010637094172636</speed>
  <fix>3d</fix>
</trkpt>
<trkpt lat="33.8100639" lon="-118.3938674">
  <ele>-14.69</ele>
  <time>2026-09-01T01:18:17Z</time>
  <course>179.95</course>
  <speed>0.49</speed>
  <fix>3d</fix>
</trkpt>
<trkpt lat="33.8100631" lon="-118.3938676">
  <ele>-15.051</ele>
  <time>2026-09-01T01:18:17Z</time>
  <course>186.66</course>
  <speed>0.47010637094172636</speed>
  <fix>3d</fix>
</trkpt>
<trkpt lat="33.8100639" lon="-118.3938674">
  <ele>-14.69</ele>
  <time>2026-09-01T01:18:17Z</time>
  <course>179.95</course>
  <speed>0.49</speed>
  <fix>3d</fix>
</trkpt>
<trkpt lat="33.8100627" lon="-118.3938676">
  <ele>-15.049</ele>
  <time>2026-09-01T01:18:17Z</time>
  <course>186.66</course>
  <speed>0.47010637094172636</speed>
  <fix>3d</fix>
</trkpt>
<trkpt lat="33.810063" lon="-118.3938674">
  <ele>-14.69</ele>
  <time>2026-09-01T01:18:17Z</time>
  <course>179.95</course>
  <speed>0.49</speed>
  <fix>3d</fix>
</trkpt>
<trkpt lat="33.8100622" lon="-118.3938676">
  <ele>-15.048</ele>
  <time>2026-09-01T01:18:17Z</time>
  <course>186.66</course>
  <speed>0.47010637094172636</speed>
  <fix>3d</fix>
</trkpt>
<trkpt lat="33.810063" lon="-118.3938674">
  <ele>-14.69</ele>
  <time>2026-09-01T01:18:17Z</time>
  <course>179.95</course>
  <speed>0.49</speed>
  <fix>3d</fix>
</trkpt>
<trkpt lat="33.8100618" lon="-118.3938676">
  <ele>-15.047</ele>
  <time>2026-09-01T01:18:17Z</time>
  <course>186.66</course>
  <speed>0.47010637094172636</speed>
  <fix>3d</fix>
</trkpt>
<trkpt lat="33.8100621" lon="-118.3938674">
  <ele>-14.68</ele>
  <time>2026-09-01T01:18:17Z</time>
  <course>179.94</course>
  <speed>0.49</speed>
  <fix>3d</fix>
</trkpt>
<trkpt lat="33.8100613" lon="-118.3938676">
  <ele>-15.045</ele>
  <time>2026-09-01T01:18:17Z</time>
  <course>186.66</course>
  <speed>0.47010637094172636</speed>
  <fix>3d</fix>
</trkpt>
<trkpt lat="33.8100621" lon="-118.3938674">
  <ele>-14.68</ele>
  <time>2026-09-01T01:18:17Z</time>
  <course>179.94</course>
  <speed>0.49</speed>
  <fix>3d</fix>
</trkpt>
<trkpt lat="33.8100609" lon="-118.3938676">
  <ele>-15.044</ele>
  <time>2026-09-01T01:18:17Z</time>
  <course>186.66</course>
  <speed>0.47010637094172636</speed>
  <fix>3d</fix>
</trkpt>
<trkpt lat="33.8100612" lon="-118.3938674">
  <ele>-14.68</ele>
  <time>2026-09-01T01:18:17Z</time>
  <course>179.93</course>
  <speed>0.49</speed>
  <fix>3d</fix>
</trkpt>
<trkpt lat="33.8100604" lon="-118.3938676">
  <ele>-15.043</ele>
  <time>2026-09-01T01:18:17Z</time>
  <course>186.66</course>
  <speed>0.47010637094172636</speed>
  <fix>3d</fix>
</trkpt>
<trkpt lat="33.8100612" lon="-118.3938674">
  <ele>-14.68</ele>
  <time>2026-09-01T01:18:17Z</time>
  <course>179.93</course>
  <speed>0.49</speed>
  <fix>3d</fix>
</trkpt>
<trkpt lat="33.81006" lon="-118.3938676">
  <ele>-15.042</ele>
  <time>2026-09-01T01:18:17Z</time>
  <course>186.66</course>
  <speed>0.47010637094172636</speed>
  <fix>3d</fix>
</trkpt>
<trkpt lat="33.8100603" lon="-118.3938674">
  <ele>-14.68</ele>
  <time>2026-09-01T01:18:17Z</time>
  <course>179.94</course>
  <speed>0.49</speed>
  <fix>3d</fix>
</trkpt>
<trkpt lat="33.8100595" lon="-118.3938676">
  <ele>-15.04</ele>
  <time>2026-09-01T01:18:17Z</time>
  <course>186.66</course>
  <speed>0.47010637094172636</speed>
  <fix>3d</fix>
</trkpt>
<trkpt lat="33.8100603" lon="-118.3938674">
  <ele>-14.68</ele>
  <time>2026-09-01T01:18:17Z</time>
  <course>179.94</course>
  <speed>0.49</speed>
  <fix>3d</fix>
</trkpt>
<trkpt lat="33.8100591" lon="-118.3938676">
  <ele>-15.04</ele>
  <time>2026-09-01T01:18:17Z</time>
  <course>186.66</course>
  <speed>0.47010637094172636</speed>
  <fix>3d</fix>
</trkpt>
<trkpt lat="33.8100594" lon="-118.3938674">
  <ele>-14.68</ele>
  <time>2026-09-01T01:18:17Z</time>
  <course>179.92</course>
  <speed>0.49</speed>
  <fix>3d</fix>
</trkpt>
<trkpt lat="33.8100586" lon="-118.3938676">
  <ele>-15.04</ele>
  <time>2026-09-01T01:18:17Z</time>
  <course>186.66</course>
  <speed>0.47010637094172636</speed>
  <fix>3d</fix>
</trkpt>
<trkpt lat="33.8100594" lon="-118.3938674">
  <ele>-14.68</ele>
  <time>2026-09-01T01:18:17Z</time>
  <course>179.92</course>
  <speed>0.49</speed>
  <fix>3d</fix>
</trkpt>
<trkpt lat="33.8100582" lon="-118.3938676">
  <ele>-15.041</ele>
  <time>2026-09-01T01:18:17Z</time>
  <course>186.66</course>
  <speed>0.47010637094172636</speed>
  <fix>3d</fix>
</trkpt>
<trkpt lat="33.8100586" lon="-118.3938674">
  <ele>-14.68</ele>
  <time>2026-09-01T01:18:17Z</time>
  <course>179.91</course>
  <speed>0.49</speed>
  <fix>3d</fix>
</trkpt>
<trkpt lat="33.8100577" lon="-118.3938676">
  <ele>-15.042</ele>
  <time>2026-09-01T01:18:17Z</time>
  <course>186.66</course>
  <speed>0.47010637094172636</speed>
  <fix>3d</fix>
</trkpt>
<trkpt lat="33.8100586" lon="-118.3938674">
  <ele>-14.68</ele>
  <time>2026-09-01T01:18:17Z</time>
  <course>179.91</course>
  <speed>0.49</speed>
  <fix>3d</fix>
</trkpt>
<trkpt lat="33.8100573" lon="-118.3938676">
  <ele>-15.042</ele>
  <time>2026-09-01T01:18:17Z</time>
  <course>186.66</course>
  <speed>0.47010637094172636</speed>
  <fix>3d</fix>
</trkpt>
<trkpt lat="33.8100577" lon="-118.3938674">
  <ele>-14.68</ele>
  <time>2026-09-01T01:18:17Z</time>
  <course>179.9</course>
  <speed>0.49</speed>
  <fix>3d</fix>
</trkpt>
<trkpt lat="33.8100568" lon="-118.3938676">
  <ele>-15.041</ele>
  <time>2026-09-01T01:18:17Z</time>
  <course>186.66</course>
  <speed>0.47010637094172636</speed>
  <fix>3d</fix>
</trkpt>
<trkpt lat="33.8100577" lon="-118.3938674">
  <ele>-14.68</ele>
  <time>2026-09-01T01:18:17Z</time>
  <course>179.9</course>
  <speed>0.49</speed>
  <fix>3d</fix>
</trkpt>
<trkpt lat="33.8100564" lon="-118.3938676">
  <ele>-15.04</ele>
  <time>2026-09-01T01:18:17Z</time>
  <course>186.66</course>
  <speed>0.47010637094172636</speed>
  <fix>3d</fix>
</trkpt>
<trkpt lat="33.8100568" lon="-118.3938674">
  <ele>-14.69</ele>
  <time>2026-09-01T01:18:17Z</time>
  <course>179.88</course>
  <speed>0.49</speed>
  <fix>3d</fix>
</trkpt>
<trkpt lat="33.8100559" lon="-118.3938676">
  <ele>-15.04</ele>
  <time>2026-09-01T01:18:17Z</time>
  <course>186.66</course>
  <speed>0.47010637094172636</speed>
  <fix>3d</fix>
</trkpt>
<trkpt lat="33.8100568" lon="-118.3938674">
  <ele>-14.69</ele>
  <time>2026-09-01T01:18:17Z</time>
  <course>179.88</course>
  <speed>0.49</speed>
  <fix>3d</fix>
</trkpt>
<trkpt lat="33.8100555" lon="-118.3938676">
  <ele>-15.039</ele>
  <time>2026-09-01T01:18:17Z</time>
  <course>186.66</course>
  <speed>0.4801041553663121</speed>
  <fix>3d</fix>
</trkpt>
<trkpt lat="33.8100559" lon="-118.3938674">
  <ele>-14.69</ele>
  <time>2026-09-01T01:18:17Z</time>
  <course>179.84</course>
  <speed>0.5</speed>
  <fix>3d</fix>
</trkpt>
<trkpt lat="33.810055" lon="-118.3938676">
  <ele>-15.039</ele>
  <time>2026-09-01T01:18:17Z</time>
  <course>186.66</course>
  <speed>0.4801041553663121</speed>
  <fix>3d</fix>
</trkpt>
<trkpt lat="33.8100559" lon="-118.3938674">
  <ele>-14.69</ele>
  <time>2026-09-01T01:18:17Z</time>
  <course>179.84</course>
  <speed>0.5</speed>
  <fix>3d</fix>
</trkpt>
<trkpt lat="33.8100546" lon="-118.3938676">
  <ele>-15.039</ele>
  <time>2026-09-01T01:18:17Z</time>
  <course>186.67</course>
  <speed>0.4801041553663121</speed>
  <fix>3d</fix>
</trkpt>
<trkpt lat="33.810055" lon="-118.3938674">
  <ele>-14.68</ele>
  <time>2026-09-01T01:18:17Z</time>
  <course>179.83</course>
  <speed>0.5</speed>
  <fix>3d</fix>
</trkpt>
<trkpt lat="33.8100542" lon="-118.3938676">
  <ele>-15.039</ele>
  <time>2026-09-01T01:18:17Z</time>
  <course>186.67</course>
  <speed>0.4801041553663121</speed>
  <fix>3d</fix>
</trkpt>
<trkpt lat="33.810055" lon="-118.3938674">
  <ele>-14.68</ele>
  <time>2026-09-01T01:18:17Z</time>
  <course>179.83</course>
  <speed>0.5</speed>
  <fix>3d</fix>
</trkpt>
<trkpt lat="33.8100537" lon="-118.3938676">
  <ele>-15.037</ele>
  <time>2026-09-01T01:18:17Z</time>
  <course>186.66</course>
  <speed>0.4801041553663121</speed>
  <fix>3d</fix>
</trkpt>
<trkpt lat="33.8100541" lon="-118.3938674">
  <ele>-14.68</ele>
  <time>2026-09-01T01:18:17Z</time>
  <course>179.8</course>
  <speed>0.5</speed>
  <fix>3d</fix>
</trkpt>
<trkpt lat="33.8100533" lon="-118.3938676">
  <ele>-15.035</ele>
  <time>2026-09-01T01:18:17Z</time>
  <course>186.66</course>
  <speed>0.4801041553663121</speed>
  <fix>3d</fix>
</trkpt>
<trkpt lat="33.8100541" lon="-118.3938674">
  <ele>-14.68</ele>
  <time>2026-09-01T01:18:17Z</time>
  <course>179.8</course>
  <speed>0.5</speed>
  <fix>3d</fix>
</trkpt>
<trkpt lat="33.8100528" lon="-118.3938676">
  <ele>-15.035</ele>
  <time>2026-09-01T01:18:17Z</time>
  <course>186.66</course>
  <speed>0.4801041553663121</speed>
  <fix>3d</fix>
</trkpt>
<trkpt lat="33.8100531" lon="-118.3938674">
  <ele>-14.68</ele>
  <time>2026-09-01T01:18:17Z</time>
  <course>179.78</course>
  <speed>0.5</speed>
  <fix>3d</fix>
</trkpt>
<trkpt lat="33.8100524" lon="-118.3938676">
  <ele>-15.035</ele>
  <time>2026-09-01T01:18:17Z</time>
  <course>186.66</course>
  <speed>0.4801041553663121</speed>
  <fix>3d</fix>
</trkpt>
<trkpt lat="33.8100531" lon="-118.3938674">
  <ele>-14.68</ele>
  <time>2026-09-01T01:18:17Z</time>
  <course>179.78</course>
  <speed>0.5</speed>
  <fix>3d</fix>
</trkpt>
<trkpt lat="33.8100519" lon="-118.3938676">
  <ele>-15.035</ele>
  <time>2026-09-01T01:18:17Z</time>
  <course>186.66</course>
  <speed>0.4801041553663121</speed>
  <fix>3d</fix>
</trkpt>
<trkpt lat="33.8100522" lon="-118.3938674">
  <ele>-14.68</ele>
  <time>2026-09-01T01:18:17Z</time>
  <course>179.78</course>
  <speed>0.5</speed>
  <fix>3d</fix>
</trkpt>
<trkpt lat="33.8100515" lon="-118.3938676">
  <ele>-15.034</ele>
  <time>2026-09-01T01:18:17Z</time>
  <course>186.66</course>
  <speed>0.47010637094172636</speed>
  <fix>3d</fix>
</trkpt>
<trkpt lat="33.8100522" lon="-118.3938674">
  <ele>-14.68</ele>
  <time>2026-09-01T01:18:17Z</time>
  <course>179.78</course>
  <speed>0.5</speed>
  <fix>3d</fix>
</trkpt>
<trkpt lat="33.810051" lon="-118.3938676">
  <ele>-15.033</ele>
  <time>2026-09-01T01:18:17Z</time>
  <course>186.66</course>
  <speed>0.47010637094172636</speed>
  <fix>3d</fix>
</trkpt>
<trkpt lat="33.8100513" lon="-118.3938674">
  <ele>-14.68</ele>
  <time>2026-09-01T01:18:17Z</time>
  <course>179.78</course>
  <speed>0.5</speed>
  <fix>3d</fix>
</trkpt>
<trkpt lat="33.8100505" lon="-118.3938676">
  <ele>-15.032</ele>
  <time>2026-09-01T01:18:17Z</time>
  <course>186.66</course>
  <speed>0.47010637094172636</speed>
  <fix>3d</fix>
</trkpt>
<trkpt lat="33.8100513" lon="-118.3938674">
  <ele>-14.68</ele>
  <time>2026-09-01T01:18:17Z</time>
  <course>179.78</course>
  <speed>0.5</speed>
  <fix>3d</fix>
</trkpt>
<trkpt lat="33.8100501" lon="-118.3938676">
  <ele>-15.031</ele>
  <time>2026-09-01T01:18:17Z</time>
  <course>186.66</course>
  <speed>0.47010637094172636</speed>
  <fix>3d</fix>
</trkpt>
<trkpt lat="33.8100504" lon="-118.3938674">
  <ele>-14.67</ele>
  <time>2026-09-01T01:18:17Z</time>
  <course>179.77</course>
  <speed>0.5</speed>
  <fix>3d</fix>
</trkpt>
<trkpt lat="33.8100496" lon="-118.3938676">
  <ele>-15.03</ele>
  <time>2026-09-01T01:18:17Z</time>
  <course>186.66</course>
  <speed>0.47010637094172636</speed>
  <fix>3d</fix>
</trkpt>
<trkpt lat="33.8100504" lon="-118.3938674">
  <ele>-14.67</ele>
  <time>2026-09-01T01:18:17Z</time>
  <course>179.77</course>
  <speed>0.5</speed>
  <fix>3d</fix>
</trkpt>
<trkpt lat="33.8100492" lon="-118.3938676">
  <ele>-15.029</ele>
  <time>2026-09-01T01:18:17Z</time>
  <course>186.66</course>
  <speed>0.47010637094172636</speed>
  <fix>3d</fix>
</trkpt>
<trkpt lat="33.8100495" lon="-118.3938674">
  <ele>-14.67</ele>
  <time>2026-09-01T01:18:17Z</time>
  <course>179.75</course>
  <speed>0.5</speed>
  <fix>3d</fix>
</trkpt>
<trkpt lat="33.8100487" lon="-118.3938676">
  <ele>-15.029</ele>
  <time>2026-09-01T01:18:17Z</time>
  <course>186.66</course>
  <speed>0.47010637094172636</speed>
  <fix>3d</fix>
</trkpt>
<trkpt lat="33.8100495" lon="-118.3938674">
  <ele>-14.67</ele>
  <time>2026-09-01T01:18:17Z</time>
  <course>179.75</course>
  <speed>0.5</speed>
  <fix>3d</fix>
</trkpt>
<trkpt lat="33.8100483" lon="-118.3938676">
  <ele>-15.029</ele>
  <time>2026-09-01T01:18:17Z</time>
  <course>186.66</course>
  <speed>0.47010637094172636</speed>
  <fix>3d</fix>
</trkpt>
<trkpt lat="33.8100486" lon="-118.3938674">
  <ele>-14.67</ele>
  <time>2026-09-01T01:18:17Z</time>
  <course>179.73</course>
  <speed>0.5</speed>
  <fix>3d</fix>
</trkpt>
<trkpt lat="33.8100478" lon="-118.3938676">
  <ele>-15.028</ele>
  <time>2026-09-01T01:18:17Z</time>
  <course>186.66</course>
  <speed>0.47010637094172636</speed>
  <fix>3d</fix>
</trkpt>
<trkpt lat="33.8100486" lon="-118.3938674">
  <ele>-14.67</ele>
  <time>2026-09-01T01:18:17Z</time>
  <course>179.73</course>
  <speed>0.5</speed>
  <fix>3d</fix>
</trkpt>
<trkpt lat="33.8100474" lon="-118.3938676">
  <ele>-15.027</ele>
  <time>2026-09-01T01:18:17Z</time>
  <course>186.66</course>
  <speed>0.47010637094172636</speed>
  <fix>3d</fix>
</trkpt>
<trkpt lat="33.8100477" lon="-118.3938674">
  <ele>-14.67</ele>
  <time>2026-09-01T01:18:17Z</time>
  <course>179.72</course>
  <speed>0.5</speed>
  <fix>3d</fix>
</trkpt>
<trkpt lat="33.8100469" lon="-118.3938676">
  <ele>-15.025</ele>
  <time>2026-09-01T01:18:17Z</time>
  <course>186.66</course>
  <speed>0.47010637094172636</speed>
  <fix>3d</fix>
</trkpt>
<trkpt lat="33.8100477" lon="-118.3938674">
  <ele>-14.67</ele>
  <time>2026-09-01T01:18:17Z</time>
  <course>179.72</course>
  <speed>0.5</speed>
  <fix>3d</fix>
</trkpt>
<trkpt lat="33.8100465" lon="-118.3938676">
  <ele>-15.023</ele>
  <time>2026-09-01T01:18:17Z</time>
  <course>186.66</course>
  <speed>0.4201190307520001</speed>
  <fix>3d</fix>
</trkpt>
<trkpt lat="33.8100468" lon="-118.3938674">
  <ele>-14.66</ele>
  <time>2026-09-01T01:18:17Z</time>
  <course>179.72</course>
  <speed>0.49</speed>
  <fix>3d</fix>
</trkpt>
<trkpt lat="33.8100461" lon="-118.3938676">
  <ele>-15.02</ele>
  <time>2026-09-01T01:18:17Z</time>
  <course>186.66</course>
  <speed>0.35014282800023194</speed>
  <fix>3d</fix>
</trkpt>
<trkpt lat="33.8100468" lon="-118.3938674">
  <ele>-14.66</ele>
  <time>2026-09-01T01:18:17Z</time>
  <course>179.72</course>
  <speed>0.49</speed>
  <fix>3d</fix>
</trkpt>
<trkpt lat="33.8100458" lon="-118.3938676">
  <ele>-15.01</ele>
  <time>2026-09-01T01:18:17Z</time>
  <course>186.67</course>
  <speed>0.30016662039607267</speed>
  <fix>3d</fix>
</trkpt>
<trkpt lat="33.810046" lon="-118.3938674">
  <ele>-14.66</ele>
  <time>2026-09-01T01:18:17Z</time>
  <course>179.67</course>
  <speed>0.43</speed>
  <fix>3d</fix>
</trkpt>
<trkpt lat="33.8100455" lon="-118.3938676">
  <ele>-14.99</ele>
  <time>2026-09-01T01:18:17Z</time>
  <course>186.67</course>
  <speed>0.2501999200639361</speed>
  <fix>3d</fix>
</trkpt>
<trkpt lat="33.810046" lon="-118.3938674">
  <ele>-14.66</ele>
  <time>2026-09-01T01:18:17Z</time>
  <course>179.67</course>
  <speed>0.43</speed>
  <fix>3d</fix>
</trkpt>
<trkpt lat="33.8100453" lon="-118.3938676">
  <ele>-14.966</ele>
  <time>2026-09-01T01:18:17Z</time>
  <course>186.67</course>
  <speed>0.2002498439450079</speed>
  <fix>3d</fix>
</trkpt>
<trkpt lat="33.8100453" lon="-118.3938673">
  <ele>-14.63</ele>
  <time>2026-09-01T01:18:17Z</time>
  <course>179.41</course>
  <speed>0.31</speed>
  <fix>3d</fix>
</trkpt>
<trkpt lat="33.8100451" lon="-118.3938676">
  <ele>-14.94</ele>
  <time>2026-09-01T01:18:17Z</time>
  <course>186.67</course>
  <speed>0.1414213562373095</speed>
  <fix>3d</fix>
</trkpt>
<trkpt lat="33.8100453" lon="-118.3938673">
  <ele>-14.63</ele>
  <time>2026-09-01T01:18:17Z</time>
  <course>179.41</course>
  <speed>0.31</speed>
  <fix>3d</fix>
</trkpt>
<trkpt lat="33.810045" lon="-118.3938676">
  <ele>-14.912</ele>
  <time>2026-09-01T01:18:17Z</time>
  <course>186.66</course>
  <speed>0.0670820393249937</speed>
  <fix>3d</fix>
</trkpt>
<trkpt lat="33.8100448" lon="-118.3938673">
  <ele>-14.6</ele>
  <time>2026-09-01T01:18:17Z</time>
  <course>181.26</course>
  <speed>0.2</speed>
  <fix>3d</fix>
</trkpt>
<trkpt lat="33.8100449" lon="-118.3938676">
  <ele>-14.886</ele>
  <time>2026-09-01T01:18:17Z</time>
  <course>186.67</course>
  <speed>0.0316227766016838</speed>
  <fix>3d</fix>
</trkpt>
<trkpt lat="33.8100448" lon="-118.3938673">
  <ele>-14.6</ele>
  <time>2026-09-01T01:18:17Z</time>
  <course>181.26</course>
  <speed>0.2</speed>
  <fix>3d</fix>
</trkpt>
<trkpt lat="33.8100449" lon="-118.3938676">
  <ele>-14.858</ele>
  <time>2026-09-01T01:18:17Z</time>
  <course>186.68</course>
  <speed>0.0854400374531753</speed>
  <fix>3d</fix>
</trkpt>
<trkpt lat="33.8100446" lon="-118.3938673">
  <ele>-14.55</ele>
  <time>2026-09-01T01:18:17Z</time>
  <course>194.5</course>
  <speed>0.06</speed>
  <fix>3d</fix>
</trkpt>
<trkpt lat="33.810045" lon="-118.3938676">
  <ele>-14.828</ele>
  <time>2026-09-01T01:18:17Z</time>
  <course>186.69</course>
  <speed>0.15297058540778355</speed>
  <fix>3d</fix>
</trkpt>
<trkpt lat="33.8100446" lon="-118.3938673">
  <ele>-14.55</ele>
  <time>2026-09-01T01:18:17Z</time>
  <course>194.5</course>
  <speed>0.06</speed>
  <fix>3d</fix>
</trkpt>
<trkpt lat="33.810045" lon="-118.3938676">
  <ele>-14.8</ele>
  <time>2026-09-01T01:18:17Z</time>
  <course>186.7</course>
  <speed>0.21213203435596426</speed>
  <fix>3d</fix>
</trkpt>
<trkpt lat="33.8100446" lon="-118.3938673">
  <ele>-14.5</ele>
  <time>2026-09-01T01:18:17Z</time>
  <course>346.22</course>
  <speed>0.08</speed>
  <fix>3d</fix>
</trkpt>
<trkpt lat="33.8100452" lon="-118.3938676">
  <ele>-14.775</ele>
  <time>2026-09-01T01:18:17Z</time>
  <course>186.7</course>
  <speed>0.261725046566048</speed>
  <fix>3d</fix>
</trkpt>
<trkpt lat="33.8100446" lon="-118.3938673">
  <ele>-14.5</ele>
  <time>2026-09-01T01:18:17Z</time>
  <course>346.22</course>
  <speed>0.08</speed>
  <fix>3d</fix>
</trkpt>
<trkpt lat="33.8100454" lon="-118.3938676">
  <ele>-14.751</ele>
  <time>2026-09-01T01:18:17Z</time>
  <course>186.7</course>
  <speed>0.291547594742265</speed>
  <fix>3d</fix>
</trkpt>
<trkpt lat="33.8100448" lon="-118.3938673">
  <ele>-14.44</ele>
  <time>2026-09-01T01:18:17Z</time>
  <course>354.17</course>
  <speed>0.2</speed>
  <fix>3d</fix>
</trkpt>
<trkpt lat="33.8100457" lon="-118.3938676">
  <ele>-14.729</ele>
  <time>2026-09-01T01:18:17Z</time>
  <course>186.7</course>
  <speed>0.31144823004794875</speed>
  <fix>3d</fix>
</trkpt>
<trkpt lat="33.8100448" lon="-118.3938673">
  <ele>-14.44</ele>
  <time>2026-09-01T01:18:17Z</time>
  <course>354.17</course>
  <speed>0.2</speed>
  <fix>3d</fix>
</trkpt>
<trkpt lat="33.8100459" lon="-118.3938676">
  <ele>-14.712</ele>
  <time>2026-09-01T01:18:17Z</time>
  <course>186.7</course>
  <speed>0.3313608305156178</speed>
  <fix>3d</fix>
</trkpt>
<trkpt lat="33.8100453" lon="-118.3938674">
  <ele>-14.4</ele>
  <time>2026-09-01T01:18:17Z</time>
  <course>355.82</course>
  <speed>0.28</speed>
  <fix>3d</fix>
</trkpt>
<trkpt lat="33.8100462" lon="-118.3938676">
  <ele>-14.706</ele>
  <time>2026-09-01T01:18:17Z</time>
  <course>186.7</course>
  <speed>0.34058772731852804</speed>
  <fix>3d</fix>
</trkpt>
<trkpt lat="33.8100453" lon="-118.3938674">
  <ele>-14.4</ele>
  <time>2026-09-01T01:18:17Z</time>
  <course>355.82</course>
  <speed>0.28</speed>
  <fix>3d</fix>
</trkpt>
<trkpt lat="33.8100465" lon="-118.3938676">
  <ele>-14.711</ele>
  <time>2026-09-01T01:18:17Z</time>
  <course>186.69</course>
  <speed>0.34058772731852804</speed>
  <fix>3d</fix>
</trkpt>
<trkpt lat="33.8100458" lon="-118.3938674">
  <ele>-14.37</ele>
  <time>2026-09-01T01:18:17Z</time>
  <course>356.45</course>
  <speed>0.31</speed>
  <fix>3d</fix>
</trkpt>
<trkpt lat="33.8100467" lon="-118.3938676">
  <ele>-14.724</ele>
  <time>2026-09-01T01:18:17Z</time>
  <course>186.69</course>
  <speed>0.34058772731852804</speed>
  <fix>3d</fix>
</trkpt>
<trkpt lat="33.8100458" lon="-118.3938674">
  <ele>-14.37</ele>
  <time>2026-09-01T01:18:17Z</time>
  <course>356.45</course>
  <speed>0.31</speed>
  <fix>3d</fix>
</trkpt>
<trkpt lat="33.810047" lon="-118.3938676">
  <ele>-14.746</ele>
  <time>2026-09-01T01:18:17Z</time>
  <course>186.69</course>
  <speed>0.34058772731852804</speed>
  <fix>3d</fix>
</trkpt>
<trkpt lat="33.8100464" lon="-118.3938675">
  <ele>-14.38</ele>
  <time>2026-09-01T01:18:17Z</time>
  <course>356.83</course>
  <speed>0.33</speed>
  <fix>3d</fix>
</trkpt>
<trkpt lat="33.8100473" lon="-118.3938676">
  <ele>-14.774</ele>
  <time>2026-09-01T01:18:17Z</time>
  <course>186.69</course>
  <speed>0.34058772731852804</speed>
  <fix>3d</fix>
</trkpt>
<trkpt lat="33.8100464" lon="-118.3938675">
  <ele>-14.38</ele>
  <time>2026-09-01T01:18:17Z</time>
  <course>356.83</course>
  <speed>0.33</speed>
  <fix>3d</fix>
</trkpt>
<trkpt lat="33.8100476" lon="-118.3938676">
  <ele>-14.806</ele>
  <time>2026-09-01T01:18:17Z</time>
  <course>186.69</course>
  <speed>0.3306055050963308</speed>
  <fix>3d</fix>
</trkpt>
<trkpt lat="33.810047" lon="-118.3938675">
  <ele>-14.42</ele>
  <time>2026-09-01T01:18:17Z</time>
  <course>357.2</course>
  <speed>0.33</speed>
  <fix>3d</fix>
</trkpt>
<trkpt lat="33.8100479" lon="-118.3938676">
  <ele>-14.84</ele>
  <time>2026-09-01T01:18:17Z</time>
  <course>186.69</course>
  <speed>0.3306055050963308</speed>
  <fix>3d</fix>
</trkpt>
<trkpt lat="33.810047" lon="-118.3938675">
  <ele>-14.42</ele>
  <time>2026-09-01T01:18:17Z</time>
  <course>357.2</course>
  <speed>0.33</speed>
  <fix>3d</fix>
</trkpt>
<trkpt lat="33.8100481" lon="-118.3938676">
  <ele>-14.872</ele>
  <time>2026-09-01T01:18:17Z</time>
  <course>186.69</course>
  <speed>0.32015621187164245</speed>
  <fix>3d</fix>
</trkpt>
<trkpt lat="33.8100476" lon="-118.3938675">
  <ele>-14.48</ele>
  <time>2026-09-01T01:18:17Z</time>
  <course>357.65</course>
  <speed>0.32</speed>
  <fix>3d</fix>
</trkpt>
<trkpt lat="33.8100484" lon="-118.3938676">
  <ele>-14.903</ele>
  <time>2026-09-01T01:18:17Z</time>
  <course>186.69</course>
  <speed>0.3101612483854165</speed>
  <fix>3d</fix>
</trkpt>
<trkpt lat="33.8100476" lon="-118.3938675">
  <ele>-14.48</ele>
  <time>2026-09-01T01:18:17Z</time>
  <course>357.65</course>
  <speed>0.32</speed>
  <fix>3d</fix>
</trkpt>
<trkpt lat="33.8100487" lon="-118.3938676">
  <ele>-14.936</ele>
  <time>2026-09-01T01:18:17Z</time>
  <course>186.68</course>
  <speed>0.3101612483854165</speed>
  <fix>3d</fix>
</trkpt>
<trkpt lat="33.8100481" lon="-118.3938676">
  <ele>-14.54</ele>
  <time>2026-09-01T01:18:17Z</time>
  <course>358.13</course>
  <speed>0.31</speed>
  <fix>3d</fix>
</trkpt>
<trkpt lat="33.8100489" lon="-118.3938676">
  <ele>-14.966</ele>
  <time>2026-09-01T01:18:17Z</time>
  <course>186.68</course>
  <speed>0.3101612483854165</speed>
  <fix>3d</fix>
</trkpt>
<trkpt lat="33.8100481" lon="-118.3938676">
  <ele>-14.54</ele>
  <time>2026-09-01T01:18:17Z</time>
  <course>358.13</course>
  <speed>0.31</speed>
  <fix>3d</fix>
</trkpt>
<trkpt lat="33.8100492" lon="-118.3938677">
  <ele>-14.994</ele>
  <time>2026-09-01T01:18:17Z</time>
  <course>186.68</course>
  <speed>0.3101612483854165</speed>
  <fix>3d</fix>
</trkpt>
<trkpt lat="33.8100486" lon="-118.3938676">
  <ele>-14.59</ele>
  <time>2026-09-01T01:18:17Z</time>
  <course>358.62</course>
  <speed>0.3</speed>
  <fix>3d</fix>
</trkpt>
<trkpt lat="33.8100494" lon="-118.3938677">
  <ele>-15.018</ele>
  <time>2026-09-01T01:18:17Z</time>
  <course>186.68</course>
  <speed>0.30016662039607267</speed>
  <fix>3d</fix>
</trkpt>
<trkpt lat="33.8100486" lon="-118.3938676">
  <ele>-14.59</ele>
  <time>2026-09-01T01:18:17Z</time>
  <course>358.62</course>
  <speed>0.3</speed>
  <fix>3d</fix>
</trkpt>
<trkpt lat="33.8100497" lon="-118.3938677">
  <ele>-15.039</ele>
  <time>2026-09-01T01:18:17Z</time>
  <course>186.67</course>
  <speed>0.30016662039607267</speed>
  <fix>3d</fix>
</trkpt>
<trkpt lat="33.8100492" lon="-118.3938676">
  <ele>-14.64</ele>
  <time>2026-09-01T01:18:17Z</time>
  <course>359.15</course>
  <speed>0.3</speed>
  <fix>3d</fix>
</trkpt>
<trkpt lat="33.81005" lon="-118.3938677">
  <ele>-15.057</ele>
  <time>2026-09-01T01:18:17Z</time>
  <course>186.67</course>
  <speed>0.30016662039607267</speed>
  <fix>3d</fix>
</trkpt>
<trkpt lat="33.8100492" lon="-118.3938676">
  <ele>-14.64</ele>
  <time>2026-09-01T01:18:17Z</time>
  <course>359.15</course>
  <speed>0.3</speed>
  <fix>3d</fix>
</trkpt>
<trkpt lat="33.8100502" lon="-118.3938677">
  <ele>-15.074</ele>
  <time>2026-09-01T01:18:17Z</time>
  <course>186.67</course>
  <speed>0.30016662039607267</speed>
  <fix>3d</fix>
</trkpt>
<trkpt lat="33.8100498" lon="-118.3938676">
  <ele>-14.68</ele>
  <time>2026-09-01T01:18:17Z</time>
  <course>359.65</course>
  <speed>0.29</speed>
  <fix>3d</fix>
</trkpt>
<trkpt lat="33.8100505" lon="-118.3938677">
  <ele>-15.088</ele>
  <time>2026-09-01T01:18:17Z</time>
  <course>186.68</course>
  <speed>0.30016662039607267</speed>
  <fix>3d</fix>
</trkpt>
<trkpt lat="33.8100498" lon="-118.3938676">
  <ele>-14.68</ele>
  <time>2026-09-01T01:18:17Z</time>
  <course>359.65</course>
  <speed>0.29</speed>
  <fix>3d</fix>
</trkpt>
<trkpt lat="33.8100507" lon="-118.3938677">
  <ele>-15.099</ele>
  <time>2026-09-01T01:18:17Z</time>
  <course>186.67</course>
  <speed>0.29</speed>
  <fix>3d</fix>
</trkpt>
<trkpt lat="33.8100503" lon="-118.3938676">
  <ele>-14.71</ele>
  <time>2026-09-01T01:18:17Z</time>
  <course>0.05</course>
  <speed>0.29</speed>
  <fix>3d</fix>
</trkpt>
<trkpt lat="33.810051" lon="-118.3938677">
  <ele>-15.106</ele>
  <time>2026-09-01T01:18:17Z</time>
  <course>186.67</course>
  <speed>0.29</speed>
  <fix>3d</fix>
</trkpt>
<trkpt lat="33.8100503" lon="-118.3938676">
  <ele>-14.71</ele>
  <time>2026-09-01T01:18:17Z</time>
  <course>0.05</course>
  <speed>0.29</speed>
  <fix>3d</fix>
</trkpt>
<trkpt lat="33.8100512" lon="-118.3938677">
  <ele>-15.108</ele>
  <time>2026-09-01T01:18:17Z</time>
  <course>186.67</course>
  <speed>0.29</speed>
  <fix>3d</fix>
</trkpt>
<trkpt lat="33.8100508" lon="-118.3938676">
  <ele>-14.72</ele>
  <time>2026-09-01T01:18:17Z</time>
  <course>0.37</course>
  <speed>0.28</speed>
  <fix>3d</fix>
</trkpt>
<trkpt lat="33.8100515" lon="-118.3938677">
  <ele>-15.107</ele>
  <time>2026-09-01T01:18:17Z</time>
  <course>186.67</course>
  <speed>0.29</speed>
  <fix>3d</fix>
</trkpt>
<trkpt lat="33.8100508" lon="-118.3938676">
  <ele>-14.72</ele>
  <time>2026-09-01T01:18:17Z</time>
  <course>0.37</course>
  <speed>0.28</speed>
  <fix>3d</fix>
</trkpt>
<trkpt lat="33.8100517" lon="-118.3938677">
  <ele>-15.103</ele>
  <time>2026-09-01T01:18:17Z</time>
  <course>186.66</course>
  <speed>0.28</speed>
  <fix>3d</fix>
</trkpt>
<trkpt lat="33.8100513" lon="-118.3938676">
  <ele>-14.73</ele>
  <time>2026-09-01T01:18:17Z</time>
  <course>0.62</course>
  <speed>0.28</speed>
  <fix>3d</fix>
</trkpt>
<trkpt lat="33.810052" lon="-118.3938677">
  <ele>-15.098</ele>
  <time>2026-09-01T01:18:17Z</time>
  <course>186.66</course>
  <speed>0.28</speed>
  <fix>3d</fix>
</trkpt>
<trkpt lat="33.8100513" lon="-118.3938676">
  <ele>-14.73</ele>
  <time>2026-09-01T01:18:17Z</time>
  <course>0.62</course>
  <speed>0.28</speed>
  <fix>3d</fix>
</trkpt>
<trkpt lat="33.8100522" lon="-118.3938677">
  <ele>-15.092</ele>
  <time>2026-09-01T01:18:17Z</time>
  <course>186.66</course>
  <speed>0.28</speed>
  <fix>3d</fix>
</trkpt>
<trkpt lat="33.8100518" lon="-118.3938676">
  <ele>-14.73</ele>
  <time>2026-09-01T01:18:17Z</time>
  <course>0.82</course>
  <speed>0.27</speed>
  <fix>3d</fix>
</trkpt>
<trkpt lat="33.8100524" lon="-118.3938677">
  <ele>-15.087</ele>
  <time>2026-09-01T01:18:17Z</time>
  <course>186.66</course>
  <speed>0.28</speed>
  <fix>3d</fix>
</trkpt>
<trkpt lat="33.8100518" lon="-118.3938676">
  <ele>-14.73</ele>
  <time>2026-09-01T01:18:17Z</time>
  <course>0.82</course>
  <speed>0.27</speed>
  <fix>3d</fix>
</trkpt>
<trkpt lat="33.8100527" lon="-118.3938677">
  <ele>-15.084</ele>
  <time>2026-09-01T01:18:17Z</time>
  <course>186.66</course>
  <speed>0.28</speed>
  <fix>3d</fix>
</trkpt>
<trkpt lat="33.8100523" lon="-118.3938676">
  <ele>-14.72</ele>
  <time>2026-09-01T01:18:17Z</time>
  <course>0.99</course>
  <speed>0.27</speed>
  <fix>3d</fix>
</trkpt>
<trkpt lat="33.8100529" lon="-118.3938677">
  <ele>-15.086</ele>
  <time>2026-09-01T01:18:17Z</time>
  <course>186.66</course>
  <speed>0.28</speed>
  <fix>3d</fix>
</trkpt>
<trkpt lat="33.8100523" lon="-118.3938676">
  <ele>-14.72</ele>
  <time>2026-09-01T01:18:17Z</time>
  <course>0.99</course>
  <speed>0.27</speed>
  <fix>3d</fix>
</trkpt>
<trkpt lat="33.8100532" lon="-118.3938677">
  <ele>-15.091</ele>
  <time>2026-09-01T01:18:17Z</time>
  <course>186.66</course>
  <speed>0.28</speed>
  <fix>3d</fix>
</trkpt>
<trkpt lat="33.8100528" lon="-118.3938676">
  <ele>-14.72</ele>
  <time>2026-09-01T01:18:17Z</time>
  <course>1.13</course>
  <speed>0.27</speed>
  <fix>3d</fix>
</trkpt>
<trkpt lat="33.8100534" lon="-118.3938677">
  <ele>-15.096</ele>
  <time>2026-09-01T01:18:17Z</time>
  <course>186.66</course>
  <speed>0.28</speed>
  <fix>3d</fix>
</trkpt>
<trkpt lat="33.8100528" lon="-118.3938676">
  <ele>-14.72</ele>
  <time>2026-09-01T01:18:17Z</time>
  <course>1.13</course>
  <speed>0.27</speed>
  <fix>3d</fix>
</trkpt>
<trkpt lat="33.8100537" lon="-118.3938677">
  <ele>-15.106</ele>
  <time>2026-09-01T01:18:17Z</time>
  <course>186.66</course>
  <speed>0.28</speed>
  <fix>3d</fix>
</trkpt>
<trkpt lat="33.8100532" lon="-118.3938676">
  <ele>-14.73</ele>
  <time>2026-09-01T01:18:17Z</time>
  <course>1.24</course>
  <speed>0.26</speed>
  <fix>3d</fix>
</trkpt>
<trkpt lat="33.8100539" lon="-118.3938677">
  <ele>-15.124</ele>
  <time>2026-09-01T01:18:17Z</time>
  <course>186.66</course>
  <speed>0.28</speed>
  <fix>3d</fix>
</trkpt>
<trkpt lat="33.8100532" lon="-118.3938676">
  <ele>-14.73</ele>
  <time>2026-09-01T01:18:17Z</time>
  <course>1.24</course>
  <speed>0.26</speed>
  <fix>3d</fix>
</trkpt>
<trkpt lat="33.8100541" lon="-118.3938677">
  <ele>-15.147</ele>
  <time>2026-09-01T01:18:17Z</time>
  <course>186.66</course>
  <speed>0.28</speed>
  <fix>3d</fix>
</trkpt>
<trkpt lat="33.8100537" lon="-118.3938676">
  <ele>-14.75</ele>
  <time>2026-09-01T01:18:17Z</time>
  <course>1.32</course>
  <speed>0.26</speed>
  <fix>3d</fix>
</trkpt>
<trkpt lat="33.8100544" lon="-118.3938677">
  <ele>-15.169</ele>
  <time>2026-09-01T01:18:17Z</time>
  <course>186.66</course>
  <speed>0.28</speed>
  <fix>3d</fix>
</trkpt>
<trkpt lat="33.8100537" lon="-118.3938676">
  <ele>-14.75</ele>
  <time>2026-09-01T01:18:17Z</time>
  <course>1.32</course>
  <speed>0.26</speed>
  <fix>3d</fix>
</trkpt>
<trkpt lat="33.8100546" lon="-118.3938677">
  <ele>-15.192</ele>
  <time>2026-09-01T01:18:17Z</time>
  <course>186.65</course>
  <speed>0.28</speed>
  <fix>3d</fix>
</trkpt>
<trkpt lat="33.8100542" lon="-118.3938676">
  <ele>-14.79</ele>
  <time>2026-09-01T01:18:17Z</time>
  <course>1.39</course>
  <speed>0.26</speed>
  <fix>3d</fix>
</trkpt>
<trkpt lat="33.8100548" lon="-118.3938677">
  <ele>-15.219</ele>
  <time>2026-09-01T01:18:17Z</time>
  <course>186.65</course>
  <speed>0.28</speed>
  <fix>3d</fix>
</trkpt>
<trkpt lat="33.8100542" lon="-118.3938676">
  <ele>-14.79</ele>
  <time>2026-09-01T01:18:17Z</time>
  <course>1.39</course>
  <speed>0.26</speed>
  <fix>3d</fix>
</trkpt>
<trkpt lat="33.8100551" lon="-118.3938677">
  <ele>-15.247</ele>
  <time>2026-09-01T01:18:17Z</time>
  <course>186.65</course>
  <speed>0.28</speed>
  <fix>3d</fix>
</trkpt>
<trkpt lat="33.8100547" lon="-118.3938676">
  <ele>-14.83</ele>
  <time>2026-09-01T01:18:17Z</time>
  <course>1.45</course>
  <speed>0.26</speed>
  <fix>3d</fix>
</trkpt>
<trkpt lat="33.8100553" lon="-118.3938677">
  <ele>-15.273</ele>
  <time>2026-09-01T01:18:17Z</time>
  <course>186.65</course>
  <speed>0.280178514522438</speed>
  <fix>3d</fix>
</trkpt>
<trkpt lat="33.8100547" lon="-118.3938676">
  <ele>-14.83</ele>
  <time>2026-09-01T01:18:17Z</time>
  <course>1.45</course>
  <speed>0.26</speed>
  <fix>3d</fix>
</trkpt>
<trkpt lat="33.8100556" lon="-118.3938677">
  <ele>-15.296</ele>
  <time>2026-09-01T01:18:17Z</time>
  <course>186.65</course>
  <speed>0.280178514522438</speed>
  <fix>3d</fix>
</trkpt>
<trkpt lat="33.8100552" lon="-118.3938676">
  <ele>-14.88</ele>
  <time>2026-09-01T01:18:17Z</time>
  <course>1.53</course>
  <speed>0.26</speed>
  <fix>3d</fix>
</trkpt>
<trkpt lat="33.8100558" lon="-118.3938677">
  <ele>-15.318</ele>
  <time>2026-09-01T01:18:17Z</time>
  <course>186.65</course>
  <speed>0.280178514522438</speed>
  <fix>3d</fix>
</trkpt>
<trkpt lat="33.8100552" lon="-118.3938676">
  <ele>-14.88</ele>
  <time>2026-09-01T01:18:17Z</time>
  <course>1.53</course>
  <speed>0.26</speed>
  <fix>3d</fix>
</trkpt>
<trkpt lat="33.810056" lon="-118.3938677">
  <ele>-15.341</ele>
  <time>2026-09-01T01:18:17Z</time>
  <course>186.65</course>
  <speed>0.280178514522438</speed>
  <fix>3d</fix>
</trkpt>
<trkpt lat="33.8100557" lon="-118.3938676">
  <ele>-14.93</ele>
  <time>2026-09-01T01:18:17Z</time>
  <course>1.63</course>
  <speed>0.26</speed>
  <fix>3d</fix>
</trkpt>
<trkpt lat="33.8100563" lon="-118.3938677">
  <ele>-15.361</ele>
  <time>2026-09-01T01:18:17Z</time>
  <course>186.65</course>
  <speed>0.280178514522438</speed>
  <fix>3d</fix>
</trkpt>
<trkpt lat="33.8100557" lon="-118.3938676">
  <ele>-14.93</ele>
  <time>2026-09-01T01:18:17Z</time>
  <course>1.63</course>
  <speed>0.26</speed>
  <fix>3d</fix>
</trkpt>
<trkpt lat="33.8100565" lon="-118.3938677">
  <ele>-15.38</ele>
  <time>2026-09-01T01:18:17Z</time>
  <course>186.65</course>
  <speed>0.28</speed>
  <fix>3d</fix>
</trkpt>
<trkpt lat="33.8100561" lon="-118.3938676">
  <ele>-14.96</ele>
  <time>2026-09-01T01:18:17Z</time>
  <course>1.75</course>
  <speed>0.26</speed>
  <fix>3d</fix>
</trkpt>
<trkpt lat="33.8100568" lon="-118.3938677">
  <ele>-15.397</ele>
  <time>2026-09-01T01:18:17Z</time>
  <course>186.64</course>
  <speed>0.280178514522438</speed>
  <fix>3d</fix>
</trkpt>
<trkpt lat="33.8100561" lon="-118.3938676">
  <ele>-14.96</ele>
  <time>2026-09-01T01:18:17Z</time>
  <course>1.75</course>
  <speed>0.26</speed>
  <fix>3d</fix>
</trkpt>
<trkpt lat="33.810057" lon="-118.3938677">
  <ele>-15.412</ele>
  <time>2026-09-01T01:18:17Z</time>
  <course>186.64</course>
  <speed>0.28</speed>
  <fix>3d</fix>
</trkpt>
<trkpt lat="33.8100566" lon="-118.3938675">
  <ele>-15.0</ele>
  <time>2026-09-01T01:18:17Z</time>
  <course>1.9</course>
  <speed>0.26</speed>
  <fix>3d</fix>
</trkpt>
<trkpt lat="33.8100573" lon="-118.3938677">
  <ele>-15.425</ele>
  <time>2026-09-01T01:18:17Z</time>
  <course>186.64</course>
  <speed>0.29017236257093815</speed>
  <fix>3d</fix>
</trkpt>
<trkpt lat="33.8100566" lon="-118.3938675">
  <ele>-15.0</ele>
  <time>2026-09-01T01:18:17Z</time>
  <course>1.9</course>
  <speed>0.26</speed>
  <fix>3d</fix>
</trkpt>
<trkpt lat="33.8100575" lon="-118.3938677">
  <ele>-15.431</ele>
  <time>2026-09-01T01:18:17Z</time>
  <course>186.64</course>
  <speed>0.29017236257093815</speed>
  <fix>3d</fix>
</trkpt>
<trkpt lat="33.8100571" lon="-118.3938675">
  <ele>-15.03</ele>
  <time>2026-09-01T01:18:17Z</time>
  <course>1.93</course>
  <speed>0.26</speed>
  <fix>3d</fix>
</trkpt>
<trkpt lat="33.8100578" lon="-118.3938677">
  <ele>-15.431</ele>
  <time>2026-09-01T01:18:17Z</time>
  <course>186.64</course>
  <speed>0.29017236257093815</speed>
  <fix>3d</fix>
</trkpt>
<trkpt lat="33.8100571" lon="-118.3938675">
  <ele>-15.03</ele>
  <time>2026-09-01T01:18:17Z</time>
  <course>1.93</course>
  <speed>0.26</speed>
  <fix>3d</fix>
</trkpt>
<trkpt lat="33.810058" lon="-118.3938677">
  <ele>-15.425</ele>
  <time>2026-09-01T01:18:17Z</time>
  <course>186.64</course>
  <speed>0.29017236257093815</speed>
  <fix>3d</fix>
</trkpt>
<trkpt lat="33.8100576" lon="-118.3938675">
  <ele>-15.05</ele>
  <time>2026-09-01T01:18:17Z</time>
  <course>1.76</course>
  <speed>0.27</speed>
  <fix>3d</fix>
</trkpt>
<trkpt lat="33.8100583" lon="-118.3938677">
  <ele>-15.415</ele>
  <time>2026-09-01T01:18:17Z</time>
  <course>186.64</course>
  <speed>0.29017236257093815</speed>
  <fix>3d</fix>
</trkpt>
<trkpt lat="33.8100576" lon="-118.3938675">
  <ele>-15.05</ele>
  <time>2026-09-01T01:18:17Z</time>
  <course>1.76</course>
  <speed>0.27</speed>
  <fix>3d</fix>
</trkpt>
<trkpt lat="33.8100585" lon="-118.3938677">
  <ele>-15.399</ele>
  <time>2026-09-01T01:18:17Z</time>
  <course>186.64</course>
  <speed>0.29017236257093815</speed>
  <fix>3d</fix>
</trkpt>
<trkpt lat="33.8100581" lon="-118.3938675">
  <ele>-15.04</ele>
  <time>2026-09-01T01:18:17Z</time>
  <course>1.49</course>
  <speed>0.27</speed>
  <fix>3d</fix>
</trkpt>
<trkpt lat="33.8100588" lon="-118.3938677">
  <ele>-15.382</ele>
  <time>2026-09-01T01:18:17Z</time>
  <course>186.64</course>
  <speed>0.29017236257093815</speed>
  <fix>3d</fix>
</trkpt>
<trkpt lat="33.8100581" lon="-118.3938675">
  <ele>-15.04</ele>
  <time>2026-09-01T01:18:17Z</time>
  <course>1.49</course>
  <speed>0.27</speed>
  <fix>3d</fix>
</trkpt>
<trkpt lat="33.810059" lon="-118.3938677">
  <ele>-15.366</ele>
  <time>2026-09-01T01:18:17Z</time>
  <course>186.64</course>
  <speed>0.29017236257093815</speed>
  <fix>3d</fix>
</trkpt>
<trkpt lat="33.8100586" lon="-118.3938675">
  <ele>-15.01</ele>
  <time>2026-09-01T01:18:17Z</time>
  <course>1.2</course>
  <speed>0.27</speed>
  <fix>3d</fix>
</trkpt>
<trkpt lat="33.8100593" lon="-118.3938677">
  <ele>-15.357</ele>
  <time>2026-09-01T01:18:17Z</time>
  <course>186.63</course>
  <speed>0.30016662039607267</speed>
  <fix>3d</fix>
</trkpt>
<trkpt lat="33.8100586" lon="-118.3938675">
  <ele>-15.01</ele>
  <time>2026-09-01T01:18:17Z</time>
  <course>1.2</course>
  <speed>0.27</speed>
  <fix>3d</fix>
</trkpt>
<trkpt lat="33.8100595" lon="-118.3938677">
  <ele>-15.356</ele>
  <time>2026-09-01T01:18:17Z</time>
  <course>186.64</course>
  <speed>0.30016662039607267</speed>
  <fix>3d</fix>
</trkpt>
<trkpt lat="33.8100591" lon="-118.3938675">
  <ele>-14.99</ele>
  <time>2026-09-01T01:18:17Z</time>
  <course>0.96</course>
  <speed>0.27</speed>
  <fix>3d</fix>
</trkpt>
<trkpt lat="33.8100598" lon="-118.3938677">
  <ele>-15.362</ele>
  <time>2026-09-01T01:18:17Z</time>
  <course>186.64</course>
  <speed>0.30016662039607267</speed>
  <fix>3d</fix>
</trkpt>
<trkpt lat="33.8100591" lon="-118.3938675">
  <ele>-14.99</ele>
  <time>2026-09-01T01:18:17Z</time>
  <course>0.96</course>
  <speed>0.27</speed>
  <fix>3d</fix>
</trkpt>
<trkpt lat="33.81006" lon="-118.3938677">
  <ele>-15.372</ele>
  <time>2026-09-01T01:18:17Z</time>
  <course>186.64</course>
  <speed>0.30016662039607267</speed>
  <fix>3d</fix>
</trkpt>
<trkpt lat="33.8100596" lon="-118.3938675">
  <ele>-14.99</ele>
  <time>2026-09-01T01:18:17Z</time>
  <course>0.81</course>
  <speed>0.27</speed>
  <fix>3d</fix>
</trkpt>
<trkpt lat="33.8100603" lon="-118.3938677">
  <ele>-15.39</ele>
  <time>2026-09-01T01:18:17Z</time>
  <course>186.64</course>
  <speed>0.30016662039607267</speed>
  <fix>3d</fix>
</trkpt>
<trkpt lat="33.8100596" lon="-118.3938675">
  <ele>-14.99</ele>
  <time>2026-09-01T01:18:17Z</time>
  <course>0.81</course>
  <speed>0.27</speed>
  <fix>3d</fix>
</trkpt>
<trkpt lat="33.8100606" lon="-118.3938677">
  <ele>-15.411</ele>
  <time>2026-09-01T01:18:17Z</time>
  <course>186.65</course>
  <speed>0.30016662039607267</speed>
  <fix>3d</fix>
</trkpt>
<trkpt lat="33.8100601" lon="-118.3938675">
  <ele>-15.02</ele>
  <time>2026-09-01T01:18:17Z</time>
  <course>0.72</course>
  <speed>0.28</speed>
  <fix>3d</fix>
</trkpt>
<trkpt lat="33.8100608" lon="-118.3938677">
  <ele>-15.431</ele>
  <time>2026-09-01T01:18:17Z</time>
  <course>186.65</course>
  <speed>0.30016662039607267</speed>
  <fix>3d</fix>
</trkpt>
<trkpt lat="33.8100601" lon="-118.3938675">
  <ele>-15.02</ele>
  <time>2026-09-01T01:18:17Z</time>
  <course>0.72</course>
  <speed>0.28</speed>
  <fix>3d</fix>
</trkpt>
<trkpt lat="33.8100611" lon="-118.3938677">
  <ele>-15.452</ele>
  <time>2026-09-01T01:18:17Z</time>
  <course>186.65</course>
  <speed>0.3101612483854165</speed>
  <fix>3d</fix>
</trkpt>
<trkpt lat="33.8100606" lon="-118.3938674">
  <ele>-15.05</ele>
  <time>2026-09-01T01:18:17Z</time>
  <course>0.72</course>
  <speed>0.28</speed>
  <fix>3d</fix>
</trkpt>
<trkpt lat="33.8100613" lon="-118.3938677">
  <ele>-15.473</ele>
  <time>2026-09-01T01:18:17Z</time>
  <course>186.65</course>
  <speed>0.3101612483854165</speed>
  <fix>3d</fix>
</trkpt>
<trkpt lat="33.8100606" lon="-118.3938674">
  <ele>-15.05</ele>
  <time>2026-09-01T01:18:17Z</time>
  <course>0.72</course>
  <speed>0.28</speed>
  <fix>3d</fix>
</trkpt>
<trkpt lat="33.8100616" lon="-118.3938677">
  <ele>-15.497</ele>
  <time>2026-09-01T01:18:17Z</time>
  <course>186.64</course>
  <speed>0.3101612483854165</speed>
  <fix>3d</fix>
</trkpt>
<trkpt lat="33.8100611" lon="-118.3938674">
  <ele>-15.1</ele>
  <time>2026-09-01T01:18:17Z</time>
  <course>0.65</course>
  <speed>0.28</speed>
  <fix>3d</fix>
</trkpt>
<trkpt lat="33.8100619" lon="-118.3938677">
  <ele>-15.524</ele>
  <time>2026-09-01T01:18:17Z</time>
  <course>186.64</course>
  <speed>0.3101612483854165</speed>
  <fix>3d</fix>
</trkpt>
<trkpt lat="33.8100611" lon="-118.3938674">
  <ele>-15.1</ele>
  <time>2026-09-01T01:18:17Z</time>
  <course>0.65</course>
  <speed>0.28</speed>
  <fix>3d</fix>
</trkpt>
<trkpt lat="33.8100621" lon="-118.3938676">
  <ele>-15.551</ele>
  <time>2026-09-01T01:18:17Z</time>
  <course>186.64</course>
  <speed>0.3101612483854165</speed>
  <fix>3d</fix>
</trkpt>
<trkpt lat="33.8100616" lon="-118.3938674">
  <ele>-15.14</ele>
  <time>2026-09-01T01:18:17Z</time>
  <course>0.4</course>
  <speed>0.29</speed>
  <fix>3d</fix>
</trkpt>
<trkpt lat="33.8100624" lon="-118.3938676">
  <ele>-15.576</ele>
  <time>2026-09-01T01:18:17Z</time>
  <course>186.64</course>
  <speed>0.32015621187164245</speed>
  <fix>3d</fix>
</trkpt>
<trkpt lat="33.8100616" lon="-118.3938674">
  <ele>-15.14</ele>
  <time>2026-09-01T01:18:17Z</time>
  <course>0.4</course>
  <speed>0.29</speed>
  <fix>3d</fix>
</trkpt>
<trkpt lat="33.8100626" lon="-118.3938676">
  <ele>-15.6</ele>
  <time>2026-09-01T01:18:17Z</time>
  <course>186.64</course>
  <speed>0.32015621187164245</speed>
  <fix>3d</fix>
</trkpt>
<trkpt lat="33.8100621" lon="-118.3938674">
  <ele>-15.19</ele>
  <time>2026-09-01T01:18:17Z</time>
  <course>0.1</course>
  <speed>0.29</speed>
  <fix>3d</fix>
</trkpt>
<trkpt lat="33.8100629" lon="-118.3938676">
  <ele>-15.621</ele>
  <time>2026-09-01T01:18:17Z</time>
  <course>186.64</course>
  <speed>0.32015621187164245</speed>
  <fix>3d</fix>
</trkpt>
<trkpt lat="33.8100621" lon="-118.3938674">
  <ele>-15.19</ele>
  <time>2026-09-01T01:18:17Z</time>
  <course>0.1</course>
  <speed>0.29</speed>
  <fix>3d</fix>
</trkpt>
<trkpt lat="33.8100632" lon="-118.3938676">
  <ele>-15.642</ele>
  <time>2026-09-01T01:18:17Z</time>
  <course>186.64</course>
  <speed>0.32015621187164245</speed>
  <fix>3d</fix>
</trkpt>
<trkpt lat="33.8100627" lon="-118.3938674">
  <ele>-15.24</ele>
  <time>2026-09-01T01:18:17Z</time>
  <course>359.83</course>
  <speed>0.29</speed>
  <fix>3d</fix>
</trkpt>
<trkpt lat="33.8100635" lon="-118.3938676">
  <ele>-15.661</ele>
  <time>2026-09-01T01:18:17Z</time>
  <course>186.64</course>
  <speed>0.32015621187164245</speed>
  <fix>3d</fix>
</trkpt>
<trkpt lat="33.8100627" lon="-118.3938674">
  <ele>-15.24</ele>
  <time>2026-09-01T01:18:17Z</time>
  <course>359.83</course>
  <speed>0.29</speed>
  <fix>3d</fix>
</trkpt>
<trkpt lat="33.8100637" lon="-118.3938676">
  <ele>-15.679</ele>
  <time>2026-09-01T01:18:17Z</time>
  <course>186.65</course>
  <speed>0.32015621187164245</speed>
  <fix>3d</fix>
</trkpt>
<trkpt lat="33.8100632" lon="-118.3938674">
  <ele>-15.28</ele>
  <time>2026-09-01T01:18:17Z</time>
  <course>359.65</course>
  <speed>0.3</speed>
  <fix>3d</fix>
</trkpt>
<trkpt lat="33.810064" lon="-118.3938676">
  <ele>-15.696</ele>
  <time>2026-09-01T01:18:17Z</time>
  <course>186.65</course>
  <speed>0.3306055050963308</speed>
  <fix>3d</fix>
</trkpt>
<trkpt lat="33.8100632" lon="-118.3938674">
  <ele>-15.28</ele>
  <time>2026-09-01T01:18:17Z</time>
  <course>359.65</course>
  <speed>0.3</speed>
  <fix>3d</fix>
</trkpt>
<trkpt lat="33.8100643" lon="-118.3938676">
  <ele>-15.709</ele>
  <time>2026-09-01T01:18:17Z</time>
  <course>186.65</course>
  <speed>0.3101612483854165</speed>
  <fix>3d</fix>
</trkpt>
<trkpt lat="33.8100637" lon="-118.3938674">
  <ele>-15.31</ele>
  <time>2026-09-01T01:18:17Z</time>
  <course>359.52</course>
  <speed>0.3</speed>
  <fix>3d</fix>
</trkpt>
<trkpt lat="33.8100645" lon="-118.3938676">
  <ele>-15.716</ele>
  <time>2026-09-01T01:18:17Z</time>
  <course>186.65</course>
  <speed>0.3101612483854165</speed>
  <fix>3d</fix>
</trkpt>
<trkpt lat="33.8100637" lon="-118.3938674">
  <ele>-15.31</ele>
  <time>2026-09-01T01:18:17Z</time>
  <course>359.52</course>
  <speed>0.3</speed>
  <fix>3d</fix>
</trkpt>
<trkpt lat="33.8100648" lon="-118.3938676">
  <ele>-15.72</ele>
  <time>2026-09-01T01:18:17Z</time>
  <course>186.64</course>
  <speed>0.3101612483854165</speed>
  <fix>3d</fix>
</trkpt>
<trkpt lat="33.8100643" lon="-118.3938674">
  <ele>-15.33</ele>
  <time>2026-09-01T01:18:17Z</time>
  <course>359.47</course>
  <speed>0.29</speed>
  <fix>3d</fix>
</trkpt>
<trkpt lat="33.8100651" lon="-118.3938676">
  <ele>-15.719</ele>
  <time>2026-09-01T01:18:17Z</time>
  <course>186.64</course>
  <speed>0.32015621187164245</speed>
  <fix>3d</fix>
</trkpt>
<trkpt lat="33.8100643" lon="-118.3938674">
  <ele>-15.33</ele>
  <time>2026-09-01T01:18:17Z</time>
  <course>359.47</course>
  <speed>0.29</speed>
  <fix>3d</fix>
</trkpt>
<trkpt lat="33.8100653" lon="-118.3938676">
  <ele>-15.717</ele>
  <time>2026-09-01T01:18:17Z</time>
  <course>186.65</course>
  <speed>0.32015621187164245</speed>
  <fix>3d</fix>
</trkpt>
<trkpt lat="33.8100648" lon="-118.3938674">
  <ele>-15.33</ele>
  <time>2026-09-01T01:18:17Z</time>
  <course>359.47</course>
  <speed>0.29</speed>
  <fix>3d</fix>
</trkpt>
<trkpt lat="33.8100656" lon="-118.3938676">
  <ele>-15.714</ele>
  <time>2026-09-01T01:18:17Z</time>
  <course>186.65</course>
  <speed>0.32015621187164245</speed>
  <fix>3d</fix>
</trkpt>
<trkpt lat="33.8100648" lon="-118.3938674">
  <ele>-15.33</ele>
  <time>2026-09-01T01:18:17Z</time>
  <course>359.47</course>
  <speed>0.29</speed>
  <fix>3d</fix>
</trkpt>
<trkpt lat="33.8100659" lon="-118.3938676">
  <ele>-15.709</ele>
  <time>2026-09-01T01:18:17Z</time>
  <course>186.65</course>
  <speed>0.3301514803843835</speed>
  <fix>3d</fix>
</trkpt>
<trkpt lat="33.8100654" lon="-118.3938674">
  <ele>-15.33</ele>
  <time>2026-09-01T01:18:17Z</time>
  <course>359.47</course>
  <speed>0.29</speed>
  <fix>3d</fix>
</trkpt>
<trkpt lat="33.8100662" lon="-118.3938676">
  <ele>-15.705</ele>
  <time>2026-09-01T01:18:17Z</time>
  <course>186.65</course>
  <speed>0.3301514803843835</speed>
  <fix>3d</fix>
</trkpt>
<trkpt lat="33.8100654" lon="-118.3938674">
  <ele>-15.33</ele>
  <time>2026-09-01T01:18:17Z</time>
  <course>359.47</course>
  <speed>0.29</speed>
  <fix>3d</fix>
</trkpt>
<trkpt lat="33.8100664" lon="-118.3938676">
  <ele>-15.702</ele>
  <time>2026-09-01T01:18:17Z</time>
  <course>186.65</course>
  <speed>0.3301514803843835</speed>
  <fix>3d</fix>
</trkpt>
<trkpt lat="33.8100659" lon="-118.3938674">
  <ele>-15.32</ele>
  <time>2026-09-01T01:18:17Z</time>
  <course>359.42</course>
  <speed>0.3</speed>
  <fix>3d</fix>
</trkpt>
<trkpt lat="33.8100667" lon="-118.3938676">
  <ele>-15.703</ele>
  <time>2026-09-01T01:18:17Z</time>
  <course>186.65</course>
  <speed>0.3301514803843835</speed>
  <fix>3d</fix>
</trkpt>
<trkpt lat="33.8100659" lon="-118.3938674">
  <ele>-15.32</ele>
  <time>2026-09-01T01:18:17Z</time>
  <course>359.42</course>
  <speed>0.3</speed>
  <fix>3d</fix>
</trkpt>
<trkpt lat="33.810067" lon="-118.3938676">
  <ele>-15.708</ele>
  <time>2026-09-01T01:18:17Z</time>
  <course>186.65</course>
  <speed>0.32015621187164245</speed>
  <fix>3d</fix>
</trkpt>
<trkpt lat="33.8100665" lon="-118.3938674">
  <ele>-15.32</ele>
  <time>2026-09-01T01:18:17Z</time>
  <course>359.32</course>
  <speed>0.31</speed>
  <fix>3d</fix>
</trkpt>
<trkpt lat="33.8100673" lon="-118.3938676">
  <ele>-15.719</ele>
  <time>2026-09-01T01:18:17Z</time>
  <course>186.65</course>
  <speed>0.32015621187164245</speed>
  <fix>3d</fix>
</trkpt>
<trkpt lat="33.8100665" lon="-118.3938674">
  <ele>-15.32</ele>
  <time>2026-09-01T01:18:17Z</time>
  <course>359.32</course>
  <speed>0.31</speed>
  <fix>3d</fix>
</trkpt>
<trkpt lat="33.8100675" lon="-118.3938676">
  <ele>-15.736</ele>
  <time>2026-09-01T01:18:17Z</time>
  <course>186.65</course>
  <speed>0.32015621187164245</speed>
  <fix>3d</fix>
</trkpt>
<trkpt lat="33.810067" lon="-118.3938674">
  <ele>-15.33</ele>
  <time>2026-09-01T01:18:17Z</time>
  <course>359.26</course>
  <speed>0.3</speed>
  <fix>3d</fix>
</trkpt>
<trkpt lat="33.8100678" lon="-118.3938676">
  <ele>-15.753</ele>
  <time>2026-09-01T01:18:17Z</time>
  <course>186.65</course>
  <speed>0.3301514803843835</speed>
  <fix>3d</fix>
</trkpt>
<trkpt lat="33.810067" lon="-118.3938674">
  <ele>-15.33</ele>
  <time>2026-09-01T01:18:17Z</time>
  <course>359.26</course>
  <speed>0.3</speed>
  <fix>3d</fix>
</trkpt>
<trkpt lat="33.8100681" lon="-118.3938676">
  <ele>-15.767</ele>
  <time>2026-09-01T01:18:17Z</time>
  <course>186.65</course>
  <speed>0.3301514803843835</speed>
  <fix>3d</fix>
</trkpt>
<trkpt lat="33.8100675" lon="-118.3938674">
  <ele>-15.36</ele>
  <time>2026-09-01T01:18:17Z</time>
  <course>359.23</course>
  <speed>0.3</speed>
  <fix>3d</fix>
</trkpt>
<trkpt lat="33.8100684" lon="-118.3938676">
  <ele>-15.778</ele>
  <time>2026-09-01T01:18:17Z</time>
  <course>186.65</course>
  <speed>0.3301514803843835</speed>
  <fix>3d</fix>
</trkpt>
<trkpt lat="33.8100675" lon="-118.3938674">
  <ele>-15.36</ele>
  <time>2026-09-01T01:18:18Z</time>
  <course>359.23</course>
  <speed>0.3</speed>
  <fix>3d</fix>
</trkpt>
<trkpt lat="33.8100686" lon="-118.3938676">
  <ele>-15.788</ele>
  <time>2026-09-01T01:18:18Z</time>
  <course>186.65</course>
  <speed>0.340147027033899</speed>
  <fix>3d</fix>
</trkpt>
<trkpt lat="33.810068" lon="-118.3938674">
  <ele>-15.38</ele>
  <time>2026-09-01T01:18:18Z</time>
  <course>359.23</course>
  <speed>0.3</speed>
  <fix>3d</fix>
</trkpt>
<trkpt lat="33.8100689" lon="-118.3938676">
  <ele>-15.802</ele>
  <time>2026-09-01T01:18:18Z</time>
  <course>186.65</course>
  <speed>0.340147027033899</speed>
  <fix>3d</fix>
</trkpt>
<trkpt lat="33.810068" lon="-118.3938674">
  <ele>-15.38</ele>
  <time>2026-09-01T01:18:18Z</time>
  <course>359.23</course>
  <speed>0.3</speed>
  <fix>3d</fix>
</trkpt>
<trkpt lat="33.8100692" lon="-118.3938676">
  <ele>-15.823</ele>
  <time>2026-09-01T01:18:18Z</time>
  <course>186.65</course>
  <speed>0.340147027033899</speed>
  <fix>3d</fix>
</trkpt>
<trkpt lat="33.8100687" lon="-118.3938674">
  <ele>-15.41</ele>
  <time>2026-09-01T01:18:18Z</time>
  <course>359.2</course>
  <speed>0.31</speed>
  <fix>3d</fix>
</trkpt>
<trkpt lat="33.8100695" lon="-118.3938676">
  <ele>-15.846</ele>
  <time>2026-09-01T01:18:18Z</time>
  <course>186.65</course>
  <speed>0.35014282800023194</speed>
  <fix>3d</fix>
</trkpt>
<trkpt lat="33.8100687" lon="-118.3938674">
  <ele>-15.41</ele>
  <time>2026-09-01T01:18:18Z</time>
  <course>359.2</course>
  <speed>0.31</speed>
  <fix>3d</fix>
</trkpt>
<trkpt lat="33.8100698" lon="-118.3938676">
  <ele>-15.869</ele>
  <time>2026-09-01T01:18:18Z</time>
  <course>186.65</course>
  <speed>0.35014282800023194</speed>
  <fix>3d</fix>
</trkpt>
<trkpt lat="33.8100692" lon="-118.3938674">
  <ele>-15.45</ele>
  <time>2026-09-01T01:18:18Z</time>
  <course>359.16</course>
  <speed>0.32</speed>
  <fix>3d</fix>
</trkpt>
<trkpt lat="33.8100701" lon="-118.3938676">
  <ele>-15.893</ele>
  <time>2026-09-01T01:18:18Z</time>
  <course>186.65</course>
  <speed>0.35014282800023194</speed>
  <fix>3d</fix>
</trkpt>
<trkpt lat="33.8100692" lon="-118.3938674">
  <ele>-15.45</ele>
  <time>2026-09-01T01:18:18Z</time>
  <course>359.16</course>
  <speed>0.32</speed>
  <fix>3d</fix>
</trkpt>
<trkpt lat="33.8100704" lon="-118.3938676">
  <ele>-15.917</ele>
  <time>2026-09-01T01:18:18Z</time>
  <course>186.65</course>
  <speed>0.36013886210738216</speed>
  <fix>3d</fix>
</trkpt>
<trkpt lat="33.8100697" lon="-118.3938674">
  <ele>-15.5</ele>
  <time>2026-09-01T01:18:18Z</time>
  <course>359.13</course>
  <speed>0.33</speed>
  <fix>3d</fix>
</trkpt>
<trkpt lat="33.8100707" lon="-118.3938676">
  <ele>-15.941</ele>
  <time>2026-09-01T01:18:18Z</time>
  <course>186.65</course>
  <speed>0.36013886210738216</speed>
  <fix>3d</fix>
</trkpt>
<trkpt lat="33.8100697" lon="-118.3938674">
  <ele>-15.5</ele>
  <time>2026-09-01T01:18:18Z</time>
  <course>359.13</course>
  <speed>0.33</speed>
  <fix>3d</fix>
</trkpt>
<trkpt lat="33.810071" lon="-118.3938676">
  <ele>-15.962</ele>
  <time>2026-09-01T01:18:18Z</time>
  <course>186.65</course>
  <speed>0.36013886210738216</speed>
  <fix>3d</fix>
</trkpt>
<trkpt lat="33.8100704" lon="-118.3938674">
  <ele>-15.54</ele>
  <time>2026-09-01T01:18:18Z</time>
  <course>359.12</course>
  <speed>0.33</speed>
  <fix>3d</fix>
</trkpt>
<trkpt lat="33.8100713" lon="-118.3938676">
  <ele>-15.982</ele>
  <time>2026-09-01T01:18:18Z</time>
  <course>186.65</course>
  <speed>0.340147027033899</speed>
  <fix>3d</fix>
</trkpt>
<trkpt lat="33.8100704" lon="-118.3938674">
  <ele>-15.54</ele>
  <time>2026-09-01T01:18:18Z</time>
  <course>359.12</course>
  <speed>0.33</speed>
  <fix>3d</fix>
</trkpt>
<trkpt lat="33.8100716" lon="-118.3938676">
  <ele>-15.998</ele>
  <time>2026-09-01T01:18:18Z</time>
  <course>186.66</course>
  <speed>0.340147027033899</speed>
  <fix>3d</fix>
</trkpt>
<trkpt lat="33.810071" lon="-118.3938674">
  <ele>-15.58</ele>
  <time>2026-09-01T01:18:18Z</time>
  <course>359.11</course>
  <speed>0.33</speed>
  <fix>3d</fix>
</trkpt>
<trkpt lat="33.8100718" lon="-118.3938676">
  <ele>-16.012</ele>
  <time>2026-09-01T01:18:18Z</time>
  <course>186.66</course>
  <speed>0.35014282800023194</speed>
  <fix>3d</fix>
</trkpt>
<trkpt lat="33.810071" lon="-118.3938674">
  <ele>-15.58</ele>
  <time>2026-09-01T01:18:18Z</time>
  <course>359.11</course>
  <speed>0.33</speed>
  <fix>3d</fix>
</trkpt>
<trkpt lat="33.8100721" lon="-118.3938676">
  <ele>-16.025</ele>
  <time>2026-09-01T01:18:18Z</time>
  <course>186.66</course>
  <speed>0.35014282800023194</speed>
  <fix>3d</fix>
</trkpt>
<trkpt lat="33.8100716" lon="-118.3938675">
  <ele>-15.61</ele>
  <time>2026-09-01T01:18:18Z</time>
  <course>359.13</course>
  <speed>0.32</speed>
  <fix>3d</fix>
</trkpt>
<trkpt lat="33.8100724" lon="-118.3938676">
  <ele>-16.037</ele>
  <time>2026-09-01T01:18:18Z</time>
  <course>186.66</course>
  <speed>0.35014282800023194</speed>
  <fix>3d</fix>
</trkpt>
<trkpt lat="33.8100716" lon="-118.3938675">
  <ele>-15.61</ele>
  <time>2026-09-01T01:18:18Z</time>
  <course>359.13</course>
  <speed>0.32</speed>
  <fix>3d</fix>
</trkpt>
<trkpt lat="33.8100727" lon="-118.3938676">
  <ele>-16.049</ele>
  <time>2026-09-01T01:18:18Z</time>
  <course>186.66</course>
  <speed>0.36013886210738216</speed>
  <fix>3d</fix>
</trkpt>
<trkpt lat="33.8100721" lon="-118.3938675">
  <ele>-15.63</ele>
  <time>2026-09-01T01:18:18Z</time>
  <course>359.25</course>
  <speed>0.33</speed>
  <fix>3d</fix>
</trkpt>
<trkpt lat="33.810073" lon="-118.3938676">
  <ele>-16.059</ele>
  <time>2026-09-01T01:18:18Z</time>
  <course>186.66</course>
  <speed>0.36013886210738216</speed>
  <fix>3d</fix>
</trkpt>
<trkpt lat="33.8100721" lon="-118.3938675">
  <ele>-15.63</ele>
  <time>2026-09-01T01:18:18Z</time>
  <course>359.25</course>
  <speed>0.33</speed>
  <fix>3d</fix>
</trkpt>
<trkpt lat="33.8100733" lon="-118.3938676">
  <ele>-16.065</ele>
  <time>2026-09-01T01:18:18Z</time>
  <course>186.66</course>
  <speed>0.36013886210738216</speed>
  <fix>3d</fix>
</trkpt>
<trkpt lat="33.8100728" lon="-118.3938675">
  <ele>-15.65</ele>
  <time>2026-09-01T01:18:18Z</time>
  <course>359.45</course>
  <speed>0.33</speed>
  <fix>3d</fix>
</trkpt>
<trkpt lat="33.8100736" lon="-118.3938676">
  <ele>-16.07</ele>
  <time>2026-09-01T01:18:18Z</time>
  <course>186.66</course>
  <speed>0.37013511046643494</speed>
  <fix>3d</fix>
</trkpt>
<trkpt lat="33.8100728" lon="-118.3938675">
  <ele>-15.65</ele>
  <time>2026-09-01T01:18:18Z</time>
  <course>359.45</course>
  <speed>0.33</speed>
  <fix>3d</fix>
</trkpt>
<trkpt lat="33.8100739" lon="-118.3938676">
  <ele>-16.073</ele>
  <time>2026-09-01T01:18:18Z</time>
  <course>186.66</course>
  <speed>0.37013511046643494</speed>
  <fix>3d</fix>
</trkpt>
<trkpt lat="33.8100734" lon="-118.3938675">
  <ele>-15.66</ele>
  <time>2026-09-01T01:18:18Z</time>
  <course>359.68</course>
  <speed>0.34</speed>
  <fix>3d</fix>
</trkpt>
<trkpt lat="33.8100743" lon="-118.3938676">
  <ele>-16.075</ele>
  <time>2026-09-01T01:18:18Z</time>
  <course>186.66</course>
  <speed>0.37013511046643494</speed>
  <fix>3d</fix>
</trkpt>
<trkpt lat="33.8100734" lon="-118.3938675">
  <ele>-15.66</ele>
  <time>2026-09-01T01:18:18Z</time>
  <course>359.68</course>
  <speed>0.34</speed>
  <fix>3d</fix>
</trkpt>
<trkpt lat="33.8100746" lon="-118.3938676">
  <ele>-16.079</ele>
  <time>2026-09-01T01:18:18Z</time>
  <course>186.66</course>
  <speed>0.37013511046643494</speed>
  <fix>3d</fix>
</trkpt>
<trkpt lat="33.810074" lon="-118.3938675">
  <ele>-15.67</ele>
  <time>2026-09-01T01:18:18Z</time>
  <course>359.9</course>
  <speed>0.35</speed>
  <fix>3d</fix>
</trkpt>
<trkpt lat="33.8100749" lon="-118.3938676">
  <ele>-16.08</ele>
  <time>2026-09-01T01:18:18Z</time>
  <course>186.66</course>
  <speed>0.37013511046643494</speed>
  <fix>3d</fix>
</trkpt>
<trkpt lat="33.810074" lon="-118.3938675">
  <ele>-15.67</ele>
  <time>2026-09-01T01:18:18Z</time>
  <course>359.9</course>
  <speed>0.35</speed>
  <fix>3d</fix>
</trkpt>
<trkpt lat="33.8100752" lon="-118.3938676">
  <ele>-16.082</ele>
  <time>2026-09-01T01:18:18Z</time>
  <course>186.66</course>
  <speed>0.37013511046643494</speed>
  <fix>3d</fix>
</trkpt>
<trkpt lat="33.8100747" lon="-118.3938675">
  <ele>-15.68</ele>
  <time>2026-09-01T01:18:18Z</time>
  <course>0.04</course>
  <speed>0.35</speed>
  <fix>3d</fix>
</trkpt>
<trkpt lat="33.8100755" lon="-118.3938676">
  <ele>-16.09</ele>
  <time>2026-09-01T01:18:18Z</time>
  <course>186.66</course>
  <speed>0.38013155617496425</speed>
  <fix>3d</fix>
</trkpt>
<trkpt lat="33.8100747" lon="-118.3938675">
  <ele>-15.68</ele>
  <time>2026-09-01T01:18:18Z</time>
  <course>0.04</course>
  <speed>0.35</speed>
  <fix>3d</fix>
</trkpt>
<trkpt lat="33.8100759" lon="-118.3938676">
  <ele>-16.101</ele>
  <time>2026-09-01T01:18:18Z</time>
  <course>186.66</course>
  <speed>0.38013155617496425</speed>
  <fix>3d</fix>
</trkpt>
<trkpt lat="33.8100753" lon="-118.3938675">
  <ele>-15.69</ele>
  <time>2026-09-01T01:18:18Z</time>
  <course>0.11</course>
  <speed>0.35</speed>
  <fix>3d</fix>
</trkpt>
<trkpt lat="33.8100762" lon="-118.3938676">
  <ele>-16.114</ele>
  <time>2026-09-01T01:18:18Z</time>
  <course>186.66</course>
  <speed>0.38013155617496425</speed>
  <fix>3d</fix>
</trkpt>
<trkpt lat="33.8100753" lon="-118.3938675">
  <ele>-15.69</ele>
  <time>2026-09-01T01:18:18Z</time>
  <course>0.11</course>
  <speed>0.35</speed>
  <fix>3d</fix>
</trkpt>
<trkpt lat="33.8100765" lon="-118.3938676">
  <ele>-16.131</ele>
  <time>2026-09-01T01:18:18Z</time>
  <course>186.66</course>
  <speed>0.38013155617496425</speed>
  <fix>3d</fix>
</trkpt>
<trkpt lat="33.8100759" lon="-118.3938675">
  <ele>-15.71</ele>
  <time>2026-09-01T01:18:18Z</time>
  <course>0.18</course>
  <speed>0.35</speed>
  <fix>3d</fix>
</trkpt>
<trkpt lat="33.8100768" lon="-118.3938676">
  <ele>-16.15</ele>
  <time>2026-09-01T01:18:18Z</time>
  <course>186.66</course>
  <speed>0.38013155617496425</speed>
  <fix>3d</fix>
</trkpt>
<trkpt lat="33.8100759" lon="-118.3938675">
  <ele>-15.71</ele>
  <time>2026-09-01T01:18:18Z</time>
  <course>0.18</course>
  <speed>0.35</speed>
  <fix>3d</fix>
</trkpt>
<trkpt lat="33.8100771" lon="-118.3938676">
  <ele>-16.171</ele>
  <time>2026-09-01T01:18:18Z</time>
  <course>186.66</course>
  <speed>0.38013155617496425</speed>
  <fix>3d</fix>
</trkpt>
<trkpt lat="33.8100766" lon="-118.3938675">
  <ele>-15.75</ele>
  <time>2026-09-01T01:18:18Z</time>
  <course>0.22</course>
  <speed>0.36</speed>
  <fix>3d</fix>
</trkpt>
<trkpt lat="33.8100775" lon="-118.3938676">
  <ele>-16.194</ele>
  <time>2026-09-01T01:18:18Z</time>
  <course>186.66</course>
  <speed>0.38013155617496425</speed>
  <fix>3d</fix>
</trkpt>
<trkpt lat="33.8100766" lon="-118.3938675">
  <ele>-15.75</ele>
  <time>2026-09-01T01:18:18Z</time>
  <course>0.22</course>
  <speed>0.36</speed>
  <fix>3d</fix>
</trkpt>
<trkpt lat="33.8100778" lon="-118.3938676">
  <ele>-16.216</ele>
  <time>2026-09-01T01:18:18Z</time>
  <course>186.66</course>
  <speed>0.38013155617496425</speed>
  <fix>3d</fix>
</trkpt>
<trkpt lat="33.8100773" lon="-118.3938675">
  <ele>-15.79</ele>
  <time>2026-09-01T01:18:18Z</time>
  <course>0.26</course>
  <speed>0.36</speed>
  <fix>3d</fix>
</trkpt>
<trkpt lat="33.8100781" lon="-118.3938676">
  <ele>-16.241</ele>
  <time>2026-09-01T01:18:18Z</time>
  <course>186.66</course>
  <speed>0.38013155617496425</speed>
  <fix>3d</fix>
</trkpt>
<trkpt lat="33.8100773" lon="-118.3938675">
  <ele>-15.79</ele>
  <time>2026-09-01T01:18:18Z</time>
  <course>0.26</course>
  <speed>0.36</speed>
  <fix>3d</fix>
</trkpt>
<trkpt lat="33.8100784" lon="-118.3938676">
  <ele>-16.266</ele>
  <time>2026-09-01T01:18:18Z</time>
  <course>186.66</course>
  <speed>0.38013155617496425</speed>
  <fix>3d</fix>
</trkpt>
<trkpt lat="33.8100779" lon="-118.3938675">
  <ele>-15.83</ele>
  <time>2026-09-01T01:18:18Z</time>
  <course>0.3</course>
  <speed>0.36</speed>
  <fix>3d</fix>
</trkpt>
<trkpt lat="33.8100788" lon="-118.3938676">
  <ele>-16.292</ele>
  <time>2026-09-01T01:18:18Z</time>
  <course>186.66</course>
  <speed>0.38013155617496425</speed>
  <fix>3d</fix>
</trkpt>
<trkpt lat="33.8100779" lon="-118.3938675">
  <ele>-15.83</ele>
  <time>2026-09-01T01:18:18Z</time>
  <course>0.3</course>
  <speed>0.36</speed>
  <fix>3d</fix>
</trkpt>
<trkpt lat="33.8100791" lon="-118.3938676">
  <ele>-16.315</ele>
  <time>2026-09-01T01:18:18Z</time>
  <course>186.66</course>
  <speed>0.38013155617496425</speed>
  <fix>3d</fix>
</trkpt>
<trkpt lat="33.8100786" lon="-118.3938675">
  <ele>-15.87</ele>
  <time>2026-09-01T01:18:18Z</time>
  <course>0.35</course>
  <speed>0.36</speed>
  <fix>3d</fix>
</trkpt>
<trkpt lat="33.8100794" lon="-118.3938676">
  <ele>-16.339</ele>
  <time>2026-09-01T01:18:18Z</time>
  <course>186.66</course>
  <speed>0.38013155617496425</speed>
  <fix>3d</fix>
</trkpt>
<trkpt lat="33.8100786" lon="-118.3938675">
  <ele>-15.87</ele>
  <time>2026-09-01T01:18:18Z</time>
  <course>0.35</course>
  <speed>0.36</speed>
  <fix>3d</fix>
</trkpt>
<trkpt lat="33.8100798" lon="-118.3938676">
  <ele>-16.364</ele>
  <time>2026-09-01T01:18:18Z</time>
  <course>186.66</course>
  <speed>0.38013155617496425</speed>
  <fix>3d</fix>
</trkpt>
<trkpt lat="33.8100792" lon="-118.3938675">
  <ele>-15.92</ele>
  <time>2026-09-01T01:18:18Z</time>
  <course>0.39</course>
  <speed>0.36</speed>
  <fix>3d</fix>
</trkpt>
<trkpt lat="33.8100801" lon="-118.3938676">
  <ele>-16.388</ele>
  <time>2026-09-01T01:18:18Z</time>
  <course>186.66</course>
  <speed>0.3901281840626232</speed>
  <fix>3d</fix>
</trkpt>
<trkpt lat="33.8100792" lon="-118.3938675">
  <ele>-15.92</ele>
  <time>2026-09-01T01:18:18Z</time>
  <course>0.39</course>
  <speed>0.36</speed>
  <fix>3d</fix>
</trkpt>
<trkpt lat="33.8100804" lon="-118.3938676">
  <ele>-16.41</ele>
  <time>2026-09-01T01:18:18Z</time>
  <course>186.66</course>
  <speed>0.3901281840626232</speed>
  <fix>3d</fix>
</trkpt>
<trkpt lat="33.8100799" lon="-118.3938675">
  <ele>-15.97</ele>
  <time>2026-09-01T01:18:18Z</time>
  <course>0.43</course>
  <speed>0.36</speed>
  <fix>3d</fix>
</trkpt>
<trkpt lat="33.8100808" lon="-118.3938676">
  <ele>-16.43</ele>
  <time>2026-09-01T01:18:18Z</time>
  <course>186.66</course>
  <speed>0.3901281840626232</speed>
  <fix>3d</fix>
</trkpt>
<trkpt lat="33.8100799" lon="-118.3938675">
  <ele>-15.97</ele>
  <time>2026-09-01T01:18:18Z</time>
  <course>0.43</course>
  <speed>0.36</speed>
  <fix>3d</fix>
</trkpt>
<trkpt lat="33.8100811" lon="-118.3938676">
  <ele>-16.446</ele>
  <time>2026-09-01T01:18:18Z</time>
  <course>186.66</course>
  <speed>0.3901281840626232</speed>
  <fix>3d</fix>
</trkpt>
<trkpt lat="33.8100805" lon="-118.3938675">
  <ele>-16.01</ele>
  <time>2026-09-01T01:18:18Z</time>
  <course>0.5</course>
  <speed>0.37</speed>
  <fix>3d</fix>
</trkpt>
<trkpt lat="33.8100814" lon="-118.3938676">
  <ele>-16.46</ele>
  <time>2026-09-01T01:18:18Z</time>
  <course>186.66</course>
  <speed>0.3901281840626232</speed>
  <fix>3d</fix>
</trkpt>
<trkpt lat="33.8100805" lon="-118.3938675">
  <ele>-16.01</ele>
  <time>2026-09-01T01:18:18Z</time>
  <course>0.5</course>
  <speed>0.37</speed>
  <fix>3d</fix>
</trkpt>
<trkpt lat="33.8100818" lon="-118.3938676">
  <ele>-16.472</ele>
  <time>2026-09-01T01:18:18Z</time>
  <course>186.66</course>
  <speed>0.3901281840626232</speed>
  <fix>3d</fix>
</trkpt>
<trkpt lat="33.8100812" lon="-118.3938675">
  <ele>-16.04</ele>
  <time>2026-09-01T01:18:18Z</time>
  <course>0.55</course>
  <speed>0.37</speed>
  <fix>3d</fix>
</trkpt>
<trkpt lat="33.8100821" lon="-118.3938676">
  <ele>-16.481</ele>
  <time>2026-09-01T01:18:18Z</time>
  <course>186.66</course>
  <speed>0.3901281840626232</speed>
  <fix>3d</fix>
</trkpt>
<trkpt lat="33.8100812" lon="-118.3938675">
  <ele>-16.04</ele>
  <time>2026-09-01T01:18:18Z</time>
  <course>0.55</course>
  <speed>0.37</speed>
  <fix>3d</fix>
</trkpt>
<trkpt lat="33.8100824" lon="-118.3938676">
  <ele>-16.486</ele>
  <time>2026-09-01T01:18:18Z</time>
  <course>186.66</course>
  <speed>0.3901281840626232</speed>
  <fix>3d</fix>
</trkpt>
<trkpt lat="33.8100819" lon="-118.3938675">
  <ele>-16.07</ele>
  <time>2026-09-01T01:18:18Z</time>
  <course>0.58</course>
  <speed>0.37</speed>
  <fix>3d</fix>
</trkpt>
<trkpt lat="33.8100828" lon="-118.3938676">
  <ele>-16.488</ele>
  <time>2026-09-01T01:18:18Z</time>
  <course>186.66</course>
  <speed>0.4001249804748511</speed>
  <fix>3d</fix>
</trkpt>
<trkpt lat="33.8100819" lon="-118.3938675">
  <ele>-16.07</ele>
  <time>2026-09-01T01:18:18Z</time>
  <course>0.58</course>
  <speed>0.37</speed>
  <fix>3d</fix>
</trkpt>
<trkpt lat="33.8100831" lon="-118.3938676">
  <ele>-16.489</ele>
  <time>2026-09-01T01:18:18Z</time>
  <course>186.67</course>
  <speed>0.4001249804748511</speed>
  <fix>3d</fix>
</trkpt>
<trkpt lat="33.8100826" lon="-118.3938675">
  <ele>-16.08</ele>
  <time>2026-09-01T01:18:18Z</time>
  <course>0.62</course>
  <speed>0.37</speed>
  <fix>3d</fix>
</trkpt>
<trkpt lat="33.8100835" lon="-118.3938676">
  <ele>-16.489</ele>
  <time>2026-09-01T01:18:18Z</time>
  <course>186.67</course>
  <speed>0.4001249804748511</speed>
  <fix>3d</fix>
</trkpt>
<trkpt lat="33.8100826" lon="-118.3938675">
  <ele>-16.08</ele>
  <time>2026-09-01T01:18:18Z</time>
  <course>0.62</course>
  <speed>0.37</speed>
  <fix>3d</fix>
</trkpt>
<trkpt lat="33.8100838" lon="-118.3938676">
  <ele>-16.494</ele>
  <time>2026-09-01T01:18:18Z</time>
  <course>186.66</course>
  <speed>0.37013511046643494</speed>
  <fix>3d</fix>
</trkpt>
<trkpt lat="33.8100832" lon="-118.3938675">
  <ele>-16.09</ele>
  <time>2026-09-01T01:18:18Z</time>
  <course>0.64</course>
  <speed>0.37</speed>
  <fix>3d</fix>
</trkpt>
<trkpt lat="33.8100841" lon="-118.3938676">
  <ele>-16.504</ele>
  <time>2026-09-01T01:18:18Z</time>
  <course>186.66</course>
  <speed>0.37013511046643494</speed>
  <fix>3d</fix>
</trkpt>
<trkpt lat="33.8100832" lon="-118.3938675">
  <ele>-16.09</ele>
  <time>2026-09-01T01:18:18Z</time>
  <course>0.64</course>
  <speed>0.37</speed>
  <fix>3d</fix>
</trkpt>
<trkpt lat="33.8100844" lon="-118.3938676">
  <ele>-16.518</ele>
  <time>2026-09-01T01:18:18Z</time>
  <course>186.66</course>
  <speed>0.38013155617496425</speed>
  <fix>3d</fix>
</trkpt>
<trkpt lat="33.8100839" lon="-118.3938675">
  <ele>-16.1</ele>
  <time>2026-09-01T01:18:18Z</time>
  <course>0.7</course>
  <speed>0.36</speed>
  <fix>3d</fix>
</trkpt>
<trkpt lat="33.8100848" lon="-118.3938676">
  <ele>-16.535</ele>
  <time>2026-09-01T01:18:18Z</time>
  <course>186.66</course>
  <speed>0.38013155617496425</speed>
  <fix>3d</fix>
</trkpt>
<trkpt lat="33.8100839" lon="-118.3938675">
  <ele>-16.1</ele>
  <time>2026-09-01T01:18:18Z</time>
  <course>0.7</course>
  <speed>0.36</speed>
  <fix>3d</fix>
</trkpt>
<trkpt lat="33.8100851" lon="-118.3938676">
  <ele>-16.554</ele>
  <time>2026-09-01T01:18:18Z</time>
  <course>186.66</course>
  <speed>0.38013155617496425</speed>
  <fix>3d</fix>
</trkpt>
<trkpt lat="33.8100845" lon="-118.3938675">
  <ele>-16.12</ele>
  <time>2026-09-01T01:18:18Z</time>
  <course>0.77</course>
  <speed>0.35</speed>
  <fix>3d</fix>
</trkpt>
<trkpt lat="33.8100854" lon="-118.3938676">
  <ele>-16.578</ele>
  <time>2026-09-01T01:18:18Z</time>
  <course>186.66</course>
  <speed>0.3901281840626232</speed>
  <fix>3d</fix>
</trkpt>
<trkpt lat="33.8100845" lon="-118.3938675">
  <ele>-16.12</ele>
  <time>2026-09-01T01:18:18Z</time>
  <course>0.77</course>
  <speed>0.35</speed>
  <fix>3d</fix>
</trkpt>
<trkpt lat="33.8100858" lon="-118.3938676">
  <ele>-16.602</ele>
  <time>2026-09-01T01:18:18Z</time>
  <course>186.66</course>
  <speed>0.3901281840626232</speed>
  <fix>3d</fix>
</trkpt>
<trkpt lat="33.8100852" lon="-118.3938675">
  <ele>-16.16</ele>
  <time>2026-09-01T01:18:18Z</time>
  <course>0.8</course>
  <speed>0.36</speed>
  <fix>3d</fix>
</trkpt>
<trkpt lat="33.8100861" lon="-118.3938676">
  <ele>-16.626</ele>
  <time>2026-09-01T01:18:18Z</time>
  <course>186.66</course>
  <speed>0.3901281840626232</speed>
  <fix>3d</fix>
</trkpt>
<trkpt lat="33.8100852" lon="-118.3938675">
  <ele>-16.16</ele>
  <time>2026-09-01T01:18:18Z</time>
  <course>0.8</course>
  <speed>0.36</speed>
  <fix>3d</fix>
</trkpt>
<trkpt lat="33.8100864" lon="-118.3938676">
  <ele>-16.65</ele>
  <time>2026-09-01T01:18:18Z</time>
  <course>186.66</course>
  <speed>0.4001249804748511</speed>
  <fix>3d</fix>
</trkpt>
<trkpt lat="33.8100859" lon="-118.3938675">
  <ele>-16.2</ele>
  <time>2026-09-01T01:18:18Z</time>
  <course>0.8</course>
  <speed>0.37</speed>
  <fix>3d</fix>
</trkpt>
<trkpt lat="33.8100868" lon="-118.3938676">
  <ele>-16.672</ele>
  <time>2026-09-01T01:18:18Z</time>
  <course>186.66</course>
  <speed>0.4001249804748511</speed>
  <fix>3d</fix>
</trkpt>
<trkpt lat="33.8100859" lon="-118.3938675">
  <ele>-16.2</ele>
  <time>2026-09-01T01:18:18Z</time>
  <course>0.8</course>
  <speed>0.37</speed>
  <fix>3d</fix>
</trkpt>
<trkpt lat="33.8100871" lon="-118.3938676">
  <ele>-16.692</ele>
  <time>2026-09-01T01:18:18Z</time>
  <course>186.66</course>
  <speed>0.4001249804748511</speed>
  <fix>3d</fix>
</trkpt>
<trkpt lat="33.8100865" lon="-118.3938675">
  <ele>-16.25</ele>
  <time>2026-09-01T01:18:18Z</time>
  <course>0.8</course>
  <speed>0.37</speed>
  <fix>3d</fix>
</trkpt>
<trkpt lat="33.8100875" lon="-118.3938676">
  <ele>-16.711</ele>
  <time>2026-09-01T01:18:18Z</time>
  <course>186.66</course>
  <speed>0.4001249804748511</speed>
  <fix>3d</fix>
</trkpt>
<trkpt lat="33.8100865" lon="-118.3938675">
  <ele>-16.25</ele>
  <time>2026-09-01T01:18:18Z</time>
  <course>0.8</course>
  <speed>0.37</speed>
  <fix>3d</fix>
</trkpt>
<trkpt lat="33.8100878" lon="-118.3938676">
  <ele>-16.731</ele>
  <time>2026-09-01T01:18:18Z</time>
  <course>186.66</course>
  <speed>0.4001249804748511</speed>
  <fix>3d</fix>
</trkpt>
<trkpt lat="33.8100872" lon="-118.3938674">
  <ele>-16.29</ele>
  <time>2026-09-01T01:18:18Z</time>
  <course>0.78</course>
  <speed>0.38</speed>
  <fix>3d</fix>
</trkpt>
<trkpt lat="33.8100882" lon="-118.3938676">
  <ele>-16.756</ele>
  <time>2026-09-01T01:18:18Z</time>
  <course>186.66</course>
  <speed>0.41012193308819755</speed>
  <fix>3d</fix>
</trkpt>
<trkpt lat="33.8100872" lon="-118.3938674">
  <ele>-16.29</ele>
  <time>2026-09-01T01:18:18Z</time>
  <course>0.78</course>
  <speed>0.38</speed>
  <fix>3d</fix>
</trkpt>
<trkpt lat="33.8100885" lon="-118.3938676">
  <ele>-16.781</ele>
  <time>2026-09-01T01:18:18Z</time>
  <course>186.66</course>
  <speed>0.41012193308819755</speed>
  <fix>3d</fix>
</trkpt>
<trkpt lat="33.8100879" lon="-118.3938674">
  <ele>-16.33</ele>
  <time>2026-09-01T01:18:18Z</time>
  <course>0.71</course>
  <speed>0.38</speed>
  <fix>3d</fix>
</trkpt>
<trkpt lat="33.8100889" lon="-118.3938676">
  <ele>-16.804</ele>
  <time>2026-09-01T01:18:18Z</time>
  <course>186.66</course>
  <speed>0.41012193308819755</speed>
  <fix>3d</fix>
</trkpt>
<trkpt lat="33.8100879" lon="-118.3938674">
  <ele>-16.33</ele>
  <time>2026-09-01T01:18:18Z</time>
  <course>0.71</course>
  <speed>0.38</speed>
  <fix>3d</fix>
</trkpt>
<trkpt lat="33.8100892" lon="-118.3938676">
  <ele>-16.822</ele>
  <time>2026-09-01T01:18:18Z</time>
  <course>186.66</course>
  <speed>0.41012193308819755</speed>
  <fix>3d</fix>
</trkpt>
<trkpt lat="33.8100886" lon="-118.3938674">
  <ele>-16.38</ele>
  <time>2026-09-01T01:18:18Z</time>
  <course>0.54</course>
  <speed>0.39</speed>
  <fix>3d</fix>
</trkpt>
<trkpt lat="33.8100896" lon="-118.3938676">
  <ele>-16.836</ele>
  <time>2026-09-01T01:18:18Z</time>
  <course>186.66</course>
  <speed>0.41012193308819755</speed>
  <fix>3d</fix>
</trkpt>
<trkpt lat="33.8100886" lon="-118.3938674">
  <ele>-16.38</ele>
  <time>2026-09-01T01:18:18Z</time>
  <course>0.54</course>
  <speed>0.39</speed>
  <fix>3d</fix>
</trkpt>
<trkpt lat="33.8100899" lon="-118.3938676">
  <ele>-16.845</ele>
  <time>2026-09-01T01:18:18Z</time>
  <course>186.66</course>
  <speed>0.41012193308819755</speed>
  <fix>3d</fix>
</trkpt>
<trkpt lat="33.8100893" lon="-118.3938674">
  <ele>-16.41</ele>
  <time>2026-09-01T01:18:18Z</time>
  <course>0.37</course>
  <speed>0.39</speed>
  <fix>3d</fix>
</trkpt>
<trkpt lat="33.8100903" lon="-118.3938676">
  <ele>-16.85</ele>
  <time>2026-09-01T01:18:18Z</time>
  <course>186.66</course>
  <speed>0.4201190307520001</speed>
  <fix>3d</fix>
</trkpt>
<trkpt lat="33.8100893" lon="-118.3938674">
  <ele>-16.41</ele>
  <time>2026-09-01T01:18:18Z</time>
  <course>0.37</course>
  <speed>0.39</speed>
  <fix>3d</fix>
</trkpt>
<trkpt lat="33.8100906" lon="-118.3938676">
  <ele>-16.855</ele>
  <time>2026-09-01T01:18:18Z</time>
  <course>186.66</course>
  <speed>0.4201190307520001</speed>
  <fix>3d</fix>
</trkpt>
<trkpt lat="33.81009" lon="-118.3938674">
  <ele>-16.43</ele>
  <time>2026-09-01T01:18:18Z</time>
  <course>0.2</course>
  <speed>0.39</speed>
  <fix>3d</fix>
</trkpt>
<trkpt lat="33.810091" lon="-118.3938676">
  <ele>-16.858</ele>
  <time>2026-09-01T01:18:18Z</time>
  <course>186.66</course>
  <speed>0.4201190307520001</speed>
  <fix>3d</fix>
</trkpt>
<trkpt lat="33.81009" lon="-118.3938674">
  <ele>-16.43</ele>
  <time>2026-09-01T01:18:18Z</time>
  <course>0.2</course>
  <speed>0.39</speed>
  <fix>3d</fix>
</trkpt>
<trkpt lat="33.8100913" lon="-118.3938676">
  <ele>-16.861</ele>
  <time>2026-09-01T01:18:18Z</time>
  <course>186.66</course>
  <speed>0.4201190307520001</speed>
  <fix>3d</fix>
</trkpt>
<trkpt lat="33.8100907" lon="-118.3938674">
  <ele>-16.44</ele>
  <time>2026-09-01T01:18:18Z</time>
  <course>0.09</course>
  <speed>0.39</speed>
  <fix>3d</fix>
</trkpt>
<trkpt lat="33.8100917" lon="-118.3938676">
  <ele>-16.868</ele>
  <time>2026-09-01T01:18:18Z</time>
  <course>186.66</course>
  <speed>0.4201190307520001</speed>
  <fix>3d</fix>
</trkpt>
<trkpt lat="33.8100907" lon="-118.3938674">
  <ele>-16.44</ele>
  <time>2026-09-01T01:18:18Z</time>
  <course>0.09</course>
  <speed>0.39</speed>
  <fix>3d</fix>
</trkpt>
<trkpt lat="33.8100921" lon="-118.3938676">
  <ele>-16.876</ele>
  <time>2026-09-01T01:18:18Z</time>
  <course>186.66</course>
  <speed>0.4201190307520001</speed>
  <fix>3d</fix>
</trkpt>
<trkpt lat="33.8100915" lon="-118.3938674">
  <ele>-16.46</ele>
  <time>2026-09-01T01:18:18Z</time>
  <course>0.02</course>
  <speed>0.4</speed>
  <fix>3d</fix>
</trkpt>
<trkpt lat="33.8100924" lon="-118.3938676">
  <ele>-16.884</ele>
  <time>2026-09-01T01:18:18Z</time>
  <course>186.66</course>
  <speed>0.4201190307520001</speed>
  <fix>3d</fix>
</trkpt>
<trkpt lat="33.8100915" lon="-118.3938674">
  <ele>-16.46</ele>
  <time>2026-09-01T01:18:18Z</time>
  <course>0.02</course>
  <speed>0.4</speed>
  <fix>3d</fix>
</trkpt>
<trkpt lat="33.8100928" lon="-118.3938676">
  <ele>-16.891</ele>
  <time>2026-09-01T01:18:18Z</time>
  <course>186.66</course>
  <speed>0.4201190307520001</speed>
  <fix>3d</fix>
</trkpt>
<trkpt lat="33.8100922" lon="-118.3938674">
  <ele>-16.47</ele>
  <time>2026-09-01T01:18:18Z</time>
  <course>359.98</course>
  <speed>0.4</speed>
  <fix>3d</fix>
</trkpt>
<trkpt lat="33.8100932" lon="-118.3938676">
  <ele>-16.9</ele>
  <time>2026-09-01T01:18:18Z</time>
  <course>186.66</course>
  <speed>0.4201190307520001</speed>
  <fix>3d</fix>
</trkpt>
<trkpt lat="33.8100922" lon="-118.3938674">
  <ele>-16.47</ele>
  <time>2026-09-01T01:18:18Z</time>
  <course>359.98</course>
  <speed>0.4</speed>
  <fix>3d</fix>
</trkpt>
<trkpt lat="33.8100935" lon="-118.3938676">
  <ele>-16.914</ele>
  <time>2026-09-01T01:18:18Z</time>
  <course>186.66</course>
  <speed>0.4201190307520001</speed>
  <fix>3d</fix>
</trkpt>
<trkpt lat="33.8100929" lon="-118.3938674">
  <ele>-16.49</ele>
  <time>2026-09-01T01:18:18Z</time>
  <course>359.95</course>
  <speed>0.4</speed>
  <fix>3d</fix>
</trkpt>
<trkpt lat="33.8100939" lon="-118.3938676">
  <ele>-16.93</ele>
  <time>2026-09-01T01:18:18Z</time>
  <course>186.66</course>
  <speed>0.4201190307520001</speed>
  <fix>3d</fix>
</trkpt>
<trkpt lat="33.8100929" lon="-118.3938674">
  <ele>-16.49</ele>
  <time>2026-09-01T01:18:18Z</time>
  <course>359.95</course>
  <speed>0.4</speed>
  <fix>3d</fix>
</trkpt>
<trkpt lat="33.8100942" lon="-118.3938676">
  <ele>-16.951</ele>
  <time>2026-09-01T01:18:18Z</time>
  <course>186.66</course>
  <speed>0.4201190307520001</speed>
  <fix>3d</fix>
</trkpt>
<trkpt lat="33.8100936" lon="-118.3938674">
  <ele>-16.51</ele>
  <time>2026-09-01T01:18:18Z</time>
  <course>359.95</course>
  <speed>0.4</speed>
  <fix>3d</fix>
</trkpt>
<trkpt lat="33.8100946" lon="-118.3938676">
  <ele>-16.976</ele>
  <time>2026-09-01T01:18:18Z</time>
  <course>186.66</course>
  <speed>0.4201190307520001</speed>
  <fix>3d</fix>
</trkpt>
<trkpt lat="33.8100936" lon="-118.3938674">
  <ele>-16.51</ele>
  <time>2026-09-01T01:18:18Z</time>
  <course>359.95</course>
  <speed>0.4</speed>
  <fix>3d</fix>
</trkpt>
<trkpt lat="33.810095" lon="-118.3938676">
  <ele>-17.004</ele>
  <time>2026-09-01T01:18:18Z</time>
  <course>186.66</course>
  <speed>0.4201190307520001</speed>
  <fix>3d</fix>
</trkpt>
<trkpt lat="33.8100943" lon="-118.3938674">
  <ele>-16.55</ele>
  <time>2026-09-01T01:18:18Z</time>
  <course>359.94</course>
  <speed>0.4</speed>
  <fix>3d</fix>
</trkpt>
<trkpt lat="33.8100953" lon="-118.3938676">
  <ele>-17.031</ele>
  <time>2026-09-01T01:18:18Z</time>
  <course>186.66</course>
  <speed>0.4301162633521314</speed>
  <fix>3d</fix>
</trkpt>
<trkpt lat="33.8100943" lon="-118.3938674">
  <ele>-16.55</ele>
  <time>2026-09-01T01:18:18Z</time>
  <course>359.94</course>
  <speed>0.4</speed>
  <fix>3d</fix>
</trkpt>
<trkpt lat="33.8100957" lon="-118.3938676">
  <ele>-17.056</ele>
  <time>2026-09-01T01:18:18Z</time>
  <course>186.66</course>
  <speed>0.4301162633521314</speed>
  <fix>3d</fix>
</trkpt>
<trkpt lat="33.8100951" lon="-118.3938674">
  <ele>-16.59</ele>
  <time>2026-09-01T01:18:18Z</time>
  <course>359.91</course>
  <speed>0.4</speed>
  <fix>3d</fix>
</trkpt>
<trkpt lat="33.8100961" lon="-118.3938676">
  <ele>-17.08</ele>
  <time>2026-09-01T01:18:18Z</time>
  <course>186.66</course>
  <speed>0.4301162633521314</speed>
  <fix>3d</fix>
</trkpt>
<trkpt lat="33.8100951" lon="-118.3938674">
  <ele>-16.59</ele>
  <time>2026-09-01T01:18:18Z</time>
  <course>359.91</course>
  <speed>0.4</speed>
  <fix>3d</fix>
</trkpt>
<trkpt lat="33.8100964" lon="-118.3938676">
  <ele>-17.103</ele>
  <time>2026-09-01T01:18:18Z</time>
  <course>186.66</course>
  <speed>0.4301162633521314</speed>
  <fix>3d</fix>
</trkpt>
<trkpt lat="33.8100958" lon="-118.3938674">
  <ele>-16.64</ele>
  <time>2026-09-01T01:18:18Z</time>
  <course>359.91</course>
  <speed>0.4</speed>
  <fix>3d</fix>
</trkpt>
<trkpt lat="33.8100968" lon="-118.3938676">
  <ele>-17.125</ele>
  <time>2026-09-01T01:18:18Z</time>
  <course>186.66</course>
  <speed>0.4301162633521314</speed>
  <fix>3d</fix>
</trkpt>
<trkpt lat="33.8100958" lon="-118.3938674">
  <ele>-16.64</ele>
  <time>2026-09-01T01:18:18Z</time>
  <course>359.91</course>
  <speed>0.4</speed>
  <fix>3d</fix>
</trkpt>
<trkpt lat="33.8100972" lon="-118.3938676">
  <ele>-17.147</ele>
  <time>2026-09-01T01:18:18Z</time>
  <course>186.66</course>
  <speed>0.4301162633521314</speed>
  <fix>3d</fix>
</trkpt>
<trkpt lat="33.8100965" lon="-118.3938674">
  <ele>-16.68</ele>
  <time>2026-09-01T01:18:18Z</time>
  <course>359.87</course>
  <speed>0.41</speed>
  <fix>3d</fix>
</trkpt>
<trkpt lat="33.8100975" lon="-118.3938676">
  <ele>-17.168</ele>
  <time>2026-09-01T01:18:18Z</time>
  <course>186.66</course>
  <speed>0.4301162633521314</speed>
  <fix>3d</fix>
</trkpt>
<trkpt lat="33.8100965" lon="-118.3938674">
  <ele>-16.68</ele>
  <time>2026-09-01T01:18:18Z</time>
  <course>359.87</course>
  <speed>0.41</speed>
  <fix>3d</fix>
</trkpt>
<trkpt lat="33.8100979" lon="-118.3938676">
  <ele>-17.185</ele>
  <time>2026-09-01T01:18:18Z</time>
  <course>186.66</course>
  <speed>0.4301162633521314</speed>
  <fix>3d</fix>
</trkpt>
<trkpt lat="33.8100973" lon="-118.3938674">
  <ele>-16.73</ele>
  <time>2026-09-01T01:18:18Z</time>
  <course>359.84</course>
  <speed>0.41</speed>
  <fix>3d</fix>
</trkpt>
<trkpt lat="33.8100983" lon="-118.3938676">
  <ele>-17.2</ele>
  <time>2026-09-01T01:18:18Z</time>
  <course>186.66</course>
  <speed>0.4301162633521314</speed>
  <fix>3d</fix>
</trkpt>
<trkpt lat="33.8100973" lon="-118.3938674">
  <ele>-16.73</ele>
  <time>2026-09-01T01:18:18Z</time>
  <course>359.84</course>
  <speed>0.41</speed>
  <fix>3d</fix>
</trkpt>
<trkpt lat="33.8100987" lon="-118.3938676">
  <ele>-17.212</ele>
  <time>2026-09-01T01:18:18Z</time>
  <course>186.66</course>
  <speed>0.4301162633521314</speed>
  <fix>3d</fix>
</trkpt>
<trkpt lat="33.810098" lon="-118.3938674">
  <ele>-16.76</ele>
  <time>2026-09-01T01:18:18Z</time>
  <course>359.83</course>
  <speed>0.41</speed>
  <fix>3d</fix>
</trkpt>
<trkpt lat="33.810099" lon="-118.3938676">
  <ele>-17.222</ele>
  <time>2026-09-01T01:18:18Z</time>
  <course>186.66</course>
  <speed>0.4301162633521314</speed>
  <fix>3d</fix>
</trkpt>
<trkpt lat="33.810098" lon="-118.3938674">
  <ele>-16.76</ele>
  <time>2026-09-01T01:18:18Z</time>
  <course>359.83</course>
  <speed>0.41</speed>
  <fix>3d</fix>
</trkpt>
<trkpt lat="33.8100994" lon="-118.3938676">
  <ele>-17.23</ele>
  <time>2026-09-01T01:18:18Z</time>
  <course>186.66</course>
  <speed>0.4301162633521314</speed>
  <fix>3d</fix>
</trkpt>
<trkpt lat="33.8100988" lon="-118.3938674">
  <ele>-16.79</ele>
  <time>2026-09-01T01:18:18Z</time>
  <course>359.85</course>
  <speed>0.41</speed>
  <fix>3d</fix>
</trkpt>
<trkpt lat="33.8100998" lon="-118.3938676">
  <ele>-17.236</ele>
  <time>2026-09-01T01:18:18Z</time>
  <course>186.66</course>
  <speed>0.44011362169330775</speed>
  <fix>3d</fix>
</trkpt>
<trkpt lat="33.8100988" lon="-118.3938674">
  <ele>-16.79</ele>
  <time>2026-09-01T01:18:18Z</time>
  <course>359.85</course>
  <speed>0.41</speed>
  <fix>3d</fix>
</trkpt>
<trkpt lat="33.8101002" lon="-118.3938676">
  <ele>-17.24</ele>
  <time>2026-09-01T01:18:18Z</time>
  <course>186.66</course>
  <speed>0.44011362169330775</speed>
  <fix>3d</fix>
</trkpt>
<trkpt lat="33.8100995" lon="-118.3938674">
  <ele>-16.8</ele>
  <time>2026-09-01T01:18:18Z</time>
  <course>359.84</course>
  <speed>0.41</speed>
  <fix>3d</fix>
</trkpt>
<trkpt lat="33.8101005" lon="-118.3938676">
  <ele>-17.248</ele>
  <time>2026-09-01T01:18:18Z</time>
  <course>186.66</course>
  <speed>0.44011362169330775</speed>
  <fix>3d</fix>
</trkpt>
<trkpt lat="33.8100995" lon="-118.3938674">
  <ele>-16.8</ele>
  <time>2026-09-01T01:18:18Z</time>
  <course>359.84</course>
  <speed>0.41</speed>
  <fix>3d</fix>
</trkpt>
<trkpt lat="33.8101009" lon="-118.3938676">
  <ele>-17.261</ele>
  <time>2026-09-01T01:18:18Z</time>
  <course>186.66</course>
  <speed>0.44011362169330775</speed>
  <fix>3d</fix>
</trkpt>
<trkpt lat="33.8101003" lon="-118.3938674">
  <ele>-16.82</ele>
  <time>2026-09-01T01:18:18Z</time>
  <course>359.79</course>
  <speed>0.41</speed>
  <fix>3d</fix>
</trkpt>
<trkpt lat="33.8101013" lon="-118.3938676">
  <ele>-17.276</ele>
  <time>2026-09-01T01:18:18Z</time>
  <course>186.66</course>
  <speed>0.44011362169330775</speed>
  <fix>3d</fix>
</trkpt>
<trkpt lat="33.8101003" lon="-118.3938674">
  <ele>-16.82</ele>
  <time>2026-09-01T01:18:18Z</time>
  <course>359.79</course>
  <speed>0.41</speed>
  <fix>3d</fix>
</trkpt>
<trkpt lat="33.8101017" lon="-118.3938676">
  <ele>-17.29</ele>
  <time>2026-09-01T01:18:18Z</time>
  <course>186.66</course>
  <speed>0.44011362169330775</speed>
  <fix>3d</fix>
</trkpt>
<trkpt lat="33.810101" lon="-118.3938674">
  <ele>-16.84</ele>
  <time>2026-09-01T01:18:18Z</time>
  <course>359.75</course>
  <speed>0.41</speed>
  <fix>3d</fix>
</trkpt>
<trkpt lat="33.810102" lon="-118.3938676">
  <ele>-17.302</ele>
  <time>2026-09-01T01:18:18Z</time>
  <course>186.66</course>
  <speed>0.44011362169330775</speed>
  <fix>3d</fix>
</trkpt>
<trkpt lat="33.810101" lon="-118.3938674">
  <ele>-16.84</ele>
  <time>2026-09-01T01:18:18Z</time>
  <course>359.75</course>
  <speed>0.41</speed>
  <fix>3d</fix>
</trkpt>
<trkpt lat="33.8101024" lon="-118.3938676">
  <ele>-17.318</ele>
  <time>2026-09-01T01:18:18Z</time>
  <course>186.66</course>
  <speed>0.44011362169330775</speed>
  <fix>3d</fix>
</trkpt>
<trkpt lat="33.8101018" lon="-118.3938674">
  <ele>-16.87</ele>
  <time>2026-09-01T01:18:18Z</time>
  <course>359.75</course>
  <speed>0.41</speed>
  <fix>3d</fix>
</trkpt>
<trkpt lat="33.8101028" lon="-118.3938676">
  <ele>-17.334</ele>
  <time>2026-09-01T01:18:18Z</time>
  <course>186.66</course>
  <speed>0.44011362169330775</speed>
  <fix>3d</fix>
</trkpt>
<trkpt lat="33.8101018" lon="-118.3938674">
  <ele>-16.87</ele>
  <time>2026-09-01T01:18:18Z</time>
  <course>359.75</course>
  <speed>0.41</speed>
  <fix>3d</fix>
</trkpt>
<trkpt lat="33.8101032" lon="-118.3938676">
  <ele>-17.352</ele>
  <time>2026-09-01T01:18:18Z</time>
  <course>186.66</course>
  <speed>0.44011362169330775</speed>
  <fix>3d</fix>
</trkpt>
<trkpt lat="33.8101025" lon="-118.3938674">
  <ele>-16.9</ele>
  <time>2026-09-01T01:18:18Z</time>
  <course>359.75</course>
  <speed>0.42</speed>
  <fix>3d</fix>
</trkpt>
<trkpt lat="33.8101035" lon="-118.3938676">
  <ele>-17.372</ele>
  <time>2026-09-01T01:18:18Z</time>
  <course>186.66</course>
  <speed>0.44011362169330775</speed>
  <fix>3d</fix>
</trkpt>
<trkpt lat="33.8101025" lon="-118.3938674">
  <ele>-16.9</ele>
  <time>2026-09-01T01:18:18Z</time>
  <course>359.75</course>
  <speed>0.42</speed>
  <fix>3d</fix>
</trkpt>
<trkpt lat="33.8101039" lon="-118.3938676">
  <ele>-17.398</ele>
  <time>2026-09-01T01:18:18Z</time>
  <course>186.66</course>
  <speed>0.44011362169330775</speed>
  <fix>3d</fix>
</trkpt>
<trkpt lat="33.8101032" lon="-118.3938674">
  <ele>-16.93</ele>
  <time>2026-09-01T01:18:18Z</time>
  <course>359.71</course>
  <speed>0.42</speed>
  <fix>3d</fix>
</trkpt>
<trkpt lat="33.8101043" lon="-118.3938676">
  <ele>-17.427</ele>
  <time>2026-09-01T01:18:18Z</time>
  <course>186.66</course>
  <speed>0.44011362169330775</speed>
  <fix>3d</fix>
</trkpt>
<trkpt lat="33.8101032" lon="-118.3938674">
  <ele>-16.93</ele>
  <time>2026-09-01T01:18:18Z</time>
  <course>359.71</course>
  <speed>0.42</speed>
  <fix>3d</fix>
</trkpt>
<trkpt lat="33.8101047" lon="-118.3938676">
  <ele>-17.454</ele>
  <time>2026-09-01T01:18:18Z</time>
  <course>186.66</course>
  <speed>0.44011362169330775</speed>
  <fix>3d</fix>
</trkpt>
<trkpt lat="33.8101041" lon="-118.3938674">
  <ele>-16.99</ele>
  <time>2026-09-01T01:18:18Z</time>
  <course>359.68</course>
  <speed>0.42</speed>
  <fix>3d</fix>
</trkpt>
<trkpt lat="33.8101051" lon="-118.3938676">
  <ele>-17.48</ele>
  <time>2026-09-01T01:18:18Z</time>
  <course>186.66</course>
  <speed>0.44011362169330775</speed>
  <fix>3d</fix>
</trkpt>
<trkpt lat="33.8101041" lon="-118.3938674">
  <ele>-16.99</ele>
  <time>2026-09-01T01:18:18Z</time>
  <course>359.68</course>
  <speed>0.42</speed>
  <fix>3d</fix>
</trkpt>
<trkpt lat="33.8101055" lon="-118.3938676">
  <ele>-17.506</ele>
  <time>2026-09-01T01:18:18Z</time>
  <course>186.66</course>
  <speed>0.44011362169330775</speed>
  <fix>3d</fix>
</trkpt>
<trkpt lat="33.8101048" lon="-118.3938674">
  <ele>-17.04</ele>
  <time>2026-09-01T01:18:18Z</time>
  <course>359.68</course>
  <speed>0.42</speed>
  <fix>3d</fix>
</trkpt>
<trkpt lat="33.8101058" lon="-118.3938676">
  <ele>-17.532</ele>
  <time>2026-09-01T01:18:18Z</time>
  <course>186.66</course>
  <speed>0.450111097397076</speed>
  <fix>3d</fix>
</trkpt>
<trkpt lat="33.8101048" lon="-118.3938674">
  <ele>-17.04</ele>
  <time>2026-09-01T01:18:18Z</time>
  <course>359.68</course>
  <speed>0.42</speed>
  <fix>3d</fix>
</trkpt>
<trkpt lat="33.8101062" lon="-118.3938676">
  <ele>-17.557</ele>
  <time>2026-09-01T01:18:18Z</time>
  <course>186.66</course>
  <speed>0.450111097397076</speed>
  <fix>3d</fix>
</trkpt>
<trkpt lat="33.8101056" lon="-118.3938674">
  <ele>-17.09</ele>
  <time>2026-09-01T01:18:18Z</time>
  <course>359.68</course>
  <speed>0.42</speed>
  <fix>3d</fix>
</trkpt>
<trkpt lat="33.8101066" lon="-118.3938676">
  <ele>-17.581</ele>
  <time>2026-09-01T01:18:18Z</time>
  <course>186.66</course>
  <speed>0.450111097397076</speed>
  <fix>3d</fix>
</trkpt>
<trkpt lat="33.8101056" lon="-118.3938674">
  <ele>-17.09</ele>
  <time>2026-09-01T01:18:18Z</time>
  <course>359.68</course>
  <speed>0.42</speed>
  <fix>3d</fix>
</trkpt>
<trkpt lat="33.810107" lon="-118.3938676">
  <ele>-17.603</ele>
  <time>2026-09-01T01:18:18Z</time>
  <course>186.66</course>
  <speed>0.450111097397076</speed>
  <fix>3d</fix>
</trkpt>
<trkpt lat="33.8101063" lon="-118.3938674">
  <ele>-17.14</ele>
  <time>2026-09-01T01:18:18Z</time>
  <course>359.67</course>
  <speed>0.42</speed>
  <fix>3d</fix>
</trkpt>
<trkpt lat="33.8101074" lon="-118.3938676">
  <ele>-17.622</ele>
  <time>2026-09-01T01:18:18Z</time>
  <course>186.66</course>
  <speed>0.450111097397076</speed>
  <fix>3d</fix>
</trkpt>
<trkpt lat="33.8101063" lon="-118.3938674">
  <ele>-17.14</ele>
  <time>2026-09-01T01:18:18Z</time>
  <course>359.67</course>
  <speed>0.42</speed>
  <fix>3d</fix>
</trkpt>
<trkpt lat="33.8101078" lon="-118.3938676">
  <ele>-17.64</ele>
  <time>2026-09-01T01:18:18Z</time>
  <course>186.66</course>
  <speed>0.450111097397076</speed>
  <fix>3d</fix>
</trkpt>
<trkpt lat="33.8101071" lon="-118.3938674">
  <ele>-17.18</ele>
  <time>2026-09-01T01:18:18Z</time>
  <course>359.65</course>
  <speed>0.42</speed>
  <fix>3d</fix>
</trkpt>
<trkpt lat="33.8101081" lon="-118.3938676">
  <ele>-17.655</ele>
  <time>2026-09-01T01:18:18Z</time>
  <course>186.66</course>
  <speed>0.450111097397076</speed>
  <fix>3d</fix>
</trkpt>
<trkpt lat="33.8101071" lon="-118.3938674">
  <ele>-17.18</ele>
  <time>2026-09-01T01:18:18Z</time>
  <course>359.65</course>
  <speed>0.42</speed>
  <fix>3d</fix>
</trkpt>
<trkpt lat="33.8101085" lon="-118.3938676">
  <ele>-17.668</ele>
  <time>2026-09-01T01:18:18Z</time>
  <course>186.66</course>
  <speed>0.450111097397076</speed>
  <fix>3d</fix>
</trkpt>
<trkpt lat="33.8101079" lon="-118.3938674">
  <ele>-17.22</ele>
  <time>2026-09-01T01:18:18Z</time>
  <course>359.64</course>
  <speed>0.42</speed>
  <fix>3d</fix>
</trkpt>
<trkpt lat="33.8101089" lon="-118.3938676">
  <ele>-17.678</ele>
  <time>2026-09-01T01:18:18Z</time>
  <course>186.66</course>
  <speed>0.450111097397076</speed>
  <fix>3d</fix>
</trkpt>
<trkpt lat="33.8101079" lon="-118.3938674">
  <ele>-17.22</ele>
  <time>2026-09-01T01:18:18Z</time>
  <course>359.64</course>
  <speed>0.42</speed>
  <fix>3d</fix>
</trkpt>
<trkpt lat="33.8101093" lon="-118.3938676">
  <ele>-17.684</ele>
  <time>2026-09-01T01:18:18Z</time>
  <course>186.66</course>
  <speed>0.450111097397076</speed>
  <fix>3d</fix>
</trkpt>
<trkpt lat="33.8101087" lon="-118.3938674">
  <ele>-17.25</ele>
  <time>2026-09-01T01:18:18Z</time>
  <course>359.65</course>
  <speed>0.43</speed>
  <fix>3d</fix>
</trkpt>
<trkpt lat="33.8101097" lon="-118.3938676">
  <ele>-17.69</ele>
  <time>2026-09-01T01:18:18Z</time>
  <course>186.66</course>
  <speed>0.450111097397076</speed>
  <fix>3d</fix>
</trkpt>
<trkpt lat="33.8101087" lon="-118.3938674">
  <ele>-17.25</ele>
  <time>2026-09-01T01:18:18Z</time>
  <course>359.65</course>
  <speed>0.43</speed>
  <fix>3d</fix>
</trkpt>
<trkpt lat="33.8101101" lon="-118.3938676">
  <ele>-17.703</ele>
  <time>2026-09-01T01:18:18Z</time>
  <course>186.66</course>
  <speed>0.450111097397076</speed>
  <fix>3d</fix>
</trkpt>
<trkpt lat="33.8101094" lon="-118.3938674">
  <ele>-17.26</ele>
  <time>2026-09-01T01:18:18Z</time>
  <course>359.64</course>
  <speed>0.43</speed>
  <fix>3d</fix>
</trkpt>
<trkpt lat="33.8101105" lon="-118.3938676">
  <ele>-17.72</ele>
  <time>2026-09-01T01:18:18Z</time>
  <course>186.66</course>
  <speed>0.450111097397076</speed>
  <fix>3d</fix>
</trkpt>
<trkpt lat="33.8101094" lon="-118.3938674">
  <ele>-17.26</ele>
  <time>2026-09-01T01:18:18Z</time>
  <course>359.64</course>
  <speed>0.43</speed>
  <fix>3d</fix>
</trkpt>
<trkpt lat="33.8101109" lon="-118.3938676">
  <ele>-17.738</ele>
  <time>2026-09-01T01:18:18Z</time>
  <course>186.66</course>
  <speed>0.450111097397076</speed>
  <fix>3d</fix>
</trkpt>
<trkpt lat="33.8101101" lon="-118.3938674">
  <ele>-17.28</ele>
  <time>2026-09-01T01:18:18Z</time>
  <course>359.61</course>
  <speed>0.43</speed>
  <fix>3d</fix>
</trkpt>
<trkpt lat="33.8101113" lon="-118.3938676">
  <ele>-17.757</ele>
  <time>2026-09-01T01:18:18Z</time>
  <course>186.66</course>
  <speed>0.450111097397076</speed>
  <fix>3d</fix>
</trkpt>
<trkpt lat="33.8101101" lon="-118.3938674">
  <ele>-17.28</ele>
  <time>2026-09-01T01:18:18Z</time>
  <course>359.61</course>
  <speed>0.43</speed>
  <fix>3d</fix>
</trkpt>
<trkpt lat="33.8101116" lon="-118.3938676">
  <ele>-17.778</ele>
  <time>2026-09-01T01:18:18Z</time>
  <course>186.66</course>
  <speed>0.450111097397076</speed>
  <fix>3d</fix>
</trkpt>
<trkpt lat="33.810111" lon="-118.3938674">
  <ele>-17.31</ele>
  <time>2026-09-01T01:18:18Z</time>
  <course>359.58</course>
  <speed>0.43</speed>
  <fix>3d</fix>
</trkpt>
<trkpt lat="33.810112" lon="-118.3938676">
  <ele>-17.798</ele>
  <time>2026-09-01T01:18:18Z</time>
  <course>186.66</course>
  <speed>0.46010868281309364</speed>
  <fix>3d</fix>
</trkpt>
<trkpt lat="33.810111" lon="-118.3938674">
  <ele>-17.31</ele>
  <time>2026-09-01T01:18:18Z</time>
  <course>359.58</course>
  <speed>0.43</speed>
  <fix>3d</fix>
</trkpt>
<trkpt lat="33.8101124" lon="-118.3938676">
  <ele>-17.817</ele>
  <time>2026-09-01T01:18:18Z</time>
  <course>186.66</course>
  <speed>0.46010868281309364</speed>
  <fix>3d</fix>
</trkpt>
<trkpt lat="33.8101118" lon="-118.3938674">
  <ele>-17.35</ele>
  <time>2026-09-01T01:18:18Z</time>
  <course>359.57</course>
  <speed>0.43</speed>
  <fix>3d</fix>
</trkpt>
<trkpt lat="33.8101128" lon="-118.3938676">
  <ele>-17.834</ele>
  <time>2026-09-01T01:18:18Z</time>
  <course>186.66</course>
  <speed>0.46010868281309364</speed>
  <fix>3d</fix>
</trkpt>
<trkpt lat="33.8101118" lon="-118.3938674">
  <ele>-17.35</ele>
  <time>2026-09-01T01:18:18Z</time>
  <course>359.57</course>
  <speed>0.43</speed>
  <fix>3d</fix>
</trkpt>
<trkpt lat="33.8101132" lon="-118.3938676">
  <ele>-17.854</ele>
  <time>2026-09-01T01:18:18Z</time>
  <course>186.66</course>
  <speed>0.46010868281309364</speed>
  <fix>3d</fix>
</trkpt>
<trkpt lat="33.8101125" lon="-118.3938674">
  <ele>-17.39</ele>
  <time>2026-09-01T01:18:18Z</time>
  <course>359.56</course>
  <speed>0.43</speed>
  <fix>3d</fix>
</trkpt>
<trkpt lat="33.8101136" lon="-118.3938676">
  <ele>-17.874</ele>
  <time>2026-09-01T01:18:18Z</time>
  <course>186.66</course>
  <speed>0.46010868281309364</speed>
  <fix>3d</fix>
</trkpt>
<trkpt lat="33.8101125" lon="-118.3938674">
  <ele>-17.39</ele>
  <time>2026-09-01T01:18:18Z</time>
  <course>359.56</course>
  <speed>0.43</speed>
  <fix>3d</fix>
</trkpt>
<trkpt lat="33.810114" lon="-118.3938676">
  <ele>-17.89</ele>
  <time>2026-09-01T01:18:18Z</time>
  <course>186.66</course>
  <speed>0.46010868281309364</speed>
  <fix>3d</fix>
</trkpt>
<trkpt lat="33.8101134" lon="-118.3938674">
  <ele>-17.43</ele>
  <time>2026-09-01T01:18:18Z</time>
  <course>359.57</course>
  <speed>0.43</speed>
  <fix>3d</fix>
</trkpt>
<trkpt lat="33.8101144" lon="-118.3938676">
  <ele>-17.9</ele>
  <time>2026-09-01T01:18:18Z</time>
  <course>186.66</course>
  <speed>0.46010868281309364</speed>
  <fix>3d</fix>
</trkpt>
<trkpt lat="33.8101134" lon="-118.3938674">
  <ele>-17.43</ele>
  <time>2026-09-01T01:18:18Z</time>
  <course>359.57</course>
  <speed>0.43</speed>
  <fix>3d</fix>
</trkpt>
<trkpt lat="33.8101148" lon="-118.3938676">
  <ele>-17.908</ele>
  <time>2026-09-01T01:18:18Z</time>
  <course>186.66</course>
  <speed>0.46010868281309364</speed>
  <fix>3d</fix>
</trkpt>
<trkpt lat="33.8101142" lon="-118.3938674">
  <ele>-17.46</ele>
  <time>2026-09-01T01:18:18Z</time>
  <course>359.59</course>
  <speed>0.43</speed>
  <fix>3d</fix>
</trkpt>
<trkpt lat="33.8101152" lon="-118.3938676">
  <ele>-17.921</ele>
  <time>2026-09-01T01:18:18Z</time>
  <course>186.66</course>
  <speed>0.46010868281309364</speed>
  <fix>3d</fix>
</trkpt>
<trkpt lat="33.8101142" lon="-118.3938674">
  <ele>-17.46</ele>
  <time>2026-09-01T01:18:18Z</time>
  <course>359.59</course>
  <speed>0.43</speed>
  <fix>3d</fix>
</trkpt>
<trkpt lat="33.8101156" lon="-118.3938676">
  <ele>-17.938</ele>
  <time>2026-09-01T01:18:18Z</time>
  <course>186.66</course>
  <speed>0.46010868281309364</speed>
  <fix>3d</fix>
</trkpt>
<trkpt lat="33.8101149" lon="-118.3938674">
  <ele>-17.48</ele>
  <time>2026-09-01T01:18:18Z</time>
  <course>359.6</course>
  <speed>0.43</speed>
  <fix>3d</fix>
</trkpt>
<trkpt lat="33.810116" lon="-118.3938676">
  <ele>-17.954</ele>
  <time>2026-09-01T01:18:18Z</time>
  <course>186.66</course>
  <speed>0.46010868281309364</speed>
  <fix>3d</fix>
</trkpt>
<trkpt lat="33.8101149" lon="-118.3938674">
  <ele>-17.48</ele>
  <time>2026-09-01T01:18:18Z</time>
  <course>359.6</course>
  <speed>0.43</speed>
  <fix>3d</fix>
</trkpt>
<trkpt lat="33.8101164" lon="-118.3938676">
  <ele>-17.972</ele>
  <time>2026-09-01T01:18:18Z</time>
  <course>186.66</course>
  <speed>0.46010868281309364</speed>
  <fix>3d</fix>
</trkpt>
<trkpt lat="33.8101157" lon="-118.3938674">
  <ele>-17.51</ele>
  <time>2026-09-01T01:18:18Z</time>
  <course>359.61</course>
  <speed>0.43</speed>
  <fix>3d</fix>
</trkpt>
<trkpt lat="33.8101168" lon="-118.3938676">
  <ele>-17.992</ele>
  <time>2026-09-01T01:18:18Z</time>
  <course>186.66</course>
  <speed>0.46010868281309364</speed>
  <fix>3d</fix>
</trkpt>
<trkpt lat="33.8101157" lon="-118.3938674">
  <ele>-17.51</ele>
  <time>2026-09-01T01:18:18Z</time>
  <course>359.61</course>
  <speed>0.43</speed>
  <fix>3d</fix>
</trkpt>
<trkpt lat="33.8101172" lon="-118.3938676">
  <ele>-18.014</ele>
  <time>2026-09-01T01:18:18Z</time>
  <course>186.66</course>
  <speed>0.46010868281309364</speed>
  <fix>3d</fix>
</trkpt>
<trkpt lat="33.8101165" lon="-118.3938674">
  <ele>-17.55</ele>
  <time>2026-09-01T01:18:18Z</time>
  <course>359.63</course>
  <speed>0.44</speed>
  <fix>3d</fix>
</trkpt>
<trkpt lat="33.8101176" lon="-118.3938676">
  <ele>-18.039</ele>
  <time>2026-09-01T01:18:18Z</time>
  <course>186.66</course>
  <speed>0.46010868281309364</speed>
  <fix>3d</fix>
</trkpt>
<trkpt lat="33.8101165" lon="-118.3938674">
  <ele>-17.55</ele>
  <time>2026-09-01T01:18:18Z</time>
  <course>359.63</course>
  <speed>0.44</speed>
  <fix>3d</fix>
</trkpt>
<trkpt lat="33.810118" lon="-118.3938676">
  <ele>-18.065</ele>
  <time>2026-09-01T01:18:18Z</time>
  <course>186.66</course>
  <speed>0.46010868281309364</speed>
  <fix>3d</fix>
</trkpt>
<trkpt lat="33.8101173" lon="-118.3938674">
  <ele>-17.59</ele>
  <time>2026-09-01T01:18:18Z</time>
  <course>359.62</course>
  <speed>0.44</speed>
  <fix>3d</fix>
</trkpt>
<trkpt lat="33.8101184" lon="-118.3938676">
  <ele>-18.089</ele>
  <time>2026-09-01T01:18:18Z</time>
  <course>186.66</course>
  <speed>0.46010868281309364</speed>
  <fix>3d</fix>
</trkpt>
<trkpt lat="33.8101173" lon="-118.3938674">
  <ele>-17.59</ele>
  <time>2026-09-01T01:18:18Z</time>
  <course>359.62</course>
  <speed>0.44</speed>
  <fix>3d</fix>
</trkpt>
<trkpt lat="33.8101188" lon="-118.3938676">
  <ele>-18.111</ele>
  <time>2026-09-01T01:18:18Z</time>
  <course>186.66</course>
  <speed>0.46010868281309364</speed>
  <fix>3d</fix>
</trkpt>
<trkpt lat="33.810118" lon="-118.3938674">
  <ele>-17.64</ele>
  <time>2026-09-01T01:18:18Z</time>
  <course>359.59</course>
  <speed>0.44</speed>
  <fix>3d</fix>
</trkpt>
<trkpt lat="33.8101192" lon="-118.3938676">
  <ele>-18.13</ele>
  <time>2026-09-01T01:18:18Z</time>
  <course>186.66</course>
  <speed>0.47010637094172636</speed>
  <fix>3d</fix>
</trkpt>
<trkpt lat="33.810118" lon="-118.3938674">
  <ele>-17.64</ele>
  <time>2026-09-01T01:18:18Z</time>
  <course>359.59</course>
  <speed>0.44</speed>
  <fix>3d</fix>
</trkpt>
<trkpt lat="33.8101196" lon="-118.3938676">
  <ele>-18.146</ele>
  <time>2026-09-01T01:18:18Z</time>
  <course>186.66</course>
  <speed>0.44011362169330775</speed>
  <fix>3d</fix>
</trkpt>
<trkpt lat="33.8101189" lon="-118.3938675">
  <ele>-17.68</ele>
  <time>2026-09-01T01:18:18Z</time>
  <course>359.6</course>
  <speed>0.44</speed>
  <fix>3d</fix>
</trkpt>
<trkpt lat="33.8101199" lon="-118.3938676">
  <ele>-18.161</ele>
  <time>2026-09-01T01:18:18Z</time>
  <course>186.66</course>
  <speed>0.44011362169330775</speed>
  <fix>3d</fix>
</trkpt>
<trkpt lat="33.8101189" lon="-118.3938675">
  <ele>-17.68</ele>
  <time>2026-09-01T01:18:18Z</time>
  <course>359.6</course>
  <speed>0.44</speed>
  <fix>3d</fix>
</trkpt>
<trkpt lat="33.8101203" lon="-118.3938676">
  <ele>-18.174</ele>
  <time>2026-09-01T01:18:18Z</time>
  <course>186.66</course>
  <speed>0.44011362169330775</speed>
  <fix>3d</fix>
</trkpt>
<trkpt lat="33.8101197" lon="-118.3938675">
  <ele>-17.71</ele>
  <time>2026-09-01T01:18:18Z</time>
  <course>359.73</course>
  <speed>0.43</speed>
  <fix>3d</fix>
</trkpt>
<trkpt lat="33.8101207" lon="-118.3938676">
  <ele>-18.185</ele>
  <time>2026-09-01T01:18:18Z</time>
  <course>186.66</course>
  <speed>0.44011362169330775</speed>
  <fix>3d</fix>
</trkpt>
<trkpt lat="33.8101197" lon="-118.3938675">
  <ele>-17.71</ele>
  <time>2026-09-01T01:18:18Z</time>
  <course>359.73</course>
  <speed>0.43</speed>
  <fix>3d</fix>
</trkpt>
<trkpt lat="33.8101211" lon="-118.3938676">
  <ele>-18.198</ele>
  <time>2026-09-01T01:18:18Z</time>
  <course>186.66</course>
  <speed>0.450111097397076</speed>
  <fix>3d</fix>
</trkpt>
<trkpt lat="33.8101204" lon="-118.3938675">
  <ele>-17.74</ele>
  <time>2026-09-01T01:18:18Z</time>
  <course>359.99</course>
  <speed>0.42</speed>
  <fix>3d</fix>
</trkpt>
<trkpt lat="33.8101215" lon="-118.3938676">
  <ele>-18.212</ele>
  <time>2026-09-01T01:18:18Z</time>
  <course>186.66</course>
  <speed>0.450111097397076</speed>
  <fix>3d</fix>
</trkpt>
<trkpt lat="33.8101204" lon="-118.3938675">
  <ele>-17.74</ele>
  <time>2026-09-01T01:18:18Z</time>
  <course>359.99</course>
  <speed>0.42</speed>
  <fix>3d</fix>
</trkpt>
<trkpt lat="33.8101219" lon="-118.3938676">
  <ele>-18.228</ele>
  <time>2026-09-01T01:18:18Z</time>
  <course>186.66</course>
  <speed>0.450111097397076</speed>
  <fix>3d</fix>
</trkpt>
<trkpt lat="33.8101212" lon="-118.3938675">
  <ele>-17.76</ele>
  <time>2026-09-01T01:18:18Z</time>
  <course>0.21</course>
  <speed>0.43</speed>
  <fix>3d</fix>
</trkpt>
<trkpt lat="33.8101223" lon="-118.3938676">
  <ele>-18.247</ele>
  <time>2026-09-01T01:18:18Z</time>
  <course>186.66</course>
  <speed>0.46010868281309364</speed>
  <fix>3d</fix>
</trkpt>
<trkpt lat="33.8101212" lon="-118.3938675">
  <ele>-17.76</ele>
  <time>2026-09-01T01:18:18Z</time>
  <course>0.21</course>
  <speed>0.43</speed>
  <fix>3d</fix>
</trkpt>
<trkpt lat="33.8101226" lon="-118.3938676">
  <ele>-18.27</ele>
  <time>2026-09-01T01:18:18Z</time>
  <course>186.66</course>
  <speed>0.46010868281309364</speed>
  <fix>3d</fix>
</trkpt>
<trkpt lat="33.8101219" lon="-118.3938675">
  <ele>-17.79</ele>
  <time>2026-09-01T01:18:18Z</time>
  <course>0.35</course>
  <speed>0.43</speed>
  <fix>3d</fix>
</trkpt>
<trkpt lat="33.810123" lon="-118.3938676">
  <ele>-18.297</ele>
  <time>2026-09-01T01:18:18Z</time>
  <course>186.66</course>
  <speed>0.46010868281309364</speed>
  <fix>3d</fix>
</trkpt>
<trkpt lat="33.8101219" lon="-118.3938675">
  <ele>-17.79</ele>
  <time>2026-09-01T01:18:18Z</time>
  <course>0.35</course>
  <speed>0.43</speed>
  <fix>3d</fix>
</trkpt>
<trkpt lat="33.8101234" lon="-118.3938676">
  <ele>-18.324</ele>
  <time>2026-09-01T01:18:18Z</time>
  <course>186.66</course>
  <speed>0.47010637094172636</speed>
  <fix>3d</fix>
</trkpt>
<trkpt lat="33.8101228" lon="-118.3938675">
  <ele>-17.83</ele>
  <time>2026-09-01T01:18:18Z</time>
  <course>0.42</course>
  <speed>0.44</speed>
  <fix>3d</fix>
</trkpt>
<trkpt lat="33.8101238" lon="-118.3938676">
  <ele>-18.35</ele>
  <time>2026-09-01T01:18:18Z</time>
  <course>186.65</course>
  <speed>0.47010637094172636</speed>
  <fix>3d</fix>
</trkpt>
<trkpt lat="33.8101228" lon="-118.3938675">
  <ele>-17.83</ele>
  <time>2026-09-01T01:18:18Z</time>
  <course>0.42</course>
  <speed>0.44</speed>
  <fix>3d</fix>
</trkpt>
<trkpt lat="33.8101242" lon="-118.3938676">
  <ele>-18.374</ele>
  <time>2026-09-01T01:18:18Z</time>
  <course>186.66</course>
  <speed>0.47010637094172636</speed>
  <fix>3d</fix>
</trkpt>
<trkpt lat="33.8101236" lon="-118.3938675">
  <ele>-17.88</ele>
  <time>2026-09-01T01:18:18Z</time>
  <course>0.5</course>
  <speed>0.44</speed>
  <fix>3d</fix>
</trkpt>
<trkpt lat="33.8101246" lon="-118.3938676">
  <ele>-18.397</ele>
  <time>2026-09-01T01:18:18Z</time>
  <course>186.66</course>
  <speed>0.47010637094172636</speed>
  <fix>3d</fix>
</trkpt>
<trkpt lat="33.8101236" lon="-118.3938675">
  <ele>-17.88</ele>
  <time>2026-09-01T01:18:18Z</time>
  <course>0.5</course>
  <speed>0.44</speed>
  <fix>3d</fix>
</trkpt>
<trkpt lat="33.8101251" lon="-118.3938676">
  <ele>-18.421</ele>
  <time>2026-09-01T01:18:18Z</time>
  <course>186.66</course>
  <speed>0.47010637094172636</speed>
  <fix>3d</fix>
</trkpt>
<trkpt lat="33.8101244" lon="-118.3938675">
  <ele>-17.93</ele>
  <time>2026-09-01T01:18:18Z</time>
  <course>0.58</course>
  <speed>0.45</speed>
  <fix>3d</fix>
</trkpt>
<trkpt lat="33.8101255" lon="-118.3938676">
  <ele>-18.443</ele>
  <time>2026-09-01T01:18:18Z</time>
  <course>186.66</course>
  <speed>0.47010637094172636</speed>
  <fix>3d</fix>
</trkpt>
<trkpt lat="33.8101244" lon="-118.3938675">
  <ele>-17.93</ele>
  <time>2026-09-01T01:18:18Z</time>
  <course>0.58</course>
  <speed>0.45</speed>
  <fix>3d</fix>
</trkpt>
<trkpt lat="33.8101259" lon="-118.3938676">
  <ele>-18.462</ele>
  <time>2026-09-01T01:18:18Z</time>
  <course>186.66</course>
  <speed>0.47010637094172636</speed>
  <fix>3d</fix>
</trkpt>
<trkpt lat="33.8101252" lon="-118.3938675">
  <ele>-17.97</ele>
  <time>2026-09-01T01:18:18Z</time>
  <course>0.65</course>
  <speed>0.45</speed>
  <fix>3d</fix>
</trkpt>
<trkpt lat="33.8101263" lon="-118.3938676">
  <ele>-18.478</ele>
  <time>2026-09-01T01:18:18Z</time>
  <course>186.66</course>
  <speed>0.47010637094172636</speed>
  <fix>3d</fix>
</trkpt>
<trkpt lat="33.8101252" lon="-118.3938675">
  <ele>-17.97</ele>
  <time>2026-09-01T01:18:18Z</time>
  <course>0.65</course>
  <speed>0.45</speed>
  <fix>3d</fix>
</trkpt>
<trkpt lat="33.8101267" lon="-118.3938676">
  <ele>-18.493</ele>
  <time>2026-09-01T01:18:18Z</time>
  <course>186.66</course>
  <speed>0.47010637094172636</speed>
  <fix>3d</fix>
</trkpt>
<trkpt lat="33.8101259" lon="-118.3938675">
  <ele>-18.01</ele>
  <time>2026-09-01T01:18:18Z</time>
  <course>0.68</course>
  <speed>0.45</speed>
  <fix>3d</fix>
</trkpt>
<trkpt lat="33.8101271" lon="-118.3938676">
  <ele>-18.508</ele>
  <time>2026-09-01T01:18:18Z</time>
  <course>186.66</course>
  <speed>0.4801041553663121</speed>
  <fix>3d</fix>
</trkpt>
<trkpt lat="33.8101259" lon="-118.3938675">
  <ele>-18.01</ele>
  <time>2026-09-01T01:18:18Z</time>
  <course>0.68</course>
  <speed>0.45</speed>
  <fix>3d</fix>
</trkpt>
<trkpt lat="33.8101275" lon="-118.3938676">
  <ele>-18.525</ele>
  <time>2026-09-01T01:18:18Z</time>
  <course>186.66</course>
  <speed>0.4801041553663121</speed>
  <fix>3d</fix>
</trkpt>
<trkpt lat="33.8101268" lon="-118.3938675">
  <ele>-18.04</ele>
  <time>2026-09-01T01:18:18Z</time>
  <course>0.7</course>
  <speed>0.45</speed>
  <fix>3d</fix>
</trkpt>
<trkpt lat="33.8101279" lon="-118.3938676">
  <ele>-18.543</ele>
  <time>2026-09-01T01:18:18Z</time>
  <course>186.66</course>
  <speed>0.4801041553663121</speed>
  <fix>3d</fix>
</trkpt>
<trkpt lat="33.8101268" lon="-118.3938675">
  <ele>-18.04</ele>
  <time>2026-09-01T01:18:18Z</time>
  <course>0.7</course>
  <speed>0.45</speed>
  <fix>3d</fix>
</trkpt>
<trkpt lat="33.8101283" lon="-118.3938676">
  <ele>-18.559</ele>
  <time>2026-09-01T01:18:18Z</time>
  <course>186.66</course>
  <speed>0.4801041553663121</speed>
  <fix>3d</fix>
</trkpt>
<trkpt lat="33.8101276" lon="-118.3938675">
  <ele>-18.07</ele>
  <time>2026-09-01T01:18:18Z</time>
  <course>0.73</course>
  <speed>0.46</speed>
  <fix>3d</fix>
</trkpt>
<trkpt lat="33.8101287" lon="-118.3938676">
  <ele>-18.573</ele>
  <time>2026-09-01T01:18:18Z</time>
  <course>186.67</course>
  <speed>0.4801041553663121</speed>
  <fix>3d</fix>
</trkpt>
<trkpt lat="33.8101276" lon="-118.3938675">
  <ele>-18.07</ele>
  <time>2026-09-01T01:18:18Z</time>
  <course>0.73</course>
  <speed>0.46</speed>
  <fix>3d</fix>
</trkpt>
<trkpt lat="33.8101291" lon="-118.3938676">
  <ele>-18.586</ele>
  <time>2026-09-01T01:18:18Z</time>
  <course>186.67</course>
  <speed>0.4801041553663121</speed>
  <fix>3d</fix>
</trkpt>
<trkpt lat="33.8101285" lon="-118.3938675">
  <ele>-18.1</ele>
  <time>2026-09-01T01:18:18Z</time>
  <course>0.78</course>
  <speed>0.46</speed>
  <fix>3d</fix>
</trkpt>
<trkpt lat="33.8101296" lon="-118.3938676">
  <ele>-18.6</ele>
  <time>2026-09-01T01:18:18Z</time>
  <course>186.67</course>
  <speed>0.4801041553663121</speed>
  <fix>3d</fix>
</trkpt>
<trkpt lat="33.8101285" lon="-118.3938675">
  <ele>-18.1</ele>
  <time>2026-09-01T01:18:18Z</time>
  <course>0.78</course>
  <speed>0.46</speed>
  <fix>3d</fix>
</trkpt>
<trkpt lat="33.81013" lon="-118.3938676">
  <ele>-18.616</ele>
  <time>2026-09-01T01:18:18Z</time>
  <course>186.66</course>
  <speed>0.4801041553663121</speed>
  <fix>3d</fix>
</trkpt>
<trkpt lat="33.8101293" lon="-118.3938675">
  <ele>-18.13</ele>
  <time>2026-09-01T01:18:18Z</time>
  <course>0.82</course>
  <speed>0.46</speed>
  <fix>3d</fix>
</trkpt>
<trkpt lat="33.8101304" lon="-118.3938676">
  <ele>-18.632</ele>
  <time>2026-09-01T01:18:18Z</time>
  <course>186.66</course>
  <speed>0.4801041553663121</speed>
  <fix>3d</fix>
</trkpt>
<trkpt lat="33.8101293" lon="-118.3938675">
  <ele>-18.13</ele>
  <time>2026-09-01T01:18:18Z</time>
  <course>0.82</course>
  <speed>0.46</speed>
  <fix>3d</fix>
</trkpt>
<trkpt lat="33.8101308" lon="-118.3938676">
  <ele>-18.646</ele>
  <time>2026-09-01T01:18:18Z</time>
  <course>186.66</course>
  <speed>0.4801041553663121</speed>
  <fix>3d</fix>
</trkpt>
<trkpt lat="33.8101302" lon="-118.3938674">
  <ele>-18.16</ele>
  <time>2026-09-01T01:18:18Z</time>
  <course>0.86</course>
  <speed>0.46</speed>
  <fix>3d</fix>
</trkpt>
<trkpt lat="33.8101312" lon="-118.3938676">
  <ele>-18.658</ele>
  <time>2026-09-01T01:18:18Z</time>
  <course>186.66</course>
  <speed>0.4801041553663121</speed>
  <fix>3d</fix>
</trkpt>
<trkpt lat="33.8101302" lon="-118.3938674">
  <ele>-18.16</ele>
  <time>2026-09-01T01:18:18Z</time>
  <course>0.86</course>
  <speed>0.46</speed>
  <fix>3d</fix>
</trkpt>
<trkpt lat="33.8101316" lon="-118.3938676">
  <ele>-18.67</ele>
  <time>2026-09-01T01:18:18Z</time>
  <course>186.66</course>
  <speed>0.4801041553663121</speed>
  <fix>3d</fix>
</trkpt>
<trkpt lat="33.810131" lon="-118.3938674">
  <ele>-18.19</ele>
  <time>2026-09-01T01:18:18Z</time>
  <course>0.85</course>
  <speed>0.46</speed>
  <fix>3d</fix>
</trkpt>
<trkpt lat="33.8101321" lon="-118.3938676">
  <ele>-18.686</ele>
  <time>2026-09-01T01:18:18Z</time>
  <course>186.66</course>
  <speed>0.4801041553663121</speed>
  <fix>3d</fix>
</trkpt>
<trkpt lat="33.810131" lon="-118.3938674">
  <ele>-18.19</ele>
  <time>2026-09-01T01:18:18Z</time>
  <course>0.85</course>
  <speed>0.46</speed>
  <fix>3d</fix>
</trkpt>
<trkpt lat="33.8101325" lon="-118.3938676">
  <ele>-18.708</ele>
  <time>2026-09-01T01:18:18Z</time>
  <course>186.66</course>
  <speed>0.4801041553663121</speed>
  <fix>3d</fix>
</trkpt>
<trkpt lat="33.8101317" lon="-118.3938674">
  <ele>-18.21</ele>
  <time>2026-09-01T01:18:18Z</time>
  <course>0.73</course>
  <speed>0.46</speed>
  <fix>3d</fix>
</trkpt>
<trkpt lat="33.8101329" lon="-118.3938676">
  <ele>-18.733</ele>
  <time>2026-09-01T01:18:18Z</time>
  <course>186.66</course>
  <speed>0.4801041553663121</speed>
  <fix>3d</fix>
</trkpt>
<trkpt lat="33.8101317" lon="-118.3938674">
  <ele>-18.21</ele>
  <time>2026-09-01T01:18:18Z</time>
  <course>0.73</course>
  <speed>0.46</speed>
  <fix>3d</fix>
</trkpt>
<trkpt lat="33.8101333" lon="-118.3938676">
  <ele>-18.758</ele>
  <time>2026-09-01T01:18:18Z</time>
  <course>186.66</course>
  <speed>0.4801041553663121</speed>
  <fix>3d</fix>
</trkpt>
<trkpt lat="33.8101326" lon="-118.3938674">
  <ele>-18.25</ele>
  <time>2026-09-01T01:18:18Z</time>
  <course>0.56</course>
  <speed>0.46</speed>
  <fix>3d</fix>
</trkpt>
<trkpt lat="33.8101337" lon="-118.3938676">
  <ele>-18.782</ele>
  <time>2026-09-01T01:18:18Z</time>
  <course>186.66</course>
  <speed>0.4801041553663121</speed>
  <fix>3d</fix>
</trkpt>
<trkpt lat="33.8101326" lon="-118.3938674">
  <ele>-18.25</ele>
  <time>2026-09-01T01:18:18Z</time>
  <course>0.56</course>
  <speed>0.46</speed>
  <fix>3d</fix>
</trkpt>
<trkpt lat="33.8101341" lon="-118.3938676">
  <ele>-18.802</ele>
  <time>2026-09-01T01:18:18Z</time>
  <course>186.66</course>
  <speed>0.4801041553663121</speed>
  <fix>3d</fix>
</trkpt>
<trkpt lat="33.8101335" lon="-118.3938674">
  <ele>-18.3</ele>
  <time>2026-09-01T01:18:18Z</time>
  <course>0.4</course>
  <speed>0.46</speed>
  <fix>3d</fix>
</trkpt>
<trkpt lat="33.8101345" lon="-118.3938676">
  <ele>-18.82</ele>
  <time>2026-09-01T01:18:18Z</time>
  <course>186.66</course>
  <speed>0.4801041553663121</speed>
  <fix>3d</fix>
</trkpt>
<trkpt lat="33.8101335" lon="-118.3938674">
  <ele>-18.3</ele>
  <time>2026-09-01T01:18:18Z</time>
  <course>0.4</course>
  <speed>0.46</speed>
  <fix>3d</fix>
</trkpt>
<trkpt lat="33.810135" lon="-118.3938676">
  <ele>-18.836</ele>
  <time>2026-09-01T01:18:18Z</time>
  <course>186.66</course>
  <speed>0.4801041553663121</speed>
  <fix>3d</fix>
</trkpt>
<trkpt lat="33.8101343" lon="-118.3938674">
  <ele>-18.34</ele>
  <time>2026-09-01T01:18:18Z</time>
  <course>0.3</course>
  <speed>0.46</speed>
  <fix>3d</fix>
</trkpt>
<trkpt lat="33.8101354" lon="-118.3938676">
  <ele>-18.851</ele>
  <time>2026-09-01T01:18:18Z</time>
  <course>186.66</course>
  <speed>0.4801041553663121</speed>
  <fix>3d</fix>
</trkpt>
<trkpt lat="33.8101343" lon="-118.3938674">
  <ele>-18.34</ele>
  <time>2026-09-01T01:18:18Z</time>
  <course>0.3</course>
  <speed>0.46</speed>
  <fix>3d</fix>
</trkpt>
<trkpt lat="33.8101358" lon="-118.3938676">
  <ele>-18.869</ele>
  <time>2026-09-01T01:18:18Z</time>
  <course>186.66</course>
  <speed>0.4801041553663121</speed>
  <fix>3d</fix>
</trkpt>
<trkpt lat="33.8101351" lon="-118.3938674">
  <ele>-18.37</ele>
  <time>2026-09-01T01:18:18Z</time>
  <course>0.25</course>
  <speed>0.46</speed>
  <fix>3d</fix>
</trkpt>
<trkpt lat="33.8101362" lon="-118.3938676">
  <ele>-18.888</ele>
  <time>2026-09-01T01:18:18Z</time>
  <course>186.66</course>
  <speed>0.4801041553663121</speed>
  <fix>3d</fix>
</trkpt>
<trkpt lat="33.8101351" lon="-118.3938674">
  <ele>-18.37</ele>
  <time>2026-09-01T01:18:18Z</time>
  <course>0.25</course>
  <speed>0.46</speed>
  <fix>3d</fix>
</trkpt>
<trkpt lat="33.8101366" lon="-118.3938676">
  <ele>-18.908</ele>
  <time>2026-09-01T01:18:18Z</time>
  <course>186.66</course>
  <speed>0.4801041553663121</speed>
  <fix>3d</fix>
</trkpt>
<trkpt lat="33.810136" lon="-118.3938674">
  <ele>-18.41</ele>
  <time>2026-09-01T01:18:18Z</time>
  <course>0.22</course>
  <speed>0.46</speed>
  <fix>3d</fix>
</trkpt>
<trkpt lat="33.810137" lon="-118.3938676">
  <ele>-18.927</ele>
  <time>2026-09-01T01:18:18Z</time>
  <course>186.66</course>
  <speed>0.4801041553663121</speed>
  <fix>3d</fix>
</trkpt>
<trkpt lat="33.810136" lon="-118.3938674">
  <ele>-18.41</ele>
  <time>2026-09-01T01:18:18Z</time>
  <course>0.22</course>
  <speed>0.46</speed>
  <fix>3d</fix>
</trkpt>
<trkpt lat="33.8101375" lon="-118.3938676">
  <ele>-18.946</ele>
  <time>2026-09-01T01:18:18Z</time>
  <course>186.66</course>
  <speed>0.4801041553663121</speed>
  <fix>3d</fix>
</trkpt>
<trkpt lat="33.8101367" lon="-118.3938674">
  <ele>-18.45</ele>
  <time>2026-09-01T01:18:18Z</time>
  <course>0.23</course>
  <speed>0.46</speed>
  <fix>3d</fix>
</trkpt>
<trkpt lat="33.8101379" lon="-118.3938676">
  <ele>-18.963</ele>
  <time>2026-09-01T01:18:18Z</time>
  <course>186.66</course>
  <speed>0.4801041553663121</speed>
  <fix>3d</fix>
</trkpt>
<trkpt lat="33.8101367" lon="-118.3938674">
  <ele>-18.45</ele>
  <time>2026-09-01T01:18:18Z</time>
  <course>0.23</course>
  <speed>0.46</speed>
  <fix>3d</fix>
</trkpt>
<trkpt lat="33.8101383" lon="-118.3938676">
  <ele>-18.981</ele>
  <time>2026-09-01T01:18:18Z</time>
  <course>186.66</course>
  <speed>0.4801041553663121</speed>
  <fix>3d</fix>
</trkpt>
<trkpt lat="33.8101376" lon="-118.3938674">
  <ele>-18.49</ele>
  <time>2026-09-01T01:18:18Z</time>
  <course>0.24</course>
  <speed>0.46</speed>
  <fix>3d</fix>
</trkpt>
<trkpt lat="33.8101387" lon="-118.3938676">
  <ele>-19.002</ele>
  <time>2026-09-01T01:18:18Z</time>
  <course>186.66</course>
  <speed>0.4901020301937138</speed>
  <fix>3d</fix>
</trkpt>
<trkpt lat="33.8101376" lon="-118.3938674">
  <ele>-18.49</ele>
  <time>2026-09-01T01:18:18Z</time>
  <course>0.24</course>
  <speed>0.46</speed>
  <fix>3d</fix>
</trkpt>
<trkpt lat="33.8101391" lon="-118.3938676">
  <ele>-19.025</ele>
  <time>2026-09-01T01:18:18Z</time>
  <course>186.66</course>
  <speed>0.4901020301937138</speed>
  <fix>3d</fix>
</trkpt>
<trkpt lat="33.8101384" lon="-118.3938674">
  <ele>-18.52</ele>
  <time>2026-09-01T01:18:18Z</time>
  <course>0.24</course>
  <speed>0.46</speed>
  <fix>3d</fix>
</trkpt>
<trkpt lat="33.8101395" lon="-118.3938676">
  <ele>-19.048</ele>
  <time>2026-09-01T01:18:18Z</time>
  <course>186.66</course>
  <speed>0.4901020301937138</speed>
  <fix>3d</fix>
</trkpt>
<trkpt lat="33.8101384" lon="-118.3938674">
  <ele>-18.52</ele>
  <time>2026-09-01T01:18:18Z</time>
  <course>0.24</course>
  <speed>0.46</speed>
  <fix>3d</fix>
</trkpt>
<trkpt lat="33.81014" lon="-118.3938676">
  <ele>-19.069</ele>
  <time>2026-09-01T01:18:18Z</time>
  <course>186.66</course>
  <speed>0.4901020301937138</speed>
  <fix>3d</fix>
</trkpt>
<trkpt lat="33.8101393" lon="-118.3938674">
  <ele>-18.57</ele>
  <time>2026-09-01T01:18:18Z</time>
  <course>0.23</course>
  <speed>0.46</speed>
  <fix>3d</fix>
</trkpt>
<trkpt lat="33.8101404" lon="-118.3938676">
  <ele>-19.088</ele>
  <time>2026-09-01T01:18:18Z</time>
  <course>186.66</course>
  <speed>0.4901020301937138</speed>
  <fix>3d</fix>
</trkpt>
<trkpt lat="33.8101393" lon="-118.3938674">
  <ele>-18.57</ele>
  <time>2026-09-01T01:18:18Z</time>
  <course>0.23</course>
  <speed>0.46</speed>
  <fix>3d</fix>
</trkpt>
<trkpt lat="33.8101408" lon="-118.3938676">
  <ele>-19.102</ele>
  <time>2026-09-01T01:18:18Z</time>
  <course>186.66</course>
  <speed>0.4901020301937138</speed>
  <fix>3d</fix>
</trkpt>
<trkpt lat="33.8101402" lon="-118.3938674">
  <ele>-18.61</ele>
  <time>2026-09-01T01:18:18Z</time>
  <course>0.24</course>
  <speed>0.47</speed>
  <fix>3d</fix>
</trkpt>
<trkpt lat="33.8101412" lon="-118.3938676">
  <ele>-19.115</ele>
  <time>2026-09-01T01:18:18Z</time>
  <course>186.66</course>
  <speed>0.4901020301937138</speed>
  <fix>3d</fix>
</trkpt>
<trkpt lat="33.8101402" lon="-118.3938674">
  <ele>-18.61</ele>
  <time>2026-09-01T01:18:18Z</time>
  <course>0.24</course>
  <speed>0.47</speed>
  <fix>3d</fix>
</trkpt>
<trkpt lat="33.8101417" lon="-118.3938676">
  <ele>-19.131</ele>
  <time>2026-09-01T01:18:18Z</time>
  <course>186.66</course>
  <speed>0.4901020301937138</speed>
  <fix>3d</fix>
</trkpt>
<trkpt lat="33.810141" lon="-118.3938673">
  <ele>-18.64</ele>
  <time>2026-09-01T01:18:18Z</time>
  <course>0.25</course>
  <speed>0.47</speed>
  <fix>3d</fix>
</trkpt>
<trkpt lat="33.8101421" lon="-118.3938676">
  <ele>-19.15</ele>
  <time>2026-09-01T01:18:18Z</time>
  <course>186.66</course>
  <speed>0.4901020301937138</speed>
  <fix>3d</fix>
</trkpt>
<trkpt lat="33.810141" lon="-118.3938673">
  <ele>-18.64</ele>
  <time>2026-09-01T01:18:18Z</time>
  <course>0.25</course>
  <speed>0.47</speed>
  <fix>3d</fix>
</trkpt>
<trkpt lat="33.8101425" lon="-118.3938676">
  <ele>-19.17</ele>
  <time>2026-09-01T01:18:18Z</time>
  <course>186.66</course>
  <speed>0.4901020301937138</speed>
  <fix>3d</fix>
</trkpt>
<trkpt lat="33.8101419" lon="-118.3938673">
  <ele>-18.67</ele>
  <time>2026-09-01T01:18:18Z</time>
  <course>0.17</course>
  <speed>0.46</speed>
  <fix>3d</fix>
</trkpt>
<trkpt lat="33.8101429" lon="-118.3938676">
  <ele>-19.189</ele>
  <time>2026-09-01T01:18:18Z</time>
  <course>186.66</course>
  <speed>0.4901020301937138</speed>
  <fix>3d</fix>
</trkpt>
<trkpt lat="33.8101419" lon="-118.3938673">
  <ele>-18.67</ele>
  <time>2026-09-01T01:18:18Z</time>
  <course>0.17</course>
  <speed>0.46</speed>
  <fix>3d</fix>
</trkpt>
<trkpt lat="33.8101434" lon="-118.3938676">
  <ele>-19.208</ele>
  <time>2026-09-01T01:18:18Z</time>
  <course>186.66</course>
  <speed>0.4901020301937138</speed>
  <fix>3d</fix>
</trkpt>
<trkpt lat="33.8101427" lon="-118.3938673">
  <ele>-18.71</ele>
  <time>2026-09-01T01:18:18Z</time>
  <course>359.99</course>
  <speed>0.46</speed>
  <fix>3d</fix>
</trkpt>
<trkpt lat="33.8101438" lon="-118.3938676">
  <ele>-19.228</ele>
  <time>2026-09-01T01:18:19Z</time>
  <course>186.66</course>
  <speed>0.4901020301937138</speed>
  <fix>3d</fix>
</trkpt>
<trkpt lat="33.8101427" lon="-118.3938673">
  <ele>-18.71</ele>
  <time>2026-09-01T01:18:19Z</time>
  <course>359.99</course>
  <speed>0.46</speed>
  <fix>3d</fix>
</trkpt>
<trkpt lat="33.8101442" lon="-118.3938676">
  <ele>-19.247</ele>
  <time>2026-09-01T01:18:19Z</time>
  <course>186.66</course>
  <speed>0.4901020301937138</speed>
  <fix>3d</fix>
</trkpt>
<trkpt lat="33.8101435" lon="-118.3938673">
  <ele>-18.75</ele>
  <time>2026-09-01T01:18:19Z</time>
  <course>359.77</course>
  <speed>0.46</speed>
  <fix>3d</fix>
</trkpt>
<trkpt lat="33.8101446" lon="-118.3938676">
  <ele>-19.269</ele>
  <time>2026-09-01T01:18:19Z</time>
  <course>186.66</course>
  <speed>0.49040799340956914</speed>
  <fix>3d</fix>
</trkpt>
<trkpt lat="33.8101435" lon="-118.3938673">
  <ele>-18.75</ele>
  <time>2026-09-01T01:18:19Z</time>
  <course>359.77</course>
  <speed>0.46</speed>
  <fix>3d</fix>
</trkpt>
<trkpt lat="33.810145" lon="-118.3938676">
  <ele>-19.292</ele>
  <time>2026-09-01T01:18:19Z</time>
  <course>186.66</course>
  <speed>0.49040799340956914</speed>
  <fix>3d</fix>
</trkpt>
<trkpt lat="33.8101444" lon="-118.3938673">
  <ele>-18.8</ele>
  <time>2026-09-01T01:18:19Z</time>
  <course>359.59</course>
  <speed>0.46</speed>
  <fix>3d</fix>
</trkpt>
<trkpt lat="33.8101455" lon="-118.3938675">
  <ele>-19.315</ele>
  <time>2026-09-01T01:18:19Z</time>
  <course>186.66</course>
  <speed>0.49040799340956914</speed>
  <fix>3d</fix>
</trkpt>
<trkpt lat="33.8101444" lon="-118.3938673">
  <ele>-18.8</ele>
  <time>2026-09-01T01:18:19Z</time>
  <course>359.59</course>
  <speed>0.46</speed>
  <fix>3d</fix>
</trkpt>
<trkpt lat="33.8101459" lon="-118.3938675">
  <ele>-19.335</ele>
  <time>2026-09-01T01:18:19Z</time>
  <course>186.66</course>
  <speed>0.49040799340956914</speed>
  <fix>3d</fix>
</trkpt>
<trkpt lat="33.8101452" lon="-118.3938673">
  <ele>-18.84</ele>
  <time>2026-09-01T01:18:19Z</time>
  <course>359.45</course>
  <speed>0.47</speed>
  <fix>3d</fix>
</trkpt>
<trkpt lat="33.8101463" lon="-118.3938675">
  <ele>-19.357</ele>
  <time>2026-09-01T01:18:19Z</time>
  <course>186.66</course>
  <speed>0.49040799340956914</speed>
  <fix>3d</fix>
</trkpt>
<trkpt lat="33.8101452" lon="-118.3938673">
  <ele>-18.84</ele>
  <time>2026-09-01T01:18:19Z</time>
  <course>359.45</course>
  <speed>0.47</speed>
  <fix>3d</fix>
</trkpt>
<trkpt lat="33.8101467" lon="-118.3938675">
  <ele>-19.378</ele>
  <time>2026-09-01T01:18:19Z</time>
  <course>186.66</course>
  <speed>0.49040799340956914</speed>
  <fix>3d</fix>
</trkpt>
<trkpt lat="33.8101461" lon="-118.3938673">
  <ele>-18.88</ele>
  <time>2026-09-01T01:18:19Z</time>
  <course>359.33</course>
  <speed>0.47</speed>
  <fix>3d</fix>
</trkpt>
<trkpt lat="33.8101472" lon="-118.3938675">
  <ele>-19.397</ele>
  <time>2026-09-01T01:18:19Z</time>
  <course>186.66</course>
  <speed>0.49040799340956914</speed>
  <fix>3d</fix>
</trkpt>
<trkpt lat="33.8101461" lon="-118.3938673">
  <ele>-18.88</ele>
  <time>2026-09-01T01:18:19Z</time>
  <course>359.33</course>
  <speed>0.47</speed>
  <fix>3d</fix>
</trkpt>
<trkpt lat="33.8101476" lon="-118.3938675">
  <ele>-19.415</ele>
  <time>2026-09-01T01:18:19Z</time>
  <course>186.66</course>
  <speed>0.49040799340956914</speed>
  <fix>3d</fix>
</trkpt>
<trkpt lat="33.8101469" lon="-118.3938673">
  <ele>-18.92</ele>
  <time>2026-09-01T01:18:19Z</time>
  <course>359.24</course>
  <speed>0.47</speed>
  <fix>3d</fix>
</trkpt>
<trkpt lat="33.810148" lon="-118.3938675">
  <ele>-19.431</ele>
  <time>2026-09-01T01:18:19Z</time>
  <course>186.66</course>
  <speed>0.49040799340956914</speed>
  <fix>3d</fix>
</trkpt>
<trkpt lat="33.8101469" lon="-118.3938673">
  <ele>-18.92</ele>
  <time>2026-09-01T01:18:19Z</time>
  <course>359.24</course>
  <speed>0.47</speed>
  <fix>3d</fix>
</trkpt>
<trkpt lat="33.8101485" lon="-118.3938675">
  <ele>-19.446</ele>
  <time>2026-09-01T01:18:19Z</time>
  <course>186.66</course>
  <speed>0.49040799340956914</speed>
  <fix>3d</fix>
</trkpt>
<trkpt lat="33.8101477" lon="-118.3938673">
  <ele>-18.95</ele>
  <time>2026-09-01T01:18:19Z</time>
  <course>359.21</course>
  <speed>0.47</speed>
  <fix>3d</fix>
</trkpt>
<trkpt lat="33.8101489" lon="-118.3938675">
  <ele>-19.462</ele>
  <time>2026-09-01T01:18:19Z</time>
  <course>186.66</course>
  <speed>0.49040799340956914</speed>
  <fix>3d</fix>
</trkpt>
<trkpt lat="33.8101477" lon="-118.3938673">
  <ele>-18.95</ele>
  <time>2026-09-01T01:18:19Z</time>
  <course>359.21</course>
  <speed>0.47</speed>
  <fix>3d</fix>
</trkpt>
<trkpt lat="33.8101493" lon="-118.3938675">
  <ele>-19.48</ele>
  <time>2026-09-01T01:18:19Z</time>
  <course>186.66</course>
  <speed>0.49040799340956914</speed>
  <fix>3d</fix>
</trkpt>
<trkpt lat="33.8101486" lon="-118.3938673">
  <ele>-18.98</ele>
  <time>2026-09-01T01:18:19Z</time>
  <course>359.2</course>
  <speed>0.47</speed>
  <fix>3d</fix>
</trkpt>
<trkpt lat="33.8101497" lon="-118.3938675">
  <ele>-19.503</ele>
  <time>2026-09-01T01:18:19Z</time>
  <course>186.66</course>
  <speed>0.5003998401278722</speed>
  <fix>3d</fix>
</trkpt>
<trkpt lat="33.8101486" lon="-118.3938673">
  <ele>-18.98</ele>
  <time>2026-09-01T01:18:19Z</time>
  <course>359.2</course>
  <speed>0.47</speed>
  <fix>3d</fix>
</trkpt>
<trkpt lat="33.8101502" lon="-118.3938675">
  <ele>-19.525</ele>
  <time>2026-09-01T01:18:19Z</time>
  <course>186.66</course>
  <speed>0.49040799340956914</speed>
  <fix>3d</fix>
</trkpt>
<trkpt lat="33.8101494" lon="-118.3938673">
  <ele>-19.02</ele>
  <time>2026-09-01T01:18:19Z</time>
  <course>359.15</course>
  <speed>0.47</speed>
  <fix>3d</fix>
</trkpt>
<trkpt lat="33.8101506" lon="-118.3938675">
  <ele>-19.545</ele>
  <time>2026-09-01T01:18:19Z</time>
  <course>186.66</course>
  <speed>0.5003998401278722</speed>
  <fix>3d</fix>
</trkpt>
<trkpt lat="33.8101494" lon="-118.3938673">
  <ele>-19.02</ele>
  <time>2026-09-01T01:18:19Z</time>
  <course>359.15</course>
  <speed>0.47</speed>
  <fix>3d</fix>
</trkpt>
<trkpt lat="33.810151" lon="-118.3938675">
  <ele>-19.563</ele>
  <time>2026-09-01T01:18:19Z</time>
  <course>186.66</course>
  <speed>0.5003998401278722</speed>
  <fix>3d</fix>
</trkpt>
<trkpt lat="33.8101503" lon="-118.3938673">
  <ele>-19.06</ele>
  <time>2026-09-01T01:18:19Z</time>
  <course>359.11</course>
  <speed>0.47</speed>
  <fix>3d</fix>
</trkpt>
<trkpt lat="33.8101514" lon="-118.3938675">
  <ele>-19.577</ele>
  <time>2026-09-01T01:18:19Z</time>
  <course>186.66</course>
  <speed>0.5003998401278722</speed>
  <fix>3d</fix>
</trkpt>
<trkpt lat="33.8101503" lon="-118.3938673">
  <ele>-19.06</ele>
  <time>2026-09-01T01:18:19Z</time>
  <course>359.11</course>
  <speed>0.47</speed>
  <fix>3d</fix>
</trkpt>
<trkpt lat="33.8101519" lon="-118.3938675">
  <ele>-19.588</ele>
  <time>2026-09-01T01:18:19Z</time>
  <course>186.66</course>
  <speed>0.5000999900019995</speed>
  <fix>3d</fix>
</trkpt>
<trkpt lat="33.8101511" lon="-118.3938673">
  <ele>-19.09</ele>
  <time>2026-09-01T01:18:19Z</time>
  <course>359.1</course>
  <speed>0.47</speed>
  <fix>3d</fix>
</trkpt>
<trkpt lat="33.8101523" lon="-118.3938675">
  <ele>-19.598</ele>
  <time>2026-09-01T01:18:19Z</time>
  <course>186.66</course>
  <speed>0.5003998401278722</speed>
  <fix>3d</fix>
</trkpt>
<trkpt lat="33.8101511" lon="-118.3938673">
  <ele>-19.09</ele>
  <time>2026-09-01T01:18:19Z</time>
  <course>359.1</course>
  <speed>0.47</speed>
  <fix>3d</fix>
</trkpt>
<trkpt lat="33.8101527" lon="-118.3938675">
  <ele>-19.61</ele>
  <time>2026-09-01T01:18:19Z</time>
  <course>186.66</course>
  <speed>0.5000999900019995</speed>
  <fix>3d</fix>
</trkpt>
<trkpt lat="33.810152" lon="-118.3938674">
  <ele>-19.11</ele>
  <time>2026-09-01T01:18:19Z</time>
  <course>359.09</course>
  <speed>0.47</speed>
  <fix>3d</fix>
</trkpt>
<trkpt lat="33.8101531" lon="-118.3938675">
  <ele>-19.628</ele>
  <time>2026-09-01T01:18:19Z</time>
  <course>186.66</course>
  <speed>0.5000999900019995</speed>
  <fix>3d</fix>
</trkpt>
<trkpt lat="33.810152" lon="-118.3938674">
  <ele>-19.11</ele>
  <time>2026-09-01T01:18:19Z</time>
  <course>359.09</course>
  <speed>0.47</speed>
  <fix>3d</fix>
</trkpt>
<trkpt lat="33.8101536" lon="-118.3938675">
  <ele>-19.65</ele>
  <time>2026-09-01T01:18:19Z</time>
  <course>186.66</course>
  <speed>0.5000999900019995</speed>
  <fix>3d</fix>
</trkpt>
<trkpt lat="33.8101529" lon="-118.3938674">
  <ele>-19.14</ele>
  <time>2026-09-01T01:18:19Z</time>
  <course>359.11</course>
  <speed>0.48</speed>
  <fix>3d</fix>
</trkpt>
<trkpt lat="33.810154" lon="-118.3938675">
  <ele>-19.674</ele>
  <time>2026-09-01T01:18:19Z</time>
  <course>186.66</course>
  <speed>0.5000999900019995</speed>
  <fix>3d</fix>
</trkpt>
<trkpt lat="33.8101529" lon="-118.3938674">
  <ele>-19.14</ele>
  <time>2026-09-01T01:18:19Z</time>
  <course>359.11</course>
  <speed>0.48</speed>
  <fix>3d</fix>
</trkpt>
<trkpt lat="33.8101544" lon="-118.3938675">
  <ele>-19.699</ele>
  <time>2026-09-01T01:18:19Z</time>
  <course>186.66</course>
  <speed>0.47010637094172636</speed>
  <fix>3d</fix>
</trkpt>
<trkpt lat="33.8101537" lon="-118.3938674">
  <ele>-19.18</ele>
  <time>2026-09-01T01:18:19Z</time>
  <course>359.21</course>
  <speed>0.48</speed>
  <fix>3d</fix>
</trkpt>
<trkpt lat="33.8101548" lon="-118.3938675">
  <ele>-19.722</ele>
  <time>2026-09-01T01:18:19Z</time>
  <course>186.66</course>
  <speed>0.47010637094172636</speed>
  <fix>3d</fix>
</trkpt>
<trkpt lat="33.8101537" lon="-118.3938674">
  <ele>-19.18</ele>
  <time>2026-09-01T01:18:19Z</time>
  <course>359.21</course>
  <speed>0.48</speed>
  <fix>3d</fix>
</trkpt>
<trkpt lat="33.8101552" lon="-118.3938675">
  <ele>-19.746</ele>
  <time>2026-09-01T01:18:19Z</time>
  <course>186.66</course>
  <speed>0.47010637094172636</speed>
  <fix>3d</fix>
</trkpt>
<trkpt lat="33.8101546" lon="-118.3938674">
  <ele>-19.22</ele>
  <time>2026-09-01T01:18:19Z</time>
  <course>359.39</course>
  <speed>0.46</speed>
  <fix>3d</fix>
</trkpt>
<trkpt lat="33.8101557" lon="-118.3938675">
  <ele>-19.77</ele>
  <time>2026-09-01T01:18:19Z</time>
  <course>186.66</course>
  <speed>0.4801041553663121</speed>
  <fix>3d</fix>
</trkpt>
<trkpt lat="33.8101546" lon="-118.3938674">
  <ele>-19.22</ele>
  <time>2026-09-01T01:18:19Z</time>
  <course>359.39</course>
  <speed>0.46</speed>
  <fix>3d</fix>
</trkpt>
<trkpt lat="33.8101561" lon="-118.3938675">
  <ele>-19.793</ele>
  <time>2026-09-01T01:18:19Z</time>
  <course>186.66</course>
  <speed>0.4801041553663121</speed>
  <fix>3d</fix>
</trkpt>
<trkpt lat="33.8101554" lon="-118.3938674">
  <ele>-19.27</ele>
  <time>2026-09-01T01:18:19Z</time>
  <course>359.56</course>
  <speed>0.45</speed>
  <fix>3d</fix>
</trkpt>
<trkpt lat="33.8101565" lon="-118.3938675">
  <ele>-19.815</ele>
  <time>2026-09-01T01:18:19Z</time>
  <course>186.66</course>
  <speed>0.4801041553663121</speed>
  <fix>3d</fix>
</trkpt>
<trkpt lat="33.8101554" lon="-118.3938674">
  <ele>-19.27</ele>
  <time>2026-09-01T01:18:19Z</time>
  <course>359.56</course>
  <speed>0.45</speed>
  <fix>3d</fix>
</trkpt>
<trkpt lat="33.8101569" lon="-118.3938675">
  <ele>-19.835</ele>
  <time>2026-09-01T01:18:19Z</time>
  <course>186.66</course>
  <speed>0.4801041553663121</speed>
  <fix>3d</fix>
</trkpt>
<trkpt lat="33.8101563" lon="-118.3938674">
  <ele>-19.31</ele>
  <time>2026-09-01T01:18:19Z</time>
  <course>359.65</course>
  <speed>0.46</speed>
  <fix>3d</fix>
</trkpt>
<trkpt lat="33.8101573" lon="-118.3938675">
  <ele>-19.854</ele>
  <time>2026-09-01T01:18:19Z</time>
  <course>186.66</course>
  <speed>0.4901020301937138</speed>
  <fix>3d</fix>
</trkpt>
<trkpt lat="33.8101563" lon="-118.3938674">
  <ele>-19.31</ele>
  <time>2026-09-01T01:18:19Z</time>
  <course>359.65</course>
  <speed>0.46</speed>
  <fix>3d</fix>
</trkpt>
<trkpt lat="33.8101578" lon="-118.3938675">
  <ele>-19.87</ele>
  <time>2026-09-01T01:18:19Z</time>
  <course>186.66</course>
  <speed>0.4901020301937138</speed>
  <fix>3d</fix>
</trkpt>
<trkpt lat="33.8101571" lon="-118.3938674">
  <ele>-19.35</ele>
  <time>2026-09-01T01:18:19Z</time>
  <course>359.67</course>
  <speed>0.46</speed>
  <fix>3d</fix>
</trkpt>
<trkpt lat="33.8101582" lon="-118.3938675">
  <ele>-19.883</ele>
  <time>2026-09-01T01:18:19Z</time>
  <course>186.66</course>
  <speed>0.4901020301937138</speed>
  <fix>3d</fix>
</trkpt>
<trkpt lat="33.8101571" lon="-118.3938674">
  <ele>-19.35</ele>
  <time>2026-09-01T01:18:19Z</time>
  <course>359.67</course>
  <speed>0.46</speed>
  <fix>3d</fix>
</trkpt>
<trkpt lat="33.8101586" lon="-118.3938675">
  <ele>-19.895</ele>
  <time>2026-09-01T01:18:19Z</time>
  <course>186.66</course>
  <speed>0.4901020301937138</speed>
  <fix>3d</fix>
</trkpt>
<trkpt lat="33.8101579" lon="-118.3938674">
  <ele>-19.38</ele>
  <time>2026-09-01T01:18:19Z</time>
  <course>359.67</course>
  <speed>0.46</speed>
  <fix>3d</fix>
</trkpt>
<trkpt lat="33.810159" lon="-118.3938675">
  <ele>-19.909</ele>
  <time>2026-09-01T01:18:19Z</time>
  <course>186.66</course>
  <speed>0.4901020301937138</speed>
  <fix>3d</fix>
</trkpt>
<trkpt lat="33.8101579" lon="-118.3938674">
  <ele>-19.38</ele>
  <time>2026-09-01T01:18:19Z</time>
  <course>359.67</course>
  <speed>0.46</speed>
  <fix>3d</fix>
</trkpt>
<trkpt lat="33.8101595" lon="-118.3938675">
  <ele>-19.925</ele>
  <time>2026-09-01T01:18:19Z</time>
  <course>186.66</course>
  <speed>0.5000999900019995</speed>
  <fix>3d</fix>
</trkpt>
<trkpt lat="33.8101587" lon="-118.3938674">
  <ele>-19.4</ele>
  <time>2026-09-01T01:18:19Z</time>
  <course>359.67</course>
  <speed>0.47</speed>
  <fix>3d</fix>
</trkpt>
<trkpt lat="33.8101599" lon="-118.3938675">
  <ele>-19.94</ele>
  <time>2026-09-01T01:18:19Z</time>
  <course>186.66</course>
  <speed>0.5000999900019995</speed>
  <fix>3d</fix>
</trkpt>
<trkpt lat="33.8101587" lon="-118.3938674">
  <ele>-19.4</ele>
  <time>2026-09-01T01:18:19Z</time>
  <course>359.67</course>
  <speed>0.47</speed>
  <fix>3d</fix>
</trkpt>
<trkpt lat="33.8101603" lon="-118.3938675">
  <ele>-19.953</ele>
  <time>2026-09-01T01:18:19Z</time>
  <course>186.66</course>
  <speed>0.5000999900019995</speed>
  <fix>3d</fix>
</trkpt>
<trkpt lat="33.8101596" lon="-118.3938674">
  <ele>-19.43</ele>
  <time>2026-09-01T01:18:19Z</time>
  <course>359.64</course>
  <speed>0.47</speed>
  <fix>3d</fix>
</trkpt>
<trkpt lat="33.8101608" lon="-118.3938675">
  <ele>-19.964</ele>
  <time>2026-09-01T01:18:19Z</time>
  <course>186.66</course>
  <speed>0.5000999900019995</speed>
  <fix>3d</fix>
</trkpt>
<trkpt lat="33.8101596" lon="-118.3938674">
  <ele>-19.43</ele>
  <time>2026-09-01T01:18:19Z</time>
  <course>359.64</course>
  <speed>0.47</speed>
  <fix>3d</fix>
</trkpt>
<trkpt lat="33.8101612" lon="-118.3938675">
  <ele>-19.973</ele>
  <time>2026-09-01T01:18:19Z</time>
  <course>186.66</course>
  <speed>0.47010637094172636</speed>
  <fix>3d</fix>
</trkpt>
<trkpt lat="33.8101604" lon="-118.3938675">
  <ele>-19.46</ele>
  <time>2026-09-01T01:18:19Z</time>
  <course>359.63</course>
  <speed>0.47</speed>
  <fix>3d</fix>
</trkpt>
<trkpt lat="33.8101616" lon="-118.3938675">
  <ele>-19.986</ele>
  <time>2026-09-01T01:18:19Z</time>
  <course>186.66</course>
  <speed>0.47010637094172636</speed>
  <fix>3d</fix>
</trkpt>
<trkpt lat="33.8101604" lon="-118.3938675">
  <ele>-19.46</ele>
  <time>2026-09-01T01:18:19Z</time>
  <course>359.63</course>
  <speed>0.47</speed>
  <fix>3d</fix>
</trkpt>
<trkpt lat="33.810162" lon="-118.3938675">
  <ele>-20.003</ele>
  <time>2026-09-01T01:18:19Z</time>
  <course>186.66</course>
  <speed>0.4801041553663121</speed>
  <fix>3d</fix>
</trkpt>
<trkpt lat="33.8101613" lon="-118.3938675">
  <ele>-19.49</ele>
  <time>2026-09-01T01:18:19Z</time>
  <course>359.73</course>
  <speed>0.46</speed>
  <fix>3d</fix>
</trkpt>
<trkpt lat="33.8101624" lon="-118.3938675">
  <ele>-20.024</ele>
  <time>2026-09-01T01:18:19Z</time>
  <course>186.66</course>
  <speed>0.4801041553663121</speed>
  <fix>3d</fix>
</trkpt>
<trkpt lat="33.8101613" lon="-118.3938675">
  <ele>-19.49</ele>
  <time>2026-09-01T01:18:19Z</time>
  <course>359.73</course>
  <speed>0.46</speed>
  <fix>3d</fix>
</trkpt>
<trkpt lat="33.8101628" lon="-118.3938675">
  <ele>-20.047</ele>
  <time>2026-09-01T01:18:19Z</time>
  <course>186.66</course>
  <speed>0.4801041553663121</speed>
  <fix>3d</fix>
</trkpt>
<trkpt lat="33.8101621" lon="-118.3938675">
  <ele>-19.52</ele>
  <time>2026-09-01T01:18:19Z</time>
  <course>359.96</course>
  <speed>0.45</speed>
  <fix>3d</fix>
</trkpt>
<trkpt lat="33.8101632" lon="-118.3938675">
  <ele>-20.072</ele>
  <time>2026-09-01T01:18:19Z</time>
  <course>186.66</course>
  <speed>0.4901020301937138</speed>
  <fix>3d</fix>
</trkpt>
<trkpt lat="33.8101621" lon="-118.3938675">
  <ele>-19.52</ele>
  <time>2026-09-01T01:18:19Z</time>
  <course>359.96</course>
  <speed>0.45</speed>
  <fix>3d</fix>
</trkpt>
<trkpt lat="33.8101637" lon="-118.3938675">
  <ele>-20.1</ele>
  <time>2026-09-01T01:18:19Z</time>
  <course>186.66</course>
  <speed>0.4901020301937138</speed>
  <fix>3d</fix>
</trkpt>
<trkpt lat="33.810163" lon="-118.3938675">
  <ele>-19.57</ele>
  <time>2026-09-01T01:18:19Z</time>
  <course>0.16</course>
  <speed>0.46</speed>
  <fix>3d</fix>
</trkpt>
<trkpt lat="33.8101641" lon="-118.3938675">
  <ele>-20.128</ele>
  <time>2026-09-01T01:18:19Z</time>
  <course>186.66</course>
  <speed>0.4901020301937138</speed>
  <fix>3d</fix>
</trkpt>
<trkpt lat="33.810163" lon="-118.3938675">
  <ele>-19.57</ele>
  <time>2026-09-01T01:18:19Z</time>
  <course>0.16</course>
  <speed>0.46</speed>
  <fix>3d</fix>
</trkpt>
<trkpt lat="33.8101645" lon="-118.3938675">
  <ele>-20.156</ele>
  <time>2026-09-01T01:18:19Z</time>
  <course>186.66</course>
  <speed>0.5000999900019995</speed>
  <fix>3d</fix>
</trkpt>
<trkpt lat="33.8101638" lon="-118.3938675">
  <ele>-19.62</ele>
  <time>2026-09-01T01:18:19Z</time>
  <course>0.3</course>
  <speed>0.47</speed>
  <fix>3d</fix>
</trkpt>
<trkpt lat="33.8101649" lon="-118.3938675">
  <ele>-20.188</ele>
  <time>2026-09-01T01:18:19Z</time>
  <course>186.66</course>
  <speed>0.5000999900019995</speed>
  <fix>3d</fix>
</trkpt>
<trkpt lat="33.8101638" lon="-118.3938675">
  <ele>-19.62</ele>
  <time>2026-09-01T01:18:19Z</time>
  <course>0.3</course>
  <speed>0.47</speed>
  <fix>3d</fix>
</trkpt>
<trkpt lat="33.8101654" lon="-118.3938675">
  <ele>-20.22</ele>
  <time>2026-09-01T01:18:19Z</time>
  <course>186.66</course>
  <speed>0.5</speed>
  <fix>3d</fix>
</trkpt>
<trkpt lat="33.8101647" lon="-118.3938675">
  <ele>-19.68</ele>
  <time>2026-09-01T01:18:19Z</time>
  <course>0.39</course>
  <speed>0.47</speed>
  <fix>3d</fix>
</trkpt>
<trkpt lat="33.8101658" lon="-118.3938675">
  <ele>-20.251</ele>
  <time>2026-09-01T01:18:19Z</time>
  <course>186.66</course>
  <speed>0.47010637094172636</speed>
  <fix>3d</fix>
</trkpt>
<trkpt lat="33.8101647" lon="-118.3938675">
  <ele>-19.68</ele>
  <time>2026-09-01T01:18:19Z</time>
  <course>0.39</course>
  <speed>0.47</speed>
  <fix>3d</fix>
</trkpt>
<trkpt lat="33.8101662" lon="-118.3938675">
  <ele>-20.279</ele>
  <time>2026-09-01T01:18:19Z</time>
  <course>186.66</course>
  <speed>0.47</speed>
  <fix>3d</fix>
</trkpt>
<trkpt lat="33.8101655" lon="-118.3938675">
  <ele>-19.74</ele>
  <time>2026-09-01T01:18:19Z</time>
  <course>0.52</course>
  <speed>0.46</speed>
  <fix>3d</fix>
</trkpt>
<trkpt lat="33.8101666" lon="-118.3938675">
  <ele>-20.304</ele>
  <time>2026-09-01T01:18:19Z</time>
  <course>186.66</course>
  <speed>0.48</speed>
  <fix>3d</fix>
</trkpt>
<trkpt lat="33.8101655" lon="-118.3938675">
  <ele>-19.74</ele>
  <time>2026-09-01T01:18:19Z</time>
  <course>0.52</course>
  <speed>0.46</speed>
  <fix>3d</fix>
</trkpt>
<trkpt lat="33.810167" lon="-118.3938675">
  <ele>-20.327</ele>
  <time>2026-09-01T01:18:19Z</time>
  <course>186.66</course>
  <speed>0.48</speed>
  <fix>3d</fix>
</trkpt>
<trkpt lat="33.8101664" lon="-118.3938675">
  <ele>-19.79</ele>
  <time>2026-09-01T01:18:19Z</time>
  <course>0.66</course>
  <speed>0.45</speed>
  <fix>3d</fix>
</trkpt>
<trkpt lat="33.8101674" lon="-118.3938675">
  <ele>-20.35</ele>
  <time>2026-09-01T01:18:19Z</time>
  <course>186.66</course>
  <speed>0.48</speed>
  <fix>3d</fix>
</trkpt>
<trkpt lat="33.8101664" lon="-118.3938675">
  <ele>-19.79</ele>
  <time>2026-09-01T01:18:19Z</time>
  <course>0.66</course>
  <speed>0.45</speed>
  <fix>3d</fix>
</trkpt>
<trkpt lat="33.8101679" lon="-118.3938675">
  <ele>-20.372</ele>
  <time>2026-09-01T01:18:19Z</time>
  <course>186.66</course>
  <speed>0.49</speed>
  <fix>3d</fix>
</trkpt>
<trkpt lat="33.8101671" lon="-118.3938675">
  <ele>-19.84</ele>
  <time>2026-09-01T01:18:19Z</time>
  <course>0.71</course>
  <speed>0.46</speed>
  <fix>3d</fix>
</trkpt>
<trkpt lat="33.8101683" lon="-118.3938675">
  <ele>-20.392</ele>
  <time>2026-09-01T01:18:19Z</time>
  <course>186.66</course>
  <speed>0.4901020301937138</speed>
  <fix>3d</fix>
</trkpt>
<trkpt lat="33.8101671" lon="-118.3938675">
  <ele>-19.84</ele>
  <time>2026-09-01T01:18:19Z</time>
  <course>0.71</course>
  <speed>0.46</speed>
  <fix>3d</fix>
</trkpt>
<trkpt lat="33.8101687" lon="-118.3938675">
  <ele>-20.413</ele>
  <time>2026-09-01T01:18:19Z</time>
  <course>186.66</course>
  <speed>0.5</speed>
  <fix>3d</fix>
</trkpt>
<trkpt lat="33.810168" lon="-118.3938675">
  <ele>-19.89</ele>
  <time>2026-09-01T01:18:19Z</time>
  <course>0.7</course>
  <speed>0.47</speed>
  <fix>3d</fix>
</trkpt>
<trkpt lat="33.8101691" lon="-118.3938675">
  <ele>-20.433</ele>
  <time>2026-09-01T01:18:19Z</time>
  <course>186.66</course>
  <speed>0.5000999900019995</speed>
  <fix>3d</fix>
</trkpt>
<trkpt lat="33.810168" lon="-118.3938675">
  <ele>-19.89</ele>
  <time>2026-09-01T01:18:19Z</time>
  <course>0.7</course>
  <speed>0.47</speed>
  <fix>3d</fix>
</trkpt>
<trkpt lat="33.8101696" lon="-118.3938675">
  <ele>-20.455</ele>
  <time>2026-09-01T01:18:19Z</time>
  <course>186.66</course>
  <speed>0.5000999900019995</speed>
  <fix>3d</fix>
</trkpt>
<trkpt lat="33.8101688" lon="-118.3938675">
  <ele>-19.93</ele>
  <time>2026-09-01T01:18:19Z</time>
  <course>0.71</course>
  <speed>0.47</speed>
  <fix>3d</fix>
</trkpt>
<trkpt lat="33.81017" lon="-118.3938675">
  <ele>-20.476</ele>
  <time>2026-09-01T01:18:19Z</time>
  <course>186.66</course>
  <speed>0.5000999900019995</speed>
  <fix>3d</fix>
</trkpt>
<trkpt lat="33.8101688" lon="-118.3938675">
  <ele>-19.93</ele>
  <time>2026-09-01T01:18:19Z</time>
  <course>0.71</course>
  <speed>0.47</speed>
  <fix>3d</fix>
</trkpt>
<trkpt lat="33.8101704" lon="-118.3938675">
  <ele>-20.497</ele>
  <time>2026-09-01T01:18:19Z</time>
  <course>186.66</course>
  <speed>0.5000999900019995</speed>
  <fix>3d</fix>
</trkpt>
<trkpt lat="33.8101697" lon="-118.3938675">
  <ele>-19.97</ele>
  <time>2026-09-01T01:18:19Z</time>
  <course>0.73</course>
  <speed>0.48</speed>
  <fix>3d</fix>
</trkpt>
<trkpt lat="33.8101709" lon="-118.3938675">
  <ele>-20.518</ele>
  <time>2026-09-01T01:18:19Z</time>
  <course>186.66</course>
  <speed>0.510098029794274</speed>
  <fix>3d</fix>
</trkpt>
<trkpt lat="33.8101697" lon="-118.3938675">
  <ele>-19.97</ele>
  <time>2026-09-01T01:18:19Z</time>
  <course>0.73</course>
  <speed>0.48</speed>
  <fix>3d</fix>
</trkpt>
<trkpt lat="33.8101713" lon="-118.3938675">
  <ele>-20.543</ele>
  <time>2026-09-01T01:18:19Z</time>
  <course>186.66</course>
  <speed>0.510098029794274</speed>
  <fix>3d</fix>
</trkpt>
<trkpt lat="33.8101706" lon="-118.3938675">
  <ele>-20.01</ele>
  <time>2026-09-01T01:18:19Z</time>
  <course>0.76</course>
  <speed>0.48</speed>
  <fix>3d</fix>
</trkpt>
<trkpt lat="33.8101718" lon="-118.3938675">
  <ele>-20.567</ele>
  <time>2026-09-01T01:18:19Z</time>
  <course>186.66</course>
  <speed>0.510098029794274</speed>
  <fix>3d</fix>
</trkpt>
<trkpt lat="33.8101706" lon="-118.3938675">
  <ele>-20.01</ele>
  <time>2026-09-01T01:18:19Z</time>
  <course>0.76</course>
  <speed>0.48</speed>
  <fix>3d</fix>
</trkpt>
<trkpt lat="33.8101722" lon="-118.3938675">
  <ele>-20.591</ele>
  <time>2026-09-01T01:18:19Z</time>
  <course>186.66</course>
  <speed>0.510098029794274</speed>
  <fix>3d</fix>
</trkpt>
<trkpt lat="33.8101714" lon="-118.3938675">
  <ele>-20.05</ele>
  <time>2026-09-01T01:18:19Z</time>
  <course>0.81</course>
  <speed>0.48</speed>
  <fix>3d</fix>
</trkpt>
<trkpt lat="33.8101726" lon="-118.3938675">
  <ele>-20.613</ele>
  <time>2026-09-01T01:18:19Z</time>
  <course>186.66</course>
  <speed>0.510098029794274</speed>
  <fix>3d</fix>
</trkpt>
<trkpt lat="33.8101714" lon="-118.3938675">
  <ele>-20.05</ele>
  <time>2026-09-01T01:18:19Z</time>
  <course>0.81</course>
  <speed>0.48</speed>
  <fix>3d</fix>
</trkpt>
<trkpt lat="33.8101731" lon="-118.3938675">
  <ele>-20.632</ele>
  <time>2026-09-01T01:18:19Z</time>
  <course>186.66</course>
  <speed>0.510098029794274</speed>
  <fix>3d</fix>
</trkpt>
<trkpt lat="33.8101723" lon="-118.3938674">
  <ele>-20.1</ele>
  <time>2026-09-01T01:18:19Z</time>
  <course>0.85</course>
  <speed>0.49</speed>
  <fix>3d</fix>
</trkpt>
<trkpt lat="33.8101735" lon="-118.3938675">
  <ele>-20.649</ele>
  <time>2026-09-01T01:18:19Z</time>
  <course>186.66</course>
  <speed>0.510098029794274</speed>
  <fix>3d</fix>
</trkpt>
<trkpt lat="33.8101723" lon="-118.3938674">
  <ele>-20.1</ele>
  <time>2026-09-01T01:18:19Z</time>
  <course>0.85</course>
  <speed>0.49</speed>
  <fix>3d</fix>
</trkpt>
<trkpt lat="33.810174" lon="-118.3938675">
  <ele>-20.663</ele>
  <time>2026-09-01T01:18:19Z</time>
  <course>186.66</course>
  <speed>0.510098029794274</speed>
  <fix>3d</fix>
</trkpt>
<trkpt lat="33.8101732" lon="-118.3938674">
  <ele>-20.13</ele>
  <time>2026-09-01T01:18:19Z</time>
  <course>0.83</course>
  <speed>0.49</speed>
  <fix>3d</fix>
</trkpt>
<trkpt lat="33.8101744" lon="-118.3938675">
  <ele>-20.672</ele>
  <time>2026-09-01T01:18:19Z</time>
  <course>186.66</course>
  <speed>0.510098029794274</speed>
  <fix>3d</fix>
</trkpt>
<trkpt lat="33.8101732" lon="-118.3938674">
  <ele>-20.13</ele>
  <time>2026-09-01T01:18:19Z</time>
  <course>0.83</course>
  <speed>0.49</speed>
  <fix>3d</fix>
</trkpt>
<trkpt lat="33.8101748" lon="-118.3938675">
  <ele>-20.68</ele>
  <time>2026-09-01T01:18:19Z</time>
  <course>186.66</course>
  <speed>0.510098029794274</speed>
  <fix>3d</fix>
</trkpt>
<trkpt lat="33.8101741" lon="-118.3938674">
  <ele>-20.16</ele>
  <time>2026-09-01T01:18:19Z</time>
  <course>0.72</course>
  <speed>0.49</speed>
  <fix>3d</fix>
</trkpt>
<trkpt lat="33.8101753" lon="-118.3938675">
  <ele>-20.684</ele>
  <time>2026-09-01T01:18:19Z</time>
  <course>186.66</course>
  <speed>0.510098029794274</speed>
  <fix>3d</fix>
</trkpt>
<trkpt lat="33.8101741" lon="-118.3938674">
  <ele>-20.16</ele>
  <time>2026-09-01T01:18:19Z</time>
  <course>0.72</course>
  <speed>0.49</speed>
  <fix>3d</fix>
</trkpt>
<trkpt lat="33.8101757" lon="-118.3938675">
  <ele>-20.687</ele>
  <time>2026-09-01T01:18:19Z</time>
  <course>186.66</course>
  <speed>0.510098029794274</speed>
  <fix>3d</fix>
</trkpt>
<trkpt lat="33.810175" lon="-118.3938674">
  <ele>-20.17</ele>
  <time>2026-09-01T01:18:19Z</time>
  <course>0.55</course>
  <speed>0.49</speed>
  <fix>3d</fix>
</trkpt>
<trkpt lat="33.8101762" lon="-118.3938675">
  <ele>-20.695</ele>
  <time>2026-09-01T01:18:19Z</time>
  <course>186.66</course>
  <speed>0.510098029794274</speed>
  <fix>3d</fix>
</trkpt>
<trkpt lat="33.810175" lon="-118.3938674">
  <ele>-20.17</ele>
  <time>2026-09-01T01:18:19Z</time>
  <course>0.55</course>
  <speed>0.49</speed>
  <fix>3d</fix>
</trkpt>
<trkpt lat="33.8101766" lon="-118.3938675">
  <ele>-20.705</ele>
  <time>2026-09-01T01:18:19Z</time>
  <course>186.66</course>
  <speed>0.5000999900019995</speed>
  <fix>3d</fix>
</trkpt>
<trkpt lat="33.8101759" lon="-118.3938674">
  <ele>-20.18</ele>
  <time>2026-09-01T01:18:19Z</time>
  <course>0.41</course>
  <speed>0.49</speed>
  <fix>3d</fix>
</trkpt>
<trkpt lat="33.810177" lon="-118.3938675">
  <ele>-20.715</ele>
  <time>2026-09-01T01:18:19Z</time>
  <course>186.66</course>
  <speed>0.4801041553663121</speed>
  <fix>3d</fix>
</trkpt>
<trkpt lat="33.8101759" lon="-118.3938674">
  <ele>-20.18</ele>
  <time>2026-09-01T01:18:19Z</time>
  <course>0.41</course>
  <speed>0.49</speed>
  <fix>3d</fix>
</trkpt>
<trkpt lat="33.8101774" lon="-118.3938675">
  <ele>-20.726</ele>
  <time>2026-09-01T01:18:19Z</time>
  <course>186.66</course>
  <speed>0.4801041553663121</speed>
  <fix>3d</fix>
</trkpt>
<trkpt lat="33.8101767" lon="-118.3938674">
  <ele>-20.2</ele>
  <time>2026-09-01T01:18:19Z</time>
  <course>0.37</course>
  <speed>0.47</speed>
  <fix>3d</fix>
</trkpt>
<trkpt lat="33.8101779" lon="-118.3938675">
  <ele>-20.738</ele>
  <time>2026-09-01T01:18:19Z</time>
  <course>186.66</course>
  <speed>0.4901020301937138</speed>
  <fix>3d</fix>
</trkpt>
<trkpt lat="33.8101767" lon="-118.3938674">
  <ele>-20.2</ele>
  <time>2026-09-01T01:18:19Z</time>
  <course>0.37</course>
  <speed>0.47</speed>
  <fix>3d</fix>
</trkpt>
<trkpt lat="33.8101783" lon="-118.3938675">
  <ele>-20.755</ele>
  <time>2026-09-01T01:18:19Z</time>
  <course>186.66</course>
  <speed>0.4901020301937138</speed>
  <fix>3d</fix>
</trkpt>
<trkpt lat="33.8101776" lon="-118.3938674">
  <ele>-20.22</ele>
  <time>2026-09-01T01:18:19Z</time>
  <course>0.38</course>
  <speed>0.46</speed>
  <fix>3d</fix>
</trkpt>
<trkpt lat="33.8101787" lon="-118.3938675">
  <ele>-20.777</ele>
  <time>2026-09-01T01:18:19Z</time>
  <course>186.66</course>
  <speed>0.4901020301937138</speed>
  <fix>3d</fix>
</trkpt>
<trkpt lat="33.8101776" lon="-118.3938674">
  <ele>-20.22</ele>
  <time>2026-09-01T01:18:19Z</time>
  <course>0.38</course>
  <speed>0.46</speed>
  <fix>3d</fix>
</trkpt>
<trkpt lat="33.8101791" lon="-118.3938675">
  <ele>-20.8</ele>
  <time>2026-09-01T01:18:19Z</time>
  <course>186.66</course>
  <speed>0.4901020301937138</speed>
  <fix>3d</fix>
</trkpt>
<trkpt lat="33.8101784" lon="-118.3938674">
  <ele>-20.26</ele>
  <time>2026-09-01T01:18:19Z</time>
  <course>0.32</course>
  <speed>0.47</speed>
  <fix>3d</fix>
</trkpt>
<trkpt lat="33.8101796" lon="-118.3938675">
  <ele>-20.826</ele>
  <time>2026-09-01T01:18:19Z</time>
  <course>186.66</course>
  <speed>0.5000999900019995</speed>
  <fix>3d</fix>
</trkpt>
<trkpt lat="33.8101784" lon="-118.3938674">
  <ele>-20.26</ele>
  <time>2026-09-01T01:18:19Z</time>
  <course>0.32</course>
  <speed>0.47</speed>
  <fix>3d</fix>
</trkpt>
<trkpt lat="33.81018" lon="-118.3938675">
  <ele>-20.852</ele>
  <time>2026-09-01T01:18:19Z</time>
  <course>186.66</course>
  <speed>0.5000999900019995</speed>
  <fix>3d</fix>
</trkpt>
<trkpt lat="33.8101793" lon="-118.3938674">
  <ele>-20.3</ele>
  <time>2026-09-01T01:18:19Z</time>
  <course>0.27</course>
  <speed>0.47</speed>
  <fix>3d</fix>
</trkpt>
<trkpt lat="33.8101804" lon="-118.3938675">
  <ele>-20.879</ele>
  <time>2026-09-01T01:18:19Z</time>
  <course>186.66</course>
  <speed>0.5000999900019995</speed>
  <fix>3d</fix>
</trkpt>
<trkpt lat="33.8101793" lon="-118.3938674">
  <ele>-20.3</ele>
  <time>2026-09-01T01:18:19Z</time>
  <course>0.27</course>
  <speed>0.47</speed>
  <fix>3d</fix>
</trkpt>
<trkpt lat="33.8101809" lon="-118.3938675">
  <ele>-20.906</ele>
  <time>2026-09-01T01:18:19Z</time>
  <course>186.66</course>
  <speed>0.5000999900019995</speed>
  <fix>3d</fix>
</trkpt>
<trkpt lat="33.8101801" lon="-118.3938674">
  <ele>-20.36</ele>
  <time>2026-09-01T01:18:19Z</time>
  <course>0.25</course>
  <speed>0.48</speed>
  <fix>3d</fix>
</trkpt>
<trkpt lat="33.8101813" lon="-118.3938675">
  <ele>-20.933</ele>
  <time>2026-09-01T01:18:19Z</time>
  <course>186.66</course>
  <speed>0.510098029794274</speed>
  <fix>3d</fix>
</trkpt>
<trkpt lat="33.8101801" lon="-118.3938674">
  <ele>-20.36</ele>
  <time>2026-09-01T01:18:19Z</time>
  <course>0.25</course>
  <speed>0.48</speed>
  <fix>3d</fix>
</trkpt>
<trkpt lat="33.8101817" lon="-118.3938675">
  <ele>-20.963</ele>
  <time>2026-09-01T01:18:19Z</time>
  <course>186.66</course>
  <speed>0.510098029794274</speed>
  <fix>3d</fix>
</trkpt>
<trkpt lat="33.810181" lon="-118.3938674">
  <ele>-20.41</ele>
  <time>2026-09-01T01:18:19Z</time>
  <course>0.23</course>
  <speed>0.48</speed>
  <fix>3d</fix>
</trkpt>
<trkpt lat="33.8101822" lon="-118.3938675">
  <ele>-20.993</ele>
  <time>2026-09-01T01:18:19Z</time>
  <course>186.66</course>
  <speed>0.510098029794274</speed>
  <fix>3d</fix>
</trkpt>
<trkpt lat="33.810181" lon="-118.3938674">
  <ele>-20.41</ele>
  <time>2026-09-01T01:18:19Z</time>
  <course>0.23</course>
  <speed>0.48</speed>
  <fix>3d</fix>
</trkpt>
<trkpt lat="33.8101826" lon="-118.3938675">
  <ele>-21.021</ele>
  <time>2026-09-01T01:18:19Z</time>
  <course>186.66</course>
  <speed>0.510098029794274</speed>
  <fix>3d</fix>
</trkpt>
<trkpt lat="33.8101819" lon="-118.3938673">
  <ele>-20.46</ele>
  <time>2026-09-01T01:18:19Z</time>
  <course>0.23</course>
  <speed>0.48</speed>
  <fix>3d</fix>
</trkpt>
<trkpt lat="33.8101831" lon="-118.3938675">
  <ele>-21.05</ele>
  <time>2026-09-01T01:18:19Z</time>
  <course>186.66</course>
  <speed>0.510098029794274</speed>
  <fix>3d</fix>
</trkpt>
<trkpt lat="33.8101819" lon="-118.3938673">
  <ele>-20.46</ele>
  <time>2026-09-01T01:18:19Z</time>
  <course>0.23</course>
  <speed>0.48</speed>
  <fix>3d</fix>
</trkpt>
<trkpt lat="33.8101835" lon="-118.3938675">
  <ele>-21.079</ele>
  <time>2026-09-01T01:18:19Z</time>
  <course>186.66</course>
  <speed>0.510098029794274</speed>
  <fix>3d</fix>
</trkpt>
<trkpt lat="33.8101827" lon="-118.3938673">
  <ele>-20.52</ele>
  <time>2026-09-01T01:18:19Z</time>
  <course>0.19</course>
  <speed>0.49</speed>
  <fix>3d</fix>
</trkpt>
<trkpt lat="33.8101839" lon="-118.3938675">
  <ele>-21.106</ele>
  <time>2026-09-01T01:18:19Z</time>
  <course>186.66</course>
  <speed>0.510098029794274</speed>
  <fix>3d</fix>
</trkpt>
<trkpt lat="33.8101827" lon="-118.3938673">
  <ele>-20.52</ele>
  <time>2026-09-01T01:18:19Z</time>
  <course>0.19</course>
  <speed>0.49</speed>
  <fix>3d</fix>
</trkpt>
<trkpt lat="33.8101844" lon="-118.3938675">
  <ele>-21.13</ele>
  <time>2026-09-01T01:18:19Z</time>
  <course>186.66</course>
  <speed>0.510098029794274</speed>
  <fix>3d</fix>
</trkpt>
<trkpt lat="33.8101836" lon="-118.3938673">
  <ele>-20.57</ele>
  <time>2026-09-01T01:18:19Z</time>
  <course>0.03</course>
  <speed>0.49</speed>
  <fix>3d</fix>
</trkpt>
<trkpt lat="33.8101848" lon="-118.3938675">
  <ele>-21.155</ele>
  <time>2026-09-01T01:18:19Z</time>
  <course>186.66</course>
  <speed>0.5200961449578337</speed>
  <fix>3d</fix>
</trkpt>
<trkpt lat="33.8101836" lon="-118.3938673">
  <ele>-20.57</ele>
  <time>2026-09-01T01:18:19Z</time>
  <course>0.03</course>
  <speed>0.49</speed>
  <fix>3d</fix>
</trkpt>
<trkpt lat="33.8101853" lon="-118.3938675">
  <ele>-21.181</ele>
  <time>2026-09-01T01:18:19Z</time>
  <course>186.66</course>
  <speed>0.5200961449578337</speed>
  <fix>3d</fix>
</trkpt>
<trkpt lat="33.8101845" lon="-118.3938673">
  <ele>-20.61</ele>
  <time>2026-09-01T01:18:19Z</time>
  <course>359.82</course>
  <speed>0.49</speed>
  <fix>3d</fix>
</trkpt>
<trkpt lat="33.8101857" lon="-118.3938675">
  <ele>-21.204</ele>
  <time>2026-09-01T01:18:19Z</time>
  <course>186.66</course>
  <speed>0.5203844732503076</speed>
  <fix>3d</fix>
</trkpt>
<trkpt lat="33.8101845" lon="-118.3938673">
  <ele>-20.61</ele>
  <time>2026-09-01T01:18:19Z</time>
  <course>359.82</course>
  <speed>0.49</speed>
  <fix>3d</fix>
</trkpt>
<trkpt lat="33.8101862" lon="-118.3938675">
  <ele>-21.224</ele>
  <time>2026-09-01T01:18:19Z</time>
  <course>186.66</course>
  <speed>0.5203844732503076</speed>
  <fix>3d</fix>
</trkpt>
<trkpt lat="33.8101854" lon="-118.3938673">
  <ele>-20.66</ele>
  <time>2026-09-01T01:18:19Z</time>
  <course>359.64</course>
  <speed>0.5</speed>
  <fix>3d</fix>
</trkpt>
<trkpt lat="33.8101866" lon="-118.3938675">
  <ele>-21.242</ele>
  <time>2026-09-01T01:18:19Z</time>
  <course>186.66</course>
  <speed>0.5203844732503076</speed>
  <fix>3d</fix>
</trkpt>
<trkpt lat="33.8101854" lon="-118.3938673">
  <ele>-20.66</ele>
  <time>2026-09-01T01:18:19Z</time>
  <course>359.64</course>
  <speed>0.5</speed>
  <fix>3d</fix>
</trkpt>
<trkpt lat="33.810187" lon="-118.3938675">
  <ele>-21.259</ele>
  <time>2026-09-01T01:18:19Z</time>
  <course>186.66</course>
  <speed>0.5203844732503076</speed>
  <fix>3d</fix>
</trkpt>
<trkpt lat="33.8101863" lon="-118.3938674">
  <ele>-20.7</ele>
  <time>2026-09-01T01:18:19Z</time>
  <course>359.5</course>
  <speed>0.5</speed>
  <fix>3d</fix>
</trkpt>
<trkpt lat="33.8101875" lon="-118.3938675">
  <ele>-21.276</ele>
  <time>2026-09-01T01:18:19Z</time>
  <course>186.66</course>
  <speed>0.5203844732503076</speed>
  <fix>3d</fix>
</trkpt>
<trkpt lat="33.8101863" lon="-118.3938674">
  <ele>-20.7</ele>
  <time>2026-09-01T01:18:19Z</time>
  <course>359.5</course>
  <speed>0.5</speed>
  <fix>3d</fix>
</trkpt>
<trkpt lat="33.8101879" lon="-118.3938675">
  <ele>-21.29</ele>
  <time>2026-09-01T01:18:19Z</time>
  <course>186.66</course>
  <speed>0.510098029794274</speed>
  <fix>3d</fix>
</trkpt>
<trkpt lat="33.8101872" lon="-118.3938674">
  <ele>-20.73</ele>
  <time>2026-09-01T01:18:19Z</time>
  <course>359.48</course>
  <speed>0.5</speed>
  <fix>3d</fix>
</trkpt>
<trkpt lat="33.8101884" lon="-118.3938675">
  <ele>-21.303</ele>
  <time>2026-09-01T01:18:19Z</time>
  <course>186.66</course>
  <speed>0.4801041553663121</speed>
  <fix>3d</fix>
</trkpt>
<trkpt lat="33.8101872" lon="-118.3938674">
  <ele>-20.73</ele>
  <time>2026-09-01T01:18:19Z</time>
  <course>359.48</course>
  <speed>0.5</speed>
  <fix>3d</fix>
</trkpt>
<trkpt lat="33.8101888" lon="-118.3938675">
  <ele>-21.314</ele>
  <time>2026-09-01T01:18:19Z</time>
  <course>186.66</course>
  <speed>0.4901020301937138</speed>
  <fix>3d</fix>
</trkpt>
<trkpt lat="33.8101881" lon="-118.3938674">
  <ele>-20.76</ele>
  <time>2026-09-01T01:18:19Z</time>
  <course>359.63</course>
  <speed>0.48</speed>
  <fix>3d</fix>
</trkpt>
<trkpt lat="33.8101892" lon="-118.3938675">
  <ele>-21.326</ele>
  <time>2026-09-01T01:18:19Z</time>
  <course>186.66</course>
  <speed>0.4901020301937138</speed>
  <fix>3d</fix>
</trkpt>
<trkpt lat="33.8101881" lon="-118.3938674">
  <ele>-20.76</ele>
  <time>2026-09-01T01:18:19Z</time>
  <course>359.63</course>
  <speed>0.48</speed>
  <fix>3d</fix>
</trkpt>
<trkpt lat="33.8101896" lon="-118.3938675">
  <ele>-21.34</ele>
  <time>2026-09-01T01:18:19Z</time>
  <course>186.66</course>
  <speed>0.4901020301937138</speed>
  <fix>3d</fix>
</trkpt>
<trkpt lat="33.8101889" lon="-118.3938674">
  <ele>-20.79</ele>
  <time>2026-09-01T01:18:19Z</time>
  <course>359.85</course>
  <speed>0.47</speed>
  <fix>3d</fix>
</trkpt>
<trkpt lat="33.8101901" lon="-118.3938675">
  <ele>-21.354</ele>
  <time>2026-09-01T01:18:19Z</time>
  <course>186.66</course>
  <speed>0.5000999900019995</speed>
  <fix>3d</fix>
</trkpt>
<trkpt lat="33.8101889" lon="-118.3938674">
  <ele>-20.79</ele>
  <time>2026-09-01T01:18:19Z</time>
  <course>359.85</course>
  <speed>0.47</speed>
  <fix>3d</fix>
</trkpt>
<trkpt lat="33.8101905" lon="-118.3938675">
  <ele>-21.368</ele>
  <time>2026-09-01T01:18:19Z</time>
  <course>186.66</course>
  <speed>0.5000999900019995</speed>
  <fix>3d</fix>
</trkpt>
<trkpt lat="33.8101898" lon="-118.3938674">
  <ele>-20.81</ele>
  <time>2026-09-01T01:18:19Z</time>
  <course>359.98</course>
  <speed>0.47</speed>
  <fix>3d</fix>
</trkpt>
<trkpt lat="33.8101909" lon="-118.3938675">
  <ele>-21.38</ele>
  <time>2026-09-01T01:18:19Z</time>
  <course>186.66</course>
  <speed>0.5000999900019995</speed>
  <fix>3d</fix>
</trkpt>
<trkpt lat="33.8101898" lon="-118.3938674">
  <ele>-20.81</ele>
  <time>2026-09-01T01:18:19Z</time>
  <course>359.98</course>
  <speed>0.47</speed>
  <fix>3d</fix>
</trkpt>
<trkpt lat="33.8101914" lon="-118.3938675">
  <ele>-21.395</ele>
  <time>2026-09-01T01:18:19Z</time>
  <course>186.66</course>
  <speed>0.510098029794274</speed>
  <fix>3d</fix>
</trkpt>
<trkpt lat="33.8101907" lon="-118.3938674">
  <ele>-20.84</ele>
  <time>2026-09-01T01:18:19Z</time>
  <course>0.02</course>
  <speed>0.48</speed>
  <fix>3d</fix>
</trkpt>
<trkpt lat="33.8101918" lon="-118.3938675">
  <ele>-21.411</ele>
  <time>2026-09-01T01:18:19Z</time>
  <course>186.66</course>
  <speed>0.510098029794274</speed>
  <fix>3d</fix>
</trkpt>
<trkpt lat="33.8101907" lon="-118.3938674">
  <ele>-20.84</ele>
  <time>2026-09-01T01:18:19Z</time>
  <course>0.02</course>
  <speed>0.48</speed>
  <fix>3d</fix>
</trkpt>
<trkpt lat="33.8101922" lon="-118.3938675">
  <ele>-21.427</ele>
  <time>2026-09-01T01:18:19Z</time>
  <course>186.66</course>
  <speed>0.510098029794274</speed>
  <fix>3d</fix>
</trkpt>
<trkpt lat="33.8101916" lon="-118.3938674">
  <ele>-20.87</ele>
  <time>2026-09-01T01:18:19Z</time>
  <course>0.02</course>
  <speed>0.48</speed>
  <fix>3d</fix>
</trkpt>
<trkpt lat="33.8101927" lon="-118.3938675">
  <ele>-21.444</ele>
  <time>2026-09-01T01:18:19Z</time>
  <course>186.66</course>
  <speed>0.510098029794274</speed>
  <fix>3d</fix>
</trkpt>
<trkpt lat="33.8101916" lon="-118.3938674">
  <ele>-20.87</ele>
  <time>2026-09-01T01:18:19Z</time>
  <course>0.02</course>
  <speed>0.48</speed>
  <fix>3d</fix>
</trkpt>
<trkpt lat="33.8101931" lon="-118.3938675">
  <ele>-21.461</ele>
  <time>2026-09-01T01:18:19Z</time>
  <course>186.66</course>
  <speed>0.510098029794274</speed>
  <fix>3d</fix>
</trkpt>
<trkpt lat="33.8101925" lon="-118.3938674">
  <ele>-20.91</ele>
  <time>2026-09-01T01:18:19Z</time>
  <course>0.03</course>
  <speed>0.49</speed>
  <fix>3d</fix>
</trkpt>
<trkpt lat="33.8101936" lon="-118.3938675">
  <ele>-21.477</ele>
  <time>2026-09-01T01:18:19Z</time>
  <course>186.66</course>
  <speed>0.510098029794274</speed>
  <fix>3d</fix>
</trkpt>
<trkpt lat="33.8101925" lon="-118.3938674">
  <ele>-20.91</ele>
  <time>2026-09-01T01:18:19Z</time>
  <course>0.03</course>
  <speed>0.49</speed>
  <fix>3d</fix>
</trkpt>
<trkpt lat="33.810194" lon="-118.3938675">
  <ele>-21.494</ele>
  <time>2026-09-01T01:18:19Z</time>
  <course>186.66</course>
  <speed>0.510098029794274</speed>
  <fix>3d</fix>
</trkpt>
<trkpt lat="33.8101933" lon="-118.3938674">
  <ele>-20.94</ele>
  <time>2026-09-01T01:18:19Z</time>
  <course>0.04</course>
  <speed>0.49</speed>
  <fix>3d</fix>
</trkpt>
<trkpt lat="33.8101945" lon="-118.3938675">
  <ele>-21.513</ele>
  <time>2026-09-01T01:18:19Z</time>
  <course>186.66</course>
  <speed>0.510098029794274</speed>
  <fix>3d</fix>
</trkpt>
<trkpt lat="33.8101933" lon="-118.3938674">
  <ele>-20.94</ele>
  <time>2026-09-01T01:18:19Z</time>
  <course>0.04</course>
  <speed>0.49</speed>
  <fix>3d</fix>
</trkpt>
<trkpt lat="33.8101949" lon="-118.3938675">
  <ele>-21.531</ele>
  <time>2026-09-01T01:18:19Z</time>
  <course>186.66</course>
  <speed>0.510098029794274</speed>
  <fix>3d</fix>
</trkpt>
<trkpt lat="33.8101942" lon="-118.3938674">
  <ele>-20.98</ele>
  <time>2026-09-01T01:18:19Z</time>
  <course>0.03</course>
  <speed>0.49</speed>
  <fix>3d</fix>
</trkpt>
<trkpt lat="33.8101954" lon="-118.3938675">
  <ele>-21.55</ele>
  <time>2026-09-01T01:18:19Z</time>
  <course>186.66</course>
  <speed>0.510098029794274</speed>
  <fix>3d</fix>
</trkpt>
<trkpt lat="33.8101942" lon="-118.3938674">
  <ele>-20.98</ele>
  <time>2026-09-01T01:18:19Z</time>
  <course>0.03</course>
  <speed>0.49</speed>
  <fix>3d</fix>
</trkpt>
<trkpt lat="33.8101958" lon="-118.3938675">
  <ele>-21.569</ele>
  <time>2026-09-01T01:18:19Z</time>
  <course>186.66</course>
  <speed>0.510098029794274</speed>
  <fix>3d</fix>
</trkpt>
<trkpt lat="33.8101951" lon="-118.3938674">
  <ele>-21.02</ele>
  <time>2026-09-01T01:18:19Z</time>
  <course>0.03</course>
  <speed>0.49</speed>
  <fix>3d</fix>
</trkpt>
<trkpt lat="33.8101963" lon="-118.3938675">
  <ele>-21.592</ele>
  <time>2026-09-01T01:18:19Z</time>
  <course>186.66</course>
  <speed>0.510098029794274</speed>
  <fix>3d</fix>
</trkpt>
<trkpt lat="33.8101951" lon="-118.3938674">
  <ele>-21.02</ele>
  <time>2026-09-01T01:18:19Z</time>
  <course>0.03</course>
  <speed>0.49</speed>
  <fix>3d</fix>
</trkpt>
<trkpt lat="33.8101967" lon="-118.3938675">
  <ele>-21.618</ele>
  <time>2026-09-01T01:18:19Z</time>
  <course>186.66</course>
  <speed>0.510098029794274</speed>
  <fix>3d</fix>
</trkpt>
<trkpt lat="33.810196" lon="-118.3938674">
  <ele>-21.06</ele>
  <time>2026-09-01T01:18:19Z</time>
  <course>0.04</course>
  <speed>0.49</speed>
  <fix>3d</fix>
</trkpt>
<trkpt lat="33.8101971" lon="-118.3938675">
  <ele>-21.646</ele>
  <time>2026-09-01T01:18:19Z</time>
  <course>186.66</course>
  <speed>0.510098029794274</speed>
  <fix>3d</fix>
</trkpt>
<trkpt lat="33.810196" lon="-118.3938674">
  <ele>-21.06</ele>
  <time>2026-09-01T01:18:19Z</time>
  <course>0.04</course>
  <speed>0.49</speed>
  <fix>3d</fix>
</trkpt>
<trkpt lat="33.8101976" lon="-118.3938675">
  <ele>-21.677</ele>
  <time>2026-09-01T01:18:19Z</time>
  <course>186.66</course>
  <speed>0.510098029794274</speed>
  <fix>3d</fix>
</trkpt>
<trkpt lat="33.8101969" lon="-118.3938674">
  <ele>-21.1</ele>
  <time>2026-09-01T01:18:19Z</time>
  <course>0.05</course>
  <speed>0.49</speed>
  <fix>3d</fix>
</trkpt>
<trkpt lat="33.810198" lon="-118.3938675">
  <ele>-21.708</ele>
  <time>2026-09-01T01:18:19Z</time>
  <course>186.66</course>
  <speed>0.5200961449578337</speed>
  <fix>3d</fix>
</trkpt>
<trkpt lat="33.8101969" lon="-118.3938674">
  <ele>-21.1</ele>
  <time>2026-09-01T01:18:19Z</time>
  <course>0.05</course>
  <speed>0.49</speed>
  <fix>3d</fix>
</trkpt>
<trkpt lat="33.8101985" lon="-118.3938675">
  <ele>-21.738</ele>
  <time>2026-09-01T01:18:19Z</time>
  <course>186.66</course>
  <speed>0.510098029794274</speed>
  <fix>3d</fix>
</trkpt>
<trkpt lat="33.8101978" lon="-118.3938674">
  <ele>-21.16</ele>
  <time>2026-09-01T01:18:19Z</time>
  <course>0.06</course>
  <speed>0.49</speed>
  <fix>3d</fix>
</trkpt>
<trkpt lat="33.8101989" lon="-118.3938675">
  <ele>-21.764</ele>
  <time>2026-09-01T01:18:19Z</time>
  <course>186.66</course>
  <speed>0.5200961449578337</speed>
  <fix>3d</fix>
</trkpt>
<trkpt lat="33.8101978" lon="-118.3938674">
  <ele>-21.16</ele>
  <time>2026-09-01T01:18:19Z</time>
  <course>0.06</course>
  <speed>0.49</speed>
  <fix>3d</fix>
</trkpt>
<trkpt lat="33.8101994" lon="-118.3938675">
  <ele>-21.788</ele>
  <time>2026-09-01T01:18:19Z</time>
  <course>186.66</course>
  <speed>0.510098029794274</speed>
  <fix>3d</fix>
</trkpt>
<trkpt lat="33.8101987" lon="-118.3938674">
  <ele>-21.21</ele>
  <time>2026-09-01T01:18:19Z</time>
  <course>0.07</course>
  <speed>0.49</speed>
  <fix>3d</fix>
</trkpt>
<trkpt lat="33.8101998" lon="-118.3938675">
  <ele>-21.813</ele>
  <time>2026-09-01T01:18:19Z</time>
  <course>186.66</course>
  <speed>0.5200961449578337</speed>
  <fix>3d</fix>
</trkpt>
<trkpt lat="33.8101987" lon="-118.3938674">
  <ele>-21.21</ele>
  <time>2026-09-01T01:18:19Z</time>
  <course>0.07</course>
  <speed>0.49</speed>
  <fix>3d</fix>
</trkpt>
<trkpt lat="33.8102003" lon="-118.3938675">
  <ele>-21.836</ele>
  <time>2026-09-01T01:18:19Z</time>
  <course>186.66</course>
  <speed>0.5200961449578337</speed>
  <fix>3d</fix>
</trkpt>
<trkpt lat="33.8101996" lon="-118.3938674">
  <ele>-21.26</ele>
  <time>2026-09-01T01:18:19Z</time>
  <course>0.08</course>
  <speed>0.49</speed>
  <fix>3d</fix>
</trkpt>
<trkpt lat="33.8102007" lon="-118.3938675">
  <ele>-21.86</ele>
  <time>2026-09-01T01:18:19Z</time>
  <course>186.66</course>
  <speed>0.5200961449578337</speed>
  <fix>3d</fix>
</trkpt>
<trkpt lat="33.8101996" lon="-118.3938674">
  <ele>-21.26</ele>
  <time>2026-09-01T01:18:19Z</time>
  <course>0.08</course>
  <speed>0.49</speed>
  <fix>3d</fix>
</trkpt>
<trkpt lat="33.8102012" lon="-118.3938675">
  <ele>-21.883</ele>
  <time>2026-09-01T01:18:19Z</time>
  <course>186.66</course>
  <speed>0.5200961449578337</speed>
  <fix>3d</fix>
</trkpt>
<trkpt lat="33.8102005" lon="-118.3938674">
  <ele>-21.31</ele>
  <time>2026-09-01T01:18:19Z</time>
  <course>0.09</course>
  <speed>0.49</speed>
  <fix>3d</fix>
</trkpt>
<trkpt lat="33.8102016" lon="-118.3938675">
  <ele>-21.905</ele>
  <time>2026-09-01T01:18:19Z</time>
  <course>186.66</course>
  <speed>0.5200961449578337</speed>
  <fix>3d</fix>
</trkpt>
<trkpt lat="33.8102005" lon="-118.3938674">
  <ele>-21.31</ele>
  <time>2026-09-01T01:18:19Z</time>
  <course>0.09</course>
  <speed>0.49</speed>
  <fix>3d</fix>
</trkpt>
<trkpt lat="33.8102021" lon="-118.3938675">
  <ele>-21.928</ele>
  <time>2026-09-01T01:18:19Z</time>
  <course>186.66</course>
  <speed>0.5200961449578337</speed>
  <fix>3d</fix>
</trkpt>
<trkpt lat="33.8102014" lon="-118.3938674">
  <ele>-21.35</ele>
  <time>2026-09-01T01:18:19Z</time>
  <course>0.09</course>
  <speed>0.49</speed>
  <fix>3d</fix>
</trkpt>
<trkpt lat="33.8102025" lon="-118.3938675">
  <ele>-21.952</ele>
  <time>2026-09-01T01:18:19Z</time>
  <course>186.66</course>
  <speed>0.5200961449578337</speed>
  <fix>3d</fix>
</trkpt>
<trkpt lat="33.8102014" lon="-118.3938674">
  <ele>-21.35</ele>
  <time>2026-09-01T01:18:19Z</time>
  <course>0.09</course>
  <speed>0.49</speed>
  <fix>3d</fix>
</trkpt>
<trkpt lat="33.810203" lon="-118.3938675">
  <ele>-21.976</ele>
  <time>2026-09-01T01:18:19Z</time>
  <course>186.66</course>
  <speed>0.5200961449578337</speed>
  <fix>3d</fix>
</trkpt>
<trkpt lat="33.8102023" lon="-118.3938674">
  <ele>-21.4</ele>
  <time>2026-09-01T01:18:19Z</time>
  <course>0.09</course>
  <speed>0.49</speed>
  <fix>3d</fix>
</trkpt>
<trkpt lat="33.8102034" lon="-118.3938675">
  <ele>-22.001</ele>
  <time>2026-09-01T01:18:19Z</time>
  <course>186.66</course>
  <speed>0.5200961449578337</speed>
  <fix>3d</fix>
</trkpt>
<trkpt lat="33.8102023" lon="-118.3938674">
  <ele>-21.4</ele>
  <time>2026-09-01T01:18:19Z</time>
  <course>0.09</course>
  <speed>0.49</speed>
  <fix>3d</fix>
</trkpt>
<trkpt lat="33.8102039" lon="-118.3938675">
  <ele>-22.025</ele>
  <time>2026-09-01T01:18:19Z</time>
  <course>186.66</course>
  <speed>0.5200961449578337</speed>
  <fix>3d</fix>
</trkpt>
<trkpt lat="33.8102032" lon="-118.3938674">
  <ele>-21.44</ele>
  <time>2026-09-01T01:18:19Z</time>
  <course>0.09</course>
  <speed>0.49</speed>
  <fix>3d</fix>
</trkpt>
<trkpt lat="33.8102043" lon="-118.3938675">
  <ele>-22.05</ele>
  <time>2026-09-01T01:18:19Z</time>
  <course>186.66</course>
  <speed>0.5200961449578337</speed>
  <fix>3d</fix>
</trkpt>
<trkpt lat="33.8102032" lon="-118.3938674">
  <ele>-21.44</ele>
  <time>2026-09-01T01:18:19Z</time>
  <course>0.09</course>
  <speed>0.49</speed>
  <fix>3d</fix>
</trkpt>
<trkpt lat="33.8102048" lon="-118.3938675">
  <ele>-22.074</ele>
  <time>2026-09-01T01:18:19Z</time>
  <course>186.66</course>
  <speed>0.5200961449578337</speed>
  <fix>3d</fix>
</trkpt>
<trkpt lat="33.810204" lon="-118.3938674">
  <ele>-21.49</ele>
  <time>2026-09-01T01:18:19Z</time>
  <course>0.09</course>
  <speed>0.49</speed>
  <fix>3d</fix>
</trkpt>
<trkpt lat="33.8102052" lon="-118.3938675">
  <ele>-22.096</ele>
  <time>2026-09-01T01:18:19Z</time>
  <course>186.66</course>
  <speed>0.5200961449578337</speed>
  <fix>3d</fix>
</trkpt>
<trkpt lat="33.810204" lon="-118.3938674">
  <ele>-21.49</ele>
  <time>2026-09-01T01:18:19Z</time>
  <course>0.09</course>
  <speed>0.49</speed>
  <fix>3d</fix>
</trkpt>
<trkpt lat="33.8102057" lon="-118.3938675">
  <ele>-22.116</ele>
  <time>2026-09-01T01:18:19Z</time>
  <course>186.66</course>
  <speed>0.5200961449578337</speed>
  <fix>3d</fix>
</trkpt>
<trkpt lat="33.8102049" lon="-118.3938674">
  <ele>-21.54</ele>
  <time>2026-09-01T01:18:19Z</time>
  <course>0.12</course>
  <speed>0.49</speed>
  <fix>3d</fix>
</trkpt>
<trkpt lat="33.8102061" lon="-118.3938675">
  <ele>-22.134</ele>
  <time>2026-09-01T01:18:19Z</time>
  <course>186.66</course>
  <speed>0.5200961449578337</speed>
  <fix>3d</fix>
</trkpt>
<trkpt lat="33.8102049" lon="-118.3938674">
  <ele>-21.54</ele>
  <time>2026-09-01T01:18:19Z</time>
  <course>0.12</course>
  <speed>0.49</speed>
  <fix>3d</fix>
</trkpt>
<trkpt lat="33.8102066" lon="-118.3938675">
  <ele>-22.15</ele>
  <time>2026-09-01T01:18:19Z</time>
  <course>186.66</course>
  <speed>0.5200961449578337</speed>
  <fix>3d</fix>
</trkpt>
<trkpt lat="33.8102058" lon="-118.3938674">
  <ele>-21.59</ele>
  <time>2026-09-01T01:18:19Z</time>
  <course>0.15</course>
  <speed>0.49</speed>
  <fix>3d</fix>
</trkpt>
<trkpt lat="33.810207" lon="-118.3938675">
  <ele>-22.165</ele>
  <time>2026-09-01T01:18:19Z</time>
  <course>186.66</course>
  <speed>0.5200961449578337</speed>
  <fix>3d</fix>
</trkpt>
<trkpt lat="33.8102058" lon="-118.3938674">
  <ele>-21.59</ele>
  <time>2026-09-01T01:18:19Z</time>
  <course>0.15</course>
  <speed>0.49</speed>
  <fix>3d</fix>
</trkpt>
<trkpt lat="33.8102075" lon="-118.3938675">
  <ele>-22.18</ele>
  <time>2026-09-01T01:18:19Z</time>
  <course>186.66</course>
  <speed>0.5200961449578337</speed>
  <fix>3d</fix>
</trkpt>
<trkpt lat="33.8102067" lon="-118.3938673">
  <ele>-21.61</ele>
  <time>2026-09-01T01:18:19Z</time>
  <course>0.16</course>
  <speed>0.49</speed>
  <fix>3d</fix>
</trkpt>
<trkpt lat="33.8102079" lon="-118.3938675">
  <ele>-22.198</ele>
  <time>2026-09-01T01:18:19Z</time>
  <course>186.66</course>
  <speed>0.5200961449578337</speed>
  <fix>3d</fix>
</trkpt>
<trkpt lat="33.8102067" lon="-118.3938673">
  <ele>-21.61</ele>
  <time>2026-09-01T01:18:19Z</time>
  <course>0.16</course>
  <speed>0.49</speed>
  <fix>3d</fix>
</trkpt>
<trkpt lat="33.8102083" lon="-118.3938675">
  <ele>-22.215</ele>
  <time>2026-09-01T01:18:19Z</time>
  <course>186.66</course>
  <speed>0.5200961449578337</speed>
  <fix>3d</fix>
</trkpt>
<trkpt lat="33.8102076" lon="-118.3938673">
  <ele>-21.65</ele>
  <time>2026-09-01T01:18:19Z</time>
  <course>0.08</course>
  <speed>0.49</speed>
  <fix>3d</fix>
</trkpt>
<trkpt lat="33.8102088" lon="-118.3938675">
  <ele>-22.227</ele>
  <time>2026-09-01T01:18:19Z</time>
  <course>186.65</course>
  <speed>0.5200961449578337</speed>
  <fix>3d</fix>
</trkpt>
<trkpt lat="33.8102076" lon="-118.3938673">
  <ele>-21.65</ele>
  <time>2026-09-01T01:18:19Z</time>
  <course>0.08</course>
  <speed>0.49</speed>
  <fix>3d</fix>
</trkpt>
<trkpt lat="33.8102092" lon="-118.3938675">
  <ele>-22.237</ele>
  <time>2026-09-01T01:18:19Z</time>
  <course>186.66</course>
  <speed>0.5200961449578337</speed>
  <fix>3d</fix>
</trkpt>
<trkpt lat="33.8102085" lon="-118.3938673">
  <ele>-21.68</ele>
  <time>2026-09-01T01:18:19Z</time>
  <course>359.9</course>
  <speed>0.5</speed>
  <fix>3d</fix>
</trkpt>
<trkpt lat="33.8102097" lon="-118.3938675">
  <ele>-22.244</ele>
  <time>2026-09-01T01:18:19Z</time>
  <course>186.66</course>
  <speed>0.5200961449578337</speed>
  <fix>3d</fix>
</trkpt>
<trkpt lat="33.8102085" lon="-118.3938673">
  <ele>-21.68</ele>
  <time>2026-09-01T01:18:19Z</time>
  <course>359.9</course>
  <speed>0.5</speed>
  <fix>3d</fix>
</trkpt>
<trkpt lat="33.8102101" lon="-118.3938675">
  <ele>-22.249</ele>
  <time>2026-09-01T01:18:19Z</time>
  <course>186.66</course>
  <speed>0.5200961449578337</speed>
  <fix>3d</fix>
</trkpt>
<trkpt lat="33.8102094" lon="-118.3938673">
  <ele>-21.7</ele>
  <time>2026-09-01T01:18:19Z</time>
  <course>359.7</course>
  <speed>0.5</speed>
  <fix>3d</fix>
</trkpt>
<trkpt lat="33.8102106" lon="-118.3938675">
  <ele>-22.253</ele>
  <time>2026-09-01T01:18:19Z</time>
  <course>186.66</course>
  <speed>0.5200961449578337</speed>
  <fix>3d</fix>
</trkpt>
<trkpt lat="33.8102094" lon="-118.3938673">
  <ele>-21.7</ele>
  <time>2026-09-01T01:18:19Z</time>
  <course>359.7</course>
  <speed>0.5</speed>
  <fix>3d</fix>
</trkpt>
<trkpt lat="33.810211" lon="-118.3938675">
  <ele>-22.261</ele>
  <time>2026-09-01T01:18:19Z</time>
  <course>186.66</course>
  <speed>0.5200961449578337</speed>
  <fix>3d</fix>
</trkpt>
<trkpt lat="33.8102103" lon="-118.3938673">
  <ele>-21.71</ele>
  <time>2026-09-01T01:18:19Z</time>
  <course>359.52</course>
  <speed>0.5</speed>
  <fix>3d</fix>
</trkpt>
<trkpt lat="33.8102115" lon="-118.3938675">
  <ele>-22.273</ele>
  <time>2026-09-01T01:18:19Z</time>
  <course>186.66</course>
  <speed>0.5203844732503076</speed>
  <fix>3d</fix>
</trkpt>
<trkpt lat="33.8102103" lon="-118.3938673">
  <ele>-21.71</ele>
  <time>2026-09-01T01:18:19Z</time>
  <course>359.52</course>
  <speed>0.5</speed>
  <fix>3d</fix>
</trkpt>
<trkpt lat="33.8102119" lon="-118.3938675">
  <ele>-22.287</ele>
  <time>2026-09-01T01:18:19Z</time>
  <course>186.66</course>
  <speed>0.5200961449578337</speed>
  <fix>3d</fix>
</trkpt>
<trkpt lat="33.8102112" lon="-118.3938673">
  <ele>-21.73</ele>
  <time>2026-09-01T01:18:19Z</time>
  <course>359.38</course>
  <speed>0.5</speed>
  <fix>3d</fix>
</trkpt>
<trkpt lat="33.8102124" lon="-118.3938675">
  <ele>-22.307</ele>
  <time>2026-09-01T01:18:19Z</time>
  <course>186.66</course>
  <speed>0.5203844732503076</speed>
  <fix>3d</fix>
</trkpt>
<trkpt lat="33.8102112" lon="-118.3938673">
  <ele>-21.73</ele>
  <time>2026-09-01T01:18:19Z</time>
  <course>359.38</course>
  <speed>0.5</speed>
  <fix>3d</fix>
</trkpt>
<trkpt lat="33.8102128" lon="-118.3938675">
  <ele>-22.329</ele>
  <time>2026-09-01T01:18:19Z</time>
  <course>186.66</course>
  <speed>0.510098029794274</speed>
  <fix>3d</fix>
</trkpt>
<trkpt lat="33.8102121" lon="-118.3938673">
  <ele>-21.75</ele>
  <time>2026-09-01T01:18:19Z</time>
  <course>359.28</course>
  <speed>0.5</speed>
  <fix>3d</fix>
</trkpt>
<trkpt lat="33.8102133" lon="-118.3938675">
  <ele>-22.35</ele>
  <time>2026-09-01T01:18:19Z</time>
  <course>186.66</course>
  <speed>0.4801041553663121</speed>
  <fix>3d</fix>
</trkpt>
<trkpt lat="33.8102121" lon="-118.3938673">
  <ele>-21.75</ele>
  <time>2026-09-01T01:18:19Z</time>
  <course>359.28</course>
  <speed>0.5</speed>
  <fix>3d</fix>
</trkpt>
<trkpt lat="33.8102137" lon="-118.3938675">
  <ele>-22.37</ele>
  <time>2026-09-01T01:18:19Z</time>
  <course>186.66</course>
  <speed>0.4901020301937138</speed>
  <fix>3d</fix>
</trkpt>
<trkpt lat="33.810213" lon="-118.3938673">
  <ele>-21.79</ele>
  <time>2026-09-01T01:18:19Z</time>
  <course>359.23</course>
  <speed>0.48</speed>
  <fix>3d</fix>
</trkpt>
<trkpt lat="33.8102141" lon="-118.3938675">
  <ele>-22.39</ele>
  <time>2026-09-01T01:18:19Z</time>
  <course>186.66</course>
  <speed>0.4901020301937138</speed>
  <fix>3d</fix>
</trkpt>
<trkpt lat="33.810213" lon="-118.3938673">
  <ele>-21.79</ele>
  <time>2026-09-01T01:18:19Z</time>
  <course>359.23</course>
  <speed>0.48</speed>
  <fix>3d</fix>
</trkpt>
<trkpt lat="33.8102145" lon="-118.3938675">
  <ele>-22.412</ele>
  <time>2026-09-01T01:18:19Z</time>
  <course>186.66</course>
  <speed>0.5000999900019995</speed>
  <fix>3d</fix>
</trkpt>
<trkpt lat="33.8102138" lon="-118.3938673">
  <ele>-21.84</ele>
  <time>2026-09-01T01:18:19Z</time>
  <course>359.2</course>
  <speed>0.47</speed>
  <fix>3d</fix>
</trkpt>
<trkpt lat="33.810215" lon="-118.3938675">
  <ele>-22.437</ele>
  <time>2026-09-01T01:18:19Z</time>
  <course>186.66</course>
  <speed>0.5000999900019995</speed>
  <fix>3d</fix>
</trkpt>
<trkpt lat="33.8102138" lon="-118.3938673">
  <ele>-21.84</ele>
  <time>2026-09-01T01:18:19Z</time>
  <course>359.2</course>
  <speed>0.47</speed>
  <fix>3d</fix>
</trkpt>
<trkpt lat="33.8102154" lon="-118.3938675">
  <ele>-22.464</ele>
  <time>2026-09-01T01:18:19Z</time>
  <course>186.66</course>
  <speed>0.5000999900019995</speed>
  <fix>3d</fix>
</trkpt>
<trkpt lat="33.8102147" lon="-118.3938673">
  <ele>-21.88</ele>
  <time>2026-09-01T01:18:19Z</time>
  <course>359.16</course>
  <speed>0.47</speed>
  <fix>3d</fix>
</trkpt>
<trkpt lat="33.8102158" lon="-118.3938675">
  <ele>-22.491</ele>
  <time>2026-09-01T01:18:19Z</time>
  <course>186.66</course>
  <speed>0.510098029794274</speed>
  <fix>3d</fix>
</trkpt>
<trkpt lat="33.8102147" lon="-118.3938673">
  <ele>-21.88</ele>
  <time>2026-09-01T01:18:19Z</time>
  <course>359.16</course>
  <speed>0.47</speed>
  <fix>3d</fix>
</trkpt>
<trkpt lat="33.8102163" lon="-118.3938675">
  <ele>-22.519</ele>
  <time>2026-09-01T01:18:19Z</time>
  <course>186.66</course>
  <speed>0.510098029794274</speed>
  <fix>3d</fix>
</trkpt>
<trkpt lat="33.8102156" lon="-118.3938673">
  <ele>-21.93</ele>
  <time>2026-09-01T01:18:19Z</time>
  <course>359.11</course>
  <speed>0.48</speed>
  <fix>3d</fix>
</trkpt>
<trkpt lat="33.8102167" lon="-118.3938675">
  <ele>-22.546</ele>
  <time>2026-09-01T01:18:19Z</time>
  <course>186.66</course>
  <speed>0.510098029794274</speed>
  <fix>3d</fix>
</trkpt>
<trkpt lat="33.8102156" lon="-118.3938673">
  <ele>-21.93</ele>
  <time>2026-09-01T01:18:19Z</time>
  <course>359.11</course>
  <speed>0.48</speed>
  <fix>3d</fix>
</trkpt>
<trkpt lat="33.8102172" lon="-118.3938675">
  <ele>-22.571</ele>
  <time>2026-09-01T01:18:19Z</time>
  <course>186.66</course>
  <speed>0.510098029794274</speed>
  <fix>3d</fix>
</trkpt>
<trkpt lat="33.8102164" lon="-118.3938673">
  <ele>-21.98</ele>
  <time>2026-09-01T01:18:19Z</time>
  <course>359.07</course>
  <speed>0.48</speed>
  <fix>3d</fix>
</trkpt>
<trkpt lat="33.8102176" lon="-118.3938675">
  <ele>-22.594</ele>
  <time>2026-09-01T01:18:19Z</time>
  <course>186.66</course>
  <speed>0.510098029794274</speed>
  <fix>3d</fix>
</trkpt>
<trkpt lat="33.8102164" lon="-118.3938673">
  <ele>-21.98</ele>
  <time>2026-09-01T01:18:19Z</time>
  <course>359.07</course>
  <speed>0.48</speed>
  <fix>3d</fix>
</trkpt>
<trkpt lat="33.810218" lon="-118.3938675">
  <ele>-22.615</ele>
  <time>2026-09-01T01:18:19Z</time>
  <course>186.66</course>
  <speed>0.510098029794274</speed>
  <fix>3d</fix>
</trkpt>
<trkpt lat="33.8102173" lon="-118.3938674">
  <ele>-22.03</ele>
  <time>2026-09-01T01:18:19Z</time>
  <course>359.03</course>
  <speed>0.49</speed>
  <fix>3d</fix>
</trkpt>
<trkpt lat="33.8102185" lon="-118.3938675">
  <ele>-22.634</ele>
  <time>2026-09-01T01:18:19Z</time>
  <course>186.66</course>
  <speed>0.510098029794274</speed>
  <fix>3d</fix>
</trkpt>
<trkpt lat="33.8102173" lon="-118.3938674">
  <ele>-22.03</ele>
  <time>2026-09-01T01:18:19Z</time>
  <course>359.03</course>
  <speed>0.49</speed>
  <fix>3d</fix>
</trkpt>
<trkpt lat="33.8102189" lon="-118.3938675">
  <ele>-22.652</ele>
  <time>2026-09-01T01:18:19Z</time>
  <course>186.66</course>
  <speed>0.5200961449578337</speed>
  <fix>3d</fix>
</trkpt>
<trkpt lat="33.8102182" lon="-118.3938674">
  <ele>-22.07</ele>
  <time>2026-09-01T01:18:19Z</time>
  <course>359.06</course>
  <speed>0.49</speed>
  <fix>3d</fix>
</trkpt>
<trkpt lat="33.8102194" lon="-118.3938675">
  <ele>-22.671</ele>
  <time>2026-09-01T01:18:19Z</time>
  <course>186.66</course>
  <speed>0.4801041553663121</speed>
  <fix>3d</fix>
</trkpt>
<trkpt lat="33.8102182" lon="-118.3938674">
  <ele>-22.07</ele>
  <time>2026-09-01T01:18:19Z</time>
  <course>359.06</course>
  <speed>0.49</speed>
  <fix>3d</fix>
</trkpt>
<trkpt lat="33.8102198" lon="-118.3938675">
  <ele>-22.69</ele>
  <time>2026-09-01T01:18:19Z</time>
  <course>186.66</course>
  <speed>0.4801041553663121</speed>
  <fix>3d</fix>
</trkpt>
<trkpt lat="33.8102191" lon="-118.3938674">
  <ele>-22.11</ele>
  <time>2026-09-01T01:18:19Z</time>
  <course>359.2</course>
  <speed>0.47</speed>
  <fix>3d</fix>
</trkpt>
<trkpt lat="33.8102202" lon="-118.3938675">
  <ele>-22.71</ele>
  <time>2026-09-01T01:18:19Z</time>
  <course>186.66</course>
  <speed>0.4901020301937138</speed>
  <fix>3d</fix>
</trkpt>
<trkpt lat="33.8102191" lon="-118.3938674">
  <ele>-22.11</ele>
  <time>2026-09-01T01:18:19Z</time>
  <course>359.2</course>
  <speed>0.47</speed>
  <fix>3d</fix>
</trkpt>
<trkpt lat="33.8102206" lon="-118.3938675">
  <ele>-22.728</ele>
  <time>2026-09-01T01:18:19Z</time>
  <course>186.66</course>
  <speed>0.4901020301937138</speed>
  <fix>3d</fix>
</trkpt>
<trkpt lat="33.81022" lon="-118.3938674">
  <ele>-22.15</ele>
  <time>2026-09-01T01:18:19Z</time>
  <course>359.43</course>
  <speed>0.46</speed>
  <fix>3d</fix>
</trkpt>
<trkpt lat="33.8102211" lon="-118.3938675">
  <ele>-22.745</ele>
  <time>2026-09-01T01:18:19Z</time>
  <course>186.66</course>
  <speed>0.5000999900019995</speed>
  <fix>3d</fix>
</trkpt>
<trkpt lat="33.81022" lon="-118.3938674">
  <ele>-22.15</ele>
  <time>2026-09-01T01:18:19Z</time>
  <course>359.43</course>
  <speed>0.46</speed>
  <fix>3d</fix>
</trkpt>
<trkpt lat="33.8102215" lon="-118.3938675">
  <ele>-22.762</ele>
  <time>2026-09-01T01:18:19Z</time>
  <course>186.66</course>
  <speed>0.5000999900019995</speed>
  <fix>3d</fix>
</trkpt>
<trkpt lat="33.8102208" lon="-118.3938674">
  <ele>-22.18</ele>
  <time>2026-09-01T01:18:19Z</time>
  <course>359.61</course>
  <speed>0.47</speed>
  <fix>3d</fix>
</trkpt>
<trkpt lat="33.8102219" lon="-118.3938675">
  <ele>-22.781</ele>
  <time>2026-09-01T01:18:19Z</time>
  <course>186.66</course>
  <speed>0.5000999900019995</speed>
  <fix>3d</fix>
</trkpt>
<trkpt lat="33.8102208" lon="-118.3938674">
  <ele>-22.18</ele>
  <time>2026-09-01T01:18:19Z</time>
  <course>359.61</course>
  <speed>0.47</speed>
  <fix>3d</fix>
</trkpt>
<trkpt lat="33.8102224" lon="-118.3938675">
  <ele>-22.799</ele>
  <time>2026-09-01T01:18:19Z</time>
  <course>186.66</course>
  <speed>0.5000999900019995</speed>
  <fix>3d</fix>
</trkpt>
<trkpt lat="33.8102217" lon="-118.3938674">
  <ele>-22.21</ele>
  <time>2026-09-01T01:18:19Z</time>
  <course>359.68</course>
  <speed>0.48</speed>
  <fix>3d</fix>
</trkpt>
<trkpt lat="33.8102228" lon="-118.3938675">
  <ele>-22.816</ele>
  <time>2026-09-01T01:18:19Z</time>
  <course>186.66</course>
  <speed>0.510098029794274</speed>
  <fix>3d</fix>
</trkpt>
<trkpt lat="33.8102217" lon="-118.3938674">
  <ele>-22.21</ele>
  <time>2026-09-01T01:18:19Z</time>
  <course>359.68</course>
  <speed>0.48</speed>
  <fix>3d</fix>
</trkpt>
<trkpt lat="33.8102232" lon="-118.3938675">
  <ele>-22.834</ele>
  <time>2026-09-01T01:18:19Z</time>
  <course>186.66</course>
  <speed>0.510098029794274</speed>
  <fix>3d</fix>
</trkpt>
<trkpt lat="33.8102225" lon="-118.3938674">
  <ele>-22.25</ele>
  <time>2026-09-01T01:18:19Z</time>
  <course>359.7</course>
  <speed>0.48</speed>
  <fix>3d</fix>
</trkpt>
<trkpt lat="33.8102237" lon="-118.3938675">
  <ele>-22.85</ele>
  <time>2026-09-01T01:18:19Z</time>
  <course>186.66</course>
  <speed>0.510098029794274</speed>
  <fix>3d</fix>
</trkpt>
<trkpt lat="33.8102225" lon="-118.3938674">
  <ele>-22.25</ele>
  <time>2026-09-01T01:18:19Z</time>
  <course>359.7</course>
  <speed>0.48</speed>
  <fix>3d</fix>
</trkpt>
<trkpt lat="33.8102241" lon="-118.3938675">
  <ele>-22.865</ele>
  <time>2026-09-01T01:18:19Z</time>
  <course>186.66</course>
  <speed>0.510098029794274</speed>
  <fix>3d</fix>
</trkpt>
<trkpt lat="33.8102234" lon="-118.3938674">
  <ele>-22.28</ele>
  <time>2026-09-01T01:18:19Z</time>
  <course>359.71</course>
  <speed>0.48</speed>
  <fix>3d</fix>
</trkpt>
<trkpt lat="33.8102246" lon="-118.3938675">
  <ele>-22.882</ele>
  <time>2026-09-01T01:18:19Z</time>
  <course>186.66</course>
  <speed>0.510098029794274</speed>
  <fix>3d</fix>
</trkpt>
<trkpt lat="33.8102234" lon="-118.3938674">
  <ele>-22.28</ele>
  <time>2026-09-01T01:18:19Z</time>
  <course>359.71</course>
  <speed>0.48</speed>
  <fix>3d</fix>
</trkpt>
<trkpt lat="33.810225" lon="-118.3938675">
  <ele>-22.904</ele>
  <time>2026-09-01T01:18:19Z</time>
  <course>186.66</course>
  <speed>0.510098029794274</speed>
  <fix>3d</fix>
</trkpt>
<trkpt lat="33.8102243" lon="-118.3938674">
  <ele>-22.31</ele>
  <time>2026-09-01T01:18:19Z</time>
  <course>359.7</course>
  <speed>0.49</speed>
  <fix>3d</fix>
</trkpt>
<trkpt lat="33.8102255" lon="-118.3938675">
  <ele>-22.927</ele>
  <time>2026-09-01T01:18:19Z</time>
  <course>186.66</course>
  <speed>0.510098029794274</speed>
  <fix>3d</fix>
</trkpt>
<trkpt lat="33.8102243" lon="-118.3938674">
  <ele>-22.31</ele>
  <time>2026-09-01T01:18:19Z</time>
  <course>359.7</course>
  <speed>0.49</speed>
  <fix>3d</fix>
</trkpt>
<trkpt lat="33.8102259" lon="-118.3938675">
  <ele>-22.948</ele>
  <time>2026-09-01T01:18:19Z</time>
  <course>186.66</course>
  <speed>0.510098029794274</speed>
  <fix>3d</fix>
</trkpt>
<trkpt lat="33.8102252" lon="-118.3938675">
  <ele>-22.35</ele>
  <time>2026-09-01T01:18:19Z</time>
  <course>359.71</course>
  <speed>0.49</speed>
  <fix>3d</fix>
</trkpt>
<trkpt lat="33.8102263" lon="-118.3938675">
  <ele>-22.966</ele>
  <time>2026-09-01T01:18:19Z</time>
  <course>186.65</course>
  <speed>0.510098029794274</speed>
  <fix>3d</fix>
</trkpt>
<trkpt lat="33.8102252" lon="-118.3938675">
  <ele>-22.35</ele>
  <time>2026-09-01T01:18:19Z</time>
  <course>359.71</course>
  <speed>0.49</speed>
  <fix>3d</fix>
</trkpt>
<trkpt lat="33.8102268" lon="-118.3938675">
  <ele>-22.985</ele>
  <time>2026-09-01T01:18:19Z</time>
  <course>186.66</course>
  <speed>0.510098029794274</speed>
  <fix>3d</fix>
</trkpt>
<trkpt lat="33.810226" lon="-118.3938675">
  <ele>-22.39</ele>
  <time>2026-09-01T01:18:19Z</time>
  <course>359.78</course>
  <speed>0.49</speed>
  <fix>3d</fix>
</trkpt>
<trkpt lat="33.8102272" lon="-118.3938675">
  <ele>-23.007</ele>
  <time>2026-09-01T01:18:19Z</time>
  <course>186.66</course>
  <speed>0.5200961449578337</speed>
  <fix>3d</fix>
</trkpt>
<trkpt lat="33.810226" lon="-118.3938675">
  <ele>-22.39</ele>
  <time>2026-09-01T01:18:19Z</time>
  <course>359.78</course>
  <speed>0.49</speed>
  <fix>3d</fix>
</trkpt>
<trkpt lat="33.8102277" lon="-118.3938675">
  <ele>-23.029</ele>
  <time>2026-09-01T01:18:19Z</time>
  <course>186.66</course>
  <speed>0.5200961449578337</speed>
  <fix>3d</fix>
</trkpt>
<trkpt lat="33.8102269" lon="-118.3938675">
  <ele>-22.43</ele>
  <time>2026-09-01T01:18:19Z</time>
  <course>359.93</course>
  <speed>0.49</speed>
  <fix>3d</fix>
</trkpt>
<trkpt lat="33.8102281" lon="-118.3938675">
  <ele>-23.05</ele>
  <time>2026-09-01T01:18:19Z</time>
  <course>186.66</course>
  <speed>0.5200961449578337</speed>
  <fix>3d</fix>
</trkpt>
<trkpt lat="33.8102269" lon="-118.3938675">
  <ele>-22.43</ele>
  <time>2026-09-01T01:18:19Z</time>
  <course>359.93</course>
  <speed>0.49</speed>
  <fix>3d</fix>
</trkpt>
<trkpt lat="33.8102286" lon="-118.3938675">
  <ele>-23.07</ele>
  <time>2026-09-01T01:18:19Z</time>
  <course>186.66</course>
  <speed>0.5200961449578337</speed>
  <fix>3d</fix>
</trkpt>
<trkpt lat="33.8102278" lon="-118.3938675">
  <ele>-22.48</ele>
  <time>2026-09-01T01:18:19Z</time>
  <course>0.12</course>
  <speed>0.49</speed>
  <fix>3d</fix>
</trkpt>
<trkpt lat="33.810229" lon="-118.3938675">
  <ele>-23.089</ele>
  <time>2026-09-01T01:18:19Z</time>
  <course>186.66</course>
  <speed>0.5200961449578337</speed>
  <fix>3d</fix>
</trkpt>
<trkpt lat="33.8102278" lon="-118.3938675">
  <ele>-22.48</ele>
  <time>2026-09-01T01:18:19Z</time>
  <course>0.12</course>
  <speed>0.49</speed>
  <fix>3d</fix>
</trkpt>
<trkpt lat="33.8102295" lon="-118.3938675">
  <ele>-23.11</ele>
  <time>2026-09-01T01:18:19Z</time>
  <course>186.66</course>
  <speed>0.52</speed>
  <fix>3d</fix>
</trkpt>
<trkpt lat="33.8102287" lon="-118.3938675">
  <ele>-22.52</ele>
  <time>2026-09-01T01:18:19Z</time>
  <course>0.31</course>
  <speed>0.49</speed>
  <fix>3d</fix>
</trkpt>
<trkpt lat="33.8102299" lon="-118.3938675">
  <ele>-23.137</ele>
  <time>2026-09-01T01:18:19Z</time>
  <course>186.66</course>
  <speed>0.52</speed>
  <fix>3d</fix>
</trkpt>
<trkpt lat="33.8102287" lon="-118.3938675">
  <ele>-22.52</ele>
  <time>2026-09-01T01:18:19Z</time>
  <course>0.31</course>
  <speed>0.49</speed>
  <fix>3d</fix>
</trkpt>
<trkpt lat="33.8102304" lon="-118.3938675">
  <ele>-23.166</ele>
  <time>2026-09-01T01:18:19Z</time>
  <course>186.66</course>
  <speed>0.52</speed>
  <fix>3d</fix>
</trkpt>
<trkpt lat="33.8102296" lon="-118.3938675">
  <ele>-22.57</ele>
  <time>2026-09-01T01:18:19Z</time>
  <course>0.44</course>
  <speed>0.5</speed>
  <fix>3d</fix>
</trkpt>
<trkpt lat="33.8102308" lon="-118.3938675">
  <ele>-23.194</ele>
  <time>2026-09-01T01:18:19Z</time>
  <course>186.66</course>
  <speed>0.52</speed>
  <fix>3d</fix>
</trkpt>
<trkpt lat="33.8102296" lon="-118.3938675">
  <ele>-22.57</ele>
  <time>2026-09-01T01:18:19Z</time>
  <course>0.44</course>
  <speed>0.5</speed>
  <fix>3d</fix>
</trkpt>
<trkpt lat="33.8102313" lon="-118.3938675">
  <ele>-23.225</ele>
  <time>2026-09-01T01:18:19Z</time>
  <course>186.66</course>
  <speed>0.52</speed>
  <fix>3d</fix>
</trkpt>
<trkpt lat="33.8102305" lon="-118.3938675">
  <ele>-22.62</ele>
  <time>2026-09-01T01:18:19Z</time>
  <course>0.54</course>
  <speed>0.5</speed>
  <fix>3d</fix>
</trkpt>
<trkpt lat="33.8102317" lon="-118.3938675">
  <ele>-23.257</ele>
  <time>2026-09-01T01:18:19Z</time>
  <course>186.66</course>
  <speed>0.52</speed>
  <fix>3d</fix>
</trkpt>
<trkpt lat="33.8102305" lon="-118.3938675">
  <ele>-22.62</ele>
  <time>2026-09-01T01:18:19Z</time>
  <course>0.54</course>
  <speed>0.5</speed>
  <fix>3d</fix>
</trkpt>
<trkpt lat="33.8102322" lon="-118.3938675">
  <ele>-23.288</ele>
  <time>2026-09-01T01:18:19Z</time>
  <course>186.66</course>
  <speed>0.52</speed>
  <fix>3d</fix>
</trkpt>
<trkpt lat="33.8102314" lon="-118.3938675">
  <ele>-22.68</ele>
  <time>2026-09-01T01:18:19Z</time>
  <course>0.62</course>
  <speed>0.5</speed>
  <fix>3d</fix>
</trkpt>
<trkpt lat="33.8102326" lon="-118.3938675">
  <ele>-23.317</ele>
  <time>2026-09-01T01:18:19Z</time>
  <course>186.66</course>
  <speed>0.52</speed>
  <fix>3d</fix>
</trkpt>
<trkpt lat="33.8102314" lon="-118.3938675">
  <ele>-22.68</ele>
  <time>2026-09-01T01:18:19Z</time>
  <course>0.62</course>
  <speed>0.5</speed>
  <fix>3d</fix>
</trkpt>
<trkpt lat="33.8102331" lon="-118.3938675">
  <ele>-23.345</ele>
  <time>2026-09-01T01:18:20Z</time>
  <course>186.66</course>
  <speed>0.52</speed>
  <fix>3d</fix>
</trkpt>
<trkpt lat="33.8102323" lon="-118.3938675">
  <ele>-22.74</ele>
  <time>2026-09-01T01:18:20Z</time>
  <course>0.68</course>
  <speed>0.5</speed>
  <fix>3d</fix>
</trkpt>
<trkpt lat="33.8102335" lon="-118.3938675">
  <ele>-23.371</ele>
  <time>2026-09-01T01:18:20Z</time>
  <course>186.66</course>
  <speed>0.52</speed>
  <fix>3d</fix>
</trkpt>
<trkpt lat="33.8102323" lon="-118.3938675">
  <ele>-22.74</ele>
  <time>2026-09-01T01:18:20Z</time>
  <course>0.68</course>
  <speed>0.5</speed>
  <fix>3d</fix>
</trkpt>
<trkpt lat="33.810234" lon="-118.3938675">
  <ele>-23.394</ele>
  <time>2026-09-01T01:18:20Z</time>
  <course>186.66</course>
  <speed>0.52</speed>
  <fix>3d</fix>
</trkpt>
<trkpt lat="33.8102332" lon="-118.3938675">
  <ele>-22.79</ele>
  <time>2026-09-01T01:18:20Z</time>
  <course>0.74</course>
  <speed>0.5</speed>
  <fix>3d</fix>
</trkpt>
<trkpt lat="33.8102344" lon="-118.3938675">
  <ele>-23.416</ele>
  <time>2026-09-01T01:18:20Z</time>
  <course>186.66</course>
  <speed>0.5200961449578337</speed>
  <fix>3d</fix>
</trkpt>
<trkpt lat="33.8102332" lon="-118.3938675">
  <ele>-22.79</ele>
  <time>2026-09-01T01:18:20Z</time>
  <course>0.74</course>
  <speed>0.5</speed>
  <fix>3d</fix>
</trkpt>
<trkpt lat="33.8102349" lon="-118.3938675">
  <ele>-23.434</ele>
  <time>2026-09-01T01:18:20Z</time>
  <course>186.66</course>
  <speed>0.52</speed>
  <fix>3d</fix>
</trkpt>
<trkpt lat="33.8102341" lon="-118.3938675">
  <ele>-22.84</ele>
  <time>2026-09-01T01:18:20Z</time>
  <course>0.79</course>
  <speed>0.5</speed>
  <fix>3d</fix>
</trkpt>
<trkpt lat="33.8102353" lon="-118.3938675">
  <ele>-23.45</ele>
  <time>2026-09-01T01:18:20Z</time>
  <course>186.66</course>
  <speed>0.5200961449578337</speed>
  <fix>3d</fix>
</trkpt>
<trkpt lat="33.8102341" lon="-118.3938675">
  <ele>-22.84</ele>
  <time>2026-09-01T01:18:20Z</time>
  <course>0.79</course>
  <speed>0.5</speed>
  <fix>3d</fix>
</trkpt>
<trkpt lat="33.8102358" lon="-118.3938675">
  <ele>-23.465</ele>
  <time>2026-09-01T01:18:20Z</time>
  <course>186.66</course>
  <speed>0.52</speed>
  <fix>3d</fix>
</trkpt>
<trkpt lat="33.810235" lon="-118.3938675">
  <ele>-22.87</ele>
  <time>2026-09-01T01:18:20Z</time>
  <course>0.84</course>
  <speed>0.5</speed>
  <fix>3d</fix>
</trkpt>
<trkpt lat="33.8102362" lon="-118.3938675">
  <ele>-23.483</ele>
  <time>2026-09-01T01:18:20Z</time>
  <course>186.66</course>
  <speed>0.5200961449578337</speed>
  <fix>3d</fix>
</trkpt>
<trkpt lat="33.810235" lon="-118.3938675">
  <ele>-22.87</ele>
  <time>2026-09-01T01:18:20Z</time>
  <course>0.84</course>
  <speed>0.5</speed>
  <fix>3d</fix>
</trkpt>
<trkpt lat="33.8102367" lon="-118.3938675">
  <ele>-23.501</ele>
  <time>2026-09-01T01:18:20Z</time>
  <course>186.66</course>
  <speed>0.5200961449578337</speed>
  <fix>3d</fix>
</trkpt>
<trkpt lat="33.8102359" lon="-118.3938674">
  <ele>-22.9</ele>
  <time>2026-09-01T01:18:20Z</time>
  <course>0.89</course>
  <speed>0.5</speed>
  <fix>3d</fix>
</trkpt>
<trkpt lat="33.8102371" lon="-118.3938675">
  <ele>-23.517</ele>
  <time>2026-09-01T01:18:20Z</time>
  <course>186.66</course>
  <speed>0.5200961449578337</speed>
  <fix>3d</fix>
</trkpt>
<trkpt lat="33.8102359" lon="-118.3938674">
  <ele>-22.9</ele>
  <time>2026-09-01T01:18:20Z</time>
  <course>0.89</course>
  <speed>0.5</speed>
  <fix>3d</fix>
</trkpt>
<trkpt lat="33.8102376" lon="-118.3938675">
  <ele>-23.531</ele>
  <time>2026-09-01T01:18:20Z</time>
  <course>186.66</course>
  <speed>0.5200961449578337</speed>
  <fix>3d</fix>
</trkpt>
<trkpt lat="33.8102368" lon="-118.3938674">
  <ele>-22.93</ele>
  <time>2026-09-01T01:18:20Z</time>
  <course>0.84</course>
  <speed>0.5</speed>
  <fix>3d</fix>
</trkpt>
<trkpt lat="33.810238" lon="-118.3938675">
  <ele>-23.541</ele>
  <time>2026-09-01T01:18:20Z</time>
  <course>186.66</course>
  <speed>0.5200961449578337</speed>
  <fix>3d</fix>
</trkpt>
<trkpt lat="33.8102368" lon="-118.3938674">
  <ele>-22.93</ele>
  <time>2026-09-01T01:18:20Z</time>
  <course>0.84</course>
  <speed>0.5</speed>
  <fix>3d</fix>
</trkpt>
<trkpt lat="33.8102385" lon="-118.3938675">
  <ele>-23.55</ele>
  <time>2026-09-01T01:18:20Z</time>
  <course>186.66</course>
  <speed>0.5200961449578337</speed>
  <fix>3d</fix>
</trkpt>
<trkpt lat="33.8102377" lon="-118.3938674">
  <ele>-22.96</ele>
  <time>2026-09-01T01:18:20Z</time>
  <course>0.71</course>
  <speed>0.5</speed>
  <fix>3d</fix>
</trkpt>
<trkpt lat="33.8102389" lon="-118.3938675">
  <ele>-23.56</ele>
  <time>2026-09-01T01:18:20Z</time>
  <course>186.66</course>
  <speed>0.5200961449578337</speed>
  <fix>3d</fix>
</trkpt>
<trkpt lat="33.8102377" lon="-118.3938674">
  <ele>-22.96</ele>
  <time>2026-09-01T01:18:20Z</time>
  <course>0.71</course>
  <speed>0.5</speed>
  <fix>3d</fix>
</trkpt>
<trkpt lat="33.8102394" lon="-118.3938675">
  <ele>-23.575</ele>
  <time>2026-09-01T01:18:20Z</time>
  <course>186.66</course>
  <speed>0.5200961449578337</speed>
  <fix>3d</fix>
</trkpt>
<trkpt lat="33.8102386" lon="-118.3938674">
  <ele>-22.98</ele>
  <time>2026-09-01T01:18:20Z</time>
  <course>0.58</course>
  <speed>0.5</speed>
  <fix>3d</fix>
</trkpt>
<trkpt lat="33.8102398" lon="-118.3938675">
  <ele>-23.594</ele>
  <time>2026-09-01T01:18:20Z</time>
  <course>186.66</course>
  <speed>0.5200961449578337</speed>
  <fix>3d</fix>
</trkpt>
<trkpt lat="33.8102386" lon="-118.3938674">
  <ele>-22.98</ele>
  <time>2026-09-01T01:18:20Z</time>
  <course>0.58</course>
  <speed>0.5</speed>
  <fix>3d</fix>
</trkpt>
<trkpt lat="33.8102402" lon="-118.3938675">
  <ele>-23.613</ele>
  <time>2026-09-01T01:18:20Z</time>
  <course>186.66</course>
  <speed>0.5200961449578337</speed>
  <fix>3d</fix>
</trkpt>
<trkpt lat="33.8102395" lon="-118.3938674">
  <ele>-23.0</ele>
  <time>2026-09-01T01:18:20Z</time>
  <course>0.46</course>
  <speed>0.5</speed>
  <fix>3d</fix>
</trkpt>
<trkpt lat="33.8102407" lon="-118.3938675">
  <ele>-23.63</ele>
  <time>2026-09-01T01:18:20Z</time>
  <course>186.66</course>
  <speed>0.5200961449578337</speed>
  <fix>3d</fix>
</trkpt>
<trkpt lat="33.8102395" lon="-118.3938674">
  <ele>-23.0</ele>
  <time>2026-09-01T01:18:20Z</time>
  <course>0.46</course>
  <speed>0.5</speed>
  <fix>3d</fix>
</trkpt>
<trkpt lat="33.8102411" lon="-118.3938675">
  <ele>-23.646</ele>
  <time>2026-09-01T01:18:20Z</time>
  <course>186.65</course>
  <speed>0.5200961449578337</speed>
  <fix>3d</fix>
</trkpt>
<trkpt lat="33.8102404" lon="-118.3938674">
  <ele>-23.03</ele>
  <time>2026-09-01T01:18:20Z</time>
  <course>0.37</course>
  <speed>0.5</speed>
  <fix>3d</fix>
</trkpt>
<trkpt lat="33.8102416" lon="-118.3938675">
  <ele>-23.661</ele>
  <time>2026-09-01T01:18:20Z</time>
  <course>186.65</course>
  <speed>0.5200961449578337</speed>
  <fix>3d</fix>
</trkpt>
<trkpt lat="33.8102404" lon="-118.3938674">
  <ele>-23.03</ele>
  <time>2026-09-01T01:18:20Z</time>
  <course>0.37</course>
  <speed>0.5</speed>
  <fix>3d</fix>
</trkpt>
<trkpt lat="33.810242" lon="-118.3938675">
  <ele>-23.673</ele>
  <time>2026-09-01T01:18:20Z</time>
  <course>186.65</course>
  <speed>0.5200961449578337</speed>
  <fix>3d</fix>
</trkpt>
<trkpt lat="33.8102413" lon="-118.3938674">
  <ele>-23.06</ele>
  <time>2026-09-01T01:18:20Z</time>
  <course>0.32</course>
  <speed>0.5</speed>
  <fix>3d</fix>
</trkpt>
<trkpt lat="33.8102425" lon="-118.3938675">
  <ele>-23.686</ele>
  <time>2026-09-01T01:18:20Z</time>
  <course>186.65</course>
  <speed>0.5200961449578337</speed>
  <fix>3d</fix>
</trkpt>
<trkpt lat="33.8102413" lon="-118.3938674">
  <ele>-23.06</ele>
  <time>2026-09-01T01:18:20Z</time>
  <course>0.32</course>
  <speed>0.5</speed>
  <fix>3d</fix>
</trkpt>
<trkpt lat="33.8102429" lon="-118.3938675">
  <ele>-23.703</ele>
  <time>2026-09-01T01:18:20Z</time>
  <course>186.65</course>
  <speed>0.5200961449578337</speed>
  <fix>3d</fix>
</trkpt>
<trkpt lat="33.8102422" lon="-118.3938674">
  <ele>-23.09</ele>
  <time>2026-09-01T01:18:20Z</time>
  <course>0.29</course>
  <speed>0.5</speed>
  <fix>3d</fix>
</trkpt>
<trkpt lat="33.8102434" lon="-118.3938675">
  <ele>-23.722</ele>
  <time>2026-09-01T01:18:20Z</time>
  <course>186.66</course>
  <speed>0.5200961449578337</speed>
  <fix>3d</fix>
</trkpt>
<trkpt lat="33.8102422" lon="-118.3938674">
  <ele>-23.09</ele>
  <time>2026-09-01T01:18:20Z</time>
  <course>0.29</course>
  <speed>0.5</speed>
  <fix>3d</fix>
</trkpt>
<trkpt lat="33.8102438" lon="-118.3938675">
  <ele>-23.741</ele>
  <time>2026-09-01T01:18:20Z</time>
  <course>186.66</course>
  <speed>0.5200961449578337</speed>
  <fix>3d</fix>
</trkpt>
<trkpt lat="33.8102432" lon="-118.3938674">
  <ele>-23.11</ele>
  <time>2026-09-01T01:18:20Z</time>
  <course>0.27</course>
  <speed>0.5</speed>
  <fix>3d</fix>
</trkpt>
<trkpt lat="33.8102443" lon="-118.3938675">
  <ele>-23.764</ele>
  <time>2026-09-01T01:18:20Z</time>
  <course>186.66</course>
  <speed>0.5200961449578337</speed>
  <fix>3d</fix>
</trkpt>
<trkpt lat="33.8102432" lon="-118.3938674">
  <ele>-23.11</ele>
  <time>2026-09-01T01:18:20Z</time>
  <course>0.27</course>
  <speed>0.5</speed>
  <fix>3d</fix>
</trkpt>
<trkpt lat="33.8102447" lon="-118.3938675">
  <ele>-23.789</ele>
  <time>2026-09-01T01:18:20Z</time>
  <course>186.66</course>
  <speed>0.5200961449578337</speed>
  <fix>3d</fix>
</trkpt>
<trkpt lat="33.8102441" lon="-118.3938674">
  <ele>-23.16</ele>
  <time>2026-09-01T01:18:20Z</time>
  <course>0.29</course>
  <speed>0.5</speed>
  <fix>3d</fix>
</trkpt>
<trkpt lat="33.8102452" lon="-118.3938675">
  <ele>-23.816</ele>
  <time>2026-09-01T01:18:20Z</time>
  <course>186.66</course>
  <speed>0.5200961449578337</speed>
  <fix>3d</fix>
</trkpt>
<trkpt lat="33.8102441" lon="-118.3938674">
  <ele>-23.16</ele>
  <time>2026-09-01T01:18:20Z</time>
  <course>0.29</course>
  <speed>0.5</speed>
  <fix>3d</fix>
</trkpt>
<trkpt lat="33.8102457" lon="-118.3938675">
  <ele>-23.846</ele>
  <time>2026-09-01T01:18:20Z</time>
  <course>186.66</course>
  <speed>0.5200961449578337</speed>
  <fix>3d</fix>
</trkpt>
<trkpt lat="33.810245" lon="-118.3938674">
  <ele>-23.21</ele>
  <time>2026-09-01T01:18:20Z</time>
  <course>0.31</course>
  <speed>0.5</speed>
  <fix>3d</fix>
</trkpt>
<trkpt lat="33.8102461" lon="-118.3938675">
  <ele>-23.877</ele>
  <time>2026-09-01T01:18:20Z</time>
  <course>186.66</course>
  <speed>0.5200961449578337</speed>
  <fix>3d</fix>
</trkpt>
<trkpt lat="33.810245" lon="-118.3938674">
  <ele>-23.21</ele>
  <time>2026-09-01T01:18:20Z</time>
  <course>0.31</course>
  <speed>0.5</speed>
  <fix>3d</fix>
</trkpt>
<trkpt lat="33.8102466" lon="-118.3938675">
  <ele>-23.91</ele>
  <time>2026-09-01T01:18:20Z</time>
  <course>186.66</course>
  <speed>0.5200961449578337</speed>
  <fix>3d</fix>
</trkpt>
<trkpt lat="33.8102459" lon="-118.3938674">
  <ele>-23.27</ele>
  <time>2026-09-01T01:18:20Z</time>
  <course>0.32</course>
  <speed>0.5</speed>
  <fix>3d</fix>
</trkpt>
<trkpt lat="33.810247" lon="-118.3938675">
  <ele>-23.942</ele>
  <time>2026-09-01T01:18:20Z</time>
  <course>186.66</course>
  <speed>0.5200961449578337</speed>
  <fix>3d</fix>
</trkpt>
<trkpt lat="33.8102459" lon="-118.3938674">
  <ele>-23.27</ele>
  <time>2026-09-01T01:18:20Z</time>
  <course>0.32</course>
  <speed>0.5</speed>
  <fix>3d</fix>
</trkpt>
<trkpt lat="33.8102475" lon="-118.3938675">
  <ele>-23.973</ele>
  <time>2026-09-01T01:18:20Z</time>
  <course>186.66</course>
  <speed>0.5200961449578337</speed>
  <fix>3d</fix>
</trkpt>
<trkpt lat="33.8102468" lon="-118.3938673">
  <ele>-23.33</ele>
  <time>2026-09-01T01:18:20Z</time>
  <course>0.33</course>
  <speed>0.5</speed>
  <fix>3d</fix>
</trkpt>
<trkpt lat="33.8102479" lon="-118.3938675">
  <ele>-24.002</ele>
  <time>2026-09-01T01:18:20Z</time>
  <course>186.66</course>
  <speed>0.5200961449578337</speed>
  <fix>3d</fix>
</trkpt>
<trkpt lat="33.8102468" lon="-118.3938673">
  <ele>-23.33</ele>
  <time>2026-09-01T01:18:20Z</time>
  <course>0.33</course>
  <speed>0.5</speed>
  <fix>3d</fix>
</trkpt>
<trkpt lat="33.8102484" lon="-118.3938675">
  <ele>-24.028</ele>
  <time>2026-09-01T01:18:20Z</time>
  <course>186.66</course>
  <speed>0.5200961449578337</speed>
  <fix>3d</fix>
</trkpt>
<trkpt lat="33.8102477" lon="-118.3938673">
  <ele>-23.39</ele>
  <time>2026-09-01T01:18:20Z</time>
  <course>0.3</course>
  <speed>0.49</speed>
  <fix>3d</fix>
</trkpt>
<trkpt lat="33.8102488" lon="-118.3938675">
  <ele>-24.053</ele>
  <time>2026-09-01T01:18:20Z</time>
  <course>186.66</course>
  <speed>0.5200961449578337</speed>
  <fix>3d</fix>
</trkpt>
<trkpt lat="33.8102477" lon="-118.3938673">
  <ele>-23.39</ele>
  <time>2026-09-01T01:18:20Z</time>
  <course>0.3</course>
  <speed>0.49</speed>
  <fix>3d</fix>
</trkpt>
<trkpt lat="33.8102493" lon="-118.3938675">
  <ele>-24.078</ele>
  <time>2026-09-01T01:18:20Z</time>
  <course>186.66</course>
  <speed>0.5200961449578337</speed>
  <fix>3d</fix>
</trkpt>
<trkpt lat="33.8102486" lon="-118.3938673">
  <ele>-23.44</ele>
  <time>2026-09-01T01:18:20Z</time>
  <course>0.14</course>
  <speed>0.49</speed>
  <fix>3d</fix>
</trkpt>
<trkpt lat="33.8102497" lon="-118.3938675">
  <ele>-24.104</ele>
  <time>2026-09-01T01:18:20Z</time>
  <course>186.66</course>
  <speed>0.5200961449578337</speed>
  <fix>3d</fix>
</trkpt>
<trkpt lat="33.8102486" lon="-118.3938673">
  <ele>-23.44</ele>
  <time>2026-09-01T01:18:20Z</time>
  <course>0.14</course>
  <speed>0.49</speed>
  <fix>3d</fix>
</trkpt>
<trkpt lat="33.8102502" lon="-118.3938675">
  <ele>-24.131</ele>
  <time>2026-09-01T01:18:20Z</time>
  <course>186.66</course>
  <speed>0.5200961449578337</speed>
  <fix>3d</fix>
</trkpt>
<trkpt lat="33.8102495" lon="-118.3938673">
  <ele>-23.49</ele>
  <time>2026-09-01T01:18:20Z</time>
  <course>359.93</course>
  <speed>0.49</speed>
  <fix>3d</fix>
</trkpt>
<trkpt lat="33.8102506" lon="-118.3938675">
  <ele>-24.159</ele>
  <time>2026-09-01T01:18:20Z</time>
  <course>186.66</course>
  <speed>0.5200961449578337</speed>
  <fix>3d</fix>
</trkpt>
<trkpt lat="33.8102495" lon="-118.3938673">
  <ele>-23.49</ele>
  <time>2026-09-01T01:18:20Z</time>
  <course>359.93</course>
  <speed>0.49</speed>
  <fix>3d</fix>
</trkpt>
<trkpt lat="33.8102511" lon="-118.3938675">
  <ele>-24.185</ele>
  <time>2026-09-01T01:18:20Z</time>
  <course>186.66</course>
  <speed>0.5200961449578337</speed>
  <fix>3d</fix>
</trkpt>
<trkpt lat="33.8102504" lon="-118.3938673">
  <ele>-23.54</ele>
  <time>2026-09-01T01:18:20Z</time>
  <course>359.76</course>
  <speed>0.49</speed>
  <fix>3d</fix>
</trkpt>
<trkpt lat="33.8102515" lon="-118.3938675">
  <ele>-24.211</ele>
  <time>2026-09-01T01:18:20Z</time>
  <course>186.65</course>
  <speed>0.5203844732503076</speed>
  <fix>3d</fix>
</trkpt>
<trkpt lat="33.8102504" lon="-118.3938673">
  <ele>-23.54</ele>
  <time>2026-09-01T01:18:20Z</time>
  <course>359.76</course>
  <speed>0.49</speed>
  <fix>3d</fix>
</trkpt>
<trkpt lat="33.810252" lon="-118.3938675">
  <ele>-24.234</ele>
  <time>2026-09-01T01:18:20Z</time>
  <course>186.66</course>
  <speed>0.5200961449578337</speed>
  <fix>3d</fix>
</trkpt>
<trkpt lat="33.8102512" lon="-118.3938673">
  <ele>-23.59</ele>
  <time>2026-09-01T01:18:20Z</time>
  <course>359.63</course>
  <speed>0.49</speed>
  <fix>3d</fix>
</trkpt>
<trkpt lat="33.8102524" lon="-118.3938675">
  <ele>-24.254</ele>
  <time>2026-09-01T01:18:20Z</time>
  <course>186.66</course>
  <speed>0.5203844732503076</speed>
  <fix>3d</fix>
</trkpt>
<trkpt lat="33.8102512" lon="-118.3938673">
  <ele>-23.59</ele>
  <time>2026-09-01T01:18:20Z</time>
  <course>359.63</course>
  <speed>0.49</speed>
  <fix>3d</fix>
</trkpt>
<trkpt lat="33.8102529" lon="-118.3938675">
  <ele>-24.271</ele>
  <time>2026-09-01T01:18:20Z</time>
  <course>186.66</course>
  <speed>0.5200961449578337</speed>
  <fix>3d</fix>
</trkpt>
<trkpt lat="33.8102521" lon="-118.3938673">
  <ele>-23.64</ele>
  <time>2026-09-01T01:18:20Z</time>
  <course>359.58</course>
  <speed>0.49</speed>
  <fix>3d</fix>
</trkpt>
<trkpt lat="33.8102533" lon="-118.3938675">
  <ele>-24.286</ele>
  <time>2026-09-01T01:18:20Z</time>
  <course>186.66</course>
  <speed>0.5203844732503076</speed>
  <fix>3d</fix>
</trkpt>
<trkpt lat="33.8102521" lon="-118.3938673">
  <ele>-23.64</ele>
  <time>2026-09-01T01:18:20Z</time>
  <course>359.58</course>
  <speed>0.49</speed>
  <fix>3d</fix>
</trkpt>
<trkpt lat="33.8102537" lon="-118.3938675">
  <ele>-24.299</ele>
  <time>2026-09-01T01:18:20Z</time>
  <course>186.66</course>
  <speed>0.5200961449578337</speed>
  <fix>3d</fix>
</trkpt>
<trkpt lat="33.810253" lon="-118.3938673">
  <ele>-23.68</ele>
  <time>2026-09-01T01:18:20Z</time>
  <course>359.55</course>
  <speed>0.49</speed>
  <fix>3d</fix>
</trkpt>
<trkpt lat="33.8102542" lon="-118.3938675">
  <ele>-24.308</ele>
  <time>2026-09-01T01:18:20Z</time>
  <course>186.66</course>
  <speed>0.5203844732503076</speed>
  <fix>3d</fix>
</trkpt>
<trkpt lat="33.810253" lon="-118.3938673">
  <ele>-23.68</ele>
  <time>2026-09-01T01:18:20Z</time>
  <course>359.55</course>
  <speed>0.49</speed>
  <fix>3d</fix>
</trkpt>
<trkpt lat="33.8102546" lon="-118.3938675">
  <ele>-24.311</ele>
  <time>2026-09-01T01:18:20Z</time>
  <course>186.66</course>
  <speed>0.5200961449578337</speed>
  <fix>3d</fix>
</trkpt>
<trkpt lat="33.8102539" lon="-118.3938673">
  <ele>-23.71</ele>
  <time>2026-09-01T01:18:20Z</time>
  <course>359.53</course>
  <speed>0.5</speed>
  <fix>3d</fix>
</trkpt>
<trkpt lat="33.8102551" lon="-118.3938675">
  <ele>-24.313</ele>
  <time>2026-09-01T01:18:20Z</time>
  <course>186.66</course>
  <speed>0.5203844732503076</speed>
  <fix>3d</fix>
</trkpt>
<trkpt lat="33.8102539" lon="-118.3938673">
  <ele>-23.71</ele>
  <time>2026-09-01T01:18:20Z</time>
  <course>359.53</course>
  <speed>0.5</speed>
  <fix>3d</fix>
</trkpt>
<trkpt lat="33.8102555" lon="-118.3938675">
  <ele>-24.313</ele>
  <time>2026-09-01T01:18:20Z</time>
  <course>186.66</course>
  <speed>0.4801041553663121</speed>
  <fix>3d</fix>
</trkpt>
<trkpt lat="33.8102548" lon="-118.3938673">
  <ele>-23.72</ele>
  <time>2026-09-01T01:18:20Z</time>
  <course>359.49</course>
  <speed>0.5</speed>
  <fix>3d</fix>
</trkpt>
<trkpt lat="33.8102559" lon="-118.3938675">
  <ele>-24.313</ele>
  <time>2026-09-01T01:18:20Z</time>
  <course>186.66</course>
  <speed>0.49040799340956914</speed>
  <fix>3d</fix>
</trkpt>
<trkpt lat="33.8102548" lon="-118.3938673">
  <ele>-23.72</ele>
  <time>2026-09-01T01:18:20Z</time>
  <course>359.49</course>
  <speed>0.5</speed>
  <fix>3d</fix>
</trkpt>
<trkpt lat="33.8102564" lon="-118.3938675">
  <ele>-24.319</ele>
  <time>2026-09-01T01:18:20Z</time>
  <course>186.66</course>
  <speed>0.4901020301937138</speed>
  <fix>3d</fix>
</trkpt>
<trkpt lat="33.8102557" lon="-118.3938673">
  <ele>-23.72</ele>
  <time>2026-09-01T01:18:20Z</time>
  <course>359.46</course>
  <speed>0.48</speed>
  <fix>3d</fix>
</trkpt>
<trkpt lat="33.8102568" lon="-118.3938675">
  <ele>-24.33</ele>
  <time>2026-09-01T01:18:20Z</time>
  <course>186.65</course>
  <speed>0.4901020301937138</speed>
  <fix>3d</fix>
</trkpt>
<trkpt lat="33.8102557" lon="-118.3938673">
  <ele>-23.72</ele>
  <time>2026-09-01T01:18:20Z</time>
  <course>359.46</course>
  <speed>0.48</speed>
  <fix>3d</fix>
</trkpt>
<trkpt lat="33.8102572" lon="-118.3938675">
  <ele>-24.346</ele>
  <time>2026-09-01T01:18:20Z</time>
  <course>186.65</course>
  <speed>0.5000999900019995</speed>
  <fix>3d</fix>
</trkpt>
<trkpt lat="33.8102566" lon="-118.3938673">
  <ele>-23.73</ele>
  <time>2026-09-01T01:18:20Z</time>
  <course>359.44</course>
  <speed>0.47</speed>
  <fix>3d</fix>
</trkpt>
<trkpt lat="33.8102577" lon="-118.3938675">
  <ele>-24.364</ele>
  <time>2026-09-01T01:18:20Z</time>
  <course>186.66</course>
  <speed>0.5000999900019995</speed>
  <fix>3d</fix>
</trkpt>
<trkpt lat="33.8102566" lon="-118.3938673">
  <ele>-23.73</ele>
  <time>2026-09-01T01:18:20Z</time>
  <course>359.44</course>
  <speed>0.47</speed>
  <fix>3d</fix>
</trkpt>
<trkpt lat="33.8102581" lon="-118.3938675">
  <ele>-24.383</ele>
  <time>2026-09-01T01:18:20Z</time>
  <course>186.66</course>
  <speed>0.5000999900019995</speed>
  <fix>3d</fix>
</trkpt>
<trkpt lat="33.8102574" lon="-118.3938673">
  <ele>-23.76</ele>
  <time>2026-09-01T01:18:20Z</time>
  <course>359.38</course>
  <speed>0.48</speed>
  <fix>3d</fix>
</trkpt>
<trkpt lat="33.8102585" lon="-118.3938675">
  <ele>-24.399</ele>
  <time>2026-09-01T01:18:20Z</time>
  <course>186.66</course>
  <speed>0.510098029794274</speed>
  <fix>3d</fix>
</trkpt>
<trkpt lat="33.8102574" lon="-118.3938673">
  <ele>-23.76</ele>
  <time>2026-09-01T01:18:20Z</time>
  <course>359.38</course>
  <speed>0.48</speed>
  <fix>3d</fix>
</trkpt>
<trkpt lat="33.810259" lon="-118.3938675">
  <ele>-24.417</ele>
  <time>2026-09-01T01:18:20Z</time>
  <course>186.65</course>
  <speed>0.510098029794274</speed>
  <fix>3d</fix>
</trkpt>
<trkpt lat="33.8102583" lon="-118.3938673">
  <ele>-23.79</ele>
  <time>2026-09-01T01:18:20Z</time>
  <course>359.33</course>
  <speed>0.48</speed>
  <fix>3d</fix>
</trkpt>
<trkpt lat="33.8102594" lon="-118.3938675">
  <ele>-24.441</ele>
  <time>2026-09-01T01:18:20Z</time>
  <course>186.65</course>
  <speed>0.510098029794274</speed>
  <fix>3d</fix>
</trkpt>
<trkpt lat="33.8102583" lon="-118.3938673">
  <ele>-23.79</ele>
  <time>2026-09-01T01:18:20Z</time>
  <course>359.33</course>
  <speed>0.48</speed>
  <fix>3d</fix>
</trkpt>
<trkpt lat="33.8102599" lon="-118.3938675">
  <ele>-24.467</ele>
  <time>2026-09-01T01:18:20Z</time>
  <course>186.66</course>
  <speed>0.510098029794274</speed>
  <fix>3d</fix>
</trkpt>
<trkpt lat="33.8102592" lon="-118.3938673">
  <ele>-23.83</ele>
  <time>2026-09-01T01:18:20Z</time>
  <course>359.26</course>
  <speed>0.48</speed>
  <fix>3d</fix>
</trkpt>
<trkpt lat="33.8102603" lon="-118.3938675">
  <ele>-24.493</ele>
  <time>2026-09-01T01:18:20Z</time>
  <course>186.66</course>
  <speed>0.4801041553663121</speed>
  <fix>3d</fix>
</trkpt>
<trkpt lat="33.8102592" lon="-118.3938673">
  <ele>-23.83</ele>
  <time>2026-09-01T01:18:20Z</time>
  <course>359.26</course>
  <speed>0.48</speed>
  <fix>3d</fix>
</trkpt>
<trkpt lat="33.8102607" lon="-118.3938675">
  <ele>-24.519</ele>
  <time>2026-09-01T01:18:20Z</time>
  <course>186.66</course>
  <speed>0.4801041553663121</speed>
  <fix>3d</fix>
</trkpt>
<trkpt lat="33.81026" lon="-118.3938673">
  <ele>-23.88</ele>
  <time>2026-09-01T01:18:20Z</time>
  <course>359.2</course>
  <speed>0.47</speed>
  <fix>3d</fix>
</trkpt>
<trkpt lat="33.8102611" lon="-118.3938675">
  <ele>-24.546</ele>
  <time>2026-09-01T01:18:20Z</time>
  <course>186.66</course>
  <speed>0.4801041553663121</speed>
  <fix>3d</fix>
</trkpt>
<trkpt lat="33.81026" lon="-118.3938673">
  <ele>-23.88</ele>
  <time>2026-09-01T01:18:20Z</time>
  <course>359.2</course>
  <speed>0.47</speed>
  <fix>3d</fix>
</trkpt>
<trkpt lat="33.8102615" lon="-118.3938675">
  <ele>-24.572</ele>
  <time>2026-09-01T01:18:20Z</time>
  <course>186.66</course>
  <speed>0.4901020301937138</speed>
  <fix>3d</fix>
</trkpt>
<trkpt lat="33.8102609" lon="-118.3938673">
  <ele>-23.93</ele>
  <time>2026-09-01T01:18:20Z</time>
  <course>359.19</course>
  <speed>0.45</speed>
  <fix>3d</fix>
</trkpt>
<trkpt lat="33.810262" lon="-118.3938675">
  <ele>-24.596</ele>
  <time>2026-09-01T01:18:20Z</time>
  <course>186.66</course>
  <speed>0.4901020301937138</speed>
  <fix>3d</fix>
</trkpt>
<trkpt lat="33.8102609" lon="-118.3938673">
  <ele>-23.93</ele>
  <time>2026-09-01T01:18:20Z</time>
  <course>359.19</course>
  <speed>0.45</speed>
  <fix>3d</fix>
</trkpt>
<trkpt lat="33.8102624" lon="-118.3938675">
  <ele>-24.62</ele>
  <time>2026-09-01T01:18:20Z</time>
  <course>186.66</course>
  <speed>0.5000999900019995</speed>
  <fix>3d</fix>
</trkpt>
<trkpt lat="33.8102617" lon="-118.3938674">
  <ele>-23.98</ele>
  <time>2026-09-01T01:18:20Z</time>
  <course>359.18</course>
  <speed>0.47</speed>
  <fix>3d</fix>
</trkpt>
<trkpt lat="33.8102628" lon="-118.3938675">
  <ele>-24.643</ele>
  <time>2026-09-01T01:18:20Z</time>
  <course>186.66</course>
  <speed>0.5000999900019995</speed>
  <fix>3d</fix>
</trkpt>
<trkpt lat="33.8102617" lon="-118.3938674">
  <ele>-23.98</ele>
  <time>2026-09-01T01:18:20Z</time>
  <course>359.18</course>
  <speed>0.47</speed>
  <fix>3d</fix>
</trkpt>
<trkpt lat="33.8102633" lon="-118.3938675">
  <ele>-24.663</ele>
  <time>2026-09-01T01:18:20Z</time>
  <course>186.66</course>
  <speed>0.5000999900019995</speed>
  <fix>3d</fix>
</trkpt>
<trkpt lat="33.8102626" lon="-118.3938674">
  <ele>-24.02</ele>
  <time>2026-09-01T01:18:20Z</time>
  <course>359.2</course>
  <speed>0.47</speed>
  <fix>3d</fix>
</trkpt>
<trkpt lat="33.8102637" lon="-118.3938675">
  <ele>-24.681</ele>
  <time>2026-09-01T01:18:20Z</time>
  <course>186.66</course>
  <speed>0.510098029794274</speed>
  <fix>3d</fix>
</trkpt>
<trkpt lat="33.8102626" lon="-118.3938674">
  <ele>-24.02</ele>
  <time>2026-09-01T01:18:20Z</time>
  <course>359.2</course>
  <speed>0.47</speed>
  <fix>3d</fix>
</trkpt>
<trkpt lat="33.8102641" lon="-118.3938675">
  <ele>-24.7</ele>
  <time>2026-09-01T01:18:20Z</time>
  <course>186.66</course>
  <speed>0.510098029794274</speed>
  <fix>3d</fix>
</trkpt>
<trkpt lat="33.8102634" lon="-118.3938674">
  <ele>-24.06</ele>
  <time>2026-09-01T01:18:20Z</time>
  <course>359.32</course>
  <speed>0.48</speed>
  <fix>3d</fix>
</trkpt>
<trkpt lat="33.8102646" lon="-118.3938675">
  <ele>-24.724</ele>
  <time>2026-09-01T01:18:20Z</time>
  <course>186.66</course>
  <speed>0.510098029794274</speed>
  <fix>3d</fix>
</trkpt>
<trkpt lat="33.8102634" lon="-118.3938674">
  <ele>-24.06</ele>
  <time>2026-09-01T01:18:20Z</time>
  <course>359.32</course>
  <speed>0.48</speed>
  <fix>3d</fix>
</trkpt>
<trkpt lat="33.810265" lon="-118.3938675">
  <ele>-24.75</ele>
  <time>2026-09-01T01:18:20Z</time>
  <course>186.66</course>
  <speed>0.510098029794274</speed>
  <fix>3d</fix>
</trkpt>
<trkpt lat="33.8102643" lon="-118.3938674">
  <ele>-24.1</ele>
  <time>2026-09-01T01:18:20Z</time>
  <course>359.49</course>
  <speed>0.48</speed>
  <fix>3d</fix>
</trkpt>
<trkpt lat="33.8102655" lon="-118.3938675">
  <ele>-24.774</ele>
  <time>2026-09-01T01:18:20Z</time>
  <course>186.66</course>
  <speed>0.510098029794274</speed>
  <fix>3d</fix>
</trkpt>
<trkpt lat="33.8102643" lon="-118.3938674">
  <ele>-24.1</ele>
  <time>2026-09-01T01:18:20Z</time>
  <course>359.49</course>
  <speed>0.48</speed>
  <fix>3d</fix>
</trkpt>
<trkpt lat="33.8102659" lon="-118.3938675">
  <ele>-24.796</ele>
  <time>2026-09-01T01:18:20Z</time>
  <course>186.66</course>
  <speed>0.510098029794274</speed>
  <fix>3d</fix>
</trkpt>
<trkpt lat="33.8102652" lon="-118.3938674">
  <ele>-24.14</ele>
  <time>2026-09-01T01:18:20Z</time>
  <course>359.61</course>
  <speed>0.49</speed>
  <fix>3d</fix>
</trkpt>
<trkpt lat="33.8102663" lon="-118.3938675">
  <ele>-24.814</ele>
  <time>2026-09-01T01:18:20Z</time>
  <course>186.66</course>
  <speed>0.510098029794274</speed>
  <fix>3d</fix>
</trkpt>
<trkpt lat="33.8102652" lon="-118.3938674">
  <ele>-24.14</ele>
  <time>2026-09-01T01:18:20Z</time>
  <course>359.61</course>
  <speed>0.49</speed>
  <fix>3d</fix>
</trkpt>
<trkpt lat="33.8102668" lon="-118.3938675">
  <ele>-24.83</ele>
  <time>2026-09-01T01:18:20Z</time>
  <course>186.66</course>
  <speed>0.510098029794274</speed>
  <fix>3d</fix>
</trkpt>
<trkpt lat="33.8102661" lon="-118.3938674">
  <ele>-24.18</ele>
  <time>2026-09-01T01:18:20Z</time>
  <course>359.69</course>
  <speed>0.49</speed>
  <fix>3d</fix>
</trkpt>
<trkpt lat="33.8102672" lon="-118.3938675">
  <ele>-24.845</ele>
  <time>2026-09-01T01:18:20Z</time>
  <course>186.66</course>
  <speed>0.4801041553663121</speed>
  <fix>3d</fix>
</trkpt>
<trkpt lat="33.8102661" lon="-118.3938674">
  <ele>-24.18</ele>
  <time>2026-09-01T01:18:20Z</time>
  <course>359.69</course>
  <speed>0.49</speed>
  <fix>3d</fix>
</trkpt>
<trkpt lat="33.8102676" lon="-118.3938675">
  <ele>-24.857</ele>
  <time>2026-09-01T01:18:20Z</time>
  <course>186.66</course>
  <speed>0.4801041553663121</speed>
  <fix>3d</fix>
</trkpt>
<trkpt lat="33.8102669" lon="-118.3938674">
  <ele>-24.22</ele>
  <time>2026-09-01T01:18:20Z</time>
  <course>359.78</course>
  <speed>0.47</speed>
  <fix>3d</fix>
</trkpt>
<trkpt lat="33.8102681" lon="-118.3938675">
  <ele>-24.868</ele>
  <time>2026-09-01T01:18:20Z</time>
  <course>186.66</course>
  <speed>0.4901020301937138</speed>
  <fix>3d</fix>
</trkpt>
<trkpt lat="33.8102669" lon="-118.3938674">
  <ele>-24.22</ele>
  <time>2026-09-01T01:18:20Z</time>
  <course>359.78</course>
  <speed>0.47</speed>
  <fix>3d</fix>
</trkpt>
<trkpt lat="33.8102685" lon="-118.3938675">
  <ele>-24.878</ele>
  <time>2026-09-01T01:18:20Z</time>
  <course>186.66</course>
  <speed>0.4901020301937138</speed>
  <fix>3d</fix>
</trkpt>
<trkpt lat="33.8102678" lon="-118.3938674">
  <ele>-24.25</ele>
  <time>2026-09-01T01:18:20Z</time>
  <course>359.86</course>
  <speed>0.46</speed>
  <fix>3d</fix>
</trkpt>
<trkpt lat="33.8102689" lon="-118.3938675">
  <ele>-24.895</ele>
  <time>2026-09-01T01:18:20Z</time>
  <course>186.66</course>
  <speed>0.5000999900019995</speed>
  <fix>3d</fix>
</trkpt>
<trkpt lat="33.8102678" lon="-118.3938674">
  <ele>-24.25</ele>
  <time>2026-09-01T01:18:20Z</time>
  <course>359.86</course>
  <speed>0.46</speed>
  <fix>3d</fix>
</trkpt>
<trkpt lat="33.8102693" lon="-118.3938675">
  <ele>-24.918</ele>
  <time>2026-09-01T01:18:20Z</time>
  <course>186.66</course>
  <speed>0.5000999900019995</speed>
  <fix>3d</fix>
</trkpt>
<trkpt lat="33.8102686" lon="-118.3938674">
  <ele>-24.28</ele>
  <time>2026-09-01T01:18:20Z</time>
  <course>359.88</course>
  <speed>0.47</speed>
  <fix>3d</fix>
</trkpt>
<trkpt lat="33.8102698" lon="-118.3938675">
  <ele>-24.942</ele>
  <time>2026-09-01T01:18:20Z</time>
  <course>186.66</course>
  <speed>0.5000999900019995</speed>
  <fix>3d</fix>
</trkpt>
<trkpt lat="33.8102686" lon="-118.3938674">
  <ele>-24.28</ele>
  <time>2026-09-01T01:18:20Z</time>
  <course>359.88</course>
  <speed>0.47</speed>
  <fix>3d</fix>
</trkpt>
<trkpt lat="33.8102702" lon="-118.3938675">
  <ele>-24.964</ele>
  <time>2026-09-01T01:18:20Z</time>
  <course>186.66</course>
  <speed>0.5000999900019995</speed>
  <fix>3d</fix>
</trkpt>
<trkpt lat="33.8102695" lon="-118.3938674">
  <ele>-24.32</ele>
  <time>2026-09-01T01:18:20Z</time>
  <course>359.83</course>
  <speed>0.48</speed>
  <fix>3d</fix>
</trkpt>
<trkpt lat="33.8102706" lon="-118.3938675">
  <ele>-24.985</ele>
  <time>2026-09-01T01:18:20Z</time>
  <course>186.66</course>
  <speed>0.510098029794274</speed>
  <fix>3d</fix>
</trkpt>
<trkpt lat="33.8102695" lon="-118.3938674">
  <ele>-24.32</ele>
  <time>2026-09-01T01:18:20Z</time>
  <course>359.83</course>
  <speed>0.48</speed>
  <fix>3d</fix>
</trkpt>
<trkpt lat="33.8102711" lon="-118.3938675">
  <ele>-25.004</ele>
  <time>2026-09-01T01:18:20Z</time>
  <course>186.66</course>
  <speed>0.510098029794274</speed>
  <fix>3d</fix>
</trkpt>
<trkpt lat="33.8102704" lon="-118.3938674">
  <ele>-24.36</ele>
  <time>2026-09-01T01:18:20Z</time>
  <course>359.8</course>
  <speed>0.48</speed>
  <fix>3d</fix>
</trkpt>
<trkpt lat="33.8102715" lon="-118.3938675">
  <ele>-25.022</ele>
  <time>2026-09-01T01:18:20Z</time>
  <course>186.66</course>
  <speed>0.510098029794274</speed>
  <fix>3d</fix>
</trkpt>
<trkpt lat="33.8102704" lon="-118.3938674">
  <ele>-24.36</ele>
  <time>2026-09-01T01:18:20Z</time>
  <course>359.8</course>
  <speed>0.48</speed>
  <fix>3d</fix>
</trkpt>
<trkpt lat="33.810272" lon="-118.3938675">
  <ele>-25.039</ele>
  <time>2026-09-01T01:18:20Z</time>
  <course>186.66</course>
  <speed>0.510098029794274</speed>
  <fix>3d</fix>
</trkpt>
<trkpt lat="33.8102712" lon="-118.3938674">
  <ele>-24.4</ele>
  <time>2026-09-01T01:18:20Z</time>
  <course>359.81</course>
  <speed>0.49</speed>
  <fix>3d</fix>
</trkpt>
<trkpt lat="33.8102724" lon="-118.3938675">
  <ele>-25.056</ele>
  <time>2026-09-01T01:18:20Z</time>
  <course>186.66</course>
  <speed>0.510098029794274</speed>
  <fix>3d</fix>
</trkpt>
<trkpt lat="33.8102712" lon="-118.3938674">
  <ele>-24.4</ele>
  <time>2026-09-01T01:18:20Z</time>
  <course>359.81</course>
  <speed>0.49</speed>
  <fix>3d</fix>
</trkpt>
<trkpt lat="33.8102729" lon="-118.3938675">
  <ele>-25.07</ele>
  <time>2026-09-01T01:18:20Z</time>
  <course>186.66</course>
  <speed>0.510098029794274</speed>
  <fix>3d</fix>
</trkpt>
<trkpt lat="33.8102721" lon="-118.3938674">
  <ele>-24.43</ele>
  <time>2026-09-01T01:18:20Z</time>
  <course>359.81</course>
  <speed>0.49</speed>
  <fix>3d</fix>
</trkpt>
<trkpt lat="33.8102733" lon="-118.3938675">
  <ele>-25.079</ele>
  <time>2026-09-01T01:18:20Z</time>
  <course>186.66</course>
  <speed>0.5200961449578337</speed>
  <fix>3d</fix>
</trkpt>
<trkpt lat="33.8102721" lon="-118.3938674">
  <ele>-24.43</ele>
  <time>2026-09-01T01:18:20Z</time>
  <course>359.81</course>
  <speed>0.49</speed>
  <fix>3d</fix>
</trkpt>
<trkpt lat="33.8102737" lon="-118.3938675">
  <ele>-25.083</ele>
  <time>2026-09-01T01:18:20Z</time>
  <course>186.66</course>
  <speed>0.5200961449578337</speed>
  <fix>3d</fix>
</trkpt>
<trkpt lat="33.810273" lon="-118.3938674">
  <ele>-24.47</ele>
  <time>2026-09-01T01:18:20Z</time>
  <course>359.82</course>
  <speed>0.49</speed>
  <fix>3d</fix>
</trkpt>
<trkpt lat="33.8102742" lon="-118.3938675">
  <ele>-25.079</ele>
  <time>2026-09-01T01:18:20Z</time>
  <course>186.66</course>
  <speed>0.5200961449578337</speed>
  <fix>3d</fix>
</trkpt>
<trkpt lat="33.810273" lon="-118.3938674">
  <ele>-24.47</ele>
  <time>2026-09-01T01:18:20Z</time>
  <course>359.82</course>
  <speed>0.49</speed>
  <fix>3d</fix>
</trkpt>
<trkpt lat="33.8102746" lon="-118.3938675">
  <ele>-25.069</ele>
  <time>2026-09-01T01:18:20Z</time>
  <course>186.66</course>
  <speed>0.5200961449578337</speed>
  <fix>3d</fix>
</trkpt>
<trkpt lat="33.8102739" lon="-118.3938674">
  <ele>-24.47</ele>
  <time>2026-09-01T01:18:20Z</time>
  <course>359.86</course>
  <speed>0.49</speed>
  <fix>3d</fix>
</trkpt>
<trkpt lat="33.8102751" lon="-118.3938675">
  <ele>-25.053</ele>
  <time>2026-09-01T01:18:20Z</time>
  <course>186.66</course>
  <speed>0.5200961449578337</speed>
  <fix>3d</fix>
</trkpt>
<trkpt lat="33.8102739" lon="-118.3938674">
  <ele>-24.47</ele>
  <time>2026-09-01T01:18:20Z</time>
  <course>359.86</course>
  <speed>0.49</speed>
  <fix>3d</fix>
</trkpt>
<trkpt lat="33.8102755" lon="-118.3938675">
  <ele>-25.036</ele>
  <time>2026-09-01T01:18:20Z</time>
  <course>186.66</course>
  <speed>0.5200961449578337</speed>
  <fix>3d</fix>
</trkpt>
<trkpt lat="33.8102748" lon="-118.3938675">
  <ele>-24.45</ele>
  <time>2026-09-01T01:18:20Z</time>
  <course>359.9</course>
  <speed>0.49</speed>
  <fix>3d</fix>
</trkpt>
<trkpt lat="33.810276" lon="-118.3938675">
  <ele>-25.017</ele>
  <time>2026-09-01T01:18:20Z</time>
  <course>186.66</course>
  <speed>0.5200961449578337</speed>
  <fix>3d</fix>
</trkpt>
<trkpt lat="33.8102748" lon="-118.3938675">
  <ele>-24.45</ele>
  <time>2026-09-01T01:18:20Z</time>
  <course>359.9</course>
  <speed>0.49</speed>
  <fix>3d</fix>
</trkpt>
<trkpt lat="33.8102764" lon="-118.3938675">
  <ele>-24.996</ele>
  <time>2026-09-01T01:18:20Z</time>
  <course>186.66</course>
  <speed>0.5200961449578337</speed>
  <fix>3d</fix>
</trkpt>
<trkpt lat="33.8102757" lon="-118.3938675">
  <ele>-24.42</ele>
  <time>2026-09-01T01:18:20Z</time>
  <course>359.96</course>
  <speed>0.5</speed>
  <fix>3d</fix>
</trkpt>
<trkpt lat="33.8102769" lon="-118.3938675">
  <ele>-24.973</ele>
  <time>2026-09-01T01:18:20Z</time>
  <course>186.66</course>
  <speed>0.5200961449578337</speed>
  <fix>3d</fix>
</trkpt>
<trkpt lat="33.8102757" lon="-118.3938675">
  <ele>-24.42</ele>
  <time>2026-09-01T01:18:20Z</time>
  <course>359.96</course>
  <speed>0.5</speed>
  <fix>3d</fix>
</trkpt>
<trkpt lat="33.8102773" lon="-118.3938675">
  <ele>-24.95</ele>
  <time>2026-09-01T01:18:20Z</time>
  <course>186.66</course>
  <speed>0.5200961449578337</speed>
  <fix>3d</fix>
</trkpt>
<trkpt lat="33.8102766" lon="-118.3938675">
  <ele>-24.39</ele>
  <time>2026-09-01T01:18:20Z</time>
  <course>0.13</course>
  <speed>0.5</speed>
  <fix>3d</fix>
</trkpt>
<trkpt lat="33.8102778" lon="-118.3938675">
  <ele>-24.929</ele>
  <time>2026-09-01T01:18:20Z</time>
  <course>186.66</course>
  <speed>0.5200961449578337</speed>
  <fix>3d</fix>
</trkpt>
<trkpt lat="33.8102766" lon="-118.3938675">
  <ele>-24.39</ele>
  <time>2026-09-01T01:18:20Z</time>
  <course>0.13</course>
  <speed>0.5</speed>
  <fix>3d</fix>
</trkpt>
<trkpt lat="33.8102782" lon="-118.3938675">
  <ele>-24.91</ele>
  <time>2026-09-01T01:18:20Z</time>
  <course>186.66</course>
  <speed>0.5200961449578337</speed>
  <fix>3d</fix>
</trkpt>
<trkpt lat="33.8102775" lon="-118.3938675">
  <ele>-24.35</ele>
  <time>2026-09-01T01:18:20Z</time>
  <course>0.33</course>
  <speed>0.5</speed>
  <fix>3d</fix>
</trkpt>
<trkpt lat="33.8102787" lon="-118.3938675">
  <ele>-24.894</ele>
  <time>2026-09-01T01:18:20Z</time>
  <course>186.66</course>
  <speed>0.5200961449578337</speed>
  <fix>3d</fix>
</trkpt>
<trkpt lat="33.8102775" lon="-118.3938675">
  <ele>-24.35</ele>
  <time>2026-09-01T01:18:20Z</time>
  <course>0.33</course>
  <speed>0.5</speed>
  <fix>3d</fix>
</trkpt>
<trkpt lat="33.8102791" lon="-118.3938675">
  <ele>-24.879</ele>
  <time>2026-09-01T01:18:20Z</time>
  <course>186.66</course>
  <speed>0.52</speed>
  <fix>3d</fix>
</trkpt>
<trkpt lat="33.8102784" lon="-118.3938675">
  <ele>-24.31</ele>
  <time>2026-09-01T01:18:20Z</time>
  <course>0.51</course>
  <speed>0.5</speed>
  <fix>3d</fix>
</trkpt>
<trkpt lat="33.8102796" lon="-118.3938675">
  <ele>-24.866</ele>
  <time>2026-09-01T01:18:20Z</time>
  <course>186.66</course>
  <speed>0.5200961449578337</speed>
  <fix>3d</fix>
</trkpt>
<trkpt lat="33.8102784" lon="-118.3938675">
  <ele>-24.31</ele>
  <time>2026-09-01T01:18:20Z</time>
  <course>0.51</course>
  <speed>0.5</speed>
  <fix>3d</fix>
</trkpt>
<trkpt lat="33.81028" lon="-118.3938675">
  <ele>-24.861</ele>
  <time>2026-09-01T01:18:20Z</time>
  <course>186.66</course>
  <speed>0.52</speed>
  <fix>3d</fix>
</trkpt>
<trkpt lat="33.8102793" lon="-118.3938675">
  <ele>-24.29</ele>
  <time>2026-09-01T01:18:20Z</time>
  <course>0.64</course>
  <speed>0.5</speed>
  <fix>3d</fix>
</trkpt>
<trkpt lat="33.8102805" lon="-118.3938675">
  <ele>-24.861</ele>
  <time>2026-09-01T01:18:20Z</time>
  <course>186.66</course>
  <speed>0.52</speed>
  <fix>3d</fix>
</trkpt>
<trkpt lat="33.8102793" lon="-118.3938675">
  <ele>-24.29</ele>
  <time>2026-09-01T01:18:20Z</time>
  <course>0.64</course>
  <speed>0.5</speed>
  <fix>3d</fix>
</trkpt>
<trkpt lat="33.8102809" lon="-118.3938675">
  <ele>-24.869</ele>
  <time>2026-09-01T01:18:20Z</time>
  <course>186.66</course>
  <speed>0.52</speed>
  <fix>3d</fix>
</trkpt>
<trkpt lat="33.8102802" lon="-118.3938675">
  <ele>-24.28</ele>
  <time>2026-09-01T01:18:20Z</time>
  <course>0.71</course>
  <speed>0.5</speed>
  <fix>3d</fix>
</trkpt>
<trkpt lat="33.8102814" lon="-118.3938675">
  <ele>-24.882</ele>
  <time>2026-09-01T01:18:20Z</time>
  <course>186.66</course>
  <speed>0.5200961449578337</speed>
  <fix>3d</fix>
</trkpt>
<trkpt lat="33.8102802" lon="-118.3938675">
  <ele>-24.28</ele>
  <time>2026-09-01T01:18:20Z</time>
  <course>0.71</course>
  <speed>0.5</speed>
  <fix>3d</fix>
</trkpt>
<trkpt lat="33.8102818" lon="-118.3938675">
  <ele>-24.897</ele>
  <time>2026-09-01T01:18:20Z</time>
  <course>186.66</course>
  <speed>0.52</speed>
  <fix>3d</fix>
</trkpt>
<trkpt lat="33.8102811" lon="-118.3938675">
  <ele>-24.29</ele>
  <time>2026-09-01T01:18:20Z</time>
  <course>0.75</course>
  <speed>0.5</speed>
  <fix>3d</fix>
</trkpt>
<trkpt lat="33.8102823" lon="-118.3938675">
  <ele>-24.915</ele>
  <time>2026-09-01T01:18:20Z</time>
  <course>186.66</course>
  <speed>0.5200961449578337</speed>
  <fix>3d</fix>
</trkpt>
<trkpt lat="33.8102811" lon="-118.3938675">
  <ele>-24.29</ele>
  <time>2026-09-01T01:18:20Z</time>
  <course>0.75</course>
  <speed>0.5</speed>
  <fix>3d</fix>
</trkpt>
<trkpt lat="33.8102827" lon="-118.3938675">
  <ele>-24.934</ele>
  <time>2026-09-01T01:18:20Z</time>
  <course>186.66</course>
  <speed>0.52</speed>
  <fix>3d</fix>
</trkpt>
<trkpt lat="33.810282" lon="-118.3938675">
  <ele>-24.32</ele>
  <time>2026-09-01T01:18:20Z</time>
  <course>0.79</course>
  <speed>0.5</speed>
  <fix>3d</fix>
</trkpt>
<trkpt lat="33.8102832" lon="-118.3938675">
  <ele>-24.952</ele>
  <time>2026-09-01T01:18:20Z</time>
  <course>186.66</course>
  <speed>0.5200961449578337</speed>
  <fix>3d</fix>
</trkpt>
<trkpt lat="33.810282" lon="-118.3938675">
  <ele>-24.32</ele>
  <time>2026-09-01T01:18:20Z</time>
  <course>0.79</course>
  <speed>0.5</speed>
  <fix>3d</fix>
</trkpt>
<trkpt lat="33.8102836" lon="-118.3938675">
  <ele>-24.968</ele>
  <time>2026-09-01T01:18:20Z</time>
  <course>186.66</course>
  <speed>0.52</speed>
  <fix>3d</fix>
</trkpt>
<trkpt lat="33.8102829" lon="-118.3938675">
  <ele>-24.36</ele>
  <time>2026-09-01T01:18:20Z</time>
  <course>0.84</course>
  <speed>0.5</speed>
  <fix>3d</fix>
</trkpt>
<trkpt lat="33.8102841" lon="-118.3938675">
  <ele>-24.982</ele>
  <time>2026-09-01T01:18:20Z</time>
  <course>186.66</course>
  <speed>0.5200961449578337</speed>
  <fix>3d</fix>
</trkpt>
<trkpt lat="33.8102829" lon="-118.3938675">
  <ele>-24.36</ele>
  <time>2026-09-01T01:18:20Z</time>
  <course>0.84</course>
  <speed>0.5</speed>
  <fix>3d</fix>
</trkpt>
<trkpt lat="33.8102845" lon="-118.3938675">
  <ele>-24.995</ele>
  <time>2026-09-01T01:18:20Z</time>
  <course>186.66</course>
  <speed>0.5200961449578337</speed>
  <fix>3d</fix>
</trkpt>
<trkpt lat="33.8102838" lon="-118.3938674">
  <ele>-24.39</ele>
  <time>2026-09-01T01:18:20Z</time>
  <course>0.9</course>
  <speed>0.49</speed>
  <fix>3d</fix>
</trkpt>
<trkpt lat="33.810285" lon="-118.3938675">
  <ele>-25.01</ele>
  <time>2026-09-01T01:18:20Z</time>
  <course>186.66</course>
  <speed>0.5200961449578337</speed>
  <fix>3d</fix>
</trkpt>
<trkpt lat="33.8102838" lon="-118.3938674">
  <ele>-24.39</ele>
  <time>2026-09-01T01:18:20Z</time>
  <course>0.9</course>
  <speed>0.49</speed>
  <fix>3d</fix>
</trkpt>
<trkpt lat="33.8102854" lon="-118.3938675">
  <ele>-25.027</ele>
  <time>2026-09-01T01:18:20Z</time>
  <course>186.66</course>
  <speed>0.5200961449578337</speed>
  <fix>3d</fix>
</trkpt>
<trkpt lat="33.8102847" lon="-118.3938674">
  <ele>-24.41</ele>
  <time>2026-09-01T01:18:20Z</time>
  <course>0.88</course>
  <speed>0.49</speed>
  <fix>3d</fix>
</trkpt>
<trkpt lat="33.8102859" lon="-118.3938675">
  <ele>-25.043</ele>
  <time>2026-09-01T01:18:20Z</time>
  <course>186.66</course>
  <speed>0.5200961449578337</speed>
  <fix>3d</fix>
</trkpt>
<trkpt lat="33.8102847" lon="-118.3938674">
  <ele>-24.41</ele>
  <time>2026-09-01T01:18:20Z</time>
  <course>0.88</course>
  <speed>0.49</speed>
  <fix>3d</fix>
</trkpt>
<trkpt lat="33.8102863" lon="-118.3938675">
  <ele>-25.058</ele>
  <time>2026-09-01T01:18:20Z</time>
  <course>186.66</course>
  <speed>0.5200961449578337</speed>
  <fix>3d</fix>
</trkpt>
<trkpt lat="33.8102856" lon="-118.3938674">
  <ele>-24.44</ele>
  <time>2026-09-01T01:18:20Z</time>
  <course>0.77</course>
  <speed>0.49</speed>
  <fix>3d</fix>
</trkpt>
<trkpt lat="33.8102868" lon="-118.3938675">
  <ele>-25.072</ele>
  <time>2026-09-01T01:18:20Z</time>
  <course>186.66</course>
  <speed>0.5200961449578337</speed>
  <fix>3d</fix>
</trkpt>
<trkpt lat="33.8102856" lon="-118.3938674">
  <ele>-24.44</ele>
  <time>2026-09-01T01:18:20Z</time>
  <course>0.77</course>
  <speed>0.49</speed>
  <fix>3d</fix>
</trkpt>
<trkpt lat="33.8102872" lon="-118.3938675">
  <ele>-25.079</ele>
  <time>2026-09-01T01:18:20Z</time>
  <course>186.66</course>
  <speed>0.5200961449578337</speed>
  <fix>3d</fix>
</trkpt>
<trkpt lat="33.8102865" lon="-118.3938674">
  <ele>-24.47</ele>
  <time>2026-09-01T01:18:20Z</time>
  <course>0.65</course>
  <speed>0.49</speed>
  <fix>3d</fix>
</trkpt>
<trkpt lat="33.8102877" lon="-118.3938675">
  <ele>-25.083</ele>
  <time>2026-09-01T01:18:20Z</time>
  <course>186.65</course>
  <speed>0.5200961449578337</speed>
  <fix>3d</fix>
</trkpt>
<trkpt lat="33.8102865" lon="-118.3938674">
  <ele>-24.47</ele>
  <time>2026-09-01T01:18:20Z</time>
  <course>0.65</course>
  <speed>0.49</speed>
  <fix>3d</fix>
</trkpt>
<trkpt lat="33.8102881" lon="-118.3938675">
  <ele>-25.083</ele>
  <time>2026-09-01T01:18:20Z</time>
  <course>186.65</course>
  <speed>0.5200961449578337</speed>
  <fix>3d</fix>
</trkpt>
<trkpt lat="33.8102874" lon="-118.3938674">
  <ele>-24.48</ele>
  <time>2026-09-01T01:18:20Z</time>
  <course>0.54</course>
  <speed>0.49</speed>
  <fix>3d</fix>
</trkpt>
<trkpt lat="33.8102886" lon="-118.3938675">
  <ele>-25.075</ele>
  <time>2026-09-01T01:18:20Z</time>
  <course>186.66</course>
  <speed>0.5200961449578337</speed>
  <fix>3d</fix>
</trkpt>
<trkpt lat="33.8102874" lon="-118.3938674">
  <ele>-24.48</ele>
  <time>2026-09-01T01:18:20Z</time>
  <course>0.54</course>
  <speed>0.49</speed>
  <fix>3d</fix>
</trkpt>
<trkpt lat="33.810289" lon="-118.3938675">
  <ele>-25.06</ele>
  <time>2026-09-01T01:18:20Z</time>
  <course>186.66</course>
  <speed>0.5200961449578337</speed>
  <fix>3d</fix>
</trkpt>
<trkpt lat="33.8102883" lon="-118.3938674">
  <ele>-24.47</ele>
  <time>2026-09-01T01:18:20Z</time>
  <course>0.48</course>
  <speed>0.49</speed>
  <fix>3d</fix>
</trkpt>
<trkpt lat="33.8102895" lon="-118.3938675">
  <ele>-25.043</ele>
  <time>2026-09-01T01:18:20Z</time>
  <course>186.66</course>
  <speed>0.5200961449578337</speed>
  <fix>3d</fix>
</trkpt>
<trkpt lat="33.8102883" lon="-118.3938674">
  <ele>-24.47</ele>
  <time>2026-09-01T01:18:20Z</time>
  <course>0.48</course>
  <speed>0.49</speed>
  <fix>3d</fix>
</trkpt>
<trkpt lat="33.8102899" lon="-118.3938675">
  <ele>-25.027</ele>
  <time>2026-09-01T01:18:20Z</time>
  <course>186.66</course>
  <speed>0.5200961449578337</speed>
  <fix>3d</fix>
</trkpt>
<trkpt lat="33.8102892" lon="-118.3938674">
  <ele>-24.45</ele>
  <time>2026-09-01T01:18:20Z</time>
  <course>0.44</course>
  <speed>0.49</speed>
  <fix>3d</fix>
</trkpt>
<trkpt lat="33.8102904" lon="-118.3938675">
  <ele>-25.011</ele>
  <time>2026-09-01T01:18:20Z</time>
  <course>186.66</course>
  <speed>0.5200961449578337</speed>
  <fix>3d</fix>
</trkpt>
<trkpt lat="33.8102892" lon="-118.3938674">
  <ele>-24.45</ele>
  <time>2026-09-01T01:18:20Z</time>
  <course>0.44</course>
  <speed>0.49</speed>
  <fix>3d</fix>
</trkpt>
<trkpt lat="33.8102908" lon="-118.3938675">
  <ele>-24.993</ele>
  <time>2026-09-01T01:18:20Z</time>
  <course>186.66</course>
  <speed>0.5200961449578337</speed>
  <fix>3d</fix>
</trkpt>
<trkpt lat="33.8102901" lon="-118.3938674">
  <ele>-24.42</ele>
  <time>2026-09-01T01:18:20Z</time>
  <course>0.43</course>
  <speed>0.49</speed>
  <fix>3d</fix>
</trkpt>
<trkpt lat="33.8102913" lon="-118.3938675">
  <ele>-24.975</ele>
  <time>2026-09-01T01:18:20Z</time>
  <course>186.66</course>
  <speed>0.5200961449578337</speed>
  <fix>3d</fix>
</trkpt>
<trkpt lat="33.8102901" lon="-118.3938674">
  <ele>-24.42</ele>
  <time>2026-09-01T01:18:20Z</time>
  <course>0.43</course>
  <speed>0.49</speed>
  <fix>3d</fix>
</trkpt>
<trkpt lat="33.8102917" lon="-118.3938675">
  <ele>-24.957</ele>
  <time>2026-09-01T01:18:20Z</time>
  <course>186.65</course>
  <speed>0.5200961449578337</speed>
  <fix>3d</fix>
</trkpt>
<trkpt lat="33.810291" lon="-118.3938674">
  <ele>-24.39</ele>
  <time>2026-09-01T01:18:20Z</time>
  <course>0.44</course>
  <speed>0.49</speed>
  <fix>3d</fix>
</trkpt>
<trkpt lat="33.8102922" lon="-118.3938675">
  <ele>-24.94</ele>
  <time>2026-09-01T01:18:20Z</time>
  <course>186.66</course>
  <speed>0.5200961449578337</speed>
  <fix>3d</fix>
</trkpt>
<trkpt lat="33.810291" lon="-118.3938674">
  <ele>-24.39</ele>
  <time>2026-09-01T01:18:20Z</time>
  <course>0.44</course>
  <speed>0.49</speed>
  <fix>3d</fix>
</trkpt>
<trkpt lat="33.8102926" lon="-118.3938675">
  <ele>-24.926</ele>
  <time>2026-09-01T01:18:20Z</time>
  <course>186.66</course>
  <speed>0.5200961449578337</speed>
  <fix>3d</fix>
</trkpt>
<trkpt lat="33.8102919" lon="-118.3938673">
  <ele>-24.35</ele>
  <time>2026-09-01T01:18:20Z</time>
  <course>0.44</course>
  <speed>0.49</speed>
  <fix>3d</fix>
</trkpt>
<trkpt lat="33.8102931" lon="-118.3938675">
  <ele>-24.913</ele>
  <time>2026-09-01T01:18:20Z</time>
  <course>186.66</course>
  <speed>0.5200961449578337</speed>
  <fix>3d</fix>
</trkpt>
<trkpt lat="33.8102919" lon="-118.3938673">
  <ele>-24.35</ele>
  <time>2026-09-01T01:18:20Z</time>
  <course>0.44</course>
  <speed>0.49</speed>
  <fix>3d</fix>
</trkpt>
<trkpt lat="33.8102935" lon="-118.3938675">
  <ele>-24.906</ele>
  <time>2026-09-01T01:18:20Z</time>
  <course>186.66</course>
  <speed>0.5200961449578337</speed>
  <fix>3d</fix>
</trkpt>
<trkpt lat="33.8102928" lon="-118.3938673">
  <ele>-24.33</ele>
  <time>2026-09-01T01:18:20Z</time>
  <course>0.35</course>
  <speed>0.49</speed>
  <fix>3d</fix>
</trkpt>
<trkpt lat="33.810294" lon="-118.3938675">
  <ele>-24.904</ele>
  <time>2026-09-01T01:18:20Z</time>
  <course>186.66</course>
  <speed>0.5200961449578337</speed>
  <fix>3d</fix>
</trkpt>
<trkpt lat="33.8102928" lon="-118.3938673">
  <ele>-24.33</ele>
  <time>2026-09-01T01:18:20Z</time>
  <course>0.35</course>
  <speed>0.49</speed>
  <fix>3d</fix>
</trkpt>
<trkpt lat="33.8102944" lon="-118.3938675">
  <ele>-24.905</ele>
  <time>2026-09-01T01:18:20Z</time>
  <course>186.66</course>
  <speed>0.5200961449578337</speed>
  <fix>3d</fix>
</trkpt>
<trkpt lat="33.8102937" lon="-118.3938673">
  <ele>-24.32</ele>
  <time>2026-09-01T01:18:20Z</time>
  <course>0.15</course>
  <speed>0.49</speed>
  <fix>3d</fix>
</trkpt>
<trkpt lat="33.8102949" lon="-118.3938675">
  <ele>-24.911</ele>
  <time>2026-09-01T01:18:20Z</time>
  <course>186.66</course>
  <speed>0.5200961449578337</speed>
  <fix>3d</fix>
</trkpt>
<trkpt lat="33.8102937" lon="-118.3938673">
  <ele>-24.32</ele>
  <time>2026-09-01T01:18:20Z</time>
  <course>0.15</course>
  <speed>0.49</speed>
  <fix>3d</fix>
</trkpt>
<trkpt lat="33.8102953" lon="-118.3938675">
  <ele>-24.919</ele>
  <time>2026-09-01T01:18:20Z</time>
  <course>186.66</course>
  <speed>0.5200961449578337</speed>
  <fix>3d</fix>
</trkpt>
<trkpt lat="33.8102946" lon="-118.3938673">
  <ele>-24.32</ele>
  <time>2026-09-01T01:18:20Z</time>
  <course>359.93</course>
  <speed>0.49</speed>
  <fix>3d</fix>
</trkpt>
<trkpt lat="33.8102958" lon="-118.3938675">
  <ele>-24.931</ele>
  <time>2026-09-01T01:18:20Z</time>
  <course>186.66</course>
  <speed>0.5203844732503076</speed>
  <fix>3d</fix>
</trkpt>
<trkpt lat="33.8102946" lon="-118.3938673">
  <ele>-24.32</ele>
  <time>2026-09-01T01:18:20Z</time>
  <course>359.93</course>
  <speed>0.49</speed>
  <fix>3d</fix>
</trkpt>
<trkpt lat="33.8102962" lon="-118.3938675">
  <ele>-24.948</ele>
  <time>2026-09-01T01:18:20Z</time>
  <course>186.66</course>
  <speed>0.5200961449578337</speed>
  <fix>3d</fix>
</trkpt>
<trkpt lat="33.8102954" lon="-118.3938673">
  <ele>-24.34</ele>
  <time>2026-09-01T01:18:20Z</time>
  <course>359.75</course>
  <speed>0.49</speed>
  <fix>3d</fix>
</trkpt>
<trkpt lat="33.8102967" lon="-118.3938675">
  <ele>-24.968</ele>
  <time>2026-09-01T01:18:20Z</time>
  <course>186.66</course>
  <speed>0.5203844732503076</speed>
  <fix>3d</fix>
</trkpt>
<trkpt lat="33.8102954" lon="-118.3938673">
  <ele>-24.34</ele>
  <time>2026-09-01T01:18:20Z</time>
  <course>359.75</course>
  <speed>0.49</speed>
  <fix>3d</fix>
</trkpt>
<trkpt lat="33.8102971" lon="-118.3938675">
  <ele>-24.988</ele>
  <time>2026-09-01T01:18:20Z</time>
  <course>186.66</course>
  <speed>0.5200961449578337</speed>
  <fix>3d</fix>
</trkpt>
<trkpt lat="33.8102963" lon="-118.3938673">
  <ele>-24.37</ele>
  <time>2026-09-01T01:18:20Z</time>
  <course>359.65</course>
  <speed>0.49</speed>
  <fix>3d</fix>
</trkpt>
<trkpt lat="33.8102975" lon="-118.3938675">
  <ele>-25.009</ele>
  <time>2026-09-01T01:18:20Z</time>
  <course>186.66</course>
  <speed>0.5203844732503076</speed>
  <fix>3d</fix>
</trkpt>
<trkpt lat="33.8102963" lon="-118.3938673">
  <ele>-24.37</ele>
  <time>2026-09-01T01:18:20Z</time>
  <course>359.65</course>
  <speed>0.49</speed>
  <fix>3d</fix>
</trkpt>
<trkpt lat="33.810298" lon="-118.3938675">
  <ele>-25.029</ele>
  <time>2026-09-01T01:18:20Z</time>
  <course>186.66</course>
  <speed>0.5200961449578337</speed>
  <fix>3d</fix>
</trkpt>
<trkpt lat="33.8102972" lon="-118.3938673">
  <ele>-24.41</ele>
  <time>2026-09-01T01:18:20Z</time>
  <course>359.61</course>
  <speed>0.49</speed>
  <fix>3d</fix>
</trkpt>
<trkpt lat="33.8102984" lon="-118.3938675">
  <ele>-25.048</ele>
  <time>2026-09-01T01:18:20Z</time>
  <course>186.66</course>
  <speed>0.5203844732503076</speed>
  <fix>3d</fix>
</trkpt>
<trkpt lat="33.8102972" lon="-118.3938673">
  <ele>-24.41</ele>
  <time>2026-09-01T01:18:20Z</time>
  <course>359.61</course>
  <speed>0.49</speed>
  <fix>3d</fix>
</trkpt>
<trkpt lat="33.8102989" lon="-118.3938675">
  <ele>-25.066</ele>
  <time>2026-09-01T01:18:20Z</time>
  <course>186.66</course>
  <speed>0.5203844732503076</speed>
  <fix>3d</fix>
</trkpt>
<trkpt lat="33.8102981" lon="-118.3938673">
  <ele>-24.44</ele>
  <time>2026-09-01T01:18:20Z</time>
  <course>359.57</course>
  <speed>0.5</speed>
  <fix>3d</fix>
</trkpt>
<trkpt lat="33.8102993" lon="-118.3938675">
  <ele>-25.084</ele>
  <time>2026-09-01T01:18:20Z</time>
  <course>186.66</course>
  <speed>0.5203844732503076</speed>
  <fix>3d</fix>
</trkpt>
<trkpt lat="33.8102981" lon="-118.3938673">
  <ele>-24.44</ele>
  <time>2026-09-01T01:18:20Z</time>
  <course>359.57</course>
  <speed>0.5</speed>
  <fix>3d</fix>
</trkpt>
<trkpt lat="33.8102998" lon="-118.3938675">
  <ele>-25.098</ele>
  <time>2026-09-01T01:18:20Z</time>
  <course>186.66</course>
  <speed>0.5203844732503076</speed>
  <fix>3d</fix>
</trkpt>
<trkpt lat="33.810299" lon="-118.3938673">
  <ele>-24.47</ele>
  <time>2026-09-01T01:18:20Z</time>
  <course>359.5</course>
  <speed>0.5</speed>
  <fix>3d</fix>
</trkpt>
<trkpt lat="33.8103002" lon="-118.3938675">
  <ele>-25.111</ele>
  <time>2026-09-01T01:18:20Z</time>
  <course>186.66</course>
  <speed>0.5203844732503076</speed>
  <fix>3d</fix>
</trkpt>
<trkpt lat="33.810299" lon="-118.3938673">
  <ele>-24.47</ele>
  <time>2026-09-01T01:18:20Z</time>
  <course>359.5</course>
  <speed>0.5</speed>
  <fix>3d</fix>
</trkpt>
<trkpt lat="33.8103007" lon="-118.3938675">
  <ele>-25.117</ele>
  <time>2026-09-01T01:18:20Z</time>
  <course>186.66</course>
  <speed>0.5203844732503076</speed>
  <fix>3d</fix>
</trkpt>
<trkpt lat="33.8102999" lon="-118.3938673">
  <ele>-24.5</ele>
  <time>2026-09-01T01:18:20Z</time>
  <course>359.46</course>
  <speed>0.5</speed>
  <fix>3d</fix>
</trkpt>
<trkpt lat="33.8103011" lon="-118.3938675">
  <ele>-25.117</ele>
  <time>2026-09-01T01:18:20Z</time>
  <course>186.66</course>
  <speed>0.5203844732503076</speed>
  <fix>3d</fix>
</trkpt>
<trkpt lat="33.8102999" lon="-118.3938673">
  <ele>-24.5</ele>
  <time>2026-09-01T01:18:20Z</time>
  <course>359.46</course>
  <speed>0.5</speed>
  <fix>3d</fix>
</trkpt>
<trkpt lat="33.8103016" lon="-118.3938675">
  <ele>-25.111</ele>
  <time>2026-09-01T01:18:20Z</time>
  <course>186.66</course>
  <speed>0.5200961449578337</speed>
  <fix>3d</fix>
</trkpt>
<trkpt lat="33.8103008" lon="-118.3938673">
  <ele>-24.51</ele>
  <time>2026-09-01T01:18:20Z</time>
  <course>359.45</course>
  <speed>0.5</speed>
  <fix>3d</fix>
</trkpt>
<trkpt lat="33.810302" lon="-118.3938675">
  <ele>-25.095</ele>
  <time>2026-09-01T01:18:20Z</time>
  <course>186.66</course>
  <speed>0.5203844732503076</speed>
  <fix>3d</fix>
</trkpt>
<trkpt lat="33.8103008" lon="-118.3938673">
  <ele>-24.51</ele>
  <time>2026-09-01T01:18:20Z</time>
  <course>359.45</course>
  <speed>0.5</speed>
  <fix>3d</fix>
</trkpt>
<trkpt lat="33.8103025" lon="-118.3938675">
  <ele>-25.074</ele>
  <time>2026-09-01T01:18:20Z</time>
  <course>186.66</course>
  <speed>0.5200961449578337</speed>
  <fix>3d</fix>
</trkpt>
<trkpt lat="33.8103017" lon="-118.3938673">
  <ele>-24.49</ele>
  <time>2026-09-01T01:18:20Z</time>
  <course>359.43</course>
  <speed>0.5</speed>
  <fix>3d</fix>
</trkpt>
<trkpt lat="33.8103029" lon="-118.3938675">
  <ele>-25.05</ele>
  <time>2026-09-01T01:18:20Z</time>
  <course>186.66</course>
  <speed>0.5203844732503076</speed>
  <fix>3d</fix>
</trkpt>
<trkpt lat="33.8103017" lon="-118.3938673">
  <ele>-24.49</ele>
  <time>2026-09-01T01:18:20Z</time>
  <course>359.43</course>
  <speed>0.5</speed>
  <fix>3d</fix>
</trkpt>
<trkpt lat="33.8103034" lon="-118.3938675">
  <ele>-25.025</ele>
  <time>2026-09-01T01:18:20Z</time>
  <course>186.66</course>
  <speed>0.5200961449578337</speed>
  <fix>3d</fix>
</trkpt>
<trkpt lat="33.8103026" lon="-118.3938673">
  <ele>-24.46</ele>
  <time>2026-09-01T01:18:20Z</time>
  <course>359.41</course>
  <speed>0.5</speed>
  <fix>3d</fix>
</trkpt>
<trkpt lat="33.8103038" lon="-118.3938675">
  <ele>-25.001</ele>
  <time>2026-09-01T01:18:20Z</time>
  <course>186.66</course>
  <speed>0.5200961449578337</speed>
  <fix>3d</fix>
</trkpt>
<trkpt lat="33.8103026" lon="-118.3938673">
  <ele>-24.46</ele>
  <time>2026-09-01T01:18:20Z</time>
  <course>359.41</course>
  <speed>0.5</speed>
  <fix>3d</fix>
</trkpt>
<trkpt lat="33.8103043" lon="-118.3938675">
  <ele>-24.979</ele>
  <time>2026-09-01T01:18:20Z</time>
  <course>186.66</course>
  <speed>0.5200961449578337</speed>
  <fix>3d</fix>
</trkpt>
<trkpt lat="33.8103035" lon="-118.3938673">
  <ele>-24.41</ele>
  <time>2026-09-01T01:18:20Z</time>
  <course>359.39</course>
  <speed>0.5</speed>
  <fix>3d</fix>
</trkpt>
<trkpt lat="33.8103047" lon="-118.3938675">
  <ele>-24.959</ele>
  <time>2026-09-01T01:18:20Z</time>
  <course>186.66</course>
  <speed>0.5200961449578337</speed>
  <fix>3d</fix>
</trkpt>
<trkpt lat="33.8103035" lon="-118.3938673">
  <ele>-24.41</ele>
  <time>2026-09-01T01:18:20Z</time>
  <course>359.39</course>
  <speed>0.5</speed>
  <fix>3d</fix>
</trkpt>
<trkpt lat="33.8103052" lon="-118.3938675">
  <ele>-24.938</ele>
  <time>2026-09-01T01:18:20Z</time>
  <course>186.66</course>
  <speed>0.5200961449578337</speed>
  <fix>3d</fix>
</trkpt>
<trkpt lat="33.8103044" lon="-118.3938673">
  <ele>-24.37</ele>
  <time>2026-09-01T01:18:20Z</time>
  <course>359.34</course>
  <speed>0.5</speed>
  <fix>3d</fix>
</trkpt>
<trkpt lat="33.8103056" lon="-118.3938675">
  <ele>-24.918</ele>
  <time>2026-09-01T01:18:20Z</time>
  <course>186.66</course>
  <speed>0.5200961449578337</speed>
  <fix>3d</fix>
</trkpt>
<trkpt lat="33.8103044" lon="-118.3938673">
  <ele>-24.37</ele>
  <time>2026-09-01T01:18:20Z</time>
  <course>359.34</course>
  <speed>0.5</speed>
  <fix>3d</fix>
</trkpt>
<trkpt lat="33.8103061" lon="-118.3938675">
  <ele>-24.898</ele>
  <time>2026-09-01T01:18:20Z</time>
  <course>186.66</course>
  <speed>0.5200961449578337</speed>
  <fix>3d</fix>
</trkpt>
<trkpt lat="33.8103054" lon="-118.3938673">
  <ele>-24.34</ele>
  <time>2026-09-01T01:18:20Z</time>
  <course>359.28</course>
  <speed>0.5</speed>
  <fix>3d</fix>
</trkpt>
<trkpt lat="33.8103065" lon="-118.3938675">
  <ele>-24.884</ele>
  <time>2026-09-01T01:18:20Z</time>
  <course>186.66</course>
  <speed>0.5200961449578337</speed>
  <fix>3d</fix>
</trkpt>
<trkpt lat="33.8103054" lon="-118.3938673">
  <ele>-24.34</ele>
  <time>2026-09-01T01:18:20Z</time>
  <course>359.28</course>
  <speed>0.5</speed>
  <fix>3d</fix>
</trkpt>
<trkpt lat="33.810307" lon="-118.3938675">
  <ele>-24.878</ele>
  <time>2026-09-01T01:18:20Z</time>
  <course>186.66</course>
  <speed>0.5200961449578337</speed>
  <fix>3d</fix>
</trkpt>
<trkpt lat="33.8103063" lon="-118.3938674">
  <ele>-24.3</ele>
  <time>2026-09-01T01:18:20Z</time>
  <course>359.21</course>
  <speed>0.5</speed>
  <fix>3d</fix>
</trkpt>
<trkpt lat="33.8103074" lon="-118.3938675">
  <ele>-24.878</ele>
  <time>2026-09-01T01:18:20Z</time>
  <course>186.66</course>
  <speed>0.5200961449578337</speed>
  <fix>3d</fix>
</trkpt>
<trkpt lat="33.8103063" lon="-118.3938674">
  <ele>-24.3</ele>
  <time>2026-09-01T01:18:20Z</time>
  <course>359.21</course>
  <speed>0.5</speed>
  <fix>3d</fix>
</trkpt>
<trkpt lat="33.8103079" lon="-118.3938675">
  <ele>-24.884</ele>
  <time>2026-09-01T01:18:20Z</time>
  <course>186.66</course>
  <speed>0.5200961449578337</speed>
  <fix>3d</fix>
</trkpt>
<trkpt lat="33.8103072" lon="-118.3938674">
  <ele>-24.29</ele>
  <time>2026-09-01T01:18:20Z</time>
  <course>359.21</course>
  <speed>0.5</speed>
  <fix>3d</fix>
</trkpt>
<trkpt lat="33.8103083" lon="-118.3938675">
  <ele>-24.897</ele>
  <time>2026-09-01T01:18:20Z</time>
  <course>186.66</course>
  <speed>0.5200961449578337</speed>
  <fix>3d</fix>
</trkpt>
<trkpt lat="33.8103072" lon="-118.3938674">
  <ele>-24.29</ele>
  <time>2026-09-01T01:18:20Z</time>
  <course>359.21</course>
  <speed>0.5</speed>
  <fix>3d</fix>
</trkpt>
<trkpt lat="33.8103088" lon="-118.3938675">
  <ele>-24.912</ele>
  <time>2026-09-01T01:18:20Z</time>
  <course>186.66</course>
  <speed>0.5200961449578337</speed>
  <fix>3d</fix>
</trkpt>
<trkpt lat="33.8103081" lon="-118.3938674">
  <ele>-24.3</ele>
  <time>2026-09-01T01:18:20Z</time>
  <course>359.33</course>
  <speed>0.5</speed>
  <fix>3d</fix>
</trkpt>
<trkpt lat="33.8103092" lon="-118.3938675">
  <ele>-24.927</ele>
  <time>2026-09-01T01:18:20Z</time>
  <course>186.66</course>
  <speed>0.5200961449578337</speed>
  <fix>3d</fix>
</trkpt>
<trkpt lat="33.8103081" lon="-118.3938674">
  <ele>-24.3</ele>
  <time>2026-09-01T01:18:20Z</time>
  <course>359.33</course>
  <speed>0.5</speed>
  <fix>3d</fix>
</trkpt>
<trkpt lat="33.8103097" lon="-118.3938675">
  <ele>-24.945</ele>
  <time>2026-09-01T01:18:20Z</time>
  <course>186.66</course>
  <speed>0.5200961449578337</speed>
  <fix>3d</fix>
</trkpt>
<trkpt lat="33.810309" lon="-118.3938674">
  <ele>-24.33</ele>
  <time>2026-09-01T01:18:20Z</time>
  <course>359.48</course>
  <speed>0.5</speed>
  <fix>3d</fix>
</trkpt>
<trkpt lat="33.8103101" lon="-118.3938675">
  <ele>-24.964</ele>
  <time>2026-09-01T01:18:20Z</time>
  <course>186.65</course>
  <speed>0.5200961449578337</speed>
  <fix>3d</fix>
</trkpt>
<trkpt lat="33.810309" lon="-118.3938674">
  <ele>-24.33</ele>
  <time>2026-09-01T01:18:20Z</time>
  <course>359.48</course>
  <speed>0.5</speed>
  <fix>3d</fix>
</trkpt>
<trkpt lat="33.8103106" lon="-118.3938675">
  <ele>-24.981</ele>
  <time>2026-09-01T01:18:20Z</time>
  <course>186.65</course>
  <speed>0.5200961449578337</speed>
  <fix>3d</fix>
</trkpt>
<trkpt lat="33.8103099" lon="-118.3938674">
  <ele>-24.36</ele>
  <time>2026-09-01T01:18:20Z</time>
  <course>359.62</course>
  <speed>0.5</speed>
  <fix>3d</fix>
</trkpt>
<trkpt lat="33.810311" lon="-118.3938675">
  <ele>-25.001</ele>
  <time>2026-09-01T01:18:20Z</time>
  <course>186.65</course>
  <speed>0.5200961449578337</speed>
  <fix>3d</fix>
</trkpt>
<trkpt lat="33.8103099" lon="-118.3938674">
  <ele>-24.36</ele>
  <time>2026-09-01T01:18:20Z</time>
  <course>359.62</course>
  <speed>0.5</speed>
  <fix>3d</fix>
</trkpt>
<trkpt lat="33.8103115" lon="-118.3938675">
  <ele>-25.022</ele>
  <time>2026-09-01T01:18:20Z</time>
  <course>186.65</course>
  <speed>0.5200961449578337</speed>
  <fix>3d</fix>
</trkpt>
<trkpt lat="33.8103108" lon="-118.3938674">
  <ele>-24.39</ele>
  <time>2026-09-01T01:18:20Z</time>
  <course>359.74</course>
  <speed>0.49</speed>
  <fix>3d</fix>
</trkpt>
<trkpt lat="33.8103119" lon="-118.3938675">
  <ele>-25.043</ele>
  <time>2026-09-01T01:18:20Z</time>
  <course>186.66</course>
  <speed>0.5200961449578337</speed>
  <fix>3d</fix>
</trkpt>
<trkpt lat="33.8103108" lon="-118.3938674">
  <ele>-24.39</ele>
  <time>2026-09-01T01:18:20Z</time>
  <course>359.74</course>
  <speed>0.49</speed>
  <fix>3d</fix>
</trkpt>
<trkpt lat="33.8103124" lon="-118.3938675">
  <ele>-25.061</ele>
  <time>2026-09-01T01:18:20Z</time>
  <course>186.66</course>
  <speed>0.5200961449578337</speed>
  <fix>3d</fix>
</trkpt>
<trkpt lat="33.8103117" lon="-118.3938674">
  <ele>-24.42</ele>
  <time>2026-09-01T01:18:20Z</time>
  <course>359.82</course>
  <speed>0.49</speed>
  <fix>3d</fix>
</trkpt>
<trkpt lat="33.8103128" lon="-118.3938675">
  <ele>-25.077</ele>
  <time>2026-09-01T01:18:20Z</time>
  <course>186.66</course>
  <speed>0.5200961449578337</speed>
  <fix>3d</fix>
</trkpt>
<trkpt lat="33.8103117" lon="-118.3938674">
  <ele>-24.42</ele>
  <time>2026-09-01T01:18:20Z</time>
  <course>359.82</course>
  <speed>0.49</speed>
  <fix>3d</fix>
</trkpt>
<trkpt lat="33.8103133" lon="-118.3938675">
  <ele>-25.091</ele>
  <time>2026-09-01T01:18:20Z</time>
  <course>186.66</course>
  <speed>0.510098029794274</speed>
  <fix>3d</fix>
</trkpt>
<trkpt lat="33.8103126" lon="-118.3938674">
  <ele>-24.45</ele>
  <time>2026-09-01T01:18:20Z</time>
  <course>359.84</course>
  <speed>0.49</speed>
  <fix>3d</fix>
</trkpt>
<trkpt lat="33.8103137" lon="-118.3938675">
  <ele>-25.103</ele>
  <time>2026-09-01T01:18:20Z</time>
  <course>186.66</course>
  <speed>0.4204759208325728</speed>
  <fix>3d</fix>
</trkpt>
<trkpt lat="33.8103126" lon="-118.3938674">
  <ele>-24.45</ele>
  <time>2026-09-01T01:18:20Z</time>
  <course>359.84</course>
  <speed>0.49</speed>
  <fix>3d</fix>
</trkpt>
<trkpt lat="33.810314" lon="-118.3938675">
  <ele>-25.114</ele>
  <time>2026-09-01T01:18:20Z</time>
  <course>186.64</course>
  <speed>0.3605551275463989</speed>
  <fix>3d</fix>
</trkpt>
<trkpt lat="33.8103135" lon="-118.3938674">
  <ele>-24.48</ele>
  <time>2026-09-01T01:18:20Z</time>
  <course>359.2</course>
  <speed>0.43</speed>
  <fix>3d</fix>
</trkpt>
<trkpt lat="33.8103143" lon="-118.3938675">
  <ele>-25.122</ele>
  <time>2026-09-01T01:18:20Z</time>
  <course>186.63</course>
  <speed>0.31144823004794875</speed>
  <fix>3d</fix>
</trkpt>
<trkpt lat="33.8103135" lon="-118.3938674">
  <ele>-24.48</ele>
  <time>2026-09-01T01:18:20Z</time>
  <course>359.2</course>
  <speed>0.43</speed>
  <fix>3d</fix>
</trkpt>
<trkpt lat="33.8103146" lon="-118.3938675">
  <ele>-25.13</ele>
  <time>2026-09-01T01:18:20Z</time>
  <course>186.61</course>
  <speed>0.2816025568065745</speed>
  <fix>3d</fix>
</trkpt>
<trkpt lat="33.8103141" lon="-118.3938674">
  <ele>-24.5</ele>
  <time>2026-09-01T01:18:20Z</time>
  <course>357.48</course>
  <speed>0.33</speed>
  <fix>3d</fix>
</trkpt>
<trkpt lat="33.8103148" lon="-118.3938676">
  <ele>-25.136</ele>
  <time>2026-09-01T01:18:20Z</time>
  <course>186.6</course>
  <speed>0.25179356624028343</speed>
  <fix>3d</fix>
</trkpt>
<trkpt lat="33.8103141" lon="-118.3938674">
  <ele>-24.5</ele>
  <time>2026-09-01T01:18:20Z</time>
  <course>357.48</course>
  <speed>0.33</speed>
  <fix>3d</fix>
</trkpt>
<trkpt lat="33.810315" lon="-118.3938676">
  <ele>-25.142</ele>
  <time>2026-09-01T01:18:20Z</time>
  <course>186.59</course>
  <speed>0.23194827009486402</speed>
  <fix>3d</fix>
</trkpt>
<trkpt lat="33.8103147" lon="-118.3938675">
  <ele>-24.52</ele>
  <time>2026-09-01T01:18:20Z</time>
  <course>355.46</course>
  <speed>0.25</speed>
  <fix>3d</fix>
</trkpt>
<trkpt lat="33.8103152" lon="-118.3938676">
  <ele>-25.147</ele>
  <time>2026-09-01T01:18:20Z</time>
  <course>186.57</course>
  <speed>0.21213203435596426</speed>
  <fix>3d</fix>
</trkpt>
<trkpt lat="33.8103147" lon="-118.3938675">
  <ele>-24.52</ele>
  <time>2026-09-01T01:18:20Z</time>
  <course>355.46</course>
  <speed>0.25</speed>
  <fix>3d</fix>
</trkpt>
<trkpt lat="33.8103154" lon="-118.3938676">
  <ele>-25.151</ele>
  <time>2026-09-01T01:18:20Z</time>
  <course>186.56</course>
  <speed>0.20223748416156684</speed>
  <fix>3d</fix>
</trkpt>
<trkpt lat="33.810315" lon="-118.3938675">
  <ele>-24.53</ele>
  <time>2026-09-01T01:18:20Z</time>
  <course>353.7</course>
  <speed>0.2</speed>
  <fix>3d</fix>
</trkpt>
<trkpt lat="33.8103155" lon="-118.3938677">
  <ele>-25.155</ele>
  <time>2026-09-01T01:18:20Z</time>
  <course>186.54</course>
  <speed>0.19235384061671343</speed>
  <fix>3d</fix>
</trkpt>
<trkpt lat="33.810315" lon="-118.3938675">
  <ele>-24.53</ele>
  <time>2026-09-01T01:18:20Z</time>
  <course>353.7</course>
  <speed>0.2</speed>
  <fix>3d</fix>
</trkpt>
<trkpt lat="33.8103157" lon="-118.3938677">
  <ele>-25.157</ele>
  <time>2026-09-01T01:18:20Z</time>
  <course>186.53</course>
  <speed>0.1824828759089466</speed>
  <fix>3d</fix>
</trkpt>
<trkpt lat="33.8103154" lon="-118.3938676">
  <ele>-24.54</ele>
  <time>2026-09-01T01:18:20Z</time>
  <course>352.15</course>
  <speed>0.17</speed>
  <fix>3d</fix>
</trkpt>
<trkpt lat="33.8103158" lon="-118.3938677">
  <ele>-25.158</ele>
  <time>2026-09-01T01:18:20Z</time>
  <course>186.52</course>
  <speed>0.17262676501632068</speed>
  <fix>3d</fix>
</trkpt>
<trkpt lat="33.8103154" lon="-118.3938676">
  <ele>-24.54</ele>
  <time>2026-09-01T01:18:20Z</time>
  <course>352.15</course>
  <speed>0.17</speed>
  <fix>3d</fix>
</trkpt>
<trkpt lat="33.810316" lon="-118.3938678">
  <ele>-25.159</ele>
  <time>2026-09-01T01:18:20Z</time>
  <course>186.51</course>
  <speed>0.16278820596099705</speed>
  <fix>3d</fix>
</trkpt>
<trkpt lat="33.8103157" lon="-118.3938676">
  <ele>-24.55</ele>
  <time>2026-09-01T01:18:20Z</time>
  <course>350.78</course>
  <speed>0.15</speed>
  <fix>3d</fix>
</trkpt>
<trkpt lat="33.8103161" lon="-118.3938678">
  <ele>-25.158</ele>
  <time>2026-09-01T01:18:20Z</time>
  <course>186.5</course>
  <speed>0.15297058540778355</speed>
  <fix>3d</fix>
</trkpt>
<trkpt lat="33.8103157" lon="-118.3938676">
  <ele>-24.55</ele>
  <time>2026-09-01T01:18:20Z</time>
  <course>350.78</course>
  <speed>0.15</speed>
  <fix>3d</fix>
</trkpt>
<trkpt lat="33.8103162" lon="-118.3938678">
  <ele>-25.157</ele>
  <time>2026-09-01T01:18:20Z</time>
  <course>186.49</course>
  <speed>0.15297058540778355</speed>
  <fix>3d</fix>
</trkpt>
<trkpt lat="33.810316" lon="-118.3938677">
  <ele>-24.55</ele>
  <time>2026-09-01T01:18:20Z</time>
  <course>349.54</course>
  <speed>0.13</speed>
  <fix>3d</fix>
</trkpt>
<trkpt lat="33.8103163" lon="-118.3938678">
  <ele>-25.155</ele>
  <time>2026-09-01T01:18:20Z</time>
  <course>186.48</course>
  <speed>0.14317821063276354</speed>
  <fix>3d</fix>
</trkpt>
<trkpt lat="33.810316" lon="-118.3938677">
  <ele>-24.55</ele>
  <time>2026-09-01T01:18:20Z</time>
  <course>349.54</course>
  <speed>0.13</speed>
  <fix>3d</fix>
</trkpt>
<trkpt lat="33.8103162" lon="-118.3938677">
  <ele>-24.55</ele>
  <time>2026-09-01T01:18:20Z</time>
  <course>348.43</course>
  <speed>0.12</speed>
  <fix>3d</fix>
</trkpt>
<trkpt lat="33.8103165" lon="-118.3938679">
  <ele>-25.154</ele>
  <time>2026-09-01T01:18:20Z</time>
  <course>186.47</course>
  <speed>0.13341664064126335</speed>
  <fix>3d</fix>
</trkpt>
<trkpt lat="33.8103162" lon="-118.3938677">
  <ele>-24.55</ele>
  <time>2026-09-01T01:18:21Z</time>
  <course>348.43</course>
  <speed>0.12</speed>
  <fix>3d</fix>
</trkpt>
<trkpt lat="33.8103166" lon="-118.3938679">
  <ele>-25.153</ele>
  <time>2026-09-01T01:18:21Z</time>
  <course>186.46</course>
  <speed>0.13341664064126335</speed>
  <fix>3d</fix>
</trkpt>
<trkpt lat="33.8103164" lon="-118.3938678">
  <ele>-24.55</ele>
  <time>2026-09-01T01:18:21Z</time>
  <course>347.43</course>
  <speed>0.11</speed>
  <fix>3d</fix>
</trkpt>
<trkpt lat="33.8103167" lon="-118.3938679">
  <ele>-25.15</ele>
  <time>2026-09-01T01:18:21Z</time>
  <course>186.46</course>
  <speed>0.12369316876852982</speed>
  <fix>3d</fix>
</trkpt>
<trkpt lat="33.8103164" lon="-118.3938678">
  <ele>-24.55</ele>
  <time>2026-09-01T01:18:21Z</time>
  <course>347.43</course>
  <speed>0.11</speed>
  <fix>3d</fix>
</trkpt>
<trkpt lat="33.8103168" lon="-118.3938679">
  <ele>-25.146</ele>
  <time>2026-09-01T01:18:21Z</time>
  <course>186.45</course>
  <speed>0.12369316876852982</speed>
  <fix>3d</fix>
</trkpt>
<trkpt lat="33.8103168" lon="-118.393868">
  <ele>-25.143</ele>
  <time>2026-09-01T01:18:21Z</time>
  <course>186.44</course>
  <speed>0.12369316876852982</speed>
  <fix>3d</fix>
</trkpt>
<trkpt lat="33.8103166" lon="-118.3938678">
  <ele>-24.55</ele>
  <time>2026-09-01T01:18:21Z</time>
  <course>346.52</course>
  <speed>0.1</speed>
  <fix>3d</fix>
</trkpt>
<trkpt lat="33.8103169" lon="-118.393868">
  <ele>-25.14</ele>
  <time>2026-09-01T01:18:21Z</time>
  <course>186.44</course>
  <speed>0.11401754250991379</speed>
  <fix>3d</fix>
</trkpt>
<trkpt lat="33.8103166" lon="-118.3938678">
  <ele>-24.55</ele>
  <time>2026-09-01T01:18:21Z</time>
  <course>346.52</course>
  <speed>0.1</speed>
  <fix>3d</fix>
</trkpt>
<trkpt lat="33.810317" lon="-118.393868">
  <ele>-25.136</ele>
  <time>2026-09-01T01:18:21Z</time>
  <course>186.43</course>
  <speed>0.11401754250991379</speed>
  <fix>3d</fix>
</trkpt>
<trkpt lat="33.8103167" lon="-118.3938679">
  <ele>-24.54</ele>
  <time>2026-09-01T01:18:21Z</time>
  <course>345.69</course>
  <speed>0.09</speed>
  <fix>3d</fix>
</trkpt>
<trkpt lat="33.8103171" lon="-118.393868">
  <ele>-25.131</ele>
  <time>2026-09-01T01:18:21Z</time>
  <course>186.43</course>
  <speed>0.11401754250991379</speed>
  <fix>3d</fix>
</trkpt>
<trkpt lat="33.8103167" lon="-118.3938679">
  <ele>-24.54</ele>
  <time>2026-09-01T01:18:21Z</time>
  <course>345.69</course>
  <speed>0.09</speed>
  <fix>3d</fix>
</trkpt>
<trkpt lat="33.8103172" lon="-118.3938681">
  <ele>-25.125</ele>
  <time>2026-09-01T01:18:21Z</time>
  <course>186.42</course>
  <speed>0.1044030650891055</speed>
  <fix>3d</fix>
</trkpt>
<trkpt lat="33.8103169" lon="-118.3938679">
  <ele>-24.53</ele>
  <time>2026-09-01T01:18:21Z</time>
  <course>344.94</course>
  <speed>0.08</speed>
  <fix>3d</fix>
</trkpt>
<trkpt lat="33.8103172" lon="-118.3938681">
  <ele>-25.118</ele>
  <time>2026-09-01T01:18:21Z</time>
  <course>186.42</course>
  <speed>0.1044030650891055</speed>
  <fix>3d</fix>
</trkpt>
<trkpt lat="33.8103169" lon="-118.3938679">
  <ele>-24.53</ele>
  <time>2026-09-01T01:18:21Z</time>
  <course>344.94</course>
  <speed>0.08</speed>
  <fix>3d</fix>
</trkpt>
<trkpt lat="33.4368002" lon="-117.0859339">
  <ele>-0.11</ele>
  <time>2026-09-01T01:18:21Z</time>
  <course>0.0</course>
  <speed>0.0</speed>
  <fix>3d</fix>
</trkpt>
<trkpt lat="33.4368002" lon="-117.0859339">
  <ele>-0.11</ele>
  <time>2026-09-01T01:18:21Z</time>
  <course>0.0</course>
  <speed>0.0</speed>
  <fix>3d</fix>
</trkpt>
<trkpt lat="33.810313" lon="-118.393867">
  <ele>0.0</ele>
  <time>2026-09-01T01:18:21Z</time>
  <course>173.5</course>
  <speed>0.0</speed>
  <fix>3d</fix>
</trkpt>
<trkpt lat="33.810313" lon="-118.393867">
  <ele>-0.11</ele>
  <time>2026-09-01T01:18:21Z</time>
  <course>0.0</course>
  <speed>0.0</speed>
  <fix>3d</fix>
</trkpt>
<trkpt lat="33.810313" lon="-118.393867">
  <ele>0.0</ele>
  <time>2026-09-01T01:18:21Z</time>
  <course>173.64</course>
  <speed>0.0</speed>
  <fix>3d</fix>
</trkpt>
<trkpt lat="33.810313" lon="-118.393867">
  <ele>-0.11</ele>
  <time>2026-09-01T01:18:21Z</time>
  <course>0.0</course>
  <speed>0.0</speed>
  <fix>3d</fix>
</trkpt>
<trkpt lat="33.810313" lon="-118.393867">
  <ele>0.0</ele>
  <time>2026-09-01T01:18:21Z</time>
  <course>174.03</course>
  <speed>0.0</speed>
  <fix>3d</fix>
</trkpt>
<trkpt lat="33.810313" lon="-118.393867">
  <ele>-0.11</ele>
  <time>2026-09-01T01:18:21Z</time>
  <course>0.0</course>
  <speed>0.0</speed>
  <fix>3d</fix>
</trkpt>
<trkpt lat="33.810313" lon="-118.393867">
  <ele>0.0</ele>
  <time>2026-09-01T01:18:21Z</time>
  <course>174.57</course>
  <speed>0.0</speed>
  <fix>3d</fix>
</trkpt>
<trkpt lat="33.810313" lon="-118.393867">
  <ele>-0.11</ele>
  <time>2026-09-01T01:18:21Z</time>
  <course>0.0</course>
  <speed>0.0</speed>
  <fix>3d</fix>
</trkpt>
<trkpt lat="33.810313" lon="-118.393867">
  <ele>0.0</ele>
  <time>2026-09-01T01:18:21Z</time>
  <course>175.13</course>
  <speed>0.0</speed>
  <fix>3d</fix>
</trkpt>
<trkpt lat="33.810313" lon="-118.393867">
  <ele>-0.12</ele>
  <time>2026-09-01T01:18:21Z</time>
  <course>0.0</course>
  <speed>0.0</speed>
  <fix>3d</fix>
</trkpt>
<trkpt lat="33.810313" lon="-118.393867">
  <ele>0.0</ele>
  <time>2026-09-01T01:18:21Z</time>
  <course>175.67</course>
  <speed>0.0</speed>
  <fix>3d</fix>
</trkpt>
<trkpt lat="33.810313" lon="-118.393867">
  <ele>-0.12</ele>
  <time>2026-09-01T01:18:21Z</time>
  <course>0.0</course>
  <speed>0.0</speed>
  <fix>3d</fix>
</trkpt>
<trkpt lat="33.810313" lon="-118.393867">
  <ele>0.0</ele>
  <time>2026-09-01T01:18:21Z</time>
  <course>176.17</course>
  <speed>0.0</speed>
  <fix>3d</fix>
</trkpt>
<trkpt lat="33.810313" lon="-118.393867">
  <ele>-0.13</ele>
  <time>2026-09-01T01:18:21Z</time>
  <course>0.0</course>
  <speed>0.0</speed>
  <fix>3d</fix>
</trkpt>
<trkpt lat="33.810313" lon="-118.393867">
  <ele>0.0</ele>
  <time>2026-09-01T01:18:21Z</time>
  <course>176.65</course>
  <speed>0.0</speed>
  <fix>3d</fix>
</trkpt>
<trkpt lat="33.810313" lon="-118.393867">
  <ele>-0.13</ele>
  <time>2026-09-01T01:18:21Z</time>
  <course>0.0</course>
  <speed>0.0</speed>
  <fix>3d</fix>
</trkpt>
<trkpt lat="33.810313" lon="-118.393867">
  <ele>0.0</ele>
  <time>2026-09-01T01:18:21Z</time>
  <course>177.12</course>
  <speed>0.0</speed>
  <fix>3d</fix>
</trkpt>
<trkpt lat="33.810313" lon="-118.393867">
  <ele>-0.13</ele>
  <time>2026-09-01T01:18:21Z</time>
  <course>0.0</course>
  <speed>0.0</speed>
  <fix>3d</fix>
</trkpt>
<trkpt lat="33.810313" lon="-118.393867">
  <ele>0.0</ele>
  <time>2026-09-01T01:18:21Z</time>
  <course>177.57</course>
  <speed>0.0</speed>
  <fix>3d</fix>
</trkpt>
<trkpt lat="33.810313" lon="-118.393867">
  <ele>-0.13</ele>
  <time>2026-09-01T01:18:21Z</time>
  <course>0.0</course>
  <speed>0.0</speed>
  <fix>3d</fix>
</trkpt>
<trkpt lat="33.810313" lon="-118.393867">
  <ele>0.0</ele>
  <time>2026-09-01T01:18:21Z</time>
  <course>178.02</course>
  <speed>0.0</speed>
  <fix>3d</fix>
</trkpt>
<trkpt lat="33.810313" lon="-118.393867">
  <ele>-0.14</ele>
  <time>2026-09-01T01:18:21Z</time>
  <course>0.0</course>
  <speed>0.0</speed>
  <fix>3d</fix>
</trkpt>
<trkpt lat="33.810313" lon="-118.393867">
  <ele>0.0</ele>
  <time>2026-09-01T01:18:21Z</time>
  <course>178.45</course>
  <speed>0.0</speed>
  <fix>3d</fix>
</trkpt>
<trkpt lat="33.810313" lon="-118.393867">
  <ele>-0.14</ele>
  <time>2026-09-01T01:18:21Z</time>
  <course>0.0</course>
  <speed>0.0</speed>
  <fix>3d</fix>
</trkpt>
<trkpt lat="33.810313" lon="-118.393867">
  <ele>0.0</ele>
  <time>2026-09-01T01:18:21Z</time>
  <course>178.87</course>
  <speed>0.0</speed>
  <fix>3d</fix>
</trkpt>
<trkpt lat="33.810313" lon="-118.393867">
  <ele>-0.14</ele>
  <time>2026-09-01T01:18:21Z</time>
  <course>0.0</course>
  <speed>0.0</speed>
  <fix>3d</fix>
</trkpt>
<trkpt lat="33.810313" lon="-118.393867">
  <ele>0.0</ele>
  <time>2026-09-01T01:18:21Z</time>
  <course>179.27</course>
  <speed>0.0</speed>
  <fix>3d</fix>
</trkpt>
<trkpt lat="33.810313" lon="-118.393867">
  <ele>-0.14</ele>
  <time>2026-09-01T01:18:21Z</time>
  <course>0.0</course>
  <speed>0.0</speed>
  <fix>3d</fix>
</trkpt>
<trkpt lat="33.810313" lon="-118.393867">
  <ele>0.0</ele>
  <time>2026-09-01T01:18:21Z</time>
  <course>179.66</course>
  <speed>0.0</speed>
  <fix>3d</fix>
</trkpt>
<trkpt lat="33.810313" lon="-118.393867">
  <ele>-0.14</ele>
  <time>2026-09-01T01:18:21Z</time>
  <course>0.0</course>
  <speed>0.0</speed>
  <fix>3d</fix>
</trkpt>
<trkpt lat="33.810313" lon="-118.393867">
  <ele>0.0</ele>
  <time>2026-09-01T01:18:21Z</time>
  <course>180.05</course>
  <speed>0.0</speed>
  <fix>3d</fix>
</trkpt>
<trkpt lat="33.810313" lon="-118.393867">
  <ele>-0.14</ele>
  <time>2026-09-01T01:18:21Z</time>
  <course>0.0</course>
  <speed>0.0</speed>
  <fix>3d</fix>
</trkpt>
<trkpt lat="33.810313" lon="-118.393867">
  <ele>0.0</ele>
  <time>2026-09-01T01:18:21Z</time>
  <course>180.41</course>
  <speed>0.0</speed>
  <fix>3d</fix>
</trkpt>
<trkpt lat="33.810313" lon="-118.393867">
  <ele>-0.14</ele>
  <time>2026-09-01T01:18:21Z</time>
  <course>0.0</course>
  <speed>0.0</speed>
  <fix>3d</fix>
</trkpt>
<trkpt lat="33.810313" lon="-118.393867">
  <ele>0.0</ele>
  <time>2026-09-01T01:18:21Z</time>
  <course>180.76</course>
  <speed>0.0</speed>
  <fix>3d</fix>
</trkpt>
<trkpt lat="33.810313" lon="-118.393867">
  <ele>-0.14</ele>
  <time>2026-09-01T01:18:21Z</time>
  <course>0.0</course>
  <speed>0.0</speed>
  <fix>3d</fix>
</trkpt>
<trkpt lat="33.810313" lon="-118.393867">
  <ele>0.0</ele>
  <time>2026-09-01T01:18:21Z</time>
  <course>181.1</course>
  <speed>0.0</speed>
  <fix>3d</fix>
</trkpt>
<trkpt lat="33.810313" lon="-118.393867">
  <ele>-0.13</ele>
  <time>2026-09-01T01:18:21Z</time>
  <course>0.0</course>
  <speed>0.0</speed>
  <fix>3d</fix>
</trkpt>
<trkpt lat="33.810313" lon="-118.393867">
  <ele>0.0</ele>
  <time>2026-09-01T01:18:21Z</time>
  <course>181.43</course>
  <speed>0.0</speed>
  <fix>3d</fix>
</trkpt>
<trkpt lat="33.810313" lon="-118.393867">
  <ele>-0.13</ele>
  <time>2026-09-01T01:18:21Z</time>
  <course>0.0</course>
  <speed>0.0</speed>
  <fix>3d</fix>
</trkpt>
<trkpt lat="33.810313" lon="-118.393867">
  <ele>0.0</ele>
  <time>2026-09-01T01:18:21Z</time>
  <course>181.75</course>
  <speed>0.0</speed>
  <fix>3d</fix>
</trkpt>
<trkpt lat="33.810313" lon="-118.393867">
  <ele>-0.12</ele>
  <time>2026-09-01T01:18:21Z</time>
  <course>0.0</course>
  <speed>0.0</speed>
  <fix>3d</fix>
</trkpt>
<trkpt lat="33.810313" lon="-118.393867">
  <ele>0.0</ele>
  <time>2026-09-01T01:18:21Z</time>
  <course>182.05</course>
  <speed>0.0</speed>
  <fix>3d</fix>
</trkpt>
<trkpt lat="33.810313" lon="-118.393867">
  <ele>-0.12</ele>
  <time>2026-09-01T01:18:21Z</time>
  <course>0.0</course>
  <speed>0.0</speed>
  <fix>3d</fix>
</trkpt>
<trkpt lat="33.810313" lon="-118.393867">
  <ele>0.0</ele>
  <time>2026-09-01T01:18:21Z</time>
  <course>182.35</course>
  <speed>0.0</speed>
  <fix>3d</fix>
</trkpt>
<trkpt lat="33.810313" lon="-118.393867">
  <ele>-0.12</ele>
  <time>2026-09-01T01:18:21Z</time>
  <course>0.0</course>
  <speed>0.0</speed>
  <fix>3d</fix>
</trkpt>
<trkpt lat="33.810313" lon="-118.393867">
  <ele>0.0</ele>
  <time>2026-09-01T01:18:21Z</time>
  <course>182.63</course>
  <speed>0.0</speed>
  <fix>3d</fix>
</trkpt>
<trkpt lat="33.810313" lon="-118.393867">
  <ele>-0.12</ele>
  <time>2026-09-01T01:18:21Z</time>
  <course>0.0</course>
  <speed>0.0</speed>
  <fix>3d</fix>
</trkpt>
<trkpt lat="33.810313" lon="-118.393867">
  <ele>0.0</ele>
  <time>2026-09-01T01:18:21Z</time>
  <course>182.9</course>
  <speed>0.0</speed>
  <fix>3d</fix>
</trkpt>
<trkpt lat="33.810313" lon="-118.393867">
  <ele>-0.11</ele>
  <time>2026-09-01T01:18:21Z</time>
  <course>0.0</course>
  <speed>0.0</speed>
  <fix>3d</fix>
</trkpt>
<trkpt lat="33.810313" lon="-118.393867">
  <ele>0.0</ele>
  <time>2026-09-01T01:18:21Z</time>
  <course>183.16</course>
  <speed>0.0</speed>
  <fix>3d</fix>
</trkpt>
<trkpt lat="33.810313" lon="-118.393867">
  <ele>-0.11</ele>
  <time>2026-09-01T01:18:21Z</time>
  <course>0.0</course>
  <speed>0.0</speed>
  <fix>3d</fix>
</trkpt>
<trkpt lat="33.810313" lon="-118.393867">
  <ele>0.0</ele>
  <time>2026-09-01T01:18:21Z</time>
  <course>183.41</course>
  <speed>0.0</speed>
  <fix>3d</fix>
</trkpt>
<trkpt lat="33.810313" lon="-118.393867">
  <ele>-0.11</ele>
  <time>2026-09-01T01:18:21Z</time>
  <course>0.0</course>
  <speed>0.0</speed>
  <fix>3d</fix>
</trkpt>
<trkpt lat="33.810313" lon="-118.393867">
  <ele>0.0</ele>
  <time>2026-09-01T01:18:21Z</time>
  <course>183.65</course>
  <speed>0.0</speed>
  <fix>3d</fix>
</trkpt>
<trkpt lat="33.810313" lon="-118.393867">
  <ele>-0.11</ele>
  <time>2026-09-01T01:18:21Z</time>
  <course>0.0</course>
  <speed>0.0</speed>
  <fix>3d</fix>
</trkpt>
<trkpt lat="33.810313" lon="-118.393867">
  <ele>0.0</ele>
  <time>2026-09-01T01:18:21Z</time>
  <course>183.88</course>
  <speed>0.0</speed>
  <fix>3d</fix>
</trkpt>
<trkpt lat="33.810313" lon="-118.393867">
  <ele>-0.12</ele>
  <time>2026-09-01T01:18:21Z</time>
  <course>0.0</course>
  <speed>0.0</speed>
  <fix>3d</fix>
</trkpt>
<trkpt lat="33.810313" lon="-118.393867">
  <ele>0.0</ele>
  <time>2026-09-01T01:18:21Z</time>
  <course>184.11</course>
  <speed>0.0</speed>
  <fix>3d</fix>
</trkpt>
<trkpt lat="33.810313" lon="-118.393867">
  <ele>-0.12</ele>
  <time>2026-09-01T01:18:21Z</time>
  <course>0.0</course>
  <speed>0.0</speed>
  <fix>3d</fix>
</trkpt>
<trkpt lat="33.810313" lon="-118.393867">
  <ele>0.0</ele>
  <time>2026-09-01T01:18:21Z</time>
  <course>184.32</course>
  <speed>0.0</speed>
  <fix>3d</fix>
</trkpt>
<trkpt lat="33.810313" lon="-118.393867">
  <ele>-0.13</ele>
  <time>2026-09-01T01:18:21Z</time>
  <course>0.0</course>
  <speed>0.0</speed>
  <fix>3d</fix>
</trkpt>
<trkpt lat="33.810313" lon="-118.393867">
  <ele>0.0</ele>
  <time>2026-09-01T01:18:21Z</time>
  <course>184.52</course>
  <speed>0.0</speed>
  <fix>3d</fix>
</trkpt>
<trkpt lat="33.810313" lon="-118.393867">
  <ele>-0.13</ele>
  <time>2026-09-01T01:18:21Z</time>
  <course>0.0</course>
  <speed>0.0</speed>
  <fix>3d</fix>
</trkpt>
<trkpt lat="33.810313" lon="-118.393867">
  <ele>0.0</ele>
  <time>2026-09-01T01:18:21Z</time>
  <course>184.72</course>
  <speed>0.0</speed>
  <fix>3d</fix>
</trkpt>
<trkpt lat="33.810313" lon="-118.393867">
  <ele>-0.13</ele>
  <time>2026-09-01T01:18:21Z</time>
  <course>0.0</course>
  <speed>0.0</speed>
  <fix>3d</fix>
</trkpt>
<trkpt lat="33.810313" lon="-118.393867">
  <ele>0.0</ele>
  <time>2026-09-01T01:18:21Z</time>
  <course>184.91</course>
  <speed>0.0</speed>
  <fix>3d</fix>
</trkpt>
<trkpt lat="33.810313" lon="-118.393867">
  <ele>-0.13</ele>
  <time>2026-09-01T01:18:21Z</time>
  <course>0.0</course>
  <speed>0.0</speed>
  <fix>3d</fix>
</trkpt>
<trkpt lat="33.810313" lon="-118.393867">
  <ele>0.0</ele>
  <time>2026-09-01T01:18:21Z</time>
  <course>185.09</course>
  <speed>0.0</speed>
  <fix>3d</fix>
</trkpt>
<trkpt lat="33.810313" lon="-118.393867">
  <ele>-0.14</ele>
  <time>2026-09-01T01:18:21Z</time>
  <course>0.0</course>
  <speed>0.0</speed>
  <fix>3d</fix>
</trkpt>
<trkpt lat="33.810313" lon="-118.393867">
  <ele>0.0</ele>
  <time>2026-09-01T01:18:21Z</time>
  <course>185.26</course>
  <speed>0.0</speed>
  <fix>3d</fix>
</trkpt>
<trkpt lat="33.810313" lon="-118.393867">
  <ele>-0.14</ele>
  <time>2026-09-01T01:18:21Z</time>
  <course>0.0</course>
  <speed>0.0</speed>
  <fix>3d</fix>
</trkpt>
<trkpt lat="33.810313" lon="-118.393867">
  <ele>0.0</ele>
  <time>2026-09-01T01:18:21Z</time>
  <course>185.42</course>
  <speed>0.0</speed>
  <fix>3d</fix>
</trkpt>
<trkpt lat="33.810313" lon="-118.393867">
  <ele>-0.13</ele>
  <time>2026-09-01T01:18:21Z</time>
  <course>0.0</course>
  <speed>0.0</speed>
  <fix>3d</fix>
</trkpt>
<trkpt lat="33.810313" lon="-118.393867">
  <ele>0.0</ele>
  <time>2026-09-01T01:18:21Z</time>
  <course>185.58</course>
  <speed>0.0</speed>
  <fix>3d</fix>
</trkpt>
<trkpt lat="33.810313" lon="-118.393867">
  <ele>-0.13</ele>
  <time>2026-09-01T01:18:21Z</time>
  <course>0.0</course>
  <speed>0.0</speed>
  <fix>3d</fix>
</trkpt>
<trkpt lat="33.810313" lon="-118.393867">
  <ele>0.0</ele>
  <time>2026-09-01T01:18:21Z</time>
  <course>185.73</course>
  <speed>0.0</speed>
  <fix>3d</fix>
</trkpt>
<trkpt lat="33.810313" lon="-118.393867">
  <ele>-0.13</ele>
  <time>2026-09-01T01:18:21Z</time>
  <course>0.0</course>
  <speed>0.0</speed>
  <fix>3d</fix>
</trkpt>
<trkpt lat="33.810313" lon="-118.393867">
  <ele>0.0</ele>
  <time>2026-09-01T01:18:21Z</time>
  <course>185.87</course>
  <speed>0.0</speed>
  <fix>3d</fix>
</trkpt>
<trkpt lat="33.810313" lon="-118.393867">
  <ele>-0.13</ele>
  <time>2026-09-01T01:18:21Z</time>
  <course>0.0</course>
  <speed>0.0</speed>
  <fix>3d</fix>
</trkpt>
<trkpt lat="33.810313" lon="-118.393867">
  <ele>0.0</ele>
  <time>2026-09-01T01:18:21Z</time>
  <course>186.01</course>
  <speed>0.0</speed>
  <fix>3d</fix>
</trkpt>
<trkpt lat="33.810313" lon="-118.393867">
  <ele>-0.12</ele>
  <time>2026-09-01T01:18:21Z</time>
  <course>0.0</course>
  <speed>0.0</speed>
  <fix>3d</fix>
</trkpt>
<trkpt lat="33.810313" lon="-118.393867">
  <ele>0.0</ele>
  <time>2026-09-01T01:18:21Z</time>
  <course>186.14</course>
  <speed>0.0</speed>
  <fix>3d</fix>
</trkpt>
<trkpt lat="33.810313" lon="-118.393867">
  <ele>-0.12</ele>
  <time>2026-09-01T01:18:21Z</time>
  <course>0.0</course>
  <speed>0.0</speed>
  <fix>3d</fix>
</trkpt>
<trkpt lat="33.810313" lon="-118.393867">
  <ele>0.0</ele>
  <time>2026-09-01T01:18:21Z</time>
  <course>186.27</course>
  <speed>0.0</speed>
  <fix>3d</fix>
</trkpt>
<trkpt lat="33.810313" lon="-118.393867">
  <ele>-0.12</ele>
  <time>2026-09-01T01:18:21Z</time>
  <course>0.0</course>
  <speed>0.0</speed>
  <fix>3d</fix>
</trkpt>
<trkpt lat="33.810313" lon="-118.393867">
  <ele>0.0</ele>
  <time>2026-09-01T01:18:21Z</time>
  <course>186.39</course>
  <speed>0.0</speed>
  <fix>3d</fix>
</trkpt>
<trkpt lat="33.810313" lon="-118.393867">
  <ele>-0.12</ele>
  <time>2026-09-01T01:18:21Z</time>
  <course>0.0</course>
  <speed>0.0</speed>
  <fix>3d</fix>
</trkpt>
<trkpt lat="33.810313" lon="-118.393867">
  <ele>0.0</ele>
  <time>2026-09-01T01:18:21Z</time>
  <course>186.5</course>
  <speed>0.0</speed>
  <fix>3d</fix>
</trkpt>
<trkpt lat="33.810313" lon="-118.393867">
  <ele>-0.12</ele>
  <time>2026-09-01T01:18:21Z</time>
  <course>0.0</course>
  <speed>0.0</speed>
  <fix>3d</fix>
</trkpt>
<trkpt lat="33.810313" lon="-118.393867">
  <ele>0.0</ele>
  <time>2026-09-01T01:18:21Z</time>
  <course>186.61</course>
  <speed>0.0</speed>
  <fix>3d</fix>
</trkpt>
<trkpt lat="33.810313" lon="-118.393867">
  <ele>-0.12</ele>
  <time>2026-09-01T01:18:21Z</time>
  <course>0.0</course>
  <speed>0.0</speed>
  <fix>3d</fix>
</trkpt>
<trkpt lat="33.810313" lon="-118.393867">
  <ele>0.0</ele>
  <time>2026-09-01T01:18:21Z</time>
  <course>186.72</course>
  <speed>0.0</speed>
  <fix>3d</fix>
</trkpt>
<trkpt lat="33.810313" lon="-118.393867">
  <ele>-0.12</ele>
  <time>2026-09-01T01:18:21Z</time>
  <course>0.0</course>
  <speed>0.0</speed>
  <fix>3d</fix>
</trkpt>
<trkpt lat="33.810313" lon="-118.393867">
  <ele>0.0</ele>
  <time>2026-09-01T01:18:21Z</time>
  <course>186.82</course>
  <speed>0.0</speed>
  <fix>3d</fix>
</trkpt>
<trkpt lat="33.810313" lon="-118.393867">
  <ele>-0.12</ele>
  <time>2026-09-01T01:18:21Z</time>
  <course>0.0</course>
  <speed>0.0</speed>
  <fix>3d</fix>
</trkpt>
<trkpt lat="33.810313" lon="-118.393867">
  <ele>0.0</ele>
  <time>2026-09-01T01:18:21Z</time>
  <course>186.91</course>
  <speed>0.0</speed>
  <fix>3d</fix>
</trkpt>
<trkpt lat="33.810313" lon="-118.393867">
  <ele>-0.12</ele>
  <time>2026-09-01T01:18:21Z</time>
  <course>0.0</course>
  <speed>0.0</speed>
  <fix>3d</fix>
</trkpt>
<trkpt lat="33.810313" lon="-118.393867">
  <ele>0.0</ele>
  <time>2026-09-01T01:18:21Z</time>
  <course>187.0</course>
  <speed>0.0</speed>
  <fix>3d</fix>
</trkpt>
<trkpt lat="33.810313" lon="-118.393867">
  <ele>-0.12</ele>
  <time>2026-09-01T01:18:21Z</time>
  <course>0.0</course>
  <speed>0.0</speed>
  <fix>3d</fix>
</trkpt>
<trkpt lat="33.810313" lon="-118.393867">
  <ele>0.0</ele>
  <time>2026-09-01T01:18:21Z</time>
  <course>187.09</course>
  <speed>0.0</speed>
  <fix>3d</fix>
</trkpt>
<trkpt lat="33.810313" lon="-118.393867">
  <ele>-0.13</ele>
  <time>2026-09-01T01:18:21Z</time>
  <course>0.0</course>
  <speed>0.0</speed>
  <fix>3d</fix>
</trkpt>
<trkpt lat="33.810313" lon="-118.393867">
  <ele>0.0</ele>
  <time>2026-09-01T01:18:21Z</time>
  <course>187.17</course>
  <speed>0.0</speed>
  <fix>3d</fix>
</trkpt>
<trkpt lat="33.810313" lon="-118.393867">
  <ele>-0.13</ele>
  <time>2026-09-01T01:18:21Z</time>
  <course>0.0</course>
  <speed>0.0</speed>
  <fix>3d</fix>
</trkpt>
<trkpt lat="33.810313" lon="-118.393867">
  <ele>0.0</ele>
  <time>2026-09-01T01:18:21Z</time>
  <course>187.25</course>
  <speed>0.0</speed>
  <fix>3d</fix>
</trkpt>
<trkpt lat="33.810313" lon="-118.393867">
  <ele>-0.13</ele>
  <time>2026-09-01T01:18:21Z</time>
  <course>0.0</course>
  <speed>0.0</speed>
  <fix>3d</fix>
</trkpt>
<trkpt lat="33.810313" lon="-118.393867">
  <ele>0.0</ele>
  <time>2026-09-01T01:18:21Z</time>
  <course>187.33</course>
  <speed>0.0</speed>
  <fix>3d</fix>
</trkpt>
<trkpt lat="33.810313" lon="-118.393867">
  <ele>-0.13</ele>
  <time>2026-09-01T01:18:21Z</time>
  <course>0.0</course>
  <speed>0.0</speed>
  <fix>3d</fix>
</trkpt>
<trkpt lat="33.810313" lon="-118.393867">
  <ele>0.0</ele>
  <time>2026-09-01T01:18:21Z</time>
  <course>187.4</course>
  <speed>0.0</speed>
  <fix>3d</fix>
</trkpt>
<trkpt lat="33.810313" lon="-118.393867">
  <ele>-0.13</ele>
  <time>2026-09-01T01:18:21Z</time>
  <course>0.0</course>
  <speed>0.0</speed>
  <fix>3d</fix>
</trkpt>
<trkpt lat="33.810313" lon="-118.393867">
  <ele>0.0</ele>
  <time>2026-09-01T01:18:21Z</time>
  <course>187.47</course>
  <speed>0.0</speed>
  <fix>3d</fix>
</trkpt>
<trkpt lat="33.810313" lon="-118.393867">
  <ele>-0.13</ele>
  <time>2026-09-01T01:18:21Z</time>
  <course>0.0</course>
  <speed>0.0</speed>
  <fix>3d</fix>
</trkpt>
<trkpt lat="33.810313" lon="-118.393867">
  <ele>0.0</ele>
  <time>2026-09-01T01:18:21Z</time>
  <course>187.53</course>
  <speed>0.0</speed>
  <fix>3d</fix>
</trkpt>
<trkpt lat="33.810313" lon="-118.393867">
  <ele>-0.13</ele>
  <time>2026-09-01T01:18:21Z</time>
  <course>0.0</course>
  <speed>0.0</speed>
  <fix>3d</fix>
</trkpt>
<trkpt lat="33.810313" lon="-118.393867">
  <ele>0.0</ele>
  <time>2026-09-01T01:18:21Z</time>
  <course>187.59</course>
  <speed>0.0</speed>
  <fix>3d</fix>
</trkpt>
<trkpt lat="33.810313" lon="-118.393867">
  <ele>-0.13</ele>
  <time>2026-09-01T01:18:21Z</time>
  <course>0.0</course>
  <speed>0.0</speed>
  <fix>3d</fix>
</trkpt>
<trkpt lat="33.810313" lon="-118.393867">
  <ele>0.0</ele>
  <time>2026-09-01T01:18:21Z</time>
  <course>187.65</course>
  <speed>0.0</speed>
  <fix>3d</fix>
</trkpt>
<trkpt lat="33.810313" lon="-118.393867">
  <ele>-0.12</ele>
  <time>2026-09-01T01:18:21Z</time>
  <course>0.0</course>
  <speed>0.0</speed>
  <fix>3d</fix>
</trkpt>
<trkpt lat="33.810313" lon="-118.393867">
  <ele>0.0</ele>
  <time>2026-09-01T01:18:21Z</time>
  <course>187.71</course>
  <speed>0.0</speed>
  <fix>3d</fix>
</trkpt>
<trkpt lat="33.810313" lon="-118.393867">
  <ele>-0.12</ele>
  <time>2026-09-01T01:18:21Z</time>
  <course>0.0</course>
  <speed>0.0</speed>
  <fix>3d</fix>
</trkpt>
<trkpt lat="33.810313" lon="-118.393867">
  <ele>0.0</ele>
  <time>2026-09-01T01:18:21Z</time>
  <course>187.76</course>
  <speed>0.0</speed>
  <fix>3d</fix>
</trkpt>
<trkpt lat="33.810313" lon="-118.393867">
  <ele>-0.12</ele>
  <time>2026-09-01T01:18:21Z</time>
  <course>0.0</course>
  <speed>0.0</speed>
  <fix>3d</fix>
</trkpt>
<trkpt lat="33.810313" lon="-118.393867">
  <ele>0.0</ele>
  <time>2026-09-01T01:18:21Z</time>
  <course>187.81</course>
  <speed>0.0</speed>
  <fix>3d</fix>
</trkpt>
<trkpt lat="33.810313" lon="-118.393867">
  <ele>-0.12</ele>
  <time>2026-09-01T01:18:21Z</time>
  <course>0.0</course>
  <speed>0.0</speed>
  <fix>3d</fix>
</trkpt>
<trkpt lat="33.810313" lon="-118.393867">
  <ele>0.0</ele>
  <time>2026-09-01T01:18:21Z</time>
  <course>187.86</course>
  <speed>0.0</speed>
  <fix>3d</fix>
</trkpt>
<trkpt lat="33.810313" lon="-118.393867">
  <ele>-0.12</ele>
  <time>2026-09-01T01:18:21Z</time>
  <course>0.0</course>
  <speed>0.0</speed>
  <fix>3d</fix>
</trkpt>
<trkpt lat="33.810313" lon="-118.393867">
  <ele>0.0</ele>
  <time>2026-09-01T01:18:21Z</time>
  <course>187.91</course>
  <speed>0.0</speed>
  <fix>3d</fix>
</trkpt>
<trkpt lat="33.810313" lon="-118.393867">
  <ele>-0.12</ele>
  <time>2026-09-01T01:18:21Z</time>
  <course>0.0</course>
  <speed>0.0</speed>
  <fix>3d</fix>
</trkpt>
<trkpt lat="33.810313" lon="-118.393867">
  <ele>0.0</ele>
  <time>2026-09-01T01:18:21Z</time>
  <course>187.95</course>
  <speed>0.0</speed>
  <fix>3d</fix>
</trkpt>
<trkpt lat="33.810313" lon="-118.393867">
  <ele>-0.12</ele>
  <time>2026-09-01T01:18:21Z</time>
  <course>0.0</course>
  <speed>0.0</speed>
  <fix>3d</fix>
</trkpt>
<trkpt lat="33.810313" lon="-118.393867">
  <ele>0.0</ele>
  <time>2026-09-01T01:18:21Z</time>
  <course>187.99</course>
  <speed>0.0</speed>
  <fix>3d</fix>
</trkpt>
<trkpt lat="33.810313" lon="-118.393867">
  <ele>-0.12</ele>
  <time>2026-09-01T01:18:21Z</time>
  <course>0.0</course>
  <speed>0.0</speed>
  <fix>3d</fix>
</trkpt>
<trkpt lat="33.810313" lon="-118.393867">
  <ele>0.0</ele>
  <time>2026-09-01T01:18:21Z</time>
  <course>188.03</course>
  <speed>0.0</speed>
  <fix>3d</fix>
</trkpt>
<trkpt lat="33.810313" lon="-118.393867">
  <ele>-0.12</ele>
  <time>2026-09-01T01:18:21Z</time>
  <course>0.0</course>
  <speed>0.0</speed>
  <fix>3d</fix>
</trkpt>
<trkpt lat="33.810313" lon="-118.393867">
  <ele>0.0</ele>
  <time>2026-09-01T01:18:21Z</time>
  <course>188.07</course>
  <speed>0.0</speed>
  <fix>3d</fix>
</trkpt>
<trkpt lat="33.810313" lon="-118.393867">
  <ele>-0.12</ele>
  <time>2026-09-01T01:18:21Z</time>
  <course>0.0</course>
  <speed>0.0</speed>
  <fix>3d</fix>
</trkpt>
<trkpt lat="33.810313" lon="-118.393867">
  <ele>0.0</ele>
  <time>2026-09-01T01:18:21Z</time>
  <course>188.1</course>
  <speed>0.0</speed>
  <fix>3d</fix>
</trkpt>
<trkpt lat="33.810313" lon="-118.393867">
  <ele>-0.13</ele>
  <time>2026-09-01T01:18:21Z</time>
  <course>0.0</course>
  <speed>0.0</speed>
  <fix>3d</fix>
</trkpt>
<trkpt lat="33.810313" lon="-118.393867">
  <ele>0.0</ele>
  <time>2026-09-01T01:18:21Z</time>
  <course>188.13</course>
  <speed>0.0</speed>
  <fix>3d</fix>
</trkpt>
<trkpt lat="33.810313" lon="-118.393867">
  <ele>-0.13</ele>
  <time>2026-09-01T01:18:21Z</time>
  <course>0.0</course>
  <speed>0.0</speed>
  <fix>3d</fix>
</trkpt>
<trkpt lat="33.810313" lon="-118.393867">
  <ele>0.0</ele>
  <time>2026-09-01T01:18:21Z</time>
  <course>188.17</course>
  <speed>0.0</speed>
  <fix>3d</fix>
</trkpt>
<trkpt lat="33.810313" lon="-118.393867">
  <ele>-0.13</ele>
  <time>2026-09-01T01:18:21Z</time>
  <course>0.0</course>
  <speed>0.0</speed>
  <fix>3d</fix>
</trkpt>
<trkpt lat="33.810313" lon="-118.393867">
  <ele>0.0</ele>
  <time>2026-09-01T01:18:21Z</time>
  <course>188.19</course>
  <speed>0.0</speed>
  <fix>3d</fix>
</trkpt>
<trkpt lat="33.810313" lon="-118.393867">
  <ele>-0.13</ele>
  <time>2026-09-01T01:18:21Z</time>
  <course>0.0</course>
  <speed>0.0</speed>
  <fix>3d</fix>
</trkpt>
<trkpt lat="33.810313" lon="-118.393867">
  <ele>0.0</ele>
  <time>2026-09-01T01:18:21Z</time>
  <course>188.22</course>
  <speed>0.0</speed>
  <fix>3d</fix>
</trkpt>
<trkpt lat="33.810313" lon="-118.393867">
  <ele>-0.13</ele>
  <time>2026-09-01T01:18:21Z</time>
  <course>0.0</course>
  <speed>0.0</speed>
  <fix>3d</fix>
</trkpt>
<trkpt lat="33.810313" lon="-118.393867">
  <ele>0.0</ele>
  <time>2026-09-01T01:18:21Z</time>
  <course>188.25</course>
  <speed>0.0</speed>
  <fix>3d</fix>
</trkpt>
<trkpt lat="33.810313" lon="-118.393867">
  <ele>-0.13</ele>
  <time>2026-09-01T01:18:21Z</time>
  <course>0.0</course>
  <speed>0.0</speed>
  <fix>3d</fix>
</trkpt>
<trkpt lat="33.810313" lon="-118.393867">
  <ele>0.0</ele>
  <time>2026-09-01T01:18:21Z</time>
  <course>188.27</course>
  <speed>0.0</speed>
  <fix>3d</fix>
</trkpt>
<trkpt lat="33.810313" lon="-118.393867">
  <ele>-0.12</ele>
  <time>2026-09-01T01:18:21Z</time>
  <course>0.0</course>
  <speed>0.0</speed>
  <fix>3d</fix>
</trkpt>
<trkpt lat="33.810313" lon="-118.393867">
  <ele>0.0</ele>
  <time>2026-09-01T01:18:21Z</time>
  <course>188.3</course>
  <speed>0.0</speed>
  <fix>3d</fix>
</trkpt>
<trkpt lat="33.810313" lon="-118.393867">
  <ele>-0.12</ele>
  <time>2026-09-01T01:18:21Z</time>
  <course>0.0</course>
  <speed>0.0</speed>
  <fix>3d</fix>
</trkpt>
<trkpt lat="33.810313" lon="-118.393867">
  <ele>0.0</ele>
  <time>2026-09-01T01:18:21Z</time>
  <course>188.32</course>
  <speed>0.0</speed>
  <fix>3d</fix>
</trkpt>
<trkpt lat="33.810313" lon="-118.393867">
  <ele>-0.12</ele>
  <time>2026-09-01T01:18:21Z</time>
  <course>0.0</course>
  <speed>0.0</speed>
  <fix>3d</fix>
</trkpt>
<trkpt lat="33.810313" lon="-118.393867">
  <ele>0.0</ele>
  <time>2026-09-01T01:18:21Z</time>
  <course>188.34</course>
  <speed>0.0</speed>
  <fix>3d</fix>
</trkpt>
<trkpt lat="33.810313" lon="-118.393867">
  <ele>-0.12</ele>
  <time>2026-09-01T01:18:21Z</time>
  <course>0.0</course>
  <speed>0.0</speed>
  <fix>3d</fix>
</trkpt>
<trkpt lat="33.810313" lon="-118.393867">
  <ele>0.0</ele>
  <time>2026-09-01T01:18:21Z</time>
  <course>188.36</course>
  <speed>0.0</speed>
  <fix>3d</fix>
</trkpt>
<trkpt lat="33.810313" lon="-118.393867">
  <ele>-0.12</ele>
  <time>2026-09-01T01:18:21Z</time>
  <course>0.0</course>
  <speed>0.0</speed>
  <fix>3d</fix>
</trkpt>
<trkpt lat="33.810313" lon="-118.393867">
  <ele>0.0</ele>
  <time>2026-09-01T01:18:21Z</time>
  <course>188.38</course>
  <speed>0.0</speed>
  <fix>3d</fix>
</trkpt>
<trkpt lat="33.810313" lon="-118.393867">
  <ele>-0.12</ele>
  <time>2026-09-01T01:18:21Z</time>
  <course>0.0</course>
  <speed>0.0</speed>
  <fix>3d</fix>
</trkpt>
<trkpt lat="33.810313" lon="-118.393867">
  <ele>0.0</ele>
  <time>2026-09-01T01:18:21Z</time>
  <course>188.39</course>
  <speed>0.0</speed>
  <fix>3d</fix>
</trkpt>
<trkpt lat="33.810313" lon="-118.393867">
  <ele>-0.12</ele>
  <time>2026-09-01T01:18:21Z</time>
  <course>0.0</course>
  <speed>0.0</speed>
  <fix>3d</fix>
</trkpt>
<trkpt lat="33.810313" lon="-118.393867">
  <ele>0.0</ele>
  <time>2026-09-01T01:18:21Z</time>
  <course>188.41</course>
  <speed>0.0</speed>
  <fix>3d</fix>
</trkpt>
<trkpt lat="33.810313" lon="-118.393867">
  <ele>-0.12</ele>
  <time>2026-09-01T01:18:21Z</time>
  <course>0.0</course>
  <speed>0.0</speed>
  <fix>3d</fix>
</trkpt>
<trkpt lat="33.810313" lon="-118.393867">
  <ele>0.0</ele>
  <time>2026-09-01T01:18:21Z</time>
  <course>188.43</course>
  <speed>0.0</speed>
  <fix>3d</fix>
</trkpt>
<trkpt lat="33.810313" lon="-118.393867">
  <ele>-0.12</ele>
  <time>2026-09-01T01:18:21Z</time>
  <course>0.0</course>
  <speed>0.0</speed>
  <fix>3d</fix>
</trkpt>
<trkpt lat="33.810313" lon="-118.393867">
  <ele>0.0</ele>
  <time>2026-09-01T01:18:21Z</time>
  <course>188.44</course>
  <speed>0.0</speed>
  <fix>3d</fix>
</trkpt>
<trkpt lat="33.810313" lon="-118.393867">
  <ele>-0.12</ele>
  <time>2026-09-01T01:18:21Z</time>
  <course>0.0</course>
  <speed>0.0</speed>
  <fix>3d</fix>
</trkpt>
<trkpt lat="33.810313" lon="-118.393867">
  <ele>0.0</ele>
  <time>2026-09-01T01:18:21Z</time>
  <course>188.45</course>
  <speed>0.0</speed>
  <fix>3d</fix>
</trkpt>
<trkpt lat="33.810313" lon="-118.393867">
  <ele>-0.13</ele>
  <time>2026-09-01T01:18:21Z</time>
  <course>0.0</course>
  <speed>0.0</speed>
  <fix>3d</fix>
</trkpt>
<trkpt lat="33.810313" lon="-118.393867">
  <ele>0.0</ele>
  <time>2026-09-01T01:18:21Z</time>
  <course>188.46</course>
  <speed>0.0</speed>
  <fix>3d</fix>
</trkpt>
<trkpt lat="33.810313" lon="-118.393867">
  <ele>-0.13</ele>
  <time>2026-09-01T01:18:21Z</time>
  <course>0.0</course>
  <speed>0.0</speed>
  <fix>3d</fix>
</trkpt>
<trkpt lat="33.810313" lon="-118.393867">
  <ele>0.0</ele>
  <time>2026-09-01T01:18:21Z</time>
  <course>188.48</course>
  <speed>0.0</speed>
  <fix>3d</fix>
</trkpt>
<trkpt lat="33.810313" lon="-118.393867">
  <ele>-0.13</ele>
  <time>2026-09-01T01:18:21Z</time>
  <course>0.0</course>
  <speed>0.0</speed>
  <fix>3d</fix>
</trkpt>
<trkpt lat="33.810313" lon="-118.393867">
  <ele>0.0</ele>
  <time>2026-09-01T01:18:21Z</time>
  <course>188.49</course>
  <speed>0.0</speed>
  <fix>3d</fix>
</trkpt>
<trkpt lat="33.810313" lon="-118.393867">
  <ele>-0.13</ele>
  <time>2026-09-01T01:18:21Z</time>
  <course>0.0</course>
  <speed>0.0</speed>
  <fix>3d</fix>
</trkpt>
<trkpt lat="33.810313" lon="-118.393867">
  <ele>0.0</ele>
  <time>2026-09-01T01:18:21Z</time>
  <course>188.49</course>
  <speed>0.0</speed>
  <fix>3d</fix>
</trkpt>
<trkpt lat="33.810313" lon="-118.393867">
  <ele>-0.13</ele>
  <time>2026-09-01T01:18:21Z</time>
  <course>0.0</course>
  <speed>0.0</speed>
  <fix>3d</fix>
</trkpt>
<trkpt lat="33.810313" lon="-118.393867">
  <ele>0.0</ele>
  <time>2026-09-01T01:18:21Z</time>
  <course>188.5</course>
  <speed>0.0</speed>
  <fix>3d</fix>
</trkpt>
<trkpt lat="33.810313" lon="-118.393867">
  <ele>-0.13</ele>
  <time>2026-09-01T01:18:21Z</time>
  <course>0.0</course>
  <speed>0.0</speed>
  <fix>3d</fix>
</trkpt>
<trkpt lat="33.810313" lon="-118.393867">
  <ele>0.0</ele>
  <time>2026-09-01T01:18:21Z</time>
  <course>188.51</course>
  <speed>0.0</speed>
  <fix>3d</fix>
</trkpt>
<trkpt lat="33.810313" lon="-118.393867">
  <ele>-0.12</ele>
  <time>2026-09-01T01:18:21Z</time>
  <course>0.0</course>
  <speed>0.0</speed>
  <fix>3d</fix>
</trkpt>
<trkpt lat="33.810313" lon="-118.393867">
  <ele>0.0</ele>
  <time>2026-09-01T01:18:21Z</time>
  <course>188.52</course>
  <speed>0.0</speed>
  <fix>3d</fix>
</trkpt>
<trkpt lat="33.810313" lon="-118.393867">
  <ele>-0.12</ele>
  <time>2026-09-01T01:18:21Z</time>
  <course>0.0</course>
  <speed>0.0</speed>
  <fix>3d</fix>
</trkpt>
<trkpt lat="33.810313" lon="-118.393867">
  <ele>0.0</ele>
  <time>2026-09-01T01:18:21Z</time>
  <course>188.53</course>
  <speed>0.0</speed>
  <fix>3d</fix>
</trkpt>
<trkpt lat="33.810313" lon="-118.393867">
  <ele>-0.12</ele>
  <time>2026-09-01T01:18:21Z</time>
  <course>0.0</course>
  <speed>0.0</speed>
  <fix>3d</fix>
</trkpt>
<trkpt lat="33.810313" lon="-118.393867">
  <ele>0.0</ele>
  <time>2026-09-01T01:18:21Z</time>
  <course>188.53</course>
  <speed>0.0</speed>
  <fix>3d</fix>
</trkpt>
<trkpt lat="33.810313" lon="-118.393867">
  <ele>-0.12</ele>
  <time>2026-09-01T01:18:21Z</time>
  <course>0.0</course>
  <speed>0.0</speed>
  <fix>3d</fix>
</trkpt>
<trkpt lat="33.810313" lon="-118.393867">
  <ele>0.0</ele>
  <time>2026-09-01T01:18:21Z</time>
  <course>188.54</course>
  <speed>0.0</speed>
  <fix>3d</fix>
</trkpt>
<trkpt lat="33.810313" lon="-118.393867">
  <ele>-0.12</ele>
  <time>2026-09-01T01:18:21Z</time>
  <course>0.0</course>
  <speed>0.0</speed>
  <fix>3d</fix>
</trkpt>
<trkpt lat="33.810313" lon="-118.393867">
  <ele>0.0</ele>
  <time>2026-09-01T01:18:21Z</time>
  <course>188.54</course>
  <speed>0.0</speed>
  <fix>3d</fix>
</trkpt>
<trkpt lat="33.810313" lon="-118.393867">
  <ele>-0.12</ele>
  <time>2026-09-01T01:18:21Z</time>
  <course>0.0</course>
  <speed>0.0</speed>
  <fix>3d</fix>
</trkpt>
<trkpt lat="33.810313" lon="-118.393867">
  <ele>0.0</ele>
  <time>2026-09-01T01:18:21Z</time>
  <course>188.54</course>
  <speed>0.0</speed>
  <fix>3d</fix>
</trkpt>
<trkpt lat="33.810313" lon="-118.393867">
  <ele>-0.12</ele>
  <time>2026-09-01T01:18:21Z</time>
  <course>0.0</course>
  <speed>0.0</speed>
  <fix>3d</fix>
</trkpt>
<trkpt lat="33.810313" lon="-118.393867">
  <ele>0.0</ele>
  <time>2026-09-01T01:18:21Z</time>
  <course>188.55</course>
  <speed>0.0</speed>
  <fix>3d</fix>
</trkpt>
<trkpt lat="33.810313" lon="-118.393867">
  <ele>-0.12</ele>
  <time>2026-09-01T01:18:21Z</time>
  <course>0.0</course>
  <speed>0.0</speed>
  <fix>3d</fix>
</trkpt>
<trkpt lat="33.810313" lon="-118.393867">
  <ele>0.0</ele>
  <time>2026-09-01T01:18:21Z</time>
  <course>188.55</course>
  <speed>0.0</speed>
  <fix>3d</fix>
</trkpt>
<trkpt lat="33.810313" lon="-118.393867">
  <ele>-0.12</ele>
  <time>2026-09-01T01:18:21Z</time>
  <course>0.0</course>
  <speed>0.0</speed>
  <fix>3d</fix>
</trkpt>
<trkpt lat="33.810313" lon="-118.393867">
  <ele>0.0</ele>
  <time>2026-09-01T01:18:21Z</time>
  <course>188.55</course>
  <speed>0.0</speed>
  <fix>3d</fix>
</trkpt>
<trkpt lat="33.810313" lon="-118.393867">
  <ele>-0.12</ele>
  <time>2026-09-01T01:18:21Z</time>
  <course>0.0</course>
  <speed>0.0</speed>
  <fix>3d</fix>
</trkpt>
<trkpt lat="33.810313" lon="-118.393867">
  <ele>-0.126</ele>
  <time>2026-09-01T01:18:21Z</time>
  <course>188.55</course>
  <speed>0.0</speed>
  <fix>3d</fix>
</trkpt>
<trkpt lat="33.810313" lon="-118.393867">
  <ele>-0.13</ele>
  <time>2026-09-01T01:18:21Z</time>
  <course>0.0</course>
  <speed>0.0</speed>
  <fix>3d</fix>
</trkpt>
<trkpt lat="33.810313" lon="-118.393867">
  <ele>-0.126</ele>
  <time>2026-09-01T01:18:22Z</time>
  <course>188.56</course>
  <speed>0.0</speed>
  <fix>3d</fix>
</trkpt>
<trkpt lat="33.810313" lon="-118.393867">
  <ele>-0.13</ele>
  <time>2026-09-01T01:18:22Z</time>
  <course>0.0</course>
  <speed>0.0</speed>
  <fix>3d</fix>
</trkpt>
<trkpt lat="33.810313" lon="-118.393867">
  <ele>-0.124</ele>
  <time>2026-09-01T01:18:22Z</time>
  <course>188.56</course>
  <speed>0.0</speed>
  <fix>3d</fix>
</trkpt>
<trkpt lat="33.810313" lon="-118.393867">
  <ele>-0.13</ele>
  <time>2026-09-01T01:18:22Z</time>
  <course>0.0</course>
  <speed>0.0</speed>
  <fix>3d</fix>
</trkpt>
<trkpt lat="33.810313" lon="-118.393867">
  <ele>-0.123</ele>
  <time>2026-09-01T01:18:22Z</time>
  <course>188.56</course>
  <speed>0.0</speed>
  <fix>3d</fix>
</trkpt>
<trkpt lat="33.810313" lon="-118.393867">
  <ele>-0.13</ele>
  <time>2026-09-01T01:18:22Z</time>
  <course>0.0</course>
  <speed>0.0</speed>
  <fix>3d</fix>
</trkpt>
<trkpt lat="33.810313" lon="-118.393867">
  <ele>-0.121</ele>
  <time>2026-09-01T01:18:22Z</time>
  <course>188.56</course>
  <speed>0.0</speed>
  <fix>3d</fix>
</trkpt>
<trkpt lat="33.810313" lon="-118.393867">
  <ele>-0.12</ele>
  <time>2026-09-01T01:18:22Z</time>
  <course>0.0</course>
  <speed>0.0</speed>
  <fix>3d</fix>
</trkpt>
<trkpt lat="33.810313" lon="-118.393867">
  <ele>-0.12</ele>
  <time>2026-09-01T01:18:22Z</time>
  <course>188.56</course>
  <speed>0.0</speed>
  <fix>3d</fix>
</trkpt>
<trkpt lat="33.810313" lon="-118.393867">
  <ele>-0.12</ele>
  <time>2026-09-01T01:18:22Z</time>
  <course>0.0</course>
  <speed>0.0</speed>
  <fix>3d</fix>
</trkpt>
<trkpt lat="33.810313" lon="-118.393867">
  <ele>-0.119</ele>
  <time>2026-09-01T01:18:22Z</time>
  <course>188.56</course>
  <speed>0.0</speed>
  <fix>3d</fix>
</trkpt>
<trkpt lat="33.810313" lon="-118.393867">
  <ele>-0.12</ele>
  <time>2026-09-01T01:18:22Z</time>
  <course>0.0</course>
  <speed>0.0</speed>
  <fix>3d</fix>
</trkpt>
<trkpt lat="33.810313" lon="-118.393867">
  <ele>-0.12</ele>
  <time>2026-09-01T01:18:22Z</time>
  <course>188.56</course>
  <speed>0.0</speed>
  <fix>3d</fix>
</trkpt>
<trkpt lat="33.810313" lon="-118.393867">
  <ele>-0.12</ele>
  <time>2026-09-01T01:18:22Z</time>
  <course>0.0</course>
  <speed>0.0</speed>
  <fix>3d</fix>
</trkpt>
<trkpt lat="33.810313" lon="-118.393867">
  <ele>-0.124</ele>
  <time>2026-09-01T01:18:22Z</time>
  <course>188.55</course>
  <speed>0.0</speed>
  <fix>3d</fix>
</trkpt>
<trkpt lat="33.810313" lon="-118.393867">
  <ele>-0.12</ele>
  <time>2026-09-01T01:18:22Z</time>
  <course>0.0</course>
  <speed>0.0</speed>
  <fix>3d</fix>
</trkpt>
<trkpt lat="33.810313" lon="-118.393867">
  <ele>-0.127</ele>
  <time>2026-09-01T01:18:22Z</time>
  <course>188.55</course>
  <speed>0.0</speed>
  <fix>3d</fix>
</trkpt>
<trkpt lat="33.810313" lon="-118.393867">
  <ele>-0.12</ele>
  <time>2026-09-01T01:18:22Z</time>
  <course>0.0</course>
  <speed>0.0</speed>
  <fix>3d</fix>
</trkpt>
<trkpt lat="33.810313" lon="-118.393867">
  <ele>-0.13</ele>
  <time>2026-09-01T01:18:22Z</time>
  <course>188.55</course>
  <speed>0.0</speed>
  <fix>3d</fix>
</trkpt>
<trkpt lat="33.810313" lon="-118.393867">
  <ele>-0.12</ele>
  <time>2026-09-01T01:18:22Z</time>
  <course>0.0</course>
  <speed>0.0</speed>
  <fix>3d</fix>
</trkpt>
<trkpt lat="33.810313" lon="-118.393867">
  <ele>-0.132</ele>
  <time>2026-09-01T01:18:22Z</time>
  <course>188.55</course>
  <speed>0.0</speed>
  <fix>3d</fix>
</trkpt>
<trkpt lat="33.810313" lon="-118.393867">
  <ele>-0.12</ele>
  <time>2026-09-01T01:18:22Z</time>
  <course>0.0</course>
  <speed>0.0</speed>
  <fix>3d</fix>
</trkpt>
<trkpt lat="33.810313" lon="-118.393867">
  <ele>-0.132</ele>
  <time>2026-09-01T01:18:22Z</time>
  <course>188.55</course>
  <speed>0.0</speed>
  <fix>3d</fix>
</trkpt>
<trkpt lat="33.810313" lon="-118.393867">
  <ele>-0.12</ele>
  <time>2026-09-01T01:18:22Z</time>
  <course>0.0</course>
  <speed>0.0</speed>
  <fix>3d</fix>
</trkpt>
<trkpt lat="33.810313" lon="-118.393867">
  <ele>-0.132</ele>
  <time>2026-09-01T01:18:22Z</time>
  <course>188.55</course>
  <speed>0.0</speed>
  <fix>3d</fix>
</trkpt>
<trkpt lat="33.810313" lon="-118.393867">
  <ele>-0.12</ele>
  <time>2026-09-01T01:18:22Z</time>
  <course>0.0</course>
  <speed>0.0</speed>
  <fix>3d</fix>
</trkpt>
<trkpt lat="33.810313" lon="-118.393867">
  <ele>-0.132</ele>
  <time>2026-09-01T01:18:22Z</time>
  <course>188.55</course>
  <speed>0.0</speed>
  <fix>3d</fix>
</trkpt>
<trkpt lat="33.810313" lon="-118.393867">
  <ele>-0.12</ele>
  <time>2026-09-01T01:18:22Z</time>
  <course>0.0</course>
  <speed>0.0</speed>
  <fix>3d</fix>
</trkpt>
<trkpt lat="33.810313" lon="-118.393867">
  <ele>-0.131</ele>
  <time>2026-09-01T01:18:22Z</time>
  <course>188.55</course>
  <speed>0.0</speed>
  <fix>3d</fix>
</trkpt>
<trkpt lat="33.810313" lon="-118.393867">
  <ele>-0.12</ele>
  <time>2026-09-01T01:18:22Z</time>
  <course>0.0</course>
  <speed>0.0</speed>
  <fix>3d</fix>
</trkpt>
<trkpt lat="33.810313" lon="-118.393867">
  <ele>-0.129</ele>
  <time>2026-09-01T01:18:22Z</time>
  <course>188.54</course>
  <speed>0.0</speed>
  <fix>3d</fix>
</trkpt>
<trkpt lat="33.810313" lon="-118.393867">
  <ele>-0.13</ele>
  <time>2026-09-01T01:18:22Z</time>
  <course>0.0</course>
  <speed>0.0</speed>
  <fix>3d</fix>
</trkpt>
<trkpt lat="33.810313" lon="-118.393867">
  <ele>-0.128</ele>
  <time>2026-09-01T01:18:22Z</time>
  <course>188.54</course>
  <speed>0.0</speed>
  <fix>3d</fix>
</trkpt>
<trkpt lat="33.810313" lon="-118.393867">
  <ele>-0.13</ele>
  <time>2026-09-01T01:18:22Z</time>
  <course>0.0</course>
  <speed>0.0</speed>
  <fix>3d</fix>
</trkpt>
<trkpt lat="33.810313" lon="-118.393867">
  <ele>-0.125</ele>
  <time>2026-09-01T01:18:22Z</time>
  <course>188.53</course>
  <speed>0.0</speed>
  <fix>3d</fix>
</trkpt>
<trkpt lat="33.810313" lon="-118.393867">
  <ele>-0.12</ele>
  <time>2026-09-01T01:18:22Z</time>
  <course>0.0</course>
  <speed>0.0</speed>
  <fix>3d</fix>
</trkpt>
<trkpt lat="33.810313" lon="-118.393867">
  <ele>-0.123</ele>
  <time>2026-09-01T01:18:22Z</time>
  <course>188.53</course>
  <speed>0.0</speed>
  <fix>3d</fix>
</trkpt>
<trkpt lat="33.810313" lon="-118.393867">
  <ele>-0.12</ele>
  <time>2026-09-01T01:18:22Z</time>
  <course>0.0</course>
  <speed>0.0</speed>
  <fix>3d</fix>
</trkpt>
<trkpt lat="33.810313" lon="-118.393867">
  <ele>-0.121</ele>
  <time>2026-09-01T01:18:22Z</time>
  <course>188.52</course>
  <speed>0.0</speed>
  <fix>3d</fix>
</trkpt>
<trkpt lat="33.810313" lon="-118.393867">
  <ele>-0.12</ele>
  <time>2026-09-01T01:18:22Z</time>
  <course>0.0</course>
  <speed>0.0</speed>
  <fix>3d</fix>
</trkpt>
<trkpt lat="33.810313" lon="-118.393867">
  <ele>-0.121</ele>
  <time>2026-09-01T01:18:22Z</time>
  <course>188.52</course>
  <speed>0.0</speed>
  <fix>3d</fix>
</trkpt>
<trkpt lat="33.810313" lon="-118.393867">
  <ele>-0.12</ele>
  <time>2026-09-01T01:18:22Z</time>
  <course>0.0</course>
  <speed>0.0</speed>
  <fix>3d</fix>
</trkpt>
<trkpt lat="33.810313" lon="-118.393867">
  <ele>-0.122</ele>
  <time>2026-09-01T01:18:22Z</time>
  <course>188.51</course>
  <speed>0.0</speed>
  <fix>3d</fix>
</trkpt>
<trkpt lat="33.810313" lon="-118.393867">
  <ele>-0.12</ele>
  <time>2026-09-01T01:18:22Z</time>
  <course>0.0</course>
  <speed>0.0</speed>
  <fix>3d</fix>
</trkpt>
<trkpt lat="33.810313" lon="-118.393867">
  <ele>-0.123</ele>
  <time>2026-09-01T01:18:22Z</time>
  <course>188.51</course>
  <speed>0.0</speed>
  <fix>3d</fix>
</trkpt>
<trkpt lat="33.810313" lon="-118.393867">
  <ele>-0.12</ele>
  <time>2026-09-01T01:18:22Z</time>
  <course>0.0</course>
  <speed>0.0</speed>
  <fix>3d</fix>
</trkpt>
<trkpt lat="33.810313" lon="-118.393867">
  <ele>-0.126</ele>
  <time>2026-09-01T01:18:22Z</time>
  <course>188.5</course>
  <speed>0.0</speed>
  <fix>3d</fix>
</trkpt>
<trkpt lat="33.810313" lon="-118.393867">
  <ele>-0.12</ele>
  <time>2026-09-01T01:18:22Z</time>
  <course>0.0</course>
  <speed>0.0</speed>
  <fix>3d</fix>
</trkpt>
<trkpt lat="33.810313" lon="-118.393867">
  <ele>-0.127</ele>
  <time>2026-09-01T01:18:22Z</time>
  <course>188.5</course>
  <speed>0.0</speed>
  <fix>3d</fix>
</trkpt>
<trkpt lat="33.810313" lon="-118.393867">
  <ele>-0.12</ele>
  <time>2026-09-01T01:18:22Z</time>
  <course>0.0</course>
  <speed>0.0</speed>
  <fix>3d</fix>
</trkpt>
<trkpt lat="33.810313" lon="-118.393867">
  <ele>-0.128</ele>
  <time>2026-09-01T01:18:22Z</time>
  <course>188.49</course>
  <speed>0.0</speed>
  <fix>3d</fix>
</trkpt>
<trkpt lat="33.810313" lon="-118.393867">
  <ele>-0.12</ele>
  <time>2026-09-01T01:18:22Z</time>
  <course>0.0</course>
  <speed>0.0</speed>
  <fix>3d</fix>
</trkpt>
<trkpt lat="33.810313" lon="-118.393867">
  <ele>-0.127</ele>
  <time>2026-09-01T01:18:22Z</time>
  <course>188.48</course>
  <speed>0.0</speed>
  <fix>3d</fix>
</trkpt>
<trkpt lat="33.810313" lon="-118.393867">
  <ele>-0.12</ele>
  <time>2026-09-01T01:18:22Z</time>
  <course>0.0</course>
  <speed>0.0</speed>
  <fix>3d</fix>
</trkpt>
<trkpt lat="33.810313" lon="-118.393867">
  <ele>-0.127</ele>
  <time>2026-09-01T01:18:22Z</time>
  <course>188.48</course>
  <speed>0.0</speed>
  <fix>3d</fix>
</trkpt>
<trkpt lat="33.810313" lon="-118.393867">
  <ele>-0.12</ele>
  <time>2026-09-01T01:18:22Z</time>
  <course>0.0</course>
  <speed>0.0</speed>
  <fix>3d</fix>
</trkpt>
<trkpt lat="33.810313" lon="-118.393867">
  <ele>-0.127</ele>
  <time>2026-09-01T01:18:22Z</time>
  <course>188.47</course>
  <speed>0.01</speed>
  <fix>3d</fix>
</trkpt>
<trkpt lat="33.810313" lon="-118.393867">
  <ele>-0.12</ele>
  <time>2026-09-01T01:18:22Z</time>
  <course>0.0</course>
  <speed>0.0</speed>
  <fix>3d</fix>
</trkpt>
<trkpt lat="33.810313" lon="-118.393867">
  <ele>-0.127</ele>
  <time>2026-09-01T01:18:22Z</time>
  <course>188.47</course>
  <speed>0.01</speed>
  <fix>3d</fix>
</trkpt>
<trkpt lat="33.810313" lon="-118.393867">
  <ele>-0.12</ele>
  <time>2026-09-01T01:18:22Z</time>
  <course>0.0</course>
  <speed>0.0</speed>
  <fix>3d</fix>
</trkpt>
<trkpt lat="33.810313" lon="-118.393867">
  <ele>-0.126</ele>
  <time>2026-09-01T01:18:22Z</time>
  <course>188.46</course>
  <speed>0.01</speed>
  <fix>3d</fix>
</trkpt>
<trkpt lat="33.810313" lon="-118.393867">
  <ele>-0.12</ele>
  <time>2026-09-01T01:18:22Z</time>
  <course>0.0</course>
  <speed>0.0</speed>
  <fix>3d</fix>
</trkpt>
<trkpt lat="33.810313" lon="-118.393867">
  <ele>-0.126</ele>
  <time>2026-09-01T01:18:22Z</time>
  <course>188.45</course>
  <speed>0.01</speed>
  <fix>3d</fix>
</trkpt>
<trkpt lat="33.810313" lon="-118.393867">
  <ele>-0.12</ele>
  <time>2026-09-01T01:18:22Z</time>
  <course>0.0</course>
  <speed>0.0</speed>
  <fix>3d</fix>
</trkpt>
<trkpt lat="33.810313" lon="-118.393867">
  <ele>-0.126</ele>
  <time>2026-09-01T01:18:22Z</time>
  <course>188.45</course>
  <speed>0.01</speed>
  <fix>3d</fix>
</trkpt>
<trkpt lat="33.810313" lon="-118.393867">
  <ele>-0.12</ele>
  <time>2026-09-01T01:18:22Z</time>
  <course>0.0</course>
  <speed>0.0</speed>
  <fix>3d</fix>
</trkpt>
<trkpt lat="33.810313" lon="-118.393867">
  <ele>-0.125</ele>
  <time>2026-09-01T01:18:22Z</time>
  <course>188.44</course>
  <speed>0.01</speed>
  <fix>3d</fix>
</trkpt>
<trkpt lat="33.810313" lon="-118.393867">
  <ele>-0.12</ele>
  <time>2026-09-01T01:18:22Z</time>
  <course>0.0</course>
  <speed>0.0</speed>
  <fix>3d</fix>
</trkpt>
<trkpt lat="33.810313" lon="-118.393867">
  <ele>-0.126</ele>
  <time>2026-09-01T01:18:22Z</time>
  <course>188.43</course>
  <speed>0.01</speed>
  <fix>3d</fix>
</trkpt>
<trkpt lat="33.810313" lon="-118.393867">
  <ele>-0.12</ele>
  <time>2026-09-01T01:18:22Z</time>
  <course>0.0</course>
  <speed>0.0</speed>
  <fix>3d</fix>
</trkpt>
<trkpt lat="33.810313" lon="-118.393867">
  <ele>-0.127</ele>
  <time>2026-09-01T01:18:22Z</time>
  <course>188.42</course>
  <speed>0.01</speed>
  <fix>3d</fix>
</trkpt>
<trkpt lat="33.810313" lon="-118.393867">
  <ele>-0.12</ele>
  <time>2026-09-01T01:18:22Z</time>
  <course>0.0</course>
  <speed>0.0</speed>
  <fix>3d</fix>
</trkpt>
<trkpt lat="33.810313" lon="-118.393867">
  <ele>-0.128</ele>
  <time>2026-09-01T01:18:22Z</time>
  <course>188.42</course>
  <speed>0.01</speed>
  <fix>3d</fix>
</trkpt>
<trkpt lat="33.810313" lon="-118.393867">
  <ele>-0.12</ele>
  <time>2026-09-01T01:18:22Z</time>
  <course>0.0</course>
  <speed>0.0</speed>
  <fix>3d</fix>
</trkpt>
<trkpt lat="33.810313" lon="-118.393867">
  <ele>-0.129</ele>
  <time>2026-09-01T01:18:22Z</time>
  <course>188.41</course>
  <speed>0.01</speed>
  <fix>3d</fix>
</trkpt>
<trkpt lat="33.810313" lon="-118.393867">
  <ele>-0.12</ele>
  <time>2026-09-01T01:18:22Z</time>
  <course>0.0</course>
  <speed>0.0</speed>
  <fix>3d</fix>
</trkpt>
<trkpt lat="33.810313" lon="-118.393867">
  <ele>-0.129</ele>
  <time>2026-09-01T01:18:22Z</time>
  <course>188.4</course>
  <speed>0.01</speed>
  <fix>3d</fix>
</trkpt>
<trkpt lat="33.810313" lon="-118.393867">
  <ele>-0.12</ele>
  <time>2026-09-01T01:18:22Z</time>
  <course>0.0</course>
  <speed>0.0</speed>
  <fix>3d</fix>
</trkpt>
<trkpt lat="33.810313" lon="-118.393867">
  <ele>-0.13</ele>
  <time>2026-09-01T01:18:22Z</time>
  <course>188.4</course>
  <speed>0.01414213562373095</speed>
  <fix>3d</fix>
</trkpt>
<trkpt lat="33.810313" lon="-118.393867">
  <ele>-0.12</ele>
  <time>2026-09-01T01:18:22Z</time>
  <course>0.0</course>
  <speed>0.0</speed>
  <fix>3d</fix>
</trkpt>
<trkpt lat="33.810313" lon="-118.393867">
  <ele>-0.13</ele>
  <time>2026-09-01T01:18:22Z</time>
  <course>188.39</course>
  <speed>0.01414213562373095</speed>
  <fix>3d</fix>
</trkpt>
<trkpt lat="33.810313" lon="-118.393867">
  <ele>-0.12</ele>
  <time>2026-09-01T01:18:22Z</time>
  <course>0.0</course>
  <speed>0.0</speed>
  <fix>3d</fix>
</trkpt>
<trkpt lat="33.810313" lon="-118.393867">
  <ele>-0.13</ele>
  <time>2026-09-01T01:18:22Z</time>
  <course>188.38</course>
  <speed>0.01414213562373095</speed>
  <fix>3d</fix>
</trkpt>
<trkpt lat="33.810313" lon="-118.393867">
  <ele>-0.12</ele>
  <time>2026-09-01T01:18:22Z</time>
  <course>0.0</course>
  <speed>0.0</speed>
  <fix>3d</fix>
</trkpt>
<trkpt lat="33.810313" lon="-118.393867">
  <ele>-0.129</ele>
  <time>2026-09-01T01:18:22Z</time>
  <course>188.37</course>
  <speed>0.01414213562373095</speed>
  <fix>3d</fix>
</trkpt>
<trkpt lat="33.810313" lon="-118.393867">
  <ele>-0.12</ele>
  <time>2026-09-01T01:18:22Z</time>
  <course>0.0</course>
  <speed>0.0</speed>
  <fix>3d</fix>
</trkpt>
<trkpt lat="33.810313" lon="-118.393867">
  <ele>-0.128</ele>
  <time>2026-09-01T01:18:22Z</time>
  <course>188.37</course>
  <speed>0.01414213562373095</speed>
  <fix>3d</fix>
</trkpt>
<trkpt lat="33.810313" lon="-118.393867">
  <ele>-0.12</ele>
  <time>2026-09-01T01:18:22Z</time>
  <course>0.0</course>
  <speed>0.0</speed>
  <fix>3d</fix>
</trkpt>
<trkpt lat="33.810313" lon="-118.393867">
  <ele>-0.126</ele>
  <time>2026-09-01T01:18:22Z</time>
  <course>188.36</course>
  <speed>0.01414213562373095</speed>
  <fix>3d</fix>
</trkpt>
<trkpt lat="33.810313" lon="-118.393867">
  <ele>-0.12</ele>
  <time>2026-09-01T01:18:22Z</time>
  <course>0.0</course>
  <speed>0.0</speed>
  <fix>3d</fix>
</trkpt>
<trkpt lat="33.810313" lon="-118.393867">
  <ele>-0.124</ele>
  <time>2026-09-01T01:18:22Z</time>
  <course>188.35</course>
  <speed>0.01414213562373095</speed>
  <fix>3d</fix>
</trkpt>
<trkpt lat="33.810313" lon="-118.393867">
  <ele>-0.12</ele>
  <time>2026-09-01T01:18:22Z</time>
  <course>0.0</course>
  <speed>0.0</speed>
  <fix>3d</fix>
</trkpt>
<trkpt lat="33.810313" lon="-118.393867">
  <ele>-0.122</ele>
  <time>2026-09-01T01:18:22Z</time>
  <course>188.34</course>
  <speed>0.01414213562373095</speed>
  <fix>3d</fix>
</trkpt>
<trkpt lat="33.810313" lon="-118.393867">
  <ele>-0.12</ele>
  <time>2026-09-01T01:18:22Z</time>
  <course>0.0</course>
  <speed>0.0</speed>
  <fix>3d</fix>
</trkpt>
<trkpt lat="33.810313" lon="-118.393867">
  <ele>-0.123</ele>
  <time>2026-09-01T01:18:22Z</time>
  <course>188.33</course>
  <speed>0.01414213562373095</speed>
  <fix>3d</fix>
</trkpt>
<trkpt lat="33.810313" lon="-118.393867">
  <ele>-0.12</ele>
  <time>2026-09-01T01:18:22Z</time>
  <course>0.0</course>
  <speed>0.0</speed>
  <fix>3d</fix>
</trkpt>
<trkpt lat="33.810313" lon="-118.393867">
  <ele>-0.125</ele>
  <time>2026-09-01T01:18:22Z</time>
  <course>188.33</course>
  <speed>0.01414213562373095</speed>
  <fix>3d</fix>
</trkpt>
<trkpt lat="33.810313" lon="-118.393867">
  <ele>-0.12</ele>
  <time>2026-09-01T01:18:22Z</time>
  <course>0.0</course>
  <speed>0.0</speed>
  <fix>3d</fix>
</trkpt>
<trkpt lat="33.810313" lon="-118.393867">
  <ele>-0.128</ele>
  <time>2026-09-01T01:18:22Z</time>
  <course>188.32</course>
  <speed>0.01414213562373095</speed>
  <fix>3d</fix>
</trkpt>
<trkpt lat="33.810313" lon="-118.393867">
  <ele>-0.12</ele>
  <time>2026-09-01T01:18:22Z</time>
  <course>0.0</course>
  <speed>0.0</speed>
  <fix>3d</fix>
</trkpt>
<trkpt lat="33.810313" lon="-118.393867">
  <ele>-0.132</ele>
  <time>2026-09-01T01:18:22Z</time>
  <course>188.31</course>
  <speed>0.01414213562373095</speed>
  <fix>3d</fix>
</trkpt>
<trkpt lat="33.810313" lon="-118.393867">
  <ele>-0.12</ele>
  <time>2026-09-01T01:18:22Z</time>
  <course>0.0</course>
  <speed>0.0</speed>
  <fix>3d</fix>
</trkpt>
<trkpt lat="33.810313" lon="-118.393867">
  <ele>-0.135</ele>
  <time>2026-09-01T01:18:22Z</time>
  <course>188.3</course>
  <speed>0.01414213562373095</speed>
  <fix>3d</fix>
</trkpt>
<trkpt lat="33.810313" lon="-118.393867">
  <ele>-0.12</ele>
  <time>2026-09-01T01:18:22Z</time>
  <course>0.0</course>
  <speed>0.0</speed>
  <fix>3d</fix>
</trkpt>
<trkpt lat="33.810313" lon="-118.393867">
  <ele>-0.135</ele>
  <time>2026-09-01T01:18:22Z</time>
  <course>188.3</course>
  <speed>0.01414213562373095</speed>
  <fix>3d</fix>
</trkpt>
<trkpt lat="33.810313" lon="-118.393867">
  <ele>-0.12</ele>
  <time>2026-09-01T01:18:22Z</time>
  <course>0.0</course>
  <speed>0.0</speed>
  <fix>3d</fix>
</trkpt>
<trkpt lat="33.810313" lon="-118.393867">
  <ele>-0.134</ele>
  <time>2026-09-01T01:18:22Z</time>
  <course>188.29</course>
  <speed>0.01414213562373095</speed>
  <fix>3d</fix>
</trkpt>
<trkpt lat="33.810313" lon="-118.393867">
  <ele>-0.12</ele>
  <time>2026-09-01T01:18:22Z</time>
  <course>0.0</course>
  <speed>0.0</speed>
  <fix>3d</fix>
</trkpt>
<trkpt lat="33.810313" lon="-118.393867">
  <ele>-0.132</ele>
  <time>2026-09-01T01:18:22Z</time>
  <course>188.28</course>
  <speed>0.01414213562373095</speed>
  <fix>3d</fix>
</trkpt>
<trkpt lat="33.810313" lon="-118.393867">
  <ele>-0.12</ele>
  <time>2026-09-01T01:18:22Z</time>
  <course>0.0</course>
  <speed>0.0</speed>
  <fix>3d</fix>
</trkpt>
<trkpt lat="33.810313" lon="-118.393867">
  <ele>-0.129</ele>
  <time>2026-09-01T01:18:22Z</time>
  <course>188.27</course>
  <speed>0.01414213562373095</speed>
  <fix>3d</fix>
</trkpt>
<trkpt lat="33.810313" lon="-118.393867">
  <ele>-0.12</ele>
  <time>2026-09-01T01:18:22Z</time>
  <course>0.0</course>
  <speed>0.0</speed>
  <fix>3d</fix>
</trkpt>
<trkpt lat="33.810313" lon="-118.393867">
  <ele>-0.127</ele>
  <time>2026-09-01T01:18:22Z</time>
  <course>188.26</course>
  <speed>0.01414213562373095</speed>
  <fix>3d</fix>
</trkpt>
<trkpt lat="33.810313" lon="-118.393867">
  <ele>-0.12</ele>
  <time>2026-09-01T01:18:22Z</time>
  <course>0.0</course>
  <speed>0.0</speed>
  <fix>3d</fix>
</trkpt>
<trkpt lat="33.810313" lon="-118.393867">
  <ele>-0.124</ele>
  <time>2026-09-01T01:18:22Z</time>
  <course>188.25</course>
  <speed>0.01414213562373095</speed>
  <fix>3d</fix>
</trkpt>
<trkpt lat="33.810313" lon="-118.393867">
  <ele>-0.12</ele>
  <time>2026-09-01T01:18:22Z</time>
  <course>0.0</course>
  <speed>0.0</speed>
  <fix>3d</fix>
</trkpt>
<trkpt lat="33.810313" lon="-118.393867">
  <ele>-0.123</ele>
  <time>2026-09-01T01:18:22Z</time>
  <course>188.25</course>
  <speed>0.01414213562373095</speed>
  <fix>3d</fix>
</trkpt>
<trkpt lat="33.810313" lon="-118.393867">
  <ele>-0.12</ele>
  <time>2026-09-01T01:18:22Z</time>
  <course>0.0</course>
  <speed>0.0</speed>
  <fix>3d</fix>
</trkpt>
<trkpt lat="33.810313" lon="-118.393867">
  <ele>-0.124</ele>
  <time>2026-09-01T01:18:22Z</time>
  <course>188.24</course>
  <speed>0.01414213562373095</speed>
  <fix>3d</fix>
</trkpt>
<trkpt lat="33.810313" lon="-118.393867">
  <ele>-0.12</ele>
  <time>2026-09-01T01:18:22Z</time>
  <course>0.0</course>
  <speed>0.0</speed>
  <fix>3d</fix>
</trkpt>
<trkpt lat="33.810313" lon="-118.393867">
  <ele>-0.126</ele>
  <time>2026-09-01T01:18:22Z</time>
  <course>188.23</course>
  <speed>0.01414213562373095</speed>
  <fix>3d</fix>
</trkpt>
<trkpt lat="33.810313" lon="-118.393867">
  <ele>-0.12</ele>
  <time>2026-09-01T01:18:22Z</time>
  <course>0.0</course>
  <speed>0.0</speed>
  <fix>3d</fix>
</trkpt>
<trkpt lat="33.810313" lon="-118.393867">
  <ele>-0.127</ele>
  <time>2026-09-01T01:18:22Z</time>
  <course>188.22</course>
  <speed>0.01414213562373095</speed>
  <fix>3d</fix>
</trkpt>
<trkpt lat="33.810313" lon="-118.393867">
  <ele>-0.12</ele>
  <time>2026-09-01T01:18:22Z</time>
  <course>0.0</course>
  <speed>0.0</speed>
  <fix>3d</fix>
</trkpt>
<trkpt lat="33.810313" lon="-118.393867">
  <ele>-0.129</ele>
  <time>2026-09-01T01:18:22Z</time>
  <course>188.21</course>
  <speed>0.01414213562373095</speed>
  <fix>3d</fix>
</trkpt>
<trkpt lat="33.810313" lon="-118.393867">
  <ele>-0.12</ele>
  <time>2026-09-01T01:18:22Z</time>
  <course>0.0</course>
  <speed>0.0</speed>
  <fix>3d</fix>
</trkpt>
<trkpt lat="33.810313" lon="-118.393867">
  <ele>-0.129</ele>
  <time>2026-09-01T01:18:22Z</time>
  <course>188.21</course>
  <speed>0.01414213562373095</speed>
  <fix>3d</fix>
</trkpt>
<trkpt lat="33.810313" lon="-118.393867">
  <ele>-0.12</ele>
  <time>2026-09-01T01:18:22Z</time>
  <course>0.0</course>
  <speed>0.0</speed>
  <fix>3d</fix>
</trkpt>
<trkpt lat="33.810313" lon="-118.393867">
  <ele>-0.129</ele>
  <time>2026-09-01T01:18:22Z</time>
  <course>188.2</course>
  <speed>0.01414213562373095</speed>
  <fix>3d</fix>
</trkpt>
<trkpt lat="33.810313" lon="-118.393867">
  <ele>-0.12</ele>
  <time>2026-09-01T01:18:22Z</time>
  <course>0.0</course>
  <speed>0.0</speed>
  <fix>3d</fix>
</trkpt>
<trkpt lat="33.810313" lon="-118.393867">
  <ele>-0.128</ele>
  <time>2026-09-01T01:18:22Z</time>
  <course>188.19</course>
  <speed>0.01414213562373095</speed>
  <fix>3d</fix>
</trkpt>
<trkpt lat="33.810313" lon="-118.393867">
  <ele>-0.12</ele>
  <time>2026-09-01T01:18:22Z</time>
  <course>0.0</course>
  <speed>0.0</speed>
  <fix>3d</fix>
</trkpt>
<trkpt lat="33.810313" lon="-118.393867">
  <ele>-0.128</ele>
  <time>2026-09-01T01:18:22Z</time>
  <course>188.18</course>
  <speed>0.01414213562373095</speed>
  <fix>3d</fix>
</trkpt>
<trkpt lat="33.810313" lon="-118.393867">
  <ele>-0.12</ele>
  <time>2026-09-01T01:18:22Z</time>
  <course>0.0</course>
  <speed>0.0</speed>
  <fix>3d</fix>
</trkpt>
<trkpt lat="33.810313" lon="-118.393867">
  <ele>-0.127</ele>
  <time>2026-09-01T01:18:22Z</time>
  <course>188.17</course>
  <speed>0.01414213562373095</speed>
  <fix>3d</fix>
</trkpt>
<trkpt lat="33.810313" lon="-118.393867">
  <ele>-0.12</ele>
  <time>2026-09-01T01:18:22Z</time>
  <course>0.0</course>
  <speed>0.0</speed>
  <fix>3d</fix>
</trkpt>
<trkpt lat="33.810313" lon="-118.393867">
  <ele>-0.127</ele>
  <time>2026-09-01T01:18:22Z</time>
  <course>188.16</course>
  <speed>0.01414213562373095</speed>
  <fix>3d</fix>
</trkpt>
<trkpt lat="33.810313" lon="-118.393867">
  <ele>-0.12</ele>
  <time>2026-09-01T01:18:22Z</time>
  <course>0.0</course>
  <speed>0.0</speed>
  <fix>3d</fix>
</trkpt>
<trkpt lat="33.810313" lon="-118.393867">
  <ele>-0.128</ele>
  <time>2026-09-01T01:18:22Z</time>
  <course>188.16</course>
  <speed>0.01414213562373095</speed>
  <fix>3d</fix>
</trkpt>
<trkpt lat="33.810313" lon="-118.393867">
  <ele>-0.12</ele>
  <time>2026-09-01T01:18:22Z</time>
  <course>0.0</course>
  <speed>0.0</speed>
  <fix>3d</fix>
</trkpt>
<trkpt lat="33.810313" lon="-118.393867">
  <ele>-0.129</ele>
  <time>2026-09-01T01:18:22Z</time>
  <course>188.15</course>
  <speed>0.01414213562373095</speed>
  <fix>3d</fix>
</trkpt>
<trkpt lat="33.810313" lon="-118.393867">
  <ele>-0.12</ele>
  <time>2026-09-01T01:18:22Z</time>
  <course>0.0</course>
  <speed>0.0</speed>
  <fix>3d</fix>
</trkpt>
<trkpt lat="33.810313" lon="-118.393867">
  <ele>-0.131</ele>
  <time>2026-09-01T01:18:22Z</time>
  <course>188.14</course>
  <speed>0.01414213562373095</speed>
  <fix>3d</fix>
</trkpt>
<trkpt lat="33.810313" lon="-118.393867">
  <ele>-0.12</ele>
  <time>2026-09-01T01:18:22Z</time>
  <course>0.0</course>
  <speed>0.0</speed>
  <fix>3d</fix>
</trkpt>
<trkpt lat="33.810313" lon="-118.393867">
  <ele>-0.133</ele>
  <time>2026-09-01T01:18:22Z</time>
  <course>188.13</course>
  <speed>0.01414213562373095</speed>
  <fix>3d</fix>
</trkpt>
<trkpt lat="33.810313" lon="-118.393867">
  <ele>-0.12</ele>
  <time>2026-09-01T01:18:22Z</time>
  <course>0.0</course>
  <speed>0.0</speed>
  <fix>3d</fix>
</trkpt>
<trkpt lat="33.810313" lon="-118.393867">
  <ele>-0.135</ele>
  <time>2026-09-01T01:18:22Z</time>
  <course>188.12</course>
  <speed>0.01414213562373095</speed>
  <fix>3d</fix>
</trkpt>
<trkpt lat="33.810313" lon="-118.393867">
  <ele>-0.12</ele>
  <time>2026-09-01T01:18:22Z</time>
  <course>0.0</course>
  <speed>0.0</speed>
  <fix>3d</fix>
</trkpt>
<trkpt lat="33.810313" lon="-118.393867">
  <ele>-0.136</ele>
  <time>2026-09-01T01:18:22Z</time>
  <course>188.12</course>
  <speed>0.01414213562373095</speed>
  <fix>3d</fix>
</trkpt>
<trkpt lat="33.810313" lon="-118.393867">
  <ele>-0.12</ele>
  <time>2026-09-01T01:18:22Z</time>
  <course>0.0</course>
  <speed>0.0</speed>
  <fix>3d</fix>
</trkpt>
<trkpt lat="33.810313" lon="-118.393867">
  <ele>-0.136</ele>
  <time>2026-09-01T01:18:22Z</time>
  <course>188.11</course>
  <speed>0.01414213562373095</speed>
  <fix>3d</fix>
</trkpt>
<trkpt lat="33.810313" lon="-118.393867">
  <ele>-0.12</ele>
  <time>2026-09-01T01:18:22Z</time>
  <course>0.0</course>
  <speed>0.0</speed>
  <fix>3d</fix>
</trkpt>
<trkpt lat="33.810313" lon="-118.393867">
  <ele>-0.136</ele>
  <time>2026-09-01T01:18:22Z</time>
  <course>188.1</course>
  <speed>0.01414213562373095</speed>
  <fix>3d</fix>
</trkpt>
<trkpt lat="33.810313" lon="-118.393867">
  <ele>-0.12</ele>
  <time>2026-09-01T01:18:22Z</time>
  <course>0.0</course>
  <speed>0.0</speed>
  <fix>3d</fix>
</trkpt>
<trkpt lat="33.810313" lon="-118.393867">
  <ele>-0.135</ele>
  <time>2026-09-01T01:18:22Z</time>
  <course>188.09</course>
  <speed>0.01414213562373095</speed>
  <fix>3d</fix>
</trkpt>
<trkpt lat="33.810313" lon="-118.393867">
  <ele>-0.12</ele>
  <time>2026-09-01T01:18:22Z</time>
  <course>0.0</course>
  <speed>0.0</speed>
  <fix>3d</fix>
</trkpt>
<trkpt lat="33.810313" lon="-118.393867">
  <ele>-0.134</ele>
  <time>2026-09-01T01:18:22Z</time>
  <course>188.08</course>
  <speed>0.01414213562373095</speed>
  <fix>3d</fix>
</trkpt>
<trkpt lat="33.810313" lon="-118.393867">
  <ele>-0.12</ele>
  <time>2026-09-01T01:18:22Z</time>
  <course>0.0</course>
  <speed>0.0</speed>
  <fix>3d</fix>
</trkpt>
<trkpt lat="33.810313" lon="-118.393867">
  <ele>-0.131</ele>
  <time>2026-09-01T01:18:22Z</time>
  <course>188.07</course>
  <speed>0.022360679774997897</speed>
  <fix>3d</fix>
</trkpt>
<trkpt lat="33.810313" lon="-118.393867">
  <ele>-0.12</ele>
  <time>2026-09-01T01:18:22Z</time>
  <course>0.0</course>
  <speed>0.0</speed>
  <fix>3d</fix>
</trkpt>
<trkpt lat="33.810313" lon="-118.393867">
  <ele>-0.128</ele>
  <time>2026-09-01T01:18:22Z</time>
  <course>188.07</course>
  <speed>0.022360679774997897</speed>
  <fix>3d</fix>
</trkpt>
<trkpt lat="33.810313" lon="-118.393867">
  <ele>-0.12</ele>
  <time>2026-09-01T01:18:22Z</time>
  <course>0.0</course>
  <speed>0.0</speed>
  <fix>3d</fix>
</trkpt>
<trkpt lat="33.810313" lon="-118.393867">
  <ele>-0.126</ele>
  <time>2026-09-01T01:18:22Z</time>
  <course>188.06</course>
  <speed>0.022360679774997897</speed>
  <fix>3d</fix>
</trkpt>
<trkpt lat="33.810313" lon="-118.393867">
  <ele>-0.12</ele>
  <time>2026-09-01T01:18:22Z</time>
  <course>0.0</course>
  <speed>0.0</speed>
  <fix>3d</fix>
</trkpt>
<trkpt lat="33.810313" lon="-118.393867">
  <ele>-0.126</ele>
  <time>2026-09-01T01:18:22Z</time>
  <course>188.05</course>
  <speed>0.022360679774997897</speed>
  <fix>3d</fix>
</trkpt>
<trkpt lat="33.810313" lon="-118.393867">
  <ele>-0.12</ele>
  <time>2026-09-01T01:18:22Z</time>
  <course>0.0</course>
  <speed>0.0</speed>
  <fix>3d</fix>
</trkpt>
<trkpt lat="33.810313" lon="-118.393867">
  <ele>-0.126</ele>
  <time>2026-09-01T01:18:22Z</time>
  <course>188.04</course>
  <speed>0.022360679774997897</speed>
  <fix>3d</fix>
</trkpt>
<trkpt lat="33.810313" lon="-118.393867">
  <ele>-0.12</ele>
  <time>2026-09-01T01:18:22Z</time>
  <course>0.0</course>
  <speed>0.0</speed>
  <fix>3d</fix>
</trkpt>
<trkpt lat="33.810313" lon="-118.393867">
  <ele>-0.127</ele>
  <time>2026-09-01T01:18:22Z</time>
  <course>188.03</course>
  <speed>0.022360679774997897</speed>
  <fix>3d</fix>
</trkpt>
<trkpt lat="33.810313" lon="-118.393867">
  <ele>-0.12</ele>
  <time>2026-09-01T01:18:22Z</time>
  <course>0.0</course>
  <speed>0.0</speed>
  <fix>3d</fix>
</trkpt>
<trkpt lat="33.810313" lon="-118.393867">
  <ele>-0.127</ele>
  <time>2026-09-01T01:18:22Z</time>
  <course>188.03</course>
  <speed>0.022360679774997897</speed>
  <fix>3d</fix>
</trkpt>
<trkpt lat="33.810313" lon="-118.393867">
  <ele>-0.12</ele>
  <time>2026-09-01T01:18:22Z</time>
  <course>0.0</course>
  <speed>0.0</speed>
  <fix>3d</fix>
</trkpt>
<trkpt lat="33.810313" lon="-118.393867">
  <ele>-0.127</ele>
  <time>2026-09-01T01:18:22Z</time>
  <course>188.02</course>
  <speed>0.022360679774997897</speed>
  <fix>3d</fix>
</trkpt>
<trkpt lat="33.810313" lon="-118.393867">
  <ele>-0.12</ele>
  <time>2026-09-01T01:18:22Z</time>
  <course>0.0</course>
  <speed>0.0</speed>
  <fix>3d</fix>
</trkpt>
<trkpt lat="33.810313" lon="-118.393867">
  <ele>-0.128</ele>
  <time>2026-09-01T01:18:22Z</time>
  <course>188.01</course>
  <speed>0.022360679774997897</speed>
  <fix>3d</fix>
</trkpt>
<trkpt lat="33.810313" lon="-118.393867">
  <ele>-0.12</ele>
  <time>2026-09-01T01:18:22Z</time>
  <course>0.0</course>
  <speed>0.0</speed>
  <fix>3d</fix>
</trkpt>
<trkpt lat="33.810313" lon="-118.393867">
  <ele>-0.128</ele>
  <time>2026-09-01T01:18:22Z</time>
  <course>188.0</course>
  <speed>0.022360679774997897</speed>
  <fix>3d</fix>
</trkpt>
<trkpt lat="33.810313" lon="-118.393867">
  <ele>-0.12</ele>
  <time>2026-09-01T01:18:22Z</time>
  <course>0.0</course>
  <speed>0.0</speed>
  <fix>3d</fix>
</trkpt>
<trkpt lat="33.810313" lon="-118.393867">
  <ele>-0.127</ele>
  <time>2026-09-01T01:18:22Z</time>
  <course>187.99</course>
  <speed>0.022360679774997897</speed>
  <fix>3d</fix>
</trkpt>
<trkpt lat="33.810313" lon="-118.393867">
  <ele>-0.12</ele>
  <time>2026-09-01T01:18:22Z</time>
  <course>0.0</course>
  <speed>0.0</speed>
  <fix>3d</fix>
</trkpt>
<trkpt lat="33.810313" lon="-118.393867">
  <ele>-0.126</ele>
  <time>2026-09-01T01:18:22Z</time>
  <course>187.98</course>
  <speed>0.022360679774997897</speed>
  <fix>3d</fix>
</trkpt>
<trkpt lat="33.810313" lon="-118.393867">
  <ele>-0.12</ele>
  <time>2026-09-01T01:18:22Z</time>
  <course>0.0</course>
  <speed>0.0</speed>
  <fix>3d</fix>
</trkpt>
<trkpt lat="33.810313" lon="-118.393867">
  <ele>-0.123</ele>
  <time>2026-09-01T01:18:22Z</time>
  <course>187.98</course>
  <speed>0.022360679774997897</speed>
  <fix>3d</fix>
</trkpt>
<trkpt lat="33.810313" lon="-118.393867">
  <ele>-0.12</ele>
  <time>2026-09-01T01:18:22Z</time>
  <course>0.0</course>
  <speed>0.0</speed>
  <fix>3d</fix>
</trkpt>
<trkpt lat="33.810313" lon="-118.393867">
  <ele>-0.121</ele>
  <time>2026-09-01T01:18:22Z</time>
  <course>187.97</course>
  <speed>0.022360679774997897</speed>
  <fix>3d</fix>
</trkpt>
<trkpt lat="33.810313" lon="-118.393867">
  <ele>-0.12</ele>
  <time>2026-09-01T01:18:22Z</time>
  <course>0.0</course>
  <speed>0.0</speed>
  <fix>3d</fix>
</trkpt>
<trkpt lat="33.810313" lon="-118.393867">
  <ele>-0.12</ele>
  <time>2026-09-01T01:18:22Z</time>
  <course>187.96</course>
  <speed>0.022360679774997897</speed>
  <fix>3d</fix>
</trkpt>
<trkpt lat="33.810313" lon="-118.393867">
  <ele>-0.12</ele>
  <time>2026-09-01T01:18:22Z</time>
  <course>0.0</course>
  <speed>0.0</speed>
  <fix>3d</fix>
</trkpt>
<trkpt lat="33.810313" lon="-118.393867">
  <ele>-0.12</ele>
  <time>2026-09-01T01:18:22Z</time>
  <course>187.95</course>
  <speed>0.022360679774997897</speed>
  <fix>3d</fix>
</trkpt>
<trkpt lat="33.810313" lon="-118.393867">
  <ele>-0.12</ele>
  <time>2026-09-01T01:18:22Z</time>
  <course>0.0</course>
  <speed>0.0</speed>
  <fix>3d</fix>
</trkpt>
<trkpt lat="33.810313" lon="-118.393867">
  <ele>-0.122</ele>
  <time>2026-09-01T01:18:22Z</time>
  <course>187.94</course>
  <speed>0.022360679774997897</speed>
  <fix>3d</fix>
</trkpt>
<trkpt lat="33.810313" lon="-118.393867">
  <ele>-0.12</ele>
  <time>2026-09-01T01:18:22Z</time>
  <course>0.0</course>
  <speed>0.0</speed>
  <fix>3d</fix>
</trkpt>
<trkpt lat="33.810313" lon="-118.393867">
  <ele>-0.125</ele>
  <time>2026-09-01T01:18:22Z</time>
  <course>187.94</course>
  <speed>0.022360679774997897</speed>
  <fix>3d</fix>
</trkpt>
<trkpt lat="33.810313" lon="-118.393867">
  <ele>-0.12</ele>
  <time>2026-09-01T01:18:22Z</time>
  <course>0.0</course>
  <speed>0.0</speed>
  <fix>3d</fix>
</trkpt>
<trkpt lat="33.810313" lon="-118.393867">
  <ele>-0.129</ele>
  <time>2026-09-01T01:18:22Z</time>
  <course>187.93</course>
  <speed>0.022360679774997897</speed>
  <fix>3d</fix>
</trkpt>
<trkpt lat="33.810313" lon="-118.393867">
  <ele>-0.12</ele>
  <time>2026-09-01T01:18:22Z</time>
  <course>0.0</course>
  <speed>0.0</speed>
  <fix>3d</fix>
</trkpt>
<trkpt lat="33.810313" lon="-118.393867">
  <ele>-0.131</ele>
  <time>2026-09-01T01:18:22Z</time>
  <course>187.92</course>
  <speed>0.022360679774997897</speed>
  <fix>3d</fix>
</trkpt>
<trkpt lat="33.810313" lon="-118.393867">
  <ele>-0.12</ele>
  <time>2026-09-01T01:18:22Z</time>
  <course>0.0</course>
  <speed>0.0</speed>
  <fix>3d</fix>
</trkpt>
<trkpt lat="33.810313" lon="-118.393867">
  <ele>-0.132</ele>
  <time>2026-09-01T01:18:22Z</time>
  <course>187.91</course>
  <speed>0.022360679774997897</speed>
  <fix>3d</fix>
</trkpt>
<trkpt lat="33.810313" lon="-118.393867">
  <ele>-0.12</ele>
  <time>2026-09-01T01:18:22Z</time>
  <course>0.0</course>
  <speed>0.0</speed>
  <fix>3d</fix>
</trkpt>
<trkpt lat="33.810313" lon="-118.393867">
  <ele>-0.132</ele>
  <time>2026-09-01T01:18:22Z</time>
  <course>187.9</course>
  <speed>0.022360679774997897</speed>
  <fix>3d</fix>
</trkpt>
<trkpt lat="33.810313" lon="-118.393867">
  <ele>-0.12</ele>
  <time>2026-09-01T01:18:22Z</time>
  <course>0.0</course>
  <speed>0.0</speed>
  <fix>3d</fix>
</trkpt>
<trkpt lat="33.810313" lon="-118.393867">
  <ele>-0.132</ele>
  <time>2026-09-01T01:18:22Z</time>
  <course>187.9</course>
  <speed>0.022360679774997897</speed>
  <fix>3d</fix>
</trkpt>
<trkpt lat="33.810313" lon="-118.393867">
  <ele>-0.12</ele>
  <time>2026-09-01T01:18:22Z</time>
  <course>0.0</course>
  <speed>0.0</speed>
  <fix>3d</fix>
</trkpt>
<trkpt lat="33.810313" lon="-118.393867">
  <ele>-0.13</ele>
  <time>2026-09-01T01:18:22Z</time>
  <course>187.89</course>
  <speed>0.022360679774997897</speed>
  <fix>3d</fix>
</trkpt>
<trkpt lat="33.810313" lon="-118.393867">
  <ele>-0.12</ele>
  <time>2026-09-01T01:18:22Z</time>
  <course>0.0</course>
  <speed>0.0</speed>
  <fix>3d</fix>
</trkpt>
<trkpt lat="33.810313" lon="-118.393867">
  <ele>-0.127</ele>
  <time>2026-09-01T01:18:22Z</time>
  <course>187.88</course>
  <speed>0.022360679774997897</speed>
  <fix>3d</fix>
</trkpt>
<trkpt lat="33.810313" lon="-118.393867">
  <ele>-0.12</ele>
  <time>2026-09-01T01:18:22Z</time>
  <course>0.0</course>
  <speed>0.0</speed>
  <fix>3d</fix>
</trkpt>
<trkpt lat="33.810313" lon="-118.393867">
  <ele>-0.123</ele>
  <time>2026-09-01T01:18:22Z</time>
  <course>187.87</course>
  <speed>0.022360679774997897</speed>
  <fix>3d</fix>
</trkpt>
<trkpt lat="33.810313" lon="-118.393867">
  <ele>-0.12</ele>
  <time>2026-09-01T01:18:22Z</time>
  <course>0.0</course>
  <speed>0.0</speed>
  <fix>3d</fix>
</trkpt>
<trkpt lat="33.810313" lon="-118.393867">
  <ele>-0.121</ele>
  <time>2026-09-01T01:18:22Z</time>
  <course>187.87</course>
  <speed>0.022360679774997897</speed>
  <fix>3d</fix>
</trkpt>
<trkpt lat="33.810313" lon="-118.393867">
  <ele>-0.12</ele>
  <time>2026-09-01T01:18:22Z</time>
  <course>0.0</course>
  <speed>0.0</speed>
  <fix>3d</fix>
</trkpt>
<trkpt lat="33.810313" lon="-118.393867">
  <ele>-0.121</ele>
  <time>2026-09-01T01:18:22Z</time>
  <course>187.86</course>
  <speed>0.022360679774997897</speed>
  <fix>3d</fix>
</trkpt>
<trkpt lat="33.810313" lon="-118.393867">
  <ele>-0.12</ele>
  <time>2026-09-01T01:18:22Z</time>
  <course>0.0</course>
  <speed>0.0</speed>
  <fix>3d</fix>
</trkpt>
<trkpt lat="33.810313" lon="-118.393867">
  <ele>-0.123</ele>
  <time>2026-09-01T01:18:22Z</time>
  <course>187.85</course>
  <speed>0.022360679774997897</speed>
  <fix>3d</fix>
</trkpt>
<trkpt lat="33.810313" lon="-118.393867">
  <ele>-0.12</ele>
  <time>2026-09-01T01:18:22Z</time>
  <course>0.0</course>
  <speed>0.0</speed>
  <fix>3d</fix>
</trkpt>
<trkpt lat="33.810313" lon="-118.393867">
  <ele>-0.124</ele>
  <time>2026-09-01T01:18:22Z</time>
  <course>187.84</course>
  <speed>0.022360679774997897</speed>
  <fix>3d</fix>
</trkpt>
<trkpt lat="33.810313" lon="-118.393867">
  <ele>-0.12</ele>
  <time>2026-09-01T01:18:22Z</time>
  <course>0.0</course>
  <speed>0.0</speed>
  <fix>3d</fix>
</trkpt>
<trkpt lat="33.810313" lon="-118.393867">
  <ele>-0.126</ele>
  <time>2026-09-01T01:18:22Z</time>
  <course>187.83</course>
  <speed>0.022360679774997897</speed>
  <fix>3d</fix>
</trkpt>
<trkpt lat="33.810313" lon="-118.393867">
  <ele>-0.12</ele>
  <time>2026-09-01T01:18:22Z</time>
  <course>0.0</course>
  <speed>0.0</speed>
  <fix>3d</fix>
</trkpt>
<trkpt lat="33.810313" lon="-118.393867">
  <ele>-0.127</ele>
  <time>2026-09-01T01:18:22Z</time>
  <course>187.83</course>
  <speed>0.022360679774997897</speed>
  <fix>3d</fix>
</trkpt>
<trkpt lat="33.810313" lon="-118.393867">
  <ele>-0.12</ele>
  <time>2026-09-01T01:18:22Z</time>
  <course>0.0</course>
  <speed>0.0</speed>
  <fix>3d</fix>
</trkpt>
<trkpt lat="33.810313" lon="-118.393867">
  <ele>-0.127</ele>
  <time>2026-09-01T01:18:22Z</time>
  <course>187.82</course>
  <speed>0.022360679774997897</speed>
  <fix>3d</fix>
</trkpt>
<trkpt lat="33.810313" lon="-118.393867">
  <ele>-0.12</ele>
  <time>2026-09-01T01:18:22Z</time>
  <course>0.0</course>
  <speed>0.0</speed>
  <fix>3d</fix>
</trkpt>
<trkpt lat="33.810313" lon="-118.393867">
  <ele>-0.127</ele>
  <time>2026-09-01T01:18:22Z</time>
  <course>187.81</course>
  <speed>0.022360679774997897</speed>
  <fix>3d</fix>
</trkpt>
<trkpt lat="33.810313" lon="-118.393867">
  <ele>-0.12</ele>
  <time>2026-09-01T01:18:22Z</time>
  <course>0.0</course>
  <speed>0.0</speed>
  <fix>3d</fix>
</trkpt>
<trkpt lat="33.810313" lon="-118.393867">
  <ele>-0.126</ele>
  <time>2026-09-01T01:18:22Z</time>
  <course>187.8</course>
  <speed>0.022360679774997897</speed>
  <fix>3d</fix>
</trkpt>
<trkpt lat="33.810313" lon="-118.393867">
  <ele>-0.12</ele>
  <time>2026-09-01T01:18:22Z</time>
  <course>0.0</course>
  <speed>0.0</speed>
  <fix>3d</fix>
</trkpt>
<trkpt lat="33.810313" lon="-118.393867">
  <ele>-0.124</ele>
  <time>2026-09-01T01:18:22Z</time>
  <course>187.8</course>
  <speed>0.022360679774997897</speed>
  <fix>3d</fix>
</trkpt>
<trkpt lat="33.810313" lon="-118.393867">
  <ele>-0.12</ele>
  <time>2026-09-01T01:18:22Z</time>
  <course>0.0</course>
  <speed>0.0</speed>
  <fix>3d</fix>
</trkpt>
<trkpt lat="33.810313" lon="-118.393867">
  <ele>-0.121</ele>
  <time>2026-09-01T01:18:22Z</time>
  <course>187.79</course>
  <speed>0.022360679774997897</speed>
  <fix>3d</fix>
</trkpt>
<trkpt lat="33.810313" lon="-118.393867">
  <ele>-0.12</ele>
  <time>2026-09-01T01:18:22Z</time>
  <course>0.0</course>
  <speed>0.0</speed>
  <fix>3d</fix>
</trkpt>
<trkpt lat="33.810313" lon="-118.393867">
  <ele>-0.119</ele>
  <time>2026-09-01T01:18:22Z</time>
  <course>187.78</course>
  <speed>0.022360679774997897</speed>
  <fix>3d</fix>
</trkpt>
<trkpt lat="33.810313" lon="-118.393867">
  <ele>-0.12</ele>
  <time>2026-09-01T01:18:22Z</time>
  <course>0.0</course>
  <speed>0.0</speed>
  <fix>3d</fix>
</trkpt>
<trkpt lat="33.810313" lon="-118.393867">
  <ele>-0.118</ele>
  <time>2026-09-01T01:18:22Z</time>
  <course>187.77</course>
  <speed>0.022360679774997897</speed>
  <fix>3d</fix>
</trkpt>
<trkpt lat="33.810313" lon="-118.393867">
  <ele>-0.12</ele>
  <time>2026-09-01T01:18:22Z</time>
  <course>0.0</course>
  <speed>0.0</speed>
  <fix>3d</fix>
</trkpt>
<trkpt lat="33.810313" lon="-118.393867">
  <ele>-0.118</ele>
  <time>2026-09-01T01:18:22Z</time>
  <course>187.76</course>
  <speed>0.022360679774997897</speed>
  <fix>3d</fix>
</trkpt>
<trkpt lat="33.810313" lon="-118.393867">
  <ele>-0.12</ele>
  <time>2026-09-01T01:18:22Z</time>
  <course>0.0</course>
  <speed>0.0</speed>
  <fix>3d</fix>
</trkpt>
<trkpt lat="33.810313" lon="-118.393867">
  <ele>-0.119</ele>
  <time>2026-09-01T01:18:22Z</time>
  <course>187.76</course>
  <speed>0.022360679774997897</speed>
  <fix>3d</fix>
</trkpt>
<trkpt lat="33.810313" lon="-118.393867">
  <ele>-0.12</ele>
  <time>2026-09-01T01:18:22Z</time>
  <course>0.0</course>
  <speed>0.0</speed>
  <fix>3d</fix>
</trkpt>
<trkpt lat="33.810313" lon="-118.393867">
  <ele>-0.12</ele>
  <time>2026-09-01T01:18:22Z</time>
  <course>187.75</course>
  <speed>0.022360679774997897</speed>
  <fix>3d</fix>
</trkpt>
<trkpt lat="33.810313" lon="-118.393867">
  <ele>-0.12</ele>
  <time>2026-09-01T01:18:22Z</time>
  <course>0.0</course>
  <speed>0.0</speed>
  <fix>3d</fix>
</trkpt>
<trkpt lat="33.810313" lon="-118.393867">
  <ele>-0.12</ele>
  <time>2026-09-01T01:18:22Z</time>
  <course>187.74</course>
  <speed>0.0282842712474619</speed>
  <fix>3d</fix>
</trkpt>
<trkpt lat="33.810313" lon="-118.393867">
  <ele>-0.12</ele>
  <time>2026-09-01T01:18:22Z</time>
  <course>0.0</course>
  <speed>0.0</speed>
  <fix>3d</fix>
</trkpt>
<trkpt lat="33.810313" lon="-118.393867">
  <ele>-0.12</ele>
  <time>2026-09-01T01:18:22Z</time>
  <course>187.74</course>
  <speed>0.0282842712474619</speed>
  <fix>3d</fix>
</trkpt>
<trkpt lat="33.810313" lon="-118.393867">
  <ele>-0.12</ele>
  <time>2026-09-01T01:18:22Z</time>
  <course>0.0</course>
  <speed>0.0</speed>
  <fix>3d</fix>
</trkpt>
<trkpt lat="33.810313" lon="-118.393867">
  <ele>-0.119</ele>
  <time>2026-09-01T01:18:22Z</time>
  <course>187.73</course>
  <speed>0.0282842712474619</speed>
  <fix>3d</fix>
</trkpt>
<trkpt lat="33.810313" lon="-118.393867">
  <ele>-0.12</ele>
  <time>2026-09-01T01:18:22Z</time>
  <course>0.0</course>
  <speed>0.0</speed>
  <fix>3d</fix>
</trkpt>
<trkpt lat="33.810313" lon="-118.393867">
  <ele>-0.118</ele>
  <time>2026-09-01T01:18:22Z</time>
  <course>187.72</course>
  <speed>0.0282842712474619</speed>
  <fix>3d</fix>
</trkpt>
<trkpt lat="33.810313" lon="-118.393867">
  <ele>-0.12</ele>
  <time>2026-09-01T01:18:22Z</time>
  <course>0.0</course>
  <speed>0.0</speed>
  <fix>3d</fix>
</trkpt>
<trkpt lat="33.810313" lon="-118.393867">
  <ele>-0.116</ele>
  <time>2026-09-01T01:18:22Z</time>
  <course>187.71</course>
  <speed>0.0282842712474619</speed>
  <fix>3d</fix>
</trkpt>
<trkpt lat="33.810313" lon="-118.393867">
  <ele>-0.12</ele>
  <time>2026-09-01T01:18:22Z</time>
  <course>0.0</course>
  <speed>0.0</speed>
  <fix>3d</fix>
</trkpt>
<trkpt lat="33.810313" lon="-118.393867">
  <ele>-0.113</ele>
  <time>2026-09-01T01:18:22Z</time>
  <course>187.71</course>
  <speed>0.0282842712474619</speed>
  <fix>3d</fix>
</trkpt>
<trkpt lat="33.810313" lon="-118.393867">
  <ele>-0.12</ele>
  <time>2026-09-01T01:18:22Z</time>
  <course>0.0</course>
  <speed>0.0</speed>
  <fix>3d</fix>
</trkpt>
<trkpt lat="33.810313" lon="-118.393867">
  <ele>-0.112</ele>
  <time>2026-09-01T01:18:22Z</time>
  <course>187.7</course>
  <speed>0.0282842712474619</speed>
  <fix>3d</fix>
</trkpt>
<trkpt lat="33.810313" lon="-118.393867">
  <ele>-0.12</ele>
  <time>2026-09-01T01:18:22Z</time>
  <course>0.0</course>
  <speed>0.0</speed>
  <fix>3d</fix>
</trkpt>
<trkpt lat="33.810313" lon="-118.393867">
  <ele>-0.113</ele>
  <time>2026-09-01T01:18:22Z</time>
  <course>187.69</course>
  <speed>0.0282842712474619</speed>
  <fix>3d</fix>
</trkpt>
<trkpt lat="33.810313" lon="-118.393867">
  <ele>-0.12</ele>
  <time>2026-09-01T01:18:22Z</time>
  <course>0.0</course>
  <speed>0.0</speed>
  <fix>3d</fix>
</trkpt>
<trkpt lat="33.810313" lon="-118.393867">
  <ele>-0.115</ele>
  <time>2026-09-01T01:18:22Z</time>
  <course>187.68</course>
  <speed>0.0282842712474619</speed>
  <fix>3d</fix>
</trkpt>
<trkpt lat="33.810313" lon="-118.393867">
  <ele>-0.12</ele>
  <time>2026-09-01T01:18:22Z</time>
  <course>0.0</course>
  <speed>0.0</speed>
  <fix>3d</fix>
</trkpt>
<trkpt lat="33.810313" lon="-118.393867">
  <ele>-0.119</ele>
  <time>2026-09-01T01:18:22Z</time>
  <course>187.68</course>
  <speed>0.0282842712474619</speed>
  <fix>3d</fix>
</trkpt>
<trkpt lat="33.810313" lon="-118.393867">
  <ele>-0.12</ele>
  <time>2026-09-01T01:18:22Z</time>
  <course>0.0</course>
  <speed>0.0</speed>
  <fix>3d</fix>
</trkpt>
<trkpt lat="33.810313" lon="-118.393867">
  <ele>-0.124</ele>
  <time>2026-09-01T01:18:22Z</time>
  <course>187.67</course>
  <speed>0.0282842712474619</speed>
  <fix>3d</fix>
</trkpt>
<trkpt lat="33.810313" lon="-118.393867">
  <ele>-0.12</ele>
  <time>2026-09-01T01:18:22Z</time>
  <course>0.0</course>
  <speed>0.0</speed>
  <fix>3d</fix>
</trkpt>
<trkpt lat="33.810313" lon="-118.393867">
  <ele>-0.129</ele>
  <time>2026-09-01T01:18:22Z</time>
  <course>187.66</course>
  <speed>0.0282842712474619</speed>
  <fix>3d</fix>
</trkpt>
<trkpt lat="33.810313" lon="-118.393867">
  <ele>-0.12</ele>
  <time>2026-09-01T01:18:22Z</time>
  <course>0.0</course>
  <speed>0.0</speed>
  <fix>3d</fix>
</trkpt>
<trkpt lat="33.810313" lon="-118.393867">
  <ele>-0.133</ele>
  <time>2026-09-01T01:18:22Z</time>
  <course>187.66</course>
  <speed>0.0282842712474619</speed>
  <fix>3d</fix>
</trkpt>
<trkpt lat="33.810313" lon="-118.393867">
  <ele>-0.12</ele>
  <time>2026-09-01T01:18:22Z</time>
  <course>0.0</course>
  <speed>0.0</speed>
  <fix>3d</fix>
</trkpt>
<trkpt lat="33.810313" lon="-118.393867">
  <ele>-0.135</ele>
  <time>2026-09-01T01:18:22Z</time>
  <course>187.65</course>
  <speed>0.0282842712474619</speed>
  <fix>3d</fix>
</trkpt>
<trkpt lat="33.810313" lon="-118.393867">
  <ele>-0.12</ele>
  <time>2026-09-01T01:18:22Z</time>
  <course>0.0</course>
  <speed>0.0</speed>
  <fix>3d</fix>
</trkpt>
<trkpt lat="33.810313" lon="-118.393867">
  <ele>-0.135</ele>
  <time>2026-09-01T01:18:22Z</time>
  <course>187.64</course>
  <speed>0.0282842712474619</speed>
  <fix>3d</fix>
</trkpt>
<trkpt lat="33.810313" lon="-118.393867">
  <ele>-0.12</ele>
  <time>2026-09-01T01:18:22Z</time>
  <course>0.0</course>
  <speed>0.0</speed>
  <fix>3d</fix>
</trkpt>
<trkpt lat="33.810313" lon="-118.393867">
  <ele>-0.135</ele>
  <time>2026-09-01T01:18:22Z</time>
  <course>187.64</course>
  <speed>0.0282842712474619</speed>
  <fix>3d</fix>
</trkpt>
<trkpt lat="33.810313" lon="-118.393867">
  <ele>-0.12</ele>
  <time>2026-09-01T01:18:22Z</time>
  <course>0.0</course>
  <speed>0.0</speed>
  <fix>3d</fix>
</trkpt>
<trkpt lat="33.810313" lon="-118.393867">
  <ele>-0.133</ele>
  <time>2026-09-01T01:18:22Z</time>
  <course>187.63</course>
  <speed>0.0282842712474619</speed>
  <fix>3d</fix>
</trkpt>
<trkpt lat="33.810313" lon="-118.393867">
  <ele>-0.12</ele>
  <time>2026-09-01T01:18:22Z</time>
  <course>0.0</course>
  <speed>0.0</speed>
  <fix>3d</fix>
</trkpt>
<trkpt lat="33.810313" lon="-118.393867">
  <ele>-0.132</ele>
  <time>2026-09-01T01:18:22Z</time>
  <course>187.63</course>
  <speed>0.03605551275463989</speed>
  <fix>3d</fix>
</trkpt>
<trkpt lat="33.810313" lon="-118.393867">
  <ele>-0.12</ele>
  <time>2026-09-01T01:18:22Z</time>
  <course>0.0</course>
  <speed>0.0</speed>
  <fix>3d</fix>
</trkpt>
<trkpt lat="33.810313" lon="-118.393867">
  <ele>-0.132</ele>
  <time>2026-09-01T01:18:22Z</time>
  <course>187.62</course>
  <speed>0.03605551275463989</speed>
  <fix>3d</fix>
</trkpt>
<trkpt lat="33.810313" lon="-118.393867">
  <ele>-0.12</ele>
  <time>2026-09-01T01:18:22Z</time>
  <course>0.0</course>
  <speed>0.0</speed>
  <fix>3d</fix>
</trkpt>
<trkpt lat="33.810313" lon="-118.393867">
  <ele>-0.133</ele>
  <time>2026-09-01T01:18:22Z</time>
  <course>187.61</course>
  <speed>0.03605551275463989</speed>
  <fix>3d</fix>
</trkpt>
<trkpt lat="33.810313" lon="-118.393867">
  <ele>-0.12</ele>
  <time>2026-09-01T01:18:22Z</time>
  <course>0.0</course>
  <speed>0.0</speed>
  <fix>3d</fix>
</trkpt>
<trkpt lat="33.810313" lon="-118.393867">
  <ele>-0.134</ele>
  <time>2026-09-01T01:18:22Z</time>
  <course>187.6</course>
  <speed>0.03605551275463989</speed>
  <fix>3d</fix>
</trkpt>
<trkpt lat="33.810313" lon="-118.393867">
  <ele>-0.12</ele>
  <time>2026-09-01T01:18:22Z</time>
  <course>0.0</course>
  <speed>0.0</speed>
  <fix>3d</fix>
</trkpt>
<trkpt lat="33.810313" lon="-118.393867">
  <ele>-0.134</ele>
  <time>2026-09-01T01:18:22Z</time>
  <course>187.6</course>
  <speed>0.03605551275463989</speed>
  <fix>3d</fix>
</trkpt>
<trkpt lat="33.810313" lon="-118.393867">
  <ele>-0.12</ele>
  <time>2026-09-01T01:18:22Z</time>
  <course>0.0</course>
  <speed>0.0</speed>
  <fix>3d</fix>
</trkpt>
<trkpt lat="33.810313" lon="-118.393867">
  <ele>-0.134</ele>
  <time>2026-09-01T01:18:22Z</time>
  <course>187.59</course>
  <speed>0.03605551275463989</speed>
  <fix>3d</fix>
</trkpt>
<trkpt lat="33.810313" lon="-118.393867">
  <ele>-0.12</ele>
  <time>2026-09-01T01:18:22Z</time>
  <course>0.0</course>
  <speed>0.0</speed>
  <fix>3d</fix>
</trkpt>
<trkpt lat="33.810313" lon="-118.393867">
  <ele>-0.132</ele>
  <time>2026-09-01T01:18:22Z</time>
  <course>187.58</course>
  <speed>0.03605551275463989</speed>
  <fix>3d</fix>
</trkpt>
<trkpt lat="33.810313" lon="-118.393867">
  <ele>-0.12</ele>
  <time>2026-09-01T01:18:22Z</time>
  <course>0.0</course>
  <speed>0.0</speed>
  <fix>3d</fix>
</trkpt>
<trkpt lat="33.810313" lon="-118.393867">
  <ele>-0.129</ele>
  <time>2026-09-01T01:18:22Z</time>
  <course>187.58</course>
  <speed>0.03605551275463989</speed>
  <fix>3d</fix>
</trkpt>
<trkpt lat="33.810313" lon="-118.393867">
  <ele>-0.12</ele>
  <time>2026-09-01T01:18:22Z</time>
  <course>0.0</course>
  <speed>0.0</speed>
  <fix>3d</fix>
</trkpt>
<trkpt lat="33.810313" lon="-118.393867">
  <ele>-0.127</ele>
  <time>2026-09-01T01:18:22Z</time>
  <course>187.57</course>
  <speed>0.03605551275463989</speed>
  <fix>3d</fix>
</trkpt>
<trkpt lat="33.810313" lon="-118.393867">
  <ele>-0.12</ele>
  <time>2026-09-01T01:18:22Z</time>
  <course>0.0</course>
  <speed>0.0</speed>
  <fix>3d</fix>
</trkpt>
<trkpt lat="33.810313" lon="-118.393867">
  <ele>-0.125</ele>
  <time>2026-09-01T01:18:22Z</time>
  <course>187.56</course>
  <speed>0.03605551275463989</speed>
  <fix>3d</fix>
</trkpt>
<trkpt lat="33.810313" lon="-118.393867">
  <ele>-0.12</ele>
  <time>2026-09-01T01:18:22Z</time>
  <course>0.0</course>
  <speed>0.0</speed>
  <fix>3d</fix>
</trkpt>
<trkpt lat="33.810313" lon="-118.393867">
  <ele>-0.122</ele>
  <time>2026-09-01T01:18:22Z</time>
  <course>187.56</course>
  <speed>0.03605551275463989</speed>
  <fix>3d</fix>
</trkpt>
<trkpt lat="33.810313" lon="-118.393867">
  <ele>-0.12</ele>
  <time>2026-09-01T01:18:22Z</time>
  <course>0.0</course>
  <speed>0.0</speed>
  <fix>3d</fix>
</trkpt>
<trkpt lat="33.810313" lon="-118.393867">
  <ele>-0.119</ele>
  <time>2026-09-01T01:18:22Z</time>
  <course>187.55</course>
  <speed>0.03605551275463989</speed>
  <fix>3d</fix>
</trkpt>
<trkpt lat="33.810313" lon="-118.393867">
  <ele>-0.12</ele>
  <time>2026-09-01T01:18:22Z</time>
  <course>0.0</course>
  <speed>0.0</speed>
  <fix>3d</fix>
</trkpt>
<trkpt lat="33.810313" lon="-118.393867">
  <ele>-0.117</ele>
  <time>2026-09-01T01:18:22Z</time>
  <course>187.54</course>
  <speed>0.03605551275463989</speed>
  <fix>3d</fix>
</trkpt>
<trkpt lat="33.810313" lon="-118.393867">
  <ele>-0.12</ele>
  <time>2026-09-01T01:18:22Z</time>
  <course>0.0</course>
  <speed>0.0</speed>
  <fix>3d</fix>
</trkpt>
<trkpt lat="33.810313" lon="-118.393867">
  <ele>-0.117</ele>
  <time>2026-09-01T01:18:22Z</time>
  <course>187.54</course>
  <speed>0.03605551275463989</speed>
  <fix>3d</fix>
</trkpt>
<trkpt lat="33.810313" lon="-118.393867">
  <ele>-0.12</ele>
  <time>2026-09-01T01:18:22Z</time>
  <course>0.0</course>
  <speed>0.0</speed>
  <fix>3d</fix>
</trkpt>
<trkpt lat="33.810313" lon="-118.393867">
  <ele>-0.118</ele>
  <time>2026-09-01T01:18:22Z</time>
  <course>187.53</course>
  <speed>0.03605551275463989</speed>
  <fix>3d</fix>
</trkpt>
<trkpt lat="33.810313" lon="-118.393867">
  <ele>-0.12</ele>
  <time>2026-09-01T01:18:22Z</time>
  <course>0.0</course>
  <speed>0.0</speed>
  <fix>3d</fix>
</trkpt>
<trkpt lat="33.810313" lon="-118.393867">
  <ele>-0.119</ele>
  <time>2026-09-01T01:18:22Z</time>
  <course>187.52</course>
  <speed>0.03605551275463989</speed>
  <fix>3d</fix>
</trkpt>
<trkpt lat="33.810313" lon="-118.393867">
  <ele>-0.12</ele>
  <time>2026-09-01T01:18:22Z</time>
  <course>0.0</course>
  <speed>0.0</speed>
  <fix>3d</fix>
</trkpt>
<trkpt lat="33.810313" lon="-118.393867">
  <ele>-0.12</ele>
  <time>2026-09-01T01:18:22Z</time>
  <course>187.52</course>
  <speed>0.03605551275463989</speed>
  <fix>3d</fix>
</trkpt>
<trkpt lat="33.810313" lon="-118.393867">
  <ele>-0.12</ele>
  <time>2026-09-01T01:18:22Z</time>
  <course>0.0</course>
  <speed>0.0</speed>
  <fix>3d</fix>
</trkpt>
<trkpt lat="33.810313" lon="-118.393867">
  <ele>-0.121</ele>
  <time>2026-09-01T01:18:22Z</time>
  <course>187.51</course>
  <speed>0.03605551275463989</speed>
  <fix>3d</fix>
</trkpt>
<trkpt lat="33.810313" lon="-118.393867">
  <ele>-0.12</ele>
  <time>2026-09-01T01:18:22Z</time>
  <course>0.0</course>
  <speed>0.0</speed>
  <fix>3d</fix>
</trkpt>
<trkpt lat="33.810313" lon="-118.393867">
  <ele>-0.121</ele>
  <time>2026-09-01T01:18:22Z</time>
  <course>187.51</course>
  <speed>0.03605551275463989</speed>
  <fix>3d</fix>
</trkpt>
<trkpt lat="33.810313" lon="-118.393867">
  <ele>-0.12</ele>
  <time>2026-09-01T01:18:22Z</time>
  <course>0.0</course>
  <speed>0.0</speed>
  <fix>3d</fix>
</trkpt>
<trkpt lat="33.810313" lon="-118.393867">
  <ele>-0.121</ele>
  <time>2026-09-01T01:18:22Z</time>
  <course>187.5</course>
  <speed>0.03605551275463989</speed>
  <fix>3d</fix>
</trkpt>
<trkpt lat="33.810313" lon="-118.393867">
  <ele>-0.12</ele>
  <time>2026-09-01T01:18:22Z</time>
  <course>0.0</course>
  <speed>0.0</speed>
  <fix>3d</fix>
</trkpt>
<trkpt lat="33.810313" lon="-118.393867">
  <ele>-0.121</ele>
  <time>2026-09-01T01:18:22Z</time>
  <course>187.49</course>
  <speed>0.03605551275463989</speed>
  <fix>3d</fix>
</trkpt>
<trkpt lat="33.810313" lon="-118.393867">
  <ele>-0.12</ele>
  <time>2026-09-01T01:18:22Z</time>
  <course>0.0</course>
  <speed>0.0</speed>
  <fix>3d</fix>
</trkpt>
<trkpt lat="33.810313" lon="-118.393867">
  <ele>-0.121</ele>
  <time>2026-09-01T01:18:22Z</time>
  <course>187.49</course>
  <speed>0.03605551275463989</speed>
  <fix>3d</fix>
</trkpt>
<trkpt lat="33.810313" lon="-118.393867">
  <ele>-0.12</ele>
  <time>2026-09-01T01:18:22Z</time>
  <course>0.0</course>
  <speed>0.0</speed>
  <fix>3d</fix>
</trkpt>
<trkpt lat="33.810313" lon="-118.393867">
  <ele>-0.121</ele>
  <time>2026-09-01T01:18:22Z</time>
  <course>187.48</course>
  <speed>0.03605551275463989</speed>
  <fix>3d</fix>
</trkpt>
<trkpt lat="33.810313" lon="-118.393867">
  <ele>-0.12</ele>
  <time>2026-09-01T01:18:22Z</time>
  <course>0.0</course>
  <speed>0.0</speed>
  <fix>3d</fix>
</trkpt>
<trkpt lat="33.810313" lon="-118.393867">
  <ele>-0.122</ele>
  <time>2026-09-01T01:18:22Z</time>
  <course>187.47</course>
  <speed>0.03605551275463989</speed>
  <fix>3d</fix>
</trkpt>
<trkpt lat="33.810313" lon="-118.393867">
  <ele>-0.12</ele>
  <time>2026-09-01T01:18:22Z</time>
  <course>0.0</course>
  <speed>0.0</speed>
  <fix>3d</fix>
</trkpt>
<trkpt lat="33.810313" lon="-118.393867">
  <ele>-0.124</ele>
  <time>2026-09-01T01:18:22Z</time>
  <course>187.47</course>
  <speed>0.03605551275463989</speed>
  <fix>3d</fix>
</trkpt>
<trkpt lat="33.810313" lon="-118.393867">
  <ele>-0.12</ele>
  <time>2026-09-01T01:18:22Z</time>
  <course>0.0</course>
  <speed>0.0</speed>
  <fix>3d</fix>
</trkpt>
<trkpt lat="33.810313" lon="-118.393867">
  <ele>-0.127</ele>
  <time>2026-09-01T01:18:22Z</time>
  <course>187.46</course>
  <speed>0.03605551275463989</speed>
  <fix>3d</fix>
</trkpt>
<trkpt lat="33.810313" lon="-118.393867">
  <ele>-0.12</ele>
  <time>2026-09-01T01:18:22Z</time>
  <course>0.0</course>
  <speed>0.0</speed>
  <fix>3d</fix>
</trkpt>
<trkpt lat="33.810313" lon="-118.393867">
  <ele>-0.129</ele>
  <time>2026-09-01T01:18:22Z</time>
  <course>187.45</course>
  <speed>0.03605551275463989</speed>
  <fix>3d</fix>
</trkpt>
<trkpt lat="33.810313" lon="-118.393867">
  <ele>-0.12</ele>
  <time>2026-09-01T01:18:22Z</time>
  <course>0.0</course>
  <speed>0.0</speed>
  <fix>3d</fix>
</trkpt>
<trkpt lat="33.810313" lon="-118.393867">
  <ele>-0.131</ele>
  <time>2026-09-01T01:18:22Z</time>
  <course>187.45</course>
  <speed>0.03605551275463989</speed>
  <fix>3d</fix>
</trkpt>
<trkpt lat="33.810313" lon="-118.393867">
  <ele>-0.12</ele>
  <time>2026-09-01T01:18:22Z</time>
  <course>0.0</course>
  <speed>0.0</speed>
  <fix>3d</fix>
</trkpt>
<trkpt lat="33.810313" lon="-118.393867">
  <ele>-0.132</ele>
  <time>2026-09-01T01:18:22Z</time>
  <course>187.44</course>
  <speed>0.03605551275463989</speed>
  <fix>3d</fix>
</trkpt>
<trkpt lat="33.810313" lon="-118.393867">
  <ele>-0.12</ele>
  <time>2026-09-01T01:18:22Z</time>
  <course>0.0</course>
  <speed>0.0</speed>
  <fix>3d</fix>
</trkpt>
<trkpt lat="33.810313" lon="-118.393867">
  <ele>-0.132</ele>
  <time>2026-09-01T01:18:22Z</time>
  <course>187.44</course>
  <speed>0.03605551275463989</speed>
  <fix>3d</fix>
</trkpt>
<trkpt lat="33.810313" lon="-118.393867">
  <ele>-0.12</ele>
  <time>2026-09-01T01:18:22Z</time>
  <course>0.0</course>
  <speed>0.0</speed>
  <fix>3d</fix>
</trkpt>
<trkpt lat="33.810313" lon="-118.393867">
  <ele>-0.132</ele>
  <time>2026-09-01T01:18:22Z</time>
  <course>187.43</course>
  <speed>0.03605551275463989</speed>
  <fix>3d</fix>
</trkpt>
<trkpt lat="33.810313" lon="-118.393867">
  <ele>-0.12</ele>
  <time>2026-09-01T01:18:22Z</time>
  <course>0.0</course>
  <speed>0.0</speed>
  <fix>3d</fix>
</trkpt>
<trkpt lat="33.810313" lon="-118.393867">
  <ele>-0.132</ele>
  <time>2026-09-01T01:18:22Z</time>
  <course>187.42</course>
  <speed>0.03605551275463989</speed>
  <fix>3d</fix>
</trkpt>
<trkpt lat="33.810313" lon="-118.393867">
  <ele>-0.12</ele>
  <time>2026-09-01T01:18:22Z</time>
  <course>0.0</course>
  <speed>0.0</speed>
  <fix>3d</fix>
</trkpt>
<trkpt lat="33.810313" lon="-118.393867">
  <ele>-0.131</ele>
  <time>2026-09-01T01:18:22Z</time>
  <course>187.42</course>
  <speed>0.03605551275463989</speed>
  <fix>3d</fix>
</trkpt>
<trkpt lat="33.810313" lon="-118.393867">
  <ele>-0.12</ele>
  <time>2026-09-01T01:18:22Z</time>
  <course>0.0</course>
  <speed>0.0</speed>
  <fix>3d</fix>
</trkpt>
<trkpt lat="33.810313" lon="-118.393867">
  <ele>-0.131</ele>
  <time>2026-09-01T01:18:22Z</time>
  <course>187.41</course>
  <speed>0.03605551275463989</speed>
  <fix>3d</fix>
</trkpt>
<trkpt lat="33.810313" lon="-118.393867">
  <ele>-0.12</ele>
  <time>2026-09-01T01:18:22Z</time>
  <course>0.0</course>
  <speed>0.0</speed>
  <fix>3d</fix>
</trkpt>
<trkpt lat="33.810313" lon="-118.393867">
  <ele>-0.132</ele>
  <time>2026-09-01T01:18:22Z</time>
  <course>187.41</course>
  <speed>0.03605551275463989</speed>
  <fix>3d</fix>
</trkpt>
<trkpt lat="33.810313" lon="-118.393867">
  <ele>-0.12</ele>
  <time>2026-09-01T01:18:22Z</time>
  <course>0.0</course>
  <speed>0.0</speed>
  <fix>3d</fix>
</trkpt>
<trkpt lat="33.810313" lon="-118.393867">
  <ele>-0.134</ele>
  <time>2026-09-01T01:18:22Z</time>
  <course>187.4</course>
  <speed>0.03605551275463989</speed>
  <fix>3d</fix>
</trkpt>
<trkpt lat="33.810313" lon="-118.393867">
  <ele>-0.12</ele>
  <time>2026-09-01T01:18:22Z</time>
  <course>0.0</course>
  <speed>0.0</speed>
  <fix>3d</fix>
</trkpt>
<trkpt lat="33.810313" lon="-118.393867">
  <ele>-0.137</ele>
  <time>2026-09-01T01:18:22Z</time>
  <course>187.39</course>
  <speed>0.03605551275463989</speed>
  <fix>3d</fix>
</trkpt>
<trkpt lat="33.810313" lon="-118.393867">
  <ele>-0.12</ele>
  <time>2026-09-01T01:18:22Z</time>
  <course>0.0</course>
  <speed>0.0</speed>
  <fix>3d</fix>
</trkpt>
<trkpt lat="33.810313" lon="-118.393867">
  <ele>-0.139</ele>
  <time>2026-09-01T01:18:22Z</time>
  <course>187.39</course>
  <speed>0.03605551275463989</speed>
  <fix>3d</fix>
</trkpt>
<trkpt lat="33.810313" lon="-118.393867">
  <ele>-0.12</ele>
  <time>2026-09-01T01:18:22Z</time>
  <course>0.0</course>
  <speed>0.0</speed>
  <fix>3d</fix>
</trkpt>
<trkpt lat="33.810313" lon="-118.393867">
  <ele>-0.141</ele>
  <time>2026-09-01T01:18:22Z</time>
  <course>187.38</course>
  <speed>0.03605551275463989</speed>
  <fix>3d</fix>
</trkpt>
<trkpt lat="33.810313" lon="-118.393867">
  <ele>-0.12</ele>
  <time>2026-09-01T01:18:22Z</time>
  <course>0.0</course>
  <speed>0.0</speed>
  <fix>3d</fix>
</trkpt>
<trkpt lat="33.810313" lon="-118.393867">
  <ele>-0.141</ele>
  <time>2026-09-01T01:18:22Z</time>
  <course>187.38</course>
  <speed>0.03605551275463989</speed>
  <fix>3d</fix>
</trkpt>
<trkpt lat="33.810313" lon="-118.393867">
  <ele>-0.12</ele>
  <time>2026-09-01T01:18:22Z</time>
  <course>0.0</course>
  <speed>0.0</speed>
  <fix>3d</fix>
</trkpt>
<trkpt lat="33.810313" lon="-118.393867">
  <ele>-0.139</ele>
  <time>2026-09-01T01:18:22Z</time>
  <course>187.37</course>
  <speed>0.03605551275463989</speed>
  <fix>3d</fix>
</trkpt>
<trkpt lat="33.810313" lon="-118.393867">
  <ele>-0.12</ele>
  <time>2026-09-01T01:18:22Z</time>
  <course>0.0</course>
  <speed>0.0</speed>
  <fix>3d</fix>
</trkpt>
<trkpt lat="33.810313" lon="-118.393867">
  <ele>-0.136</ele>
  <time>2026-09-01T01:18:22Z</time>
  <course>187.36</course>
  <speed>0.03605551275463989</speed>
  <fix>3d</fix>
</trkpt>
<trkpt lat="33.810313" lon="-118.393867">
  <ele>-0.12</ele>
  <time>2026-09-01T01:18:22Z</time>
  <course>0.0</course>
  <speed>0.0</speed>
  <fix>3d</fix>
</trkpt>
<trkpt lat="33.810313" lon="-118.393867">
  <ele>-0.132</ele>
  <time>2026-09-01T01:18:22Z</time>
  <course>187.36</course>
  <speed>0.03605551275463989</speed>
  <fix>3d</fix>
</trkpt>
<trkpt lat="33.810313" lon="-118.393867">
  <ele>-0.12</ele>
  <time>2026-09-01T01:18:22Z</time>
  <course>0.0</course>
  <speed>0.0</speed>
  <fix>3d</fix>
</trkpt>
<trkpt lat="33.810313" lon="-118.393867">
  <ele>-0.129</ele>
  <time>2026-09-01T01:18:22Z</time>
  <course>187.35</course>
  <speed>0.03605551275463989</speed>
  <fix>3d</fix>
</trkpt>
<trkpt lat="33.810313" lon="-118.393867">
  <ele>-0.12</ele>
  <time>2026-09-01T01:18:22Z</time>
  <course>0.0</course>
  <speed>0.0</speed>
  <fix>3d</fix>
</trkpt>
<trkpt lat="33.810313" lon="-118.393867">
  <ele>-0.127</ele>
  <time>2026-09-01T01:18:22Z</time>
  <course>187.35</course>
  <speed>0.03605551275463989</speed>
  <fix>3d</fix>
</trkpt>
<trkpt lat="33.810313" lon="-118.393867">
  <ele>-0.12</ele>
  <time>2026-09-01T01:18:22Z</time>
  <course>0.0</course>
  <speed>0.0</speed>
  <fix>3d</fix>
</trkpt>
<trkpt lat="33.810313" lon="-118.393867">
  <ele>-0.126</ele>
  <time>2026-09-01T01:18:22Z</time>
  <course>187.34</course>
  <speed>0.03605551275463989</speed>
  <fix>3d</fix>
</trkpt>
<trkpt lat="33.810313" lon="-118.393867">
  <ele>-0.12</ele>
  <time>2026-09-01T01:18:22Z</time>
  <course>0.0</course>
  <speed>0.0</speed>
  <fix>3d</fix>
</trkpt>
<trkpt lat="33.810313" lon="-118.393867">
  <ele>-0.126</ele>
  <time>2026-09-01T01:18:22Z</time>
  <course>187.33</course>
  <speed>0.03605551275463989</speed>
  <fix>3d</fix>
</trkpt>
<trkpt lat="33.810313" lon="-118.393867">
  <ele>-0.12</ele>
  <time>2026-09-01T01:18:22Z</time>
  <course>0.0</course>
  <speed>0.0</speed>
  <fix>3d</fix>
</trkpt>
<trkpt lat="33.810313" lon="-118.393867">
  <ele>-0.127</ele>
  <time>2026-09-01T01:18:22Z</time>
  <course>187.33</course>
  <speed>0.03605551275463989</speed>
  <fix>3d</fix>
</trkpt>
<trkpt lat="33.810313" lon="-118.393867">
  <ele>-0.12</ele>
  <time>2026-09-01T01:18:22Z</time>
  <course>0.0</course>
  <speed>0.0</speed>
  <fix>3d</fix>
</trkpt>
<trkpt lat="33.810313" lon="-118.393867">
  <ele>-0.126</ele>
  <time>2026-09-01T01:18:22Z</time>
  <course>187.32</course>
  <speed>0.03605551275463989</speed>
  <fix>3d</fix>
</trkpt>
<trkpt lat="33.810313" lon="-118.393867">
  <ele>-0.12</ele>
  <time>2026-09-01T01:18:22Z</time>
  <course>0.0</course>
  <speed>0.0</speed>
  <fix>3d</fix>
</trkpt>
<trkpt lat="33.810313" lon="-118.393867">
  <ele>-0.126</ele>
  <time>2026-09-01T01:18:22Z</time>
  <course>187.32</course>
  <speed>0.03605551275463989</speed>
  <fix>3d</fix>
</trkpt>
<trkpt lat="33.810313" lon="-118.393867">
  <ele>-0.12</ele>
  <time>2026-09-01T01:18:22Z</time>
  <course>0.0</course>
  <speed>0.0</speed>
  <fix>3d</fix>
</trkpt>
<trkpt lat="33.810313" lon="-118.393867">
  <ele>-0.125</ele>
  <time>2026-09-01T01:18:22Z</time>
  <course>187.31</course>
  <speed>0.03605551275463989</speed>
  <fix>3d</fix>
</trkpt>
<trkpt lat="33.810313" lon="-118.393867">
  <ele>-0.12</ele>
  <time>2026-09-01T01:18:22Z</time>
  <course>0.0</course>
  <speed>0.0</speed>
  <fix>3d</fix>
</trkpt>
<trkpt lat="33.810313" lon="-118.393867">
  <ele>-0.124</ele>
  <time>2026-09-01T01:18:22Z</time>
  <course>187.31</course>
  <speed>0.03605551275463989</speed>
  <fix>3d</fix>
</trkpt>
<trkpt lat="33.810313" lon="-118.393867">
  <ele>-0.12</ele>
  <time>2026-09-01T01:18:22Z</time>
  <course>0.0</course>
  <speed>0.0</speed>
  <fix>3d</fix>
</trkpt>
<trkpt lat="33.810313" lon="-118.393867">
  <ele>-0.122</ele>
  <time>2026-09-01T01:18:22Z</time>
  <course>187.3</course>
  <speed>0.03605551275463989</speed>
  <fix>3d</fix>
</trkpt>
<trkpt lat="33.810313" lon="-118.393867">
  <ele>-0.12</ele>
  <time>2026-09-01T01:18:22Z</time>
  <course>0.0</course>
  <speed>0.0</speed>
  <fix>3d</fix>
</trkpt>
<trkpt lat="33.810313" lon="-118.393867">
  <ele>-0.121</ele>
  <time>2026-09-01T01:18:22Z</time>
  <course>187.29</course>
  <speed>0.03605551275463989</speed>
  <fix>3d</fix>
</trkpt>
<trkpt lat="33.810313" lon="-118.393867">
  <ele>-0.12</ele>
  <time>2026-09-01T01:18:22Z</time>
  <course>0.0</course>
  <speed>0.0</speed>
  <fix>3d</fix>
</trkpt>
<trkpt lat="33.810313" lon="-118.393867">
  <ele>-0.122</ele>
  <time>2026-09-01T01:18:22Z</time>
  <course>187.29</course>
  <speed>0.03605551275463989</speed>
  <fix>3d</fix>
</trkpt>
<trkpt lat="33.810313" lon="-118.393867">
  <ele>-0.12</ele>
  <time>2026-09-01T01:18:22Z</time>
  <course>0.0</course>
  <speed>0.0</speed>
  <fix>3d</fix>
</trkpt>
<trkpt lat="33.810313" lon="-118.393867">
  <ele>-0.124</ele>
  <time>2026-09-01T01:18:22Z</time>
  <course>187.28</course>
  <speed>0.03605551275463989</speed>
  <fix>3d</fix>
</trkpt>
<trkpt lat="33.810313" lon="-118.393867">
  <ele>-0.12</ele>
  <time>2026-09-01T01:18:22Z</time>
  <course>0.0</course>
  <speed>0.0</speed>
  <fix>3d</fix>
</trkpt>
<trkpt lat="33.810313" lon="-118.393867">
  <ele>-0.128</ele>
  <time>2026-09-01T01:18:22Z</time>
  <course>187.28</course>
  <speed>0.03605551275463989</speed>
  <fix>3d</fix>
</trkpt>
<trkpt lat="33.810313" lon="-118.393867">
  <ele>-0.12</ele>
  <time>2026-09-01T01:18:22Z</time>
  <course>0.0</course>
  <speed>0.0</speed>
  <fix>3d</fix>
</trkpt>
<trkpt lat="33.810313" lon="-118.393867">
  <ele>-0.13</ele>
  <time>2026-09-01T01:18:22Z</time>
  <course>187.27</course>
  <speed>0.03605551275463989</speed>
  <fix>3d</fix>
</trkpt>
<trkpt lat="33.810313" lon="-118.393867">
  <ele>-0.12</ele>
  <time>2026-09-01T01:18:22Z</time>
  <course>0.0</course>
  <speed>0.0</speed>
  <fix>3d</fix>
</trkpt>
<trkpt lat="33.810313" lon="-118.393867">
  <ele>-0.133</ele>
  <time>2026-09-01T01:18:22Z</time>
  <course>187.27</course>
  <speed>0.03605551275463989</speed>
  <fix>3d</fix>
</trkpt>
<trkpt lat="33.810313" lon="-118.393867">
  <ele>-0.12</ele>
  <time>2026-09-01T01:18:22Z</time>
  <course>0.0</course>
  <speed>0.0</speed>
  <fix>3d</fix>
</trkpt>
<trkpt lat="33.810313" lon="-118.393867">
  <ele>-0.135</ele>
  <time>2026-09-01T01:18:22Z</time>
  <course>187.26</course>
  <speed>0.03605551275463989</speed>
  <fix>3d</fix>
</trkpt>
<trkpt lat="33.810313" lon="-118.393867">
  <ele>-0.12</ele>
  <time>2026-09-01T01:18:22Z</time>
  <course>0.0</course>
  <speed>0.0</speed>
  <fix>3d</fix>
</trkpt>
<trkpt lat="33.810313" lon="-118.393867">
  <ele>-0.136</ele>
  <time>2026-09-01T01:18:22Z</time>
  <course>187.26</course>
  <speed>0.03605551275463989</speed>
  <fix>3d</fix>
</trkpt>
<trkpt lat="33.810313" lon="-118.393867">
  <ele>-0.12</ele>
  <time>2026-09-01T01:18:22Z</time>
  <course>0.0</course>
  <speed>0.0</speed>
  <fix>3d</fix>
</trkpt>
<trkpt lat="33.810313" lon="-118.393867">
  <ele>-0.136</ele>
  <time>2026-09-01T01:18:22Z</time>
  <course>187.25</course>
  <speed>0.03605551275463989</speed>
  <fix>3d</fix>
</trkpt>
<trkpt lat="33.810313" lon="-118.393867">
  <ele>-0.12</ele>
  <time>2026-09-01T01:18:22Z</time>
  <course>0.0</course>
  <speed>0.0</speed>
  <fix>3d</fix>
</trkpt>
<trkpt lat="33.810313" lon="-118.393867">
  <ele>-0.135</ele>
  <time>2026-09-01T01:18:22Z</time>
  <course>187.25</course>
  <speed>0.03605551275463989</speed>
  <fix>3d</fix>
</trkpt>
<trkpt lat="33.810313" lon="-118.393867">
  <ele>-0.12</ele>
  <time>2026-09-01T01:18:22Z</time>
  <course>0.0</course>
  <speed>0.0</speed>
  <fix>3d</fix>
</trkpt>
<trkpt lat="33.810313" lon="-118.393867">
  <ele>-0.134</ele>
  <time>2026-09-01T01:18:22Z</time>
  <course>187.24</course>
  <speed>0.03605551275463989</speed>
  <fix>3d</fix>
</trkpt>
<trkpt lat="33.810313" lon="-118.393867">
  <ele>-0.12</ele>
  <time>2026-09-01T01:18:22Z</time>
  <course>0.0</course>
  <speed>0.0</speed>
  <fix>3d</fix>
</trkpt>
<trkpt lat="33.810313" lon="-118.393867">
  <ele>-0.132</ele>
  <time>2026-09-01T01:18:22Z</time>
  <course>187.24</course>
  <speed>0.03605551275463989</speed>
  <fix>3d</fix>
</trkpt>
<trkpt lat="33.810313" lon="-118.393867">
  <ele>-0.12</ele>
  <time>2026-09-01T01:18:22Z</time>
  <course>0.0</course>
  <speed>0.0</speed>
  <fix>3d</fix>
</trkpt>
<trkpt lat="33.810313" lon="-118.393867">
  <ele>-0.131</ele>
  <time>2026-09-01T01:18:22Z</time>
  <course>187.23</course>
  <speed>0.03605551275463989</speed>
  <fix>3d</fix>
</trkpt>
<trkpt lat="33.810313" lon="-118.393867">
  <ele>-0.12</ele>
  <time>2026-09-01T01:18:22Z</time>
  <course>0.0</course>
  <speed>0.0</speed>
  <fix>3d</fix>
</trkpt>
<trkpt lat="33.810313" lon="-118.393867">
  <ele>-0.131</ele>
  <time>2026-09-01T01:18:23Z</time>
  <course>187.22</course>
  <speed>0.03605551275463989</speed>
  <fix>3d</fix>
</trkpt>
<trkpt lat="33.810313" lon="-118.393867">
  <ele>-0.12</ele>
  <time>2026-09-01T01:18:23Z</time>
  <course>0.0</course>
  <speed>0.0</speed>
  <fix>3d</fix>
</trkpt>
<trkpt lat="33.810313" lon="-118.393867">
  <ele>-0.132</ele>
  <time>2026-09-01T01:18:23Z</time>
  <course>187.22</course>
  <speed>0.03605551275463989</speed>
  <fix>3d</fix>
</trkpt>
<trkpt lat="33.810313" lon="-118.393867">
  <ele>-0.12</ele>
  <time>2026-09-01T01:18:23Z</time>
  <course>0.0</course>
  <speed>0.0</speed>
  <fix>3d</fix>
</trkpt>
<trkpt lat="33.810313" lon="-118.393867">
  <ele>-0.132</ele>
  <time>2026-09-01T01:18:23Z</time>
  <course>187.21</course>
  <speed>0.03605551275463989</speed>
  <fix>3d</fix>
</trkpt>
<trkpt lat="33.810313" lon="-118.393867">
  <ele>-0.12</ele>
  <time>2026-09-01T01:18:23Z</time>
  <course>0.0</course>
  <speed>0.0</speed>
  <fix>3d</fix>
</trkpt>
<trkpt lat="33.810313" lon="-118.393867">
  <ele>-0.133</ele>
  <time>2026-09-01T01:18:23Z</time>
  <course>187.21</course>
  <speed>0.03605551275463989</speed>
  <fix>3d</fix>
</trkpt>
<trkpt lat="33.810313" lon="-118.393867">
  <ele>-0.12</ele>
  <time>2026-09-01T01:18:23Z</time>
  <course>0.0</course>
  <speed>0.0</speed>
  <fix>3d</fix>
</trkpt>
<trkpt lat="33.810313" lon="-118.393867">
  <ele>-0.132</ele>
  <time>2026-09-01T01:18:23Z</time>
  <course>187.2</course>
  <speed>0.03605551275463989</speed>
  <fix>3d</fix>
</trkpt>
<trkpt lat="33.810313" lon="-118.393867">
  <ele>-0.12</ele>
  <time>2026-09-01T01:18:23Z</time>
  <course>0.0</course>
  <speed>0.0</speed>
  <fix>3d</fix>
</trkpt>
<trkpt lat="33.810313" lon="-118.393867">
  <ele>-0.131</ele>
  <time>2026-09-01T01:18:23Z</time>
  <course>187.2</course>
  <speed>0.03605551275463989</speed>
  <fix>3d</fix>
</trkpt>
<trkpt lat="33.810313" lon="-118.393867">
  <ele>-0.12</ele>
  <time>2026-09-01T01:18:23Z</time>
  <course>0.0</course>
  <speed>0.0</speed>
  <fix>3d</fix>
</trkpt>
<trkpt lat="33.810313" lon="-118.393867">
  <ele>-0.129</ele>
  <time>2026-09-01T01:18:23Z</time>
  <course>187.19</course>
  <speed>0.03605551275463989</speed>
  <fix>3d</fix>
</trkpt>
<trkpt lat="33.810313" lon="-118.393867">
  <ele>-0.12</ele>
  <time>2026-09-01T01:18:23Z</time>
  <course>0.0</course>
  <speed>0.0</speed>
  <fix>3d</fix>
</trkpt>
<trkpt lat="33.810313" lon="-118.393867">
  <ele>-0.126</ele>
  <time>2026-09-01T01:18:23Z</time>
  <course>187.19</course>
  <speed>0.03605551275463989</speed>
  <fix>3d</fix>
</trkpt>
<trkpt lat="33.810313" lon="-118.393867">
  <ele>-0.12</ele>
  <time>2026-09-01T01:18:23Z</time>
  <course>0.0</course>
  <speed>0.0</speed>
  <fix>3d</fix>
</trkpt>
<trkpt lat="33.810313" lon="-118.393867">
  <ele>-0.124</ele>
  <time>2026-09-01T01:18:23Z</time>
  <course>187.18</course>
  <speed>0.03605551275463989</speed>
  <fix>3d</fix>
</trkpt>
<trkpt lat="33.810313" lon="-118.393867">
  <ele>-0.12</ele>
  <time>2026-09-01T01:18:23Z</time>
  <course>0.0</course>
  <speed>0.0</speed>
  <fix>3d</fix>
</trkpt>
<trkpt lat="33.810313" lon="-118.393867">
  <ele>-0.123</ele>
  <time>2026-09-01T01:18:23Z</time>
  <course>187.18</course>
  <speed>0.03605551275463989</speed>
  <fix>3d</fix>
</trkpt>
<trkpt lat="33.810313" lon="-118.393867">
  <ele>-0.12</ele>
  <time>2026-09-01T01:18:23Z</time>
  <course>0.0</course>
  <speed>0.0</speed>
  <fix>3d</fix>
</trkpt>
<trkpt lat="33.810313" lon="-118.393867">
  <ele>-0.123</ele>
  <time>2026-09-01T01:18:23Z</time>
  <course>187.17</course>
  <speed>0.03605551275463989</speed>
  <fix>3d</fix>
</trkpt>
<trkpt lat="33.810313" lon="-118.393867">
  <ele>-0.12</ele>
  <time>2026-09-01T01:18:23Z</time>
  <course>0.0</course>
  <speed>0.0</speed>
  <fix>3d</fix>
</trkpt>
<trkpt lat="33.810313" lon="-118.393867">
  <ele>-0.122</ele>
  <time>2026-09-01T01:18:23Z</time>
  <course>187.17</course>
  <speed>0.0</speed>
  <fix>3d</fix>
</trkpt>
<trkpt lat="33.810313" lon="-118.393867">
  <ele>-0.12</ele>
  <time>2026-09-01T01:18:23Z</time>
  <course>0.0</course>
  <speed>0.0</speed>
  <fix>3d</fix>
</trkpt>
<trkpt lat="33.810313" lon="-118.393867">
  <ele>-0.121</ele>
  <time>2026-09-01T01:18:23Z</time>
  <course>187.16</course>
  <speed>0.0</speed>
  <fix>3d</fix>
</trkpt>
<trkpt lat="33.810313" lon="-118.393867">
  <ele>-0.12</ele>
  <time>2026-09-01T01:18:23Z</time>
  <course>0.0</course>
  <speed>0.0</speed>
  <fix>3d</fix>
</trkpt>
<trkpt lat="33.810313" lon="-118.393867">
  <ele>-0.12</ele>
  <time>2026-09-01T01:18:23Z</time>
  <course>187.16</course>
  <speed>0.0</speed>
  <fix>3d</fix>
</trkpt>
<trkpt lat="33.810313" lon="-118.393867">
  <ele>-0.12</ele>
  <time>2026-09-01T01:18:23Z</time>
  <course>0.0</course>
  <speed>0.0</speed>
  <fix>3d</fix>
</trkpt>
<trkpt lat="33.810313" lon="-118.393867">
  <ele>-0.119</ele>
  <time>2026-09-01T01:18:23Z</time>
  <course>187.15</course>
  <speed>0.0</speed>
  <fix>3d</fix>
</trkpt>
<trkpt lat="33.810313" lon="-118.393867">
  <ele>-0.12</ele>
  <time>2026-09-01T01:18:23Z</time>
  <course>0.0</course>
  <speed>0.0</speed>
  <fix>3d</fix>
</trkpt>
<trkpt lat="33.810313" lon="-118.393867">
  <ele>-0.116</ele>
  <time>2026-09-01T01:18:23Z</time>
  <course>187.15</course>
  <speed>0.0</speed>
  <fix>3d</fix>
</trkpt>
<trkpt lat="33.810313" lon="-118.393867">
  <ele>-0.12</ele>
  <time>2026-09-01T01:18:23Z</time>
  <course>0.0</course>
  <speed>0.0</speed>
  <fix>3d</fix>
</trkpt>
<trkpt lat="33.810313" lon="-118.393867">
  <ele>-0.114</ele>
  <time>2026-09-01T01:18:23Z</time>
  <course>187.14</course>
  <speed>0.0</speed>
  <fix>3d</fix>
</trkpt>
<trkpt lat="33.810313" lon="-118.393867">
  <ele>-0.12</ele>
  <time>2026-09-01T01:18:23Z</time>
  <course>0.0</course>
  <speed>0.0</speed>
  <fix>3d</fix>
</trkpt>
<trkpt lat="33.810313" lon="-118.393867">
  <ele>-0.113</ele>
  <time>2026-09-01T01:18:23Z</time>
  <course>187.14</course>
  <speed>0.0</speed>
  <fix>3d</fix>
</trkpt>
<trkpt lat="33.810313" lon="-118.393867">
  <ele>-0.12</ele>
  <time>2026-09-01T01:18:23Z</time>
  <course>0.0</course>
  <speed>0.0</speed>
  <fix>3d</fix>
</trkpt>
<trkpt lat="33.810313" lon="-118.393867">
  <ele>-0.112</ele>
  <time>2026-09-01T01:18:23Z</time>
  <course>187.13</course>
  <speed>0.0</speed>
  <fix>3d</fix>
</trkpt>
<trkpt lat="33.810313" lon="-118.393867">
  <ele>-0.12</ele>
  <time>2026-09-01T01:18:23Z</time>
  <course>0.0</course>
  <speed>0.0</speed>
  <fix>3d</fix>
</trkpt>
<trkpt lat="33.810313" lon="-118.393867">
  <ele>-0.113</ele>
  <time>2026-09-01T01:18:23Z</time>
  <course>187.13</course>
  <speed>0.0</speed>
  <fix>3d</fix>
</trkpt>
<trkpt lat="33.810313" lon="-118.393867">
  <ele>-0.12</ele>
  <time>2026-09-01T01:18:23Z</time>
  <course>0.0</course>
  <speed>0.0</speed>
  <fix>3d</fix>
</trkpt>
<trkpt lat="33.810313" lon="-118.393867">
  <ele>-0.114</ele>
  <time>2026-09-01T01:18:23Z</time>
  <course>187.12</course>
  <speed>0.0</speed>
  <fix>3d</fix>
</trkpt>
<trkpt lat="33.810313" lon="-118.393867">
  <ele>-0.12</ele>
  <time>2026-09-01T01:18:23Z</time>
  <course>0.0</course>
  <speed>0.0</speed>
  <fix>3d</fix>
</trkpt>
<trkpt lat="33.810313" lon="-118.393867">
  <ele>-0.117</ele>
  <time>2026-09-01T01:18:23Z</time>
  <course>187.12</course>
  <speed>0.0</speed>
  <fix>3d</fix>
</trkpt>
<trkpt lat="33.810313" lon="-118.393867">
  <ele>-0.12</ele>
  <time>2026-09-01T01:18:23Z</time>
  <course>0.0</course>
  <speed>0.0</speed>
  <fix>3d</fix>
</trkpt>
<trkpt lat="33.810313" lon="-118.393867">
  <ele>-0.119</ele>
  <time>2026-09-01T01:18:23Z</time>
  <course>187.11</course>
  <speed>0.01</speed>
  <fix>3d</fix>
</trkpt>
<trkpt lat="33.810313" lon="-118.393867">
  <ele>-0.12</ele>
  <time>2026-09-01T01:18:23Z</time>
  <course>0.0</course>
  <speed>0.0</speed>
  <fix>3d</fix>
</trkpt>
<trkpt lat="33.810313" lon="-118.393867">
  <ele>-0.12</ele>
  <time>2026-09-01T01:18:23Z</time>
  <course>187.11</course>
  <speed>0.01</speed>
  <fix>3d</fix>
</trkpt>
<trkpt lat="33.810313" lon="-118.393867">
  <ele>-0.12</ele>
  <time>2026-09-01T01:18:23Z</time>
  <course>0.0</course>
  <speed>0.0</speed>
  <fix>3d</fix>
</trkpt>
<trkpt lat="33.810313" lon="-118.393867">
  <ele>-0.12</ele>
  <time>2026-09-01T01:18:23Z</time>
  <course>187.11</course>
  <speed>0.01</speed>
  <fix>3d</fix>
</trkpt>
<trkpt lat="33.810313" lon="-118.393867">
  <ele>-0.121</ele>
  <time>2026-09-01T01:18:23Z</time>
  <course>187.1</course>
  <speed>0.01</speed>
  <fix>3d</fix>
</trkpt>
<trkpt lat="33.810313" lon="-118.393867">
  <ele>-0.12</ele>
  <time>2026-09-01T01:18:23Z</time>
  <course>0.0</course>
  <speed>0.0</speed>
  <fix>3d</fix>
</trkpt>
<trkpt lat="33.810313" lon="-118.393867">
  <ele>-0.122</ele>
  <time>2026-09-01T01:18:23Z</time>
  <course>187.1</course>
  <speed>0.01414213562373095</speed>
  <fix>3d</fix>
</trkpt>
<trkpt lat="33.810313" lon="-118.393867">
  <ele>-0.12</ele>
  <time>2026-09-01T01:18:23Z</time>
  <course>0.0</course>
  <speed>0.0</speed>
  <fix>3d</fix>
</trkpt>
<trkpt lat="33.810313" lon="-118.393867">
  <ele>-0.146</ele>
  <time>2026-09-01T01:18:23Z</time>
  <course>187.09</course>
  <speed>0.01414213562373095</speed>
  <fix>3d</fix>
</trkpt>
<trkpt lat="33.810313" lon="-118.393867">
  <ele>-0.12</ele>
  <time>2026-09-01T01:18:23Z</time>
  <course>0.0</course>
  <speed>0.0</speed>
  <fix>3d</fix>
</trkpt>
<trkpt lat="33.810313" lon="-118.393867">
  <ele>-0.201</ele>
  <time>2026-09-01T01:18:23Z</time>
  <course>187.09</course>
  <speed>0.01414213562373095</speed>
  <fix>3d</fix>
</trkpt>
<trkpt lat="33.810313" lon="-118.393867">
  <ele>-0.13</ele>
  <time>2026-09-01T01:18:23Z</time>
  <course>275.0</course>
  <speed>0.0</speed>
  <fix>3d</fix>
</trkpt>
<trkpt lat="33.810313" lon="-118.393867">
  <ele>-0.202</ele>
  <time>2026-09-01T01:18:23Z</time>
  <course>187.09</course>
  <speed>0.01414213562373095</speed>
  <fix>3d</fix>
</trkpt>
<trkpt lat="33.810313" lon="-118.393867">
  <ele>-0.275</ele>
  <time>2026-09-01T01:18:23Z</time>
  <course>187.08</course>
  <speed>0.01414213562373095</speed>
  <fix>3d</fix>
</trkpt>
<trkpt lat="33.810313" lon="-118.393867">
  <ele>-0.13</ele>
  <time>2026-09-01T01:18:23Z</time>
  <course>275.0</course>
  <speed>0.0</speed>
  <fix>3d</fix>
</trkpt>
<trkpt lat="33.810313" lon="-118.393867">
  <ele>-0.277</ele>
  <time>2026-09-01T01:18:23Z</time>
  <course>187.08</course>
  <speed>0.01414213562373095</speed>
  <fix>3d</fix>
</trkpt>
<trkpt lat="33.810313" lon="-118.393867">
  <ele>-0.359</ele>
  <time>2026-09-01T01:18:23Z</time>
  <course>187.08</course>
  <speed>0.01414213562373095</speed>
  <fix>3d</fix>
</trkpt>
<trkpt lat="33.810313" lon="-118.393867">
  <ele>-0.21</ele>
  <time>2026-09-01T01:18:23Z</time>
  <course>275.0</course>
  <speed>0.0</speed>
  <fix>3d</fix>
</trkpt>
<trkpt lat="33.810313" lon="-118.393867">
  <ele>-0.384</ele>
  <time>2026-09-01T01:18:23Z</time>
  <course>187.08</course>
  <speed>0.01414213562373095</speed>
  <fix>3d</fix>
</trkpt>
<trkpt lat="33.810313" lon="-118.393867">
  <ele>-0.447</ele>
  <time>2026-09-01T01:18:23Z</time>
  <course>187.07</course>
  <speed>0.01414213562373095</speed>
  <fix>3d</fix>
</trkpt>
<trkpt lat="33.810313" lon="-118.393867">
  <ele>-0.21</ele>
  <time>2026-09-01T01:18:23Z</time>
  <course>275.0</course>
  <speed>0.0</speed>
  <fix>3d</fix>
</trkpt>
<trkpt lat="33.810313" lon="-118.393867">
  <ele>-0.474</ele>
  <time>2026-09-01T01:18:23Z</time>
  <course>187.07</course>
  <speed>0.01414213562373095</speed>
  <fix>3d</fix>
</trkpt>
<trkpt lat="33.810313" lon="-118.393867">
  <ele>-0.54</ele>
  <time>2026-09-01T01:18:23Z</time>
  <course>187.07</course>
  <speed>0.01414213562373095</speed>
  <fix>3d</fix>
</trkpt>
<trkpt lat="33.810313" lon="-118.393867">
  <ele>-0.36</ele>
  <time>2026-09-01T01:18:23Z</time>
  <course>275.0</course>
  <speed>0.0</speed>
  <fix>3d</fix>
</trkpt>
<trkpt lat="33.810313" lon="-118.393867">
  <ele>-0.568</ele>
  <time>2026-09-01T01:18:23Z</time>
  <course>187.07</course>
  <speed>0.01414213562373095</speed>
  <fix>3d</fix>
</trkpt>
<trkpt lat="33.810313" lon="-118.393867">
  <ele>-0.635</ele>
  <time>2026-09-01T01:18:23Z</time>
  <course>187.06</course>
  <speed>0.01414213562373095</speed>
  <fix>3d</fix>
</trkpt>
<trkpt lat="33.810313" lon="-118.393867">
  <ele>-0.36</ele>
  <time>2026-09-01T01:18:23Z</time>
  <course>275.0</course>
  <speed>0.0</speed>
  <fix>3d</fix>
</trkpt>
<trkpt lat="33.810313" lon="-118.393867">
  <ele>-0.667</ele>
  <time>2026-09-01T01:18:23Z</time>
  <course>187.06</course>
  <speed>0.01414213562373095</speed>
  <fix>3d</fix>
</trkpt>
<trkpt lat="33.810313" lon="-118.393867">
  <ele>-0.731</ele>
  <time>2026-09-01T01:18:23Z</time>
  <course>187.06</course>
  <speed>0.01414213562373095</speed>
  <fix>3d</fix>
</trkpt>
<trkpt lat="33.810313" lon="-118.393867">
  <ele>-0.52</ele>
  <time>2026-09-01T01:18:23Z</time>
  <course>275.0</course>
  <speed>0.0</speed>
  <fix>3d</fix>
</trkpt>
<trkpt lat="33.810313" lon="-118.393867">
  <ele>-0.759</ele>
  <time>2026-09-01T01:18:23Z</time>
  <course>187.06</course>
  <speed>0.01414213562373095</speed>
  <fix>3d</fix>
</trkpt>
<trkpt lat="33.810313" lon="-118.393867">
  <ele>-0.827</ele>
  <time>2026-09-01T01:18:23Z</time>
  <course>184.85</course>
  <speed>0.01414213562373095</speed>
  <fix>3d</fix>
</trkpt>
<trkpt lat="33.810313" lon="-118.393867">
  <ele>-0.52</ele>
  <time>2026-09-01T01:18:23Z</time>
  <course>275.0</course>
  <speed>0.0</speed>
  <fix>3d</fix>
</trkpt>
<trkpt lat="33.810313" lon="-118.393867">
  <ele>-0.829</ele>
  <time>2026-09-01T01:18:23Z</time>
  <course>184.85</course>
  <speed>0.01414213562373095</speed>
  <fix>3d</fix>
</trkpt>
<trkpt lat="33.810313" lon="-118.393867">
  <ele>-0.923</ele>
  <time>2026-09-01T01:18:23Z</time>
  <course>184.84</course>
  <speed>0.01414213562373095</speed>
  <fix>3d</fix>
</trkpt>
<trkpt lat="33.810313" lon="-118.393867">
  <ele>-0.7</ele>
  <time>2026-09-01T01:18:23Z</time>
  <course>275.0</course>
  <speed>0.0</speed>
  <fix>3d</fix>
</trkpt>
<trkpt lat="33.810313" lon="-118.393867">
  <ele>-0.925</ele>
  <time>2026-09-01T01:18:23Z</time>
  <course>184.84</course>
  <speed>0.01414213562373095</speed>
  <fix>3d</fix>
</trkpt>
<trkpt lat="33.810313" lon="-118.393867">
  <ele>-1.02</ele>
  <time>2026-09-01T01:18:23Z</time>
  <course>184.85</course>
  <speed>0.01414213562373095</speed>
  <fix>3d</fix>
</trkpt>
<trkpt lat="33.810313" lon="-118.393867">
  <ele>-0.7</ele>
  <time>2026-09-01T01:18:23Z</time>
  <course>275.0</course>
  <speed>0.0</speed>
  <fix>3d</fix>
</trkpt>
<trkpt lat="33.810313" lon="-118.393867">
  <ele>-1.022</ele>
  <time>2026-09-01T01:18:23Z</time>
  <course>184.85</course>
  <speed>0.01414213562373095</speed>
  <fix>3d</fix>
</trkpt>
<trkpt lat="33.810313" lon="-118.393867">
  <ele>-1.115</ele>
  <time>2026-09-01T01:18:23Z</time>
  <course>184.86</course>
  <speed>0.01414213562373095</speed>
  <fix>3d</fix>
</trkpt>
<trkpt lat="33.810313" lon="-118.393867">
  <ele>-0.88</ele>
  <time>2026-09-01T01:18:23Z</time>
  <course>275.0</course>
  <speed>0.0</speed>
  <fix>3d</fix>
</trkpt>
<trkpt lat="33.810313" lon="-118.393867">
  <ele>-1.117</ele>
  <time>2026-09-01T01:18:23Z</time>
  <course>184.86</course>
  <speed>0.01414213562373095</speed>
  <fix>3d</fix>
</trkpt>
<trkpt lat="33.810313" lon="-118.393867">
  <ele>-1.209</ele>
  <time>2026-09-01T01:18:23Z</time>
  <course>184.87</course>
  <speed>0.01414213562373095</speed>
  <fix>3d</fix>
</trkpt>
<trkpt lat="33.810313" lon="-118.393867">
  <ele>-0.88</ele>
  <time>2026-09-01T01:18:23Z</time>
  <course>275.0</course>
  <speed>0.0</speed>
  <fix>3d</fix>
</trkpt>
<trkpt lat="33.810313" lon="-118.393867">
  <ele>-1.212</ele>
  <time>2026-09-01T01:18:23Z</time>
  <course>184.87</course>
  <speed>0.01414213562373095</speed>
  <fix>3d</fix>
</trkpt>
<trkpt lat="33.810313" lon="-118.393867">
  <ele>-1.304</ele>
  <time>2026-09-01T01:18:23Z</time>
  <course>184.89</course>
  <speed>0.01414213562373095</speed>
  <fix>3d</fix>
</trkpt>
<trkpt lat="33.810313" lon="-118.393867">
  <ele>-1.06</ele>
  <time>2026-09-01T01:18:23Z</time>
  <course>275.0</course>
  <speed>0.0</speed>
  <fix>3d</fix>
</trkpt>
<trkpt lat="33.810313" lon="-118.393867">
  <ele>-1.333</ele>
  <time>2026-09-01T01:18:23Z</time>
  <course>184.89</course>
  <speed>0.01414213562373095</speed>
  <fix>3d</fix>
</trkpt>
<trkpt lat="33.810313" lon="-118.393867">
  <ele>-1.401</ele>
  <time>2026-09-01T01:18:23Z</time>
  <course>184.9</course>
  <speed>0.01414213562373095</speed>
  <fix>3d</fix>
</trkpt>
<trkpt lat="33.810313" lon="-118.393867">
  <ele>-1.06</ele>
  <time>2026-09-01T01:18:23Z</time>
  <course>275.0</course>
  <speed>0.0</speed>
  <fix>3d</fix>
</trkpt>
<trkpt lat="33.810313" lon="-118.393867">
  <ele>-1.427</ele>
  <time>2026-09-01T01:18:23Z</time>
  <course>184.9</course>
  <speed>0.01414213562373095</speed>
  <fix>3d</fix>
</trkpt>
<trkpt lat="33.810313" lon="-118.393867">
  <ele>-1.497</ele>
  <time>2026-09-01T01:18:23Z</time>
  <course>184.91</course>
  <speed>0.01414213562373095</speed>
  <fix>3d</fix>
</trkpt>
<trkpt lat="33.810313" lon="-118.393867">
  <ele>-1.24</ele>
  <time>2026-09-01T01:18:23Z</time>
  <course>275.0</course>
  <speed>0.0</speed>
  <fix>3d</fix>
</trkpt>
<trkpt lat="33.810313" lon="-118.393867">
  <ele>-1.526</ele>
  <time>2026-09-01T01:18:23Z</time>
  <course>184.91</course>
  <speed>0.01414213562373095</speed>
  <fix>3d</fix>
</trkpt>
<trkpt lat="33.810313" lon="-118.393867">
  <ele>-1.594</ele>
  <time>2026-09-01T01:18:23Z</time>
  <course>184.92</course>
  <speed>0.01</speed>
  <fix>3d</fix>
</trkpt>
<trkpt lat="33.810313" lon="-118.393867">
  <ele>-1.24</ele>
  <time>2026-09-01T01:18:23Z</time>
  <course>275.0</course>
  <speed>0.0</speed>
  <fix>3d</fix>
</trkpt>
<trkpt lat="33.810313" lon="-118.393867">
  <ele>-1.624</ele>
  <time>2026-09-01T01:18:23Z</time>
  <course>184.92</course>
  <speed>0.01414213562373095</speed>
  <fix>3d</fix>
</trkpt>
<trkpt lat="33.810313" lon="-118.393867">
  <ele>-1.693</ele>
  <time>2026-09-01T01:18:23Z</time>
  <course>184.93</course>
  <speed>0.01</speed>
  <fix>3d</fix>
</trkpt>
<trkpt lat="33.810313" lon="-118.393867">
  <ele>-1.42</ele>
  <time>2026-09-01T01:18:23Z</time>
  <course>275.0</course>
  <speed>0.0</speed>
  <fix>3d</fix>
</trkpt>
<trkpt lat="33.810313" lon="-118.393867">
  <ele>-1.723</ele>
  <time>2026-09-01T01:18:23Z</time>
  <course>184.93</course>
  <speed>0.01</speed>
  <fix>3d</fix>
</trkpt>
<trkpt lat="33.810313" lon="-118.393867">
  <ele>-1.792</ele>
  <time>2026-09-01T01:18:23Z</time>
  <course>184.94</course>
  <speed>0.01</speed>
  <fix>3d</fix>
</trkpt>
<trkpt lat="33.810313" lon="-118.393867">
  <ele>-1.42</ele>
  <time>2026-09-01T01:18:23Z</time>
  <course>275.0</course>
  <speed>0.0</speed>
  <fix>3d</fix>
</trkpt>
<trkpt lat="33.810313" lon="-118.393867">
  <ele>-1.821</ele>
  <time>2026-09-01T01:18:23Z</time>
  <course>184.95</course>
  <speed>0.01</speed>
  <fix>3d</fix>
</trkpt>
<trkpt lat="33.810313" lon="-118.393867">
  <ele>-1.89</ele>
  <time>2026-09-01T01:18:23Z</time>
  <course>184.95</course>
  <speed>0.01</speed>
  <fix>3d</fix>
</trkpt>
<trkpt lat="33.810313" lon="-118.393867">
  <ele>-1.61</ele>
  <time>2026-09-01T01:18:23Z</time>
  <course>275.0</course>
  <speed>0.0</speed>
  <fix>3d</fix>
</trkpt>
<trkpt lat="33.810313" lon="-118.393867">
  <ele>-1.92</ele>
  <time>2026-09-01T01:18:23Z</time>
  <course>184.96</course>
  <speed>0.01</speed>
  <fix>3d</fix>
</trkpt>
<trkpt lat="33.810313" lon="-118.393867">
  <ele>-1.989</ele>
  <time>2026-09-01T01:18:23Z</time>
  <course>184.96</course>
  <speed>0.0</speed>
  <fix>3d</fix>
</trkpt>
<trkpt lat="33.810313" lon="-118.393867">
  <ele>-1.61</ele>
  <time>2026-09-01T01:18:23Z</time>
  <course>275.0</course>
  <speed>0.0</speed>
  <fix>3d</fix>
</trkpt>
<trkpt lat="33.810313" lon="-118.393867">
  <ele>-2.015</ele>
  <time>2026-09-01T01:18:23Z</time>
  <course>184.97</course>
  <speed>0.0</speed>
  <fix>3d</fix>
</trkpt>
<trkpt lat="33.810313" lon="-118.393867">
  <ele>-2.087</ele>
  <time>2026-09-01T01:18:23Z</time>
  <course>184.98</course>
  <speed>0.0</speed>
  <fix>3d</fix>
</trkpt>
<trkpt lat="33.810313" lon="-118.393867">
  <ele>-1.8</ele>
  <time>2026-09-01T01:18:23Z</time>
  <course>275.0</course>
  <speed>0.0</speed>
  <fix>3d</fix>
</trkpt>
<trkpt lat="33.810313" lon="-118.393867">
  <ele>-2.113</ele>
  <time>2026-09-01T01:18:23Z</time>
  <course>184.98</course>
  <speed>0.0</speed>
  <fix>3d</fix>
</trkpt>
<trkpt lat="33.810313" lon="-118.393867">
  <ele>-2.184</ele>
  <time>2026-09-01T01:18:23Z</time>
  <course>184.99</course>
  <speed>0.0</speed>
  <fix>3d</fix>
</trkpt>
<trkpt lat="33.810313" lon="-118.393867">
  <ele>-1.8</ele>
  <time>2026-09-01T01:18:23Z</time>
  <course>275.0</course>
  <speed>0.0</speed>
  <fix>3d</fix>
</trkpt>
<trkpt lat="33.810313" lon="-118.393867">
  <ele>-2.214</ele>
  <time>2026-09-01T01:18:23Z</time>
  <course>184.99</course>
  <speed>0.0</speed>
  <fix>3d</fix>
</trkpt>
<trkpt lat="33.810313" lon="-118.393867">
  <ele>-2.283</ele>
  <time>2026-09-01T01:18:23Z</time>
  <course>185.0</course>
  <speed>0.0</speed>
  <fix>3d</fix>
</trkpt>
<trkpt lat="33.810313" lon="-118.393867">
  <ele>-1.99</ele>
  <time>2026-09-01T01:18:23Z</time>
  <course>275.0</course>
  <speed>0.0</speed>
  <fix>3d</fix>
</trkpt>
<trkpt lat="33.810313" lon="-118.393867">
  <ele>-2.288</ele>
  <time>2026-09-01T01:18:23Z</time>
  <course>185.0</course>
  <speed>0.0</speed>
  <fix>3d</fix>
</trkpt>
<trkpt lat="33.810313" lon="-118.393867">
  <ele>-2.381</ele>
  <time>2026-09-01T01:18:23Z</time>
  <course>185.01</course>
  <speed>0.0</speed>
  <fix>3d</fix>
</trkpt>
<trkpt lat="33.810313" lon="-118.393867">
  <ele>-1.99</ele>
  <time>2026-09-01T01:18:23Z</time>
  <course>275.0</course>
  <speed>0.0</speed>
  <fix>3d</fix>
</trkpt>
<trkpt lat="33.810313" lon="-118.393867">
  <ele>-2.386</ele>
  <time>2026-09-01T01:18:23Z</time>
  <course>185.01</course>
  <speed>0.0</speed>
  <fix>3d</fix>
</trkpt>
<trkpt lat="33.810313" lon="-118.393867">
  <ele>-2.479</ele>
  <time>2026-09-01T01:18:23Z</time>
  <course>185.02</course>
  <speed>0.0</speed>
  <fix>3d</fix>
</trkpt>
<trkpt lat="33.810313" lon="-118.393867">
  <ele>-2.18</ele>
  <time>2026-09-01T01:18:23Z</time>
  <course>275.0</course>
  <speed>0.0</speed>
  <fix>3d</fix>
</trkpt>
<trkpt lat="33.810313" lon="-118.393867">
  <ele>-2.506</ele>
  <time>2026-09-01T01:18:23Z</time>
  <course>185.02</course>
  <speed>0.0</speed>
  <fix>3d</fix>
</trkpt>
<trkpt lat="33.810313" lon="-118.393867">
  <ele>-2.578</ele>
  <time>2026-09-01T01:18:23Z</time>
  <course>185.03</course>
  <speed>0.0</speed>
  <fix>3d</fix>
</trkpt>
<trkpt lat="33.810313" lon="-118.393867">
  <ele>-2.18</ele>
  <time>2026-09-01T01:18:23Z</time>
  <course>275.0</course>
  <speed>0.0</speed>
  <fix>3d</fix>
</trkpt>
<trkpt lat="33.810313" lon="-118.393867">
  <ele>-2.613</ele>
  <time>2026-09-01T01:18:23Z</time>
  <course>185.03</course>
  <speed>0.0</speed>
  <fix>3d</fix>
</trkpt>
<trkpt lat="33.810313" lon="-118.393867">
  <ele>-2.677</ele>
  <time>2026-09-01T01:18:23Z</time>
  <course>185.04</course>
  <speed>0.0</speed>
  <fix>3d</fix>
</trkpt>
<trkpt lat="33.810313" lon="-118.393867">
  <ele>-2.38</ele>
  <time>2026-09-01T01:18:23Z</time>
  <course>275.0</course>
  <speed>0.0</speed>
  <fix>3d</fix>
</trkpt>
<trkpt lat="33.810313" lon="-118.393867">
  <ele>-2.707</ele>
  <time>2026-09-01T01:18:23Z</time>
  <course>185.04</course>
  <speed>0.0</speed>
  <fix>3d</fix>
</trkpt>
<trkpt lat="33.810313" lon="-118.393867">
  <ele>-2.775</ele>
  <time>2026-09-01T01:18:23Z</time>
  <course>185.05</course>
  <speed>0.0</speed>
  <fix>3d</fix>
</trkpt>
<trkpt lat="33.810313" lon="-118.393867">
  <ele>-2.38</ele>
  <time>2026-09-01T01:18:23Z</time>
  <course>275.0</course>
  <speed>0.0</speed>
  <fix>3d</fix>
</trkpt>
<trkpt lat="33.810313" lon="-118.393867">
  <ele>-2.804</ele>
  <time>2026-09-01T01:18:23Z</time>
  <course>185.05</course>
  <speed>0.0</speed>
  <fix>3d</fix>
</trkpt>
<trkpt lat="33.810313" lon="-118.393867">
  <ele>-2.872</ele>
  <time>2026-09-01T01:18:23Z</time>
  <course>185.06</course>
  <speed>0.0</speed>
  <fix>3d</fix>
</trkpt>
<trkpt lat="33.810313" lon="-118.393867">
  <ele>-2.57</ele>
  <time>2026-09-01T01:18:23Z</time>
  <course>275.0</course>
  <speed>0.0</speed>
  <fix>3d</fix>
</trkpt>
<trkpt lat="33.810313" lon="-118.393867">
  <ele>-2.898</ele>
  <time>2026-09-01T01:18:23Z</time>
  <course>185.07</course>
  <speed>0.0</speed>
  <fix>3d</fix>
</trkpt>
<trkpt lat="33.810313" lon="-118.393867">
  <ele>-2.969</ele>
  <time>2026-09-01T01:18:23Z</time>
  <course>185.07</course>
  <speed>0.0</speed>
  <fix>3d</fix>
</trkpt>
<trkpt lat="33.810313" lon="-118.393867">
  <ele>-2.57</ele>
  <time>2026-09-01T01:18:23Z</time>
  <course>275.0</course>
  <speed>0.0</speed>
  <fix>3d</fix>
</trkpt>
<trkpt lat="33.810313" lon="-118.393867">
  <ele>-2.996</ele>
  <time>2026-09-01T01:18:23Z</time>
  <course>185.08</course>
  <speed>0.0</speed>
  <fix>3d</fix>
</trkpt>
<trkpt lat="33.810313" lon="-118.393867">
  <ele>-3.068</ele>
  <time>2026-09-01T01:18:23Z</time>
  <course>185.08</course>
  <speed>0.0</speed>
  <fix>3d</fix>
</trkpt>
<trkpt lat="33.810313" lon="-118.393867">
  <ele>-2.76</ele>
  <time>2026-09-01T01:18:23Z</time>
  <course>275.0</course>
  <speed>0.0</speed>
  <fix>3d</fix>
</trkpt>
<trkpt lat="33.810313" lon="-118.393867">
  <ele>-3.092</ele>
  <time>2026-09-01T01:18:23Z</time>
  <course>185.09</course>
  <speed>0.0</speed>
  <fix>3d</fix>
</trkpt>
<trkpt lat="33.810313" lon="-118.393867">
  <ele>-3.166</ele>
  <time>2026-09-01T01:18:23Z</time>
  <course>185.09</course>
  <speed>0.0</speed>
  <fix>3d</fix>
</trkpt>
<trkpt lat="33.810313" lon="-118.393867">
  <ele>-2.76</ele>
  <time>2026-09-01T01:18:23Z</time>
  <course>275.0</course>
  <speed>0.0</speed>
  <fix>3d</fix>
</trkpt>
<trkpt lat="33.810313" lon="-118.393867">
  <ele>-3.19</ele>
  <time>2026-09-01T01:18:23Z</time>
  <course>185.1</course>
  <speed>0.0</speed>
  <fix>3d</fix>
</trkpt>
<trkpt lat="33.810313" lon="-118.393867">
  <ele>-3.263</ele>
  <time>2026-09-01T01:18:23Z</time>
  <course>185.11</course>
  <speed>0.0</speed>
  <fix>3d</fix>
</trkpt>
<trkpt lat="33.810313" lon="-118.393867">
  <ele>-2.95</ele>
  <time>2026-09-01T01:18:23Z</time>
  <course>275.0</course>
  <speed>0.0</speed>
  <fix>3d</fix>
</trkpt>
<trkpt lat="33.810313" lon="-118.393867">
  <ele>-3.266</ele>
  <time>2026-09-01T01:18:23Z</time>
  <course>185.11</course>
  <speed>0.0</speed>
  <fix>3d</fix>
</trkpt>
<trkpt lat="33.810313" lon="-118.393867">
  <ele>-3.36</ele>
  <time>2026-09-01T01:18:23Z</time>
  <course>185.12</course>
  <speed>0.0</speed>
  <fix>3d</fix>
</trkpt>
<trkpt lat="33.810313" lon="-118.393867">
  <ele>-2.95</ele>
  <time>2026-09-01T01:18:23Z</time>
  <course>275.0</course>
  <speed>0.0</speed>
  <fix>3d</fix>
</trkpt>
<trkpt lat="33.810313" lon="-118.393867">
  <ele>-3.385</ele>
  <time>2026-09-01T01:18:23Z</time>
  <course>185.12</course>
  <speed>0.0</speed>
  <fix>3d</fix>
</trkpt>
<trkpt lat="33.810313" lon="-118.393867">
  <ele>-3.458</ele>
  <time>2026-09-01T01:18:23Z</time>
  <course>185.13</course>
  <speed>0.0</speed>
  <fix>3d</fix>
</trkpt>
<trkpt lat="33.810313" lon="-118.393867">
  <ele>-3.15</ele>
  <time>2026-09-01T01:18:23Z</time>
  <course>275.0</course>
  <speed>0.0</speed>
  <fix>3d</fix>
</trkpt>
<trkpt lat="33.810313" lon="-118.393867">
  <ele>-3.46</ele>
  <time>2026-09-01T01:18:23Z</time>
  <course>185.13</course>
  <speed>0.0</speed>
  <fix>3d</fix>
</trkpt>
<trkpt lat="33.810313" lon="-118.393867">
  <ele>-3.556</ele>
  <time>2026-09-01T01:18:23Z</time>
  <course>185.14</course>
  <speed>0.0</speed>
  <fix>3d</fix>
</trkpt>
<trkpt lat="33.810313" lon="-118.393867">
  <ele>-3.15</ele>
  <time>2026-09-01T01:18:23Z</time>
  <course>275.0</course>
  <speed>0.0</speed>
  <fix>3d</fix>
</trkpt>
<trkpt lat="33.810313" lon="-118.393867">
  <ele>-3.558</ele>
  <time>2026-09-01T01:18:23Z</time>
  <course>185.14</course>
  <speed>0.0</speed>
  <fix>3d</fix>
</trkpt>
<trkpt lat="33.810313" lon="-118.393867">
  <ele>-3.654</ele>
  <time>2026-09-01T01:18:23Z</time>
  <course>185.15</course>
  <speed>0.0</speed>
  <fix>3d</fix>
</trkpt>
<trkpt lat="33.810313" lon="-118.393867">
  <ele>-3.34</ele>
  <time>2026-09-01T01:18:23Z</time>
  <course>275.0</course>
  <speed>0.0</speed>
  <fix>3d</fix>
</trkpt>
<trkpt lat="33.810313" lon="-118.393867">
  <ele>-3.681</ele>
  <time>2026-09-01T01:18:23Z</time>
  <course>185.15</course>
  <speed>0.0</speed>
  <fix>3d</fix>
</trkpt>
<trkpt lat="33.810313" lon="-118.393867">
  <ele>-3.752</ele>
  <time>2026-09-01T01:18:23Z</time>
  <course>185.16</course>
  <speed>0.0</speed>
  <fix>3d</fix>
</trkpt>
<trkpt lat="33.810313" lon="-118.393867">
  <ele>-3.34</ele>
  <time>2026-09-01T01:18:23Z</time>
  <course>275.0</course>
  <speed>0.0</speed>
  <fix>3d</fix>
</trkpt>
<trkpt lat="33.810313" lon="-118.393867">
  <ele>-3.779</ele>
  <time>2026-09-01T01:18:23Z</time>
  <course>185.16</course>
  <speed>0.0</speed>
  <fix>3d</fix>
</trkpt>
<trkpt lat="33.810313" lon="-118.393867">
  <ele>-3.851</ele>
  <time>2026-09-01T01:18:23Z</time>
  <course>185.17</course>
  <speed>0.0</speed>
  <fix>3d</fix>
</trkpt>
<trkpt lat="33.810313" lon="-118.393867">
  <ele>-3.53</ele>
  <time>2026-09-01T01:18:23Z</time>
  <course>275.0</course>
  <speed>0.0</speed>
  <fix>3d</fix>
</trkpt>
<trkpt lat="33.810313" lon="-118.393867">
  <ele>-3.877</ele>
  <time>2026-09-01T01:18:23Z</time>
  <course>185.17</course>
  <speed>0.0</speed>
  <fix>3d</fix>
</trkpt>
<trkpt lat="33.810313" lon="-118.393867">
  <ele>-3.949</ele>
  <time>2026-09-01T01:18:23Z</time>
  <course>185.18</course>
  <speed>0.0</speed>
  <fix>3d</fix>
</trkpt>
<trkpt lat="33.810313" lon="-118.393867">
  <ele>-3.53</ele>
  <time>2026-09-01T01:18:23Z</time>
  <course>275.0</course>
  <speed>0.0</speed>
  <fix>3d</fix>
</trkpt>
<trkpt lat="33.810313" lon="-118.393867">
  <ele>-3.976</ele>
  <time>2026-09-01T01:18:23Z</time>
  <course>185.18</course>
  <speed>0.0</speed>
  <fix>3d</fix>
</trkpt>
<trkpt lat="33.810313" lon="-118.393867">
  <ele>-4.048</ele>
  <time>2026-09-01T01:18:23Z</time>
  <course>185.19</course>
  <speed>0.0</speed>
  <fix>3d</fix>
</trkpt>
<trkpt lat="33.810313" lon="-118.393867">
  <ele>-3.73</ele>
  <time>2026-09-01T01:18:23Z</time>
  <course>275.0</course>
  <speed>0.0</speed>
  <fix>3d</fix>
</trkpt>
<trkpt lat="33.810313" lon="-118.393867">
  <ele>-4.075</ele>
  <time>2026-09-01T01:18:23Z</time>
  <course>185.2</course>
  <speed>0.0</speed>
  <fix>3d</fix>
</trkpt>
<trkpt lat="33.810313" lon="-118.393867">
  <ele>-4.147</ele>
  <time>2026-09-01T01:18:23Z</time>
  <course>185.2</course>
  <speed>0.0</speed>
  <fix>3d</fix>
</trkpt>
<trkpt lat="33.810313" lon="-118.393867">
  <ele>-3.73</ele>
  <time>2026-09-01T01:18:23Z</time>
  <course>275.0</course>
  <speed>0.0</speed>
  <fix>3d</fix>
</trkpt>
<trkpt lat="33.810313" lon="-118.393867">
  <ele>-4.171</ele>
  <time>2026-09-01T01:18:23Z</time>
  <course>185.21</course>
  <speed>0.0</speed>
  <fix>3d</fix>
</trkpt>
<trkpt lat="33.810313" lon="-118.393867">
  <ele>-4.244</ele>
  <time>2026-09-01T01:18:23Z</time>
  <course>185.21</course>
  <speed>0.0</speed>
  <fix>3d</fix>
</trkpt>
<trkpt lat="33.810313" lon="-118.393867">
  <ele>-3.92</ele>
  <time>2026-09-01T01:18:23Z</time>
  <course>275.0</course>
  <speed>0.0</speed>
  <fix>3d</fix>
</trkpt>
<trkpt lat="33.810313" lon="-118.393867">
  <ele>-4.285</ele>
  <time>2026-09-01T01:18:23Z</time>
  <course>185.22</course>
  <speed>0.0</speed>
  <fix>3d</fix>
</trkpt>
<trkpt lat="33.810313" lon="-118.393867">
  <ele>-4.342</ele>
  <time>2026-09-01T01:18:23Z</time>
  <course>185.23</course>
  <speed>0.0</speed>
  <fix>3d</fix>
</trkpt>
<trkpt lat="33.810313" lon="-118.393867">
  <ele>-3.92</ele>
  <time>2026-09-01T01:18:23Z</time>
  <course>275.0</course>
  <speed>0.0</speed>
  <fix>3d</fix>
</trkpt>
<trkpt lat="33.810313" lon="-118.393867">
  <ele>-4.344</ele>
  <time>2026-09-01T01:18:23Z</time>
  <course>185.23</course>
  <speed>0.0</speed>
  <fix>3d</fix>
</trkpt>
<trkpt lat="33.810313" lon="-118.393867">
  <ele>-4.439</ele>
  <time>2026-09-01T01:18:23Z</time>
  <course>185.24</course>
  <speed>0.0</speed>
  <fix>3d</fix>
</trkpt>
<trkpt lat="33.810313" lon="-118.393867">
  <ele>-4.11</ele>
  <time>2026-09-01T01:18:23Z</time>
  <course>275.0</course>
  <speed>0.0</speed>
  <fix>3d</fix>
</trkpt>
<trkpt lat="33.810313" lon="-118.393867">
  <ele>-4.471</ele>
  <time>2026-09-01T01:18:23Z</time>
  <course>185.24</course>
  <speed>0.01</speed>
  <fix>3d</fix>
</trkpt>
<trkpt lat="33.810313" lon="-118.393867">
  <ele>-4.536</ele>
  <time>2026-09-01T01:18:23Z</time>
  <course>185.25</course>
  <speed>0.01</speed>
  <fix>3d</fix>
</trkpt>
<trkpt lat="33.810313" lon="-118.393867">
  <ele>-4.11</ele>
  <time>2026-09-01T01:18:23Z</time>
  <course>275.0</course>
  <speed>0.0</speed>
  <fix>3d</fix>
</trkpt>
<trkpt lat="33.810313" lon="-118.393867">
  <ele>-4.575</ele>
  <time>2026-09-01T01:18:23Z</time>
  <course>185.25</course>
  <speed>0.01</speed>
  <fix>3d</fix>
</trkpt>
<trkpt lat="33.810313" lon="-118.393867">
  <ele>-4.634</ele>
  <time>2026-09-01T01:18:23Z</time>
  <course>185.26</course>
  <speed>0.01</speed>
  <fix>3d</fix>
</trkpt>
<trkpt lat="33.810313" lon="-118.393867">
  <ele>-4.31</ele>
  <time>2026-09-01T01:18:23Z</time>
  <course>275.0</course>
  <speed>0.0</speed>
  <fix>3d</fix>
</trkpt>
<trkpt lat="33.810313" lon="-118.393867">
  <ele>-4.667</ele>
  <time>2026-09-01T01:18:23Z</time>
  <course>185.26</course>
  <speed>0.01</speed>
  <fix>3d</fix>
</trkpt>
<trkpt lat="33.810313" lon="-118.393867">
  <ele>-4.733</ele>
  <time>2026-09-01T01:18:23Z</time>
  <course>185.27</course>
  <speed>0.01</speed>
  <fix>3d</fix>
</trkpt>
<trkpt lat="33.810313" lon="-118.393867">
  <ele>-4.31</ele>
  <time>2026-09-01T01:18:23Z</time>
  <course>275.0</course>
  <speed>0.0</speed>
  <fix>3d</fix>
</trkpt>
<trkpt lat="33.810313" lon="-118.393867">
  <ele>-4.738</ele>
  <time>2026-09-01T01:18:23Z</time>
  <course>185.27</course>
  <speed>0.01</speed>
  <fix>3d</fix>
</trkpt>
<trkpt lat="33.810313" lon="-118.393867">
  <ele>-4.831</ele>
  <time>2026-09-01T01:18:23Z</time>
  <course>185.28</course>
  <speed>0.01</speed>
  <fix>3d</fix>
</trkpt>
<trkpt lat="33.810313" lon="-118.393867">
  <ele>-4.5</ele>
  <time>2026-09-01T01:18:23Z</time>
  <course>275.0</course>
  <speed>0.0</speed>
  <fix>3d</fix>
</trkpt>
<trkpt lat="33.810313" lon="-118.393867">
  <ele>-4.836</ele>
  <time>2026-09-01T01:18:23Z</time>
  <course>185.28</course>
  <speed>0.01</speed>
  <fix>3d</fix>
</trkpt>
<trkpt lat="33.810313" lon="-118.393867">
  <ele>-4.93</ele>
  <time>2026-09-01T01:18:23Z</time>
  <course>185.29</course>
  <speed>0.01414213562373095</speed>
  <fix>3d</fix>
</trkpt>
<trkpt lat="33.810313" lon="-118.393867">
  <ele>-4.5</ele>
  <time>2026-09-01T01:18:23Z</time>
  <course>275.0</course>
  <speed>0.0</speed>
  <fix>3d</fix>
</trkpt>
<trkpt lat="33.810313" lon="-118.393867">
  <ele>-4.963</ele>
  <time>2026-09-01T01:18:23Z</time>
  <course>185.29</course>
  <speed>0.01414213562373095</speed>
  <fix>3d</fix>
</trkpt>
<trkpt lat="33.810313" lon="-118.393867">
  <ele>-5.029</ele>
  <time>2026-09-01T01:18:23Z</time>
  <course>185.3</course>
  <speed>0.01414213562373095</speed>
  <fix>3d</fix>
</trkpt>
<trkpt lat="33.810313" lon="-118.393867">
  <ele>-4.69</ele>
  <time>2026-09-01T01:18:23Z</time>
  <course>275.0</course>
  <speed>0.0</speed>
  <fix>3d</fix>
</trkpt>
<trkpt lat="33.810313" lon="-118.393867">
  <ele>-5.062</ele>
  <time>2026-09-01T01:18:23Z</time>
  <course>185.3</course>
  <speed>0.01414213562373095</speed>
  <fix>3d</fix>
</trkpt>
<trkpt lat="33.810313" lon="-118.393867">
  <ele>-5.129</ele>
  <time>2026-09-01T01:18:23Z</time>
  <course>185.31</course>
  <speed>0.01414213562373095</speed>
  <fix>3d</fix>
</trkpt>
<trkpt lat="33.810313" lon="-118.393867">
  <ele>-4.69</ele>
  <time>2026-09-01T01:18:23Z</time>
  <course>275.0</course>
  <speed>0.0</speed>
  <fix>3d</fix>
</trkpt>
<trkpt lat="33.810313" lon="-118.393867">
  <ele>-5.227</ele>
  <time>2026-09-01T01:18:23Z</time>
  <course>185.32</course>
  <speed>0.01414213562373095</speed>
  <fix>3d</fix>
</trkpt>
<trkpt lat="33.810313" lon="-118.393867">
  <ele>-4.88</ele>
  <time>2026-09-01T01:18:23Z</time>
  <course>275.0</course>
  <speed>0.0</speed>
  <fix>3d</fix>
</trkpt>
<trkpt lat="33.810313" lon="-118.393867">
  <ele>-5.315</ele>
  <time>2026-09-01T01:18:23Z</time>
  <course>185.33</course>
  <speed>0.01414213562373095</speed>
  <fix>3d</fix>
</trkpt>
<trkpt lat="33.810313" lon="-118.393867">
  <ele>-4.88</ele>
  <time>2026-09-01T01:18:23Z</time>
  <course>275.0</course>
  <speed>0.0</speed>
  <fix>3d</fix>
</trkpt>
<trkpt lat="33.810313" lon="-118.393867">
  <ele>-5.387</ele>
  <time>2026-09-01T01:18:23Z</time>
  <course>185.35</course>
  <speed>0.01414213562373095</speed>
  <fix>3d</fix>
</trkpt>
<trkpt lat="33.810313" lon="-118.393867">
  <ele>-5.06</ele>
  <time>2026-09-01T01:18:23Z</time>
  <course>275.0</course>
  <speed>0.0</speed>
  <fix>3d</fix>
</trkpt>
<trkpt lat="33.810313" lon="-118.393867">
  <ele>-5.442</ele>
  <time>2026-09-01T01:18:23Z</time>
  <course>185.36</course>
  <speed>0.01414213562373095</speed>
  <fix>3d</fix>
</trkpt>
<trkpt lat="33.810313" lon="-118.393867">
  <ele>-5.06</ele>
  <time>2026-09-01T01:18:23Z</time>
  <course>275.0</course>
  <speed>0.0</speed>
  <fix>3d</fix>
</trkpt>
<trkpt lat="33.810313" lon="-118.393867">
  <ele>-5.484</ele>
  <time>2026-09-01T01:18:23Z</time>
  <course>185.37</course>
  <speed>0.01414213562373095</speed>
  <fix>3d</fix>
</trkpt>
<trkpt lat="33.810313" lon="-118.393867">
  <ele>-5.21</ele>
  <time>2026-09-01T01:18:23Z</time>
  <course>275.0</course>
  <speed>0.0</speed>
  <fix>3d</fix>
</trkpt>
<trkpt lat="33.810313" lon="-118.393867">
  <ele>-5.513</ele>
  <time>2026-09-01T01:18:23Z</time>
  <course>185.38</course>
  <speed>0.01414213562373095</speed>
  <fix>3d</fix>
</trkpt>
<trkpt lat="33.810313" lon="-118.393867">
  <ele>-5.21</ele>
  <time>2026-09-01T01:18:23Z</time>
  <course>275.0</course>
  <speed>0.0</speed>
  <fix>3d</fix>
</trkpt>
<trkpt lat="33.810313" lon="-118.393867">
  <ele>-5.529</ele>
  <time>2026-09-01T01:18:23Z</time>
  <course>185.39</course>
  <speed>0.01414213562373095</speed>
  <fix>3d</fix>
</trkpt>
<trkpt lat="33.810313" lon="-118.393867">
  <ele>-5.29</ele>
  <time>2026-09-01T01:18:23Z</time>
  <course>94.99</course>
  <speed>0.0</speed>
  <fix>3d</fix>
</trkpt>
<trkpt lat="33.810313" lon="-118.393867">
  <ele>-5.535</ele>
  <time>2026-09-01T01:18:23Z</time>
  <course>185.4</course>
  <speed>0.01414213562373095</speed>
  <fix>3d</fix>
</trkpt>
<trkpt lat="33.810313" lon="-118.393867">
  <ele>-5.29</ele>
  <time>2026-09-01T01:18:23Z</time>
  <course>94.99</course>
  <speed>0.0</speed>
  <fix>3d</fix>
</trkpt>
<trkpt lat="33.810313" lon="-118.393867">
  <ele>-5.535</ele>
  <time>2026-09-01T01:18:23Z</time>
  <course>185.41</course>
  <speed>0.01414213562373095</speed>
  <fix>3d</fix>
</trkpt>
<trkpt lat="33.810313" lon="-118.393867">
  <ele>-5.33</ele>
  <time>2026-09-01T01:18:23Z</time>
  <course>94.99</course>
  <speed>0.0</speed>
  <fix>3d</fix>
</trkpt>
<trkpt lat="33.8103131" lon="-118.393867">
  <ele>-5.531</ele>
  <time>2026-09-01T01:18:23Z</time>
  <course>185.42</course>
  <speed>0.01414213562373095</speed>
  <fix>3d</fix>
</trkpt>
<trkpt lat="33.810313" lon="-118.393867">
  <ele>-5.33</ele>
  <time>2026-09-01T01:18:23Z</time>
  <course>94.99</course>
  <speed>0.0</speed>
  <fix>3d</fix>
</trkpt>
<trkpt lat="33.8103131" lon="-118.393867">
  <ele>-5.526</ele>
  <time>2026-09-01T01:18:23Z</time>
  <course>185.43</course>
  <speed>0.01414213562373095</speed>
  <fix>3d</fix>
</trkpt>
<trkpt lat="33.810313" lon="-118.393867">
  <ele>-5.35</ele>
  <time>2026-09-01T01:18:23Z</time>
  <course>94.99</course>
  <speed>0.0</speed>
  <fix>3d</fix>
</trkpt>
<trkpt lat="33.8103131" lon="-118.3938671">
  <ele>-5.519</ele>
  <time>2026-09-01T01:18:23Z</time>
  <course>185.44</course>
  <speed>0.01414213562373095</speed>
  <fix>3d</fix>
</trkpt>
<trkpt lat="33.810313" lon="-118.393867">
  <ele>-5.35</ele>
  <time>2026-09-01T01:18:23Z</time>
  <course>94.99</course>
  <speed>0.0</speed>
  <fix>3d</fix>
</trkpt>
<trkpt lat="33.8103131" lon="-118.3938671">
  <ele>-5.513</ele>
  <time>2026-09-01T01:18:23Z</time>
  <course>185.45</course>
  <speed>0.01414213562373095</speed>
  <fix>3d</fix>
</trkpt>
<trkpt lat="33.810313" lon="-118.393867">
  <ele>-5.35</ele>
  <time>2026-09-01T01:18:23Z</time>
  <course>94.99</course>
  <speed>0.0</speed>
  <fix>3d</fix>
</trkpt>
<trkpt lat="33.8103131" lon="-118.3938671">
  <ele>-5.508</ele>
  <time>2026-09-01T01:18:23Z</time>
  <course>185.47</course>
  <speed>0.022360679774997897</speed>
  <fix>3d</fix>
</trkpt>
<trkpt lat="33.810313" lon="-118.393867">
  <ele>-5.35</ele>
  <time>2026-09-01T01:18:23Z</time>
  <course>94.99</course>
  <speed>0.0</speed>
  <fix>3d</fix>
</trkpt>
<trkpt lat="33.8103131" lon="-118.3938671">
  <ele>-5.506</ele>
  <time>2026-09-01T01:18:23Z</time>
  <course>185.48</course>
  <speed>0.022360679774997897</speed>
  <fix>3d</fix>
</trkpt>
<trkpt lat="33.810313" lon="-118.393867">
  <ele>-5.35</ele>
  <time>2026-09-01T01:18:23Z</time>
  <course>94.99</course>
  <speed>0.0</speed>
  <fix>3d</fix>
</trkpt>
<trkpt lat="33.8103131" lon="-118.3938671">
  <ele>-5.505</ele>
  <time>2026-09-01T01:18:23Z</time>
  <course>185.49</course>
  <speed>0.022360679774997897</speed>
  <fix>3d</fix>
</trkpt>
<trkpt lat="33.810313" lon="-118.393867">
  <ele>-5.35</ele>
  <time>2026-09-01T01:18:23Z</time>
  <course>94.99</course>
  <speed>0.0</speed>
  <fix>3d</fix>
</trkpt>
<trkpt lat="33.8103131" lon="-118.3938671">
  <ele>-5.506</ele>
  <time>2026-09-01T01:18:23Z</time>
  <course>185.5</course>
  <speed>0.022360679774997897</speed>
  <fix>3d</fix>
</trkpt>
<trkpt lat="33.810313" lon="-118.393867">
  <ele>-5.35</ele>
  <time>2026-09-01T01:18:23Z</time>
  <course>94.99</course>
  <speed>0.0</speed>
  <fix>3d</fix>
</trkpt>
<trkpt lat="33.8103131" lon="-118.3938671">
  <ele>-5.51</ele>
  <time>2026-09-01T01:18:23Z</time>
  <course>185.51</course>
  <speed>0.022360679774997897</speed>
  <fix>3d</fix>
</trkpt>
<trkpt lat="33.810313" lon="-118.393867">
  <ele>-5.35</ele>
  <time>2026-09-01T01:18:23Z</time>
  <course>94.99</course>
  <speed>0.0</speed>
  <fix>3d</fix>
</trkpt>
<trkpt lat="33.8103131" lon="-118.3938671">
  <ele>-5.514</ele>
  <time>2026-09-01T01:18:23Z</time>
  <course>185.52</course>
  <speed>0.022360679774997897</speed>
  <fix>3d</fix>
</trkpt>
<trkpt lat="33.810313" lon="-118.393867">
  <ele>-5.36</ele>
  <time>2026-09-01T01:18:23Z</time>
  <course>94.99</course>
  <speed>0.0</speed>
  <fix>3d</fix>
</trkpt>
<trkpt lat="33.8103131" lon="-118.3938671">
  <ele>-5.518</ele>
  <time>2026-09-01T01:18:23Z</time>
  <course>185.62</course>
  <speed>0.022360679774997897</speed>
  <fix>3d</fix>
</trkpt>
<trkpt lat="33.810313" lon="-118.393867">
  <ele>-5.36</ele>
  <time>2026-09-01T01:18:23Z</time>
  <course>94.99</course>
  <speed>0.0</speed>
  <fix>3d</fix>
</trkpt>
<trkpt lat="33.8103131" lon="-118.3938671">
  <ele>-5.522</ele>
  <time>2026-09-01T01:18:23Z</time>
  <course>186.95</course>
  <speed>0.022360679774997897</speed>
  <fix>3d</fix>
</trkpt>
<trkpt lat="33.810313" lon="-118.393867">
  <ele>-5.38</ele>
  <time>2026-09-01T01:18:23Z</time>
  <course>87.99</course>
  <speed>0.0</speed>
  <fix>3d</fix>
</trkpt>
<trkpt lat="33.8103131" lon="-118.3938671">
  <ele>-5.524</ele>
  <time>2026-09-01T01:18:23Z</time>
  <course>189.7</course>
  <speed>0.0412310562561766</speed>
  <fix>3d</fix>
</trkpt>
<trkpt lat="33.810313" lon="-118.393867">
  <ele>-5.38</ele>
  <time>2026-09-01T01:18:23Z</time>
  <course>87.99</course>
  <speed>0.0</speed>
  <fix>3d</fix>
</trkpt>
<trkpt lat="33.8103131" lon="-118.3938671">
  <ele>-5.524</ele>
  <time>2026-09-01T01:18:23Z</time>
  <course>193.1</course>
  <speed>0.06082762530298219</speed>
  <fix>3d</fix>
</trkpt>
<trkpt lat="33.810313" lon="-118.393867">
  <ele>-5.39</ele>
  <time>2026-09-01T01:18:23Z</time>
  <course>6.78</course>
  <speed>0.01</speed>
  <fix>3d</fix>
</trkpt>
<trkpt lat="33.8103132" lon="-118.3938671">
  <ele>-5.521</ele>
  <time>2026-09-01T01:18:23Z</time>
  <course>196.85</course>
  <speed>0.1004987562112089</speed>
  <fix>3d</fix>
</trkpt>
<trkpt lat="33.810313" lon="-118.393867">
  <ele>-5.39</ele>
  <time>2026-09-01T01:18:23Z</time>
  <course>6.78</course>
  <speed>0.01</speed>
  <fix>3d</fix>
</trkpt>
<trkpt lat="33.8103133" lon="-118.3938671">
  <ele>-5.517</ele>
  <time>2026-09-01T01:18:23Z</time>
  <course>200.85</course>
  <speed>0.140356688476182</speed>
  <fix>3d</fix>
</trkpt>
<trkpt lat="33.810313" lon="-118.393867">
  <ele>-5.4</ele>
  <time>2026-09-01T01:18:23Z</time>
  <course>2.62</course>
  <speed>0.05</speed>
  <fix>3d</fix>
</trkpt>
<trkpt lat="33.8103134" lon="-118.3938671">
  <ele>-5.512</ele>
  <time>2026-09-01T01:18:23Z</time>
  <course>205.05</course>
  <speed>0.19026297590440447</speed>
  <fix>3d</fix>
</trkpt>
<trkpt lat="33.810313" lon="-118.393867">
  <ele>-5.4</ele>
  <time>2026-09-01T01:18:23Z</time>
  <course>2.62</course>
  <speed>0.05</speed>
  <fix>3d</fix>
</trkpt>
<trkpt lat="33.8103136" lon="-118.3938671">
  <ele>-5.508</ele>
  <time>2026-09-01T01:18:23Z</time>
  <course>209.43</course>
  <speed>0.2501999200639361</speed>
  <fix>3d</fix>
</trkpt>
<trkpt lat="33.8103131" lon="-118.393867">
  <ele>-5.39</ele>
  <time>2026-09-01T01:18:23Z</time>
  <course>1.27</course>
  <speed>0.13</speed>
  <fix>3d</fix>
</trkpt>
<trkpt lat="33.8103138" lon="-118.3938671">
  <ele>-5.506</ele>
  <time>2026-09-01T01:18:23Z</time>
  <course>213.97</course>
  <speed>0.32015621187164245</speed>
  <fix>3d</fix>
</trkpt>
<trkpt lat="33.8103131" lon="-118.393867">
  <ele>-5.39</ele>
  <time>2026-09-01T01:18:23Z</time>
  <course>1.27</course>
  <speed>0.13</speed>
  <fix>3d</fix>
</trkpt>
<trkpt lat="33.8103141" lon="-118.3938671">
  <ele>-5.51</ele>
  <time>2026-09-01T01:18:23Z</time>
  <course>218.67</course>
  <speed>0.3901281840626232</speed>
  <fix>3d</fix>
</trkpt>
<trkpt lat="33.8103135" lon="-118.393867">
  <ele>-5.38</ele>
  <time>2026-09-01T01:18:23Z</time>
  <course>0.73</course>
  <speed>0.25</speed>
  <fix>3d</fix>
</trkpt>
<trkpt lat="33.8103145" lon="-118.3938671">
  <ele>-5.524</ele>
  <time>2026-09-01T01:18:23Z</time>
  <course>223.55</course>
  <speed>0.47010637094172636</speed>
  <fix>3d</fix>
</trkpt>
<trkpt lat="33.8103135" lon="-118.393867">
  <ele>-5.38</ele>
  <time>2026-09-01T01:18:23Z</time>
  <course>0.73</course>
  <speed>0.25</speed>
  <fix>3d</fix>
</trkpt>
<trkpt lat="33.8103149" lon="-118.3938671">
  <ele>-5.546</ele>
  <time>2026-09-01T01:18:23Z</time>
  <course>228.59</course>
  <speed>0.540092584655631</speed>
  <fix>3d</fix>
</trkpt>
<trkpt lat="33.8103141" lon="-118.393867">
  <ele>-5.39</ele>
  <time>2026-09-01T01:18:23Z</time>
  <course>0.74</course>
  <speed>0.39</speed>
  <fix>3d</fix>
</trkpt>
<trkpt lat="33.8103154" lon="-118.3938671">
  <ele>-5.579</ele>
  <time>2026-09-01T01:18:23Z</time>
  <course>233.81</course>
  <speed>0.61</speed>
  <fix>3d</fix>
</trkpt>
<trkpt lat="33.8103141" lon="-118.393867">
  <ele>-5.39</ele>
  <time>2026-09-01T01:18:23Z</time>
  <course>0.74</course>
  <speed>0.39</speed>
  <fix>3d</fix>
</trkpt>
<trkpt lat="33.8103159" lon="-118.3938671">
  <ele>-5.625</ele>
  <time>2026-09-01T01:18:23Z</time>
  <course>239.19</course>
  <speed>0.66</speed>
  <fix>3d</fix>
</trkpt>
<trkpt lat="33.810315" lon="-118.393867">
  <ele>-5.43</ele>
  <time>2026-09-01T01:18:23Z</time>
  <course>1.31</course>
  <speed>0.54</speed>
  <fix>3d</fix>
</trkpt>
<trkpt lat="33.8103165" lon="-118.393867">
  <ele>-5.68</ele>
  <time>2026-09-01T01:18:23Z</time>
  <course>244.83</course>
  <speed>0.71</speed>
  <fix>3d</fix>
</trkpt>
<trkpt lat="33.810315" lon="-118.393867">
  <ele>-5.43</ele>
  <time>2026-09-01T01:18:23Z</time>
  <course>1.31</course>
  <speed>0.54</speed>
  <fix>3d</fix>
</trkpt>
<trkpt lat="33.8103172" lon="-118.393867">
  <ele>-5.743</ele>
  <time>2026-09-01T01:18:23Z</time>
  <course>250.72</course>
  <speed>0.74</speed>
  <fix>3d</fix>
</trkpt>
<trkpt lat="33.8103161" lon="-118.393867">
  <ele>-5.51</ele>
  <time>2026-09-01T01:18:23Z</time>
  <course>2.17</course>
  <speed>0.66</speed>
  <fix>3d</fix>
</trkpt>
<trkpt lat="33.8103178" lon="-118.393867">
  <ele>-5.812</ele>
  <time>2026-09-01T01:18:23Z</time>
  <course>256.94</course>
  <speed>0.77</speed>
  <fix>3d</fix>
</trkpt>
<trkpt lat="33.8103161" lon="-118.393867">
  <ele>-5.51</ele>
  <time>2026-09-01T01:18:23Z</time>
  <course>2.17</course>
  <speed>0.66</speed>
  <fix>3d</fix>
</trkpt>
<trkpt lat="33.8103185" lon="-118.393867">
  <ele>-5.886</ele>
  <time>2026-09-01T01:18:23Z</time>
  <course>263.47</course>
  <speed>0.79</speed>
  <fix>3d</fix>
</trkpt>
<trkpt lat="33.8103173" lon="-118.3938669">
  <ele>-5.62</ele>
  <time>2026-09-01T01:18:23Z</time>
  <course>2.73</course>
  <speed>0.74</speed>
  <fix>3d</fix>
</trkpt>
<trkpt lat="33.8103192" lon="-118.393867">
  <ele>-5.963</ele>
  <time>2026-09-01T01:18:23Z</time>
  <course>270.24</course>
  <speed>0.8200609733428362</speed>
  <fix>3d</fix>
</trkpt>
<trkpt lat="33.8103173" lon="-118.3938669">
  <ele>-5.62</ele>
  <time>2026-09-01T01:18:23Z</time>
  <course>2.73</course>
  <speed>0.74</speed>
  <fix>3d</fix>
</trkpt>
<trkpt lat="33.8103199" lon="-118.393867">
  <ele>-6.043</ele>
  <time>2026-09-01T01:18:23Z</time>
  <course>277.12</course>
  <speed>0.840535543567314</speed>
  <fix>3d</fix>
</trkpt>
<trkpt lat="33.8103186" lon="-118.3938668">
  <ele>-5.75</ele>
  <time>2026-09-01T01:18:23Z</time>
  <course>2.01</course>
  <speed>0.79</speed>
  <fix>3d</fix>
</trkpt>
<trkpt lat="33.8103206" lon="-118.393867">
  <ele>-6.126</ele>
  <time>2026-09-01T01:18:23Z</time>
  <course>284.05</course>
  <speed>0.8620904824900922</speed>
  <fix>3d</fix>
</trkpt>
<trkpt lat="33.8103186" lon="-118.3938668">
  <ele>-5.75</ele>
  <time>2026-09-01T01:18:23Z</time>
  <course>2.01</course>
  <speed>0.79</speed>
  <fix>3d</fix>
</trkpt>
<trkpt lat="33.8103214" lon="-118.3938671">
  <ele>-6.211</ele>
  <time>2026-09-01T01:18:23Z</time>
  <course>290.98</course>
  <speed>0.8927485648266257</speed>
  <fix>3d</fix>
</trkpt>
<trkpt lat="33.8103201" lon="-118.3938668">
  <ele>-5.89</ele>
  <time>2026-09-01T01:18:23Z</time>
  <course>359.83</course>
  <speed>0.84</speed>
  <fix>3d</fix>
</trkpt>
<trkpt lat="33.8103222" lon="-118.3938671">
  <ele>-6.294</ele>
  <time>2026-09-01T01:18:23Z</time>
  <course>297.76</course>
  <speed>0.9234717104492156</speed>
  <fix>3d</fix>
</trkpt>
<trkpt lat="33.8103201" lon="-118.3938668">
  <ele>-5.89</ele>
  <time>2026-09-01T01:18:23Z</time>
  <course>359.83</course>
  <speed>0.84</speed>
  <fix>3d</fix>
</trkpt>
<trkpt lat="33.810323" lon="-118.3938672">
  <ele>-6.376</ele>
  <time>2026-09-01T01:18:23Z</time>
  <course>304.35</course>
  <speed>0.9426027795418386</speed>
  <fix>3d</fix>
</trkpt>
<trkpt lat="33.8103217" lon="-118.3938669">
  <ele>-6.05</ele>
  <time>2026-09-01T01:18:23Z</time>
  <course>358.15</course>
  <speed>0.89</speed>
  <fix>3d</fix>
</trkpt>
<trkpt lat="33.8103239" lon="-118.3938672">
  <ele>-6.456</ele>
  <time>2026-09-01T01:18:23Z</time>
  <course>310.73</course>
  <speed>0.9718538984847466</speed>
  <fix>3d</fix>
</trkpt>
<trkpt lat="33.8103217" lon="-118.3938669">
  <ele>-6.05</ele>
  <time>2026-09-01T01:18:23Z</time>
  <course>358.15</course>
  <speed>0.89</speed>
  <fix>3d</fix>
</trkpt>
<trkpt lat="33.8103247" lon="-118.3938672">
  <ele>-6.534</ele>
  <time>2026-09-01T01:18:23Z</time>
  <course>316.95</course>
  <speed>0.9808159868191383</speed>
  <fix>3d</fix>
</trkpt>
<trkpt lat="33.8103233" lon="-118.3938669">
  <ele>-6.2</ele>
  <time>2026-09-01T01:18:23Z</time>
  <course>358.69</course>
  <speed>0.93</speed>
  <fix>3d</fix>
</trkpt>
<trkpt lat="33.8103256" lon="-118.3938672">
  <ele>-6.61</ele>
  <time>2026-09-01T01:18:23Z</time>
  <course>323.08</course>
  <speed>0.9904544411531506</speed>
  <fix>3d</fix>
</trkpt>
<trkpt lat="33.8103233" lon="-118.3938669">
  <ele>-6.2</ele>
  <time>2026-09-01T01:18:23Z</time>
  <course>358.69</course>
  <speed>0.93</speed>
  <fix>3d</fix>
</trkpt>
<trkpt lat="33.8103264" lon="-118.3938672">
  <ele>-6.682</ele>
  <time>2026-09-01T01:18:23Z</time>
  <course>329.18</course>
  <speed>1.0000499987500624</speed>
  <fix>3d</fix>
</trkpt>
<trkpt lat="33.8103251" lon="-118.3938669">
  <ele>-6.35</ele>
  <time>2026-09-01T01:18:23Z</time>
  <course>0.72</course>
  <speed>0.97</speed>
  <fix>3d</fix>
</trkpt>
<trkpt lat="33.8103273" lon="-118.3938672">
  <ele>-6.748</ele>
  <time>2026-09-01T01:18:23Z</time>
  <course>335.34</course>
  <speed>0.99</speed>
  <fix>3d</fix>
</trkpt>
<trkpt lat="33.8103251" lon="-118.3938669">
  <ele>-6.35</ele>
  <time>2026-09-01T01:18:23Z</time>
  <course>0.72</course>
  <speed>0.97</speed>
  <fix>3d</fix>
</trkpt>
<trkpt lat="33.8103282" lon="-118.3938671">
  <ele>-6.809</ele>
  <time>2026-09-01T01:18:23Z</time>
  <course>341.28</course>
  <speed>0.970051545022222</speed>
  <fix>3d</fix>
</trkpt>
<trkpt lat="33.8103268" lon="-118.3938668">
  <ele>-6.48</ele>
  <time>2026-09-01T01:18:23Z</time>
  <course>2.88</course>
  <speed>0.98</speed>
  <fix>3d</fix>
</trkpt>
<trkpt lat="33.810329" lon="-118.393867">
  <ele>-6.863</ele>
  <time>2026-09-01T01:18:23Z</time>
  <course>346.77</course>
  <speed>0.9500526301210896</speed>
  <fix>3d</fix>
</trkpt>
<trkpt lat="33.8103268" lon="-118.3938668">
  <ele>-6.48</ele>
  <time>2026-09-01T01:18:23Z</time>
  <course>2.88</course>
  <speed>0.98</speed>
  <fix>3d</fix>
</trkpt>
<trkpt lat="33.8103299" lon="-118.393867">
  <ele>-6.912</ele>
  <time>2026-09-01T01:18:23Z</time>
  <course>351.5</course>
  <speed>0.9400531899844816</speed>
  <fix>3d</fix>
</trkpt>
<trkpt lat="33.8103286" lon="-118.3938667">
  <ele>-6.6</ele>
  <time>2026-09-01T01:18:23Z</time>
  <course>4.4</course>
  <speed>0.95</speed>
  <fix>3d</fix>
</trkpt>
<trkpt lat="33.8103307" lon="-118.393867">
  <ele>-6.956</ele>
  <time>2026-09-01T01:18:23Z</time>
  <course>355.45</course>
  <speed>0.93</speed>
  <fix>3d</fix>
</trkpt>
<trkpt lat="33.8103286" lon="-118.3938667">
  <ele>-6.6</ele>
  <time>2026-09-01T01:18:23Z</time>
  <course>4.4</course>
  <speed>0.95</speed>
  <fix>3d</fix>
</trkpt>
<trkpt lat="33.8103315" lon="-118.393867">
  <ele>-6.995</ele>
  <time>2026-09-01T01:18:23Z</time>
  <course>358.35</course>
  <speed>0.9202173656261873</speed>
  <fix>3d</fix>
</trkpt>
<trkpt lat="33.8103303" lon="-118.3938666">
  <ele>-6.69</ele>
  <time>2026-09-01T01:18:23Z</time>
  <course>4.13</course>
  <speed>0.92</speed>
  <fix>3d</fix>
</trkpt>
<trkpt lat="33.8103323" lon="-118.3938668">
  <ele>-7.029</ele>
  <time>2026-09-01T01:18:23Z</time>
  <course>0.1</course>
  <speed>0.920869154657707</speed>
  <fix>3d</fix>
</trkpt>
<trkpt lat="33.8103303" lon="-118.3938666">
  <ele>-6.69</ele>
  <time>2026-09-01T01:18:23Z</time>
  <course>4.13</course>
  <speed>0.92</speed>
  <fix>3d</fix>
</trkpt>
<trkpt lat="33.8103331" lon="-118.3938668">
  <ele>-7.061</ele>
  <time>2026-09-01T01:18:23Z</time>
  <course>0.96</course>
  <speed>0.9213576938409967</speed>
  <fix>3d</fix>
</trkpt>
<trkpt lat="33.8103318" lon="-118.3938664">
  <ele>-6.77</ele>
  <time>2026-09-01T01:18:23Z</time>
  <course>2.13</course>
  <speed>0.9</speed>
  <fix>3d</fix>
</trkpt>
<trkpt lat="33.8103339" lon="-118.3938668">
  <ele>-7.091</ele>
  <time>2026-09-01T01:18:23Z</time>
  <course>1.27</course>
  <speed>0.9219544457292888</speed>
  <fix>3d</fix>
</trkpt>
<trkpt lat="33.8103318" lon="-118.3938664">
  <ele>-6.77</ele>
  <time>2026-09-01T01:18:23Z</time>
  <course>2.13</course>
  <speed>0.9</speed>
  <fix>3d</fix>
</trkpt>
<trkpt lat="33.8103347" lon="-118.3938668">
  <ele>-7.118</ele>
  <time>2026-09-01T01:18:23Z</time>
  <course>1.34</course>
  <speed>0.9219544457292888</speed>
  <fix>3d</fix>
</trkpt>
<trkpt lat="33.8103335" lon="-118.3938664">
  <ele>-6.84</ele>
  <time>2026-09-01T01:18:23Z</time>
  <course>0.19</course>
  <speed>0.89</speed>
  <fix>3d</fix>
</trkpt>
<trkpt lat="33.8103355" lon="-118.3938668">
  <ele>-7.145</ele>
  <time>2026-09-01T01:18:23Z</time>
  <course>1.34</course>
  <speed>0.9219544457292888</speed>
  <fix>3d</fix>
</trkpt>
<trkpt lat="33.8103335" lon="-118.3938664">
  <ele>-6.84</ele>
  <time>2026-09-01T01:18:23Z</time>
  <course>0.19</course>
  <speed>0.89</speed>
  <fix>3d</fix>
</trkpt>
<trkpt lat="33.8103364" lon="-118.3938668">
  <ele>-7.171</ele>
  <time>2026-09-01T01:18:23Z</time>
  <course>1.33</course>
  <speed>0.9219544457292888</speed>
  <fix>3d</fix>
</trkpt>
<trkpt lat="33.8103351" lon="-118.3938664">
  <ele>-6.9</ele>
  <time>2026-09-01T01:18:23Z</time>
  <course>359.03</course>
  <speed>0.9</speed>
  <fix>3d</fix>
</trkpt>
<trkpt lat="33.8103372" lon="-118.3938668">
  <ele>-7.198</ele>
  <time>2026-09-01T01:18:23Z</time>
  <course>1.34</course>
  <speed>0.9226592003551474</speed>
  <fix>3d</fix>
</trkpt>
<trkpt lat="33.8103351" lon="-118.3938664">
  <ele>-6.9</ele>
  <time>2026-09-01T01:18:23Z</time>
  <course>359.03</course>
  <speed>0.9</speed>
  <fix>3d</fix>
</trkpt>
<trkpt lat="33.810338" lon="-118.3938669">
  <ele>-7.227</ele>
  <time>2026-09-01T01:18:23Z</time>
  <course>1.36</course>
  <speed>0.9219544457292888</speed>
  <fix>3d</fix>
</trkpt>
<trkpt lat="33.8103368" lon="-118.3938665">
  <ele>-6.96</ele>
  <time>2026-09-01T01:18:23Z</time>
  <course>358.46</course>
  <speed>0.89</speed>
  <fix>3d</fix>
</trkpt>
<trkpt lat="33.8103388" lon="-118.3938669">
  <ele>-7.257</ele>
  <time>2026-09-01T01:18:23Z</time>
  <course>1.39</course>
  <speed>0.9119758768739444</speed>
  <fix>3d</fix>
</trkpt>
<trkpt lat="33.8103368" lon="-118.3938665">
  <ele>-6.96</ele>
  <time>2026-09-01T01:18:23Z</time>
  <course>358.46</course>
  <speed>0.89</speed>
  <fix>3d</fix>
</trkpt>
<trkpt lat="33.8103396" lon="-118.3938669">
  <ele>-7.291</ele>
  <time>2026-09-01T01:18:23Z</time>
  <course>1.43</course>
  <speed>0.9119758768739444</speed>
  <fix>3d</fix>
</trkpt>
<trkpt lat="33.8103384" lon="-118.3938665">
  <ele>-7.02</ele>
  <time>2026-09-01T01:18:23Z</time>
  <course>358.18</course>
  <speed>0.89</speed>
  <fix>3d</fix>
</trkpt>
<trkpt lat="33.8103404" lon="-118.3938669">
  <ele>-7.327</ele>
  <time>2026-09-01T01:18:23Z</time>
  <course>1.49</course>
  <speed>0.9119758768739444</speed>
  <fix>3d</fix>
</trkpt>
<trkpt lat="33.8103384" lon="-118.3938665">
  <ele>-7.02</ele>
  <time>2026-09-01T01:18:23Z</time>
  <course>358.18</course>
  <speed>0.89</speed>
  <fix>3d</fix>
</trkpt>
<trkpt lat="33.8103412" lon="-118.3938669">
  <ele>-7.365</ele>
  <time>2026-09-01T01:18:23Z</time>
  <course>1.54</course>
  <speed>0.9013878188659973</speed>
  <fix>3d</fix>
</trkpt>
<trkpt lat="33.8103399" lon="-118.3938665">
  <ele>-7.09</ele>
  <time>2026-09-01T01:18:23Z</time>
  <course>358.07</course>
  <speed>0.88</speed>
  <fix>3d</fix>
</trkpt>
<trkpt lat="33.810342" lon="-118.3938669">
  <ele>-7.403</ele>
  <time>2026-09-01T01:18:23Z</time>
  <course>1.6</course>
  <speed>0.9013878188659973</speed>
  <fix>3d</fix>
</trkpt>
<trkpt lat="33.8103399" lon="-118.3938665">
  <ele>-7.09</ele>
  <time>2026-09-01T01:18:23Z</time>
  <course>358.07</course>
  <speed>0.88</speed>
  <fix>3d</fix>
</trkpt>
<trkpt lat="33.8103427" lon="-118.3938669">
  <ele>-7.444</ele>
  <time>2026-09-01T01:18:23Z</time>
  <course>1.64</course>
  <speed>0.891403387922662</speed>
  <fix>3d</fix>
</trkpt>
<trkpt lat="33.8103416" lon="-118.3938666">
  <ele>-7.17</ele>
  <time>2026-09-01T01:18:23Z</time>
  <course>357.98</course>
  <speed>0.88</speed>
  <fix>3d</fix>
</trkpt>
<trkpt lat="33.8103435" lon="-118.3938669">
  <ele>-7.486</ele>
  <time>2026-09-01T01:18:23Z</time>
  <course>1.68</course>
  <speed>0.891403387922662</speed>
  <fix>3d</fix>
</trkpt>
<trkpt lat="33.8103416" lon="-118.3938666">
  <ele>-7.17</ele>
  <time>2026-09-01T01:18:23Z</time>
  <course>357.98</course>
  <speed>0.88</speed>
  <fix>3d</fix>
</trkpt>
<trkpt lat="33.8103443" lon="-118.3938669">
  <ele>-7.529</ele>
  <time>2026-09-01T01:18:23Z</time>
  <course>1.73</course>
  <speed>0.8814193099768123</speed>
  <fix>3d</fix>
</trkpt>
<trkpt lat="33.8103431" lon="-118.3938666">
  <ele>-7.25</ele>
  <time>2026-09-01T01:18:23Z</time>
  <course>357.9</course>
  <speed>0.87</speed>
  <fix>3d</fix>
</trkpt>
<trkpt lat="33.8103451" lon="-118.3938669">
  <ele>-7.574</ele>
  <time>2026-09-01T01:18:23Z</time>
  <course>1.78</course>
  <speed>0.8814193099768123</speed>
  <fix>3d</fix>
</trkpt>
<trkpt lat="33.8103431" lon="-118.3938666">
  <ele>-7.25</ele>
  <time>2026-09-01T01:18:23Z</time>
  <course>357.9</course>
  <speed>0.87</speed>
  <fix>3d</fix>
</trkpt>
<trkpt lat="33.8103459" lon="-118.393867">
  <ele>-7.62</ele>
  <time>2026-09-01T01:18:23Z</time>
  <course>1.83</course>
  <speed>0.8809086218218095</speed>
  <fix>3d</fix>
</trkpt>
<trkpt lat="33.8103447" lon="-118.3938667">
  <ele>-7.33</ele>
  <time>2026-09-01T01:18:23Z</time>
  <course>357.85</course>
  <speed>0.86</speed>
  <fix>3d</fix>
</trkpt>
<trkpt lat="33.8103466" lon="-118.393867">
  <ele>-7.666</ele>
  <time>2026-09-01T01:18:23Z</time>
  <course>1.9</course>
  <speed>0.8709190547921202</speed>
  <fix>3d</fix>
</trkpt>
<trkpt lat="33.8103447" lon="-118.3938667">
  <ele>-7.33</ele>
  <time>2026-09-01T01:18:23Z</time>
  <course>357.85</course>
  <speed>0.86</speed>
  <fix>3d</fix>
</trkpt>
<trkpt lat="33.8103474" lon="-118.393867">
  <ele>-7.712</ele>
  <time>2026-09-01T01:18:23Z</time>
  <course>1.96</course>
  <speed>0.8709190547921202</speed>
  <fix>3d</fix>
</trkpt>
<trkpt lat="33.8103463" lon="-118.3938668">
  <ele>-7.42</ele>
  <time>2026-09-01T01:18:23Z</time>
  <course>357.85</course>
  <speed>0.86</speed>
  <fix>3d</fix>
</trkpt>
<trkpt lat="33.8103482" lon="-118.393867">
  <ele>-7.758</ele>
  <time>2026-09-01T01:18:23Z</time>
  <course>2.04</course>
  <speed>0.8709190547921202</speed>
  <fix>3d</fix>
</trkpt>
<trkpt lat="33.8103463" lon="-118.3938668">
  <ele>-7.42</ele>
  <time>2026-09-01T01:18:23Z</time>
  <course>357.85</course>
  <speed>0.86</speed>
  <fix>3d</fix>
</trkpt>
<trkpt lat="33.8103489" lon="-118.393867">
  <ele>-7.804</ele>
  <time>2026-09-01T01:18:23Z</time>
  <course>2.13</course>
  <speed>0.8605230967266364</speed>
  <fix>3d</fix>
</trkpt>
<trkpt lat="33.8103478" lon="-118.3938668">
  <ele>-7.51</ele>
  <time>2026-09-01T01:18:23Z</time>
  <course>357.91</course>
  <speed>0.86</speed>
  <fix>3d</fix>
</trkpt>
<trkpt lat="33.8103497" lon="-118.393867">
  <ele>-7.848</ele>
  <time>2026-09-01T01:18:23Z</time>
  <course>2.23</course>
  <speed>0.8605230967266364</speed>
  <fix>3d</fix>
</trkpt>
<trkpt lat="33.8103478" lon="-118.3938668">
  <ele>-7.51</ele>
  <time>2026-09-01T01:18:23Z</time>
  <course>357.91</course>
  <speed>0.86</speed>
  <fix>3d</fix>
</trkpt>
<trkpt lat="33.8103505" lon="-118.393867">
  <ele>-7.892</ele>
  <time>2026-09-01T01:18:23Z</time>
  <course>2.33</course>
  <speed>0.8605230967266364</speed>
  <fix>3d</fix>
</trkpt>
<trkpt lat="33.8103493" lon="-118.3938669">
  <ele>-7.6</ele>
  <time>2026-09-01T01:18:23Z</time>
  <course>358.0</course>
  <speed>0.85</speed>
  <fix>3d</fix>
</trkpt>
<trkpt lat="33.8103512" lon="-118.393867">
  <ele>-7.935</ele>
  <time>2026-09-01T01:18:23Z</time>
  <course>2.43</course>
  <speed>0.8605230967266364</speed>
  <fix>3d</fix>
</trkpt>
<trkpt lat="33.8103493" lon="-118.3938669">
  <ele>-7.6</ele>
  <time>2026-09-01T01:18:23Z</time>
  <course>358.0</course>
  <speed>0.85</speed>
  <fix>3d</fix>
</trkpt>
<trkpt lat="33.810352" lon="-118.3938671">
  <ele>-7.978</ele>
  <time>2026-09-01T01:18:23Z</time>
  <course>2.53</course>
  <speed>0.8502352615599991</speed>
  <fix>3d</fix>
</trkpt>
<trkpt lat="33.8103509" lon="-118.393867">
  <ele>-7.69</ele>
  <time>2026-09-01T01:18:23Z</time>
  <course>358.1</course>
  <speed>0.85</speed>
  <fix>3d</fix>
</trkpt>
<trkpt lat="33.8103527" lon="-118.3938671">
  <ele>-8.02</ele>
  <time>2026-09-01T01:18:23Z</time>
  <course>2.64</course>
  <speed>0.8502352615599991</speed>
  <fix>3d</fix>
</trkpt>
<trkpt lat="33.8103509" lon="-118.393867">
  <ele>-7.69</ele>
  <time>2026-09-01T01:18:23Z</time>
  <course>358.1</course>
  <speed>0.85</speed>
  <fix>3d</fix>
</trkpt>
<trkpt lat="33.8103535" lon="-118.3938671">
  <ele>-8.062</ele>
  <time>2026-09-01T01:18:23Z</time>
  <course>2.76</course>
  <speed>0.8502352615599991</speed>
  <fix>3d</fix>
</trkpt>
<trkpt lat="33.8103524" lon="-118.393867">
  <ele>-7.78</ele>
  <time>2026-09-01T01:18:23Z</time>
  <course>358.24</course>
  <speed>0.85</speed>
  <fix>3d</fix>
</trkpt>
<trkpt lat="33.8103542" lon="-118.3938671">
  <ele>-8.104</ele>
  <time>2026-09-01T01:18:23Z</time>
  <course>2.87</course>
  <speed>0.8502352615599991</speed>
  <fix>3d</fix>
</trkpt>
<trkpt lat="33.8103524" lon="-118.393867">
  <ele>-7.78</ele>
  <time>2026-09-01T01:18:23Z</time>
  <course>358.24</course>
  <speed>0.85</speed>
  <fix>3d</fix>
</trkpt>
<trkpt lat="33.810355" lon="-118.3938671">
  <ele>-8.147</ele>
  <time>2026-09-01T01:18:23Z</time>
  <course>2.98</course>
  <speed>0.8500588214941364</speed>
  <fix>3d</fix>
</trkpt>
<trkpt lat="33.8103539" lon="-118.3938671">
  <ele>-7.87</ele>
  <time>2026-09-01T01:18:23Z</time>
  <course>358.41</course>
  <speed>0.84</speed>
  <fix>3d</fix>
</trkpt>
<trkpt lat="33.8103558" lon="-118.3938672">
  <ele>-8.189</ele>
  <time>2026-09-01T01:18:23Z</time>
  <course>3.09</course>
  <speed>0.8400595217006948</speed>
  <fix>3d</fix>
</trkpt>
<trkpt lat="33.8103539" lon="-118.3938671">
  <ele>-7.87</ele>
  <time>2026-09-01T01:18:23Z</time>
  <course>358.41</course>
  <speed>0.84</speed>
  <fix>3d</fix>
</trkpt>
<trkpt lat="33.8103565" lon="-118.3938672">
  <ele>-8.231</ele>
  <time>2026-09-01T01:18:23Z</time>
  <course>3.19</course>
  <speed>0.8400595217006948</speed>
  <fix>3d</fix>
</trkpt>
<trkpt lat="33.8103555" lon="-118.3938671">
  <ele>-7.95</ele>
  <time>2026-09-01T01:18:23Z</time>
  <course>358.56</course>
  <speed>0.84</speed>
  <fix>3d</fix>
</trkpt>
<trkpt lat="33.8103573" lon="-118.3938672">
  <ele>-8.27</ele>
  <time>2026-09-01T01:18:23Z</time>
  <course>3.3</course>
  <speed>0.8400595217006948</speed>
  <fix>3d</fix>
</trkpt>
<trkpt lat="33.8103555" lon="-118.3938671">
  <ele>-7.95</ele>
  <time>2026-09-01T01:18:23Z</time>
  <course>358.56</course>
  <speed>0.84</speed>
  <fix>3d</fix>
</trkpt>
<trkpt lat="33.810358" lon="-118.3938672">
  <ele>-8.31</ele>
  <time>2026-09-01T01:18:23Z</time>
  <course>3.39</course>
  <speed>0.8400595217006948</speed>
  <fix>3d</fix>
</trkpt>
<trkpt lat="33.810357" lon="-118.3938672">
  <ele>-8.02</ele>
  <time>2026-09-01T01:18:23Z</time>
  <course>358.71</course>
  <speed>0.84</speed>
  <fix>3d</fix>
</trkpt>
<trkpt lat="33.8103588" lon="-118.3938672">
  <ele>-8.349</ele>
  <time>2026-09-01T01:18:23Z</time>
  <course>3.48</course>
  <speed>0.84</speed>
  <fix>3d</fix>
</trkpt>
<trkpt lat="33.810357" lon="-118.3938672">
  <ele>-8.02</ele>
  <time>2026-09-01T01:18:23Z</time>
  <course>358.71</course>
  <speed>0.84</speed>
  <fix>3d</fix>
</trkpt>
<trkpt lat="33.8103595" lon="-118.3938672">
  <ele>-8.388</ele>
  <time>2026-09-01T01:18:23Z</time>
  <course>3.57</course>
  <speed>0.84</speed>
  <fix>3d</fix>
</trkpt>
<trkpt lat="33.8103585" lon="-118.3938672">
  <ele>-8.1</ele>
  <time>2026-09-01T01:18:23Z</time>
  <course>358.84</course>
  <speed>0.84</speed>
  <fix>3d</fix>
</trkpt>
<trkpt lat="33.8103603" lon="-118.3938672">
  <ele>-8.426</ele>
  <time>2026-09-01T01:18:23Z</time>
  <course>3.66</course>
  <speed>0.84</speed>
  <fix>3d</fix>
</trkpt>
<trkpt lat="33.8103585" lon="-118.3938672">
  <ele>-8.1</ele>
  <time>2026-09-01T01:18:23Z</time>
  <course>358.84</course>
  <speed>0.84</speed>
  <fix>3d</fix>
</trkpt>
<trkpt lat="33.810361" lon="-118.3938672">
  <ele>-8.464</ele>
  <time>2026-09-01T01:18:23Z</time>
  <course>3.74</course>
  <speed>0.84</speed>
  <fix>3d</fix>
</trkpt>
<trkpt lat="33.81036" lon="-118.3938673">
  <ele>-8.17</ele>
  <time>2026-09-01T01:18:23Z</time>
  <course>358.97</course>
  <speed>0.84</speed>
  <fix>3d</fix>
</trkpt>
<trkpt lat="33.8103618" lon="-118.3938672">
  <ele>-8.503</ele>
  <time>2026-09-01T01:18:23Z</time>
  <course>3.82</course>
  <speed>0.83</speed>
  <fix>3d</fix>
</trkpt>
<trkpt lat="33.81036" lon="-118.3938673">
  <ele>-8.17</ele>
  <time>2026-09-01T01:18:23Z</time>
  <course>358.97</course>
  <speed>0.84</speed>
  <fix>3d</fix>
</trkpt>
<trkpt lat="33.8103626" lon="-118.3938672">
  <ele>-8.543</ele>
  <time>2026-09-01T01:18:23Z</time>
  <course>3.9</course>
  <speed>0.83</speed>
  <fix>3d</fix>
</trkpt>
<trkpt lat="33.8103615" lon="-118.3938673">
  <ele>-8.25</ele>
  <time>2026-09-01T01:18:23Z</time>
  <course>359.11</course>
  <speed>0.84</speed>
  <fix>3d</fix>
</trkpt>
<trkpt lat="33.8103633" lon="-118.3938673">
  <ele>-8.583</ele>
  <time>2026-09-01T01:18:23Z</time>
  <course>3.99</course>
  <speed>0.83</speed>
  <fix>3d</fix>
</trkpt>
<trkpt lat="33.8103615" lon="-118.3938673">
  <ele>-8.25</ele>
  <time>2026-09-01T01:18:23Z</time>
  <course>359.11</course>
  <speed>0.84</speed>
  <fix>3d</fix>
</trkpt>
<trkpt lat="33.8103641" lon="-118.3938673">
  <ele>-8.623</ele>
  <time>2026-09-01T01:18:23Z</time>
  <course>4.06</course>
  <speed>0.83</speed>
  <fix>3d</fix>
</trkpt>
<trkpt lat="33.810363" lon="-118.3938673">
  <ele>-8.33</ele>
  <time>2026-09-01T01:18:23Z</time>
  <course>359.28</course>
  <speed>0.84</speed>
  <fix>3d</fix>
</trkpt>
<trkpt lat="33.8103648" lon="-118.3938673">
  <ele>-8.664</ele>
  <time>2026-09-01T01:18:23Z</time>
  <course>4.13</course>
  <speed>0.83</speed>
  <fix>3d</fix>
</trkpt>
<trkpt lat="33.810363" lon="-118.3938673">
  <ele>-8.33</ele>
  <time>2026-09-01T01:18:23Z</time>
  <course>359.28</course>
  <speed>0.84</speed>
  <fix>3d</fix>
</trkpt>
<trkpt lat="33.8103656" lon="-118.3938673">
  <ele>-8.706</ele>
  <time>2026-09-01T01:18:23Z</time>
  <course>4.17</course>
  <speed>0.83</speed>
  <fix>3d</fix>
</trkpt>
<trkpt lat="33.8103646" lon="-118.3938673">
  <ele>-8.41</ele>
  <time>2026-09-01T01:18:23Z</time>
  <course>359.39</course>
  <speed>0.84</speed>
  <fix>3d</fix>
</trkpt>
<trkpt lat="33.8103663" lon="-118.3938673">
  <ele>-8.749</ele>
  <time>2026-09-01T01:18:23Z</time>
  <course>4.2</course>
  <speed>0.83</speed>
  <fix>3d</fix>
</trkpt>
<trkpt lat="33.8103646" lon="-118.3938673">
  <ele>-8.41</ele>
  <time>2026-09-01T01:18:23Z</time>
  <course>359.39</course>
  <speed>0.84</speed>
  <fix>3d</fix>
</trkpt>
<trkpt lat="33.8103671" lon="-118.3938673">
  <ele>-8.792</ele>
  <time>2026-09-01T01:18:23Z</time>
  <course>4.22</course>
  <speed>0.83</speed>
  <fix>3d</fix>
</trkpt>
<trkpt lat="33.8103661" lon="-118.3938674">
  <ele>-8.49</ele>
  <time>2026-09-01T01:18:23Z</time>
  <course>359.44</course>
  <speed>0.84</speed>
  <fix>3d</fix>
</trkpt>
<trkpt lat="33.8103678" lon="-118.3938673">
  <ele>-8.836</ele>
  <time>2026-09-01T01:18:23Z</time>
  <course>4.24</course>
  <speed>0.83</speed>
  <fix>3d</fix>
</trkpt>
<trkpt lat="33.8103661" lon="-118.3938674">
  <ele>-8.49</ele>
  <time>2026-09-01T01:18:23Z</time>
  <course>359.44</course>
  <speed>0.84</speed>
  <fix>3d</fix>
</trkpt>
<trkpt lat="33.8103686" lon="-118.3938673">
  <ele>-8.88</ele>
  <time>2026-09-01T01:18:23Z</time>
  <course>4.27</course>
  <speed>0.83</speed>
  <fix>3d</fix>
</trkpt>
<trkpt lat="33.8103676" lon="-118.3938674">
  <ele>-8.57</ele>
  <time>2026-09-01T01:18:23Z</time>
  <course>359.48</course>
  <speed>0.84</speed>
  <fix>3d</fix>
</trkpt>
<trkpt lat="33.8103693" lon="-118.3938673">
  <ele>-8.923</ele>
  <time>2026-09-01T01:18:23Z</time>
  <course>4.31</course>
  <speed>0.83</speed>
  <fix>3d</fix>
</trkpt>
<trkpt lat="33.8103676" lon="-118.3938674">
  <ele>-8.57</ele>
  <time>2026-09-01T01:18:23Z</time>
  <course>359.48</course>
  <speed>0.84</speed>
  <fix>3d</fix>
</trkpt>
<trkpt lat="33.8103701" lon="-118.3938673">
  <ele>-8.968</ele>
  <time>2026-09-01T01:18:23Z</time>
  <course>4.35</course>
  <speed>0.83</speed>
  <fix>3d</fix>
</trkpt>
<trkpt lat="33.8103691" lon="-118.3938674">
  <ele>-8.65</ele>
  <time>2026-09-01T01:18:23Z</time>
  <course>359.56</course>
  <speed>0.84</speed>
  <fix>3d</fix>
</trkpt>
<trkpt lat="33.8103709" lon="-118.3938673">
  <ele>-9.013</ele>
  <time>2026-09-01T01:18:23Z</time>
  <course>4.38</course>
  <speed>0.83</speed>
  <fix>3d</fix>
</trkpt>
<trkpt lat="33.8103691" lon="-118.3938674">
  <ele>-8.65</ele>
  <time>2026-09-01T01:18:23Z</time>
  <course>359.56</course>
  <speed>0.84</speed>
  <fix>3d</fix>
</trkpt>
<trkpt lat="33.8103716" lon="-118.3938673">
  <ele>-9.057</ele>
  <time>2026-09-01T01:18:23Z</time>
  <course>4.4</course>
  <speed>0.83</speed>
  <fix>3d</fix>
</trkpt>
<trkpt lat="33.8103706" lon="-118.3938674">
  <ele>-8.74</ele>
  <time>2026-09-01T01:18:23Z</time>
  <course>359.65</course>
  <speed>0.84</speed>
  <fix>3d</fix>
</trkpt>
<trkpt lat="33.8103724" lon="-118.3938673">
  <ele>-9.103</ele>
  <time>2026-09-01T01:18:23Z</time>
  <course>4.41</course>
  <speed>0.8300602387778854</speed>
  <fix>3d</fix>
</trkpt>
<trkpt lat="33.8103706" lon="-118.3938674">
  <ele>-8.74</ele>
  <time>2026-09-01T01:18:23Z</time>
  <course>359.65</course>
  <speed>0.84</speed>
  <fix>3d</fix>
</trkpt>
<trkpt lat="33.8103731" lon="-118.3938673">
  <ele>-9.148</ele>
  <time>2026-09-01T01:18:23Z</time>
  <course>4.41</course>
  <speed>0.8300602387778854</speed>
  <fix>3d</fix>
</trkpt>
<trkpt lat="33.8103722" lon="-118.3938674">
  <ele>-8.82</ele>
  <time>2026-09-01T01:18:23Z</time>
  <course>359.69</course>
  <speed>0.85</speed>
  <fix>3d</fix>
</trkpt>
<trkpt lat="33.8103739" lon="-118.3938673">
  <ele>-9.193</ele>
  <time>2026-09-01T01:18:23Z</time>
  <course>4.41</course>
  <speed>0.8300602387778854</speed>
  <fix>3d</fix>
</trkpt>
<trkpt lat="33.8103722" lon="-118.3938674">
  <ele>-8.82</ele>
  <time>2026-09-01T01:18:23Z</time>
  <course>359.69</course>
  <speed>0.85</speed>
  <fix>3d</fix>
</trkpt>
<trkpt lat="33.8103747" lon="-118.3938673">
  <ele>-9.237</ele>
  <time>2026-09-01T01:18:23Z</time>
  <course>4.4</course>
  <speed>0.8300602387778854</speed>
  <fix>3d</fix>
</trkpt>
<trkpt lat="33.8103737" lon="-118.3938674">
  <ele>-8.91</ele>
  <time>2026-09-01T01:18:23Z</time>
  <course>359.7</course>
  <speed>0.85</speed>
  <fix>3d</fix>
</trkpt>
<trkpt lat="33.8103754" lon="-118.3938673">
  <ele>-9.281</ele>
  <time>2026-09-01T01:18:23Z</time>
  <course>4.39</course>
  <speed>0.8300602387778854</speed>
  <fix>3d</fix>
</trkpt>
<trkpt lat="33.8103737" lon="-118.3938674">
  <ele>-8.91</ele>
  <time>2026-09-01T01:18:23Z</time>
  <course>359.7</course>
  <speed>0.85</speed>
  <fix>3d</fix>
</trkpt>
<trkpt lat="33.8103762" lon="-118.3938673">
  <ele>-9.324</ele>
  <time>2026-09-01T01:18:23Z</time>
  <course>4.36</course>
  <speed>0.8300602387778854</speed>
  <fix>3d</fix>
</trkpt>
<trkpt lat="33.8103753" lon="-118.3938674">
  <ele>-9.0</ele>
  <time>2026-09-01T01:18:23Z</time>
  <course>359.69</course>
  <speed>0.85</speed>
  <fix>3d</fix>
</trkpt>
<trkpt lat="33.810377" lon="-118.3938673">
  <ele>-9.368</ele>
  <time>2026-09-01T01:18:23Z</time>
  <course>4.34</course>
  <speed>0.8300602387778854</speed>
  <fix>3d</fix>
</trkpt>
<trkpt lat="33.8103753" lon="-118.3938674">
  <ele>-9.0</ele>
  <time>2026-09-01T01:18:23Z</time>
  <course>359.69</course>
  <speed>0.85</speed>
  <fix>3d</fix>
</trkpt>
<trkpt lat="33.8103777" lon="-118.3938673">
  <ele>-9.412</ele>
  <time>2026-09-01T01:18:23Z</time>
  <course>4.32</course>
  <speed>0.8300602387778854</speed>
  <fix>3d</fix>
</trkpt>
<trkpt lat="33.8103768" lon="-118.3938674">
  <ele>-9.08</ele>
  <time>2026-09-01T01:18:23Z</time>
  <course>359.67</course>
  <speed>0.85</speed>
  <fix>3d</fix>
</trkpt>
<trkpt lat="33.8103785" lon="-118.3938673">
  <ele>-9.456</ele>
  <time>2026-09-01T01:18:23Z</time>
  <course>4.29</course>
  <speed>0.8400595217006948</speed>
  <fix>3d</fix>
</trkpt>
<trkpt lat="33.8103768" lon="-118.3938674">
  <ele>-9.08</ele>
  <time>2026-09-01T01:18:23Z</time>
  <course>359.67</course>
  <speed>0.85</speed>
  <fix>3d</fix>
</trkpt>
<trkpt lat="33.8103793" lon="-118.3938673">
  <ele>-9.5</ele>
  <time>2026-09-01T01:18:23Z</time>
  <course>4.26</course>
  <speed>0.8400595217006948</speed>
  <fix>3d</fix>
</trkpt>
<trkpt lat="33.8103783" lon="-118.3938675">
  <ele>-9.16</ele>
  <time>2026-09-01T01:18:23Z</time>
  <course>359.65</course>
  <speed>0.86</speed>
  <fix>3d</fix>
</trkpt>
<trkpt lat="33.81038" lon="-118.3938673">
  <ele>-9.542</ele>
  <time>2026-09-01T01:18:23Z</time>
  <course>4.24</course>
  <speed>0.8400595217006948</speed>
  <fix>3d</fix>
</trkpt>
<trkpt lat="33.8103783" lon="-118.3938675">
  <ele>-9.16</ele>
  <time>2026-09-01T01:18:23Z</time>
  <course>359.65</course>
  <speed>0.86</speed>
  <fix>3d</fix>
</trkpt>
<trkpt lat="33.8103808" lon="-118.3938673">
  <ele>-9.585</ele>
  <time>2026-09-01T01:18:23Z</time>
  <course>4.23</course>
  <speed>0.8400595217006948</speed>
  <fix>3d</fix>
</trkpt>
<trkpt lat="33.8103799" lon="-118.3938675">
  <ele>-9.25</ele>
  <time>2026-09-01T01:18:23Z</time>
  <course>359.66</course>
  <speed>0.86</speed>
  <fix>3d</fix>
</trkpt>
<trkpt lat="33.8103816" lon="-118.3938673">
  <ele>-9.626</ele>
  <time>2026-09-01T01:18:23Z</time>
  <course>4.24</course>
  <speed>0.8400595217006948</speed>
  <fix>3d</fix>
</trkpt>
<trkpt lat="33.8103799" lon="-118.3938675">
  <ele>-9.25</ele>
  <time>2026-09-01T01:18:23Z</time>
  <course>359.66</course>
  <speed>0.86</speed>
  <fix>3d</fix>
</trkpt>
<trkpt lat="33.8103824" lon="-118.3938673">
  <ele>-9.668</ele>
  <time>2026-09-01T01:18:23Z</time>
  <course>4.25</course>
  <speed>0.8400595217006948</speed>
  <fix>3d</fix>
</trkpt>
<trkpt lat="33.8103814" lon="-118.3938675">
  <ele>-9.33</ele>
  <time>2026-09-01T01:18:23Z</time>
  <course>359.73</course>
  <speed>0.86</speed>
  <fix>3d</fix>
</trkpt>
<trkpt lat="33.8103831" lon="-118.3938673">
  <ele>-9.709</ele>
  <time>2026-09-01T01:18:23Z</time>
  <course>4.27</course>
  <speed>0.8400595217006948</speed>
  <fix>3d</fix>
</trkpt>
<trkpt lat="33.8103814" lon="-118.3938675">
  <ele>-9.33</ele>
  <time>2026-09-01T01:18:23Z</time>
  <course>359.73</course>
  <speed>0.86</speed>
  <fix>3d</fix>
</trkpt>
<trkpt lat="33.8103839" lon="-118.3938673">
  <ele>-9.752</ele>
  <time>2026-09-01T01:18:23Z</time>
  <course>4.27</course>
  <speed>0.8400595217006948</speed>
  <fix>3d</fix>
</trkpt>
<trkpt lat="33.810383" lon="-118.3938675">
  <ele>-9.42</ele>
  <time>2026-09-01T01:18:23Z</time>
  <course>359.81</course>
  <speed>0.86</speed>
  <fix>3d</fix>
</trkpt>
<trkpt lat="33.8103847" lon="-118.3938673">
  <ele>-9.797</ele>
  <time>2026-09-01T01:18:23Z</time>
  <course>4.28</course>
  <speed>0.8400595217006948</speed>
  <fix>3d</fix>
</trkpt>
<trkpt lat="33.810383" lon="-118.3938675">
  <ele>-9.42</ele>
  <time>2026-09-01T01:18:23Z</time>
  <course>359.81</course>
  <speed>0.86</speed>
  <fix>3d</fix>
</trkpt>
<trkpt lat="33.8103855" lon="-118.3938673">
  <ele>-9.841</ele>
  <time>2026-09-01T01:18:23Z</time>
  <course>4.28</course>
  <speed>0.8400595217006948</speed>
  <fix>3d</fix>
</trkpt>
<trkpt lat="33.8103846" lon="-118.3938675">
  <ele>-9.5</ele>
  <time>2026-09-01T01:18:23Z</time>
  <course>359.85</course>
  <speed>0.87</speed>
  <fix>3d</fix>
</trkpt>
<trkpt lat="33.8103862" lon="-118.3938673">
  <ele>-9.885</ele>
  <time>2026-09-01T01:18:23Z</time>
  <course>4.27</course>
  <speed>0.8400595217006948</speed>
  <fix>3d</fix>
</trkpt>
<trkpt lat="33.8103846" lon="-118.3938675">
  <ele>-9.5</ele>
  <time>2026-09-01T01:18:23Z</time>
  <course>359.85</course>
  <speed>0.87</speed>
  <fix>3d</fix>
</trkpt>
<trkpt lat="33.810387" lon="-118.3938673">
  <ele>-9.929</ele>
  <time>2026-09-01T01:18:23Z</time>
  <course>4.26</course>
  <speed>0.8400595217006948</speed>
  <fix>3d</fix>
</trkpt>
<trkpt lat="33.8103861" lon="-118.3938675">
  <ele>-9.59</ele>
  <time>2026-09-01T01:18:23Z</time>
  <course>359.86</course>
  <speed>0.87</speed>
  <fix>3d</fix>
</trkpt>
<trkpt lat="33.8103878" lon="-118.3938673">
  <ele>-9.973</ele>
  <time>2026-09-01T01:18:23Z</time>
  <course>4.24</course>
  <speed>0.8400595217006948</speed>
  <fix>3d</fix>
</trkpt>
<trkpt lat="33.8103861" lon="-118.3938675">
  <ele>-9.59</ele>
  <time>2026-09-01T01:18:23Z</time>
  <course>359.86</course>
  <speed>0.87</speed>
  <fix>3d</fix>
</trkpt>
<trkpt lat="33.8103886" lon="-118.3938673">
  <ele>-10.017</ele>
  <time>2026-09-01T01:18:23Z</time>
  <course>4.23</course>
  <speed>0.8400595217006948</speed>
  <fix>3d</fix>
</trkpt>
<trkpt lat="33.8103877" lon="-118.3938675">
  <ele>-9.67</ele>
  <time>2026-09-01T01:18:24Z</time>
  <course>359.87</course>
  <speed>0.87</speed>
  <fix>3d</fix>
</trkpt>
<trkpt lat="33.8103893" lon="-118.3938673">
  <ele>-10.06</ele>
  <time>2026-09-01T01:18:24Z</time>
  <course>4.21</course>
  <speed>0.7300684899377592</speed>
  <fix>3d</fix>
</trkpt>
<trkpt lat="33.8103877" lon="-118.3938675">
  <ele>-9.67</ele>
  <time>2026-09-01T01:18:24Z</time>
  <course>359.87</course>
  <speed>0.87</speed>
  <fix>3d</fix>
</trkpt>
<trkpt lat="33.81039" lon="-118.3938673">
  <ele>-10.099</ele>
  <time>2026-09-01T01:18:24Z</time>
  <course>4.31</course>
  <speed>0.620322496770833</speed>
  <fix>3d</fix>
</trkpt>
<trkpt lat="33.8103892" lon="-118.3938675">
  <ele>-9.76</ele>
  <time>2026-09-01T01:18:24Z</time>
  <course>0.04</course>
  <speed>0.8</speed>
  <fix>3d</fix>
</trkpt>
<trkpt lat="33.8103905" lon="-118.3938673">
  <ele>-10.133</ele>
  <time>2026-09-01T01:18:24Z</time>
  <course>4.59</course>
  <speed>0.5203844732503076</speed>
  <fix>3d</fix>
</trkpt>
<trkpt lat="33.8103892" lon="-118.3938675">
  <ele>-9.76</ele>
  <time>2026-09-01T01:18:24Z</time>
  <course>0.04</course>
  <speed>0.8</speed>
  <fix>3d</fix>
</trkpt>
<trkpt lat="33.8103909" lon="-118.3938673">
  <ele>-10.158</ele>
  <time>2026-09-01T01:18:24Z</time>
  <course>5.06</course>
  <speed>0.44045431091090476</speed>
  <fix>3d</fix>
</trkpt>
<trkpt lat="33.8103905" lon="-118.3938675">
  <ele>-9.83</ele>
  <time>2026-09-01T01:18:24Z</time>
  <course>0.6</course>
  <speed>0.63</speed>
  <fix>3d</fix>
</trkpt>
<trkpt lat="33.8103913" lon="-118.3938673">
  <ele>-10.175</ele>
  <time>2026-09-01T01:18:24Z</time>
  <course>5.68</course>
  <speed>0.38052595180880894</speed>
  <fix>3d</fix>
</trkpt>
<trkpt lat="33.8103905" lon="-118.3938675">
  <ele>-9.83</ele>
  <time>2026-09-01T01:18:24Z</time>
  <course>0.6</course>
  <speed>0.63</speed>
  <fix>3d</fix>
</trkpt>
<trkpt lat="33.8103917" lon="-118.3938673">
  <ele>-10.184</ele>
  <time>2026-09-01T01:18:24Z</time>
  <course>6.51</course>
  <speed>0.32062439083762795</speed>
  <fix>3d</fix>
</trkpt>
<trkpt lat="33.8103915" lon="-118.3938675">
  <ele>-9.88</ele>
  <time>2026-09-01T01:18:24Z</time>
  <course>1.49</course>
  <speed>0.46</speed>
  <fix>3d</fix>
</trkpt>
<trkpt lat="33.810392" lon="-118.3938673">
  <ele>-10.189</ele>
  <time>2026-09-01T01:18:24Z</time>
  <course>7.48</course>
  <speed>0.280713376952364</speed>
  <fix>3d</fix>
</trkpt>
<trkpt lat="33.8103915" lon="-118.3938675">
  <ele>-9.88</ele>
  <time>2026-09-01T01:18:24Z</time>
  <course>1.49</course>
  <speed>0.46</speed>
  <fix>3d</fix>
</trkpt>
<trkpt lat="33.8103923" lon="-118.3938673">
  <ele>-10.191</ele>
  <time>2026-09-01T01:18:24Z</time>
  <course>8.9</course>
  <speed>0.24083189157584592</speed>
  <fix>3d</fix>
</trkpt>
<trkpt lat="33.8103923" lon="-118.3938675">
  <ele>-9.91</ele>
  <time>2026-09-01T01:18:24Z</time>
  <course>2.43</course>
  <speed>0.35</speed>
  <fix>3d</fix>
</trkpt>
<trkpt lat="33.8103925" lon="-118.3938673">
  <ele>-10.19</ele>
  <time>2026-09-01T01:18:24Z</time>
  <course>10.21</course>
  <speed>0.2109502310972899</speed>
  <fix>3d</fix>
</trkpt>
<trkpt lat="33.8103923" lon="-118.3938675">
  <ele>-9.91</ele>
  <time>2026-09-01T01:18:24Z</time>
  <course>2.43</course>
  <speed>0.35</speed>
  <fix>3d</fix>
</trkpt>
<trkpt lat="33.8103927" lon="-118.3938673">
  <ele>-10.187</ele>
  <time>2026-09-01T01:18:24Z</time>
  <course>10.35</course>
  <speed>0.2009975124224178</speed>
  <fix>3d</fix>
</trkpt>
<trkpt lat="33.8103928" lon="-118.3938675">
  <ele>-9.92</ele>
  <time>2026-09-01T01:18:24Z</time>
  <course>3.37</course>
  <speed>0.27</speed>
  <fix>3d</fix>
</trkpt>
<trkpt lat="33.810393" lon="-118.3938673">
  <ele>-10.183</ele>
  <time>2026-09-01T01:18:24Z</time>
  <course>9.07</course>
  <speed>0.2009975124224178</speed>
  <fix>3d</fix>
</trkpt>
<trkpt lat="33.8103928" lon="-118.3938675">
  <ele>-9.92</ele>
  <time>2026-09-01T01:18:24Z</time>
  <course>3.37</course>
  <speed>0.27</speed>
  <fix>3d</fix>
</trkpt>
<trkpt lat="33.8103932" lon="-118.3938673">
  <ele>-10.178</ele>
  <time>2026-09-01T01:18:24Z</time>
  <course>7.62</course>
  <speed>0.191049731745428</speed>
  <fix>3d</fix>
</trkpt>
<trkpt lat="33.8103933" lon="-118.3938675">
  <ele>-9.92</ele>
  <time>2026-09-01T01:18:24Z</time>
  <course>3.95</course>
  <speed>0.23</speed>
  <fix>3d</fix>
</trkpt>
<trkpt lat="33.8103934" lon="-118.3938673">
  <ele>-10.173</ele>
  <time>2026-09-01T01:18:24Z</time>
  <course>6.3</course>
  <speed>0.17029386365926402</speed>
  <fix>3d</fix>
</trkpt>
<trkpt lat="33.8103933" lon="-118.3938675">
  <ele>-9.92</ele>
  <time>2026-09-01T01:18:24Z</time>
  <course>3.95</course>
  <speed>0.23</speed>
  <fix>3d</fix>
</trkpt>
<trkpt lat="33.8103932" lon="-118.3938673">
  <ele>-10.172</ele>
  <time>2026-09-01T01:18:24Z</time>
  <course>4.62</course>
  <speed>0.875728268357257</speed>
  <fix>3d</fix>
</trkpt>
<trkpt lat="33.8103937" lon="-118.3938674">
  <ele>-9.92</ele>
  <time>2026-09-01T01:18:24Z</time>
  <course>2.12</course>
  <speed>0.14</speed>
  <fix>3d</fix>
</trkpt>
<trkpt lat="33.8103921" lon="-118.3938674">
  <ele>-10.181</ele>
  <time>2026-09-01T01:18:24Z</time>
  <course>3.44</course>
  <speed>1.5119854496654392</speed>
  <fix>3d</fix>
</trkpt>
<trkpt lat="33.8103937" lon="-118.3938674">
  <ele>-9.92</ele>
  <time>2026-09-01T01:18:24Z</time>
  <course>2.12</course>
  <speed>0.14</speed>
  <fix>3d</fix>
</trkpt>
<trkpt lat="33.8103908" lon="-118.3938677">
  <ele>-10.202</ele>
  <time>2026-09-01T01:18:24Z</time>
  <course>2.8</course>
  <speed>1.6745148551147582</speed>
  <fix>3d</fix>
</trkpt>
<trkpt lat="33.8103931" lon="-118.3938674">
  <ele>-9.93</ele>
  <time>2026-09-01T01:18:24Z</time>
  <course>186.45</course>
  <speed>0.74</speed>
  <fix>3d</fix>
</trkpt>
<trkpt lat="33.8103894" lon="-118.3938679">
  <ele>-10.233</ele>
  <time>2026-09-01T01:18:24Z</time>
  <course>2.52</course>
  <speed>1.675857989210303</speed>
  <fix>3d</fix>
</trkpt>
<trkpt lat="33.8103931" lon="-118.3938674">
  <ele>-9.93</ele>
  <time>2026-09-01T01:18:24Z</time>
  <course>186.45</course>
  <speed>0.74</speed>
  <fix>3d</fix>
</trkpt>
<trkpt lat="33.810388" lon="-118.3938682">
  <ele>-10.276</ele>
  <time>2026-09-01T01:18:24Z</time>
  <course>2.42</course>
  <speed>1.6560495161679194</speed>
  <fix>3d</fix>
</trkpt>
<trkpt lat="33.8103907" lon="-118.3938676">
  <ele>-9.96</ele>
  <time>2026-09-01T01:18:24Z</time>
  <course>186.32</course>
  <speed>1.61</speed>
  <fix>3d</fix>
</trkpt>
<trkpt lat="33.8103867" lon="-118.3938684">
  <ele>-10.329</ele>
  <time>2026-09-01T01:18:24Z</time>
  <course>2.4</course>
  <speed>1.6164467204334327</speed>
  <fix>3d</fix>
</trkpt>
<trkpt lat="33.8103907" lon="-118.3938676">
  <ele>-9.96</ele>
  <time>2026-09-01T01:18:24Z</time>
  <course>186.32</course>
  <speed>1.61</speed>
  <fix>3d</fix>
</trkpt>
<trkpt lat="33.8103853" lon="-118.3938686">
  <ele>-10.392</ele>
  <time>2026-09-01T01:18:24Z</time>
  <course>2.4</course>
  <speed>1.5754364474646383</speed>
  <fix>3d</fix>
</trkpt>
<trkpt lat="33.8103878" lon="-118.3938681">
  <ele>-10.05</ele>
  <time>2026-09-01T01:18:24Z</time>
  <course>186.79</course>
  <speed>1.64</speed>
  <fix>3d</fix>
</trkpt>
<trkpt lat="33.810384" lon="-118.3938688">
  <ele>-10.465</ele>
  <time>2026-09-01T01:18:24Z</time>
  <course>2.43</course>
  <speed>1.545736070614903</speed>
  <fix>3d</fix>
</trkpt>
<trkpt lat="33.8103878" lon="-118.3938681">
  <ele>-10.05</ele>
  <time>2026-09-01T01:18:24Z</time>
  <course>186.79</course>
  <speed>1.64</speed>
  <fix>3d</fix>
</trkpt>
<trkpt lat="33.8103827" lon="-118.393869">
  <ele>-10.548</ele>
  <time>2026-09-01T01:18:24Z</time>
  <course>2.47</course>
  <speed>1.5146286673637206</speed>
  <fix>3d</fix>
</trkpt>
<trkpt lat="33.8103849" lon="-118.3938686">
  <ele>-10.16</ele>
  <time>2026-09-01T01:18:24Z</time>
  <course>187.07</course>
  <speed>1.58</speed>
  <fix>3d</fix>
</trkpt>
<trkpt lat="33.8103814" lon="-118.3938692">
  <ele>-10.641</ele>
  <time>2026-09-01T01:18:24Z</time>
  <course>2.52</course>
  <speed>1.4835430563350698</speed>
  <fix>3d</fix>
</trkpt>
<trkpt lat="33.8103849" lon="-118.3938686">
  <ele>-10.16</ele>
  <time>2026-09-01T01:18:24Z</time>
  <course>187.07</course>
  <speed>1.58</speed>
  <fix>3d</fix>
</trkpt>
<trkpt lat="33.8103801" lon="-118.3938694">
  <ele>-10.743</ele>
  <time>2026-09-01T01:18:24Z</time>
  <course>2.59</course>
  <speed>1.4723111084278349</speed>
  <fix>3d</fix>
</trkpt>
<trkpt lat="33.8103822" lon="-118.393869">
  <ele>-10.31</ele>
  <time>2026-09-01T01:18:24Z</time>
  <course>187.18</course>
  <speed>1.52</speed>
  <fix>3d</fix>
</trkpt>
<trkpt lat="33.8103788" lon="-118.3938696">
  <ele>-10.856</ele>
  <time>2026-09-01T01:18:24Z</time>
  <course>2.69</course>
  <speed>1.4611296999240004</speed>
  <fix>3d</fix>
</trkpt>
<trkpt lat="33.8103822" lon="-118.393869">
  <ele>-10.31</ele>
  <time>2026-09-01T01:18:24Z</time>
  <course>187.18</course>
  <speed>1.52</speed>
  <fix>3d</fix>
</trkpt>
<trkpt lat="33.8103775" lon="-118.3938698">
  <ele>-10.978</ele>
  <time>2026-09-01T01:18:24Z</time>
  <course>2.89</course>
  <speed>1.45</speed>
  <fix>3d</fix>
</trkpt>
<trkpt lat="33.8103795" lon="-118.3938694">
  <ele>-10.5</ele>
  <time>2026-09-01T01:18:24Z</time>
  <course>186.99</course>
  <speed>1.48</speed>
  <fix>3d</fix>
</trkpt>
<trkpt lat="33.8103762" lon="-118.3938699">
  <ele>-11.109</ele>
  <time>2026-09-01T01:18:24Z</time>
  <course>3.14</course>
  <speed>1.4488616221019868</speed>
  <fix>3d</fix>
</trkpt>
<trkpt lat="33.8103795" lon="-118.3938694">
  <ele>-10.5</ele>
  <time>2026-09-01T01:18:24Z</time>
  <course>186.99</course>
  <speed>1.48</speed>
  <fix>3d</fix>
</trkpt>
<trkpt lat="33.8103749" lon="-118.3938701">
  <ele>-11.241</ele>
  <time>2026-09-01T01:18:24Z</time>
  <course>3.35</course>
  <speed>1.4477914214416385</speed>
  <fix>3d</fix>
</trkpt>
<trkpt lat="33.8103768" lon="-118.3938697">
  <ele>-10.72</ele>
  <time>2026-09-01T01:18:24Z</time>
  <course>186.42</course>
  <speed>1.46</speed>
  <fix>3d</fix>
</trkpt>
<trkpt lat="33.8103736" lon="-118.3938702">
  <ele>-11.374</ele>
  <time>2026-09-01T01:18:24Z</time>
  <course>3.52</course>
  <speed>1.4567429423202984</speed>
  <fix>3d</fix>
</trkpt>
<trkpt lat="33.8103768" lon="-118.3938697">
  <ele>-10.72</ele>
  <time>2026-09-01T01:18:24Z</time>
  <course>186.42</course>
  <speed>1.46</speed>
  <fix>3d</fix>
</trkpt>
<trkpt lat="33.8103723" lon="-118.3938703">
  <ele>-11.507</ele>
  <time>2026-09-01T01:18:24Z</time>
  <course>3.67</course>
  <speed>1.4558159224297555</speed>
  <fix>3d</fix>
</trkpt>
<trkpt lat="33.8103743" lon="-118.39387">
  <ele>-10.96</ele>
  <time>2026-09-01T01:18:24Z</time>
  <course>185.74</course>
  <speed>1.46</speed>
  <fix>3d</fix>
</trkpt>
<trkpt lat="33.8103711" lon="-118.3938705">
  <ele>-11.639</ele>
  <time>2026-09-01T01:18:24Z</time>
  <course>3.73</course>
  <speed>1.4549570440394453</speed>
  <fix>3d</fix>
</trkpt>
<trkpt lat="33.8103743" lon="-118.39387">
  <ele>-10.96</ele>
  <time>2026-09-01T01:18:24Z</time>
  <course>185.74</course>
  <speed>1.46</speed>
  <fix>3d</fix>
</trkpt>
<trkpt lat="33.8103698" lon="-118.3938706">
  <ele>-11.771</ele>
  <time>2026-09-01T01:18:24Z</time>
  <course>3.73</course>
  <speed>1.4549570440394453</speed>
  <fix>3d</fix>
</trkpt>
<trkpt lat="33.8103717" lon="-118.3938704">
  <ele>-11.2</ele>
  <time>2026-09-01T01:18:24Z</time>
  <course>185.35</course>
  <speed>1.46</speed>
  <fix>3d</fix>
</trkpt>
<trkpt lat="33.8103685" lon="-118.3938707">
  <ele>-11.902</ele>
  <time>2026-09-01T01:18:24Z</time>
  <course>3.7</course>
  <speed>1.4549570440394453</speed>
  <fix>3d</fix>
</trkpt>
<trkpt lat="33.8103717" lon="-118.3938704">
  <ele>-11.2</ele>
  <time>2026-09-01T01:18:24Z</time>
  <course>185.35</course>
  <speed>1.46</speed>
  <fix>3d</fix>
</trkpt>
<trkpt lat="33.8103672" lon="-118.3938709">
  <ele>-12.032</ele>
  <time>2026-09-01T01:18:24Z</time>
  <course>3.67</course>
  <speed>1.4549570440394453</speed>
  <fix>3d</fix>
</trkpt>
<trkpt lat="33.810369" lon="-118.3938707">
  <ele>-11.45</ele>
  <time>2026-09-01T01:18:24Z</time>
  <course>185.35</course>
  <speed>1.46</speed>
  <fix>3d</fix>
</trkpt>
<trkpt lat="33.8103659" lon="-118.393871">
  <ele>-12.162</ele>
  <time>2026-09-01T01:18:24Z</time>
  <course>3.65</course>
  <speed>1.4549570440394453</speed>
  <fix>3d</fix>
</trkpt>
<trkpt lat="33.810369" lon="-118.3938707">
  <ele>-11.45</ele>
  <time>2026-09-01T01:18:24Z</time>
  <course>185.35</course>
  <speed>1.46</speed>
  <fix>3d</fix>
</trkpt>
<trkpt lat="33.8103646" lon="-118.3938711">
  <ele>-12.291</ele>
  <time>2026-09-01T01:18:24Z</time>
  <course>3.65</course>
  <speed>1.4558159224297555</speed>
  <fix>3d</fix>
</trkpt>
<trkpt lat="33.8103664" lon="-118.393871">
  <ele>-11.69</ele>
  <time>2026-09-01T01:18:24Z</time>
  <course>185.56</course>
  <speed>1.45</speed>
  <fix>3d</fix>
</trkpt>
<trkpt lat="33.8103633" lon="-118.3938713">
  <ele>-12.419</ele>
  <time>2026-09-01T01:18:24Z</time>
  <course>3.63</course>
  <speed>1.4558159224297555</speed>
  <fix>3d</fix>
</trkpt>
<trkpt lat="33.8103664" lon="-118.393871">
  <ele>-11.69</ele>
  <time>2026-09-01T01:18:24Z</time>
  <course>185.56</course>
  <speed>1.45</speed>
  <fix>3d</fix>
</trkpt>
<trkpt lat="33.810362" lon="-118.3938714">
  <ele>-12.547</ele>
  <time>2026-09-01T01:18:24Z</time>
  <course>3.62</course>
  <speed>1.4558159224297555</speed>
  <fix>3d</fix>
</trkpt>
<trkpt lat="33.8103638" lon="-118.3938713">
  <ele>-11.93</ele>
  <time>2026-09-01T01:18:24Z</time>
  <course>185.78</course>
  <speed>1.46</speed>
  <fix>3d</fix>
</trkpt>
<trkpt lat="33.8103607" lon="-118.3938716">
  <ele>-12.674</ele>
  <time>2026-09-01T01:18:24Z</time>
  <course>3.6</course>
  <speed>1.4558159224297555</speed>
  <fix>3d</fix>
</trkpt>
<trkpt lat="33.8103638" lon="-118.3938713">
  <ele>-11.93</ele>
  <time>2026-09-01T01:18:24Z</time>
  <course>185.78</course>
  <speed>1.46</speed>
  <fix>3d</fix>
</trkpt>
<trkpt lat="33.8103594" lon="-118.3938717">
  <ele>-12.8</ele>
  <time>2026-09-01T01:18:24Z</time>
  <course>3.59</course>
  <speed>1.4558159224297555</speed>
  <fix>3d</fix>
</trkpt>
<trkpt lat="33.8103612" lon="-118.3938716">
  <ele>-12.18</ele>
  <time>2026-09-01T01:18:24Z</time>
  <course>185.96</course>
  <speed>1.46</speed>
  <fix>3d</fix>
</trkpt>
<trkpt lat="33.8103581" lon="-118.3938718">
  <ele>-12.924</ele>
  <time>2026-09-01T01:18:24Z</time>
  <course>3.57</course>
  <speed>1.4558159224297555</speed>
  <fix>3d</fix>
</trkpt>
<trkpt lat="33.8103612" lon="-118.3938716">
  <ele>-12.18</ele>
  <time>2026-09-01T01:18:24Z</time>
  <course>185.96</course>
  <speed>1.46</speed>
  <fix>3d</fix>
</trkpt>
<trkpt lat="33.8103568" lon="-118.393872">
  <ele>-13.048</ele>
  <time>2026-09-01T01:18:24Z</time>
  <course>3.54</course>
  <speed>1.4657762448614045</speed>
  <fix>3d</fix>
</trkpt>
<trkpt lat="33.8103586" lon="-118.3938719">
  <ele>-12.42</ele>
  <time>2026-09-01T01:18:24Z</time>
  <course>186.11</course>
  <speed>1.46</speed>
  <fix>3d</fix>
</trkpt>
<trkpt lat="33.8103555" lon="-118.3938721">
  <ele>-13.171</ele>
  <time>2026-09-01T01:18:24Z</time>
  <course>3.52</course>
  <speed>1.4657762448614045</speed>
  <fix>3d</fix>
</trkpt>
<trkpt lat="33.8103586" lon="-118.3938719">
  <ele>-12.42</ele>
  <time>2026-09-01T01:18:24Z</time>
  <course>186.11</course>
  <speed>1.46</speed>
  <fix>3d</fix>
</trkpt>
<trkpt lat="33.8103542" lon="-118.3938723">
  <ele>-13.295</ele>
  <time>2026-09-01T01:18:24Z</time>
  <course>3.51</course>
  <speed>1.4657762448614045</speed>
  <fix>3d</fix>
</trkpt>
<trkpt lat="33.810356" lon="-118.3938723">
  <ele>-12.66</ele>
  <time>2026-09-01T01:18:24Z</time>
  <course>186.24</course>
  <speed>1.46</speed>
  <fix>3d</fix>
</trkpt>
<trkpt lat="33.8103529" lon="-118.3938725">
  <ele>-13.419</ele>
  <time>2026-09-01T01:18:24Z</time>
  <course>3.5</course>
  <speed>1.464923206178399</speed>
  <fix>3d</fix>
</trkpt>
<trkpt lat="33.810356" lon="-118.3938723">
  <ele>-12.66</ele>
  <time>2026-09-01T01:18:24Z</time>
  <course>186.24</course>
  <speed>1.46</speed>
  <fix>3d</fix>
</trkpt>
<trkpt lat="33.8103516" lon="-118.3938726">
  <ele>-13.543</ele>
  <time>2026-09-01T01:18:24Z</time>
  <course>3.49</course>
  <speed>1.464923206178399</speed>
  <fix>3d</fix>
</trkpt>
<trkpt lat="33.8103533" lon="-118.3938726">
  <ele>-12.91</ele>
  <time>2026-09-01T01:18:24Z</time>
  <course>186.34</course>
  <speed>1.46</speed>
  <fix>3d</fix>
</trkpt>
<trkpt lat="33.8103503" lon="-118.3938728">
  <ele>-13.667</ele>
  <time>2026-09-01T01:18:24Z</time>
  <course>3.46</course>
  <speed>1.464923206178399</speed>
  <fix>3d</fix>
</trkpt>
<trkpt lat="33.8103533" lon="-118.3938726">
  <ele>-12.91</ele>
  <time>2026-09-01T01:18:24Z</time>
  <course>186.34</course>
  <speed>1.46</speed>
  <fix>3d</fix>
</trkpt>
<trkpt lat="33.8103489" lon="-118.3938729">
  <ele>-13.791</ele>
  <time>2026-09-01T01:18:24Z</time>
  <course>3.46</course>
  <speed>1.464923206178399</speed>
  <fix>3d</fix>
</trkpt>
<trkpt lat="33.8103507" lon="-118.393873">
  <ele>-13.15</ele>
  <time>2026-09-01T01:18:24Z</time>
  <course>186.43</course>
  <speed>1.46</speed>
  <fix>3d</fix>
</trkpt>
<trkpt lat="33.8103476" lon="-118.3938731">
  <ele>-13.915</ele>
  <time>2026-09-01T01:18:24Z</time>
  <course>3.44</course>
  <speed>1.464923206178399</speed>
  <fix>3d</fix>
</trkpt>
<trkpt lat="33.8103507" lon="-118.393873">
  <ele>-13.15</ele>
  <time>2026-09-01T01:18:24Z</time>
  <course>186.43</course>
  <speed>1.46</speed>
  <fix>3d</fix>
</trkpt>
<trkpt lat="33.8103463" lon="-118.3938733">
  <ele>-14.039</ele>
  <time>2026-09-01T01:18:24Z</time>
  <course>3.42</course>
  <speed>1.4748898263938224</speed>
  <fix>3d</fix>
</trkpt>
<trkpt lat="33.8103482" lon="-118.3938733">
  <ele>-13.39</ele>
  <time>2026-09-01T01:18:24Z</time>
  <course>186.5</course>
  <speed>1.46</speed>
  <fix>3d</fix>
</trkpt>
<trkpt lat="33.810345" lon="-118.3938734">
  <ele>-14.163</ele>
  <time>2026-09-01T01:18:24Z</time>
  <course>3.39</course>
  <speed>1.4748898263938224</speed>
  <fix>3d</fix>
</trkpt>
<trkpt lat="33.8103482" lon="-118.3938733">
  <ele>-13.39</ele>
  <time>2026-09-01T01:18:24Z</time>
  <course>186.5</course>
  <speed>1.46</speed>
  <fix>3d</fix>
</trkpt>
<trkpt lat="33.8103437" lon="-118.3938736">
  <ele>-14.287</ele>
  <time>2026-09-01T01:18:24Z</time>
  <course>3.39</course>
  <speed>1.4748898263938224</speed>
  <fix>3d</fix>
</trkpt>
<trkpt lat="33.8103456" lon="-118.3938737">
  <ele>-13.64</ele>
  <time>2026-09-01T01:18:24Z</time>
  <course>186.56</course>
  <speed>1.46</speed>
  <fix>3d</fix>
</trkpt>
<trkpt lat="33.8103424" lon="-118.3938738">
  <ele>-14.411</ele>
  <time>2026-09-01T01:18:24Z</time>
  <course>3.36</course>
  <speed>1.4748898263938224</speed>
  <fix>3d</fix>
</trkpt>
<trkpt lat="33.8103456" lon="-118.3938737">
  <ele>-13.64</ele>
  <time>2026-09-01T01:18:24Z</time>
  <course>186.56</course>
  <speed>1.46</speed>
  <fix>3d</fix>
</trkpt>
<trkpt lat="33.8103411" lon="-118.3938739">
  <ele>-14.534</ele>
  <time>2026-09-01T01:18:24Z</time>
  <course>3.35</course>
  <speed>1.4748898263938224</speed>
  <fix>3d</fix>
</trkpt>
<trkpt lat="33.8103429" lon="-118.3938741">
  <ele>-13.88</ele>
  <time>2026-09-01T01:18:24Z</time>
  <course>186.61</course>
  <speed>1.46</speed>
  <fix>3d</fix>
</trkpt>
<trkpt lat="33.8103398" lon="-118.3938741">
  <ele>-14.657</ele>
  <time>2026-09-01T01:18:24Z</time>
  <course>3.32</course>
  <speed>1.4748898263938224</speed>
  <fix>3d</fix>
</trkpt>
<trkpt lat="33.8103429" lon="-118.3938741">
  <ele>-13.88</ele>
  <time>2026-09-01T01:18:24Z</time>
  <course>186.61</course>
  <speed>1.46</speed>
  <fix>3d</fix>
</trkpt>
<trkpt lat="33.8103385" lon="-118.3938743">
  <ele>-14.781</ele>
  <time>2026-09-01T01:18:24Z</time>
  <course>3.3</course>
  <speed>1.4748898263938224</speed>
  <fix>3d</fix>
</trkpt>
<trkpt lat="33.8103403" lon="-118.3938744">
  <ele>-14.12</ele>
  <time>2026-09-01T01:18:24Z</time>
  <course>186.64</course>
  <speed>1.46</speed>
  <fix>3d</fix>
</trkpt>
<trkpt lat="33.8103371" lon="-118.3938744">
  <ele>-14.905</ele>
  <time>2026-09-01T01:18:24Z</time>
  <course>3.27</course>
  <speed>1.4748898263938224</speed>
  <fix>3d</fix>
</trkpt>
<trkpt lat="33.8103403" lon="-118.3938744">
  <ele>-14.12</ele>
  <time>2026-09-01T01:18:24Z</time>
  <course>186.64</course>
  <speed>1.46</speed>
  <fix>3d</fix>
</trkpt>
<trkpt lat="33.8103358" lon="-118.3938746">
  <ele>-15.029</ele>
  <time>2026-09-01T01:18:24Z</time>
  <course>3.27</course>
  <speed>1.4748898263938224</speed>
  <fix>3d</fix>
</trkpt>
<trkpt lat="33.8103377" lon="-118.3938748">
  <ele>-14.37</ele>
  <time>2026-09-01T01:18:24Z</time>
  <course>186.67</course>
  <speed>1.46</speed>
  <fix>3d</fix>
</trkpt>
<trkpt lat="33.8103345" lon="-118.3938748">
  <ele>-15.154</ele>
  <time>2026-09-01T01:18:24Z</time>
  <course>3.24</course>
  <speed>1.4748898263938224</speed>
  <fix>3d</fix>
</trkpt>
<trkpt lat="33.8103377" lon="-118.3938748">
  <ele>-14.37</ele>
  <time>2026-09-01T01:18:24Z</time>
  <course>186.67</course>
  <speed>1.46</speed>
  <fix>3d</fix>
</trkpt>
<trkpt lat="33.8103332" lon="-118.393875">
  <ele>-15.279</ele>
  <time>2026-09-01T01:18:24Z</time>
  <course>3.23</course>
  <speed>1.4848568954616468</speed>
  <fix>3d</fix>
</trkpt>
<trkpt lat="33.810335" lon="-118.3938752">
  <ele>-14.61</ele>
  <time>2026-09-01T01:18:24Z</time>
  <course>186.69</course>
  <speed>1.46</speed>
  <fix>3d</fix>
</trkpt>
<trkpt lat="33.8103319" lon="-118.3938752">
  <ele>-15.403</ele>
  <time>2026-09-01T01:18:24Z</time>
  <course>3.2</course>
  <speed>1.4848568954616468</speed>
  <fix>3d</fix>
</trkpt>
<trkpt lat="33.810335" lon="-118.3938752">
  <ele>-14.61</ele>
  <time>2026-09-01T01:18:24Z</time>
  <course>186.69</course>
  <speed>1.46</speed>
  <fix>3d</fix>
</trkpt>
<trkpt lat="33.8103306" lon="-118.3938753">
  <ele>-15.525</ele>
  <time>2026-09-01T01:18:24Z</time>
  <course>3.19</course>
  <speed>1.4848568954616468</speed>
  <fix>3d</fix>
</trkpt>
<trkpt lat="33.8103325" lon="-118.3938755">
  <ele>-14.85</ele>
  <time>2026-09-01T01:18:24Z</time>
  <course>186.7</course>
  <speed>1.46</speed>
  <fix>3d</fix>
</trkpt>
<trkpt lat="33.8103292" lon="-118.3938755">
  <ele>-15.647</ele>
  <time>2026-09-01T01:18:24Z</time>
  <course>3.16</course>
  <speed>1.4848568954616468</speed>
  <fix>3d</fix>
</trkpt>
<trkpt lat="33.8103325" lon="-118.3938755">
  <ele>-14.85</ele>
  <time>2026-09-01T01:18:24Z</time>
  <course>186.7</course>
  <speed>1.46</speed>
  <fix>3d</fix>
</trkpt>
<trkpt lat="33.8103279" lon="-118.3938757">
  <ele>-15.763</ele>
  <time>2026-09-01T01:18:24Z</time>
  <course>3.08</course>
  <speed>1.4956603892595404</speed>
  <fix>3d</fix>
</trkpt>
<trkpt lat="33.8103299" lon="-118.3938759">
  <ele>-15.1</ele>
  <time>2026-09-01T01:18:24Z</time>
  <course>186.72</course>
  <speed>1.46</speed>
  <fix>3d</fix>
</trkpt>
<trkpt lat="33.8103266" lon="-118.3938759">
  <ele>-15.871</ele>
  <time>2026-09-01T01:18:24Z</time>
  <course>2.7</course>
  <speed>1.4975313018431367</speed>
  <fix>3d</fix>
</trkpt>
<trkpt lat="33.8103299" lon="-118.3938759">
  <ele>-15.1</ele>
  <time>2026-09-01T01:18:24Z</time>
  <course>186.72</course>
  <speed>1.46</speed>
  <fix>3d</fix>
</trkpt>
<trkpt lat="33.8103253" lon="-118.3938761">
  <ele>-15.971</ele>
  <time>2026-09-01T01:18:24Z</time>
  <course>2.29</course>
  <speed>1.508509197850646</speed>
  <fix>3d</fix>
</trkpt>
<trkpt lat="33.8103273" lon="-118.3938762">
  <ele>-15.33</ele>
  <time>2026-09-01T01:18:24Z</time>
  <course>187.2</course>
  <speed>1.47</speed>
  <fix>3d</fix>
</trkpt>
<trkpt lat="33.8103239" lon="-118.3938763">
  <ele>-16.063</ele>
  <time>2026-09-01T01:18:24Z</time>
  <course>1.93</course>
  <speed>1.540551849176132</speed>
  <fix>3d</fix>
</trkpt>
<trkpt lat="33.8103273" lon="-118.3938762">
  <ele>-15.33</ele>
  <time>2026-09-01T01:18:24Z</time>
  <course>187.2</course>
  <speed>1.47</speed>
  <fix>3d</fix>
</trkpt>
<trkpt lat="33.8103226" lon="-118.3938766">
  <ele>-16.147</ele>
  <time>2026-09-01T01:18:24Z</time>
  <course>1.64</course>
  <speed>1.572768260107</speed>
  <fix>3d</fix>
</trkpt>
<trkpt lat="33.8103246" lon="-118.3938767">
  <ele>-15.54</ele>
  <time>2026-09-01T01:18:24Z</time>
  <course>188.2</course>
  <speed>1.5</speed>
  <fix>3d</fix>
</trkpt>
<trkpt lat="33.8103212" lon="-118.3938769">
  <ele>-16.221</ele>
  <time>2026-09-01T01:18:24Z</time>
  <course>1.43</course>
  <speed>1.6236378906640483</speed>
  <fix>3d</fix>
</trkpt>
<trkpt lat="33.8103246" lon="-118.3938767">
  <ele>-15.54</ele>
  <time>2026-09-01T01:18:24Z</time>
  <course>188.2</course>
  <speed>1.5</speed>
  <fix>3d</fix>
</trkpt>
<trkpt lat="33.8103197" lon="-118.3938771">
  <ele>-16.287</ele>
  <time>2026-09-01T01:18:24Z</time>
  <course>1.26</course>
  <speed>1.6745148551147582</speed>
  <fix>3d</fix>
</trkpt>
<trkpt lat="33.8103219" lon="-118.3938772">
  <ele>-15.71</ele>
  <time>2026-09-01T01:18:24Z</time>
  <course>188.93</course>
  <speed>1.56</speed>
  <fix>3d</fix>
</trkpt>
<trkpt lat="33.8103182" lon="-118.3938774">
  <ele>-16.343</ele>
  <time>2026-09-01T01:18:24Z</time>
  <course>1.12</course>
  <speed>1.755135322418189</speed>
  <fix>3d</fix>
</trkpt>
<trkpt lat="33.8103219" lon="-118.3938772">
  <ele>-15.71</ele>
  <time>2026-09-01T01:18:24Z</time>
  <course>188.93</course>
  <speed>1.56</speed>
  <fix>3d</fix>
</trkpt>
<trkpt lat="33.8103166" lon="-118.3938777">
  <ele>-16.389</ele>
  <time>2026-09-01T01:18:24Z</time>
  <course>0.99</course>
  <speed>1.8569060288555261</speed>
  <fix>3d</fix>
</trkpt>
<trkpt lat="33.810319" lon="-118.3938777">
  <ele>-15.85</ele>
  <time>2026-09-01T01:18:24Z</time>
  <course>189.06</course>
  <speed>1.68</speed>
  <fix>3d</fix>
</trkpt>
<trkpt lat="33.810315" lon="-118.393878">
  <ele>-16.426</ele>
  <time>2026-09-01T01:18:24Z</time>
  <course>0.86</course>
  <speed>1.9870832896484234</speed>
  <fix>3d</fix>
</trkpt>
<trkpt lat="33.810319" lon="-118.3938777">
  <ele>-15.85</ele>
  <time>2026-09-01T01:18:24Z</time>
  <course>189.06</course>
  <speed>1.68</speed>
  <fix>3d</fix>
</trkpt>
<trkpt lat="33.8103132" lon="-118.3938784">
  <ele>-16.454</ele>
  <time>2026-09-01T01:18:24Z</time>
  <course>0.78</course>
  <speed>1.9785095400325974</speed>
  <fix>3d</fix>
</trkpt>
<trkpt lat="33.8103159" lon="-118.3938784">
  <ele>-15.95</ele>
  <time>2026-09-01T01:18:24Z</time>
  <course>188.73</course>
  <speed>1.87</speed>
  <fix>3d</fix>
</trkpt>
<trkpt lat="33.8103115" lon="-118.3938787">
  <ele>-16.473</ele>
  <time>2026-09-01T01:18:24Z</time>
  <course>0.89</course>
  <speed>1.8569060288555261</speed>
  <fix>3d</fix>
</trkpt>
<trkpt lat="33.8103159" lon="-118.3938784">
  <ele>-15.95</ele>
  <time>2026-09-01T01:18:24Z</time>
  <course>188.73</course>
  <speed>1.87</speed>
  <fix>3d</fix>
</trkpt>
<trkpt lat="33.8103099" lon="-118.393879">
  <ele>-16.481</ele>
  <time>2026-09-01T01:18:24Z</time>
  <course>0.93</course>
  <speed>1.8569060288555261</speed>
  <fix>3d</fix>
</trkpt>
<trkpt lat="33.8103126" lon="-118.393879">
  <ele>-16.01</ele>
  <time>2026-09-01T01:18:24Z</time>
  <course>188.78</course>
  <speed>1.9</speed>
  <fix>3d</fix>
</trkpt>
<trkpt lat="33.8103083" lon="-118.3938793">
  <ele>-16.483</ele>
  <time>2026-09-01T01:18:24Z</time>
  <course>0.92</course>
  <speed>1.896549498431296</speed>
  <fix>3d</fix>
</trkpt>
<trkpt lat="33.8103126" lon="-118.393879">
  <ele>-16.01</ele>
  <time>2026-09-01T01:18:24Z</time>
  <course>188.78</course>
  <speed>1.9</speed>
  <fix>3d</fix>
</trkpt>
<trkpt lat="33.8103067" lon="-118.3938796">
  <ele>-16.48</ele>
  <time>2026-09-01T01:18:24Z</time>
  <course>0.85</course>
  <speed>1.5430165261590687</speed>
  <fix>3d</fix>
</trkpt>
<trkpt lat="33.8103092" lon="-118.3938796">
  <ele>-16.04</ele>
  <time>2026-09-01T01:18:24Z</time>
  <course>188.92</course>
  <speed>1.85</speed>
  <fix>3d</fix>
</trkpt>
<trkpt lat="33.8103055" lon="-118.3938798">
  <ele>-16.475</ele>
  <time>2026-09-01T01:18:24Z</time>
  <course>359.63</course>
  <speed>1.226906679417795</speed>
  <fix>3d</fix>
</trkpt>
<trkpt lat="33.8103092" lon="-118.3938796">
  <ele>-16.04</ele>
  <time>2026-09-01T01:18:24Z</time>
  <course>188.92</course>
  <speed>1.85</speed>
  <fix>3d</fix>
</trkpt>
<trkpt lat="33.8103045" lon="-118.39388">
  <ele>-16.467</ele>
  <time>2026-09-01T01:18:24Z</time>
  <course>356.47</course>
  <speed>0.9841239759298622</speed>
  <fix>3d</fix>
</trkpt>
<trkpt lat="33.8103062" lon="-118.3938802">
  <ele>-16.04</ele>
  <time>2026-09-01T01:18:24Z</time>
  <course>188.95</course>
  <speed>1.5</speed>
  <fix>3d</fix>
</trkpt>
<trkpt lat="33.8103037" lon="-118.3938802">
  <ele>-16.459</ele>
  <time>2026-09-01T01:18:24Z</time>
  <course>352.77</course>
  <speed>0.812219182240853</speed>
  <fix>3d</fix>
</trkpt>
<trkpt lat="33.8103062" lon="-118.3938802">
  <ele>-16.04</ele>
  <time>2026-09-01T01:18:24Z</time>
  <course>188.95</course>
  <speed>1.5</speed>
  <fix>3d</fix>
</trkpt>
<trkpt lat="33.810303" lon="-118.3938803">
  <ele>-16.451</ele>
  <time>2026-09-01T01:18:24Z</time>
  <course>350.1</course>
  <speed>0.6711929677819934</speed>
  <fix>3d</fix>
</trkpt>
<trkpt lat="33.810304" lon="-118.3938806">
  <ele>-16.04</ele>
  <time>2026-09-01T01:18:24Z</time>
  <course>189.48</course>
  <speed>0.93</speed>
  <fix>3d</fix>
</trkpt>
<trkpt lat="33.8103025" lon="-118.3938804">
  <ele>-16.446</ele>
  <time>2026-09-01T01:18:24Z</time>
  <course>349.72</course>
  <speed>0.5803447251418763</speed>
  <fix>3d</fix>
</trkpt>
<trkpt lat="33.810304" lon="-118.3938806">
  <ele>-16.04</ele>
  <time>2026-09-01T01:18:24Z</time>
  <course>189.48</course>
  <speed>0.93</speed>
  <fix>3d</fix>
</trkpt>
<trkpt lat="33.810302" lon="-118.3938804">
  <ele>-16.445</ele>
  <time>2026-09-01T01:18:24Z</time>
  <course>351.45</course>
  <speed>0.5</speed>
  <fix>3d</fix>
</trkpt>
<trkpt lat="33.8103027" lon="-118.3938809">
  <ele>-16.04</ele>
  <time>2026-09-01T01:18:24Z</time>
  <course>189.7</course>
  <speed>0.62</speed>
  <fix>3d</fix>
</trkpt>
<trkpt lat="33.8103016" lon="-118.3938805">
  <ele>-16.448</ele>
  <time>2026-09-01T01:18:24Z</time>
  <course>354.23</course>
  <speed>0.4201190307520001</speed>
  <fix>3d</fix>
</trkpt>
<trkpt lat="33.8103027" lon="-118.3938809">
  <ele>-16.04</ele>
  <time>2026-09-01T01:18:24Z</time>
  <course>189.7</course>
  <speed>0.62</speed>
  <fix>3d</fix>
</trkpt>
<trkpt lat="33.8103012" lon="-118.3938805">
  <ele>-16.451</ele>
  <time>2026-09-01T01:18:24Z</time>
  <course>357.01</course>
  <speed>0.35128336140500593</speed>
  <fix>3d</fix>
</trkpt>
<trkpt lat="33.8103018" lon="-118.393881">
  <ele>-16.04</ele>
  <time>2026-09-01T01:18:24Z</time>
  <course>188.88</course>
  <speed>0.43</speed>
  <fix>3d</fix>
</trkpt>
<trkpt lat="33.8103009" lon="-118.3938805">
  <ele>-16.455</ele>
  <time>2026-09-01T01:18:24Z</time>
  <course>359.31</course>
  <speed>0.29274562336608895</speed>
  <fix>3d</fix>
</trkpt>
<trkpt lat="33.8103018" lon="-118.393881">
  <ele>-16.04</ele>
  <time>2026-09-01T01:18:24Z</time>
  <course>188.88</course>
  <speed>0.43</speed>
  <fix>3d</fix>
</trkpt>
<trkpt lat="33.8103007" lon="-118.3938806">
  <ele>-16.459</ele>
  <time>2026-09-01T01:18:24Z</time>
  <course>1.27</course>
  <speed>0.24331050121192876</speed>
  <fix>3d</fix>
</trkpt>
<trkpt lat="33.8103011" lon="-118.3938812">
  <ele>-16.05</ele>
  <time>2026-09-01T01:18:24Z</time>
  <course>187.43</course>
  <speed>0.28</speed>
  <fix>3d</fix>
</trkpt>
<trkpt lat="33.8103005" lon="-118.3938806">
  <ele>-16.463</ele>
  <time>2026-09-01T01:18:24Z</time>
  <course>3.09</course>
  <speed>0.215870331449229</speed>
  <fix>3d</fix>
</trkpt>
<trkpt lat="33.8103011" lon="-118.3938812">
  <ele>-16.05</ele>
  <time>2026-09-01T01:18:24Z</time>
  <course>187.43</course>
  <speed>0.28</speed>
  <fix>3d</fix>
</trkpt>
<trkpt lat="33.8103005" lon="-118.3938807">
  <ele>-16.467</ele>
  <time>2026-09-01T01:18:24Z</time>
  <course>5.08</course>
  <speed>0.4308131845707603</speed>
  <fix>3d</fix>
</trkpt>
<trkpt lat="33.8103007" lon="-118.3938812">
  <ele>-16.07</ele>
  <time>2026-09-01T01:18:24Z</time>
  <course>185.95</course>
  <speed>0.17</speed>
  <fix>3d</fix>
</trkpt>
<trkpt lat="33.8103012" lon="-118.3938811">
  <ele>-16.474</ele>
  <time>2026-09-01T01:18:24Z</time>
  <course>6.54</course>
  <speed>1.3014607178090316</speed>
  <fix>3d</fix>
</trkpt>
<trkpt lat="33.8103007" lon="-118.3938812">
  <ele>-16.07</ele>
  <time>2026-09-01T01:18:24Z</time>
  <course>185.95</course>
  <speed>0.17</speed>
  <fix>3d</fix>
</trkpt>
<trkpt lat="33.8103024" lon="-118.393882">
  <ele>-16.493</ele>
  <time>2026-09-01T01:18:24Z</time>
  <course>8.48</course>
  <speed>1.708156901458411</speed>
  <fix>3d</fix>
</trkpt>
<trkpt lat="33.810301" lon="-118.3938816">
  <ele>-16.08</ele>
  <time>2026-09-01T01:18:24Z</time>
  <course>327.35</course>
  <speed>0.71</speed>
  <fix>3d</fix>
</trkpt>
<trkpt lat="33.8103037" lon="-118.3938831">
  <ele>-16.523</ele>
  <time>2026-09-01T01:18:24Z</time>
  <course>9.47</course>
  <speed>1.8</speed>
  <fix>3d</fix>
</trkpt>
<trkpt lat="33.810301" lon="-118.3938816">
  <ele>-16.08</ele>
  <time>2026-09-01T01:18:24Z</time>
  <course>327.35</course>
  <speed>0.71</speed>
  <fix>3d</fix>
</trkpt>
<trkpt lat="33.8103047" lon="-118.3938845">
  <ele>-16.563</ele>
  <time>2026-09-01T01:18:24Z</time>
  <course>8.94</course>
  <speed>1.6635504200354134</speed>
  <fix>3d</fix>
</trkpt>
<trkpt lat="33.8103029" lon="-118.393883">
  <ele>-16.11</ele>
  <time>2026-09-01T01:18:24Z</time>
  <course>323.22</course>
  <speed>1.71</speed>
  <fix>3d</fix>
</trkpt>
<trkpt lat="33.8103052" lon="-118.3938862">
  <ele>-16.612</ele>
  <time>2026-09-01T01:18:24Z</time>
  <course>8.45</course>
  <speed>1.4911069713471263</speed>
  <fix>3d</fix>
</trkpt>
<trkpt lat="33.8103029" lon="-118.393883">
  <ele>-16.11</ele>
  <time>2026-09-01T01:18:24Z</time>
  <course>323.22</course>
  <speed>1.71</speed>
  <fix>3d</fix>
</trkpt>
<trkpt lat="33.8103051" lon="-118.3938878">
  <ele>-16.672</ele>
  <time>2026-09-01T01:18:24Z</time>
  <course>8.22</course>
  <speed>1.5401947928752389</speed>
  <fix>3d</fix>
</trkpt>
<trkpt lat="33.810305" lon="-118.3938858">
  <ele>-16.19</ele>
  <time>2026-09-01T01:18:24Z</time>
  <course>298.87</course>
  <speed>1.6</speed>
  <fix>3d</fix>
</trkpt>
<trkpt lat="33.8103045" lon="-118.3938895">
  <ele>-16.741</ele>
  <time>2026-09-01T01:18:24Z</time>
  <course>8.19</course>
  <speed>1.7311845655504212</speed>
  <fix>3d</fix>
</trkpt>
<trkpt lat="33.810305" lon="-118.3938858">
  <ele>-16.19</ele>
  <time>2026-09-01T01:18:24Z</time>
  <course>298.87</course>
  <speed>1.6</speed>
  <fix>3d</fix>
</trkpt>
<trkpt lat="33.8103039" lon="-118.3938911">
  <ele>-16.821</ele>
  <time>2026-09-01T01:18:24Z</time>
  <course>8.2</course>
  <speed>1.8445866745696717</speed>
  <fix>3d</fix>
</trkpt>
<trkpt lat="33.8103053" lon="-118.3938891">
  <ele>-16.3</ele>
  <time>2026-09-01T01:18:24Z</time>
  <course>257.31</course>
  <speed>1.58</speed>
  <fix>3d</fix>
</trkpt>
<trkpt lat="33.810303" lon="-118.3938928">
  <ele>-16.912</ele>
  <time>2026-09-01T01:18:24Z</time>
  <course>8.13</course>
  <speed>1.8777113729218342</speed>
  <fix>3d</fix>
</trkpt>
<trkpt lat="33.8103053" lon="-118.3938891">
  <ele>-16.3</ele>
  <time>2026-09-01T01:18:24Z</time>
  <course>257.31</course>
  <speed>1.58</speed>
  <fix>3d</fix>
</trkpt>
<trkpt lat="33.8103022" lon="-118.3938946">
  <ele>-17.013</ele>
  <time>2026-09-01T01:18:24Z</time>
  <course>7.95</course>
  <speed>1.8645374761586317</speed>
  <fix>3d</fix>
</trkpt>
<trkpt lat="33.8103041" lon="-118.3938925">
  <ele>-16.45</ele>
  <time>2026-09-01T01:18:24Z</time>
  <course>239.88</course>
  <speed>1.83</speed>
  <fix>3d</fix>
</trkpt>
<trkpt lat="33.8103014" lon="-118.3938963">
  <ele>-17.123</ele>
  <time>2026-09-01T01:18:24Z</time>
  <course>8.1</course>
  <speed>1.818350901228913</speed>
  <fix>3d</fix>
</trkpt>
<trkpt lat="33.8103041" lon="-118.3938925">
  <ele>-16.45</ele>
  <time>2026-09-01T01:18:24Z</time>
  <course>239.88</course>
  <speed>1.83</speed>
  <fix>3d</fix>
</trkpt>
<trkpt lat="33.8103008" lon="-118.3938981">
  <ele>-17.243</ele>
  <time>2026-09-01T01:18:24Z</time>
  <course>8.3</course>
  <speed>1.7530829986055994</speed>
  <fix>3d</fix>
</trkpt>
<trkpt lat="33.8103024" lon="-118.3938959">
  <ele>-16.63</ele>
  <time>2026-09-01T01:18:24Z</time>
  <course>239.98</course>
  <speed>1.85</speed>
  <fix>3d</fix>
</trkpt>
<trkpt lat="33.8103002" lon="-118.3938998">
  <ele>-17.371</ele>
  <time>2026-09-01T01:18:24Z</time>
  <course>8.4</course>
  <speed>1.7189822570346676</speed>
  <fix>3d</fix>
</trkpt>
<trkpt lat="33.8103024" lon="-118.3938959">
  <ele>-16.63</ele>
  <time>2026-09-01T01:18:24Z</time>
  <course>239.98</course>
  <speed>1.85</speed>
  <fix>3d</fix>
</trkpt>
<trkpt lat="33.8102996" lon="-118.3939015">
  <ele>-17.501</ele>
  <time>2026-09-01T01:18:24Z</time>
  <course>8.42</course>
  <speed>1.7084788555905512</speed>
  <fix>3d</fix>
</trkpt>
<trkpt lat="33.8103009" lon="-118.3938994">
  <ele>-16.85</ele>
  <time>2026-09-01T01:18:24Z</time>
  <course>244.66</course>
  <speed>1.78</speed>
  <fix>3d</fix>
</trkpt>
<trkpt lat="33.8102991" lon="-118.3939033">
  <ele>-17.633</ele>
  <time>2026-09-01T01:18:24Z</time>
  <course>8.42</course>
  <speed>1.7009703113223347</speed>
  <fix>3d</fix>
</trkpt>
<trkpt lat="33.8103009" lon="-118.3938994">
  <ele>-16.85</ele>
  <time>2026-09-01T01:18:24Z</time>
  <course>244.66</course>
  <speed>1.78</speed>
  <fix>3d</fix>
</trkpt>
<trkpt lat="33.8102986" lon="-118.393905">
  <ele>-17.765</ele>
  <time>2026-09-01T01:18:24Z</time>
  <course>8.42</course>
  <speed>1.706604816587601</speed>
  <fix>3d</fix>
</trkpt>
<trkpt lat="33.8102997" lon="-118.3939029">
  <ele>-17.09</ele>
  <time>2026-09-01T01:18:24Z</time>
  <course>248.35</course>
  <speed>1.73</speed>
  <fix>3d</fix>
</trkpt>
<trkpt lat="33.810298" lon="-118.3939068">
  <ele>-17.897</ele>
  <time>2026-09-01T01:18:24Z</time>
  <course>8.41</course>
  <speed>1.7029973576021777</speed>
  <fix>3d</fix>
</trkpt>
<trkpt lat="33.8102997" lon="-118.3939029">
  <ele>-17.09</ele>
  <time>2026-09-01T01:18:24Z</time>
  <course>248.35</course>
  <speed>1.73</speed>
  <fix>3d</fix>
</trkpt>
<trkpt lat="33.8102975" lon="-118.3939086">
  <ele>-18.028</ele>
  <time>2026-09-01T01:18:24Z</time>
  <course>8.42</course>
  <speed>1.6994410845922254</speed>
  <fix>3d</fix>
</trkpt>
<trkpt lat="33.8102985" lon="-118.3939064">
  <ele>-17.33</ele>
  <time>2026-09-01T01:18:24Z</time>
  <course>249.68</course>
  <speed>1.72</speed>
  <fix>3d</fix>
</trkpt>
<trkpt lat="33.810297" lon="-118.3939103">
  <ele>-18.159</ele>
  <time>2026-09-01T01:18:24Z</time>
  <course>8.41</course>
  <speed>1.6994410845922254</speed>
  <fix>3d</fix>
</trkpt>
<trkpt lat="33.8102985" lon="-118.3939064">
  <ele>-17.33</ele>
  <time>2026-09-01T01:18:24Z</time>
  <course>249.68</course>
  <speed>1.72</speed>
  <fix>3d</fix>
</trkpt>
<trkpt lat="33.8102965" lon="-118.3939121">
  <ele>-18.289</ele>
  <time>2026-09-01T01:18:24Z</time>
  <course>8.41</course>
  <speed>1.7053152201279387</speed>
  <fix>3d</fix>
</trkpt>
<trkpt lat="33.8102975" lon="-118.3939099">
  <ele>-17.58</ele>
  <time>2026-09-01T01:18:24Z</time>
  <course>250.25</course>
  <speed>1.72</speed>
  <fix>3d</fix>
</trkpt>
<trkpt lat="33.810296" lon="-118.3939138">
  <ele>-18.418</ele>
  <time>2026-09-01T01:18:24Z</time>
  <course>8.42</course>
  <speed>1.7053152201279387</speed>
  <fix>3d</fix>
</trkpt>
<trkpt lat="33.8102975" lon="-118.3939099">
  <ele>-17.58</ele>
  <time>2026-09-01T01:18:24Z</time>
  <course>250.25</course>
  <speed>1.72</speed>
  <fix>3d</fix>
</trkpt>
<trkpt lat="33.8102955" lon="-118.3939156">
  <ele>-18.546</ele>
  <time>2026-09-01T01:18:24Z</time>
  <course>8.43</course>
  <speed>1.7053152201279387</speed>
  <fix>3d</fix>
</trkpt>
<trkpt lat="33.8102965" lon="-118.3939134">
  <ele>-17.82</ele>
  <time>2026-09-01T01:18:24Z</time>
  <course>250.53</course>
  <speed>1.72</speed>
  <fix>3d</fix>
</trkpt>
<trkpt lat="33.810295" lon="-118.3939174">
  <ele>-18.673</ele>
  <time>2026-09-01T01:18:24Z</time>
  <course>8.44</course>
  <speed>1.7053152201279387</speed>
  <fix>3d</fix>
</trkpt>
<trkpt lat="33.8102965" lon="-118.3939134">
  <ele>-17.82</ele>
  <time>2026-09-01T01:18:24Z</time>
  <course>250.53</course>
  <speed>1.72</speed>
  <fix>3d</fix>
</trkpt>
<trkpt lat="33.8102945" lon="-118.3939191">
  <ele>-18.801</ele>
  <time>2026-09-01T01:18:24Z</time>
  <course>8.43</course>
  <speed>1.7053152201279387</speed>
  <fix>3d</fix>
</trkpt>
<trkpt lat="33.8102954" lon="-118.3939169">
  <ele>-18.07</ele>
  <time>2026-09-01T01:18:24Z</time>
  <course>250.66</course>
  <speed>1.72</speed>
  <fix>3d</fix>
</trkpt>
<trkpt lat="33.810294" lon="-118.3939209">
  <ele>-18.928</ele>
  <time>2026-09-01T01:18:24Z</time>
  <course>8.42</course>
  <speed>1.7053152201279387</speed>
  <fix>3d</fix>
</trkpt>
<trkpt lat="33.8102954" lon="-118.3939169">
  <ele>-18.07</ele>
  <time>2026-09-01T01:18:24Z</time>
  <course>250.66</course>
  <speed>1.72</speed>
  <fix>3d</fix>
</trkpt>
<trkpt lat="33.8102935" lon="-118.3939226">
  <ele>-19.055</ele>
  <time>2026-09-01T01:18:24Z</time>
  <course>8.42</course>
  <speed>1.7053152201279387</speed>
  <fix>3d</fix>
</trkpt>
<trkpt lat="33.8102943" lon="-118.3939205">
  <ele>-18.31</ele>
  <time>2026-09-01T01:18:24Z</time>
  <course>250.72</course>
  <speed>1.72</speed>
  <fix>3d</fix>
</trkpt>
<trkpt lat="33.8102929" lon="-118.3939244">
  <ele>-19.182</ele>
  <time>2026-09-01T01:18:24Z</time>
  <course>8.42</course>
  <speed>1.7053152201279387</speed>
  <fix>3d</fix>
</trkpt>
<trkpt lat="33.8102943" lon="-118.3939205">
  <ele>-18.31</ele>
  <time>2026-09-01T01:18:24Z</time>
  <course>250.72</course>
  <speed>1.72</speed>
  <fix>3d</fix>
</trkpt>
<trkpt lat="33.8102924" lon="-118.3939262">
  <ele>-19.309</ele>
  <time>2026-09-01T01:18:24Z</time>
  <course>8.41</course>
  <speed>1.7053152201279387</speed>
  <fix>3d</fix>
</trkpt>
<trkpt lat="33.8102934" lon="-118.393924">
  <ele>-18.55</ele>
  <time>2026-09-01T01:18:24Z</time>
  <course>250.74</course>
  <speed>1.72</speed>
  <fix>3d</fix>
</trkpt>
<trkpt lat="33.8102919" lon="-118.3939279">
  <ele>-19.434</ele>
  <time>2026-09-01T01:18:24Z</time>
  <course>8.42</course>
  <speed>1.7053152201279387</speed>
  <fix>3d</fix>
</trkpt>
<trkpt lat="33.8102934" lon="-118.393924">
  <ele>-18.55</ele>
  <time>2026-09-01T01:18:24Z</time>
  <course>250.74</course>
  <speed>1.72</speed>
  <fix>3d</fix>
</trkpt>
<trkpt lat="33.8102914" lon="-118.3939297">
  <ele>-19.559</ele>
  <time>2026-09-01T01:18:24Z</time>
  <course>8.41</course>
  <speed>1.7053152201279387</speed>
  <fix>3d</fix>
</trkpt>
<trkpt lat="33.8102923" lon="-118.3939275">
  <ele>-18.8</ele>
  <time>2026-09-01T01:18:24Z</time>
  <course>250.71</course>
  <speed>1.72</speed>
  <fix>3d</fix>
</trkpt>
<trkpt lat="33.8102909" lon="-118.3939315">
  <ele>-19.684</ele>
  <time>2026-09-01T01:18:24Z</time>
  <course>8.41</course>
  <speed>1.7088007490635062</speed>
  <fix>3d</fix>
</trkpt>
<trkpt lat="33.8102923" lon="-118.3939275">
  <ele>-18.8</ele>
  <time>2026-09-01T01:18:24Z</time>
  <course>250.71</course>
  <speed>1.72</speed>
  <fix>3d</fix>
</trkpt>
<trkpt lat="33.8102904" lon="-118.3939332">
  <ele>-19.809</ele>
  <time>2026-09-01T01:18:24Z</time>
  <course>8.41</course>
  <speed>1.7088007490635062</speed>
  <fix>3d</fix>
</trkpt>
<trkpt lat="33.8102913" lon="-118.393931">
  <ele>-19.04</ele>
  <time>2026-09-01T01:18:24Z</time>
  <course>250.68</course>
  <speed>1.72</speed>
  <fix>3d</fix>
</trkpt>
<trkpt lat="33.8102899" lon="-118.393935">
  <ele>-19.935</ele>
  <time>2026-09-01T01:18:24Z</time>
  <course>8.41</course>
  <speed>1.7088007490635062</speed>
  <fix>3d</fix>
</trkpt>
<trkpt lat="33.8102913" lon="-118.393931">
  <ele>-19.04</ele>
  <time>2026-09-01T01:18:24Z</time>
  <course>250.68</course>
  <speed>1.72</speed>
  <fix>3d</fix>
</trkpt>
<trkpt lat="33.8102893" lon="-118.3939368">
  <ele>-20.061</ele>
  <time>2026-09-01T01:18:24Z</time>
  <course>8.41</course>
  <speed>1.7088007490635062</speed>
  <fix>3d</fix>
</trkpt>
<trkpt lat="33.8102903" lon="-118.3939346">
  <ele>-19.29</ele>
  <time>2026-09-01T01:18:24Z</time>
  <course>250.67</course>
  <speed>1.72</speed>
  <fix>3d</fix>
</trkpt>
<trkpt lat="33.8102888" lon="-118.3939385">
  <ele>-20.185</ele>
  <time>2026-09-01T01:18:24Z</time>
  <course>8.42</course>
  <speed>1.7088007490635062</speed>
  <fix>3d</fix>
</trkpt>
<trkpt lat="33.8102903" lon="-118.3939346">
  <ele>-19.29</ele>
  <time>2026-09-01T01:18:24Z</time>
  <course>250.67</course>
  <speed>1.72</speed>
  <fix>3d</fix>
</trkpt>
<trkpt lat="33.8102883" lon="-118.3939403">
  <ele>-20.309</ele>
  <time>2026-09-01T01:18:24Z</time>
  <course>8.41</course>
  <speed>1.7088007490635062</speed>
  <fix>3d</fix>
</trkpt>
<trkpt lat="33.8102892" lon="-118.3939381">
  <ele>-19.52</ele>
  <time>2026-09-01T01:18:24Z</time>
  <course>250.68</course>
  <speed>1.72</speed>
  <fix>3d</fix>
</trkpt>
<trkpt lat="33.8102878" lon="-118.3939421">
  <ele>-20.433</ele>
  <time>2026-09-01T01:18:24Z</time>
  <course>8.4</course>
  <speed>1.7088007490635062</speed>
  <fix>3d</fix>
</trkpt>
<trkpt lat="33.8102892" lon="-118.3939381">
  <ele>-19.52</ele>
  <time>2026-09-01T01:18:24Z</time>
  <course>250.68</course>
  <speed>1.72</speed>
  <fix>3d</fix>
</trkpt>
<trkpt lat="33.8102873" lon="-118.3939438">
  <ele>-20.557</ele>
  <time>2026-09-01T01:18:24Z</time>
  <course>8.4</course>
  <speed>1.7088007490635062</speed>
  <fix>3d</fix>
</trkpt>
<trkpt lat="33.8102882" lon="-118.3939416">
  <ele>-19.77</ele>
  <time>2026-09-01T01:18:24Z</time>
  <course>250.68</course>
  <speed>1.72</speed>
  <fix>3d</fix>
</trkpt>
<trkpt lat="33.8102868" lon="-118.3939456">
  <ele>-20.682</ele>
  <time>2026-09-01T01:18:24Z</time>
  <course>8.39</course>
  <speed>1.7088007490635062</speed>
  <fix>3d</fix>
</trkpt>
<trkpt lat="33.8102882" lon="-118.3939416">
  <ele>-19.77</ele>
  <time>2026-09-01T01:18:24Z</time>
  <course>250.68</course>
  <speed>1.72</speed>
  <fix>3d</fix>
</trkpt>
<trkpt lat="33.8102862" lon="-118.3939474">
  <ele>-20.807</ele>
  <time>2026-09-01T01:18:24Z</time>
  <course>8.38</course>
  <speed>1.7088007490635062</speed>
  <fix>3d</fix>
</trkpt>
<trkpt lat="33.8102872" lon="-118.3939451">
  <ele>-20.02</ele>
  <time>2026-09-01T01:18:24Z</time>
  <course>250.66</course>
  <speed>1.72</speed>
  <fix>3d</fix>
</trkpt>
<trkpt lat="33.8102857" lon="-118.3939491">
  <ele>-20.93</ele>
  <time>2026-09-01T01:18:24Z</time>
  <course>8.38</course>
  <speed>1.7088007490635062</speed>
  <fix>3d</fix>
</trkpt>
<trkpt lat="33.8102872" lon="-118.3939451">
  <ele>-20.02</ele>
  <time>2026-09-01T01:18:24Z</time>
  <course>250.66</course>
  <speed>1.72</speed>
  <fix>3d</fix>
</trkpt>
<trkpt lat="33.8102852" lon="-118.3939509">
  <ele>-21.054</ele>
  <time>2026-09-01T01:18:24Z</time>
  <course>8.37</course>
  <speed>1.7088007490635062</speed>
  <fix>3d</fix>
</trkpt>
<trkpt lat="33.8102862" lon="-118.3939486">
  <ele>-20.25</ele>
  <time>2026-09-01T01:18:24Z</time>
  <course>250.64</course>
  <speed>1.72</speed>
  <fix>3d</fix>
</trkpt>
<trkpt lat="33.8102847" lon="-118.3939526">
  <ele>-21.178</ele>
  <time>2026-09-01T01:18:24Z</time>
  <course>8.35</course>
  <speed>1.7088007490635062</speed>
  <fix>3d</fix>
</trkpt>
<trkpt lat="33.8102862" lon="-118.3939486">
  <ele>-20.25</ele>
  <time>2026-09-01T01:18:24Z</time>
  <course>250.64</course>
  <speed>1.72</speed>
  <fix>3d</fix>
</trkpt>
<trkpt lat="33.8102842" lon="-118.3939544">
  <ele>-21.303</ele>
  <time>2026-09-01T01:18:24Z</time>
  <course>8.34</course>
  <speed>1.7181676286090366</speed>
  <fix>3d</fix>
</trkpt>
<trkpt lat="33.8102851" lon="-118.3939522">
  <ele>-20.5</ele>
  <time>2026-09-01T01:18:24Z</time>
  <course>250.63</course>
  <speed>1.72</speed>
  <fix>3d</fix>
</trkpt>
<trkpt lat="33.8102837" lon="-118.3939562">
  <ele>-21.427</ele>
  <time>2026-09-01T01:18:24Z</time>
  <course>8.32</course>
  <speed>1.7181676286090366</speed>
  <fix>3d</fix>
</trkpt>
<trkpt lat="33.8102851" lon="-118.3939522">
  <ele>-20.5</ele>
  <time>2026-09-01T01:18:24Z</time>
  <course>250.63</course>
  <speed>1.72</speed>
  <fix>3d</fix>
</trkpt>
<trkpt lat="33.8102831" lon="-118.3939579">
  <ele>-21.549</ele>
  <time>2026-09-01T01:18:24Z</time>
  <course>8.29</course>
  <speed>1.7181676286090366</speed>
  <fix>3d</fix>
</trkpt>
<trkpt lat="33.8102841" lon="-118.3939557">
  <ele>-20.75</ele>
  <time>2026-09-01T01:18:24Z</time>
  <course>250.62</course>
  <speed>1.72</speed>
  <fix>3d</fix>
</trkpt>
<trkpt lat="33.8102826" lon="-118.3939597">
  <ele>-21.672</ele>
  <time>2026-09-01T01:18:24Z</time>
  <course>8.27</course>
  <speed>1.7088007490635062</speed>
  <fix>3d</fix>
</trkpt>
<trkpt lat="33.8102841" lon="-118.3939557">
  <ele>-20.75</ele>
  <time>2026-09-01T01:18:24Z</time>
  <course>250.62</course>
  <speed>1.72</speed>
  <fix>3d</fix>
</trkpt>
<trkpt lat="33.8102821" lon="-118.3939615">
  <ele>-21.795</ele>
  <time>2026-09-01T01:18:24Z</time>
  <course>8.27</course>
  <speed>1.7088007490635062</speed>
  <fix>3d</fix>
</trkpt>
<trkpt lat="33.8102831" lon="-118.3939592">
  <ele>-20.99</ele>
  <time>2026-09-01T01:18:24Z</time>
  <course>250.63</course>
  <speed>1.72</speed>
  <fix>3d</fix>
</trkpt>
<trkpt lat="33.8102816" lon="-118.3939632">
  <ele>-21.917</ele>
  <time>2026-09-01T01:18:24Z</time>
  <course>8.27</course>
  <speed>1.7088007490635062</speed>
  <fix>3d</fix>
</trkpt>
<trkpt lat="33.8102831" lon="-118.3939592">
  <ele>-20.99</ele>
  <time>2026-09-01T01:18:24Z</time>
  <course>250.63</course>
  <speed>1.72</speed>
  <fix>3d</fix>
</trkpt>
<trkpt lat="33.8102811" lon="-118.393965">
  <ele>-22.041</ele>
  <time>2026-09-01T01:18:24Z</time>
  <course>8.26</course>
  <speed>1.7088007490635062</speed>
  <fix>3d</fix>
</trkpt>
<trkpt lat="33.810282" lon="-118.3939628">
  <ele>-21.23</ele>
  <time>2026-09-01T01:18:24Z</time>
  <course>250.66</course>
  <speed>1.72</speed>
  <fix>3d</fix>
</trkpt>
<trkpt lat="33.8102806" lon="-118.3939668">
  <ele>-22.166</ele>
  <time>2026-09-01T01:18:24Z</time>
  <course>8.26</course>
  <speed>1.7088007490635062</speed>
  <fix>3d</fix>
</trkpt>
<trkpt lat="33.810282" lon="-118.3939628">
  <ele>-21.23</ele>
  <time>2026-09-01T01:18:24Z</time>
  <course>250.66</course>
  <speed>1.72</speed>
  <fix>3d</fix>
</trkpt>
<trkpt lat="33.81028" lon="-118.3939685">
  <ele>-22.29</ele>
  <time>2026-09-01T01:18:24Z</time>
  <course>8.25</course>
  <speed>1.7088007490635062</speed>
  <fix>3d</fix>
</trkpt>
<trkpt lat="33.810281" lon="-118.3939663">
  <ele>-21.48</ele>
  <time>2026-09-01T01:18:24Z</time>
  <course>250.67</course>
  <speed>1.72</speed>
  <fix>3d</fix>
</trkpt>
<trkpt lat="33.8102795" lon="-118.3939703">
  <ele>-22.415</ele>
  <time>2026-09-01T01:18:24Z</time>
  <course>8.24</course>
  <speed>1.7088007490635062</speed>
  <fix>3d</fix>
</trkpt>
<trkpt lat="33.810281" lon="-118.3939663">
  <ele>-21.48</ele>
  <time>2026-09-01T01:18:24Z</time>
  <course>250.67</course>
  <speed>1.72</speed>
  <fix>3d</fix>
</trkpt>
<trkpt lat="33.810279" lon="-118.3939721">
  <ele>-22.54</ele>
  <time>2026-09-01T01:18:24Z</time>
  <course>8.24</course>
  <speed>1.7181676286090366</speed>
  <fix>3d</fix>
</trkpt>
<trkpt lat="33.81028" lon="-118.3939698">
  <ele>-21.72</ele>
  <time>2026-09-01T01:18:24Z</time>
  <course>250.67</course>
  <speed>1.72</speed>
  <fix>3d</fix>
</trkpt>
<trkpt lat="33.8102785" lon="-118.3939738">
  <ele>-22.667</ele>
  <time>2026-09-01T01:18:24Z</time>
  <course>8.24</course>
  <speed>1.7088007490635062</speed>
  <fix>3d</fix>
</trkpt>
<trkpt lat="33.81028" lon="-118.3939698">
  <ele>-21.72</ele>
  <time>2026-09-01T01:18:24Z</time>
  <course>250.67</course>
  <speed>1.72</speed>
  <fix>3d</fix>
</trkpt>
<trkpt lat="33.810278" lon="-118.3939756">
  <ele>-22.795</ele>
  <time>2026-09-01T01:18:24Z</time>
  <course>8.23</course>
  <speed>1.7088007490635062</speed>
  <fix>3d</fix>
</trkpt>
<trkpt lat="33.8102789" lon="-118.3939733">
  <ele>-21.97</ele>
  <time>2026-09-01T01:18:24Z</time>
  <course>250.65</course>
  <speed>1.72</speed>
  <fix>3d</fix>
</trkpt>
<trkpt lat="33.8102775" lon="-118.3939773">
  <ele>-22.923</ele>
  <time>2026-09-01T01:18:24Z</time>
  <course>8.23</course>
  <speed>1.7088007490635062</speed>
  <fix>3d</fix>
</trkpt>
<trkpt lat="33.8102789" lon="-118.3939733">
  <ele>-21.97</ele>
  <time>2026-09-01T01:18:24Z</time>
  <course>250.65</course>
  <speed>1.72</speed>
  <fix>3d</fix>
</trkpt>
<trkpt lat="33.810277" lon="-118.3939791">
  <ele>-23.051</ele>
  <time>2026-09-01T01:18:24Z</time>
  <course>8.22</course>
  <speed>1.7088007490635062</speed>
  <fix>3d</fix>
</trkpt>
<trkpt lat="33.8102779" lon="-118.3939768">
  <ele>-22.21</ele>
  <time>2026-09-01T01:18:24Z</time>
  <course>250.62</course>
  <speed>1.72</speed>
  <fix>3d</fix>
</trkpt>
<trkpt lat="33.8102764" lon="-118.3939808">
  <ele>-23.179</ele>
  <time>2026-09-01T01:18:24Z</time>
  <course>8.21</course>
  <speed>1.7088007490635062</speed>
  <fix>3d</fix>
</trkpt>
<trkpt lat="33.8102779" lon="-118.3939768">
  <ele>-22.21</ele>
  <time>2026-09-01T01:18:24Z</time>
  <course>250.62</course>
  <speed>1.72</speed>
  <fix>3d</fix>
</trkpt>
<trkpt lat="33.8102759" lon="-118.3939825">
  <ele>-23.307</ele>
  <time>2026-09-01T01:18:24Z</time>
  <course>8.21</course>
  <speed>1.7088007490635062</speed>
  <fix>3d</fix>
</trkpt>
<trkpt lat="33.8102769" lon="-118.3939803">
  <ele>-22.45</ele>
  <time>2026-09-01T01:18:24Z</time>
  <course>250.63</course>
  <speed>1.72</speed>
  <fix>3d</fix>
</trkpt>
<trkpt lat="33.8102754" lon="-118.3939843">
  <ele>-23.434</ele>
  <time>2026-09-01T01:18:24Z</time>
  <course>8.2</course>
  <speed>1.7088007490635062</speed>
  <fix>3d</fix>
</trkpt>
<trkpt lat="33.8102769" lon="-118.3939803">
  <ele>-22.45</ele>
  <time>2026-09-01T01:18:24Z</time>
  <course>250.63</course>
  <speed>1.72</speed>
  <fix>3d</fix>
</trkpt>
<trkpt lat="33.8102749" lon="-118.393986">
  <ele>-23.562</ele>
  <time>2026-09-01T01:18:24Z</time>
  <course>8.19</course>
  <speed>1.7088007490635062</speed>
  <fix>3d</fix>
</trkpt>
<trkpt lat="33.8102759" lon="-118.3939839">
  <ele>-22.7</ele>
  <time>2026-09-01T01:18:24Z</time>
  <course>250.68</course>
  <speed>1.72</speed>
  <fix>3d</fix>
</trkpt>
<trkpt lat="33.8102744" lon="-118.3939878">
  <ele>-23.69</ele>
  <time>2026-09-01T01:18:24Z</time>
  <course>8.18</course>
  <speed>1.7088007490635062</speed>
  <fix>3d</fix>
</trkpt>
<trkpt lat="33.8102759" lon="-118.3939839">
  <ele>-22.7</ele>
  <time>2026-09-01T01:18:24Z</time>
  <course>250.68</course>
  <speed>1.72</speed>
  <fix>3d</fix>
</trkpt>
<trkpt lat="33.8102739" lon="-118.3939895">
  <ele>-23.818</ele>
  <time>2026-09-01T01:18:24Z</time>
  <course>8.18</course>
  <speed>1.7088007490635062</speed>
  <fix>3d</fix>
</trkpt>
<trkpt lat="33.8102748" lon="-118.3939874">
  <ele>-22.94</ele>
  <time>2026-09-01T01:18:24Z</time>
  <course>250.71</course>
  <speed>1.72</speed>
  <fix>3d</fix>
</trkpt>
<trkpt lat="33.8102734" lon="-118.3939913">
  <ele>-23.945</ele>
  <time>2026-09-01T01:18:24Z</time>
  <course>8.17</course>
  <speed>1.7053152201279387</speed>
  <fix>3d</fix>
</trkpt>
<trkpt lat="33.8102748" lon="-118.3939874">
  <ele>-22.94</ele>
  <time>2026-09-01T01:18:24Z</time>
  <course>250.71</course>
  <speed>1.72</speed>
  <fix>3d</fix>
</trkpt>
<trkpt lat="33.8102729" lon="-118.393993">
  <ele>-24.071</ele>
  <time>2026-09-01T01:18:24Z</time>
  <course>8.16</course>
  <speed>1.7053152201279387</speed>
  <fix>3d</fix>
</trkpt>
<trkpt lat="33.8102739" lon="-118.3939909">
  <ele>-23.18</ele>
  <time>2026-09-01T01:18:24Z</time>
  <course>250.74</course>
  <speed>1.72</speed>
  <fix>3d</fix>
</trkpt>
<trkpt lat="33.8102724" lon="-118.3939948">
  <ele>-24.197</ele>
  <time>2026-09-01T01:18:24Z</time>
  <course>8.16</course>
  <speed>1.7053152201279387</speed>
  <fix>3d</fix>
</trkpt>
<trkpt lat="33.8102739" lon="-118.3939909">
  <ele>-23.18</ele>
  <time>2026-09-01T01:18:24Z</time>
  <course>250.74</course>
  <speed>1.72</speed>
  <fix>3d</fix>
</trkpt>
<trkpt lat="33.8102719" lon="-118.3939965">
  <ele>-24.322</ele>
  <time>2026-09-01T01:18:24Z</time>
  <course>8.15</course>
  <speed>1.7053152201279387</speed>
  <fix>3d</fix>
</trkpt>
<trkpt lat="33.8102729" lon="-118.3939944">
  <ele>-23.43</ele>
  <time>2026-09-01T01:18:24Z</time>
  <course>250.76</course>
  <speed>1.72</speed>
  <fix>3d</fix>
</trkpt>
<trkpt lat="33.8102714" lon="-118.3939983">
  <ele>-24.446</ele>
  <time>2026-09-01T01:18:24Z</time>
  <course>8.14</course>
  <speed>1.7053152201279387</speed>
  <fix>3d</fix>
</trkpt>
<trkpt lat="33.8102729" lon="-118.3939944">
  <ele>-23.43</ele>
  <time>2026-09-01T01:18:24Z</time>
  <course>250.76</course>
  <speed>1.72</speed>
  <fix>3d</fix>
</trkpt>
<trkpt lat="33.8102709" lon="-118.394">
  <ele>-24.571</ele>
  <time>2026-09-01T01:18:24Z</time>
  <course>8.14</course>
  <speed>1.7053152201279387</speed>
  <fix>3d</fix>
</trkpt>
<trkpt lat="33.8102718" lon="-118.3939979">
  <ele>-23.67</ele>
  <time>2026-09-01T01:18:24Z</time>
  <course>250.75</course>
  <speed>1.72</speed>
  <fix>3d</fix>
</trkpt>
<trkpt lat="33.8102704" lon="-118.3940018">
  <ele>-24.696</ele>
  <time>2026-09-01T01:18:24Z</time>
  <course>8.13</course>
  <speed>1.7053152201279387</speed>
  <fix>3d</fix>
</trkpt>
<trkpt lat="33.8102718" lon="-118.3939979">
  <ele>-23.67</ele>
  <time>2026-09-01T01:18:24Z</time>
  <course>250.75</course>
  <speed>1.72</speed>
  <fix>3d</fix>
</trkpt>
<trkpt lat="33.8102699" lon="-118.3940035">
  <ele>-24.82</ele>
  <time>2026-09-01T01:18:24Z</time>
  <course>8.13</course>
  <speed>1.7053152201279387</speed>
  <fix>3d</fix>
</trkpt>
<trkpt lat="33.8102708" lon="-118.3940014">
  <ele>-23.92</ele>
  <time>2026-09-01T01:18:24Z</time>
  <course>250.75</course>
  <speed>1.72</speed>
  <fix>3d</fix>
</trkpt>
<trkpt lat="33.8102694" lon="-118.3940053">
  <ele>-24.944</ele>
  <time>2026-09-01T01:18:24Z</time>
  <course>8.12</course>
  <speed>1.7053152201279387</speed>
  <fix>3d</fix>
</trkpt>
<trkpt lat="33.8102708" lon="-118.3940014">
  <ele>-23.92</ele>
  <time>2026-09-01T01:18:24Z</time>
  <course>250.75</course>
  <speed>1.72</speed>
  <fix>3d</fix>
</trkpt>
<trkpt lat="33.8102689" lon="-118.3940071">
  <ele>-25.069</ele>
  <time>2026-09-01T01:18:24Z</time>
  <course>8.12</course>
  <speed>1.7053152201279387</speed>
  <fix>3d</fix>
</trkpt>
<trkpt lat="33.8102698" lon="-118.394005">
  <ele>-24.16</ele>
  <time>2026-09-01T01:18:24Z</time>
  <course>250.75</course>
  <speed>1.72</speed>
  <fix>3d</fix>
</trkpt>
<trkpt lat="33.8102684" lon="-118.3940088">
  <ele>-25.194</ele>
  <time>2026-09-01T01:18:24Z</time>
  <course>8.11</course>
  <speed>1.7053152201279387</speed>
  <fix>3d</fix>
</trkpt>
<trkpt lat="33.8102698" lon="-118.394005">
  <ele>-24.16</ele>
  <time>2026-09-01T01:18:24Z</time>
  <course>250.75</course>
  <speed>1.72</speed>
  <fix>3d</fix>
</trkpt>
<trkpt lat="33.8102679" lon="-118.3940106">
  <ele>-25.318</ele>
  <time>2026-09-01T01:18:24Z</time>
  <course>8.1</course>
  <speed>1.7053152201279387</speed>
  <fix>3d</fix>
</trkpt>
<trkpt lat="33.8102688" lon="-118.3940085">
  <ele>-24.4</ele>
  <time>2026-09-01T01:18:24Z</time>
  <course>250.76</course>
  <speed>1.72</speed>
  <fix>3d</fix>
</trkpt>
<trkpt lat="33.8102674" lon="-118.3940123">
  <ele>-25.441</ele>
  <time>2026-09-01T01:18:24Z</time>
  <course>8.1</course>
  <speed>1.7053152201279387</speed>
  <fix>3d</fix>
</trkpt>
<trkpt lat="33.8102688" lon="-118.3940085">
  <ele>-24.4</ele>
  <time>2026-09-01T01:18:24Z</time>
  <course>250.76</course>
  <speed>1.72</speed>
  <fix>3d</fix>
</trkpt>
<trkpt lat="33.8102668" lon="-118.3940141">
  <ele>-25.566</ele>
  <time>2026-09-01T01:18:24Z</time>
  <course>8.09</course>
  <speed>1.7053152201279387</speed>
  <fix>3d</fix>
</trkpt>
<trkpt lat="33.8102678" lon="-118.394012">
  <ele>-24.65</ele>
  <time>2026-09-01T01:18:24Z</time>
  <course>250.77</course>
  <speed>1.72</speed>
  <fix>3d</fix>
</trkpt>
<trkpt lat="33.8102663" lon="-118.3940158">
  <ele>-25.69</ele>
  <time>2026-09-01T01:18:24Z</time>
  <course>8.09</course>
  <speed>1.7053152201279387</speed>
  <fix>3d</fix>
</trkpt>
<trkpt lat="33.8102678" lon="-118.394012">
  <ele>-24.65</ele>
  <time>2026-09-01T01:18:24Z</time>
  <course>250.77</course>
  <speed>1.72</speed>
  <fix>3d</fix>
</trkpt>
<trkpt lat="33.8102658" lon="-118.3940176">
  <ele>-25.815</ele>
  <time>2026-09-01T01:18:24Z</time>
  <course>8.08</course>
  <speed>1.7053152201279387</speed>
  <fix>3d</fix>
</trkpt>
<trkpt lat="33.8102667" lon="-118.3940155">
  <ele>-24.89</ele>
  <time>2026-09-01T01:18:24Z</time>
  <course>250.77</course>
  <speed>1.72</speed>
  <fix>3d</fix>
</trkpt>
<trkpt lat="33.8102653" lon="-118.3940193">
  <ele>-25.94</ele>
  <time>2026-09-01T01:18:24Z</time>
  <course>8.08</course>
  <speed>1.7053152201279387</speed>
  <fix>3d</fix>
</trkpt>
<trkpt lat="33.8102667" lon="-118.3940155">
  <ele>-24.89</ele>
  <time>2026-09-01T01:18:24Z</time>
  <course>250.77</course>
  <speed>1.72</speed>
  <fix>3d</fix>
</trkpt>
<trkpt lat="33.8102648" lon="-118.3940211">
  <ele>-26.064</ele>
  <time>2026-09-01T01:18:24Z</time>
  <course>8.08</course>
  <speed>1.7053152201279387</speed>
  <fix>3d</fix>
</trkpt>
<trkpt lat="33.8102657" lon="-118.394019">
  <ele>-25.14</ele>
  <time>2026-09-01T01:18:24Z</time>
  <course>250.76</course>
  <speed>1.72</speed>
  <fix>3d</fix>
</trkpt>
<trkpt lat="33.8102643" lon="-118.3940229">
  <ele>-26.188</ele>
  <time>2026-09-01T01:18:24Z</time>
  <course>8.07</course>
  <speed>1.7053152201279387</speed>
  <fix>3d</fix>
</trkpt>
<trkpt lat="33.8102657" lon="-118.394019">
  <ele>-25.14</ele>
  <time>2026-09-01T01:18:24Z</time>
  <course>250.76</course>
  <speed>1.72</speed>
  <fix>3d</fix>
</trkpt>
<trkpt lat="33.8102638" lon="-118.3940246">
  <ele>-26.312</ele>
  <time>2026-09-01T01:18:24Z</time>
  <course>8.06</course>
  <speed>1.7053152201279387</speed>
  <fix>3d</fix>
</trkpt>
<trkpt lat="33.8102647" lon="-118.3940225">
  <ele>-25.38</ele>
  <time>2026-09-01T01:18:24Z</time>
  <course>250.76</course>
  <speed>1.72</speed>
  <fix>3d</fix>
</trkpt>
<trkpt lat="33.8102633" lon="-118.3940264">
  <ele>-26.436</ele>
  <time>2026-09-01T01:18:24Z</time>
  <course>8.06</course>
  <speed>1.7053152201279387</speed>
  <fix>3d</fix>
</trkpt>
<trkpt lat="33.8102647" lon="-118.3940225">
  <ele>-25.38</ele>
  <time>2026-09-01T01:18:24Z</time>
  <course>250.76</course>
  <speed>1.72</speed>
  <fix>3d</fix>
</trkpt>
<trkpt lat="33.8102628" lon="-118.3940281">
  <ele>-26.561</ele>
  <time>2026-09-01T01:18:24Z</time>
  <course>8.05</course>
  <speed>1.7053152201279387</speed>
  <fix>3d</fix>
</trkpt>
<trkpt lat="33.8102637" lon="-118.394026">
  <ele>-25.62</ele>
  <time>2026-09-01T01:18:24Z</time>
  <course>250.77</course>
  <speed>1.72</speed>
  <fix>3d</fix>
</trkpt>
<trkpt lat="33.8102623" lon="-118.3940299">
  <ele>-26.685</ele>
  <time>2026-09-01T01:18:24Z</time>
  <course>8.05</course>
  <speed>1.7053152201279387</speed>
  <fix>3d</fix>
</trkpt>
<trkpt lat="33.8102637" lon="-118.394026">
  <ele>-25.62</ele>
  <time>2026-09-01T01:18:24Z</time>
  <course>250.77</course>
  <speed>1.72</speed>
  <fix>3d</fix>
</trkpt>
<trkpt lat="33.8102618" lon="-118.3940316">
  <ele>-26.811</ele>
  <time>2026-09-01T01:18:24Z</time>
  <course>8.04</course>
  <speed>1.7053152201279387</speed>
  <fix>3d</fix>
</trkpt>
<trkpt lat="33.8102626" lon="-118.3940295">
  <ele>-25.86</ele>
  <time>2026-09-01T01:18:24Z</time>
  <course>250.8</course>
  <speed>1.72</speed>
  <fix>3d</fix>
</trkpt>
<trkpt lat="33.8102613" lon="-118.3940334">
  <ele>-26.936</ele>
  <time>2026-09-01T01:18:24Z</time>
  <course>8.04</course>
  <speed>1.7018813119603846</speed>
  <fix>3d</fix>
</trkpt>
<trkpt lat="33.8102626" lon="-118.3940295">
  <ele>-25.86</ele>
  <time>2026-09-01T01:18:24Z</time>
  <course>250.8</course>
  <speed>1.72</speed>
  <fix>3d</fix>
</trkpt>
<trkpt lat="33.8102608" lon="-118.3940351">
  <ele>-27.061</ele>
  <time>2026-09-01T01:18:24Z</time>
  <course>8.03</course>
  <speed>1.7018813119603846</speed>
  <fix>3d</fix>
</trkpt>
<trkpt lat="33.8102617" lon="-118.394033">
  <ele>-26.11</ele>
  <time>2026-09-01T01:18:24Z</time>
  <course>250.83</course>
  <speed>1.71</speed>
  <fix>3d</fix>
</trkpt>
<trkpt lat="33.8102603" lon="-118.3940369">
  <ele>-27.186</ele>
  <time>2026-09-01T01:18:24Z</time>
  <course>8.02</course>
  <speed>1.7018813119603846</speed>
  <fix>3d</fix>
</trkpt>
<trkpt lat="33.8102617" lon="-118.394033">
  <ele>-26.11</ele>
  <time>2026-09-01T01:18:24Z</time>
  <course>250.83</course>
  <speed>1.71</speed>
  <fix>3d</fix>
</trkpt>
<trkpt lat="33.8102598" lon="-118.3940386">
  <ele>-27.31</ele>
  <time>2026-09-01T01:18:24Z</time>
  <course>8.02</course>
  <speed>1.7018813119603846</speed>
  <fix>3d</fix>
</trkpt>
<trkpt lat="33.8102606" lon="-118.3940366">
  <ele>-26.35</ele>
  <time>2026-09-01T01:18:24Z</time>
  <course>250.86</course>
  <speed>1.71</speed>
  <fix>3d</fix>
</trkpt>
<trkpt lat="33.8102593" lon="-118.3940404">
  <ele>-27.433</ele>
  <time>2026-09-01T01:18:24Z</time>
  <course>8.02</course>
  <speed>1.7018813119603846</speed>
  <fix>3d</fix>
</trkpt>
<trkpt lat="33.8102606" lon="-118.3940366">
  <ele>-26.35</ele>
  <time>2026-09-01T01:18:24Z</time>
  <course>250.86</course>
  <speed>1.71</speed>
  <fix>3d</fix>
</trkpt>
<trkpt lat="33.8102588" lon="-118.3940421">
  <ele>-27.557</ele>
  <time>2026-09-01T01:18:24Z</time>
  <course>8.01</course>
  <speed>1.7018813119603846</speed>
  <fix>3d</fix>
</trkpt>
<trkpt lat="33.8102595" lon="-118.3940401">
  <ele>-26.59</ele>
  <time>2026-09-01T01:18:24Z</time>
  <course>250.87</course>
  <speed>1.71</speed>
  <fix>3d</fix>
</trkpt>
<trkpt lat="33.8102582" lon="-118.3940439">
  <ele>-27.682</ele>
  <time>2026-09-01T01:18:24Z</time>
  <course>8.01</course>
  <speed>1.7018813119603846</speed>
  <fix>3d</fix>
</trkpt>
<trkpt lat="33.8102595" lon="-118.3940401">
  <ele>-26.59</ele>
  <time>2026-09-01T01:18:24Z</time>
  <course>250.87</course>
  <speed>1.71</speed>
  <fix>3d</fix>
</trkpt>
<trkpt lat="33.8102577" lon="-118.3940457">
  <ele>-27.806</ele>
  <time>2026-09-01T01:18:24Z</time>
  <course>8.0</course>
  <speed>1.7018813119603846</speed>
  <fix>3d</fix>
</trkpt>
<trkpt lat="33.8102586" lon="-118.3940436">
  <ele>-26.84</ele>
  <time>2026-09-01T01:18:24Z</time>
  <course>250.88</course>
  <speed>1.71</speed>
  <fix>3d</fix>
</trkpt>
<trkpt lat="33.8102572" lon="-118.3940474">
  <ele>-27.93</ele>
  <time>2026-09-01T01:18:24Z</time>
  <course>8.0</course>
  <speed>1.7018813119603846</speed>
  <fix>3d</fix>
</trkpt>
<trkpt lat="33.8102586" lon="-118.3940436">
  <ele>-26.84</ele>
  <time>2026-09-01T01:18:24Z</time>
  <course>250.88</course>
  <speed>1.71</speed>
  <fix>3d</fix>
</trkpt>
<trkpt lat="33.8102567" lon="-118.3940492">
  <ele>-28.055</ele>
  <time>2026-09-01T01:18:24Z</time>
  <course>7.99</course>
  <speed>1.7018813119603846</speed>
  <fix>3d</fix>
</trkpt>
<trkpt lat="33.8102576" lon="-118.3940471">
  <ele>-27.09</ele>
  <time>2026-09-01T01:18:24Z</time>
  <course>250.88</course>
  <speed>1.71</speed>
  <fix>3d</fix>
</trkpt>
<trkpt lat="33.8102562" lon="-118.3940509">
  <ele>-28.178</ele>
  <time>2026-09-01T01:18:24Z</time>
  <course>7.99</course>
  <speed>1.7018813119603846</speed>
  <fix>3d</fix>
</trkpt>
<trkpt lat="33.8102576" lon="-118.3940471">
  <ele>-27.09</ele>
  <time>2026-09-01T01:18:24Z</time>
  <course>250.88</course>
  <speed>1.71</speed>
  <fix>3d</fix>
</trkpt>
<trkpt lat="33.8102558" lon="-118.3940522">
  <ele>-28.272</ele>
  <time>2026-09-01T01:18:24Z</time>
  <course>7.98</course>
  <speed>0.994786409235671</speed>
  <fix>3d</fix>
</trkpt>
<trkpt lat="33.8102566" lon="-118.3940506">
  <ele>-27.33</ele>
  <time>2026-09-01T01:18:24Z</time>
  <course>249.88</course>
  <speed>1.6</speed>
  <fix>3d</fix>
</trkpt>
<trkpt lat="33.8102554" lon="-118.394053">
  <ele>-28.329</ele>
  <time>2026-09-01T01:18:24Z</time>
  <course>7.97</course>
  <speed>0.7140028011149536</speed>
  <fix>3d</fix>
</trkpt>
<trkpt lat="33.8102566" lon="-118.3940506">
  <ele>-27.33</ele>
  <time>2026-09-01T01:18:24Z</time>
  <course>249.88</course>
  <speed>1.6</speed>
  <fix>3d</fix>
</trkpt>
<trkpt lat="33.810255" lon="-118.3940536">
  <ele>-28.368</ele>
  <time>2026-09-01T01:18:24Z</time>
  <course>7.96</course>
  <speed>0.5672741841473133</speed>
  <fix>3d</fix>
</trkpt>
<trkpt lat="33.8102557" lon="-118.3940533">
  <ele>-27.51</ele>
  <time>2026-09-01T01:18:24Z</time>
  <course>245.1</course>
  <speed>1.07</speed>
  <fix>3d</fix>
</trkpt>
<trkpt lat="33.8102547" lon="-118.3940541">
  <ele>-28.396</ele>
  <time>2026-09-01T01:18:24Z</time>
  <course>7.94</course>
  <speed>0.4738143096192854</speed>
  <fix>3d</fix>
</trkpt>
<trkpt lat="33.8102557" lon="-118.3940533">
  <ele>-27.51</ele>
  <time>2026-09-01T01:18:24Z</time>
  <course>245.1</course>
  <speed>1.07</speed>
  <fix>3d</fix>
</trkpt>
<trkpt lat="33.8102545" lon="-118.3940545">
  <ele>-28.418</ele>
  <time>2026-09-01T01:18:24Z</time>
  <course>7.92</course>
  <speed>0.41036569057366384</speed>
  <fix>3d</fix>
</trkpt>
<trkpt lat="33.810255" lon="-118.3940547">
  <ele>-27.61</ele>
  <time>2026-09-01T01:18:24Z</time>
  <course>235.3</course>
  <speed>0.55</speed>
  <fix>3d</fix>
</trkpt>
<trkpt lat="33.8102542" lon="-118.3940549">
  <ele>-28.433</ele>
  <time>2026-09-01T01:18:24Z</time>
  <course>7.9</course>
  <speed>0.36124783736376886</speed>
  <fix>3d</fix>
</trkpt>
<trkpt lat="33.810255" lon="-118.3940547">
  <ele>-27.61</ele>
  <time>2026-09-01T01:18:24Z</time>
  <course>235.3</course>
  <speed>0.55</speed>
  <fix>3d</fix>
</trkpt>
<trkpt lat="33.810254" lon="-118.3940553">
  <ele>-28.444</ele>
  <time>2026-09-01T01:18:24Z</time>
  <course>7.88</course>
  <speed>0.3330165161069343</speed>
  <fix>3d</fix>
</trkpt>
<trkpt lat="33.8102545" lon="-118.3940555">
  <ele>-27.67</ele>
  <time>2026-09-01T01:18:24Z</time>
  <course>231.89</course>
  <speed>0.38</speed>
  <fix>3d</fix>
</trkpt>
<trkpt lat="33.8102538" lon="-118.3940556">
  <ele>-28.454</ele>
  <time>2026-09-01T01:18:25Z</time>
  <course>7.86</course>
  <speed>0.29832867780352595</speed>
  <fix>3d</fix>
</trkpt>
<trkpt lat="33.8102545" lon="-118.3940555">
  <ele>-27.67</ele>
  <time>2026-09-01T01:18:25Z</time>
  <course>231.89</course>
  <speed>0.38</speed>
  <fix>3d</fix>
</trkpt>
<trkpt lat="33.8102536" lon="-118.3940558">
  <ele>-28.461</ele>
  <time>2026-09-01T01:18:25Z</time>
  <course>7.84</course>
  <speed>0.2842534080710379</speed>
  <fix>3d</fix>
</trkpt>
<trkpt lat="33.8102541" lon="-118.394056">
  <ele>-27.71</ele>
  <time>2026-09-01T01:18:25Z</time>
  <course>230.13</course>
  <speed>0.29</speed>
  <fix>3d</fix>
</trkpt>
<trkpt lat="33.8102535" lon="-118.3940561">
  <ele>-28.466</ele>
  <time>2026-09-01T01:18:25Z</time>
  <course>7.82</course>
  <speed>0.2640075756488817</speed>
  <fix>3d</fix>
</trkpt>
<trkpt lat="33.8102541" lon="-118.394056">
  <ele>-27.71</ele>
  <time>2026-09-01T01:18:25Z</time>
  <course>230.13</course>
  <speed>0.29</speed>
  <fix>3d</fix>
</trkpt>
<trkpt lat="33.8102533" lon="-118.3940563">
  <ele>-28.471</ele>
  <time>2026-09-01T01:18:25Z</time>
  <course>7.8</course>
  <speed>0.2420743687382041</speed>
  <fix>3d</fix>
</trkpt>
<trkpt lat="33.8102538" lon="-118.3940565">
  <ele>-27.74</ele>
  <time>2026-09-01T01:18:25Z</time>
  <course>229.04</course>
  <speed>0.24</speed>
  <fix>3d</fix>
</trkpt>
<trkpt lat="33.8102532" lon="-118.3940565">
  <ele>-28.476</ele>
  <time>2026-09-01T01:18:25Z</time>
  <course>7.78</course>
  <speed>0.22803508501982758</speed>
  <fix>3d</fix>
</trkpt>
<trkpt lat="33.8102538" lon="-118.3940565">
  <ele>-27.74</ele>
  <time>2026-09-01T01:18:25Z</time>
  <course>229.04</course>
  <speed>0.24</speed>
  <fix>3d</fix>
</trkpt>
<trkpt lat="33.8102531" lon="-118.3940567">
  <ele>-28.48</ele>
  <time>2026-09-01T01:18:25Z</time>
  <course>7.76</course>
  <speed>0.21400934559032694</speed>
  <fix>3d</fix>
</trkpt>
<trkpt lat="33.8102535" lon="-118.3940568">
  <ele>-27.76</ele>
  <time>2026-09-01T01:18:25Z</time>
  <course>228.29</course>
  <speed>0.2</speed>
  <fix>3d</fix>
</trkpt>
<trkpt lat="33.8102529" lon="-118.3940569">
  <ele>-28.483</ele>
  <time>2026-09-01T01:18:25Z</time>
  <course>7.74</course>
  <speed>0.20808652046684814</speed>
  <fix>3d</fix>
</trkpt>
<trkpt lat="33.8102535" lon="-118.3940568">
  <ele>-27.76</ele>
  <time>2026-09-01T01:18:25Z</time>
  <course>228.29</course>
  <speed>0.2</speed>
  <fix>3d</fix>
</trkpt>
<trkpt lat="33.8102528" lon="-118.3940571">
  <ele>-28.485</ele>
  <time>2026-09-01T01:18:25Z</time>
  <course>7.73</course>
  <speed>0.2</speed>
  <fix>3d</fix>
</trkpt>
<trkpt lat="33.8102533" lon="-118.3940571">
  <ele>-27.78</ele>
  <time>2026-09-01T01:18:25Z</time>
  <course>227.74</course>
  <speed>0.18</speed>
  <fix>3d</fix>
</trkpt>
<trkpt lat="33.8102527" lon="-118.3940572">
  <ele>-28.486</ele>
  <time>2026-09-01T01:18:25Z</time>
  <course>7.71</course>
  <speed>0.18601075237738274</speed>
  <fix>3d</fix>
</trkpt>
<trkpt lat="33.8102533" lon="-118.3940571">
  <ele>-27.78</ele>
  <time>2026-09-01T01:18:25Z</time>
  <course>227.74</course>
  <speed>0.18</speed>
  <fix>3d</fix>
</trkpt>
<trkpt lat="33.8102526" lon="-118.3940574">
  <ele>-28.487</ele>
  <time>2026-09-01T01:18:25Z</time>
  <course>7.69</course>
  <speed>0.18601075237738274</speed>
  <fix>3d</fix>
</trkpt>
<trkpt lat="33.8102531" lon="-118.3940574">
  <ele>-27.79</ele>
  <time>2026-09-01T01:18:25Z</time>
  <course>227.32</course>
  <speed>0.15</speed>
  <fix>3d</fix>
</trkpt>
<trkpt lat="33.8102525" lon="-118.3940575">
  <ele>-28.489</ele>
  <time>2026-09-01T01:18:25Z</time>
  <course>7.68</course>
  <speed>0.17204650534085253</speed>
  <fix>3d</fix>
</trkpt>
<trkpt lat="33.8102531" lon="-118.3940574">
  <ele>-27.79</ele>
  <time>2026-09-01T01:18:25Z</time>
  <course>227.32</course>
  <speed>0.15</speed>
  <fix>3d</fix>
</trkpt>
<trkpt lat="33.8102522" lon="-118.394058">
  <ele>-28.493</ele>
  <time>2026-09-01T01:18:25Z</time>
  <course>7.62</course>
  <speed>0.15</speed>
  <fix>3d</fix>
</trkpt>
<trkpt lat="33.8102528" lon="-118.3940579">
  <ele>-27.81</ele>
  <time>2026-09-01T01:18:25Z</time>
  <course>226.72</course>
  <speed>0.12</speed>
  <fix>3d</fix>
</trkpt>
<trkpt lat="33.8102521" lon="-118.3940583">
  <ele>-28.491</ele>
  <time>2026-09-01T01:18:25Z</time>
  <course>7.59</course>
  <speed>0.12806248474865697</speed>
  <fix>3d</fix>
</trkpt>
<trkpt lat="33.8102525" lon="-118.3940582">
  <ele>-27.82</ele>
  <time>2026-09-01T01:18:25Z</time>
  <course>226.32</course>
  <speed>0.1</speed>
  <fix>3d</fix>
</trkpt>
<trkpt lat="33.810252" lon="-118.3940584">
  <ele>-28.489</ele>
  <time>2026-09-01T01:18:25Z</time>
  <course>7.58</course>
  <speed>0.12806248474865697</speed>
  <fix>3d</fix>
</trkpt>
<trkpt lat="33.8102525" lon="-118.3940582">
  <ele>-27.82</ele>
  <time>2026-09-01T01:18:25Z</time>
  <course>226.32</course>
  <speed>0.1</speed>
  <fix>3d</fix>
</trkpt>
<trkpt lat="33.8102519" lon="-118.3940585">
  <ele>-28.485</ele>
  <time>2026-09-01T01:18:25Z</time>
  <course>7.56</course>
  <speed>0.11401754250991379</speed>
  <fix>3d</fix>
</trkpt>
<trkpt lat="33.8102523" lon="-118.3940584">
  <ele>-27.82</ele>
  <time>2026-09-01T01:18:25Z</time>
  <course>226.16</course>
  <speed>0.1</speed>
  <fix>3d</fix>
</trkpt>
<trkpt lat="33.8102519" lon="-118.3940586">
  <ele>-28.483</ele>
  <time>2026-09-01T01:18:25Z</time>
  <course>7.55</course>
  <speed>0.11401754250991379</speed>
  <fix>3d</fix>
</trkpt>
<trkpt lat="33.8102522" lon="-118.3940586">
  <ele>-27.81</ele>
  <time>2026-09-01T01:18:25Z</time>
  <course>226.02</course>
  <speed>0.09</speed>
  <fix>3d</fix>
</trkpt>
<trkpt lat="33.8102518" lon="-118.3940587">
  <ele>-28.48</ele>
  <time>2026-09-01T01:18:25Z</time>
  <course>7.54</course>
  <speed>0.10816653826391968</speed>
  <fix>3d</fix>
</trkpt>
<trkpt lat="33.8102522" lon="-118.3940586">
  <ele>-27.81</ele>
  <time>2026-09-01T01:18:25Z</time>
  <course>226.02</course>
  <speed>0.09</speed>
  <fix>3d</fix>
</trkpt>
<trkpt lat="33.8102518" lon="-118.3940588">
  <ele>-28.477</ele>
  <time>2026-09-01T01:18:25Z</time>
  <course>7.53</course>
  <speed>0.1</speed>
  <fix>3d</fix>
</trkpt>
<trkpt lat="33.8102521" lon="-118.3940587">
  <ele>-27.81</ele>
  <time>2026-09-01T01:18:25Z</time>
  <course>225.9</course>
  <speed>0.08</speed>
  <fix>3d</fix>
</trkpt>
<trkpt lat="33.8102517" lon="-118.3940588">
  <ele>-28.473</ele>
  <time>2026-09-01T01:18:25Z</time>
  <course>7.52</course>
  <speed>0.1</speed>
  <fix>3d</fix>
</trkpt>
<trkpt lat="33.8102521" lon="-118.3940587">
  <ele>-27.81</ele>
  <time>2026-09-01T01:18:25Z</time>
  <course>225.9</course>
  <speed>0.08</speed>
  <fix>3d</fix>
</trkpt>
<trkpt lat="33.8102517" lon="-118.3940589">
  <ele>-28.468</ele>
  <time>2026-09-01T01:18:25Z</time>
  <course>7.51</course>
  <speed>0.1</speed>
  <fix>3d</fix>
</trkpt>
<trkpt lat="33.810252" lon="-118.3940588">
  <ele>-27.8</ele>
  <time>2026-09-01T01:18:25Z</time>
  <course>225.79</course>
  <speed>0.08</speed>
  <fix>3d</fix>
</trkpt>
<trkpt lat="33.8102516" lon="-118.394059">
  <ele>-28.464</ele>
  <time>2026-09-01T01:18:25Z</time>
  <course>7.51</course>
  <speed>0.09219544457292887</speed>
  <fix>3d</fix>
</trkpt>
<trkpt lat="33.810252" lon="-118.3940588">
  <ele>-27.8</ele>
  <time>2026-09-01T01:18:25Z</time>
  <course>225.79</course>
  <speed>0.08</speed>
  <fix>3d</fix>
</trkpt>
<trkpt lat="33.8102516" lon="-118.394059">
  <ele>-28.459</ele>
  <time>2026-09-01T01:18:25Z</time>
  <course>7.5</course>
  <speed>0.08602325267042626</speed>
  <fix>3d</fix>
</trkpt>
<trkpt lat="33.8102519" lon="-118.394059">
  <ele>-27.79</ele>
  <time>2026-09-01T01:18:25Z</time>
  <course>225.69</course>
  <speed>0.07</speed>
  <fix>3d</fix>
</trkpt>
<trkpt lat="33.8102516" lon="-118.3940591">
  <ele>-28.454</ele>
  <time>2026-09-01T01:18:25Z</time>
  <course>7.49</course>
  <speed>0.08602325267042626</speed>
  <fix>3d</fix>
</trkpt>
<trkpt lat="33.8102519" lon="-118.394059">
  <ele>-27.79</ele>
  <time>2026-09-01T01:18:25Z</time>
  <course>225.69</course>
  <speed>0.07</speed>
  <fix>3d</fix>
</trkpt>
<trkpt lat="33.8102515" lon="-118.3940592">
  <ele>-28.448</ele>
  <time>2026-09-01T01:18:25Z</time>
  <course>7.48</course>
  <speed>0.08602325267042626</speed>
  <fix>3d</fix>
</trkpt>
<trkpt lat="33.8102518" lon="-118.3940591">
  <ele>-27.78</ele>
  <time>2026-09-01T01:18:25Z</time>
  <course>225.6</course>
  <speed>0.07</speed>
  <fix>3d</fix>
</trkpt>
<trkpt lat="33.8102515" lon="-118.3940592">
  <ele>-28.442</ele>
  <time>2026-09-01T01:18:25Z</time>
  <course>7.48</course>
  <speed>0.07810249675906654</speed>
  <fix>3d</fix>
</trkpt>
<trkpt lat="33.8102518" lon="-118.3940591">
  <ele>-27.78</ele>
  <time>2026-09-01T01:18:25Z</time>
  <course>225.6</course>
  <speed>0.07</speed>
  <fix>3d</fix>
</trkpt>
<trkpt lat="33.4361815" lon="-117.0837675">
  <ele>0.41</ele>
  <time>2026-09-01T01:18:26Z</time>
  <course>0.0</course>
  <speed>0.0</speed>
  <fix>3d</fix>
</trkpt>
<trkpt lat="33.4361815" lon="-117.0837675">
  <ele>0.41</ele>
  <time>2026-09-01T01:18:26Z</time>
  <course>0.0</course>
  <speed>0.0</speed>
  <fix>3d</fix>
</trkpt>
<trkpt lat="33.810313" lon="-118.393867">
  <ele>0.0</ele>
  <time>2026-09-01T01:18:26Z</time>
  <course>173.5</course>
  <speed>0.0</speed>
  <fix>3d</fix>
</trkpt>
<trkpt lat="33.810313" lon="-118.393867">
  <ele>0.43</ele>
  <time>2026-09-01T01:18:26Z</time>
  <course>0.0</course>
  <speed>0.0</speed>
  <fix>3d</fix>
</trkpt>
<trkpt lat="33.810313" lon="-118.393867">
  <ele>0.0</ele>
  <time>2026-09-01T01:18:26Z</time>
  <course>173.56</course>
  <speed>0.0</speed>
  <fix>3d</fix>
</trkpt>
<trkpt lat="33.810313" lon="-118.393867">
  <ele>0.43</ele>
  <time>2026-09-01T01:18:26Z</time>
  <course>0.0</course>
  <speed>0.0</speed>
  <fix>3d</fix>
</trkpt>
<trkpt lat="33.810313" lon="-118.393867">
  <ele>0.0</ele>
  <time>2026-09-01T01:18:26Z</time>
  <course>173.9</course>
  <speed>0.0</speed>
  <fix>3d</fix>
</trkpt>
<trkpt lat="33.810313" lon="-118.393867">
  <ele>0.44</ele>
  <time>2026-09-01T01:18:26Z</time>
  <course>0.0</course>
  <speed>0.0</speed>
  <fix>3d</fix>
</trkpt>
<trkpt lat="33.810313" lon="-118.393867">
  <ele>0.0</ele>
  <time>2026-09-01T01:18:26Z</time>
  <course>174.41</course>
  <speed>0.0</speed>
  <fix>3d</fix>
</trkpt>
<trkpt lat="33.810313" lon="-118.393867">
  <ele>0.44</ele>
  <time>2026-09-01T01:18:26Z</time>
  <course>0.0</course>
  <speed>0.0</speed>
  <fix>3d</fix>
</trkpt>
<trkpt lat="33.810313" lon="-118.393867">
  <ele>0.0</ele>
  <time>2026-09-01T01:18:26Z</time>
  <course>174.97</course>
  <speed>0.0</speed>
  <fix>3d</fix>
</trkpt>
<trkpt lat="33.810313" lon="-118.393867">
  <ele>0.45</ele>
  <time>2026-09-01T01:18:26Z</time>
  <course>0.0</course>
  <speed>0.0</speed>
  <fix>3d</fix>
</trkpt>
<trkpt lat="33.810313" lon="-118.393867">
  <ele>0.0</ele>
  <time>2026-09-01T01:18:26Z</time>
  <course>175.51</course>
  <speed>0.0</speed>
  <fix>3d</fix>
</trkpt>
<trkpt lat="33.810313" lon="-118.393867">
  <ele>0.45</ele>
  <time>2026-09-01T01:18:26Z</time>
  <course>0.0</course>
  <speed>0.0</speed>
  <fix>3d</fix>
</trkpt>
<trkpt lat="33.810313" lon="-118.393867">
  <ele>0.0</ele>
  <time>2026-09-01T01:18:26Z</time>
  <course>176.02</course>
  <speed>0.0</speed>
  <fix>3d</fix>
</trkpt>
<trkpt lat="33.810313" lon="-118.393867">
  <ele>0.45</ele>
  <time>2026-09-01T01:18:26Z</time>
  <course>0.0</course>
  <speed>0.0</speed>
  <fix>3d</fix>
</trkpt>
<trkpt lat="33.810313" lon="-118.393867">
  <ele>0.0</ele>
  <time>2026-09-01T01:18:26Z</time>
  <course>176.5</course>
  <speed>0.0</speed>
  <fix>3d</fix>
</trkpt>
<trkpt lat="33.810313" lon="-118.393867">
  <ele>0.45</ele>
  <time>2026-09-01T01:18:26Z</time>
  <course>0.0</course>
  <speed>0.0</speed>
  <fix>3d</fix>
</trkpt>
<trkpt lat="33.810313" lon="-118.393867">
  <ele>0.0</ele>
  <time>2026-09-01T01:18:26Z</time>
  <course>176.97</course>
  <speed>0.0</speed>
  <fix>3d</fix>
</trkpt>
<trkpt lat="33.810313" lon="-118.393867">
  <ele>0.45</ele>
  <time>2026-09-01T01:18:26Z</time>
  <course>0.0</course>
  <speed>0.0</speed>
  <fix>3d</fix>
</trkpt>
<trkpt lat="33.810313" lon="-118.393867">
  <ele>0.0</ele>
  <time>2026-09-01T01:18:26Z</time>
  <course>177.43</course>
  <speed>0.0</speed>
  <fix>3d</fix>
</trkpt>
<trkpt lat="33.810313" lon="-118.393867">
  <ele>0.45</ele>
  <time>2026-09-01T01:18:26Z</time>
  <course>0.0</course>
  <speed>0.0</speed>
  <fix>3d</fix>
</trkpt>
<trkpt lat="33.810313" lon="-118.393867">
  <ele>0.0</ele>
  <time>2026-09-01T01:18:26Z</time>
  <course>177.87</course>
  <speed>0.0</speed>
  <fix>3d</fix>
</trkpt>
<trkpt lat="33.810313" lon="-118.393867">
  <ele>0.46</ele>
  <time>2026-09-01T01:18:26Z</time>
  <course>0.0</course>
  <speed>0.0</speed>
  <fix>3d</fix>
</trkpt>
<trkpt lat="33.810313" lon="-118.393867">
  <ele>0.0</ele>
  <time>2026-09-01T01:18:26Z</time>
  <course>178.3</course>
  <speed>0.0</speed>
  <fix>3d</fix>
</trkpt>
<trkpt lat="33.810313" lon="-118.393867">
  <ele>0.46</ele>
  <time>2026-09-01T01:18:26Z</time>
  <course>0.0</course>
  <speed>0.0</speed>
  <fix>3d</fix>
</trkpt>
<trkpt lat="33.810313" lon="-118.393867">
  <ele>0.0</ele>
  <time>2026-09-01T01:18:26Z</time>
  <course>178.71</course>
  <speed>0.0</speed>
  <fix>3d</fix>
</trkpt>
<trkpt lat="33.810313" lon="-118.393867">
  <ele>0.47</ele>
  <time>2026-09-01T01:18:26Z</time>
  <course>0.0</course>
  <speed>0.0</speed>
  <fix>3d</fix>
</trkpt>
<trkpt lat="33.810313" lon="-118.393867">
  <ele>0.0</ele>
  <time>2026-09-01T01:18:26Z</time>
  <course>179.11</course>
  <speed>0.0</speed>
  <fix>3d</fix>
</trkpt>
<trkpt lat="33.810313" lon="-118.393867">
  <ele>0.47</ele>
  <time>2026-09-01T01:18:26Z</time>
  <course>0.0</course>
  <speed>0.0</speed>
  <fix>3d</fix>
</trkpt>
<trkpt lat="33.810313" lon="-118.393867">
  <ele>0.0</ele>
  <time>2026-09-01T01:18:26Z</time>
  <course>179.5</course>
  <speed>0.0</speed>
  <fix>3d</fix>
</trkpt>
<trkpt lat="33.810313" lon="-118.393867">
  <ele>0.48</ele>
  <time>2026-09-01T01:18:26Z</time>
  <course>0.0</course>
  <speed>0.0</speed>
  <fix>3d</fix>
</trkpt>
<trkpt lat="33.810313" lon="-118.393867">
  <ele>0.0</ele>
  <time>2026-09-01T01:18:26Z</time>
  <course>179.87</course>
  <speed>0.0</speed>
  <fix>3d</fix>
</trkpt>
<trkpt lat="33.810313" lon="-118.393867">
  <ele>0.48</ele>
  <time>2026-09-01T01:18:26Z</time>
  <course>0.0</course>
  <speed>0.0</speed>
  <fix>3d</fix>
</trkpt>
<trkpt lat="33.810313" lon="-118.393867">
  <ele>0.0</ele>
  <time>2026-09-01T01:18:26Z</time>
  <course>180.25</course>
  <speed>0.0</speed>
  <fix>3d</fix>
</trkpt>
<trkpt lat="33.810313" lon="-118.393867">
  <ele>0.49</ele>
  <time>2026-09-01T01:18:26Z</time>
  <course>0.0</course>
  <speed>0.0</speed>
  <fix>3d</fix>
</trkpt>
<trkpt lat="33.810313" lon="-118.393867">
  <ele>0.0</ele>
  <time>2026-09-01T01:18:26Z</time>
  <course>180.59</course>
  <speed>0.0</speed>
  <fix>3d</fix>
</trkpt>
<trkpt lat="33.810313" lon="-118.393867">
  <ele>0.49</ele>
  <time>2026-09-01T01:18:26Z</time>
  <course>0.0</course>
  <speed>0.0</speed>
  <fix>3d</fix>
</trkpt>
<trkpt lat="33.810313" lon="-118.393867">
  <ele>0.0</ele>
  <time>2026-09-01T01:18:26Z</time>
  <course>180.93</course>
  <speed>0.0</speed>
  <fix>3d</fix>
</trkpt>
<trkpt lat="33.810313" lon="-118.393867">
  <ele>0.51</ele>
  <time>2026-09-01T01:18:26Z</time>
  <course>0.0</course>
  <speed>0.0</speed>
  <fix>3d</fix>
</trkpt>
<trkpt lat="33.810313" lon="-118.393867">
  <ele>0.0</ele>
  <time>2026-09-01T01:18:26Z</time>
  <course>181.26</course>
  <speed>0.0</speed>
  <fix>3d</fix>
</trkpt>
<trkpt lat="33.810313" lon="-118.393867">
  <ele>0.51</ele>
  <time>2026-09-01T01:18:26Z</time>
  <course>0.0</course>
  <speed>0.0</speed>
  <fix>3d</fix>
</trkpt>
<trkpt lat="33.810313" lon="-118.393867">
  <ele>0.0</ele>
  <time>2026-09-01T01:18:26Z</time>
  <course>181.57</course>
  <speed>0.0</speed>
  <fix>3d</fix>
</trkpt>
<trkpt lat="33.810313" lon="-118.393867">
  <ele>0.53</ele>
  <time>2026-09-01T01:18:26Z</time>
  <course>0.0</course>
  <speed>0.0</speed>
  <fix>3d</fix>
</trkpt>
<trkpt lat="33.810313" lon="-118.393867">
  <ele>0.0</ele>
  <time>2026-09-01T01:18:26Z</time>
  <course>181.87</course>
  <speed>0.0</speed>
  <fix>3d</fix>
</trkpt>
<trkpt lat="33.810313" lon="-118.393867">
  <ele>0.53</ele>
  <time>2026-09-01T01:18:26Z</time>
  <course>0.0</course>
  <speed>0.0</speed>
  <fix>3d</fix>
</trkpt>
<trkpt lat="33.810313" lon="-118.393867">
  <ele>0.0</ele>
  <time>2026-09-01T01:18:26Z</time>
  <course>182.16</course>
  <speed>0.0</speed>
  <fix>3d</fix>
</trkpt>
<trkpt lat="33.810313" lon="-118.393867">
  <ele>0.54</ele>
  <time>2026-09-01T01:18:26Z</time>
  <course>0.0</course>
  <speed>0.0</speed>
  <fix>3d</fix>
</trkpt>
<trkpt lat="33.810313" lon="-118.393867">
  <ele>0.0</ele>
  <time>2026-09-01T01:18:26Z</time>
  <course>182.44</course>
  <speed>0.0</speed>
  <fix>3d</fix>
</trkpt>
<trkpt lat="33.810313" lon="-118.393867">
  <ele>0.54</ele>
  <time>2026-09-01T01:18:26Z</time>
  <course>0.0</course>
  <speed>0.0</speed>
  <fix>3d</fix>
</trkpt>
<trkpt lat="33.810313" lon="-118.393867">
  <ele>0.0</ele>
  <time>2026-09-01T01:18:26Z</time>
  <course>182.71</course>
  <speed>0.0</speed>
  <fix>3d</fix>
</trkpt>
<trkpt lat="33.810313" lon="-118.393867">
  <ele>0.57</ele>
  <time>2026-09-01T01:18:26Z</time>
  <course>0.0</course>
  <speed>0.0</speed>
  <fix>3d</fix>
</trkpt>
<trkpt lat="33.810313" lon="-118.393867">
  <ele>0.0</ele>
  <time>2026-09-01T01:18:26Z</time>
  <course>182.97</course>
  <speed>0.0</speed>
  <fix>3d</fix>
</trkpt>
<trkpt lat="33.810313" lon="-118.393867">
  <ele>0.57</ele>
  <time>2026-09-01T01:18:26Z</time>
  <course>0.0</course>
  <speed>0.0</speed>
  <fix>3d</fix>
</trkpt>
<trkpt lat="33.810313" lon="-118.393867">
  <ele>0.0</ele>
  <time>2026-09-01T01:18:26Z</time>
  <course>183.22</course>
  <speed>0.0</speed>
  <fix>3d</fix>
</trkpt>
<trkpt lat="33.810313" lon="-118.393867">
  <ele>0.58</ele>
  <time>2026-09-01T01:18:26Z</time>
  <course>0.0</course>
  <speed>0.0</speed>
  <fix>3d</fix>
</trkpt>
<trkpt lat="33.810313" lon="-118.393867">
  <ele>0.0</ele>
  <time>2026-09-01T01:18:26Z</time>
  <course>183.46</course>
  <speed>0.0</speed>
  <fix>3d</fix>
</trkpt>
<trkpt lat="33.810313" lon="-118.393867">
  <ele>0.58</ele>
  <time>2026-09-01T01:18:26Z</time>
  <course>0.0</course>
  <speed>0.0</speed>
  <fix>3d</fix>
</trkpt>
<trkpt lat="33.810313" lon="-118.393867">
  <ele>0.0</ele>
  <time>2026-09-01T01:18:26Z</time>
  <course>183.69</course>
  <speed>0.0</speed>
  <fix>3d</fix>
</trkpt>
<trkpt lat="33.810313" lon="-118.393867">
  <ele>0.58</ele>
  <time>2026-09-01T01:18:26Z</time>
  <course>0.0</course>
  <speed>0.0</speed>
  <fix>3d</fix>
</trkpt>
<trkpt lat="33.810313" lon="-118.393867">
  <ele>0.0</ele>
  <time>2026-09-01T01:18:26Z</time>
  <course>183.91</course>
  <speed>0.0</speed>
  <fix>3d</fix>
</trkpt>
<trkpt lat="33.810313" lon="-118.393867">
  <ele>0.58</ele>
  <time>2026-09-01T01:18:26Z</time>
  <course>0.0</course>
  <speed>0.0</speed>
  <fix>3d</fix>
</trkpt>
<trkpt lat="33.810313" lon="-118.393867">
  <ele>0.0</ele>
  <time>2026-09-01T01:18:26Z</time>
  <course>184.12</course>
  <speed>0.0</speed>
  <fix>3d</fix>
</trkpt>
<trkpt lat="33.810313" lon="-118.393867">
  <ele>0.59</ele>
  <time>2026-09-01T01:18:26Z</time>
  <course>0.0</course>
  <speed>0.0</speed>
  <fix>3d</fix>
</trkpt>
<trkpt lat="33.810313" lon="-118.393867">
  <ele>0.0</ele>
  <time>2026-09-01T01:18:26Z</time>
  <course>184.33</course>
  <speed>0.0</speed>
  <fix>3d</fix>
</trkpt>
<trkpt lat="33.810313" lon="-118.393867">
  <ele>0.59</ele>
  <time>2026-09-01T01:18:26Z</time>
  <course>0.0</course>
  <speed>0.0</speed>
  <fix>3d</fix>
</trkpt>
<trkpt lat="33.810313" lon="-118.393867">
  <ele>0.0</ele>
  <time>2026-09-01T01:18:26Z</time>
  <course>184.52</course>
  <speed>0.0</speed>
  <fix>3d</fix>
</trkpt>
<trkpt lat="33.810313" lon="-118.393867">
  <ele>0.59</ele>
  <time>2026-09-01T01:18:26Z</time>
  <course>0.0</course>
  <speed>0.0</speed>
  <fix>3d</fix>
</trkpt>
<trkpt lat="33.810313" lon="-118.393867">
  <ele>0.0</ele>
  <time>2026-09-01T01:18:26Z</time>
  <course>184.71</course>
  <speed>0.0</speed>
  <fix>3d</fix>
</trkpt>
<trkpt lat="33.810313" lon="-118.393867">
  <ele>0.59</ele>
  <time>2026-09-01T01:18:26Z</time>
  <course>0.0</course>
  <speed>0.0</speed>
  <fix>3d</fix>
</trkpt>
<trkpt lat="33.810313" lon="-118.393867">
  <ele>0.0</ele>
  <time>2026-09-01T01:18:26Z</time>
  <course>184.89</course>
  <speed>0.0</speed>
  <fix>3d</fix>
</trkpt>
<trkpt lat="33.810313" lon="-118.393867">
  <ele>0.6</ele>
  <time>2026-09-01T01:18:26Z</time>
  <course>0.0</course>
  <speed>0.0</speed>
  <fix>3d</fix>
</trkpt>
<trkpt lat="33.810313" lon="-118.393867">
  <ele>0.0</ele>
  <time>2026-09-01T01:18:26Z</time>
  <course>185.06</course>
  <speed>0.0</speed>
  <fix>3d</fix>
</trkpt>
<trkpt lat="33.810313" lon="-118.393867">
  <ele>0.6</ele>
  <time>2026-09-01T01:18:26Z</time>
  <course>0.0</course>
  <speed>0.0</speed>
  <fix>3d</fix>
</trkpt>
<trkpt lat="33.810313" lon="-118.393867">
  <ele>0.0</ele>
  <time>2026-09-01T01:18:26Z</time>
  <course>185.23</course>
  <speed>0.0</speed>
  <fix>3d</fix>
</trkpt>
<trkpt lat="33.810313" lon="-118.393867">
  <ele>0.62</ele>
  <time>2026-09-01T01:18:26Z</time>
  <course>0.0</course>
  <speed>0.0</speed>
  <fix>3d</fix>
</trkpt>
<trkpt lat="33.810313" lon="-118.393867">
  <ele>0.0</ele>
  <time>2026-09-01T01:18:26Z</time>
  <course>185.39</course>
  <speed>0.0</speed>
  <fix>3d</fix>
</trkpt>
<trkpt lat="33.810313" lon="-118.393867">
  <ele>0.62</ele>
  <time>2026-09-01T01:18:26Z</time>
  <course>0.0</course>
  <speed>0.0</speed>
  <fix>3d</fix>
</trkpt>
<trkpt lat="33.810313" lon="-118.393867">
  <ele>0.0</ele>
  <time>2026-09-01T01:18:26Z</time>
  <course>185.54</course>
  <speed>0.0</speed>
  <fix>3d</fix>
</trkpt>
<trkpt lat="33.810313" lon="-118.393867">
  <ele>0.63</ele>
  <time>2026-09-01T01:18:26Z</time>
  <course>0.0</course>
  <speed>0.0</speed>
  <fix>3d</fix>
</trkpt>
<trkpt lat="33.810313" lon="-118.393867">
  <ele>0.0</ele>
  <time>2026-09-01T01:18:26Z</time>
  <course>185.69</course>
  <speed>0.0</speed>
  <fix>3d</fix>
</trkpt>
<trkpt lat="33.810313" lon="-118.393867">
  <ele>0.63</ele>
  <time>2026-09-01T01:18:26Z</time>
  <course>0.0</course>
  <speed>0.0</speed>
  <fix>3d</fix>
</trkpt>
<trkpt lat="33.810313" lon="-118.393867">
  <ele>0.0</ele>
  <time>2026-09-01T01:18:26Z</time>
  <course>185.83</course>
  <speed>0.0</speed>
  <fix>3d</fix>
</trkpt>
<trkpt lat="33.810313" lon="-118.393867">
  <ele>0.65</ele>
  <time>2026-09-01T01:18:26Z</time>
  <course>0.0</course>
  <speed>0.0</speed>
  <fix>3d</fix>
</trkpt>
<trkpt lat="33.810313" lon="-118.393867">
  <ele>0.0</ele>
  <time>2026-09-01T01:18:26Z</time>
  <course>185.97</course>
  <speed>0.0</speed>
  <fix>3d</fix>
</trkpt>
<trkpt lat="33.810313" lon="-118.393867">
  <ele>0.65</ele>
  <time>2026-09-01T01:18:26Z</time>
  <course>0.0</course>
  <speed>0.0</speed>
  <fix>3d</fix>
</trkpt>
<trkpt lat="33.810313" lon="-118.393867">
  <ele>0.0</ele>
  <time>2026-09-01T01:18:26Z</time>
  <course>186.09</course>
  <speed>0.0</speed>
  <fix>3d</fix>
</trkpt>
<trkpt lat="33.810313" lon="-118.393867">
  <ele>0.67</ele>
  <time>2026-09-01T01:18:26Z</time>
  <course>0.0</course>
  <speed>0.0</speed>
  <fix>3d</fix>
</trkpt>
<trkpt lat="33.810313" lon="-118.393867">
  <ele>0.0</ele>
  <time>2026-09-01T01:18:26Z</time>
  <course>186.22</course>
  <speed>0.0</speed>
  <fix>3d</fix>
</trkpt>
<trkpt lat="33.810313" lon="-118.393867">
  <ele>0.67</ele>
  <time>2026-09-01T01:18:26Z</time>
  <course>0.0</course>
  <speed>0.0</speed>
  <fix>3d</fix>
</trkpt>
<trkpt lat="33.810313" lon="-118.393867">
  <ele>0.0</ele>
  <time>2026-09-01T01:18:26Z</time>
  <course>186.34</course>
  <speed>0.0</speed>
  <fix>3d</fix>
</trkpt>
<trkpt lat="33.810313" lon="-118.393867">
  <ele>0.68</ele>
  <time>2026-09-01T01:18:26Z</time>
  <course>0.0</course>
  <speed>0.0</speed>
  <fix>3d</fix>
</trkpt>
<trkpt lat="33.810313" lon="-118.393867">
  <ele>0.0</ele>
  <time>2026-09-01T01:18:26Z</time>
  <course>186.45</course>
  <speed>0.0</speed>
  <fix>3d</fix>
</trkpt>
<trkpt lat="33.810313" lon="-118.393867">
  <ele>0.68</ele>
  <time>2026-09-01T01:18:26Z</time>
  <course>0.0</course>
  <speed>0.0</speed>
  <fix>3d</fix>
</trkpt>
<trkpt lat="33.810313" lon="-118.393867">
  <ele>0.0</ele>
  <time>2026-09-01T01:18:26Z</time>
  <course>186.56</course>
  <speed>0.0</speed>
  <fix>3d</fix>
</trkpt>
<trkpt lat="33.810313" lon="-118.393867">
  <ele>0.69</ele>
  <time>2026-09-01T01:18:26Z</time>
  <course>0.0</course>
  <speed>0.0</speed>
  <fix>3d</fix>
</trkpt>
<trkpt lat="33.810313" lon="-118.393867">
  <ele>0.0</ele>
  <time>2026-09-01T01:18:26Z</time>
  <course>186.66</course>
  <speed>0.0</speed>
  <fix>3d</fix>
</trkpt>
<trkpt lat="33.810313" lon="-118.393867">
  <ele>0.69</ele>
  <time>2026-09-01T01:18:26Z</time>
  <course>0.0</course>
  <speed>0.0</speed>
  <fix>3d</fix>
</trkpt>
<trkpt lat="33.810313" lon="-118.393867">
  <ele>0.0</ele>
  <time>2026-09-01T01:18:26Z</time>
  <course>186.76</course>
  <speed>0.0</speed>
  <fix>3d</fix>
</trkpt>
<trkpt lat="33.810313" lon="-118.393867">
  <ele>0.7</ele>
  <time>2026-09-01T01:18:26Z</time>
  <course>0.0</course>
  <speed>0.0</speed>
  <fix>3d</fix>
</trkpt>
<trkpt lat="33.810313" lon="-118.393867">
  <ele>0.0</ele>
  <time>2026-09-01T01:18:26Z</time>
  <course>186.86</course>
  <speed>0.0</speed>
  <fix>3d</fix>
</trkpt>
<trkpt lat="33.810313" lon="-118.393867">
  <ele>0.7</ele>
  <time>2026-09-01T01:18:26Z</time>
  <course>0.0</course>
  <speed>0.0</speed>
  <fix>3d</fix>
</trkpt>
<trkpt lat="33.810313" lon="-118.393867">
  <ele>0.0</ele>
  <time>2026-09-01T01:18:26Z</time>
  <course>186.95</course>
  <speed>0.0</speed>
  <fix>3d</fix>
</trkpt>
<trkpt lat="33.810313" lon="-118.393867">
  <ele>0.7</ele>
  <time>2026-09-01T01:18:26Z</time>
  <course>0.0</course>
  <speed>0.0</speed>
  <fix>3d</fix>
</trkpt>
<trkpt lat="33.810313" lon="-118.393867">
  <ele>0.0</ele>
  <time>2026-09-01T01:18:26Z</time>
  <course>187.04</course>
  <speed>0.0</speed>
  <fix>3d</fix>
</trkpt>
<trkpt lat="33.810313" lon="-118.393867">
  <ele>0.7</ele>
  <time>2026-09-01T01:18:26Z</time>
  <course>0.0</course>
  <speed>0.0</speed>
  <fix>3d</fix>
</trkpt>
<trkpt lat="33.810313" lon="-118.393867">
  <ele>0.0</ele>
  <time>2026-09-01T01:18:26Z</time>
  <course>187.12</course>
  <speed>0.0</speed>
  <fix>3d</fix>
</trkpt>
<trkpt lat="33.810313" lon="-118.393867">
  <ele>0.71</ele>
  <time>2026-09-01T01:18:26Z</time>
  <course>0.0</course>
  <speed>0.0</speed>
  <fix>3d</fix>
</trkpt>
<trkpt lat="33.810313" lon="-118.393867">
  <ele>0.0</ele>
  <time>2026-09-01T01:18:26Z</time>
  <course>187.2</course>
  <speed>0.0</speed>
  <fix>3d</fix>
</trkpt>
<trkpt lat="33.810313" lon="-118.393867">
  <ele>0.71</ele>
  <time>2026-09-01T01:18:26Z</time>
  <course>0.0</course>
  <speed>0.0</speed>
  <fix>3d</fix>
</trkpt>
<trkpt lat="33.810313" lon="-118.393867">
  <ele>0.0</ele>
  <time>2026-09-01T01:18:26Z</time>
  <course>187.27</course>
  <speed>0.0</speed>
  <fix>3d</fix>
</trkpt>
<trkpt lat="33.810313" lon="-118.393867">
  <ele>0.72</ele>
  <time>2026-09-01T01:18:26Z</time>
  <course>0.0</course>
  <speed>0.0</speed>
  <fix>3d</fix>
</trkpt>
<trkpt lat="33.810313" lon="-118.393867">
  <ele>0.0</ele>
  <time>2026-09-01T01:18:26Z</time>
  <course>187.35</course>
  <speed>0.0</speed>
  <fix>3d</fix>
</trkpt>
<trkpt lat="33.810313" lon="-118.393867">
  <ele>0.72</ele>
  <time>2026-09-01T01:18:26Z</time>
  <course>0.0</course>
  <speed>0.0</speed>
  <fix>3d</fix>
</trkpt>
<trkpt lat="33.810313" lon="-118.393867">
  <ele>0.0</ele>
  <time>2026-09-01T01:18:26Z</time>
  <course>187.42</course>
  <speed>0.0</speed>
  <fix>3d</fix>
</trkpt>
<trkpt lat="33.810313" lon="-118.393867">
  <ele>0.74</ele>
  <time>2026-09-01T01:18:26Z</time>
  <course>0.0</course>
  <speed>0.0</speed>
  <fix>3d</fix>
</trkpt>
<trkpt lat="33.810313" lon="-118.393867">
  <ele>0.0</ele>
  <time>2026-09-01T01:18:26Z</time>
  <course>187.48</course>
  <speed>0.0</speed>
  <fix>3d</fix>
</trkpt>
<trkpt lat="33.810313" lon="-118.393867">
  <ele>0.74</ele>
  <time>2026-09-01T01:18:26Z</time>
  <course>0.0</course>
  <speed>0.0</speed>
  <fix>3d</fix>
</trkpt>
<trkpt lat="33.810313" lon="-118.393867">
  <ele>0.0</ele>
  <time>2026-09-01T01:18:26Z</time>
  <course>187.55</course>
  <speed>0.0</speed>
  <fix>3d</fix>
</trkpt>
<trkpt lat="33.810313" lon="-118.393867">
  <ele>0.75</ele>
  <time>2026-09-01T01:18:26Z</time>
  <course>0.0</course>
  <speed>0.0</speed>
  <fix>3d</fix>
</trkpt>
<trkpt lat="33.810313" lon="-118.393867">
  <ele>0.0</ele>
  <time>2026-09-01T01:18:26Z</time>
  <course>187.61</course>
  <speed>0.0</speed>
  <fix>3d</fix>
</trkpt>
<trkpt lat="33.810313" lon="-118.393867">
  <ele>0.75</ele>
  <time>2026-09-01T01:18:26Z</time>
  <course>0.0</course>
  <speed>0.0</speed>
  <fix>3d</fix>
</trkpt>
<trkpt lat="33.810313" lon="-118.393867">
  <ele>0.0</ele>
  <time>2026-09-01T01:18:26Z</time>
  <course>187.67</course>
  <speed>0.0</speed>
  <fix>3d</fix>
</trkpt>
<trkpt lat="33.810313" lon="-118.393867">
  <ele>0.77</ele>
  <time>2026-09-01T01:18:26Z</time>
  <course>0.0</course>
  <speed>0.0</speed>
  <fix>3d</fix>
</trkpt>
<trkpt lat="33.810313" lon="-118.393867">
  <ele>0.0</ele>
  <time>2026-09-01T01:18:26Z</time>
  <course>187.72</course>
  <speed>0.0</speed>
  <fix>3d</fix>
</trkpt>
<trkpt lat="33.810313" lon="-118.393867">
  <ele>0.77</ele>
  <time>2026-09-01T01:18:26Z</time>
  <course>0.0</course>
  <speed>0.0</speed>
  <fix>3d</fix>
</trkpt>
<trkpt lat="33.810313" lon="-118.393867">
  <ele>0.0</ele>
  <time>2026-09-01T01:18:26Z</time>
  <course>187.77</course>
  <speed>0.0</speed>
  <fix>3d</fix>
</trkpt>
<trkpt lat="33.810313" lon="-118.393867">
  <ele>0.78</ele>
  <time>2026-09-01T01:18:26Z</time>
  <course>0.0</course>
  <speed>0.0</speed>
  <fix>3d</fix>
</trkpt>
<trkpt lat="33.810313" lon="-118.393867">
  <ele>0.0</ele>
  <time>2026-09-01T01:18:26Z</time>
  <course>187.82</course>
  <speed>0.0</speed>
  <fix>3d</fix>
</trkpt>
<trkpt lat="33.810313" lon="-118.393867">
  <ele>0.78</ele>
  <time>2026-09-01T01:18:26Z</time>
  <course>0.0</course>
  <speed>0.0</speed>
  <fix>3d</fix>
</trkpt>
<trkpt lat="33.810313" lon="-118.393867">
  <ele>0.0</ele>
  <time>2026-09-01T01:18:26Z</time>
  <course>187.87</course>
  <speed>0.0</speed>
  <fix>3d</fix>
</trkpt>
<trkpt lat="33.810313" lon="-118.393867">
  <ele>0.79</ele>
  <time>2026-09-01T01:18:26Z</time>
  <course>0.0</course>
  <speed>0.0</speed>
  <fix>3d</fix>
</trkpt>
<trkpt lat="33.810313" lon="-118.393867">
  <ele>0.0</ele>
  <time>2026-09-01T01:18:26Z</time>
  <course>187.92</course>
  <speed>0.0</speed>
  <fix>3d</fix>
</trkpt>
<trkpt lat="33.810313" lon="-118.393867">
  <ele>0.79</ele>
  <time>2026-09-01T01:18:26Z</time>
  <course>0.0</course>
  <speed>0.0</speed>
  <fix>3d</fix>
</trkpt>
<trkpt lat="33.810313" lon="-118.393867">
  <ele>0.0</ele>
  <time>2026-09-01T01:18:26Z</time>
  <course>187.96</course>
  <speed>0.0</speed>
  <fix>3d</fix>
</trkpt>
<trkpt lat="33.810313" lon="-118.393867">
  <ele>0.8</ele>
  <time>2026-09-01T01:18:26Z</time>
  <course>0.0</course>
  <speed>0.0</speed>
  <fix>3d</fix>
</trkpt>
<trkpt lat="33.810313" lon="-118.393867">
  <ele>0.0</ele>
  <time>2026-09-01T01:18:26Z</time>
  <course>188.0</course>
  <speed>0.0</speed>
  <fix>3d</fix>
</trkpt>
<trkpt lat="33.810313" lon="-118.393867">
  <ele>0.8</ele>
  <time>2026-09-01T01:18:26Z</time>
  <course>0.0</course>
  <speed>0.0</speed>
  <fix>3d</fix>
</trkpt>
<trkpt lat="33.810313" lon="-118.393867">
  <ele>0.0</ele>
  <time>2026-09-01T01:18:26Z</time>
  <course>188.04</course>
  <speed>0.0</speed>
  <fix>3d</fix>
</trkpt>
<trkpt lat="33.810313" lon="-118.393867">
  <ele>0.81</ele>
  <time>2026-09-01T01:18:26Z</time>
  <course>0.0</course>
  <speed>0.0</speed>
  <fix>3d</fix>
</trkpt>
<trkpt lat="33.810313" lon="-118.393867">
  <ele>0.0</ele>
  <time>2026-09-01T01:18:26Z</time>
  <course>188.08</course>
  <speed>0.0</speed>
  <fix>3d</fix>
</trkpt>
<trkpt lat="33.810313" lon="-118.393867">
  <ele>0.81</ele>
  <time>2026-09-01T01:18:26Z</time>
  <course>0.0</course>
  <speed>0.0</speed>
  <fix>3d</fix>
</trkpt>
<trkpt lat="33.810313" lon="-118.393867">
  <ele>0.0</ele>
  <time>2026-09-01T01:18:26Z</time>
  <course>188.12</course>
  <speed>0.0</speed>
  <fix>3d</fix>
</trkpt>
<trkpt lat="33.810313" lon="-118.393867">
  <ele>0.82</ele>
  <time>2026-09-01T01:18:26Z</time>
  <course>0.0</course>
  <speed>0.0</speed>
  <fix>3d</fix>
</trkpt>
<trkpt lat="33.810313" lon="-118.393867">
  <ele>0.0</ele>
  <time>2026-09-01T01:18:26Z</time>
  <course>188.15</course>
  <speed>0.0</speed>
  <fix>3d</fix>
</trkpt>
<trkpt lat="33.810313" lon="-118.393867">
  <ele>0.82</ele>
  <time>2026-09-01T01:18:26Z</time>
  <course>0.0</course>
  <speed>0.0</speed>
  <fix>3d</fix>
</trkpt>
<trkpt lat="33.810313" lon="-118.393867">
  <ele>0.0</ele>
  <time>2026-09-01T01:18:26Z</time>
  <course>188.18</course>
  <speed>0.0</speed>
  <fix>3d</fix>
</trkpt>
<trkpt lat="33.810313" lon="-118.393867">
  <ele>0.83</ele>
  <time>2026-09-01T01:18:26Z</time>
  <course>0.0</course>
  <speed>0.0</speed>
  <fix>3d</fix>
</trkpt>
<trkpt lat="33.810313" lon="-118.393867">
  <ele>0.0</ele>
  <time>2026-09-01T01:18:26Z</time>
  <course>188.21</course>
  <speed>0.0</speed>
  <fix>3d</fix>
</trkpt>
<trkpt lat="33.810313" lon="-118.393867">
  <ele>0.83</ele>
  <time>2026-09-01T01:18:26Z</time>
  <course>0.0</course>
  <speed>0.0</speed>
  <fix>3d</fix>
</trkpt>
<trkpt lat="33.810313" lon="-118.393867">
  <ele>0.0</ele>
  <time>2026-09-01T01:18:26Z</time>
  <course>188.24</course>
  <speed>0.0</speed>
  <fix>3d</fix>
</trkpt>
<trkpt lat="33.810313" lon="-118.393867">
  <ele>0.84</ele>
  <time>2026-09-01T01:18:26Z</time>
  <course>0.0</course>
  <speed>0.0</speed>
  <fix>3d</fix>
</trkpt>
<trkpt lat="33.810313" lon="-118.393867">
  <ele>0.0</ele>
  <time>2026-09-01T01:18:26Z</time>
  <course>188.27</course>
  <speed>0.0</speed>
  <fix>3d</fix>
</trkpt>
<trkpt lat="33.810313" lon="-118.393867">
  <ele>0.84</ele>
  <time>2026-09-01T01:18:26Z</time>
  <course>0.0</course>
  <speed>0.0</speed>
  <fix>3d</fix>
</trkpt>
<trkpt lat="33.810313" lon="-118.393867">
  <ele>0.0</ele>
  <time>2026-09-01T01:18:26Z</time>
  <course>188.3</course>
  <speed>0.0</speed>
  <fix>3d</fix>
</trkpt>
<trkpt lat="33.810313" lon="-118.393867">
  <ele>0.86</ele>
  <time>2026-09-01T01:18:26Z</time>
  <course>0.0</course>
  <speed>0.0</speed>
  <fix>3d</fix>
</trkpt>
<trkpt lat="33.810313" lon="-118.393867">
  <ele>0.0</ele>
  <time>2026-09-01T01:18:26Z</time>
  <course>188.32</course>
  <speed>0.0</speed>
  <fix>3d</fix>
</trkpt>
<trkpt lat="33.810313" lon="-118.393867">
  <ele>0.86</ele>
  <time>2026-09-01T01:18:26Z</time>
  <course>0.0</course>
  <speed>0.0</speed>
  <fix>3d</fix>
</trkpt>
<trkpt lat="33.810313" lon="-118.393867">
  <ele>0.0</ele>
  <time>2026-09-01T01:18:26Z</time>
  <course>188.35</course>
  <speed>0.0</speed>
  <fix>3d</fix>
</trkpt>
<trkpt lat="33.810313" lon="-118.393867">
  <ele>0.87</ele>
  <time>2026-09-01T01:18:26Z</time>
  <course>0.0</course>
  <speed>0.0</speed>
  <fix>3d</fix>
</trkpt>
<trkpt lat="33.810313" lon="-118.393867">
  <ele>0.0</ele>
  <time>2026-09-01T01:18:26Z</time>
  <course>188.37</course>
  <speed>0.0</speed>
  <fix>3d</fix>
</trkpt>
<trkpt lat="33.810313" lon="-118.393867">
  <ele>0.87</ele>
  <time>2026-09-01T01:18:26Z</time>
  <course>0.0</course>
  <speed>0.0</speed>
  <fix>3d</fix>
</trkpt>
<trkpt lat="33.810313" lon="-118.393867">
  <ele>0.0</ele>
  <time>2026-09-01T01:18:26Z</time>
  <course>188.4</course>
  <speed>0.0</speed>
  <fix>3d</fix>
</trkpt>
<trkpt lat="33.810313" lon="-118.393867">
  <ele>0.88</ele>
  <time>2026-09-01T01:18:26Z</time>
  <course>0.0</course>
  <speed>0.0</speed>
  <fix>3d</fix>
</trkpt>
<trkpt lat="33.810313" lon="-118.393867">
  <ele>0.0</ele>
  <time>2026-09-01T01:18:26Z</time>
  <course>188.42</course>
  <speed>0.0</speed>
  <fix>3d</fix>
</trkpt>
<trkpt lat="33.810313" lon="-118.393867">
  <ele>0.88</ele>
  <time>2026-09-01T01:18:26Z</time>
  <course>0.0</course>
  <speed>0.0</speed>
  <fix>3d</fix>
</trkpt>
<trkpt lat="33.810313" lon="-118.393867">
  <ele>0.0</ele>
  <time>2026-09-01T01:18:26Z</time>
  <course>188.45</course>
  <speed>0.0</speed>
  <fix>3d</fix>
</trkpt>
<trkpt lat="33.810313" lon="-118.393867">
  <ele>0.89</ele>
  <time>2026-09-01T01:18:26Z</time>
  <course>0.0</course>
  <speed>0.0</speed>
  <fix>3d</fix>
</trkpt>
<trkpt lat="33.810313" lon="-118.393867">
  <ele>0.0</ele>
  <time>2026-09-01T01:18:26Z</time>
  <course>188.46</course>
  <speed>0.0</speed>
  <fix>3d</fix>
</trkpt>
<trkpt lat="33.810313" lon="-118.393867">
  <ele>0.89</ele>
  <time>2026-09-01T01:18:26Z</time>
  <course>0.0</course>
  <speed>0.0</speed>
  <fix>3d</fix>
</trkpt>
<trkpt lat="33.810313" lon="-118.393867">
  <ele>0.0</ele>
  <time>2026-09-01T01:18:26Z</time>
  <course>188.48</course>
  <speed>0.0</speed>
  <fix>3d</fix>
</trkpt>
<trkpt lat="33.810313" lon="-118.393867">
  <ele>0.9</ele>
  <time>2026-09-01T01:18:26Z</time>
  <course>0.0</course>
  <speed>0.0</speed>
  <fix>3d</fix>
</trkpt>
<trkpt lat="33.810313" lon="-118.393867">
  <ele>0.0</ele>
  <time>2026-09-01T01:18:26Z</time>
  <course>188.5</course>
  <speed>0.0</speed>
  <fix>3d</fix>
</trkpt>
<trkpt lat="33.810313" lon="-118.393867">
  <ele>0.9</ele>
  <time>2026-09-01T01:18:26Z</time>
  <course>0.0</course>
  <speed>0.0</speed>
  <fix>3d</fix>
</trkpt>
<trkpt lat="33.810313" lon="-118.393867">
  <ele>0.0</ele>
  <time>2026-09-01T01:18:26Z</time>
  <course>188.51</course>
  <speed>0.0</speed>
  <fix>3d</fix>
</trkpt>
<trkpt lat="33.810313" lon="-118.393867">
  <ele>0.91</ele>
  <time>2026-09-01T01:18:26Z</time>
  <course>0.0</course>
  <speed>0.0</speed>
  <fix>3d</fix>
</trkpt>
<trkpt lat="33.810313" lon="-118.393867">
  <ele>0.0</ele>
  <time>2026-09-01T01:18:26Z</time>
  <course>188.52</course>
  <speed>0.0</speed>
  <fix>3d</fix>
</trkpt>
<trkpt lat="33.810313" lon="-118.393867">
  <ele>0.91</ele>
  <time>2026-09-01T01:18:26Z</time>
  <course>0.0</course>
  <speed>0.0</speed>
  <fix>3d</fix>
</trkpt>
<trkpt lat="33.810313" lon="-118.393867">
  <ele>0.0</ele>
  <time>2026-09-01T01:18:26Z</time>
  <course>188.54</course>
  <speed>0.0</speed>
  <fix>3d</fix>
</trkpt>
<trkpt lat="33.810313" lon="-118.393867">
  <ele>0.92</ele>
  <time>2026-09-01T01:18:26Z</time>
  <course>0.0</course>
  <speed>0.0</speed>
  <fix>3d</fix>
</trkpt>
<trkpt lat="33.810313" lon="-118.393867">
  <ele>0.0</ele>
  <time>2026-09-01T01:18:26Z</time>
  <course>188.55</course>
  <speed>0.0</speed>
  <fix>3d</fix>
</trkpt>
<trkpt lat="33.810313" lon="-118.393867">
  <ele>0.92</ele>
  <time>2026-09-01T01:18:26Z</time>
  <course>0.0</course>
  <speed>0.0</speed>
  <fix>3d</fix>
</trkpt>
<trkpt lat="33.810313" lon="-118.393867">
  <ele>0.0</ele>
  <time>2026-09-01T01:18:26Z</time>
  <course>188.56</course>
  <speed>0.0</speed>
  <fix>3d</fix>
</trkpt>
<trkpt lat="33.810313" lon="-118.393867">
  <ele>0.93</ele>
  <time>2026-09-01T01:18:26Z</time>
  <course>0.0</course>
  <speed>0.0</speed>
  <fix>3d</fix>
</trkpt>
<trkpt lat="33.810313" lon="-118.393867">
  <ele>0.0</ele>
  <time>2026-09-01T01:18:26Z</time>
  <course>188.57</course>
  <speed>0.0</speed>
  <fix>3d</fix>
</trkpt>
<trkpt lat="33.810313" lon="-118.393867">
  <ele>0.93</ele>
  <time>2026-09-01T01:18:26Z</time>
  <course>0.0</course>
  <speed>0.0</speed>
  <fix>3d</fix>
</trkpt>
<trkpt lat="33.810313" lon="-118.393867">
  <ele>0.0</ele>
  <time>2026-09-01T01:18:26Z</time>
  <course>188.58</course>
  <speed>0.0</speed>
  <fix>3d</fix>
</trkpt>
<trkpt lat="33.810313" lon="-118.393867">
  <ele>0.95</ele>
  <time>2026-09-01T01:18:26Z</time>
  <course>0.0</course>
  <speed>0.0</speed>
  <fix>3d</fix>
</trkpt>
<trkpt lat="33.810313" lon="-118.393867">
  <ele>0.0</ele>
  <time>2026-09-01T01:18:26Z</time>
  <course>188.59</course>
  <speed>0.0</speed>
  <fix>3d</fix>
</trkpt>
<trkpt lat="33.810313" lon="-118.393867">
  <ele>0.95</ele>
  <time>2026-09-01T01:18:26Z</time>
  <course>0.0</course>
  <speed>0.0</speed>
  <fix>3d</fix>
</trkpt>
<trkpt lat="33.810313" lon="-118.393867">
  <ele>0.0</ele>
  <time>2026-09-01T01:18:26Z</time>
  <course>188.6</course>
  <speed>0.0</speed>
  <fix>3d</fix>
</trkpt>
<trkpt lat="33.810313" lon="-118.393867">
  <ele>0.96</ele>
  <time>2026-09-01T01:18:26Z</time>
  <course>0.0</course>
  <speed>0.0</speed>
  <fix>3d</fix>
</trkpt>
<trkpt lat="33.810313" lon="-118.393867">
  <ele>0.0</ele>
  <time>2026-09-01T01:18:26Z</time>
  <course>188.61</course>
  <speed>0.0</speed>
  <fix>3d</fix>
</trkpt>
<trkpt lat="33.810313" lon="-118.393867">
  <ele>0.96</ele>
  <time>2026-09-01T01:18:26Z</time>
  <course>0.0</course>
  <speed>0.0</speed>
  <fix>3d</fix>
</trkpt>
<trkpt lat="33.810313" lon="-118.393867">
  <ele>0.0</ele>
  <time>2026-09-01T01:18:26Z</time>
  <course>188.61</course>
  <speed>0.0</speed>
  <fix>3d</fix>
</trkpt>
<trkpt lat="33.810313" lon="-118.393867">
  <ele>0.97</ele>
  <time>2026-09-01T01:18:26Z</time>
  <course>0.0</course>
  <speed>0.0</speed>
  <fix>3d</fix>
</trkpt>
<trkpt lat="33.810313" lon="-118.393867">
  <ele>0.0</ele>
  <time>2026-09-01T01:18:26Z</time>
  <course>188.62</course>
  <speed>0.0</speed>
  <fix>3d</fix>
</trkpt>
<trkpt lat="33.810313" lon="-118.393867">
  <ele>0.97</ele>
  <time>2026-09-01T01:18:26Z</time>
  <course>0.0</course>
  <speed>0.0</speed>
  <fix>3d</fix>
</trkpt>
<trkpt lat="33.810313" lon="-118.393867">
  <ele>0.0</ele>
  <time>2026-09-01T01:18:26Z</time>
  <course>188.63</course>
  <speed>0.0</speed>
  <fix>3d</fix>
</trkpt>
<trkpt lat="33.810313" lon="-118.393867">
  <ele>0.98</ele>
  <time>2026-09-01T01:18:26Z</time>
  <course>0.0</course>
  <speed>0.0</speed>
  <fix>3d</fix>
</trkpt>
<trkpt lat="33.810313" lon="-118.393867">
  <ele>0.0</ele>
  <time>2026-09-01T01:18:26Z</time>
  <course>188.63</course>
  <speed>0.0</speed>
  <fix>3d</fix>
</trkpt>
<trkpt lat="33.810313" lon="-118.393867">
  <ele>0.98</ele>
  <time>2026-09-01T01:18:26Z</time>
  <course>0.0</course>
  <speed>0.0</speed>
  <fix>3d</fix>
</trkpt>
<trkpt lat="33.810313" lon="-118.393867">
  <ele>0.0</ele>
  <time>2026-09-01T01:18:26Z</time>
  <course>188.64</course>
  <speed>0.0</speed>
  <fix>3d</fix>
</trkpt>
<trkpt lat="33.810313" lon="-118.393867">
  <ele>0.99</ele>
  <time>2026-09-01T01:18:26Z</time>
  <course>0.0</course>
  <speed>0.0</speed>
  <fix>3d</fix>
</trkpt>
<trkpt lat="33.810313" lon="-118.393867">
  <ele>0.0</ele>
  <time>2026-09-01T01:18:26Z</time>
  <course>188.64</course>
  <speed>0.0</speed>
  <fix>3d</fix>
</trkpt>
<trkpt lat="33.810313" lon="-118.393867">
  <ele>0.99</ele>
  <time>2026-09-01T01:18:26Z</time>
  <course>0.0</course>
  <speed>0.0</speed>
  <fix>3d</fix>
</trkpt>
<trkpt lat="33.8103131" lon="-118.3938671">
  <ele>0.996</ele>
  <time>2026-09-01T01:18:26Z</time>
  <course>188.65</course>
  <speed>0.0</speed>
  <fix>3d</fix>
</trkpt>
<trkpt lat="33.810313" lon="-118.393867">
  <ele>1.0</ele>
  <time>2026-09-01T01:18:26Z</time>
  <course>0.0</course>
  <speed>0.0</speed>
  <fix>3d</fix>
</trkpt>
<trkpt lat="33.8103131" lon="-118.3938671">
  <ele>0.999</ele>
  <time>2026-09-01T01:18:26Z</time>
  <course>188.65</course>
  <speed>0.0</speed>
  <fix>3d</fix>
</trkpt>
<trkpt lat="33.810313" lon="-118.393867">
  <ele>1.0</ele>
  <time>2026-09-01T01:18:26Z</time>
  <course>0.0</course>
  <speed>0.0</speed>
  <fix>3d</fix>
</trkpt>
<trkpt lat="33.8103131" lon="-118.3938671">
  <ele>1.002</ele>
  <time>2026-09-01T01:18:26Z</time>
  <course>188.65</course>
  <speed>0.0</speed>
  <fix>3d</fix>
</trkpt>
<trkpt lat="33.810313" lon="-118.393867">
  <ele>1.01</ele>
  <time>2026-09-01T01:18:26Z</time>
  <course>0.0</course>
  <speed>0.0</speed>
  <fix>3d</fix>
</trkpt>
<trkpt lat="33.8103131" lon="-118.3938671">
  <ele>1.006</ele>
  <time>2026-09-01T01:18:26Z</time>
  <course>188.66</course>
  <speed>0.0</speed>
  <fix>3d</fix>
</trkpt>
<trkpt lat="33.810313" lon="-118.393867">
  <ele>1.01</ele>
  <time>2026-09-01T01:18:26Z</time>
  <course>0.0</course>
  <speed>0.0</speed>
  <fix>3d</fix>
</trkpt>
<trkpt lat="33.8103131" lon="-118.3938672">
  <ele>1.009</ele>
  <time>2026-09-01T01:18:26Z</time>
  <course>188.66</course>
  <speed>0.0</speed>
  <fix>3d</fix>
</trkpt>
<trkpt lat="33.810313" lon="-118.393867">
  <ele>1.03</ele>
  <time>2026-09-01T01:18:26Z</time>
  <course>0.0</course>
  <speed>0.0</speed>
  <fix>3d</fix>
</trkpt>
<trkpt lat="33.8103131" lon="-118.3938672">
  <ele>1.008</ele>
  <time>2026-09-01T01:18:26Z</time>
  <course>188.66</course>
  <speed>0.0</speed>
  <fix>3d</fix>
</trkpt>
<trkpt lat="33.810313" lon="-118.393867">
  <ele>1.03</ele>
  <time>2026-09-01T01:18:26Z</time>
  <course>0.0</course>
  <speed>0.0</speed>
  <fix>3d</fix>
</trkpt>
<trkpt lat="33.8103131" lon="-118.3938672">
  <ele>1.006</ele>
  <time>2026-09-01T01:18:26Z</time>
  <course>188.66</course>
  <speed>0.0</speed>
  <fix>3d</fix>
</trkpt>
<trkpt lat="33.810313" lon="-118.393867">
  <ele>1.04</ele>
  <time>2026-09-01T01:18:26Z</time>
  <course>0.0</course>
  <speed>0.0</speed>
  <fix>3d</fix>
</trkpt>
<trkpt lat="33.8103131" lon="-118.3938672">
  <ele>1.002</ele>
  <time>2026-09-01T01:18:26Z</time>
  <course>188.66</course>
  <speed>0.0</speed>
  <fix>3d</fix>
</trkpt>
<trkpt lat="33.810313" lon="-118.393867">
  <ele>1.04</ele>
  <time>2026-09-01T01:18:26Z</time>
  <course>0.0</course>
  <speed>0.0</speed>
  <fix>3d</fix>
</trkpt>
<trkpt lat="33.8103131" lon="-118.3938672">
  <ele>0.999</ele>
  <time>2026-09-01T01:18:26Z</time>
  <course>188.66</course>
  <speed>0.0</speed>
  <fix>3d</fix>
</trkpt>
<trkpt lat="33.810313" lon="-118.393867">
  <ele>1.05</ele>
  <time>2026-09-01T01:18:26Z</time>
  <course>0.0</course>
  <speed>0.0</speed>
  <fix>3d</fix>
</trkpt>
<trkpt lat="33.8103131" lon="-118.3938672">
  <ele>0.997</ele>
  <time>2026-09-01T01:18:26Z</time>
  <course>188.66</course>
  <speed>0.0</speed>
  <fix>3d</fix>
</trkpt>
<trkpt lat="33.810313" lon="-118.393867">
  <ele>1.05</ele>
  <time>2026-09-01T01:18:26Z</time>
  <course>0.0</course>
  <speed>0.0</speed>
  <fix>3d</fix>
</trkpt>
<trkpt lat="33.8103131" lon="-118.3938672">
  <ele>0.997</ele>
  <time>2026-09-01T01:18:26Z</time>
  <course>188.66</course>
  <speed>0.0</speed>
  <fix>3d</fix>
</trkpt>
<trkpt lat="33.810313" lon="-118.393867">
  <ele>1.06</ele>
  <time>2026-09-01T01:18:26Z</time>
  <course>0.0</course>
  <speed>0.0</speed>
  <fix>3d</fix>
</trkpt>
<trkpt lat="33.8103131" lon="-118.3938672">
  <ele>0.997</ele>
  <time>2026-09-01T01:18:26Z</time>
  <course>188.66</course>
  <speed>0.0</speed>
  <fix>3d</fix>
</trkpt>
<trkpt lat="33.810313" lon="-118.393867">
  <ele>1.06</ele>
  <time>2026-09-01T01:18:26Z</time>
  <course>0.0</course>
  <speed>0.0</speed>
  <fix>3d</fix>
</trkpt>
<trkpt lat="33.8103131" lon="-118.3938672">
  <ele>0.998</ele>
  <time>2026-09-01T01:18:26Z</time>
  <course>188.66</course>
  <speed>0.0</speed>
  <fix>3d</fix>
</trkpt>
<trkpt lat="33.810313" lon="-118.393867">
  <ele>1.07</ele>
  <time>2026-09-01T01:18:26Z</time>
  <course>0.0</course>
  <speed>0.0</speed>
  <fix>3d</fix>
</trkpt>
<trkpt lat="33.8103131" lon="-118.3938672">
  <ele>0.999</ele>
  <time>2026-09-01T01:18:26Z</time>
  <course>188.66</course>
  <speed>0.0</speed>
  <fix>3d</fix>
</trkpt>
<trkpt lat="33.810313" lon="-118.393867">
  <ele>1.07</ele>
  <time>2026-09-01T01:18:26Z</time>
  <course>0.0</course>
  <speed>0.0</speed>
  <fix>3d</fix>
</trkpt>
<trkpt lat="33.8103131" lon="-118.3938672">
  <ele>1.0</ele>
  <time>2026-09-01T01:18:26Z</time>
  <course>188.66</course>
  <speed>0.0</speed>
  <fix>3d</fix>
</trkpt>
<trkpt lat="33.810313" lon="-118.393867">
  <ele>1.07</ele>
  <time>2026-09-01T01:18:26Z</time>
  <course>0.0</course>
  <speed>0.0</speed>
  <fix>3d</fix>
</trkpt>
<trkpt lat="33.8103131" lon="-118.3938672">
  <ele>1.001</ele>
  <time>2026-09-01T01:18:26Z</time>
  <course>188.66</course>
  <speed>0.0</speed>
  <fix>3d</fix>
</trkpt>
<trkpt lat="33.810313" lon="-118.393867">
  <ele>1.07</ele>
  <time>2026-09-01T01:18:26Z</time>
  <course>0.0</course>
  <speed>0.0</speed>
  <fix>3d</fix>
</trkpt>
<trkpt lat="33.8103131" lon="-118.3938672">
  <ele>1.004</ele>
  <time>2026-09-01T01:18:26Z</time>
  <course>188.66</course>
  <speed>0.0</speed>
  <fix>3d</fix>
</trkpt>
<trkpt lat="33.810313" lon="-118.393867">
  <ele>1.09</ele>
  <time>2026-09-01T01:18:26Z</time>
  <course>0.0</course>
  <speed>0.0</speed>
  <fix>3d</fix>
</trkpt>
<trkpt lat="33.8103131" lon="-118.3938672">
  <ele>1.006</ele>
  <time>2026-09-01T01:18:26Z</time>
  <course>188.65</course>
  <speed>0.0</speed>
  <fix>3d</fix>
</trkpt>
<trkpt lat="33.810313" lon="-118.393867">
  <ele>1.09</ele>
  <time>2026-09-01T01:18:26Z</time>
  <course>0.0</course>
  <speed>0.0</speed>
  <fix>3d</fix>
</trkpt>
<trkpt lat="33.8103132" lon="-118.3938672">
  <ele>1.007</ele>
  <time>2026-09-01T01:18:26Z</time>
  <course>188.65</course>
  <speed>0.0</speed>
  <fix>3d</fix>
</trkpt>
<trkpt lat="33.810313" lon="-118.393867">
  <ele>1.11</ele>
  <time>2026-09-01T01:18:26Z</time>
  <course>0.0</course>
  <speed>0.0</speed>
  <fix>3d</fix>
</trkpt>
<trkpt lat="33.8103132" lon="-118.3938672">
  <ele>1.005</ele>
  <time>2026-09-01T01:18:26Z</time>
  <course>188.65</course>
  <speed>0.0</speed>
  <fix>3d</fix>
</trkpt>
<trkpt lat="33.810313" lon="-118.393867">
  <ele>1.11</ele>
  <time>2026-09-01T01:18:26Z</time>
  <course>0.0</course>
  <speed>0.0</speed>
  <fix>3d</fix>
</trkpt>
<trkpt lat="33.8103132" lon="-118.3938672">
  <ele>1.003</ele>
  <time>2026-09-01T01:18:26Z</time>
  <course>188.65</course>
  <speed>0.0</speed>
  <fix>3d</fix>
</trkpt>
<trkpt lat="33.810313" lon="-118.393867">
  <ele>1.12</ele>
  <time>2026-09-01T01:18:26Z</time>
  <course>0.0</course>
  <speed>0.0</speed>
  <fix>3d</fix>
</trkpt>
<trkpt lat="33.8103132" lon="-118.3938672">
  <ele>1.0</ele>
  <time>2026-09-01T01:18:26Z</time>
  <course>188.64</course>
  <speed>0.0</speed>
  <fix>3d</fix>
</trkpt>
<trkpt lat="33.810313" lon="-118.393867">
  <ele>1.12</ele>
  <time>2026-09-01T01:18:26Z</time>
  <course>0.0</course>
  <speed>0.0</speed>
  <fix>3d</fix>
</trkpt>
<trkpt lat="33.8103132" lon="-118.3938672">
  <ele>0.998</ele>
  <time>2026-09-01T01:18:26Z</time>
  <course>188.64</course>
  <speed>0.0</speed>
  <fix>3d</fix>
</trkpt>
<trkpt lat="33.810313" lon="-118.393867">
  <ele>1.13</ele>
  <time>2026-09-01T01:18:26Z</time>
  <course>0.0</course>
  <speed>0.0</speed>
  <fix>3d</fix>
</trkpt>
<trkpt lat="33.8103132" lon="-118.3938672">
  <ele>0.996</ele>
  <time>2026-09-01T01:18:26Z</time>
  <course>188.64</course>
  <speed>0.0</speed>
  <fix>3d</fix>
</trkpt>
<trkpt lat="33.810313" lon="-118.393867">
  <ele>1.13</ele>
  <time>2026-09-01T01:18:26Z</time>
  <course>0.0</course>
  <speed>0.0</speed>
  <fix>3d</fix>
</trkpt>
<trkpt lat="33.8103132" lon="-118.3938672">
  <ele>0.994</ele>
  <time>2026-09-01T01:18:26Z</time>
  <course>188.63</course>
  <speed>0.0</speed>
  <fix>3d</fix>
</trkpt>
<trkpt lat="33.810313" lon="-118.393867">
  <ele>1.14</ele>
  <time>2026-09-01T01:18:26Z</time>
  <course>0.0</course>
  <speed>0.0</speed>
  <fix>3d</fix>
</trkpt>
<trkpt lat="33.8103132" lon="-118.3938672">
  <ele>0.993</ele>
  <time>2026-09-01T01:18:26Z</time>
  <course>188.63</course>
  <speed>0.0</speed>
  <fix>3d</fix>
</trkpt>
<trkpt lat="33.810313" lon="-118.393867">
  <ele>1.14</ele>
  <time>2026-09-01T01:18:26Z</time>
  <course>0.0</course>
  <speed>0.0</speed>
  <fix>3d</fix>
</trkpt>
<trkpt lat="33.8103132" lon="-118.3938672">
  <ele>0.993</ele>
  <time>2026-09-01T01:18:26Z</time>
  <course>188.63</course>
  <speed>0.0</speed>
  <fix>3d</fix>
</trkpt>
<trkpt lat="33.810313" lon="-118.393867">
  <ele>1.14</ele>
  <time>2026-09-01T01:18:26Z</time>
  <course>0.0</course>
  <speed>0.0</speed>
  <fix>3d</fix>
</trkpt>
<trkpt lat="33.8103132" lon="-118.3938673">
  <ele>0.993</ele>
  <time>2026-09-01T01:18:26Z</time>
  <course>188.62</course>
  <speed>0.0</speed>
  <fix>3d</fix>
</trkpt>
<trkpt lat="33.810313" lon="-118.393867">
  <ele>1.14</ele>
  <time>2026-09-01T01:18:26Z</time>
  <course>0.0</course>
  <speed>0.0</speed>
  <fix>3d</fix>
</trkpt>
<trkpt lat="33.8103132" lon="-118.3938673">
  <ele>0.993</ele>
  <time>2026-09-01T01:18:26Z</time>
  <course>188.62</course>
  <speed>0.0</speed>
  <fix>3d</fix>
</trkpt>
<trkpt lat="33.810313" lon="-118.393867">
  <ele>1.16</ele>
  <time>2026-09-01T01:18:26Z</time>
  <course>0.0</course>
  <speed>0.0</speed>
  <fix>3d</fix>
</trkpt>
<trkpt lat="33.8103132" lon="-118.3938673">
  <ele>0.996</ele>
  <time>2026-09-01T01:18:26Z</time>
  <course>188.62</course>
  <speed>0.0</speed>
  <fix>3d</fix>
</trkpt>
<trkpt lat="33.810313" lon="-118.393867">
  <ele>1.16</ele>
  <time>2026-09-01T01:18:26Z</time>
  <course>0.0</course>
  <speed>0.0</speed>
  <fix>3d</fix>
</trkpt>
<trkpt lat="33.8103132" lon="-118.3938673">
  <ele>0.999</ele>
  <time>2026-09-01T01:18:26Z</time>
  <course>188.61</course>
  <speed>0.0</speed>
  <fix>3d</fix>
</trkpt>
<trkpt lat="33.810313" lon="-118.393867">
  <ele>1.17</ele>
  <time>2026-09-01T01:18:26Z</time>
  <course>0.0</course>
  <speed>0.0</speed>
  <fix>3d</fix>
</trkpt>
<trkpt lat="33.8103132" lon="-118.3938673">
  <ele>1.001</ele>
  <time>2026-09-01T01:18:26Z</time>
  <course>188.61</course>
  <speed>0.0</speed>
  <fix>3d</fix>
</trkpt>
<trkpt lat="33.810313" lon="-118.393867">
  <ele>1.17</ele>
  <time>2026-09-01T01:18:26Z</time>
  <course>0.0</course>
  <speed>0.0</speed>
  <fix>3d</fix>
</trkpt>
<trkpt lat="33.8103132" lon="-118.3938673">
  <ele>1.002</ele>
  <time>2026-09-01T01:18:26Z</time>
  <course>188.6</course>
  <speed>0.0</speed>
  <fix>3d</fix>
</trkpt>
<trkpt lat="33.810313" lon="-118.393867">
  <ele>1.18</ele>
  <time>2026-09-01T01:18:26Z</time>
  <course>0.0</course>
  <speed>0.0</speed>
  <fix>3d</fix>
</trkpt>
<trkpt lat="33.8103132" lon="-118.3938673">
  <ele>1.002</ele>
  <time>2026-09-01T01:18:26Z</time>
  <course>188.6</course>
  <speed>0.0</speed>
  <fix>3d</fix>
</trkpt>
<trkpt lat="33.810313" lon="-118.393867">
  <ele>1.18</ele>
  <time>2026-09-01T01:18:26Z</time>
  <course>0.0</course>
  <speed>0.0</speed>
  <fix>3d</fix>
</trkpt>
<trkpt lat="33.8103132" lon="-118.3938673">
  <ele>1.0</ele>
  <time>2026-09-01T01:18:26Z</time>
  <course>188.6</course>
  <speed>0.0</speed>
  <fix>3d</fix>
</trkpt>
<trkpt lat="33.810313" lon="-118.393867">
  <ele>1.19</ele>
  <time>2026-09-01T01:18:26Z</time>
  <course>0.0</course>
  <speed>0.0</speed>
  <fix>3d</fix>
</trkpt>
<trkpt lat="33.8103132" lon="-118.3938673">
  <ele>0.998</ele>
  <time>2026-09-01T01:18:26Z</time>
  <course>188.59</course>
  <speed>0.0</speed>
  <fix>3d</fix>
</trkpt>
<trkpt lat="33.810313" lon="-118.393867">
  <ele>1.19</ele>
  <time>2026-09-01T01:18:26Z</time>
  <course>0.0</course>
  <speed>0.0</speed>
  <fix>3d</fix>
</trkpt>
<trkpt lat="33.8103132" lon="-118.3938673">
  <ele>0.996</ele>
  <time>2026-09-01T01:18:26Z</time>
  <course>188.59</course>
  <speed>0.0</speed>
  <fix>3d</fix>
</trkpt>
<trkpt lat="33.810313" lon="-118.393867">
  <ele>1.2</ele>
  <time>2026-09-01T01:18:26Z</time>
  <course>0.0</course>
  <speed>0.0</speed>
  <fix>3d</fix>
</trkpt>
<trkpt lat="33.8103132" lon="-118.3938673">
  <ele>0.994</ele>
  <time>2026-09-01T01:18:26Z</time>
  <course>188.58</course>
  <speed>0.0</speed>
  <fix>3d</fix>
</trkpt>
<trkpt lat="33.810313" lon="-118.393867">
  <ele>1.2</ele>
  <time>2026-09-01T01:18:26Z</time>
  <course>0.0</course>
  <speed>0.0</speed>
  <fix>3d</fix>
</trkpt>
<trkpt lat="33.8103133" lon="-118.3938673">
  <ele>0.994</ele>
  <time>2026-09-01T01:18:26Z</time>
  <course>188.58</course>
  <speed>0.0</speed>
  <fix>3d</fix>
</trkpt>
<trkpt lat="33.810313" lon="-118.393867">
  <ele>1.21</ele>
  <time>2026-09-01T01:18:26Z</time>
  <course>0.0</course>
  <speed>0.0</speed>
  <fix>3d</fix>
</trkpt>
<trkpt lat="33.8103133" lon="-118.3938673">
  <ele>0.994</ele>
  <time>2026-09-01T01:18:26Z</time>
  <course>188.57</course>
  <speed>0.0</speed>
  <fix>3d</fix>
</trkpt>
<trkpt lat="33.810313" lon="-118.393867">
  <ele>1.21</ele>
  <time>2026-09-01T01:18:26Z</time>
  <course>0.0</course>
  <speed>0.0</speed>
  <fix>3d</fix>
</trkpt>
<trkpt lat="33.8103133" lon="-118.3938673">
  <ele>0.995</ele>
  <time>2026-09-01T01:18:26Z</time>
  <course>188.57</course>
  <speed>0.0</speed>
  <fix>3d</fix>
</trkpt>
<trkpt lat="33.810313" lon="-118.393867">
  <ele>1.22</ele>
  <time>2026-09-01T01:18:26Z</time>
  <course>0.0</course>
  <speed>0.0</speed>
  <fix>3d</fix>
</trkpt>
<trkpt lat="33.8103133" lon="-118.3938673">
  <ele>0.996</ele>
  <time>2026-09-01T01:18:26Z</time>
  <course>188.56</course>
  <speed>0.0</speed>
  <fix>3d</fix>
</trkpt>
<trkpt lat="33.810313" lon="-118.393867">
  <ele>1.22</ele>
  <time>2026-09-01T01:18:26Z</time>
  <course>0.0</course>
  <speed>0.0</speed>
  <fix>3d</fix>
</trkpt>
<trkpt lat="33.8103133" lon="-118.3938673">
  <ele>0.999</ele>
  <time>2026-09-01T01:18:26Z</time>
  <course>188.55</course>
  <speed>0.0</speed>
  <fix>3d</fix>
</trkpt>
<trkpt lat="33.810313" lon="-118.393867">
  <ele>1.24</ele>
  <time>2026-09-01T01:18:26Z</time>
  <course>0.0</course>
  <speed>0.0</speed>
  <fix>3d</fix>
</trkpt>
<trkpt lat="33.8103133" lon="-118.3938673">
  <ele>1.0</ele>
  <time>2026-09-01T01:18:26Z</time>
  <course>188.55</course>
  <speed>0.0</speed>
  <fix>3d</fix>
</trkpt>
<trkpt lat="33.810313" lon="-118.393867">
  <ele>1.24</ele>
  <time>2026-09-01T01:18:26Z</time>
  <course>0.0</course>
  <speed>0.0</speed>
  <fix>3d</fix>
</trkpt>
<trkpt lat="33.8103133" lon="-118.3938673">
  <ele>1.002</ele>
  <time>2026-09-01T01:18:26Z</time>
  <course>188.54</course>
  <speed>0.0</speed>
  <fix>3d</fix>
</trkpt>
<trkpt lat="33.810313" lon="-118.393867">
  <ele>1.25</ele>
  <time>2026-09-01T01:18:26Z</time>
  <course>0.0</course>
  <speed>0.0</speed>
  <fix>3d</fix>
</trkpt>
<trkpt lat="33.8103133" lon="-118.3938674">
  <ele>1.003</ele>
  <time>2026-09-01T01:18:26Z</time>
  <course>188.54</course>
  <speed>0.0</speed>
  <fix>3d</fix>
</trkpt>
<trkpt lat="33.810313" lon="-118.393867">
  <ele>1.25</ele>
  <time>2026-09-01T01:18:26Z</time>
  <course>0.0</course>
  <speed>0.0</speed>
  <fix>3d</fix>
</trkpt>
<trkpt lat="33.8103133" lon="-118.3938674">
  <ele>1.002</ele>
  <time>2026-09-01T01:18:26Z</time>
  <course>188.53</course>
  <speed>0.0</speed>
  <fix>3d</fix>
</trkpt>
<trkpt lat="33.810313" lon="-118.393867">
  <ele>1.26</ele>
  <time>2026-09-01T01:18:26Z</time>
  <course>0.0</course>
  <speed>0.0</speed>
  <fix>3d</fix>
</trkpt>
<trkpt lat="33.8103133" lon="-118.3938674">
  <ele>1.0</ele>
  <time>2026-09-01T01:18:26Z</time>
  <course>188.52</course>
  <speed>0.0</speed>
  <fix>3d</fix>
</trkpt>
<trkpt lat="33.810313" lon="-118.393867">
  <ele>1.26</ele>
  <time>2026-09-01T01:18:26Z</time>
  <course>0.0</course>
  <speed>0.0</speed>
  <fix>3d</fix>
</trkpt>
<trkpt lat="33.8103133" lon="-118.3938674">
  <ele>0.997</ele>
  <time>2026-09-01T01:18:26Z</time>
  <course>188.52</course>
  <speed>0.0</speed>
  <fix>3d</fix>
</trkpt>
<trkpt lat="33.810313" lon="-118.393867">
  <ele>1.27</ele>
  <time>2026-09-01T01:18:26Z</time>
  <course>0.0</course>
  <speed>0.0</speed>
  <fix>3d</fix>
</trkpt>
<trkpt lat="33.8103133" lon="-118.3938674">
  <ele>0.996</ele>
  <time>2026-09-01T01:18:26Z</time>
  <course>188.51</course>
  <speed>0.0</speed>
  <fix>3d</fix>
</trkpt>
<trkpt lat="33.810313" lon="-118.393867">
  <ele>1.27</ele>
  <time>2026-09-01T01:18:26Z</time>
  <course>0.0</course>
  <speed>0.0</speed>
  <fix>3d</fix>
</trkpt>
<trkpt lat="33.8103133" lon="-118.3938674">
  <ele>0.995</ele>
  <time>2026-09-01T01:18:26Z</time>
  <course>188.5</course>
  <speed>0.0</speed>
  <fix>3d</fix>
</trkpt>
<trkpt lat="33.810313" lon="-118.393867">
  <ele>1.28</ele>
  <time>2026-09-01T01:18:26Z</time>
  <course>0.0</course>
  <speed>0.0</speed>
  <fix>3d</fix>
</trkpt>
<trkpt lat="33.8103133" lon="-118.3938674">
  <ele>0.994</ele>
  <time>2026-09-01T01:18:26Z</time>
  <course>188.5</course>
  <speed>0.0</speed>
  <fix>3d</fix>
</trkpt>
<trkpt lat="33.810313" lon="-118.393867">
  <ele>1.28</ele>
  <time>2026-09-01T01:18:26Z</time>
  <course>0.0</course>
  <speed>0.0</speed>
  <fix>3d</fix>
</trkpt>
<trkpt lat="33.8103133" lon="-118.3938674">
  <ele>0.995</ele>
  <time>2026-09-01T01:18:26Z</time>
  <course>188.49</course>
  <speed>0.0</speed>
  <fix>3d</fix>
</trkpt>
<trkpt lat="33.810313" lon="-118.393867">
  <ele>1.29</ele>
  <time>2026-09-01T01:18:26Z</time>
  <course>0.0</course>
  <speed>0.0</speed>
  <fix>3d</fix>
</trkpt>
<trkpt lat="33.8103133" lon="-118.3938674">
  <ele>0.996</ele>
  <time>2026-09-01T01:18:26Z</time>
  <course>188.48</course>
  <speed>0.0</speed>
  <fix>3d</fix>
</trkpt>
<trkpt lat="33.810313" lon="-118.393867">
  <ele>1.29</ele>
  <time>2026-09-01T01:18:26Z</time>
  <course>0.0</course>
  <speed>0.0</speed>
  <fix>3d</fix>
</trkpt>
<trkpt lat="33.8103134" lon="-118.3938674">
  <ele>0.997</ele>
  <time>2026-09-01T01:18:26Z</time>
  <course>188.47</course>
  <speed>0.0</speed>
  <fix>3d</fix>
</trkpt>
<trkpt lat="33.810313" lon="-118.393867">
  <ele>1.3</ele>
  <time>2026-09-01T01:18:26Z</time>
  <course>0.0</course>
  <speed>0.0</speed>
  <fix>3d</fix>
</trkpt>
<trkpt lat="33.8103134" lon="-118.3938674">
  <ele>0.999</ele>
  <time>2026-09-01T01:18:26Z</time>
  <course>188.46</course>
  <speed>0.0</speed>
  <fix>3d</fix>
</trkpt>
<trkpt lat="33.810313" lon="-118.393867">
  <ele>1.3</ele>
  <time>2026-09-01T01:18:26Z</time>
  <course>0.0</course>
  <speed>0.0</speed>
  <fix>3d</fix>
</trkpt>
<trkpt lat="33.8103134" lon="-118.3938674">
  <ele>1.001</ele>
  <time>2026-09-01T01:18:26Z</time>
  <course>188.46</course>
  <speed>0.0</speed>
  <fix>3d</fix>
</trkpt>
<trkpt lat="33.810313" lon="-118.393867">
  <ele>1.31</ele>
  <time>2026-09-01T01:18:26Z</time>
  <course>0.0</course>
  <speed>0.0</speed>
  <fix>3d</fix>
</trkpt>
<trkpt lat="33.8103134" lon="-118.3938674">
  <ele>1.002</ele>
  <time>2026-09-01T01:18:26Z</time>
  <course>188.45</course>
  <speed>0.0</speed>
  <fix>3d</fix>
</trkpt>
<trkpt lat="33.810313" lon="-118.393867">
  <ele>1.31</ele>
  <time>2026-09-01T01:18:26Z</time>
  <course>0.0</course>
  <speed>0.0</speed>
  <fix>3d</fix>
</trkpt>
<trkpt lat="33.8103134" lon="-118.3938674">
  <ele>1.001</ele>
  <time>2026-09-01T01:18:26Z</time>
  <course>188.44</course>
  <speed>0.0</speed>
  <fix>3d</fix>
</trkpt>
<trkpt lat="33.810313" lon="-118.393867">
  <ele>1.32</ele>
  <time>2026-09-01T01:18:26Z</time>
  <course>0.0</course>
  <speed>0.0</speed>
  <fix>3d</fix>
</trkpt>
<trkpt lat="33.8103134" lon="-118.3938674">
  <ele>0.999</ele>
  <time>2026-09-01T01:18:26Z</time>
  <course>188.44</course>
  <speed>0.0</speed>
  <fix>3d</fix>
</trkpt>
<trkpt lat="33.810313" lon="-118.393867">
  <ele>1.32</ele>
  <time>2026-09-01T01:18:26Z</time>
  <course>0.0</course>
  <speed>0.0</speed>
  <fix>3d</fix>
</trkpt>
<trkpt lat="33.8103134" lon="-118.3938675">
  <ele>0.996</ele>
  <time>2026-09-01T01:18:26Z</time>
  <course>188.43</course>
  <speed>0.0</speed>
  <fix>3d</fix>
</trkpt>
<trkpt lat="33.810313" lon="-118.393867">
  <ele>1.33</ele>
  <time>2026-09-01T01:18:26Z</time>
  <course>0.0</course>
  <speed>0.0</speed>
  <fix>3d</fix>
</trkpt>
<trkpt lat="33.8103134" lon="-118.3938675">
  <ele>0.993</ele>
  <time>2026-09-01T01:18:26Z</time>
  <course>188.42</course>
  <speed>0.0</speed>
  <fix>3d</fix>
</trkpt>
<trkpt lat="33.810313" lon="-118.393867">
  <ele>1.33</ele>
  <time>2026-09-01T01:18:26Z</time>
  <course>0.0</course>
  <speed>0.0</speed>
  <fix>3d</fix>
</trkpt>
<trkpt lat="33.8103134" lon="-118.3938675">
  <ele>0.991</ele>
  <time>2026-09-01T01:18:26Z</time>
  <course>188.41</course>
  <speed>0.0</speed>
  <fix>3d</fix>
</trkpt>
<trkpt lat="33.810313" lon="-118.393867">
  <ele>1.34</ele>
  <time>2026-09-01T01:18:26Z</time>
  <course>0.0</course>
  <speed>0.0</speed>
  <fix>3d</fix>
</trkpt>
<trkpt lat="33.8103134" lon="-118.3938675">
  <ele>0.991</ele>
  <time>2026-09-01T01:18:26Z</time>
  <course>188.41</course>
  <speed>0.0</speed>
  <fix>3d</fix>
</trkpt>
<trkpt lat="33.810313" lon="-118.393867">
  <ele>1.34</ele>
  <time>2026-09-01T01:18:26Z</time>
  <course>0.0</course>
  <speed>0.0</speed>
  <fix>3d</fix>
</trkpt>
<trkpt lat="33.8103134" lon="-118.3938675">
  <ele>0.992</ele>
  <time>2026-09-01T01:18:26Z</time>
  <course>188.4</course>
  <speed>0.01</speed>
  <fix>3d</fix>
</trkpt>
<trkpt lat="33.810313" lon="-118.393867">
  <ele>1.35</ele>
  <time>2026-09-01T01:18:26Z</time>
  <course>0.0</course>
  <speed>0.0</speed>
  <fix>3d</fix>
</trkpt>
<trkpt lat="33.8103134" lon="-118.3938675">
  <ele>0.993</ele>
  <time>2026-09-01T01:18:26Z</time>
  <course>188.39</course>
  <speed>0.01</speed>
  <fix>3d</fix>
</trkpt>
<trkpt lat="33.810313" lon="-118.393867">
  <ele>1.35</ele>
  <time>2026-09-01T01:18:26Z</time>
  <course>0.0</course>
  <speed>0.0</speed>
  <fix>3d</fix>
</trkpt>
<trkpt lat="33.8103135" lon="-118.3938675">
  <ele>0.997</ele>
  <time>2026-09-01T01:18:26Z</time>
  <course>188.38</course>
  <speed>0.01</speed>
  <fix>3d</fix>
</trkpt>
<trkpt lat="33.810313" lon="-118.393867">
  <ele>1.36</ele>
  <time>2026-09-01T01:18:26Z</time>
  <course>0.0</course>
  <speed>0.0</speed>
  <fix>3d</fix>
</trkpt>
<trkpt lat="33.8103135" lon="-118.3938675">
  <ele>1.0</ele>
  <time>2026-09-01T01:18:26Z</time>
  <course>188.38</course>
  <speed>0.01</speed>
  <fix>3d</fix>
</trkpt>
<trkpt lat="33.810313" lon="-118.393867">
  <ele>1.36</ele>
  <time>2026-09-01T01:18:26Z</time>
  <course>0.0</course>
  <speed>0.0</speed>
  <fix>3d</fix>
</trkpt>
<trkpt lat="33.8103135" lon="-118.3938675">
  <ele>1.004</ele>
  <time>2026-09-01T01:18:26Z</time>
  <course>188.37</course>
  <speed>0.01</speed>
  <fix>3d</fix>
</trkpt>
<trkpt lat="33.810313" lon="-118.393867">
  <ele>1.37</ele>
  <time>2026-09-01T01:18:26Z</time>
  <course>0.0</course>
  <speed>0.0</speed>
  <fix>3d</fix>
</trkpt>
<trkpt lat="33.8103135" lon="-118.3938675">
  <ele>1.007</ele>
  <time>2026-09-01T01:18:26Z</time>
  <course>188.36</course>
  <speed>0.01</speed>
  <fix>3d</fix>
</trkpt>
<trkpt lat="33.810313" lon="-118.393867">
  <ele>1.37</ele>
  <time>2026-09-01T01:18:26Z</time>
  <course>0.0</course>
  <speed>0.0</speed>
  <fix>3d</fix>
</trkpt>
<trkpt lat="33.8103135" lon="-118.3938675">
  <ele>1.008</ele>
  <time>2026-09-01T01:18:26Z</time>
  <course>188.36</course>
  <speed>0.01</speed>
  <fix>3d</fix>
</trkpt>
<trkpt lat="33.810313" lon="-118.393867">
  <ele>1.38</ele>
  <time>2026-09-01T01:18:26Z</time>
  <course>0.0</course>
  <speed>0.0</speed>
  <fix>3d</fix>
</trkpt>
<trkpt lat="33.8103135" lon="-118.3938675">
  <ele>1.007</ele>
  <time>2026-09-01T01:18:26Z</time>
  <course>188.35</course>
  <speed>0.01</speed>
  <fix>3d</fix>
</trkpt>
<trkpt lat="33.810313" lon="-118.393867">
  <ele>1.38</ele>
  <time>2026-09-01T01:18:26Z</time>
  <course>0.0</course>
  <speed>0.0</speed>
  <fix>3d</fix>
</trkpt>
<trkpt lat="33.8103135" lon="-118.3938675">
  <ele>1.005</ele>
  <time>2026-09-01T01:18:26Z</time>
  <course>188.34</course>
  <speed>0.01</speed>
  <fix>3d</fix>
</trkpt>
<trkpt lat="33.810313" lon="-118.393867">
  <ele>1.39</ele>
  <time>2026-09-01T01:18:26Z</time>
  <course>0.0</course>
  <speed>0.0</speed>
  <fix>3d</fix>
</trkpt>
<trkpt lat="33.8103135" lon="-118.3938676">
  <ele>1.004</ele>
  <time>2026-09-01T01:18:26Z</time>
  <course>188.33</course>
  <speed>0.01</speed>
  <fix>3d</fix>
</trkpt>
<trkpt lat="33.810313" lon="-118.393867">
  <ele>1.39</ele>
  <time>2026-09-01T01:18:26Z</time>
  <course>0.0</course>
  <speed>0.0</speed>
  <fix>3d</fix>
</trkpt>
<trkpt lat="33.8103135" lon="-118.3938676">
  <ele>1.003</ele>
  <time>2026-09-01T01:18:26Z</time>
  <course>188.32</course>
  <speed>0.01</speed>
  <fix>3d</fix>
</trkpt>
<trkpt lat="33.810313" lon="-118.393867">
  <ele>1.4</ele>
  <time>2026-09-01T01:18:26Z</time>
  <course>0.0</course>
  <speed>0.0</speed>
  <fix>3d</fix>
</trkpt>
<trkpt lat="33.8103135" lon="-118.3938676">
  <ele>1.003</ele>
  <time>2026-09-01T01:18:26Z</time>
  <course>188.32</course>
  <speed>0.01</speed>
  <fix>3d</fix>
</trkpt>
<trkpt lat="33.810313" lon="-118.393867">
  <ele>1.4</ele>
  <time>2026-09-01T01:18:26Z</time>
  <course>0.0</course>
  <speed>0.0</speed>
  <fix>3d</fix>
</trkpt>
<trkpt lat="33.8103135" lon="-118.3938676">
  <ele>1.003</ele>
  <time>2026-09-01T01:18:26Z</time>
  <course>188.31</course>
  <speed>0.01</speed>
  <fix>3d</fix>
</trkpt>
<trkpt lat="33.810313" lon="-118.393867">
  <ele>1.41</ele>
  <time>2026-09-01T01:18:26Z</time>
  <course>0.0</course>
  <speed>0.0</speed>
  <fix>3d</fix>
</trkpt>
<trkpt lat="33.8103135" lon="-118.3938676">
  <ele>1.003</ele>
  <time>2026-09-01T01:18:26Z</time>
  <course>188.3</course>
  <speed>0.01</speed>
  <fix>3d</fix>
</trkpt>
<trkpt lat="33.810313" lon="-118.393867">
  <ele>1.41</ele>
  <time>2026-09-01T01:18:26Z</time>
  <course>0.0</course>
  <speed>0.0</speed>
  <fix>3d</fix>
</trkpt>
<trkpt lat="33.8103136" lon="-118.3938676">
  <ele>1.004</ele>
  <time>2026-09-01T01:18:26Z</time>
  <course>188.29</course>
  <speed>0.01</speed>
  <fix>3d</fix>
</trkpt>
<trkpt lat="33.810313" lon="-118.393867">
  <ele>1.42</ele>
  <time>2026-09-01T01:18:26Z</time>
  <course>0.0</course>
  <speed>0.0</speed>
  <fix>3d</fix>
</trkpt>
<trkpt lat="33.8103136" lon="-118.3938676">
  <ele>1.005</ele>
  <time>2026-09-01T01:18:26Z</time>
  <course>188.29</course>
  <speed>0.01</speed>
  <fix>3d</fix>
</trkpt>
<trkpt lat="33.810313" lon="-118.393867">
  <ele>1.42</ele>
  <time>2026-09-01T01:18:26Z</time>
  <course>0.0</course>
  <speed>0.0</speed>
  <fix>3d</fix>
</trkpt>
<trkpt lat="33.8103136" lon="-118.3938676">
  <ele>1.007</ele>
  <time>2026-09-01T01:18:26Z</time>
  <course>188.28</course>
  <speed>0.01</speed>
  <fix>3d</fix>
</trkpt>
<trkpt lat="33.810313" lon="-118.393867">
  <ele>1.43</ele>
  <time>2026-09-01T01:18:26Z</time>
  <course>0.0</course>
  <speed>0.0</speed>
  <fix>3d</fix>
</trkpt>
<trkpt lat="33.8103136" lon="-118.3938676">
  <ele>1.009</ele>
  <time>2026-09-01T01:18:26Z</time>
  <course>188.27</course>
  <speed>0.01</speed>
  <fix>3d</fix>
</trkpt>
<trkpt lat="33.810313" lon="-118.393867">
  <ele>1.43</ele>
  <time>2026-09-01T01:18:26Z</time>
  <course>0.0</course>
  <speed>0.0</speed>
  <fix>3d</fix>
</trkpt>
<trkpt lat="33.8103136" lon="-118.3938676">
  <ele>1.01</ele>
  <time>2026-09-01T01:18:26Z</time>
  <course>188.27</course>
  <speed>0.01</speed>
  <fix>3d</fix>
</trkpt>
<trkpt lat="33.810313" lon="-118.393867">
  <ele>1.44</ele>
  <time>2026-09-01T01:18:26Z</time>
  <course>0.0</course>
  <speed>0.0</speed>
  <fix>3d</fix>
</trkpt>
<trkpt lat="33.8103136" lon="-118.3938676">
  <ele>1.009</ele>
  <time>2026-09-01T01:18:26Z</time>
  <course>188.26</course>
  <speed>0.01</speed>
  <fix>3d</fix>
</trkpt>
<trkpt lat="33.810313" lon="-118.393867">
  <ele>1.44</ele>
  <time>2026-09-01T01:18:26Z</time>
  <course>0.0</course>
  <speed>0.0</speed>
  <fix>3d</fix>
</trkpt>
<trkpt lat="33.8103136" lon="-118.3938677">
  <ele>1.007</ele>
  <time>2026-09-01T01:18:26Z</time>
  <course>188.25</course>
  <speed>0.01</speed>
  <fix>3d</fix>
</trkpt>
<trkpt lat="33.810313" lon="-118.393867">
  <ele>1.46</ele>
  <time>2026-09-01T01:18:26Z</time>
  <course>0.0</course>
  <speed>0.0</speed>
  <fix>3d</fix>
</trkpt>
<trkpt lat="33.8103136" lon="-118.3938677">
  <ele>1.005</ele>
  <time>2026-09-01T01:18:26Z</time>
  <course>188.24</course>
  <speed>0.01</speed>
  <fix>3d</fix>
</trkpt>
<trkpt lat="33.810313" lon="-118.393867">
  <ele>1.46</ele>
  <time>2026-09-01T01:18:26Z</time>
  <course>0.0</course>
  <speed>0.0</speed>
  <fix>3d</fix>
</trkpt>
<trkpt lat="33.8103136" lon="-118.3938677">
  <ele>1.002</ele>
  <time>2026-09-01T01:18:26Z</time>
  <course>188.23</course>
  <speed>0.01</speed>
  <fix>3d</fix>
</trkpt>
<trkpt lat="33.810313" lon="-118.393867">
  <ele>1.47</ele>
  <time>2026-09-01T01:18:26Z</time>
  <course>0.0</course>
  <speed>0.0</speed>
  <fix>3d</fix>
</trkpt>
<trkpt lat="33.8103136" lon="-118.3938677">
  <ele>1.001</ele>
  <time>2026-09-01T01:18:26Z</time>
  <course>188.23</course>
  <speed>0.01</speed>
  <fix>3d</fix>
</trkpt>
<trkpt lat="33.810313" lon="-118.393867">
  <ele>1.47</ele>
  <time>2026-09-01T01:18:26Z</time>
  <course>0.0</course>
  <speed>0.0</speed>
  <fix>3d</fix>
</trkpt>
<trkpt lat="33.8103137" lon="-118.3938677">
  <ele>1.0</ele>
  <time>2026-09-01T01:18:26Z</time>
  <course>188.22</course>
  <speed>0.01</speed>
  <fix>3d</fix>
</trkpt>
<trkpt lat="33.810313" lon="-118.393867">
  <ele>1.48</ele>
  <time>2026-09-01T01:18:26Z</time>
  <course>0.0</course>
  <speed>0.0</speed>
  <fix>3d</fix>
</trkpt>
<trkpt lat="33.8103137" lon="-118.3938677">
  <ele>1.001</ele>
  <time>2026-09-01T01:18:26Z</time>
  <course>188.21</course>
  <speed>0.01414213562373095</speed>
  <fix>3d</fix>
</trkpt>
<trkpt lat="33.810313" lon="-118.393867">
  <ele>1.48</ele>
  <time>2026-09-01T01:18:26Z</time>
  <course>0.0</course>
  <speed>0.0</speed>
  <fix>3d</fix>
</trkpt>
<trkpt lat="33.8103137" lon="-118.3938677">
  <ele>1.003</ele>
  <time>2026-09-01T01:18:26Z</time>
  <course>188.2</course>
  <speed>0.01414213562373095</speed>
  <fix>3d</fix>
</trkpt>
<trkpt lat="33.810313" lon="-118.393867">
  <ele>1.49</ele>
  <time>2026-09-01T01:18:26Z</time>
  <course>0.0</course>
  <speed>0.0</speed>
  <fix>3d</fix>
</trkpt>
<trkpt lat="33.8103137" lon="-118.3938677">
  <ele>1.006</ele>
  <time>2026-09-01T01:18:26Z</time>
  <course>188.2</course>
  <speed>0.01414213562373095</speed>
  <fix>3d</fix>
</trkpt>
<trkpt lat="33.810313" lon="-118.393867">
  <ele>1.49</ele>
  <time>2026-09-01T01:18:26Z</time>
  <course>0.0</course>
  <speed>0.0</speed>
  <fix>3d</fix>
</trkpt>
<trkpt lat="33.8103137" lon="-118.3938677">
  <ele>1.009</ele>
  <time>2026-09-01T01:18:26Z</time>
  <course>188.19</course>
  <speed>0.01414213562373095</speed>
  <fix>3d</fix>
</trkpt>
<trkpt lat="33.810313" lon="-118.393867">
  <ele>1.5</ele>
  <time>2026-09-01T01:18:27Z</time>
  <course>0.0</course>
  <speed>0.0</speed>
  <fix>3d</fix>
</trkpt>
<trkpt lat="33.8103137" lon="-118.3938677">
  <ele>1.01</ele>
  <time>2026-09-01T01:18:27Z</time>
  <course>188.18</course>
  <speed>0.01414213562373095</speed>
  <fix>3d</fix>
</trkpt>
<trkpt lat="33.810313" lon="-118.393867">
  <ele>1.5</ele>
  <time>2026-09-01T01:18:27Z</time>
  <course>0.0</course>
  <speed>0.0</speed>
  <fix>3d</fix>
</trkpt>
<trkpt lat="33.8103137" lon="-118.3938678">
  <ele>1.009</ele>
  <time>2026-09-01T01:18:27Z</time>
  <course>188.18</course>
  <speed>0.01414213562373095</speed>
  <fix>3d</fix>
</trkpt>
<trkpt lat="33.810313" lon="-118.393867">
  <ele>1.51</ele>
  <time>2026-09-01T01:18:27Z</time>
  <course>0.0</course>
  <speed>0.0</speed>
  <fix>3d</fix>
</trkpt>
<trkpt lat="33.8103137" lon="-118.3938678">
  <ele>1.008</ele>
  <time>2026-09-01T01:18:27Z</time>
  <course>188.17</course>
  <speed>0.01414213562373095</speed>
  <fix>3d</fix>
</trkpt>
<trkpt lat="33.810313" lon="-118.393867">
  <ele>1.51</ele>
  <time>2026-09-01T01:18:27Z</time>
  <course>0.0</course>
  <speed>0.0</speed>
  <fix>3d</fix>
</trkpt>
<trkpt lat="33.8103137" lon="-118.3938678">
  <ele>1.006</ele>
  <time>2026-09-01T01:18:27Z</time>
  <course>188.16</course>
  <speed>0.01414213562373095</speed>
  <fix>3d</fix>
</trkpt>
<trkpt lat="33.810313" lon="-118.393867">
  <ele>1.52</ele>
  <time>2026-09-01T01:18:27Z</time>
  <course>0.0</course>
  <speed>0.0</speed>
  <fix>3d</fix>
</trkpt>
<trkpt lat="33.8103138" lon="-118.3938678">
  <ele>1.004</ele>
  <time>2026-09-01T01:18:27Z</time>
  <course>188.16</course>
  <speed>0.01414213562373095</speed>
  <fix>3d</fix>
</trkpt>
<trkpt lat="33.810313" lon="-118.393867">
  <ele>1.52</ele>
  <time>2026-09-01T01:18:27Z</time>
  <course>0.0</course>
  <speed>0.0</speed>
  <fix>3d</fix>
</trkpt>
<trkpt lat="33.8103138" lon="-118.3938678">
  <ele>1.003</ele>
  <time>2026-09-01T01:18:27Z</time>
  <course>188.15</course>
  <speed>0.01414213562373095</speed>
  <fix>3d</fix>
</trkpt>
<trkpt lat="33.810313" lon="-118.393867">
  <ele>1.53</ele>
  <time>2026-09-01T01:18:27Z</time>
  <course>0.0</course>
  <speed>0.0</speed>
  <fix>3d</fix>
</trkpt>
<trkpt lat="33.8103138" lon="-118.3938678">
  <ele>1.004</ele>
  <time>2026-09-01T01:18:27Z</time>
  <course>188.14</course>
  <speed>0.01414213562373095</speed>
  <fix>3d</fix>
</trkpt>
<trkpt lat="33.810313" lon="-118.393867">
  <ele>1.53</ele>
  <time>2026-09-01T01:18:27Z</time>
  <course>0.0</course>
  <speed>0.0</speed>
  <fix>3d</fix>
</trkpt>
<trkpt lat="33.8103138" lon="-118.3938678">
  <ele>1.005</ele>
  <time>2026-09-01T01:18:27Z</time>
  <course>188.13</course>
  <speed>0.01414213562373095</speed>
  <fix>3d</fix>
</trkpt>
<trkpt lat="33.810313" lon="-118.393867">
  <ele>1.54</ele>
  <time>2026-09-01T01:18:27Z</time>
  <course>0.0</course>
  <speed>0.0</speed>
  <fix>3d</fix>
</trkpt>
<trkpt lat="33.8103138" lon="-118.3938678">
  <ele>1.006</ele>
  <time>2026-09-01T01:18:27Z</time>
  <course>188.13</course>
  <speed>0.01414213562373095</speed>
  <fix>3d</fix>
</trkpt>
<trkpt lat="33.810313" lon="-118.393867">
  <ele>1.54</ele>
  <time>2026-09-01T01:18:27Z</time>
  <course>0.0</course>
  <speed>0.0</speed>
  <fix>3d</fix>
</trkpt>
<trkpt lat="33.8103138" lon="-118.3938678">
  <ele>1.007</ele>
  <time>2026-09-01T01:18:27Z</time>
  <course>188.12</course>
  <speed>0.01414213562373095</speed>
  <fix>3d</fix>
</trkpt>
<trkpt lat="33.810313" lon="-118.393867">
  <ele>1.55</ele>
  <time>2026-09-01T01:18:27Z</time>
  <course>0.0</course>
  <speed>0.0</speed>
  <fix>3d</fix>
</trkpt>
<trkpt lat="33.8103138" lon="-118.3938679">
  <ele>1.008</ele>
  <time>2026-09-01T01:18:27Z</time>
  <course>188.11</course>
  <speed>0.01414213562373095</speed>
  <fix>3d</fix>
</trkpt>
<trkpt lat="33.810313" lon="-118.393867">
  <ele>1.55</ele>
  <time>2026-09-01T01:18:27Z</time>
  <course>0.0</course>
  <speed>0.0</speed>
  <fix>3d</fix>
</trkpt>
<trkpt lat="33.8103138" lon="-118.3938679">
  <ele>1.008</ele>
  <time>2026-09-01T01:18:27Z</time>
  <course>188.1</course>
  <speed>0.01414213562373095</speed>
  <fix>3d</fix>
</trkpt>
<trkpt lat="33.810313" lon="-118.393867">
  <ele>1.56</ele>
  <time>2026-09-01T01:18:27Z</time>
  <course>0.0</course>
  <speed>0.0</speed>
  <fix>3d</fix>
</trkpt>
<trkpt lat="33.8103139" lon="-118.3938679">
  <ele>1.006</ele>
  <time>2026-09-01T01:18:27Z</time>
  <course>188.1</course>
  <speed>0.01414213562373095</speed>
  <fix>3d</fix>
</trkpt>
<trkpt lat="33.810313" lon="-118.393867">
  <ele>1.56</ele>
  <time>2026-09-01T01:18:27Z</time>
  <course>0.0</course>
  <speed>0.0</speed>
  <fix>3d</fix>
</trkpt>
<trkpt lat="33.8103139" lon="-118.3938679">
  <ele>1.003</ele>
  <time>2026-09-01T01:18:27Z</time>
  <course>188.09</course>
  <speed>0.01414213562373095</speed>
  <fix>3d</fix>
</trkpt>
<trkpt lat="33.810313" lon="-118.393867">
  <ele>1.57</ele>
  <time>2026-09-01T01:18:27Z</time>
  <course>0.0</course>
  <speed>0.0</speed>
  <fix>3d</fix>
</trkpt>
<trkpt lat="33.8103139" lon="-118.3938679">
  <ele>0.999</ele>
  <time>2026-09-01T01:18:27Z</time>
  <course>188.08</course>
  <speed>0.01414213562373095</speed>
  <fix>3d</fix>
</trkpt>
<trkpt lat="33.810313" lon="-118.393867">
  <ele>1.57</ele>
  <time>2026-09-01T01:18:27Z</time>
  <course>0.0</course>
  <speed>0.0</speed>
  <fix>3d</fix>
</trkpt>
<trkpt lat="33.8103139" lon="-118.3938679">
  <ele>0.995</ele>
  <time>2026-09-01T01:18:27Z</time>
  <course>188.07</course>
  <speed>0.01414213562373095</speed>
  <fix>3d</fix>
</trkpt>
<trkpt lat="33.810313" lon="-118.393867">
  <ele>1.58</ele>
  <time>2026-09-01T01:18:27Z</time>
  <course>0.0</course>
  <speed>0.0</speed>
  <fix>3d</fix>
</trkpt>
<trkpt lat="33.8103139" lon="-118.3938679">
  <ele>0.992</ele>
  <time>2026-09-01T01:18:27Z</time>
  <course>188.07</course>
  <speed>0.01414213562373095</speed>
  <fix>3d</fix>
</trkpt>
<trkpt lat="33.810313" lon="-118.393867">
  <ele>1.58</ele>
  <time>2026-09-01T01:18:27Z</time>
  <course>0.0</course>
  <speed>0.0</speed>
  <fix>3d</fix>
</trkpt>
<trkpt lat="33.8103139" lon="-118.3938679">
  <ele>0.992</ele>
  <time>2026-09-01T01:18:27Z</time>
  <course>188.06</course>
  <speed>0.01414213562373095</speed>
  <fix>3d</fix>
</trkpt>
<trkpt lat="33.810313" lon="-118.393867">
  <ele>1.59</ele>
  <time>2026-09-01T01:18:27Z</time>
  <course>0.0</course>
  <speed>0.0</speed>
  <fix>3d</fix>
</trkpt>
<trkpt lat="33.8103139" lon="-118.393868">
  <ele>0.992</ele>
  <time>2026-09-01T01:18:27Z</time>
  <course>188.05</course>
  <speed>0.01414213562373095</speed>
  <fix>3d</fix>
</trkpt>
<trkpt lat="33.810313" lon="-118.393867">
  <ele>1.59</ele>
  <time>2026-09-01T01:18:27Z</time>
  <course>0.0</course>
  <speed>0.0</speed>
  <fix>3d</fix>
</trkpt>
<trkpt lat="33.8103139" lon="-118.393868">
  <ele>0.993</ele>
  <time>2026-09-01T01:18:27Z</time>
  <course>188.04</course>
  <speed>0.01414213562373095</speed>
  <fix>3d</fix>
</trkpt>
<trkpt lat="33.810313" lon="-118.393867">
  <ele>1.6</ele>
  <time>2026-09-01T01:18:27Z</time>
  <course>0.0</course>
  <speed>0.0</speed>
  <fix>3d</fix>
</trkpt>
<trkpt lat="33.810314" lon="-118.393868">
  <ele>0.994</ele>
  <time>2026-09-01T01:18:27Z</time>
  <course>188.04</course>
  <speed>0.01414213562373095</speed>
  <fix>3d</fix>
</trkpt>
<trkpt lat="33.810313" lon="-118.393867">
  <ele>1.6</ele>
  <time>2026-09-01T01:18:27Z</time>
  <course>0.0</course>
  <speed>0.0</speed>
  <fix>3d</fix>
</trkpt>
<trkpt lat="33.810314" lon="-118.393868">
  <ele>0.997</ele>
  <time>2026-09-01T01:18:27Z</time>
  <course>188.03</course>
  <speed>0.01414213562373095</speed>
  <fix>3d</fix>
</trkpt>
<trkpt lat="33.810313" lon="-118.393867">
  <ele>1.61</ele>
  <time>2026-09-01T01:18:27Z</time>
  <course>0.0</course>
  <speed>0.0</speed>
  <fix>3d</fix>
</trkpt>
<trkpt lat="33.810314" lon="-118.393868">
  <ele>0.998</ele>
  <time>2026-09-01T01:18:27Z</time>
  <course>188.02</course>
  <speed>0.01414213562373095</speed>
  <fix>3d</fix>
</trkpt>
<trkpt lat="33.810313" lon="-118.393867">
  <ele>1.61</ele>
  <time>2026-09-01T01:18:27Z</time>
  <course>0.0</course>
  <speed>0.0</speed>
  <fix>3d</fix>
</trkpt>
<trkpt lat="33.810314" lon="-118.393868">
  <ele>0.999</ele>
  <time>2026-09-01T01:18:27Z</time>
  <course>188.01</course>
  <speed>0.01414213562373095</speed>
  <fix>3d</fix>
</trkpt>
<trkpt lat="33.810313" lon="-118.393867">
  <ele>1.62</ele>
  <time>2026-09-01T01:18:27Z</time>
  <course>0.0</course>
  <speed>0.0</speed>
  <fix>3d</fix>
</trkpt>
<trkpt lat="33.810314" lon="-118.393868">
  <ele>1.0</ele>
  <time>2026-09-01T01:18:27Z</time>
  <course>188.01</course>
  <speed>0.01414213562373095</speed>
  <fix>3d</fix>
</trkpt>
<trkpt lat="33.810313" lon="-118.393867">
  <ele>1.62</ele>
  <time>2026-09-01T01:18:27Z</time>
  <course>0.0</course>
  <speed>0.0</speed>
  <fix>3d</fix>
</trkpt>
<trkpt lat="33.810314" lon="-118.393868">
  <ele>0.999</ele>
  <time>2026-09-01T01:18:27Z</time>
  <course>188.0</course>
  <speed>0.01414213562373095</speed>
  <fix>3d</fix>
</trkpt>
<trkpt lat="33.810313" lon="-118.393867">
  <ele>1.62</ele>
  <time>2026-09-01T01:18:27Z</time>
  <course>0.0</course>
  <speed>0.0</speed>
  <fix>3d</fix>
</trkpt>
<trkpt lat="33.810314" lon="-118.393868">
  <ele>0.998</ele>
  <time>2026-09-01T01:18:27Z</time>
  <course>187.99</course>
  <speed>0.01414213562373095</speed>
  <fix>3d</fix>
</trkpt>
<trkpt lat="33.810313" lon="-118.393867">
  <ele>1.62</ele>
  <time>2026-09-01T01:18:27Z</time>
  <course>0.0</course>
  <speed>0.0</speed>
  <fix>3d</fix>
</trkpt>
<trkpt lat="33.810314" lon="-118.3938681">
  <ele>0.998</ele>
  <time>2026-09-01T01:18:27Z</time>
  <course>187.98</course>
  <speed>0.01414213562373095</speed>
  <fix>3d</fix>
</trkpt>
<trkpt lat="33.810313" lon="-118.393867">
  <ele>1.63</ele>
  <time>2026-09-01T01:18:27Z</time>
  <course>0.0</course>
  <speed>0.0</speed>
  <fix>3d</fix>
</trkpt>
<trkpt lat="33.8103141" lon="-118.3938681">
  <ele>0.997</ele>
  <time>2026-09-01T01:18:27Z</time>
  <course>187.98</course>
  <speed>0.01414213562373095</speed>
  <fix>3d</fix>
</trkpt>
<trkpt lat="33.810313" lon="-118.393867">
  <ele>1.63</ele>
  <time>2026-09-01T01:18:27Z</time>
  <course>0.0</course>
  <speed>0.0</speed>
  <fix>3d</fix>
</trkpt>
<trkpt lat="33.8103141" lon="-118.3938681">
  <ele>0.997</ele>
  <time>2026-09-01T01:18:27Z</time>
  <course>187.97</course>
  <speed>0.01414213562373095</speed>
  <fix>3d</fix>
</trkpt>
<trkpt lat="33.810313" lon="-118.393867">
  <ele>1.64</ele>
  <time>2026-09-01T01:18:27Z</time>
  <course>0.0</course>
  <speed>0.0</speed>
  <fix>3d</fix>
</trkpt>
<trkpt lat="33.8103141" lon="-118.3938681">
  <ele>0.997</ele>
  <time>2026-09-01T01:18:27Z</time>
  <course>187.96</course>
  <speed>0.01414213562373095</speed>
  <fix>3d</fix>
</trkpt>
<trkpt lat="33.810313" lon="-118.393867">
  <ele>1.64</ele>
  <time>2026-09-01T01:18:27Z</time>
  <course>0.0</course>
  <speed>0.0</speed>
  <fix>3d</fix>
</trkpt>
<trkpt lat="33.8103141" lon="-118.3938681">
  <ele>0.999</ele>
  <time>2026-09-01T01:18:27Z</time>
  <course>187.96</course>
  <speed>0.01414213562373095</speed>
  <fix>3d</fix>
</trkpt>
<trkpt lat="33.810313" lon="-118.393867">
  <ele>1.65</ele>
  <time>2026-09-01T01:18:27Z</time>
  <course>0.0</course>
  <speed>0.0</speed>
  <fix>3d</fix>
</trkpt>
<trkpt lat="33.8103141" lon="-118.3938681">
  <ele>1.001</ele>
  <time>2026-09-01T01:18:27Z</time>
  <course>187.95</course>
  <speed>0.01414213562373095</speed>
  <fix>3d</fix>
</trkpt>
<trkpt lat="33.810313" lon="-118.393867">
  <ele>1.65</ele>
  <time>2026-09-01T01:18:27Z</time>
  <course>0.0</course>
  <speed>0.0</speed>
  <fix>3d</fix>
</trkpt>
<trkpt lat="33.8103141" lon="-118.3938681">
  <ele>1.003</ele>
  <time>2026-09-01T01:18:27Z</time>
  <course>187.94</course>
  <speed>0.01414213562373095</speed>
  <fix>3d</fix>
</trkpt>
<trkpt lat="33.810313" lon="-118.393867">
  <ele>1.66</ele>
  <time>2026-09-01T01:18:27Z</time>
  <course>0.0</course>
  <speed>0.0</speed>
  <fix>3d</fix>
</trkpt>
<trkpt lat="33.8103141" lon="-118.3938682">
  <ele>1.004</ele>
  <time>2026-09-01T01:18:27Z</time>
  <course>187.94</course>
  <speed>0.01414213562373095</speed>
  <fix>3d</fix>
</trkpt>
<trkpt lat="33.810313" lon="-118.393867">
  <ele>1.66</ele>
  <time>2026-09-01T01:18:27Z</time>
  <course>0.0</course>
  <speed>0.0</speed>
  <fix>3d</fix>
</trkpt>
<trkpt lat="33.8103142" lon="-118.3938682">
  <ele>1.004</ele>
  <time>2026-09-01T01:18:27Z</time>
  <course>187.93</course>
  <speed>0.01414213562373095</speed>
  <fix>3d</fix>
</trkpt>
<trkpt lat="33.810313" lon="-118.393867">
  <ele>1.67</ele>
  <time>2026-09-01T01:18:27Z</time>
  <course>0.0</course>
  <speed>0.0</speed>
  <fix>3d</fix>
</trkpt>
<trkpt lat="33.8103142" lon="-118.3938682">
  <ele>1.002</ele>
  <time>2026-09-01T01:18:27Z</time>
  <course>187.92</course>
  <speed>0.01414213562373095</speed>
  <fix>3d</fix>
</trkpt>
<trkpt lat="33.810313" lon="-118.393867">
  <ele>1.67</ele>
  <time>2026-09-01T01:18:27Z</time>
  <course>0.0</course>
  <speed>0.0</speed>
  <fix>3d</fix>
</trkpt>
<trkpt lat="33.8103142" lon="-118.3938682">
  <ele>0.999</ele>
  <time>2026-09-01T01:18:27Z</time>
  <course>187.91</course>
  <speed>0.01414213562373095</speed>
  <fix>3d</fix>
</trkpt>
<trkpt lat="33.810313" lon="-118.393867">
  <ele>1.68</ele>
  <time>2026-09-01T01:18:27Z</time>
  <course>0.0</course>
  <speed>0.0</speed>
  <fix>3d</fix>
</trkpt>
<trkpt lat="33.8103142" lon="-118.3938682">
  <ele>0.997</ele>
  <time>2026-09-01T01:18:27Z</time>
  <course>187.91</course>
  <speed>0.01414213562373095</speed>
  <fix>3d</fix>
</trkpt>
<trkpt lat="33.810313" lon="-118.393867">
  <ele>1.68</ele>
  <time>2026-09-01T01:18:27Z</time>
  <course>0.0</course>
  <speed>0.0</speed>
  <fix>3d</fix>
</trkpt>
<trkpt lat="33.8103142" lon="-118.3938682">
  <ele>0.997</ele>
  <time>2026-09-01T01:18:27Z</time>
  <course>187.9</course>
  <speed>0.01414213562373095</speed>
  <fix>3d</fix>
</trkpt>
<trkpt lat="33.810313" lon="-118.393867">
  <ele>1.69</ele>
  <time>2026-09-01T01:18:27Z</time>
  <course>0.0</course>
  <speed>0.0</speed>
  <fix>3d</fix>
</trkpt>
<trkpt lat="33.8103142" lon="-118.3938682">
  <ele>0.998</ele>
  <time>2026-09-01T01:18:27Z</time>
  <course>187.89</course>
  <speed>0.01414213562373095</speed>
  <fix>3d</fix>
</trkpt>
<trkpt lat="33.810313" lon="-118.393867">
  <ele>1.69</ele>
  <time>2026-09-01T01:18:27Z</time>
  <course>0.0</course>
  <speed>0.0</speed>
  <fix>3d</fix>
</trkpt>
<trkpt lat="33.8103142" lon="-118.3938682">
  <ele>1.0</ele>
  <time>2026-09-01T01:18:27Z</time>
  <course>187.89</course>
  <speed>0.01414213562373095</speed>
  <fix>3d</fix>
</trkpt>
<trkpt lat="33.810313" lon="-118.393867">
  <ele>1.7</ele>
  <time>2026-09-01T01:18:27Z</time>
  <course>0.0</course>
  <speed>0.0</speed>
  <fix>3d</fix>
</trkpt>
<trkpt lat="33.8103143" lon="-118.3938683">
  <ele>1.001</ele>
  <time>2026-09-01T01:18:27Z</time>
  <course>187.88</course>
  <speed>0.01414213562373095</speed>
  <fix>3d</fix>
</trkpt>
<trkpt lat="33.810313" lon="-118.393867">
  <ele>1.7</ele>
  <time>2026-09-01T01:18:27Z</time>
  <course>0.0</course>
  <speed>0.0</speed>
  <fix>3d</fix>
</trkpt>
<trkpt lat="33.8103143" lon="-118.3938683">
  <ele>1.002</ele>
  <time>2026-09-01T01:18:27Z</time>
  <course>187.88</course>
  <speed>0.01414213562373095</speed>
  <fix>3d</fix>
</trkpt>
<trkpt lat="33.810313" lon="-118.393867">
  <ele>1.71</ele>
  <time>2026-09-01T01:18:27Z</time>
  <course>0.0</course>
  <speed>0.0</speed>
  <fix>3d</fix>
</trkpt>
<trkpt lat="33.8103143" lon="-118.3938683">
  <ele>1.002</ele>
  <time>2026-09-01T01:18:27Z</time>
  <course>187.87</course>
  <speed>0.01414213562373095</speed>
  <fix>3d</fix>
</trkpt>
<trkpt lat="33.810313" lon="-118.393867">
  <ele>1.71</ele>
  <time>2026-09-01T01:18:27Z</time>
  <course>0.0</course>
  <speed>0.0</speed>
  <fix>3d</fix>
</trkpt>
<trkpt lat="33.8103143" lon="-118.3938683">
  <ele>1.002</ele>
  <time>2026-09-01T01:18:27Z</time>
  <course>187.86</course>
  <speed>0.01414213562373095</speed>
  <fix>3d</fix>
</trkpt>
<trkpt lat="33.810313" lon="-118.393867">
  <ele>1.72</ele>
  <time>2026-09-01T01:18:27Z</time>
  <course>0.0</course>
  <speed>0.0</speed>
  <fix>3d</fix>
</trkpt>
<trkpt lat="33.8103143" lon="-118.3938683">
  <ele>1.001</ele>
  <time>2026-09-01T01:18:27Z</time>
  <course>187.86</course>
  <speed>0.01414213562373095</speed>
  <fix>3d</fix>
</trkpt>
<trkpt lat="33.810313" lon="-118.393867">
  <ele>1.72</ele>
  <time>2026-09-01T01:18:27Z</time>
  <course>0.0</course>
  <speed>0.0</speed>
  <fix>3d</fix>
</trkpt>
<trkpt lat="33.8103143" lon="-118.3938683">
  <ele>1.0</ele>
  <time>2026-09-01T01:18:27Z</time>
  <course>187.85</course>
  <speed>0.01414213562373095</speed>
  <fix>3d</fix>
</trkpt>
<trkpt lat="33.810313" lon="-118.393867">
  <ele>1.73</ele>
  <time>2026-09-01T01:18:27Z</time>
  <course>0.0</course>
  <speed>0.0</speed>
  <fix>3d</fix>
</trkpt>
<trkpt lat="33.8103143" lon="-118.3938683">
  <ele>0.999</ele>
  <time>2026-09-01T01:18:27Z</time>
  <course>187.84</course>
  <speed>0.01414213562373095</speed>
  <fix>3d</fix>
</trkpt>
<trkpt lat="33.810313" lon="-118.393867">
  <ele>1.73</ele>
  <time>2026-09-01T01:18:27Z</time>
  <course>0.0</course>
  <speed>0.0</speed>
  <fix>3d</fix>
</trkpt>
<trkpt lat="33.8103144" lon="-118.3938684">
  <ele>0.999</ele>
  <time>2026-09-01T01:18:27Z</time>
  <course>187.84</course>
  <speed>0.01414213562373095</speed>
  <fix>3d</fix>
</trkpt>
<trkpt lat="33.810313" lon="-118.393867">
  <ele>1.74</ele>
  <time>2026-09-01T01:18:27Z</time>
  <course>0.0</course>
  <speed>0.0</speed>
  <fix>3d</fix>
</trkpt>
<trkpt lat="33.8103144" lon="-118.3938684">
  <ele>0.998</ele>
  <time>2026-09-01T01:18:27Z</time>
  <course>187.83</course>
  <speed>0.01414213562373095</speed>
  <fix>3d</fix>
</trkpt>
<trkpt lat="33.810313" lon="-118.393867">
  <ele>1.74</ele>
  <time>2026-09-01T01:18:27Z</time>
  <course>0.0</course>
  <speed>0.0</speed>
  <fix>3d</fix>
</trkpt>
<trkpt lat="33.8103144" lon="-118.3938684">
  <ele>0.998</ele>
  <time>2026-09-01T01:18:27Z</time>
  <course>187.82</course>
  <speed>0.01414213562373095</speed>
  <fix>3d</fix>
</trkpt>
<trkpt lat="33.810313" lon="-118.393867">
  <ele>1.75</ele>
  <time>2026-09-01T01:18:27Z</time>
  <course>0.0</course>
  <speed>0.0</speed>
  <fix>3d</fix>
</trkpt>
<trkpt lat="33.8103144" lon="-118.3938684">
  <ele>0.999</ele>
  <time>2026-09-01T01:18:27Z</time>
  <course>187.82</course>
  <speed>0.01414213562373095</speed>
  <fix>3d</fix>
</trkpt>
<trkpt lat="33.810313" lon="-118.393867">
  <ele>1.75</ele>
  <time>2026-09-01T01:18:27Z</time>
  <course>0.0</course>
  <speed>0.0</speed>
  <fix>3d</fix>
</trkpt>
<trkpt lat="33.8103144" lon="-118.3938684">
  <ele>1.0</ele>
  <time>2026-09-01T01:18:27Z</time>
  <course>187.81</course>
  <speed>0.01414213562373095</speed>
  <fix>3d</fix>
</trkpt>
<trkpt lat="33.810313" lon="-118.393867">
  <ele>1.76</ele>
  <time>2026-09-01T01:18:27Z</time>
  <course>0.0</course>
  <speed>0.0</speed>
  <fix>3d</fix>
</trkpt>
<trkpt lat="33.8103144" lon="-118.3938684">
  <ele>1.002</ele>
  <time>2026-09-01T01:18:27Z</time>
  <course>187.8</course>
  <speed>0.01414213562373095</speed>
  <fix>3d</fix>
</trkpt>
<trkpt lat="33.810313" lon="-118.393867">
  <ele>1.76</ele>
  <time>2026-09-01T01:18:27Z</time>
  <course>0.0</course>
  <speed>0.0</speed>
  <fix>3d</fix>
</trkpt>
<trkpt lat="33.8103145" lon="-118.3938684">
  <ele>1.002</ele>
  <time>2026-09-01T01:18:27Z</time>
  <course>187.8</course>
  <speed>0.01414213562373095</speed>
  <fix>3d</fix>
</trkpt>
<trkpt lat="33.810313" lon="-118.393867">
  <ele>1.77</ele>
  <time>2026-09-01T01:18:27Z</time>
  <course>0.0</course>
  <speed>0.0</speed>
  <fix>3d</fix>
</trkpt>
<trkpt lat="33.8103145" lon="-118.3938685">
  <ele>1.003</ele>
  <time>2026-09-01T01:18:27Z</time>
  <course>187.79</course>
  <speed>0.01414213562373095</speed>
  <fix>3d</fix>
</trkpt>
<trkpt lat="33.810313" lon="-118.393867">
  <ele>1.77</ele>
  <time>2026-09-01T01:18:27Z</time>
  <course>0.0</course>
  <speed>0.0</speed>
  <fix>3d</fix>
</trkpt>
<trkpt lat="33.8103145" lon="-118.3938685">
  <ele>1.002</ele>
  <time>2026-09-01T01:18:27Z</time>
  <course>187.78</course>
  <speed>0.01414213562373095</speed>
  <fix>3d</fix>
</trkpt>
<trkpt lat="33.810313" lon="-118.393867">
  <ele>1.78</ele>
  <time>2026-09-01T01:18:27Z</time>
  <course>0.0</course>
  <speed>0.0</speed>
  <fix>3d</fix>
</trkpt>
<trkpt lat="33.8103145" lon="-118.3938685">
  <ele>1.0</ele>
  <time>2026-09-01T01:18:27Z</time>
  <course>187.78</course>
  <speed>0.01414213562373095</speed>
  <fix>3d</fix>
</trkpt>
<trkpt lat="33.810313" lon="-118.393867">
  <ele>1.78</ele>
  <time>2026-09-01T01:18:27Z</time>
  <course>0.0</course>
  <speed>0.0</speed>
  <fix>3d</fix>
</trkpt>
<trkpt lat="33.8103145" lon="-118.3938685">
  <ele>0.998</ele>
  <time>2026-09-01T01:18:27Z</time>
  <course>187.77</course>
  <speed>0.01414213562373095</speed>
  <fix>3d</fix>
</trkpt>
<trkpt lat="33.810313" lon="-118.393867">
  <ele>1.79</ele>
  <time>2026-09-01T01:18:27Z</time>
  <course>0.0</course>
  <speed>0.0</speed>
  <fix>3d</fix>
</trkpt>
<trkpt lat="33.8103145" lon="-118.3938685">
  <ele>0.997</ele>
  <time>2026-09-01T01:18:27Z</time>
  <course>187.76</course>
  <speed>0.01414213562373095</speed>
  <fix>3d</fix>
</trkpt>
<trkpt lat="33.810313" lon="-118.393867">
  <ele>1.79</ele>
  <time>2026-09-01T01:18:27Z</time>
  <course>0.0</course>
  <speed>0.0</speed>
  <fix>3d</fix>
</trkpt>
<trkpt lat="33.8103146" lon="-118.3938685">
  <ele>0.997</ele>
  <time>2026-09-01T01:18:27Z</time>
  <course>187.76</course>
  <speed>0.01414213562373095</speed>
  <fix>3d</fix>
</trkpt>
<trkpt lat="33.810313" lon="-118.393867">
  <ele>1.8</ele>
  <time>2026-09-01T01:18:27Z</time>
  <course>0.0</course>
  <speed>0.0</speed>
  <fix>3d</fix>
</trkpt>
<trkpt lat="33.8103146" lon="-118.3938685">
  <ele>0.998</ele>
  <time>2026-09-01T01:18:27Z</time>
  <course>187.75</course>
  <speed>0.01414213562373095</speed>
  <fix>3d</fix>
</trkpt>
<trkpt lat="33.810313" lon="-118.393867">
  <ele>1.8</ele>
  <time>2026-09-01T01:18:27Z</time>
  <course>0.0</course>
  <speed>0.0</speed>
  <fix>3d</fix>
</trkpt>
<trkpt lat="33.8103146" lon="-118.3938686">
  <ele>0.999</ele>
  <time>2026-09-01T01:18:27Z</time>
  <course>187.74</course>
  <speed>0.01414213562373095</speed>
  <fix>3d</fix>
</trkpt>
<trkpt lat="33.810313" lon="-118.393867">
  <ele>1.8</ele>
  <time>2026-09-01T01:18:27Z</time>
  <course>0.0</course>
  <speed>0.0</speed>
  <fix>3d</fix>
</trkpt>
<trkpt lat="33.8103146" lon="-118.3938686">
  <ele>1.001</ele>
  <time>2026-09-01T01:18:27Z</time>
  <course>187.74</course>
  <speed>0.01414213562373095</speed>
  <fix>3d</fix>
</trkpt>
<trkpt lat="33.810313" lon="-118.393867">
  <ele>1.8</ele>
  <time>2026-09-01T01:18:27Z</time>
  <course>0.0</course>
  <speed>0.0</speed>
  <fix>3d</fix>
</trkpt>
<trkpt lat="33.8103146" lon="-118.3938686">
  <ele>1.003</ele>
  <time>2026-09-01T01:18:27Z</time>
  <course>187.73</course>
  <speed>0.01414213562373095</speed>
  <fix>3d</fix>
</trkpt>
<trkpt lat="33.810313" lon="-118.393867">
  <ele>1.81</ele>
  <time>2026-09-01T01:18:27Z</time>
  <course>0.0</course>
  <speed>0.0</speed>
  <fix>3d</fix>
</trkpt>
<trkpt lat="33.8103146" lon="-118.3938686">
  <ele>1.004</ele>
  <time>2026-09-01T01:18:27Z</time>
  <course>187.73</course>
  <speed>0.01414213562373095</speed>
  <fix>3d</fix>
</trkpt>
<trkpt lat="33.810313" lon="-118.393867">
  <ele>1.81</ele>
  <time>2026-09-01T01:18:27Z</time>
  <course>0.0</course>
  <speed>0.0</speed>
  <fix>3d</fix>
</trkpt>
<trkpt lat="33.8103146" lon="-118.3938686">
  <ele>1.004</ele>
  <time>2026-09-01T01:18:27Z</time>
  <course>187.72</course>
  <speed>0.01414213562373095</speed>
  <fix>3d</fix>
</trkpt>
<trkpt lat="33.810313" lon="-118.393867">
  <ele>1.82</ele>
  <time>2026-09-01T01:18:27Z</time>
  <course>0.0</course>
  <speed>0.0</speed>
  <fix>3d</fix>
</trkpt>
<trkpt lat="33.8103147" lon="-118.3938686">
  <ele>1.002</ele>
  <time>2026-09-01T01:18:27Z</time>
  <course>187.71</course>
  <speed>0.01414213562373095</speed>
  <fix>3d</fix>
</trkpt>
<trkpt lat="33.810313" lon="-118.393867">
  <ele>1.82</ele>
  <time>2026-09-01T01:18:27Z</time>
  <course>0.0</course>
  <speed>0.0</speed>
  <fix>3d</fix>
</trkpt>
<trkpt lat="33.8103147" lon="-118.3938687">
  <ele>1.0</ele>
  <time>2026-09-01T01:18:27Z</time>
  <course>187.71</course>
  <speed>0.022360679774997897</speed>
  <fix>3d</fix>
</trkpt>
<trkpt lat="33.810313" lon="-118.393867">
  <ele>1.83</ele>
  <time>2026-09-01T01:18:27Z</time>
  <course>0.0</course>
  <speed>0.0</speed>
  <fix>3d</fix>
</trkpt>
<trkpt lat="33.8103147" lon="-118.3938687">
  <ele>0.998</ele>
  <time>2026-09-01T01:18:27Z</time>
  <course>187.7</course>
  <speed>0.022360679774997897</speed>
  <fix>3d</fix>
</trkpt>
<trkpt lat="33.810313" lon="-118.393867">
  <ele>1.83</ele>
  <time>2026-09-01T01:18:27Z</time>
  <course>0.0</course>
  <speed>0.0</speed>
  <fix>3d</fix>
</trkpt>
<trkpt lat="33.8103147" lon="-118.3938687">
  <ele>0.997</ele>
  <time>2026-09-01T01:18:27Z</time>
  <course>187.69</course>
  <speed>0.022360679774997897</speed>
  <fix>3d</fix>
</trkpt>
<trkpt lat="33.810313" lon="-118.393867">
  <ele>1.84</ele>
  <time>2026-09-01T01:18:27Z</time>
  <course>0.0</course>
  <speed>0.0</speed>
  <fix>3d</fix>
</trkpt>
<trkpt lat="33.8103147" lon="-118.3938687">
  <ele>0.997</ele>
  <time>2026-09-01T01:18:27Z</time>
  <course>187.69</course>
  <speed>0.022360679774997897</speed>
  <fix>3d</fix>
</trkpt>
<trkpt lat="33.810313" lon="-118.393867">
  <ele>1.84</ele>
  <time>2026-09-01T01:18:27Z</time>
  <course>0.0</course>
  <speed>0.0</speed>
  <fix>3d</fix>
</trkpt>
<trkpt lat="33.8103148" lon="-118.3938687">
  <ele>0.999</ele>
  <time>2026-09-01T01:18:27Z</time>
  <course>187.68</course>
  <speed>0.022360679774997897</speed>
  <fix>3d</fix>
</trkpt>
<trkpt lat="33.810313" lon="-118.393867">
  <ele>1.85</ele>
  <time>2026-09-01T01:18:27Z</time>
  <course>0.0</course>
  <speed>0.0</speed>
  <fix>3d</fix>
</trkpt>
<trkpt lat="33.8103148" lon="-118.3938687">
  <ele>1.0</ele>
  <time>2026-09-01T01:18:27Z</time>
  <course>187.68</course>
  <speed>0.022360679774997897</speed>
  <fix>3d</fix>
</trkpt>
<trkpt lat="33.810313" lon="-118.393867">
  <ele>1.85</ele>
  <time>2026-09-01T01:18:27Z</time>
  <course>0.0</course>
  <speed>0.0</speed>
  <fix>3d</fix>
</trkpt>
<trkpt lat="33.8103148" lon="-118.3938687">
  <ele>1.002</ele>
  <time>2026-09-01T01:18:27Z</time>
  <course>187.67</course>
  <speed>0.022360679774997897</speed>
  <fix>3d</fix>
</trkpt>
<trkpt lat="33.810313" lon="-118.393867">
  <ele>1.86</ele>
  <time>2026-09-01T01:18:27Z</time>
  <course>0.0</course>
  <speed>0.0</speed>
  <fix>3d</fix>
</trkpt>
<trkpt lat="33.8103148" lon="-118.3938688">
  <ele>1.003</ele>
  <time>2026-09-01T01:18:27Z</time>
  <course>187.66</course>
  <speed>0.022360679774997897</speed>
  <fix>3d</fix>
</trkpt>
<trkpt lat="33.810313" lon="-118.393867">
  <ele>1.86</ele>
  <time>2026-09-01T01:18:27Z</time>
  <course>0.0</course>
  <speed>0.0</speed>
  <fix>3d</fix>
</trkpt>
<trkpt lat="33.8103148" lon="-118.3938688">
  <ele>1.003</ele>
  <time>2026-09-01T01:18:27Z</time>
  <course>187.66</course>
  <speed>0.022360679774997897</speed>
  <fix>3d</fix>
</trkpt>
<trkpt lat="33.810313" lon="-118.393867">
  <ele>1.87</ele>
  <time>2026-09-01T01:18:27Z</time>
  <course>0.0</course>
  <speed>0.0</speed>
  <fix>3d</fix>
</trkpt>
<trkpt lat="33.8103148" lon="-118.3938688">
  <ele>1.001</ele>
  <time>2026-09-01T01:18:27Z</time>
  <course>187.65</course>
  <speed>0.022360679774997897</speed>
  <fix>3d</fix>
</trkpt>
<trkpt lat="33.810313" lon="-118.393867">
  <ele>1.87</ele>
  <time>2026-09-01T01:18:27Z</time>
  <course>0.0</course>
  <speed>0.0</speed>
  <fix>3d</fix>
</trkpt>
<trkpt lat="33.8103149" lon="-118.3938688">
  <ele>0.999</ele>
  <time>2026-09-01T01:18:27Z</time>
  <course>187.64</course>
  <speed>0.022360679774997897</speed>
  <fix>3d</fix>
</trkpt>
<trkpt lat="33.810313" lon="-118.393867">
  <ele>1.88</ele>
  <time>2026-09-01T01:18:27Z</time>
  <course>0.0</course>
  <speed>0.0</speed>
  <fix>3d</fix>
</trkpt>
<trkpt lat="33.8103149" lon="-118.3938688">
  <ele>0.995</ele>
  <time>2026-09-01T01:18:27Z</time>
  <course>187.64</course>
  <speed>0.022360679774997897</speed>
  <fix>3d</fix>
</trkpt>
<trkpt lat="33.810313" lon="-118.393867">
  <ele>1.88</ele>
  <time>2026-09-01T01:18:27Z</time>
  <course>0.0</course>
  <speed>0.0</speed>
  <fix>3d</fix>
</trkpt>
<trkpt lat="33.8103149" lon="-118.3938688">
  <ele>0.992</ele>
  <time>2026-09-01T01:18:27Z</time>
  <course>187.63</course>
  <speed>0.022360679774997897</speed>
  <fix>3d</fix>
</trkpt>
<trkpt lat="33.810313" lon="-118.393867">
  <ele>1.89</ele>
  <time>2026-09-01T01:18:27Z</time>
  <course>0.0</course>
  <speed>0.0</speed>
  <fix>3d</fix>
</trkpt>
<trkpt lat="33.8103149" lon="-118.3938689">
  <ele>0.991</ele>
  <time>2026-09-01T01:18:27Z</time>
  <course>187.63</course>
  <speed>0.022360679774997897</speed>
  <fix>3d</fix>
</trkpt>
<trkpt lat="33.810313" lon="-118.393867">
  <ele>1.89</ele>
  <time>2026-09-01T01:18:27Z</time>
  <course>0.0</course>
  <speed>0.0</speed>
  <fix>3d</fix>
</trkpt>
<trkpt lat="33.8103149" lon="-118.3938689">
  <ele>0.99</ele>
  <time>2026-09-01T01:18:27Z</time>
  <course>187.62</course>
  <speed>0.022360679774997897</speed>
  <fix>3d</fix>
</trkpt>
<trkpt lat="33.810313" lon="-118.393867">
  <ele>1.9</ele>
  <time>2026-09-01T01:18:27Z</time>
  <course>0.0</course>
  <speed>0.0</speed>
  <fix>3d</fix>
</trkpt>
<trkpt lat="33.810315" lon="-118.3938689">
  <ele>0.991</ele>
  <time>2026-09-01T01:18:27Z</time>
  <course>187.61</course>
  <speed>0.022360679774997897</speed>
  <fix>3d</fix>
</trkpt>
<trkpt lat="33.810313" lon="-118.393867">
  <ele>1.9</ele>
  <time>2026-09-01T01:18:27Z</time>
  <course>0.0</course>
  <speed>0.0</speed>
  <fix>3d</fix>
</trkpt>
<trkpt lat="33.810315" lon="-118.3938689">
  <ele>0.992</ele>
  <time>2026-09-01T01:18:27Z</time>
  <course>187.61</course>
  <speed>0.022360679774997897</speed>
  <fix>3d</fix>
</trkpt>
<trkpt lat="33.810313" lon="-118.393867">
  <ele>1.9</ele>
  <time>2026-09-01T01:18:27Z</time>
  <course>0.0</course>
  <speed>0.0</speed>
  <fix>3d</fix>
</trkpt>
<trkpt lat="33.810315" lon="-118.3938689">
  <ele>0.995</ele>
  <time>2026-09-01T01:18:27Z</time>
  <course>187.6</course>
  <speed>0.022360679774997897</speed>
  <fix>3d</fix>
</trkpt>
<trkpt lat="33.810313" lon="-118.393867">
  <ele>1.9</ele>
  <time>2026-09-01T01:18:27Z</time>
  <course>0.0</course>
  <speed>0.0</speed>
  <fix>3d</fix>
</trkpt>
<trkpt lat="33.810315" lon="-118.393869">
  <ele>0.997</ele>
  <time>2026-09-01T01:18:27Z</time>
  <course>187.6</course>
  <speed>0.022360679774997897</speed>
  <fix>3d</fix>
</trkpt>
<trkpt lat="33.810313" lon="-118.393867">
  <ele>1.91</ele>
  <time>2026-09-01T01:18:27Z</time>
  <course>0.0</course>
  <speed>0.0</speed>
  <fix>3d</fix>
</trkpt>
<trkpt lat="33.810315" lon="-118.393869">
  <ele>0.997</ele>
  <time>2026-09-01T01:18:27Z</time>
  <course>187.59</course>
  <speed>0.022360679774997897</speed>
  <fix>3d</fix>
</trkpt>
<trkpt lat="33.810313" lon="-118.393867">
  <ele>1.91</ele>
  <time>2026-09-01T01:18:27Z</time>
  <course>0.0</course>
  <speed>0.0</speed>
  <fix>3d</fix>
</trkpt>
<trkpt lat="33.810315" lon="-118.393869">
  <ele>0.997</ele>
  <time>2026-09-01T01:18:27Z</time>
  <course>187.58</course>
  <speed>0.022360679774997897</speed>
  <fix>3d</fix>
</trkpt>
<trkpt lat="33.810313" lon="-118.393867">
  <ele>1.92</ele>
  <time>2026-09-01T01:18:27Z</time>
  <course>0.0</course>
  <speed>0.0</speed>
  <fix>3d</fix>
</trkpt>
<trkpt lat="33.8103151" lon="-118.393869">
  <ele>0.997</ele>
  <time>2026-09-01T01:18:27Z</time>
  <course>187.58</course>
  <speed>0.022360679774997897</speed>
  <fix>3d</fix>
</trkpt>
<trkpt lat="33.810313" lon="-118.393867">
  <ele>1.92</ele>
  <time>2026-09-01T01:18:27Z</time>
  <course>0.0</course>
  <speed>0.0</speed>
  <fix>3d</fix>
</trkpt>
<trkpt lat="33.8103151" lon="-118.393869">
  <ele>0.997</ele>
  <time>2026-09-01T01:18:27Z</time>
  <course>187.57</course>
  <speed>0.022360679774997897</speed>
  <fix>3d</fix>
</trkpt>
<trkpt lat="33.810313" lon="-118.393867">
  <ele>1.93</ele>
  <time>2026-09-01T01:18:27Z</time>
  <course>0.0</course>
  <speed>0.0</speed>
  <fix>3d</fix>
</trkpt>
<trkpt lat="33.8103151" lon="-118.393869">
  <ele>0.997</ele>
  <time>2026-09-01T01:18:27Z</time>
  <course>187.57</course>
  <speed>0.022360679774997897</speed>
  <fix>3d</fix>
</trkpt>
<trkpt lat="33.810313" lon="-118.393867">
  <ele>1.93</ele>
  <time>2026-09-01T01:18:27Z</time>
  <course>0.0</course>
  <speed>0.0</speed>
  <fix>3d</fix>
</trkpt>
<trkpt lat="33.8103151" lon="-118.3938691">
  <ele>0.999</ele>
  <time>2026-09-01T01:18:27Z</time>
  <course>187.56</course>
  <speed>0.022360679774997897</speed>
  <fix>3d</fix>
</trkpt>
<trkpt lat="33.810313" lon="-118.393867">
  <ele>1.94</ele>
  <time>2026-09-01T01:18:27Z</time>
  <course>0.0</course>
  <speed>0.0</speed>
  <fix>3d</fix>
</trkpt>
<trkpt lat="33.8103151" lon="-118.3938691">
  <ele>1.001</ele>
  <time>2026-09-01T01:18:27Z</time>
  <course>187.56</course>
  <speed>0.022360679774997897</speed>
  <fix>3d</fix>
</trkpt>
<trkpt lat="33.810313" lon="-118.393867">
  <ele>1.94</ele>
  <time>2026-09-01T01:18:27Z</time>
  <course>0.0</course>
  <speed>0.0</speed>
  <fix>3d</fix>
</trkpt>
<trkpt lat="33.8103152" lon="-118.3938691">
  <ele>1.003</ele>
  <time>2026-09-01T01:18:27Z</time>
  <course>187.55</course>
  <speed>0.022360679774997897</speed>
  <fix>3d</fix>
</trkpt>
<trkpt lat="33.810313" lon="-118.393867">
  <ele>1.95</ele>
  <time>2026-09-01T01:18:27Z</time>
  <course>0.0</course>
  <speed>0.0</speed>
  <fix>3d</fix>
</trkpt>
<trkpt lat="33.8103152" lon="-118.3938691">
  <ele>1.005</ele>
  <time>2026-09-01T01:18:27Z</time>
  <course>187.55</course>
  <speed>0.022360679774997897</speed>
  <fix>3d</fix>
</trkpt>
<trkpt lat="33.810313" lon="-118.393867">
  <ele>1.95</ele>
  <time>2026-09-01T01:18:27Z</time>
  <course>0.0</course>
  <speed>0.0</speed>
  <fix>3d</fix>
</trkpt>
<trkpt lat="33.8103152" lon="-118.3938691">
  <ele>1.006</ele>
  <time>2026-09-01T01:18:27Z</time>
  <course>187.54</course>
  <speed>0.022360679774997897</speed>
  <fix>3d</fix>
</trkpt>
<trkpt lat="33.810313" lon="-118.393867">
  <ele>1.96</ele>
  <time>2026-09-01T01:18:27Z</time>
  <course>0.0</course>
  <speed>0.0</speed>
  <fix>3d</fix>
</trkpt>
<trkpt lat="33.8103152" lon="-118.3938691">
  <ele>1.006</ele>
  <time>2026-09-01T01:18:27Z</time>
  <course>187.54</course>
  <speed>0.022360679774997897</speed>
  <fix>3d</fix>
</trkpt>
<trkpt lat="33.810313" lon="-118.393867">
  <ele>1.96</ele>
  <time>2026-09-01T01:18:27Z</time>
  <course>0.0</course>
  <speed>0.0</speed>
  <fix>3d</fix>
</trkpt>
<trkpt lat="33.8103152" lon="-118.3938692">
  <ele>1.004</ele>
  <time>2026-09-01T01:18:27Z</time>
  <course>187.53</course>
  <speed>0.022360679774997897</speed>
  <fix>3d</fix>
</trkpt>
<trkpt lat="33.810313" lon="-118.393867">
  <ele>1.96</ele>
  <time>2026-09-01T01:18:27Z</time>
  <course>0.0</course>
  <speed>0.0</speed>
  <fix>3d</fix>
</trkpt>
<trkpt lat="33.8103153" lon="-118.3938692">
  <ele>1.002</ele>
  <time>2026-09-01T01:18:27Z</time>
  <course>187.53</course>
  <speed>0.022360679774997897</speed>
  <fix>3d</fix>
</trkpt>
<trkpt lat="33.810313" lon="-118.393867">
  <ele>1.96</ele>
  <time>2026-09-01T01:18:27Z</time>
  <course>0.0</course>
  <speed>0.0</speed>
  <fix>3d</fix>
</trkpt>
<trkpt lat="33.8103153" lon="-118.3938692">
  <ele>1.001</ele>
  <time>2026-09-01T01:18:27Z</time>
  <course>187.52</course>
  <speed>0.022360679774997897</speed>
  <fix>3d</fix>
</trkpt>
<trkpt lat="33.810313" lon="-118.393867">
  <ele>1.97</ele>
  <time>2026-09-01T01:18:27Z</time>
  <course>0.0</course>
  <speed>0.0</speed>
  <fix>3d</fix>
</trkpt>
<trkpt lat="33.8103153" lon="-118.3938692">
  <ele>1.0</ele>
  <time>2026-09-01T01:18:27Z</time>
  <course>187.51</course>
  <speed>0.022360679774997897</speed>
  <fix>3d</fix>
</trkpt>
<trkpt lat="33.810313" lon="-118.393867">
  <ele>1.97</ele>
  <time>2026-09-01T01:18:27Z</time>
  <course>0.0</course>
  <speed>0.0</speed>
  <fix>3d</fix>
</trkpt>
<trkpt lat="33.8103153" lon="-118.3938692">
  <ele>1.0</ele>
  <time>2026-09-01T01:18:27Z</time>
  <course>187.51</course>
  <speed>0.022360679774997897</speed>
  <fix>3d</fix>
</trkpt>
<trkpt lat="33.810313" lon="-118.393867">
  <ele>1.98</ele>
  <time>2026-09-01T01:18:27Z</time>
  <course>0.0</course>
  <speed>0.0</speed>
  <fix>3d</fix>
</trkpt>
<trkpt lat="33.8103153" lon="-118.3938693">
  <ele>1.0</ele>
  <time>2026-09-01T01:18:27Z</time>
  <course>187.5</course>
  <speed>0.022360679774997897</speed>
  <fix>3d</fix>
</trkpt>
<trkpt lat="33.810313" lon="-118.393867">
  <ele>1.98</ele>
  <time>2026-09-01T01:18:27Z</time>
  <course>0.0</course>
  <speed>0.0</speed>
  <fix>3d</fix>
</trkpt>
<trkpt lat="33.8103154" lon="-118.3938693">
  <ele>1.001</ele>
  <time>2026-09-01T01:18:27Z</time>
  <course>187.5</course>
  <speed>0.022360679774997897</speed>
  <fix>3d</fix>
</trkpt>
<trkpt lat="33.810313" lon="-118.393867">
  <ele>1.99</ele>
  <time>2026-09-01T01:18:27Z</time>
  <course>0.0</course>
  <speed>0.0</speed>
  <fix>3d</fix>
</trkpt>
<trkpt lat="33.8103154" lon="-118.3938693">
  <ele>1.001</ele>
  <time>2026-09-01T01:18:27Z</time>
  <course>187.49</course>
  <speed>0.022360679774997897</speed>
  <fix>3d</fix>
</trkpt>
<trkpt lat="33.810313" lon="-118.393867">
  <ele>1.99</ele>
  <time>2026-09-01T01:18:27Z</time>
  <course>0.0</course>
  <speed>0.0</speed>
  <fix>3d</fix>
</trkpt>
<trkpt lat="33.8103154" lon="-118.3938693">
  <ele>1.002</ele>
  <time>2026-09-01T01:18:27Z</time>
  <course>187.49</course>
  <speed>0.022360679774997897</speed>
  <fix>3d</fix>
</trkpt>
<trkpt lat="33.810313" lon="-118.393867">
  <ele>2.0</ele>
  <time>2026-09-01T01:18:27Z</time>
  <course>0.0</course>
  <speed>0.0</speed>
  <fix>3d</fix>
</trkpt>
<trkpt lat="33.8103154" lon="-118.3938693">
  <ele>1.002</ele>
  <time>2026-09-01T01:18:27Z</time>
  <course>187.48</course>
  <speed>0.022360679774997897</speed>
  <fix>3d</fix>
</trkpt>
<trkpt lat="33.810313" lon="-118.393867">
  <ele>2.0</ele>
  <time>2026-09-01T01:18:27Z</time>
  <course>0.0</course>
  <speed>0.0</speed>
  <fix>3d</fix>
</trkpt>
<trkpt lat="33.8103154" lon="-118.3938693">
  <ele>1.001</ele>
  <time>2026-09-01T01:18:27Z</time>
  <course>187.48</course>
  <speed>0.022360679774997897</speed>
  <fix>3d</fix>
</trkpt>
<trkpt lat="33.810313" lon="-118.393867">
  <ele>2.01</ele>
  <time>2026-09-01T01:18:27Z</time>
  <course>0.0</course>
  <speed>0.0</speed>
  <fix>3d</fix>
</trkpt>
<trkpt lat="33.8103155" lon="-118.3938694">
  <ele>0.999</ele>
  <time>2026-09-01T01:18:27Z</time>
  <course>187.47</course>
  <speed>0.022360679774997897</speed>
  <fix>3d</fix>
</trkpt>
<trkpt lat="33.810313" lon="-118.393867">
  <ele>2.01</ele>
  <time>2026-09-01T01:18:27Z</time>
  <course>0.0</course>
  <speed>0.0</speed>
  <fix>3d</fix>
</trkpt>
<trkpt lat="33.8103155" lon="-118.3938694">
  <ele>0.998</ele>
  <time>2026-09-01T01:18:27Z</time>
  <course>187.46</course>
  <speed>0.022360679774997897</speed>
  <fix>3d</fix>
</trkpt>
<trkpt lat="33.810313" lon="-118.393867">
  <ele>2.02</ele>
  <time>2026-09-01T01:18:27Z</time>
  <course>0.0</course>
  <speed>0.0</speed>
  <fix>3d</fix>
</trkpt>
<trkpt lat="33.8103155" lon="-118.3938694">
  <ele>0.996</ele>
  <time>2026-09-01T01:18:27Z</time>
  <course>187.46</course>
  <speed>0.022360679774997897</speed>
  <fix>3d</fix>
</trkpt>
<trkpt lat="33.810313" lon="-118.393867">
  <ele>2.02</ele>
  <time>2026-09-01T01:18:27Z</time>
  <course>0.0</course>
  <speed>0.0</speed>
  <fix>3d</fix>
</trkpt>
<trkpt lat="33.8103155" lon="-118.3938694">
  <ele>0.996</ele>
  <time>2026-09-01T01:18:27Z</time>
  <course>187.45</course>
  <speed>0.022360679774997897</speed>
  <fix>3d</fix>
</trkpt>
<trkpt lat="33.810313" lon="-118.393867">
  <ele>2.02</ele>
  <time>2026-09-01T01:18:27Z</time>
  <course>0.0</course>
  <speed>0.0</speed>
  <fix>3d</fix>
</trkpt>
<trkpt lat="33.8103155" lon="-118.3938694">
  <ele>0.998</ele>
  <time>2026-09-01T01:18:27Z</time>
  <course>187.45</course>
  <speed>0.022360679774997897</speed>
  <fix>3d</fix>
</trkpt>
<trkpt lat="33.810313" lon="-118.393867">
  <ele>2.02</ele>
  <time>2026-09-01T01:18:27Z</time>
  <course>0.0</course>
  <speed>0.0</speed>
  <fix>3d</fix>
</trkpt>
<trkpt lat="33.8103156" lon="-118.3938694">
  <ele>0.999</ele>
  <time>2026-09-01T01:18:27Z</time>
  <course>187.44</course>
  <speed>0.022360679774997897</speed>
  <fix>3d</fix>
</trkpt>
<trkpt lat="33.810313" lon="-118.393867">
  <ele>2.03</ele>
  <time>2026-09-01T01:18:27Z</time>
  <course>0.0</course>
  <speed>0.0</speed>
  <fix>3d</fix>
</trkpt>
<trkpt lat="33.8103156" lon="-118.3938695">
  <ele>1.001</ele>
  <time>2026-09-01T01:18:27Z</time>
  <course>187.44</course>
  <speed>0.022360679774997897</speed>
  <fix>3d</fix>
</trkpt>
<trkpt lat="33.810313" lon="-118.393867">
  <ele>2.03</ele>
  <time>2026-09-01T01:18:27Z</time>
  <course>0.0</course>
  <speed>0.0</speed>
  <fix>3d</fix>
</trkpt>
<trkpt lat="33.810313" lon="-118.393867">
  <ele>1.004</ele>
  <time>2026-09-01T01:18:27Z</time>
  <course>187.43</course>
  <speed>0.0</speed>
  <fix>3d</fix>
</trkpt>
<trkpt lat="33.810313" lon="-118.393867">
  <ele>2.04</ele>
  <time>2026-09-01T01:18:27Z</time>
  <course>0.0</course>
  <speed>0.0</speed>
  <fix>3d</fix>
</trkpt>
<trkpt lat="33.810313" lon="-118.393867">
  <ele>1.005</ele>
  <time>2026-09-01T01:18:27Z</time>
  <course>187.43</course>
  <speed>0.0</speed>
  <fix>3d</fix>
</trkpt>
<trkpt lat="33.810313" lon="-118.393867">
  <ele>2.04</ele>
  <time>2026-09-01T01:18:27Z</time>
  <course>0.0</course>
  <speed>0.0</speed>
  <fix>3d</fix>
</trkpt>
<trkpt lat="33.810313" lon="-118.393867">
  <ele>1.006</ele>
  <time>2026-09-01T01:18:27Z</time>
  <course>187.42</course>
  <speed>0.0</speed>
  <fix>3d</fix>
</trkpt>
<trkpt lat="33.810313" lon="-118.393867">
  <ele>2.05</ele>
  <time>2026-09-01T01:18:27Z</time>
  <course>0.0</course>
  <speed>0.0</speed>
  <fix>3d</fix>
</trkpt>
<trkpt lat="33.810313" lon="-118.393867">
  <ele>1.005</ele>
  <time>2026-09-01T01:18:27Z</time>
  <course>187.42</course>
  <speed>0.0</speed>
  <fix>3d</fix>
</trkpt>
<trkpt lat="33.810313" lon="-118.393867">
  <ele>2.05</ele>
  <time>2026-09-01T01:18:27Z</time>
  <course>0.0</course>
  <speed>0.0</speed>
  <fix>3d</fix>
</trkpt>
<trkpt lat="33.810313" lon="-118.393867">
  <ele>1.003</ele>
  <time>2026-09-01T01:18:27Z</time>
  <course>187.41</course>
  <speed>0.0</speed>
  <fix>3d</fix>
</trkpt>
<trkpt lat="33.810313" lon="-118.393867">
  <ele>2.06</ele>
  <time>2026-09-01T01:18:27Z</time>
  <course>0.0</course>
  <speed>0.0</speed>
  <fix>3d</fix>
</trkpt>
<trkpt lat="33.810313" lon="-118.393867">
  <ele>1.001</ele>
  <time>2026-09-01T01:18:27Z</time>
  <course>187.41</course>
  <speed>0.0</speed>
  <fix>3d</fix>
</trkpt>
<trkpt lat="33.810313" lon="-118.393867">
  <ele>2.06</ele>
  <time>2026-09-01T01:18:27Z</time>
  <course>0.0</course>
  <speed>0.0</speed>
  <fix>3d</fix>
</trkpt>
<trkpt lat="33.810313" lon="-118.393867">
  <ele>1.0</ele>
  <time>2026-09-01T01:18:27Z</time>
  <course>187.4</course>
  <speed>0.0</speed>
  <fix>3d</fix>
</trkpt>
<trkpt lat="33.810313" lon="-118.393867">
  <ele>2.07</ele>
  <time>2026-09-01T01:18:27Z</time>
  <course>0.0</course>
  <speed>0.0</speed>
  <fix>3d</fix>
</trkpt>
<trkpt lat="33.810313" lon="-118.393867">
  <ele>0.999</ele>
  <time>2026-09-01T01:18:27Z</time>
  <course>187.4</course>
  <speed>0.0</speed>
  <fix>3d</fix>
</trkpt>
<trkpt lat="33.810313" lon="-118.393867">
  <ele>2.07</ele>
  <time>2026-09-01T01:18:27Z</time>
  <course>0.0</course>
  <speed>0.0</speed>
  <fix>3d</fix>
</trkpt>
<trkpt lat="33.810313" lon="-118.393867">
  <ele>0.999</ele>
  <time>2026-09-01T01:18:27Z</time>
  <course>187.39</course>
  <speed>0.0</speed>
  <fix>3d</fix>
</trkpt>
<trkpt lat="33.810313" lon="-118.393867">
  <ele>2.07</ele>
  <time>2026-09-01T01:18:27Z</time>
  <course>0.0</course>
  <speed>0.0</speed>
  <fix>3d</fix>
</trkpt>
<trkpt lat="33.810313" lon="-118.393867">
  <ele>1.001</ele>
  <time>2026-09-01T01:18:27Z</time>
  <course>187.38</course>
  <speed>0.0</speed>
  <fix>3d</fix>
</trkpt>
<trkpt lat="33.810313" lon="-118.393867">
  <ele>2.07</ele>
  <time>2026-09-01T01:18:27Z</time>
  <course>0.0</course>
  <speed>0.0</speed>
  <fix>3d</fix>
</trkpt>
<trkpt lat="33.810313" lon="-118.393867">
  <ele>1.002</ele>
  <time>2026-09-01T01:18:27Z</time>
  <course>187.38</course>
  <speed>0.0</speed>
  <fix>3d</fix>
</trkpt>
<trkpt lat="33.810313" lon="-118.393867">
  <ele>2.08</ele>
  <time>2026-09-01T01:18:27Z</time>
  <course>0.0</course>
  <speed>0.0</speed>
  <fix>3d</fix>
</trkpt>
<trkpt lat="33.810313" lon="-118.393867">
  <ele>1.004</ele>
  <time>2026-09-01T01:18:27Z</time>
  <course>187.37</course>
  <speed>0.0</speed>
  <fix>3d</fix>
</trkpt>
<trkpt lat="33.810313" lon="-118.393867">
  <ele>2.08</ele>
  <time>2026-09-01T01:18:27Z</time>
  <course>0.0</course>
  <speed>0.0</speed>
  <fix>3d</fix>
</trkpt>
<trkpt lat="33.810313" lon="-118.393867">
  <ele>1.005</ele>
  <time>2026-09-01T01:18:27Z</time>
  <course>187.37</course>
  <speed>0.01</speed>
  <fix>3d</fix>
</trkpt>
<trkpt lat="33.810313" lon="-118.393867">
  <ele>2.09</ele>
  <time>2026-09-01T01:18:27Z</time>
  <course>0.0</course>
  <speed>0.0</speed>
  <fix>3d</fix>
</trkpt>
<trkpt lat="33.810313" lon="-118.393867">
  <ele>1.004</ele>
  <time>2026-09-01T01:18:27Z</time>
  <course>187.36</course>
  <speed>0.01</speed>
  <fix>3d</fix>
</trkpt>
<trkpt lat="33.810313" lon="-118.393867">
  <ele>2.09</ele>
  <time>2026-09-01T01:18:27Z</time>
  <course>0.0</course>
  <speed>0.0</speed>
  <fix>3d</fix>
</trkpt>
<trkpt lat="33.810313" lon="-118.393867">
  <ele>1.004</ele>
  <time>2026-09-01T01:18:27Z</time>
  <course>187.36</course>
  <speed>0.01</speed>
  <fix>3d</fix>
</trkpt>
<trkpt lat="33.810313" lon="-118.393867">
  <ele>2.1</ele>
  <time>2026-09-01T01:18:27Z</time>
  <course>0.0</course>
  <speed>0.0</speed>
  <fix>3d</fix>
</trkpt>
<trkpt lat="33.810313" lon="-118.393867">
  <ele>1.003</ele>
  <time>2026-09-01T01:18:27Z</time>
  <course>187.35</course>
  <speed>0.01</speed>
  <fix>3d</fix>
</trkpt>
<trkpt lat="33.810313" lon="-118.393867">
  <ele>2.1</ele>
  <time>2026-09-01T01:18:27Z</time>
  <course>0.0</course>
  <speed>0.0</speed>
  <fix>3d</fix>
</trkpt>
<trkpt lat="33.810313" lon="-118.393867">
  <ele>1.003</ele>
  <time>2026-09-01T01:18:27Z</time>
  <course>187.35</course>
  <speed>0.01</speed>
  <fix>3d</fix>
</trkpt>
<trkpt lat="33.810313" lon="-118.393867">
  <ele>2.11</ele>
  <time>2026-09-01T01:18:27Z</time>
  <course>0.0</course>
  <speed>0.0</speed>
  <fix>3d</fix>
</trkpt>
<trkpt lat="33.810313" lon="-118.393867">
  <ele>1.001</ele>
  <time>2026-09-01T01:18:27Z</time>
  <course>187.34</course>
  <speed>0.01414213562373095</speed>
  <fix>3d</fix>
</trkpt>
<trkpt lat="33.810313" lon="-118.393867">
  <ele>2.11</ele>
  <time>2026-09-01T01:18:27Z</time>
  <course>0.0</course>
  <speed>0.0</speed>
  <fix>3d</fix>
</trkpt>
<trkpt lat="33.810313" lon="-118.393867">
  <ele>0.983</ele>
  <time>2026-09-01T01:18:27Z</time>
  <course>187.34</course>
  <speed>0.01414213562373095</speed>
  <fix>3d</fix>
</trkpt>
<trkpt lat="33.810313" lon="-118.393867">
  <ele>2.11</ele>
  <time>2026-09-01T01:18:27Z</time>
  <course>275.0</course>
  <speed>0.0</speed>
  <fix>3d</fix>
</trkpt>
<trkpt lat="33.810313" lon="-118.393867">
  <ele>0.959</ele>
  <time>2026-09-01T01:18:27Z</time>
  <course>187.33</course>
  <speed>0.01414213562373095</speed>
  <fix>3d</fix>
</trkpt>
<trkpt lat="33.810313" lon="-118.393867">
  <ele>2.11</ele>
  <time>2026-09-01T01:18:27Z</time>
  <course>275.0</course>
  <speed>0.0</speed>
  <fix>3d</fix>
</trkpt>
<trkpt lat="33.810313" lon="-118.393867">
  <ele>0.936</ele>
  <time>2026-09-01T01:18:27Z</time>
  <course>187.33</course>
  <speed>0.01414213562373095</speed>
  <fix>3d</fix>
</trkpt>
<trkpt lat="33.810313" lon="-118.393867">
  <ele>2.09</ele>
  <time>2026-09-01T01:18:27Z</time>
  <course>275.0</course>
  <speed>0.0</speed>
  <fix>3d</fix>
</trkpt>
<trkpt lat="33.810313" lon="-118.393867">
  <ele>0.916</ele>
  <time>2026-09-01T01:18:27Z</time>
  <course>187.32</course>
  <speed>0.01414213562373095</speed>
  <fix>3d</fix>
</trkpt>
<trkpt lat="33.810313" lon="-118.393867">
  <ele>2.09</ele>
  <time>2026-09-01T01:18:27Z</time>
  <course>275.0</course>
  <speed>0.0</speed>
  <fix>3d</fix>
</trkpt>
<trkpt lat="33.810313" lon="-118.393867">
  <ele>0.902</ele>
  <time>2026-09-01T01:18:27Z</time>
  <course>187.32</course>
  <speed>0.01414213562373095</speed>
  <fix>3d</fix>
</trkpt>
<trkpt lat="33.810313" lon="-118.393867">
  <ele>2.06</ele>
  <time>2026-09-01T01:18:27Z</time>
  <course>95.0</course>
  <speed>0.0</speed>
  <fix>3d</fix>
</trkpt>
<trkpt lat="33.810313" lon="-118.393867">
  <ele>0.894</ele>
  <time>2026-09-01T01:18:27Z</time>
  <course>187.31</course>
  <speed>0.01414213562373095</speed>
  <fix>3d</fix>
</trkpt>
<trkpt lat="33.810313" lon="-118.393867">
  <ele>2.06</ele>
  <time>2026-09-01T01:18:27Z</time>
  <course>95.0</course>
  <speed>0.0</speed>
  <fix>3d</fix>
</trkpt>
<trkpt lat="33.810313" lon="-118.393867">
  <ele>0.889</ele>
  <time>2026-09-01T01:18:27Z</time>
  <course>187.31</course>
  <speed>0.01414213562373095</speed>
  <fix>3d</fix>
</trkpt>
<trkpt lat="33.810313" lon="-118.393867">
  <ele>2.04</ele>
  <time>2026-09-01T01:18:27Z</time>
  <course>95.0</course>
  <speed>0.0</speed>
  <fix>3d</fix>
</trkpt>
<trkpt lat="33.810313" lon="-118.393867">
  <ele>0.887</ele>
  <time>2026-09-01T01:18:27Z</time>
  <course>187.3</course>
  <speed>0.01414213562373095</speed>
  <fix>3d</fix>
</trkpt>
<trkpt lat="33.810313" lon="-118.393867">
  <ele>2.04</ele>
  <time>2026-09-01T01:18:27Z</time>
  <course>95.0</course>
  <speed>0.0</speed>
  <fix>3d</fix>
</trkpt>
<trkpt lat="33.810313" lon="-118.393867">
  <ele>0.889</ele>
  <time>2026-09-01T01:18:27Z</time>
  <course>187.3</course>
  <speed>0.01414213562373095</speed>
  <fix>3d</fix>
</trkpt>
<trkpt lat="33.810313" lon="-118.393867">
  <ele>2.04</ele>
  <time>2026-09-01T01:18:27Z</time>
  <course>95.0</course>
  <speed>0.0</speed>
  <fix>3d</fix>
</trkpt>
<trkpt lat="33.810313" lon="-118.393867">
  <ele>0.892</ele>
  <time>2026-09-01T01:18:27Z</time>
  <course>187.29</course>
  <speed>0.01414213562373095</speed>
  <fix>3d</fix>
</trkpt>
<trkpt lat="33.810313" lon="-118.393867">
  <ele>2.04</ele>
  <time>2026-09-01T01:18:27Z</time>
  <course>95.0</course>
  <speed>0.0</speed>
  <fix>3d</fix>
</trkpt>
<trkpt lat="33.810313" lon="-118.393867">
  <ele>0.895</ele>
  <time>2026-09-01T01:18:27Z</time>
  <course>187.29</course>
  <speed>0.01414213562373095</speed>
  <fix>3d</fix>
</trkpt>
<trkpt lat="33.810313" lon="-118.393867">
  <ele>2.05</ele>
  <time>2026-09-01T01:18:27Z</time>
  <course>94.99</course>
  <speed>0.0</speed>
  <fix>3d</fix>
</trkpt>
<trkpt lat="33.810313" lon="-118.393867">
  <ele>0.898</ele>
  <time>2026-09-01T01:18:27Z</time>
  <course>187.28</course>
  <speed>0.01414213562373095</speed>
  <fix>3d</fix>
</trkpt>
<trkpt lat="33.810313" lon="-118.393867">
  <ele>2.05</ele>
  <time>2026-09-01T01:18:27Z</time>
  <course>94.99</course>
  <speed>0.0</speed>
  <fix>3d</fix>
</trkpt>
<trkpt lat="33.810313" lon="-118.3938671">
  <ele>0.901</ele>
  <time>2026-09-01T01:18:27Z</time>
  <course>187.28</course>
  <speed>0.01414213562373095</speed>
  <fix>3d</fix>
</trkpt>
<trkpt lat="33.8103178" lon="-118.3938878">
  <ele>2.06</ele>
  <time>2026-09-01T01:18:27Z</time>
  <course>94.99</course>
  <speed>0.0</speed>
  <fix>3d</fix>
</trkpt>
<trkpt lat="33.8103131" lon="-118.3938671">
  <ele>0.903</ele>
  <time>2026-09-01T01:18:27Z</time>
  <course>187.27</course>
  <speed>0.01</speed>
  <fix>3d</fix>
</trkpt>
<trkpt lat="33.8103178" lon="-118.3938878">
  <ele>2.06</ele>
  <time>2026-09-01T01:18:27Z</time>
  <course>94.99</course>
  <speed>0.0</speed>
  <fix>3d</fix>
</trkpt>
<trkpt lat="33.8103131" lon="-118.3938672">
  <ele>0.904</ele>
  <time>2026-09-01T01:18:27Z</time>
  <course>187.26</course>
  <speed>0.01</speed>
  <fix>3d</fix>
</trkpt>
<trkpt lat="33.810316" lon="-118.3938883">
  <ele>2.07</ele>
  <time>2026-09-01T01:18:27Z</time>
  <course>125.19</course>
  <speed>0.0</speed>
  <fix>3d</fix>
</trkpt>
<trkpt lat="33.8103131" lon="-118.3938673">
  <ele>0.905</ele>
  <time>2026-09-01T01:18:27Z</time>
  <course>187.26</course>
  <speed>0.0</speed>
  <fix>3d</fix>
</trkpt>
<trkpt lat="33.810316" lon="-118.3938883">
  <ele>2.07</ele>
  <time>2026-09-01T01:18:27Z</time>
  <course>125.19</course>
  <speed>0.0</speed>
  <fix>3d</fix>
</trkpt>
<trkpt lat="33.8103131" lon="-118.3938675">
  <ele>0.905</ele>
  <time>2026-09-01T01:18:27Z</time>
  <course>187.27</course>
  <speed>0.01</speed>
  <fix>3d</fix>
</trkpt>
<trkpt lat="33.8103143" lon="-118.3938885">
  <ele>2.09</ele>
  <time>2026-09-01T01:18:27Z</time>
  <course>107.41</course>
  <speed>0.01</speed>
  <fix>3d</fix>
</trkpt>
<trkpt lat="33.8103131" lon="-118.3938675">
  <ele>0.905</ele>
  <time>2026-09-01T01:18:27Z</time>
  <course>187.29</course>
  <speed>0.03</speed>
  <fix>3d</fix>
</trkpt>
<trkpt lat="33.8103143" lon="-118.3938885">
  <ele>2.09</ele>
  <time>2026-09-01T01:18:27Z</time>
  <course>107.41</course>
  <speed>0.01</speed>
  <fix>3d</fix>
</trkpt>
<trkpt lat="33.8103131" lon="-118.3938677">
  <ele>0.904</ele>
  <time>2026-09-01T01:18:27Z</time>
  <course>187.31</course>
  <speed>0.04</speed>
  <fix>3d</fix>
</trkpt>
<trkpt lat="33.8103125" lon="-118.3938886">
  <ele>2.09</ele>
  <time>2026-09-01T01:18:27Z</time>
  <course>102.15</course>
  <speed>0.03</speed>
  <fix>3d</fix>
</trkpt>
<trkpt lat="33.8103131" lon="-118.3938678">
  <ele>0.902</ele>
  <time>2026-09-01T01:18:27Z</time>
  <course>187.32</course>
  <speed>0.06</speed>
  <fix>3d</fix>
</trkpt>
<trkpt lat="33.8103125" lon="-118.3938886">
  <ele>2.09</ele>
  <time>2026-09-01T01:18:27Z</time>
  <course>102.15</course>
  <speed>0.03</speed>
  <fix>3d</fix>
</trkpt>
<trkpt lat="33.8103131" lon="-118.3938679">
  <ele>0.901</ele>
  <time>2026-09-01T01:18:27Z</time>
  <course>187.32</course>
  <speed>0.07</speed>
  <fix>3d</fix>
</trkpt>
<trkpt lat="33.8103107" lon="-118.3938883">
  <ele>2.1</ele>
  <time>2026-09-01T01:18:27Z</time>
  <course>98.04</course>
  <speed>0.06</speed>
  <fix>3d</fix>
</trkpt>
<trkpt lat="33.8103131" lon="-118.3938679">
  <ele>0.9</ele>
  <time>2026-09-01T01:18:27Z</time>
  <course>187.32</course>
  <speed>0.08</speed>
  <fix>3d</fix>
</trkpt>
<trkpt lat="33.8103107" lon="-118.3938883">
  <ele>2.1</ele>
  <time>2026-09-01T01:18:27Z</time>
  <course>98.04</course>
  <speed>0.06</speed>
  <fix>3d</fix>
</trkpt>
<trkpt lat="33.8103131" lon="-118.393868">
  <ele>0.902</ele>
  <time>2026-09-01T01:18:27Z</time>
  <course>187.32</course>
  <speed>0.09</speed>
  <fix>3d</fix>
</trkpt>
<trkpt lat="33.8103089" lon="-118.3938877">
  <ele>2.11</ele>
  <time>2026-09-01T01:18:27Z</time>
  <course>94.25</course>
  <speed>0.09</speed>
  <fix>3d</fix>
</trkpt>
<trkpt lat="33.8103131" lon="-118.393868">
  <ele>0.903</ele>
  <time>2026-09-01T01:18:27Z</time>
  <course>187.32</course>
  <speed>0.1</speed>
  <fix>3d</fix>
</trkpt>
<trkpt lat="33.8103089" lon="-118.3938877">
  <ele>2.11</ele>
  <time>2026-09-01T01:18:27Z</time>
  <course>94.25</course>
  <speed>0.09</speed>
  <fix>3d</fix>
</trkpt>
<trkpt lat="33.8103131" lon="-118.393868">
  <ele>0.905</ele>
  <time>2026-09-01T01:18:27Z</time>
  <course>187.31</course>
  <speed>0.1004987562112089</speed>
  <fix>3d</fix>
</trkpt>
<trkpt lat="33.8103072" lon="-118.3938869">
  <ele>2.12</ele>
  <time>2026-09-01T01:18:27Z</time>
  <course>90.08</course>
  <speed>0.11</speed>
  <fix>3d</fix>
</trkpt>
<trkpt lat="33.8103131" lon="-118.393868">
  <ele>0.905</ele>
  <time>2026-09-01T01:18:27Z</time>
  <course>187.28</course>
  <speed>0.1118033988749895</speed>
  <fix>3d</fix>
</trkpt>
<trkpt lat="33.8103072" lon="-118.3938869">
  <ele>2.12</ele>
  <time>2026-09-01T01:18:27Z</time>
  <course>90.08</course>
  <speed>0.11</speed>
  <fix>3d</fix>
</trkpt>
<trkpt lat="33.810313" lon="-118.393868">
  <ele>0.904</ele>
  <time>2026-09-01T01:18:27Z</time>
  <course>187.27</course>
  <speed>0.1118033988749895</speed>
  <fix>3d</fix>
</trkpt>
<trkpt lat="33.8103055" lon="-118.3938859">
  <ele>2.13</ele>
  <time>2026-09-01T01:18:27Z</time>
  <course>85.05</course>
  <speed>0.12</speed>
  <fix>3d</fix>
</trkpt>
<trkpt lat="33.810313" lon="-118.393868">
  <ele>0.903</ele>
  <time>2026-09-01T01:18:27Z</time>
  <course>187.27</course>
  <speed>0.11401754250991379</speed>
  <fix>3d</fix>
</trkpt>
<trkpt lat="33.8103055" lon="-118.3938859">
  <ele>2.13</ele>
  <time>2026-09-01T01:18:27Z</time>
  <course>85.05</course>
  <speed>0.12</speed>
  <fix>3d</fix>
</trkpt>
<trkpt lat="33.8103129" lon="-118.3938679">
  <ele>0.901</ele>
  <time>2026-09-01T01:18:27Z</time>
  <course>187.28</course>
  <speed>0.11704699910719625</speed>
  <fix>3d</fix>
</trkpt>
<trkpt lat="33.8103039" lon="-118.3938846">
  <ele>2.13</ele>
  <time>2026-09-01T01:18:27Z</time>
  <course>78.96</course>
  <speed>0.13</speed>
  <fix>3d</fix>
</trkpt>
<trkpt lat="33.8103129" lon="-118.3938679">
  <ele>0.901</ele>
  <time>2026-09-01T01:18:27Z</time>
  <course>187.31</course>
  <speed>0.11704699910719625</speed>
  <fix>3d</fix>
</trkpt>
<trkpt lat="33.8103039" lon="-118.3938846">
  <ele>2.13</ele>
  <time>2026-09-01T01:18:27Z</time>
  <course>78.96</course>
  <speed>0.13</speed>
  <fix>3d</fix>
</trkpt>
<trkpt lat="33.8103128" lon="-118.3938679">
  <ele>0.901</ele>
  <time>2026-09-01T01:18:27Z</time>
  <course>187.34</course>
  <speed>0.12083045973594572</speed>
  <fix>3d</fix>
</trkpt>
<trkpt lat="33.8103024" lon="-118.3938832">
  <ele>2.14</ele>
  <time>2026-09-01T01:18:27Z</time>
  <course>72.99</course>
  <speed>0.13</speed>
  <fix>3d</fix>
</trkpt>
<trkpt lat="33.8103128" lon="-118.3938678">
  <ele>0.902</ele>
  <time>2026-09-01T01:18:27Z</time>
  <course>187.37</course>
  <speed>0.12083045973594572</speed>
  <fix>3d</fix>
</trkpt>
<trkpt lat="33.8103024" lon="-118.3938832">
  <ele>2.14</ele>
  <time>2026-09-01T01:18:27Z</time>
  <course>72.99</course>
  <speed>0.13</speed>
  <fix>3d</fix>
</trkpt>
<trkpt lat="33.8103128" lon="-118.3938678">
  <ele>0.901</ele>
  <time>2026-09-01T01:18:27Z</time>
  <course>187.39</course>
  <speed>0.1118033988749895</speed>
  <fix>3d</fix>
</trkpt>
<trkpt lat="33.8103011" lon="-118.3938816">
  <ele>2.15</ele>
  <time>2026-09-01T01:18:27Z</time>
  <course>68.25</course>
  <speed>0.13</speed>
  <fix>3d</fix>
</trkpt>
<trkpt lat="33.8103128" lon="-118.3938677">
  <ele>0.901</ele>
  <time>2026-09-01T01:18:27Z</time>
  <course>187.4</course>
  <speed>0.11661903789690602</speed>
  <fix>3d</fix>
</trkpt>
<trkpt lat="33.8103011" lon="-118.3938816">
  <ele>2.15</ele>
  <time>2026-09-01T01:18:27Z</time>
  <course>68.25</course>
  <speed>0.13</speed>
  <fix>3d</fix>
</trkpt>
<trkpt lat="33.8103128" lon="-118.3938677">
  <ele>0.9</ele>
  <time>2026-09-01T01:18:27Z</time>
  <course>187.4</course>
  <speed>0.10295630140987001</speed>
  <fix>3d</fix>
</trkpt>
<trkpt lat="33.8102999" lon="-118.3938797">
  <ele>2.15</ele>
  <time>2026-09-01T01:18:27Z</time>
  <course>64.74</course>
  <speed>0.13</speed>
  <fix>3d</fix>
</trkpt>
<trkpt lat="33.8103128" lon="-118.3938676">
  <ele>0.901</ele>
  <time>2026-09-01T01:18:27Z</time>
  <course>187.4</course>
  <speed>0.10816653826391968</speed>
  <fix>3d</fix>
</trkpt>
<trkpt lat="33.8102999" lon="-118.3938797">
  <ele>2.15</ele>
  <time>2026-09-01T01:18:27Z</time>
  <course>64.74</course>
  <speed>0.13</speed>
  <fix>3d</fix>
</trkpt>
<trkpt lat="33.8103128" lon="-118.3938676">
  <ele>0.903</ele>
  <time>2026-09-01T01:18:27Z</time>
  <course>187.4</course>
  <speed>0.10816653826391968</speed>
  <fix>3d</fix>
</trkpt>
<trkpt lat="33.8102988" lon="-118.3938778">
  <ele>2.16</ele>
  <time>2026-09-01T01:18:27Z</time>
  <course>62.2</course>
  <speed>0.12</speed>
  <fix>3d</fix>
</trkpt>
<trkpt lat="33.8103127" lon="-118.3938675">
  <ele>0.903</ele>
  <time>2026-09-01T01:18:27Z</time>
  <course>187.37</course>
  <speed>0.1</speed>
  <fix>3d</fix>
</trkpt>
<trkpt lat="33.8102988" lon="-118.3938778">
  <ele>2.16</ele>
  <time>2026-09-01T01:18:27Z</time>
  <course>62.2</course>
  <speed>0.12</speed>
  <fix>3d</fix>
</trkpt>
<trkpt lat="33.8103126" lon="-118.3938675">
  <ele>0.903</ele>
  <time>2026-09-01T01:18:27Z</time>
  <course>187.3</course>
  <speed>0.1</speed>
  <fix>3d</fix>
</trkpt>
<trkpt lat="33.8102979" lon="-118.3938758">
  <ele>2.17</ele>
  <time>2026-09-01T01:18:27Z</time>
  <course>59.26</course>
  <speed>0.11</speed>
  <fix>3d</fix>
</trkpt>
<trkpt lat="33.8103126" lon="-118.3938674">
  <ele>0.903</ele>
  <time>2026-09-01T01:18:27Z</time>
  <course>187.28</course>
  <speed>0.09899494936611665</speed>
  <fix>3d</fix>
</trkpt>
<trkpt lat="33.8102979" lon="-118.3938758">
  <ele>2.17</ele>
  <time>2026-09-01T01:18:27Z</time>
  <course>59.26</course>
  <speed>0.11</speed>
  <fix>3d</fix>
</trkpt>
<trkpt lat="33.8103125" lon="-118.3938674">
  <ele>0.901</ele>
  <time>2026-09-01T01:18:27Z</time>
  <course>187.29</course>
  <speed>0.09219544457292887</speed>
  <fix>3d</fix>
</trkpt>
<trkpt lat="33.8102972" lon="-118.3938737">
  <ele>2.17</ele>
  <time>2026-09-01T01:18:27Z</time>
  <course>53.43</course>
  <speed>0.1</speed>
  <fix>3d</fix>
</trkpt>
<trkpt lat="33.8103125" lon="-118.3938673">
  <ele>0.9</ele>
  <time>2026-09-01T01:18:27Z</time>
  <course>187.29</course>
  <speed>0.09433981132056603</speed>
  <fix>3d</fix>
</trkpt>
<trkpt lat="33.8102972" lon="-118.3938737">
  <ele>2.17</ele>
  <time>2026-09-01T01:18:27Z</time>
  <course>53.43</course>
  <speed>0.1</speed>
  <fix>3d</fix>
</trkpt>
<trkpt lat="33.8103125" lon="-118.3938673">
  <ele>0.899</ele>
  <time>2026-09-01T01:18:27Z</time>
  <course>187.28</course>
  <speed>0.09433981132056603</speed>
  <fix>3d</fix>
</trkpt>
<trkpt lat="33.8102967" lon="-118.3938715">
  <ele>2.17</ele>
  <time>2026-09-01T01:18:27Z</time>
  <course>43.99</course>
  <speed>0.1</speed>
  <fix>3d</fix>
</trkpt>
<trkpt lat="33.8103125" lon="-118.3938672">
  <ele>0.899</ele>
  <time>2026-09-01T01:18:27Z</time>
  <course>187.26</course>
  <speed>0.09848857801796104</speed>
  <fix>3d</fix>
</trkpt>
<trkpt lat="33.8102967" lon="-118.3938715">
  <ele>2.17</ele>
  <time>2026-09-01T01:18:27Z</time>
  <course>43.99</course>
  <speed>0.1</speed>
  <fix>3d</fix>
</trkpt>
<trkpt lat="33.8103125" lon="-118.3938672">
  <ele>0.9</ele>
  <time>2026-09-01T01:18:27Z</time>
  <course>187.25</course>
  <speed>0.09486832980505139</speed>
  <fix>3d</fix>
</trkpt>
<trkpt lat="33.8102963" lon="-118.3938693">
  <ele>2.18</ele>
  <time>2026-09-01T01:18:27Z</time>
  <course>32.93</course>
  <speed>0.09</speed>
  <fix>3d</fix>
</trkpt>
<trkpt lat="33.8103125" lon="-118.3938672">
  <ele>0.9</ele>
  <time>2026-09-01T01:18:27Z</time>
  <course>187.24</course>
  <speed>0.1019803902718557</speed>
  <fix>3d</fix>
</trkpt>
<trkpt lat="33.8102963" lon="-118.3938693">
  <ele>2.18</ele>
  <time>2026-09-01T01:18:27Z</time>
  <course>32.93</course>
  <speed>0.09</speed>
  <fix>3d</fix>
</trkpt>
<trkpt lat="33.8103125" lon="-118.3938671">
  <ele>0.899</ele>
  <time>2026-09-01T01:18:27Z</time>
  <course>187.23</course>
  <speed>0.1019803902718557</speed>
  <fix>3d</fix>
</trkpt>
<trkpt lat="33.8102961" lon="-118.3938671">
  <ele>2.19</ele>
  <time>2026-09-01T01:18:27Z</time>
  <course>22.62</course>
  <speed>0.09</speed>
  <fix>3d</fix>
</trkpt>
<trkpt lat="33.8103125" lon="-118.3938671">
  <ele>0.899</ele>
  <time>2026-09-01T01:18:27Z</time>
  <course>187.22</course>
  <speed>0.1004987562112089</speed>
  <fix>3d</fix>
</trkpt>
<trkpt lat="33.8102961" lon="-118.3938671">
  <ele>2.19</ele>
  <time>2026-09-01T01:18:27Z</time>
  <course>22.62</course>
  <speed>0.09</speed>
  <fix>3d</fix>
</trkpt>
<trkpt lat="33.8103125" lon="-118.393867">
  <ele>0.899</ele>
  <time>2026-09-01T01:18:27Z</time>
  <course>187.22</course>
  <speed>0.11</speed>
  <fix>3d</fix>
</trkpt>
<trkpt lat="33.8102961" lon="-118.3938649">
  <ele>2.2</ele>
  <time>2026-09-01T01:18:27Z</time>
  <course>13.8</course>
  <speed>0.1</speed>
  <fix>3d</fix>
</trkpt>
<trkpt lat="33.8103125" lon="-118.3938669">
  <ele>0.899</ele>
  <time>2026-09-01T01:18:27Z</time>
  <course>187.23</course>
  <speed>0.11</speed>
  <fix>3d</fix>
</trkpt>
<trkpt lat="33.8102961" lon="-118.3938649">
  <ele>2.2</ele>
  <time>2026-09-01T01:18:27Z</time>
  <course>13.8</course>
  <speed>0.1</speed>
  <fix>3d</fix>
</trkpt>
<trkpt lat="33.8103125" lon="-118.3938669">
  <ele>0.899</ele>
  <time>2026-09-01T01:18:27Z</time>
  <course>187.23</course>
  <speed>0.11</speed>
  <fix>3d</fix>
</trkpt>
<trkpt lat="33.8102963" lon="-118.3938627">
  <ele>2.2</ele>
  <time>2026-09-01T01:18:27Z</time>
  <course>6.33</course>
  <speed>0.1</speed>
  <fix>3d</fix>
</trkpt>
<trkpt lat="33.8103125" lon="-118.3938669">
  <ele>0.899</ele>
  <time>2026-09-01T01:18:27Z</time>
  <course>187.24</course>
  <speed>0.11</speed>
  <fix>3d</fix>
</trkpt>
<trkpt lat="33.8102963" lon="-118.3938627">
  <ele>2.2</ele>
  <time>2026-09-01T01:18:27Z</time>
  <course>6.33</course>
  <speed>0.1</speed>
  <fix>3d</fix>
</trkpt>
<trkpt lat="33.8103125" lon="-118.3938669">
  <ele>0.9</ele>
  <time>2026-09-01T01:18:27Z</time>
  <course>187.25</course>
  <speed>0.11045361017187261</speed>
  <fix>3d</fix>
</trkpt>
<trkpt lat="33.8102967" lon="-118.3938605">
  <ele>2.21</ele>
  <time>2026-09-01T01:18:27Z</time>
  <course>0.0</course>
  <speed>0.1</speed>
  <fix>3d</fix>
</trkpt>
<trkpt lat="33.8103125" lon="-118.3938669">
  <ele>0.9</ele>
  <time>2026-09-01T01:18:27Z</time>
  <course>187.25</course>
  <speed>0.11045361017187261</speed>
  <fix>3d</fix>
</trkpt>
<trkpt lat="33.8102967" lon="-118.3938605">
  <ele>2.21</ele>
  <time>2026-09-01T01:18:27Z</time>
  <course>0.0</course>
  <speed>0.1</speed>
  <fix>3d</fix>
</trkpt>
<trkpt lat="33.8103125" lon="-118.3938669">
  <ele>0.901</ele>
  <time>2026-09-01T01:18:27Z</time>
  <course>187.26</course>
  <speed>0.1118033988749895</speed>
  <fix>3d</fix>
</trkpt>
<trkpt lat="33.8102972" lon="-118.3938584">
  <ele>2.22</ele>
  <time>2026-09-01T01:18:27Z</time>
  <course>354.65</course>
  <speed>0.1</speed>
  <fix>3d</fix>
</trkpt>
<trkpt lat="33.8103125" lon="-118.3938669">
  <ele>0.902</ele>
  <time>2026-09-01T01:18:27Z</time>
  <course>187.26</course>
  <speed>0.1118033988749895</speed>
  <fix>3d</fix>
</trkpt>
<trkpt lat="33.8102972" lon="-118.3938584">
  <ele>2.22</ele>
  <time>2026-09-01T01:18:27Z</time>
  <course>354.65</course>
  <speed>0.1</speed>
  <fix>3d</fix>
</trkpt>
<trkpt lat="33.8103125" lon="-118.3938668">
  <ele>0.901</ele>
  <time>2026-09-01T01:18:27Z</time>
  <course>187.25</course>
  <speed>0.1118033988749895</speed>
  <fix>3d</fix>
</trkpt>
<trkpt lat="33.8102979" lon="-118.3938564">
  <ele>2.22</ele>
  <time>2026-09-01T01:18:27Z</time>
  <course>350.17</course>
  <speed>0.1</speed>
  <fix>3d</fix>
</trkpt>
<trkpt lat="33.8103125" lon="-118.3938668">
  <ele>0.899</ele>
  <time>2026-09-01T01:18:27Z</time>
  <course>187.25</course>
  <speed>0.11401754250991379</speed>
  <fix>3d</fix>
</trkpt>
<trkpt lat="33.8102979" lon="-118.3938564">
  <ele>2.22</ele>
  <time>2026-09-01T01:18:27Z</time>
  <course>350.17</course>
  <speed>0.1</speed>
  <fix>3d</fix>
</trkpt>
<trkpt lat="33.8103126" lon="-118.3938667">
  <ele>0.898</ele>
  <time>2026-09-01T01:18:27Z</time>
  <course>187.25</course>
  <speed>0.11401754250991379</speed>
  <fix>3d</fix>
</trkpt>
<trkpt lat="33.8102988" lon="-118.3938544">
  <ele>2.23</ele>
  <time>2026-09-01T01:18:27Z</time>
  <course>346.32</course>
  <speed>0.1</speed>
  <fix>3d</fix>
</trkpt>
<trkpt lat="33.8103126" lon="-118.3938666">
  <ele>0.897</ele>
  <time>2026-09-01T01:18:27Z</time>
  <course>187.25</course>
  <speed>0.11401754250991379</speed>
  <fix>3d</fix>
</trkpt>
<trkpt lat="33.8102988" lon="-118.3938544">
  <ele>2.23</ele>
  <time>2026-09-01T01:18:27Z</time>
  <course>346.32</course>
  <speed>0.1</speed>
  <fix>3d</fix>
</trkpt>
<trkpt lat="33.8103126" lon="-118.3938666">
  <ele>0.896</ele>
  <time>2026-09-01T01:18:27Z</time>
  <course>187.25</course>
  <speed>0.11401754250991379</speed>
  <fix>3d</fix>
</trkpt>
<trkpt lat="33.8102999" lon="-118.3938525">
  <ele>2.23</ele>
  <time>2026-09-01T01:18:27Z</time>
  <course>343.28</course>
  <speed>0.1</speed>
  <fix>3d</fix>
</trkpt>
<trkpt lat="33.8103126" lon="-118.3938666">
  <ele>0.895</ele>
  <time>2026-09-01T01:18:27Z</time>
  <course>187.27</course>
  <speed>0.11704699910719625</speed>
  <fix>3d</fix>
</trkpt>
<trkpt lat="33.8102999" lon="-118.3938525">
  <ele>2.23</ele>
  <time>2026-09-01T01:18:27Z</time>
  <course>343.28</course>
  <speed>0.1</speed>
  <fix>3d</fix>
</trkpt>
<trkpt lat="33.8103127" lon="-118.3938665">
  <ele>0.895</ele>
  <time>2026-09-01T01:18:27Z</time>
  <course>187.33</course>
  <speed>0.10770329614269007</speed>
  <fix>3d</fix>
</trkpt>
<trkpt lat="33.8103011" lon="-118.3938508">
  <ele>2.24</ele>
  <time>2026-09-01T01:18:27Z</time>
  <course>340.15</course>
  <speed>0.1</speed>
  <fix>3d</fix>
</trkpt>
<trkpt lat="33.8103127" lon="-118.3938665">
  <ele>0.895</ele>
  <time>2026-09-01T01:18:27Z</time>
  <course>187.35</course>
  <speed>0.1118033988749895</speed>
  <fix>3d</fix>
</trkpt>
<trkpt lat="33.8103011" lon="-118.3938508">
  <ele>2.24</ele>
  <time>2026-09-01T01:18:27Z</time>
  <course>340.15</course>
  <speed>0.1</speed>
  <fix>3d</fix>
</trkpt>
<trkpt lat="33.8103127" lon="-118.3938665">
  <ele>0.896</ele>
  <time>2026-09-01T01:18:27Z</time>
  <course>187.35</course>
  <speed>0.1118033988749895</speed>
  <fix>3d</fix>
</trkpt>
<trkpt lat="33.8103024" lon="-118.3938493">
  <ele>2.25</ele>
  <time>2026-09-01T01:18:28Z</time>
  <course>334.37</course>
  <speed>0.1</speed>
  <fix>3d</fix>
</trkpt>
<trkpt lat="33.8103127" lon="-118.3938665">
  <ele>0.896</ele>
  <time>2026-09-01T01:18:28Z</time>
  <course>187.34</course>
  <speed>0.10816653826391968</speed>
  <fix>3d</fix>
</trkpt>
<trkpt lat="33.8103024" lon="-118.3938493">
  <ele>2.25</ele>
  <time>2026-09-01T01:18:28Z</time>
  <course>334.37</course>
  <speed>0.1</speed>
  <fix>3d</fix>
</trkpt>
<trkpt lat="33.8103128" lon="-118.3938665">
  <ele>0.898</ele>
  <time>2026-09-01T01:18:28Z</time>
  <course>187.32</course>
  <speed>0.11401754250991379</speed>
  <fix>3d</fix>
</trkpt>
<trkpt lat="33.8103039" lon="-118.3938479">
  <ele>2.26</ele>
  <time>2026-09-01T01:18:28Z</time>
  <course>325.94</course>
  <speed>0.09</speed>
  <fix>3d</fix>
</trkpt>
<trkpt lat="33.8103128" lon="-118.3938665">
  <ele>0.899</ele>
  <time>2026-09-01T01:18:28Z</time>
  <course>187.3</course>
  <speed>0.1063014581273465</speed>
  <fix>3d</fix>
</trkpt>
<trkpt lat="33.8103039" lon="-118.3938479">
  <ele>2.26</ele>
  <time>2026-09-01T01:18:28Z</time>
  <course>325.94</course>
  <speed>0.09</speed>
  <fix>3d</fix>
</trkpt>
<trkpt lat="33.8103128" lon="-118.3938664">
  <ele>0.899</ele>
  <time>2026-09-01T01:18:28Z</time>
  <course>187.3</course>
  <speed>0.1131370849898476</speed>
  <fix>3d</fix>
</trkpt>
<trkpt lat="33.8103054" lon="-118.3938467">
  <ele>2.26</ele>
  <time>2026-09-01T01:18:28Z</time>
  <course>316.69</course>
  <speed>0.09</speed>
  <fix>3d</fix>
</trkpt>
<trkpt lat="33.8103128" lon="-118.3938663">
  <ele>0.898</ele>
  <time>2026-09-01T01:18:28Z</time>
  <course>187.3</course>
  <speed>0.1063014581273465</speed>
  <fix>3d</fix>
</trkpt>
<trkpt lat="33.8103054" lon="-118.3938467">
  <ele>2.26</ele>
  <time>2026-09-01T01:18:28Z</time>
  <course>316.69</course>
  <speed>0.09</speed>
  <fix>3d</fix>
</trkpt>
<trkpt lat="33.8103128" lon="-118.3938663">
  <ele>0.897</ele>
  <time>2026-09-01T01:18:28Z</time>
  <course>187.3</course>
  <speed>0.11401754250991379</speed>
  <fix>3d</fix>
</trkpt>
<trkpt lat="33.8103071" lon="-118.3938457">
  <ele>2.28</ele>
  <time>2026-09-01T01:18:28Z</time>
  <course>307.51</course>
  <speed>0.09</speed>
  <fix>3d</fix>
</trkpt>
<trkpt lat="33.8103129" lon="-118.3938663">
  <ele>0.897</ele>
  <time>2026-09-01T01:18:28Z</time>
  <course>187.31</course>
  <speed>0.10816653826391968</speed>
  <fix>3d</fix>
</trkpt>
<trkpt lat="33.8103071" lon="-118.3938457">
  <ele>2.28</ele>
  <time>2026-09-01T01:18:28Z</time>
  <course>307.51</course>
  <speed>0.09</speed>
  <fix>3d</fix>
</trkpt>
<trkpt lat="33.8103129" lon="-118.3938663">
  <ele>0.898</ele>
  <time>2026-09-01T01:18:28Z</time>
  <course>187.31</course>
  <speed>0.10816653826391968</speed>
  <fix>3d</fix>
</trkpt>
<trkpt lat="33.8103088" lon="-118.3938449">
  <ele>2.29</ele>
  <time>2026-09-01T01:18:28Z</time>
  <course>298.9</course>
  <speed>0.09</speed>
  <fix>3d</fix>
</trkpt>
<trkpt lat="33.8103129" lon="-118.3938663">
  <ele>0.899</ele>
  <time>2026-09-01T01:18:28Z</time>
  <course>187.31</course>
  <speed>0.1118033988749895</speed>
  <fix>3d</fix>
</trkpt>
<trkpt lat="33.8103088" lon="-118.3938449">
  <ele>2.29</ele>
  <time>2026-09-01T01:18:28Z</time>
  <course>298.9</course>
  <speed>0.09</speed>
  <fix>3d</fix>
</trkpt>
<trkpt lat="33.8103129" lon="-118.3938663">
  <ele>0.9</ele>
  <time>2026-09-01T01:18:28Z</time>
  <course>187.3</course>
  <speed>0.1118033988749895</speed>
  <fix>3d</fix>
</trkpt>
<trkpt lat="33.8103105" lon="-118.3938443">
  <ele>2.29</ele>
  <time>2026-09-01T01:18:28Z</time>
  <course>290.94</course>
  <speed>0.09</speed>
  <fix>3d</fix>
</trkpt>
<trkpt lat="33.8103129" lon="-118.3938663">
  <ele>0.902</ele>
  <time>2026-09-01T01:18:28Z</time>
  <course>187.3</course>
  <speed>0.11704699910719625</speed>
  <fix>3d</fix>
</trkpt>
<trkpt lat="33.8103105" lon="-118.3938443">
  <ele>2.29</ele>
  <time>2026-09-01T01:18:28Z</time>
  <course>290.94</course>
  <speed>0.09</speed>
  <fix>3d</fix>
</trkpt>
<trkpt lat="33.8103129" lon="-118.3938663">
  <ele>0.903</ele>
  <time>2026-09-01T01:18:28Z</time>
  <course>187.3</course>
  <speed>0.11704699910719625</speed>
  <fix>3d</fix>
</trkpt>
<trkpt lat="33.8103123" lon="-118.3938439">
  <ele>2.3</ele>
  <time>2026-09-01T01:18:28Z</time>
  <course>283.82</course>
  <speed>0.09</speed>
  <fix>3d</fix>
</trkpt>
<trkpt lat="33.810313" lon="-118.3938663">
  <ele>0.904</ele>
  <time>2026-09-01T01:18:28Z</time>
  <course>187.29</course>
  <speed>0.11704699910719625</speed>
  <fix>3d</fix>
</trkpt>
<trkpt lat="33.8103123" lon="-118.3938439">
  <ele>2.3</ele>
  <time>2026-09-01T01:18:28Z</time>
  <course>283.82</course>
  <speed>0.09</speed>
  <fix>3d</fix>
</trkpt>
<trkpt lat="33.810313" lon="-118.3938663">
  <ele>0.905</ele>
  <time>2026-09-01T01:18:28Z</time>
  <course>187.3</course>
  <speed>0.11401754250991379</speed>
  <fix>3d</fix>
</trkpt>
<trkpt lat="33.8103141" lon="-118.3938438">
  <ele>2.31</ele>
  <time>2026-09-01T01:18:28Z</time>
  <course>277.7</course>
  <speed>0.1</speed>
  <fix>3d</fix>
</trkpt>
<trkpt lat="33.810313" lon="-118.3938663">
  <ele>0.905</ele>
  <time>2026-09-01T01:18:28Z</time>
  <course>187.3</course>
  <speed>0.11401754250991379</speed>
  <fix>3d</fix>
</trkpt>
<trkpt lat="33.8103141" lon="-118.3938438">
  <ele>2.31</ele>
  <time>2026-09-01T01:18:28Z</time>
  <course>277.7</course>
  <speed>0.1</speed>
  <fix>3d</fix>
</trkpt>
<trkpt lat="33.810313" lon="-118.3938663">
  <ele>0.904</ele>
  <time>2026-09-01T01:18:28Z</time>
  <course>187.3</course>
  <speed>0.1118033988749895</speed>
  <fix>3d</fix>
</trkpt>
<trkpt lat="33.8103159" lon="-118.3938438">
  <ele>2.31</ele>
  <time>2026-09-01T01:18:28Z</time>
  <course>272.11</course>
  <speed>0.1</speed>
  <fix>3d</fix>
</trkpt>
<trkpt lat="33.810313" lon="-118.3938663">
  <ele>0.903</ele>
  <time>2026-09-01T01:18:28Z</time>
  <course>187.29</course>
  <speed>0.1118033988749895</speed>
  <fix>3d</fix>
</trkpt>
<trkpt lat="33.8103159" lon="-118.3938438">
  <ele>2.31</ele>
  <time>2026-09-01T01:18:28Z</time>
  <course>272.11</course>
  <speed>0.1</speed>
  <fix>3d</fix>
</trkpt>
<trkpt lat="33.810313" lon="-118.3938663">
  <ele>0.901</ele>
  <time>2026-09-01T01:18:28Z</time>
  <course>187.31</course>
  <speed>0.1118033988749895</speed>
  <fix>3d</fix>
</trkpt>
<trkpt lat="33.8103177" lon="-118.3938442">
  <ele>2.32</ele>
  <time>2026-09-01T01:18:28Z</time>
  <course>267.02</course>
  <speed>0.1</speed>
  <fix>3d</fix>
</trkpt>
<trkpt lat="33.810313" lon="-118.3938663">
  <ele>0.9</ele>
  <time>2026-09-01T01:18:28Z</time>
  <course>187.31</course>
  <speed>0.11045361017187261</speed>
  <fix>3d</fix>
</trkpt>
<trkpt lat="33.8103177" lon="-118.3938442">
  <ele>2.32</ele>
  <time>2026-09-01T01:18:28Z</time>
  <course>267.02</course>
  <speed>0.1</speed>
  <fix>3d</fix>
</trkpt>
<trkpt lat="33.810313" lon="-118.3938663">
  <ele>0.9</ele>
  <time>2026-09-01T01:18:28Z</time>
  <course>187.32</course>
  <speed>0.11045361017187261</speed>
  <fix>3d</fix>
</trkpt>
<trkpt lat="33.8103195" lon="-118.3938447">
  <ele>2.32</ele>
  <time>2026-09-01T01:18:28Z</time>
  <course>262.36</course>
  <speed>0.1</speed>
  <fix>3d</fix>
</trkpt>
<trkpt lat="33.8103131" lon="-118.3938663">
  <ele>0.899</ele>
  <time>2026-09-01T01:18:28Z</time>
  <course>187.35</course>
  <speed>0.11</speed>
  <fix>3d</fix>
</trkpt>
<trkpt lat="33.8103195" lon="-118.3938447">
  <ele>2.32</ele>
  <time>2026-09-01T01:18:28Z</time>
  <course>262.36</course>
  <speed>0.1</speed>
  <fix>3d</fix>
</trkpt>
<trkpt lat="33.8103131" lon="-118.3938663">
  <ele>0.898</ele>
  <time>2026-09-01T01:18:28Z</time>
  <course>187.38</course>
  <speed>0.11</speed>
  <fix>3d</fix>
</trkpt>
<trkpt lat="33.8103212" lon="-118.3938454">
  <ele>2.32</ele>
  <time>2026-09-01T01:18:28Z</time>
  <course>257.95</course>
  <speed>0.1</speed>
  <fix>3d</fix>
</trkpt>
<trkpt lat="33.8103131" lon="-118.3938663">
  <ele>0.897</ele>
  <time>2026-09-01T01:18:28Z</time>
  <course>187.39</course>
  <speed>0.11</speed>
  <fix>3d</fix>
</trkpt>
<trkpt lat="33.8103212" lon="-118.3938454">
  <ele>2.32</ele>
  <time>2026-09-01T01:18:28Z</time>
  <course>257.95</course>
  <speed>0.1</speed>
  <fix>3d</fix>
</trkpt>
<trkpt lat="33.8103131" lon="-118.3938663">
  <ele>0.897</ele>
  <time>2026-09-01T01:18:28Z</time>
  <course>187.4</course>
  <speed>0.11</speed>
  <fix>3d</fix>
</trkpt>
<trkpt lat="33.8103229" lon="-118.3938463">
  <ele>2.33</ele>
  <time>2026-09-01T01:18:28Z</time>
  <course>253.92</course>
  <speed>0.1</speed>
  <fix>3d</fix>
</trkpt>
<trkpt lat="33.8103132" lon="-118.3938663">
  <ele>0.897</ele>
  <time>2026-09-01T01:18:28Z</time>
  <course>187.4</course>
  <speed>0.11</speed>
  <fix>3d</fix>
</trkpt>
<trkpt lat="33.8103229" lon="-118.3938463">
  <ele>2.33</ele>
  <time>2026-09-01T01:18:28Z</time>
  <course>253.92</course>
  <speed>0.1</speed>
  <fix>3d</fix>
</trkpt>
<trkpt lat="33.8103132" lon="-118.3938664">
  <ele>0.897</ele>
  <time>2026-09-01T01:18:28Z</time>
  <course>187.4</course>
  <speed>0.11</speed>
  <fix>3d</fix>
</trkpt>
<trkpt lat="33.8103245" lon="-118.3938474">
  <ele>2.34</ele>
  <time>2026-09-01T01:18:28Z</time>
  <course>250.27</course>
  <speed>0.1</speed>
  <fix>3d</fix>
</trkpt>
<trkpt lat="33.8103133" lon="-118.3938664">
  <ele>0.898</ele>
  <time>2026-09-01T01:18:28Z</time>
  <course>187.4</course>
  <speed>0.11</speed>
  <fix>3d</fix>
</trkpt>
<trkpt lat="33.8103245" lon="-118.3938474">
  <ele>2.34</ele>
  <time>2026-09-01T01:18:28Z</time>
  <course>250.27</course>
  <speed>0.1</speed>
  <fix>3d</fix>
</trkpt>
<trkpt lat="33.8103133" lon="-118.3938664">
  <ele>0.898</ele>
  <time>2026-09-01T01:18:28Z</time>
  <course>187.4</course>
  <speed>0.11</speed>
  <fix>3d</fix>
</trkpt>
<trkpt lat="33.810326" lon="-118.3938487">
  <ele>2.34</ele>
  <time>2026-09-01T01:18:28Z</time>
  <course>247.06</course>
  <speed>0.1</speed>
  <fix>3d</fix>
</trkpt>
<trkpt lat="33.8103133" lon="-118.3938664">
  <ele>0.898</ele>
  <time>2026-09-01T01:18:28Z</time>
  <course>187.39</course>
  <speed>0.11</speed>
  <fix>3d</fix>
</trkpt>
<trkpt lat="33.810326" lon="-118.3938487">
  <ele>2.34</ele>
  <time>2026-09-01T01:18:28Z</time>
  <course>247.06</course>
  <speed>0.1</speed>
  <fix>3d</fix>
</trkpt>
<trkpt lat="33.8103133" lon="-118.3938665">
  <ele>0.897</ele>
  <time>2026-09-01T01:18:28Z</time>
  <course>187.39</course>
  <speed>0.11</speed>
  <fix>3d</fix>
</trkpt>
<trkpt lat="33.8103274" lon="-118.3938502">
  <ele>2.35</ele>
  <time>2026-09-01T01:18:28Z</time>
  <course>244.29</course>
  <speed>0.1</speed>
  <fix>3d</fix>
</trkpt>
<trkpt lat="33.8103133" lon="-118.3938665">
  <ele>0.896</ele>
  <time>2026-09-01T01:18:28Z</time>
  <course>187.38</course>
  <speed>0.11045361017187261</speed>
  <fix>3d</fix>
</trkpt>
<trkpt lat="33.8103274" lon="-118.3938502">
  <ele>2.35</ele>
  <time>2026-09-01T01:18:28Z</time>
  <course>244.29</course>
  <speed>0.1</speed>
  <fix>3d</fix>
</trkpt>
<trkpt lat="33.8103133" lon="-118.3938665">
  <ele>0.896</ele>
  <time>2026-09-01T01:18:28Z</time>
  <course>187.38</course>
  <speed>0.11</speed>
  <fix>3d</fix>
</trkpt>
<trkpt lat="33.8103286" lon="-118.3938519">
  <ele>2.35</ele>
  <time>2026-09-01T01:18:28Z</time>
  <course>241.95</course>
  <speed>0.1</speed>
  <fix>3d</fix>
</trkpt>
<trkpt lat="33.8103133" lon="-118.3938666">
  <ele>0.897</ele>
  <time>2026-09-01T01:18:28Z</time>
  <course>187.37</course>
  <speed>0.11045361017187261</speed>
  <fix>3d</fix>
</trkpt>
<trkpt lat="33.8103286" lon="-118.3938519">
  <ele>2.35</ele>
  <time>2026-09-01T01:18:28Z</time>
  <course>241.95</course>
  <speed>0.1</speed>
  <fix>3d</fix>
</trkpt>
<trkpt lat="33.8103134" lon="-118.3938666">
  <ele>0.899</ele>
  <time>2026-09-01T01:18:28Z</time>
  <course>187.32</course>
  <speed>0.1004987562112089</speed>
  <fix>3d</fix>
</trkpt>
<trkpt lat="33.8103297" lon="-118.3938537">
  <ele>2.37</ele>
  <time>2026-09-01T01:18:28Z</time>
  <course>239.66</course>
  <speed>0.1</speed>
  <fix>3d</fix>
</trkpt>
<trkpt lat="33.8103135" lon="-118.3938666">
  <ele>0.9</ele>
  <time>2026-09-01T01:18:28Z</time>
  <course>187.3</course>
  <speed>0.1004987562112089</speed>
  <fix>3d</fix>
</trkpt>
<trkpt lat="33.8103297" lon="-118.3938537">
  <ele>2.37</ele>
  <time>2026-09-01T01:18:28Z</time>
  <course>239.66</course>
  <speed>0.1</speed>
  <fix>3d</fix>
</trkpt>
<trkpt lat="33.8103135" lon="-118.3938666">
  <ele>0.901</ele>
  <time>2026-09-01T01:18:28Z</time>
  <course>187.29</course>
  <speed>0.09219544457292887</speed>
  <fix>3d</fix>
</trkpt>
<trkpt lat="33.8103307" lon="-118.3938556">
  <ele>2.38</ele>
  <time>2026-09-01T01:18:28Z</time>
  <course>234.95</course>
  <speed>0.09</speed>
  <fix>3d</fix>
</trkpt>
<trkpt lat="33.8103135" lon="-118.3938667">
  <ele>0.902</ele>
  <time>2026-09-01T01:18:28Z</time>
  <course>187.3</course>
  <speed>0.09219544457292887</speed>
  <fix>3d</fix>
</trkpt>
<trkpt lat="33.8103307" lon="-118.3938556">
  <ele>2.38</ele>
  <time>2026-09-01T01:18:28Z</time>
  <course>234.95</course>
  <speed>0.09</speed>
  <fix>3d</fix>
</trkpt>
<trkpt lat="33.8103135" lon="-118.3938667">
  <ele>0.904</ele>
  <time>2026-09-01T01:18:28Z</time>
  <course>187.32</course>
  <speed>0.0854400374531753</speed>
  <fix>3d</fix>
</trkpt>
<trkpt lat="33.8103315" lon="-118.3938576">
  <ele>2.38</ele>
  <time>2026-09-01T01:18:28Z</time>
  <course>227.24</course>
  <speed>0.09</speed>
  <fix>3d</fix>
</trkpt>
<trkpt lat="33.8103135" lon="-118.3938667">
  <ele>0.905</ele>
  <time>2026-09-01T01:18:28Z</time>
  <course>187.33</course>
  <speed>0.0854400374531753</speed>
  <fix>3d</fix>
</trkpt>
<trkpt lat="33.8103315" lon="-118.3938576">
  <ele>2.38</ele>
  <time>2026-09-01T01:18:28Z</time>
  <course>227.24</course>
  <speed>0.09</speed>
  <fix>3d</fix>
</trkpt>
<trkpt lat="33.8103135" lon="-118.3938668">
  <ele>0.906</ele>
  <time>2026-09-01T01:18:28Z</time>
  <course>187.34</course>
  <speed>0.07615773105863909</speed>
  <fix>3d</fix>
</trkpt>
<trkpt lat="33.8103322" lon="-118.3938597">
  <ele>2.39</ele>
  <time>2026-09-01T01:18:28Z</time>
  <course>218.83</course>
  <speed>0.09</speed>
  <fix>3d</fix>
</trkpt>
<trkpt lat="33.8103135" lon="-118.3938668">
  <ele>0.906</ele>
  <time>2026-09-01T01:18:28Z</time>
  <course>187.34</course>
  <speed>0.08062257748298549</speed>
  <fix>3d</fix>
</trkpt>
<trkpt lat="33.8103322" lon="-118.3938597">
  <ele>2.39</ele>
  <time>2026-09-01T01:18:28Z</time>
  <course>218.83</course>
  <speed>0.09</speed>
  <fix>3d</fix>
</trkpt>
<trkpt lat="33.8103135" lon="-118.3938668">
  <ele>0.905</ele>
  <time>2026-09-01T01:18:28Z</time>
  <course>187.34</course>
  <speed>0.07211102550927978</speed>
  <fix>3d</fix>
</trkpt>
<trkpt lat="33.8103326" lon="-118.3938619">
  <ele>2.39</ele>
  <time>2026-09-01T01:18:28Z</time>
  <course>210.82</course>
  <speed>0.09</speed>
  <fix>3d</fix>
</trkpt>
<trkpt lat="33.8103135" lon="-118.3938668">
  <ele>0.904</ele>
  <time>2026-09-01T01:18:28Z</time>
  <course>187.32</course>
  <speed>0.07211102550927978</speed>
  <fix>3d</fix>
</trkpt>
<trkpt lat="33.8103326" lon="-118.3938619">
  <ele>2.39</ele>
  <time>2026-09-01T01:18:28Z</time>
  <course>210.82</course>
  <speed>0.09</speed>
  <fix>3d</fix>
</trkpt>
<trkpt lat="33.8103135" lon="-118.3938669">
  <ele>0.902</ele>
  <time>2026-09-01T01:18:28Z</time>
  <course>187.3</course>
  <speed>0.06403124237432849</speed>
  <fix>3d</fix>
</trkpt>
<trkpt lat="33.8103329" lon="-118.3938641">
  <ele>2.39</ele>
  <time>2026-09-01T01:18:28Z</time>
  <course>203.11</course>
  <speed>0.09</speed>
  <fix>3d</fix>
</trkpt>
<trkpt lat="33.8103136" lon="-118.3938669">
  <ele>0.901</ele>
  <time>2026-09-01T01:18:28Z</time>
  <course>187.28</course>
  <speed>0.06403124237432849</speed>
  <fix>3d</fix>
</trkpt>
<trkpt lat="33.8103329" lon="-118.3938641">
  <ele>2.39</ele>
  <time>2026-09-01T01:18:28Z</time>
  <course>203.11</course>
  <speed>0.09</speed>
  <fix>3d</fix>
</trkpt>
<trkpt lat="33.8103136" lon="-118.3938669">
  <ele>0.9</ele>
  <time>2026-09-01T01:18:28Z</time>
  <course>187.26</course>
  <speed>0.06403124237432849</speed>
  <fix>3d</fix>
</trkpt>
<trkpt lat="33.810333" lon="-118.3938663">
  <ele>2.4</ele>
  <time>2026-09-01T01:18:28Z</time>
  <course>195.8</course>
  <speed>0.09</speed>
  <fix>3d</fix>
</trkpt>
<trkpt lat="33.8103136" lon="-118.3938669">
  <ele>0.9</ele>
  <time>2026-09-01T01:18:28Z</time>
  <course>187.24</course>
  <speed>0.06403124237432849</speed>
  <fix>3d</fix>
</trkpt>
<trkpt lat="33.810333" lon="-118.3938663">
  <ele>2.4</ele>
  <time>2026-09-01T01:18:28Z</time>
  <course>195.8</course>
  <speed>0.09</speed>
  <fix>3d</fix>
</trkpt>
<trkpt lat="33.8103136" lon="-118.3938669">
  <ele>0.899</ele>
  <time>2026-09-01T01:18:28Z</time>
  <course>187.23</course>
  <speed>0.06403124237432849</speed>
  <fix>3d</fix>
</trkpt>
<trkpt lat="33.8103329" lon="-118.3938685">
  <ele>2.4</ele>
  <time>2026-09-01T01:18:28Z</time>
  <course>189.3</course>
  <speed>0.09</speed>
  <fix>3d</fix>
</trkpt>
<trkpt lat="33.8103136" lon="-118.3938669">
  <ele>0.896</ele>
  <time>2026-09-01T01:18:28Z</time>
  <course>187.24</course>
  <speed>0.05830951894845301</speed>
  <fix>3d</fix>
</trkpt>
<trkpt lat="33.8103329" lon="-118.3938685">
  <ele>2.4</ele>
  <time>2026-09-01T01:18:28Z</time>
  <course>189.3</course>
  <speed>0.09</speed>
  <fix>3d</fix>
</trkpt>
<trkpt lat="33.8103136" lon="-118.393867">
  <ele>0.893</ele>
  <time>2026-09-01T01:18:28Z</time>
  <course>187.25</course>
  <speed>0.05830951894845301</speed>
  <fix>3d</fix>
</trkpt>
<trkpt lat="33.8103326" lon="-118.3938706">
  <ele>2.4</ele>
  <time>2026-09-01T01:18:28Z</time>
  <course>184.06</course>
  <speed>0.09</speed>
  <fix>3d</fix>
</trkpt>
<trkpt lat="33.8103135" lon="-118.393867">
  <ele>0.887</ele>
  <time>2026-09-01T01:18:28Z</time>
  <course>187.25</course>
  <speed>0.05830951894845301</speed>
  <fix>3d</fix>
</trkpt>
<trkpt lat="33.8103326" lon="-118.3938706">
  <ele>2.4</ele>
  <time>2026-09-01T01:18:28Z</time>
  <course>184.06</course>
  <speed>0.09</speed>
  <fix>3d</fix>
</trkpt>
<trkpt lat="33.8103135" lon="-118.393867">
  <ele>0.868</ele>
  <time>2026-09-01T01:18:28Z</time>
  <course>187.26</course>
  <speed>0.053851648071345036</speed>
  <fix>3d</fix>
</trkpt>
<trkpt lat="33.8103321" lon="-118.3938728">
  <ele>2.4</ele>
  <time>2026-09-01T01:18:28Z</time>
  <course>180.06</course>
  <speed>0.09</speed>
  <fix>3d</fix>
</trkpt>
<trkpt lat="33.8103135" lon="-118.393867">
  <ele>0.828</ele>
  <time>2026-09-01T01:18:28Z</time>
  <course>187.27</course>
  <speed>0.053851648071345036</speed>
  <fix>3d</fix>
</trkpt>
<trkpt lat="33.8103321" lon="-118.3938728">
  <ele>2.4</ele>
  <time>2026-09-01T01:18:28Z</time>
  <course>180.06</course>
  <speed>0.09</speed>
  <fix>3d</fix>
</trkpt>
<trkpt lat="33.8103135" lon="-118.393867">
  <ele>0.827</ele>
  <time>2026-09-01T01:18:28Z</time>
  <course>187.27</course>
  <speed>0.053851648071345036</speed>
  <fix>3d</fix>
</trkpt>
<trkpt lat="33.8103135" lon="-118.393867">
  <ele>0.771</ele>
  <time>2026-09-01T01:18:28Z</time>
  <course>187.27</course>
  <speed>0.053851648071345036</speed>
  <fix>3d</fix>
</trkpt>
<trkpt lat="33.8103315" lon="-118.3938748">
  <ele>2.37</ele>
  <time>2026-09-01T01:18:28Z</time>
  <course>177.09</course>
  <speed>0.09</speed>
  <fix>3d</fix>
</trkpt>
<trkpt lat="33.8103135" lon="-118.393867">
  <ele>0.769</ele>
  <time>2026-09-01T01:18:28Z</time>
  <course>187.27</course>
  <speed>0.053851648071345036</speed>
  <fix>3d</fix>
</trkpt>
<trkpt lat="33.8103135" lon="-118.3938672">
  <ele>0.702</ele>
  <time>2026-09-01T01:18:28Z</time>
  <course>187.27</course>
  <speed>0.053851648071345036</speed>
  <fix>3d</fix>
</trkpt>
<trkpt lat="33.8103315" lon="-118.3938748">
  <ele>2.37</ele>
  <time>2026-09-01T01:18:28Z</time>
  <course>177.09</course>
  <speed>0.09</speed>
  <fix>3d</fix>
</trkpt>
<trkpt lat="33.8103135" lon="-118.3938672">
  <ele>0.7</ele>
  <time>2026-09-01T01:18:28Z</time>
  <course>187.27</course>
  <speed>0.053851648071345036</speed>
  <fix>3d</fix>
</trkpt>
<trkpt lat="33.8103135" lon="-118.3938672">
  <ele>0.625</ele>
  <time>2026-09-01T01:18:28Z</time>
  <course>187.27</course>
  <speed>0.053851648071345036</speed>
  <fix>3d</fix>
</trkpt>
<trkpt lat="33.8103307" lon="-118.3938769">
  <ele>2.28</ele>
  <time>2026-09-01T01:18:28Z</time>
  <course>174.73</course>
  <speed>0.09</speed>
  <fix>3d</fix>
</trkpt>
<trkpt lat="33.8103135" lon="-118.3938672">
  <ele>0.622</ele>
  <time>2026-09-01T01:18:28Z</time>
  <course>187.27</course>
  <speed>0.053851648071345036</speed>
  <fix>3d</fix>
</trkpt>
<trkpt lat="33.8103135" lon="-118.3938672">
  <ele>0.541</ele>
  <time>2026-09-01T01:18:28Z</time>
  <course>187.27</course>
  <speed>0.05099019513592785</speed>
  <fix>3d</fix>
</trkpt>
<trkpt lat="33.8103307" lon="-118.3938769">
  <ele>2.28</ele>
  <time>2026-09-01T01:18:28Z</time>
  <course>174.73</course>
  <speed>0.09</speed>
  <fix>3d</fix>
</trkpt>
<trkpt lat="33.8103135" lon="-118.3938672">
  <ele>0.538</ele>
  <time>2026-09-01T01:18:28Z</time>
  <course>187.27</course>
  <speed>0.05099019513592785</speed>
  <fix>3d</fix>
</trkpt>
<trkpt lat="33.8103135" lon="-118.3938672">
  <ele>0.453</ele>
  <time>2026-09-01T01:18:28Z</time>
  <course>187.26</course>
  <speed>0.0412310562561766</speed>
  <fix>3d</fix>
</trkpt>
<trkpt lat="33.8103297" lon="-118.3938788">
  <ele>2.15</ele>
  <time>2026-09-01T01:18:28Z</time>
  <course>172.17</course>
  <speed>0.08</speed>
  <fix>3d</fix>
</trkpt>
<trkpt lat="33.8103135" lon="-118.3938672">
  <ele>0.45</ele>
  <time>2026-09-01T01:18:28Z</time>
  <course>187.26</course>
  <speed>0.0412310562561766</speed>
  <fix>3d</fix>
</trkpt>
<trkpt lat="33.8103134" lon="-118.3938672">
  <ele>0.361</ele>
  <time>2026-09-01T01:18:28Z</time>
  <course>185.16</course>
  <speed>0.05099019513592785</speed>
  <fix>3d</fix>
</trkpt>
<trkpt lat="33.8103297" lon="-118.3938788">
  <ele>2.15</ele>
  <time>2026-09-01T01:18:28Z</time>
  <course>172.17</course>
  <speed>0.08</speed>
  <fix>3d</fix>
</trkpt>
<trkpt lat="33.8103134" lon="-118.3938672">
  <ele>0.358</ele>
  <time>2026-09-01T01:18:28Z</time>
  <course>185.16</course>
  <speed>0.05099019513592785</speed>
  <fix>3d</fix>
</trkpt>
<trkpt lat="33.8103134" lon="-118.3938672">
  <ele>0.266</ele>
  <time>2026-09-01T01:18:28Z</time>
  <course>185.25</course>
  <speed>0.05099019513592785</speed>
  <fix>3d</fix>
</trkpt>
<trkpt lat="33.8103286" lon="-118.3938806">
  <ele>1.99</ele>
  <time>2026-09-01T01:18:28Z</time>
  <course>169.33</course>
  <speed>0.08</speed>
  <fix>3d</fix>
</trkpt>
<trkpt lat="33.8103134" lon="-118.3938672">
  <ele>0.264</ele>
  <time>2026-09-01T01:18:28Z</time>
  <course>185.25</course>
  <speed>0.05099019513592785</speed>
  <fix>3d</fix>
</trkpt>
<trkpt lat="33.8103134" lon="-118.3938672">
  <ele>0.17</ele>
  <time>2026-09-01T01:18:28Z</time>
  <course>185.52</course>
  <speed>0.05</speed>
  <fix>3d</fix>
</trkpt>
<trkpt lat="33.8103286" lon="-118.3938806">
  <ele>1.99</ele>
  <time>2026-09-01T01:18:28Z</time>
  <course>169.33</course>
  <speed>0.08</speed>
  <fix>3d</fix>
</trkpt>
<trkpt lat="33.8103134" lon="-118.3938672">
  <ele>0.168</ele>
  <time>2026-09-01T01:18:28Z</time>
  <course>185.53</course>
  <speed>0.05</speed>
  <fix>3d</fix>
</trkpt>
<trkpt lat="33.8103134" lon="-118.3938673">
  <ele>0.073</ele>
  <time>2026-09-01T01:18:28Z</time>
  <course>185.95</course>
  <speed>0.05</speed>
  <fix>3d</fix>
</trkpt>
<trkpt lat="33.8103273" lon="-118.3938823">
  <ele>1.81</ele>
  <time>2026-09-01T01:18:28Z</time>
  <course>166.2</course>
  <speed>0.09</speed>
  <fix>3d</fix>
</trkpt>
<trkpt lat="33.8103134" lon="-118.3938673">
  <ele>0.07</ele>
  <time>2026-09-01T01:18:28Z</time>
  <course>185.96</course>
  <speed>0.05</speed>
  <fix>3d</fix>
</trkpt>
<trkpt lat="33.8103134" lon="-118.3938673">
  <ele>-0.025</ele>
  <time>2026-09-01T01:18:28Z</time>
  <course>186.47</course>
  <speed>0.04</speed>
  <fix>3d</fix>
</trkpt>
<trkpt lat="33.8103273" lon="-118.3938823">
  <ele>1.81</ele>
  <time>2026-09-01T01:18:28Z</time>
  <course>166.2</course>
  <speed>0.09</speed>
  <fix>3d</fix>
</trkpt>
<trkpt lat="33.8103134" lon="-118.3938673">
  <ele>-0.027</ele>
  <time>2026-09-01T01:18:28Z</time>
  <course>186.49</course>
  <speed>0.04</speed>
  <fix>3d</fix>
</trkpt>
<trkpt lat="33.8103133" lon="-118.3938673">
  <ele>-0.124</ele>
  <time>2026-09-01T01:18:28Z</time>
  <course>186.97</course>
  <speed>0.04</speed>
  <fix>3d</fix>
</trkpt>
<trkpt lat="33.8103259" lon="-118.3938838">
  <ele>1.64</ele>
  <time>2026-09-01T01:18:28Z</time>
  <course>163.26</course>
  <speed>0.09</speed>
  <fix>3d</fix>
</trkpt>
<trkpt lat="33.8103133" lon="-118.3938673">
  <ele>-0.127</ele>
  <time>2026-09-01T01:18:28Z</time>
  <course>186.99</course>
  <speed>0.04</speed>
  <fix>3d</fix>
</trkpt>
<trkpt lat="33.8103133" lon="-118.3938674">
  <ele>-0.224</ele>
  <time>2026-09-01T01:18:28Z</time>
  <course>187.31</course>
  <speed>0.04</speed>
  <fix>3d</fix>
</trkpt>
<trkpt lat="33.8103259" lon="-118.3938838">
  <ele>1.64</ele>
  <time>2026-09-01T01:18:28Z</time>
  <course>163.26</course>
  <speed>0.09</speed>
  <fix>3d</fix>
</trkpt>
<trkpt lat="33.8103133" lon="-118.3938674">
  <ele>-0.226</ele>
  <time>2026-09-01T01:18:28Z</time>
  <course>187.32</course>
  <speed>0.04</speed>
  <fix>3d</fix>
</trkpt>
<trkpt lat="33.8103133" lon="-118.3938675">
  <ele>-0.323</ele>
  <time>2026-09-01T01:18:28Z</time>
  <course>187.5</course>
  <speed>0.03</speed>
  <fix>3d</fix>
</trkpt>
<trkpt lat="33.8103244" lon="-118.3938852">
  <ele>1.46</ele>
  <time>2026-09-01T01:18:28Z</time>
  <course>158.74</course>
  <speed>0.08</speed>
  <fix>3d</fix>
</trkpt>
<trkpt lat="33.8103133" lon="-118.3938675">
  <ele>-0.325</ele>
  <time>2026-09-01T01:18:28Z</time>
  <course>187.5</course>
  <speed>0.03</speed>
  <fix>3d</fix>
</trkpt>
<trkpt lat="33.8103133" lon="-118.3938675">
  <ele>-0.422</ele>
  <time>2026-09-01T01:18:28Z</time>
  <course>187.54</course>
  <speed>0.0316227766016838</speed>
  <fix>3d</fix>
</trkpt>
<trkpt lat="33.8103244" lon="-118.3938852">
  <ele>1.46</ele>
  <time>2026-09-01T01:18:28Z</time>
  <course>158.74</course>
  <speed>0.08</speed>
  <fix>3d</fix>
</trkpt>
<trkpt lat="33.8103133" lon="-118.3938675">
  <ele>-0.424</ele>
  <time>2026-09-01T01:18:28Z</time>
  <course>187.54</course>
  <speed>0.0316227766016838</speed>
  <fix>3d</fix>
</trkpt>
<trkpt lat="33.8103132" lon="-118.3938675">
  <ele>-0.52</ele>
  <time>2026-09-01T01:18:28Z</time>
  <course>187.51</course>
  <speed>0.022360679774997897</speed>
  <fix>3d</fix>
</trkpt>
<trkpt lat="33.8103228" lon="-118.3938864">
  <ele>1.28</ele>
  <time>2026-09-01T01:18:28Z</time>
  <course>150.9</course>
  <speed>0.08</speed>
  <fix>3d</fix>
</trkpt>
<trkpt lat="33.8103132" lon="-118.3938675">
  <ele>-0.522</ele>
  <time>2026-09-01T01:18:28Z</time>
  <course>187.51</course>
  <speed>0.022360679774997897</speed>
  <fix>3d</fix>
</trkpt>
<trkpt lat="33.8103132" lon="-118.3938675">
  <ele>-0.617</ele>
  <time>2026-09-01T01:18:28Z</time>
  <course>187.44</course>
  <speed>0.022360679774997897</speed>
  <fix>3d</fix>
</trkpt>
<trkpt lat="33.8103228" lon="-118.3938864">
  <ele>1.28</ele>
  <time>2026-09-01T01:18:28Z</time>
  <course>150.9</course>
  <speed>0.08</speed>
  <fix>3d</fix>
</trkpt>
<trkpt lat="33.8103132" lon="-118.3938675">
  <ele>-0.619</ele>
  <time>2026-09-01T01:18:28Z</time>
  <course>187.44</course>
  <speed>0.022360679774997897</speed>
  <fix>3d</fix>
</trkpt>
<trkpt lat="33.8103132" lon="-118.3938675">
  <ele>-0.713</ele>
  <time>2026-09-01T01:18:28Z</time>
  <course>187.37</course>
  <speed>0.022360679774997897</speed>
  <fix>3d</fix>
</trkpt>
<trkpt lat="33.8103211" lon="-118.3938873">
  <ele>1.1</ele>
  <time>2026-09-01T01:18:28Z</time>
  <course>141.48</course>
  <speed>0.08</speed>
  <fix>3d</fix>
</trkpt>
<trkpt lat="33.8103132" lon="-118.3938675">
  <ele>-0.715</ele>
  <time>2026-09-01T01:18:28Z</time>
  <course>187.37</course>
  <speed>0.022360679774997897</speed>
  <fix>3d</fix>
</trkpt>
<trkpt lat="33.8103132" lon="-118.3938675">
  <ele>-0.809</ele>
  <time>2026-09-01T01:18:28Z</time>
  <course>187.34</course>
  <speed>0.022360679774997897</speed>
  <fix>3d</fix>
</trkpt>
<trkpt lat="33.8103211" lon="-118.3938873">
  <ele>1.1</ele>
  <time>2026-09-01T01:18:28Z</time>
  <course>141.48</course>
  <speed>0.08</speed>
  <fix>3d</fix>
</trkpt>
<trkpt lat="33.8103132" lon="-118.3938675">
  <ele>-0.81</ele>
  <time>2026-09-01T01:18:28Z</time>
  <course>187.34</course>
  <speed>0.022360679774997897</speed>
  <fix>3d</fix>
</trkpt>
<trkpt lat="33.8103132" lon="-118.3938675">
  <ele>-0.906</ele>
  <time>2026-09-01T01:18:28Z</time>
  <course>187.33</course>
  <speed>0.03</speed>
  <fix>3d</fix>
</trkpt>
<trkpt lat="33.8103194" lon="-118.393888">
  <ele>0.93</ele>
  <time>2026-09-01T01:18:28Z</time>
  <course>132.2</course>
  <speed>0.08</speed>
  <fix>3d</fix>
</trkpt>
<trkpt lat="33.8103132" lon="-118.3938675">
  <ele>-0.908</ele>
  <time>2026-09-01T01:18:28Z</time>
  <course>187.33</course>
  <speed>0.03</speed>
  <fix>3d</fix>
</trkpt>
<trkpt lat="33.8103131" lon="-118.3938675">
  <ele>-1.001</ele>
  <time>2026-09-01T01:18:28Z</time>
  <course>187.34</course>
  <speed>0.03</speed>
  <fix>3d</fix>
</trkpt>
<trkpt lat="33.8103194" lon="-118.393888">
  <ele>0.93</ele>
  <time>2026-09-01T01:18:28Z</time>
  <course>132.2</course>
  <speed>0.08</speed>
  <fix>3d</fix>
</trkpt>
<trkpt lat="33.8103131" lon="-118.3938675">
  <ele>-1.004</ele>
  <time>2026-09-01T01:18:28Z</time>
  <course>187.34</course>
  <speed>0.03</speed>
  <fix>3d</fix>
</trkpt>
<trkpt lat="33.8103131" lon="-118.3938675">
  <ele>-1.097</ele>
  <time>2026-09-01T01:18:28Z</time>
  <course>187.36</course>
  <speed>0.03</speed>
  <fix>3d</fix>
</trkpt>
<trkpt lat="33.8103175" lon="-118.3938885">
  <ele>0.75</ele>
  <time>2026-09-01T01:18:28Z</time>
  <course>123.51</course>
  <speed>0.07</speed>
  <fix>3d</fix>
</trkpt>
<trkpt lat="33.8103131" lon="-118.3938675">
  <ele>-1.099</ele>
  <time>2026-09-01T01:18:28Z</time>
  <course>187.36</course>
  <speed>0.03</speed>
  <fix>3d</fix>
</trkpt>
<trkpt lat="33.810313" lon="-118.3938676">
  <ele>-1.193</ele>
  <time>2026-09-01T01:18:28Z</time>
  <course>187.39</course>
  <speed>0.03</speed>
  <fix>3d</fix>
</trkpt>
<trkpt lat="33.8103175" lon="-118.3938885">
  <ele>0.75</ele>
  <time>2026-09-01T01:18:28Z</time>
  <course>123.51</course>
  <speed>0.07</speed>
  <fix>3d</fix>
</trkpt>
<trkpt lat="33.810313" lon="-118.3938676">
  <ele>-1.195</ele>
  <time>2026-09-01T01:18:28Z</time>
  <course>187.39</course>
  <speed>0.03</speed>
  <fix>3d</fix>
</trkpt>
<trkpt lat="33.810313" lon="-118.3938676">
  <ele>-1.287</ele>
  <time>2026-09-01T01:18:28Z</time>
  <course>187.42</course>
  <speed>0.04</speed>
  <fix>3d</fix>
</trkpt>
<trkpt lat="33.8103157" lon="-118.3938888">
  <ele>0.57</ele>
  <time>2026-09-01T01:18:28Z</time>
  <course>115.25</course>
  <speed>0.07</speed>
  <fix>3d</fix>
</trkpt>
<trkpt lat="33.810313" lon="-118.3938676">
  <ele>-1.29</ele>
  <time>2026-09-01T01:18:28Z</time>
  <course>187.42</course>
  <speed>0.04</speed>
  <fix>3d</fix>
</trkpt>
<trkpt lat="33.810313" lon="-118.3938676">
  <ele>-1.382</ele>
  <time>2026-09-01T01:18:28Z</time>
  <course>187.44</course>
  <speed>0.0412310562561766</speed>
  <fix>3d</fix>
</trkpt>
<trkpt lat="33.8103157" lon="-118.3938888">
  <ele>0.57</ele>
  <time>2026-09-01T01:18:28Z</time>
  <course>115.25</course>
  <speed>0.07</speed>
  <fix>3d</fix>
</trkpt>
<trkpt lat="33.810313" lon="-118.3938676">
  <ele>-1.384</ele>
  <time>2026-09-01T01:18:28Z</time>
  <course>187.44</course>
  <speed>0.0412310562561766</speed>
  <fix>3d</fix>
</trkpt>
<trkpt lat="33.810313" lon="-118.3938676">
  <ele>-1.477</ele>
  <time>2026-09-01T01:18:28Z</time>
  <course>187.46</course>
  <speed>0.0412310562561766</speed>
  <fix>3d</fix>
</trkpt>
<trkpt lat="33.8103139" lon="-118.3938889">
  <ele>0.39</ele>
  <time>2026-09-01T01:18:28Z</time>
  <course>107.77</course>
  <speed>0.07</speed>
  <fix>3d</fix>
</trkpt>
<trkpt lat="33.810313" lon="-118.3938676">
  <ele>-1.48</ele>
  <time>2026-09-01T01:18:28Z</time>
  <course>187.46</course>
  <speed>0.0412310562561766</speed>
  <fix>3d</fix>
</trkpt>
<trkpt lat="33.810313" lon="-118.3938676">
  <ele>-1.574</ele>
  <time>2026-09-01T01:18:28Z</time>
  <course>187.45</course>
  <speed>0.0412310562561766</speed>
  <fix>3d</fix>
</trkpt>
<trkpt lat="33.8103139" lon="-118.3938889">
  <ele>0.39</ele>
  <time>2026-09-01T01:18:28Z</time>
  <course>107.77</course>
  <speed>0.07</speed>
  <fix>3d</fix>
</trkpt>
<trkpt lat="33.810313" lon="-118.3938676">
  <ele>-1.576</ele>
  <time>2026-09-01T01:18:28Z</time>
  <course>187.45</course>
  <speed>0.0412310562561766</speed>
  <fix>3d</fix>
</trkpt>
<trkpt lat="33.810313" lon="-118.3938675">
  <ele>-1.67</ele>
  <time>2026-09-01T01:18:28Z</time>
  <course>187.45</course>
  <speed>0.0412310562561766</speed>
  <fix>3d</fix>
</trkpt>
<trkpt lat="33.8103121" lon="-118.3938888">
  <ele>0.2</ele>
  <time>2026-09-01T01:18:28Z</time>
  <course>101.09</course>
  <speed>0.07</speed>
  <fix>3d</fix>
</trkpt>
<trkpt lat="33.810313" lon="-118.3938676">
  <ele>-1.673</ele>
  <time>2026-09-01T01:18:28Z</time>
  <course>187.45</course>
  <speed>0.0412310562561766</speed>
  <fix>3d</fix>
</trkpt>
<trkpt lat="33.810313" lon="-118.3938675">
  <ele>-1.769</ele>
  <time>2026-09-01T01:18:28Z</time>
  <course>187.44</course>
  <speed>0.044721359549995794</speed>
  <fix>3d</fix>
</trkpt>
<trkpt lat="33.8103121" lon="-118.3938888">
  <ele>0.2</ele>
  <time>2026-09-01T01:18:28Z</time>
  <course>101.09</course>
  <speed>0.07</speed>
  <fix>3d</fix>
</trkpt>
<trkpt lat="33.810313" lon="-118.3938675">
  <ele>-1.771</ele>
  <time>2026-09-01T01:18:28Z</time>
  <course>187.44</course>
  <speed>0.053851648071345036</speed>
  <fix>3d</fix>
</trkpt>
<trkpt lat="33.810313" lon="-118.3938675">
  <ele>-1.868</ele>
  <time>2026-09-01T01:18:28Z</time>
  <course>187.44</course>
  <speed>0.044721359549995794</speed>
  <fix>3d</fix>
</trkpt>
<trkpt lat="33.8103103" lon="-118.3938884">
  <ele>0.01</ele>
  <time>2026-09-01T01:18:28Z</time>
  <course>95.48</course>
  <speed>0.07</speed>
  <fix>3d</fix>
</trkpt>
<trkpt lat="33.8103129" lon="-118.3938675">
  <ele>-1.897</ele>
  <time>2026-09-01T01:18:28Z</time>
  <course>187.44</course>
  <speed>0.053851648071345036</speed>
  <fix>3d</fix>
</trkpt>
<trkpt lat="33.8103129" lon="-118.3938675">
  <ele>-1.967</ele>
  <time>2026-09-01T01:18:28Z</time>
  <course>187.43</course>
  <speed>0.053851648071345036</speed>
  <fix>3d</fix>
</trkpt>
<trkpt lat="33.8103103" lon="-118.3938884">
  <ele>0.01</ele>
  <time>2026-09-01T01:18:28Z</time>
  <course>95.48</course>
  <speed>0.07</speed>
  <fix>3d</fix>
</trkpt>
<trkpt lat="33.8103129" lon="-118.3938675">
  <ele>-1.969</ele>
  <time>2026-09-01T01:18:28Z</time>
  <course>187.43</course>
  <speed>0.053851648071345036</speed>
  <fix>3d</fix>
</trkpt>
<trkpt lat="33.8103129" lon="-118.3938675">
  <ele>-2.067</ele>
  <time>2026-09-01T01:18:28Z</time>
  <course>187.43</course>
  <speed>0.053851648071345036</speed>
  <fix>3d</fix>
</trkpt>
<trkpt lat="33.8103085" lon="-118.3938878">
  <ele>-0.17</ele>
  <time>2026-09-01T01:18:28Z</time>
  <course>90.67</course>
  <speed>0.07</speed>
  <fix>3d</fix>
</trkpt>
<trkpt lat="33.8103129" lon="-118.3938675">
  <ele>-2.07</ele>
  <time>2026-09-01T01:18:28Z</time>
  <course>187.43</course>
  <speed>0.053851648071345036</speed>
  <fix>3d</fix>
</trkpt>
<trkpt lat="33.8103128" lon="-118.3938675">
  <ele>-2.167</ele>
  <time>2026-09-01T01:18:28Z</time>
  <course>187.43</course>
  <speed>0.053851648071345036</speed>
  <fix>3d</fix>
</trkpt>
<trkpt lat="33.8103085" lon="-118.3938878">
  <ele>-0.17</ele>
  <time>2026-09-01T01:18:28Z</time>
  <course>90.67</course>
  <speed>0.07</speed>
  <fix>3d</fix>
</trkpt>
<trkpt lat="33.8103128" lon="-118.3938675">
  <ele>-2.169</ele>
  <time>2026-09-01T01:18:28Z</time>
  <course>187.43</course>
  <speed>0.053851648071345036</speed>
  <fix>3d</fix>
</trkpt>
<trkpt lat="33.8103128" lon="-118.3938675">
  <ele>-2.266</ele>
  <time>2026-09-01T01:18:28Z</time>
  <course>187.43</course>
  <speed>0.053851648071345036</speed>
  <fix>3d</fix>
</trkpt>
<trkpt lat="33.8103068" lon="-118.393887">
  <ele>-0.37</ele>
  <time>2026-09-01T01:18:28Z</time>
  <course>86.26</course>
  <speed>0.07</speed>
  <fix>3d</fix>
</trkpt>
<trkpt lat="33.8103128" lon="-118.3938675">
  <ele>-2.268</ele>
  <time>2026-09-01T01:18:28Z</time>
  <course>187.43</course>
  <speed>0.053851648071345036</speed>
  <fix>3d</fix>
</trkpt>
<trkpt lat="33.8103128" lon="-118.3938675">
  <ele>-2.364</ele>
  <time>2026-09-01T01:18:28Z</time>
  <course>187.43</course>
  <speed>0.05830951894845301</speed>
  <fix>3d</fix>
</trkpt>
<trkpt lat="33.8103068" lon="-118.393887">
  <ele>-0.37</ele>
  <time>2026-09-01T01:18:28Z</time>
  <course>86.26</course>
  <speed>0.07</speed>
  <fix>3d</fix>
</trkpt>
<trkpt lat="33.8103128" lon="-118.3938675">
  <ele>-2.366</ele>
  <time>2026-09-01T01:18:28Z</time>
  <course>187.43</course>
  <speed>0.05830951894845301</speed>
  <fix>3d</fix>
</trkpt>
<trkpt lat="33.8103128" lon="-118.3938674">
  <ele>-2.462</ele>
  <time>2026-09-01T01:18:28Z</time>
  <course>187.43</course>
  <speed>0.05830951894845301</speed>
  <fix>3d</fix>
</trkpt>
<trkpt lat="33.8103051" lon="-118.393886">
  <ele>-0.56</ele>
  <time>2026-09-01T01:18:28Z</time>
  <course>82.22</course>
  <speed>0.07</speed>
  <fix>3d</fix>
</trkpt>
<trkpt lat="33.8103128" lon="-118.3938674">
  <ele>-2.464</ele>
  <time>2026-09-01T01:18:28Z</time>
  <course>187.43</course>
  <speed>0.053851648071345036</speed>
  <fix>3d</fix>
</trkpt>
<trkpt lat="33.8103128" lon="-118.3938674">
  <ele>-2.56</ele>
  <time>2026-09-01T01:18:28Z</time>
  <course>187.43</course>
  <speed>0.05830951894845301</speed>
  <fix>3d</fix>
</trkpt>
<trkpt lat="33.8103051" lon="-118.393886">
  <ele>-0.56</ele>
  <time>2026-09-01T01:18:28Z</time>
  <course>82.22</course>
  <speed>0.07</speed>
  <fix>3d</fix>
</trkpt>
<trkpt lat="33.8103128" lon="-118.3938674">
  <ele>-2.561</ele>
  <time>2026-09-01T01:18:28Z</time>
  <course>187.42</course>
  <speed>0.05830951894845301</speed>
  <fix>3d</fix>
</trkpt>
<trkpt lat="33.8103128" lon="-118.3938674">
  <ele>-2.659</ele>
  <time>2026-09-01T01:18:28Z</time>
  <course>187.38</course>
  <speed>0.05830951894845301</speed>
  <fix>3d</fix>
</trkpt>
<trkpt lat="33.8103035" lon="-118.3938848">
  <ele>-0.75</ele>
  <time>2026-09-01T01:18:28Z</time>
  <course>78.22</course>
  <speed>0.07</speed>
  <fix>3d</fix>
</trkpt>
<trkpt lat="33.8103128" lon="-118.3938674">
  <ele>-2.661</ele>
  <time>2026-09-01T01:18:28Z</time>
  <course>187.38</course>
  <speed>0.05830951894845301</speed>
  <fix>3d</fix>
</trkpt>
<trkpt lat="33.8103128" lon="-118.3938674">
  <ele>-2.758</ele>
  <time>2026-09-01T01:18:28Z</time>
  <course>187.35</course>
  <speed>0.05830951894845301</speed>
  <fix>3d</fix>
</trkpt>
<trkpt lat="33.8103035" lon="-118.3938848">
  <ele>-0.75</ele>
  <time>2026-09-01T01:18:28Z</time>
  <course>78.22</course>
  <speed>0.07</speed>
  <fix>3d</fix>
</trkpt>
<trkpt lat="33.8103128" lon="-118.3938674">
  <ele>-2.76</ele>
  <time>2026-09-01T01:18:28Z</time>
  <course>187.35</course>
  <speed>0.05830951894845301</speed>
  <fix>3d</fix>
</trkpt>
<trkpt lat="33.8103128" lon="-118.3938674">
  <ele>-2.856</ele>
  <time>2026-09-01T01:18:28Z</time>
  <course>187.33</course>
  <speed>0.0565685424949238</speed>
  <fix>3d</fix>
</trkpt>
<trkpt lat="33.8103021" lon="-118.3938835">
  <ele>-0.94</ele>
  <time>2026-09-01T01:18:28Z</time>
  <course>71.83</course>
  <speed>0.07</speed>
  <fix>3d</fix>
</trkpt>
<trkpt lat="33.8103128" lon="-118.3938674">
  <ele>-2.858</ele>
  <time>2026-09-01T01:18:28Z</time>
  <course>187.33</course>
  <speed>0.0565685424949238</speed>
  <fix>3d</fix>
</trkpt>
<trkpt lat="33.8103128" lon="-118.3938674">
  <ele>-2.956</ele>
  <time>2026-09-01T01:18:28Z</time>
  <course>187.32</course>
  <speed>0.0565685424949238</speed>
  <fix>3d</fix>
</trkpt>
<trkpt lat="33.8103021" lon="-118.3938835">
  <ele>-0.94</ele>
  <time>2026-09-01T01:18:28Z</time>
  <course>71.83</course>
  <speed>0.07</speed>
  <fix>3d</fix>
</trkpt>
<trkpt lat="33.8103128" lon="-118.3938674">
  <ele>-2.961</ele>
  <time>2026-09-01T01:18:28Z</time>
  <course>187.32</course>
  <speed>0.0565685424949238</speed>
  <fix>3d</fix>
</trkpt>
<trkpt lat="33.8103127" lon="-118.3938673">
  <ele>-3.056</ele>
  <time>2026-09-01T01:18:28Z</time>
  <course>187.31</course>
  <speed>0.0565685424949238</speed>
  <fix>3d</fix>
</trkpt>
<trkpt lat="33.8103007" lon="-118.393882">
  <ele>-1.14</ele>
  <time>2026-09-01T01:18:28Z</time>
  <course>63.18</course>
  <speed>0.06</speed>
  <fix>3d</fix>
</trkpt>
<trkpt lat="33.8103127" lon="-118.3938673">
  <ele>-3.058</ele>
  <time>2026-09-01T01:18:28Z</time>
  <course>187.31</course>
  <speed>0.06403124237432849</speed>
  <fix>3d</fix>
</trkpt>
<trkpt lat="33.8103126" lon="-118.3938673">
  <ele>-3.156</ele>
  <time>2026-09-01T01:18:28Z</time>
  <course>187.32</course>
  <speed>0.06403124237432849</speed>
  <fix>3d</fix>
</trkpt>
<trkpt lat="33.8103007" lon="-118.393882">
  <ele>-1.14</ele>
  <time>2026-09-01T01:18:28Z</time>
  <course>63.18</course>
  <speed>0.06</speed>
  <fix>3d</fix>
</trkpt>
<trkpt lat="33.8103126" lon="-118.3938673">
  <ele>-3.158</ele>
  <time>2026-09-01T01:18:28Z</time>
  <course>187.32</course>
  <speed>0.06403124237432849</speed>
  <fix>3d</fix>
</trkpt>
<trkpt lat="33.8103126" lon="-118.3938673">
  <ele>-3.256</ele>
  <time>2026-09-01T01:18:28Z</time>
  <course>187.31</course>
  <speed>0.05830951894845301</speed>
  <fix>3d</fix>
</trkpt>
<trkpt lat="33.8102995" lon="-118.3938803">
  <ele>-1.33</ele>
  <time>2026-09-01T01:18:28Z</time>
  <course>55.2</course>
  <speed>0.06</speed>
  <fix>3d</fix>
</trkpt>
<trkpt lat="33.8103126" lon="-118.3938673">
  <ele>-3.259</ele>
  <time>2026-09-01T01:18:28Z</time>
  <course>187.31</course>
  <speed>0.05830951894845301</speed>
  <fix>3d</fix>
</trkpt>
<trkpt lat="33.8103126" lon="-118.3938673">
  <ele>-3.355</ele>
  <time>2026-09-01T01:18:28Z</time>
  <course>187.33</course>
  <speed>0.0670820393249937</speed>
  <fix>3d</fix>
</trkpt>
<trkpt lat="33.8102995" lon="-118.3938803">
  <ele>-1.33</ele>
  <time>2026-09-01T01:18:28Z</time>
  <course>55.2</course>
  <speed>0.06</speed>
  <fix>3d</fix>
</trkpt>
<trkpt lat="33.8103126" lon="-118.3938673">
  <ele>-3.359</ele>
  <time>2026-09-01T01:18:28Z</time>
  <course>187.33</course>
  <speed>0.0670820393249937</speed>
  <fix>3d</fix>
</trkpt>
<trkpt lat="33.8103126" lon="-118.3938673">
  <ele>-3.453</ele>
  <time>2026-09-01T01:18:28Z</time>
  <course>187.32</course>
  <speed>0.0670820393249937</speed>
  <fix>3d</fix>
</trkpt>
<trkpt lat="33.8102984" lon="-118.3938785">
  <ele>-1.51</ele>
  <time>2026-09-01T01:18:28Z</time>
  <course>47.12</course>
  <speed>0.06</speed>
  <fix>3d</fix>
</trkpt>
<trkpt lat="33.8103126" lon="-118.3938673">
  <ele>-3.456</ele>
  <time>2026-09-01T01:18:28Z</time>
  <course>187.32</course>
  <speed>0.0670820393249937</speed>
  <fix>3d</fix>
</trkpt>
<trkpt lat="33.8103126" lon="-118.3938673">
  <ele>-3.549</ele>
  <time>2026-09-01T01:18:28Z</time>
  <course>187.35</course>
  <speed>0.0670820393249937</speed>
  <fix>3d</fix>
</trkpt>
<trkpt lat="33.8102984" lon="-118.3938785">
  <ele>-1.51</ele>
  <time>2026-09-01T01:18:28Z</time>
  <course>47.12</course>
  <speed>0.06</speed>
  <fix>3d</fix>
</trkpt>
<trkpt lat="33.8103126" lon="-118.3938673">
  <ele>-3.553</ele>
  <time>2026-09-01T01:18:28Z</time>
  <course>187.35</course>
  <speed>0.0670820393249937</speed>
  <fix>3d</fix>
</trkpt>
<trkpt lat="33.8103126" lon="-118.3938673">
  <ele>-3.646</ele>
  <time>2026-09-01T01:18:28Z</time>
  <course>187.35</course>
  <speed>0.0632455532033676</speed>
  <fix>3d</fix>
</trkpt>
<trkpt lat="33.8102976" lon="-118.3938766">
  <ele>-1.7</ele>
  <time>2026-09-01T01:18:28Z</time>
  <course>38.63</course>
  <speed>0.06</speed>
  <fix>3d</fix>
</trkpt>
<trkpt lat="33.8103126" lon="-118.3938673">
  <ele>-3.649</ele>
  <time>2026-09-01T01:18:28Z</time>
  <course>187.35</course>
  <speed>0.0632455532033676</speed>
  <fix>3d</fix>
</trkpt>
<trkpt lat="33.8103126" lon="-118.3938673">
  <ele>-3.744</ele>
  <time>2026-09-01T01:18:28Z</time>
  <course>187.35</course>
  <speed>0.07280109889280519</speed>
  <fix>3d</fix>
</trkpt>
<trkpt lat="33.8102976" lon="-118.3938766">
  <ele>-1.7</ele>
  <time>2026-09-01T01:18:28Z</time>
  <course>38.63</course>
  <speed>0.06</speed>
  <fix>3d</fix>
</trkpt>
<trkpt lat="33.8103126" lon="-118.3938672">
  <ele>-3.746</ele>
  <time>2026-09-01T01:18:28Z</time>
  <course>187.35</course>
  <speed>0.07280109889280519</speed>
  <fix>3d</fix>
</trkpt>
<trkpt lat="33.8103126" lon="-118.3938672">
  <ele>-3.84</ele>
  <time>2026-09-01T01:18:28Z</time>
  <course>187.33</course>
  <speed>0.07280109889280519</speed>
  <fix>3d</fix>
</trkpt>
<trkpt lat="33.8102968" lon="-118.3938745">
  <ele>-1.88</ele>
  <time>2026-09-01T01:18:28Z</time>
  <course>30.93</course>
  <speed>0.07</speed>
  <fix>3d</fix>
</trkpt>
<trkpt lat="33.8103126" lon="-118.3938672">
  <ele>-3.843</ele>
  <time>2026-09-01T01:18:28Z</time>
  <course>187.33</course>
  <speed>0.07280109889280519</speed>
  <fix>3d</fix>
</trkpt>
<trkpt lat="33.8103126" lon="-118.3938672">
  <ele>-3.939</ele>
  <time>2026-09-01T01:18:28Z</time>
  <course>187.32</course>
  <speed>0.07280109889280519</speed>
  <fix>3d</fix>
</trkpt>
<trkpt lat="33.8102968" lon="-118.3938745">
  <ele>-1.88</ele>
  <time>2026-09-01T01:18:28Z</time>
  <course>30.93</course>
  <speed>0.07</speed>
  <fix>3d</fix>
</trkpt>
<trkpt lat="33.8103126" lon="-118.3938672">
  <ele>-3.941</ele>
  <time>2026-09-01T01:18:28Z</time>
  <course>187.32</course>
  <speed>0.07280109889280519</speed>
  <fix>3d</fix>
</trkpt>
<trkpt lat="33.8103126" lon="-118.3938672">
  <ele>-4.039</ele>
  <time>2026-09-01T01:18:28Z</time>
  <course>187.3</course>
  <speed>0.07071067811865475</speed>
  <fix>3d</fix>
</trkpt>
<trkpt lat="33.8102963" lon="-118.3938725">
  <ele>-2.07</ele>
  <time>2026-09-01T01:18:28Z</time>
  <course>25.38</course>
  <speed>0.07</speed>
  <fix>3d</fix>
</trkpt>
<trkpt lat="33.8103126" lon="-118.3938672">
  <ele>-4.041</ele>
  <time>2026-09-01T01:18:28Z</time>
  <course>187.3</course>
  <speed>0.07071067811865475</speed>
  <fix>3d</fix>
</trkpt>
<trkpt lat="33.8103126" lon="-118.3938672">
  <ele>-4.138</ele>
  <time>2026-09-01T01:18:28Z</time>
  <course>187.29</course>
  <speed>0.07071067811865475</speed>
  <fix>3d</fix>
</trkpt>
<trkpt lat="33.8102963" lon="-118.3938725">
  <ele>-2.07</ele>
  <time>2026-09-01T01:18:28Z</time>
  <course>25.38</course>
  <speed>0.07</speed>
  <fix>3d</fix>
</trkpt>
<trkpt lat="33.8103126" lon="-118.3938672">
  <ele>-4.14</ele>
  <time>2026-09-01T01:18:28Z</time>
  <course>187.29</course>
  <speed>0.07071067811865475</speed>
  <fix>3d</fix>
</trkpt>
<trkpt lat="33.8103126" lon="-118.3938672">
  <ele>-4.237</ele>
  <time>2026-09-01T01:18:28Z</time>
  <course>187.29</course>
  <speed>0.07071067811865475</speed>
  <fix>3d</fix>
</trkpt>
<trkpt lat="33.8102959" lon="-118.3938704">
  <ele>-2.25</ele>
  <time>2026-09-01T01:18:28Z</time>
  <course>20.66</course>
  <speed>0.07</speed>
  <fix>3d</fix>
</trkpt>
<trkpt lat="33.8103126" lon="-118.3938672">
  <ele>-4.239</ele>
  <time>2026-09-01T01:18:28Z</time>
  <course>187.29</course>
  <speed>0.07071067811865475</speed>
  <fix>3d</fix>
</trkpt>
<trkpt lat="33.8103126" lon="-118.3938672">
  <ele>-4.336</ele>
  <time>2026-09-01T01:18:28Z</time>
  <course>187.3</course>
  <speed>0.07</speed>
  <fix>3d</fix>
</trkpt>
<trkpt lat="33.8102959" lon="-118.3938704">
  <ele>-2.25</ele>
  <time>2026-09-01T01:18:28Z</time>
  <course>20.66</course>
  <speed>0.07</speed>
  <fix>3d</fix>
</trkpt>
<trkpt lat="33.8103126" lon="-118.3938672">
  <ele>-4.338</ele>
  <time>2026-09-01T01:18:28Z</time>
  <course>187.3</course>
  <speed>0.07</speed>
  <fix>3d</fix>
</trkpt>
<trkpt lat="33.8103126" lon="-118.3938672">
  <ele>-4.435</ele>
  <time>2026-09-01T01:18:28Z</time>
  <course>187.3</course>
  <speed>0.07</speed>
  <fix>3d</fix>
</trkpt>
<trkpt lat="33.8102957" lon="-118.3938682">
  <ele>-2.44</ele>
  <time>2026-09-01T01:18:28Z</time>
  <course>15.48</course>
  <speed>0.07</speed>
  <fix>3d</fix>
</trkpt>
<trkpt lat="33.8103126" lon="-118.3938672">
  <ele>-4.437</ele>
  <time>2026-09-01T01:18:28Z</time>
  <course>187.3</course>
  <speed>0.07</speed>
  <fix>3d</fix>
</trkpt>
<trkpt lat="33.8103126" lon="-118.3938671">
  <ele>-4.532</ele>
  <time>2026-09-01T01:18:28Z</time>
  <course>187.3</course>
  <speed>0.07</speed>
  <fix>3d</fix>
</trkpt>
<trkpt lat="33.8102957" lon="-118.3938682">
  <ele>-2.44</ele>
  <time>2026-09-01T01:18:28Z</time>
  <course>15.48</course>
  <speed>0.07</speed>
  <fix>3d</fix>
</trkpt>
<trkpt lat="33.8103126" lon="-118.3938671">
  <ele>-4.535</ele>
  <time>2026-09-01T01:18:28Z</time>
  <course>187.3</course>
  <speed>0.07</speed>
  <fix>3d</fix>
</trkpt>
<trkpt lat="33.8103126" lon="-118.3938671">
  <ele>-4.629</ele>
  <time>2026-09-01T01:18:28Z</time>
  <course>187.3</course>
  <speed>0.07</speed>
  <fix>3d</fix>
</trkpt>
<trkpt lat="33.8102957" lon="-118.393866">
  <ele>-2.62</ele>
  <time>2026-09-01T01:18:28Z</time>
  <course>10.54</course>
  <speed>0.07</speed>
  <fix>3d</fix>
</trkpt>
<trkpt lat="33.8103126" lon="-118.3938671">
  <ele>-4.63</ele>
  <time>2026-09-01T01:18:28Z</time>
  <course>187.3</course>
  <speed>0.08</speed>
  <fix>3d</fix>
</trkpt>
<trkpt lat="33.8103126" lon="-118.3938671">
  <ele>-4.724</ele>
  <time>2026-09-01T01:18:28Z</time>
  <course>187.3</course>
  <speed>0.08</speed>
  <fix>3d</fix>
</trkpt>
<trkpt lat="33.8102957" lon="-118.393866">
  <ele>-2.62</ele>
  <time>2026-09-01T01:18:28Z</time>
  <course>10.54</course>
  <speed>0.07</speed>
  <fix>3d</fix>
</trkpt>
<trkpt lat="33.8103126" lon="-118.3938671">
  <ele>-4.726</ele>
  <time>2026-09-01T01:18:28Z</time>
  <course>187.3</course>
  <speed>0.08</speed>
  <fix>3d</fix>
</trkpt>
<trkpt lat="33.8103126" lon="-118.3938671">
  <ele>-4.819</ele>
  <time>2026-09-01T01:18:28Z</time>
  <course>187.3</course>
  <speed>0.08</speed>
  <fix>3d</fix>
</trkpt>
<trkpt lat="33.8102959" lon="-118.3938638">
  <ele>-2.79</ele>
  <time>2026-09-01T01:18:28Z</time>
  <course>6.24</course>
  <speed>0.07</speed>
  <fix>3d</fix>
</trkpt>
<trkpt lat="33.8103126" lon="-118.3938671">
  <ele>-4.821</ele>
  <time>2026-09-01T01:18:28Z</time>
  <course>187.3</course>
  <speed>0.08</speed>
  <fix>3d</fix>
</trkpt>
<trkpt lat="33.8103126" lon="-118.3938671">
  <ele>-4.914</ele>
  <time>2026-09-01T01:18:28Z</time>
  <course>187.3</course>
  <speed>0.08</speed>
  <fix>3d</fix>
</trkpt>
<trkpt lat="33.8102959" lon="-118.3938638">
  <ele>-2.79</ele>
  <time>2026-09-01T01:18:28Z</time>
  <course>6.24</course>
  <speed>0.07</speed>
  <fix>3d</fix>
</trkpt>
<trkpt lat="33.8103126" lon="-118.3938671">
  <ele>-4.916</ele>
  <time>2026-09-01T01:18:28Z</time>
  <course>187.3</course>
  <speed>0.08</speed>
  <fix>3d</fix>
</trkpt>
<trkpt lat="33.8103126" lon="-118.3938671">
  <ele>-5.011</ele>
  <time>2026-09-01T01:18:28Z</time>
  <course>187.3</course>
  <speed>0.08</speed>
  <fix>3d</fix>
</trkpt>
<trkpt lat="33.8102962" lon="-118.3938616">
  <ele>-2.98</ele>
  <time>2026-09-01T01:18:28Z</time>
  <course>2.64</course>
  <speed>0.07</speed>
  <fix>3d</fix>
</trkpt>
<trkpt lat="33.8103126" lon="-118.3938671">
  <ele>-5.013</ele>
  <time>2026-09-01T01:18:28Z</time>
  <course>187.3</course>
  <speed>0.08</speed>
  <fix>3d</fix>
</trkpt>
<trkpt lat="33.8103126" lon="-118.393867">
  <ele>-5.106</ele>
  <time>2026-09-01T01:18:28Z</time>
  <course>187.3</course>
  <speed>0.08</speed>
  <fix>3d</fix>
</trkpt>
<trkpt lat="33.8102962" lon="-118.3938616">
  <ele>-2.98</ele>
  <time>2026-09-01T01:18:28Z</time>
  <course>2.64</course>
  <speed>0.07</speed>
  <fix>3d</fix>
</trkpt>
<trkpt lat="33.8103126" lon="-118.393867">
  <ele>-5.109</ele>
  <time>2026-09-01T01:18:28Z</time>
  <course>187.3</course>
  <speed>0.08</speed>
  <fix>3d</fix>
</trkpt>
<trkpt lat="33.8103126" lon="-118.393867">
  <ele>-5.203</ele>
  <time>2026-09-01T01:18:28Z</time>
  <course>187.3</course>
  <speed>0.08062257748298549</speed>
  <fix>3d</fix>
</trkpt>
<trkpt lat="33.8102967" lon="-118.3938595">
  <ele>-3.16</ele>
  <time>2026-09-01T01:18:28Z</time>
  <course>358.97</course>
  <speed>0.07</speed>
  <fix>3d</fix>
</trkpt>
<trkpt lat="33.8103126" lon="-118.393867">
  <ele>-5.208</ele>
  <time>2026-09-01T01:18:28Z</time>
  <course>187.3</course>
  <speed>0.08062257748298549</speed>
  <fix>3d</fix>
</trkpt>
<trkpt lat="33.8103126" lon="-118.393867">
  <ele>-5.301</ele>
  <time>2026-09-01T01:18:28Z</time>
  <course>187.3</course>
  <speed>0.08062257748298549</speed>
  <fix>3d</fix>
</trkpt>
<trkpt lat="33.8102967" lon="-118.3938595">
  <ele>-3.16</ele>
  <time>2026-09-01T01:18:28Z</time>
  <course>358.97</course>
  <speed>0.07</speed>
  <fix>3d</fix>
</trkpt>
<trkpt lat="33.8103126" lon="-118.393867">
  <ele>-5.303</ele>
  <time>2026-09-01T01:18:28Z</time>
  <course>187.3</course>
  <speed>0.08062257748298549</speed>
  <fix>3d</fix>
</trkpt>
<trkpt lat="33.8103126" lon="-118.393867">
  <ele>-5.398</ele>
  <time>2026-09-01T01:18:28Z</time>
  <course>187.3</course>
  <speed>0.08062257748298549</speed>
  <fix>3d</fix>
</trkpt>
<trkpt lat="33.8102974" lon="-118.3938575">
  <ele>-3.35</ele>
  <time>2026-09-01T01:18:28Z</time>
  <course>355.78</course>
  <speed>0.07</speed>
  <fix>3d</fix>
</trkpt>
<trkpt lat="33.8103127" lon="-118.393867">
  <ele>-5.401</ele>
  <time>2026-09-01T01:18:28Z</time>
  <course>187.3</course>
  <speed>0.08062257748298549</speed>
  <fix>3d</fix>
</trkpt>
<trkpt lat="33.8103127" lon="-118.393867">
  <ele>-5.495</ele>
  <time>2026-09-01T01:18:28Z</time>
  <course>187.3</course>
  <speed>0.08062257748298549</speed>
  <fix>3d</fix>
</trkpt>
<trkpt lat="33.8102974" lon="-118.3938575">
  <ele>-3.35</ele>
  <time>2026-09-01T01:18:28Z</time>
  <course>355.78</course>
  <speed>0.07</speed>
  <fix>3d</fix>
</trkpt>
<trkpt lat="33.8103127" lon="-118.393867">
  <ele>-5.499</ele>
  <time>2026-09-01T01:18:28Z</time>
  <course>187.3</course>
  <speed>0.08062257748298549</speed>
  <fix>3d</fix>
</trkpt>
<trkpt lat="33.8103127" lon="-118.3938669">
  <ele>-5.593</ele>
  <time>2026-09-01T01:18:28Z</time>
  <course>187.3</course>
  <speed>0.08062257748298549</speed>
  <fix>3d</fix>
</trkpt>
<trkpt lat="33.8102983" lon="-118.3938555">
  <ele>-3.53</ele>
  <time>2026-09-01T01:18:28Z</time>
  <course>353.38</course>
  <speed>0.07</speed>
  <fix>3d</fix>
</trkpt>
<trkpt lat="33.8103127" lon="-118.3938669">
  <ele>-5.597</ele>
  <time>2026-09-01T01:18:28Z</time>
  <course>187.3</course>
  <speed>0.08062257748298549</speed>
  <fix>3d</fix>
</trkpt>
<trkpt lat="33.8103127" lon="-118.3938669">
  <ele>-5.691</ele>
  <time>2026-09-01T01:18:28Z</time>
  <course>187.3</course>
  <speed>0.08062257748298549</speed>
  <fix>3d</fix>
</trkpt>
<trkpt lat="33.8102983" lon="-118.3938555">
  <ele>-3.53</ele>
  <time>2026-09-01T01:18:28Z</time>
  <course>353.38</course>
  <speed>0.07</speed>
  <fix>3d</fix>
</trkpt>
<trkpt lat="33.8103127" lon="-118.3938669">
  <ele>-5.695</ele>
  <time>2026-09-01T01:18:28Z</time>
  <course>187.3</course>
  <speed>0.08062257748298549</speed>
  <fix>3d</fix>
</trkpt>
<trkpt lat="33.8103127" lon="-118.3938669">
  <ele>-5.79</ele>
  <time>2026-09-01T01:18:28Z</time>
  <course>187.3</course>
  <speed>0.0824621125123532</speed>
  <fix>3d</fix>
</trkpt>
<trkpt lat="33.8102993" lon="-118.3938536">
  <ele>-3.72</ele>
  <time>2026-09-01T01:18:28Z</time>
  <course>351.24</course>
  <speed>0.06</speed>
  <fix>3d</fix>
</trkpt>
<trkpt lat="33.8103127" lon="-118.3938669">
  <ele>-5.793</ele>
  <time>2026-09-01T01:18:28Z</time>
  <course>187.3</course>
  <speed>0.0824621125123532</speed>
  <fix>3d</fix>
</trkpt>
<trkpt lat="33.8103127" lon="-118.3938669">
  <ele>-5.888</ele>
  <time>2026-09-01T01:18:28Z</time>
  <course>187.3</course>
  <speed>0.0824621125123532</speed>
  <fix>3d</fix>
</trkpt>
<trkpt lat="33.8102993" lon="-118.3938536">
  <ele>-3.72</ele>
  <time>2026-09-01T01:18:28Z</time>
  <course>351.24</course>
  <speed>0.06</speed>
  <fix>3d</fix>
</trkpt>
<trkpt lat="33.8103127" lon="-118.3938669">
  <ele>-5.89</ele>
  <time>2026-09-01T01:18:28Z</time>
  <course>187.3</course>
  <speed>0.0824621125123532</speed>
  <fix>3d</fix>
</trkpt>
<trkpt lat="33.8103127" lon="-118.3938668">
  <ele>-5.985</ele>
  <time>2026-09-01T01:18:28Z</time>
  <course>187.3</course>
  <speed>0.0824621125123532</speed>
  <fix>3d</fix>
</trkpt>
<trkpt lat="33.8103005" lon="-118.3938519">
  <ele>-3.9</ele>
  <time>2026-09-01T01:18:28Z</time>
  <course>349.26</course>
  <speed>0.06</speed>
  <fix>3d</fix>
</trkpt>
<trkpt lat="33.8103127" lon="-118.3938668">
  <ele>-5.988</ele>
  <time>2026-09-01T01:18:28Z</time>
  <course>187.3</course>
  <speed>0.0824621125123532</speed>
  <fix>3d</fix>
</trkpt>
<trkpt lat="33.8103128" lon="-118.3938667">
  <ele>-6.082</ele>
  <time>2026-09-01T01:18:28Z</time>
  <course>187.3</course>
  <speed>0.0824621125123532</speed>
  <fix>3d</fix>
</trkpt>
<trkpt lat="33.8103005" lon="-118.3938519">
  <ele>-3.9</ele>
  <time>2026-09-01T01:18:28Z</time>
  <course>349.26</course>
  <speed>0.06</speed>
  <fix>3d</fix>
</trkpt>
<trkpt lat="33.8103128" lon="-118.3938667">
  <ele>-6.085</ele>
  <time>2026-09-01T01:18:28Z</time>
  <course>187.3</course>
  <speed>0.0824621125123532</speed>
  <fix>3d</fix>
</trkpt>
<trkpt lat="33.8103128" lon="-118.3938667">
  <ele>-6.18</ele>
  <time>2026-09-01T01:18:28Z</time>
  <course>187.33</course>
  <speed>0.07280109889280519</speed>
  <fix>3d</fix>
</trkpt>
<trkpt lat="33.8103018" lon="-118.3938502">
  <ele>-4.09</ele>
  <time>2026-09-01T01:18:28Z</time>
  <course>347.35</course>
  <speed>0.06</speed>
  <fix>3d</fix>
</trkpt>
<trkpt lat="33.8103128" lon="-118.3938667">
  <ele>-6.182</ele>
  <time>2026-09-01T01:18:28Z</time>
  <course>187.33</course>
  <speed>0.07280109889280519</speed>
  <fix>3d</fix>
</trkpt>
<trkpt lat="33.8103128" lon="-118.3938667">
  <ele>-6.277</ele>
  <time>2026-09-01T01:18:28Z</time>
  <course>187.35</course>
  <speed>0.07615773105863909</speed>
  <fix>3d</fix>
</trkpt>
<trkpt lat="33.8103018" lon="-118.3938502">
  <ele>-4.09</ele>
  <time>2026-09-01T01:18:28Z</time>
  <course>347.35</course>
  <speed>0.06</speed>
  <fix>3d</fix>
</trkpt>
<trkpt lat="33.8103128" lon="-118.3938667">
  <ele>-6.282</ele>
  <time>2026-09-01T01:18:28Z</time>
  <course>187.35</course>
  <speed>0.07615773105863909</speed>
  <fix>3d</fix>
</trkpt>
<trkpt lat="33.8103128" lon="-118.3938667">
  <ele>-6.375</ele>
  <time>2026-09-01T01:18:28Z</time>
  <course>187.38</course>
  <speed>0.07615773105863909</speed>
  <fix>3d</fix>
</trkpt>
<trkpt lat="33.8103033" lon="-118.3938488">
  <ele>-4.28</ele>
  <time>2026-09-01T01:18:28Z</time>
  <course>342.02</course>
  <speed>0.06</speed>
  <fix>3d</fix>
</trkpt>
<trkpt lat="33.8103128" lon="-118.3938667">
  <ele>-6.377</ele>
  <time>2026-09-01T01:18:28Z</time>
  <course>187.38</course>
  <speed>0.07615773105863909</speed>
  <fix>3d</fix>
</trkpt>
<trkpt lat="33.8103128" lon="-118.3938667">
  <ele>-6.473</ele>
  <time>2026-09-01T01:18:28Z</time>
  <course>187.4</course>
  <speed>0.07211102550927978</speed>
  <fix>3d</fix>
</trkpt>
<trkpt lat="33.8103033" lon="-118.3938488">
  <ele>-4.28</ele>
  <time>2026-09-01T01:18:28Z</time>
  <course>342.02</course>
  <speed>0.06</speed>
  <fix>3d</fix>
</trkpt>
<trkpt lat="33.8103128" lon="-118.3938667">
  <ele>-6.476</ele>
  <time>2026-09-01T01:18:28Z</time>
  <course>187.4</course>
  <speed>0.07211102550927978</speed>
  <fix>3d</fix>
</trkpt>
<trkpt lat="33.8103129" lon="-118.3938667">
  <ele>-6.573</ele>
  <time>2026-09-01T01:18:28Z</time>
  <course>187.41</course>
  <speed>0.07211102550927978</speed>
  <fix>3d</fix>
</trkpt>
<trkpt lat="33.8103048" lon="-118.3938476">
  <ele>-4.46</ele>
  <time>2026-09-01T01:18:28Z</time>
  <course>331.54</course>
  <speed>0.06</speed>
  <fix>3d</fix>
</trkpt>
<trkpt lat="33.8103129" lon="-118.3938667">
  <ele>-6.575</ele>
  <time>2026-09-01T01:18:28Z</time>
  <course>187.41</course>
  <speed>0.07211102550927978</speed>
  <fix>3d</fix>
</trkpt>
<trkpt lat="33.8103129" lon="-118.3938667">
  <ele>-6.673</ele>
  <time>2026-09-01T01:18:28Z</time>
  <course>187.42</course>
  <speed>0.07810249675906654</speed>
  <fix>3d</fix>
</trkpt>
<trkpt lat="33.8103048" lon="-118.3938476">
  <ele>-4.46</ele>
  <time>2026-09-01T01:18:28Z</time>
  <course>331.54</course>
  <speed>0.06</speed>
  <fix>3d</fix>
</trkpt>
<trkpt lat="33.8103129" lon="-118.3938667">
  <ele>-6.674</ele>
  <time>2026-09-01T01:18:28Z</time>
  <course>187.42</course>
  <speed>0.07810249675906654</speed>
  <fix>3d</fix>
</trkpt>
<trkpt lat="33.8103129" lon="-118.3938666">
  <ele>-6.771</ele>
  <time>2026-09-01T01:18:28Z</time>
  <course>187.43</course>
  <speed>0.07071067811865475</speed>
  <fix>3d</fix>
</trkpt>
<trkpt lat="33.8103064" lon="-118.3938465">
  <ele>-4.65</ele>
  <time>2026-09-01T01:18:28Z</time>
  <course>319.13</course>
  <speed>0.05</speed>
  <fix>3d</fix>
</trkpt>
<trkpt lat="33.8103129" lon="-118.3938666">
  <ele>-6.773</ele>
  <time>2026-09-01T01:18:28Z</time>
  <course>187.43</course>
  <speed>0.07071067811865475</speed>
  <fix>3d</fix>
</trkpt>
<trkpt lat="33.8103129" lon="-118.3938666">
  <ele>-6.868</ele>
  <time>2026-09-01T01:18:28Z</time>
  <course>187.44</course>
  <speed>0.07810249675906654</speed>
  <fix>3d</fix>
</trkpt>
<trkpt lat="33.8103064" lon="-118.3938465">
  <ele>-4.65</ele>
  <time>2026-09-01T01:18:28Z</time>
  <course>319.13</course>
  <speed>0.05</speed>
  <fix>3d</fix>
</trkpt>
<trkpt lat="33.8103129" lon="-118.3938666">
  <ele>-6.87</ele>
  <time>2026-09-01T01:18:28Z</time>
  <course>187.44</course>
  <speed>0.07810249675906654</speed>
  <fix>3d</fix>
</trkpt>
<trkpt lat="33.8103129" lon="-118.3938666">
  <ele>-6.965</ele>
  <time>2026-09-01T01:18:28Z</time>
  <course>187.44</course>
  <speed>0.07810249675906654</speed>
  <fix>3d</fix>
</trkpt>
<trkpt lat="33.8103081" lon="-118.3938457">
  <ele>-4.83</ele>
  <time>2026-09-01T01:18:28Z</time>
  <course>306.91</course>
  <speed>0.05</speed>
  <fix>3d</fix>
</trkpt>
<trkpt lat="33.8103129" lon="-118.3938666">
  <ele>-6.966</ele>
  <time>2026-09-01T01:18:28Z</time>
  <course>187.44</course>
  <speed>0.07810249675906654</speed>
  <fix>3d</fix>
</trkpt>
<trkpt lat="33.8103129" lon="-118.3938665">
  <ele>-7.062</ele>
  <time>2026-09-01T01:18:28Z</time>
  <course>187.44</course>
  <speed>0.07211102550927978</speed>
  <fix>3d</fix>
</trkpt>
<trkpt lat="33.8103081" lon="-118.3938457">
  <ele>-4.83</ele>
  <time>2026-09-01T01:18:28Z</time>
  <course>306.91</course>
  <speed>0.05</speed>
  <fix>3d</fix>
</trkpt>
<trkpt lat="33.8103129" lon="-118.3938665">
  <ele>-7.065</ele>
  <time>2026-09-01T01:18:28Z</time>
  <course>187.44</course>
  <speed>0.07211102550927978</speed>
  <fix>3d</fix>
</trkpt>
<trkpt lat="33.810313" lon="-118.3938665">
  <ele>-7.159</ele>
  <time>2026-09-01T01:18:28Z</time>
  <course>187.43</course>
  <speed>0.07211102550927978</speed>
  <fix>3d</fix>
</trkpt>
<trkpt lat="33.8103098" lon="-118.393845">
  <ele>-5.02</ele>
  <time>2026-09-01T01:18:28Z</time>
  <course>296.55</course>
  <speed>0.05</speed>
  <fix>3d</fix>
</trkpt>
<trkpt lat="33.810313" lon="-118.3938665">
  <ele>-7.161</ele>
  <time>2026-09-01T01:18:28Z</time>
  <course>187.43</course>
  <speed>0.08062257748298549</speed>
  <fix>3d</fix>
</trkpt>
<trkpt lat="33.810313" lon="-118.3938665">
  <ele>-7.254</ele>
  <time>2026-09-01T01:18:28Z</time>
  <course>187.43</course>
  <speed>0.08062257748298549</speed>
  <fix>3d</fix>
</trkpt>
<trkpt lat="33.8103098" lon="-118.393845">
  <ele>-5.02</ele>
  <time>2026-09-01T01:18:28Z</time>
  <course>296.55</course>
  <speed>0.05</speed>
  <fix>3d</fix>
</trkpt>
<trkpt lat="33.810313" lon="-118.3938665">
  <ele>-7.257</ele>
  <time>2026-09-01T01:18:28Z</time>
  <course>187.43</course>
  <speed>0.08062257748298549</speed>
  <fix>3d</fix>
</trkpt>
<trkpt lat="33.810313" lon="-118.3938665">
  <ele>-7.351</ele>
  <time>2026-09-01T01:18:28Z</time>
  <course>187.43</course>
  <speed>0.08062257748298549</speed>
  <fix>3d</fix>
</trkpt>
<trkpt lat="33.8103116" lon="-118.3938446">
  <ele>-5.21</ele>
  <time>2026-09-01T01:18:28Z</time>
  <course>288.84</course>
  <speed>0.06</speed>
  <fix>3d</fix>
</trkpt>
<trkpt lat="33.810313" lon="-118.3938665">
  <ele>-7.353</ele>
  <time>2026-09-01T01:18:28Z</time>
  <course>187.43</course>
  <speed>0.08062257748298549</speed>
  <fix>3d</fix>
</trkpt>
<trkpt lat="33.810313" lon="-118.3938665">
  <ele>-7.446</ele>
  <time>2026-09-01T01:18:28Z</time>
  <course>187.42</course>
  <speed>0.07615773105863909</speed>
  <fix>3d</fix>
</trkpt>
<trkpt lat="33.8103116" lon="-118.3938446">
  <ele>-5.21</ele>
  <time>2026-09-01T01:18:28Z</time>
  <course>288.84</course>
  <speed>0.06</speed>
  <fix>3d</fix>
</trkpt>
<trkpt lat="33.810313" lon="-118.3938665">
  <ele>-7.449</ele>
  <time>2026-09-01T01:18:28Z</time>
  <course>187.42</course>
  <speed>0.07615773105863909</speed>
  <fix>3d</fix>
</trkpt>
<trkpt lat="33.810313" lon="-118.3938665">
  <ele>-7.543</ele>
  <time>2026-09-01T01:18:28Z</time>
  <course>187.42</course>
  <speed>0.07615773105863909</speed>
  <fix>3d</fix>
</trkpt>
<trkpt lat="33.8103134" lon="-118.3938445">
  <ele>-5.39</ele>
  <time>2026-09-01T01:18:28Z</time>
  <course>282.53</course>
  <speed>0.06</speed>
  <fix>3d</fix>
</trkpt>
<trkpt lat="33.810313" lon="-118.3938665">
  <ele>-7.547</ele>
  <time>2026-09-01T01:18:28Z</time>
  <course>187.42</course>
  <speed>0.07615773105863909</speed>
  <fix>3d</fix>
</trkpt>
<trkpt lat="33.810313" lon="-118.3938665">
  <ele>-7.64</ele>
  <time>2026-09-01T01:18:28Z</time>
  <course>187.42</course>
  <speed>0.0854400374531753</speed>
  <fix>3d</fix>
</trkpt>
<trkpt lat="33.8103134" lon="-118.3938445">
  <ele>-5.39</ele>
  <time>2026-09-01T01:18:28Z</time>
  <course>282.53</course>
  <speed>0.06</speed>
  <fix>3d</fix>
</trkpt>
<trkpt lat="33.810313" lon="-118.3938665">
  <ele>-7.644</ele>
  <time>2026-09-01T01:18:28Z</time>
  <course>187.42</course>
  <speed>0.0854400374531753</speed>
  <fix>3d</fix>
</trkpt>
<trkpt lat="33.810313" lon="-118.3938665">
  <ele>-7.737</ele>
  <time>2026-09-01T01:18:28Z</time>
  <course>187.43</course>
  <speed>0.0854400374531753</speed>
  <fix>3d</fix>
</trkpt>
<trkpt lat="33.8103152" lon="-118.3938445">
  <ele>-5.58</ele>
  <time>2026-09-01T01:18:28Z</time>
  <course>276.96</course>
  <speed>0.06</speed>
  <fix>3d</fix>
</trkpt>
<trkpt lat="33.810313" lon="-118.3938665">
  <ele>-7.74</ele>
  <time>2026-09-01T01:18:28Z</time>
  <course>187.43</course>
  <speed>0.0854400374531753</speed>
  <fix>3d</fix>
</trkpt>
<trkpt lat="33.810313" lon="-118.3938665">
  <ele>-7.834</ele>
  <time>2026-09-01T01:18:28Z</time>
  <course>187.43</course>
  <speed>0.0854400374531753</speed>
  <fix>3d</fix>
</trkpt>
<trkpt lat="33.8103152" lon="-118.3938445">
  <ele>-5.58</ele>
  <time>2026-09-01T01:18:28Z</time>
  <course>276.96</course>
  <speed>0.06</speed>
  <fix>3d</fix>
</trkpt>
<trkpt lat="33.810313" lon="-118.3938665">
  <ele>-7.837</ele>
  <time>2026-09-01T01:18:28Z</time>
  <course>187.43</course>
  <speed>0.0854400374531753</speed>
  <fix>3d</fix>
</trkpt>
<trkpt lat="33.8103131" lon="-118.3938665">
  <ele>-7.931</ele>
  <time>2026-09-01T01:18:28Z</time>
  <course>187.43</course>
  <speed>0.0824621125123532</speed>
  <fix>3d</fix>
</trkpt>
<trkpt lat="33.810317" lon="-118.3938447">
  <ele>-5.77</ele>
  <time>2026-09-01T01:18:28Z</time>
  <course>272.12</course>
  <speed>0.06</speed>
  <fix>3d</fix>
</trkpt>
<trkpt lat="33.8103131" lon="-118.3938665">
  <ele>-7.933</ele>
  <time>2026-09-01T01:18:28Z</time>
  <course>187.43</course>
  <speed>0.0824621125123532</speed>
  <fix>3d</fix>
</trkpt>
<trkpt lat="33.8103131" lon="-118.3938665">
  <ele>-8.028</ele>
  <time>2026-09-01T01:18:28Z</time>
  <course>187.42</course>
  <speed>0.0824621125123532</speed>
  <fix>3d</fix>
</trkpt>
<trkpt lat="33.810317" lon="-118.3938447">
  <ele>-5.77</ele>
  <time>2026-09-01T01:18:28Z</time>
  <course>272.12</course>
  <speed>0.06</speed>
  <fix>3d</fix>
</trkpt>
<trkpt lat="33.8103131" lon="-118.3938665">
  <ele>-8.03</ele>
  <time>2026-09-01T01:18:28Z</time>
  <course>187.42</course>
  <speed>0.0824621125123532</speed>
  <fix>3d</fix>
</trkpt>
<trkpt lat="33.8103131" lon="-118.3938665">
  <ele>-8.127</ele>
  <time>2026-09-01T01:18:28Z</time>
  <course>187.42</course>
  <speed>0.0824621125123532</speed>
  <fix>3d</fix>
</trkpt>
<trkpt lat="33.8103188" lon="-118.3938452">
  <ele>-5.97</ele>
  <time>2026-09-01T01:18:28Z</time>
  <course>267.87</course>
  <speed>0.06</speed>
  <fix>3d</fix>
</trkpt>
<trkpt lat="33.8103131" lon="-118.3938665">
  <ele>-8.129</ele>
  <time>2026-09-01T01:18:28Z</time>
  <course>187.42</course>
  <speed>0.0824621125123532</speed>
  <fix>3d</fix>
</trkpt>
<trkpt lat="33.8103131" lon="-118.3938665">
  <ele>-8.226</ele>
  <time>2026-09-01T01:18:28Z</time>
  <course>187.42</course>
  <speed>0.0824621125123532</speed>
  <fix>3d</fix>
</trkpt>
<trkpt lat="33.8103188" lon="-118.3938452">
  <ele>-5.97</ele>
  <time>2026-09-01T01:18:28Z</time>
  <course>267.87</course>
  <speed>0.06</speed>
  <fix>3d</fix>
</trkpt>
<trkpt lat="33.8103131" lon="-118.3938665">
  <ele>-8.229</ele>
  <time>2026-09-01T01:18:28Z</time>
  <course>187.42</course>
  <speed>0.0824621125123532</speed>
  <fix>3d</fix>
</trkpt>
<trkpt lat="33.8103131" lon="-118.3938665">
  <ele>-8.326</ele>
  <time>2026-09-01T01:18:28Z</time>
  <course>187.42</course>
  <speed>0.0824621125123532</speed>
  <fix>3d</fix>
</trkpt>
<trkpt lat="33.8103205" lon="-118.3938459">
  <ele>-6.16</ele>
  <time>2026-09-01T01:18:28Z</time>
  <course>264.28</course>
  <speed>0.06</speed>
  <fix>3d</fix>
</trkpt>
<trkpt lat="33.8103131" lon="-118.3938665">
  <ele>-8.328</ele>
  <time>2026-09-01T01:18:28Z</time>
  <course>187.42</course>
  <speed>0.0824621125123532</speed>
  <fix>3d</fix>
</trkpt>
<trkpt lat="33.8103131" lon="-118.3938666">
  <ele>-8.426</ele>
  <time>2026-09-01T01:18:28Z</time>
  <course>187.42</course>
  <speed>0.0824621125123532</speed>
  <fix>3d</fix>
</trkpt>
<trkpt lat="33.8103205" lon="-118.3938459">
  <ele>-6.16</ele>
  <time>2026-09-01T01:18:28Z</time>
  <course>264.28</course>
  <speed>0.06</speed>
  <fix>3d</fix>
</trkpt>
<trkpt lat="33.8103131" lon="-118.3938666">
  <ele>-8.428</ele>
  <time>2026-09-01T01:18:28Z</time>
  <course>187.42</course>
  <speed>0.0824621125123532</speed>
  <fix>3d</fix>
</trkpt>
<trkpt lat="33.8103131" lon="-118.3938666">
  <ele>-8.526</ele>
  <time>2026-09-01T01:18:28Z</time>
  <course>187.42</course>
  <speed>0.0824621125123532</speed>
  <fix>3d</fix>
</trkpt>
<trkpt lat="33.8103222" lon="-118.3938468">
  <ele>-6.35</ele>
  <time>2026-09-01T01:18:28Z</time>
  <course>261.19</course>
  <speed>0.06</speed>
  <fix>3d</fix>
</trkpt>
<trkpt lat="33.8103131" lon="-118.3938666">
  <ele>-8.531</ele>
  <time>2026-09-01T01:18:28Z</time>
  <course>187.42</course>
  <speed>0.0824621125123532</speed>
  <fix>3d</fix>
</trkpt>
<trkpt lat="33.8103131" lon="-118.3938666">
  <ele>-8.628</ele>
  <time>2026-09-01T01:18:28Z</time>
  <course>187.42</course>
  <speed>0.0824621125123532</speed>
  <fix>3d</fix>
</trkpt>
<trkpt lat="33.8103222" lon="-118.3938468">
  <ele>-6.35</ele>
  <time>2026-09-01T01:18:28Z</time>
  <course>261.19</course>
  <speed>0.06</speed>
  <fix>3d</fix>
</trkpt>
<trkpt lat="33.8103131" lon="-118.3938666">
  <ele>-8.629</ele>
  <time>2026-09-01T01:18:28Z</time>
  <course>187.42</course>
  <speed>0.0824621125123532</speed>
  <fix>3d</fix>
</trkpt>
<trkpt lat="33.8103132" lon="-118.3938666">
  <ele>-8.728</ele>
  <time>2026-09-01T01:18:28Z</time>
  <course>187.42</course>
  <speed>0.08062257748298549</speed>
  <fix>3d</fix>
</trkpt>
<trkpt lat="33.8103238" lon="-118.3938479">
  <ele>-6.55</ele>
  <time>2026-09-01T01:18:28Z</time>
  <course>258.44</course>
  <speed>0.06</speed>
  <fix>3d</fix>
</trkpt>
<trkpt lat="33.8103132" lon="-118.3938666">
  <ele>-8.73</ele>
  <time>2026-09-01T01:18:28Z</time>
  <course>187.42</course>
  <speed>0.08062257748298549</speed>
  <fix>3d</fix>
</trkpt>
<trkpt lat="33.8103132" lon="-118.3938666">
  <ele>-8.828</ele>
  <time>2026-09-01T01:18:28Z</time>
  <course>187.42</course>
  <speed>0.08062257748298549</speed>
  <fix>3d</fix>
</trkpt>
<trkpt lat="33.8103238" lon="-118.3938479">
  <ele>-6.55</ele>
  <time>2026-09-01T01:18:28Z</time>
  <course>258.44</course>
  <speed>0.06</speed>
  <fix>3d</fix>
</trkpt>
<trkpt lat="33.8103132" lon="-118.3938666">
  <ele>-8.829</ele>
  <time>2026-09-01T01:18:28Z</time>
  <course>187.42</course>
  <speed>0.08062257748298549</speed>
  <fix>3d</fix>
</trkpt>
<trkpt lat="33.8103132" lon="-118.3938666">
  <ele>-8.925</ele>
  <time>2026-09-01T01:18:28Z</time>
  <course>187.42</course>
  <speed>0.08062257748298549</speed>
  <fix>3d</fix>
</trkpt>
<trkpt lat="33.8103253" lon="-118.3938492">
  <ele>-6.74</ele>
  <time>2026-09-01T01:18:28Z</time>
  <course>255.92</course>
  <speed>0.06</speed>
  <fix>3d</fix>
</trkpt>
<trkpt lat="33.8103132" lon="-118.3938666">
  <ele>-8.927</ele>
  <time>2026-09-01T01:18:28Z</time>
  <course>187.42</course>
  <speed>0.08062257748298549</speed>
  <fix>3d</fix>
</trkpt>
<trkpt lat="33.8103132" lon="-118.3938666">
  <ele>-9.021</ele>
  <time>2026-09-01T01:18:28Z</time>
  <course>187.42</course>
  <speed>0.08062257748298549</speed>
  <fix>3d</fix>
</trkpt>
<trkpt lat="33.8103253" lon="-118.3938492">
  <ele>-6.74</ele>
  <time>2026-09-01T01:18:28Z</time>
  <course>255.92</course>
  <speed>0.06</speed>
  <fix>3d</fix>
</trkpt>
<trkpt lat="33.8103132" lon="-118.3938666">
  <ele>-9.023</ele>
  <time>2026-09-01T01:18:28Z</time>
  <course>187.42</course>
  <speed>0.08062257748298549</speed>
  <fix>3d</fix>
</trkpt>
<trkpt lat="33.8103132" lon="-118.3938667">
  <ele>-9.119</ele>
  <time>2026-09-01T01:18:28Z</time>
  <course>187.42</course>
  <speed>0.08062257748298549</speed>
  <fix>3d</fix>
</trkpt>
<trkpt lat="33.8103268" lon="-118.3938506">
  <ele>-6.92</ele>
  <time>2026-09-01T01:18:28Z</time>
  <course>253.75</course>
  <speed>0.06</speed>
  <fix>3d</fix>
</trkpt>
<trkpt lat="33.8103132" lon="-118.3938667">
  <ele>-9.212</ele>
  <time>2026-09-01T01:18:28Z</time>
  <course>187.38</course>
  <speed>0.08062257748298549</speed>
  <fix>3d</fix>
</trkpt>
<trkpt lat="33.8103268" lon="-118.3938506">
  <ele>-6.92</ele>
  <time>2026-09-01T01:18:28Z</time>
  <course>253.75</course>
  <speed>0.06</speed>
  <fix>3d</fix>
</trkpt>
<trkpt lat="33.8103133" lon="-118.3938667">
  <ele>-9.294</ele>
  <time>2026-09-01T01:18:28Z</time>
  <course>187.32</course>
  <speed>0.08062257748298549</speed>
  <fix>3d</fix>
</trkpt>
<trkpt lat="33.8103281" lon="-118.3938522">
  <ele>-7.11</ele>
  <time>2026-09-01T01:18:28Z</time>
  <course>250.31</course>
  <speed>0.06</speed>
  <fix>3d</fix>
</trkpt>
<trkpt lat="33.8103133" lon="-118.3938667">
  <ele>-9.36</ele>
  <time>2026-09-01T01:18:28Z</time>
  <course>187.31</course>
  <speed>0.08062257748298549</speed>
  <fix>3d</fix>
</trkpt>
<trkpt lat="33.8103281" lon="-118.3938522">
  <ele>-7.11</ele>
  <time>2026-09-01T01:18:28Z</time>
  <course>250.31</course>
  <speed>0.06</speed>
  <fix>3d</fix>
</trkpt>
<trkpt lat="33.8103133" lon="-118.3938667">
  <ele>-9.408</ele>
  <time>2026-09-01T01:18:28Z</time>
  <course>187.3</course>
  <speed>0.07</speed>
  <fix>3d</fix>
</trkpt>
<trkpt lat="33.8103292" lon="-118.393854">
  <ele>-7.26</ele>
  <time>2026-09-01T01:18:28Z</time>
  <course>245.02</course>
  <speed>0.06</speed>
  <fix>3d</fix>
</trkpt>
<trkpt lat="33.8103133" lon="-118.3938667">
  <ele>-9.444</ele>
  <time>2026-09-01T01:18:28Z</time>
  <course>187.3</course>
  <speed>0.08944271909999159</speed>
  <fix>3d</fix>
</trkpt>
<trkpt lat="33.8103292" lon="-118.393854">
  <ele>-7.26</ele>
  <time>2026-09-01T01:18:28Z</time>
  <course>245.02</course>
  <speed>0.06</speed>
  <fix>3d</fix>
</trkpt>
<trkpt lat="33.8103132" lon="-118.3938668">
  <ele>-9.47</ele>
  <time>2026-09-01T01:18:28Z</time>
  <course>187.32</course>
  <speed>0.17492855684535902</speed>
  <fix>3d</fix>
</trkpt>
<trkpt lat="33.8103301" lon="-118.3938559">
  <ele>-7.35</ele>
  <time>2026-09-01T01:18:28Z</time>
  <course>217.85</course>
  <speed>0.09</speed>
  <fix>3d</fix>
</trkpt>
<trkpt lat="33.810313" lon="-118.3938668">
  <ele>-9.485</ele>
  <time>2026-09-01T01:18:28Z</time>
  <course>187.34</course>
  <speed>0.32572994949804657</speed>
  <fix>3d</fix>
</trkpt>
<trkpt lat="33.8103301" lon="-118.3938559">
  <ele>-7.35</ele>
  <time>2026-09-01T01:18:28Z</time>
  <course>217.85</course>
  <speed>0.09</speed>
  <fix>3d</fix>
</trkpt>
<trkpt lat="33.8103127" lon="-118.3938669">
  <ele>-9.493</ele>
  <time>2026-09-01T01:18:28Z</time>
  <course>187.35</course>
  <speed>0.5239274758971895</speed>
  <fix>3d</fix>
</trkpt>
<trkpt lat="33.8103308" lon="-118.3938579">
  <ele>-7.41</ele>
  <time>2026-09-01T01:18:28Z</time>
  <course>194.72</course>
  <speed>0.28</speed>
  <fix>3d</fix>
</trkpt>
<trkpt lat="33.8103122" lon="-118.393867">
  <ele>-9.493</ele>
  <time>2026-09-01T01:18:28Z</time>
  <course>187.36</course>
  <speed>0.7040596565632774</speed>
  <fix>3d</fix>
</trkpt>
<trkpt lat="33.8103308" lon="-118.3938579">
  <ele>-7.41</ele>
  <time>2026-09-01T01:18:28Z</time>
  <course>194.72</course>
  <speed>0.28</speed>
  <fix>3d</fix>
</trkpt>
<trkpt lat="33.8103116" lon="-118.3938671">
  <ele>-9.49</ele>
  <time>2026-09-01T01:18:28Z</time>
  <course>187.36</course>
  <speed>0.8845903006477066</speed>
  <fix>3d</fix>
</trkpt>
<trkpt lat="33.8103307" lon="-118.3938601">
  <ele>-7.43</ele>
  <time>2026-09-01T01:18:28Z</time>
  <course>189.18</course>
  <speed>0.62</speed>
  <fix>3d</fix>
</trkpt>
<trkpt lat="33.8103109" lon="-118.3938673">
  <ele>-9.486</ele>
  <time>2026-09-01T01:18:28Z</time>
  <course>187.37</course>
  <speed>1.0439348638684312</speed>
  <fix>3d</fix>
</trkpt>
<trkpt lat="33.8103307" lon="-118.3938601">
  <ele>-7.43</ele>
  <time>2026-09-01T01:18:28Z</time>
  <course>189.18</course>
  <speed>0.62</speed>
  <fix>3d</fix>
</trkpt>
<trkpt lat="33.8103101" lon="-118.3938674">
  <ele>-9.481</ele>
  <time>2026-09-01T01:18:28Z</time>
  <course>187.37</course>
  <speed>1.1442464769445437</speed>
  <fix>3d</fix>
</trkpt>
<trkpt lat="33.8103298" lon="-118.3938624">
  <ele>-7.43</ele>
  <time>2026-09-01T01:18:28Z</time>
  <course>187.66</course>
  <speed>0.98</speed>
  <fix>3d</fix>
</trkpt>
<trkpt lat="33.8103091" lon="-118.3938676">
  <ele>-9.476</ele>
  <time>2026-09-01T01:18:28Z</time>
  <course>187.36</course>
  <speed>1.2248265183282079</speed>
  <fix>3d</fix>
</trkpt>
<trkpt lat="33.8103298" lon="-118.3938624">
  <ele>-7.43</ele>
  <time>2026-09-01T01:18:28Z</time>
  <course>187.66</course>
  <speed>0.98</speed>
  <fix>3d</fix>
</trkpt>
<trkpt lat="33.8103081" lon="-118.3938677">
  <ele>-9.472</ele>
  <time>2026-09-01T01:18:28Z</time>
  <course>187.36</course>
  <speed>1.2940247292845684</speed>
  <fix>3d</fix>
</trkpt>
<trkpt lat="33.8103282" lon="-118.3938648">
  <ele>-7.43</ele>
  <time>2026-09-01T01:18:28Z</time>
  <course>187.06</course>
  <speed>1.24</speed>
  <fix>3d</fix>
</trkpt>
<trkpt lat="33.810307" lon="-118.3938679">
  <ele>-9.469</ele>
  <time>2026-09-01T01:18:28Z</time>
  <course>187.35</course>
  <speed>1.344953530795767</speed>
  <fix>3d</fix>
</trkpt>
<trkpt lat="33.8103282" lon="-118.3938648">
  <ele>-7.43</ele>
  <time>2026-09-01T01:18:28Z</time>
  <course>187.06</course>
  <speed>1.24</speed>
  <fix>3d</fix>
</trkpt>
<trkpt lat="33.8103058" lon="-118.3938681">
  <ele>-9.469</ele>
  <time>2026-09-01T01:18:28Z</time>
  <course>187.34</course>
  <speed>1.3944174410842687</speed>
  <fix>3d</fix>
</trkpt>
<trkpt lat="33.810326" lon="-118.3938673">
  <ele>-7.42</ele>
  <time>2026-09-01T01:18:28Z</time>
  <course>186.75</course>
  <speed>1.4</speed>
  <fix>3d</fix>
</trkpt>
<trkpt lat="33.8103045" lon="-118.3938683">
  <ele>-9.471</ele>
  <time>2026-09-01T01:18:28Z</time>
  <course>187.33</course>
  <speed>1.4354441821262156</speed>
  <fix>3d</fix>
</trkpt>
<trkpt lat="33.810326" lon="-118.3938673">
  <ele>-7.42</ele>
  <time>2026-09-01T01:18:28Z</time>
  <course>186.75</course>
  <speed>1.4</speed>
  <fix>3d</fix>
</trkpt>
<trkpt lat="33.8103032" lon="-118.3938685">
  <ele>-9.474</ele>
  <time>2026-09-01T01:18:28Z</time>
  <course>187.33</course>
  <speed>1.465127980757995</speed>
  <fix>3d</fix>
</trkpt>
<trkpt lat="33.8103235" lon="-118.3938698">
  <ele>-7.42</ele>
  <time>2026-09-01T01:18:28Z</time>
  <course>186.62</course>
  <speed>1.51</speed>
  <fix>3d</fix>
</trkpt>
<trkpt lat="33.8103019" lon="-118.3938687">
  <ele>-9.476</ele>
  <time>2026-09-01T01:18:28Z</time>
  <course>187.33</course>
  <speed>1.494824404403407</speed>
  <fix>3d</fix>
</trkpt>
<trkpt lat="33.8103235" lon="-118.3938698">
  <ele>-7.42</ele>
  <time>2026-09-01T01:18:28Z</time>
  <course>186.62</course>
  <speed>1.51</speed>
  <fix>3d</fix>
</trkpt>
<trkpt lat="33.8103005" lon="-118.3938689">
  <ele>-9.478</ele>
  <time>2026-09-01T01:18:28Z</time>
  <course>187.33</course>
  <speed>1.5146286673637206</speed>
  <fix>3d</fix>
</trkpt>
<trkpt lat="33.8103205" lon="-118.3938723">
  <ele>-7.43</ele>
  <time>2026-09-01T01:18:28Z</time>
  <course>186.57</course>
  <speed>1.58</speed>
  <fix>3d</fix>
</trkpt>
<trkpt lat="33.8102991" lon="-118.3938692">
  <ele>-9.48</ele>
  <time>2026-09-01T01:18:28Z</time>
  <course>187.33</course>
  <speed>1.535838533179839</speed>
  <fix>3d</fix>
</trkpt>
<trkpt lat="33.8103205" lon="-118.3938723">
  <ele>-7.43</ele>
  <time>2026-09-01T01:18:28Z</time>
  <course>186.57</course>
  <speed>1.58</speed>
  <fix>3d</fix>
</trkpt>
<trkpt lat="33.8102976" lon="-118.3938694">
  <ele>-9.482</ele>
  <time>2026-09-01T01:18:28Z</time>
  <course>187.33</course>
  <speed>1.5556349186104046</speed>
  <fix>3d</fix>
</trkpt>
<trkpt lat="33.8103173" lon="-118.3938749">
  <ele>-7.44</ele>
  <time>2026-09-01T01:18:28Z</time>
  <course>186.57</course>
  <speed>1.63</speed>
  <fix>3d</fix>
</trkpt>
<trkpt lat="33.8102962" lon="-118.3938696">
  <ele>-9.485</ele>
  <time>2026-09-01T01:18:28Z</time>
  <course>187.33</course>
  <speed>1.5655350523063993</speed>
  <fix>3d</fix>
</trkpt>
<trkpt lat="33.8103173" lon="-118.3938749">
  <ele>-7.44</ele>
  <time>2026-09-01T01:18:28Z</time>
  <course>186.57</course>
  <speed>1.63</speed>
  <fix>3d</fix>
</trkpt>
<trkpt lat="33.8102947" lon="-118.3938698">
  <ele>-9.486</ele>
  <time>2026-09-01T01:18:28Z</time>
  <course>187.33</course>
  <speed>1.5867577004697346</speed>
  <fix>3d</fix>
</trkpt>
<trkpt lat="33.8103138" lon="-118.3938774">
  <ele>-7.44</ele>
  <time>2026-09-01T01:18:28Z</time>
  <course>186.59</course>
  <speed>1.67</speed>
  <fix>3d</fix>
</trkpt>
<trkpt lat="33.8102932" lon="-118.3938701">
  <ele>-9.485</ele>
  <time>2026-09-01T01:18:28Z</time>
  <course>187.33</course>
  <speed>1.5966527487215245</speed>
  <fix>3d</fix>
</trkpt>
<trkpt lat="33.8103138" lon="-118.3938774">
  <ele>-7.44</ele>
  <time>2026-09-01T01:18:28Z</time>
  <course>186.59</course>
  <speed>1.67</speed>
  <fix>3d</fix>
</trkpt>
<trkpt lat="33.8102917" lon="-118.3938703">
  <ele>-9.484</ele>
  <time>2026-09-01T01:18:28Z</time>
  <course>187.33</course>
  <speed>1.6065490966665164</speed>
  <fix>3d</fix>
</trkpt>
<trkpt lat="33.8103102" lon="-118.3938798">
  <ele>-7.44</ele>
  <time>2026-09-01T01:18:28Z</time>
  <course>186.62</course>
  <speed>1.7</speed>
  <fix>3d</fix>
</trkpt>
<trkpt lat="33.8102902" lon="-118.3938705">
  <ele>-9.481</ele>
  <time>2026-09-01T01:18:28Z</time>
  <course>187.33</course>
  <speed>1.6164467204334327</speed>
  <fix>3d</fix>
</trkpt>
<trkpt lat="33.8103102" lon="-118.3938798">
  <ele>-7.44</ele>
  <time>2026-09-01T01:18:28Z</time>
  <course>186.62</course>
  <speed>1.7</speed>
  <fix>3d</fix>
</trkpt>
<trkpt lat="33.8102886" lon="-118.3938707">
  <ele>-9.48</ele>
  <time>2026-09-01T01:18:28Z</time>
  <course>187.33</course>
  <speed>1.6263455967290594</speed>
  <fix>3d</fix>
</trkpt>
<trkpt lat="33.8103063" lon="-118.3938821">
  <ele>-7.44</ele>
  <time>2026-09-01T01:18:28Z</time>
  <course>186.68</course>
  <speed>1.72</speed>
  <fix>3d</fix>
</trkpt>
<trkpt lat="33.8102871" lon="-118.393871">
  <ele>-9.481</ele>
  <time>2026-09-01T01:18:28Z</time>
  <course>187.33</course>
  <speed>1.6277899127344413</speed>
  <fix>3d</fix>
</trkpt>
<trkpt lat="33.8103063" lon="-118.3938821">
  <ele>-7.44</ele>
  <time>2026-09-01T01:18:28Z</time>
  <course>186.68</course>
  <speed>1.72</speed>
  <fix>3d</fix>
</trkpt>
<trkpt lat="33.8102855" lon="-118.3938712">
  <ele>-9.482</ele>
  <time>2026-09-01T01:18:28Z</time>
  <course>187.33</course>
  <speed>1.6376812876747417</speed>
  <fix>3d</fix>
</trkpt>
<trkpt lat="33.8103022" lon="-118.3938844">
  <ele>-7.43</ele>
  <time>2026-09-01T01:18:28Z</time>
  <course>186.76</course>
  <speed>1.74</speed>
  <fix>3d</fix>
</trkpt>
<trkpt lat="33.810284" lon="-118.3938715">
  <ele>-9.483</ele>
  <time>2026-09-01T01:18:28Z</time>
  <course>187.33</course>
  <speed>1.647573974060042</speed>
  <fix>3d</fix>
</trkpt>
<trkpt lat="33.8103022" lon="-118.3938844">
  <ele>-7.43</ele>
  <time>2026-09-01T01:18:28Z</time>
  <course>186.76</course>
  <speed>1.74</speed>
  <fix>3d</fix>
</trkpt>
<trkpt lat="33.8102824" lon="-118.3938717">
  <ele>-9.483</ele>
  <time>2026-09-01T01:18:28Z</time>
  <course>187.33</course>
  <speed>1.647573974060042</speed>
  <fix>3d</fix>
</trkpt>
<trkpt lat="33.810298" lon="-118.3938865">
  <ele>-7.43</ele>
  <time>2026-09-01T01:18:28Z</time>
  <course>186.85</course>
  <speed>1.74</speed>
  <fix>3d</fix>
</trkpt>
<trkpt lat="33.8102808" lon="-118.3938719">
  <ele>-9.484</ele>
  <time>2026-09-01T01:18:28Z</time>
  <course>187.34</course>
  <speed>1.647573974060042</speed>
  <fix>3d</fix>
</trkpt>
<trkpt lat="33.810298" lon="-118.3938865">
  <ele>-7.43</ele>
  <time>2026-09-01T01:18:28Z</time>
  <course>186.85</course>
  <speed>1.74</speed>
  <fix>3d</fix>
</trkpt>
<trkpt lat="33.8102793" lon="-118.3938722">
  <ele>-9.484</ele>
  <time>2026-09-01T01:18:28Z</time>
  <course>187.33</course>
  <speed>1.6574679484080528</speed>
  <fix>3d</fix>
</trkpt>
<trkpt lat="33.8102936" lon="-118.3938885">
  <ele>-7.43</ele>
  <time>2026-09-01T01:18:28Z</time>
  <course>186.92</course>
  <speed>1.75</speed>
  <fix>3d</fix>
</trkpt>
<trkpt lat="33.8102777" lon="-118.3938724">
  <ele>-9.484</ele>
  <time>2026-09-01T01:18:28Z</time>
  <course>187.33</course>
  <speed>1.6574679484080528</speed>
  <fix>3d</fix>
</trkpt>
<trkpt lat="33.8102936" lon="-118.3938885">
  <ele>-7.43</ele>
  <time>2026-09-01T01:18:28Z</time>
  <course>186.92</course>
  <speed>1.75</speed>
  <fix>3d</fix>
</trkpt>
<trkpt lat="33.8102761" lon="-118.3938727">
  <ele>-9.484</ele>
  <time>2026-09-01T01:18:28Z</time>
  <course>187.33</course>
  <speed>1.6574679484080528</speed>
  <fix>3d</fix>
</trkpt>
<trkpt lat="33.8102891" lon="-118.3938903">
  <ele>-7.42</ele>
  <time>2026-09-01T01:18:28Z</time>
  <course>186.99</course>
  <speed>1.75</speed>
  <fix>3d</fix>
</trkpt>
<trkpt lat="33.8102745" lon="-118.3938729">
  <ele>-9.484</ele>
  <time>2026-09-01T01:18:28Z</time>
  <course>187.34</course>
  <speed>1.6589454481688057</speed>
  <fix>3d</fix>
</trkpt>
<trkpt lat="33.8102891" lon="-118.3938903">
  <ele>-7.42</ele>
  <time>2026-09-01T01:18:28Z</time>
  <course>186.99</course>
  <speed>1.75</speed>
  <fix>3d</fix>
</trkpt>
<trkpt lat="33.8102729" lon="-118.3938731">
  <ele>-9.483</ele>
  <time>2026-09-01T01:18:28Z</time>
  <course>187.34</course>
  <speed>1.6589454481688057</speed>
  <fix>3d</fix>
</trkpt>
<trkpt lat="33.8102844" lon="-118.393892">
  <ele>-7.42</ele>
  <time>2026-09-01T01:18:28Z</time>
  <course>187.05</course>
  <speed>1.75</speed>
  <fix>3d</fix>
</trkpt>
<trkpt lat="33.8102714" lon="-118.3938734">
  <ele>-9.482</ele>
  <time>2026-09-01T01:18:28Z</time>
  <course>187.34</course>
  <speed>1.6589454481688057</speed>
  <fix>3d</fix>
</trkpt>
<trkpt lat="33.8102844" lon="-118.393892">
  <ele>-7.42</ele>
  <time>2026-09-01T01:18:28Z</time>
  <course>187.05</course>
  <speed>1.75</speed>
  <fix>3d</fix>
</trkpt>
<trkpt lat="33.8102698" lon="-118.3938736">
  <ele>-9.48</ele>
  <time>2026-09-01T01:18:28Z</time>
  <course>187.34</course>
  <speed>1.6589454481688057</speed>
  <fix>3d</fix>
</trkpt>
<trkpt lat="33.8102797" lon="-118.3938935">
  <ele>-7.42</ele>
  <time>2026-09-01T01:18:28Z</time>
  <course>187.14</course>
  <speed>1.75</speed>
  <fix>3d</fix>
</trkpt>
<trkpt lat="33.8102682" lon="-118.3938739">
  <ele>-9.479</ele>
  <time>2026-09-01T01:18:28Z</time>
  <course>187.34</course>
  <speed>1.6589454481688057</speed>
  <fix>3d</fix>
</trkpt>
<trkpt lat="33.8102797" lon="-118.3938935">
  <ele>-7.42</ele>
  <time>2026-09-01T01:18:28Z</time>
  <course>187.14</course>
  <speed>1.75</speed>
  <fix>3d</fix>
</trkpt>
<trkpt lat="33.8102666" lon="-118.3938741">
  <ele>-9.479</ele>
  <time>2026-09-01T01:18:29Z</time>
  <course>187.34</course>
  <speed>1.6589454481688057</speed>
  <fix>3d</fix>
</trkpt>
<trkpt lat="33.8102749" lon="-118.3938948">
  <ele>-7.42</ele>
  <time>2026-09-01T01:18:29Z</time>
  <course>187.24</course>
  <speed>1.74</speed>
  <fix>3d</fix>
</trkpt>
<trkpt lat="33.810265" lon="-118.3938743">
  <ele>-9.479</ele>
  <time>2026-09-01T01:18:29Z</time>
  <course>187.34</course>
  <speed>1.6688319268278635</speed>
  <fix>3d</fix>
</trkpt>
<trkpt lat="33.8102749" lon="-118.3938948">
  <ele>-7.42</ele>
  <time>2026-09-01T01:18:29Z</time>
  <course>187.24</course>
  <speed>1.74</speed>
  <fix>3d</fix>
</trkpt>
<trkpt lat="33.8102634" lon="-118.3938746">
  <ele>-9.48</ele>
  <time>2026-09-01T01:18:29Z</time>
  <course>187.34</course>
  <speed>1.6688319268278635</speed>
  <fix>3d</fix>
</trkpt>
<trkpt lat="33.8102701" lon="-118.3938959">
  <ele>-7.41</ele>
  <time>2026-09-01T01:18:29Z</time>
  <course>187.28</course>
  <speed>1.74</speed>
  <fix>3d</fix>
</trkpt>
<trkpt lat="33.8102619" lon="-118.3938748">
  <ele>-9.482</ele>
  <time>2026-09-01T01:18:29Z</time>
  <course>187.34</course>
  <speed>1.6688319268278635</speed>
  <fix>3d</fix>
</trkpt>
<trkpt lat="33.8102701" lon="-118.3938959">
  <ele>-7.41</ele>
  <time>2026-09-01T01:18:29Z</time>
  <course>187.28</course>
  <speed>1.74</speed>
  <fix>3d</fix>
</trkpt>
<trkpt lat="33.8102603" lon="-118.3938751">
  <ele>-9.483</ele>
  <time>2026-09-01T01:18:29Z</time>
  <course>187.34</course>
  <speed>1.6787197502859135</speed>
  <fix>3d</fix>
</trkpt>
<trkpt lat="33.8102652" lon="-118.3938967">
  <ele>-7.41</ele>
  <time>2026-09-01T01:18:29Z</time>
  <course>187.25</course>
  <speed>1.74</speed>
  <fix>3d</fix>
</trkpt>
<trkpt lat="33.8102588" lon="-118.3938753">
  <ele>-9.484</ele>
  <time>2026-09-01T01:18:29Z</time>
  <course>187.34</course>
  <speed>1.6787197502859135</speed>
  <fix>3d</fix>
</trkpt>
<trkpt lat="33.8102652" lon="-118.3938967">
  <ele>-7.41</ele>
  <time>2026-09-01T01:18:29Z</time>
  <course>187.25</course>
  <speed>1.74</speed>
  <fix>3d</fix>
</trkpt>
<trkpt lat="33.8102572" lon="-118.3938756">
  <ele>-9.484</ele>
  <time>2026-09-01T01:18:29Z</time>
  <course>187.34</course>
  <speed>1.6886088949191285</speed>
  <fix>3d</fix>
</trkpt>
<trkpt lat="33.8102603" lon="-118.3938974">
  <ele>-7.41</ele>
  <time>2026-09-01T01:18:29Z</time>
  <course>187.15</course>
  <speed>1.75</speed>
  <fix>3d</fix>
</trkpt>
<trkpt lat="33.8102556" lon="-118.3938758">
  <ele>-9.483</ele>
  <time>2026-09-01T01:18:29Z</time>
  <course>187.34</course>
  <speed>1.6871573726241424</speed>
  <fix>3d</fix>
</trkpt>
<trkpt lat="33.8102603" lon="-118.3938974">
  <ele>-7.41</ele>
  <time>2026-09-01T01:18:29Z</time>
  <course>187.15</course>
  <speed>1.75</speed>
  <fix>3d</fix>
</trkpt>
<trkpt lat="33.8102541" lon="-118.3938761">
  <ele>-9.482</ele>
  <time>2026-09-01T01:18:29Z</time>
  <course>187.34</course>
  <speed>1.697056274847714</speed>
  <fix>3d</fix>
</trkpt>
<trkpt lat="33.8102554" lon="-118.3938978">
  <ele>-7.41</ele>
  <time>2026-09-01T01:18:29Z</time>
  <course>187.02</course>
  <speed>1.75</speed>
  <fix>3d</fix>
</trkpt>
<trkpt lat="33.8102525" lon="-118.3938763">
  <ele>-9.481</ele>
  <time>2026-09-01T01:18:29Z</time>
  <course>187.34</course>
  <speed>1.697056274847714</speed>
  <fix>3d</fix>
</trkpt>
<trkpt lat="33.8102554" lon="-118.3938978">
  <ele>-7.41</ele>
  <time>2026-09-01T01:18:29Z</time>
  <course>187.02</course>
  <speed>1.75</speed>
  <fix>3d</fix>
</trkpt>
<trkpt lat="33.8102509" lon="-118.3938766">
  <ele>-9.48</ele>
  <time>2026-09-01T01:18:29Z</time>
  <course>187.34</course>
  <speed>1.697056274847714</speed>
  <fix>3d</fix>
</trkpt>
<trkpt lat="33.8102505" lon="-118.393898">
  <ele>-7.4</ele>
  <time>2026-09-01T01:18:29Z</time>
  <course>186.94</course>
  <speed>1.76</speed>
  <fix>3d</fix>
</trkpt>
<trkpt lat="33.8102493" lon="-118.3938768">
  <ele>-9.48</ele>
  <time>2026-09-01T01:18:29Z</time>
  <course>187.34</course>
  <speed>1.697056274847714</speed>
  <fix>3d</fix>
</trkpt>
<trkpt lat="33.8102505" lon="-118.393898">
  <ele>-7.4</ele>
  <time>2026-09-01T01:18:29Z</time>
  <course>186.94</course>
  <speed>1.76</speed>
  <fix>3d</fix>
</trkpt>
<trkpt lat="33.8102478" lon="-118.3938771">
  <ele>-9.481</ele>
  <time>2026-09-01T01:18:29Z</time>
  <course>187.35</course>
  <speed>1.6984993376507393</speed>
  <fix>3d</fix>
</trkpt>
<trkpt lat="33.8102456" lon="-118.3938981">
  <ele>-7.39</ele>
  <time>2026-09-01T01:18:29Z</time>
  <course>186.93</course>
  <speed>1.76</speed>
  <fix>3d</fix>
</trkpt>
<trkpt lat="33.8102462" lon="-118.3938773">
  <ele>-9.481</ele>
  <time>2026-09-01T01:18:29Z</time>
  <course>187.35</course>
  <speed>1.6984993376507393</speed>
  <fix>3d</fix>
</trkpt>
<trkpt lat="33.8102456" lon="-118.3938981">
  <ele>-7.39</ele>
  <time>2026-09-01T01:18:29Z</time>
  <course>186.93</course>
  <speed>1.76</speed>
  <fix>3d</fix>
</trkpt>
<trkpt lat="33.8102446" lon="-118.3938775">
  <ele>-9.48</ele>
  <time>2026-09-01T01:18:29Z</time>
  <course>187.35</course>
  <speed>1.6984993376507393</speed>
  <fix>3d</fix>
</trkpt>
<trkpt lat="33.8102407" lon="-118.3938979">
  <ele>-7.39</ele>
  <time>2026-09-01T01:18:29Z</time>
  <course>186.95</course>
  <speed>1.76</speed>
  <fix>3d</fix>
</trkpt>
<trkpt lat="33.810243" lon="-118.3938778">
  <ele>-9.48</ele>
  <time>2026-09-01T01:18:29Z</time>
  <course>187.35</course>
  <speed>1.6984993376507393</speed>
  <fix>3d</fix>
</trkpt>
<trkpt lat="33.8102407" lon="-118.3938979">
  <ele>-7.39</ele>
  <time>2026-09-01T01:18:29Z</time>
  <course>186.95</course>
  <speed>1.76</speed>
  <fix>3d</fix>
</trkpt>
<trkpt lat="33.8102415" lon="-118.393878">
  <ele>-9.48</ele>
  <time>2026-09-01T01:18:29Z</time>
  <course>187.35</course>
  <speed>1.6772596698186004</speed>
  <fix>3d</fix>
</trkpt>
<trkpt lat="33.8102359" lon="-118.3938975">
  <ele>-7.39</ele>
  <time>2026-09-01T01:18:29Z</time>
  <course>186.95</course>
  <speed>1.76</speed>
  <fix>3d</fix>
</trkpt>
<trkpt lat="33.8102399" lon="-118.3938783">
  <ele>-9.479</ele>
  <time>2026-09-01T01:18:29Z</time>
  <course>187.35</course>
  <speed>1.5966527487215245</speed>
  <fix>3d</fix>
</trkpt>
<trkpt lat="33.8102359" lon="-118.3938975">
  <ele>-7.39</ele>
  <time>2026-09-01T01:18:29Z</time>
  <course>186.95</course>
  <speed>1.76</speed>
  <fix>3d</fix>
</trkpt>
<trkpt lat="33.8102385" lon="-118.3938785">
  <ele>-9.479</ele>
  <time>2026-09-01T01:18:29Z</time>
  <course>187.34</course>
  <speed>1.4764823060233399</speed>
  <fix>3d</fix>
</trkpt>
<trkpt lat="33.8102313" lon="-118.3938969">
  <ele>-7.39</ele>
  <time>2026-09-01T01:18:29Z</time>
  <course>186.94</course>
  <speed>1.68</speed>
  <fix>3d</fix>
</trkpt>
<trkpt lat="33.8102372" lon="-118.3938787">
  <ele>-9.477</ele>
  <time>2026-09-01T01:18:29Z</time>
  <course>187.34</course>
  <speed>1.3054118124178284</speed>
  <fix>3d</fix>
</trkpt>
<trkpt lat="33.8102313" lon="-118.3938969">
  <ele>-7.39</ele>
  <time>2026-09-01T01:18:29Z</time>
  <course>186.94</course>
  <speed>1.68</speed>
  <fix>3d</fix>
</trkpt>
<trkpt lat="33.8102359" lon="-118.3938789">
  <ele>-9.461</ele>
  <time>2026-09-01T01:18:29Z</time>
  <course>187.34</course>
  <speed>1.1244998888394786</speed>
  <fix>3d</fix>
</trkpt>
<trkpt lat="33.810227" lon="-118.393896">
  <ele>-7.38</ele>
  <time>2026-09-01T01:18:29Z</time>
  <course>187.01</course>
  <speed>1.45</speed>
  <fix>3d</fix>
</trkpt>
<trkpt lat="33.8102348" lon="-118.393879">
  <ele>-9.422</ele>
  <time>2026-09-01T01:18:29Z</time>
  <course>187.34</course>
  <speed>0.9732420048477151</speed>
  <fix>3d</fix>
</trkpt>
<trkpt lat="33.810227" lon="-118.393896">
  <ele>-7.38</ele>
  <time>2026-09-01T01:18:29Z</time>
  <course>187.01</course>
  <speed>1.45</speed>
  <fix>3d</fix>
</trkpt>
<trkpt lat="33.8102348" lon="-118.3938791">
  <ele>-9.421</ele>
  <time>2026-09-01T01:18:29Z</time>
  <course>187.34</course>
  <speed>0.9633794683301072</speed>
  <fix>3d</fix>
</trkpt>
<trkpt lat="33.8102339" lon="-118.3938792">
  <ele>-9.362</ele>
  <time>2026-09-01T01:18:29Z</time>
  <course>187.34</course>
  <speed>0.8121576201698781</speed>
  <fix>3d</fix>
</trkpt>
<trkpt lat="33.8102233" lon="-118.393895">
  <ele>-7.34</ele>
  <time>2026-09-01T01:18:29Z</time>
  <course>187.14</course>
  <speed>1.12</speed>
  <fix>3d</fix>
</trkpt>
<trkpt lat="33.8102338" lon="-118.3938792">
  <ele>-9.359</ele>
  <time>2026-09-01T01:18:29Z</time>
  <course>187.34</course>
  <speed>0.8006247560499239</speed>
  <fix>3d</fix>
</trkpt>
<trkpt lat="33.8102331" lon="-118.3938793">
  <ele>-9.283</ele>
  <time>2026-09-01T01:18:29Z</time>
  <course>187.35</course>
  <speed>0.6806614430096655</speed>
  <fix>3d</fix>
</trkpt>
<trkpt lat="33.8102233" lon="-118.393895">
  <ele>-7.34</ele>
  <time>2026-09-01T01:18:29Z</time>
  <course>187.14</course>
  <speed>1.12</speed>
  <fix>3d</fix>
</trkpt>
<trkpt lat="33.8102331" lon="-118.3938793">
  <ele>-9.28</ele>
  <time>2026-09-01T01:18:29Z</time>
  <course>187.35</course>
  <speed>0.6806614430096655</speed>
  <fix>3d</fix>
</trkpt>
<trkpt lat="33.8102324" lon="-118.3938794">
  <ele>-9.183</ele>
  <time>2026-09-01T01:18:29Z</time>
  <course>187.34</course>
  <speed>0.5787054518492115</speed>
  <fix>3d</fix>
</trkpt>
<trkpt lat="33.8102203" lon="-118.3938936">
  <ele>-7.23</ele>
  <time>2026-09-01T01:18:29Z</time>
  <course>187.21</course>
  <speed>0.81</speed>
  <fix>3d</fix>
</trkpt>
<trkpt lat="33.8102324" lon="-118.3938795">
  <ele>-9.18</ele>
  <time>2026-09-01T01:18:29Z</time>
  <course>187.34</course>
  <speed>0.5688585061331157</speed>
  <fix>3d</fix>
</trkpt>
<trkpt lat="33.8102317" lon="-118.3938796">
  <ele>-9.064</ele>
  <time>2026-09-01T01:18:29Z</time>
  <course>187.3</course>
  <speed>0.498196748283246</speed>
  <fix>3d</fix>
</trkpt>
<trkpt lat="33.8102203" lon="-118.3938936">
  <ele>-7.23</ele>
  <time>2026-09-01T01:18:29Z</time>
  <course>187.21</course>
  <speed>0.81</speed>
  <fix>3d</fix>
</trkpt>
<trkpt lat="33.8102317" lon="-118.3938796">
  <ele>-9.06</ele>
  <time>2026-09-01T01:18:29Z</time>
  <course>187.3</course>
  <speed>0.498196748283246</speed>
  <fix>3d</fix>
</trkpt>
<trkpt lat="33.8102312" lon="-118.3938797">
  <ele>-8.935</ele>
  <time>2026-09-01T01:18:29Z</time>
  <course>187.2</course>
  <speed>0.4373785545725808</speed>
  <fix>3d</fix>
</trkpt>
<trkpt lat="33.810218" lon="-118.3938921">
  <ele>-7.04</ele>
  <time>2026-09-01T01:18:29Z</time>
  <course>187.03</course>
  <speed>0.58</speed>
  <fix>3d</fix>
</trkpt>
<trkpt lat="33.8102312" lon="-118.3938797">
  <ele>-8.931</ele>
  <time>2026-09-01T01:18:29Z</time>
  <course>187.19</course>
  <speed>0.42755116652863895</speed>
  <fix>3d</fix>
</trkpt>
<trkpt lat="33.8102307" lon="-118.3938798">
  <ele>-8.805</ele>
  <time>2026-09-01T01:18:29Z</time>
  <course>187.03</course>
  <speed>0.37656340767525465</speed>
  <fix>3d</fix>
</trkpt>
<trkpt lat="33.810218" lon="-118.3938921">
  <ele>-7.04</ele>
  <time>2026-09-01T01:18:29Z</time>
  <course>187.03</course>
  <speed>0.58</speed>
  <fix>3d</fix>
</trkpt>
<trkpt lat="33.8102307" lon="-118.3938798">
  <ele>-8.801</ele>
  <time>2026-09-01T01:18:29Z</time>
  <course>187.02</course>
  <speed>0.37656340767525465</speed>
  <fix>3d</fix>
</trkpt>
<trkpt lat="33.8102303" lon="-118.3938799">
  <ele>-8.672</ele>
  <time>2026-09-01T01:18:29Z</time>
  <course>186.82</course>
  <speed>0.33734255586865997</speed>
  <fix>3d</fix>
</trkpt>
<trkpt lat="33.8102162" lon="-118.3938905">
  <ele>-6.81</ele>
  <time>2026-09-01T01:18:29Z</time>
  <course>186.72</course>
  <speed>0.42</speed>
  <fix>3d</fix>
</trkpt>
<trkpt lat="33.8102303" lon="-118.3938799">
  <ele>-8.668</ele>
  <time>2026-09-01T01:18:29Z</time>
  <course>186.81</course>
  <speed>0.33734255586865997</speed>
  <fix>3d</fix>
</trkpt>
<trkpt lat="33.8102299" lon="-118.3938799">
  <ele>-8.54</ele>
  <time>2026-09-01T01:18:29Z</time>
  <course>186.58</course>
  <speed>0.29614185789921693</speed>
  <fix>3d</fix>
</trkpt>
<trkpt lat="33.8102162" lon="-118.3938905">
  <ele>-6.81</ele>
  <time>2026-09-01T01:18:29Z</time>
  <course>186.72</course>
  <speed>0.42</speed>
  <fix>3d</fix>
</trkpt>
<trkpt lat="33.8102299" lon="-118.3938799">
  <ele>-8.536</ele>
  <time>2026-09-01T01:18:29Z</time>
  <course>186.57</course>
  <speed>0.29614185789921693</speed>
  <fix>3d</fix>
</trkpt>
<trkpt lat="33.8102296" lon="-118.39388">
  <ele>-8.408</ele>
  <time>2026-09-01T01:18:29Z</time>
  <course>186.31</course>
  <speed>0.2668332812825267</speed>
  <fix>3d</fix>
</trkpt>
<trkpt lat="33.8102147" lon="-118.3938886">
  <ele>-6.57</ele>
  <time>2026-09-01T01:18:29Z</time>
  <course>186.44</course>
  <speed>0.32</speed>
  <fix>3d</fix>
</trkpt>
<trkpt lat="33.8102296" lon="-118.39388">
  <ele>-8.405</ele>
  <time>2026-09-01T01:18:29Z</time>
  <course>186.3</course>
  <speed>0.2668332812825267</speed>
  <fix>3d</fix>
</trkpt>
<trkpt lat="33.8102293" lon="-118.3938801">
  <ele>-8.279</ele>
  <time>2026-09-01T01:18:29Z</time>
  <course>186.1</course>
  <speed>0.23769728648009425</speed>
  <fix>3d</fix>
</trkpt>
<trkpt lat="33.8102147" lon="-118.3938886">
  <ele>-6.57</ele>
  <time>2026-09-01T01:18:29Z</time>
  <course>186.44</course>
  <speed>0.32</speed>
  <fix>3d</fix>
</trkpt>
<trkpt lat="33.8102293" lon="-118.3938801">
  <ele>-8.276</ele>
  <time>2026-09-01T01:18:29Z</time>
  <course>186.1</course>
  <speed>0.23769728648009425</speed>
  <fix>3d</fix>
</trkpt>
<trkpt lat="33.8102291" lon="-118.3938801">
  <ele>-8.151</ele>
  <time>2026-09-01T01:18:29Z</time>
  <course>186.03</course>
  <speed>0.215870331449229</speed>
  <fix>3d</fix>
</trkpt>
<trkpt lat="33.8102135" lon="-118.3938866">
  <ele>-6.32</ele>
  <time>2026-09-01T01:18:29Z</time>
  <course>186.13</course>
  <speed>0.25</speed>
  <fix>3d</fix>
</trkpt>
<trkpt lat="33.8102291" lon="-118.3938801">
  <ele>-8.147</ele>
  <time>2026-09-01T01:18:29Z</time>
  <course>186.03</course>
  <speed>0.215870331449229</speed>
  <fix>3d</fix>
</trkpt>
<trkpt lat="33.8102289" lon="-118.3938802">
  <ele>-8.023</ele>
  <time>2026-09-01T01:18:29Z</time>
  <course>186.18</course>
  <speed>0.194164878389476</speed>
  <fix>3d</fix>
</trkpt>
<trkpt lat="33.8102135" lon="-118.3938866">
  <ele>-6.32</ele>
  <time>2026-09-01T01:18:29Z</time>
  <course>186.13</course>
  <speed>0.25</speed>
  <fix>3d</fix>
</trkpt>
<trkpt lat="33.8102289" lon="-118.3938802">
  <ele>-8.02</ele>
  <time>2026-09-01T01:18:29Z</time>
  <course>186.19</course>
  <speed>0.194164878389476</speed>
  <fix>3d</fix>
</trkpt>
<trkpt lat="33.8102287" lon="-118.3938802">
  <ele>-7.897</ele>
  <time>2026-09-01T01:18:29Z</time>
  <course>186.59</course>
  <speed>0.17464249196572978</speed>
  <fix>3d</fix>
</trkpt>
<trkpt lat="33.8102127" lon="-118.3938846">
  <ele>-6.07</ele>
  <time>2026-09-01T01:18:29Z</time>
  <course>184.74</course>
  <speed>0.2</speed>
  <fix>3d</fix>
</trkpt>
<trkpt lat="33.8102287" lon="-118.3938802">
  <ele>-7.89</ele>
  <time>2026-09-01T01:18:29Z</time>
  <course>186.61</course>
  <speed>0.17464249196572978</speed>
  <fix>3d</fix>
</trkpt>
<trkpt lat="33.8102285" lon="-118.3938802">
  <ele>-7.771</ele>
  <time>2026-09-01T01:18:29Z</time>
  <course>187.15</course>
  <speed>0.15297058540778355</speed>
  <fix>3d</fix>
</trkpt>
<trkpt lat="33.8102127" lon="-118.3938846">
  <ele>-6.07</ele>
  <time>2026-09-01T01:18:29Z</time>
  <course>184.74</course>
  <speed>0.2</speed>
  <fix>3d</fix>
</trkpt>
<trkpt lat="33.8102285" lon="-118.3938802">
  <ele>-7.765</ele>
  <time>2026-09-01T01:18:29Z</time>
  <course>187.18</course>
  <speed>0.15297058540778355</speed>
  <fix>3d</fix>
</trkpt>
<trkpt lat="33.8102284" lon="-118.3938802">
  <ele>-7.645</ele>
  <time>2026-09-01T01:18:29Z</time>
  <course>187.68</course>
  <speed>0.13341664064126335</speed>
  <fix>3d</fix>
</trkpt>
<trkpt lat="33.810212" lon="-118.3938825">
  <ele>-5.83</ele>
  <time>2026-09-01T01:18:29Z</time>
  <course>181.58</course>
  <speed>0.15</speed>
  <fix>3d</fix>
</trkpt>
<trkpt lat="33.8102284" lon="-118.3938802">
  <ele>-7.642</ele>
  <time>2026-09-01T01:18:29Z</time>
  <course>187.7</course>
  <speed>0.13341664064126335</speed>
  <fix>3d</fix>
</trkpt>
<trkpt lat="33.8102283" lon="-118.3938802">
  <ele>-7.52</ele>
  <time>2026-09-01T01:18:29Z</time>
  <course>188.12</course>
  <speed>0.12369316876852982</speed>
  <fix>3d</fix>
</trkpt>
<trkpt lat="33.810212" lon="-118.3938825">
  <ele>-5.83</ele>
  <time>2026-09-01T01:18:29Z</time>
  <course>181.58</course>
  <speed>0.15</speed>
  <fix>3d</fix>
</trkpt>
<trkpt lat="33.8102283" lon="-118.3938802">
  <ele>-7.518</ele>
  <time>2026-09-01T01:18:29Z</time>
  <course>188.13</course>
  <speed>0.11401754250991379</speed>
  <fix>3d</fix>
</trkpt>
<trkpt lat="33.8102282" lon="-118.3938802">
  <ele>-7.394</ele>
  <time>2026-09-01T01:18:29Z</time>
  <course>188.43</course>
  <speed>0.1044030650891055</speed>
  <fix>3d</fix>
</trkpt>
<trkpt lat="33.8102117" lon="-118.3938804">
  <ele>-5.58</ele>
  <time>2026-09-01T01:18:29Z</time>
  <course>178.47</course>
  <speed>0.12</speed>
  <fix>3d</fix>
</trkpt>
<trkpt lat="33.8102282" lon="-118.3938802">
  <ele>-7.392</ele>
  <time>2026-09-01T01:18:29Z</time>
  <course>188.43</course>
  <speed>0.1044030650891055</speed>
  <fix>3d</fix>
</trkpt>
<trkpt lat="33.8102281" lon="-118.3938802">
  <ele>-7.268</ele>
  <time>2026-09-01T01:18:29Z</time>
  <course>188.59</course>
  <speed>0.0824621125123532</speed>
  <fix>3d</fix>
</trkpt>
<trkpt lat="33.8102117" lon="-118.3938804">
  <ele>-5.58</ele>
  <time>2026-09-01T01:18:29Z</time>
  <course>178.47</course>
  <speed>0.12</speed>
  <fix>3d</fix>
</trkpt>
<trkpt lat="33.8102281" lon="-118.3938802">
  <ele>-7.262</ele>
  <time>2026-09-01T01:18:29Z</time>
  <course>188.59</course>
  <speed>0.0824621125123532</speed>
  <fix>3d</fix>
</trkpt>
<trkpt lat="33.810228" lon="-118.3938802">
  <ele>-7.142</ele>
  <time>2026-09-01T01:18:29Z</time>
  <course>188.62</course>
  <speed>0.0632455532033676</speed>
  <fix>3d</fix>
</trkpt>
<trkpt lat="33.8102116" lon="-118.3938782">
  <ele>-5.33</ele>
  <time>2026-09-01T01:18:29Z</time>
  <course>176.34</course>
  <speed>0.08</speed>
  <fix>3d</fix>
</trkpt>
<trkpt lat="33.810228" lon="-118.3938802">
  <ele>-7.14</ele>
  <time>2026-09-01T01:18:29Z</time>
  <course>188.62</course>
  <speed>0.0632455532033676</speed>
  <fix>3d</fix>
</trkpt>
<trkpt lat="33.810228" lon="-118.3938802">
  <ele>-7.015</ele>
  <time>2026-09-01T01:18:29Z</time>
  <course>188.58</course>
  <speed>0.044721359549995794</speed>
  <fix>3d</fix>
</trkpt>
<trkpt lat="33.8102116" lon="-118.3938782">
  <ele>-5.33</ele>
  <time>2026-09-01T01:18:29Z</time>
  <course>176.34</course>
  <speed>0.08</speed>
  <fix>3d</fix>
</trkpt>
<trkpt lat="33.810228" lon="-118.3938802">
  <ele>-7.012</ele>
  <time>2026-09-01T01:18:29Z</time>
  <course>188.58</course>
  <speed>0.044721359549995794</speed>
  <fix>3d</fix>
</trkpt>
<trkpt lat="33.8102279" lon="-118.3938802">
  <ele>-6.89</ele>
  <time>2026-09-01T01:18:29Z</time>
  <course>188.48</course>
  <speed>0.03605551275463989</speed>
  <fix>3d</fix>
</trkpt>
<trkpt lat="33.8102118" lon="-118.3938761">
  <ele>-5.09</ele>
  <time>2026-09-01T01:18:29Z</time>
  <course>172.79</course>
  <speed>0.04</speed>
  <fix>3d</fix>
</trkpt>
<trkpt lat="33.8102279" lon="-118.3938802">
  <ele>-6.886</ele>
  <time>2026-09-01T01:18:29Z</time>
  <course>188.48</course>
  <speed>0.03605551275463989</speed>
  <fix>3d</fix>
</trkpt>
<trkpt lat="33.8102279" lon="-118.3938802">
  <ele>-6.764</ele>
  <time>2026-09-01T01:18:29Z</time>
  <course>188.36</course>
  <speed>0.0282842712474619</speed>
  <fix>3d</fix>
</trkpt>
<trkpt lat="33.8102118" lon="-118.3938761">
  <ele>-5.09</ele>
  <time>2026-09-01T01:18:29Z</time>
  <course>172.79</course>
  <speed>0.04</speed>
  <fix>3d</fix>
</trkpt>
<trkpt lat="33.8102279" lon="-118.3938802">
  <ele>-6.76</ele>
  <time>2026-09-01T01:18:29Z</time>
  <course>188.35</course>
  <speed>0.0282842712474619</speed>
  <fix>3d</fix>
</trkpt>
<trkpt lat="33.8102279" lon="-118.3938802">
  <ele>-6.637</ele>
  <time>2026-09-01T01:18:29Z</time>
  <course>188.24</course>
  <speed>0.022360679774997897</speed>
  <fix>3d</fix>
</trkpt>
<trkpt lat="33.8102121" lon="-118.393874">
  <ele>-4.84</ele>
  <time>2026-09-01T01:18:29Z</time>
  <course>159.22</course>
  <speed>0.02</speed>
  <fix>3d</fix>
</trkpt>
<trkpt lat="33.8102279" lon="-118.3938802">
  <ele>-6.634</ele>
  <time>2026-09-01T01:18:29Z</time>
  <course>188.23</course>
  <speed>0.022360679774997897</speed>
  <fix>3d</fix>
</trkpt>
<trkpt lat="33.8102279" lon="-118.3938802">
  <ele>-6.511</ele>
  <time>2026-09-01T01:18:29Z</time>
  <course>188.13</course>
  <speed>0.02</speed>
  <fix>3d</fix>
</trkpt>
<trkpt lat="33.8102121" lon="-118.393874">
  <ele>-4.84</ele>
  <time>2026-09-01T01:18:29Z</time>
  <course>159.22</course>
  <speed>0.02</speed>
  <fix>3d</fix>
</trkpt>
<trkpt lat="33.8102279" lon="-118.3938802">
  <ele>-6.505</ele>
  <time>2026-09-01T01:18:29Z</time>
  <course>188.13</course>
  <speed>0.02</speed>
  <fix>3d</fix>
</trkpt>
<trkpt lat="33.8102279" lon="-118.3938802">
  <ele>-6.385</ele>
  <time>2026-09-01T01:18:29Z</time>
  <course>188.03</course>
  <speed>0.02</speed>
  <fix>3d</fix>
</trkpt>
<trkpt lat="33.8102126" lon="-118.3938719">
  <ele>-4.59</ele>
  <time>2026-09-01T01:18:29Z</time>
  <course>88.4</course>
  <speed>0.01</speed>
  <fix>3d</fix>
</trkpt>
<trkpt lat="33.8102279" lon="-118.3938802">
  <ele>-6.381</ele>
  <time>2026-09-01T01:18:29Z</time>
  <course>188.03</course>
  <speed>0.02</speed>
  <fix>3d</fix>
</trkpt>
<trkpt lat="33.8102279" lon="-118.3938802">
  <ele>-6.26</ele>
  <time>2026-09-01T01:18:29Z</time>
  <course>187.92</course>
  <speed>0.01414213562373095</speed>
  <fix>3d</fix>
</trkpt>
<trkpt lat="33.8102126" lon="-118.3938719">
  <ele>-4.59</ele>
  <time>2026-09-01T01:18:29Z</time>
  <course>88.4</course>
  <speed>0.01</speed>
  <fix>3d</fix>
</trkpt>
<trkpt lat="33.8102279" lon="-118.3938802">
  <ele>-6.256</ele>
  <time>2026-09-01T01:18:29Z</time>
  <course>187.92</course>
  <speed>0.01414213562373095</speed>
  <fix>3d</fix>
</trkpt>
<trkpt lat="33.8102279" lon="-118.3938802">
  <ele>-6.135</ele>
  <time>2026-09-01T01:18:29Z</time>
  <course>187.8</course>
  <speed>0.022360679774997897</speed>
  <fix>3d</fix>
</trkpt>
<trkpt lat="33.8102134" lon="-118.39387">
  <ele>-4.35</ele>
  <time>2026-09-01T01:18:29Z</time>
  <course>36.82</course>
  <speed>0.02</speed>
  <fix>3d</fix>
</trkpt>
<trkpt lat="33.810228" lon="-118.3938802">
  <ele>-6.13</ele>
  <time>2026-09-01T01:18:29Z</time>
  <course>187.8</course>
  <speed>0.022360679774997897</speed>
  <fix>3d</fix>
</trkpt>
<trkpt lat="33.810228" lon="-118.3938802">
  <ele>-6.008</ele>
  <time>2026-09-01T01:18:29Z</time>
  <course>187.67</course>
  <speed>0.022360679774997897</speed>
  <fix>3d</fix>
</trkpt>
<trkpt lat="33.8102134" lon="-118.39387">
  <ele>-4.35</ele>
  <time>2026-09-01T01:18:29Z</time>
  <course>36.82</course>
  <speed>0.02</speed>
  <fix>3d</fix>
</trkpt>
<trkpt lat="33.810228" lon="-118.3938802">
  <ele>-6.005</ele>
  <time>2026-09-01T01:18:29Z</time>
  <course>187.67</course>
  <speed>0.022360679774997897</speed>
  <fix>3d</fix>
</trkpt>
<trkpt lat="33.810228" lon="-118.3938802">
  <ele>-5.883</ele>
  <time>2026-09-01T01:18:29Z</time>
  <course>187.54</course>
  <speed>0.022360679774997897</speed>
  <fix>3d</fix>
</trkpt>
<trkpt lat="33.8102143" lon="-118.3938681">
  <ele>-4.1</ele>
  <time>2026-09-01T01:18:29Z</time>
  <course>26.51</course>
  <speed>0.02</speed>
  <fix>3d</fix>
</trkpt>
<trkpt lat="33.810228" lon="-118.3938802">
  <ele>-5.88</ele>
  <time>2026-09-01T01:18:29Z</time>
  <course>187.53</course>
  <speed>0.022360679774997897</speed>
  <fix>3d</fix>
</trkpt>
<trkpt lat="33.810228" lon="-118.3938801">
  <ele>-5.758</ele>
  <time>2026-09-01T01:18:29Z</time>
  <course>187.41</course>
  <speed>0.022360679774997897</speed>
  <fix>3d</fix>
</trkpt>
<trkpt lat="33.8102143" lon="-118.3938681">
  <ele>-4.1</ele>
  <time>2026-09-01T01:18:29Z</time>
  <course>26.51</course>
  <speed>0.02</speed>
  <fix>3d</fix>
</trkpt>
<trkpt lat="33.810228" lon="-118.3938801">
  <ele>-5.755</ele>
  <time>2026-09-01T01:18:29Z</time>
  <course>187.41</course>
  <speed>0.022360679774997897</speed>
  <fix>3d</fix>
</trkpt>
<trkpt lat="33.8102281" lon="-118.3938801">
  <ele>-5.632</ele>
  <time>2026-09-01T01:18:29Z</time>
  <course>187.29</course>
  <speed>0.022360679774997897</speed>
  <fix>3d</fix>
</trkpt>
<trkpt lat="33.8102154" lon="-118.3938663">
  <ele>-3.86</ele>
  <time>2026-09-01T01:18:29Z</time>
  <course>24.46</course>
  <speed>0.03</speed>
  <fix>3d</fix>
</trkpt>
<trkpt lat="33.8102281" lon="-118.3938801">
  <ele>-5.629</ele>
  <time>2026-09-01T01:18:29Z</time>
  <course>187.28</course>
  <speed>0.022360679774997897</speed>
  <fix>3d</fix>
</trkpt>
<trkpt lat="33.8102281" lon="-118.3938801">
  <ele>-5.506</ele>
  <time>2026-09-01T01:18:29Z</time>
  <course>187.17</course>
  <speed>0.022360679774997897</speed>
  <fix>3d</fix>
</trkpt>
<trkpt lat="33.8102154" lon="-118.3938663">
  <ele>-3.86</ele>
  <time>2026-09-01T01:18:29Z</time>
  <course>24.46</course>
  <speed>0.03</speed>
  <fix>3d</fix>
</trkpt>
<trkpt lat="33.8102281" lon="-118.3938801">
  <ele>-5.503</ele>
  <time>2026-09-01T01:18:29Z</time>
  <course>187.17</course>
  <speed>0.022360679774997897</speed>
  <fix>3d</fix>
</trkpt>
<trkpt lat="33.8102281" lon="-118.3938801">
  <ele>-5.38</ele>
  <time>2026-09-01T01:18:29Z</time>
  <course>187.07</course>
  <speed>0.022360679774997897</speed>
  <fix>3d</fix>
</trkpt>
<trkpt lat="33.8102167" lon="-118.3938647">
  <ele>-3.61</ele>
  <time>2026-09-01T01:18:29Z</time>
  <course>24.78</course>
  <speed>0.03</speed>
  <fix>3d</fix>
</trkpt>
<trkpt lat="33.8102281" lon="-118.3938801">
  <ele>-5.377</ele>
  <time>2026-09-01T01:18:29Z</time>
  <course>187.06</course>
  <speed>0.022360679774997897</speed>
  <fix>3d</fix>
</trkpt>
<trkpt lat="33.8102282" lon="-118.3938801">
  <ele>-5.255</ele>
  <time>2026-09-01T01:18:29Z</time>
  <course>186.96</course>
  <speed>0.022360679774997897</speed>
  <fix>3d</fix>
</trkpt>
<trkpt lat="33.8102167" lon="-118.3938647">
  <ele>-3.61</ele>
  <time>2026-09-01T01:18:29Z</time>
  <course>24.78</course>
  <speed>0.03</speed>
  <fix>3d</fix>
</trkpt>
<trkpt lat="33.8102282" lon="-118.3938801">
  <ele>-5.252</ele>
  <time>2026-09-01T01:18:29Z</time>
  <course>186.96</course>
  <speed>0.022360679774997897</speed>
  <fix>3d</fix>
</trkpt>
<trkpt lat="33.8102282" lon="-118.3938801">
  <ele>-5.13</ele>
  <time>2026-09-01T01:18:29Z</time>
  <course>186.86</course>
  <speed>0.022360679774997897</speed>
  <fix>3d</fix>
</trkpt>
<trkpt lat="33.8102181" lon="-118.3938632">
  <ele>-3.36</ele>
  <time>2026-09-01T01:18:29Z</time>
  <course>25.09</course>
  <speed>0.02</speed>
  <fix>3d</fix>
</trkpt>
<trkpt lat="33.8102282" lon="-118.3938801">
  <ele>-5.127</ele>
  <time>2026-09-01T01:18:29Z</time>
  <course>186.86</course>
  <speed>0.022360679774997897</speed>
  <fix>3d</fix>
</trkpt>
<trkpt lat="33.8102282" lon="-118.39388">
  <ele>-5.005</ele>
  <time>2026-09-01T01:18:29Z</time>
  <course>186.77</course>
  <speed>0.0316227766016838</speed>
  <fix>3d</fix>
</trkpt>
<trkpt lat="33.8102181" lon="-118.3938632">
  <ele>-3.36</ele>
  <time>2026-09-01T01:18:29Z</time>
  <course>25.09</course>
  <speed>0.02</speed>
  <fix>3d</fix>
</trkpt>
<trkpt lat="33.8102282" lon="-118.39388">
  <ele>-5.002</ele>
  <time>2026-09-01T01:18:29Z</time>
  <course>186.76</course>
  <speed>0.0316227766016838</speed>
  <fix>3d</fix>
</trkpt>
<trkpt lat="33.8102283" lon="-118.39388">
  <ele>-4.88</ele>
  <time>2026-09-01T01:18:29Z</time>
  <course>186.68</course>
  <speed>0.0316227766016838</speed>
  <fix>3d</fix>
</trkpt>
<trkpt lat="33.8102196" lon="-118.3938619">
  <ele>-3.12</ele>
  <time>2026-09-01T01:18:29Z</time>
  <course>25.41</course>
  <speed>0.02</speed>
  <fix>3d</fix>
</trkpt>
<trkpt lat="33.8102283" lon="-118.39388">
  <ele>-4.878</ele>
  <time>2026-09-01T01:18:29Z</time>
  <course>186.67</course>
  <speed>0.0316227766016838</speed>
  <fix>3d</fix>
</trkpt>
<trkpt lat="33.8102283" lon="-118.39388">
  <ele>-4.754</ele>
  <time>2026-09-01T01:18:29Z</time>
  <course>186.59</course>
  <speed>0.0316227766016838</speed>
  <fix>3d</fix>
</trkpt>
<trkpt lat="33.8102196" lon="-118.3938619">
  <ele>-3.12</ele>
  <time>2026-09-01T01:18:29Z</time>
  <course>25.41</course>
  <speed>0.02</speed>
  <fix>3d</fix>
</trkpt>
<trkpt lat="33.8102283" lon="-118.39388">
  <ele>-4.752</ele>
  <time>2026-09-01T01:18:29Z</time>
  <course>186.59</course>
  <speed>0.0316227766016838</speed>
  <fix>3d</fix>
</trkpt>
<trkpt lat="33.8102283" lon="-118.39388">
  <ele>-4.628</ele>
  <time>2026-09-01T01:18:29Z</time>
  <course>186.51</course>
  <speed>0.0316227766016838</speed>
  <fix>3d</fix>
</trkpt>
<trkpt lat="33.8102212" lon="-118.3938608">
  <ele>-2.87</ele>
  <time>2026-09-01T01:18:29Z</time>
  <course>25.72</course>
  <speed>0.02</speed>
  <fix>3d</fix>
</trkpt>
<trkpt lat="33.8102283" lon="-118.39388">
  <ele>-4.626</ele>
  <time>2026-09-01T01:18:29Z</time>
  <course>186.5</course>
  <speed>0.0316227766016838</speed>
  <fix>3d</fix>
</trkpt>
<trkpt lat="33.8102283" lon="-118.39388">
  <ele>-4.502</ele>
  <time>2026-09-01T01:18:29Z</time>
  <course>186.46</course>
  <speed>0.0316227766016838</speed>
  <fix>3d</fix>
</trkpt>
<trkpt lat="33.8102212" lon="-118.3938608">
  <ele>-2.87</ele>
  <time>2026-09-01T01:18:29Z</time>
  <course>25.72</course>
  <speed>0.02</speed>
  <fix>3d</fix>
</trkpt>
<trkpt lat="33.8102283" lon="-118.39388">
  <ele>-4.5</ele>
  <time>2026-09-01T01:18:29Z</time>
  <course>186.46</course>
  <speed>0.0316227766016838</speed>
  <fix>3d</fix>
</trkpt>
<trkpt lat="33.8102284" lon="-118.3938799">
  <ele>-4.376</ele>
  <time>2026-09-01T01:18:29Z</time>
  <course>186.52</course>
  <speed>0.0316227766016838</speed>
  <fix>3d</fix>
</trkpt>
<trkpt lat="33.8102229" lon="-118.3938599">
  <ele>-2.62</ele>
  <time>2026-09-01T01:18:29Z</time>
  <course>24.59</course>
  <speed>0.02</speed>
  <fix>3d</fix>
</trkpt>
<trkpt lat="33.8102284" lon="-118.3938799">
  <ele>-4.373</ele>
  <time>2026-09-01T01:18:29Z</time>
  <course>186.52</course>
  <speed>0.0316227766016838</speed>
  <fix>3d</fix>
</trkpt>
<trkpt lat="33.8102284" lon="-118.3938799">
  <ele>-4.249</ele>
  <time>2026-09-01T01:18:29Z</time>
  <course>186.66</course>
  <speed>0.03605551275463989</speed>
  <fix>3d</fix>
</trkpt>
<trkpt lat="33.8102229" lon="-118.3938599">
  <ele>-2.62</ele>
  <time>2026-09-01T01:18:29Z</time>
  <course>24.59</course>
  <speed>0.02</speed>
  <fix>3d</fix>
</trkpt>
<trkpt lat="33.8102284" lon="-118.3938799">
  <ele>-4.246</ele>
  <time>2026-09-01T01:18:29Z</time>
  <course>186.67</course>
  <speed>0.03605551275463989</speed>
  <fix>3d</fix>
</trkpt>
<trkpt lat="33.8102284" lon="-118.3938799">
  <ele>-4.121</ele>
  <time>2026-09-01T01:18:29Z</time>
  <course>186.87</course>
  <speed>0.03605551275463989</speed>
  <fix>3d</fix>
</trkpt>
<trkpt lat="33.8102246" lon="-118.3938592">
  <ele>-2.38</ele>
  <time>2026-09-01T01:18:29Z</time>
  <course>20.55</course>
  <speed>0.02</speed>
  <fix>3d</fix>
</trkpt>
<trkpt lat="33.8102284" lon="-118.3938799">
  <ele>-4.118</ele>
  <time>2026-09-01T01:18:29Z</time>
  <course>186.88</course>
  <speed>0.03605551275463989</speed>
  <fix>3d</fix>
</trkpt>
<trkpt lat="33.8102284" lon="-118.3938799">
  <ele>-3.993</ele>
  <time>2026-09-01T01:18:29Z</time>
  <course>187.13</course>
  <speed>0.03605551275463989</speed>
  <fix>3d</fix>
</trkpt>
<trkpt lat="33.8102246" lon="-118.3938592">
  <ele>-2.38</ele>
  <time>2026-09-01T01:18:29Z</time>
  <course>20.55</course>
  <speed>0.02</speed>
  <fix>3d</fix>
</trkpt>
<trkpt lat="33.8102284" lon="-118.3938799">
  <ele>-3.99</ele>
  <time>2026-09-01T01:18:29Z</time>
  <course>187.13</course>
  <speed>0.03605551275463989</speed>
  <fix>3d</fix>
</trkpt>
<trkpt lat="33.8102285" lon="-118.3938799">
  <ele>-3.865</ele>
  <time>2026-09-01T01:18:29Z</time>
  <course>187.4</course>
  <speed>0.03605551275463989</speed>
  <fix>3d</fix>
</trkpt>
<trkpt lat="33.8102264" lon="-118.3938587">
  <ele>-2.13</ele>
  <time>2026-09-01T01:18:29Z</time>
  <course>14.89</course>
  <speed>0.01</speed>
  <fix>3d</fix>
</trkpt>
<trkpt lat="33.8102285" lon="-118.3938799">
  <ele>-3.861</ele>
  <time>2026-09-01T01:18:29Z</time>
  <course>187.41</course>
  <speed>0.03605551275463989</speed>
  <fix>3d</fix>
</trkpt>
<trkpt lat="33.8102285" lon="-118.3938799">
  <ele>-3.737</ele>
  <time>2026-09-01T01:18:29Z</time>
  <course>187.68</course>
  <speed>0.03605551275463989</speed>
  <fix>3d</fix>
</trkpt>
<trkpt lat="33.8102264" lon="-118.3938587">
  <ele>-2.13</ele>
  <time>2026-09-01T01:18:29Z</time>
  <course>14.89</course>
  <speed>0.01</speed>
  <fix>3d</fix>
</trkpt>
<trkpt lat="33.8102285" lon="-118.3938799">
  <ele>-3.732</ele>
  <time>2026-09-01T01:18:29Z</time>
  <course>187.69</course>
  <speed>0.03605551275463989</speed>
  <fix>3d</fix>
</trkpt>
<trkpt lat="33.8102285" lon="-118.3938799">
  <ele>-3.608</ele>
  <time>2026-09-01T01:18:29Z</time>
  <course>187.96</course>
  <speed>0.03605551275463989</speed>
  <fix>3d</fix>
</trkpt>
<trkpt lat="33.8102282" lon="-118.3938584">
  <ele>-1.89</ele>
  <time>2026-09-01T01:18:29Z</time>
  <course>9.5</course>
  <speed>0.01</speed>
  <fix>3d</fix>
</trkpt>
<trkpt lat="33.8102285" lon="-118.3938799">
  <ele>-3.604</ele>
  <time>2026-09-01T01:18:29Z</time>
  <course>187.97</course>
  <speed>0.03605551275463989</speed>
  <fix>3d</fix>
</trkpt>
<trkpt lat="33.8102285" lon="-118.3938799">
  <ele>-3.48</ele>
  <time>2026-09-01T01:18:29Z</time>
  <course>188.2</course>
  <speed>0.03605551275463989</speed>
  <fix>3d</fix>
</trkpt>
<trkpt lat="33.8102282" lon="-118.3938584">
  <ele>-1.89</ele>
  <time>2026-09-01T01:18:29Z</time>
  <course>9.5</course>
  <speed>0.01</speed>
  <fix>3d</fix>
</trkpt>
<trkpt lat="33.8102285" lon="-118.3938799">
  <ele>-3.476</ele>
  <time>2026-09-01T01:18:29Z</time>
  <course>188.21</course>
  <speed>0.03605551275463989</speed>
  <fix>3d</fix>
</trkpt>
<trkpt lat="33.8102285" lon="-118.3938798">
  <ele>-3.351</ele>
  <time>2026-09-01T01:18:29Z</time>
  <course>188.39</course>
  <speed>0.03605551275463989</speed>
  <fix>3d</fix>
</trkpt>
<trkpt lat="33.81023" lon="-118.3938583">
  <ele>-1.64</ele>
  <time>2026-09-01T01:18:29Z</time>
  <course>0.36</course>
  <speed>0.01</speed>
  <fix>3d</fix>
</trkpt>
<trkpt lat="33.8102285" lon="-118.3938799">
  <ele>-3.348</ele>
  <time>2026-09-01T01:18:29Z</time>
  <course>188.4</course>
  <speed>0.03605551275463989</speed>
  <fix>3d</fix>
</trkpt>
<trkpt lat="33.8102286" lon="-118.3938798">
  <ele>-3.222</ele>
  <time>2026-09-01T01:18:29Z</time>
  <course>188.54</course>
  <speed>0.04242640687119285</speed>
  <fix>3d</fix>
</trkpt>
<trkpt lat="33.81023" lon="-118.3938583">
  <ele>-1.64</ele>
  <time>2026-09-01T01:18:29Z</time>
  <course>0.36</course>
  <speed>0.01</speed>
  <fix>3d</fix>
</trkpt>
<trkpt lat="33.8102286" lon="-118.3938798">
  <ele>-3.219</ele>
  <time>2026-09-01T01:18:29Z</time>
  <course>188.54</course>
  <speed>0.04242640687119285</speed>
  <fix>3d</fix>
</trkpt>
<trkpt lat="33.8102286" lon="-118.3938798">
  <ele>-3.093</ele>
  <time>2026-09-01T01:18:29Z</time>
  <course>188.64</course>
  <speed>0.04242640687119285</speed>
  <fix>3d</fix>
</trkpt>
<trkpt lat="33.8102318" lon="-118.3938585">
  <ele>-1.4</ele>
  <time>2026-09-01T01:18:29Z</time>
  <course>345.44</course>
  <speed>0.01</speed>
  <fix>3d</fix>
</trkpt>
<trkpt lat="33.8102286" lon="-118.3938798">
  <ele>-3.09</ele>
  <time>2026-09-01T01:18:29Z</time>
  <course>188.64</course>
  <speed>0.04242640687119285</speed>
  <fix>3d</fix>
</trkpt>
<trkpt lat="33.8102286" lon="-118.3938798">
  <ele>-2.964</ele>
  <time>2026-09-01T01:18:29Z</time>
  <course>188.72</course>
  <speed>0.04242640687119285</speed>
  <fix>3d</fix>
</trkpt>
<trkpt lat="33.8102318" lon="-118.3938585">
  <ele>-1.4</ele>
  <time>2026-09-01T01:18:29Z</time>
  <course>345.44</course>
  <speed>0.01</speed>
  <fix>3d</fix>
</trkpt>
<trkpt lat="33.8102286" lon="-118.3938798">
  <ele>-2.961</ele>
  <time>2026-09-01T01:18:29Z</time>
  <course>188.73</course>
  <speed>0.04242640687119285</speed>
  <fix>3d</fix>
</trkpt>
<trkpt lat="33.8102286" lon="-118.3938798">
  <ele>-2.836</ele>
  <time>2026-09-01T01:18:29Z</time>
  <course>188.79</course>
  <speed>0.04242640687119285</speed>
  <fix>3d</fix>
</trkpt>
<trkpt lat="33.8102337" lon="-118.3938588">
  <ele>-1.15</ele>
  <time>2026-09-01T01:18:29Z</time>
  <course>331.93</course>
  <speed>0.02</speed>
  <fix>3d</fix>
</trkpt>
<trkpt lat="33.8102286" lon="-118.3938798">
  <ele>-2.833</ele>
  <time>2026-09-01T01:18:29Z</time>
  <course>188.8</course>
  <speed>0.04242640687119285</speed>
  <fix>3d</fix>
</trkpt>
<trkpt lat="33.8102286" lon="-118.3938798">
  <ele>-2.709</ele>
  <time>2026-09-01T01:18:29Z</time>
  <course>188.85</course>
  <speed>0.04242640687119285</speed>
  <fix>3d</fix>
</trkpt>
<trkpt lat="33.8102337" lon="-118.3938588">
  <ele>-1.15</ele>
  <time>2026-09-01T01:18:29Z</time>
  <course>331.93</course>
  <speed>0.02</speed>
  <fix>3d</fix>
</trkpt>
<trkpt lat="33.8102286" lon="-118.3938798">
  <ele>-2.705</ele>
  <time>2026-09-01T01:18:29Z</time>
  <course>188.85</course>
  <speed>0.04242640687119285</speed>
  <fix>3d</fix>
</trkpt>
<trkpt lat="33.8102286" lon="-118.3938798">
  <ele>-2.581</ele>
  <time>2026-09-01T01:18:29Z</time>
  <course>188.87</course>
  <speed>0.04242640687119285</speed>
  <fix>3d</fix>
</trkpt>
<trkpt lat="33.8102354" lon="-118.3938594">
  <ele>-0.9</ele>
  <time>2026-09-01T01:18:29Z</time>
  <course>323.38</course>
  <speed>0.02</speed>
  <fix>3d</fix>
</trkpt>
<trkpt lat="33.8102286" lon="-118.3938798">
  <ele>-2.578</ele>
  <time>2026-09-01T01:18:29Z</time>
  <course>188.87</course>
  <speed>0.04242640687119285</speed>
  <fix>3d</fix>
</trkpt>
<trkpt lat="33.8102287" lon="-118.3938799">
  <ele>-2.454</ele>
  <time>2026-09-01T01:18:29Z</time>
  <course>188.83</course>
  <speed>0.04242640687119285</speed>
  <fix>3d</fix>
</trkpt>
<trkpt lat="33.8102354" lon="-118.3938594">
  <ele>-0.9</ele>
  <time>2026-09-01T01:18:29Z</time>
  <course>323.38</course>
  <speed>0.02</speed>
  <fix>3d</fix>
</trkpt>
<trkpt lat="33.8102287" lon="-118.3938799">
  <ele>-2.451</ele>
  <time>2026-09-01T01:18:29Z</time>
  <course>188.83</course>
  <speed>0.04242640687119285</speed>
  <fix>3d</fix>
</trkpt>
<trkpt lat="33.8102287" lon="-118.3938799">
  <ele>-2.328</ele>
  <time>2026-09-01T01:18:29Z</time>
  <course>188.76</course>
  <speed>0.04242640687119285</speed>
  <fix>3d</fix>
</trkpt>
<trkpt lat="33.8102371" lon="-118.3938602">
  <ele>-0.66</ele>
  <time>2026-09-01T01:18:29Z</time>
  <course>317.11</course>
  <speed>0.02</speed>
  <fix>3d</fix>
</trkpt>
<trkpt lat="33.8102287" lon="-118.3938799">
  <ele>-2.326</ele>
  <time>2026-09-01T01:18:29Z</time>
  <course>188.76</course>
  <speed>0.04242640687119285</speed>
  <fix>3d</fix>
</trkpt>
<trkpt lat="33.8102287" lon="-118.3938799">
  <ele>-2.203</ele>
  <time>2026-09-01T01:18:29Z</time>
  <course>188.66</course>
  <speed>0.04242640687119285</speed>
  <fix>3d</fix>
</trkpt>
<trkpt lat="33.8102371" lon="-118.3938602">
  <ele>-0.66</ele>
  <time>2026-09-01T01:18:29Z</time>
  <course>317.11</course>
  <speed>0.02</speed>
  <fix>3d</fix>
</trkpt>
<trkpt lat="33.8102287" lon="-118.3938799">
  <ele>-2.197</ele>
  <time>2026-09-01T01:18:29Z</time>
  <course>188.65</course>
  <speed>0.04242640687119285</speed>
  <fix>3d</fix>
</trkpt>
<trkpt lat="33.8102287" lon="-118.3938799">
  <ele>-2.077</ele>
  <time>2026-09-01T01:18:29Z</time>
  <course>188.55</course>
  <speed>0.04242640687119285</speed>
  <fix>3d</fix>
</trkpt>
<trkpt lat="33.8102388" lon="-118.3938612">
  <ele>-0.41</ele>
  <time>2026-09-01T01:18:29Z</time>
  <course>307.48</course>
  <speed>0.01</speed>
  <fix>3d</fix>
</trkpt>
<trkpt lat="33.8102287" lon="-118.3938799">
  <ele>-2.075</ele>
  <time>2026-09-01T01:18:29Z</time>
  <course>188.55</course>
  <speed>0.04242640687119285</speed>
  <fix>3d</fix>
</trkpt>
<trkpt lat="33.8102287" lon="-118.3938799">
  <ele>-1.952</ele>
  <time>2026-09-01T01:18:29Z</time>
  <course>188.47</course>
  <speed>0.04242640687119285</speed>
  <fix>3d</fix>
</trkpt>
<trkpt lat="33.8102388" lon="-118.3938612">
  <ele>-0.41</ele>
  <time>2026-09-01T01:18:29Z</time>
  <course>307.48</course>
  <speed>0.01</speed>
  <fix>3d</fix>
</trkpt>
<trkpt lat="33.8102287" lon="-118.3938799">
  <ele>-1.95</ele>
  <time>2026-09-01T01:18:29Z</time>
  <course>188.47</course>
  <speed>0.04242640687119285</speed>
  <fix>3d</fix>
</trkpt>
<trkpt lat="33.8102287" lon="-118.3938799">
  <ele>-1.827</ele>
  <time>2026-09-01T01:18:29Z</time>
  <course>188.38</course>
  <speed>0.04242640687119285</speed>
  <fix>3d</fix>
</trkpt>
<trkpt lat="33.8102403" lon="-118.3938623">
  <ele>-0.17</ele>
  <time>2026-09-01T01:18:29Z</time>
  <course>296.86</course>
  <speed>0.01</speed>
  <fix>3d</fix>
</trkpt>
<trkpt lat="33.8102287" lon="-118.3938799">
  <ele>-1.825</ele>
  <time>2026-09-01T01:18:29Z</time>
  <course>188.38</course>
  <speed>0.04242640687119285</speed>
  <fix>3d</fix>
</trkpt>
<trkpt lat="33.8102287" lon="-118.3938799">
  <ele>-1.702</ele>
  <time>2026-09-01T01:18:29Z</time>
  <course>188.28</course>
  <speed>0.03605551275463989</speed>
  <fix>3d</fix>
</trkpt>
<trkpt lat="33.8102403" lon="-118.3938623">
  <ele>-0.17</ele>
  <time>2026-09-01T01:18:29Z</time>
  <course>296.86</course>
  <speed>0.01</speed>
  <fix>3d</fix>
</trkpt>
<trkpt lat="33.8102287" lon="-118.3938799">
  <ele>-1.699</ele>
  <time>2026-09-01T01:18:29Z</time>
  <course>188.28</course>
  <speed>0.03605551275463989</speed>
  <fix>3d</fix>
</trkpt>
<trkpt lat="33.8102287" lon="-118.3938799">
  <ele>-1.577</ele>
  <time>2026-09-01T01:18:29Z</time>
  <course>188.17</course>
  <speed>0.03605551275463989</speed>
  <fix>3d</fix>
</trkpt>
<trkpt lat="33.8102417" lon="-118.3938637">
  <ele>0.07</ele>
  <time>2026-09-01T01:18:29Z</time>
  <course>289.27</course>
  <speed>0.01</speed>
  <fix>3d</fix>
</trkpt>
<trkpt lat="33.8102287" lon="-118.3938799">
  <ele>-1.574</ele>
  <time>2026-09-01T01:18:29Z</time>
  <course>188.16</course>
  <speed>0.03605551275463989</speed>
  <fix>3d</fix>
</trkpt>
<trkpt lat="33.8102287" lon="-118.3938799">
  <ele>-1.453</ele>
  <time>2026-09-01T01:18:29Z</time>
  <course>188.04</course>
  <speed>0.03605551275463989</speed>
  <fix>3d</fix>
</trkpt>
<trkpt lat="33.8102417" lon="-118.3938637">
  <ele>0.07</ele>
  <time>2026-09-01T01:18:29Z</time>
  <course>289.27</course>
  <speed>0.01</speed>
  <fix>3d</fix>
</trkpt>
<trkpt lat="33.8102287" lon="-118.3938799">
  <ele>-1.45</ele>
  <time>2026-09-01T01:18:29Z</time>
  <course>188.04</course>
  <speed>0.03605551275463989</speed>
  <fix>3d</fix>
</trkpt>
<trkpt lat="33.8102288" lon="-118.3938799">
  <ele>-1.331</ele>
  <time>2026-09-01T01:18:29Z</time>
  <course>187.92</course>
  <speed>0.03605551275463989</speed>
  <fix>3d</fix>
</trkpt>
<trkpt lat="33.810243" lon="-118.3938652">
  <ele>0.31</ele>
  <time>2026-09-01T01:18:29Z</time>
  <course>281.41</course>
  <speed>0.01</speed>
  <fix>3d</fix>
</trkpt>
<trkpt lat="33.8102288" lon="-118.3938799">
  <ele>-1.329</ele>
  <time>2026-09-01T01:18:29Z</time>
  <course>187.92</course>
  <speed>0.03605551275463989</speed>
  <fix>3d</fix>
</trkpt>
<trkpt lat="33.8102288" lon="-118.3938799">
  <ele>-1.211</ele>
  <time>2026-09-01T01:18:29Z</time>
  <course>187.8</course>
  <speed>0.03605551275463989</speed>
  <fix>3d</fix>
</trkpt>
<trkpt lat="33.810243" lon="-118.3938652">
  <ele>0.31</ele>
  <time>2026-09-01T01:18:29Z</time>
  <course>281.41</course>
  <speed>0.01</speed>
  <fix>3d</fix>
</trkpt>
<trkpt lat="33.8102288" lon="-118.3938799">
  <ele>-1.208</ele>
  <time>2026-09-01T01:18:29Z</time>
  <course>187.8</course>
  <speed>0.03605551275463989</speed>
  <fix>3d</fix>
</trkpt>
<trkpt lat="33.8102288" lon="-118.39388">
  <ele>-1.09</ele>
  <time>2026-09-01T01:18:29Z</time>
  <course>187.69</course>
  <speed>0.03605551275463989</speed>
  <fix>3d</fix>
</trkpt>
<trkpt lat="33.8102441" lon="-118.3938669">
  <ele>0.56</ele>
  <time>2026-09-01T01:18:29Z</time>
  <course>275.72</course>
  <speed>0.01</speed>
  <fix>3d</fix>
</trkpt>
<trkpt lat="33.8102288" lon="-118.39388">
  <ele>-1.087</ele>
  <time>2026-09-01T01:18:29Z</time>
  <course>187.69</course>
  <speed>0.03605551275463989</speed>
  <fix>3d</fix>
</trkpt>
<trkpt lat="33.8102288" lon="-118.39388">
  <ele>-0.969</ele>
  <time>2026-09-01T01:18:29Z</time>
  <course>187.58</course>
  <speed>0.03605551275463989</speed>
  <fix>3d</fix>
</trkpt>
<trkpt lat="33.8102441" lon="-118.3938669">
  <ele>0.56</ele>
  <time>2026-09-01T01:18:29Z</time>
  <course>275.72</course>
  <speed>0.01</speed>
  <fix>3d</fix>
</trkpt>
<trkpt lat="33.8102288" lon="-118.39388">
  <ele>-0.966</ele>
  <time>2026-09-01T01:18:29Z</time>
  <course>187.58</course>
  <speed>0.03605551275463989</speed>
  <fix>3d</fix>
</trkpt>
<trkpt lat="33.8102288" lon="-118.39388">
  <ele>-0.848</ele>
  <time>2026-09-01T01:18:29Z</time>
  <course>187.48</course>
  <speed>0.03605551275463989</speed>
  <fix>3d</fix>
</trkpt>
<trkpt lat="33.8102452" lon="-118.3938687">
  <ele>0.8</ele>
  <time>2026-09-01T01:18:29Z</time>
  <course>271.37</course>
  <speed>0.01</speed>
  <fix>3d</fix>
</trkpt>
<trkpt lat="33.8102288" lon="-118.39388">
  <ele>-0.842</ele>
  <time>2026-09-01T01:18:29Z</time>
  <course>187.48</course>
  <speed>0.03605551275463989</speed>
  <fix>3d</fix>
</trkpt>
<trkpt lat="33.8102288" lon="-118.39388">
  <ele>-0.725</ele>
  <time>2026-09-01T01:18:29Z</time>
  <course>187.38</course>
  <speed>0.04242640687119285</speed>
  <fix>3d</fix>
</trkpt>
<trkpt lat="33.8102452" lon="-118.3938687">
  <ele>0.8</ele>
  <time>2026-09-01T01:18:29Z</time>
  <course>271.37</course>
  <speed>0.01</speed>
  <fix>3d</fix>
</trkpt>
<trkpt lat="33.8102288" lon="-118.39388">
  <ele>-0.722</ele>
  <time>2026-09-01T01:18:29Z</time>
  <course>187.38</course>
  <speed>0.03605551275463989</speed>
  <fix>3d</fix>
</trkpt>
<trkpt lat="33.8102288" lon="-118.39388">
  <ele>-0.603</ele>
  <time>2026-09-01T01:18:29Z</time>
  <course>187.29</course>
  <speed>0.04242640687119285</speed>
  <fix>3d</fix>
</trkpt>
<trkpt lat="33.810246" lon="-118.3938706">
  <ele>1.05</ele>
  <time>2026-09-01T01:18:29Z</time>
  <course>268.38</course>
  <speed>0.01</speed>
  <fix>3d</fix>
</trkpt>
<trkpt lat="33.8102288" lon="-118.39388">
  <ele>-0.6</ele>
  <time>2026-09-01T01:18:29Z</time>
  <course>187.29</course>
  <speed>0.04242640687119285</speed>
  <fix>3d</fix>
</trkpt>
<trkpt lat="33.8102288" lon="-118.39388">
  <ele>-0.481</ele>
  <time>2026-09-01T01:18:29Z</time>
  <course>187.2</course>
  <speed>0.04242640687119285</speed>
  <fix>3d</fix>
</trkpt>
<trkpt lat="33.810246" lon="-118.3938706">
  <ele>1.05</ele>
  <time>2026-09-01T01:18:29Z</time>
  <course>268.38</course>
  <speed>0.01</speed>
  <fix>3d</fix>
</trkpt>
<trkpt lat="33.8102288" lon="-118.39388">
  <ele>-0.479</ele>
  <time>2026-09-01T01:18:29Z</time>
  <course>187.2</course>
  <speed>0.04242640687119285</speed>
  <fix>3d</fix>
</trkpt>
<trkpt lat="33.8102288" lon="-118.39388">
  <ele>-0.36</ele>
  <time>2026-09-01T01:18:29Z</time>
  <course>187.11</course>
  <speed>0.04242640687119285</speed>
  <fix>3d</fix>
</trkpt>
<trkpt lat="33.8102467" lon="-118.3938727">
  <ele>1.29</ele>
  <time>2026-09-01T01:18:29Z</time>
  <course>268.23</course>
  <speed>0.01</speed>
  <fix>3d</fix>
</trkpt>
<trkpt lat="33.8102288" lon="-118.39388">
  <ele>-0.238</ele>
  <time>2026-09-01T01:18:29Z</time>
  <course>187.03</course>
  <speed>0.04242640687119285</speed>
  <fix>3d</fix>
</trkpt>
<trkpt lat="33.8102467" lon="-118.3938727">
  <ele>1.29</ele>
  <time>2026-09-01T01:18:29Z</time>
  <course>268.23</course>
  <speed>0.01</speed>
  <fix>3d</fix>
</trkpt>
<trkpt lat="33.8102288" lon="-118.39388">
  <ele>-0.115</ele>
  <time>2026-09-01T01:18:29Z</time>
  <course>186.95</course>
  <speed>0.04242640687119285</speed>
  <fix>3d</fix>
</trkpt>
<trkpt lat="33.8102473" lon="-118.3938748">
  <ele>1.54</ele>
  <time>2026-09-01T01:18:29Z</time>
  <course>268.09</course>
  <speed>0.01</speed>
  <fix>3d</fix>
</trkpt>
<trkpt lat="33.8102288" lon="-118.39388">
  <ele>0.004</ele>
  <time>2026-09-01T01:18:29Z</time>
  <course>186.87</course>
  <speed>0.04242640687119285</speed>
  <fix>3d</fix>
</trkpt>
<trkpt lat="33.8102473" lon="-118.3938748">
  <ele>1.54</ele>
  <time>2026-09-01T01:18:29Z</time>
  <course>268.09</course>
  <speed>0.01</speed>
  <fix>3d</fix>
</trkpt>
<trkpt lat="33.8102288" lon="-118.39388">
  <ele>0.119</ele>
  <time>2026-09-01T01:18:29Z</time>
  <course>186.84</course>
  <speed>0.03605551275463989</speed>
  <fix>3d</fix>
</trkpt>
<trkpt lat="33.8102476" lon="-118.3938769">
  <ele>1.78</ele>
  <time>2026-09-01T01:18:29Z</time>
  <course>265.0</course>
  <speed>0.01</speed>
  <fix>3d</fix>
</trkpt>
<trkpt lat="33.8102288" lon="-118.39388">
  <ele>0.224</ele>
  <time>2026-09-01T01:18:29Z</time>
  <course>186.82</course>
  <speed>0.03605551275463989</speed>
  <fix>3d</fix>
</trkpt>
<trkpt lat="33.8102476" lon="-118.3938769">
  <ele>1.78</ele>
  <time>2026-09-01T01:18:29Z</time>
  <course>265.0</course>
  <speed>0.01</speed>
  <fix>3d</fix>
</trkpt>
<trkpt lat="33.8102479" lon="-118.393879">
  <ele>0.314</ele>
  <time>2026-09-01T01:18:29Z</time>
  <course>186.8</course>
  <speed>0.03605551275463989</speed>
  <fix>3d</fix>
</trkpt>
<trkpt lat="33.8102478" lon="-118.393879">
  <ele>2.01</ele>
  <time>2026-09-01T01:18:29Z</time>
  <course>262.29</course>
  <speed>0.01</speed>
  <fix>3d</fix>
</trkpt>
<trkpt lat="33.8102479" lon="-118.393879">
  <ele>0.387</ele>
  <time>2026-09-01T01:18:29Z</time>
  <course>186.86</course>
  <speed>0.0282842712474619</speed>
  <fix>3d</fix>
</trkpt>
<trkpt lat="33.8102478" lon="-118.393879">
  <ele>2.01</ele>
  <time>2026-09-01T01:18:29Z</time>
  <course>262.29</course>
  <speed>0.01</speed>
  <fix>3d</fix>
</trkpt>
<trkpt lat="33.8102479" lon="-118.393879">
  <ele>0.444</ele>
  <time>2026-09-01T01:18:29Z</time>
  <course>186.97</course>
  <speed>0.0282842712474619</speed>
  <fix>3d</fix>
</trkpt>
<trkpt lat="33.8102478" lon="-118.3938812">
  <ele>2.19</ele>
  <time>2026-09-01T01:18:29Z</time>
  <course>249.44</course>
  <speed>0.01</speed>
  <fix>3d</fix>
</trkpt>
<trkpt lat="33.8102479" lon="-118.393879">
  <ele>0.488</ele>
  <time>2026-09-01T01:18:29Z</time>
  <course>187.07</course>
  <speed>0.022360679774997897</speed>
  <fix>3d</fix>
</trkpt>
<trkpt lat="33.8102478" lon="-118.3938812">
  <ele>2.19</ele>
  <time>2026-09-01T01:18:29Z</time>
  <course>249.44</course>
  <speed>0.01</speed>
  <fix>3d</fix>
</trkpt>
<trkpt lat="33.8102479" lon="-118.3938791">
  <ele>0.52</ele>
  <time>2026-09-01T01:18:29Z</time>
  <course>187.13</course>
  <speed>0.01414213562373095</speed>
  <fix>3d</fix>
</trkpt>
<trkpt lat="33.8102476" lon="-118.3938834">
  <ele>2.31</ele>
  <time>2026-09-01T01:18:29Z</time>
  <course>206.14</course>
  <speed>0.01</speed>
  <fix>3d</fix>
</trkpt>
<trkpt lat="33.8102479" lon="-118.3938791">
  <ele>0.543</ele>
  <time>2026-09-01T01:18:29Z</time>
  <course>187.17</course>
  <speed>0.01414213562373095</speed>
  <fix>3d</fix>
</trkpt>
<trkpt lat="33.8102476" lon="-118.3938834">
  <ele>2.31</ele>
  <time>2026-09-01T01:18:29Z</time>
  <course>206.14</course>
  <speed>0.01</speed>
  <fix>3d</fix>
</trkpt>
<trkpt lat="33.8102479" lon="-118.3938791">
  <ele>0.558</ele>
  <time>2026-09-01T01:18:29Z</time>
  <course>187.17</course>
  <speed>0.0</speed>
  <fix>3d</fix>
</trkpt>
<trkpt lat="33.8102473" lon="-118.3938856">
  <ele>2.38</ele>
  <time>2026-09-01T01:18:29Z</time>
  <course>174.89</course>
  <speed>0.01</speed>
  <fix>3d</fix>
</trkpt>
<trkpt lat="33.8102479" lon="-118.3938792">
  <ele>0.567</ele>
  <time>2026-09-01T01:18:29Z</time>
  <course>187.16</course>
  <speed>0.0</speed>
  <fix>3d</fix>
</trkpt>
<trkpt lat="33.8102473" lon="-118.3938856">
  <ele>2.38</ele>
  <time>2026-09-01T01:18:29Z</time>
  <course>174.89</course>
  <speed>0.01</speed>
  <fix>3d</fix>
</trkpt>
<trkpt lat="33.8102479" lon="-118.3938792">
  <ele>0.571</ele>
  <time>2026-09-01T01:18:29Z</time>
  <course>187.13</course>
  <speed>0.0</speed>
  <fix>3d</fix>
</trkpt>
<trkpt lat="33.8102467" lon="-118.3938876">
  <ele>2.42</ele>
  <time>2026-09-01T01:18:29Z</time>
  <course>162.99</course>
  <speed>0.02</speed>
  <fix>3d</fix>
</trkpt>
<trkpt lat="33.8102479" lon="-118.3938794">
  <ele>0.572</ele>
  <time>2026-09-01T01:18:29Z</time>
  <course>187.11</course>
  <speed>0.0</speed>
  <fix>3d</fix>
</trkpt>
<trkpt lat="33.8102467" lon="-118.3938876">
  <ele>2.42</ele>
  <time>2026-09-01T01:18:29Z</time>
  <course>162.99</course>
  <speed>0.02</speed>
  <fix>3d</fix>
</trkpt>
<trkpt lat="33.8102479" lon="-118.3938794">
  <ele>0.57</ele>
  <time>2026-09-01T01:18:29Z</time>
  <course>187.14</course>
  <speed>0.0</speed>
  <fix>3d</fix>
</trkpt>
<trkpt lat="33.810246" lon="-118.3938896">
  <ele>2.44</ele>
  <time>2026-09-01T01:18:29Z</time>
  <course>156.79</course>
  <speed>0.03</speed>
  <fix>3d</fix>
</trkpt>
<trkpt lat="33.8102478" lon="-118.3938794">
  <ele>0.568</ele>
  <time>2026-09-01T01:18:29Z</time>
  <course>187.16</course>
  <speed>0.01</speed>
  <fix>3d</fix>
</trkpt>
<trkpt lat="33.810246" lon="-118.3938896">
  <ele>2.44</ele>
  <time>2026-09-01T01:18:29Z</time>
  <course>156.79</course>
  <speed>0.03</speed>
  <fix>3d</fix>
</trkpt>
<trkpt lat="33.8102478" lon="-118.3938795">
  <ele>0.565</ele>
  <time>2026-09-01T01:18:29Z</time>
  <course>187.14</course>
  <speed>0.01</speed>
  <fix>3d</fix>
</trkpt>
<trkpt lat="33.8102451" lon="-118.3938915">
  <ele>2.44</ele>
  <time>2026-09-01T01:18:29Z</time>
  <course>143.87</course>
  <speed>0.04</speed>
  <fix>3d</fix>
</trkpt>
<trkpt lat="33.8102478" lon="-118.3938795">
  <ele>0.562</ele>
  <time>2026-09-01T01:18:29Z</time>
  <course>187.13</course>
  <speed>0.022360679774997897</speed>
  <fix>3d</fix>
</trkpt>
<trkpt lat="33.8102451" lon="-118.3938915">
  <ele>2.44</ele>
  <time>2026-09-01T01:18:29Z</time>
  <course>143.87</course>
  <speed>0.04</speed>
  <fix>3d</fix>
</trkpt>
<trkpt lat="33.8102478" lon="-118.3938795">
  <ele>0.561</ele>
  <time>2026-09-01T01:18:29Z</time>
  <course>187.14</course>
  <speed>0.0316227766016838</speed>
  <fix>3d</fix>
</trkpt>
<trkpt lat="33.810244" lon="-118.3938933">
  <ele>2.44</ele>
  <time>2026-09-01T01:18:29Z</time>
  <course>122.48</course>
  <speed>0.04</speed>
  <fix>3d</fix>
</trkpt>
<trkpt lat="33.8102478" lon="-118.3938796">
  <ele>0.56</ele>
  <time>2026-09-01T01:18:29Z</time>
  <course>187.14</course>
  <speed>0.044721359549995794</speed>
  <fix>3d</fix>
</trkpt>
<trkpt lat="33.810244" lon="-118.3938933">
  <ele>2.44</ele>
  <time>2026-09-01T01:18:29Z</time>
  <course>122.48</course>
  <speed>0.04</speed>
  <fix>3d</fix>
</trkpt>
<trkpt lat="33.8102477" lon="-118.3938796">
  <ele>0.559</ele>
  <time>2026-09-01T01:18:29Z</time>
  <course>187.14</course>
  <speed>0.053851648071345036</speed>
  <fix>3d</fix>
</trkpt>
<trkpt lat="33.8102428" lon="-118.3938948">
  <ele>2.44</ele>
  <time>2026-09-01T01:18:29Z</time>
  <course>104.0</course>
  <speed>0.05</speed>
  <fix>3d</fix>
</trkpt>
<trkpt lat="33.8102477" lon="-118.3938797">
  <ele>0.56</ele>
  <time>2026-09-01T01:18:29Z</time>
  <course>187.14</course>
  <speed>0.0670820393249937</speed>
  <fix>3d</fix>
</trkpt>
<trkpt lat="33.8102428" lon="-118.3938948">
  <ele>2.44</ele>
  <time>2026-09-01T01:18:29Z</time>
  <course>104.0</course>
  <speed>0.05</speed>
  <fix>3d</fix>
</trkpt>
<trkpt lat="33.8102477" lon="-118.3938797">
  <ele>0.56</ele>
  <time>2026-09-01T01:18:29Z</time>
  <course>187.15</course>
  <speed>0.07211102550927978</speed>
  <fix>3d</fix>
</trkpt>
<trkpt lat="33.8102415" lon="-118.3938962">
  <ele>2.44</ele>
  <time>2026-09-01T01:18:29Z</time>
  <course>91.57</course>
  <speed>0.07</speed>
  <fix>3d</fix>
</trkpt>
<trkpt lat="33.8102476" lon="-118.3938798">
  <ele>0.56</ele>
  <time>2026-09-01T01:18:29Z</time>
  <course>187.15</course>
  <speed>0.08062257748298549</speed>
  <fix>3d</fix>
</trkpt>
<trkpt lat="33.8102415" lon="-118.3938962">
  <ele>2.44</ele>
  <time>2026-09-01T01:18:29Z</time>
  <course>91.57</course>
  <speed>0.07</speed>
  <fix>3d</fix>
</trkpt>
<trkpt lat="33.8102476" lon="-118.3938799">
  <ele>0.561</ele>
  <time>2026-09-01T01:18:29Z</time>
  <course>187.15</course>
  <speed>0.09433981132056603</speed>
  <fix>3d</fix>
</trkpt>
<trkpt lat="33.8102401" lon="-118.3938973">
  <ele>2.45</ele>
  <time>2026-09-01T01:18:29Z</time>
  <course>83.85</course>
  <speed>0.09</speed>
  <fix>3d</fix>
</trkpt>
<trkpt lat="33.8102476" lon="-118.3938799">
  <ele>0.563</ele>
  <time>2026-09-01T01:18:29Z</time>
  <course>187.15</course>
  <speed>0.1</speed>
  <fix>3d</fix>
</trkpt>
<trkpt lat="33.8102401" lon="-118.3938973">
  <ele>2.45</ele>
  <time>2026-09-01T01:18:29Z</time>
  <course>83.85</course>
  <speed>0.09</speed>
  <fix>3d</fix>
</trkpt>
<trkpt lat="33.8102476" lon="-118.3938799">
  <ele>0.565</ele>
  <time>2026-09-01T01:18:29Z</time>
  <course>187.15</course>
  <speed>0.10816653826391968</speed>
  <fix>3d</fix>
</trkpt>
<trkpt lat="33.8102386" lon="-118.3938983">
  <ele>2.45</ele>
  <time>2026-09-01T01:18:29Z</time>
  <course>77.62</course>
  <speed>0.1</speed>
  <fix>3d</fix>
</trkpt>
<trkpt lat="33.8102476" lon="-118.3938799">
  <ele>0.566</ele>
  <time>2026-09-01T01:18:29Z</time>
  <course>187.15</course>
  <speed>0.11401754250991379</speed>
  <fix>3d</fix>
</trkpt>
<trkpt lat="33.8102386" lon="-118.3938983">
  <ele>2.45</ele>
  <time>2026-09-01T01:18:29Z</time>
  <course>77.62</course>
  <speed>0.1</speed>
  <fix>3d</fix>
</trkpt>
<trkpt lat="33.8102476" lon="-118.3938799">
  <ele>0.567</ele>
  <time>2026-09-01T01:18:29Z</time>
  <course>187.15</course>
  <speed>0.12041594578792296</speed>
  <fix>3d</fix>
</trkpt>
<trkpt lat="33.810237" lon="-118.393899">
  <ele>2.45</ele>
  <time>2026-09-01T01:18:29Z</time>
  <course>71.73</course>
  <speed>0.11</speed>
  <fix>3d</fix>
</trkpt>
<trkpt lat="33.8102476" lon="-118.3938799">
  <ele>0.565</ele>
  <time>2026-09-01T01:18:29Z</time>
  <course>187.15</course>
  <speed>0.12806248474865697</speed>
  <fix>3d</fix>
</trkpt>
<trkpt lat="33.810237" lon="-118.393899">
  <ele>2.45</ele>
  <time>2026-09-01T01:18:29Z</time>
  <course>71.73</course>
  <speed>0.11</speed>
  <fix>3d</fix>
</trkpt>
<trkpt lat="33.8102475" lon="-118.3938799">
  <ele>0.563</ele>
  <time>2026-09-01T01:18:29Z</time>
  <course>187.17</course>
  <speed>0.1345362404707371</speed>
  <fix>3d</fix>
</trkpt>
<trkpt lat="33.8102354" lon="-118.3938996">
  <ele>2.45</ele>
  <time>2026-09-01T01:18:29Z</time>
  <course>66.99</course>
  <speed>0.13</speed>
  <fix>3d</fix>
</trkpt>
<trkpt lat="33.8102475" lon="-118.3938799">
  <ele>0.562</ele>
  <time>2026-09-01T01:18:29Z</time>
  <course>187.2</course>
  <speed>0.1414213562373095</speed>
  <fix>3d</fix>
</trkpt>
<trkpt lat="33.8102354" lon="-118.3938996">
  <ele>2.45</ele>
  <time>2026-09-01T01:18:29Z</time>
  <course>66.99</course>
  <speed>0.13</speed>
  <fix>3d</fix>
</trkpt>
<trkpt lat="33.8102475" lon="-118.3938799">
  <ele>0.562</ele>
  <time>2026-09-01T01:18:29Z</time>
  <course>187.24</course>
  <speed>0.1414213562373095</speed>
  <fix>3d</fix>
</trkpt>
<trkpt lat="33.8102338" lon="-118.3938999">
  <ele>2.45</ele>
  <time>2026-09-01T01:18:29Z</time>
  <course>62.99</course>
  <speed>0.14</speed>
  <fix>3d</fix>
</trkpt>
<trkpt lat="33.8102474" lon="-118.3938799">
  <ele>0.562</ele>
  <time>2026-09-01T01:18:29Z</time>
  <course>187.28</course>
  <speed>0.15556349186104046</speed>
  <fix>3d</fix>
</trkpt>
<trkpt lat="33.8102338" lon="-118.3938999">
  <ele>2.45</ele>
  <time>2026-09-01T01:18:29Z</time>
  <course>62.99</course>
  <speed>0.14</speed>
  <fix>3d</fix>
</trkpt>
<trkpt lat="33.8102474" lon="-118.3938799">
  <ele>0.561</ele>
  <time>2026-09-01T01:18:29Z</time>
  <course>187.3</course>
  <speed>0.15556349186104046</speed>
  <fix>3d</fix>
</trkpt>
<trkpt lat="33.8102321" lon="-118.3939">
  <ele>2.44</ele>
  <time>2026-09-01T01:18:29Z</time>
  <course>59.48</course>
  <speed>0.15</speed>
  <fix>3d</fix>
</trkpt>
<trkpt lat="33.8102473" lon="-118.3938799">
  <ele>0.561</ele>
  <time>2026-09-01T01:18:29Z</time>
  <course>187.32</course>
  <speed>0.16278820596099705</speed>
  <fix>3d</fix>
</trkpt>
<trkpt lat="33.8102321" lon="-118.3939">
  <ele>2.44</ele>
  <time>2026-09-01T01:18:29Z</time>
  <course>59.48</course>
  <speed>0.15</speed>
  <fix>3d</fix>
</trkpt>
<trkpt lat="33.8102473" lon="-118.3938799">
  <ele>0.56</ele>
  <time>2026-09-01T01:18:29Z</time>
  <course>187.33</course>
  <speed>0.16278820596099705</speed>
  <fix>3d</fix>
</trkpt>
<trkpt lat="33.8102305" lon="-118.3938998">
  <ele>2.44</ele>
  <time>2026-09-01T01:18:29Z</time>
  <course>56.78</course>
  <speed>0.15</speed>
  <fix>3d</fix>
</trkpt>
<trkpt lat="33.8102473" lon="-118.3938799">
  <ele>0.558</ele>
  <time>2026-09-01T01:18:29Z</time>
  <course>187.32</course>
  <speed>0.16278820596099705</speed>
  <fix>3d</fix>
</trkpt>
<trkpt lat="33.8102305" lon="-118.3938998">
  <ele>2.44</ele>
  <time>2026-09-01T01:18:29Z</time>
  <course>56.78</course>
  <speed>0.15</speed>
  <fix>3d</fix>
</trkpt>
<trkpt lat="33.8102473" lon="-118.3938799">
  <ele>0.556</ele>
  <time>2026-09-01T01:18:29Z</time>
  <course>187.31</course>
  <speed>0.17029386365926402</speed>
  <fix>3d</fix>
</trkpt>
<trkpt lat="33.8102289" lon="-118.3938995">
  <ele>2.44</ele>
  <time>2026-09-01T01:18:29Z</time>
  <course>54.71</course>
  <speed>0.16</speed>
  <fix>3d</fix>
</trkpt>
<trkpt lat="33.8102472" lon="-118.3938798">
  <ele>0.554</ele>
  <time>2026-09-01T01:18:29Z</time>
  <course>187.3</course>
  <speed>0.17029386365926402</speed>
  <fix>3d</fix>
</trkpt>
<trkpt lat="33.8102289" lon="-118.3938995">
  <ele>2.44</ele>
  <time>2026-09-01T01:18:29Z</time>
  <course>54.71</course>
  <speed>0.16</speed>
  <fix>3d</fix>
</trkpt>
<trkpt lat="33.8102472" lon="-118.3938798">
  <ele>0.553</ele>
  <time>2026-09-01T01:18:29Z</time>
  <course>187.29</course>
  <speed>0.17029386365926402</speed>
  <fix>3d</fix>
</trkpt>
<trkpt lat="33.8102273" lon="-118.3938989">
  <ele>2.44</ele>
  <time>2026-09-01T01:18:29Z</time>
  <course>53.12</course>
  <speed>0.17</speed>
  <fix>3d</fix>
</trkpt>
<trkpt lat="33.8102472" lon="-118.3938798">
  <ele>0.554</ele>
  <time>2026-09-01T01:18:29Z</time>
  <course>187.27</course>
  <speed>0.1769180601295413</speed>
  <fix>3d</fix>
</trkpt>
<trkpt lat="33.8102273" lon="-118.3938989">
  <ele>2.44</ele>
  <time>2026-09-01T01:18:29Z</time>
  <course>53.12</course>
  <speed>0.17</speed>
  <fix>3d</fix>
</trkpt>
<trkpt lat="33.8102472" lon="-118.3938798">
  <ele>0.556</ele>
  <time>2026-09-01T01:18:29Z</time>
  <course>187.27</course>
  <speed>0.17029386365926402</speed>
  <fix>3d</fix>
</trkpt>
<trkpt lat="33.8102257" lon="-118.3938981">
  <ele>2.44</ele>
  <time>2026-09-01T01:18:29Z</time>
  <course>51.9</course>
  <speed>0.17</speed>
  <fix>3d</fix>
</trkpt>
<trkpt lat="33.8102471" lon="-118.3938797">
  <ele>0.558</ele>
  <time>2026-09-01T01:18:29Z</time>
  <course>187.25</course>
  <speed>0.18439088914585774</speed>
  <fix>3d</fix>
</trkpt>
<trkpt lat="33.8102257" lon="-118.3938981">
  <ele>2.44</ele>
  <time>2026-09-01T01:18:29Z</time>
  <course>51.9</course>
  <speed>0.17</speed>
  <fix>3d</fix>
</trkpt>
<trkpt lat="33.8102471" lon="-118.3938797">
  <ele>0.559</ele>
  <time>2026-09-01T01:18:29Z</time>
  <course>187.21</course>
  <speed>0.17804493814764857</speed>
  <fix>3d</fix>
</trkpt>
<trkpt lat="33.8102242" lon="-118.3938971">
  <ele>2.44</ele>
  <time>2026-09-01T01:18:29Z</time>
  <course>50.4</course>
  <speed>0.17</speed>
  <fix>3d</fix>
</trkpt>
<trkpt lat="33.8102471" lon="-118.3938797">
  <ele>0.56</ele>
  <time>2026-09-01T01:18:29Z</time>
  <course>187.19</course>
  <speed>0.18601075237738274</speed>
  <fix>3d</fix>
</trkpt>
<trkpt lat="33.8102242" lon="-118.3938971">
  <ele>2.44</ele>
  <time>2026-09-01T01:18:29Z</time>
  <course>50.4</course>
  <speed>0.17</speed>
  <fix>3d</fix>
</trkpt>
<trkpt lat="33.810247" lon="-118.3938796">
  <ele>0.561</ele>
  <time>2026-09-01T01:18:29Z</time>
  <course>187.18</course>
  <speed>0.18867962264113206</speed>
  <fix>3d</fix>
</trkpt>
<trkpt lat="33.8102228" lon="-118.393896">
  <ele>2.45</ele>
  <time>2026-09-01T01:18:29Z</time>
  <course>47.26</course>
  <speed>0.18</speed>
  <fix>3d</fix>
</trkpt>
<trkpt lat="33.810247" lon="-118.3938796">
  <ele>0.562</ele>
  <time>2026-09-01T01:18:29Z</time>
  <course>187.19</course>
  <speed>0.18867962264113206</speed>
  <fix>3d</fix>
</trkpt>
<trkpt lat="33.8102228" lon="-118.393896">
  <ele>2.45</ele>
  <time>2026-09-01T01:18:29Z</time>
  <course>47.26</course>
  <speed>0.18</speed>
  <fix>3d</fix>
</trkpt>
<trkpt lat="33.810247" lon="-118.3938795">
  <ele>0.563</ele>
  <time>2026-09-01T01:18:29Z</time>
  <course>187.21</course>
  <speed>0.19235384061671343</speed>
  <fix>3d</fix>
</trkpt>
<trkpt lat="33.8102214" lon="-118.3938946">
  <ele>2.44</ele>
  <time>2026-09-01T01:18:29Z</time>
  <course>42.74</course>
  <speed>0.18</speed>
  <fix>3d</fix>
</trkpt>
<trkpt lat="33.8102469" lon="-118.3938795">
  <ele>0.564</ele>
  <time>2026-09-01T01:18:29Z</time>
  <course>187.23</course>
  <speed>0.20124611797498107</speed>
  <fix>3d</fix>
</trkpt>
<trkpt lat="33.8102214" lon="-118.3938946">
  <ele>2.44</ele>
  <time>2026-09-01T01:18:29Z</time>
  <course>42.74</course>
  <speed>0.18</speed>
  <fix>3d</fix>
</trkpt>
<trkpt lat="33.8102469" lon="-118.3938795">
  <ele>0.564</ele>
  <time>2026-09-01T01:18:29Z</time>
  <course>187.23</course>
  <speed>0.19697715603592209</speed>
  <fix>3d</fix>
</trkpt>
<trkpt lat="33.8102202" lon="-118.393893">
  <ele>2.44</ele>
  <time>2026-09-01T01:18:29Z</time>
  <course>37.72</course>
  <speed>0.18</speed>
  <fix>3d</fix>
</trkpt>
<trkpt lat="33.8102469" lon="-118.3938794">
  <ele>0.563</ele>
  <time>2026-09-01T01:18:29Z</time>
  <course>187.24</course>
  <speed>0.20615528128088303</speed>
  <fix>3d</fix>
</trkpt>
<trkpt lat="33.8102202" lon="-118.393893">
  <ele>2.44</ele>
  <time>2026-09-01T01:18:29Z</time>
  <course>37.72</course>
  <speed>0.18</speed>
  <fix>3d</fix>
</trkpt>
<trkpt lat="33.8102469" lon="-118.3938794">
  <ele>0.561</ele>
  <time>2026-09-01T01:18:29Z</time>
  <course>187.23</course>
  <speed>0.20248456731316586</speed>
  <fix>3d</fix>
</trkpt>
<trkpt lat="33.8102192" lon="-118.3938914">
  <ele>2.44</ele>
  <time>2026-09-01T01:18:29Z</time>
  <course>32.6</course>
  <speed>0.18</speed>
  <fix>3d</fix>
</trkpt>
<trkpt lat="33.8102469" lon="-118.3938794">
  <ele>0.559</ele>
  <time>2026-09-01T01:18:29Z</time>
  <course>187.23</course>
  <speed>0.21189620100417092</speed>
  <fix>3d</fix>
</trkpt>
<trkpt lat="33.8102192" lon="-118.3938914">
  <ele>2.44</ele>
  <time>2026-09-01T01:18:29Z</time>
  <course>32.6</course>
  <speed>0.18</speed>
  <fix>3d</fix>
</trkpt>
<trkpt lat="33.8102468" lon="-118.3938793">
  <ele>0.557</ele>
  <time>2026-09-01T01:18:29Z</time>
  <course>187.23</course>
  <speed>0.208806130178211</speed>
  <fix>3d</fix>
</trkpt>
<trkpt lat="33.8102183" lon="-118.3938896">
  <ele>2.43</ele>
  <time>2026-09-01T01:18:29Z</time>
  <course>27.43</course>
  <speed>0.19</speed>
  <fix>3d</fix>
</trkpt>
<trkpt lat="33.8102468" lon="-118.3938793">
  <ele>0.555</ele>
  <time>2026-09-01T01:18:29Z</time>
  <course>187.22</course>
  <speed>0.215870331449229</speed>
  <fix>3d</fix>
</trkpt>
<trkpt lat="33.8102183" lon="-118.3938896">
  <ele>2.43</ele>
  <time>2026-09-01T01:18:29Z</time>
  <course>27.43</course>
  <speed>0.19</speed>
  <fix>3d</fix>
</trkpt>
<trkpt lat="33.8102468" lon="-118.3938793">
  <ele>0.555</ele>
  <time>2026-09-01T01:18:29Z</time>
  <course>187.22</course>
  <speed>0.215870331449229</speed>
  <fix>3d</fix>
</trkpt>
<trkpt lat="33.8102175" lon="-118.3938877">
  <ele>2.43</ele>
  <time>2026-09-01T01:18:29Z</time>
  <course>22.38</course>
  <speed>0.19</speed>
  <fix>3d</fix>
</trkpt>
<trkpt lat="33.8102468" lon="-118.3938792">
  <ele>0.557</ele>
  <time>2026-09-01T01:18:29Z</time>
  <course>187.22</course>
  <speed>0.223606797749979</speed>
  <fix>3d</fix>
</trkpt>
<trkpt lat="33.8102175" lon="-118.3938877">
  <ele>2.43</ele>
  <time>2026-09-01T01:18:29Z</time>
  <course>22.38</course>
  <speed>0.19</speed>
  <fix>3d</fix>
</trkpt>
<trkpt lat="33.8102468" lon="-118.3938792">
  <ele>0.559</ele>
  <time>2026-09-01T01:18:29Z</time>
  <course>187.22</course>
  <speed>0.223606797749979</speed>
  <fix>3d</fix>
</trkpt>
<trkpt lat="33.8102169" lon="-118.3938857">
  <ele>2.43</ele>
  <time>2026-09-01T01:18:29Z</time>
  <course>17.95</course>
  <speed>0.19</speed>
  <fix>3d</fix>
</trkpt>
<trkpt lat="33.8102468" lon="-118.3938792">
  <ele>0.56</ele>
  <time>2026-09-01T01:18:29Z</time>
  <course>187.23</course>
  <speed>0.2220360331117452</speed>
  <fix>3d</fix>
</trkpt>
<trkpt lat="33.8102169" lon="-118.3938857">
  <ele>2.43</ele>
  <time>2026-09-01T01:18:29Z</time>
  <course>17.95</course>
  <speed>0.19</speed>
  <fix>3d</fix>
</trkpt>
<trkpt lat="33.8102468" lon="-118.3938792">
  <ele>0.56</ele>
  <time>2026-09-01T01:18:29Z</time>
  <course>187.23</course>
  <speed>0.22090722034374521</speed>
  <fix>3d</fix>
</trkpt>
<trkpt lat="33.8102165" lon="-118.3938836">
  <ele>2.43</ele>
  <time>2026-09-01T01:18:29Z</time>
  <course>13.93</course>
  <speed>0.2</speed>
  <fix>3d</fix>
</trkpt>
<trkpt lat="33.8102468" lon="-118.3938791">
  <ele>0.559</ele>
  <time>2026-09-01T01:18:29Z</time>
  <course>187.23</course>
  <speed>0.2308679276123039</speed>
  <fix>3d</fix>
</trkpt>
<trkpt lat="33.8102165" lon="-118.3938836">
  <ele>2.43</ele>
  <time>2026-09-01T01:18:29Z</time>
  <course>13.93</course>
  <speed>0.2</speed>
  <fix>3d</fix>
</trkpt>
<trkpt lat="33.8102468" lon="-118.3938791">
  <ele>0.558</ele>
  <time>2026-09-01T01:18:29Z</time>
  <course>187.23</course>
  <speed>0.23021728866442676</speed>
  <fix>3d</fix>
</trkpt>
<trkpt lat="33.8102162" lon="-118.3938815">
  <ele>2.43</ele>
  <time>2026-09-01T01:18:29Z</time>
  <course>10.06</course>
  <speed>0.2</speed>
  <fix>3d</fix>
</trkpt>
<trkpt lat="33.8102468" lon="-118.393879">
  <ele>0.556</ele>
  <time>2026-09-01T01:18:29Z</time>
  <course>187.23</course>
  <speed>0.23021728866442676</speed>
  <fix>3d</fix>
</trkpt>
<trkpt lat="33.8102162" lon="-118.3938815">
  <ele>2.43</ele>
  <time>2026-09-01T01:18:29Z</time>
  <course>10.06</course>
  <speed>0.2</speed>
  <fix>3d</fix>
</trkpt>
<trkpt lat="33.8102468" lon="-118.393879">
  <ele>0.555</ele>
  <time>2026-09-01T01:18:29Z</time>
  <course>187.23</course>
  <speed>0.23</speed>
  <fix>3d</fix>
</trkpt>
<trkpt lat="33.8102162" lon="-118.3938793">
  <ele>2.42</ele>
  <time>2026-09-01T01:18:29Z</time>
  <course>6.48</course>
  <speed>0.2</speed>
  <fix>3d</fix>
</trkpt>
<trkpt lat="33.8102468" lon="-118.393879">
  <ele>0.555</ele>
  <time>2026-09-01T01:18:29Z</time>
  <course>187.23</course>
  <speed>0.23</speed>
  <fix>3d</fix>
</trkpt>
<trkpt lat="33.8102162" lon="-118.3938793">
  <ele>2.42</ele>
  <time>2026-09-01T01:18:29Z</time>
  <course>6.48</course>
  <speed>0.2</speed>
  <fix>3d</fix>
</trkpt>
<trkpt lat="33.8102468" lon="-118.393879">
  <ele>0.556</ele>
  <time>2026-09-01T01:18:29Z</time>
  <course>187.23</course>
  <speed>0.23</speed>
  <fix>3d</fix>
</trkpt>
<trkpt lat="33.8102163" lon="-118.3938772">
  <ele>2.42</ele>
  <time>2026-09-01T01:18:29Z</time>
  <course>3.34</course>
  <speed>0.2</speed>
  <fix>3d</fix>
</trkpt>
<trkpt lat="33.8102469" lon="-118.393879">
  <ele>0.557</ele>
  <time>2026-09-01T01:18:29Z</time>
  <course>187.24</course>
  <speed>0.23</speed>
  <fix>3d</fix>
</trkpt>
<trkpt lat="33.8102163" lon="-118.3938772">
  <ele>2.42</ele>
  <time>2026-09-01T01:18:29Z</time>
  <course>3.34</course>
  <speed>0.2</speed>
  <fix>3d</fix>
</trkpt>
<trkpt lat="33.8102469" lon="-118.393879">
  <ele>0.556</ele>
  <time>2026-09-01T01:18:29Z</time>
  <course>187.24</course>
  <speed>0.23021728866442676</speed>
  <fix>3d</fix>
</trkpt>
<trkpt lat="33.8102166" lon="-118.393875">
  <ele>2.42</ele>
  <time>2026-09-01T01:18:29Z</time>
  <course>0.59</course>
  <speed>0.2</speed>
  <fix>3d</fix>
</trkpt>
<trkpt lat="33.8102469" lon="-118.393879">
  <ele>0.555</ele>
  <time>2026-09-01T01:18:29Z</time>
  <course>187.24</course>
  <speed>0.23021728866442676</speed>
  <fix>3d</fix>
</trkpt>
<trkpt lat="33.8102166" lon="-118.393875">
  <ele>2.42</ele>
  <time>2026-09-01T01:18:29Z</time>
  <course>0.59</course>
  <speed>0.2</speed>
  <fix>3d</fix>
</trkpt>
<trkpt lat="33.8102469" lon="-118.3938789">
  <ele>0.555</ele>
  <time>2026-09-01T01:18:29Z</time>
  <course>187.24</course>
  <speed>0.22090722034374521</speed>
  <fix>3d</fix>
</trkpt>
<trkpt lat="33.810217" lon="-118.3938728">
  <ele>2.42</ele>
  <time>2026-09-01T01:18:29Z</time>
  <course>357.99</course>
  <speed>0.2</speed>
  <fix>3d</fix>
</trkpt>
<trkpt lat="33.8102469" lon="-118.3938789">
  <ele>0.555</ele>
  <time>2026-09-01T01:18:29Z</time>
  <course>187.24</course>
  <speed>0.2308679276123039</speed>
  <fix>3d</fix>
</trkpt>
<trkpt lat="33.810217" lon="-118.3938728">
  <ele>2.42</ele>
  <time>2026-09-01T01:18:29Z</time>
  <course>357.99</course>
  <speed>0.2</speed>
  <fix>3d</fix>
</trkpt>
<trkpt lat="33.8102469" lon="-118.3938789">
  <ele>0.556</ele>
  <time>2026-09-01T01:18:29Z</time>
  <course>187.25</course>
  <speed>0.2220360331117452</speed>
  <fix>3d</fix>
</trkpt>
<trkpt lat="33.8102177" lon="-118.3938707">
  <ele>2.42</ele>
  <time>2026-09-01T01:18:29Z</time>
  <course>355.33</course>
  <speed>0.2</speed>
  <fix>3d</fix>
</trkpt>
<trkpt lat="33.810247" lon="-118.3938788">
  <ele>0.557</ele>
  <time>2026-09-01T01:18:29Z</time>
  <course>187.27</course>
  <speed>0.2220360331117452</speed>
  <fix>3d</fix>
</trkpt>
<trkpt lat="33.8102177" lon="-118.3938707">
  <ele>2.42</ele>
  <time>2026-09-01T01:18:29Z</time>
  <course>355.33</course>
  <speed>0.2</speed>
  <fix>3d</fix>
</trkpt>
<trkpt lat="33.810247" lon="-118.3938787">
  <ele>0.558</ele>
  <time>2026-09-01T01:18:29Z</time>
  <course>187.28</course>
  <speed>0.223606797749979</speed>
  <fix>3d</fix>
</trkpt>
<trkpt lat="33.8102185" lon="-118.3938686">
  <ele>2.42</ele>
  <time>2026-09-01T01:18:29Z</time>
  <course>352.49</course>
  <speed>0.19</speed>
  <fix>3d</fix>
</trkpt>
<trkpt lat="33.810247" lon="-118.3938787">
  <ele>0.558</ele>
  <time>2026-09-01T01:18:29Z</time>
  <course>187.28</course>
  <speed>0.223606797749979</speed>
  <fix>3d</fix>
</trkpt>
<trkpt lat="33.8102185" lon="-118.3938686">
  <ele>2.42</ele>
  <time>2026-09-01T01:18:29Z</time>
  <course>352.49</course>
  <speed>0.19</speed>
  <fix>3d</fix>
</trkpt>
<trkpt lat="33.810247" lon="-118.3938787">
  <ele>0.557</ele>
  <time>2026-09-01T01:18:29Z</time>
  <course>187.28</course>
  <speed>0.21377558326431947</speed>
  <fix>3d</fix>
</trkpt>
<trkpt lat="33.8102195" lon="-118.3938666">
  <ele>2.42</ele>
  <time>2026-09-01T01:18:29Z</time>
  <course>349.4</course>
  <speed>0.19</speed>
  <fix>3d</fix>
</trkpt>
<trkpt lat="33.8102471" lon="-118.3938787">
  <ele>0.555</ele>
  <time>2026-09-01T01:18:29Z</time>
  <course>187.28</course>
  <speed>0.215870331449229</speed>
  <fix>3d</fix>
</trkpt>
<trkpt lat="33.8102195" lon="-118.3938666">
  <ele>2.42</ele>
  <time>2026-09-01T01:18:29Z</time>
  <course>349.4</course>
  <speed>0.19</speed>
  <fix>3d</fix>
</trkpt>
<trkpt lat="33.8102471" lon="-118.3938787">
  <ele>0.555</ele>
  <time>2026-09-01T01:18:29Z</time>
  <course>187.28</course>
  <speed>0.20615528128088303</speed>
  <fix>3d</fix>
</trkpt>
<trkpt lat="33.8102206" lon="-118.3938648">
  <ele>2.41</ele>
  <time>2026-09-01T01:18:29Z</time>
  <course>346.19</course>
  <speed>0.19</speed>
  <fix>3d</fix>
</trkpt>
<trkpt lat="33.8102471" lon="-118.3938787">
  <ele>0.555</ele>
  <time>2026-09-01T01:18:29Z</time>
  <course>187.29</course>
  <speed>0.208806130178211</speed>
  <fix>3d</fix>
</trkpt>
<trkpt lat="33.8102206" lon="-118.3938648">
  <ele>2.41</ele>
  <time>2026-09-01T01:18:29Z</time>
  <course>346.19</course>
  <speed>0.19</speed>
  <fix>3d</fix>
</trkpt>
<trkpt lat="33.8102471" lon="-118.3938787">
  <ele>0.557</ele>
  <time>2026-09-01T01:18:29Z</time>
  <course>187.28</course>
  <speed>0.208806130178211</speed>
  <fix>3d</fix>
</trkpt>
<trkpt lat="33.8102219" lon="-118.3938631">
  <ele>2.41</ele>
  <time>2026-09-01T01:18:29Z</time>
  <course>342.98</course>
  <speed>0.18</speed>
  <fix>3d</fix>
</trkpt>
<trkpt lat="33.8102472" lon="-118.3938787">
  <ele>0.56</ele>
  <time>2026-09-01T01:18:29Z</time>
  <course>187.26</course>
  <speed>0.20248456731316586</speed>
  <fix>3d</fix>
</trkpt>
<trkpt lat="33.8102219" lon="-118.3938631">
  <ele>2.41</ele>
  <time>2026-09-01T01:18:29Z</time>
  <course>342.98</course>
  <speed>0.18</speed>
  <fix>3d</fix>
</trkpt>
<trkpt lat="33.8102472" lon="-118.3938787">
  <ele>0.562</ele>
  <time>2026-09-01T01:18:29Z</time>
  <course>187.23</course>
  <speed>0.20248456731316586</speed>
  <fix>3d</fix>
</trkpt>
<trkpt lat="33.8102233" lon="-118.3938615">
  <ele>2.41</ele>
  <time>2026-09-01T01:18:29Z</time>
  <course>339.69</course>
  <speed>0.18</speed>
  <fix>3d</fix>
</trkpt>
<trkpt lat="33.8102472" lon="-118.3938786">
  <ele>0.562</ele>
  <time>2026-09-01T01:18:29Z</time>
  <course>187.2</course>
  <speed>0.20248456731316586</speed>
  <fix>3d</fix>
</trkpt>
<trkpt lat="33.8102233" lon="-118.3938615">
  <ele>2.41</ele>
  <time>2026-09-01T01:18:29Z</time>
  <course>339.69</course>
  <speed>0.18</speed>
  <fix>3d</fix>
</trkpt>
<trkpt lat="33.8102472" lon="-118.3938786">
  <ele>0.562</ele>
  <time>2026-09-01T01:18:29Z</time>
  <course>187.18</course>
  <speed>0.19697715603592209</speed>
  <fix>3d</fix>
</trkpt>
<trkpt lat="33.8102248" lon="-118.39386">
  <ele>2.41</ele>
  <time>2026-09-01T01:18:29Z</time>
  <course>336.68</course>
  <speed>0.17</speed>
  <fix>3d</fix>
</trkpt>
<trkpt lat="33.8102473" lon="-118.3938785">
  <ele>0.562</ele>
  <time>2026-09-01T01:18:29Z</time>
  <course>187.17</course>
  <speed>0.19697715603592209</speed>
  <fix>3d</fix>
</trkpt>
<trkpt lat="33.8102248" lon="-118.39386">
  <ele>2.41</ele>
  <time>2026-09-01T01:18:29Z</time>
  <course>336.68</course>
  <speed>0.17</speed>
  <fix>3d</fix>
</trkpt>
<trkpt lat="33.8102473" lon="-118.3938785">
  <ele>0.561</ele>
  <time>2026-09-01T01:18:29Z</time>
  <course>187.16</course>
  <speed>0.19697715603592209</speed>
  <fix>3d</fix>
</trkpt>
<trkpt lat="33.8102264" lon="-118.3938588">
  <ele>2.41</ele>
  <time>2026-09-01T01:18:29Z</time>
  <course>334.33</course>
  <speed>0.17</speed>
  <fix>3d</fix>
</trkpt>
<trkpt lat="33.8102473" lon="-118.3938785">
  <ele>0.56</ele>
  <time>2026-09-01T01:18:29Z</time>
  <course>187.17</course>
  <speed>0.19697715603592209</speed>
  <fix>3d</fix>
</trkpt>
<trkpt lat="33.8102264" lon="-118.3938588">
  <ele>2.41</ele>
  <time>2026-09-01T01:18:29Z</time>
  <course>334.33</course>
  <speed>0.17</speed>
  <fix>3d</fix>
</trkpt>
<trkpt lat="33.8102474" lon="-118.3938785">
  <ele>0.558</ele>
  <time>2026-09-01T01:18:29Z</time>
  <course>187.18</course>
  <speed>0.18788294228055935</speed>
  <fix>3d</fix>
</trkpt>
<trkpt lat="33.8102282" lon="-118.3938577">
  <ele>2.4</ele>
  <time>2026-09-01T01:18:29Z</time>
  <course>332.52</course>
  <speed>0.16</speed>
  <fix>3d</fix>
</trkpt>
<trkpt lat="33.8102474" lon="-118.3938785">
  <ele>0.556</ele>
  <time>2026-09-01T01:18:29Z</time>
  <course>187.19</course>
  <speed>0.18788294228055935</speed>
  <fix>3d</fix>
</trkpt>
<trkpt lat="33.8102282" lon="-118.3938577">
  <ele>2.4</ele>
  <time>2026-09-01T01:18:29Z</time>
  <course>332.52</course>
  <speed>0.16</speed>
  <fix>3d</fix>
</trkpt>
<trkpt lat="33.8102474" lon="-118.3938784">
  <ele>0.554</ele>
  <time>2026-09-01T01:18:29Z</time>
  <course>187.2</course>
  <speed>0.17888543819998318</speed>
  <fix>3d</fix>
</trkpt>
<trkpt lat="33.81023" lon="-118.3938568">
  <ele>2.4</ele>
  <time>2026-09-01T01:18:29Z</time>
  <course>331.21</course>
  <speed>0.16</speed>
  <fix>3d</fix>
</trkpt>
<trkpt lat="33.8102475" lon="-118.3938784">
  <ele>0.553</ele>
  <time>2026-09-01T01:18:29Z</time>
  <course>187.21</course>
  <speed>0.17888543819998318</speed>
  <fix>3d</fix>
</trkpt>
<trkpt lat="33.81023" lon="-118.3938568">
  <ele>2.4</ele>
  <time>2026-09-01T01:18:29Z</time>
  <course>331.21</course>
  <speed>0.16</speed>
  <fix>3d</fix>
</trkpt>
<trkpt lat="33.8102475" lon="-118.3938784">
  <ele>0.552</ele>
  <time>2026-09-01T01:18:29Z</time>
  <course>187.21</course>
  <speed>0.17888543819998318</speed>
  <fix>3d</fix>
</trkpt>
<trkpt lat="33.8102319" lon="-118.3938561">
  <ele>2.39</ele>
  <time>2026-09-01T01:18:29Z</time>
  <course>330.23</course>
  <speed>0.15</speed>
  <fix>3d</fix>
</trkpt>
<trkpt lat="33.8102475" lon="-118.3938784">
  <ele>0.552</ele>
  <time>2026-09-01T01:18:29Z</time>
  <course>187.22</course>
  <speed>0.17888543819998318</speed>
  <fix>3d</fix>
</trkpt>
<trkpt lat="33.8102319" lon="-118.3938561">
  <ele>2.39</ele>
  <time>2026-09-01T01:18:29Z</time>
  <course>330.23</course>
  <speed>0.15</speed>
  <fix>3d</fix>
</trkpt>
<trkpt lat="33.8102476" lon="-118.3938783">
  <ele>0.551</ele>
  <time>2026-09-01T01:18:29Z</time>
  <course>187.28</course>
  <speed>0.17</speed>
  <fix>3d</fix>
</trkpt>
<trkpt lat="33.8102339" lon="-118.3938556">
  <ele>2.39</ele>
  <time>2026-09-01T01:18:29Z</time>
  <course>329.21</course>
  <speed>0.14</speed>
  <fix>3d</fix>
</trkpt>
<trkpt lat="33.8102476" lon="-118.3938783">
  <ele>0.552</ele>
  <time>2026-09-01T01:18:29Z</time>
  <course>187.31</course>
  <speed>0.16124515496597097</speed>
  <fix>3d</fix>
</trkpt>
<trkpt lat="33.8102339" lon="-118.3938556">
  <ele>2.39</ele>
  <time>2026-09-01T01:18:29Z</time>
  <course>329.21</course>
  <speed>0.14</speed>
  <fix>3d</fix>
</trkpt>
<trkpt lat="33.8102477" lon="-118.3938783">
  <ele>0.552</ele>
  <time>2026-09-01T01:18:29Z</time>
  <course>187.31</course>
  <speed>0.15811388300841897</speed>
  <fix>3d</fix>
</trkpt>
<trkpt lat="33.8102358" lon="-118.3938553">
  <ele>2.4</ele>
  <time>2026-09-01T01:18:29Z</time>
  <course>326.25</course>
  <speed>0.14</speed>
  <fix>3d</fix>
</trkpt>
<trkpt lat="33.8102477" lon="-118.3938783">
  <ele>0.554</ele>
  <time>2026-09-01T01:18:29Z</time>
  <course>187.3</course>
  <speed>0.15811388300841897</speed>
  <fix>3d</fix>
</trkpt>
<trkpt lat="33.8102358" lon="-118.3938553">
  <ele>2.4</ele>
  <time>2026-09-01T01:18:29Z</time>
  <course>326.25</course>
  <speed>0.14</speed>
  <fix>3d</fix>
</trkpt>
<trkpt lat="33.8102477" lon="-118.3938782">
  <ele>0.556</ele>
  <time>2026-09-01T01:18:29Z</time>
  <course>187.28</course>
  <speed>0.15</speed>
  <fix>3d</fix>
</trkpt>
<trkpt lat="33.8102378" lon="-118.3938552">
  <ele>2.39</ele>
  <time>2026-09-01T01:18:29Z</time>
  <course>320.79</course>
  <speed>0.13</speed>
  <fix>3d</fix>
</trkpt>
<trkpt lat="33.8102478" lon="-118.3938782">
  <ele>0.557</ele>
  <time>2026-09-01T01:18:29Z</time>
  <course>187.27</course>
  <speed>0.14866068747318506</speed>
  <fix>3d</fix>
</trkpt>
<trkpt lat="33.8102378" lon="-118.3938552">
  <ele>2.39</ele>
  <time>2026-09-01T01:18:29Z</time>
  <course>320.79</course>
  <speed>0.13</speed>
  <fix>3d</fix>
</trkpt>
<trkpt lat="33.8102478" lon="-118.3938782">
  <ele>0.557</ele>
  <time>2026-09-01T01:18:29Z</time>
  <course>187.26</course>
  <speed>0.14866068747318506</speed>
  <fix>3d</fix>
</trkpt>
<trkpt lat="33.8102398" lon="-118.3938553">
  <ele>2.4</ele>
  <time>2026-09-01T01:18:29Z</time>
  <course>314.29</course>
  <speed>0.12</speed>
  <fix>3d</fix>
</trkpt>
<trkpt lat="33.8102478" lon="-118.3938782">
  <ele>0.557</ele>
  <time>2026-09-01T01:18:30Z</time>
  <course>187.25</course>
  <speed>0.1414213562373095</speed>
  <fix>3d</fix>
</trkpt>
<trkpt lat="33.8102398" lon="-118.3938553">
  <ele>2.4</ele>
  <time>2026-09-01T01:18:30Z</time>
  <course>314.29</course>
  <speed>0.12</speed>
  <fix>3d</fix>
</trkpt>
<trkpt lat="33.8102479" lon="-118.3938782">
  <ele>0.557</ele>
  <time>2026-09-01T01:18:30Z</time>
  <course>187.25</course>
  <speed>0.1345362404707371</speed>
  <fix>3d</fix>
</trkpt>
<trkpt lat="33.8102417" lon="-118.3938557">
  <ele>2.4</ele>
  <time>2026-09-01T01:18:30Z</time>
  <course>307.19</course>
  <speed>0.12</speed>
  <fix>3d</fix>
</trkpt>
<trkpt lat="33.810248" lon="-118.3938782">
  <ele>0.558</ele>
  <time>2026-09-01T01:18:30Z</time>
  <course>187.27</course>
  <speed>0.13601470508735444</speed>
  <fix>3d</fix>
</trkpt>
<trkpt lat="33.8102417" lon="-118.3938557">
  <ele>2.4</ele>
  <time>2026-09-01T01:18:30Z</time>
  <course>307.19</course>
  <speed>0.12</speed>
  <fix>3d</fix>
</trkpt>
<trkpt lat="33.810248" lon="-118.3938782">
  <ele>0.558</ele>
  <time>2026-09-01T01:18:30Z</time>
  <course>187.29</course>
  <speed>0.13601470508735444</speed>
  <fix>3d</fix>
</trkpt>
<trkpt lat="33.8102436" lon="-118.3938564">
  <ele>2.4</ele>
  <time>2026-09-01T01:18:30Z</time>
  <course>299.82</course>
  <speed>0.11</speed>
  <fix>3d</fix>
</trkpt>
<trkpt lat="33.810248" lon="-118.3938782">
  <ele>0.559</ele>
  <time>2026-09-01T01:18:30Z</time>
  <course>187.31</course>
  <speed>0.130384048104053</speed>
  <fix>3d</fix>
</trkpt>
<trkpt lat="33.8102436" lon="-118.3938564">
  <ele>2.4</ele>
  <time>2026-09-01T01:18:30Z</time>
  <course>299.82</course>
  <speed>0.11</speed>
  <fix>3d</fix>
</trkpt>
<trkpt lat="33.810248" lon="-118.3938782">
  <ele>0.561</ele>
  <time>2026-09-01T01:18:30Z</time>
  <course>187.31</course>
  <speed>0.130384048104053</speed>
  <fix>3d</fix>
</trkpt>
<trkpt lat="33.8102454" lon="-118.3938572">
  <ele>2.4</ele>
  <time>2026-09-01T01:18:30Z</time>
  <course>292.83</course>
  <speed>0.11</speed>
  <fix>3d</fix>
</trkpt>
<trkpt lat="33.810248" lon="-118.3938782">
  <ele>0.561</ele>
  <time>2026-09-01T01:18:30Z</time>
  <course>187.32</course>
  <speed>0.12529964086141668</speed>
  <fix>3d</fix>
</trkpt>
<trkpt lat="33.8102454" lon="-118.3938572">
  <ele>2.4</ele>
  <time>2026-09-01T01:18:30Z</time>
  <course>292.83</course>
  <speed>0.11</speed>
  <fix>3d</fix>
</trkpt>
<trkpt lat="33.810248" lon="-118.3938782">
  <ele>0.562</ele>
  <time>2026-09-01T01:18:30Z</time>
  <course>187.33</course>
  <speed>0.12083045973594572</speed>
  <fix>3d</fix>
</trkpt>
<trkpt lat="33.8102471" lon="-118.3938583">
  <ele>2.39</ele>
  <time>2026-09-01T01:18:30Z</time>
  <course>286.61</course>
  <speed>0.1</speed>
  <fix>3d</fix>
</trkpt>
<trkpt lat="33.810248" lon="-118.3938782">
  <ele>0.562</ele>
  <time>2026-09-01T01:18:30Z</time>
  <course>187.34</course>
  <speed>0.12083045973594572</speed>
  <fix>3d</fix>
</trkpt>
<trkpt lat="33.8102471" lon="-118.3938583">
  <ele>2.39</ele>
  <time>2026-09-01T01:18:30Z</time>
  <course>286.61</course>
  <speed>0.1</speed>
  <fix>3d</fix>
</trkpt>
<trkpt lat="33.810248" lon="-118.3938783">
  <ele>0.562</ele>
  <time>2026-09-01T01:18:30Z</time>
  <course>187.35</course>
  <speed>0.1118033988749895</speed>
  <fix>3d</fix>
</trkpt>
<trkpt lat="33.8102488" lon="-118.3938595">
  <ele>2.39</ele>
  <time>2026-09-01T01:18:30Z</time>
  <course>280.97</course>
  <speed>0.1</speed>
  <fix>3d</fix>
</trkpt>
<trkpt lat="33.8102481" lon="-118.3938783">
  <ele>0.562</ele>
  <time>2026-09-01T01:18:30Z</time>
  <course>187.35</course>
  <speed>0.10770329614269007</speed>
  <fix>3d</fix>
</trkpt>
<trkpt lat="33.8102488" lon="-118.3938595">
  <ele>2.39</ele>
  <time>2026-09-01T01:18:30Z</time>
  <course>280.97</course>
  <speed>0.1</speed>
  <fix>3d</fix>
</trkpt>
<trkpt lat="33.8102481" lon="-118.3938783">
  <ele>0.561</ele>
  <time>2026-09-01T01:18:30Z</time>
  <course>187.35</course>
  <speed>0.10770329614269007</speed>
  <fix>3d</fix>
</trkpt>
<trkpt lat="33.8102503" lon="-118.3938609">
  <ele>2.38</ele>
  <time>2026-09-01T01:18:30Z</time>
  <course>276.47</course>
  <speed>0.09</speed>
  <fix>3d</fix>
</trkpt>
<trkpt lat="33.8102481" lon="-118.3938783">
  <ele>0.559</ele>
  <time>2026-09-01T01:18:30Z</time>
  <course>187.35</course>
  <speed>0.10770329614269007</speed>
  <fix>3d</fix>
</trkpt>
<trkpt lat="33.8102503" lon="-118.3938609">
  <ele>2.38</ele>
  <time>2026-09-01T01:18:30Z</time>
  <course>276.47</course>
  <speed>0.09</speed>
  <fix>3d</fix>
</trkpt>
<trkpt lat="33.8102482" lon="-118.3938783">
  <ele>0.557</ele>
  <time>2026-09-01T01:18:30Z</time>
  <course>187.34</course>
  <speed>0.1044030650891055</speed>
  <fix>3d</fix>
</trkpt>
<trkpt lat="33.8102517" lon="-118.3938624">
  <ele>2.38</ele>
  <time>2026-09-01T01:18:30Z</time>
  <course>272.85</course>
  <speed>0.09</speed>
  <fix>3d</fix>
</trkpt>
<trkpt lat="33.8102482" lon="-118.3938784">
  <ele>0.556</ele>
  <time>2026-09-01T01:18:30Z</time>
  <course>187.34</course>
  <speed>0.1044030650891055</speed>
  <fix>3d</fix>
</trkpt>
<trkpt lat="33.8102517" lon="-118.3938624">
  <ele>2.38</ele>
  <time>2026-09-01T01:18:30Z</time>
  <course>272.85</course>
  <speed>0.09</speed>
  <fix>3d</fix>
</trkpt>
<trkpt lat="33.8102483" lon="-118.3938784">
  <ele>0.557</ele>
  <time>2026-09-01T01:18:30Z</time>
  <course>187.34</course>
  <speed>0.09486832980505139</speed>
  <fix>3d</fix>
</trkpt>
<trkpt lat="33.810253" lon="-118.3938642">
  <ele>2.37</ele>
  <time>2026-09-01T01:18:30Z</time>
  <course>269.66</course>
  <speed>0.08</speed>
  <fix>3d</fix>
</trkpt>
<trkpt lat="33.8102483" lon="-118.3938784">
  <ele>0.557</ele>
  <time>2026-09-01T01:18:30Z</time>
  <course>187.34</course>
  <speed>0.09486832980505139</speed>
  <fix>3d</fix>
</trkpt>
<trkpt lat="33.810253" lon="-118.3938642">
  <ele>2.37</ele>
  <time>2026-09-01T01:18:30Z</time>
  <course>269.66</course>
  <speed>0.08</speed>
  <fix>3d</fix>
</trkpt>
<trkpt lat="33.8102483" lon="-118.3938785">
  <ele>0.557</ele>
  <time>2026-09-01T01:18:30Z</time>
  <course>187.35</course>
  <speed>0.09486832980505139</speed>
  <fix>3d</fix>
</trkpt>
<trkpt lat="33.8102541" lon="-118.393866">
  <ele>2.37</ele>
  <time>2026-09-01T01:18:30Z</time>
  <course>267.06</course>
  <speed>0.08</speed>
  <fix>3d</fix>
</trkpt>
<trkpt lat="33.8102483" lon="-118.3938785">
  <ele>0.556</ele>
  <time>2026-09-01T01:18:30Z</time>
  <course>187.35</course>
  <speed>0.09486832980505139</speed>
  <fix>3d</fix>
</trkpt>
<trkpt lat="33.8102541" lon="-118.393866">
  <ele>2.37</ele>
  <time>2026-09-01T01:18:30Z</time>
  <course>267.06</course>
  <speed>0.08</speed>
  <fix>3d</fix>
</trkpt>
<trkpt lat="33.8102483" lon="-118.3938785">
  <ele>0.555</ele>
  <time>2026-09-01T01:18:30Z</time>
  <course>187.35</course>
  <speed>0.0854400374531753</speed>
  <fix>3d</fix>
</trkpt>
<trkpt lat="33.8102551" lon="-118.393868">
  <ele>2.37</ele>
  <time>2026-09-01T01:18:30Z</time>
  <course>264.9</course>
  <speed>0.07</speed>
  <fix>3d</fix>
</trkpt>
<trkpt lat="33.8102483" lon="-118.3938786">
  <ele>0.555</ele>
  <time>2026-09-01T01:18:30Z</time>
  <course>187.35</course>
  <speed>0.0854400374531753</speed>
  <fix>3d</fix>
</trkpt>
<trkpt lat="33.8102551" lon="-118.393868">
  <ele>2.37</ele>
  <time>2026-09-01T01:18:30Z</time>
  <course>264.9</course>
  <speed>0.07</speed>
  <fix>3d</fix>
</trkpt>
<trkpt lat="33.8102483" lon="-118.3938786">
  <ele>0.555</ele>
  <time>2026-09-01T01:18:30Z</time>
  <course>187.35</course>
  <speed>0.0824621125123532</speed>
  <fix>3d</fix>
</trkpt>
<trkpt lat="33.8102559" lon="-118.3938701">
  <ele>2.36</ele>
  <time>2026-09-01T01:18:30Z</time>
  <course>263.45</course>
  <speed>0.07</speed>
  <fix>3d</fix>
</trkpt>
<trkpt lat="33.8102483" lon="-118.3938786">
  <ele>0.556</ele>
  <time>2026-09-01T01:18:30Z</time>
  <course>187.34</course>
  <speed>0.07280109889280519</speed>
  <fix>3d</fix>
</trkpt>
<trkpt lat="33.8102559" lon="-118.3938701">
  <ele>2.36</ele>
  <time>2026-09-01T01:18:30Z</time>
  <course>263.45</course>
  <speed>0.07</speed>
  <fix>3d</fix>
</trkpt>
<trkpt lat="33.8102484" lon="-118.3938787">
  <ele>0.558</ele>
  <time>2026-09-01T01:18:30Z</time>
  <course>187.28</course>
  <speed>0.07280109889280519</speed>
  <fix>3d</fix>
</trkpt>
<trkpt lat="33.8102566" lon="-118.3938722">
  <ele>2.36</ele>
  <time>2026-09-01T01:18:30Z</time>
  <course>261.48</course>
  <speed>0.06</speed>
  <fix>3d</fix>
</trkpt>
<trkpt lat="33.8102485" lon="-118.3938787">
  <ele>0.56</ele>
  <time>2026-09-01T01:18:30Z</time>
  <course>187.22</course>
  <speed>0.06082762530298219</speed>
  <fix>3d</fix>
</trkpt>
<trkpt lat="33.8102566" lon="-118.3938722">
  <ele>2.36</ele>
  <time>2026-09-01T01:18:30Z</time>
  <course>261.48</course>
  <speed>0.06</speed>
  <fix>3d</fix>
</trkpt>
<trkpt lat="33.8102485" lon="-118.3938788">
  <ele>0.561</ele>
  <time>2026-09-01T01:18:30Z</time>
  <course>187.17</course>
  <speed>0.06082762530298219</speed>
  <fix>3d</fix>
</trkpt>
<trkpt lat="33.8102571" lon="-118.3938745">
  <ele>2.36</ele>
  <time>2026-09-01T01:18:30Z</time>
  <course>254.28</course>
  <speed>0.06</speed>
  <fix>3d</fix>
</trkpt>
<trkpt lat="33.8102485" lon="-118.3938788">
  <ele>0.561</ele>
  <time>2026-09-01T01:18:30Z</time>
  <course>187.14</course>
  <speed>0.05</speed>
  <fix>3d</fix>
</trkpt>
<trkpt lat="33.8102571" lon="-118.3938745">
  <ele>2.36</ele>
  <time>2026-09-01T01:18:30Z</time>
  <course>254.28</course>
  <speed>0.06</speed>
  <fix>3d</fix>
</trkpt>
<trkpt lat="33.8102485" lon="-118.3938788">
  <ele>0.56</ele>
  <time>2026-09-01T01:18:30Z</time>
  <course>187.12</course>
  <speed>0.05</speed>
  <fix>3d</fix>
</trkpt>
<trkpt lat="33.8102575" lon="-118.3938767">
  <ele>2.36</ele>
  <time>2026-09-01T01:18:30Z</time>
  <course>240.98</course>
  <speed>0.05</speed>
  <fix>3d</fix>
</trkpt>
<trkpt lat="33.8102485" lon="-118.3938789">
  <ele>0.558</ele>
  <time>2026-09-01T01:18:30Z</time>
  <course>187.12</course>
  <speed>0.04</speed>
  <fix>3d</fix>
</trkpt>
<trkpt lat="33.8102575" lon="-118.3938767">
  <ele>2.36</ele>
  <time>2026-09-01T01:18:30Z</time>
  <course>240.98</course>
  <speed>0.05</speed>
  <fix>3d</fix>
</trkpt>
<trkpt lat="33.8102485" lon="-118.3938789">
  <ele>0.557</ele>
  <time>2026-09-01T01:18:30Z</time>
  <course>187.15</course>
  <speed>0.04</speed>
  <fix>3d</fix>
</trkpt>
<trkpt lat="33.8102576" lon="-118.393879">
  <ele>2.35</ele>
  <time>2026-09-01T01:18:30Z</time>
  <course>225.61</course>
  <speed>0.05</speed>
  <fix>3d</fix>
</trkpt>
<trkpt lat="33.8102485" lon="-118.3938789">
  <ele>0.555</ele>
  <time>2026-09-01T01:18:30Z</time>
  <course>187.19</course>
  <speed>0.04</speed>
  <fix>3d</fix>
</trkpt>
<trkpt lat="33.8102576" lon="-118.393879">
  <ele>2.35</ele>
  <time>2026-09-01T01:18:30Z</time>
  <course>225.61</course>
  <speed>0.05</speed>
  <fix>3d</fix>
</trkpt>
<trkpt lat="33.8102485" lon="-118.393879">
  <ele>0.555</ele>
  <time>2026-09-01T01:18:30Z</time>
  <course>187.22</course>
  <speed>0.0316227766016838</speed>
  <fix>3d</fix>
</trkpt>
<trkpt lat="33.8102574" lon="-118.3938812">
  <ele>2.34</ele>
  <time>2026-09-01T01:18:30Z</time>
  <course>212.07</course>
  <speed>0.05</speed>
  <fix>3d</fix>
</trkpt>
<trkpt lat="33.8102485" lon="-118.393879">
  <ele>0.555</ele>
  <time>2026-09-01T01:18:30Z</time>
  <course>187.23</course>
  <speed>0.0316227766016838</speed>
  <fix>3d</fix>
</trkpt>
<trkpt lat="33.8102574" lon="-118.3938812">
  <ele>2.34</ele>
  <time>2026-09-01T01:18:30Z</time>
  <course>212.07</course>
  <speed>0.05</speed>
  <fix>3d</fix>
</trkpt>
<trkpt lat="33.8102485" lon="-118.3938791">
  <ele>0.555</ele>
  <time>2026-09-01T01:18:30Z</time>
  <course>187.23</course>
  <speed>0.0316227766016838</speed>
  <fix>3d</fix>
</trkpt>
<trkpt lat="33.8102571" lon="-118.3938834">
  <ele>2.34</ele>
  <time>2026-09-01T01:18:30Z</time>
  <course>202.92</course>
  <speed>0.05</speed>
  <fix>3d</fix>
</trkpt>
<trkpt lat="33.8102485" lon="-118.3938791">
  <ele>0.555</ele>
  <time>2026-09-01T01:18:30Z</time>
  <course>187.23</course>
  <speed>0.0316227766016838</speed>
  <fix>3d</fix>
</trkpt>
<trkpt lat="33.8102571" lon="-118.3938834">
  <ele>2.34</ele>
  <time>2026-09-01T01:18:30Z</time>
  <course>202.92</course>
  <speed>0.05</speed>
  <fix>3d</fix>
</trkpt>
<trkpt lat="33.8102485" lon="-118.3938791">
  <ele>0.555</ele>
  <time>2026-09-01T01:18:30Z</time>
  <course>187.23</course>
  <speed>0.0282842712474619</speed>
  <fix>3d</fix>
</trkpt>
<trkpt lat="33.8102566" lon="-118.3938855">
  <ele>2.33</ele>
  <time>2026-09-01T01:18:30Z</time>
  <course>195.89</course>
  <speed>0.05</speed>
  <fix>3d</fix>
</trkpt>
<trkpt lat="33.8102485" lon="-118.3938791">
  <ele>0.554</ele>
  <time>2026-09-01T01:18:30Z</time>
  <course>187.23</course>
  <speed>0.0282842712474619</speed>
  <fix>3d</fix>
</trkpt>
<trkpt lat="33.8102566" lon="-118.3938855">
  <ele>2.33</ele>
  <time>2026-09-01T01:18:30Z</time>
  <course>195.89</course>
  <speed>0.05</speed>
  <fix>3d</fix>
</trkpt>
<trkpt lat="33.8102485" lon="-118.3938792">
  <ele>0.554</ele>
  <time>2026-09-01T01:18:30Z</time>
  <course>187.26</course>
  <speed>0.022360679774997897</speed>
  <fix>3d</fix>
</trkpt>
<trkpt lat="33.810256" lon="-118.3938876">
  <ele>2.33</ele>
  <time>2026-09-01T01:18:30Z</time>
  <course>188.42</course>
  <speed>0.05</speed>
  <fix>3d</fix>
</trkpt>
<trkpt lat="33.8102484" lon="-118.3938792">
  <ele>0.554</ele>
  <time>2026-09-01T01:18:30Z</time>
  <course>187.3</course>
  <speed>0.022360679774997897</speed>
  <fix>3d</fix>
</trkpt>
<trkpt lat="33.810256" lon="-118.3938876">
  <ele>2.33</ele>
  <time>2026-09-01T01:18:30Z</time>
  <course>188.42</course>
  <speed>0.05</speed>
  <fix>3d</fix>
</trkpt>
<trkpt lat="33.8102484" lon="-118.3938793">
  <ele>0.554</ele>
  <time>2026-09-01T01:18:30Z</time>
  <course>187.31</course>
  <speed>0.01</speed>
  <fix>3d</fix>
</trkpt>
<trkpt lat="33.8102552" lon="-118.3938896">
  <ele>2.33</ele>
  <time>2026-09-01T01:18:30Z</time>
  <course>177.57</course>
  <speed>0.05</speed>
  <fix>3d</fix>
</trkpt>
<trkpt lat="33.8102484" lon="-118.3938793">
  <ele>0.554</ele>
  <time>2026-09-01T01:18:30Z</time>
  <course>187.3</course>
  <speed>0.01</speed>
  <fix>3d</fix>
</trkpt>
<trkpt lat="33.8102552" lon="-118.3938896">
  <ele>2.33</ele>
  <time>2026-09-01T01:18:30Z</time>
  <course>177.57</course>
  <speed>0.05</speed>
  <fix>3d</fix>
</trkpt>
<trkpt lat="33.8102484" lon="-118.3938793">
  <ele>0.554</ele>
  <time>2026-09-01T01:18:30Z</time>
  <course>187.29</course>
  <speed>0.01</speed>
  <fix>3d</fix>
</trkpt>
<trkpt lat="33.8102542" lon="-118.3938914">
  <ele>2.33</ele>
  <time>2026-09-01T01:18:30Z</time>
  <course>163.64</course>
  <speed>0.05</speed>
  <fix>3d</fix>
</trkpt>
<trkpt lat="33.8102484" lon="-118.3938793">
  <ele>0.554</ele>
  <time>2026-09-01T01:18:30Z</time>
  <course>187.28</course>
  <speed>0.01</speed>
  <fix>3d</fix>
</trkpt>
<trkpt lat="33.8102542" lon="-118.3938914">
  <ele>2.33</ele>
  <time>2026-09-01T01:18:30Z</time>
  <course>163.64</course>
  <speed>0.05</speed>
  <fix>3d</fix>
</trkpt>
<trkpt lat="33.8102483" lon="-118.3938794">
  <ele>0.555</ele>
  <time>2026-09-01T01:18:30Z</time>
  <course>187.28</course>
  <speed>0.01</speed>
  <fix>3d</fix>
</trkpt>
<trkpt lat="33.8102531" lon="-118.3938932">
  <ele>2.33</ele>
  <time>2026-09-01T01:18:30Z</time>
  <course>148.92</course>
  <speed>0.05</speed>
  <fix>3d</fix>
</trkpt>
<trkpt lat="33.8102483" lon="-118.3938795">
  <ele>0.556</ele>
  <time>2026-09-01T01:18:30Z</time>
  <course>187.29</course>
  <speed>0.02</speed>
  <fix>3d</fix>
</trkpt>
<trkpt lat="33.8102531" lon="-118.3938932">
  <ele>2.33</ele>
  <time>2026-09-01T01:18:30Z</time>
  <course>148.92</course>
  <speed>0.05</speed>
  <fix>3d</fix>
</trkpt>
<trkpt lat="33.8102483" lon="-118.3938795">
  <ele>0.557</ele>
  <time>2026-09-01T01:18:30Z</time>
  <course>187.31</course>
  <speed>0.02</speed>
  <fix>3d</fix>
</trkpt>
<trkpt lat="33.8102519" lon="-118.3938948">
  <ele>2.33</ele>
  <time>2026-09-01T01:18:30Z</time>
  <course>133.03</course>
  <speed>0.05</speed>
  <fix>3d</fix>
</trkpt>
<trkpt lat="33.8102483" lon="-118.3938795">
  <ele>0.558</ele>
  <time>2026-09-01T01:18:30Z</time>
  <course>187.33</course>
  <speed>0.0316227766016838</speed>
  <fix>3d</fix>
</trkpt>
<trkpt lat="33.8102519" lon="-118.3938948">
  <ele>2.33</ele>
  <time>2026-09-01T01:18:30Z</time>
  <course>133.03</course>
  <speed>0.05</speed>
  <fix>3d</fix>
</trkpt>
<trkpt lat="33.8102483" lon="-118.3938795">
  <ele>0.558</ele>
  <time>2026-09-01T01:18:30Z</time>
  <course>187.36</course>
  <speed>0.0316227766016838</speed>
  <fix>3d</fix>
</trkpt>
<trkpt lat="33.8102504" lon="-118.3938963">
  <ele>2.32</ele>
  <time>2026-09-01T01:18:30Z</time>
  <course>117.94</course>
  <speed>0.05</speed>
  <fix>3d</fix>
</trkpt>
<trkpt lat="33.8102483" lon="-118.3938795">
  <ele>0.558</ele>
  <time>2026-09-01T01:18:30Z</time>
  <course>187.38</course>
  <speed>0.0316227766016838</speed>
  <fix>3d</fix>
</trkpt>
<trkpt lat="33.8102504" lon="-118.3938963">
  <ele>2.32</ele>
  <time>2026-09-01T01:18:30Z</time>
  <course>117.94</course>
  <speed>0.05</speed>
  <fix>3d</fix>
</trkpt>
<trkpt lat="33.8102483" lon="-118.3938795">
  <ele>0.558</ele>
  <time>2026-09-01T01:18:30Z</time>
  <course>187.39</course>
  <speed>0.03605551275463989</speed>
  <fix>3d</fix>
</trkpt>
<trkpt lat="33.810249" lon="-118.3938974">
  <ele>2.32</ele>
  <time>2026-09-01T01:18:30Z</time>
  <course>105.8</course>
  <speed>0.05</speed>
  <fix>3d</fix>
</trkpt>
<trkpt lat="33.8102482" lon="-118.3938795">
  <ele>0.558</ele>
  <time>2026-09-01T01:18:30Z</time>
  <course>187.37</course>
  <speed>0.044721359549995794</speed>
  <fix>3d</fix>
</trkpt>
<trkpt lat="33.810249" lon="-118.3938974">
  <ele>2.32</ele>
  <time>2026-09-01T01:18:30Z</time>
  <course>105.8</course>
  <speed>0.05</speed>
  <fix>3d</fix>
</trkpt>
<trkpt lat="33.8102482" lon="-118.3938795">
  <ele>0.559</ele>
  <time>2026-09-01T01:18:30Z</time>
  <course>187.36</course>
  <speed>0.044721359549995794</speed>
  <fix>3d</fix>
</trkpt>
<trkpt lat="33.8102474" lon="-118.3938984">
  <ele>2.32</ele>
  <time>2026-09-01T01:18:30Z</time>
  <course>97.54</course>
  <speed>0.06</speed>
  <fix>3d</fix>
</trkpt>
<trkpt lat="33.8102482" lon="-118.3938795">
  <ele>0.56</ele>
  <time>2026-09-01T01:18:30Z</time>
  <course>187.32</course>
  <speed>0.05</speed>
  <fix>3d</fix>
</trkpt>
<trkpt lat="33.8102474" lon="-118.3938984">
  <ele>2.32</ele>
  <time>2026-09-01T01:18:30Z</time>
  <course>97.54</course>
  <speed>0.06</speed>
  <fix>3d</fix>
</trkpt>
<trkpt lat="33.8102482" lon="-118.3938795">
  <ele>0.56</ele>
  <time>2026-09-01T01:18:30Z</time>
  <course>187.31</course>
  <speed>0.05</speed>
  <fix>3d</fix>
</trkpt>
<trkpt lat="33.8102458" lon="-118.3938993">
  <ele>2.31</ele>
  <time>2026-09-01T01:18:30Z</time>
  <course>91.87</course>
  <speed>0.06</speed>
  <fix>3d</fix>
</trkpt>
<trkpt lat="33.8102482" lon="-118.3938795">
  <ele>0.559</ele>
  <time>2026-09-01T01:18:30Z</time>
  <course>187.32</course>
  <speed>0.05830951894845301</speed>
  <fix>3d</fix>
</trkpt>
<trkpt lat="33.8102458" lon="-118.3938993">
  <ele>2.31</ele>
  <time>2026-09-01T01:18:30Z</time>
  <course>91.87</course>
  <speed>0.06</speed>
  <fix>3d</fix>
</trkpt>
<trkpt lat="33.8102482" lon="-118.3938796">
  <ele>0.559</ele>
  <time>2026-09-01T01:18:30Z</time>
  <course>187.33</course>
  <speed>0.05</speed>
  <fix>3d</fix>
</trkpt>
<trkpt lat="33.8102442" lon="-118.3938999">
  <ele>2.31</ele>
  <time>2026-09-01T01:18:30Z</time>
  <course>86.88</course>
  <speed>0.06</speed>
  <fix>3d</fix>
</trkpt>
<trkpt lat="33.8102482" lon="-118.3938796">
  <ele>0.558</ele>
  <time>2026-09-01T01:18:30Z</time>
  <course>187.29</course>
  <speed>0.06403124237432849</speed>
  <fix>3d</fix>
</trkpt>
<trkpt lat="33.8102442" lon="-118.3938999">
  <ele>2.31</ele>
  <time>2026-09-01T01:18:30Z</time>
  <course>86.88</course>
  <speed>0.06</speed>
  <fix>3d</fix>
</trkpt>
<trkpt lat="33.8102482" lon="-118.3938796">
  <ele>0.557</ele>
  <time>2026-09-01T01:18:30Z</time>
  <course>187.29</course>
  <speed>0.06403124237432849</speed>
  <fix>3d</fix>
</trkpt>
<trkpt lat="33.8102424" lon="-118.3939003">
  <ele>2.31</ele>
  <time>2026-09-01T01:18:30Z</time>
  <course>82.58</course>
  <speed>0.07</speed>
  <fix>3d</fix>
</trkpt>
<trkpt lat="33.8102482" lon="-118.3938796">
  <ele>0.556</ele>
  <time>2026-09-01T01:18:30Z</time>
  <course>187.27</course>
  <speed>0.06403124237432849</speed>
  <fix>3d</fix>
</trkpt>
<trkpt lat="33.8102424" lon="-118.3939003">
  <ele>2.31</ele>
  <time>2026-09-01T01:18:30Z</time>
  <course>82.58</course>
  <speed>0.07</speed>
  <fix>3d</fix>
</trkpt>
<trkpt lat="33.8102482" lon="-118.3938796">
  <ele>0.556</ele>
  <time>2026-09-01T01:18:30Z</time>
  <course>187.3</course>
  <speed>0.06403124237432849</speed>
  <fix>3d</fix>
</trkpt>
<trkpt lat="33.8102406" lon="-118.3939005">
  <ele>2.3</ele>
  <time>2026-09-01T01:18:30Z</time>
  <course>79.74</course>
  <speed>0.07</speed>
  <fix>3d</fix>
</trkpt>
<trkpt lat="33.8102482" lon="-118.3938796">
  <ele>0.556</ele>
  <time>2026-09-01T01:18:30Z</time>
  <course>187.32</course>
  <speed>0.07071067811865475</speed>
  <fix>3d</fix>
</trkpt>
<trkpt lat="33.8102406" lon="-118.3939005">
  <ele>2.3</ele>
  <time>2026-09-01T01:18:30Z</time>
  <course>79.74</course>
  <speed>0.07</speed>
  <fix>3d</fix>
</trkpt>
<trkpt lat="33.8102482" lon="-118.3938796">
  <ele>0.557</ele>
  <time>2026-09-01T01:18:30Z</time>
  <course>187.35</course>
  <speed>0.07071067811865475</speed>
  <fix>3d</fix>
</trkpt>
<trkpt lat="33.8102388" lon="-118.3939004">
  <ele>2.3</ele>
  <time>2026-09-01T01:18:30Z</time>
  <course>76.76</course>
  <speed>0.07</speed>
  <fix>3d</fix>
</trkpt>
<trkpt lat="33.8102482" lon="-118.3938796">
  <ele>0.557</ele>
  <time>2026-09-01T01:18:30Z</time>
  <course>187.33</course>
  <speed>0.07071067811865475</speed>
  <fix>3d</fix>
</trkpt>
<trkpt lat="33.8102388" lon="-118.3939004">
  <ele>2.3</ele>
  <time>2026-09-01T01:18:30Z</time>
  <course>76.76</course>
  <speed>0.07</speed>
  <fix>3d</fix>
</trkpt>
<trkpt lat="33.810248" lon="-118.3938796">
  <ele>0.559</ele>
  <time>2026-09-01T01:18:30Z</time>
  <course>187.33</course>
  <speed>0.07071067811865475</speed>
  <fix>3d</fix>
</trkpt>
<trkpt lat="33.8102371" lon="-118.3939001">
  <ele>2.3</ele>
  <time>2026-09-01T01:18:30Z</time>
  <course>73.45</course>
  <speed>0.08</speed>
  <fix>3d</fix>
</trkpt>
<trkpt lat="33.810248" lon="-118.3938796">
  <ele>0.56</ele>
  <time>2026-09-01T01:18:30Z</time>
  <course>187.34</course>
  <speed>0.0848528137423857</speed>
  <fix>3d</fix>
</trkpt>
<trkpt lat="33.8102371" lon="-118.3939001">
  <ele>2.3</ele>
  <time>2026-09-01T01:18:30Z</time>
  <course>73.45</course>
  <speed>0.08</speed>
  <fix>3d</fix>
</trkpt>
<trkpt lat="33.810248" lon="-118.3938796">
  <ele>0.561</ele>
  <time>2026-09-01T01:18:30Z</time>
  <course>187.35</course>
  <speed>0.07810249675906654</speed>
  <fix>3d</fix>
</trkpt>
<trkpt lat="33.8102353" lon="-118.3938997">
  <ele>2.29</ele>
  <time>2026-09-01T01:18:30Z</time>
  <course>70.39</course>
  <speed>0.08</speed>
  <fix>3d</fix>
</trkpt>
<trkpt lat="33.810248" lon="-118.3938795">
  <ele>0.56</ele>
  <time>2026-09-01T01:18:30Z</time>
  <course>187.37</course>
  <speed>0.0848528137423857</speed>
  <fix>3d</fix>
</trkpt>
<trkpt lat="33.8102353" lon="-118.3938997">
  <ele>2.29</ele>
  <time>2026-09-01T01:18:30Z</time>
  <course>70.39</course>
  <speed>0.08</speed>
  <fix>3d</fix>
</trkpt>
<trkpt lat="33.810248" lon="-118.3938795">
  <ele>0.557</ele>
  <time>2026-09-01T01:18:30Z</time>
  <course>187.38</course>
  <speed>0.07810249675906654</speed>
  <fix>3d</fix>
</trkpt>
<trkpt lat="33.8102336" lon="-118.3938989">
  <ele>2.29</ele>
  <time>2026-09-01T01:18:30Z</time>
  <course>67.25</course>
  <speed>0.08</speed>
  <fix>3d</fix>
</trkpt>
<trkpt lat="33.810248" lon="-118.3938795">
  <ele>0.555</ele>
  <time>2026-09-01T01:18:30Z</time>
  <course>187.39</course>
  <speed>0.09219544457292887</speed>
  <fix>3d</fix>
</trkpt>
<trkpt lat="33.8102336" lon="-118.3938989">
  <ele>2.29</ele>
  <time>2026-09-01T01:18:30Z</time>
  <course>67.25</course>
  <speed>0.08</speed>
  <fix>3d</fix>
</trkpt>
<trkpt lat="33.810248" lon="-118.3938795">
  <ele>0.553</ele>
  <time>2026-09-01T01:18:30Z</time>
  <course>187.39</course>
  <speed>0.08602325267042626</speed>
  <fix>3d</fix>
</trkpt>
<trkpt lat="33.810232" lon="-118.3938981">
  <ele>2.28</ele>
  <time>2026-09-01T01:18:30Z</time>
  <course>64.57</course>
  <speed>0.08</speed>
  <fix>3d</fix>
</trkpt>
<trkpt lat="33.810248" lon="-118.3938795">
  <ele>0.551</ele>
  <time>2026-09-01T01:18:30Z</time>
  <course>187.39</course>
  <speed>0.09219544457292887</speed>
  <fix>3d</fix>
</trkpt>
<trkpt lat="33.810232" lon="-118.3938981">
  <ele>2.28</ele>
  <time>2026-09-01T01:18:30Z</time>
  <course>64.57</course>
  <speed>0.08</speed>
  <fix>3d</fix>
</trkpt>
<trkpt lat="33.810248" lon="-118.3938795">
  <ele>0.55</ele>
  <time>2026-09-01T01:18:30Z</time>
  <course>187.38</course>
  <speed>0.08602325267042626</speed>
  <fix>3d</fix>
</trkpt>
<trkpt lat="33.8102305" lon="-118.393897">
  <ele>2.27</ele>
  <time>2026-09-01T01:18:30Z</time>
  <course>62.3</course>
  <speed>0.09</speed>
  <fix>3d</fix>
</trkpt>
<trkpt lat="33.810248" lon="-118.3938794">
  <ele>0.55</ele>
  <time>2026-09-01T01:18:30Z</time>
  <course>187.37</course>
  <speed>0.09219544457292887</speed>
  <fix>3d</fix>
</trkpt>
<trkpt lat="33.8102305" lon="-118.393897">
  <ele>2.27</ele>
  <time>2026-09-01T01:18:30Z</time>
  <course>62.3</course>
  <speed>0.09</speed>
  <fix>3d</fix>
</trkpt>
<trkpt lat="33.8102479" lon="-118.3938794">
  <ele>0.552</ele>
  <time>2026-09-01T01:18:30Z</time>
  <course>187.36</course>
  <speed>0.08602325267042626</speed>
  <fix>3d</fix>
</trkpt>
<trkpt lat="33.810229" lon="-118.3938957">
  <ele>2.27</ele>
  <time>2026-09-01T01:18:30Z</time>
  <course>60.38</course>
  <speed>0.09</speed>
  <fix>3d</fix>
</trkpt>
<trkpt lat="33.8102478" lon="-118.3938794">
  <ele>0.554</ele>
  <time>2026-09-01T01:18:30Z</time>
  <course>187.36</course>
  <speed>0.09219544457292887</speed>
  <fix>3d</fix>
</trkpt>
<trkpt lat="33.810229" lon="-118.3938957">
  <ele>2.27</ele>
  <time>2026-09-01T01:18:30Z</time>
  <course>60.38</course>
  <speed>0.09</speed>
  <fix>3d</fix>
</trkpt>
<trkpt lat="33.8102478" lon="-118.3938794">
  <ele>0.558</ele>
  <time>2026-09-01T01:18:30Z</time>
  <course>187.35</course>
  <speed>0.08602325267042626</speed>
  <fix>3d</fix>
</trkpt>
<trkpt lat="33.8102276" lon="-118.3938942">
  <ele>2.27</ele>
  <time>2026-09-01T01:18:30Z</time>
  <course>58.75</course>
  <speed>0.09</speed>
  <fix>3d</fix>
</trkpt>
<trkpt lat="33.8102478" lon="-118.3938793">
  <ele>0.56</ele>
  <time>2026-09-01T01:18:30Z</time>
  <course>187.35</course>
  <speed>0.09433981132056603</speed>
  <fix>3d</fix>
</trkpt>
<trkpt lat="33.8102276" lon="-118.3938942">
  <ele>2.27</ele>
  <time>2026-09-01T01:18:30Z</time>
  <course>58.75</course>
  <speed>0.09</speed>
  <fix>3d</fix>
</trkpt>
<trkpt lat="33.8102478" lon="-118.3938793">
  <ele>0.561</ele>
  <time>2026-09-01T01:18:30Z</time>
  <course>187.33</course>
  <speed>0.09433981132056603</speed>
  <fix>3d</fix>
</trkpt>
<trkpt lat="33.8102264" lon="-118.3938925">
  <ele>2.27</ele>
  <time>2026-09-01T01:18:30Z</time>
  <course>57.31</course>
  <speed>0.09</speed>
  <fix>3d</fix>
</trkpt>
<trkpt lat="33.8102477" lon="-118.3938793">
  <ele>0.561</ele>
  <time>2026-09-01T01:18:30Z</time>
  <course>187.31</course>
  <speed>0.09433981132056603</speed>
  <fix>3d</fix>
</trkpt>
<trkpt lat="33.8102264" lon="-118.3938925">
  <ele>2.27</ele>
  <time>2026-09-01T01:18:30Z</time>
  <course>57.31</course>
  <speed>0.09</speed>
  <fix>3d</fix>
</trkpt>
<trkpt lat="33.8102477" lon="-118.3938792">
  <ele>0.56</ele>
  <time>2026-09-01T01:18:30Z</time>
  <course>187.31</course>
  <speed>0.09848857801796104</speed>
  <fix>3d</fix>
</trkpt>
<trkpt lat="33.8102253" lon="-118.3938908">
  <ele>2.28</ele>
  <time>2026-09-01T01:18:30Z</time>
  <course>52.93</course>
  <speed>0.09</speed>
  <fix>3d</fix>
</trkpt>
<trkpt lat="33.8102477" lon="-118.3938792">
  <ele>0.56</ele>
  <time>2026-09-01T01:18:30Z</time>
  <course>187.3</course>
  <speed>0.09848857801796104</speed>
  <fix>3d</fix>
</trkpt>
<trkpt lat="33.8102253" lon="-118.3938908">
  <ele>2.28</ele>
  <time>2026-09-01T01:18:30Z</time>
  <course>52.93</course>
  <speed>0.09</speed>
  <fix>3d</fix>
</trkpt>
<trkpt lat="33.8102477" lon="-118.3938792">
  <ele>0.557</ele>
  <time>2026-09-01T01:18:30Z</time>
  <course>187.3</course>
  <speed>0.1044030650891055</speed>
  <fix>3d</fix>
</trkpt>
<trkpt lat="33.8102243" lon="-118.3938889">
  <ele>2.27</ele>
  <time>2026-09-01T01:18:30Z</time>
  <course>44.76</course>
  <speed>0.09</speed>
  <fix>3d</fix>
</trkpt>
<trkpt lat="33.8102477" lon="-118.3938792">
  <ele>0.555</ele>
  <time>2026-09-01T01:18:30Z</time>
  <course>187.31</course>
  <speed>0.1044030650891055</speed>
  <fix>3d</fix>
</trkpt>
<trkpt lat="33.8102243" lon="-118.3938889">
  <ele>2.27</ele>
  <time>2026-09-01T01:18:30Z</time>
  <course>44.76</course>
  <speed>0.09</speed>
  <fix>3d</fix>
</trkpt>
<trkpt lat="33.8102476" lon="-118.3938791">
  <ele>0.553</ele>
  <time>2026-09-01T01:18:30Z</time>
  <course>187.32</course>
  <speed>0.1019803902718557</speed>
  <fix>3d</fix>
</trkpt>
<trkpt lat="33.8102236" lon="-118.3938869">
  <ele>2.26</ele>
  <time>2026-09-01T01:18:30Z</time>
  <course>36.31</course>
  <speed>0.09</speed>
  <fix>3d</fix>
</trkpt>
<trkpt lat="33.8102476" lon="-118.3938791">
  <ele>0.552</ele>
  <time>2026-09-01T01:18:30Z</time>
  <course>187.33</course>
  <speed>0.1118033988749895</speed>
  <fix>3d</fix>
</trkpt>
<trkpt lat="33.8102236" lon="-118.3938869">
  <ele>2.26</ele>
  <time>2026-09-01T01:18:30Z</time>
  <course>36.31</course>
  <speed>0.09</speed>
  <fix>3d</fix>
</trkpt>
<trkpt lat="33.8102476" lon="-118.3938791">
  <ele>0.552</ele>
  <time>2026-09-01T01:18:30Z</time>
  <course>187.33</course>
  <speed>0.11045361017187261</speed>
  <fix>3d</fix>
</trkpt>
<trkpt lat="33.810223" lon="-118.3938848">
  <ele>2.25</ele>
  <time>2026-09-01T01:18:30Z</time>
  <course>28.55</course>
  <speed>0.09</speed>
  <fix>3d</fix>
</trkpt>
<trkpt lat="33.8102476" lon="-118.3938791">
  <ele>0.553</ele>
  <time>2026-09-01T01:18:30Z</time>
  <course>187.33</course>
  <speed>0.12041594578792296</speed>
  <fix>3d</fix>
</trkpt>
<trkpt lat="33.810223" lon="-118.3938848">
  <ele>2.25</ele>
  <time>2026-09-01T01:18:30Z</time>
  <course>28.55</course>
  <speed>0.09</speed>
  <fix>3d</fix>
</trkpt>
<trkpt lat="33.8102476" lon="-118.393879">
  <ele>0.554</ele>
  <time>2026-09-01T01:18:30Z</time>
  <course>187.32</course>
  <speed>0.12041594578792296</speed>
  <fix>3d</fix>
</trkpt>
<trkpt lat="33.8102226" lon="-118.3938827">
  <ele>2.25</ele>
  <time>2026-09-01T01:18:30Z</time>
  <course>21.35</course>
  <speed>0.09</speed>
  <fix>3d</fix>
</trkpt>
<trkpt lat="33.8102476" lon="-118.393879">
  <ele>0.557</ele>
  <time>2026-09-01T01:18:30Z</time>
  <course>187.33</course>
  <speed>0.12</speed>
  <fix>3d</fix>
</trkpt>
<trkpt lat="33.8102226" lon="-118.3938827">
  <ele>2.25</ele>
  <time>2026-09-01T01:18:30Z</time>
  <course>21.35</course>
  <speed>0.09</speed>
  <fix>3d</fix>
</trkpt>
<trkpt lat="33.8102476" lon="-118.393879">
  <ele>0.56</ele>
  <time>2026-09-01T01:18:30Z</time>
  <course>187.31</course>
  <speed>0.12</speed>
  <fix>3d</fix>
</trkpt>
<trkpt lat="33.8102224" lon="-118.3938805">
  <ele>2.25</ele>
  <time>2026-09-01T01:18:30Z</time>
  <course>15.32</course>
  <speed>0.09</speed>
  <fix>3d</fix>
</trkpt>
<trkpt lat="33.8102476" lon="-118.393879">
  <ele>0.562</ele>
  <time>2026-09-01T01:18:30Z</time>
  <course>187.3</course>
  <speed>0.12</speed>
  <fix>3d</fix>
</trkpt>
<trkpt lat="33.8102224" lon="-118.3938805">
  <ele>2.25</ele>
  <time>2026-09-01T01:18:30Z</time>
  <course>15.32</course>
  <speed>0.09</speed>
  <fix>3d</fix>
</trkpt>
<trkpt lat="33.8102476" lon="-118.393879">
  <ele>0.563</ele>
  <time>2026-09-01T01:18:30Z</time>
  <course>187.29</course>
  <speed>0.12</speed>
  <fix>3d</fix>
</trkpt>
<trkpt lat="33.8102223" lon="-118.3938783">
  <ele>2.25</ele>
  <time>2026-09-01T01:18:30Z</time>
  <course>10.78</course>
  <speed>0.09</speed>
  <fix>3d</fix>
</trkpt>
<trkpt lat="33.8102476" lon="-118.393879">
  <ele>0.563</ele>
  <time>2026-09-01T01:18:30Z</time>
  <course>187.28</course>
  <speed>0.12</speed>
  <fix>3d</fix>
</trkpt>
<trkpt lat="33.8102223" lon="-118.3938783">
  <ele>2.25</ele>
  <time>2026-09-01T01:18:30Z</time>
  <course>10.78</course>
  <speed>0.09</speed>
  <fix>3d</fix>
</trkpt>
<trkpt lat="33.8102476" lon="-118.3938789">
  <ele>0.563</ele>
  <time>2026-09-01T01:18:30Z</time>
  <course>187.27</course>
  <speed>0.12041594578792296</speed>
  <fix>3d</fix>
</trkpt>
<trkpt lat="33.8102224" lon="-118.3938761">
  <ele>2.25</ele>
  <time>2026-09-01T01:18:30Z</time>
  <course>6.36</course>
  <speed>0.09</speed>
  <fix>3d</fix>
</trkpt>
<trkpt lat="33.8102476" lon="-118.3938789">
  <ele>0.564</ele>
  <time>2026-09-01T01:18:30Z</time>
  <course>187.27</course>
  <speed>0.12041594578792296</speed>
  <fix>3d</fix>
</trkpt>
<trkpt lat="33.8102224" lon="-118.3938761">
  <ele>2.25</ele>
  <time>2026-09-01T01:18:30Z</time>
  <course>6.36</course>
  <speed>0.09</speed>
  <fix>3d</fix>
</trkpt>
<trkpt lat="33.8102476" lon="-118.3938789">
  <ele>0.563</ele>
  <time>2026-09-01T01:18:30Z</time>
  <course>187.27</course>
  <speed>0.12041594578792296</speed>
  <fix>3d</fix>
</trkpt>
<trkpt lat="33.8102227" lon="-118.393874">
  <ele>2.24</ele>
  <time>2026-09-01T01:18:30Z</time>
  <course>1.65</course>
  <speed>0.09</speed>
  <fix>3d</fix>
</trkpt>
<trkpt lat="33.8102476" lon="-118.3938789">
  <ele>0.562</ele>
  <time>2026-09-01T01:18:30Z</time>
  <course>187.26</course>
  <speed>0.12165525060596438</speed>
  <fix>3d</fix>
</trkpt>
<trkpt lat="33.8102227" lon="-118.393874">
  <ele>2.24</ele>
  <time>2026-09-01T01:18:30Z</time>
  <course>1.65</course>
  <speed>0.09</speed>
  <fix>3d</fix>
</trkpt>
<trkpt lat="33.8102477" lon="-118.3938789">
  <ele>0.561</ele>
  <time>2026-09-01T01:18:30Z</time>
  <course>187.25</course>
  <speed>0.12165525060596438</speed>
  <fix>3d</fix>
</trkpt>
<trkpt lat="33.8102232" lon="-118.3938719">
  <ele>2.23</ele>
  <time>2026-09-01T01:18:30Z</time>
  <course>357.76</course>
  <speed>0.09</speed>
  <fix>3d</fix>
</trkpt>
<trkpt lat="33.8102477" lon="-118.3938789">
  <ele>0.56</ele>
  <time>2026-09-01T01:18:30Z</time>
  <course>187.23</course>
  <speed>0.12165525060596438</speed>
  <fix>3d</fix>
</trkpt>
<trkpt lat="33.8102232" lon="-118.3938719">
  <ele>2.23</ele>
  <time>2026-09-01T01:18:30Z</time>
  <course>357.76</course>
  <speed>0.09</speed>
  <fix>3d</fix>
</trkpt>
<trkpt lat="33.8102477" lon="-118.3938789">
  <ele>0.558</ele>
  <time>2026-09-01T01:18:30Z</time>
  <course>187.24</course>
  <speed>0.12165525060596438</speed>
  <fix>3d</fix>
</trkpt>
<trkpt lat="33.8102238" lon="-118.3938698">
  <ele>2.22</ele>
  <time>2026-09-01T01:18:30Z</time>
  <course>354.41</course>
  <speed>0.09</speed>
  <fix>3d</fix>
</trkpt>
<trkpt lat="33.8102477" lon="-118.3938789">
  <ele>0.558</ele>
  <time>2026-09-01T01:18:30Z</time>
  <course>187.24</course>
  <speed>0.12369316876852982</speed>
  <fix>3d</fix>
</trkpt>
<trkpt lat="33.8102238" lon="-118.3938698">
  <ele>2.22</ele>
  <time>2026-09-01T01:18:30Z</time>
  <course>354.41</course>
  <speed>0.09</speed>
  <fix>3d</fix>
</trkpt>
<trkpt lat="33.8102477" lon="-118.3938789">
  <ele>0.558</ele>
  <time>2026-09-01T01:18:30Z</time>
  <course>187.24</course>
  <speed>0.12369316876852982</speed>
  <fix>3d</fix>
</trkpt>
<trkpt lat="33.8102247" lon="-118.3938678">
  <ele>2.21</ele>
  <time>2026-09-01T01:18:30Z</time>
  <course>351.25</course>
  <speed>0.09</speed>
  <fix>3d</fix>
</trkpt>
<trkpt lat="33.8102477" lon="-118.3938788">
  <ele>0.557</ele>
  <time>2026-09-01T01:18:30Z</time>
  <course>187.24</course>
  <speed>0.12369316876852982</speed>
  <fix>3d</fix>
</trkpt>
<trkpt lat="33.8102247" lon="-118.3938678">
  <ele>2.21</ele>
  <time>2026-09-01T01:18:30Z</time>
  <course>351.25</course>
  <speed>0.09</speed>
  <fix>3d</fix>
</trkpt>
<trkpt lat="33.8102477" lon="-118.3938787">
  <ele>0.557</ele>
  <time>2026-09-01T01:18:30Z</time>
  <course>187.25</course>
  <speed>0.12369316876852982</speed>
  <fix>3d</fix>
</trkpt>
<trkpt lat="33.8102256" lon="-118.3938658">
  <ele>2.2</ele>
  <time>2026-09-01T01:18:30Z</time>
  <course>348.23</course>
  <speed>0.09</speed>
  <fix>3d</fix>
</trkpt>
<trkpt lat="33.8102477" lon="-118.3938787">
  <ele>0.556</ele>
  <time>2026-09-01T01:18:30Z</time>
  <course>187.25</course>
  <speed>0.1264911064067352</speed>
  <fix>3d</fix>
</trkpt>
<trkpt lat="33.8102256" lon="-118.3938658">
  <ele>2.2</ele>
  <time>2026-09-01T01:18:30Z</time>
  <course>348.23</course>
  <speed>0.09</speed>
  <fix>3d</fix>
</trkpt>
<trkpt lat="33.8102477" lon="-118.3938787">
  <ele>0.555</ele>
  <time>2026-09-01T01:18:30Z</time>
  <course>187.25</course>
  <speed>0.1264911064067352</speed>
  <fix>3d</fix>
</trkpt>
<trkpt lat="33.8102268" lon="-118.393864">
  <ele>2.2</ele>
  <time>2026-09-01T01:18:30Z</time>
  <course>345.28</course>
  <speed>0.09</speed>
  <fix>3d</fix>
</trkpt>
<trkpt lat="33.8102477" lon="-118.3938787">
  <ele>0.555</ele>
  <time>2026-09-01T01:18:30Z</time>
  <course>187.26</course>
  <speed>0.1264911064067352</speed>
  <fix>3d</fix>
</trkpt>
<trkpt lat="33.8102268" lon="-118.393864">
  <ele>2.2</ele>
  <time>2026-09-01T01:18:30Z</time>
  <course>345.28</course>
  <speed>0.09</speed>
  <fix>3d</fix>
</trkpt>
<trkpt lat="33.8102477" lon="-118.3938786">
  <ele>0.555</ele>
  <time>2026-09-01T01:18:30Z</time>
  <course>187.25</course>
  <speed>0.11704699910719625</speed>
  <fix>3d</fix>
</trkpt>
<trkpt lat="33.8102281" lon="-118.3938624">
  <ele>2.19</ele>
  <time>2026-09-01T01:18:30Z</time>
  <course>342.57</course>
  <speed>0.09</speed>
  <fix>3d</fix>
</trkpt>
<trkpt lat="33.8102478" lon="-118.3938786">
  <ele>0.555</ele>
  <time>2026-09-01T01:18:30Z</time>
  <course>187.25</course>
  <speed>0.1264911064067352</speed>
  <fix>3d</fix>
</trkpt>
<trkpt lat="33.8102281" lon="-118.3938624">
  <ele>2.19</ele>
  <time>2026-09-01T01:18:30Z</time>
  <course>342.57</course>
  <speed>0.09</speed>
  <fix>3d</fix>
</trkpt>
<trkpt lat="33.8102478" lon="-118.3938786">
  <ele>0.555</ele>
  <time>2026-09-01T01:18:30Z</time>
  <course>187.25</course>
  <speed>0.11704699910719625</speed>
  <fix>3d</fix>
</trkpt>
<trkpt lat="33.8102295" lon="-118.3938609">
  <ele>2.19</ele>
  <time>2026-09-01T01:18:30Z</time>
  <course>340.25</course>
  <speed>0.09</speed>
  <fix>3d</fix>
</trkpt>
<trkpt lat="33.8102478" lon="-118.3938786">
  <ele>0.555</ele>
  <time>2026-09-01T01:18:30Z</time>
  <course>187.25</course>
  <speed>0.12083045973594572</speed>
  <fix>3d</fix>
</trkpt>
<trkpt lat="33.8102295" lon="-118.3938609">
  <ele>2.19</ele>
  <time>2026-09-01T01:18:30Z</time>
  <course>340.25</course>
  <speed>0.09</speed>
  <fix>3d</fix>
</trkpt>
<trkpt lat="33.8102478" lon="-118.3938786">
  <ele>0.555</ele>
  <time>2026-09-01T01:18:30Z</time>
  <course>187.25</course>
  <speed>0.11704699910719625</speed>
  <fix>3d</fix>
</trkpt>
<trkpt lat="33.810231" lon="-118.3938595">
  <ele>2.18</ele>
  <time>2026-09-01T01:18:30Z</time>
  <course>338.4</course>
  <speed>0.09</speed>
  <fix>3d</fix>
</trkpt>
<trkpt lat="33.8102478" lon="-118.3938786">
  <ele>0.555</ele>
  <time>2026-09-01T01:18:30Z</time>
  <course>187.25</course>
  <speed>0.12083045973594572</speed>
  <fix>3d</fix>
</trkpt>
<trkpt lat="33.810231" lon="-118.3938595">
  <ele>2.18</ele>
  <time>2026-09-01T01:18:30Z</time>
  <course>338.4</course>
  <speed>0.09</speed>
  <fix>3d</fix>
</trkpt>
<trkpt lat="33.8102479" lon="-118.3938785">
  <ele>0.554</ele>
  <time>2026-09-01T01:18:30Z</time>
  <course>187.25</course>
  <speed>0.12083045973594572</speed>
  <fix>3d</fix>
</trkpt>
<trkpt lat="33.8102327" lon="-118.3938584">
  <ele>2.18</ele>
  <time>2026-09-01T01:18:30Z</time>
  <course>336.97</course>
  <speed>0.09</speed>
  <fix>3d</fix>
</trkpt>
<trkpt lat="33.8102479" lon="-118.3938785">
  <ele>0.553</ele>
  <time>2026-09-01T01:18:30Z</time>
  <course>187.26</course>
  <speed>0.12083045973594572</speed>
  <fix>3d</fix>
</trkpt>
<trkpt lat="33.8102327" lon="-118.3938584">
  <ele>2.18</ele>
  <time>2026-09-01T01:18:30Z</time>
  <course>336.97</course>
  <speed>0.09</speed>
  <fix>3d</fix>
</trkpt>
<trkpt lat="33.8102479" lon="-118.3938785">
  <ele>0.554</ele>
  <time>2026-09-01T01:18:30Z</time>
  <course>187.26</course>
  <speed>0.12083045973594572</speed>
  <fix>3d</fix>
</trkpt>
<trkpt lat="33.8102344" lon="-118.3938575">
  <ele>2.18</ele>
  <time>2026-09-01T01:18:30Z</time>
  <course>335.88</course>
  <speed>0.09</speed>
  <fix>3d</fix>
</trkpt>
<trkpt lat="33.8102479" lon="-118.3938784">
  <ele>0.555</ele>
  <time>2026-09-01T01:18:30Z</time>
  <course>187.3</course>
  <speed>0.1118033988749895</speed>
  <fix>3d</fix>
</trkpt>
<trkpt lat="33.8102344" lon="-118.3938575">
  <ele>2.18</ele>
  <time>2026-09-01T01:18:30Z</time>
  <course>335.88</course>
  <speed>0.09</speed>
  <fix>3d</fix>
</trkpt>
<trkpt lat="33.810248" lon="-118.3938784">
  <ele>0.557</ele>
  <time>2026-09-01T01:18:30Z</time>
  <course>187.35</course>
  <speed>0.1118033988749895</speed>
  <fix>3d</fix>
</trkpt>
<trkpt lat="33.8102362" lon="-118.3938568">
  <ele>2.18</ele>
  <time>2026-09-01T01:18:30Z</time>
  <course>333.45</course>
  <speed>0.08</speed>
  <fix>3d</fix>
</trkpt>
<trkpt lat="33.810248" lon="-118.3938784">
  <ele>0.558</ele>
  <time>2026-09-01T01:18:30Z</time>
  <course>187.39</course>
  <speed>0.10816653826391968</speed>
  <fix>3d</fix>
</trkpt>
<trkpt lat="33.8102362" lon="-118.3938568">
  <ele>2.18</ele>
  <time>2026-09-01T01:18:30Z</time>
  <course>333.45</course>
  <speed>0.08</speed>
  <fix>3d</fix>
</trkpt>
<trkpt lat="33.810248" lon="-118.3938784">
  <ele>0.558</ele>
  <time>2026-09-01T01:18:30Z</time>
  <course>187.42</course>
  <speed>0.10816653826391968</speed>
  <fix>3d</fix>
</trkpt>
<trkpt lat="33.8102381" lon="-118.3938562">
  <ele>2.17</ele>
  <time>2026-09-01T01:18:30Z</time>
  <course>327.42</course>
  <speed>0.08</speed>
  <fix>3d</fix>
</trkpt>
<trkpt lat="33.810248" lon="-118.3938784">
  <ele>0.559</ele>
  <time>2026-09-01T01:18:30Z</time>
  <course>187.43</course>
  <speed>0.1</speed>
  <fix>3d</fix>
</trkpt>
<trkpt lat="33.8102381" lon="-118.3938562">
  <ele>2.17</ele>
  <time>2026-09-01T01:18:30Z</time>
  <course>327.42</course>
  <speed>0.08</speed>
  <fix>3d</fix>
</trkpt>
<trkpt lat="33.8102481" lon="-118.3938784">
  <ele>0.56</ele>
  <time>2026-09-01T01:18:30Z</time>
  <course>187.44</course>
  <speed>0.1063014581273465</speed>
  <fix>3d</fix>
</trkpt>
<trkpt lat="33.81024" lon="-118.3938559">
  <ele>2.17</ele>
  <time>2026-09-01T01:18:30Z</time>
  <course>318.67</course>
  <speed>0.07</speed>
  <fix>3d</fix>
</trkpt>
<trkpt lat="33.8102481" lon="-118.3938784">
  <ele>0.561</ele>
  <time>2026-09-01T01:18:30Z</time>
  <course>187.44</course>
  <speed>0.09899494936611665</speed>
  <fix>3d</fix>
</trkpt>
<trkpt lat="33.81024" lon="-118.3938559">
  <ele>2.17</ele>
  <time>2026-09-01T01:18:30Z</time>
  <course>318.67</course>
  <speed>0.07</speed>
  <fix>3d</fix>
</trkpt>
<trkpt lat="33.8102481" lon="-118.3938783">
  <ele>0.562</ele>
  <time>2026-09-01T01:18:30Z</time>
  <course>187.43</course>
  <speed>0.09899494936611665</speed>
  <fix>3d</fix>
</trkpt>
<trkpt lat="33.8102418" lon="-118.3938558">
  <ele>2.16</ele>
  <time>2026-09-01T01:18:30Z</time>
  <course>309.46</course>
  <speed>0.07</speed>
  <fix>3d</fix>
</trkpt>
<trkpt lat="33.8102481" lon="-118.3938783">
  <ele>0.562</ele>
  <time>2026-09-01T01:18:30Z</time>
  <course>187.42</course>
  <speed>0.09219544457292887</speed>
  <fix>3d</fix>
</trkpt>
<trkpt lat="33.8102418" lon="-118.3938558">
  <ele>2.16</ele>
  <time>2026-09-01T01:18:30Z</time>
  <course>309.46</course>
  <speed>0.07</speed>
  <fix>3d</fix>
</trkpt>
<trkpt lat="33.8102482" lon="-118.3938783">
  <ele>0.562</ele>
  <time>2026-09-01T01:18:30Z</time>
  <course>187.4</course>
  <speed>0.1</speed>
  <fix>3d</fix>
</trkpt>
<trkpt lat="33.8102437" lon="-118.3938559">
  <ele>2.16</ele>
  <time>2026-09-01T01:18:30Z</time>
  <course>300.71</course>
  <speed>0.07</speed>
  <fix>3d</fix>
</trkpt>
<trkpt lat="33.8102482" lon="-118.3938783">
  <ele>0.56</ele>
  <time>2026-09-01T01:18:30Z</time>
  <course>187.39</course>
  <speed>0.09433981132056603</speed>
  <fix>3d</fix>
</trkpt>
<trkpt lat="33.8102437" lon="-118.3938559">
  <ele>2.16</ele>
  <time>2026-09-01T01:18:30Z</time>
  <course>300.71</course>
  <speed>0.07</speed>
  <fix>3d</fix>
</trkpt>
<trkpt lat="33.8102482" lon="-118.3938783">
  <ele>0.559</ele>
  <time>2026-09-01T01:18:30Z</time>
  <course>187.38</course>
  <speed>0.09433981132056603</speed>
  <fix>3d</fix>
</trkpt>
<trkpt lat="33.8102455" lon="-118.3938563">
  <ele>2.15</ele>
  <time>2026-09-01T01:18:30Z</time>
  <course>293.45</course>
  <speed>0.07</speed>
  <fix>3d</fix>
</trkpt>
<trkpt lat="33.8102482" lon="-118.3938784">
  <ele>0.557</ele>
  <time>2026-09-01T01:18:30Z</time>
  <course>187.38</course>
  <speed>0.09433981132056603</speed>
  <fix>3d</fix>
</trkpt>
<trkpt lat="33.8102455" lon="-118.3938563">
  <ele>2.15</ele>
  <time>2026-09-01T01:18:30Z</time>
  <course>293.45</course>
  <speed>0.07</speed>
  <fix>3d</fix>
</trkpt>
<trkpt lat="33.8102482" lon="-118.3938784">
  <ele>0.556</ele>
  <time>2026-09-01T01:18:30Z</time>
  <course>187.38</course>
  <speed>0.09433981132056603</speed>
  <fix>3d</fix>
</trkpt>
<trkpt lat="33.8102473" lon="-118.3938569">
  <ele>2.14</ele>
  <time>2026-09-01T01:18:30Z</time>
  <course>287.99</course>
  <speed>0.07</speed>
  <fix>3d</fix>
</trkpt>
<trkpt lat="33.8102482" lon="-118.3938784">
  <ele>0.554</ele>
  <time>2026-09-01T01:18:30Z</time>
  <course>187.38</course>
  <speed>0.08944271909999159</speed>
  <fix>3d</fix>
</trkpt>
<trkpt lat="33.8102473" lon="-118.3938569">
  <ele>2.14</ele>
  <time>2026-09-01T01:18:30Z</time>
  <course>287.99</course>
  <speed>0.07</speed>
  <fix>3d</fix>
</trkpt>
<trkpt lat="33.8102482" lon="-118.3938784">
  <ele>0.551</ele>
  <time>2026-09-01T01:18:30Z</time>
  <course>187.38</course>
  <speed>0.08944271909999159</speed>
  <fix>3d</fix>
</trkpt>
<trkpt lat="33.8102491" lon="-118.3938577">
  <ele>2.13</ele>
  <time>2026-09-01T01:18:30Z</time>
  <course>283.64</course>
  <speed>0.07</speed>
  <fix>3d</fix>
</trkpt>
<trkpt lat="33.8102482" lon="-118.3938784">
  <ele>0.549</ele>
  <time>2026-09-01T01:18:30Z</time>
  <course>187.38</course>
  <speed>0.08944271909999159</speed>
  <fix>3d</fix>
</trkpt>
<trkpt lat="33.8102491" lon="-118.3938577">
  <ele>2.13</ele>
  <time>2026-09-01T01:18:30Z</time>
  <course>283.64</course>
  <speed>0.07</speed>
  <fix>3d</fix>
</trkpt>
<trkpt lat="33.8102483" lon="-118.3938784">
  <ele>0.548</ele>
  <time>2026-09-01T01:18:30Z</time>
  <course>187.38</course>
  <speed>0.08944271909999159</speed>
  <fix>3d</fix>
</trkpt>
<trkpt lat="33.8102508" lon="-118.3938587">
  <ele>2.13</ele>
  <time>2026-09-01T01:18:30Z</time>
  <course>279.87</course>
  <speed>0.06</speed>
  <fix>3d</fix>
</trkpt>
<trkpt lat="33.8102483" lon="-118.3938784">
  <ele>0.549</ele>
  <time>2026-09-01T01:18:30Z</time>
  <course>187.38</course>
  <speed>0.08944271909999159</speed>
  <fix>3d</fix>
</trkpt>
<trkpt lat="33.8102508" lon="-118.3938587">
  <ele>2.13</ele>
  <time>2026-09-01T01:18:30Z</time>
  <course>279.87</course>
  <speed>0.06</speed>
  <fix>3d</fix>
</trkpt>
<trkpt lat="33.8102483" lon="-118.3938784">
  <ele>0.551</ele>
  <time>2026-09-01T01:18:30Z</time>
  <course>187.38</course>
  <speed>0.0854400374531753</speed>
  <fix>3d</fix>
</trkpt>
<trkpt lat="33.8102524" lon="-118.3938598">
  <ele>2.12</ele>
  <time>2026-09-01T01:18:30Z</time>
  <course>276.8</course>
  <speed>0.06</speed>
  <fix>3d</fix>
</trkpt>
<trkpt lat="33.8102483" lon="-118.3938784">
  <ele>0.553</ele>
  <time>2026-09-01T01:18:30Z</time>
  <course>187.38</course>
  <speed>0.0854400374531753</speed>
  <fix>3d</fix>
</trkpt>
<trkpt lat="33.8102524" lon="-118.3938598">
  <ele>2.12</ele>
  <time>2026-09-01T01:18:30Z</time>
  <course>276.8</course>
  <speed>0.06</speed>
  <fix>3d</fix>
</trkpt>
<trkpt lat="33.8102483" lon="-118.3938785">
  <ele>0.555</ele>
  <time>2026-09-01T01:18:30Z</time>
  <course>187.38</course>
  <speed>0.07615773105863909</speed>
  <fix>3d</fix>
</trkpt>
<trkpt lat="33.8102539" lon="-118.3938612">
  <ele>2.12</ele>
  <time>2026-09-01T01:18:30Z</time>
  <course>274.13</course>
  <speed>0.06</speed>
  <fix>3d</fix>
</trkpt>
<trkpt lat="33.8102483" lon="-118.3938785">
  <ele>0.557</ele>
  <time>2026-09-01T01:18:30Z</time>
  <course>187.38</course>
  <speed>0.07615773105863909</speed>
  <fix>3d</fix>
</trkpt>
<trkpt lat="33.8102539" lon="-118.3938612">
  <ele>2.12</ele>
  <time>2026-09-01T01:18:30Z</time>
  <course>274.13</course>
  <speed>0.06</speed>
  <fix>3d</fix>
</trkpt>
<trkpt lat="33.8102484" lon="-118.3938785">
  <ele>0.557</ele>
  <time>2026-09-01T01:18:30Z</time>
  <course>187.38</course>
  <speed>0.07615773105863909</speed>
  <fix>3d</fix>
</trkpt>
<trkpt lat="33.8102552" lon="-118.3938628">
  <ele>2.12</ele>
  <time>2026-09-01T01:18:30Z</time>
  <course>271.61</course>
  <speed>0.06</speed>
  <fix>3d</fix>
</trkpt>
<trkpt lat="33.8102484" lon="-118.3938785">
  <ele>0.557</ele>
  <time>2026-09-01T01:18:30Z</time>
  <course>187.38</course>
  <speed>0.07615773105863909</speed>
  <fix>3d</fix>
</trkpt>
<trkpt lat="33.8102552" lon="-118.3938628">
  <ele>2.12</ele>
  <time>2026-09-01T01:18:30Z</time>
  <course>271.61</course>
  <speed>0.06</speed>
  <fix>3d</fix>
</trkpt>
<trkpt lat="33.8102484" lon="-118.3938785">
  <ele>0.557</ele>
  <time>2026-09-01T01:18:30Z</time>
  <course>187.38</course>
  <speed>0.07615773105863909</speed>
  <fix>3d</fix>
</trkpt>
<trkpt lat="33.8102565" lon="-118.3938645">
  <ele>2.12</ele>
  <time>2026-09-01T01:18:30Z</time>
  <course>269.31</course>
  <speed>0.06</speed>
  <fix>3d</fix>
</trkpt>
<trkpt lat="33.8102484" lon="-118.3938786">
  <ele>0.557</ele>
  <time>2026-09-01T01:18:30Z</time>
  <course>187.38</course>
  <speed>0.07280109889280519</speed>
  <fix>3d</fix>
</trkpt>
<trkpt lat="33.8102565" lon="-118.3938645">
  <ele>2.12</ele>
  <time>2026-09-01T01:18:30Z</time>
  <course>269.31</course>
  <speed>0.06</speed>
  <fix>3d</fix>
</trkpt>
<trkpt lat="33.8102484" lon="-118.3938786">
  <ele>0.556</ele>
  <time>2026-09-01T01:18:30Z</time>
  <course>187.37</course>
  <speed>0.07280109889280519</speed>
  <fix>3d</fix>
</trkpt>
<trkpt lat="33.8102576" lon="-118.3938663">
  <ele>2.12</ele>
  <time>2026-09-01T01:18:30Z</time>
  <course>267.14</course>
  <speed>0.05</speed>
  <fix>3d</fix>
</trkpt>
<trkpt lat="33.8102485" lon="-118.3938786">
  <ele>0.555</ele>
  <time>2026-09-01T01:18:30Z</time>
  <course>187.36</course>
  <speed>0.07280109889280519</speed>
  <fix>3d</fix>
</trkpt>
<trkpt lat="33.8102576" lon="-118.3938663">
  <ele>2.12</ele>
  <time>2026-09-01T01:18:30Z</time>
  <course>267.14</course>
  <speed>0.05</speed>
  <fix>3d</fix>
</trkpt>
<trkpt lat="33.8102485" lon="-118.3938786">
  <ele>0.555</ele>
  <time>2026-09-01T01:18:30Z</time>
  <course>187.3</course>
  <speed>0.0632455532033676</speed>
  <fix>3d</fix>
</trkpt>
<trkpt lat="33.8102586" lon="-118.3938682">
  <ele>2.12</ele>
  <time>2026-09-01T01:18:30Z</time>
  <course>264.27</course>
  <speed>0.05</speed>
  <fix>3d</fix>
</trkpt>
<trkpt lat="33.8102485" lon="-118.3938787">
  <ele>0.556</ele>
  <time>2026-09-01T01:18:30Z</time>
  <course>187.28</course>
  <speed>0.06082762530298219</speed>
  <fix>3d</fix>
</trkpt>
<trkpt lat="33.8102586" lon="-118.3938682">
  <ele>2.12</ele>
  <time>2026-09-01T01:18:30Z</time>
  <course>264.27</course>
  <speed>0.05</speed>
  <fix>3d</fix>
</trkpt>
<trkpt lat="33.8102485" lon="-118.3938787">
  <ele>0.557</ele>
  <time>2026-09-01T01:18:30Z</time>
  <course>187.27</course>
  <speed>0.05099019513592785</speed>
  <fix>3d</fix>
</trkpt>
<trkpt lat="33.8102594" lon="-118.3938703">
  <ele>2.11</ele>
  <time>2026-09-01T01:18:30Z</time>
  <course>256.58</course>
  <speed>0.05</speed>
  <fix>3d</fix>
</trkpt>
<trkpt lat="33.8102485" lon="-118.3938787">
  <ele>0.558</ele>
  <time>2026-09-01T01:18:30Z</time>
  <course>187.27</course>
  <speed>0.05</speed>
  <fix>3d</fix>
</trkpt>
<trkpt lat="33.8102594" lon="-118.3938703">
  <ele>2.11</ele>
  <time>2026-09-01T01:18:30Z</time>
  <course>256.58</course>
  <speed>0.05</speed>
  <fix>3d</fix>
</trkpt>
<trkpt lat="33.8102486" lon="-118.3938788">
  <ele>0.56</ele>
  <time>2026-09-01T01:18:30Z</time>
  <course>187.27</course>
  <speed>0.05</speed>
  <fix>3d</fix>
</trkpt>
<trkpt lat="33.81026" lon="-118.3938724">
  <ele>2.1</ele>
  <time>2026-09-01T01:18:30Z</time>
  <course>242.12</course>
  <speed>0.04</speed>
  <fix>3d</fix>
</trkpt>
<trkpt lat="33.8102486" lon="-118.3938788">
  <ele>0.562</ele>
  <time>2026-09-01T01:18:30Z</time>
  <course>187.27</course>
  <speed>0.04</speed>
  <fix>3d</fix>
</trkpt>
<trkpt lat="33.81026" lon="-118.3938724">
  <ele>2.1</ele>
  <time>2026-09-01T01:18:30Z</time>
  <course>242.12</course>
  <speed>0.04</speed>
  <fix>3d</fix>
</trkpt>
<trkpt lat="33.8102486" lon="-118.3938788">
  <ele>0.564</ele>
  <time>2026-09-01T01:18:30Z</time>
  <course>187.26</course>
  <speed>0.04</speed>
  <fix>3d</fix>
</trkpt>
<trkpt lat="33.8102604" lon="-118.3938745">
  <ele>2.1</ele>
  <time>2026-09-01T01:18:30Z</time>
  <course>224.37</course>
  <speed>0.04</speed>
  <fix>3d</fix>
</trkpt>
<trkpt lat="33.8102486" lon="-118.3938788">
  <ele>0.564</ele>
  <time>2026-09-01T01:18:30Z</time>
  <course>187.26</course>
  <speed>0.03</speed>
  <fix>3d</fix>
</trkpt>
<trkpt lat="33.8102604" lon="-118.3938745">
  <ele>2.1</ele>
  <time>2026-09-01T01:18:30Z</time>
  <course>224.37</course>
  <speed>0.04</speed>
  <fix>3d</fix>
</trkpt>
<trkpt lat="33.8102486" lon="-118.3938788">
  <ele>0.564</ele>
  <time>2026-09-01T01:18:30Z</time>
  <course>187.25</course>
  <speed>0.0316227766016838</speed>
  <fix>3d</fix>
</trkpt>
<trkpt lat="33.8102607" lon="-118.3938768">
  <ele>2.09</ele>
  <time>2026-09-01T01:18:30Z</time>
  <course>209.31</course>
  <speed>0.04</speed>
  <fix>3d</fix>
</trkpt>
<trkpt lat="33.8102487" lon="-118.3938789">
  <ele>0.564</ele>
  <time>2026-09-01T01:18:30Z</time>
  <course>187.25</course>
  <speed>0.0316227766016838</speed>
  <fix>3d</fix>
</trkpt>
<trkpt lat="33.8102607" lon="-118.3938768">
  <ele>2.09</ele>
  <time>2026-09-01T01:18:30Z</time>
  <course>209.31</course>
  <speed>0.04</speed>
  <fix>3d</fix>
</trkpt>
<trkpt lat="33.8102487" lon="-118.3938789">
  <ele>0.564</ele>
  <time>2026-09-01T01:18:30Z</time>
  <course>187.25</course>
  <speed>0.0316227766016838</speed>
  <fix>3d</fix>
</trkpt>
<trkpt lat="33.8102608" lon="-118.393879">
  <ele>2.08</ele>
  <time>2026-09-01T01:18:30Z</time>
  <course>199.95</course>
  <speed>0.04</speed>
  <fix>3d</fix>
</trkpt>
<trkpt lat="33.8102487" lon="-118.3938789">
  <ele>0.563</ele>
  <time>2026-09-01T01:18:30Z</time>
  <course>187.25</course>
  <speed>0.0316227766016838</speed>
  <fix>3d</fix>
</trkpt>
<trkpt lat="33.8102608" lon="-118.393879">
  <ele>2.08</ele>
  <time>2026-09-01T01:18:30Z</time>
  <course>199.95</course>
  <speed>0.04</speed>
  <fix>3d</fix>
</trkpt>
<trkpt lat="33.8102487" lon="-118.3938789">
  <ele>0.56</ele>
  <time>2026-09-01T01:18:30Z</time>
  <course>187.25</course>
  <speed>0.022360679774997897</speed>
  <fix>3d</fix>
</trkpt>
<trkpt lat="33.8102606" lon="-118.3938811">
  <ele>2.07</ele>
  <time>2026-09-01T01:18:30Z</time>
  <course>194.34</course>
  <speed>0.05</speed>
  <fix>3d</fix>
</trkpt>
<trkpt lat="33.8102486" lon="-118.3938789">
  <ele>0.558</ele>
  <time>2026-09-01T01:18:30Z</time>
  <course>187.25</course>
  <speed>0.022360679774997897</speed>
  <fix>3d</fix>
</trkpt>
<trkpt lat="33.8102606" lon="-118.3938811">
  <ele>2.07</ele>
  <time>2026-09-01T01:18:30Z</time>
  <course>194.34</course>
  <speed>0.05</speed>
  <fix>3d</fix>
</trkpt>
<trkpt lat="33.8102486" lon="-118.3938789">
  <ele>0.555</ele>
  <time>2026-09-01T01:18:30Z</time>
  <course>187.25</course>
  <speed>0.022360679774997897</speed>
  <fix>3d</fix>
</trkpt>
<trkpt lat="33.8102603" lon="-118.3938833">
  <ele>2.07</ele>
  <time>2026-09-01T01:18:30Z</time>
  <course>190.68</course>
  <speed>0.05</speed>
  <fix>3d</fix>
</trkpt>
<trkpt lat="33.8102486" lon="-118.393879">
  <ele>0.553</ele>
  <time>2026-09-01T01:18:30Z</time>
  <course>187.26</course>
  <speed>0.022360679774997897</speed>
  <fix>3d</fix>
</trkpt>
<trkpt lat="33.8102603" lon="-118.3938833">
  <ele>2.07</ele>
  <time>2026-09-01T01:18:30Z</time>
  <course>190.68</course>
  <speed>0.05</speed>
  <fix>3d</fix>
</trkpt>
<trkpt lat="33.8102486" lon="-118.393879">
  <ele>0.552</ele>
  <time>2026-09-01T01:18:30Z</time>
  <course>187.26</course>
  <speed>0.022360679774997897</speed>
  <fix>3d</fix>
</trkpt>
<trkpt lat="33.8102598" lon="-118.3938854">
  <ele>2.06</ele>
  <time>2026-09-01T01:18:30Z</time>
  <course>187.92</course>
  <speed>0.05</speed>
  <fix>3d</fix>
</trkpt>
<trkpt lat="33.8102486" lon="-118.393879">
  <ele>0.551</ele>
  <time>2026-09-01T01:18:30Z</time>
  <course>187.26</course>
  <speed>0.022360679774997897</speed>
  <fix>3d</fix>
</trkpt>
<trkpt lat="33.8102598" lon="-118.3938854">
  <ele>2.06</ele>
  <time>2026-09-01T01:18:30Z</time>
  <course>187.92</course>
  <speed>0.05</speed>
  <fix>3d</fix>
</trkpt>
<trkpt lat="33.8102486" lon="-118.393879">
  <ele>0.551</ele>
  <time>2026-09-01T01:18:30Z</time>
  <course>187.26</course>
  <speed>0.022360679774997897</speed>
  <fix>3d</fix>
</trkpt>
<trkpt lat="33.8102591" lon="-118.3938875">
  <ele>2.04</ele>
  <time>2026-09-01T01:18:30Z</time>
  <course>185.05</course>
  <speed>0.05</speed>
  <fix>3d</fix>
</trkpt>
<trkpt lat="33.8102486" lon="-118.3938791">
  <ele>0.552</ele>
  <time>2026-09-01T01:18:30Z</time>
  <course>187.26</course>
  <speed>0.022360679774997897</speed>
  <fix>3d</fix>
</trkpt>
<trkpt lat="33.8102591" lon="-118.3938875">
  <ele>2.04</ele>
  <time>2026-09-01T01:18:30Z</time>
  <course>185.05</course>
  <speed>0.05</speed>
  <fix>3d</fix>
</trkpt>
<trkpt lat="33.8102486" lon="-118.3938791">
  <ele>0.552</ele>
  <time>2026-09-01T01:18:30Z</time>
  <course>187.26</course>
  <speed>0.01414213562373095</speed>
  <fix>3d</fix>
</trkpt>
<trkpt lat="33.8102582" lon="-118.3938895">
  <ele>2.04</ele>
  <time>2026-09-01T01:18:30Z</time>
  <course>181.8</course>
  <speed>0.05</speed>
  <fix>3d</fix>
</trkpt>
<trkpt lat="33.8102485" lon="-118.3938791">
  <ele>0.553</ele>
  <time>2026-09-01T01:18:30Z</time>
  <course>187.26</course>
  <speed>0.01414213562373095</speed>
  <fix>3d</fix>
</trkpt>
<trkpt lat="33.8102582" lon="-118.3938895">
  <ele>2.04</ele>
  <time>2026-09-01T01:18:30Z</time>
  <course>181.8</course>
  <speed>0.05</speed>
  <fix>3d</fix>
</trkpt>
<trkpt lat="33.8102485" lon="-118.3938792">
  <ele>0.555</ele>
  <time>2026-09-01T01:18:30Z</time>
  <course>187.27</course>
  <speed>0.01414213562373095</speed>
  <fix>3d</fix>
</trkpt>
<trkpt lat="33.8102572" lon="-118.3938913">
  <ele>2.04</ele>
  <time>2026-09-01T01:18:30Z</time>
  <course>178.31</course>
  <speed>0.05</speed>
  <fix>3d</fix>
</trkpt>
<trkpt lat="33.8102485" lon="-118.3938792">
  <ele>0.558</ele>
  <time>2026-09-01T01:18:30Z</time>
  <course>187.32</course>
  <speed>0.01414213562373095</speed>
  <fix>3d</fix>
</trkpt>
<trkpt lat="33.8102572" lon="-118.3938913">
  <ele>2.04</ele>
  <time>2026-09-01T01:18:30Z</time>
  <course>178.31</course>
  <speed>0.05</speed>
  <fix>3d</fix>
</trkpt>
<trkpt lat="33.8102485" lon="-118.3938792">
  <ele>0.561</ele>
  <time>2026-09-01T01:18:30Z</time>
  <course>187.36</course>
  <speed>0.01</speed>
  <fix>3d</fix>
</trkpt>
<trkpt lat="33.810256" lon="-118.3938931">
  <ele>2.04</ele>
  <time>2026-09-01T01:18:30Z</time>
  <course>171.61</course>
  <speed>0.05</speed>
  <fix>3d</fix>
</trkpt>
<trkpt lat="33.8102485" lon="-118.3938792">
  <ele>0.562</ele>
  <time>2026-09-01T01:18:30Z</time>
  <course>187.35</course>
  <speed>0.0</speed>
  <fix>3d</fix>
</trkpt>
<trkpt lat="33.810256" lon="-118.3938931">
  <ele>2.04</ele>
  <time>2026-09-01T01:18:30Z</time>
  <course>171.61</course>
  <speed>0.05</speed>
  <fix>3d</fix>
</trkpt>
<trkpt lat="33.8102485" lon="-118.3938792">
  <ele>0.562</ele>
  <time>2026-09-01T01:18:30Z</time>
  <course>187.36</course>
  <speed>0.0</speed>
  <fix>3d</fix>
</trkpt>
<trkpt lat="33.8102548" lon="-118.3938947">
  <ele>2.03</ele>
  <time>2026-09-01T01:18:30Z</time>
  <course>160.15</course>
  <speed>0.04</speed>
  <fix>3d</fix>
</trkpt>
<trkpt lat="33.8102484" lon="-118.3938793">
  <ele>0.56</ele>
  <time>2026-09-01T01:18:30Z</time>
  <course>187.33</course>
  <speed>0.0</speed>
  <fix>3d</fix>
</trkpt>
<trkpt lat="33.8102548" lon="-118.3938947">
  <ele>2.03</ele>
  <time>2026-09-01T01:18:30Z</time>
  <course>160.15</course>
  <speed>0.04</speed>
  <fix>3d</fix>
</trkpt>
<trkpt lat="33.8102484" lon="-118.3938793">
  <ele>0.558</ele>
  <time>2026-09-01T01:18:30Z</time>
  <course>187.33</course>
  <speed>0.01</speed>
  <fix>3d</fix>
</trkpt>
<trkpt lat="33.8102534" lon="-118.3938961">
  <ele>2.02</ele>
  <time>2026-09-01T01:18:30Z</time>
  <course>146.42</course>
  <speed>0.04</speed>
  <fix>3d</fix>
</trkpt>
<trkpt lat="33.8102484" lon="-118.3938794">
  <ele>0.557</ele>
  <time>2026-09-01T01:18:30Z</time>
  <course>187.3</course>
  <speed>0.01</speed>
  <fix>3d</fix>
</trkpt>
<trkpt lat="33.8102534" lon="-118.3938961">
  <ele>2.02</ele>
  <time>2026-09-01T01:18:30Z</time>
  <course>146.42</course>
  <speed>0.04</speed>
  <fix>3d</fix>
</trkpt>
<trkpt lat="33.8102484" lon="-118.3938794">
  <ele>0.556</ele>
  <time>2026-09-01T01:18:30Z</time>
  <course>187.32</course>
  <speed>0.01</speed>
  <fix>3d</fix>
</trkpt>
<trkpt lat="33.8102519" lon="-118.3938974">
  <ele>2.02</ele>
  <time>2026-09-01T01:18:30Z</time>
  <course>133.39</course>
  <speed>0.04</speed>
  <fix>3d</fix>
</trkpt>
<trkpt lat="33.8102484" lon="-118.3938794">
  <ele>0.556</ele>
  <time>2026-09-01T01:18:30Z</time>
  <course>187.34</course>
  <speed>0.022360679774997897</speed>
  <fix>3d</fix>
</trkpt>
<trkpt lat="33.8102519" lon="-118.3938974">
  <ele>2.02</ele>
  <time>2026-09-01T01:18:30Z</time>
  <course>133.39</course>
  <speed>0.04</speed>
  <fix>3d</fix>
</trkpt>
<trkpt lat="33.8102484" lon="-118.3938794">
  <ele>0.555</ele>
  <time>2026-09-01T01:18:30Z</time>
  <course>187.37</course>
  <speed>0.022360679774997897</speed>
  <fix>3d</fix>
</trkpt>
<trkpt lat="33.8102503" lon="-118.3938984">
  <ele>2.01</ele>
  <time>2026-09-01T01:18:30Z</time>
  <course>121.92</course>
  <speed>0.04</speed>
  <fix>3d</fix>
</trkpt>
<trkpt lat="33.8102484" lon="-118.3938794">
  <ele>0.555</ele>
  <time>2026-09-01T01:18:30Z</time>
  <course>187.39</course>
  <speed>0.022360679774997897</speed>
  <fix>3d</fix>
</trkpt>
<trkpt lat="33.8102503" lon="-118.3938984">
  <ele>2.01</ele>
  <time>2026-09-01T01:18:30Z</time>
  <course>121.92</course>
  <speed>0.04</speed>
  <fix>3d</fix>
</trkpt>
<trkpt lat="33.8102483" lon="-118.3938794">
  <ele>0.557</ele>
  <time>2026-09-01T01:18:30Z</time>
  <course>187.4</course>
  <speed>0.022360679774997897</speed>
  <fix>3d</fix>
</trkpt>
<trkpt lat="33.8102486" lon="-118.3938992">
  <ele>2.01</ele>
  <time>2026-09-01T01:18:30Z</time>
  <course>112.28</course>
  <speed>0.05</speed>
  <fix>3d</fix>
</trkpt>
<trkpt lat="33.8102483" lon="-118.3938794">
  <ele>0.558</ele>
  <time>2026-09-01T01:18:30Z</time>
  <course>187.4</course>
  <speed>0.03605551275463989</speed>
  <fix>3d</fix>
</trkpt>
<trkpt lat="33.8102486" lon="-118.3938992">
  <ele>2.01</ele>
  <time>2026-09-01T01:18:30Z</time>
  <course>112.28</course>
  <speed>0.05</speed>
  <fix>3d</fix>
</trkpt>
<trkpt lat="33.8102483" lon="-118.3938794">
  <ele>0.56</ele>
  <time>2026-09-01T01:18:30Z</time>
  <course>187.4</course>
  <speed>0.03605551275463989</speed>
  <fix>3d</fix>
</trkpt>
<trkpt lat="33.8102469" lon="-118.3938998">
  <ele>2.0</ele>
  <time>2026-09-01T01:18:30Z</time>
  <course>104.72</course>
  <speed>0.05</speed>
  <fix>3d</fix>
</trkpt>
<trkpt lat="33.8102483" lon="-118.3938794">
  <ele>0.56</ele>
  <time>2026-09-01T01:18:30Z</time>
  <course>187.4</course>
  <speed>0.03605551275463989</speed>
  <fix>3d</fix>
</trkpt>
<trkpt lat="33.8102469" lon="-118.3938998">
  <ele>2.0</ele>
  <time>2026-09-01T01:18:30Z</time>
  <course>104.72</course>
  <speed>0.05</speed>
  <fix>3d</fix>
</trkpt>
<trkpt lat="33.8102483" lon="-118.3938794">
  <ele>0.56</ele>
  <time>2026-09-01T01:18:30Z</time>
  <course>187.4</course>
  <speed>0.03605551275463989</speed>
  <fix>3d</fix>
</trkpt>
<trkpt lat="33.8102451" lon="-118.3939002">
  <ele>1.99</ele>
  <time>2026-09-01T01:18:30Z</time>
  <course>98.33</course>
  <speed>0.05</speed>
  <fix>3d</fix>
</trkpt>
<trkpt lat="33.8102482" lon="-118.3938794">
  <ele>0.558</ele>
  <time>2026-09-01T01:18:30Z</time>
  <course>187.39</course>
  <speed>0.03605551275463989</speed>
  <fix>3d</fix>
</trkpt>
<trkpt lat="33.8102451" lon="-118.3939002">
  <ele>1.99</ele>
  <time>2026-09-01T01:18:30Z</time>
  <course>98.33</course>
  <speed>0.05</speed>
  <fix>3d</fix>
</trkpt>
<trkpt lat="33.8102482" lon="-118.3938794">
  <ele>0.557</ele>
  <time>2026-09-01T01:18:30Z</time>
  <course>187.36</course>
  <speed>0.05</speed>
  <fix>3d</fix>
</trkpt>
<trkpt lat="33.8102433" lon="-118.3939004">
  <ele>1.99</ele>
  <time>2026-09-01T01:18:30Z</time>
  <course>102.04</course>
  <speed>0.06</speed>
  <fix>3d</fix>
</trkpt>
<trkpt lat="33.8102481" lon="-118.3938794">
  <ele>0.556</ele>
  <time>2026-09-01T01:18:30Z</time>
  <course>187.33</course>
  <speed>0.15297058540778355</speed>
  <fix>3d</fix>
</trkpt>
<trkpt lat="33.8102433" lon="-118.3939004">
  <ele>1.99</ele>
  <time>2026-09-01T01:18:30Z</time>
  <course>102.04</course>
  <speed>0.06</speed>
  <fix>3d</fix>
</trkpt>
<trkpt lat="33.8102479" lon="-118.3938794">
  <ele>0.555</ele>
  <time>2026-09-01T01:18:30Z</time>
  <course>187.32</course>
  <speed>0.34</speed>
  <fix>3d</fix>
</trkpt>
<trkpt lat="33.8102414" lon="-118.3939003">
  <ele>1.98</ele>
  <time>2026-09-01T01:18:30Z</time>
  <course>156.86</course>
  <speed>0.14</speed>
  <fix>3d</fix>
</trkpt>
<trkpt lat="33.8102475" lon="-118.3938794">
  <ele>0.553</ele>
  <time>2026-09-01T01:18:30Z</time>
  <course>187.32</course>
  <speed>0.5300943312279428</speed>
  <fix>3d</fix>
</trkpt>
<trkpt lat="33.8102414" lon="-118.3939003">
  <ele>1.98</ele>
  <time>2026-09-01T01:18:30Z</time>
  <course>156.86</course>
  <speed>0.14</speed>
  <fix>3d</fix>
</trkpt>
<trkpt lat="33.8102469" lon="-118.3938794">
  <ele>0.554</ele>
  <time>2026-09-01T01:18:30Z</time>
  <course>187.33</course>
  <speed>0.711125867902441</speed>
  <fix>3d</fix>
</trkpt>
<trkpt lat="33.8102392" lon="-118.3939001">
  <ele>1.97</ele>
  <time>2026-09-01T01:18:30Z</time>
  <course>176.73</course>
  <speed>0.43</speed>
  <fix>3d</fix>
</trkpt>
<trkpt lat="33.8102462" lon="-118.3938795">
  <ele>0.555</ele>
  <time>2026-09-01T01:18:30Z</time>
  <course>187.33</course>
  <speed>0.8820430828479978</speed>
  <fix>3d</fix>
</trkpt>
<trkpt lat="33.8102392" lon="-118.3939001">
  <ele>1.97</ele>
  <time>2026-09-01T01:18:30Z</time>
  <course>176.73</course>
  <speed>0.43</speed>
  <fix>3d</fix>
</trkpt>
<trkpt lat="33.8102454" lon="-118.3938796">
  <ele>0.557</ele>
  <time>2026-09-01T01:18:30Z</time>
  <course>187.34</course>
  <speed>1.0031948963187562</speed>
  <fix>3d</fix>
</trkpt>
<trkpt lat="33.8102363" lon="-118.3938997">
  <ele>1.97</ele>
  <time>2026-09-01T01:18:30Z</time>
  <course>181.75</course>
  <speed>0.8</speed>
  <fix>3d</fix>
</trkpt>
<trkpt lat="33.8102446" lon="-118.3938797">
  <ele>0.559</ele>
  <time>2026-09-01T01:18:30Z</time>
  <course>187.36</course>
  <speed>1.104536101718726</speed>
  <fix>3d</fix>
</trkpt>
<trkpt lat="33.8102363" lon="-118.3938997">
  <ele>1.97</ele>
  <time>2026-09-01T01:18:30Z</time>
  <course>181.75</course>
  <speed>0.8</speed>
  <fix>3d</fix>
</trkpt>
<trkpt lat="33.8102436" lon="-118.3938798">
  <ele>0.561</ele>
  <time>2026-09-01T01:18:30Z</time>
  <course>187.36</course>
  <speed>1.186086000254619</speed>
  <fix>3d</fix>
</trkpt>
<trkpt lat="33.8102328" lon="-118.3938992">
  <ele>1.96</ele>
  <time>2026-09-01T01:18:30Z</time>
  <course>183.59</course>
  <speed>1.08</speed>
  <fix>3d</fix>
</trkpt>
<trkpt lat="33.8102426" lon="-118.3938799">
  <ele>0.561</ele>
  <time>2026-09-01T01:18:30Z</time>
  <course>187.36</course>
  <speed>1.2567418191498205</speed>
  <fix>3d</fix>
</trkpt>
<trkpt lat="33.8102328" lon="-118.3938992">
  <ele>1.96</ele>
  <time>2026-09-01T01:18:30Z</time>
  <course>183.59</course>
  <speed>1.08</speed>
  <fix>3d</fix>
</trkpt>
<trkpt lat="33.8102415" lon="-118.3938801">
  <ele>0.559</ele>
  <time>2026-09-01T01:18:30Z</time>
  <course>187.35</course>
  <speed>1.317459676802292</speed>
  <fix>3d</fix>
</trkpt>
<trkpt lat="33.810229" lon="-118.3938986">
  <ele>1.95</ele>
  <time>2026-09-01T01:18:30Z</time>
  <course>184.47</course>
  <speed>1.27</speed>
  <fix>3d</fix>
</trkpt>
<trkpt lat="33.8102403" lon="-118.3938803">
  <ele>0.557</ele>
  <time>2026-09-01T01:18:30Z</time>
  <course>187.34</course>
  <speed>1.3583077707206124</speed>
  <fix>3d</fix>
</trkpt>
<trkpt lat="33.810229" lon="-118.3938986">
  <ele>1.95</ele>
  <time>2026-09-01T01:18:30Z</time>
  <course>184.47</course>
  <speed>1.27</speed>
  <fix>3d</fix>
</trkpt>
<trkpt lat="33.810239" lon="-118.3938805">
  <ele>0.556</ele>
  <time>2026-09-01T01:18:30Z</time>
  <course>187.33</course>
  <speed>1.4091131963046828</speed>
  <fix>3d</fix>
</trkpt>
<trkpt lat="33.810225" lon="-118.3938979">
  <ele>1.95</ele>
  <time>2026-09-01T01:18:30Z</time>
  <course>184.93</course>
  <speed>1.4</speed>
  <fix>3d</fix>
</trkpt>
<trkpt lat="33.8102377" lon="-118.3938806">
  <ele>0.555</ele>
  <time>2026-09-01T01:18:30Z</time>
  <course>187.32</course>
  <speed>1.438923208513922</speed>
  <fix>3d</fix>
</trkpt>
<trkpt lat="33.810225" lon="-118.3938979">
  <ele>1.95</ele>
  <time>2026-09-01T01:18:30Z</time>
  <course>184.93</course>
  <speed>1.4</speed>
  <fix>3d</fix>
</trkpt>
<trkpt lat="33.8102364" lon="-118.3938808">
  <ele>0.555</ele>
  <time>2026-09-01T01:18:31Z</time>
  <course>187.31</course>
  <speed>1.469863939281456</speed>
  <fix>3d</fix>
</trkpt>
<trkpt lat="33.8102209" lon="-118.393897">
  <ele>1.94</ele>
  <time>2026-09-01T01:18:31Z</time>
  <course>185.25</course>
  <speed>1.49</speed>
  <fix>3d</fix>
</trkpt>
<trkpt lat="33.810235" lon="-118.393881">
  <ele>0.555</ele>
  <time>2026-09-01T01:18:31Z</time>
  <course>187.3</course>
  <speed>1.4897315194356329</speed>
  <fix>3d</fix>
</trkpt>
<trkpt lat="33.8102209" lon="-118.393897">
  <ele>1.94</ele>
  <time>2026-09-01T01:18:31Z</time>
  <course>185.25</course>
  <speed>1.49</speed>
  <fix>3d</fix>
</trkpt>
<trkpt lat="33.8102336" lon="-118.3938813">
  <ele>0.554</ele>
  <time>2026-09-01T01:18:31Z</time>
  <course>187.3</course>
  <speed>1.5107613974417007</speed>
  <fix>3d</fix>
</trkpt>
<trkpt lat="33.8102167" lon="-118.393896">
  <ele>1.92</ele>
  <time>2026-09-01T01:18:31Z</time>
  <course>185.53</course>
  <speed>1.56</speed>
  <fix>3d</fix>
</trkpt>
<trkpt lat="33.8102321" lon="-118.3938815">
  <ele>0.554</ele>
  <time>2026-09-01T01:18:31Z</time>
  <course>187.3</course>
  <speed>1.5306207890917987</speed>
  <fix>3d</fix>
</trkpt>
<trkpt lat="33.8102167" lon="-118.393896">
  <ele>1.92</ele>
  <time>2026-09-01T01:18:31Z</time>
  <course>185.53</course>
  <speed>1.56</speed>
  <fix>3d</fix>
</trkpt>
<trkpt lat="33.8102306" lon="-118.3938817">
  <ele>0.554</ele>
  <time>2026-09-01T01:18:31Z</time>
  <course>187.3</course>
  <speed>1.5417522498767433</speed>
  <fix>3d</fix>
</trkpt>
<trkpt lat="33.8102126" lon="-118.3938948">
  <ele>1.92</ele>
  <time>2026-09-01T01:18:31Z</time>
  <course>185.78</course>
  <speed>1.6</speed>
  <fix>3d</fix>
</trkpt>
<trkpt lat="33.8102291" lon="-118.3938819">
  <ele>0.554</ele>
  <time>2026-09-01T01:18:31Z</time>
  <course>187.3</course>
  <speed>1.5516765126791086</speed>
  <fix>3d</fix>
</trkpt>
<trkpt lat="33.8102126" lon="-118.3938948">
  <ele>1.92</ele>
  <time>2026-09-01T01:18:31Z</time>
  <course>185.78</course>
  <speed>1.6</speed>
  <fix>3d</fix>
</trkpt>
<trkpt lat="33.8102276" lon="-118.3938821">
  <ele>0.555</ele>
  <time>2026-09-01T01:18:31Z</time>
  <course>187.29</course>
  <speed>1.5628499608087785</speed>
  <fix>3d</fix>
</trkpt>
<trkpt lat="33.8102085" lon="-118.3938936">
  <ele>1.92</ele>
  <time>2026-09-01T01:18:31Z</time>
  <course>186.02</course>
  <speed>1.63</speed>
  <fix>3d</fix>
</trkpt>
<trkpt lat="33.810226" lon="-118.3938824">
  <ele>0.556</ele>
  <time>2026-09-01T01:18:31Z</time>
  <course>187.3</course>
  <speed>1.5628499608087785</speed>
  <fix>3d</fix>
</trkpt>
<trkpt lat="33.8102085" lon="-118.3938936">
  <ele>1.92</ele>
  <time>2026-09-01T01:18:31Z</time>
  <course>186.02</course>
  <speed>1.63</speed>
  <fix>3d</fix>
</trkpt>
<trkpt lat="33.8102245" lon="-118.3938826">
  <ele>0.556</ele>
  <time>2026-09-01T01:18:31Z</time>
  <course>187.3</course>
  <speed>1.572768260107</speed>
  <fix>3d</fix>
</trkpt>
<trkpt lat="33.8102046" lon="-118.3938922">
  <ele>1.91</ele>
  <time>2026-09-01T01:18:31Z</time>
  <course>186.28</course>
  <speed>1.64</speed>
  <fix>3d</fix>
</trkpt>
<trkpt lat="33.810223" lon="-118.3938828">
  <ele>0.558</ele>
  <time>2026-09-01T01:18:31Z</time>
  <course>187.31</course>
  <speed>1.5826875876179733</speed>
  <fix>3d</fix>
</trkpt>
<trkpt lat="33.8102046" lon="-118.3938922">
  <ele>1.91</ele>
  <time>2026-09-01T01:18:31Z</time>
  <course>186.28</course>
  <speed>1.64</speed>
  <fix>3d</fix>
</trkpt>
<trkpt lat="33.8102214" lon="-118.393883">
  <ele>0.559</ele>
  <time>2026-09-01T01:18:31Z</time>
  <course>187.31</course>
  <speed>1.5938946012832844</speed>
  <fix>3d</fix>
</trkpt>
<trkpt lat="33.8102007" lon="-118.3938907">
  <ele>1.91</ele>
  <time>2026-09-01T01:18:31Z</time>
  <course>186.5</course>
  <speed>1.65</speed>
  <fix>3d</fix>
</trkpt>
<trkpt lat="33.8102199" lon="-118.3938833">
  <ele>0.561</ele>
  <time>2026-09-01T01:18:31Z</time>
  <course>187.31</course>
  <speed>1.5938946012832844</speed>
  <fix>3d</fix>
</trkpt>
<trkpt lat="33.8102007" lon="-118.3938907">
  <ele>1.91</ele>
  <time>2026-09-01T01:18:31Z</time>
  <course>186.5</course>
  <speed>1.65</speed>
  <fix>3d</fix>
</trkpt>
<trkpt lat="33.8102183" lon="-118.3938835">
  <ele>0.562</ele>
  <time>2026-09-01T01:18:31Z</time>
  <course>187.31</course>
  <speed>1.603807968554839</speed>
  <fix>3d</fix>
</trkpt>
<trkpt lat="33.8101971" lon="-118.3938892">
  <ele>1.9</ele>
  <time>2026-09-01T01:18:31Z</time>
  <course>186.68</course>
  <speed>1.66</speed>
  <fix>3d</fix>
</trkpt>
<trkpt lat="33.8102168" lon="-118.3938837">
  <ele>0.562</ele>
  <time>2026-09-01T01:18:31Z</time>
  <course>187.31</course>
  <speed>1.603807968554839</speed>
  <fix>3d</fix>
</trkpt>
<trkpt lat="33.8101971" lon="-118.3938892">
  <ele>1.9</ele>
  <time>2026-09-01T01:18:31Z</time>
  <course>186.68</course>
  <speed>1.66</speed>
  <fix>3d</fix>
</trkpt>
<trkpt lat="33.8102152" lon="-118.393884">
  <ele>0.561</ele>
  <time>2026-09-01T01:18:31Z</time>
  <course>187.32</course>
  <speed>1.6150541786577934</speed>
  <fix>3d</fix>
</trkpt>
<trkpt lat="33.8101936" lon="-118.3938875">
  <ele>1.89</ele>
  <time>2026-09-01T01:18:31Z</time>
  <course>186.83</course>
  <speed>1.67</speed>
  <fix>3d</fix>
</trkpt>
<trkpt lat="33.8102137" lon="-118.3938842">
  <ele>0.56</ele>
  <time>2026-09-01T01:18:31Z</time>
  <course>187.32</course>
  <speed>1.6249615380063616</speed>
  <fix>3d</fix>
</trkpt>
<trkpt lat="33.8101936" lon="-118.3938875">
  <ele>1.89</ele>
  <time>2026-09-01T01:18:31Z</time>
  <course>186.83</course>
  <speed>1.67</speed>
  <fix>3d</fix>
</trkpt>
<trkpt lat="33.8102121" lon="-118.3938844">
  <ele>0.559</ele>
  <time>2026-09-01T01:18:31Z</time>
  <course>187.32</course>
  <speed>1.6249615380063616</speed>
  <fix>3d</fix>
</trkpt>
<trkpt lat="33.8101902" lon="-118.3938858">
  <ele>1.88</ele>
  <time>2026-09-01T01:18:31Z</time>
  <course>186.94</course>
  <speed>1.68</speed>
  <fix>3d</fix>
</trkpt>
<trkpt lat="33.8102106" lon="-118.3938847">
  <ele>0.557</ele>
  <time>2026-09-01T01:18:31Z</time>
  <course>187.32</course>
  <speed>1.6249615380063616</speed>
  <fix>3d</fix>
</trkpt>
<trkpt lat="33.8101902" lon="-118.3938858">
  <ele>1.88</ele>
  <time>2026-09-01T01:18:31Z</time>
  <course>186.94</course>
  <speed>1.68</speed>
  <fix>3d</fix>
</trkpt>
<trkpt lat="33.810209" lon="-118.3938849">
  <ele>0.555</ele>
  <time>2026-09-01T01:18:31Z</time>
  <course>187.32</course>
  <speed>1.6362457028209425</speed>
  <fix>3d</fix>
</trkpt>
<trkpt lat="33.8101869" lon="-118.3938841">
  <ele>1.87</ele>
  <time>2026-09-01T01:18:31Z</time>
  <course>187.06</course>
  <speed>1.69</speed>
  <fix>3d</fix>
</trkpt>
<trkpt lat="33.8102074" lon="-118.3938851">
  <ele>0.554</ele>
  <time>2026-09-01T01:18:31Z</time>
  <course>187.32</course>
  <speed>1.6362457028209425</speed>
  <fix>3d</fix>
</trkpt>
<trkpt lat="33.8101869" lon="-118.3938841">
  <ele>1.87</ele>
  <time>2026-09-01T01:18:31Z</time>
  <course>187.06</course>
  <speed>1.69</speed>
  <fix>3d</fix>
</trkpt>
<trkpt lat="33.8102058" lon="-118.3938854">
  <ele>0.554</ele>
  <time>2026-09-01T01:18:31Z</time>
  <course>187.32</course>
  <speed>1.6362457028209425</speed>
  <fix>3d</fix>
</trkpt>
<trkpt lat="33.8101839" lon="-118.3938824">
  <ele>1.86</ele>
  <time>2026-09-01T01:18:31Z</time>
  <course>187.25</course>
  <speed>1.69</speed>
  <fix>3d</fix>
</trkpt>
<trkpt lat="33.8102042" lon="-118.3938856">
  <ele>0.554</ele>
  <time>2026-09-01T01:18:31Z</time>
  <course>187.32</course>
  <speed>1.6376812876747417</speed>
  <fix>3d</fix>
</trkpt>
<trkpt lat="33.8101839" lon="-118.3938824">
  <ele>1.86</ele>
  <time>2026-09-01T01:18:31Z</time>
  <course>187.25</course>
  <speed>1.69</speed>
  <fix>3d</fix>
</trkpt>
<trkpt lat="33.8102027" lon="-118.3938858">
  <ele>0.553</ele>
  <time>2026-09-01T01:18:31Z</time>
  <course>187.33</course>
  <speed>1.6376812876747417</speed>
  <fix>3d</fix>
</trkpt>
<trkpt lat="33.8101811" lon="-118.3938807">
  <ele>1.86</ele>
  <time>2026-09-01T01:18:31Z</time>
  <course>187.46</course>
  <speed>1.69</speed>
  <fix>3d</fix>
</trkpt>
<trkpt lat="33.8102011" lon="-118.3938861">
  <ele>0.553</ele>
  <time>2026-09-01T01:18:31Z</time>
  <course>187.33</course>
  <speed>1.6376812876747417</speed>
  <fix>3d</fix>
</trkpt>
<trkpt lat="33.8101811" lon="-118.3938807">
  <ele>1.86</ele>
  <time>2026-09-01T01:18:31Z</time>
  <course>187.46</course>
  <speed>1.69</speed>
  <fix>3d</fix>
</trkpt>
<trkpt lat="33.8101995" lon="-118.3938863">
  <ele>0.553</ele>
  <time>2026-09-01T01:18:31Z</time>
  <course>187.33</course>
  <speed>1.647573974060042</speed>
  <fix>3d</fix>
</trkpt>
<trkpt lat="33.8101784" lon="-118.393879">
  <ele>1.85</ele>
  <time>2026-09-01T01:18:31Z</time>
  <course>187.59</course>
  <speed>1.7</speed>
  <fix>3d</fix>
</trkpt>
<trkpt lat="33.810198" lon="-118.3938866">
  <ele>0.554</ele>
  <time>2026-09-01T01:18:31Z</time>
  <course>187.33</course>
  <speed>1.647573974060042</speed>
  <fix>3d</fix>
</trkpt>
<trkpt lat="33.8101784" lon="-118.393879">
  <ele>1.85</ele>
  <time>2026-09-01T01:18:31Z</time>
  <course>187.59</course>
  <speed>1.7</speed>
  <fix>3d</fix>
</trkpt>
<trkpt lat="33.8101964" lon="-118.3938868">
  <ele>0.554</ele>
  <time>2026-09-01T01:18:31Z</time>
  <course>187.33</course>
  <speed>1.6589454481688057</speed>
  <fix>3d</fix>
</trkpt>
<trkpt lat="33.8101758" lon="-118.3938775">
  <ele>1.84</ele>
  <time>2026-09-01T01:18:31Z</time>
  <course>187.68</course>
  <speed>1.7</speed>
  <fix>3d</fix>
</trkpt>
<trkpt lat="33.8101948" lon="-118.393887">
  <ele>0.555</ele>
  <time>2026-09-01T01:18:31Z</time>
  <course>187.33</course>
  <speed>1.6589454481688057</speed>
  <fix>3d</fix>
</trkpt>
<trkpt lat="33.8101758" lon="-118.3938775">
  <ele>1.84</ele>
  <time>2026-09-01T01:18:31Z</time>
  <course>187.68</course>
  <speed>1.7</speed>
  <fix>3d</fix>
</trkpt>
<trkpt lat="33.8101933" lon="-118.3938873">
  <ele>0.555</ele>
  <time>2026-09-01T01:18:31Z</time>
  <course>187.33</course>
  <speed>1.6589454481688057</speed>
  <fix>3d</fix>
</trkpt>
<trkpt lat="33.8101734" lon="-118.393876">
  <ele>1.83</ele>
  <time>2026-09-01T01:18:31Z</time>
  <course>187.76</course>
  <speed>1.71</speed>
  <fix>3d</fix>
</trkpt>
<trkpt lat="33.8101917" lon="-118.3938875">
  <ele>0.555</ele>
  <time>2026-09-01T01:18:31Z</time>
  <course>187.33</course>
  <speed>1.6589454481688057</speed>
  <fix>3d</fix>
</trkpt>
<trkpt lat="33.8101734" lon="-118.393876">
  <ele>1.83</ele>
  <time>2026-09-01T01:18:31Z</time>
  <course>187.76</course>
  <speed>1.71</speed>
  <fix>3d</fix>
</trkpt>
<trkpt lat="33.8101901" lon="-118.3938877">
  <ele>0.554</ele>
  <time>2026-09-01T01:18:31Z</time>
  <course>187.33</course>
  <speed>1.6589454481688057</speed>
  <fix>3d</fix>
</trkpt>
<trkpt lat="33.8101712" lon="-118.3938746">
  <ele>1.83</ele>
  <time>2026-09-01T01:18:31Z</time>
  <course>187.87</course>
  <speed>1.71</speed>
  <fix>3d</fix>
</trkpt>
<trkpt lat="33.8101885" lon="-118.393888">
  <ele>0.554</ele>
  <time>2026-09-01T01:18:31Z</time>
  <course>187.33</course>
  <speed>1.6604818577750253</speed>
  <fix>3d</fix>
</trkpt>
<trkpt lat="33.8101712" lon="-118.3938746">
  <ele>1.83</ele>
  <time>2026-09-01T01:18:31Z</time>
  <course>187.87</course>
  <speed>1.71</speed>
  <fix>3d</fix>
</trkpt>
<trkpt lat="33.810187" lon="-118.3938882">
  <ele>0.553</ele>
  <time>2026-09-01T01:18:31Z</time>
  <course>187.33</course>
  <speed>1.6604818577750253</speed>
  <fix>3d</fix>
</trkpt>
<trkpt lat="33.8101692" lon="-118.3938733">
  <ele>1.82</ele>
  <time>2026-09-01T01:18:31Z</time>
  <course>188.01</course>
  <speed>1.71</speed>
  <fix>3d</fix>
</trkpt>
<trkpt lat="33.8101854" lon="-118.3938884">
  <ele>0.553</ele>
  <time>2026-09-01T01:18:31Z</time>
  <course>187.33</course>
  <speed>1.6604818577750253</speed>
  <fix>3d</fix>
</trkpt>
<trkpt lat="33.8101692" lon="-118.3938733">
  <ele>1.82</ele>
  <time>2026-09-01T01:18:31Z</time>
  <course>188.01</course>
  <speed>1.71</speed>
  <fix>3d</fix>
</trkpt>
<trkpt lat="33.8101838" lon="-118.3938887">
  <ele>0.554</ele>
  <time>2026-09-01T01:18:31Z</time>
  <course>187.33</course>
  <speed>1.670359242797788</speed>
  <fix>3d</fix>
</trkpt>
<trkpt lat="33.8101673" lon="-118.3938722">
  <ele>1.82</ele>
  <time>2026-09-01T01:18:31Z</time>
  <course>188.17</course>
  <speed>1.72</speed>
  <fix>3d</fix>
</trkpt>
<trkpt lat="33.8101822" lon="-118.3938889">
  <ele>0.556</ele>
  <time>2026-09-01T01:18:31Z</time>
  <course>187.33</course>
  <speed>1.6719449751711328</speed>
  <fix>3d</fix>
</trkpt>
<trkpt lat="33.8101673" lon="-118.3938722">
  <ele>1.82</ele>
  <time>2026-09-01T01:18:31Z</time>
  <course>188.17</course>
  <speed>1.72</speed>
  <fix>3d</fix>
</trkpt>
<trkpt lat="33.8101806" lon="-118.3938891">
  <ele>0.558</ele>
  <time>2026-09-01T01:18:31Z</time>
  <course>187.34</course>
  <speed>1.6719449751711328</speed>
  <fix>3d</fix>
</trkpt>
<trkpt lat="33.8101655" lon="-118.3938712">
  <ele>1.82</ele>
  <time>2026-09-01T01:18:31Z</time>
  <course>188.34</course>
  <speed>1.72</speed>
  <fix>3d</fix>
</trkpt>
<trkpt lat="33.8101791" lon="-118.3938894">
  <ele>0.559</ele>
  <time>2026-09-01T01:18:31Z</time>
  <course>187.34</course>
  <speed>1.6719449751711328</speed>
  <fix>3d</fix>
</trkpt>
<trkpt lat="33.8101655" lon="-118.3938712">
  <ele>1.82</ele>
  <time>2026-09-01T01:18:31Z</time>
  <course>188.34</course>
  <speed>1.72</speed>
  <fix>3d</fix>
</trkpt>
<trkpt lat="33.8101775" lon="-118.3938896">
  <ele>0.56</ele>
  <time>2026-09-01T01:18:31Z</time>
  <course>187.34</course>
  <speed>1.6719449751711328</speed>
  <fix>3d</fix>
</trkpt>
<trkpt lat="33.8101638" lon="-118.3938704">
  <ele>1.81</ele>
  <time>2026-09-01T01:18:31Z</time>
  <course>188.51</course>
  <speed>1.72</speed>
  <fix>3d</fix>
</trkpt>
<trkpt lat="33.8101759" lon="-118.3938898">
  <ele>0.56</ele>
  <time>2026-09-01T01:18:31Z</time>
  <course>187.34</course>
  <speed>1.6735889578985634</speed>
  <fix>3d</fix>
</trkpt>
<trkpt lat="33.8101638" lon="-118.3938704">
  <ele>1.81</ele>
  <time>2026-09-01T01:18:31Z</time>
  <course>188.51</course>
  <speed>1.72</speed>
  <fix>3d</fix>
</trkpt>
<trkpt lat="33.8101743" lon="-118.3938901">
  <ele>0.559</ele>
  <time>2026-09-01T01:18:31Z</time>
  <course>187.33</course>
  <speed>1.642345883180519</speed>
  <fix>3d</fix>
</trkpt>
<trkpt lat="33.8101623" lon="-118.3938697">
  <ele>1.8</ele>
  <time>2026-09-01T01:18:31Z</time>
  <course>188.67</course>
  <speed>1.72</speed>
  <fix>3d</fix>
</trkpt>
<trkpt lat="33.8101728" lon="-118.3938903">
  <ele>0.558</ele>
  <time>2026-09-01T01:18:31Z</time>
  <course>187.33</course>
  <speed>1.5634896865665602</speed>
  <fix>3d</fix>
</trkpt>
<trkpt lat="33.8101623" lon="-118.3938697">
  <ele>1.8</ele>
  <time>2026-09-01T01:18:31Z</time>
  <course>188.67</course>
  <speed>1.72</speed>
  <fix>3d</fix>
</trkpt>
<trkpt lat="33.8101714" lon="-118.3938905">
  <ele>0.558</ele>
  <time>2026-09-01T01:18:31Z</time>
  <course>187.33</course>
  <speed>1.44183910336764</speed>
  <fix>3d</fix>
</trkpt>
<trkpt lat="33.8101609" lon="-118.3938693">
  <ele>1.79</ele>
  <time>2026-09-01T01:18:31Z</time>
  <course>188.86</course>
  <speed>1.64</speed>
  <fix>3d</fix>
</trkpt>
<trkpt lat="33.8101701" lon="-118.3938907">
  <ele>0.558</ele>
  <time>2026-09-01T01:18:31Z</time>
  <course>187.34</course>
  <speed>1.2906587465321728</speed>
  <fix>3d</fix>
</trkpt>
<trkpt lat="33.8101609" lon="-118.3938693">
  <ele>1.79</ele>
  <time>2026-09-01T01:18:31Z</time>
  <course>188.86</course>
  <speed>1.64</speed>
  <fix>3d</fix>
</trkpt>
<trkpt lat="33.8101689" lon="-118.3938909">
  <ele>0.557</ele>
  <time>2026-09-01T01:18:31Z</time>
  <course>187.35</course>
  <speed>1.119866063420086</speed>
  <fix>3d</fix>
</trkpt>
<trkpt lat="33.8101598" lon="-118.393869">
  <ele>1.79</ele>
  <time>2026-09-01T01:18:31Z</time>
  <course>189.18</course>
  <speed>1.42</speed>
  <fix>3d</fix>
</trkpt>
<trkpt lat="33.8101679" lon="-118.3938911">
  <ele>0.557</ele>
  <time>2026-09-01T01:18:31Z</time>
  <course>187.36</course>
  <speed>0.9688137075826292</speed>
  <fix>3d</fix>
</trkpt>
<trkpt lat="33.8101598" lon="-118.393869">
  <ele>1.79</ele>
  <time>2026-09-01T01:18:31Z</time>
  <course>189.18</course>
  <speed>1.42</speed>
  <fix>3d</fix>
</trkpt>
<trkpt lat="33.8101669" lon="-118.3938913">
  <ele>0.557</ele>
  <time>2026-09-01T01:18:31Z</time>
  <course>187.38</course>
  <speed>0.8060397012554654</speed>
  <fix>3d</fix>
</trkpt>
<trkpt lat="33.8101593" lon="-118.3938689">
  <ele>1.78</ele>
  <time>2026-09-01T01:18:31Z</time>
  <course>189.61</course>
  <speed>1.1</speed>
  <fix>3d</fix>
</trkpt>
<trkpt lat="33.8101661" lon="-118.3938915">
  <ele>0.556</ele>
  <time>2026-09-01T01:18:31Z</time>
  <course>187.39</course>
  <speed>0.6824954212300622</speed>
  <fix>3d</fix>
</trkpt>
<trkpt lat="33.8101593" lon="-118.3938689">
  <ele>1.78</ele>
  <time>2026-09-01T01:18:31Z</time>
  <course>189.61</course>
  <speed>1.1</speed>
  <fix>3d</fix>
</trkpt>
<trkpt lat="33.8101654" lon="-118.3938916">
  <ele>0.545</ele>
  <time>2026-09-01T01:18:31Z</time>
  <course>187.4</course>
  <speed>0.5903388857258176</speed>
  <fix>3d</fix>
</trkpt>
<trkpt lat="33.8101593" lon="-118.3938689">
  <ele>1.77</ele>
  <time>2026-09-01T01:18:31Z</time>
  <course>189.71</course>
  <speed>0.8</speed>
  <fix>3d</fix>
</trkpt>
<trkpt lat="33.8101648" lon="-118.3938918">
  <ele>0.514</ele>
  <time>2026-09-01T01:18:31Z</time>
  <course>187.39</course>
  <speed>0.517880295048962</speed>
  <fix>3d</fix>
</trkpt>
<trkpt lat="33.8101593" lon="-118.3938689">
  <ele>1.77</ele>
  <time>2026-09-01T01:18:31Z</time>
  <course>189.71</course>
  <speed>0.8</speed>
  <fix>3d</fix>
</trkpt>
<trkpt lat="33.8101647" lon="-118.3938918">
  <ele>0.513</ele>
  <time>2026-09-01T01:18:31Z</time>
  <course>187.39</course>
  <speed>0.517880295048962</speed>
  <fix>3d</fix>
</trkpt>
<trkpt lat="33.8101642" lon="-118.3938919">
  <ele>0.464</ele>
  <time>2026-09-01T01:18:31Z</time>
  <course>187.38</course>
  <speed>0.4570557952810576</speed>
  <fix>3d</fix>
</trkpt>
<trkpt lat="33.8101599" lon="-118.3938689">
  <ele>1.73</ele>
  <time>2026-09-01T01:18:31Z</time>
  <course>188.85</course>
  <speed>0.58</speed>
  <fix>3d</fix>
</trkpt>
<trkpt lat="33.8101642" lon="-118.3938919">
  <ele>0.462</ele>
  <time>2026-09-01T01:18:31Z</time>
  <course>187.38</course>
  <speed>0.4570557952810576</speed>
  <fix>3d</fix>
</trkpt>
<trkpt lat="33.8101637" lon="-118.393892">
  <ele>0.399</ele>
  <time>2026-09-01T01:18:31Z</time>
  <course>187.38</course>
  <speed>0.3945883931389772</speed>
  <fix>3d</fix>
</trkpt>
<trkpt lat="33.8101599" lon="-118.3938689">
  <ele>1.73</ele>
  <time>2026-09-01T01:18:31Z</time>
  <course>188.85</course>
  <speed>0.58</speed>
  <fix>3d</fix>
</trkpt>
<trkpt lat="33.8101637" lon="-118.393892">
  <ele>0.397</ele>
  <time>2026-09-01T01:18:31Z</time>
  <course>187.38</course>
  <speed>0.3945883931389772</speed>
  <fix>3d</fix>
</trkpt>
<trkpt lat="33.8101633" lon="-118.3938921">
  <ele>0.325</ele>
  <time>2026-09-01T01:18:31Z</time>
  <course>187.37</course>
  <speed>0.34365680554879163</speed>
  <fix>3d</fix>
</trkpt>
<trkpt lat="33.8101608" lon="-118.3938691">
  <ele>1.64</ele>
  <time>2026-09-01T01:18:31Z</time>
  <course>187.02</course>
  <speed>0.44</speed>
  <fix>3d</fix>
</trkpt>
<trkpt lat="33.8101633" lon="-118.3938921">
  <ele>0.323</ele>
  <time>2026-09-01T01:18:31Z</time>
  <course>187.37</course>
  <speed>0.34365680554879163</speed>
  <fix>3d</fix>
</trkpt>
<trkpt lat="33.8101629" lon="-118.3938922">
  <ele>0.243</ele>
  <time>2026-09-01T01:18:31Z</time>
  <course>187.35</course>
  <speed>0.3026549190084311</speed>
  <fix>3d</fix>
</trkpt>
<trkpt lat="33.8101608" lon="-118.3938691">
  <ele>1.64</ele>
  <time>2026-09-01T01:18:31Z</time>
  <course>187.02</course>
  <speed>0.44</speed>
  <fix>3d</fix>
</trkpt>
<trkpt lat="33.8101629" lon="-118.3938922">
  <ele>0.24</ele>
  <time>2026-09-01T01:18:31Z</time>
  <course>187.35</course>
  <speed>0.3026549190084311</speed>
  <fix>3d</fix>
</trkpt>
<trkpt lat="33.8101626" lon="-118.3938923">
  <ele>0.154</ele>
  <time>2026-09-01T01:18:31Z</time>
  <course>187.32</course>
  <speed>0.27294688127912364</speed>
  <fix>3d</fix>
</trkpt>
<trkpt lat="33.8101619" lon="-118.3938694">
  <ele>1.49</ele>
  <time>2026-09-01T01:18:31Z</time>
  <course>184.74</course>
  <speed>0.33</speed>
  <fix>3d</fix>
</trkpt>
<trkpt lat="33.8101626" lon="-118.3938923">
  <ele>0.152</ele>
  <time>2026-09-01T01:18:31Z</time>
  <course>187.32</course>
  <speed>0.27294688127912364</speed>
  <fix>3d</fix>
</trkpt>
<trkpt lat="33.8101623" lon="-118.3938924">
  <ele>0.063</ele>
  <time>2026-09-01T01:18:31Z</time>
  <course>187.3</course>
  <speed>0.24186773244895649</speed>
  <fix>3d</fix>
</trkpt>
<trkpt lat="33.8101619" lon="-118.3938694">
  <ele>1.49</ele>
  <time>2026-09-01T01:18:31Z</time>
  <course>184.74</course>
  <speed>0.33</speed>
  <fix>3d</fix>
</trkpt>
<trkpt lat="33.8101623" lon="-118.3938924">
  <ele>0.06</ele>
  <time>2026-09-01T01:18:31Z</time>
  <course>187.3</course>
  <speed>0.24186773244895649</speed>
  <fix>3d</fix>
</trkpt>
<trkpt lat="33.8101621" lon="-118.3938924">
  <ele>-0.031</ele>
  <time>2026-09-01T01:18:31Z</time>
  <course>187.31</course>
  <speed>0.22090722034374521</speed>
  <fix>3d</fix>
</trkpt>
<trkpt lat="33.8101631" lon="-118.39387">
  <ele>1.32</ele>
  <time>2026-09-01T01:18:31Z</time>
  <course>182.84</course>
  <speed>0.25</speed>
  <fix>3d</fix>
</trkpt>
<trkpt lat="33.8101621" lon="-118.3938924">
  <ele>-0.034</ele>
  <time>2026-09-01T01:18:31Z</time>
  <course>187.31</course>
  <speed>0.2109502310972899</speed>
  <fix>3d</fix>
</trkpt>
<trkpt lat="33.8101619" lon="-118.3938924">
  <ele>-0.127</ele>
  <time>2026-09-01T01:18:31Z</time>
  <course>187.33</course>
  <speed>0.19026297590440447</speed>
  <fix>3d</fix>
</trkpt>
<trkpt lat="33.8101631" lon="-118.39387">
  <ele>1.32</ele>
  <time>2026-09-01T01:18:31Z</time>
  <course>182.84</course>
  <speed>0.25</speed>
  <fix>3d</fix>
</trkpt>
<trkpt lat="33.8101619" lon="-118.3938924">
  <ele>-0.129</ele>
  <time>2026-09-01T01:18:31Z</time>
  <course>187.33</course>
  <speed>0.19026297590440447</speed>
  <fix>3d</fix>
</trkpt>
<trkpt lat="33.8101617" lon="-118.3938925">
  <ele>-0.225</ele>
  <time>2026-09-01T01:18:31Z</time>
  <course>187.34</course>
  <speed>0.16031219541881397</speed>
  <fix>3d</fix>
</trkpt>
<trkpt lat="33.8101644" lon="-118.3938707">
  <ele>1.13</ele>
  <time>2026-09-01T01:18:31Z</time>
  <course>179.47</course>
  <speed>0.19</speed>
  <fix>3d</fix>
</trkpt>
<trkpt lat="33.8101617" lon="-118.3938925">
  <ele>-0.227</ele>
  <time>2026-09-01T01:18:31Z</time>
  <course>187.34</course>
  <speed>0.16031219541881397</speed>
  <fix>3d</fix>
</trkpt>
<trkpt lat="33.8101615" lon="-118.3938925">
  <ele>-0.323</ele>
  <time>2026-09-01T01:18:31Z</time>
  <course>187.36</course>
  <speed>0.14</speed>
  <fix>3d</fix>
</trkpt>
<trkpt lat="33.8101644" lon="-118.3938707">
  <ele>1.13</ele>
  <time>2026-09-01T01:18:31Z</time>
  <course>179.47</course>
  <speed>0.19</speed>
  <fix>3d</fix>
</trkpt>
<trkpt lat="33.8101615" lon="-118.3938925">
  <ele>-0.328</ele>
  <time>2026-09-01T01:18:31Z</time>
  <course>187.36</course>
  <speed>0.14</speed>
  <fix>3d</fix>
</trkpt>
<trkpt lat="33.8101614" lon="-118.3938925">
  <ele>-0.422</ele>
  <time>2026-09-01T01:18:31Z</time>
  <course>187.36</course>
  <speed>0.11</speed>
  <fix>3d</fix>
</trkpt>
<trkpt lat="33.8101657" lon="-118.3938715">
  <ele>0.94</ele>
  <time>2026-09-01T01:18:31Z</time>
  <course>173.53</course>
  <speed>0.14</speed>
  <fix>3d</fix>
</trkpt>
<trkpt lat="33.8101614" lon="-118.3938925">
  <ele>-0.424</ele>
  <time>2026-09-01T01:18:31Z</time>
  <course>187.36</course>
  <speed>0.11</speed>
  <fix>3d</fix>
</trkpt>
<trkpt lat="33.8101613" lon="-118.3938924">
  <ele>-0.521</ele>
  <time>2026-09-01T01:18:31Z</time>
  <course>187.36</course>
  <speed>0.09</speed>
  <fix>3d</fix>
</trkpt>
<trkpt lat="33.8101657" lon="-118.3938715">
  <ele>0.94</ele>
  <time>2026-09-01T01:18:31Z</time>
  <course>173.53</course>
  <speed>0.14</speed>
  <fix>3d</fix>
</trkpt>
<trkpt lat="33.8101613" lon="-118.3938924">
  <ele>-0.523</ele>
  <time>2026-09-01T01:18:31Z</time>
  <course>187.36</course>
  <speed>0.09</speed>
  <fix>3d</fix>
</trkpt>
<trkpt lat="33.8101612" lon="-118.3938924">
  <ele>-0.619</ele>
  <time>2026-09-01T01:18:31Z</time>
  <course>187.36</course>
  <speed>0.07</speed>
  <fix>3d</fix>
</trkpt>
<trkpt lat="33.8101671" lon="-118.3938725">
  <ele>0.75</ele>
  <time>2026-09-01T01:18:31Z</time>
  <course>166.47</course>
  <speed>0.09</speed>
  <fix>3d</fix>
</trkpt>
<trkpt lat="33.8101612" lon="-118.3938924">
  <ele>-0.621</ele>
  <time>2026-09-01T01:18:31Z</time>
  <course>187.36</course>
  <speed>0.07</speed>
  <fix>3d</fix>
</trkpt>
<trkpt lat="33.8101612" lon="-118.3938924">
  <ele>-0.717</ele>
  <time>2026-09-01T01:18:31Z</time>
  <course>187.35</course>
  <speed>0.05</speed>
  <fix>3d</fix>
</trkpt>
<trkpt lat="33.8101671" lon="-118.3938725">
  <ele>0.75</ele>
  <time>2026-09-01T01:18:31Z</time>
  <course>166.47</course>
  <speed>0.09</speed>
  <fix>3d</fix>
</trkpt>
<trkpt lat="33.8101612" lon="-118.3938924">
  <ele>-0.72</ele>
  <time>2026-09-01T01:18:31Z</time>
  <course>187.35</course>
  <speed>0.05</speed>
  <fix>3d</fix>
</trkpt>
<trkpt lat="33.8101611" lon="-118.3938924">
  <ele>-0.816</ele>
  <time>2026-09-01T01:18:31Z</time>
  <course>187.34</course>
  <speed>0.03</speed>
  <fix>3d</fix>
</trkpt>
<trkpt lat="33.8101685" lon="-118.3938738">
  <ele>0.55</ele>
  <time>2026-09-01T01:18:31Z</time>
  <course>156.5</course>
  <speed>0.05</speed>
  <fix>3d</fix>
</trkpt>
<trkpt lat="33.8101611" lon="-118.3938924">
  <ele>-0.818</ele>
  <time>2026-09-01T01:18:31Z</time>
  <course>187.34</course>
  <speed>0.03</speed>
  <fix>3d</fix>
</trkpt>
<trkpt lat="33.8101611" lon="-118.3938924">
  <ele>-0.914</ele>
  <time>2026-09-01T01:18:31Z</time>
  <course>187.34</course>
  <speed>0.02</speed>
  <fix>3d</fix>
</trkpt>
<trkpt lat="33.8101685" lon="-118.3938738">
  <ele>0.55</ele>
  <time>2026-09-01T01:18:31Z</time>
  <course>156.5</course>
  <speed>0.05</speed>
  <fix>3d</fix>
</trkpt>
<trkpt lat="33.8101611" lon="-118.3938924">
  <ele>-0.917</ele>
  <time>2026-09-01T01:18:31Z</time>
  <course>187.34</course>
  <speed>0.02</speed>
  <fix>3d</fix>
</trkpt>
<trkpt lat="33.8101611" lon="-118.3938924">
  <ele>-1.012</ele>
  <time>2026-09-01T01:18:31Z</time>
  <course>187.36</course>
  <speed>0.01414213562373095</speed>
  <fix>3d</fix>
</trkpt>
<trkpt lat="33.8101697" lon="-118.3938752">
  <ele>0.36</ele>
  <time>2026-09-01T01:18:31Z</time>
  <course>136.53</course>
  <speed>0.02</speed>
  <fix>3d</fix>
</trkpt>
<trkpt lat="33.8101611" lon="-118.3938924">
  <ele>-1.015</ele>
  <time>2026-09-01T01:18:31Z</time>
  <course>187.36</course>
  <speed>0.01414213562373095</speed>
  <fix>3d</fix>
</trkpt>
<trkpt lat="33.8101611" lon="-118.3938924">
  <ele>-1.11</ele>
  <time>2026-09-01T01:18:31Z</time>
  <course>187.38</course>
  <speed>0.01</speed>
  <fix>3d</fix>
</trkpt>
<trkpt lat="33.8101697" lon="-118.3938752">
  <ele>0.36</ele>
  <time>2026-09-01T01:18:31Z</time>
  <course>136.53</course>
  <speed>0.02</speed>
  <fix>3d</fix>
</trkpt>
<trkpt lat="33.8101611" lon="-118.3938924">
  <ele>-1.114</ele>
  <time>2026-09-01T01:18:31Z</time>
  <course>187.38</course>
  <speed>0.01</speed>
  <fix>3d</fix>
</trkpt>
<trkpt lat="33.8101611" lon="-118.3938924">
  <ele>-1.209</ele>
  <time>2026-09-01T01:18:31Z</time>
  <course>187.39</course>
  <speed>0.01</speed>
  <fix>3d</fix>
</trkpt>
<trkpt lat="33.8101709" lon="-118.3938768">
  <ele>0.16</ele>
  <time>2026-09-01T01:18:31Z</time>
  <course>87.06</course>
  <speed>0.01</speed>
  <fix>3d</fix>
</trkpt>
<trkpt lat="33.8101611" lon="-118.3938924">
  <ele>-1.212</ele>
  <time>2026-09-01T01:18:31Z</time>
  <course>187.39</course>
  <speed>0.01</speed>
  <fix>3d</fix>
</trkpt>
<trkpt lat="33.8101611" lon="-118.3938924">
  <ele>-1.307</ele>
  <time>2026-09-01T01:18:31Z</time>
  <course>187.38</course>
  <speed>0.02</speed>
  <fix>3d</fix>
</trkpt>
<trkpt lat="33.8101709" lon="-118.3938768">
  <ele>0.16</ele>
  <time>2026-09-01T01:18:31Z</time>
  <course>87.06</course>
  <speed>0.01</speed>
  <fix>3d</fix>
</trkpt>
<trkpt lat="33.8101611" lon="-118.3938924">
  <ele>-1.31</ele>
  <time>2026-09-01T01:18:31Z</time>
  <course>187.38</course>
  <speed>0.02</speed>
  <fix>3d</fix>
</trkpt>
<trkpt lat="33.8101611" lon="-118.3938924">
  <ele>-1.404</ele>
  <time>2026-09-01T01:18:31Z</time>
  <course>187.33</course>
  <speed>0.022360679774997897</speed>
  <fix>3d</fix>
</trkpt>
<trkpt lat="33.810172" lon="-118.3938785">
  <ele>-0.02</ele>
  <time>2026-09-01T01:18:31Z</time>
  <course>17.09</course>
  <speed>0.01</speed>
  <fix>3d</fix>
</trkpt>
<trkpt lat="33.8101611" lon="-118.3938924">
  <ele>-1.406</ele>
  <time>2026-09-01T01:18:31Z</time>
  <course>187.33</course>
  <speed>0.022360679774997897</speed>
  <fix>3d</fix>
</trkpt>
<trkpt lat="33.8101611" lon="-118.3938924">
  <ele>-1.5</ele>
  <time>2026-09-01T01:18:31Z</time>
  <course>187.29</course>
  <speed>0.022360679774997897</speed>
  <fix>3d</fix>
</trkpt>
<trkpt lat="33.810172" lon="-118.3938785">
  <ele>-0.02</ele>
  <time>2026-09-01T01:18:31Z</time>
  <course>17.09</course>
  <speed>0.01</speed>
  <fix>3d</fix>
</trkpt>
<trkpt lat="33.8101611" lon="-118.3938924">
  <ele>-1.502</ele>
  <time>2026-09-01T01:18:31Z</time>
  <course>187.29</course>
  <speed>0.022360679774997897</speed>
  <fix>3d</fix>
</trkpt>
<trkpt lat="33.8101612" lon="-118.3938924">
  <ele>-1.596</ele>
  <time>2026-09-01T01:18:31Z</time>
  <course>187.28</course>
  <speed>0.022360679774997897</speed>
  <fix>3d</fix>
</trkpt>
<trkpt lat="33.810173" lon="-118.3938804">
  <ele>-0.22</ele>
  <time>2026-09-01T01:18:31Z</time>
  <course>356.38</course>
  <speed>0.01</speed>
  <fix>3d</fix>
</trkpt>
<trkpt lat="33.8101612" lon="-118.3938924">
  <ele>-1.599</ele>
  <time>2026-09-01T01:18:31Z</time>
  <course>187.28</course>
  <speed>0.022360679774997897</speed>
  <fix>3d</fix>
</trkpt>
<trkpt lat="33.8101612" lon="-118.3938923">
  <ele>-1.692</ele>
  <time>2026-09-01T01:18:31Z</time>
  <course>187.27</course>
  <speed>0.022360679774997897</speed>
  <fix>3d</fix>
</trkpt>
<trkpt lat="33.810173" lon="-118.3938804">
  <ele>-0.22</ele>
  <time>2026-09-01T01:18:31Z</time>
  <course>356.38</course>
  <speed>0.01</speed>
  <fix>3d</fix>
</trkpt>
<trkpt lat="33.8101612" lon="-118.3938923">
  <ele>-1.695</ele>
  <time>2026-09-01T01:18:31Z</time>
  <course>187.27</course>
  <speed>0.022360679774997897</speed>
  <fix>3d</fix>
</trkpt>
<trkpt lat="33.8101612" lon="-118.3938923">
  <ele>-1.788</ele>
  <time>2026-09-01T01:18:31Z</time>
  <course>187.25</course>
  <speed>0.022360679774997897</speed>
  <fix>3d</fix>
</trkpt>
<trkpt lat="33.8101738" lon="-118.3938823">
  <ele>-0.41</ele>
  <time>2026-09-01T01:18:31Z</time>
  <course>352.53</course>
  <speed>0.02</speed>
  <fix>3d</fix>
</trkpt>
<trkpt lat="33.8101612" lon="-118.3938923">
  <ele>-1.791</ele>
  <time>2026-09-01T01:18:31Z</time>
  <course>187.25</course>
  <speed>0.022360679774997897</speed>
  <fix>3d</fix>
</trkpt>
<trkpt lat="33.8101612" lon="-118.3938923">
  <ele>-1.885</ele>
  <time>2026-09-01T01:18:31Z</time>
  <course>187.24</course>
  <speed>0.022360679774997897</speed>
  <fix>3d</fix>
</trkpt>
<trkpt lat="33.8101738" lon="-118.3938823">
  <ele>-0.41</ele>
  <time>2026-09-01T01:18:31Z</time>
  <course>352.53</course>
  <speed>0.02</speed>
  <fix>3d</fix>
</trkpt>
<trkpt lat="33.8101612" lon="-118.3938923">
  <ele>-1.888</ele>
  <time>2026-09-01T01:18:31Z</time>
  <course>187.24</course>
  <speed>0.022360679774997897</speed>
  <fix>3d</fix>
</trkpt>
<trkpt lat="33.8101612" lon="-118.3938923">
  <ele>-1.982</ele>
  <time>2026-09-01T01:18:31Z</time>
  <course>187.23</course>
  <speed>0.022360679774997897</speed>
  <fix>3d</fix>
</trkpt>
<trkpt lat="33.8101744" lon="-118.3938843">
  <ele>-0.6</ele>
  <time>2026-09-01T01:18:31Z</time>
  <course>352.16</course>
  <speed>0.02</speed>
  <fix>3d</fix>
</trkpt>
<trkpt lat="33.8101612" lon="-118.3938923">
  <ele>-1.985</ele>
  <time>2026-09-01T01:18:31Z</time>
  <course>187.23</course>
  <speed>0.022360679774997897</speed>
  <fix>3d</fix>
</trkpt>
<trkpt lat="33.8101613" lon="-118.3938923">
  <ele>-2.079</ele>
  <time>2026-09-01T01:18:31Z</time>
  <course>187.21</course>
  <speed>0.022360679774997897</speed>
  <fix>3d</fix>
</trkpt>
<trkpt lat="33.8101744" lon="-118.3938843">
  <ele>-0.6</ele>
  <time>2026-09-01T01:18:31Z</time>
  <course>352.16</course>
  <speed>0.02</speed>
  <fix>3d</fix>
</trkpt>
<trkpt lat="33.8101613" lon="-118.3938923">
  <ele>-2.086</ele>
  <time>2026-09-01T01:18:31Z</time>
  <course>187.21</course>
  <speed>0.022360679774997897</speed>
  <fix>3d</fix>
</trkpt>
<trkpt lat="33.8101613" lon="-118.3938923">
  <ele>-2.176</ele>
  <time>2026-09-01T01:18:31Z</time>
  <course>187.2</course>
  <speed>0.0282842712474619</speed>
  <fix>3d</fix>
</trkpt>
<trkpt lat="33.8101749" lon="-118.3938864">
  <ele>-0.81</ele>
  <time>2026-09-01T01:18:31Z</time>
  <course>351.79</course>
  <speed>0.02</speed>
  <fix>3d</fix>
</trkpt>
<trkpt lat="33.8101613" lon="-118.3938923">
  <ele>-2.178</ele>
  <time>2026-09-01T01:18:31Z</time>
  <course>187.2</course>
  <speed>0.0282842712474619</speed>
  <fix>3d</fix>
</trkpt>
<trkpt lat="33.8101613" lon="-118.3938923">
  <ele>-2.275</ele>
  <time>2026-09-01T01:18:31Z</time>
  <course>187.19</course>
  <speed>0.0282842712474619</speed>
  <fix>3d</fix>
</trkpt>
<trkpt lat="33.8101749" lon="-118.3938864">
  <ele>-0.81</ele>
  <time>2026-09-01T01:18:31Z</time>
  <course>351.79</course>
  <speed>0.02</speed>
  <fix>3d</fix>
</trkpt>
<trkpt lat="33.8101613" lon="-118.3938923">
  <ele>-2.277</ele>
  <time>2026-09-01T01:18:31Z</time>
  <course>187.19</course>
  <speed>0.0282842712474619</speed>
  <fix>3d</fix>
</trkpt>
<trkpt lat="33.8101613" lon="-118.3938923">
  <ele>-2.374</ele>
  <time>2026-09-01T01:18:31Z</time>
  <course>187.17</course>
  <speed>0.0282842712474619</speed>
  <fix>3d</fix>
</trkpt>
<trkpt lat="33.8101751" lon="-118.3938886">
  <ele>-1.01</ele>
  <time>2026-09-01T01:18:31Z</time>
  <course>351.43</course>
  <speed>0.02</speed>
  <fix>3d</fix>
</trkpt>
<trkpt lat="33.8101613" lon="-118.3938923">
  <ele>-2.375</ele>
  <time>2026-09-01T01:18:31Z</time>
  <course>187.17</course>
  <speed>0.0282842712474619</speed>
  <fix>3d</fix>
</trkpt>
<trkpt lat="33.8101613" lon="-118.3938923">
  <ele>-2.472</ele>
  <time>2026-09-01T01:18:31Z</time>
  <course>187.16</course>
  <speed>0.0282842712474619</speed>
  <fix>3d</fix>
</trkpt>
<trkpt lat="33.8101751" lon="-118.3938886">
  <ele>-1.01</ele>
  <time>2026-09-01T01:18:31Z</time>
  <course>351.43</course>
  <speed>0.02</speed>
  <fix>3d</fix>
</trkpt>
<trkpt lat="33.8101613" lon="-118.3938923">
  <ele>-2.473</ele>
  <time>2026-09-01T01:18:31Z</time>
  <course>187.16</course>
  <speed>0.0282842712474619</speed>
  <fix>3d</fix>
</trkpt>
<trkpt lat="33.8101613" lon="-118.3938923">
  <ele>-2.571</ele>
  <time>2026-09-01T01:18:31Z</time>
  <course>187.15</course>
  <speed>0.0282842712474619</speed>
  <fix>3d</fix>
</trkpt>
<trkpt lat="33.8101753" lon="-118.3938907">
  <ele>-1.21</ele>
  <time>2026-09-01T01:18:31Z</time>
  <course>351.1</course>
  <speed>0.02</speed>
  <fix>3d</fix>
</trkpt>
<trkpt lat="33.8101613" lon="-118.3938923">
  <ele>-2.576</ele>
  <time>2026-09-01T01:18:31Z</time>
  <course>187.15</course>
  <speed>0.0282842712474619</speed>
  <fix>3d</fix>
</trkpt>
<trkpt lat="33.8101613" lon="-118.3938923">
  <ele>-2.669</ele>
  <time>2026-09-01T01:18:31Z</time>
  <course>187.14</course>
  <speed>0.0282842712474619</speed>
  <fix>3d</fix>
</trkpt>
<trkpt lat="33.8101753" lon="-118.3938907">
  <ele>-1.21</ele>
  <time>2026-09-01T01:18:31Z</time>
  <course>351.1</course>
  <speed>0.02</speed>
  <fix>3d</fix>
</trkpt>
<trkpt lat="33.8101613" lon="-118.3938923">
  <ele>-2.671</ele>
  <time>2026-09-01T01:18:31Z</time>
  <course>187.14</course>
  <speed>0.0282842712474619</speed>
  <fix>3d</fix>
</trkpt>
<trkpt lat="33.8101613" lon="-118.3938923">
  <ele>-2.769</ele>
  <time>2026-09-01T01:18:31Z</time>
  <course>187.13</course>
  <speed>0.0282842712474619</speed>
  <fix>3d</fix>
</trkpt>
<trkpt lat="33.8101752" lon="-118.3938929">
  <ele>-1.41</ele>
  <time>2026-09-01T01:18:31Z</time>
  <course>350.79</course>
  <speed>0.01</speed>
  <fix>3d</fix>
</trkpt>
<trkpt lat="33.8101613" lon="-118.3938923">
  <ele>-2.771</ele>
  <time>2026-09-01T01:18:31Z</time>
  <course>187.12</course>
  <speed>0.0282842712474619</speed>
  <fix>3d</fix>
</trkpt>
<trkpt lat="33.8101614" lon="-118.3938923">
  <ele>-2.869</ele>
  <time>2026-09-01T01:18:31Z</time>
  <course>187.12</course>
  <speed>0.0282842712474619</speed>
  <fix>3d</fix>
</trkpt>
<trkpt lat="33.8101752" lon="-118.3938929">
  <ele>-1.41</ele>
  <time>2026-09-01T01:18:31Z</time>
  <course>350.79</course>
  <speed>0.01</speed>
  <fix>3d</fix>
</trkpt>
<trkpt lat="33.8101614" lon="-118.3938923">
  <ele>-2.872</ele>
  <time>2026-09-01T01:18:31Z</time>
  <course>187.12</course>
  <speed>0.0282842712474619</speed>
  <fix>3d</fix>
</trkpt>
<trkpt lat="33.8101614" lon="-118.3938923">
  <ele>-2.969</ele>
  <time>2026-09-01T01:18:31Z</time>
  <course>187.11</course>
  <speed>0.0282842712474619</speed>
  <fix>3d</fix>
</trkpt>
<trkpt lat="33.810175" lon="-118.393895">
  <ele>-1.61</ele>
  <time>2026-09-01T01:18:31Z</time>
  <course>350.52</course>
  <speed>0.01</speed>
  <fix>3d</fix>
</trkpt>
<trkpt lat="33.8101614" lon="-118.3938923">
  <ele>-2.972</ele>
  <time>2026-09-01T01:18:31Z</time>
  <course>187.11</course>
  <speed>0.0282842712474619</speed>
  <fix>3d</fix>
</trkpt>
<trkpt lat="33.8101614" lon="-118.3938923">
  <ele>-3.069</ele>
  <time>2026-09-01T01:18:31Z</time>
  <course>187.1</course>
  <speed>0.0282842712474619</speed>
  <fix>3d</fix>
</trkpt>
<trkpt lat="33.810175" lon="-118.393895">
  <ele>-1.61</ele>
  <time>2026-09-01T01:18:31Z</time>
  <course>350.52</course>
  <speed>0.01</speed>
  <fix>3d</fix>
</trkpt>
<trkpt lat="33.8101614" lon="-118.3938923">
  <ele>-3.072</ele>
  <time>2026-09-01T01:18:31Z</time>
  <course>187.1</course>
  <speed>0.0282842712474619</speed>
  <fix>3d</fix>
</trkpt>
<trkpt lat="33.8101614" lon="-118.3938923">
  <ele>-3.168</ele>
  <time>2026-09-01T01:18:31Z</time>
  <course>187.09</course>
  <speed>0.0282842712474619</speed>
  <fix>3d</fix>
</trkpt>
<trkpt lat="33.8101746" lon="-118.3938971">
  <ele>-1.81</ele>
  <time>2026-09-01T01:18:31Z</time>
  <course>350.31</course>
  <speed>0.01</speed>
  <fix>3d</fix>
</trkpt>
<trkpt lat="33.8101614" lon="-118.3938923">
  <ele>-3.171</ele>
  <time>2026-09-01T01:18:31Z</time>
  <course>187.09</course>
  <speed>0.0282842712474619</speed>
  <fix>3d</fix>
</trkpt>
<trkpt lat="33.8101614" lon="-118.3938923">
  <ele>-3.265</ele>
  <time>2026-09-01T01:18:31Z</time>
  <course>187.07</course>
  <speed>0.0282842712474619</speed>
  <fix>3d</fix>
</trkpt>
<trkpt lat="33.8101746" lon="-118.3938971">
  <ele>-1.81</ele>
  <time>2026-09-01T01:18:31Z</time>
  <course>350.31</course>
  <speed>0.01</speed>
  <fix>3d</fix>
</trkpt>
<trkpt lat="33.8101614" lon="-118.3938923">
  <ele>-3.268</ele>
  <time>2026-09-01T01:18:31Z</time>
  <course>187.07</course>
  <speed>0.0282842712474619</speed>
  <fix>3d</fix>
</trkpt>
<trkpt lat="33.8101615" lon="-118.3938923">
  <ele>-3.363</ele>
  <time>2026-09-01T01:18:31Z</time>
  <course>187.06</course>
  <speed>0.03605551275463989</speed>
  <fix>3d</fix>
</trkpt>
<trkpt lat="33.810174" lon="-118.3938992">
  <ele>-2.01</ele>
  <time>2026-09-01T01:18:31Z</time>
  <course>350.09</course>
  <speed>0.01</speed>
  <fix>3d</fix>
</trkpt>
<trkpt lat="33.8101615" lon="-118.3938923">
  <ele>-3.366</ele>
  <time>2026-09-01T01:18:31Z</time>
  <course>187.06</course>
  <speed>0.03605551275463989</speed>
  <fix>3d</fix>
</trkpt>
<trkpt lat="33.8101615" lon="-118.3938923">
  <ele>-3.461</ele>
  <time>2026-09-01T01:18:31Z</time>
  <course>187.05</course>
  <speed>0.03605551275463989</speed>
  <fix>3d</fix>
</trkpt>
<trkpt lat="33.810174" lon="-118.3938992">
  <ele>-2.01</ele>
  <time>2026-09-01T01:18:31Z</time>
  <course>350.09</course>
  <speed>0.01</speed>
  <fix>3d</fix>
</trkpt>
<trkpt lat="33.8101615" lon="-118.3938923">
  <ele>-3.463</ele>
  <time>2026-09-01T01:18:31Z</time>
  <course>187.05</course>
  <speed>0.03605551275463989</speed>
  <fix>3d</fix>
</trkpt>
<trkpt lat="33.8101615" lon="-118.3938923">
  <ele>-3.557</ele>
  <time>2026-09-01T01:18:31Z</time>
  <course>187.04</course>
  <speed>0.03605551275463989</speed>
  <fix>3d</fix>
</trkpt>
<trkpt lat="33.8101732" lon="-118.3939011">
  <ele>-2.2</ele>
  <time>2026-09-01T01:18:31Z</time>
  <course>349.83</course>
  <speed>0.01</speed>
  <fix>3d</fix>
</trkpt>
<trkpt lat="33.8101615" lon="-118.3938923">
  <ele>-3.56</ele>
  <time>2026-09-01T01:18:31Z</time>
  <course>187.03</course>
  <speed>0.03605551275463989</speed>
  <fix>3d</fix>
</trkpt>
<trkpt lat="33.8101615" lon="-118.3938923">
  <ele>-3.653</ele>
  <time>2026-09-01T01:18:31Z</time>
  <course>187.02</course>
  <speed>0.03605551275463989</speed>
  <fix>3d</fix>
</trkpt>
<trkpt lat="33.8101732" lon="-118.3939011">
  <ele>-2.2</ele>
  <time>2026-09-01T01:18:31Z</time>
  <course>349.83</course>
  <speed>0.01</speed>
  <fix>3d</fix>
</trkpt>
<trkpt lat="33.8101615" lon="-118.3938923">
  <ele>-3.658</ele>
  <time>2026-09-01T01:18:31Z</time>
  <course>187.02</course>
  <speed>0.03605551275463989</speed>
  <fix>3d</fix>
</trkpt>
<trkpt lat="33.8101615" lon="-118.3938923">
  <ele>-3.75</ele>
  <time>2026-09-01T01:18:31Z</time>
  <course>187.01</course>
  <speed>0.03605551275463989</speed>
  <fix>3d</fix>
</trkpt>
<trkpt lat="33.8101723" lon="-118.3939029">
  <ele>-2.39</ele>
  <time>2026-09-01T01:18:31Z</time>
  <course>349.53</course>
  <speed>0.01</speed>
  <fix>3d</fix>
</trkpt>
<trkpt lat="33.8101615" lon="-118.3938923">
  <ele>-3.752</ele>
  <time>2026-09-01T01:18:31Z</time>
  <course>187.01</course>
  <speed>0.03605551275463989</speed>
  <fix>3d</fix>
</trkpt>
<trkpt lat="33.8101616" lon="-118.3938923">
  <ele>-3.847</ele>
  <time>2026-09-01T01:18:31Z</time>
  <course>187.0</course>
  <speed>0.03605551275463989</speed>
  <fix>3d</fix>
</trkpt>
<trkpt lat="33.8101723" lon="-118.3939029">
  <ele>-2.39</ele>
  <time>2026-09-01T01:18:31Z</time>
  <course>349.53</course>
  <speed>0.01</speed>
  <fix>3d</fix>
</trkpt>
<trkpt lat="33.8101616" lon="-118.3938923">
  <ele>-3.849</ele>
  <time>2026-09-01T01:18:31Z</time>
  <course>187.0</course>
  <speed>0.03605551275463989</speed>
  <fix>3d</fix>
</trkpt>
<trkpt lat="33.8101616" lon="-118.3938923">
  <ele>-3.943</ele>
  <time>2026-09-01T01:18:31Z</time>
  <course>186.99</course>
  <speed>0.03605551275463989</speed>
  <fix>3d</fix>
</trkpt>
<trkpt lat="33.8101713" lon="-118.3939047">
  <ele>-2.59</ele>
  <time>2026-09-01T01:18:31Z</time>
  <course>349.21</course>
  <speed>0.01</speed>
  <fix>3d</fix>
</trkpt>
<trkpt lat="33.8101616" lon="-118.3938923">
  <ele>-3.945</ele>
  <time>2026-09-01T01:18:31Z</time>
  <course>186.99</course>
  <speed>0.03605551275463989</speed>
  <fix>3d</fix>
</trkpt>
<trkpt lat="33.8101616" lon="-118.3938923">
  <ele>-4.039</ele>
  <time>2026-09-01T01:18:31Z</time>
  <course>187.01</course>
  <speed>0.03605551275463989</speed>
  <fix>3d</fix>
</trkpt>
<trkpt lat="33.8101713" lon="-118.3939047">
  <ele>-2.59</ele>
  <time>2026-09-01T01:18:31Z</time>
  <course>349.21</course>
  <speed>0.01</speed>
  <fix>3d</fix>
</trkpt>
<trkpt lat="33.8101616" lon="-118.3938923">
  <ele>-4.041</ele>
  <time>2026-09-01T01:18:31Z</time>
  <course>187.01</course>
  <speed>0.03605551275463989</speed>
  <fix>3d</fix>
</trkpt>
<trkpt lat="33.8101616" lon="-118.3938923">
  <ele>-4.135</ele>
  <time>2026-09-01T01:18:31Z</time>
  <course>187.06</course>
  <speed>0.03605551275463989</speed>
  <fix>3d</fix>
</trkpt>
<trkpt lat="33.8101701" lon="-118.3939062">
  <ele>-2.79</ele>
  <time>2026-09-01T01:18:31Z</time>
  <course>346.77</course>
  <speed>0.01</speed>
  <fix>3d</fix>
</trkpt>
<trkpt lat="33.8101616" lon="-118.3938923">
  <ele>-4.138</ele>
  <time>2026-09-01T01:18:31Z</time>
  <course>187.06</course>
  <speed>0.03605551275463989</speed>
  <fix>3d</fix>
</trkpt>
<trkpt lat="33.8101616" lon="-118.3938923">
  <ele>-4.231</ele>
  <time>2026-09-01T01:18:31Z</time>
  <course>187.13</course>
  <speed>0.03605551275463989</speed>
  <fix>3d</fix>
</trkpt>
<trkpt lat="33.8101701" lon="-118.3939062">
  <ele>-2.79</ele>
  <time>2026-09-01T01:18:31Z</time>
  <course>346.77</course>
  <speed>0.01</speed>
  <fix>3d</fix>
</trkpt>
<trkpt lat="33.8101616" lon="-118.3938923">
  <ele>-4.233</ele>
  <time>2026-09-01T01:18:31Z</time>
  <course>187.13</course>
  <speed>0.03605551275463989</speed>
  <fix>3d</fix>
</trkpt>
<trkpt lat="33.8101616" lon="-118.3938923">
  <ele>-4.329</ele>
  <time>2026-09-01T01:18:31Z</time>
  <course>187.21</course>
  <speed>0.03605551275463989</speed>
  <fix>3d</fix>
</trkpt>
<trkpt lat="33.8101688" lon="-118.3939077">
  <ele>-2.98</ele>
  <time>2026-09-01T01:18:31Z</time>
  <course>342.27</course>
  <speed>0.01</speed>
  <fix>3d</fix>
</trkpt>
<trkpt lat="33.8101616" lon="-118.3938923">
  <ele>-4.33</ele>
  <time>2026-09-01T01:18:31Z</time>
  <course>187.22</course>
  <speed>0.03605551275463989</speed>
  <fix>3d</fix>
</trkpt>
<trkpt lat="33.8101617" lon="-118.3938923">
  <ele>-4.427</ele>
  <time>2026-09-01T01:18:31Z</time>
  <course>187.31</course>
  <speed>0.03605551275463989</speed>
  <fix>3d</fix>
</trkpt>
<trkpt lat="33.8101688" lon="-118.3939077">
  <ele>-2.98</ele>
  <time>2026-09-01T01:18:31Z</time>
  <course>342.27</course>
  <speed>0.01</speed>
  <fix>3d</fix>
</trkpt>
<trkpt lat="33.8101617" lon="-118.3938923">
  <ele>-4.429</ele>
  <time>2026-09-01T01:18:31Z</time>
  <course>187.31</course>
  <speed>0.03605551275463989</speed>
  <fix>3d</fix>
</trkpt>
<trkpt lat="33.8101617" lon="-118.3938923">
  <ele>-4.527</ele>
  <time>2026-09-01T01:18:31Z</time>
  <course>187.4</course>
  <speed>0.03605551275463989</speed>
  <fix>3d</fix>
</trkpt>
<trkpt lat="33.8101674" lon="-118.3939089">
  <ele>-3.18</ele>
  <time>2026-09-01T01:18:31Z</time>
  <course>339.43</course>
  <speed>0.01</speed>
  <fix>3d</fix>
</trkpt>
<trkpt lat="33.8101617" lon="-118.3938923">
  <ele>-4.528</ele>
  <time>2026-09-01T01:18:31Z</time>
  <course>187.4</course>
  <speed>0.03605551275463989</speed>
  <fix>3d</fix>
</trkpt>
<trkpt lat="33.8101617" lon="-118.3938923">
  <ele>-4.627</ele>
  <time>2026-09-01T01:18:31Z</time>
  <course>187.47</course>
  <speed>0.03605551275463989</speed>
  <fix>3d</fix>
</trkpt>
<trkpt lat="33.8101674" lon="-118.3939089">
  <ele>-3.18</ele>
  <time>2026-09-01T01:18:31Z</time>
  <course>339.43</course>
  <speed>0.01</speed>
  <fix>3d</fix>
</trkpt>
<trkpt lat="33.8101617" lon="-118.3938923">
  <ele>-4.629</ele>
  <time>2026-09-01T01:18:31Z</time>
  <course>187.47</course>
  <speed>0.03605551275463989</speed>
  <fix>3d</fix>
</trkpt>
<trkpt lat="33.8101617" lon="-118.3938923">
  <ele>-4.725</ele>
  <time>2026-09-01T01:18:31Z</time>
  <course>187.49</course>
  <speed>0.03605551275463989</speed>
  <fix>3d</fix>
</trkpt>
<trkpt lat="33.8101658" lon="-118.39391">
  <ele>-3.38</ele>
  <time>2026-09-01T01:18:31Z</time>
  <course>336.3</course>
  <speed>0.01</speed>
  <fix>3d</fix>
</trkpt>
<trkpt lat="33.8101617" lon="-118.3938923">
  <ele>-4.729</ele>
  <time>2026-09-01T01:18:31Z</time>
  <course>187.49</course>
  <speed>0.03605551275463989</speed>
  <fix>3d</fix>
</trkpt>
<trkpt lat="33.8101617" lon="-118.3938923">
  <ele>-4.821</ele>
  <time>2026-09-01T01:18:31Z</time>
  <course>187.46</course>
  <speed>0.03605551275463989</speed>
  <fix>3d</fix>
</trkpt>
<trkpt lat="33.8101658" lon="-118.39391">
  <ele>-3.38</ele>
  <time>2026-09-01T01:18:31Z</time>
  <course>336.3</course>
  <speed>0.01</speed>
  <fix>3d</fix>
</trkpt>
<trkpt lat="33.8101617" lon="-118.3938923">
  <ele>-4.823</ele>
  <time>2026-09-01T01:18:31Z</time>
  <course>187.45</course>
  <speed>0.03605551275463989</speed>
  <fix>3d</fix>
</trkpt>
<trkpt lat="33.8101617" lon="-118.3938923">
  <ele>-4.916</ele>
  <time>2026-09-01T01:18:31Z</time>
  <course>187.4</course>
  <speed>0.03605551275463989</speed>
  <fix>3d</fix>
</trkpt>
<trkpt lat="33.8101642" lon="-118.3939109">
  <ele>-3.58</ele>
  <time>2026-09-01T01:18:31Z</time>
  <course>331.93</course>
  <speed>0.01</speed>
  <fix>3d</fix>
</trkpt>
<trkpt lat="33.8101617" lon="-118.3938923">
  <ele>-4.918</ele>
  <time>2026-09-01T01:18:31Z</time>
  <course>187.4</course>
  <speed>0.03605551275463989</speed>
  <fix>3d</fix>
</trkpt>
<trkpt lat="33.8101617" lon="-118.3938923">
  <ele>-5.011</ele>
  <time>2026-09-01T01:18:31Z</time>
  <course>187.37</course>
  <speed>0.03605551275463989</speed>
  <fix>3d</fix>
</trkpt>
<trkpt lat="33.8101642" lon="-118.3939109">
  <ele>-3.58</ele>
  <time>2026-09-01T01:18:31Z</time>
  <course>331.93</course>
  <speed>0.01</speed>
  <fix>3d</fix>
</trkpt>
<trkpt lat="33.8101617" lon="-118.3938923">
  <ele>-5.014</ele>
  <time>2026-09-01T01:18:31Z</time>
  <course>187.37</course>
  <speed>0.03605551275463989</speed>
  <fix>3d</fix>
</trkpt>
<trkpt lat="33.8101618" lon="-118.3938923">
  <ele>-5.107</ele>
  <time>2026-09-01T01:18:31Z</time>
  <course>187.36</course>
  <speed>0.03605551275463989</speed>
  <fix>3d</fix>
</trkpt>
<trkpt lat="33.8101625" lon="-118.3939116">
  <ele>-3.78</ele>
  <time>2026-09-01T01:18:31Z</time>
  <course>325.36</course>
  <speed>0.0</speed>
  <fix>3d</fix>
</trkpt>
<trkpt lat="33.8101618" lon="-118.3938923">
  <ele>-5.109</ele>
  <time>2026-09-01T01:18:31Z</time>
  <course>187.36</course>
  <speed>0.03605551275463989</speed>
  <fix>3d</fix>
</trkpt>
<trkpt lat="33.8101618" lon="-118.3938923">
  <ele>-5.203</ele>
  <time>2026-09-01T01:18:31Z</time>
  <course>187.35</course>
  <speed>0.03605551275463989</speed>
  <fix>3d</fix>
</trkpt>
<trkpt lat="33.8101625" lon="-118.3939116">
  <ele>-3.78</ele>
  <time>2026-09-01T01:18:31Z</time>
  <course>325.36</course>
  <speed>0.0</speed>
  <fix>3d</fix>
</trkpt>
<trkpt lat="33.8101618" lon="-118.3938923">
  <ele>-5.206</ele>
  <time>2026-09-01T01:18:31Z</time>
  <course>187.35</course>
  <speed>0.03605551275463989</speed>
  <fix>3d</fix>
</trkpt>
<trkpt lat="33.8101618" lon="-118.3938923">
  <ele>-5.299</ele>
  <time>2026-09-01T01:18:31Z</time>
  <course>187.34</course>
  <speed>0.03605551275463989</speed>
  <fix>3d</fix>
</trkpt>
<trkpt lat="33.8101608" lon="-118.3939121">
  <ele>-3.98</ele>
  <time>2026-09-01T01:18:31Z</time>
  <course>315.07</course>
  <speed>0.0</speed>
  <fix>3d</fix>
</trkpt>
<trkpt lat="33.8101618" lon="-118.3938923">
  <ele>-5.302</ele>
  <time>2026-09-01T01:18:31Z</time>
  <course>187.34</course>
  <speed>0.03605551275463989</speed>
  <fix>3d</fix>
</trkpt>
<trkpt lat="33.8101618" lon="-118.3938923">
  <ele>-5.399</ele>
  <time>2026-09-01T01:18:31Z</time>
  <course>187.33</course>
  <speed>0.03605551275463989</speed>
  <fix>3d</fix>
</trkpt>
<trkpt lat="33.8101608" lon="-118.3939121">
  <ele>-3.98</ele>
  <time>2026-09-01T01:18:31Z</time>
  <course>315.07</course>
  <speed>0.0</speed>
  <fix>3d</fix>
</trkpt>
<trkpt lat="33.8101618" lon="-118.3938923">
  <ele>-5.401</ele>
  <time>2026-09-01T01:18:31Z</time>
  <course>187.33</course>
  <speed>0.03605551275463989</speed>
  <fix>3d</fix>
</trkpt>
<trkpt lat="33.8101618" lon="-118.3938923">
  <ele>-5.497</ele>
  <time>2026-09-01T01:18:31Z</time>
  <course>187.33</course>
  <speed>0.03605551275463989</speed>
  <fix>3d</fix>
</trkpt>
<trkpt lat="33.810159" lon="-118.3939123">
  <ele>-4.18</ele>
  <time>2026-09-01T01:18:31Z</time>
  <course>307.32</course>
  <speed>0.0</speed>
  <fix>3d</fix>
</trkpt>
<trkpt lat="33.8101618" lon="-118.3938923">
  <ele>-5.5</ele>
  <time>2026-09-01T01:18:31Z</time>
  <course>187.33</course>
  <speed>0.03605551275463989</speed>
  <fix>3d</fix>
</trkpt>
<trkpt lat="33.8101618" lon="-118.3938923">
  <ele>-5.595</ele>
  <time>2026-09-01T01:18:31Z</time>
  <course>187.32</course>
  <speed>0.03605551275463989</speed>
  <fix>3d</fix>
</trkpt>
<trkpt lat="33.810159" lon="-118.3939123">
  <ele>-4.18</ele>
  <time>2026-09-01T01:18:31Z</time>
  <course>307.32</course>
  <speed>0.0</speed>
  <fix>3d</fix>
</trkpt>
<trkpt lat="33.8101618" lon="-118.3938923">
  <ele>-5.597</ele>
  <time>2026-09-01T01:18:31Z</time>
  <course>187.32</course>
  <speed>0.03605551275463989</speed>
  <fix>3d</fix>
</trkpt>
<trkpt lat="33.8101618" lon="-118.3938923">
  <ele>-5.694</ele>
  <time>2026-09-01T01:18:31Z</time>
  <course>187.31</course>
  <speed>0.03605551275463989</speed>
  <fix>3d</fix>
</trkpt>
<trkpt lat="33.8101572" lon="-118.3939124">
  <ele>-4.39</ele>
  <time>2026-09-01T01:18:31Z</time>
  <course>303.73</course>
  <speed>0.0</speed>
  <fix>3d</fix>
</trkpt>
<trkpt lat="33.8101618" lon="-118.3938923">
  <ele>-5.696</ele>
  <time>2026-09-01T01:18:31Z</time>
  <course>187.31</course>
  <speed>0.03605551275463989</speed>
  <fix>3d</fix>
</trkpt>
<trkpt lat="33.8101618" lon="-118.3938923">
  <ele>-5.793</ele>
  <time>2026-09-01T01:18:31Z</time>
  <course>187.31</course>
  <speed>0.03605551275463989</speed>
  <fix>3d</fix>
</trkpt>
<trkpt lat="33.8101572" lon="-118.3939124">
  <ele>-4.39</ele>
  <time>2026-09-01T01:18:31Z</time>
  <course>303.73</course>
  <speed>0.0</speed>
  <fix>3d</fix>
</trkpt>
<trkpt lat="33.8101618" lon="-118.3938923">
  <ele>-5.795</ele>
  <time>2026-09-01T01:18:31Z</time>
  <course>187.31</course>
  <speed>0.03605551275463989</speed>
  <fix>3d</fix>
</trkpt>
<trkpt lat="33.8101618" lon="-118.3938923">
  <ele>-5.892</ele>
  <time>2026-09-01T01:18:31Z</time>
  <course>187.3</course>
  <speed>0.03605551275463989</speed>
  <fix>3d</fix>
</trkpt>
<trkpt lat="33.8101555" lon="-118.3939122">
  <ele>-4.59</ele>
  <time>2026-09-01T01:18:31Z</time>
  <course>303.33</course>
  <speed>0.0</speed>
  <fix>3d</fix>
</trkpt>
<trkpt lat="33.8101618" lon="-118.3938923">
  <ele>-5.894</ele>
  <time>2026-09-01T01:18:31Z</time>
  <course>187.3</course>
  <speed>0.03605551275463989</speed>
  <fix>3d</fix>
</trkpt>
<trkpt lat="33.8101618" lon="-118.3938923">
  <ele>-5.991</ele>
  <time>2026-09-01T01:18:31Z</time>
  <course>187.29</course>
  <speed>0.03605551275463989</speed>
  <fix>3d</fix>
</trkpt>
<trkpt lat="33.8101555" lon="-118.3939122">
  <ele>-4.59</ele>
  <time>2026-09-01T01:18:31Z</time>
  <course>303.33</course>
  <speed>0.0</speed>
  <fix>3d</fix>
</trkpt>
<trkpt lat="33.8101618" lon="-118.3938923">
  <ele>-5.994</ele>
  <time>2026-09-01T01:18:31Z</time>
  <course>187.29</course>
  <speed>0.03605551275463989</speed>
  <fix>3d</fix>
</trkpt>
<trkpt lat="33.8101618" lon="-118.3938923">
  <ele>-6.09</ele>
  <time>2026-09-01T01:18:31Z</time>
  <course>187.29</course>
  <speed>0.03605551275463989</speed>
  <fix>3d</fix>
</trkpt>
<trkpt lat="33.8101537" lon="-118.3939119">
  <ele>-4.8</ele>
  <time>2026-09-01T01:18:31Z</time>
  <course>303.27</course>
  <speed>0.0</speed>
  <fix>3d</fix>
</trkpt>
<trkpt lat="33.8101618" lon="-118.3938923">
  <ele>-6.093</ele>
  <time>2026-09-01T01:18:31Z</time>
  <course>187.29</course>
  <speed>0.03605551275463989</speed>
  <fix>3d</fix>
</trkpt>
<trkpt lat="33.8101618" lon="-118.3938923">
  <ele>-6.19</ele>
  <time>2026-09-01T01:18:31Z</time>
  <course>187.28</course>
  <speed>0.03605551275463989</speed>
  <fix>3d</fix>
</trkpt>
<trkpt lat="33.8101537" lon="-118.3939119">
  <ele>-4.8</ele>
  <time>2026-09-01T01:18:31Z</time>
  <course>303.27</course>
  <speed>0.0</speed>
  <fix>3d</fix>
</trkpt>
<trkpt lat="33.8101618" lon="-118.3938923">
  <ele>-6.192</ele>
  <time>2026-09-01T01:18:31Z</time>
  <course>187.28</course>
  <speed>0.03605551275463989</speed>
  <fix>3d</fix>
</trkpt>
<trkpt lat="33.8101618" lon="-118.3938923">
  <ele>-6.288</ele>
  <time>2026-09-01T01:18:31Z</time>
  <course>187.28</course>
  <speed>0.03605551275463989</speed>
  <fix>3d</fix>
</trkpt>
<trkpt lat="33.810152" lon="-118.3939113">
  <ele>-5.0</ele>
  <time>2026-09-01T01:18:31Z</time>
  <course>303.24</course>
  <speed>0.0</speed>
  <fix>3d</fix>
</trkpt>
<trkpt lat="33.8101618" lon="-118.3938923">
  <ele>-6.29</ele>
  <time>2026-09-01T01:18:31Z</time>
  <course>187.28</course>
  <speed>0.03605551275463989</speed>
  <fix>3d</fix>
</trkpt>
<trkpt lat="33.8101618" lon="-118.3938923">
  <ele>-6.386</ele>
  <time>2026-09-01T01:18:31Z</time>
  <course>187.27</course>
  <speed>0.03605551275463989</speed>
  <fix>3d</fix>
</trkpt>
<trkpt lat="33.810152" lon="-118.3939113">
  <ele>-5.0</ele>
  <time>2026-09-01T01:18:31Z</time>
  <course>303.24</course>
  <speed>0.0</speed>
  <fix>3d</fix>
</trkpt>
<trkpt lat="33.8101618" lon="-118.3938923">
  <ele>-6.387</ele>
  <time>2026-09-01T01:18:31Z</time>
  <course>187.27</course>
  <speed>0.03605551275463989</speed>
  <fix>3d</fix>
</trkpt>
<trkpt lat="33.8101618" lon="-118.3938923">
  <ele>-6.483</ele>
  <time>2026-09-01T01:18:31Z</time>
  <course>187.26</course>
  <speed>0.03605551275463989</speed>
  <fix>3d</fix>
</trkpt>
<trkpt lat="33.8101503" lon="-118.3939105">
  <ele>-5.2</ele>
  <time>2026-09-01T01:18:31Z</time>
  <course>303.19</course>
  <speed>0.0</speed>
  <fix>3d</fix>
</trkpt>
<trkpt lat="33.8101618" lon="-118.3938923">
  <ele>-6.485</ele>
  <time>2026-09-01T01:18:31Z</time>
  <course>187.26</course>
  <speed>0.03605551275463989</speed>
  <fix>3d</fix>
</trkpt>
<trkpt lat="33.8101618" lon="-118.3938923">
  <ele>-6.581</ele>
  <time>2026-09-01T01:18:31Z</time>
  <course>187.26</course>
  <speed>0.03605551275463989</speed>
  <fix>3d</fix>
</trkpt>
<trkpt lat="33.8101503" lon="-118.3939105">
  <ele>-5.2</ele>
  <time>2026-09-01T01:18:31Z</time>
  <course>303.19</course>
  <speed>0.0</speed>
  <fix>3d</fix>
</trkpt>
<trkpt lat="33.8101618" lon="-118.3938923">
  <ele>-6.583</ele>
  <time>2026-09-01T01:18:31Z</time>
  <course>187.25</course>
  <speed>0.03605551275463989</speed>
  <fix>3d</fix>
</trkpt>
<trkpt lat="33.8101618" lon="-118.3938923">
  <ele>-6.679</ele>
  <time>2026-09-01T01:18:31Z</time>
  <course>187.25</course>
  <speed>0.03605551275463989</speed>
  <fix>3d</fix>
</trkpt>
<trkpt lat="33.8101487" lon="-118.3939095">
  <ele>-5.41</ele>
  <time>2026-09-01T01:18:31Z</time>
  <course>303.09</course>
  <speed>0.0</speed>
  <fix>3d</fix>
</trkpt>
<trkpt lat="33.8101618" lon="-118.3938923">
  <ele>-6.682</ele>
  <time>2026-09-01T01:18:31Z</time>
  <course>187.25</course>
  <speed>0.03605551275463989</speed>
  <fix>3d</fix>
</trkpt>
<trkpt lat="33.8101618" lon="-118.3938923">
  <ele>-6.776</ele>
  <time>2026-09-01T01:18:31Z</time>
  <course>187.24</course>
  <speed>0.03605551275463989</speed>
  <fix>3d</fix>
</trkpt>
<trkpt lat="33.8101487" lon="-118.3939095">
  <ele>-5.41</ele>
  <time>2026-09-01T01:18:31Z</time>
  <course>303.09</course>
  <speed>0.0</speed>
  <fix>3d</fix>
</trkpt>
<trkpt lat="33.8101618" lon="-118.3938923">
  <ele>-6.779</ele>
  <time>2026-09-01T01:18:31Z</time>
  <course>187.24</course>
  <speed>0.03605551275463989</speed>
  <fix>3d</fix>
</trkpt>
<trkpt lat="33.8101618" lon="-118.3938923">
  <ele>-6.874</ele>
  <time>2026-09-01T01:18:31Z</time>
  <course>187.23</course>
  <speed>0.03605551275463989</speed>
  <fix>3d</fix>
</trkpt>
<trkpt lat="33.8101472" lon="-118.3939083">
  <ele>-5.61</ele>
  <time>2026-09-01T01:18:31Z</time>
  <course>303.0</course>
  <speed>0.0</speed>
  <fix>3d</fix>
</trkpt>
<trkpt lat="33.8101618" lon="-118.3938923">
  <ele>-6.876</ele>
  <time>2026-09-01T01:18:31Z</time>
  <course>187.23</course>
  <speed>0.03605551275463989</speed>
  <fix>3d</fix>
</trkpt>
<trkpt lat="33.8101618" lon="-118.3938923">
  <ele>-6.971</ele>
  <time>2026-09-01T01:18:31Z</time>
  <course>187.23</course>
  <speed>0.03605551275463989</speed>
  <fix>3d</fix>
</trkpt>
<trkpt lat="33.8101472" lon="-118.3939083">
  <ele>-5.61</ele>
  <time>2026-09-01T01:18:31Z</time>
  <course>303.0</course>
  <speed>0.0</speed>
  <fix>3d</fix>
</trkpt>
<trkpt lat="33.8101618" lon="-118.3938923">
  <ele>-6.976</ele>
  <time>2026-09-01T01:18:31Z</time>
  <course>187.23</course>
  <speed>0.03605551275463989</speed>
  <fix>3d</fix>
</trkpt>
<trkpt lat="33.8101618" lon="-118.3938923">
  <ele>-7.067</ele>
  <time>2026-09-01T01:18:31Z</time>
  <course>187.22</course>
  <speed>0.03605551275463989</speed>
  <fix>3d</fix>
</trkpt>
<trkpt lat="33.8101458" lon="-118.393907">
  <ele>-5.81</ele>
  <time>2026-09-01T01:18:31Z</time>
  <course>302.93</course>
  <speed>0.0</speed>
  <fix>3d</fix>
</trkpt>
<trkpt lat="33.8101618" lon="-118.3938923">
  <ele>-7.07</ele>
  <time>2026-09-01T01:18:31Z</time>
  <course>187.22</course>
  <speed>0.03605551275463989</speed>
  <fix>3d</fix>
</trkpt>
<trkpt lat="33.8101618" lon="-118.3938923">
  <ele>-7.165</ele>
  <time>2026-09-01T01:18:31Z</time>
  <course>187.21</course>
  <speed>0.03605551275463989</speed>
  <fix>3d</fix>
</trkpt>
<trkpt lat="33.8101458" lon="-118.393907">
  <ele>-5.81</ele>
  <time>2026-09-01T01:18:31Z</time>
  <course>302.93</course>
  <speed>0.0</speed>
  <fix>3d</fix>
</trkpt>
<trkpt lat="33.8101618" lon="-118.3938923">
  <ele>-7.169</ele>
  <time>2026-09-01T01:18:31Z</time>
  <course>187.21</course>
  <speed>0.03605551275463989</speed>
  <fix>3d</fix>
</trkpt>
<trkpt lat="33.8101618" lon="-118.3938923">
  <ele>-7.264</ele>
  <time>2026-09-01T01:18:31Z</time>
  <course>187.21</course>
  <speed>0.03605551275463989</speed>
  <fix>3d</fix>
</trkpt>
<trkpt lat="33.8101445" lon="-118.3939055">
  <ele>-6.01</ele>
  <time>2026-09-01T01:18:31Z</time>
  <course>302.84</course>
  <speed>0.0</speed>
  <fix>3d</fix>
</trkpt>
<trkpt lat="33.8101618" lon="-118.3938923">
  <ele>-7.267</ele>
  <time>2026-09-01T01:18:31Z</time>
  <course>187.21</course>
  <speed>0.03605551275463989</speed>
  <fix>3d</fix>
</trkpt>
<trkpt lat="33.8101618" lon="-118.3938923">
  <ele>-7.364</ele>
  <time>2026-09-01T01:18:31Z</time>
  <course>187.2</course>
  <speed>0.03605551275463989</speed>
  <fix>3d</fix>
</trkpt>
<trkpt lat="33.8101445" lon="-118.3939055">
  <ele>-6.01</ele>
  <time>2026-09-01T01:18:31Z</time>
  <course>302.84</course>
  <speed>0.0</speed>
  <fix>3d</fix>
</trkpt>
<trkpt lat="33.8101618" lon="-118.3938923">
  <ele>-7.367</ele>
  <time>2026-09-01T01:18:31Z</time>
  <course>187.2</course>
  <speed>0.03605551275463989</speed>
  <fix>3d</fix>
</trkpt>
<trkpt lat="33.8101618" lon="-118.3938923">
  <ele>-7.464</ele>
  <time>2026-09-01T01:18:31Z</time>
  <course>187.2</course>
  <speed>0.03605551275463989</speed>
  <fix>3d</fix>
</trkpt>
<trkpt lat="33.8101434" lon="-118.3939038">
  <ele>-6.21</ele>
  <time>2026-09-01T01:18:31Z</time>
  <course>302.75</course>
  <speed>0.0</speed>
  <fix>3d</fix>
</trkpt>
<trkpt lat="33.8101618" lon="-118.3938923">
  <ele>-7.466</ele>
  <time>2026-09-01T01:18:31Z</time>
  <course>187.2</course>
  <speed>0.03605551275463989</speed>
  <fix>3d</fix>
</trkpt>
<trkpt lat="33.8101618" lon="-118.3938923">
  <ele>-7.562</ele>
  <time>2026-09-01T01:18:31Z</time>
  <course>187.19</course>
  <speed>0.03605551275463989</speed>
  <fix>3d</fix>
</trkpt>
<trkpt lat="33.8101434" lon="-118.3939038">
  <ele>-6.21</ele>
  <time>2026-09-01T01:18:31Z</time>
  <course>302.75</course>
  <speed>0.0</speed>
  <fix>3d</fix>
</trkpt>
<trkpt lat="33.8101618" lon="-118.3938923">
  <ele>-7.565</ele>
  <time>2026-09-01T01:18:31Z</time>
  <course>187.19</course>
  <speed>0.03605551275463989</speed>
  <fix>3d</fix>
</trkpt>
<trkpt lat="33.8101618" lon="-118.3938923">
  <ele>-7.661</ele>
  <time>2026-09-01T01:18:31Z</time>
  <course>187.19</course>
  <speed>0.03605551275463989</speed>
  <fix>3d</fix>
</trkpt>
<trkpt lat="33.8101424" lon="-118.393902">
  <ele>-6.41</ele>
  <time>2026-09-01T01:18:31Z</time>
  <course>302.71</course>
  <speed>0.0</speed>
  <fix>3d</fix>
</trkpt>
<trkpt lat="33.8101618" lon="-118.3938923">
  <ele>-7.663</ele>
  <time>2026-09-01T01:18:31Z</time>
  <course>187.19</course>
  <speed>0.03605551275463989</speed>
  <fix>3d</fix>
</trkpt>
<trkpt lat="33.8101618" lon="-118.3938923">
  <ele>-7.76</ele>
  <time>2026-09-01T01:18:31Z</time>
  <course>187.19</course>
  <speed>0.03605551275463989</speed>
  <fix>3d</fix>
</trkpt>
<trkpt lat="33.8101424" lon="-118.393902">
  <ele>-6.41</ele>
  <time>2026-09-01T01:18:31Z</time>
  <course>302.71</course>
  <speed>0.0</speed>
  <fix>3d</fix>
</trkpt>
<trkpt lat="33.8101618" lon="-118.3938923">
  <ele>-7.763</ele>
  <time>2026-09-01T01:18:31Z</time>
  <course>187.19</course>
  <speed>0.03605551275463989</speed>
  <fix>3d</fix>
</trkpt>
<trkpt lat="33.8101618" lon="-118.3938923">
  <ele>-7.86</ele>
  <time>2026-09-01T01:18:31Z</time>
  <course>187.18</course>
  <speed>0.03605551275463989</speed>
  <fix>3d</fix>
</trkpt>
<trkpt lat="33.8101415" lon="-118.3939002">
  <ele>-6.61</ele>
  <time>2026-09-01T01:18:31Z</time>
  <course>302.68</course>
  <speed>0.0</speed>
  <fix>3d</fix>
</trkpt>
<trkpt lat="33.8101618" lon="-118.3938923">
  <ele>-7.863</ele>
  <time>2026-09-01T01:18:31Z</time>
  <course>187.18</course>
  <speed>0.03605551275463989</speed>
  <fix>3d</fix>
</trkpt>
<trkpt lat="33.8101618" lon="-118.3938923">
  <ele>-7.96</ele>
  <time>2026-09-01T01:18:31Z</time>
  <course>187.18</course>
  <speed>0.03605551275463989</speed>
  <fix>3d</fix>
</trkpt>
<trkpt lat="33.8101415" lon="-118.3939002">
  <ele>-6.61</ele>
  <time>2026-09-01T01:18:31Z</time>
  <course>302.68</course>
  <speed>0.0</speed>
  <fix>3d</fix>
</trkpt>
<trkpt lat="33.8101618" lon="-118.3938923">
  <ele>-7.962</ele>
  <time>2026-09-01T01:18:31Z</time>
  <course>187.18</course>
  <speed>0.03605551275463989</speed>
  <fix>3d</fix>
</trkpt>
<trkpt lat="33.8101618" lon="-118.3938923">
  <ele>-8.059</ele>
  <time>2026-09-01T01:18:31Z</time>
  <course>187.18</course>
  <speed>0.03605551275463989</speed>
  <fix>3d</fix>
</trkpt>
<trkpt lat="33.8101409" lon="-118.3938982">
  <ele>-6.81</ele>
  <time>2026-09-01T01:18:31Z</time>
  <course>302.68</course>
  <speed>0.0</speed>
  <fix>3d</fix>
</trkpt>
<trkpt lat="33.8101618" lon="-118.3938923">
  <ele>-8.064</ele>
  <time>2026-09-01T01:18:31Z</time>
  <course>187.18</course>
  <speed>0.03605551275463989</speed>
  <fix>3d</fix>
</trkpt>
<trkpt lat="33.8101618" lon="-118.3938923">
  <ele>-8.157</ele>
  <time>2026-09-01T01:18:31Z</time>
  <course>187.18</course>
  <speed>0.03605551275463989</speed>
  <fix>3d</fix>
</trkpt>
<trkpt lat="33.8101409" lon="-118.3938982">
  <ele>-6.81</ele>
  <time>2026-09-01T01:18:31Z</time>
  <course>302.68</course>
  <speed>0.0</speed>
  <fix>3d</fix>
</trkpt>
<trkpt lat="33.8101618" lon="-118.3938923">
  <ele>-8.16</ele>
  <time>2026-09-01T01:18:31Z</time>
  <course>187.17</course>
  <speed>0.03605551275463989</speed>
  <fix>3d</fix>
</trkpt>
<trkpt lat="33.8101618" lon="-118.3938923">
  <ele>-8.254</ele>
  <time>2026-09-01T01:18:31Z</time>
  <course>187.17</course>
  <speed>0.03605551275463989</speed>
  <fix>3d</fix>
</trkpt>
<trkpt lat="33.8101404" lon="-118.3938961">
  <ele>-7.01</ele>
  <time>2026-09-01T01:18:31Z</time>
  <course>302.7</course>
  <speed>0.0</speed>
  <fix>3d</fix>
</trkpt>
<trkpt lat="33.8101618" lon="-118.3938923">
  <ele>-8.256</ele>
  <time>2026-09-01T01:18:31Z</time>
  <course>187.17</course>
  <speed>0.03605551275463989</speed>
  <fix>3d</fix>
</trkpt>
<trkpt lat="33.8101618" lon="-118.3938923">
  <ele>-8.35</ele>
  <time>2026-09-01T01:18:31Z</time>
  <course>187.17</course>
  <speed>0.03605551275463989</speed>
  <fix>3d</fix>
</trkpt>
<trkpt lat="33.8101404" lon="-118.3938961">
  <ele>-7.01</ele>
  <time>2026-09-01T01:18:31Z</time>
  <course>302.7</course>
  <speed>0.0</speed>
  <fix>3d</fix>
</trkpt>
<trkpt lat="33.8101618" lon="-118.3938923">
  <ele>-8.352</ele>
  <time>2026-09-01T01:18:31Z</time>
  <course>187.17</course>
  <speed>0.03605551275463989</speed>
  <fix>3d</fix>
</trkpt>
<trkpt lat="33.8101618" lon="-118.3938923">
  <ele>-8.445</ele>
  <time>2026-09-01T01:18:31Z</time>
  <course>187.16</course>
  <speed>0.03605551275463989</speed>
  <fix>3d</fix>
</trkpt>
<trkpt lat="33.8101401" lon="-118.393894">
  <ele>-7.19</ele>
  <time>2026-09-01T01:18:31Z</time>
  <course>302.68</course>
  <speed>0.0</speed>
  <fix>3d</fix>
</trkpt>
<trkpt lat="33.8101618" lon="-118.3938923">
  <ele>-8.447</ele>
  <time>2026-09-01T01:18:31Z</time>
  <course>187.16</course>
  <speed>0.03605551275463989</speed>
  <fix>3d</fix>
</trkpt>
<trkpt lat="33.8101618" lon="-118.3938923">
  <ele>-8.54</ele>
  <time>2026-09-01T01:18:31Z</time>
  <course>187.15</course>
  <speed>0.03605551275463989</speed>
  <fix>3d</fix>
</trkpt>
<trkpt lat="33.8101401" lon="-118.393894">
  <ele>-7.19</ele>
  <time>2026-09-01T01:18:31Z</time>
  <course>302.68</course>
  <speed>0.0</speed>
  <fix>3d</fix>
</trkpt>
<trkpt lat="33.8101618" lon="-118.3938923">
  <ele>-8.541</ele>
  <time>2026-09-01T01:18:31Z</time>
  <course>187.15</course>
  <speed>0.03605551275463989</speed>
  <fix>3d</fix>
</trkpt>
<trkpt lat="33.8101618" lon="-118.3938923">
  <ele>-8.635</ele>
  <time>2026-09-01T01:18:31Z</time>
  <course>187.15</course>
  <speed>0.03605551275463989</speed>
  <fix>3d</fix>
</trkpt>
<trkpt lat="33.8101399" lon="-118.3938919">
  <ele>-7.39</ele>
  <time>2026-09-01T01:18:31Z</time>
  <course>302.55</course>
  <speed>0.0</speed>
  <fix>3d</fix>
</trkpt>
<trkpt lat="33.8101618" lon="-118.3938923">
  <ele>-8.637</ele>
  <time>2026-09-01T01:18:31Z</time>
  <course>187.15</course>
  <speed>0.03605551275463989</speed>
  <fix>3d</fix>
</trkpt>
<trkpt lat="33.8101618" lon="-118.3938923">
  <ele>-8.732</ele>
  <time>2026-09-01T01:18:31Z</time>
  <course>187.15</course>
  <speed>0.03605551275463989</speed>
  <fix>3d</fix>
</trkpt>
<trkpt lat="33.8101399" lon="-118.3938919">
  <ele>-7.39</ele>
  <time>2026-09-01T01:18:31Z</time>
  <course>302.55</course>
  <speed>0.0</speed>
  <fix>3d</fix>
</trkpt>
<trkpt lat="33.8101618" lon="-118.3938923">
  <ele>-8.735</ele>
  <time>2026-09-01T01:18:31Z</time>
  <course>187.15</course>
  <speed>0.03605551275463989</speed>
  <fix>3d</fix>
</trkpt>
<trkpt lat="33.8101618" lon="-118.3938923">
  <ele>-8.828</ele>
  <time>2026-09-01T01:18:31Z</time>
  <course>187.14</course>
  <speed>0.03605551275463989</speed>
  <fix>3d</fix>
</trkpt>
<trkpt lat="33.8101399" lon="-118.3938897">
  <ele>-7.58</ele>
  <time>2026-09-01T01:18:31Z</time>
  <course>302.35</course>
  <speed>0.0</speed>
  <fix>3d</fix>
</trkpt>
<trkpt lat="33.8101618" lon="-118.3938923">
  <ele>-8.831</ele>
  <time>2026-09-01T01:18:31Z</time>
  <course>187.14</course>
  <speed>0.03605551275463989</speed>
  <fix>3d</fix>
</trkpt>
<trkpt lat="33.8101618" lon="-118.3938923">
  <ele>-8.924</ele>
  <time>2026-09-01T01:18:31Z</time>
  <course>187.14</course>
  <speed>0.03605551275463989</speed>
  <fix>3d</fix>
</trkpt>
<trkpt lat="33.8101399" lon="-118.3938897">
  <ele>-7.58</ele>
  <time>2026-09-01T01:18:31Z</time>
  <course>302.35</course>
  <speed>0.0</speed>
  <fix>3d</fix>
</trkpt>
<trkpt lat="33.8101618" lon="-118.3938923">
  <ele>-8.927</ele>
  <time>2026-09-01T01:18:31Z</time>
  <course>187.14</course>
  <speed>0.03605551275463989</speed>
  <fix>3d</fix>
</trkpt>
<trkpt lat="33.8101618" lon="-118.3938923">
  <ele>-9.021</ele>
  <time>2026-09-01T01:18:31Z</time>
  <course>187.13</course>
  <speed>0.03605551275463989</speed>
  <fix>3d</fix>
</trkpt>
<trkpt lat="33.8101401" lon="-118.3938876">
  <ele>-7.78</ele>
  <time>2026-09-01T01:18:31Z</time>
  <course>302.13</course>
  <speed>0.0</speed>
  <fix>3d</fix>
</trkpt>
<trkpt lat="33.8101618" lon="-118.3938923">
  <ele>-9.023</ele>
  <time>2026-09-01T01:18:31Z</time>
  <course>187.13</course>
  <speed>0.03605551275463989</speed>
  <fix>3d</fix>
</trkpt>
<trkpt lat="33.8101618" lon="-118.3938923">
  <ele>-9.118</ele>
  <time>2026-09-01T01:18:31Z</time>
  <course>187.13</course>
  <speed>0.03605551275463989</speed>
  <fix>3d</fix>
</trkpt>
<trkpt lat="33.8101401" lon="-118.3938876">
  <ele>-7.78</ele>
  <time>2026-09-01T01:18:31Z</time>
  <course>302.13</course>
  <speed>0.0</speed>
  <fix>3d</fix>
</trkpt>
<trkpt lat="33.8101618" lon="-118.3938923">
  <ele>-9.212</ele>
  <time>2026-09-01T01:18:31Z</time>
  <course>187.13</course>
  <speed>0.03605551275463989</speed>
  <fix>3d</fix>
</trkpt>
<trkpt lat="33.8101405" lon="-118.3938854">
  <ele>-7.98</ele>
  <time>2026-09-01T01:18:31Z</time>
  <course>302.05</course>
  <speed>0.0</speed>
  <fix>3d</fix>
</trkpt>
<trkpt lat="33.8101618" lon="-118.3938923">
  <ele>-9.295</ele>
  <time>2026-09-01T01:18:31Z</time>
  <course>187.14</course>
  <speed>0.0282842712474619</speed>
  <fix>3d</fix>
</trkpt>
<trkpt lat="33.8101405" lon="-118.3938854">
  <ele>-7.98</ele>
  <time>2026-09-01T01:18:31Z</time>
  <course>302.05</course>
  <speed>0.0</speed>
  <fix>3d</fix>
</trkpt>
<trkpt lat="33.8101618" lon="-118.3938923">
  <ele>-9.362</ele>
  <time>2026-09-01T01:18:31Z</time>
  <course>187.25</course>
  <speed>0.04242640687119285</speed>
  <fix>3d</fix>
</trkpt>
<trkpt lat="33.810141" lon="-118.3938834">
  <ele>-8.16</ele>
  <time>2026-09-01T01:18:31Z</time>
  <course>222.47</course>
  <speed>0.01</speed>
  <fix>3d</fix>
</trkpt>
<trkpt lat="33.8101616" lon="-118.3938923">
  <ele>-9.412</ele>
  <time>2026-09-01T01:18:31Z</time>
  <course>187.36</course>
  <speed>0.1676305461424021</speed>
  <fix>3d</fix>
</trkpt>
<trkpt lat="33.810141" lon="-118.3938834">
  <ele>-8.16</ele>
  <time>2026-09-01T01:18:31Z</time>
  <course>222.47</course>
  <speed>0.01</speed>
  <fix>3d</fix>
</trkpt>
<trkpt lat="33.8101614" lon="-118.3938923">
  <ele>-9.447</ele>
  <time>2026-09-01T01:18:31Z</time>
  <course>187.42</course>
  <speed>0.356931365951495</speed>
  <fix>3d</fix>
</trkpt>
<trkpt lat="33.8101417" lon="-118.3938814">
  <ele>-8.3</ele>
  <time>2026-09-01T01:18:31Z</time>
  <course>189.34</course>
  <speed>0.13</speed>
  <fix>3d</fix>
</trkpt>
<trkpt lat="33.8101611" lon="-118.3938923">
  <ele>-9.472</ele>
  <time>2026-09-01T01:18:31Z</time>
  <course>187.43</course>
  <speed>0.5491812087098392</speed>
  <fix>3d</fix>
</trkpt>
<trkpt lat="33.8101417" lon="-118.3938814">
  <ele>-8.3</ele>
  <time>2026-09-01T01:18:31Z</time>
  <course>189.34</course>
  <speed>0.13</speed>
  <fix>3d</fix>
</trkpt>
<trkpt lat="33.8101606" lon="-118.3938924">
  <ele>-9.488</ele>
  <time>2026-09-01T01:18:31Z</time>
  <course>187.45</course>
  <speed>0.7299315036357864</speed>
  <fix>3d</fix>
</trkpt>
<trkpt lat="33.8101421" lon="-118.3938797">
  <ele>-8.39</ele>
  <time>2026-09-01T01:18:31Z</time>
  <course>187.66</course>
  <speed>0.45</speed>
  <fix>3d</fix>
</trkpt>
<trkpt lat="33.8101599" lon="-118.3938925">
  <ele>-9.495</ele>
  <time>2026-09-01T01:18:31Z</time>
  <course>187.46</course>
  <speed>0.910823802938856</speed>
  <fix>3d</fix>
</trkpt>
<trkpt lat="33.8101421" lon="-118.3938797">
  <ele>-8.39</ele>
  <time>2026-09-01T01:18:31Z</time>
  <course>187.66</course>
  <speed>0.45</speed>
  <fix>3d</fix>
</trkpt>
<trkpt lat="33.8101591" lon="-118.3938927">
  <ele>-9.496</ele>
  <time>2026-09-01T01:18:31Z</time>
  <course>187.47</course>
  <speed>1.0309704166463751</speed>
  <fix>3d</fix>
</trkpt>
<trkpt lat="33.810142" lon="-118.393878">
  <ele>-8.43</ele>
  <time>2026-09-01T01:18:31Z</time>
  <course>187.14</course>
  <speed>0.82</speed>
  <fix>3d</fix>
</trkpt>
<trkpt lat="33.8101583" lon="-118.3938928">
  <ele>-9.494</ele>
  <time>2026-09-01T01:18:31Z</time>
  <course>187.48</course>
  <speed>1.1412712210513327</speed>
  <fix>3d</fix>
</trkpt>
<trkpt lat="33.810142" lon="-118.393878">
  <ele>-8.43</ele>
  <time>2026-09-01T01:18:31Z</time>
  <course>187.14</course>
  <speed>0.82</speed>
  <fix>3d</fix>
</trkpt>
<trkpt lat="33.8101573" lon="-118.393893">
  <ele>-9.491</ele>
  <time>2026-09-01T01:18:31Z</time>
  <course>187.47</course>
  <speed>1.2119818480488889</speed>
  <fix>3d</fix>
</trkpt>
<trkpt lat="33.8101414" lon="-118.3938766">
  <ele>-8.46</ele>
  <time>2026-09-01T01:18:31Z</time>
  <course>186.64</course>
  <speed>1.11</speed>
  <fix>3d</fix>
</trkpt>
<trkpt lat="33.8101563" lon="-118.3938932">
  <ele>-9.487</ele>
  <time>2026-09-01T01:18:31Z</time>
  <course>187.46</course>
  <speed>1.281327436684316</speed>
  <fix>3d</fix>
</trkpt>
<trkpt lat="33.8101414" lon="-118.3938766">
  <ele>-8.46</ele>
  <time>2026-09-01T01:18:31Z</time>
  <course>186.64</course>
  <speed>1.11</speed>
  <fix>3d</fix>
</trkpt>
<trkpt lat="33.8101551" lon="-118.3938934">
  <ele>-9.483</ele>
  <time>2026-09-01T01:18:31Z</time>
  <course>187.45</course>
  <speed>1.332216198670471</speed>
  <fix>3d</fix>
</trkpt>
<trkpt lat="33.8101405" lon="-118.3938754">
  <ele>-8.48</ele>
  <time>2026-09-01T01:18:31Z</time>
  <course>186.33</course>
  <speed>1.3</speed>
  <fix>3d</fix>
</trkpt>
<trkpt lat="33.810154" lon="-118.3938935">
  <ele>-9.479</ele>
  <time>2026-09-01T01:18:31Z</time>
  <course>187.43</course>
  <speed>1.3831124321616084</speed>
  <fix>3d</fix>
</trkpt>
<trkpt lat="33.8101405" lon="-118.3938754">
  <ele>-8.48</ele>
  <time>2026-09-01T01:18:31Z</time>
  <course>186.33</course>
  <speed>1.3</speed>
  <fix>3d</fix>
</trkpt>
<trkpt lat="33.8101527" lon="-118.3938937">
  <ele>-9.476</ele>
  <time>2026-09-01T01:18:31Z</time>
  <course>187.43</course>
  <speed>1.4227438279606064</speed>
  <fix>3d</fix>
</trkpt>
<trkpt lat="33.8101395" lon="-118.3938745">
  <ele>-8.49</ele>
  <time>2026-09-01T01:18:31Z</time>
  <course>186.32</course>
  <speed>1.42</speed>
  <fix>3d</fix>
</trkpt>
<trkpt lat="33.8101514" lon="-118.3938939">
  <ele>-9.475</ele>
  <time>2026-09-01T01:18:31Z</time>
  <course>187.42</course>
  <speed>1.4538225476308997</speed>
  <fix>3d</fix>
</trkpt>
<trkpt lat="33.8101395" lon="-118.3938745">
  <ele>-8.49</ele>
  <time>2026-09-01T01:18:31Z</time>
  <course>186.32</course>
  <speed>1.42</speed>
  <fix>3d</fix>
</trkpt>
<trkpt lat="33.8101501" lon="-118.3938941">
  <ele>-9.475</ele>
  <time>2026-09-01T01:18:31Z</time>
  <course>187.42</course>
  <speed>1.4849242404917498</speed>
  <fix>3d</fix>
</trkpt>
<trkpt lat="33.8101384" lon="-118.3938737">
  <ele>-8.5</ele>
  <time>2026-09-01T01:18:31Z</time>
  <course>186.48</course>
  <speed>1.51</speed>
  <fix>3d</fix>
</trkpt>
<trkpt lat="33.8101487" lon="-118.3938943">
  <ele>-9.477</ele>
  <time>2026-09-01T01:18:31Z</time>
  <course>187.4</course>
  <speed>1.516047492659778</speed>
  <fix>3d</fix>
</trkpt>
<trkpt lat="33.8101384" lon="-118.3938737">
  <ele>-8.5</ele>
  <time>2026-09-01T01:18:31Z</time>
  <course>186.48</course>
  <speed>1.51</speed>
  <fix>3d</fix>
</trkpt>
<trkpt lat="33.8101473" lon="-118.3938945">
  <ele>-9.48</ele>
  <time>2026-09-01T01:18:31Z</time>
  <course>187.41</course>
  <speed>1.5373028328862208</speed>
  <fix>3d</fix>
</trkpt>
<trkpt lat="33.8101372" lon="-118.3938731">
  <ele>-8.52</ele>
  <time>2026-09-01T01:18:31Z</time>
  <course>186.8</course>
  <speed>1.58</speed>
  <fix>3d</fix>
</trkpt>
<trkpt lat="33.8101459" lon="-118.3938947">
  <ele>-9.484</ele>
  <time>2026-09-01T01:18:31Z</time>
  <course>187.41</course>
  <speed>1.557080601638849</speed>
  <fix>3d</fix>
</trkpt>
<trkpt lat="33.8101372" lon="-118.3938731">
  <ele>-8.52</ele>
  <time>2026-09-01T01:18:31Z</time>
  <course>186.8</course>
  <speed>1.58</speed>
  <fix>3d</fix>
</trkpt>
<trkpt lat="33.8101445" lon="-118.3938949">
  <ele>-9.487</ele>
  <time>2026-09-01T01:18:31Z</time>
  <course>187.4</course>
  <speed>1.5783535725559088</speed>
  <fix>3d</fix>
</trkpt>
<trkpt lat="33.810136" lon="-118.3938728">
  <ele>-8.55</ele>
  <time>2026-09-01T01:18:31Z</time>
  <course>187.16</course>
  <speed>1.63</speed>
  <fix>3d</fix>
</trkpt>
<trkpt lat="33.810143" lon="-118.3938951">
  <ele>-9.49</ele>
  <time>2026-09-01T01:18:31Z</time>
  <course>187.4</course>
  <speed>1.599656213065795</speed>
  <fix>3d</fix>
</trkpt>
<trkpt lat="33.810136" lon="-118.3938728">
  <ele>-8.55</ele>
  <time>2026-09-01T01:18:31Z</time>
  <course>187.16</course>
  <speed>1.63</speed>
  <fix>3d</fix>
</trkpt>
<trkpt lat="33.8101415" lon="-118.3938953">
  <ele>-9.491</ele>
  <time>2026-09-01T01:18:31Z</time>
  <course>187.4</course>
  <speed>1.609534094078159</speed>
  <fix>3d</fix>
</trkpt>
<trkpt lat="33.8101347" lon="-118.3938727">
  <ele>-8.57</ele>
  <time>2026-09-01T01:18:31Z</time>
  <course>187.47</course>
  <speed>1.67</speed>
  <fix>3d</fix>
</trkpt>
<trkpt lat="33.81014" lon="-118.3938955">
  <ele>-9.493</ele>
  <time>2026-09-01T01:18:31Z</time>
  <course>187.4</course>
  <speed>1.619413474070165</speed>
  <fix>3d</fix>
</trkpt>
<trkpt lat="33.8101347" lon="-118.3938727">
  <ele>-8.57</ele>
  <time>2026-09-01T01:18:31Z</time>
  <course>187.47</course>
  <speed>1.67</speed>
  <fix>3d</fix>
</trkpt>
<trkpt lat="33.8101385" lon="-118.3938958">
  <ele>-9.495</ele>
  <time>2026-09-01T01:18:31Z</time>
  <course>187.4</course>
  <speed>1.6308586695357754</speed>
  <fix>3d</fix>
</trkpt>
<trkpt lat="33.8101335" lon="-118.3938728">
  <ele>-8.59</ele>
  <time>2026-09-01T01:18:31Z</time>
  <course>187.74</course>
  <speed>1.7</speed>
  <fix>3d</fix>
</trkpt>
<trkpt lat="33.8101369" lon="-118.393896">
  <ele>-9.496</ele>
  <time>2026-09-01T01:18:31Z</time>
  <course>187.4</course>
  <speed>1.6407315441594945</speed>
  <fix>3d</fix>
</trkpt>
<trkpt lat="33.8101335" lon="-118.3938728">
  <ele>-8.59</ele>
  <time>2026-09-01T01:18:31Z</time>
  <course>187.74</course>
  <speed>1.7</speed>
  <fix>3d</fix>
</trkpt>
<trkpt lat="33.8101354" lon="-118.3938962">
  <ele>-9.497</ele>
  <time>2026-09-01T01:18:31Z</time>
  <course>187.4</course>
  <speed>1.6407315441594945</speed>
  <fix>3d</fix>
</trkpt>
<trkpt lat="33.8101323" lon="-118.3938732">
  <ele>-8.6</ele>
  <time>2026-09-01T01:18:31Z</time>
  <course>187.94</course>
  <speed>1.72</speed>
  <fix>3d</fix>
</trkpt>
<trkpt lat="33.8101338" lon="-118.3938965">
  <ele>-9.496</ele>
  <time>2026-09-01T01:18:31Z</time>
  <course>187.4</course>
  <speed>1.6522106403240477</speed>
  <fix>3d</fix>
</trkpt>
<trkpt lat="33.8101323" lon="-118.3938732">
  <ele>-8.6</ele>
  <time>2026-09-01T01:18:31Z</time>
  <course>187.94</course>
  <speed>1.72</speed>
  <fix>3d</fix>
</trkpt>
<trkpt lat="33.8101323" lon="-118.3938967">
  <ele>-9.495</ele>
  <time>2026-09-01T01:18:31Z</time>
  <course>187.4</course>
  <speed>1.6522106403240477</speed>
  <fix>3d</fix>
</trkpt>
<trkpt lat="33.810131" lon="-118.3938738">
  <ele>-8.62</ele>
  <time>2026-09-01T01:18:31Z</time>
  <course>188.07</course>
  <speed>1.73</speed>
  <fix>3d</fix>
</trkpt>
<trkpt lat="33.8101307" lon="-118.393897">
  <ele>-9.495</ele>
  <time>2026-09-01T01:18:31Z</time>
  <course>187.4</course>
  <speed>1.6620770138594663</speed>
  <fix>3d</fix>
</trkpt>
<trkpt lat="33.810131" lon="-118.3938738">
  <ele>-8.62</ele>
  <time>2026-09-01T01:18:31Z</time>
  <course>188.07</course>
  <speed>1.73</speed>
  <fix>3d</fix>
</trkpt>
<trkpt lat="33.8101292" lon="-118.3938972">
  <ele>-9.495</ele>
  <time>2026-09-01T01:18:31Z</time>
  <course>187.4</course>
  <speed>1.6620770138594663</speed>
  <fix>3d</fix>
</trkpt>
<trkpt lat="33.8101296" lon="-118.3938746">
  <ele>-8.62</ele>
  <time>2026-09-01T01:18:31Z</time>
  <course>188.13</course>
  <speed>1.74</speed>
  <fix>3d</fix>
</trkpt>
<trkpt lat="33.8101276" lon="-118.3938975">
  <ele>-9.495</ele>
  <time>2026-09-01T01:18:31Z</time>
  <course>187.4</course>
  <speed>1.6719449751711328</speed>
  <fix>3d</fix>
</trkpt>
<trkpt lat="33.8101296" lon="-118.3938746">
  <ele>-8.62</ele>
  <time>2026-09-01T01:18:31Z</time>
  <course>188.13</course>
  <speed>1.74</speed>
  <fix>3d</fix>
</trkpt>
<trkpt lat="33.8101261" lon="-118.3938977">
  <ele>-9.496</ele>
  <time>2026-09-01T01:18:31Z</time>
  <course>187.4</course>
  <speed>1.6719449751711328</speed>
  <fix>3d</fix>
</trkpt>
<trkpt lat="33.8101283" lon="-118.3938756">
  <ele>-8.63</ele>
  <time>2026-09-01T01:18:31Z</time>
  <course>188.15</course>
  <speed>1.74</speed>
  <fix>3d</fix>
</trkpt>
<trkpt lat="33.8101245" lon="-118.393898">
  <ele>-9.495</ele>
  <time>2026-09-01T01:18:31Z</time>
  <course>187.4</course>
  <speed>1.681814496310458</speed>
  <fix>3d</fix>
</trkpt>
<trkpt lat="33.8101283" lon="-118.3938756">
  <ele>-8.63</ele>
  <time>2026-09-01T01:18:31Z</time>
  <course>188.15</course>
  <speed>1.74</speed>
  <fix>3d</fix>
</trkpt>
<trkpt lat="33.8101229" lon="-118.3938982">
  <ele>-9.493</ele>
  <time>2026-09-01T01:18:31Z</time>
  <course>187.4</course>
  <speed>1.680238078368658</speed>
  <fix>3d</fix>
</trkpt>
<trkpt lat="33.8101269" lon="-118.3938769">
  <ele>-8.63</ele>
  <time>2026-09-01T01:18:31Z</time>
  <course>188.12</course>
  <speed>1.75</speed>
  <fix>3d</fix>
</trkpt>
<trkpt lat="33.8101214" lon="-118.3938985">
  <ele>-9.492</ele>
  <time>2026-09-01T01:18:31Z</time>
  <course>187.41</course>
  <speed>1.680238078368658</speed>
  <fix>3d</fix>
</trkpt>
<trkpt lat="33.8101269" lon="-118.3938769">
  <ele>-8.63</ele>
  <time>2026-09-01T01:18:31Z</time>
  <course>188.12</course>
  <speed>1.75</speed>
  <fix>3d</fix>
</trkpt>
<trkpt lat="33.8101198" lon="-118.3938987">
  <ele>-9.491</ele>
  <time>2026-09-01T01:18:31Z</time>
  <course>187.41</course>
  <speed>1.680238078368658</speed>
  <fix>3d</fix>
</trkpt>
<trkpt lat="33.8101254" lon="-118.3938783">
  <ele>-8.64</ele>
  <time>2026-09-01T01:18:31Z</time>
  <course>188.06</course>
  <speed>1.75</speed>
  <fix>3d</fix>
</trkpt>
<trkpt lat="33.8101182" lon="-118.393899">
  <ele>-9.491</ele>
  <time>2026-09-01T01:18:31Z</time>
  <course>187.41</course>
  <speed>1.680238078368658</speed>
  <fix>3d</fix>
</trkpt>
<trkpt lat="33.8101254" lon="-118.3938783">
  <ele>-8.64</ele>
  <time>2026-09-01T01:18:31Z</time>
  <course>188.06</course>
  <speed>1.75</speed>
  <fix>3d</fix>
</trkpt>
<trkpt lat="33.8101166" lon="-118.3938992">
  <ele>-9.491</ele>
  <time>2026-09-01T01:18:32Z</time>
  <course>187.41</course>
  <speed>1.6901183390520322</speed>
  <fix>3d</fix>
</trkpt>
<trkpt lat="33.8101238" lon="-118.39388">
  <ele>-8.65</ele>
  <time>2026-09-01T01:18:32Z</time>
  <course>188.0</course>
  <speed>1.75</speed>
  <fix>3d</fix>
</trkpt>
<trkpt lat="33.8101151" lon="-118.3938995">
  <ele>-9.491</ele>
  <time>2026-09-01T01:18:32Z</time>
  <course>187.41</course>
  <speed>1.6901183390520322</speed>
  <fix>3d</fix>
</trkpt>
<trkpt lat="33.8101238" lon="-118.39388">
  <ele>-8.65</ele>
  <time>2026-09-01T01:18:32Z</time>
  <course>188.0</course>
  <speed>1.75</speed>
  <fix>3d</fix>
</trkpt>
<trkpt lat="33.8101135" lon="-118.3938997">
  <ele>-9.491</ele>
  <time>2026-09-01T01:18:32Z</time>
  <course>187.41</course>
  <speed>1.6984993376507393</speed>
  <fix>3d</fix>
</trkpt>
<trkpt lat="33.8101221" lon="-118.3938818">
  <ele>-8.66</ele>
  <time>2026-09-01T01:18:32Z</time>
  <course>187.85</course>
  <speed>1.75</speed>
  <fix>3d</fix>
</trkpt>
<trkpt lat="33.810112" lon="-118.3939">
  <ele>-9.492</ele>
  <time>2026-09-01T01:18:32Z</time>
  <course>187.41</course>
  <speed>1.6984993376507393</speed>
  <fix>3d</fix>
</trkpt>
<trkpt lat="33.8101221" lon="-118.3938818">
  <ele>-8.66</ele>
  <time>2026-09-01T01:18:32Z</time>
  <course>187.85</course>
  <speed>1.75</speed>
  <fix>3d</fix>
</trkpt>
<trkpt lat="33.8101104" lon="-118.3939002">
  <ele>-9.493</ele>
  <time>2026-09-01T01:18:32Z</time>
  <course>187.41</course>
  <speed>1.6984993376507393</speed>
  <fix>3d</fix>
</trkpt>
<trkpt lat="33.8101203" lon="-118.3938837">
  <ele>-8.67</ele>
  <time>2026-09-01T01:18:32Z</time>
  <course>187.65</course>
  <speed>1.76</speed>
  <fix>3d</fix>
</trkpt>
<trkpt lat="33.8101088" lon="-118.3939005">
  <ele>-9.494</ele>
  <time>2026-09-01T01:18:32Z</time>
  <course>187.41</course>
  <speed>1.708391055935379</speed>
  <fix>3d</fix>
</trkpt>
<trkpt lat="33.8101203" lon="-118.3938837">
  <ele>-8.67</ele>
  <time>2026-09-01T01:18:32Z</time>
  <course>187.65</course>
  <speed>1.76</speed>
  <fix>3d</fix>
</trkpt>
<trkpt lat="33.8101073" lon="-118.3939008">
  <ele>-9.494</ele>
  <time>2026-09-01T01:18:32Z</time>
  <course>187.41</course>
  <speed>1.708391055935379</speed>
  <fix>3d</fix>
</trkpt>
<trkpt lat="33.8101184" lon="-118.3938858">
  <ele>-8.68</ele>
  <time>2026-09-01T01:18:32Z</time>
  <course>187.48</course>
  <speed>1.76</speed>
  <fix>3d</fix>
</trkpt>
<trkpt lat="33.8101057" lon="-118.393901">
  <ele>-9.493</ele>
  <time>2026-09-01T01:18:32Z</time>
  <course>187.41</course>
  <speed>1.708391055935379</speed>
  <fix>3d</fix>
</trkpt>
<trkpt lat="33.8101184" lon="-118.3938858">
  <ele>-8.68</ele>
  <time>2026-09-01T01:18:32Z</time>
  <course>187.48</course>
  <speed>1.76</speed>
  <fix>3d</fix>
</trkpt>
<trkpt lat="33.8101041" lon="-118.3939013">
  <ele>-9.492</ele>
  <time>2026-09-01T01:18:32Z</time>
  <course>187.41</course>
  <speed>1.708391055935379</speed>
  <fix>3d</fix>
</trkpt>
<trkpt lat="33.8101163" lon="-118.3938881">
  <ele>-8.69</ele>
  <time>2026-09-01T01:18:32Z</time>
  <course>187.36</course>
  <speed>1.76</speed>
  <fix>3d</fix>
</trkpt>
<trkpt lat="33.8101025" lon="-118.3939015">
  <ele>-9.489</ele>
  <time>2026-09-01T01:18:32Z</time>
  <course>187.41</course>
  <speed>1.708391055935379</speed>
  <fix>3d</fix>
</trkpt>
<trkpt lat="33.8101163" lon="-118.3938881">
  <ele>-8.69</ele>
  <time>2026-09-01T01:18:32Z</time>
  <course>187.36</course>
  <speed>1.76</speed>
  <fix>3d</fix>
</trkpt>
<trkpt lat="33.810101" lon="-118.3939017">
  <ele>-9.487</ele>
  <time>2026-09-01T01:18:32Z</time>
  <course>187.41</course>
  <speed>1.7069563556224865</speed>
  <fix>3d</fix>
</trkpt>
<trkpt lat="33.8101141" lon="-118.3938904">
  <ele>-8.69</ele>
  <time>2026-09-01T01:18:32Z</time>
  <course>187.3</course>
  <speed>1.76</speed>
  <fix>3d</fix>
</trkpt>
<trkpt lat="33.8100994" lon="-118.393902">
  <ele>-9.487</ele>
  <time>2026-09-01T01:18:32Z</time>
  <course>187.41</course>
  <speed>1.7069563556224865</speed>
  <fix>3d</fix>
</trkpt>
<trkpt lat="33.8101141" lon="-118.3938904">
  <ele>-8.69</ele>
  <time>2026-09-01T01:18:32Z</time>
  <course>187.3</course>
  <speed>1.76</speed>
  <fix>3d</fix>
</trkpt>
<trkpt lat="33.8100978" lon="-118.3939022">
  <ele>-9.487</ele>
  <time>2026-09-01T01:18:32Z</time>
  <course>187.41</course>
  <speed>1.7069563556224865</speed>
  <fix>3d</fix>
</trkpt>
<trkpt lat="33.8101117" lon="-118.3938929">
  <ele>-8.7</ele>
  <time>2026-09-01T01:18:32Z</time>
  <course>187.26</course>
  <speed>1.77</speed>
  <fix>3d</fix>
</trkpt>
<trkpt lat="33.8100962" lon="-118.3939025">
  <ele>-9.489</ele>
  <time>2026-09-01T01:18:32Z</time>
  <course>187.41</course>
  <speed>1.7168575945604807</speed>
  <fix>3d</fix>
</trkpt>
<trkpt lat="33.8101117" lon="-118.3938929">
  <ele>-8.7</ele>
  <time>2026-09-01T01:18:32Z</time>
  <course>187.26</course>
  <speed>1.77</speed>
  <fix>3d</fix>
</trkpt>
<trkpt lat="33.8100947" lon="-118.3939027">
  <ele>-9.49</ele>
  <time>2026-09-01T01:18:32Z</time>
  <course>187.41</course>
  <speed>1.7069563556224865</speed>
  <fix>3d</fix>
</trkpt>
<trkpt lat="33.8101091" lon="-118.3938954">
  <ele>-8.71</ele>
  <time>2026-09-01T01:18:32Z</time>
  <course>187.22</course>
  <speed>1.77</speed>
  <fix>3d</fix>
</trkpt>
<trkpt lat="33.8100931" lon="-118.393903">
  <ele>-9.491</ele>
  <time>2026-09-01T01:18:32Z</time>
  <course>187.41</course>
  <speed>1.7168575945604807</speed>
  <fix>3d</fix>
</trkpt>
<trkpt lat="33.8101091" lon="-118.3938954">
  <ele>-8.71</ele>
  <time>2026-09-01T01:18:32Z</time>
  <course>187.22</course>
  <speed>1.77</speed>
  <fix>3d</fix>
</trkpt>
<trkpt lat="33.8100915" lon="-118.3939032">
  <ele>-9.492</ele>
  <time>2026-09-01T01:18:32Z</time>
  <course>187.41</course>
  <speed>1.7168575945604807</speed>
  <fix>3d</fix>
</trkpt>
<trkpt lat="33.8101064" lon="-118.3938979">
  <ele>-8.72</ele>
  <time>2026-09-01T01:18:32Z</time>
  <course>187.22</course>
  <speed>1.76</speed>
  <fix>3d</fix>
</trkpt>
<trkpt lat="33.8100899" lon="-118.3939035">
  <ele>-9.492</ele>
  <time>2026-09-01T01:18:32Z</time>
  <course>187.41</course>
  <speed>1.7168575945604807</speed>
  <fix>3d</fix>
</trkpt>
<trkpt lat="33.8101064" lon="-118.3938979">
  <ele>-8.72</ele>
  <time>2026-09-01T01:18:32Z</time>
  <course>187.22</course>
  <speed>1.76</speed>
  <fix>3d</fix>
</trkpt>
<trkpt lat="33.8100883" lon="-118.3939037">
  <ele>-9.492</ele>
  <time>2026-09-01T01:18:32Z</time>
  <course>187.41</course>
  <speed>1.7168575945604807</speed>
  <fix>3d</fix>
</trkpt>
<trkpt lat="33.8101035" lon="-118.3939006">
  <ele>-8.73</ele>
  <time>2026-09-01T01:18:32Z</time>
  <course>187.23</course>
  <speed>1.76</speed>
  <fix>3d</fix>
</trkpt>
<trkpt lat="33.8100867" lon="-118.393904">
  <ele>-9.492</ele>
  <time>2026-09-01T01:18:32Z</time>
  <course>187.41</course>
  <speed>1.7168575945604807</speed>
  <fix>3d</fix>
</trkpt>
<trkpt lat="33.8101035" lon="-118.3939006">
  <ele>-8.73</ele>
  <time>2026-09-01T01:18:32Z</time>
  <course>187.23</course>
  <speed>1.76</speed>
  <fix>3d</fix>
</trkpt>
<trkpt lat="33.8100852" lon="-118.3939042">
  <ele>-9.49</ele>
  <time>2026-09-01T01:18:32Z</time>
  <course>187.41</course>
  <speed>1.7168575945604807</speed>
  <fix>3d</fix>
</trkpt>
<trkpt lat="33.8101004" lon="-118.3939032">
  <ele>-8.74</ele>
  <time>2026-09-01T01:18:32Z</time>
  <course>187.19</course>
  <speed>1.76</speed>
  <fix>3d</fix>
</trkpt>
<trkpt lat="33.8100836" lon="-118.3939045">
  <ele>-9.488</ele>
  <time>2026-09-01T01:18:32Z</time>
  <course>187.41</course>
  <speed>1.7168575945604807</speed>
  <fix>3d</fix>
</trkpt>
<trkpt lat="33.8101004" lon="-118.3939032">
  <ele>-8.74</ele>
  <time>2026-09-01T01:18:32Z</time>
  <course>187.19</course>
  <speed>1.76</speed>
  <fix>3d</fix>
</trkpt>
<trkpt lat="33.8100821" lon="-118.3939047">
  <ele>-9.485</ele>
  <time>2026-09-01T01:18:32Z</time>
  <course>187.4</course>
  <speed>1.7267599717389792</speed>
  <fix>3d</fix>
</trkpt>
<trkpt lat="33.8100971" lon="-118.3939059">
  <ele>-8.75</ele>
  <time>2026-09-01T01:18:32Z</time>
  <course>187.1</course>
  <speed>1.76</speed>
  <fix>3d</fix>
</trkpt>
<trkpt lat="33.8100805" lon="-118.393905">
  <ele>-9.485</ele>
  <time>2026-09-01T01:18:32Z</time>
  <course>187.4</course>
  <speed>1.7267599717389792</speed>
  <fix>3d</fix>
</trkpt>
<trkpt lat="33.8100971" lon="-118.3939059">
  <ele>-8.75</ele>
  <time>2026-09-01T01:18:32Z</time>
  <course>187.1</course>
  <speed>1.76</speed>
  <fix>3d</fix>
</trkpt>
<trkpt lat="33.810079" lon="-118.3939052">
  <ele>-9.485</ele>
  <time>2026-09-01T01:18:32Z</time>
  <course>187.4</course>
  <speed>1.7353097706173386</speed>
  <fix>3d</fix>
</trkpt>
<trkpt lat="33.8100936" lon="-118.3939085">
  <ele>-8.75</ele>
  <time>2026-09-01T01:18:32Z</time>
  <course>186.91</course>
  <speed>1.77</speed>
  <fix>3d</fix>
</trkpt>
<trkpt lat="33.8100774" lon="-118.3939055">
  <ele>-9.485</ele>
  <time>2026-09-01T01:18:32Z</time>
  <course>187.4</course>
  <speed>1.7353097706173386</speed>
  <fix>3d</fix>
</trkpt>
<trkpt lat="33.8100936" lon="-118.3939085">
  <ele>-8.75</ele>
  <time>2026-09-01T01:18:32Z</time>
  <course>186.91</course>
  <speed>1.77</speed>
  <fix>3d</fix>
</trkpt>
<trkpt lat="33.8100759" lon="-118.3939058">
  <ele>-9.485</ele>
  <time>2026-09-01T01:18:32Z</time>
  <course>187.4</course>
  <speed>1.7452220489095365</speed>
  <fix>3d</fix>
</trkpt>
<trkpt lat="33.81009" lon="-118.393911">
  <ele>-8.76</ele>
  <time>2026-09-01T01:18:32Z</time>
  <course>186.69</course>
  <speed>1.78</speed>
  <fix>3d</fix>
</trkpt>
<trkpt lat="33.8100743" lon="-118.393906">
  <ele>-9.486</ele>
  <time>2026-09-01T01:18:32Z</time>
  <course>187.4</course>
  <speed>1.7452220489095365</speed>
  <fix>3d</fix>
</trkpt>
<trkpt lat="33.81009" lon="-118.393911">
  <ele>-8.76</ele>
  <time>2026-09-01T01:18:32Z</time>
  <course>186.69</course>
  <speed>1.78</speed>
  <fix>3d</fix>
</trkpt>
<trkpt lat="33.8100728" lon="-118.3939063">
  <ele>-9.488</ele>
  <time>2026-09-01T01:18:32Z</time>
  <course>187.4</course>
  <speed>1.7452220489095365</speed>
  <fix>3d</fix>
</trkpt>
<trkpt lat="33.8100862" lon="-118.3939135">
  <ele>-8.78</ele>
  <time>2026-09-01T01:18:32Z</time>
  <course>186.49</course>
  <speed>1.79</speed>
  <fix>3d</fix>
</trkpt>
<trkpt lat="33.8100712" lon="-118.3939065">
  <ele>-9.489</ele>
  <time>2026-09-01T01:18:32Z</time>
  <course>187.4</course>
  <speed>1.7452220489095365</speed>
  <fix>3d</fix>
</trkpt>
<trkpt lat="33.8100862" lon="-118.3939135">
  <ele>-8.78</ele>
  <time>2026-09-01T01:18:32Z</time>
  <course>186.49</course>
  <speed>1.79</speed>
  <fix>3d</fix>
</trkpt>
<trkpt lat="33.8100697" lon="-118.3939067">
  <ele>-9.491</ele>
  <time>2026-09-01T01:18:32Z</time>
  <course>187.39</course>
  <speed>1.755135322418189</speed>
  <fix>3d</fix>
</trkpt>
<trkpt lat="33.8100822" lon="-118.3939158">
  <ele>-8.79</ele>
  <time>2026-09-01T01:18:32Z</time>
  <course>186.32</course>
  <speed>1.8</speed>
  <fix>3d</fix>
</trkpt>
<trkpt lat="33.8100681" lon="-118.393907">
  <ele>-9.491</ele>
  <time>2026-09-01T01:18:32Z</time>
  <course>187.4</course>
  <speed>1.755135322418189</speed>
  <fix>3d</fix>
</trkpt>
<trkpt lat="33.8100822" lon="-118.3939158">
  <ele>-8.79</ele>
  <time>2026-09-01T01:18:32Z</time>
  <course>186.32</course>
  <speed>1.8</speed>
  <fix>3d</fix>
</trkpt>
<trkpt lat="33.8100665" lon="-118.3939072">
  <ele>-9.492</ele>
  <time>2026-09-01T01:18:32Z</time>
  <course>187.39</course>
  <speed>1.755135322418189</speed>
  <fix>3d</fix>
</trkpt>
<trkpt lat="33.810078" lon="-118.3939181">
  <ele>-8.81</ele>
  <time>2026-09-01T01:18:32Z</time>
  <course>186.2</course>
  <speed>1.81</speed>
  <fix>3d</fix>
</trkpt>
<trkpt lat="33.810065" lon="-118.3939075">
  <ele>-9.492</ele>
  <time>2026-09-01T01:18:32Z</time>
  <course>187.39</course>
  <speed>1.755135322418189</speed>
  <fix>3d</fix>
</trkpt>
<trkpt lat="33.810078" lon="-118.3939181">
  <ele>-8.81</ele>
  <time>2026-09-01T01:18:32Z</time>
  <course>186.2</course>
  <speed>1.81</speed>
  <fix>3d</fix>
</trkpt>
<trkpt lat="33.8100634" lon="-118.3939077">
  <ele>-9.492</ele>
  <time>2026-09-01T01:18:32Z</time>
  <course>187.39</course>
  <speed>1.755135322418189</speed>
  <fix>3d</fix>
</trkpt>
<trkpt lat="33.8100736" lon="-118.3939202">
  <ele>-8.81</ele>
  <time>2026-09-01T01:18:32Z</time>
  <course>186.1</course>
  <speed>1.82</speed>
  <fix>3d</fix>
</trkpt>
<trkpt lat="33.8100618" lon="-118.393908">
  <ele>-9.491</ele>
  <time>2026-09-01T01:18:32Z</time>
  <course>187.39</course>
  <speed>1.755135322418189</speed>
  <fix>3d</fix>
</trkpt>
<trkpt lat="33.8100736" lon="-118.3939202">
  <ele>-8.81</ele>
  <time>2026-09-01T01:18:32Z</time>
  <course>186.1</course>
  <speed>1.82</speed>
  <fix>3d</fix>
</trkpt>
<trkpt lat="33.8100603" lon="-118.3939082">
  <ele>-9.49</ele>
  <time>2026-09-01T01:18:32Z</time>
  <course>187.39</course>
  <speed>1.7650495743746122</speed>
  <fix>3d</fix>
</trkpt>
<trkpt lat="33.8100691" lon="-118.3939222">
  <ele>-8.82</ele>
  <time>2026-09-01T01:18:32Z</time>
  <course>186.01</course>
  <speed>1.82</speed>
  <fix>3d</fix>
</trkpt>
<trkpt lat="33.8100587" lon="-118.3939085">
  <ele>-9.487</ele>
  <time>2026-09-01T01:18:32Z</time>
  <course>187.39</course>
  <speed>1.7650495743746122</speed>
  <fix>3d</fix>
</trkpt>
<trkpt lat="33.8100691" lon="-118.3939222">
  <ele>-8.82</ele>
  <time>2026-09-01T01:18:32Z</time>
  <course>186.01</course>
  <speed>1.82</speed>
  <fix>3d</fix>
</trkpt>
<trkpt lat="33.8100571" lon="-118.3939087">
  <ele>-9.484</ele>
  <time>2026-09-01T01:18:32Z</time>
  <course>187.39</course>
  <speed>1.755135322418189</speed>
  <fix>3d</fix>
</trkpt>
<trkpt lat="33.8100644" lon="-118.393924">
  <ele>-8.83</ele>
  <time>2026-09-01T01:18:32Z</time>
  <course>185.93</course>
  <speed>1.83</speed>
  <fix>3d</fix>
</trkpt>
<trkpt lat="33.8100556" lon="-118.3939089">
  <ele>-9.483</ele>
  <time>2026-09-01T01:18:32Z</time>
  <course>187.39</course>
  <speed>1.755135322418189</speed>
  <fix>3d</fix>
</trkpt>
<trkpt lat="33.8100644" lon="-118.393924">
  <ele>-8.83</ele>
  <time>2026-09-01T01:18:32Z</time>
  <course>185.93</course>
  <speed>1.83</speed>
  <fix>3d</fix>
</trkpt>
<trkpt lat="33.810054" lon="-118.3939092">
  <ele>-9.482</ele>
  <time>2026-09-01T01:18:32Z</time>
  <course>187.39</course>
  <speed>1.755135322418189</speed>
  <fix>3d</fix>
</trkpt>
<trkpt lat="33.8100597" lon="-118.3939256">
  <ele>-8.84</ele>
  <time>2026-09-01T01:18:32Z</time>
  <course>185.86</course>
  <speed>1.83</speed>
  <fix>3d</fix>
</trkpt>
<trkpt lat="33.8100524" lon="-118.3939094">
  <ele>-9.483</ele>
  <time>2026-09-01T01:18:32Z</time>
  <course>187.39</course>
  <speed>1.7650495743746122</speed>
  <fix>3d</fix>
</trkpt>
<trkpt lat="33.8100597" lon="-118.3939256">
  <ele>-8.84</ele>
  <time>2026-09-01T01:18:32Z</time>
  <course>185.86</course>
  <speed>1.83</speed>
  <fix>3d</fix>
</trkpt>
<trkpt lat="33.8100508" lon="-118.3939097">
  <ele>-9.485</ele>
  <time>2026-09-01T01:18:32Z</time>
  <course>187.39</course>
  <speed>1.7650495743746122</speed>
  <fix>3d</fix>
</trkpt>
<trkpt lat="33.8100548" lon="-118.3939271">
  <ele>-8.85</ele>
  <time>2026-09-01T01:18:32Z</time>
  <course>185.8</course>
  <speed>1.83</speed>
  <fix>3d</fix>
</trkpt>
<trkpt lat="33.8100493" lon="-118.3939099">
  <ele>-9.486</ele>
  <time>2026-09-01T01:18:32Z</time>
  <course>187.39</course>
  <speed>1.7650495743746122</speed>
  <fix>3d</fix>
</trkpt>
<trkpt lat="33.8100548" lon="-118.3939271">
  <ele>-8.85</ele>
  <time>2026-09-01T01:18:32Z</time>
  <course>185.8</course>
  <speed>1.83</speed>
  <fix>3d</fix>
</trkpt>
<trkpt lat="33.8100477" lon="-118.3939102">
  <ele>-9.487</ele>
  <time>2026-09-01T01:18:32Z</time>
  <course>187.39</course>
  <speed>1.7650495743746122</speed>
  <fix>3d</fix>
</trkpt>
<trkpt lat="33.8100498" lon="-118.3939283">
  <ele>-8.86</ele>
  <time>2026-09-01T01:18:32Z</time>
  <course>185.75</course>
  <speed>1.84</speed>
  <fix>3d</fix>
</trkpt>
<trkpt lat="33.8100461" lon="-118.3939104">
  <ele>-9.489</ele>
  <time>2026-09-01T01:18:32Z</time>
  <course>187.39</course>
  <speed>1.7650495743746122</speed>
  <fix>3d</fix>
</trkpt>
<trkpt lat="33.8100498" lon="-118.3939283">
  <ele>-8.86</ele>
  <time>2026-09-01T01:18:32Z</time>
  <course>185.75</course>
  <speed>1.84</speed>
  <fix>3d</fix>
</trkpt>
<trkpt lat="33.8100446" lon="-118.3939106">
  <ele>-9.489</ele>
  <time>2026-09-01T01:18:32Z</time>
  <course>187.39</course>
  <speed>1.7650495743746122</speed>
  <fix>3d</fix>
</trkpt>
<trkpt lat="33.8100448" lon="-118.3939294">
  <ele>-8.87</ele>
  <time>2026-09-01T01:18:32Z</time>
  <course>185.7</course>
  <speed>1.85</speed>
  <fix>3d</fix>
</trkpt>
<trkpt lat="33.810043" lon="-118.3939109">
  <ele>-9.489</ele>
  <time>2026-09-01T01:18:32Z</time>
  <course>187.39</course>
  <speed>1.7650495743746122</speed>
  <fix>3d</fix>
</trkpt>
<trkpt lat="33.8100448" lon="-118.3939294">
  <ele>-8.87</ele>
  <time>2026-09-01T01:18:32Z</time>
  <course>185.7</course>
  <speed>1.85</speed>
  <fix>3d</fix>
</trkpt>
<trkpt lat="33.8100414" lon="-118.3939111">
  <ele>-9.489</ele>
  <time>2026-09-01T01:18:32Z</time>
  <course>187.39</course>
  <speed>1.755135322418189</speed>
  <fix>3d</fix>
</trkpt>
<trkpt lat="33.8100398" lon="-118.3939302">
  <ele>-8.89</ele>
  <time>2026-09-01T01:18:32Z</time>
  <course>185.66</course>
  <speed>1.85</speed>
  <fix>3d</fix>
</trkpt>
<trkpt lat="33.8100398" lon="-118.3939114">
  <ele>-9.488</ele>
  <time>2026-09-01T01:18:32Z</time>
  <course>187.39</course>
  <speed>1.755135322418189</speed>
  <fix>3d</fix>
</trkpt>
<trkpt lat="33.8100398" lon="-118.3939302">
  <ele>-8.89</ele>
  <time>2026-09-01T01:18:32Z</time>
  <course>185.66</course>
  <speed>1.85</speed>
  <fix>3d</fix>
</trkpt>
<trkpt lat="33.8100383" lon="-118.3939116">
  <ele>-9.489</ele>
  <time>2026-09-01T01:18:32Z</time>
  <course>187.39</course>
  <speed>1.755135322418189</speed>
  <fix>3d</fix>
</trkpt>
<trkpt lat="33.8100347" lon="-118.3939308">
  <ele>-8.9</ele>
  <time>2026-09-01T01:18:32Z</time>
  <course>185.61</course>
  <speed>1.85</speed>
  <fix>3d</fix>
</trkpt>
<trkpt lat="33.8100367" lon="-118.3939119">
  <ele>-9.49</ele>
  <time>2026-09-01T01:18:32Z</time>
  <course>187.39</course>
  <speed>1.755135322418189</speed>
  <fix>3d</fix>
</trkpt>
<trkpt lat="33.8100347" lon="-118.3939308">
  <ele>-8.9</ele>
  <time>2026-09-01T01:18:32Z</time>
  <course>185.61</course>
  <speed>1.85</speed>
  <fix>3d</fix>
</trkpt>
<trkpt lat="33.8100351" lon="-118.3939121">
  <ele>-9.492</ele>
  <time>2026-09-01T01:18:32Z</time>
  <course>187.38</course>
  <speed>1.755135322418189</speed>
  <fix>3d</fix>
</trkpt>
<trkpt lat="33.8100296" lon="-118.3939313">
  <ele>-8.91</ele>
  <time>2026-09-01T01:18:32Z</time>
  <course>185.55</course>
  <speed>1.85</speed>
  <fix>3d</fix>
</trkpt>
<trkpt lat="33.8100335" lon="-118.3939123">
  <ele>-9.494</ele>
  <time>2026-09-01T01:18:32Z</time>
  <course>187.38</course>
  <speed>1.755135322418189</speed>
  <fix>3d</fix>
</trkpt>
<trkpt lat="33.8100296" lon="-118.3939313">
  <ele>-8.91</ele>
  <time>2026-09-01T01:18:32Z</time>
  <course>185.55</course>
  <speed>1.85</speed>
  <fix>3d</fix>
</trkpt>
<trkpt lat="33.810032" lon="-118.3939126">
  <ele>-9.494</ele>
  <time>2026-09-01T01:18:32Z</time>
  <course>187.38</course>
  <speed>1.755135322418189</speed>
  <fix>3d</fix>
</trkpt>
<trkpt lat="33.8100245" lon="-118.3939314">
  <ele>-8.91</ele>
  <time>2026-09-01T01:18:32Z</time>
  <course>185.5</course>
  <speed>1.86</speed>
  <fix>3d</fix>
</trkpt>
<trkpt lat="33.8100304" lon="-118.3939128">
  <ele>-9.493</ele>
  <time>2026-09-01T01:18:32Z</time>
  <course>187.38</course>
  <speed>1.7564737401965338</speed>
  <fix>3d</fix>
</trkpt>
<trkpt lat="33.8100245" lon="-118.3939314">
  <ele>-8.91</ele>
  <time>2026-09-01T01:18:32Z</time>
  <course>185.5</course>
  <speed>1.86</speed>
  <fix>3d</fix>
</trkpt>
<trkpt lat="33.8100288" lon="-118.3939131">
  <ele>-9.491</ele>
  <time>2026-09-01T01:18:32Z</time>
  <course>187.38</course>
  <speed>1.7564737401965338</speed>
  <fix>3d</fix>
</trkpt>
<trkpt lat="33.8100194" lon="-118.3939314">
  <ele>-8.92</ele>
  <time>2026-09-01T01:18:32Z</time>
  <course>185.44</course>
  <speed>1.86</speed>
  <fix>3d</fix>
</trkpt>
<trkpt lat="33.8100272" lon="-118.3939133">
  <ele>-9.488</ele>
  <time>2026-09-01T01:18:32Z</time>
  <course>187.38</course>
  <speed>1.7564737401965338</speed>
  <fix>3d</fix>
</trkpt>
<trkpt lat="33.8100194" lon="-118.3939314">
  <ele>-8.92</ele>
  <time>2026-09-01T01:18:32Z</time>
  <course>185.44</course>
  <speed>1.86</speed>
  <fix>3d</fix>
</trkpt>
<trkpt lat="33.8100257" lon="-118.3939136">
  <ele>-9.485</ele>
  <time>2026-09-01T01:18:32Z</time>
  <course>187.39</course>
  <speed>1.746568063374571</speed>
  <fix>3d</fix>
</trkpt>
<trkpt lat="33.8100143" lon="-118.3939311">
  <ele>-8.93</ele>
  <time>2026-09-01T01:18:32Z</time>
  <course>185.39</course>
  <speed>1.86</speed>
  <fix>3d</fix>
</trkpt>
<trkpt lat="33.8100241" lon="-118.3939138">
  <ele>-9.483</ele>
  <time>2026-09-01T01:18:32Z</time>
  <course>187.38</course>
  <speed>1.7366634676873929</speed>
  <fix>3d</fix>
</trkpt>
<trkpt lat="33.8100143" lon="-118.3939311">
  <ele>-8.93</ele>
  <time>2026-09-01T01:18:32Z</time>
  <course>185.39</course>
  <speed>1.86</speed>
  <fix>3d</fix>
</trkpt>
<trkpt lat="33.8100226" lon="-118.393914">
  <ele>-9.483</ele>
  <time>2026-09-01T01:18:32Z</time>
  <course>187.38</course>
  <speed>1.7366634676873929</speed>
  <fix>3d</fix>
</trkpt>
<trkpt lat="33.8100094" lon="-118.3939307">
  <ele>-8.94</ele>
  <time>2026-09-01T01:18:32Z</time>
  <course>185.33</course>
  <speed>1.86</speed>
  <fix>3d</fix>
</trkpt>
<trkpt lat="33.810021" lon="-118.3939143">
  <ele>-9.483</ele>
  <time>2026-09-01T01:18:32Z</time>
  <course>187.38</course>
  <speed>1.746568063374571</speed>
  <fix>3d</fix>
</trkpt>
<trkpt lat="33.8100094" lon="-118.3939307">
  <ele>-8.94</ele>
  <time>2026-09-01T01:18:32Z</time>
  <course>185.33</course>
  <speed>1.86</speed>
  <fix>3d</fix>
</trkpt>
<trkpt lat="33.8100194" lon="-118.3939145">
  <ele>-9.484</ele>
  <time>2026-09-01T01:18:32Z</time>
  <course>187.38</course>
  <speed>1.7564737401965338</speed>
  <fix>3d</fix>
</trkpt>
<trkpt lat="33.8100044" lon="-118.39393">
  <ele>-8.95</ele>
  <time>2026-09-01T01:18:32Z</time>
  <course>185.27</course>
  <speed>1.86</speed>
  <fix>3d</fix>
</trkpt>
<trkpt lat="33.8100178" lon="-118.3939148">
  <ele>-9.484</ele>
  <time>2026-09-01T01:18:32Z</time>
  <course>187.39</course>
  <speed>1.7564737401965338</speed>
  <fix>3d</fix>
</trkpt>
<trkpt lat="33.8100044" lon="-118.39393">
  <ele>-8.95</ele>
  <time>2026-09-01T01:18:32Z</time>
  <course>185.27</course>
  <speed>1.86</speed>
  <fix>3d</fix>
</trkpt>
<trkpt lat="33.8100163" lon="-118.393915">
  <ele>-9.485</ele>
  <time>2026-09-01T01:18:32Z</time>
  <course>187.38</course>
  <speed>1.7564737401965338</speed>
  <fix>3d</fix>
</trkpt>
<trkpt lat="33.8099996" lon="-118.3939292">
  <ele>-8.96</ele>
  <time>2026-09-01T01:18:32Z</time>
  <course>185.21</course>
  <speed>1.87</speed>
  <fix>3d</fix>
</trkpt>
<trkpt lat="33.8100147" lon="-118.3939153">
  <ele>-9.485</ele>
  <time>2026-09-01T01:18:32Z</time>
  <course>187.38</course>
  <speed>1.7564737401965338</speed>
  <fix>3d</fix>
</trkpt>
<trkpt lat="33.8099996" lon="-118.3939292">
  <ele>-8.96</ele>
  <time>2026-09-01T01:18:32Z</time>
  <course>185.21</course>
  <speed>1.87</speed>
  <fix>3d</fix>
</trkpt>
<trkpt lat="33.8100131" lon="-118.3939155">
  <ele>-9.485</ele>
  <time>2026-09-01T01:18:32Z</time>
  <course>187.38</course>
  <speed>1.7564737401965338</speed>
  <fix>3d</fix>
</trkpt>
<trkpt lat="33.8099949" lon="-118.3939281">
  <ele>-8.97</ele>
  <time>2026-09-01T01:18:32Z</time>
  <course>185.16</course>
  <speed>1.88</speed>
  <fix>3d</fix>
</trkpt>
<trkpt lat="33.8100115" lon="-118.3939157">
  <ele>-9.484</ele>
  <time>2026-09-01T01:18:32Z</time>
  <course>187.38</course>
  <speed>1.746568063374571</speed>
  <fix>3d</fix>
</trkpt>
<trkpt lat="33.8099949" lon="-118.3939281">
  <ele>-8.97</ele>
  <time>2026-09-01T01:18:32Z</time>
  <course>185.16</course>
  <speed>1.88</speed>
  <fix>3d</fix>
</trkpt>
<trkpt lat="33.81001" lon="-118.393916">
  <ele>-9.485</ele>
  <time>2026-09-01T01:18:32Z</time>
  <course>187.38</course>
  <speed>1.746568063374571</speed>
  <fix>3d</fix>
</trkpt>
<trkpt lat="33.8099902" lon="-118.393927">
  <ele>-8.99</ele>
  <time>2026-09-01T01:18:32Z</time>
  <course>185.1</course>
  <speed>1.88</speed>
  <fix>3d</fix>
</trkpt>
<trkpt lat="33.8100084" lon="-118.3939162">
  <ele>-9.486</ele>
  <time>2026-09-01T01:18:32Z</time>
  <course>187.38</course>
  <speed>1.746568063374571</speed>
  <fix>3d</fix>
</trkpt>
<trkpt lat="33.8099902" lon="-118.393927">
  <ele>-8.99</ele>
  <time>2026-09-01T01:18:32Z</time>
  <course>185.1</course>
  <speed>1.88</speed>
  <fix>3d</fix>
</trkpt>
<trkpt lat="33.8100068" lon="-118.3939165">
  <ele>-9.487</ele>
  <time>2026-09-01T01:18:32Z</time>
  <course>187.38</course>
  <speed>1.6871573726241424</speed>
  <fix>3d</fix>
</trkpt>
<trkpt lat="33.8099857" lon="-118.3939257">
  <ele>-9.0</ele>
  <time>2026-09-01T01:18:32Z</time>
  <course>185.05</course>
  <speed>1.88</speed>
  <fix>3d</fix>
</trkpt>
<trkpt lat="33.8100056" lon="-118.3939167">
  <ele>-9.488</ele>
  <time>2026-09-01T01:18:32Z</time>
  <course>187.37</course>
  <speed>0.932148056909416</speed>
  <fix>3d</fix>
</trkpt>
<trkpt lat="33.8099857" lon="-118.3939257">
  <ele>-9.0</ele>
  <time>2026-09-01T01:18:32Z</time>
  <course>185.05</course>
  <speed>1.88</speed>
  <fix>3d</fix>
</trkpt>
<trkpt lat="33.810005" lon="-118.3939168">
  <ele>-9.49</ele>
  <time>2026-09-01T01:18:32Z</time>
  <course>187.37</course>
  <speed>0.5787054518492115</speed>
  <fix>3d</fix>
</trkpt>
<trkpt lat="33.8099817" lon="-118.3939242">
  <ele>-9.02</ele>
  <time>2026-09-01T01:18:32Z</time>
  <course>184.44</course>
  <speed>1.4</speed>
  <fix>3d</fix>
</trkpt>
<trkpt lat="33.8100045" lon="-118.3939168">
  <ele>-9.491</ele>
  <time>2026-09-01T01:18:32Z</time>
  <course>187.36</course>
  <speed>0.39812058474788764</speed>
  <fix>3d</fix>
</trkpt>
<trkpt lat="33.8099817" lon="-118.3939242">
  <ele>-9.02</ele>
  <time>2026-09-01T01:18:32Z</time>
  <course>184.44</course>
  <speed>1.4</speed>
  <fix>3d</fix>
</trkpt>
<trkpt lat="33.8100042" lon="-118.3939169">
  <ele>-9.49</ele>
  <time>2026-09-01T01:18:32Z</time>
  <course>187.35</course>
  <speed>0.28861739379323625</speed>
  <fix>3d</fix>
</trkpt>
<trkpt lat="33.8099789" lon="-118.3939224">
  <ele>-9.03</ele>
  <time>2026-09-01T01:18:32Z</time>
  <course>182.25</course>
  <speed>0.71</speed>
  <fix>3d</fix>
</trkpt>
<trkpt lat="33.810004" lon="-118.393917">
  <ele>-9.49</ele>
  <time>2026-09-01T01:18:32Z</time>
  <course>187.34</course>
  <speed>0.21189620100417092</speed>
  <fix>3d</fix>
</trkpt>
<trkpt lat="33.8099789" lon="-118.3939224">
  <ele>-9.03</ele>
  <time>2026-09-01T01:18:32Z</time>
  <course>182.25</course>
  <speed>0.71</speed>
  <fix>3d</fix>
</trkpt>
<trkpt lat="33.8100038" lon="-118.393917">
  <ele>-9.49</ele>
  <time>2026-09-01T01:18:32Z</time>
  <course>187.33</course>
  <speed>0.1615549442140351</speed>
  <fix>3d</fix>
</trkpt>
<trkpt lat="33.8099773" lon="-118.3939204">
  <ele>-9.04</ele>
  <time>2026-09-01T01:18:32Z</time>
  <course>179.49</course>
  <speed>0.42</speed>
  <fix>3d</fix>
</trkpt>
<trkpt lat="33.8100036" lon="-118.3939171">
  <ele>-9.489</ele>
  <time>2026-09-01T01:18:32Z</time>
  <course>187.33</course>
  <speed>0.12529964086141668</speed>
  <fix>3d</fix>
</trkpt>
<trkpt lat="33.8099773" lon="-118.3939204">
  <ele>-9.04</ele>
  <time>2026-09-01T01:18:32Z</time>
  <course>179.49</course>
  <speed>0.42</speed>
  <fix>3d</fix>
</trkpt>
<trkpt lat="33.8100035" lon="-118.3939171">
  <ele>-9.487</ele>
  <time>2026-09-01T01:18:32Z</time>
  <course>187.32</course>
  <speed>0.1</speed>
  <fix>3d</fix>
</trkpt>
<trkpt lat="33.8099762" lon="-118.3939183">
  <ele>-9.05</ele>
  <time>2026-09-01T01:18:32Z</time>
  <course>177.18</course>
  <speed>0.3</speed>
  <fix>3d</fix>
</trkpt>
<trkpt lat="33.8100034" lon="-118.3939172">
  <ele>-9.486</ele>
  <time>2026-09-01T01:18:32Z</time>
  <course>187.31</course>
  <speed>0.07810249675906654</speed>
  <fix>3d</fix>
</trkpt>
<trkpt lat="33.8099762" lon="-118.3939183">
  <ele>-9.05</ele>
  <time>2026-09-01T01:18:32Z</time>
  <course>177.18</course>
  <speed>0.3</speed>
  <fix>3d</fix>
</trkpt>
<trkpt lat="33.8100033" lon="-118.3939172">
  <ele>-9.485</ele>
  <time>2026-09-01T01:18:32Z</time>
  <course>187.31</course>
  <speed>0.0670820393249937</speed>
  <fix>3d</fix>
</trkpt>
<trkpt lat="33.8099754" lon="-118.3939162">
  <ele>-9.06</ele>
  <time>2026-09-01T01:18:32Z</time>
  <course>175.21</course>
  <speed>0.23</speed>
  <fix>3d</fix>
</trkpt>
<trkpt lat="33.8100033" lon="-118.3939172">
  <ele>-9.487</ele>
  <time>2026-09-01T01:18:32Z</time>
  <course>187.29</course>
  <speed>0.06082762530298219</speed>
  <fix>3d</fix>
</trkpt>
<trkpt lat="33.8099754" lon="-118.3939162">
  <ele>-9.06</ele>
  <time>2026-09-01T01:18:32Z</time>
  <course>175.21</course>
  <speed>0.23</speed>
  <fix>3d</fix>
</trkpt>
<trkpt lat="33.8100034" lon="-118.3939172">
  <ele>-9.49</ele>
  <time>2026-09-01T01:18:32Z</time>
  <course>187.28</course>
  <speed>0.06</speed>
  <fix>3d</fix>
</trkpt>
<trkpt lat="33.8099748" lon="-118.393914">
  <ele>-9.07</ele>
  <time>2026-09-01T01:18:32Z</time>
  <course>173.5</course>
  <speed>0.19</speed>
  <fix>3d</fix>
</trkpt>
<trkpt lat="33.8100034" lon="-118.3939173">
  <ele>-9.491</ele>
  <time>2026-09-01T01:18:32Z</time>
  <course>187.27</course>
  <speed>0.0632455532033676</speed>
  <fix>3d</fix>
</trkpt>
<trkpt lat="33.8099748" lon="-118.393914">
  <ele>-9.07</ele>
  <time>2026-09-01T01:18:32Z</time>
  <course>173.5</course>
  <speed>0.19</speed>
  <fix>3d</fix>
</trkpt>
<trkpt lat="33.8100035" lon="-118.3939173">
  <ele>-9.493</ele>
  <time>2026-09-01T01:18:32Z</time>
  <course>187.26</course>
  <speed>0.0670820393249937</speed>
  <fix>3d</fix>
</trkpt>
<trkpt lat="33.8099746" lon="-118.3939118">
  <ele>-9.08</ele>
  <time>2026-09-01T01:18:32Z</time>
  <course>171.99</course>
  <speed>0.16</speed>
  <fix>3d</fix>
</trkpt>
<trkpt lat="33.8100035" lon="-118.3939173">
  <ele>-9.495</ele>
  <time>2026-09-01T01:18:32Z</time>
  <course>187.24</course>
  <speed>0.07810249675906654</speed>
  <fix>3d</fix>
</trkpt>
<trkpt lat="33.8099746" lon="-118.3939118">
  <ele>-9.08</ele>
  <time>2026-09-01T01:18:32Z</time>
  <course>171.99</course>
  <speed>0.16</speed>
  <fix>3d</fix>
</trkpt>
<trkpt lat="33.8100036" lon="-118.3939173">
  <ele>-9.496</ele>
  <time>2026-09-01T01:18:32Z</time>
  <course>187.23</course>
  <speed>0.09219544457292887</speed>
  <fix>3d</fix>
</trkpt>
<trkpt lat="33.8099745" lon="-118.3939097">
  <ele>-9.09</ele>
  <time>2026-09-01T01:18:32Z</time>
  <course>170.64</course>
  <speed>0.14</speed>
  <fix>3d</fix>
</trkpt>
<trkpt lat="33.8100037" lon="-118.3939173">
  <ele>-9.496</ele>
  <time>2026-09-01T01:18:32Z</time>
  <course>187.22</course>
  <speed>0.09899494936611665</speed>
  <fix>3d</fix>
</trkpt>
<trkpt lat="33.8099745" lon="-118.3939097">
  <ele>-9.09</ele>
  <time>2026-09-01T01:18:32Z</time>
  <course>170.64</course>
  <speed>0.14</speed>
  <fix>3d</fix>
</trkpt>
<trkpt lat="33.8100037" lon="-118.3939174">
  <ele>-9.495</ele>
  <time>2026-09-01T01:18:32Z</time>
  <course>187.21</course>
  <speed>0.1063014581273465</speed>
  <fix>3d</fix>
</trkpt>
<trkpt lat="33.8099747" lon="-118.3939075">
  <ele>-9.09</ele>
  <time>2026-09-01T01:18:32Z</time>
  <course>169.45</course>
  <speed>0.13</speed>
  <fix>3d</fix>
</trkpt>
<trkpt lat="33.8100037" lon="-118.3939174">
  <ele>-9.492</ele>
  <time>2026-09-01T01:18:32Z</time>
  <course>187.21</course>
  <speed>0.11401754250991379</speed>
  <fix>3d</fix>
</trkpt>
<trkpt lat="33.8099747" lon="-118.3939075">
  <ele>-9.09</ele>
  <time>2026-09-01T01:18:32Z</time>
  <course>169.45</course>
  <speed>0.13</speed>
  <fix>3d</fix>
</trkpt>
<trkpt lat="33.8100035" lon="-118.3939174">
  <ele>-9.486</ele>
  <time>2026-09-01T01:18:32Z</time>
  <course>187.21</course>
  <speed>0.0</speed>
  <fix>3d</fix>
</trkpt>
<trkpt lat="33.809975" lon="-118.3939054">
  <ele>-9.1</ele>
  <time>2026-09-01T01:18:32Z</time>
  <course>168.38</course>
  <speed>0.11</speed>
  <fix>3d</fix>
</trkpt>
<trkpt lat="33.8100035" lon="-118.3939174">
  <ele>-9.48</ele>
  <time>2026-09-01T01:18:32Z</time>
  <course>187.2</course>
  <speed>0.01</speed>
  <fix>3d</fix>
</trkpt>
<trkpt lat="33.809975" lon="-118.3939054">
  <ele>-9.1</ele>
  <time>2026-09-01T01:18:32Z</time>
  <course>168.38</course>
  <speed>0.11</speed>
  <fix>3d</fix>
</trkpt>
<trkpt lat="33.8100035" lon="-118.3939174">
  <ele>-9.478</ele>
  <time>2026-09-01T01:18:32Z</time>
  <course>187.19</course>
  <speed>0.02</speed>
  <fix>3d</fix>
</trkpt>
<trkpt lat="33.8099756" lon="-118.3939033">
  <ele>-9.1</ele>
  <time>2026-09-01T01:18:32Z</time>
  <course>167.4</course>
  <speed>0.1</speed>
  <fix>3d</fix>
</trkpt>
<trkpt lat="33.8100035" lon="-118.3939174">
  <ele>-9.477</ele>
  <time>2026-09-01T01:18:32Z</time>
  <course>187.19</course>
  <speed>0.03</speed>
  <fix>3d</fix>
</trkpt>
<trkpt lat="33.8099756" lon="-118.3939033">
  <ele>-9.1</ele>
  <time>2026-09-01T01:18:32Z</time>
  <course>167.4</course>
  <speed>0.1</speed>
  <fix>3d</fix>
</trkpt>
<trkpt lat="33.8100035" lon="-118.3939174">
  <ele>-9.479</ele>
  <time>2026-09-01T01:18:32Z</time>
  <course>187.18</course>
  <speed>0.0316227766016838</speed>
  <fix>3d</fix>
</trkpt>
<trkpt lat="33.8099763" lon="-118.3939014">
  <ele>-9.11</ele>
  <time>2026-09-01T01:18:32Z</time>
  <course>166.55</course>
  <speed>0.09</speed>
  <fix>3d</fix>
</trkpt>
<trkpt lat="33.8100035" lon="-118.3939174">
  <ele>-9.481</ele>
  <time>2026-09-01T01:18:32Z</time>
  <course>187.17</course>
  <speed>0.0412310562561766</speed>
  <fix>3d</fix>
</trkpt>
<trkpt lat="33.8099763" lon="-118.3939014">
  <ele>-9.11</ele>
  <time>2026-09-01T01:18:32Z</time>
  <course>166.55</course>
  <speed>0.09</speed>
  <fix>3d</fix>
</trkpt>
<trkpt lat="33.8100035" lon="-118.3939174">
  <ele>-9.484</ele>
  <time>2026-09-01T01:18:32Z</time>
  <course>187.16</course>
  <speed>0.05099019513592785</speed>
  <fix>3d</fix>
</trkpt>
<trkpt lat="33.8099772" lon="-118.3938997">
  <ele>-9.13</ele>
  <time>2026-09-01T01:18:32Z</time>
  <course>165.82</course>
  <speed>0.09</speed>
  <fix>3d</fix>
</trkpt>
<trkpt lat="33.8100035" lon="-118.3939174">
  <ele>-9.485</ele>
  <time>2026-09-01T01:18:32Z</time>
  <course>187.15</course>
  <speed>0.06082762530298219</speed>
  <fix>3d</fix>
</trkpt>
<trkpt lat="33.8099772" lon="-118.3938997">
  <ele>-9.13</ele>
  <time>2026-09-01T01:18:32Z</time>
  <course>165.82</course>
  <speed>0.09</speed>
  <fix>3d</fix>
</trkpt>
<trkpt lat="33.8100035" lon="-118.3939174">
  <ele>-9.487</ele>
  <time>2026-09-01T01:18:32Z</time>
  <course>187.14</course>
  <speed>0.0632455532033676</speed>
  <fix>3d</fix>
</trkpt>
<trkpt lat="33.8099782" lon="-118.393898">
  <ele>-9.14</ele>
  <time>2026-09-01T01:18:32Z</time>
  <course>165.14</course>
  <speed>0.08</speed>
  <fix>3d</fix>
</trkpt>
<trkpt lat="33.8100035" lon="-118.3939174">
  <ele>-9.488</ele>
  <time>2026-09-01T01:18:32Z</time>
  <course>187.14</course>
  <speed>0.07280109889280519</speed>
  <fix>3d</fix>
</trkpt>
<trkpt lat="33.8099782" lon="-118.393898">
  <ele>-9.14</ele>
  <time>2026-09-01T01:18:32Z</time>
  <course>165.14</course>
  <speed>0.08</speed>
  <fix>3d</fix>
</trkpt>
<trkpt lat="33.8100035" lon="-118.3939174">
  <ele>-9.488</ele>
  <time>2026-09-01T01:18:32Z</time>
  <course>187.13</course>
  <speed>0.0824621125123532</speed>
  <fix>3d</fix>
</trkpt>
<trkpt lat="33.8099794" lon="-118.3938965">
  <ele>-9.16</ele>
  <time>2026-09-01T01:18:32Z</time>
  <course>164.48</course>
  <speed>0.08</speed>
  <fix>3d</fix>
</trkpt>
<trkpt lat="33.8100035" lon="-118.3939174">
  <ele>-9.488</ele>
  <time>2026-09-01T01:18:32Z</time>
  <course>187.12</course>
  <speed>0.0824621125123532</speed>
  <fix>3d</fix>
</trkpt>
<trkpt lat="33.8099794" lon="-118.3938965">
  <ele>-9.16</ele>
  <time>2026-09-01T01:18:32Z</time>
  <course>164.48</course>
  <speed>0.08</speed>
  <fix>3d</fix>
</trkpt>
<trkpt lat="33.8100035" lon="-118.3939174">
  <ele>-9.486</ele>
  <time>2026-09-01T01:18:32Z</time>
  <course>187.11</course>
  <speed>0.09486832980505139</speed>
  <fix>3d</fix>
</trkpt>
<trkpt lat="33.8099807" lon="-118.3938951">
  <ele>-9.17</ele>
  <time>2026-09-01T01:18:32Z</time>
  <course>163.87</course>
  <speed>0.07</speed>
  <fix>3d</fix>
</trkpt>
<trkpt lat="33.8100035" lon="-118.3939174">
  <ele>-9.484</ele>
  <time>2026-09-01T01:18:32Z</time>
  <course>187.11</course>
  <speed>0.09486832980505139</speed>
  <fix>3d</fix>
</trkpt>
<trkpt lat="33.8099807" lon="-118.3938951">
  <ele>-9.17</ele>
  <time>2026-09-01T01:18:32Z</time>
  <course>163.87</course>
  <speed>0.07</speed>
  <fix>3d</fix>
</trkpt>
<trkpt lat="33.8100035" lon="-118.3939174">
  <ele>-9.483</ele>
  <time>2026-09-01T01:18:32Z</time>
  <course>187.1</course>
  <speed>0.1044030650891055</speed>
  <fix>3d</fix>
</trkpt>
<trkpt lat="33.809982" lon="-118.3938939">
  <ele>-9.18</ele>
  <time>2026-09-01T01:18:32Z</time>
  <course>163.28</course>
  <speed>0.07</speed>
  <fix>3d</fix>
</trkpt>
<trkpt lat="33.8100035" lon="-118.3939174">
  <ele>-9.483</ele>
  <time>2026-09-01T01:18:32Z</time>
  <course>187.09</course>
  <speed>0.1044030650891055</speed>
  <fix>3d</fix>
</trkpt>
<trkpt lat="33.809982" lon="-118.3938939">
  <ele>-9.18</ele>
  <time>2026-09-01T01:18:32Z</time>
  <course>163.28</course>
  <speed>0.07</speed>
  <fix>3d</fix>
</trkpt>
<trkpt lat="33.8100035" lon="-118.3939174">
  <ele>-9.484</ele>
  <time>2026-09-01T01:18:32Z</time>
  <course>187.08</course>
  <speed>0.11401754250991379</speed>
  <fix>3d</fix>
</trkpt>
<trkpt lat="33.8099836" lon="-118.393893">
  <ele>-9.19</ele>
  <time>2026-09-01T01:18:32Z</time>
  <course>162.78</course>
  <speed>0.06</speed>
  <fix>3d</fix>
</trkpt>
<trkpt lat="33.8100035" lon="-118.3939174">
  <ele>-9.484</ele>
  <time>2026-09-01T01:18:32Z</time>
  <course>187.07</course>
  <speed>0.11704699910719625</speed>
  <fix>3d</fix>
</trkpt>
<trkpt lat="33.8099836" lon="-118.393893">
  <ele>-9.19</ele>
  <time>2026-09-01T01:18:32Z</time>
  <course>162.78</course>
  <speed>0.06</speed>
  <fix>3d</fix>
</trkpt>
<trkpt lat="33.8100035" lon="-118.3939174">
  <ele>-9.484</ele>
  <time>2026-09-01T01:18:32Z</time>
  <course>187.07</course>
  <speed>0.1264911064067352</speed>
  <fix>3d</fix>
</trkpt>
<trkpt lat="33.8099852" lon="-118.3938922">
  <ele>-9.2</ele>
  <time>2026-09-01T01:18:32Z</time>
  <course>162.38</course>
  <speed>0.06</speed>
  <fix>3d</fix>
</trkpt>
<trkpt lat="33.8100035" lon="-118.3939174">
  <ele>-9.483</ele>
  <time>2026-09-01T01:18:32Z</time>
  <course>187.06</course>
  <speed>0.1264911064067352</speed>
  <fix>3d</fix>
</trkpt>
<trkpt lat="33.8099852" lon="-118.3938922">
  <ele>-9.2</ele>
  <time>2026-09-01T01:18:32Z</time>
  <course>162.38</course>
  <speed>0.06</speed>
  <fix>3d</fix>
</trkpt>
<trkpt lat="33.8100035" lon="-118.3939174">
  <ele>-9.483</ele>
  <time>2026-09-01T01:18:32Z</time>
  <course>187.05</course>
  <speed>0.13601470508735444</speed>
  <fix>3d</fix>
</trkpt>
<trkpt lat="33.8099868" lon="-118.3938916">
  <ele>-9.21</ele>
  <time>2026-09-01T01:18:32Z</time>
  <course>161.99</course>
  <speed>0.06</speed>
  <fix>3d</fix>
</trkpt>
<trkpt lat="33.8100035" lon="-118.3939174">
  <ele>-9.483</ele>
  <time>2026-09-01T01:18:32Z</time>
  <course>187.05</course>
  <speed>0.1392838827718412</speed>
  <fix>3d</fix>
</trkpt>
<trkpt lat="33.8099868" lon="-118.3938916">
  <ele>-9.21</ele>
  <time>2026-09-01T01:18:32Z</time>
  <course>161.99</course>
  <speed>0.06</speed>
  <fix>3d</fix>
</trkpt>
<trkpt lat="33.8100035" lon="-118.3939174">
  <ele>-9.484</ele>
  <time>2026-09-01T01:18:32Z</time>
  <course>187.04</course>
  <speed>0.14866068747318506</speed>
  <fix>3d</fix>
</trkpt>
<trkpt lat="33.8099885" lon="-118.3938912">
  <ele>-9.22</ele>
  <time>2026-09-01T01:18:32Z</time>
  <course>161.6</course>
  <speed>0.05</speed>
  <fix>3d</fix>
</trkpt>
<trkpt lat="33.8100035" lon="-118.3939174">
  <ele>-9.485</ele>
  <time>2026-09-01T01:18:32Z</time>
  <course>187.03</course>
  <speed>0.14866068747318506</speed>
  <fix>3d</fix>
</trkpt>
<trkpt lat="33.8099885" lon="-118.3938912">
  <ele>-9.22</ele>
  <time>2026-09-01T01:18:32Z</time>
  <course>161.6</course>
  <speed>0.05</speed>
  <fix>3d</fix>
</trkpt>
<trkpt lat="33.8100035" lon="-118.3939174">
  <ele>-9.486</ele>
  <time>2026-09-01T01:18:32Z</time>
  <course>187.02</course>
  <speed>0.15811388300841897</speed>
  <fix>3d</fix>
</trkpt>
<trkpt lat="33.8099902" lon="-118.3938911">
  <ele>-9.24</ele>
  <time>2026-09-01T01:18:32Z</time>
  <course>161.21</course>
  <speed>0.05</speed>
  <fix>3d</fix>
</trkpt>
<trkpt lat="33.8100035" lon="-118.3939174">
  <ele>-9.488</ele>
  <time>2026-09-01T01:18:32Z</time>
  <course>187.01</course>
  <speed>0.15811388300841897</speed>
  <fix>3d</fix>
</trkpt>
<trkpt lat="33.8099902" lon="-118.3938911">
  <ele>-9.24</ele>
  <time>2026-09-01T01:18:32Z</time>
  <course>161.21</course>
  <speed>0.05</speed>
  <fix>3d</fix>
</trkpt>
<trkpt lat="33.8100035" lon="-118.3939174">
  <ele>-9.489</ele>
  <time>2026-09-01T01:18:32Z</time>
  <course>187.0</course>
  <speed>0.1708800749063506</speed>
  <fix>3d</fix>
</trkpt>
<trkpt lat="33.8099919" lon="-118.3938912">
  <ele>-9.26</ele>
  <time>2026-09-01T01:18:32Z</time>
  <course>160.84</course>
  <speed>0.05</speed>
  <fix>3d</fix>
</trkpt>
<trkpt lat="33.8100035" lon="-118.3939174">
  <ele>-9.49</ele>
  <time>2026-09-01T01:18:32Z</time>
  <course>187.0</course>
  <speed>0.1708800749063506</speed>
  <fix>3d</fix>
</trkpt>
<trkpt lat="33.8099919" lon="-118.3938912">
  <ele>-9.26</ele>
  <time>2026-09-01T01:18:32Z</time>
  <course>160.84</course>
  <speed>0.05</speed>
  <fix>3d</fix>
</trkpt>
<trkpt lat="33.8100035" lon="-118.3939174">
  <ele>-9.489</ele>
  <time>2026-09-01T01:18:32Z</time>
  <course>186.99</course>
  <speed>0.1708800749063506</speed>
  <fix>3d</fix>
</trkpt>
<trkpt lat="33.8099935" lon="-118.3938915">
  <ele>-9.27</ele>
  <time>2026-09-01T01:18:32Z</time>
  <course>160.48</course>
  <speed>0.05</speed>
  <fix>3d</fix>
</trkpt>
<trkpt lat="33.8100035" lon="-118.3939174">
  <ele>-9.489</ele>
  <time>2026-09-01T01:18:32Z</time>
  <course>186.98</course>
  <speed>0.18027756377319945</speed>
  <fix>3d</fix>
</trkpt>
<trkpt lat="33.8099935" lon="-118.3938915">
  <ele>-9.27</ele>
  <time>2026-09-01T01:18:32Z</time>
  <course>160.48</course>
  <speed>0.05</speed>
  <fix>3d</fix>
</trkpt>
<trkpt lat="33.8100035" lon="-118.3939174">
  <ele>-9.489</ele>
  <time>2026-09-01T01:18:32Z</time>
  <course>186.97</course>
  <speed>0.18384776310850234</speed>
  <fix>3d</fix>
</trkpt>
<trkpt lat="33.8099952" lon="-118.393892">
  <ele>-9.28</ele>
  <time>2026-09-01T01:18:32Z</time>
  <course>160.19</course>
  <speed>0.04</speed>
  <fix>3d</fix>
</trkpt>
<trkpt lat="33.8100035" lon="-118.3939174">
  <ele>-9.489</ele>
  <time>2026-09-01T01:18:32Z</time>
  <course>186.97</course>
  <speed>0.19313207915827968</speed>
  <fix>3d</fix>
</trkpt>
<trkpt lat="33.8099952" lon="-118.393892">
  <ele>-9.28</ele>
  <time>2026-09-01T01:18:32Z</time>
  <course>160.19</course>
  <speed>0.04</speed>
  <fix>3d</fix>
</trkpt>
<trkpt lat="33.8100035" lon="-118.3939174">
  <ele>-9.488</ele>
  <time>2026-09-01T01:18:32Z</time>
  <course>186.96</course>
  <speed>0.19313207915827968</speed>
  <fix>3d</fix>
</trkpt>
<trkpt lat="33.8099968" lon="-118.3938927">
  <ele>-9.29</ele>
  <time>2026-09-01T01:18:32Z</time>
  <course>159.94</course>
  <speed>0.04</speed>
  <fix>3d</fix>
</trkpt>
<trkpt lat="33.8100035" lon="-118.3939174">
  <ele>-9.487</ele>
  <time>2026-09-01T01:18:32Z</time>
  <course>186.95</course>
  <speed>0.19313207915827968</speed>
  <fix>3d</fix>
</trkpt>
<trkpt lat="33.8099968" lon="-118.3938927">
  <ele>-9.29</ele>
  <time>2026-09-01T01:18:32Z</time>
  <course>159.94</course>
  <speed>0.04</speed>
  <fix>3d</fix>
</trkpt>
<trkpt lat="33.8100035" lon="-118.3939174">
  <ele>-9.487</ele>
  <time>2026-09-01T01:18:32Z</time>
  <course>186.95</course>
  <speed>0.20248456731316586</speed>
  <fix>3d</fix>
</trkpt>
<trkpt lat="33.8099983" lon="-118.3938936">
  <ele>-9.3</ele>
  <time>2026-09-01T01:18:32Z</time>
  <course>159.68</course>
  <speed>0.04</speed>
  <fix>3d</fix>
</trkpt>
<trkpt lat="33.8100035" lon="-118.3939174">
  <ele>-9.487</ele>
  <time>2026-09-01T01:18:32Z</time>
  <course>186.94</course>
  <speed>0.20248456731316586</speed>
  <fix>3d</fix>
</trkpt>
<trkpt lat="33.8099983" lon="-118.3938936">
  <ele>-9.3</ele>
  <time>2026-09-01T01:18:32Z</time>
  <course>159.68</course>
  <speed>0.04</speed>
  <fix>3d</fix>
</trkpt>
<trkpt lat="33.8100035" lon="-118.3939174">
  <ele>-9.488</ele>
  <time>2026-09-01T01:18:32Z</time>
  <course>186.93</course>
  <speed>0.20615528128088303</speed>
  <fix>3d</fix>
</trkpt>
<trkpt lat="33.8099998" lon="-118.3938947">
  <ele>-9.31</ele>
  <time>2026-09-01T01:18:32Z</time>
  <course>159.41</course>
  <speed>0.04</speed>
  <fix>3d</fix>
</trkpt>
<trkpt lat="33.8100035" lon="-118.3939174">
  <ele>-9.489</ele>
  <time>2026-09-01T01:18:32Z</time>
  <course>186.92</course>
  <speed>0.21540659228538014</speed>
  <fix>3d</fix>
</trkpt>
<trkpt lat="33.8099998" lon="-118.3938947">
  <ele>-9.31</ele>
  <time>2026-09-01T01:18:32Z</time>
  <course>159.41</course>
  <speed>0.04</speed>
  <fix>3d</fix>
</trkpt>
<trkpt lat="33.8100035" lon="-118.3939174">
  <ele>-9.49</ele>
  <time>2026-09-01T01:18:32Z</time>
  <course>186.91</course>
  <speed>0.21540659228538014</speed>
  <fix>3d</fix>
</trkpt>
<trkpt lat="33.8100011" lon="-118.393896">
  <ele>-9.32</ele>
  <time>2026-09-01T01:18:32Z</time>
  <course>159.15</course>
  <speed>0.04</speed>
  <fix>3d</fix>
</trkpt>
<trkpt lat="33.8100035" lon="-118.3939174">
  <ele>-9.491</ele>
  <time>2026-09-01T01:18:32Z</time>
  <course>186.91</course>
  <speed>0.21540659228538014</speed>
  <fix>3d</fix>
</trkpt>
<trkpt lat="33.8100011" lon="-118.393896">
  <ele>-9.32</ele>
  <time>2026-09-01T01:18:32Z</time>
  <course>159.15</course>
  <speed>0.04</speed>
  <fix>3d</fix>
</trkpt>
<trkpt lat="33.8100035" lon="-118.3939174">
  <ele>-9.492</ele>
  <time>2026-09-01T01:18:32Z</time>
  <course>186.9</course>
  <speed>0.22472205054244232</speed>
  <fix>3d</fix>
</trkpt>
<trkpt lat="33.8100024" lon="-118.3938974">
  <ele>-9.34</ele>
  <time>2026-09-01T01:18:32Z</time>
  <course>158.91</course>
  <speed>0.04</speed>
  <fix>3d</fix>
</trkpt>
<trkpt lat="33.8100035" lon="-118.3939174">
  <ele>-9.493</ele>
  <time>2026-09-01T01:18:32Z</time>
  <course>186.89</course>
  <speed>0.22472205054244232</speed>
  <fix>3d</fix>
</trkpt>
<trkpt lat="33.8100024" lon="-118.3938974">
  <ele>-9.34</ele>
  <time>2026-09-01T01:18:32Z</time>
  <course>158.91</course>
  <speed>0.04</speed>
  <fix>3d</fix>
</trkpt>
<trkpt lat="33.8100035" lon="-118.3939174">
  <ele>-9.492</ele>
  <time>2026-09-01T01:18:32Z</time>
  <course>186.89</course>
  <speed>0.22847319317591727</speed>
  <fix>3d</fix>
</trkpt>
<trkpt lat="33.8100035" lon="-118.3938991">
  <ele>-9.35</ele>
  <time>2026-09-01T01:18:32Z</time>
  <course>158.68</course>
  <speed>0.04</speed>
  <fix>3d</fix>
</trkpt>
<trkpt lat="33.8100035" lon="-118.3939174">
  <ele>-9.491</ele>
  <time>2026-09-01T01:18:32Z</time>
  <course>186.88</course>
  <speed>0.22847319317591727</speed>
  <fix>3d</fix>
</trkpt>
<trkpt lat="33.8100035" lon="-118.3938991">
  <ele>-9.35</ele>
  <time>2026-09-01T01:18:32Z</time>
  <course>158.68</course>
  <speed>0.04</speed>
  <fix>3d</fix>
</trkpt>
<trkpt lat="33.8100035" lon="-118.3939174">
  <ele>-9.49</ele>
  <time>2026-09-01T01:18:32Z</time>
  <course>186.87</course>
  <speed>0.23769728648009425</speed>
  <fix>3d</fix>
</trkpt>
<trkpt lat="33.8100045" lon="-118.3939008">
  <ele>-9.35</ele>
  <time>2026-09-01T01:18:32Z</time>
  <course>158.51</course>
  <speed>0.03</speed>
  <fix>3d</fix>
</trkpt>
<trkpt lat="33.8100035" lon="-118.3939174">
  <ele>-9.489</ele>
  <time>2026-09-01T01:18:32Z</time>
  <course>186.87</course>
  <speed>0.23769728648009425</speed>
  <fix>3d</fix>
</trkpt>
<trkpt lat="33.8100045" lon="-118.3939008">
  <ele>-9.35</ele>
  <time>2026-09-01T01:18:32Z</time>
  <course>158.51</course>
  <speed>0.03</speed>
  <fix>3d</fix>
</trkpt>
<trkpt lat="33.8100035" lon="-118.3939174">
  <ele>-9.489</ele>
  <time>2026-09-01T01:18:32Z</time>
  <course>186.86</course>
  <speed>0.23769728648009425</speed>
  <fix>3d</fix>
</trkpt>
<trkpt lat="33.8100053" lon="-118.3939026">
  <ele>-9.36</ele>
  <time>2026-09-01T01:18:32Z</time>
  <course>158.38</course>
  <speed>0.03</speed>
  <fix>3d</fix>
</trkpt>
<trkpt lat="33.8100035" lon="-118.3939174">
  <ele>-9.489</ele>
  <time>2026-09-01T01:18:32Z</time>
  <course>186.85</course>
  <speed>0.23769728648009425</speed>
  <fix>3d</fix>
</trkpt>
<trkpt lat="33.8100053" lon="-118.3939026">
  <ele>-9.36</ele>
  <time>2026-09-01T01:18:32Z</time>
  <course>158.38</course>
  <speed>0.03</speed>
  <fix>3d</fix>
</trkpt>
<trkpt lat="33.8100035" lon="-118.3939174">
  <ele>-9.488</ele>
  <time>2026-09-01T01:18:32Z</time>
  <course>186.85</course>
  <speed>0.23769728648009425</speed>
  <fix>3d</fix>
</trkpt>
<trkpt lat="33.810006" lon="-118.3939046">
  <ele>-9.37</ele>
  <time>2026-09-01T01:18:32Z</time>
  <course>158.22</course>
  <speed>0.03</speed>
  <fix>3d</fix>
</trkpt>
<trkpt lat="33.8100035" lon="-118.3939174">
  <ele>-9.488</ele>
  <time>2026-09-01T01:18:32Z</time>
  <course>186.84</course>
  <speed>0.24698178070456936</speed>
  <fix>3d</fix>
</trkpt>
<trkpt lat="33.810006" lon="-118.3939046">
  <ele>-9.37</ele>
  <time>2026-09-01T01:18:32Z</time>
  <course>158.22</course>
  <speed>0.03</speed>
  <fix>3d</fix>
</trkpt>
<trkpt lat="33.8100035" lon="-118.3939174">
  <ele>-9.488</ele>
  <time>2026-09-01T01:18:32Z</time>
  <course>186.83</course>
  <speed>0.25079872407968906</speed>
  <fix>3d</fix>
</trkpt>
<trkpt lat="33.8100064" lon="-118.3939066">
  <ele>-9.38</ele>
  <time>2026-09-01T01:18:32Z</time>
  <course>158.03</course>
  <speed>0.03</speed>
  <fix>3d</fix>
</trkpt>
<trkpt lat="33.8100035" lon="-118.3939174">
  <ele>-9.488</ele>
  <time>2026-09-01T01:18:32Z</time>
  <course>186.83</course>
  <speed>0.25079872407968906</speed>
  <fix>3d</fix>
</trkpt>
<trkpt lat="33.8100064" lon="-118.3939066">
  <ele>-9.38</ele>
  <time>2026-09-01T01:18:32Z</time>
  <course>158.03</course>
  <speed>0.03</speed>
  <fix>3d</fix>
</trkpt>
<trkpt lat="33.8100035" lon="-118.3939174">
  <ele>-9.487</ele>
  <time>2026-09-01T01:18:32Z</time>
  <course>186.82</course>
  <speed>0.25079872407968906</speed>
  <fix>3d</fix>
</trkpt>
<trkpt lat="33.8100068" lon="-118.3939086">
  <ele>-9.39</ele>
  <time>2026-09-01T01:18:32Z</time>
  <course>157.87</course>
  <speed>0.03</speed>
  <fix>3d</fix>
</trkpt>
<trkpt lat="33.8100035" lon="-118.3939174">
  <ele>-9.487</ele>
  <time>2026-09-01T01:18:32Z</time>
  <course>186.81</course>
  <speed>0.25079872407968906</speed>
  <fix>3d</fix>
</trkpt>
<trkpt lat="33.8100068" lon="-118.3939086">
  <ele>-9.39</ele>
  <time>2026-09-01T01:18:32Z</time>
  <course>157.87</course>
  <speed>0.03</speed>
  <fix>3d</fix>
</trkpt>
<trkpt lat="33.8100035" lon="-118.3939174">
  <ele>-9.488</ele>
  <time>2026-09-01T01:18:32Z</time>
  <course>186.81</course>
  <speed>0.25079872407968906</speed>
  <fix>3d</fix>
</trkpt>
<trkpt lat="33.8100069" lon="-118.3939108">
  <ele>-9.4</ele>
  <time>2026-09-01T01:18:32Z</time>
  <course>157.75</course>
  <speed>0.03</speed>
  <fix>3d</fix>
</trkpt>
<trkpt lat="33.8100035" lon="-118.3939174">
  <ele>-9.487</ele>
  <time>2026-09-01T01:18:32Z</time>
  <course>186.8</course>
  <speed>0.25079872407968906</speed>
  <fix>3d</fix>
</trkpt>
<trkpt lat="33.8100069" lon="-118.3939108">
  <ele>-9.4</ele>
  <time>2026-09-01T01:18:32Z</time>
  <course>157.75</course>
  <speed>0.03</speed>
  <fix>3d</fix>
</trkpt>
<trkpt lat="33.8100035" lon="-118.3939174">
  <ele>-9.487</ele>
  <time>2026-09-01T01:18:32Z</time>
  <course>186.8</course>
  <speed>0.25079872407968906</speed>
  <fix>3d</fix>
</trkpt>
<trkpt lat="33.8100069" lon="-118.3939129">
  <ele>-9.42</ele>
  <time>2026-09-01T01:18:32Z</time>
  <course>157.65</course>
  <speed>0.03</speed>
  <fix>3d</fix>
</trkpt>
<trkpt lat="33.8100035" lon="-118.3939174">
  <ele>-9.488</ele>
  <time>2026-09-01T01:18:32Z</time>
  <course>186.79</course>
  <speed>0.25079872407968906</speed>
  <fix>3d</fix>
</trkpt>
<trkpt lat="33.8100069" lon="-118.3939129">
  <ele>-9.42</ele>
  <time>2026-09-01T01:18:32Z</time>
  <course>157.65</course>
  <speed>0.03</speed>
  <fix>3d</fix>
</trkpt>
<trkpt lat="33.8100035" lon="-118.3939174">
  <ele>-9.488</ele>
  <time>2026-09-01T01:18:32Z</time>
  <course>186.78</course>
  <speed>0.25079872407968906</speed>
  <fix>3d</fix>
</trkpt>
<trkpt lat="33.8100067" lon="-118.393915">
  <ele>-9.42</ele>
  <time>2026-09-01T01:18:32Z</time>
  <course>157.54</course>
  <speed>0.03</speed>
  <fix>3d</fix>
</trkpt>
<trkpt lat="33.8100035" lon="-118.3939174">
  <ele>-9.489</ele>
  <time>2026-09-01T01:18:32Z</time>
  <course>186.78</course>
  <speed>0.25079872407968906</speed>
  <fix>3d</fix>
</trkpt>
<trkpt lat="33.8100067" lon="-118.393915">
  <ele>-9.42</ele>
  <time>2026-09-01T01:18:32Z</time>
  <course>157.54</course>
  <speed>0.03</speed>
  <fix>3d</fix>
</trkpt>
<trkpt lat="33.8100035" lon="-118.3939174">
  <ele>-9.488</ele>
  <time>2026-09-01T01:18:32Z</time>
  <course>186.77</course>
  <speed>0.25079872407968906</speed>
  <fix>3d</fix>
</trkpt>
<trkpt lat="33.8100063" lon="-118.3939171">
  <ele>-9.43</ele>
  <time>2026-09-01T01:18:32Z</time>
  <course>157.41</course>
  <speed>0.03</speed>
  <fix>3d</fix>
</trkpt>
<trkpt lat="33.8100035" lon="-118.3939174">
  <ele>-9.487</ele>
  <time>2026-09-01T01:18:32Z</time>
  <course>186.77</course>
  <speed>0.25079872407968906</speed>
  <fix>3d</fix>
</trkpt>
<trkpt lat="33.8100063" lon="-118.3939171">
  <ele>-9.43</ele>
  <time>2026-09-01T01:18:32Z</time>
  <course>157.41</course>
  <speed>0.03</speed>
  <fix>3d</fix>
</trkpt>
<trkpt lat="33.8100035" lon="-118.3939174">
  <ele>-9.486</ele>
  <time>2026-09-01T01:18:32Z</time>
  <course>186.76</course>
  <speed>0.25079872407968906</speed>
  <fix>3d</fix>
</trkpt>
<trkpt lat="33.8100058" lon="-118.3939192">
  <ele>-9.44</ele>
  <time>2026-09-01T01:18:32Z</time>
  <course>157.28</course>
  <speed>0.03</speed>
  <fix>3d</fix>
</trkpt>
<trkpt lat="33.8100035" lon="-118.3939174">
  <ele>-9.485</ele>
  <time>2026-09-01T01:18:32Z</time>
  <course>186.76</course>
  <speed>0.25079872407968906</speed>
  <fix>3d</fix>
</trkpt>
<trkpt lat="33.8100058" lon="-118.3939192">
  <ele>-9.44</ele>
  <time>2026-09-01T01:18:32Z</time>
  <course>157.28</course>
  <speed>0.03</speed>
  <fix>3d</fix>
</trkpt>
<trkpt lat="33.8100035" lon="-118.3939174">
  <ele>-9.484</ele>
  <time>2026-09-01T01:18:32Z</time>
  <course>186.75</course>
  <speed>0.25079872407968906</speed>
  <fix>3d</fix>
</trkpt>
<trkpt lat="33.8100051" lon="-118.3939212">
  <ele>-9.45</ele>
  <time>2026-09-01T01:18:32Z</time>
  <course>157.2</course>
  <speed>0.02</speed>
  <fix>3d</fix>
</trkpt>
<trkpt lat="33.8100035" lon="-118.3939174">
  <ele>-9.483</ele>
  <time>2026-09-01T01:18:32Z</time>
  <course>186.75</course>
  <speed>0.25079872407968906</speed>
  <fix>3d</fix>
</trkpt>
<trkpt lat="33.8100051" lon="-118.3939212">
  <ele>-9.45</ele>
  <time>2026-09-01T01:18:32Z</time>
  <course>157.2</course>
  <speed>0.02</speed>
  <fix>3d</fix>
</trkpt>
<trkpt lat="33.8100035" lon="-118.3939174">
  <ele>-9.483</ele>
  <time>2026-09-01T01:18:32Z</time>
  <course>186.74</course>
  <speed>0.25079872407968906</speed>
  <fix>3d</fix>
</trkpt>
<trkpt lat="33.8100042" lon="-118.393923">
  <ele>-9.46</ele>
  <time>2026-09-01T01:18:32Z</time>
  <course>157.15</course>
  <speed>0.02</speed>
  <fix>3d</fix>
</trkpt>
<trkpt lat="33.8100035" lon="-118.3939174">
  <ele>-9.483</ele>
  <time>2026-09-01T01:18:32Z</time>
  <course>186.74</course>
  <speed>0.25079872407968906</speed>
  <fix>3d</fix>
</trkpt>
<trkpt lat="33.8100042" lon="-118.393923">
  <ele>-9.46</ele>
  <time>2026-09-01T01:18:32Z</time>
  <course>157.15</course>
  <speed>0.02</speed>
  <fix>3d</fix>
</trkpt>
<trkpt lat="33.8100035" lon="-118.3939174">
  <ele>-9.484</ele>
  <time>2026-09-01T01:18:32Z</time>
  <course>186.73</course>
  <speed>0.25079872407968906</speed>
  <fix>3d</fix>
</trkpt>
<trkpt lat="33.8100031" lon="-118.3939248">
  <ele>-9.48</ele>
  <time>2026-09-01T01:18:32Z</time>
  <course>157.13</course>
  <speed>0.02</speed>
  <fix>3d</fix>
</trkpt>
<trkpt lat="33.8100035" lon="-118.3939174">
  <ele>-9.485</ele>
  <time>2026-09-01T01:18:32Z</time>
  <course>186.73</course>
  <speed>0.25079872407968906</speed>
  <fix>3d</fix>
</trkpt>
<trkpt lat="33.8100031" lon="-118.3939248">
  <ele>-9.48</ele>
  <time>2026-09-01T01:18:32Z</time>
  <course>157.13</course>
  <speed>0.02</speed>
  <fix>3d</fix>
</trkpt>
<trkpt lat="33.8100035" lon="-118.3939174">
  <ele>-9.486</ele>
  <time>2026-09-01T01:18:32Z</time>
  <course>186.72</course>
  <speed>0.25079872407968906</speed>
  <fix>3d</fix>
</trkpt>
<trkpt lat="33.810002" lon="-118.3939265">
  <ele>-9.5</ele>
  <time>2026-09-01T01:18:32Z</time>
  <course>157.1</course>
  <speed>0.02</speed>
  <fix>3d</fix>
</trkpt>
<trkpt lat="33.8100035" lon="-118.3939174">
  <ele>-9.488</ele>
  <time>2026-09-01T01:18:32Z</time>
  <course>186.72</course>
  <speed>0.25079872407968906</speed>
  <fix>3d</fix>
</trkpt>
<trkpt lat="33.810002" lon="-118.3939265">
  <ele>-9.5</ele>
  <time>2026-09-01T01:18:32Z</time>
  <course>157.1</course>
  <speed>0.02</speed>
  <fix>3d</fix>
</trkpt>
<trkpt lat="33.8100035" lon="-118.3939174">
  <ele>-9.488</ele>
  <time>2026-09-01T01:18:32Z</time>
  <course>186.71</course>
  <speed>0.25079872407968906</speed>
  <fix>3d</fix>
</trkpt>
<trkpt lat="33.8100006" lon="-118.393928">
  <ele>-9.51</ele>
  <time>2026-09-01T01:18:32Z</time>
  <course>157.0</course>
  <speed>0.02</speed>
  <fix>3d</fix>
</trkpt>
<trkpt lat="33.8100035" lon="-118.3939174">
  <ele>-9.488</ele>
  <time>2026-09-01T01:18:32Z</time>
  <course>186.71</course>
  <speed>0.25079872407968906</speed>
  <fix>3d</fix>
</trkpt>
<trkpt lat="33.8100006" lon="-118.393928">
  <ele>-9.51</ele>
  <time>2026-09-01T01:18:32Z</time>
  <course>157.0</course>
  <speed>0.02</speed>
  <fix>3d</fix>
</trkpt>
<trkpt lat="33.8100035" lon="-118.3939174">
  <ele>-9.488</ele>
  <time>2026-09-01T01:18:32Z</time>
  <course>186.7</course>
  <speed>0.25079872407968906</speed>
  <fix>3d</fix>
</trkpt>
<trkpt lat="33.8099992" lon="-118.3939294">
  <ele>-9.52</ele>
  <time>2026-09-01T01:18:32Z</time>
  <course>156.89</course>
  <speed>0.02</speed>
  <fix>3d</fix>
</trkpt>
<trkpt lat="33.8100035" lon="-118.3939174">
  <ele>-9.488</ele>
  <time>2026-09-01T01:18:32Z</time>
  <course>186.7</course>
  <speed>0.25079872407968906</speed>
  <fix>3d</fix>
</trkpt>
<trkpt lat="33.8099992" lon="-118.3939294">
  <ele>-9.52</ele>
  <time>2026-09-01T01:18:32Z</time>
  <course>156.89</course>
  <speed>0.02</speed>
  <fix>3d</fix>
</trkpt>
<trkpt lat="33.8100035" lon="-118.3939174">
  <ele>-9.488</ele>
  <time>2026-09-01T01:18:32Z</time>
  <course>186.69</course>
  <speed>0.24166091947189144</speed>
  <fix>3d</fix>
</trkpt>
<trkpt lat="33.8099977" lon="-118.3939305">
  <ele>-9.54</ele>
  <time>2026-09-01T01:18:32Z</time>
  <course>156.85</course>
  <speed>0.02</speed>
  <fix>3d</fix>
</trkpt>
<trkpt lat="33.8100035" lon="-118.3939174">
  <ele>-9.487</ele>
  <time>2026-09-01T01:18:32Z</time>
  <course>186.69</course>
  <speed>0.24166091947189144</speed>
  <fix>3d</fix>
</trkpt>
<trkpt lat="33.8099977" lon="-118.3939305">
  <ele>-9.54</ele>
  <time>2026-09-01T01:18:32Z</time>
  <course>156.85</course>
  <speed>0.02</speed>
  <fix>3d</fix>
</trkpt>
<trkpt lat="33.8100035" lon="-118.3939174">
  <ele>-9.486</ele>
  <time>2026-09-01T01:18:32Z</time>
  <course>186.69</course>
  <speed>0.24166091947189144</speed>
  <fix>3d</fix>
</trkpt>
<trkpt lat="33.809996" lon="-118.3939315">
  <ele>-9.55</ele>
  <time>2026-09-01T01:18:32Z</time>
  <course>156.84</course>
  <speed>0.02</speed>
  <fix>3d</fix>
</trkpt>
<trkpt lat="33.8100035" lon="-118.3939174">
  <ele>-9.486</ele>
  <time>2026-09-01T01:18:32Z</time>
  <course>186.68</course>
  <speed>0.24166091947189144</speed>
  <fix>3d</fix>
</trkpt>
<trkpt lat="33.809996" lon="-118.3939315">
  <ele>-9.55</ele>
  <time>2026-09-01T01:18:32Z</time>
  <course>156.84</course>
  <speed>0.02</speed>
  <fix>3d</fix>
</trkpt>
<trkpt lat="33.8100035" lon="-118.3939174">
  <ele>-9.486</ele>
  <time>2026-09-01T01:18:32Z</time>
  <course>186.68</course>
  <speed>0.24166091947189144</speed>
  <fix>3d</fix>
</trkpt>
<trkpt lat="33.8099943" lon="-118.3939323">
  <ele>-9.56</ele>
  <time>2026-09-01T01:18:32Z</time>
  <course>156.78</course>
  <speed>0.02</speed>
  <fix>3d</fix>
</trkpt>
<trkpt lat="33.8100035" lon="-118.3939174">
  <ele>-9.486</ele>
  <time>2026-09-01T01:18:32Z</time>
  <course>186.67</course>
  <speed>0.24166091947189144</speed>
  <fix>3d</fix>
</trkpt>
<trkpt lat="33.8099943" lon="-118.3939323">
  <ele>-9.56</ele>
  <time>2026-09-01T01:18:32Z</time>
  <course>156.78</course>
  <speed>0.02</speed>
  <fix>3d</fix>
</trkpt>
<trkpt lat="33.8100035" lon="-118.3939174">
  <ele>-9.486</ele>
  <time>2026-09-01T01:18:32Z</time>
  <course>186.67</course>
  <speed>0.24166091947189144</speed>
  <fix>3d</fix>
</trkpt>
<trkpt lat="33.8099926" lon="-118.3939329">
  <ele>-9.58</ele>
  <time>2026-09-01T01:18:32Z</time>
  <course>156.7</course>
  <speed>0.02</speed>
  <fix>3d</fix>
</trkpt>
<trkpt lat="33.8100035" lon="-118.3939174">
  <ele>-9.488</ele>
  <time>2026-09-01T01:18:32Z</time>
  <course>186.66</course>
  <speed>0.23769728648009425</speed>
  <fix>3d</fix>
</trkpt>
<trkpt lat="33.8099926" lon="-118.3939329">
  <ele>-9.58</ele>
  <time>2026-09-01T01:18:32Z</time>
  <course>156.7</course>
  <speed>0.02</speed>
  <fix>3d</fix>
</trkpt>
<trkpt lat="33.8100035" lon="-118.3939174">
  <ele>-9.489</ele>
  <time>2026-09-01T01:18:32Z</time>
  <course>187.0</course>
  <speed>0.6008327554319921</speed>
  <fix>3d</fix>
</trkpt>
<trkpt lat="33.8099908" lon="-118.3939333">
  <ele>-9.59</ele>
  <time>2026-09-01T01:18:32Z</time>
  <course>156.65</course>
  <speed>0.02</speed>
  <fix>3d</fix>
</trkpt>
<trkpt lat="33.8100035" lon="-118.3939174">
  <ele>-9.49</ele>
  <time>2026-09-01T01:18:32Z</time>
  <course>187.42</course>
  <speed>1.339589489358587</speed>
  <fix>3d</fix>
</trkpt>
<trkpt lat="33.8099908" lon="-118.3939333">
  <ele>-9.59</ele>
  <time>2026-09-01T01:18:32Z</time>
  <course>156.65</course>
  <speed>0.02</speed>
  <fix>3d</fix>
</trkpt>
<trkpt lat="33.8100035" lon="-118.3939174">
  <ele>-9.49</ele>
  <time>2026-09-01T01:18:32Z</time>
  <course>187.6</course>
  <speed>1.5316984037335808</speed>
  <fix>3d</fix>
</trkpt>
<trkpt lat="33.809988" lon="-118.3939336">
  <ele>-9.6</ele>
  <time>2026-09-01T01:18:32Z</time>
  <course>185.91</course>
  <speed>0.84</speed>
  <fix>3d</fix>
</trkpt>
<trkpt lat="33.8100035" lon="-118.3939174">
  <ele>-9.489</ele>
  <time>2026-09-01T01:18:32Z</time>
  <course>187.69</course>
  <speed>1.570891466651977</speed>
  <fix>3d</fix>
</trkpt>
<trkpt lat="33.809988" lon="-118.3939336">
  <ele>-9.6</ele>
  <time>2026-09-01T01:18:32Z</time>
  <course>185.91</course>
  <speed>0.84</speed>
  <fix>3d</fix>
</trkpt>
<trkpt lat="33.8100035" lon="-118.3939174">
  <ele>-9.489</ele>
  <time>2026-09-01T01:18:32Z</time>
  <course>187.73</course>
  <speed>1.5806960492137634</speed>
  <fix>3d</fix>
</trkpt>
<trkpt lat="33.8099837" lon="-118.3939338">
  <ele>-9.62</ele>
  <time>2026-09-01T01:18:32Z</time>
  <course>186.37</course>
  <speed>1.73</speed>
  <fix>3d</fix>
</trkpt>
<trkpt lat="33.8100035" lon="-118.3939174">
  <ele>-9.49</ele>
  <time>2026-09-01T01:18:32Z</time>
  <course>187.74</course>
  <speed>1.5806960492137634</speed>
  <fix>3d</fix>
</trkpt>
<trkpt lat="33.8099837" lon="-118.3939338">
  <ele>-9.62</ele>
  <time>2026-09-01T01:18:32Z</time>
  <course>186.37</course>
  <speed>1.73</speed>
  <fix>3d</fix>
</trkpt>
<trkpt lat="33.8100035" lon="-118.3939174">
  <ele>-9.492</ele>
  <time>2026-09-01T01:18:32Z</time>
  <course>187.74</course>
  <speed>1.5806960492137634</speed>
  <fix>3d</fix>
</trkpt>
<trkpt lat="33.8099788" lon="-118.393934">
  <ele>-9.63</ele>
  <time>2026-09-01T01:18:32Z</time>
  <course>186.44</course>
  <speed>1.8</speed>
  <fix>3d</fix>
</trkpt>
<trkpt lat="33.8100035" lon="-118.3939174">
  <ele>-9.494</ele>
  <time>2026-09-01T01:18:32Z</time>
  <course>187.74</course>
  <speed>1.5806960492137634</speed>
  <fix>3d</fix>
</trkpt>
<trkpt lat="33.8099788" lon="-118.393934">
  <ele>-9.63</ele>
  <time>2026-09-01T01:18:32Z</time>
  <course>186.44</course>
  <speed>1.8</speed>
  <fix>3d</fix>
</trkpt>
<trkpt lat="33.8100035" lon="-118.3939174">
  <ele>-9.495</ele>
  <time>2026-09-01T01:18:32Z</time>
  <course>187.74</course>
  <speed>1.5806960492137634</speed>
  <fix>3d</fix>
</trkpt>
<trkpt lat="33.8099738" lon="-118.393934">
  <ele>-9.64</ele>
  <time>2026-09-01T01:18:32Z</time>
  <course>186.48</course>
  <speed>1.8</speed>
  <fix>3d</fix>
</trkpt>
<trkpt lat="33.8100035" lon="-118.3939174">
  <ele>-9.496</ele>
  <time>2026-09-01T01:18:32Z</time>
  <course>187.73</course>
  <speed>1.5806960492137634</speed>
  <fix>3d</fix>
</trkpt>
<trkpt lat="33.8099738" lon="-118.393934">
  <ele>-9.64</ele>
  <time>2026-09-01T01:18:32Z</time>
  <course>186.48</course>
  <speed>1.8</speed>
  <fix>3d</fix>
</trkpt>
<trkpt lat="33.8100035" lon="-118.3939174">
  <ele>-9.495</ele>
  <time>2026-09-01T01:18:32Z</time>
  <course>187.72</course>
  <speed>1.570891466651977</speed>
  <fix>3d</fix>
</trkpt>
<trkpt lat="33.8099688" lon="-118.3939338">
  <ele>-9.66</ele>
  <time>2026-09-01T01:18:32Z</time>
  <course>186.51</course>
  <speed>1.8</speed>
  <fix>3d</fix>
</trkpt>
<trkpt lat="33.8100035" lon="-118.3939174">
  <ele>-9.493</ele>
  <time>2026-09-01T01:18:32Z</time>
  <course>187.72</course>
  <speed>1.5610893632332519</speed>
  <fix>3d</fix>
</trkpt>
<trkpt lat="33.8099688" lon="-118.3939338">
  <ele>-9.66</ele>
  <time>2026-09-01T01:18:32Z</time>
  <course>186.51</course>
  <speed>1.8</speed>
  <fix>3d</fix>
</trkpt>
<trkpt lat="33.8100035" lon="-118.3939174">
  <ele>-9.491</ele>
  <time>2026-09-01T01:18:32Z</time>
  <course>187.72</course>
  <speed>1.549322432549145</speed>
  <fix>3d</fix>
</trkpt>
<trkpt lat="33.8099639" lon="-118.3939333">
  <ele>-9.66</ele>
  <time>2026-09-01T01:18:32Z</time>
  <course>186.54</course>
  <speed>1.8</speed>
  <fix>3d</fix>
</trkpt>
<trkpt lat="33.8100035" lon="-118.3939174">
  <ele>-9.489</ele>
  <time>2026-09-01T01:18:32Z</time>
  <course>187.71</course>
  <speed>1.5395129099815954</speed>
  <fix>3d</fix>
</trkpt>
<trkpt lat="33.8099639" lon="-118.3939333">
  <ele>-9.66</ele>
  <time>2026-09-01T01:18:32Z</time>
  <course>186.54</course>
  <speed>1.8</speed>
  <fix>3d</fix>
</trkpt>
<trkpt lat="33.8100035" lon="-118.3939174">
  <ele>-9.488</ele>
  <time>2026-09-01T01:18:32Z</time>
  <course>187.7</course>
  <speed>1.5297058540778354</speed>
  <fix>3d</fix>
</trkpt>
<trkpt lat="33.8099592" lon="-118.3939327">
  <ele>-9.67</ele>
  <time>2026-09-01T01:18:32Z</time>
  <course>186.56</course>
  <speed>1.8</speed>
  <fix>3d</fix>
</trkpt>
<trkpt lat="33.8100035" lon="-118.3939174">
  <ele>-9.488</ele>
  <time>2026-09-01T01:18:32Z</time>
  <course>187.71</course>
  <speed>1.5100993344810134</speed>
  <fix>3d</fix>
</trkpt>
<trkpt lat="33.8099592" lon="-118.3939327">
  <ele>-9.67</ele>
  <time>2026-09-01T01:18:32Z</time>
  <course>186.56</course>
  <speed>1.8</speed>
  <fix>3d</fix>
</trkpt>
<trkpt lat="33.8100035" lon="-118.3939174">
  <ele>-9.488</ele>
  <time>2026-09-01T01:18:32Z</time>
  <course>187.7</course>
  <speed>1.5002999700059985</speed>
  <fix>3d</fix>
</trkpt>
<trkpt lat="33.8099545" lon="-118.3939319">
  <ele>-9.68</ele>
  <time>2026-09-01T01:18:32Z</time>
  <course>186.59</course>
  <speed>1.8</speed>
  <fix>3d</fix>
</trkpt>
<trkpt lat="33.8100035" lon="-118.3939174">
  <ele>-9.488</ele>
  <time>2026-09-01T01:18:32Z</time>
  <course>187.7</course>
  <speed>1.4787156589419075</speed>
  <fix>3d</fix>
</trkpt>
<trkpt lat="33.8099545" lon="-118.3939319">
  <ele>-9.68</ele>
  <time>2026-09-01T01:18:32Z</time>
  <course>186.59</course>
  <speed>1.8</speed>
  <fix>3d</fix>
</trkpt>
<trkpt lat="33.8100035" lon="-118.3939174">
  <ele>-9.489</ele>
  <time>2026-09-01T01:18:32Z</time>
  <course>187.69</course>
  <speed>1.468911161370898</speed>
  <fix>3d</fix>
</trkpt>
<trkpt lat="33.8099499" lon="-118.3939309">
  <ele>-9.69</ele>
  <time>2026-09-01T01:18:32Z</time>
  <course>186.62</course>
  <speed>1.8</speed>
  <fix>3d</fix>
</trkpt>
<trkpt lat="33.8100035" lon="-118.3939174">
  <ele>-9.491</ele>
  <time>2026-09-01T01:18:32Z</time>
  <course>187.69</course>
  <speed>1.449310180741169</speed>
  <fix>3d</fix>
</trkpt>
<trkpt lat="33.8099499" lon="-118.3939309">
  <ele>-9.69</ele>
  <time>2026-09-01T01:18:32Z</time>
  <course>186.62</course>
  <speed>1.8</speed>
  <fix>3d</fix>
</trkpt>
<trkpt lat="33.8100035" lon="-118.3939174">
  <ele>-9.492</ele>
  <time>2026-09-01T01:18:32Z</time>
  <course>187.69</course>
  <speed>1.4297202523570827</speed>
  <fix>3d</fix>
</trkpt>
<trkpt lat="33.8099454" lon="-118.3939298">
  <ele>-9.7</ele>
  <time>2026-09-01T01:18:32Z</time>
  <course>186.64</course>
  <speed>1.8</speed>
  <fix>3d</fix>
</trkpt>
<trkpt lat="33.8100035" lon="-118.3939174">
  <ele>-9.493</ele>
  <time>2026-09-01T01:18:32Z</time>
  <course>187.69</course>
  <speed>1.4179210133149167</speed>
  <fix>3d</fix>
</trkpt>
<trkpt lat="33.8099454" lon="-118.3939298">
  <ele>-9.7</ele>
  <time>2026-09-01T01:18:32Z</time>
  <course>186.64</course>
  <speed>1.8</speed>
  <fix>3d</fix>
</trkpt>
<trkpt lat="33.8100035" lon="-118.3939174">
  <ele>-9.493</ele>
  <time>2026-09-01T01:18:32Z</time>
  <course>187.68</course>
  <speed>1.3983204210766573</speed>
  <fix>3d</fix>
</trkpt>
<trkpt lat="33.8099411" lon="-118.3939286">
  <ele>-9.72</ele>
  <time>2026-09-01T01:18:32Z</time>
  <course>186.66</course>
  <speed>1.8</speed>
  <fix>3d</fix>
</trkpt>
<trkpt lat="33.8100035" lon="-118.3939174">
  <ele>-9.491</ele>
  <time>2026-09-01T01:18:33Z</time>
  <course>187.67</course>
  <speed>1.3689411966918081</speed>
  <fix>3d</fix>
</trkpt>
<trkpt lat="33.8099411" lon="-118.3939286">
  <ele>-9.72</ele>
  <time>2026-09-01T01:18:33Z</time>
  <course>186.66</course>
  <speed>1.8</speed>
  <fix>3d</fix>
</trkpt>
<trkpt lat="33.8100035" lon="-118.3939174">
  <ele>-9.49</ele>
  <time>2026-09-01T01:18:33Z</time>
  <course>187.67</course>
  <speed>1.3473306943731373</speed>
  <fix>3d</fix>
</trkpt>
<trkpt lat="33.809937" lon="-118.3939272">
  <ele>-9.73</ele>
  <time>2026-09-01T01:18:33Z</time>
  <course>186.68</course>
  <speed>1.8</speed>
  <fix>3d</fix>
</trkpt>
<trkpt lat="33.8100035" lon="-118.3939174">
  <ele>-9.489</ele>
  <time>2026-09-01T01:18:33Z</time>
  <course>187.67</course>
  <speed>1.327742444904131</speed>
  <fix>3d</fix>
</trkpt>
<trkpt lat="33.809937" lon="-118.3939272">
  <ele>-9.73</ele>
  <time>2026-09-01T01:18:33Z</time>
  <course>186.68</course>
  <speed>1.8</speed>
  <fix>3d</fix>
</trkpt>
<trkpt lat="33.8100035" lon="-118.3939174">
  <ele>-9.488</ele>
  <time>2026-09-01T01:18:33Z</time>
  <course>187.67</course>
  <speed>1.308166656049603</speed>
  <fix>3d</fix>
</trkpt>
<trkpt lat="33.809933" lon="-118.3939257">
  <ele>-9.74</ele>
  <time>2026-09-01T01:18:33Z</time>
  <course>186.7</course>
  <speed>1.8</speed>
  <fix>3d</fix>
</trkpt>
<trkpt lat="33.8100035" lon="-118.3939174">
  <ele>-9.488</ele>
  <time>2026-09-01T01:18:33Z</time>
  <course>187.67</course>
  <speed>1.2767536959022285</speed>
  <fix>3d</fix>
</trkpt>
<trkpt lat="33.809933" lon="-118.3939257">
  <ele>-9.74</ele>
  <time>2026-09-01T01:18:33Z</time>
  <course>186.7</course>
  <speed>1.8</speed>
  <fix>3d</fix>
</trkpt>
<trkpt lat="33.8100035" lon="-118.3939174">
  <ele>-9.486</ele>
  <time>2026-09-01T01:18:33Z</time>
  <course>187.66</course>
  <speed>1.257179382586272</speed>
  <fix>3d</fix>
</trkpt>
<trkpt lat="33.8099291" lon="-118.3939242">
  <ele>-9.75</ele>
  <time>2026-09-01T01:18:33Z</time>
  <course>186.71</course>
  <speed>1.8</speed>
  <fix>3d</fix>
</trkpt>
<trkpt lat="33.8100035" lon="-118.3939174">
  <ele>-9.486</ele>
  <time>2026-09-01T01:18:33Z</time>
  <course>187.66</course>
  <speed>1.2278436382536662</speed>
  <fix>3d</fix>
</trkpt>
<trkpt lat="33.8099291" lon="-118.3939242">
  <ele>-9.75</ele>
  <time>2026-09-01T01:18:33Z</time>
  <course>186.71</course>
  <speed>1.8</speed>
  <fix>3d</fix>
</trkpt>
<trkpt lat="33.8100035" lon="-118.3939174">
  <ele>-9.486</ele>
  <time>2026-09-01T01:18:33Z</time>
  <course>187.66</course>
  <speed>1.2061923561356207</speed>
  <fix>3d</fix>
</trkpt>
<trkpt lat="33.8099254" lon="-118.3939225">
  <ele>-9.75</ele>
  <time>2026-09-01T01:18:33Z</time>
  <course>186.73</course>
  <speed>1.8</speed>
  <fix>3d</fix>
</trkpt>
<trkpt lat="33.8100035" lon="-118.3939174">
  <ele>-9.486</ele>
  <time>2026-09-01T01:18:33Z</time>
  <course>187.66</course>
  <speed>1.176860229593982</speed>
  <fix>3d</fix>
</trkpt>
<trkpt lat="33.8099254" lon="-118.3939225">
  <ele>-9.75</ele>
  <time>2026-09-01T01:18:33Z</time>
  <course>186.73</course>
  <speed>1.8</speed>
  <fix>3d</fix>
</trkpt>
<trkpt lat="33.8100035" lon="-118.3939174">
  <ele>-9.487</ele>
  <time>2026-09-01T01:18:33Z</time>
  <course>187.65</course>
  <speed>1.1573245007343447</speed>
  <fix>3d</fix>
</trkpt>
<trkpt lat="33.8099219" lon="-118.3939209">
  <ele>-9.77</ele>
  <time>2026-09-01T01:18:33Z</time>
  <course>186.75</course>
  <speed>1.8</speed>
  <fix>3d</fix>
</trkpt>
<trkpt lat="33.8100035" lon="-118.3939174">
  <ele>-9.488</ele>
  <time>2026-09-01T01:18:33Z</time>
  <course>187.65</course>
  <speed>1.1258774356030055</speed>
  <fix>3d</fix>
</trkpt>
<trkpt lat="33.8099219" lon="-118.3939209">
  <ele>-9.77</ele>
  <time>2026-09-01T01:18:33Z</time>
  <course>186.75</course>
  <speed>1.8</speed>
  <fix>3d</fix>
</trkpt>
<trkpt lat="33.8100035" lon="-118.3939174">
  <ele>-9.489</ele>
  <time>2026-09-01T01:18:33Z</time>
  <course>187.64</course>
  <speed>1.0965856099730653</speed>
  <fix>3d</fix>
</trkpt>
<trkpt lat="33.8099185" lon="-118.3939191">
  <ele>-9.79</ele>
  <time>2026-09-01T01:18:33Z</time>
  <course>186.76</course>
  <speed>1.8</speed>
  <fix>3d</fix>
</trkpt>
<trkpt lat="33.8100035" lon="-118.3939174">
  <ele>-9.49</ele>
  <time>2026-09-01T01:18:33Z</time>
  <course>187.64</course>
  <speed>1.0748953437428224</speed>
  <fix>3d</fix>
</trkpt>
<trkpt lat="33.8099185" lon="-118.3939191">
  <ele>-9.79</ele>
  <time>2026-09-01T01:18:33Z</time>
  <course>186.76</course>
  <speed>1.8</speed>
  <fix>3d</fix>
</trkpt>
<trkpt lat="33.8100035" lon="-118.3939174">
  <ele>-9.49</ele>
  <time>2026-09-01T01:18:33Z</time>
  <course>187.64</course>
  <speed>1.045609869884557</speed>
  <fix>3d</fix>
</trkpt>
<trkpt lat="33.8099154" lon="-118.3939174">
  <ele>-9.8</ele>
  <time>2026-09-01T01:18:33Z</time>
  <course>186.77</course>
  <speed>1.8</speed>
  <fix>3d</fix>
</trkpt>
<trkpt lat="33.8100035" lon="-118.3939174">
  <ele>-9.49</ele>
  <time>2026-09-01T01:18:33Z</time>
  <course>187.64</course>
  <speed>1.016366075781753</speed>
  <fix>3d</fix>
</trkpt>
<trkpt lat="33.8099154" lon="-118.3939174">
  <ele>-9.8</ele>
  <time>2026-09-01T01:18:33Z</time>
  <course>186.77</course>
  <speed>1.8</speed>
  <fix>3d</fix>
</trkpt>
<trkpt lat="33.8100035" lon="-118.3939174">
  <ele>-9.491</ele>
  <time>2026-09-01T01:18:33Z</time>
  <course>187.64</course>
  <speed>0.9848857801796105</speed>
  <fix>3d</fix>
</trkpt>
<trkpt lat="33.8099124" lon="-118.3939158">
  <ele>-9.81</ele>
  <time>2026-09-01T01:18:33Z</time>
  <course>186.79</course>
  <speed>1.8</speed>
  <fix>3d</fix>
</trkpt>
<trkpt lat="33.8100035" lon="-118.3939174">
  <ele>-9.492</ele>
  <time>2026-09-01T01:18:33Z</time>
  <course>187.63</course>
  <speed>0.9556673061269805</speed>
  <fix>3d</fix>
</trkpt>
<trkpt lat="33.8099124" lon="-118.3939158">
  <ele>-9.81</ele>
  <time>2026-09-01T01:18:33Z</time>
  <course>186.79</course>
  <speed>1.8</speed>
  <fix>3d</fix>
</trkpt>
<trkpt lat="33.8100035" lon="-118.3939174">
  <ele>-9.494</ele>
  <time>2026-09-01T01:18:33Z</time>
  <course>187.63</course>
  <speed>0.9362157870918435</speed>
  <fix>3d</fix>
</trkpt>
<trkpt lat="33.8099096" lon="-118.3939141">
  <ele>-9.82</ele>
  <time>2026-09-01T01:18:33Z</time>
  <course>186.8</course>
  <speed>1.8</speed>
  <fix>3d</fix>
</trkpt>
<trkpt lat="33.8100035" lon="-118.3939174">
  <ele>-9.494</ele>
  <time>2026-09-01T01:18:33Z</time>
  <course>187.63</course>
  <speed>0.9047098982546836</speed>
  <fix>3d</fix>
</trkpt>
<trkpt lat="33.8099096" lon="-118.3939141">
  <ele>-9.82</ele>
  <time>2026-09-01T01:18:33Z</time>
  <course>186.8</course>
  <speed>1.8</speed>
  <fix>3d</fix>
</trkpt>
<trkpt lat="33.8100035" lon="-118.3939174">
  <ele>-9.493</ele>
  <time>2026-09-01T01:18:33Z</time>
  <course>187.63</course>
  <speed>0.8755569655939013</speed>
  <fix>3d</fix>
</trkpt>
<trkpt lat="33.809907" lon="-118.3939126">
  <ele>-9.82</ele>
  <time>2026-09-01T01:18:33Z</time>
  <course>186.81</course>
  <speed>1.8</speed>
  <fix>3d</fix>
</trkpt>
<trkpt lat="33.8100035" lon="-118.3939174">
  <ele>-9.492</ele>
  <time>2026-09-01T01:18:33Z</time>
  <course>187.62</course>
  <speed>0.8440379138403676</speed>
  <fix>3d</fix>
</trkpt>
<trkpt lat="33.809907" lon="-118.3939126">
  <ele>-9.82</ele>
  <time>2026-09-01T01:18:33Z</time>
  <course>186.81</course>
  <speed>1.8</speed>
  <fix>3d</fix>
</trkpt>
<trkpt lat="33.8100035" lon="-118.3939174">
  <ele>-9.489</ele>
  <time>2026-09-01T01:18:33Z</time>
  <course>187.62</course>
  <speed>0.8149233092751734</speed>
  <fix>3d</fix>
</trkpt>
<trkpt lat="33.8099046" lon="-118.3939111">
  <ele>-9.83</ele>
  <time>2026-09-01T01:18:33Z</time>
  <course>186.82</course>
  <speed>1.8</speed>
  <fix>3d</fix>
</trkpt>
<trkpt lat="33.8100035" lon="-118.3939174">
  <ele>-9.486</ele>
  <time>2026-09-01T01:18:33Z</time>
  <course>187.62</course>
  <speed>0.7955501241279521</speed>
  <fix>3d</fix>
</trkpt>
<trkpt lat="33.8099046" lon="-118.3939111">
  <ele>-9.83</ele>
  <time>2026-09-01T01:18:33Z</time>
  <course>186.82</course>
  <speed>1.8</speed>
  <fix>3d</fix>
</trkpt>
<trkpt lat="33.8100035" lon="-118.3939174">
  <ele>-9.483</ele>
  <time>2026-09-01T01:18:33Z</time>
  <course>187.61</course>
  <speed>0.7640026177965623</speed>
  <fix>3d</fix>
</trkpt>
<trkpt lat="33.8099022" lon="-118.3939097">
  <ele>-9.84</ele>
  <time>2026-09-01T01:18:33Z</time>
  <course>186.83</course>
  <speed>1.8</speed>
  <fix>3d</fix>
</trkpt>
<trkpt lat="33.8100035" lon="-118.3939174">
  <ele>-9.48</ele>
  <time>2026-09-01T01:18:33Z</time>
  <course>187.61</course>
  <speed>0.7253275122315437</speed>
  <fix>3d</fix>
</trkpt>
<trkpt lat="33.8099022" lon="-118.3939097">
  <ele>-9.84</ele>
  <time>2026-09-01T01:18:33Z</time>
  <course>186.83</course>
  <speed>1.8</speed>
  <fix>3d</fix>
</trkpt>
<trkpt lat="33.8100035" lon="-118.3939174">
  <ele>-9.479</ele>
  <time>2026-09-01T01:18:33Z</time>
  <course>187.61</course>
  <speed>0.6937578828380979</speed>
  <fix>3d</fix>
</trkpt>
<trkpt lat="33.8099001" lon="-118.3939084">
  <ele>-9.85</ele>
  <time>2026-09-01T01:18:33Z</time>
  <course>186.84</course>
  <speed>1.8</speed>
  <fix>3d</fix>
</trkpt>
<trkpt lat="33.8100035" lon="-118.3939174">
  <ele>-9.479</ele>
  <time>2026-09-01T01:18:33Z</time>
  <course>187.61</course>
  <speed>0.6744627491566899</speed>
  <fix>3d</fix>
</trkpt>
<trkpt lat="33.8099001" lon="-118.3939084">
  <ele>-9.85</ele>
  <time>2026-09-01T01:18:33Z</time>
  <course>186.84</course>
  <speed>1.8</speed>
  <fix>3d</fix>
</trkpt>
<trkpt lat="33.8100035" lon="-118.3939174">
  <ele>-9.48</ele>
  <time>2026-09-01T01:18:33Z</time>
  <course>187.6</course>
  <speed>0.6552098900352467</speed>
  <fix>3d</fix>
</trkpt>
<trkpt lat="33.8098981" lon="-118.3939073">
  <ele>-9.86</ele>
  <time>2026-09-01T01:18:33Z</time>
  <course>186.85</course>
  <speed>1.8</speed>
  <fix>3d</fix>
</trkpt>
<trkpt lat="33.8100035" lon="-118.3939174">
  <ele>-9.481</ele>
  <time>2026-09-01T01:18:33Z</time>
  <course>187.6</course>
  <speed>0.6236184731067546</speed>
  <fix>3d</fix>
</trkpt>
<trkpt lat="33.8098981" lon="-118.3939073">
  <ele>-9.86</ele>
  <time>2026-09-01T01:18:33Z</time>
  <course>186.85</course>
  <speed>1.8</speed>
  <fix>3d</fix>
</trkpt>
<trkpt lat="33.8100035" lon="-118.3939174">
  <ele>-9.484</ele>
  <time>2026-09-01T01:18:33Z</time>
  <course>187.6</course>
  <speed>0.5948108943185221</speed>
  <fix>3d</fix>
</trkpt>
<trkpt lat="33.8098963" lon="-118.3939063">
  <ele>-9.88</ele>
  <time>2026-09-01T01:18:33Z</time>
  <course>186.85</course>
  <speed>1.8</speed>
  <fix>3d</fix>
</trkpt>
<trkpt lat="33.8100035" lon="-118.3939174">
  <ele>-9.486</ele>
  <time>2026-09-01T01:18:33Z</time>
  <course>187.6</course>
  <speed>0.5661271941887265</speed>
  <fix>3d</fix>
</trkpt>
<trkpt lat="33.8098963" lon="-118.3939063">
  <ele>-9.88</ele>
  <time>2026-09-01T01:18:33Z</time>
  <course>186.85</course>
  <speed>1.8</speed>
  <fix>3d</fix>
</trkpt>
<trkpt lat="33.8100035" lon="-118.3939174">
  <ele>-9.489</ele>
  <time>2026-09-01T01:18:33Z</time>
  <course>187.59</course>
  <speed>0.5345091205957107</speed>
  <fix>3d</fix>
</trkpt>
<trkpt lat="33.8098945" lon="-118.3939055">
  <ele>-9.89</ele>
  <time>2026-09-01T01:18:33Z</time>
  <course>186.86</course>
  <speed>1.8</speed>
  <fix>3d</fix>
</trkpt>
<trkpt lat="33.8100039" lon="-118.3939172">
  <ele>-9.491</ele>
  <time>2026-09-01T01:18:33Z</time>
  <course>187.59</course>
  <speed>0.3313608305156178</speed>
  <fix>3d</fix>
</trkpt>
<trkpt lat="33.8098945" lon="-118.3939055">
  <ele>-9.89</ele>
  <time>2026-09-01T01:18:33Z</time>
  <course>186.86</course>
  <speed>1.8</speed>
  <fix>3d</fix>
</trkpt>
<trkpt lat="33.8100042" lon="-118.3939171">
  <ele>-9.493</ele>
  <time>2026-09-01T01:18:33Z</time>
  <course>187.58</course>
  <speed>0.0412310562561766</speed>
  <fix>3d</fix>
</trkpt>
<trkpt lat="33.8098929" lon="-118.3939049">
  <ele>-9.91</ele>
  <time>2026-09-01T01:18:33Z</time>
  <course>187.1</course>
  <speed>1.68</speed>
  <fix>3d</fix>
</trkpt>
<trkpt lat="33.8100037" lon="-118.3939172">
  <ele>-9.494</ele>
  <time>2026-09-01T01:18:33Z</time>
  <course>187.73</course>
  <speed>0.07615773105863909</speed>
  <fix>3d</fix>
</trkpt>
<trkpt lat="33.8098929" lon="-118.3939049">
  <ele>-9.91</ele>
  <time>2026-09-01T01:18:33Z</time>
  <course>187.1</course>
  <speed>1.68</speed>
  <fix>3d</fix>
</trkpt>
<trkpt lat="33.8100029" lon="-118.3939173">
  <ele>-9.494</ele>
  <time>2026-09-01T01:18:33Z</time>
  <course>187.93</course>
  <speed>0.1772004514666935</speed>
  <fix>3d</fix>
</trkpt>
<trkpt lat="33.809892" lon="-118.3939044">
  <ele>-9.93</ele>
  <time>2026-09-01T01:18:33Z</time>
  <course>188.04</course>
  <speed>1.19</speed>
  <fix>3d</fix>
</trkpt>
<trkpt lat="33.810002" lon="-118.3939174">
  <ele>-9.492</ele>
  <time>2026-09-01T01:18:33Z</time>
  <course>187.92</course>
  <speed>0.28861739379323625</speed>
  <fix>3d</fix>
</trkpt>
<trkpt lat="33.809892" lon="-118.3939044">
  <ele>-9.93</ele>
  <time>2026-09-01T01:18:33Z</time>
  <course>188.04</course>
  <speed>1.19</speed>
  <fix>3d</fix>
</trkpt>
<trkpt lat="33.810001" lon="-118.3939176">
  <ele>-9.489</ele>
  <time>2026-09-01T01:18:33Z</time>
  <course>187.65</course>
  <speed>0.378549864614954</speed>
  <fix>3d</fix>
</trkpt>
<trkpt lat="33.8098921" lon="-118.393904">
  <ele>-9.93</ele>
  <time>2026-09-01T01:18:33Z</time>
  <course>190.27</course>
  <speed>0.71</speed>
  <fix>3d</fix>
</trkpt>
<trkpt lat="33.81" lon="-118.3939178">
  <ele>-9.487</ele>
  <time>2026-09-01T01:18:33Z</time>
  <course>187.44</course>
  <speed>0.4883646178829912</speed>
  <fix>3d</fix>
</trkpt>
<trkpt lat="33.8098921" lon="-118.393904">
  <ele>-9.93</ele>
  <time>2026-09-01T01:18:33Z</time>
  <course>190.27</course>
  <speed>0.71</speed>
  <fix>3d</fix>
</trkpt>
<trkpt lat="33.809999" lon="-118.393918">
  <ele>-9.485</ele>
  <time>2026-09-01T01:18:33Z</time>
  <course>187.39</course>
  <speed>0.608276253029822</speed>
  <fix>3d</fix>
</trkpt>
<trkpt lat="33.8098927" lon="-118.3939037">
  <ele>-9.94</ele>
  <time>2026-09-01T01:18:33Z</time>
  <course>191.33</course>
  <speed>0.58</speed>
  <fix>3d</fix>
</trkpt>
<trkpt lat="33.809998" lon="-118.3939182">
  <ele>-9.483</ele>
  <time>2026-09-01T01:18:33Z</time>
  <course>187.45</course>
  <speed>0.6987131027825368</speed>
  <fix>3d</fix>
</trkpt>
<trkpt lat="33.8098927" lon="-118.3939037">
  <ele>-9.94</ele>
  <time>2026-09-01T01:18:33Z</time>
  <course>191.33</course>
  <speed>0.58</speed>
  <fix>3d</fix>
</trkpt>
<trkpt lat="33.8099971" lon="-118.3939183">
  <ele>-9.483</ele>
  <time>2026-09-01T01:18:33Z</time>
  <course>187.52</course>
  <speed>0.7877182237323191</speed>
  <fix>3d</fix>
</trkpt>
<trkpt lat="33.8098935" lon="-118.3939037">
  <ele>-9.95</ele>
  <time>2026-09-01T01:18:33Z</time>
  <course>189.81</course>
  <speed>0.63</speed>
  <fix>3d</fix>
</trkpt>
<trkpt lat="33.8099962" lon="-118.3939185">
  <ele>-9.483</ele>
  <time>2026-09-01T01:18:33Z</time>
  <course>187.55</course>
  <speed>0.8782368700982669</speed>
  <fix>3d</fix>
</trkpt>
<trkpt lat="33.8098935" lon="-118.3939037">
  <ele>-9.95</ele>
  <time>2026-09-01T01:18:33Z</time>
  <course>189.81</course>
  <speed>0.63</speed>
  <fix>3d</fix>
</trkpt>
<trkpt lat="33.8099952" lon="-118.3939187">
  <ele>-9.482</ele>
  <time>2026-09-01T01:18:33Z</time>
  <course>187.55</course>
  <speed>0.9786725703727472</speed>
  <fix>3d</fix>
</trkpt>
<trkpt lat="33.809894" lon="-118.3939039">
  <ele>-9.96</ele>
  <time>2026-09-01T01:18:33Z</time>
  <course>188.09</course>
  <speed>0.77</speed>
  <fix>3d</fix>
</trkpt>
<trkpt lat="33.8099942" lon="-118.3939188">
  <ele>-9.482</ele>
  <time>2026-09-01T01:18:33Z</time>
  <course>187.52</course>
  <speed>1.067941945987702</speed>
  <fix>3d</fix>
</trkpt>
<trkpt lat="33.809894" lon="-118.3939039">
  <ele>-9.96</ele>
  <time>2026-09-01T01:18:33Z</time>
  <course>188.09</course>
  <speed>0.77</speed>
  <fix>3d</fix>
</trkpt>
<trkpt lat="33.8099932" lon="-118.393919">
  <ele>-9.481</ele>
  <time>2026-09-01T01:18:33Z</time>
  <course>187.48</course>
  <speed>1.1485643212288985</speed>
  <fix>3d</fix>
</trkpt>
<trkpt lat="33.8098943" lon="-118.3939043">
  <ele>-9.97</ele>
  <time>2026-09-01T01:18:33Z</time>
  <course>187.11</course>
  <speed>0.94</speed>
  <fix>3d</fix>
</trkpt>
<trkpt lat="33.8099922" lon="-118.3939192">
  <ele>-9.48</ele>
  <time>2026-09-01T01:18:33Z</time>
  <course>187.43</course>
  <speed>1.229186723000212</speed>
  <fix>3d</fix>
</trkpt>
<trkpt lat="33.8098943" lon="-118.3939043">
  <ele>-9.97</ele>
  <time>2026-09-01T01:18:33Z</time>
  <course>187.11</course>
  <speed>0.94</speed>
  <fix>3d</fix>
</trkpt>
<trkpt lat="33.8099911" lon="-118.3939194">
  <ele>-9.479</ele>
  <time>2026-09-01T01:18:33Z</time>
  <course>187.41</course>
  <speed>1.2998846102635417</speed>
  <fix>3d</fix>
</trkpt>
<trkpt lat="33.8098942" lon="-118.3939049">
  <ele>-9.98</ele>
  <time>2026-09-01T01:18:33Z</time>
  <course>186.76</course>
  <speed>1.11</speed>
  <fix>3d</fix>
</trkpt>
<trkpt lat="33.8099899" lon="-118.3939195">
  <ele>-9.48</ele>
  <time>2026-09-01T01:18:33Z</time>
  <course>187.42</course>
  <speed>1.3705838172107534</speed>
  <fix>3d</fix>
</trkpt>
<trkpt lat="33.8098942" lon="-118.3939049">
  <ele>-9.98</ele>
  <time>2026-09-01T01:18:33Z</time>
  <course>186.76</course>
  <speed>1.11</speed>
  <fix>3d</fix>
</trkpt>
<trkpt lat="33.8099887" lon="-118.3939197">
  <ele>-9.483</ele>
  <time>2026-09-01T01:18:33Z</time>
  <course>187.44</course>
  <speed>1.4301398533010679</speed>
  <fix>3d</fix>
</trkpt>
<trkpt lat="33.8098938" lon="-118.3939058">
  <ele>-10.0</ele>
  <time>2026-09-01T01:18:33Z</time>
  <course>186.78</course>
  <speed>1.26</speed>
  <fix>3d</fix>
</trkpt>
<trkpt lat="33.8099874" lon="-118.3939199">
  <ele>-9.486</ele>
  <time>2026-09-01T01:18:33Z</time>
  <course>187.45</course>
  <speed>1.480979405663698</speed>
  <fix>3d</fix>
</trkpt>
<trkpt lat="33.8098938" lon="-118.3939058">
  <ele>-10.0</ele>
  <time>2026-09-01T01:18:33Z</time>
  <course>186.78</course>
  <speed>1.26</speed>
  <fix>3d</fix>
</trkpt>
<trkpt lat="33.8099861" lon="-118.3939201">
  <ele>-9.487</ele>
  <time>2026-09-01T01:18:33Z</time>
  <course>187.46</course>
  <speed>1.5219066988485201</speed>
  <fix>3d</fix>
</trkpt>
<trkpt lat="33.809893" lon="-118.3939069">
  <ele>-10.02</ele>
  <time>2026-09-01T01:18:33Z</time>
  <course>186.93</course>
  <speed>1.38</speed>
  <fix>3d</fix>
</trkpt>
<trkpt lat="33.8099848" lon="-118.3939203">
  <ele>-9.489</ele>
  <time>2026-09-01T01:18:33Z</time>
  <course>187.47</course>
  <speed>1.5616017418023074</speed>
  <fix>3d</fix>
</trkpt>
<trkpt lat="33.809893" lon="-118.3939069">
  <ele>-10.02</ele>
  <time>2026-09-01T01:18:33Z</time>
  <course>186.93</course>
  <speed>1.38</speed>
  <fix>3d</fix>
</trkpt>
<trkpt lat="33.8099834" lon="-118.3939206">
  <ele>-9.491</ele>
  <time>2026-09-01T01:18:33Z</time>
  <course>187.49</course>
  <speed>1.6025292509030842</speed>
  <fix>3d</fix>
</trkpt>
<trkpt lat="33.8098921" lon="-118.3939083">
  <ele>-10.04</ele>
  <time>2026-09-01T01:18:33Z</time>
  <course>187.09</course>
  <speed>1.48</speed>
  <fix>3d</fix>
</trkpt>
<trkpt lat="33.809982" lon="-118.3939208">
  <ele>-9.492</ele>
  <time>2026-09-01T01:18:33Z</time>
  <course>187.49</course>
  <speed>1.6322989922192566</speed>
  <fix>3d</fix>
</trkpt>
<trkpt lat="33.8098921" lon="-118.3939083">
  <ele>-10.04</ele>
  <time>2026-09-01T01:18:33Z</time>
  <course>187.09</course>
  <speed>1.48</speed>
  <fix>3d</fix>
</trkpt>
<trkpt lat="33.8099806" lon="-118.393921">
  <ele>-9.493</ele>
  <time>2026-09-01T01:18:33Z</time>
  <course>187.5</course>
  <speed>1.6533904560024533</speed>
  <fix>3d</fix>
</trkpt>
<trkpt lat="33.8098909" lon="-118.3939099">
  <ele>-10.05</ele>
  <time>2026-09-01T01:18:33Z</time>
  <course>187.2</course>
  <speed>1.56</speed>
  <fix>3d</fix>
</trkpt>
<trkpt lat="33.8099792" lon="-118.3939212">
  <ele>-9.494</ele>
  <time>2026-09-01T01:18:33Z</time>
  <course>187.5</course>
  <speed>1.6831518053936787</speed>
  <fix>3d</fix>
</trkpt>
<trkpt lat="33.8098909" lon="-118.3939099">
  <ele>-10.05</ele>
  <time>2026-09-01T01:18:33Z</time>
  <course>187.2</course>
  <speed>1.56</speed>
  <fix>3d</fix>
</trkpt>
<trkpt lat="33.8099777" lon="-118.3939215">
  <ele>-9.493</ele>
  <time>2026-09-01T01:18:33Z</time>
  <course>187.51</course>
  <speed>1.7029973576021777</speed>
  <fix>3d</fix>
</trkpt>
<trkpt lat="33.8098895" lon="-118.3939116">
  <ele>-10.06</ele>
  <time>2026-09-01T01:18:33Z</time>
  <course>187.25</course>
  <speed>1.61</speed>
  <fix>3d</fix>
</trkpt>
<trkpt lat="33.8099763" lon="-118.3939217">
  <ele>-9.491</ele>
  <time>2026-09-01T01:18:33Z</time>
  <course>187.51</course>
  <speed>1.7129214809792073</speed>
  <fix>3d</fix>
</trkpt>
<trkpt lat="33.8098895" lon="-118.3939116">
  <ele>-10.06</ele>
  <time>2026-09-01T01:18:33Z</time>
  <course>187.25</course>
  <speed>1.61</speed>
  <fix>3d</fix>
</trkpt>
<trkpt lat="33.8099748" lon="-118.3939219">
  <ele>-9.489</ele>
  <time>2026-09-01T01:18:33Z</time>
  <course>187.52</course>
  <speed>1.7340126873814967</speed>
  <fix>3d</fix>
</trkpt>
<trkpt lat="33.8098878" lon="-118.3939136">
  <ele>-10.07</ele>
  <time>2026-09-01T01:18:33Z</time>
  <course>187.28</course>
  <speed>1.66</speed>
  <fix>3d</fix>
</trkpt>
<trkpt lat="33.8099732" lon="-118.3939222">
  <ele>-9.487</ele>
  <time>2026-09-01T01:18:33Z</time>
  <course>187.52</course>
  <speed>1.7439323381370047</speed>
  <fix>3d</fix>
</trkpt>
<trkpt lat="33.8098878" lon="-118.3939136">
  <ele>-10.07</ele>
  <time>2026-09-01T01:18:33Z</time>
  <course>187.28</course>
  <speed>1.66</speed>
  <fix>3d</fix>
</trkpt>
<trkpt lat="33.8099717" lon="-118.3939224">
  <ele>-9.487</ele>
  <time>2026-09-01T01:18:33Z</time>
  <course>187.52</course>
  <speed>1.7538529014715</speed>
  <fix>3d</fix>
</trkpt>
<trkpt lat="33.809886" lon="-118.3939157">
  <ele>-10.07</ele>
  <time>2026-09-01T01:18:33Z</time>
  <course>187.29</course>
  <speed>1.69</speed>
  <fix>3d</fix>
</trkpt>
<trkpt lat="33.8099702" lon="-118.3939227">
  <ele>-9.486</ele>
  <time>2026-09-01T01:18:33Z</time>
  <course>187.52</course>
  <speed>1.7637743619862492</speed>
  <fix>3d</fix>
</trkpt>
<trkpt lat="33.809886" lon="-118.3939157">
  <ele>-10.07</ele>
  <time>2026-09-01T01:18:33Z</time>
  <course>187.29</course>
  <speed>1.69</speed>
  <fix>3d</fix>
</trkpt>
<trkpt lat="33.8099687" lon="-118.3939229">
  <ele>-9.486</ele>
  <time>2026-09-01T01:18:33Z</time>
  <course>187.52</course>
  <speed>1.7736967046256809</speed>
  <fix>3d</fix>
</trkpt>
<trkpt lat="33.809884" lon="-118.3939179">
  <ele>-10.08</ele>
  <time>2026-09-01T01:18:33Z</time>
  <course>187.29</course>
  <speed>1.71</speed>
  <fix>3d</fix>
</trkpt>
<trkpt lat="33.8099671" lon="-118.3939231">
  <ele>-9.486</ele>
  <time>2026-09-01T01:18:33Z</time>
  <course>187.52</course>
  <speed>1.7736967046256809</speed>
  <fix>3d</fix>
</trkpt>
<trkpt lat="33.809884" lon="-118.3939179">
  <ele>-10.08</ele>
  <time>2026-09-01T01:18:33Z</time>
  <course>187.29</course>
  <speed>1.71</speed>
  <fix>3d</fix>
</trkpt>
<trkpt lat="33.8099656" lon="-118.3939234">
  <ele>-9.486</ele>
  <time>2026-09-01T01:18:33Z</time>
  <course>187.52</course>
  <speed>1.7836199146679206</speed>
  <fix>3d</fix>
</trkpt>
<trkpt lat="33.8098818" lon="-118.3939203">
  <ele>-10.1</ele>
  <time>2026-09-01T01:18:33Z</time>
  <course>187.28</course>
  <speed>1.73</speed>
  <fix>3d</fix>
</trkpt>
<trkpt lat="33.809964" lon="-118.3939236">
  <ele>-9.487</ele>
  <time>2026-09-01T01:18:33Z</time>
  <course>187.52</course>
  <speed>1.7836199146679206</speed>
  <fix>3d</fix>
</trkpt>
<trkpt lat="33.8098818" lon="-118.3939203">
  <ele>-10.1</ele>
  <time>2026-09-01T01:18:33Z</time>
  <course>187.28</course>
  <speed>1.73</speed>
  <fix>3d</fix>
</trkpt>
<trkpt lat="33.8099625" lon="-118.3939239">
  <ele>-9.487</ele>
  <time>2026-09-01T01:18:33Z</time>
  <course>187.52</course>
  <speed>1.7836199146679206</speed>
  <fix>3d</fix>
</trkpt>
<trkpt lat="33.8098794" lon="-118.3939228">
  <ele>-10.11</ele>
  <time>2026-09-01T01:18:33Z</time>
  <course>187.28</course>
  <speed>1.75</speed>
  <fix>3d</fix>
</trkpt>
<trkpt lat="33.8099609" lon="-118.3939241">
  <ele>-9.487</ele>
  <time>2026-09-01T01:18:33Z</time>
  <course>187.53</course>
  <speed>1.7935439777156288</speed>
  <fix>3d</fix>
</trkpt>
<trkpt lat="33.8098794" lon="-118.3939228">
  <ele>-10.11</ele>
  <time>2026-09-01T01:18:33Z</time>
  <course>187.28</course>
  <speed>1.75</speed>
  <fix>3d</fix>
</trkpt>
<trkpt lat="33.8099593" lon="-118.3939244">
  <ele>-9.488</ele>
  <time>2026-09-01T01:18:33Z</time>
  <course>187.53</course>
  <speed>1.7935439777156288</speed>
  <fix>3d</fix>
</trkpt>
<trkpt lat="33.8098768" lon="-118.3939253">
  <ele>-10.12</ele>
  <time>2026-09-01T01:18:33Z</time>
  <course>187.28</course>
  <speed>1.76</speed>
  <fix>3d</fix>
</trkpt>
<trkpt lat="33.8099578" lon="-118.3939246">
  <ele>-9.489</ele>
  <time>2026-09-01T01:18:33Z</time>
  <course>187.53</course>
  <speed>1.7935439777156288</speed>
  <fix>3d</fix>
</trkpt>
<trkpt lat="33.8098768" lon="-118.3939253">
  <ele>-10.12</ele>
  <time>2026-09-01T01:18:33Z</time>
  <course>187.28</course>
  <speed>1.76</speed>
  <fix>3d</fix>
</trkpt>
<trkpt lat="33.8099562" lon="-118.3939249">
  <ele>-9.49</ele>
  <time>2026-09-01T01:18:33Z</time>
  <course>187.52</course>
  <speed>1.7935439777156288</speed>
  <fix>3d</fix>
</trkpt>
<trkpt lat="33.809874" lon="-118.393928">
  <ele>-10.14</ele>
  <time>2026-09-01T01:18:33Z</time>
  <course>187.28</course>
  <speed>1.76</speed>
  <fix>3d</fix>
</trkpt>
<trkpt lat="33.8099546" lon="-118.3939251">
  <ele>-9.49</ele>
  <time>2026-09-01T01:18:33Z</time>
  <course>187.52</course>
  <speed>1.7935439777156288</speed>
  <fix>3d</fix>
</trkpt>
<trkpt lat="33.809874" lon="-118.393928">
  <ele>-10.14</ele>
  <time>2026-09-01T01:18:33Z</time>
  <course>187.28</course>
  <speed>1.76</speed>
  <fix>3d</fix>
</trkpt>
<trkpt lat="33.809953" lon="-118.3939254">
  <ele>-9.49</ele>
  <time>2026-09-01T01:18:33Z</time>
  <course>187.52</course>
  <speed>1.7947980387776223</speed>
  <fix>3d</fix>
</trkpt>
<trkpt lat="33.809871" lon="-118.3939306">
  <ele>-10.15</ele>
  <time>2026-09-01T01:18:33Z</time>
  <course>187.28</course>
  <speed>1.77</speed>
  <fix>3d</fix>
</trkpt>
<trkpt lat="33.8099514" lon="-118.3939256">
  <ele>-9.49</ele>
  <time>2026-09-01T01:18:33Z</time>
  <course>187.52</course>
  <speed>1.7947980387776223</speed>
  <fix>3d</fix>
</trkpt>
<trkpt lat="33.809871" lon="-118.3939306">
  <ele>-10.15</ele>
  <time>2026-09-01T01:18:33Z</time>
  <course>187.28</course>
  <speed>1.77</speed>
  <fix>3d</fix>
</trkpt>
<trkpt lat="33.8099498" lon="-118.3939259">
  <ele>-9.489</ele>
  <time>2026-09-01T01:18:33Z</time>
  <course>187.51</course>
  <speed>1.7947980387776223</speed>
  <fix>3d</fix>
</trkpt>
<trkpt lat="33.8098678" lon="-118.3939332">
  <ele>-10.16</ele>
  <time>2026-09-01T01:18:33Z</time>
  <course>187.29</course>
  <speed>1.77</speed>
  <fix>3d</fix>
</trkpt>
<trkpt lat="33.8099483" lon="-118.3939261">
  <ele>-9.488</ele>
  <time>2026-09-01T01:18:33Z</time>
  <course>187.52</course>
  <speed>1.8047160441465575</speed>
  <fix>3d</fix>
</trkpt>
<trkpt lat="33.8098678" lon="-118.3939332">
  <ele>-10.16</ele>
  <time>2026-09-01T01:18:33Z</time>
  <course>187.29</course>
  <speed>1.77</speed>
  <fix>3d</fix>
</trkpt>
<trkpt lat="33.8099467" lon="-118.3939264">
  <ele>-9.487</ele>
  <time>2026-09-01T01:18:33Z</time>
  <course>187.51</course>
  <speed>1.8047160441465575</speed>
  <fix>3d</fix>
</trkpt>
<trkpt lat="33.8098645" lon="-118.3939358">
  <ele>-10.17</ele>
  <time>2026-09-01T01:18:33Z</time>
  <course>187.3</course>
  <speed>1.77</speed>
  <fix>3d</fix>
</trkpt>
<trkpt lat="33.8099451" lon="-118.3939266">
  <ele>-9.487</ele>
  <time>2026-09-01T01:18:33Z</time>
  <course>187.51</course>
  <speed>1.8047160441465575</speed>
  <fix>3d</fix>
</trkpt>
<trkpt lat="33.8098645" lon="-118.3939358">
  <ele>-10.17</ele>
  <time>2026-09-01T01:18:33Z</time>
  <course>187.3</course>
  <speed>1.77</speed>
  <fix>3d</fix>
</trkpt>
<trkpt lat="33.8099435" lon="-118.3939269">
  <ele>-9.487</ele>
  <time>2026-09-01T01:18:33Z</time>
  <course>187.51</course>
  <speed>1.7947980387776223</speed>
  <fix>3d</fix>
</trkpt>
<trkpt lat="33.809861" lon="-118.3939384">
  <ele>-10.18</ele>
  <time>2026-09-01T01:18:33Z</time>
  <course>187.32</course>
  <speed>1.78</speed>
  <fix>3d</fix>
</trkpt>
<trkpt lat="33.8099419" lon="-118.3939271">
  <ele>-9.487</ele>
  <time>2026-09-01T01:18:33Z</time>
  <course>187.51</course>
  <speed>1.7947980387776223</speed>
  <fix>3d</fix>
</trkpt>
<trkpt lat="33.809861" lon="-118.3939384">
  <ele>-10.18</ele>
  <time>2026-09-01T01:18:33Z</time>
  <course>187.32</course>
  <speed>1.78</speed>
  <fix>3d</fix>
</trkpt>
<trkpt lat="33.8099403" lon="-118.3939274">
  <ele>-9.486</ele>
  <time>2026-09-01T01:18:33Z</time>
  <course>187.51</course>
  <speed>1.7947980387776223</speed>
  <fix>3d</fix>
</trkpt>
<trkpt lat="33.8098572" lon="-118.393941">
  <ele>-10.19</ele>
  <time>2026-09-01T01:18:33Z</time>
  <course>187.33</course>
  <speed>1.77</speed>
  <fix>3d</fix>
</trkpt>
<trkpt lat="33.8099388" lon="-118.3939276">
  <ele>-9.486</ele>
  <time>2026-09-01T01:18:33Z</time>
  <course>187.51</course>
  <speed>1.7947980387776223</speed>
  <fix>3d</fix>
</trkpt>
<trkpt lat="33.8098572" lon="-118.393941">
  <ele>-10.19</ele>
  <time>2026-09-01T01:18:33Z</time>
  <course>187.33</course>
  <speed>1.77</speed>
  <fix>3d</fix>
</trkpt>
<trkpt lat="33.8099372" lon="-118.3939279">
  <ele>-9.485</ele>
  <time>2026-09-01T01:18:33Z</time>
  <course>187.5</course>
  <speed>1.7947980387776223</speed>
  <fix>3d</fix>
</trkpt>
<trkpt lat="33.8098534" lon="-118.3939435">
  <ele>-10.21</ele>
  <time>2026-09-01T01:18:33Z</time>
  <course>187.34</course>
  <speed>1.77</speed>
  <fix>3d</fix>
</trkpt>
<trkpt lat="33.8099356" lon="-118.3939281">
  <ele>-9.486</ele>
  <time>2026-09-01T01:18:33Z</time>
  <course>187.5</course>
  <speed>1.7947980387776223</speed>
  <fix>3d</fix>
</trkpt>
<trkpt lat="33.8098534" lon="-118.3939435">
  <ele>-10.21</ele>
  <time>2026-09-01T01:18:33Z</time>
  <course>187.34</course>
  <speed>1.77</speed>
  <fix>3d</fix>
</trkpt>
<trkpt lat="33.809934" lon="-118.3939284">
  <ele>-9.487</ele>
  <time>2026-09-01T01:18:33Z</time>
  <course>187.5</course>
  <speed>1.7947980387776223</speed>
  <fix>3d</fix>
</trkpt>
<trkpt lat="33.8098494" lon="-118.3939459">
  <ele>-10.23</ele>
  <time>2026-09-01T01:18:33Z</time>
  <course>187.34</course>
  <speed>1.77</speed>
  <fix>3d</fix>
</trkpt>
<trkpt lat="33.8099324" lon="-118.3939286">
  <ele>-9.488</ele>
  <time>2026-09-01T01:18:33Z</time>
  <course>187.49</course>
  <speed>1.7947980387776223</speed>
  <fix>3d</fix>
</trkpt>
<trkpt lat="33.8098494" lon="-118.3939459">
  <ele>-10.23</ele>
  <time>2026-09-01T01:18:33Z</time>
  <course>187.34</course>
  <speed>1.77</speed>
  <fix>3d</fix>
</trkpt>
<trkpt lat="33.8099308" lon="-118.3939289">
  <ele>-9.49</ele>
  <time>2026-09-01T01:18:33Z</time>
  <course>187.49</course>
  <speed>1.7947980387776223</speed>
  <fix>3d</fix>
</trkpt>
<trkpt lat="33.8098452" lon="-118.3939482">
  <ele>-10.24</ele>
  <time>2026-09-01T01:18:33Z</time>
  <course>187.34</course>
  <speed>1.78</speed>
  <fix>3d</fix>
</trkpt>
<trkpt lat="33.8099293" lon="-118.3939291">
  <ele>-9.49</ele>
  <time>2026-09-01T01:18:33Z</time>
  <course>187.49</course>
  <speed>1.7947980387776223</speed>
  <fix>3d</fix>
</trkpt>
<trkpt lat="33.8098452" lon="-118.3939482">
  <ele>-10.24</ele>
  <time>2026-09-01T01:18:33Z</time>
  <course>187.34</course>
  <speed>1.78</speed>
  <fix>3d</fix>
</trkpt>
<trkpt lat="33.8099277" lon="-118.3939294">
  <ele>-9.491</ele>
  <time>2026-09-01T01:18:33Z</time>
  <course>187.49</course>
  <speed>1.7947980387776223</speed>
  <fix>3d</fix>
</trkpt>
<trkpt lat="33.8098408" lon="-118.3939503">
  <ele>-10.25</ele>
  <time>2026-09-01T01:18:33Z</time>
  <course>187.34</course>
  <speed>1.78</speed>
  <fix>3d</fix>
</trkpt>
<trkpt lat="33.8099261" lon="-118.3939296">
  <ele>-9.492</ele>
  <time>2026-09-01T01:18:33Z</time>
  <course>187.49</course>
  <speed>1.7947980387776223</speed>
  <fix>3d</fix>
</trkpt>
<trkpt lat="33.8098408" lon="-118.3939503">
  <ele>-10.25</ele>
  <time>2026-09-01T01:18:33Z</time>
  <course>187.34</course>
  <speed>1.78</speed>
  <fix>3d</fix>
</trkpt>
<trkpt lat="33.8099245" lon="-118.3939299">
  <ele>-9.492</ele>
  <time>2026-09-01T01:18:33Z</time>
  <course>187.48</course>
  <speed>1.7947980387776223</speed>
  <fix>3d</fix>
</trkpt>
<trkpt lat="33.8098364" lon="-118.3939523">
  <ele>-10.26</ele>
  <time>2026-09-01T01:18:33Z</time>
  <course>187.34</course>
  <speed>1.78</speed>
  <fix>3d</fix>
</trkpt>
<trkpt lat="33.8099229" lon="-118.3939301">
  <ele>-9.492</ele>
  <time>2026-09-01T01:18:33Z</time>
  <course>187.48</course>
  <speed>1.7848809484108457</speed>
  <fix>3d</fix>
</trkpt>
<trkpt lat="33.8098364" lon="-118.3939523">
  <ele>-10.26</ele>
  <time>2026-09-01T01:18:33Z</time>
  <course>187.34</course>
  <speed>1.78</speed>
  <fix>3d</fix>
</trkpt>
<trkpt lat="33.8099213" lon="-118.3939304">
  <ele>-9.492</ele>
  <time>2026-09-01T01:18:33Z</time>
  <course>187.48</course>
  <speed>1.7848809484108457</speed>
  <fix>3d</fix>
</trkpt>
<trkpt lat="33.8098318" lon="-118.3939542">
  <ele>-10.27</ele>
  <time>2026-09-01T01:18:33Z</time>
  <course>187.35</course>
  <speed>1.78</speed>
  <fix>3d</fix>
</trkpt>
<trkpt lat="33.8099197" lon="-118.3939306">
  <ele>-9.491</ele>
  <time>2026-09-01T01:18:33Z</time>
  <course>187.48</course>
  <speed>1.7848809484108457</speed>
  <fix>3d</fix>
</trkpt>
<trkpt lat="33.8098318" lon="-118.3939542">
  <ele>-10.27</ele>
  <time>2026-09-01T01:18:33Z</time>
  <course>187.35</course>
  <speed>1.78</speed>
  <fix>3d</fix>
</trkpt>
<trkpt lat="33.8099181" lon="-118.3939309">
  <ele>-9.491</ele>
  <time>2026-09-01T01:18:33Z</time>
  <course>187.47</course>
  <speed>1.7848809484108457</speed>
  <fix>3d</fix>
</trkpt>
<trkpt lat="33.8098271" lon="-118.3939559">
  <ele>-10.28</ele>
  <time>2026-09-01T01:18:33Z</time>
  <course>187.35</course>
  <speed>1.77</speed>
  <fix>3d</fix>
</trkpt>
<trkpt lat="33.8099166" lon="-118.3939311">
  <ele>-9.49</ele>
  <time>2026-09-01T01:18:33Z</time>
  <course>187.47</course>
  <speed>1.7848809484108457</speed>
  <fix>3d</fix>
</trkpt>
<trkpt lat="33.8098271" lon="-118.3939559">
  <ele>-10.28</ele>
  <time>2026-09-01T01:18:33Z</time>
  <course>187.35</course>
  <speed>1.77</speed>
  <fix>3d</fix>
</trkpt>
<trkpt lat="33.809915" lon="-118.3939314">
  <ele>-9.489</ele>
  <time>2026-09-01T01:18:33Z</time>
  <course>187.47</course>
  <speed>1.7848809484108457</speed>
  <fix>3d</fix>
</trkpt>
<trkpt lat="33.8098223" lon="-118.3939573">
  <ele>-10.29</ele>
  <time>2026-09-01T01:18:33Z</time>
  <course>187.35</course>
  <speed>1.77</speed>
  <fix>3d</fix>
</trkpt>
<trkpt lat="33.8099134" lon="-118.3939316">
  <ele>-9.488</ele>
  <time>2026-09-01T01:18:33Z</time>
  <course>187.47</course>
  <speed>1.7848809484108457</speed>
  <fix>3d</fix>
</trkpt>
<trkpt lat="33.8098223" lon="-118.3939573">
  <ele>-10.29</ele>
  <time>2026-09-01T01:18:33Z</time>
  <course>187.35</course>
  <speed>1.77</speed>
  <fix>3d</fix>
</trkpt>
<trkpt lat="33.8099118" lon="-118.3939319">
  <ele>-9.487</ele>
  <time>2026-09-01T01:18:33Z</time>
  <course>187.47</course>
  <speed>1.7848809484108457</speed>
  <fix>3d</fix>
</trkpt>
<trkpt lat="33.8098175" lon="-118.3939585">
  <ele>-10.3</ele>
  <time>2026-09-01T01:18:33Z</time>
  <course>187.34</course>
  <speed>1.77</speed>
  <fix>3d</fix>
</trkpt>
<trkpt lat="33.8099102" lon="-118.3939321">
  <ele>-9.486</ele>
  <time>2026-09-01T01:18:33Z</time>
  <course>187.46</course>
  <speed>1.7848809484108457</speed>
  <fix>3d</fix>
</trkpt>
<trkpt lat="33.8098175" lon="-118.3939585">
  <ele>-10.3</ele>
  <time>2026-09-01T01:18:33Z</time>
  <course>187.34</course>
  <speed>1.77</speed>
  <fix>3d</fix>
</trkpt>
<trkpt lat="33.8099087" lon="-118.3939324">
  <ele>-9.484</ele>
  <time>2026-09-01T01:18:33Z</time>
  <course>187.47</course>
  <speed>1.7749647883831385</speed>
  <fix>3d</fix>
</trkpt>
<trkpt lat="33.8098126" lon="-118.3939596">
  <ele>-10.31</ele>
  <time>2026-09-01T01:18:33Z</time>
  <course>187.34</course>
  <speed>1.77</speed>
  <fix>3d</fix>
</trkpt>
<trkpt lat="33.8099071" lon="-118.3939326">
  <ele>-9.483</ele>
  <time>2026-09-01T01:18:33Z</time>
  <course>187.47</course>
  <speed>1.7749647883831385</speed>
  <fix>3d</fix>
</trkpt>
<trkpt lat="33.8098126" lon="-118.3939596">
  <ele>-10.31</ele>
  <time>2026-09-01T01:18:33Z</time>
  <course>187.34</course>
  <speed>1.77</speed>
  <fix>3d</fix>
</trkpt>
<trkpt lat="33.8099055" lon="-118.3939329">
  <ele>-9.484</ele>
  <time>2026-09-01T01:18:33Z</time>
  <course>187.47</course>
  <speed>1.7749647883831385</speed>
  <fix>3d</fix>
</trkpt>
<trkpt lat="33.8098076" lon="-118.3939605">
  <ele>-10.32</ele>
  <time>2026-09-01T01:18:33Z</time>
  <course>187.34</course>
  <speed>1.77</speed>
  <fix>3d</fix>
</trkpt>
<trkpt lat="33.8099039" lon="-118.3939331">
  <ele>-9.485</ele>
  <time>2026-09-01T01:18:33Z</time>
  <course>187.47</course>
  <speed>1.7749647883831385</speed>
  <fix>3d</fix>
</trkpt>
<trkpt lat="33.8098076" lon="-118.3939605">
  <ele>-10.32</ele>
  <time>2026-09-01T01:18:33Z</time>
  <course>187.34</course>
  <speed>1.77</speed>
  <fix>3d</fix>
</trkpt>
<trkpt lat="33.8099023" lon="-118.3939334">
  <ele>-9.485</ele>
  <time>2026-09-01T01:18:33Z</time>
  <course>187.47</course>
  <speed>1.7749647883831385</speed>
  <fix>3d</fix>
</trkpt>
<trkpt lat="33.8098027" lon="-118.3939611">
  <ele>-10.34</ele>
  <time>2026-09-01T01:18:33Z</time>
  <course>187.33</course>
  <speed>1.77</speed>
  <fix>3d</fix>
</trkpt>
<trkpt lat="33.8099007" lon="-118.3939336">
  <ele>-9.486</ele>
  <time>2026-09-01T01:18:33Z</time>
  <course>187.46</course>
  <speed>1.7749647883831385</speed>
  <fix>3d</fix>
</trkpt>
<trkpt lat="33.8098027" lon="-118.3939611">
  <ele>-10.34</ele>
  <time>2026-09-01T01:18:33Z</time>
  <course>187.33</course>
  <speed>1.77</speed>
  <fix>3d</fix>
</trkpt>
<trkpt lat="33.8098992" lon="-118.3939339">
  <ele>-9.487</ele>
  <time>2026-09-01T01:18:33Z</time>
  <course>187.46</course>
  <speed>1.7749647883831385</speed>
  <fix>3d</fix>
</trkpt>
<trkpt lat="33.8097977" lon="-118.3939616">
  <ele>-10.35</ele>
  <time>2026-09-01T01:18:33Z</time>
  <course>187.33</course>
  <speed>1.77</speed>
  <fix>3d</fix>
</trkpt>
<trkpt lat="33.8098976" lon="-118.3939341">
  <ele>-9.488</ele>
  <time>2026-09-01T01:18:33Z</time>
  <course>187.46</course>
  <speed>1.7749647883831385</speed>
  <fix>3d</fix>
</trkpt>
<trkpt lat="33.8097977" lon="-118.3939616">
  <ele>-10.35</ele>
  <time>2026-09-01T01:18:33Z</time>
  <course>187.33</course>
  <speed>1.77</speed>
  <fix>3d</fix>
</trkpt>
<trkpt lat="33.809896" lon="-118.3939344">
  <ele>-9.489</ele>
  <time>2026-09-01T01:18:33Z</time>
  <course>187.46</course>
  <speed>1.7749647883831385</speed>
  <fix>3d</fix>
</trkpt>
<trkpt lat="33.8097928" lon="-118.3939618">
  <ele>-10.37</ele>
  <time>2026-09-01T01:18:33Z</time>
  <course>187.34</course>
  <speed>1.77</speed>
  <fix>3d</fix>
</trkpt>
<trkpt lat="33.8098944" lon="-118.3939346">
  <ele>-9.49</ele>
  <time>2026-09-01T01:18:33Z</time>
  <course>187.46</course>
  <speed>1.7749647883831385</speed>
  <fix>3d</fix>
</trkpt>
<trkpt lat="33.8097928" lon="-118.3939618">
  <ele>-10.37</ele>
  <time>2026-09-01T01:18:33Z</time>
  <course>187.34</course>
  <speed>1.77</speed>
  <fix>3d</fix>
</trkpt>
<trkpt lat="33.8098928" lon="-118.3939349">
  <ele>-9.49</ele>
  <time>2026-09-01T01:18:33Z</time>
  <course>187.46</course>
  <speed>1.7749647883831385</speed>
  <fix>3d</fix>
</trkpt>
<trkpt lat="33.8097879" lon="-118.3939618">
  <ele>-10.38</ele>
  <time>2026-09-01T01:18:33Z</time>
  <course>187.35</course>
  <speed>1.77</speed>
  <fix>3d</fix>
</trkpt>
<trkpt lat="33.8098913" lon="-118.3939351">
  <ele>-9.49</ele>
  <time>2026-09-01T01:18:33Z</time>
  <course>187.46</course>
  <speed>1.7749647883831385</speed>
  <fix>3d</fix>
</trkpt>
<trkpt lat="33.8097879" lon="-118.3939618">
  <ele>-10.38</ele>
  <time>2026-09-01T01:18:33Z</time>
  <course>187.35</course>
  <speed>1.77</speed>
  <fix>3d</fix>
</trkpt>
<trkpt lat="33.8098897" lon="-118.3939354">
  <ele>-9.49</ele>
  <time>2026-09-01T01:18:33Z</time>
  <course>187.45</course>
  <speed>1.7749647883831385</speed>
  <fix>3d</fix>
</trkpt>
<trkpt lat="33.809783" lon="-118.3939616">
  <ele>-10.39</ele>
  <time>2026-09-01T01:18:33Z</time>
  <course>187.35</course>
  <speed>1.77</speed>
  <fix>3d</fix>
</trkpt>
<trkpt lat="33.8098881" lon="-118.3939356">
  <ele>-9.491</ele>
  <time>2026-09-01T01:18:33Z</time>
  <course>187.45</course>
  <speed>1.7749647883831385</speed>
  <fix>3d</fix>
</trkpt>
<trkpt lat="33.809783" lon="-118.3939616">
  <ele>-10.39</ele>
  <time>2026-09-01T01:18:33Z</time>
  <course>187.35</course>
  <speed>1.77</speed>
  <fix>3d</fix>
</trkpt>
<trkpt lat="33.8098865" lon="-118.3939359">
  <ele>-9.492</ele>
  <time>2026-09-01T01:18:33Z</time>
  <course>187.45</course>
  <speed>1.7749647883831385</speed>
  <fix>3d</fix>
</trkpt>
<trkpt lat="33.8097782" lon="-118.3939612">
  <ele>-10.41</ele>
  <time>2026-09-01T01:18:33Z</time>
  <course>187.35</course>
  <speed>1.77</speed>
  <fix>3d</fix>
</trkpt>
<trkpt lat="33.8098849" lon="-118.3939361">
  <ele>-9.493</ele>
  <time>2026-09-01T01:18:33Z</time>
  <course>187.45</course>
  <speed>1.7749647883831385</speed>
  <fix>3d</fix>
</trkpt>
<trkpt lat="33.8097782" lon="-118.3939612">
  <ele>-10.41</ele>
  <time>2026-09-01T01:18:33Z</time>
  <course>187.35</course>
  <speed>1.77</speed>
  <fix>3d</fix>
</trkpt>
<trkpt lat="33.8098834" lon="-118.3939364">
  <ele>-9.493</ele>
  <time>2026-09-01T01:18:33Z</time>
  <course>187.45</course>
  <speed>1.7749647883831385</speed>
  <fix>3d</fix>
</trkpt>
<trkpt lat="33.8097735" lon="-118.3939606">
  <ele>-10.42</ele>
  <time>2026-09-01T01:18:33Z</time>
  <course>187.34</course>
  <speed>1.77</speed>
  <fix>3d</fix>
</trkpt>
<trkpt lat="33.8098818" lon="-118.3939366">
  <ele>-9.493</ele>
  <time>2026-09-01T01:18:33Z</time>
  <course>187.45</course>
  <speed>1.7749647883831385</speed>
  <fix>3d</fix>
</trkpt>
<trkpt lat="33.8097735" lon="-118.3939606">
  <ele>-10.42</ele>
  <time>2026-09-01T01:18:33Z</time>
  <course>187.34</course>
  <speed>1.77</speed>
  <fix>3d</fix>
</trkpt>
<trkpt lat="33.8098802" lon="-118.3939369">
  <ele>-9.491</ele>
  <time>2026-09-01T01:18:33Z</time>
  <course>187.45</course>
  <speed>1.7749647883831385</speed>
  <fix>3d</fix>
</trkpt>
<trkpt lat="33.8097689" lon="-118.3939598">
  <ele>-10.43</ele>
  <time>2026-09-01T01:18:33Z</time>
  <course>187.34</course>
  <speed>1.77</speed>
  <fix>3d</fix>
</trkpt>
<trkpt lat="33.8098786" lon="-118.3939371">
  <ele>-9.49</ele>
  <time>2026-09-01T01:18:33Z</time>
  <course>187.45</course>
  <speed>1.7736967046256809</speed>
  <fix>3d</fix>
</trkpt>
<trkpt lat="33.8097689" lon="-118.3939598">
  <ele>-10.43</ele>
  <time>2026-09-01T01:18:33Z</time>
  <course>187.34</course>
  <speed>1.77</speed>
  <fix>3d</fix>
</trkpt>
<trkpt lat="33.8098771" lon="-118.3939374">
  <ele>-9.487</ele>
  <time>2026-09-01T01:18:33Z</time>
  <course>187.45</course>
  <speed>1.7637743619862492</speed>
  <fix>3d</fix>
</trkpt>
<trkpt lat="33.8097644" lon="-118.3939588">
  <ele>-10.43</ele>
  <time>2026-09-01T01:18:33Z</time>
  <course>187.34</course>
  <speed>1.77</speed>
  <fix>3d</fix>
</trkpt>
<trkpt lat="33.8098755" lon="-118.3939376">
  <ele>-9.485</ele>
  <time>2026-09-01T01:18:33Z</time>
  <course>187.44</course>
  <speed>1.7637743619862492</speed>
  <fix>3d</fix>
</trkpt>
<trkpt lat="33.8097644" lon="-118.3939588">
  <ele>-10.43</ele>
  <time>2026-09-01T01:18:33Z</time>
  <course>187.34</course>
  <speed>1.77</speed>
  <fix>3d</fix>
</trkpt>
<trkpt lat="33.8098739" lon="-118.3939379">
  <ele>-9.484</ele>
  <time>2026-09-01T01:18:33Z</time>
  <course>187.44</course>
  <speed>1.7637743619862492</speed>
  <fix>3d</fix>
</trkpt>
<trkpt lat="33.80976" lon="-118.3939577">
  <ele>-10.44</ele>
  <time>2026-09-01T01:18:33Z</time>
  <course>187.33</course>
  <speed>1.77</speed>
  <fix>3d</fix>
</trkpt>
<trkpt lat="33.8098723" lon="-118.3939381">
  <ele>-9.484</ele>
  <time>2026-09-01T01:18:33Z</time>
  <course>187.44</course>
  <speed>1.7637743619862492</speed>
  <fix>3d</fix>
</trkpt>
<trkpt lat="33.80976" lon="-118.3939577">
  <ele>-10.44</ele>
  <time>2026-09-01T01:18:33Z</time>
  <course>187.33</course>
  <speed>1.77</speed>
  <fix>3d</fix>
</trkpt>
<trkpt lat="33.8098708" lon="-118.3939383">
  <ele>-9.484</ele>
  <time>2026-09-01T01:18:33Z</time>
  <course>187.44</course>
  <speed>1.7637743619862492</speed>
  <fix>3d</fix>
</trkpt>
<trkpt lat="33.8097558" lon="-118.3939565">
  <ele>-10.46</ele>
  <time>2026-09-01T01:18:33Z</time>
  <course>187.33</course>
  <speed>1.76</speed>
  <fix>3d</fix>
</trkpt>
<trkpt lat="33.8098692" lon="-118.3939386">
  <ele>-9.486</ele>
  <time>2026-09-01T01:18:33Z</time>
  <course>187.44</course>
  <speed>1.7637743619862492</speed>
  <fix>3d</fix>
</trkpt>
<trkpt lat="33.8097558" lon="-118.3939565">
  <ele>-10.46</ele>
  <time>2026-09-01T01:18:33Z</time>
  <course>187.33</course>
  <speed>1.76</speed>
  <fix>3d</fix>
</trkpt>
<trkpt lat="33.8098676" lon="-118.3939388">
  <ele>-9.487</ele>
  <time>2026-09-01T01:18:33Z</time>
  <course>187.44</course>
  <speed>1.7637743619862492</speed>
  <fix>3d</fix>
</trkpt>
<trkpt lat="33.8097517" lon="-118.3939551">
  <ele>-10.47</ele>
  <time>2026-09-01T01:18:33Z</time>
  <course>187.32</course>
  <speed>1.76</speed>
  <fix>3d</fix>
</trkpt>
<trkpt lat="33.809866" lon="-118.3939391">
  <ele>-9.488</ele>
  <time>2026-09-01T01:18:33Z</time>
  <course>187.44</course>
  <speed>1.7637743619862492</speed>
  <fix>3d</fix>
</trkpt>
<trkpt lat="33.8097517" lon="-118.3939551">
  <ele>-10.47</ele>
  <time>2026-09-01T01:18:33Z</time>
  <course>187.32</course>
  <speed>1.76</speed>
  <fix>3d</fix>
</trkpt>
<trkpt lat="33.8098645" lon="-118.3939393">
  <ele>-9.488</ele>
  <time>2026-09-01T01:18:33Z</time>
  <course>187.44</course>
  <speed>1.7637743619862492</speed>
  <fix>3d</fix>
</trkpt>
<trkpt lat="33.8097478" lon="-118.3939537">
  <ele>-10.48</ele>
  <time>2026-09-01T01:18:33Z</time>
  <course>187.31</course>
  <speed>1.76</speed>
  <fix>3d</fix>
</trkpt>
<trkpt lat="33.8098629" lon="-118.3939396">
  <ele>-9.488</ele>
  <time>2026-09-01T01:18:33Z</time>
  <course>187.44</course>
  <speed>1.7637743619862492</speed>
  <fix>3d</fix>
</trkpt>
<trkpt lat="33.8097478" lon="-118.3939537">
  <ele>-10.48</ele>
  <time>2026-09-01T01:18:33Z</time>
  <course>187.31</course>
  <speed>1.76</speed>
  <fix>3d</fix>
</trkpt>
<trkpt lat="33.8098613" lon="-118.3939398">
  <ele>-9.488</ele>
  <time>2026-09-01T01:18:33Z</time>
  <course>187.43</course>
  <speed>1.7637743619862492</speed>
  <fix>3d</fix>
</trkpt>
<trkpt lat="33.809744" lon="-118.3939521">
  <ele>-10.49</ele>
  <time>2026-09-01T01:18:33Z</time>
  <course>187.31</course>
  <speed>1.77</speed>
  <fix>3d</fix>
</trkpt>
<trkpt lat="33.8098597" lon="-118.3939401">
  <ele>-9.488</ele>
  <time>2026-09-01T01:18:33Z</time>
  <course>187.43</course>
  <speed>1.7637743619862492</speed>
  <fix>3d</fix>
</trkpt>
<trkpt lat="33.809744" lon="-118.3939521">
  <ele>-10.49</ele>
  <time>2026-09-01T01:18:33Z</time>
  <course>187.31</course>
  <speed>1.77</speed>
  <fix>3d</fix>
</trkpt>
<trkpt lat="33.8098582" lon="-118.3939403">
  <ele>-9.488</ele>
  <time>2026-09-01T01:18:33Z</time>
  <course>187.43</course>
  <speed>1.7637743619862492</speed>
  <fix>3d</fix>
</trkpt>
<trkpt lat="33.8097405" lon="-118.3939505">
  <ele>-10.5</ele>
  <time>2026-09-01T01:18:33Z</time>
  <course>187.32</course>
  <speed>1.77</speed>
  <fix>3d</fix>
</trkpt>
<trkpt lat="33.8098566" lon="-118.3939406">
  <ele>-9.486</ele>
  <time>2026-09-01T01:18:33Z</time>
  <course>187.43</course>
  <speed>1.7439323381370047</speed>
  <fix>3d</fix>
</trkpt>
<trkpt lat="33.8097405" lon="-118.3939505">
  <ele>-10.5</ele>
  <time>2026-09-01T01:18:33Z</time>
  <course>187.32</course>
  <speed>1.77</speed>
  <fix>3d</fix>
</trkpt>
<trkpt lat="33.809855" lon="-118.3939408">
  <ele>-9.484</ele>
  <time>2026-09-01T01:18:33Z</time>
  <course>187.43</course>
  <speed>1.6633099530754933</speed>
  <fix>3d</fix>
</trkpt>
<trkpt lat="33.8097371" lon="-118.3939489">
  <ele>-10.52</ele>
  <time>2026-09-01T01:18:33Z</time>
  <course>187.33</course>
  <speed>1.74</speed>
  <fix>3d</fix>
</trkpt>
<trkpt lat="33.8098536" lon="-118.393941">
  <ele>-9.483</ele>
  <time>2026-09-01T01:18:33Z</time>
  <course>187.43</course>
  <speed>1.552932709424333</speed>
  <fix>3d</fix>
</trkpt>
<trkpt lat="33.8097371" lon="-118.3939489">
  <ele>-10.52</ele>
  <time>2026-09-01T01:18:33Z</time>
  <course>187.33</course>
  <speed>1.74</speed>
  <fix>3d</fix>
</trkpt>
<trkpt lat="33.8098523" lon="-118.3939412">
  <ele>-9.481</ele>
  <time>2026-09-01T01:18:33Z</time>
  <course>187.43</course>
  <speed>1.4016062214473792</speed>
  <fix>3d</fix>
</trkpt>
<trkpt lat="33.8097339" lon="-118.3939472">
  <ele>-10.53</ele>
  <time>2026-09-01T01:18:33Z</time>
  <course>187.34</course>
  <speed>1.61</speed>
  <fix>3d</fix>
</trkpt>
<trkpt lat="33.8098511" lon="-118.3939414">
  <ele>-9.466</ele>
  <time>2026-09-01T01:18:33Z</time>
  <course>187.44</course>
  <speed>1.2192620719107112</speed>
  <fix>3d</fix>
</trkpt>
<trkpt lat="33.8097339" lon="-118.3939472">
  <ele>-10.53</ele>
  <time>2026-09-01T01:18:33Z</time>
  <course>187.34</course>
  <speed>1.61</speed>
  <fix>3d</fix>
</trkpt>
<trkpt lat="33.8098501" lon="-118.3939416">
  <ele>-9.428</ele>
  <time>2026-09-01T01:18:33Z</time>
  <course>187.44</course>
  <speed>1.067941945987702</speed>
  <fix>3d</fix>
</trkpt>
<trkpt lat="33.8097314" lon="-118.3939454">
  <ele>-10.53</ele>
  <time>2026-09-01T01:18:33Z</time>
  <course>187.35</course>
  <speed>1.33</speed>
  <fix>3d</fix>
</trkpt>
<trkpt lat="33.8098501" lon="-118.3939416">
  <ele>-9.427</ele>
  <time>2026-09-01T01:18:33Z</time>
  <course>187.44</course>
  <speed>1.0580170130957252</speed>
  <fix>3d</fix>
</trkpt>
<trkpt lat="33.8098492" lon="-118.3939417">
  <ele>-9.37</ele>
  <time>2026-09-01T01:18:33Z</time>
  <course>187.44</course>
  <speed>0.9166242414424789</speed>
  <fix>3d</fix>
</trkpt>
<trkpt lat="33.8097314" lon="-118.3939454">
  <ele>-10.53</ele>
  <time>2026-09-01T01:18:33Z</time>
  <course>187.35</course>
  <speed>1.33</speed>
  <fix>3d</fix>
</trkpt>
<trkpt lat="33.8098492" lon="-118.3939417">
  <ele>-9.368</ele>
  <time>2026-09-01T01:18:33Z</time>
  <course>187.44</course>
  <speed>0.906697303403953</speed>
  <fix>3d</fix>
</trkpt>
<trkpt lat="33.8098485" lon="-118.3939418">
  <ele>-9.293</ele>
  <time>2026-09-01T01:18:33Z</time>
  <course>187.45</course>
  <speed>0.7764663547121665</speed>
  <fix>3d</fix>
</trkpt>
<trkpt lat="33.8097296" lon="-118.3939436">
  <ele>-10.47</ele>
  <time>2026-09-01T01:18:33Z</time>
  <course>187.35</course>
  <speed>1.01</speed>
  <fix>3d</fix>
</trkpt>
<trkpt lat="33.8098484" lon="-118.3939418">
  <ele>-9.29</ele>
  <time>2026-09-01T01:18:33Z</time>
  <course>187.45</course>
  <speed>0.7764663547121665</speed>
  <fix>3d</fix>
</trkpt>
<trkpt lat="33.8098478" lon="-118.3939419">
  <ele>-9.195</ele>
  <time>2026-09-01T01:18:33Z</time>
  <course>187.45</course>
  <speed>0.6747592163134936</speed>
  <fix>3d</fix>
</trkpt>
<trkpt lat="33.8097296" lon="-118.3939436">
  <ele>-10.47</ele>
  <time>2026-09-01T01:18:33Z</time>
  <course>187.35</course>
  <speed>1.01</speed>
  <fix>3d</fix>
</trkpt>
<trkpt lat="33.8098478" lon="-118.393942">
  <ele>-9.189</ele>
  <time>2026-09-01T01:18:33Z</time>
  <course>187.45</course>
  <speed>0.6747592163134936</speed>
  <fix>3d</fix>
</trkpt>
<trkpt lat="33.8098472" lon="-118.393942">
  <ele>-9.077</ele>
  <time>2026-09-01T01:18:33Z</time>
  <course>187.45</course>
  <speed>0.6040695324215583</speed>
  <fix>3d</fix>
</trkpt>
<trkpt lat="33.8097285" lon="-118.3939418">
  <ele>-10.33</ele>
  <time>2026-09-01T01:18:33Z</time>
  <course>187.32</course>
  <speed>0.76</speed>
  <fix>3d</fix>
</trkpt>
<trkpt lat="33.8098472" lon="-118.393942">
  <ele>-9.074</ele>
  <time>2026-09-01T01:18:33Z</time>
  <course>187.45</course>
  <speed>0.6040695324215583</speed>
  <fix>3d</fix>
</trkpt>
<trkpt lat="33.8098467" lon="-118.3939421">
  <ele>-8.952</ele>
  <time>2026-09-01T01:18:33Z</time>
  <course>187.44</course>
  <speed>0.5445181356024793</speed>
  <fix>3d</fix>
</trkpt>
<trkpt lat="33.8097285" lon="-118.3939418">
  <ele>-10.33</ele>
  <time>2026-09-01T01:18:33Z</time>
  <course>187.32</course>
  <speed>0.76</speed>
  <fix>3d</fix>
</trkpt>
<trkpt lat="33.8098467" lon="-118.3939421">
  <ele>-8.942</ele>
  <time>2026-09-01T01:18:33Z</time>
  <course>187.44</course>
  <speed>0.5445181356024793</speed>
  <fix>3d</fix>
</trkpt>
<trkpt lat="33.8098462" lon="-118.3939422">
  <ele>-8.824</ele>
  <time>2026-09-01T01:18:33Z</time>
  <course>187.43</course>
  <speed>0.4936598018878993</speed>
  <fix>3d</fix>
</trkpt>
<trkpt lat="33.8097279" lon="-118.3939399">
  <ele>-10.14</ele>
  <time>2026-09-01T01:18:33Z</time>
  <course>187.31</course>
  <speed>0.59</speed>
  <fix>3d</fix>
</trkpt>
<trkpt lat="33.8098462" lon="-118.3939422">
  <ele>-8.817</ele>
  <time>2026-09-01T01:18:33Z</time>
  <course>187.43</course>
  <speed>0.4936598018878993</speed>
  <fix>3d</fix>
</trkpt>
<trkpt lat="33.8098458" lon="-118.3939423">
  <ele>-8.695</ele>
  <time>2026-09-01T01:18:33Z</time>
  <course>187.42</course>
  <speed>0.4428317965096906</speed>
  <fix>3d</fix>
</trkpt>
<trkpt lat="33.8097279" lon="-118.3939399">
  <ele>-10.14</ele>
  <time>2026-09-01T01:18:33Z</time>
  <course>187.31</course>
  <speed>0.59</speed>
  <fix>3d</fix>
</trkpt>
<trkpt lat="33.8098458" lon="-118.3939423">
  <ele>-8.691</ele>
  <time>2026-09-01T01:18:33Z</time>
  <course>187.41</course>
  <speed>0.4428317965096906</speed>
  <fix>3d</fix>
</trkpt>
<trkpt lat="33.8098454" lon="-118.3939423">
  <ele>-8.566</ele>
  <time>2026-09-01T01:18:33Z</time>
  <course>187.39</course>
  <speed>0.40311288741492746</speed>
  <fix>3d</fix>
</trkpt>
<trkpt lat="33.8097278" lon="-118.3939381">
  <ele>-9.9</ele>
  <time>2026-09-01T01:18:33Z</time>
  <course>187.31</course>
  <speed>0.47</speed>
  <fix>3d</fix>
</trkpt>
<trkpt lat="33.8098454" lon="-118.3939423">
  <ele>-8.562</ele>
  <time>2026-09-01T01:18:33Z</time>
  <course>187.39</course>
  <speed>0.40311288741492746</speed>
  <fix>3d</fix>
</trkpt>
<trkpt lat="33.8098451" lon="-118.3939424">
  <ele>-8.435</ele>
  <time>2026-09-01T01:18:33Z</time>
  <course>187.37</course>
  <speed>0.3622154055254967</speed>
  <fix>3d</fix>
</trkpt>
<trkpt lat="33.8097278" lon="-118.3939381">
  <ele>-9.9</ele>
  <time>2026-09-01T01:18:33Z</time>
  <course>187.31</course>
  <speed>0.47</speed>
  <fix>3d</fix>
</trkpt>
<trkpt lat="33.8098451" lon="-118.3939424">
  <ele>-8.431</ele>
  <time>2026-09-01T01:18:33Z</time>
  <course>187.37</course>
  <speed>0.3622154055254967</speed>
  <fix>3d</fix>
</trkpt>
<trkpt lat="33.8098448" lon="-118.3939424">
  <ele>-8.303</ele>
  <time>2026-09-01T01:18:33Z</time>
  <course>187.33</course>
  <speed>0.32249030993194194</speed>
  <fix>3d</fix>
</trkpt>
<trkpt lat="33.809728" lon="-118.3939365">
  <ele>-9.67</ele>
  <time>2026-09-01T01:18:33Z</time>
  <course>187.32</course>
  <speed>0.38</speed>
  <fix>3d</fix>
</trkpt>
<trkpt lat="33.8098448" lon="-118.3939424">
  <ele>-8.299</ele>
  <time>2026-09-01T01:18:33Z</time>
  <course>187.33</course>
  <speed>0.32249030993194194</speed>
  <fix>3d</fix>
</trkpt>
<trkpt lat="33.8098445" lon="-118.3939425">
  <ele>-8.172</ele>
  <time>2026-09-01T01:18:33Z</time>
  <course>187.3</course>
  <speed>0.29274562336608895</speed>
  <fix>3d</fix>
</trkpt>
<trkpt lat="33.809728" lon="-118.3939365">
  <ele>-9.67</ele>
  <time>2026-09-01T01:18:33Z</time>
  <course>187.32</course>
  <speed>0.38</speed>
  <fix>3d</fix>
</trkpt>
<trkpt lat="33.8098445" lon="-118.3939425">
  <ele>-8.168</ele>
  <time>2026-09-01T01:18:33Z</time>
  <course>187.3</course>
  <speed>0.29274562336608895</speed>
  <fix>3d</fix>
</trkpt>
<trkpt lat="33.8098443" lon="-118.3939425">
  <ele>-8.042</ele>
  <time>2026-09-01T01:18:33Z</time>
  <course>187.25</course>
  <speed>0.261725046566048</speed>
  <fix>3d</fix>
</trkpt>
<trkpt lat="33.8097284" lon="-118.3939348">
  <ele>-9.44</ele>
  <time>2026-09-01T01:18:33Z</time>
  <course>187.36</course>
  <speed>0.31</speed>
  <fix>3d</fix>
</trkpt>
<trkpt lat="33.8098443" lon="-118.3939425">
  <ele>-8.039</ele>
  <time>2026-09-01T01:18:33Z</time>
  <course>187.25</course>
  <speed>0.261725046566048</speed>
  <fix>3d</fix>
</trkpt>
<trkpt lat="33.809844" lon="-118.3939426">
  <ele>-7.912</ele>
  <time>2026-09-01T01:18:33Z</time>
  <course>187.21</course>
  <speed>0.23194827009486402</speed>
  <fix>3d</fix>
</trkpt>
<trkpt lat="33.8097284" lon="-118.3939348">
  <ele>-9.44</ele>
  <time>2026-09-01T01:18:33Z</time>
  <course>187.36</course>
  <speed>0.31</speed>
  <fix>3d</fix>
</trkpt>
<trkpt lat="33.809844" lon="-118.3939426">
  <ele>-7.909</ele>
  <time>2026-09-01T01:18:33Z</time>
  <course>187.21</course>
  <speed>0.23194827009486402</speed>
  <fix>3d</fix>
</trkpt>
<trkpt lat="33.8098438" lon="-118.3939426">
  <ele>-7.783</ele>
  <time>2026-09-01T01:18:33Z</time>
  <course>187.16</course>
  <speed>0.21213203435596426</speed>
  <fix>3d</fix>
</trkpt>
<trkpt lat="33.8097291" lon="-118.3939333">
  <ele>-9.2</ele>
  <time>2026-09-01T01:18:33Z</time>
  <course>187.42</course>
  <speed>0.25</speed>
  <fix>3d</fix>
</trkpt>
<trkpt lat="33.8098438" lon="-118.3939426">
  <ele>-7.78</ele>
  <time>2026-09-01T01:18:33Z</time>
  <course>187.16</course>
  <speed>0.21213203435596426</speed>
  <fix>3d</fix>
</trkpt>
<trkpt lat="33.8098437" lon="-118.3939426">
  <ele>-7.654</ele>
  <time>2026-09-01T01:18:33Z</time>
  <course>187.11</course>
  <speed>0.191049731745428</speed>
  <fix>3d</fix>
</trkpt>
<trkpt lat="33.8097291" lon="-118.3939333">
  <ele>-9.2</ele>
  <time>2026-09-01T01:18:33Z</time>
  <course>187.42</course>
  <speed>0.25</speed>
  <fix>3d</fix>
</trkpt>
<trkpt lat="33.8098437" lon="-118.3939426">
  <ele>-7.651</ele>
  <time>2026-09-01T01:18:33Z</time>
  <course>187.11</course>
  <speed>0.191049731745428</speed>
  <fix>3d</fix>
</trkpt>
<trkpt lat="33.8098435" lon="-118.3939426">
  <ele>-7.524</ele>
  <time>2026-09-01T01:18:33Z</time>
  <course>187.08</course>
  <speed>0.1711724276862369</speed>
  <fix>3d</fix>
</trkpt>
<trkpt lat="33.8097301" lon="-118.393932">
  <ele>-8.97</ele>
  <time>2026-09-01T01:18:33Z</time>
  <course>187.53</course>
  <speed>0.2</speed>
  <fix>3d</fix>
</trkpt>
<trkpt lat="33.8098435" lon="-118.3939426">
  <ele>-7.515</ele>
  <time>2026-09-01T01:18:33Z</time>
  <course>187.09</course>
  <speed>0.1711724276862369</speed>
  <fix>3d</fix>
</trkpt>
<trkpt lat="33.8098433" lon="-118.3939427">
  <ele>-7.396</ele>
  <time>2026-09-01T01:18:33Z</time>
  <course>187.18</course>
  <speed>0.15132745950421556</speed>
  <fix>3d</fix>
</trkpt>
<trkpt lat="33.8097301" lon="-118.393932">
  <ele>-8.97</ele>
  <time>2026-09-01T01:18:33Z</time>
  <course>187.53</course>
  <speed>0.2</speed>
  <fix>3d</fix>
</trkpt>
<trkpt lat="33.8098433" lon="-118.3939427">
  <ele>-7.39</ele>
  <time>2026-09-01T01:18:33Z</time>
  <course>187.19</course>
  <speed>0.15132745950421556</speed>
  <fix>3d</fix>
</trkpt>
<trkpt lat="33.8098432" lon="-118.3939427">
  <ele>-7.269</ele>
  <time>2026-09-01T01:18:33Z</time>
  <course>187.34</course>
  <speed>0.140356688476182</speed>
  <fix>3d</fix>
</trkpt>
<trkpt lat="33.8097312" lon="-118.3939308">
  <ele>-8.74</ele>
  <time>2026-09-01T01:18:33Z</time>
  <course>187.04</course>
  <speed>0.16</speed>
  <fix>3d</fix>
</trkpt>
<trkpt lat="33.8098432" lon="-118.3939427">
  <ele>-7.266</ele>
  <time>2026-09-01T01:18:33Z</time>
  <course>187.35</course>
  <speed>0.130384048104053</speed>
  <fix>3d</fix>
</trkpt>
<trkpt lat="33.8098431" lon="-118.3939427">
  <ele>-7.142</ele>
  <time>2026-09-01T01:18:33Z</time>
  <course>187.52</course>
  <speed>0.12041594578792296</speed>
  <fix>3d</fix>
</trkpt>
<trkpt lat="33.8097312" lon="-118.3939308">
  <ele>-8.74</ele>
  <time>2026-09-01T01:18:33Z</time>
  <course>187.04</course>
  <speed>0.16</speed>
  <fix>3d</fix>
</trkpt>
<trkpt lat="33.8098431" lon="-118.3939427">
  <ele>-7.139</ele>
  <time>2026-09-01T01:18:33Z</time>
  <course>187.52</course>
  <speed>0.12041594578792296</speed>
  <fix>3d</fix>
</trkpt>
<trkpt lat="33.809843" lon="-118.3939427">
  <ele>-7.015</ele>
  <time>2026-09-01T01:18:33Z</time>
  <course>187.68</course>
  <speed>0.1004987562112089</speed>
  <fix>3d</fix>
</trkpt>
<trkpt lat="33.8097325" lon="-118.3939298">
  <ele>-8.5</ele>
  <time>2026-09-01T01:18:33Z</time>
  <course>186.12</course>
  <speed>0.13</speed>
  <fix>3d</fix>
</trkpt>
<trkpt lat="33.809843" lon="-118.3939427">
  <ele>-7.012</ele>
  <time>2026-09-01T01:18:33Z</time>
  <course>187.69</course>
  <speed>0.1004987562112089</speed>
  <fix>3d</fix>
</trkpt>
<trkpt lat="33.8098429" lon="-118.3939427">
  <ele>-6.888</ele>
  <time>2026-09-01T01:18:33Z</time>
  <course>187.81</course>
  <speed>0.08062257748298549</speed>
  <fix>3d</fix>
</trkpt>
<trkpt lat="33.8097325" lon="-118.3939298">
  <ele>-8.5</ele>
  <time>2026-09-01T01:18:33Z</time>
  <course>186.12</course>
  <speed>0.13</speed>
  <fix>3d</fix>
</trkpt>
<trkpt lat="33.8098429" lon="-118.3939427">
  <ele>-6.884</ele>
  <time>2026-09-01T01:18:33Z</time>
  <course>187.81</course>
  <speed>0.08062257748298549</speed>
  <fix>3d</fix>
</trkpt>
<trkpt lat="33.8098428" lon="-118.3939428">
  <ele>-6.762</ele>
  <time>2026-09-01T01:18:33Z</time>
  <course>187.9</course>
  <speed>0.06082762530298219</speed>
  <fix>3d</fix>
</trkpt>
<trkpt lat="33.809734" lon="-118.3939289">
  <ele>-8.27</ele>
  <time>2026-09-01T01:18:33Z</time>
  <course>185.81</course>
  <speed>0.09</speed>
  <fix>3d</fix>
</trkpt>
<trkpt lat="33.8098428" lon="-118.3939428">
  <ele>-6.757</ele>
  <time>2026-09-01T01:18:33Z</time>
  <course>187.9</course>
  <speed>0.06082762530298219</speed>
  <fix>3d</fix>
</trkpt>
<trkpt lat="33.8098428" lon="-118.3939428">
  <ele>-6.635</ele>
  <time>2026-09-01T01:18:33Z</time>
  <course>187.95</course>
  <speed>0.05</speed>
  <fix>3d</fix>
</trkpt>
<trkpt lat="33.809734" lon="-118.3939289">
  <ele>-8.27</ele>
  <time>2026-09-01T01:18:33Z</time>
  <course>185.81</course>
  <speed>0.09</speed>
  <fix>3d</fix>
</trkpt>
<trkpt lat="33.8098428" lon="-118.3939428">
  <ele>-6.631</ele>
  <time>2026-09-01T01:18:33Z</time>
  <course>187.95</course>
  <speed>0.04</speed>
  <fix>3d</fix>
</trkpt>
<trkpt lat="33.8098428" lon="-118.3939428">
  <ele>-6.508</ele>
  <time>2026-09-01T01:18:33Z</time>
  <course>187.98</course>
  <speed>0.03</speed>
  <fix>3d</fix>
</trkpt>
<trkpt lat="33.8097355" lon="-118.3939283">
  <ele>-8.04</ele>
  <time>2026-09-01T01:18:33Z</time>
  <course>185.85</course>
  <speed>0.06</speed>
  <fix>3d</fix>
</trkpt>
<trkpt lat="33.8098428" lon="-118.3939428">
  <ele>-6.504</ele>
  <time>2026-09-01T01:18:33Z</time>
  <course>187.98</course>
  <speed>0.03</speed>
  <fix>3d</fix>
</trkpt>
<trkpt lat="33.8098427" lon="-118.3939428">
  <ele>-6.38</ele>
  <time>2026-09-01T01:18:33Z</time>
  <course>187.99</course>
  <speed>0.02</speed>
  <fix>3d</fix>
</trkpt>
<trkpt lat="33.8097355" lon="-118.3939283">
  <ele>-8.04</ele>
  <time>2026-09-01T01:18:33Z</time>
  <course>185.85</course>
  <speed>0.06</speed>
  <fix>3d</fix>
</trkpt>
<trkpt lat="33.8098427" lon="-118.3939428">
  <ele>-6.376</ele>
  <time>2026-09-01T01:18:33Z</time>
  <course>187.99</course>
  <speed>0.02</speed>
  <fix>3d</fix>
</trkpt>
<trkpt lat="33.8098427" lon="-118.3939428">
  <ele>-6.252</ele>
  <time>2026-09-01T01:18:33Z</time>
  <course>188.0</course>
  <speed>0.0</speed>
  <fix>3d</fix>
</trkpt>
<trkpt lat="33.8097372" lon="-118.3939278">
  <ele>-7.81</ele>
  <time>2026-09-01T01:18:33Z</time>
  <course>185.44</course>
  <speed>0.03</speed>
  <fix>3d</fix>
</trkpt>
<trkpt lat="33.8098427" lon="-118.3939428">
  <ele>-6.248</ele>
  <time>2026-09-01T01:18:33Z</time>
  <course>188.0</course>
  <speed>0.0</speed>
  <fix>3d</fix>
</trkpt>
<trkpt lat="33.8098427" lon="-118.3939428">
  <ele>-6.124</ele>
  <time>2026-09-01T01:18:33Z</time>
  <course>188.01</course>
  <speed>0.0</speed>
  <fix>3d</fix>
</trkpt>
<trkpt lat="33.8097372" lon="-118.3939278">
  <ele>-7.81</ele>
  <time>2026-09-01T01:18:33Z</time>
  <course>185.44</course>
  <speed>0.03</speed>
  <fix>3d</fix>
</trkpt>
<trkpt lat="33.8098427" lon="-118.3939428">
  <ele>-6.12</ele>
  <time>2026-09-01T01:18:33Z</time>
  <course>188.01</course>
  <speed>0.0</speed>
  <fix>3d</fix>
</trkpt>
<trkpt lat="33.8098427" lon="-118.3939428">
  <ele>-5.996</ele>
  <time>2026-09-01T01:18:33Z</time>
  <course>188.02</course>
  <speed>0.01</speed>
  <fix>3d</fix>
</trkpt>
<trkpt lat="33.809739" lon="-118.3939276">
  <ele>-7.57</ele>
  <time>2026-09-01T01:18:33Z</time>
  <course>177.35</course>
  <speed>0.0</speed>
  <fix>3d</fix>
</trkpt>
<trkpt lat="33.8098427" lon="-118.3939428">
  <ele>-5.992</ele>
  <time>2026-09-01T01:18:33Z</time>
  <course>188.02</course>
  <speed>0.01</speed>
  <fix>3d</fix>
</trkpt>
<trkpt lat="33.8098427" lon="-118.3939428">
  <ele>-5.867</ele>
  <time>2026-09-01T01:18:33Z</time>
  <course>188.04</course>
  <speed>0.02</speed>
  <fix>3d</fix>
</trkpt>
<trkpt lat="33.809739" lon="-118.3939276">
  <ele>-7.57</ele>
  <time>2026-09-01T01:18:33Z</time>
  <course>177.35</course>
  <speed>0.0</speed>
  <fix>3d</fix>
</trkpt>
<trkpt lat="33.8098427" lon="-118.3939428">
  <ele>-5.864</ele>
  <time>2026-09-01T01:18:33Z</time>
  <course>188.04</course>
  <speed>0.02</speed>
  <fix>3d</fix>
</trkpt>
<trkpt lat="33.8098428" lon="-118.3939428">
  <ele>-5.738</ele>
  <time>2026-09-01T01:18:33Z</time>
  <course>188.05</course>
  <speed>0.02</speed>
  <fix>3d</fix>
</trkpt>
<trkpt lat="33.8097408" lon="-118.3939275">
  <ele>-7.34</ele>
  <time>2026-09-01T01:18:33Z</time>
  <course>12.06</course>
  <speed>0.01</speed>
  <fix>3d</fix>
</trkpt>
<trkpt lat="33.8098428" lon="-118.3939428">
  <ele>-5.735</ele>
  <time>2026-09-01T01:18:33Z</time>
  <course>188.05</course>
  <speed>0.02</speed>
  <fix>3d</fix>
</trkpt>
<trkpt lat="33.8098428" lon="-118.3939428">
  <ele>-5.609</ele>
  <time>2026-09-01T01:18:33Z</time>
  <course>188.07</course>
  <speed>0.03</speed>
  <fix>3d</fix>
</trkpt>
<trkpt lat="33.8097408" lon="-118.3939275">
  <ele>-7.34</ele>
  <time>2026-09-01T01:18:33Z</time>
  <course>12.06</course>
  <speed>0.01</speed>
  <fix>3d</fix>
</trkpt>
<trkpt lat="33.8098428" lon="-118.3939428">
  <ele>-5.605</ele>
  <time>2026-09-01T01:18:33Z</time>
  <course>188.07</course>
  <speed>0.03</speed>
  <fix>3d</fix>
</trkpt>
<trkpt lat="33.8098428" lon="-118.3939428">
  <ele>-5.479</ele>
  <time>2026-09-01T01:18:33Z</time>
  <course>188.09</course>
  <speed>0.03</speed>
  <fix>3d</fix>
</trkpt>
<trkpt lat="33.8097426" lon="-118.3939277">
  <ele>-7.11</ele>
  <time>2026-09-01T01:18:33Z</time>
  <course>10.09</course>
  <speed>0.02</speed>
  <fix>3d</fix>
</trkpt>
<trkpt lat="33.8098428" lon="-118.3939428">
  <ele>-5.476</ele>
  <time>2026-09-01T01:18:33Z</time>
  <course>188.09</course>
  <speed>0.03</speed>
  <fix>3d</fix>
</trkpt>
<trkpt lat="33.8098429" lon="-118.3939428">
  <ele>-5.351</ele>
  <time>2026-09-01T01:18:33Z</time>
  <course>188.11</course>
  <speed>0.03</speed>
  <fix>3d</fix>
</trkpt>
<trkpt lat="33.8097426" lon="-118.3939277">
  <ele>-7.11</ele>
  <time>2026-09-01T01:18:33Z</time>
  <course>10.09</course>
  <speed>0.02</speed>
  <fix>3d</fix>
</trkpt>
<trkpt lat="33.8098429" lon="-118.3939428">
  <ele>-5.349</ele>
  <time>2026-09-01T01:18:33Z</time>
  <course>188.11</course>
  <speed>0.03</speed>
  <fix>3d</fix>
</trkpt>
<trkpt lat="33.8098429" lon="-118.3939428">
  <ele>-5.223</ele>
  <time>2026-09-01T01:18:33Z</time>
  <course>188.14</course>
  <speed>0.03</speed>
  <fix>3d</fix>
</trkpt>
<trkpt lat="33.8097444" lon="-118.3939281">
  <ele>-6.87</ele>
  <time>2026-09-01T01:18:33Z</time>
  <course>9.7</course>
  <speed>0.03</speed>
  <fix>3d</fix>
</trkpt>
<trkpt lat="33.8098429" lon="-118.3939428">
  <ele>-5.221</ele>
  <time>2026-09-01T01:18:33Z</time>
  <course>188.14</course>
  <speed>0.03</speed>
  <fix>3d</fix>
</trkpt>
<trkpt lat="33.8098429" lon="-118.3939428">
  <ele>-5.095</ele>
  <time>2026-09-01T01:18:33Z</time>
  <course>188.17</course>
  <speed>0.03</speed>
  <fix>3d</fix>
</trkpt>
<trkpt lat="33.8097444" lon="-118.3939281">
  <ele>-6.87</ele>
  <time>2026-09-01T01:18:33Z</time>
  <course>9.7</course>
  <speed>0.03</speed>
  <fix>3d</fix>
</trkpt>
<trkpt lat="33.8098429" lon="-118.3939428">
  <ele>-5.093</ele>
  <time>2026-09-01T01:18:33Z</time>
  <course>188.17</course>
  <speed>0.03</speed>
  <fix>3d</fix>
</trkpt>
<trkpt lat="33.809843" lon="-118.3939428">
  <ele>-4.967</ele>
  <time>2026-09-01T01:18:33Z</time>
  <course>188.19</course>
  <speed>0.03</speed>
  <fix>3d</fix>
</trkpt>
<trkpt lat="33.8097461" lon="-118.3939287">
  <ele>-6.64</ele>
  <time>2026-09-01T01:18:33Z</time>
  <course>9.69</course>
  <speed>0.03</speed>
  <fix>3d</fix>
</trkpt>
<trkpt lat="33.809843" lon="-118.3939428">
  <ele>-4.965</ele>
  <time>2026-09-01T01:18:33Z</time>
  <course>188.19</course>
  <speed>0.03</speed>
  <fix>3d</fix>
</trkpt>
<trkpt lat="33.809843" lon="-118.3939428">
  <ele>-4.84</ele>
  <time>2026-09-01T01:18:33Z</time>
  <course>188.21</course>
  <speed>0.03</speed>
  <fix>3d</fix>
</trkpt>
<trkpt lat="33.8097461" lon="-118.3939287">
  <ele>-6.64</ele>
  <time>2026-09-01T01:18:33Z</time>
  <course>9.69</course>
  <speed>0.03</speed>
  <fix>3d</fix>
</trkpt>
<trkpt lat="33.809843" lon="-118.3939428">
  <ele>-4.837</ele>
  <time>2026-09-01T01:18:33Z</time>
  <course>188.21</course>
  <speed>0.03</speed>
  <fix>3d</fix>
</trkpt>
<trkpt lat="33.809843" lon="-118.3939428">
  <ele>-4.714</ele>
  <time>2026-09-01T01:18:33Z</time>
  <course>188.24</course>
  <speed>0.03</speed>
  <fix>3d</fix>
</trkpt>
<trkpt lat="33.8097479" lon="-118.3939296">
  <ele>-6.41</ele>
  <time>2026-09-01T01:18:33Z</time>
  <course>9.73</course>
  <speed>0.03</speed>
  <fix>3d</fix>
</trkpt>
<trkpt lat="33.809843" lon="-118.3939428">
  <ele>-4.711</ele>
  <time>2026-09-01T01:18:34Z</time>
  <course>188.24</course>
  <speed>0.03</speed>
  <fix>3d</fix>
</trkpt>
<trkpt lat="33.8098431" lon="-118.3939428">
  <ele>-4.588</ele>
  <time>2026-09-01T01:18:34Z</time>
  <course>188.26</course>
  <speed>0.03</speed>
  <fix>3d</fix>
</trkpt>
<trkpt lat="33.8097479" lon="-118.3939296">
  <ele>-6.41</ele>
  <time>2026-09-01T01:18:34Z</time>
  <course>9.73</course>
  <speed>0.03</speed>
  <fix>3d</fix>
</trkpt>
<trkpt lat="33.8098431" lon="-118.3939428">
  <ele>-4.585</ele>
  <time>2026-09-01T01:18:34Z</time>
  <course>188.26</course>
  <speed>0.03</speed>
  <fix>3d</fix>
</trkpt>
<trkpt lat="33.8098431" lon="-118.3939428">
  <ele>-4.463</ele>
  <time>2026-09-01T01:18:34Z</time>
  <course>188.28</course>
  <speed>0.03</speed>
  <fix>3d</fix>
</trkpt>
<trkpt lat="33.8097495" lon="-118.3939306">
  <ele>-6.17</ele>
  <time>2026-09-01T01:18:34Z</time>
  <course>9.77</course>
  <speed>0.03</speed>
  <fix>3d</fix>
</trkpt>
<trkpt lat="33.8098431" lon="-118.3939428">
  <ele>-4.456</ele>
  <time>2026-09-01T01:18:34Z</time>
  <course>188.28</course>
  <speed>0.03</speed>
  <fix>3d</fix>
</trkpt>
<trkpt lat="33.8098431" lon="-118.3939427">
  <ele>-4.338</ele>
  <time>2026-09-01T01:18:34Z</time>
  <course>188.3</course>
  <speed>0.03</speed>
  <fix>3d</fix>
</trkpt>
<trkpt lat="33.8097495" lon="-118.3939306">
  <ele>-6.17</ele>
  <time>2026-09-01T01:18:34Z</time>
  <course>9.77</course>
  <speed>0.03</speed>
  <fix>3d</fix>
</trkpt>
<trkpt lat="33.8098431" lon="-118.3939427">
  <ele>-4.333</ele>
  <time>2026-09-01T01:18:34Z</time>
  <course>188.3</course>
  <speed>0.03</speed>
  <fix>3d</fix>
</trkpt>
<trkpt lat="33.8098432" lon="-118.3939427">
  <ele>-4.211</ele>
  <time>2026-09-01T01:18:34Z</time>
  <course>188.32</course>
  <speed>0.03</speed>
  <fix>3d</fix>
</trkpt>
<trkpt lat="33.809751" lon="-118.3939318">
  <ele>-5.94</ele>
  <time>2026-09-01T01:18:34Z</time>
  <course>9.8</course>
  <speed>0.03</speed>
  <fix>3d</fix>
</trkpt>
<trkpt lat="33.8098432" lon="-118.3939427">
  <ele>-4.207</ele>
  <time>2026-09-01T01:18:34Z</time>
  <course>188.33</course>
  <speed>0.03</speed>
  <fix>3d</fix>
</trkpt>
<trkpt lat="33.8098432" lon="-118.3939427">
  <ele>-4.086</ele>
  <time>2026-09-01T01:18:34Z</time>
  <course>188.35</course>
  <speed>0.03</speed>
  <fix>3d</fix>
</trkpt>
<trkpt lat="33.809751" lon="-118.3939318">
  <ele>-5.94</ele>
  <time>2026-09-01T01:18:34Z</time>
  <course>9.8</course>
  <speed>0.03</speed>
  <fix>3d</fix>
</trkpt>
<trkpt lat="33.8098432" lon="-118.3939427">
  <ele>-4.081</ele>
  <time>2026-09-01T01:18:34Z</time>
  <course>188.35</course>
  <speed>0.03</speed>
  <fix>3d</fix>
</trkpt>
<trkpt lat="33.8098432" lon="-118.3939427">
  <ele>-3.96</ele>
  <time>2026-09-01T01:18:34Z</time>
  <course>188.37</course>
  <speed>0.03</speed>
  <fix>3d</fix>
</trkpt>
<trkpt lat="33.8097525" lon="-118.3939331">
  <ele>-5.71</ele>
  <time>2026-09-01T01:18:34Z</time>
  <course>9.82</course>
  <speed>0.03</speed>
  <fix>3d</fix>
</trkpt>
<trkpt lat="33.8098432" lon="-118.3939427">
  <ele>-3.956</ele>
  <time>2026-09-01T01:18:34Z</time>
  <course>188.37</course>
  <speed>0.03</speed>
  <fix>3d</fix>
</trkpt>
<trkpt lat="33.8098433" lon="-118.3939427">
  <ele>-3.836</ele>
  <time>2026-09-01T01:18:34Z</time>
  <course>188.39</course>
  <speed>0.03</speed>
  <fix>3d</fix>
</trkpt>
<trkpt lat="33.8097525" lon="-118.3939331">
  <ele>-5.71</ele>
  <time>2026-09-01T01:18:34Z</time>
  <course>9.82</course>
  <speed>0.03</speed>
  <fix>3d</fix>
</trkpt>
<trkpt lat="33.8098433" lon="-118.3939427">
  <ele>-3.831</ele>
  <time>2026-09-01T01:18:34Z</time>
  <course>188.39</course>
  <speed>0.03</speed>
  <fix>3d</fix>
</trkpt>
<trkpt lat="33.8098433" lon="-118.3939427">
  <ele>-3.709</ele>
  <time>2026-09-01T01:18:34Z</time>
  <course>188.41</course>
  <speed>0.03</speed>
  <fix>3d</fix>
</trkpt>
<trkpt lat="33.8097538" lon="-118.3939347">
  <ele>-5.47</ele>
  <time>2026-09-01T01:18:34Z</time>
  <course>9.85</course>
  <speed>0.03</speed>
  <fix>3d</fix>
</trkpt>
<trkpt lat="33.8098433" lon="-118.3939427">
  <ele>-3.706</ele>
  <time>2026-09-01T01:18:34Z</time>
  <course>188.41</course>
  <speed>0.03</speed>
  <fix>3d</fix>
</trkpt>
<trkpt lat="33.8098433" lon="-118.3939427">
  <ele>-3.584</ele>
  <time>2026-09-01T01:18:34Z</time>
  <course>188.43</course>
  <speed>0.03</speed>
  <fix>3d</fix>
</trkpt>
<trkpt lat="33.8097538" lon="-118.3939347">
  <ele>-5.47</ele>
  <time>2026-09-01T01:18:34Z</time>
  <course>9.85</course>
  <speed>0.03</speed>
  <fix>3d</fix>
</trkpt>
<trkpt lat="33.8098433" lon="-118.3939427">
  <ele>-3.581</ele>
  <time>2026-09-01T01:18:34Z</time>
  <course>188.44</course>
  <speed>0.03</speed>
  <fix>3d</fix>
</trkpt>
<trkpt lat="33.8098433" lon="-118.3939427">
  <ele>-3.459</ele>
  <time>2026-09-01T01:18:34Z</time>
  <course>188.46</course>
  <speed>0.03</speed>
  <fix>3d</fix>
</trkpt>
<trkpt lat="33.809755" lon="-118.3939363">
  <ele>-5.24</ele>
  <time>2026-09-01T01:18:34Z</time>
  <course>9.87</course>
  <speed>0.03</speed>
  <fix>3d</fix>
</trkpt>
<trkpt lat="33.8098433" lon="-118.3939427">
  <ele>-3.456</ele>
  <time>2026-09-01T01:18:34Z</time>
  <course>188.46</course>
  <speed>0.03</speed>
  <fix>3d</fix>
</trkpt>
<trkpt lat="33.8098434" lon="-118.3939427">
  <ele>-3.333</ele>
  <time>2026-09-01T01:18:34Z</time>
  <course>188.48</course>
  <speed>0.03</speed>
  <fix>3d</fix>
</trkpt>
<trkpt lat="33.809755" lon="-118.3939363">
  <ele>-5.24</ele>
  <time>2026-09-01T01:18:34Z</time>
  <course>9.87</course>
  <speed>0.03</speed>
  <fix>3d</fix>
</trkpt>
<trkpt lat="33.8098434" lon="-118.3939427">
  <ele>-3.33</ele>
  <time>2026-09-01T01:18:34Z</time>
  <course>188.48</course>
  <speed>0.03</speed>
  <fix>3d</fix>
</trkpt>
<trkpt lat="33.8098434" lon="-118.3939427">
  <ele>-3.208</ele>
  <time>2026-09-01T01:18:34Z</time>
  <course>188.5</course>
  <speed>0.03</speed>
  <fix>3d</fix>
</trkpt>
<trkpt lat="33.8097561" lon="-118.3939381">
  <ele>-5.01</ele>
  <time>2026-09-01T01:18:34Z</time>
  <course>9.88</course>
  <speed>0.03</speed>
  <fix>3d</fix>
</trkpt>
<trkpt lat="33.8098434" lon="-118.3939427">
  <ele>-3.205</ele>
  <time>2026-09-01T01:18:34Z</time>
  <course>188.5</course>
  <speed>0.03</speed>
  <fix>3d</fix>
</trkpt>
<trkpt lat="33.8098434" lon="-118.3939427">
  <ele>-3.082</ele>
  <time>2026-09-01T01:18:34Z</time>
  <course>188.52</course>
  <speed>0.03</speed>
  <fix>3d</fix>
</trkpt>
<trkpt lat="33.8097561" lon="-118.3939381">
  <ele>-5.01</ele>
  <time>2026-09-01T01:18:34Z</time>
  <course>9.88</course>
  <speed>0.03</speed>
  <fix>3d</fix>
</trkpt>
<trkpt lat="33.8098434" lon="-118.3939427">
  <ele>-3.079</ele>
  <time>2026-09-01T01:18:34Z</time>
  <course>188.52</course>
  <speed>0.03</speed>
  <fix>3d</fix>
</trkpt>
<trkpt lat="33.8098435" lon="-118.3939427">
  <ele>-2.957</ele>
  <time>2026-09-01T01:18:34Z</time>
  <course>188.54</course>
  <speed>0.03</speed>
  <fix>3d</fix>
</trkpt>
<trkpt lat="33.809757" lon="-118.3939401">
  <ele>-4.78</ele>
  <time>2026-09-01T01:18:34Z</time>
  <course>9.9</course>
  <speed>0.02</speed>
  <fix>3d</fix>
</trkpt>
<trkpt lat="33.8098435" lon="-118.3939427">
  <ele>-2.954</ele>
  <time>2026-09-01T01:18:34Z</time>
  <course>188.54</course>
  <speed>0.03</speed>
  <fix>3d</fix>
</trkpt>
<trkpt lat="33.8098435" lon="-118.3939427">
  <ele>-2.833</ele>
  <time>2026-09-01T01:18:34Z</time>
  <course>188.55</course>
  <speed>0.03</speed>
  <fix>3d</fix>
</trkpt>
<trkpt lat="33.809757" lon="-118.3939401">
  <ele>-4.78</ele>
  <time>2026-09-01T01:18:34Z</time>
  <course>9.9</course>
  <speed>0.02</speed>
  <fix>3d</fix>
</trkpt>
<trkpt lat="33.8098435" lon="-118.3939427">
  <ele>-2.83</ele>
  <time>2026-09-01T01:18:34Z</time>
  <course>188.55</course>
  <speed>0.03</speed>
  <fix>3d</fix>
</trkpt>
<trkpt lat="33.8098435" lon="-118.3939427">
  <ele>-2.71</ele>
  <time>2026-09-01T01:18:34Z</time>
  <course>188.52</course>
  <speed>0.02</speed>
  <fix>3d</fix>
</trkpt>
<trkpt lat="33.8097577" lon="-118.393942">
  <ele>-4.54</ele>
  <time>2026-09-01T01:18:34Z</time>
  <course>10.87</course>
  <speed>0.02</speed>
  <fix>3d</fix>
</trkpt>
<trkpt lat="33.8098435" lon="-118.3939427">
  <ele>-2.707</ele>
  <time>2026-09-01T01:18:34Z</time>
  <course>188.52</course>
  <speed>0.02</speed>
  <fix>3d</fix>
</trkpt>
<trkpt lat="33.8098435" lon="-118.3939427">
  <ele>-2.586</ele>
  <time>2026-09-01T01:18:34Z</time>
  <course>188.46</course>
  <speed>0.02</speed>
  <fix>3d</fix>
</trkpt>
<trkpt lat="33.8097577" lon="-118.393942">
  <ele>-4.54</ele>
  <time>2026-09-01T01:18:34Z</time>
  <course>10.87</course>
  <speed>0.02</speed>
  <fix>3d</fix>
</trkpt>
<trkpt lat="33.8098435" lon="-118.3939427">
  <ele>-2.584</ele>
  <time>2026-09-01T01:18:34Z</time>
  <course>188.46</course>
  <speed>0.02</speed>
  <fix>3d</fix>
</trkpt>
<trkpt lat="33.8098436" lon="-118.3939427">
  <ele>-2.461</ele>
  <time>2026-09-01T01:18:34Z</time>
  <course>188.37</course>
  <speed>0.02</speed>
  <fix>3d</fix>
</trkpt>
<trkpt lat="33.8097582" lon="-118.393944">
  <ele>-4.31</ele>
  <time>2026-09-01T01:18:34Z</time>
  <course>12.95</course>
  <speed>0.02</speed>
  <fix>3d</fix>
</trkpt>
<trkpt lat="33.8098436" lon="-118.3939427">
  <ele>-2.442</ele>
  <time>2026-09-01T01:18:34Z</time>
  <course>188.36</course>
  <speed>0.02</speed>
  <fix>3d</fix>
</trkpt>
<trkpt lat="33.8098436" lon="-118.3939427">
  <ele>-2.336</ele>
  <time>2026-09-01T01:18:34Z</time>
  <course>188.27</course>
  <speed>0.02</speed>
  <fix>3d</fix>
</trkpt>
<trkpt lat="33.8097582" lon="-118.393944">
  <ele>-4.31</ele>
  <time>2026-09-01T01:18:34Z</time>
  <course>12.95</course>
  <speed>0.02</speed>
  <fix>3d</fix>
</trkpt>
<trkpt lat="33.8098436" lon="-118.3939427">
  <ele>-2.333</ele>
  <time>2026-09-01T01:18:34Z</time>
  <course>188.27</course>
  <speed>0.02</speed>
  <fix>3d</fix>
</trkpt>
<trkpt lat="33.8098436" lon="-118.3939427">
  <ele>-2.209</ele>
  <time>2026-09-01T01:18:34Z</time>
  <course>188.15</course>
  <speed>0.02</speed>
  <fix>3d</fix>
</trkpt>
<trkpt lat="33.8097586" lon="-118.3939462">
  <ele>-4.08</ele>
  <time>2026-09-01T01:18:34Z</time>
  <course>15.29</course>
  <speed>0.02</speed>
  <fix>3d</fix>
</trkpt>
<trkpt lat="33.8098436" lon="-118.3939427">
  <ele>-2.206</ele>
  <time>2026-09-01T01:18:34Z</time>
  <course>188.15</course>
  <speed>0.02</speed>
  <fix>3d</fix>
</trkpt>
<trkpt lat="33.8098436" lon="-118.3939427">
  <ele>-2.084</ele>
  <time>2026-09-01T01:18:34Z</time>
  <course>188.03</course>
  <speed>0.02</speed>
  <fix>3d</fix>
</trkpt>
<trkpt lat="33.8097586" lon="-118.3939462">
  <ele>-4.08</ele>
  <time>2026-09-01T01:18:34Z</time>
  <course>15.29</course>
  <speed>0.02</speed>
  <fix>3d</fix>
</trkpt>
<trkpt lat="33.8098436" lon="-118.3939427">
  <ele>-2.08</ele>
  <time>2026-09-01T01:18:34Z</time>
  <course>188.02</course>
  <speed>0.02</speed>
  <fix>3d</fix>
</trkpt>
<trkpt lat="33.8098437" lon="-118.3939427">
  <ele>-1.959</ele>
  <time>2026-09-01T01:18:34Z</time>
  <course>187.9</course>
  <speed>0.02</speed>
  <fix>3d</fix>
</trkpt>
<trkpt lat="33.8097588" lon="-118.3939483">
  <ele>-3.84</ele>
  <time>2026-09-01T01:18:34Z</time>
  <course>17.13</course>
  <speed>0.02</speed>
  <fix>3d</fix>
</trkpt>
<trkpt lat="33.8098437" lon="-118.3939427">
  <ele>-1.956</ele>
  <time>2026-09-01T01:18:34Z</time>
  <course>187.89</course>
  <speed>0.02</speed>
  <fix>3d</fix>
</trkpt>
<trkpt lat="33.8098437" lon="-118.3939427">
  <ele>-1.836</ele>
  <time>2026-09-01T01:18:34Z</time>
  <course>187.76</course>
  <speed>0.02</speed>
  <fix>3d</fix>
</trkpt>
<trkpt lat="33.8097588" lon="-118.3939483">
  <ele>-3.84</ele>
  <time>2026-09-01T01:18:34Z</time>
  <course>17.13</course>
  <speed>0.02</speed>
  <fix>3d</fix>
</trkpt>
<trkpt lat="33.8098437" lon="-118.3939427">
  <ele>-1.833</ele>
  <time>2026-09-01T01:18:34Z</time>
  <course>187.76</course>
  <speed>0.02</speed>
  <fix>3d</fix>
</trkpt>
<trkpt lat="33.8098437" lon="-118.3939427">
  <ele>-1.715</ele>
  <time>2026-09-01T01:18:34Z</time>
  <course>187.63</course>
  <speed>0.02</speed>
  <fix>3d</fix>
</trkpt>
<trkpt lat="33.8097588" lon="-118.3939505">
  <ele>-3.61</ele>
  <time>2026-09-01T01:18:34Z</time>
  <course>18.53</course>
  <speed>0.02</speed>
  <fix>3d</fix>
</trkpt>
<trkpt lat="33.8098437" lon="-118.3939427">
  <ele>-1.711</ele>
  <time>2026-09-01T01:18:34Z</time>
  <course>187.62</course>
  <speed>0.02</speed>
  <fix>3d</fix>
</trkpt>
<trkpt lat="33.8098437" lon="-118.3939427">
  <ele>-1.594</ele>
  <time>2026-09-01T01:18:34Z</time>
  <course>187.49</course>
  <speed>0.02</speed>
  <fix>3d</fix>
</trkpt>
<trkpt lat="33.8097588" lon="-118.3939505">
  <ele>-3.61</ele>
  <time>2026-09-01T01:18:34Z</time>
  <course>18.53</course>
  <speed>0.02</speed>
  <fix>3d</fix>
</trkpt>
<trkpt lat="33.8098437" lon="-118.3939427">
  <ele>-1.588</ele>
  <time>2026-09-01T01:18:34Z</time>
  <course>187.48</course>
  <speed>0.02</speed>
  <fix>3d</fix>
</trkpt>
<trkpt lat="33.8098437" lon="-118.3939427">
  <ele>-1.473</ele>
  <time>2026-09-01T01:18:34Z</time>
  <course>187.35</course>
  <speed>0.02</speed>
  <fix>3d</fix>
</trkpt>
<trkpt lat="33.8097586" lon="-118.3939526">
  <ele>-3.38</ele>
  <time>2026-09-01T01:18:34Z</time>
  <course>19.93</course>
  <speed>0.02</speed>
  <fix>3d</fix>
</trkpt>
<trkpt lat="33.8098437" lon="-118.3939427">
  <ele>-1.468</ele>
  <time>2026-09-01T01:18:34Z</time>
  <course>187.35</course>
  <speed>0.02</speed>
  <fix>3d</fix>
</trkpt>
<trkpt lat="33.8098438" lon="-118.3939427">
  <ele>-1.352</ele>
  <time>2026-09-01T01:18:34Z</time>
  <course>187.22</course>
  <speed>0.02</speed>
  <fix>3d</fix>
</trkpt>
<trkpt lat="33.8097586" lon="-118.3939526">
  <ele>-3.38</ele>
  <time>2026-09-01T01:18:34Z</time>
  <course>19.93</course>
  <speed>0.02</speed>
  <fix>3d</fix>
</trkpt>
<trkpt lat="33.8098438" lon="-118.3939427">
  <ele>-1.348</ele>
  <time>2026-09-01T01:18:34Z</time>
  <course>187.22</course>
  <speed>0.02</speed>
  <fix>3d</fix>
</trkpt>
<trkpt lat="33.8098438" lon="-118.3939427">
  <ele>-1.231</ele>
  <time>2026-09-01T01:18:34Z</time>
  <course>187.09</course>
  <speed>0.02</speed>
  <fix>3d</fix>
</trkpt>
<trkpt lat="33.8097583" lon="-118.3939547">
  <ele>-3.14</ele>
  <time>2026-09-01T01:18:34Z</time>
  <course>20.91</course>
  <speed>0.02</speed>
  <fix>3d</fix>
</trkpt>
<trkpt lat="33.8098438" lon="-118.3939427">
  <ele>-1.228</ele>
  <time>2026-09-01T01:18:34Z</time>
  <course>187.09</course>
  <speed>0.02</speed>
  <fix>3d</fix>
</trkpt>
<trkpt lat="33.8098438" lon="-118.3939426">
  <ele>-1.11</ele>
  <time>2026-09-01T01:18:34Z</time>
  <course>186.96</course>
  <speed>0.02</speed>
  <fix>3d</fix>
</trkpt>
<trkpt lat="33.8097583" lon="-118.3939547">
  <ele>-3.14</ele>
  <time>2026-09-01T01:18:34Z</time>
  <course>20.91</course>
  <speed>0.02</speed>
  <fix>3d</fix>
</trkpt>
<trkpt lat="33.8098438" lon="-118.3939426">
  <ele>-1.107</ele>
  <time>2026-09-01T01:18:34Z</time>
  <course>186.96</course>
  <speed>0.02</speed>
  <fix>3d</fix>
</trkpt>
<trkpt lat="33.8098438" lon="-118.3939426">
  <ele>-0.988</ele>
  <time>2026-09-01T01:18:34Z</time>
  <course>186.84</course>
  <speed>0.02</speed>
  <fix>3d</fix>
</trkpt>
<trkpt lat="33.8097577" lon="-118.3939567">
  <ele>-2.91</ele>
  <time>2026-09-01T01:18:34Z</time>
  <course>21.6</course>
  <speed>0.02</speed>
  <fix>3d</fix>
</trkpt>
<trkpt lat="33.8098438" lon="-118.3939426">
  <ele>-0.985</ele>
  <time>2026-09-01T01:18:34Z</time>
  <course>186.84</course>
  <speed>0.02</speed>
  <fix>3d</fix>
</trkpt>
<trkpt lat="33.8098438" lon="-118.3939426">
  <ele>-0.865</ele>
  <time>2026-09-01T01:18:34Z</time>
  <course>186.73</course>
  <speed>0.02</speed>
  <fix>3d</fix>
</trkpt>
<trkpt lat="33.8097577" lon="-118.3939567">
  <ele>-2.91</ele>
  <time>2026-09-01T01:18:34Z</time>
  <course>21.6</course>
  <speed>0.02</speed>
  <fix>3d</fix>
</trkpt>
<trkpt lat="33.8098438" lon="-118.3939426">
  <ele>-0.862</ele>
  <time>2026-09-01T01:18:34Z</time>
  <course>186.72</course>
  <speed>0.02</speed>
  <fix>3d</fix>
</trkpt>
<trkpt lat="33.8098439" lon="-118.3939426">
  <ele>-0.742</ele>
  <time>2026-09-01T01:18:34Z</time>
  <course>186.62</course>
  <speed>0.02</speed>
  <fix>3d</fix>
</trkpt>
<trkpt lat="33.809757" lon="-118.3939587">
  <ele>-2.68</ele>
  <time>2026-09-01T01:18:34Z</time>
  <course>21.96</course>
  <speed>0.02</speed>
  <fix>3d</fix>
</trkpt>
<trkpt lat="33.8098439" lon="-118.3939426">
  <ele>-0.739</ele>
  <time>2026-09-01T01:18:34Z</time>
  <course>186.61</course>
  <speed>0.02</speed>
  <fix>3d</fix>
</trkpt>
<trkpt lat="33.8098439" lon="-118.3939426">
  <ele>-0.619</ele>
  <time>2026-09-01T01:18:34Z</time>
  <course>186.51</course>
  <speed>0.02</speed>
  <fix>3d</fix>
</trkpt>
<trkpt lat="33.809757" lon="-118.3939587">
  <ele>-2.68</ele>
  <time>2026-09-01T01:18:34Z</time>
  <course>21.96</course>
  <speed>0.02</speed>
  <fix>3d</fix>
</trkpt>
<trkpt lat="33.8098439" lon="-118.3939426">
  <ele>-0.616</ele>
  <time>2026-09-01T01:18:34Z</time>
  <course>186.51</course>
  <speed>0.02</speed>
  <fix>3d</fix>
</trkpt>
<trkpt lat="33.8098439" lon="-118.3939426">
  <ele>-0.495</ele>
  <time>2026-09-01T01:18:34Z</time>
  <course>186.41</course>
  <speed>0.02</speed>
  <fix>3d</fix>
</trkpt>
<trkpt lat="33.8097562" lon="-118.3939606">
  <ele>-2.44</ele>
  <time>2026-09-01T01:18:34Z</time>
  <course>22.14</course>
  <speed>0.02</speed>
  <fix>3d</fix>
</trkpt>
<trkpt lat="33.8098439" lon="-118.3939426">
  <ele>-0.492</ele>
  <time>2026-09-01T01:18:34Z</time>
  <course>186.41</course>
  <speed>0.02</speed>
  <fix>3d</fix>
</trkpt>
<trkpt lat="33.8098439" lon="-118.3939426">
  <ele>-0.371</ele>
  <time>2026-09-01T01:18:34Z</time>
  <course>186.31</course>
  <speed>0.02</speed>
  <fix>3d</fix>
</trkpt>
<trkpt lat="33.8097562" lon="-118.3939606">
  <ele>-2.44</ele>
  <time>2026-09-01T01:18:34Z</time>
  <course>22.14</course>
  <speed>0.02</speed>
  <fix>3d</fix>
</trkpt>
<trkpt lat="33.8098439" lon="-118.3939426">
  <ele>-0.246</ele>
  <time>2026-09-01T01:18:34Z</time>
  <course>186.23</course>
  <speed>0.02</speed>
  <fix>3d</fix>
</trkpt>
<trkpt lat="33.8097552" lon="-118.3939623">
  <ele>-2.21</ele>
  <time>2026-09-01T01:18:34Z</time>
  <course>22.32</course>
  <speed>0.02</speed>
  <fix>3d</fix>
</trkpt>
<trkpt lat="33.809844" lon="-118.3939426">
  <ele>-0.123</ele>
  <time>2026-09-01T01:18:34Z</time>
  <course>186.19</course>
  <speed>0.01</speed>
  <fix>3d</fix>
</trkpt>
<trkpt lat="33.8097552" lon="-118.3939623">
  <ele>-2.21</ele>
  <time>2026-09-01T01:18:34Z</time>
  <course>22.32</course>
  <speed>0.02</speed>
  <fix>3d</fix>
</trkpt>
<trkpt lat="33.809844" lon="-118.3939426">
  <ele>0.0</ele>
  <time>2026-09-01T01:18:34Z</time>
  <course>186.24</course>
  <speed>0.01</speed>
  <fix>3d</fix>
</trkpt>
<trkpt lat="33.809754" lon="-118.3939639">
  <ele>-1.98</ele>
  <time>2026-09-01T01:18:34Z</time>
  <course>22.81</course>
  <speed>0.01</speed>
  <fix>3d</fix>
</trkpt>
<trkpt lat="33.809844" lon="-118.3939426">
  <ele>0.117</ele>
  <time>2026-09-01T01:18:34Z</time>
  <course>186.45</course>
  <speed>0.01</speed>
  <fix>3d</fix>
</trkpt>
<trkpt lat="33.809754" lon="-118.3939639">
  <ele>-1.98</ele>
  <time>2026-09-01T01:18:34Z</time>
  <course>22.81</course>
  <speed>0.01</speed>
  <fix>3d</fix>
</trkpt>
<trkpt lat="33.8097529" lon="-118.3939653">
  <ele>0.221</ele>
  <time>2026-09-01T01:18:34Z</time>
  <course>186.75</course>
  <speed>0.01</speed>
  <fix>3d</fix>
</trkpt>
<trkpt lat="33.8097528" lon="-118.3939654">
  <ele>-1.75</ele>
  <time>2026-09-01T01:18:34Z</time>
  <course>35.61</course>
  <speed>0.01</speed>
  <fix>3d</fix>
</trkpt>
<trkpt lat="33.8097529" lon="-118.3939653">
  <ele>0.31</ele>
  <time>2026-09-01T01:18:34Z</time>
  <course>186.99</course>
  <speed>0.01</speed>
  <fix>3d</fix>
</trkpt>
<trkpt lat="33.8097528" lon="-118.3939654">
  <ele>-1.75</ele>
  <time>2026-09-01T01:18:34Z</time>
  <course>35.61</course>
  <speed>0.01</speed>
  <fix>3d</fix>
</trkpt>
<trkpt lat="33.8097515" lon="-118.3939665">
  <ele>0.383</ele>
  <time>2026-09-01T01:18:34Z</time>
  <course>187.19</course>
  <speed>0.0</speed>
  <fix>3d</fix>
</trkpt>
<trkpt lat="33.8097514" lon="-118.3939666">
  <ele>-1.56</ele>
  <time>2026-09-01T01:18:34Z</time>
  <course>51.29</course>
  <speed>0.01</speed>
  <fix>3d</fix>
</trkpt>
<trkpt lat="33.8097515" lon="-118.3939665">
  <ele>0.438</ele>
  <time>2026-09-01T01:18:34Z</time>
  <course>187.36</course>
  <speed>0.0</speed>
  <fix>3d</fix>
</trkpt>
<trkpt lat="33.8097514" lon="-118.3939666">
  <ele>-1.56</ele>
  <time>2026-09-01T01:18:34Z</time>
  <course>51.29</course>
  <speed>0.01</speed>
  <fix>3d</fix>
</trkpt>
<trkpt lat="33.8097515" lon="-118.3939665">
  <ele>0.479</ele>
  <time>2026-09-01T01:18:34Z</time>
  <course>187.51</course>
  <speed>0.0</speed>
  <fix>3d</fix>
</trkpt>
<trkpt lat="33.8097498" lon="-118.3939678">
  <ele>-1.43</ele>
  <time>2026-09-01T01:18:34Z</time>
  <course>52.27</course>
  <speed>0.01</speed>
  <fix>3d</fix>
</trkpt>
<trkpt lat="33.8097515" lon="-118.3939665">
  <ele>0.511</ele>
  <time>2026-09-01T01:18:34Z</time>
  <course>187.65</course>
  <speed>0.0</speed>
  <fix>3d</fix>
</trkpt>
<trkpt lat="33.8097498" lon="-118.3939678">
  <ele>-1.43</ele>
  <time>2026-09-01T01:18:34Z</time>
  <course>52.27</course>
  <speed>0.01</speed>
  <fix>3d</fix>
</trkpt>
<trkpt lat="33.8097515" lon="-118.3939665">
  <ele>0.537</ele>
  <time>2026-09-01T01:18:34Z</time>
  <course>187.78</course>
  <speed>0.0</speed>
  <fix>3d</fix>
</trkpt>
<trkpt lat="33.8097482" lon="-118.3939687">
  <ele>-1.35</ele>
  <time>2026-09-01T01:18:34Z</time>
  <course>51.62</course>
  <speed>0.01</speed>
  <fix>3d</fix>
</trkpt>
<trkpt lat="33.8097515" lon="-118.3939665">
  <ele>0.558</ele>
  <time>2026-09-01T01:18:34Z</time>
  <course>187.91</course>
  <speed>0.0</speed>
  <fix>3d</fix>
</trkpt>
<trkpt lat="33.8097482" lon="-118.3939687">
  <ele>-1.35</ele>
  <time>2026-09-01T01:18:34Z</time>
  <course>51.62</course>
  <speed>0.01</speed>
  <fix>3d</fix>
</trkpt>
<trkpt lat="33.8097514" lon="-118.3939665">
  <ele>0.575</ele>
  <time>2026-09-01T01:18:34Z</time>
  <course>188.03</course>
  <speed>0.01</speed>
  <fix>3d</fix>
</trkpt>
<trkpt lat="33.8097466" lon="-118.3939695">
  <ele>-1.3</ele>
  <time>2026-09-01T01:18:34Z</time>
  <course>51.41</course>
  <speed>0.01</speed>
  <fix>3d</fix>
</trkpt>
<trkpt lat="33.8097514" lon="-118.3939665">
  <ele>0.592</ele>
  <time>2026-09-01T01:18:34Z</time>
  <course>188.14</course>
  <speed>0.01</speed>
  <fix>3d</fix>
</trkpt>
<trkpt lat="33.8097466" lon="-118.3939695">
  <ele>-1.3</ele>
  <time>2026-09-01T01:18:34Z</time>
  <course>51.41</course>
  <speed>0.01</speed>
  <fix>3d</fix>
</trkpt>
<trkpt lat="33.8097514" lon="-118.3939665">
  <ele>0.606</ele>
  <time>2026-09-01T01:18:34Z</time>
  <course>188.25</course>
  <speed>0.01</speed>
  <fix>3d</fix>
</trkpt>
<trkpt lat="33.8097449" lon="-118.39397">
  <ele>-1.28</ele>
  <time>2026-09-01T01:18:34Z</time>
  <course>51.68</course>
  <speed>0.01</speed>
  <fix>3d</fix>
</trkpt>
<trkpt lat="33.8097514" lon="-118.3939666">
  <ele>0.619</ele>
  <time>2026-09-01T01:18:34Z</time>
  <course>188.35</course>
  <speed>0.01</speed>
  <fix>3d</fix>
</trkpt>
<trkpt lat="33.8097449" lon="-118.39397">
  <ele>-1.28</ele>
  <time>2026-09-01T01:18:34Z</time>
  <course>51.68</course>
  <speed>0.01</speed>
  <fix>3d</fix>
</trkpt>
<trkpt lat="33.8097513" lon="-118.3939666">
  <ele>0.631</ele>
  <time>2026-09-01T01:18:34Z</time>
  <course>188.45</course>
  <speed>0.01</speed>
  <fix>3d</fix>
</trkpt>
<trkpt lat="33.8097431" lon="-118.3939703">
  <ele>-1.25</ele>
  <time>2026-09-01T01:18:34Z</time>
  <course>51.92</course>
  <speed>0.01</speed>
  <fix>3d</fix>
</trkpt>
<trkpt lat="33.8097513" lon="-118.3939666">
  <ele>0.643</ele>
  <time>2026-09-01T01:18:34Z</time>
  <course>188.54</course>
  <speed>0.01</speed>
  <fix>3d</fix>
</trkpt>
<trkpt lat="33.8097431" lon="-118.3939703">
  <ele>-1.25</ele>
  <time>2026-09-01T01:18:34Z</time>
  <course>51.92</course>
  <speed>0.01</speed>
  <fix>3d</fix>
</trkpt>
<trkpt lat="33.8097512" lon="-118.3939666">
  <ele>0.653</ele>
  <time>2026-09-01T01:18:34Z</time>
  <course>188.63</course>
  <speed>0.01</speed>
  <fix>3d</fix>
</trkpt>
<trkpt lat="33.8097413" lon="-118.3939704">
  <ele>-1.23</ele>
  <time>2026-09-01T01:18:34Z</time>
  <course>51.98</course>
  <speed>0.01</speed>
  <fix>3d</fix>
</trkpt>
<trkpt lat="33.8097512" lon="-118.3939666">
  <ele>0.663</ele>
  <time>2026-09-01T01:18:34Z</time>
  <course>188.72</course>
  <speed>0.01</speed>
  <fix>3d</fix>
</trkpt>
<trkpt lat="33.8097413" lon="-118.3939704">
  <ele>-1.23</ele>
  <time>2026-09-01T01:18:34Z</time>
  <course>51.98</course>
  <speed>0.01</speed>
  <fix>3d</fix>
</trkpt>
<trkpt lat="33.8097511" lon="-118.3939666">
  <ele>0.674</ele>
  <time>2026-09-01T01:18:34Z</time>
  <course>188.8</course>
  <speed>0.01</speed>
  <fix>3d</fix>
</trkpt>
<trkpt lat="33.8097395" lon="-118.3939703">
  <ele>-1.22</ele>
  <time>2026-09-01T01:18:34Z</time>
  <course>51.86</course>
  <speed>0.01</speed>
  <fix>3d</fix>
</trkpt>
<trkpt lat="33.809751" lon="-118.3939667">
  <ele>0.685</ele>
  <time>2026-09-01T01:18:34Z</time>
  <course>188.88</course>
  <speed>0.01</speed>
  <fix>3d</fix>
</trkpt>
<trkpt lat="33.8097395" lon="-118.3939703">
  <ele>-1.22</ele>
  <time>2026-09-01T01:18:34Z</time>
  <course>51.86</course>
  <speed>0.01</speed>
  <fix>3d</fix>
</trkpt>
<trkpt lat="33.8097509" lon="-118.3939667">
  <ele>0.696</ele>
  <time>2026-09-01T01:18:34Z</time>
  <course>188.96</course>
  <speed>0.01</speed>
  <fix>3d</fix>
</trkpt>
<trkpt lat="33.8097378" lon="-118.39397">
  <ele>-1.21</ele>
  <time>2026-09-01T01:18:34Z</time>
  <course>51.67</course>
  <speed>0.01</speed>
  <fix>3d</fix>
</trkpt>
<trkpt lat="33.8097509" lon="-118.3939667">
  <ele>0.706</ele>
  <time>2026-09-01T01:18:34Z</time>
  <course>189.04</course>
  <speed>0.01</speed>
  <fix>3d</fix>
</trkpt>
<trkpt lat="33.8097378" lon="-118.39397">
  <ele>-1.21</ele>
  <time>2026-09-01T01:18:34Z</time>
  <course>51.67</course>
  <speed>0.01</speed>
  <fix>3d</fix>
</trkpt>
<trkpt lat="33.8097508" lon="-118.3939667">
  <ele>0.715</ele>
  <time>2026-09-01T01:18:34Z</time>
  <course>189.11</course>
  <speed>0.0</speed>
  <fix>3d</fix>
</trkpt>
<trkpt lat="33.809736" lon="-118.3939694">
  <ele>-1.19</ele>
  <time>2026-09-01T01:18:34Z</time>
  <course>51.51</course>
  <speed>0.01</speed>
  <fix>3d</fix>
</trkpt>
<trkpt lat="33.8097507" lon="-118.3939667">
  <ele>0.724</ele>
  <time>2026-09-01T01:18:34Z</time>
  <course>189.18</course>
  <speed>0.01</speed>
  <fix>3d</fix>
</trkpt>
<trkpt lat="33.809736" lon="-118.3939694">
  <ele>-1.19</ele>
  <time>2026-09-01T01:18:34Z</time>
  <course>51.51</course>
  <speed>0.01</speed>
  <fix>3d</fix>
</trkpt>
<trkpt lat="33.8097506" lon="-118.3939667">
  <ele>0.733</ele>
  <time>2026-09-01T01:18:34Z</time>
  <course>189.25</course>
  <speed>0.01</speed>
  <fix>3d</fix>
</trkpt>
<trkpt lat="33.8097344" lon="-118.3939686">
  <ele>-0.79</ele>
  <time>2026-09-01T01:18:34Z</time>
  <course>51.46</course>
  <speed>0.01</speed>
  <fix>3d</fix>
</trkpt>
<trkpt lat="33.8097505" lon="-118.3939667">
  <ele>0.743</ele>
  <time>2026-09-01T01:18:34Z</time>
  <course>189.32</course>
  <speed>0.01</speed>
  <fix>3d</fix>
</trkpt>
<trkpt lat="33.8097344" lon="-118.3939686">
  <ele>-0.79</ele>
  <time>2026-09-01T01:18:34Z</time>
  <course>51.46</course>
  <speed>0.01</speed>
  <fix>3d</fix>
</trkpt>
<trkpt lat="33.8097504" lon="-118.3939667">
  <ele>0.752</ele>
  <time>2026-09-01T01:18:34Z</time>
  <course>189.38</course>
  <speed>0.01</speed>
  <fix>3d</fix>
</trkpt>
<trkpt lat="33.8097414" lon="-118.3939487">
  <ele>-0.38</ele>
  <time>2026-09-01T01:18:34Z</time>
  <course>51.51</course>
  <speed>0.01</speed>
  <fix>3d</fix>
</trkpt>
<trkpt lat="33.8097503" lon="-118.3939667">
  <ele>0.761</ele>
  <time>2026-09-01T01:18:34Z</time>
  <course>189.44</course>
  <speed>0.01</speed>
  <fix>3d</fix>
</trkpt>
<trkpt lat="33.8097414" lon="-118.3939487">
  <ele>-0.38</ele>
  <time>2026-09-01T01:18:34Z</time>
  <course>51.51</course>
  <speed>0.01</speed>
  <fix>3d</fix>
</trkpt>
<trkpt lat="33.8097502" lon="-118.3939666">
  <ele>0.77</ele>
  <time>2026-09-01T01:18:34Z</time>
  <course>189.51</course>
  <speed>0.01</speed>
  <fix>3d</fix>
</trkpt>
<trkpt lat="33.8097414" lon="-118.3939487">
  <ele>-0.36</ele>
  <time>2026-09-01T01:18:34Z</time>
  <course>51.57</course>
  <speed>0.01</speed>
  <fix>3d</fix>
</trkpt>
<trkpt lat="33.8097502" lon="-118.3939665">
  <ele>0.78</ele>
  <time>2026-09-01T01:18:34Z</time>
  <course>189.57</course>
  <speed>0.01</speed>
  <fix>3d</fix>
</trkpt>
<trkpt lat="33.8097414" lon="-118.3939487">
  <ele>-0.36</ele>
  <time>2026-09-01T01:18:34Z</time>
  <course>51.57</course>
  <speed>0.01</speed>
  <fix>3d</fix>
</trkpt>
<trkpt lat="33.8097501" lon="-118.3939662">
  <ele>0.789</ele>
  <time>2026-09-01T01:18:34Z</time>
  <course>189.62</course>
  <speed>0.01</speed>
  <fix>3d</fix>
</trkpt>
<trkpt lat="33.8097414" lon="-118.3939487">
  <ele>-0.34</ele>
  <time>2026-09-01T01:18:34Z</time>
  <course>51.57</course>
  <speed>0.01</speed>
  <fix>3d</fix>
</trkpt>
<trkpt lat="33.80975" lon="-118.3939662">
  <ele>0.798</ele>
  <time>2026-09-01T01:18:34Z</time>
  <course>189.68</course>
  <speed>0.01</speed>
  <fix>3d</fix>
</trkpt>
<trkpt lat="33.8097414" lon="-118.3939487">
  <ele>-0.34</ele>
  <time>2026-09-01T01:18:34Z</time>
  <course>51.57</course>
  <speed>0.01</speed>
  <fix>3d</fix>
</trkpt>
</trkseg>
</trk>
</gpx>
